<?xml version="1.0" encoding="UTF-8" standalone="no" ?>
<gpx xmlns="http://www.topografix.com/GPX/1/1" xmlns:xsi="http://www.w3.org/2001/XMLSchema-instance" xsi:schemaLocation="http://www.topografix.com/GPX/1/1 http://www.topografix.com/GPX/1/1/gpx.xsd" version="1.1" creator="VisuGPX - https://www.visugpx.com">
  <metadata>
    <name>premiere partie voyage</name>
  </metadata>
  <trk>
    <name><![CDATA[Fruits du Chaine]]></name>
    <trkseg>
      <trkpt lat="47.3009" lon="-2.17773">
        <ele>0.78358</ele>
        <time>2020-06-05T14:29:09.014Z</time>
      </trkpt>
      <trkpt lat="47.30098" lon="-2.17765">
        <ele>0.78358</ele>
        <time>2020-06-05T14:29:13.015Z</time>
      </trkpt>
      <trkpt lat="47.30107" lon="-2.17757">
        <ele>0.78358</ele>
        <time>2020-06-05T14:29:17.016Z</time>
      </trkpt>
      <trkpt lat="47.30115" lon="-2.17748">
        <ele>0.78358</ele>
        <time>2020-06-05T14:29:20.016Z</time>
      </trkpt>
      <trkpt lat="47.30124" lon="-2.17737">
        <ele>0.78358</ele>
        <time>2020-06-05T14:29:23.016Z</time>
      </trkpt>
      <trkpt lat="47.30131" lon="-2.17725">
        <ele>0.78358</ele>
        <time>2020-06-05T14:29:27.017Z</time>
      </trkpt>
      <trkpt lat="47.30134" lon="-2.17709">
        <ele>0.78358</ele>
        <time>2020-06-05T14:29:31.017Z</time>
      </trkpt>
      <trkpt lat="47.30139" lon="-2.17695">
        <ele>0.78358</ele>
        <time>2020-06-05T14:29:34.017Z</time>
      </trkpt>
      <trkpt lat="47.30147" lon="-2.17683">
        <ele>0.78358</ele>
        <time>2020-06-05T14:29:37.018Z</time>
      </trkpt>
      <trkpt lat="47.30158" lon="-2.17675">
        <ele>0.769297</ele>
        <time>2020-06-05T14:29:40.018Z</time>
      </trkpt>
      <trkpt lat="47.30168" lon="-2.17675">
        <ele>0.75355</ele>
        <time>2020-06-05T14:29:42.018Z</time>
      </trkpt>
      <trkpt lat="47.30181" lon="-2.17683">
        <ele>0.7315</ele>
        <time>2020-06-05T14:29:45.018Z</time>
      </trkpt>
      <trkpt lat="47.30191" lon="-2.17694">
        <ele>0.711085</ele>
        <time>2020-06-05T14:29:48.018Z</time>
      </trkpt>
      <trkpt lat="47.302" lon="-2.17708">
        <ele>0.690659</ele>
        <time>2020-06-05T14:29:51.018Z</time>
      </trkpt>
      <trkpt lat="47.30201" lon="-2.17721">
        <ele>0.676318</ele>
        <time>2020-06-05T14:29:53.018Z</time>
      </trkpt>
      <trkpt lat="47.30203" lon="-2.17739">
        <ele>0.657189</ele>
        <time>2020-06-05T14:29:56.018Z</time>
      </trkpt>
      <trkpt lat="47.3021" lon="-2.1775">
        <ele>0.639876</ele>
        <time>2020-06-05T14:30:00.018Z</time>
      </trkpt>
      <trkpt lat="47.3022" lon="-2.17759">
        <ele>0.621933</ele>
        <time>2020-06-05T14:30:03.018Z</time>
      </trkpt>
      <trkpt lat="47.30229" lon="-2.17767">
        <ele>0.60462</ele>
        <time>2020-06-05T14:30:06.018Z</time>
      </trkpt>
      <trkpt lat="47.30241" lon="-2.17772">
        <ele>0.585828</ele>
        <time>2020-06-05T14:30:09.018Z</time>
      </trkpt>
      <trkpt lat="47.30251" lon="-2.17776">
        <ele>0.56847</ele>
        <time>2020-06-05T14:30:12.018Z</time>
      </trkpt>
      <trkpt lat="47.30261" lon="-2.17782">
        <ele>0.55224</ele>
        <time>2020-06-05T14:30:15.018Z</time>
      </trkpt>
      <trkpt lat="47.30269" lon="-2.17788">
        <ele>0.537063</ele>
        <time>2020-06-05T14:30:18.018Z</time>
      </trkpt>
      <trkpt lat="47.30281" lon="-2.17793">
        <ele>0.517783</ele>
        <time>2020-06-05T14:30:21.018Z</time>
      </trkpt>
      <trkpt lat="47.30293" lon="-2.17802">
        <ele>0.499003</ele>
        <time>2020-06-05T14:30:24.018Z</time>
      </trkpt>
      <trkpt lat="47.30302" lon="-2.17813">
        <ele>0.526842</ele>
        <time>2020-06-05T14:30:27.018Z</time>
      </trkpt>
      <trkpt lat="47.3031" lon="-2.17825">
        <ele>0.553678</ele>
        <time>2020-06-05T14:30:30.018Z</time>
      </trkpt>
      <trkpt lat="47.30317" lon="-2.17841">
        <ele>0.583274</ele>
        <time>2020-06-05T14:30:33.018Z</time>
      </trkpt>
      <trkpt lat="47.30323" lon="-2.17859">
        <ele>0.614191</ele>
        <time>2020-06-05T14:30:36.018Z</time>
      </trkpt>
      <trkpt lat="47.30326" lon="-2.17876">
        <ele>0.641228</ele>
        <time>2020-06-05T14:30:39.018Z</time>
      </trkpt>
      <trkpt lat="47.30325" lon="-2.1789">
        <ele>0.66469</ele>
        <time>2020-06-05T14:30:42.018Z</time>
      </trkpt>
      <trkpt lat="47.30326" lon="-2.17906">
        <ele>0.68907</ele>
        <time>2020-06-05T14:30:45.017Z</time>
      </trkpt>
      <trkpt lat="47.30325" lon="-2.17921">
        <ele>0.712605</ele>
        <time>2020-06-05T14:30:47.017Z</time>
      </trkpt>
      <trkpt lat="47.30329" lon="-2.17937">
        <ele>0.738909</ele>
        <time>2020-06-05T14:30:50.017Z</time>
      </trkpt>
      <trkpt lat="47.30332" lon="-2.17953">
        <ele>0.764868</ele>
        <time>2020-06-05T14:30:53.017Z</time>
      </trkpt>
      <trkpt lat="47.30336" lon="-2.17969">
        <ele>0.792035</ele>
        <time>2020-06-05T14:30:56.017Z</time>
      </trkpt>
      <trkpt lat="47.30343" lon="-2.17983">
        <ele>0.818645</ele>
        <time>2020-06-05T14:30:59.017Z</time>
      </trkpt>
      <trkpt lat="47.30349" lon="-2.17999">
        <ele>0.847297</ele>
        <time>2020-06-05T14:31:02.017Z</time>
      </trkpt>
      <trkpt lat="47.30357" lon="-2.18014">
        <ele>0.877443</ele>
        <time>2020-06-05T14:31:05.017Z</time>
      </trkpt>
      <trkpt lat="47.30364" lon="-2.18029">
        <ele>0.906394</ele>
        <time>2020-06-05T14:31:08.017Z</time>
      </trkpt>
      <trkpt lat="47.30371" lon="-2.18044">
        <ele>0.98476</ele>
        <time>2020-06-05T14:31:11.017Z</time>
      </trkpt>
      <trkpt lat="47.3038" lon="-2.18057">
        <ele>1.077041</ele>
        <time>2020-06-05T14:31:14.017Z</time>
      </trkpt>
      <trkpt lat="47.30386" lon="-2.18072">
        <ele>1.170881</ele>
        <time>2020-06-05T14:31:17.016Z</time>
      </trkpt>
      <trkpt lat="47.30394" lon="-2.18087">
        <ele>1.26662</ele>
        <time>2020-06-05T14:31:20.016Z</time>
      </trkpt>
      <trkpt lat="47.30402" lon="-2.181">
        <ele>1.35553</ele>
        <time>2020-06-05T14:31:23.017Z</time>
      </trkpt>
      <trkpt lat="47.30412" lon="-2.18106">
        <ele>1.436448</ele>
        <time>2020-06-05T14:31:26.017Z</time>
      </trkpt>
      <trkpt lat="47.30424" lon="-2.18111">
        <ele>1.530439</ele>
        <time>2020-06-05T14:31:30.017Z</time>
      </trkpt>
      <trkpt lat="47.30435" lon="-2.18114">
        <ele>1.61532</ele>
        <time>2020-06-05T14:31:33.017Z</time>
      </trkpt>
      <trkpt lat="47.30445" lon="-2.18117">
        <ele>1.698921</ele>
        <time>2020-06-05T14:31:36.017Z</time>
      </trkpt>
      <trkpt lat="47.30456" lon="-2.18122">
        <ele>1.784312</ele>
        <time>2020-06-05T14:31:39.017Z</time>
      </trkpt>
      <trkpt lat="47.30468" lon="-2.18127">
        <ele>1.876258</ele>
        <time>2020-06-05T14:31:42.017Z</time>
      </trkpt>
      <trkpt lat="47.3048" lon="-2.18132">
        <ele>1.972306</ele>
        <time>2020-06-05T14:31:45.017Z</time>
      </trkpt>
      <trkpt lat="47.30491" lon="-2.18134">
        <ele>2.054234</ele>
        <time>2020-06-05T14:31:48.017Z</time>
      </trkpt>
      <trkpt lat="47.30502" lon="-2.18138">
        <ele>2.142629</ele>
        <time>2020-06-05T14:31:51.017Z</time>
      </trkpt>
      <trkpt lat="47.3051" lon="-2.18147">
        <ele>2.223333</ele>
        <time>2020-06-05T14:31:55.017Z</time>
      </trkpt>
      <trkpt lat="47.30516" lon="-2.18136">
        <ele>2.320222</ele>
        <time>2020-06-05T14:32:05.016Z</time>
      </trkpt>
      <trkpt lat="47.30523" lon="-2.18127">
        <ele>2.500297</ele>
        <time>2020-06-05T14:32:08.016Z</time>
      </trkpt>
      <trkpt lat="47.30529" lon="-2.18117">
        <ele>2.677126</ele>
        <time>2020-06-05T14:32:11.016Z</time>
      </trkpt>
      <trkpt lat="47.30538" lon="-2.18113">
        <ele>2.85527</ele>
        <time>2020-06-05T14:32:31.016Z</time>
      </trkpt>
      <trkpt lat="47.30546" lon="-2.18108">
        <ele>3.034332</ele>
        <time>2020-06-05T14:33:12.016Z</time>
      </trkpt>
      <trkpt lat="47.30537" lon="-2.18098">
        <ele>3.256376</ele>
        <time>2020-06-05T15:46:02.002Z</time>
      </trkpt>
      <trkpt lat="47.30544" lon="-2.18108">
        <ele>3.443841</ele>
        <time>2020-06-05T15:46:26.999Z</time>
      </trkpt>
      <trkpt lat="47.30554" lon="-2.181">
        <ele>3.663039</ele>
        <time>2020-06-05T15:46:31.999Z</time>
      </trkpt>
      <trkpt lat="47.3056" lon="-2.1809">
        <ele>3.850556</ele>
        <time>2020-06-05T15:46:34.999Z</time>
      </trkpt>
      <trkpt lat="47.30567" lon="-2.1808">
        <ele>4.033878</ele>
        <time>2020-06-05T15:46:37.998Z</time>
      </trkpt>
      <trkpt lat="47.30575" lon="-2.18072">
        <ele>4.221181</ele>
        <time>2020-06-05T15:46:40.998Z</time>
      </trkpt>
      <trkpt lat="47.30581" lon="-2.1806">
        <ele>4.424181</ele>
        <time>2020-06-05T15:46:44.998Z</time>
      </trkpt>
      <trkpt lat="47.3059" lon="-2.18052">
        <ele>4.616372</ele>
        <time>2020-06-05T15:46:48.998Z</time>
      </trkpt>
      <trkpt lat="47.30597" lon="-2.18063">
        <ele>4.821422</ele>
        <time>2020-06-05T15:46:51.998Z</time>
      </trkpt>
      <trkpt lat="47.30604" lon="-2.18076">
        <ele>5.035279</ele>
        <time>2020-06-05T15:46:53.998Z</time>
      </trkpt>
      <trkpt lat="47.3061" lon="-2.18087">
        <ele>5.222552</ele>
        <time>2020-06-05T15:46:55.998Z</time>
      </trkpt>
      <trkpt lat="47.30616" lon="-2.181">
        <ele>5.428153</ele>
        <time>2020-06-05T15:46:57.998Z</time>
      </trkpt>
      <trkpt lat="47.30622" lon="-2.18111">
        <ele>5.625083</ele>
        <time>2020-06-05T15:46:59.998Z</time>
      </trkpt>
      <trkpt lat="47.30627" lon="-2.18123">
        <ele>5.722565</ele>
        <time>2020-06-05T15:47:01.998Z</time>
      </trkpt>
      <trkpt lat="47.30633" lon="-2.18137">
        <ele>5.136865</ele>
        <time>2020-06-05T15:47:04.998Z</time>
      </trkpt>
      <trkpt lat="47.30641" lon="-2.18151">
        <ele>4.543819</ele>
        <time>2020-06-05T15:47:07.997Z</time>
      </trkpt>
      <trkpt lat="47.30647" lon="-2.18168">
        <ele>3.889682</ele>
        <time>2020-06-05T15:47:10.997Z</time>
      </trkpt>
      <trkpt lat="47.30653" lon="-2.18183">
        <ele>3.292824</ele>
        <time>2020-06-05T15:47:13.997Z</time>
      </trkpt>
      <trkpt lat="47.3066" lon="-2.18199">
        <ele>2.658104</ele>
        <time>2020-06-05T15:47:16.997Z</time>
      </trkpt>
      <trkpt lat="47.30668" lon="-2.18215">
        <ele>1.971232</ele>
        <time>2020-06-05T15:47:19.997Z</time>
      </trkpt>
      <trkpt lat="47.30674" lon="-2.18232">
        <ele>1.30936</ele>
        <time>2020-06-05T15:47:22.997Z</time>
      </trkpt>
      <trkpt lat="47.30679" lon="-2.18244">
        <ele>0.842067</ele>
        <time>2020-06-05T15:47:24.997Z</time>
      </trkpt>
      <trkpt lat="47.30684" lon="-2.18256">
        <ele>0.371473</ele>
        <time>2020-06-05T15:47:26.997Z</time>
      </trkpt>
      <trkpt lat="47.30689" lon="-2.18268">
        <ele>-0.117089</ele>
        <time>2020-06-05T15:47:28.997Z</time>
      </trkpt>
      <trkpt lat="47.30693" lon="-2.18284">
        <ele>-0.689276</ele>
        <time>2020-06-05T15:47:30.997Z</time>
      </trkpt>
      <trkpt lat="47.30697" lon="-2.18297">
        <ele>-1.180384</ele>
        <time>2020-06-05T15:47:32.997Z</time>
      </trkpt>
      <trkpt lat="47.30703" lon="-2.18314">
        <ele>-1.82011</ele>
        <time>2020-06-05T15:47:35.997Z</time>
      </trkpt>
      <trkpt lat="47.30709" lon="-2.18331">
        <ele>-2.479599</ele>
        <time>2020-06-05T15:47:38.997Z</time>
      </trkpt>
      <trkpt lat="47.30716" lon="-2.18347">
        <ele>-3.141545</ele>
        <time>2020-06-05T15:47:41.997Z</time>
      </trkpt>
      <trkpt lat="47.30721" lon="-2.18358">
        <ele>-3.036944</ele>
        <time>2020-06-05T15:47:43.997Z</time>
      </trkpt>
      <trkpt lat="47.30727" lon="-2.18377">
        <ele>-2.64814</ele>
        <time>2020-06-05T15:47:46.996Z</time>
      </trkpt>
      <trkpt lat="47.30732" lon="-2.18389">
        <ele>-2.385291</ele>
        <time>2020-06-05T15:47:48.996Z</time>
      </trkpt>
      <trkpt lat="47.30738" lon="-2.18402">
        <ele>-2.080536</ele>
        <time>2020-06-05T15:47:50.996Z</time>
      </trkpt>
      <trkpt lat="47.30745" lon="-2.18413">
        <ele>-1.791067</ele>
        <time>2020-06-05T15:47:52.996Z</time>
      </trkpt>
      <trkpt lat="47.30752" lon="-2.18425">
        <ele>-1.49402</ele>
        <time>2020-06-05T15:47:54.996Z</time>
      </trkpt>
      <trkpt lat="47.3076" lon="-2.18441">
        <ele>-1.123654</ele>
        <time>2020-06-05T15:47:57.996Z</time>
      </trkpt>
      <trkpt lat="47.30768" lon="-2.18455">
        <ele>-0.77944</ele>
        <time>2020-06-05T15:48:00.996Z</time>
      </trkpt>
      <trkpt lat="47.30776" lon="-2.18466">
        <ele>-0.472857</ele>
        <time>2020-06-05T15:48:04.996Z</time>
      </trkpt>
      <trkpt lat="47.30787" lon="-2.18466">
        <ele>-0.166208</ele>
        <time>2020-06-05T15:48:07.996Z</time>
      </trkpt>
      <trkpt lat="47.308" lon="-2.18466">
        <ele>0.196155</ele>
        <time>2020-06-05T15:48:10.996Z</time>
      </trkpt>
      <trkpt lat="47.30812" lon="-2.18467">
        <ele>0.527539</ele>
        <time>2020-06-05T15:48:13.996Z</time>
      </trkpt>
      <trkpt lat="47.30825" lon="-2.18466">
        <ele>0.886897</ele>
        <time>2020-06-05T15:48:16.996Z</time>
      </trkpt>
      <trkpt lat="47.30835" lon="-2.18464">
        <ele>1.165121</ele>
        <time>2020-06-05T15:48:18.996Z</time>
      </trkpt>
      <trkpt lat="47.30847" lon="-2.18462">
        <ele>1.515006</ele>
        <time>2020-06-05T15:48:21.996Z</time>
      </trkpt>
      <trkpt lat="47.30861" lon="-2.18462">
        <ele>1.771608</ele>
        <time>2020-06-05T15:48:24.995Z</time>
      </trkpt>
      <trkpt lat="47.30871" lon="-2.18462">
        <ele>1.777404</ele>
        <time>2020-06-05T15:48:26.995Z</time>
      </trkpt>
      <trkpt lat="47.30884" lon="-2.18463">
        <ele>1.78534</ele>
        <time>2020-06-05T15:48:29.995Z</time>
      </trkpt>
      <trkpt lat="47.30893" lon="-2.18462">
        <ele>1.791011</ele>
        <time>2020-06-05T15:48:31.995Z</time>
      </trkpt>
      <trkpt lat="47.30904" lon="-2.18462">
        <ele>1.797098</ele>
        <time>2020-06-05T15:48:33.995Z</time>
      </trkpt>
      <trkpt lat="47.30914" lon="-2.18463">
        <ele>1.803371</ele>
        <time>2020-06-05T15:48:35.995Z</time>
      </trkpt>
      <trkpt lat="47.30923" lon="-2.18463">
        <ele>1.808866</ele>
        <time>2020-06-05T15:48:37.995Z</time>
      </trkpt>
      <trkpt lat="47.30933" lon="-2.18462">
        <ele>1.81479</ele>
        <time>2020-06-05T15:48:39.995Z</time>
      </trkpt>
      <trkpt lat="47.30943" lon="-2.18462">
        <ele>1.820817</ele>
        <time>2020-06-05T15:48:41.995Z</time>
      </trkpt>
      <trkpt lat="47.30954" lon="-2.18462">
        <ele>1.826964</ele>
        <time>2020-06-05T15:48:43.995Z</time>
      </trkpt>
      <trkpt lat="47.30964" lon="-2.18463">
        <ele>1.832994</ele>
        <time>2020-06-05T15:48:45.995Z</time>
      </trkpt>
      <trkpt lat="47.30975" lon="-2.18463">
        <ele>1.839505</ele>
        <time>2020-06-05T15:48:47.995Z</time>
      </trkpt>
      <trkpt lat="47.30985" lon="-2.18464">
        <ele>1.846022</ele>
        <time>2020-06-05T15:48:49.995Z</time>
      </trkpt>
      <trkpt lat="47.30996" lon="-2.18464">
        <ele>1.852228</ele>
        <time>2020-06-05T15:48:51.995Z</time>
      </trkpt>
      <trkpt lat="47.31007" lon="-2.18463">
        <ele>1.858701</ele>
        <time>2020-06-05T15:48:53.995Z</time>
      </trkpt>
      <trkpt lat="47.31018" lon="-2.18462">
        <ele>1.865384</ele>
        <time>2020-06-05T15:48:55.995Z</time>
      </trkpt>
      <trkpt lat="47.31029" lon="-2.18462">
        <ele>1.871768</ele>
        <time>2020-06-05T15:48:57.995Z</time>
      </trkpt>
      <trkpt lat="47.31038" lon="-2.18462">
        <ele>1.865127</ele>
        <time>2020-06-05T15:48:59.995Z</time>
      </trkpt>
      <trkpt lat="47.3105" lon="-2.18461">
        <ele>1.793184</ele>
        <time>2020-06-05T15:49:02.995Z</time>
      </trkpt>
      <trkpt lat="47.31063" lon="-2.1846">
        <ele>1.714864</ele>
        <time>2020-06-05T15:49:05.994Z</time>
      </trkpt>
      <trkpt lat="47.31074" lon="-2.18459">
        <ele>1.650063</ele>
        <time>2020-06-05T15:49:07.994Z</time>
      </trkpt>
      <trkpt lat="47.31086" lon="-2.18461">
        <ele>1.582098</ele>
        <time>2020-06-05T15:49:09.994Z</time>
      </trkpt>
      <trkpt lat="47.31098" lon="-2.18463">
        <ele>1.51179</ele>
        <time>2020-06-05T15:49:11.994Z</time>
      </trkpt>
      <trkpt lat="47.3111" lon="-2.18463">
        <ele>1.440003</ele>
        <time>2020-06-05T15:49:13.994Z</time>
      </trkpt>
      <trkpt lat="47.31121" lon="-2.18463">
        <ele>1.374103</ele>
        <time>2020-06-05T15:49:15.994Z</time>
      </trkpt>
      <trkpt lat="47.31133" lon="-2.18461">
        <ele>1.303676</ele>
        <time>2020-06-05T15:49:17.994Z</time>
      </trkpt>
      <trkpt lat="47.31146" lon="-2.1846">
        <ele>1.230646</ele>
        <time>2020-06-05T15:49:19.994Z</time>
      </trkpt>
      <trkpt lat="47.31158" lon="-2.18458">
        <ele>1.15536</ele>
        <time>2020-06-05T15:49:21.994Z</time>
      </trkpt>
      <trkpt lat="47.31169" lon="-2.18456">
        <ele>1.089811</ele>
        <time>2020-06-05T15:49:23.994Z</time>
      </trkpt>
      <trkpt lat="47.3118" lon="-2.18454">
        <ele>1.024599</ele>
        <time>2020-06-05T15:49:25.994Z</time>
      </trkpt>
      <trkpt lat="47.3119" lon="-2.18451">
        <ele>0.964709</ele>
        <time>2020-06-05T15:49:27.994Z</time>
      </trkpt>
      <trkpt lat="47.312" lon="-2.18447">
        <ele>0.904097</ele>
        <time>2020-06-05T15:49:29.994Z</time>
      </trkpt>
      <trkpt lat="47.31211" lon="-2.18442">
        <ele>0.838242</ele>
        <time>2020-06-05T15:49:31.994Z</time>
      </trkpt>
      <trkpt lat="47.31221" lon="-2.18437">
        <ele>0.828552</ele>
        <time>2020-06-05T15:49:33.994Z</time>
      </trkpt>
      <trkpt lat="47.31233" lon="-2.18432">
        <ele>0.845706</ele>
        <time>2020-06-05T15:49:35.994Z</time>
      </trkpt>
      <trkpt lat="47.31243" lon="-2.18427">
        <ele>0.861622</ele>
        <time>2020-06-05T15:49:37.994Z</time>
      </trkpt>
      <trkpt lat="47.31252" lon="-2.18421">
        <ele>0.875407</ele>
        <time>2020-06-05T15:49:39.994Z</time>
      </trkpt>
      <trkpt lat="47.3126" lon="-2.18415">
        <ele>0.888585</ele>
        <time>2020-06-05T15:49:41.994Z</time>
      </trkpt>
      <trkpt lat="47.31272" lon="-2.18406">
        <ele>0.907216</ele>
        <time>2020-06-05T15:49:44.993Z</time>
      </trkpt>
      <trkpt lat="47.31284" lon="-2.18399">
        <ele>0.925533</ele>
        <time>2020-06-05T15:49:47.993Z</time>
      </trkpt>
      <trkpt lat="47.31296" lon="-2.18393">
        <ele>0.944052</ele>
        <time>2020-06-05T15:49:50.993Z</time>
      </trkpt>
      <trkpt lat="47.31309" lon="-2.18387">
        <ele>0.963781</ele>
        <time>2020-06-05T15:49:53.993Z</time>
      </trkpt>
      <trkpt lat="47.31319" lon="-2.18385">
        <ele>0.977337</ele>
        <time>2020-06-05T15:49:55.993Z</time>
      </trkpt>
      <trkpt lat="47.31329" lon="-2.18384">
        <ele>0.991821</ele>
        <time>2020-06-05T15:49:57.993Z</time>
      </trkpt>
      <trkpt lat="47.3134" lon="-2.18383">
        <ele>1.007868</ele>
        <time>2020-06-05T15:49:59.993Z</time>
      </trkpt>
      <trkpt lat="47.31351" lon="-2.18382">
        <ele>1.023186</ele>
        <time>2020-06-05T15:50:01.993Z</time>
      </trkpt>
      <trkpt lat="47.31362" lon="-2.18382">
        <ele>1.039211</ele>
        <time>2020-06-05T15:50:03.993Z</time>
      </trkpt>
      <trkpt lat="47.31373" lon="-2.18383">
        <ele>1.054662</ele>
        <time>2020-06-05T15:50:05.993Z</time>
      </trkpt>
      <trkpt lat="47.31383" lon="-2.18382">
        <ele>1.07016</ele>
        <time>2020-06-05T15:50:07.993Z</time>
      </trkpt>
      <trkpt lat="47.31392" lon="-2.1838">
        <ele>1.072655</ele>
        <time>2020-06-05T15:50:09.993Z</time>
      </trkpt>
      <trkpt lat="47.31402" lon="-2.18378">
        <ele>1.068219</ele>
        <time>2020-06-05T15:50:11.993Z</time>
      </trkpt>
      <trkpt lat="47.31416" lon="-2.18376">
        <ele>1.062233</ele>
        <time>2020-06-05T15:50:14.993Z</time>
      </trkpt>
      <trkpt lat="47.31425" lon="-2.18376">
        <ele>1.058209</ele>
        <time>2020-06-05T15:50:16.993Z</time>
      </trkpt>
      <trkpt lat="47.31438" lon="-2.18374">
        <ele>1.052029</ele>
        <time>2020-06-05T15:50:19.993Z</time>
      </trkpt>
      <trkpt lat="47.31449" lon="-2.18372">
        <ele>1.047351</ele>
        <time>2020-06-05T15:50:21.993Z</time>
      </trkpt>
      <trkpt lat="47.31458" lon="-2.1837">
        <ele>1.043006</ele>
        <time>2020-06-05T15:50:23.992Z</time>
      </trkpt>
      <trkpt lat="47.31471" lon="-2.1837">
        <ele>1.037597</ele>
        <time>2020-06-05T15:50:26.992Z</time>
      </trkpt>
      <trkpt lat="47.3148" lon="-2.18369">
        <ele>1.033523</ele>
        <time>2020-06-05T15:50:28.992Z</time>
      </trkpt>
      <trkpt lat="47.3149" lon="-2.18367">
        <ele>1.028937</ele>
        <time>2020-06-05T15:50:30.992Z</time>
      </trkpt>
      <trkpt lat="47.315" lon="-2.18365">
        <ele>1.024206</ele>
        <time>2020-06-05T15:50:32.992Z</time>
      </trkpt>
      <trkpt lat="47.31511" lon="-2.18363">
        <ele>1.019313</ele>
        <time>2020-06-05T15:50:34.992Z</time>
      </trkpt>
      <trkpt lat="47.31522" lon="-2.18363">
        <ele>1.014351</ele>
        <time>2020-06-05T15:50:36.992Z</time>
      </trkpt>
      <trkpt lat="47.31534" lon="-2.18362">
        <ele>1.008984</ele>
        <time>2020-06-05T15:50:38.992Z</time>
      </trkpt>
      <trkpt lat="47.31547" lon="-2.18362">
        <ele>1.003399</ele>
        <time>2020-06-05T15:50:40.992Z</time>
      </trkpt>
      <trkpt lat="47.31558" lon="-2.18362">
        <ele>0.998349</ele>
        <time>2020-06-05T15:50:42.992Z</time>
      </trkpt>
      <trkpt lat="47.31568" lon="-2.18363">
        <ele>0.9574</ele>
        <time>2020-06-05T15:50:44.992Z</time>
      </trkpt>
      <trkpt lat="47.31579" lon="-2.18362">
        <ele>0.798977</ele>
        <time>2020-06-05T15:50:46.992Z</time>
      </trkpt>
      <trkpt lat="47.31589" lon="-2.18361">
        <ele>0.644828</ele>
        <time>2020-06-05T15:50:48.992Z</time>
      </trkpt>
      <trkpt lat="47.31599" lon="-2.18359">
        <ele>0.488236</ele>
        <time>2020-06-05T15:50:50.992Z</time>
      </trkpt>
      <trkpt lat="47.31609" lon="-2.18358">
        <ele>0.336811</ele>
        <time>2020-06-05T15:50:52.992Z</time>
      </trkpt>
      <trkpt lat="47.31622" lon="-2.18355">
        <ele>0.129214</ele>
        <time>2020-06-05T15:50:55.992Z</time>
      </trkpt>
      <trkpt lat="47.31631" lon="-2.18351">
        <ele>-0.020148</ele>
        <time>2020-06-05T15:50:57.992Z</time>
      </trkpt>
      <trkpt lat="47.31642" lon="-2.18349">
        <ele>-0.186601</ele>
        <time>2020-06-05T15:50:59.992Z</time>
      </trkpt>
      <trkpt lat="47.31652" lon="-2.18346">
        <ele>-0.344654</ele>
        <time>2020-06-05T15:51:01.992Z</time>
      </trkpt>
      <trkpt lat="47.31663" lon="-2.18343">
        <ele>-0.50706</ele>
        <time>2020-06-05T15:51:03.991Z</time>
      </trkpt>
      <trkpt lat="47.31675" lon="-2.18341">
        <ele>-0.702588</ele>
        <time>2020-06-05T15:51:05.991Z</time>
      </trkpt>
      <trkpt lat="47.31688" lon="-2.18338">
        <ele>-0.899781</ele>
        <time>2020-06-05T15:51:07.991Z</time>
      </trkpt>
      <trkpt lat="47.31699" lon="-2.18335">
        <ele>-1.079391</ele>
        <time>2020-06-05T15:51:09.991Z</time>
      </trkpt>
      <trkpt lat="47.31712" lon="-2.18334">
        <ele>-1.281469</ele>
        <time>2020-06-05T15:51:11.991Z</time>
      </trkpt>
      <trkpt lat="47.31727" lon="-2.18331">
        <ele>-1.501535</ele>
        <time>2020-06-05T15:51:13.991Z</time>
      </trkpt>
      <trkpt lat="47.3174" lon="-2.18329">
        <ele>-1.706943</ele>
        <time>2020-06-05T15:51:15.991Z</time>
      </trkpt>
      <trkpt lat="47.31752" lon="-2.18327">
        <ele>-1.776789</ele>
        <time>2020-06-05T15:51:17.991Z</time>
      </trkpt>
      <trkpt lat="47.31764" lon="-2.18323">
        <ele>-1.784343</ele>
        <time>2020-06-05T15:51:19.991Z</time>
      </trkpt>
      <trkpt lat="47.31776" lon="-2.18321">
        <ele>-1.792859</ele>
        <time>2020-06-05T15:51:21.991Z</time>
      </trkpt>
      <trkpt lat="47.31786" lon="-2.18317">
        <ele>-1.799468</ele>
        <time>2020-06-05T15:51:23.991Z</time>
      </trkpt>
      <trkpt lat="47.31796" lon="-2.18313">
        <ele>-1.805978</ele>
        <time>2020-06-05T15:51:25.991Z</time>
      </trkpt>
      <trkpt lat="47.31805" lon="-2.1831">
        <ele>-1.812259</ele>
        <time>2020-06-05T15:51:27.991Z</time>
      </trkpt>
      <trkpt lat="47.31815" lon="-2.18307">
        <ele>-1.818942</ele>
        <time>2020-06-05T15:51:29.991Z</time>
      </trkpt>
      <trkpt lat="47.31827" lon="-2.18305">
        <ele>-1.826627</ele>
        <time>2020-06-05T15:51:31.991Z</time>
      </trkpt>
      <trkpt lat="47.31838" lon="-2.18302">
        <ele>-1.833781</ele>
        <time>2020-06-05T15:51:33.991Z</time>
      </trkpt>
      <trkpt lat="47.31848" lon="-2.18299">
        <ele>-1.840684</ele>
        <time>2020-06-05T15:51:35.991Z</time>
      </trkpt>
      <trkpt lat="47.31858" lon="-2.18296">
        <ele>-1.84756</ele>
        <time>2020-06-05T15:51:37.991Z</time>
      </trkpt>
      <trkpt lat="47.31868" lon="-2.18293">
        <ele>-1.854074</ele>
        <time>2020-06-05T15:51:39.991Z</time>
      </trkpt>
      <trkpt lat="47.31878" lon="-2.18291">
        <ele>-1.861027</ele>
        <time>2020-06-05T15:51:41.991Z</time>
      </trkpt>
      <trkpt lat="47.31888" lon="-2.18289">
        <ele>-1.867436</ele>
        <time>2020-06-05T15:51:43.990Z</time>
      </trkpt>
      <trkpt lat="47.31902" lon="-2.18285">
        <ele>-1.876656</ele>
        <time>2020-06-05T15:51:46.990Z</time>
      </trkpt>
      <trkpt lat="47.31912" lon="-2.18283">
        <ele>-1.883124</ele>
        <time>2020-06-05T15:51:48.990Z</time>
      </trkpt>
      <trkpt lat="47.31923" lon="-2.18281">
        <ele>-1.876117</ele>
        <time>2020-06-05T15:51:50.990Z</time>
      </trkpt>
      <trkpt lat="47.31935" lon="-2.18277">
        <ele>-1.785576</ele>
        <time>2020-06-05T15:51:52.990Z</time>
      </trkpt>
      <trkpt lat="47.31945" lon="-2.18274">
        <ele>-1.708161</ele>
        <time>2020-06-05T15:51:54.990Z</time>
      </trkpt>
      <trkpt lat="47.31957" lon="-2.18272">
        <ele>-1.615583</ele>
        <time>2020-06-05T15:51:56.990Z</time>
      </trkpt>
      <trkpt lat="47.31968" lon="-2.18268">
        <ele>-1.533554</ele>
        <time>2020-06-05T15:51:58.990Z</time>
      </trkpt>
      <trkpt lat="47.31978" lon="-2.18264">
        <ele>-1.451775</ele>
        <time>2020-06-05T15:52:00.990Z</time>
      </trkpt>
      <trkpt lat="47.31989" lon="-2.1826">
        <ele>-1.371901</ele>
        <time>2020-06-05T15:52:02.990Z</time>
      </trkpt>
      <trkpt lat="47.31999" lon="-2.18257">
        <ele>-1.291144</ele>
        <time>2020-06-05T15:52:04.990Z</time>
      </trkpt>
      <trkpt lat="47.3201" lon="-2.18254">
        <ele>-1.209254</ele>
        <time>2020-06-05T15:52:06.990Z</time>
      </trkpt>
      <trkpt lat="47.32022" lon="-2.1825">
        <ele>-1.118185</ele>
        <time>2020-06-05T15:52:08.990Z</time>
      </trkpt>
      <trkpt lat="47.32034" lon="-2.18246">
        <ele>-1.028473</ele>
        <time>2020-06-05T15:52:10.990Z</time>
      </trkpt>
      <trkpt lat="47.32045" lon="-2.18244">
        <ele>-0.940031</ele>
        <time>2020-06-05T15:52:12.990Z</time>
      </trkpt>
      <trkpt lat="47.32056" lon="-2.1824">
        <ele>-0.855732</ele>
        <time>2020-06-05T15:52:14.990Z</time>
      </trkpt>
      <trkpt lat="47.32069" lon="-2.18237">
        <ele>-0.763605</ele>
        <time>2020-06-05T15:52:16.990Z</time>
      </trkpt>
      <trkpt lat="47.32082" lon="-2.18234">
        <ele>-0.664608</ele>
        <time>2020-06-05T15:52:18.990Z</time>
      </trkpt>
      <trkpt lat="47.32093" lon="-2.18231">
        <ele>-0.581873</ele>
        <time>2020-06-05T15:52:20.990Z</time>
      </trkpt>
      <trkpt lat="47.32104" lon="-2.18228">
        <ele>-0.407772</ele>
        <time>2020-06-05T15:52:22.989Z</time>
      </trkpt>
      <trkpt lat="47.32116" lon="-2.18224">
        <ele>-0.165065</ele>
        <time>2020-06-05T15:52:24.989Z</time>
      </trkpt>
      <trkpt lat="47.32127" lon="-2.1822">
        <ele>0.065381</ele>
        <time>2020-06-05T15:52:26.989Z</time>
      </trkpt>
      <trkpt lat="47.32139" lon="-2.18217">
        <ele>0.30911</ele>
        <time>2020-06-05T15:52:28.989Z</time>
      </trkpt>
      <trkpt lat="47.32152" lon="-2.18214">
        <ele>0.567585</ele>
        <time>2020-06-05T15:52:30.989Z</time>
      </trkpt>
      <trkpt lat="47.32164" lon="-2.18211">
        <ele>0.821458</ele>
        <time>2020-06-05T15:52:32.989Z</time>
      </trkpt>
      <trkpt lat="47.32177" lon="-2.18207">
        <ele>1.082032</ele>
        <time>2020-06-05T15:52:34.989Z</time>
      </trkpt>
      <trkpt lat="47.3219" lon="-2.18203">
        <ele>1.35199</ele>
        <time>2020-06-05T15:52:36.989Z</time>
      </trkpt>
      <trkpt lat="47.32204" lon="-2.182">
        <ele>1.644711</ele>
        <time>2020-06-05T15:52:38.989Z</time>
      </trkpt>
      <trkpt lat="47.32217" lon="-2.18197">
        <ele>1.906785</ele>
        <time>2020-06-05T15:52:40.991Z</time>
      </trkpt>
      <trkpt lat="47.32228" lon="-2.18195">
        <ele>2.123886</ele>
        <time>2020-06-05T15:52:42.992Z</time>
      </trkpt>
      <trkpt lat="47.32237" lon="-2.18192">
        <ele>2.322614</ele>
        <time>2020-06-05T15:52:44.992Z</time>
      </trkpt>
      <trkpt lat="47.32248" lon="-2.1819">
        <ele>2.545105</ele>
        <time>2020-06-05T15:52:46.993Z</time>
      </trkpt>
      <trkpt lat="47.32258" lon="-2.18187">
        <ele>2.743518</ele>
        <time>2020-06-05T15:52:48.994Z</time>
      </trkpt>
      <trkpt lat="47.32268" lon="-2.18184">
        <ele>2.945467</ele>
        <time>2020-06-05T15:52:50.995Z</time>
      </trkpt>
      <trkpt lat="47.32278" lon="-2.18183">
        <ele>3.148082</ele>
        <time>2020-06-05T15:52:52.995Z</time>
      </trkpt>
      <trkpt lat="47.32288" lon="-2.18182">
        <ele>3.364166</ele>
        <time>2020-06-05T15:52:54.996Z</time>
      </trkpt>
      <trkpt lat="47.32298" lon="-2.18179">
        <ele>3.565504</ele>
        <time>2020-06-05T15:52:56.996Z</time>
      </trkpt>
      <trkpt lat="47.32307" lon="-2.18177">
        <ele>3.758885</ele>
        <time>2020-06-05T15:52:58.997Z</time>
      </trkpt>
      <trkpt lat="47.32317" lon="-2.18174">
        <ele>3.965185</ele>
        <time>2020-06-05T15:53:00.997Z</time>
      </trkpt>
      <trkpt lat="47.32327" lon="-2.1817">
        <ele>4.179879</ele>
        <time>2020-06-05T15:53:02.996Z</time>
      </trkpt>
      <trkpt lat="47.32336" lon="-2.18169">
        <ele>4.382488</ele>
        <time>2020-06-05T15:53:04.996Z</time>
      </trkpt>
      <trkpt lat="47.32346" lon="-2.18168">
        <ele>4.590114</ele>
        <time>2020-06-05T15:53:06.995Z</time>
      </trkpt>
      <trkpt lat="47.32356" lon="-2.18165">
        <ele>4.79876</ele>
        <time>2020-06-05T15:53:08.995Z</time>
      </trkpt>
      <trkpt lat="47.32367" lon="-2.18161">
        <ele>5.020601</ele>
        <time>2020-06-05T15:53:10.995Z</time>
      </trkpt>
      <trkpt lat="47.32378" lon="-2.18159">
        <ele>5.258691</ele>
        <time>2020-06-05T15:53:12.995Z</time>
      </trkpt>
      <trkpt lat="47.3239" lon="-2.18155">
        <ele>5.511926</ele>
        <time>2020-06-05T15:53:14.994Z</time>
      </trkpt>
      <trkpt lat="47.32403" lon="-2.1815">
        <ele>5.797371</ele>
        <time>2020-06-05T15:53:16.994Z</time>
      </trkpt>
      <trkpt lat="47.32418" lon="-2.18146">
        <ele>6.111747</ele>
        <time>2020-06-05T15:53:18.994Z</time>
      </trkpt>
      <trkpt lat="47.32435" lon="-2.18141">
        <ele>6.454182</ele>
        <time>2020-06-05T15:53:20.994Z</time>
      </trkpt>
      <trkpt lat="47.32443" lon="-2.18139">
        <ele>6.639395</ele>
        <time>2020-06-05T15:53:21.994Z</time>
      </trkpt>
      <trkpt lat="47.32461" lon="-2.18134">
        <ele>6.702425</ele>
        <time>2020-06-05T15:53:23.994Z</time>
      </trkpt>
      <trkpt lat="47.32478" lon="-2.18128">
        <ele>6.533308</ele>
        <time>2020-06-05T15:53:25.994Z</time>
      </trkpt>
      <trkpt lat="47.32493" lon="-2.18125">
        <ele>6.377364</ele>
        <time>2020-06-05T15:53:27.994Z</time>
      </trkpt>
      <trkpt lat="47.32508" lon="-2.18121">
        <ele>6.233603</ele>
        <time>2020-06-05T15:53:29.993Z</time>
      </trkpt>
      <trkpt lat="47.32521" lon="-2.18116">
        <ele>6.10302</ele>
        <time>2020-06-05T15:53:31.993Z</time>
      </trkpt>
      <trkpt lat="47.32533" lon="-2.18114">
        <ele>5.980116</ele>
        <time>2020-06-05T15:53:33.993Z</time>
      </trkpt>
      <trkpt lat="47.32545" lon="-2.18113">
        <ele>5.861998</ele>
        <time>2020-06-05T15:53:35.993Z</time>
      </trkpt>
      <trkpt lat="47.32556" lon="-2.18109">
        <ele>5.748246</ele>
        <time>2020-06-05T15:53:37.993Z</time>
      </trkpt>
      <trkpt lat="47.32568" lon="-2.18106">
        <ele>5.635749</ele>
        <time>2020-06-05T15:53:39.993Z</time>
      </trkpt>
      <trkpt lat="47.32578" lon="-2.18104">
        <ele>5.531005</ele>
        <time>2020-06-05T15:53:41.993Z</time>
      </trkpt>
      <trkpt lat="47.32588" lon="-2.18101">
        <ele>5.43072</ele>
        <time>2020-06-05T15:53:43.993Z</time>
      </trkpt>
      <trkpt lat="47.32598" lon="-2.18098">
        <ele>5.336111</ele>
        <time>2020-06-05T15:53:45.993Z</time>
      </trkpt>
      <trkpt lat="47.32607" lon="-2.18096">
        <ele>5.242777</ele>
        <time>2020-06-05T15:53:47.993Z</time>
      </trkpt>
      <trkpt lat="47.32616" lon="-2.18093">
        <ele>5.149731</ele>
        <time>2020-06-05T15:53:49.993Z</time>
      </trkpt>
      <trkpt lat="47.32629" lon="-2.18091">
        <ele>5.018745</ele>
        <time>2020-06-05T15:53:52.993Z</time>
      </trkpt>
      <trkpt lat="47.3264" lon="-2.18088">
        <ele>4.839533</ele>
        <time>2020-06-05T15:53:55.992Z</time>
      </trkpt>
      <trkpt lat="47.32651" lon="-2.18086">
        <ele>4.667718</ele>
        <time>2020-06-05T15:53:58.992Z</time>
      </trkpt>
      <trkpt lat="47.32662" lon="-2.18083">
        <ele>4.498345</ele>
        <time>2020-06-05T15:54:01.992Z</time>
      </trkpt>
      <trkpt lat="47.32672" lon="-2.1808">
        <ele>4.347244</ele>
        <time>2020-06-05T15:54:04.992Z</time>
      </trkpt>
      <trkpt lat="47.32682" lon="-2.18079">
        <ele>4.193399</ele>
        <time>2020-06-05T15:54:07.992Z</time>
      </trkpt>
      <trkpt lat="47.32691" lon="-2.18077">
        <ele>4.045204</ele>
        <time>2020-06-05T15:54:10.992Z</time>
      </trkpt>
      <trkpt lat="47.32703" lon="-2.18073">
        <ele>3.863361</ele>
        <time>2020-06-05T15:54:14.992Z</time>
      </trkpt>
      <trkpt lat="47.32713" lon="-2.18072">
        <ele>3.702357</ele>
        <time>2020-06-05T15:54:18.992Z</time>
      </trkpt>
      <trkpt lat="47.32723" lon="-2.18069">
        <ele>3.558129</ele>
        <time>2020-06-05T15:54:22.992Z</time>
      </trkpt>
      <trkpt lat="47.32735" lon="-2.18066">
        <ele>3.36069</ele>
        <time>2020-06-05T15:54:26.992Z</time>
      </trkpt>
      <trkpt lat="47.32746" lon="-2.18063">
        <ele>3.199462</ele>
        <time>2020-06-05T15:54:28.992Z</time>
      </trkpt>
      <trkpt lat="47.32757" lon="-2.18059">
        <ele>3.02054</ele>
        <time>2020-06-05T15:54:30.992Z</time>
      </trkpt>
      <trkpt lat="47.32769" lon="-2.18056">
        <ele>2.83171</ele>
        <time>2020-06-05T15:54:32.992Z</time>
      </trkpt>
      <trkpt lat="47.32782" lon="-2.18053">
        <ele>2.629396</ele>
        <time>2020-06-05T15:54:34.991Z</time>
      </trkpt>
      <trkpt lat="47.32795" lon="-2.1805">
        <ele>2.424199</ele>
        <time>2020-06-05T15:54:36.991Z</time>
      </trkpt>
      <trkpt lat="47.32809" lon="-2.18047">
        <ele>2.258442</ele>
        <time>2020-06-05T15:54:38.991Z</time>
      </trkpt>
      <trkpt lat="47.32821" lon="-2.18043">
        <ele>2.222289</ele>
        <time>2020-06-05T15:54:40.991Z</time>
      </trkpt>
      <trkpt lat="47.32834" lon="-2.1804">
        <ele>2.187626</ele>
        <time>2020-06-05T15:54:42.991Z</time>
      </trkpt>
      <trkpt lat="47.32846" lon="-2.18036">
        <ele>2.153245</ele>
        <time>2020-06-05T15:54:44.991Z</time>
      </trkpt>
      <trkpt lat="47.32858" lon="-2.18031">
        <ele>2.118025</ele>
        <time>2020-06-05T15:54:46.991Z</time>
      </trkpt>
      <trkpt lat="47.32871" lon="-2.18027">
        <ele>2.083871</ele>
        <time>2020-06-05T15:54:48.991Z</time>
      </trkpt>
      <trkpt lat="47.32883" lon="-2.18023">
        <ele>2.049261</ele>
        <time>2020-06-05T15:54:50.991Z</time>
      </trkpt>
      <trkpt lat="47.32895" lon="-2.18022">
        <ele>2.015871</ele>
        <time>2020-06-05T15:54:52.991Z</time>
      </trkpt>
      <trkpt lat="47.32906" lon="-2.18018">
        <ele>1.984524</ele>
        <time>2020-06-05T15:54:54.991Z</time>
      </trkpt>
      <trkpt lat="47.32917" lon="-2.18015">
        <ele>1.953208</ele>
        <time>2020-06-05T15:54:56.991Z</time>
      </trkpt>
      <trkpt lat="47.32928" lon="-2.18013">
        <ele>1.9221</ele>
        <time>2020-06-05T15:54:58.991Z</time>
      </trkpt>
      <trkpt lat="47.32939" lon="-2.18011">
        <ele>1.891562</ele>
        <time>2020-06-05T15:55:00.991Z</time>
      </trkpt>
      <trkpt lat="47.3295" lon="-2.18008">
        <ele>1.862715</ele>
        <time>2020-06-05T15:55:02.991Z</time>
      </trkpt>
      <trkpt lat="47.3296" lon="-2.18005">
        <ele>1.833999</ele>
        <time>2020-06-05T15:55:04.991Z</time>
      </trkpt>
      <trkpt lat="47.32971" lon="-2.18002">
        <ele>1.803695</ele>
        <time>2020-06-05T15:55:06.991Z</time>
      </trkpt>
      <trkpt lat="47.32982" lon="-2.18">
        <ele>1.773227</ele>
        <time>2020-06-05T15:55:08.991Z</time>
      </trkpt>
      <trkpt lat="47.32993" lon="-2.18">
        <ele>1.60837</ele>
        <time>2020-06-05T15:55:10.991Z</time>
      </trkpt>
      <trkpt lat="47.33004" lon="-2.18001">
        <ele>1.440436</ele>
        <time>2020-06-05T15:55:12.991Z</time>
      </trkpt>
      <trkpt lat="47.33015" lon="-2.17999">
        <ele>1.283714</ele>
        <time>2020-06-05T15:55:14.991Z</time>
      </trkpt>
      <trkpt lat="47.33025" lon="-2.17996">
        <ele>1.127426</ele>
        <time>2020-06-05T15:55:16.991Z</time>
      </trkpt>
      <trkpt lat="47.33035" lon="-2.17991">
        <ele>0.963717</ele>
        <time>2020-06-05T15:55:18.990Z</time>
      </trkpt>
      <trkpt lat="47.33045" lon="-2.17985">
        <ele>0.800473</ele>
        <time>2020-06-05T15:55:20.990Z</time>
      </trkpt>
      <trkpt lat="47.33056" lon="-2.17981">
        <ele>0.641812</ele>
        <time>2020-06-05T15:55:22.990Z</time>
      </trkpt>
      <trkpt lat="47.33065" lon="-2.17977">
        <ele>0.496828</ele>
        <time>2020-06-05T15:55:24.990Z</time>
      </trkpt>
      <trkpt lat="47.33075" lon="-2.17974">
        <ele>0.347128</ele>
        <time>2020-06-05T15:55:26.990Z</time>
      </trkpt>
      <trkpt lat="47.33085" lon="-2.1797">
        <ele>0.186013</ele>
        <time>2020-06-05T15:55:28.990Z</time>
      </trkpt>
      <trkpt lat="47.33096" lon="-2.17964">
        <ele>0.013268</ele>
        <time>2020-06-05T15:55:30.990Z</time>
      </trkpt>
      <trkpt lat="47.33107" lon="-2.17958">
        <ele>-0.167212</ele>
        <time>2020-06-05T15:55:32.990Z</time>
      </trkpt>
      <trkpt lat="47.33117" lon="-2.17949">
        <ele>-0.344519</ele>
        <time>2020-06-05T15:55:34.990Z</time>
      </trkpt>
      <trkpt lat="47.33127" lon="-2.17939">
        <ele>-0.522948</ele>
        <time>2020-06-05T15:55:36.990Z</time>
      </trkpt>
      <trkpt lat="47.33138" lon="-2.17931">
        <ele>-0.70567</ele>
        <time>2020-06-05T15:55:38.990Z</time>
      </trkpt>
      <trkpt lat="47.33149" lon="-2.17923">
        <ele>-0.891048</ele>
        <time>2020-06-05T15:55:40.990Z</time>
      </trkpt>
      <trkpt lat="47.3316" lon="-2.17913">
        <ele>-1.091774</ele>
        <time>2020-06-05T15:55:42.990Z</time>
      </trkpt>
      <trkpt lat="47.33171" lon="-2.17904">
        <ele>-1.301243</ele>
        <time>2020-06-05T15:55:44.990Z</time>
      </trkpt>
      <trkpt lat="47.33181" lon="-2.17894">
        <ele>-1.50113</ele>
        <time>2020-06-05T15:55:46.990Z</time>
      </trkpt>
      <trkpt lat="47.33191" lon="-2.17885">
        <ele>-1.699844</ele>
        <time>2020-06-05T15:55:48.990Z</time>
      </trkpt>
      <trkpt lat="47.33203" lon="-2.17876">
        <ele>-1.909711</ele>
        <time>2020-06-05T15:55:50.990Z</time>
      </trkpt>
      <trkpt lat="47.33213" lon="-2.17866">
        <ele>-2.10726</ele>
        <time>2020-06-05T15:55:52.990Z</time>
      </trkpt>
      <trkpt lat="47.33224" lon="-2.17859">
        <ele>-2.309201</ele>
        <time>2020-06-05T15:55:54.990Z</time>
      </trkpt>
      <trkpt lat="47.33234" lon="-2.1785">
        <ele>-2.504775</ele>
        <time>2020-06-05T15:55:56.990Z</time>
      </trkpt>
      <trkpt lat="47.33244" lon="-2.17842">
        <ele>-2.696254</ele>
        <time>2020-06-05T15:55:58.990Z</time>
      </trkpt>
      <trkpt lat="47.33254" lon="-2.17836">
        <ele>-2.873234</ele>
        <time>2020-06-05T15:56:00.990Z</time>
      </trkpt>
      <trkpt lat="47.33263" lon="-2.17829">
        <ele>-3.040096</ele>
        <time>2020-06-05T15:56:02.989Z</time>
      </trkpt>
      <trkpt lat="47.33272" lon="-2.17821">
        <ele>-3.206216</ele>
        <time>2020-06-05T15:56:04.989Z</time>
      </trkpt>
      <trkpt lat="47.3328" lon="-2.17814">
        <ele>-3.367554</ele>
        <time>2020-06-05T15:56:06.989Z</time>
      </trkpt>
      <trkpt lat="47.33289" lon="-2.17807">
        <ele>-3.528534</ele>
        <time>2020-06-05T15:56:08.989Z</time>
      </trkpt>
      <trkpt lat="47.33297" lon="-2.17802">
        <ele>-3.680218</ele>
        <time>2020-06-05T15:56:10.989Z</time>
      </trkpt>
      <trkpt lat="47.33306" lon="-2.17796">
        <ele>-3.833793</ele>
        <time>2020-06-05T15:56:12.989Z</time>
      </trkpt>
      <trkpt lat="47.33315" lon="-2.17791">
        <ele>-3.884987</ele>
        <time>2020-06-05T15:56:14.989Z</time>
      </trkpt>
      <trkpt lat="47.33324" lon="-2.17785">
        <ele>-3.893258</ele>
        <time>2020-06-05T15:56:16.989Z</time>
      </trkpt>
      <trkpt lat="47.33333" lon="-2.17778">
        <ele>-3.901609</ele>
        <time>2020-06-05T15:56:18.989Z</time>
      </trkpt>
      <trkpt lat="47.33342" lon="-2.17771">
        <ele>-3.910161</ele>
        <time>2020-06-05T15:56:20.989Z</time>
      </trkpt>
      <trkpt lat="47.33351" lon="-2.17764">
        <ele>-3.918708</ele>
        <time>2020-06-05T15:56:22.989Z</time>
      </trkpt>
      <trkpt lat="47.33361" lon="-2.17757">
        <ele>-3.927628</ele>
        <time>2020-06-05T15:56:24.989Z</time>
      </trkpt>
      <trkpt lat="47.3337" lon="-2.17748">
        <ele>-3.936669</ele>
        <time>2020-06-05T15:56:26.989Z</time>
      </trkpt>
      <trkpt lat="47.33379" lon="-2.17738">
        <ele>-3.94598</ele>
        <time>2020-06-05T15:56:28.989Z</time>
      </trkpt>
      <trkpt lat="47.33388" lon="-2.17729">
        <ele>-3.955451</ele>
        <time>2020-06-05T15:56:30.989Z</time>
      </trkpt>
      <trkpt lat="47.33398" lon="-2.17722">
        <ele>-3.964697</ele>
        <time>2020-06-05T15:56:32.989Z</time>
      </trkpt>
      <trkpt lat="47.33407" lon="-2.17714">
        <ele>-3.973461</ele>
        <time>2020-06-05T15:56:34.989Z</time>
      </trkpt>
      <trkpt lat="47.33417" lon="-2.17707">
        <ele>-3.982261</ele>
        <time>2020-06-05T15:56:36.989Z</time>
      </trkpt>
      <trkpt lat="47.33426" lon="-2.17699">
        <ele>-3.991197</ele>
        <time>2020-06-05T15:56:38.989Z</time>
      </trkpt>
      <trkpt lat="47.33434" lon="-2.17689">
        <ele>-4.00007</ele>
        <time>2020-06-05T15:56:40.989Z</time>
      </trkpt>
      <trkpt lat="47.33444" lon="-2.17683">
        <ele>-4.008923</ele>
        <time>2020-06-05T15:56:42.989Z</time>
      </trkpt>
      <trkpt lat="47.33453" lon="-2.17676">
        <ele>-4.017671</ele>
        <time>2020-06-05T15:56:44.989Z</time>
      </trkpt>
      <trkpt lat="47.33462" lon="-2.1767">
        <ele>-4.026191</ele>
        <time>2020-06-05T15:56:46.988Z</time>
      </trkpt>
      <trkpt lat="47.33472" lon="-2.17663">
        <ele>-4.052311</ele>
        <time>2020-06-05T15:56:48.988Z</time>
      </trkpt>
      <trkpt lat="47.33481" lon="-2.17655">
        <ele>-4.088152</ele>
        <time>2020-06-05T15:56:50.988Z</time>
      </trkpt>
      <trkpt lat="47.3349" lon="-2.17647">
        <ele>-4.123467</ele>
        <time>2020-06-05T15:56:52.988Z</time>
      </trkpt>
      <trkpt lat="47.33498" lon="-2.17637">
        <ele>-4.159675</ele>
        <time>2020-06-05T15:56:54.988Z</time>
      </trkpt>
      <trkpt lat="47.33508" lon="-2.17631">
        <ele>-4.196676</ele>
        <time>2020-06-05T15:56:56.988Z</time>
      </trkpt>
      <trkpt lat="47.33518" lon="-2.17625">
        <ele>-4.233722</ele>
        <time>2020-06-05T15:56:58.988Z</time>
      </trkpt>
      <trkpt lat="47.33528" lon="-2.17617">
        <ele>-4.271197</ele>
        <time>2020-06-05T15:57:00.988Z</time>
      </trkpt>
      <trkpt lat="47.33538" lon="-2.17611">
        <ele>-4.30851</ele>
        <time>2020-06-05T15:57:02.988Z</time>
      </trkpt>
      <trkpt lat="47.33548" lon="-2.17604">
        <ele>-4.345066</ele>
        <time>2020-06-05T15:57:04.988Z</time>
      </trkpt>
      <trkpt lat="47.33557" lon="-2.17596">
        <ele>-4.382676</ele>
        <time>2020-06-05T15:57:06.988Z</time>
      </trkpt>
      <trkpt lat="47.33567" lon="-2.17588">
        <ele>-4.420806</ele>
        <time>2020-06-05T15:57:08.988Z</time>
      </trkpt>
      <trkpt lat="47.33577" lon="-2.1758">
        <ele>-4.457272</ele>
        <time>2020-06-05T15:57:10.988Z</time>
      </trkpt>
      <trkpt lat="47.33586" lon="-2.17573">
        <ele>-4.492881</ele>
        <time>2020-06-05T15:57:12.988Z</time>
      </trkpt>
      <trkpt lat="47.33595" lon="-2.17565">
        <ele>-4.52856</ele>
        <time>2020-06-05T15:57:14.988Z</time>
      </trkpt>
      <trkpt lat="47.33604" lon="-2.17557">
        <ele>-4.564709</ele>
        <time>2020-06-05T15:57:16.988Z</time>
      </trkpt>
      <trkpt lat="47.33614" lon="-2.1755">
        <ele>-4.602686</ele>
        <time>2020-06-05T15:57:18.988Z</time>
      </trkpt>
      <trkpt lat="47.33624" lon="-2.17542">
        <ele>-4.640442</ele>
        <time>2020-06-05T15:57:20.988Z</time>
      </trkpt>
      <trkpt lat="47.33633" lon="-2.17533">
        <ele>-4.691253</ele>
        <time>2020-06-05T15:57:22.988Z</time>
      </trkpt>
      <trkpt lat="47.33643" lon="-2.17527">
        <ele>-4.743029</ele>
        <time>2020-06-05T15:57:24.988Z</time>
      </trkpt>
      <trkpt lat="47.33652" lon="-2.1752">
        <ele>-4.794655</ele>
        <time>2020-06-05T15:57:26.988Z</time>
      </trkpt>
      <trkpt lat="47.33662" lon="-2.17511">
        <ele>-4.846899</ele>
        <time>2020-06-05T15:57:28.988Z</time>
      </trkpt>
      <trkpt lat="47.33672" lon="-2.17503">
        <ele>-4.902127</ele>
        <time>2020-06-05T15:57:30.987Z</time>
      </trkpt>
      <trkpt lat="47.33682" lon="-2.17495">
        <ele>-4.957053</ele>
        <time>2020-06-05T15:57:32.987Z</time>
      </trkpt>
      <trkpt lat="47.33692" lon="-2.17488">
        <ele>-5.010682</ele>
        <time>2020-06-05T15:57:34.987Z</time>
      </trkpt>
      <trkpt lat="47.33702" lon="-2.1748">
        <ele>-5.063464</ele>
        <time>2020-06-05T15:57:36.987Z</time>
      </trkpt>
      <trkpt lat="47.33712" lon="-2.17474">
        <ele>-5.11527</ele>
        <time>2020-06-05T15:57:38.987Z</time>
      </trkpt>
      <trkpt lat="47.33722" lon="-2.17467">
        <ele>-5.167897</ele>
        <time>2020-06-05T15:57:40.987Z</time>
      </trkpt>
      <trkpt lat="47.33731" lon="-2.17458">
        <ele>-5.220672</ele>
        <time>2020-06-05T15:57:42.987Z</time>
      </trkpt>
      <trkpt lat="47.33741" lon="-2.17451">
        <ele>-5.273158</ele>
        <time>2020-06-05T15:57:44.987Z</time>
      </trkpt>
      <trkpt lat="47.33751" lon="-2.17444">
        <ele>-5.325505</ele>
        <time>2020-06-05T15:57:46.987Z</time>
      </trkpt>
      <trkpt lat="47.3376" lon="-2.17436">
        <ele>-5.378792</ele>
        <time>2020-06-05T15:57:48.987Z</time>
      </trkpt>
      <trkpt lat="47.3377" lon="-2.17427">
        <ele>-5.434223</ele>
        <time>2020-06-05T15:57:50.987Z</time>
      </trkpt>
      <trkpt lat="47.33781" lon="-2.1742">
        <ele>-5.488137</ele>
        <time>2020-06-05T15:57:52.987Z</time>
      </trkpt>
      <trkpt lat="47.3379" lon="-2.17412">
        <ele>-5.47059</ele>
        <time>2020-06-05T15:57:54.987Z</time>
      </trkpt>
      <trkpt lat="47.338" lon="-2.17403">
        <ele>-5.432826</ele>
        <time>2020-06-05T15:57:56.987Z</time>
      </trkpt>
      <trkpt lat="47.3381" lon="-2.17396">
        <ele>-5.394966</ele>
        <time>2020-06-05T15:57:58.987Z</time>
      </trkpt>
      <trkpt lat="47.33821" lon="-2.17389">
        <ele>-5.357321</ele>
        <time>2020-06-05T15:58:00.987Z</time>
      </trkpt>
      <trkpt lat="47.33831" lon="-2.17381">
        <ele>-5.319675</ele>
        <time>2020-06-05T15:58:02.987Z</time>
      </trkpt>
      <trkpt lat="47.33841" lon="-2.17374">
        <ele>-5.281327</ele>
        <time>2020-06-05T15:58:04.987Z</time>
      </trkpt>
      <trkpt lat="47.33851" lon="-2.17364">
        <ele>-5.242282</ele>
        <time>2020-06-05T15:58:06.987Z</time>
      </trkpt>
      <trkpt lat="47.33862" lon="-2.17356">
        <ele>-5.202452</ele>
        <time>2020-06-05T15:58:08.987Z</time>
      </trkpt>
      <trkpt lat="47.33872" lon="-2.17348">
        <ele>-5.162812</ele>
        <time>2020-06-05T15:58:10.987Z</time>
      </trkpt>
      <trkpt lat="47.33882" lon="-2.1734">
        <ele>-5.125609</ele>
        <time>2020-06-05T15:58:12.987Z</time>
      </trkpt>
      <trkpt lat="47.33892" lon="-2.17333">
        <ele>-5.08772</ele>
        <time>2020-06-05T15:58:14.986Z</time>
      </trkpt>
      <trkpt lat="47.33903" lon="-2.17324">
        <ele>-5.048633</ele>
        <time>2020-06-05T15:58:16.986Z</time>
      </trkpt>
      <trkpt lat="47.33913" lon="-2.17315">
        <ele>-5.008443</ele>
        <time>2020-06-05T15:58:18.986Z</time>
      </trkpt>
      <trkpt lat="47.33923" lon="-2.17306">
        <ele>-4.969864</ele>
        <time>2020-06-05T15:58:20.986Z</time>
      </trkpt>
      <trkpt lat="47.33933" lon="-2.17299">
        <ele>-4.932713</ele>
        <time>2020-06-05T15:58:22.986Z</time>
      </trkpt>
      <trkpt lat="47.33944" lon="-2.17294">
        <ele>-4.884019</ele>
        <time>2020-06-05T15:58:24.986Z</time>
      </trkpt>
      <trkpt lat="47.33955" lon="-2.17292">
        <ele>-4.799999</ele>
        <time>2020-06-05T15:58:26.986Z</time>
      </trkpt>
      <trkpt lat="47.33967" lon="-2.17293">
        <ele>-4.714914</ele>
        <time>2020-06-05T15:58:28.986Z</time>
      </trkpt>
      <trkpt lat="47.33978" lon="-2.17294">
        <ele>-4.630406</ele>
        <time>2020-06-05T15:58:30.986Z</time>
      </trkpt>
      <trkpt lat="47.33989" lon="-2.17296">
        <ele>-4.544543</ele>
        <time>2020-06-05T15:58:32.986Z</time>
      </trkpt>
      <trkpt lat="47.34001" lon="-2.173">
        <ele>-4.458181</ele>
        <time>2020-06-05T15:58:34.986Z</time>
      </trkpt>
      <trkpt lat="47.34011" lon="-2.17306">
        <ele>-4.373793</ele>
        <time>2020-06-05T15:58:36.986Z</time>
      </trkpt>
      <trkpt lat="47.34022" lon="-2.17312">
        <ele>-4.289072</ele>
        <time>2020-06-05T15:58:38.986Z</time>
      </trkpt>
      <trkpt lat="47.34032" lon="-2.17315">
        <ele>-4.210083</ele>
        <time>2020-06-05T15:58:40.986Z</time>
      </trkpt>
      <trkpt lat="47.34042" lon="-2.1732">
        <ele>-4.131453</ele>
        <time>2020-06-05T15:58:42.986Z</time>
      </trkpt>
      <trkpt lat="47.34052" lon="-2.17326">
        <ele>-4.050577</ele>
        <time>2020-06-05T15:58:44.986Z</time>
      </trkpt>
      <trkpt lat="47.34063" lon="-2.17329">
        <ele>-3.969519</ele>
        <time>2020-06-05T15:58:46.986Z</time>
      </trkpt>
      <trkpt lat="47.34073" lon="-2.17334">
        <ele>-3.887746</ele>
        <time>2020-06-05T15:58:48.986Z</time>
      </trkpt>
      <trkpt lat="47.34084" lon="-2.17338">
        <ele>-3.807698</ele>
        <time>2020-06-05T15:58:50.986Z</time>
      </trkpt>
      <trkpt lat="47.34093" lon="-2.17342">
        <ele>-3.732455</ele>
        <time>2020-06-05T15:58:52.986Z</time>
      </trkpt>
      <trkpt lat="47.34104" lon="-2.17345">
        <ele>-3.655124</ele>
        <time>2020-06-05T15:58:54.986Z</time>
      </trkpt>
      <trkpt lat="47.34114" lon="-2.17347">
        <ele>-3.576858</ele>
        <time>2020-06-05T15:58:56.986Z</time>
      </trkpt>
      <trkpt lat="47.34124" lon="-2.17351">
        <ele>-3.499301</ele>
        <time>2020-06-05T15:58:58.985Z</time>
      </trkpt>
      <trkpt lat="47.34133" lon="-2.17358">
        <ele>-3.419555</ele>
        <time>2020-06-05T15:59:00.985Z</time>
      </trkpt>
      <trkpt lat="47.34144" lon="-2.17363">
        <ele>-3.3372</ele>
        <time>2020-06-05T15:59:02.985Z</time>
      </trkpt>
      <trkpt lat="47.34154" lon="-2.17367">
        <ele>-3.255306</ele>
        <time>2020-06-05T15:59:04.985Z</time>
      </trkpt>
      <trkpt lat="47.34165" lon="-2.17372">
        <ele>-3.170636</ele>
        <time>2020-06-05T15:59:06.985Z</time>
      </trkpt>
      <trkpt lat="47.34175" lon="-2.17378">
        <ele>-3.084762</ele>
        <time>2020-06-05T15:59:08.985Z</time>
      </trkpt>
      <trkpt lat="47.34185" lon="-2.17385">
        <ele>-3.000771</ele>
        <time>2020-06-05T15:59:10.985Z</time>
      </trkpt>
      <trkpt lat="47.34194" lon="-2.17392">
        <ele>-2.921702</ele>
        <time>2020-06-05T15:59:12.985Z</time>
      </trkpt>
      <trkpt lat="47.34203" lon="-2.17401">
        <ele>-2.842225</ele>
        <time>2020-06-05T15:59:14.985Z</time>
      </trkpt>
      <trkpt lat="47.34212" lon="-2.17408">
        <ele>-2.76082</ele>
        <time>2020-06-05T15:59:16.985Z</time>
      </trkpt>
      <trkpt lat="47.34221" lon="-2.17417">
        <ele>-2.682052</ele>
        <time>2020-06-05T15:59:18.985Z</time>
      </trkpt>
      <trkpt lat="47.34228" lon="-2.17426">
        <ele>-2.607749</ele>
        <time>2020-06-05T15:59:20.985Z</time>
      </trkpt>
      <trkpt lat="47.34236" lon="-2.17434">
        <ele>-2.533577</ele>
        <time>2020-06-05T15:59:22.985Z</time>
      </trkpt>
      <trkpt lat="47.34245" lon="-2.17443">
        <ele>-2.455728</ele>
        <time>2020-06-05T15:59:24.985Z</time>
      </trkpt>
      <trkpt lat="47.34253" lon="-2.17453">
        <ele>-2.376858</ele>
        <time>2020-06-05T15:59:26.985Z</time>
      </trkpt>
      <trkpt lat="47.34261" lon="-2.17462">
        <ele>-2.297862</ele>
        <time>2020-06-05T15:59:28.985Z</time>
      </trkpt>
      <trkpt lat="47.3427" lon="-2.1747">
        <ele>-2.219477</ele>
        <time>2020-06-05T15:59:30.985Z</time>
      </trkpt>
      <trkpt lat="47.34278" lon="-2.17478">
        <ele>-2.10961</ele>
        <time>2020-06-05T15:59:32.985Z</time>
      </trkpt>
      <trkpt lat="47.34287" lon="-2.17484">
        <ele>-1.973453</ele>
        <time>2020-06-05T15:59:34.985Z</time>
      </trkpt>
      <trkpt lat="47.34297" lon="-2.17492">
        <ele>-1.831266</ele>
        <time>2020-06-05T15:59:36.985Z</time>
      </trkpt>
      <trkpt lat="47.34307" lon="-2.17499">
        <ele>-1.684118</ele>
        <time>2020-06-05T15:59:38.985Z</time>
      </trkpt>
      <trkpt lat="47.34317" lon="-2.17506">
        <ele>-1.534604</ele>
        <time>2020-06-05T15:59:40.985Z</time>
      </trkpt>
      <trkpt lat="47.34328" lon="-2.17512">
        <ele>-1.380757</ele>
        <time>2020-06-05T15:59:42.984Z</time>
      </trkpt>
      <trkpt lat="47.3434" lon="-2.17516">
        <ele>-1.223596</ele>
        <time>2020-06-05T15:59:44.984Z</time>
      </trkpt>
      <trkpt lat="47.34352" lon="-2.17522">
        <ele>-1.063039</ele>
        <time>2020-06-05T15:59:46.986Z</time>
      </trkpt>
      <trkpt lat="47.34363" lon="-2.17527">
        <ele>-0.910097</ele>
        <time>2020-06-05T15:59:48.987Z</time>
      </trkpt>
      <trkpt lat="47.34374" lon="-2.17531">
        <ele>-0.762309</ele>
        <time>2020-06-05T15:59:50.988Z</time>
      </trkpt>
      <trkpt lat="47.34385" lon="-2.17534">
        <ele>-0.614428</ele>
        <time>2020-06-05T15:59:52.990Z</time>
      </trkpt>
      <trkpt lat="47.34396" lon="-2.17537">
        <ele>-0.468968</ele>
        <time>2020-06-05T15:59:54.991Z</time>
      </trkpt>
      <trkpt lat="47.34406" lon="-2.17541">
        <ele>-0.324459</ele>
        <time>2020-06-05T15:59:56.992Z</time>
      </trkpt>
      <trkpt lat="47.34417" lon="-2.17545">
        <ele>-0.177478</ele>
        <time>2020-06-05T15:59:58.993Z</time>
      </trkpt>
      <trkpt lat="47.34428" lon="-2.1755">
        <ele>-0.025738</ele>
        <time>2020-06-05T16:00:00.994Z</time>
      </trkpt>
      <trkpt lat="47.34439" lon="-2.17554">
        <ele>0.120123</ele>
        <time>2020-06-05T16:00:02.995Z</time>
      </trkpt>
      <trkpt lat="47.3445" lon="-2.17558">
        <ele>0.136666</ele>
        <time>2020-06-05T16:00:04.996Z</time>
      </trkpt>
      <trkpt lat="47.3446" lon="-2.17563">
        <ele>0.093298</ele>
        <time>2020-06-05T16:00:06.996Z</time>
      </trkpt>
      <trkpt lat="47.34471" lon="-2.17567">
        <ele>0.048469</ele>
        <time>2020-06-05T16:00:08.997Z</time>
      </trkpt>
      <trkpt lat="47.34481" lon="-2.17573">
        <ele>0.002863</ele>
        <time>2020-06-05T16:00:10.997Z</time>
      </trkpt>
      <trkpt lat="47.34492" lon="-2.1758">
        <ele>-0.043418</ele>
        <time>2020-06-05T16:00:12.997Z</time>
      </trkpt>
      <trkpt lat="47.34502" lon="-2.17586">
        <ele>-0.087478</ele>
        <time>2020-06-05T16:00:14.998Z</time>
      </trkpt>
      <trkpt lat="47.34512" lon="-2.17593">
        <ele>-0.13117</ele>
        <time>2020-06-05T16:00:16.998Z</time>
      </trkpt>
      <trkpt lat="47.34523" lon="-2.17599">
        <ele>-0.175968</ele>
        <time>2020-06-05T16:00:18.998Z</time>
      </trkpt>
      <trkpt lat="47.34532" lon="-2.17607">
        <ele>-0.220295</ele>
        <time>2020-06-05T16:00:20.998Z</time>
      </trkpt>
      <trkpt lat="47.34542" lon="-2.17615">
        <ele>-0.265936</ele>
        <time>2020-06-05T16:00:22.998Z</time>
      </trkpt>
      <trkpt lat="47.34552" lon="-2.17624">
        <ele>-0.312468</ele>
        <time>2020-06-05T16:00:24.999Z</time>
      </trkpt>
      <trkpt lat="47.34562" lon="-2.17633">
        <ele>-0.357688</ele>
        <time>2020-06-05T16:00:26.999Z</time>
      </trkpt>
      <trkpt lat="47.34572" lon="-2.17639">
        <ele>-0.403968</ele>
        <time>2020-06-05T16:00:28.999Z</time>
      </trkpt>
      <trkpt lat="47.34583" lon="-2.17645">
        <ele>-0.449756</ele>
        <time>2020-06-05T16:00:30.999Z</time>
      </trkpt>
      <trkpt lat="47.34592" lon="-2.17654">
        <ele>-0.493334</ele>
        <time>2020-06-05T16:00:32.999Z</time>
      </trkpt>
      <trkpt lat="47.34602" lon="-2.17661">
        <ele>-0.537338</ele>
        <time>2020-06-05T16:00:34.999Z</time>
      </trkpt>
      <trkpt lat="47.34611" lon="-2.1767">
        <ele>-0.577247</ele>
        <time>2020-06-05T16:00:36.999Z</time>
      </trkpt>
      <trkpt lat="47.34621" lon="-2.17679">
        <ele>-0.613623</ele>
        <time>2020-06-05T16:00:38.999Z</time>
      </trkpt>
      <trkpt lat="47.34631" lon="-2.17685">
        <ele>-0.650838</ele>
        <time>2020-06-05T16:00:40.999Z</time>
      </trkpt>
      <trkpt lat="47.34641" lon="-2.17694">
        <ele>-0.687487</ele>
        <time>2020-06-05T16:00:42.999Z</time>
      </trkpt>
      <trkpt lat="47.34649" lon="-2.17703">
        <ele>-0.723033</ele>
        <time>2020-06-05T16:00:44.999Z</time>
      </trkpt>
      <trkpt lat="47.34658" lon="-2.17712">
        <ele>-0.758644</ele>
        <time>2020-06-05T16:00:46.999Z</time>
      </trkpt>
      <trkpt lat="47.34667" lon="-2.17721">
        <ele>-0.792081</ele>
        <time>2020-06-05T16:00:48.999Z</time>
      </trkpt>
      <trkpt lat="47.34674" lon="-2.1773">
        <ele>-0.824793</ele>
        <time>2020-06-05T16:00:50.999Z</time>
      </trkpt>
      <trkpt lat="47.34682" lon="-2.17741">
        <ele>-0.85977</ele>
        <time>2020-06-05T16:00:52.999Z</time>
      </trkpt>
      <trkpt lat="47.3469" lon="-2.17751">
        <ele>-0.894566</ele>
        <time>2020-06-05T16:00:54.999Z</time>
      </trkpt>
      <trkpt lat="47.34698" lon="-2.17761">
        <ele>-0.928107</ele>
        <time>2020-06-05T16:00:56.999Z</time>
      </trkpt>
      <trkpt lat="47.34706" lon="-2.1777">
        <ele>-0.960391</ele>
        <time>2020-06-05T16:00:58.999Z</time>
      </trkpt>
      <trkpt lat="47.34713" lon="-2.17781">
        <ele>-0.99404</ele>
        <time>2020-06-05T16:01:00.999Z</time>
      </trkpt>
      <trkpt lat="47.3472" lon="-2.17793">
        <ele>-1.030551</ele>
        <time>2020-06-05T16:01:02.999Z</time>
      </trkpt>
      <trkpt lat="47.34727" lon="-2.17805">
        <ele>-1.065621</ele>
        <time>2020-06-05T16:01:04.999Z</time>
      </trkpt>
      <trkpt lat="47.34734" lon="-2.17816">
        <ele>-1.09927</ele>
        <time>2020-06-05T16:01:06.999Z</time>
      </trkpt>
      <trkpt lat="47.34742" lon="-2.17826">
        <ele>-1.132627</ele>
        <time>2020-06-05T16:01:08.999Z</time>
      </trkpt>
      <trkpt lat="47.3475" lon="-2.17834">
        <ele>-1.184738</ele>
        <time>2020-06-05T16:01:10.999Z</time>
      </trkpt>
      <trkpt lat="47.34758" lon="-2.17842">
        <ele>-1.24576</ele>
        <time>2020-06-05T16:01:12.999Z</time>
      </trkpt>
      <trkpt lat="47.34764" lon="-2.17852">
        <ele>-1.304513</ele>
        <time>2020-06-05T16:01:14.999Z</time>
      </trkpt>
      <trkpt lat="47.3477" lon="-2.17862">
        <ele>-1.366703</ele>
        <time>2020-06-05T16:01:16.999Z</time>
      </trkpt>
      <trkpt lat="47.34779" lon="-2.17871">
        <ele>-1.432149</ele>
        <time>2020-06-05T16:01:18.999Z</time>
      </trkpt>
      <trkpt lat="47.34785" lon="-2.17882">
        <ele>-1.496177</ele>
        <time>2020-06-05T16:01:20.999Z</time>
      </trkpt>
      <trkpt lat="47.34793" lon="-2.1789">
        <ele>-1.559792</ele>
        <time>2020-06-05T16:01:22.999Z</time>
      </trkpt>
      <trkpt lat="47.34802" lon="-2.17898">
        <ele>-1.623838</ele>
        <time>2020-06-05T16:01:24.999Z</time>
      </trkpt>
      <trkpt lat="47.34809" lon="-2.17908">
        <ele>-1.688547</ele>
        <time>2020-06-05T16:01:26.999Z</time>
      </trkpt>
      <trkpt lat="47.34816" lon="-2.17919">
        <ele>-1.753421</ele>
        <time>2020-06-05T16:01:28.999Z</time>
      </trkpt>
      <trkpt lat="47.34824" lon="-2.17928">
        <ele>-1.818603</ele>
        <time>2020-06-05T16:01:30.999Z</time>
      </trkpt>
      <trkpt lat="47.34832" lon="-2.17936">
        <ele>-1.882732</ele>
        <time>2020-06-05T16:01:32.999Z</time>
      </trkpt>
      <trkpt lat="47.3484" lon="-2.17945">
        <ele>-1.945048</ele>
        <time>2020-06-05T16:01:34.998Z</time>
      </trkpt>
      <trkpt lat="47.34847" lon="-2.17955">
        <ele>-2.009798</ele>
        <time>2020-06-05T16:01:36.998Z</time>
      </trkpt>
      <trkpt lat="47.34855" lon="-2.17965">
        <ele>-2.073776</ele>
        <time>2020-06-05T16:01:38.998Z</time>
      </trkpt>
      <trkpt lat="47.34864" lon="-2.17973">
        <ele>-2.142264</ele>
        <time>2020-06-05T16:01:40.998Z</time>
      </trkpt>
      <trkpt lat="47.34871" lon="-2.17984">
        <ele>-2.209903</ele>
        <time>2020-06-05T16:01:42.998Z</time>
      </trkpt>
      <trkpt lat="47.34878" lon="-2.17996">
        <ele>-2.27741</ele>
        <time>2020-06-05T16:01:44.998Z</time>
      </trkpt>
      <trkpt lat="47.34887" lon="-2.18006">
        <ele>-2.2724</ele>
        <time>2020-06-05T16:01:46.998Z</time>
      </trkpt>
      <trkpt lat="47.34896" lon="-2.18015">
        <ele>-2.212656</ele>
        <time>2020-06-05T16:01:48.998Z</time>
      </trkpt>
      <trkpt lat="47.34904" lon="-2.18026">
        <ele>-2.155952</ele>
        <time>2020-06-05T16:01:50.998Z</time>
      </trkpt>
      <trkpt lat="47.34912" lon="-2.18037">
        <ele>-2.097734</ele>
        <time>2020-06-05T16:01:52.998Z</time>
      </trkpt>
      <trkpt lat="47.3492" lon="-2.18048">
        <ele>-2.038948</ele>
        <time>2020-06-05T16:01:54.998Z</time>
      </trkpt>
      <trkpt lat="47.34929" lon="-2.18058">
        <ele>-1.977431</ele>
        <time>2020-06-05T16:01:56.998Z</time>
      </trkpt>
      <trkpt lat="47.34938" lon="-2.18068">
        <ele>-1.919179</ele>
        <time>2020-06-05T16:01:58.998Z</time>
      </trkpt>
      <trkpt lat="47.34947" lon="-2.18078">
        <ele>-1.859836</ele>
        <time>2020-06-05T16:02:00.998Z</time>
      </trkpt>
      <trkpt lat="47.34957" lon="-2.18087">
        <ele>-1.797718</ele>
        <time>2020-06-05T16:02:02.998Z</time>
      </trkpt>
      <trkpt lat="47.34965" lon="-2.18099">
        <ele>-1.73593</ele>
        <time>2020-06-05T16:02:04.998Z</time>
      </trkpt>
      <trkpt lat="47.34975" lon="-2.18109">
        <ele>-1.672764</ele>
        <time>2020-06-05T16:02:06.998Z</time>
      </trkpt>
      <trkpt lat="47.34986" lon="-2.18118">
        <ele>-1.605248</ele>
        <time>2020-06-05T16:02:08.998Z</time>
      </trkpt>
      <trkpt lat="47.34997" lon="-2.18127">
        <ele>-1.537786</ele>
        <time>2020-06-05T16:02:10.998Z</time>
      </trkpt>
      <trkpt lat="47.35009" lon="-2.18135">
        <ele>-1.472106</ele>
        <time>2020-06-05T16:02:12.998Z</time>
      </trkpt>
      <trkpt lat="47.35018" lon="-2.18142">
        <ele>-1.414666</ele>
        <time>2020-06-05T16:02:14.998Z</time>
      </trkpt>
      <trkpt lat="47.35027" lon="-2.18149">
        <ele>-1.363258</ele>
        <time>2020-06-05T16:02:17.998Z</time>
      </trkpt>
      <trkpt lat="47.35037" lon="-2.18152">
        <ele>-1.295397</ele>
        <time>2020-06-05T16:02:30.997Z</time>
      </trkpt>
      <trkpt lat="47.35047" lon="-2.18156">
        <ele>-1.231274</ele>
        <time>2020-06-05T16:02:33.997Z</time>
      </trkpt>
      <trkpt lat="47.35058" lon="-2.18161">
        <ele>-1.153499</ele>
        <time>2020-06-05T16:02:36.997Z</time>
      </trkpt>
      <trkpt lat="47.35072" lon="-2.18166">
        <ele>-1.064631</ele>
        <time>2020-06-05T16:02:39.997Z</time>
      </trkpt>
      <trkpt lat="47.35081" lon="-2.18169">
        <ele>-1.000076</ele>
        <time>2020-06-05T16:02:41.997Z</time>
      </trkpt>
      <trkpt lat="47.35091" lon="-2.18173">
        <ele>-0.937083</ele>
        <time>2020-06-05T16:02:43.997Z</time>
      </trkpt>
      <trkpt lat="47.35102" lon="-2.18176">
        <ele>-0.865925</ele>
        <time>2020-06-05T16:02:45.997Z</time>
      </trkpt>
      <trkpt lat="47.35112" lon="-2.18178">
        <ele>-0.796088</ele>
        <time>2020-06-05T16:02:47.997Z</time>
      </trkpt>
      <trkpt lat="47.35123" lon="-2.1818">
        <ele>-0.726252</ele>
        <time>2020-06-05T16:02:49.997Z</time>
      </trkpt>
      <trkpt lat="47.35135" lon="-2.18181">
        <ele>-0.646337</ele>
        <time>2020-06-05T16:02:52.997Z</time>
      </trkpt>
      <trkpt lat="47.35145" lon="-2.18181">
        <ele>-0.582234</ele>
        <time>2020-06-05T16:02:54.997Z</time>
      </trkpt>
      <trkpt lat="47.35155" lon="-2.18181">
        <ele>-0.517481</ele>
        <time>2020-06-05T16:02:56.997Z</time>
      </trkpt>
      <trkpt lat="47.35166" lon="-2.18181">
        <ele>-0.449493</ele>
        <time>2020-06-05T16:02:58.997Z</time>
      </trkpt>
      <trkpt lat="47.35176" lon="-2.1818">
        <ele>-0.383271</ele>
        <time>2020-06-05T16:03:00.997Z</time>
      </trkpt>
      <trkpt lat="47.35185" lon="-2.18178">
        <ele>-0.324403</ele>
        <time>2020-06-05T16:03:02.997Z</time>
      </trkpt>
      <trkpt lat="47.35194" lon="-2.18177">
        <ele>-0.265113</ele>
        <time>2020-06-05T16:03:04.997Z</time>
      </trkpt>
      <trkpt lat="47.35204" lon="-2.18179">
        <ele>-0.200078</ele>
        <time>2020-06-05T16:03:22.996Z</time>
      </trkpt>
      <trkpt lat="47.35214" lon="-2.18186">
        <ele>-0.164692</ele>
        <time>2020-06-05T16:03:25.996Z</time>
      </trkpt>
      <trkpt lat="47.35223" lon="-2.18193">
        <ele>-0.139873</ele>
        <time>2020-06-05T16:03:27.996Z</time>
      </trkpt>
      <trkpt lat="47.35233" lon="-2.18202">
        <ele>-0.11217</ele>
        <time>2020-06-05T16:03:29.996Z</time>
      </trkpt>
      <trkpt lat="47.35244" lon="-2.18207">
        <ele>-0.082442</ele>
        <time>2020-06-05T16:03:31.996Z</time>
      </trkpt>
      <trkpt lat="47.35256" lon="-2.18213">
        <ele>-0.052226</ele>
        <time>2020-06-05T16:03:33.996Z</time>
      </trkpt>
      <trkpt lat="47.35265" lon="-2.18218">
        <ele>-0.028974</ele>
        <time>2020-06-05T16:03:35.996Z</time>
      </trkpt>
      <trkpt lat="47.35275" lon="-2.1822">
        <ele>-0.003287</ele>
        <time>2020-06-05T16:03:37.996Z</time>
      </trkpt>
      <trkpt lat="47.35286" lon="-2.18222">
        <ele>0.024057</ele>
        <time>2020-06-05T16:03:39.996Z</time>
      </trkpt>
      <trkpt lat="47.35297" lon="-2.18224">
        <ele>0.050305</ele>
        <time>2020-06-05T16:03:41.996Z</time>
      </trkpt>
      <trkpt lat="47.35306" lon="-2.18226">
        <ele>0.074675</ele>
        <time>2020-06-05T16:03:43.996Z</time>
      </trkpt>
      <trkpt lat="47.35317" lon="-2.18228">
        <ele>0.102361</ele>
        <time>2020-06-05T16:03:45.996Z</time>
      </trkpt>
      <trkpt lat="47.35329" lon="-2.1823">
        <ele>0.13115</ele>
        <time>2020-06-05T16:03:47.996Z</time>
      </trkpt>
      <trkpt lat="47.35342" lon="-2.18233">
        <ele>0.163383</ele>
        <time>2020-06-05T16:03:49.996Z</time>
      </trkpt>
      <trkpt lat="47.35356" lon="-2.18234">
        <ele>0.197986</ele>
        <time>2020-06-05T16:03:51.996Z</time>
      </trkpt>
      <trkpt lat="47.35368" lon="-2.18237">
        <ele>0.228549</ele>
        <time>2020-06-05T16:03:53.996Z</time>
      </trkpt>
      <trkpt lat="47.3538" lon="-2.18237">
        <ele>0.25939</ele>
        <time>2020-06-05T16:03:55.996Z</time>
      </trkpt>
      <trkpt lat="47.35391" lon="-2.18238">
        <ele>0.332554</ele>
        <time>2020-06-05T16:03:57.996Z</time>
      </trkpt>
      <trkpt lat="47.35403" lon="-2.18242">
        <ele>0.408664</ele>
        <time>2020-06-05T16:03:59.996Z</time>
      </trkpt>
      <trkpt lat="47.35414" lon="-2.18248">
        <ele>0.484394</ele>
        <time>2020-06-05T16:04:01.996Z</time>
      </trkpt>
      <trkpt lat="47.35426" lon="-2.18252">
        <ele>0.567466</ele>
        <time>2020-06-05T16:04:03.996Z</time>
      </trkpt>
      <trkpt lat="47.35437" lon="-2.18258">
        <ele>0.647048</ele>
        <time>2020-06-05T16:04:05.996Z</time>
      </trkpt>
      <trkpt lat="47.35448" lon="-2.18267">
        <ele>0.727006</ele>
        <time>2020-06-05T16:04:07.996Z</time>
      </trkpt>
      <trkpt lat="47.35457" lon="-2.18277">
        <ele>0.79941</ele>
        <time>2020-06-05T16:04:09.996Z</time>
      </trkpt>
      <trkpt lat="47.35466" lon="-2.18286">
        <ele>0.86815</ele>
        <time>2020-06-05T16:04:11.995Z</time>
      </trkpt>
      <trkpt lat="47.35476" lon="-2.18295">
        <ele>0.945693</ele>
        <time>2020-06-05T16:04:13.995Z</time>
      </trkpt>
      <trkpt lat="47.35485" lon="-2.18304">
        <ele>1.015298</ele>
        <time>2020-06-05T16:04:15.995Z</time>
      </trkpt>
      <trkpt lat="47.35495" lon="-2.18313">
        <ele>1.091212</ele>
        <time>2020-06-05T16:04:17.995Z</time>
      </trkpt>
      <trkpt lat="47.35503" lon="-2.18322">
        <ele>1.159679</ele>
        <time>2020-06-05T16:04:19.995Z</time>
      </trkpt>
      <trkpt lat="47.35512" lon="-2.18331">
        <ele>1.229348</ele>
        <time>2020-06-05T16:04:21.995Z</time>
      </trkpt>
      <trkpt lat="47.35521" lon="-2.18341">
        <ele>1.305688</ele>
        <time>2020-06-05T16:04:23.995Z</time>
      </trkpt>
      <trkpt lat="47.3553" lon="-2.18349">
        <ele>1.370025</ele>
        <time>2020-06-05T16:04:25.995Z</time>
      </trkpt>
      <trkpt lat="47.35539" lon="-2.18357">
        <ele>1.418908</ele>
        <time>2020-06-05T16:04:27.995Z</time>
      </trkpt>
      <trkpt lat="47.35547" lon="-2.18367">
        <ele>1.358956</ele>
        <time>2020-06-05T16:04:29.995Z</time>
      </trkpt>
      <trkpt lat="47.35556" lon="-2.18377">
        <ele>1.30252</ele>
        <time>2020-06-05T16:04:31.995Z</time>
      </trkpt>
      <trkpt lat="47.35565" lon="-2.18386">
        <ele>1.242284</ele>
        <time>2020-06-05T16:04:33.995Z</time>
      </trkpt>
      <trkpt lat="47.35573" lon="-2.18394">
        <ele>1.188259</ele>
        <time>2020-06-05T16:04:35.995Z</time>
      </trkpt>
      <trkpt lat="47.35582" lon="-2.18401">
        <ele>1.133459</ele>
        <time>2020-06-05T16:04:37.995Z</time>
      </trkpt>
      <trkpt lat="47.35592" lon="-2.1841">
        <ele>1.066134</ele>
        <time>2020-06-05T16:04:39.995Z</time>
      </trkpt>
      <trkpt lat="47.35602" lon="-2.18419">
        <ele>1.00334</ele>
        <time>2020-06-05T16:04:41.995Z</time>
      </trkpt>
      <trkpt lat="47.35612" lon="-2.18427">
        <ele>0.942518</ele>
        <time>2020-06-05T16:04:43.995Z</time>
      </trkpt>
      <trkpt lat="47.35625" lon="-2.18434">
        <ele>0.867494</ele>
        <time>2020-06-05T16:04:45.995Z</time>
      </trkpt>
      <trkpt lat="47.35637" lon="-2.1844">
        <ele>0.798695</ele>
        <time>2020-06-05T16:04:47.995Z</time>
      </trkpt>
      <trkpt lat="47.35648" lon="-2.18443">
        <ele>0.735294</ele>
        <time>2020-06-05T16:04:49.995Z</time>
      </trkpt>
      <trkpt lat="47.3566" lon="-2.18446">
        <ele>0.669694</ele>
        <time>2020-06-05T16:04:51.995Z</time>
      </trkpt>
      <trkpt lat="47.35674" lon="-2.18448">
        <ele>0.593272</ele>
        <time>2020-06-05T16:04:53.995Z</time>
      </trkpt>
      <trkpt lat="47.35688" lon="-2.18452">
        <ele>0.517125</ele>
        <time>2020-06-05T16:04:55.995Z</time>
      </trkpt>
      <trkpt lat="47.35701" lon="-2.18457">
        <ele>0.44189</ele>
        <time>2020-06-05T16:04:57.995Z</time>
      </trkpt>
      <trkpt lat="47.35713" lon="-2.18461">
        <ele>0.296018</ele>
        <time>2020-06-05T16:04:59.995Z</time>
      </trkpt>
      <trkpt lat="47.35724" lon="-2.18467">
        <ele>0.151505</ele>
        <time>2020-06-05T16:05:01.995Z</time>
      </trkpt>
      <trkpt lat="47.35738" lon="-2.18471">
        <ele>-0.007319</ele>
        <time>2020-06-05T16:05:03.994Z</time>
      </trkpt>
      <trkpt lat="47.35751" lon="-2.18475">
        <ele>-0.16217</ele>
        <time>2020-06-05T16:05:05.994Z</time>
      </trkpt>
      <trkpt lat="47.35762" lon="-2.1848">
        <ele>-0.297879</ele>
        <time>2020-06-05T16:05:07.994Z</time>
      </trkpt>
      <trkpt lat="47.35772" lon="-2.18486">
        <ele>-0.433229</ele>
        <time>2020-06-05T16:05:09.994Z</time>
      </trkpt>
      <trkpt lat="47.35781" lon="-2.18491">
        <ele>-0.548144</ele>
        <time>2020-06-05T16:05:11.994Z</time>
      </trkpt>
      <trkpt lat="47.35792" lon="-2.18497">
        <ele>-0.680968</ele>
        <time>2020-06-05T16:05:13.994Z</time>
      </trkpt>
      <trkpt lat="47.35801" lon="-2.18501">
        <ele>-0.797576</ele>
        <time>2020-06-05T16:05:15.994Z</time>
      </trkpt>
      <trkpt lat="47.35814" lon="-2.18508">
        <ele>-0.950517</ele>
        <time>2020-06-05T16:05:18.994Z</time>
      </trkpt>
      <trkpt lat="47.35823" lon="-2.18511">
        <ele>-1.059286</ele>
        <time>2020-06-05T16:05:20.994Z</time>
      </trkpt>
      <trkpt lat="47.35833" lon="-2.18517">
        <ele>-1.18715</ele>
        <time>2020-06-05T16:05:22.994Z</time>
      </trkpt>
      <trkpt lat="47.35843" lon="-2.18523">
        <ele>-1.320022</ele>
        <time>2020-06-05T16:05:24.994Z</time>
      </trkpt>
      <trkpt lat="47.35852" lon="-2.18529">
        <ele>-1.430013</ele>
        <time>2020-06-05T16:05:26.994Z</time>
      </trkpt>
      <trkpt lat="47.35862" lon="-2.18532">
        <ele>-1.547607</ele>
        <time>2020-06-05T16:05:28.994Z</time>
      </trkpt>
      <trkpt lat="47.35873" lon="-2.18539">
        <ele>-1.681938</ele>
        <time>2020-06-05T16:05:30.994Z</time>
      </trkpt>
      <trkpt lat="47.35885" lon="-2.18546">
        <ele>-1.777608</ele>
        <time>2020-06-05T16:05:32.994Z</time>
      </trkpt>
      <trkpt lat="47.35897" lon="-2.18553">
        <ele>-1.873334</ele>
        <time>2020-06-05T16:05:34.994Z</time>
      </trkpt>
      <trkpt lat="47.35909" lon="-2.18559">
        <ele>-1.966939</ele>
        <time>2020-06-05T16:05:36.994Z</time>
      </trkpt>
      <trkpt lat="47.35921" lon="-2.18566">
        <ele>-2.062253</ele>
        <time>2020-06-05T16:05:38.994Z</time>
      </trkpt>
      <trkpt lat="47.35933" lon="-2.18572">
        <ele>-2.152212</ele>
        <time>2020-06-05T16:05:40.994Z</time>
      </trkpt>
      <trkpt lat="47.35943" lon="-2.18577">
        <ele>-2.231874</ele>
        <time>2020-06-05T16:05:42.994Z</time>
      </trkpt>
      <trkpt lat="47.35953" lon="-2.18577">
        <ele>-2.307841</ele>
        <time>2020-06-05T16:05:44.994Z</time>
      </trkpt>
      <trkpt lat="47.35963" lon="-2.18578">
        <ele>-2.378548</ele>
        <time>2020-06-05T16:05:46.994Z</time>
      </trkpt>
      <trkpt lat="47.35974" lon="-2.18582">
        <ele>-2.460319</ele>
        <time>2020-06-05T16:05:48.994Z</time>
      </trkpt>
      <trkpt lat="47.35985" lon="-2.18585">
        <ele>-2.544668</ele>
        <time>2020-06-05T16:05:50.994Z</time>
      </trkpt>
      <trkpt lat="47.35995" lon="-2.18587">
        <ele>-2.617049</ele>
        <time>2020-06-05T16:05:52.994Z</time>
      </trkpt>
      <trkpt lat="47.36004" lon="-2.18587">
        <ele>-2.687881</ele>
        <time>2020-06-05T16:05:54.994Z</time>
      </trkpt>
      <trkpt lat="47.36015" lon="-2.18586">
        <ele>-2.765338</ele>
        <time>2020-06-05T16:05:56.993Z</time>
      </trkpt>
      <trkpt lat="47.36025" lon="-2.18584">
        <ele>-2.841295</ele>
        <time>2020-06-05T16:05:58.993Z</time>
      </trkpt>
      <trkpt lat="47.36034" lon="-2.18582">
        <ele>-2.909679</ele>
        <time>2020-06-05T16:06:00.993Z</time>
      </trkpt>
      <trkpt lat="47.36044" lon="-2.1858">
        <ele>-2.983206</ele>
        <time>2020-06-05T16:06:02.993Z</time>
      </trkpt>
      <trkpt lat="47.36054" lon="-2.18576">
        <ele>-3.053083</ele>
        <time>2020-06-05T16:06:04.993Z</time>
      </trkpt>
      <trkpt lat="47.36063" lon="-2.18573">
        <ele>-3.120092</ele>
        <time>2020-06-05T16:06:06.993Z</time>
      </trkpt>
      <trkpt lat="47.36073" lon="-2.18568">
        <ele>-3.193691</ele>
        <time>2020-06-05T16:06:08.993Z</time>
      </trkpt>
      <trkpt lat="47.36084" lon="-2.18563">
        <ele>-3.274021</ele>
        <time>2020-06-05T16:06:10.993Z</time>
      </trkpt>
      <trkpt lat="47.36097" lon="-2.18557">
        <ele>-3.363697</ele>
        <time>2020-06-05T16:06:12.993Z</time>
      </trkpt>
      <trkpt lat="47.36108" lon="-2.18551">
        <ele>-3.446733</ele>
        <time>2020-06-05T16:06:14.993Z</time>
      </trkpt>
      <trkpt lat="47.36119" lon="-2.18545">
        <ele>-3.530096</ele>
        <time>2020-06-05T16:06:16.993Z</time>
      </trkpt>
      <trkpt lat="47.36131" lon="-2.18539">
        <ele>-3.616643</ele>
        <time>2020-06-05T16:06:18.993Z</time>
      </trkpt>
      <trkpt lat="47.36144" lon="-2.18533">
        <ele>-3.707835</ele>
        <time>2020-06-05T16:06:20.993Z</time>
      </trkpt>
      <trkpt lat="47.36156" lon="-2.18527">
        <ele>-3.796408</ele>
        <time>2020-06-05T16:06:22.993Z</time>
      </trkpt>
      <trkpt lat="47.36167" lon="-2.18522">
        <ele>-3.872258</ele>
        <time>2020-06-05T16:06:24.993Z</time>
      </trkpt>
      <trkpt lat="47.36177" lon="-2.18518">
        <ele>-3.948765</ele>
        <time>2020-06-05T16:06:26.993Z</time>
      </trkpt>
      <trkpt lat="47.36189" lon="-2.18514">
        <ele>-4.027044</ele>
        <time>2020-06-05T16:06:28.993Z</time>
      </trkpt>
      <trkpt lat="47.36199" lon="-2.18513">
        <ele>-4.096802</ele>
        <time>2020-06-05T16:06:30.993Z</time>
      </trkpt>
      <trkpt lat="47.3621" lon="-2.18513">
        <ele>-4.178081</ele>
        <time>2020-06-05T16:06:32.993Z</time>
      </trkpt>
      <trkpt lat="47.36222" lon="-2.18515">
        <ele>-4.214296</ele>
        <time>2020-06-05T16:06:34.993Z</time>
      </trkpt>
      <trkpt lat="47.36233" lon="-2.18517">
        <ele>-4.161781</ele>
        <time>2020-06-05T16:06:36.993Z</time>
      </trkpt>
      <trkpt lat="47.36244" lon="-2.1852">
        <ele>-4.107965</ele>
        <time>2020-06-05T16:06:38.993Z</time>
      </trkpt>
      <trkpt lat="47.36257" lon="-2.18524">
        <ele>-4.042014</ele>
        <time>2020-06-05T16:06:40.993Z</time>
      </trkpt>
      <trkpt lat="47.36268" lon="-2.18528">
        <ele>-3.989561</ele>
        <time>2020-06-05T16:06:42.993Z</time>
      </trkpt>
      <trkpt lat="47.36279" lon="-2.18532">
        <ele>-3.936562</ele>
        <time>2020-06-05T16:06:44.993Z</time>
      </trkpt>
      <trkpt lat="47.36291" lon="-2.18537">
        <ele>-3.873568</ele>
        <time>2020-06-05T16:06:46.992Z</time>
      </trkpt>
      <trkpt lat="47.36304" lon="-2.18547">
        <ele>-3.80674</ele>
        <time>2020-06-05T16:06:48.992Z</time>
      </trkpt>
      <trkpt lat="47.36316" lon="-2.18557">
        <ele>-3.740257</ele>
        <time>2020-06-05T16:06:50.992Z</time>
      </trkpt>
      <trkpt lat="47.36328" lon="-2.18567">
        <ele>-3.673514</ele>
        <time>2020-06-05T16:06:52.994Z</time>
      </trkpt>
      <trkpt lat="47.36339" lon="-2.18576">
        <ele>-3.612737</ele>
        <time>2020-06-05T16:06:54.994Z</time>
      </trkpt>
      <trkpt lat="47.36348" lon="-2.18589">
        <ele>-3.552301</ele>
        <time>2020-06-05T16:06:56.995Z</time>
      </trkpt>
      <trkpt lat="47.36357" lon="-2.18601">
        <ele>-3.493754</ele>
        <time>2020-06-05T16:06:58.996Z</time>
      </trkpt>
      <trkpt lat="47.36367" lon="-2.18614">
        <ele>-3.428421</ele>
        <time>2020-06-05T16:07:00.996Z</time>
      </trkpt>
      <trkpt lat="47.36376" lon="-2.18624">
        <ele>-3.375544</ele>
        <time>2020-06-05T16:07:02.997Z</time>
      </trkpt>
      <trkpt lat="47.36387" lon="-2.18629">
        <ele>-3.462867</ele>
        <time>2020-06-05T16:07:04.997Z</time>
      </trkpt>
      <trkpt lat="47.36397" lon="-2.18642">
        <ele>-3.585415</ele>
        <time>2020-06-05T16:07:07.998Z</time>
      </trkpt>
      <trkpt lat="47.36402" lon="-2.18653">
        <ele>-3.669811</ele>
        <time>2020-06-05T16:07:09.998Z</time>
      </trkpt>
      <trkpt lat="47.36409" lon="-2.18663">
        <ele>-3.760963</ele>
        <time>2020-06-05T16:07:11.998Z</time>
      </trkpt>
      <trkpt lat="47.36415" lon="-2.18673">
        <ele>-3.84658</ele>
        <time>2020-06-05T16:07:13.998Z</time>
      </trkpt>
      <trkpt lat="47.36422" lon="-2.18684">
        <ele>-3.940131</ele>
        <time>2020-06-05T16:07:15.998Z</time>
      </trkpt>
      <trkpt lat="47.36429" lon="-2.18694">
        <ele>-4.026499</ele>
        <time>2020-06-05T16:07:17.999Z</time>
      </trkpt>
      <trkpt lat="47.36437" lon="-2.18702">
        <ele>-4.120696</ele>
        <time>2020-06-05T16:07:19.999Z</time>
      </trkpt>
      <trkpt lat="47.36448" lon="-2.18715">
        <ele>-4.249825</ele>
        <time>2020-06-05T16:07:22.999Z</time>
      </trkpt>
      <trkpt lat="47.36456" lon="-2.18724">
        <ele>-4.349271</ele>
        <time>2020-06-05T16:07:24.999Z</time>
      </trkpt>
      <trkpt lat="47.36464" lon="-2.18734">
        <ele>-4.44498</ele>
        <time>2020-06-05T16:07:26.999Z</time>
      </trkpt>
      <trkpt lat="47.36472" lon="-2.18744">
        <ele>-4.540834</ele>
        <time>2020-06-05T16:07:28.999Z</time>
      </trkpt>
      <trkpt lat="47.36481" lon="-2.18754">
        <ele>-4.643258</ele>
        <time>2020-06-05T16:07:30.999Z</time>
      </trkpt>
      <trkpt lat="47.36489" lon="-2.18764">
        <ele>-4.739637</ele>
        <time>2020-06-05T16:07:32.999Z</time>
      </trkpt>
      <trkpt lat="47.36498" lon="-2.18774">
        <ele>-4.843897</ele>
        <time>2020-06-05T16:07:34.999Z</time>
      </trkpt>
      <trkpt lat="47.36507" lon="-2.18784">
        <ele>-4.950455</ele>
        <time>2020-06-05T16:07:36.999Z</time>
      </trkpt>
      <trkpt lat="47.36515" lon="-2.18793">
        <ele>-5.033418</ele>
        <time>2020-06-05T16:07:38.999Z</time>
      </trkpt>
      <trkpt lat="47.36524" lon="-2.18802">
        <ele>-4.93267</ele>
        <time>2020-06-05T16:07:40.999Z</time>
      </trkpt>
      <trkpt lat="47.36533" lon="-2.18809">
        <ele>-4.840431</ele>
        <time>2020-06-05T16:07:42.999Z</time>
      </trkpt>
      <trkpt lat="47.36541" lon="-2.18817">
        <ele>-4.75048</ele>
        <time>2020-06-05T16:07:44.999Z</time>
      </trkpt>
      <trkpt lat="47.36548" lon="-2.18826">
        <ele>-4.664984</ele>
        <time>2020-06-05T16:07:46.999Z</time>
      </trkpt>
      <trkpt lat="47.36561" lon="-2.18836">
        <ele>-4.527999</ele>
        <time>2020-06-05T16:07:49.999Z</time>
      </trkpt>
      <trkpt lat="47.36572" lon="-2.18842">
        <ele>-4.420524</ele>
        <time>2020-06-05T16:07:51.999Z</time>
      </trkpt>
      <trkpt lat="47.36583" lon="-2.18848">
        <ele>-4.312228</ele>
        <time>2020-06-05T16:07:53.999Z</time>
      </trkpt>
      <trkpt lat="47.36593" lon="-2.18854">
        <ele>-4.208953</ele>
        <time>2020-06-05T16:07:55.999Z</time>
      </trkpt>
      <trkpt lat="47.36603" lon="-2.18859">
        <ele>-4.11441</ele>
        <time>2020-06-05T16:07:57.999Z</time>
      </trkpt>
      <trkpt lat="47.36611" lon="-2.18864">
        <ele>-4.02576</ele>
        <time>2020-06-05T16:07:59.999Z</time>
      </trkpt>
      <trkpt lat="47.36621" lon="-2.18869">
        <ele>-3.9358</ele>
        <time>2020-06-05T16:08:01.999Z</time>
      </trkpt>
      <trkpt lat="47.36629" lon="-2.18873">
        <ele>-3.85039</ele>
        <time>2020-06-05T16:08:03.999Z</time>
      </trkpt>
      <trkpt lat="47.36638" lon="-2.18878">
        <ele>-3.765892</ele>
        <time>2020-06-05T16:08:05.999Z</time>
      </trkpt>
      <trkpt lat="47.36647" lon="-2.18882">
        <ele>-3.67303</ele>
        <time>2020-06-05T16:08:07.999Z</time>
      </trkpt>
      <trkpt lat="47.3666" lon="-2.18889">
        <ele>-3.547265</ele>
        <time>2020-06-05T16:08:10.999Z</time>
      </trkpt>
      <trkpt lat="47.36669" lon="-2.18894">
        <ele>-3.456587</ele>
        <time>2020-06-05T16:08:12.999Z</time>
      </trkpt>
      <trkpt lat="47.3668" lon="-2.189">
        <ele>-3.348967</ele>
        <time>2020-06-05T16:08:14.999Z</time>
      </trkpt>
      <trkpt lat="47.36689" lon="-2.18905">
        <ele>-3.235988</ele>
        <time>2020-06-05T16:08:16.999Z</time>
      </trkpt>
      <trkpt lat="47.36698" lon="-2.1891">
        <ele>-3.118951</ele>
        <time>2020-06-05T16:08:18.999Z</time>
      </trkpt>
      <trkpt lat="47.36709" lon="-2.18916">
        <ele>-2.986202</ele>
        <time>2020-06-05T16:08:20.999Z</time>
      </trkpt>
      <trkpt lat="47.36721" lon="-2.18921">
        <ele>-2.848465</ele>
        <time>2020-06-05T16:08:22.999Z</time>
      </trkpt>
      <trkpt lat="47.3673" lon="-2.18927">
        <ele>-2.724535</ele>
        <time>2020-06-05T16:08:24.999Z</time>
      </trkpt>
      <trkpt lat="47.36741" lon="-2.18932">
        <ele>-2.60152</ele>
        <time>2020-06-05T16:08:26.999Z</time>
      </trkpt>
      <trkpt lat="47.36751" lon="-2.18938">
        <ele>-2.476643</ele>
        <time>2020-06-05T16:08:28.999Z</time>
      </trkpt>
      <trkpt lat="47.3676" lon="-2.18943">
        <ele>-2.359329</ele>
        <time>2020-06-05T16:08:30.998Z</time>
      </trkpt>
      <trkpt lat="47.36771" lon="-2.18949">
        <ele>-2.222547</ele>
        <time>2020-06-05T16:08:32.998Z</time>
      </trkpt>
      <trkpt lat="47.36781" lon="-2.18957">
        <ele>-2.091729</ele>
        <time>2020-06-05T16:08:34.998Z</time>
      </trkpt>
      <trkpt lat="47.36791" lon="-2.18966">
        <ele>-1.963308</ele>
        <time>2020-06-05T16:08:36.998Z</time>
      </trkpt>
      <trkpt lat="47.368" lon="-2.18973">
        <ele>-1.845423</ele>
        <time>2020-06-05T16:08:38.998Z</time>
      </trkpt>
      <trkpt lat="47.36809" lon="-2.18983">
        <ele>-1.717468</ele>
        <time>2020-06-05T16:08:40.998Z</time>
      </trkpt>
      <trkpt lat="47.36818" lon="-2.18992">
        <ele>-1.589748</ele>
        <time>2020-06-05T16:08:42.998Z</time>
      </trkpt>
      <trkpt lat="47.36828" lon="-2.19002">
        <ele>-1.451598</ele>
        <time>2020-06-05T16:08:44.998Z</time>
      </trkpt>
      <trkpt lat="47.36839" lon="-2.19014">
        <ele>-1.294444</ele>
        <time>2020-06-05T16:08:46.998Z</time>
      </trkpt>
      <trkpt lat="47.3685" lon="-2.19027">
        <ele>-1.342639</ele>
        <time>2020-06-05T16:08:48.998Z</time>
      </trkpt>
      <trkpt lat="47.36863" lon="-2.1904">
        <ele>-1.397218</ele>
        <time>2020-06-05T16:08:50.998Z</time>
      </trkpt>
      <trkpt lat="47.36875" lon="-2.19053">
        <ele>-1.446381</ele>
        <time>2020-06-05T16:08:52.998Z</time>
      </trkpt>
      <trkpt lat="47.36886" lon="-2.19066">
        <ele>-1.495566</ele>
        <time>2020-06-05T16:08:54.998Z</time>
      </trkpt>
      <trkpt lat="47.36896" lon="-2.19078">
        <ele>-1.53888</ele>
        <time>2020-06-05T16:08:56.998Z</time>
      </trkpt>
      <trkpt lat="47.36906" lon="-2.19088">
        <ele>-1.580944</ele>
        <time>2020-06-05T16:08:58.998Z</time>
      </trkpt>
      <trkpt lat="47.36915" lon="-2.19099">
        <ele>-1.623283</ele>
        <time>2020-06-05T16:09:00.998Z</time>
      </trkpt>
      <trkpt lat="47.36925" lon="-2.19109">
        <ele>-1.6641</ele>
        <time>2020-06-05T16:09:02.998Z</time>
      </trkpt>
      <trkpt lat="47.36935" lon="-2.19119">
        <ele>-1.704685</ele>
        <time>2020-06-05T16:09:04.998Z</time>
      </trkpt>
      <trkpt lat="47.36945" lon="-2.19128">
        <ele>-1.745304</ele>
        <time>2020-06-05T16:09:06.998Z</time>
      </trkpt>
      <trkpt lat="47.36954" lon="-2.19137">
        <ele>-1.784255</ele>
        <time>2020-06-05T16:09:08.998Z</time>
      </trkpt>
      <trkpt lat="47.36964" lon="-2.19146">
        <ele>-1.823914</ele>
        <time>2020-06-05T16:09:10.998Z</time>
      </trkpt>
      <trkpt lat="47.36973" lon="-2.19156">
        <ele>-1.863896</ele>
        <time>2020-06-05T16:09:12.998Z</time>
      </trkpt>
      <trkpt lat="47.36983" lon="-2.19167">
        <ele>-1.905422</ele>
        <time>2020-06-05T16:09:14.998Z</time>
      </trkpt>
      <trkpt lat="47.36993" lon="-2.19177">
        <ele>-2.027032</ele>
        <time>2020-06-05T16:09:16.998Z</time>
      </trkpt>
      <trkpt lat="47.37003" lon="-2.19188">
        <ele>-2.170258</ele>
        <time>2020-06-05T16:09:18.998Z</time>
      </trkpt>
      <trkpt lat="47.37013" lon="-2.19198">
        <ele>-2.30973</ele>
        <time>2020-06-05T16:09:20.998Z</time>
      </trkpt>
      <trkpt lat="47.37022" lon="-2.19209">
        <ele>-2.45155</ele>
        <time>2020-06-05T16:09:22.998Z</time>
      </trkpt>
      <trkpt lat="47.37033" lon="-2.19218">
        <ele>-2.594252</ele>
        <time>2020-06-05T16:09:24.997Z</time>
      </trkpt>
      <trkpt lat="47.37042" lon="-2.19229">
        <ele>-2.72954</ele>
        <time>2020-06-05T16:09:26.997Z</time>
      </trkpt>
      <trkpt lat="47.37051" lon="-2.19239">
        <ele>-2.864829</ele>
        <time>2020-06-05T16:09:28.997Z</time>
      </trkpt>
      <trkpt lat="47.37061" lon="-2.19249">
        <ele>-3.006313</ele>
        <time>2020-06-05T16:09:30.997Z</time>
      </trkpt>
      <trkpt lat="47.37072" lon="-2.1926">
        <ele>-3.157113</ele>
        <time>2020-06-05T16:09:32.997Z</time>
      </trkpt>
      <trkpt lat="47.37082" lon="-2.1927">
        <ele>-3.298699</ele>
        <time>2020-06-05T16:09:34.997Z</time>
      </trkpt>
      <trkpt lat="47.37093" lon="-2.19279">
        <ele>-3.437153</ele>
        <time>2020-06-05T16:09:36.997Z</time>
      </trkpt>
      <trkpt lat="47.37103" lon="-2.19288">
        <ele>-3.580209</ele>
        <time>2020-06-05T16:09:38.997Z</time>
      </trkpt>
      <trkpt lat="47.37113" lon="-2.19296">
        <ele>-3.710495</ele>
        <time>2020-06-05T16:09:40.997Z</time>
      </trkpt>
      <trkpt lat="47.37122" lon="-2.19304">
        <ele>-3.838525</ele>
        <time>2020-06-05T16:09:42.997Z</time>
      </trkpt>
      <trkpt lat="47.37133" lon="-2.19313">
        <ele>-3.980644</ele>
        <time>2020-06-05T16:09:44.997Z</time>
      </trkpt>
      <trkpt lat="47.37143" lon="-2.19321">
        <ele>-4.016571</ele>
        <time>2020-06-05T16:09:46.997Z</time>
      </trkpt>
      <trkpt lat="47.37153" lon="-2.19329">
        <ele>-4.028726</ele>
        <time>2020-06-05T16:09:48.997Z</time>
      </trkpt>
      <trkpt lat="47.37163" lon="-2.19335">
        <ele>-4.039919</ele>
        <time>2020-06-05T16:09:50.997Z</time>
      </trkpt>
      <trkpt lat="47.37173" lon="-2.19344">
        <ele>-4.052744</ele>
        <time>2020-06-05T16:09:52.997Z</time>
      </trkpt>
      <trkpt lat="47.37183" lon="-2.19352">
        <ele>-4.065253</ele>
        <time>2020-06-05T16:09:54.997Z</time>
      </trkpt>
      <trkpt lat="47.37194" lon="-2.19361">
        <ele>-4.078229</ele>
        <time>2020-06-05T16:09:56.996Z</time>
      </trkpt>
      <trkpt lat="47.37205" lon="-2.1937">
        <ele>-4.091724</ele>
        <time>2020-06-05T16:09:58.996Z</time>
      </trkpt>
      <trkpt lat="47.37215" lon="-2.19377">
        <ele>-4.10452</ele>
        <time>2020-06-05T16:10:00.996Z</time>
      </trkpt>
      <trkpt lat="47.37225" lon="-2.19386">
        <ele>-4.116789</ele>
        <time>2020-06-05T16:10:02.996Z</time>
      </trkpt>
      <trkpt lat="47.37233" lon="-2.19394">
        <ele>-4.127602</ele>
        <time>2020-06-05T16:10:04.996Z</time>
      </trkpt>
      <trkpt lat="47.37245" lon="-2.19402">
        <ele>-4.140727</ele>
        <time>2020-06-05T16:10:06.996Z</time>
      </trkpt>
      <trkpt lat="47.37256" lon="-2.19412">
        <ele>-4.155116</ele>
        <time>2020-06-05T16:10:08.996Z</time>
      </trkpt>
      <trkpt lat="47.37266" lon="-2.19422">
        <ele>-4.168141</ele>
        <time>2020-06-05T16:10:10.996Z</time>
      </trkpt>
      <trkpt lat="47.37275" lon="-2.19432">
        <ele>-4.180452</ele>
        <time>2020-06-05T16:10:12.996Z</time>
      </trkpt>
      <trkpt lat="47.37286" lon="-2.19442">
        <ele>-4.193632</ele>
        <time>2020-06-05T16:10:14.996Z</time>
      </trkpt>
      <trkpt lat="47.37294" lon="-2.1945">
        <ele>-4.240598</ele>
        <time>2020-06-05T16:10:16.996Z</time>
      </trkpt>
      <trkpt lat="47.37303" lon="-2.19457">
        <ele>-4.336694</ele>
        <time>2020-06-05T16:10:18.995Z</time>
      </trkpt>
      <trkpt lat="47.37311" lon="-2.19463">
        <ele>-4.43131</ele>
        <time>2020-06-05T16:10:20.995Z</time>
      </trkpt>
      <trkpt lat="47.37321" lon="-2.19471">
        <ele>-4.544873</ele>
        <time>2020-06-05T16:10:22.995Z</time>
      </trkpt>
      <trkpt lat="47.37332" lon="-2.19479">
        <ele>-4.660475</ele>
        <time>2020-06-05T16:10:24.995Z</time>
      </trkpt>
      <trkpt lat="47.3734" lon="-2.19486">
        <ele>-4.756372</ele>
        <time>2020-06-05T16:10:26.995Z</time>
      </trkpt>
      <trkpt lat="47.37348" lon="-2.19494">
        <ele>-4.853537</ele>
        <time>2020-06-05T16:10:28.995Z</time>
      </trkpt>
      <trkpt lat="47.37358" lon="-2.19502">
        <ele>-4.962849</ele>
        <time>2020-06-05T16:10:30.995Z</time>
      </trkpt>
      <trkpt lat="47.37368" lon="-2.1951">
        <ele>-5.072046</ele>
        <time>2020-06-05T16:10:32.995Z</time>
      </trkpt>
      <trkpt lat="47.37377" lon="-2.19519">
        <ele>-5.18356</ele>
        <time>2020-06-05T16:10:34.995Z</time>
      </trkpt>
      <trkpt lat="47.37387" lon="-2.19526">
        <ele>-5.290299</ele>
        <time>2020-06-05T16:10:36.995Z</time>
      </trkpt>
      <trkpt lat="47.37396" lon="-2.19533">
        <ele>-5.392619</ele>
        <time>2020-06-05T16:10:38.995Z</time>
      </trkpt>
      <trkpt lat="47.37404" lon="-2.19541">
        <ele>-5.492052</ele>
        <time>2020-06-05T16:10:40.995Z</time>
      </trkpt>
      <trkpt lat="47.37415" lon="-2.1955">
        <ele>-5.609699</ele>
        <time>2020-06-05T16:10:42.995Z</time>
      </trkpt>
      <trkpt lat="47.37425" lon="-2.19558">
        <ele>-5.728006</ele>
        <time>2020-06-05T16:10:44.995Z</time>
      </trkpt>
      <trkpt lat="47.37436" lon="-2.19567">
        <ele>-5.847365</ele>
        <time>2020-06-05T16:10:46.995Z</time>
      </trkpt>
      <trkpt lat="47.37446" lon="-2.19578">
        <ele>-5.971543</ele>
        <time>2020-06-05T16:10:48.995Z</time>
      </trkpt>
      <trkpt lat="47.37457" lon="-2.19587">
        <ele>-5.968</ele>
        <time>2020-06-05T16:10:50.995Z</time>
      </trkpt>
      <trkpt lat="47.37468" lon="-2.19596">
        <ele>-5.957076</ele>
        <time>2020-06-05T16:10:52.995Z</time>
      </trkpt>
      <trkpt lat="47.37478" lon="-2.19604">
        <ele>-5.947005</ele>
        <time>2020-06-05T16:10:54.995Z</time>
      </trkpt>
      <trkpt lat="47.37488" lon="-2.19613">
        <ele>-5.935881</ele>
        <time>2020-06-05T16:10:56.995Z</time>
      </trkpt>
      <trkpt lat="47.37496" lon="-2.19622">
        <ele>-5.92723</ele>
        <time>2020-06-05T16:10:58.995Z</time>
      </trkpt>
      <trkpt lat="47.37506" lon="-2.19631">
        <ele>-5.917163</ele>
        <time>2020-06-05T16:11:00.995Z</time>
      </trkpt>
      <trkpt lat="47.37516" lon="-2.1964">
        <ele>-5.906266</ele>
        <time>2020-06-05T16:11:02.995Z</time>
      </trkpt>
      <trkpt lat="47.37526" lon="-2.19649">
        <ele>-5.895678</ele>
        <time>2020-06-05T16:11:04.995Z</time>
      </trkpt>
      <trkpt lat="47.37537" lon="-2.19657">
        <ele>-5.885314</ele>
        <time>2020-06-05T16:11:06.995Z</time>
      </trkpt>
      <trkpt lat="47.37547" lon="-2.19666">
        <ele>-5.87486</ele>
        <time>2020-06-05T16:11:08.995Z</time>
      </trkpt>
      <trkpt lat="47.37557" lon="-2.19672">
        <ele>-5.865079</ele>
        <time>2020-06-05T16:11:10.994Z</time>
      </trkpt>
      <trkpt lat="47.37566" lon="-2.19679">
        <ele>-5.856097</ele>
        <time>2020-06-05T16:11:12.994Z</time>
      </trkpt>
      <trkpt lat="47.37576" lon="-2.19686">
        <ele>-5.846291</ele>
        <time>2020-06-05T16:11:14.994Z</time>
      </trkpt>
      <trkpt lat="47.37587" lon="-2.19689">
        <ele>-5.836827</ele>
        <time>2020-06-05T16:11:16.994Z</time>
      </trkpt>
      <trkpt lat="47.37596" lon="-2.19694">
        <ele>-5.827615</ele>
        <time>2020-06-05T16:11:18.994Z</time>
      </trkpt>
      <trkpt lat="47.37606" lon="-2.19701">
        <ele>-5.81058</ele>
        <time>2020-06-05T16:11:20.994Z</time>
      </trkpt>
      <trkpt lat="47.37615" lon="-2.19706">
        <ele>-5.688637</ele>
        <time>2020-06-05T16:11:22.994Z</time>
      </trkpt>
      <trkpt lat="47.37624" lon="-2.19713">
        <ele>-5.568355</ele>
        <time>2020-06-05T16:11:24.994Z</time>
      </trkpt>
      <trkpt lat="47.37635" lon="-2.19722">
        <ele>-5.416168</ele>
        <time>2020-06-05T16:11:26.994Z</time>
      </trkpt>
      <trkpt lat="47.37646" lon="-2.1973">
        <ele>-5.276356</ele>
        <time>2020-06-05T16:11:28.994Z</time>
      </trkpt>
      <trkpt lat="47.37655" lon="-2.19736">
        <ele>-5.151546</ele>
        <time>2020-06-05T16:11:30.994Z</time>
      </trkpt>
      <trkpt lat="47.37666" lon="-2.19742">
        <ele>-5.008562</ele>
        <time>2020-06-05T16:11:32.994Z</time>
      </trkpt>
      <trkpt lat="47.37675" lon="-2.19747">
        <ele>-4.887839</ele>
        <time>2020-06-05T16:11:34.994Z</time>
      </trkpt>
      <trkpt lat="47.37685" lon="-2.19751">
        <ele>-4.773312</ele>
        <time>2020-06-05T16:11:36.994Z</time>
      </trkpt>
      <trkpt lat="47.37693" lon="-2.19758">
        <ele>-4.653782</ele>
        <time>2020-06-05T16:11:38.994Z</time>
      </trkpt>
      <trkpt lat="47.37703" lon="-2.19764">
        <ele>-4.522903</ele>
        <time>2020-06-05T16:11:41.994Z</time>
      </trkpt>
      <trkpt lat="47.37713" lon="-2.1977">
        <ele>-4.396167</ele>
        <time>2020-06-05T16:11:44.994Z</time>
      </trkpt>
      <trkpt lat="47.37723" lon="-2.19776">
        <ele>-4.262271</ele>
        <time>2020-06-05T16:11:47.994Z</time>
      </trkpt>
      <trkpt lat="47.37733" lon="-2.19775">
        <ele>-4.139559</ele>
        <time>2020-06-05T16:11:50.994Z</time>
      </trkpt>
      <trkpt lat="47.37745" lon="-2.19772">
        <ele>-3.999985</ele>
        <time>2020-06-05T16:11:53.994Z</time>
      </trkpt>
      <trkpt lat="47.37756" lon="-2.19771">
        <ele>-3.863863</ele>
        <time>2020-06-05T16:11:56.994Z</time>
      </trkpt>
      <trkpt lat="47.37766" lon="-2.19769">
        <ele>-3.744364</ele>
        <time>2020-06-05T16:11:59.994Z</time>
      </trkpt>
      <trkpt lat="47.37777" lon="-2.19768">
        <ele>-3.564417</ele>
        <time>2020-06-05T16:12:03.993Z</time>
      </trkpt>
      <trkpt lat="47.37788" lon="-2.19764">
        <ele>-3.276582</ele>
        <time>2020-06-05T16:12:06.993Z</time>
      </trkpt>
      <trkpt lat="47.37801" lon="-2.19766">
        <ele>-2.921176</ele>
        <time>2020-06-05T16:12:09.993Z</time>
      </trkpt>
      <trkpt lat="47.37811" lon="-2.19772">
        <ele>-2.621211</ele>
        <time>2020-06-05T16:12:12.993Z</time>
      </trkpt>
      <trkpt lat="47.37821" lon="-2.19774">
        <ele>-2.355058</ele>
        <time>2020-06-05T16:12:15.993Z</time>
      </trkpt>
      <trkpt lat="47.37811" lon="-2.19771">
        <ele>-2.08378</ele>
        <time>2020-06-05T16:13:16.992Z</time>
      </trkpt>
      <trkpt lat="47.37801" lon="-2.19768">
        <ele>-1.799804</ele>
        <time>2020-06-05T16:13:18.992Z</time>
      </trkpt>
      <trkpt lat="47.37789" lon="-2.19765">
        <ele>-1.476247</ele>
        <time>2020-06-05T16:13:20.992Z</time>
      </trkpt>
      <trkpt lat="47.37779" lon="-2.19763">
        <ele>-1.201425</ele>
        <time>2020-06-05T16:13:22.992Z</time>
      </trkpt>
      <trkpt lat="47.37768" lon="-2.19767">
        <ele>-0.906271</ele>
        <time>2020-06-05T16:13:24.992Z</time>
      </trkpt>
      <trkpt lat="47.37758" lon="-2.19771">
        <ele>-0.641234</ele>
        <time>2020-06-05T16:13:26.992Z</time>
      </trkpt>
      <trkpt lat="47.37749" lon="-2.19775">
        <ele>-0.384147</ele>
        <time>2020-06-05T16:13:28.992Z</time>
      </trkpt>
      <trkpt lat="47.3774" lon="-2.19784">
        <ele>-0.100771</ele>
        <time>2020-06-05T16:13:30.992Z</time>
      </trkpt>
      <trkpt lat="47.37739" lon="-2.19801">
        <ele>0.201287</ele>
        <time>2020-06-05T16:13:32.992Z</time>
      </trkpt>
      <trkpt lat="47.37739" lon="-2.19817">
        <ele>0.491563</ele>
        <time>2020-06-05T16:13:34.992Z</time>
      </trkpt>
      <trkpt lat="47.37741" lon="-2.19833">
        <ele>0.788497</ele>
        <time>2020-06-05T16:13:36.992Z</time>
      </trkpt>
      <trkpt lat="47.37745" lon="-2.19849">
        <ele>1.093155</ele>
        <time>2020-06-05T16:13:38.992Z</time>
      </trkpt>
      <trkpt lat="47.37752" lon="-2.19862">
        <ele>1.028547</ele>
        <time>2020-06-05T16:13:40.992Z</time>
      </trkpt>
      <trkpt lat="47.3776" lon="-2.19874">
        <ele>0.893639</ele>
        <time>2020-06-05T16:13:42.992Z</time>
      </trkpt>
      <trkpt lat="47.37771" lon="-2.19881">
        <ele>0.755082</ele>
        <time>2020-06-05T16:13:44.992Z</time>
      </trkpt>
      <trkpt lat="47.37782" lon="-2.19887">
        <ele>0.619172</ele>
        <time>2020-06-05T16:13:46.992Z</time>
      </trkpt>
      <trkpt lat="47.37793" lon="-2.19894">
        <ele>0.486287</ele>
        <time>2020-06-05T16:13:48.992Z</time>
      </trkpt>
      <trkpt lat="47.37802" lon="-2.19901">
        <ele>0.364688</ele>
        <time>2020-06-05T16:13:50.991Z</time>
      </trkpt>
      <trkpt lat="47.37811" lon="-2.19907">
        <ele>0.247635</ele>
        <time>2020-06-05T16:13:52.991Z</time>
      </trkpt>
      <trkpt lat="47.37822" lon="-2.19914">
        <ele>0.104467</ele>
        <time>2020-06-05T16:13:54.991Z</time>
      </trkpt>
      <trkpt lat="47.37831" lon="-2.19921">
        <ele>-0.005298</ele>
        <time>2020-06-05T16:13:56.991Z</time>
      </trkpt>
      <trkpt lat="47.3784" lon="-2.19926">
        <ele>-0.118501</ele>
        <time>2020-06-05T16:13:58.993Z</time>
      </trkpt>
      <trkpt lat="47.37852" lon="-2.19931">
        <ele>-0.267981</ele>
        <time>2020-06-05T16:14:01.994Z</time>
      </trkpt>
      <trkpt lat="47.37862" lon="-2.19934">
        <ele>-0.38361</ele>
        <time>2020-06-05T16:14:03.995Z</time>
      </trkpt>
      <trkpt lat="47.37873" lon="-2.19937">
        <ele>-0.519657</ele>
        <time>2020-06-05T16:14:05.995Z</time>
      </trkpt>
      <trkpt lat="47.37883" lon="-2.19939">
        <ele>-0.633285</ele>
        <time>2020-06-05T16:14:07.996Z</time>
      </trkpt>
      <trkpt lat="47.37893" lon="-2.19942">
        <ele>-0.755283</ele>
        <time>2020-06-05T16:14:09.996Z</time>
      </trkpt>
      <trkpt lat="47.37902" lon="-2.19946">
        <ele>-0.869148</ele>
        <time>2020-06-05T16:14:11.996Z</time>
      </trkpt>
      <trkpt lat="47.37914" lon="-2.19957">
        <ele>-0.99476</ele>
        <time>2020-06-05T16:14:14.997Z</time>
      </trkpt>
      <trkpt lat="47.37925" lon="-2.19966">
        <ele>-1.066422</ele>
        <time>2020-06-05T16:14:17.997Z</time>
      </trkpt>
      <trkpt lat="47.37934" lon="-2.19971">
        <ele>-1.120155</ele>
        <time>2020-06-05T16:14:19.998Z</time>
      </trkpt>
      <trkpt lat="47.37943" lon="-2.19977">
        <ele>-1.18023</ele>
        <time>2020-06-05T16:14:21.998Z</time>
      </trkpt>
      <trkpt lat="47.37952" lon="-2.19984">
        <ele>-1.23785</ele>
        <time>2020-06-05T16:14:23.998Z</time>
      </trkpt>
      <trkpt lat="47.37964" lon="-2.19995">
        <ele>-1.316872</ele>
        <time>2020-06-05T16:14:26.998Z</time>
      </trkpt>
      <trkpt lat="47.37973" lon="-2.20005">
        <ele>-1.382419</ele>
        <time>2020-06-05T16:14:29.998Z</time>
      </trkpt>
      <trkpt lat="47.3798" lon="-2.20014">
        <ele>-1.435109</ele>
        <time>2020-06-05T16:14:31.998Z</time>
      </trkpt>
      <trkpt lat="47.37986" lon="-2.20025">
        <ele>-1.490959</ele>
        <time>2020-06-05T16:14:33.998Z</time>
      </trkpt>
      <trkpt lat="47.37991" lon="-2.20038">
        <ele>-1.549409</ele>
        <time>2020-06-05T16:14:35.998Z</time>
      </trkpt>
      <trkpt lat="47.37997" lon="-2.20051">
        <ele>-1.606831</ele>
        <time>2020-06-05T16:14:37.998Z</time>
      </trkpt>
      <trkpt lat="47.38002" lon="-2.20063">
        <ele>-1.661644</ele>
        <time>2020-06-05T16:14:39.998Z</time>
      </trkpt>
      <trkpt lat="47.38007" lon="-2.20074">
        <ele>-1.713572</ele>
        <time>2020-06-05T16:14:41.998Z</time>
      </trkpt>
      <trkpt lat="47.38013" lon="-2.20085">
        <ele>-1.768431</ele>
        <time>2020-06-05T16:14:43.998Z</time>
      </trkpt>
      <trkpt lat="47.38018" lon="-2.20096">
        <ele>-1.820091</ele>
        <time>2020-06-05T16:14:45.998Z</time>
      </trkpt>
      <trkpt lat="47.38024" lon="-2.20108">
        <ele>-1.878179</ele>
        <time>2020-06-05T16:14:47.998Z</time>
      </trkpt>
      <trkpt lat="47.38032" lon="-2.20124">
        <ele>-1.953851</ele>
        <time>2020-06-05T16:14:50.998Z</time>
      </trkpt>
      <trkpt lat="47.3804" lon="-2.20134">
        <ele>-2.040076</ele>
        <time>2020-06-05T16:14:52.998Z</time>
      </trkpt>
      <trkpt lat="47.38049" lon="-2.2014">
        <ele>-2.164362</ele>
        <time>2020-06-05T16:14:54.998Z</time>
      </trkpt>
      <trkpt lat="47.38062" lon="-2.20149">
        <ele>-2.325686</ele>
        <time>2020-06-05T16:14:57.998Z</time>
      </trkpt>
      <trkpt lat="47.38071" lon="-2.20155">
        <ele>-2.441984</ele>
        <time>2020-06-05T16:14:59.998Z</time>
      </trkpt>
      <trkpt lat="47.38079" lon="-2.20159">
        <ele>-2.552307</ele>
        <time>2020-06-05T16:15:01.998Z</time>
      </trkpt>
      <trkpt lat="47.38089" lon="-2.20163">
        <ele>-2.664516</ele>
        <time>2020-06-05T16:15:03.998Z</time>
      </trkpt>
      <trkpt lat="47.38101" lon="-2.2017">
        <ele>-2.817526</ele>
        <time>2020-06-05T16:15:06.998Z</time>
      </trkpt>
      <trkpt lat="47.38111" lon="-2.20176">
        <ele>-2.945701</ele>
        <time>2020-06-05T16:15:09.998Z</time>
      </trkpt>
      <trkpt lat="47.38123" lon="-2.20185">
        <ele>-3.107929</ele>
        <time>2020-06-05T16:15:12.998Z</time>
      </trkpt>
      <trkpt lat="47.38133" lon="-2.20191">
        <ele>-3.229419</ele>
        <time>2020-06-05T16:15:14.998Z</time>
      </trkpt>
      <trkpt lat="47.38141" lon="-2.20197">
        <ele>-3.34256</ele>
        <time>2020-06-05T16:15:16.998Z</time>
      </trkpt>
      <trkpt lat="47.3815" lon="-2.20201">
        <ele>-3.450984</ele>
        <time>2020-06-05T16:15:18.998Z</time>
      </trkpt>
      <trkpt lat="47.38159" lon="-2.20205">
        <ele>-3.566377</ele>
        <time>2020-06-05T16:15:20.998Z</time>
      </trkpt>
      <trkpt lat="47.38173" lon="-2.20208">
        <ele>-3.733158</ele>
        <time>2020-06-05T16:15:23.998Z</time>
      </trkpt>
      <trkpt lat="47.38185" lon="-2.20217">
        <ele>-3.890831</ele>
        <time>2020-06-05T16:15:26.998Z</time>
      </trkpt>
      <trkpt lat="47.38194" lon="-2.20223">
        <ele>-4.002238</ele>
        <time>2020-06-05T16:15:28.998Z</time>
      </trkpt>
      <trkpt lat="47.38203" lon="-2.20234">
        <ele>-4.154406</ele>
        <time>2020-06-05T16:15:31.998Z</time>
      </trkpt>
      <trkpt lat="47.38211" lon="-2.20241">
        <ele>-4.297986</ele>
        <time>2020-06-05T16:15:33.998Z</time>
      </trkpt>
      <trkpt lat="47.38222" lon="-2.20252">
        <ele>-4.511803</ele>
        <time>2020-06-05T16:15:36.998Z</time>
      </trkpt>
      <trkpt lat="47.38231" lon="-2.2026">
        <ele>-4.678534</ele>
        <time>2020-06-05T16:15:39.998Z</time>
      </trkpt>
      <trkpt lat="47.3824" lon="-2.20267">
        <ele>-4.825337</ele>
        <time>2020-06-05T16:15:41.998Z</time>
      </trkpt>
      <trkpt lat="47.38248" lon="-2.20276">
        <ele>-4.993045</ele>
        <time>2020-06-05T16:15:43.998Z</time>
      </trkpt>
      <trkpt lat="47.38257" lon="-2.20284">
        <ele>-5.153344</ele>
        <time>2020-06-05T16:15:45.998Z</time>
      </trkpt>
      <trkpt lat="47.38265" lon="-2.2029">
        <ele>-5.299759</ele>
        <time>2020-06-05T16:15:47.998Z</time>
      </trkpt>
      <trkpt lat="47.38276" lon="-2.20294">
        <ele>-5.467845</ele>
        <time>2020-06-05T16:15:49.998Z</time>
      </trkpt>
      <trkpt lat="47.38284" lon="-2.203">
        <ele>-5.618445</ele>
        <time>2020-06-05T16:15:51.997Z</time>
      </trkpt>
      <trkpt lat="47.38294" lon="-2.20305">
        <ele>-5.774443</ele>
        <time>2020-06-05T16:15:53.997Z</time>
      </trkpt>
      <trkpt lat="47.38306" lon="-2.2031">
        <ele>-5.968777</ele>
        <time>2020-06-05T16:15:56.997Z</time>
      </trkpt>
      <trkpt lat="47.38319" lon="-2.20315">
        <ele>-6.195151</ele>
        <time>2020-06-05T16:15:59.997Z</time>
      </trkpt>
      <trkpt lat="47.38329" lon="-2.2032">
        <ele>-6.347522</ele>
        <time>2020-06-05T16:16:01.997Z</time>
      </trkpt>
      <trkpt lat="47.38338" lon="-2.20325">
        <ele>-6.502644</ele>
        <time>2020-06-05T16:16:03.997Z</time>
      </trkpt>
      <trkpt lat="47.38347" lon="-2.20329">
        <ele>-6.651702</ele>
        <time>2020-06-05T16:16:05.997Z</time>
      </trkpt>
      <trkpt lat="47.38361" lon="-2.20332">
        <ele>-6.87456</ele>
        <time>2020-06-05T16:16:08.997Z</time>
      </trkpt>
      <trkpt lat="47.38371" lon="-2.20335">
        <ele>-6.920339</ele>
        <time>2020-06-05T16:16:10.997Z</time>
      </trkpt>
      <trkpt lat="47.38381" lon="-2.20341">
        <ele>-6.879245</ele>
        <time>2020-06-05T16:16:12.997Z</time>
      </trkpt>
      <trkpt lat="47.3839" lon="-2.20345">
        <ele>-6.844387</ele>
        <time>2020-06-05T16:16:14.997Z</time>
      </trkpt>
      <trkpt lat="47.38401" lon="-2.20349">
        <ele>-6.800485</ele>
        <time>2020-06-05T16:16:16.997Z</time>
      </trkpt>
      <trkpt lat="47.38412" lon="-2.20353">
        <ele>-6.757605</ele>
        <time>2020-06-05T16:16:18.997Z</time>
      </trkpt>
      <trkpt lat="47.38422" lon="-2.20358">
        <ele>-6.718181</ele>
        <time>2020-06-05T16:16:20.997Z</time>
      </trkpt>
      <trkpt lat="47.38434" lon="-2.20361">
        <ele>-6.67161</ele>
        <time>2020-06-05T16:16:23.997Z</time>
      </trkpt>
      <trkpt lat="47.38443" lon="-2.20365">
        <ele>-6.633572</ele>
        <time>2020-06-05T16:16:25.997Z</time>
      </trkpt>
      <trkpt lat="47.38453" lon="-2.2037">
        <ele>-6.592449</ele>
        <time>2020-06-05T16:16:27.997Z</time>
      </trkpt>
      <trkpt lat="47.38464" lon="-2.20375">
        <ele>-6.550517</ele>
        <time>2020-06-05T16:16:29.997Z</time>
      </trkpt>
      <trkpt lat="47.38476" lon="-2.20382">
        <ele>-6.499953</ele>
        <time>2020-06-05T16:16:32.997Z</time>
      </trkpt>
      <trkpt lat="47.38487" lon="-2.20386">
        <ele>-6.45842</ele>
        <time>2020-06-05T16:16:34.997Z</time>
      </trkpt>
      <trkpt lat="47.38498" lon="-2.20388">
        <ele>-6.416089</ele>
        <time>2020-06-05T16:16:36.997Z</time>
      </trkpt>
      <trkpt lat="47.38508" lon="-2.20389">
        <ele>-6.376203</ele>
        <time>2020-06-05T16:16:38.997Z</time>
      </trkpt>
      <trkpt lat="47.38517" lon="-2.20389">
        <ele>-6.340884</ele>
        <time>2020-06-05T16:16:40.997Z</time>
      </trkpt>
      <trkpt lat="47.38527" lon="-2.20391">
        <ele>-6.303491</ele>
        <time>2020-06-05T16:16:42.997Z</time>
      </trkpt>
      <trkpt lat="47.38537" lon="-2.20392">
        <ele>-6.265336</ele>
        <time>2020-06-05T16:16:44.996Z</time>
      </trkpt>
      <trkpt lat="47.38547" lon="-2.20396">
        <ele>-6.196723</ele>
        <time>2020-06-05T16:16:46.996Z</time>
      </trkpt>
      <trkpt lat="47.38557" lon="-2.20401">
        <ele>-6.108849</ele>
        <time>2020-06-05T16:16:48.996Z</time>
      </trkpt>
      <trkpt lat="47.38566" lon="-2.20409">
        <ele>-6.026146</ele>
        <time>2020-06-05T16:16:50.996Z</time>
      </trkpt>
      <trkpt lat="47.38575" lon="-2.20416">
        <ele>-5.945103</ele>
        <time>2020-06-05T16:16:52.996Z</time>
      </trkpt>
      <trkpt lat="47.38582" lon="-2.20424">
        <ele>-5.870682</ele>
        <time>2020-06-05T16:16:54.996Z</time>
      </trkpt>
      <trkpt lat="47.38591" lon="-2.20431">
        <ele>-5.789527</ele>
        <time>2020-06-05T16:16:56.996Z</time>
      </trkpt>
      <trkpt lat="47.38601" lon="-2.20437">
        <ele>-5.708306</ele>
        <time>2020-06-05T16:16:58.996Z</time>
      </trkpt>
      <trkpt lat="47.38613" lon="-2.20447">
        <ele>-5.598332</ele>
        <time>2020-06-05T16:17:01.996Z</time>
      </trkpt>
      <trkpt lat="47.38622" lon="-2.20454">
        <ele>-5.51193</ele>
        <time>2020-06-05T16:17:03.996Z</time>
      </trkpt>
      <trkpt lat="47.38632" lon="-2.20458">
        <ele>-5.432084</ele>
        <time>2020-06-05T16:17:05.996Z</time>
      </trkpt>
      <trkpt lat="47.38642" lon="-2.20461">
        <ele>-5.345468</ele>
        <time>2020-06-05T16:17:07.996Z</time>
      </trkpt>
      <trkpt lat="47.38654" lon="-2.20463">
        <ele>-5.255836</ele>
        <time>2020-06-05T16:17:09.996Z</time>
      </trkpt>
      <trkpt lat="47.38663" lon="-2.20465">
        <ele>-5.175866</ele>
        <time>2020-06-05T16:17:11.996Z</time>
      </trkpt>
      <trkpt lat="47.38674" lon="-2.20469">
        <ele>-5.090124</ele>
        <time>2020-06-05T16:17:13.996Z</time>
      </trkpt>
      <trkpt lat="47.38684" lon="-2.20475">
        <ele>-5.003591</ele>
        <time>2020-06-05T16:17:15.996Z</time>
      </trkpt>
      <trkpt lat="47.38693" lon="-2.20482">
        <ele>-4.921225</ele>
        <time>2020-06-05T16:17:17.996Z</time>
      </trkpt>
      <trkpt lat="47.38701" lon="-2.2049">
        <ele>-4.840393</ele>
        <time>2020-06-05T16:17:19.996Z</time>
      </trkpt>
      <trkpt lat="47.3871" lon="-2.20499">
        <ele>-4.651972</ele>
        <time>2020-06-05T16:17:21.996Z</time>
      </trkpt>
      <trkpt lat="47.38722" lon="-2.20507">
        <ele>-4.354651</ele>
        <time>2020-06-05T16:17:24.996Z</time>
      </trkpt>
      <trkpt lat="47.38732" lon="-2.20513">
        <ele>-4.121621</ele>
        <time>2020-06-05T16:17:26.996Z</time>
      </trkpt>
      <trkpt lat="47.38743" lon="-2.2052">
        <ele>-3.857137</ele>
        <time>2020-06-05T16:17:29.996Z</time>
      </trkpt>
      <trkpt lat="47.38752" lon="-2.20525">
        <ele>-3.647556</ele>
        <time>2020-06-05T16:17:31.996Z</time>
      </trkpt>
      <trkpt lat="47.38763" lon="-2.20535">
        <ele>-3.35537</ele>
        <time>2020-06-05T16:17:34.996Z</time>
      </trkpt>
      <trkpt lat="47.38771" lon="-2.20548">
        <ele>-3.08949</ele>
        <time>2020-06-05T16:17:37.995Z</time>
      </trkpt>
      <trkpt lat="47.38779" lon="-2.20565">
        <ele>-2.781463</ele>
        <time>2020-06-05T16:17:40.995Z</time>
      </trkpt>
      <trkpt lat="47.38785" lon="-2.20577">
        <ele>-2.549199</ele>
        <time>2020-06-05T16:17:42.995Z</time>
      </trkpt>
      <trkpt lat="47.38792" lon="-2.20591">
        <ele>-2.29744</ele>
        <time>2020-06-05T16:17:44.995Z</time>
      </trkpt>
      <trkpt lat="47.38794" lon="-2.20605">
        <ele>-2.073419</ele>
        <time>2020-06-05T16:17:46.995Z</time>
      </trkpt>
      <trkpt lat="47.38798" lon="-2.20619">
        <ele>-1.854608</ele>
        <time>2020-06-05T16:17:48.995Z</time>
      </trkpt>
      <trkpt lat="47.38801" lon="-2.20632">
        <ele>-1.640662</ele>
        <time>2020-06-05T16:17:50.995Z</time>
      </trkpt>
      <trkpt lat="47.38806" lon="-2.20643">
        <ele>-1.437535</ele>
        <time>2020-06-05T16:17:52.995Z</time>
      </trkpt>
      <trkpt lat="47.38812" lon="-2.20655">
        <ele>-1.220674</ele>
        <time>2020-06-05T16:17:54.995Z</time>
      </trkpt>
      <trkpt lat="47.38818" lon="-2.20665">
        <ele>-1.014677</ele>
        <time>2020-06-05T16:17:56.995Z</time>
      </trkpt>
      <trkpt lat="47.38827" lon="-2.20675">
        <ele>-0.8731</ele>
        <time>2020-06-05T16:17:58.995Z</time>
      </trkpt>
      <trkpt lat="47.38836" lon="-2.20683">
        <ele>-1.100792</ele>
        <time>2020-06-05T16:18:00.995Z</time>
      </trkpt>
      <trkpt lat="47.38846" lon="-2.20689">
        <ele>-1.342469</ele>
        <time>2020-06-05T16:18:02.995Z</time>
      </trkpt>
      <trkpt lat="47.38856" lon="-2.20693">
        <ele>-1.559551</ele>
        <time>2020-06-05T16:18:04.995Z</time>
      </trkpt>
      <trkpt lat="47.38866" lon="-2.207">
        <ele>-1.81532</ele>
        <time>2020-06-05T16:18:06.995Z</time>
      </trkpt>
      <trkpt lat="47.38875" lon="-2.20709">
        <ele>-2.05192</ele>
        <time>2020-06-05T16:18:08.995Z</time>
      </trkpt>
      <trkpt lat="47.38885" lon="-2.20716">
        <ele>-2.286392</ele>
        <time>2020-06-05T16:18:10.995Z</time>
      </trkpt>
      <trkpt lat="47.38894" lon="-2.20721">
        <ele>-2.513912</ele>
        <time>2020-06-05T16:18:12.995Z</time>
      </trkpt>
      <trkpt lat="47.38906" lon="-2.20728">
        <ele>-2.804892</ele>
        <time>2020-06-05T16:18:15.995Z</time>
      </trkpt>
      <trkpt lat="47.38917" lon="-2.20734">
        <ele>-3.050063</ele>
        <time>2020-06-05T16:18:17.995Z</time>
      </trkpt>
      <trkpt lat="47.38926" lon="-2.2074">
        <ele>-3.267544</ele>
        <time>2020-06-05T16:18:19.995Z</time>
      </trkpt>
      <trkpt lat="47.38935" lon="-2.20745">
        <ele>-3.489982</ele>
        <time>2020-06-05T16:18:21.995Z</time>
      </trkpt>
      <trkpt lat="47.38945" lon="-2.20755">
        <ele>-3.754954</ele>
        <time>2020-06-05T16:18:24.995Z</time>
      </trkpt>
      <trkpt lat="47.38952" lon="-2.20763">
        <ele>-3.95899</ele>
        <time>2020-06-05T16:18:26.995Z</time>
      </trkpt>
      <trkpt lat="47.38962" lon="-2.20777">
        <ele>-4.247789</ele>
        <time>2020-06-05T16:18:29.994Z</time>
      </trkpt>
      <trkpt lat="47.38967" lon="-2.20788">
        <ele>-4.461616</ele>
        <time>2020-06-05T16:18:31.994Z</time>
      </trkpt>
      <trkpt lat="47.38973" lon="-2.20803">
        <ele>-4.707961</ele>
        <time>2020-06-05T16:18:34.994Z</time>
      </trkpt>
      <trkpt lat="47.38981" lon="-2.20817">
        <ele>-4.702257</ele>
        <time>2020-06-05T16:18:37.994Z</time>
      </trkpt>
      <trkpt lat="47.38987" lon="-2.20828">
        <ele>-4.588416</ele>
        <time>2020-06-05T16:18:39.994Z</time>
      </trkpt>
      <trkpt lat="47.38992" lon="-2.2084">
        <ele>-4.478694</ele>
        <time>2020-06-05T16:18:41.994Z</time>
      </trkpt>
      <trkpt lat="47.38999" lon="-2.20851">
        <ele>-4.35578</ele>
        <time>2020-06-05T16:18:43.994Z</time>
      </trkpt>
      <trkpt lat="47.39009" lon="-2.20863">
        <ele>-4.20954</ele>
        <time>2020-06-05T16:18:46.994Z</time>
      </trkpt>
      <trkpt lat="47.39018" lon="-2.20873">
        <ele>-4.081166</ele>
        <time>2020-06-05T16:18:48.994Z</time>
      </trkpt>
      <trkpt lat="47.39025" lon="-2.20881">
        <ele>-3.970624</ele>
        <time>2020-06-05T16:18:50.994Z</time>
      </trkpt>
      <trkpt lat="47.39035" lon="-2.20889">
        <ele>-3.840611</ele>
        <time>2020-06-05T16:18:52.994Z</time>
      </trkpt>
      <trkpt lat="47.39045" lon="-2.20896">
        <ele>-3.718019</ele>
        <time>2020-06-05T16:18:54.994Z</time>
      </trkpt>
      <trkpt lat="47.39055" lon="-2.20901">
        <ele>-3.592867</ele>
        <time>2020-06-05T16:18:56.994Z</time>
      </trkpt>
      <trkpt lat="47.39067" lon="-2.20906">
        <ele>-3.439184</ele>
        <time>2020-06-05T16:18:59.994Z</time>
      </trkpt>
      <trkpt lat="47.39079" lon="-2.20902">
        <ele>-3.303596</ele>
        <time>2020-06-05T16:19:01.994Z</time>
      </trkpt>
      <trkpt lat="47.39089" lon="-2.20899">
        <ele>-3.185488</ele>
        <time>2020-06-05T16:19:03.994Z</time>
      </trkpt>
      <trkpt lat="47.391" lon="-2.20898">
        <ele>-3.058435</ele>
        <time>2020-06-05T16:19:05.994Z</time>
      </trkpt>
      <trkpt lat="47.3911" lon="-2.20897">
        <ele>-2.933472</ele>
        <time>2020-06-05T16:19:07.994Z</time>
      </trkpt>
      <trkpt lat="47.39125" lon="-2.20891">
        <ele>-2.759921</ele>
        <time>2020-06-05T16:19:10.994Z</time>
      </trkpt>
      <trkpt lat="47.39134" lon="-2.20885">
        <ele>-2.611119</ele>
        <time>2020-06-05T16:19:12.994Z</time>
      </trkpt>
      <trkpt lat="47.39143" lon="-2.20874">
        <ele>-2.392148</ele>
        <time>2020-06-05T16:19:15.994Z</time>
      </trkpt>
      <trkpt lat="47.39151" lon="-2.20868">
        <ele>-2.225968</ele>
        <time>2020-06-05T16:19:18.994Z</time>
      </trkpt>
      <trkpt lat="47.39162" lon="-2.20878">
        <ele>-1.999558</ele>
        <time>2020-06-05T16:19:22.993Z</time>
      </trkpt>
      <trkpt lat="47.39166" lon="-2.20891">
        <ele>-1.826744</ele>
        <time>2020-06-05T16:19:24.993Z</time>
      </trkpt>
      <trkpt lat="47.3917" lon="-2.20904">
        <ele>-1.648271</ele>
        <time>2020-06-05T16:19:26.993Z</time>
      </trkpt>
      <trkpt lat="47.39175" lon="-2.20917">
        <ele>-1.461088</ele>
        <time>2020-06-05T16:19:28.993Z</time>
      </trkpt>
      <trkpt lat="47.3918" lon="-2.2093">
        <ele>-1.281224</ele>
        <time>2020-06-05T16:19:30.993Z</time>
      </trkpt>
      <trkpt lat="47.39185" lon="-2.20944">
        <ele>-1.093202</ele>
        <time>2020-06-05T16:19:32.993Z</time>
      </trkpt>
      <trkpt lat="47.39189" lon="-2.20958">
        <ele>-0.91092</ele>
        <time>2020-06-05T16:19:34.993Z</time>
      </trkpt>
      <trkpt lat="47.39194" lon="-2.20971">
        <ele>-0.7259</ele>
        <time>2020-06-05T16:19:36.993Z</time>
      </trkpt>
      <trkpt lat="47.39198" lon="-2.20984">
        <ele>-0.548186</ele>
        <time>2020-06-05T16:19:38.993Z</time>
      </trkpt>
      <trkpt lat="47.39204" lon="-2.20999">
        <ele>-0.342138</ele>
        <time>2020-06-05T16:19:40.993Z</time>
      </trkpt>
      <trkpt lat="47.39208" lon="-2.21012">
        <ele>-0.162275</ele>
        <time>2020-06-05T16:19:42.993Z</time>
      </trkpt>
      <trkpt lat="47.39216" lon="-2.21029">
        <ele>0.078395</ele>
        <time>2020-06-05T16:19:45.993Z</time>
      </trkpt>
      <trkpt lat="47.3922" lon="-2.21041">
        <ele>0.250111</ele>
        <time>2020-06-05T16:19:47.993Z</time>
      </trkpt>
      <trkpt lat="47.39224" lon="-2.21058">
        <ele>0.46858</ele>
        <time>2020-06-05T16:19:50.993Z</time>
      </trkpt>
      <trkpt lat="47.39229" lon="-2.2107">
        <ele>0.487334</ele>
        <time>2020-06-05T16:19:52.993Z</time>
      </trkpt>
      <trkpt lat="47.39234" lon="-2.21084">
        <ele>0.38854</ele>
        <time>2020-06-05T16:19:54.993Z</time>
      </trkpt>
      <trkpt lat="47.3924" lon="-2.21098">
        <ele>0.287932</ele>
        <time>2020-06-05T16:19:56.993Z</time>
      </trkpt>
      <trkpt lat="47.39245" lon="-2.21114">
        <ele>0.180993</ele>
        <time>2020-06-05T16:19:58.993Z</time>
      </trkpt>
      <trkpt lat="47.39251" lon="-2.21129">
        <ele>0.074549</ele>
        <time>2020-06-05T16:20:00.993Z</time>
      </trkpt>
      <trkpt lat="47.39256" lon="-2.21142">
        <ele>-0.016724</ele>
        <time>2020-06-05T16:20:02.993Z</time>
      </trkpt>
      <trkpt lat="47.3926" lon="-2.21157">
        <ele>-0.115859</ele>
        <time>2020-06-05T16:20:04.993Z</time>
      </trkpt>
      <trkpt lat="47.39262" lon="-2.21171">
        <ele>-0.202159</ele>
        <time>2020-06-05T16:20:06.993Z</time>
      </trkpt>
      <trkpt lat="47.39267" lon="-2.21192">
        <ele>-0.333623</ele>
        <time>2020-06-05T16:20:09.993Z</time>
      </trkpt>
      <trkpt lat="47.3927" lon="-2.21208">
        <ele>-0.436537</ele>
        <time>2020-06-05T16:20:11.993Z</time>
      </trkpt>
      <trkpt lat="47.39272" lon="-2.21222">
        <ele>-0.523208</ele>
        <time>2020-06-05T16:20:13.993Z</time>
      </trkpt>
      <trkpt lat="47.39275" lon="-2.2124">
        <ele>-0.636045</ele>
        <time>2020-06-05T16:20:16.992Z</time>
      </trkpt>
      <trkpt lat="47.39277" lon="-2.21255">
        <ele>-0.729243</ele>
        <time>2020-06-05T16:20:18.992Z</time>
      </trkpt>
      <trkpt lat="47.39281" lon="-2.21268">
        <ele>-0.818201</ele>
        <time>2020-06-05T16:20:20.992Z</time>
      </trkpt>
      <trkpt lat="47.39284" lon="-2.21283">
        <ele>-0.91409</ele>
        <time>2020-06-05T16:20:22.992Z</time>
      </trkpt>
      <trkpt lat="47.39287" lon="-2.21296">
        <ele>-0.997849</ele>
        <time>2020-06-05T16:20:24.992Z</time>
      </trkpt>
      <trkpt lat="47.39294" lon="-2.21314">
        <ele>-1.263483</ele>
        <time>2020-06-05T16:20:27.992Z</time>
      </trkpt>
      <trkpt lat="47.393" lon="-2.21327">
        <ele>-1.670095</ele>
        <time>2020-06-05T16:20:29.992Z</time>
      </trkpt>
      <trkpt lat="47.39308" lon="-2.2134">
        <ele>-2.121071</ele>
        <time>2020-06-05T16:20:31.992Z</time>
      </trkpt>
      <trkpt lat="47.39316" lon="-2.21351">
        <ele>-2.566338</ele>
        <time>2020-06-05T16:20:33.992Z</time>
      </trkpt>
      <trkpt lat="47.39324" lon="-2.2136">
        <ele>-2.942314</ele>
        <time>2020-06-05T16:20:35.992Z</time>
      </trkpt>
      <trkpt lat="47.39332" lon="-2.21368">
        <ele>-3.296546</ele>
        <time>2020-06-05T16:20:37.992Z</time>
      </trkpt>
      <trkpt lat="47.39339" lon="-2.21378">
        <ele>-3.681594</ele>
        <time>2020-06-05T16:20:39.992Z</time>
      </trkpt>
      <trkpt lat="47.39348" lon="-2.21388">
        <ele>-4.116818</ele>
        <time>2020-06-05T16:20:41.992Z</time>
      </trkpt>
      <trkpt lat="47.39356" lon="-2.21396">
        <ele>-4.51895</ele>
        <time>2020-06-05T16:20:43.992Z</time>
      </trkpt>
      <trkpt lat="47.39364" lon="-2.21405">
        <ele>-4.907709</ele>
        <time>2020-06-05T16:20:45.992Z</time>
      </trkpt>
      <trkpt lat="47.39373" lon="-2.21416">
        <ele>-5.341768</ele>
        <time>2020-06-05T16:20:47.992Z</time>
      </trkpt>
      <trkpt lat="47.39381" lon="-2.21425">
        <ele>-5.742649</ele>
        <time>2020-06-05T16:20:49.992Z</time>
      </trkpt>
      <trkpt lat="47.3939" lon="-2.21436">
        <ele>-6.19402</ele>
        <time>2020-06-05T16:20:51.992Z</time>
      </trkpt>
      <trkpt lat="47.394" lon="-2.21447">
        <ele>-6.682319</ele>
        <time>2020-06-05T16:20:53.992Z</time>
      </trkpt>
      <trkpt lat="47.39409" lon="-2.21454">
        <ele>-7.067664</ele>
        <time>2020-06-05T16:20:55.992Z</time>
      </trkpt>
      <trkpt lat="47.39417" lon="-2.21463">
        <ele>-7.446813</ele>
        <time>2020-06-05T16:20:57.992Z</time>
      </trkpt>
      <trkpt lat="47.39425" lon="-2.21472">
        <ele>-7.840565</ele>
        <time>2020-06-05T16:20:59.992Z</time>
      </trkpt>
      <trkpt lat="47.39433" lon="-2.21484">
        <ele>-8.048146</ele>
        <time>2020-06-05T16:21:01.992Z</time>
      </trkpt>
      <trkpt lat="47.39441" lon="-2.21494">
        <ele>-8.026922</ele>
        <time>2020-06-05T16:21:03.992Z</time>
      </trkpt>
      <trkpt lat="47.39449" lon="-2.21505">
        <ele>-8.004792</ele>
        <time>2020-06-05T16:21:05.994Z</time>
      </trkpt>
      <trkpt lat="47.39458" lon="-2.21517">
        <ele>-7.981169</ele>
        <time>2020-06-05T16:21:07.994Z</time>
      </trkpt>
      <trkpt lat="47.39467" lon="-2.21529">
        <ele>-7.958548</ele>
        <time>2020-06-05T16:21:09.995Z</time>
      </trkpt>
      <trkpt lat="47.39474" lon="-2.2154">
        <ele>-7.937964</ele>
        <time>2020-06-05T16:21:11.996Z</time>
      </trkpt>
      <trkpt lat="47.39483" lon="-2.2155">
        <ele>-7.916506</ele>
        <time>2020-06-05T16:21:13.996Z</time>
      </trkpt>
      <trkpt lat="47.39491" lon="-2.2156">
        <ele>-7.896245</ele>
        <time>2020-06-05T16:21:15.996Z</time>
      </trkpt>
      <trkpt lat="47.395" lon="-2.2157">
        <ele>-7.873508</ele>
        <time>2020-06-05T16:21:17.997Z</time>
      </trkpt>
      <trkpt lat="47.39509" lon="-2.21581">
        <ele>-7.852073</ele>
        <time>2020-06-05T16:21:19.997Z</time>
      </trkpt>
      <trkpt lat="47.39518" lon="-2.21592">
        <ele>-7.828886</ele>
        <time>2020-06-05T16:21:21.997Z</time>
      </trkpt>
      <trkpt lat="47.39526" lon="-2.21601">
        <ele>-7.808432</ele>
        <time>2020-06-05T16:21:23.998Z</time>
      </trkpt>
      <trkpt lat="47.39535" lon="-2.21611">
        <ele>-7.78663</ele>
        <time>2020-06-05T16:21:25.998Z</time>
      </trkpt>
      <trkpt lat="47.39544" lon="-2.21622">
        <ele>-7.762928</ele>
        <time>2020-06-05T16:21:27.998Z</time>
      </trkpt>
      <trkpt lat="47.39553" lon="-2.21633">
        <ele>-7.739742</ele>
        <time>2020-06-05T16:21:29.998Z</time>
      </trkpt>
      <trkpt lat="47.39563" lon="-2.21644">
        <ele>-7.715515</ele>
        <time>2020-06-05T16:21:31.998Z</time>
      </trkpt>
      <trkpt lat="47.39572" lon="-2.21656">
        <ele>-7.59884</ele>
        <time>2020-06-05T16:21:33.998Z</time>
      </trkpt>
      <trkpt lat="47.39581" lon="-2.21667">
        <ele>-7.435188</ele>
        <time>2020-06-05T16:21:35.998Z</time>
      </trkpt>
      <trkpt lat="47.3959" lon="-2.21677">
        <ele>-7.27796</ele>
        <time>2020-06-05T16:21:37.998Z</time>
      </trkpt>
      <trkpt lat="47.39599" lon="-2.21686">
        <ele>-7.12538</ele>
        <time>2020-06-05T16:21:39.999Z</time>
      </trkpt>
      <trkpt lat="47.39608" lon="-2.21698">
        <ele>-6.9544</ele>
        <time>2020-06-05T16:21:41.999Z</time>
      </trkpt>
      <trkpt lat="47.39617" lon="-2.21709">
        <ele>-6.788649</ele>
        <time>2020-06-05T16:21:43.999Z</time>
      </trkpt>
      <trkpt lat="47.39626" lon="-2.2172">
        <ele>-6.613565</ele>
        <time>2020-06-05T16:21:45.999Z</time>
      </trkpt>
      <trkpt lat="47.39636" lon="-2.21731">
        <ele>-6.44558</ele>
        <time>2020-06-05T16:21:47.999Z</time>
      </trkpt>
      <trkpt lat="47.39645" lon="-2.21742">
        <ele>-6.281442</ele>
        <time>2020-06-05T16:21:49.999Z</time>
      </trkpt>
      <trkpt lat="47.39654" lon="-2.21753">
        <ele>-6.1184</ele>
        <time>2020-06-05T16:21:51.999Z</time>
      </trkpt>
      <trkpt lat="47.39662" lon="-2.21763">
        <ele>-5.962636</ele>
        <time>2020-06-05T16:21:53.999Z</time>
      </trkpt>
      <trkpt lat="47.3967" lon="-2.21773">
        <ele>-5.817338</ele>
        <time>2020-06-05T16:21:55.999Z</time>
      </trkpt>
      <trkpt lat="47.39679" lon="-2.21782">
        <ele>-5.664172</ele>
        <time>2020-06-05T16:21:57.999Z</time>
      </trkpt>
      <trkpt lat="47.39687" lon="-2.21791">
        <ele>-5.514981</ele>
        <time>2020-06-05T16:21:59.999Z</time>
      </trkpt>
      <trkpt lat="47.39697" lon="-2.218">
        <ele>-5.347772</ele>
        <time>2020-06-05T16:22:01.999Z</time>
      </trkpt>
      <trkpt lat="47.39708" lon="-2.21806">
        <ele>-5.189086</ele>
        <time>2020-06-05T16:22:03.999Z</time>
      </trkpt>
      <trkpt lat="47.39718" lon="-2.2181">
        <ele>-5.172908</ele>
        <time>2020-06-05T16:22:05.999Z</time>
      </trkpt>
      <trkpt lat="47.39729" lon="-2.21814">
        <ele>-5.18828</ele>
        <time>2020-06-05T16:22:07.999Z</time>
      </trkpt>
      <trkpt lat="47.39741" lon="-2.21816">
        <ele>-5.203609</ele>
        <time>2020-06-05T16:22:09.999Z</time>
      </trkpt>
      <trkpt lat="47.39752" lon="-2.21819">
        <ele>-5.218582</ele>
        <time>2020-06-05T16:22:11.998Z</time>
      </trkpt>
      <trkpt lat="47.39762" lon="-2.21822">
        <ele>-5.232628</ele>
        <time>2020-06-05T16:22:13.998Z</time>
      </trkpt>
      <trkpt lat="47.39772" lon="-2.21824">
        <ele>-5.246146</ele>
        <time>2020-06-05T16:22:15.998Z</time>
      </trkpt>
      <trkpt lat="47.39782" lon="-2.21827">
        <ele>-5.259813</ele>
        <time>2020-06-05T16:22:17.998Z</time>
      </trkpt>
      <trkpt lat="47.39792" lon="-2.2183">
        <ele>-5.27333</ele>
        <time>2020-06-05T16:22:19.998Z</time>
      </trkpt>
      <trkpt lat="47.39806" lon="-2.21834">
        <ele>-5.2924</ele>
        <time>2020-06-05T16:22:22.998Z</time>
      </trkpt>
      <trkpt lat="47.39816" lon="-2.21837">
        <ele>-5.306283</ele>
        <time>2020-06-05T16:22:24.998Z</time>
      </trkpt>
      <trkpt lat="47.39825" lon="-2.21839">
        <ele>-5.319195</ele>
        <time>2020-06-05T16:22:26.998Z</time>
      </trkpt>
      <trkpt lat="47.39837" lon="-2.21842">
        <ele>-5.335817</ele>
        <time>2020-06-05T16:22:28.998Z</time>
      </trkpt>
      <trkpt lat="47.39851" lon="-2.21844">
        <ele>-5.353654</ele>
        <time>2020-06-05T16:22:30.998Z</time>
      </trkpt>
      <trkpt lat="47.39861" lon="-2.21846">
        <ele>-5.367628</ele>
        <time>2020-06-05T16:22:32.998Z</time>
      </trkpt>
      <trkpt lat="47.39873" lon="-2.2185">
        <ele>-5.384333</ele>
        <time>2020-06-05T16:22:34.998Z</time>
      </trkpt>
      <trkpt lat="47.39884" lon="-2.21854">
        <ele>-5.398849</ele>
        <time>2020-06-05T16:22:36.998Z</time>
      </trkpt>
      <trkpt lat="47.39896" lon="-2.21858">
        <ele>-5.403382</ele>
        <time>2020-06-05T16:22:38.998Z</time>
      </trkpt>
      <trkpt lat="47.39907" lon="-2.2186">
        <ele>-5.403984</ele>
        <time>2020-06-05T16:22:40.998Z</time>
      </trkpt>
      <trkpt lat="47.39917" lon="-2.21862">
        <ele>-5.404509</ele>
        <time>2020-06-05T16:22:42.998Z</time>
      </trkpt>
      <trkpt lat="47.3993" lon="-2.21864">
        <ele>-5.405134</ele>
        <time>2020-06-05T16:22:44.998Z</time>
      </trkpt>
      <trkpt lat="47.39943" lon="-2.21869">
        <ele>-5.405851</ele>
        <time>2020-06-05T16:22:46.998Z</time>
      </trkpt>
      <trkpt lat="47.39955" lon="-2.21873">
        <ele>-5.406491</ele>
        <time>2020-06-05T16:22:48.998Z</time>
      </trkpt>
      <trkpt lat="47.39967" lon="-2.21878">
        <ele>-5.407126</ele>
        <time>2020-06-05T16:22:50.998Z</time>
      </trkpt>
      <trkpt lat="47.39978" lon="-2.21881">
        <ele>-5.407666</ele>
        <time>2020-06-05T16:22:52.998Z</time>
      </trkpt>
      <trkpt lat="47.39989" lon="-2.21885">
        <ele>-5.408278</ele>
        <time>2020-06-05T16:22:54.998Z</time>
      </trkpt>
      <trkpt lat="47.40002" lon="-2.2189">
        <ele>-5.408957</ele>
        <time>2020-06-05T16:22:56.998Z</time>
      </trkpt>
      <trkpt lat="47.40014" lon="-2.21894">
        <ele>-5.409594</ele>
        <time>2020-06-05T16:22:58.998Z</time>
      </trkpt>
      <trkpt lat="47.40027" lon="-2.219">
        <ele>-5.410274</ele>
        <time>2020-06-05T16:23:00.998Z</time>
      </trkpt>
      <trkpt lat="47.40038" lon="-2.21905">
        <ele>-5.410864</ele>
        <time>2020-06-05T16:23:02.998Z</time>
      </trkpt>
      <trkpt lat="47.4005" lon="-2.21908">
        <ele>-5.411502</ele>
        <time>2020-06-05T16:23:04.998Z</time>
      </trkpt>
      <trkpt lat="47.40063" lon="-2.21911">
        <ele>-5.405397</ele>
        <time>2020-06-05T16:23:06.997Z</time>
      </trkpt>
      <trkpt lat="47.40074" lon="-2.21914">
        <ele>-5.287873</ele>
        <time>2020-06-05T16:23:08.997Z</time>
      </trkpt>
      <trkpt lat="47.40087" lon="-2.21918">
        <ele>-5.160344</ele>
        <time>2020-06-05T16:23:10.997Z</time>
      </trkpt>
      <trkpt lat="47.40099" lon="-2.21924">
        <ele>-5.032146</ele>
        <time>2020-06-05T16:23:12.997Z</time>
      </trkpt>
      <trkpt lat="47.40112" lon="-2.21928">
        <ele>-4.890212</ele>
        <time>2020-06-05T16:23:14.997Z</time>
      </trkpt>
      <trkpt lat="47.40126" lon="-2.21931">
        <ele>-4.754227</ele>
        <time>2020-06-05T16:23:16.997Z</time>
      </trkpt>
      <trkpt lat="47.40137" lon="-2.21935">
        <ele>-4.634027</ele>
        <time>2020-06-05T16:23:18.997Z</time>
      </trkpt>
      <trkpt lat="47.4015" lon="-2.21939">
        <ele>-4.50665</ele>
        <time>2020-06-05T16:23:20.997Z</time>
      </trkpt>
      <trkpt lat="47.40161" lon="-2.21942">
        <ele>-4.386323</ele>
        <time>2020-06-05T16:23:22.997Z</time>
      </trkpt>
      <trkpt lat="47.40174" lon="-2.21945">
        <ele>-4.2595</ele>
        <time>2020-06-05T16:23:24.997Z</time>
      </trkpt>
      <trkpt lat="47.40186" lon="-2.21949">
        <ele>-4.136887</ele>
        <time>2020-06-05T16:23:26.997Z</time>
      </trkpt>
      <trkpt lat="47.40197" lon="-2.21953">
        <ele>-4.015306</ele>
        <time>2020-06-05T16:23:28.997Z</time>
      </trkpt>
      <trkpt lat="47.40209" lon="-2.21958">
        <ele>-3.887618</ele>
        <time>2020-06-05T16:23:30.997Z</time>
      </trkpt>
      <trkpt lat="47.4022" lon="-2.21963">
        <ele>-3.777176</ele>
        <time>2020-06-05T16:23:32.997Z</time>
      </trkpt>
      <trkpt lat="47.4023" lon="-2.21967">
        <ele>-3.668476</ele>
        <time>2020-06-05T16:23:34.997Z</time>
      </trkpt>
      <trkpt lat="47.4024" lon="-2.21972">
        <ele>-3.652655</ele>
        <time>2020-06-05T16:23:36.997Z</time>
      </trkpt>
      <trkpt lat="47.4025" lon="-2.21978">
        <ele>-3.832493</ele>
        <time>2020-06-05T16:23:38.997Z</time>
      </trkpt>
      <trkpt lat="47.40259" lon="-2.21985">
        <ele>-4.004548</ele>
        <time>2020-06-05T16:23:40.997Z</time>
      </trkpt>
      <trkpt lat="47.40267" lon="-2.21993">
        <ele>-4.166723</ele>
        <time>2020-06-05T16:23:42.997Z</time>
      </trkpt>
      <trkpt lat="47.40275" lon="-2.22004">
        <ele>-4.362134</ele>
        <time>2020-06-05T16:23:44.997Z</time>
      </trkpt>
      <trkpt lat="47.40283" lon="-2.22015">
        <ele>-4.55167</ele>
        <time>2020-06-05T16:23:46.997Z</time>
      </trkpt>
      <trkpt lat="47.4029" lon="-2.22027">
        <ele>-4.742296</ele>
        <time>2020-06-05T16:23:48.997Z</time>
      </trkpt>
      <trkpt lat="47.40298" lon="-2.22037">
        <ele>-4.919138</ele>
        <time>2020-06-05T16:23:50.997Z</time>
      </trkpt>
      <trkpt lat="47.40304" lon="-2.22049">
        <ele>-5.095384</ele>
        <time>2020-06-05T16:23:52.997Z</time>
      </trkpt>
      <trkpt lat="47.40312" lon="-2.2206">
        <ele>-5.286917</ele>
        <time>2020-06-05T16:23:54.997Z</time>
      </trkpt>
      <trkpt lat="47.40319" lon="-2.22071">
        <ele>-5.457005</ele>
        <time>2020-06-05T16:23:56.996Z</time>
      </trkpt>
      <trkpt lat="47.40327" lon="-2.22083">
        <ele>-5.654781</ele>
        <time>2020-06-05T16:23:58.996Z</time>
      </trkpt>
      <trkpt lat="47.40336" lon="-2.22095">
        <ele>-5.859029</ele>
        <time>2020-06-05T16:24:00.996Z</time>
      </trkpt>
      <trkpt lat="47.40344" lon="-2.22107">
        <ele>-6.063277</ele>
        <time>2020-06-05T16:24:02.996Z</time>
      </trkpt>
      <trkpt lat="47.40354" lon="-2.22119">
        <ele>-6.278375</ele>
        <time>2020-06-05T16:24:05.996Z</time>
      </trkpt>
      <trkpt lat="47.40363" lon="-2.22132">
        <ele>-6.506126</ele>
        <time>2020-06-05T16:24:08.996Z</time>
      </trkpt>
      <trkpt lat="47.4037" lon="-2.22143">
        <ele>-6.670428</ele>
        <time>2020-06-05T16:24:10.996Z</time>
      </trkpt>
      <trkpt lat="47.40378" lon="-2.22155">
        <ele>-6.76438</ele>
        <time>2020-06-05T16:24:12.996Z</time>
      </trkpt>
      <trkpt lat="47.40385" lon="-2.22166">
        <ele>-6.834831</ele>
        <time>2020-06-05T16:24:14.996Z</time>
      </trkpt>
      <trkpt lat="47.40392" lon="-2.22178">
        <ele>-6.901443</ele>
        <time>2020-06-05T16:24:16.996Z</time>
      </trkpt>
      <trkpt lat="47.40398" lon="-2.2219">
        <ele>-6.967918</ele>
        <time>2020-06-05T16:24:18.996Z</time>
      </trkpt>
      <trkpt lat="47.40405" lon="-2.22202">
        <ele>-7.037801</ele>
        <time>2020-06-05T16:24:20.996Z</time>
      </trkpt>
      <trkpt lat="47.40414" lon="-2.22214">
        <ele>-7.115801</ele>
        <time>2020-06-05T16:24:22.996Z</time>
      </trkpt>
      <trkpt lat="47.40423" lon="-2.22226">
        <ele>-7.194277</ele>
        <time>2020-06-05T16:24:24.996Z</time>
      </trkpt>
      <trkpt lat="47.40431" lon="-2.22236">
        <ele>-7.263709</ele>
        <time>2020-06-05T16:24:26.996Z</time>
      </trkpt>
      <trkpt lat="47.40439" lon="-2.22247">
        <ele>-7.336539</ele>
        <time>2020-06-05T16:24:28.996Z</time>
      </trkpt>
      <trkpt lat="47.40448" lon="-2.22259">
        <ele>-7.413745</ele>
        <time>2020-06-05T16:24:30.996Z</time>
      </trkpt>
      <trkpt lat="47.40456" lon="-2.22271">
        <ele>-7.487894</ele>
        <time>2020-06-05T16:24:32.996Z</time>
      </trkpt>
      <trkpt lat="47.40465" lon="-2.22284">
        <ele>-7.566329</ele>
        <time>2020-06-05T16:24:34.996Z</time>
      </trkpt>
      <trkpt lat="47.40474" lon="-2.22296">
        <ele>-7.648023</ele>
        <time>2020-06-05T16:24:36.996Z</time>
      </trkpt>
      <trkpt lat="47.40483" lon="-2.22309">
        <ele>-7.726006</ele>
        <time>2020-06-05T16:24:38.996Z</time>
      </trkpt>
      <trkpt lat="47.4049" lon="-2.2232">
        <ele>-7.796115</ele>
        <time>2020-06-05T16:24:40.996Z</time>
      </trkpt>
      <trkpt lat="47.40499" lon="-2.22331">
        <ele>-7.868553</ele>
        <time>2020-06-05T16:24:42.996Z</time>
      </trkpt>
      <trkpt lat="47.40507" lon="-2.22344">
        <ele>-7.918907</ele>
        <time>2020-06-05T16:24:44.995Z</time>
      </trkpt>
      <trkpt lat="47.40516" lon="-2.22357">
        <ele>-7.970344</ele>
        <time>2020-06-05T16:24:46.995Z</time>
      </trkpt>
      <trkpt lat="47.40525" lon="-2.22371">
        <ele>-8.025955</ele>
        <time>2020-06-05T16:24:48.995Z</time>
      </trkpt>
      <trkpt lat="47.40534" lon="-2.22383">
        <ele>-8.07579</ele>
        <time>2020-06-05T16:24:50.995Z</time>
      </trkpt>
      <trkpt lat="47.40542" lon="-2.22396">
        <ele>-8.125445</ele>
        <time>2020-06-05T16:24:52.995Z</time>
      </trkpt>
      <trkpt lat="47.40549" lon="-2.22407">
        <ele>-8.169521</ele>
        <time>2020-06-05T16:24:54.995Z</time>
      </trkpt>
      <trkpt lat="47.40556" lon="-2.22418">
        <ele>-8.211808</ele>
        <time>2020-06-05T16:24:56.995Z</time>
      </trkpt>
      <trkpt lat="47.40563" lon="-2.22429">
        <ele>-8.253539</ele>
        <time>2020-06-05T16:24:58.995Z</time>
      </trkpt>
      <trkpt lat="47.40571" lon="-2.22439">
        <ele>-8.296577</ele>
        <time>2020-06-05T16:25:00.995Z</time>
      </trkpt>
      <trkpt lat="47.4058" lon="-2.22451">
        <ele>-8.349438</ele>
        <time>2020-06-05T16:25:03.995Z</time>
      </trkpt>
      <trkpt lat="47.40588" lon="-2.22462">
        <ele>-8.393854</ele>
        <time>2020-06-05T16:25:05.995Z</time>
      </trkpt>
      <trkpt lat="47.40595" lon="-2.2247">
        <ele>-8.433235</ele>
        <time>2020-06-05T16:25:07.995Z</time>
      </trkpt>
      <trkpt lat="47.40604" lon="-2.22481">
        <ele>-8.479226</ele>
        <time>2020-06-05T16:25:09.995Z</time>
      </trkpt>
      <trkpt lat="47.40611" lon="-2.22494">
        <ele>-8.529012</ele>
        <time>2020-06-05T16:25:11.995Z</time>
      </trkpt>
      <trkpt lat="47.40619" lon="-2.22506">
        <ele>-8.573616</ele>
        <time>2020-06-05T16:25:13.995Z</time>
      </trkpt>
      <trkpt lat="47.40626" lon="-2.22518">
        <ele>-8.619195</ele>
        <time>2020-06-05T16:25:15.995Z</time>
      </trkpt>
      <trkpt lat="47.40634" lon="-2.2253">
        <ele>-8.594106</ele>
        <time>2020-06-05T16:25:17.995Z</time>
      </trkpt>
      <trkpt lat="47.40641" lon="-2.22541">
        <ele>-8.569107</ele>
        <time>2020-06-05T16:25:19.995Z</time>
      </trkpt>
      <trkpt lat="47.40648" lon="-2.22554">
        <ele>-8.543616</ele>
        <time>2020-06-05T16:25:21.995Z</time>
      </trkpt>
      <trkpt lat="47.40656" lon="-2.22566">
        <ele>-8.516433</ele>
        <time>2020-06-05T16:25:23.995Z</time>
      </trkpt>
      <trkpt lat="47.40664" lon="-2.22578">
        <ele>-8.489415</ele>
        <time>2020-06-05T16:25:25.995Z</time>
      </trkpt>
      <trkpt lat="47.40671" lon="-2.22589">
        <ele>-8.465343</ele>
        <time>2020-06-05T16:25:27.995Z</time>
      </trkpt>
      <trkpt lat="47.40678" lon="-2.22601">
        <ele>-8.439057</ele>
        <time>2020-06-05T16:25:29.995Z</time>
      </trkpt>
      <trkpt lat="47.40685" lon="-2.22611">
        <ele>-8.416593</ele>
        <time>2020-06-05T16:25:31.995Z</time>
      </trkpt>
      <trkpt lat="47.40693" lon="-2.22622">
        <ele>-8.390911</ele>
        <time>2020-06-05T16:25:33.995Z</time>
      </trkpt>
      <trkpt lat="47.40702" lon="-2.22633">
        <ele>-8.362621</ele>
        <time>2020-06-05T16:25:35.994Z</time>
      </trkpt>
      <trkpt lat="47.40711" lon="-2.22646">
        <ele>-8.333472</ele>
        <time>2020-06-05T16:25:37.994Z</time>
      </trkpt>
      <trkpt lat="47.40717" lon="-2.22657">
        <ele>-8.310902</ele>
        <time>2020-06-05T16:25:39.994Z</time>
      </trkpt>
      <trkpt lat="47.40725" lon="-2.22668">
        <ele>-8.286243</ele>
        <time>2020-06-05T16:25:41.994Z</time>
      </trkpt>
      <trkpt lat="47.40734" lon="-2.2268">
        <ele>-8.256812</ele>
        <time>2020-06-05T16:25:44.994Z</time>
      </trkpt>
      <trkpt lat="47.40743" lon="-2.22694">
        <ele>-8.226492</ele>
        <time>2020-06-05T16:25:47.994Z</time>
      </trkpt>
      <trkpt lat="47.40751" lon="-2.22705">
        <ele>-8.200655</ele>
        <time>2020-06-05T16:25:50.994Z</time>
      </trkpt>
      <trkpt lat="47.40759" lon="-2.22716">
        <ele>-8.270944</ele>
        <time>2020-06-05T16:25:53.994Z</time>
      </trkpt>
      <trkpt lat="47.40766" lon="-2.22725">
        <ele>-8.35193</ele>
        <time>2020-06-05T16:25:55.994Z</time>
      </trkpt>
      <trkpt lat="47.40774" lon="-2.22736">
        <ele>-8.439431</ele>
        <time>2020-06-05T16:25:57.994Z</time>
      </trkpt>
      <trkpt lat="47.40781" lon="-2.22747">
        <ele>-8.523955</ele>
        <time>2020-06-05T16:25:59.994Z</time>
      </trkpt>
      <trkpt lat="47.40788" lon="-2.2276">
        <ele>-8.620169</ele>
        <time>2020-06-05T16:26:01.994Z</time>
      </trkpt>
      <trkpt lat="47.40797" lon="-2.22772">
        <ele>-8.71901</ele>
        <time>2020-06-05T16:26:03.994Z</time>
      </trkpt>
      <trkpt lat="47.40807" lon="-2.22785">
        <ele>-8.832376</ele>
        <time>2020-06-05T16:26:05.994Z</time>
      </trkpt>
      <trkpt lat="47.40815" lon="-2.22797">
        <ele>-8.928439</ele>
        <time>2020-06-05T16:26:07.994Z</time>
      </trkpt>
      <trkpt lat="47.40823" lon="-2.22809">
        <ele>-9.020712</ele>
        <time>2020-06-05T16:26:09.994Z</time>
      </trkpt>
      <trkpt lat="47.40832" lon="-2.22823">
        <ele>-9.129269</ele>
        <time>2020-06-05T16:26:11.994Z</time>
      </trkpt>
      <trkpt lat="47.40841" lon="-2.22835">
        <ele>-9.233094</ele>
        <time>2020-06-05T16:26:13.994Z</time>
      </trkpt>
      <trkpt lat="47.4085" lon="-2.22847">
        <ele>-9.337389</ele>
        <time>2020-06-05T16:26:15.994Z</time>
      </trkpt>
      <trkpt lat="47.40859" lon="-2.2286">
        <ele>-9.440242</ele>
        <time>2020-06-05T16:26:17.994Z</time>
      </trkpt>
      <trkpt lat="47.40867" lon="-2.22873">
        <ele>-9.541118</ele>
        <time>2020-06-05T16:26:19.994Z</time>
      </trkpt>
      <trkpt lat="47.40876" lon="-2.22888">
        <ele>-9.654098</ele>
        <time>2020-06-05T16:26:21.994Z</time>
      </trkpt>
      <trkpt lat="47.40885" lon="-2.22899">
        <ele>-9.688464</ele>
        <time>2020-06-05T16:26:23.994Z</time>
      </trkpt>
      <trkpt lat="47.40893" lon="-2.22911">
        <ele>-9.660793</ele>
        <time>2020-06-05T16:26:25.993Z</time>
      </trkpt>
      <trkpt lat="47.40902" lon="-2.22923">
        <ele>-9.630389</ele>
        <time>2020-06-05T16:26:27.993Z</time>
      </trkpt>
      <trkpt lat="47.40912" lon="-2.22936">
        <ele>-9.600447</ele>
        <time>2020-06-05T16:26:29.993Z</time>
      </trkpt>
      <trkpt lat="47.40921" lon="-2.22949">
        <ele>-9.570115</ele>
        <time>2020-06-05T16:26:31.993Z</time>
      </trkpt>
      <trkpt lat="47.4093" lon="-2.22964">
        <ele>-9.536754</ele>
        <time>2020-06-05T16:26:33.993Z</time>
      </trkpt>
      <trkpt lat="47.40939" lon="-2.22977">
        <ele>-9.507099</ele>
        <time>2020-06-05T16:26:35.993Z</time>
      </trkpt>
      <trkpt lat="47.40947" lon="-2.22989">
        <ele>-9.479262</ele>
        <time>2020-06-05T16:26:37.993Z</time>
      </trkpt>
      <trkpt lat="47.40955" lon="-2.23">
        <ele>-9.452516</ele>
        <time>2020-06-05T16:26:39.993Z</time>
      </trkpt>
      <trkpt lat="47.40964" lon="-2.23012">
        <ele>-9.424631</ele>
        <time>2020-06-05T16:26:41.993Z</time>
      </trkpt>
      <trkpt lat="47.40974" lon="-2.23023">
        <ele>-9.392959</ele>
        <time>2020-06-05T16:26:43.993Z</time>
      </trkpt>
      <trkpt lat="47.40985" lon="-2.23034">
        <ele>-9.361083</ele>
        <time>2020-06-05T16:26:45.993Z</time>
      </trkpt>
      <trkpt lat="47.40994" lon="-2.23043">
        <ele>-9.336257</ele>
        <time>2020-06-05T16:26:47.993Z</time>
      </trkpt>
      <trkpt lat="47.41001" lon="-2.23054">
        <ele>-9.310707</ele>
        <time>2020-06-05T16:26:49.993Z</time>
      </trkpt>
      <trkpt lat="47.41011" lon="-2.23065">
        <ele>-9.281836</ele>
        <time>2020-06-05T16:26:51.993Z</time>
      </trkpt>
      <trkpt lat="47.41021" lon="-2.23076">
        <ele>-9.161017</ele>
        <time>2020-06-05T16:26:53.993Z</time>
      </trkpt>
      <trkpt lat="47.41031" lon="-2.23089">
        <ele>-8.965209</ele>
        <time>2020-06-05T16:26:55.993Z</time>
      </trkpt>
      <trkpt lat="47.4104" lon="-2.231">
        <ele>-8.779816</ele>
        <time>2020-06-05T16:26:57.993Z</time>
      </trkpt>
      <trkpt lat="47.4105" lon="-2.23111">
        <ele>-8.600472</ele>
        <time>2020-06-05T16:26:59.993Z</time>
      </trkpt>
      <trkpt lat="47.41061" lon="-2.2312">
        <ele>-8.418354</ele>
        <time>2020-06-05T16:27:01.993Z</time>
      </trkpt>
      <trkpt lat="47.41071" lon="-2.23129">
        <ele>-8.243186</ele>
        <time>2020-06-05T16:27:03.993Z</time>
      </trkpt>
      <trkpt lat="47.41081" lon="-2.23137">
        <ele>-8.072322</ele>
        <time>2020-06-05T16:27:05.993Z</time>
      </trkpt>
      <trkpt lat="47.41093" lon="-2.23144">
        <ele>-7.892114</ele>
        <time>2020-06-05T16:27:07.993Z</time>
      </trkpt>
      <trkpt lat="47.41105" lon="-2.23153">
        <ele>-7.69163</ele>
        <time>2020-06-05T16:27:09.993Z</time>
      </trkpt>
      <trkpt lat="47.41117" lon="-2.23161">
        <ele>-7.499102</ele>
        <time>2020-06-05T16:27:11.993Z</time>
      </trkpt>
      <trkpt lat="47.41127" lon="-2.23169">
        <ele>-7.329907</ele>
        <time>2020-06-05T16:27:13.993Z</time>
      </trkpt>
      <trkpt lat="47.41138" lon="-2.23178">
        <ele>-7.142968</ele>
        <time>2020-06-05T16:27:15.992Z</time>
      </trkpt>
      <trkpt lat="47.41148" lon="-2.23187">
        <ele>-6.966023</ele>
        <time>2020-06-05T16:27:17.992Z</time>
      </trkpt>
      <trkpt lat="47.41159" lon="-2.23195">
        <ele>-6.79337</ele>
        <time>2020-06-05T16:27:19.992Z</time>
      </trkpt>
      <trkpt lat="47.41169" lon="-2.23203">
        <ele>-6.616425</ele>
        <time>2020-06-05T16:27:21.992Z</time>
      </trkpt>
      <trkpt lat="47.41177" lon="-2.2321">
        <ele>-6.501825</ele>
        <time>2020-06-05T16:27:23.992Z</time>
      </trkpt>
      <trkpt lat="47.41188" lon="-2.23218">
        <ele>-6.353771</ele>
        <time>2020-06-05T16:27:25.992Z</time>
      </trkpt>
      <trkpt lat="47.41199" lon="-2.23226">
        <ele>-6.198246</ele>
        <time>2020-06-05T16:27:27.992Z</time>
      </trkpt>
      <trkpt lat="47.41209" lon="-2.23233">
        <ele>-6.050217</ele>
        <time>2020-06-05T16:27:29.992Z</time>
      </trkpt>
      <trkpt lat="47.4122" lon="-2.2324">
        <ele>-5.90012</ele>
        <time>2020-06-05T16:27:31.992Z</time>
      </trkpt>
      <trkpt lat="47.41232" lon="-2.23249">
        <ele>-5.732229</ele>
        <time>2020-06-05T16:27:33.992Z</time>
      </trkpt>
      <trkpt lat="47.41243" lon="-2.23256">
        <ele>-5.587515</ele>
        <time>2020-06-05T16:27:35.992Z</time>
      </trkpt>
      <trkpt lat="47.41253" lon="-2.23265">
        <ele>-5.437878</ele>
        <time>2020-06-05T16:27:37.992Z</time>
      </trkpt>
      <trkpt lat="47.41263" lon="-2.23272">
        <ele>-5.300334</ele>
        <time>2020-06-05T16:27:39.992Z</time>
      </trkpt>
      <trkpt lat="47.41273" lon="-2.23278">
        <ele>-5.169486</ele>
        <time>2020-06-05T16:27:41.992Z</time>
      </trkpt>
      <trkpt lat="47.41283" lon="-2.23286">
        <ele>-5.028345</ele>
        <time>2020-06-05T16:27:43.992Z</time>
      </trkpt>
      <trkpt lat="47.41294" lon="-2.23296">
        <ele>-4.858024</ele>
        <time>2020-06-05T16:27:45.992Z</time>
      </trkpt>
      <trkpt lat="47.41305" lon="-2.23304">
        <ele>-4.70811</ele>
        <time>2020-06-05T16:27:47.992Z</time>
      </trkpt>
      <trkpt lat="47.41318" lon="-2.23309">
        <ele>-4.537202</ele>
        <time>2020-06-05T16:27:49.992Z</time>
      </trkpt>
      <trkpt lat="47.41329" lon="-2.23314">
        <ele>-4.397024</ele>
        <time>2020-06-05T16:27:51.992Z</time>
      </trkpt>
      <trkpt lat="47.4134" lon="-2.23316">
        <ele>-4.247649</ele>
        <time>2020-06-05T16:27:53.992Z</time>
      </trkpt>
      <trkpt lat="47.4135" lon="-2.23319">
        <ele>-4.11529</ele>
        <time>2020-06-05T16:27:55.992Z</time>
      </trkpt>
      <trkpt lat="47.4136" lon="-2.23324">
        <ele>-3.975327</ele>
        <time>2020-06-05T16:27:57.992Z</time>
      </trkpt>
      <trkpt lat="47.41369" lon="-2.23333">
        <ele>-3.838982</ele>
        <time>2020-06-05T16:27:59.992Z</time>
      </trkpt>
      <trkpt lat="47.4137" lon="-2.23348">
        <ele>-3.703985</ele>
        <time>2020-06-05T16:28:01.992Z</time>
      </trkpt>
      <trkpt lat="47.41375" lon="-2.23361">
        <ele>-3.573827</ele>
        <time>2020-06-05T16:28:03.991Z</time>
      </trkpt>
      <trkpt lat="47.41382" lon="-2.23372">
        <ele>-3.431997</ele>
        <time>2020-06-05T16:28:05.991Z</time>
      </trkpt>
      <trkpt lat="47.41391" lon="-2.23381">
        <ele>-3.296191</ele>
        <time>2020-06-05T16:28:07.991Z</time>
      </trkpt>
      <trkpt lat="47.41399" lon="-2.23388">
        <ele>-3.164159</ele>
        <time>2020-06-05T16:28:09.993Z</time>
      </trkpt>
      <trkpt lat="47.41407" lon="-2.23395">
        <ele>-3.042383</ele>
        <time>2020-06-05T16:28:11.994Z</time>
      </trkpt>
      <trkpt lat="47.41418" lon="-2.23405">
        <ele>-2.876798</ele>
        <time>2020-06-05T16:28:14.995Z</time>
      </trkpt>
      <trkpt lat="47.41426" lon="-2.23412">
        <ele>-2.753429</ele>
        <time>2020-06-05T16:28:16.995Z</time>
      </trkpt>
      <trkpt lat="47.41434" lon="-2.23418">
        <ele>-2.6305</ele>
        <time>2020-06-05T16:28:18.996Z</time>
      </trkpt>
      <trkpt lat="47.41445" lon="-2.23426">
        <ele>-2.472098</ele>
        <time>2020-06-05T16:28:21.997Z</time>
      </trkpt>
      <trkpt lat="47.41454" lon="-2.23436">
        <ele>-2.317114</ele>
        <time>2020-06-05T16:28:24.997Z</time>
      </trkpt>
      <trkpt lat="47.41464" lon="-2.23446">
        <ele>-2.158081</ele>
        <time>2020-06-05T16:28:27.998Z</time>
      </trkpt>
      <trkpt lat="47.41475" lon="-2.23454">
        <ele>-1.995283</ele>
        <time>2020-06-05T16:28:30.998Z</time>
      </trkpt>
      <trkpt lat="47.41484" lon="-2.23462">
        <ele>-1.877078</ele>
        <time>2020-06-05T16:28:32.998Z</time>
      </trkpt>
      <trkpt lat="47.41494" lon="-2.23468">
        <ele>-1.748979</ele>
        <time>2020-06-05T16:28:34.998Z</time>
      </trkpt>
      <trkpt lat="47.41503" lon="-2.23473">
        <ele>-1.637594</ele>
        <time>2020-06-05T16:28:36.998Z</time>
      </trkpt>
      <trkpt lat="47.41516" lon="-2.23479">
        <ele>-1.477326</ele>
        <time>2020-06-05T16:28:39.999Z</time>
      </trkpt>
      <trkpt lat="47.41526" lon="-2.23483">
        <ele>-1.357126</ele>
        <time>2020-06-05T16:28:41.999Z</time>
      </trkpt>
      <trkpt lat="47.41535" lon="-2.23486">
        <ele>-1.246011</ele>
        <time>2020-06-05T16:28:43.999Z</time>
      </trkpt>
      <trkpt lat="47.41544" lon="-2.23492">
        <ele>-1.126382</ele>
        <time>2020-06-05T16:28:45.999Z</time>
      </trkpt>
      <trkpt lat="47.41557" lon="-2.23494">
        <ele>-0.979049</ele>
        <time>2020-06-05T16:28:48.999Z</time>
      </trkpt>
      <trkpt lat="47.41569" lon="-2.23499">
        <ele>-0.828569</ele>
        <time>2020-06-05T16:28:51.999Z</time>
      </trkpt>
      <trkpt lat="47.41579" lon="-2.23502">
        <ele>-0.712917</ele>
        <time>2020-06-05T16:28:54.999Z</time>
      </trkpt>
      <trkpt lat="47.41587" lon="-2.23509">
        <ele>-0.60051</ele>
        <time>2020-06-05T16:28:59.999Z</time>
      </trkpt>
      <trkpt lat="47.41577" lon="-2.23506">
        <ele>-0.470528</ele>
        <time>2020-06-05T16:29:05.999Z</time>
      </trkpt>
      <trkpt lat="47.41567" lon="-2.23502">
        <ele>-0.350485</ele>
        <time>2020-06-05T16:29:07.999Z</time>
      </trkpt>
      <trkpt lat="47.41558" lon="-2.23498">
        <ele>-0.240785</ele>
        <time>2020-06-05T16:29:12.999Z</time>
      </trkpt>
      <trkpt lat="47.41571" lon="-2.235">
        <ele>-0.081746</ele>
        <time>2020-06-05T16:33:55.993Z</time>
      </trkpt>
      <trkpt lat="47.4158" lon="-2.23503">
        <ele>0.026166</ele>
        <time>2020-06-05T16:33:58.993Z</time>
      </trkpt>
      <trkpt lat="47.4159" lon="-2.23505">
        <ele>0.176759</ele>
        <time>2020-06-05T16:34:01.993Z</time>
      </trkpt>
      <trkpt lat="47.41601" lon="-2.23507">
        <ele>0.52371</ele>
        <time>2020-06-05T16:34:04.993Z</time>
      </trkpt>
      <trkpt lat="47.41612" lon="-2.23511">
        <ele>0.904122</ele>
        <time>2020-06-05T16:34:07.993Z</time>
      </trkpt>
      <trkpt lat="47.41625" lon="-2.23516">
        <ele>1.322122</ele>
        <time>2020-06-05T16:34:10.993Z</time>
      </trkpt>
      <trkpt lat="47.41638" lon="-2.2352">
        <ele>1.746401</ele>
        <time>2020-06-05T16:34:13.993Z</time>
      </trkpt>
      <trkpt lat="47.41648" lon="-2.23524">
        <ele>2.102613</ele>
        <time>2020-06-05T16:34:16.993Z</time>
      </trkpt>
      <trkpt lat="47.41661" lon="-2.23529">
        <ele>2.527382</ele>
        <time>2020-06-05T16:34:19.993Z</time>
      </trkpt>
      <trkpt lat="47.41673" lon="-2.23533">
        <ele>2.923872</ele>
        <time>2020-06-05T16:34:22.993Z</time>
      </trkpt>
      <trkpt lat="47.41685" lon="-2.23536">
        <ele>3.313013</ele>
        <time>2020-06-05T16:34:25.992Z</time>
      </trkpt>
      <trkpt lat="47.41698" lon="-2.23536">
        <ele>3.746329</ele>
        <time>2020-06-05T16:34:28.992Z</time>
      </trkpt>
      <trkpt lat="47.41711" lon="-2.23534">
        <ele>4.146794</ele>
        <time>2020-06-05T16:34:31.992Z</time>
      </trkpt>
      <trkpt lat="47.41723" lon="-2.2353">
        <ele>4.556116</ele>
        <time>2020-06-05T16:34:34.992Z</time>
      </trkpt>
      <trkpt lat="47.41735" lon="-2.23525">
        <ele>4.975845</ele>
        <time>2020-06-05T16:34:37.992Z</time>
      </trkpt>
      <trkpt lat="47.41745" lon="-2.23521">
        <ele>5.282712</ele>
        <time>2020-06-05T16:34:39.992Z</time>
      </trkpt>
      <trkpt lat="47.41754" lon="-2.23518">
        <ele>5.582965</ele>
        <time>2020-06-05T16:34:41.992Z</time>
      </trkpt>
      <trkpt lat="47.41763" lon="-2.23514">
        <ele>5.899138</ele>
        <time>2020-06-05T16:34:43.992Z</time>
      </trkpt>
      <trkpt lat="47.41772" lon="-2.2351">
        <ele>5.701931</ele>
        <time>2020-06-05T16:34:45.992Z</time>
      </trkpt>
      <trkpt lat="47.41784" lon="-2.23505">
        <ele>5.297732</ele>
        <time>2020-06-05T16:34:48.992Z</time>
      </trkpt>
      <trkpt lat="47.41797" lon="-2.23497">
        <ele>4.885912</ele>
        <time>2020-06-05T16:34:51.992Z</time>
      </trkpt>
      <trkpt lat="47.41806" lon="-2.23494">
        <ele>4.585314</ele>
        <time>2020-06-05T16:34:53.992Z</time>
      </trkpt>
      <trkpt lat="47.41815" lon="-2.23489">
        <ele>4.300379</ele>
        <time>2020-06-05T16:34:55.992Z</time>
      </trkpt>
      <trkpt lat="47.41825" lon="-2.23485">
        <ele>3.999031</ele>
        <time>2020-06-05T16:34:57.992Z</time>
      </trkpt>
      <trkpt lat="47.41834" lon="-2.23482">
        <ele>3.717653</ele>
        <time>2020-06-05T16:34:59.992Z</time>
      </trkpt>
      <trkpt lat="47.41844" lon="-2.23479">
        <ele>3.407988</ele>
        <time>2020-06-05T16:35:01.992Z</time>
      </trkpt>
      <trkpt lat="47.41853" lon="-2.23478">
        <ele>3.119168</ele>
        <time>2020-06-05T16:35:03.992Z</time>
      </trkpt>
      <trkpt lat="47.41867" lon="-2.23477">
        <ele>2.695239</ele>
        <time>2020-06-05T16:35:06.992Z</time>
      </trkpt>
      <trkpt lat="47.41876" lon="-2.23481">
        <ele>2.415634</ele>
        <time>2020-06-05T16:35:08.992Z</time>
      </trkpt>
      <trkpt lat="47.41885" lon="-2.23485">
        <ele>2.131807</ele>
        <time>2020-06-05T16:35:10.992Z</time>
      </trkpt>
      <trkpt lat="47.41894" lon="-2.23489">
        <ele>1.845589</ele>
        <time>2020-06-05T16:35:12.992Z</time>
      </trkpt>
      <trkpt lat="47.41904" lon="-2.23493">
        <ele>1.51678</ele>
        <time>2020-06-05T16:35:15.994Z</time>
      </trkpt>
      <trkpt lat="47.41915" lon="-2.23498">
        <ele>1.163339</ele>
        <time>2020-06-05T16:35:18.994Z</time>
      </trkpt>
      <trkpt lat="47.41926" lon="-2.23502">
        <ele>0.823484</ele>
        <time>2020-06-05T16:35:21.995Z</time>
      </trkpt>
      <trkpt lat="47.41936" lon="-2.23507">
        <ele>0.502349</ele>
        <time>2020-06-05T16:35:24.996Z</time>
      </trkpt>
      <trkpt lat="47.41946" lon="-2.23512">
        <ele>0.221183</ele>
        <time>2020-06-05T16:35:27.997Z</time>
      </trkpt>
      <trkpt lat="47.41955" lon="-2.23519">
        <ele>-0.043575</ele>
        <time>2020-06-05T16:35:31.998Z</time>
      </trkpt>
      <trkpt lat="47.41964" lon="-2.23525">
        <ele>-0.291899</ele>
        <time>2020-06-05T16:35:37.998Z</time>
      </trkpt>
      <trkpt lat="47.41972" lon="-2.23534">
        <ele>-0.561374</ele>
        <time>2020-06-05T16:35:43.999Z</time>
      </trkpt>
      <trkpt lat="47.4198" lon="-2.2354">
        <ele>-0.796623</ele>
        <time>2020-06-05T16:35:46.999Z</time>
      </trkpt>
      <trkpt lat="47.41989" lon="-2.23549">
        <ele>-1.079619</ele>
        <time>2020-06-05T16:35:50.999Z</time>
      </trkpt>
      <trkpt lat="47.41996" lon="-2.2356">
        <ele>-1.331648</ele>
        <time>2020-06-05T16:35:54.999Z</time>
      </trkpt>
      <trkpt lat="47.42006" lon="-2.23567">
        <ele>-1.623469</ele>
        <time>2020-06-05T16:35:58.999Z</time>
      </trkpt>
      <trkpt lat="47.42015" lon="-2.23576">
        <ele>-1.902197</ele>
        <time>2020-06-05T16:36:01.999Z</time>
      </trkpt>
      <trkpt lat="47.42025" lon="-2.23586">
        <ele>-2.21479</ele>
        <time>2020-06-05T16:36:04.999Z</time>
      </trkpt>
      <trkpt lat="47.42033" lon="-2.23593">
        <ele>-2.449066</ele>
        <time>2020-06-05T16:36:06.999Z</time>
      </trkpt>
      <trkpt lat="47.42041" lon="-2.23601">
        <ele>-2.70914</ele>
        <time>2020-06-05T16:36:08.999Z</time>
      </trkpt>
      <trkpt lat="47.42049" lon="-2.23609">
        <ele>-2.951402</ele>
        <time>2020-06-05T16:36:10.999Z</time>
      </trkpt>
      <trkpt lat="47.42059" lon="-2.2362">
        <ele>-3.271998</ele>
        <time>2020-06-05T16:36:13.999Z</time>
      </trkpt>
      <trkpt lat="47.4207" lon="-2.23629">
        <ele>-3.612502</ele>
        <time>2020-06-05T16:36:16.999Z</time>
      </trkpt>
      <trkpt lat="47.42078" lon="-2.23638">
        <ele>-3.875564</ele>
        <time>2020-06-05T16:36:18.999Z</time>
      </trkpt>
      <trkpt lat="47.42086" lon="-2.23646">
        <ele>-4.120957</ele>
        <time>2020-06-05T16:36:20.999Z</time>
      </trkpt>
      <trkpt lat="47.42094" lon="-2.23654">
        <ele>-4.188165</ele>
        <time>2020-06-05T16:36:22.999Z</time>
      </trkpt>
      <trkpt lat="47.42106" lon="-2.23664">
        <ele>-4.131231</ele>
        <time>2020-06-05T16:36:25.999Z</time>
      </trkpt>
      <trkpt lat="47.42115" lon="-2.23672">
        <ele>-4.086335</ele>
        <time>2020-06-05T16:36:27.999Z</time>
      </trkpt>
      <trkpt lat="47.42123" lon="-2.2368">
        <ele>-4.047624</ele>
        <time>2020-06-05T16:36:29.999Z</time>
      </trkpt>
      <trkpt lat="47.42131" lon="-2.23687">
        <ele>-4.009577</ele>
        <time>2020-06-05T16:36:31.999Z</time>
      </trkpt>
      <trkpt lat="47.42139" lon="-2.23694">
        <ele>-3.969389</ele>
        <time>2020-06-05T16:36:33.999Z</time>
      </trkpt>
      <trkpt lat="47.42148" lon="-2.237">
        <ele>-3.928329</ele>
        <time>2020-06-05T16:36:35.999Z</time>
      </trkpt>
      <trkpt lat="47.42156" lon="-2.23708">
        <ele>-3.887667</ele>
        <time>2020-06-05T16:36:37.998Z</time>
      </trkpt>
      <trkpt lat="47.42165" lon="-2.23716">
        <ele>-3.844195</ele>
        <time>2020-06-05T16:36:39.998Z</time>
      </trkpt>
      <trkpt lat="47.42175" lon="-2.23723">
        <ele>-3.79951</ele>
        <time>2020-06-05T16:36:41.998Z</time>
      </trkpt>
      <trkpt lat="47.42183" lon="-2.2373">
        <ele>-3.758139</ele>
        <time>2020-06-05T16:36:43.998Z</time>
      </trkpt>
      <trkpt lat="47.42192" lon="-2.23738">
        <ele>-3.715902</ele>
        <time>2020-06-05T16:36:45.998Z</time>
      </trkpt>
      <trkpt lat="47.42201" lon="-2.23746">
        <ele>-3.671396</ele>
        <time>2020-06-05T16:36:47.998Z</time>
      </trkpt>
      <trkpt lat="47.42208" lon="-2.23759">
        <ele>-3.623242</ele>
        <time>2020-06-05T16:36:49.998Z</time>
      </trkpt>
      <trkpt lat="47.42217" lon="-2.23768">
        <ele>-3.578795</ele>
        <time>2020-06-05T16:36:51.998Z</time>
      </trkpt>
      <trkpt lat="47.42226" lon="-2.23774">
        <ele>-3.536323</ele>
        <time>2020-06-05T16:36:53.998Z</time>
      </trkpt>
      <trkpt lat="47.42236" lon="-2.23781">
        <ele>-3.490133</ele>
        <time>2020-06-05T16:36:55.998Z</time>
      </trkpt>
      <trkpt lat="47.42245" lon="-2.23791">
        <ele>-3.476045</ele>
        <time>2020-06-05T16:36:57.998Z</time>
      </trkpt>
      <trkpt lat="47.42254" lon="-2.23799">
        <ele>-3.517118</ele>
        <time>2020-06-05T16:36:59.998Z</time>
      </trkpt>
      <trkpt lat="47.42263" lon="-2.23807">
        <ele>-3.555388</ele>
        <time>2020-06-05T16:37:01.998Z</time>
      </trkpt>
      <trkpt lat="47.42271" lon="-2.23814">
        <ele>-3.589085</ele>
        <time>2020-06-05T16:37:03.998Z</time>
      </trkpt>
      <trkpt lat="47.4228" lon="-2.23819">
        <ele>-3.623601</ele>
        <time>2020-06-05T16:37:05.998Z</time>
      </trkpt>
      <trkpt lat="47.42288" lon="-2.23825">
        <ele>-3.658381</ele>
        <time>2020-06-05T16:37:07.998Z</time>
      </trkpt>
      <trkpt lat="47.42298" lon="-2.2383">
        <ele>-3.695737</ele>
        <time>2020-06-05T16:37:09.998Z</time>
      </trkpt>
      <trkpt lat="47.42307" lon="-2.23835">
        <ele>-3.73275</ele>
        <time>2020-06-05T16:37:11.998Z</time>
      </trkpt>
      <trkpt lat="47.42315" lon="-2.23842">
        <ele>-3.767087</ele>
        <time>2020-06-05T16:37:13.998Z</time>
      </trkpt>
      <trkpt lat="47.42324" lon="-2.23845">
        <ele>-3.801118</ele>
        <time>2020-06-05T16:37:15.998Z</time>
      </trkpt>
      <trkpt lat="47.42337" lon="-2.23849">
        <ele>-3.849531</ele>
        <time>2020-06-05T16:37:18.998Z</time>
      </trkpt>
      <trkpt lat="47.42347" lon="-2.23852">
        <ele>-3.885962</ele>
        <time>2020-06-05T16:37:20.998Z</time>
      </trkpt>
      <trkpt lat="47.42357" lon="-2.23856">
        <ele>-3.924338</ele>
        <time>2020-06-05T16:37:22.998Z</time>
      </trkpt>
      <trkpt lat="47.42366" lon="-2.23859">
        <ele>-3.960222</ele>
        <time>2020-06-05T16:37:24.998Z</time>
      </trkpt>
      <trkpt lat="47.42376" lon="-2.23861">
        <ele>-3.998704</ele>
        <time>2020-06-05T16:37:26.997Z</time>
      </trkpt>
      <trkpt lat="47.42386" lon="-2.23863">
        <ele>-4.035056</ele>
        <time>2020-06-05T16:37:28.997Z</time>
      </trkpt>
      <trkpt lat="47.42399" lon="-2.23866">
        <ele>-4.085338</ele>
        <time>2020-06-05T16:37:31.997Z</time>
      </trkpt>
      <trkpt lat="47.42409" lon="-2.23869">
        <ele>-4.12107</ele>
        <time>2020-06-05T16:37:33.997Z</time>
      </trkpt>
      <trkpt lat="47.42419" lon="-2.23873">
        <ele>-3.933448</ele>
        <time>2020-06-05T16:37:35.997Z</time>
      </trkpt>
      <trkpt lat="47.42429" lon="-2.23876">
        <ele>-3.689544</ele>
        <time>2020-06-05T16:37:37.997Z</time>
      </trkpt>
      <trkpt lat="47.42439" lon="-2.2388">
        <ele>-3.450485</ele>
        <time>2020-06-05T16:37:39.997Z</time>
      </trkpt>
      <trkpt lat="47.42449" lon="-2.23884">
        <ele>-3.215489</ele>
        <time>2020-06-05T16:37:41.997Z</time>
      </trkpt>
      <trkpt lat="47.42458" lon="-2.23888">
        <ele>-2.98134</ele>
        <time>2020-06-05T16:37:43.997Z</time>
      </trkpt>
      <trkpt lat="47.42468" lon="-2.23893">
        <ele>-2.74357</ele>
        <time>2020-06-05T16:37:45.997Z</time>
      </trkpt>
      <trkpt lat="47.42479" lon="-2.23896">
        <ele>-2.484408</ele>
        <time>2020-06-05T16:37:47.997Z</time>
      </trkpt>
      <trkpt lat="47.42488" lon="-2.239">
        <ele>-2.262733</ele>
        <time>2020-06-05T16:37:49.997Z</time>
      </trkpt>
      <trkpt lat="47.42498" lon="-2.23905">
        <ele>-2.02458</ele>
        <time>2020-06-05T16:37:51.997Z</time>
      </trkpt>
      <trkpt lat="47.42509" lon="-2.23909">
        <ele>-1.761802</ele>
        <time>2020-06-05T16:37:53.997Z</time>
      </trkpt>
      <trkpt lat="47.42518" lon="-2.23913">
        <ele>-1.526806</ele>
        <time>2020-06-05T16:37:55.997Z</time>
      </trkpt>
      <trkpt lat="47.42528" lon="-2.23917">
        <ele>-1.297229</ele>
        <time>2020-06-05T16:37:57.997Z</time>
      </trkpt>
      <trkpt lat="47.42537" lon="-2.2392">
        <ele>-1.07062</ele>
        <time>2020-06-05T16:37:59.997Z</time>
      </trkpt>
      <trkpt lat="47.42547" lon="-2.23925">
        <ele>-0.83948</ele>
        <time>2020-06-05T16:38:01.997Z</time>
      </trkpt>
      <trkpt lat="47.42556" lon="-2.23929">
        <ele>-0.616949</ele>
        <time>2020-06-05T16:38:03.997Z</time>
      </trkpt>
      <trkpt lat="47.42565" lon="-2.23934">
        <ele>-0.390701</ele>
        <time>2020-06-05T16:38:05.997Z</time>
      </trkpt>
      <trkpt lat="47.42575" lon="-2.23938">
        <ele>-0.154304</ele>
        <time>2020-06-05T16:38:07.997Z</time>
      </trkpt>
      <trkpt lat="47.42584" lon="-2.23944">
        <ele>0.054502</ele>
        <time>2020-06-05T16:38:09.997Z</time>
      </trkpt>
      <trkpt lat="47.42593" lon="-2.23948">
        <ele>-0.02878</ele>
        <time>2020-06-05T16:38:11.996Z</time>
      </trkpt>
      <trkpt lat="47.42602" lon="-2.23955">
        <ele>-0.109934</ele>
        <time>2020-06-05T16:38:13.996Z</time>
      </trkpt>
      <trkpt lat="47.4261" lon="-2.23963">
        <ele>-0.190435</ele>
        <time>2020-06-05T16:38:15.996Z</time>
      </trkpt>
      <trkpt lat="47.42618" lon="-2.23973">
        <ele>-0.281991</ele>
        <time>2020-06-05T16:38:17.996Z</time>
      </trkpt>
      <trkpt lat="47.42625" lon="-2.23982">
        <ele>-0.364868</ele>
        <time>2020-06-05T16:38:19.996Z</time>
      </trkpt>
      <trkpt lat="47.42633" lon="-2.23993">
        <ele>-0.454599</ele>
        <time>2020-06-05T16:38:21.996Z</time>
      </trkpt>
      <trkpt lat="47.4264" lon="-2.24006">
        <ele>-0.548603</ele>
        <time>2020-06-05T16:38:23.996Z</time>
      </trkpt>
      <trkpt lat="47.42647" lon="-2.2402">
        <ele>-0.64748</ele>
        <time>2020-06-05T16:38:25.996Z</time>
      </trkpt>
      <trkpt lat="47.42653" lon="-2.24034">
        <ele>-0.743456</ele>
        <time>2020-06-05T16:38:27.996Z</time>
      </trkpt>
      <trkpt lat="47.42659" lon="-2.24048">
        <ele>-0.838986</ele>
        <time>2020-06-05T16:38:29.996Z</time>
      </trkpt>
      <trkpt lat="47.42664" lon="-2.24062">
        <ele>-0.932868</ele>
        <time>2020-06-05T16:38:31.996Z</time>
      </trkpt>
      <trkpt lat="47.4267" lon="-2.24076">
        <ele>-1.024685</ele>
        <time>2020-06-05T16:38:33.996Z</time>
      </trkpt>
      <trkpt lat="47.42675" lon="-2.2409">
        <ele>-1.113824</ele>
        <time>2020-06-05T16:38:35.996Z</time>
      </trkpt>
      <trkpt lat="47.4268" lon="-2.24103">
        <ele>-1.200548</ele>
        <time>2020-06-05T16:38:37.996Z</time>
      </trkpt>
      <trkpt lat="47.42685" lon="-2.24117">
        <ele>-1.290601</ele>
        <time>2020-06-05T16:38:39.996Z</time>
      </trkpt>
      <trkpt lat="47.42689" lon="-2.24131">
        <ele>-1.375923</ele>
        <time>2020-06-05T16:38:41.996Z</time>
      </trkpt>
      <trkpt lat="47.42693" lon="-2.24144">
        <ele>-1.461461</ele>
        <time>2020-06-05T16:38:43.996Z</time>
      </trkpt>
      <trkpt lat="47.42698" lon="-2.24157">
        <ele>-1.132296</ele>
        <time>2020-06-05T16:38:45.996Z</time>
      </trkpt>
      <trkpt lat="47.42703" lon="-2.24169">
        <ele>-0.820507</ele>
        <time>2020-06-05T16:38:47.996Z</time>
      </trkpt>
      <trkpt lat="47.42708" lon="-2.24181">
        <ele>-0.499657</ele>
        <time>2020-06-05T16:38:49.996Z</time>
      </trkpt>
      <trkpt lat="47.42712" lon="-2.24193">
        <ele>-0.194361</ele>
        <time>2020-06-05T16:38:51.996Z</time>
      </trkpt>
      <trkpt lat="47.42716" lon="-2.24208">
        <ele>0.15202</ele>
        <time>2020-06-05T16:38:53.996Z</time>
      </trkpt>
      <trkpt lat="47.4272" lon="-2.2422">
        <ele>0.47686</ele>
        <time>2020-06-05T16:38:55.996Z</time>
      </trkpt>
      <trkpt lat="47.42726" lon="-2.24234">
        <ele>0.831401</ele>
        <time>2020-06-05T16:38:57.995Z</time>
      </trkpt>
      <trkpt lat="47.42731" lon="-2.24247">
        <ele>1.182633</ele>
        <time>2020-06-05T16:38:59.995Z</time>
      </trkpt>
      <trkpt lat="47.42736" lon="-2.24261">
        <ele>1.536599</ele>
        <time>2020-06-05T16:39:01.995Z</time>
      </trkpt>
      <trkpt lat="47.42741" lon="-2.24276">
        <ele>1.902142</ele>
        <time>2020-06-05T16:39:03.995Z</time>
      </trkpt>
      <trkpt lat="47.42744" lon="-2.24293">
        <ele>2.297772</ele>
        <time>2020-06-05T16:39:05.995Z</time>
      </trkpt>
      <trkpt lat="47.42746" lon="-2.2431">
        <ele>2.685323</ele>
        <time>2020-06-05T16:39:07.995Z</time>
      </trkpt>
      <trkpt lat="47.42748" lon="-2.24327">
        <ele>3.088893</ele>
        <time>2020-06-05T16:39:09.995Z</time>
      </trkpt>
      <trkpt lat="47.42752" lon="-2.24344">
        <ele>3.49003</ele>
        <time>2020-06-05T16:39:11.995Z</time>
      </trkpt>
      <trkpt lat="47.42756" lon="-2.2436">
        <ele>3.856107</ele>
        <time>2020-06-05T16:39:13.995Z</time>
      </trkpt>
      <trkpt lat="47.4276" lon="-2.24372">
        <ele>4.171419</ele>
        <time>2020-06-05T16:39:15.995Z</time>
      </trkpt>
      <trkpt lat="47.42766" lon="-2.24383">
        <ele>4.47784</ele>
        <time>2020-06-05T16:39:17.995Z</time>
      </trkpt>
      <trkpt lat="47.42772" lon="-2.24393">
        <ele>4.437806</ele>
        <time>2020-06-05T16:39:19.995Z</time>
      </trkpt>
      <trkpt lat="47.42781" lon="-2.24405">
        <ele>4.303903</ele>
        <time>2020-06-05T16:39:22.995Z</time>
      </trkpt>
      <trkpt lat="47.4279" lon="-2.24419">
        <ele>4.15758</ele>
        <time>2020-06-05T16:39:25.995Z</time>
      </trkpt>
      <trkpt lat="47.428" lon="-2.24432">
        <ele>4.012042</ele>
        <time>2020-06-05T16:39:28.995Z</time>
      </trkpt>
      <trkpt lat="47.42809" lon="-2.24445">
        <ele>3.880033</ele>
        <time>2020-06-05T16:39:31.995Z</time>
      </trkpt>
      <trkpt lat="47.42817" lon="-2.24458">
        <ele>3.745619</ele>
        <time>2020-06-05T16:39:34.995Z</time>
      </trkpt>
      <trkpt lat="47.42823" lon="-2.24469">
        <ele>3.641484</ele>
        <time>2020-06-05T16:39:36.995Z</time>
      </trkpt>
      <trkpt lat="47.4283" lon="-2.2448">
        <ele>3.531879</ele>
        <time>2020-06-05T16:39:38.995Z</time>
      </trkpt>
      <trkpt lat="47.42837" lon="-2.24491">
        <ele>3.415502</ele>
        <time>2020-06-05T16:39:40.995Z</time>
      </trkpt>
      <trkpt lat="47.42846" lon="-2.24498">
        <ele>3.309398</ele>
        <time>2020-06-05T16:39:42.994Z</time>
      </trkpt>
      <trkpt lat="47.42856" lon="-2.24504">
        <ele>3.188007</ele>
        <time>2020-06-05T16:39:44.994Z</time>
      </trkpt>
      <trkpt lat="47.42865" lon="-2.24512">
        <ele>3.074119</ele>
        <time>2020-06-05T16:39:46.994Z</time>
      </trkpt>
      <trkpt lat="47.42874" lon="-2.24519">
        <ele>2.959344</ele>
        <time>2020-06-05T16:39:48.994Z</time>
      </trkpt>
      <trkpt lat="47.42885" lon="-2.24526">
        <ele>2.832039</ele>
        <time>2020-06-05T16:39:50.994Z</time>
      </trkpt>
      <trkpt lat="47.42895" lon="-2.24534">
        <ele>2.70604</ele>
        <time>2020-06-05T16:39:52.994Z</time>
      </trkpt>
      <trkpt lat="47.42903" lon="-2.24541">
        <ele>2.598814</ele>
        <time>2020-06-05T16:39:54.994Z</time>
      </trkpt>
      <trkpt lat="47.42912" lon="-2.24548">
        <ele>2.498671</ele>
        <time>2020-06-05T16:39:56.994Z</time>
      </trkpt>
      <trkpt lat="47.42921" lon="-2.24555">
        <ele>2.401699</ele>
        <time>2020-06-05T16:39:58.994Z</time>
      </trkpt>
      <trkpt lat="47.42931" lon="-2.24563">
        <ele>2.296823</ele>
        <time>2020-06-05T16:40:00.994Z</time>
      </trkpt>
      <trkpt lat="47.42942" lon="-2.24569">
        <ele>2.187021</ele>
        <time>2020-06-05T16:40:02.994Z</time>
      </trkpt>
      <trkpt lat="47.42952" lon="-2.24576">
        <ele>2.085821</ele>
        <time>2020-06-05T16:40:04.994Z</time>
      </trkpt>
      <trkpt lat="47.42961" lon="-2.24582">
        <ele>1.986536</ele>
        <time>2020-06-05T16:40:06.994Z</time>
      </trkpt>
      <trkpt lat="47.42971" lon="-2.24588">
        <ele>1.889754</ele>
        <time>2020-06-05T16:40:08.994Z</time>
      </trkpt>
      <trkpt lat="47.42979" lon="-2.24597">
        <ele>1.797243</ele>
        <time>2020-06-05T16:40:10.994Z</time>
      </trkpt>
      <trkpt lat="47.42986" lon="-2.24606">
        <ele>1.704277</ele>
        <time>2020-06-05T16:40:12.994Z</time>
      </trkpt>
      <trkpt lat="47.42993" lon="-2.24618">
        <ele>1.606866</ele>
        <time>2020-06-05T16:40:14.994Z</time>
      </trkpt>
      <trkpt lat="47.42998" lon="-2.2463">
        <ele>1.513364</ele>
        <time>2020-06-05T16:40:16.994Z</time>
      </trkpt>
      <trkpt lat="47.43004" lon="-2.24644">
        <ele>1.414369</ele>
        <time>2020-06-05T16:40:18.994Z</time>
      </trkpt>
      <trkpt lat="47.4301" lon="-2.24658">
        <ele>1.306078</ele>
        <time>2020-06-05T16:40:20.994Z</time>
      </trkpt>
      <trkpt lat="47.43016" lon="-2.24669">
        <ele>1.211598</ele>
        <time>2020-06-05T16:40:22.994Z</time>
      </trkpt>
      <trkpt lat="47.43024" lon="-2.24681">
        <ele>1.104149</ele>
        <time>2020-06-05T16:40:24.994Z</time>
      </trkpt>
      <trkpt lat="47.43033" lon="-2.24689">
        <ele>1.009598</ele>
        <time>2020-06-05T16:40:26.994Z</time>
      </trkpt>
      <trkpt lat="47.43041" lon="-2.24699">
        <ele>0.913991</ele>
        <time>2020-06-05T16:40:28.993Z</time>
      </trkpt>
      <trkpt lat="47.43049" lon="-2.24708">
        <ele>0.898509</ele>
        <time>2020-06-05T16:40:30.993Z</time>
      </trkpt>
      <trkpt lat="47.43058" lon="-2.24716">
        <ele>1.002912</ele>
        <time>2020-06-05T16:40:32.993Z</time>
      </trkpt>
      <trkpt lat="47.43067" lon="-2.24724">
        <ele>1.104151</ele>
        <time>2020-06-05T16:40:34.993Z</time>
      </trkpt>
      <trkpt lat="47.43077" lon="-2.24731">
        <ele>1.217686</ele>
        <time>2020-06-05T16:40:36.993Z</time>
      </trkpt>
      <trkpt lat="47.43087" lon="-2.24738">
        <ele>1.322889</ele>
        <time>2020-06-05T16:40:38.993Z</time>
      </trkpt>
      <trkpt lat="47.43097" lon="-2.24744">
        <ele>1.431759</ele>
        <time>2020-06-05T16:40:40.993Z</time>
      </trkpt>
      <trkpt lat="47.43108" lon="-2.24751">
        <ele>1.541083</ele>
        <time>2020-06-05T16:40:42.993Z</time>
      </trkpt>
      <trkpt lat="47.43118" lon="-2.24756">
        <ele>1.648721</ele>
        <time>2020-06-05T16:40:44.993Z</time>
      </trkpt>
      <trkpt lat="47.4313" lon="-2.24758">
        <ele>1.763821</ele>
        <time>2020-06-05T16:40:46.993Z</time>
      </trkpt>
      <trkpt lat="47.43143" lon="-2.24759">
        <ele>1.895264</ele>
        <time>2020-06-05T16:40:48.993Z</time>
      </trkpt>
      <trkpt lat="47.43156" lon="-2.2476">
        <ele>2.018596</ele>
        <time>2020-06-05T16:40:50.993Z</time>
      </trkpt>
      <trkpt lat="47.43168" lon="-2.24759">
        <ele>2.136238</ele>
        <time>2020-06-05T16:40:52.993Z</time>
      </trkpt>
      <trkpt lat="47.43178" lon="-2.24753">
        <ele>2.239491</ele>
        <time>2020-06-05T16:40:54.993Z</time>
      </trkpt>
      <trkpt lat="47.43183" lon="-2.2474">
        <ele>2.346008</ele>
        <time>2020-06-05T16:40:56.993Z</time>
      </trkpt>
      <trkpt lat="47.43188" lon="-2.24725">
        <ele>2.453411</ele>
        <time>2020-06-05T16:40:58.993Z</time>
      </trkpt>
      <trkpt lat="47.43192" lon="-2.24712">
        <ele>2.543516</ele>
        <time>2020-06-05T16:41:00.993Z</time>
      </trkpt>
      <trkpt lat="47.43202" lon="-2.24703">
        <ele>2.606245</ele>
        <time>2020-06-05T16:41:03.993Z</time>
      </trkpt>
      <trkpt lat="47.4321" lon="-2.24709">
        <ele>2.584266</ele>
        <time>2020-06-05T16:41:05.993Z</time>
      </trkpt>
      <trkpt lat="47.4322" lon="-2.24713">
        <ele>2.562204</ele>
        <time>2020-06-05T16:41:07.993Z</time>
      </trkpt>
      <trkpt lat="47.43229" lon="-2.24718">
        <ele>2.540933</ele>
        <time>2020-06-05T16:41:09.993Z</time>
      </trkpt>
      <trkpt lat="47.43239" lon="-2.24724">
        <ele>2.515155</ele>
        <time>2020-06-05T16:41:11.993Z</time>
      </trkpt>
      <trkpt lat="47.4325" lon="-2.24731">
        <ele>2.489232</ele>
        <time>2020-06-05T16:41:13.993Z</time>
      </trkpt>
      <trkpt lat="47.43261" lon="-2.24735">
        <ele>2.462144</ele>
        <time>2020-06-05T16:41:15.992Z</time>
      </trkpt>
      <trkpt lat="47.43273" lon="-2.24739">
        <ele>2.435719</ele>
        <time>2020-06-05T16:41:17.992Z</time>
      </trkpt>
      <trkpt lat="47.43283" lon="-2.24743">
        <ele>2.412211</ele>
        <time>2020-06-05T16:41:19.992Z</time>
      </trkpt>
      <trkpt lat="47.43292" lon="-2.24748">
        <ele>2.390607</ele>
        <time>2020-06-05T16:41:21.992Z</time>
      </trkpt>
      <trkpt lat="47.43301" lon="-2.24752">
        <ele>2.367793</ele>
        <time>2020-06-05T16:41:23.992Z</time>
      </trkpt>
      <trkpt lat="47.43313" lon="-2.24754">
        <ele>2.340934</ele>
        <time>2020-06-05T16:41:25.992Z</time>
      </trkpt>
      <trkpt lat="47.43325" lon="-2.24756">
        <ele>2.313609</ele>
        <time>2020-06-05T16:41:27.992Z</time>
      </trkpt>
      <trkpt lat="47.43336" lon="-2.24758">
        <ele>2.288017</ele>
        <time>2020-06-05T16:41:29.992Z</time>
      </trkpt>
      <trkpt lat="47.43349" lon="-2.2476">
        <ele>2.260276</ele>
        <time>2020-06-05T16:41:31.992Z</time>
      </trkpt>
      <trkpt lat="47.43361" lon="-2.24761">
        <ele>2.231939</ele>
        <time>2020-06-05T16:41:33.992Z</time>
      </trkpt>
      <trkpt lat="47.43374" lon="-2.24762">
        <ele>2.219109</ele>
        <time>2020-06-05T16:41:35.992Z</time>
      </trkpt>
      <trkpt lat="47.43386" lon="-2.24763">
        <ele>2.250605</ele>
        <time>2020-06-05T16:41:37.992Z</time>
      </trkpt>
      <trkpt lat="47.43398" lon="-2.24763">
        <ele>2.283724</ele>
        <time>2020-06-05T16:41:39.992Z</time>
      </trkpt>
      <trkpt lat="47.4341" lon="-2.24765">
        <ele>2.316377</ele>
        <time>2020-06-05T16:41:41.992Z</time>
      </trkpt>
      <trkpt lat="47.43423" lon="-2.24766">
        <ele>2.352556</ele>
        <time>2020-06-05T16:41:43.992Z</time>
      </trkpt>
      <trkpt lat="47.43435" lon="-2.24766">
        <ele>2.384572</ele>
        <time>2020-06-05T16:41:45.992Z</time>
      </trkpt>
      <trkpt lat="47.43446" lon="-2.24767">
        <ele>2.416164</ele>
        <time>2020-06-05T16:41:47.992Z</time>
      </trkpt>
      <trkpt lat="47.43458" lon="-2.24768">
        <ele>2.447972</ele>
        <time>2020-06-05T16:41:49.992Z</time>
      </trkpt>
      <trkpt lat="47.4347" lon="-2.24768">
        <ele>2.481631</ele>
        <time>2020-06-05T16:41:51.992Z</time>
      </trkpt>
      <trkpt lat="47.43483" lon="-2.24767">
        <ele>2.516222</ele>
        <time>2020-06-05T16:41:53.992Z</time>
      </trkpt>
      <trkpt lat="47.43495" lon="-2.24765">
        <ele>2.550963</ele>
        <time>2020-06-05T16:41:55.992Z</time>
      </trkpt>
      <trkpt lat="47.43507" lon="-2.24764">
        <ele>2.583023</ele>
        <time>2020-06-05T16:41:57.992Z</time>
      </trkpt>
      <trkpt lat="47.43518" lon="-2.24764">
        <ele>2.613672</ele>
        <time>2020-06-05T16:41:59.991Z</time>
      </trkpt>
      <trkpt lat="47.43529" lon="-2.24764">
        <ele>2.643773</ele>
        <time>2020-06-05T16:42:01.991Z</time>
      </trkpt>
      <trkpt lat="47.43539" lon="-2.24763">
        <ele>2.670941</ele>
        <time>2020-06-05T16:42:03.991Z</time>
      </trkpt>
      <trkpt lat="47.43551" lon="-2.24761">
        <ele>2.699764</ele>
        <time>2020-06-05T16:42:05.991Z</time>
      </trkpt>
      <trkpt lat="47.43563" lon="-2.2476">
        <ele>2.6629</ele>
        <time>2020-06-05T16:42:07.991Z</time>
      </trkpt>
      <trkpt lat="47.43577" lon="-2.24759">
        <ele>2.618937</ele>
        <time>2020-06-05T16:42:09.991Z</time>
      </trkpt>
      <trkpt lat="47.4359" lon="-2.24758">
        <ele>2.5787</ele>
        <time>2020-06-05T16:42:11.991Z</time>
      </trkpt>
      <trkpt lat="47.43602" lon="-2.24757">
        <ele>2.542748</ele>
        <time>2020-06-05T16:42:13.991Z</time>
      </trkpt>
      <trkpt lat="47.43615" lon="-2.24755">
        <ele>2.50209</ele>
        <time>2020-06-05T16:42:15.991Z</time>
      </trkpt>
      <trkpt lat="47.43627" lon="-2.24754">
        <ele>2.46607</ele>
        <time>2020-06-05T16:42:17.991Z</time>
      </trkpt>
      <trkpt lat="47.43637" lon="-2.24754">
        <ele>2.433297</ele>
        <time>2020-06-05T16:42:19.991Z</time>
      </trkpt>
      <trkpt lat="47.43646" lon="-2.24752">
        <ele>2.40476</ele>
        <time>2020-06-05T16:42:21.993Z</time>
      </trkpt>
      <trkpt lat="47.43658" lon="-2.24751">
        <ele>2.368759</ele>
        <time>2020-06-05T16:42:23.994Z</time>
      </trkpt>
      <trkpt lat="47.43672" lon="-2.24749">
        <ele>2.326482</ele>
        <time>2020-06-05T16:42:25.994Z</time>
      </trkpt>
      <trkpt lat="47.43685" lon="-2.24749">
        <ele>2.284432</ele>
        <time>2020-06-05T16:42:27.995Z</time>
      </trkpt>
      <trkpt lat="47.43698" lon="-2.24748">
        <ele>2.244482</ele>
        <time>2020-06-05T16:42:29.996Z</time>
      </trkpt>
      <trkpt lat="47.4371" lon="-2.24747">
        <ele>2.208579</ele>
        <time>2020-06-05T16:42:31.996Z</time>
      </trkpt>
      <trkpt lat="47.43722" lon="-2.24745">
        <ele>2.171</ele>
        <time>2020-06-05T16:42:33.997Z</time>
      </trkpt>
      <trkpt lat="47.43733" lon="-2.24744">
        <ele>2.103258</ele>
        <time>2020-06-05T16:42:35.997Z</time>
      </trkpt>
      <trkpt lat="47.43747" lon="-2.24744">
        <ele>1.937889</ele>
        <time>2020-06-05T16:42:37.997Z</time>
      </trkpt>
      <trkpt lat="47.43758" lon="-2.2474">
        <ele>1.79775</ele>
        <time>2020-06-05T16:42:39.998Z</time>
      </trkpt>
      <trkpt lat="47.4377" lon="-2.24738">
        <ele>1.652044</ele>
        <time>2020-06-05T16:42:41.998Z</time>
      </trkpt>
      <trkpt lat="47.4378" lon="-2.24737">
        <ele>1.53281</ele>
        <time>2020-06-05T16:42:43.998Z</time>
      </trkpt>
      <trkpt lat="47.43791" lon="-2.24736">
        <ele>1.388345</ele>
        <time>2020-06-05T16:42:45.998Z</time>
      </trkpt>
      <trkpt lat="47.43804" lon="-2.24736">
        <ele>1.236524</ele>
        <time>2020-06-05T16:42:47.999Z</time>
      </trkpt>
      <trkpt lat="47.43817" lon="-2.24735">
        <ele>1.072229</ele>
        <time>2020-06-05T16:42:49.999Z</time>
      </trkpt>
      <trkpt lat="47.43829" lon="-2.24733">
        <ele>0.921561</ele>
        <time>2020-06-05T16:42:51.999Z</time>
      </trkpt>
      <trkpt lat="47.43843" lon="-2.24732">
        <ele>0.759863</ele>
        <time>2020-06-05T16:42:53.999Z</time>
      </trkpt>
      <trkpt lat="47.43854" lon="-2.24732">
        <ele>0.614183</ele>
        <time>2020-06-05T16:42:55.999Z</time>
      </trkpt>
      <trkpt lat="47.43866" lon="-2.24732">
        <ele>0.473391</ele>
        <time>2020-06-05T16:42:57.999Z</time>
      </trkpt>
      <trkpt lat="47.43876" lon="-2.24731">
        <ele>0.344634</ele>
        <time>2020-06-05T16:42:59.999Z</time>
      </trkpt>
      <trkpt lat="47.43888" lon="-2.2473">
        <ele>0.20483</ele>
        <time>2020-06-05T16:43:01.999Z</time>
      </trkpt>
      <trkpt lat="47.439" lon="-2.24729">
        <ele>0.060182</ele>
        <time>2020-06-05T16:43:03.999Z</time>
      </trkpt>
      <trkpt lat="47.43911" lon="-2.24727">
        <ele>-0.033887</ele>
        <time>2020-06-05T16:43:05.999Z</time>
      </trkpt>
      <trkpt lat="47.43923" lon="-2.24725">
        <ele>0.098532</ele>
        <time>2020-06-05T16:43:07.999Z</time>
      </trkpt>
      <trkpt lat="47.43935" lon="-2.24723">
        <ele>0.22161</ele>
        <time>2020-06-05T16:43:09.999Z</time>
      </trkpt>
      <trkpt lat="47.43946" lon="-2.24722">
        <ele>0.339266</ele>
        <time>2020-06-05T16:43:11.999Z</time>
      </trkpt>
      <trkpt lat="47.43956" lon="-2.24722">
        <ele>0.446947</ele>
        <time>2020-06-05T16:43:13.999Z</time>
      </trkpt>
      <trkpt lat="47.43967" lon="-2.24721">
        <ele>0.570697</ele>
        <time>2020-06-05T16:43:15.999Z</time>
      </trkpt>
      <trkpt lat="47.43979" lon="-2.2472">
        <ele>0.694789</ele>
        <time>2020-06-05T16:43:17.999Z</time>
      </trkpt>
      <trkpt lat="47.43991" lon="-2.24719">
        <ele>0.831525</ele>
        <time>2020-06-05T16:43:19.999Z</time>
      </trkpt>
      <trkpt lat="47.44003" lon="-2.24718">
        <ele>0.958617</ele>
        <time>2020-06-05T16:43:21.999Z</time>
      </trkpt>
      <trkpt lat="47.44014" lon="-2.24719">
        <ele>1.080216</ele>
        <time>2020-06-05T16:43:23.999Z</time>
      </trkpt>
      <trkpt lat="47.44028" lon="-2.24719">
        <ele>1.222239</ele>
        <time>2020-06-05T16:43:25.999Z</time>
      </trkpt>
      <trkpt lat="47.44041" lon="-2.24716">
        <ele>1.361953</ele>
        <time>2020-06-05T16:43:27.999Z</time>
      </trkpt>
      <trkpt lat="47.44052" lon="-2.24715">
        <ele>1.484869</ele>
        <time>2020-06-05T16:43:29.999Z</time>
      </trkpt>
      <trkpt lat="47.44065" lon="-2.24714">
        <ele>1.620593</ele>
        <time>2020-06-05T16:43:31.999Z</time>
      </trkpt>
      <trkpt lat="47.44077" lon="-2.24713">
        <ele>1.749998</ele>
        <time>2020-06-05T16:43:33.999Z</time>
      </trkpt>
      <trkpt lat="47.44088" lon="-2.24712">
        <ele>1.87749</ele>
        <time>2020-06-05T16:43:35.999Z</time>
      </trkpt>
      <trkpt lat="47.44097" lon="-2.24707">
        <ele>1.800647</ele>
        <time>2020-06-05T16:43:37.999Z</time>
      </trkpt>
      <trkpt lat="47.44107" lon="-2.24711">
        <ele>1.708137</ele>
        <time>2020-06-05T16:45:01.997Z</time>
      </trkpt>
      <trkpt lat="47.44117" lon="-2.2471">
        <ele>1.621142</ele>
        <time>2020-06-05T16:45:03.997Z</time>
      </trkpt>
      <trkpt lat="47.44131" lon="-2.2471">
        <ele>1.50125</ele>
        <time>2020-06-05T16:45:06.997Z</time>
      </trkpt>
      <trkpt lat="47.44142" lon="-2.24708">
        <ele>1.409284</ele>
        <time>2020-06-05T16:45:08.996Z</time>
      </trkpt>
      <trkpt lat="47.44152" lon="-2.24707">
        <ele>1.320553</ele>
        <time>2020-06-05T16:45:10.996Z</time>
      </trkpt>
      <trkpt lat="47.44163" lon="-2.24705">
        <ele>1.222553</ele>
        <time>2020-06-05T16:45:12.996Z</time>
      </trkpt>
      <trkpt lat="47.44173" lon="-2.24704">
        <ele>1.138125</ele>
        <time>2020-06-05T16:45:14.996Z</time>
      </trkpt>
      <trkpt lat="47.44184" lon="-2.24702">
        <ele>1.037537</ele>
        <time>2020-06-05T16:45:16.996Z</time>
      </trkpt>
      <trkpt lat="47.44194" lon="-2.247">
        <ele>0.955091</ele>
        <time>2020-06-05T16:45:18.996Z</time>
      </trkpt>
      <trkpt lat="47.44208" lon="-2.24699">
        <ele>0.827361</ele>
        <time>2020-06-05T16:45:20.996Z</time>
      </trkpt>
      <trkpt lat="47.44219" lon="-2.24698">
        <ele>0.730586</ele>
        <time>2020-06-05T16:45:22.996Z</time>
      </trkpt>
      <trkpt lat="47.44231" lon="-2.24697">
        <ele>0.627131</ele>
        <time>2020-06-05T16:45:24.996Z</time>
      </trkpt>
      <trkpt lat="47.44244" lon="-2.24696">
        <ele>0.514146</ele>
        <time>2020-06-05T16:45:26.995Z</time>
      </trkpt>
      <trkpt lat="47.44255" lon="-2.24695">
        <ele>0.419798</ele>
        <time>2020-06-05T16:45:28.995Z</time>
      </trkpt>
      <trkpt lat="47.44266" lon="-2.24696">
        <ele>0.323195</ele>
        <time>2020-06-05T16:45:30.995Z</time>
      </trkpt>
      <trkpt lat="47.44277" lon="-2.24694">
        <ele>0.385961</ele>
        <time>2020-06-05T16:45:32.995Z</time>
      </trkpt>
      <trkpt lat="47.44286" lon="-2.24693">
        <ele>0.453736</ele>
        <time>2020-06-05T16:45:34.995Z</time>
      </trkpt>
      <trkpt lat="47.44298" lon="-2.24692">
        <ele>0.53214</ele>
        <time>2020-06-05T16:45:37.995Z</time>
      </trkpt>
      <trkpt lat="47.44308" lon="-2.24688">
        <ele>0.606833</ele>
        <time>2020-06-05T16:45:40.995Z</time>
      </trkpt>
      <trkpt lat="47.443" lon="-2.24678">
        <ele>0.679941</ele>
        <time>2020-06-05T16:47:52.991Z</time>
      </trkpt>
      <trkpt lat="47.44301" lon="-2.24691">
        <ele>0.7435</ele>
        <time>2020-06-05T16:47:59.991Z</time>
      </trkpt>
      <trkpt lat="47.44311" lon="-2.2469">
        <ele>0.814341</ele>
        <time>2020-06-05T16:48:04.991Z</time>
      </trkpt>
      <trkpt lat="47.4432" lon="-2.24688">
        <ele>0.877788</ele>
        <time>2020-06-05T16:48:09.991Z</time>
      </trkpt>
      <trkpt lat="47.44329" lon="-2.24687">
        <ele>0.943416</ele>
        <time>2020-06-05T16:48:12.991Z</time>
      </trkpt>
      <trkpt lat="47.44339" lon="-2.24685">
        <ele>1.014276</ele>
        <time>2020-06-05T16:48:15.991Z</time>
      </trkpt>
      <trkpt lat="47.4435" lon="-2.24681">
        <ele>1.092541</ele>
        <time>2020-06-05T16:48:18.991Z</time>
      </trkpt>
      <trkpt lat="47.44362" lon="-2.24675">
        <ele>1.177939</ele>
        <time>2020-06-05T16:48:21.991Z</time>
      </trkpt>
      <trkpt lat="47.44374" lon="-2.24667">
        <ele>1.26975</ele>
        <time>2020-06-05T16:48:24.991Z</time>
      </trkpt>
      <trkpt lat="47.44385" lon="-2.24656">
        <ele>1.362891</ele>
        <time>2020-06-05T16:48:27.991Z</time>
      </trkpt>
      <trkpt lat="47.44392" lon="-2.24648">
        <ele>1.42687</ele>
        <time>2020-06-05T16:48:29.991Z</time>
      </trkpt>
      <trkpt lat="47.44401" lon="-2.24638">
        <ele>1.501292</ele>
        <time>2020-06-05T16:48:31.991Z</time>
      </trkpt>
      <trkpt lat="47.44409" lon="-2.24629">
        <ele>1.59419</ele>
        <time>2020-06-05T16:48:33.991Z</time>
      </trkpt>
      <trkpt lat="47.44419" lon="-2.24621">
        <ele>1.928503</ele>
        <time>2020-06-05T16:48:35.991Z</time>
      </trkpt>
      <trkpt lat="47.44428" lon="-2.24613">
        <ele>2.239885</ele>
        <time>2020-06-05T16:48:37.991Z</time>
      </trkpt>
      <trkpt lat="47.44436" lon="-2.24604">
        <ele>2.55554</ele>
        <time>2020-06-05T16:48:39.991Z</time>
      </trkpt>
      <trkpt lat="47.44444" lon="-2.24593">
        <ele>2.87376</ele>
        <time>2020-06-05T16:48:41.991Z</time>
      </trkpt>
      <trkpt lat="47.44451" lon="-2.24583">
        <ele>3.175715</ele>
        <time>2020-06-05T16:48:43.991Z</time>
      </trkpt>
      <trkpt lat="47.44459" lon="-2.24572">
        <ele>3.508743</ele>
        <time>2020-06-05T16:48:45.991Z</time>
      </trkpt>
      <trkpt lat="47.44464" lon="-2.24558">
        <ele>3.820095</ele>
        <time>2020-06-05T16:48:47.991Z</time>
      </trkpt>
      <trkpt lat="47.44466" lon="-2.24542">
        <ele>4.158735</ele>
        <time>2020-06-05T16:48:49.991Z</time>
      </trkpt>
      <trkpt lat="47.4447" lon="-2.24528">
        <ele>4.490224</ele>
        <time>2020-06-05T16:48:51.991Z</time>
      </trkpt>
      <trkpt lat="47.44477" lon="-2.24515">
        <ele>4.819473</ele>
        <time>2020-06-05T16:48:53.991Z</time>
      </trkpt>
      <trkpt lat="47.44489" lon="-2.24519">
        <ele>5.167387</ele>
        <time>2020-06-05T16:48:56.991Z</time>
      </trkpt>
      <trkpt lat="47.44498" lon="-2.24531">
        <ele>5.53668</ele>
        <time>2020-06-05T16:48:58.991Z</time>
      </trkpt>
      <trkpt lat="47.44503" lon="-2.24544">
        <ele>5.856137</ele>
        <time>2020-06-05T16:49:00.991Z</time>
      </trkpt>
      <trkpt lat="47.44503" lon="-2.24559">
        <ele>6.148504</ele>
        <time>2020-06-05T16:49:02.991Z</time>
      </trkpt>
      <trkpt lat="47.44499" lon="-2.24577">
        <ele>6.544726</ele>
        <time>2020-06-05T16:49:05.991Z</time>
      </trkpt>
      <trkpt lat="47.44499" lon="-2.24591">
        <ele>6.825015</ele>
        <time>2020-06-05T16:49:07.991Z</time>
      </trkpt>
      <trkpt lat="47.44501" lon="-2.24609">
        <ele>7.016668</ele>
        <time>2020-06-05T16:49:10.991Z</time>
      </trkpt>
      <trkpt lat="47.44504" lon="-2.24626">
        <ele>6.95632</ele>
        <time>2020-06-05T16:49:13.991Z</time>
      </trkpt>
      <trkpt lat="47.44501" lon="-2.24639">
        <ele>6.908548</ele>
        <time>2020-06-05T16:49:15.991Z</time>
      </trkpt>
      <trkpt lat="47.44502" lon="-2.24655">
        <ele>6.848349</ele>
        <time>2020-06-05T16:49:18.990Z</time>
      </trkpt>
      <trkpt lat="47.44506" lon="-2.2467">
        <ele>6.794361</ele>
        <time>2020-06-05T16:49:20.990Z</time>
      </trkpt>
      <trkpt lat="47.44507" lon="-2.24683">
        <ele>6.746068</ele>
        <time>2020-06-05T16:49:22.990Z</time>
      </trkpt>
      <trkpt lat="47.4451" lon="-2.24698">
        <ele>6.691555</ele>
        <time>2020-06-05T16:49:24.990Z</time>
      </trkpt>
      <trkpt lat="47.44513" lon="-2.24714">
        <ele>6.630332</ele>
        <time>2020-06-05T16:49:27.992Z</time>
      </trkpt>
      <trkpt lat="47.44516" lon="-2.24728">
        <ele>6.580403</ele>
        <time>2020-06-05T16:49:29.993Z</time>
      </trkpt>
      <trkpt lat="47.44518" lon="-2.24742">
        <ele>6.528296</ele>
        <time>2020-06-05T16:49:31.994Z</time>
      </trkpt>
      <trkpt lat="47.44522" lon="-2.24756">
        <ele>6.475179</ele>
        <time>2020-06-05T16:49:33.994Z</time>
      </trkpt>
      <trkpt lat="47.44524" lon="-2.24769">
        <ele>6.427548</ele>
        <time>2020-06-05T16:49:35.995Z</time>
      </trkpt>
      <trkpt lat="47.44527" lon="-2.24784">
        <ele>6.372838</ele>
        <time>2020-06-05T16:49:37.995Z</time>
      </trkpt>
      <trkpt lat="47.44529" lon="-2.24798">
        <ele>6.319699</ele>
        <time>2020-06-05T16:49:39.996Z</time>
      </trkpt>
      <trkpt lat="47.44531" lon="-2.24811">
        <ele>6.271172</ele>
        <time>2020-06-05T16:49:41.996Z</time>
      </trkpt>
      <trkpt lat="47.44534" lon="-2.24825">
        <ele>6.221737</ele>
        <time>2020-06-05T16:49:43.997Z</time>
      </trkpt>
      <trkpt lat="47.44538" lon="-2.24839">
        <ele>6.165581</ele>
        <time>2020-06-05T16:49:45.997Z</time>
      </trkpt>
      <trkpt lat="47.44546" lon="-2.24854">
        <ele>6.097658</ele>
        <time>2020-06-05T16:49:48.997Z</time>
      </trkpt>
      <trkpt lat="47.44545" lon="-2.24868">
        <ele>5.924803</ele>
        <time>2020-06-05T16:49:50.997Z</time>
      </trkpt>
      <trkpt lat="47.44541" lon="-2.24885">
        <ele>5.723063</ele>
        <time>2020-06-05T16:49:53.998Z</time>
      </trkpt>
      <trkpt lat="47.44543" lon="-2.24903">
        <ele>5.504559</ele>
        <time>2020-06-05T16:49:56.998Z</time>
      </trkpt>
      <trkpt lat="47.44546" lon="-2.24916">
        <ele>5.346012</ele>
        <time>2020-06-05T16:49:58.998Z</time>
      </trkpt>
      <trkpt lat="47.44548" lon="-2.2493">
        <ele>5.172235</ele>
        <time>2020-06-05T16:50:00.998Z</time>
      </trkpt>
      <trkpt lat="47.4455" lon="-2.24944">
        <ele>5.01115</ele>
        <time>2020-06-05T16:50:02.998Z</time>
      </trkpt>
      <trkpt lat="47.44551" lon="-2.24957">
        <ele>4.852336</ele>
        <time>2020-06-05T16:50:04.998Z</time>
      </trkpt>
      <trkpt lat="47.44552" lon="-2.24977">
        <ele>4.621628</ele>
        <time>2020-06-05T16:50:07.998Z</time>
      </trkpt>
      <trkpt lat="47.44554" lon="-2.2499">
        <ele>4.460534</ele>
        <time>2020-06-05T16:50:09.998Z</time>
      </trkpt>
      <trkpt lat="47.44557" lon="-2.25003">
        <ele>4.301678</ele>
        <time>2020-06-05T16:50:11.998Z</time>
      </trkpt>
      <trkpt lat="47.44561" lon="-2.25021">
        <ele>4.074285</ele>
        <time>2020-06-05T16:50:14.998Z</time>
      </trkpt>
      <trkpt lat="47.44563" lon="-2.25034">
        <ele>3.91619</ele>
        <time>2020-06-05T16:50:16.998Z</time>
      </trkpt>
      <trkpt lat="47.44564" lon="-2.25049">
        <ele>3.735165</ele>
        <time>2020-06-05T16:50:19.998Z</time>
      </trkpt>
      <trkpt lat="47.44566" lon="-2.25065">
        <ele>3.546869</ele>
        <time>2020-06-05T16:50:22.998Z</time>
      </trkpt>
      <trkpt lat="47.44568" lon="-2.25081">
        <ele>3.357077</ele>
        <time>2020-06-05T16:50:25.998Z</time>
      </trkpt>
      <trkpt lat="47.44571" lon="-2.25096">
        <ele>3.167863</ele>
        <time>2020-06-05T16:50:28.998Z</time>
      </trkpt>
      <trkpt lat="47.44574" lon="-2.25112">
        <ele>2.978177</ele>
        <time>2020-06-05T16:50:31.998Z</time>
      </trkpt>
      <trkpt lat="47.44576" lon="-2.25131">
        <ele>2.941546</ele>
        <time>2020-06-05T16:50:34.998Z</time>
      </trkpt>
      <trkpt lat="47.44579" lon="-2.25145">
        <ele>2.919042</ele>
        <time>2020-06-05T16:50:37.998Z</time>
      </trkpt>
      <trkpt lat="47.4458" lon="-2.2516">
        <ele>2.896333</ele>
        <time>2020-06-05T16:50:43.998Z</time>
      </trkpt>
      <trkpt lat="47.44589" lon="-2.25223">
        <ele>2.798314</ele>
        <time>2020-06-05T16:51:32.997Z</time>
      </trkpt>
      <trkpt lat="47.4459" lon="-2.25238">
        <ele>2.776839</ele>
        <time>2020-06-05T16:51:35.997Z</time>
      </trkpt>
      <trkpt lat="47.44591" lon="-2.25253">
        <ele>2.754075</ele>
        <time>2020-06-05T16:51:38.997Z</time>
      </trkpt>
      <trkpt lat="47.44592" lon="-2.25267">
        <ele>2.731485</ele>
        <time>2020-06-05T16:51:41.997Z</time>
      </trkpt>
      <trkpt lat="47.44595" lon="-2.25284">
        <ele>2.704543</ele>
        <time>2020-06-05T16:51:44.997Z</time>
      </trkpt>
      <trkpt lat="47.44598" lon="-2.25299">
        <ele>2.681187</ele>
        <time>2020-06-05T16:51:47.997Z</time>
      </trkpt>
      <trkpt lat="47.44606" lon="-2.25312">
        <ele>2.65645</ele>
        <time>2020-06-05T16:51:50.997Z</time>
      </trkpt>
      <trkpt lat="47.44615" lon="-2.25322">
        <ele>2.629925</ele>
        <time>2020-06-05T16:51:53.996Z</time>
      </trkpt>
      <trkpt lat="47.44622" lon="-2.25336">
        <ele>2.603999</ele>
        <time>2020-06-05T16:51:56.996Z</time>
      </trkpt>
      <trkpt lat="47.44619" lon="-2.25354">
        <ele>2.577149</ele>
        <time>2020-06-05T16:51:59.996Z</time>
      </trkpt>
      <trkpt lat="47.44615" lon="-2.25369">
        <ele>2.567126</ele>
        <time>2020-06-05T16:52:02.996Z</time>
      </trkpt>
      <trkpt lat="47.44618" lon="-2.25387">
        <ele>2.567126</ele>
        <time>2020-06-05T16:52:05.996Z</time>
      </trkpt>
      <trkpt lat="47.4462" lon="-2.25404">
        <ele>2.567126</ele>
        <time>2020-06-05T16:52:08.996Z</time>
      </trkpt>
      <trkpt lat="47.44621" lon="-2.25424">
        <ele>2.567126</ele>
        <time>2020-06-05T16:52:11.996Z</time>
      </trkpt>
      <trkpt lat="47.44622" lon="-2.25444">
        <ele>2.567126</ele>
        <time>2020-06-05T16:52:14.996Z</time>
      </trkpt>
      <trkpt lat="47.44622" lon="-2.25463">
        <ele>2.567126</ele>
        <time>2020-06-05T16:52:17.996Z</time>
      </trkpt>
      <trkpt lat="47.44623" lon="-2.25477">
        <ele>2.567126</ele>
        <time>2020-06-05T16:52:19.996Z</time>
      </trkpt>
      <trkpt lat="47.44623" lon="-2.25491">
        <ele>2.567126</ele>
        <time>2020-06-05T16:52:21.996Z</time>
      </trkpt>
      <trkpt lat="47.44624" lon="-2.25504">
        <ele>2.567126</ele>
        <time>2020-06-05T16:52:23.996Z</time>
      </trkpt>
      <trkpt lat="47.44625" lon="-2.25523">
        <ele>2.567126</ele>
        <time>2020-06-05T16:52:26.996Z</time>
      </trkpt>
      <trkpt lat="47.44625" lon="-2.25542">
        <ele>2.567126</ele>
        <time>2020-06-05T16:52:29.996Z</time>
      </trkpt>
      <trkpt lat="47.44626" lon="-2.25558">
        <ele>2.567126</ele>
        <time>2020-06-05T16:52:31.996Z</time>
      </trkpt>
      <trkpt lat="47.44626" lon="-2.25572">
        <ele>2.567126</ele>
        <time>2020-06-05T16:52:33.996Z</time>
      </trkpt>
    </trkseg>
  </trk>
  <trk>
    <name><![CDATA[J8]]></name>
    <trkseg>
      <trkpt lat="47.80176" lon="-3.57997">
        <ele>65.8</ele>
        <time>2020-06-07T10:38:59Z</time>
      </trkpt>
      <trkpt lat="47.8018" lon="-3.5799">
        <ele>65.7</ele>
        <time>2020-06-07T10:39:00Z</time>
      </trkpt>
      <trkpt lat="47.80182" lon="-3.57988">
        <ele>65.6</ele>
        <time>2020-06-07T10:39:01Z</time>
      </trkpt>
      <trkpt lat="47.80181" lon="-3.57984">
        <ele>65.6</ele>
        <time>2020-06-07T10:39:02Z</time>
      </trkpt>
      <trkpt lat="47.80183" lon="-3.57984">
        <ele>65.5</ele>
        <time>2020-06-07T10:39:03Z</time>
      </trkpt>
      <trkpt lat="47.80185" lon="-3.57989">
        <ele>65.5</ele>
        <time>2020-06-07T10:39:04Z</time>
      </trkpt>
      <trkpt lat="47.80186" lon="-3.57991">
        <ele>65.5</ele>
        <time>2020-06-07T10:39:05Z</time>
      </trkpt>
      <trkpt lat="47.80186" lon="-3.57996">
        <ele>65.4</ele>
        <time>2020-06-07T10:39:06Z</time>
      </trkpt>
      <trkpt lat="47.80185" lon="-3.57999">
        <ele>65.4</ele>
        <time>2020-06-07T10:39:07Z</time>
      </trkpt>
      <trkpt lat="47.80184" lon="-3.58">
        <ele>65.3</ele>
        <time>2020-06-07T10:39:08Z</time>
      </trkpt>
      <trkpt lat="47.80182" lon="-3.58002">
        <ele>65.3</ele>
        <time>2020-06-07T10:39:09Z</time>
      </trkpt>
      <trkpt lat="47.80182" lon="-3.58002">
        <ele>65.3</ele>
        <time>2020-06-07T10:39:10Z</time>
      </trkpt>
      <trkpt lat="47.80181" lon="-3.58002">
        <ele>65.3</ele>
        <time>2020-06-07T10:39:11Z</time>
      </trkpt>
      <trkpt lat="47.80179" lon="-3.58001">
        <ele>65.3</ele>
        <time>2020-06-07T10:39:12Z</time>
      </trkpt>
      <trkpt lat="47.80178" lon="-3.57995">
        <ele>65.2</ele>
        <time>2020-06-07T10:39:13Z</time>
      </trkpt>
      <trkpt lat="47.8018" lon="-3.57995">
        <ele>65.2</ele>
        <time>2020-06-07T10:39:14Z</time>
      </trkpt>
      <trkpt lat="47.80179" lon="-3.57997">
        <ele>65.1</ele>
        <time>2020-06-07T10:39:16Z</time>
      </trkpt>
      <trkpt lat="47.8018" lon="-3.57999">
        <ele>65.1</ele>
        <time>2020-06-07T10:39:17Z</time>
      </trkpt>
      <trkpt lat="47.80181" lon="-3.58">
        <ele>65.1</ele>
        <time>2020-06-07T10:39:18Z</time>
      </trkpt>
      <trkpt lat="47.80182" lon="-3.58001">
        <ele>65.1</ele>
        <time>2020-06-07T10:39:19Z</time>
      </trkpt>
      <trkpt lat="47.80183" lon="-3.58003">
        <ele>65</ele>
        <time>2020-06-07T10:39:20Z</time>
      </trkpt>
      <trkpt lat="47.80183" lon="-3.58005">
        <ele>65</ele>
        <time>2020-06-07T10:39:21Z</time>
      </trkpt>
      <trkpt lat="47.80183" lon="-3.58006">
        <ele>65</ele>
        <time>2020-06-07T10:39:22Z</time>
      </trkpt>
      <trkpt lat="47.80182" lon="-3.58008">
        <ele>65</ele>
        <time>2020-06-07T10:39:23Z</time>
      </trkpt>
      <trkpt lat="47.80182" lon="-3.58011">
        <ele>64.9</ele>
        <time>2020-06-07T10:39:24Z</time>
      </trkpt>
      <trkpt lat="47.80182" lon="-3.58012">
        <ele>64.9</ele>
        <time>2020-06-07T10:39:25Z</time>
      </trkpt>
      <trkpt lat="47.80182" lon="-3.58013">
        <ele>64.9</ele>
        <time>2020-06-07T10:39:26Z</time>
      </trkpt>
      <trkpt lat="47.80182" lon="-3.58014">
        <ele>64.9</ele>
        <time>2020-06-07T10:39:27Z</time>
      </trkpt>
      <trkpt lat="47.80183" lon="-3.58015">
        <ele>64.9</ele>
        <time>2020-06-07T10:39:28Z</time>
      </trkpt>
      <trkpt lat="47.80183" lon="-3.58016">
        <ele>64.9</ele>
        <time>2020-06-07T10:39:29Z</time>
      </trkpt>
      <trkpt lat="47.80183" lon="-3.58016">
        <ele>64.9</ele>
        <time>2020-06-07T10:39:30Z</time>
      </trkpt>
      <trkpt lat="47.80184" lon="-3.58017">
        <ele>64.9</ele>
        <time>2020-06-07T10:39:31Z</time>
      </trkpt>
      <trkpt lat="47.80185" lon="-3.58017">
        <ele>64.8</ele>
        <time>2020-06-07T10:39:32Z</time>
      </trkpt>
      <trkpt lat="47.80185" lon="-3.58017">
        <ele>64.8</ele>
        <time>2020-06-07T10:39:33Z</time>
      </trkpt>
      <trkpt lat="47.80185" lon="-3.58017">
        <ele>64.8</ele>
        <time>2020-06-07T10:39:34Z</time>
      </trkpt>
      <trkpt lat="47.80186" lon="-3.58017">
        <ele>64.8</ele>
        <time>2020-06-07T10:39:35Z</time>
      </trkpt>
      <trkpt lat="47.80186" lon="-3.58016">
        <ele>64.8</ele>
        <time>2020-06-07T10:39:36Z</time>
      </trkpt>
      <trkpt lat="47.80186" lon="-3.58017">
        <ele>64.8</ele>
        <time>2020-06-07T10:39:37Z</time>
      </trkpt>
      <trkpt lat="47.80186" lon="-3.58017">
        <ele>64.8</ele>
        <time>2020-06-07T10:39:38Z</time>
      </trkpt>
      <trkpt lat="47.80187" lon="-3.58017">
        <ele>64.8</ele>
        <time>2020-06-07T10:39:39Z</time>
      </trkpt>
      <trkpt lat="47.80187" lon="-3.58016">
        <ele>64.8</ele>
        <time>2020-06-07T10:39:40Z</time>
      </trkpt>
      <trkpt lat="47.80188" lon="-3.58016">
        <ele>64.8</ele>
        <time>2020-06-07T10:39:41Z</time>
      </trkpt>
      <trkpt lat="47.80188" lon="-3.58016">
        <ele>64.8</ele>
        <time>2020-06-07T10:39:42Z</time>
      </trkpt>
      <trkpt lat="47.80189" lon="-3.58016">
        <ele>64.8</ele>
        <time>2020-06-07T10:39:43Z</time>
      </trkpt>
      <trkpt lat="47.80189" lon="-3.58015">
        <ele>64.8</ele>
        <time>2020-06-07T10:39:44Z</time>
      </trkpt>
      <trkpt lat="47.80188" lon="-3.58015">
        <ele>64.7</ele>
        <time>2020-06-07T10:39:45Z</time>
      </trkpt>
      <trkpt lat="47.80193" lon="-3.58022">
        <ele>64.6</ele>
        <time>2020-06-07T10:39:51Z</time>
      </trkpt>
      <trkpt lat="47.80195" lon="-3.58024">
        <ele>64.6</ele>
        <time>2020-06-07T10:39:52Z</time>
      </trkpt>
      <trkpt lat="47.80197" lon="-3.58026">
        <ele>64.6</ele>
        <time>2020-06-07T10:39:53Z</time>
      </trkpt>
      <trkpt lat="47.80197" lon="-3.58027">
        <ele>64.6</ele>
        <time>2020-06-07T10:39:54Z</time>
      </trkpt>
      <trkpt lat="47.80198" lon="-3.58028">
        <ele>64.5</ele>
        <time>2020-06-07T10:39:55Z</time>
      </trkpt>
      <trkpt lat="47.80199" lon="-3.58029">
        <ele>64.5</ele>
        <time>2020-06-07T10:39:56Z</time>
      </trkpt>
      <trkpt lat="47.802" lon="-3.58031">
        <ele>64.5</ele>
        <time>2020-06-07T10:39:57Z</time>
      </trkpt>
      <trkpt lat="47.802" lon="-3.58032">
        <ele>64.5</ele>
        <time>2020-06-07T10:39:58Z</time>
      </trkpt>
      <trkpt lat="47.80201" lon="-3.58033">
        <ele>64.5</ele>
        <time>2020-06-07T10:39:59Z</time>
      </trkpt>
      <trkpt lat="47.80201" lon="-3.58033">
        <ele>64.5</ele>
        <time>2020-06-07T10:40:00Z</time>
      </trkpt>
      <trkpt lat="47.80201" lon="-3.58034">
        <ele>64.5</ele>
        <time>2020-06-07T10:40:01Z</time>
      </trkpt>
      <trkpt lat="47.80201" lon="-3.58035">
        <ele>64.5</ele>
        <time>2020-06-07T10:40:02Z</time>
      </trkpt>
      <trkpt lat="47.80203" lon="-3.58037">
        <ele>64.4</ele>
        <time>2020-06-07T10:40:03Z</time>
      </trkpt>
      <trkpt lat="47.80203" lon="-3.58038">
        <ele>64.4</ele>
        <time>2020-06-07T10:40:04Z</time>
      </trkpt>
      <trkpt lat="47.80204" lon="-3.5804">
        <ele>64.4</ele>
        <time>2020-06-07T10:40:05Z</time>
      </trkpt>
      <trkpt lat="47.80205" lon="-3.58042">
        <ele>64.4</ele>
        <time>2020-06-07T10:40:06Z</time>
      </trkpt>
      <trkpt lat="47.80205" lon="-3.58044">
        <ele>64.3</ele>
        <time>2020-06-07T10:40:07Z</time>
      </trkpt>
      <trkpt lat="47.80206" lon="-3.58045">
        <ele>64.3</ele>
        <time>2020-06-07T10:40:08Z</time>
      </trkpt>
      <trkpt lat="47.80207" lon="-3.58048">
        <ele>64.3</ele>
        <time>2020-06-07T10:40:09Z</time>
      </trkpt>
      <trkpt lat="47.80208" lon="-3.58052">
        <ele>64.2</ele>
        <time>2020-06-07T10:40:10Z</time>
      </trkpt>
      <trkpt lat="47.80208" lon="-3.58053">
        <ele>64.2</ele>
        <time>2020-06-07T10:40:11Z</time>
      </trkpt>
      <trkpt lat="47.80209" lon="-3.58058">
        <ele>64.2</ele>
        <time>2020-06-07T10:40:12Z</time>
      </trkpt>
      <trkpt lat="47.80209" lon="-3.5806">
        <ele>64.1</ele>
        <time>2020-06-07T10:40:13Z</time>
      </trkpt>
      <trkpt lat="47.80211" lon="-3.58065">
        <ele>64.1</ele>
        <time>2020-06-07T10:40:14Z</time>
      </trkpt>
      <trkpt lat="47.80212" lon="-3.58067">
        <ele>64.1</ele>
        <time>2020-06-07T10:40:15Z</time>
      </trkpt>
      <trkpt lat="47.80213" lon="-3.58071">
        <ele>64</ele>
        <time>2020-06-07T10:40:16Z</time>
      </trkpt>
      <trkpt lat="47.80213" lon="-3.58073">
        <ele>64</ele>
        <time>2020-06-07T10:40:17Z</time>
      </trkpt>
      <trkpt lat="47.80214" lon="-3.58078">
        <ele>63.9</ele>
        <time>2020-06-07T10:40:18Z</time>
      </trkpt>
      <trkpt lat="47.80214" lon="-3.5808">
        <ele>63.9</ele>
        <time>2020-06-07T10:40:19Z</time>
      </trkpt>
      <trkpt lat="47.80215" lon="-3.58085">
        <ele>63.9</ele>
        <time>2020-06-07T10:40:20Z</time>
      </trkpt>
      <trkpt lat="47.80215" lon="-3.58086">
        <ele>63.8</ele>
        <time>2020-06-07T10:40:21Z</time>
      </trkpt>
      <trkpt lat="47.80215" lon="-3.58091">
        <ele>63.8</ele>
        <time>2020-06-07T10:40:22Z</time>
      </trkpt>
      <trkpt lat="47.80215" lon="-3.58093">
        <ele>63.8</ele>
        <time>2020-06-07T10:40:23Z</time>
      </trkpt>
      <trkpt lat="47.80216" lon="-3.58098">
        <ele>63.7</ele>
        <time>2020-06-07T10:40:24Z</time>
      </trkpt>
      <trkpt lat="47.80216" lon="-3.58099">
        <ele>63.7</ele>
        <time>2020-06-07T10:40:25Z</time>
      </trkpt>
      <trkpt lat="47.80216" lon="-3.58105">
        <ele>63.6</ele>
        <time>2020-06-07T10:40:26Z</time>
      </trkpt>
      <trkpt lat="47.80216" lon="-3.58107">
        <ele>63.6</ele>
        <time>2020-06-07T10:40:27Z</time>
      </trkpt>
      <trkpt lat="47.80217" lon="-3.58112">
        <ele>63.6</ele>
        <time>2020-06-07T10:40:28Z</time>
      </trkpt>
      <trkpt lat="47.80217" lon="-3.58114">
        <ele>63.5</ele>
        <time>2020-06-07T10:40:29Z</time>
      </trkpt>
      <trkpt lat="47.80217" lon="-3.58119">
        <ele>63.5</ele>
        <time>2020-06-07T10:40:30Z</time>
      </trkpt>
      <trkpt lat="47.80217" lon="-3.5812">
        <ele>63.5</ele>
        <time>2020-06-07T10:40:31Z</time>
      </trkpt>
      <trkpt lat="47.80217" lon="-3.58125">
        <ele>63.4</ele>
        <time>2020-06-07T10:40:32Z</time>
      </trkpt>
      <trkpt lat="47.80218" lon="-3.58127">
        <ele>63.4</ele>
        <time>2020-06-07T10:40:33Z</time>
      </trkpt>
      <trkpt lat="47.80218" lon="-3.58132">
        <ele>63.3</ele>
        <time>2020-06-07T10:40:34Z</time>
      </trkpt>
      <trkpt lat="47.80218" lon="-3.58134">
        <ele>63.3</ele>
        <time>2020-06-07T10:40:35Z</time>
      </trkpt>
      <trkpt lat="47.80218" lon="-3.58136">
        <ele>63.3</ele>
        <time>2020-06-07T10:40:36Z</time>
      </trkpt>
      <trkpt lat="47.80218" lon="-3.58139">
        <ele>63.3</ele>
        <time>2020-06-07T10:40:37Z</time>
      </trkpt>
      <trkpt lat="47.80218" lon="-3.58143">
        <ele>63.2</ele>
        <time>2020-06-07T10:40:38Z</time>
      </trkpt>
      <trkpt lat="47.80218" lon="-3.58144">
        <ele>63.2</ele>
        <time>2020-06-07T10:40:39Z</time>
      </trkpt>
      <trkpt lat="47.80217" lon="-3.58149">
        <ele>63.2</ele>
        <time>2020-06-07T10:40:40Z</time>
      </trkpt>
      <trkpt lat="47.80217" lon="-3.5815">
        <ele>63.1</ele>
        <time>2020-06-07T10:40:41Z</time>
      </trkpt>
      <trkpt lat="47.80215" lon="-3.58154">
        <ele>63.1</ele>
        <time>2020-06-07T10:40:42Z</time>
      </trkpt>
      <trkpt lat="47.80214" lon="-3.58155">
        <ele>63.1</ele>
        <time>2020-06-07T10:40:43Z</time>
      </trkpt>
      <trkpt lat="47.80211" lon="-3.58157">
        <ele>63</ele>
        <time>2020-06-07T10:40:44Z</time>
      </trkpt>
      <trkpt lat="47.8021" lon="-3.58158">
        <ele>63</ele>
        <time>2020-06-07T10:40:45Z</time>
      </trkpt>
      <trkpt lat="47.80206" lon="-3.58161">
        <ele>62.9</ele>
        <time>2020-06-07T10:40:46Z</time>
      </trkpt>
      <trkpt lat="47.80204" lon="-3.58162">
        <ele>62.9</ele>
        <time>2020-06-07T10:40:47Z</time>
      </trkpt>
      <trkpt lat="47.80201" lon="-3.58165">
        <ele>62.8</ele>
        <time>2020-06-07T10:40:48Z</time>
      </trkpt>
      <trkpt lat="47.80201" lon="-3.58166">
        <ele>62.8</ele>
        <time>2020-06-07T10:40:49Z</time>
      </trkpt>
      <trkpt lat="47.80198" lon="-3.58168">
        <ele>62.8</ele>
        <time>2020-06-07T10:40:50Z</time>
      </trkpt>
      <trkpt lat="47.80194" lon="-3.58173">
        <ele>62.7</ele>
        <time>2020-06-07T10:40:51Z</time>
      </trkpt>
      <trkpt lat="47.80193" lon="-3.58174">
        <ele>62.7</ele>
        <time>2020-06-07T10:40:52Z</time>
      </trkpt>
      <trkpt lat="47.80189" lon="-3.58177">
        <ele>62.6</ele>
        <time>2020-06-07T10:40:53Z</time>
      </trkpt>
      <trkpt lat="47.80186" lon="-3.5818">
        <ele>62.5</ele>
        <time>2020-06-07T10:40:54Z</time>
      </trkpt>
      <trkpt lat="47.80183" lon="-3.58184">
        <ele>62.5</ele>
        <time>2020-06-07T10:40:55Z</time>
      </trkpt>
      <trkpt lat="47.80181" lon="-3.58188">
        <ele>62.4</ele>
        <time>2020-06-07T10:40:56Z</time>
      </trkpt>
      <trkpt lat="47.80178" lon="-3.58192">
        <ele>62.4</ele>
        <time>2020-06-07T10:40:57Z</time>
      </trkpt>
      <trkpt lat="47.80175" lon="-3.58195">
        <ele>62.3</ele>
        <time>2020-06-07T10:40:58Z</time>
      </trkpt>
      <trkpt lat="47.80172" lon="-3.58199">
        <ele>62.2</ele>
        <time>2020-06-07T10:40:59Z</time>
      </trkpt>
      <trkpt lat="47.8017" lon="-3.58203">
        <ele>62.2</ele>
        <time>2020-06-07T10:41:00Z</time>
      </trkpt>
      <trkpt lat="47.80167" lon="-3.58206">
        <ele>61.3</ele>
        <time>2020-06-07T10:41:01Z</time>
      </trkpt>
      <trkpt lat="47.80163" lon="-3.58209">
        <ele>61.3</ele>
        <time>2020-06-07T10:41:02Z</time>
      </trkpt>
      <trkpt lat="47.80159" lon="-3.58214">
        <ele>61.3</ele>
        <time>2020-06-07T10:41:03Z</time>
      </trkpt>
      <trkpt lat="47.80156" lon="-3.58218">
        <ele>61.2</ele>
        <time>2020-06-07T10:41:04Z</time>
      </trkpt>
      <trkpt lat="47.80152" lon="-3.58223">
        <ele>61.2</ele>
        <time>2020-06-07T10:41:05Z</time>
      </trkpt>
      <trkpt lat="47.80149" lon="-3.58227">
        <ele>61.2</ele>
        <time>2020-06-07T10:41:06Z</time>
      </trkpt>
      <trkpt lat="47.80145" lon="-3.58231">
        <ele>61.2</ele>
        <time>2020-06-07T10:41:07Z</time>
      </trkpt>
      <trkpt lat="47.80143" lon="-3.58235">
        <ele>61.2</ele>
        <time>2020-06-07T10:41:08Z</time>
      </trkpt>
      <trkpt lat="47.80139" lon="-3.58243">
        <ele>61.2</ele>
        <time>2020-06-07T10:41:09Z</time>
      </trkpt>
      <trkpt lat="47.80134" lon="-3.58251">
        <ele>61.1</ele>
        <time>2020-06-07T10:41:10Z</time>
      </trkpt>
      <trkpt lat="47.8013" lon="-3.58259">
        <ele>61.1</ele>
        <time>2020-06-07T10:41:11Z</time>
      </trkpt>
      <trkpt lat="47.80125" lon="-3.58266">
        <ele>61</ele>
        <time>2020-06-07T10:41:12Z</time>
      </trkpt>
      <trkpt lat="47.80121" lon="-3.58274">
        <ele>61</ele>
        <time>2020-06-07T10:41:13Z</time>
      </trkpt>
      <trkpt lat="47.80116" lon="-3.58281">
        <ele>61</ele>
        <time>2020-06-07T10:41:14Z</time>
      </trkpt>
      <trkpt lat="47.80111" lon="-3.58286">
        <ele>60.9</ele>
        <time>2020-06-07T10:41:15Z</time>
      </trkpt>
      <trkpt lat="47.80106" lon="-3.58291">
        <ele>60.9</ele>
        <time>2020-06-07T10:41:16Z</time>
      </trkpt>
      <trkpt lat="47.80101" lon="-3.58296">
        <ele>60.9</ele>
        <time>2020-06-07T10:41:17Z</time>
      </trkpt>
      <trkpt lat="47.80095" lon="-3.58301">
        <ele>61</ele>
        <time>2020-06-07T10:41:18Z</time>
      </trkpt>
      <trkpt lat="47.8009" lon="-3.58307">
        <ele>61</ele>
        <time>2020-06-07T10:41:19Z</time>
      </trkpt>
      <trkpt lat="47.80085" lon="-3.58312">
        <ele>61</ele>
        <time>2020-06-07T10:41:20Z</time>
      </trkpt>
      <trkpt lat="47.80081" lon="-3.58316">
        <ele>60.9</ele>
        <time>2020-06-07T10:41:21Z</time>
      </trkpt>
      <trkpt lat="47.80077" lon="-3.58319">
        <ele>60.9</ele>
        <time>2020-06-07T10:41:22Z</time>
      </trkpt>
      <trkpt lat="47.80072" lon="-3.58323">
        <ele>60.8</ele>
        <time>2020-06-07T10:41:23Z</time>
      </trkpt>
      <trkpt lat="47.80066" lon="-3.58327">
        <ele>60.8</ele>
        <time>2020-06-07T10:41:24Z</time>
      </trkpt>
      <trkpt lat="47.80061" lon="-3.58331">
        <ele>60.8</ele>
        <time>2020-06-07T10:41:25Z</time>
      </trkpt>
      <trkpt lat="47.80055" lon="-3.58334">
        <ele>60.8</ele>
        <time>2020-06-07T10:41:26Z</time>
      </trkpt>
      <trkpt lat="47.80049" lon="-3.58338">
        <ele>60.8</ele>
        <time>2020-06-07T10:41:27Z</time>
      </trkpt>
      <trkpt lat="47.80045" lon="-3.58342">
        <ele>60.8</ele>
        <time>2020-06-07T10:41:28Z</time>
      </trkpt>
      <trkpt lat="47.8004" lon="-3.58347">
        <ele>60.8</ele>
        <time>2020-06-07T10:41:29Z</time>
      </trkpt>
      <trkpt lat="47.80036" lon="-3.58351">
        <ele>60.7</ele>
        <time>2020-06-07T10:41:30Z</time>
      </trkpt>
      <trkpt lat="47.80031" lon="-3.58355">
        <ele>60.6</ele>
        <time>2020-06-07T10:41:31Z</time>
      </trkpt>
      <trkpt lat="47.80027" lon="-3.5836">
        <ele>60.5</ele>
        <time>2020-06-07T10:41:32Z</time>
      </trkpt>
      <trkpt lat="47.80023" lon="-3.58364">
        <ele>60.5</ele>
        <time>2020-06-07T10:41:33Z</time>
      </trkpt>
      <trkpt lat="47.80018" lon="-3.58368">
        <ele>60.4</ele>
        <time>2020-06-07T10:41:34Z</time>
      </trkpt>
      <trkpt lat="47.80014" lon="-3.58372">
        <ele>60.3</ele>
        <time>2020-06-07T10:41:35Z</time>
      </trkpt>
      <trkpt lat="47.8001" lon="-3.58375">
        <ele>60.3</ele>
        <time>2020-06-07T10:41:36Z</time>
      </trkpt>
      <trkpt lat="47.80006" lon="-3.58378">
        <ele>60.2</ele>
        <time>2020-06-07T10:41:37Z</time>
      </trkpt>
      <trkpt lat="47.80002" lon="-3.58381">
        <ele>60.2</ele>
        <time>2020-06-07T10:41:38Z</time>
      </trkpt>
      <trkpt lat="47.79997" lon="-3.58386">
        <ele>60.1</ele>
        <time>2020-06-07T10:41:39Z</time>
      </trkpt>
      <trkpt lat="47.79993" lon="-3.58389">
        <ele>60.1</ele>
        <time>2020-06-07T10:41:40Z</time>
      </trkpt>
      <trkpt lat="47.79988" lon="-3.58392">
        <ele>60.1</ele>
        <time>2020-06-07T10:41:41Z</time>
      </trkpt>
      <trkpt lat="47.79982" lon="-3.58395">
        <ele>60</ele>
        <time>2020-06-07T10:41:42Z</time>
      </trkpt>
      <trkpt lat="47.79977" lon="-3.58398">
        <ele>60</ele>
        <time>2020-06-07T10:41:43Z</time>
      </trkpt>
      <trkpt lat="47.79971" lon="-3.58403">
        <ele>59.9</ele>
        <time>2020-06-07T10:41:44Z</time>
      </trkpt>
      <trkpt lat="47.79966" lon="-3.58407">
        <ele>59.9</ele>
        <time>2020-06-07T10:41:45Z</time>
      </trkpt>
      <trkpt lat="47.7996" lon="-3.58411">
        <ele>59.8</ele>
        <time>2020-06-07T10:41:46Z</time>
      </trkpt>
      <trkpt lat="47.79954" lon="-3.58415">
        <ele>59.7</ele>
        <time>2020-06-07T10:41:47Z</time>
      </trkpt>
      <trkpt lat="47.79949" lon="-3.58419">
        <ele>59.6</ele>
        <time>2020-06-07T10:41:48Z</time>
      </trkpt>
      <trkpt lat="47.79943" lon="-3.58424">
        <ele>59.5</ele>
        <time>2020-06-07T10:41:49Z</time>
      </trkpt>
      <trkpt lat="47.79937" lon="-3.58428">
        <ele>59.4</ele>
        <time>2020-06-07T10:41:50Z</time>
      </trkpt>
      <trkpt lat="47.79931" lon="-3.58432">
        <ele>59.3</ele>
        <time>2020-06-07T10:41:51Z</time>
      </trkpt>
      <trkpt lat="47.79925" lon="-3.58436">
        <ele>59.1</ele>
        <time>2020-06-07T10:41:52Z</time>
      </trkpt>
      <trkpt lat="47.79918" lon="-3.5844">
        <ele>59</ele>
        <time>2020-06-07T10:41:53Z</time>
      </trkpt>
      <trkpt lat="47.79912" lon="-3.58443">
        <ele>58.9</ele>
        <time>2020-06-07T10:41:54Z</time>
      </trkpt>
      <trkpt lat="47.79905" lon="-3.58447">
        <ele>58.8</ele>
        <time>2020-06-07T10:41:55Z</time>
      </trkpt>
      <trkpt lat="47.79898" lon="-3.5845">
        <ele>58.6</ele>
        <time>2020-06-07T10:41:56Z</time>
      </trkpt>
      <trkpt lat="47.79892" lon="-3.58453">
        <ele>58.5</ele>
        <time>2020-06-07T10:41:57Z</time>
      </trkpt>
      <trkpt lat="47.79886" lon="-3.58456">
        <ele>58.4</ele>
        <time>2020-06-07T10:41:58Z</time>
      </trkpt>
      <trkpt lat="47.79881" lon="-3.5846">
        <ele>58.3</ele>
        <time>2020-06-07T10:41:59Z</time>
      </trkpt>
      <trkpt lat="47.79875" lon="-3.58463">
        <ele>58.2</ele>
        <time>2020-06-07T10:42:00Z</time>
      </trkpt>
      <trkpt lat="47.79868" lon="-3.58466">
        <ele>58</ele>
        <time>2020-06-07T10:42:01Z</time>
      </trkpt>
      <trkpt lat="47.79862" lon="-3.5847">
        <ele>57.9</ele>
        <time>2020-06-07T10:42:02Z</time>
      </trkpt>
      <trkpt lat="47.79856" lon="-3.58472">
        <ele>57.8</ele>
        <time>2020-06-07T10:42:03Z</time>
      </trkpt>
      <trkpt lat="47.79849" lon="-3.58475">
        <ele>57.6</ele>
        <time>2020-06-07T10:42:04Z</time>
      </trkpt>
      <trkpt lat="47.79843" lon="-3.58478">
        <ele>57.5</ele>
        <time>2020-06-07T10:42:05Z</time>
      </trkpt>
      <trkpt lat="47.79838" lon="-3.5848">
        <ele>57.4</ele>
        <time>2020-06-07T10:42:06Z</time>
      </trkpt>
      <trkpt lat="47.79832" lon="-3.58483">
        <ele>57.3</ele>
        <time>2020-06-07T10:42:07Z</time>
      </trkpt>
      <trkpt lat="47.79826" lon="-3.58487">
        <ele>57.2</ele>
        <time>2020-06-07T10:42:08Z</time>
      </trkpt>
      <trkpt lat="47.7982" lon="-3.58489">
        <ele>57.1</ele>
        <time>2020-06-07T10:42:09Z</time>
      </trkpt>
      <trkpt lat="47.79815" lon="-3.58491">
        <ele>57.1</ele>
        <time>2020-06-07T10:42:10Z</time>
      </trkpt>
      <trkpt lat="47.7981" lon="-3.58494">
        <ele>57</ele>
        <time>2020-06-07T10:42:11Z</time>
      </trkpt>
      <trkpt lat="47.79804" lon="-3.58496">
        <ele>57</ele>
        <time>2020-06-07T10:42:12Z</time>
      </trkpt>
      <trkpt lat="47.79798" lon="-3.58498">
        <ele>57</ele>
        <time>2020-06-07T10:42:13Z</time>
      </trkpt>
      <trkpt lat="47.79792" lon="-3.58502">
        <ele>56.9</ele>
        <time>2020-06-07T10:42:14Z</time>
      </trkpt>
      <trkpt lat="47.79786" lon="-3.58506">
        <ele>56.9</ele>
        <time>2020-06-07T10:42:15Z</time>
      </trkpt>
      <trkpt lat="47.79781" lon="-3.58509">
        <ele>56.9</ele>
        <time>2020-06-07T10:42:16Z</time>
      </trkpt>
      <trkpt lat="47.79776" lon="-3.58512">
        <ele>56.9</ele>
        <time>2020-06-07T10:42:17Z</time>
      </trkpt>
      <trkpt lat="47.7977" lon="-3.58515">
        <ele>56.9</ele>
        <time>2020-06-07T10:42:18Z</time>
      </trkpt>
      <trkpt lat="47.79764" lon="-3.58518">
        <ele>57</ele>
        <time>2020-06-07T10:42:19Z</time>
      </trkpt>
      <trkpt lat="47.79758" lon="-3.58522">
        <ele>57.1</ele>
        <time>2020-06-07T10:42:20Z</time>
      </trkpt>
      <trkpt lat="47.79752" lon="-3.58527">
        <ele>57.2</ele>
        <time>2020-06-07T10:42:21Z</time>
      </trkpt>
      <trkpt lat="47.79747" lon="-3.58529">
        <ele>57.3</ele>
        <time>2020-06-07T10:42:22Z</time>
      </trkpt>
      <trkpt lat="47.79741" lon="-3.58533">
        <ele>57.4</ele>
        <time>2020-06-07T10:42:23Z</time>
      </trkpt>
      <trkpt lat="47.79736" lon="-3.58536">
        <ele>57.5</ele>
        <time>2020-06-07T10:42:24Z</time>
      </trkpt>
      <trkpt lat="47.7973" lon="-3.58539">
        <ele>57.6</ele>
        <time>2020-06-07T10:42:25Z</time>
      </trkpt>
      <trkpt lat="47.79723" lon="-3.58541">
        <ele>57.8</ele>
        <time>2020-06-07T10:42:26Z</time>
      </trkpt>
      <trkpt lat="47.79716" lon="-3.58543">
        <ele>58</ele>
        <time>2020-06-07T10:42:27Z</time>
      </trkpt>
      <trkpt lat="47.79711" lon="-3.58546">
        <ele>58.2</ele>
        <time>2020-06-07T10:42:28Z</time>
      </trkpt>
      <trkpt lat="47.79705" lon="-3.58548">
        <ele>58.4</ele>
        <time>2020-06-07T10:42:29Z</time>
      </trkpt>
      <trkpt lat="47.79699" lon="-3.58549">
        <ele>58.6</ele>
        <time>2020-06-07T10:42:30Z</time>
      </trkpt>
      <trkpt lat="47.79694" lon="-3.5855">
        <ele>58.8</ele>
        <time>2020-06-07T10:42:31Z</time>
      </trkpt>
      <trkpt lat="47.79689" lon="-3.58551">
        <ele>58.9</ele>
        <time>2020-06-07T10:42:32Z</time>
      </trkpt>
      <trkpt lat="47.79684" lon="-3.58553">
        <ele>59.1</ele>
        <time>2020-06-07T10:42:33Z</time>
      </trkpt>
      <trkpt lat="47.7968" lon="-3.58554">
        <ele>59.3</ele>
        <time>2020-06-07T10:42:34Z</time>
      </trkpt>
      <trkpt lat="47.79676" lon="-3.58556">
        <ele>59.5</ele>
        <time>2020-06-07T10:42:35Z</time>
      </trkpt>
      <trkpt lat="47.79671" lon="-3.58558">
        <ele>59.7</ele>
        <time>2020-06-07T10:42:36Z</time>
      </trkpt>
      <trkpt lat="47.79668" lon="-3.58559">
        <ele>59.8</ele>
        <time>2020-06-07T10:42:37Z</time>
      </trkpt>
      <trkpt lat="47.79665" lon="-3.5856">
        <ele>60</ele>
        <time>2020-06-07T10:42:38Z</time>
      </trkpt>
      <trkpt lat="47.79662" lon="-3.5856">
        <ele>60</ele>
        <time>2020-06-07T10:42:39Z</time>
      </trkpt>
      <trkpt lat="47.79658" lon="-3.5856">
        <ele>60.1</ele>
        <time>2020-06-07T10:42:40Z</time>
      </trkpt>
      <trkpt lat="47.79654" lon="-3.58559">
        <ele>60.3</ele>
        <time>2020-06-07T10:42:41Z</time>
      </trkpt>
      <trkpt lat="47.7965" lon="-3.58557">
        <ele>60.4</ele>
        <time>2020-06-07T10:42:42Z</time>
      </trkpt>
      <trkpt lat="47.79646" lon="-3.58556">
        <ele>60.4</ele>
        <time>2020-06-07T10:42:43Z</time>
      </trkpt>
      <trkpt lat="47.79641" lon="-3.58555">
        <ele>60.4</ele>
        <time>2020-06-07T10:42:44Z</time>
      </trkpt>
      <trkpt lat="47.79637" lon="-3.58554">
        <ele>60.4</ele>
        <time>2020-06-07T10:42:45Z</time>
      </trkpt>
      <trkpt lat="47.79633" lon="-3.58554">
        <ele>60.3</ele>
        <time>2020-06-07T10:42:46Z</time>
      </trkpt>
      <trkpt lat="47.79629" lon="-3.58553">
        <ele>60.3</ele>
        <time>2020-06-07T10:42:47Z</time>
      </trkpt>
      <trkpt lat="47.79626" lon="-3.58553">
        <ele>60.3</ele>
        <time>2020-06-07T10:42:48Z</time>
      </trkpt>
      <trkpt lat="47.79623" lon="-3.58553">
        <ele>60.3</ele>
        <time>2020-06-07T10:42:49Z</time>
      </trkpt>
      <trkpt lat="47.7962" lon="-3.58553">
        <ele>60.3</ele>
        <time>2020-06-07T10:42:50Z</time>
      </trkpt>
      <trkpt lat="47.79619" lon="-3.58553">
        <ele>60.3</ele>
        <time>2020-06-07T10:42:51Z</time>
      </trkpt>
      <trkpt lat="47.79618" lon="-3.58553">
        <ele>60.3</ele>
        <time>2020-06-07T10:42:52Z</time>
      </trkpt>
      <trkpt lat="47.79617" lon="-3.58554">
        <ele>60.3</ele>
        <time>2020-06-07T10:42:53Z</time>
      </trkpt>
      <trkpt lat="47.79616" lon="-3.58558">
        <ele>60.3</ele>
        <time>2020-06-07T10:42:54Z</time>
      </trkpt>
      <trkpt lat="47.79615" lon="-3.5856">
        <ele>60.2</ele>
        <time>2020-06-07T10:42:55Z</time>
      </trkpt>
      <trkpt lat="47.79614" lon="-3.58565">
        <ele>60.2</ele>
        <time>2020-06-07T10:42:56Z</time>
      </trkpt>
      <trkpt lat="47.79612" lon="-3.58572">
        <ele>60.2</ele>
        <time>2020-06-07T10:42:57Z</time>
      </trkpt>
      <trkpt lat="47.7961" lon="-3.58578">
        <ele>60.2</ele>
        <time>2020-06-07T10:42:58Z</time>
      </trkpt>
      <trkpt lat="47.79608" lon="-3.58584">
        <ele>60.1</ele>
        <time>2020-06-07T10:42:59Z</time>
      </trkpt>
      <trkpt lat="47.79606" lon="-3.5859">
        <ele>60</ele>
        <time>2020-06-07T10:43:00Z</time>
      </trkpt>
      <trkpt lat="47.79603" lon="-3.58595">
        <ele>60</ele>
        <time>2020-06-07T10:43:01Z</time>
      </trkpt>
      <trkpt lat="47.79601" lon="-3.58601">
        <ele>59.8</ele>
        <time>2020-06-07T10:43:02Z</time>
      </trkpt>
      <trkpt lat="47.79599" lon="-3.58606">
        <ele>59.6</ele>
        <time>2020-06-07T10:43:03Z</time>
      </trkpt>
      <trkpt lat="47.79597" lon="-3.58611">
        <ele>59.4</ele>
        <time>2020-06-07T10:43:04Z</time>
      </trkpt>
      <trkpt lat="47.79595" lon="-3.58616">
        <ele>59.3</ele>
        <time>2020-06-07T10:43:05Z</time>
      </trkpt>
      <trkpt lat="47.79592" lon="-3.58622">
        <ele>59.1</ele>
        <time>2020-06-07T10:43:06Z</time>
      </trkpt>
      <trkpt lat="47.7959" lon="-3.58627">
        <ele>59</ele>
        <time>2020-06-07T10:43:07Z</time>
      </trkpt>
      <trkpt lat="47.79587" lon="-3.58632">
        <ele>58.8</ele>
        <time>2020-06-07T10:43:08Z</time>
      </trkpt>
      <trkpt lat="47.79584" lon="-3.58637">
        <ele>58.7</ele>
        <time>2020-06-07T10:43:09Z</time>
      </trkpt>
      <trkpt lat="47.79581" lon="-3.58641">
        <ele>58.5</ele>
        <time>2020-06-07T10:43:10Z</time>
      </trkpt>
      <trkpt lat="47.79577" lon="-3.58644">
        <ele>58.3</ele>
        <time>2020-06-07T10:43:11Z</time>
      </trkpt>
      <trkpt lat="47.79573" lon="-3.58646">
        <ele>58.2</ele>
        <time>2020-06-07T10:43:12Z</time>
      </trkpt>
      <trkpt lat="47.7957" lon="-3.58649">
        <ele>58.2</ele>
        <time>2020-06-07T10:43:13Z</time>
      </trkpt>
      <trkpt lat="47.79566" lon="-3.58652">
        <ele>58.1</ele>
        <time>2020-06-07T10:43:14Z</time>
      </trkpt>
      <trkpt lat="47.79562" lon="-3.58655">
        <ele>58</ele>
        <time>2020-06-07T10:43:15Z</time>
      </trkpt>
      <trkpt lat="47.79558" lon="-3.58658">
        <ele>57.9</ele>
        <time>2020-06-07T10:43:16Z</time>
      </trkpt>
      <trkpt lat="47.79553" lon="-3.58661">
        <ele>57.7</ele>
        <time>2020-06-07T10:43:17Z</time>
      </trkpt>
      <trkpt lat="47.79548" lon="-3.58665">
        <ele>57.6</ele>
        <time>2020-06-07T10:43:18Z</time>
      </trkpt>
      <trkpt lat="47.79543" lon="-3.58669">
        <ele>57.5</ele>
        <time>2020-06-07T10:43:19Z</time>
      </trkpt>
      <trkpt lat="47.79539" lon="-3.58673">
        <ele>57.4</ele>
        <time>2020-06-07T10:43:20Z</time>
      </trkpt>
      <trkpt lat="47.79534" lon="-3.58678">
        <ele>57.3</ele>
        <time>2020-06-07T10:43:21Z</time>
      </trkpt>
      <trkpt lat="47.7953" lon="-3.58681">
        <ele>57.2</ele>
        <time>2020-06-07T10:43:22Z</time>
      </trkpt>
      <trkpt lat="47.79526" lon="-3.58686">
        <ele>57</ele>
        <time>2020-06-07T10:43:23Z</time>
      </trkpt>
      <trkpt lat="47.79523" lon="-3.58689">
        <ele>56.9</ele>
        <time>2020-06-07T10:43:24Z</time>
      </trkpt>
      <trkpt lat="47.79518" lon="-3.58692">
        <ele>56.8</ele>
        <time>2020-06-07T10:43:25Z</time>
      </trkpt>
      <trkpt lat="47.79514" lon="-3.58695">
        <ele>56.7</ele>
        <time>2020-06-07T10:43:26Z</time>
      </trkpt>
      <trkpt lat="47.79509" lon="-3.58698">
        <ele>56.5</ele>
        <time>2020-06-07T10:43:27Z</time>
      </trkpt>
      <trkpt lat="47.79505" lon="-3.58701">
        <ele>56.3</ele>
        <time>2020-06-07T10:43:28Z</time>
      </trkpt>
      <trkpt lat="47.79499" lon="-3.58705">
        <ele>56.1</ele>
        <time>2020-06-07T10:43:29Z</time>
      </trkpt>
      <trkpt lat="47.79494" lon="-3.58708">
        <ele>55.9</ele>
        <time>2020-06-07T10:43:30Z</time>
      </trkpt>
      <trkpt lat="47.79488" lon="-3.58712">
        <ele>55.7</ele>
        <time>2020-06-07T10:43:31Z</time>
      </trkpt>
      <trkpt lat="47.79483" lon="-3.58715">
        <ele>55.4</ele>
        <time>2020-06-07T10:43:32Z</time>
      </trkpt>
      <trkpt lat="47.79477" lon="-3.58719">
        <ele>55.2</ele>
        <time>2020-06-07T10:43:33Z</time>
      </trkpt>
      <trkpt lat="47.79471" lon="-3.58724">
        <ele>54.8</ele>
        <time>2020-06-07T10:43:34Z</time>
      </trkpt>
      <trkpt lat="47.79464" lon="-3.58729">
        <ele>54.5</ele>
        <time>2020-06-07T10:43:35Z</time>
      </trkpt>
      <trkpt lat="47.79457" lon="-3.58735">
        <ele>54.1</ele>
        <time>2020-06-07T10:43:36Z</time>
      </trkpt>
      <trkpt lat="47.79449" lon="-3.58743">
        <ele>53.6</ele>
        <time>2020-06-07T10:43:37Z</time>
      </trkpt>
      <trkpt lat="47.79442" lon="-3.58751">
        <ele>53.1</ele>
        <time>2020-06-07T10:43:38Z</time>
      </trkpt>
      <trkpt lat="47.79433" lon="-3.58758">
        <ele>52.6</ele>
        <time>2020-06-07T10:43:39Z</time>
      </trkpt>
      <trkpt lat="47.79426" lon="-3.58764">
        <ele>52.2</ele>
        <time>2020-06-07T10:43:40Z</time>
      </trkpt>
      <trkpt lat="47.79419" lon="-3.58768">
        <ele>51.7</ele>
        <time>2020-06-07T10:43:41Z</time>
      </trkpt>
      <trkpt lat="47.79411" lon="-3.58773">
        <ele>51.3</ele>
        <time>2020-06-07T10:43:42Z</time>
      </trkpt>
      <trkpt lat="47.79404" lon="-3.58778">
        <ele>50.9</ele>
        <time>2020-06-07T10:43:43Z</time>
      </trkpt>
      <trkpt lat="47.79397" lon="-3.58783">
        <ele>50.5</ele>
        <time>2020-06-07T10:43:44Z</time>
      </trkpt>
      <trkpt lat="47.79389" lon="-3.58789">
        <ele>50.1</ele>
        <time>2020-06-07T10:43:45Z</time>
      </trkpt>
      <trkpt lat="47.79383" lon="-3.58793">
        <ele>49.7</ele>
        <time>2020-06-07T10:43:46Z</time>
      </trkpt>
      <trkpt lat="47.79376" lon="-3.58799">
        <ele>49.4</ele>
        <time>2020-06-07T10:43:47Z</time>
      </trkpt>
      <trkpt lat="47.79369" lon="-3.58807">
        <ele>49</ele>
        <time>2020-06-07T10:43:48Z</time>
      </trkpt>
      <trkpt lat="47.79361" lon="-3.58815">
        <ele>48.6</ele>
        <time>2020-06-07T10:43:49Z</time>
      </trkpt>
      <trkpt lat="47.79353" lon="-3.58823">
        <ele>48.3</ele>
        <time>2020-06-07T10:43:50Z</time>
      </trkpt>
      <trkpt lat="47.79347" lon="-3.58831">
        <ele>48.2</ele>
        <time>2020-06-07T10:43:51Z</time>
      </trkpt>
      <trkpt lat="47.79341" lon="-3.58839">
        <ele>48.1</ele>
        <time>2020-06-07T10:43:52Z</time>
      </trkpt>
      <trkpt lat="47.79336" lon="-3.58849">
        <ele>48</ele>
        <time>2020-06-07T10:43:53Z</time>
      </trkpt>
      <trkpt lat="47.7933" lon="-3.58858">
        <ele>48.1</ele>
        <time>2020-06-07T10:43:54Z</time>
      </trkpt>
      <trkpt lat="47.79326" lon="-3.58869">
        <ele>48.3</ele>
        <time>2020-06-07T10:43:55Z</time>
      </trkpt>
      <trkpt lat="47.79322" lon="-3.58879">
        <ele>48.4</ele>
        <time>2020-06-07T10:43:56Z</time>
      </trkpt>
      <trkpt lat="47.79319" lon="-3.58888">
        <ele>48.6</ele>
        <time>2020-06-07T10:43:57Z</time>
      </trkpt>
      <trkpt lat="47.79316" lon="-3.58897">
        <ele>48.7</ele>
        <time>2020-06-07T10:43:58Z</time>
      </trkpt>
      <trkpt lat="47.79314" lon="-3.58906">
        <ele>48.9</ele>
        <time>2020-06-07T10:43:59Z</time>
      </trkpt>
      <trkpt lat="47.79312" lon="-3.58914">
        <ele>49</ele>
        <time>2020-06-07T10:44:00Z</time>
      </trkpt>
      <trkpt lat="47.79311" lon="-3.58923">
        <ele>49.2</ele>
        <time>2020-06-07T10:44:01Z</time>
      </trkpt>
      <trkpt lat="47.7931" lon="-3.5893">
        <ele>49.3</ele>
        <time>2020-06-07T10:44:02Z</time>
      </trkpt>
      <trkpt lat="47.7931" lon="-3.58937">
        <ele>49.3</ele>
        <time>2020-06-07T10:44:03Z</time>
      </trkpt>
      <trkpt lat="47.79309" lon="-3.58944">
        <ele>49.4</ele>
        <time>2020-06-07T10:44:04Z</time>
      </trkpt>
      <trkpt lat="47.79307" lon="-3.58952">
        <ele>49.5</ele>
        <time>2020-06-07T10:44:05Z</time>
      </trkpt>
      <trkpt lat="47.79306" lon="-3.58961">
        <ele>49.6</ele>
        <time>2020-06-07T10:44:06Z</time>
      </trkpt>
      <trkpt lat="47.79304" lon="-3.5897">
        <ele>49.6</ele>
        <time>2020-06-07T10:44:07Z</time>
      </trkpt>
      <trkpt lat="47.79302" lon="-3.58977">
        <ele>49.7</ele>
        <time>2020-06-07T10:44:08Z</time>
      </trkpt>
      <trkpt lat="47.793" lon="-3.58985">
        <ele>49.7</ele>
        <time>2020-06-07T10:44:09Z</time>
      </trkpt>
      <trkpt lat="47.79297" lon="-3.58993">
        <ele>49.6</ele>
        <time>2020-06-07T10:44:10Z</time>
      </trkpt>
      <trkpt lat="47.79294" lon="-3.59001">
        <ele>49.6</ele>
        <time>2020-06-07T10:44:11Z</time>
      </trkpt>
      <trkpt lat="47.7929" lon="-3.59008">
        <ele>49.6</ele>
        <time>2020-06-07T10:44:12Z</time>
      </trkpt>
      <trkpt lat="47.79284" lon="-3.59012">
        <ele>49.5</ele>
        <time>2020-06-07T10:44:13Z</time>
      </trkpt>
      <trkpt lat="47.79278" lon="-3.59016">
        <ele>49.5</ele>
        <time>2020-06-07T10:44:14Z</time>
      </trkpt>
      <trkpt lat="47.79272" lon="-3.59021">
        <ele>49.5</ele>
        <time>2020-06-07T10:44:15Z</time>
      </trkpt>
      <trkpt lat="47.79265" lon="-3.59025">
        <ele>49.4</ele>
        <time>2020-06-07T10:44:16Z</time>
      </trkpt>
      <trkpt lat="47.79259" lon="-3.5903">
        <ele>49.3</ele>
        <time>2020-06-07T10:44:17Z</time>
      </trkpt>
      <trkpt lat="47.79253" lon="-3.59033">
        <ele>49.2</ele>
        <time>2020-06-07T10:44:18Z</time>
      </trkpt>
      <trkpt lat="47.79246" lon="-3.59036">
        <ele>49.2</ele>
        <time>2020-06-07T10:44:19Z</time>
      </trkpt>
      <trkpt lat="47.7924" lon="-3.59039">
        <ele>49.2</ele>
        <time>2020-06-07T10:44:20Z</time>
      </trkpt>
      <trkpt lat="47.79233" lon="-3.59043">
        <ele>49.2</ele>
        <time>2020-06-07T10:44:21Z</time>
      </trkpt>
      <trkpt lat="47.79228" lon="-3.59044">
        <ele>49.3</ele>
        <time>2020-06-07T10:44:22Z</time>
      </trkpt>
      <trkpt lat="47.79219" lon="-3.59047">
        <ele>49.3</ele>
        <time>2020-06-07T10:44:23Z</time>
      </trkpt>
      <trkpt lat="47.79212" lon="-3.5905">
        <ele>49.2</ele>
        <time>2020-06-07T10:44:24Z</time>
      </trkpt>
      <trkpt lat="47.79206" lon="-3.59052">
        <ele>49.2</ele>
        <time>2020-06-07T10:44:25Z</time>
      </trkpt>
      <trkpt lat="47.792" lon="-3.59054">
        <ele>49.2</ele>
        <time>2020-06-07T10:44:26Z</time>
      </trkpt>
      <trkpt lat="47.79193" lon="-3.59056">
        <ele>49.2</ele>
        <time>2020-06-07T10:44:27Z</time>
      </trkpt>
      <trkpt lat="47.79186" lon="-3.59059">
        <ele>49.2</ele>
        <time>2020-06-07T10:44:28Z</time>
      </trkpt>
      <trkpt lat="47.79179" lon="-3.59062">
        <ele>49.2</ele>
        <time>2020-06-07T10:44:29Z</time>
      </trkpt>
      <trkpt lat="47.79172" lon="-3.59063">
        <ele>49.2</ele>
        <time>2020-06-07T10:44:30Z</time>
      </trkpt>
      <trkpt lat="47.79166" lon="-3.59064">
        <ele>49.2</ele>
        <time>2020-06-07T10:44:31Z</time>
      </trkpt>
      <trkpt lat="47.79158" lon="-3.59065">
        <ele>49.2</ele>
        <time>2020-06-07T10:44:32Z</time>
      </trkpt>
      <trkpt lat="47.7915" lon="-3.59068">
        <ele>49.1</ele>
        <time>2020-06-07T10:44:33Z</time>
      </trkpt>
      <trkpt lat="47.79143" lon="-3.5907">
        <ele>48.9</ele>
        <time>2020-06-07T10:44:34Z</time>
      </trkpt>
      <trkpt lat="47.79137" lon="-3.59072">
        <ele>48.8</ele>
        <time>2020-06-07T10:44:35Z</time>
      </trkpt>
      <trkpt lat="47.7913" lon="-3.59074">
        <ele>48.6</ele>
        <time>2020-06-07T10:44:36Z</time>
      </trkpt>
      <trkpt lat="47.79124" lon="-3.59075">
        <ele>48.4</ele>
        <time>2020-06-07T10:44:37Z</time>
      </trkpt>
      <trkpt lat="47.79116" lon="-3.59077">
        <ele>48.2</ele>
        <time>2020-06-07T10:44:38Z</time>
      </trkpt>
      <trkpt lat="47.79109" lon="-3.59079">
        <ele>47.9</ele>
        <time>2020-06-07T10:44:39Z</time>
      </trkpt>
      <trkpt lat="47.79102" lon="-3.59083">
        <ele>47.6</ele>
        <time>2020-06-07T10:44:40Z</time>
      </trkpt>
      <trkpt lat="47.79095" lon="-3.59086">
        <ele>47.3</ele>
        <time>2020-06-07T10:44:41Z</time>
      </trkpt>
      <trkpt lat="47.79089" lon="-3.59089">
        <ele>47.1</ele>
        <time>2020-06-07T10:44:42Z</time>
      </trkpt>
      <trkpt lat="47.79082" lon="-3.59095">
        <ele>46.8</ele>
        <time>2020-06-07T10:44:43Z</time>
      </trkpt>
      <trkpt lat="47.79076" lon="-3.59101">
        <ele>46.6</ele>
        <time>2020-06-07T10:44:44Z</time>
      </trkpt>
      <trkpt lat="47.79071" lon="-3.59108">
        <ele>46.4</ele>
        <time>2020-06-07T10:44:45Z</time>
      </trkpt>
      <trkpt lat="47.79065" lon="-3.59114">
        <ele>46.1</ele>
        <time>2020-06-07T10:44:46Z</time>
      </trkpt>
      <trkpt lat="47.79058" lon="-3.59121">
        <ele>45.9</ele>
        <time>2020-06-07T10:44:47Z</time>
      </trkpt>
      <trkpt lat="47.79052" lon="-3.59128">
        <ele>45.7</ele>
        <time>2020-06-07T10:44:48Z</time>
      </trkpt>
      <trkpt lat="47.79047" lon="-3.59135">
        <ele>45.5</ele>
        <time>2020-06-07T10:44:49Z</time>
      </trkpt>
      <trkpt lat="47.79042" lon="-3.59141">
        <ele>45.2</ele>
        <time>2020-06-07T10:44:50Z</time>
      </trkpt>
      <trkpt lat="47.79037" lon="-3.59147">
        <ele>45.1</ele>
        <time>2020-06-07T10:44:51Z</time>
      </trkpt>
      <trkpt lat="47.79032" lon="-3.59153">
        <ele>44.9</ele>
        <time>2020-06-07T10:44:52Z</time>
      </trkpt>
      <trkpt lat="47.79026" lon="-3.5916">
        <ele>44.7</ele>
        <time>2020-06-07T10:44:53Z</time>
      </trkpt>
      <trkpt lat="47.7902" lon="-3.59166">
        <ele>44.5</ele>
        <time>2020-06-07T10:44:54Z</time>
      </trkpt>
      <trkpt lat="47.79016" lon="-3.5917">
        <ele>44.2</ele>
        <time>2020-06-07T10:44:55Z</time>
      </trkpt>
      <trkpt lat="47.7901" lon="-3.59176">
        <ele>44</ele>
        <time>2020-06-07T10:44:56Z</time>
      </trkpt>
      <trkpt lat="47.79005" lon="-3.59182">
        <ele>43.6</ele>
        <time>2020-06-07T10:44:57Z</time>
      </trkpt>
      <trkpt lat="47.78999" lon="-3.59188">
        <ele>43.3</ele>
        <time>2020-06-07T10:44:58Z</time>
      </trkpt>
      <trkpt lat="47.78993" lon="-3.59193">
        <ele>43</ele>
        <time>2020-06-07T10:44:59Z</time>
      </trkpt>
      <trkpt lat="47.78988" lon="-3.59199">
        <ele>42.8</ele>
        <time>2020-06-07T10:45:00Z</time>
      </trkpt>
      <trkpt lat="47.78983" lon="-3.59205">
        <ele>42.5</ele>
        <time>2020-06-07T10:45:01Z</time>
      </trkpt>
      <trkpt lat="47.78978" lon="-3.59213">
        <ele>42.1</ele>
        <time>2020-06-07T10:45:02Z</time>
      </trkpt>
      <trkpt lat="47.78972" lon="-3.5922">
        <ele>41.7</ele>
        <time>2020-06-07T10:45:03Z</time>
      </trkpt>
      <trkpt lat="47.78967" lon="-3.59227">
        <ele>41.5</ele>
        <time>2020-06-07T10:45:04Z</time>
      </trkpt>
      <trkpt lat="47.78961" lon="-3.59235">
        <ele>41.4</ele>
        <time>2020-06-07T10:45:05Z</time>
      </trkpt>
      <trkpt lat="47.78957" lon="-3.59243">
        <ele>41.2</ele>
        <time>2020-06-07T10:45:06Z</time>
      </trkpt>
      <trkpt lat="47.78952" lon="-3.59251">
        <ele>41.1</ele>
        <time>2020-06-07T10:45:07Z</time>
      </trkpt>
      <trkpt lat="47.78949" lon="-3.59259">
        <ele>41</ele>
        <time>2020-06-07T10:45:08Z</time>
      </trkpt>
      <trkpt lat="47.78946" lon="-3.59269">
        <ele>40.8</ele>
        <time>2020-06-07T10:45:09Z</time>
      </trkpt>
      <trkpt lat="47.78944" lon="-3.59278">
        <ele>40.7</ele>
        <time>2020-06-07T10:45:10Z</time>
      </trkpt>
      <trkpt lat="47.78943" lon="-3.59288">
        <ele>40.5</ele>
        <time>2020-06-07T10:45:11Z</time>
      </trkpt>
      <trkpt lat="47.78942" lon="-3.59298">
        <ele>40.4</ele>
        <time>2020-06-07T10:45:12Z</time>
      </trkpt>
      <trkpt lat="47.78942" lon="-3.59308">
        <ele>40.2</ele>
        <time>2020-06-07T10:45:13Z</time>
      </trkpt>
      <trkpt lat="47.78942" lon="-3.59319">
        <ele>40</ele>
        <time>2020-06-07T10:45:14Z</time>
      </trkpt>
      <trkpt lat="47.78943" lon="-3.59329">
        <ele>39.9</ele>
        <time>2020-06-07T10:45:15Z</time>
      </trkpt>
      <trkpt lat="47.78945" lon="-3.5934">
        <ele>39.8</ele>
        <time>2020-06-07T10:45:16Z</time>
      </trkpt>
      <trkpt lat="47.78947" lon="-3.59352">
        <ele>39.4</ele>
        <time>2020-06-07T10:45:17Z</time>
      </trkpt>
      <trkpt lat="47.78949" lon="-3.59363">
        <ele>38.9</ele>
        <time>2020-06-07T10:45:18Z</time>
      </trkpt>
      <trkpt lat="47.78952" lon="-3.59374">
        <ele>38.5</ele>
        <time>2020-06-07T10:45:19Z</time>
      </trkpt>
      <trkpt lat="47.78954" lon="-3.59384">
        <ele>38</ele>
        <time>2020-06-07T10:45:20Z</time>
      </trkpt>
      <trkpt lat="47.78957" lon="-3.59394">
        <ele>37.6</ele>
        <time>2020-06-07T10:45:21Z</time>
      </trkpt>
      <trkpt lat="47.7896" lon="-3.59405">
        <ele>37</ele>
        <time>2020-06-07T10:45:22Z</time>
      </trkpt>
      <trkpt lat="47.78963" lon="-3.59416">
        <ele>36.3</ele>
        <time>2020-06-07T10:45:23Z</time>
      </trkpt>
      <trkpt lat="47.78966" lon="-3.59428">
        <ele>35.7</ele>
        <time>2020-06-07T10:45:24Z</time>
      </trkpt>
      <trkpt lat="47.78968" lon="-3.59442">
        <ele>35</ele>
        <time>2020-06-07T10:45:25Z</time>
      </trkpt>
      <trkpt lat="47.78971" lon="-3.59456">
        <ele>34.2</ele>
        <time>2020-06-07T10:45:26Z</time>
      </trkpt>
      <trkpt lat="47.78973" lon="-3.59467">
        <ele>33.6</ele>
        <time>2020-06-07T10:45:27Z</time>
      </trkpt>
      <trkpt lat="47.78975" lon="-3.59482">
        <ele>32.7</ele>
        <time>2020-06-07T10:45:28Z</time>
      </trkpt>
      <trkpt lat="47.78977" lon="-3.59494">
        <ele>31.9</ele>
        <time>2020-06-07T10:45:29Z</time>
      </trkpt>
      <trkpt lat="47.78979" lon="-3.59508">
        <ele>31.1</ele>
        <time>2020-06-07T10:45:30Z</time>
      </trkpt>
      <trkpt lat="47.7898" lon="-3.59523">
        <ele>30.4</ele>
        <time>2020-06-07T10:45:31Z</time>
      </trkpt>
      <trkpt lat="47.78982" lon="-3.59538">
        <ele>29.8</ele>
        <time>2020-06-07T10:45:32Z</time>
      </trkpt>
      <trkpt lat="47.78983" lon="-3.59554">
        <ele>29.3</ele>
        <time>2020-06-07T10:45:33Z</time>
      </trkpt>
      <trkpt lat="47.78984" lon="-3.59571">
        <ele>29</ele>
        <time>2020-06-07T10:45:34Z</time>
      </trkpt>
      <trkpt lat="47.78984" lon="-3.5959">
        <ele>29</ele>
        <time>2020-06-07T10:45:35Z</time>
      </trkpt>
      <trkpt lat="47.78983" lon="-3.59607">
        <ele>29.2</ele>
        <time>2020-06-07T10:45:36Z</time>
      </trkpt>
      <trkpt lat="47.78981" lon="-3.59623">
        <ele>29.5</ele>
        <time>2020-06-07T10:45:37Z</time>
      </trkpt>
      <trkpt lat="47.78978" lon="-3.59637">
        <ele>29.9</ele>
        <time>2020-06-07T10:45:38Z</time>
      </trkpt>
      <trkpt lat="47.78976" lon="-3.59649">
        <ele>30.4</ele>
        <time>2020-06-07T10:45:39Z</time>
      </trkpt>
      <trkpt lat="47.78973" lon="-3.59662">
        <ele>30.9</ele>
        <time>2020-06-07T10:45:40Z</time>
      </trkpt>
      <trkpt lat="47.78967" lon="-3.59676">
        <ele>31.4</ele>
        <time>2020-06-07T10:45:41Z</time>
      </trkpt>
      <trkpt lat="47.7896" lon="-3.59689">
        <ele>31.8</ele>
        <time>2020-06-07T10:45:42Z</time>
      </trkpt>
      <trkpt lat="47.78956" lon="-3.59697">
        <ele>32.1</ele>
        <time>2020-06-07T10:45:43Z</time>
      </trkpt>
      <trkpt lat="47.78949" lon="-3.59707">
        <ele>32.5</ele>
        <time>2020-06-07T10:45:44Z</time>
      </trkpt>
      <trkpt lat="47.78941" lon="-3.59716">
        <ele>33.2</ele>
        <time>2020-06-07T10:45:45Z</time>
      </trkpt>
      <trkpt lat="47.78935" lon="-3.59722">
        <ele>33.9</ele>
        <time>2020-06-07T10:45:46Z</time>
      </trkpt>
      <trkpt lat="47.78929" lon="-3.59727">
        <ele>34.3</ele>
        <time>2020-06-07T10:45:47Z</time>
      </trkpt>
      <trkpt lat="47.78924" lon="-3.59731">
        <ele>34.6</ele>
        <time>2020-06-07T10:45:48Z</time>
      </trkpt>
      <trkpt lat="47.7892" lon="-3.59735">
        <ele>34.7</ele>
        <time>2020-06-07T10:45:49Z</time>
      </trkpt>
      <trkpt lat="47.78914" lon="-3.59739">
        <ele>34.9</ele>
        <time>2020-06-07T10:45:50Z</time>
      </trkpt>
      <trkpt lat="47.78909" lon="-3.59744">
        <ele>35</ele>
        <time>2020-06-07T10:45:51Z</time>
      </trkpt>
      <trkpt lat="47.78904" lon="-3.59747">
        <ele>35</ele>
        <time>2020-06-07T10:45:52Z</time>
      </trkpt>
      <trkpt lat="47.78898" lon="-3.5975">
        <ele>35</ele>
        <time>2020-06-07T10:45:53Z</time>
      </trkpt>
      <trkpt lat="47.78892" lon="-3.59752">
        <ele>34.9</ele>
        <time>2020-06-07T10:45:54Z</time>
      </trkpt>
      <trkpt lat="47.78886" lon="-3.59755">
        <ele>34.8</ele>
        <time>2020-06-07T10:45:55Z</time>
      </trkpt>
      <trkpt lat="47.78881" lon="-3.59758">
        <ele>34.6</ele>
        <time>2020-06-07T10:45:56Z</time>
      </trkpt>
      <trkpt lat="47.78876" lon="-3.5976">
        <ele>34.5</ele>
        <time>2020-06-07T10:45:57Z</time>
      </trkpt>
      <trkpt lat="47.78872" lon="-3.59762">
        <ele>34.3</ele>
        <time>2020-06-07T10:45:58Z</time>
      </trkpt>
      <trkpt lat="47.78867" lon="-3.59764">
        <ele>34</ele>
        <time>2020-06-07T10:45:59Z</time>
      </trkpt>
      <trkpt lat="47.78861" lon="-3.59767">
        <ele>33.7</ele>
        <time>2020-06-07T10:46:00Z</time>
      </trkpt>
      <trkpt lat="47.78857" lon="-3.59769">
        <ele>33.4</ele>
        <time>2020-06-07T10:46:01Z</time>
      </trkpt>
      <trkpt lat="47.78852" lon="-3.59772">
        <ele>33.2</ele>
        <time>2020-06-07T10:46:02Z</time>
      </trkpt>
      <trkpt lat="47.78848" lon="-3.59774">
        <ele>32.9</ele>
        <time>2020-06-07T10:46:03Z</time>
      </trkpt>
      <trkpt lat="47.78843" lon="-3.59778">
        <ele>32.6</ele>
        <time>2020-06-07T10:46:04Z</time>
      </trkpt>
      <trkpt lat="47.78838" lon="-3.59781">
        <ele>32.3</ele>
        <time>2020-06-07T10:46:05Z</time>
      </trkpt>
      <trkpt lat="47.78831" lon="-3.59783">
        <ele>32</ele>
        <time>2020-06-07T10:46:06Z</time>
      </trkpt>
      <trkpt lat="47.78825" lon="-3.59787">
        <ele>31.7</ele>
        <time>2020-06-07T10:46:07Z</time>
      </trkpt>
      <trkpt lat="47.7882" lon="-3.59791">
        <ele>31.4</ele>
        <time>2020-06-07T10:46:08Z</time>
      </trkpt>
      <trkpt lat="47.78815" lon="-3.59795">
        <ele>31.2</ele>
        <time>2020-06-07T10:46:09Z</time>
      </trkpt>
      <trkpt lat="47.7881" lon="-3.598">
        <ele>31</ele>
        <time>2020-06-07T10:46:11Z</time>
      </trkpt>
      <trkpt lat="47.78806" lon="-3.59807">
        <ele>30.9</ele>
        <time>2020-06-07T10:46:12Z</time>
      </trkpt>
      <trkpt lat="47.78803" lon="-3.59812">
        <ele>30.8</ele>
        <time>2020-06-07T10:46:13Z</time>
      </trkpt>
      <trkpt lat="47.78799" lon="-3.59818">
        <ele>30.7</ele>
        <time>2020-06-07T10:46:14Z</time>
      </trkpt>
      <trkpt lat="47.78795" lon="-3.59824">
        <ele>30.6</ele>
        <time>2020-06-07T10:46:15Z</time>
      </trkpt>
      <trkpt lat="47.78793" lon="-3.59829">
        <ele>30.5</ele>
        <time>2020-06-07T10:46:16Z</time>
      </trkpt>
      <trkpt lat="47.78795" lon="-3.59833">
        <ele>30.5</ele>
        <time>2020-06-07T10:46:17Z</time>
      </trkpt>
      <trkpt lat="47.78793" lon="-3.59838">
        <ele>30.5</ele>
        <time>2020-06-07T10:46:18Z</time>
      </trkpt>
      <trkpt lat="47.78791" lon="-3.59842">
        <ele>30.5</ele>
        <time>2020-06-07T10:46:19Z</time>
      </trkpt>
      <trkpt lat="47.7879" lon="-3.59849">
        <ele>30.4</ele>
        <time>2020-06-07T10:46:20Z</time>
      </trkpt>
      <trkpt lat="47.78789" lon="-3.59853">
        <ele>30.4</ele>
        <time>2020-06-07T10:46:21Z</time>
      </trkpt>
      <trkpt lat="47.78787" lon="-3.59857">
        <ele>30.5</ele>
        <time>2020-06-07T10:46:22Z</time>
      </trkpt>
      <trkpt lat="47.78787" lon="-3.59859">
        <ele>30.5</ele>
        <time>2020-06-07T10:46:23Z</time>
      </trkpt>
      <trkpt lat="47.78785" lon="-3.59864">
        <ele>30.5</ele>
        <time>2020-06-07T10:46:24Z</time>
      </trkpt>
      <trkpt lat="47.78784" lon="-3.59869">
        <ele>30.5</ele>
        <time>2020-06-07T10:46:25Z</time>
      </trkpt>
      <trkpt lat="47.78783" lon="-3.59874">
        <ele>30.6</ele>
        <time>2020-06-07T10:46:26Z</time>
      </trkpt>
      <trkpt lat="47.78781" lon="-3.59881">
        <ele>30.6</ele>
        <time>2020-06-07T10:46:27Z</time>
      </trkpt>
      <trkpt lat="47.7878" lon="-3.59888">
        <ele>30.7</ele>
        <time>2020-06-07T10:46:28Z</time>
      </trkpt>
      <trkpt lat="47.78779" lon="-3.59895">
        <ele>30.8</ele>
        <time>2020-06-07T10:46:29Z</time>
      </trkpt>
      <trkpt lat="47.78777" lon="-3.599">
        <ele>30.8</ele>
        <time>2020-06-07T10:46:30Z</time>
      </trkpt>
      <trkpt lat="47.78775" lon="-3.59906">
        <ele>30.9</ele>
        <time>2020-06-07T10:46:31Z</time>
      </trkpt>
      <trkpt lat="47.78775" lon="-3.59908">
        <ele>30.9</ele>
        <time>2020-06-07T10:46:32Z</time>
      </trkpt>
      <trkpt lat="47.78772" lon="-3.59915">
        <ele>31</ele>
        <time>2020-06-07T10:46:33Z</time>
      </trkpt>
      <trkpt lat="47.78769" lon="-3.5992">
        <ele>31</ele>
        <time>2020-06-07T10:46:34Z</time>
      </trkpt>
      <trkpt lat="47.78768" lon="-3.59922">
        <ele>31.1</ele>
        <time>2020-06-07T10:46:35Z</time>
      </trkpt>
      <trkpt lat="47.78761" lon="-3.59935">
        <ele>31.2</ele>
        <time>2020-06-07T10:46:36Z</time>
      </trkpt>
      <trkpt lat="47.78756" lon="-3.59942">
        <ele>31.3</ele>
        <time>2020-06-07T10:46:37Z</time>
      </trkpt>
      <trkpt lat="47.78752" lon="-3.59944">
        <ele>31.4</ele>
        <time>2020-06-07T10:46:38Z</time>
      </trkpt>
      <trkpt lat="47.78749" lon="-3.59944">
        <ele>31.4</ele>
        <time>2020-06-07T10:46:39Z</time>
      </trkpt>
      <trkpt lat="47.78745" lon="-3.59943">
        <ele>31.5</ele>
        <time>2020-06-07T10:46:40Z</time>
      </trkpt>
      <trkpt lat="47.78742" lon="-3.59942">
        <ele>31.5</ele>
        <time>2020-06-07T10:46:41Z</time>
      </trkpt>
      <trkpt lat="47.78739" lon="-3.59942">
        <ele>31.5</ele>
        <time>2020-06-07T10:46:42Z</time>
      </trkpt>
      <trkpt lat="47.78736" lon="-3.59943">
        <ele>31.5</ele>
        <time>2020-06-07T10:46:43Z</time>
      </trkpt>
      <trkpt lat="47.78731" lon="-3.59942">
        <ele>31.5</ele>
        <time>2020-06-07T10:46:44Z</time>
      </trkpt>
      <trkpt lat="47.78725" lon="-3.59942">
        <ele>31.4</ele>
        <time>2020-06-07T10:46:45Z</time>
      </trkpt>
      <trkpt lat="47.78719" lon="-3.59941">
        <ele>31.4</ele>
        <time>2020-06-07T10:46:46Z</time>
      </trkpt>
      <trkpt lat="47.78713" lon="-3.59941">
        <ele>31.4</ele>
        <time>2020-06-07T10:46:47Z</time>
      </trkpt>
      <trkpt lat="47.78707" lon="-3.59941">
        <ele>31.5</ele>
        <time>2020-06-07T10:46:48Z</time>
      </trkpt>
      <trkpt lat="47.78702" lon="-3.59942">
        <ele>31.6</ele>
        <time>2020-06-07T10:46:49Z</time>
      </trkpt>
      <trkpt lat="47.78697" lon="-3.59943">
        <ele>31.8</ele>
        <time>2020-06-07T10:46:50Z</time>
      </trkpt>
      <trkpt lat="47.78691" lon="-3.59943">
        <ele>32</ele>
        <time>2020-06-07T10:46:51Z</time>
      </trkpt>
      <trkpt lat="47.78687" lon="-3.59945">
        <ele>32.3</ele>
        <time>2020-06-07T10:46:52Z</time>
      </trkpt>
      <trkpt lat="47.78682" lon="-3.59947">
        <ele>32.5</ele>
        <time>2020-06-07T10:46:53Z</time>
      </trkpt>
      <trkpt lat="47.78672" lon="-3.59952">
        <ele>33.1</ele>
        <time>2020-06-07T10:46:54Z</time>
      </trkpt>
      <trkpt lat="47.78667" lon="-3.59955">
        <ele>33.4</ele>
        <time>2020-06-07T10:46:55Z</time>
      </trkpt>
      <trkpt lat="47.78661" lon="-3.59956">
        <ele>33.7</ele>
        <time>2020-06-07T10:46:56Z</time>
      </trkpt>
      <trkpt lat="47.78655" lon="-3.59961">
        <ele>34</ele>
        <time>2020-06-07T10:46:57Z</time>
      </trkpt>
      <trkpt lat="47.7865" lon="-3.59966">
        <ele>34.4</ele>
        <time>2020-06-07T10:46:58Z</time>
      </trkpt>
      <trkpt lat="47.78645" lon="-3.59969">
        <ele>34.7</ele>
        <time>2020-06-07T10:46:59Z</time>
      </trkpt>
      <trkpt lat="47.7864" lon="-3.59974">
        <ele>35</ele>
        <time>2020-06-07T10:47:00Z</time>
      </trkpt>
      <trkpt lat="47.78636" lon="-3.59978">
        <ele>35.3</ele>
        <time>2020-06-07T10:47:01Z</time>
      </trkpt>
      <trkpt lat="47.78633" lon="-3.59982">
        <ele>35.5</ele>
        <time>2020-06-07T10:47:02Z</time>
      </trkpt>
      <trkpt lat="47.7863" lon="-3.59987">
        <ele>35.8</ele>
        <time>2020-06-07T10:47:03Z</time>
      </trkpt>
      <trkpt lat="47.78628" lon="-3.59991">
        <ele>36</ele>
        <time>2020-06-07T10:47:04Z</time>
      </trkpt>
      <trkpt lat="47.78625" lon="-3.59995">
        <ele>36.3</ele>
        <time>2020-06-07T10:47:05Z</time>
      </trkpt>
      <trkpt lat="47.78623" lon="-3.59999">
        <ele>36.5</ele>
        <time>2020-06-07T10:47:06Z</time>
      </trkpt>
      <trkpt lat="47.78621" lon="-3.60003">
        <ele>36.7</ele>
        <time>2020-06-07T10:47:07Z</time>
      </trkpt>
      <trkpt lat="47.7862" lon="-3.60006">
        <ele>36.9</ele>
        <time>2020-06-07T10:47:08Z</time>
      </trkpt>
      <trkpt lat="47.78618" lon="-3.6001">
        <ele>37.1</ele>
        <time>2020-06-07T10:47:09Z</time>
      </trkpt>
      <trkpt lat="47.78617" lon="-3.60015">
        <ele>37.3</ele>
        <time>2020-06-07T10:47:10Z</time>
      </trkpt>
      <trkpt lat="47.78615" lon="-3.6002">
        <ele>37.5</ele>
        <time>2020-06-07T10:47:11Z</time>
      </trkpt>
      <trkpt lat="47.78614" lon="-3.60025">
        <ele>37.7</ele>
        <time>2020-06-07T10:47:12Z</time>
      </trkpt>
      <trkpt lat="47.78612" lon="-3.60032">
        <ele>38</ele>
        <time>2020-06-07T10:47:13Z</time>
      </trkpt>
      <trkpt lat="47.78611" lon="-3.60037">
        <ele>38.3</ele>
        <time>2020-06-07T10:47:14Z</time>
      </trkpt>
      <trkpt lat="47.78609" lon="-3.60043">
        <ele>38.5</ele>
        <time>2020-06-07T10:47:15Z</time>
      </trkpt>
      <trkpt lat="47.78608" lon="-3.60049">
        <ele>38.8</ele>
        <time>2020-06-07T10:47:16Z</time>
      </trkpt>
      <trkpt lat="47.78606" lon="-3.60055">
        <ele>39.1</ele>
        <time>2020-06-07T10:47:17Z</time>
      </trkpt>
      <trkpt lat="47.78605" lon="-3.6006">
        <ele>39.3</ele>
        <time>2020-06-07T10:47:18Z</time>
      </trkpt>
      <trkpt lat="47.78603" lon="-3.60066">
        <ele>39.6</ele>
        <time>2020-06-07T10:47:19Z</time>
      </trkpt>
      <trkpt lat="47.78601" lon="-3.60072">
        <ele>39.8</ele>
        <time>2020-06-07T10:47:20Z</time>
      </trkpt>
      <trkpt lat="47.78599" lon="-3.60077">
        <ele>40</ele>
        <time>2020-06-07T10:47:21Z</time>
      </trkpt>
      <trkpt lat="47.78598" lon="-3.60083">
        <ele>40.3</ele>
        <time>2020-06-07T10:47:22Z</time>
      </trkpt>
      <trkpt lat="47.78597" lon="-3.6009">
        <ele>40.5</ele>
        <time>2020-06-07T10:47:23Z</time>
      </trkpt>
      <trkpt lat="47.78595" lon="-3.60096">
        <ele>40.8</ele>
        <time>2020-06-07T10:47:24Z</time>
      </trkpt>
      <trkpt lat="47.78594" lon="-3.60102">
        <ele>41</ele>
        <time>2020-06-07T10:47:25Z</time>
      </trkpt>
      <trkpt lat="47.78592" lon="-3.60108">
        <ele>41.2</ele>
        <time>2020-06-07T10:47:26Z</time>
      </trkpt>
      <trkpt lat="47.78591" lon="-3.60114">
        <ele>41.4</ele>
        <time>2020-06-07T10:47:27Z</time>
      </trkpt>
      <trkpt lat="47.7859" lon="-3.60121">
        <ele>41.6</ele>
        <time>2020-06-07T10:47:28Z</time>
      </trkpt>
      <trkpt lat="47.78589" lon="-3.60127">
        <ele>41.8</ele>
        <time>2020-06-07T10:47:29Z</time>
      </trkpt>
      <trkpt lat="47.78588" lon="-3.60133">
        <ele>42</ele>
        <time>2020-06-07T10:47:30Z</time>
      </trkpt>
      <trkpt lat="47.78587" lon="-3.60139">
        <ele>42.2</ele>
        <time>2020-06-07T10:47:31Z</time>
      </trkpt>
      <trkpt lat="47.78586" lon="-3.60145">
        <ele>42.4</ele>
        <time>2020-06-07T10:47:32Z</time>
      </trkpt>
      <trkpt lat="47.78585" lon="-3.60152">
        <ele>42.6</ele>
        <time>2020-06-07T10:47:33Z</time>
      </trkpt>
      <trkpt lat="47.78584" lon="-3.60159">
        <ele>42.7</ele>
        <time>2020-06-07T10:47:34Z</time>
      </trkpt>
      <trkpt lat="47.78582" lon="-3.60165">
        <ele>42.9</ele>
        <time>2020-06-07T10:47:35Z</time>
      </trkpt>
      <trkpt lat="47.7858" lon="-3.60173">
        <ele>43</ele>
        <time>2020-06-07T10:47:36Z</time>
      </trkpt>
      <trkpt lat="47.78578" lon="-3.6018">
        <ele>43.1</ele>
        <time>2020-06-07T10:47:37Z</time>
      </trkpt>
      <trkpt lat="47.78575" lon="-3.60187">
        <ele>43.2</ele>
        <time>2020-06-07T10:47:38Z</time>
      </trkpt>
      <trkpt lat="47.7857" lon="-3.60193">
        <ele>43.3</ele>
        <time>2020-06-07T10:47:39Z</time>
      </trkpt>
      <trkpt lat="47.78566" lon="-3.60197">
        <ele>43.4</ele>
        <time>2020-06-07T10:47:40Z</time>
      </trkpt>
      <trkpt lat="47.7856" lon="-3.60202">
        <ele>43.4</ele>
        <time>2020-06-07T10:47:41Z</time>
      </trkpt>
      <trkpt lat="47.78556" lon="-3.60206">
        <ele>43.4</ele>
        <time>2020-06-07T10:47:42Z</time>
      </trkpt>
      <trkpt lat="47.78551" lon="-3.6021">
        <ele>43.5</ele>
        <time>2020-06-07T10:47:43Z</time>
      </trkpt>
      <trkpt lat="47.78546" lon="-3.60213">
        <ele>43.5</ele>
        <time>2020-06-07T10:47:44Z</time>
      </trkpt>
      <trkpt lat="47.78542" lon="-3.60215">
        <ele>43.5</ele>
        <time>2020-06-07T10:47:45Z</time>
      </trkpt>
      <trkpt lat="47.78537" lon="-3.60216">
        <ele>43.4</ele>
        <time>2020-06-07T10:47:46Z</time>
      </trkpt>
      <trkpt lat="47.78532" lon="-3.60216">
        <ele>43.6</ele>
        <time>2020-06-07T10:47:47Z</time>
      </trkpt>
      <trkpt lat="47.78528" lon="-3.60217">
        <ele>43.8</ele>
        <time>2020-06-07T10:47:48Z</time>
      </trkpt>
      <trkpt lat="47.78523" lon="-3.60218">
        <ele>43.8</ele>
        <time>2020-06-07T10:47:49Z</time>
      </trkpt>
      <trkpt lat="47.78519" lon="-3.60219">
        <ele>43.9</ele>
        <time>2020-06-07T10:47:50Z</time>
      </trkpt>
      <trkpt lat="47.78514" lon="-3.6022">
        <ele>43.9</ele>
        <time>2020-06-07T10:47:51Z</time>
      </trkpt>
      <trkpt lat="47.78509" lon="-3.60221">
        <ele>43.9</ele>
        <time>2020-06-07T10:47:52Z</time>
      </trkpt>
      <trkpt lat="47.78505" lon="-3.60223">
        <ele>43.9</ele>
        <time>2020-06-07T10:47:53Z</time>
      </trkpt>
      <trkpt lat="47.78499" lon="-3.60225">
        <ele>43.8</ele>
        <time>2020-06-07T10:47:54Z</time>
      </trkpt>
      <trkpt lat="47.78493" lon="-3.60228">
        <ele>43.8</ele>
        <time>2020-06-07T10:47:55Z</time>
      </trkpt>
      <trkpt lat="47.78488" lon="-3.60231">
        <ele>43.8</ele>
        <time>2020-06-07T10:47:56Z</time>
      </trkpt>
      <trkpt lat="47.78482" lon="-3.60233">
        <ele>43.8</ele>
        <time>2020-06-07T10:47:57Z</time>
      </trkpt>
      <trkpt lat="47.78477" lon="-3.60236">
        <ele>43.7</ele>
        <time>2020-06-07T10:47:58Z</time>
      </trkpt>
      <trkpt lat="47.78472" lon="-3.60239">
        <ele>43.7</ele>
        <time>2020-06-07T10:47:59Z</time>
      </trkpt>
      <trkpt lat="47.78467" lon="-3.60241">
        <ele>43.6</ele>
        <time>2020-06-07T10:48:00Z</time>
      </trkpt>
      <trkpt lat="47.78462" lon="-3.60244">
        <ele>43.6</ele>
        <time>2020-06-07T10:48:01Z</time>
      </trkpt>
      <trkpt lat="47.78457" lon="-3.60246">
        <ele>43.5</ele>
        <time>2020-06-07T10:48:02Z</time>
      </trkpt>
      <trkpt lat="47.78452" lon="-3.60249">
        <ele>43.5</ele>
        <time>2020-06-07T10:48:03Z</time>
      </trkpt>
      <trkpt lat="47.78447" lon="-3.60251">
        <ele>43.4</ele>
        <time>2020-06-07T10:48:04Z</time>
      </trkpt>
      <trkpt lat="47.78442" lon="-3.60253">
        <ele>43.3</ele>
        <time>2020-06-07T10:48:05Z</time>
      </trkpt>
      <trkpt lat="47.78436" lon="-3.60256">
        <ele>43.2</ele>
        <time>2020-06-07T10:48:06Z</time>
      </trkpt>
      <trkpt lat="47.7843" lon="-3.6026">
        <ele>43</ele>
        <time>2020-06-07T10:48:07Z</time>
      </trkpt>
      <trkpt lat="47.78423" lon="-3.60264">
        <ele>42.8</ele>
        <time>2020-06-07T10:48:08Z</time>
      </trkpt>
      <trkpt lat="47.78416" lon="-3.60266">
        <ele>42.6</ele>
        <time>2020-06-07T10:48:09Z</time>
      </trkpt>
      <trkpt lat="47.7841" lon="-3.60267">
        <ele>42.4</ele>
        <time>2020-06-07T10:48:10Z</time>
      </trkpt>
      <trkpt lat="47.78405" lon="-3.60267">
        <ele>42.2</ele>
        <time>2020-06-07T10:48:11Z</time>
      </trkpt>
      <trkpt lat="47.784" lon="-3.60267">
        <ele>42</ele>
        <time>2020-06-07T10:48:12Z</time>
      </trkpt>
      <trkpt lat="47.78395" lon="-3.60266">
        <ele>41.9</ele>
        <time>2020-06-07T10:48:13Z</time>
      </trkpt>
      <trkpt lat="47.78391" lon="-3.60265">
        <ele>41.8</ele>
        <time>2020-06-07T10:48:14Z</time>
      </trkpt>
      <trkpt lat="47.78386" lon="-3.60263">
        <ele>41.6</ele>
        <time>2020-06-07T10:48:15Z</time>
      </trkpt>
      <trkpt lat="47.78381" lon="-3.6026">
        <ele>41.5</ele>
        <time>2020-06-07T10:48:16Z</time>
      </trkpt>
      <trkpt lat="47.78375" lon="-3.60258">
        <ele>41.2</ele>
        <time>2020-06-07T10:48:17Z</time>
      </trkpt>
      <trkpt lat="47.78369" lon="-3.60256">
        <ele>41</ele>
        <time>2020-06-07T10:48:18Z</time>
      </trkpt>
      <trkpt lat="47.78363" lon="-3.60253">
        <ele>40.7</ele>
        <time>2020-06-07T10:48:19Z</time>
      </trkpt>
      <trkpt lat="47.78356" lon="-3.60252">
        <ele>40.3</ele>
        <time>2020-06-07T10:48:20Z</time>
      </trkpt>
      <trkpt lat="47.78349" lon="-3.6025">
        <ele>40</ele>
        <time>2020-06-07T10:48:21Z</time>
      </trkpt>
      <trkpt lat="47.78342" lon="-3.60247">
        <ele>39.6</ele>
        <time>2020-06-07T10:48:22Z</time>
      </trkpt>
      <trkpt lat="47.78334" lon="-3.60245">
        <ele>39.3</ele>
        <time>2020-06-07T10:48:23Z</time>
      </trkpt>
      <trkpt lat="47.78327" lon="-3.60242">
        <ele>38.9</ele>
        <time>2020-06-07T10:48:24Z</time>
      </trkpt>
      <trkpt lat="47.78318" lon="-3.60239">
        <ele>38.5</ele>
        <time>2020-06-07T10:48:25Z</time>
      </trkpt>
      <trkpt lat="47.7831" lon="-3.60237">
        <ele>38.2</ele>
        <time>2020-06-07T10:48:26Z</time>
      </trkpt>
      <trkpt lat="47.78301" lon="-3.60233">
        <ele>37.8</ele>
        <time>2020-06-07T10:48:27Z</time>
      </trkpt>
      <trkpt lat="47.78293" lon="-3.6023">
        <ele>37.4</ele>
        <time>2020-06-07T10:48:28Z</time>
      </trkpt>
      <trkpt lat="47.78285" lon="-3.60227">
        <ele>37</ele>
        <time>2020-06-07T10:48:29Z</time>
      </trkpt>
      <trkpt lat="47.78277" lon="-3.60225">
        <ele>36.6</ele>
        <time>2020-06-07T10:48:30Z</time>
      </trkpt>
      <trkpt lat="47.78269" lon="-3.60222">
        <ele>36.2</ele>
        <time>2020-06-07T10:48:31Z</time>
      </trkpt>
      <trkpt lat="47.7826" lon="-3.6022">
        <ele>35.8</ele>
        <time>2020-06-07T10:48:32Z</time>
      </trkpt>
      <trkpt lat="47.78251" lon="-3.60219">
        <ele>35.4</ele>
        <time>2020-06-07T10:48:33Z</time>
      </trkpt>
      <trkpt lat="47.78242" lon="-3.60219">
        <ele>35.1</ele>
        <time>2020-06-07T10:48:34Z</time>
      </trkpt>
      <trkpt lat="47.78234" lon="-3.60221">
        <ele>34.8</ele>
        <time>2020-06-07T10:48:35Z</time>
      </trkpt>
      <trkpt lat="47.78228" lon="-3.60225">
        <ele>34.5</ele>
        <time>2020-06-07T10:48:36Z</time>
      </trkpt>
      <trkpt lat="47.7822" lon="-3.60232">
        <ele>34.1</ele>
        <time>2020-06-07T10:48:37Z</time>
      </trkpt>
      <trkpt lat="47.78212" lon="-3.6024">
        <ele>33.7</ele>
        <time>2020-06-07T10:48:38Z</time>
      </trkpt>
      <trkpt lat="47.78204" lon="-3.60246">
        <ele>33.3</ele>
        <time>2020-06-07T10:48:39Z</time>
      </trkpt>
      <trkpt lat="47.78196" lon="-3.6025">
        <ele>32.9</ele>
        <time>2020-06-07T10:48:40Z</time>
      </trkpt>
      <trkpt lat="47.78188" lon="-3.60253">
        <ele>32.5</ele>
        <time>2020-06-07T10:48:41Z</time>
      </trkpt>
      <trkpt lat="47.78178" lon="-3.60252">
        <ele>32.2</ele>
        <time>2020-06-07T10:48:42Z</time>
      </trkpt>
      <trkpt lat="47.78168" lon="-3.60252">
        <ele>31.9</ele>
        <time>2020-06-07T10:48:43Z</time>
      </trkpt>
      <trkpt lat="47.78158" lon="-3.60251">
        <ele>31.6</ele>
        <time>2020-06-07T10:48:44Z</time>
      </trkpt>
      <trkpt lat="47.78148" lon="-3.6025">
        <ele>31.3</ele>
        <time>2020-06-07T10:48:45Z</time>
      </trkpt>
      <trkpt lat="47.78139" lon="-3.60249">
        <ele>31</ele>
        <time>2020-06-07T10:48:46Z</time>
      </trkpt>
      <trkpt lat="47.7813" lon="-3.60248">
        <ele>30.7</ele>
        <time>2020-06-07T10:48:47Z</time>
      </trkpt>
      <trkpt lat="47.78121" lon="-3.60246">
        <ele>30.4</ele>
        <time>2020-06-07T10:48:48Z</time>
      </trkpt>
      <trkpt lat="47.78113" lon="-3.60245">
        <ele>30</ele>
        <time>2020-06-07T10:48:49Z</time>
      </trkpt>
      <trkpt lat="47.78104" lon="-3.60244">
        <ele>29.7</ele>
        <time>2020-06-07T10:48:50Z</time>
      </trkpt>
      <trkpt lat="47.78094" lon="-3.60242">
        <ele>29.3</ele>
        <time>2020-06-07T10:48:51Z</time>
      </trkpt>
      <trkpt lat="47.78084" lon="-3.60242">
        <ele>28.9</ele>
        <time>2020-06-07T10:48:52Z</time>
      </trkpt>
      <trkpt lat="47.78075" lon="-3.60241">
        <ele>28.5</ele>
        <time>2020-06-07T10:48:53Z</time>
      </trkpt>
      <trkpt lat="47.78065" lon="-3.60241">
        <ele>28.1</ele>
        <time>2020-06-07T10:48:54Z</time>
      </trkpt>
      <trkpt lat="47.78055" lon="-3.60242">
        <ele>27.7</ele>
        <time>2020-06-07T10:48:55Z</time>
      </trkpt>
      <trkpt lat="47.78045" lon="-3.60243">
        <ele>27.2</ele>
        <time>2020-06-07T10:48:56Z</time>
      </trkpt>
      <trkpt lat="47.78036" lon="-3.60244">
        <ele>26.8</ele>
        <time>2020-06-07T10:48:57Z</time>
      </trkpt>
      <trkpt lat="47.78026" lon="-3.60245">
        <ele>26.3</ele>
        <time>2020-06-07T10:48:58Z</time>
      </trkpt>
      <trkpt lat="47.78017" lon="-3.60249">
        <ele>25.8</ele>
        <time>2020-06-07T10:48:59Z</time>
      </trkpt>
      <trkpt lat="47.78007" lon="-3.60254">
        <ele>25.3</ele>
        <time>2020-06-07T10:49:00Z</time>
      </trkpt>
      <trkpt lat="47.77999" lon="-3.60258">
        <ele>24.9</ele>
        <time>2020-06-07T10:49:01Z</time>
      </trkpt>
      <trkpt lat="47.7799" lon="-3.60261">
        <ele>24.5</ele>
        <time>2020-06-07T10:49:02Z</time>
      </trkpt>
      <trkpt lat="47.77981" lon="-3.60264">
        <ele>24.1</ele>
        <time>2020-06-07T10:49:03Z</time>
      </trkpt>
      <trkpt lat="47.77972" lon="-3.60267">
        <ele>23.7</ele>
        <time>2020-06-07T10:49:04Z</time>
      </trkpt>
      <trkpt lat="47.77963" lon="-3.60269">
        <ele>23.3</ele>
        <time>2020-06-07T10:49:05Z</time>
      </trkpt>
      <trkpt lat="47.77954" lon="-3.60271">
        <ele>23</ele>
        <time>2020-06-07T10:49:06Z</time>
      </trkpt>
      <trkpt lat="47.77945" lon="-3.60274">
        <ele>22.6</ele>
        <time>2020-06-07T10:49:07Z</time>
      </trkpt>
      <trkpt lat="47.77937" lon="-3.60277">
        <ele>22.2</ele>
        <time>2020-06-07T10:49:08Z</time>
      </trkpt>
      <trkpt lat="47.77929" lon="-3.60281">
        <ele>21.8</ele>
        <time>2020-06-07T10:49:09Z</time>
      </trkpt>
      <trkpt lat="47.77921" lon="-3.60286">
        <ele>21.4</ele>
        <time>2020-06-07T10:49:10Z</time>
      </trkpt>
      <trkpt lat="47.77914" lon="-3.60291">
        <ele>20.9</ele>
        <time>2020-06-07T10:49:11Z</time>
      </trkpt>
      <trkpt lat="47.77908" lon="-3.60298">
        <ele>20.4</ele>
        <time>2020-06-07T10:49:12Z</time>
      </trkpt>
      <trkpt lat="47.77902" lon="-3.60306">
        <ele>19.9</ele>
        <time>2020-06-07T10:49:13Z</time>
      </trkpt>
      <trkpt lat="47.77896" lon="-3.60314">
        <ele>19.3</ele>
        <time>2020-06-07T10:49:14Z</time>
      </trkpt>
      <trkpt lat="47.77891" lon="-3.60324">
        <ele>18.8</ele>
        <time>2020-06-07T10:49:15Z</time>
      </trkpt>
      <trkpt lat="47.77886" lon="-3.60335">
        <ele>18.2</ele>
        <time>2020-06-07T10:49:16Z</time>
      </trkpt>
      <trkpt lat="47.77883" lon="-3.60349">
        <ele>17.5</ele>
        <time>2020-06-07T10:49:17Z</time>
      </trkpt>
      <trkpt lat="47.77879" lon="-3.60362">
        <ele>16.9</ele>
        <time>2020-06-07T10:49:18Z</time>
      </trkpt>
      <trkpt lat="47.77875" lon="-3.60377">
        <ele>16</ele>
        <time>2020-06-07T10:49:19Z</time>
      </trkpt>
      <trkpt lat="47.77871" lon="-3.6039">
        <ele>15.3</ele>
        <time>2020-06-07T10:49:20Z</time>
      </trkpt>
      <trkpt lat="47.77866" lon="-3.60403">
        <ele>14.6</ele>
        <time>2020-06-07T10:49:21Z</time>
      </trkpt>
      <trkpt lat="47.77862" lon="-3.60416">
        <ele>14</ele>
        <time>2020-06-07T10:49:22Z</time>
      </trkpt>
      <trkpt lat="47.77858" lon="-3.60429">
        <ele>13.4</ele>
        <time>2020-06-07T10:49:23Z</time>
      </trkpt>
      <trkpt lat="47.77854" lon="-3.60442">
        <ele>13</ele>
        <time>2020-06-07T10:49:24Z</time>
      </trkpt>
      <trkpt lat="47.77852" lon="-3.60452">
        <ele>12.7</ele>
        <time>2020-06-07T10:49:25Z</time>
      </trkpt>
      <trkpt lat="47.77851" lon="-3.60461">
        <ele>12.4</ele>
        <time>2020-06-07T10:49:26Z</time>
      </trkpt>
      <trkpt lat="47.7785" lon="-3.60465">
        <ele>12.3</ele>
        <time>2020-06-07T10:49:27Z</time>
      </trkpt>
      <trkpt lat="47.7785" lon="-3.6047">
        <ele>12.2</ele>
        <time>2020-06-07T10:49:28Z</time>
      </trkpt>
      <trkpt lat="47.7785" lon="-3.60471">
        <ele>12.2</ele>
        <time>2020-06-07T10:49:29Z</time>
      </trkpt>
      <trkpt lat="47.77851" lon="-3.60472">
        <ele>12.2</ele>
        <time>2020-06-07T10:49:30Z</time>
      </trkpt>
      <trkpt lat="47.7785" lon="-3.60473">
        <ele>12.2</ele>
        <time>2020-06-07T10:49:31Z</time>
      </trkpt>
      <trkpt lat="47.77848" lon="-3.60473">
        <ele>12.1</ele>
        <time>2020-06-07T10:49:32Z</time>
      </trkpt>
      <trkpt lat="47.77847" lon="-3.60474">
        <ele>11.4</ele>
        <time>2020-06-07T10:49:33Z</time>
      </trkpt>
      <trkpt lat="47.77844" lon="-3.60473">
        <ele>11.2</ele>
        <time>2020-06-07T10:49:34Z</time>
      </trkpt>
      <trkpt lat="47.7784" lon="-3.60473">
        <ele>10.9</ele>
        <time>2020-06-07T10:49:35Z</time>
      </trkpt>
      <trkpt lat="47.77836" lon="-3.60471">
        <ele>10.6</ele>
        <time>2020-06-07T10:49:36Z</time>
      </trkpt>
      <trkpt lat="47.77832" lon="-3.6047">
        <ele>10.3</ele>
        <time>2020-06-07T10:49:37Z</time>
      </trkpt>
      <trkpt lat="47.77827" lon="-3.6047">
        <ele>9.9</ele>
        <time>2020-06-07T10:49:38Z</time>
      </trkpt>
      <trkpt lat="47.77821" lon="-3.6047">
        <ele>9.4</ele>
        <time>2020-06-07T10:49:39Z</time>
      </trkpt>
      <trkpt lat="47.77815" lon="-3.60469">
        <ele>9</ele>
        <time>2020-06-07T10:49:40Z</time>
      </trkpt>
      <trkpt lat="47.77809" lon="-3.60469">
        <ele>8.5</ele>
        <time>2020-06-07T10:49:41Z</time>
      </trkpt>
      <trkpt lat="47.77803" lon="-3.60469">
        <ele>7.9</ele>
        <time>2020-06-07T10:49:42Z</time>
      </trkpt>
      <trkpt lat="47.77796" lon="-3.60468">
        <ele>7.4</ele>
        <time>2020-06-07T10:49:43Z</time>
      </trkpt>
      <trkpt lat="47.77788" lon="-3.60466">
        <ele>6.8</ele>
        <time>2020-06-07T10:49:44Z</time>
      </trkpt>
      <trkpt lat="47.7778" lon="-3.60463">
        <ele>6.1</ele>
        <time>2020-06-07T10:49:45Z</time>
      </trkpt>
      <trkpt lat="47.77771" lon="-3.60458">
        <ele>5.5</ele>
        <time>2020-06-07T10:49:46Z</time>
      </trkpt>
      <trkpt lat="47.77761" lon="-3.60454">
        <ele>5</ele>
        <time>2020-06-07T10:49:47Z</time>
      </trkpt>
      <trkpt lat="47.77751" lon="-3.60449">
        <ele>4.6</ele>
        <time>2020-06-07T10:49:48Z</time>
      </trkpt>
      <trkpt lat="47.77741" lon="-3.60445">
        <ele>4.3</ele>
        <time>2020-06-07T10:49:49Z</time>
      </trkpt>
      <trkpt lat="47.77733" lon="-3.60441">
        <ele>4.2</ele>
        <time>2020-06-07T10:49:50Z</time>
      </trkpt>
      <trkpt lat="47.77724" lon="-3.60437">
        <ele>4.1</ele>
        <time>2020-06-07T10:49:51Z</time>
      </trkpt>
      <trkpt lat="47.77716" lon="-3.60433">
        <ele>4.1</ele>
        <time>2020-06-07T10:49:52Z</time>
      </trkpt>
      <trkpt lat="47.77708" lon="-3.6043">
        <ele>4</ele>
        <time>2020-06-07T10:49:53Z</time>
      </trkpt>
      <trkpt lat="47.77702" lon="-3.60427">
        <ele>4.1</ele>
        <time>2020-06-07T10:49:54Z</time>
      </trkpt>
      <trkpt lat="47.77697" lon="-3.60424">
        <ele>4.1</ele>
        <time>2020-06-07T10:49:55Z</time>
      </trkpt>
      <trkpt lat="47.77692" lon="-3.6042">
        <ele>4.2</ele>
        <time>2020-06-07T10:49:56Z</time>
      </trkpt>
      <trkpt lat="47.77687" lon="-3.60417">
        <ele>4.3</ele>
        <time>2020-06-07T10:49:57Z</time>
      </trkpt>
      <trkpt lat="47.77681" lon="-3.60413">
        <ele>4.5</ele>
        <time>2020-06-07T10:49:58Z</time>
      </trkpt>
      <trkpt lat="47.77676" lon="-3.6041">
        <ele>4.7</ele>
        <time>2020-06-07T10:49:59Z</time>
      </trkpt>
      <trkpt lat="47.77671" lon="-3.60407">
        <ele>4.9</ele>
        <time>2020-06-07T10:50:00Z</time>
      </trkpt>
      <trkpt lat="47.77667" lon="-3.60404">
        <ele>5.2</ele>
        <time>2020-06-07T10:50:01Z</time>
      </trkpt>
      <trkpt lat="47.77663" lon="-3.60401">
        <ele>5.4</ele>
        <time>2020-06-07T10:50:02Z</time>
      </trkpt>
      <trkpt lat="47.7766" lon="-3.60399">
        <ele>5.6</ele>
        <time>2020-06-07T10:50:03Z</time>
      </trkpt>
      <trkpt lat="47.77656" lon="-3.60396">
        <ele>5.8</ele>
        <time>2020-06-07T10:50:04Z</time>
      </trkpt>
      <trkpt lat="47.77653" lon="-3.60392">
        <ele>6.1</ele>
        <time>2020-06-07T10:50:05Z</time>
      </trkpt>
      <trkpt lat="47.77651" lon="-3.60389">
        <ele>6.3</ele>
        <time>2020-06-07T10:50:06Z</time>
      </trkpt>
      <trkpt lat="47.77648" lon="-3.60386">
        <ele>6.4</ele>
        <time>2020-06-07T10:50:07Z</time>
      </trkpt>
      <trkpt lat="47.77645" lon="-3.60383">
        <ele>6.6</ele>
        <time>2020-06-07T10:50:08Z</time>
      </trkpt>
      <trkpt lat="47.77643" lon="-3.6038">
        <ele>6.8</ele>
        <time>2020-06-07T10:50:09Z</time>
      </trkpt>
      <trkpt lat="47.77642" lon="-3.6038">
        <ele>6.8</ele>
        <time>2020-06-07T10:50:10Z</time>
      </trkpt>
      <trkpt lat="47.7764" lon="-3.60378">
        <ele>6.9</ele>
        <time>2020-06-07T10:50:11Z</time>
      </trkpt>
      <trkpt lat="47.77638" lon="-3.60376">
        <ele>7</ele>
        <time>2020-06-07T10:50:12Z</time>
      </trkpt>
      <trkpt lat="47.77637" lon="-3.60376">
        <ele>7</ele>
        <time>2020-06-07T10:50:13Z</time>
      </trkpt>
      <trkpt lat="47.77635" lon="-3.60375">
        <ele>7.1</ele>
        <time>2020-06-07T10:50:14Z</time>
      </trkpt>
      <trkpt lat="47.77631" lon="-3.60372">
        <ele>7.2</ele>
        <time>2020-06-07T10:50:15Z</time>
      </trkpt>
      <trkpt lat="47.7763" lon="-3.60371">
        <ele>7.3</ele>
        <time>2020-06-07T10:50:16Z</time>
      </trkpt>
      <trkpt lat="47.77627" lon="-3.60371">
        <ele>7.3</ele>
        <time>2020-06-07T10:50:17Z</time>
      </trkpt>
      <trkpt lat="47.77624" lon="-3.60371">
        <ele>7.3</ele>
        <time>2020-06-07T10:50:18Z</time>
      </trkpt>
      <trkpt lat="47.77622" lon="-3.60372">
        <ele>7.3</ele>
        <time>2020-06-07T10:50:19Z</time>
      </trkpt>
      <trkpt lat="47.77621" lon="-3.60373">
        <ele>7.3</ele>
        <time>2020-06-07T10:50:20Z</time>
      </trkpt>
      <trkpt lat="47.77618" lon="-3.60373">
        <ele>7.3</ele>
        <time>2020-06-07T10:50:21Z</time>
      </trkpt>
      <trkpt lat="47.77615" lon="-3.60374">
        <ele>7.3</ele>
        <time>2020-06-07T10:50:22Z</time>
      </trkpt>
      <trkpt lat="47.7761" lon="-3.60375">
        <ele>7.3</ele>
        <time>2020-06-07T10:50:23Z</time>
      </trkpt>
      <trkpt lat="47.77608" lon="-3.60376">
        <ele>7.2</ele>
        <time>2020-06-07T10:50:24Z</time>
      </trkpt>
      <trkpt lat="47.77605" lon="-3.60376">
        <ele>7.2</ele>
        <time>2020-06-07T10:50:25Z</time>
      </trkpt>
      <trkpt lat="47.77601" lon="-3.60376">
        <ele>7.1</ele>
        <time>2020-06-07T10:50:26Z</time>
      </trkpt>
      <trkpt lat="47.77597" lon="-3.60376">
        <ele>7.1</ele>
        <time>2020-06-07T10:50:27Z</time>
      </trkpt>
      <trkpt lat="47.77591" lon="-3.60378">
        <ele>7</ele>
        <time>2020-06-07T10:50:28Z</time>
      </trkpt>
      <trkpt lat="47.77586" lon="-3.60379">
        <ele>6.9</ele>
        <time>2020-06-07T10:50:29Z</time>
      </trkpt>
      <trkpt lat="47.77581" lon="-3.6038">
        <ele>6.8</ele>
        <time>2020-06-07T10:50:30Z</time>
      </trkpt>
      <trkpt lat="47.77576" lon="-3.6038">
        <ele>6.7</ele>
        <time>2020-06-07T10:50:31Z</time>
      </trkpt>
      <trkpt lat="47.77572" lon="-3.60381">
        <ele>6.6</ele>
        <time>2020-06-07T10:50:32Z</time>
      </trkpt>
      <trkpt lat="47.77567" lon="-3.60384">
        <ele>6.5</ele>
        <time>2020-06-07T10:50:33Z</time>
      </trkpt>
      <trkpt lat="47.77562" lon="-3.60387">
        <ele>6.4</ele>
        <time>2020-06-07T10:50:34Z</time>
      </trkpt>
      <trkpt lat="47.77557" lon="-3.60391">
        <ele>6.3</ele>
        <time>2020-06-07T10:50:35Z</time>
      </trkpt>
      <trkpt lat="47.77553" lon="-3.60396">
        <ele>6.3</ele>
        <time>2020-06-07T10:50:36Z</time>
      </trkpt>
      <trkpt lat="47.77549" lon="-3.60401">
        <ele>6.2</ele>
        <time>2020-06-07T10:50:37Z</time>
      </trkpt>
      <trkpt lat="47.77546" lon="-3.60407">
        <ele>6.1</ele>
        <time>2020-06-07T10:50:38Z</time>
      </trkpt>
      <trkpt lat="47.77543" lon="-3.60413">
        <ele>6</ele>
        <time>2020-06-07T10:50:39Z</time>
      </trkpt>
      <trkpt lat="47.7754" lon="-3.60417">
        <ele>6</ele>
        <time>2020-06-07T10:50:40Z</time>
      </trkpt>
      <trkpt lat="47.77537" lon="-3.60421">
        <ele>5.9</ele>
        <time>2020-06-07T10:50:41Z</time>
      </trkpt>
      <trkpt lat="47.77535" lon="-3.60424">
        <ele>5.7</ele>
        <time>2020-06-07T10:50:42Z</time>
      </trkpt>
      <trkpt lat="47.77533" lon="-3.60428">
        <ele>5.6</ele>
        <time>2020-06-07T10:50:43Z</time>
      </trkpt>
      <trkpt lat="47.77531" lon="-3.60431">
        <ele>5.5</ele>
        <time>2020-06-07T10:50:44Z</time>
      </trkpt>
      <trkpt lat="47.77528" lon="-3.60434">
        <ele>5.3</ele>
        <time>2020-06-07T10:50:45Z</time>
      </trkpt>
      <trkpt lat="47.77525" lon="-3.60438">
        <ele>5.1</ele>
        <time>2020-06-07T10:50:46Z</time>
      </trkpt>
      <trkpt lat="47.77521" lon="-3.60441">
        <ele>4.9</ele>
        <time>2020-06-07T10:50:47Z</time>
      </trkpt>
      <trkpt lat="47.77517" lon="-3.60444">
        <ele>4.7</ele>
        <time>2020-06-07T10:50:48Z</time>
      </trkpt>
      <trkpt lat="47.77512" lon="-3.60446">
        <ele>4.5</ele>
        <time>2020-06-07T10:50:49Z</time>
      </trkpt>
      <trkpt lat="47.77506" lon="-3.6045">
        <ele>4.2</ele>
        <time>2020-06-07T10:50:50Z</time>
      </trkpt>
      <trkpt lat="47.77501" lon="-3.60454">
        <ele>3.9</ele>
        <time>2020-06-07T10:50:51Z</time>
      </trkpt>
      <trkpt lat="47.77494" lon="-3.60458">
        <ele>3.7</ele>
        <time>2020-06-07T10:50:52Z</time>
      </trkpt>
      <trkpt lat="47.77488" lon="-3.60461">
        <ele>3.5</ele>
        <time>2020-06-07T10:50:53Z</time>
      </trkpt>
      <trkpt lat="47.77481" lon="-3.60464">
        <ele>3.3</ele>
        <time>2020-06-07T10:50:54Z</time>
      </trkpt>
      <trkpt lat="47.77475" lon="-3.60467">
        <ele>3.2</ele>
        <time>2020-06-07T10:50:55Z</time>
      </trkpt>
      <trkpt lat="47.7747" lon="-3.60469">
        <ele>3.1</ele>
        <time>2020-06-07T10:50:56Z</time>
      </trkpt>
      <trkpt lat="47.77465" lon="-3.6047">
        <ele>3</ele>
        <time>2020-06-07T10:50:57Z</time>
      </trkpt>
      <trkpt lat="47.77459" lon="-3.60472">
        <ele>2.9</ele>
        <time>2020-06-07T10:50:58Z</time>
      </trkpt>
      <trkpt lat="47.77453" lon="-3.60475">
        <ele>2.8</ele>
        <time>2020-06-07T10:50:59Z</time>
      </trkpt>
      <trkpt lat="47.77448" lon="-3.60479">
        <ele>2.8</ele>
        <time>2020-06-07T10:51:00Z</time>
      </trkpt>
      <trkpt lat="47.77443" lon="-3.60485">
        <ele>2.7</ele>
        <time>2020-06-07T10:51:01Z</time>
      </trkpt>
      <trkpt lat="47.77439" lon="-3.60491">
        <ele>2.7</ele>
        <time>2020-06-07T10:51:02Z</time>
      </trkpt>
      <trkpt lat="47.77436" lon="-3.60497">
        <ele>2.8</ele>
        <time>2020-06-07T10:51:03Z</time>
      </trkpt>
      <trkpt lat="47.77434" lon="-3.605">
        <ele>2.8</ele>
        <time>2020-06-07T10:51:04Z</time>
      </trkpt>
      <trkpt lat="47.77432" lon="-3.60505">
        <ele>2.8</ele>
        <time>2020-06-07T10:51:05Z</time>
      </trkpt>
      <trkpt lat="47.7743" lon="-3.60511">
        <ele>2.9</ele>
        <time>2020-06-07T10:51:06Z</time>
      </trkpt>
      <trkpt lat="47.77427" lon="-3.60519">
        <ele>2.9</ele>
        <time>2020-06-07T10:51:07Z</time>
      </trkpt>
      <trkpt lat="47.77425" lon="-3.60527">
        <ele>2.9</ele>
        <time>2020-06-07T10:51:08Z</time>
      </trkpt>
      <trkpt lat="47.77423" lon="-3.60535">
        <ele>2.9</ele>
        <time>2020-06-07T10:51:09Z</time>
      </trkpt>
      <trkpt lat="47.77421" lon="-3.60542">
        <ele>3</ele>
        <time>2020-06-07T10:51:10Z</time>
      </trkpt>
      <trkpt lat="47.77419" lon="-3.60548">
        <ele>3</ele>
        <time>2020-06-07T10:51:11Z</time>
      </trkpt>
      <trkpt lat="47.77416" lon="-3.60554">
        <ele>3</ele>
        <time>2020-06-07T10:51:12Z</time>
      </trkpt>
      <trkpt lat="47.77414" lon="-3.6056">
        <ele>3</ele>
        <time>2020-06-07T10:51:13Z</time>
      </trkpt>
      <trkpt lat="47.77412" lon="-3.60565">
        <ele>3</ele>
        <time>2020-06-07T10:51:14Z</time>
      </trkpt>
      <trkpt lat="47.77409" lon="-3.60572">
        <ele>3</ele>
        <time>2020-06-07T10:51:15Z</time>
      </trkpt>
      <trkpt lat="47.77406" lon="-3.60579">
        <ele>3</ele>
        <time>2020-06-07T10:51:16Z</time>
      </trkpt>
      <trkpt lat="47.77403" lon="-3.60585">
        <ele>3</ele>
        <time>2020-06-07T10:51:17Z</time>
      </trkpt>
      <trkpt lat="47.774" lon="-3.60589">
        <ele>3</ele>
        <time>2020-06-07T10:51:18Z</time>
      </trkpt>
      <trkpt lat="47.77398" lon="-3.60594">
        <ele>3</ele>
        <time>2020-06-07T10:51:19Z</time>
      </trkpt>
      <trkpt lat="47.77396" lon="-3.60599">
        <ele>3.1</ele>
        <time>2020-06-07T10:51:20Z</time>
      </trkpt>
      <trkpt lat="47.77393" lon="-3.60605">
        <ele>3.1</ele>
        <time>2020-06-07T10:51:21Z</time>
      </trkpt>
      <trkpt lat="47.77392" lon="-3.60611">
        <ele>3.1</ele>
        <time>2020-06-07T10:51:22Z</time>
      </trkpt>
      <trkpt lat="47.7739" lon="-3.60617">
        <ele>3.2</ele>
        <time>2020-06-07T10:51:23Z</time>
      </trkpt>
      <trkpt lat="47.77389" lon="-3.60624">
        <ele>3.2</ele>
        <time>2020-06-07T10:51:24Z</time>
      </trkpt>
      <trkpt lat="47.77388" lon="-3.6063">
        <ele>3.2</ele>
        <time>2020-06-07T10:51:25Z</time>
      </trkpt>
      <trkpt lat="47.77386" lon="-3.60635">
        <ele>3.2</ele>
        <time>2020-06-07T10:51:26Z</time>
      </trkpt>
      <trkpt lat="47.77385" lon="-3.60641">
        <ele>3.2</ele>
        <time>2020-06-07T10:51:27Z</time>
      </trkpt>
      <trkpt lat="47.77384" lon="-3.60646">
        <ele>3.3</ele>
        <time>2020-06-07T10:51:28Z</time>
      </trkpt>
      <trkpt lat="47.77383" lon="-3.60652">
        <ele>3.3</ele>
        <time>2020-06-07T10:51:29Z</time>
      </trkpt>
      <trkpt lat="47.77382" lon="-3.60658">
        <ele>3.3</ele>
        <time>2020-06-07T10:51:30Z</time>
      </trkpt>
      <trkpt lat="47.7738" lon="-3.60664">
        <ele>3.3</ele>
        <time>2020-06-07T10:51:31Z</time>
      </trkpt>
      <trkpt lat="47.77379" lon="-3.6067">
        <ele>3.3</ele>
        <time>2020-06-07T10:51:32Z</time>
      </trkpt>
      <trkpt lat="47.77377" lon="-3.60675">
        <ele>3.3</ele>
        <time>2020-06-07T10:51:33Z</time>
      </trkpt>
      <trkpt lat="47.77376" lon="-3.60681">
        <ele>3.3</ele>
        <time>2020-06-07T10:51:34Z</time>
      </trkpt>
      <trkpt lat="47.77374" lon="-3.60686">
        <ele>3.3</ele>
        <time>2020-06-07T10:51:35Z</time>
      </trkpt>
      <trkpt lat="47.77373" lon="-3.60691">
        <ele>3.3</ele>
        <time>2020-06-07T10:51:36Z</time>
      </trkpt>
      <trkpt lat="47.77371" lon="-3.60696">
        <ele>3.3</ele>
        <time>2020-06-07T10:51:37Z</time>
      </trkpt>
      <trkpt lat="47.77369" lon="-3.607">
        <ele>3.3</ele>
        <time>2020-06-07T10:51:38Z</time>
      </trkpt>
      <trkpt lat="47.77368" lon="-3.60705">
        <ele>3.3</ele>
        <time>2020-06-07T10:51:39Z</time>
      </trkpt>
      <trkpt lat="47.77367" lon="-3.60708">
        <ele>3.3</ele>
        <time>2020-06-07T10:51:40Z</time>
      </trkpt>
      <trkpt lat="47.77365" lon="-3.60712">
        <ele>3.3</ele>
        <time>2020-06-07T10:51:41Z</time>
      </trkpt>
      <trkpt lat="47.77365" lon="-3.60716">
        <ele>3.3</ele>
        <time>2020-06-07T10:51:42Z</time>
      </trkpt>
      <trkpt lat="47.77364" lon="-3.60721">
        <ele>3.3</ele>
        <time>2020-06-07T10:51:43Z</time>
      </trkpt>
      <trkpt lat="47.77364" lon="-3.60723">
        <ele>3.3</ele>
        <time>2020-06-07T10:51:44Z</time>
      </trkpt>
      <trkpt lat="47.77364" lon="-3.60729">
        <ele>3.3</ele>
        <time>2020-06-07T10:51:45Z</time>
      </trkpt>
      <trkpt lat="47.77364" lon="-3.60731">
        <ele>3.3</ele>
        <time>2020-06-07T10:51:46Z</time>
      </trkpt>
      <trkpt lat="47.77363" lon="-3.60736">
        <ele>3.4</ele>
        <time>2020-06-07T10:51:47Z</time>
      </trkpt>
      <trkpt lat="47.77363" lon="-3.60738">
        <ele>3.4</ele>
        <time>2020-06-07T10:51:48Z</time>
      </trkpt>
      <trkpt lat="47.77361" lon="-3.60743">
        <ele>3.4</ele>
        <time>2020-06-07T10:51:49Z</time>
      </trkpt>
      <trkpt lat="47.77361" lon="-3.60744">
        <ele>3.4</ele>
        <time>2020-06-07T10:51:50Z</time>
      </trkpt>
      <trkpt lat="47.77359" lon="-3.60749">
        <ele>3.4</ele>
        <time>2020-06-07T10:51:51Z</time>
      </trkpt>
      <trkpt lat="47.77359" lon="-3.60751">
        <ele>3.4</ele>
        <time>2020-06-07T10:51:52Z</time>
      </trkpt>
      <trkpt lat="47.77357" lon="-3.60755">
        <ele>3.4</ele>
        <time>2020-06-07T10:51:53Z</time>
      </trkpt>
      <trkpt lat="47.77356" lon="-3.60757">
        <ele>3.4</ele>
        <time>2020-06-07T10:51:54Z</time>
      </trkpt>
      <trkpt lat="47.77353" lon="-3.6076">
        <ele>3.3</ele>
        <time>2020-06-07T10:51:55Z</time>
      </trkpt>
      <trkpt lat="47.77352" lon="-3.60761">
        <ele>3.3</ele>
        <time>2020-06-07T10:51:56Z</time>
      </trkpt>
      <trkpt lat="47.77349" lon="-3.60762">
        <ele>3.3</ele>
        <time>2020-06-07T10:51:57Z</time>
      </trkpt>
      <trkpt lat="47.77345" lon="-3.60764">
        <ele>3.3</ele>
        <time>2020-06-07T10:51:58Z</time>
      </trkpt>
      <trkpt lat="47.77344" lon="-3.60765">
        <ele>3.3</ele>
        <time>2020-06-07T10:51:59Z</time>
      </trkpt>
      <trkpt lat="47.77341" lon="-3.60767">
        <ele>3.3</ele>
        <time>2020-06-07T10:52:00Z</time>
      </trkpt>
      <trkpt lat="47.77338" lon="-3.60769">
        <ele>3.3</ele>
        <time>2020-06-07T10:52:01Z</time>
      </trkpt>
      <trkpt lat="47.77335" lon="-3.60771">
        <ele>3.3</ele>
        <time>2020-06-07T10:52:02Z</time>
      </trkpt>
      <trkpt lat="47.77333" lon="-3.60772">
        <ele>3.3</ele>
        <time>2020-06-07T10:52:03Z</time>
      </trkpt>
      <trkpt lat="47.7733" lon="-3.60774">
        <ele>3.3</ele>
        <time>2020-06-07T10:52:04Z</time>
      </trkpt>
      <trkpt lat="47.77327" lon="-3.60776">
        <ele>3.4</ele>
        <time>2020-06-07T10:52:05Z</time>
      </trkpt>
      <trkpt lat="47.77323" lon="-3.60778">
        <ele>3.4</ele>
        <time>2020-06-07T10:52:06Z</time>
      </trkpt>
      <trkpt lat="47.77322" lon="-3.60779">
        <ele>3.4</ele>
        <time>2020-06-07T10:52:07Z</time>
      </trkpt>
      <trkpt lat="47.77319" lon="-3.60781">
        <ele>3.5</ele>
        <time>2020-06-07T10:52:08Z</time>
      </trkpt>
      <trkpt lat="47.77315" lon="-3.60784">
        <ele>3.6</ele>
        <time>2020-06-07T10:52:09Z</time>
      </trkpt>
      <trkpt lat="47.77314" lon="-3.60786">
        <ele>3.7</ele>
        <time>2020-06-07T10:52:10Z</time>
      </trkpt>
      <trkpt lat="47.77311" lon="-3.60788">
        <ele>3.8</ele>
        <time>2020-06-07T10:52:11Z</time>
      </trkpt>
      <trkpt lat="47.77309" lon="-3.6079">
        <ele>3.9</ele>
        <time>2020-06-07T10:52:12Z</time>
      </trkpt>
      <trkpt lat="47.77305" lon="-3.60791">
        <ele>4.1</ele>
        <time>2020-06-07T10:52:13Z</time>
      </trkpt>
      <trkpt lat="47.77302" lon="-3.60792">
        <ele>4.3</ele>
        <time>2020-06-07T10:52:14Z</time>
      </trkpt>
      <trkpt lat="47.77299" lon="-3.60794">
        <ele>4.4</ele>
        <time>2020-06-07T10:52:15Z</time>
      </trkpt>
      <trkpt lat="47.77295" lon="-3.60795">
        <ele>4.7</ele>
        <time>2020-06-07T10:52:16Z</time>
      </trkpt>
      <trkpt lat="47.77291" lon="-3.60797">
        <ele>4.9</ele>
        <time>2020-06-07T10:52:17Z</time>
      </trkpt>
      <trkpt lat="47.77288" lon="-3.60798">
        <ele>5.1</ele>
        <time>2020-06-07T10:52:18Z</time>
      </trkpt>
      <trkpt lat="47.77284" lon="-3.608">
        <ele>5.4</ele>
        <time>2020-06-07T10:52:19Z</time>
      </trkpt>
      <trkpt lat="47.7728" lon="-3.60802">
        <ele>6</ele>
        <time>2020-06-07T10:52:20Z</time>
      </trkpt>
      <trkpt lat="47.77277" lon="-3.60803">
        <ele>6.2</ele>
        <time>2020-06-07T10:52:21Z</time>
      </trkpt>
      <trkpt lat="47.77274" lon="-3.60805">
        <ele>6.6</ele>
        <time>2020-06-07T10:52:22Z</time>
      </trkpt>
      <trkpt lat="47.77271" lon="-3.60806">
        <ele>6.8</ele>
        <time>2020-06-07T10:52:23Z</time>
      </trkpt>
      <trkpt lat="47.77268" lon="-3.60807">
        <ele>7</ele>
        <time>2020-06-07T10:52:24Z</time>
      </trkpt>
      <trkpt lat="47.77265" lon="-3.60808">
        <ele>7.3</ele>
        <time>2020-06-07T10:52:25Z</time>
      </trkpt>
      <trkpt lat="47.77262" lon="-3.6081">
        <ele>7.5</ele>
        <time>2020-06-07T10:52:26Z</time>
      </trkpt>
      <trkpt lat="47.77259" lon="-3.60812">
        <ele>7.8</ele>
        <time>2020-06-07T10:52:27Z</time>
      </trkpt>
      <trkpt lat="47.77255" lon="-3.60813">
        <ele>8.1</ele>
        <time>2020-06-07T10:52:28Z</time>
      </trkpt>
      <trkpt lat="47.77252" lon="-3.60814">
        <ele>8.4</ele>
        <time>2020-06-07T10:52:29Z</time>
      </trkpt>
      <trkpt lat="47.77248" lon="-3.60815">
        <ele>8.6</ele>
        <time>2020-06-07T10:52:30Z</time>
      </trkpt>
      <trkpt lat="47.77245" lon="-3.60816">
        <ele>8.8</ele>
        <time>2020-06-07T10:52:31Z</time>
      </trkpt>
      <trkpt lat="47.77241" lon="-3.60818">
        <ele>9</ele>
        <time>2020-06-07T10:52:32Z</time>
      </trkpt>
      <trkpt lat="47.77238" lon="-3.60818">
        <ele>9.2</ele>
        <time>2020-06-07T10:52:33Z</time>
      </trkpt>
      <trkpt lat="47.77234" lon="-3.60819">
        <ele>9.4</ele>
        <time>2020-06-07T10:52:34Z</time>
      </trkpt>
      <trkpt lat="47.7723" lon="-3.60821">
        <ele>9.6</ele>
        <time>2020-06-07T10:52:35Z</time>
      </trkpt>
      <trkpt lat="47.77227" lon="-3.60822">
        <ele>9.8</ele>
        <time>2020-06-07T10:52:36Z</time>
      </trkpt>
      <trkpt lat="47.77224" lon="-3.60824">
        <ele>9.9</ele>
        <time>2020-06-07T10:52:37Z</time>
      </trkpt>
      <trkpt lat="47.77221" lon="-3.60825">
        <ele>10</ele>
        <time>2020-06-07T10:52:38Z</time>
      </trkpt>
      <trkpt lat="47.77218" lon="-3.60826">
        <ele>10.2</ele>
        <time>2020-06-07T10:52:39Z</time>
      </trkpt>
      <trkpt lat="47.77214" lon="-3.60828">
        <ele>10.4</ele>
        <time>2020-06-07T10:52:40Z</time>
      </trkpt>
      <trkpt lat="47.77211" lon="-3.60829">
        <ele>10.6</ele>
        <time>2020-06-07T10:52:41Z</time>
      </trkpt>
      <trkpt lat="47.77208" lon="-3.60829">
        <ele>10.7</ele>
        <time>2020-06-07T10:52:42Z</time>
      </trkpt>
      <trkpt lat="47.77205" lon="-3.60829">
        <ele>10.9</ele>
        <time>2020-06-07T10:52:43Z</time>
      </trkpt>
      <trkpt lat="47.77204" lon="-3.6083">
        <ele>11</ele>
        <time>2020-06-07T10:52:44Z</time>
      </trkpt>
      <trkpt lat="47.772" lon="-3.60829">
        <ele>11.2</ele>
        <time>2020-06-07T10:52:45Z</time>
      </trkpt>
      <trkpt lat="47.77199" lon="-3.60829">
        <ele>11.7</ele>
        <time>2020-06-07T10:52:46Z</time>
      </trkpt>
      <trkpt lat="47.77197" lon="-3.60829">
        <ele>11.7</ele>
        <time>2020-06-07T10:52:47Z</time>
      </trkpt>
      <trkpt lat="47.77196" lon="-3.60827">
        <ele>11.7</ele>
        <time>2020-06-07T10:52:48Z</time>
      </trkpt>
      <trkpt lat="47.77195" lon="-3.60827">
        <ele>11.7</ele>
        <time>2020-06-07T10:52:49Z</time>
      </trkpt>
      <trkpt lat="47.77195" lon="-3.60827">
        <ele>11.6</ele>
        <time>2020-06-07T10:52:50Z</time>
      </trkpt>
      <trkpt lat="47.77195" lon="-3.60826">
        <ele>11.6</ele>
        <time>2020-06-07T10:52:51Z</time>
      </trkpt>
      <trkpt lat="47.77194" lon="-3.60826">
        <ele>11.6</ele>
        <time>2020-06-07T10:52:52Z</time>
      </trkpt>
      <trkpt lat="47.77193" lon="-3.60825">
        <ele>11.6</ele>
        <time>2020-06-07T10:52:53Z</time>
      </trkpt>
      <trkpt lat="47.77192" lon="-3.60825">
        <ele>11.6</ele>
        <time>2020-06-07T10:52:54Z</time>
      </trkpt>
      <trkpt lat="47.77192" lon="-3.60824">
        <ele>11.6</ele>
        <time>2020-06-07T10:52:55Z</time>
      </trkpt>
      <trkpt lat="47.77192" lon="-3.60825">
        <ele>11.6</ele>
        <time>2020-06-07T10:52:56Z</time>
      </trkpt>
      <trkpt lat="47.77192" lon="-3.60826">
        <ele>11.6</ele>
        <time>2020-06-07T10:52:57Z</time>
      </trkpt>
      <trkpt lat="47.77191" lon="-3.60828">
        <ele>11.6</ele>
        <time>2020-06-07T10:52:58Z</time>
      </trkpt>
      <trkpt lat="47.7719" lon="-3.6083">
        <ele>11.6</ele>
        <time>2020-06-07T10:52:59Z</time>
      </trkpt>
      <trkpt lat="47.77189" lon="-3.60831">
        <ele>11.6</ele>
        <time>2020-06-07T10:53:00Z</time>
      </trkpt>
      <trkpt lat="47.77186" lon="-3.60834">
        <ele>11.6</ele>
        <time>2020-06-07T10:53:01Z</time>
      </trkpt>
      <trkpt lat="47.77185" lon="-3.60835">
        <ele>11.6</ele>
        <time>2020-06-07T10:53:02Z</time>
      </trkpt>
      <trkpt lat="47.77184" lon="-3.60836">
        <ele>11.6</ele>
        <time>2020-06-07T10:53:03Z</time>
      </trkpt>
      <trkpt lat="47.77186" lon="-3.60831">
        <ele>11.6</ele>
        <time>2020-06-07T10:53:43Z</time>
      </trkpt>
      <trkpt lat="47.77186" lon="-3.60831">
        <ele>11.6</ele>
        <time>2020-06-07T10:53:44Z</time>
      </trkpt>
      <trkpt lat="47.77186" lon="-3.60831">
        <ele>11.6</ele>
        <time>2020-06-07T10:53:45Z</time>
      </trkpt>
      <trkpt lat="47.77186" lon="-3.60831">
        <ele>11.6</ele>
        <time>2020-06-07T10:53:46Z</time>
      </trkpt>
      <trkpt lat="47.77185" lon="-3.60831">
        <ele>11.6</ele>
        <time>2020-06-07T10:53:47Z</time>
      </trkpt>
      <trkpt lat="47.77185" lon="-3.60831">
        <ele>11.6</ele>
        <time>2020-06-07T10:53:48Z</time>
      </trkpt>
      <trkpt lat="47.77185" lon="-3.60831">
        <ele>11.6</ele>
        <time>2020-06-07T10:53:49Z</time>
      </trkpt>
      <trkpt lat="47.77185" lon="-3.6083">
        <ele>11.6</ele>
        <time>2020-06-07T10:53:50Z</time>
      </trkpt>
      <trkpt lat="47.77184" lon="-3.60831">
        <ele>11.6</ele>
        <time>2020-06-07T10:53:51Z</time>
      </trkpt>
      <trkpt lat="47.77184" lon="-3.60831">
        <ele>11.6</ele>
        <time>2020-06-07T10:53:52Z</time>
      </trkpt>
      <trkpt lat="47.77184" lon="-3.60829">
        <ele>11.6</ele>
        <time>2020-06-07T10:53:53Z</time>
      </trkpt>
      <trkpt lat="47.77186" lon="-3.60831">
        <ele>11.6</ele>
        <time>2020-06-07T10:53:54Z</time>
      </trkpt>
      <trkpt lat="47.77186" lon="-3.60832">
        <ele>11.6</ele>
        <time>2020-06-07T10:53:55Z</time>
      </trkpt>
      <trkpt lat="47.77186" lon="-3.60832">
        <ele>11.6</ele>
        <time>2020-06-07T10:53:56Z</time>
      </trkpt>
      <trkpt lat="47.77186" lon="-3.60832">
        <ele>11.6</ele>
        <time>2020-06-07T10:53:57Z</time>
      </trkpt>
      <trkpt lat="47.77186" lon="-3.60832">
        <ele>11.6</ele>
        <time>2020-06-07T10:53:58Z</time>
      </trkpt>
      <trkpt lat="47.77186" lon="-3.60832">
        <ele>11.6</ele>
        <time>2020-06-07T10:53:59Z</time>
      </trkpt>
      <trkpt lat="47.77186" lon="-3.60832">
        <ele>11.6</ele>
        <time>2020-06-07T10:54:00Z</time>
      </trkpt>
      <trkpt lat="47.77186" lon="-3.60832">
        <ele>11.6</ele>
        <time>2020-06-07T10:54:01Z</time>
      </trkpt>
      <trkpt lat="47.77186" lon="-3.60832">
        <ele>11.6</ele>
        <time>2020-06-07T10:54:02Z</time>
      </trkpt>
      <trkpt lat="47.77186" lon="-3.60832">
        <ele>11.6</ele>
        <time>2020-06-07T10:54:03Z</time>
      </trkpt>
      <trkpt lat="47.77193" lon="-3.60823">
        <ele>11.6</ele>
        <time>2020-06-07T10:55:00Z</time>
      </trkpt>
      <trkpt lat="47.77193" lon="-3.60822">
        <ele>11.6</ele>
        <time>2020-06-07T10:55:01Z</time>
      </trkpt>
      <trkpt lat="47.77194" lon="-3.60822">
        <ele>11.6</ele>
        <time>2020-06-07T10:55:02Z</time>
      </trkpt>
      <trkpt lat="47.77194" lon="-3.60821">
        <ele>11.6</ele>
        <time>2020-06-07T10:55:03Z</time>
      </trkpt>
      <trkpt lat="47.77195" lon="-3.60822">
        <ele>11.6</ele>
        <time>2020-06-07T10:55:04Z</time>
      </trkpt>
      <trkpt lat="47.77195" lon="-3.60824">
        <ele>11.6</ele>
        <time>2020-06-07T10:55:05Z</time>
      </trkpt>
      <trkpt lat="47.77196" lon="-3.60825">
        <ele>11.6</ele>
        <time>2020-06-07T10:55:06Z</time>
      </trkpt>
      <trkpt lat="47.77198" lon="-3.6083">
        <ele>11.6</ele>
        <time>2020-06-07T10:55:07Z</time>
      </trkpt>
      <trkpt lat="47.77199" lon="-3.60831">
        <ele>11.6</ele>
        <time>2020-06-07T10:55:08Z</time>
      </trkpt>
      <trkpt lat="47.77202" lon="-3.60832">
        <ele>11.5</ele>
        <time>2020-06-07T10:55:09Z</time>
      </trkpt>
      <trkpt lat="47.77205" lon="-3.60833">
        <ele>11.3</ele>
        <time>2020-06-07T10:55:10Z</time>
      </trkpt>
      <trkpt lat="47.77209" lon="-3.60834">
        <ele>10.9</ele>
        <time>2020-06-07T10:55:11Z</time>
      </trkpt>
      <trkpt lat="47.77214" lon="-3.60833">
        <ele>10.6</ele>
        <time>2020-06-07T10:55:12Z</time>
      </trkpt>
      <trkpt lat="47.77219" lon="-3.60832">
        <ele>10.3</ele>
        <time>2020-06-07T10:55:13Z</time>
      </trkpt>
      <trkpt lat="47.77224" lon="-3.6083">
        <ele>10</ele>
        <time>2020-06-07T10:55:14Z</time>
      </trkpt>
      <trkpt lat="47.7723" lon="-3.60827">
        <ele>9.8</ele>
        <time>2020-06-07T10:55:15Z</time>
      </trkpt>
      <trkpt lat="47.77235" lon="-3.60826">
        <ele>9.5</ele>
        <time>2020-06-07T10:55:16Z</time>
      </trkpt>
      <trkpt lat="47.7724" lon="-3.60824">
        <ele>9.2</ele>
        <time>2020-06-07T10:55:17Z</time>
      </trkpt>
      <trkpt lat="47.77246" lon="-3.60823">
        <ele>8.9</ele>
        <time>2020-06-07T10:55:18Z</time>
      </trkpt>
      <trkpt lat="47.77251" lon="-3.60821">
        <ele>8.6</ele>
        <time>2020-06-07T10:55:19Z</time>
      </trkpt>
      <trkpt lat="47.77257" lon="-3.6082">
        <ele>8.2</ele>
        <time>2020-06-07T10:55:20Z</time>
      </trkpt>
      <trkpt lat="47.77261" lon="-3.60818">
        <ele>7.8</ele>
        <time>2020-06-07T10:55:21Z</time>
      </trkpt>
      <trkpt lat="47.77266" lon="-3.60815">
        <ele>7.4</ele>
        <time>2020-06-07T10:55:22Z</time>
      </trkpt>
      <trkpt lat="47.77271" lon="-3.60813">
        <ele>7</ele>
        <time>2020-06-07T10:55:23Z</time>
      </trkpt>
      <trkpt lat="47.77275" lon="-3.60811">
        <ele>6.7</ele>
        <time>2020-06-07T10:55:24Z</time>
      </trkpt>
      <trkpt lat="47.7728" lon="-3.6081">
        <ele>6.2</ele>
        <time>2020-06-07T10:55:25Z</time>
      </trkpt>
      <trkpt lat="47.77285" lon="-3.60809">
        <ele>5.8</ele>
        <time>2020-06-07T10:55:26Z</time>
      </trkpt>
      <trkpt lat="47.7729" lon="-3.60808">
        <ele>5.4</ele>
        <time>2020-06-07T10:55:27Z</time>
      </trkpt>
      <trkpt lat="47.77295" lon="-3.60807">
        <ele>5</ele>
        <time>2020-06-07T10:55:28Z</time>
      </trkpt>
      <trkpt lat="47.773" lon="-3.60805">
        <ele>4.6</ele>
        <time>2020-06-07T10:55:29Z</time>
      </trkpt>
      <trkpt lat="47.77304" lon="-3.60803">
        <ele>4.3</ele>
        <time>2020-06-07T10:55:30Z</time>
      </trkpt>
      <trkpt lat="47.77308" lon="-3.608">
        <ele>4.1</ele>
        <time>2020-06-07T10:55:31Z</time>
      </trkpt>
      <trkpt lat="47.77312" lon="-3.60797">
        <ele>3.9</ele>
        <time>2020-06-07T10:55:32Z</time>
      </trkpt>
      <trkpt lat="47.77314" lon="-3.60795">
        <ele>3.8</ele>
        <time>2020-06-07T10:55:33Z</time>
      </trkpt>
      <trkpt lat="47.77317" lon="-3.60792">
        <ele>3.6</ele>
        <time>2020-06-07T10:55:34Z</time>
      </trkpt>
      <trkpt lat="47.77318" lon="-3.60792">
        <ele>3.6</ele>
        <time>2020-06-07T10:55:35Z</time>
      </trkpt>
      <trkpt lat="47.77319" lon="-3.6079">
        <ele>3.5</ele>
        <time>2020-06-07T10:55:36Z</time>
      </trkpt>
      <trkpt lat="47.7732" lon="-3.60789">
        <ele>3.5</ele>
        <time>2020-06-07T10:55:37Z</time>
      </trkpt>
      <trkpt lat="47.77322" lon="-3.60788">
        <ele>3.5</ele>
        <time>2020-06-07T10:55:38Z</time>
      </trkpt>
      <trkpt lat="47.77324" lon="-3.60786">
        <ele>3.4</ele>
        <time>2020-06-07T10:55:39Z</time>
      </trkpt>
      <trkpt lat="47.77326" lon="-3.60784">
        <ele>3.4</ele>
        <time>2020-06-07T10:55:40Z</time>
      </trkpt>
      <trkpt lat="47.77329" lon="-3.60781">
        <ele>3.4</ele>
        <time>2020-06-07T10:55:41Z</time>
      </trkpt>
      <trkpt lat="47.7733" lon="-3.60779">
        <ele>3.4</ele>
        <time>2020-06-07T10:55:42Z</time>
      </trkpt>
      <trkpt lat="47.77333" lon="-3.60777">
        <ele>3.3</ele>
        <time>2020-06-07T10:55:43Z</time>
      </trkpt>
      <trkpt lat="47.77334" lon="-3.60776">
        <ele>3.3</ele>
        <time>2020-06-07T10:55:44Z</time>
      </trkpt>
      <trkpt lat="47.77337" lon="-3.60774">
        <ele>3.3</ele>
        <time>2020-06-07T10:55:45Z</time>
      </trkpt>
      <trkpt lat="47.77339" lon="-3.60771">
        <ele>3.3</ele>
        <time>2020-06-07T10:55:46Z</time>
      </trkpt>
      <trkpt lat="47.77342" lon="-3.60769">
        <ele>3.3</ele>
        <time>2020-06-07T10:55:47Z</time>
      </trkpt>
      <trkpt lat="47.77343" lon="-3.60768">
        <ele>3.3</ele>
        <time>2020-06-07T10:55:48Z</time>
      </trkpt>
      <trkpt lat="47.77346" lon="-3.60765">
        <ele>3.3</ele>
        <time>2020-06-07T10:55:49Z</time>
      </trkpt>
      <trkpt lat="47.77348" lon="-3.60763">
        <ele>3.3</ele>
        <time>2020-06-07T10:55:50Z</time>
      </trkpt>
      <trkpt lat="47.77352" lon="-3.6076">
        <ele>3.3</ele>
        <time>2020-06-07T10:55:51Z</time>
      </trkpt>
      <trkpt lat="47.77353" lon="-3.60759">
        <ele>3.3</ele>
        <time>2020-06-07T10:55:52Z</time>
      </trkpt>
      <trkpt lat="47.77356" lon="-3.60757">
        <ele>3.3</ele>
        <time>2020-06-07T10:55:53Z</time>
      </trkpt>
      <trkpt lat="47.77358" lon="-3.60756">
        <ele>3.3</ele>
        <time>2020-06-07T10:55:54Z</time>
      </trkpt>
      <trkpt lat="47.77362" lon="-3.60754">
        <ele>3.3</ele>
        <time>2020-06-07T10:55:55Z</time>
      </trkpt>
      <trkpt lat="47.77363" lon="-3.60753">
        <ele>3.3</ele>
        <time>2020-06-07T10:55:56Z</time>
      </trkpt>
      <trkpt lat="47.77366" lon="-3.6075">
        <ele>3.3</ele>
        <time>2020-06-07T10:55:57Z</time>
      </trkpt>
      <trkpt lat="47.77366" lon="-3.60748">
        <ele>3.3</ele>
        <time>2020-06-07T10:55:58Z</time>
      </trkpt>
      <trkpt lat="47.77367" lon="-3.60745">
        <ele>3.3</ele>
        <time>2020-06-07T10:55:59Z</time>
      </trkpt>
      <trkpt lat="47.77369" lon="-3.60741">
        <ele>3.4</ele>
        <time>2020-06-07T10:56:00Z</time>
      </trkpt>
      <trkpt lat="47.7737" lon="-3.60736">
        <ele>3.4</ele>
        <time>2020-06-07T10:56:01Z</time>
      </trkpt>
      <trkpt lat="47.77372" lon="-3.60732">
        <ele>3.4</ele>
        <time>2020-06-07T10:56:02Z</time>
      </trkpt>
      <trkpt lat="47.77374" lon="-3.60727">
        <ele>3.4</ele>
        <time>2020-06-07T10:56:03Z</time>
      </trkpt>
      <trkpt lat="47.77374" lon="-3.60723">
        <ele>3.4</ele>
        <time>2020-06-07T10:56:04Z</time>
      </trkpt>
      <trkpt lat="47.77374" lon="-3.6072">
        <ele>3.4</ele>
        <time>2020-06-07T10:56:05Z</time>
      </trkpt>
      <trkpt lat="47.77373" lon="-3.60718">
        <ele>3.4</ele>
        <time>2020-06-07T10:56:06Z</time>
      </trkpt>
      <trkpt lat="47.77372" lon="-3.60716">
        <ele>3.4</ele>
        <time>2020-06-07T10:56:07Z</time>
      </trkpt>
      <trkpt lat="47.77372" lon="-3.60716">
        <ele>3.4</ele>
        <time>2020-06-07T10:56:08Z</time>
      </trkpt>
      <trkpt lat="47.77371" lon="-3.60715">
        <ele>3.4</ele>
        <time>2020-06-07T10:56:09Z</time>
      </trkpt>
      <trkpt lat="47.7737" lon="-3.60715">
        <ele>3.4</ele>
        <time>2020-06-07T10:56:10Z</time>
      </trkpt>
      <trkpt lat="47.77371" lon="-3.60714">
        <ele>3.4</ele>
        <time>2020-06-07T10:56:11Z</time>
      </trkpt>
      <trkpt lat="47.77369" lon="-3.60713">
        <ele>3.4</ele>
        <time>2020-06-07T10:56:12Z</time>
      </trkpt>
      <trkpt lat="47.77369" lon="-3.60712">
        <ele>3.4</ele>
        <time>2020-06-07T10:56:13Z</time>
      </trkpt>
      <trkpt lat="47.77368" lon="-3.60713">
        <ele>3.4</ele>
        <time>2020-06-07T10:56:14Z</time>
      </trkpt>
      <trkpt lat="47.77368" lon="-3.60715">
        <ele>3.4</ele>
        <time>2020-06-07T10:56:15Z</time>
      </trkpt>
      <trkpt lat="47.77368" lon="-3.60716">
        <ele>3.4</ele>
        <time>2020-06-07T10:56:16Z</time>
      </trkpt>
      <trkpt lat="47.77368" lon="-3.60718">
        <ele>3.4</ele>
        <time>2020-06-07T10:56:17Z</time>
      </trkpt>
      <trkpt lat="47.77368" lon="-3.6072">
        <ele>3.4</ele>
        <time>2020-06-07T10:56:18Z</time>
      </trkpt>
      <trkpt lat="47.77369" lon="-3.60721">
        <ele>3.4</ele>
        <time>2020-06-07T10:56:19Z</time>
      </trkpt>
      <trkpt lat="47.77369" lon="-3.60723">
        <ele>3.4</ele>
        <time>2020-06-07T10:56:20Z</time>
      </trkpt>
      <trkpt lat="47.77369" lon="-3.60724">
        <ele>3.4</ele>
        <time>2020-06-07T10:58:02Z</time>
      </trkpt>
      <trkpt lat="47.77369" lon="-3.60726">
        <ele>3.4</ele>
        <time>2020-06-07T10:58:03Z</time>
      </trkpt>
      <trkpt lat="47.77369" lon="-3.60729">
        <ele>3.3</ele>
        <time>2020-06-07T10:58:04Z</time>
      </trkpt>
      <trkpt lat="47.77369" lon="-3.6073">
        <ele>3.3</ele>
        <time>2020-06-07T10:58:05Z</time>
      </trkpt>
      <trkpt lat="47.77368" lon="-3.60732">
        <ele>3.3</ele>
        <time>2020-06-07T10:58:06Z</time>
      </trkpt>
      <trkpt lat="47.77368" lon="-3.60733">
        <ele>3.3</ele>
        <time>2020-06-07T10:58:07Z</time>
      </trkpt>
      <trkpt lat="47.77368" lon="-3.60734">
        <ele>3.3</ele>
        <time>2020-06-07T10:58:08Z</time>
      </trkpt>
      <trkpt lat="47.77368" lon="-3.60734">
        <ele>3.3</ele>
        <time>2020-06-07T10:58:09Z</time>
      </trkpt>
      <trkpt lat="47.77368" lon="-3.60734">
        <ele>3.3</ele>
        <time>2020-06-07T10:58:10Z</time>
      </trkpt>
      <trkpt lat="47.77368" lon="-3.60733">
        <ele>3.3</ele>
        <time>2020-06-07T10:58:11Z</time>
      </trkpt>
      <trkpt lat="47.77369" lon="-3.60732">
        <ele>3.3</ele>
        <time>2020-06-07T10:58:12Z</time>
      </trkpt>
      <trkpt lat="47.7737" lon="-3.6073">
        <ele>3.3</ele>
        <time>2020-06-07T10:58:13Z</time>
      </trkpt>
      <trkpt lat="47.77371" lon="-3.60728">
        <ele>3.3</ele>
        <time>2020-06-07T10:58:14Z</time>
      </trkpt>
      <trkpt lat="47.77371" lon="-3.60726">
        <ele>3.3</ele>
        <time>2020-06-07T10:58:15Z</time>
      </trkpt>
      <trkpt lat="47.77371" lon="-3.60724">
        <ele>3.3</ele>
        <time>2020-06-07T10:58:16Z</time>
      </trkpt>
      <trkpt lat="47.77372" lon="-3.60723">
        <ele>3.3</ele>
        <time>2020-06-07T10:58:17Z</time>
      </trkpt>
      <trkpt lat="47.77372" lon="-3.60722">
        <ele>3.3</ele>
        <time>2020-06-07T10:58:18Z</time>
      </trkpt>
      <trkpt lat="47.77371" lon="-3.60721">
        <ele>3.3</ele>
        <time>2020-06-07T10:58:19Z</time>
      </trkpt>
      <trkpt lat="47.7737" lon="-3.6072">
        <ele>3.3</ele>
        <time>2020-06-07T10:58:20Z</time>
      </trkpt>
      <trkpt lat="47.7737" lon="-3.6072">
        <ele>3.3</ele>
        <time>2020-06-07T10:58:21Z</time>
      </trkpt>
      <trkpt lat="47.7737" lon="-3.60719">
        <ele>3.3</ele>
        <time>2020-06-07T10:58:22Z</time>
      </trkpt>
      <trkpt lat="47.77369" lon="-3.60719">
        <ele>3.3</ele>
        <time>2020-06-07T10:58:23Z</time>
      </trkpt>
      <trkpt lat="47.77368" lon="-3.60719">
        <ele>3.3</ele>
        <time>2020-06-07T10:58:24Z</time>
      </trkpt>
      <trkpt lat="47.77368" lon="-3.60719">
        <ele>3.3</ele>
        <time>2020-06-07T10:58:25Z</time>
      </trkpt>
      <trkpt lat="47.77368" lon="-3.60718">
        <ele>3.3</ele>
        <time>2020-06-07T10:58:26Z</time>
      </trkpt>
      <trkpt lat="47.77368" lon="-3.60717">
        <ele>3.3</ele>
        <time>2020-06-07T10:58:27Z</time>
      </trkpt>
      <trkpt lat="47.77367" lon="-3.60717">
        <ele>3.3</ele>
        <time>2020-06-07T10:58:28Z</time>
      </trkpt>
      <trkpt lat="47.77368" lon="-3.60718">
        <ele>3.3</ele>
        <time>2020-06-07T10:58:29Z</time>
      </trkpt>
      <trkpt lat="47.77368" lon="-3.60718">
        <ele>3.3</ele>
        <time>2020-06-07T10:58:30Z</time>
      </trkpt>
      <trkpt lat="47.77367" lon="-3.60717">
        <ele>3.3</ele>
        <time>2020-06-07T10:58:31Z</time>
      </trkpt>
      <trkpt lat="47.77367" lon="-3.60716">
        <ele>3.3</ele>
        <time>2020-06-07T10:58:32Z</time>
      </trkpt>
      <trkpt lat="47.77366" lon="-3.60715">
        <ele>3.3</ele>
        <time>2020-06-07T10:58:33Z</time>
      </trkpt>
      <trkpt lat="47.77367" lon="-3.60715">
        <ele>3.3</ele>
        <time>2020-06-07T10:58:34Z</time>
      </trkpt>
      <trkpt lat="47.77367" lon="-3.60715">
        <ele>3.3</ele>
        <time>2020-06-07T10:58:35Z</time>
      </trkpt>
      <trkpt lat="47.77367" lon="-3.60715">
        <ele>3.3</ele>
        <time>2020-06-07T10:58:36Z</time>
      </trkpt>
      <trkpt lat="47.77367" lon="-3.60716">
        <ele>3.3</ele>
        <time>2020-06-07T10:58:37Z</time>
      </trkpt>
      <trkpt lat="47.77367" lon="-3.60716">
        <ele>3.3</ele>
        <time>2020-06-07T10:58:38Z</time>
      </trkpt>
      <trkpt lat="47.77369" lon="-3.60718">
        <ele>3.3</ele>
        <time>2020-06-07T10:58:43Z</time>
      </trkpt>
      <trkpt lat="47.77369" lon="-3.60718">
        <ele>3.3</ele>
        <time>2020-06-07T10:58:44Z</time>
      </trkpt>
      <trkpt lat="47.77369" lon="-3.60718">
        <ele>3.3</ele>
        <time>2020-06-07T10:58:45Z</time>
      </trkpt>
      <trkpt lat="47.77369" lon="-3.60717">
        <ele>3.3</ele>
        <time>2020-06-07T10:58:46Z</time>
      </trkpt>
      <trkpt lat="47.77369" lon="-3.60717">
        <ele>3.3</ele>
        <time>2020-06-07T10:58:47Z</time>
      </trkpt>
      <trkpt lat="47.77369" lon="-3.60717">
        <ele>3.3</ele>
        <time>2020-06-07T10:58:48Z</time>
      </trkpt>
      <trkpt lat="47.77369" lon="-3.60717">
        <ele>3.3</ele>
        <time>2020-06-07T10:58:49Z</time>
      </trkpt>
      <trkpt lat="47.77369" lon="-3.60717">
        <ele>3.3</ele>
        <time>2020-06-07T10:58:50Z</time>
      </trkpt>
      <trkpt lat="47.77369" lon="-3.60717">
        <ele>3.3</ele>
        <time>2020-06-07T10:58:51Z</time>
      </trkpt>
      <trkpt lat="47.77368" lon="-3.60717">
        <ele>3.3</ele>
        <time>2020-06-07T10:58:52Z</time>
      </trkpt>
      <trkpt lat="47.77368" lon="-3.60717">
        <ele>3.3</ele>
        <time>2020-06-07T10:58:53Z</time>
      </trkpt>
      <trkpt lat="47.77369" lon="-3.60705">
        <ele>3.3</ele>
        <time>2020-06-07T11:04:04Z</time>
      </trkpt>
      <trkpt lat="47.77371" lon="-3.60704">
        <ele>3.3</ele>
        <time>2020-06-07T11:04:05Z</time>
      </trkpt>
      <trkpt lat="47.77371" lon="-3.60703">
        <ele>3.3</ele>
        <time>2020-06-07T11:04:06Z</time>
      </trkpt>
      <trkpt lat="47.77373" lon="-3.60702">
        <ele>3.3</ele>
        <time>2020-06-07T11:04:07Z</time>
      </trkpt>
      <trkpt lat="47.77373" lon="-3.60701">
        <ele>3.3</ele>
        <time>2020-06-07T11:04:08Z</time>
      </trkpt>
      <trkpt lat="47.77373" lon="-3.60701">
        <ele>3.3</ele>
        <time>2020-06-07T11:04:09Z</time>
      </trkpt>
      <trkpt lat="47.77373" lon="-3.607">
        <ele>3.3</ele>
        <time>2020-06-07T11:04:10Z</time>
      </trkpt>
      <trkpt lat="47.77373" lon="-3.60701">
        <ele>3.3</ele>
        <time>2020-06-07T11:04:11Z</time>
      </trkpt>
      <trkpt lat="47.77372" lon="-3.60702">
        <ele>3.3</ele>
        <time>2020-06-07T11:04:12Z</time>
      </trkpt>
      <trkpt lat="47.77372" lon="-3.60702">
        <ele>3.3</ele>
        <time>2020-06-07T11:04:13Z</time>
      </trkpt>
      <trkpt lat="47.77371" lon="-3.60702">
        <ele>3.3</ele>
        <time>2020-06-07T11:04:14Z</time>
      </trkpt>
      <trkpt lat="47.7737" lon="-3.60703">
        <ele>3.3</ele>
        <time>2020-06-07T11:04:15Z</time>
      </trkpt>
      <trkpt lat="47.7737" lon="-3.60704">
        <ele>3.3</ele>
        <time>2020-06-07T11:04:16Z</time>
      </trkpt>
      <trkpt lat="47.7737" lon="-3.60704">
        <ele>3.3</ele>
        <time>2020-06-07T11:04:17Z</time>
      </trkpt>
      <trkpt lat="47.7737" lon="-3.60706">
        <ele>3.3</ele>
        <time>2020-06-07T11:04:18Z</time>
      </trkpt>
      <trkpt lat="47.7737" lon="-3.60706">
        <ele>3.3</ele>
        <time>2020-06-07T11:04:19Z</time>
      </trkpt>
      <trkpt lat="47.77369" lon="-3.60707">
        <ele>3.3</ele>
        <time>2020-06-07T11:04:20Z</time>
      </trkpt>
      <trkpt lat="47.77369" lon="-3.60707">
        <ele>3.3</ele>
        <time>2020-06-07T11:04:21Z</time>
      </trkpt>
      <trkpt lat="47.77369" lon="-3.60707">
        <ele>3.3</ele>
        <time>2020-06-07T11:04:22Z</time>
      </trkpt>
      <trkpt lat="47.77369" lon="-3.60708">
        <ele>3.3</ele>
        <time>2020-06-07T11:04:23Z</time>
      </trkpt>
      <trkpt lat="47.77369" lon="-3.60709">
        <ele>3.3</ele>
        <time>2020-06-07T11:04:24Z</time>
      </trkpt>
      <trkpt lat="47.77368" lon="-3.6071">
        <ele>3.3</ele>
        <time>2020-06-07T11:04:25Z</time>
      </trkpt>
      <trkpt lat="47.77368" lon="-3.60711">
        <ele>3.3</ele>
        <time>2020-06-07T11:04:26Z</time>
      </trkpt>
      <trkpt lat="47.77368" lon="-3.60712">
        <ele>3.3</ele>
        <time>2020-06-07T11:04:27Z</time>
      </trkpt>
      <trkpt lat="47.77368" lon="-3.60712">
        <ele>3.3</ele>
        <time>2020-06-07T11:04:28Z</time>
      </trkpt>
      <trkpt lat="47.77368" lon="-3.60713">
        <ele>3.3</ele>
        <time>2020-06-07T11:04:29Z</time>
      </trkpt>
      <trkpt lat="47.77368" lon="-3.60713">
        <ele>3.3</ele>
        <time>2020-06-07T11:04:30Z</time>
      </trkpt>
      <trkpt lat="47.77368" lon="-3.60714">
        <ele>3.3</ele>
        <time>2020-06-07T11:04:31Z</time>
      </trkpt>
      <trkpt lat="47.77368" lon="-3.60715">
        <ele>3.3</ele>
        <time>2020-06-07T11:04:32Z</time>
      </trkpt>
      <trkpt lat="47.77368" lon="-3.60714">
        <ele>3.3</ele>
        <time>2020-06-07T11:04:33Z</time>
      </trkpt>
      <trkpt lat="47.77367" lon="-3.60714">
        <ele>3.3</ele>
        <time>2020-06-07T11:04:34Z</time>
      </trkpt>
      <trkpt lat="47.77366" lon="-3.60714">
        <ele>3.3</ele>
        <time>2020-06-07T11:04:35Z</time>
      </trkpt>
      <trkpt lat="47.77364" lon="-3.60714">
        <ele>3.3</ele>
        <time>2020-06-07T11:04:36Z</time>
      </trkpt>
      <trkpt lat="47.77363" lon="-3.60714">
        <ele>3.3</ele>
        <time>2020-06-07T11:04:37Z</time>
      </trkpt>
      <trkpt lat="47.77363" lon="-3.60713">
        <ele>3.3</ele>
        <time>2020-06-07T11:04:38Z</time>
      </trkpt>
      <trkpt lat="47.77365" lon="-3.60713">
        <ele>3.3</ele>
        <time>2020-06-07T11:04:39Z</time>
      </trkpt>
      <trkpt lat="47.77364" lon="-3.60712">
        <ele>3.3</ele>
        <time>2020-06-07T11:04:40Z</time>
      </trkpt>
      <trkpt lat="47.77364" lon="-3.60713">
        <ele>3.3</ele>
        <time>2020-06-07T11:04:41Z</time>
      </trkpt>
      <trkpt lat="47.77364" lon="-3.60712">
        <ele>3.3</ele>
        <time>2020-06-07T11:04:42Z</time>
      </trkpt>
      <trkpt lat="47.77363" lon="-3.60712">
        <ele>3.3</ele>
        <time>2020-06-07T11:04:43Z</time>
      </trkpt>
      <trkpt lat="47.77362" lon="-3.60711">
        <ele>3.3</ele>
        <time>2020-06-07T11:04:44Z</time>
      </trkpt>
      <trkpt lat="47.77362" lon="-3.60711">
        <ele>3.3</ele>
        <time>2020-06-07T11:04:45Z</time>
      </trkpt>
      <trkpt lat="47.77363" lon="-3.60712">
        <ele>3.3</ele>
        <time>2020-06-07T11:04:46Z</time>
      </trkpt>
      <trkpt lat="47.77363" lon="-3.60712">
        <ele>3.3</ele>
        <time>2020-06-07T11:04:47Z</time>
      </trkpt>
      <trkpt lat="47.77363" lon="-3.60713">
        <ele>3.3</ele>
        <time>2020-06-07T11:04:48Z</time>
      </trkpt>
      <trkpt lat="47.77363" lon="-3.60714">
        <ele>3.3</ele>
        <time>2020-06-07T11:04:49Z</time>
      </trkpt>
      <trkpt lat="47.77364" lon="-3.60714">
        <ele>3.3</ele>
        <time>2020-06-07T11:04:50Z</time>
      </trkpt>
      <trkpt lat="47.77365" lon="-3.60714">
        <ele>3.3</ele>
        <time>2020-06-07T11:04:51Z</time>
      </trkpt>
      <trkpt lat="47.77365" lon="-3.60715">
        <ele>3.3</ele>
        <time>2020-06-07T11:04:52Z</time>
      </trkpt>
      <trkpt lat="47.77366" lon="-3.60715">
        <ele>3.3</ele>
        <time>2020-06-07T11:04:53Z</time>
      </trkpt>
      <trkpt lat="47.77366" lon="-3.60716">
        <ele>3.3</ele>
        <time>2020-06-07T11:04:54Z</time>
      </trkpt>
      <trkpt lat="47.77366" lon="-3.60716">
        <ele>3.3</ele>
        <time>2020-06-07T11:04:55Z</time>
      </trkpt>
      <trkpt lat="47.77366" lon="-3.60717">
        <ele>3.3</ele>
        <time>2020-06-07T11:04:56Z</time>
      </trkpt>
      <trkpt lat="47.77366" lon="-3.60717">
        <ele>3.3</ele>
        <time>2020-06-07T11:04:57Z</time>
      </trkpt>
      <trkpt lat="47.77367" lon="-3.60718">
        <ele>3.3</ele>
        <time>2020-06-07T11:04:58Z</time>
      </trkpt>
      <trkpt lat="47.77367" lon="-3.60719">
        <ele>3.3</ele>
        <time>2020-06-07T11:04:59Z</time>
      </trkpt>
      <trkpt lat="47.77367" lon="-3.6072">
        <ele>3.3</ele>
        <time>2020-06-07T11:05:00Z</time>
      </trkpt>
      <trkpt lat="47.77367" lon="-3.6072">
        <ele>3.3</ele>
        <time>2020-06-07T11:05:01Z</time>
      </trkpt>
      <trkpt lat="47.77368" lon="-3.6072">
        <ele>3.3</ele>
        <time>2020-06-07T11:05:02Z</time>
      </trkpt>
      <trkpt lat="47.77368" lon="-3.6072">
        <ele>3.3</ele>
        <time>2020-06-07T11:05:03Z</time>
      </trkpt>
      <trkpt lat="47.77368" lon="-3.60721">
        <ele>3.3</ele>
        <time>2020-06-07T11:05:04Z</time>
      </trkpt>
      <trkpt lat="47.77369" lon="-3.6072">
        <ele>3.3</ele>
        <time>2020-06-07T11:05:05Z</time>
      </trkpt>
      <trkpt lat="47.77368" lon="-3.60719">
        <ele>3.3</ele>
        <time>2020-06-07T11:05:06Z</time>
      </trkpt>
      <trkpt lat="47.77368" lon="-3.6072">
        <ele>3.3</ele>
        <time>2020-06-07T11:05:07Z</time>
      </trkpt>
      <trkpt lat="47.77368" lon="-3.6072">
        <ele>3.3</ele>
        <time>2020-06-07T11:05:08Z</time>
      </trkpt>
      <trkpt lat="47.77367" lon="-3.60721">
        <ele>3.3</ele>
        <time>2020-06-07T11:05:09Z</time>
      </trkpt>
      <trkpt lat="47.77365" lon="-3.60721">
        <ele>3.3</ele>
        <time>2020-06-07T11:05:10Z</time>
      </trkpt>
      <trkpt lat="47.77364" lon="-3.6072">
        <ele>3.3</ele>
        <time>2020-06-07T11:05:11Z</time>
      </trkpt>
      <trkpt lat="47.77364" lon="-3.6072">
        <ele>3.3</ele>
        <time>2020-06-07T11:05:12Z</time>
      </trkpt>
      <trkpt lat="47.77364" lon="-3.6072">
        <ele>3.3</ele>
        <time>2020-06-07T11:05:13Z</time>
      </trkpt>
      <trkpt lat="47.77363" lon="-3.6072">
        <ele>3.3</ele>
        <time>2020-06-07T11:05:14Z</time>
      </trkpt>
      <trkpt lat="47.77363" lon="-3.60721">
        <ele>3.3</ele>
        <time>2020-06-07T11:05:15Z</time>
      </trkpt>
      <trkpt lat="47.77363" lon="-3.60721">
        <ele>3.3</ele>
        <time>2020-06-07T11:05:16Z</time>
      </trkpt>
      <trkpt lat="47.77362" lon="-3.6072">
        <ele>3.3</ele>
        <time>2020-06-07T11:05:17Z</time>
      </trkpt>
      <trkpt lat="47.77361" lon="-3.60719">
        <ele>3.3</ele>
        <time>2020-06-07T11:05:18Z</time>
      </trkpt>
      <trkpt lat="47.77361" lon="-3.6072">
        <ele>3.3</ele>
        <time>2020-06-07T11:05:19Z</time>
      </trkpt>
      <trkpt lat="47.77361" lon="-3.60719">
        <ele>3.3</ele>
        <time>2020-06-07T11:05:20Z</time>
      </trkpt>
      <trkpt lat="47.77361" lon="-3.60719">
        <ele>3.3</ele>
        <time>2020-06-07T11:05:21Z</time>
      </trkpt>
      <trkpt lat="47.77361" lon="-3.60719">
        <ele>3.3</ele>
        <time>2020-06-07T11:05:22Z</time>
      </trkpt>
      <trkpt lat="47.7736" lon="-3.6072">
        <ele>3.3</ele>
        <time>2020-06-07T11:05:23Z</time>
      </trkpt>
      <trkpt lat="47.7736" lon="-3.6072">
        <ele>3.3</ele>
        <time>2020-06-07T11:05:24Z</time>
      </trkpt>
      <trkpt lat="47.7736" lon="-3.6072">
        <ele>3.3</ele>
        <time>2020-06-07T11:05:25Z</time>
      </trkpt>
      <trkpt lat="47.77359" lon="-3.6072">
        <ele>3.3</ele>
        <time>2020-06-07T11:05:26Z</time>
      </trkpt>
      <trkpt lat="47.77358" lon="-3.60721">
        <ele>3.3</ele>
        <time>2020-06-07T11:05:27Z</time>
      </trkpt>
      <trkpt lat="47.77357" lon="-3.60721">
        <ele>3.3</ele>
        <time>2020-06-07T11:05:28Z</time>
      </trkpt>
      <trkpt lat="47.77355" lon="-3.60721">
        <ele>3.3</ele>
        <time>2020-06-07T11:05:29Z</time>
      </trkpt>
      <trkpt lat="47.77354" lon="-3.60722">
        <ele>3.3</ele>
        <time>2020-06-07T11:05:30Z</time>
      </trkpt>
      <trkpt lat="47.77354" lon="-3.60723">
        <ele>3.3</ele>
        <time>2020-06-07T11:05:31Z</time>
      </trkpt>
      <trkpt lat="47.77353" lon="-3.60724">
        <ele>3.3</ele>
        <time>2020-06-07T11:05:32Z</time>
      </trkpt>
      <trkpt lat="47.77353" lon="-3.60725">
        <ele>3.3</ele>
        <time>2020-06-07T11:05:33Z</time>
      </trkpt>
      <trkpt lat="47.77353" lon="-3.60725">
        <ele>3.3</ele>
        <time>2020-06-07T11:05:34Z</time>
      </trkpt>
      <trkpt lat="47.77354" lon="-3.60725">
        <ele>3.3</ele>
        <time>2020-06-07T11:05:35Z</time>
      </trkpt>
      <trkpt lat="47.77354" lon="-3.60724">
        <ele>3.3</ele>
        <time>2020-06-07T11:05:36Z</time>
      </trkpt>
      <trkpt lat="47.77354" lon="-3.60723">
        <ele>3.3</ele>
        <time>2020-06-07T11:05:37Z</time>
      </trkpt>
      <trkpt lat="47.77355" lon="-3.60723">
        <ele>3.3</ele>
        <time>2020-06-07T11:05:38Z</time>
      </trkpt>
      <trkpt lat="47.77355" lon="-3.60722">
        <ele>3.3</ele>
        <time>2020-06-07T11:05:39Z</time>
      </trkpt>
      <trkpt lat="47.77355" lon="-3.60723">
        <ele>3.3</ele>
        <time>2020-06-07T11:05:40Z</time>
      </trkpt>
      <trkpt lat="47.77355" lon="-3.60724">
        <ele>3.3</ele>
        <time>2020-06-07T11:05:41Z</time>
      </trkpt>
      <trkpt lat="47.77355" lon="-3.60724">
        <ele>3.3</ele>
        <time>2020-06-07T11:05:42Z</time>
      </trkpt>
      <trkpt lat="47.77354" lon="-3.60725">
        <ele>3.3</ele>
        <time>2020-06-07T11:05:43Z</time>
      </trkpt>
      <trkpt lat="47.77353" lon="-3.60725">
        <ele>3.3</ele>
        <time>2020-06-07T11:05:44Z</time>
      </trkpt>
      <trkpt lat="47.77352" lon="-3.60725">
        <ele>3.3</ele>
        <time>2020-06-07T11:05:45Z</time>
      </trkpt>
      <trkpt lat="47.77352" lon="-3.60726">
        <ele>3.3</ele>
        <time>2020-06-07T11:05:46Z</time>
      </trkpt>
      <trkpt lat="47.77352" lon="-3.60726">
        <ele>3.3</ele>
        <time>2020-06-07T11:05:47Z</time>
      </trkpt>
      <trkpt lat="47.77351" lon="-3.60727">
        <ele>3.3</ele>
        <time>2020-06-07T11:05:48Z</time>
      </trkpt>
      <trkpt lat="47.77351" lon="-3.60727">
        <ele>3.3</ele>
        <time>2020-06-07T11:05:49Z</time>
      </trkpt>
      <trkpt lat="47.77351" lon="-3.60727">
        <ele>3.3</ele>
        <time>2020-06-07T11:05:50Z</time>
      </trkpt>
      <trkpt lat="47.77352" lon="-3.60726">
        <ele>3.3</ele>
        <time>2020-06-07T11:05:51Z</time>
      </trkpt>
      <trkpt lat="47.77354" lon="-3.60726">
        <ele>3.3</ele>
        <time>2020-06-07T11:05:52Z</time>
      </trkpt>
      <trkpt lat="47.77354" lon="-3.60726">
        <ele>3.3</ele>
        <time>2020-06-07T11:05:53Z</time>
      </trkpt>
      <trkpt lat="47.77355" lon="-3.60726">
        <ele>3.3</ele>
        <time>2020-06-07T11:05:54Z</time>
      </trkpt>
      <trkpt lat="47.77356" lon="-3.60726">
        <ele>3.3</ele>
        <time>2020-06-07T11:05:55Z</time>
      </trkpt>
      <trkpt lat="47.77356" lon="-3.60726">
        <ele>3.3</ele>
        <time>2020-06-07T11:05:56Z</time>
      </trkpt>
      <trkpt lat="47.77356" lon="-3.60726">
        <ele>3.3</ele>
        <time>2020-06-07T11:05:57Z</time>
      </trkpt>
      <trkpt lat="47.77356" lon="-3.60726">
        <ele>3.3</ele>
        <time>2020-06-07T11:05:58Z</time>
      </trkpt>
      <trkpt lat="47.77355" lon="-3.60726">
        <ele>3.3</ele>
        <time>2020-06-07T11:05:59Z</time>
      </trkpt>
      <trkpt lat="47.77355" lon="-3.60725">
        <ele>3.3</ele>
        <time>2020-06-07T11:06:00Z</time>
      </trkpt>
      <trkpt lat="47.77355" lon="-3.60726">
        <ele>3.3</ele>
        <time>2020-06-07T11:06:01Z</time>
      </trkpt>
      <trkpt lat="47.77355" lon="-3.60725">
        <ele>3.3</ele>
        <time>2020-06-07T11:06:02Z</time>
      </trkpt>
      <trkpt lat="47.77354" lon="-3.60725">
        <ele>3.3</ele>
        <time>2020-06-07T11:06:03Z</time>
      </trkpt>
      <trkpt lat="47.77353" lon="-3.60725">
        <ele>3.3</ele>
        <time>2020-06-07T11:06:04Z</time>
      </trkpt>
      <trkpt lat="47.77353" lon="-3.60725">
        <ele>3.3</ele>
        <time>2020-06-07T11:06:05Z</time>
      </trkpt>
      <trkpt lat="47.77352" lon="-3.60726">
        <ele>3.3</ele>
        <time>2020-06-07T11:06:06Z</time>
      </trkpt>
      <trkpt lat="47.77353" lon="-3.60726">
        <ele>3.3</ele>
        <time>2020-06-07T11:06:07Z</time>
      </trkpt>
      <trkpt lat="47.77353" lon="-3.60727">
        <ele>3.3</ele>
        <time>2020-06-07T11:06:08Z</time>
      </trkpt>
      <trkpt lat="47.77353" lon="-3.60727">
        <ele>3.3</ele>
        <time>2020-06-07T11:06:09Z</time>
      </trkpt>
      <trkpt lat="47.77354" lon="-3.60726">
        <ele>3.3</ele>
        <time>2020-06-07T11:06:10Z</time>
      </trkpt>
      <trkpt lat="47.77354" lon="-3.60726">
        <ele>3.3</ele>
        <time>2020-06-07T11:06:11Z</time>
      </trkpt>
      <trkpt lat="47.77354" lon="-3.60726">
        <ele>3.3</ele>
        <time>2020-06-07T11:06:12Z</time>
      </trkpt>
      <trkpt lat="47.77355" lon="-3.60725">
        <ele>3.3</ele>
        <time>2020-06-07T11:06:13Z</time>
      </trkpt>
      <trkpt lat="47.77355" lon="-3.60725">
        <ele>3.3</ele>
        <time>2020-06-07T11:06:14Z</time>
      </trkpt>
      <trkpt lat="47.77354" lon="-3.60724">
        <ele>3.3</ele>
        <time>2020-06-07T11:06:15Z</time>
      </trkpt>
      <trkpt lat="47.77354" lon="-3.60724">
        <ele>3.3</ele>
        <time>2020-06-07T11:06:16Z</time>
      </trkpt>
      <trkpt lat="47.77354" lon="-3.60725">
        <ele>3.3</ele>
        <time>2020-06-07T11:06:17Z</time>
      </trkpt>
      <trkpt lat="47.77354" lon="-3.60725">
        <ele>3.3</ele>
        <time>2020-06-07T11:06:18Z</time>
      </trkpt>
      <trkpt lat="47.77355" lon="-3.60726">
        <ele>3.3</ele>
        <time>2020-06-07T11:06:19Z</time>
      </trkpt>
      <trkpt lat="47.77356" lon="-3.60726">
        <ele>3.3</ele>
        <time>2020-06-07T11:06:20Z</time>
      </trkpt>
      <trkpt lat="47.77356" lon="-3.60726">
        <ele>3.3</ele>
        <time>2020-06-07T11:06:21Z</time>
      </trkpt>
      <trkpt lat="47.77357" lon="-3.60726">
        <ele>3.3</ele>
        <time>2020-06-07T11:06:22Z</time>
      </trkpt>
      <trkpt lat="47.77358" lon="-3.60726">
        <ele>3.3</ele>
        <time>2020-06-07T11:06:23Z</time>
      </trkpt>
      <trkpt lat="47.77358" lon="-3.60727">
        <ele>3.3</ele>
        <time>2020-06-07T11:06:24Z</time>
      </trkpt>
      <trkpt lat="47.7736" lon="-3.60726">
        <ele>3.3</ele>
        <time>2020-06-07T11:06:25Z</time>
      </trkpt>
      <trkpt lat="47.7736" lon="-3.60726">
        <ele>3.3</ele>
        <time>2020-06-07T11:06:26Z</time>
      </trkpt>
      <trkpt lat="47.7736" lon="-3.60725">
        <ele>3.3</ele>
        <time>2020-06-07T11:06:27Z</time>
      </trkpt>
      <trkpt lat="47.77361" lon="-3.60724">
        <ele>3.3</ele>
        <time>2020-06-07T11:06:28Z</time>
      </trkpt>
      <trkpt lat="47.77362" lon="-3.60722">
        <ele>3.3</ele>
        <time>2020-06-07T11:06:29Z</time>
      </trkpt>
      <trkpt lat="47.77362" lon="-3.60721">
        <ele>3.3</ele>
        <time>2020-06-07T11:06:30Z</time>
      </trkpt>
      <trkpt lat="47.77363" lon="-3.6072">
        <ele>3.3</ele>
        <time>2020-06-07T11:06:31Z</time>
      </trkpt>
      <trkpt lat="47.77364" lon="-3.60719">
        <ele>3.3</ele>
        <time>2020-06-07T11:06:32Z</time>
      </trkpt>
      <trkpt lat="47.77365" lon="-3.60716">
        <ele>3.3</ele>
        <time>2020-06-07T11:06:33Z</time>
      </trkpt>
      <trkpt lat="47.77366" lon="-3.60715">
        <ele>3.3</ele>
        <time>2020-06-07T11:06:34Z</time>
      </trkpt>
      <trkpt lat="47.77367" lon="-3.60714">
        <ele>3.3</ele>
        <time>2020-06-07T11:06:35Z</time>
      </trkpt>
      <trkpt lat="47.77368" lon="-3.60709">
        <ele>3.3</ele>
        <time>2020-06-07T11:06:36Z</time>
      </trkpt>
      <trkpt lat="47.77368" lon="-3.60708">
        <ele>3.3</ele>
        <time>2020-06-07T11:06:37Z</time>
      </trkpt>
      <trkpt lat="47.77368" lon="-3.60707">
        <ele>3.3</ele>
        <time>2020-06-07T11:06:38Z</time>
      </trkpt>
      <trkpt lat="47.77369" lon="-3.60707">
        <ele>3.3</ele>
        <time>2020-06-07T11:06:39Z</time>
      </trkpt>
      <trkpt lat="47.77369" lon="-3.60706">
        <ele>3.3</ele>
        <time>2020-06-07T11:06:40Z</time>
      </trkpt>
      <trkpt lat="47.7737" lon="-3.60706">
        <ele>3.3</ele>
        <time>2020-06-07T11:06:41Z</time>
      </trkpt>
      <trkpt lat="47.7737" lon="-3.60706">
        <ele>3.3</ele>
        <time>2020-06-07T11:06:42Z</time>
      </trkpt>
      <trkpt lat="47.7737" lon="-3.60705">
        <ele>3.3</ele>
        <time>2020-06-07T11:06:43Z</time>
      </trkpt>
      <trkpt lat="47.77371" lon="-3.60704">
        <ele>3.3</ele>
        <time>2020-06-07T11:06:44Z</time>
      </trkpt>
      <trkpt lat="47.77371" lon="-3.60704">
        <ele>3.3</ele>
        <time>2020-06-07T11:06:45Z</time>
      </trkpt>
      <trkpt lat="47.77371" lon="-3.60704">
        <ele>3.3</ele>
        <time>2020-06-07T11:06:46Z</time>
      </trkpt>
      <trkpt lat="47.77371" lon="-3.60704">
        <ele>3.3</ele>
        <time>2020-06-07T11:06:47Z</time>
      </trkpt>
      <trkpt lat="47.77372" lon="-3.60704">
        <ele>3.3</ele>
        <time>2020-06-07T11:06:48Z</time>
      </trkpt>
      <trkpt lat="47.77371" lon="-3.60703">
        <ele>3.3</ele>
        <time>2020-06-07T11:06:49Z</time>
      </trkpt>
      <trkpt lat="47.77371" lon="-3.60702">
        <ele>3.3</ele>
        <time>2020-06-07T11:06:50Z</time>
      </trkpt>
      <trkpt lat="47.77372" lon="-3.60703">
        <ele>3.3</ele>
        <time>2020-06-07T11:06:51Z</time>
      </trkpt>
      <trkpt lat="47.77372" lon="-3.60704">
        <ele>3.3</ele>
        <time>2020-06-07T11:06:52Z</time>
      </trkpt>
      <trkpt lat="47.77372" lon="-3.60706">
        <ele>3.3</ele>
        <time>2020-06-07T11:06:53Z</time>
      </trkpt>
      <trkpt lat="47.77373" lon="-3.60706">
        <ele>3.3</ele>
        <time>2020-06-07T11:06:54Z</time>
      </trkpt>
      <trkpt lat="47.77373" lon="-3.60707">
        <ele>3.3</ele>
        <time>2020-06-07T11:06:55Z</time>
      </trkpt>
      <trkpt lat="47.77373" lon="-3.60707">
        <ele>3.3</ele>
        <time>2020-06-07T11:06:56Z</time>
      </trkpt>
      <trkpt lat="47.7736" lon="-3.6072">
        <ele>1.6</ele>
        <time>2020-06-07T11:07:24Z</time>
      </trkpt>
      <trkpt lat="47.77358" lon="-3.60723">
        <ele>1.4</ele>
        <time>2020-06-07T11:07:25Z</time>
      </trkpt>
      <trkpt lat="47.77356" lon="-3.60727">
        <ele>1.4</ele>
        <time>2020-06-07T11:07:26Z</time>
      </trkpt>
      <trkpt lat="47.77355" lon="-3.60728">
        <ele>1.2</ele>
        <time>2020-06-07T11:07:27Z</time>
      </trkpt>
      <trkpt lat="47.77353" lon="-3.60732">
        <ele>1.5</ele>
        <time>2020-06-07T11:07:28Z</time>
      </trkpt>
      <trkpt lat="47.77352" lon="-3.60732">
        <ele>1.4</ele>
        <time>2020-06-07T11:07:29Z</time>
      </trkpt>
      <trkpt lat="47.7735" lon="-3.60736">
        <ele>1.9</ele>
        <time>2020-06-07T11:07:30Z</time>
      </trkpt>
      <trkpt lat="47.77349" lon="-3.60737">
        <ele>1.7</ele>
        <time>2020-06-07T11:07:31Z</time>
      </trkpt>
      <trkpt lat="47.77348" lon="-3.60739">
        <ele>2.5</ele>
        <time>2020-06-07T11:07:32Z</time>
      </trkpt>
      <trkpt lat="47.77347" lon="-3.6074">
        <ele>2.3</ele>
        <time>2020-06-07T11:07:33Z</time>
      </trkpt>
      <trkpt lat="47.77345" lon="-3.60741">
        <ele>3.2</ele>
        <time>2020-06-07T11:07:34Z</time>
      </trkpt>
      <trkpt lat="47.77344" lon="-3.60742">
        <ele>2.6</ele>
        <time>2020-06-07T11:07:35Z</time>
      </trkpt>
      <trkpt lat="47.77342" lon="-3.60743">
        <ele>3.5</ele>
        <time>2020-06-07T11:07:36Z</time>
      </trkpt>
      <trkpt lat="47.77341" lon="-3.60744">
        <ele>3.4</ele>
        <time>2020-06-07T11:07:37Z</time>
      </trkpt>
      <trkpt lat="47.77339" lon="-3.60745">
        <ele>4.4</ele>
        <time>2020-06-07T11:07:38Z</time>
      </trkpt>
      <trkpt lat="47.77339" lon="-3.60746">
        <ele>4.3</ele>
        <time>2020-06-07T11:07:39Z</time>
      </trkpt>
      <trkpt lat="47.77341" lon="-3.60743">
        <ele>2.9</ele>
        <time>2020-06-07T11:07:40Z</time>
      </trkpt>
      <trkpt lat="47.77342" lon="-3.60742">
        <ele>3.6</ele>
        <time>2020-06-07T11:07:41Z</time>
      </trkpt>
      <trkpt lat="47.77342" lon="-3.60741">
        <ele>3.5</ele>
        <time>2020-06-07T11:07:42Z</time>
      </trkpt>
      <trkpt lat="47.77342" lon="-3.60741">
        <ele>3.3</ele>
        <time>2020-06-07T11:07:43Z</time>
      </trkpt>
      <trkpt lat="47.77342" lon="-3.60741">
        <ele>3.2</ele>
        <time>2020-06-07T11:07:44Z</time>
      </trkpt>
      <trkpt lat="47.77342" lon="-3.6074">
        <ele>3.1</ele>
        <time>2020-06-07T11:07:45Z</time>
      </trkpt>
      <trkpt lat="47.77343" lon="-3.6074">
        <ele>1.6</ele>
        <time>2020-06-07T11:07:46Z</time>
      </trkpt>
      <trkpt lat="47.77343" lon="-3.60739">
        <ele>1.5</ele>
        <time>2020-06-07T11:07:47Z</time>
      </trkpt>
      <trkpt lat="47.77343" lon="-3.60739">
        <ele>1.4</ele>
        <time>2020-06-07T11:07:48Z</time>
      </trkpt>
      <trkpt lat="47.77449" lon="-3.60601">
        <ele>-2.3</ele>
        <time>2020-06-07T12:08:14Z</time>
      </trkpt>
      <trkpt lat="47.77671" lon="-3.60288">
        <ele>9.7</ele>
        <time>2020-06-07T12:08:15Z</time>
      </trkpt>
      <trkpt lat="47.77668" lon="-3.60304">
        <ele>9</ele>
        <time>2020-06-07T12:08:16Z</time>
      </trkpt>
      <trkpt lat="47.77662" lon="-3.60332">
        <ele>7.4</ele>
        <time>2020-06-07T12:08:17Z</time>
      </trkpt>
      <trkpt lat="47.77662" lon="-3.60347">
        <ele>6.3</ele>
        <time>2020-06-07T12:08:18Z</time>
      </trkpt>
      <trkpt lat="47.77667" lon="-3.60364">
        <ele>5.8</ele>
        <time>2020-06-07T12:08:19Z</time>
      </trkpt>
      <trkpt lat="47.77675" lon="-3.60382">
        <ele>5.1</ele>
        <time>2020-06-07T12:08:20Z</time>
      </trkpt>
      <trkpt lat="47.77849" lon="-3.60519">
        <ele>11.4</ele>
        <time>2020-06-07T12:08:58Z</time>
      </trkpt>
      <trkpt lat="47.77849" lon="-3.60523">
        <ele>11.5</ele>
        <time>2020-06-07T12:08:59Z</time>
      </trkpt>
      <trkpt lat="47.77847" lon="-3.6053">
        <ele>11.8</ele>
        <time>2020-06-07T12:09:00Z</time>
      </trkpt>
      <trkpt lat="47.77843" lon="-3.60538">
        <ele>12.2</ele>
        <time>2020-06-07T12:09:01Z</time>
      </trkpt>
      <trkpt lat="47.77842" lon="-3.60543">
        <ele>12.4</ele>
        <time>2020-06-07T12:09:02Z</time>
      </trkpt>
      <trkpt lat="47.77841" lon="-3.60547">
        <ele>12.6</ele>
        <time>2020-06-07T12:09:03Z</time>
      </trkpt>
      <trkpt lat="47.7784" lon="-3.60552">
        <ele>12.7</ele>
        <time>2020-06-07T12:09:04Z</time>
      </trkpt>
      <trkpt lat="47.77839" lon="-3.60557">
        <ele>12.9</ele>
        <time>2020-06-07T12:09:05Z</time>
      </trkpt>
      <trkpt lat="47.7784" lon="-3.60562">
        <ele>13.1</ele>
        <time>2020-06-07T12:09:06Z</time>
      </trkpt>
      <trkpt lat="47.7784" lon="-3.60565">
        <ele>13.2</ele>
        <time>2020-06-07T12:09:07Z</time>
      </trkpt>
      <trkpt lat="47.77838" lon="-3.6057">
        <ele>13.4</ele>
        <time>2020-06-07T12:09:08Z</time>
      </trkpt>
      <trkpt lat="47.77837" lon="-3.60576">
        <ele>13.6</ele>
        <time>2020-06-07T12:09:09Z</time>
      </trkpt>
      <trkpt lat="47.77835" lon="-3.60583">
        <ele>13.8</ele>
        <time>2020-06-07T12:09:10Z</time>
      </trkpt>
      <trkpt lat="47.77834" lon="-3.60588">
        <ele>13.9</ele>
        <time>2020-06-07T12:09:11Z</time>
      </trkpt>
      <trkpt lat="47.7783" lon="-3.60594">
        <ele>14.1</ele>
        <time>2020-06-07T12:09:12Z</time>
      </trkpt>
      <trkpt lat="47.77827" lon="-3.60601">
        <ele>14.3</ele>
        <time>2020-06-07T12:09:13Z</time>
      </trkpt>
      <trkpt lat="47.77825" lon="-3.6061">
        <ele>14.5</ele>
        <time>2020-06-07T12:09:14Z</time>
      </trkpt>
      <trkpt lat="47.77823" lon="-3.60618">
        <ele>14.6</ele>
        <time>2020-06-07T12:09:15Z</time>
      </trkpt>
      <trkpt lat="47.7782" lon="-3.60626">
        <ele>14.8</ele>
        <time>2020-06-07T12:09:16Z</time>
      </trkpt>
      <trkpt lat="47.77818" lon="-3.60634">
        <ele>14.9</ele>
        <time>2020-06-07T12:09:17Z</time>
      </trkpt>
      <trkpt lat="47.77815" lon="-3.60644">
        <ele>15</ele>
        <time>2020-06-07T12:09:18Z</time>
      </trkpt>
      <trkpt lat="47.77814" lon="-3.60653">
        <ele>15.1</ele>
        <time>2020-06-07T12:09:19Z</time>
      </trkpt>
      <trkpt lat="47.77808" lon="-3.6066">
        <ele>15.2</ele>
        <time>2020-06-07T12:09:20Z</time>
      </trkpt>
      <trkpt lat="47.77806" lon="-3.60671">
        <ele>15.4</ele>
        <time>2020-06-07T12:09:21Z</time>
      </trkpt>
      <trkpt lat="47.77803" lon="-3.6068">
        <ele>15.6</ele>
        <time>2020-06-07T12:09:22Z</time>
      </trkpt>
      <trkpt lat="47.778" lon="-3.6069">
        <ele>15.9</ele>
        <time>2020-06-07T12:09:23Z</time>
      </trkpt>
      <trkpt lat="47.77798" lon="-3.60699">
        <ele>16.2</ele>
        <time>2020-06-07T12:09:24Z</time>
      </trkpt>
      <trkpt lat="47.77796" lon="-3.60708">
        <ele>16.6</ele>
        <time>2020-06-07T12:09:25Z</time>
      </trkpt>
      <trkpt lat="47.77794" lon="-3.60716">
        <ele>17</ele>
        <time>2020-06-07T12:09:26Z</time>
      </trkpt>
      <trkpt lat="47.77792" lon="-3.60723">
        <ele>17.3</ele>
        <time>2020-06-07T12:09:27Z</time>
      </trkpt>
      <trkpt lat="47.77789" lon="-3.6073">
        <ele>17.6</ele>
        <time>2020-06-07T12:09:28Z</time>
      </trkpt>
      <trkpt lat="47.77787" lon="-3.60737">
        <ele>18</ele>
        <time>2020-06-07T12:09:29Z</time>
      </trkpt>
      <trkpt lat="47.77785" lon="-3.60744">
        <ele>18.3</ele>
        <time>2020-06-07T12:09:30Z</time>
      </trkpt>
      <trkpt lat="47.77784" lon="-3.60749">
        <ele>18.6</ele>
        <time>2020-06-07T12:09:31Z</time>
      </trkpt>
      <trkpt lat="47.77782" lon="-3.60755">
        <ele>18.9</ele>
        <time>2020-06-07T12:09:32Z</time>
      </trkpt>
      <trkpt lat="47.77781" lon="-3.6076">
        <ele>19.1</ele>
        <time>2020-06-07T12:09:33Z</time>
      </trkpt>
      <trkpt lat="47.77779" lon="-3.60764">
        <ele>19.3</ele>
        <time>2020-06-07T12:09:34Z</time>
      </trkpt>
      <trkpt lat="47.77779" lon="-3.60769">
        <ele>19.6</ele>
        <time>2020-06-07T12:09:35Z</time>
      </trkpt>
      <trkpt lat="47.77778" lon="-3.60771">
        <ele>19.6</ele>
        <time>2020-06-07T12:09:36Z</time>
      </trkpt>
      <trkpt lat="47.77778" lon="-3.60775">
        <ele>19.8</ele>
        <time>2020-06-07T12:09:37Z</time>
      </trkpt>
      <trkpt lat="47.77777" lon="-3.60781">
        <ele>20</ele>
        <time>2020-06-07T12:09:38Z</time>
      </trkpt>
      <trkpt lat="47.77776" lon="-3.60787">
        <ele>20.3</ele>
        <time>2020-06-07T12:09:39Z</time>
      </trkpt>
      <trkpt lat="47.77775" lon="-3.60792">
        <ele>20.5</ele>
        <time>2020-06-07T12:09:40Z</time>
      </trkpt>
      <trkpt lat="47.77774" lon="-3.60798">
        <ele>20.7</ele>
        <time>2020-06-07T12:09:41Z</time>
      </trkpt>
      <trkpt lat="47.77773" lon="-3.60805">
        <ele>21</ele>
        <time>2020-06-07T12:09:42Z</time>
      </trkpt>
      <trkpt lat="47.77772" lon="-3.60811">
        <ele>21.3</ele>
        <time>2020-06-07T12:09:43Z</time>
      </trkpt>
      <trkpt lat="47.77771" lon="-3.60818">
        <ele>21.5</ele>
        <time>2020-06-07T12:09:44Z</time>
      </trkpt>
      <trkpt lat="47.7777" lon="-3.60824">
        <ele>21.8</ele>
        <time>2020-06-07T12:09:45Z</time>
      </trkpt>
      <trkpt lat="47.7777" lon="-3.6083">
        <ele>22</ele>
        <time>2020-06-07T12:09:46Z</time>
      </trkpt>
      <trkpt lat="47.77769" lon="-3.60835">
        <ele>22.3</ele>
        <time>2020-06-07T12:09:47Z</time>
      </trkpt>
      <trkpt lat="47.77769" lon="-3.6084">
        <ele>22.5</ele>
        <time>2020-06-07T12:09:48Z</time>
      </trkpt>
      <trkpt lat="47.77769" lon="-3.60842">
        <ele>22.7</ele>
        <time>2020-06-07T12:09:49Z</time>
      </trkpt>
      <trkpt lat="47.77768" lon="-3.60847">
        <ele>22.9</ele>
        <time>2020-06-07T12:09:50Z</time>
      </trkpt>
      <trkpt lat="47.77768" lon="-3.60849">
        <ele>23</ele>
        <time>2020-06-07T12:09:51Z</time>
      </trkpt>
      <trkpt lat="47.77767" lon="-3.60855">
        <ele>23.3</ele>
        <time>2020-06-07T12:09:52Z</time>
      </trkpt>
      <trkpt lat="47.77767" lon="-3.60857">
        <ele>23.5</ele>
        <time>2020-06-07T12:09:53Z</time>
      </trkpt>
      <trkpt lat="47.77766" lon="-3.60862">
        <ele>23.8</ele>
        <time>2020-06-07T12:09:54Z</time>
      </trkpt>
      <trkpt lat="47.77766" lon="-3.60864">
        <ele>23.8</ele>
        <time>2020-06-07T12:09:55Z</time>
      </trkpt>
      <trkpt lat="47.77765" lon="-3.60868">
        <ele>24.1</ele>
        <time>2020-06-07T12:09:56Z</time>
      </trkpt>
      <trkpt lat="47.77765" lon="-3.60869">
        <ele>24.2</ele>
        <time>2020-06-07T12:09:57Z</time>
      </trkpt>
      <trkpt lat="47.77765" lon="-3.60872">
        <ele>24.3</ele>
        <time>2020-06-07T12:09:58Z</time>
      </trkpt>
      <trkpt lat="47.77765" lon="-3.60875">
        <ele>24.5</ele>
        <time>2020-06-07T12:09:59Z</time>
      </trkpt>
      <trkpt lat="47.77764" lon="-3.60879">
        <ele>24.7</ele>
        <time>2020-06-07T12:10:00Z</time>
      </trkpt>
      <trkpt lat="47.77764" lon="-3.6088">
        <ele>24.8</ele>
        <time>2020-06-07T12:10:01Z</time>
      </trkpt>
      <trkpt lat="47.77763" lon="-3.60884">
        <ele>25</ele>
        <time>2020-06-07T12:10:02Z</time>
      </trkpt>
      <trkpt lat="47.77763" lon="-3.60886">
        <ele>25.1</ele>
        <time>2020-06-07T12:10:03Z</time>
      </trkpt>
      <trkpt lat="47.77762" lon="-3.60891">
        <ele>25.4</ele>
        <time>2020-06-07T12:10:04Z</time>
      </trkpt>
      <trkpt lat="47.77762" lon="-3.60892">
        <ele>25.5</ele>
        <time>2020-06-07T12:10:05Z</time>
      </trkpt>
      <trkpt lat="47.77761" lon="-3.60897">
        <ele>25.8</ele>
        <time>2020-06-07T12:10:06Z</time>
      </trkpt>
      <trkpt lat="47.77761" lon="-3.60898">
        <ele>25.9</ele>
        <time>2020-06-07T12:10:07Z</time>
      </trkpt>
      <trkpt lat="47.77761" lon="-3.60901">
        <ele>26.1</ele>
        <time>2020-06-07T12:10:08Z</time>
      </trkpt>
      <trkpt lat="47.77761" lon="-3.60902">
        <ele>26.2</ele>
        <time>2020-06-07T12:10:09Z</time>
      </trkpt>
      <trkpt lat="47.77761" lon="-3.60905">
        <ele>26.2</ele>
        <time>2020-06-07T12:10:10Z</time>
      </trkpt>
      <trkpt lat="47.7776" lon="-3.60905">
        <ele>26.3</ele>
        <time>2020-06-07T12:10:11Z</time>
      </trkpt>
      <trkpt lat="47.7776" lon="-3.60906">
        <ele>26.3</ele>
        <time>2020-06-07T12:10:12Z</time>
      </trkpt>
      <trkpt lat="47.77759" lon="-3.60907">
        <ele>26.3</ele>
        <time>2020-06-07T12:10:13Z</time>
      </trkpt>
      <trkpt lat="47.77756" lon="-3.60908">
        <ele>26.4</ele>
        <time>2020-06-07T12:10:14Z</time>
      </trkpt>
      <trkpt lat="47.77754" lon="-3.60908">
        <ele>26.5</ele>
        <time>2020-06-07T12:10:15Z</time>
      </trkpt>
      <trkpt lat="47.77752" lon="-3.60909">
        <ele>26.6</ele>
        <time>2020-06-07T12:10:16Z</time>
      </trkpt>
      <trkpt lat="47.77751" lon="-3.60908">
        <ele>27.4</ele>
        <time>2020-06-07T12:10:17Z</time>
      </trkpt>
      <trkpt lat="47.77749" lon="-3.60909">
        <ele>27.4</ele>
        <time>2020-06-07T12:10:18Z</time>
      </trkpt>
      <trkpt lat="47.77748" lon="-3.6091">
        <ele>27.5</ele>
        <time>2020-06-07T12:10:19Z</time>
      </trkpt>
      <trkpt lat="47.77746" lon="-3.60912">
        <ele>27.5</ele>
        <time>2020-06-07T12:10:20Z</time>
      </trkpt>
      <trkpt lat="47.77745" lon="-3.60913">
        <ele>27.5</ele>
        <time>2020-06-07T12:10:21Z</time>
      </trkpt>
      <trkpt lat="47.77743" lon="-3.60913">
        <ele>27.6</ele>
        <time>2020-06-07T12:10:22Z</time>
      </trkpt>
      <trkpt lat="47.77742" lon="-3.60913">
        <ele>27.6</ele>
        <time>2020-06-07T12:10:23Z</time>
      </trkpt>
      <trkpt lat="47.77741" lon="-3.60913">
        <ele>27.6</ele>
        <time>2020-06-07T12:10:24Z</time>
      </trkpt>
      <trkpt lat="47.77738" lon="-3.60912">
        <ele>27.7</ele>
        <time>2020-06-07T12:10:25Z</time>
      </trkpt>
      <trkpt lat="47.77735" lon="-3.6091">
        <ele>27.7</ele>
        <time>2020-06-07T12:10:26Z</time>
      </trkpt>
      <trkpt lat="47.77731" lon="-3.60909">
        <ele>27.8</ele>
        <time>2020-06-07T12:10:27Z</time>
      </trkpt>
      <trkpt lat="47.77728" lon="-3.60907">
        <ele>27.8</ele>
        <time>2020-06-07T12:10:28Z</time>
      </trkpt>
      <trkpt lat="47.77725" lon="-3.60905">
        <ele>27.8</ele>
        <time>2020-06-07T12:10:29Z</time>
      </trkpt>
      <trkpt lat="47.77722" lon="-3.60905">
        <ele>27.9</ele>
        <time>2020-06-07T12:10:30Z</time>
      </trkpt>
      <trkpt lat="47.77719" lon="-3.60904">
        <ele>27.9</ele>
        <time>2020-06-07T12:10:31Z</time>
      </trkpt>
      <trkpt lat="47.77715" lon="-3.60905">
        <ele>27.9</ele>
        <time>2020-06-07T12:10:32Z</time>
      </trkpt>
      <trkpt lat="47.77714" lon="-3.60905">
        <ele>27.9</ele>
        <time>2020-06-07T12:10:33Z</time>
      </trkpt>
      <trkpt lat="47.7771" lon="-3.60905">
        <ele>27.9</ele>
        <time>2020-06-07T12:10:34Z</time>
      </trkpt>
      <trkpt lat="47.77709" lon="-3.60905">
        <ele>27.9</ele>
        <time>2020-06-07T12:10:35Z</time>
      </trkpt>
      <trkpt lat="47.77705" lon="-3.60903">
        <ele>27.8</ele>
        <time>2020-06-07T12:10:36Z</time>
      </trkpt>
      <trkpt lat="47.77703" lon="-3.60903">
        <ele>27.8</ele>
        <time>2020-06-07T12:10:37Z</time>
      </trkpt>
      <trkpt lat="47.777" lon="-3.60902">
        <ele>27.8</ele>
        <time>2020-06-07T12:10:38Z</time>
      </trkpt>
      <trkpt lat="47.77696" lon="-3.60901">
        <ele>27.7</ele>
        <time>2020-06-07T12:10:39Z</time>
      </trkpt>
      <trkpt lat="47.77692" lon="-3.609">
        <ele>27.7</ele>
        <time>2020-06-07T12:10:40Z</time>
      </trkpt>
      <trkpt lat="47.77688" lon="-3.609">
        <ele>27.6</ele>
        <time>2020-06-07T12:10:41Z</time>
      </trkpt>
      <trkpt lat="47.77684" lon="-3.60899">
        <ele>27.5</ele>
        <time>2020-06-07T12:10:42Z</time>
      </trkpt>
      <trkpt lat="47.77679" lon="-3.60898">
        <ele>27.5</ele>
        <time>2020-06-07T12:10:43Z</time>
      </trkpt>
      <trkpt lat="47.77675" lon="-3.60897">
        <ele>27.4</ele>
        <time>2020-06-07T12:10:44Z</time>
      </trkpt>
      <trkpt lat="47.77671" lon="-3.60896">
        <ele>27.3</ele>
        <time>2020-06-07T12:10:45Z</time>
      </trkpt>
      <trkpt lat="47.77667" lon="-3.60895">
        <ele>27.3</ele>
        <time>2020-06-07T12:10:46Z</time>
      </trkpt>
      <trkpt lat="47.77664" lon="-3.60894">
        <ele>27.2</ele>
        <time>2020-06-07T12:10:47Z</time>
      </trkpt>
      <trkpt lat="47.7766" lon="-3.60893">
        <ele>27.2</ele>
        <time>2020-06-07T12:10:48Z</time>
      </trkpt>
      <trkpt lat="47.77656" lon="-3.60892">
        <ele>27.1</ele>
        <time>2020-06-07T12:10:49Z</time>
      </trkpt>
      <trkpt lat="47.77652" lon="-3.60892">
        <ele>27</ele>
        <time>2020-06-07T12:10:50Z</time>
      </trkpt>
      <trkpt lat="47.77648" lon="-3.60892">
        <ele>27</ele>
        <time>2020-06-07T12:10:51Z</time>
      </trkpt>
      <trkpt lat="47.77644" lon="-3.60894">
        <ele>26.9</ele>
        <time>2020-06-07T12:10:52Z</time>
      </trkpt>
      <trkpt lat="47.7764" lon="-3.60897">
        <ele>26.8</ele>
        <time>2020-06-07T12:10:53Z</time>
      </trkpt>
      <trkpt lat="47.77637" lon="-3.609">
        <ele>26.8</ele>
        <time>2020-06-07T12:10:54Z</time>
      </trkpt>
      <trkpt lat="47.77635" lon="-3.60905">
        <ele>26.7</ele>
        <time>2020-06-07T12:10:55Z</time>
      </trkpt>
      <trkpt lat="47.77632" lon="-3.60911">
        <ele>26.6</ele>
        <time>2020-06-07T12:10:56Z</time>
      </trkpt>
      <trkpt lat="47.77628" lon="-3.60915">
        <ele>26.6</ele>
        <time>2020-06-07T12:10:57Z</time>
      </trkpt>
      <trkpt lat="47.77624" lon="-3.60921">
        <ele>26.5</ele>
        <time>2020-06-07T12:10:58Z</time>
      </trkpt>
      <trkpt lat="47.7762" lon="-3.60926">
        <ele>26.4</ele>
        <time>2020-06-07T12:10:59Z</time>
      </trkpt>
      <trkpt lat="47.77616" lon="-3.60932">
        <ele>26.3</ele>
        <time>2020-06-07T12:11:00Z</time>
      </trkpt>
      <trkpt lat="47.77612" lon="-3.60938">
        <ele>26.2</ele>
        <time>2020-06-07T12:11:01Z</time>
      </trkpt>
      <trkpt lat="47.77609" lon="-3.60945">
        <ele>25.5</ele>
        <time>2020-06-07T12:11:02Z</time>
      </trkpt>
      <trkpt lat="47.77605" lon="-3.60952">
        <ele>25.4</ele>
        <time>2020-06-07T12:11:03Z</time>
      </trkpt>
      <trkpt lat="47.77601" lon="-3.60959">
        <ele>25.3</ele>
        <time>2020-06-07T12:11:04Z</time>
      </trkpt>
      <trkpt lat="47.77598" lon="-3.60966">
        <ele>25.2</ele>
        <time>2020-06-07T12:11:05Z</time>
      </trkpt>
      <trkpt lat="47.77593" lon="-3.60973">
        <ele>25.1</ele>
        <time>2020-06-07T12:11:06Z</time>
      </trkpt>
      <trkpt lat="47.77589" lon="-3.6098">
        <ele>24.9</ele>
        <time>2020-06-07T12:11:07Z</time>
      </trkpt>
      <trkpt lat="47.77584" lon="-3.60987">
        <ele>24.7</ele>
        <time>2020-06-07T12:11:08Z</time>
      </trkpt>
      <trkpt lat="47.7758" lon="-3.60993">
        <ele>24.5</ele>
        <time>2020-06-07T12:11:09Z</time>
      </trkpt>
      <trkpt lat="47.77575" lon="-3.61001">
        <ele>24.3</ele>
        <time>2020-06-07T12:11:10Z</time>
      </trkpt>
      <trkpt lat="47.77571" lon="-3.61011">
        <ele>24</ele>
        <time>2020-06-07T12:11:11Z</time>
      </trkpt>
      <trkpt lat="47.77567" lon="-3.6102">
        <ele>23.7</ele>
        <time>2020-06-07T12:11:12Z</time>
      </trkpt>
      <trkpt lat="47.77565" lon="-3.61028">
        <ele>23.4</ele>
        <time>2020-06-07T12:11:13Z</time>
      </trkpt>
      <trkpt lat="47.77563" lon="-3.61035">
        <ele>23.1</ele>
        <time>2020-06-07T12:11:14Z</time>
      </trkpt>
      <trkpt lat="47.7756" lon="-3.61045">
        <ele>22.7</ele>
        <time>2020-06-07T12:11:15Z</time>
      </trkpt>
      <trkpt lat="47.77558" lon="-3.61056">
        <ele>22.3</ele>
        <time>2020-06-07T12:11:16Z</time>
      </trkpt>
      <trkpt lat="47.77557" lon="-3.61064">
        <ele>22</ele>
        <time>2020-06-07T12:11:17Z</time>
      </trkpt>
      <trkpt lat="47.77557" lon="-3.6107">
        <ele>21.8</ele>
        <time>2020-06-07T12:11:18Z</time>
      </trkpt>
      <trkpt lat="47.77555" lon="-3.6108">
        <ele>21.6</ele>
        <time>2020-06-07T12:11:19Z</time>
      </trkpt>
      <trkpt lat="47.77551" lon="-3.61095">
        <ele>21.3</ele>
        <time>2020-06-07T12:11:20Z</time>
      </trkpt>
      <trkpt lat="47.77548" lon="-3.61107">
        <ele>21.1</ele>
        <time>2020-06-07T12:11:21Z</time>
      </trkpt>
      <trkpt lat="47.77547" lon="-3.61113">
        <ele>21</ele>
        <time>2020-06-07T12:11:22Z</time>
      </trkpt>
      <trkpt lat="47.77547" lon="-3.61119">
        <ele>20.9</ele>
        <time>2020-06-07T12:11:23Z</time>
      </trkpt>
      <trkpt lat="47.77546" lon="-3.61129">
        <ele>20.7</ele>
        <time>2020-06-07T12:11:24Z</time>
      </trkpt>
      <trkpt lat="47.77546" lon="-3.61139">
        <ele>20.6</ele>
        <time>2020-06-07T12:11:25Z</time>
      </trkpt>
      <trkpt lat="47.77547" lon="-3.61148">
        <ele>20.4</ele>
        <time>2020-06-07T12:11:26Z</time>
      </trkpt>
      <trkpt lat="47.77548" lon="-3.61157">
        <ele>20.3</ele>
        <time>2020-06-07T12:11:27Z</time>
      </trkpt>
      <trkpt lat="47.7755" lon="-3.61164">
        <ele>20.2</ele>
        <time>2020-06-07T12:11:28Z</time>
      </trkpt>
      <trkpt lat="47.77552" lon="-3.61169">
        <ele>20.2</ele>
        <time>2020-06-07T12:11:29Z</time>
      </trkpt>
      <trkpt lat="47.77553" lon="-3.61174">
        <ele>20.1</ele>
        <time>2020-06-07T12:11:30Z</time>
      </trkpt>
      <trkpt lat="47.77555" lon="-3.61179">
        <ele>20.1</ele>
        <time>2020-06-07T12:11:31Z</time>
      </trkpt>
      <trkpt lat="47.77558" lon="-3.61184">
        <ele>20.1</ele>
        <time>2020-06-07T12:11:32Z</time>
      </trkpt>
      <trkpt lat="47.77562" lon="-3.61192">
        <ele>20.2</ele>
        <time>2020-06-07T12:11:33Z</time>
      </trkpt>
      <trkpt lat="47.77569" lon="-3.61199">
        <ele>20.4</ele>
        <time>2020-06-07T12:11:34Z</time>
      </trkpt>
      <trkpt lat="47.77574" lon="-3.61204">
        <ele>20.5</ele>
        <time>2020-06-07T12:11:35Z</time>
      </trkpt>
      <trkpt lat="47.77578" lon="-3.61211">
        <ele>20.7</ele>
        <time>2020-06-07T12:11:36Z</time>
      </trkpt>
      <trkpt lat="47.77581" lon="-3.6122">
        <ele>20.8</ele>
        <time>2020-06-07T12:11:37Z</time>
      </trkpt>
      <trkpt lat="47.77583" lon="-3.61231">
        <ele>20.9</ele>
        <time>2020-06-07T12:11:38Z</time>
      </trkpt>
      <trkpt lat="47.77585" lon="-3.61239">
        <ele>21</ele>
        <time>2020-06-07T12:11:39Z</time>
      </trkpt>
      <trkpt lat="47.77585" lon="-3.61247">
        <ele>21.1</ele>
        <time>2020-06-07T12:11:40Z</time>
      </trkpt>
      <trkpt lat="47.77584" lon="-3.61255">
        <ele>21.5</ele>
        <time>2020-06-07T12:11:41Z</time>
      </trkpt>
      <trkpt lat="47.77582" lon="-3.61263">
        <ele>21.5</ele>
        <time>2020-06-07T12:11:42Z</time>
      </trkpt>
      <trkpt lat="47.77579" lon="-3.61267">
        <ele>21.7</ele>
        <time>2020-06-07T12:11:43Z</time>
      </trkpt>
      <trkpt lat="47.77576" lon="-3.61272">
        <ele>21.1</ele>
        <time>2020-06-07T12:11:44Z</time>
      </trkpt>
      <trkpt lat="47.77573" lon="-3.61275">
        <ele>20.5</ele>
        <time>2020-06-07T12:11:45Z</time>
      </trkpt>
      <trkpt lat="47.77569" lon="-3.61278">
        <ele>19.9</ele>
        <time>2020-06-07T12:11:46Z</time>
      </trkpt>
      <trkpt lat="47.77564" lon="-3.61279">
        <ele>19.4</ele>
        <time>2020-06-07T12:11:47Z</time>
      </trkpt>
      <trkpt lat="47.7756" lon="-3.61278">
        <ele>19.9</ele>
        <time>2020-06-07T12:11:48Z</time>
      </trkpt>
      <trkpt lat="47.77555" lon="-3.61275">
        <ele>20.2</ele>
        <time>2020-06-07T12:11:49Z</time>
      </trkpt>
      <trkpt lat="47.7755" lon="-3.6127">
        <ele>20.5</ele>
        <time>2020-06-07T12:11:50Z</time>
      </trkpt>
      <trkpt lat="47.77545" lon="-3.61267">
        <ele>20.8</ele>
        <time>2020-06-07T12:11:51Z</time>
      </trkpt>
      <trkpt lat="47.7754" lon="-3.61263">
        <ele>21.1</ele>
        <time>2020-06-07T12:11:52Z</time>
      </trkpt>
      <trkpt lat="47.77536" lon="-3.61259">
        <ele>21.5</ele>
        <time>2020-06-07T12:11:53Z</time>
      </trkpt>
      <trkpt lat="47.77533" lon="-3.61256">
        <ele>21.7</ele>
        <time>2020-06-07T12:11:54Z</time>
      </trkpt>
      <trkpt lat="47.77528" lon="-3.61254">
        <ele>22</ele>
        <time>2020-06-07T12:11:55Z</time>
      </trkpt>
      <trkpt lat="47.77524" lon="-3.61252">
        <ele>22.3</ele>
        <time>2020-06-07T12:11:56Z</time>
      </trkpt>
      <trkpt lat="47.77523" lon="-3.61251">
        <ele>22.4</ele>
        <time>2020-06-07T12:11:57Z</time>
      </trkpt>
      <trkpt lat="47.77519" lon="-3.61249">
        <ele>22.6</ele>
        <time>2020-06-07T12:11:58Z</time>
      </trkpt>
      <trkpt lat="47.77516" lon="-3.61248">
        <ele>22.8</ele>
        <time>2020-06-07T12:11:59Z</time>
      </trkpt>
      <trkpt lat="47.77512" lon="-3.61247">
        <ele>22.9</ele>
        <time>2020-06-07T12:12:00Z</time>
      </trkpt>
      <trkpt lat="47.77509" lon="-3.61247">
        <ele>23.1</ele>
        <time>2020-06-07T12:12:01Z</time>
      </trkpt>
      <trkpt lat="47.77506" lon="-3.61246">
        <ele>23.2</ele>
        <time>2020-06-07T12:12:02Z</time>
      </trkpt>
      <trkpt lat="47.77502" lon="-3.61246">
        <ele>23.3</ele>
        <time>2020-06-07T12:12:03Z</time>
      </trkpt>
      <trkpt lat="47.77498" lon="-3.61245">
        <ele>23.4</ele>
        <time>2020-06-07T12:12:04Z</time>
      </trkpt>
      <trkpt lat="47.77494" lon="-3.61243">
        <ele>23.7</ele>
        <time>2020-06-07T12:12:05Z</time>
      </trkpt>
      <trkpt lat="47.77491" lon="-3.61242">
        <ele>23.8</ele>
        <time>2020-06-07T12:12:06Z</time>
      </trkpt>
      <trkpt lat="47.77488" lon="-3.6124">
        <ele>23.9</ele>
        <time>2020-06-07T12:12:07Z</time>
      </trkpt>
      <trkpt lat="47.77484" lon="-3.61239">
        <ele>24</ele>
        <time>2020-06-07T12:12:08Z</time>
      </trkpt>
      <trkpt lat="47.7748" lon="-3.61237">
        <ele>24.1</ele>
        <time>2020-06-07T12:12:09Z</time>
      </trkpt>
      <trkpt lat="47.77476" lon="-3.61235">
        <ele>24.2</ele>
        <time>2020-06-07T12:12:10Z</time>
      </trkpt>
      <trkpt lat="47.77471" lon="-3.61233">
        <ele>24.3</ele>
        <time>2020-06-07T12:12:11Z</time>
      </trkpt>
      <trkpt lat="47.77466" lon="-3.6123">
        <ele>24.4</ele>
        <time>2020-06-07T12:12:12Z</time>
      </trkpt>
      <trkpt lat="47.77462" lon="-3.61228">
        <ele>24.4</ele>
        <time>2020-06-07T12:12:13Z</time>
      </trkpt>
      <trkpt lat="47.77457" lon="-3.61225">
        <ele>24.4</ele>
        <time>2020-06-07T12:12:14Z</time>
      </trkpt>
      <trkpt lat="47.77453" lon="-3.61223">
        <ele>24.4</ele>
        <time>2020-06-07T12:12:15Z</time>
      </trkpt>
      <trkpt lat="47.77448" lon="-3.61221">
        <ele>24.4</ele>
        <time>2020-06-07T12:12:16Z</time>
      </trkpt>
      <trkpt lat="47.77443" lon="-3.61219">
        <ele>24.3</ele>
        <time>2020-06-07T12:12:17Z</time>
      </trkpt>
      <trkpt lat="47.77438" lon="-3.61218">
        <ele>24.2</ele>
        <time>2020-06-07T12:12:18Z</time>
      </trkpt>
      <trkpt lat="47.77432" lon="-3.61217">
        <ele>24.1</ele>
        <time>2020-06-07T12:12:19Z</time>
      </trkpt>
      <trkpt lat="47.77427" lon="-3.61216">
        <ele>24</ele>
        <time>2020-06-07T12:12:20Z</time>
      </trkpt>
      <trkpt lat="47.77421" lon="-3.61214">
        <ele>23.9</ele>
        <time>2020-06-07T12:12:21Z</time>
      </trkpt>
      <trkpt lat="47.77415" lon="-3.61212">
        <ele>23.7</ele>
        <time>2020-06-07T12:12:22Z</time>
      </trkpt>
      <trkpt lat="47.77409" lon="-3.61209">
        <ele>23.5</ele>
        <time>2020-06-07T12:12:23Z</time>
      </trkpt>
      <trkpt lat="47.77401" lon="-3.61207">
        <ele>23.2</ele>
        <time>2020-06-07T12:12:24Z</time>
      </trkpt>
      <trkpt lat="47.77394" lon="-3.61205">
        <ele>23</ele>
        <time>2020-06-07T12:12:25Z</time>
      </trkpt>
      <trkpt lat="47.77386" lon="-3.61203">
        <ele>22.8</ele>
        <time>2020-06-07T12:12:26Z</time>
      </trkpt>
      <trkpt lat="47.77379" lon="-3.61201">
        <ele>22.6</ele>
        <time>2020-06-07T12:12:27Z</time>
      </trkpt>
      <trkpt lat="47.77369" lon="-3.61199">
        <ele>22.4</ele>
        <time>2020-06-07T12:12:28Z</time>
      </trkpt>
      <trkpt lat="47.77361" lon="-3.61194">
        <ele>22.3</ele>
        <time>2020-06-07T12:12:29Z</time>
      </trkpt>
      <trkpt lat="47.77353" lon="-3.61189">
        <ele>22.2</ele>
        <time>2020-06-07T12:12:30Z</time>
      </trkpt>
      <trkpt lat="47.77347" lon="-3.61185">
        <ele>22.2</ele>
        <time>2020-06-07T12:12:31Z</time>
      </trkpt>
      <trkpt lat="47.77341" lon="-3.6118">
        <ele>22.2</ele>
        <time>2020-06-07T12:12:32Z</time>
      </trkpt>
      <trkpt lat="47.77334" lon="-3.61177">
        <ele>22.2</ele>
        <time>2020-06-07T12:12:33Z</time>
      </trkpt>
      <trkpt lat="47.77329" lon="-3.61175">
        <ele>22.2</ele>
        <time>2020-06-07T12:12:34Z</time>
      </trkpt>
      <trkpt lat="47.77321" lon="-3.61173">
        <ele>22.1</ele>
        <time>2020-06-07T12:12:35Z</time>
      </trkpt>
      <trkpt lat="47.77315" lon="-3.6117">
        <ele>22.1</ele>
        <time>2020-06-07T12:12:36Z</time>
      </trkpt>
      <trkpt lat="47.77308" lon="-3.61165">
        <ele>22</ele>
        <time>2020-06-07T12:12:37Z</time>
      </trkpt>
      <trkpt lat="47.77303" lon="-3.6116">
        <ele>21.9</ele>
        <time>2020-06-07T12:12:38Z</time>
      </trkpt>
      <trkpt lat="47.77297" lon="-3.61154">
        <ele>21.8</ele>
        <time>2020-06-07T12:12:39Z</time>
      </trkpt>
      <trkpt lat="47.77293" lon="-3.61148">
        <ele>21.7</ele>
        <time>2020-06-07T12:12:40Z</time>
      </trkpt>
      <trkpt lat="47.7729" lon="-3.61142">
        <ele>21.4</ele>
        <time>2020-06-07T12:12:41Z</time>
      </trkpt>
      <trkpt lat="47.77289" lon="-3.61137">
        <ele>21.2</ele>
        <time>2020-06-07T12:12:42Z</time>
      </trkpt>
      <trkpt lat="47.77289" lon="-3.6113">
        <ele>21</ele>
        <time>2020-06-07T12:12:43Z</time>
      </trkpt>
      <trkpt lat="47.7729" lon="-3.61123">
        <ele>20.7</ele>
        <time>2020-06-07T12:12:44Z</time>
      </trkpt>
      <trkpt lat="47.77291" lon="-3.61117">
        <ele>20.5</ele>
        <time>2020-06-07T12:12:45Z</time>
      </trkpt>
      <trkpt lat="47.77293" lon="-3.61111">
        <ele>20</ele>
        <time>2020-06-07T12:12:46Z</time>
      </trkpt>
      <trkpt lat="47.77295" lon="-3.61105">
        <ele>19.5</ele>
        <time>2020-06-07T12:12:47Z</time>
      </trkpt>
      <trkpt lat="47.77298" lon="-3.611">
        <ele>19</ele>
        <time>2020-06-07T12:12:48Z</time>
      </trkpt>
      <trkpt lat="47.77298" lon="-3.61093">
        <ele>18.5</ele>
        <time>2020-06-07T12:12:49Z</time>
      </trkpt>
      <trkpt lat="47.77299" lon="-3.61087">
        <ele>18</ele>
        <time>2020-06-07T12:12:50Z</time>
      </trkpt>
      <trkpt lat="47.773" lon="-3.61083">
        <ele>17.6</ele>
        <time>2020-06-07T12:12:51Z</time>
      </trkpt>
      <trkpt lat="47.77301" lon="-3.61079">
        <ele>17.2</ele>
        <time>2020-06-07T12:12:52Z</time>
      </trkpt>
      <trkpt lat="47.77301" lon="-3.61068">
        <ele>16.2</ele>
        <time>2020-06-07T12:12:53Z</time>
      </trkpt>
      <trkpt lat="47.77302" lon="-3.61064">
        <ele>15.7</ele>
        <time>2020-06-07T12:12:54Z</time>
      </trkpt>
      <trkpt lat="47.77302" lon="-3.61056">
        <ele>14.8</ele>
        <time>2020-06-07T12:12:55Z</time>
      </trkpt>
      <trkpt lat="47.77301" lon="-3.6105">
        <ele>14.2</ele>
        <time>2020-06-07T12:12:56Z</time>
      </trkpt>
      <trkpt lat="47.77301" lon="-3.61048">
        <ele>14.3</ele>
        <time>2020-06-07T12:12:57Z</time>
      </trkpt>
      <trkpt lat="47.77301" lon="-3.61048">
        <ele>14.4</ele>
        <time>2020-06-07T12:12:58Z</time>
      </trkpt>
      <trkpt lat="47.77299" lon="-3.61048">
        <ele>14.6</ele>
        <time>2020-06-07T12:12:59Z</time>
      </trkpt>
      <trkpt lat="47.77296" lon="-3.61049">
        <ele>14.8</ele>
        <time>2020-06-07T12:13:00Z</time>
      </trkpt>
      <trkpt lat="47.77295" lon="-3.6105">
        <ele>14.9</ele>
        <time>2020-06-07T12:13:01Z</time>
      </trkpt>
      <trkpt lat="47.7729" lon="-3.61051">
        <ele>15.5</ele>
        <time>2020-06-07T12:13:02Z</time>
      </trkpt>
      <trkpt lat="47.77285" lon="-3.61053">
        <ele>15.8</ele>
        <time>2020-06-07T12:13:03Z</time>
      </trkpt>
      <trkpt lat="47.77281" lon="-3.61053">
        <ele>16.3</ele>
        <time>2020-06-07T12:13:04Z</time>
      </trkpt>
      <trkpt lat="47.77277" lon="-3.61052">
        <ele>16.6</ele>
        <time>2020-06-07T12:13:05Z</time>
      </trkpt>
      <trkpt lat="47.77273" lon="-3.61051">
        <ele>17.1</ele>
        <time>2020-06-07T12:13:06Z</time>
      </trkpt>
      <trkpt lat="47.77271" lon="-3.61051">
        <ele>17.2</ele>
        <time>2020-06-07T12:13:07Z</time>
      </trkpt>
      <trkpt lat="47.77268" lon="-3.61051">
        <ele>17.4</ele>
        <time>2020-06-07T12:13:08Z</time>
      </trkpt>
      <trkpt lat="47.77267" lon="-3.61051">
        <ele>17.7</ele>
        <time>2020-06-07T12:13:09Z</time>
      </trkpt>
      <trkpt lat="47.77265" lon="-3.6105">
        <ele>17.8</ele>
        <time>2020-06-07T12:13:10Z</time>
      </trkpt>
      <trkpt lat="47.77263" lon="-3.61049">
        <ele>17.9</ele>
        <time>2020-06-07T12:13:11Z</time>
      </trkpt>
      <trkpt lat="47.77262" lon="-3.61049">
        <ele>18</ele>
        <time>2020-06-07T12:13:12Z</time>
      </trkpt>
      <trkpt lat="47.77259" lon="-3.61047">
        <ele>18.2</ele>
        <time>2020-06-07T12:13:13Z</time>
      </trkpt>
      <trkpt lat="47.77256" lon="-3.61046">
        <ele>18.3</ele>
        <time>2020-06-07T12:13:14Z</time>
      </trkpt>
      <trkpt lat="47.77252" lon="-3.61047">
        <ele>18.5</ele>
        <time>2020-06-07T12:13:15Z</time>
      </trkpt>
      <trkpt lat="47.77248" lon="-3.61047">
        <ele>18.8</ele>
        <time>2020-06-07T12:13:16Z</time>
      </trkpt>
      <trkpt lat="47.77243" lon="-3.61047">
        <ele>18.8</ele>
        <time>2020-06-07T12:13:17Z</time>
      </trkpt>
      <trkpt lat="47.77239" lon="-3.61046">
        <ele>18.6</ele>
        <time>2020-06-07T12:13:18Z</time>
      </trkpt>
      <trkpt lat="47.77235" lon="-3.61045">
        <ele>18.7</ele>
        <time>2020-06-07T12:13:19Z</time>
      </trkpt>
      <trkpt lat="47.77232" lon="-3.61043">
        <ele>18.7</ele>
        <time>2020-06-07T12:13:20Z</time>
      </trkpt>
      <trkpt lat="47.77229" lon="-3.61041">
        <ele>18.6</ele>
        <time>2020-06-07T12:13:21Z</time>
      </trkpt>
      <trkpt lat="47.77228" lon="-3.6104">
        <ele>18.7</ele>
        <time>2020-06-07T12:13:22Z</time>
      </trkpt>
      <trkpt lat="47.77224" lon="-3.61038">
        <ele>18.7</ele>
        <time>2020-06-07T12:13:23Z</time>
      </trkpt>
      <trkpt lat="47.77223" lon="-3.61038">
        <ele>18.8</ele>
        <time>2020-06-07T12:13:24Z</time>
      </trkpt>
      <trkpt lat="47.77222" lon="-3.61038">
        <ele>18.9</ele>
        <time>2020-06-07T12:13:25Z</time>
      </trkpt>
      <trkpt lat="47.7722" lon="-3.61037">
        <ele>18.9</ele>
        <time>2020-06-07T12:13:26Z</time>
      </trkpt>
      <trkpt lat="47.77217" lon="-3.61036">
        <ele>19</ele>
        <time>2020-06-07T12:13:27Z</time>
      </trkpt>
      <trkpt lat="47.77214" lon="-3.61033">
        <ele>19.2</ele>
        <time>2020-06-07T12:13:28Z</time>
      </trkpt>
      <trkpt lat="47.77214" lon="-3.61033">
        <ele>19.2</ele>
        <time>2020-06-07T12:13:29Z</time>
      </trkpt>
      <trkpt lat="47.77212" lon="-3.61029">
        <ele>19.3</ele>
        <time>2020-06-07T12:13:30Z</time>
      </trkpt>
      <trkpt lat="47.77211" lon="-3.61027">
        <ele>19.4</ele>
        <time>2020-06-07T12:13:31Z</time>
      </trkpt>
      <trkpt lat="47.7721" lon="-3.61023">
        <ele>19.2</ele>
        <time>2020-06-07T12:13:32Z</time>
      </trkpt>
      <trkpt lat="47.77209" lon="-3.61021">
        <ele>19.3</ele>
        <time>2020-06-07T12:13:33Z</time>
      </trkpt>
      <trkpt lat="47.77209" lon="-3.61017">
        <ele>18.8</ele>
        <time>2020-06-07T12:13:34Z</time>
      </trkpt>
      <trkpt lat="47.77208" lon="-3.61014">
        <ele>17.9</ele>
        <time>2020-06-07T12:13:35Z</time>
      </trkpt>
      <trkpt lat="47.77208" lon="-3.61008">
        <ele>16.5</ele>
        <time>2020-06-07T12:13:36Z</time>
      </trkpt>
      <trkpt lat="47.77207" lon="-3.61004">
        <ele>14.4</ele>
        <time>2020-06-07T12:13:37Z</time>
      </trkpt>
      <trkpt lat="47.77206" lon="-3.61003">
        <ele>12.2</ele>
        <time>2020-06-07T12:13:38Z</time>
      </trkpt>
      <trkpt lat="47.77205" lon="-3.61">
        <ele>12.3</ele>
        <time>2020-06-07T12:13:39Z</time>
      </trkpt>
      <trkpt lat="47.77193" lon="-3.60971">
        <ele>4.4</ele>
        <time>2020-06-07T12:22:30Z</time>
      </trkpt>
      <trkpt lat="47.77193" lon="-3.6097">
        <ele>4.4</ele>
        <time>2020-06-07T12:22:31Z</time>
      </trkpt>
      <trkpt lat="47.77192" lon="-3.60968">
        <ele>4.4</ele>
        <time>2020-06-07T12:22:32Z</time>
      </trkpt>
      <trkpt lat="47.77192" lon="-3.60969">
        <ele>4.4</ele>
        <time>2020-06-07T12:22:33Z</time>
      </trkpt>
      <trkpt lat="47.77192" lon="-3.60969">
        <ele>4.4</ele>
        <time>2020-06-07T12:22:34Z</time>
      </trkpt>
      <trkpt lat="47.77192" lon="-3.6097">
        <ele>4.4</ele>
        <time>2020-06-07T12:22:35Z</time>
      </trkpt>
      <trkpt lat="47.77192" lon="-3.6097">
        <ele>4.4</ele>
        <time>2020-06-07T12:22:36Z</time>
      </trkpt>
      <trkpt lat="47.77192" lon="-3.6097">
        <ele>4.4</ele>
        <time>2020-06-07T12:22:37Z</time>
      </trkpt>
      <trkpt lat="47.77191" lon="-3.60971">
        <ele>4.4</ele>
        <time>2020-06-07T12:22:38Z</time>
      </trkpt>
      <trkpt lat="47.77191" lon="-3.60971">
        <ele>4.4</ele>
        <time>2020-06-07T12:22:39Z</time>
      </trkpt>
      <trkpt lat="47.77191" lon="-3.60971">
        <ele>4.4</ele>
        <time>2020-06-07T12:22:40Z</time>
      </trkpt>
      <trkpt lat="47.77191" lon="-3.6097">
        <ele>4.4</ele>
        <time>2020-06-07T12:22:41Z</time>
      </trkpt>
      <trkpt lat="47.77192" lon="-3.60969">
        <ele>4.4</ele>
        <time>2020-06-07T12:22:42Z</time>
      </trkpt>
      <trkpt lat="47.77192" lon="-3.60968">
        <ele>4.3</ele>
        <time>2020-06-07T12:22:43Z</time>
      </trkpt>
      <trkpt lat="47.77192" lon="-3.60969">
        <ele>4.3</ele>
        <time>2020-06-07T12:22:44Z</time>
      </trkpt>
      <trkpt lat="47.77192" lon="-3.6097">
        <ele>4.3</ele>
        <time>2020-06-07T12:22:45Z</time>
      </trkpt>
      <trkpt lat="47.77192" lon="-3.60971">
        <ele>4.3</ele>
        <time>2020-06-07T12:22:46Z</time>
      </trkpt>
      <trkpt lat="47.77192" lon="-3.60972">
        <ele>4.3</ele>
        <time>2020-06-07T12:22:47Z</time>
      </trkpt>
      <trkpt lat="47.77192" lon="-3.60974">
        <ele>4.3</ele>
        <time>2020-06-07T12:22:48Z</time>
      </trkpt>
      <trkpt lat="47.77192" lon="-3.60976">
        <ele>4.3</ele>
        <time>2020-06-07T12:22:49Z</time>
      </trkpt>
      <trkpt lat="47.77192" lon="-3.60977">
        <ele>4.3</ele>
        <time>2020-06-07T12:22:50Z</time>
      </trkpt>
      <trkpt lat="47.77192" lon="-3.60978">
        <ele>4.3</ele>
        <time>2020-06-07T12:22:51Z</time>
      </trkpt>
      <trkpt lat="47.77192" lon="-3.60978">
        <ele>4.3</ele>
        <time>2020-06-07T12:22:52Z</time>
      </trkpt>
      <trkpt lat="47.77191" lon="-3.60978">
        <ele>4.3</ele>
        <time>2020-06-07T12:22:53Z</time>
      </trkpt>
      <trkpt lat="47.77191" lon="-3.60977">
        <ele>4.3</ele>
        <time>2020-06-07T12:22:54Z</time>
      </trkpt>
      <trkpt lat="47.77191" lon="-3.60978">
        <ele>4.3</ele>
        <time>2020-06-07T12:22:55Z</time>
      </trkpt>
      <trkpt lat="47.77189" lon="-3.60979">
        <ele>4.3</ele>
        <time>2020-06-07T12:22:56Z</time>
      </trkpt>
      <trkpt lat="47.77188" lon="-3.6098">
        <ele>4.3</ele>
        <time>2020-06-07T12:22:57Z</time>
      </trkpt>
      <trkpt lat="47.77187" lon="-3.60981">
        <ele>4.3</ele>
        <time>2020-06-07T12:22:58Z</time>
      </trkpt>
      <trkpt lat="47.77186" lon="-3.60982">
        <ele>4.3</ele>
        <time>2020-06-07T12:22:59Z</time>
      </trkpt>
      <trkpt lat="47.77184" lon="-3.60983">
        <ele>4.3</ele>
        <time>2020-06-07T12:23:00Z</time>
      </trkpt>
      <trkpt lat="47.77185" lon="-3.60982">
        <ele>4.3</ele>
        <time>2020-06-07T12:23:01Z</time>
      </trkpt>
      <trkpt lat="47.77185" lon="-3.60981">
        <ele>4.3</ele>
        <time>2020-06-07T12:23:02Z</time>
      </trkpt>
      <trkpt lat="47.77185" lon="-3.6098">
        <ele>4.3</ele>
        <time>2020-06-07T12:23:03Z</time>
      </trkpt>
      <trkpt lat="47.77186" lon="-3.60978">
        <ele>4.3</ele>
        <time>2020-06-07T12:23:04Z</time>
      </trkpt>
      <trkpt lat="47.77186" lon="-3.60977">
        <ele>4.3</ele>
        <time>2020-06-07T12:23:05Z</time>
      </trkpt>
      <trkpt lat="47.77186" lon="-3.60976">
        <ele>4.3</ele>
        <time>2020-06-07T12:23:06Z</time>
      </trkpt>
      <trkpt lat="47.77187" lon="-3.60976">
        <ele>4.3</ele>
        <time>2020-06-07T12:23:07Z</time>
      </trkpt>
      <trkpt lat="47.77187" lon="-3.60975">
        <ele>4.3</ele>
        <time>2020-06-07T12:23:08Z</time>
      </trkpt>
      <trkpt lat="47.77187" lon="-3.60975">
        <ele>4.3</ele>
        <time>2020-06-07T12:23:09Z</time>
      </trkpt>
      <trkpt lat="47.77188" lon="-3.60975">
        <ele>4.3</ele>
        <time>2020-06-07T12:23:10Z</time>
      </trkpt>
      <trkpt lat="47.77188" lon="-3.60975">
        <ele>4.3</ele>
        <time>2020-06-07T12:23:11Z</time>
      </trkpt>
      <trkpt lat="47.77189" lon="-3.60974">
        <ele>4.2</ele>
        <time>2020-06-07T12:23:12Z</time>
      </trkpt>
      <trkpt lat="47.77189" lon="-3.60973">
        <ele>4.2</ele>
        <time>2020-06-07T12:23:13Z</time>
      </trkpt>
      <trkpt lat="47.77189" lon="-3.60973">
        <ele>4.2</ele>
        <time>2020-06-07T12:23:14Z</time>
      </trkpt>
      <trkpt lat="47.77189" lon="-3.60973">
        <ele>4.2</ele>
        <time>2020-06-07T12:23:15Z</time>
      </trkpt>
      <trkpt lat="47.77185" lon="-3.60979">
        <ele>4.2</ele>
        <time>2020-06-07T12:23:32Z</time>
      </trkpt>
      <trkpt lat="47.77185" lon="-3.60981">
        <ele>4.2</ele>
        <time>2020-06-07T12:23:33Z</time>
      </trkpt>
      <trkpt lat="47.77185" lon="-3.60983">
        <ele>4.2</ele>
        <time>2020-06-07T12:23:34Z</time>
      </trkpt>
      <trkpt lat="47.77186" lon="-3.60984">
        <ele>4.2</ele>
        <time>2020-06-07T12:23:35Z</time>
      </trkpt>
      <trkpt lat="47.77185" lon="-3.60985">
        <ele>4.2</ele>
        <time>2020-06-07T12:23:36Z</time>
      </trkpt>
      <trkpt lat="47.77185" lon="-3.60986">
        <ele>4.2</ele>
        <time>2020-06-07T12:23:37Z</time>
      </trkpt>
      <trkpt lat="47.77185" lon="-3.60987">
        <ele>4.2</ele>
        <time>2020-06-07T12:23:38Z</time>
      </trkpt>
      <trkpt lat="47.77185" lon="-3.60987">
        <ele>4.2</ele>
        <time>2020-06-07T12:23:39Z</time>
      </trkpt>
      <trkpt lat="47.77185" lon="-3.60987">
        <ele>4.2</ele>
        <time>2020-06-07T12:23:40Z</time>
      </trkpt>
      <trkpt lat="47.77185" lon="-3.60987">
        <ele>4.2</ele>
        <time>2020-06-07T12:23:41Z</time>
      </trkpt>
      <trkpt lat="47.77185" lon="-3.60987">
        <ele>4.2</ele>
        <time>2020-06-07T12:23:42Z</time>
      </trkpt>
      <trkpt lat="47.77185" lon="-3.60987">
        <ele>4.2</ele>
        <time>2020-06-07T12:23:43Z</time>
      </trkpt>
      <trkpt lat="47.77184" lon="-3.60989">
        <ele>4.2</ele>
        <time>2020-06-07T12:23:44Z</time>
      </trkpt>
      <trkpt lat="47.77185" lon="-3.60988">
        <ele>4.2</ele>
        <time>2020-06-07T12:23:45Z</time>
      </trkpt>
      <trkpt lat="47.77185" lon="-3.60988">
        <ele>4.2</ele>
        <time>2020-06-07T12:23:46Z</time>
      </trkpt>
      <trkpt lat="47.77186" lon="-3.60988">
        <ele>4.2</ele>
        <time>2020-06-07T12:23:47Z</time>
      </trkpt>
      <trkpt lat="47.77186" lon="-3.60988">
        <ele>4.2</ele>
        <time>2020-06-07T12:23:48Z</time>
      </trkpt>
      <trkpt lat="47.77186" lon="-3.60988">
        <ele>4.2</ele>
        <time>2020-06-07T12:23:49Z</time>
      </trkpt>
      <trkpt lat="47.77196" lon="-3.60982">
        <ele>4.2</ele>
        <time>2020-06-07T12:37:28Z</time>
      </trkpt>
      <trkpt lat="47.77196" lon="-3.60981">
        <ele>4.2</ele>
        <time>2020-06-07T12:37:29Z</time>
      </trkpt>
      <trkpt lat="47.77196" lon="-3.6098">
        <ele>4.1</ele>
        <time>2020-06-07T12:37:30Z</time>
      </trkpt>
      <trkpt lat="47.77197" lon="-3.60981">
        <ele>4.1</ele>
        <time>2020-06-07T12:37:31Z</time>
      </trkpt>
      <trkpt lat="47.77197" lon="-3.6098">
        <ele>4.1</ele>
        <time>2020-06-07T12:37:32Z</time>
      </trkpt>
      <trkpt lat="47.77197" lon="-3.60979">
        <ele>4.1</ele>
        <time>2020-06-07T12:37:33Z</time>
      </trkpt>
      <trkpt lat="47.77197" lon="-3.60979">
        <ele>4.1</ele>
        <time>2020-06-07T12:37:34Z</time>
      </trkpt>
      <trkpt lat="47.77197" lon="-3.60979">
        <ele>4.1</ele>
        <time>2020-06-07T12:37:35Z</time>
      </trkpt>
      <trkpt lat="47.77197" lon="-3.60978">
        <ele>4.1</ele>
        <time>2020-06-07T12:37:36Z</time>
      </trkpt>
      <trkpt lat="47.77197" lon="-3.60978">
        <ele>4.1</ele>
        <time>2020-06-07T12:37:37Z</time>
      </trkpt>
      <trkpt lat="47.77197" lon="-3.60978">
        <ele>4.1</ele>
        <time>2020-06-07T12:37:38Z</time>
      </trkpt>
      <trkpt lat="47.77197" lon="-3.60977">
        <ele>4.1</ele>
        <time>2020-06-07T12:37:39Z</time>
      </trkpt>
      <trkpt lat="47.77198" lon="-3.60977">
        <ele>4.1</ele>
        <time>2020-06-07T12:37:40Z</time>
      </trkpt>
      <trkpt lat="47.77198" lon="-3.60977">
        <ele>4.1</ele>
        <time>2020-06-07T12:37:41Z</time>
      </trkpt>
      <trkpt lat="47.77198" lon="-3.60977">
        <ele>4.1</ele>
        <time>2020-06-07T12:37:42Z</time>
      </trkpt>
      <trkpt lat="47.77198" lon="-3.60977">
        <ele>4.1</ele>
        <time>2020-06-07T12:37:43Z</time>
      </trkpt>
      <trkpt lat="47.77198" lon="-3.60977">
        <ele>4.1</ele>
        <time>2020-06-07T12:37:44Z</time>
      </trkpt>
      <trkpt lat="47.77192" lon="-3.60967">
        <ele>4.1</ele>
        <time>2020-06-07T12:43:51Z</time>
      </trkpt>
      <trkpt lat="47.77192" lon="-3.60966">
        <ele>4.1</ele>
        <time>2020-06-07T12:43:52Z</time>
      </trkpt>
      <trkpt lat="47.77192" lon="-3.60966">
        <ele>4.1</ele>
        <time>2020-06-07T12:43:53Z</time>
      </trkpt>
      <trkpt lat="47.77192" lon="-3.60966">
        <ele>4.1</ele>
        <time>2020-06-07T12:43:54Z</time>
      </trkpt>
      <trkpt lat="47.77192" lon="-3.60966">
        <ele>4.1</ele>
        <time>2020-06-07T12:43:55Z</time>
      </trkpt>
      <trkpt lat="47.77192" lon="-3.60966">
        <ele>4.1</ele>
        <time>2020-06-07T12:43:56Z</time>
      </trkpt>
      <trkpt lat="47.77192" lon="-3.60966">
        <ele>4.1</ele>
        <time>2020-06-07T12:43:57Z</time>
      </trkpt>
      <trkpt lat="47.77193" lon="-3.60968">
        <ele>4.1</ele>
        <time>2020-06-07T12:43:58Z</time>
      </trkpt>
      <trkpt lat="47.77193" lon="-3.60968">
        <ele>4.1</ele>
        <time>2020-06-07T12:43:59Z</time>
      </trkpt>
      <trkpt lat="47.77193" lon="-3.60969">
        <ele>4.1</ele>
        <time>2020-06-07T12:44:00Z</time>
      </trkpt>
      <trkpt lat="47.77194" lon="-3.6097">
        <ele>4.1</ele>
        <time>2020-06-07T12:44:01Z</time>
      </trkpt>
      <trkpt lat="47.77194" lon="-3.6097">
        <ele>4.1</ele>
        <time>2020-06-07T12:44:02Z</time>
      </trkpt>
      <trkpt lat="47.77194" lon="-3.6097">
        <ele>4.1</ele>
        <time>2020-06-07T12:44:03Z</time>
      </trkpt>
      <trkpt lat="47.77194" lon="-3.6097">
        <ele>4.1</ele>
        <time>2020-06-07T12:44:04Z</time>
      </trkpt>
      <trkpt lat="47.77194" lon="-3.6097">
        <ele>4.1</ele>
        <time>2020-06-07T12:44:05Z</time>
      </trkpt>
      <trkpt lat="47.77194" lon="-3.6097">
        <ele>4.1</ele>
        <time>2020-06-07T12:44:06Z</time>
      </trkpt>
      <trkpt lat="47.77194" lon="-3.6097">
        <ele>4.1</ele>
        <time>2020-06-07T12:44:07Z</time>
      </trkpt>
      <trkpt lat="47.77194" lon="-3.6097">
        <ele>4.1</ele>
        <time>2020-06-07T12:44:08Z</time>
      </trkpt>
      <trkpt lat="47.77194" lon="-3.6097">
        <ele>4.1</ele>
        <time>2020-06-07T12:44:09Z</time>
      </trkpt>
      <trkpt lat="47.77194" lon="-3.6097">
        <ele>4.1</ele>
        <time>2020-06-07T12:44:10Z</time>
      </trkpt>
      <trkpt lat="47.77194" lon="-3.6097">
        <ele>4.1</ele>
        <time>2020-06-07T12:44:11Z</time>
      </trkpt>
      <trkpt lat="47.77194" lon="-3.6097">
        <ele>4.1</ele>
        <time>2020-06-07T12:44:12Z</time>
      </trkpt>
      <trkpt lat="47.77187" lon="-3.60964">
        <ele>4.1</ele>
        <time>2020-06-07T13:02:37Z</time>
      </trkpt>
      <trkpt lat="47.77186" lon="-3.60964">
        <ele>4.1</ele>
        <time>2020-06-07T13:02:38Z</time>
      </trkpt>
      <trkpt lat="47.77185" lon="-3.60965">
        <ele>4.1</ele>
        <time>2020-06-07T13:02:39Z</time>
      </trkpt>
      <trkpt lat="47.77184" lon="-3.60965">
        <ele>4.1</ele>
        <time>2020-06-07T13:02:40Z</time>
      </trkpt>
      <trkpt lat="47.77183" lon="-3.60966">
        <ele>4.1</ele>
        <time>2020-06-07T13:02:41Z</time>
      </trkpt>
      <trkpt lat="47.77183" lon="-3.60967">
        <ele>4.1</ele>
        <time>2020-06-07T13:02:42Z</time>
      </trkpt>
      <trkpt lat="47.77182" lon="-3.60967">
        <ele>4.1</ele>
        <time>2020-06-07T13:02:43Z</time>
      </trkpt>
      <trkpt lat="47.77181" lon="-3.60967">
        <ele>4.1</ele>
        <time>2020-06-07T13:02:44Z</time>
      </trkpt>
      <trkpt lat="47.77181" lon="-3.60968">
        <ele>4.1</ele>
        <time>2020-06-07T13:02:45Z</time>
      </trkpt>
      <trkpt lat="47.77181" lon="-3.60969">
        <ele>4.1</ele>
        <time>2020-06-07T13:02:46Z</time>
      </trkpt>
      <trkpt lat="47.7718" lon="-3.6097">
        <ele>4.1</ele>
        <time>2020-06-07T13:02:47Z</time>
      </trkpt>
      <trkpt lat="47.77178" lon="-3.60972">
        <ele>4.1</ele>
        <time>2020-06-07T13:02:48Z</time>
      </trkpt>
      <trkpt lat="47.77177" lon="-3.60973">
        <ele>4.1</ele>
        <time>2020-06-07T13:02:49Z</time>
      </trkpt>
      <trkpt lat="47.77176" lon="-3.60974">
        <ele>4.1</ele>
        <time>2020-06-07T13:02:50Z</time>
      </trkpt>
      <trkpt lat="47.77175" lon="-3.60975">
        <ele>4.1</ele>
        <time>2020-06-07T13:02:51Z</time>
      </trkpt>
      <trkpt lat="47.77174" lon="-3.60975">
        <ele>4.1</ele>
        <time>2020-06-07T13:02:52Z</time>
      </trkpt>
      <trkpt lat="47.77173" lon="-3.60977">
        <ele>4</ele>
        <time>2020-06-07T13:02:53Z</time>
      </trkpt>
      <trkpt lat="47.77172" lon="-3.60979">
        <ele>4</ele>
        <time>2020-06-07T13:02:54Z</time>
      </trkpt>
      <trkpt lat="47.77172" lon="-3.6098">
        <ele>4</ele>
        <time>2020-06-07T13:02:55Z</time>
      </trkpt>
      <trkpt lat="47.77171" lon="-3.60981">
        <ele>4</ele>
        <time>2020-06-07T13:02:56Z</time>
      </trkpt>
      <trkpt lat="47.7717" lon="-3.60982">
        <ele>4</ele>
        <time>2020-06-07T13:02:57Z</time>
      </trkpt>
      <trkpt lat="47.77169" lon="-3.60982">
        <ele>4</ele>
        <time>2020-06-07T13:02:58Z</time>
      </trkpt>
      <trkpt lat="47.77169" lon="-3.60982">
        <ele>4</ele>
        <time>2020-06-07T13:02:59Z</time>
      </trkpt>
      <trkpt lat="47.77168" lon="-3.60983">
        <ele>4</ele>
        <time>2020-06-07T13:03:00Z</time>
      </trkpt>
      <trkpt lat="47.77167" lon="-3.60983">
        <ele>4</ele>
        <time>2020-06-07T13:03:01Z</time>
      </trkpt>
      <trkpt lat="47.77166" lon="-3.60983">
        <ele>4</ele>
        <time>2020-06-07T13:03:02Z</time>
      </trkpt>
      <trkpt lat="47.77164" lon="-3.60983">
        <ele>4</ele>
        <time>2020-06-07T13:03:03Z</time>
      </trkpt>
      <trkpt lat="47.77163" lon="-3.60983">
        <ele>4</ele>
        <time>2020-06-07T13:03:04Z</time>
      </trkpt>
      <trkpt lat="47.77162" lon="-3.60983">
        <ele>4</ele>
        <time>2020-06-07T13:03:05Z</time>
      </trkpt>
      <trkpt lat="47.77162" lon="-3.60984">
        <ele>4</ele>
        <time>2020-06-07T13:03:06Z</time>
      </trkpt>
      <trkpt lat="47.77161" lon="-3.60985">
        <ele>4</ele>
        <time>2020-06-07T13:03:07Z</time>
      </trkpt>
      <trkpt lat="47.77162" lon="-3.60985">
        <ele>4</ele>
        <time>2020-06-07T13:03:08Z</time>
      </trkpt>
      <trkpt lat="47.77162" lon="-3.60985">
        <ele>4</ele>
        <time>2020-06-07T13:03:09Z</time>
      </trkpt>
      <trkpt lat="47.77161" lon="-3.60986">
        <ele>4</ele>
        <time>2020-06-07T13:03:10Z</time>
      </trkpt>
      <trkpt lat="47.77161" lon="-3.60985">
        <ele>4</ele>
        <time>2020-06-07T13:03:11Z</time>
      </trkpt>
      <trkpt lat="47.77161" lon="-3.60985">
        <ele>4</ele>
        <time>2020-06-07T13:03:12Z</time>
      </trkpt>
      <trkpt lat="47.7716" lon="-3.60985">
        <ele>4</ele>
        <time>2020-06-07T13:03:13Z</time>
      </trkpt>
      <trkpt lat="47.7716" lon="-3.60986">
        <ele>4</ele>
        <time>2020-06-07T13:03:14Z</time>
      </trkpt>
      <trkpt lat="47.7716" lon="-3.60986">
        <ele>4</ele>
        <time>2020-06-07T13:03:15Z</time>
      </trkpt>
      <trkpt lat="47.7716" lon="-3.60986">
        <ele>4</ele>
        <time>2020-06-07T13:03:16Z</time>
      </trkpt>
      <trkpt lat="47.77161" lon="-3.60986">
        <ele>4</ele>
        <time>2020-06-07T13:03:17Z</time>
      </trkpt>
      <trkpt lat="47.77165" lon="-3.60977">
        <ele>4</ele>
        <time>2020-06-07T13:05:29Z</time>
      </trkpt>
      <trkpt lat="47.77167" lon="-3.60977">
        <ele>4</ele>
        <time>2020-06-07T13:05:30Z</time>
      </trkpt>
      <trkpt lat="47.77169" lon="-3.60977">
        <ele>4</ele>
        <time>2020-06-07T13:05:31Z</time>
      </trkpt>
      <trkpt lat="47.7717" lon="-3.60977">
        <ele>4</ele>
        <time>2020-06-07T13:05:32Z</time>
      </trkpt>
      <trkpt lat="47.77173" lon="-3.60975">
        <ele>4</ele>
        <time>2020-06-07T13:05:33Z</time>
      </trkpt>
      <trkpt lat="47.77174" lon="-3.60975">
        <ele>4</ele>
        <time>2020-06-07T13:05:34Z</time>
      </trkpt>
      <trkpt lat="47.77174" lon="-3.60974">
        <ele>4</ele>
        <time>2020-06-07T13:05:35Z</time>
      </trkpt>
      <trkpt lat="47.77175" lon="-3.60973">
        <ele>4</ele>
        <time>2020-06-07T13:05:36Z</time>
      </trkpt>
      <trkpt lat="47.77176" lon="-3.60972">
        <ele>4</ele>
        <time>2020-06-07T13:05:37Z</time>
      </trkpt>
      <trkpt lat="47.77177" lon="-3.60971">
        <ele>4</ele>
        <time>2020-06-07T13:05:38Z</time>
      </trkpt>
      <trkpt lat="47.77177" lon="-3.60971">
        <ele>4</ele>
        <time>2020-06-07T13:05:39Z</time>
      </trkpt>
      <trkpt lat="47.77178" lon="-3.60972">
        <ele>4</ele>
        <time>2020-06-07T13:05:40Z</time>
      </trkpt>
      <trkpt lat="47.7718" lon="-3.60973">
        <ele>4</ele>
        <time>2020-06-07T13:05:41Z</time>
      </trkpt>
      <trkpt lat="47.7718" lon="-3.60973">
        <ele>4</ele>
        <time>2020-06-07T13:05:42Z</time>
      </trkpt>
      <trkpt lat="47.77182" lon="-3.60974">
        <ele>4</ele>
        <time>2020-06-07T13:05:43Z</time>
      </trkpt>
      <trkpt lat="47.77183" lon="-3.60973">
        <ele>4</ele>
        <time>2020-06-07T13:05:44Z</time>
      </trkpt>
      <trkpt lat="47.77184" lon="-3.60973">
        <ele>4</ele>
        <time>2020-06-07T13:05:45Z</time>
      </trkpt>
      <trkpt lat="47.77184" lon="-3.60973">
        <ele>4</ele>
        <time>2020-06-07T13:05:46Z</time>
      </trkpt>
      <trkpt lat="47.77185" lon="-3.60973">
        <ele>4</ele>
        <time>2020-06-07T13:05:47Z</time>
      </trkpt>
      <trkpt lat="47.77185" lon="-3.60973">
        <ele>4</ele>
        <time>2020-06-07T13:05:48Z</time>
      </trkpt>
      <trkpt lat="47.77185" lon="-3.60973">
        <ele>4</ele>
        <time>2020-06-07T13:05:49Z</time>
      </trkpt>
      <trkpt lat="47.77185" lon="-3.60973">
        <ele>4</ele>
        <time>2020-06-07T13:05:50Z</time>
      </trkpt>
      <trkpt lat="47.77185" lon="-3.60973">
        <ele>4</ele>
        <time>2020-06-07T13:05:51Z</time>
      </trkpt>
      <trkpt lat="47.77185" lon="-3.60973">
        <ele>4</ele>
        <time>2020-06-07T13:05:52Z</time>
      </trkpt>
      <trkpt lat="47.77185" lon="-3.60972">
        <ele>4</ele>
        <time>2020-06-07T13:05:53Z</time>
      </trkpt>
      <trkpt lat="47.77184" lon="-3.60972">
        <ele>4</ele>
        <time>2020-06-07T13:05:54Z</time>
      </trkpt>
      <trkpt lat="47.77184" lon="-3.60972">
        <ele>4</ele>
        <time>2020-06-07T13:05:55Z</time>
      </trkpt>
      <trkpt lat="47.77184" lon="-3.60972">
        <ele>4</ele>
        <time>2020-06-07T13:05:56Z</time>
      </trkpt>
      <trkpt lat="47.77191" lon="-3.60969">
        <ele>4</ele>
        <time>2020-06-07T13:06:43Z</time>
      </trkpt>
      <trkpt lat="47.77192" lon="-3.60969">
        <ele>4</ele>
        <time>2020-06-07T13:06:44Z</time>
      </trkpt>
      <trkpt lat="47.77193" lon="-3.60969">
        <ele>4</ele>
        <time>2020-06-07T13:06:45Z</time>
      </trkpt>
      <trkpt lat="47.77193" lon="-3.60969">
        <ele>4</ele>
        <time>2020-06-07T13:06:46Z</time>
      </trkpt>
      <trkpt lat="47.77192" lon="-3.6097">
        <ele>4</ele>
        <time>2020-06-07T13:06:47Z</time>
      </trkpt>
      <trkpt lat="47.77192" lon="-3.6097">
        <ele>4</ele>
        <time>2020-06-07T13:06:48Z</time>
      </trkpt>
      <trkpt lat="47.77193" lon="-3.6097">
        <ele>4</ele>
        <time>2020-06-07T13:06:49Z</time>
      </trkpt>
      <trkpt lat="47.77193" lon="-3.60971">
        <ele>4</ele>
        <time>2020-06-07T13:06:50Z</time>
      </trkpt>
      <trkpt lat="47.77193" lon="-3.60971">
        <ele>4</ele>
        <time>2020-06-07T13:06:51Z</time>
      </trkpt>
      <trkpt lat="47.77194" lon="-3.60972">
        <ele>4</ele>
        <time>2020-06-07T13:06:52Z</time>
      </trkpt>
      <trkpt lat="47.77194" lon="-3.60972">
        <ele>4</ele>
        <time>2020-06-07T13:06:53Z</time>
      </trkpt>
      <trkpt lat="47.77194" lon="-3.60973">
        <ele>4</ele>
        <time>2020-06-07T13:06:54Z</time>
      </trkpt>
      <trkpt lat="47.77195" lon="-3.60972">
        <ele>4</ele>
        <time>2020-06-07T13:06:55Z</time>
      </trkpt>
      <trkpt lat="47.77195" lon="-3.60972">
        <ele>4</ele>
        <time>2020-06-07T13:06:56Z</time>
      </trkpt>
      <trkpt lat="47.77195" lon="-3.60972">
        <ele>4</ele>
        <time>2020-06-07T13:06:57Z</time>
      </trkpt>
      <trkpt lat="47.77195" lon="-3.60972">
        <ele>4</ele>
        <time>2020-06-07T13:06:58Z</time>
      </trkpt>
      <trkpt lat="47.77195" lon="-3.60973">
        <ele>4</ele>
        <time>2020-06-07T13:06:59Z</time>
      </trkpt>
      <trkpt lat="47.77194" lon="-3.60973">
        <ele>4</ele>
        <time>2020-06-07T13:07:00Z</time>
      </trkpt>
      <trkpt lat="47.77194" lon="-3.60974">
        <ele>4</ele>
        <time>2020-06-07T13:07:01Z</time>
      </trkpt>
      <trkpt lat="47.77193" lon="-3.60974">
        <ele>4</ele>
        <time>2020-06-07T13:07:02Z</time>
      </trkpt>
      <trkpt lat="47.77192" lon="-3.60974">
        <ele>4</ele>
        <time>2020-06-07T13:07:03Z</time>
      </trkpt>
      <trkpt lat="47.77191" lon="-3.60973">
        <ele>4</ele>
        <time>2020-06-07T13:07:04Z</time>
      </trkpt>
      <trkpt lat="47.7719" lon="-3.60972">
        <ele>4</ele>
        <time>2020-06-07T13:07:05Z</time>
      </trkpt>
      <trkpt lat="47.7719" lon="-3.60971">
        <ele>4</ele>
        <time>2020-06-07T13:07:06Z</time>
      </trkpt>
      <trkpt lat="47.77188" lon="-3.60971">
        <ele>4</ele>
        <time>2020-06-07T13:07:07Z</time>
      </trkpt>
      <trkpt lat="47.77187" lon="-3.60971">
        <ele>4</ele>
        <time>2020-06-07T13:07:08Z</time>
      </trkpt>
      <trkpt lat="47.77186" lon="-3.60971">
        <ele>4</ele>
        <time>2020-06-07T13:07:09Z</time>
      </trkpt>
      <trkpt lat="47.77187" lon="-3.60971">
        <ele>4</ele>
        <time>2020-06-07T13:07:10Z</time>
      </trkpt>
      <trkpt lat="47.77187" lon="-3.60971">
        <ele>4</ele>
        <time>2020-06-07T13:07:11Z</time>
      </trkpt>
      <trkpt lat="47.77186" lon="-3.6097">
        <ele>4</ele>
        <time>2020-06-07T13:07:12Z</time>
      </trkpt>
      <trkpt lat="47.77186" lon="-3.60969">
        <ele>4</ele>
        <time>2020-06-07T13:07:13Z</time>
      </trkpt>
      <trkpt lat="47.77186" lon="-3.60969">
        <ele>4</ele>
        <time>2020-06-07T13:07:14Z</time>
      </trkpt>
      <trkpt lat="47.77186" lon="-3.60968">
        <ele>4</ele>
        <time>2020-06-07T13:07:15Z</time>
      </trkpt>
      <trkpt lat="47.77186" lon="-3.60969">
        <ele>4</ele>
        <time>2020-06-07T13:07:16Z</time>
      </trkpt>
      <trkpt lat="47.77185" lon="-3.60969">
        <ele>4</ele>
        <time>2020-06-07T13:07:17Z</time>
      </trkpt>
      <trkpt lat="47.77185" lon="-3.6097">
        <ele>4</ele>
        <time>2020-06-07T13:07:18Z</time>
      </trkpt>
      <trkpt lat="47.77184" lon="-3.6097">
        <ele>4</ele>
        <time>2020-06-07T13:07:19Z</time>
      </trkpt>
      <trkpt lat="47.77184" lon="-3.6097">
        <ele>4</ele>
        <time>2020-06-07T13:07:20Z</time>
      </trkpt>
      <trkpt lat="47.77184" lon="-3.60969">
        <ele>4</ele>
        <time>2020-06-07T13:07:21Z</time>
      </trkpt>
      <trkpt lat="47.77184" lon="-3.6097">
        <ele>4</ele>
        <time>2020-06-07T13:07:22Z</time>
      </trkpt>
      <trkpt lat="47.77184" lon="-3.60971">
        <ele>4</ele>
        <time>2020-06-07T13:07:23Z</time>
      </trkpt>
      <trkpt lat="47.77184" lon="-3.60971">
        <ele>4</ele>
        <time>2020-06-07T13:07:24Z</time>
      </trkpt>
      <trkpt lat="47.77184" lon="-3.60971">
        <ele>4</ele>
        <time>2020-06-07T13:07:25Z</time>
      </trkpt>
      <trkpt lat="47.77184" lon="-3.60971">
        <ele>4</ele>
        <time>2020-06-07T13:07:26Z</time>
      </trkpt>
      <trkpt lat="47.77184" lon="-3.60971">
        <ele>4</ele>
        <time>2020-06-07T13:07:27Z</time>
      </trkpt>
      <trkpt lat="47.77183" lon="-3.60971">
        <ele>4</ele>
        <time>2020-06-07T13:07:28Z</time>
      </trkpt>
      <trkpt lat="47.77183" lon="-3.6097">
        <ele>4</ele>
        <time>2020-06-07T13:07:29Z</time>
      </trkpt>
      <trkpt lat="47.77179" lon="-3.60972">
        <ele>4</ele>
        <time>2020-06-07T13:07:41Z</time>
      </trkpt>
      <trkpt lat="47.77178" lon="-3.60972">
        <ele>4</ele>
        <time>2020-06-07T13:07:42Z</time>
      </trkpt>
      <trkpt lat="47.77178" lon="-3.60973">
        <ele>4</ele>
        <time>2020-06-07T13:07:43Z</time>
      </trkpt>
      <trkpt lat="47.77178" lon="-3.60973">
        <ele>4</ele>
        <time>2020-06-07T13:07:44Z</time>
      </trkpt>
      <trkpt lat="47.77177" lon="-3.60973">
        <ele>4</ele>
        <time>2020-06-07T13:07:45Z</time>
      </trkpt>
      <trkpt lat="47.77176" lon="-3.60973">
        <ele>4</ele>
        <time>2020-06-07T13:07:46Z</time>
      </trkpt>
      <trkpt lat="47.77175" lon="-3.60973">
        <ele>4</ele>
        <time>2020-06-07T13:07:47Z</time>
      </trkpt>
      <trkpt lat="47.77174" lon="-3.60974">
        <ele>4</ele>
        <time>2020-06-07T13:07:48Z</time>
      </trkpt>
      <trkpt lat="47.77173" lon="-3.60975">
        <ele>4</ele>
        <time>2020-06-07T13:07:49Z</time>
      </trkpt>
      <trkpt lat="47.77171" lon="-3.60976">
        <ele>4</ele>
        <time>2020-06-07T13:07:50Z</time>
      </trkpt>
      <trkpt lat="47.7717" lon="-3.60977">
        <ele>4</ele>
        <time>2020-06-07T13:07:51Z</time>
      </trkpt>
      <trkpt lat="47.7717" lon="-3.60978">
        <ele>4</ele>
        <time>2020-06-07T13:07:52Z</time>
      </trkpt>
      <trkpt lat="47.7717" lon="-3.6098">
        <ele>4</ele>
        <time>2020-06-07T13:07:53Z</time>
      </trkpt>
      <trkpt lat="47.77169" lon="-3.60981">
        <ele>4</ele>
        <time>2020-06-07T13:07:54Z</time>
      </trkpt>
      <trkpt lat="47.77169" lon="-3.60982">
        <ele>4</ele>
        <time>2020-06-07T13:07:55Z</time>
      </trkpt>
      <trkpt lat="47.77168" lon="-3.60982">
        <ele>4</ele>
        <time>2020-06-07T13:07:56Z</time>
      </trkpt>
      <trkpt lat="47.77168" lon="-3.60983">
        <ele>4</ele>
        <time>2020-06-07T13:07:57Z</time>
      </trkpt>
      <trkpt lat="47.77167" lon="-3.60984">
        <ele>4</ele>
        <time>2020-06-07T13:07:58Z</time>
      </trkpt>
      <trkpt lat="47.77166" lon="-3.60985">
        <ele>4</ele>
        <time>2020-06-07T13:07:59Z</time>
      </trkpt>
      <trkpt lat="47.77165" lon="-3.60986">
        <ele>4</ele>
        <time>2020-06-07T13:08:00Z</time>
      </trkpt>
      <trkpt lat="47.77164" lon="-3.60986">
        <ele>3.9</ele>
        <time>2020-06-07T13:08:01Z</time>
      </trkpt>
      <trkpt lat="47.77164" lon="-3.60987">
        <ele>3.9</ele>
        <time>2020-06-07T13:08:02Z</time>
      </trkpt>
      <trkpt lat="47.77163" lon="-3.60987">
        <ele>3.8</ele>
        <time>2020-06-07T13:08:03Z</time>
      </trkpt>
      <trkpt lat="47.77163" lon="-3.60987">
        <ele>3.8</ele>
        <time>2020-06-07T13:08:04Z</time>
      </trkpt>
      <trkpt lat="47.77162" lon="-3.60987">
        <ele>3.7</ele>
        <time>2020-06-07T13:08:05Z</time>
      </trkpt>
      <trkpt lat="47.7716" lon="-3.60987">
        <ele>3.6</ele>
        <time>2020-06-07T13:08:06Z</time>
      </trkpt>
      <trkpt lat="47.77159" lon="-3.60987">
        <ele>3.5</ele>
        <time>2020-06-07T13:08:07Z</time>
      </trkpt>
      <trkpt lat="47.77158" lon="-3.60988">
        <ele>3.4</ele>
        <time>2020-06-07T13:08:08Z</time>
      </trkpt>
      <trkpt lat="47.77157" lon="-3.60987">
        <ele>3.3</ele>
        <time>2020-06-07T13:08:09Z</time>
      </trkpt>
      <trkpt lat="47.77156" lon="-3.60987">
        <ele>3.2</ele>
        <time>2020-06-07T13:08:10Z</time>
      </trkpt>
      <trkpt lat="47.77155" lon="-3.60987">
        <ele>3.1</ele>
        <time>2020-06-07T13:08:11Z</time>
      </trkpt>
      <trkpt lat="47.77154" lon="-3.60987">
        <ele>3</ele>
        <time>2020-06-07T13:08:12Z</time>
      </trkpt>
      <trkpt lat="47.77153" lon="-3.60986">
        <ele>2.9</ele>
        <time>2020-06-07T13:08:13Z</time>
      </trkpt>
      <trkpt lat="47.77151" lon="-3.60986">
        <ele>2.8</ele>
        <time>2020-06-07T13:08:14Z</time>
      </trkpt>
      <trkpt lat="47.77151" lon="-3.60986">
        <ele>2.8</ele>
        <time>2020-06-07T13:08:15Z</time>
      </trkpt>
      <trkpt lat="47.7715" lon="-3.60986">
        <ele>2.7</ele>
        <time>2020-06-07T13:08:16Z</time>
      </trkpt>
      <trkpt lat="47.77149" lon="-3.60986">
        <ele>2.6</ele>
        <time>2020-06-07T13:08:17Z</time>
      </trkpt>
      <trkpt lat="47.77148" lon="-3.60986">
        <ele>2.6</ele>
        <time>2020-06-07T13:08:18Z</time>
      </trkpt>
      <trkpt lat="47.77147" lon="-3.60986">
        <ele>2.5</ele>
        <time>2020-06-07T13:08:19Z</time>
      </trkpt>
      <trkpt lat="47.77146" lon="-3.60986">
        <ele>2.4</ele>
        <time>2020-06-07T13:08:20Z</time>
      </trkpt>
      <trkpt lat="47.77146" lon="-3.60986">
        <ele>2.4</ele>
        <time>2020-06-07T13:08:21Z</time>
      </trkpt>
      <trkpt lat="47.77146" lon="-3.60986">
        <ele>2.4</ele>
        <time>2020-06-07T13:08:22Z</time>
      </trkpt>
      <trkpt lat="47.77146" lon="-3.60986">
        <ele>2.3</ele>
        <time>2020-06-07T13:08:23Z</time>
      </trkpt>
      <trkpt lat="47.77146" lon="-3.60986">
        <ele>2.3</ele>
        <time>2020-06-07T13:08:24Z</time>
      </trkpt>
      <trkpt lat="47.77146" lon="-3.60986">
        <ele>2.3</ele>
        <time>2020-06-07T13:08:25Z</time>
      </trkpt>
      <trkpt lat="47.77145" lon="-3.60986">
        <ele>2.3</ele>
        <time>2020-06-07T13:08:26Z</time>
      </trkpt>
      <trkpt lat="47.77145" lon="-3.60986">
        <ele>2.2</ele>
        <time>2020-06-07T13:08:27Z</time>
      </trkpt>
      <trkpt lat="47.77145" lon="-3.60986">
        <ele>2.2</ele>
        <time>2020-06-07T13:08:28Z</time>
      </trkpt>
      <trkpt lat="47.77145" lon="-3.60986">
        <ele>2.2</ele>
        <time>2020-06-07T13:08:29Z</time>
      </trkpt>
      <trkpt lat="47.77145" lon="-3.60985">
        <ele>2.2</ele>
        <time>2020-06-07T13:08:30Z</time>
      </trkpt>
      <trkpt lat="47.77145" lon="-3.60985">
        <ele>2.2</ele>
        <time>2020-06-07T13:08:31Z</time>
      </trkpt>
      <trkpt lat="47.77145" lon="-3.60984">
        <ele>2.1</ele>
        <time>2020-06-07T13:08:32Z</time>
      </trkpt>
      <trkpt lat="47.77143" lon="-3.60981">
        <ele>1.9</ele>
        <time>2020-06-07T13:08:46Z</time>
      </trkpt>
      <trkpt lat="47.77143" lon="-3.60979">
        <ele>1.8</ele>
        <time>2020-06-07T13:08:47Z</time>
      </trkpt>
      <trkpt lat="47.77143" lon="-3.60977">
        <ele>1.7</ele>
        <time>2020-06-07T13:08:48Z</time>
      </trkpt>
      <trkpt lat="47.77143" lon="-3.60975">
        <ele>1.6</ele>
        <time>2020-06-07T13:08:49Z</time>
      </trkpt>
      <trkpt lat="47.77142" lon="-3.60973">
        <ele>1.5</ele>
        <time>2020-06-07T13:08:50Z</time>
      </trkpt>
      <trkpt lat="47.77143" lon="-3.60972">
        <ele>1.4</ele>
        <time>2020-06-07T13:08:51Z</time>
      </trkpt>
      <trkpt lat="47.77142" lon="-3.60969">
        <ele>1.3</ele>
        <time>2020-06-07T13:08:52Z</time>
      </trkpt>
      <trkpt lat="47.77142" lon="-3.60968">
        <ele>1.2</ele>
        <time>2020-06-07T13:08:53Z</time>
      </trkpt>
      <trkpt lat="47.77142" lon="-3.60966">
        <ele>1.1</ele>
        <time>2020-06-07T13:08:54Z</time>
      </trkpt>
      <trkpt lat="47.77143" lon="-3.60963">
        <ele>1</ele>
        <time>2020-06-07T13:08:55Z</time>
      </trkpt>
      <trkpt lat="47.77143" lon="-3.60959">
        <ele>0.8</ele>
        <time>2020-06-07T13:08:56Z</time>
      </trkpt>
      <trkpt lat="47.77143" lon="-3.60957">
        <ele>0.7</ele>
        <time>2020-06-07T13:08:57Z</time>
      </trkpt>
      <trkpt lat="47.77143" lon="-3.60955">
        <ele>0.6</ele>
        <time>2020-06-07T13:08:58Z</time>
      </trkpt>
      <trkpt lat="47.77142" lon="-3.60953">
        <ele>0.5</ele>
        <time>2020-06-07T13:08:59Z</time>
      </trkpt>
      <trkpt lat="47.77141" lon="-3.6095">
        <ele>0.4</ele>
        <time>2020-06-07T13:09:00Z</time>
      </trkpt>
      <trkpt lat="47.77141" lon="-3.60949">
        <ele>0.3</ele>
        <time>2020-06-07T13:09:01Z</time>
      </trkpt>
      <trkpt lat="47.77141" lon="-3.60948">
        <ele>0.3</ele>
        <time>2020-06-07T13:09:02Z</time>
      </trkpt>
      <trkpt lat="47.7714" lon="-3.60946">
        <ele>0.4</ele>
        <time>2020-06-07T13:09:03Z</time>
      </trkpt>
      <trkpt lat="47.7714" lon="-3.60945">
        <ele>0.4</ele>
        <time>2020-06-07T13:09:04Z</time>
      </trkpt>
      <trkpt lat="47.77139" lon="-3.60944">
        <ele>0.4</ele>
        <time>2020-06-07T13:09:05Z</time>
      </trkpt>
      <trkpt lat="47.77139" lon="-3.60943">
        <ele>0.4</ele>
        <time>2020-06-07T13:09:06Z</time>
      </trkpt>
      <trkpt lat="47.77138" lon="-3.60941">
        <ele>0.5</ele>
        <time>2020-06-07T13:09:07Z</time>
      </trkpt>
      <trkpt lat="47.77138" lon="-3.6094">
        <ele>0.5</ele>
        <time>2020-06-07T13:09:08Z</time>
      </trkpt>
      <trkpt lat="47.77137" lon="-3.60939">
        <ele>0.5</ele>
        <time>2020-06-07T13:09:09Z</time>
      </trkpt>
      <trkpt lat="47.77137" lon="-3.60937">
        <ele>0.6</ele>
        <time>2020-06-07T13:09:10Z</time>
      </trkpt>
      <trkpt lat="47.77137" lon="-3.60936">
        <ele>0.6</ele>
        <time>2020-06-07T13:09:11Z</time>
      </trkpt>
      <trkpt lat="47.77137" lon="-3.60935">
        <ele>0.6</ele>
        <time>2020-06-07T13:09:12Z</time>
      </trkpt>
      <trkpt lat="47.77136" lon="-3.60936">
        <ele>0.6</ele>
        <time>2020-06-07T13:09:13Z</time>
      </trkpt>
      <trkpt lat="47.77134" lon="-3.60937">
        <ele>0.7</ele>
        <time>2020-06-07T13:09:14Z</time>
      </trkpt>
      <trkpt lat="47.77133" lon="-3.60937">
        <ele>0.7</ele>
        <time>2020-06-07T13:09:15Z</time>
      </trkpt>
      <trkpt lat="47.77131" lon="-3.60937">
        <ele>0.8</ele>
        <time>2020-06-07T13:09:16Z</time>
      </trkpt>
      <trkpt lat="47.77129" lon="-3.60938">
        <ele>0.8</ele>
        <time>2020-06-07T13:09:17Z</time>
      </trkpt>
      <trkpt lat="47.77129" lon="-3.60938">
        <ele>0.8</ele>
        <time>2020-06-07T13:09:18Z</time>
      </trkpt>
      <trkpt lat="47.77128" lon="-3.60937">
        <ele>0.9</ele>
        <time>2020-06-07T13:09:19Z</time>
      </trkpt>
      <trkpt lat="47.77127" lon="-3.60938">
        <ele>0.9</ele>
        <time>2020-06-07T13:09:20Z</time>
      </trkpt>
      <trkpt lat="47.77126" lon="-3.60938">
        <ele>0.9</ele>
        <time>2020-06-07T13:09:21Z</time>
      </trkpt>
      <trkpt lat="47.77125" lon="-3.60938">
        <ele>1</ele>
        <time>2020-06-07T13:09:22Z</time>
      </trkpt>
      <trkpt lat="47.77124" lon="-3.60939">
        <ele>1</ele>
        <time>2020-06-07T13:09:23Z</time>
      </trkpt>
      <trkpt lat="47.77122" lon="-3.60941">
        <ele>1.1</ele>
        <time>2020-06-07T13:09:24Z</time>
      </trkpt>
      <trkpt lat="47.77121" lon="-3.60942">
        <ele>1.1</ele>
        <time>2020-06-07T13:09:25Z</time>
      </trkpt>
      <trkpt lat="47.7712" lon="-3.60943">
        <ele>1.1</ele>
        <time>2020-06-07T13:09:26Z</time>
      </trkpt>
      <trkpt lat="47.77118" lon="-3.60944">
        <ele>1.2</ele>
        <time>2020-06-07T13:09:27Z</time>
      </trkpt>
      <trkpt lat="47.77116" lon="-3.60944">
        <ele>1.3</ele>
        <time>2020-06-07T13:09:28Z</time>
      </trkpt>
      <trkpt lat="47.77116" lon="-3.60944">
        <ele>1.3</ele>
        <time>2020-06-07T13:09:29Z</time>
      </trkpt>
      <trkpt lat="47.77114" lon="-3.60945">
        <ele>1.4</ele>
        <time>2020-06-07T13:09:30Z</time>
      </trkpt>
      <trkpt lat="47.77112" lon="-3.60947">
        <ele>1.4</ele>
        <time>2020-06-07T13:09:31Z</time>
      </trkpt>
      <trkpt lat="47.77111" lon="-3.60948">
        <ele>1.5</ele>
        <time>2020-06-07T13:09:32Z</time>
      </trkpt>
      <trkpt lat="47.77111" lon="-3.60949">
        <ele>1.5</ele>
        <time>2020-06-07T13:09:33Z</time>
      </trkpt>
      <trkpt lat="47.7711" lon="-3.60949">
        <ele>1.5</ele>
        <time>2020-06-07T13:09:34Z</time>
      </trkpt>
      <trkpt lat="47.7711" lon="-3.6095">
        <ele>1.5</ele>
        <time>2020-06-07T13:09:35Z</time>
      </trkpt>
      <trkpt lat="47.77111" lon="-3.60951">
        <ele>1.5</ele>
        <time>2020-06-07T13:09:36Z</time>
      </trkpt>
      <trkpt lat="47.77111" lon="-3.60951">
        <ele>1.6</ele>
        <time>2020-06-07T13:09:37Z</time>
      </trkpt>
      <trkpt lat="47.77111" lon="-3.60951">
        <ele>1.6</ele>
        <time>2020-06-07T13:09:38Z</time>
      </trkpt>
      <trkpt lat="47.77111" lon="-3.60951">
        <ele>1.6</ele>
        <time>2020-06-07T13:09:39Z</time>
      </trkpt>
      <trkpt lat="47.77111" lon="-3.60951">
        <ele>1.6</ele>
        <time>2020-06-07T13:09:40Z</time>
      </trkpt>
      <trkpt lat="47.77111" lon="-3.6095">
        <ele>1.6</ele>
        <time>2020-06-07T13:09:41Z</time>
      </trkpt>
      <trkpt lat="47.77112" lon="-3.60949">
        <ele>1.6</ele>
        <time>2020-06-07T13:09:42Z</time>
      </trkpt>
      <trkpt lat="47.77111" lon="-3.60949">
        <ele>1.6</ele>
        <time>2020-06-07T13:09:43Z</time>
      </trkpt>
      <trkpt lat="47.77111" lon="-3.60947">
        <ele>1.7</ele>
        <time>2020-06-07T13:09:44Z</time>
      </trkpt>
      <trkpt lat="47.77111" lon="-3.60946">
        <ele>1.7</ele>
        <time>2020-06-07T13:09:45Z</time>
      </trkpt>
      <trkpt lat="47.77111" lon="-3.60946">
        <ele>1.7</ele>
        <time>2020-06-07T13:09:46Z</time>
      </trkpt>
      <trkpt lat="47.77112" lon="-3.60945">
        <ele>1.7</ele>
        <time>2020-06-07T13:09:47Z</time>
      </trkpt>
      <trkpt lat="47.77112" lon="-3.60944">
        <ele>1.8</ele>
        <time>2020-06-07T13:09:48Z</time>
      </trkpt>
      <trkpt lat="47.77114" lon="-3.60943">
        <ele>1.8</ele>
        <time>2020-06-07T13:09:49Z</time>
      </trkpt>
      <trkpt lat="47.77114" lon="-3.60943">
        <ele>1.8</ele>
        <time>2020-06-07T13:09:50Z</time>
      </trkpt>
      <trkpt lat="47.77115" lon="-3.60943">
        <ele>1.9</ele>
        <time>2020-06-07T13:09:51Z</time>
      </trkpt>
      <trkpt lat="47.77116" lon="-3.60943">
        <ele>1.9</ele>
        <time>2020-06-07T13:09:52Z</time>
      </trkpt>
      <trkpt lat="47.77117" lon="-3.60943">
        <ele>1.9</ele>
        <time>2020-06-07T13:09:53Z</time>
      </trkpt>
      <trkpt lat="47.77118" lon="-3.60944">
        <ele>2</ele>
        <time>2020-06-07T13:09:54Z</time>
      </trkpt>
      <trkpt lat="47.77119" lon="-3.60943">
        <ele>2</ele>
        <time>2020-06-07T13:09:55Z</time>
      </trkpt>
      <trkpt lat="47.7712" lon="-3.60943">
        <ele>2</ele>
        <time>2020-06-07T13:09:56Z</time>
      </trkpt>
      <trkpt lat="47.7712" lon="-3.60943">
        <ele>2</ele>
        <time>2020-06-07T13:09:57Z</time>
      </trkpt>
      <trkpt lat="47.77121" lon="-3.60942">
        <ele>2.1</ele>
        <time>2020-06-07T13:09:58Z</time>
      </trkpt>
      <trkpt lat="47.77123" lon="-3.60943">
        <ele>2.1</ele>
        <time>2020-06-07T13:09:59Z</time>
      </trkpt>
      <trkpt lat="47.77124" lon="-3.60944">
        <ele>2.2</ele>
        <time>2020-06-07T13:10:00Z</time>
      </trkpt>
      <trkpt lat="47.77126" lon="-3.60945">
        <ele>2.2</ele>
        <time>2020-06-07T13:10:01Z</time>
      </trkpt>
      <trkpt lat="47.77127" lon="-3.60949">
        <ele>2.3</ele>
        <time>2020-06-07T13:10:02Z</time>
      </trkpt>
      <trkpt lat="47.77128" lon="-3.6095">
        <ele>2.4</ele>
        <time>2020-06-07T13:10:03Z</time>
      </trkpt>
      <trkpt lat="47.77129" lon="-3.60951">
        <ele>2.4</ele>
        <time>2020-06-07T13:10:04Z</time>
      </trkpt>
      <trkpt lat="47.7713" lon="-3.60953">
        <ele>2.4</ele>
        <time>2020-06-07T13:10:05Z</time>
      </trkpt>
      <trkpt lat="47.77131" lon="-3.60954">
        <ele>2.5</ele>
        <time>2020-06-07T13:10:06Z</time>
      </trkpt>
      <trkpt lat="47.77132" lon="-3.60956">
        <ele>2.5</ele>
        <time>2020-06-07T13:10:07Z</time>
      </trkpt>
      <trkpt lat="47.77133" lon="-3.60958">
        <ele>2.6</ele>
        <time>2020-06-07T13:10:08Z</time>
      </trkpt>
      <trkpt lat="47.77134" lon="-3.6096">
        <ele>2.7</ele>
        <time>2020-06-07T13:10:09Z</time>
      </trkpt>
      <trkpt lat="47.77135" lon="-3.60963">
        <ele>2.7</ele>
        <time>2020-06-07T13:10:10Z</time>
      </trkpt>
      <trkpt lat="47.77135" lon="-3.60965">
        <ele>2.8</ele>
        <time>2020-06-07T13:10:11Z</time>
      </trkpt>
      <trkpt lat="47.77135" lon="-3.60966">
        <ele>2.8</ele>
        <time>2020-06-07T13:10:12Z</time>
      </trkpt>
      <trkpt lat="47.77136" lon="-3.60967">
        <ele>2.9</ele>
        <time>2020-06-07T13:10:13Z</time>
      </trkpt>
      <trkpt lat="47.77137" lon="-3.60969">
        <ele>2.9</ele>
        <time>2020-06-07T13:10:14Z</time>
      </trkpt>
      <trkpt lat="47.77138" lon="-3.60971">
        <ele>2.9</ele>
        <time>2020-06-07T13:10:15Z</time>
      </trkpt>
      <trkpt lat="47.77139" lon="-3.60973">
        <ele>3</ele>
        <time>2020-06-07T13:10:16Z</time>
      </trkpt>
      <trkpt lat="47.77139" lon="-3.60974">
        <ele>3</ele>
        <time>2020-06-07T13:10:17Z</time>
      </trkpt>
      <trkpt lat="47.7714" lon="-3.60976">
        <ele>3.1</ele>
        <time>2020-06-07T13:10:18Z</time>
      </trkpt>
      <trkpt lat="47.77142" lon="-3.60978">
        <ele>3.2</ele>
        <time>2020-06-07T13:10:19Z</time>
      </trkpt>
      <trkpt lat="47.77143" lon="-3.60979">
        <ele>3.2</ele>
        <time>2020-06-07T13:10:20Z</time>
      </trkpt>
      <trkpt lat="47.77144" lon="-3.60979">
        <ele>3.2</ele>
        <time>2020-06-07T13:10:21Z</time>
      </trkpt>
      <trkpt lat="47.77145" lon="-3.6098">
        <ele>3.3</ele>
        <time>2020-06-07T13:10:22Z</time>
      </trkpt>
      <trkpt lat="47.77147" lon="-3.60981">
        <ele>3.4</ele>
        <time>2020-06-07T13:10:23Z</time>
      </trkpt>
      <trkpt lat="47.7715" lon="-3.60981">
        <ele>3.4</ele>
        <time>2020-06-07T13:10:24Z</time>
      </trkpt>
      <trkpt lat="47.77151" lon="-3.60981">
        <ele>3.5</ele>
        <time>2020-06-07T13:10:25Z</time>
      </trkpt>
      <trkpt lat="47.77154" lon="-3.6098">
        <ele>3.6</ele>
        <time>2020-06-07T13:10:26Z</time>
      </trkpt>
      <trkpt lat="47.77155" lon="-3.60981">
        <ele>3.6</ele>
        <time>2020-06-07T13:10:27Z</time>
      </trkpt>
      <trkpt lat="47.77157" lon="-3.6098">
        <ele>3.7</ele>
        <time>2020-06-07T13:10:28Z</time>
      </trkpt>
      <trkpt lat="47.77158" lon="-3.60981">
        <ele>3.7</ele>
        <time>2020-06-07T13:10:29Z</time>
      </trkpt>
      <trkpt lat="47.7716" lon="-3.60981">
        <ele>3.8</ele>
        <time>2020-06-07T13:10:30Z</time>
      </trkpt>
      <trkpt lat="47.77161" lon="-3.60982">
        <ele>3.8</ele>
        <time>2020-06-07T13:10:31Z</time>
      </trkpt>
      <trkpt lat="47.77162" lon="-3.60982">
        <ele>3.9</ele>
        <time>2020-06-07T13:10:32Z</time>
      </trkpt>
      <trkpt lat="47.77164" lon="-3.60981">
        <ele>3.9</ele>
        <time>2020-06-07T13:10:33Z</time>
      </trkpt>
      <trkpt lat="47.77165" lon="-3.6098">
        <ele>4</ele>
        <time>2020-06-07T13:10:34Z</time>
      </trkpt>
      <trkpt lat="47.77166" lon="-3.6098">
        <ele>4</ele>
        <time>2020-06-07T13:10:35Z</time>
      </trkpt>
      <trkpt lat="47.77167" lon="-3.60979">
        <ele>4</ele>
        <time>2020-06-07T13:10:36Z</time>
      </trkpt>
      <trkpt lat="47.77169" lon="-3.60979">
        <ele>4</ele>
        <time>2020-06-07T13:10:37Z</time>
      </trkpt>
      <trkpt lat="47.77171" lon="-3.60978">
        <ele>4</ele>
        <time>2020-06-07T13:10:38Z</time>
      </trkpt>
      <trkpt lat="47.77172" lon="-3.60978">
        <ele>4</ele>
        <time>2020-06-07T13:10:39Z</time>
      </trkpt>
      <trkpt lat="47.77173" lon="-3.60978">
        <ele>4</ele>
        <time>2020-06-07T13:10:40Z</time>
      </trkpt>
      <trkpt lat="47.77174" lon="-3.60978">
        <ele>4</ele>
        <time>2020-06-07T13:10:41Z</time>
      </trkpt>
      <trkpt lat="47.77174" lon="-3.60977">
        <ele>4</ele>
        <time>2020-06-07T13:10:42Z</time>
      </trkpt>
      <trkpt lat="47.77176" lon="-3.60977">
        <ele>4</ele>
        <time>2020-06-07T13:10:43Z</time>
      </trkpt>
      <trkpt lat="47.77177" lon="-3.60977">
        <ele>4</ele>
        <time>2020-06-07T13:10:44Z</time>
      </trkpt>
      <trkpt lat="47.77178" lon="-3.60975">
        <ele>4</ele>
        <time>2020-06-07T13:10:45Z</time>
      </trkpt>
      <trkpt lat="47.77178" lon="-3.60974">
        <ele>4</ele>
        <time>2020-06-07T13:10:46Z</time>
      </trkpt>
      <trkpt lat="47.77179" lon="-3.60973">
        <ele>4</ele>
        <time>2020-06-07T13:10:47Z</time>
      </trkpt>
      <trkpt lat="47.7718" lon="-3.60973">
        <ele>4</ele>
        <time>2020-06-07T13:10:48Z</time>
      </trkpt>
      <trkpt lat="47.77181" lon="-3.60973">
        <ele>4</ele>
        <time>2020-06-07T13:10:49Z</time>
      </trkpt>
      <trkpt lat="47.77181" lon="-3.60974">
        <ele>4</ele>
        <time>2020-06-07T13:10:50Z</time>
      </trkpt>
      <trkpt lat="47.77181" lon="-3.60974">
        <ele>4</ele>
        <time>2020-06-07T13:10:51Z</time>
      </trkpt>
      <trkpt lat="47.77181" lon="-3.60974">
        <ele>4</ele>
        <time>2020-06-07T13:10:52Z</time>
      </trkpt>
      <trkpt lat="47.77181" lon="-3.60975">
        <ele>4</ele>
        <time>2020-06-07T13:10:53Z</time>
      </trkpt>
      <trkpt lat="47.77181" lon="-3.60977">
        <ele>4</ele>
        <time>2020-06-07T13:10:54Z</time>
      </trkpt>
      <trkpt lat="47.77181" lon="-3.60977">
        <ele>4</ele>
        <time>2020-06-07T13:10:55Z</time>
      </trkpt>
      <trkpt lat="47.7718" lon="-3.60978">
        <ele>4</ele>
        <time>2020-06-07T13:10:56Z</time>
      </trkpt>
      <trkpt lat="47.7718" lon="-3.60978">
        <ele>4</ele>
        <time>2020-06-07T13:10:57Z</time>
      </trkpt>
      <trkpt lat="47.7718" lon="-3.60978">
        <ele>4</ele>
        <time>2020-06-07T13:10:58Z</time>
      </trkpt>
      <trkpt lat="47.77181" lon="-3.60978">
        <ele>4</ele>
        <time>2020-06-07T13:10:59Z</time>
      </trkpt>
      <trkpt lat="47.77182" lon="-3.60978">
        <ele>4</ele>
        <time>2020-06-07T13:11:00Z</time>
      </trkpt>
      <trkpt lat="47.77182" lon="-3.60978">
        <ele>4</ele>
        <time>2020-06-07T13:11:01Z</time>
      </trkpt>
      <trkpt lat="47.77183" lon="-3.60978">
        <ele>4</ele>
        <time>2020-06-07T13:11:02Z</time>
      </trkpt>
      <trkpt lat="47.77183" lon="-3.60978">
        <ele>4</ele>
        <time>2020-06-07T13:11:03Z</time>
      </trkpt>
      <trkpt lat="47.77183" lon="-3.60977">
        <ele>4</ele>
        <time>2020-06-07T13:11:04Z</time>
      </trkpt>
      <trkpt lat="47.77183" lon="-3.60977">
        <ele>4</ele>
        <time>2020-06-07T13:11:05Z</time>
      </trkpt>
      <trkpt lat="47.77182" lon="-3.60974">
        <ele>4.1</ele>
        <time>2020-06-07T13:11:24Z</time>
      </trkpt>
      <trkpt lat="47.77181" lon="-3.60973">
        <ele>4.1</ele>
        <time>2020-06-07T13:11:25Z</time>
      </trkpt>
      <trkpt lat="47.77181" lon="-3.60973">
        <ele>4.1</ele>
        <time>2020-06-07T13:11:26Z</time>
      </trkpt>
      <trkpt lat="47.77181" lon="-3.60972">
        <ele>4.1</ele>
        <time>2020-06-07T13:11:27Z</time>
      </trkpt>
      <trkpt lat="47.7718" lon="-3.60971">
        <ele>4.1</ele>
        <time>2020-06-07T13:11:28Z</time>
      </trkpt>
      <trkpt lat="47.7718" lon="-3.60972">
        <ele>4.1</ele>
        <time>2020-06-07T13:11:29Z</time>
      </trkpt>
      <trkpt lat="47.7718" lon="-3.60972">
        <ele>4.1</ele>
        <time>2020-06-07T13:11:30Z</time>
      </trkpt>
      <trkpt lat="47.7718" lon="-3.60971">
        <ele>4.1</ele>
        <time>2020-06-07T13:11:31Z</time>
      </trkpt>
      <trkpt lat="47.77181" lon="-3.6097">
        <ele>4.1</ele>
        <time>2020-06-07T13:11:32Z</time>
      </trkpt>
      <trkpt lat="47.77181" lon="-3.6097">
        <ele>4.1</ele>
        <time>2020-06-07T13:11:33Z</time>
      </trkpt>
      <trkpt lat="47.77181" lon="-3.6097">
        <ele>4.1</ele>
        <time>2020-06-07T13:11:34Z</time>
      </trkpt>
      <trkpt lat="47.77182" lon="-3.60969">
        <ele>4.1</ele>
        <time>2020-06-07T13:11:35Z</time>
      </trkpt>
      <trkpt lat="47.77182" lon="-3.60969">
        <ele>4.1</ele>
        <time>2020-06-07T13:11:36Z</time>
      </trkpt>
      <trkpt lat="47.77188" lon="-3.60976">
        <ele>4.2</ele>
        <time>2020-06-07T13:12:37Z</time>
      </trkpt>
      <trkpt lat="47.77189" lon="-3.60975">
        <ele>4.2</ele>
        <time>2020-06-07T13:12:38Z</time>
      </trkpt>
      <trkpt lat="47.77189" lon="-3.60975">
        <ele>4.2</ele>
        <time>2020-06-07T13:12:39Z</time>
      </trkpt>
      <trkpt lat="47.77189" lon="-3.60975">
        <ele>4.2</ele>
        <time>2020-06-07T13:12:40Z</time>
      </trkpt>
      <trkpt lat="47.77188" lon="-3.60977">
        <ele>4.2</ele>
        <time>2020-06-07T13:12:41Z</time>
      </trkpt>
      <trkpt lat="47.77189" lon="-3.60978">
        <ele>4.2</ele>
        <time>2020-06-07T13:12:42Z</time>
      </trkpt>
      <trkpt lat="47.77188" lon="-3.60978">
        <ele>4.2</ele>
        <time>2020-06-07T13:12:43Z</time>
      </trkpt>
      <trkpt lat="47.77188" lon="-3.60978">
        <ele>4.2</ele>
        <time>2020-06-07T13:12:44Z</time>
      </trkpt>
      <trkpt lat="47.77188" lon="-3.60978">
        <ele>4.2</ele>
        <time>2020-06-07T13:12:45Z</time>
      </trkpt>
      <trkpt lat="47.77188" lon="-3.60978">
        <ele>4.2</ele>
        <time>2020-06-07T13:12:46Z</time>
      </trkpt>
      <trkpt lat="47.77189" lon="-3.60978">
        <ele>4.2</ele>
        <time>2020-06-07T13:12:47Z</time>
      </trkpt>
      <trkpt lat="47.77182" lon="-3.60977">
        <ele>4.1</ele>
        <time>2020-06-07T13:13:19Z</time>
      </trkpt>
      <trkpt lat="47.7718" lon="-3.60976">
        <ele>4.1</ele>
        <time>2020-06-07T13:13:20Z</time>
      </trkpt>
      <trkpt lat="47.77179" lon="-3.60975">
        <ele>4.1</ele>
        <time>2020-06-07T13:13:21Z</time>
      </trkpt>
      <trkpt lat="47.77179" lon="-3.60974">
        <ele>4</ele>
        <time>2020-06-07T13:13:22Z</time>
      </trkpt>
      <trkpt lat="47.77179" lon="-3.60975">
        <ele>4</ele>
        <time>2020-06-07T13:13:23Z</time>
      </trkpt>
      <trkpt lat="47.77179" lon="-3.60975">
        <ele>4</ele>
        <time>2020-06-07T13:13:24Z</time>
      </trkpt>
      <trkpt lat="47.77179" lon="-3.60975">
        <ele>4</ele>
        <time>2020-06-07T13:13:25Z</time>
      </trkpt>
      <trkpt lat="47.77179" lon="-3.60975">
        <ele>4</ele>
        <time>2020-06-07T13:13:26Z</time>
      </trkpt>
      <trkpt lat="47.77179" lon="-3.60975">
        <ele>4</ele>
        <time>2020-06-07T13:13:27Z</time>
      </trkpt>
      <trkpt lat="47.77179" lon="-3.60975">
        <ele>4</ele>
        <time>2020-06-07T13:13:28Z</time>
      </trkpt>
      <trkpt lat="47.77179" lon="-3.60975">
        <ele>4</ele>
        <time>2020-06-07T13:13:29Z</time>
      </trkpt>
      <trkpt lat="47.77179" lon="-3.60975">
        <ele>4</ele>
        <time>2020-06-07T13:13:30Z</time>
      </trkpt>
      <trkpt lat="47.77179" lon="-3.60975">
        <ele>4</ele>
        <time>2020-06-07T13:13:31Z</time>
      </trkpt>
      <trkpt lat="47.77179" lon="-3.60974">
        <ele>4</ele>
        <time>2020-06-07T13:13:32Z</time>
      </trkpt>
      <trkpt lat="47.77179" lon="-3.60974">
        <ele>4</ele>
        <time>2020-06-07T13:13:33Z</time>
      </trkpt>
      <trkpt lat="47.77177" lon="-3.60977">
        <ele>4</ele>
        <time>2020-06-07T13:13:48Z</time>
      </trkpt>
      <trkpt lat="47.77176" lon="-3.60978">
        <ele>4</ele>
        <time>2020-06-07T13:13:49Z</time>
      </trkpt>
      <trkpt lat="47.77176" lon="-3.60979">
        <ele>4</ele>
        <time>2020-06-07T13:13:50Z</time>
      </trkpt>
      <trkpt lat="47.77176" lon="-3.6098">
        <ele>4</ele>
        <time>2020-06-07T13:13:51Z</time>
      </trkpt>
      <trkpt lat="47.77175" lon="-3.60981">
        <ele>4</ele>
        <time>2020-06-07T13:13:52Z</time>
      </trkpt>
      <trkpt lat="47.77174" lon="-3.60982">
        <ele>4</ele>
        <time>2020-06-07T13:13:53Z</time>
      </trkpt>
      <trkpt lat="47.77173" lon="-3.60983">
        <ele>4</ele>
        <time>2020-06-07T13:13:54Z</time>
      </trkpt>
      <trkpt lat="47.77173" lon="-3.60985">
        <ele>4</ele>
        <time>2020-06-07T13:13:55Z</time>
      </trkpt>
      <trkpt lat="47.77173" lon="-3.60986">
        <ele>4</ele>
        <time>2020-06-07T13:13:56Z</time>
      </trkpt>
      <trkpt lat="47.77173" lon="-3.60987">
        <ele>4</ele>
        <time>2020-06-07T13:13:57Z</time>
      </trkpt>
      <trkpt lat="47.77174" lon="-3.60987">
        <ele>4</ele>
        <time>2020-06-07T13:13:58Z</time>
      </trkpt>
      <trkpt lat="47.77173" lon="-3.60988">
        <ele>4</ele>
        <time>2020-06-07T13:13:59Z</time>
      </trkpt>
      <trkpt lat="47.77173" lon="-3.60989">
        <ele>4</ele>
        <time>2020-06-07T13:14:00Z</time>
      </trkpt>
      <trkpt lat="47.77172" lon="-3.60989">
        <ele>4</ele>
        <time>2020-06-07T13:14:01Z</time>
      </trkpt>
      <trkpt lat="47.77172" lon="-3.60989">
        <ele>4</ele>
        <time>2020-06-07T13:14:02Z</time>
      </trkpt>
      <trkpt lat="47.77173" lon="-3.60988">
        <ele>4</ele>
        <time>2020-06-07T13:14:03Z</time>
      </trkpt>
      <trkpt lat="47.77172" lon="-3.60988">
        <ele>4</ele>
        <time>2020-06-07T13:14:04Z</time>
      </trkpt>
      <trkpt lat="47.77172" lon="-3.60989">
        <ele>4</ele>
        <time>2020-06-07T13:14:05Z</time>
      </trkpt>
      <trkpt lat="47.77172" lon="-3.6099">
        <ele>4</ele>
        <time>2020-06-07T13:14:06Z</time>
      </trkpt>
      <trkpt lat="47.77172" lon="-3.60989">
        <ele>4</ele>
        <time>2020-06-07T13:14:07Z</time>
      </trkpt>
      <trkpt lat="47.77172" lon="-3.60989">
        <ele>4</ele>
        <time>2020-06-07T13:14:08Z</time>
      </trkpt>
      <trkpt lat="47.77173" lon="-3.6099">
        <ele>4</ele>
        <time>2020-06-07T13:14:09Z</time>
      </trkpt>
      <trkpt lat="47.77173" lon="-3.60989">
        <ele>4</ele>
        <time>2020-06-07T13:14:10Z</time>
      </trkpt>
      <trkpt lat="47.77173" lon="-3.60989">
        <ele>4</ele>
        <time>2020-06-07T13:14:11Z</time>
      </trkpt>
      <trkpt lat="47.77173" lon="-3.60989">
        <ele>4</ele>
        <time>2020-06-07T13:14:12Z</time>
      </trkpt>
      <trkpt lat="47.77173" lon="-3.60989">
        <ele>4</ele>
        <time>2020-06-07T13:14:13Z</time>
      </trkpt>
      <trkpt lat="47.77173" lon="-3.60989">
        <ele>4</ele>
        <time>2020-06-07T13:14:14Z</time>
      </trkpt>
      <trkpt lat="47.77173" lon="-3.60989">
        <ele>4</ele>
        <time>2020-06-07T13:14:15Z</time>
      </trkpt>
      <trkpt lat="47.77173" lon="-3.6099">
        <ele>4</ele>
        <time>2020-06-07T13:14:16Z</time>
      </trkpt>
      <trkpt lat="47.77173" lon="-3.6099">
        <ele>4</ele>
        <time>2020-06-07T13:14:17Z</time>
      </trkpt>
      <trkpt lat="47.77173" lon="-3.6099">
        <ele>4</ele>
        <time>2020-06-07T13:14:18Z</time>
      </trkpt>
      <trkpt lat="47.77173" lon="-3.6099">
        <ele>4</ele>
        <time>2020-06-07T13:14:19Z</time>
      </trkpt>
      <trkpt lat="47.77173" lon="-3.60991">
        <ele>4</ele>
        <time>2020-06-07T13:14:20Z</time>
      </trkpt>
      <trkpt lat="47.77173" lon="-3.60992">
        <ele>4</ele>
        <time>2020-06-07T13:14:21Z</time>
      </trkpt>
      <trkpt lat="47.77174" lon="-3.60992">
        <ele>4</ele>
        <time>2020-06-07T13:14:22Z</time>
      </trkpt>
      <trkpt lat="47.77174" lon="-3.60993">
        <ele>4</ele>
        <time>2020-06-07T13:14:23Z</time>
      </trkpt>
      <trkpt lat="47.77174" lon="-3.60994">
        <ele>4</ele>
        <time>2020-06-07T13:14:24Z</time>
      </trkpt>
      <trkpt lat="47.77174" lon="-3.60996">
        <ele>4</ele>
        <time>2020-06-07T13:14:25Z</time>
      </trkpt>
      <trkpt lat="47.77173" lon="-3.60997">
        <ele>4.5</ele>
        <time>2020-06-07T13:14:26Z</time>
      </trkpt>
      <trkpt lat="47.77173" lon="-3.60998">
        <ele>4.5</ele>
        <time>2020-06-07T13:14:27Z</time>
      </trkpt>
      <trkpt lat="47.77174" lon="-3.60999">
        <ele>4.6</ele>
        <time>2020-06-07T13:14:28Z</time>
      </trkpt>
      <trkpt lat="47.77174" lon="-3.60999">
        <ele>4.7</ele>
        <time>2020-06-07T13:14:29Z</time>
      </trkpt>
      <trkpt lat="47.77175" lon="-3.60999">
        <ele>4.7</ele>
        <time>2020-06-07T13:14:30Z</time>
      </trkpt>
      <trkpt lat="47.77175" lon="-3.60999">
        <ele>4.7</ele>
        <time>2020-06-07T13:14:31Z</time>
      </trkpt>
      <trkpt lat="47.77174" lon="-3.60998">
        <ele>4.8</ele>
        <time>2020-06-07T13:14:32Z</time>
      </trkpt>
      <trkpt lat="47.77175" lon="-3.60998">
        <ele>4.8</ele>
        <time>2020-06-07T13:14:33Z</time>
      </trkpt>
      <trkpt lat="47.77176" lon="-3.60998">
        <ele>4</ele>
        <time>2020-06-07T13:14:34Z</time>
      </trkpt>
      <trkpt lat="47.77177" lon="-3.60999">
        <ele>4</ele>
        <time>2020-06-07T13:14:35Z</time>
      </trkpt>
      <trkpt lat="47.77178" lon="-3.60998">
        <ele>4</ele>
        <time>2020-06-07T13:14:36Z</time>
      </trkpt>
      <trkpt lat="47.77179" lon="-3.60999">
        <ele>4.7</ele>
        <time>2020-06-07T13:14:37Z</time>
      </trkpt>
      <trkpt lat="47.77179" lon="-3.60999">
        <ele>4.8</ele>
        <time>2020-06-07T13:14:38Z</time>
      </trkpt>
      <trkpt lat="47.77179" lon="-3.61">
        <ele>5</ele>
        <time>2020-06-07T13:14:39Z</time>
      </trkpt>
      <trkpt lat="47.77179" lon="-3.61">
        <ele>5</ele>
        <time>2020-06-07T13:14:40Z</time>
      </trkpt>
      <trkpt lat="47.77179" lon="-3.61">
        <ele>5</ele>
        <time>2020-06-07T13:14:41Z</time>
      </trkpt>
      <trkpt lat="47.77179" lon="-3.61">
        <ele>5.2</ele>
        <time>2020-06-07T13:14:42Z</time>
      </trkpt>
      <trkpt lat="47.77178" lon="-3.61">
        <ele>5.3</ele>
        <time>2020-06-07T13:14:43Z</time>
      </trkpt>
      <trkpt lat="47.77178" lon="-3.60999">
        <ele>5.5</ele>
        <time>2020-06-07T13:14:44Z</time>
      </trkpt>
      <trkpt lat="47.77178" lon="-3.60999">
        <ele>5.5</ele>
        <time>2020-06-07T13:14:45Z</time>
      </trkpt>
      <trkpt lat="47.77178" lon="-3.6101">
        <ele>7.4</ele>
        <time>2020-06-07T13:15:27Z</time>
      </trkpt>
      <trkpt lat="47.77179" lon="-3.61013">
        <ele>7.9</ele>
        <time>2020-06-07T13:15:28Z</time>
      </trkpt>
      <trkpt lat="47.77181" lon="-3.61016">
        <ele>8.6</ele>
        <time>2020-06-07T13:15:29Z</time>
      </trkpt>
      <trkpt lat="47.77183" lon="-3.6102">
        <ele>9.4</ele>
        <time>2020-06-07T13:15:30Z</time>
      </trkpt>
      <trkpt lat="47.77184" lon="-3.61023">
        <ele>10</ele>
        <time>2020-06-07T13:15:31Z</time>
      </trkpt>
      <trkpt lat="47.77186" lon="-3.61024">
        <ele>10.4</ele>
        <time>2020-06-07T13:15:32Z</time>
      </trkpt>
      <trkpt lat="47.77188" lon="-3.61024">
        <ele>8.2</ele>
        <time>2020-06-07T13:15:33Z</time>
      </trkpt>
      <trkpt lat="47.7719" lon="-3.61026">
        <ele>8.2</ele>
        <time>2020-06-07T13:15:34Z</time>
      </trkpt>
      <trkpt lat="47.77191" lon="-3.61027">
        <ele>8.2</ele>
        <time>2020-06-07T13:15:35Z</time>
      </trkpt>
      <trkpt lat="47.77191" lon="-3.61028">
        <ele>8.2</ele>
        <time>2020-06-07T13:15:36Z</time>
      </trkpt>
      <trkpt lat="47.77191" lon="-3.61026">
        <ele>8.2</ele>
        <time>2020-06-07T13:15:37Z</time>
      </trkpt>
      <trkpt lat="47.77192" lon="-3.61027">
        <ele>8.2</ele>
        <time>2020-06-07T13:15:38Z</time>
      </trkpt>
      <trkpt lat="47.77193" lon="-3.61027">
        <ele>8.2</ele>
        <time>2020-06-07T13:15:39Z</time>
      </trkpt>
      <trkpt lat="47.77194" lon="-3.61027">
        <ele>8.2</ele>
        <time>2020-06-07T13:15:40Z</time>
      </trkpt>
      <trkpt lat="47.77213" lon="-3.61033">
        <ele>8.2</ele>
        <time>2020-06-07T13:15:50Z</time>
      </trkpt>
      <trkpt lat="47.77214" lon="-3.61033">
        <ele>8.2</ele>
        <time>2020-06-07T13:15:51Z</time>
      </trkpt>
      <trkpt lat="47.77214" lon="-3.61034">
        <ele>8.2</ele>
        <time>2020-06-07T13:15:52Z</time>
      </trkpt>
      <trkpt lat="47.77216" lon="-3.61035">
        <ele>8.2</ele>
        <time>2020-06-07T13:15:53Z</time>
      </trkpt>
      <trkpt lat="47.77216" lon="-3.61035">
        <ele>8.2</ele>
        <time>2020-06-07T13:15:54Z</time>
      </trkpt>
      <trkpt lat="47.77214" lon="-3.61034">
        <ele>8.2</ele>
        <time>2020-06-07T13:15:55Z</time>
      </trkpt>
      <trkpt lat="47.77213" lon="-3.61033">
        <ele>8.2</ele>
        <time>2020-06-07T13:15:56Z</time>
      </trkpt>
      <trkpt lat="47.77211" lon="-3.61031">
        <ele>8.2</ele>
        <time>2020-06-07T13:15:57Z</time>
      </trkpt>
      <trkpt lat="47.77209" lon="-3.6103">
        <ele>8.2</ele>
        <time>2020-06-07T13:15:58Z</time>
      </trkpt>
      <trkpt lat="47.77207" lon="-3.61024">
        <ele>8.2</ele>
        <time>2020-06-07T13:15:59Z</time>
      </trkpt>
      <trkpt lat="47.77205" lon="-3.61019">
        <ele>8.2</ele>
        <time>2020-06-07T13:16:00Z</time>
      </trkpt>
      <trkpt lat="47.77205" lon="-3.61014">
        <ele>8.2</ele>
        <time>2020-06-07T13:16:01Z</time>
      </trkpt>
      <trkpt lat="47.77204" lon="-3.6101">
        <ele>8.2</ele>
        <time>2020-06-07T13:16:02Z</time>
      </trkpt>
      <trkpt lat="47.77202" lon="-3.61009">
        <ele>8.2</ele>
        <time>2020-06-07T13:16:03Z</time>
      </trkpt>
      <trkpt lat="47.772" lon="-3.61007">
        <ele>8.2</ele>
        <time>2020-06-07T13:16:04Z</time>
      </trkpt>
      <trkpt lat="47.772" lon="-3.61007">
        <ele>8.2</ele>
        <time>2020-06-07T13:16:05Z</time>
      </trkpt>
      <trkpt lat="47.77198" lon="-3.61007">
        <ele>8.2</ele>
        <time>2020-06-07T13:16:06Z</time>
      </trkpt>
      <trkpt lat="47.77196" lon="-3.61007">
        <ele>8.2</ele>
        <time>2020-06-07T13:16:07Z</time>
      </trkpt>
      <trkpt lat="47.77195" lon="-3.61007">
        <ele>8.2</ele>
        <time>2020-06-07T13:16:08Z</time>
      </trkpt>
      <trkpt lat="47.77194" lon="-3.61007">
        <ele>8.2</ele>
        <time>2020-06-07T13:16:09Z</time>
      </trkpt>
      <trkpt lat="47.77194" lon="-3.61007">
        <ele>8.2</ele>
        <time>2020-06-07T13:16:10Z</time>
      </trkpt>
      <trkpt lat="47.77193" lon="-3.61007">
        <ele>8.2</ele>
        <time>2020-06-07T13:16:11Z</time>
      </trkpt>
      <trkpt lat="47.77194" lon="-3.61007">
        <ele>8.2</ele>
        <time>2020-06-07T13:16:12Z</time>
      </trkpt>
      <trkpt lat="47.77194" lon="-3.61008">
        <ele>8.2</ele>
        <time>2020-06-07T13:16:13Z</time>
      </trkpt>
      <trkpt lat="47.77194" lon="-3.61008">
        <ele>8.2</ele>
        <time>2020-06-07T13:16:14Z</time>
      </trkpt>
      <trkpt lat="47.77194" lon="-3.61007">
        <ele>8.2</ele>
        <time>2020-06-07T13:16:15Z</time>
      </trkpt>
      <trkpt lat="47.77194" lon="-3.61007">
        <ele>8.2</ele>
        <time>2020-06-07T13:16:16Z</time>
      </trkpt>
      <trkpt lat="47.77193" lon="-3.61007">
        <ele>8.2</ele>
        <time>2020-06-07T13:16:17Z</time>
      </trkpt>
      <trkpt lat="47.77193" lon="-3.61007">
        <ele>8.2</ele>
        <time>2020-06-07T13:16:18Z</time>
      </trkpt>
      <trkpt lat="47.77192" lon="-3.61007">
        <ele>8.2</ele>
        <time>2020-06-07T13:16:19Z</time>
      </trkpt>
      <trkpt lat="47.77193" lon="-3.61007">
        <ele>8.2</ele>
        <time>2020-06-07T13:16:20Z</time>
      </trkpt>
      <trkpt lat="47.77193" lon="-3.61007">
        <ele>8.2</ele>
        <time>2020-06-07T13:16:21Z</time>
      </trkpt>
      <trkpt lat="47.77193" lon="-3.61006">
        <ele>8.2</ele>
        <time>2020-06-07T13:16:22Z</time>
      </trkpt>
      <trkpt lat="47.77193" lon="-3.61007">
        <ele>8.2</ele>
        <time>2020-06-07T13:16:23Z</time>
      </trkpt>
      <trkpt lat="47.77194" lon="-3.61006">
        <ele>8.2</ele>
        <time>2020-06-07T13:16:24Z</time>
      </trkpt>
      <trkpt lat="47.77194" lon="-3.61006">
        <ele>8.2</ele>
        <time>2020-06-07T13:16:25Z</time>
      </trkpt>
      <trkpt lat="47.77191" lon="-3.61005">
        <ele>8.2</ele>
        <time>2020-06-07T13:16:26Z</time>
      </trkpt>
      <trkpt lat="47.77189" lon="-3.61004">
        <ele>8.2</ele>
        <time>2020-06-07T13:16:27Z</time>
      </trkpt>
      <trkpt lat="47.77187" lon="-3.61004">
        <ele>8.2</ele>
        <time>2020-06-07T13:16:28Z</time>
      </trkpt>
      <trkpt lat="47.77185" lon="-3.61004">
        <ele>8.2</ele>
        <time>2020-06-07T13:16:29Z</time>
      </trkpt>
      <trkpt lat="47.7718" lon="-3.61004">
        <ele>8.2</ele>
        <time>2020-06-07T13:16:30Z</time>
      </trkpt>
      <trkpt lat="47.77179" lon="-3.61004">
        <ele>8.2</ele>
        <time>2020-06-07T13:16:31Z</time>
      </trkpt>
      <trkpt lat="47.77179" lon="-3.61004">
        <ele>8.2</ele>
        <time>2020-06-07T13:16:32Z</time>
      </trkpt>
      <trkpt lat="47.77179" lon="-3.61004">
        <ele>8.2</ele>
        <time>2020-06-07T13:16:33Z</time>
      </trkpt>
      <trkpt lat="47.77178" lon="-3.61003">
        <ele>8.2</ele>
        <time>2020-06-07T13:16:34Z</time>
      </trkpt>
      <trkpt lat="47.77178" lon="-3.61002">
        <ele>8.2</ele>
        <time>2020-06-07T13:16:35Z</time>
      </trkpt>
      <trkpt lat="47.77178" lon="-3.61002">
        <ele>8.2</ele>
        <time>2020-06-07T13:16:36Z</time>
      </trkpt>
      <trkpt lat="47.77177" lon="-3.61">
        <ele>8</ele>
        <time>2020-06-07T13:16:37Z</time>
      </trkpt>
      <trkpt lat="47.77177" lon="-3.60999">
        <ele>8</ele>
        <time>2020-06-07T13:16:38Z</time>
      </trkpt>
      <trkpt lat="47.77177" lon="-3.60998">
        <ele>8</ele>
        <time>2020-06-07T13:16:39Z</time>
      </trkpt>
      <trkpt lat="47.77177" lon="-3.60997">
        <ele>8</ele>
        <time>2020-06-07T13:16:40Z</time>
      </trkpt>
      <trkpt lat="47.77177" lon="-3.60995">
        <ele>8</ele>
        <time>2020-06-07T13:16:55Z</time>
      </trkpt>
      <trkpt lat="47.77177" lon="-3.60994">
        <ele>8</ele>
        <time>2020-06-07T13:16:56Z</time>
      </trkpt>
      <trkpt lat="47.77177" lon="-3.60993">
        <ele>8</ele>
        <time>2020-06-07T13:16:57Z</time>
      </trkpt>
      <trkpt lat="47.77177" lon="-3.60989">
        <ele>8</ele>
        <time>2020-06-07T13:16:58Z</time>
      </trkpt>
      <trkpt lat="47.77177" lon="-3.60987">
        <ele>8</ele>
        <time>2020-06-07T13:16:59Z</time>
      </trkpt>
      <trkpt lat="47.77177" lon="-3.60985">
        <ele>8</ele>
        <time>2020-06-07T13:17:00Z</time>
      </trkpt>
      <trkpt lat="47.77178" lon="-3.60983">
        <ele>8</ele>
        <time>2020-06-07T13:17:01Z</time>
      </trkpt>
      <trkpt lat="47.77178" lon="-3.60982">
        <ele>8</ele>
        <time>2020-06-07T13:17:02Z</time>
      </trkpt>
      <trkpt lat="47.77178" lon="-3.60981">
        <ele>8</ele>
        <time>2020-06-07T13:17:03Z</time>
      </trkpt>
      <trkpt lat="47.77178" lon="-3.60982">
        <ele>8</ele>
        <time>2020-06-07T13:17:04Z</time>
      </trkpt>
      <trkpt lat="47.77178" lon="-3.60982">
        <ele>8</ele>
        <time>2020-06-07T13:17:05Z</time>
      </trkpt>
      <trkpt lat="47.77179" lon="-3.60982">
        <ele>8</ele>
        <time>2020-06-07T13:17:06Z</time>
      </trkpt>
      <trkpt lat="47.77179" lon="-3.60982">
        <ele>8</ele>
        <time>2020-06-07T13:17:07Z</time>
      </trkpt>
      <trkpt lat="47.77179" lon="-3.60983">
        <ele>8</ele>
        <time>2020-06-07T13:17:08Z</time>
      </trkpt>
      <trkpt lat="47.77179" lon="-3.60983">
        <ele>8</ele>
        <time>2020-06-07T13:17:09Z</time>
      </trkpt>
      <trkpt lat="47.77179" lon="-3.60983">
        <ele>8</ele>
        <time>2020-06-07T13:17:10Z</time>
      </trkpt>
      <trkpt lat="47.77179" lon="-3.60983">
        <ele>8</ele>
        <time>2020-06-07T13:17:11Z</time>
      </trkpt>
      <trkpt lat="47.7718" lon="-3.60983">
        <ele>8</ele>
        <time>2020-06-07T13:17:12Z</time>
      </trkpt>
      <trkpt lat="47.7718" lon="-3.60983">
        <ele>8</ele>
        <time>2020-06-07T13:17:13Z</time>
      </trkpt>
      <trkpt lat="47.7718" lon="-3.60983">
        <ele>8</ele>
        <time>2020-06-07T13:17:14Z</time>
      </trkpt>
      <trkpt lat="47.7718" lon="-3.6098">
        <ele>8</ele>
        <time>2020-06-07T13:17:48Z</time>
      </trkpt>
      <trkpt lat="47.77181" lon="-3.60981">
        <ele>8</ele>
        <time>2020-06-07T13:17:49Z</time>
      </trkpt>
      <trkpt lat="47.77181" lon="-3.60981">
        <ele>8</ele>
        <time>2020-06-07T13:17:50Z</time>
      </trkpt>
      <trkpt lat="47.77181" lon="-3.60982">
        <ele>8</ele>
        <time>2020-06-07T13:17:51Z</time>
      </trkpt>
      <trkpt lat="47.7718" lon="-3.60982">
        <ele>8</ele>
        <time>2020-06-07T13:17:52Z</time>
      </trkpt>
      <trkpt lat="47.77179" lon="-3.6098">
        <ele>8</ele>
        <time>2020-06-07T13:17:53Z</time>
      </trkpt>
      <trkpt lat="47.77178" lon="-3.60979">
        <ele>8</ele>
        <time>2020-06-07T13:17:54Z</time>
      </trkpt>
      <trkpt lat="47.77178" lon="-3.60978">
        <ele>8</ele>
        <time>2020-06-07T13:17:55Z</time>
      </trkpt>
      <trkpt lat="47.77178" lon="-3.60979">
        <ele>8</ele>
        <time>2020-06-07T13:17:56Z</time>
      </trkpt>
      <trkpt lat="47.77178" lon="-3.60979">
        <ele>8</ele>
        <time>2020-06-07T13:17:57Z</time>
      </trkpt>
      <trkpt lat="47.77177" lon="-3.60979">
        <ele>8</ele>
        <time>2020-06-07T13:17:58Z</time>
      </trkpt>
      <trkpt lat="47.77184" lon="-3.60983">
        <ele>8</ele>
        <time>2020-06-07T13:18:48Z</time>
      </trkpt>
      <trkpt lat="47.77185" lon="-3.60983">
        <ele>8</ele>
        <time>2020-06-07T13:18:49Z</time>
      </trkpt>
      <trkpt lat="47.77186" lon="-3.60983">
        <ele>8</ele>
        <time>2020-06-07T13:18:50Z</time>
      </trkpt>
      <trkpt lat="47.77186" lon="-3.60984">
        <ele>8</ele>
        <time>2020-06-07T13:18:51Z</time>
      </trkpt>
      <trkpt lat="47.77186" lon="-3.60984">
        <ele>8</ele>
        <time>2020-06-07T13:18:52Z</time>
      </trkpt>
      <trkpt lat="47.77187" lon="-3.60985">
        <ele>8</ele>
        <time>2020-06-07T13:18:53Z</time>
      </trkpt>
      <trkpt lat="47.77187" lon="-3.60985">
        <ele>8</ele>
        <time>2020-06-07T13:18:54Z</time>
      </trkpt>
      <trkpt lat="47.77187" lon="-3.60985">
        <ele>8</ele>
        <time>2020-06-07T13:18:55Z</time>
      </trkpt>
      <trkpt lat="47.77187" lon="-3.60986">
        <ele>8</ele>
        <time>2020-06-07T13:18:56Z</time>
      </trkpt>
      <trkpt lat="47.77187" lon="-3.60986">
        <ele>8</ele>
        <time>2020-06-07T13:18:57Z</time>
      </trkpt>
      <trkpt lat="47.77187" lon="-3.60987">
        <ele>8</ele>
        <time>2020-06-07T13:18:58Z</time>
      </trkpt>
      <trkpt lat="47.77187" lon="-3.60986">
        <ele>8</ele>
        <time>2020-06-07T13:18:59Z</time>
      </trkpt>
      <trkpt lat="47.77186" lon="-3.60986">
        <ele>8</ele>
        <time>2020-06-07T13:19:00Z</time>
      </trkpt>
      <trkpt lat="47.77185" lon="-3.60987">
        <ele>8</ele>
        <time>2020-06-07T13:19:01Z</time>
      </trkpt>
      <trkpt lat="47.77189" lon="-3.60981">
        <ele>8</ele>
        <time>2020-06-07T13:19:21Z</time>
      </trkpt>
      <trkpt lat="47.77189" lon="-3.60981">
        <ele>8</ele>
        <time>2020-06-07T13:19:22Z</time>
      </trkpt>
      <trkpt lat="47.77189" lon="-3.60981">
        <ele>8</ele>
        <time>2020-06-07T13:19:23Z</time>
      </trkpt>
      <trkpt lat="47.7719" lon="-3.60981">
        <ele>8</ele>
        <time>2020-06-07T13:19:24Z</time>
      </trkpt>
      <trkpt lat="47.7719" lon="-3.60981">
        <ele>8</ele>
        <time>2020-06-07T13:19:25Z</time>
      </trkpt>
      <trkpt lat="47.7719" lon="-3.60981">
        <ele>8</ele>
        <time>2020-06-07T13:19:26Z</time>
      </trkpt>
      <trkpt lat="47.7719" lon="-3.60982">
        <ele>8</ele>
        <time>2020-06-07T13:19:27Z</time>
      </trkpt>
      <trkpt lat="47.7719" lon="-3.60983">
        <ele>8</ele>
        <time>2020-06-07T13:19:28Z</time>
      </trkpt>
      <trkpt lat="47.77191" lon="-3.60984">
        <ele>8</ele>
        <time>2020-06-07T13:19:29Z</time>
      </trkpt>
      <trkpt lat="47.77191" lon="-3.60986">
        <ele>8</ele>
        <time>2020-06-07T13:19:30Z</time>
      </trkpt>
      <trkpt lat="47.77192" lon="-3.60986">
        <ele>8</ele>
        <time>2020-06-07T13:19:31Z</time>
      </trkpt>
      <trkpt lat="47.77192" lon="-3.60986">
        <ele>8</ele>
        <time>2020-06-07T13:19:32Z</time>
      </trkpt>
      <trkpt lat="47.77194" lon="-3.60986">
        <ele>8</ele>
        <time>2020-06-07T13:19:33Z</time>
      </trkpt>
      <trkpt lat="47.77195" lon="-3.60986">
        <ele>8</ele>
        <time>2020-06-07T13:19:34Z</time>
      </trkpt>
      <trkpt lat="47.77195" lon="-3.60987">
        <ele>8</ele>
        <time>2020-06-07T13:19:35Z</time>
      </trkpt>
      <trkpt lat="47.77195" lon="-3.60986">
        <ele>8</ele>
        <time>2020-06-07T13:19:36Z</time>
      </trkpt>
      <trkpt lat="47.77195" lon="-3.60986">
        <ele>8</ele>
        <time>2020-06-07T13:19:37Z</time>
      </trkpt>
      <trkpt lat="47.77196" lon="-3.60987">
        <ele>8</ele>
        <time>2020-06-07T13:19:38Z</time>
      </trkpt>
      <trkpt lat="47.77196" lon="-3.60987">
        <ele>8</ele>
        <time>2020-06-07T13:19:39Z</time>
      </trkpt>
      <trkpt lat="47.77197" lon="-3.60986">
        <ele>8</ele>
        <time>2020-06-07T13:19:40Z</time>
      </trkpt>
      <trkpt lat="47.77198" lon="-3.60985">
        <ele>8</ele>
        <time>2020-06-07T13:19:41Z</time>
      </trkpt>
      <trkpt lat="47.77199" lon="-3.60984">
        <ele>8</ele>
        <time>2020-06-07T13:19:42Z</time>
      </trkpt>
      <trkpt lat="47.772" lon="-3.60983">
        <ele>8</ele>
        <time>2020-06-07T13:19:43Z</time>
      </trkpt>
      <trkpt lat="47.772" lon="-3.60983">
        <ele>8</ele>
        <time>2020-06-07T13:19:44Z</time>
      </trkpt>
      <trkpt lat="47.772" lon="-3.60983">
        <ele>8</ele>
        <time>2020-06-07T13:19:45Z</time>
      </trkpt>
      <trkpt lat="47.772" lon="-3.60983">
        <ele>8</ele>
        <time>2020-06-07T13:19:46Z</time>
      </trkpt>
      <trkpt lat="47.772" lon="-3.60983">
        <ele>8</ele>
        <time>2020-06-07T13:19:47Z</time>
      </trkpt>
      <trkpt lat="47.772" lon="-3.60983">
        <ele>8</ele>
        <time>2020-06-07T13:19:48Z</time>
      </trkpt>
      <trkpt lat="47.772" lon="-3.60983">
        <ele>8</ele>
        <time>2020-06-07T13:19:49Z</time>
      </trkpt>
      <trkpt lat="47.772" lon="-3.60983">
        <ele>8</ele>
        <time>2020-06-07T13:19:50Z</time>
      </trkpt>
      <trkpt lat="47.772" lon="-3.60983">
        <ele>8</ele>
        <time>2020-06-07T13:19:51Z</time>
      </trkpt>
      <trkpt lat="47.772" lon="-3.60983">
        <ele>8</ele>
        <time>2020-06-07T13:19:52Z</time>
      </trkpt>
      <trkpt lat="47.772" lon="-3.60983">
        <ele>8</ele>
        <time>2020-06-07T13:19:53Z</time>
      </trkpt>
      <trkpt lat="47.772" lon="-3.60983">
        <ele>8</ele>
        <time>2020-06-07T13:19:54Z</time>
      </trkpt>
      <trkpt lat="47.772" lon="-3.60983">
        <ele>8</ele>
        <time>2020-06-07T13:19:55Z</time>
      </trkpt>
      <trkpt lat="47.77191" lon="-3.60983">
        <ele>8</ele>
        <time>2020-06-07T13:22:12Z</time>
      </trkpt>
      <trkpt lat="47.77191" lon="-3.60983">
        <ele>8</ele>
        <time>2020-06-07T13:22:13Z</time>
      </trkpt>
      <trkpt lat="47.77191" lon="-3.60984">
        <ele>8</ele>
        <time>2020-06-07T13:22:14Z</time>
      </trkpt>
      <trkpt lat="47.77191" lon="-3.60983">
        <ele>8</ele>
        <time>2020-06-07T13:22:15Z</time>
      </trkpt>
      <trkpt lat="47.77191" lon="-3.60984">
        <ele>8</ele>
        <time>2020-06-07T13:22:16Z</time>
      </trkpt>
      <trkpt lat="47.7719" lon="-3.60984">
        <ele>8</ele>
        <time>2020-06-07T13:22:17Z</time>
      </trkpt>
      <trkpt lat="47.7719" lon="-3.60983">
        <ele>8</ele>
        <time>2020-06-07T13:22:18Z</time>
      </trkpt>
      <trkpt lat="47.77191" lon="-3.60983">
        <ele>8</ele>
        <time>2020-06-07T13:22:19Z</time>
      </trkpt>
      <trkpt lat="47.77191" lon="-3.60982">
        <ele>8</ele>
        <time>2020-06-07T13:22:20Z</time>
      </trkpt>
      <trkpt lat="47.77191" lon="-3.60982">
        <ele>8</ele>
        <time>2020-06-07T13:22:21Z</time>
      </trkpt>
      <trkpt lat="47.77192" lon="-3.6098">
        <ele>8</ele>
        <time>2020-06-07T13:22:22Z</time>
      </trkpt>
      <trkpt lat="47.77192" lon="-3.6098">
        <ele>8</ele>
        <time>2020-06-07T13:22:23Z</time>
      </trkpt>
      <trkpt lat="47.77192" lon="-3.60979">
        <ele>8</ele>
        <time>2020-06-07T13:22:24Z</time>
      </trkpt>
      <trkpt lat="47.77192" lon="-3.60979">
        <ele>8</ele>
        <time>2020-06-07T13:22:25Z</time>
      </trkpt>
      <trkpt lat="47.77192" lon="-3.60979">
        <ele>8</ele>
        <time>2020-06-07T13:22:26Z</time>
      </trkpt>
      <trkpt lat="47.77192" lon="-3.60979">
        <ele>8</ele>
        <time>2020-06-07T13:22:27Z</time>
      </trkpt>
      <trkpt lat="47.77192" lon="-3.6098">
        <ele>8</ele>
        <time>2020-06-07T13:22:28Z</time>
      </trkpt>
      <trkpt lat="47.77192" lon="-3.6098">
        <ele>8</ele>
        <time>2020-06-07T13:22:29Z</time>
      </trkpt>
      <trkpt lat="47.77192" lon="-3.6098">
        <ele>8</ele>
        <time>2020-06-07T13:22:30Z</time>
      </trkpt>
      <trkpt lat="47.77192" lon="-3.60981">
        <ele>8</ele>
        <time>2020-06-07T13:22:31Z</time>
      </trkpt>
      <trkpt lat="47.77192" lon="-3.60981">
        <ele>8</ele>
        <time>2020-06-07T13:22:32Z</time>
      </trkpt>
      <trkpt lat="47.77192" lon="-3.6098">
        <ele>8</ele>
        <time>2020-06-07T13:22:33Z</time>
      </trkpt>
      <trkpt lat="47.77192" lon="-3.6098">
        <ele>8</ele>
        <time>2020-06-07T13:22:34Z</time>
      </trkpt>
      <trkpt lat="47.77192" lon="-3.6098">
        <ele>8</ele>
        <time>2020-06-07T13:22:35Z</time>
      </trkpt>
      <trkpt lat="47.77192" lon="-3.6098">
        <ele>8</ele>
        <time>2020-06-07T13:22:36Z</time>
      </trkpt>
      <trkpt lat="47.77192" lon="-3.6098">
        <ele>8</ele>
        <time>2020-06-07T13:22:37Z</time>
      </trkpt>
      <trkpt lat="47.77192" lon="-3.6098">
        <ele>8</ele>
        <time>2020-06-07T13:22:38Z</time>
      </trkpt>
      <trkpt lat="47.77194" lon="-3.60984">
        <ele>8</ele>
        <time>2020-06-07T13:22:46Z</time>
      </trkpt>
      <trkpt lat="47.77194" lon="-3.60984">
        <ele>8</ele>
        <time>2020-06-07T13:22:47Z</time>
      </trkpt>
      <trkpt lat="47.77194" lon="-3.60984">
        <ele>8</ele>
        <time>2020-06-07T13:22:48Z</time>
      </trkpt>
      <trkpt lat="47.77195" lon="-3.60984">
        <ele>8</ele>
        <time>2020-06-07T13:22:49Z</time>
      </trkpt>
      <trkpt lat="47.77195" lon="-3.60984">
        <ele>8</ele>
        <time>2020-06-07T13:22:50Z</time>
      </trkpt>
      <trkpt lat="47.77195" lon="-3.60984">
        <ele>8</ele>
        <time>2020-06-07T13:22:51Z</time>
      </trkpt>
      <trkpt lat="47.77195" lon="-3.60983">
        <ele>8</ele>
        <time>2020-06-07T13:22:52Z</time>
      </trkpt>
      <trkpt lat="47.77194" lon="-3.60983">
        <ele>8</ele>
        <time>2020-06-07T13:22:53Z</time>
      </trkpt>
      <trkpt lat="47.77194" lon="-3.60983">
        <ele>8</ele>
        <time>2020-06-07T13:22:54Z</time>
      </trkpt>
      <trkpt lat="47.77194" lon="-3.60983">
        <ele>8</ele>
        <time>2020-06-07T13:22:55Z</time>
      </trkpt>
      <trkpt lat="47.77193" lon="-3.60983">
        <ele>8</ele>
        <time>2020-06-07T13:22:56Z</time>
      </trkpt>
      <trkpt lat="47.77189" lon="-3.60985">
        <ele>8</ele>
        <time>2020-06-07T13:23:52Z</time>
      </trkpt>
      <trkpt lat="47.77189" lon="-3.60986">
        <ele>8</ele>
        <time>2020-06-07T13:23:53Z</time>
      </trkpt>
      <trkpt lat="47.77188" lon="-3.60988">
        <ele>8</ele>
        <time>2020-06-07T13:23:54Z</time>
      </trkpt>
      <trkpt lat="47.77188" lon="-3.60989">
        <ele>8</ele>
        <time>2020-06-07T13:23:55Z</time>
      </trkpt>
      <trkpt lat="47.77188" lon="-3.6099">
        <ele>8</ele>
        <time>2020-06-07T13:23:56Z</time>
      </trkpt>
      <trkpt lat="47.77188" lon="-3.6099">
        <ele>8</ele>
        <time>2020-06-07T13:23:57Z</time>
      </trkpt>
      <trkpt lat="47.77188" lon="-3.60991">
        <ele>8</ele>
        <time>2020-06-07T13:23:58Z</time>
      </trkpt>
      <trkpt lat="47.77188" lon="-3.60991">
        <ele>8</ele>
        <time>2020-06-07T13:23:59Z</time>
      </trkpt>
      <trkpt lat="47.77187" lon="-3.60992">
        <ele>8</ele>
        <time>2020-06-07T13:24:00Z</time>
      </trkpt>
      <trkpt lat="47.77187" lon="-3.60992">
        <ele>8</ele>
        <time>2020-06-07T13:24:01Z</time>
      </trkpt>
      <trkpt lat="47.77187" lon="-3.60992">
        <ele>8</ele>
        <time>2020-06-07T13:24:02Z</time>
      </trkpt>
      <trkpt lat="47.77187" lon="-3.60992">
        <ele>8</ele>
        <time>2020-06-07T13:24:03Z</time>
      </trkpt>
      <trkpt lat="47.77187" lon="-3.60992">
        <ele>8</ele>
        <time>2020-06-07T13:24:04Z</time>
      </trkpt>
      <trkpt lat="47.77187" lon="-3.60993">
        <ele>8</ele>
        <time>2020-06-07T13:24:05Z</time>
      </trkpt>
      <trkpt lat="47.77187" lon="-3.60993">
        <ele>8</ele>
        <time>2020-06-07T13:24:06Z</time>
      </trkpt>
      <trkpt lat="47.77187" lon="-3.60993">
        <ele>8</ele>
        <time>2020-06-07T13:24:07Z</time>
      </trkpt>
      <trkpt lat="47.77187" lon="-3.60993">
        <ele>8</ele>
        <time>2020-06-07T13:24:08Z</time>
      </trkpt>
      <trkpt lat="47.77187" lon="-3.60993">
        <ele>8</ele>
        <time>2020-06-07T13:24:09Z</time>
      </trkpt>
      <trkpt lat="47.77188" lon="-3.60992">
        <ele>8</ele>
        <time>2020-06-07T13:24:10Z</time>
      </trkpt>
      <trkpt lat="47.77188" lon="-3.60991">
        <ele>8</ele>
        <time>2020-06-07T13:24:11Z</time>
      </trkpt>
      <trkpt lat="47.77188" lon="-3.60991">
        <ele>8</ele>
        <time>2020-06-07T13:24:12Z</time>
      </trkpt>
      <trkpt lat="47.77192" lon="-3.61002">
        <ele>8</ele>
        <time>2020-06-07T13:25:16Z</time>
      </trkpt>
      <trkpt lat="47.77193" lon="-3.61003">
        <ele>8</ele>
        <time>2020-06-07T13:25:17Z</time>
      </trkpt>
      <trkpt lat="47.77193" lon="-3.61003">
        <ele>8</ele>
        <time>2020-06-07T13:25:18Z</time>
      </trkpt>
      <trkpt lat="47.77193" lon="-3.61002">
        <ele>8</ele>
        <time>2020-06-07T13:25:19Z</time>
      </trkpt>
      <trkpt lat="47.77193" lon="-3.61003">
        <ele>8</ele>
        <time>2020-06-07T13:25:20Z</time>
      </trkpt>
      <trkpt lat="47.77193" lon="-3.61002">
        <ele>8</ele>
        <time>2020-06-07T13:25:21Z</time>
      </trkpt>
      <trkpt lat="47.77193" lon="-3.61003">
        <ele>8</ele>
        <time>2020-06-07T13:25:22Z</time>
      </trkpt>
      <trkpt lat="47.77193" lon="-3.61002">
        <ele>8</ele>
        <time>2020-06-07T13:25:23Z</time>
      </trkpt>
      <trkpt lat="47.77193" lon="-3.61003">
        <ele>8</ele>
        <time>2020-06-07T13:25:24Z</time>
      </trkpt>
      <trkpt lat="47.77193" lon="-3.61002">
        <ele>8</ele>
        <time>2020-06-07T13:25:25Z</time>
      </trkpt>
      <trkpt lat="47.77193" lon="-3.61002">
        <ele>8</ele>
        <time>2020-06-07T13:25:26Z</time>
      </trkpt>
      <trkpt lat="47.77193" lon="-3.61002">
        <ele>8</ele>
        <time>2020-06-07T13:25:27Z</time>
      </trkpt>
      <trkpt lat="47.77193" lon="-3.61002">
        <ele>8</ele>
        <time>2020-06-07T13:25:28Z</time>
      </trkpt>
      <trkpt lat="47.77193" lon="-3.61002">
        <ele>8</ele>
        <time>2020-06-07T13:25:29Z</time>
      </trkpt>
      <trkpt lat="47.77193" lon="-3.61002">
        <ele>8</ele>
        <time>2020-06-07T13:25:30Z</time>
      </trkpt>
      <trkpt lat="47.77193" lon="-3.61002">
        <ele>8</ele>
        <time>2020-06-07T13:25:31Z</time>
      </trkpt>
      <trkpt lat="47.77193" lon="-3.61002">
        <ele>8</ele>
        <time>2020-06-07T13:25:32Z</time>
      </trkpt>
      <trkpt lat="47.77193" lon="-3.61001">
        <ele>8</ele>
        <time>2020-06-07T13:25:33Z</time>
      </trkpt>
      <trkpt lat="47.77193" lon="-3.61001">
        <ele>8</ele>
        <time>2020-06-07T13:25:34Z</time>
      </trkpt>
      <trkpt lat="47.77193" lon="-3.61002">
        <ele>8</ele>
        <time>2020-06-07T13:25:35Z</time>
      </trkpt>
      <trkpt lat="47.77193" lon="-3.61003">
        <ele>8</ele>
        <time>2020-06-07T13:25:36Z</time>
      </trkpt>
      <trkpt lat="47.77193" lon="-3.61003">
        <ele>8</ele>
        <time>2020-06-07T13:25:37Z</time>
      </trkpt>
      <trkpt lat="47.77195" lon="-3.61005">
        <ele>8</ele>
        <time>2020-06-07T13:25:46Z</time>
      </trkpt>
      <trkpt lat="47.77196" lon="-3.61006">
        <ele>8</ele>
        <time>2020-06-07T13:25:47Z</time>
      </trkpt>
      <trkpt lat="47.77196" lon="-3.61006">
        <ele>8</ele>
        <time>2020-06-07T13:25:48Z</time>
      </trkpt>
      <trkpt lat="47.77197" lon="-3.61005">
        <ele>8</ele>
        <time>2020-06-07T13:25:49Z</time>
      </trkpt>
      <trkpt lat="47.77197" lon="-3.61005">
        <ele>8</ele>
        <time>2020-06-07T13:25:50Z</time>
      </trkpt>
      <trkpt lat="47.77198" lon="-3.61005">
        <ele>8</ele>
        <time>2020-06-07T13:25:51Z</time>
      </trkpt>
      <trkpt lat="47.77198" lon="-3.61005">
        <ele>8</ele>
        <time>2020-06-07T13:25:52Z</time>
      </trkpt>
      <trkpt lat="47.77198" lon="-3.61005">
        <ele>8</ele>
        <time>2020-06-07T13:25:53Z</time>
      </trkpt>
      <trkpt lat="47.77199" lon="-3.61006">
        <ele>8</ele>
        <time>2020-06-07T13:25:54Z</time>
      </trkpt>
      <trkpt lat="47.77199" lon="-3.61006">
        <ele>8</ele>
        <time>2020-06-07T13:25:55Z</time>
      </trkpt>
      <trkpt lat="47.772" lon="-3.61007">
        <ele>8</ele>
        <time>2020-06-07T13:25:56Z</time>
      </trkpt>
      <trkpt lat="47.772" lon="-3.61008">
        <ele>8</ele>
        <time>2020-06-07T13:25:57Z</time>
      </trkpt>
      <trkpt lat="47.77201" lon="-3.61009">
        <ele>8</ele>
        <time>2020-06-07T13:25:58Z</time>
      </trkpt>
      <trkpt lat="47.77201" lon="-3.6101">
        <ele>8</ele>
        <time>2020-06-07T13:25:59Z</time>
      </trkpt>
      <trkpt lat="47.772" lon="-3.61009">
        <ele>8</ele>
        <time>2020-06-07T13:26:00Z</time>
      </trkpt>
      <trkpt lat="47.77201" lon="-3.61009">
        <ele>8</ele>
        <time>2020-06-07T13:26:01Z</time>
      </trkpt>
      <trkpt lat="47.77201" lon="-3.61009">
        <ele>8</ele>
        <time>2020-06-07T13:26:02Z</time>
      </trkpt>
      <trkpt lat="47.77201" lon="-3.61009">
        <ele>8</ele>
        <time>2020-06-07T13:26:03Z</time>
      </trkpt>
      <trkpt lat="47.77201" lon="-3.61007">
        <ele>8</ele>
        <time>2020-06-07T13:26:04Z</time>
      </trkpt>
      <trkpt lat="47.77201" lon="-3.61006">
        <ele>8</ele>
        <time>2020-06-07T13:26:05Z</time>
      </trkpt>
      <trkpt lat="47.77201" lon="-3.61005">
        <ele>8</ele>
        <time>2020-06-07T13:26:06Z</time>
      </trkpt>
      <trkpt lat="47.77201" lon="-3.61005">
        <ele>8</ele>
        <time>2020-06-07T13:26:07Z</time>
      </trkpt>
      <trkpt lat="47.77201" lon="-3.61005">
        <ele>8</ele>
        <time>2020-06-07T13:26:08Z</time>
      </trkpt>
      <trkpt lat="47.77201" lon="-3.61005">
        <ele>8</ele>
        <time>2020-06-07T13:26:09Z</time>
      </trkpt>
      <trkpt lat="47.77201" lon="-3.61004">
        <ele>8</ele>
        <time>2020-06-07T13:26:10Z</time>
      </trkpt>
      <trkpt lat="47.77201" lon="-3.61004">
        <ele>8</ele>
        <time>2020-06-07T13:26:11Z</time>
      </trkpt>
      <trkpt lat="47.77201" lon="-3.61004">
        <ele>8</ele>
        <time>2020-06-07T13:26:12Z</time>
      </trkpt>
      <trkpt lat="47.77201" lon="-3.61004">
        <ele>8</ele>
        <time>2020-06-07T13:26:13Z</time>
      </trkpt>
      <trkpt lat="47.77201" lon="-3.61004">
        <ele>8</ele>
        <time>2020-06-07T13:26:14Z</time>
      </trkpt>
      <trkpt lat="47.77196" lon="-3.60999">
        <ele>8</ele>
        <time>2020-06-07T13:26:38Z</time>
      </trkpt>
      <trkpt lat="47.77196" lon="-3.60998">
        <ele>8</ele>
        <time>2020-06-07T13:26:39Z</time>
      </trkpt>
      <trkpt lat="47.77195" lon="-3.60997">
        <ele>8</ele>
        <time>2020-06-07T13:26:40Z</time>
      </trkpt>
      <trkpt lat="47.77195" lon="-3.60996">
        <ele>8</ele>
        <time>2020-06-07T13:26:41Z</time>
      </trkpt>
      <trkpt lat="47.77195" lon="-3.60995">
        <ele>8</ele>
        <time>2020-06-07T13:26:42Z</time>
      </trkpt>
      <trkpt lat="47.77196" lon="-3.60995">
        <ele>8</ele>
        <time>2020-06-07T13:26:43Z</time>
      </trkpt>
      <trkpt lat="47.77196" lon="-3.60995">
        <ele>8</ele>
        <time>2020-06-07T13:26:44Z</time>
      </trkpt>
      <trkpt lat="47.77196" lon="-3.60995">
        <ele>8</ele>
        <time>2020-06-07T13:26:45Z</time>
      </trkpt>
      <trkpt lat="47.77195" lon="-3.60995">
        <ele>8</ele>
        <time>2020-06-07T13:26:46Z</time>
      </trkpt>
      <trkpt lat="47.77195" lon="-3.60994">
        <ele>8</ele>
        <time>2020-06-07T13:26:47Z</time>
      </trkpt>
      <trkpt lat="47.77195" lon="-3.60994">
        <ele>8</ele>
        <time>2020-06-07T13:26:48Z</time>
      </trkpt>
      <trkpt lat="47.7719" lon="-3.60972">
        <ele>8</ele>
        <time>2020-06-07T13:28:38Z</time>
      </trkpt>
      <trkpt lat="47.7719" lon="-3.60972">
        <ele>8</ele>
        <time>2020-06-07T13:28:39Z</time>
      </trkpt>
      <trkpt lat="47.77188" lon="-3.60972">
        <ele>8</ele>
        <time>2020-06-07T13:28:40Z</time>
      </trkpt>
      <trkpt lat="47.77187" lon="-3.60972">
        <ele>8</ele>
        <time>2020-06-07T13:28:41Z</time>
      </trkpt>
      <trkpt lat="47.77186" lon="-3.60972">
        <ele>8</ele>
        <time>2020-06-07T13:28:42Z</time>
      </trkpt>
      <trkpt lat="47.77186" lon="-3.60972">
        <ele>8</ele>
        <time>2020-06-07T13:28:43Z</time>
      </trkpt>
      <trkpt lat="47.77186" lon="-3.60972">
        <ele>8</ele>
        <time>2020-06-07T13:28:44Z</time>
      </trkpt>
      <trkpt lat="47.77185" lon="-3.60972">
        <ele>8</ele>
        <time>2020-06-07T13:28:45Z</time>
      </trkpt>
      <trkpt lat="47.77184" lon="-3.60972">
        <ele>8</ele>
        <time>2020-06-07T13:28:46Z</time>
      </trkpt>
      <trkpt lat="47.77184" lon="-3.60972">
        <ele>8</ele>
        <time>2020-06-07T13:28:47Z</time>
      </trkpt>
      <trkpt lat="47.77184" lon="-3.60972">
        <ele>8</ele>
        <time>2020-06-07T13:28:48Z</time>
      </trkpt>
      <trkpt lat="47.77184" lon="-3.60972">
        <ele>8</ele>
        <time>2020-06-07T13:28:49Z</time>
      </trkpt>
      <trkpt lat="47.77184" lon="-3.6097">
        <ele>8</ele>
        <time>2020-06-07T13:28:50Z</time>
      </trkpt>
      <trkpt lat="47.77184" lon="-3.60969">
        <ele>8</ele>
        <time>2020-06-07T13:28:51Z</time>
      </trkpt>
      <trkpt lat="47.77184" lon="-3.60969">
        <ele>8</ele>
        <time>2020-06-07T13:28:52Z</time>
      </trkpt>
      <trkpt lat="47.77184" lon="-3.60969">
        <ele>8</ele>
        <time>2020-06-07T13:28:53Z</time>
      </trkpt>
      <trkpt lat="47.77184" lon="-3.60968">
        <ele>8</ele>
        <time>2020-06-07T13:28:54Z</time>
      </trkpt>
      <trkpt lat="47.77184" lon="-3.60968">
        <ele>8</ele>
        <time>2020-06-07T13:28:55Z</time>
      </trkpt>
      <trkpt lat="47.77184" lon="-3.60968">
        <ele>8</ele>
        <time>2020-06-07T13:28:56Z</time>
      </trkpt>
      <trkpt lat="47.77191" lon="-3.60969">
        <ele>8</ele>
        <time>2020-06-07T13:29:20Z</time>
      </trkpt>
      <trkpt lat="47.77192" lon="-3.60969">
        <ele>8</ele>
        <time>2020-06-07T13:29:21Z</time>
      </trkpt>
      <trkpt lat="47.77193" lon="-3.60969">
        <ele>8</ele>
        <time>2020-06-07T13:29:22Z</time>
      </trkpt>
      <trkpt lat="47.77195" lon="-3.60968">
        <ele>8</ele>
        <time>2020-06-07T13:29:23Z</time>
      </trkpt>
      <trkpt lat="47.77196" lon="-3.60967">
        <ele>8</ele>
        <time>2020-06-07T13:29:24Z</time>
      </trkpt>
      <trkpt lat="47.77197" lon="-3.60967">
        <ele>8</ele>
        <time>2020-06-07T13:29:25Z</time>
      </trkpt>
      <trkpt lat="47.772" lon="-3.60967">
        <ele>8</ele>
        <time>2020-06-07T13:29:26Z</time>
      </trkpt>
      <trkpt lat="47.77201" lon="-3.60966">
        <ele>8</ele>
        <time>2020-06-07T13:29:27Z</time>
      </trkpt>
      <trkpt lat="47.77205" lon="-3.60966">
        <ele>8</ele>
        <time>2020-06-07T13:29:28Z</time>
      </trkpt>
      <trkpt lat="47.77206" lon="-3.60966">
        <ele>8</ele>
        <time>2020-06-07T13:29:29Z</time>
      </trkpt>
      <trkpt lat="47.77209" lon="-3.60966">
        <ele>8</ele>
        <time>2020-06-07T13:29:30Z</time>
      </trkpt>
      <trkpt lat="47.77211" lon="-3.60966">
        <ele>8</ele>
        <time>2020-06-07T13:29:31Z</time>
      </trkpt>
      <trkpt lat="47.77215" lon="-3.60967">
        <ele>7.9</ele>
        <time>2020-06-07T13:29:32Z</time>
      </trkpt>
      <trkpt lat="47.77216" lon="-3.60968">
        <ele>7.9</ele>
        <time>2020-06-07T13:29:33Z</time>
      </trkpt>
      <trkpt lat="47.77219" lon="-3.60971">
        <ele>7.9</ele>
        <time>2020-06-07T13:29:34Z</time>
      </trkpt>
      <trkpt lat="47.77222" lon="-3.60973">
        <ele>7.9</ele>
        <time>2020-06-07T13:29:35Z</time>
      </trkpt>
      <trkpt lat="47.77223" lon="-3.60974">
        <ele>6.5</ele>
        <time>2020-06-07T13:29:36Z</time>
      </trkpt>
      <trkpt lat="47.77226" lon="-3.60975">
        <ele>6.6</ele>
        <time>2020-06-07T13:29:37Z</time>
      </trkpt>
      <trkpt lat="47.77227" lon="-3.60975">
        <ele>6.6</ele>
        <time>2020-06-07T13:29:38Z</time>
      </trkpt>
      <trkpt lat="47.7723" lon="-3.60978">
        <ele>6.7</ele>
        <time>2020-06-07T13:29:39Z</time>
      </trkpt>
      <trkpt lat="47.77231" lon="-3.60979">
        <ele>6.7</ele>
        <time>2020-06-07T13:29:40Z</time>
      </trkpt>
      <trkpt lat="47.77234" lon="-3.60982">
        <ele>6.8</ele>
        <time>2020-06-07T13:29:41Z</time>
      </trkpt>
      <trkpt lat="47.77235" lon="-3.60982">
        <ele>6.9</ele>
        <time>2020-06-07T13:29:42Z</time>
      </trkpt>
      <trkpt lat="47.77238" lon="-3.60983">
        <ele>7</ele>
        <time>2020-06-07T13:29:43Z</time>
      </trkpt>
      <trkpt lat="47.77239" lon="-3.60984">
        <ele>7</ele>
        <time>2020-06-07T13:29:44Z</time>
      </trkpt>
      <trkpt lat="47.77243" lon="-3.60985">
        <ele>7.2</ele>
        <time>2020-06-07T13:29:45Z</time>
      </trkpt>
      <trkpt lat="47.77244" lon="-3.60986">
        <ele>7.3</ele>
        <time>2020-06-07T13:29:46Z</time>
      </trkpt>
      <trkpt lat="47.77245" lon="-3.60985">
        <ele>7.3</ele>
        <time>2020-06-07T13:29:47Z</time>
      </trkpt>
      <trkpt lat="47.77247" lon="-3.60985">
        <ele>7.4</ele>
        <time>2020-06-07T13:29:48Z</time>
      </trkpt>
      <trkpt lat="47.77249" lon="-3.60984">
        <ele>7.5</ele>
        <time>2020-06-07T13:29:49Z</time>
      </trkpt>
      <trkpt lat="47.7725" lon="-3.60983">
        <ele>7.5</ele>
        <time>2020-06-07T13:29:50Z</time>
      </trkpt>
      <trkpt lat="47.77253" lon="-3.60983">
        <ele>7.7</ele>
        <time>2020-06-07T13:29:51Z</time>
      </trkpt>
      <trkpt lat="47.77254" lon="-3.60983">
        <ele>7.7</ele>
        <time>2020-06-07T13:29:52Z</time>
      </trkpt>
      <trkpt lat="47.77258" lon="-3.60982">
        <ele>8</ele>
        <time>2020-06-07T13:29:53Z</time>
      </trkpt>
      <trkpt lat="47.7726" lon="-3.60982">
        <ele>8.1</ele>
        <time>2020-06-07T13:29:54Z</time>
      </trkpt>
      <trkpt lat="47.77262" lon="-3.60981">
        <ele>8.4</ele>
        <time>2020-06-07T13:29:55Z</time>
      </trkpt>
      <trkpt lat="47.77263" lon="-3.60981">
        <ele>8.4</ele>
        <time>2020-06-07T13:29:56Z</time>
      </trkpt>
      <trkpt lat="47.77267" lon="-3.60982">
        <ele>8.7</ele>
        <time>2020-06-07T13:29:57Z</time>
      </trkpt>
      <trkpt lat="47.77268" lon="-3.60982">
        <ele>8.8</ele>
        <time>2020-06-07T13:29:58Z</time>
      </trkpt>
      <trkpt lat="47.77272" lon="-3.60981">
        <ele>9.1</ele>
        <time>2020-06-07T13:29:59Z</time>
      </trkpt>
      <trkpt lat="47.77273" lon="-3.60981">
        <ele>9.2</ele>
        <time>2020-06-07T13:30:00Z</time>
      </trkpt>
      <trkpt lat="47.77276" lon="-3.60981">
        <ele>9.5</ele>
        <time>2020-06-07T13:30:01Z</time>
      </trkpt>
      <trkpt lat="47.77277" lon="-3.60981">
        <ele>9.6</ele>
        <time>2020-06-07T13:30:02Z</time>
      </trkpt>
      <trkpt lat="47.7728" lon="-3.60983">
        <ele>9.9</ele>
        <time>2020-06-07T13:30:03Z</time>
      </trkpt>
      <trkpt lat="47.77281" lon="-3.60984">
        <ele>10</ele>
        <time>2020-06-07T13:30:04Z</time>
      </trkpt>
      <trkpt lat="47.77285" lon="-3.60987">
        <ele>10.3</ele>
        <time>2020-06-07T13:30:05Z</time>
      </trkpt>
      <trkpt lat="47.77286" lon="-3.60988">
        <ele>10.4</ele>
        <time>2020-06-07T13:30:06Z</time>
      </trkpt>
      <trkpt lat="47.77288" lon="-3.60992">
        <ele>10.8</ele>
        <time>2020-06-07T13:30:07Z</time>
      </trkpt>
      <trkpt lat="47.77289" lon="-3.60996">
        <ele>11</ele>
        <time>2020-06-07T13:30:08Z</time>
      </trkpt>
      <trkpt lat="47.7729" lon="-3.60998">
        <ele>11.1</ele>
        <time>2020-06-07T13:30:09Z</time>
      </trkpt>
      <trkpt lat="47.7729" lon="-3.61">
        <ele>11.1</ele>
        <time>2020-06-07T13:30:10Z</time>
      </trkpt>
      <trkpt lat="47.7729" lon="-3.61003">
        <ele>11.2</ele>
        <time>2020-06-07T13:30:11Z</time>
      </trkpt>
      <trkpt lat="47.7729" lon="-3.61008">
        <ele>11.7</ele>
        <time>2020-06-07T13:30:12Z</time>
      </trkpt>
      <trkpt lat="47.7729" lon="-3.61009">
        <ele>11.8</ele>
        <time>2020-06-07T13:30:13Z</time>
      </trkpt>
      <trkpt lat="47.7729" lon="-3.61013">
        <ele>12.1</ele>
        <time>2020-06-07T13:30:14Z</time>
      </trkpt>
      <trkpt lat="47.77289" lon="-3.61014">
        <ele>12.2</ele>
        <time>2020-06-07T13:30:15Z</time>
      </trkpt>
      <trkpt lat="47.7729" lon="-3.61019">
        <ele>12.6</ele>
        <time>2020-06-07T13:30:16Z</time>
      </trkpt>
      <trkpt lat="47.7729" lon="-3.6102">
        <ele>12.9</ele>
        <time>2020-06-07T13:30:17Z</time>
      </trkpt>
      <trkpt lat="47.77291" lon="-3.61022">
        <ele>13</ele>
        <time>2020-06-07T13:30:18Z</time>
      </trkpt>
      <trkpt lat="47.77291" lon="-3.61024">
        <ele>13.1</ele>
        <time>2020-06-07T13:30:19Z</time>
      </trkpt>
      <trkpt lat="47.77292" lon="-3.61027">
        <ele>13.2</ele>
        <time>2020-06-07T13:30:20Z</time>
      </trkpt>
      <trkpt lat="47.77292" lon="-3.6103">
        <ele>13.3</ele>
        <time>2020-06-07T13:30:21Z</time>
      </trkpt>
      <trkpt lat="47.77292" lon="-3.61032">
        <ele>13.4</ele>
        <time>2020-06-07T13:30:22Z</time>
      </trkpt>
      <trkpt lat="47.77292" lon="-3.61034">
        <ele>13.5</ele>
        <time>2020-06-07T13:30:23Z</time>
      </trkpt>
      <trkpt lat="47.77292" lon="-3.61037">
        <ele>13.6</ele>
        <time>2020-06-07T13:30:24Z</time>
      </trkpt>
      <trkpt lat="47.77293" lon="-3.61039">
        <ele>13.7</ele>
        <time>2020-06-07T13:30:25Z</time>
      </trkpt>
      <trkpt lat="47.77294" lon="-3.61042">
        <ele>13.8</ele>
        <time>2020-06-07T13:30:26Z</time>
      </trkpt>
      <trkpt lat="47.77294" lon="-3.61044">
        <ele>13.9</ele>
        <time>2020-06-07T13:30:27Z</time>
      </trkpt>
      <trkpt lat="47.77294" lon="-3.61048">
        <ele>14</ele>
        <time>2020-06-07T13:30:28Z</time>
      </trkpt>
      <trkpt lat="47.77294" lon="-3.6105">
        <ele>14.3</ele>
        <time>2020-06-07T13:30:29Z</time>
      </trkpt>
      <trkpt lat="47.77294" lon="-3.61055">
        <ele>14.7</ele>
        <time>2020-06-07T13:30:30Z</time>
      </trkpt>
      <trkpt lat="47.77294" lon="-3.61056">
        <ele>14.9</ele>
        <time>2020-06-07T13:30:31Z</time>
      </trkpt>
      <trkpt lat="47.77294" lon="-3.61058">
        <ele>15.1</ele>
        <time>2020-06-07T13:30:32Z</time>
      </trkpt>
      <trkpt lat="47.77294" lon="-3.61062">
        <ele>15.4</ele>
        <time>2020-06-07T13:30:33Z</time>
      </trkpt>
      <trkpt lat="47.77294" lon="-3.61066">
        <ele>15.9</ele>
        <time>2020-06-07T13:30:34Z</time>
      </trkpt>
      <trkpt lat="47.77294" lon="-3.61068">
        <ele>16</ele>
        <time>2020-06-07T13:30:35Z</time>
      </trkpt>
      <trkpt lat="47.77292" lon="-3.61073">
        <ele>16.5</ele>
        <time>2020-06-07T13:30:36Z</time>
      </trkpt>
      <trkpt lat="47.77292" lon="-3.61074">
        <ele>16.7</ele>
        <time>2020-06-07T13:30:37Z</time>
      </trkpt>
      <trkpt lat="47.77291" lon="-3.61079">
        <ele>17.1</ele>
        <time>2020-06-07T13:30:38Z</time>
      </trkpt>
      <trkpt lat="47.77291" lon="-3.61081">
        <ele>17.3</ele>
        <time>2020-06-07T13:30:39Z</time>
      </trkpt>
      <trkpt lat="47.77289" lon="-3.61086">
        <ele>17.7</ele>
        <time>2020-06-07T13:30:40Z</time>
      </trkpt>
      <trkpt lat="47.77289" lon="-3.61087">
        <ele>17.8</ele>
        <time>2020-06-07T13:30:41Z</time>
      </trkpt>
      <trkpt lat="47.77288" lon="-3.61089">
        <ele>18</ele>
        <time>2020-06-07T13:30:42Z</time>
      </trkpt>
      <trkpt lat="47.77287" lon="-3.61092">
        <ele>18.2</ele>
        <time>2020-06-07T13:30:43Z</time>
      </trkpt>
      <trkpt lat="47.77287" lon="-3.61096">
        <ele>18.5</ele>
        <time>2020-06-07T13:30:44Z</time>
      </trkpt>
      <trkpt lat="47.77287" lon="-3.61097">
        <ele>18.7</ele>
        <time>2020-06-07T13:30:45Z</time>
      </trkpt>
      <trkpt lat="47.77287" lon="-3.61101">
        <ele>19</ele>
        <time>2020-06-07T13:30:46Z</time>
      </trkpt>
      <trkpt lat="47.77287" lon="-3.61107">
        <ele>19.4</ele>
        <time>2020-06-07T13:30:47Z</time>
      </trkpt>
      <trkpt lat="47.77287" lon="-3.61109">
        <ele>19.5</ele>
        <time>2020-06-07T13:30:48Z</time>
      </trkpt>
      <trkpt lat="47.77287" lon="-3.61114">
        <ele>19.9</ele>
        <time>2020-06-07T13:30:49Z</time>
      </trkpt>
      <trkpt lat="47.77287" lon="-3.61116">
        <ele>20</ele>
        <time>2020-06-07T13:30:50Z</time>
      </trkpt>
      <trkpt lat="47.77288" lon="-3.61121">
        <ele>20.4</ele>
        <time>2020-06-07T13:30:51Z</time>
      </trkpt>
      <trkpt lat="47.77288" lon="-3.61123">
        <ele>20.5</ele>
        <time>2020-06-07T13:30:52Z</time>
      </trkpt>
      <trkpt lat="47.77288" lon="-3.61128">
        <ele>20.8</ele>
        <time>2020-06-07T13:30:53Z</time>
      </trkpt>
      <trkpt lat="47.77288" lon="-3.6113">
        <ele>20.9</ele>
        <time>2020-06-07T13:30:54Z</time>
      </trkpt>
      <trkpt lat="47.77288" lon="-3.61135">
        <ele>21.1</ele>
        <time>2020-06-07T13:30:55Z</time>
      </trkpt>
      <trkpt lat="47.77288" lon="-3.61136">
        <ele>21.2</ele>
        <time>2020-06-07T13:30:56Z</time>
      </trkpt>
      <trkpt lat="47.77289" lon="-3.6114">
        <ele>21.3</ele>
        <time>2020-06-07T13:30:57Z</time>
      </trkpt>
      <trkpt lat="47.7729" lon="-3.61144">
        <ele>21.5</ele>
        <time>2020-06-07T13:30:58Z</time>
      </trkpt>
      <trkpt lat="47.77292" lon="-3.61148">
        <ele>21.6</ele>
        <time>2020-06-07T13:30:59Z</time>
      </trkpt>
      <trkpt lat="47.77293" lon="-3.61149">
        <ele>21.7</ele>
        <time>2020-06-07T13:31:00Z</time>
      </trkpt>
      <trkpt lat="47.77296" lon="-3.61153">
        <ele>21.8</ele>
        <time>2020-06-07T13:31:01Z</time>
      </trkpt>
      <trkpt lat="47.77297" lon="-3.61154">
        <ele>21.8</ele>
        <time>2020-06-07T13:31:02Z</time>
      </trkpt>
      <trkpt lat="47.773" lon="-3.61157">
        <ele>21.8</ele>
        <time>2020-06-07T13:31:03Z</time>
      </trkpt>
      <trkpt lat="47.773" lon="-3.61158">
        <ele>21.9</ele>
        <time>2020-06-07T13:31:04Z</time>
      </trkpt>
      <trkpt lat="47.77303" lon="-3.6116">
        <ele>21.9</ele>
        <time>2020-06-07T13:31:05Z</time>
      </trkpt>
      <trkpt lat="47.77304" lon="-3.61161">
        <ele>21.9</ele>
        <time>2020-06-07T13:31:06Z</time>
      </trkpt>
      <trkpt lat="47.77308" lon="-3.61162">
        <ele>21.9</ele>
        <time>2020-06-07T13:31:07Z</time>
      </trkpt>
      <trkpt lat="47.77309" lon="-3.61162">
        <ele>22</ele>
        <time>2020-06-07T13:31:08Z</time>
      </trkpt>
      <trkpt lat="47.77312" lon="-3.61164">
        <ele>22</ele>
        <time>2020-06-07T13:31:09Z</time>
      </trkpt>
      <trkpt lat="47.77312" lon="-3.61164">
        <ele>22</ele>
        <time>2020-06-07T13:31:10Z</time>
      </trkpt>
      <trkpt lat="47.77316" lon="-3.61167">
        <ele>22.1</ele>
        <time>2020-06-07T13:31:11Z</time>
      </trkpt>
      <trkpt lat="47.77317" lon="-3.61169">
        <ele>22.1</ele>
        <time>2020-06-07T13:31:12Z</time>
      </trkpt>
      <trkpt lat="47.7732" lon="-3.61172">
        <ele>22.1</ele>
        <time>2020-06-07T13:31:13Z</time>
      </trkpt>
      <trkpt lat="47.77321" lon="-3.61173">
        <ele>22.1</ele>
        <time>2020-06-07T13:31:14Z</time>
      </trkpt>
      <trkpt lat="47.77324" lon="-3.61175">
        <ele>22.1</ele>
        <time>2020-06-07T13:31:15Z</time>
      </trkpt>
      <trkpt lat="47.77327" lon="-3.61178">
        <ele>22.1</ele>
        <time>2020-06-07T13:31:16Z</time>
      </trkpt>
      <trkpt lat="47.77329" lon="-3.6118">
        <ele>22.2</ele>
        <time>2020-06-07T13:31:17Z</time>
      </trkpt>
      <trkpt lat="47.77332" lon="-3.61183">
        <ele>22.2</ele>
        <time>2020-06-07T13:31:18Z</time>
      </trkpt>
      <trkpt lat="47.77335" lon="-3.61185">
        <ele>22.2</ele>
        <time>2020-06-07T13:31:19Z</time>
      </trkpt>
      <trkpt lat="47.77338" lon="-3.61187">
        <ele>22.2</ele>
        <time>2020-06-07T13:31:20Z</time>
      </trkpt>
      <trkpt lat="47.77341" lon="-3.61189">
        <ele>22.2</ele>
        <time>2020-06-07T13:31:21Z</time>
      </trkpt>
      <trkpt lat="47.77343" lon="-3.61192">
        <ele>22.2</ele>
        <time>2020-06-07T13:31:22Z</time>
      </trkpt>
      <trkpt lat="47.77346" lon="-3.61193">
        <ele>22.2</ele>
        <time>2020-06-07T13:31:23Z</time>
      </trkpt>
      <trkpt lat="47.77349" lon="-3.61194">
        <ele>22.2</ele>
        <time>2020-06-07T13:31:24Z</time>
      </trkpt>
      <trkpt lat="47.77353" lon="-3.61196">
        <ele>22.2</ele>
        <time>2020-06-07T13:31:25Z</time>
      </trkpt>
      <trkpt lat="47.77356" lon="-3.61198">
        <ele>22.3</ele>
        <time>2020-06-07T13:31:26Z</time>
      </trkpt>
      <trkpt lat="47.7736" lon="-3.612">
        <ele>22.3</ele>
        <time>2020-06-07T13:31:27Z</time>
      </trkpt>
      <trkpt lat="47.77363" lon="-3.61202">
        <ele>22.4</ele>
        <time>2020-06-07T13:31:28Z</time>
      </trkpt>
      <trkpt lat="47.77367" lon="-3.61204">
        <ele>22.4</ele>
        <time>2020-06-07T13:31:29Z</time>
      </trkpt>
      <trkpt lat="47.77371" lon="-3.61203">
        <ele>22.5</ele>
        <time>2020-06-07T13:31:30Z</time>
      </trkpt>
      <trkpt lat="47.77374" lon="-3.61204">
        <ele>22.6</ele>
        <time>2020-06-07T13:31:31Z</time>
      </trkpt>
      <trkpt lat="47.77378" lon="-3.61204">
        <ele>22.7</ele>
        <time>2020-06-07T13:31:32Z</time>
      </trkpt>
      <trkpt lat="47.77382" lon="-3.61205">
        <ele>22.8</ele>
        <time>2020-06-07T13:31:33Z</time>
      </trkpt>
      <trkpt lat="47.77385" lon="-3.61207">
        <ele>22.9</ele>
        <time>2020-06-07T13:31:34Z</time>
      </trkpt>
      <trkpt lat="47.77389" lon="-3.61208">
        <ele>23</ele>
        <time>2020-06-07T13:31:35Z</time>
      </trkpt>
      <trkpt lat="47.77392" lon="-3.61209">
        <ele>23.1</ele>
        <time>2020-06-07T13:31:36Z</time>
      </trkpt>
      <trkpt lat="47.77395" lon="-3.6121">
        <ele>23.1</ele>
        <time>2020-06-07T13:31:37Z</time>
      </trkpt>
      <trkpt lat="47.77398" lon="-3.61211">
        <ele>23.2</ele>
        <time>2020-06-07T13:31:38Z</time>
      </trkpt>
      <trkpt lat="47.77401" lon="-3.61213">
        <ele>23.3</ele>
        <time>2020-06-07T13:31:39Z</time>
      </trkpt>
      <trkpt lat="47.77404" lon="-3.61215">
        <ele>23.4</ele>
        <time>2020-06-07T13:31:40Z</time>
      </trkpt>
      <trkpt lat="47.77406" lon="-3.61216">
        <ele>23.4</ele>
        <time>2020-06-07T13:31:41Z</time>
      </trkpt>
      <trkpt lat="47.77408" lon="-3.61218">
        <ele>23.5</ele>
        <time>2020-06-07T13:31:42Z</time>
      </trkpt>
      <trkpt lat="47.77411" lon="-3.61219">
        <ele>23.6</ele>
        <time>2020-06-07T13:31:43Z</time>
      </trkpt>
      <trkpt lat="47.77414" lon="-3.61219">
        <ele>23.7</ele>
        <time>2020-06-07T13:31:44Z</time>
      </trkpt>
      <trkpt lat="47.77417" lon="-3.6122">
        <ele>23.8</ele>
        <time>2020-06-07T13:31:45Z</time>
      </trkpt>
      <trkpt lat="47.7742" lon="-3.61221">
        <ele>23.8</ele>
        <time>2020-06-07T13:31:46Z</time>
      </trkpt>
      <trkpt lat="47.77424" lon="-3.61221">
        <ele>23.9</ele>
        <time>2020-06-07T13:31:47Z</time>
      </trkpt>
      <trkpt lat="47.77425" lon="-3.61222">
        <ele>24</ele>
        <time>2020-06-07T13:31:48Z</time>
      </trkpt>
      <trkpt lat="47.77429" lon="-3.61223">
        <ele>24</ele>
        <time>2020-06-07T13:31:49Z</time>
      </trkpt>
      <trkpt lat="47.7743" lon="-3.61224">
        <ele>24.1</ele>
        <time>2020-06-07T13:31:50Z</time>
      </trkpt>
      <trkpt lat="47.77434" lon="-3.61226">
        <ele>24.1</ele>
        <time>2020-06-07T13:31:51Z</time>
      </trkpt>
      <trkpt lat="47.77437" lon="-3.61227">
        <ele>24.2</ele>
        <time>2020-06-07T13:31:52Z</time>
      </trkpt>
      <trkpt lat="47.7744" lon="-3.6123">
        <ele>24.2</ele>
        <time>2020-06-07T13:31:53Z</time>
      </trkpt>
      <trkpt lat="47.77445" lon="-3.61233">
        <ele>24.3</ele>
        <time>2020-06-07T13:31:54Z</time>
      </trkpt>
      <trkpt lat="47.77448" lon="-3.61235">
        <ele>24.4</ele>
        <time>2020-06-07T13:31:55Z</time>
      </trkpt>
      <trkpt lat="47.77451" lon="-3.61236">
        <ele>24.4</ele>
        <time>2020-06-07T13:31:56Z</time>
      </trkpt>
      <trkpt lat="47.77454" lon="-3.61238">
        <ele>24.4</ele>
        <time>2020-06-07T13:31:57Z</time>
      </trkpt>
      <trkpt lat="47.77457" lon="-3.61239">
        <ele>24.4</ele>
        <time>2020-06-07T13:31:58Z</time>
      </trkpt>
      <trkpt lat="47.7746" lon="-3.6124">
        <ele>24.4</ele>
        <time>2020-06-07T13:31:59Z</time>
      </trkpt>
      <trkpt lat="47.77463" lon="-3.6124">
        <ele>24.4</ele>
        <time>2020-06-07T13:32:00Z</time>
      </trkpt>
      <trkpt lat="47.77466" lon="-3.6124">
        <ele>24.4</ele>
        <time>2020-06-07T13:32:01Z</time>
      </trkpt>
      <trkpt lat="47.77469" lon="-3.61239">
        <ele>24.4</ele>
        <time>2020-06-07T13:32:02Z</time>
      </trkpt>
      <trkpt lat="47.77473" lon="-3.61239">
        <ele>24.3</ele>
        <time>2020-06-07T13:32:03Z</time>
      </trkpt>
      <trkpt lat="47.77476" lon="-3.61238">
        <ele>24.3</ele>
        <time>2020-06-07T13:32:04Z</time>
      </trkpt>
      <trkpt lat="47.7748" lon="-3.61238">
        <ele>24.2</ele>
        <time>2020-06-07T13:32:05Z</time>
      </trkpt>
      <trkpt lat="47.77484" lon="-3.61238">
        <ele>24.1</ele>
        <time>2020-06-07T13:32:06Z</time>
      </trkpt>
      <trkpt lat="47.77489" lon="-3.61238">
        <ele>24</ele>
        <time>2020-06-07T13:32:07Z</time>
      </trkpt>
      <trkpt lat="47.77494" lon="-3.61239">
        <ele>23.9</ele>
        <time>2020-06-07T13:32:08Z</time>
      </trkpt>
      <trkpt lat="47.77499" lon="-3.61238">
        <ele>23.8</ele>
        <time>2020-06-07T13:32:09Z</time>
      </trkpt>
      <trkpt lat="47.77503" lon="-3.61238">
        <ele>23.6</ele>
        <time>2020-06-07T13:32:10Z</time>
      </trkpt>
      <trkpt lat="47.77507" lon="-3.61239">
        <ele>23.4</ele>
        <time>2020-06-07T13:32:11Z</time>
      </trkpt>
      <trkpt lat="47.77511" lon="-3.61239">
        <ele>23.2</ele>
        <time>2020-06-07T13:32:12Z</time>
      </trkpt>
      <trkpt lat="47.77515" lon="-3.6124">
        <ele>23</ele>
        <time>2020-06-07T13:32:13Z</time>
      </trkpt>
      <trkpt lat="47.77519" lon="-3.61241">
        <ele>22.8</ele>
        <time>2020-06-07T13:32:14Z</time>
      </trkpt>
      <trkpt lat="47.77523" lon="-3.61242">
        <ele>22.6</ele>
        <time>2020-06-07T13:32:15Z</time>
      </trkpt>
      <trkpt lat="47.77527" lon="-3.61243">
        <ele>22.3</ele>
        <time>2020-06-07T13:32:16Z</time>
      </trkpt>
      <trkpt lat="47.7753" lon="-3.61243">
        <ele>22</ele>
        <time>2020-06-07T13:32:17Z</time>
      </trkpt>
      <trkpt lat="47.77534" lon="-3.61244">
        <ele>21.8</ele>
        <time>2020-06-07T13:32:18Z</time>
      </trkpt>
      <trkpt lat="47.77538" lon="-3.61245">
        <ele>21.5</ele>
        <time>2020-06-07T13:32:19Z</time>
      </trkpt>
      <trkpt lat="47.77542" lon="-3.61245">
        <ele>21.2</ele>
        <time>2020-06-07T13:32:20Z</time>
      </trkpt>
      <trkpt lat="47.77545" lon="-3.61245">
        <ele>21</ele>
        <time>2020-06-07T13:32:21Z</time>
      </trkpt>
      <trkpt lat="47.77548" lon="-3.61247">
        <ele>20.7</ele>
        <time>2020-06-07T13:32:22Z</time>
      </trkpt>
      <trkpt lat="47.77553" lon="-3.6125">
        <ele>20.4</ele>
        <time>2020-06-07T13:32:23Z</time>
      </trkpt>
      <trkpt lat="47.77559" lon="-3.61253">
        <ele>20.1</ele>
        <time>2020-06-07T13:32:24Z</time>
      </trkpt>
      <trkpt lat="47.77563" lon="-3.61256">
        <ele>19.9</ele>
        <time>2020-06-07T13:32:25Z</time>
      </trkpt>
      <trkpt lat="47.77567" lon="-3.6126">
        <ele>19.6</ele>
        <time>2020-06-07T13:32:26Z</time>
      </trkpt>
      <trkpt lat="47.77571" lon="-3.61262">
        <ele>19.5</ele>
        <time>2020-06-07T13:32:27Z</time>
      </trkpt>
      <trkpt lat="47.77576" lon="-3.61265">
        <ele>19.4</ele>
        <time>2020-06-07T13:32:28Z</time>
      </trkpt>
      <trkpt lat="47.7758" lon="-3.61266">
        <ele>21.7</ele>
        <time>2020-06-07T13:32:29Z</time>
      </trkpt>
      <trkpt lat="47.77583" lon="-3.61268">
        <ele>21.7</ele>
        <time>2020-06-07T13:32:30Z</time>
      </trkpt>
      <trkpt lat="47.77586" lon="-3.6127">
        <ele>21.7</ele>
        <time>2020-06-07T13:32:31Z</time>
      </trkpt>
      <trkpt lat="47.77589" lon="-3.61271">
        <ele>21.7</ele>
        <time>2020-06-07T13:32:32Z</time>
      </trkpt>
      <trkpt lat="47.77592" lon="-3.61276">
        <ele>22</ele>
        <time>2020-06-07T13:32:33Z</time>
      </trkpt>
      <trkpt lat="47.77595" lon="-3.61277">
        <ele>22.2</ele>
        <time>2020-06-07T13:32:34Z</time>
      </trkpt>
      <trkpt lat="47.77597" lon="-3.61279">
        <ele>22.3</ele>
        <time>2020-06-07T13:32:35Z</time>
      </trkpt>
      <trkpt lat="47.776" lon="-3.61278">
        <ele>22.4</ele>
        <time>2020-06-07T13:32:36Z</time>
      </trkpt>
      <trkpt lat="47.77605" lon="-3.61278">
        <ele>22.6</ele>
        <time>2020-06-07T13:32:37Z</time>
      </trkpt>
      <trkpt lat="47.77606" lon="-3.61278">
        <ele>22.7</ele>
        <time>2020-06-07T13:32:38Z</time>
      </trkpt>
      <trkpt lat="47.77609" lon="-3.61278">
        <ele>22.8</ele>
        <time>2020-06-07T13:32:39Z</time>
      </trkpt>
      <trkpt lat="47.77613" lon="-3.61279">
        <ele>22.9</ele>
        <time>2020-06-07T13:32:40Z</time>
      </trkpt>
      <trkpt lat="47.77614" lon="-3.61279">
        <ele>23</ele>
        <time>2020-06-07T13:32:41Z</time>
      </trkpt>
      <trkpt lat="47.77617" lon="-3.6128">
        <ele>23.2</ele>
        <time>2020-06-07T13:32:42Z</time>
      </trkpt>
      <trkpt lat="47.77618" lon="-3.6128">
        <ele>23.2</ele>
        <time>2020-06-07T13:32:43Z</time>
      </trkpt>
      <trkpt lat="47.7762" lon="-3.61281">
        <ele>23.3</ele>
        <time>2020-06-07T13:32:44Z</time>
      </trkpt>
      <trkpt lat="47.77621" lon="-3.6128">
        <ele>23.3</ele>
        <time>2020-06-07T13:32:45Z</time>
      </trkpt>
      <trkpt lat="47.77622" lon="-3.6128">
        <ele>23.4</ele>
        <time>2020-06-07T13:32:46Z</time>
      </trkpt>
      <trkpt lat="47.77625" lon="-3.6128">
        <ele>23.5</ele>
        <time>2020-06-07T13:32:47Z</time>
      </trkpt>
      <trkpt lat="47.77626" lon="-3.6128">
        <ele>23.6</ele>
        <time>2020-06-07T13:32:48Z</time>
      </trkpt>
      <trkpt lat="47.77629" lon="-3.61281">
        <ele>23.7</ele>
        <time>2020-06-07T13:32:49Z</time>
      </trkpt>
      <trkpt lat="47.77632" lon="-3.61283">
        <ele>23.9</ele>
        <time>2020-06-07T13:32:50Z</time>
      </trkpt>
      <trkpt lat="47.77633" lon="-3.61283">
        <ele>24</ele>
        <time>2020-06-07T13:32:51Z</time>
      </trkpt>
      <trkpt lat="47.77636" lon="-3.61284">
        <ele>24.1</ele>
        <time>2020-06-07T13:32:52Z</time>
      </trkpt>
      <trkpt lat="47.77637" lon="-3.61284">
        <ele>24.2</ele>
        <time>2020-06-07T13:32:53Z</time>
      </trkpt>
      <trkpt lat="47.77638" lon="-3.61284">
        <ele>24.3</ele>
        <time>2020-06-07T13:32:54Z</time>
      </trkpt>
      <trkpt lat="47.7764" lon="-3.61285">
        <ele>24.3</ele>
        <time>2020-06-07T13:32:55Z</time>
      </trkpt>
      <trkpt lat="47.77641" lon="-3.61285">
        <ele>24.4</ele>
        <time>2020-06-07T13:32:56Z</time>
      </trkpt>
      <trkpt lat="47.77643" lon="-3.61286">
        <ele>24.5</ele>
        <time>2020-06-07T13:32:57Z</time>
      </trkpt>
      <trkpt lat="47.77646" lon="-3.61287">
        <ele>24.6</ele>
        <time>2020-06-07T13:32:58Z</time>
      </trkpt>
      <trkpt lat="47.77646" lon="-3.61287">
        <ele>24.6</ele>
        <time>2020-06-07T13:32:59Z</time>
      </trkpt>
      <trkpt lat="47.77647" lon="-3.61288">
        <ele>24.6</ele>
        <time>2020-06-07T13:33:00Z</time>
      </trkpt>
      <trkpt lat="47.77647" lon="-3.61287">
        <ele>24.7</ele>
        <time>2020-06-07T13:33:01Z</time>
      </trkpt>
      <trkpt lat="47.77647" lon="-3.61286">
        <ele>24.7</ele>
        <time>2020-06-07T13:33:02Z</time>
      </trkpt>
      <trkpt lat="47.77646" lon="-3.61286">
        <ele>24.7</ele>
        <time>2020-06-07T13:33:03Z</time>
      </trkpt>
      <trkpt lat="47.77644" lon="-3.61287">
        <ele>24.8</ele>
        <time>2020-06-07T13:33:04Z</time>
      </trkpt>
      <trkpt lat="47.77645" lon="-3.6129">
        <ele>24.9</ele>
        <time>2020-06-07T13:33:05Z</time>
      </trkpt>
      <trkpt lat="47.77646" lon="-3.61293">
        <ele>25</ele>
        <time>2020-06-07T13:33:06Z</time>
      </trkpt>
      <trkpt lat="47.77647" lon="-3.61296">
        <ele>25.1</ele>
        <time>2020-06-07T13:33:07Z</time>
      </trkpt>
      <trkpt lat="47.77649" lon="-3.61299">
        <ele>25.2</ele>
        <time>2020-06-07T13:33:08Z</time>
      </trkpt>
      <trkpt lat="47.7765" lon="-3.61302">
        <ele>25.3</ele>
        <time>2020-06-07T13:33:09Z</time>
      </trkpt>
      <trkpt lat="47.77651" lon="-3.61305">
        <ele>25.4</ele>
        <time>2020-06-07T13:33:50Z</time>
      </trkpt>
      <trkpt lat="47.77652" lon="-3.61307">
        <ele>25.5</ele>
        <time>2020-06-07T13:33:51Z</time>
      </trkpt>
      <trkpt lat="47.77655" lon="-3.6131">
        <ele>25.7</ele>
        <time>2020-06-07T13:33:52Z</time>
      </trkpt>
      <trkpt lat="47.77656" lon="-3.61311">
        <ele>25.8</ele>
        <time>2020-06-07T13:33:53Z</time>
      </trkpt>
      <trkpt lat="47.77658" lon="-3.61312">
        <ele>26</ele>
        <time>2020-06-07T13:33:54Z</time>
      </trkpt>
      <trkpt lat="47.77659" lon="-3.61313">
        <ele>26.1</ele>
        <time>2020-06-07T13:33:55Z</time>
      </trkpt>
      <trkpt lat="47.77663" lon="-3.61316">
        <ele>26.4</ele>
        <time>2020-06-07T13:33:56Z</time>
      </trkpt>
      <trkpt lat="47.77664" lon="-3.61316">
        <ele>26.5</ele>
        <time>2020-06-07T13:33:57Z</time>
      </trkpt>
      <trkpt lat="47.77667" lon="-3.61318">
        <ele>26.8</ele>
        <time>2020-06-07T13:33:58Z</time>
      </trkpt>
      <trkpt lat="47.7767" lon="-3.61321">
        <ele>27.1</ele>
        <time>2020-06-07T13:33:59Z</time>
      </trkpt>
      <trkpt lat="47.77672" lon="-3.61322">
        <ele>27.2</ele>
        <time>2020-06-07T13:34:00Z</time>
      </trkpt>
      <trkpt lat="47.77674" lon="-3.61324">
        <ele>27.5</ele>
        <time>2020-06-07T13:34:01Z</time>
      </trkpt>
      <trkpt lat="47.77677" lon="-3.61327">
        <ele>27.7</ele>
        <time>2020-06-07T13:34:02Z</time>
      </trkpt>
      <trkpt lat="47.7768" lon="-3.61329">
        <ele>28</ele>
        <time>2020-06-07T13:34:03Z</time>
      </trkpt>
      <trkpt lat="47.77684" lon="-3.61331">
        <ele>28.3</ele>
        <time>2020-06-07T13:34:04Z</time>
      </trkpt>
      <trkpt lat="47.77685" lon="-3.61332">
        <ele>28.4</ele>
        <time>2020-06-07T13:34:05Z</time>
      </trkpt>
      <trkpt lat="47.77688" lon="-3.61333">
        <ele>28.6</ele>
        <time>2020-06-07T13:34:06Z</time>
      </trkpt>
      <trkpt lat="47.77689" lon="-3.61334">
        <ele>28.7</ele>
        <time>2020-06-07T13:34:07Z</time>
      </trkpt>
      <trkpt lat="47.77692" lon="-3.61336">
        <ele>29</ele>
        <time>2020-06-07T13:34:08Z</time>
      </trkpt>
      <trkpt lat="47.77693" lon="-3.61336">
        <ele>29.1</ele>
        <time>2020-06-07T13:34:09Z</time>
      </trkpt>
      <trkpt lat="47.77696" lon="-3.61337">
        <ele>29.4</ele>
        <time>2020-06-07T13:34:10Z</time>
      </trkpt>
      <trkpt lat="47.77699" lon="-3.61338">
        <ele>29.6</ele>
        <time>2020-06-07T13:34:11Z</time>
      </trkpt>
      <trkpt lat="47.77699" lon="-3.61339">
        <ele>29.6</ele>
        <time>2020-06-07T13:34:12Z</time>
      </trkpt>
      <trkpt lat="47.777" lon="-3.61341">
        <ele>29.8</ele>
        <time>2020-06-07T13:34:13Z</time>
      </trkpt>
      <trkpt lat="47.77701" lon="-3.61342">
        <ele>29.9</ele>
        <time>2020-06-07T13:34:14Z</time>
      </trkpt>
      <trkpt lat="47.77702" lon="-3.61343">
        <ele>30</ele>
        <time>2020-06-07T13:34:15Z</time>
      </trkpt>
      <trkpt lat="47.77703" lon="-3.61344">
        <ele>30</ele>
        <time>2020-06-07T13:34:16Z</time>
      </trkpt>
      <trkpt lat="47.77704" lon="-3.61346">
        <ele>30.2</ele>
        <time>2020-06-07T13:34:17Z</time>
      </trkpt>
      <trkpt lat="47.77706" lon="-3.61349">
        <ele>30.4</ele>
        <time>2020-06-07T13:34:18Z</time>
      </trkpt>
      <trkpt lat="47.77706" lon="-3.6135">
        <ele>30.4</ele>
        <time>2020-06-07T13:34:19Z</time>
      </trkpt>
      <trkpt lat="47.77708" lon="-3.61351">
        <ele>30.5</ele>
        <time>2020-06-07T13:34:20Z</time>
      </trkpt>
      <trkpt lat="47.77709" lon="-3.61352">
        <ele>30.6</ele>
        <time>2020-06-07T13:34:21Z</time>
      </trkpt>
      <trkpt lat="47.77711" lon="-3.61351">
        <ele>30.7</ele>
        <time>2020-06-07T13:34:22Z</time>
      </trkpt>
      <trkpt lat="47.77712" lon="-3.61351">
        <ele>30.8</ele>
        <time>2020-06-07T13:34:23Z</time>
      </trkpt>
      <trkpt lat="47.77713" lon="-3.6135">
        <ele>30.8</ele>
        <time>2020-06-07T13:34:24Z</time>
      </trkpt>
      <trkpt lat="47.77714" lon="-3.61351">
        <ele>30.9</ele>
        <time>2020-06-07T13:34:25Z</time>
      </trkpt>
      <trkpt lat="47.77716" lon="-3.61352">
        <ele>31</ele>
        <time>2020-06-07T13:34:26Z</time>
      </trkpt>
      <trkpt lat="47.77718" lon="-3.61356">
        <ele>31.1</ele>
        <time>2020-06-07T13:34:27Z</time>
      </trkpt>
      <trkpt lat="47.77718" lon="-3.61357">
        <ele>31.1</ele>
        <time>2020-06-07T13:34:28Z</time>
      </trkpt>
      <trkpt lat="47.77719" lon="-3.6136">
        <ele>31.3</ele>
        <time>2020-06-07T13:34:29Z</time>
      </trkpt>
      <trkpt lat="47.7772" lon="-3.61362">
        <ele>31.3</ele>
        <time>2020-06-07T13:34:30Z</time>
      </trkpt>
      <trkpt lat="47.7772" lon="-3.61365">
        <ele>31.4</ele>
        <time>2020-06-07T13:34:31Z</time>
      </trkpt>
      <trkpt lat="47.77721" lon="-3.61367">
        <ele>31.4</ele>
        <time>2020-06-07T13:34:32Z</time>
      </trkpt>
      <trkpt lat="47.77722" lon="-3.61371">
        <ele>31.5</ele>
        <time>2020-06-07T13:34:33Z</time>
      </trkpt>
      <trkpt lat="47.77722" lon="-3.61373">
        <ele>31.5</ele>
        <time>2020-06-07T13:34:34Z</time>
      </trkpt>
      <trkpt lat="47.77724" lon="-3.61377">
        <ele>31.6</ele>
        <time>2020-06-07T13:34:35Z</time>
      </trkpt>
      <trkpt lat="47.77725" lon="-3.61382">
        <ele>31.7</ele>
        <time>2020-06-07T13:34:36Z</time>
      </trkpt>
      <trkpt lat="47.77727" lon="-3.61388">
        <ele>31.7</ele>
        <time>2020-06-07T13:34:37Z</time>
      </trkpt>
      <trkpt lat="47.77729" lon="-3.61394">
        <ele>31.7</ele>
        <time>2020-06-07T13:34:38Z</time>
      </trkpt>
      <trkpt lat="47.77731" lon="-3.61399">
        <ele>31.7</ele>
        <time>2020-06-07T13:34:39Z</time>
      </trkpt>
      <trkpt lat="47.77732" lon="-3.61404">
        <ele>31.8</ele>
        <time>2020-06-07T13:34:40Z</time>
      </trkpt>
      <trkpt lat="47.77734" lon="-3.6141">
        <ele>31.8</ele>
        <time>2020-06-07T13:34:41Z</time>
      </trkpt>
      <trkpt lat="47.77736" lon="-3.61414">
        <ele>31.8</ele>
        <time>2020-06-07T13:34:42Z</time>
      </trkpt>
      <trkpt lat="47.77738" lon="-3.61419">
        <ele>31.8</ele>
        <time>2020-06-07T13:34:43Z</time>
      </trkpt>
      <trkpt lat="47.7774" lon="-3.61423">
        <ele>31.8</ele>
        <time>2020-06-07T13:34:44Z</time>
      </trkpt>
      <trkpt lat="47.77741" lon="-3.61428">
        <ele>31.8</ele>
        <time>2020-06-07T13:34:45Z</time>
      </trkpt>
      <trkpt lat="47.77742" lon="-3.61434">
        <ele>31.9</ele>
        <time>2020-06-07T13:34:46Z</time>
      </trkpt>
      <trkpt lat="47.77743" lon="-3.61442">
        <ele>31.9</ele>
        <time>2020-06-07T13:34:47Z</time>
      </trkpt>
      <trkpt lat="47.77744" lon="-3.61449">
        <ele>31.8</ele>
        <time>2020-06-07T13:34:48Z</time>
      </trkpt>
      <trkpt lat="47.77744" lon="-3.61456">
        <ele>31.8</ele>
        <time>2020-06-07T13:34:49Z</time>
      </trkpt>
      <trkpt lat="47.77744" lon="-3.61464">
        <ele>31.8</ele>
        <time>2020-06-07T13:34:50Z</time>
      </trkpt>
      <trkpt lat="47.77744" lon="-3.61471">
        <ele>31.8</ele>
        <time>2020-06-07T13:34:51Z</time>
      </trkpt>
      <trkpt lat="47.77744" lon="-3.61479">
        <ele>31.7</ele>
        <time>2020-06-07T13:34:52Z</time>
      </trkpt>
      <trkpt lat="47.77744" lon="-3.61487">
        <ele>31.7</ele>
        <time>2020-06-07T13:34:53Z</time>
      </trkpt>
      <trkpt lat="47.77744" lon="-3.61493">
        <ele>31.7</ele>
        <time>2020-06-07T13:34:54Z</time>
      </trkpt>
      <trkpt lat="47.77744" lon="-3.61502">
        <ele>31.6</ele>
        <time>2020-06-07T13:34:55Z</time>
      </trkpt>
      <trkpt lat="47.77745" lon="-3.61509">
        <ele>31.6</ele>
        <time>2020-06-07T13:34:56Z</time>
      </trkpt>
      <trkpt lat="47.77746" lon="-3.61517">
        <ele>31.5</ele>
        <time>2020-06-07T13:34:57Z</time>
      </trkpt>
      <trkpt lat="47.77747" lon="-3.61524">
        <ele>31.4</ele>
        <time>2020-06-07T13:34:58Z</time>
      </trkpt>
      <trkpt lat="47.77748" lon="-3.61531">
        <ele>31.3</ele>
        <time>2020-06-07T13:34:59Z</time>
      </trkpt>
      <trkpt lat="47.77751" lon="-3.61539">
        <ele>31.2</ele>
        <time>2020-06-07T13:35:00Z</time>
      </trkpt>
      <trkpt lat="47.77753" lon="-3.61545">
        <ele>31.1</ele>
        <time>2020-06-07T13:35:01Z</time>
      </trkpt>
      <trkpt lat="47.77755" lon="-3.61553">
        <ele>30.9</ele>
        <time>2020-06-07T13:35:02Z</time>
      </trkpt>
      <trkpt lat="47.77758" lon="-3.6156">
        <ele>30.8</ele>
        <time>2020-06-07T13:35:03Z</time>
      </trkpt>
      <trkpt lat="47.7776" lon="-3.61568">
        <ele>30.5</ele>
        <time>2020-06-07T13:35:04Z</time>
      </trkpt>
      <trkpt lat="47.77763" lon="-3.61574">
        <ele>30.4</ele>
        <time>2020-06-07T13:35:05Z</time>
      </trkpt>
      <trkpt lat="47.77766" lon="-3.61581">
        <ele>30.3</ele>
        <time>2020-06-07T13:35:06Z</time>
      </trkpt>
      <trkpt lat="47.77768" lon="-3.61589">
        <ele>30.1</ele>
        <time>2020-06-07T13:35:07Z</time>
      </trkpt>
      <trkpt lat="47.77771" lon="-3.61596">
        <ele>29.9</ele>
        <time>2020-06-07T13:35:08Z</time>
      </trkpt>
      <trkpt lat="47.77773" lon="-3.61604">
        <ele>29.7</ele>
        <time>2020-06-07T13:35:09Z</time>
      </trkpt>
      <trkpt lat="47.77775" lon="-3.61612">
        <ele>29.5</ele>
        <time>2020-06-07T13:35:10Z</time>
      </trkpt>
      <trkpt lat="47.77777" lon="-3.61622">
        <ele>29.2</ele>
        <time>2020-06-07T13:35:11Z</time>
      </trkpt>
      <trkpt lat="47.77779" lon="-3.61632">
        <ele>29</ele>
        <time>2020-06-07T13:35:12Z</time>
      </trkpt>
      <trkpt lat="47.77781" lon="-3.61641">
        <ele>28.8</ele>
        <time>2020-06-07T13:35:13Z</time>
      </trkpt>
      <trkpt lat="47.77782" lon="-3.61649">
        <ele>28.6</ele>
        <time>2020-06-07T13:35:14Z</time>
      </trkpt>
      <trkpt lat="47.77783" lon="-3.61658">
        <ele>28.4</ele>
        <time>2020-06-07T13:35:15Z</time>
      </trkpt>
      <trkpt lat="47.77785" lon="-3.61667">
        <ele>28.2</ele>
        <time>2020-06-07T13:35:16Z</time>
      </trkpt>
      <trkpt lat="47.77788" lon="-3.61675">
        <ele>28</ele>
        <time>2020-06-07T13:35:17Z</time>
      </trkpt>
      <trkpt lat="47.77791" lon="-3.61682">
        <ele>27.8</ele>
        <time>2020-06-07T13:35:18Z</time>
      </trkpt>
      <trkpt lat="47.77796" lon="-3.61691">
        <ele>27.6</ele>
        <time>2020-06-07T13:35:19Z</time>
      </trkpt>
      <trkpt lat="47.77801" lon="-3.61699">
        <ele>27.5</ele>
        <time>2020-06-07T13:35:20Z</time>
      </trkpt>
      <trkpt lat="47.77806" lon="-3.61706">
        <ele>27.3</ele>
        <time>2020-06-07T13:35:21Z</time>
      </trkpt>
      <trkpt lat="47.77812" lon="-3.61712">
        <ele>27.2</ele>
        <time>2020-06-07T13:35:22Z</time>
      </trkpt>
      <trkpt lat="47.77818" lon="-3.61718">
        <ele>27.1</ele>
        <time>2020-06-07T13:35:23Z</time>
      </trkpt>
      <trkpt lat="47.77824" lon="-3.61723">
        <ele>27.1</ele>
        <time>2020-06-07T13:35:24Z</time>
      </trkpt>
      <trkpt lat="47.7783" lon="-3.61727">
        <ele>27.1</ele>
        <time>2020-06-07T13:35:25Z</time>
      </trkpt>
      <trkpt lat="47.77837" lon="-3.61731">
        <ele>27.1</ele>
        <time>2020-06-07T13:35:26Z</time>
      </trkpt>
      <trkpt lat="47.77842" lon="-3.61735">
        <ele>27.1</ele>
        <time>2020-06-07T13:35:27Z</time>
      </trkpt>
      <trkpt lat="47.77848" lon="-3.61738">
        <ele>27.2</ele>
        <time>2020-06-07T13:35:28Z</time>
      </trkpt>
      <trkpt lat="47.77853" lon="-3.6174">
        <ele>27.2</ele>
        <time>2020-06-07T13:35:29Z</time>
      </trkpt>
      <trkpt lat="47.77859" lon="-3.6174">
        <ele>27.2</ele>
        <time>2020-06-07T13:35:30Z</time>
      </trkpt>
      <trkpt lat="47.77866" lon="-3.61739">
        <ele>27.4</ele>
        <time>2020-06-07T13:35:31Z</time>
      </trkpt>
      <trkpt lat="47.77871" lon="-3.61737">
        <ele>27.5</ele>
        <time>2020-06-07T13:35:32Z</time>
      </trkpt>
      <trkpt lat="47.77876" lon="-3.61735">
        <ele>27.7</ele>
        <time>2020-06-07T13:35:33Z</time>
      </trkpt>
      <trkpt lat="47.77882" lon="-3.61733">
        <ele>27.8</ele>
        <time>2020-06-07T13:35:34Z</time>
      </trkpt>
      <trkpt lat="47.77887" lon="-3.61731">
        <ele>28</ele>
        <time>2020-06-07T13:35:35Z</time>
      </trkpt>
      <trkpt lat="47.77893" lon="-3.61728">
        <ele>28.2</ele>
        <time>2020-06-07T13:35:36Z</time>
      </trkpt>
      <trkpt lat="47.77899" lon="-3.61726">
        <ele>28.4</ele>
        <time>2020-06-07T13:35:37Z</time>
      </trkpt>
      <trkpt lat="47.77904" lon="-3.61724">
        <ele>28.6</ele>
        <time>2020-06-07T13:35:38Z</time>
      </trkpt>
      <trkpt lat="47.7791" lon="-3.61724">
        <ele>28.8</ele>
        <time>2020-06-07T13:35:39Z</time>
      </trkpt>
      <trkpt lat="47.77914" lon="-3.61723">
        <ele>29</ele>
        <time>2020-06-07T13:35:40Z</time>
      </trkpt>
      <trkpt lat="47.77919" lon="-3.61723">
        <ele>29.2</ele>
        <time>2020-06-07T13:35:41Z</time>
      </trkpt>
      <trkpt lat="47.77925" lon="-3.61725">
        <ele>29.4</ele>
        <time>2020-06-07T13:35:42Z</time>
      </trkpt>
      <trkpt lat="47.77929" lon="-3.61728">
        <ele>29.6</ele>
        <time>2020-06-07T13:35:43Z</time>
      </trkpt>
      <trkpt lat="47.77933" lon="-3.61734">
        <ele>29.8</ele>
        <time>2020-06-07T13:35:44Z</time>
      </trkpt>
      <trkpt lat="47.77934" lon="-3.61741">
        <ele>30</ele>
        <time>2020-06-07T13:35:45Z</time>
      </trkpt>
      <trkpt lat="47.77936" lon="-3.61749">
        <ele>30.1</ele>
        <time>2020-06-07T13:35:46Z</time>
      </trkpt>
      <trkpt lat="47.77937" lon="-3.61757">
        <ele>30.3</ele>
        <time>2020-06-07T13:35:47Z</time>
      </trkpt>
      <trkpt lat="47.77938" lon="-3.61765">
        <ele>30.4</ele>
        <time>2020-06-07T13:35:48Z</time>
      </trkpt>
      <trkpt lat="47.77939" lon="-3.61771">
        <ele>30.6</ele>
        <time>2020-06-07T13:35:49Z</time>
      </trkpt>
      <trkpt lat="47.7794" lon="-3.61779">
        <ele>30.7</ele>
        <time>2020-06-07T13:35:50Z</time>
      </trkpt>
      <trkpt lat="47.7794" lon="-3.61785">
        <ele>30.9</ele>
        <time>2020-06-07T13:35:51Z</time>
      </trkpt>
      <trkpt lat="47.7794" lon="-3.61794">
        <ele>31.1</ele>
        <time>2020-06-07T13:35:52Z</time>
      </trkpt>
      <trkpt lat="47.77941" lon="-3.61803">
        <ele>31.3</ele>
        <time>2020-06-07T13:35:53Z</time>
      </trkpt>
      <trkpt lat="47.77941" lon="-3.6181">
        <ele>31.4</ele>
        <time>2020-06-07T13:35:54Z</time>
      </trkpt>
      <trkpt lat="47.77942" lon="-3.61817">
        <ele>31.6</ele>
        <time>2020-06-07T13:35:55Z</time>
      </trkpt>
      <trkpt lat="47.77945" lon="-3.61822">
        <ele>31.7</ele>
        <time>2020-06-07T13:35:56Z</time>
      </trkpt>
      <trkpt lat="47.77946" lon="-3.61829">
        <ele>31.9</ele>
        <time>2020-06-07T13:35:57Z</time>
      </trkpt>
      <trkpt lat="47.77948" lon="-3.61836">
        <ele>32</ele>
        <time>2020-06-07T13:35:58Z</time>
      </trkpt>
      <trkpt lat="47.77949" lon="-3.61843">
        <ele>32.1</ele>
        <time>2020-06-07T13:35:59Z</time>
      </trkpt>
      <trkpt lat="47.77951" lon="-3.61848">
        <ele>32.2</ele>
        <time>2020-06-07T13:36:00Z</time>
      </trkpt>
      <trkpt lat="47.77954" lon="-3.61854">
        <ele>32.3</ele>
        <time>2020-06-07T13:36:01Z</time>
      </trkpt>
      <trkpt lat="47.77956" lon="-3.6186">
        <ele>32.4</ele>
        <time>2020-06-07T13:36:02Z</time>
      </trkpt>
      <trkpt lat="47.77959" lon="-3.61866">
        <ele>32.6</ele>
        <time>2020-06-07T13:36:03Z</time>
      </trkpt>
      <trkpt lat="47.77961" lon="-3.61872">
        <ele>32.7</ele>
        <time>2020-06-07T13:36:04Z</time>
      </trkpt>
      <trkpt lat="47.77963" lon="-3.61877">
        <ele>32.8</ele>
        <time>2020-06-07T13:36:05Z</time>
      </trkpt>
      <trkpt lat="47.77965" lon="-3.61882">
        <ele>32.9</ele>
        <time>2020-06-07T13:36:06Z</time>
      </trkpt>
      <trkpt lat="47.77968" lon="-3.61887">
        <ele>33</ele>
        <time>2020-06-07T13:36:07Z</time>
      </trkpt>
      <trkpt lat="47.77971" lon="-3.61893">
        <ele>33.1</ele>
        <time>2020-06-07T13:36:08Z</time>
      </trkpt>
      <trkpt lat="47.77974" lon="-3.61898">
        <ele>33.2</ele>
        <time>2020-06-07T13:36:09Z</time>
      </trkpt>
      <trkpt lat="47.77977" lon="-3.61904">
        <ele>33.3</ele>
        <time>2020-06-07T13:36:10Z</time>
      </trkpt>
      <trkpt lat="47.77979" lon="-3.61908">
        <ele>33.4</ele>
        <time>2020-06-07T13:36:11Z</time>
      </trkpt>
      <trkpt lat="47.77982" lon="-3.61914">
        <ele>33.5</ele>
        <time>2020-06-07T13:36:12Z</time>
      </trkpt>
      <trkpt lat="47.77984" lon="-3.6192">
        <ele>33.6</ele>
        <time>2020-06-07T13:36:13Z</time>
      </trkpt>
      <trkpt lat="47.77986" lon="-3.61925">
        <ele>33.7</ele>
        <time>2020-06-07T13:36:14Z</time>
      </trkpt>
      <trkpt lat="47.77988" lon="-3.6193">
        <ele>33.7</ele>
        <time>2020-06-07T13:36:15Z</time>
      </trkpt>
      <trkpt lat="47.77991" lon="-3.61935">
        <ele>33.8</ele>
        <time>2020-06-07T13:36:16Z</time>
      </trkpt>
      <trkpt lat="47.77993" lon="-3.6194">
        <ele>33.9</ele>
        <time>2020-06-07T13:36:17Z</time>
      </trkpt>
      <trkpt lat="47.77996" lon="-3.61946">
        <ele>34.1</ele>
        <time>2020-06-07T13:36:18Z</time>
      </trkpt>
      <trkpt lat="47.77998" lon="-3.61952">
        <ele>34.2</ele>
        <time>2020-06-07T13:36:19Z</time>
      </trkpt>
      <trkpt lat="47.78" lon="-3.61956">
        <ele>34.3</ele>
        <time>2020-06-07T13:36:20Z</time>
      </trkpt>
      <trkpt lat="47.78003" lon="-3.61961">
        <ele>34.4</ele>
        <time>2020-06-07T13:36:21Z</time>
      </trkpt>
      <trkpt lat="47.78005" lon="-3.61966">
        <ele>34.5</ele>
        <time>2020-06-07T13:36:22Z</time>
      </trkpt>
      <trkpt lat="47.78008" lon="-3.61971">
        <ele>34.5</ele>
        <time>2020-06-07T13:36:23Z</time>
      </trkpt>
      <trkpt lat="47.78011" lon="-3.61975">
        <ele>34.6</ele>
        <time>2020-06-07T13:36:24Z</time>
      </trkpt>
      <trkpt lat="47.78013" lon="-3.61979">
        <ele>34.7</ele>
        <time>2020-06-07T13:36:25Z</time>
      </trkpt>
      <trkpt lat="47.78017" lon="-3.61985">
        <ele>34.7</ele>
        <time>2020-06-07T13:36:26Z</time>
      </trkpt>
      <trkpt lat="47.7802" lon="-3.61989">
        <ele>34.8</ele>
        <time>2020-06-07T13:36:27Z</time>
      </trkpt>
      <trkpt lat="47.78023" lon="-3.61995">
        <ele>35</ele>
        <time>2020-06-07T13:36:28Z</time>
      </trkpt>
      <trkpt lat="47.78026" lon="-3.62">
        <ele>35</ele>
        <time>2020-06-07T13:36:29Z</time>
      </trkpt>
      <trkpt lat="47.78029" lon="-3.62005">
        <ele>35.1</ele>
        <time>2020-06-07T13:36:30Z</time>
      </trkpt>
      <trkpt lat="47.78033" lon="-3.62011">
        <ele>35.2</ele>
        <time>2020-06-07T13:36:31Z</time>
      </trkpt>
      <trkpt lat="47.78037" lon="-3.62017">
        <ele>35.3</ele>
        <time>2020-06-07T13:36:32Z</time>
      </trkpt>
      <trkpt lat="47.78039" lon="-3.62021">
        <ele>35.4</ele>
        <time>2020-06-07T13:36:33Z</time>
      </trkpt>
      <trkpt lat="47.78042" lon="-3.62026">
        <ele>35.4</ele>
        <time>2020-06-07T13:36:34Z</time>
      </trkpt>
      <trkpt lat="47.78045" lon="-3.62031">
        <ele>35.5</ele>
        <time>2020-06-07T13:36:35Z</time>
      </trkpt>
      <trkpt lat="47.78047" lon="-3.62034">
        <ele>35.6</ele>
        <time>2020-06-07T13:36:36Z</time>
      </trkpt>
      <trkpt lat="47.7805" lon="-3.62039">
        <ele>35.6</ele>
        <time>2020-06-07T13:36:37Z</time>
      </trkpt>
      <trkpt lat="47.78053" lon="-3.62043">
        <ele>35.7</ele>
        <time>2020-06-07T13:36:38Z</time>
      </trkpt>
      <trkpt lat="47.78055" lon="-3.62048">
        <ele>35.8</ele>
        <time>2020-06-07T13:36:39Z</time>
      </trkpt>
      <trkpt lat="47.78056" lon="-3.6205">
        <ele>35.8</ele>
        <time>2020-06-07T13:36:40Z</time>
      </trkpt>
      <trkpt lat="47.78058" lon="-3.62054">
        <ele>35.9</ele>
        <time>2020-06-07T13:36:41Z</time>
      </trkpt>
      <trkpt lat="47.78061" lon="-3.62059">
        <ele>35.9</ele>
        <time>2020-06-07T13:36:42Z</time>
      </trkpt>
      <trkpt lat="47.78063" lon="-3.62064">
        <ele>36</ele>
        <time>2020-06-07T13:36:43Z</time>
      </trkpt>
      <trkpt lat="47.78066" lon="-3.6207">
        <ele>36</ele>
        <time>2020-06-07T13:36:44Z</time>
      </trkpt>
      <trkpt lat="47.78067" lon="-3.62075">
        <ele>36</ele>
        <time>2020-06-07T13:36:45Z</time>
      </trkpt>
      <trkpt lat="47.78069" lon="-3.62082">
        <ele>36</ele>
        <time>2020-06-07T13:36:46Z</time>
      </trkpt>
      <trkpt lat="47.7807" lon="-3.62089">
        <ele>35.9</ele>
        <time>2020-06-07T13:36:47Z</time>
      </trkpt>
      <trkpt lat="47.78071" lon="-3.62097">
        <ele>35.9</ele>
        <time>2020-06-07T13:36:48Z</time>
      </trkpt>
      <trkpt lat="47.78072" lon="-3.62104">
        <ele>35.8</ele>
        <time>2020-06-07T13:36:49Z</time>
      </trkpt>
      <trkpt lat="47.78072" lon="-3.62111">
        <ele>35.8</ele>
        <time>2020-06-07T13:36:50Z</time>
      </trkpt>
      <trkpt lat="47.78073" lon="-3.62118">
        <ele>35.8</ele>
        <time>2020-06-07T13:36:51Z</time>
      </trkpt>
      <trkpt lat="47.78074" lon="-3.62126">
        <ele>35.8</ele>
        <time>2020-06-07T13:36:52Z</time>
      </trkpt>
      <trkpt lat="47.78074" lon="-3.62133">
        <ele>35.7</ele>
        <time>2020-06-07T13:36:53Z</time>
      </trkpt>
      <trkpt lat="47.78074" lon="-3.6214">
        <ele>35.7</ele>
        <time>2020-06-07T13:36:54Z</time>
      </trkpt>
      <trkpt lat="47.78074" lon="-3.62148">
        <ele>35.6</ele>
        <time>2020-06-07T13:36:55Z</time>
      </trkpt>
      <trkpt lat="47.78073" lon="-3.62157">
        <ele>35.5</ele>
        <time>2020-06-07T13:36:56Z</time>
      </trkpt>
      <trkpt lat="47.78073" lon="-3.62167">
        <ele>35.4</ele>
        <time>2020-06-07T13:36:57Z</time>
      </trkpt>
      <trkpt lat="47.78073" lon="-3.62175">
        <ele>35.2</ele>
        <time>2020-06-07T13:36:58Z</time>
      </trkpt>
      <trkpt lat="47.78074" lon="-3.62182">
        <ele>35.1</ele>
        <time>2020-06-07T13:36:59Z</time>
      </trkpt>
      <trkpt lat="47.78074" lon="-3.62189">
        <ele>34.9</ele>
        <time>2020-06-07T13:37:00Z</time>
      </trkpt>
      <trkpt lat="47.78075" lon="-3.62198">
        <ele>34.7</ele>
        <time>2020-06-07T13:37:01Z</time>
      </trkpt>
      <trkpt lat="47.78076" lon="-3.62206">
        <ele>34.5</ele>
        <time>2020-06-07T13:37:02Z</time>
      </trkpt>
      <trkpt lat="47.78076" lon="-3.62214">
        <ele>34.3</ele>
        <time>2020-06-07T13:37:03Z</time>
      </trkpt>
      <trkpt lat="47.78076" lon="-3.62222">
        <ele>34.1</ele>
        <time>2020-06-07T13:37:04Z</time>
      </trkpt>
      <trkpt lat="47.78077" lon="-3.6223">
        <ele>34</ele>
        <time>2020-06-07T13:37:05Z</time>
      </trkpt>
      <trkpt lat="47.78077" lon="-3.62238">
        <ele>33.8</ele>
        <time>2020-06-07T13:37:06Z</time>
      </trkpt>
      <trkpt lat="47.78077" lon="-3.62243">
        <ele>33.6</ele>
        <time>2020-06-07T13:37:07Z</time>
      </trkpt>
      <trkpt lat="47.78077" lon="-3.62249">
        <ele>33.5</ele>
        <time>2020-06-07T13:37:08Z</time>
      </trkpt>
      <trkpt lat="47.78077" lon="-3.62255">
        <ele>33.4</ele>
        <time>2020-06-07T13:37:09Z</time>
      </trkpt>
      <trkpt lat="47.78078" lon="-3.62262">
        <ele>33.2</ele>
        <time>2020-06-07T13:37:10Z</time>
      </trkpt>
      <trkpt lat="47.78078" lon="-3.62269">
        <ele>33</ele>
        <time>2020-06-07T13:37:11Z</time>
      </trkpt>
      <trkpt lat="47.78078" lon="-3.62278">
        <ele>32.7</ele>
        <time>2020-06-07T13:37:12Z</time>
      </trkpt>
      <trkpt lat="47.78078" lon="-3.6229">
        <ele>32.3</ele>
        <time>2020-06-07T13:37:13Z</time>
      </trkpt>
      <trkpt lat="47.78078" lon="-3.62299">
        <ele>32.1</ele>
        <time>2020-06-07T13:37:14Z</time>
      </trkpt>
      <trkpt lat="47.78078" lon="-3.62307">
        <ele>31.8</ele>
        <time>2020-06-07T13:37:15Z</time>
      </trkpt>
      <trkpt lat="47.78077" lon="-3.62314">
        <ele>31.6</ele>
        <time>2020-06-07T13:37:16Z</time>
      </trkpt>
      <trkpt lat="47.78077" lon="-3.62322">
        <ele>31.4</ele>
        <time>2020-06-07T13:37:17Z</time>
      </trkpt>
      <trkpt lat="47.78077" lon="-3.62331">
        <ele>31.2</ele>
        <time>2020-06-07T13:37:18Z</time>
      </trkpt>
      <trkpt lat="47.78076" lon="-3.62338">
        <ele>31</ele>
        <time>2020-06-07T13:37:19Z</time>
      </trkpt>
      <trkpt lat="47.78075" lon="-3.62347">
        <ele>30.7</ele>
        <time>2020-06-07T13:37:20Z</time>
      </trkpt>
      <trkpt lat="47.78074" lon="-3.62356">
        <ele>30.4</ele>
        <time>2020-06-07T13:37:21Z</time>
      </trkpt>
      <trkpt lat="47.78073" lon="-3.62365">
        <ele>30.1</ele>
        <time>2020-06-07T13:37:22Z</time>
      </trkpt>
      <trkpt lat="47.78072" lon="-3.62374">
        <ele>29.8</ele>
        <time>2020-06-07T13:37:23Z</time>
      </trkpt>
      <trkpt lat="47.78073" lon="-3.62384">
        <ele>29.5</ele>
        <time>2020-06-07T13:37:24Z</time>
      </trkpt>
      <trkpt lat="47.78072" lon="-3.62393">
        <ele>29.1</ele>
        <time>2020-06-07T13:37:25Z</time>
      </trkpt>
      <trkpt lat="47.78072" lon="-3.62402">
        <ele>28.8</ele>
        <time>2020-06-07T13:37:26Z</time>
      </trkpt>
      <trkpt lat="47.78072" lon="-3.62411">
        <ele>28.4</ele>
        <time>2020-06-07T13:37:27Z</time>
      </trkpt>
      <trkpt lat="47.78071" lon="-3.62419">
        <ele>28</ele>
        <time>2020-06-07T13:37:28Z</time>
      </trkpt>
      <trkpt lat="47.78071" lon="-3.62428">
        <ele>27.6</ele>
        <time>2020-06-07T13:37:29Z</time>
      </trkpt>
      <trkpt lat="47.7807" lon="-3.62438">
        <ele>27.2</ele>
        <time>2020-06-07T13:37:30Z</time>
      </trkpt>
      <trkpt lat="47.7807" lon="-3.62448">
        <ele>26.7</ele>
        <time>2020-06-07T13:37:31Z</time>
      </trkpt>
      <trkpt lat="47.78069" lon="-3.62459">
        <ele>26.1</ele>
        <time>2020-06-07T13:37:32Z</time>
      </trkpt>
      <trkpt lat="47.78068" lon="-3.62469">
        <ele>25.5</ele>
        <time>2020-06-07T13:37:33Z</time>
      </trkpt>
      <trkpt lat="47.78066" lon="-3.62478">
        <ele>24.9</ele>
        <time>2020-06-07T13:37:34Z</time>
      </trkpt>
      <trkpt lat="47.78064" lon="-3.62488">
        <ele>24.3</ele>
        <time>2020-06-07T13:37:35Z</time>
      </trkpt>
      <trkpt lat="47.78061" lon="-3.62499">
        <ele>23.6</ele>
        <time>2020-06-07T13:37:36Z</time>
      </trkpt>
      <trkpt lat="47.78057" lon="-3.62509">
        <ele>22.9</ele>
        <time>2020-06-07T13:37:37Z</time>
      </trkpt>
      <trkpt lat="47.78054" lon="-3.62519">
        <ele>22.2</ele>
        <time>2020-06-07T13:37:38Z</time>
      </trkpt>
      <trkpt lat="47.78051" lon="-3.62529">
        <ele>21.5</ele>
        <time>2020-06-07T13:37:39Z</time>
      </trkpt>
      <trkpt lat="47.78048" lon="-3.62537">
        <ele>20.7</ele>
        <time>2020-06-07T13:37:40Z</time>
      </trkpt>
      <trkpt lat="47.78045" lon="-3.62546">
        <ele>20.1</ele>
        <time>2020-06-07T13:37:41Z</time>
      </trkpt>
      <trkpt lat="47.78043" lon="-3.62553">
        <ele>19.5</ele>
        <time>2020-06-07T13:37:42Z</time>
      </trkpt>
      <trkpt lat="47.7804" lon="-3.62563">
        <ele>18.8</ele>
        <time>2020-06-07T13:37:43Z</time>
      </trkpt>
      <trkpt lat="47.78037" lon="-3.62573">
        <ele>18</ele>
        <time>2020-06-07T13:37:44Z</time>
      </trkpt>
      <trkpt lat="47.78034" lon="-3.62585">
        <ele>17.1</ele>
        <time>2020-06-07T13:37:45Z</time>
      </trkpt>
      <trkpt lat="47.78033" lon="-3.62596">
        <ele>16.4</ele>
        <time>2020-06-07T13:37:46Z</time>
      </trkpt>
      <trkpt lat="47.78031" lon="-3.62609">
        <ele>15.6</ele>
        <time>2020-06-07T13:37:47Z</time>
      </trkpt>
      <trkpt lat="47.78029" lon="-3.62622">
        <ele>14.9</ele>
        <time>2020-06-07T13:37:48Z</time>
      </trkpt>
      <trkpt lat="47.78029" lon="-3.62635">
        <ele>14.2</ele>
        <time>2020-06-07T13:37:49Z</time>
      </trkpt>
      <trkpt lat="47.78029" lon="-3.62649">
        <ele>13.5</ele>
        <time>2020-06-07T13:37:50Z</time>
      </trkpt>
      <trkpt lat="47.7803" lon="-3.62663">
        <ele>13.1</ele>
        <time>2020-06-07T13:37:51Z</time>
      </trkpt>
      <trkpt lat="47.78031" lon="-3.62677">
        <ele>12.8</ele>
        <time>2020-06-07T13:37:52Z</time>
      </trkpt>
      <trkpt lat="47.78034" lon="-3.6269">
        <ele>12.7</ele>
        <time>2020-06-07T13:37:53Z</time>
      </trkpt>
      <trkpt lat="47.78039" lon="-3.62703">
        <ele>12.9</ele>
        <time>2020-06-07T13:37:54Z</time>
      </trkpt>
      <trkpt lat="47.78043" lon="-3.62715">
        <ele>13.1</ele>
        <time>2020-06-07T13:37:55Z</time>
      </trkpt>
      <trkpt lat="47.78048" lon="-3.62727">
        <ele>13.3</ele>
        <time>2020-06-07T13:37:56Z</time>
      </trkpt>
      <trkpt lat="47.78053" lon="-3.62737">
        <ele>13.5</ele>
        <time>2020-06-07T13:37:57Z</time>
      </trkpt>
      <trkpt lat="47.78059" lon="-3.62744">
        <ele>13.8</ele>
        <time>2020-06-07T13:37:58Z</time>
      </trkpt>
      <trkpt lat="47.78064" lon="-3.62752">
        <ele>14.3</ele>
        <time>2020-06-07T13:37:59Z</time>
      </trkpt>
      <trkpt lat="47.78068" lon="-3.62758">
        <ele>14.9</ele>
        <time>2020-06-07T13:38:00Z</time>
      </trkpt>
      <trkpt lat="47.78072" lon="-3.62763">
        <ele>15.4</ele>
        <time>2020-06-07T13:38:01Z</time>
      </trkpt>
      <trkpt lat="47.78076" lon="-3.62767">
        <ele>15.9</ele>
        <time>2020-06-07T13:38:02Z</time>
      </trkpt>
      <trkpt lat="47.7808" lon="-3.62771">
        <ele>16.4</ele>
        <time>2020-06-07T13:38:03Z</time>
      </trkpt>
      <trkpt lat="47.78084" lon="-3.62774">
        <ele>16.9</ele>
        <time>2020-06-07T13:38:04Z</time>
      </trkpt>
      <trkpt lat="47.78088" lon="-3.62779">
        <ele>17.4</ele>
        <time>2020-06-07T13:38:05Z</time>
      </trkpt>
      <trkpt lat="47.78092" lon="-3.62783">
        <ele>17.9</ele>
        <time>2020-06-07T13:38:06Z</time>
      </trkpt>
      <trkpt lat="47.78096" lon="-3.62788">
        <ele>18.4</ele>
        <time>2020-06-07T13:38:07Z</time>
      </trkpt>
      <trkpt lat="47.78099" lon="-3.62792">
        <ele>18.9</ele>
        <time>2020-06-07T13:38:08Z</time>
      </trkpt>
      <trkpt lat="47.78102" lon="-3.62796">
        <ele>19.3</ele>
        <time>2020-06-07T13:38:09Z</time>
      </trkpt>
      <trkpt lat="47.78105" lon="-3.628">
        <ele>19.8</ele>
        <time>2020-06-07T13:38:10Z</time>
      </trkpt>
      <trkpt lat="47.78108" lon="-3.62802">
        <ele>20.1</ele>
        <time>2020-06-07T13:38:11Z</time>
      </trkpt>
      <trkpt lat="47.7811" lon="-3.62805">
        <ele>20.5</ele>
        <time>2020-06-07T13:38:12Z</time>
      </trkpt>
      <trkpt lat="47.78113" lon="-3.62808">
        <ele>20.9</ele>
        <time>2020-06-07T13:38:13Z</time>
      </trkpt>
      <trkpt lat="47.78115" lon="-3.62811">
        <ele>21.1</ele>
        <time>2020-06-07T13:38:14Z</time>
      </trkpt>
      <trkpt lat="47.78116" lon="-3.62815">
        <ele>21.3</ele>
        <time>2020-06-07T13:38:15Z</time>
      </trkpt>
      <trkpt lat="47.78117" lon="-3.6282">
        <ele>21.6</ele>
        <time>2020-06-07T13:38:16Z</time>
      </trkpt>
      <trkpt lat="47.78119" lon="-3.62823">
        <ele>21.8</ele>
        <time>2020-06-07T13:38:17Z</time>
      </trkpt>
      <trkpt lat="47.78121" lon="-3.62826">
        <ele>22</ele>
        <time>2020-06-07T13:38:18Z</time>
      </trkpt>
      <trkpt lat="47.78123" lon="-3.62831">
        <ele>22.3</ele>
        <time>2020-06-07T13:38:19Z</time>
      </trkpt>
      <trkpt lat="47.78124" lon="-3.62833">
        <ele>22.4</ele>
        <time>2020-06-07T13:38:20Z</time>
      </trkpt>
      <trkpt lat="47.78126" lon="-3.62835">
        <ele>22.8</ele>
        <time>2020-06-07T13:38:21Z</time>
      </trkpt>
      <trkpt lat="47.78129" lon="-3.62838">
        <ele>23.1</ele>
        <time>2020-06-07T13:38:22Z</time>
      </trkpt>
      <trkpt lat="47.7813" lon="-3.62839">
        <ele>23.2</ele>
        <time>2020-06-07T13:38:23Z</time>
      </trkpt>
      <trkpt lat="47.78133" lon="-3.62841">
        <ele>23.5</ele>
        <time>2020-06-07T13:38:24Z</time>
      </trkpt>
      <trkpt lat="47.78134" lon="-3.62842">
        <ele>23.7</ele>
        <time>2020-06-07T13:38:25Z</time>
      </trkpt>
      <trkpt lat="47.78138" lon="-3.62844">
        <ele>24</ele>
        <time>2020-06-07T13:38:26Z</time>
      </trkpt>
      <trkpt lat="47.78139" lon="-3.62846">
        <ele>24.1</ele>
        <time>2020-06-07T13:38:27Z</time>
      </trkpt>
      <trkpt lat="47.78142" lon="-3.62847">
        <ele>24.3</ele>
        <time>2020-06-07T13:38:28Z</time>
      </trkpt>
      <trkpt lat="47.78146" lon="-3.62847">
        <ele>24.6</ele>
        <time>2020-06-07T13:38:29Z</time>
      </trkpt>
      <trkpt lat="47.7815" lon="-3.62847">
        <ele>24.8</ele>
        <time>2020-06-07T13:38:30Z</time>
      </trkpt>
      <trkpt lat="47.78154" lon="-3.62848">
        <ele>25</ele>
        <time>2020-06-07T13:38:31Z</time>
      </trkpt>
      <trkpt lat="47.78157" lon="-3.62848">
        <ele>25.2</ele>
        <time>2020-06-07T13:38:32Z</time>
      </trkpt>
      <trkpt lat="47.78161" lon="-3.62848">
        <ele>25.4</ele>
        <time>2020-06-07T13:38:33Z</time>
      </trkpt>
      <trkpt lat="47.78164" lon="-3.62848">
        <ele>25.6</ele>
        <time>2020-06-07T13:38:34Z</time>
      </trkpt>
      <trkpt lat="47.78167" lon="-3.62846">
        <ele>25.8</ele>
        <time>2020-06-07T13:38:35Z</time>
      </trkpt>
      <trkpt lat="47.78171" lon="-3.62844">
        <ele>26</ele>
        <time>2020-06-07T13:38:36Z</time>
      </trkpt>
      <trkpt lat="47.78174" lon="-3.62844">
        <ele>26.2</ele>
        <time>2020-06-07T13:38:37Z</time>
      </trkpt>
      <trkpt lat="47.78176" lon="-3.62844">
        <ele>26.2</ele>
        <time>2020-06-07T13:38:38Z</time>
      </trkpt>
      <trkpt lat="47.78179" lon="-3.62843">
        <ele>26.4</ele>
        <time>2020-06-07T13:38:39Z</time>
      </trkpt>
      <trkpt lat="47.78181" lon="-3.62843">
        <ele>26.5</ele>
        <time>2020-06-07T13:38:40Z</time>
      </trkpt>
      <trkpt lat="47.78184" lon="-3.62841">
        <ele>26.7</ele>
        <time>2020-06-07T13:38:41Z</time>
      </trkpt>
      <trkpt lat="47.78188" lon="-3.62839">
        <ele>26.9</ele>
        <time>2020-06-07T13:38:42Z</time>
      </trkpt>
      <trkpt lat="47.78189" lon="-3.62838">
        <ele>26.9</ele>
        <time>2020-06-07T13:38:43Z</time>
      </trkpt>
      <trkpt lat="47.78192" lon="-3.62838">
        <ele>27.1</ele>
        <time>2020-06-07T13:38:44Z</time>
      </trkpt>
      <trkpt lat="47.78195" lon="-3.62837">
        <ele>27.2</ele>
        <time>2020-06-07T13:38:45Z</time>
      </trkpt>
      <trkpt lat="47.78199" lon="-3.62835">
        <ele>27.4</ele>
        <time>2020-06-07T13:38:46Z</time>
      </trkpt>
      <trkpt lat="47.78202" lon="-3.62833">
        <ele>27.6</ele>
        <time>2020-06-07T13:38:47Z</time>
      </trkpt>
      <trkpt lat="47.78204" lon="-3.62832">
        <ele>27.7</ele>
        <time>2020-06-07T13:38:48Z</time>
      </trkpt>
      <trkpt lat="47.78208" lon="-3.62831">
        <ele>27.9</ele>
        <time>2020-06-07T13:38:49Z</time>
      </trkpt>
      <trkpt lat="47.78211" lon="-3.62829">
        <ele>28</ele>
        <time>2020-06-07T13:38:50Z</time>
      </trkpt>
      <trkpt lat="47.78215" lon="-3.62826">
        <ele>28.2</ele>
        <time>2020-06-07T13:38:51Z</time>
      </trkpt>
      <trkpt lat="47.78217" lon="-3.62824">
        <ele>28.4</ele>
        <time>2020-06-07T13:38:52Z</time>
      </trkpt>
      <trkpt lat="47.78221" lon="-3.62823">
        <ele>28.6</ele>
        <time>2020-06-07T13:38:53Z</time>
      </trkpt>
      <trkpt lat="47.78223" lon="-3.62821">
        <ele>28.8</ele>
        <time>2020-06-07T13:38:54Z</time>
      </trkpt>
      <trkpt lat="47.78227" lon="-3.62819">
        <ele>29</ele>
        <time>2020-06-07T13:38:55Z</time>
      </trkpt>
      <trkpt lat="47.78228" lon="-3.62818">
        <ele>29.1</ele>
        <time>2020-06-07T13:38:56Z</time>
      </trkpt>
      <trkpt lat="47.7823" lon="-3.62816">
        <ele>29.2</ele>
        <time>2020-06-07T13:38:57Z</time>
      </trkpt>
      <trkpt lat="47.78232" lon="-3.62815">
        <ele>29.3</ele>
        <time>2020-06-07T13:38:58Z</time>
      </trkpt>
      <trkpt lat="47.78235" lon="-3.62814">
        <ele>29.4</ele>
        <time>2020-06-07T13:38:59Z</time>
      </trkpt>
      <trkpt lat="47.78237" lon="-3.62811">
        <ele>29.6</ele>
        <time>2020-06-07T13:39:00Z</time>
      </trkpt>
      <trkpt lat="47.7824" lon="-3.62808">
        <ele>29.8</ele>
        <time>2020-06-07T13:39:01Z</time>
      </trkpt>
      <trkpt lat="47.78243" lon="-3.62804">
        <ele>29.9</ele>
        <time>2020-06-07T13:39:02Z</time>
      </trkpt>
      <trkpt lat="47.78246" lon="-3.62801">
        <ele>30.1</ele>
        <time>2020-06-07T13:39:03Z</time>
      </trkpt>
      <trkpt lat="47.78249" lon="-3.62798">
        <ele>30.3</ele>
        <time>2020-06-07T13:39:04Z</time>
      </trkpt>
      <trkpt lat="47.78252" lon="-3.62794">
        <ele>30.5</ele>
        <time>2020-06-07T13:39:05Z</time>
      </trkpt>
      <trkpt lat="47.78252" lon="-3.62793">
        <ele>30.5</ele>
        <time>2020-06-07T13:39:06Z</time>
      </trkpt>
      <trkpt lat="47.78255" lon="-3.6279">
        <ele>30.7</ele>
        <time>2020-06-07T13:39:07Z</time>
      </trkpt>
      <trkpt lat="47.78258" lon="-3.62788">
        <ele>30.8</ele>
        <time>2020-06-07T13:39:08Z</time>
      </trkpt>
      <trkpt lat="47.78259" lon="-3.62787">
        <ele>30.9</ele>
        <time>2020-06-07T13:39:09Z</time>
      </trkpt>
      <trkpt lat="47.78262" lon="-3.62785">
        <ele>31.1</ele>
        <time>2020-06-07T13:39:10Z</time>
      </trkpt>
      <trkpt lat="47.78266" lon="-3.62783">
        <ele>31.3</ele>
        <time>2020-06-07T13:39:11Z</time>
      </trkpt>
      <trkpt lat="47.78269" lon="-3.62781">
        <ele>31.4</ele>
        <time>2020-06-07T13:39:12Z</time>
      </trkpt>
      <trkpt lat="47.78272" lon="-3.62779">
        <ele>31.6</ele>
        <time>2020-06-07T13:39:13Z</time>
      </trkpt>
      <trkpt lat="47.78275" lon="-3.62779">
        <ele>31.7</ele>
        <time>2020-06-07T13:39:14Z</time>
      </trkpt>
      <trkpt lat="47.78279" lon="-3.62777">
        <ele>31.9</ele>
        <time>2020-06-07T13:39:15Z</time>
      </trkpt>
      <trkpt lat="47.78284" lon="-3.62774">
        <ele>32.1</ele>
        <time>2020-06-07T13:39:16Z</time>
      </trkpt>
      <trkpt lat="47.78288" lon="-3.62772">
        <ele>32.3</ele>
        <time>2020-06-07T13:39:17Z</time>
      </trkpt>
      <trkpt lat="47.78292" lon="-3.62769">
        <ele>32.5</ele>
        <time>2020-06-07T13:39:18Z</time>
      </trkpt>
      <trkpt lat="47.78296" lon="-3.62767">
        <ele>32.7</ele>
        <time>2020-06-07T13:39:19Z</time>
      </trkpt>
      <trkpt lat="47.78299" lon="-3.62766">
        <ele>32.9</ele>
        <time>2020-06-07T13:39:20Z</time>
      </trkpt>
      <trkpt lat="47.783" lon="-3.62766">
        <ele>33</ele>
        <time>2020-06-07T13:39:21Z</time>
      </trkpt>
      <trkpt lat="47.78303" lon="-3.62765">
        <ele>33.1</ele>
        <time>2020-06-07T13:39:22Z</time>
      </trkpt>
      <trkpt lat="47.78306" lon="-3.62763">
        <ele>33.2</ele>
        <time>2020-06-07T13:39:23Z</time>
      </trkpt>
      <trkpt lat="47.7831" lon="-3.62761">
        <ele>33.4</ele>
        <time>2020-06-07T13:39:24Z</time>
      </trkpt>
      <trkpt lat="47.78314" lon="-3.6276">
        <ele>33.6</ele>
        <time>2020-06-07T13:39:25Z</time>
      </trkpt>
      <trkpt lat="47.78318" lon="-3.62759">
        <ele>33.8</ele>
        <time>2020-06-07T13:39:26Z</time>
      </trkpt>
      <trkpt lat="47.78321" lon="-3.62758">
        <ele>33.9</ele>
        <time>2020-06-07T13:39:27Z</time>
      </trkpt>
      <trkpt lat="47.78325" lon="-3.62756">
        <ele>34.1</ele>
        <time>2020-06-07T13:39:28Z</time>
      </trkpt>
      <trkpt lat="47.78326" lon="-3.62756">
        <ele>34.1</ele>
        <time>2020-06-07T13:39:29Z</time>
      </trkpt>
      <trkpt lat="47.7833" lon="-3.62755">
        <ele>34.3</ele>
        <time>2020-06-07T13:39:30Z</time>
      </trkpt>
      <trkpt lat="47.78333" lon="-3.62753">
        <ele>34.4</ele>
        <time>2020-06-07T13:39:31Z</time>
      </trkpt>
      <trkpt lat="47.78336" lon="-3.62751">
        <ele>34.5</ele>
        <time>2020-06-07T13:39:32Z</time>
      </trkpt>
      <trkpt lat="47.7834" lon="-3.6275">
        <ele>34.6</ele>
        <time>2020-06-07T13:39:33Z</time>
      </trkpt>
      <trkpt lat="47.78343" lon="-3.62748">
        <ele>34.7</ele>
        <time>2020-06-07T13:39:34Z</time>
      </trkpt>
      <trkpt lat="47.78346" lon="-3.62747">
        <ele>34.8</ele>
        <time>2020-06-07T13:39:35Z</time>
      </trkpt>
      <trkpt lat="47.78349" lon="-3.62746">
        <ele>34.9</ele>
        <time>2020-06-07T13:39:36Z</time>
      </trkpt>
      <trkpt lat="47.78352" lon="-3.62745">
        <ele>35</ele>
        <time>2020-06-07T13:39:37Z</time>
      </trkpt>
      <trkpt lat="47.78353" lon="-3.62745">
        <ele>35</ele>
        <time>2020-06-07T13:39:38Z</time>
      </trkpt>
      <trkpt lat="47.78356" lon="-3.62744">
        <ele>35.1</ele>
        <time>2020-06-07T13:39:39Z</time>
      </trkpt>
      <trkpt lat="47.78357" lon="-3.62743">
        <ele>35.1</ele>
        <time>2020-06-07T13:39:40Z</time>
      </trkpt>
      <trkpt lat="47.7836" lon="-3.62742">
        <ele>35.1</ele>
        <time>2020-06-07T13:39:41Z</time>
      </trkpt>
      <trkpt lat="47.7836" lon="-3.62741">
        <ele>35.1</ele>
        <time>2020-06-07T13:39:42Z</time>
      </trkpt>
      <trkpt lat="47.78364" lon="-3.62739">
        <ele>35.2</ele>
        <time>2020-06-07T13:39:43Z</time>
      </trkpt>
      <trkpt lat="47.78365" lon="-3.62738">
        <ele>35.2</ele>
        <time>2020-06-07T13:39:44Z</time>
      </trkpt>
      <trkpt lat="47.78366" lon="-3.62738">
        <ele>35.2</ele>
        <time>2020-06-07T13:39:45Z</time>
      </trkpt>
      <trkpt lat="47.78367" lon="-3.62737">
        <ele>35.2</ele>
        <time>2020-06-07T13:39:46Z</time>
      </trkpt>
      <trkpt lat="47.78367" lon="-3.62737">
        <ele>35.2</ele>
        <time>2020-06-07T13:39:47Z</time>
      </trkpt>
      <trkpt lat="47.78369" lon="-3.62737">
        <ele>35.2</ele>
        <time>2020-06-07T13:39:48Z</time>
      </trkpt>
      <trkpt lat="47.78369" lon="-3.62737">
        <ele>35.2</ele>
        <time>2020-06-07T13:39:49Z</time>
      </trkpt>
      <trkpt lat="47.7837" lon="-3.62737">
        <ele>35.2</ele>
        <time>2020-06-07T13:39:50Z</time>
      </trkpt>
      <trkpt lat="47.7837" lon="-3.62737">
        <ele>35.3</ele>
        <time>2020-06-07T13:39:51Z</time>
      </trkpt>
      <trkpt lat="47.78371" lon="-3.62737">
        <ele>35.3</ele>
        <time>2020-06-07T13:39:52Z</time>
      </trkpt>
      <trkpt lat="47.78372" lon="-3.62737">
        <ele>35.3</ele>
        <time>2020-06-07T13:39:53Z</time>
      </trkpt>
      <trkpt lat="47.78372" lon="-3.62737">
        <ele>35.3</ele>
        <time>2020-06-07T13:39:54Z</time>
      </trkpt>
      <trkpt lat="47.78373" lon="-3.62737">
        <ele>35.3</ele>
        <time>2020-06-07T13:39:55Z</time>
      </trkpt>
      <trkpt lat="47.78374" lon="-3.62737">
        <ele>35.3</ele>
        <time>2020-06-07T13:39:56Z</time>
      </trkpt>
      <trkpt lat="47.78374" lon="-3.62737">
        <ele>35.3</ele>
        <time>2020-06-07T13:40:21Z</time>
      </trkpt>
      <trkpt lat="47.78375" lon="-3.62737">
        <ele>35.3</ele>
        <time>2020-06-07T13:40:22Z</time>
      </trkpt>
      <trkpt lat="47.78376" lon="-3.62737">
        <ele>35.3</ele>
        <time>2020-06-07T13:40:23Z</time>
      </trkpt>
      <trkpt lat="47.78379" lon="-3.62736">
        <ele>35.3</ele>
        <time>2020-06-07T13:40:24Z</time>
      </trkpt>
      <trkpt lat="47.78382" lon="-3.62735">
        <ele>35.4</ele>
        <time>2020-06-07T13:40:25Z</time>
      </trkpt>
      <trkpt lat="47.78385" lon="-3.62733">
        <ele>35.4</ele>
        <time>2020-06-07T13:40:26Z</time>
      </trkpt>
      <trkpt lat="47.7839" lon="-3.62732">
        <ele>35.5</ele>
        <time>2020-06-07T13:40:27Z</time>
      </trkpt>
      <trkpt lat="47.78395" lon="-3.62731">
        <ele>35.5</ele>
        <time>2020-06-07T13:40:28Z</time>
      </trkpt>
      <trkpt lat="47.78398" lon="-3.62729">
        <ele>35.5</ele>
        <time>2020-06-07T13:40:29Z</time>
      </trkpt>
      <trkpt lat="47.78401" lon="-3.62727">
        <ele>35.6</ele>
        <time>2020-06-07T13:40:30Z</time>
      </trkpt>
      <trkpt lat="47.78404" lon="-3.62726">
        <ele>35.6</ele>
        <time>2020-06-07T13:40:31Z</time>
      </trkpt>
      <trkpt lat="47.78407" lon="-3.62724">
        <ele>35.6</ele>
        <time>2020-06-07T13:40:32Z</time>
      </trkpt>
      <trkpt lat="47.78411" lon="-3.62722">
        <ele>35.6</ele>
        <time>2020-06-07T13:40:33Z</time>
      </trkpt>
      <trkpt lat="47.78414" lon="-3.62722">
        <ele>35.7</ele>
        <time>2020-06-07T13:40:34Z</time>
      </trkpt>
      <trkpt lat="47.78417" lon="-3.6272">
        <ele>35.7</ele>
        <time>2020-06-07T13:40:35Z</time>
      </trkpt>
      <trkpt lat="47.78421" lon="-3.62718">
        <ele>35.7</ele>
        <time>2020-06-07T13:40:36Z</time>
      </trkpt>
      <trkpt lat="47.78425" lon="-3.62716">
        <ele>35.7</ele>
        <time>2020-06-07T13:40:37Z</time>
      </trkpt>
      <trkpt lat="47.7843" lon="-3.62714">
        <ele>35.7</ele>
        <time>2020-06-07T13:40:38Z</time>
      </trkpt>
      <trkpt lat="47.78433" lon="-3.62714">
        <ele>35.7</ele>
        <time>2020-06-07T13:40:39Z</time>
      </trkpt>
      <trkpt lat="47.78436" lon="-3.62712">
        <ele>35.7</ele>
        <time>2020-06-07T13:40:40Z</time>
      </trkpt>
      <trkpt lat="47.78436" lon="-3.62711">
        <ele>35.7</ele>
        <time>2020-06-07T13:40:41Z</time>
      </trkpt>
      <trkpt lat="47.78439" lon="-3.62708">
        <ele>35.7</ele>
        <time>2020-06-07T13:40:42Z</time>
      </trkpt>
      <trkpt lat="47.78442" lon="-3.62706">
        <ele>35.7</ele>
        <time>2020-06-07T13:40:43Z</time>
      </trkpt>
      <trkpt lat="47.78445" lon="-3.62703">
        <ele>35.7</ele>
        <time>2020-06-07T13:40:44Z</time>
      </trkpt>
      <trkpt lat="47.78448" lon="-3.62701">
        <ele>35.7</ele>
        <time>2020-06-07T13:40:45Z</time>
      </trkpt>
      <trkpt lat="47.78449" lon="-3.627">
        <ele>35.7</ele>
        <time>2020-06-07T13:40:46Z</time>
      </trkpt>
      <trkpt lat="47.78452" lon="-3.62698">
        <ele>35.7</ele>
        <time>2020-06-07T13:40:47Z</time>
      </trkpt>
      <trkpt lat="47.78455" lon="-3.62697">
        <ele>35.7</ele>
        <time>2020-06-07T13:40:48Z</time>
      </trkpt>
      <trkpt lat="47.78459" lon="-3.62696">
        <ele>35.7</ele>
        <time>2020-06-07T13:40:49Z</time>
      </trkpt>
      <trkpt lat="47.78462" lon="-3.62695">
        <ele>35.7</ele>
        <time>2020-06-07T13:40:50Z</time>
      </trkpt>
      <trkpt lat="47.78465" lon="-3.62693">
        <ele>35.7</ele>
        <time>2020-06-07T13:40:51Z</time>
      </trkpt>
      <trkpt lat="47.78468" lon="-3.62691">
        <ele>35.7</ele>
        <time>2020-06-07T13:40:52Z</time>
      </trkpt>
      <trkpt lat="47.78471" lon="-3.6269">
        <ele>35.7</ele>
        <time>2020-06-07T13:40:53Z</time>
      </trkpt>
      <trkpt lat="47.78475" lon="-3.62688">
        <ele>35.7</ele>
        <time>2020-06-07T13:40:54Z</time>
      </trkpt>
      <trkpt lat="47.78479" lon="-3.62687">
        <ele>35.7</ele>
        <time>2020-06-07T13:40:55Z</time>
      </trkpt>
      <trkpt lat="47.78482" lon="-3.62685">
        <ele>35.7</ele>
        <time>2020-06-07T13:40:56Z</time>
      </trkpt>
      <trkpt lat="47.78483" lon="-3.62685">
        <ele>35.7</ele>
        <time>2020-06-07T13:40:57Z</time>
      </trkpt>
      <trkpt lat="47.78486" lon="-3.62684">
        <ele>35.7</ele>
        <time>2020-06-07T13:40:58Z</time>
      </trkpt>
      <trkpt lat="47.78489" lon="-3.62681">
        <ele>35.8</ele>
        <time>2020-06-07T13:40:59Z</time>
      </trkpt>
      <trkpt lat="47.78491" lon="-3.6268">
        <ele>35.8</ele>
        <time>2020-06-07T13:41:00Z</time>
      </trkpt>
      <trkpt lat="47.78495" lon="-3.62677">
        <ele>35.8</ele>
        <time>2020-06-07T13:41:01Z</time>
      </trkpt>
      <trkpt lat="47.78497" lon="-3.62675">
        <ele>35.8</ele>
        <time>2020-06-07T13:41:02Z</time>
      </trkpt>
      <trkpt lat="47.78501" lon="-3.62673">
        <ele>35.8</ele>
        <time>2020-06-07T13:41:03Z</time>
      </trkpt>
      <trkpt lat="47.78504" lon="-3.6267">
        <ele>35.8</ele>
        <time>2020-06-07T13:41:04Z</time>
      </trkpt>
      <trkpt lat="47.78507" lon="-3.62668">
        <ele>35.8</ele>
        <time>2020-06-07T13:41:05Z</time>
      </trkpt>
      <trkpt lat="47.78511" lon="-3.62665">
        <ele>35.8</ele>
        <time>2020-06-07T13:41:06Z</time>
      </trkpt>
      <trkpt lat="47.78514" lon="-3.62662">
        <ele>35.8</ele>
        <time>2020-06-07T13:41:07Z</time>
      </trkpt>
      <trkpt lat="47.78517" lon="-3.62659">
        <ele>35.8</ele>
        <time>2020-06-07T13:41:08Z</time>
      </trkpt>
      <trkpt lat="47.78522" lon="-3.62656">
        <ele>35.8</ele>
        <time>2020-06-07T13:41:09Z</time>
      </trkpt>
      <trkpt lat="47.78526" lon="-3.62652">
        <ele>35.9</ele>
        <time>2020-06-07T13:41:10Z</time>
      </trkpt>
      <trkpt lat="47.78529" lon="-3.62649">
        <ele>35.9</ele>
        <time>2020-06-07T13:41:11Z</time>
      </trkpt>
      <trkpt lat="47.78534" lon="-3.62644">
        <ele>35.9</ele>
        <time>2020-06-07T13:41:12Z</time>
      </trkpt>
      <trkpt lat="47.78537" lon="-3.62642">
        <ele>35.9</ele>
        <time>2020-06-07T13:41:13Z</time>
      </trkpt>
      <trkpt lat="47.78542" lon="-3.6264">
        <ele>35.9</ele>
        <time>2020-06-07T13:41:14Z</time>
      </trkpt>
      <trkpt lat="47.78546" lon="-3.62637">
        <ele>36</ele>
        <time>2020-06-07T13:41:15Z</time>
      </trkpt>
      <trkpt lat="47.7855" lon="-3.62635">
        <ele>36</ele>
        <time>2020-06-07T13:41:16Z</time>
      </trkpt>
      <trkpt lat="47.78554" lon="-3.62632">
        <ele>36</ele>
        <time>2020-06-07T13:41:17Z</time>
      </trkpt>
      <trkpt lat="47.78558" lon="-3.62629">
        <ele>36</ele>
        <time>2020-06-07T13:41:18Z</time>
      </trkpt>
      <trkpt lat="47.7856" lon="-3.62627">
        <ele>36</ele>
        <time>2020-06-07T13:41:19Z</time>
      </trkpt>
      <trkpt lat="47.78564" lon="-3.62624">
        <ele>36.1</ele>
        <time>2020-06-07T13:41:20Z</time>
      </trkpt>
      <trkpt lat="47.78568" lon="-3.62622">
        <ele>36.1</ele>
        <time>2020-06-07T13:41:21Z</time>
      </trkpt>
      <trkpt lat="47.78573" lon="-3.62619">
        <ele>36.2</ele>
        <time>2020-06-07T13:41:22Z</time>
      </trkpt>
      <trkpt lat="47.78576" lon="-3.62616">
        <ele>36.2</ele>
        <time>2020-06-07T13:41:23Z</time>
      </trkpt>
      <trkpt lat="47.7858" lon="-3.62612">
        <ele>36.3</ele>
        <time>2020-06-07T13:41:24Z</time>
      </trkpt>
      <trkpt lat="47.78584" lon="-3.62607">
        <ele>36.3</ele>
        <time>2020-06-07T13:41:25Z</time>
      </trkpt>
      <trkpt lat="47.78587" lon="-3.62604">
        <ele>36.3</ele>
        <time>2020-06-07T13:41:26Z</time>
      </trkpt>
      <trkpt lat="47.7859" lon="-3.62601">
        <ele>36.3</ele>
        <time>2020-06-07T13:41:27Z</time>
      </trkpt>
      <trkpt lat="47.78593" lon="-3.62596">
        <ele>36.2</ele>
        <time>2020-06-07T13:41:28Z</time>
      </trkpt>
      <trkpt lat="47.78597" lon="-3.62591">
        <ele>36.2</ele>
        <time>2020-06-07T13:41:29Z</time>
      </trkpt>
      <trkpt lat="47.78601" lon="-3.62588">
        <ele>36.1</ele>
        <time>2020-06-07T13:41:30Z</time>
      </trkpt>
      <trkpt lat="47.78605" lon="-3.62584">
        <ele>36.1</ele>
        <time>2020-06-07T13:41:31Z</time>
      </trkpt>
      <trkpt lat="47.78609" lon="-3.6258">
        <ele>36</ele>
        <time>2020-06-07T13:41:32Z</time>
      </trkpt>
      <trkpt lat="47.78611" lon="-3.62576">
        <ele>35.9</ele>
        <time>2020-06-07T13:41:33Z</time>
      </trkpt>
      <trkpt lat="47.78614" lon="-3.62575">
        <ele>35.8</ele>
        <time>2020-06-07T13:41:34Z</time>
      </trkpt>
      <trkpt lat="47.78616" lon="-3.62571">
        <ele>35.8</ele>
        <time>2020-06-07T13:41:35Z</time>
      </trkpt>
      <trkpt lat="47.7862" lon="-3.62569">
        <ele>35.7</ele>
        <time>2020-06-07T13:41:36Z</time>
      </trkpt>
      <trkpt lat="47.78623" lon="-3.62566">
        <ele>35.6</ele>
        <time>2020-06-07T13:41:37Z</time>
      </trkpt>
      <trkpt lat="47.78626" lon="-3.62564">
        <ele>35.5</ele>
        <time>2020-06-07T13:41:38Z</time>
      </trkpt>
      <trkpt lat="47.78629" lon="-3.62561">
        <ele>35.4</ele>
        <time>2020-06-07T13:41:39Z</time>
      </trkpt>
      <trkpt lat="47.78633" lon="-3.6256">
        <ele>35.3</ele>
        <time>2020-06-07T13:41:40Z</time>
      </trkpt>
      <trkpt lat="47.78637" lon="-3.62559">
        <ele>35.2</ele>
        <time>2020-06-07T13:41:41Z</time>
      </trkpt>
      <trkpt lat="47.78641" lon="-3.62559">
        <ele>35.1</ele>
        <time>2020-06-07T13:41:42Z</time>
      </trkpt>
      <trkpt lat="47.78644" lon="-3.62558">
        <ele>35</ele>
        <time>2020-06-07T13:41:43Z</time>
      </trkpt>
      <trkpt lat="47.78646" lon="-3.62557">
        <ele>34.9</ele>
        <time>2020-06-07T13:41:44Z</time>
      </trkpt>
      <trkpt lat="47.7865" lon="-3.62556">
        <ele>34.7</ele>
        <time>2020-06-07T13:41:45Z</time>
      </trkpt>
      <trkpt lat="47.78654" lon="-3.62555">
        <ele>34.6</ele>
        <time>2020-06-07T13:41:46Z</time>
      </trkpt>
      <trkpt lat="47.78657" lon="-3.62555">
        <ele>34.5</ele>
        <time>2020-06-07T13:41:47Z</time>
      </trkpt>
      <trkpt lat="47.7866" lon="-3.62555">
        <ele>34.3</ele>
        <time>2020-06-07T13:41:48Z</time>
      </trkpt>
      <trkpt lat="47.78664" lon="-3.62554">
        <ele>34.2</ele>
        <time>2020-06-07T13:41:49Z</time>
      </trkpt>
      <trkpt lat="47.78665" lon="-3.62553">
        <ele>34.1</ele>
        <time>2020-06-07T13:41:50Z</time>
      </trkpt>
      <trkpt lat="47.78668" lon="-3.62553">
        <ele>34</ele>
        <time>2020-06-07T13:41:51Z</time>
      </trkpt>
      <trkpt lat="47.78671" lon="-3.62553">
        <ele>33.9</ele>
        <time>2020-06-07T13:41:52Z</time>
      </trkpt>
      <trkpt lat="47.78675" lon="-3.62554">
        <ele>33.7</ele>
        <time>2020-06-07T13:41:53Z</time>
      </trkpt>
      <trkpt lat="47.78677" lon="-3.62554">
        <ele>33.7</ele>
        <time>2020-06-07T13:41:54Z</time>
      </trkpt>
      <trkpt lat="47.7868" lon="-3.62554">
        <ele>33.5</ele>
        <time>2020-06-07T13:41:55Z</time>
      </trkpt>
      <trkpt lat="47.78683" lon="-3.62553">
        <ele>33.4</ele>
        <time>2020-06-07T13:41:56Z</time>
      </trkpt>
      <trkpt lat="47.78688" lon="-3.62552">
        <ele>33.2</ele>
        <time>2020-06-07T13:41:57Z</time>
      </trkpt>
      <trkpt lat="47.78693" lon="-3.6255">
        <ele>32.9</ele>
        <time>2020-06-07T13:41:58Z</time>
      </trkpt>
      <trkpt lat="47.78697" lon="-3.62549">
        <ele>32.7</ele>
        <time>2020-06-07T13:41:59Z</time>
      </trkpt>
      <trkpt lat="47.78704" lon="-3.62548">
        <ele>32.3</ele>
        <time>2020-06-07T13:42:00Z</time>
      </trkpt>
      <trkpt lat="47.7871" lon="-3.62547">
        <ele>32</ele>
        <time>2020-06-07T13:42:01Z</time>
      </trkpt>
      <trkpt lat="47.78716" lon="-3.62546">
        <ele>31.7</ele>
        <time>2020-06-07T13:42:02Z</time>
      </trkpt>
      <trkpt lat="47.78722" lon="-3.62544">
        <ele>31.3</ele>
        <time>2020-06-07T13:42:03Z</time>
      </trkpt>
      <trkpt lat="47.78729" lon="-3.62543">
        <ele>30.9</ele>
        <time>2020-06-07T13:42:04Z</time>
      </trkpt>
      <trkpt lat="47.78736" lon="-3.6254">
        <ele>30.5</ele>
        <time>2020-06-07T13:42:05Z</time>
      </trkpt>
      <trkpt lat="47.78743" lon="-3.6254">
        <ele>30.1</ele>
        <time>2020-06-07T13:42:06Z</time>
      </trkpt>
      <trkpt lat="47.7875" lon="-3.62536">
        <ele>29.8</ele>
        <time>2020-06-07T13:42:07Z</time>
      </trkpt>
      <trkpt lat="47.78758" lon="-3.62532">
        <ele>29.6</ele>
        <time>2020-06-07T13:42:08Z</time>
      </trkpt>
      <trkpt lat="47.78766" lon="-3.62529">
        <ele>29.3</ele>
        <time>2020-06-07T13:42:09Z</time>
      </trkpt>
      <trkpt lat="47.78775" lon="-3.62526">
        <ele>29.7</ele>
        <time>2020-06-07T13:42:10Z</time>
      </trkpt>
      <trkpt lat="47.78784" lon="-3.62523">
        <ele>30.1</ele>
        <time>2020-06-07T13:42:11Z</time>
      </trkpt>
      <trkpt lat="47.78791" lon="-3.62521">
        <ele>30.2</ele>
        <time>2020-06-07T13:42:12Z</time>
      </trkpt>
      <trkpt lat="47.78797" lon="-3.62519">
        <ele>30.3</ele>
        <time>2020-06-07T13:42:13Z</time>
      </trkpt>
      <trkpt lat="47.78804" lon="-3.62517">
        <ele>30.4</ele>
        <time>2020-06-07T13:42:14Z</time>
      </trkpt>
      <trkpt lat="47.78809" lon="-3.62517">
        <ele>30.6</ele>
        <time>2020-06-07T13:42:15Z</time>
      </trkpt>
      <trkpt lat="47.78815" lon="-3.62517">
        <ele>30.8</ele>
        <time>2020-06-07T13:42:16Z</time>
      </trkpt>
      <trkpt lat="47.7882" lon="-3.62516">
        <ele>31</ele>
        <time>2020-06-07T13:42:17Z</time>
      </trkpt>
      <trkpt lat="47.78824" lon="-3.62518">
        <ele>31.2</ele>
        <time>2020-06-07T13:42:18Z</time>
      </trkpt>
      <trkpt lat="47.78828" lon="-3.62518">
        <ele>31.4</ele>
        <time>2020-06-07T13:42:19Z</time>
      </trkpt>
      <trkpt lat="47.78831" lon="-3.62519">
        <ele>31.6</ele>
        <time>2020-06-07T13:42:20Z</time>
      </trkpt>
      <trkpt lat="47.78834" lon="-3.6252">
        <ele>31.8</ele>
        <time>2020-06-07T13:42:21Z</time>
      </trkpt>
      <trkpt lat="47.78838" lon="-3.6252">
        <ele>31.9</ele>
        <time>2020-06-07T13:42:22Z</time>
      </trkpt>
      <trkpt lat="47.78841" lon="-3.6252">
        <ele>32.1</ele>
        <time>2020-06-07T13:42:23Z</time>
      </trkpt>
      <trkpt lat="47.78844" lon="-3.6252">
        <ele>32.3</ele>
        <time>2020-06-07T13:42:24Z</time>
      </trkpt>
      <trkpt lat="47.78848" lon="-3.6252">
        <ele>32.4</ele>
        <time>2020-06-07T13:42:25Z</time>
      </trkpt>
      <trkpt lat="47.7885" lon="-3.62521">
        <ele>32.5</ele>
        <time>2020-06-07T13:42:26Z</time>
      </trkpt>
      <trkpt lat="47.78853" lon="-3.6252">
        <ele>32.7</ele>
        <time>2020-06-07T13:42:27Z</time>
      </trkpt>
      <trkpt lat="47.78856" lon="-3.62521">
        <ele>32.8</ele>
        <time>2020-06-07T13:42:28Z</time>
      </trkpt>
      <trkpt lat="47.7886" lon="-3.62522">
        <ele>32.9</ele>
        <time>2020-06-07T13:42:29Z</time>
      </trkpt>
      <trkpt lat="47.78863" lon="-3.62522">
        <ele>33.1</ele>
        <time>2020-06-07T13:42:30Z</time>
      </trkpt>
      <trkpt lat="47.78866" lon="-3.62522">
        <ele>33.2</ele>
        <time>2020-06-07T13:42:31Z</time>
      </trkpt>
      <trkpt lat="47.7887" lon="-3.62524">
        <ele>33.4</ele>
        <time>2020-06-07T13:42:32Z</time>
      </trkpt>
      <trkpt lat="47.78873" lon="-3.62525">
        <ele>33.5</ele>
        <time>2020-06-07T13:42:33Z</time>
      </trkpt>
      <trkpt lat="47.78876" lon="-3.62524">
        <ele>33.7</ele>
        <time>2020-06-07T13:42:34Z</time>
      </trkpt>
      <trkpt lat="47.78879" lon="-3.62524">
        <ele>33.8</ele>
        <time>2020-06-07T13:42:35Z</time>
      </trkpt>
      <trkpt lat="47.78882" lon="-3.62525">
        <ele>34</ele>
        <time>2020-06-07T13:42:36Z</time>
      </trkpt>
      <trkpt lat="47.78886" lon="-3.62525">
        <ele>34.1</ele>
        <time>2020-06-07T13:42:37Z</time>
      </trkpt>
      <trkpt lat="47.78889" lon="-3.62525">
        <ele>34.3</ele>
        <time>2020-06-07T13:42:38Z</time>
      </trkpt>
      <trkpt lat="47.78892" lon="-3.62525">
        <ele>34.4</ele>
        <time>2020-06-07T13:42:39Z</time>
      </trkpt>
      <trkpt lat="47.78896" lon="-3.62526">
        <ele>34.6</ele>
        <time>2020-06-07T13:42:40Z</time>
      </trkpt>
      <trkpt lat="47.789" lon="-3.62526">
        <ele>34.8</ele>
        <time>2020-06-07T13:42:41Z</time>
      </trkpt>
      <trkpt lat="47.78902" lon="-3.62525">
        <ele>34.9</ele>
        <time>2020-06-07T13:42:42Z</time>
      </trkpt>
      <trkpt lat="47.78906" lon="-3.62525">
        <ele>35.1</ele>
        <time>2020-06-07T13:42:43Z</time>
      </trkpt>
      <trkpt lat="47.7891" lon="-3.62524">
        <ele>35.2</ele>
        <time>2020-06-07T13:42:44Z</time>
      </trkpt>
      <trkpt lat="47.78913" lon="-3.62525">
        <ele>35.3</ele>
        <time>2020-06-07T13:42:45Z</time>
      </trkpt>
      <trkpt lat="47.78918" lon="-3.62525">
        <ele>35.5</ele>
        <time>2020-06-07T13:42:46Z</time>
      </trkpt>
      <trkpt lat="47.78921" lon="-3.62526">
        <ele>35.6</ele>
        <time>2020-06-07T13:42:47Z</time>
      </trkpt>
      <trkpt lat="47.78925" lon="-3.62526">
        <ele>35.7</ele>
        <time>2020-06-07T13:42:48Z</time>
      </trkpt>
      <trkpt lat="47.78928" lon="-3.62527">
        <ele>35.8</ele>
        <time>2020-06-07T13:42:49Z</time>
      </trkpt>
      <trkpt lat="47.78932" lon="-3.62527">
        <ele>35.9</ele>
        <time>2020-06-07T13:42:50Z</time>
      </trkpt>
      <trkpt lat="47.78936" lon="-3.62528">
        <ele>36</ele>
        <time>2020-06-07T13:42:51Z</time>
      </trkpt>
      <trkpt lat="47.78939" lon="-3.62528">
        <ele>36.1</ele>
        <time>2020-06-07T13:42:52Z</time>
      </trkpt>
      <trkpt lat="47.78942" lon="-3.62528">
        <ele>36.2</ele>
        <time>2020-06-07T13:42:53Z</time>
      </trkpt>
      <trkpt lat="47.78945" lon="-3.62529">
        <ele>36.3</ele>
        <time>2020-06-07T13:42:54Z</time>
      </trkpt>
      <trkpt lat="47.78949" lon="-3.6253">
        <ele>36.4</ele>
        <time>2020-06-07T13:42:55Z</time>
      </trkpt>
      <trkpt lat="47.78952" lon="-3.62531">
        <ele>36.5</ele>
        <time>2020-06-07T13:42:56Z</time>
      </trkpt>
      <trkpt lat="47.78955" lon="-3.62531">
        <ele>36.5</ele>
        <time>2020-06-07T13:42:57Z</time>
      </trkpt>
      <trkpt lat="47.78959" lon="-3.62532">
        <ele>36.6</ele>
        <time>2020-06-07T13:42:58Z</time>
      </trkpt>
      <trkpt lat="47.78962" lon="-3.62533">
        <ele>36.7</ele>
        <time>2020-06-07T13:42:59Z</time>
      </trkpt>
      <trkpt lat="47.78966" lon="-3.62533">
        <ele>36.7</ele>
        <time>2020-06-07T13:43:00Z</time>
      </trkpt>
      <trkpt lat="47.78969" lon="-3.62533">
        <ele>36.7</ele>
        <time>2020-06-07T13:43:01Z</time>
      </trkpt>
      <trkpt lat="47.78973" lon="-3.62535">
        <ele>36.8</ele>
        <time>2020-06-07T13:43:02Z</time>
      </trkpt>
      <trkpt lat="47.78977" lon="-3.62535">
        <ele>36.8</ele>
        <time>2020-06-07T13:43:03Z</time>
      </trkpt>
      <trkpt lat="47.7898" lon="-3.62536">
        <ele>36.8</ele>
        <time>2020-06-07T13:43:04Z</time>
      </trkpt>
      <trkpt lat="47.78983" lon="-3.62536">
        <ele>36.9</ele>
        <time>2020-06-07T13:43:05Z</time>
      </trkpt>
      <trkpt lat="47.78987" lon="-3.62537">
        <ele>36.9</ele>
        <time>2020-06-07T13:43:06Z</time>
      </trkpt>
      <trkpt lat="47.78991" lon="-3.62537">
        <ele>36.9</ele>
        <time>2020-06-07T13:43:07Z</time>
      </trkpt>
      <trkpt lat="47.78995" lon="-3.62537">
        <ele>36.9</ele>
        <time>2020-06-07T13:43:08Z</time>
      </trkpt>
      <trkpt lat="47.78998" lon="-3.62537">
        <ele>36.9</ele>
        <time>2020-06-07T13:43:09Z</time>
      </trkpt>
      <trkpt lat="47.79002" lon="-3.62538">
        <ele>36.9</ele>
        <time>2020-06-07T13:43:10Z</time>
      </trkpt>
      <trkpt lat="47.79005" lon="-3.62538">
        <ele>36.9</ele>
        <time>2020-06-07T13:43:11Z</time>
      </trkpt>
      <trkpt lat="47.7901" lon="-3.62539">
        <ele>36.9</ele>
        <time>2020-06-07T13:43:12Z</time>
      </trkpt>
      <trkpt lat="47.79015" lon="-3.6254">
        <ele>36.9</ele>
        <time>2020-06-07T13:43:13Z</time>
      </trkpt>
      <trkpt lat="47.7902" lon="-3.6254">
        <ele>36.9</ele>
        <time>2020-06-07T13:43:14Z</time>
      </trkpt>
      <trkpt lat="47.79025" lon="-3.62541">
        <ele>36.9</ele>
        <time>2020-06-07T13:43:15Z</time>
      </trkpt>
      <trkpt lat="47.7903" lon="-3.62541">
        <ele>37</ele>
        <time>2020-06-07T13:43:16Z</time>
      </trkpt>
      <trkpt lat="47.79035" lon="-3.62541">
        <ele>37</ele>
        <time>2020-06-07T13:43:17Z</time>
      </trkpt>
      <trkpt lat="47.7904" lon="-3.62541">
        <ele>37.1</ele>
        <time>2020-06-07T13:43:18Z</time>
      </trkpt>
      <trkpt lat="47.79045" lon="-3.62541">
        <ele>37.1</ele>
        <time>2020-06-07T13:43:19Z</time>
      </trkpt>
      <trkpt lat="47.79049" lon="-3.62541">
        <ele>37.1</ele>
        <time>2020-06-07T13:43:20Z</time>
      </trkpt>
      <trkpt lat="47.79054" lon="-3.6254">
        <ele>37.2</ele>
        <time>2020-06-07T13:43:21Z</time>
      </trkpt>
      <trkpt lat="47.79058" lon="-3.6254">
        <ele>37.2</ele>
        <time>2020-06-07T13:43:22Z</time>
      </trkpt>
      <trkpt lat="47.79062" lon="-3.62539">
        <ele>37.2</ele>
        <time>2020-06-07T13:43:23Z</time>
      </trkpt>
      <trkpt lat="47.79065" lon="-3.62537">
        <ele>37.3</ele>
        <time>2020-06-07T13:43:24Z</time>
      </trkpt>
      <trkpt lat="47.79068" lon="-3.62535">
        <ele>37.3</ele>
        <time>2020-06-07T13:43:25Z</time>
      </trkpt>
      <trkpt lat="47.79072" lon="-3.62533">
        <ele>37.4</ele>
        <time>2020-06-07T13:43:26Z</time>
      </trkpt>
      <trkpt lat="47.79073" lon="-3.62533">
        <ele>37.4</ele>
        <time>2020-06-07T13:43:27Z</time>
      </trkpt>
      <trkpt lat="47.79077" lon="-3.62531">
        <ele>37.4</ele>
        <time>2020-06-07T13:43:28Z</time>
      </trkpt>
      <trkpt lat="47.79081" lon="-3.6253">
        <ele>37.5</ele>
        <time>2020-06-07T13:43:29Z</time>
      </trkpt>
      <trkpt lat="47.79086" lon="-3.62527">
        <ele>37.5</ele>
        <time>2020-06-07T13:43:30Z</time>
      </trkpt>
      <trkpt lat="47.7909" lon="-3.62525">
        <ele>37.6</ele>
        <time>2020-06-07T13:43:31Z</time>
      </trkpt>
      <trkpt lat="47.79093" lon="-3.62523">
        <ele>37.7</ele>
        <time>2020-06-07T13:43:32Z</time>
      </trkpt>
      <trkpt lat="47.79097" lon="-3.6252">
        <ele>37.7</ele>
        <time>2020-06-07T13:43:33Z</time>
      </trkpt>
      <trkpt lat="47.79101" lon="-3.62518">
        <ele>37.8</ele>
        <time>2020-06-07T13:43:34Z</time>
      </trkpt>
      <trkpt lat="47.79106" lon="-3.62517">
        <ele>37.9</ele>
        <time>2020-06-07T13:43:35Z</time>
      </trkpt>
      <trkpt lat="47.7911" lon="-3.62514">
        <ele>37.9</ele>
        <time>2020-06-07T13:43:36Z</time>
      </trkpt>
      <trkpt lat="47.79114" lon="-3.62511">
        <ele>38</ele>
        <time>2020-06-07T13:43:37Z</time>
      </trkpt>
      <trkpt lat="47.79119" lon="-3.62508">
        <ele>38.1</ele>
        <time>2020-06-07T13:43:38Z</time>
      </trkpt>
      <trkpt lat="47.79124" lon="-3.62506">
        <ele>38.2</ele>
        <time>2020-06-07T13:43:39Z</time>
      </trkpt>
      <trkpt lat="47.7913" lon="-3.62504">
        <ele>38.3</ele>
        <time>2020-06-07T13:43:40Z</time>
      </trkpt>
      <trkpt lat="47.79132" lon="-3.62503">
        <ele>38.4</ele>
        <time>2020-06-07T13:43:41Z</time>
      </trkpt>
      <trkpt lat="47.79137" lon="-3.62503">
        <ele>38.5</ele>
        <time>2020-06-07T13:43:42Z</time>
      </trkpt>
      <trkpt lat="47.79141" lon="-3.62503">
        <ele>38.6</ele>
        <time>2020-06-07T13:43:43Z</time>
      </trkpt>
      <trkpt lat="47.79145" lon="-3.62502">
        <ele>38.8</ele>
        <time>2020-06-07T13:43:44Z</time>
      </trkpt>
      <trkpt lat="47.79148" lon="-3.62501">
        <ele>38.9</ele>
        <time>2020-06-07T13:43:45Z</time>
      </trkpt>
      <trkpt lat="47.79152" lon="-3.62501">
        <ele>39</ele>
        <time>2020-06-07T13:43:46Z</time>
      </trkpt>
      <trkpt lat="47.79156" lon="-3.625">
        <ele>39.1</ele>
        <time>2020-06-07T13:43:47Z</time>
      </trkpt>
      <trkpt lat="47.79159" lon="-3.625">
        <ele>39.2</ele>
        <time>2020-06-07T13:43:48Z</time>
      </trkpt>
      <trkpt lat="47.79162" lon="-3.62499">
        <ele>39.3</ele>
        <time>2020-06-07T13:43:49Z</time>
      </trkpt>
      <trkpt lat="47.79166" lon="-3.62498">
        <ele>39.4</ele>
        <time>2020-06-07T13:43:50Z</time>
      </trkpt>
      <trkpt lat="47.79169" lon="-3.62498">
        <ele>39.5</ele>
        <time>2020-06-07T13:43:51Z</time>
      </trkpt>
      <trkpt lat="47.79173" lon="-3.62496">
        <ele>39.7</ele>
        <time>2020-06-07T13:43:52Z</time>
      </trkpt>
      <trkpt lat="47.79178" lon="-3.62495">
        <ele>39.9</ele>
        <time>2020-06-07T13:43:53Z</time>
      </trkpt>
      <trkpt lat="47.79183" lon="-3.62495">
        <ele>40.1</ele>
        <time>2020-06-07T13:43:54Z</time>
      </trkpt>
      <trkpt lat="47.79188" lon="-3.62494">
        <ele>40.3</ele>
        <time>2020-06-07T13:43:55Z</time>
      </trkpt>
      <trkpt lat="47.79193" lon="-3.62492">
        <ele>40.5</ele>
        <time>2020-06-07T13:43:56Z</time>
      </trkpt>
      <trkpt lat="47.79197" lon="-3.62492">
        <ele>40.6</ele>
        <time>2020-06-07T13:43:57Z</time>
      </trkpt>
      <trkpt lat="47.792" lon="-3.62491">
        <ele>40.8</ele>
        <time>2020-06-07T13:43:58Z</time>
      </trkpt>
      <trkpt lat="47.79204" lon="-3.62489">
        <ele>40.9</ele>
        <time>2020-06-07T13:43:59Z</time>
      </trkpt>
      <trkpt lat="47.79208" lon="-3.62488">
        <ele>41.1</ele>
        <time>2020-06-07T13:44:00Z</time>
      </trkpt>
      <trkpt lat="47.79212" lon="-3.62487">
        <ele>41.3</ele>
        <time>2020-06-07T13:44:01Z</time>
      </trkpt>
      <trkpt lat="47.79217" lon="-3.62486">
        <ele>41.6</ele>
        <time>2020-06-07T13:44:02Z</time>
      </trkpt>
      <trkpt lat="47.7922" lon="-3.62486">
        <ele>41.7</ele>
        <time>2020-06-07T13:44:03Z</time>
      </trkpt>
      <trkpt lat="47.79223" lon="-3.62485">
        <ele>41.9</ele>
        <time>2020-06-07T13:44:04Z</time>
      </trkpt>
      <trkpt lat="47.79227" lon="-3.62484">
        <ele>42.1</ele>
        <time>2020-06-07T13:44:05Z</time>
      </trkpt>
      <trkpt lat="47.79231" lon="-3.62482">
        <ele>42.3</ele>
        <time>2020-06-07T13:44:06Z</time>
      </trkpt>
      <trkpt lat="47.79232" lon="-3.62482">
        <ele>42.4</ele>
        <time>2020-06-07T13:44:07Z</time>
      </trkpt>
      <trkpt lat="47.79236" lon="-3.62481">
        <ele>42.6</ele>
        <time>2020-06-07T13:44:08Z</time>
      </trkpt>
      <trkpt lat="47.7924" lon="-3.62479">
        <ele>42.9</ele>
        <time>2020-06-07T13:44:09Z</time>
      </trkpt>
      <trkpt lat="47.79244" lon="-3.62478">
        <ele>43.1</ele>
        <time>2020-06-07T13:44:10Z</time>
      </trkpt>
      <trkpt lat="47.79245" lon="-3.62478">
        <ele>43.2</ele>
        <time>2020-06-07T13:44:11Z</time>
      </trkpt>
      <trkpt lat="47.79251" lon="-3.62478">
        <ele>43.6</ele>
        <time>2020-06-07T13:44:12Z</time>
      </trkpt>
      <trkpt lat="47.79255" lon="-3.62477">
        <ele>43.9</ele>
        <time>2020-06-07T13:44:13Z</time>
      </trkpt>
      <trkpt lat="47.7926" lon="-3.62477">
        <ele>44.2</ele>
        <time>2020-06-07T13:44:14Z</time>
      </trkpt>
      <trkpt lat="47.79264" lon="-3.62476">
        <ele>44.5</ele>
        <time>2020-06-07T13:44:15Z</time>
      </trkpt>
      <trkpt lat="47.79265" lon="-3.62476">
        <ele>44.6</ele>
        <time>2020-06-07T13:44:16Z</time>
      </trkpt>
      <trkpt lat="47.79269" lon="-3.62476">
        <ele>44.9</ele>
        <time>2020-06-07T13:44:17Z</time>
      </trkpt>
      <trkpt lat="47.7927" lon="-3.62475">
        <ele>44.9</ele>
        <time>2020-06-07T13:44:18Z</time>
      </trkpt>
      <trkpt lat="47.79274" lon="-3.62474">
        <ele>45.2</ele>
        <time>2020-06-07T13:44:19Z</time>
      </trkpt>
      <trkpt lat="47.79277" lon="-3.62473">
        <ele>45.4</ele>
        <time>2020-06-07T13:44:20Z</time>
      </trkpt>
      <trkpt lat="47.79278" lon="-3.62473">
        <ele>45.4</ele>
        <time>2020-06-07T13:44:21Z</time>
      </trkpt>
      <trkpt lat="47.79282" lon="-3.62472">
        <ele>45.6</ele>
        <time>2020-06-07T13:44:22Z</time>
      </trkpt>
      <trkpt lat="47.79284" lon="-3.62472">
        <ele>45.7</ele>
        <time>2020-06-07T13:44:23Z</time>
      </trkpt>
      <trkpt lat="47.79287" lon="-3.62472">
        <ele>45.8</ele>
        <time>2020-06-07T13:44:24Z</time>
      </trkpt>
      <trkpt lat="47.79291" lon="-3.62473">
        <ele>46</ele>
        <time>2020-06-07T13:44:25Z</time>
      </trkpt>
      <trkpt lat="47.79295" lon="-3.62472">
        <ele>46.1</ele>
        <time>2020-06-07T13:44:26Z</time>
      </trkpt>
      <trkpt lat="47.79296" lon="-3.62472">
        <ele>46.2</ele>
        <time>2020-06-07T13:44:27Z</time>
      </trkpt>
      <trkpt lat="47.79303" lon="-3.6247">
        <ele>46.4</ele>
        <time>2020-06-07T13:44:28Z</time>
      </trkpt>
      <trkpt lat="47.7931" lon="-3.62464">
        <ele>46.6</ele>
        <time>2020-06-07T13:44:29Z</time>
      </trkpt>
      <trkpt lat="47.79314" lon="-3.62462">
        <ele>46.6</ele>
        <time>2020-06-07T13:44:30Z</time>
      </trkpt>
      <trkpt lat="47.79318" lon="-3.62461">
        <ele>46.7</ele>
        <time>2020-06-07T13:44:31Z</time>
      </trkpt>
      <trkpt lat="47.79322" lon="-3.6246">
        <ele>46.8</ele>
        <time>2020-06-07T13:44:32Z</time>
      </trkpt>
      <trkpt lat="47.79327" lon="-3.62458">
        <ele>46.8</ele>
        <time>2020-06-07T13:44:33Z</time>
      </trkpt>
      <trkpt lat="47.79331" lon="-3.62458">
        <ele>46.8</ele>
        <time>2020-06-07T13:44:34Z</time>
      </trkpt>
      <trkpt lat="47.79334" lon="-3.62458">
        <ele>46.8</ele>
        <time>2020-06-07T13:44:35Z</time>
      </trkpt>
      <trkpt lat="47.79338" lon="-3.62457">
        <ele>46.8</ele>
        <time>2020-06-07T13:44:36Z</time>
      </trkpt>
      <trkpt lat="47.79342" lon="-3.62457">
        <ele>46.8</ele>
        <time>2020-06-07T13:44:37Z</time>
      </trkpt>
      <trkpt lat="47.79345" lon="-3.62455">
        <ele>46.8</ele>
        <time>2020-06-07T13:44:38Z</time>
      </trkpt>
      <trkpt lat="47.79348" lon="-3.62455">
        <ele>46.8</ele>
        <time>2020-06-07T13:44:39Z</time>
      </trkpt>
      <trkpt lat="47.7935" lon="-3.62455">
        <ele>46.8</ele>
        <time>2020-06-07T13:44:40Z</time>
      </trkpt>
      <trkpt lat="47.79353" lon="-3.62454">
        <ele>46.8</ele>
        <time>2020-06-07T13:44:41Z</time>
      </trkpt>
      <trkpt lat="47.79354" lon="-3.62454">
        <ele>46.8</ele>
        <time>2020-06-07T13:44:42Z</time>
      </trkpt>
      <trkpt lat="47.79356" lon="-3.62453">
        <ele>46.8</ele>
        <time>2020-06-07T13:44:43Z</time>
      </trkpt>
      <trkpt lat="47.79357" lon="-3.62453">
        <ele>46.8</ele>
        <time>2020-06-07T13:44:44Z</time>
      </trkpt>
      <trkpt lat="47.79359" lon="-3.62453">
        <ele>46.8</ele>
        <time>2020-06-07T13:44:45Z</time>
      </trkpt>
      <trkpt lat="47.79361" lon="-3.62453">
        <ele>46.7</ele>
        <time>2020-06-07T13:44:46Z</time>
      </trkpt>
      <trkpt lat="47.79362" lon="-3.62452">
        <ele>46.7</ele>
        <time>2020-06-07T13:44:47Z</time>
      </trkpt>
      <trkpt lat="47.79364" lon="-3.62452">
        <ele>46.7</ele>
        <time>2020-06-07T13:44:48Z</time>
      </trkpt>
      <trkpt lat="47.79365" lon="-3.62452">
        <ele>46.7</ele>
        <time>2020-06-07T13:44:49Z</time>
      </trkpt>
      <trkpt lat="47.79367" lon="-3.62451">
        <ele>46.7</ele>
        <time>2020-06-07T13:44:50Z</time>
      </trkpt>
      <trkpt lat="47.7937" lon="-3.62452">
        <ele>46.7</ele>
        <time>2020-06-07T13:44:51Z</time>
      </trkpt>
      <trkpt lat="47.79371" lon="-3.62452">
        <ele>46.7</ele>
        <time>2020-06-07T13:44:52Z</time>
      </trkpt>
      <trkpt lat="47.79375" lon="-3.6245">
        <ele>46.6</ele>
        <time>2020-06-07T13:44:53Z</time>
      </trkpt>
      <trkpt lat="47.79376" lon="-3.6245">
        <ele>46.6</ele>
        <time>2020-06-07T13:44:54Z</time>
      </trkpt>
      <trkpt lat="47.79378" lon="-3.6245">
        <ele>46.6</ele>
        <time>2020-06-07T13:44:55Z</time>
      </trkpt>
      <trkpt lat="47.79381" lon="-3.6245">
        <ele>46.6</ele>
        <time>2020-06-07T13:44:56Z</time>
      </trkpt>
      <trkpt lat="47.79384" lon="-3.6245">
        <ele>46.5</ele>
        <time>2020-06-07T13:44:57Z</time>
      </trkpt>
      <trkpt lat="47.79387" lon="-3.62449">
        <ele>46.5</ele>
        <time>2020-06-07T13:44:58Z</time>
      </trkpt>
      <trkpt lat="47.79388" lon="-3.62449">
        <ele>46.5</ele>
        <time>2020-06-07T13:44:59Z</time>
      </trkpt>
      <trkpt lat="47.79391" lon="-3.62449">
        <ele>46.5</ele>
        <time>2020-06-07T13:45:00Z</time>
      </trkpt>
      <trkpt lat="47.79394" lon="-3.62449">
        <ele>46.4</ele>
        <time>2020-06-07T13:45:01Z</time>
      </trkpt>
      <trkpt lat="47.79395" lon="-3.62449">
        <ele>46.4</ele>
        <time>2020-06-07T13:45:02Z</time>
      </trkpt>
      <trkpt lat="47.79397" lon="-3.62448">
        <ele>46.4</ele>
        <time>2020-06-07T13:45:03Z</time>
      </trkpt>
      <trkpt lat="47.79399" lon="-3.62447">
        <ele>46.4</ele>
        <time>2020-06-07T13:45:04Z</time>
      </trkpt>
      <trkpt lat="47.794" lon="-3.62447">
        <ele>46.4</ele>
        <time>2020-06-07T13:45:05Z</time>
      </trkpt>
      <trkpt lat="47.79402" lon="-3.62447">
        <ele>46.4</ele>
        <time>2020-06-07T13:45:06Z</time>
      </trkpt>
      <trkpt lat="47.79405" lon="-3.62447">
        <ele>46.3</ele>
        <time>2020-06-07T13:45:07Z</time>
      </trkpt>
      <trkpt lat="47.79406" lon="-3.62447">
        <ele>46.3</ele>
        <time>2020-06-07T13:45:08Z</time>
      </trkpt>
      <trkpt lat="47.7941" lon="-3.62446">
        <ele>46.3</ele>
        <time>2020-06-07T13:45:09Z</time>
      </trkpt>
      <trkpt lat="47.79411" lon="-3.62446">
        <ele>46.3</ele>
        <time>2020-06-07T13:45:10Z</time>
      </trkpt>
      <trkpt lat="47.79414" lon="-3.62445">
        <ele>46.2</ele>
        <time>2020-06-07T13:45:11Z</time>
      </trkpt>
      <trkpt lat="47.79418" lon="-3.62445">
        <ele>46.2</ele>
        <time>2020-06-07T13:45:12Z</time>
      </trkpt>
      <trkpt lat="47.79419" lon="-3.62444">
        <ele>46.2</ele>
        <time>2020-06-07T13:45:13Z</time>
      </trkpt>
      <trkpt lat="47.79422" lon="-3.62444">
        <ele>46.2</ele>
        <time>2020-06-07T13:45:14Z</time>
      </trkpt>
      <trkpt lat="47.79426" lon="-3.62442">
        <ele>46.1</ele>
        <time>2020-06-07T13:45:15Z</time>
      </trkpt>
      <trkpt lat="47.79427" lon="-3.62441">
        <ele>46.1</ele>
        <time>2020-06-07T13:45:16Z</time>
      </trkpt>
      <trkpt lat="47.79431" lon="-3.6244">
        <ele>46.1</ele>
        <time>2020-06-07T13:45:17Z</time>
      </trkpt>
      <trkpt lat="47.79432" lon="-3.62439">
        <ele>46.1</ele>
        <time>2020-06-07T13:45:18Z</time>
      </trkpt>
      <trkpt lat="47.79436" lon="-3.62436">
        <ele>46</ele>
        <time>2020-06-07T13:45:19Z</time>
      </trkpt>
      <trkpt lat="47.79439" lon="-3.62435">
        <ele>46</ele>
        <time>2020-06-07T13:45:20Z</time>
      </trkpt>
      <trkpt lat="47.79443" lon="-3.62435">
        <ele>46</ele>
        <time>2020-06-07T13:45:21Z</time>
      </trkpt>
      <trkpt lat="47.79445" lon="-3.62435">
        <ele>45.9</ele>
        <time>2020-06-07T13:45:22Z</time>
      </trkpt>
      <trkpt lat="47.79448" lon="-3.62433">
        <ele>45.9</ele>
        <time>2020-06-07T13:45:23Z</time>
      </trkpt>
      <trkpt lat="47.7945" lon="-3.62433">
        <ele>45.9</ele>
        <time>2020-06-07T13:45:24Z</time>
      </trkpt>
      <trkpt lat="47.79454" lon="-3.62432">
        <ele>45.8</ele>
        <time>2020-06-07T13:45:25Z</time>
      </trkpt>
      <trkpt lat="47.79457" lon="-3.6243">
        <ele>45.8</ele>
        <time>2020-06-07T13:45:26Z</time>
      </trkpt>
      <trkpt lat="47.79458" lon="-3.62429">
        <ele>45.8</ele>
        <time>2020-06-07T13:45:27Z</time>
      </trkpt>
      <trkpt lat="47.79462" lon="-3.62427">
        <ele>45.7</ele>
        <time>2020-06-07T13:45:28Z</time>
      </trkpt>
      <trkpt lat="47.79465" lon="-3.62425">
        <ele>45.7</ele>
        <time>2020-06-07T13:45:29Z</time>
      </trkpt>
      <trkpt lat="47.79468" lon="-3.62424">
        <ele>45.7</ele>
        <time>2020-06-07T13:45:30Z</time>
      </trkpt>
      <trkpt lat="47.79471" lon="-3.62423">
        <ele>45.6</ele>
        <time>2020-06-07T13:45:31Z</time>
      </trkpt>
      <trkpt lat="47.79473" lon="-3.62422">
        <ele>45.6</ele>
        <time>2020-06-07T13:45:32Z</time>
      </trkpt>
      <trkpt lat="47.79477" lon="-3.62421">
        <ele>45.6</ele>
        <time>2020-06-07T13:45:33Z</time>
      </trkpt>
      <trkpt lat="47.79479" lon="-3.6242">
        <ele>45.6</ele>
        <time>2020-06-07T13:45:34Z</time>
      </trkpt>
      <trkpt lat="47.79482" lon="-3.62419">
        <ele>45.6</ele>
        <time>2020-06-07T13:45:35Z</time>
      </trkpt>
      <trkpt lat="47.79485" lon="-3.62417">
        <ele>45.6</ele>
        <time>2020-06-07T13:45:36Z</time>
      </trkpt>
      <trkpt lat="47.7949" lon="-3.62415">
        <ele>45.5</ele>
        <time>2020-06-07T13:45:37Z</time>
      </trkpt>
      <trkpt lat="47.79494" lon="-3.62414">
        <ele>45.5</ele>
        <time>2020-06-07T13:45:38Z</time>
      </trkpt>
      <trkpt lat="47.79497" lon="-3.62411">
        <ele>45.4</ele>
        <time>2020-06-07T13:45:39Z</time>
      </trkpt>
      <trkpt lat="47.79501" lon="-3.6241">
        <ele>45.4</ele>
        <time>2020-06-07T13:45:40Z</time>
      </trkpt>
      <trkpt lat="47.79503" lon="-3.62408">
        <ele>45.4</ele>
        <time>2020-06-07T13:45:41Z</time>
      </trkpt>
      <trkpt lat="47.79506" lon="-3.62406">
        <ele>45.3</ele>
        <time>2020-06-07T13:45:42Z</time>
      </trkpt>
      <trkpt lat="47.79507" lon="-3.62406">
        <ele>45.3</ele>
        <time>2020-06-07T13:45:43Z</time>
      </trkpt>
      <trkpt lat="47.7951" lon="-3.62404">
        <ele>45.3</ele>
        <time>2020-06-07T13:45:44Z</time>
      </trkpt>
      <trkpt lat="47.79514" lon="-3.62403">
        <ele>45.3</ele>
        <time>2020-06-07T13:45:45Z</time>
      </trkpt>
      <trkpt lat="47.79517" lon="-3.62401">
        <ele>45.3</ele>
        <time>2020-06-07T13:45:46Z</time>
      </trkpt>
      <trkpt lat="47.7952" lon="-3.62399">
        <ele>45.3</ele>
        <time>2020-06-07T13:45:47Z</time>
      </trkpt>
      <trkpt lat="47.79523" lon="-3.62397">
        <ele>45.3</ele>
        <time>2020-06-07T13:45:48Z</time>
      </trkpt>
      <trkpt lat="47.79527" lon="-3.62396">
        <ele>45.3</ele>
        <time>2020-06-07T13:45:49Z</time>
      </trkpt>
      <trkpt lat="47.7953" lon="-3.62394">
        <ele>45.3</ele>
        <time>2020-06-07T13:45:50Z</time>
      </trkpt>
      <trkpt lat="47.79533" lon="-3.62393">
        <ele>45.4</ele>
        <time>2020-06-07T13:45:51Z</time>
      </trkpt>
      <trkpt lat="47.79536" lon="-3.62392">
        <ele>45.4</ele>
        <time>2020-06-07T13:45:52Z</time>
      </trkpt>
      <trkpt lat="47.79539" lon="-3.62391">
        <ele>45.5</ele>
        <time>2020-06-07T13:45:53Z</time>
      </trkpt>
      <trkpt lat="47.79542" lon="-3.6239">
        <ele>45.5</ele>
        <time>2020-06-07T13:45:54Z</time>
      </trkpt>
      <trkpt lat="47.79546" lon="-3.62389">
        <ele>45.6</ele>
        <time>2020-06-07T13:45:55Z</time>
      </trkpt>
      <trkpt lat="47.79549" lon="-3.62387">
        <ele>45.6</ele>
        <time>2020-06-07T13:45:56Z</time>
      </trkpt>
      <trkpt lat="47.79552" lon="-3.62386">
        <ele>45.7</ele>
        <time>2020-06-07T13:45:57Z</time>
      </trkpt>
      <trkpt lat="47.79556" lon="-3.62385">
        <ele>45.8</ele>
        <time>2020-06-07T13:45:58Z</time>
      </trkpt>
      <trkpt lat="47.79559" lon="-3.62383">
        <ele>45.8</ele>
        <time>2020-06-07T13:45:59Z</time>
      </trkpt>
      <trkpt lat="47.79563" lon="-3.62382">
        <ele>45.9</ele>
        <time>2020-06-07T13:46:00Z</time>
      </trkpt>
      <trkpt lat="47.79566" lon="-3.62382">
        <ele>46</ele>
        <time>2020-06-07T13:46:01Z</time>
      </trkpt>
      <trkpt lat="47.7957" lon="-3.62381">
        <ele>46</ele>
        <time>2020-06-07T13:46:02Z</time>
      </trkpt>
      <trkpt lat="47.79573" lon="-3.62379">
        <ele>46.1</ele>
        <time>2020-06-07T13:46:03Z</time>
      </trkpt>
      <trkpt lat="47.79576" lon="-3.62377">
        <ele>46.1</ele>
        <time>2020-06-07T13:46:04Z</time>
      </trkpt>
      <trkpt lat="47.79579" lon="-3.62376">
        <ele>46.2</ele>
        <time>2020-06-07T13:46:05Z</time>
      </trkpt>
      <trkpt lat="47.79582" lon="-3.62374">
        <ele>46.2</ele>
        <time>2020-06-07T13:46:06Z</time>
      </trkpt>
      <trkpt lat="47.79585" lon="-3.62372">
        <ele>46.3</ele>
        <time>2020-06-07T13:46:07Z</time>
      </trkpt>
      <trkpt lat="47.79586" lon="-3.62371">
        <ele>46.3</ele>
        <time>2020-06-07T13:46:08Z</time>
      </trkpt>
      <trkpt lat="47.79589" lon="-3.62369">
        <ele>46.4</ele>
        <time>2020-06-07T13:46:09Z</time>
      </trkpt>
      <trkpt lat="47.79593" lon="-3.62368">
        <ele>46.5</ele>
        <time>2020-06-07T13:46:10Z</time>
      </trkpt>
      <trkpt lat="47.79596" lon="-3.62364">
        <ele>46.5</ele>
        <time>2020-06-07T13:46:11Z</time>
      </trkpt>
      <trkpt lat="47.79601" lon="-3.62363">
        <ele>46.6</ele>
        <time>2020-06-07T13:46:12Z</time>
      </trkpt>
      <trkpt lat="47.79603" lon="-3.62359">
        <ele>46.7</ele>
        <time>2020-06-07T13:46:13Z</time>
      </trkpt>
      <trkpt lat="47.79605" lon="-3.62357">
        <ele>46.7</ele>
        <time>2020-06-07T13:46:14Z</time>
      </trkpt>
      <trkpt lat="47.79607" lon="-3.62356">
        <ele>46.7</ele>
        <time>2020-06-07T13:46:15Z</time>
      </trkpt>
      <trkpt lat="47.7961" lon="-3.62355">
        <ele>46.8</ele>
        <time>2020-06-07T13:46:16Z</time>
      </trkpt>
      <trkpt lat="47.79612" lon="-3.62355">
        <ele>46.8</ele>
        <time>2020-06-07T13:46:17Z</time>
      </trkpt>
      <trkpt lat="47.79613" lon="-3.62355">
        <ele>46.8</ele>
        <time>2020-06-07T13:46:18Z</time>
      </trkpt>
      <trkpt lat="47.79617" lon="-3.62354">
        <ele>46.8</ele>
        <time>2020-06-07T13:46:19Z</time>
      </trkpt>
      <trkpt lat="47.79618" lon="-3.62353">
        <ele>46.9</ele>
        <time>2020-06-07T13:46:20Z</time>
      </trkpt>
      <trkpt lat="47.79621" lon="-3.62352">
        <ele>46.9</ele>
        <time>2020-06-07T13:46:21Z</time>
      </trkpt>
      <trkpt lat="47.79625" lon="-3.62351">
        <ele>46.9</ele>
        <time>2020-06-07T13:46:22Z</time>
      </trkpt>
      <trkpt lat="47.79628" lon="-3.62351">
        <ele>46.9</ele>
        <time>2020-06-07T13:46:23Z</time>
      </trkpt>
      <trkpt lat="47.79631" lon="-3.62349">
        <ele>46.9</ele>
        <time>2020-06-07T13:46:24Z</time>
      </trkpt>
      <trkpt lat="47.79634" lon="-3.62347">
        <ele>46.9</ele>
        <time>2020-06-07T13:46:25Z</time>
      </trkpt>
      <trkpt lat="47.79636" lon="-3.62346">
        <ele>46.8</ele>
        <time>2020-06-07T13:46:26Z</time>
      </trkpt>
      <trkpt lat="47.79639" lon="-3.62343">
        <ele>46.8</ele>
        <time>2020-06-07T13:46:27Z</time>
      </trkpt>
      <trkpt lat="47.7964" lon="-3.62343">
        <ele>46.8</ele>
        <time>2020-06-07T13:46:28Z</time>
      </trkpt>
      <trkpt lat="47.79641" lon="-3.62344">
        <ele>46.8</ele>
        <time>2020-06-07T13:46:29Z</time>
      </trkpt>
      <trkpt lat="47.79641" lon="-3.62345">
        <ele>46.8</ele>
        <time>2020-06-07T13:46:30Z</time>
      </trkpt>
      <trkpt lat="47.79642" lon="-3.62345">
        <ele>46.8</ele>
        <time>2020-06-07T13:46:31Z</time>
      </trkpt>
      <trkpt lat="47.79642" lon="-3.62345">
        <ele>46.8</ele>
        <time>2020-06-07T13:46:32Z</time>
      </trkpt>
      <trkpt lat="47.79643" lon="-3.62346">
        <ele>46.8</ele>
        <time>2020-06-07T13:46:33Z</time>
      </trkpt>
      <trkpt lat="47.79643" lon="-3.62346">
        <ele>46.8</ele>
        <time>2020-06-07T13:46:34Z</time>
      </trkpt>
      <trkpt lat="47.79644" lon="-3.62346">
        <ele>46.8</ele>
        <time>2020-06-07T13:46:35Z</time>
      </trkpt>
      <trkpt lat="47.79644" lon="-3.62347">
        <ele>46.7</ele>
        <time>2020-06-07T13:46:36Z</time>
      </trkpt>
      <trkpt lat="47.79644" lon="-3.62347">
        <ele>46.7</ele>
        <time>2020-06-07T13:46:37Z</time>
      </trkpt>
      <trkpt lat="47.79645" lon="-3.62347">
        <ele>46.7</ele>
        <time>2020-06-07T13:46:38Z</time>
      </trkpt>
      <trkpt lat="47.79645" lon="-3.62348">
        <ele>46.7</ele>
        <time>2020-06-07T13:46:39Z</time>
      </trkpt>
      <trkpt lat="47.79646" lon="-3.62348">
        <ele>46.7</ele>
        <time>2020-06-07T13:46:40Z</time>
      </trkpt>
      <trkpt lat="47.79646" lon="-3.62348">
        <ele>46.7</ele>
        <time>2020-06-07T13:46:52Z</time>
      </trkpt>
      <trkpt lat="47.79647" lon="-3.62349">
        <ele>46.7</ele>
        <time>2020-06-07T13:46:53Z</time>
      </trkpt>
      <trkpt lat="47.79651" lon="-3.62351">
        <ele>46.7</ele>
        <time>2020-06-07T13:46:54Z</time>
      </trkpt>
      <trkpt lat="47.79653" lon="-3.62351">
        <ele>46.6</ele>
        <time>2020-06-07T13:46:55Z</time>
      </trkpt>
      <trkpt lat="47.79656" lon="-3.62354">
        <ele>46.6</ele>
        <time>2020-06-07T13:46:56Z</time>
      </trkpt>
      <trkpt lat="47.79658" lon="-3.62355">
        <ele>46.5</ele>
        <time>2020-06-07T13:46:57Z</time>
      </trkpt>
      <trkpt lat="47.79661" lon="-3.62357">
        <ele>46.5</ele>
        <time>2020-06-07T13:46:58Z</time>
      </trkpt>
      <trkpt lat="47.79665" lon="-3.62359">
        <ele>46.5</ele>
        <time>2020-06-07T13:46:59Z</time>
      </trkpt>
      <trkpt lat="47.79668" lon="-3.62362">
        <ele>46.4</ele>
        <time>2020-06-07T13:47:00Z</time>
      </trkpt>
      <trkpt lat="47.79671" lon="-3.62363">
        <ele>46.4</ele>
        <time>2020-06-07T13:47:01Z</time>
      </trkpt>
      <trkpt lat="47.79675" lon="-3.62364">
        <ele>46.3</ele>
        <time>2020-06-07T13:47:02Z</time>
      </trkpt>
      <trkpt lat="47.79679" lon="-3.62366">
        <ele>46.3</ele>
        <time>2020-06-07T13:47:03Z</time>
      </trkpt>
      <trkpt lat="47.79682" lon="-3.62367">
        <ele>46.3</ele>
        <time>2020-06-07T13:47:04Z</time>
      </trkpt>
      <trkpt lat="47.79685" lon="-3.6237">
        <ele>46.2</ele>
        <time>2020-06-07T13:47:05Z</time>
      </trkpt>
      <trkpt lat="47.79687" lon="-3.62371">
        <ele>46.2</ele>
        <time>2020-06-07T13:47:06Z</time>
      </trkpt>
      <trkpt lat="47.79689" lon="-3.62373">
        <ele>46.1</ele>
        <time>2020-06-07T13:47:07Z</time>
      </trkpt>
      <trkpt lat="47.79692" lon="-3.62378">
        <ele>46.1</ele>
        <time>2020-06-07T13:47:08Z</time>
      </trkpt>
      <trkpt lat="47.79695" lon="-3.62381">
        <ele>46</ele>
        <time>2020-06-07T13:47:09Z</time>
      </trkpt>
      <trkpt lat="47.79697" lon="-3.62384">
        <ele>45.9</ele>
        <time>2020-06-07T13:47:10Z</time>
      </trkpt>
      <trkpt lat="47.79701" lon="-3.62386">
        <ele>45.8</ele>
        <time>2020-06-07T13:47:11Z</time>
      </trkpt>
      <trkpt lat="47.79704" lon="-3.62389">
        <ele>45.7</ele>
        <time>2020-06-07T13:47:12Z</time>
      </trkpt>
      <trkpt lat="47.79708" lon="-3.62391">
        <ele>45.6</ele>
        <time>2020-06-07T13:47:13Z</time>
      </trkpt>
      <trkpt lat="47.79711" lon="-3.62394">
        <ele>45.5</ele>
        <time>2020-06-07T13:47:14Z</time>
      </trkpt>
      <trkpt lat="47.79715" lon="-3.62396">
        <ele>45.4</ele>
        <time>2020-06-07T13:47:15Z</time>
      </trkpt>
      <trkpt lat="47.79719" lon="-3.624">
        <ele>45.3</ele>
        <time>2020-06-07T13:47:16Z</time>
      </trkpt>
      <trkpt lat="47.79723" lon="-3.62403">
        <ele>45.2</ele>
        <time>2020-06-07T13:47:17Z</time>
      </trkpt>
      <trkpt lat="47.79728" lon="-3.62406">
        <ele>45.1</ele>
        <time>2020-06-07T13:47:18Z</time>
      </trkpt>
      <trkpt lat="47.79731" lon="-3.62408">
        <ele>45</ele>
        <time>2020-06-07T13:47:19Z</time>
      </trkpt>
      <trkpt lat="47.79737" lon="-3.62411">
        <ele>44.8</ele>
        <time>2020-06-07T13:47:20Z</time>
      </trkpt>
      <trkpt lat="47.79741" lon="-3.62413">
        <ele>44.7</ele>
        <time>2020-06-07T13:47:21Z</time>
      </trkpt>
      <trkpt lat="47.79746" lon="-3.62418">
        <ele>44.5</ele>
        <time>2020-06-07T13:47:22Z</time>
      </trkpt>
      <trkpt lat="47.7975" lon="-3.62421">
        <ele>44.3</ele>
        <time>2020-06-07T13:47:23Z</time>
      </trkpt>
      <trkpt lat="47.79756" lon="-3.62424">
        <ele>44.1</ele>
        <time>2020-06-07T13:47:24Z</time>
      </trkpt>
      <trkpt lat="47.79761" lon="-3.62427">
        <ele>43.9</ele>
        <time>2020-06-07T13:47:25Z</time>
      </trkpt>
      <trkpt lat="47.79766" lon="-3.62431">
        <ele>43.7</ele>
        <time>2020-06-07T13:47:26Z</time>
      </trkpt>
      <trkpt lat="47.7977" lon="-3.62435">
        <ele>43.5</ele>
        <time>2020-06-07T13:47:27Z</time>
      </trkpt>
      <trkpt lat="47.79776" lon="-3.62439">
        <ele>43.3</ele>
        <time>2020-06-07T13:47:28Z</time>
      </trkpt>
      <trkpt lat="47.79781" lon="-3.62443">
        <ele>43.1</ele>
        <time>2020-06-07T13:47:29Z</time>
      </trkpt>
      <trkpt lat="47.79786" lon="-3.62446">
        <ele>43</ele>
        <time>2020-06-07T13:47:30Z</time>
      </trkpt>
      <trkpt lat="47.79791" lon="-3.6245">
        <ele>42.8</ele>
        <time>2020-06-07T13:47:31Z</time>
      </trkpt>
      <trkpt lat="47.79796" lon="-3.62455">
        <ele>42.7</ele>
        <time>2020-06-07T13:47:32Z</time>
      </trkpt>
      <trkpt lat="47.79802" lon="-3.62459">
        <ele>42.6</ele>
        <time>2020-06-07T13:47:33Z</time>
      </trkpt>
      <trkpt lat="47.79809" lon="-3.62463">
        <ele>42.5</ele>
        <time>2020-06-07T13:47:34Z</time>
      </trkpt>
      <trkpt lat="47.79816" lon="-3.62466">
        <ele>42.6</ele>
        <time>2020-06-07T13:47:35Z</time>
      </trkpt>
      <trkpt lat="47.79821" lon="-3.62467">
        <ele>42.6</ele>
        <time>2020-06-07T13:47:36Z</time>
      </trkpt>
      <trkpt lat="47.79826" lon="-3.62467">
        <ele>42.6</ele>
        <time>2020-06-07T13:47:37Z</time>
      </trkpt>
      <trkpt lat="47.79831" lon="-3.62468">
        <ele>42.6</ele>
        <time>2020-06-07T13:47:38Z</time>
      </trkpt>
      <trkpt lat="47.79836" lon="-3.62468">
        <ele>42.6</ele>
        <time>2020-06-07T13:47:39Z</time>
      </trkpt>
      <trkpt lat="47.7984" lon="-3.62468">
        <ele>42.7</ele>
        <time>2020-06-07T13:47:40Z</time>
      </trkpt>
      <trkpt lat="47.79843" lon="-3.62467">
        <ele>42.7</ele>
        <time>2020-06-07T13:47:41Z</time>
      </trkpt>
      <trkpt lat="47.79847" lon="-3.62466">
        <ele>42.7</ele>
        <time>2020-06-07T13:47:42Z</time>
      </trkpt>
      <trkpt lat="47.79851" lon="-3.62466">
        <ele>42.7</ele>
        <time>2020-06-07T13:47:43Z</time>
      </trkpt>
      <trkpt lat="47.79855" lon="-3.62466">
        <ele>42.7</ele>
        <time>2020-06-07T13:47:44Z</time>
      </trkpt>
      <trkpt lat="47.79861" lon="-3.62467">
        <ele>42.7</ele>
        <time>2020-06-07T13:47:45Z</time>
      </trkpt>
      <trkpt lat="47.79867" lon="-3.62467">
        <ele>42.7</ele>
        <time>2020-06-07T13:47:46Z</time>
      </trkpt>
      <trkpt lat="47.79871" lon="-3.62467">
        <ele>42.7</ele>
        <time>2020-06-07T13:47:47Z</time>
      </trkpt>
      <trkpt lat="47.79875" lon="-3.62468">
        <ele>42.7</ele>
        <time>2020-06-07T13:47:48Z</time>
      </trkpt>
      <trkpt lat="47.79881" lon="-3.62468">
        <ele>42.7</ele>
        <time>2020-06-07T13:47:49Z</time>
      </trkpt>
      <trkpt lat="47.79885" lon="-3.62468">
        <ele>42.7</ele>
        <time>2020-06-07T13:47:50Z</time>
      </trkpt>
      <trkpt lat="47.7989" lon="-3.62467">
        <ele>42.7</ele>
        <time>2020-06-07T13:47:51Z</time>
      </trkpt>
      <trkpt lat="47.79896" lon="-3.62468">
        <ele>42.8</ele>
        <time>2020-06-07T13:47:52Z</time>
      </trkpt>
      <trkpt lat="47.79901" lon="-3.62468">
        <ele>42.8</ele>
        <time>2020-06-07T13:47:53Z</time>
      </trkpt>
      <trkpt lat="47.79905" lon="-3.62469">
        <ele>42.9</ele>
        <time>2020-06-07T13:47:54Z</time>
      </trkpt>
      <trkpt lat="47.7991" lon="-3.62469">
        <ele>42.9</ele>
        <time>2020-06-07T13:47:55Z</time>
      </trkpt>
      <trkpt lat="47.79914" lon="-3.6247">
        <ele>42.9</ele>
        <time>2020-06-07T13:47:56Z</time>
      </trkpt>
      <trkpt lat="47.79919" lon="-3.62471">
        <ele>42.9</ele>
        <time>2020-06-07T13:47:57Z</time>
      </trkpt>
      <trkpt lat="47.79923" lon="-3.62471">
        <ele>43</ele>
        <time>2020-06-07T13:47:58Z</time>
      </trkpt>
      <trkpt lat="47.79928" lon="-3.6247">
        <ele>43</ele>
        <time>2020-06-07T13:47:59Z</time>
      </trkpt>
      <trkpt lat="47.79932" lon="-3.62471">
        <ele>43</ele>
        <time>2020-06-07T13:48:00Z</time>
      </trkpt>
      <trkpt lat="47.79937" lon="-3.62471">
        <ele>43</ele>
        <time>2020-06-07T13:48:01Z</time>
      </trkpt>
      <trkpt lat="47.79941" lon="-3.62471">
        <ele>43.1</ele>
        <time>2020-06-07T13:48:02Z</time>
      </trkpt>
      <trkpt lat="47.79945" lon="-3.62471">
        <ele>43.2</ele>
        <time>2020-06-07T13:48:03Z</time>
      </trkpt>
      <trkpt lat="47.7995" lon="-3.62471">
        <ele>43.3</ele>
        <time>2020-06-07T13:48:04Z</time>
      </trkpt>
      <trkpt lat="47.79953" lon="-3.62472">
        <ele>43.4</ele>
        <time>2020-06-07T13:48:05Z</time>
      </trkpt>
      <trkpt lat="47.79958" lon="-3.62473">
        <ele>43.5</ele>
        <time>2020-06-07T13:48:06Z</time>
      </trkpt>
      <trkpt lat="47.79962" lon="-3.62473">
        <ele>43.7</ele>
        <time>2020-06-07T13:48:07Z</time>
      </trkpt>
      <trkpt lat="47.79965" lon="-3.62473">
        <ele>43.8</ele>
        <time>2020-06-07T13:48:08Z</time>
      </trkpt>
      <trkpt lat="47.79969" lon="-3.62473">
        <ele>43.9</ele>
        <time>2020-06-07T13:48:09Z</time>
      </trkpt>
      <trkpt lat="47.79973" lon="-3.62474">
        <ele>44.1</ele>
        <time>2020-06-07T13:48:10Z</time>
      </trkpt>
      <trkpt lat="47.79977" lon="-3.62474">
        <ele>44.2</ele>
        <time>2020-06-07T13:48:11Z</time>
      </trkpt>
      <trkpt lat="47.79981" lon="-3.62474">
        <ele>44.4</ele>
        <time>2020-06-07T13:48:12Z</time>
      </trkpt>
      <trkpt lat="47.79984" lon="-3.62474">
        <ele>44.5</ele>
        <time>2020-06-07T13:48:13Z</time>
      </trkpt>
      <trkpt lat="47.79987" lon="-3.62475">
        <ele>44.6</ele>
        <time>2020-06-07T13:48:14Z</time>
      </trkpt>
      <trkpt lat="47.79991" lon="-3.62475">
        <ele>44.7</ele>
        <time>2020-06-07T13:48:15Z</time>
      </trkpt>
      <trkpt lat="47.79995" lon="-3.62476">
        <ele>44.9</ele>
        <time>2020-06-07T13:48:16Z</time>
      </trkpt>
      <trkpt lat="47.8" lon="-3.62476">
        <ele>45</ele>
        <time>2020-06-07T13:48:17Z</time>
      </trkpt>
      <trkpt lat="47.80004" lon="-3.62477">
        <ele>45.1</ele>
        <time>2020-06-07T13:48:18Z</time>
      </trkpt>
      <trkpt lat="47.80009" lon="-3.62477">
        <ele>45.3</ele>
        <time>2020-06-07T13:48:19Z</time>
      </trkpt>
      <trkpt lat="47.80011" lon="-3.62478">
        <ele>45.3</ele>
        <time>2020-06-07T13:48:20Z</time>
      </trkpt>
      <trkpt lat="47.80015" lon="-3.62478">
        <ele>45.4</ele>
        <time>2020-06-07T13:48:21Z</time>
      </trkpt>
      <trkpt lat="47.80018" lon="-3.62478">
        <ele>45.5</ele>
        <time>2020-06-07T13:48:22Z</time>
      </trkpt>
      <trkpt lat="47.80023" lon="-3.6248">
        <ele>45.6</ele>
        <time>2020-06-07T13:48:23Z</time>
      </trkpt>
      <trkpt lat="47.80027" lon="-3.62482">
        <ele>45.7</ele>
        <time>2020-06-07T13:48:24Z</time>
      </trkpt>
      <trkpt lat="47.8003" lon="-3.62483">
        <ele>45.7</ele>
        <time>2020-06-07T13:48:25Z</time>
      </trkpt>
      <trkpt lat="47.80034" lon="-3.62485">
        <ele>45.8</ele>
        <time>2020-06-07T13:48:26Z</time>
      </trkpt>
      <trkpt lat="47.80038" lon="-3.62486">
        <ele>45.9</ele>
        <time>2020-06-07T13:48:27Z</time>
      </trkpt>
      <trkpt lat="47.80042" lon="-3.62489">
        <ele>46.1</ele>
        <time>2020-06-07T13:48:28Z</time>
      </trkpt>
      <trkpt lat="47.80046" lon="-3.62491">
        <ele>46.2</ele>
        <time>2020-06-07T13:48:29Z</time>
      </trkpt>
      <trkpt lat="47.80049" lon="-3.62494">
        <ele>46.3</ele>
        <time>2020-06-07T13:48:30Z</time>
      </trkpt>
      <trkpt lat="47.80053" lon="-3.62496">
        <ele>46.4</ele>
        <time>2020-06-07T13:48:31Z</time>
      </trkpt>
      <trkpt lat="47.80057" lon="-3.62497">
        <ele>46.5</ele>
        <time>2020-06-07T13:48:32Z</time>
      </trkpt>
      <trkpt lat="47.80061" lon="-3.625">
        <ele>46.6</ele>
        <time>2020-06-07T13:48:33Z</time>
      </trkpt>
      <trkpt lat="47.80066" lon="-3.62502">
        <ele>46.8</ele>
        <time>2020-06-07T13:48:34Z</time>
      </trkpt>
      <trkpt lat="47.8007" lon="-3.62504">
        <ele>46.8</ele>
        <time>2020-06-07T13:48:35Z</time>
      </trkpt>
      <trkpt lat="47.80073" lon="-3.62506">
        <ele>46.9</ele>
        <time>2020-06-07T13:48:36Z</time>
      </trkpt>
      <trkpt lat="47.80076" lon="-3.62508">
        <ele>47</ele>
        <time>2020-06-07T13:48:37Z</time>
      </trkpt>
      <trkpt lat="47.80079" lon="-3.6251">
        <ele>47</ele>
        <time>2020-06-07T13:48:38Z</time>
      </trkpt>
      <trkpt lat="47.80082" lon="-3.62512">
        <ele>47.1</ele>
        <time>2020-06-07T13:48:39Z</time>
      </trkpt>
      <trkpt lat="47.80085" lon="-3.62514">
        <ele>47.1</ele>
        <time>2020-06-07T13:48:40Z</time>
      </trkpt>
      <trkpt lat="47.80088" lon="-3.62516">
        <ele>47.1</ele>
        <time>2020-06-07T13:48:41Z</time>
      </trkpt>
      <trkpt lat="47.80092" lon="-3.62519">
        <ele>47.2</ele>
        <time>2020-06-07T13:48:42Z</time>
      </trkpt>
      <trkpt lat="47.80096" lon="-3.62521">
        <ele>47.2</ele>
        <time>2020-06-07T13:48:43Z</time>
      </trkpt>
      <trkpt lat="47.801" lon="-3.62523">
        <ele>47.2</ele>
        <time>2020-06-07T13:48:44Z</time>
      </trkpt>
      <trkpt lat="47.80103" lon="-3.62525">
        <ele>47.2</ele>
        <time>2020-06-07T13:48:45Z</time>
      </trkpt>
      <trkpt lat="47.80106" lon="-3.62528">
        <ele>47.2</ele>
        <time>2020-06-07T13:48:46Z</time>
      </trkpt>
      <trkpt lat="47.80109" lon="-3.62529">
        <ele>47.1</ele>
        <time>2020-06-07T13:48:47Z</time>
      </trkpt>
      <trkpt lat="47.80113" lon="-3.62531">
        <ele>47.1</ele>
        <time>2020-06-07T13:48:48Z</time>
      </trkpt>
      <trkpt lat="47.80118" lon="-3.62533">
        <ele>47.1</ele>
        <time>2020-06-07T13:48:49Z</time>
      </trkpt>
      <trkpt lat="47.80122" lon="-3.62535">
        <ele>47.1</ele>
        <time>2020-06-07T13:48:50Z</time>
      </trkpt>
      <trkpt lat="47.80126" lon="-3.62538">
        <ele>47</ele>
        <time>2020-06-07T13:48:51Z</time>
      </trkpt>
      <trkpt lat="47.80131" lon="-3.6254">
        <ele>46.9</ele>
        <time>2020-06-07T13:48:52Z</time>
      </trkpt>
      <trkpt lat="47.80135" lon="-3.62544">
        <ele>46.9</ele>
        <time>2020-06-07T13:48:53Z</time>
      </trkpt>
      <trkpt lat="47.8014" lon="-3.62547">
        <ele>46.8</ele>
        <time>2020-06-07T13:48:54Z</time>
      </trkpt>
      <trkpt lat="47.80145" lon="-3.62549">
        <ele>46.7</ele>
        <time>2020-06-07T13:48:55Z</time>
      </trkpt>
      <trkpt lat="47.80151" lon="-3.62552">
        <ele>46.6</ele>
        <time>2020-06-07T13:48:56Z</time>
      </trkpt>
      <trkpt lat="47.80155" lon="-3.62554">
        <ele>46.5</ele>
        <time>2020-06-07T13:48:57Z</time>
      </trkpt>
      <trkpt lat="47.80161" lon="-3.62556">
        <ele>46.4</ele>
        <time>2020-06-07T13:48:58Z</time>
      </trkpt>
      <trkpt lat="47.80165" lon="-3.62559">
        <ele>46.4</ele>
        <time>2020-06-07T13:48:59Z</time>
      </trkpt>
      <trkpt lat="47.80169" lon="-3.62562">
        <ele>46.3</ele>
        <time>2020-06-07T13:49:00Z</time>
      </trkpt>
      <trkpt lat="47.80173" lon="-3.62565">
        <ele>46.3</ele>
        <time>2020-06-07T13:49:01Z</time>
      </trkpt>
      <trkpt lat="47.80177" lon="-3.62567">
        <ele>46.3</ele>
        <time>2020-06-07T13:49:02Z</time>
      </trkpt>
      <trkpt lat="47.8018" lon="-3.62569">
        <ele>46.3</ele>
        <time>2020-06-07T13:49:03Z</time>
      </trkpt>
      <trkpt lat="47.80184" lon="-3.62573">
        <ele>46.3</ele>
        <time>2020-06-07T13:49:04Z</time>
      </trkpt>
      <trkpt lat="47.80188" lon="-3.62576">
        <ele>46.3</ele>
        <time>2020-06-07T13:49:05Z</time>
      </trkpt>
      <trkpt lat="47.80193" lon="-3.6258">
        <ele>46.4</ele>
        <time>2020-06-07T13:49:06Z</time>
      </trkpt>
      <trkpt lat="47.80198" lon="-3.62584">
        <ele>46.5</ele>
        <time>2020-06-07T13:49:07Z</time>
      </trkpt>
      <trkpt lat="47.80203" lon="-3.62588">
        <ele>46.5</ele>
        <time>2020-06-07T13:49:08Z</time>
      </trkpt>
      <trkpt lat="47.80208" lon="-3.6259">
        <ele>46.6</ele>
        <time>2020-06-07T13:49:09Z</time>
      </trkpt>
      <trkpt lat="47.80213" lon="-3.62593">
        <ele>46.7</ele>
        <time>2020-06-07T13:49:10Z</time>
      </trkpt>
      <trkpt lat="47.80218" lon="-3.62595">
        <ele>46.8</ele>
        <time>2020-06-07T13:49:11Z</time>
      </trkpt>
      <trkpt lat="47.80223" lon="-3.62597">
        <ele>46.8</ele>
        <time>2020-06-07T13:49:12Z</time>
      </trkpt>
      <trkpt lat="47.80227" lon="-3.62601">
        <ele>47</ele>
        <time>2020-06-07T13:49:13Z</time>
      </trkpt>
      <trkpt lat="47.80232" lon="-3.62605">
        <ele>47.1</ele>
        <time>2020-06-07T13:49:14Z</time>
      </trkpt>
      <trkpt lat="47.80236" lon="-3.62608">
        <ele>47.2</ele>
        <time>2020-06-07T13:49:15Z</time>
      </trkpt>
      <trkpt lat="47.80239" lon="-3.6261">
        <ele>47.3</ele>
        <time>2020-06-07T13:49:16Z</time>
      </trkpt>
      <trkpt lat="47.80243" lon="-3.62612">
        <ele>47.5</ele>
        <time>2020-06-07T13:49:17Z</time>
      </trkpt>
      <trkpt lat="47.80246" lon="-3.62614">
        <ele>47.6</ele>
        <time>2020-06-07T13:49:18Z</time>
      </trkpt>
      <trkpt lat="47.8025" lon="-3.62617">
        <ele>47.7</ele>
        <time>2020-06-07T13:49:19Z</time>
      </trkpt>
      <trkpt lat="47.80253" lon="-3.62621">
        <ele>47.9</ele>
        <time>2020-06-07T13:49:20Z</time>
      </trkpt>
      <trkpt lat="47.80257" lon="-3.62625">
        <ele>48</ele>
        <time>2020-06-07T13:49:21Z</time>
      </trkpt>
      <trkpt lat="47.8026" lon="-3.62627">
        <ele>48.1</ele>
        <time>2020-06-07T13:49:22Z</time>
      </trkpt>
      <trkpt lat="47.80263" lon="-3.62629">
        <ele>48.3</ele>
        <time>2020-06-07T13:49:23Z</time>
      </trkpt>
      <trkpt lat="47.80266" lon="-3.62632">
        <ele>48.4</ele>
        <time>2020-06-07T13:49:24Z</time>
      </trkpt>
      <trkpt lat="47.80271" lon="-3.62635">
        <ele>48.6</ele>
        <time>2020-06-07T13:49:25Z</time>
      </trkpt>
      <trkpt lat="47.80275" lon="-3.62638">
        <ele>48.7</ele>
        <time>2020-06-07T13:49:26Z</time>
      </trkpt>
      <trkpt lat="47.80279" lon="-3.6264">
        <ele>48.9</ele>
        <time>2020-06-07T13:49:27Z</time>
      </trkpt>
      <trkpt lat="47.80284" lon="-3.62643">
        <ele>49.1</ele>
        <time>2020-06-07T13:49:28Z</time>
      </trkpt>
      <trkpt lat="47.80287" lon="-3.62645">
        <ele>49.3</ele>
        <time>2020-06-07T13:49:29Z</time>
      </trkpt>
      <trkpt lat="47.80291" lon="-3.62647">
        <ele>49.4</ele>
        <time>2020-06-07T13:49:30Z</time>
      </trkpt>
      <trkpt lat="47.80294" lon="-3.62648">
        <ele>49.6</ele>
        <time>2020-06-07T13:49:31Z</time>
      </trkpt>
      <trkpt lat="47.80298" lon="-3.62651">
        <ele>49.8</ele>
        <time>2020-06-07T13:49:32Z</time>
      </trkpt>
      <trkpt lat="47.80301" lon="-3.62652">
        <ele>50</ele>
        <time>2020-06-07T13:49:33Z</time>
      </trkpt>
      <trkpt lat="47.80305" lon="-3.62654">
        <ele>50.1</ele>
        <time>2020-06-07T13:49:34Z</time>
      </trkpt>
      <trkpt lat="47.80308" lon="-3.62657">
        <ele>50.3</ele>
        <time>2020-06-07T13:49:35Z</time>
      </trkpt>
      <trkpt lat="47.80312" lon="-3.62657">
        <ele>50.4</ele>
        <time>2020-06-07T13:49:36Z</time>
      </trkpt>
      <trkpt lat="47.80315" lon="-3.62659">
        <ele>50.6</ele>
        <time>2020-06-07T13:49:37Z</time>
      </trkpt>
      <trkpt lat="47.80318" lon="-3.62661">
        <ele>50.7</ele>
        <time>2020-06-07T13:49:38Z</time>
      </trkpt>
      <trkpt lat="47.80321" lon="-3.62663">
        <ele>50.8</ele>
        <time>2020-06-07T13:49:39Z</time>
      </trkpt>
      <trkpt lat="47.80325" lon="-3.62664">
        <ele>51</ele>
        <time>2020-06-07T13:49:40Z</time>
      </trkpt>
      <trkpt lat="47.80328" lon="-3.62666">
        <ele>51.1</ele>
        <time>2020-06-07T13:49:41Z</time>
      </trkpt>
      <trkpt lat="47.80332" lon="-3.62668">
        <ele>51.2</ele>
        <time>2020-06-07T13:49:42Z</time>
      </trkpt>
      <trkpt lat="47.80337" lon="-3.6267">
        <ele>51.4</ele>
        <time>2020-06-07T13:49:43Z</time>
      </trkpt>
      <trkpt lat="47.8034" lon="-3.62673">
        <ele>51.5</ele>
        <time>2020-06-07T13:49:44Z</time>
      </trkpt>
      <trkpt lat="47.80344" lon="-3.62674">
        <ele>51.6</ele>
        <time>2020-06-07T13:49:45Z</time>
      </trkpt>
      <trkpt lat="47.80346" lon="-3.62675">
        <ele>51.7</ele>
        <time>2020-06-07T13:49:46Z</time>
      </trkpt>
      <trkpt lat="47.80349" lon="-3.62677">
        <ele>51.8</ele>
        <time>2020-06-07T13:49:47Z</time>
      </trkpt>
      <trkpt lat="47.80353" lon="-3.62679">
        <ele>51.9</ele>
        <time>2020-06-07T13:49:48Z</time>
      </trkpt>
      <trkpt lat="47.80356" lon="-3.62682">
        <ele>52</ele>
        <time>2020-06-07T13:49:49Z</time>
      </trkpt>
      <trkpt lat="47.80361" lon="-3.62685">
        <ele>52.1</ele>
        <time>2020-06-07T13:49:50Z</time>
      </trkpt>
      <trkpt lat="47.80366" lon="-3.62691">
        <ele>52.2</ele>
        <time>2020-06-07T13:49:51Z</time>
      </trkpt>
      <trkpt lat="47.8037" lon="-3.62694">
        <ele>52.3</ele>
        <time>2020-06-07T13:49:52Z</time>
      </trkpt>
      <trkpt lat="47.80375" lon="-3.62696">
        <ele>52.5</ele>
        <time>2020-06-07T13:49:53Z</time>
      </trkpt>
      <trkpt lat="47.8038" lon="-3.62698">
        <ele>52.6</ele>
        <time>2020-06-07T13:49:54Z</time>
      </trkpt>
      <trkpt lat="47.80384" lon="-3.62699">
        <ele>52.7</ele>
        <time>2020-06-07T13:49:55Z</time>
      </trkpt>
      <trkpt lat="47.80388" lon="-3.62702">
        <ele>52.8</ele>
        <time>2020-06-07T13:49:56Z</time>
      </trkpt>
      <trkpt lat="47.80391" lon="-3.62704">
        <ele>52.8</ele>
        <time>2020-06-07T13:49:57Z</time>
      </trkpt>
      <trkpt lat="47.80395" lon="-3.62706">
        <ele>52.9</ele>
        <time>2020-06-07T13:49:58Z</time>
      </trkpt>
      <trkpt lat="47.80399" lon="-3.62708">
        <ele>53</ele>
        <time>2020-06-07T13:49:59Z</time>
      </trkpt>
      <trkpt lat="47.80403" lon="-3.62709">
        <ele>53.1</ele>
        <time>2020-06-07T13:50:00Z</time>
      </trkpt>
      <trkpt lat="47.80406" lon="-3.62711">
        <ele>53.2</ele>
        <time>2020-06-07T13:50:01Z</time>
      </trkpt>
      <trkpt lat="47.8041" lon="-3.62714">
        <ele>53.2</ele>
        <time>2020-06-07T13:50:02Z</time>
      </trkpt>
      <trkpt lat="47.80413" lon="-3.62715">
        <ele>53.3</ele>
        <time>2020-06-07T13:50:03Z</time>
      </trkpt>
      <trkpt lat="47.80416" lon="-3.62718">
        <ele>53.4</ele>
        <time>2020-06-07T13:50:04Z</time>
      </trkpt>
      <trkpt lat="47.8042" lon="-3.62721">
        <ele>53.5</ele>
        <time>2020-06-07T13:50:05Z</time>
      </trkpt>
      <trkpt lat="47.80424" lon="-3.62723">
        <ele>53.5</ele>
        <time>2020-06-07T13:50:06Z</time>
      </trkpt>
      <trkpt lat="47.80427" lon="-3.62725">
        <ele>53.6</ele>
        <time>2020-06-07T13:50:07Z</time>
      </trkpt>
      <trkpt lat="47.8043" lon="-3.62726">
        <ele>53.7</ele>
        <time>2020-06-07T13:50:08Z</time>
      </trkpt>
      <trkpt lat="47.80435" lon="-3.62728">
        <ele>53.7</ele>
        <time>2020-06-07T13:50:09Z</time>
      </trkpt>
      <trkpt lat="47.80438" lon="-3.62729">
        <ele>53.8</ele>
        <time>2020-06-07T13:50:10Z</time>
      </trkpt>
      <trkpt lat="47.80443" lon="-3.62731">
        <ele>53.9</ele>
        <time>2020-06-07T13:50:11Z</time>
      </trkpt>
      <trkpt lat="47.80447" lon="-3.62733">
        <ele>54</ele>
        <time>2020-06-07T13:50:12Z</time>
      </trkpt>
      <trkpt lat="47.80452" lon="-3.62735">
        <ele>54.1</ele>
        <time>2020-06-07T13:50:13Z</time>
      </trkpt>
      <trkpt lat="47.80456" lon="-3.62738">
        <ele>54.2</ele>
        <time>2020-06-07T13:50:14Z</time>
      </trkpt>
      <trkpt lat="47.8046" lon="-3.62741">
        <ele>54.3</ele>
        <time>2020-06-07T13:50:15Z</time>
      </trkpt>
      <trkpt lat="47.80464" lon="-3.62743">
        <ele>54.3</ele>
        <time>2020-06-07T13:50:16Z</time>
      </trkpt>
      <trkpt lat="47.80468" lon="-3.62745">
        <ele>54.4</ele>
        <time>2020-06-07T13:50:17Z</time>
      </trkpt>
      <trkpt lat="47.80472" lon="-3.62746">
        <ele>54.4</ele>
        <time>2020-06-07T13:50:18Z</time>
      </trkpt>
      <trkpt lat="47.80476" lon="-3.62747">
        <ele>54.5</ele>
        <time>2020-06-07T13:50:19Z</time>
      </trkpt>
      <trkpt lat="47.8048" lon="-3.62749">
        <ele>54.5</ele>
        <time>2020-06-07T13:50:20Z</time>
      </trkpt>
      <trkpt lat="47.80484" lon="-3.6275">
        <ele>54.6</ele>
        <time>2020-06-07T13:50:21Z</time>
      </trkpt>
      <trkpt lat="47.80487" lon="-3.62751">
        <ele>54.6</ele>
        <time>2020-06-07T13:50:22Z</time>
      </trkpt>
      <trkpt lat="47.80491" lon="-3.62754">
        <ele>54.7</ele>
        <time>2020-06-07T13:50:23Z</time>
      </trkpt>
      <trkpt lat="47.80495" lon="-3.62755">
        <ele>54.8</ele>
        <time>2020-06-07T13:50:24Z</time>
      </trkpt>
      <trkpt lat="47.80499" lon="-3.62755">
        <ele>54.8</ele>
        <time>2020-06-07T13:50:25Z</time>
      </trkpt>
      <trkpt lat="47.80502" lon="-3.62756">
        <ele>54.9</ele>
        <time>2020-06-07T13:50:26Z</time>
      </trkpt>
      <trkpt lat="47.80506" lon="-3.62759">
        <ele>55</ele>
        <time>2020-06-07T13:50:27Z</time>
      </trkpt>
      <trkpt lat="47.80511" lon="-3.62762">
        <ele>55.1</ele>
        <time>2020-06-07T13:50:28Z</time>
      </trkpt>
      <trkpt lat="47.80514" lon="-3.62764">
        <ele>55.1</ele>
        <time>2020-06-07T13:50:29Z</time>
      </trkpt>
      <trkpt lat="47.80518" lon="-3.62766">
        <ele>55.2</ele>
        <time>2020-06-07T13:50:30Z</time>
      </trkpt>
      <trkpt lat="47.80523" lon="-3.62768">
        <ele>55.3</ele>
        <time>2020-06-07T13:50:31Z</time>
      </trkpt>
      <trkpt lat="47.80527" lon="-3.62769">
        <ele>55.4</ele>
        <time>2020-06-07T13:50:32Z</time>
      </trkpt>
      <trkpt lat="47.80531" lon="-3.62767">
        <ele>55.4</ele>
        <time>2020-06-07T13:50:33Z</time>
      </trkpt>
      <trkpt lat="47.80534" lon="-3.62763">
        <ele>55.5</ele>
        <time>2020-06-07T13:50:34Z</time>
      </trkpt>
      <trkpt lat="47.80538" lon="-3.62758">
        <ele>55.6</ele>
        <time>2020-06-07T13:50:35Z</time>
      </trkpt>
      <trkpt lat="47.80541" lon="-3.62755">
        <ele>55.6</ele>
        <time>2020-06-07T13:50:36Z</time>
      </trkpt>
      <trkpt lat="47.80545" lon="-3.62753">
        <ele>55.6</ele>
        <time>2020-06-07T13:50:37Z</time>
      </trkpt>
      <trkpt lat="47.80549" lon="-3.62753">
        <ele>55.6</ele>
        <time>2020-06-07T13:50:38Z</time>
      </trkpt>
      <trkpt lat="47.80553" lon="-3.62757">
        <ele>55.6</ele>
        <time>2020-06-07T13:50:39Z</time>
      </trkpt>
      <trkpt lat="47.80554" lon="-3.62762">
        <ele>55.5</ele>
        <time>2020-06-07T13:50:40Z</time>
      </trkpt>
      <trkpt lat="47.80554" lon="-3.62767">
        <ele>55.5</ele>
        <time>2020-06-07T13:50:41Z</time>
      </trkpt>
      <trkpt lat="47.80553" lon="-3.62773">
        <ele>55.5</ele>
        <time>2020-06-07T13:50:42Z</time>
      </trkpt>
      <trkpt lat="47.80552" lon="-3.62775">
        <ele>55.5</ele>
        <time>2020-06-07T13:50:43Z</time>
      </trkpt>
      <trkpt lat="47.80551" lon="-3.62781">
        <ele>55.5</ele>
        <time>2020-06-07T13:50:44Z</time>
      </trkpt>
      <trkpt lat="47.8055" lon="-3.62786">
        <ele>55.5</ele>
        <time>2020-06-07T13:50:45Z</time>
      </trkpt>
      <trkpt lat="47.80548" lon="-3.62791">
        <ele>55.5</ele>
        <time>2020-06-07T13:50:46Z</time>
      </trkpt>
      <trkpt lat="47.80548" lon="-3.62799">
        <ele>55.4</ele>
        <time>2020-06-07T13:50:47Z</time>
      </trkpt>
      <trkpt lat="47.80549" lon="-3.62803">
        <ele>55.4</ele>
        <time>2020-06-07T13:50:48Z</time>
      </trkpt>
      <trkpt lat="47.80551" lon="-3.62807">
        <ele>55.4</ele>
        <time>2020-06-07T13:50:49Z</time>
      </trkpt>
      <trkpt lat="47.80554" lon="-3.62813">
        <ele>55.4</ele>
        <time>2020-06-07T13:50:50Z</time>
      </trkpt>
      <trkpt lat="47.80556" lon="-3.62816">
        <ele>55.4</ele>
        <time>2020-06-07T13:50:51Z</time>
      </trkpt>
      <trkpt lat="47.80558" lon="-3.62823">
        <ele>55.3</ele>
        <time>2020-06-07T13:50:52Z</time>
      </trkpt>
      <trkpt lat="47.80559" lon="-3.62828">
        <ele>55.3</ele>
        <time>2020-06-07T13:50:53Z</time>
      </trkpt>
      <trkpt lat="47.80561" lon="-3.62833">
        <ele>55.3</ele>
        <time>2020-06-07T13:50:54Z</time>
      </trkpt>
      <trkpt lat="47.80564" lon="-3.62838">
        <ele>55.3</ele>
        <time>2020-06-07T13:50:55Z</time>
      </trkpt>
      <trkpt lat="47.80566" lon="-3.62843">
        <ele>55.4</ele>
        <time>2020-06-07T13:50:56Z</time>
      </trkpt>
      <trkpt lat="47.80569" lon="-3.62849">
        <ele>55.4</ele>
        <time>2020-06-07T13:50:57Z</time>
      </trkpt>
      <trkpt lat="47.80572" lon="-3.62856">
        <ele>55.4</ele>
        <time>2020-06-07T13:50:58Z</time>
      </trkpt>
      <trkpt lat="47.80574" lon="-3.62861">
        <ele>55.4</ele>
        <time>2020-06-07T13:50:59Z</time>
      </trkpt>
      <trkpt lat="47.80576" lon="-3.62868">
        <ele>55.5</ele>
        <time>2020-06-07T13:51:00Z</time>
      </trkpt>
      <trkpt lat="47.80579" lon="-3.62874">
        <ele>55.5</ele>
        <time>2020-06-07T13:51:01Z</time>
      </trkpt>
      <trkpt lat="47.80581" lon="-3.62881">
        <ele>55.5</ele>
        <time>2020-06-07T13:51:02Z</time>
      </trkpt>
      <trkpt lat="47.80583" lon="-3.62886">
        <ele>55.6</ele>
        <time>2020-06-07T13:51:03Z</time>
      </trkpt>
      <trkpt lat="47.80585" lon="-3.62892">
        <ele>55.6</ele>
        <time>2020-06-07T13:51:04Z</time>
      </trkpt>
      <trkpt lat="47.80587" lon="-3.62897">
        <ele>55.6</ele>
        <time>2020-06-07T13:51:05Z</time>
      </trkpt>
      <trkpt lat="47.80588" lon="-3.62901">
        <ele>55.6</ele>
        <time>2020-06-07T13:51:06Z</time>
      </trkpt>
      <trkpt lat="47.8059" lon="-3.62908">
        <ele>55.6</ele>
        <time>2020-06-07T13:51:07Z</time>
      </trkpt>
      <trkpt lat="47.80591" lon="-3.62915">
        <ele>55.6</ele>
        <time>2020-06-07T13:51:08Z</time>
      </trkpt>
      <trkpt lat="47.80593" lon="-3.62922">
        <ele>55.7</ele>
        <time>2020-06-07T13:51:09Z</time>
      </trkpt>
      <trkpt lat="47.80595" lon="-3.62928">
        <ele>55.7</ele>
        <time>2020-06-07T13:51:10Z</time>
      </trkpt>
      <trkpt lat="47.80597" lon="-3.62934">
        <ele>55.7</ele>
        <time>2020-06-07T13:51:11Z</time>
      </trkpt>
      <trkpt lat="47.80599" lon="-3.6294">
        <ele>55.7</ele>
        <time>2020-06-07T13:51:12Z</time>
      </trkpt>
      <trkpt lat="47.80601" lon="-3.62948">
        <ele>55.7</ele>
        <time>2020-06-07T13:51:13Z</time>
      </trkpt>
      <trkpt lat="47.80604" lon="-3.62951">
        <ele>55.7</ele>
        <time>2020-06-07T13:51:14Z</time>
      </trkpt>
      <trkpt lat="47.80607" lon="-3.6296">
        <ele>55.7</ele>
        <time>2020-06-07T13:51:15Z</time>
      </trkpt>
      <trkpt lat="47.8061" lon="-3.62968">
        <ele>55.7</ele>
        <time>2020-06-07T13:51:16Z</time>
      </trkpt>
      <trkpt lat="47.80613" lon="-3.62976">
        <ele>55.7</ele>
        <time>2020-06-07T13:51:17Z</time>
      </trkpt>
      <trkpt lat="47.80616" lon="-3.62982">
        <ele>55.7</ele>
        <time>2020-06-07T13:51:18Z</time>
      </trkpt>
      <trkpt lat="47.80617" lon="-3.62987">
        <ele>55.7</ele>
        <time>2020-06-07T13:51:19Z</time>
      </trkpt>
      <trkpt lat="47.80618" lon="-3.62995">
        <ele>55.7</ele>
        <time>2020-06-07T13:51:20Z</time>
      </trkpt>
      <trkpt lat="47.8062" lon="-3.63002">
        <ele>55.7</ele>
        <time>2020-06-07T13:51:21Z</time>
      </trkpt>
      <trkpt lat="47.80622" lon="-3.63009">
        <ele>55.7</ele>
        <time>2020-06-07T13:51:22Z</time>
      </trkpt>
      <trkpt lat="47.80625" lon="-3.63016">
        <ele>55.7</ele>
        <time>2020-06-07T13:51:23Z</time>
      </trkpt>
      <trkpt lat="47.80627" lon="-3.63022">
        <ele>55.7</ele>
        <time>2020-06-07T13:51:24Z</time>
      </trkpt>
      <trkpt lat="47.80629" lon="-3.63028">
        <ele>55.7</ele>
        <time>2020-06-07T13:51:25Z</time>
      </trkpt>
      <trkpt lat="47.80631" lon="-3.63034">
        <ele>55.7</ele>
        <time>2020-06-07T13:51:26Z</time>
      </trkpt>
      <trkpt lat="47.80633" lon="-3.63041">
        <ele>55.7</ele>
        <time>2020-06-07T13:51:27Z</time>
      </trkpt>
      <trkpt lat="47.80636" lon="-3.63047">
        <ele>55.7</ele>
        <time>2020-06-07T13:51:28Z</time>
      </trkpt>
      <trkpt lat="47.80639" lon="-3.63054">
        <ele>55.7</ele>
        <time>2020-06-07T13:51:29Z</time>
      </trkpt>
      <trkpt lat="47.80641" lon="-3.6306">
        <ele>55.7</ele>
        <time>2020-06-07T13:51:30Z</time>
      </trkpt>
      <trkpt lat="47.80643" lon="-3.63066">
        <ele>55.7</ele>
        <time>2020-06-07T13:51:31Z</time>
      </trkpt>
      <trkpt lat="47.80646" lon="-3.63076">
        <ele>55.7</ele>
        <time>2020-06-07T13:51:32Z</time>
      </trkpt>
      <trkpt lat="47.80648" lon="-3.63083">
        <ele>55.7</ele>
        <time>2020-06-07T13:51:33Z</time>
      </trkpt>
      <trkpt lat="47.8065" lon="-3.6309">
        <ele>55.7</ele>
        <time>2020-06-07T13:51:34Z</time>
      </trkpt>
      <trkpt lat="47.80653" lon="-3.63096">
        <ele>55.7</ele>
        <time>2020-06-07T13:51:35Z</time>
      </trkpt>
      <trkpt lat="47.80654" lon="-3.63101">
        <ele>55.7</ele>
        <time>2020-06-07T13:51:36Z</time>
      </trkpt>
      <trkpt lat="47.80655" lon="-3.63108">
        <ele>55.7</ele>
        <time>2020-06-07T13:51:37Z</time>
      </trkpt>
      <trkpt lat="47.80657" lon="-3.63114">
        <ele>55.7</ele>
        <time>2020-06-07T13:51:38Z</time>
      </trkpt>
      <trkpt lat="47.80659" lon="-3.6312">
        <ele>55.8</ele>
        <time>2020-06-07T13:51:39Z</time>
      </trkpt>
      <trkpt lat="47.80661" lon="-3.63125">
        <ele>55.8</ele>
        <time>2020-06-07T13:51:40Z</time>
      </trkpt>
      <trkpt lat="47.80663" lon="-3.63129">
        <ele>55.8</ele>
        <time>2020-06-07T13:51:41Z</time>
      </trkpt>
      <trkpt lat="47.80665" lon="-3.63135">
        <ele>55.8</ele>
        <time>2020-06-07T13:51:42Z</time>
      </trkpt>
      <trkpt lat="47.80667" lon="-3.63141">
        <ele>55.8</ele>
        <time>2020-06-07T13:51:43Z</time>
      </trkpt>
      <trkpt lat="47.80668" lon="-3.63148">
        <ele>55.8</ele>
        <time>2020-06-07T13:51:44Z</time>
      </trkpt>
      <trkpt lat="47.80672" lon="-3.63157">
        <ele>55.8</ele>
        <time>2020-06-07T13:51:45Z</time>
      </trkpt>
      <trkpt lat="47.80675" lon="-3.63164">
        <ele>55.8</ele>
        <time>2020-06-07T13:51:46Z</time>
      </trkpt>
      <trkpt lat="47.80677" lon="-3.63172">
        <ele>55.9</ele>
        <time>2020-06-07T13:51:47Z</time>
      </trkpt>
      <trkpt lat="47.80679" lon="-3.63178">
        <ele>55.9</ele>
        <time>2020-06-07T13:51:48Z</time>
      </trkpt>
      <trkpt lat="47.8068" lon="-3.63183">
        <ele>56</ele>
        <time>2020-06-07T13:51:49Z</time>
      </trkpt>
      <trkpt lat="47.80682" lon="-3.63189">
        <ele>56</ele>
        <time>2020-06-07T13:51:50Z</time>
      </trkpt>
      <trkpt lat="47.80684" lon="-3.63195">
        <ele>56.1</ele>
        <time>2020-06-07T13:51:51Z</time>
      </trkpt>
      <trkpt lat="47.80685" lon="-3.63201">
        <ele>56.1</ele>
        <time>2020-06-07T13:51:52Z</time>
      </trkpt>
      <trkpt lat="47.80687" lon="-3.63208">
        <ele>56.1</ele>
        <time>2020-06-07T13:51:53Z</time>
      </trkpt>
      <trkpt lat="47.80689" lon="-3.63216">
        <ele>56.1</ele>
        <time>2020-06-07T13:51:54Z</time>
      </trkpt>
      <trkpt lat="47.80691" lon="-3.63222">
        <ele>56.1</ele>
        <time>2020-06-07T13:51:55Z</time>
      </trkpt>
      <trkpt lat="47.80693" lon="-3.63229">
        <ele>56.1</ele>
        <time>2020-06-07T13:51:56Z</time>
      </trkpt>
      <trkpt lat="47.80694" lon="-3.63236">
        <ele>56.1</ele>
        <time>2020-06-07T13:51:57Z</time>
      </trkpt>
      <trkpt lat="47.80695" lon="-3.63242">
        <ele>56.1</ele>
        <time>2020-06-07T13:51:58Z</time>
      </trkpt>
      <trkpt lat="47.80696" lon="-3.63249">
        <ele>56</ele>
        <time>2020-06-07T13:51:59Z</time>
      </trkpt>
      <trkpt lat="47.80697" lon="-3.63255">
        <ele>56</ele>
        <time>2020-06-07T13:52:00Z</time>
      </trkpt>
      <trkpt lat="47.80699" lon="-3.63261">
        <ele>55.9</ele>
        <time>2020-06-07T13:52:01Z</time>
      </trkpt>
      <trkpt lat="47.80701" lon="-3.63269">
        <ele>55.8</ele>
        <time>2020-06-07T13:52:02Z</time>
      </trkpt>
      <trkpt lat="47.80703" lon="-3.63279">
        <ele>55.6</ele>
        <time>2020-06-07T13:52:03Z</time>
      </trkpt>
      <trkpt lat="47.80705" lon="-3.63287">
        <ele>55.5</ele>
        <time>2020-06-07T13:52:04Z</time>
      </trkpt>
      <trkpt lat="47.80707" lon="-3.63297">
        <ele>55.3</ele>
        <time>2020-06-07T13:52:05Z</time>
      </trkpt>
      <trkpt lat="47.80709" lon="-3.63306">
        <ele>55.1</ele>
        <time>2020-06-07T13:52:06Z</time>
      </trkpt>
      <trkpt lat="47.80712" lon="-3.63316">
        <ele>54.8</ele>
        <time>2020-06-07T13:52:07Z</time>
      </trkpt>
      <trkpt lat="47.80715" lon="-3.63328">
        <ele>54.5</ele>
        <time>2020-06-07T13:52:08Z</time>
      </trkpt>
      <trkpt lat="47.80719" lon="-3.63339">
        <ele>54.1</ele>
        <time>2020-06-07T13:52:09Z</time>
      </trkpt>
      <trkpt lat="47.80723" lon="-3.63351">
        <ele>53.8</ele>
        <time>2020-06-07T13:52:10Z</time>
      </trkpt>
      <trkpt lat="47.80727" lon="-3.63365">
        <ele>53.4</ele>
        <time>2020-06-07T13:52:11Z</time>
      </trkpt>
      <trkpt lat="47.80732" lon="-3.6338">
        <ele>53</ele>
        <time>2020-06-07T13:52:12Z</time>
      </trkpt>
      <trkpt lat="47.80739" lon="-3.63397">
        <ele>52.6</ele>
        <time>2020-06-07T13:52:13Z</time>
      </trkpt>
      <trkpt lat="47.80744" lon="-3.63412">
        <ele>52.2</ele>
        <time>2020-06-07T13:52:14Z</time>
      </trkpt>
      <trkpt lat="47.80748" lon="-3.63427">
        <ele>51.7</ele>
        <time>2020-06-07T13:52:15Z</time>
      </trkpt>
      <trkpt lat="47.80753" lon="-3.63441">
        <ele>51.4</ele>
        <time>2020-06-07T13:52:16Z</time>
      </trkpt>
      <trkpt lat="47.80757" lon="-3.63453">
        <ele>51.2</ele>
        <time>2020-06-07T13:52:17Z</time>
      </trkpt>
      <trkpt lat="47.80761" lon="-3.63466">
        <ele>50.9</ele>
        <time>2020-06-07T13:52:18Z</time>
      </trkpt>
      <trkpt lat="47.80764" lon="-3.63478">
        <ele>50.7</ele>
        <time>2020-06-07T13:52:19Z</time>
      </trkpt>
      <trkpt lat="47.80768" lon="-3.63491">
        <ele>50.4</ele>
        <time>2020-06-07T13:52:20Z</time>
      </trkpt>
      <trkpt lat="47.80772" lon="-3.63502">
        <ele>50.1</ele>
        <time>2020-06-07T13:52:21Z</time>
      </trkpt>
      <trkpt lat="47.80775" lon="-3.63515">
        <ele>49.8</ele>
        <time>2020-06-07T13:52:22Z</time>
      </trkpt>
      <trkpt lat="47.80779" lon="-3.63526">
        <ele>49.5</ele>
        <time>2020-06-07T13:52:23Z</time>
      </trkpt>
      <trkpt lat="47.80782" lon="-3.63537">
        <ele>49.3</ele>
        <time>2020-06-07T13:52:24Z</time>
      </trkpt>
      <trkpt lat="47.80785" lon="-3.63549">
        <ele>49</ele>
        <time>2020-06-07T13:52:25Z</time>
      </trkpt>
      <trkpt lat="47.80787" lon="-3.6356">
        <ele>48.7</ele>
        <time>2020-06-07T13:52:26Z</time>
      </trkpt>
      <trkpt lat="47.8079" lon="-3.63572">
        <ele>48.4</ele>
        <time>2020-06-07T13:52:27Z</time>
      </trkpt>
      <trkpt lat="47.80793" lon="-3.63583">
        <ele>48</ele>
        <time>2020-06-07T13:52:28Z</time>
      </trkpt>
      <trkpt lat="47.80796" lon="-3.63594">
        <ele>47.5</ele>
        <time>2020-06-07T13:52:29Z</time>
      </trkpt>
      <trkpt lat="47.80799" lon="-3.63605">
        <ele>47</ele>
        <time>2020-06-07T13:52:30Z</time>
      </trkpt>
      <trkpt lat="47.80803" lon="-3.63616">
        <ele>46.5</ele>
        <time>2020-06-07T13:52:31Z</time>
      </trkpt>
      <trkpt lat="47.80806" lon="-3.63627">
        <ele>45.9</ele>
        <time>2020-06-07T13:52:32Z</time>
      </trkpt>
      <trkpt lat="47.80809" lon="-3.63639">
        <ele>45.4</ele>
        <time>2020-06-07T13:52:33Z</time>
      </trkpt>
      <trkpt lat="47.80812" lon="-3.63651">
        <ele>44.8</ele>
        <time>2020-06-07T13:52:34Z</time>
      </trkpt>
      <trkpt lat="47.80816" lon="-3.63663">
        <ele>44.2</ele>
        <time>2020-06-07T13:52:35Z</time>
      </trkpt>
      <trkpt lat="47.80819" lon="-3.63675">
        <ele>43.6</ele>
        <time>2020-06-07T13:52:36Z</time>
      </trkpt>
      <trkpt lat="47.80822" lon="-3.63687">
        <ele>43</ele>
        <time>2020-06-07T13:52:37Z</time>
      </trkpt>
      <trkpt lat="47.80825" lon="-3.637">
        <ele>42.4</ele>
        <time>2020-06-07T13:52:38Z</time>
      </trkpt>
      <trkpt lat="47.80829" lon="-3.63713">
        <ele>41.9</ele>
        <time>2020-06-07T13:52:39Z</time>
      </trkpt>
      <trkpt lat="47.80833" lon="-3.63725">
        <ele>41.5</ele>
        <time>2020-06-07T13:52:40Z</time>
      </trkpt>
      <trkpt lat="47.80838" lon="-3.63738">
        <ele>41.2</ele>
        <time>2020-06-07T13:52:41Z</time>
      </trkpt>
      <trkpt lat="47.80842" lon="-3.6375">
        <ele>41</ele>
        <time>2020-06-07T13:52:42Z</time>
      </trkpt>
      <trkpt lat="47.80846" lon="-3.63762">
        <ele>41.1</ele>
        <time>2020-06-07T13:52:43Z</time>
      </trkpt>
      <trkpt lat="47.80851" lon="-3.63772">
        <ele>41.3</ele>
        <time>2020-06-07T13:52:44Z</time>
      </trkpt>
      <trkpt lat="47.80855" lon="-3.63782">
        <ele>41.6</ele>
        <time>2020-06-07T13:52:45Z</time>
      </trkpt>
      <trkpt lat="47.80859" lon="-3.63791">
        <ele>41.9</ele>
        <time>2020-06-07T13:52:46Z</time>
      </trkpt>
      <trkpt lat="47.80863" lon="-3.638">
        <ele>42.3</ele>
        <time>2020-06-07T13:52:47Z</time>
      </trkpt>
      <trkpt lat="47.80867" lon="-3.63808">
        <ele>42.3</ele>
        <time>2020-06-07T13:52:48Z</time>
      </trkpt>
      <trkpt lat="47.80869" lon="-3.63816">
        <ele>42.7</ele>
        <time>2020-06-07T13:52:49Z</time>
      </trkpt>
      <trkpt lat="47.8087" lon="-3.63825">
        <ele>42.7</ele>
        <time>2020-06-07T13:52:50Z</time>
      </trkpt>
      <trkpt lat="47.80869" lon="-3.63832">
        <ele>42.7</ele>
        <time>2020-06-07T13:52:51Z</time>
      </trkpt>
      <trkpt lat="47.80868" lon="-3.6384">
        <ele>43.1</ele>
        <time>2020-06-07T13:52:52Z</time>
      </trkpt>
      <trkpt lat="47.80866" lon="-3.63846">
        <ele>43.2</ele>
        <time>2020-06-07T13:52:53Z</time>
      </trkpt>
      <trkpt lat="47.80864" lon="-3.63853">
        <ele>43.3</ele>
        <time>2020-06-07T13:52:54Z</time>
      </trkpt>
      <trkpt lat="47.80864" lon="-3.6386">
        <ele>43.4</ele>
        <time>2020-06-07T13:52:55Z</time>
      </trkpt>
      <trkpt lat="47.80863" lon="-3.63866">
        <ele>43.6</ele>
        <time>2020-06-07T13:52:56Z</time>
      </trkpt>
      <trkpt lat="47.80862" lon="-3.63872">
        <ele>43.7</ele>
        <time>2020-06-07T13:52:57Z</time>
      </trkpt>
      <trkpt lat="47.80861" lon="-3.63878">
        <ele>43.8</ele>
        <time>2020-06-07T13:52:58Z</time>
      </trkpt>
      <trkpt lat="47.80861" lon="-3.63883">
        <ele>43.9</ele>
        <time>2020-06-07T13:52:59Z</time>
      </trkpt>
      <trkpt lat="47.80861" lon="-3.63889">
        <ele>44</ele>
        <time>2020-06-07T13:53:00Z</time>
      </trkpt>
      <trkpt lat="47.8086" lon="-3.63895">
        <ele>44.1</ele>
        <time>2020-06-07T13:53:01Z</time>
      </trkpt>
      <trkpt lat="47.8086" lon="-3.63901">
        <ele>44.2</ele>
        <time>2020-06-07T13:53:02Z</time>
      </trkpt>
      <trkpt lat="47.80859" lon="-3.63908">
        <ele>44.3</ele>
        <time>2020-06-07T13:53:03Z</time>
      </trkpt>
      <trkpt lat="47.80859" lon="-3.63914">
        <ele>44.4</ele>
        <time>2020-06-07T13:53:04Z</time>
      </trkpt>
      <trkpt lat="47.80859" lon="-3.6392">
        <ele>44.5</ele>
        <time>2020-06-07T13:53:05Z</time>
      </trkpt>
      <trkpt lat="47.80859" lon="-3.63927">
        <ele>44.6</ele>
        <time>2020-06-07T13:53:06Z</time>
      </trkpt>
      <trkpt lat="47.80858" lon="-3.63933">
        <ele>44.7</ele>
        <time>2020-06-07T13:53:07Z</time>
      </trkpt>
      <trkpt lat="47.80858" lon="-3.63939">
        <ele>44.8</ele>
        <time>2020-06-07T13:53:08Z</time>
      </trkpt>
      <trkpt lat="47.80858" lon="-3.63945">
        <ele>44.9</ele>
        <time>2020-06-07T13:53:09Z</time>
      </trkpt>
      <trkpt lat="47.80858" lon="-3.63951">
        <ele>45</ele>
        <time>2020-06-07T13:53:10Z</time>
      </trkpt>
      <trkpt lat="47.80857" lon="-3.63957">
        <ele>45.1</ele>
        <time>2020-06-07T13:53:11Z</time>
      </trkpt>
      <trkpt lat="47.80857" lon="-3.63962">
        <ele>45.2</ele>
        <time>2020-06-07T13:53:12Z</time>
      </trkpt>
      <trkpt lat="47.80857" lon="-3.63968">
        <ele>45.2</ele>
        <time>2020-06-07T13:53:13Z</time>
      </trkpt>
      <trkpt lat="47.80855" lon="-3.63974">
        <ele>45.2</ele>
        <time>2020-06-07T13:53:14Z</time>
      </trkpt>
      <trkpt lat="47.80856" lon="-3.6398">
        <ele>45.3</ele>
        <time>2020-06-07T13:53:15Z</time>
      </trkpt>
      <trkpt lat="47.80857" lon="-3.63986">
        <ele>45.3</ele>
        <time>2020-06-07T13:53:16Z</time>
      </trkpt>
      <trkpt lat="47.80857" lon="-3.63993">
        <ele>45.3</ele>
        <time>2020-06-07T13:53:17Z</time>
      </trkpt>
      <trkpt lat="47.80857" lon="-3.64">
        <ele>45.3</ele>
        <time>2020-06-07T13:53:18Z</time>
      </trkpt>
      <trkpt lat="47.80857" lon="-3.64007">
        <ele>45.3</ele>
        <time>2020-06-07T13:53:19Z</time>
      </trkpt>
      <trkpt lat="47.80858" lon="-3.64014">
        <ele>45.3</ele>
        <time>2020-06-07T13:53:20Z</time>
      </trkpt>
      <trkpt lat="47.80857" lon="-3.64021">
        <ele>45.3</ele>
        <time>2020-06-07T13:53:21Z</time>
      </trkpt>
      <trkpt lat="47.80857" lon="-3.6403">
        <ele>45.3</ele>
        <time>2020-06-07T13:53:22Z</time>
      </trkpt>
      <trkpt lat="47.80857" lon="-3.64037">
        <ele>45.3</ele>
        <time>2020-06-07T13:53:23Z</time>
      </trkpt>
      <trkpt lat="47.80857" lon="-3.64045">
        <ele>45.3</ele>
        <time>2020-06-07T13:53:24Z</time>
      </trkpt>
      <trkpt lat="47.80857" lon="-3.64052">
        <ele>45.2</ele>
        <time>2020-06-07T13:53:25Z</time>
      </trkpt>
      <trkpt lat="47.80857" lon="-3.64059">
        <ele>45.2</ele>
        <time>2020-06-07T13:53:26Z</time>
      </trkpt>
      <trkpt lat="47.80857" lon="-3.64065">
        <ele>45.2</ele>
        <time>2020-06-07T13:53:27Z</time>
      </trkpt>
      <trkpt lat="47.80857" lon="-3.64071">
        <ele>45.2</ele>
        <time>2020-06-07T13:53:28Z</time>
      </trkpt>
      <trkpt lat="47.80857" lon="-3.64076">
        <ele>45.2</ele>
        <time>2020-06-07T13:53:29Z</time>
      </trkpt>
      <trkpt lat="47.80857" lon="-3.64084">
        <ele>45.2</ele>
        <time>2020-06-07T13:53:30Z</time>
      </trkpt>
      <trkpt lat="47.80857" lon="-3.64092">
        <ele>45.2</ele>
        <time>2020-06-07T13:53:31Z</time>
      </trkpt>
      <trkpt lat="47.80856" lon="-3.64098">
        <ele>45.2</ele>
        <time>2020-06-07T13:53:32Z</time>
      </trkpt>
      <trkpt lat="47.80856" lon="-3.64105">
        <ele>45.2</ele>
        <time>2020-06-07T13:53:33Z</time>
      </trkpt>
      <trkpt lat="47.80855" lon="-3.64112">
        <ele>45.2</ele>
        <time>2020-06-07T13:53:34Z</time>
      </trkpt>
      <trkpt lat="47.80855" lon="-3.64119">
        <ele>45.2</ele>
        <time>2020-06-07T13:53:35Z</time>
      </trkpt>
      <trkpt lat="47.80856" lon="-3.64125">
        <ele>45.2</ele>
        <time>2020-06-07T13:53:36Z</time>
      </trkpt>
      <trkpt lat="47.80856" lon="-3.64133">
        <ele>45.3</ele>
        <time>2020-06-07T13:53:37Z</time>
      </trkpt>
      <trkpt lat="47.80856" lon="-3.64138">
        <ele>45.3</ele>
        <time>2020-06-07T13:53:38Z</time>
      </trkpt>
      <trkpt lat="47.80856" lon="-3.64143">
        <ele>45.3</ele>
        <time>2020-06-07T13:53:39Z</time>
      </trkpt>
      <trkpt lat="47.80856" lon="-3.64145">
        <ele>45.3</ele>
        <time>2020-06-07T13:53:40Z</time>
      </trkpt>
      <trkpt lat="47.80856" lon="-3.64149">
        <ele>45.3</ele>
        <time>2020-06-07T13:53:41Z</time>
      </trkpt>
      <trkpt lat="47.80856" lon="-3.64151">
        <ele>45.3</ele>
        <time>2020-06-07T13:53:42Z</time>
      </trkpt>
      <trkpt lat="47.80856" lon="-3.64155">
        <ele>45.4</ele>
        <time>2020-06-07T13:53:43Z</time>
      </trkpt>
      <trkpt lat="47.80856" lon="-3.64157">
        <ele>45.4</ele>
        <time>2020-06-07T13:53:44Z</time>
      </trkpt>
      <trkpt lat="47.80857" lon="-3.64162">
        <ele>45.4</ele>
        <time>2020-06-07T13:53:45Z</time>
      </trkpt>
      <trkpt lat="47.80857" lon="-3.64164">
        <ele>45.4</ele>
        <time>2020-06-07T13:53:46Z</time>
      </trkpt>
      <trkpt lat="47.80856" lon="-3.64167">
        <ele>45.5</ele>
        <time>2020-06-07T13:53:47Z</time>
      </trkpt>
      <trkpt lat="47.80856" lon="-3.64169">
        <ele>45.5</ele>
        <time>2020-06-07T13:53:48Z</time>
      </trkpt>
      <trkpt lat="47.80856" lon="-3.64172">
        <ele>45.5</ele>
        <time>2020-06-07T13:53:49Z</time>
      </trkpt>
      <trkpt lat="47.80856" lon="-3.64177">
        <ele>45.6</ele>
        <time>2020-06-07T13:53:50Z</time>
      </trkpt>
      <trkpt lat="47.80856" lon="-3.64178">
        <ele>45.6</ele>
        <time>2020-06-07T13:53:51Z</time>
      </trkpt>
      <trkpt lat="47.80856" lon="-3.64182">
        <ele>45.6</ele>
        <time>2020-06-07T13:53:52Z</time>
      </trkpt>
      <trkpt lat="47.80856" lon="-3.64186">
        <ele>45.7</ele>
        <time>2020-06-07T13:53:53Z</time>
      </trkpt>
      <trkpt lat="47.80856" lon="-3.64192">
        <ele>45.7</ele>
        <time>2020-06-07T13:53:54Z</time>
      </trkpt>
      <trkpt lat="47.80856" lon="-3.64194">
        <ele>45.8</ele>
        <time>2020-06-07T13:53:55Z</time>
      </trkpt>
      <trkpt lat="47.80856" lon="-3.64199">
        <ele>45.8</ele>
        <time>2020-06-07T13:53:56Z</time>
      </trkpt>
      <trkpt lat="47.80856" lon="-3.64204">
        <ele>45.9</ele>
        <time>2020-06-07T13:53:57Z</time>
      </trkpt>
      <trkpt lat="47.80856" lon="-3.6421">
        <ele>45.9</ele>
        <time>2020-06-07T13:53:58Z</time>
      </trkpt>
      <trkpt lat="47.80857" lon="-3.64211">
        <ele>46</ele>
        <time>2020-06-07T13:53:59Z</time>
      </trkpt>
      <trkpt lat="47.80857" lon="-3.64216">
        <ele>46</ele>
        <time>2020-06-07T13:54:00Z</time>
      </trkpt>
      <trkpt lat="47.80857" lon="-3.6422">
        <ele>46.1</ele>
        <time>2020-06-07T13:54:01Z</time>
      </trkpt>
      <trkpt lat="47.80857" lon="-3.64226">
        <ele>46.1</ele>
        <time>2020-06-07T13:54:02Z</time>
      </trkpt>
      <trkpt lat="47.80857" lon="-3.64228">
        <ele>46.2</ele>
        <time>2020-06-07T13:54:03Z</time>
      </trkpt>
      <trkpt lat="47.80857" lon="-3.64232">
        <ele>46.2</ele>
        <time>2020-06-07T13:54:04Z</time>
      </trkpt>
      <trkpt lat="47.80857" lon="-3.64237">
        <ele>46.3</ele>
        <time>2020-06-07T13:54:05Z</time>
      </trkpt>
      <trkpt lat="47.80857" lon="-3.64242">
        <ele>46.4</ele>
        <time>2020-06-07T13:54:06Z</time>
      </trkpt>
      <trkpt lat="47.80858" lon="-3.64246">
        <ele>46.5</ele>
        <time>2020-06-07T13:54:07Z</time>
      </trkpt>
      <trkpt lat="47.80859" lon="-3.64249">
        <ele>46.5</ele>
        <time>2020-06-07T13:54:08Z</time>
      </trkpt>
      <trkpt lat="47.80859" lon="-3.64254">
        <ele>46.6</ele>
        <time>2020-06-07T13:54:09Z</time>
      </trkpt>
      <trkpt lat="47.80859" lon="-3.64259">
        <ele>46.7</ele>
        <time>2020-06-07T13:54:10Z</time>
      </trkpt>
      <trkpt lat="47.80859" lon="-3.64264">
        <ele>46.8</ele>
        <time>2020-06-07T13:54:11Z</time>
      </trkpt>
      <trkpt lat="47.8086" lon="-3.64269">
        <ele>46.9</ele>
        <time>2020-06-07T13:54:12Z</time>
      </trkpt>
      <trkpt lat="47.8086" lon="-3.64272">
        <ele>47</ele>
        <time>2020-06-07T13:54:13Z</time>
      </trkpt>
      <trkpt lat="47.80861" lon="-3.64274">
        <ele>47.1</ele>
        <time>2020-06-07T13:54:14Z</time>
      </trkpt>
      <trkpt lat="47.80861" lon="-3.6428">
        <ele>47.2</ele>
        <time>2020-06-07T13:54:15Z</time>
      </trkpt>
      <trkpt lat="47.80862" lon="-3.64284">
        <ele>47.3</ele>
        <time>2020-06-07T13:54:16Z</time>
      </trkpt>
      <trkpt lat="47.80863" lon="-3.64288">
        <ele>47.4</ele>
        <time>2020-06-07T13:54:17Z</time>
      </trkpt>
      <trkpt lat="47.80865" lon="-3.64292">
        <ele>48.2</ele>
        <time>2020-06-07T13:54:18Z</time>
      </trkpt>
      <trkpt lat="47.80867" lon="-3.64295">
        <ele>48.2</ele>
        <time>2020-06-07T13:54:19Z</time>
      </trkpt>
      <trkpt lat="47.8087" lon="-3.64297">
        <ele>48.2</ele>
        <time>2020-06-07T13:54:20Z</time>
      </trkpt>
      <trkpt lat="47.80873" lon="-3.64298">
        <ele>48.2</ele>
        <time>2020-06-07T13:54:21Z</time>
      </trkpt>
      <trkpt lat="47.80874" lon="-3.64298">
        <ele>48.2</ele>
        <time>2020-06-07T13:54:22Z</time>
      </trkpt>
      <trkpt lat="47.80876" lon="-3.64299">
        <ele>48.2</ele>
        <time>2020-06-07T13:54:23Z</time>
      </trkpt>
      <trkpt lat="47.80877" lon="-3.643">
        <ele>48.2</ele>
        <time>2020-06-07T13:54:24Z</time>
      </trkpt>
      <trkpt lat="47.8088" lon="-3.643">
        <ele>48.2</ele>
        <time>2020-06-07T13:54:25Z</time>
      </trkpt>
      <trkpt lat="47.80881" lon="-3.643">
        <ele>48.2</ele>
        <time>2020-06-07T13:54:26Z</time>
      </trkpt>
      <trkpt lat="47.80884" lon="-3.64299">
        <ele>48.2</ele>
        <time>2020-06-07T13:54:27Z</time>
      </trkpt>
      <trkpt lat="47.80885" lon="-3.64298">
        <ele>48.2</ele>
        <time>2020-06-07T13:54:28Z</time>
      </trkpt>
      <trkpt lat="47.80887" lon="-3.64295">
        <ele>48.2</ele>
        <time>2020-06-07T13:54:29Z</time>
      </trkpt>
      <trkpt lat="47.8089" lon="-3.64292">
        <ele>48.2</ele>
        <time>2020-06-07T13:54:30Z</time>
      </trkpt>
      <trkpt lat="47.80893" lon="-3.64291">
        <ele>48.2</ele>
        <time>2020-06-07T13:54:31Z</time>
      </trkpt>
      <trkpt lat="47.80896" lon="-3.6429">
        <ele>48.3</ele>
        <time>2020-06-07T13:54:32Z</time>
      </trkpt>
      <trkpt lat="47.80899" lon="-3.6429">
        <ele>48.3</ele>
        <time>2020-06-07T13:54:33Z</time>
      </trkpt>
      <trkpt lat="47.809" lon="-3.6429">
        <ele>48.3</ele>
        <time>2020-06-07T13:54:34Z</time>
      </trkpt>
      <trkpt lat="47.80903" lon="-3.64289">
        <ele>48.3</ele>
        <time>2020-06-07T13:54:35Z</time>
      </trkpt>
      <trkpt lat="47.80906" lon="-3.64288">
        <ele>48.3</ele>
        <time>2020-06-07T13:54:36Z</time>
      </trkpt>
      <trkpt lat="47.80909" lon="-3.64287">
        <ele>48.3</ele>
        <time>2020-06-07T13:54:37Z</time>
      </trkpt>
      <trkpt lat="47.80912" lon="-3.64285">
        <ele>48.3</ele>
        <time>2020-06-07T13:54:38Z</time>
      </trkpt>
      <trkpt lat="47.80916" lon="-3.64284">
        <ele>48.3</ele>
        <time>2020-06-07T13:54:39Z</time>
      </trkpt>
      <trkpt lat="47.80919" lon="-3.64283">
        <ele>48.4</ele>
        <time>2020-06-07T13:54:40Z</time>
      </trkpt>
      <trkpt lat="47.80923" lon="-3.64281">
        <ele>48.5</ele>
        <time>2020-06-07T13:54:41Z</time>
      </trkpt>
      <trkpt lat="47.80925" lon="-3.6428">
        <ele>48.6</ele>
        <time>2020-06-07T13:54:42Z</time>
      </trkpt>
      <trkpt lat="47.80928" lon="-3.64278">
        <ele>48.6</ele>
        <time>2020-06-07T13:54:43Z</time>
      </trkpt>
      <trkpt lat="47.80932" lon="-3.64275">
        <ele>48.7</ele>
        <time>2020-06-07T13:54:44Z</time>
      </trkpt>
      <trkpt lat="47.80935" lon="-3.64274">
        <ele>48.8</ele>
        <time>2020-06-07T13:54:45Z</time>
      </trkpt>
      <trkpt lat="47.80938" lon="-3.64273">
        <ele>48.8</ele>
        <time>2020-06-07T13:54:46Z</time>
      </trkpt>
      <trkpt lat="47.80942" lon="-3.64271">
        <ele>48.9</ele>
        <time>2020-06-07T13:54:47Z</time>
      </trkpt>
      <trkpt lat="47.80945" lon="-3.6427">
        <ele>49</ele>
        <time>2020-06-07T13:54:48Z</time>
      </trkpt>
      <trkpt lat="47.80948" lon="-3.64269">
        <ele>49</ele>
        <time>2020-06-07T13:54:49Z</time>
      </trkpt>
      <trkpt lat="47.80952" lon="-3.64269">
        <ele>49.1</ele>
        <time>2020-06-07T13:54:50Z</time>
      </trkpt>
      <trkpt lat="47.80953" lon="-3.64268">
        <ele>49.1</ele>
        <time>2020-06-07T13:54:51Z</time>
      </trkpt>
      <trkpt lat="47.80956" lon="-3.64267">
        <ele>49.2</ele>
        <time>2020-06-07T13:54:52Z</time>
      </trkpt>
      <trkpt lat="47.80959" lon="-3.64265">
        <ele>49.2</ele>
        <time>2020-06-07T13:54:53Z</time>
      </trkpt>
      <trkpt lat="47.80962" lon="-3.64264">
        <ele>49.3</ele>
        <time>2020-06-07T13:54:54Z</time>
      </trkpt>
      <trkpt lat="47.80966" lon="-3.64263">
        <ele>49.4</ele>
        <time>2020-06-07T13:54:55Z</time>
      </trkpt>
      <trkpt lat="47.8097" lon="-3.6426">
        <ele>49.4</ele>
        <time>2020-06-07T13:54:56Z</time>
      </trkpt>
      <trkpt lat="47.80972" lon="-3.64258">
        <ele>49.5</ele>
        <time>2020-06-07T13:54:57Z</time>
      </trkpt>
      <trkpt lat="47.80978" lon="-3.64258">
        <ele>49.6</ele>
        <time>2020-06-07T13:54:58Z</time>
      </trkpt>
      <trkpt lat="47.80981" lon="-3.64257">
        <ele>49.6</ele>
        <time>2020-06-07T13:54:59Z</time>
      </trkpt>
      <trkpt lat="47.80984" lon="-3.64257">
        <ele>49.7</ele>
        <time>2020-06-07T13:55:00Z</time>
      </trkpt>
      <trkpt lat="47.80988" lon="-3.64255">
        <ele>49.7</ele>
        <time>2020-06-07T13:55:01Z</time>
      </trkpt>
      <trkpt lat="47.80988" lon="-3.64254">
        <ele>49.8</ele>
        <time>2020-06-07T13:55:02Z</time>
      </trkpt>
      <trkpt lat="47.80992" lon="-3.64253">
        <ele>49.8</ele>
        <time>2020-06-07T13:55:03Z</time>
      </trkpt>
      <trkpt lat="47.80993" lon="-3.64252">
        <ele>49.8</ele>
        <time>2020-06-07T13:55:04Z</time>
      </trkpt>
      <trkpt lat="47.80996" lon="-3.6425">
        <ele>49.9</ele>
        <time>2020-06-07T13:55:05Z</time>
      </trkpt>
      <trkpt lat="47.80998" lon="-3.6425">
        <ele>49.9</ele>
        <time>2020-06-07T13:55:06Z</time>
      </trkpt>
      <trkpt lat="47.81002" lon="-3.64249">
        <ele>50</ele>
        <time>2020-06-07T13:55:07Z</time>
      </trkpt>
      <trkpt lat="47.81006" lon="-3.64247">
        <ele>50</ele>
        <time>2020-06-07T13:55:08Z</time>
      </trkpt>
      <trkpt lat="47.81007" lon="-3.64247">
        <ele>50.1</ele>
        <time>2020-06-07T13:55:09Z</time>
      </trkpt>
      <trkpt lat="47.81011" lon="-3.64245">
        <ele>50.1</ele>
        <time>2020-06-07T13:55:10Z</time>
      </trkpt>
      <trkpt lat="47.81016" lon="-3.64245">
        <ele>50.2</ele>
        <time>2020-06-07T13:55:11Z</time>
      </trkpt>
      <trkpt lat="47.8102" lon="-3.64244">
        <ele>50.2</ele>
        <time>2020-06-07T13:55:12Z</time>
      </trkpt>
      <trkpt lat="47.81021" lon="-3.64243">
        <ele>50.2</ele>
        <time>2020-06-07T13:55:13Z</time>
      </trkpt>
      <trkpt lat="47.81024" lon="-3.64243">
        <ele>50.2</ele>
        <time>2020-06-07T13:55:14Z</time>
      </trkpt>
      <trkpt lat="47.81028" lon="-3.64242">
        <ele>50.3</ele>
        <time>2020-06-07T13:55:15Z</time>
      </trkpt>
      <trkpt lat="47.8103" lon="-3.64241">
        <ele>50.3</ele>
        <time>2020-06-07T13:55:16Z</time>
      </trkpt>
      <trkpt lat="47.81033" lon="-3.6424">
        <ele>50.3</ele>
        <time>2020-06-07T13:55:17Z</time>
      </trkpt>
      <trkpt lat="47.81037" lon="-3.64239">
        <ele>50.4</ele>
        <time>2020-06-07T13:55:18Z</time>
      </trkpt>
      <trkpt lat="47.8104" lon="-3.6424">
        <ele>50.4</ele>
        <time>2020-06-07T13:55:19Z</time>
      </trkpt>
      <trkpt lat="47.81043" lon="-3.6424">
        <ele>50.5</ele>
        <time>2020-06-07T13:55:20Z</time>
      </trkpt>
      <trkpt lat="47.81046" lon="-3.64241">
        <ele>50.5</ele>
        <time>2020-06-07T13:55:21Z</time>
      </trkpt>
      <trkpt lat="47.8105" lon="-3.64242">
        <ele>50.5</ele>
        <time>2020-06-07T13:55:22Z</time>
      </trkpt>
      <trkpt lat="47.81052" lon="-3.64242">
        <ele>50.6</ele>
        <time>2020-06-07T13:55:23Z</time>
      </trkpt>
      <trkpt lat="47.81056" lon="-3.64243">
        <ele>50.6</ele>
        <time>2020-06-07T13:55:24Z</time>
      </trkpt>
      <trkpt lat="47.81059" lon="-3.64245">
        <ele>50.6</ele>
        <time>2020-06-07T13:55:25Z</time>
      </trkpt>
      <trkpt lat="47.81063" lon="-3.64246">
        <ele>50.6</ele>
        <time>2020-06-07T13:55:26Z</time>
      </trkpt>
      <trkpt lat="47.81067" lon="-3.64248">
        <ele>50.5</ele>
        <time>2020-06-07T13:55:27Z</time>
      </trkpt>
      <trkpt lat="47.81071" lon="-3.64249">
        <ele>50.5</ele>
        <time>2020-06-07T13:55:28Z</time>
      </trkpt>
      <trkpt lat="47.81075" lon="-3.64251">
        <ele>50.4</ele>
        <time>2020-06-07T13:55:29Z</time>
      </trkpt>
      <trkpt lat="47.81079" lon="-3.64252">
        <ele>50.4</ele>
        <time>2020-06-07T13:55:30Z</time>
      </trkpt>
      <trkpt lat="47.81083" lon="-3.64253">
        <ele>50.3</ele>
        <time>2020-06-07T13:55:31Z</time>
      </trkpt>
      <trkpt lat="47.81088" lon="-3.64255">
        <ele>50.3</ele>
        <time>2020-06-07T13:55:32Z</time>
      </trkpt>
      <trkpt lat="47.81092" lon="-3.64257">
        <ele>50.2</ele>
        <time>2020-06-07T13:55:33Z</time>
      </trkpt>
      <trkpt lat="47.81096" lon="-3.6426">
        <ele>50.1</ele>
        <time>2020-06-07T13:55:34Z</time>
      </trkpt>
      <trkpt lat="47.81098" lon="-3.64262">
        <ele>50.1</ele>
        <time>2020-06-07T13:55:35Z</time>
      </trkpt>
      <trkpt lat="47.81101" lon="-3.64265">
        <ele>50</ele>
        <time>2020-06-07T13:55:36Z</time>
      </trkpt>
      <trkpt lat="47.81105" lon="-3.64269">
        <ele>50</ele>
        <time>2020-06-07T13:55:37Z</time>
      </trkpt>
      <trkpt lat="47.81109" lon="-3.64273">
        <ele>49.9</ele>
        <time>2020-06-07T13:55:38Z</time>
      </trkpt>
      <trkpt lat="47.81113" lon="-3.64274">
        <ele>49.9</ele>
        <time>2020-06-07T13:55:39Z</time>
      </trkpt>
      <trkpt lat="47.81119" lon="-3.64279">
        <ele>49.8</ele>
        <time>2020-06-07T13:55:40Z</time>
      </trkpt>
      <trkpt lat="47.81124" lon="-3.64284">
        <ele>49.6</ele>
        <time>2020-06-07T13:55:41Z</time>
      </trkpt>
      <trkpt lat="47.81129" lon="-3.64288">
        <ele>49.5</ele>
        <time>2020-06-07T13:55:42Z</time>
      </trkpt>
      <trkpt lat="47.81134" lon="-3.6429">
        <ele>49.5</ele>
        <time>2020-06-07T13:55:43Z</time>
      </trkpt>
      <trkpt lat="47.81138" lon="-3.64294">
        <ele>49.4</ele>
        <time>2020-06-07T13:55:44Z</time>
      </trkpt>
      <trkpt lat="47.81142" lon="-3.64297">
        <ele>49.3</ele>
        <time>2020-06-07T13:55:45Z</time>
      </trkpt>
      <trkpt lat="47.81148" lon="-3.64301">
        <ele>49.2</ele>
        <time>2020-06-07T13:55:46Z</time>
      </trkpt>
      <trkpt lat="47.81152" lon="-3.64306">
        <ele>49.1</ele>
        <time>2020-06-07T13:55:47Z</time>
      </trkpt>
      <trkpt lat="47.81156" lon="-3.6431">
        <ele>49</ele>
        <time>2020-06-07T13:55:48Z</time>
      </trkpt>
      <trkpt lat="47.8116" lon="-3.64313">
        <ele>48.9</ele>
        <time>2020-06-07T13:55:49Z</time>
      </trkpt>
      <trkpt lat="47.81165" lon="-3.64317">
        <ele>48.8</ele>
        <time>2020-06-07T13:55:50Z</time>
      </trkpt>
      <trkpt lat="47.81169" lon="-3.64319">
        <ele>48.6</ele>
        <time>2020-06-07T13:55:51Z</time>
      </trkpt>
      <trkpt lat="47.81173" lon="-3.64322">
        <ele>48.5</ele>
        <time>2020-06-07T13:55:52Z</time>
      </trkpt>
      <trkpt lat="47.81178" lon="-3.64326">
        <ele>48.3</ele>
        <time>2020-06-07T13:55:53Z</time>
      </trkpt>
      <trkpt lat="47.81183" lon="-3.64329">
        <ele>48.1</ele>
        <time>2020-06-07T13:55:54Z</time>
      </trkpt>
      <trkpt lat="47.81188" lon="-3.64331">
        <ele>47.9</ele>
        <time>2020-06-07T13:55:55Z</time>
      </trkpt>
      <trkpt lat="47.81194" lon="-3.64333">
        <ele>47.7</ele>
        <time>2020-06-07T13:55:56Z</time>
      </trkpt>
      <trkpt lat="47.81199" lon="-3.64335">
        <ele>47.4</ele>
        <time>2020-06-07T13:55:57Z</time>
      </trkpt>
      <trkpt lat="47.81206" lon="-3.64337">
        <ele>47.1</ele>
        <time>2020-06-07T13:55:58Z</time>
      </trkpt>
      <trkpt lat="47.81212" lon="-3.64339">
        <ele>46.8</ele>
        <time>2020-06-07T13:55:59Z</time>
      </trkpt>
      <trkpt lat="47.81218" lon="-3.6434">
        <ele>46.4</ele>
        <time>2020-06-07T13:56:00Z</time>
      </trkpt>
      <trkpt lat="47.81224" lon="-3.6434">
        <ele>46.1</ele>
        <time>2020-06-07T13:56:01Z</time>
      </trkpt>
      <trkpt lat="47.81231" lon="-3.64341">
        <ele>45.7</ele>
        <time>2020-06-07T13:56:02Z</time>
      </trkpt>
      <trkpt lat="47.81238" lon="-3.64342">
        <ele>45.4</ele>
        <time>2020-06-07T13:56:03Z</time>
      </trkpt>
      <trkpt lat="47.81245" lon="-3.64344">
        <ele>45</ele>
        <time>2020-06-07T13:56:04Z</time>
      </trkpt>
      <trkpt lat="47.81253" lon="-3.64345">
        <ele>44.6</ele>
        <time>2020-06-07T13:56:05Z</time>
      </trkpt>
      <trkpt lat="47.81261" lon="-3.64345">
        <ele>44.2</ele>
        <time>2020-06-07T13:56:06Z</time>
      </trkpt>
      <trkpt lat="47.81269" lon="-3.64345">
        <ele>43.8</ele>
        <time>2020-06-07T13:56:07Z</time>
      </trkpt>
      <trkpt lat="47.81278" lon="-3.64346">
        <ele>43.3</ele>
        <time>2020-06-07T13:56:08Z</time>
      </trkpt>
      <trkpt lat="47.81286" lon="-3.64347">
        <ele>42.9</ele>
        <time>2020-06-07T13:56:09Z</time>
      </trkpt>
      <trkpt lat="47.81295" lon="-3.64348">
        <ele>42.5</ele>
        <time>2020-06-07T13:56:10Z</time>
      </trkpt>
      <trkpt lat="47.81304" lon="-3.64349">
        <ele>42.1</ele>
        <time>2020-06-07T13:56:11Z</time>
      </trkpt>
      <trkpt lat="47.81312" lon="-3.64351">
        <ele>41.7</ele>
        <time>2020-06-07T13:56:12Z</time>
      </trkpt>
      <trkpt lat="47.8132" lon="-3.64352">
        <ele>41.3</ele>
        <time>2020-06-07T13:56:13Z</time>
      </trkpt>
      <trkpt lat="47.81326" lon="-3.64353">
        <ele>41</ele>
        <time>2020-06-07T13:56:14Z</time>
      </trkpt>
      <trkpt lat="47.81333" lon="-3.64354">
        <ele>41.3</ele>
        <time>2020-06-07T13:56:15Z</time>
      </trkpt>
      <trkpt lat="47.81338" lon="-3.64353">
        <ele>41.5</ele>
        <time>2020-06-07T13:56:16Z</time>
      </trkpt>
      <trkpt lat="47.81343" lon="-3.64351">
        <ele>41.7</ele>
        <time>2020-06-07T13:56:17Z</time>
      </trkpt>
      <trkpt lat="47.81347" lon="-3.64348">
        <ele>41.8</ele>
        <time>2020-06-07T13:56:18Z</time>
      </trkpt>
      <trkpt lat="47.8135" lon="-3.64347">
        <ele>41.8</ele>
        <time>2020-06-07T13:56:19Z</time>
      </trkpt>
      <trkpt lat="47.81354" lon="-3.64347">
        <ele>41.9</ele>
        <time>2020-06-07T13:56:20Z</time>
      </trkpt>
      <trkpt lat="47.81359" lon="-3.64348">
        <ele>41.9</ele>
        <time>2020-06-07T13:56:21Z</time>
      </trkpt>
      <trkpt lat="47.81363" lon="-3.64351">
        <ele>42.1</ele>
        <time>2020-06-07T13:56:22Z</time>
      </trkpt>
      <trkpt lat="47.81368" lon="-3.64354">
        <ele>42.1</ele>
        <time>2020-06-07T13:56:23Z</time>
      </trkpt>
      <trkpt lat="47.81372" lon="-3.64359">
        <ele>41.8</ele>
        <time>2020-06-07T13:56:24Z</time>
      </trkpt>
      <trkpt lat="47.81375" lon="-3.64366">
        <ele>41.6</ele>
        <time>2020-06-07T13:56:25Z</time>
      </trkpt>
      <trkpt lat="47.81378" lon="-3.64373">
        <ele>41.4</ele>
        <time>2020-06-07T13:56:26Z</time>
      </trkpt>
      <trkpt lat="47.81381" lon="-3.64379">
        <ele>41.1</ele>
        <time>2020-06-07T13:56:27Z</time>
      </trkpt>
      <trkpt lat="47.81384" lon="-3.64386">
        <ele>40.9</ele>
        <time>2020-06-07T13:56:28Z</time>
      </trkpt>
      <trkpt lat="47.81388" lon="-3.64393">
        <ele>40.6</ele>
        <time>2020-06-07T13:56:29Z</time>
      </trkpt>
      <trkpt lat="47.81391" lon="-3.64399">
        <ele>40.4</ele>
        <time>2020-06-07T13:56:30Z</time>
      </trkpt>
      <trkpt lat="47.81394" lon="-3.64406">
        <ele>40.1</ele>
        <time>2020-06-07T13:56:31Z</time>
      </trkpt>
      <trkpt lat="47.81397" lon="-3.64414">
        <ele>39.9</ele>
        <time>2020-06-07T13:56:32Z</time>
      </trkpt>
      <trkpt lat="47.814" lon="-3.6442">
        <ele>39.6</ele>
        <time>2020-06-07T13:56:33Z</time>
      </trkpt>
      <trkpt lat="47.81403" lon="-3.64427">
        <ele>39.4</ele>
        <time>2020-06-07T13:56:34Z</time>
      </trkpt>
      <trkpt lat="47.81405" lon="-3.64435">
        <ele>39.1</ele>
        <time>2020-06-07T13:56:35Z</time>
      </trkpt>
      <trkpt lat="47.81407" lon="-3.64442">
        <ele>38.9</ele>
        <time>2020-06-07T13:56:36Z</time>
      </trkpt>
      <trkpt lat="47.8141" lon="-3.64449">
        <ele>38.7</ele>
        <time>2020-06-07T13:56:37Z</time>
      </trkpt>
      <trkpt lat="47.81414" lon="-3.64455">
        <ele>38.6</ele>
        <time>2020-06-07T13:56:38Z</time>
      </trkpt>
      <trkpt lat="47.81417" lon="-3.64462">
        <ele>38.4</ele>
        <time>2020-06-07T13:56:39Z</time>
      </trkpt>
      <trkpt lat="47.8142" lon="-3.64468">
        <ele>38.3</ele>
        <time>2020-06-07T13:56:40Z</time>
      </trkpt>
      <trkpt lat="47.81423" lon="-3.64475">
        <ele>38.2</ele>
        <time>2020-06-07T13:56:41Z</time>
      </trkpt>
      <trkpt lat="47.81426" lon="-3.64482">
        <ele>38.1</ele>
        <time>2020-06-07T13:56:42Z</time>
      </trkpt>
      <trkpt lat="47.8143" lon="-3.64489">
        <ele>38</ele>
        <time>2020-06-07T13:56:43Z</time>
      </trkpt>
      <trkpt lat="47.81433" lon="-3.64497">
        <ele>37.8</ele>
        <time>2020-06-07T13:56:44Z</time>
      </trkpt>
      <trkpt lat="47.81436" lon="-3.64505">
        <ele>37.7</ele>
        <time>2020-06-07T13:56:45Z</time>
      </trkpt>
      <trkpt lat="47.81439" lon="-3.64513">
        <ele>37.6</ele>
        <time>2020-06-07T13:56:46Z</time>
      </trkpt>
      <trkpt lat="47.81443" lon="-3.64521">
        <ele>37.5</ele>
        <time>2020-06-07T13:56:47Z</time>
      </trkpt>
      <trkpt lat="47.81446" lon="-3.64529">
        <ele>37.3</ele>
        <time>2020-06-07T13:56:48Z</time>
      </trkpt>
      <trkpt lat="47.8145" lon="-3.64537">
        <ele>37.2</ele>
        <time>2020-06-07T13:56:49Z</time>
      </trkpt>
      <trkpt lat="47.81454" lon="-3.64546">
        <ele>37.1</ele>
        <time>2020-06-07T13:56:50Z</time>
      </trkpt>
      <trkpt lat="47.81458" lon="-3.64555">
        <ele>36.9</ele>
        <time>2020-06-07T13:56:51Z</time>
      </trkpt>
      <trkpt lat="47.81462" lon="-3.64564">
        <ele>36.8</ele>
        <time>2020-06-07T13:56:52Z</time>
      </trkpt>
      <trkpt lat="47.81467" lon="-3.64572">
        <ele>36.7</ele>
        <time>2020-06-07T13:56:53Z</time>
      </trkpt>
      <trkpt lat="47.81471" lon="-3.64581">
        <ele>36.5</ele>
        <time>2020-06-07T13:56:54Z</time>
      </trkpt>
      <trkpt lat="47.81475" lon="-3.64591">
        <ele>36.2</ele>
        <time>2020-06-07T13:56:55Z</time>
      </trkpt>
      <trkpt lat="47.81479" lon="-3.646">
        <ele>36</ele>
        <time>2020-06-07T13:56:56Z</time>
      </trkpt>
      <trkpt lat="47.81483" lon="-3.6461">
        <ele>35.8</ele>
        <time>2020-06-07T13:56:57Z</time>
      </trkpt>
      <trkpt lat="47.81487" lon="-3.64619">
        <ele>35.7</ele>
        <time>2020-06-07T13:56:58Z</time>
      </trkpt>
      <trkpt lat="47.81492" lon="-3.64629">
        <ele>35.5</ele>
        <time>2020-06-07T13:56:59Z</time>
      </trkpt>
      <trkpt lat="47.81496" lon="-3.64639">
        <ele>35.4</ele>
        <time>2020-06-07T13:57:00Z</time>
      </trkpt>
      <trkpt lat="47.815" lon="-3.64649">
        <ele>35.2</ele>
        <time>2020-06-07T13:57:01Z</time>
      </trkpt>
      <trkpt lat="47.81505" lon="-3.64658">
        <ele>35</ele>
        <time>2020-06-07T13:57:02Z</time>
      </trkpt>
      <trkpt lat="47.81509" lon="-3.64668">
        <ele>34.9</ele>
        <time>2020-06-07T13:57:03Z</time>
      </trkpt>
      <trkpt lat="47.81512" lon="-3.64678">
        <ele>34.7</ele>
        <time>2020-06-07T13:57:04Z</time>
      </trkpt>
      <trkpt lat="47.81516" lon="-3.64687">
        <ele>34.5</ele>
        <time>2020-06-07T13:57:05Z</time>
      </trkpt>
      <trkpt lat="47.8152" lon="-3.64696">
        <ele>34.4</ele>
        <time>2020-06-07T13:57:06Z</time>
      </trkpt>
      <trkpt lat="47.81524" lon="-3.64705">
        <ele>34.2</ele>
        <time>2020-06-07T13:57:07Z</time>
      </trkpt>
      <trkpt lat="47.81528" lon="-3.64715">
        <ele>34</ele>
        <time>2020-06-07T13:57:08Z</time>
      </trkpt>
      <trkpt lat="47.81533" lon="-3.64723">
        <ele>33.8</ele>
        <time>2020-06-07T13:57:09Z</time>
      </trkpt>
      <trkpt lat="47.81538" lon="-3.64732">
        <ele>33.7</ele>
        <time>2020-06-07T13:57:10Z</time>
      </trkpt>
      <trkpt lat="47.81542" lon="-3.6474">
        <ele>33.5</ele>
        <time>2020-06-07T13:57:11Z</time>
      </trkpt>
      <trkpt lat="47.81546" lon="-3.64749">
        <ele>33.4</ele>
        <time>2020-06-07T13:57:12Z</time>
      </trkpt>
      <trkpt lat="47.81551" lon="-3.64758">
        <ele>33.2</ele>
        <time>2020-06-07T13:57:13Z</time>
      </trkpt>
      <trkpt lat="47.81555" lon="-3.64768">
        <ele>33.1</ele>
        <time>2020-06-07T13:57:14Z</time>
      </trkpt>
      <trkpt lat="47.81559" lon="-3.64776">
        <ele>32.9</ele>
        <time>2020-06-07T13:57:15Z</time>
      </trkpt>
      <trkpt lat="47.81563" lon="-3.64786">
        <ele>32.7</ele>
        <time>2020-06-07T13:57:16Z</time>
      </trkpt>
      <trkpt lat="47.81567" lon="-3.64795">
        <ele>32.5</ele>
        <time>2020-06-07T13:57:17Z</time>
      </trkpt>
      <trkpt lat="47.81572" lon="-3.64804">
        <ele>32.3</ele>
        <time>2020-06-07T13:57:18Z</time>
      </trkpt>
      <trkpt lat="47.81576" lon="-3.64812">
        <ele>32.1</ele>
        <time>2020-06-07T13:57:19Z</time>
      </trkpt>
      <trkpt lat="47.8158" lon="-3.64821">
        <ele>31.9</ele>
        <time>2020-06-07T13:57:20Z</time>
      </trkpt>
      <trkpt lat="47.81585" lon="-3.6483">
        <ele>31.8</ele>
        <time>2020-06-07T13:57:21Z</time>
      </trkpt>
      <trkpt lat="47.81589" lon="-3.64838">
        <ele>31.6</ele>
        <time>2020-06-07T13:57:22Z</time>
      </trkpt>
      <trkpt lat="47.81593" lon="-3.64847">
        <ele>31.5</ele>
        <time>2020-06-07T13:57:23Z</time>
      </trkpt>
      <trkpt lat="47.81597" lon="-3.64856">
        <ele>31.3</ele>
        <time>2020-06-07T13:57:24Z</time>
      </trkpt>
      <trkpt lat="47.81602" lon="-3.64865">
        <ele>31.2</ele>
        <time>2020-06-07T13:57:25Z</time>
      </trkpt>
      <trkpt lat="47.81605" lon="-3.64874">
        <ele>31.1</ele>
        <time>2020-06-07T13:57:26Z</time>
      </trkpt>
      <trkpt lat="47.81609" lon="-3.64883">
        <ele>31</ele>
        <time>2020-06-07T13:57:27Z</time>
      </trkpt>
      <trkpt lat="47.81613" lon="-3.64892">
        <ele>31</ele>
        <time>2020-06-07T13:57:28Z</time>
      </trkpt>
      <trkpt lat="47.81616" lon="-3.64901">
        <ele>30.9</ele>
        <time>2020-06-07T13:57:29Z</time>
      </trkpt>
      <trkpt lat="47.8162" lon="-3.6491">
        <ele>30.7</ele>
        <time>2020-06-07T13:57:30Z</time>
      </trkpt>
      <trkpt lat="47.81625" lon="-3.64918">
        <ele>30.5</ele>
        <time>2020-06-07T13:57:31Z</time>
      </trkpt>
      <trkpt lat="47.81629" lon="-3.64926">
        <ele>30.3</ele>
        <time>2020-06-07T13:57:32Z</time>
      </trkpt>
      <trkpt lat="47.81633" lon="-3.64934">
        <ele>30.1</ele>
        <time>2020-06-07T13:57:33Z</time>
      </trkpt>
      <trkpt lat="47.81637" lon="-3.64942">
        <ele>29.9</ele>
        <time>2020-06-07T13:57:34Z</time>
      </trkpt>
      <trkpt lat="47.81641" lon="-3.6495">
        <ele>29.8</ele>
        <time>2020-06-07T13:57:35Z</time>
      </trkpt>
      <trkpt lat="47.81646" lon="-3.64958">
        <ele>29.7</ele>
        <time>2020-06-07T13:57:36Z</time>
      </trkpt>
      <trkpt lat="47.8165" lon="-3.64966">
        <ele>29.5</ele>
        <time>2020-06-07T13:57:37Z</time>
      </trkpt>
      <trkpt lat="47.81654" lon="-3.64974">
        <ele>29.4</ele>
        <time>2020-06-07T13:57:38Z</time>
      </trkpt>
      <trkpt lat="47.81658" lon="-3.64982">
        <ele>29.3</ele>
        <time>2020-06-07T13:57:39Z</time>
      </trkpt>
      <trkpt lat="47.81662" lon="-3.64991">
        <ele>29.1</ele>
        <time>2020-06-07T13:57:40Z</time>
      </trkpt>
      <trkpt lat="47.81666" lon="-3.64999">
        <ele>29</ele>
        <time>2020-06-07T13:57:41Z</time>
      </trkpt>
      <trkpt lat="47.8167" lon="-3.65008">
        <ele>28.9</ele>
        <time>2020-06-07T13:57:42Z</time>
      </trkpt>
      <trkpt lat="47.81673" lon="-3.65017">
        <ele>28.7</ele>
        <time>2020-06-07T13:57:43Z</time>
      </trkpt>
      <trkpt lat="47.81677" lon="-3.65025">
        <ele>28.6</ele>
        <time>2020-06-07T13:57:44Z</time>
      </trkpt>
      <trkpt lat="47.81681" lon="-3.65033">
        <ele>28.4</ele>
        <time>2020-06-07T13:57:45Z</time>
      </trkpt>
      <trkpt lat="47.81685" lon="-3.65042">
        <ele>28.3</ele>
        <time>2020-06-07T13:57:46Z</time>
      </trkpt>
      <trkpt lat="47.81688" lon="-3.6505">
        <ele>28.2</ele>
        <time>2020-06-07T13:57:47Z</time>
      </trkpt>
      <trkpt lat="47.81691" lon="-3.65058">
        <ele>28.1</ele>
        <time>2020-06-07T13:57:48Z</time>
      </trkpt>
      <trkpt lat="47.81694" lon="-3.65066">
        <ele>28</ele>
        <time>2020-06-07T13:57:49Z</time>
      </trkpt>
      <trkpt lat="47.81697" lon="-3.65075">
        <ele>27.9</ele>
        <time>2020-06-07T13:57:50Z</time>
      </trkpt>
      <trkpt lat="47.81701" lon="-3.65083">
        <ele>27.8</ele>
        <time>2020-06-07T13:57:51Z</time>
      </trkpt>
      <trkpt lat="47.81704" lon="-3.65092">
        <ele>27.7</ele>
        <time>2020-06-07T13:57:52Z</time>
      </trkpt>
      <trkpt lat="47.81706" lon="-3.65101">
        <ele>27.6</ele>
        <time>2020-06-07T13:57:53Z</time>
      </trkpt>
      <trkpt lat="47.81709" lon="-3.65112">
        <ele>27.6</ele>
        <time>2020-06-07T13:57:54Z</time>
      </trkpt>
      <trkpt lat="47.81713" lon="-3.65121">
        <ele>27.5</ele>
        <time>2020-06-07T13:57:55Z</time>
      </trkpt>
      <trkpt lat="47.81716" lon="-3.65131">
        <ele>27.4</ele>
        <time>2020-06-07T13:57:56Z</time>
      </trkpt>
      <trkpt lat="47.8172" lon="-3.6514">
        <ele>27.3</ele>
        <time>2020-06-07T13:57:57Z</time>
      </trkpt>
      <trkpt lat="47.81724" lon="-3.6515">
        <ele>27.2</ele>
        <time>2020-06-07T13:57:58Z</time>
      </trkpt>
      <trkpt lat="47.81727" lon="-3.65159">
        <ele>27.1</ele>
        <time>2020-06-07T13:57:59Z</time>
      </trkpt>
      <trkpt lat="47.8173" lon="-3.65169">
        <ele>27</ele>
        <time>2020-06-07T13:58:00Z</time>
      </trkpt>
      <trkpt lat="47.81733" lon="-3.65178">
        <ele>26.8</ele>
        <time>2020-06-07T13:58:01Z</time>
      </trkpt>
      <trkpt lat="47.81737" lon="-3.65187">
        <ele>26.7</ele>
        <time>2020-06-07T13:58:02Z</time>
      </trkpt>
      <trkpt lat="47.81741" lon="-3.65197">
        <ele>26.6</ele>
        <time>2020-06-07T13:58:03Z</time>
      </trkpt>
      <trkpt lat="47.81745" lon="-3.65206">
        <ele>26.5</ele>
        <time>2020-06-07T13:58:04Z</time>
      </trkpt>
      <trkpt lat="47.81749" lon="-3.65215">
        <ele>26.4</ele>
        <time>2020-06-07T13:58:05Z</time>
      </trkpt>
      <trkpt lat="47.81753" lon="-3.65224">
        <ele>26.2</ele>
        <time>2020-06-07T13:58:06Z</time>
      </trkpt>
      <trkpt lat="47.81757" lon="-3.65233">
        <ele>26.1</ele>
        <time>2020-06-07T13:58:07Z</time>
      </trkpt>
      <trkpt lat="47.81762" lon="-3.65242">
        <ele>25.9</ele>
        <time>2020-06-07T13:58:08Z</time>
      </trkpt>
      <trkpt lat="47.81767" lon="-3.65251">
        <ele>25.8</ele>
        <time>2020-06-07T13:58:09Z</time>
      </trkpt>
      <trkpt lat="47.81772" lon="-3.65259">
        <ele>25.6</ele>
        <time>2020-06-07T13:58:10Z</time>
      </trkpt>
      <trkpt lat="47.81779" lon="-3.65266">
        <ele>25.2</ele>
        <time>2020-06-07T13:58:11Z</time>
      </trkpt>
      <trkpt lat="47.81785" lon="-3.65273">
        <ele>24.8</ele>
        <time>2020-06-07T13:58:12Z</time>
      </trkpt>
      <trkpt lat="47.81791" lon="-3.65279">
        <ele>24.4</ele>
        <time>2020-06-07T13:58:13Z</time>
      </trkpt>
      <trkpt lat="47.81797" lon="-3.65286">
        <ele>24</ele>
        <time>2020-06-07T13:58:14Z</time>
      </trkpt>
      <trkpt lat="47.81804" lon="-3.6529">
        <ele>23.6</ele>
        <time>2020-06-07T13:58:15Z</time>
      </trkpt>
      <trkpt lat="47.81812" lon="-3.65295">
        <ele>23.1</ele>
        <time>2020-06-07T13:58:16Z</time>
      </trkpt>
      <trkpt lat="47.8182" lon="-3.65298">
        <ele>22.6</ele>
        <time>2020-06-07T13:58:17Z</time>
      </trkpt>
      <trkpt lat="47.81827" lon="-3.653">
        <ele>22.2</ele>
        <time>2020-06-07T13:58:18Z</time>
      </trkpt>
      <trkpt lat="47.81835" lon="-3.65301">
        <ele>21.8</ele>
        <time>2020-06-07T13:58:19Z</time>
      </trkpt>
      <trkpt lat="47.81843" lon="-3.653">
        <ele>21.3</ele>
        <time>2020-06-07T13:58:20Z</time>
      </trkpt>
      <trkpt lat="47.81851" lon="-3.65297">
        <ele>20.8</ele>
        <time>2020-06-07T13:58:21Z</time>
      </trkpt>
      <trkpt lat="47.81859" lon="-3.65293">
        <ele>20.3</ele>
        <time>2020-06-07T13:58:22Z</time>
      </trkpt>
      <trkpt lat="47.81867" lon="-3.65288">
        <ele>19.8</ele>
        <time>2020-06-07T13:58:23Z</time>
      </trkpt>
      <trkpt lat="47.81875" lon="-3.65284">
        <ele>19.2</ele>
        <time>2020-06-07T13:58:24Z</time>
      </trkpt>
      <trkpt lat="47.81883" lon="-3.65278">
        <ele>18.5</ele>
        <time>2020-06-07T13:58:25Z</time>
      </trkpt>
      <trkpt lat="47.81891" lon="-3.65272">
        <ele>17.9</ele>
        <time>2020-06-07T13:58:26Z</time>
      </trkpt>
      <trkpt lat="47.81899" lon="-3.65265">
        <ele>17.3</ele>
        <time>2020-06-07T13:58:27Z</time>
      </trkpt>
      <trkpt lat="47.81908" lon="-3.65258">
        <ele>16.6</ele>
        <time>2020-06-07T13:58:28Z</time>
      </trkpt>
      <trkpt lat="47.81915" lon="-3.65247">
        <ele>16</ele>
        <time>2020-06-07T13:58:29Z</time>
      </trkpt>
      <trkpt lat="47.81922" lon="-3.65235">
        <ele>15.3</ele>
        <time>2020-06-07T13:58:30Z</time>
      </trkpt>
      <trkpt lat="47.8193" lon="-3.65222">
        <ele>14.6</ele>
        <time>2020-06-07T13:58:31Z</time>
      </trkpt>
      <trkpt lat="47.81937" lon="-3.65208">
        <ele>14</ele>
        <time>2020-06-07T13:58:32Z</time>
      </trkpt>
      <trkpt lat="47.81944" lon="-3.65195">
        <ele>13.3</ele>
        <time>2020-06-07T13:58:33Z</time>
      </trkpt>
      <trkpt lat="47.81951" lon="-3.65182">
        <ele>12.7</ele>
        <time>2020-06-07T13:58:34Z</time>
      </trkpt>
      <trkpt lat="47.81959" lon="-3.65169">
        <ele>12</ele>
        <time>2020-06-07T13:58:35Z</time>
      </trkpt>
      <trkpt lat="47.81966" lon="-3.65155">
        <ele>11.6</ele>
        <time>2020-06-07T13:58:36Z</time>
      </trkpt>
      <trkpt lat="47.81974" lon="-3.65142">
        <ele>11.2</ele>
        <time>2020-06-07T13:58:37Z</time>
      </trkpt>
      <trkpt lat="47.81982" lon="-3.65129">
        <ele>10.4</ele>
        <time>2020-06-07T13:58:38Z</time>
      </trkpt>
      <trkpt lat="47.81992" lon="-3.65119">
        <ele>9.7</ele>
        <time>2020-06-07T13:58:39Z</time>
      </trkpt>
      <trkpt lat="47.82001" lon="-3.65109">
        <ele>8.9</ele>
        <time>2020-06-07T13:58:40Z</time>
      </trkpt>
      <trkpt lat="47.82012" lon="-3.65101">
        <ele>8.1</ele>
        <time>2020-06-07T13:58:41Z</time>
      </trkpt>
      <trkpt lat="47.82024" lon="-3.65096">
        <ele>7.4</ele>
        <time>2020-06-07T13:58:42Z</time>
      </trkpt>
      <trkpt lat="47.82037" lon="-3.65092">
        <ele>6.8</ele>
        <time>2020-06-07T13:58:43Z</time>
      </trkpt>
      <trkpt lat="47.82048" lon="-3.65089">
        <ele>6.2</ele>
        <time>2020-06-07T13:58:44Z</time>
      </trkpt>
      <trkpt lat="47.8206" lon="-3.65088">
        <ele>5.6</ele>
        <time>2020-06-07T13:58:45Z</time>
      </trkpt>
      <trkpt lat="47.82072" lon="-3.6509">
        <ele>5.1</ele>
        <time>2020-06-07T13:58:46Z</time>
      </trkpt>
      <trkpt lat="47.82083" lon="-3.65093">
        <ele>4.7</ele>
        <time>2020-06-07T13:58:47Z</time>
      </trkpt>
      <trkpt lat="47.82095" lon="-3.65093">
        <ele>4.4</ele>
        <time>2020-06-07T13:58:48Z</time>
      </trkpt>
      <trkpt lat="47.82106" lon="-3.65096">
        <ele>4.2</ele>
        <time>2020-06-07T13:58:49Z</time>
      </trkpt>
      <trkpt lat="47.82118" lon="-3.65097">
        <ele>4.2</ele>
        <time>2020-06-07T13:58:50Z</time>
      </trkpt>
      <trkpt lat="47.82129" lon="-3.65098">
        <ele>4.2</ele>
        <time>2020-06-07T13:58:51Z</time>
      </trkpt>
      <trkpt lat="47.82139" lon="-3.651">
        <ele>4.4</ele>
        <time>2020-06-07T13:58:52Z</time>
      </trkpt>
      <trkpt lat="47.82149" lon="-3.65101">
        <ele>4.6</ele>
        <time>2020-06-07T13:58:53Z</time>
      </trkpt>
      <trkpt lat="47.82158" lon="-3.65104">
        <ele>4.8</ele>
        <time>2020-06-07T13:58:54Z</time>
      </trkpt>
      <trkpt lat="47.82166" lon="-3.65109">
        <ele>5.1</ele>
        <time>2020-06-07T13:58:55Z</time>
      </trkpt>
      <trkpt lat="47.82173" lon="-3.65114">
        <ele>5.3</ele>
        <time>2020-06-07T13:58:56Z</time>
      </trkpt>
      <trkpt lat="47.8218" lon="-3.65123">
        <ele>5.5</ele>
        <time>2020-06-07T13:58:57Z</time>
      </trkpt>
      <trkpt lat="47.82185" lon="-3.6513">
        <ele>5.3</ele>
        <time>2020-06-07T13:58:58Z</time>
      </trkpt>
      <trkpt lat="47.8219" lon="-3.65137">
        <ele>5.3</ele>
        <time>2020-06-07T13:58:59Z</time>
      </trkpt>
      <trkpt lat="47.82195" lon="-3.65145">
        <ele>5.2</ele>
        <time>2020-06-07T13:59:00Z</time>
      </trkpt>
      <trkpt lat="47.822" lon="-3.65152">
        <ele>5.1</ele>
        <time>2020-06-07T13:59:01Z</time>
      </trkpt>
      <trkpt lat="47.82204" lon="-3.65159">
        <ele>5.1</ele>
        <time>2020-06-07T13:59:02Z</time>
      </trkpt>
      <trkpt lat="47.82209" lon="-3.65166">
        <ele>5.1</ele>
        <time>2020-06-07T13:59:03Z</time>
      </trkpt>
      <trkpt lat="47.82213" lon="-3.65172">
        <ele>5.1</ele>
        <time>2020-06-07T13:59:04Z</time>
      </trkpt>
      <trkpt lat="47.82217" lon="-3.65179">
        <ele>5.2</ele>
        <time>2020-06-07T13:59:05Z</time>
      </trkpt>
      <trkpt lat="47.82221" lon="-3.65186">
        <ele>5.2</ele>
        <time>2020-06-07T13:59:06Z</time>
      </trkpt>
      <trkpt lat="47.82224" lon="-3.65193">
        <ele>5.2</ele>
        <time>2020-06-07T13:59:07Z</time>
      </trkpt>
      <trkpt lat="47.82227" lon="-3.652">
        <ele>5.2</ele>
        <time>2020-06-07T13:59:08Z</time>
      </trkpt>
      <trkpt lat="47.82231" lon="-3.65208">
        <ele>5.2</ele>
        <time>2020-06-07T13:59:09Z</time>
      </trkpt>
      <trkpt lat="47.82234" lon="-3.65214">
        <ele>5.2</ele>
        <time>2020-06-07T13:59:10Z</time>
      </trkpt>
      <trkpt lat="47.82238" lon="-3.6522">
        <ele>5.3</ele>
        <time>2020-06-07T13:59:11Z</time>
      </trkpt>
      <trkpt lat="47.82242" lon="-3.65227">
        <ele>5.3</ele>
        <time>2020-06-07T13:59:12Z</time>
      </trkpt>
      <trkpt lat="47.82245" lon="-3.65233">
        <ele>5.4</ele>
        <time>2020-06-07T13:59:13Z</time>
      </trkpt>
      <trkpt lat="47.82249" lon="-3.65239">
        <ele>5.5</ele>
        <time>2020-06-07T13:59:14Z</time>
      </trkpt>
      <trkpt lat="47.82252" lon="-3.65244">
        <ele>5.5</ele>
        <time>2020-06-07T13:59:15Z</time>
      </trkpt>
      <trkpt lat="47.82255" lon="-3.6525">
        <ele>5.6</ele>
        <time>2020-06-07T13:59:16Z</time>
      </trkpt>
      <trkpt lat="47.82258" lon="-3.65255">
        <ele>5.6</ele>
        <time>2020-06-07T13:59:17Z</time>
      </trkpt>
      <trkpt lat="47.82261" lon="-3.65259">
        <ele>5.7</ele>
        <time>2020-06-07T13:59:18Z</time>
      </trkpt>
      <trkpt lat="47.82264" lon="-3.65263">
        <ele>5.7</ele>
        <time>2020-06-07T13:59:19Z</time>
      </trkpt>
      <trkpt lat="47.82267" lon="-3.65267">
        <ele>5.7</ele>
        <time>2020-06-07T13:59:20Z</time>
      </trkpt>
      <trkpt lat="47.82269" lon="-3.65272">
        <ele>5.8</ele>
        <time>2020-06-07T13:59:21Z</time>
      </trkpt>
      <trkpt lat="47.82272" lon="-3.65277">
        <ele>5.9</ele>
        <time>2020-06-07T13:59:22Z</time>
      </trkpt>
      <trkpt lat="47.82274" lon="-3.65283">
        <ele>6</ele>
        <time>2020-06-07T13:59:23Z</time>
      </trkpt>
      <trkpt lat="47.82277" lon="-3.65289">
        <ele>6.1</ele>
        <time>2020-06-07T13:59:24Z</time>
      </trkpt>
      <trkpt lat="47.82279" lon="-3.65295">
        <ele>6.3</ele>
        <time>2020-06-07T13:59:25Z</time>
      </trkpt>
      <trkpt lat="47.82284" lon="-3.653">
        <ele>6.4</ele>
        <time>2020-06-07T13:59:26Z</time>
      </trkpt>
      <trkpt lat="47.82287" lon="-3.65306">
        <ele>6.6</ele>
        <time>2020-06-07T13:59:27Z</time>
      </trkpt>
      <trkpt lat="47.82291" lon="-3.65312">
        <ele>6.7</ele>
        <time>2020-06-07T13:59:28Z</time>
      </trkpt>
      <trkpt lat="47.82294" lon="-3.65318">
        <ele>6.9</ele>
        <time>2020-06-07T13:59:29Z</time>
      </trkpt>
      <trkpt lat="47.82297" lon="-3.65325">
        <ele>7</ele>
        <time>2020-06-07T13:59:30Z</time>
      </trkpt>
      <trkpt lat="47.82301" lon="-3.65331">
        <ele>7.2</ele>
        <time>2020-06-07T13:59:31Z</time>
      </trkpt>
      <trkpt lat="47.82303" lon="-3.65337">
        <ele>7.4</ele>
        <time>2020-06-07T13:59:32Z</time>
      </trkpt>
      <trkpt lat="47.82306" lon="-3.65342">
        <ele>7.5</ele>
        <time>2020-06-07T13:59:33Z</time>
      </trkpt>
      <trkpt lat="47.82309" lon="-3.65347">
        <ele>7.6</ele>
        <time>2020-06-07T13:59:34Z</time>
      </trkpt>
      <trkpt lat="47.82312" lon="-3.65352">
        <ele>7.8</ele>
        <time>2020-06-07T13:59:35Z</time>
      </trkpt>
      <trkpt lat="47.82315" lon="-3.65356">
        <ele>7.9</ele>
        <time>2020-06-07T13:59:36Z</time>
      </trkpt>
      <trkpt lat="47.82317" lon="-3.65362">
        <ele>8.1</ele>
        <time>2020-06-07T13:59:37Z</time>
      </trkpt>
      <trkpt lat="47.8232" lon="-3.65367">
        <ele>8.2</ele>
        <time>2020-06-07T13:59:38Z</time>
      </trkpt>
      <trkpt lat="47.82323" lon="-3.65372">
        <ele>8.4</ele>
        <time>2020-06-07T13:59:39Z</time>
      </trkpt>
      <trkpt lat="47.82326" lon="-3.65376">
        <ele>8.6</ele>
        <time>2020-06-07T13:59:40Z</time>
      </trkpt>
      <trkpt lat="47.82328" lon="-3.65382">
        <ele>8.7</ele>
        <time>2020-06-07T13:59:41Z</time>
      </trkpt>
      <trkpt lat="47.8233" lon="-3.65387">
        <ele>8.8</ele>
        <time>2020-06-07T13:59:42Z</time>
      </trkpt>
      <trkpt lat="47.82333" lon="-3.65393">
        <ele>9</ele>
        <time>2020-06-07T13:59:43Z</time>
      </trkpt>
      <trkpt lat="47.82335" lon="-3.65398">
        <ele>9.1</ele>
        <time>2020-06-07T13:59:44Z</time>
      </trkpt>
      <trkpt lat="47.82338" lon="-3.65402">
        <ele>9.2</ele>
        <time>2020-06-07T13:59:45Z</time>
      </trkpt>
      <trkpt lat="47.8234" lon="-3.65407">
        <ele>9.3</ele>
        <time>2020-06-07T13:59:46Z</time>
      </trkpt>
      <trkpt lat="47.82343" lon="-3.65413">
        <ele>9.4</ele>
        <time>2020-06-07T13:59:47Z</time>
      </trkpt>
      <trkpt lat="47.82346" lon="-3.65418">
        <ele>9.6</ele>
        <time>2020-06-07T13:59:48Z</time>
      </trkpt>
      <trkpt lat="47.82348" lon="-3.65422">
        <ele>9.7</ele>
        <time>2020-06-07T13:59:49Z</time>
      </trkpt>
      <trkpt lat="47.82352" lon="-3.65427">
        <ele>9.8</ele>
        <time>2020-06-07T13:59:50Z</time>
      </trkpt>
      <trkpt lat="47.82355" lon="-3.65432">
        <ele>9.9</ele>
        <time>2020-06-07T13:59:51Z</time>
      </trkpt>
      <trkpt lat="47.82359" lon="-3.65436">
        <ele>10</ele>
        <time>2020-06-07T13:59:52Z</time>
      </trkpt>
      <trkpt lat="47.82362" lon="-3.65441">
        <ele>10.1</ele>
        <time>2020-06-07T13:59:53Z</time>
      </trkpt>
      <trkpt lat="47.82364" lon="-3.65447">
        <ele>10.2</ele>
        <time>2020-06-07T13:59:54Z</time>
      </trkpt>
      <trkpt lat="47.82367" lon="-3.65454">
        <ele>10.3</ele>
        <time>2020-06-07T13:59:55Z</time>
      </trkpt>
      <trkpt lat="47.82369" lon="-3.65461">
        <ele>10.3</ele>
        <time>2020-06-07T13:59:56Z</time>
      </trkpt>
      <trkpt lat="47.82372" lon="-3.65467">
        <ele>10.4</ele>
        <time>2020-06-07T13:59:57Z</time>
      </trkpt>
      <trkpt lat="47.82374" lon="-3.65472">
        <ele>10.5</ele>
        <time>2020-06-07T13:59:58Z</time>
      </trkpt>
      <trkpt lat="47.82377" lon="-3.65478">
        <ele>10.5</ele>
        <time>2020-06-07T13:59:59Z</time>
      </trkpt>
      <trkpt lat="47.8238" lon="-3.65485">
        <ele>10.6</ele>
        <time>2020-06-07T14:00:00Z</time>
      </trkpt>
      <trkpt lat="47.82382" lon="-3.6549">
        <ele>10.6</ele>
        <time>2020-06-07T14:00:01Z</time>
      </trkpt>
      <trkpt lat="47.82384" lon="-3.65496">
        <ele>10.6</ele>
        <time>2020-06-07T14:00:02Z</time>
      </trkpt>
      <trkpt lat="47.82386" lon="-3.65501">
        <ele>10.7</ele>
        <time>2020-06-07T14:00:03Z</time>
      </trkpt>
      <trkpt lat="47.82389" lon="-3.65507">
        <ele>10.7</ele>
        <time>2020-06-07T14:00:04Z</time>
      </trkpt>
      <trkpt lat="47.82391" lon="-3.65513">
        <ele>10.7</ele>
        <time>2020-06-07T14:00:05Z</time>
      </trkpt>
      <trkpt lat="47.82394" lon="-3.65521">
        <ele>10.7</ele>
        <time>2020-06-07T14:00:06Z</time>
      </trkpt>
      <trkpt lat="47.82398" lon="-3.65529">
        <ele>10.7</ele>
        <time>2020-06-07T14:00:07Z</time>
      </trkpt>
      <trkpt lat="47.82399" lon="-3.65535">
        <ele>10.7</ele>
        <time>2020-06-07T14:00:08Z</time>
      </trkpt>
      <trkpt lat="47.82402" lon="-3.65542">
        <ele>10.7</ele>
        <time>2020-06-07T14:00:09Z</time>
      </trkpt>
      <trkpt lat="47.82405" lon="-3.6555">
        <ele>10.7</ele>
        <time>2020-06-07T14:00:10Z</time>
      </trkpt>
      <trkpt lat="47.82407" lon="-3.65557">
        <ele>10.7</ele>
        <time>2020-06-07T14:00:11Z</time>
      </trkpt>
      <trkpt lat="47.82408" lon="-3.65562">
        <ele>10.7</ele>
        <time>2020-06-07T14:00:12Z</time>
      </trkpt>
      <trkpt lat="47.82409" lon="-3.6557">
        <ele>10.7</ele>
        <time>2020-06-07T14:00:13Z</time>
      </trkpt>
      <trkpt lat="47.82411" lon="-3.65576">
        <ele>10.7</ele>
        <time>2020-06-07T14:00:14Z</time>
      </trkpt>
      <trkpt lat="47.82413" lon="-3.65584">
        <ele>10.7</ele>
        <time>2020-06-07T14:00:15Z</time>
      </trkpt>
      <trkpt lat="47.82415" lon="-3.65592">
        <ele>10.7</ele>
        <time>2020-06-07T14:00:16Z</time>
      </trkpt>
      <trkpt lat="47.82416" lon="-3.656">
        <ele>10.7</ele>
        <time>2020-06-07T14:00:17Z</time>
      </trkpt>
      <trkpt lat="47.82419" lon="-3.65607">
        <ele>10.8</ele>
        <time>2020-06-07T14:00:18Z</time>
      </trkpt>
      <trkpt lat="47.8242" lon="-3.65614">
        <ele>10.7</ele>
        <time>2020-06-07T14:00:19Z</time>
      </trkpt>
      <trkpt lat="47.82422" lon="-3.6562">
        <ele>10.7</ele>
        <time>2020-06-07T14:00:20Z</time>
      </trkpt>
      <trkpt lat="47.82423" lon="-3.65628">
        <ele>10.7</ele>
        <time>2020-06-07T14:00:21Z</time>
      </trkpt>
      <trkpt lat="47.82425" lon="-3.65636">
        <ele>10.7</ele>
        <time>2020-06-07T14:00:22Z</time>
      </trkpt>
      <trkpt lat="47.82427" lon="-3.65646">
        <ele>10.6</ele>
        <time>2020-06-07T14:00:23Z</time>
      </trkpt>
      <trkpt lat="47.82429" lon="-3.65655">
        <ele>10.6</ele>
        <time>2020-06-07T14:00:24Z</time>
      </trkpt>
      <trkpt lat="47.8243" lon="-3.65662">
        <ele>10.6</ele>
        <time>2020-06-07T14:00:25Z</time>
      </trkpt>
      <trkpt lat="47.82431" lon="-3.6567">
        <ele>10.6</ele>
        <time>2020-06-07T14:00:26Z</time>
      </trkpt>
      <trkpt lat="47.82433" lon="-3.65678">
        <ele>10.5</ele>
        <time>2020-06-07T14:00:27Z</time>
      </trkpt>
      <trkpt lat="47.82435" lon="-3.65686">
        <ele>10.5</ele>
        <time>2020-06-07T14:00:28Z</time>
      </trkpt>
      <trkpt lat="47.82437" lon="-3.65694">
        <ele>10.5</ele>
        <time>2020-06-07T14:00:29Z</time>
      </trkpt>
      <trkpt lat="47.82439" lon="-3.65701">
        <ele>10.5</ele>
        <time>2020-06-07T14:00:30Z</time>
      </trkpt>
      <trkpt lat="47.82441" lon="-3.65708">
        <ele>10.5</ele>
        <time>2020-06-07T14:00:31Z</time>
      </trkpt>
      <trkpt lat="47.82443" lon="-3.65714">
        <ele>10.5</ele>
        <time>2020-06-07T14:00:32Z</time>
      </trkpt>
      <trkpt lat="47.82445" lon="-3.65723">
        <ele>10.5</ele>
        <time>2020-06-07T14:00:33Z</time>
      </trkpt>
      <trkpt lat="47.82447" lon="-3.65731">
        <ele>10.4</ele>
        <time>2020-06-07T14:00:34Z</time>
      </trkpt>
      <trkpt lat="47.82448" lon="-3.65738">
        <ele>10.4</ele>
        <time>2020-06-07T14:00:35Z</time>
      </trkpt>
      <trkpt lat="47.82451" lon="-3.65746">
        <ele>10.4</ele>
        <time>2020-06-07T14:00:36Z</time>
      </trkpt>
      <trkpt lat="47.82453" lon="-3.65754">
        <ele>10.4</ele>
        <time>2020-06-07T14:00:37Z</time>
      </trkpt>
      <trkpt lat="47.82455" lon="-3.65763">
        <ele>10.4</ele>
        <time>2020-06-07T14:00:38Z</time>
      </trkpt>
      <trkpt lat="47.82456" lon="-3.65772">
        <ele>10.4</ele>
        <time>2020-06-07T14:00:39Z</time>
      </trkpt>
      <trkpt lat="47.82458" lon="-3.6578">
        <ele>10.3</ele>
        <time>2020-06-07T14:00:40Z</time>
      </trkpt>
      <trkpt lat="47.82461" lon="-3.65789">
        <ele>10.3</ele>
        <time>2020-06-07T14:00:41Z</time>
      </trkpt>
      <trkpt lat="47.82463" lon="-3.65797">
        <ele>10.2</ele>
        <time>2020-06-07T14:00:42Z</time>
      </trkpt>
      <trkpt lat="47.82464" lon="-3.65803">
        <ele>10.2</ele>
        <time>2020-06-07T14:00:43Z</time>
      </trkpt>
      <trkpt lat="47.82466" lon="-3.65809">
        <ele>10.1</ele>
        <time>2020-06-07T14:00:44Z</time>
      </trkpt>
      <trkpt lat="47.82468" lon="-3.65817">
        <ele>10.1</ele>
        <time>2020-06-07T14:00:45Z</time>
      </trkpt>
      <trkpt lat="47.8247" lon="-3.65824">
        <ele>10.1</ele>
        <time>2020-06-07T14:00:46Z</time>
      </trkpt>
      <trkpt lat="47.82472" lon="-3.65831">
        <ele>10</ele>
        <time>2020-06-07T14:00:47Z</time>
      </trkpt>
      <trkpt lat="47.82474" lon="-3.6584">
        <ele>10</ele>
        <time>2020-06-07T14:00:48Z</time>
      </trkpt>
      <trkpt lat="47.82476" lon="-3.65847">
        <ele>9.9</ele>
        <time>2020-06-07T14:00:49Z</time>
      </trkpt>
      <trkpt lat="47.82478" lon="-3.65855">
        <ele>9.9</ele>
        <time>2020-06-07T14:00:50Z</time>
      </trkpt>
      <trkpt lat="47.8248" lon="-3.65864">
        <ele>10.1</ele>
        <time>2020-06-07T14:00:51Z</time>
      </trkpt>
      <trkpt lat="47.82481" lon="-3.65874">
        <ele>10.2</ele>
        <time>2020-06-07T14:00:52Z</time>
      </trkpt>
      <trkpt lat="47.82482" lon="-3.65883">
        <ele>10.3</ele>
        <time>2020-06-07T14:00:53Z</time>
      </trkpt>
      <trkpt lat="47.82483" lon="-3.6589">
        <ele>10.4</ele>
        <time>2020-06-07T14:00:54Z</time>
      </trkpt>
      <trkpt lat="47.82484" lon="-3.65897">
        <ele>10.5</ele>
        <time>2020-06-07T14:00:55Z</time>
      </trkpt>
      <trkpt lat="47.82485" lon="-3.65906">
        <ele>10.6</ele>
        <time>2020-06-07T14:00:56Z</time>
      </trkpt>
      <trkpt lat="47.82486" lon="-3.65914">
        <ele>10.7</ele>
        <time>2020-06-07T14:00:57Z</time>
      </trkpt>
      <trkpt lat="47.82487" lon="-3.65922">
        <ele>10.8</ele>
        <time>2020-06-07T14:00:58Z</time>
      </trkpt>
      <trkpt lat="47.82487" lon="-3.6593">
        <ele>10.9</ele>
        <time>2020-06-07T14:00:59Z</time>
      </trkpt>
      <trkpt lat="47.82488" lon="-3.65939">
        <ele>11.1</ele>
        <time>2020-06-07T14:01:00Z</time>
      </trkpt>
      <trkpt lat="47.82489" lon="-3.65947">
        <ele>11.2</ele>
        <time>2020-06-07T14:01:01Z</time>
      </trkpt>
      <trkpt lat="47.82489" lon="-3.65955">
        <ele>11.4</ele>
        <time>2020-06-07T14:01:02Z</time>
      </trkpt>
      <trkpt lat="47.8249" lon="-3.65961">
        <ele>11.5</ele>
        <time>2020-06-07T14:01:03Z</time>
      </trkpt>
      <trkpt lat="47.8249" lon="-3.65969">
        <ele>11.7</ele>
        <time>2020-06-07T14:01:04Z</time>
      </trkpt>
      <trkpt lat="47.82491" lon="-3.65976">
        <ele>11.9</ele>
        <time>2020-06-07T14:01:05Z</time>
      </trkpt>
      <trkpt lat="47.82491" lon="-3.65982">
        <ele>12</ele>
        <time>2020-06-07T14:01:06Z</time>
      </trkpt>
      <trkpt lat="47.82492" lon="-3.65988">
        <ele>12.2</ele>
        <time>2020-06-07T14:01:07Z</time>
      </trkpt>
      <trkpt lat="47.82493" lon="-3.65996">
        <ele>12.4</ele>
        <time>2020-06-07T14:01:08Z</time>
      </trkpt>
      <trkpt lat="47.82494" lon="-3.66002">
        <ele>12.5</ele>
        <time>2020-06-07T14:01:09Z</time>
      </trkpt>
      <trkpt lat="47.82496" lon="-3.66009">
        <ele>12.7</ele>
        <time>2020-06-07T14:01:10Z</time>
      </trkpt>
      <trkpt lat="47.82497" lon="-3.66017">
        <ele>12.9</ele>
        <time>2020-06-07T14:01:11Z</time>
      </trkpt>
      <trkpt lat="47.82498" lon="-3.66023">
        <ele>13.1</ele>
        <time>2020-06-07T14:01:12Z</time>
      </trkpt>
      <trkpt lat="47.82499" lon="-3.66029">
        <ele>13.3</ele>
        <time>2020-06-07T14:01:13Z</time>
      </trkpt>
      <trkpt lat="47.825" lon="-3.66037">
        <ele>13.5</ele>
        <time>2020-06-07T14:01:14Z</time>
      </trkpt>
      <trkpt lat="47.825" lon="-3.66044">
        <ele>13.7</ele>
        <time>2020-06-07T14:01:15Z</time>
      </trkpt>
      <trkpt lat="47.82501" lon="-3.66052">
        <ele>13.8</ele>
        <time>2020-06-07T14:01:16Z</time>
      </trkpt>
      <trkpt lat="47.82502" lon="-3.66059">
        <ele>14</ele>
        <time>2020-06-07T14:01:17Z</time>
      </trkpt>
      <trkpt lat="47.82503" lon="-3.66066">
        <ele>14.2</ele>
        <time>2020-06-07T14:01:18Z</time>
      </trkpt>
      <trkpt lat="47.82504" lon="-3.66072">
        <ele>14.3</ele>
        <time>2020-06-07T14:01:19Z</time>
      </trkpt>
      <trkpt lat="47.82505" lon="-3.66077">
        <ele>14.4</ele>
        <time>2020-06-07T14:01:20Z</time>
      </trkpt>
      <trkpt lat="47.82506" lon="-3.66083">
        <ele>14.5</ele>
        <time>2020-06-07T14:01:21Z</time>
      </trkpt>
      <trkpt lat="47.82507" lon="-3.66092">
        <ele>14.6</ele>
        <time>2020-06-07T14:01:22Z</time>
      </trkpt>
      <trkpt lat="47.82508" lon="-3.66099">
        <ele>14.7</ele>
        <time>2020-06-07T14:01:23Z</time>
      </trkpt>
      <trkpt lat="47.82509" lon="-3.66104">
        <ele>14.8</ele>
        <time>2020-06-07T14:01:24Z</time>
      </trkpt>
      <trkpt lat="47.8251" lon="-3.66112">
        <ele>14.9</ele>
        <time>2020-06-07T14:01:25Z</time>
      </trkpt>
      <trkpt lat="47.82511" lon="-3.6612">
        <ele>14.9</ele>
        <time>2020-06-07T14:01:26Z</time>
      </trkpt>
      <trkpt lat="47.82511" lon="-3.66128">
        <ele>14.9</ele>
        <time>2020-06-07T14:01:27Z</time>
      </trkpt>
      <trkpt lat="47.82511" lon="-3.66136">
        <ele>14.9</ele>
        <time>2020-06-07T14:01:28Z</time>
      </trkpt>
      <trkpt lat="47.82511" lon="-3.66142">
        <ele>14.9</ele>
        <time>2020-06-07T14:01:29Z</time>
      </trkpt>
      <trkpt lat="47.8251" lon="-3.66149">
        <ele>14.9</ele>
        <time>2020-06-07T14:01:30Z</time>
      </trkpt>
      <trkpt lat="47.8251" lon="-3.66156">
        <ele>14.8</ele>
        <time>2020-06-07T14:01:31Z</time>
      </trkpt>
      <trkpt lat="47.82511" lon="-3.66163">
        <ele>14.8</ele>
        <time>2020-06-07T14:01:32Z</time>
      </trkpt>
      <trkpt lat="47.82511" lon="-3.66172">
        <ele>14.7</ele>
        <time>2020-06-07T14:01:33Z</time>
      </trkpt>
      <trkpt lat="47.82512" lon="-3.6618">
        <ele>14.7</ele>
        <time>2020-06-07T14:01:34Z</time>
      </trkpt>
      <trkpt lat="47.82513" lon="-3.66189">
        <ele>14.5</ele>
        <time>2020-06-07T14:01:35Z</time>
      </trkpt>
      <trkpt lat="47.82515" lon="-3.66196">
        <ele>14.4</ele>
        <time>2020-06-07T14:01:36Z</time>
      </trkpt>
      <trkpt lat="47.82515" lon="-3.66204">
        <ele>14.3</ele>
        <time>2020-06-07T14:01:37Z</time>
      </trkpt>
      <trkpt lat="47.82515" lon="-3.66211">
        <ele>14.2</ele>
        <time>2020-06-07T14:01:38Z</time>
      </trkpt>
      <trkpt lat="47.82515" lon="-3.66217">
        <ele>14.1</ele>
        <time>2020-06-07T14:01:39Z</time>
      </trkpt>
      <trkpt lat="47.82516" lon="-3.66225">
        <ele>13.9</ele>
        <time>2020-06-07T14:01:40Z</time>
      </trkpt>
      <trkpt lat="47.82517" lon="-3.66232">
        <ele>13.7</ele>
        <time>2020-06-07T14:01:41Z</time>
      </trkpt>
      <trkpt lat="47.82517" lon="-3.6624">
        <ele>13.5</ele>
        <time>2020-06-07T14:01:42Z</time>
      </trkpt>
      <trkpt lat="47.82518" lon="-3.66249">
        <ele>13.3</ele>
        <time>2020-06-07T14:01:43Z</time>
      </trkpt>
      <trkpt lat="47.82518" lon="-3.66258">
        <ele>13</ele>
        <time>2020-06-07T14:01:44Z</time>
      </trkpt>
      <trkpt lat="47.82519" lon="-3.66269">
        <ele>12.7</ele>
        <time>2020-06-07T14:01:45Z</time>
      </trkpt>
      <trkpt lat="47.82519" lon="-3.66279">
        <ele>12.3</ele>
        <time>2020-06-07T14:01:46Z</time>
      </trkpt>
      <trkpt lat="47.82519" lon="-3.66291">
        <ele>11.9</ele>
        <time>2020-06-07T14:01:47Z</time>
      </trkpt>
      <trkpt lat="47.8252" lon="-3.66302">
        <ele>11.5</ele>
        <time>2020-06-07T14:01:48Z</time>
      </trkpt>
      <trkpt lat="47.82521" lon="-3.66311">
        <ele>11.1</ele>
        <time>2020-06-07T14:01:49Z</time>
      </trkpt>
      <trkpt lat="47.82522" lon="-3.6632">
        <ele>10.7</ele>
        <time>2020-06-07T14:01:50Z</time>
      </trkpt>
      <trkpt lat="47.82523" lon="-3.66331">
        <ele>10.2</ele>
        <time>2020-06-07T14:01:51Z</time>
      </trkpt>
      <trkpt lat="47.82524" lon="-3.66342">
        <ele>9.7</ele>
        <time>2020-06-07T14:01:52Z</time>
      </trkpt>
      <trkpt lat="47.82525" lon="-3.66354">
        <ele>9.1</ele>
        <time>2020-06-07T14:01:53Z</time>
      </trkpt>
      <trkpt lat="47.82526" lon="-3.66368">
        <ele>8.4</ele>
        <time>2020-06-07T14:01:54Z</time>
      </trkpt>
      <trkpt lat="47.82527" lon="-3.66381">
        <ele>7.9</ele>
        <time>2020-06-07T14:01:55Z</time>
      </trkpt>
      <trkpt lat="47.82528" lon="-3.66393">
        <ele>7.4</ele>
        <time>2020-06-07T14:01:56Z</time>
      </trkpt>
      <trkpt lat="47.8253" lon="-3.66406">
        <ele>6.8</ele>
        <time>2020-06-07T14:01:57Z</time>
      </trkpt>
      <trkpt lat="47.82531" lon="-3.66419">
        <ele>6.3</ele>
        <time>2020-06-07T14:01:58Z</time>
      </trkpt>
      <trkpt lat="47.82532" lon="-3.66433">
        <ele>5.8</ele>
        <time>2020-06-07T14:01:59Z</time>
      </trkpt>
      <trkpt lat="47.82533" lon="-3.66446">
        <ele>5.3</ele>
        <time>2020-06-07T14:02:00Z</time>
      </trkpt>
      <trkpt lat="47.82534" lon="-3.66459">
        <ele>4.9</ele>
        <time>2020-06-07T14:02:01Z</time>
      </trkpt>
      <trkpt lat="47.82534" lon="-3.66473">
        <ele>4.6</ele>
        <time>2020-06-07T14:02:02Z</time>
      </trkpt>
      <trkpt lat="47.82536" lon="-3.66486">
        <ele>4.3</ele>
        <time>2020-06-07T14:02:03Z</time>
      </trkpt>
      <trkpt lat="47.82537" lon="-3.66499">
        <ele>4.1</ele>
        <time>2020-06-07T14:02:04Z</time>
      </trkpt>
      <trkpt lat="47.82538" lon="-3.66512">
        <ele>4</ele>
        <time>2020-06-07T14:02:05Z</time>
      </trkpt>
      <trkpt lat="47.82538" lon="-3.66525">
        <ele>3.8</ele>
        <time>2020-06-07T14:02:06Z</time>
      </trkpt>
      <trkpt lat="47.8254" lon="-3.66536">
        <ele>3.7</ele>
        <time>2020-06-07T14:02:07Z</time>
      </trkpt>
      <trkpt lat="47.82542" lon="-3.66549">
        <ele>3.5</ele>
        <time>2020-06-07T14:02:08Z</time>
      </trkpt>
      <trkpt lat="47.82544" lon="-3.66561">
        <ele>3.4</ele>
        <time>2020-06-07T14:02:09Z</time>
      </trkpt>
      <trkpt lat="47.82545" lon="-3.66574">
        <ele>3.3</ele>
        <time>2020-06-07T14:02:10Z</time>
      </trkpt>
      <trkpt lat="47.82546" lon="-3.66586">
        <ele>3.3</ele>
        <time>2020-06-07T14:02:11Z</time>
      </trkpt>
      <trkpt lat="47.82547" lon="-3.66598">
        <ele>3.2</ele>
        <time>2020-06-07T14:02:12Z</time>
      </trkpt>
      <trkpt lat="47.82548" lon="-3.6661">
        <ele>3.1</ele>
        <time>2020-06-07T14:02:13Z</time>
      </trkpt>
      <trkpt lat="47.82549" lon="-3.66622">
        <ele>3</ele>
        <time>2020-06-07T14:02:14Z</time>
      </trkpt>
      <trkpt lat="47.8255" lon="-3.66633">
        <ele>3</ele>
        <time>2020-06-07T14:02:15Z</time>
      </trkpt>
      <trkpt lat="47.82551" lon="-3.66645">
        <ele>3</ele>
        <time>2020-06-07T14:02:16Z</time>
      </trkpt>
      <trkpt lat="47.82552" lon="-3.66656">
        <ele>3</ele>
        <time>2020-06-07T14:02:17Z</time>
      </trkpt>
      <trkpt lat="47.82553" lon="-3.66667">
        <ele>3</ele>
        <time>2020-06-07T14:02:18Z</time>
      </trkpt>
      <trkpt lat="47.82554" lon="-3.66678">
        <ele>3.1</ele>
        <time>2020-06-07T14:02:19Z</time>
      </trkpt>
      <trkpt lat="47.82555" lon="-3.66689">
        <ele>3.1</ele>
        <time>2020-06-07T14:02:20Z</time>
      </trkpt>
      <trkpt lat="47.82555" lon="-3.66699">
        <ele>3.1</ele>
        <time>2020-06-07T14:02:21Z</time>
      </trkpt>
      <trkpt lat="47.82556" lon="-3.66708">
        <ele>3.2</ele>
        <time>2020-06-07T14:02:22Z</time>
      </trkpt>
      <trkpt lat="47.82557" lon="-3.66718">
        <ele>3.2</ele>
        <time>2020-06-07T14:02:23Z</time>
      </trkpt>
      <trkpt lat="47.82558" lon="-3.66727">
        <ele>3.4</ele>
        <time>2020-06-07T14:02:24Z</time>
      </trkpt>
      <trkpt lat="47.82559" lon="-3.66735">
        <ele>3.5</ele>
        <time>2020-06-07T14:02:25Z</time>
      </trkpt>
      <trkpt lat="47.82559" lon="-3.66743">
        <ele>3.7</ele>
        <time>2020-06-07T14:02:26Z</time>
      </trkpt>
      <trkpt lat="47.8256" lon="-3.6675">
        <ele>3.9</ele>
        <time>2020-06-07T14:02:27Z</time>
      </trkpt>
      <trkpt lat="47.82561" lon="-3.66758">
        <ele>4.1</ele>
        <time>2020-06-07T14:02:28Z</time>
      </trkpt>
      <trkpt lat="47.82562" lon="-3.66765">
        <ele>4.3</ele>
        <time>2020-06-07T14:02:29Z</time>
      </trkpt>
      <trkpt lat="47.82563" lon="-3.66771">
        <ele>4.5</ele>
        <time>2020-06-07T14:02:30Z</time>
      </trkpt>
      <trkpt lat="47.82565" lon="-3.66777">
        <ele>4.6</ele>
        <time>2020-06-07T14:02:31Z</time>
      </trkpt>
      <trkpt lat="47.82565" lon="-3.66782">
        <ele>4.6</ele>
        <time>2020-06-07T14:02:32Z</time>
      </trkpt>
      <trkpt lat="47.82566" lon="-3.66787">
        <ele>4.6</ele>
        <time>2020-06-07T14:02:33Z</time>
      </trkpt>
      <trkpt lat="47.82567" lon="-3.66792">
        <ele>4.6</ele>
        <time>2020-06-07T14:02:34Z</time>
      </trkpt>
      <trkpt lat="47.82567" lon="-3.66795">
        <ele>4.7</ele>
        <time>2020-06-07T14:02:35Z</time>
      </trkpt>
      <trkpt lat="47.82567" lon="-3.66797">
        <ele>4.7</ele>
        <time>2020-06-07T14:02:36Z</time>
      </trkpt>
      <trkpt lat="47.82568" lon="-3.66798">
        <ele>4.7</ele>
        <time>2020-06-07T14:02:37Z</time>
      </trkpt>
      <trkpt lat="47.82567" lon="-3.66798">
        <ele>4.7</ele>
        <time>2020-06-07T14:02:38Z</time>
      </trkpt>
      <trkpt lat="47.82567" lon="-3.66799">
        <ele>4.7</ele>
        <time>2020-06-07T14:02:39Z</time>
      </trkpt>
      <trkpt lat="47.82567" lon="-3.668">
        <ele>4.7</ele>
        <time>2020-06-07T14:02:40Z</time>
      </trkpt>
      <trkpt lat="47.82567" lon="-3.668">
        <ele>4.7</ele>
        <time>2020-06-07T14:02:41Z</time>
      </trkpt>
      <trkpt lat="47.82567" lon="-3.66801">
        <ele>4.7</ele>
        <time>2020-06-07T14:02:42Z</time>
      </trkpt>
      <trkpt lat="47.82567" lon="-3.66802">
        <ele>4.7</ele>
        <time>2020-06-07T14:02:43Z</time>
      </trkpt>
      <trkpt lat="47.82566" lon="-3.66802">
        <ele>4.7</ele>
        <time>2020-06-07T14:02:44Z</time>
      </trkpt>
      <trkpt lat="47.82566" lon="-3.66803">
        <ele>4.7</ele>
        <time>2020-06-07T14:02:45Z</time>
      </trkpt>
      <trkpt lat="47.82566" lon="-3.66804">
        <ele>4.7</ele>
        <time>2020-06-07T14:02:46Z</time>
      </trkpt>
      <trkpt lat="47.82566" lon="-3.66804">
        <ele>4.7</ele>
        <time>2020-06-07T14:02:47Z</time>
      </trkpt>
      <trkpt lat="47.82566" lon="-3.66805">
        <ele>4.7</ele>
        <time>2020-06-07T14:02:48Z</time>
      </trkpt>
      <trkpt lat="47.82566" lon="-3.66806">
        <ele>4.7</ele>
        <time>2020-06-07T14:02:49Z</time>
      </trkpt>
      <trkpt lat="47.82565" lon="-3.66806">
        <ele>4.7</ele>
        <time>2020-06-07T14:02:50Z</time>
      </trkpt>
      <trkpt lat="47.82565" lon="-3.66807">
        <ele>4.7</ele>
        <time>2020-06-07T14:02:51Z</time>
      </trkpt>
      <trkpt lat="47.82565" lon="-3.66808">
        <ele>4.7</ele>
        <time>2020-06-07T14:02:52Z</time>
      </trkpt>
      <trkpt lat="47.82565" lon="-3.66808">
        <ele>4.7</ele>
        <time>2020-06-07T14:03:15Z</time>
      </trkpt>
      <trkpt lat="47.82565" lon="-3.66809">
        <ele>4.7</ele>
        <time>2020-06-07T14:03:16Z</time>
      </trkpt>
      <trkpt lat="47.82565" lon="-3.66813">
        <ele>4.8</ele>
        <time>2020-06-07T14:03:17Z</time>
      </trkpt>
      <trkpt lat="47.82565" lon="-3.66818">
        <ele>4.8</ele>
        <time>2020-06-07T14:03:18Z</time>
      </trkpt>
      <trkpt lat="47.82565" lon="-3.66823">
        <ele>4.8</ele>
        <time>2020-06-07T14:03:19Z</time>
      </trkpt>
      <trkpt lat="47.82566" lon="-3.66828">
        <ele>4.8</ele>
        <time>2020-06-07T14:03:20Z</time>
      </trkpt>
      <trkpt lat="47.82566" lon="-3.66834">
        <ele>4.9</ele>
        <time>2020-06-07T14:03:21Z</time>
      </trkpt>
      <trkpt lat="47.82567" lon="-3.6684">
        <ele>4.9</ele>
        <time>2020-06-07T14:03:22Z</time>
      </trkpt>
      <trkpt lat="47.82568" lon="-3.66847">
        <ele>5</ele>
        <time>2020-06-07T14:03:23Z</time>
      </trkpt>
      <trkpt lat="47.82568" lon="-3.66854">
        <ele>5.1</ele>
        <time>2020-06-07T14:03:24Z</time>
      </trkpt>
      <trkpt lat="47.82569" lon="-3.66862">
        <ele>5.1</ele>
        <time>2020-06-07T14:03:25Z</time>
      </trkpt>
      <trkpt lat="47.8257" lon="-3.6687">
        <ele>5.2</ele>
        <time>2020-06-07T14:03:26Z</time>
      </trkpt>
      <trkpt lat="47.82571" lon="-3.66877">
        <ele>5.3</ele>
        <time>2020-06-07T14:03:27Z</time>
      </trkpt>
      <trkpt lat="47.82572" lon="-3.66885">
        <ele>5.3</ele>
        <time>2020-06-07T14:03:28Z</time>
      </trkpt>
      <trkpt lat="47.82573" lon="-3.66893">
        <ele>5.4</ele>
        <time>2020-06-07T14:03:29Z</time>
      </trkpt>
      <trkpt lat="47.82574" lon="-3.66901">
        <ele>5.5</ele>
        <time>2020-06-07T14:03:30Z</time>
      </trkpt>
      <trkpt lat="47.82576" lon="-3.66909">
        <ele>5.6</ele>
        <time>2020-06-07T14:03:31Z</time>
      </trkpt>
      <trkpt lat="47.82577" lon="-3.66917">
        <ele>5.7</ele>
        <time>2020-06-07T14:03:32Z</time>
      </trkpt>
      <trkpt lat="47.82577" lon="-3.66925">
        <ele>5.7</ele>
        <time>2020-06-07T14:03:33Z</time>
      </trkpt>
      <trkpt lat="47.82578" lon="-3.66932">
        <ele>5.8</ele>
        <time>2020-06-07T14:03:34Z</time>
      </trkpt>
      <trkpt lat="47.8258" lon="-3.66941">
        <ele>5.8</ele>
        <time>2020-06-07T14:03:35Z</time>
      </trkpt>
      <trkpt lat="47.82581" lon="-3.66949">
        <ele>5.9</ele>
        <time>2020-06-07T14:03:36Z</time>
      </trkpt>
      <trkpt lat="47.82582" lon="-3.66956">
        <ele>5.9</ele>
        <time>2020-06-07T14:03:37Z</time>
      </trkpt>
      <trkpt lat="47.82584" lon="-3.66965">
        <ele>5.9</ele>
        <time>2020-06-07T14:03:38Z</time>
      </trkpt>
      <trkpt lat="47.82585" lon="-3.66971">
        <ele>5.9</ele>
        <time>2020-06-07T14:03:39Z</time>
      </trkpt>
      <trkpt lat="47.82587" lon="-3.66977">
        <ele>6</ele>
        <time>2020-06-07T14:03:40Z</time>
      </trkpt>
      <trkpt lat="47.8259" lon="-3.66982">
        <ele>6</ele>
        <time>2020-06-07T14:03:41Z</time>
      </trkpt>
      <trkpt lat="47.82593" lon="-3.66992">
        <ele>6.1</ele>
        <time>2020-06-07T14:03:42Z</time>
      </trkpt>
      <trkpt lat="47.82594" lon="-3.66998">
        <ele>6.2</ele>
        <time>2020-06-07T14:03:43Z</time>
      </trkpt>
      <trkpt lat="47.82597" lon="-3.67006">
        <ele>6.3</ele>
        <time>2020-06-07T14:03:44Z</time>
      </trkpt>
      <trkpt lat="47.82598" lon="-3.67013">
        <ele>6.4</ele>
        <time>2020-06-07T14:03:45Z</time>
      </trkpt>
      <trkpt lat="47.82601" lon="-3.67021">
        <ele>6.4</ele>
        <time>2020-06-07T14:03:46Z</time>
      </trkpt>
      <trkpt lat="47.82603" lon="-3.67029">
        <ele>6.5</ele>
        <time>2020-06-07T14:03:47Z</time>
      </trkpt>
      <trkpt lat="47.82605" lon="-3.67036">
        <ele>6.6</ele>
        <time>2020-06-07T14:03:48Z</time>
      </trkpt>
      <trkpt lat="47.82607" lon="-3.67044">
        <ele>6.6</ele>
        <time>2020-06-07T14:03:49Z</time>
      </trkpt>
      <trkpt lat="47.82611" lon="-3.67054">
        <ele>6.6</ele>
        <time>2020-06-07T14:03:50Z</time>
      </trkpt>
      <trkpt lat="47.82614" lon="-3.67062">
        <ele>6.6</ele>
        <time>2020-06-07T14:03:51Z</time>
      </trkpt>
      <trkpt lat="47.82616" lon="-3.67068">
        <ele>6.7</ele>
        <time>2020-06-07T14:03:52Z</time>
      </trkpt>
      <trkpt lat="47.82619" lon="-3.67075">
        <ele>6.7</ele>
        <time>2020-06-07T14:03:53Z</time>
      </trkpt>
      <trkpt lat="47.82623" lon="-3.67082">
        <ele>6.7</ele>
        <time>2020-06-07T14:03:54Z</time>
      </trkpt>
      <trkpt lat="47.82626" lon="-3.67089">
        <ele>6.7</ele>
        <time>2020-06-07T14:03:55Z</time>
      </trkpt>
      <trkpt lat="47.8263" lon="-3.67093">
        <ele>6.8</ele>
        <time>2020-06-07T14:03:56Z</time>
      </trkpt>
      <trkpt lat="47.82633" lon="-3.67101">
        <ele>6.8</ele>
        <time>2020-06-07T14:03:57Z</time>
      </trkpt>
      <trkpt lat="47.82637" lon="-3.67109">
        <ele>6.8</ele>
        <time>2020-06-07T14:03:58Z</time>
      </trkpt>
      <trkpt lat="47.8264" lon="-3.67116">
        <ele>6.9</ele>
        <time>2020-06-07T14:03:59Z</time>
      </trkpt>
      <trkpt lat="47.82644" lon="-3.67123">
        <ele>6.9</ele>
        <time>2020-06-07T14:04:00Z</time>
      </trkpt>
      <trkpt lat="47.82648" lon="-3.6713">
        <ele>6.9</ele>
        <time>2020-06-07T14:04:01Z</time>
      </trkpt>
      <trkpt lat="47.82652" lon="-3.67137">
        <ele>7</ele>
        <time>2020-06-07T14:04:02Z</time>
      </trkpt>
      <trkpt lat="47.82655" lon="-3.67143">
        <ele>7</ele>
        <time>2020-06-07T14:04:03Z</time>
      </trkpt>
      <trkpt lat="47.8266" lon="-3.6715">
        <ele>7</ele>
        <time>2020-06-07T14:04:04Z</time>
      </trkpt>
      <trkpt lat="47.82665" lon="-3.67156">
        <ele>7.1</ele>
        <time>2020-06-07T14:04:05Z</time>
      </trkpt>
      <trkpt lat="47.82669" lon="-3.67163">
        <ele>7.1</ele>
        <time>2020-06-07T14:04:06Z</time>
      </trkpt>
      <trkpt lat="47.82672" lon="-3.67167">
        <ele>7.2</ele>
        <time>2020-06-07T14:04:07Z</time>
      </trkpt>
      <trkpt lat="47.82678" lon="-3.67173">
        <ele>7.1</ele>
        <time>2020-06-07T14:04:08Z</time>
      </trkpt>
      <trkpt lat="47.82683" lon="-3.6718">
        <ele>7.1</ele>
        <time>2020-06-07T14:04:09Z</time>
      </trkpt>
      <trkpt lat="47.82687" lon="-3.67185">
        <ele>7.1</ele>
        <time>2020-06-07T14:04:10Z</time>
      </trkpt>
      <trkpt lat="47.82692" lon="-3.6719">
        <ele>7.1</ele>
        <time>2020-06-07T14:04:11Z</time>
      </trkpt>
      <trkpt lat="47.82695" lon="-3.67194">
        <ele>7.2</ele>
        <time>2020-06-07T14:04:12Z</time>
      </trkpt>
      <trkpt lat="47.82699" lon="-3.672">
        <ele>7.2</ele>
        <time>2020-06-07T14:04:13Z</time>
      </trkpt>
      <trkpt lat="47.82704" lon="-3.67205">
        <ele>7.2</ele>
        <time>2020-06-07T14:04:14Z</time>
      </trkpt>
      <trkpt lat="47.82708" lon="-3.6721">
        <ele>7.3</ele>
        <time>2020-06-07T14:04:15Z</time>
      </trkpt>
      <trkpt lat="47.82713" lon="-3.67214">
        <ele>7.3</ele>
        <time>2020-06-07T14:04:16Z</time>
      </trkpt>
      <trkpt lat="47.82718" lon="-3.67219">
        <ele>7.3</ele>
        <time>2020-06-07T14:04:17Z</time>
      </trkpt>
      <trkpt lat="47.82724" lon="-3.67224">
        <ele>7.4</ele>
        <time>2020-06-07T14:04:18Z</time>
      </trkpt>
      <trkpt lat="47.8273" lon="-3.6723">
        <ele>7.4</ele>
        <time>2020-06-07T14:04:19Z</time>
      </trkpt>
      <trkpt lat="47.82735" lon="-3.67235">
        <ele>7.5</ele>
        <time>2020-06-07T14:04:20Z</time>
      </trkpt>
      <trkpt lat="47.8274" lon="-3.67239">
        <ele>7.5</ele>
        <time>2020-06-07T14:04:21Z</time>
      </trkpt>
      <trkpt lat="47.82745" lon="-3.67242">
        <ele>7.5</ele>
        <time>2020-06-07T14:04:22Z</time>
      </trkpt>
      <trkpt lat="47.82749" lon="-3.67246">
        <ele>7.5</ele>
        <time>2020-06-07T14:04:23Z</time>
      </trkpt>
      <trkpt lat="47.82754" lon="-3.6725">
        <ele>7.5</ele>
        <time>2020-06-07T14:04:24Z</time>
      </trkpt>
      <trkpt lat="47.82761" lon="-3.67254">
        <ele>7.5</ele>
        <time>2020-06-07T14:04:25Z</time>
      </trkpt>
      <trkpt lat="47.82764" lon="-3.67256">
        <ele>7.6</ele>
        <time>2020-06-07T14:04:26Z</time>
      </trkpt>
      <trkpt lat="47.82768" lon="-3.67258">
        <ele>7.6</ele>
        <time>2020-06-07T14:04:27Z</time>
      </trkpt>
      <trkpt lat="47.82773" lon="-3.67262">
        <ele>7.6</ele>
        <time>2020-06-07T14:04:28Z</time>
      </trkpt>
      <trkpt lat="47.82778" lon="-3.67264">
        <ele>7.6</ele>
        <time>2020-06-07T14:04:29Z</time>
      </trkpt>
      <trkpt lat="47.82783" lon="-3.67268">
        <ele>7.7</ele>
        <time>2020-06-07T14:04:30Z</time>
      </trkpt>
      <trkpt lat="47.82789" lon="-3.67271">
        <ele>7.8</ele>
        <time>2020-06-07T14:04:31Z</time>
      </trkpt>
      <trkpt lat="47.82795" lon="-3.67273">
        <ele>7.8</ele>
        <time>2020-06-07T14:04:32Z</time>
      </trkpt>
      <trkpt lat="47.828" lon="-3.67275">
        <ele>7.9</ele>
        <time>2020-06-07T14:04:33Z</time>
      </trkpt>
      <trkpt lat="47.82803" lon="-3.67277">
        <ele>8</ele>
        <time>2020-06-07T14:04:34Z</time>
      </trkpt>
      <trkpt lat="47.82808" lon="-3.67279">
        <ele>8</ele>
        <time>2020-06-07T14:04:35Z</time>
      </trkpt>
      <trkpt lat="47.82813" lon="-3.67282">
        <ele>8</ele>
        <time>2020-06-07T14:04:36Z</time>
      </trkpt>
      <trkpt lat="47.82818" lon="-3.67285">
        <ele>8.1</ele>
        <time>2020-06-07T14:04:37Z</time>
      </trkpt>
      <trkpt lat="47.82823" lon="-3.67287">
        <ele>8.1</ele>
        <time>2020-06-07T14:04:38Z</time>
      </trkpt>
      <trkpt lat="47.82829" lon="-3.67291">
        <ele>8.1</ele>
        <time>2020-06-07T14:04:39Z</time>
      </trkpt>
      <trkpt lat="47.82835" lon="-3.67294">
        <ele>8.1</ele>
        <time>2020-06-07T14:04:40Z</time>
      </trkpt>
      <trkpt lat="47.82841" lon="-3.67296">
        <ele>8.1</ele>
        <time>2020-06-07T14:04:41Z</time>
      </trkpt>
      <trkpt lat="47.82846" lon="-3.67298">
        <ele>8.1</ele>
        <time>2020-06-07T14:04:42Z</time>
      </trkpt>
      <trkpt lat="47.82852" lon="-3.673">
        <ele>8.1</ele>
        <time>2020-06-07T14:04:43Z</time>
      </trkpt>
      <trkpt lat="47.82858" lon="-3.67302">
        <ele>8.1</ele>
        <time>2020-06-07T14:04:44Z</time>
      </trkpt>
      <trkpt lat="47.82863" lon="-3.67304">
        <ele>8.1</ele>
        <time>2020-06-07T14:04:45Z</time>
      </trkpt>
      <trkpt lat="47.82868" lon="-3.67306">
        <ele>8.1</ele>
        <time>2020-06-07T14:04:46Z</time>
      </trkpt>
      <trkpt lat="47.82874" lon="-3.67308">
        <ele>8.1</ele>
        <time>2020-06-07T14:04:47Z</time>
      </trkpt>
      <trkpt lat="47.8288" lon="-3.67311">
        <ele>8.1</ele>
        <time>2020-06-07T14:04:48Z</time>
      </trkpt>
      <trkpt lat="47.82885" lon="-3.67315">
        <ele>8.2</ele>
        <time>2020-06-07T14:04:49Z</time>
      </trkpt>
      <trkpt lat="47.82891" lon="-3.67318">
        <ele>8.2</ele>
        <time>2020-06-07T14:04:50Z</time>
      </trkpt>
      <trkpt lat="47.82896" lon="-3.67321">
        <ele>8.2</ele>
        <time>2020-06-07T14:04:51Z</time>
      </trkpt>
      <trkpt lat="47.82901" lon="-3.67324">
        <ele>8.3</ele>
        <time>2020-06-07T14:04:52Z</time>
      </trkpt>
      <trkpt lat="47.82907" lon="-3.67327">
        <ele>8.3</ele>
        <time>2020-06-07T14:04:53Z</time>
      </trkpt>
      <trkpt lat="47.82912" lon="-3.67331">
        <ele>8.3</ele>
        <time>2020-06-07T14:04:54Z</time>
      </trkpt>
      <trkpt lat="47.82917" lon="-3.67333">
        <ele>8.4</ele>
        <time>2020-06-07T14:04:55Z</time>
      </trkpt>
      <trkpt lat="47.82922" lon="-3.67337">
        <ele>8.4</ele>
        <time>2020-06-07T14:04:56Z</time>
      </trkpt>
      <trkpt lat="47.82927" lon="-3.6734">
        <ele>8.4</ele>
        <time>2020-06-07T14:04:57Z</time>
      </trkpt>
      <trkpt lat="47.82933" lon="-3.67341">
        <ele>8.4</ele>
        <time>2020-06-07T14:04:58Z</time>
      </trkpt>
      <trkpt lat="47.82938" lon="-3.67343">
        <ele>8.5</ele>
        <time>2020-06-07T14:04:59Z</time>
      </trkpt>
      <trkpt lat="47.82944" lon="-3.67345">
        <ele>8.5</ele>
        <time>2020-06-07T14:05:00Z</time>
      </trkpt>
      <trkpt lat="47.82949" lon="-3.67348">
        <ele>8.5</ele>
        <time>2020-06-07T14:05:01Z</time>
      </trkpt>
      <trkpt lat="47.82954" lon="-3.67351">
        <ele>8.6</ele>
        <time>2020-06-07T14:05:02Z</time>
      </trkpt>
      <trkpt lat="47.82959" lon="-3.67353">
        <ele>8.6</ele>
        <time>2020-06-07T14:05:03Z</time>
      </trkpt>
      <trkpt lat="47.82965" lon="-3.67356">
        <ele>8.6</ele>
        <time>2020-06-07T14:05:04Z</time>
      </trkpt>
      <trkpt lat="47.82971" lon="-3.67359">
        <ele>8.7</ele>
        <time>2020-06-07T14:05:05Z</time>
      </trkpt>
      <trkpt lat="47.82976" lon="-3.67362">
        <ele>8.7</ele>
        <time>2020-06-07T14:05:06Z</time>
      </trkpt>
      <trkpt lat="47.82981" lon="-3.67365">
        <ele>8.8</ele>
        <time>2020-06-07T14:05:07Z</time>
      </trkpt>
      <trkpt lat="47.82986" lon="-3.67368">
        <ele>8.8</ele>
        <time>2020-06-07T14:05:08Z</time>
      </trkpt>
      <trkpt lat="47.82991" lon="-3.67371">
        <ele>8.8</ele>
        <time>2020-06-07T14:05:09Z</time>
      </trkpt>
      <trkpt lat="47.82996" lon="-3.67373">
        <ele>8.8</ele>
        <time>2020-06-07T14:05:10Z</time>
      </trkpt>
      <trkpt lat="47.83" lon="-3.67377">
        <ele>8.9</ele>
        <time>2020-06-07T14:05:11Z</time>
      </trkpt>
      <trkpt lat="47.83005" lon="-3.6738">
        <ele>8.9</ele>
        <time>2020-06-07T14:05:12Z</time>
      </trkpt>
      <trkpt lat="47.83011" lon="-3.67384">
        <ele>8.9</ele>
        <time>2020-06-07T14:05:13Z</time>
      </trkpt>
      <trkpt lat="47.83016" lon="-3.67387">
        <ele>8.9</ele>
        <time>2020-06-07T14:05:14Z</time>
      </trkpt>
      <trkpt lat="47.83021" lon="-3.6739">
        <ele>8.9</ele>
        <time>2020-06-07T14:05:15Z</time>
      </trkpt>
      <trkpt lat="47.83026" lon="-3.67394">
        <ele>8.9</ele>
        <time>2020-06-07T14:05:16Z</time>
      </trkpt>
      <trkpt lat="47.83031" lon="-3.67397">
        <ele>8.9</ele>
        <time>2020-06-07T14:05:17Z</time>
      </trkpt>
      <trkpt lat="47.83036" lon="-3.674">
        <ele>8.8</ele>
        <time>2020-06-07T14:05:18Z</time>
      </trkpt>
      <trkpt lat="47.8304" lon="-3.67403">
        <ele>8.8</ele>
        <time>2020-06-07T14:05:19Z</time>
      </trkpt>
      <trkpt lat="47.83044" lon="-3.67405">
        <ele>8.8</ele>
        <time>2020-06-07T14:05:20Z</time>
      </trkpt>
      <trkpt lat="47.83049" lon="-3.6741">
        <ele>8.8</ele>
        <time>2020-06-07T14:05:21Z</time>
      </trkpt>
      <trkpt lat="47.83052" lon="-3.67412">
        <ele>8.8</ele>
        <time>2020-06-07T14:05:22Z</time>
      </trkpt>
      <trkpt lat="47.83057" lon="-3.67416">
        <ele>8.8</ele>
        <time>2020-06-07T14:05:23Z</time>
      </trkpt>
      <trkpt lat="47.83061" lon="-3.67421">
        <ele>8.8</ele>
        <time>2020-06-07T14:05:24Z</time>
      </trkpt>
      <trkpt lat="47.83065" lon="-3.67425">
        <ele>8.8</ele>
        <time>2020-06-07T14:05:25Z</time>
      </trkpt>
      <trkpt lat="47.8307" lon="-3.67429">
        <ele>8.8</ele>
        <time>2020-06-07T14:05:26Z</time>
      </trkpt>
      <trkpt lat="47.83074" lon="-3.67434">
        <ele>8.8</ele>
        <time>2020-06-07T14:05:27Z</time>
      </trkpt>
      <trkpt lat="47.83079" lon="-3.67439">
        <ele>8.8</ele>
        <time>2020-06-07T14:05:28Z</time>
      </trkpt>
      <trkpt lat="47.83082" lon="-3.67442">
        <ele>8.7</ele>
        <time>2020-06-07T14:05:29Z</time>
      </trkpt>
      <trkpt lat="47.83085" lon="-3.67446">
        <ele>8.7</ele>
        <time>2020-06-07T14:05:30Z</time>
      </trkpt>
      <trkpt lat="47.83088" lon="-3.6745">
        <ele>8.7</ele>
        <time>2020-06-07T14:05:31Z</time>
      </trkpt>
      <trkpt lat="47.83092" lon="-3.67455">
        <ele>8.7</ele>
        <time>2020-06-07T14:05:32Z</time>
      </trkpt>
      <trkpt lat="47.83095" lon="-3.67459">
        <ele>8.7</ele>
        <time>2020-06-07T14:05:33Z</time>
      </trkpt>
      <trkpt lat="47.83098" lon="-3.67461">
        <ele>8.7</ele>
        <time>2020-06-07T14:05:34Z</time>
      </trkpt>
      <trkpt lat="47.83102" lon="-3.67467">
        <ele>8.7</ele>
        <time>2020-06-07T14:05:35Z</time>
      </trkpt>
      <trkpt lat="47.83106" lon="-3.67473">
        <ele>8.7</ele>
        <time>2020-06-07T14:05:36Z</time>
      </trkpt>
      <trkpt lat="47.83109" lon="-3.67479">
        <ele>8.7</ele>
        <time>2020-06-07T14:05:37Z</time>
      </trkpt>
      <trkpt lat="47.83113" lon="-3.67485">
        <ele>8.7</ele>
        <time>2020-06-07T14:05:38Z</time>
      </trkpt>
      <trkpt lat="47.83117" lon="-3.6749">
        <ele>8.7</ele>
        <time>2020-06-07T14:05:39Z</time>
      </trkpt>
      <trkpt lat="47.8312" lon="-3.67495">
        <ele>8.7</ele>
        <time>2020-06-07T14:05:40Z</time>
      </trkpt>
      <trkpt lat="47.83124" lon="-3.67502">
        <ele>8.7</ele>
        <time>2020-06-07T14:05:41Z</time>
      </trkpt>
      <trkpt lat="47.83127" lon="-3.67508">
        <ele>8.7</ele>
        <time>2020-06-07T14:05:42Z</time>
      </trkpt>
      <trkpt lat="47.8313" lon="-3.67516">
        <ele>8.8</ele>
        <time>2020-06-07T14:05:43Z</time>
      </trkpt>
      <trkpt lat="47.83133" lon="-3.67523">
        <ele>8.8</ele>
        <time>2020-06-07T14:05:44Z</time>
      </trkpt>
      <trkpt lat="47.83136" lon="-3.67529">
        <ele>8.8</ele>
        <time>2020-06-07T14:05:45Z</time>
      </trkpt>
      <trkpt lat="47.83137" lon="-3.67532">
        <ele>8.9</ele>
        <time>2020-06-07T14:05:46Z</time>
      </trkpt>
      <trkpt lat="47.8314" lon="-3.67538">
        <ele>8.9</ele>
        <time>2020-06-07T14:05:47Z</time>
      </trkpt>
      <trkpt lat="47.83143" lon="-3.67544">
        <ele>9</ele>
        <time>2020-06-07T14:05:48Z</time>
      </trkpt>
      <trkpt lat="47.83146" lon="-3.67549">
        <ele>9</ele>
        <time>2020-06-07T14:05:49Z</time>
      </trkpt>
      <trkpt lat="47.83149" lon="-3.67554">
        <ele>9.1</ele>
        <time>2020-06-07T14:05:50Z</time>
      </trkpt>
      <trkpt lat="47.83152" lon="-3.67558">
        <ele>9.1</ele>
        <time>2020-06-07T14:05:51Z</time>
      </trkpt>
      <trkpt lat="47.83155" lon="-3.67564">
        <ele>9.2</ele>
        <time>2020-06-07T14:05:52Z</time>
      </trkpt>
      <trkpt lat="47.83158" lon="-3.6757">
        <ele>9.2</ele>
        <time>2020-06-07T14:05:53Z</time>
      </trkpt>
      <trkpt lat="47.83161" lon="-3.67577">
        <ele>9.3</ele>
        <time>2020-06-07T14:05:54Z</time>
      </trkpt>
      <trkpt lat="47.83163" lon="-3.67581">
        <ele>9.3</ele>
        <time>2020-06-07T14:05:55Z</time>
      </trkpt>
      <trkpt lat="47.83166" lon="-3.67587">
        <ele>9.4</ele>
        <time>2020-06-07T14:05:56Z</time>
      </trkpt>
      <trkpt lat="47.83169" lon="-3.67593">
        <ele>9.5</ele>
        <time>2020-06-07T14:05:57Z</time>
      </trkpt>
      <trkpt lat="47.83172" lon="-3.67599">
        <ele>9.5</ele>
        <time>2020-06-07T14:05:58Z</time>
      </trkpt>
      <trkpt lat="47.83176" lon="-3.67605">
        <ele>9.6</ele>
        <time>2020-06-07T14:05:59Z</time>
      </trkpt>
      <trkpt lat="47.83178" lon="-3.6761">
        <ele>9.6</ele>
        <time>2020-06-07T14:06:00Z</time>
      </trkpt>
      <trkpt lat="47.8318" lon="-3.67614">
        <ele>9.7</ele>
        <time>2020-06-07T14:06:01Z</time>
      </trkpt>
      <trkpt lat="47.83183" lon="-3.67618">
        <ele>9.7</ele>
        <time>2020-06-07T14:06:02Z</time>
      </trkpt>
      <trkpt lat="47.83185" lon="-3.67624">
        <ele>9.8</ele>
        <time>2020-06-07T14:06:03Z</time>
      </trkpt>
      <trkpt lat="47.83188" lon="-3.67631">
        <ele>9.8</ele>
        <time>2020-06-07T14:06:04Z</time>
      </trkpt>
      <trkpt lat="47.8319" lon="-3.67637">
        <ele>9.9</ele>
        <time>2020-06-07T14:06:05Z</time>
      </trkpt>
      <trkpt lat="47.83192" lon="-3.67642">
        <ele>10</ele>
        <time>2020-06-07T14:06:06Z</time>
      </trkpt>
      <trkpt lat="47.83195" lon="-3.67646">
        <ele>10</ele>
        <time>2020-06-07T14:06:07Z</time>
      </trkpt>
      <trkpt lat="47.83197" lon="-3.67652">
        <ele>10.1</ele>
        <time>2020-06-07T14:06:08Z</time>
      </trkpt>
      <trkpt lat="47.832" lon="-3.67657">
        <ele>10.2</ele>
        <time>2020-06-07T14:06:09Z</time>
      </trkpt>
      <trkpt lat="47.83202" lon="-3.67661">
        <ele>10.2</ele>
        <time>2020-06-07T14:06:10Z</time>
      </trkpt>
      <trkpt lat="47.83206" lon="-3.67669">
        <ele>10.4</ele>
        <time>2020-06-07T14:06:11Z</time>
      </trkpt>
      <trkpt lat="47.83208" lon="-3.67674">
        <ele>10.5</ele>
        <time>2020-06-07T14:06:12Z</time>
      </trkpt>
      <trkpt lat="47.8321" lon="-3.67678">
        <ele>10.6</ele>
        <time>2020-06-07T14:06:13Z</time>
      </trkpt>
      <trkpt lat="47.83213" lon="-3.67683">
        <ele>10.7</ele>
        <time>2020-06-07T14:06:14Z</time>
      </trkpt>
      <trkpt lat="47.83215" lon="-3.67687">
        <ele>10.8</ele>
        <time>2020-06-07T14:06:15Z</time>
      </trkpt>
      <trkpt lat="47.83218" lon="-3.67691">
        <ele>10.9</ele>
        <time>2020-06-07T14:06:16Z</time>
      </trkpt>
      <trkpt lat="47.8322" lon="-3.67695">
        <ele>11</ele>
        <time>2020-06-07T14:06:17Z</time>
      </trkpt>
      <trkpt lat="47.83223" lon="-3.67699">
        <ele>11.1</ele>
        <time>2020-06-07T14:06:18Z</time>
      </trkpt>
      <trkpt lat="47.83225" lon="-3.67704">
        <ele>11.2</ele>
        <time>2020-06-07T14:06:19Z</time>
      </trkpt>
      <trkpt lat="47.83228" lon="-3.6771">
        <ele>11.3</ele>
        <time>2020-06-07T14:06:20Z</time>
      </trkpt>
      <trkpt lat="47.83231" lon="-3.67716">
        <ele>11.5</ele>
        <time>2020-06-07T14:06:21Z</time>
      </trkpt>
      <trkpt lat="47.83233" lon="-3.67721">
        <ele>11.6</ele>
        <time>2020-06-07T14:06:22Z</time>
      </trkpt>
      <trkpt lat="47.83235" lon="-3.67725">
        <ele>11.7</ele>
        <time>2020-06-07T14:06:23Z</time>
      </trkpt>
      <trkpt lat="47.83237" lon="-3.67728">
        <ele>11.8</ele>
        <time>2020-06-07T14:06:24Z</time>
      </trkpt>
      <trkpt lat="47.83238" lon="-3.67732">
        <ele>11.9</ele>
        <time>2020-06-07T14:06:25Z</time>
      </trkpt>
      <trkpt lat="47.8324" lon="-3.67737">
        <ele>12.1</ele>
        <time>2020-06-07T14:06:26Z</time>
      </trkpt>
      <trkpt lat="47.83244" lon="-3.67743">
        <ele>12.2</ele>
        <time>2020-06-07T14:06:27Z</time>
      </trkpt>
      <trkpt lat="47.83247" lon="-3.67748">
        <ele>12.4</ele>
        <time>2020-06-07T14:06:28Z</time>
      </trkpt>
      <trkpt lat="47.83249" lon="-3.67754">
        <ele>12.6</ele>
        <time>2020-06-07T14:06:29Z</time>
      </trkpt>
      <trkpt lat="47.8325" lon="-3.6776">
        <ele>12.7</ele>
        <time>2020-06-07T14:06:30Z</time>
      </trkpt>
      <trkpt lat="47.83253" lon="-3.67764">
        <ele>12.8</ele>
        <time>2020-06-07T14:06:31Z</time>
      </trkpt>
      <trkpt lat="47.83256" lon="-3.67768">
        <ele>13</ele>
        <time>2020-06-07T14:06:32Z</time>
      </trkpt>
      <trkpt lat="47.83258" lon="-3.67772">
        <ele>13.1</ele>
        <time>2020-06-07T14:06:33Z</time>
      </trkpt>
      <trkpt lat="47.8326" lon="-3.67776">
        <ele>13.3</ele>
        <time>2020-06-07T14:06:34Z</time>
      </trkpt>
      <trkpt lat="47.83263" lon="-3.6778">
        <ele>13.4</ele>
        <time>2020-06-07T14:06:35Z</time>
      </trkpt>
      <trkpt lat="47.83266" lon="-3.67786">
        <ele>13.6</ele>
        <time>2020-06-07T14:06:36Z</time>
      </trkpt>
      <trkpt lat="47.83267" lon="-3.6779">
        <ele>13.6</ele>
        <time>2020-06-07T14:06:37Z</time>
      </trkpt>
      <trkpt lat="47.83269" lon="-3.67796">
        <ele>13.7</ele>
        <time>2020-06-07T14:06:38Z</time>
      </trkpt>
      <trkpt lat="47.8327" lon="-3.678">
        <ele>13.8</ele>
        <time>2020-06-07T14:06:39Z</time>
      </trkpt>
      <trkpt lat="47.83273" lon="-3.67806">
        <ele>13.9</ele>
        <time>2020-06-07T14:06:40Z</time>
      </trkpt>
      <trkpt lat="47.83276" lon="-3.67811">
        <ele>14</ele>
        <time>2020-06-07T14:06:41Z</time>
      </trkpt>
      <trkpt lat="47.83279" lon="-3.67818">
        <ele>14.1</ele>
        <time>2020-06-07T14:06:42Z</time>
      </trkpt>
      <trkpt lat="47.83281" lon="-3.67824">
        <ele>14.2</ele>
        <time>2020-06-07T14:06:43Z</time>
      </trkpt>
      <trkpt lat="47.83283" lon="-3.67828">
        <ele>14.3</ele>
        <time>2020-06-07T14:06:44Z</time>
      </trkpt>
      <trkpt lat="47.83284" lon="-3.67833">
        <ele>14.4</ele>
        <time>2020-06-07T14:06:45Z</time>
      </trkpt>
      <trkpt lat="47.83287" lon="-3.6784">
        <ele>14.6</ele>
        <time>2020-06-07T14:06:46Z</time>
      </trkpt>
      <trkpt lat="47.83289" lon="-3.67846">
        <ele>14.7</ele>
        <time>2020-06-07T14:06:47Z</time>
      </trkpt>
      <trkpt lat="47.83291" lon="-3.67851">
        <ele>14.9</ele>
        <time>2020-06-07T14:06:48Z</time>
      </trkpt>
      <trkpt lat="47.83293" lon="-3.67856">
        <ele>15</ele>
        <time>2020-06-07T14:06:49Z</time>
      </trkpt>
      <trkpt lat="47.83296" lon="-3.6786">
        <ele>15.1</ele>
        <time>2020-06-07T14:06:50Z</time>
      </trkpt>
      <trkpt lat="47.83298" lon="-3.67865">
        <ele>15.2</ele>
        <time>2020-06-07T14:06:51Z</time>
      </trkpt>
      <trkpt lat="47.83299" lon="-3.67869">
        <ele>15.3</ele>
        <time>2020-06-07T14:06:52Z</time>
      </trkpt>
      <trkpt lat="47.83301" lon="-3.67873">
        <ele>15.4</ele>
        <time>2020-06-07T14:06:53Z</time>
      </trkpt>
      <trkpt lat="47.83302" lon="-3.67878">
        <ele>15.5</ele>
        <time>2020-06-07T14:06:54Z</time>
      </trkpt>
      <trkpt lat="47.83304" lon="-3.67886">
        <ele>15.7</ele>
        <time>2020-06-07T14:06:55Z</time>
      </trkpt>
      <trkpt lat="47.83306" lon="-3.6789">
        <ele>15.9</ele>
        <time>2020-06-07T14:06:56Z</time>
      </trkpt>
      <trkpt lat="47.83307" lon="-3.67896">
        <ele>16</ele>
        <time>2020-06-07T14:06:57Z</time>
      </trkpt>
      <trkpt lat="47.83309" lon="-3.67901">
        <ele>16.2</ele>
        <time>2020-06-07T14:06:58Z</time>
      </trkpt>
      <trkpt lat="47.8331" lon="-3.67906">
        <ele>16.3</ele>
        <time>2020-06-07T14:06:59Z</time>
      </trkpt>
      <trkpt lat="47.83311" lon="-3.67912">
        <ele>16.6</ele>
        <time>2020-06-07T14:07:00Z</time>
      </trkpt>
      <trkpt lat="47.83312" lon="-3.67917">
        <ele>16.7</ele>
        <time>2020-06-07T14:07:01Z</time>
      </trkpt>
      <trkpt lat="47.83314" lon="-3.67923">
        <ele>16.9</ele>
        <time>2020-06-07T14:07:02Z</time>
      </trkpt>
      <trkpt lat="47.83315" lon="-3.67929">
        <ele>17.1</ele>
        <time>2020-06-07T14:07:03Z</time>
      </trkpt>
      <trkpt lat="47.83317" lon="-3.67934">
        <ele>17.4</ele>
        <time>2020-06-07T14:07:04Z</time>
      </trkpt>
      <trkpt lat="47.83318" lon="-3.67937">
        <ele>17.5</ele>
        <time>2020-06-07T14:07:05Z</time>
      </trkpt>
      <trkpt lat="47.83319" lon="-3.67941">
        <ele>17.7</ele>
        <time>2020-06-07T14:07:06Z</time>
      </trkpt>
      <trkpt lat="47.83321" lon="-3.67945">
        <ele>17.9</ele>
        <time>2020-06-07T14:07:07Z</time>
      </trkpt>
      <trkpt lat="47.83322" lon="-3.67949">
        <ele>18.1</ele>
        <time>2020-06-07T14:07:08Z</time>
      </trkpt>
      <trkpt lat="47.83323" lon="-3.67954">
        <ele>18.3</ele>
        <time>2020-06-07T14:07:09Z</time>
      </trkpt>
      <trkpt lat="47.83322" lon="-3.67959">
        <ele>18.7</ele>
        <time>2020-06-07T14:07:10Z</time>
      </trkpt>
      <trkpt lat="47.83323" lon="-3.67966">
        <ele>18.9</ele>
        <time>2020-06-07T14:07:11Z</time>
      </trkpt>
      <trkpt lat="47.83324" lon="-3.6797">
        <ele>19.1</ele>
        <time>2020-06-07T14:07:12Z</time>
      </trkpt>
      <trkpt lat="47.83325" lon="-3.67975">
        <ele>19.2</ele>
        <time>2020-06-07T14:07:13Z</time>
      </trkpt>
      <trkpt lat="47.83325" lon="-3.67981">
        <ele>19.4</ele>
        <time>2020-06-07T14:07:14Z</time>
      </trkpt>
      <trkpt lat="47.83326" lon="-3.67987">
        <ele>19.5</ele>
        <time>2020-06-07T14:07:15Z</time>
      </trkpt>
      <trkpt lat="47.83327" lon="-3.67992">
        <ele>19.6</ele>
        <time>2020-06-07T14:07:16Z</time>
      </trkpt>
      <trkpt lat="47.83327" lon="-3.67997">
        <ele>19.8</ele>
        <time>2020-06-07T14:07:17Z</time>
      </trkpt>
      <trkpt lat="47.83328" lon="-3.68002">
        <ele>19.9</ele>
        <time>2020-06-07T14:07:18Z</time>
      </trkpt>
      <trkpt lat="47.83327" lon="-3.68008">
        <ele>20.1</ele>
        <time>2020-06-07T14:07:19Z</time>
      </trkpt>
      <trkpt lat="47.83327" lon="-3.68013">
        <ele>20.2</ele>
        <time>2020-06-07T14:07:20Z</time>
      </trkpt>
      <trkpt lat="47.83327" lon="-3.68018">
        <ele>20.3</ele>
        <time>2020-06-07T14:07:21Z</time>
      </trkpt>
      <trkpt lat="47.83327" lon="-3.6802">
        <ele>20.4</ele>
        <time>2020-06-07T14:07:22Z</time>
      </trkpt>
      <trkpt lat="47.83326" lon="-3.68025">
        <ele>20.5</ele>
        <time>2020-06-07T14:07:23Z</time>
      </trkpt>
      <trkpt lat="47.83326" lon="-3.6803">
        <ele>20.6</ele>
        <time>2020-06-07T14:07:24Z</time>
      </trkpt>
      <trkpt lat="47.83325" lon="-3.68036">
        <ele>20.8</ele>
        <time>2020-06-07T14:07:25Z</time>
      </trkpt>
      <trkpt lat="47.83325" lon="-3.68038">
        <ele>20.8</ele>
        <time>2020-06-07T14:07:26Z</time>
      </trkpt>
      <trkpt lat="47.83325" lon="-3.68042">
        <ele>20.9</ele>
        <time>2020-06-07T14:07:27Z</time>
      </trkpt>
      <trkpt lat="47.83324" lon="-3.68049">
        <ele>21.1</ele>
        <time>2020-06-07T14:07:28Z</time>
      </trkpt>
      <trkpt lat="47.83324" lon="-3.68053">
        <ele>21.2</ele>
        <time>2020-06-07T14:07:29Z</time>
      </trkpt>
      <trkpt lat="47.83323" lon="-3.68057">
        <ele>21.3</ele>
        <time>2020-06-07T14:07:30Z</time>
      </trkpt>
      <trkpt lat="47.83323" lon="-3.68062">
        <ele>21.5</ele>
        <time>2020-06-07T14:07:31Z</time>
      </trkpt>
      <trkpt lat="47.83323" lon="-3.68067">
        <ele>21.6</ele>
        <time>2020-06-07T14:07:32Z</time>
      </trkpt>
      <trkpt lat="47.83322" lon="-3.68071">
        <ele>21.7</ele>
        <time>2020-06-07T14:07:33Z</time>
      </trkpt>
      <trkpt lat="47.83322" lon="-3.68076">
        <ele>21.8</ele>
        <time>2020-06-07T14:07:34Z</time>
      </trkpt>
      <trkpt lat="47.83321" lon="-3.68082">
        <ele>21.9</ele>
        <time>2020-06-07T14:07:35Z</time>
      </trkpt>
      <trkpt lat="47.83321" lon="-3.68084">
        <ele>22</ele>
        <time>2020-06-07T14:07:36Z</time>
      </trkpt>
      <trkpt lat="47.83321" lon="-3.68091">
        <ele>22.1</ele>
        <time>2020-06-07T14:07:37Z</time>
      </trkpt>
      <trkpt lat="47.8332" lon="-3.68096">
        <ele>22.3</ele>
        <time>2020-06-07T14:07:38Z</time>
      </trkpt>
      <trkpt lat="47.8332" lon="-3.68103">
        <ele>22.4</ele>
        <time>2020-06-07T14:07:39Z</time>
      </trkpt>
      <trkpt lat="47.8332" lon="-3.68108">
        <ele>22.6</ele>
        <time>2020-06-07T14:07:40Z</time>
      </trkpt>
      <trkpt lat="47.8332" lon="-3.68113">
        <ele>22.7</ele>
        <time>2020-06-07T14:07:41Z</time>
      </trkpt>
      <trkpt lat="47.8332" lon="-3.68115">
        <ele>22.7</ele>
        <time>2020-06-07T14:07:42Z</time>
      </trkpt>
      <trkpt lat="47.83319" lon="-3.68119">
        <ele>22.8</ele>
        <time>2020-06-07T14:07:43Z</time>
      </trkpt>
      <trkpt lat="47.83319" lon="-3.68124">
        <ele>23</ele>
        <time>2020-06-07T14:07:44Z</time>
      </trkpt>
      <trkpt lat="47.83318" lon="-3.6813">
        <ele>23.1</ele>
        <time>2020-06-07T14:07:45Z</time>
      </trkpt>
      <trkpt lat="47.83317" lon="-3.68136">
        <ele>23.3</ele>
        <time>2020-06-07T14:07:46Z</time>
      </trkpt>
      <trkpt lat="47.83316" lon="-3.68143">
        <ele>23.5</ele>
        <time>2020-06-07T14:07:47Z</time>
      </trkpt>
      <trkpt lat="47.83315" lon="-3.68149">
        <ele>23.7</ele>
        <time>2020-06-07T14:07:48Z</time>
      </trkpt>
      <trkpt lat="47.83314" lon="-3.68155">
        <ele>23.9</ele>
        <time>2020-06-07T14:07:49Z</time>
      </trkpt>
      <trkpt lat="47.83314" lon="-3.68162">
        <ele>24.1</ele>
        <time>2020-06-07T14:07:50Z</time>
      </trkpt>
      <trkpt lat="47.83313" lon="-3.68167">
        <ele>24.3</ele>
        <time>2020-06-07T14:07:51Z</time>
      </trkpt>
      <trkpt lat="47.83312" lon="-3.68174">
        <ele>24.5</ele>
        <time>2020-06-07T14:07:52Z</time>
      </trkpt>
      <trkpt lat="47.83311" lon="-3.68181">
        <ele>24.7</ele>
        <time>2020-06-07T14:07:53Z</time>
      </trkpt>
      <trkpt lat="47.8331" lon="-3.68186">
        <ele>24.9</ele>
        <time>2020-06-07T14:07:54Z</time>
      </trkpt>
      <trkpt lat="47.8331" lon="-3.68191">
        <ele>25</ele>
        <time>2020-06-07T14:07:55Z</time>
      </trkpt>
      <trkpt lat="47.83309" lon="-3.682">
        <ele>25.3</ele>
        <time>2020-06-07T14:07:56Z</time>
      </trkpt>
      <trkpt lat="47.83308" lon="-3.68207">
        <ele>25.5</ele>
        <time>2020-06-07T14:07:57Z</time>
      </trkpt>
      <trkpt lat="47.83308" lon="-3.68214">
        <ele>25.7</ele>
        <time>2020-06-07T14:07:58Z</time>
      </trkpt>
      <trkpt lat="47.83307" lon="-3.6822">
        <ele>26</ele>
        <time>2020-06-07T14:07:59Z</time>
      </trkpt>
      <trkpt lat="47.83306" lon="-3.68226">
        <ele>26.2</ele>
        <time>2020-06-07T14:08:00Z</time>
      </trkpt>
      <trkpt lat="47.83305" lon="-3.68232">
        <ele>26.4</ele>
        <time>2020-06-07T14:08:01Z</time>
      </trkpt>
      <trkpt lat="47.83305" lon="-3.68237">
        <ele>26.5</ele>
        <time>2020-06-07T14:08:02Z</time>
      </trkpt>
      <trkpt lat="47.83304" lon="-3.68239">
        <ele>26.6</ele>
        <time>2020-06-07T14:08:03Z</time>
      </trkpt>
      <trkpt lat="47.83304" lon="-3.68243">
        <ele>26.7</ele>
        <time>2020-06-07T14:08:04Z</time>
      </trkpt>
      <trkpt lat="47.83305" lon="-3.68247">
        <ele>26.8</ele>
        <time>2020-06-07T14:08:05Z</time>
      </trkpt>
      <trkpt lat="47.83305" lon="-3.68254">
        <ele>27</ele>
        <time>2020-06-07T14:08:06Z</time>
      </trkpt>
      <trkpt lat="47.83305" lon="-3.68259">
        <ele>27.1</ele>
        <time>2020-06-07T14:08:07Z</time>
      </trkpt>
      <trkpt lat="47.83305" lon="-3.68265">
        <ele>27.3</ele>
        <time>2020-06-07T14:08:08Z</time>
      </trkpt>
      <trkpt lat="47.83305" lon="-3.68271">
        <ele>27.4</ele>
        <time>2020-06-07T14:08:09Z</time>
      </trkpt>
      <trkpt lat="47.83305" lon="-3.68277">
        <ele>27.5</ele>
        <time>2020-06-07T14:08:10Z</time>
      </trkpt>
      <trkpt lat="47.83306" lon="-3.68282">
        <ele>27.7</ele>
        <time>2020-06-07T14:08:11Z</time>
      </trkpt>
      <trkpt lat="47.83306" lon="-3.68287">
        <ele>27.8</ele>
        <time>2020-06-07T14:08:12Z</time>
      </trkpt>
      <trkpt lat="47.83307" lon="-3.68292">
        <ele>27.9</ele>
        <time>2020-06-07T14:08:13Z</time>
      </trkpt>
      <trkpt lat="47.83307" lon="-3.68296">
        <ele>28</ele>
        <time>2020-06-07T14:08:14Z</time>
      </trkpt>
      <trkpt lat="47.83307" lon="-3.68302">
        <ele>28.1</ele>
        <time>2020-06-07T14:08:15Z</time>
      </trkpt>
      <trkpt lat="47.83307" lon="-3.68308">
        <ele>28.3</ele>
        <time>2020-06-07T14:08:16Z</time>
      </trkpt>
      <trkpt lat="47.83307" lon="-3.68314">
        <ele>28.4</ele>
        <time>2020-06-07T14:08:17Z</time>
      </trkpt>
      <trkpt lat="47.83308" lon="-3.68319">
        <ele>28.5</ele>
        <time>2020-06-07T14:08:18Z</time>
      </trkpt>
      <trkpt lat="47.83309" lon="-3.68325">
        <ele>28.6</ele>
        <time>2020-06-07T14:08:19Z</time>
      </trkpt>
      <trkpt lat="47.83309" lon="-3.6833">
        <ele>28.6</ele>
        <time>2020-06-07T14:08:20Z</time>
      </trkpt>
      <trkpt lat="47.83309" lon="-3.68335">
        <ele>28.7</ele>
        <time>2020-06-07T14:08:21Z</time>
      </trkpt>
      <trkpt lat="47.8331" lon="-3.68339">
        <ele>28.8</ele>
        <time>2020-06-07T14:08:22Z</time>
      </trkpt>
      <trkpt lat="47.83311" lon="-3.68343">
        <ele>28.8</ele>
        <time>2020-06-07T14:08:23Z</time>
      </trkpt>
      <trkpt lat="47.83312" lon="-3.6835">
        <ele>28.9</ele>
        <time>2020-06-07T14:08:24Z</time>
      </trkpt>
      <trkpt lat="47.83313" lon="-3.68356">
        <ele>29</ele>
        <time>2020-06-07T14:08:25Z</time>
      </trkpt>
      <trkpt lat="47.83314" lon="-3.6836">
        <ele>29.1</ele>
        <time>2020-06-07T14:08:26Z</time>
      </trkpt>
      <trkpt lat="47.83315" lon="-3.68367">
        <ele>29.2</ele>
        <time>2020-06-07T14:08:27Z</time>
      </trkpt>
      <trkpt lat="47.83316" lon="-3.6837">
        <ele>29.2</ele>
        <time>2020-06-07T14:08:28Z</time>
      </trkpt>
      <trkpt lat="47.83317" lon="-3.68375">
        <ele>29.2</ele>
        <time>2020-06-07T14:08:29Z</time>
      </trkpt>
      <trkpt lat="47.83319" lon="-3.68381">
        <ele>29.2</ele>
        <time>2020-06-07T14:08:30Z</time>
      </trkpt>
      <trkpt lat="47.83321" lon="-3.68384">
        <ele>29.3</ele>
        <time>2020-06-07T14:08:31Z</time>
      </trkpt>
      <trkpt lat="47.83323" lon="-3.68388">
        <ele>29.3</ele>
        <time>2020-06-07T14:08:32Z</time>
      </trkpt>
      <trkpt lat="47.83324" lon="-3.68393">
        <ele>29.4</ele>
        <time>2020-06-07T14:08:33Z</time>
      </trkpt>
      <trkpt lat="47.83324" lon="-3.68398">
        <ele>29.4</ele>
        <time>2020-06-07T14:08:34Z</time>
      </trkpt>
      <trkpt lat="47.83326" lon="-3.68405">
        <ele>29.5</ele>
        <time>2020-06-07T14:08:35Z</time>
      </trkpt>
      <trkpt lat="47.83327" lon="-3.68408">
        <ele>29.5</ele>
        <time>2020-06-07T14:08:36Z</time>
      </trkpt>
      <trkpt lat="47.83329" lon="-3.68411">
        <ele>29.6</ele>
        <time>2020-06-07T14:08:37Z</time>
      </trkpt>
      <trkpt lat="47.83331" lon="-3.68417">
        <ele>29.7</ele>
        <time>2020-06-07T14:08:38Z</time>
      </trkpt>
      <trkpt lat="47.83333" lon="-3.68423">
        <ele>29.8</ele>
        <time>2020-06-07T14:08:39Z</time>
      </trkpt>
      <trkpt lat="47.83335" lon="-3.68428">
        <ele>29.8</ele>
        <time>2020-06-07T14:08:40Z</time>
      </trkpt>
      <trkpt lat="47.83337" lon="-3.68432">
        <ele>29.9</ele>
        <time>2020-06-07T14:08:41Z</time>
      </trkpt>
      <trkpt lat="47.83338" lon="-3.68437">
        <ele>30</ele>
        <time>2020-06-07T14:08:42Z</time>
      </trkpt>
      <trkpt lat="47.8334" lon="-3.68442">
        <ele>30</ele>
        <time>2020-06-07T14:08:43Z</time>
      </trkpt>
      <trkpt lat="47.83342" lon="-3.68448">
        <ele>30.1</ele>
        <time>2020-06-07T14:08:44Z</time>
      </trkpt>
      <trkpt lat="47.83343" lon="-3.68453">
        <ele>30.2</ele>
        <time>2020-06-07T14:08:45Z</time>
      </trkpt>
      <trkpt lat="47.83345" lon="-3.68459">
        <ele>30.3</ele>
        <time>2020-06-07T14:08:46Z</time>
      </trkpt>
      <trkpt lat="47.83347" lon="-3.68465">
        <ele>30.4</ele>
        <time>2020-06-07T14:08:47Z</time>
      </trkpt>
      <trkpt lat="47.83349" lon="-3.68471">
        <ele>30.4</ele>
        <time>2020-06-07T14:08:48Z</time>
      </trkpt>
      <trkpt lat="47.83351" lon="-3.68476">
        <ele>30.5</ele>
        <time>2020-06-07T14:08:49Z</time>
      </trkpt>
      <trkpt lat="47.83354" lon="-3.68481">
        <ele>30.7</ele>
        <time>2020-06-07T14:08:50Z</time>
      </trkpt>
      <trkpt lat="47.83356" lon="-3.68485">
        <ele>30.8</ele>
        <time>2020-06-07T14:08:51Z</time>
      </trkpt>
      <trkpt lat="47.8336" lon="-3.68489">
        <ele>30.9</ele>
        <time>2020-06-07T14:08:52Z</time>
      </trkpt>
      <trkpt lat="47.83363" lon="-3.68494">
        <ele>31.1</ele>
        <time>2020-06-07T14:08:53Z</time>
      </trkpt>
      <trkpt lat="47.83366" lon="-3.68499">
        <ele>31.2</ele>
        <time>2020-06-07T14:08:54Z</time>
      </trkpt>
      <trkpt lat="47.83368" lon="-3.68503">
        <ele>31.4</ele>
        <time>2020-06-07T14:08:55Z</time>
      </trkpt>
      <trkpt lat="47.8337" lon="-3.68507">
        <ele>31.5</ele>
        <time>2020-06-07T14:08:56Z</time>
      </trkpt>
      <trkpt lat="47.83373" lon="-3.68511">
        <ele>31.6</ele>
        <time>2020-06-07T14:08:57Z</time>
      </trkpt>
      <trkpt lat="47.83375" lon="-3.68515">
        <ele>31.8</ele>
        <time>2020-06-07T14:08:58Z</time>
      </trkpt>
      <trkpt lat="47.83378" lon="-3.68519">
        <ele>31.9</ele>
        <time>2020-06-07T14:08:59Z</time>
      </trkpt>
      <trkpt lat="47.83381" lon="-3.68522">
        <ele>32</ele>
        <time>2020-06-07T14:09:00Z</time>
      </trkpt>
      <trkpt lat="47.83383" lon="-3.68525">
        <ele>32.1</ele>
        <time>2020-06-07T14:09:01Z</time>
      </trkpt>
      <trkpt lat="47.83386" lon="-3.68529">
        <ele>32.3</ele>
        <time>2020-06-07T14:09:02Z</time>
      </trkpt>
      <trkpt lat="47.83389" lon="-3.68532">
        <ele>32.4</ele>
        <time>2020-06-07T14:09:03Z</time>
      </trkpt>
      <trkpt lat="47.83391" lon="-3.68535">
        <ele>32.5</ele>
        <time>2020-06-07T14:09:04Z</time>
      </trkpt>
      <trkpt lat="47.83393" lon="-3.68538">
        <ele>32.6</ele>
        <time>2020-06-07T14:09:05Z</time>
      </trkpt>
      <trkpt lat="47.83396" lon="-3.68541">
        <ele>32.7</ele>
        <time>2020-06-07T14:09:06Z</time>
      </trkpt>
      <trkpt lat="47.834" lon="-3.68545">
        <ele>32.8</ele>
        <time>2020-06-07T14:09:07Z</time>
      </trkpt>
      <trkpt lat="47.83403" lon="-3.68548">
        <ele>33</ele>
        <time>2020-06-07T14:09:08Z</time>
      </trkpt>
      <trkpt lat="47.83408" lon="-3.6855">
        <ele>33.2</ele>
        <time>2020-06-07T14:09:09Z</time>
      </trkpt>
      <trkpt lat="47.83411" lon="-3.68554">
        <ele>33.3</ele>
        <time>2020-06-07T14:09:10Z</time>
      </trkpt>
      <trkpt lat="47.83415" lon="-3.68558">
        <ele>33.5</ele>
        <time>2020-06-07T14:09:11Z</time>
      </trkpt>
      <trkpt lat="47.83418" lon="-3.68562">
        <ele>33.7</ele>
        <time>2020-06-07T14:09:12Z</time>
      </trkpt>
      <trkpt lat="47.83422" lon="-3.68566">
        <ele>33.8</ele>
        <time>2020-06-07T14:09:13Z</time>
      </trkpt>
      <trkpt lat="47.83425" lon="-3.68569">
        <ele>34</ele>
        <time>2020-06-07T14:09:14Z</time>
      </trkpt>
      <trkpt lat="47.83428" lon="-3.68574">
        <ele>34.1</ele>
        <time>2020-06-07T14:09:15Z</time>
      </trkpt>
      <trkpt lat="47.83432" lon="-3.68578">
        <ele>34.3</ele>
        <time>2020-06-07T14:09:16Z</time>
      </trkpt>
      <trkpt lat="47.83436" lon="-3.68581">
        <ele>34.6</ele>
        <time>2020-06-07T14:09:17Z</time>
      </trkpt>
      <trkpt lat="47.8344" lon="-3.68584">
        <ele>34.7</ele>
        <time>2020-06-07T14:09:18Z</time>
      </trkpt>
      <trkpt lat="47.83443" lon="-3.68586">
        <ele>34.9</ele>
        <time>2020-06-07T14:09:19Z</time>
      </trkpt>
      <trkpt lat="47.83446" lon="-3.68589">
        <ele>35.1</ele>
        <time>2020-06-07T14:09:20Z</time>
      </trkpt>
      <trkpt lat="47.8345" lon="-3.68592">
        <ele>35.3</ele>
        <time>2020-06-07T14:09:21Z</time>
      </trkpt>
      <trkpt lat="47.83454" lon="-3.68595">
        <ele>35.5</ele>
        <time>2020-06-07T14:09:22Z</time>
      </trkpt>
      <trkpt lat="47.83458" lon="-3.68598">
        <ele>35.7</ele>
        <time>2020-06-07T14:09:23Z</time>
      </trkpt>
      <trkpt lat="47.83461" lon="-3.68601">
        <ele>35.9</ele>
        <time>2020-06-07T14:09:24Z</time>
      </trkpt>
      <trkpt lat="47.83465" lon="-3.68602">
        <ele>36.1</ele>
        <time>2020-06-07T14:09:25Z</time>
      </trkpt>
      <trkpt lat="47.83469" lon="-3.68606">
        <ele>36.3</ele>
        <time>2020-06-07T14:09:26Z</time>
      </trkpt>
      <trkpt lat="47.83472" lon="-3.68609">
        <ele>36.4</ele>
        <time>2020-06-07T14:09:27Z</time>
      </trkpt>
      <trkpt lat="47.83475" lon="-3.68611">
        <ele>36.6</ele>
        <time>2020-06-07T14:09:28Z</time>
      </trkpt>
      <trkpt lat="47.83478" lon="-3.68614">
        <ele>36.8</ele>
        <time>2020-06-07T14:09:29Z</time>
      </trkpt>
      <trkpt lat="47.83482" lon="-3.68617">
        <ele>37</ele>
        <time>2020-06-07T14:09:30Z</time>
      </trkpt>
      <trkpt lat="47.83485" lon="-3.6862">
        <ele>37.2</ele>
        <time>2020-06-07T14:09:31Z</time>
      </trkpt>
      <trkpt lat="47.8349" lon="-3.68623">
        <ele>37.4</ele>
        <time>2020-06-07T14:09:32Z</time>
      </trkpt>
      <trkpt lat="47.83491" lon="-3.68625">
        <ele>37.5</ele>
        <time>2020-06-07T14:09:33Z</time>
      </trkpt>
      <trkpt lat="47.83495" lon="-3.68627">
        <ele>37.7</ele>
        <time>2020-06-07T14:09:34Z</time>
      </trkpt>
      <trkpt lat="47.83498" lon="-3.6863">
        <ele>37.9</ele>
        <time>2020-06-07T14:09:35Z</time>
      </trkpt>
      <trkpt lat="47.83502" lon="-3.68632">
        <ele>38.1</ele>
        <time>2020-06-07T14:09:36Z</time>
      </trkpt>
      <trkpt lat="47.83505" lon="-3.68634">
        <ele>38.3</ele>
        <time>2020-06-07T14:09:37Z</time>
      </trkpt>
      <trkpt lat="47.83508" lon="-3.68636">
        <ele>38.4</ele>
        <time>2020-06-07T14:09:38Z</time>
      </trkpt>
      <trkpt lat="47.8351" lon="-3.68638">
        <ele>38.6</ele>
        <time>2020-06-07T14:09:39Z</time>
      </trkpt>
      <trkpt lat="47.83514" lon="-3.68641">
        <ele>38.8</ele>
        <time>2020-06-07T14:09:40Z</time>
      </trkpt>
      <trkpt lat="47.83515" lon="-3.68641">
        <ele>38.9</ele>
        <time>2020-06-07T14:09:41Z</time>
      </trkpt>
      <trkpt lat="47.83519" lon="-3.68643">
        <ele>39.1</ele>
        <time>2020-06-07T14:09:42Z</time>
      </trkpt>
      <trkpt lat="47.8352" lon="-3.68644">
        <ele>39.2</ele>
        <time>2020-06-07T14:09:43Z</time>
      </trkpt>
      <trkpt lat="47.83525" lon="-3.68645">
        <ele>39.4</ele>
        <time>2020-06-07T14:09:44Z</time>
      </trkpt>
      <trkpt lat="47.83528" lon="-3.68649">
        <ele>39.6</ele>
        <time>2020-06-07T14:09:45Z</time>
      </trkpt>
      <trkpt lat="47.83529" lon="-3.68651">
        <ele>39.7</ele>
        <time>2020-06-07T14:09:46Z</time>
      </trkpt>
      <trkpt lat="47.83531" lon="-3.68654">
        <ele>39.8</ele>
        <time>2020-06-07T14:09:47Z</time>
      </trkpt>
      <trkpt lat="47.83533" lon="-3.68657">
        <ele>39.9</ele>
        <time>2020-06-07T14:09:48Z</time>
      </trkpt>
      <trkpt lat="47.83536" lon="-3.68659">
        <ele>40.1</ele>
        <time>2020-06-07T14:09:49Z</time>
      </trkpt>
      <trkpt lat="47.83537" lon="-3.6866">
        <ele>40.1</ele>
        <time>2020-06-07T14:09:50Z</time>
      </trkpt>
      <trkpt lat="47.83541" lon="-3.68662">
        <ele>40.2</ele>
        <time>2020-06-07T14:09:51Z</time>
      </trkpt>
      <trkpt lat="47.83542" lon="-3.68663">
        <ele>40.3</ele>
        <time>2020-06-07T14:09:52Z</time>
      </trkpt>
      <trkpt lat="47.83544" lon="-3.68666">
        <ele>40.5</ele>
        <time>2020-06-07T14:09:53Z</time>
      </trkpt>
      <trkpt lat="47.83546" lon="-3.68668">
        <ele>40.6</ele>
        <time>2020-06-07T14:09:54Z</time>
      </trkpt>
      <trkpt lat="47.83548" lon="-3.68672">
        <ele>40.8</ele>
        <time>2020-06-07T14:09:55Z</time>
      </trkpt>
      <trkpt lat="47.83549" lon="-3.68676">
        <ele>40.9</ele>
        <time>2020-06-07T14:09:56Z</time>
      </trkpt>
      <trkpt lat="47.8355" lon="-3.6868">
        <ele>41</ele>
        <time>2020-06-07T14:09:57Z</time>
      </trkpt>
      <trkpt lat="47.83551" lon="-3.68684">
        <ele>41.2</ele>
        <time>2020-06-07T14:09:58Z</time>
      </trkpt>
      <trkpt lat="47.83552" lon="-3.68688">
        <ele>41.3</ele>
        <time>2020-06-07T14:09:59Z</time>
      </trkpt>
      <trkpt lat="47.83554" lon="-3.68693">
        <ele>41.5</ele>
        <time>2020-06-07T14:10:00Z</time>
      </trkpt>
      <trkpt lat="47.83554" lon="-3.68698">
        <ele>41.7</ele>
        <time>2020-06-07T14:10:01Z</time>
      </trkpt>
      <trkpt lat="47.83554" lon="-3.687">
        <ele>41.7</ele>
        <time>2020-06-07T14:10:02Z</time>
      </trkpt>
      <trkpt lat="47.83554" lon="-3.68702">
        <ele>41.8</ele>
        <time>2020-06-07T14:10:03Z</time>
      </trkpt>
      <trkpt lat="47.83554" lon="-3.68704">
        <ele>41.9</ele>
        <time>2020-06-07T14:10:04Z</time>
      </trkpt>
      <trkpt lat="47.83554" lon="-3.68705">
        <ele>41.9</ele>
        <time>2020-06-07T14:10:05Z</time>
      </trkpt>
      <trkpt lat="47.83555" lon="-3.68706">
        <ele>41.9</ele>
        <time>2020-06-07T14:10:06Z</time>
      </trkpt>
      <trkpt lat="47.83555" lon="-3.68708">
        <ele>42</ele>
        <time>2020-06-07T14:10:07Z</time>
      </trkpt>
      <trkpt lat="47.83555" lon="-3.68712">
        <ele>42.1</ele>
        <time>2020-06-07T14:10:08Z</time>
      </trkpt>
      <trkpt lat="47.83555" lon="-3.68714">
        <ele>42.2</ele>
        <time>2020-06-07T14:10:09Z</time>
      </trkpt>
      <trkpt lat="47.83556" lon="-3.68718">
        <ele>42.3</ele>
        <time>2020-06-07T14:10:10Z</time>
      </trkpt>
      <trkpt lat="47.83556" lon="-3.68719">
        <ele>42.3</ele>
        <time>2020-06-07T14:10:11Z</time>
      </trkpt>
      <trkpt lat="47.83557" lon="-3.68722">
        <ele>42.4</ele>
        <time>2020-06-07T14:10:12Z</time>
      </trkpt>
      <trkpt lat="47.83557" lon="-3.68723">
        <ele>42.4</ele>
        <time>2020-06-07T14:10:13Z</time>
      </trkpt>
      <trkpt lat="47.83557" lon="-3.68723">
        <ele>42.4</ele>
        <time>2020-06-07T14:10:14Z</time>
      </trkpt>
      <trkpt lat="47.83558" lon="-3.68724">
        <ele>42.5</ele>
        <time>2020-06-07T14:10:15Z</time>
      </trkpt>
      <trkpt lat="47.83558" lon="-3.68725">
        <ele>42.5</ele>
        <time>2020-06-07T14:10:16Z</time>
      </trkpt>
      <trkpt lat="47.83558" lon="-3.68726">
        <ele>42.5</ele>
        <time>2020-06-07T14:10:17Z</time>
      </trkpt>
      <trkpt lat="47.83559" lon="-3.68726">
        <ele>42.5</ele>
        <time>2020-06-07T14:10:18Z</time>
      </trkpt>
      <trkpt lat="47.83559" lon="-3.68727">
        <ele>42.6</ele>
        <time>2020-06-07T14:10:19Z</time>
      </trkpt>
      <trkpt lat="47.83559" lon="-3.68728">
        <ele>42.6</ele>
        <time>2020-06-07T14:10:20Z</time>
      </trkpt>
      <trkpt lat="47.8356" lon="-3.68729">
        <ele>42.6</ele>
        <time>2020-06-07T14:10:21Z</time>
      </trkpt>
      <trkpt lat="47.8356" lon="-3.68729">
        <ele>42.6</ele>
        <time>2020-06-07T14:10:22Z</time>
      </trkpt>
      <trkpt lat="47.8356" lon="-3.6873">
        <ele>42.6</ele>
        <time>2020-06-07T14:10:23Z</time>
      </trkpt>
      <trkpt lat="47.83561" lon="-3.68731">
        <ele>42.7</ele>
        <time>2020-06-07T14:11:41Z</time>
      </trkpt>
      <trkpt lat="47.83561" lon="-3.68732">
        <ele>42.7</ele>
        <time>2020-06-07T14:11:42Z</time>
      </trkpt>
      <trkpt lat="47.83563" lon="-3.68737">
        <ele>42.8</ele>
        <time>2020-06-07T14:11:43Z</time>
      </trkpt>
      <trkpt lat="47.83565" lon="-3.68741">
        <ele>43</ele>
        <time>2020-06-07T14:11:44Z</time>
      </trkpt>
      <trkpt lat="47.83566" lon="-3.68746">
        <ele>43.1</ele>
        <time>2020-06-07T14:11:45Z</time>
      </trkpt>
      <trkpt lat="47.83568" lon="-3.68751">
        <ele>43.2</ele>
        <time>2020-06-07T14:11:46Z</time>
      </trkpt>
      <trkpt lat="47.8357" lon="-3.68756">
        <ele>43.4</ele>
        <time>2020-06-07T14:11:47Z</time>
      </trkpt>
      <trkpt lat="47.83571" lon="-3.6876">
        <ele>43.6</ele>
        <time>2020-06-07T14:11:48Z</time>
      </trkpt>
      <trkpt lat="47.83572" lon="-3.68764">
        <ele>43.6</ele>
        <time>2020-06-07T14:11:49Z</time>
      </trkpt>
      <trkpt lat="47.83574" lon="-3.68769">
        <ele>43.7</ele>
        <time>2020-06-07T14:11:50Z</time>
      </trkpt>
      <trkpt lat="47.83575" lon="-3.68772">
        <ele>43.8</ele>
        <time>2020-06-07T14:11:51Z</time>
      </trkpt>
      <trkpt lat="47.83578" lon="-3.68775">
        <ele>43.9</ele>
        <time>2020-06-07T14:11:52Z</time>
      </trkpt>
      <trkpt lat="47.83579" lon="-3.6878">
        <ele>44</ele>
        <time>2020-06-07T14:11:53Z</time>
      </trkpt>
      <trkpt lat="47.83581" lon="-3.68784">
        <ele>44</ele>
        <time>2020-06-07T14:11:54Z</time>
      </trkpt>
      <trkpt lat="47.83582" lon="-3.68789">
        <ele>44.1</ele>
        <time>2020-06-07T14:11:55Z</time>
      </trkpt>
      <trkpt lat="47.83584" lon="-3.68794">
        <ele>44.2</ele>
        <time>2020-06-07T14:11:56Z</time>
      </trkpt>
      <trkpt lat="47.83586" lon="-3.688">
        <ele>44.3</ele>
        <time>2020-06-07T14:11:57Z</time>
      </trkpt>
      <trkpt lat="47.83588" lon="-3.68804">
        <ele>44.4</ele>
        <time>2020-06-07T14:11:58Z</time>
      </trkpt>
      <trkpt lat="47.83589" lon="-3.6881">
        <ele>44.5</ele>
        <time>2020-06-07T14:11:59Z</time>
      </trkpt>
      <trkpt lat="47.83591" lon="-3.68814">
        <ele>44.6</ele>
        <time>2020-06-07T14:12:00Z</time>
      </trkpt>
      <trkpt lat="47.83593" lon="-3.68817">
        <ele>44.6</ele>
        <time>2020-06-07T14:12:01Z</time>
      </trkpt>
      <trkpt lat="47.83595" lon="-3.68821">
        <ele>44.7</ele>
        <time>2020-06-07T14:12:02Z</time>
      </trkpt>
      <trkpt lat="47.83597" lon="-3.68823">
        <ele>44.8</ele>
        <time>2020-06-07T14:12:03Z</time>
      </trkpt>
      <trkpt lat="47.836" lon="-3.68827">
        <ele>44.9</ele>
        <time>2020-06-07T14:12:04Z</time>
      </trkpt>
      <trkpt lat="47.83603" lon="-3.6883">
        <ele>44.9</ele>
        <time>2020-06-07T14:12:05Z</time>
      </trkpt>
      <trkpt lat="47.83605" lon="-3.68833">
        <ele>45</ele>
        <time>2020-06-07T14:12:06Z</time>
      </trkpt>
      <trkpt lat="47.83608" lon="-3.68836">
        <ele>45.1</ele>
        <time>2020-06-07T14:12:07Z</time>
      </trkpt>
      <trkpt lat="47.83611" lon="-3.68839">
        <ele>45.1</ele>
        <time>2020-06-07T14:12:08Z</time>
      </trkpt>
      <trkpt lat="47.83614" lon="-3.6884">
        <ele>45.2</ele>
        <time>2020-06-07T14:12:09Z</time>
      </trkpt>
      <trkpt lat="47.83617" lon="-3.68843">
        <ele>45.3</ele>
        <time>2020-06-07T14:12:10Z</time>
      </trkpt>
      <trkpt lat="47.83619" lon="-3.68844">
        <ele>45.4</ele>
        <time>2020-06-07T14:12:11Z</time>
      </trkpt>
      <trkpt lat="47.83622" lon="-3.68846">
        <ele>45.5</ele>
        <time>2020-06-07T14:12:12Z</time>
      </trkpt>
      <trkpt lat="47.83624" lon="-3.68847">
        <ele>45.5</ele>
        <time>2020-06-07T14:12:13Z</time>
      </trkpt>
      <trkpt lat="47.83627" lon="-3.68848">
        <ele>45.6</ele>
        <time>2020-06-07T14:12:14Z</time>
      </trkpt>
      <trkpt lat="47.83629" lon="-3.68849">
        <ele>45.6</ele>
        <time>2020-06-07T14:12:15Z</time>
      </trkpt>
      <trkpt lat="47.83633" lon="-3.6885">
        <ele>45.7</ele>
        <time>2020-06-07T14:12:16Z</time>
      </trkpt>
      <trkpt lat="47.83636" lon="-3.68852">
        <ele>45.8</ele>
        <time>2020-06-07T14:12:17Z</time>
      </trkpt>
      <trkpt lat="47.83639" lon="-3.68855">
        <ele>45.8</ele>
        <time>2020-06-07T14:12:18Z</time>
      </trkpt>
      <trkpt lat="47.83642" lon="-3.68856">
        <ele>45.9</ele>
        <time>2020-06-07T14:12:19Z</time>
      </trkpt>
      <trkpt lat="47.83645" lon="-3.68857">
        <ele>45.9</ele>
        <time>2020-06-07T14:12:20Z</time>
      </trkpt>
      <trkpt lat="47.83648" lon="-3.68858">
        <ele>46</ele>
        <time>2020-06-07T14:12:21Z</time>
      </trkpt>
      <trkpt lat="47.83652" lon="-3.6886">
        <ele>46</ele>
        <time>2020-06-07T14:12:22Z</time>
      </trkpt>
      <trkpt lat="47.83653" lon="-3.6886">
        <ele>46.1</ele>
        <time>2020-06-07T14:12:23Z</time>
      </trkpt>
      <trkpt lat="47.83656" lon="-3.6886">
        <ele>46.1</ele>
        <time>2020-06-07T14:12:24Z</time>
      </trkpt>
      <trkpt lat="47.83659" lon="-3.68862">
        <ele>46.2</ele>
        <time>2020-06-07T14:12:25Z</time>
      </trkpt>
      <trkpt lat="47.83662" lon="-3.68863">
        <ele>46.3</ele>
        <time>2020-06-07T14:12:26Z</time>
      </trkpt>
      <trkpt lat="47.83666" lon="-3.68864">
        <ele>46.4</ele>
        <time>2020-06-07T14:12:27Z</time>
      </trkpt>
      <trkpt lat="47.83669" lon="-3.68865">
        <ele>46.4</ele>
        <time>2020-06-07T14:12:28Z</time>
      </trkpt>
      <trkpt lat="47.83672" lon="-3.68865">
        <ele>46.5</ele>
        <time>2020-06-07T14:12:29Z</time>
      </trkpt>
      <trkpt lat="47.83676" lon="-3.68866">
        <ele>46.6</ele>
        <time>2020-06-07T14:12:30Z</time>
      </trkpt>
      <trkpt lat="47.83679" lon="-3.68868">
        <ele>46.7</ele>
        <time>2020-06-07T14:12:31Z</time>
      </trkpt>
      <trkpt lat="47.83683" lon="-3.68871">
        <ele>46.7</ele>
        <time>2020-06-07T14:12:32Z</time>
      </trkpt>
      <trkpt lat="47.83687" lon="-3.68873">
        <ele>46.8</ele>
        <time>2020-06-07T14:12:33Z</time>
      </trkpt>
      <trkpt lat="47.8369" lon="-3.68875">
        <ele>46.9</ele>
        <time>2020-06-07T14:12:34Z</time>
      </trkpt>
      <trkpt lat="47.83694" lon="-3.68876">
        <ele>46.9</ele>
        <time>2020-06-07T14:12:35Z</time>
      </trkpt>
      <trkpt lat="47.83697" lon="-3.68879">
        <ele>46.9</ele>
        <time>2020-06-07T14:12:36Z</time>
      </trkpt>
      <trkpt lat="47.83701" lon="-3.6888">
        <ele>46.9</ele>
        <time>2020-06-07T14:12:37Z</time>
      </trkpt>
      <trkpt lat="47.83705" lon="-3.68881">
        <ele>47</ele>
        <time>2020-06-07T14:12:38Z</time>
      </trkpt>
      <trkpt lat="47.83709" lon="-3.68882">
        <ele>47</ele>
        <time>2020-06-07T14:12:39Z</time>
      </trkpt>
      <trkpt lat="47.83713" lon="-3.68883">
        <ele>47.1</ele>
        <time>2020-06-07T14:12:40Z</time>
      </trkpt>
      <trkpt lat="47.83717" lon="-3.68884">
        <ele>47.2</ele>
        <time>2020-06-07T14:12:41Z</time>
      </trkpt>
      <trkpt lat="47.83721" lon="-3.68885">
        <ele>47.2</ele>
        <time>2020-06-07T14:12:42Z</time>
      </trkpt>
      <trkpt lat="47.83724" lon="-3.68887">
        <ele>47.3</ele>
        <time>2020-06-07T14:12:43Z</time>
      </trkpt>
      <trkpt lat="47.83728" lon="-3.68891">
        <ele>47.4</ele>
        <time>2020-06-07T14:12:44Z</time>
      </trkpt>
      <trkpt lat="47.83731" lon="-3.68892">
        <ele>47.4</ele>
        <time>2020-06-07T14:12:45Z</time>
      </trkpt>
      <trkpt lat="47.83735" lon="-3.68894">
        <ele>47.5</ele>
        <time>2020-06-07T14:12:46Z</time>
      </trkpt>
      <trkpt lat="47.83738" lon="-3.68894">
        <ele>47.6</ele>
        <time>2020-06-07T14:12:47Z</time>
      </trkpt>
      <trkpt lat="47.83741" lon="-3.68896">
        <ele>47.6</ele>
        <time>2020-06-07T14:12:48Z</time>
      </trkpt>
      <trkpt lat="47.83745" lon="-3.68898">
        <ele>47.7</ele>
        <time>2020-06-07T14:12:49Z</time>
      </trkpt>
      <trkpt lat="47.8375" lon="-3.68899">
        <ele>47.8</ele>
        <time>2020-06-07T14:12:50Z</time>
      </trkpt>
      <trkpt lat="47.83754" lon="-3.68901">
        <ele>47.9</ele>
        <time>2020-06-07T14:12:51Z</time>
      </trkpt>
      <trkpt lat="47.83758" lon="-3.68902">
        <ele>47.9</ele>
        <time>2020-06-07T14:12:52Z</time>
      </trkpt>
      <trkpt lat="47.83761" lon="-3.68905">
        <ele>48</ele>
        <time>2020-06-07T14:12:53Z</time>
      </trkpt>
      <trkpt lat="47.83764" lon="-3.68906">
        <ele>48.1</ele>
        <time>2020-06-07T14:12:54Z</time>
      </trkpt>
      <trkpt lat="47.83767" lon="-3.68908">
        <ele>48.1</ele>
        <time>2020-06-07T14:12:55Z</time>
      </trkpt>
      <trkpt lat="47.8377" lon="-3.6891">
        <ele>48.2</ele>
        <time>2020-06-07T14:12:56Z</time>
      </trkpt>
      <trkpt lat="47.83773" lon="-3.68911">
        <ele>48.3</ele>
        <time>2020-06-07T14:12:57Z</time>
      </trkpt>
      <trkpt lat="47.83776" lon="-3.68913">
        <ele>48.3</ele>
        <time>2020-06-07T14:12:58Z</time>
      </trkpt>
      <trkpt lat="47.83779" lon="-3.68915">
        <ele>48.3</ele>
        <time>2020-06-07T14:12:59Z</time>
      </trkpt>
      <trkpt lat="47.83782" lon="-3.68919">
        <ele>48.4</ele>
        <time>2020-06-07T14:13:00Z</time>
      </trkpt>
      <trkpt lat="47.83785" lon="-3.68922">
        <ele>48.4</ele>
        <time>2020-06-07T14:13:01Z</time>
      </trkpt>
      <trkpt lat="47.83788" lon="-3.68925">
        <ele>48.5</ele>
        <time>2020-06-07T14:13:02Z</time>
      </trkpt>
      <trkpt lat="47.83792" lon="-3.68928">
        <ele>48.5</ele>
        <time>2020-06-07T14:13:03Z</time>
      </trkpt>
      <trkpt lat="47.83795" lon="-3.68932">
        <ele>48.5</ele>
        <time>2020-06-07T14:13:04Z</time>
      </trkpt>
      <trkpt lat="47.83798" lon="-3.68934">
        <ele>48.5</ele>
        <time>2020-06-07T14:13:05Z</time>
      </trkpt>
      <trkpt lat="47.83802" lon="-3.68938">
        <ele>48.6</ele>
        <time>2020-06-07T14:13:06Z</time>
      </trkpt>
      <trkpt lat="47.83805" lon="-3.68942">
        <ele>48.6</ele>
        <time>2020-06-07T14:13:07Z</time>
      </trkpt>
      <trkpt lat="47.83808" lon="-3.68946">
        <ele>48.6</ele>
        <time>2020-06-07T14:13:08Z</time>
      </trkpt>
      <trkpt lat="47.8381" lon="-3.68949">
        <ele>48.6</ele>
        <time>2020-06-07T14:13:09Z</time>
      </trkpt>
      <trkpt lat="47.83812" lon="-3.68953">
        <ele>48.7</ele>
        <time>2020-06-07T14:13:10Z</time>
      </trkpt>
      <trkpt lat="47.83815" lon="-3.68957">
        <ele>48.7</ele>
        <time>2020-06-07T14:13:11Z</time>
      </trkpt>
      <trkpt lat="47.83818" lon="-3.68961">
        <ele>48.7</ele>
        <time>2020-06-07T14:13:12Z</time>
      </trkpt>
      <trkpt lat="47.8382" lon="-3.68965">
        <ele>48.8</ele>
        <time>2020-06-07T14:13:13Z</time>
      </trkpt>
      <trkpt lat="47.83823" lon="-3.68969">
        <ele>48.8</ele>
        <time>2020-06-07T14:13:14Z</time>
      </trkpt>
      <trkpt lat="47.83827" lon="-3.68974">
        <ele>48.9</ele>
        <time>2020-06-07T14:13:15Z</time>
      </trkpt>
      <trkpt lat="47.83829" lon="-3.68978">
        <ele>48.9</ele>
        <time>2020-06-07T14:13:16Z</time>
      </trkpt>
      <trkpt lat="47.83832" lon="-3.68981">
        <ele>49</ele>
        <time>2020-06-07T14:13:17Z</time>
      </trkpt>
      <trkpt lat="47.83835" lon="-3.68985">
        <ele>49.1</ele>
        <time>2020-06-07T14:13:18Z</time>
      </trkpt>
      <trkpt lat="47.83837" lon="-3.68989">
        <ele>49.2</ele>
        <time>2020-06-07T14:13:19Z</time>
      </trkpt>
      <trkpt lat="47.83839" lon="-3.68994">
        <ele>49.2</ele>
        <time>2020-06-07T14:13:20Z</time>
      </trkpt>
      <trkpt lat="47.83842" lon="-3.68999">
        <ele>49.3</ele>
        <time>2020-06-07T14:13:21Z</time>
      </trkpt>
      <trkpt lat="47.83844" lon="-3.69002">
        <ele>49.4</ele>
        <time>2020-06-07T14:13:22Z</time>
      </trkpt>
      <trkpt lat="47.83845" lon="-3.69006">
        <ele>49.5</ele>
        <time>2020-06-07T14:13:23Z</time>
      </trkpt>
      <trkpt lat="47.83848" lon="-3.69011">
        <ele>49.6</ele>
        <time>2020-06-07T14:13:24Z</time>
      </trkpt>
      <trkpt lat="47.8385" lon="-3.69014">
        <ele>49.7</ele>
        <time>2020-06-07T14:13:25Z</time>
      </trkpt>
      <trkpt lat="47.83852" lon="-3.69018">
        <ele>49.8</ele>
        <time>2020-06-07T14:13:26Z</time>
      </trkpt>
      <trkpt lat="47.83852" lon="-3.69019">
        <ele>49.9</ele>
        <time>2020-06-07T14:13:27Z</time>
      </trkpt>
      <trkpt lat="47.83854" lon="-3.69024">
        <ele>50</ele>
        <time>2020-06-07T14:13:28Z</time>
      </trkpt>
      <trkpt lat="47.83855" lon="-3.69025">
        <ele>50</ele>
        <time>2020-06-07T14:13:29Z</time>
      </trkpt>
      <trkpt lat="47.83858" lon="-3.69029">
        <ele>50.2</ele>
        <time>2020-06-07T14:13:30Z</time>
      </trkpt>
      <trkpt lat="47.83859" lon="-3.6903">
        <ele>50.3</ele>
        <time>2020-06-07T14:13:31Z</time>
      </trkpt>
      <trkpt lat="47.83862" lon="-3.69031">
        <ele>50.4</ele>
        <time>2020-06-07T14:13:32Z</time>
      </trkpt>
      <trkpt lat="47.83864" lon="-3.69034">
        <ele>50.5</ele>
        <time>2020-06-07T14:13:33Z</time>
      </trkpt>
      <trkpt lat="47.83866" lon="-3.69037">
        <ele>50.7</ele>
        <time>2020-06-07T14:13:34Z</time>
      </trkpt>
      <trkpt lat="47.83869" lon="-3.6904">
        <ele>50.9</ele>
        <time>2020-06-07T14:13:35Z</time>
      </trkpt>
      <trkpt lat="47.8387" lon="-3.69042">
        <ele>51</ele>
        <time>2020-06-07T14:13:36Z</time>
      </trkpt>
      <trkpt lat="47.83872" lon="-3.69046">
        <ele>51.2</ele>
        <time>2020-06-07T14:13:37Z</time>
      </trkpt>
      <trkpt lat="47.83874" lon="-3.69049">
        <ele>51.4</ele>
        <time>2020-06-07T14:13:38Z</time>
      </trkpt>
      <trkpt lat="47.83877" lon="-3.69052">
        <ele>51.7</ele>
        <time>2020-06-07T14:13:39Z</time>
      </trkpt>
      <trkpt lat="47.8388" lon="-3.69054">
        <ele>51.9</ele>
        <time>2020-06-07T14:13:40Z</time>
      </trkpt>
      <trkpt lat="47.83882" lon="-3.69057">
        <ele>52.1</ele>
        <time>2020-06-07T14:13:41Z</time>
      </trkpt>
      <trkpt lat="47.83885" lon="-3.6906">
        <ele>52.4</ele>
        <time>2020-06-07T14:13:42Z</time>
      </trkpt>
      <trkpt lat="47.83887" lon="-3.6906">
        <ele>52.5</ele>
        <time>2020-06-07T14:13:43Z</time>
      </trkpt>
      <trkpt lat="47.83889" lon="-3.69063">
        <ele>52.7</ele>
        <time>2020-06-07T14:13:44Z</time>
      </trkpt>
      <trkpt lat="47.83892" lon="-3.69066">
        <ele>53</ele>
        <time>2020-06-07T14:13:45Z</time>
      </trkpt>
      <trkpt lat="47.83895" lon="-3.69068">
        <ele>53.2</ele>
        <time>2020-06-07T14:13:46Z</time>
      </trkpt>
      <trkpt lat="47.83896" lon="-3.69069">
        <ele>53.3</ele>
        <time>2020-06-07T14:13:47Z</time>
      </trkpt>
      <trkpt lat="47.839" lon="-3.69071">
        <ele>53.6</ele>
        <time>2020-06-07T14:13:48Z</time>
      </trkpt>
      <trkpt lat="47.83901" lon="-3.69072">
        <ele>53.7</ele>
        <time>2020-06-07T14:13:49Z</time>
      </trkpt>
      <trkpt lat="47.83903" lon="-3.69073">
        <ele>53.9</ele>
        <time>2020-06-07T14:13:50Z</time>
      </trkpt>
      <trkpt lat="47.83906" lon="-3.69075">
        <ele>54.1</ele>
        <time>2020-06-07T14:13:51Z</time>
      </trkpt>
      <trkpt lat="47.8391" lon="-3.69078">
        <ele>54.4</ele>
        <time>2020-06-07T14:13:52Z</time>
      </trkpt>
      <trkpt lat="47.83913" lon="-3.6908">
        <ele>54.7</ele>
        <time>2020-06-07T14:13:53Z</time>
      </trkpt>
      <trkpt lat="47.83916" lon="-3.69082">
        <ele>54.9</ele>
        <time>2020-06-07T14:13:54Z</time>
      </trkpt>
      <trkpt lat="47.8392" lon="-3.69084">
        <ele>55.1</ele>
        <time>2020-06-07T14:13:55Z</time>
      </trkpt>
      <trkpt lat="47.83921" lon="-3.69085">
        <ele>55.2</ele>
        <time>2020-06-07T14:13:56Z</time>
      </trkpt>
      <trkpt lat="47.83924" lon="-3.69088">
        <ele>55.4</ele>
        <time>2020-06-07T14:13:57Z</time>
      </trkpt>
      <trkpt lat="47.83925" lon="-3.69088">
        <ele>55.5</ele>
        <time>2020-06-07T14:13:58Z</time>
      </trkpt>
      <trkpt lat="47.83928" lon="-3.69089">
        <ele>55.6</ele>
        <time>2020-06-07T14:13:59Z</time>
      </trkpt>
      <trkpt lat="47.83929" lon="-3.69091">
        <ele>55.7</ele>
        <time>2020-06-07T14:14:00Z</time>
      </trkpt>
      <trkpt lat="47.83932" lon="-3.69093">
        <ele>55.9</ele>
        <time>2020-06-07T14:14:01Z</time>
      </trkpt>
      <trkpt lat="47.83933" lon="-3.69094">
        <ele>55.9</ele>
        <time>2020-06-07T14:14:02Z</time>
      </trkpt>
      <trkpt lat="47.83936" lon="-3.69098">
        <ele>56.1</ele>
        <time>2020-06-07T14:14:03Z</time>
      </trkpt>
      <trkpt lat="47.83937" lon="-3.691">
        <ele>56.2</ele>
        <time>2020-06-07T14:14:04Z</time>
      </trkpt>
      <trkpt lat="47.83939" lon="-3.69102">
        <ele>56.3</ele>
        <time>2020-06-07T14:14:05Z</time>
      </trkpt>
      <trkpt lat="47.83942" lon="-3.69103">
        <ele>56.4</ele>
        <time>2020-06-07T14:14:06Z</time>
      </trkpt>
      <trkpt lat="47.83945" lon="-3.69104">
        <ele>56.5</ele>
        <time>2020-06-07T14:14:07Z</time>
      </trkpt>
      <trkpt lat="47.83946" lon="-3.69105">
        <ele>56.6</ele>
        <time>2020-06-07T14:14:08Z</time>
      </trkpt>
      <trkpt lat="47.83949" lon="-3.69108">
        <ele>56.6</ele>
        <time>2020-06-07T14:14:09Z</time>
      </trkpt>
      <trkpt lat="47.83949" lon="-3.69109">
        <ele>56.7</ele>
        <time>2020-06-07T14:14:10Z</time>
      </trkpt>
      <trkpt lat="47.83952" lon="-3.69112">
        <ele>56.8</ele>
        <time>2020-06-07T14:14:11Z</time>
      </trkpt>
      <trkpt lat="47.83953" lon="-3.69113">
        <ele>56.8</ele>
        <time>2020-06-07T14:14:12Z</time>
      </trkpt>
      <trkpt lat="47.83957" lon="-3.69116">
        <ele>56.9</ele>
        <time>2020-06-07T14:14:13Z</time>
      </trkpt>
      <trkpt lat="47.83958" lon="-3.69117">
        <ele>57</ele>
        <time>2020-06-07T14:14:14Z</time>
      </trkpt>
      <trkpt lat="47.83961" lon="-3.6912">
        <ele>57</ele>
        <time>2020-06-07T14:14:15Z</time>
      </trkpt>
      <trkpt lat="47.83962" lon="-3.6912">
        <ele>57</ele>
        <time>2020-06-07T14:14:16Z</time>
      </trkpt>
      <trkpt lat="47.83966" lon="-3.69123">
        <ele>57.1</ele>
        <time>2020-06-07T14:14:17Z</time>
      </trkpt>
      <trkpt lat="47.83967" lon="-3.69123">
        <ele>57.1</ele>
        <time>2020-06-07T14:14:18Z</time>
      </trkpt>
      <trkpt lat="47.8397" lon="-3.69127">
        <ele>57.2</ele>
        <time>2020-06-07T14:14:19Z</time>
      </trkpt>
      <trkpt lat="47.83971" lon="-3.69128">
        <ele>57.2</ele>
        <time>2020-06-07T14:14:20Z</time>
      </trkpt>
      <trkpt lat="47.83974" lon="-3.69131">
        <ele>57.3</ele>
        <time>2020-06-07T14:14:21Z</time>
      </trkpt>
      <trkpt lat="47.83978" lon="-3.69134">
        <ele>57.3</ele>
        <time>2020-06-07T14:14:22Z</time>
      </trkpt>
      <trkpt lat="47.83979" lon="-3.69135">
        <ele>57.3</ele>
        <time>2020-06-07T14:14:23Z</time>
      </trkpt>
      <trkpt lat="47.83982" lon="-3.69137">
        <ele>57.4</ele>
        <time>2020-06-07T14:14:24Z</time>
      </trkpt>
      <trkpt lat="47.83984" lon="-3.69139">
        <ele>57.4</ele>
        <time>2020-06-07T14:14:25Z</time>
      </trkpt>
      <trkpt lat="47.83987" lon="-3.6914">
        <ele>57.4</ele>
        <time>2020-06-07T14:14:26Z</time>
      </trkpt>
      <trkpt lat="47.83991" lon="-3.69142">
        <ele>57.5</ele>
        <time>2020-06-07T14:14:27Z</time>
      </trkpt>
      <trkpt lat="47.83993" lon="-3.69144">
        <ele>57.5</ele>
        <time>2020-06-07T14:14:28Z</time>
      </trkpt>
      <trkpt lat="47.83997" lon="-3.69146">
        <ele>57.6</ele>
        <time>2020-06-07T14:14:29Z</time>
      </trkpt>
      <trkpt lat="47.84" lon="-3.69147">
        <ele>57.6</ele>
        <time>2020-06-07T14:14:30Z</time>
      </trkpt>
      <trkpt lat="47.84004" lon="-3.69148">
        <ele>57.7</ele>
        <time>2020-06-07T14:14:31Z</time>
      </trkpt>
      <trkpt lat="47.84006" lon="-3.6915">
        <ele>57.7</ele>
        <time>2020-06-07T14:14:32Z</time>
      </trkpt>
      <trkpt lat="47.84009" lon="-3.69151">
        <ele>57.8</ele>
        <time>2020-06-07T14:14:33Z</time>
      </trkpt>
      <trkpt lat="47.84012" lon="-3.69153">
        <ele>57.8</ele>
        <time>2020-06-07T14:14:34Z</time>
      </trkpt>
      <trkpt lat="47.84015" lon="-3.69155">
        <ele>57.9</ele>
        <time>2020-06-07T14:14:35Z</time>
      </trkpt>
      <trkpt lat="47.84018" lon="-3.69157">
        <ele>58</ele>
        <time>2020-06-07T14:14:36Z</time>
      </trkpt>
      <trkpt lat="47.84021" lon="-3.69159">
        <ele>58.1</ele>
        <time>2020-06-07T14:14:37Z</time>
      </trkpt>
      <trkpt lat="47.84024" lon="-3.69161">
        <ele>58.1</ele>
        <time>2020-06-07T14:14:38Z</time>
      </trkpt>
      <trkpt lat="47.84027" lon="-3.69163">
        <ele>58.2</ele>
        <time>2020-06-07T14:14:39Z</time>
      </trkpt>
      <trkpt lat="47.84029" lon="-3.69166">
        <ele>58.2</ele>
        <time>2020-06-07T14:14:40Z</time>
      </trkpt>
      <trkpt lat="47.84033" lon="-3.69169">
        <ele>58.3</ele>
        <time>2020-06-07T14:14:41Z</time>
      </trkpt>
      <trkpt lat="47.84036" lon="-3.69171">
        <ele>58.3</ele>
        <time>2020-06-07T14:14:42Z</time>
      </trkpt>
      <trkpt lat="47.84039" lon="-3.69174">
        <ele>58.4</ele>
        <time>2020-06-07T14:14:43Z</time>
      </trkpt>
      <trkpt lat="47.84042" lon="-3.69176">
        <ele>58.4</ele>
        <time>2020-06-07T14:14:44Z</time>
      </trkpt>
      <trkpt lat="47.84045" lon="-3.69179">
        <ele>58.5</ele>
        <time>2020-06-07T14:14:45Z</time>
      </trkpt>
      <trkpt lat="47.84048" lon="-3.69182">
        <ele>58.6</ele>
        <time>2020-06-07T14:14:46Z</time>
      </trkpt>
      <trkpt lat="47.8405" lon="-3.69185">
        <ele>58.7</ele>
        <time>2020-06-07T14:14:47Z</time>
      </trkpt>
      <trkpt lat="47.84053" lon="-3.69187">
        <ele>58.8</ele>
        <time>2020-06-07T14:14:48Z</time>
      </trkpt>
      <trkpt lat="47.84055" lon="-3.69189">
        <ele>58.9</ele>
        <time>2020-06-07T14:14:49Z</time>
      </trkpt>
      <trkpt lat="47.84058" lon="-3.69191">
        <ele>59</ele>
        <time>2020-06-07T14:14:50Z</time>
      </trkpt>
      <trkpt lat="47.8406" lon="-3.69193">
        <ele>59.1</ele>
        <time>2020-06-07T14:14:51Z</time>
      </trkpt>
      <trkpt lat="47.84063" lon="-3.69195">
        <ele>59.2</ele>
        <time>2020-06-07T14:14:52Z</time>
      </trkpt>
      <trkpt lat="47.84066" lon="-3.69197">
        <ele>59.3</ele>
        <time>2020-06-07T14:14:53Z</time>
      </trkpt>
      <trkpt lat="47.84069" lon="-3.69198">
        <ele>59.4</ele>
        <time>2020-06-07T14:14:54Z</time>
      </trkpt>
      <trkpt lat="47.84071" lon="-3.692">
        <ele>59.5</ele>
        <time>2020-06-07T14:14:55Z</time>
      </trkpt>
      <trkpt lat="47.84075" lon="-3.69203">
        <ele>59.6</ele>
        <time>2020-06-07T14:14:56Z</time>
      </trkpt>
      <trkpt lat="47.84076" lon="-3.69205">
        <ele>59.6</ele>
        <time>2020-06-07T14:14:57Z</time>
      </trkpt>
      <trkpt lat="47.84079" lon="-3.69207">
        <ele>59.7</ele>
        <time>2020-06-07T14:14:58Z</time>
      </trkpt>
      <trkpt lat="47.84082" lon="-3.6921">
        <ele>59.8</ele>
        <time>2020-06-07T14:14:59Z</time>
      </trkpt>
      <trkpt lat="47.84085" lon="-3.69213">
        <ele>59.9</ele>
        <time>2020-06-07T14:15:00Z</time>
      </trkpt>
      <trkpt lat="47.84089" lon="-3.69215">
        <ele>60</ele>
        <time>2020-06-07T14:15:01Z</time>
      </trkpt>
      <trkpt lat="47.84092" lon="-3.69218">
        <ele>60.2</ele>
        <time>2020-06-07T14:15:02Z</time>
      </trkpt>
      <trkpt lat="47.84096" lon="-3.6922">
        <ele>60.3</ele>
        <time>2020-06-07T14:15:03Z</time>
      </trkpt>
      <trkpt lat="47.84099" lon="-3.69222">
        <ele>60.4</ele>
        <time>2020-06-07T14:15:04Z</time>
      </trkpt>
      <trkpt lat="47.84102" lon="-3.69225">
        <ele>60.5</ele>
        <time>2020-06-07T14:15:05Z</time>
      </trkpt>
      <trkpt lat="47.84105" lon="-3.69227">
        <ele>60.6</ele>
        <time>2020-06-07T14:15:06Z</time>
      </trkpt>
      <trkpt lat="47.84108" lon="-3.69229">
        <ele>60.7</ele>
        <time>2020-06-07T14:15:07Z</time>
      </trkpt>
      <trkpt lat="47.84112" lon="-3.69232">
        <ele>60.9</ele>
        <time>2020-06-07T14:15:08Z</time>
      </trkpt>
      <trkpt lat="47.84115" lon="-3.69234">
        <ele>61</ele>
        <time>2020-06-07T14:15:09Z</time>
      </trkpt>
      <trkpt lat="47.84117" lon="-3.69237">
        <ele>61.1</ele>
        <time>2020-06-07T14:15:10Z</time>
      </trkpt>
      <trkpt lat="47.84121" lon="-3.69238">
        <ele>61.3</ele>
        <time>2020-06-07T14:15:11Z</time>
      </trkpt>
      <trkpt lat="47.84124" lon="-3.69241">
        <ele>61.4</ele>
        <time>2020-06-07T14:15:12Z</time>
      </trkpt>
      <trkpt lat="47.84125" lon="-3.69241">
        <ele>61.4</ele>
        <time>2020-06-07T14:15:13Z</time>
      </trkpt>
      <trkpt lat="47.84128" lon="-3.69244">
        <ele>61.6</ele>
        <time>2020-06-07T14:15:14Z</time>
      </trkpt>
      <trkpt lat="47.84129" lon="-3.69244">
        <ele>61.6</ele>
        <time>2020-06-07T14:15:15Z</time>
      </trkpt>
      <trkpt lat="47.84132" lon="-3.69246">
        <ele>61.7</ele>
        <time>2020-06-07T14:15:16Z</time>
      </trkpt>
      <trkpt lat="47.84135" lon="-3.69248">
        <ele>61.8</ele>
        <time>2020-06-07T14:15:17Z</time>
      </trkpt>
      <trkpt lat="47.84138" lon="-3.6925">
        <ele>61.9</ele>
        <time>2020-06-07T14:15:18Z</time>
      </trkpt>
      <trkpt lat="47.8414" lon="-3.69253">
        <ele>62</ele>
        <time>2020-06-07T14:15:19Z</time>
      </trkpt>
      <trkpt lat="47.84143" lon="-3.69256">
        <ele>62.2</ele>
        <time>2020-06-07T14:15:20Z</time>
      </trkpt>
      <trkpt lat="47.84146" lon="-3.69259">
        <ele>62.3</ele>
        <time>2020-06-07T14:15:21Z</time>
      </trkpt>
      <trkpt lat="47.84147" lon="-3.6926">
        <ele>62.3</ele>
        <time>2020-06-07T14:15:22Z</time>
      </trkpt>
      <trkpt lat="47.84149" lon="-3.69262">
        <ele>62.4</ele>
        <time>2020-06-07T14:15:23Z</time>
      </trkpt>
      <trkpt lat="47.84152" lon="-3.69265">
        <ele>62.5</ele>
        <time>2020-06-07T14:15:24Z</time>
      </trkpt>
      <trkpt lat="47.84155" lon="-3.69267">
        <ele>62.7</ele>
        <time>2020-06-07T14:15:25Z</time>
      </trkpt>
      <trkpt lat="47.84157" lon="-3.6927">
        <ele>62.8</ele>
        <time>2020-06-07T14:15:26Z</time>
      </trkpt>
      <trkpt lat="47.8416" lon="-3.69273">
        <ele>62.9</ele>
        <time>2020-06-07T14:15:27Z</time>
      </trkpt>
      <trkpt lat="47.84162" lon="-3.69275">
        <ele>63</ele>
        <time>2020-06-07T14:15:28Z</time>
      </trkpt>
      <trkpt lat="47.84166" lon="-3.69278">
        <ele>63.1</ele>
        <time>2020-06-07T14:15:29Z</time>
      </trkpt>
      <trkpt lat="47.84167" lon="-3.69279">
        <ele>63.2</ele>
        <time>2020-06-07T14:15:30Z</time>
      </trkpt>
      <trkpt lat="47.84171" lon="-3.69282">
        <ele>63.3</ele>
        <time>2020-06-07T14:15:31Z</time>
      </trkpt>
      <trkpt lat="47.84172" lon="-3.69284">
        <ele>63.4</ele>
        <time>2020-06-07T14:15:32Z</time>
      </trkpt>
      <trkpt lat="47.84175" lon="-3.69287">
        <ele>63.5</ele>
        <time>2020-06-07T14:15:33Z</time>
      </trkpt>
      <trkpt lat="47.84177" lon="-3.6929">
        <ele>63.6</ele>
        <time>2020-06-07T14:15:34Z</time>
      </trkpt>
      <trkpt lat="47.84179" lon="-3.69294">
        <ele>63.7</ele>
        <time>2020-06-07T14:15:35Z</time>
      </trkpt>
      <trkpt lat="47.84182" lon="-3.69296">
        <ele>63.8</ele>
        <time>2020-06-07T14:15:36Z</time>
      </trkpt>
      <trkpt lat="47.84185" lon="-3.69299">
        <ele>64</ele>
        <time>2020-06-07T14:15:37Z</time>
      </trkpt>
      <trkpt lat="47.84187" lon="-3.69302">
        <ele>64</ele>
        <time>2020-06-07T14:15:38Z</time>
      </trkpt>
      <trkpt lat="47.8419" lon="-3.69305">
        <ele>64.1</ele>
        <time>2020-06-07T14:15:39Z</time>
      </trkpt>
      <trkpt lat="47.84193" lon="-3.69309">
        <ele>64.2</ele>
        <time>2020-06-07T14:15:40Z</time>
      </trkpt>
      <trkpt lat="47.84196" lon="-3.69312">
        <ele>64.3</ele>
        <time>2020-06-07T14:15:41Z</time>
      </trkpt>
      <trkpt lat="47.84199" lon="-3.69315">
        <ele>64.3</ele>
        <time>2020-06-07T14:15:42Z</time>
      </trkpt>
      <trkpt lat="47.84201" lon="-3.69318">
        <ele>64.4</ele>
        <time>2020-06-07T14:15:43Z</time>
      </trkpt>
      <trkpt lat="47.84205" lon="-3.69321">
        <ele>64.5</ele>
        <time>2020-06-07T14:15:44Z</time>
      </trkpt>
      <trkpt lat="47.84206" lon="-3.69322">
        <ele>64.6</ele>
        <time>2020-06-07T14:15:45Z</time>
      </trkpt>
      <trkpt lat="47.84209" lon="-3.69324">
        <ele>64.6</ele>
        <time>2020-06-07T14:15:46Z</time>
      </trkpt>
      <trkpt lat="47.8421" lon="-3.69325">
        <ele>64.7</ele>
        <time>2020-06-07T14:15:47Z</time>
      </trkpt>
      <trkpt lat="47.84213" lon="-3.69327">
        <ele>64.7</ele>
        <time>2020-06-07T14:15:48Z</time>
      </trkpt>
      <trkpt lat="47.84214" lon="-3.69327">
        <ele>64.8</ele>
        <time>2020-06-07T14:15:49Z</time>
      </trkpt>
      <trkpt lat="47.84217" lon="-3.6933">
        <ele>64.9</ele>
        <time>2020-06-07T14:15:50Z</time>
      </trkpt>
      <trkpt lat="47.8422" lon="-3.69333">
        <ele>65.1</ele>
        <time>2020-06-07T14:15:51Z</time>
      </trkpt>
      <trkpt lat="47.84222" lon="-3.69336">
        <ele>65.2</ele>
        <time>2020-06-07T14:15:52Z</time>
      </trkpt>
      <trkpt lat="47.84224" lon="-3.69339">
        <ele>65.3</ele>
        <time>2020-06-07T14:15:53Z</time>
      </trkpt>
      <trkpt lat="47.84227" lon="-3.69342">
        <ele>65.4</ele>
        <time>2020-06-07T14:15:54Z</time>
      </trkpt>
      <trkpt lat="47.8423" lon="-3.69345">
        <ele>65.6</ele>
        <time>2020-06-07T14:15:55Z</time>
      </trkpt>
      <trkpt lat="47.84233" lon="-3.69348">
        <ele>65.7</ele>
        <time>2020-06-07T14:15:56Z</time>
      </trkpt>
      <trkpt lat="47.84236" lon="-3.69352">
        <ele>65.8</ele>
        <time>2020-06-07T14:15:57Z</time>
      </trkpt>
      <trkpt lat="47.84239" lon="-3.69354">
        <ele>65.9</ele>
        <time>2020-06-07T14:15:58Z</time>
      </trkpt>
      <trkpt lat="47.84242" lon="-3.69356">
        <ele>66</ele>
        <time>2020-06-07T14:15:59Z</time>
      </trkpt>
      <trkpt lat="47.84245" lon="-3.69358">
        <ele>66.1</ele>
        <time>2020-06-07T14:16:00Z</time>
      </trkpt>
      <trkpt lat="47.84247" lon="-3.69361">
        <ele>66.2</ele>
        <time>2020-06-07T14:16:01Z</time>
      </trkpt>
      <trkpt lat="47.8425" lon="-3.69364">
        <ele>66.3</ele>
        <time>2020-06-07T14:16:02Z</time>
      </trkpt>
      <trkpt lat="47.84253" lon="-3.69366">
        <ele>66.4</ele>
        <time>2020-06-07T14:16:03Z</time>
      </trkpt>
      <trkpt lat="47.84255" lon="-3.69369">
        <ele>66.5</ele>
        <time>2020-06-07T14:16:04Z</time>
      </trkpt>
      <trkpt lat="47.84258" lon="-3.69372">
        <ele>66.6</ele>
        <time>2020-06-07T14:16:05Z</time>
      </trkpt>
      <trkpt lat="47.84261" lon="-3.69375">
        <ele>66.7</ele>
        <time>2020-06-07T14:16:06Z</time>
      </trkpt>
      <trkpt lat="47.84263" lon="-3.69378">
        <ele>66.9</ele>
        <time>2020-06-07T14:16:07Z</time>
      </trkpt>
      <trkpt lat="47.84266" lon="-3.6938">
        <ele>67</ele>
        <time>2020-06-07T14:16:08Z</time>
      </trkpt>
      <trkpt lat="47.8427" lon="-3.69382">
        <ele>67.1</ele>
        <time>2020-06-07T14:16:09Z</time>
      </trkpt>
      <trkpt lat="47.84271" lon="-3.69383">
        <ele>67.2</ele>
        <time>2020-06-07T14:16:10Z</time>
      </trkpt>
      <trkpt lat="47.84274" lon="-3.69385">
        <ele>67.3</ele>
        <time>2020-06-07T14:16:11Z</time>
      </trkpt>
      <trkpt lat="47.84275" lon="-3.69386">
        <ele>67.3</ele>
        <time>2020-06-07T14:16:12Z</time>
      </trkpt>
      <trkpt lat="47.84278" lon="-3.69388">
        <ele>67.4</ele>
        <time>2020-06-07T14:16:13Z</time>
      </trkpt>
      <trkpt lat="47.84279" lon="-3.69388">
        <ele>67.5</ele>
        <time>2020-06-07T14:16:14Z</time>
      </trkpt>
      <trkpt lat="47.84283" lon="-3.6939">
        <ele>67.6</ele>
        <time>2020-06-07T14:16:15Z</time>
      </trkpt>
      <trkpt lat="47.84284" lon="-3.6939">
        <ele>67.6</ele>
        <time>2020-06-07T14:16:16Z</time>
      </trkpt>
      <trkpt lat="47.84288" lon="-3.69391">
        <ele>67.8</ele>
        <time>2020-06-07T14:16:17Z</time>
      </trkpt>
      <trkpt lat="47.84289" lon="-3.69391">
        <ele>67.8</ele>
        <time>2020-06-07T14:16:18Z</time>
      </trkpt>
      <trkpt lat="47.84292" lon="-3.69391">
        <ele>67.8</ele>
        <time>2020-06-07T14:16:19Z</time>
      </trkpt>
      <trkpt lat="47.84294" lon="-3.69389">
        <ele>67.8</ele>
        <time>2020-06-07T14:16:20Z</time>
      </trkpt>
      <trkpt lat="47.84296" lon="-3.6939">
        <ele>67.8</ele>
        <time>2020-06-07T14:16:21Z</time>
      </trkpt>
      <trkpt lat="47.84299" lon="-3.6939">
        <ele>67.9</ele>
        <time>2020-06-07T14:16:22Z</time>
      </trkpt>
      <trkpt lat="47.84302" lon="-3.6939">
        <ele>67.9</ele>
        <time>2020-06-07T14:16:23Z</time>
      </trkpt>
      <trkpt lat="47.84304" lon="-3.69391">
        <ele>67.9</ele>
        <time>2020-06-07T14:16:24Z</time>
      </trkpt>
      <trkpt lat="47.84307" lon="-3.69392">
        <ele>67.9</ele>
        <time>2020-06-07T14:16:25Z</time>
      </trkpt>
      <trkpt lat="47.84308" lon="-3.69393">
        <ele>67.9</ele>
        <time>2020-06-07T14:16:26Z</time>
      </trkpt>
      <trkpt lat="47.84311" lon="-3.69395">
        <ele>67.9</ele>
        <time>2020-06-07T14:16:27Z</time>
      </trkpt>
      <trkpt lat="47.84314" lon="-3.69396">
        <ele>68</ele>
        <time>2020-06-07T14:16:28Z</time>
      </trkpt>
      <trkpt lat="47.84315" lon="-3.69397">
        <ele>68</ele>
        <time>2020-06-07T14:16:29Z</time>
      </trkpt>
      <trkpt lat="47.84317" lon="-3.69402">
        <ele>68</ele>
        <time>2020-06-07T14:16:30Z</time>
      </trkpt>
      <trkpt lat="47.84317" lon="-3.69403">
        <ele>68</ele>
        <time>2020-06-07T14:16:31Z</time>
      </trkpt>
      <trkpt lat="47.84317" lon="-3.69408">
        <ele>68</ele>
        <time>2020-06-07T14:16:32Z</time>
      </trkpt>
      <trkpt lat="47.84318" lon="-3.69413">
        <ele>68.1</ele>
        <time>2020-06-07T14:16:33Z</time>
      </trkpt>
      <trkpt lat="47.84319" lon="-3.69418">
        <ele>68.1</ele>
        <time>2020-06-07T14:16:34Z</time>
      </trkpt>
      <trkpt lat="47.8432" lon="-3.69422">
        <ele>68.1</ele>
        <time>2020-06-07T14:16:35Z</time>
      </trkpt>
      <trkpt lat="47.8432" lon="-3.69428">
        <ele>68.2</ele>
        <time>2020-06-07T14:16:36Z</time>
      </trkpt>
      <trkpt lat="47.8432" lon="-3.6943">
        <ele>68.2</ele>
        <time>2020-06-07T14:16:37Z</time>
      </trkpt>
      <trkpt lat="47.84321" lon="-3.69435">
        <ele>68.2</ele>
        <time>2020-06-07T14:16:38Z</time>
      </trkpt>
      <trkpt lat="47.84321" lon="-3.69436">
        <ele>68.3</ele>
        <time>2020-06-07T14:16:39Z</time>
      </trkpt>
      <trkpt lat="47.84323" lon="-3.69438">
        <ele>68.3</ele>
        <time>2020-06-07T14:16:40Z</time>
      </trkpt>
      <trkpt lat="47.84324" lon="-3.69439">
        <ele>68.2</ele>
        <time>2020-06-07T14:16:41Z</time>
      </trkpt>
      <trkpt lat="47.84327" lon="-3.6944">
        <ele>68.1</ele>
        <time>2020-06-07T14:16:42Z</time>
      </trkpt>
      <trkpt lat="47.84331" lon="-3.69441">
        <ele>68.1</ele>
        <time>2020-06-07T14:16:43Z</time>
      </trkpt>
      <trkpt lat="47.84333" lon="-3.69443">
        <ele>68</ele>
        <time>2020-06-07T14:16:44Z</time>
      </trkpt>
      <trkpt lat="47.84336" lon="-3.69444">
        <ele>67.9</ele>
        <time>2020-06-07T14:16:45Z</time>
      </trkpt>
      <trkpt lat="47.8434" lon="-3.69443">
        <ele>67.8</ele>
        <time>2020-06-07T14:16:46Z</time>
      </trkpt>
      <trkpt lat="47.84341" lon="-3.69443">
        <ele>67.8</ele>
        <time>2020-06-07T14:16:47Z</time>
      </trkpt>
      <trkpt lat="47.84345" lon="-3.69443">
        <ele>67.7</ele>
        <time>2020-06-07T14:16:48Z</time>
      </trkpt>
      <trkpt lat="47.84348" lon="-3.69443">
        <ele>67.7</ele>
        <time>2020-06-07T14:16:49Z</time>
      </trkpt>
      <trkpt lat="47.84351" lon="-3.69442">
        <ele>67.6</ele>
        <time>2020-06-07T14:16:50Z</time>
      </trkpt>
      <trkpt lat="47.84353" lon="-3.69444">
        <ele>67.6</ele>
        <time>2020-06-07T14:16:51Z</time>
      </trkpt>
      <trkpt lat="47.84356" lon="-3.69445">
        <ele>67.6</ele>
        <time>2020-06-07T14:16:52Z</time>
      </trkpt>
      <trkpt lat="47.84359" lon="-3.69447">
        <ele>67.5</ele>
        <time>2020-06-07T14:16:53Z</time>
      </trkpt>
      <trkpt lat="47.84363" lon="-3.69449">
        <ele>67.5</ele>
        <time>2020-06-07T14:16:54Z</time>
      </trkpt>
      <trkpt lat="47.84366" lon="-3.6945">
        <ele>67.4</ele>
        <time>2020-06-07T14:16:55Z</time>
      </trkpt>
      <trkpt lat="47.8437" lon="-3.69452">
        <ele>67.4</ele>
        <time>2020-06-07T14:16:56Z</time>
      </trkpt>
      <trkpt lat="47.84374" lon="-3.69452">
        <ele>67.3</ele>
        <time>2020-06-07T14:16:57Z</time>
      </trkpt>
      <trkpt lat="47.84378" lon="-3.69453">
        <ele>67.2</ele>
        <time>2020-06-07T14:16:58Z</time>
      </trkpt>
      <trkpt lat="47.84382" lon="-3.69453">
        <ele>67.1</ele>
        <time>2020-06-07T14:16:59Z</time>
      </trkpt>
      <trkpt lat="47.84387" lon="-3.69454">
        <ele>67.1</ele>
        <time>2020-06-07T14:17:00Z</time>
      </trkpt>
      <trkpt lat="47.84392" lon="-3.69455">
        <ele>67</ele>
        <time>2020-06-07T14:17:01Z</time>
      </trkpt>
      <trkpt lat="47.84397" lon="-3.69456">
        <ele>66.8</ele>
        <time>2020-06-07T14:17:02Z</time>
      </trkpt>
      <trkpt lat="47.84401" lon="-3.69458">
        <ele>66.8</ele>
        <time>2020-06-07T14:17:03Z</time>
      </trkpt>
      <trkpt lat="47.84406" lon="-3.6946">
        <ele>66.7</ele>
        <time>2020-06-07T14:17:04Z</time>
      </trkpt>
      <trkpt lat="47.8441" lon="-3.69461">
        <ele>66.7</ele>
        <time>2020-06-07T14:17:05Z</time>
      </trkpt>
      <trkpt lat="47.84414" lon="-3.6946">
        <ele>66.6</ele>
        <time>2020-06-07T14:17:06Z</time>
      </trkpt>
      <trkpt lat="47.84418" lon="-3.69461">
        <ele>66.5</ele>
        <time>2020-06-07T14:17:07Z</time>
      </trkpt>
      <trkpt lat="47.84423" lon="-3.6946">
        <ele>66.5</ele>
        <time>2020-06-07T14:17:08Z</time>
      </trkpt>
      <trkpt lat="47.84427" lon="-3.69461">
        <ele>66.5</ele>
        <time>2020-06-07T14:17:09Z</time>
      </trkpt>
      <trkpt lat="47.84431" lon="-3.69462">
        <ele>66.4</ele>
        <time>2020-06-07T14:17:10Z</time>
      </trkpt>
      <trkpt lat="47.84435" lon="-3.69462">
        <ele>66.4</ele>
        <time>2020-06-07T14:17:11Z</time>
      </trkpt>
      <trkpt lat="47.84439" lon="-3.69463">
        <ele>66.4</ele>
        <time>2020-06-07T14:17:12Z</time>
      </trkpt>
      <trkpt lat="47.84443" lon="-3.69464">
        <ele>66.4</ele>
        <time>2020-06-07T14:17:13Z</time>
      </trkpt>
      <trkpt lat="47.84448" lon="-3.69466">
        <ele>66.4</ele>
        <time>2020-06-07T14:17:14Z</time>
      </trkpt>
      <trkpt lat="47.84452" lon="-3.69467">
        <ele>66.5</ele>
        <time>2020-06-07T14:17:15Z</time>
      </trkpt>
      <trkpt lat="47.84457" lon="-3.69468">
        <ele>66.5</ele>
        <time>2020-06-07T14:17:16Z</time>
      </trkpt>
      <trkpt lat="47.8446" lon="-3.69468">
        <ele>66.5</ele>
        <time>2020-06-07T14:17:17Z</time>
      </trkpt>
      <trkpt lat="47.84463" lon="-3.69468">
        <ele>66.5</ele>
        <time>2020-06-07T14:17:18Z</time>
      </trkpt>
      <trkpt lat="47.84467" lon="-3.69464">
        <ele>66.2</ele>
        <time>2020-06-07T14:17:19Z</time>
      </trkpt>
      <trkpt lat="47.84469" lon="-3.6946">
        <ele>66.2</ele>
        <time>2020-06-07T14:17:20Z</time>
      </trkpt>
      <trkpt lat="47.84469" lon="-3.69456">
        <ele>66.2</ele>
        <time>2020-06-07T14:17:21Z</time>
      </trkpt>
      <trkpt lat="47.84469" lon="-3.6945">
        <ele>66.2</ele>
        <time>2020-06-07T14:17:22Z</time>
      </trkpt>
      <trkpt lat="47.84469" lon="-3.69449">
        <ele>66.2</ele>
        <time>2020-06-07T14:17:23Z</time>
      </trkpt>
      <trkpt lat="47.84469" lon="-3.69444">
        <ele>66.3</ele>
        <time>2020-06-07T14:17:24Z</time>
      </trkpt>
      <trkpt lat="47.84467" lon="-3.6944">
        <ele>66.3</ele>
        <time>2020-06-07T14:17:25Z</time>
      </trkpt>
      <trkpt lat="47.84466" lon="-3.69435">
        <ele>66.3</ele>
        <time>2020-06-07T14:17:26Z</time>
      </trkpt>
      <trkpt lat="47.84466" lon="-3.69431">
        <ele>66.4</ele>
        <time>2020-06-07T14:17:27Z</time>
      </trkpt>
      <trkpt lat="47.84466" lon="-3.69426">
        <ele>66.3</ele>
        <time>2020-06-07T14:17:28Z</time>
      </trkpt>
      <trkpt lat="47.84466" lon="-3.69425">
        <ele>66.3</ele>
        <time>2020-06-07T14:17:29Z</time>
      </trkpt>
      <trkpt lat="47.84469" lon="-3.69424">
        <ele>66.3</ele>
        <time>2020-06-07T14:17:30Z</time>
      </trkpt>
      <trkpt lat="47.8447" lon="-3.69423">
        <ele>66.3</ele>
        <time>2020-06-07T14:17:31Z</time>
      </trkpt>
      <trkpt lat="47.84473" lon="-3.69424">
        <ele>66.2</ele>
        <time>2020-06-07T14:17:32Z</time>
      </trkpt>
      <trkpt lat="47.84476" lon="-3.69424">
        <ele>66.2</ele>
        <time>2020-06-07T14:17:33Z</time>
      </trkpt>
      <trkpt lat="47.8448" lon="-3.69424">
        <ele>66.1</ele>
        <time>2020-06-07T14:17:34Z</time>
      </trkpt>
      <trkpt lat="47.84485" lon="-3.69424">
        <ele>66.1</ele>
        <time>2020-06-07T14:17:35Z</time>
      </trkpt>
      <trkpt lat="47.84488" lon="-3.69425">
        <ele>66</ele>
        <time>2020-06-07T14:17:36Z</time>
      </trkpt>
      <trkpt lat="47.84492" lon="-3.69425">
        <ele>66</ele>
        <time>2020-06-07T14:17:37Z</time>
      </trkpt>
      <trkpt lat="47.84496" lon="-3.69424">
        <ele>65.9</ele>
        <time>2020-06-07T14:17:38Z</time>
      </trkpt>
      <trkpt lat="47.845" lon="-3.69423">
        <ele>65.9</ele>
        <time>2020-06-07T14:17:39Z</time>
      </trkpt>
      <trkpt lat="47.84504" lon="-3.69419">
        <ele>65.8</ele>
        <time>2020-06-07T14:17:40Z</time>
      </trkpt>
      <trkpt lat="47.84508" lon="-3.69418">
        <ele>65.7</ele>
        <time>2020-06-07T14:17:41Z</time>
      </trkpt>
      <trkpt lat="47.84511" lon="-3.69418">
        <ele>65.7</ele>
        <time>2020-06-07T14:17:42Z</time>
      </trkpt>
      <trkpt lat="47.84515" lon="-3.69418">
        <ele>65.7</ele>
        <time>2020-06-07T14:17:43Z</time>
      </trkpt>
      <trkpt lat="47.84518" lon="-3.69418">
        <ele>65.6</ele>
        <time>2020-06-07T14:17:44Z</time>
      </trkpt>
      <trkpt lat="47.84522" lon="-3.6942">
        <ele>65.6</ele>
        <time>2020-06-07T14:17:45Z</time>
      </trkpt>
      <trkpt lat="47.84526" lon="-3.6942">
        <ele>65.6</ele>
        <time>2020-06-07T14:17:46Z</time>
      </trkpt>
      <trkpt lat="47.8453" lon="-3.69421">
        <ele>65.6</ele>
        <time>2020-06-07T14:17:47Z</time>
      </trkpt>
      <trkpt lat="47.84534" lon="-3.69421">
        <ele>65.6</ele>
        <time>2020-06-07T14:17:48Z</time>
      </trkpt>
      <trkpt lat="47.84538" lon="-3.6942">
        <ele>65.6</ele>
        <time>2020-06-07T14:17:49Z</time>
      </trkpt>
      <trkpt lat="47.84542" lon="-3.69419">
        <ele>65.5</ele>
        <time>2020-06-07T14:17:50Z</time>
      </trkpt>
      <trkpt lat="47.84547" lon="-3.69418">
        <ele>65.5</ele>
        <time>2020-06-07T14:17:51Z</time>
      </trkpt>
      <trkpt lat="47.84551" lon="-3.69417">
        <ele>65.5</ele>
        <time>2020-06-07T14:17:52Z</time>
      </trkpt>
      <trkpt lat="47.84556" lon="-3.69416">
        <ele>65.5</ele>
        <time>2020-06-07T14:17:53Z</time>
      </trkpt>
      <trkpt lat="47.84561" lon="-3.69414">
        <ele>65.4</ele>
        <time>2020-06-07T14:17:54Z</time>
      </trkpt>
      <trkpt lat="47.84565" lon="-3.69412">
        <ele>65.3</ele>
        <time>2020-06-07T14:17:55Z</time>
      </trkpt>
      <trkpt lat="47.8457" lon="-3.69412">
        <ele>65.3</ele>
        <time>2020-06-07T14:17:56Z</time>
      </trkpt>
      <trkpt lat="47.84574" lon="-3.69411">
        <ele>65.2</ele>
        <time>2020-06-07T14:17:57Z</time>
      </trkpt>
      <trkpt lat="47.84579" lon="-3.69409">
        <ele>65.1</ele>
        <time>2020-06-07T14:17:58Z</time>
      </trkpt>
      <trkpt lat="47.84584" lon="-3.69407">
        <ele>65</ele>
        <time>2020-06-07T14:17:59Z</time>
      </trkpt>
      <trkpt lat="47.84589" lon="-3.69406">
        <ele>64.9</ele>
        <time>2020-06-07T14:18:00Z</time>
      </trkpt>
      <trkpt lat="47.84594" lon="-3.69406">
        <ele>64.8</ele>
        <time>2020-06-07T14:18:01Z</time>
      </trkpt>
      <trkpt lat="47.84599" lon="-3.69404">
        <ele>64.7</ele>
        <time>2020-06-07T14:18:02Z</time>
      </trkpt>
      <trkpt lat="47.84603" lon="-3.69403">
        <ele>64.6</ele>
        <time>2020-06-07T14:18:03Z</time>
      </trkpt>
      <trkpt lat="47.84608" lon="-3.694">
        <ele>64.5</ele>
        <time>2020-06-07T14:18:04Z</time>
      </trkpt>
      <trkpt lat="47.84613" lon="-3.69399">
        <ele>64.3</ele>
        <time>2020-06-07T14:18:05Z</time>
      </trkpt>
      <trkpt lat="47.84618" lon="-3.69397">
        <ele>64.2</ele>
        <time>2020-06-07T14:18:06Z</time>
      </trkpt>
      <trkpt lat="47.84623" lon="-3.69396">
        <ele>64</ele>
        <time>2020-06-07T14:18:07Z</time>
      </trkpt>
      <trkpt lat="47.84628" lon="-3.69395">
        <ele>63.9</ele>
        <time>2020-06-07T14:18:08Z</time>
      </trkpt>
      <trkpt lat="47.84633" lon="-3.69393">
        <ele>63.7</ele>
        <time>2020-06-07T14:18:09Z</time>
      </trkpt>
      <trkpt lat="47.84639" lon="-3.69391">
        <ele>63.5</ele>
        <time>2020-06-07T14:18:10Z</time>
      </trkpt>
      <trkpt lat="47.84645" lon="-3.69389">
        <ele>63.4</ele>
        <time>2020-06-07T14:18:11Z</time>
      </trkpt>
      <trkpt lat="47.84651" lon="-3.69387">
        <ele>63.1</ele>
        <time>2020-06-07T14:18:12Z</time>
      </trkpt>
      <trkpt lat="47.84657" lon="-3.69385">
        <ele>62.9</ele>
        <time>2020-06-07T14:18:13Z</time>
      </trkpt>
      <trkpt lat="47.84662" lon="-3.69384">
        <ele>62.7</ele>
        <time>2020-06-07T14:18:14Z</time>
      </trkpt>
      <trkpt lat="47.84668" lon="-3.69383">
        <ele>62.5</ele>
        <time>2020-06-07T14:18:15Z</time>
      </trkpt>
      <trkpt lat="47.84674" lon="-3.6938">
        <ele>62.3</ele>
        <time>2020-06-07T14:18:16Z</time>
      </trkpt>
      <trkpt lat="47.8468" lon="-3.6938">
        <ele>62.1</ele>
        <time>2020-06-07T14:18:17Z</time>
      </trkpt>
      <trkpt lat="47.84685" lon="-3.69379">
        <ele>62</ele>
        <time>2020-06-07T14:18:18Z</time>
      </trkpt>
      <trkpt lat="47.84691" lon="-3.69379">
        <ele>61.8</ele>
        <time>2020-06-07T14:18:19Z</time>
      </trkpt>
      <trkpt lat="47.84696" lon="-3.69377">
        <ele>61.6</ele>
        <time>2020-06-07T14:18:20Z</time>
      </trkpt>
      <trkpt lat="47.84702" lon="-3.69377">
        <ele>61.4</ele>
        <time>2020-06-07T14:18:21Z</time>
      </trkpt>
      <trkpt lat="47.84708" lon="-3.69377">
        <ele>61.2</ele>
        <time>2020-06-07T14:18:22Z</time>
      </trkpt>
      <trkpt lat="47.84714" lon="-3.69378">
        <ele>60.9</ele>
        <time>2020-06-07T14:18:23Z</time>
      </trkpt>
      <trkpt lat="47.8472" lon="-3.69378">
        <ele>60.7</ele>
        <time>2020-06-07T14:18:24Z</time>
      </trkpt>
      <trkpt lat="47.84727" lon="-3.69379">
        <ele>60.6</ele>
        <time>2020-06-07T14:18:25Z</time>
      </trkpt>
      <trkpt lat="47.84733" lon="-3.6938">
        <ele>60.7</ele>
        <time>2020-06-07T14:18:26Z</time>
      </trkpt>
      <trkpt lat="47.8474" lon="-3.69383">
        <ele>60.6</ele>
        <time>2020-06-07T14:18:27Z</time>
      </trkpt>
      <trkpt lat="47.84746" lon="-3.69386">
        <ele>60.4</ele>
        <time>2020-06-07T14:18:28Z</time>
      </trkpt>
      <trkpt lat="47.84753" lon="-3.69389">
        <ele>60.1</ele>
        <time>2020-06-07T14:18:29Z</time>
      </trkpt>
      <trkpt lat="47.8476" lon="-3.69393">
        <ele>59.9</ele>
        <time>2020-06-07T14:18:30Z</time>
      </trkpt>
      <trkpt lat="47.84766" lon="-3.69396">
        <ele>59.7</ele>
        <time>2020-06-07T14:18:31Z</time>
      </trkpt>
      <trkpt lat="47.84773" lon="-3.69399">
        <ele>59.5</ele>
        <time>2020-06-07T14:18:32Z</time>
      </trkpt>
      <trkpt lat="47.84779" lon="-3.69402">
        <ele>59.3</ele>
        <time>2020-06-07T14:18:33Z</time>
      </trkpt>
      <trkpt lat="47.84786" lon="-3.69406">
        <ele>59</ele>
        <time>2020-06-07T14:18:34Z</time>
      </trkpt>
      <trkpt lat="47.84792" lon="-3.69409">
        <ele>58.8</ele>
        <time>2020-06-07T14:18:35Z</time>
      </trkpt>
      <trkpt lat="47.84799" lon="-3.69413">
        <ele>58.6</ele>
        <time>2020-06-07T14:18:36Z</time>
      </trkpt>
      <trkpt lat="47.84805" lon="-3.69417">
        <ele>58.3</ele>
        <time>2020-06-07T14:18:37Z</time>
      </trkpt>
      <trkpt lat="47.84813" lon="-3.6942">
        <ele>58.1</ele>
        <time>2020-06-07T14:18:38Z</time>
      </trkpt>
      <trkpt lat="47.8482" lon="-3.69424">
        <ele>57.8</ele>
        <time>2020-06-07T14:18:39Z</time>
      </trkpt>
      <trkpt lat="47.84827" lon="-3.69427">
        <ele>57.6</ele>
        <time>2020-06-07T14:18:40Z</time>
      </trkpt>
      <trkpt lat="47.84834" lon="-3.6943">
        <ele>57.4</ele>
        <time>2020-06-07T14:18:41Z</time>
      </trkpt>
      <trkpt lat="47.84841" lon="-3.69435">
        <ele>57.2</ele>
        <time>2020-06-07T14:18:42Z</time>
      </trkpt>
      <trkpt lat="47.84849" lon="-3.69438">
        <ele>57.1</ele>
        <time>2020-06-07T14:18:43Z</time>
      </trkpt>
      <trkpt lat="47.84856" lon="-3.69442">
        <ele>56.9</ele>
        <time>2020-06-07T14:18:44Z</time>
      </trkpt>
      <trkpt lat="47.84863" lon="-3.69447">
        <ele>56.7</ele>
        <time>2020-06-07T14:18:45Z</time>
      </trkpt>
      <trkpt lat="47.84871" lon="-3.69451">
        <ele>56.6</ele>
        <time>2020-06-07T14:18:46Z</time>
      </trkpt>
      <trkpt lat="47.84878" lon="-3.69455">
        <ele>56.4</ele>
        <time>2020-06-07T14:18:47Z</time>
      </trkpt>
      <trkpt lat="47.84885" lon="-3.69459">
        <ele>56.2</ele>
        <time>2020-06-07T14:18:48Z</time>
      </trkpt>
      <trkpt lat="47.84893" lon="-3.69463">
        <ele>56</ele>
        <time>2020-06-07T14:18:49Z</time>
      </trkpt>
      <trkpt lat="47.849" lon="-3.69467">
        <ele>55.8</ele>
        <time>2020-06-07T14:18:50Z</time>
      </trkpt>
      <trkpt lat="47.84907" lon="-3.6947">
        <ele>55.6</ele>
        <time>2020-06-07T14:18:51Z</time>
      </trkpt>
      <trkpt lat="47.84915" lon="-3.69474">
        <ele>55.4</ele>
        <time>2020-06-07T14:18:52Z</time>
      </trkpt>
      <trkpt lat="47.84922" lon="-3.69478">
        <ele>55.2</ele>
        <time>2020-06-07T14:18:53Z</time>
      </trkpt>
      <trkpt lat="47.84929" lon="-3.69482">
        <ele>55</ele>
        <time>2020-06-07T14:18:54Z</time>
      </trkpt>
      <trkpt lat="47.84936" lon="-3.69486">
        <ele>54.8</ele>
        <time>2020-06-07T14:18:55Z</time>
      </trkpt>
      <trkpt lat="47.84943" lon="-3.6949">
        <ele>54.5</ele>
        <time>2020-06-07T14:18:56Z</time>
      </trkpt>
      <trkpt lat="47.84951" lon="-3.69494">
        <ele>54.3</ele>
        <time>2020-06-07T14:18:57Z</time>
      </trkpt>
      <trkpt lat="47.84958" lon="-3.69497">
        <ele>54</ele>
        <time>2020-06-07T14:18:58Z</time>
      </trkpt>
      <trkpt lat="47.84966" lon="-3.69501">
        <ele>53.7</ele>
        <time>2020-06-07T14:18:59Z</time>
      </trkpt>
      <trkpt lat="47.84973" lon="-3.69505">
        <ele>53.4</ele>
        <time>2020-06-07T14:19:00Z</time>
      </trkpt>
      <trkpt lat="47.8498" lon="-3.69509">
        <ele>53.2</ele>
        <time>2020-06-07T14:19:01Z</time>
      </trkpt>
      <trkpt lat="47.84988" lon="-3.69513">
        <ele>53</ele>
        <time>2020-06-07T14:19:02Z</time>
      </trkpt>
      <trkpt lat="47.84995" lon="-3.69517">
        <ele>52.8</ele>
        <time>2020-06-07T14:19:03Z</time>
      </trkpt>
      <trkpt lat="47.85002" lon="-3.69521">
        <ele>52.6</ele>
        <time>2020-06-07T14:19:04Z</time>
      </trkpt>
      <trkpt lat="47.85009" lon="-3.69524">
        <ele>52.4</ele>
        <time>2020-06-07T14:19:05Z</time>
      </trkpt>
      <trkpt lat="47.85017" lon="-3.69528">
        <ele>52.2</ele>
        <time>2020-06-07T14:19:06Z</time>
      </trkpt>
      <trkpt lat="47.85024" lon="-3.69532">
        <ele>51.9</ele>
        <time>2020-06-07T14:19:07Z</time>
      </trkpt>
      <trkpt lat="47.85031" lon="-3.69537">
        <ele>51.7</ele>
        <time>2020-06-07T14:19:08Z</time>
      </trkpt>
      <trkpt lat="47.85037" lon="-3.69542">
        <ele>51.4</ele>
        <time>2020-06-07T14:19:09Z</time>
      </trkpt>
      <trkpt lat="47.85044" lon="-3.69546">
        <ele>51.2</ele>
        <time>2020-06-07T14:19:10Z</time>
      </trkpt>
      <trkpt lat="47.85051" lon="-3.6955">
        <ele>50.9</ele>
        <time>2020-06-07T14:19:11Z</time>
      </trkpt>
      <trkpt lat="47.85059" lon="-3.69554">
        <ele>50.6</ele>
        <time>2020-06-07T14:19:12Z</time>
      </trkpt>
      <trkpt lat="47.85066" lon="-3.69559">
        <ele>50.4</ele>
        <time>2020-06-07T14:19:13Z</time>
      </trkpt>
      <trkpt lat="47.85072" lon="-3.69563">
        <ele>50.2</ele>
        <time>2020-06-07T14:19:14Z</time>
      </trkpt>
      <trkpt lat="47.85079" lon="-3.69567">
        <ele>49.9</ele>
        <time>2020-06-07T14:19:15Z</time>
      </trkpt>
      <trkpt lat="47.85086" lon="-3.69571">
        <ele>49.6</ele>
        <time>2020-06-07T14:19:16Z</time>
      </trkpt>
      <trkpt lat="47.85094" lon="-3.69575">
        <ele>49.3</ele>
        <time>2020-06-07T14:19:17Z</time>
      </trkpt>
      <trkpt lat="47.85101" lon="-3.69578">
        <ele>48.9</ele>
        <time>2020-06-07T14:19:18Z</time>
      </trkpt>
      <trkpt lat="47.85109" lon="-3.69582">
        <ele>48.5</ele>
        <time>2020-06-07T14:19:19Z</time>
      </trkpt>
      <trkpt lat="47.85117" lon="-3.69585">
        <ele>48</ele>
        <time>2020-06-07T14:19:20Z</time>
      </trkpt>
      <trkpt lat="47.85125" lon="-3.69587">
        <ele>47.3</ele>
        <time>2020-06-07T14:19:21Z</time>
      </trkpt>
      <trkpt lat="47.85134" lon="-3.69588">
        <ele>46.5</ele>
        <time>2020-06-07T14:19:22Z</time>
      </trkpt>
      <trkpt lat="47.85143" lon="-3.69589">
        <ele>45.8</ele>
        <time>2020-06-07T14:19:23Z</time>
      </trkpt>
      <trkpt lat="47.85152" lon="-3.69589">
        <ele>45</ele>
        <time>2020-06-07T14:19:24Z</time>
      </trkpt>
      <trkpt lat="47.85162" lon="-3.69589">
        <ele>44.2</ele>
        <time>2020-06-07T14:19:25Z</time>
      </trkpt>
      <trkpt lat="47.85172" lon="-3.69589">
        <ele>43.3</ele>
        <time>2020-06-07T14:19:26Z</time>
      </trkpt>
      <trkpt lat="47.85182" lon="-3.69589">
        <ele>42.9</ele>
        <time>2020-06-07T14:19:27Z</time>
      </trkpt>
      <trkpt lat="47.85192" lon="-3.6959">
        <ele>42.5</ele>
        <time>2020-06-07T14:19:28Z</time>
      </trkpt>
      <trkpt lat="47.85203" lon="-3.69591">
        <ele>42</ele>
        <time>2020-06-07T14:19:29Z</time>
      </trkpt>
      <trkpt lat="47.85213" lon="-3.69591">
        <ele>41.6</ele>
        <time>2020-06-07T14:19:30Z</time>
      </trkpt>
      <trkpt lat="47.85224" lon="-3.69592">
        <ele>41.3</ele>
        <time>2020-06-07T14:19:31Z</time>
      </trkpt>
      <trkpt lat="47.85234" lon="-3.69594">
        <ele>40.8</ele>
        <time>2020-06-07T14:19:32Z</time>
      </trkpt>
      <trkpt lat="47.85244" lon="-3.69595">
        <ele>40.1</ele>
        <time>2020-06-07T14:19:33Z</time>
      </trkpt>
      <trkpt lat="47.85254" lon="-3.69596">
        <ele>39.4</ele>
        <time>2020-06-07T14:19:34Z</time>
      </trkpt>
      <trkpt lat="47.85264" lon="-3.69598">
        <ele>38.7</ele>
        <time>2020-06-07T14:19:35Z</time>
      </trkpt>
      <trkpt lat="47.85273" lon="-3.69599">
        <ele>38.1</ele>
        <time>2020-06-07T14:19:36Z</time>
      </trkpt>
      <trkpt lat="47.85283" lon="-3.696">
        <ele>37.5</ele>
        <time>2020-06-07T14:19:37Z</time>
      </trkpt>
      <trkpt lat="47.85293" lon="-3.69603">
        <ele>36.9</ele>
        <time>2020-06-07T14:19:38Z</time>
      </trkpt>
      <trkpt lat="47.85302" lon="-3.69606">
        <ele>36.4</ele>
        <time>2020-06-07T14:19:39Z</time>
      </trkpt>
      <trkpt lat="47.85311" lon="-3.69609">
        <ele>35.8</ele>
        <time>2020-06-07T14:19:40Z</time>
      </trkpt>
      <trkpt lat="47.8532" lon="-3.69613">
        <ele>35.5</ele>
        <time>2020-06-07T14:19:41Z</time>
      </trkpt>
      <trkpt lat="47.85329" lon="-3.69617">
        <ele>35.3</ele>
        <time>2020-06-07T14:19:42Z</time>
      </trkpt>
      <trkpt lat="47.85337" lon="-3.69621">
        <ele>35.1</ele>
        <time>2020-06-07T14:19:43Z</time>
      </trkpt>
      <trkpt lat="47.85346" lon="-3.69626">
        <ele>34.9</ele>
        <time>2020-06-07T14:19:44Z</time>
      </trkpt>
      <trkpt lat="47.85354" lon="-3.69629">
        <ele>34.7</ele>
        <time>2020-06-07T14:19:45Z</time>
      </trkpt>
      <trkpt lat="47.85363" lon="-3.69634">
        <ele>34.6</ele>
        <time>2020-06-07T14:19:46Z</time>
      </trkpt>
      <trkpt lat="47.85371" lon="-3.69638">
        <ele>34.5</ele>
        <time>2020-06-07T14:19:47Z</time>
      </trkpt>
      <trkpt lat="47.85379" lon="-3.69642">
        <ele>34.3</ele>
        <time>2020-06-07T14:19:48Z</time>
      </trkpt>
      <trkpt lat="47.85387" lon="-3.69647">
        <ele>34.2</ele>
        <time>2020-06-07T14:19:49Z</time>
      </trkpt>
      <trkpt lat="47.85396" lon="-3.69651">
        <ele>34</ele>
        <time>2020-06-07T14:19:50Z</time>
      </trkpt>
      <trkpt lat="47.85404" lon="-3.69655">
        <ele>33.9</ele>
        <time>2020-06-07T14:19:51Z</time>
      </trkpt>
      <trkpt lat="47.85412" lon="-3.69659">
        <ele>33.8</ele>
        <time>2020-06-07T14:19:52Z</time>
      </trkpt>
      <trkpt lat="47.8542" lon="-3.69663">
        <ele>33.8</ele>
        <time>2020-06-07T14:19:53Z</time>
      </trkpt>
      <trkpt lat="47.85428" lon="-3.69666">
        <ele>33.8</ele>
        <time>2020-06-07T14:19:54Z</time>
      </trkpt>
      <trkpt lat="47.85436" lon="-3.69669">
        <ele>33.8</ele>
        <time>2020-06-07T14:19:55Z</time>
      </trkpt>
      <trkpt lat="47.85444" lon="-3.69672">
        <ele>33.9</ele>
        <time>2020-06-07T14:19:56Z</time>
      </trkpt>
      <trkpt lat="47.85452" lon="-3.69673">
        <ele>33.9</ele>
        <time>2020-06-07T14:19:57Z</time>
      </trkpt>
      <trkpt lat="47.8546" lon="-3.69675">
        <ele>33.8</ele>
        <time>2020-06-07T14:19:58Z</time>
      </trkpt>
      <trkpt lat="47.85468" lon="-3.69676">
        <ele>33.7</ele>
        <time>2020-06-07T14:19:59Z</time>
      </trkpt>
      <trkpt lat="47.85476" lon="-3.69677">
        <ele>33.6</ele>
        <time>2020-06-07T14:20:00Z</time>
      </trkpt>
      <trkpt lat="47.85483" lon="-3.69678">
        <ele>33.5</ele>
        <time>2020-06-07T14:20:01Z</time>
      </trkpt>
      <trkpt lat="47.8549" lon="-3.69678">
        <ele>33.4</ele>
        <time>2020-06-07T14:20:02Z</time>
      </trkpt>
      <trkpt lat="47.85497" lon="-3.69679">
        <ele>33.4</ele>
        <time>2020-06-07T14:20:03Z</time>
      </trkpt>
      <trkpt lat="47.85504" lon="-3.69679">
        <ele>33.4</ele>
        <time>2020-06-07T14:20:04Z</time>
      </trkpt>
      <trkpt lat="47.85512" lon="-3.69679">
        <ele>33.4</ele>
        <time>2020-06-07T14:20:05Z</time>
      </trkpt>
      <trkpt lat="47.85519" lon="-3.69679">
        <ele>33.3</ele>
        <time>2020-06-07T14:20:06Z</time>
      </trkpt>
      <trkpt lat="47.85525" lon="-3.69678">
        <ele>33.3</ele>
        <time>2020-06-07T14:20:07Z</time>
      </trkpt>
      <trkpt lat="47.85533" lon="-3.69678">
        <ele>33.3</ele>
        <time>2020-06-07T14:20:08Z</time>
      </trkpt>
      <trkpt lat="47.8554" lon="-3.69678">
        <ele>33.2</ele>
        <time>2020-06-07T14:20:09Z</time>
      </trkpt>
      <trkpt lat="47.85546" lon="-3.69678">
        <ele>33.2</ele>
        <time>2020-06-07T14:20:10Z</time>
      </trkpt>
      <trkpt lat="47.85553" lon="-3.69678">
        <ele>33.1</ele>
        <time>2020-06-07T14:20:11Z</time>
      </trkpt>
      <trkpt lat="47.8556" lon="-3.69679">
        <ele>33.1</ele>
        <time>2020-06-07T14:20:12Z</time>
      </trkpt>
      <trkpt lat="47.85566" lon="-3.6968">
        <ele>33.1</ele>
        <time>2020-06-07T14:20:13Z</time>
      </trkpt>
      <trkpt lat="47.85573" lon="-3.69681">
        <ele>33</ele>
        <time>2020-06-07T14:20:14Z</time>
      </trkpt>
      <trkpt lat="47.8558" lon="-3.69683">
        <ele>33</ele>
        <time>2020-06-07T14:20:15Z</time>
      </trkpt>
      <trkpt lat="47.85586" lon="-3.69684">
        <ele>33</ele>
        <time>2020-06-07T14:20:16Z</time>
      </trkpt>
      <trkpt lat="47.85592" lon="-3.69686">
        <ele>33</ele>
        <time>2020-06-07T14:20:17Z</time>
      </trkpt>
      <trkpt lat="47.85599" lon="-3.69688">
        <ele>33.1</ele>
        <time>2020-06-07T14:20:18Z</time>
      </trkpt>
      <trkpt lat="47.85605" lon="-3.69689">
        <ele>33.1</ele>
        <time>2020-06-07T14:20:19Z</time>
      </trkpt>
      <trkpt lat="47.85611" lon="-3.69692">
        <ele>33.1</ele>
        <time>2020-06-07T14:20:20Z</time>
      </trkpt>
      <trkpt lat="47.85617" lon="-3.69695">
        <ele>33.1</ele>
        <time>2020-06-07T14:20:21Z</time>
      </trkpt>
      <trkpt lat="47.85624" lon="-3.69697">
        <ele>33.1</ele>
        <time>2020-06-07T14:20:22Z</time>
      </trkpt>
      <trkpt lat="47.8563" lon="-3.697">
        <ele>33.1</ele>
        <time>2020-06-07T14:20:23Z</time>
      </trkpt>
      <trkpt lat="47.85636" lon="-3.69703">
        <ele>33.2</ele>
        <time>2020-06-07T14:20:24Z</time>
      </trkpt>
      <trkpt lat="47.85642" lon="-3.69706">
        <ele>33.3</ele>
        <time>2020-06-07T14:20:25Z</time>
      </trkpt>
      <trkpt lat="47.85648" lon="-3.69709">
        <ele>33.5</ele>
        <time>2020-06-07T14:20:26Z</time>
      </trkpt>
      <trkpt lat="47.85653" lon="-3.69712">
        <ele>33.6</ele>
        <time>2020-06-07T14:20:27Z</time>
      </trkpt>
      <trkpt lat="47.85659" lon="-3.69715">
        <ele>33.8</ele>
        <time>2020-06-07T14:20:28Z</time>
      </trkpt>
      <trkpt lat="47.85664" lon="-3.69719">
        <ele>34</ele>
        <time>2020-06-07T14:20:29Z</time>
      </trkpt>
      <trkpt lat="47.85669" lon="-3.69722">
        <ele>34.2</ele>
        <time>2020-06-07T14:20:30Z</time>
      </trkpt>
      <trkpt lat="47.85675" lon="-3.69725">
        <ele>34.5</ele>
        <time>2020-06-07T14:20:31Z</time>
      </trkpt>
      <trkpt lat="47.8568" lon="-3.69728">
        <ele>34.7</ele>
        <time>2020-06-07T14:20:32Z</time>
      </trkpt>
      <trkpt lat="47.85685" lon="-3.69732">
        <ele>35</ele>
        <time>2020-06-07T14:20:33Z</time>
      </trkpt>
      <trkpt lat="47.85689" lon="-3.69735">
        <ele>35.3</ele>
        <time>2020-06-07T14:20:34Z</time>
      </trkpt>
      <trkpt lat="47.85693" lon="-3.69739">
        <ele>35.6</ele>
        <time>2020-06-07T14:20:35Z</time>
      </trkpt>
      <trkpt lat="47.85696" lon="-3.69742">
        <ele>35.8</ele>
        <time>2020-06-07T14:20:36Z</time>
      </trkpt>
      <trkpt lat="47.857" lon="-3.69744">
        <ele>36.1</ele>
        <time>2020-06-07T14:20:37Z</time>
      </trkpt>
      <trkpt lat="47.85704" lon="-3.69746">
        <ele>36.4</ele>
        <time>2020-06-07T14:20:38Z</time>
      </trkpt>
      <trkpt lat="47.85707" lon="-3.69749">
        <ele>36.7</ele>
        <time>2020-06-07T14:20:39Z</time>
      </trkpt>
      <trkpt lat="47.85711" lon="-3.6975">
        <ele>37</ele>
        <time>2020-06-07T14:20:40Z</time>
      </trkpt>
      <trkpt lat="47.85715" lon="-3.69752">
        <ele>37.2</ele>
        <time>2020-06-07T14:20:41Z</time>
      </trkpt>
      <trkpt lat="47.85719" lon="-3.69755">
        <ele>37.5</ele>
        <time>2020-06-07T14:20:42Z</time>
      </trkpt>
      <trkpt lat="47.85722" lon="-3.69757">
        <ele>37.7</ele>
        <time>2020-06-07T14:20:43Z</time>
      </trkpt>
      <trkpt lat="47.85726" lon="-3.69759">
        <ele>37.9</ele>
        <time>2020-06-07T14:20:44Z</time>
      </trkpt>
      <trkpt lat="47.8573" lon="-3.69763">
        <ele>38.2</ele>
        <time>2020-06-07T14:20:45Z</time>
      </trkpt>
      <trkpt lat="47.85733" lon="-3.69765">
        <ele>38.4</ele>
        <time>2020-06-07T14:20:46Z</time>
      </trkpt>
      <trkpt lat="47.85737" lon="-3.69767">
        <ele>38.7</ele>
        <time>2020-06-07T14:20:47Z</time>
      </trkpt>
      <trkpt lat="47.85741" lon="-3.69769">
        <ele>39</ele>
        <time>2020-06-07T14:20:48Z</time>
      </trkpt>
      <trkpt lat="47.85744" lon="-3.69773">
        <ele>39.3</ele>
        <time>2020-06-07T14:20:49Z</time>
      </trkpt>
      <trkpt lat="47.85748" lon="-3.69776">
        <ele>39.6</ele>
        <time>2020-06-07T14:20:50Z</time>
      </trkpt>
      <trkpt lat="47.85751" lon="-3.69778">
        <ele>39.8</ele>
        <time>2020-06-07T14:20:51Z</time>
      </trkpt>
      <trkpt lat="47.85754" lon="-3.69781">
        <ele>40.1</ele>
        <time>2020-06-07T14:20:52Z</time>
      </trkpt>
      <trkpt lat="47.85758" lon="-3.69783">
        <ele>40.4</ele>
        <time>2020-06-07T14:20:53Z</time>
      </trkpt>
      <trkpt lat="47.85762" lon="-3.69784">
        <ele>40.7</ele>
        <time>2020-06-07T14:20:54Z</time>
      </trkpt>
      <trkpt lat="47.85765" lon="-3.69787">
        <ele>41</ele>
        <time>2020-06-07T14:20:55Z</time>
      </trkpt>
      <trkpt lat="47.85768" lon="-3.69789">
        <ele>41.2</ele>
        <time>2020-06-07T14:20:56Z</time>
      </trkpt>
      <trkpt lat="47.85772" lon="-3.69792">
        <ele>41.5</ele>
        <time>2020-06-07T14:20:57Z</time>
      </trkpt>
      <trkpt lat="47.85775" lon="-3.69794">
        <ele>41.8</ele>
        <time>2020-06-07T14:20:58Z</time>
      </trkpt>
      <trkpt lat="47.85778" lon="-3.69797">
        <ele>42</ele>
        <time>2020-06-07T14:20:59Z</time>
      </trkpt>
      <trkpt lat="47.85781" lon="-3.698">
        <ele>42.3</ele>
        <time>2020-06-07T14:21:00Z</time>
      </trkpt>
      <trkpt lat="47.85784" lon="-3.69803">
        <ele>42.6</ele>
        <time>2020-06-07T14:21:01Z</time>
      </trkpt>
      <trkpt lat="47.85788" lon="-3.69805">
        <ele>42.8</ele>
        <time>2020-06-07T14:21:02Z</time>
      </trkpt>
      <trkpt lat="47.85791" lon="-3.69809">
        <ele>43.1</ele>
        <time>2020-06-07T14:21:03Z</time>
      </trkpt>
      <trkpt lat="47.85794" lon="-3.69812">
        <ele>43.3</ele>
        <time>2020-06-07T14:21:04Z</time>
      </trkpt>
      <trkpt lat="47.85798" lon="-3.69815">
        <ele>43.6</ele>
        <time>2020-06-07T14:21:05Z</time>
      </trkpt>
      <trkpt lat="47.85801" lon="-3.69817">
        <ele>43.8</ele>
        <time>2020-06-07T14:21:06Z</time>
      </trkpt>
      <trkpt lat="47.85804" lon="-3.69819">
        <ele>44</ele>
        <time>2020-06-07T14:21:07Z</time>
      </trkpt>
      <trkpt lat="47.85808" lon="-3.69822">
        <ele>44.2</ele>
        <time>2020-06-07T14:21:08Z</time>
      </trkpt>
      <trkpt lat="47.85809" lon="-3.69823">
        <ele>44.4</ele>
        <time>2020-06-07T14:21:09Z</time>
      </trkpt>
      <trkpt lat="47.85812" lon="-3.69825">
        <ele>44.5</ele>
        <time>2020-06-07T14:21:10Z</time>
      </trkpt>
      <trkpt lat="47.85815" lon="-3.69827">
        <ele>44.7</ele>
        <time>2020-06-07T14:21:11Z</time>
      </trkpt>
      <trkpt lat="47.85818" lon="-3.69829">
        <ele>44.9</ele>
        <time>2020-06-07T14:21:12Z</time>
      </trkpt>
      <trkpt lat="47.85821" lon="-3.69832">
        <ele>45.1</ele>
        <time>2020-06-07T14:21:13Z</time>
      </trkpt>
      <trkpt lat="47.85824" lon="-3.69834">
        <ele>45.3</ele>
        <time>2020-06-07T14:21:14Z</time>
      </trkpt>
      <trkpt lat="47.85828" lon="-3.69836">
        <ele>45.5</ele>
        <time>2020-06-07T14:21:15Z</time>
      </trkpt>
      <trkpt lat="47.85831" lon="-3.69839">
        <ele>45.8</ele>
        <time>2020-06-07T14:21:16Z</time>
      </trkpt>
      <trkpt lat="47.85834" lon="-3.69841">
        <ele>46</ele>
        <time>2020-06-07T14:21:17Z</time>
      </trkpt>
      <trkpt lat="47.85838" lon="-3.69844">
        <ele>46.2</ele>
        <time>2020-06-07T14:21:18Z</time>
      </trkpt>
      <trkpt lat="47.85841" lon="-3.69847">
        <ele>46.4</ele>
        <time>2020-06-07T14:21:19Z</time>
      </trkpt>
      <trkpt lat="47.85844" lon="-3.69849">
        <ele>46.6</ele>
        <time>2020-06-07T14:21:20Z</time>
      </trkpt>
      <trkpt lat="47.85847" lon="-3.69851">
        <ele>46.9</ele>
        <time>2020-06-07T14:21:21Z</time>
      </trkpt>
      <trkpt lat="47.85851" lon="-3.69854">
        <ele>47.1</ele>
        <time>2020-06-07T14:21:22Z</time>
      </trkpt>
      <trkpt lat="47.85854" lon="-3.69855">
        <ele>47.3</ele>
        <time>2020-06-07T14:21:23Z</time>
      </trkpt>
      <trkpt lat="47.85857" lon="-3.69858">
        <ele>47.5</ele>
        <time>2020-06-07T14:21:24Z</time>
      </trkpt>
      <trkpt lat="47.85861" lon="-3.69862">
        <ele>47.7</ele>
        <time>2020-06-07T14:21:25Z</time>
      </trkpt>
      <trkpt lat="47.85865" lon="-3.69865">
        <ele>47.9</ele>
        <time>2020-06-07T14:21:26Z</time>
      </trkpt>
      <trkpt lat="47.85868" lon="-3.69867">
        <ele>48.1</ele>
        <time>2020-06-07T14:21:27Z</time>
      </trkpt>
      <trkpt lat="47.85871" lon="-3.6987">
        <ele>48.3</ele>
        <time>2020-06-07T14:21:28Z</time>
      </trkpt>
      <trkpt lat="47.85874" lon="-3.69873">
        <ele>48.5</ele>
        <time>2020-06-07T14:21:29Z</time>
      </trkpt>
      <trkpt lat="47.85877" lon="-3.69875">
        <ele>48.7</ele>
        <time>2020-06-07T14:21:30Z</time>
      </trkpt>
      <trkpt lat="47.85881" lon="-3.69879">
        <ele>48.9</ele>
        <time>2020-06-07T14:21:31Z</time>
      </trkpt>
      <trkpt lat="47.85884" lon="-3.6988">
        <ele>49.1</ele>
        <time>2020-06-07T14:21:32Z</time>
      </trkpt>
      <trkpt lat="47.85887" lon="-3.69881">
        <ele>49.3</ele>
        <time>2020-06-07T14:21:33Z</time>
      </trkpt>
      <trkpt lat="47.8589" lon="-3.69885">
        <ele>49.5</ele>
        <time>2020-06-07T14:21:34Z</time>
      </trkpt>
      <trkpt lat="47.85893" lon="-3.69887">
        <ele>49.7</ele>
        <time>2020-06-07T14:21:35Z</time>
      </trkpt>
      <trkpt lat="47.85894" lon="-3.69888">
        <ele>49.8</ele>
        <time>2020-06-07T14:21:36Z</time>
      </trkpt>
      <trkpt lat="47.85897" lon="-3.69891">
        <ele>50</ele>
        <time>2020-06-07T14:21:37Z</time>
      </trkpt>
      <trkpt lat="47.85901" lon="-3.69895">
        <ele>50.2</ele>
        <time>2020-06-07T14:21:38Z</time>
      </trkpt>
      <trkpt lat="47.85904" lon="-3.69898">
        <ele>50.5</ele>
        <time>2020-06-07T14:21:39Z</time>
      </trkpt>
      <trkpt lat="47.85906" lon="-3.69901">
        <ele>50.6</ele>
        <time>2020-06-07T14:21:40Z</time>
      </trkpt>
      <trkpt lat="47.85909" lon="-3.69904">
        <ele>50.8</ele>
        <time>2020-06-07T14:21:41Z</time>
      </trkpt>
      <trkpt lat="47.85911" lon="-3.69907">
        <ele>51</ele>
        <time>2020-06-07T14:21:42Z</time>
      </trkpt>
      <trkpt lat="47.85914" lon="-3.69911">
        <ele>51.3</ele>
        <time>2020-06-07T14:21:43Z</time>
      </trkpt>
      <trkpt lat="47.85917" lon="-3.69915">
        <ele>51.5</ele>
        <time>2020-06-07T14:21:44Z</time>
      </trkpt>
      <trkpt lat="47.85919" lon="-3.69917">
        <ele>51.7</ele>
        <time>2020-06-07T14:21:45Z</time>
      </trkpt>
      <trkpt lat="47.85921" lon="-3.69921">
        <ele>51.9</ele>
        <time>2020-06-07T14:21:46Z</time>
      </trkpt>
      <trkpt lat="47.85923" lon="-3.69924">
        <ele>52</ele>
        <time>2020-06-07T14:21:47Z</time>
      </trkpt>
      <trkpt lat="47.85926" lon="-3.69928">
        <ele>52.3</ele>
        <time>2020-06-07T14:21:48Z</time>
      </trkpt>
      <trkpt lat="47.85929" lon="-3.69931">
        <ele>52.5</ele>
        <time>2020-06-07T14:21:49Z</time>
      </trkpt>
      <trkpt lat="47.85931" lon="-3.69935">
        <ele>52.6</ele>
        <time>2020-06-07T14:21:50Z</time>
      </trkpt>
      <trkpt lat="47.85934" lon="-3.69938">
        <ele>52.8</ele>
        <time>2020-06-07T14:21:51Z</time>
      </trkpt>
      <trkpt lat="47.85937" lon="-3.69942">
        <ele>53.1</ele>
        <time>2020-06-07T14:21:52Z</time>
      </trkpt>
      <trkpt lat="47.8594" lon="-3.69946">
        <ele>53.4</ele>
        <time>2020-06-07T14:21:53Z</time>
      </trkpt>
      <trkpt lat="47.85943" lon="-3.6995">
        <ele>53.6</ele>
        <time>2020-06-07T14:21:54Z</time>
      </trkpt>
      <trkpt lat="47.85946" lon="-3.69955">
        <ele>53.9</ele>
        <time>2020-06-07T14:21:55Z</time>
      </trkpt>
      <trkpt lat="47.85949" lon="-3.69958">
        <ele>54.1</ele>
        <time>2020-06-07T14:21:56Z</time>
      </trkpt>
      <trkpt lat="47.85952" lon="-3.69962">
        <ele>54.4</ele>
        <time>2020-06-07T14:21:57Z</time>
      </trkpt>
      <trkpt lat="47.85954" lon="-3.69965">
        <ele>54.6</ele>
        <time>2020-06-07T14:21:58Z</time>
      </trkpt>
      <trkpt lat="47.85956" lon="-3.69968">
        <ele>54.8</ele>
        <time>2020-06-07T14:21:59Z</time>
      </trkpt>
      <trkpt lat="47.85958" lon="-3.69971">
        <ele>55</ele>
        <time>2020-06-07T14:22:00Z</time>
      </trkpt>
      <trkpt lat="47.85961" lon="-3.69976">
        <ele>55.2</ele>
        <time>2020-06-07T14:22:01Z</time>
      </trkpt>
      <trkpt lat="47.85963" lon="-3.69979">
        <ele>55.4</ele>
        <time>2020-06-07T14:22:02Z</time>
      </trkpt>
      <trkpt lat="47.85966" lon="-3.69983">
        <ele>55.7</ele>
        <time>2020-06-07T14:22:03Z</time>
      </trkpt>
      <trkpt lat="47.85969" lon="-3.69987">
        <ele>55.9</ele>
        <time>2020-06-07T14:22:04Z</time>
      </trkpt>
      <trkpt lat="47.85973" lon="-3.69992">
        <ele>56.2</ele>
        <time>2020-06-07T14:22:05Z</time>
      </trkpt>
      <trkpt lat="47.85975" lon="-3.69996">
        <ele>56.4</ele>
        <time>2020-06-07T14:22:06Z</time>
      </trkpt>
      <trkpt lat="47.85979" lon="-3.70001">
        <ele>56.8</ele>
        <time>2020-06-07T14:22:07Z</time>
      </trkpt>
      <trkpt lat="47.8598" lon="-3.70003">
        <ele>56.9</ele>
        <time>2020-06-07T14:22:08Z</time>
      </trkpt>
      <trkpt lat="47.85983" lon="-3.70008">
        <ele>57.2</ele>
        <time>2020-06-07T14:22:09Z</time>
      </trkpt>
      <trkpt lat="47.85986" lon="-3.70012">
        <ele>57.5</ele>
        <time>2020-06-07T14:22:10Z</time>
      </trkpt>
      <trkpt lat="47.85989" lon="-3.70015">
        <ele>57.7</ele>
        <time>2020-06-07T14:22:11Z</time>
      </trkpt>
      <trkpt lat="47.85991" lon="-3.70018">
        <ele>57.9</ele>
        <time>2020-06-07T14:22:12Z</time>
      </trkpt>
      <trkpt lat="47.85994" lon="-3.7002">
        <ele>58.1</ele>
        <time>2020-06-07T14:22:13Z</time>
      </trkpt>
      <trkpt lat="47.85998" lon="-3.70023">
        <ele>58.4</ele>
        <time>2020-06-07T14:22:14Z</time>
      </trkpt>
      <trkpt lat="47.86001" lon="-3.70024">
        <ele>58.6</ele>
        <time>2020-06-07T14:22:15Z</time>
      </trkpt>
      <trkpt lat="47.86005" lon="-3.70026">
        <ele>58.9</ele>
        <time>2020-06-07T14:22:16Z</time>
      </trkpt>
      <trkpt lat="47.86009" lon="-3.70029">
        <ele>59.2</ele>
        <time>2020-06-07T14:22:17Z</time>
      </trkpt>
      <trkpt lat="47.86011" lon="-3.7003">
        <ele>59.5</ele>
        <time>2020-06-07T14:22:18Z</time>
      </trkpt>
      <trkpt lat="47.86014" lon="-3.7003">
        <ele>59.7</ele>
        <time>2020-06-07T14:22:19Z</time>
      </trkpt>
      <trkpt lat="47.86018" lon="-3.70032">
        <ele>59.9</ele>
        <time>2020-06-07T14:22:20Z</time>
      </trkpt>
      <trkpt lat="47.86022" lon="-3.70034">
        <ele>60.1</ele>
        <time>2020-06-07T14:22:21Z</time>
      </trkpt>
      <trkpt lat="47.86025" lon="-3.70035">
        <ele>60.3</ele>
        <time>2020-06-07T14:22:22Z</time>
      </trkpt>
      <trkpt lat="47.86029" lon="-3.70037">
        <ele>60.5</ele>
        <time>2020-06-07T14:22:23Z</time>
      </trkpt>
      <trkpt lat="47.86032" lon="-3.70038">
        <ele>60.6</ele>
        <time>2020-06-07T14:22:24Z</time>
      </trkpt>
      <trkpt lat="47.86035" lon="-3.70039">
        <ele>60.7</ele>
        <time>2020-06-07T14:22:25Z</time>
      </trkpt>
      <trkpt lat="47.86039" lon="-3.70041">
        <ele>60.9</ele>
        <time>2020-06-07T14:22:26Z</time>
      </trkpt>
      <trkpt lat="47.86042" lon="-3.70041">
        <ele>61</ele>
        <time>2020-06-07T14:22:27Z</time>
      </trkpt>
      <trkpt lat="47.86046" lon="-3.70042">
        <ele>61.1</ele>
        <time>2020-06-07T14:22:28Z</time>
      </trkpt>
      <trkpt lat="47.8605" lon="-3.70043">
        <ele>61.3</ele>
        <time>2020-06-07T14:22:29Z</time>
      </trkpt>
      <trkpt lat="47.86054" lon="-3.70045">
        <ele>61.5</ele>
        <time>2020-06-07T14:22:30Z</time>
      </trkpt>
      <trkpt lat="47.86057" lon="-3.70045">
        <ele>61.6</ele>
        <time>2020-06-07T14:22:31Z</time>
      </trkpt>
      <trkpt lat="47.86063" lon="-3.70045">
        <ele>61.8</ele>
        <time>2020-06-07T14:22:32Z</time>
      </trkpt>
      <trkpt lat="47.86068" lon="-3.70046">
        <ele>62</ele>
        <time>2020-06-07T14:22:33Z</time>
      </trkpt>
      <trkpt lat="47.86071" lon="-3.70045">
        <ele>62.1</ele>
        <time>2020-06-07T14:22:34Z</time>
      </trkpt>
      <trkpt lat="47.86074" lon="-3.70046">
        <ele>62.2</ele>
        <time>2020-06-07T14:22:35Z</time>
      </trkpt>
      <trkpt lat="47.86078" lon="-3.70047">
        <ele>62.3</ele>
        <time>2020-06-07T14:22:36Z</time>
      </trkpt>
      <trkpt lat="47.86081" lon="-3.70047">
        <ele>62.4</ele>
        <time>2020-06-07T14:22:37Z</time>
      </trkpt>
      <trkpt lat="47.86085" lon="-3.70048">
        <ele>62.6</ele>
        <time>2020-06-07T14:22:38Z</time>
      </trkpt>
      <trkpt lat="47.86088" lon="-3.70049">
        <ele>62.7</ele>
        <time>2020-06-07T14:22:39Z</time>
      </trkpt>
      <trkpt lat="47.86091" lon="-3.7005">
        <ele>62.8</ele>
        <time>2020-06-07T14:22:40Z</time>
      </trkpt>
      <trkpt lat="47.86095" lon="-3.7005">
        <ele>62.9</ele>
        <time>2020-06-07T14:22:41Z</time>
      </trkpt>
      <trkpt lat="47.86099" lon="-3.70052">
        <ele>63.1</ele>
        <time>2020-06-07T14:22:42Z</time>
      </trkpt>
      <trkpt lat="47.86103" lon="-3.70053">
        <ele>63.2</ele>
        <time>2020-06-07T14:22:43Z</time>
      </trkpt>
      <trkpt lat="47.86106" lon="-3.70054">
        <ele>63.3</ele>
        <time>2020-06-07T14:22:44Z</time>
      </trkpt>
      <trkpt lat="47.86111" lon="-3.70055">
        <ele>63.4</ele>
        <time>2020-06-07T14:22:45Z</time>
      </trkpt>
      <trkpt lat="47.86114" lon="-3.70056">
        <ele>63.5</ele>
        <time>2020-06-07T14:22:46Z</time>
      </trkpt>
      <trkpt lat="47.86118" lon="-3.70056">
        <ele>63.7</ele>
        <time>2020-06-07T14:22:47Z</time>
      </trkpt>
      <trkpt lat="47.86121" lon="-3.70057">
        <ele>63.8</ele>
        <time>2020-06-07T14:22:48Z</time>
      </trkpt>
      <trkpt lat="47.86124" lon="-3.70058">
        <ele>63.9</ele>
        <time>2020-06-07T14:22:49Z</time>
      </trkpt>
      <trkpt lat="47.86127" lon="-3.70059">
        <ele>64</ele>
        <time>2020-06-07T14:22:50Z</time>
      </trkpt>
      <trkpt lat="47.86128" lon="-3.70058">
        <ele>64.1</ele>
        <time>2020-06-07T14:22:51Z</time>
      </trkpt>
      <trkpt lat="47.8613" lon="-3.70058">
        <ele>64.2</ele>
        <time>2020-06-07T14:22:52Z</time>
      </trkpt>
      <trkpt lat="47.86132" lon="-3.70056">
        <ele>64.3</ele>
        <time>2020-06-07T14:22:53Z</time>
      </trkpt>
      <trkpt lat="47.86132" lon="-3.70055">
        <ele>64.3</ele>
        <time>2020-06-07T14:22:54Z</time>
      </trkpt>
      <trkpt lat="47.86131" lon="-3.70056">
        <ele>64.3</ele>
        <time>2020-06-07T14:22:55Z</time>
      </trkpt>
      <trkpt lat="47.8613" lon="-3.70056">
        <ele>64.4</ele>
        <time>2020-06-07T14:22:56Z</time>
      </trkpt>
      <trkpt lat="47.86131" lon="-3.70055">
        <ele>64.4</ele>
        <time>2020-06-07T14:22:57Z</time>
      </trkpt>
      <trkpt lat="47.8613" lon="-3.70055">
        <ele>64.4</ele>
        <time>2020-06-07T14:22:58Z</time>
      </trkpt>
      <trkpt lat="47.8613" lon="-3.70055">
        <ele>64.4</ele>
        <time>2020-06-07T14:22:59Z</time>
      </trkpt>
      <trkpt lat="47.8613" lon="-3.70055">
        <ele>64.4</ele>
        <time>2020-06-07T14:23:00Z</time>
      </trkpt>
      <trkpt lat="47.8613" lon="-3.70054">
        <ele>64.5</ele>
        <time>2020-06-07T14:23:01Z</time>
      </trkpt>
      <trkpt lat="47.8613" lon="-3.70054">
        <ele>64.5</ele>
        <time>2020-06-07T14:23:02Z</time>
      </trkpt>
      <trkpt lat="47.8613" lon="-3.70054">
        <ele>64.5</ele>
        <time>2020-06-07T14:23:03Z</time>
      </trkpt>
      <trkpt lat="47.8613" lon="-3.70054">
        <ele>64.5</ele>
        <time>2020-06-07T14:23:04Z</time>
      </trkpt>
      <trkpt lat="47.8613" lon="-3.70054">
        <ele>64.5</ele>
        <time>2020-06-07T14:23:05Z</time>
      </trkpt>
      <trkpt lat="47.86134" lon="-3.70058">
        <ele>64.7</ele>
        <time>2020-06-07T14:25:23Z</time>
      </trkpt>
      <trkpt lat="47.86135" lon="-3.7006">
        <ele>64.8</ele>
        <time>2020-06-07T14:25:24Z</time>
      </trkpt>
      <trkpt lat="47.86136" lon="-3.70063">
        <ele>64.9</ele>
        <time>2020-06-07T14:25:25Z</time>
      </trkpt>
      <trkpt lat="47.86137" lon="-3.70064">
        <ele>64.9</ele>
        <time>2020-06-07T14:25:26Z</time>
      </trkpt>
      <trkpt lat="47.86137" lon="-3.70064">
        <ele>64.9</ele>
        <time>2020-06-07T14:25:27Z</time>
      </trkpt>
      <trkpt lat="47.86142" lon="-3.70067">
        <ele>65.1</ele>
        <time>2020-06-07T14:25:28Z</time>
      </trkpt>
      <trkpt lat="47.86144" lon="-3.70068">
        <ele>65.2</ele>
        <time>2020-06-07T14:25:29Z</time>
      </trkpt>
      <trkpt lat="47.86148" lon="-3.7007">
        <ele>65.4</ele>
        <time>2020-06-07T14:25:30Z</time>
      </trkpt>
      <trkpt lat="47.86152" lon="-3.70073">
        <ele>65.6</ele>
        <time>2020-06-07T14:25:31Z</time>
      </trkpt>
      <trkpt lat="47.86156" lon="-3.70075">
        <ele>65.7</ele>
        <time>2020-06-07T14:25:32Z</time>
      </trkpt>
      <trkpt lat="47.86159" lon="-3.70078">
        <ele>65.9</ele>
        <time>2020-06-07T14:25:33Z</time>
      </trkpt>
      <trkpt lat="47.86163" lon="-3.7008">
        <ele>66.1</ele>
        <time>2020-06-07T14:25:34Z</time>
      </trkpt>
      <trkpt lat="47.86166" lon="-3.70083">
        <ele>66.2</ele>
        <time>2020-06-07T14:25:35Z</time>
      </trkpt>
      <trkpt lat="47.8617" lon="-3.70086">
        <ele>66.4</ele>
        <time>2020-06-07T14:25:36Z</time>
      </trkpt>
      <trkpt lat="47.86173" lon="-3.7009">
        <ele>66.6</ele>
        <time>2020-06-07T14:25:37Z</time>
      </trkpt>
      <trkpt lat="47.86177" lon="-3.70093">
        <ele>66.7</ele>
        <time>2020-06-07T14:25:38Z</time>
      </trkpt>
      <trkpt lat="47.8618" lon="-3.70096">
        <ele>66.9</ele>
        <time>2020-06-07T14:25:39Z</time>
      </trkpt>
      <trkpt lat="47.86184" lon="-3.70099">
        <ele>67.1</ele>
        <time>2020-06-07T14:25:40Z</time>
      </trkpt>
      <trkpt lat="47.86188" lon="-3.70103">
        <ele>67.2</ele>
        <time>2020-06-07T14:25:41Z</time>
      </trkpt>
      <trkpt lat="47.86192" lon="-3.70105">
        <ele>67.4</ele>
        <time>2020-06-07T14:25:42Z</time>
      </trkpt>
      <trkpt lat="47.86195" lon="-3.70107">
        <ele>67.6</ele>
        <time>2020-06-07T14:25:43Z</time>
      </trkpt>
      <trkpt lat="47.86197" lon="-3.70111">
        <ele>67.7</ele>
        <time>2020-06-07T14:25:44Z</time>
      </trkpt>
      <trkpt lat="47.86201" lon="-3.70114">
        <ele>67.9</ele>
        <time>2020-06-07T14:25:45Z</time>
      </trkpt>
      <trkpt lat="47.86205" lon="-3.70118">
        <ele>68.1</ele>
        <time>2020-06-07T14:25:46Z</time>
      </trkpt>
      <trkpt lat="47.86209" lon="-3.70121">
        <ele>68.3</ele>
        <time>2020-06-07T14:25:47Z</time>
      </trkpt>
      <trkpt lat="47.86213" lon="-3.70124">
        <ele>68.5</ele>
        <time>2020-06-07T14:25:48Z</time>
      </trkpt>
      <trkpt lat="47.86217" lon="-3.70127">
        <ele>68.6</ele>
        <time>2020-06-07T14:25:49Z</time>
      </trkpt>
      <trkpt lat="47.86221" lon="-3.70129">
        <ele>68.8</ele>
        <time>2020-06-07T14:25:50Z</time>
      </trkpt>
      <trkpt lat="47.86225" lon="-3.70132">
        <ele>68.9</ele>
        <time>2020-06-07T14:25:51Z</time>
      </trkpt>
      <trkpt lat="47.86228" lon="-3.70136">
        <ele>69.1</ele>
        <time>2020-06-07T14:25:52Z</time>
      </trkpt>
      <trkpt lat="47.86232" lon="-3.70139">
        <ele>69.2</ele>
        <time>2020-06-07T14:25:53Z</time>
      </trkpt>
      <trkpt lat="47.86236" lon="-3.70141">
        <ele>69.4</ele>
        <time>2020-06-07T14:25:54Z</time>
      </trkpt>
      <trkpt lat="47.8624" lon="-3.70143">
        <ele>69.6</ele>
        <time>2020-06-07T14:25:55Z</time>
      </trkpt>
      <trkpt lat="47.86244" lon="-3.70146">
        <ele>69.7</ele>
        <time>2020-06-07T14:25:56Z</time>
      </trkpt>
      <trkpt lat="47.86248" lon="-3.70147">
        <ele>69.9</ele>
        <time>2020-06-07T14:25:57Z</time>
      </trkpt>
      <trkpt lat="47.86253" lon="-3.70149">
        <ele>70.1</ele>
        <time>2020-06-07T14:25:58Z</time>
      </trkpt>
      <trkpt lat="47.86255" lon="-3.70151">
        <ele>70.2</ele>
        <time>2020-06-07T14:25:59Z</time>
      </trkpt>
      <trkpt lat="47.86259" lon="-3.70154">
        <ele>70.4</ele>
        <time>2020-06-07T14:26:00Z</time>
      </trkpt>
      <trkpt lat="47.86263" lon="-3.70156">
        <ele>70.6</ele>
        <time>2020-06-07T14:26:01Z</time>
      </trkpt>
      <trkpt lat="47.86266" lon="-3.70158">
        <ele>70.7</ele>
        <time>2020-06-07T14:26:02Z</time>
      </trkpt>
      <trkpt lat="47.8627" lon="-3.70161">
        <ele>70.9</ele>
        <time>2020-06-07T14:26:03Z</time>
      </trkpt>
      <trkpt lat="47.86274" lon="-3.70162">
        <ele>71</ele>
        <time>2020-06-07T14:26:04Z</time>
      </trkpt>
      <trkpt lat="47.86278" lon="-3.70165">
        <ele>71.2</ele>
        <time>2020-06-07T14:26:05Z</time>
      </trkpt>
      <trkpt lat="47.86283" lon="-3.70166">
        <ele>71.4</ele>
        <time>2020-06-07T14:26:06Z</time>
      </trkpt>
      <trkpt lat="47.86288" lon="-3.70168">
        <ele>71.6</ele>
        <time>2020-06-07T14:26:07Z</time>
      </trkpt>
      <trkpt lat="47.86292" lon="-3.70171">
        <ele>71.8</ele>
        <time>2020-06-07T14:26:08Z</time>
      </trkpt>
      <trkpt lat="47.86296" lon="-3.70174">
        <ele>72</ele>
        <time>2020-06-07T14:26:09Z</time>
      </trkpt>
      <trkpt lat="47.863" lon="-3.70176">
        <ele>72.2</ele>
        <time>2020-06-07T14:26:10Z</time>
      </trkpt>
      <trkpt lat="47.86304" lon="-3.70179">
        <ele>72.4</ele>
        <time>2020-06-07T14:26:11Z</time>
      </trkpt>
      <trkpt lat="47.86308" lon="-3.7018">
        <ele>72.5</ele>
        <time>2020-06-07T14:26:12Z</time>
      </trkpt>
      <trkpt lat="47.86312" lon="-3.70183">
        <ele>72.7</ele>
        <time>2020-06-07T14:26:13Z</time>
      </trkpt>
      <trkpt lat="47.86316" lon="-3.70185">
        <ele>72.9</ele>
        <time>2020-06-07T14:26:14Z</time>
      </trkpt>
      <trkpt lat="47.8632" lon="-3.70187">
        <ele>73.1</ele>
        <time>2020-06-07T14:26:15Z</time>
      </trkpt>
      <trkpt lat="47.86325" lon="-3.70189">
        <ele>73.3</ele>
        <time>2020-06-07T14:26:16Z</time>
      </trkpt>
      <trkpt lat="47.86328" lon="-3.7019">
        <ele>73.4</ele>
        <time>2020-06-07T14:26:17Z</time>
      </trkpt>
      <trkpt lat="47.86331" lon="-3.70192">
        <ele>73.5</ele>
        <time>2020-06-07T14:26:18Z</time>
      </trkpt>
      <trkpt lat="47.86335" lon="-3.70194">
        <ele>73.7</ele>
        <time>2020-06-07T14:26:19Z</time>
      </trkpt>
      <trkpt lat="47.86339" lon="-3.70195">
        <ele>73.8</ele>
        <time>2020-06-07T14:26:20Z</time>
      </trkpt>
      <trkpt lat="47.86343" lon="-3.70197">
        <ele>74</ele>
        <time>2020-06-07T14:26:21Z</time>
      </trkpt>
      <trkpt lat="47.86347" lon="-3.70199">
        <ele>74.2</ele>
        <time>2020-06-07T14:26:22Z</time>
      </trkpt>
      <trkpt lat="47.86351" lon="-3.702">
        <ele>74.3</ele>
        <time>2020-06-07T14:26:23Z</time>
      </trkpt>
      <trkpt lat="47.86356" lon="-3.70201">
        <ele>74.5</ele>
        <time>2020-06-07T14:26:24Z</time>
      </trkpt>
      <trkpt lat="47.86359" lon="-3.70203">
        <ele>74.7</ele>
        <time>2020-06-07T14:26:25Z</time>
      </trkpt>
      <trkpt lat="47.86363" lon="-3.70205">
        <ele>74.8</ele>
        <time>2020-06-07T14:26:26Z</time>
      </trkpt>
      <trkpt lat="47.86367" lon="-3.70207">
        <ele>75</ele>
        <time>2020-06-07T14:26:27Z</time>
      </trkpt>
      <trkpt lat="47.86371" lon="-3.70209">
        <ele>75.1</ele>
        <time>2020-06-07T14:26:28Z</time>
      </trkpt>
      <trkpt lat="47.86375" lon="-3.70211">
        <ele>75.2</ele>
        <time>2020-06-07T14:26:29Z</time>
      </trkpt>
      <trkpt lat="47.86378" lon="-3.70213">
        <ele>75.4</ele>
        <time>2020-06-07T14:26:30Z</time>
      </trkpt>
      <trkpt lat="47.86382" lon="-3.70214">
        <ele>75.5</ele>
        <time>2020-06-07T14:26:31Z</time>
      </trkpt>
      <trkpt lat="47.86385" lon="-3.70215">
        <ele>75.6</ele>
        <time>2020-06-07T14:26:32Z</time>
      </trkpt>
      <trkpt lat="47.86389" lon="-3.70217">
        <ele>75.8</ele>
        <time>2020-06-07T14:26:33Z</time>
      </trkpt>
      <trkpt lat="47.86393" lon="-3.70219">
        <ele>75.9</ele>
        <time>2020-06-07T14:26:34Z</time>
      </trkpt>
      <trkpt lat="47.86396" lon="-3.70221">
        <ele>76</ele>
        <time>2020-06-07T14:26:35Z</time>
      </trkpt>
      <trkpt lat="47.864" lon="-3.70223">
        <ele>76.2</ele>
        <time>2020-06-07T14:26:36Z</time>
      </trkpt>
      <trkpt lat="47.86404" lon="-3.70226">
        <ele>76.3</ele>
        <time>2020-06-07T14:26:37Z</time>
      </trkpt>
      <trkpt lat="47.86408" lon="-3.70228">
        <ele>76.5</ele>
        <time>2020-06-07T14:26:38Z</time>
      </trkpt>
      <trkpt lat="47.86411" lon="-3.7023">
        <ele>76.6</ele>
        <time>2020-06-07T14:26:39Z</time>
      </trkpt>
      <trkpt lat="47.86415" lon="-3.70231">
        <ele>76.7</ele>
        <time>2020-06-07T14:26:40Z</time>
      </trkpt>
      <trkpt lat="47.86418" lon="-3.70232">
        <ele>76.8</ele>
        <time>2020-06-07T14:26:41Z</time>
      </trkpt>
      <trkpt lat="47.86421" lon="-3.70234">
        <ele>76.9</ele>
        <time>2020-06-07T14:26:42Z</time>
      </trkpt>
      <trkpt lat="47.86425" lon="-3.70236">
        <ele>77</ele>
        <time>2020-06-07T14:26:43Z</time>
      </trkpt>
      <trkpt lat="47.86428" lon="-3.70237">
        <ele>77.1</ele>
        <time>2020-06-07T14:26:44Z</time>
      </trkpt>
      <trkpt lat="47.86431" lon="-3.70239">
        <ele>77.2</ele>
        <time>2020-06-07T14:26:45Z</time>
      </trkpt>
      <trkpt lat="47.86434" lon="-3.7024">
        <ele>77.3</ele>
        <time>2020-06-07T14:26:46Z</time>
      </trkpt>
      <trkpt lat="47.86437" lon="-3.70242">
        <ele>77.4</ele>
        <time>2020-06-07T14:26:47Z</time>
      </trkpt>
      <trkpt lat="47.8644" lon="-3.70244">
        <ele>77.5</ele>
        <time>2020-06-07T14:26:48Z</time>
      </trkpt>
      <trkpt lat="47.86443" lon="-3.70246">
        <ele>77.5</ele>
        <time>2020-06-07T14:26:49Z</time>
      </trkpt>
      <trkpt lat="47.86446" lon="-3.70248">
        <ele>77.6</ele>
        <time>2020-06-07T14:26:50Z</time>
      </trkpt>
      <trkpt lat="47.86449" lon="-3.7025">
        <ele>77.6</ele>
        <time>2020-06-07T14:26:51Z</time>
      </trkpt>
      <trkpt lat="47.86452" lon="-3.70251">
        <ele>77.7</ele>
        <time>2020-06-07T14:26:52Z</time>
      </trkpt>
      <trkpt lat="47.86456" lon="-3.70253">
        <ele>77.7</ele>
        <time>2020-06-07T14:26:53Z</time>
      </trkpt>
      <trkpt lat="47.8646" lon="-3.70254">
        <ele>77.8</ele>
        <time>2020-06-07T14:26:54Z</time>
      </trkpt>
      <trkpt lat="47.86464" lon="-3.70256">
        <ele>77.8</ele>
        <time>2020-06-07T14:26:55Z</time>
      </trkpt>
      <trkpt lat="47.86468" lon="-3.70258">
        <ele>77.8</ele>
        <time>2020-06-07T14:26:56Z</time>
      </trkpt>
      <trkpt lat="47.86472" lon="-3.70259">
        <ele>77.9</ele>
        <time>2020-06-07T14:26:57Z</time>
      </trkpt>
      <trkpt lat="47.86476" lon="-3.70261">
        <ele>77.9</ele>
        <time>2020-06-07T14:26:58Z</time>
      </trkpt>
      <trkpt lat="47.86481" lon="-3.70262">
        <ele>78</ele>
        <time>2020-06-07T14:26:59Z</time>
      </trkpt>
      <trkpt lat="47.86485" lon="-3.70265">
        <ele>78.1</ele>
        <time>2020-06-07T14:27:00Z</time>
      </trkpt>
      <trkpt lat="47.8649" lon="-3.70267">
        <ele>78.1</ele>
        <time>2020-06-07T14:27:01Z</time>
      </trkpt>
      <trkpt lat="47.86494" lon="-3.7027">
        <ele>78.1</ele>
        <time>2020-06-07T14:27:02Z</time>
      </trkpt>
      <trkpt lat="47.86498" lon="-3.70271">
        <ele>78.2</ele>
        <time>2020-06-07T14:27:03Z</time>
      </trkpt>
      <trkpt lat="47.86502" lon="-3.70273">
        <ele>78.2</ele>
        <time>2020-06-07T14:27:04Z</time>
      </trkpt>
      <trkpt lat="47.86506" lon="-3.70276">
        <ele>78.2</ele>
        <time>2020-06-07T14:27:05Z</time>
      </trkpt>
      <trkpt lat="47.8651" lon="-3.70279">
        <ele>78.2</ele>
        <time>2020-06-07T14:27:06Z</time>
      </trkpt>
      <trkpt lat="47.86515" lon="-3.70282">
        <ele>78.3</ele>
        <time>2020-06-07T14:27:07Z</time>
      </trkpt>
      <trkpt lat="47.8652" lon="-3.70284">
        <ele>78.3</ele>
        <time>2020-06-07T14:27:08Z</time>
      </trkpt>
      <trkpt lat="47.86525" lon="-3.70287">
        <ele>78.3</ele>
        <time>2020-06-07T14:27:09Z</time>
      </trkpt>
      <trkpt lat="47.8653" lon="-3.70288">
        <ele>78.3</ele>
        <time>2020-06-07T14:27:10Z</time>
      </trkpt>
      <trkpt lat="47.86534" lon="-3.70291">
        <ele>78.3</ele>
        <time>2020-06-07T14:27:11Z</time>
      </trkpt>
      <trkpt lat="47.8654" lon="-3.70292">
        <ele>78.3</ele>
        <time>2020-06-07T14:27:12Z</time>
      </trkpt>
      <trkpt lat="47.86546" lon="-3.70295">
        <ele>78.3</ele>
        <time>2020-06-07T14:27:13Z</time>
      </trkpt>
      <trkpt lat="47.8655" lon="-3.70297">
        <ele>78.3</ele>
        <time>2020-06-07T14:27:14Z</time>
      </trkpt>
      <trkpt lat="47.86555" lon="-3.70299">
        <ele>78.3</ele>
        <time>2020-06-07T14:27:15Z</time>
      </trkpt>
      <trkpt lat="47.8656" lon="-3.70301">
        <ele>78.3</ele>
        <time>2020-06-07T14:27:16Z</time>
      </trkpt>
      <trkpt lat="47.86565" lon="-3.70302">
        <ele>78.3</ele>
        <time>2020-06-07T14:27:17Z</time>
      </trkpt>
      <trkpt lat="47.8657" lon="-3.70305">
        <ele>78.3</ele>
        <time>2020-06-07T14:27:18Z</time>
      </trkpt>
      <trkpt lat="47.86575" lon="-3.70306">
        <ele>78.3</ele>
        <time>2020-06-07T14:27:19Z</time>
      </trkpt>
      <trkpt lat="47.8658" lon="-3.70309">
        <ele>78.3</ele>
        <time>2020-06-07T14:27:20Z</time>
      </trkpt>
      <trkpt lat="47.86585" lon="-3.70311">
        <ele>78.3</ele>
        <time>2020-06-07T14:27:21Z</time>
      </trkpt>
      <trkpt lat="47.8659" lon="-3.70313">
        <ele>78.3</ele>
        <time>2020-06-07T14:27:22Z</time>
      </trkpt>
      <trkpt lat="47.86596" lon="-3.70316">
        <ele>78.3</ele>
        <time>2020-06-07T14:27:23Z</time>
      </trkpt>
      <trkpt lat="47.86601" lon="-3.70318">
        <ele>78.3</ele>
        <time>2020-06-07T14:27:24Z</time>
      </trkpt>
      <trkpt lat="47.86606" lon="-3.7032">
        <ele>78.2</ele>
        <time>2020-06-07T14:27:25Z</time>
      </trkpt>
      <trkpt lat="47.86612" lon="-3.70322">
        <ele>78.2</ele>
        <time>2020-06-07T14:27:26Z</time>
      </trkpt>
      <trkpt lat="47.86617" lon="-3.70324">
        <ele>78.2</ele>
        <time>2020-06-07T14:27:27Z</time>
      </trkpt>
      <trkpt lat="47.86622" lon="-3.70326">
        <ele>78.1</ele>
        <time>2020-06-07T14:27:28Z</time>
      </trkpt>
      <trkpt lat="47.86628" lon="-3.70327">
        <ele>78.1</ele>
        <time>2020-06-07T14:27:29Z</time>
      </trkpt>
      <trkpt lat="47.86634" lon="-3.70329">
        <ele>78</ele>
        <time>2020-06-07T14:27:30Z</time>
      </trkpt>
      <trkpt lat="47.86639" lon="-3.7033">
        <ele>77.9</ele>
        <time>2020-06-07T14:27:31Z</time>
      </trkpt>
      <trkpt lat="47.86645" lon="-3.70333">
        <ele>77.8</ele>
        <time>2020-06-07T14:27:32Z</time>
      </trkpt>
      <trkpt lat="47.8665" lon="-3.70335">
        <ele>77.8</ele>
        <time>2020-06-07T14:27:33Z</time>
      </trkpt>
      <trkpt lat="47.86656" lon="-3.70337">
        <ele>77.7</ele>
        <time>2020-06-07T14:27:34Z</time>
      </trkpt>
      <trkpt lat="47.86662" lon="-3.70339">
        <ele>77.7</ele>
        <time>2020-06-07T14:27:35Z</time>
      </trkpt>
      <trkpt lat="47.86668" lon="-3.70342">
        <ele>77.6</ele>
        <time>2020-06-07T14:27:36Z</time>
      </trkpt>
      <trkpt lat="47.86674" lon="-3.70344">
        <ele>77.6</ele>
        <time>2020-06-07T14:27:37Z</time>
      </trkpt>
      <trkpt lat="47.8668" lon="-3.70347">
        <ele>77.5</ele>
        <time>2020-06-07T14:27:38Z</time>
      </trkpt>
      <trkpt lat="47.86685" lon="-3.70348">
        <ele>77.5</ele>
        <time>2020-06-07T14:27:39Z</time>
      </trkpt>
      <trkpt lat="47.86691" lon="-3.70351">
        <ele>77.4</ele>
        <time>2020-06-07T14:27:40Z</time>
      </trkpt>
      <trkpt lat="47.86697" lon="-3.70353">
        <ele>77.3</ele>
        <time>2020-06-07T14:27:41Z</time>
      </trkpt>
      <trkpt lat="47.86702" lon="-3.70356">
        <ele>77.3</ele>
        <time>2020-06-07T14:27:42Z</time>
      </trkpt>
      <trkpt lat="47.86708" lon="-3.7036">
        <ele>77.2</ele>
        <time>2020-06-07T14:27:43Z</time>
      </trkpt>
      <trkpt lat="47.86713" lon="-3.70364">
        <ele>77.1</ele>
        <time>2020-06-07T14:27:44Z</time>
      </trkpt>
      <trkpt lat="47.86719" lon="-3.70367">
        <ele>77.1</ele>
        <time>2020-06-07T14:27:45Z</time>
      </trkpt>
      <trkpt lat="47.86724" lon="-3.70371">
        <ele>77</ele>
        <time>2020-06-07T14:27:46Z</time>
      </trkpt>
      <trkpt lat="47.86729" lon="-3.70374">
        <ele>76.9</ele>
        <time>2020-06-07T14:27:47Z</time>
      </trkpt>
      <trkpt lat="47.86735" lon="-3.70377">
        <ele>76.8</ele>
        <time>2020-06-07T14:27:48Z</time>
      </trkpt>
      <trkpt lat="47.8674" lon="-3.70381">
        <ele>76.8</ele>
        <time>2020-06-07T14:27:49Z</time>
      </trkpt>
      <trkpt lat="47.86744" lon="-3.70386">
        <ele>76.7</ele>
        <time>2020-06-07T14:27:50Z</time>
      </trkpt>
      <trkpt lat="47.86749" lon="-3.7039">
        <ele>76.7</ele>
        <time>2020-06-07T14:27:51Z</time>
      </trkpt>
      <trkpt lat="47.86755" lon="-3.70394">
        <ele>76.6</ele>
        <time>2020-06-07T14:27:52Z</time>
      </trkpt>
      <trkpt lat="47.8676" lon="-3.70397">
        <ele>76.6</ele>
        <time>2020-06-07T14:27:53Z</time>
      </trkpt>
      <trkpt lat="47.86764" lon="-3.70399">
        <ele>76.6</ele>
        <time>2020-06-07T14:27:54Z</time>
      </trkpt>
      <trkpt lat="47.86768" lon="-3.70398">
        <ele>76.5</ele>
        <time>2020-06-07T14:27:55Z</time>
      </trkpt>
      <trkpt lat="47.86771" lon="-3.70393">
        <ele>76.5</ele>
        <time>2020-06-07T14:27:56Z</time>
      </trkpt>
      <trkpt lat="47.86772" lon="-3.70388">
        <ele>76.5</ele>
        <time>2020-06-07T14:27:57Z</time>
      </trkpt>
      <trkpt lat="47.86773" lon="-3.70384">
        <ele>76.5</ele>
        <time>2020-06-07T14:27:58Z</time>
      </trkpt>
      <trkpt lat="47.86775" lon="-3.70379">
        <ele>76.5</ele>
        <time>2020-06-07T14:27:59Z</time>
      </trkpt>
      <trkpt lat="47.86777" lon="-3.70376">
        <ele>76.5</ele>
        <time>2020-06-07T14:28:00Z</time>
      </trkpt>
      <trkpt lat="47.86778" lon="-3.70378">
        <ele>76.5</ele>
        <time>2020-06-07T14:28:01Z</time>
      </trkpt>
      <trkpt lat="47.86778" lon="-3.7038">
        <ele>76.4</ele>
        <time>2020-06-07T14:28:02Z</time>
      </trkpt>
      <trkpt lat="47.86778" lon="-3.70382">
        <ele>76.4</ele>
        <time>2020-06-07T14:28:03Z</time>
      </trkpt>
      <trkpt lat="47.86779" lon="-3.70386">
        <ele>76.4</ele>
        <time>2020-06-07T14:28:04Z</time>
      </trkpt>
      <trkpt lat="47.8678" lon="-3.70387">
        <ele>76.4</ele>
        <time>2020-06-07T14:28:05Z</time>
      </trkpt>
      <trkpt lat="47.8678" lon="-3.70388">
        <ele>76.3</ele>
        <time>2020-06-07T14:28:06Z</time>
      </trkpt>
      <trkpt lat="47.86783" lon="-3.7039">
        <ele>76.3</ele>
        <time>2020-06-07T14:28:07Z</time>
      </trkpt>
      <trkpt lat="47.86783" lon="-3.7039">
        <ele>76.3</ele>
        <time>2020-06-07T14:28:08Z</time>
      </trkpt>
      <trkpt lat="47.86784" lon="-3.70392">
        <ele>76.2</ele>
        <time>2020-06-07T14:28:09Z</time>
      </trkpt>
      <trkpt lat="47.86786" lon="-3.70393">
        <ele>76.2</ele>
        <time>2020-06-07T14:28:10Z</time>
      </trkpt>
      <trkpt lat="47.86789" lon="-3.70393">
        <ele>76.2</ele>
        <time>2020-06-07T14:28:11Z</time>
      </trkpt>
      <trkpt lat="47.8679" lon="-3.70393">
        <ele>76.2</ele>
        <time>2020-06-07T14:28:12Z</time>
      </trkpt>
      <trkpt lat="47.86795" lon="-3.70391">
        <ele>76.1</ele>
        <time>2020-06-07T14:28:13Z</time>
      </trkpt>
      <trkpt lat="47.86801" lon="-3.70389">
        <ele>76.1</ele>
        <time>2020-06-07T14:28:14Z</time>
      </trkpt>
      <trkpt lat="47.86806" lon="-3.70388">
        <ele>76.1</ele>
        <time>2020-06-07T14:28:15Z</time>
      </trkpt>
      <trkpt lat="47.86811" lon="-3.70387">
        <ele>76.1</ele>
        <time>2020-06-07T14:28:16Z</time>
      </trkpt>
      <trkpt lat="47.86816" lon="-3.70386">
        <ele>76.1</ele>
        <time>2020-06-07T14:28:17Z</time>
      </trkpt>
      <trkpt lat="47.86821" lon="-3.70384">
        <ele>76.1</ele>
        <time>2020-06-07T14:28:18Z</time>
      </trkpt>
      <trkpt lat="47.86825" lon="-3.70381">
        <ele>76.1</ele>
        <time>2020-06-07T14:28:19Z</time>
      </trkpt>
      <trkpt lat="47.86829" lon="-3.70377">
        <ele>76.1</ele>
        <time>2020-06-07T14:28:20Z</time>
      </trkpt>
      <trkpt lat="47.86834" lon="-3.70374">
        <ele>76.1</ele>
        <time>2020-06-07T14:28:21Z</time>
      </trkpt>
      <trkpt lat="47.86838" lon="-3.70371">
        <ele>76.2</ele>
        <time>2020-06-07T14:28:22Z</time>
      </trkpt>
      <trkpt lat="47.86842" lon="-3.70367">
        <ele>76.2</ele>
        <time>2020-06-07T14:28:23Z</time>
      </trkpt>
      <trkpt lat="47.86846" lon="-3.70362">
        <ele>76.2</ele>
        <time>2020-06-07T14:28:24Z</time>
      </trkpt>
      <trkpt lat="47.86849" lon="-3.70358">
        <ele>76.3</ele>
        <time>2020-06-07T14:28:25Z</time>
      </trkpt>
      <trkpt lat="47.86854" lon="-3.70353">
        <ele>76.4</ele>
        <time>2020-06-07T14:28:26Z</time>
      </trkpt>
      <trkpt lat="47.86858" lon="-3.70349">
        <ele>76.4</ele>
        <time>2020-06-07T14:28:27Z</time>
      </trkpt>
      <trkpt lat="47.86862" lon="-3.70344">
        <ele>76.5</ele>
        <time>2020-06-07T14:28:28Z</time>
      </trkpt>
      <trkpt lat="47.86867" lon="-3.7034">
        <ele>76.5</ele>
        <time>2020-06-07T14:28:29Z</time>
      </trkpt>
      <trkpt lat="47.86871" lon="-3.70335">
        <ele>76.5</ele>
        <time>2020-06-07T14:28:30Z</time>
      </trkpt>
      <trkpt lat="47.86876" lon="-3.7033">
        <ele>76.6</ele>
        <time>2020-06-07T14:28:31Z</time>
      </trkpt>
      <trkpt lat="47.86881" lon="-3.70327">
        <ele>76.6</ele>
        <time>2020-06-07T14:28:32Z</time>
      </trkpt>
      <trkpt lat="47.86886" lon="-3.70323">
        <ele>76.7</ele>
        <time>2020-06-07T14:28:33Z</time>
      </trkpt>
      <trkpt lat="47.86891" lon="-3.70319">
        <ele>76.7</ele>
        <time>2020-06-07T14:28:34Z</time>
      </trkpt>
      <trkpt lat="47.86897" lon="-3.70315">
        <ele>76.7</ele>
        <time>2020-06-07T14:28:35Z</time>
      </trkpt>
      <trkpt lat="47.86903" lon="-3.7031">
        <ele>76.8</ele>
        <time>2020-06-07T14:28:36Z</time>
      </trkpt>
      <trkpt lat="47.86907" lon="-3.70306">
        <ele>76.8</ele>
        <time>2020-06-07T14:28:37Z</time>
      </trkpt>
      <trkpt lat="47.86913" lon="-3.70302">
        <ele>76.9</ele>
        <time>2020-06-07T14:28:38Z</time>
      </trkpt>
      <trkpt lat="47.86919" lon="-3.70297">
        <ele>76.9</ele>
        <time>2020-06-07T14:28:39Z</time>
      </trkpt>
      <trkpt lat="47.86924" lon="-3.70292">
        <ele>76.9</ele>
        <time>2020-06-07T14:28:40Z</time>
      </trkpt>
      <trkpt lat="47.86928" lon="-3.70288">
        <ele>77</ele>
        <time>2020-06-07T14:28:41Z</time>
      </trkpt>
      <trkpt lat="47.86933" lon="-3.70284">
        <ele>77</ele>
        <time>2020-06-07T14:28:42Z</time>
      </trkpt>
      <trkpt lat="47.86937" lon="-3.70277">
        <ele>77</ele>
        <time>2020-06-07T14:28:43Z</time>
      </trkpt>
      <trkpt lat="47.86942" lon="-3.70272">
        <ele>77</ele>
        <time>2020-06-07T14:28:44Z</time>
      </trkpt>
      <trkpt lat="47.86948" lon="-3.70267">
        <ele>77</ele>
        <time>2020-06-07T14:28:45Z</time>
      </trkpt>
      <trkpt lat="47.86953" lon="-3.70263">
        <ele>77</ele>
        <time>2020-06-07T14:28:46Z</time>
      </trkpt>
      <trkpt lat="47.86958" lon="-3.70258">
        <ele>77</ele>
        <time>2020-06-07T14:28:47Z</time>
      </trkpt>
      <trkpt lat="47.86962" lon="-3.70254">
        <ele>77</ele>
        <time>2020-06-07T14:28:48Z</time>
      </trkpt>
      <trkpt lat="47.86967" lon="-3.7025">
        <ele>76.9</ele>
        <time>2020-06-07T14:28:49Z</time>
      </trkpt>
      <trkpt lat="47.86972" lon="-3.70245">
        <ele>76.9</ele>
        <time>2020-06-07T14:28:50Z</time>
      </trkpt>
      <trkpt lat="47.86977" lon="-3.7024">
        <ele>76.8</ele>
        <time>2020-06-07T14:28:51Z</time>
      </trkpt>
      <trkpt lat="47.86984" lon="-3.70234">
        <ele>76.8</ele>
        <time>2020-06-07T14:28:52Z</time>
      </trkpt>
      <trkpt lat="47.8699" lon="-3.70229">
        <ele>76.7</ele>
        <time>2020-06-07T14:28:53Z</time>
      </trkpt>
      <trkpt lat="47.86996" lon="-3.70224">
        <ele>76.7</ele>
        <time>2020-06-07T14:28:54Z</time>
      </trkpt>
      <trkpt lat="47.87002" lon="-3.70219">
        <ele>76.6</ele>
        <time>2020-06-07T14:28:55Z</time>
      </trkpt>
      <trkpt lat="47.87009" lon="-3.70214">
        <ele>76.5</ele>
        <time>2020-06-07T14:28:56Z</time>
      </trkpt>
      <trkpt lat="47.87015" lon="-3.70208">
        <ele>76.4</ele>
        <time>2020-06-07T14:28:57Z</time>
      </trkpt>
      <trkpt lat="47.87022" lon="-3.70202">
        <ele>76.3</ele>
        <time>2020-06-07T14:28:58Z</time>
      </trkpt>
      <trkpt lat="47.87028" lon="-3.70195">
        <ele>76.2</ele>
        <time>2020-06-07T14:28:59Z</time>
      </trkpt>
      <trkpt lat="47.87034" lon="-3.70189">
        <ele>76.2</ele>
        <time>2020-06-07T14:29:00Z</time>
      </trkpt>
      <trkpt lat="47.8704" lon="-3.70182">
        <ele>76.1</ele>
        <time>2020-06-07T14:29:01Z</time>
      </trkpt>
      <trkpt lat="47.87047" lon="-3.70175">
        <ele>76</ele>
        <time>2020-06-07T14:29:02Z</time>
      </trkpt>
      <trkpt lat="47.87052" lon="-3.70167">
        <ele>75.9</ele>
        <time>2020-06-07T14:29:03Z</time>
      </trkpt>
      <trkpt lat="47.87058" lon="-3.70159">
        <ele>75.9</ele>
        <time>2020-06-07T14:29:04Z</time>
      </trkpt>
      <trkpt lat="47.87063" lon="-3.70152">
        <ele>75.8</ele>
        <time>2020-06-07T14:29:05Z</time>
      </trkpt>
      <trkpt lat="47.87069" lon="-3.70143">
        <ele>75.8</ele>
        <time>2020-06-07T14:29:06Z</time>
      </trkpt>
      <trkpt lat="47.87074" lon="-3.70136">
        <ele>75.7</ele>
        <time>2020-06-07T14:29:07Z</time>
      </trkpt>
      <trkpt lat="47.87079" lon="-3.70127">
        <ele>75.6</ele>
        <time>2020-06-07T14:29:08Z</time>
      </trkpt>
      <trkpt lat="47.87085" lon="-3.70119">
        <ele>75.6</ele>
        <time>2020-06-07T14:29:09Z</time>
      </trkpt>
      <trkpt lat="47.8709" lon="-3.70111">
        <ele>75.6</ele>
        <time>2020-06-07T14:29:10Z</time>
      </trkpt>
      <trkpt lat="47.87094" lon="-3.70103">
        <ele>75.6</ele>
        <time>2020-06-07T14:29:11Z</time>
      </trkpt>
      <trkpt lat="47.871" lon="-3.70095">
        <ele>75.6</ele>
        <time>2020-06-07T14:29:12Z</time>
      </trkpt>
      <trkpt lat="47.87105" lon="-3.70087">
        <ele>75.6</ele>
        <time>2020-06-07T14:29:13Z</time>
      </trkpt>
      <trkpt lat="47.8711" lon="-3.70079">
        <ele>75.6</ele>
        <time>2020-06-07T14:29:14Z</time>
      </trkpt>
      <trkpt lat="47.87115" lon="-3.70071">
        <ele>75.6</ele>
        <time>2020-06-07T14:29:15Z</time>
      </trkpt>
      <trkpt lat="47.8712" lon="-3.70063">
        <ele>75.7</ele>
        <time>2020-06-07T14:29:16Z</time>
      </trkpt>
      <trkpt lat="47.87124" lon="-3.70056">
        <ele>75.7</ele>
        <time>2020-06-07T14:29:17Z</time>
      </trkpt>
      <trkpt lat="47.87128" lon="-3.70048">
        <ele>75.7</ele>
        <time>2020-06-07T14:29:18Z</time>
      </trkpt>
      <trkpt lat="47.87133" lon="-3.70042">
        <ele>75.7</ele>
        <time>2020-06-07T14:29:19Z</time>
      </trkpt>
      <trkpt lat="47.87138" lon="-3.70036">
        <ele>75.7</ele>
        <time>2020-06-07T14:29:20Z</time>
      </trkpt>
      <trkpt lat="47.87142" lon="-3.7003">
        <ele>75.8</ele>
        <time>2020-06-07T14:29:21Z</time>
      </trkpt>
      <trkpt lat="47.87148" lon="-3.70025">
        <ele>75.8</ele>
        <time>2020-06-07T14:29:22Z</time>
      </trkpt>
      <trkpt lat="47.87153" lon="-3.7002">
        <ele>75.9</ele>
        <time>2020-06-07T14:29:23Z</time>
      </trkpt>
      <trkpt lat="47.87158" lon="-3.70014">
        <ele>76</ele>
        <time>2020-06-07T14:29:24Z</time>
      </trkpt>
      <trkpt lat="47.87164" lon="-3.70008">
        <ele>76</ele>
        <time>2020-06-07T14:29:25Z</time>
      </trkpt>
      <trkpt lat="47.8717" lon="-3.70003">
        <ele>76</ele>
        <time>2020-06-07T14:29:26Z</time>
      </trkpt>
      <trkpt lat="47.87176" lon="-3.69998">
        <ele>76.1</ele>
        <time>2020-06-07T14:29:27Z</time>
      </trkpt>
      <trkpt lat="47.87183" lon="-3.69994">
        <ele>76.1</ele>
        <time>2020-06-07T14:29:28Z</time>
      </trkpt>
      <trkpt lat="47.87189" lon="-3.6999">
        <ele>76.1</ele>
        <time>2020-06-07T14:29:29Z</time>
      </trkpt>
      <trkpt lat="47.87195" lon="-3.69987">
        <ele>76.2</ele>
        <time>2020-06-07T14:29:30Z</time>
      </trkpt>
      <trkpt lat="47.87201" lon="-3.69983">
        <ele>76.3</ele>
        <time>2020-06-07T14:29:31Z</time>
      </trkpt>
      <trkpt lat="47.87208" lon="-3.6998">
        <ele>76.3</ele>
        <time>2020-06-07T14:29:32Z</time>
      </trkpt>
      <trkpt lat="47.87214" lon="-3.69977">
        <ele>76.4</ele>
        <time>2020-06-07T14:29:33Z</time>
      </trkpt>
      <trkpt lat="47.8722" lon="-3.69974">
        <ele>76.4</ele>
        <time>2020-06-07T14:29:34Z</time>
      </trkpt>
      <trkpt lat="47.87226" lon="-3.69972">
        <ele>76.5</ele>
        <time>2020-06-07T14:29:35Z</time>
      </trkpt>
      <trkpt lat="47.87232" lon="-3.69969">
        <ele>76.6</ele>
        <time>2020-06-07T14:29:36Z</time>
      </trkpt>
      <trkpt lat="47.87238" lon="-3.69967">
        <ele>76.6</ele>
        <time>2020-06-07T14:29:37Z</time>
      </trkpt>
      <trkpt lat="47.87244" lon="-3.69965">
        <ele>76.7</ele>
        <time>2020-06-07T14:29:38Z</time>
      </trkpt>
      <trkpt lat="47.8725" lon="-3.69963">
        <ele>76.7</ele>
        <time>2020-06-07T14:29:39Z</time>
      </trkpt>
      <trkpt lat="47.87256" lon="-3.69961">
        <ele>76.8</ele>
        <time>2020-06-07T14:29:40Z</time>
      </trkpt>
      <trkpt lat="47.87262" lon="-3.69962">
        <ele>76.8</ele>
        <time>2020-06-07T14:29:41Z</time>
      </trkpt>
      <trkpt lat="47.87268" lon="-3.69962">
        <ele>76.9</ele>
        <time>2020-06-07T14:29:42Z</time>
      </trkpt>
      <trkpt lat="47.87274" lon="-3.69961">
        <ele>76.9</ele>
        <time>2020-06-07T14:29:43Z</time>
      </trkpt>
      <trkpt lat="47.8728" lon="-3.69958">
        <ele>77</ele>
        <time>2020-06-07T14:29:44Z</time>
      </trkpt>
      <trkpt lat="47.87286" lon="-3.69956">
        <ele>77.1</ele>
        <time>2020-06-07T14:29:45Z</time>
      </trkpt>
      <trkpt lat="47.87292" lon="-3.69954">
        <ele>77.1</ele>
        <time>2020-06-07T14:29:46Z</time>
      </trkpt>
      <trkpt lat="47.87299" lon="-3.69953">
        <ele>77.2</ele>
        <time>2020-06-07T14:29:47Z</time>
      </trkpt>
      <trkpt lat="47.87306" lon="-3.69952">
        <ele>77.2</ele>
        <time>2020-06-07T14:29:48Z</time>
      </trkpt>
      <trkpt lat="47.87312" lon="-3.69951">
        <ele>77.3</ele>
        <time>2020-06-07T14:29:49Z</time>
      </trkpt>
      <trkpt lat="47.87318" lon="-3.6995">
        <ele>77.3</ele>
        <time>2020-06-07T14:29:50Z</time>
      </trkpt>
      <trkpt lat="47.87325" lon="-3.69949">
        <ele>77.3</ele>
        <time>2020-06-07T14:29:51Z</time>
      </trkpt>
      <trkpt lat="47.87331" lon="-3.69948">
        <ele>77.3</ele>
        <time>2020-06-07T14:29:52Z</time>
      </trkpt>
      <trkpt lat="47.87337" lon="-3.69947">
        <ele>77.3</ele>
        <time>2020-06-07T14:29:53Z</time>
      </trkpt>
      <trkpt lat="47.87344" lon="-3.69945">
        <ele>77.3</ele>
        <time>2020-06-07T14:29:54Z</time>
      </trkpt>
      <trkpt lat="47.8735" lon="-3.69944">
        <ele>77.3</ele>
        <time>2020-06-07T14:29:55Z</time>
      </trkpt>
      <trkpt lat="47.87356" lon="-3.69942">
        <ele>77.3</ele>
        <time>2020-06-07T14:29:56Z</time>
      </trkpt>
      <trkpt lat="47.87361" lon="-3.69941">
        <ele>77.3</ele>
        <time>2020-06-07T14:29:57Z</time>
      </trkpt>
      <trkpt lat="47.87368" lon="-3.69939">
        <ele>77.2</ele>
        <time>2020-06-07T14:29:58Z</time>
      </trkpt>
      <trkpt lat="47.87376" lon="-3.69937">
        <ele>77.2</ele>
        <time>2020-06-07T14:29:59Z</time>
      </trkpt>
      <trkpt lat="47.87384" lon="-3.69935">
        <ele>77.2</ele>
        <time>2020-06-07T14:30:00Z</time>
      </trkpt>
      <trkpt lat="47.8739" lon="-3.69934">
        <ele>77.2</ele>
        <time>2020-06-07T14:30:01Z</time>
      </trkpt>
      <trkpt lat="47.87396" lon="-3.69933">
        <ele>77.2</ele>
        <time>2020-06-07T14:30:02Z</time>
      </trkpt>
      <trkpt lat="47.87402" lon="-3.69932">
        <ele>77.3</ele>
        <time>2020-06-07T14:30:03Z</time>
      </trkpt>
      <trkpt lat="47.87408" lon="-3.69931">
        <ele>77.3</ele>
        <time>2020-06-07T14:30:04Z</time>
      </trkpt>
      <trkpt lat="47.87413" lon="-3.6993">
        <ele>77.4</ele>
        <time>2020-06-07T14:30:05Z</time>
      </trkpt>
      <trkpt lat="47.87418" lon="-3.69929">
        <ele>77.4</ele>
        <time>2020-06-07T14:30:06Z</time>
      </trkpt>
      <trkpt lat="47.87423" lon="-3.69927">
        <ele>77.5</ele>
        <time>2020-06-07T14:30:07Z</time>
      </trkpt>
      <trkpt lat="47.8743" lon="-3.69926">
        <ele>77.5</ele>
        <time>2020-06-07T14:30:08Z</time>
      </trkpt>
      <trkpt lat="47.87435" lon="-3.69925">
        <ele>77.5</ele>
        <time>2020-06-07T14:30:09Z</time>
      </trkpt>
      <trkpt lat="47.8744" lon="-3.69923">
        <ele>77.5</ele>
        <time>2020-06-07T14:30:10Z</time>
      </trkpt>
      <trkpt lat="47.87447" lon="-3.69922">
        <ele>77.4</ele>
        <time>2020-06-07T14:30:11Z</time>
      </trkpt>
      <trkpt lat="47.87454" lon="-3.69921">
        <ele>77.4</ele>
        <time>2020-06-07T14:30:12Z</time>
      </trkpt>
      <trkpt lat="47.87462" lon="-3.6992">
        <ele>77.4</ele>
        <time>2020-06-07T14:30:13Z</time>
      </trkpt>
      <trkpt lat="47.87468" lon="-3.69918">
        <ele>77.4</ele>
        <time>2020-06-07T14:30:14Z</time>
      </trkpt>
      <trkpt lat="47.87474" lon="-3.69917">
        <ele>77.4</ele>
        <time>2020-06-07T14:30:15Z</time>
      </trkpt>
      <trkpt lat="47.8748" lon="-3.69915">
        <ele>77.4</ele>
        <time>2020-06-07T14:30:16Z</time>
      </trkpt>
      <trkpt lat="47.87487" lon="-3.69914">
        <ele>77.4</ele>
        <time>2020-06-07T14:30:17Z</time>
      </trkpt>
      <trkpt lat="47.87493" lon="-3.69912">
        <ele>77.4</ele>
        <time>2020-06-07T14:30:18Z</time>
      </trkpt>
      <trkpt lat="47.87499" lon="-3.69911">
        <ele>77.3</ele>
        <time>2020-06-07T14:30:19Z</time>
      </trkpt>
      <trkpt lat="47.87504" lon="-3.6991">
        <ele>77.3</ele>
        <time>2020-06-07T14:30:20Z</time>
      </trkpt>
      <trkpt lat="47.8751" lon="-3.6991">
        <ele>77.3</ele>
        <time>2020-06-07T14:30:21Z</time>
      </trkpt>
      <trkpt lat="47.87516" lon="-3.69909">
        <ele>77.2</ele>
        <time>2020-06-07T14:30:22Z</time>
      </trkpt>
      <trkpt lat="47.87522" lon="-3.69909">
        <ele>77.2</ele>
        <time>2020-06-07T14:30:23Z</time>
      </trkpt>
      <trkpt lat="47.87529" lon="-3.69908">
        <ele>77.1</ele>
        <time>2020-06-07T14:30:24Z</time>
      </trkpt>
      <trkpt lat="47.87536" lon="-3.69906">
        <ele>77.1</ele>
        <time>2020-06-07T14:30:25Z</time>
      </trkpt>
      <trkpt lat="47.87542" lon="-3.69903">
        <ele>77</ele>
        <time>2020-06-07T14:30:26Z</time>
      </trkpt>
      <trkpt lat="47.87549" lon="-3.69901">
        <ele>77</ele>
        <time>2020-06-07T14:30:27Z</time>
      </trkpt>
      <trkpt lat="47.87556" lon="-3.699">
        <ele>77</ele>
        <time>2020-06-07T14:30:28Z</time>
      </trkpt>
      <trkpt lat="47.87565" lon="-3.69898">
        <ele>76.9</ele>
        <time>2020-06-07T14:30:29Z</time>
      </trkpt>
      <trkpt lat="47.87572" lon="-3.69896">
        <ele>76.9</ele>
        <time>2020-06-07T14:30:30Z</time>
      </trkpt>
      <trkpt lat="47.8758" lon="-3.69895">
        <ele>77</ele>
        <time>2020-06-07T14:30:31Z</time>
      </trkpt>
      <trkpt lat="47.87588" lon="-3.69892">
        <ele>77</ele>
        <time>2020-06-07T14:30:32Z</time>
      </trkpt>
      <trkpt lat="47.87596" lon="-3.69891">
        <ele>77.1</ele>
        <time>2020-06-07T14:30:33Z</time>
      </trkpt>
      <trkpt lat="47.87603" lon="-3.69889">
        <ele>77.2</ele>
        <time>2020-06-07T14:30:34Z</time>
      </trkpt>
      <trkpt lat="47.8761" lon="-3.69888">
        <ele>77.2</ele>
        <time>2020-06-07T14:30:35Z</time>
      </trkpt>
      <trkpt lat="47.87616" lon="-3.69886">
        <ele>77.3</ele>
        <time>2020-06-07T14:30:36Z</time>
      </trkpt>
      <trkpt lat="47.87622" lon="-3.69884">
        <ele>77.4</ele>
        <time>2020-06-07T14:30:37Z</time>
      </trkpt>
      <trkpt lat="47.87628" lon="-3.69884">
        <ele>77.5</ele>
        <time>2020-06-07T14:30:38Z</time>
      </trkpt>
      <trkpt lat="47.87634" lon="-3.69883">
        <ele>77.6</ele>
        <time>2020-06-07T14:30:39Z</time>
      </trkpt>
      <trkpt lat="47.87639" lon="-3.69882">
        <ele>77.7</ele>
        <time>2020-06-07T14:30:40Z</time>
      </trkpt>
      <trkpt lat="47.87644" lon="-3.69881">
        <ele>77.7</ele>
        <time>2020-06-07T14:30:41Z</time>
      </trkpt>
      <trkpt lat="47.87649" lon="-3.69879">
        <ele>77.8</ele>
        <time>2020-06-07T14:30:42Z</time>
      </trkpt>
      <trkpt lat="47.87655" lon="-3.69879">
        <ele>77.9</ele>
        <time>2020-06-07T14:30:43Z</time>
      </trkpt>
      <trkpt lat="47.8766" lon="-3.69879">
        <ele>78</ele>
        <time>2020-06-07T14:30:44Z</time>
      </trkpt>
      <trkpt lat="47.87665" lon="-3.69878">
        <ele>78.1</ele>
        <time>2020-06-07T14:30:45Z</time>
      </trkpt>
      <trkpt lat="47.8767" lon="-3.69878">
        <ele>78.2</ele>
        <time>2020-06-07T14:30:46Z</time>
      </trkpt>
      <trkpt lat="47.87675" lon="-3.69877">
        <ele>78.4</ele>
        <time>2020-06-07T14:30:47Z</time>
      </trkpt>
      <trkpt lat="47.87679" lon="-3.69875">
        <ele>78.5</ele>
        <time>2020-06-07T14:30:48Z</time>
      </trkpt>
      <trkpt lat="47.87687" lon="-3.69874">
        <ele>78.6</ele>
        <time>2020-06-07T14:30:49Z</time>
      </trkpt>
      <trkpt lat="47.87693" lon="-3.69872">
        <ele>78.7</ele>
        <time>2020-06-07T14:30:50Z</time>
      </trkpt>
      <trkpt lat="47.87701" lon="-3.69869">
        <ele>78.8</ele>
        <time>2020-06-07T14:30:51Z</time>
      </trkpt>
      <trkpt lat="47.87707" lon="-3.69866">
        <ele>78.9</ele>
        <time>2020-06-07T14:30:52Z</time>
      </trkpt>
      <trkpt lat="47.87714" lon="-3.69865">
        <ele>78.9</ele>
        <time>2020-06-07T14:30:53Z</time>
      </trkpt>
      <trkpt lat="47.87721" lon="-3.69863">
        <ele>79</ele>
        <time>2020-06-07T14:30:54Z</time>
      </trkpt>
      <trkpt lat="47.87727" lon="-3.69861">
        <ele>78.9</ele>
        <time>2020-06-07T14:30:55Z</time>
      </trkpt>
      <trkpt lat="47.87733" lon="-3.69859">
        <ele>78.9</ele>
        <time>2020-06-07T14:30:56Z</time>
      </trkpt>
      <trkpt lat="47.8774" lon="-3.69858">
        <ele>78.8</ele>
        <time>2020-06-07T14:30:57Z</time>
      </trkpt>
      <trkpt lat="47.87746" lon="-3.69857">
        <ele>78.8</ele>
        <time>2020-06-07T14:30:58Z</time>
      </trkpt>
      <trkpt lat="47.87751" lon="-3.69857">
        <ele>78.8</ele>
        <time>2020-06-07T14:30:59Z</time>
      </trkpt>
      <trkpt lat="47.87757" lon="-3.69856">
        <ele>78.8</ele>
        <time>2020-06-07T14:31:00Z</time>
      </trkpt>
      <trkpt lat="47.87763" lon="-3.69854">
        <ele>78.9</ele>
        <time>2020-06-07T14:31:01Z</time>
      </trkpt>
      <trkpt lat="47.87769" lon="-3.69853">
        <ele>78.9</ele>
        <time>2020-06-07T14:31:02Z</time>
      </trkpt>
      <trkpt lat="47.87774" lon="-3.69852">
        <ele>79</ele>
        <time>2020-06-07T14:31:03Z</time>
      </trkpt>
      <trkpt lat="47.87781" lon="-3.6985">
        <ele>79</ele>
        <time>2020-06-07T14:31:04Z</time>
      </trkpt>
      <trkpt lat="47.87786" lon="-3.69849">
        <ele>79</ele>
        <time>2020-06-07T14:31:05Z</time>
      </trkpt>
      <trkpt lat="47.87793" lon="-3.69847">
        <ele>79</ele>
        <time>2020-06-07T14:31:06Z</time>
      </trkpt>
      <trkpt lat="47.878" lon="-3.69846">
        <ele>79</ele>
        <time>2020-06-07T14:31:07Z</time>
      </trkpt>
      <trkpt lat="47.87807" lon="-3.69846">
        <ele>78.9</ele>
        <time>2020-06-07T14:31:08Z</time>
      </trkpt>
      <trkpt lat="47.87813" lon="-3.69845">
        <ele>78.9</ele>
        <time>2020-06-07T14:31:09Z</time>
      </trkpt>
      <trkpt lat="47.87819" lon="-3.69844">
        <ele>78.9</ele>
        <time>2020-06-07T14:31:10Z</time>
      </trkpt>
      <trkpt lat="47.87825" lon="-3.69843">
        <ele>78.9</ele>
        <time>2020-06-07T14:31:11Z</time>
      </trkpt>
      <trkpt lat="47.87831" lon="-3.69842">
        <ele>78.9</ele>
        <time>2020-06-07T14:31:12Z</time>
      </trkpt>
      <trkpt lat="47.87838" lon="-3.69841">
        <ele>78.9</ele>
        <time>2020-06-07T14:31:13Z</time>
      </trkpt>
      <trkpt lat="47.87845" lon="-3.6984">
        <ele>78.9</ele>
        <time>2020-06-07T14:31:14Z</time>
      </trkpt>
      <trkpt lat="47.87852" lon="-3.69838">
        <ele>78.9</ele>
        <time>2020-06-07T14:31:15Z</time>
      </trkpt>
      <trkpt lat="47.8786" lon="-3.69836">
        <ele>78.9</ele>
        <time>2020-06-07T14:31:16Z</time>
      </trkpt>
      <trkpt lat="47.87865" lon="-3.69834">
        <ele>78.9</ele>
        <time>2020-06-07T14:31:17Z</time>
      </trkpt>
      <trkpt lat="47.87871" lon="-3.69833">
        <ele>79</ele>
        <time>2020-06-07T14:31:18Z</time>
      </trkpt>
      <trkpt lat="47.87878" lon="-3.69831">
        <ele>79.1</ele>
        <time>2020-06-07T14:31:19Z</time>
      </trkpt>
      <trkpt lat="47.87884" lon="-3.69831">
        <ele>79.2</ele>
        <time>2020-06-07T14:31:20Z</time>
      </trkpt>
      <trkpt lat="47.87891" lon="-3.6983">
        <ele>79.3</ele>
        <time>2020-06-07T14:31:21Z</time>
      </trkpt>
      <trkpt lat="47.87897" lon="-3.69829">
        <ele>79.4</ele>
        <time>2020-06-07T14:31:22Z</time>
      </trkpt>
      <trkpt lat="47.87905" lon="-3.69828">
        <ele>79.6</ele>
        <time>2020-06-07T14:31:23Z</time>
      </trkpt>
      <trkpt lat="47.87911" lon="-3.69827">
        <ele>79.6</ele>
        <time>2020-06-07T14:31:24Z</time>
      </trkpt>
      <trkpt lat="47.87918" lon="-3.69827">
        <ele>79.7</ele>
        <time>2020-06-07T14:31:25Z</time>
      </trkpt>
      <trkpt lat="47.87924" lon="-3.69827">
        <ele>79.8</ele>
        <time>2020-06-07T14:31:26Z</time>
      </trkpt>
      <trkpt lat="47.8793" lon="-3.69827">
        <ele>79.9</ele>
        <time>2020-06-07T14:31:27Z</time>
      </trkpt>
      <trkpt lat="47.87937" lon="-3.69828">
        <ele>80</ele>
        <time>2020-06-07T14:31:28Z</time>
      </trkpt>
      <trkpt lat="47.87943" lon="-3.69828">
        <ele>80.2</ele>
        <time>2020-06-07T14:31:29Z</time>
      </trkpt>
      <trkpt lat="47.87949" lon="-3.69828">
        <ele>80.3</ele>
        <time>2020-06-07T14:31:30Z</time>
      </trkpt>
      <trkpt lat="47.87956" lon="-3.69829">
        <ele>80.4</ele>
        <time>2020-06-07T14:31:31Z</time>
      </trkpt>
      <trkpt lat="47.87962" lon="-3.6983">
        <ele>80.4</ele>
        <time>2020-06-07T14:31:32Z</time>
      </trkpt>
      <trkpt lat="47.87967" lon="-3.69831">
        <ele>80.4</ele>
        <time>2020-06-07T14:31:33Z</time>
      </trkpt>
      <trkpt lat="47.87974" lon="-3.69831">
        <ele>80.4</ele>
        <time>2020-06-07T14:31:34Z</time>
      </trkpt>
      <trkpt lat="47.87979" lon="-3.69833">
        <ele>80.4</ele>
        <time>2020-06-07T14:31:35Z</time>
      </trkpt>
      <trkpt lat="47.87984" lon="-3.69835">
        <ele>80.4</ele>
        <time>2020-06-07T14:31:36Z</time>
      </trkpt>
      <trkpt lat="47.8799" lon="-3.69837">
        <ele>80.4</ele>
        <time>2020-06-07T14:31:37Z</time>
      </trkpt>
      <trkpt lat="47.87997" lon="-3.69838">
        <ele>80.5</ele>
        <time>2020-06-07T14:31:38Z</time>
      </trkpt>
      <trkpt lat="47.88003" lon="-3.69839">
        <ele>80.6</ele>
        <time>2020-06-07T14:31:39Z</time>
      </trkpt>
      <trkpt lat="47.88009" lon="-3.69841">
        <ele>80.7</ele>
        <time>2020-06-07T14:31:40Z</time>
      </trkpt>
      <trkpt lat="47.88016" lon="-3.69842">
        <ele>80.8</ele>
        <time>2020-06-07T14:31:41Z</time>
      </trkpt>
      <trkpt lat="47.88021" lon="-3.69843">
        <ele>80.9</ele>
        <time>2020-06-07T14:31:42Z</time>
      </trkpt>
      <trkpt lat="47.88028" lon="-3.69844">
        <ele>81</ele>
        <time>2020-06-07T14:31:43Z</time>
      </trkpt>
      <trkpt lat="47.88033" lon="-3.69845">
        <ele>81.1</ele>
        <time>2020-06-07T14:31:44Z</time>
      </trkpt>
      <trkpt lat="47.88039" lon="-3.69847">
        <ele>81.2</ele>
        <time>2020-06-07T14:31:45Z</time>
      </trkpt>
      <trkpt lat="47.88045" lon="-3.69848">
        <ele>81.4</ele>
        <time>2020-06-07T14:31:46Z</time>
      </trkpt>
      <trkpt lat="47.88051" lon="-3.69849">
        <ele>81.5</ele>
        <time>2020-06-07T14:31:47Z</time>
      </trkpt>
      <trkpt lat="47.88057" lon="-3.6985">
        <ele>81.6</ele>
        <time>2020-06-07T14:31:48Z</time>
      </trkpt>
      <trkpt lat="47.88062" lon="-3.69851">
        <ele>81.7</ele>
        <time>2020-06-07T14:31:49Z</time>
      </trkpt>
      <trkpt lat="47.88066" lon="-3.69851">
        <ele>81.8</ele>
        <time>2020-06-07T14:31:50Z</time>
      </trkpt>
      <trkpt lat="47.88071" lon="-3.69852">
        <ele>81.9</ele>
        <time>2020-06-07T14:31:51Z</time>
      </trkpt>
      <trkpt lat="47.88075" lon="-3.69852">
        <ele>81.9</ele>
        <time>2020-06-07T14:31:52Z</time>
      </trkpt>
      <trkpt lat="47.8808" lon="-3.69853">
        <ele>82</ele>
        <time>2020-06-07T14:31:53Z</time>
      </trkpt>
      <trkpt lat="47.88085" lon="-3.69854">
        <ele>82.1</ele>
        <time>2020-06-07T14:31:54Z</time>
      </trkpt>
      <trkpt lat="47.8809" lon="-3.69855">
        <ele>82.2</ele>
        <time>2020-06-07T14:31:55Z</time>
      </trkpt>
      <trkpt lat="47.88094" lon="-3.69855">
        <ele>82.3</ele>
        <time>2020-06-07T14:31:56Z</time>
      </trkpt>
      <trkpt lat="47.88098" lon="-3.69856">
        <ele>82.4</ele>
        <time>2020-06-07T14:31:57Z</time>
      </trkpt>
      <trkpt lat="47.88102" lon="-3.69857">
        <ele>82.5</ele>
        <time>2020-06-07T14:31:58Z</time>
      </trkpt>
      <trkpt lat="47.88107" lon="-3.69857">
        <ele>82.6</ele>
        <time>2020-06-07T14:31:59Z</time>
      </trkpt>
      <trkpt lat="47.88111" lon="-3.69858">
        <ele>82.8</ele>
        <time>2020-06-07T14:32:00Z</time>
      </trkpt>
      <trkpt lat="47.88116" lon="-3.69859">
        <ele>82.9</ele>
        <time>2020-06-07T14:32:01Z</time>
      </trkpt>
      <trkpt lat="47.8812" lon="-3.6986">
        <ele>82.9</ele>
        <time>2020-06-07T14:32:02Z</time>
      </trkpt>
      <trkpt lat="47.88124" lon="-3.69861">
        <ele>83</ele>
        <time>2020-06-07T14:32:03Z</time>
      </trkpt>
      <trkpt lat="47.88128" lon="-3.69862">
        <ele>83.1</ele>
        <time>2020-06-07T14:32:04Z</time>
      </trkpt>
      <trkpt lat="47.88133" lon="-3.69863">
        <ele>83.2</ele>
        <time>2020-06-07T14:32:05Z</time>
      </trkpt>
      <trkpt lat="47.88137" lon="-3.69864">
        <ele>83.3</ele>
        <time>2020-06-07T14:32:06Z</time>
      </trkpt>
      <trkpt lat="47.88141" lon="-3.69865">
        <ele>83.4</ele>
        <time>2020-06-07T14:32:07Z</time>
      </trkpt>
      <trkpt lat="47.88146" lon="-3.69866">
        <ele>83.4</ele>
        <time>2020-06-07T14:32:08Z</time>
      </trkpt>
      <trkpt lat="47.88151" lon="-3.69866">
        <ele>83.5</ele>
        <time>2020-06-07T14:32:09Z</time>
      </trkpt>
      <trkpt lat="47.88155" lon="-3.69867">
        <ele>83.6</ele>
        <time>2020-06-07T14:32:10Z</time>
      </trkpt>
      <trkpt lat="47.88159" lon="-3.69869">
        <ele>83.7</ele>
        <time>2020-06-07T14:32:11Z</time>
      </trkpt>
      <trkpt lat="47.88163" lon="-3.69871">
        <ele>83.8</ele>
        <time>2020-06-07T14:32:12Z</time>
      </trkpt>
      <trkpt lat="47.88168" lon="-3.69872">
        <ele>83.9</ele>
        <time>2020-06-07T14:32:13Z</time>
      </trkpt>
      <trkpt lat="47.88173" lon="-3.69874">
        <ele>84</ele>
        <time>2020-06-07T14:32:14Z</time>
      </trkpt>
      <trkpt lat="47.88177" lon="-3.69876">
        <ele>84.1</ele>
        <time>2020-06-07T14:32:15Z</time>
      </trkpt>
      <trkpt lat="47.88181" lon="-3.69877">
        <ele>84.2</ele>
        <time>2020-06-07T14:32:16Z</time>
      </trkpt>
      <trkpt lat="47.88185" lon="-3.69878">
        <ele>84.3</ele>
        <time>2020-06-07T14:32:17Z</time>
      </trkpt>
      <trkpt lat="47.88189" lon="-3.69881">
        <ele>84.4</ele>
        <time>2020-06-07T14:32:18Z</time>
      </trkpt>
      <trkpt lat="47.88193" lon="-3.69883">
        <ele>84.5</ele>
        <time>2020-06-07T14:32:19Z</time>
      </trkpt>
      <trkpt lat="47.88197" lon="-3.69884">
        <ele>84.6</ele>
        <time>2020-06-07T14:32:20Z</time>
      </trkpt>
      <trkpt lat="47.88201" lon="-3.69886">
        <ele>84.7</ele>
        <time>2020-06-07T14:32:21Z</time>
      </trkpt>
      <trkpt lat="47.88205" lon="-3.69888">
        <ele>84.8</ele>
        <time>2020-06-07T14:32:22Z</time>
      </trkpt>
      <trkpt lat="47.88209" lon="-3.69889">
        <ele>84.9</ele>
        <time>2020-06-07T14:32:23Z</time>
      </trkpt>
      <trkpt lat="47.88212" lon="-3.69891">
        <ele>85</ele>
        <time>2020-06-07T14:32:24Z</time>
      </trkpt>
      <trkpt lat="47.88217" lon="-3.69893">
        <ele>85.1</ele>
        <time>2020-06-07T14:32:25Z</time>
      </trkpt>
      <trkpt lat="47.88222" lon="-3.69894">
        <ele>85.2</ele>
        <time>2020-06-07T14:32:26Z</time>
      </trkpt>
      <trkpt lat="47.88226" lon="-3.69895">
        <ele>85.2</ele>
        <time>2020-06-07T14:32:27Z</time>
      </trkpt>
      <trkpt lat="47.8823" lon="-3.69896">
        <ele>85.3</ele>
        <time>2020-06-07T14:32:28Z</time>
      </trkpt>
      <trkpt lat="47.88236" lon="-3.69897">
        <ele>85.4</ele>
        <time>2020-06-07T14:32:29Z</time>
      </trkpt>
      <trkpt lat="47.8824" lon="-3.69899">
        <ele>85.5</ele>
        <time>2020-06-07T14:32:30Z</time>
      </trkpt>
      <trkpt lat="47.88244" lon="-3.69901">
        <ele>85.6</ele>
        <time>2020-06-07T14:32:31Z</time>
      </trkpt>
      <trkpt lat="47.88248" lon="-3.69902">
        <ele>85.7</ele>
        <time>2020-06-07T14:32:32Z</time>
      </trkpt>
      <trkpt lat="47.88253" lon="-3.69903">
        <ele>85.8</ele>
        <time>2020-06-07T14:32:33Z</time>
      </trkpt>
      <trkpt lat="47.88257" lon="-3.69902">
        <ele>85.9</ele>
        <time>2020-06-07T14:32:34Z</time>
      </trkpt>
      <trkpt lat="47.88261" lon="-3.69902">
        <ele>86</ele>
        <time>2020-06-07T14:32:35Z</time>
      </trkpt>
      <trkpt lat="47.88264" lon="-3.69901">
        <ele>86</ele>
        <time>2020-06-07T14:32:36Z</time>
      </trkpt>
      <trkpt lat="47.88267" lon="-3.69898">
        <ele>86</ele>
        <time>2020-06-07T14:32:37Z</time>
      </trkpt>
      <trkpt lat="47.8827" lon="-3.69895">
        <ele>86.1</ele>
        <time>2020-06-07T14:32:38Z</time>
      </trkpt>
      <trkpt lat="47.88274" lon="-3.69892">
        <ele>86.1</ele>
        <time>2020-06-07T14:32:39Z</time>
      </trkpt>
      <trkpt lat="47.88276" lon="-3.6989">
        <ele>86.2</ele>
        <time>2020-06-07T14:32:40Z</time>
      </trkpt>
      <trkpt lat="47.88279" lon="-3.69891">
        <ele>86.2</ele>
        <time>2020-06-07T14:32:41Z</time>
      </trkpt>
      <trkpt lat="47.88282" lon="-3.6989">
        <ele>86.2</ele>
        <time>2020-06-07T14:32:42Z</time>
      </trkpt>
      <trkpt lat="47.88285" lon="-3.69892">
        <ele>86.2</ele>
        <time>2020-06-07T14:32:43Z</time>
      </trkpt>
      <trkpt lat="47.88289" lon="-3.69893">
        <ele>86.2</ele>
        <time>2020-06-07T14:32:44Z</time>
      </trkpt>
      <trkpt lat="47.88291" lon="-3.69895">
        <ele>86.1</ele>
        <time>2020-06-07T14:32:45Z</time>
      </trkpt>
      <trkpt lat="47.88293" lon="-3.69898">
        <ele>86.1</ele>
        <time>2020-06-07T14:32:46Z</time>
      </trkpt>
      <trkpt lat="47.88296" lon="-3.69904">
        <ele>86.1</ele>
        <time>2020-06-07T14:32:47Z</time>
      </trkpt>
      <trkpt lat="47.88297" lon="-3.69906">
        <ele>86.1</ele>
        <time>2020-06-07T14:32:48Z</time>
      </trkpt>
      <trkpt lat="47.88298" lon="-3.69912">
        <ele>86.1</ele>
        <time>2020-06-07T14:32:49Z</time>
      </trkpt>
      <trkpt lat="47.88299" lon="-3.69916">
        <ele>86.1</ele>
        <time>2020-06-07T14:32:50Z</time>
      </trkpt>
      <trkpt lat="47.883" lon="-3.6992">
        <ele>86</ele>
        <time>2020-06-07T14:32:51Z</time>
      </trkpt>
      <trkpt lat="47.883" lon="-3.69925">
        <ele>85.9</ele>
        <time>2020-06-07T14:32:52Z</time>
      </trkpt>
      <trkpt lat="47.88302" lon="-3.69929">
        <ele>85.8</ele>
        <time>2020-06-07T14:32:53Z</time>
      </trkpt>
      <trkpt lat="47.88303" lon="-3.6993">
        <ele>85.8</ele>
        <time>2020-06-07T14:32:54Z</time>
      </trkpt>
      <trkpt lat="47.88307" lon="-3.6993">
        <ele>85.7</ele>
        <time>2020-06-07T14:32:55Z</time>
      </trkpt>
      <trkpt lat="47.8831" lon="-3.69931">
        <ele>85.6</ele>
        <time>2020-06-07T14:32:56Z</time>
      </trkpt>
      <trkpt lat="47.88313" lon="-3.69932">
        <ele>85.6</ele>
        <time>2020-06-07T14:32:57Z</time>
      </trkpt>
      <trkpt lat="47.88315" lon="-3.69934">
        <ele>85.5</ele>
        <time>2020-06-07T14:32:58Z</time>
      </trkpt>
      <trkpt lat="47.88316" lon="-3.69935">
        <ele>85.5</ele>
        <time>2020-06-07T14:32:59Z</time>
      </trkpt>
      <trkpt lat="47.88316" lon="-3.69935">
        <ele>85.5</ele>
        <time>2020-06-07T14:33:00Z</time>
      </trkpt>
      <trkpt lat="47.88317" lon="-3.69936">
        <ele>85.5</ele>
        <time>2020-06-07T14:33:01Z</time>
      </trkpt>
      <trkpt lat="47.88317" lon="-3.69937">
        <ele>85.5</ele>
        <time>2020-06-07T14:33:02Z</time>
      </trkpt>
      <trkpt lat="47.88317" lon="-3.69937">
        <ele>85.5</ele>
        <time>2020-06-07T14:33:03Z</time>
      </trkpt>
      <trkpt lat="47.88318" lon="-3.69938">
        <ele>85.4</ele>
        <time>2020-06-07T14:33:04Z</time>
      </trkpt>
      <trkpt lat="47.88318" lon="-3.69938">
        <ele>85.4</ele>
        <time>2020-06-07T14:33:05Z</time>
      </trkpt>
      <trkpt lat="47.88319" lon="-3.69939">
        <ele>85.4</ele>
        <time>2020-06-07T14:33:06Z</time>
      </trkpt>
      <trkpt lat="47.88319" lon="-3.6994">
        <ele>85.4</ele>
        <time>2020-06-07T14:33:07Z</time>
      </trkpt>
      <trkpt lat="47.8832" lon="-3.6994">
        <ele>85.4</ele>
        <time>2020-06-07T14:33:08Z</time>
      </trkpt>
      <trkpt lat="47.8832" lon="-3.69941">
        <ele>85.4</ele>
        <time>2020-06-07T14:33:09Z</time>
      </trkpt>
      <trkpt lat="47.8832" lon="-3.69941">
        <ele>85.4</ele>
        <time>2020-06-07T14:37:00Z</time>
      </trkpt>
      <trkpt lat="47.88321" lon="-3.69942">
        <ele>85.4</ele>
        <time>2020-06-07T14:37:01Z</time>
      </trkpt>
      <trkpt lat="47.88324" lon="-3.69945">
        <ele>85.3</ele>
        <time>2020-06-07T14:37:02Z</time>
      </trkpt>
      <trkpt lat="47.88328" lon="-3.69948">
        <ele>85.2</ele>
        <time>2020-06-07T14:37:03Z</time>
      </trkpt>
      <trkpt lat="47.88332" lon="-3.69952">
        <ele>85.1</ele>
        <time>2020-06-07T14:37:04Z</time>
      </trkpt>
      <trkpt lat="47.88337" lon="-3.69956">
        <ele>85</ele>
        <time>2020-06-07T14:37:05Z</time>
      </trkpt>
      <trkpt lat="47.88342" lon="-3.69959">
        <ele>84.9</ele>
        <time>2020-06-07T14:37:06Z</time>
      </trkpt>
      <trkpt lat="47.88347" lon="-3.69961">
        <ele>84.8</ele>
        <time>2020-06-07T14:37:07Z</time>
      </trkpt>
      <trkpt lat="47.88351" lon="-3.69962">
        <ele>84.8</ele>
        <time>2020-06-07T14:37:08Z</time>
      </trkpt>
      <trkpt lat="47.88356" lon="-3.69964">
        <ele>84.7</ele>
        <time>2020-06-07T14:37:09Z</time>
      </trkpt>
      <trkpt lat="47.88361" lon="-3.69965">
        <ele>84.6</ele>
        <time>2020-06-07T14:37:10Z</time>
      </trkpt>
      <trkpt lat="47.88366" lon="-3.69968">
        <ele>84.5</ele>
        <time>2020-06-07T14:37:11Z</time>
      </trkpt>
      <trkpt lat="47.88374" lon="-3.69971">
        <ele>84.3</ele>
        <time>2020-06-07T14:37:12Z</time>
      </trkpt>
      <trkpt lat="47.88382" lon="-3.69974">
        <ele>84.2</ele>
        <time>2020-06-07T14:37:13Z</time>
      </trkpt>
      <trkpt lat="47.88389" lon="-3.69977">
        <ele>84.1</ele>
        <time>2020-06-07T14:37:14Z</time>
      </trkpt>
      <trkpt lat="47.88395" lon="-3.69982">
        <ele>84</ele>
        <time>2020-06-07T14:37:15Z</time>
      </trkpt>
      <trkpt lat="47.88402" lon="-3.69985">
        <ele>83.9</ele>
        <time>2020-06-07T14:37:16Z</time>
      </trkpt>
      <trkpt lat="47.88409" lon="-3.69989">
        <ele>83.8</ele>
        <time>2020-06-07T14:37:17Z</time>
      </trkpt>
      <trkpt lat="47.88415" lon="-3.69992">
        <ele>83.6</ele>
        <time>2020-06-07T14:37:18Z</time>
      </trkpt>
      <trkpt lat="47.88423" lon="-3.69995">
        <ele>83.5</ele>
        <time>2020-06-07T14:37:19Z</time>
      </trkpt>
      <trkpt lat="47.88429" lon="-3.69997">
        <ele>83.4</ele>
        <time>2020-06-07T14:37:20Z</time>
      </trkpt>
      <trkpt lat="47.88436" lon="-3.70001">
        <ele>83.3</ele>
        <time>2020-06-07T14:37:21Z</time>
      </trkpt>
      <trkpt lat="47.88442" lon="-3.70004">
        <ele>83.2</ele>
        <time>2020-06-07T14:37:22Z</time>
      </trkpt>
      <trkpt lat="47.8845" lon="-3.70007">
        <ele>83.1</ele>
        <time>2020-06-07T14:37:23Z</time>
      </trkpt>
      <trkpt lat="47.88457" lon="-3.7001">
        <ele>83</ele>
        <time>2020-06-07T14:37:24Z</time>
      </trkpt>
      <trkpt lat="47.88464" lon="-3.70014">
        <ele>83</ele>
        <time>2020-06-07T14:37:25Z</time>
      </trkpt>
      <trkpt lat="47.8847" lon="-3.70016">
        <ele>82.9</ele>
        <time>2020-06-07T14:37:26Z</time>
      </trkpt>
      <trkpt lat="47.88477" lon="-3.70019">
        <ele>82.9</ele>
        <time>2020-06-07T14:37:27Z</time>
      </trkpt>
      <trkpt lat="47.88484" lon="-3.70022">
        <ele>82.9</ele>
        <time>2020-06-07T14:37:28Z</time>
      </trkpt>
      <trkpt lat="47.8849" lon="-3.70025">
        <ele>82.9</ele>
        <time>2020-06-07T14:37:29Z</time>
      </trkpt>
      <trkpt lat="47.88497" lon="-3.70028">
        <ele>82.9</ele>
        <time>2020-06-07T14:37:30Z</time>
      </trkpt>
      <trkpt lat="47.88504" lon="-3.7003">
        <ele>82.9</ele>
        <time>2020-06-07T14:37:31Z</time>
      </trkpt>
      <trkpt lat="47.88512" lon="-3.70033">
        <ele>82.9</ele>
        <time>2020-06-07T14:37:32Z</time>
      </trkpt>
      <trkpt lat="47.88519" lon="-3.70035">
        <ele>82.9</ele>
        <time>2020-06-07T14:37:33Z</time>
      </trkpt>
      <trkpt lat="47.88526" lon="-3.70038">
        <ele>82.9</ele>
        <time>2020-06-07T14:37:34Z</time>
      </trkpt>
      <trkpt lat="47.88533" lon="-3.7004">
        <ele>83</ele>
        <time>2020-06-07T14:37:35Z</time>
      </trkpt>
      <trkpt lat="47.8854" lon="-3.70041">
        <ele>83.1</ele>
        <time>2020-06-07T14:37:36Z</time>
      </trkpt>
      <trkpt lat="47.88547" lon="-3.70041">
        <ele>83.2</ele>
        <time>2020-06-07T14:37:37Z</time>
      </trkpt>
      <trkpt lat="47.88553" lon="-3.70042">
        <ele>83.3</ele>
        <time>2020-06-07T14:37:38Z</time>
      </trkpt>
      <trkpt lat="47.8856" lon="-3.70043">
        <ele>83.5</ele>
        <time>2020-06-07T14:37:39Z</time>
      </trkpt>
      <trkpt lat="47.88566" lon="-3.70042">
        <ele>83.6</ele>
        <time>2020-06-07T14:37:40Z</time>
      </trkpt>
      <trkpt lat="47.88572" lon="-3.70043">
        <ele>83.7</ele>
        <time>2020-06-07T14:37:41Z</time>
      </trkpt>
      <trkpt lat="47.88578" lon="-3.70044">
        <ele>83.9</ele>
        <time>2020-06-07T14:37:42Z</time>
      </trkpt>
      <trkpt lat="47.88584" lon="-3.70044">
        <ele>84</ele>
        <time>2020-06-07T14:37:43Z</time>
      </trkpt>
      <trkpt lat="47.8859" lon="-3.70043">
        <ele>84.2</ele>
        <time>2020-06-07T14:37:44Z</time>
      </trkpt>
      <trkpt lat="47.88595" lon="-3.70043">
        <ele>84.3</ele>
        <time>2020-06-07T14:37:45Z</time>
      </trkpt>
      <trkpt lat="47.88601" lon="-3.70044">
        <ele>84.5</ele>
        <time>2020-06-07T14:37:46Z</time>
      </trkpt>
      <trkpt lat="47.88607" lon="-3.70045">
        <ele>84.6</ele>
        <time>2020-06-07T14:37:47Z</time>
      </trkpt>
      <trkpt lat="47.88612" lon="-3.70043">
        <ele>84.8</ele>
        <time>2020-06-07T14:37:48Z</time>
      </trkpt>
      <trkpt lat="47.88618" lon="-3.70044">
        <ele>84.9</ele>
        <time>2020-06-07T14:37:49Z</time>
      </trkpt>
      <trkpt lat="47.88623" lon="-3.70044">
        <ele>85.2</ele>
        <time>2020-06-07T14:37:50Z</time>
      </trkpt>
      <trkpt lat="47.88628" lon="-3.70045">
        <ele>85.6</ele>
        <time>2020-06-07T14:37:51Z</time>
      </trkpt>
      <trkpt lat="47.88634" lon="-3.70046">
        <ele>85.9</ele>
        <time>2020-06-07T14:37:52Z</time>
      </trkpt>
      <trkpt lat="47.88639" lon="-3.70047">
        <ele>86.2</ele>
        <time>2020-06-07T14:37:53Z</time>
      </trkpt>
      <trkpt lat="47.88644" lon="-3.70047">
        <ele>86.4</ele>
        <time>2020-06-07T14:37:54Z</time>
      </trkpt>
      <trkpt lat="47.88649" lon="-3.70048">
        <ele>86.5</ele>
        <time>2020-06-07T14:37:55Z</time>
      </trkpt>
      <trkpt lat="47.88653" lon="-3.70049">
        <ele>86.6</ele>
        <time>2020-06-07T14:37:56Z</time>
      </trkpt>
      <trkpt lat="47.88658" lon="-3.7005">
        <ele>86.7</ele>
        <time>2020-06-07T14:37:57Z</time>
      </trkpt>
      <trkpt lat="47.88663" lon="-3.7005">
        <ele>86.8</ele>
        <time>2020-06-07T14:37:58Z</time>
      </trkpt>
      <trkpt lat="47.88667" lon="-3.7005">
        <ele>86.9</ele>
        <time>2020-06-07T14:37:59Z</time>
      </trkpt>
      <trkpt lat="47.88671" lon="-3.70051">
        <ele>87</ele>
        <time>2020-06-07T14:38:00Z</time>
      </trkpt>
      <trkpt lat="47.88675" lon="-3.7005">
        <ele>87</ele>
        <time>2020-06-07T14:38:01Z</time>
      </trkpt>
      <trkpt lat="47.8868" lon="-3.70049">
        <ele>87.1</ele>
        <time>2020-06-07T14:38:02Z</time>
      </trkpt>
      <trkpt lat="47.88684" lon="-3.70049">
        <ele>87.1</ele>
        <time>2020-06-07T14:38:03Z</time>
      </trkpt>
      <trkpt lat="47.88687" lon="-3.70049">
        <ele>87.2</ele>
        <time>2020-06-07T14:38:04Z</time>
      </trkpt>
      <trkpt lat="47.88692" lon="-3.70049">
        <ele>87.2</ele>
        <time>2020-06-07T14:38:05Z</time>
      </trkpt>
      <trkpt lat="47.88695" lon="-3.70049">
        <ele>87.2</ele>
        <time>2020-06-07T14:38:06Z</time>
      </trkpt>
      <trkpt lat="47.887" lon="-3.70049">
        <ele>87.2</ele>
        <time>2020-06-07T14:38:07Z</time>
      </trkpt>
      <trkpt lat="47.88704" lon="-3.70049">
        <ele>87.2</ele>
        <time>2020-06-07T14:38:08Z</time>
      </trkpt>
      <trkpt lat="47.88708" lon="-3.7005">
        <ele>87.2</ele>
        <time>2020-06-07T14:38:09Z</time>
      </trkpt>
      <trkpt lat="47.88713" lon="-3.70049">
        <ele>87.2</ele>
        <time>2020-06-07T14:38:10Z</time>
      </trkpt>
      <trkpt lat="47.88717" lon="-3.70049">
        <ele>87.2</ele>
        <time>2020-06-07T14:38:11Z</time>
      </trkpt>
      <trkpt lat="47.88722" lon="-3.7005">
        <ele>87.2</ele>
        <time>2020-06-07T14:38:12Z</time>
      </trkpt>
      <trkpt lat="47.88726" lon="-3.70051">
        <ele>87.2</ele>
        <time>2020-06-07T14:38:13Z</time>
      </trkpt>
      <trkpt lat="47.88731" lon="-3.70052">
        <ele>87.2</ele>
        <time>2020-06-07T14:38:14Z</time>
      </trkpt>
      <trkpt lat="47.88736" lon="-3.70052">
        <ele>87.2</ele>
        <time>2020-06-07T14:38:15Z</time>
      </trkpt>
      <trkpt lat="47.88742" lon="-3.70052">
        <ele>87.2</ele>
        <time>2020-06-07T14:38:16Z</time>
      </trkpt>
      <trkpt lat="47.88747" lon="-3.70051">
        <ele>87.2</ele>
        <time>2020-06-07T14:38:17Z</time>
      </trkpt>
      <trkpt lat="47.88754" lon="-3.70052">
        <ele>87.2</ele>
        <time>2020-06-07T14:38:18Z</time>
      </trkpt>
      <trkpt lat="47.8876" lon="-3.70053">
        <ele>87.2</ele>
        <time>2020-06-07T14:38:19Z</time>
      </trkpt>
      <trkpt lat="47.88766" lon="-3.70055">
        <ele>87.2</ele>
        <time>2020-06-07T14:38:20Z</time>
      </trkpt>
      <trkpt lat="47.88772" lon="-3.70056">
        <ele>87.2</ele>
        <time>2020-06-07T14:38:21Z</time>
      </trkpt>
      <trkpt lat="47.88778" lon="-3.70058">
        <ele>87.2</ele>
        <time>2020-06-07T14:38:22Z</time>
      </trkpt>
      <trkpt lat="47.88784" lon="-3.7006">
        <ele>87.2</ele>
        <time>2020-06-07T14:38:23Z</time>
      </trkpt>
      <trkpt lat="47.8879" lon="-3.70063">
        <ele>87</ele>
        <time>2020-06-07T14:38:24Z</time>
      </trkpt>
      <trkpt lat="47.88796" lon="-3.70065">
        <ele>86.9</ele>
        <time>2020-06-07T14:38:25Z</time>
      </trkpt>
      <trkpt lat="47.88802" lon="-3.70066">
        <ele>86.9</ele>
        <time>2020-06-07T14:38:26Z</time>
      </trkpt>
      <trkpt lat="47.88808" lon="-3.70068">
        <ele>86.8</ele>
        <time>2020-06-07T14:38:27Z</time>
      </trkpt>
      <trkpt lat="47.88814" lon="-3.70071">
        <ele>86.7</ele>
        <time>2020-06-07T14:38:28Z</time>
      </trkpt>
      <trkpt lat="47.8882" lon="-3.70073">
        <ele>86.6</ele>
        <time>2020-06-07T14:38:29Z</time>
      </trkpt>
      <trkpt lat="47.88828" lon="-3.70075">
        <ele>86.5</ele>
        <time>2020-06-07T14:38:30Z</time>
      </trkpt>
      <trkpt lat="47.88834" lon="-3.70077">
        <ele>86.4</ele>
        <time>2020-06-07T14:38:31Z</time>
      </trkpt>
      <trkpt lat="47.8884" lon="-3.70079">
        <ele>86.3</ele>
        <time>2020-06-07T14:38:32Z</time>
      </trkpt>
      <trkpt lat="47.88848" lon="-3.70081">
        <ele>86.2</ele>
        <time>2020-06-07T14:38:33Z</time>
      </trkpt>
      <trkpt lat="47.88854" lon="-3.70083">
        <ele>86.1</ele>
        <time>2020-06-07T14:38:34Z</time>
      </trkpt>
      <trkpt lat="47.88861" lon="-3.70085">
        <ele>86</ele>
        <time>2020-06-07T14:38:35Z</time>
      </trkpt>
      <trkpt lat="47.88868" lon="-3.70088">
        <ele>85.9</ele>
        <time>2020-06-07T14:38:36Z</time>
      </trkpt>
      <trkpt lat="47.88875" lon="-3.70091">
        <ele>85.9</ele>
        <time>2020-06-07T14:38:37Z</time>
      </trkpt>
      <trkpt lat="47.88881" lon="-3.70093">
        <ele>85.8</ele>
        <time>2020-06-07T14:38:38Z</time>
      </trkpt>
      <trkpt lat="47.88888" lon="-3.70095">
        <ele>85.8</ele>
        <time>2020-06-07T14:38:39Z</time>
      </trkpt>
      <trkpt lat="47.88894" lon="-3.70097">
        <ele>85.7</ele>
        <time>2020-06-07T14:38:40Z</time>
      </trkpt>
      <trkpt lat="47.88901" lon="-3.70099">
        <ele>85.7</ele>
        <time>2020-06-07T14:38:41Z</time>
      </trkpt>
      <trkpt lat="47.88908" lon="-3.70101">
        <ele>85.7</ele>
        <time>2020-06-07T14:38:42Z</time>
      </trkpt>
      <trkpt lat="47.88914" lon="-3.70103">
        <ele>85.6</ele>
        <time>2020-06-07T14:38:43Z</time>
      </trkpt>
      <trkpt lat="47.88921" lon="-3.70103">
        <ele>85.5</ele>
        <time>2020-06-07T14:38:44Z</time>
      </trkpt>
      <trkpt lat="47.88927" lon="-3.70102">
        <ele>85.4</ele>
        <time>2020-06-07T14:38:45Z</time>
      </trkpt>
      <trkpt lat="47.88933" lon="-3.70102">
        <ele>85.4</ele>
        <time>2020-06-07T14:38:46Z</time>
      </trkpt>
      <trkpt lat="47.88939" lon="-3.70103">
        <ele>85.3</ele>
        <time>2020-06-07T14:38:47Z</time>
      </trkpt>
      <trkpt lat="47.88945" lon="-3.70105">
        <ele>85.2</ele>
        <time>2020-06-07T14:38:48Z</time>
      </trkpt>
      <trkpt lat="47.8895" lon="-3.70106">
        <ele>85.2</ele>
        <time>2020-06-07T14:38:49Z</time>
      </trkpt>
      <trkpt lat="47.88957" lon="-3.70106">
        <ele>85.1</ele>
        <time>2020-06-07T14:38:50Z</time>
      </trkpt>
      <trkpt lat="47.88963" lon="-3.70106">
        <ele>85</ele>
        <time>2020-06-07T14:38:51Z</time>
      </trkpt>
      <trkpt lat="47.88969" lon="-3.70105">
        <ele>84.9</ele>
        <time>2020-06-07T14:38:52Z</time>
      </trkpt>
      <trkpt lat="47.88975" lon="-3.70106">
        <ele>84.8</ele>
        <time>2020-06-07T14:38:53Z</time>
      </trkpt>
      <trkpt lat="47.88981" lon="-3.70106">
        <ele>84.7</ele>
        <time>2020-06-07T14:38:54Z</time>
      </trkpt>
      <trkpt lat="47.88987" lon="-3.70106">
        <ele>84.6</ele>
        <time>2020-06-07T14:38:55Z</time>
      </trkpt>
      <trkpt lat="47.88993" lon="-3.70105">
        <ele>84.4</ele>
        <time>2020-06-07T14:38:56Z</time>
      </trkpt>
      <trkpt lat="47.89" lon="-3.70105">
        <ele>84.3</ele>
        <time>2020-06-07T14:38:57Z</time>
      </trkpt>
      <trkpt lat="47.89007" lon="-3.70104">
        <ele>84.1</ele>
        <time>2020-06-07T14:38:58Z</time>
      </trkpt>
      <trkpt lat="47.89014" lon="-3.70102">
        <ele>84</ele>
        <time>2020-06-07T14:38:59Z</time>
      </trkpt>
      <trkpt lat="47.89021" lon="-3.701">
        <ele>83.9</ele>
        <time>2020-06-07T14:39:00Z</time>
      </trkpt>
      <trkpt lat="47.89028" lon="-3.70098">
        <ele>83.7</ele>
        <time>2020-06-07T14:39:01Z</time>
      </trkpt>
      <trkpt lat="47.89035" lon="-3.70098">
        <ele>83.7</ele>
        <time>2020-06-07T14:39:02Z</time>
      </trkpt>
      <trkpt lat="47.89042" lon="-3.70098">
        <ele>83.5</ele>
        <time>2020-06-07T14:39:03Z</time>
      </trkpt>
      <trkpt lat="47.8905" lon="-3.70097">
        <ele>83.3</ele>
        <time>2020-06-07T14:39:04Z</time>
      </trkpt>
      <trkpt lat="47.89057" lon="-3.70096">
        <ele>83.1</ele>
        <time>2020-06-07T14:39:05Z</time>
      </trkpt>
      <trkpt lat="47.89065" lon="-3.70095">
        <ele>82.9</ele>
        <time>2020-06-07T14:39:06Z</time>
      </trkpt>
      <trkpt lat="47.89073" lon="-3.70093">
        <ele>82.8</ele>
        <time>2020-06-07T14:39:07Z</time>
      </trkpt>
      <trkpt lat="47.89081" lon="-3.70091">
        <ele>82.6</ele>
        <time>2020-06-07T14:39:08Z</time>
      </trkpt>
      <trkpt lat="47.89089" lon="-3.70089">
        <ele>82.5</ele>
        <time>2020-06-07T14:39:09Z</time>
      </trkpt>
      <trkpt lat="47.89097" lon="-3.70089">
        <ele>82.4</ele>
        <time>2020-06-07T14:39:10Z</time>
      </trkpt>
      <trkpt lat="47.89105" lon="-3.70088">
        <ele>82.2</ele>
        <time>2020-06-07T14:39:11Z</time>
      </trkpt>
      <trkpt lat="47.89113" lon="-3.70087">
        <ele>82.2</ele>
        <time>2020-06-07T14:39:12Z</time>
      </trkpt>
      <trkpt lat="47.8912" lon="-3.70087">
        <ele>82.1</ele>
        <time>2020-06-07T14:39:13Z</time>
      </trkpt>
      <trkpt lat="47.89128" lon="-3.70086">
        <ele>82.1</ele>
        <time>2020-06-07T14:39:14Z</time>
      </trkpt>
      <trkpt lat="47.89136" lon="-3.70087">
        <ele>82.1</ele>
        <time>2020-06-07T14:39:15Z</time>
      </trkpt>
      <trkpt lat="47.89143" lon="-3.70085">
        <ele>82</ele>
        <time>2020-06-07T14:39:16Z</time>
      </trkpt>
      <trkpt lat="47.89149" lon="-3.70084">
        <ele>82</ele>
        <time>2020-06-07T14:39:17Z</time>
      </trkpt>
      <trkpt lat="47.89156" lon="-3.70081">
        <ele>82</ele>
        <time>2020-06-07T14:39:18Z</time>
      </trkpt>
      <trkpt lat="47.89164" lon="-3.70081">
        <ele>82</ele>
        <time>2020-06-07T14:39:19Z</time>
      </trkpt>
      <trkpt lat="47.89171" lon="-3.70079">
        <ele>82</ele>
        <time>2020-06-07T14:39:20Z</time>
      </trkpt>
      <trkpt lat="47.89178" lon="-3.70079">
        <ele>82.1</ele>
        <time>2020-06-07T14:39:21Z</time>
      </trkpt>
      <trkpt lat="47.89185" lon="-3.70078">
        <ele>82</ele>
        <time>2020-06-07T14:39:22Z</time>
      </trkpt>
      <trkpt lat="47.89192" lon="-3.70077">
        <ele>82</ele>
        <time>2020-06-07T14:39:23Z</time>
      </trkpt>
      <trkpt lat="47.89199" lon="-3.70076">
        <ele>82</ele>
        <time>2020-06-07T14:39:24Z</time>
      </trkpt>
      <trkpt lat="47.89206" lon="-3.70075">
        <ele>82</ele>
        <time>2020-06-07T14:39:25Z</time>
      </trkpt>
      <trkpt lat="47.89213" lon="-3.70074">
        <ele>82</ele>
        <time>2020-06-07T14:39:26Z</time>
      </trkpt>
      <trkpt lat="47.8922" lon="-3.70074">
        <ele>82</ele>
        <time>2020-06-07T14:39:27Z</time>
      </trkpt>
      <trkpt lat="47.89227" lon="-3.70074">
        <ele>82</ele>
        <time>2020-06-07T14:39:28Z</time>
      </trkpt>
      <trkpt lat="47.89234" lon="-3.70073">
        <ele>82.1</ele>
        <time>2020-06-07T14:39:29Z</time>
      </trkpt>
      <trkpt lat="47.89241" lon="-3.70072">
        <ele>82.1</ele>
        <time>2020-06-07T14:39:30Z</time>
      </trkpt>
      <trkpt lat="47.89247" lon="-3.70072">
        <ele>81.9</ele>
        <time>2020-06-07T14:39:31Z</time>
      </trkpt>
      <trkpt lat="47.89253" lon="-3.70072">
        <ele>81.6</ele>
        <time>2020-06-07T14:39:32Z</time>
      </trkpt>
      <trkpt lat="47.8926" lon="-3.7007">
        <ele>81.4</ele>
        <time>2020-06-07T14:39:33Z</time>
      </trkpt>
      <trkpt lat="47.89266" lon="-3.7007">
        <ele>81.2</ele>
        <time>2020-06-07T14:39:34Z</time>
      </trkpt>
      <trkpt lat="47.89272" lon="-3.70069">
        <ele>81.1</ele>
        <time>2020-06-07T14:39:35Z</time>
      </trkpt>
      <trkpt lat="47.89279" lon="-3.70067">
        <ele>81</ele>
        <time>2020-06-07T14:39:36Z</time>
      </trkpt>
      <trkpt lat="47.89286" lon="-3.70066">
        <ele>80.9</ele>
        <time>2020-06-07T14:39:37Z</time>
      </trkpt>
      <trkpt lat="47.89293" lon="-3.70066">
        <ele>80.9</ele>
        <time>2020-06-07T14:39:38Z</time>
      </trkpt>
      <trkpt lat="47.89299" lon="-3.70065">
        <ele>80.8</ele>
        <time>2020-06-07T14:39:39Z</time>
      </trkpt>
      <trkpt lat="47.89306" lon="-3.70065">
        <ele>80.8</ele>
        <time>2020-06-07T14:39:40Z</time>
      </trkpt>
      <trkpt lat="47.89312" lon="-3.70064">
        <ele>80.8</ele>
        <time>2020-06-07T14:39:41Z</time>
      </trkpt>
      <trkpt lat="47.89319" lon="-3.70064">
        <ele>80.8</ele>
        <time>2020-06-07T14:39:42Z</time>
      </trkpt>
      <trkpt lat="47.89325" lon="-3.70064">
        <ele>80.9</ele>
        <time>2020-06-07T14:39:43Z</time>
      </trkpt>
      <trkpt lat="47.89332" lon="-3.70063">
        <ele>80.9</ele>
        <time>2020-06-07T14:39:44Z</time>
      </trkpt>
      <trkpt lat="47.89338" lon="-3.70062">
        <ele>81</ele>
        <time>2020-06-07T14:39:45Z</time>
      </trkpt>
      <trkpt lat="47.89344" lon="-3.70061">
        <ele>81</ele>
        <time>2020-06-07T14:39:46Z</time>
      </trkpt>
      <trkpt lat="47.89351" lon="-3.70059">
        <ele>81.1</ele>
        <time>2020-06-07T14:39:47Z</time>
      </trkpt>
      <trkpt lat="47.89357" lon="-3.70058">
        <ele>81.2</ele>
        <time>2020-06-07T14:39:48Z</time>
      </trkpt>
      <trkpt lat="47.89364" lon="-3.70056">
        <ele>81.3</ele>
        <time>2020-06-07T14:39:49Z</time>
      </trkpt>
      <trkpt lat="47.89371" lon="-3.70054">
        <ele>81.4</ele>
        <time>2020-06-07T14:39:50Z</time>
      </trkpt>
      <trkpt lat="47.89377" lon="-3.70053">
        <ele>81.6</ele>
        <time>2020-06-07T14:39:51Z</time>
      </trkpt>
      <trkpt lat="47.89384" lon="-3.70053">
        <ele>81.8</ele>
        <time>2020-06-07T14:39:52Z</time>
      </trkpt>
      <trkpt lat="47.8939" lon="-3.70052">
        <ele>82</ele>
        <time>2020-06-07T14:39:53Z</time>
      </trkpt>
      <trkpt lat="47.89397" lon="-3.70052">
        <ele>82.3</ele>
        <time>2020-06-07T14:39:54Z</time>
      </trkpt>
      <trkpt lat="47.89405" lon="-3.70051">
        <ele>82.6</ele>
        <time>2020-06-07T14:39:55Z</time>
      </trkpt>
      <trkpt lat="47.89412" lon="-3.7005">
        <ele>83</ele>
        <time>2020-06-07T14:39:56Z</time>
      </trkpt>
      <trkpt lat="47.89419" lon="-3.7005">
        <ele>83.3</ele>
        <time>2020-06-07T14:39:57Z</time>
      </trkpt>
      <trkpt lat="47.89424" lon="-3.70049">
        <ele>83.6</ele>
        <time>2020-06-07T14:39:58Z</time>
      </trkpt>
      <trkpt lat="47.8943" lon="-3.70048">
        <ele>83.9</ele>
        <time>2020-06-07T14:39:59Z</time>
      </trkpt>
      <trkpt lat="47.89436" lon="-3.70046">
        <ele>84.2</ele>
        <time>2020-06-07T14:40:00Z</time>
      </trkpt>
      <trkpt lat="47.8944" lon="-3.70046">
        <ele>84.4</ele>
        <time>2020-06-07T14:40:01Z</time>
      </trkpt>
      <trkpt lat="47.89445" lon="-3.70046">
        <ele>84.7</ele>
        <time>2020-06-07T14:40:02Z</time>
      </trkpt>
      <trkpt lat="47.8945" lon="-3.70045">
        <ele>84.9</ele>
        <time>2020-06-07T14:40:03Z</time>
      </trkpt>
      <trkpt lat="47.89455" lon="-3.70045">
        <ele>85.2</ele>
        <time>2020-06-07T14:40:04Z</time>
      </trkpt>
      <trkpt lat="47.89459" lon="-3.70043">
        <ele>85.4</ele>
        <time>2020-06-07T14:40:05Z</time>
      </trkpt>
      <trkpt lat="47.89464" lon="-3.70042">
        <ele>85.6</ele>
        <time>2020-06-07T14:40:06Z</time>
      </trkpt>
      <trkpt lat="47.89468" lon="-3.70041">
        <ele>85.8</ele>
        <time>2020-06-07T14:40:07Z</time>
      </trkpt>
      <trkpt lat="47.89474" lon="-3.7004">
        <ele>86.1</ele>
        <time>2020-06-07T14:40:08Z</time>
      </trkpt>
      <trkpt lat="47.89479" lon="-3.70039">
        <ele>86.3</ele>
        <time>2020-06-07T14:40:09Z</time>
      </trkpt>
      <trkpt lat="47.89483" lon="-3.70038">
        <ele>86.5</ele>
        <time>2020-06-07T14:40:10Z</time>
      </trkpt>
      <trkpt lat="47.89487" lon="-3.70037">
        <ele>86.7</ele>
        <time>2020-06-07T14:40:11Z</time>
      </trkpt>
      <trkpt lat="47.89491" lon="-3.70036">
        <ele>86.9</ele>
        <time>2020-06-07T14:40:12Z</time>
      </trkpt>
      <trkpt lat="47.89495" lon="-3.70036">
        <ele>87</ele>
        <time>2020-06-07T14:40:13Z</time>
      </trkpt>
      <trkpt lat="47.89499" lon="-3.70036">
        <ele>87.2</ele>
        <time>2020-06-07T14:40:14Z</time>
      </trkpt>
      <trkpt lat="47.89503" lon="-3.70035">
        <ele>87.4</ele>
        <time>2020-06-07T14:40:15Z</time>
      </trkpt>
      <trkpt lat="47.89508" lon="-3.70035">
        <ele>87.6</ele>
        <time>2020-06-07T14:40:16Z</time>
      </trkpt>
      <trkpt lat="47.89512" lon="-3.70034">
        <ele>87.9</ele>
        <time>2020-06-07T14:40:17Z</time>
      </trkpt>
      <trkpt lat="47.89517" lon="-3.70034">
        <ele>88.1</ele>
        <time>2020-06-07T14:40:18Z</time>
      </trkpt>
      <trkpt lat="47.89522" lon="-3.70033">
        <ele>88.4</ele>
        <time>2020-06-07T14:40:19Z</time>
      </trkpt>
      <trkpt lat="47.89525" lon="-3.70032">
        <ele>88.5</ele>
        <time>2020-06-07T14:40:20Z</time>
      </trkpt>
      <trkpt lat="47.89529" lon="-3.70031">
        <ele>88.7</ele>
        <time>2020-06-07T14:40:21Z</time>
      </trkpt>
      <trkpt lat="47.89533" lon="-3.7003">
        <ele>88.9</ele>
        <time>2020-06-07T14:40:22Z</time>
      </trkpt>
      <trkpt lat="47.89537" lon="-3.70029">
        <ele>89</ele>
        <time>2020-06-07T14:40:23Z</time>
      </trkpt>
      <trkpt lat="47.89541" lon="-3.70028">
        <ele>89.2</ele>
        <time>2020-06-07T14:40:24Z</time>
      </trkpt>
      <trkpt lat="47.89545" lon="-3.70028">
        <ele>89.4</ele>
        <time>2020-06-07T14:40:25Z</time>
      </trkpt>
      <trkpt lat="47.8955" lon="-3.70027">
        <ele>89.5</ele>
        <time>2020-06-07T14:40:26Z</time>
      </trkpt>
      <trkpt lat="47.89554" lon="-3.70026">
        <ele>89.7</ele>
        <time>2020-06-07T14:40:27Z</time>
      </trkpt>
      <trkpt lat="47.89558" lon="-3.70025">
        <ele>89.9</ele>
        <time>2020-06-07T14:40:28Z</time>
      </trkpt>
      <trkpt lat="47.89562" lon="-3.70024">
        <ele>90</ele>
        <time>2020-06-07T14:40:29Z</time>
      </trkpt>
      <trkpt lat="47.89566" lon="-3.70024">
        <ele>90.2</ele>
        <time>2020-06-07T14:40:30Z</time>
      </trkpt>
      <trkpt lat="47.89571" lon="-3.70023">
        <ele>90.4</ele>
        <time>2020-06-07T14:40:31Z</time>
      </trkpt>
      <trkpt lat="47.89576" lon="-3.70022">
        <ele>90.6</ele>
        <time>2020-06-07T14:40:32Z</time>
      </trkpt>
      <trkpt lat="47.89581" lon="-3.70021">
        <ele>90.8</ele>
        <time>2020-06-07T14:40:33Z</time>
      </trkpt>
      <trkpt lat="47.89584" lon="-3.70021">
        <ele>90.9</ele>
        <time>2020-06-07T14:40:34Z</time>
      </trkpt>
      <trkpt lat="47.89589" lon="-3.7002">
        <ele>91.1</ele>
        <time>2020-06-07T14:40:35Z</time>
      </trkpt>
      <trkpt lat="47.89594" lon="-3.7002">
        <ele>91.3</ele>
        <time>2020-06-07T14:40:36Z</time>
      </trkpt>
      <trkpt lat="47.89597" lon="-3.70019">
        <ele>91.4</ele>
        <time>2020-06-07T14:40:37Z</time>
      </trkpt>
      <trkpt lat="47.89602" lon="-3.70017">
        <ele>91.5</ele>
        <time>2020-06-07T14:40:38Z</time>
      </trkpt>
      <trkpt lat="47.89605" lon="-3.70017">
        <ele>91.6</ele>
        <time>2020-06-07T14:40:39Z</time>
      </trkpt>
      <trkpt lat="47.89609" lon="-3.70016">
        <ele>91.7</ele>
        <time>2020-06-07T14:40:40Z</time>
      </trkpt>
      <trkpt lat="47.89614" lon="-3.70015">
        <ele>91.8</ele>
        <time>2020-06-07T14:40:41Z</time>
      </trkpt>
      <trkpt lat="47.89618" lon="-3.70014">
        <ele>91.9</ele>
        <time>2020-06-07T14:40:42Z</time>
      </trkpt>
      <trkpt lat="47.89623" lon="-3.70013">
        <ele>92.1</ele>
        <time>2020-06-07T14:40:43Z</time>
      </trkpt>
      <trkpt lat="47.89627" lon="-3.70013">
        <ele>92.2</ele>
        <time>2020-06-07T14:40:44Z</time>
      </trkpt>
      <trkpt lat="47.89632" lon="-3.70013">
        <ele>92.2</ele>
        <time>2020-06-07T14:40:45Z</time>
      </trkpt>
      <trkpt lat="47.89636" lon="-3.70013">
        <ele>92.3</ele>
        <time>2020-06-07T14:40:46Z</time>
      </trkpt>
      <trkpt lat="47.89641" lon="-3.70013">
        <ele>92.4</ele>
        <time>2020-06-07T14:40:47Z</time>
      </trkpt>
      <trkpt lat="47.89646" lon="-3.70013">
        <ele>92.4</ele>
        <time>2020-06-07T14:40:48Z</time>
      </trkpt>
      <trkpt lat="47.89651" lon="-3.70012">
        <ele>92.5</ele>
        <time>2020-06-07T14:40:49Z</time>
      </trkpt>
      <trkpt lat="47.89655" lon="-3.70012">
        <ele>92.6</ele>
        <time>2020-06-07T14:40:50Z</time>
      </trkpt>
      <trkpt lat="47.8966" lon="-3.70011">
        <ele>92.6</ele>
        <time>2020-06-07T14:40:51Z</time>
      </trkpt>
      <trkpt lat="47.89666" lon="-3.70011">
        <ele>92.7</ele>
        <time>2020-06-07T14:40:52Z</time>
      </trkpt>
      <trkpt lat="47.89671" lon="-3.70011">
        <ele>92.8</ele>
        <time>2020-06-07T14:40:53Z</time>
      </trkpt>
      <trkpt lat="47.89675" lon="-3.7001">
        <ele>92.9</ele>
        <time>2020-06-07T14:40:54Z</time>
      </trkpt>
      <trkpt lat="47.89679" lon="-3.7001">
        <ele>92.9</ele>
        <time>2020-06-07T14:40:55Z</time>
      </trkpt>
      <trkpt lat="47.89683" lon="-3.70009">
        <ele>93</ele>
        <time>2020-06-07T14:40:56Z</time>
      </trkpt>
      <trkpt lat="47.8969" lon="-3.7001">
        <ele>93.1</ele>
        <time>2020-06-07T14:40:57Z</time>
      </trkpt>
      <trkpt lat="47.89693" lon="-3.7001">
        <ele>93.1</ele>
        <time>2020-06-07T14:40:58Z</time>
      </trkpt>
      <trkpt lat="47.89698" lon="-3.70009">
        <ele>93.2</ele>
        <time>2020-06-07T14:40:59Z</time>
      </trkpt>
      <trkpt lat="47.89702" lon="-3.70009">
        <ele>93.2</ele>
        <time>2020-06-07T14:41:00Z</time>
      </trkpt>
      <trkpt lat="47.89706" lon="-3.70008">
        <ele>93.3</ele>
        <time>2020-06-07T14:41:01Z</time>
      </trkpt>
      <trkpt lat="47.89711" lon="-3.70007">
        <ele>93.4</ele>
        <time>2020-06-07T14:41:02Z</time>
      </trkpt>
      <trkpt lat="47.89717" lon="-3.70007">
        <ele>93.4</ele>
        <time>2020-06-07T14:41:03Z</time>
      </trkpt>
      <trkpt lat="47.89723" lon="-3.70008">
        <ele>93.4</ele>
        <time>2020-06-07T14:41:04Z</time>
      </trkpt>
      <trkpt lat="47.89728" lon="-3.70009">
        <ele>93.5</ele>
        <time>2020-06-07T14:41:05Z</time>
      </trkpt>
      <trkpt lat="47.89733" lon="-3.7001">
        <ele>93.5</ele>
        <time>2020-06-07T14:41:06Z</time>
      </trkpt>
      <trkpt lat="47.89738" lon="-3.70012">
        <ele>93.5</ele>
        <time>2020-06-07T14:41:07Z</time>
      </trkpt>
      <trkpt lat="47.89743" lon="-3.70013">
        <ele>93.5</ele>
        <time>2020-06-07T14:41:08Z</time>
      </trkpt>
      <trkpt lat="47.89749" lon="-3.70014">
        <ele>93.4</ele>
        <time>2020-06-07T14:41:09Z</time>
      </trkpt>
      <trkpt lat="47.89754" lon="-3.70016">
        <ele>93.4</ele>
        <time>2020-06-07T14:41:10Z</time>
      </trkpt>
      <trkpt lat="47.89759" lon="-3.70017">
        <ele>93.4</ele>
        <time>2020-06-07T14:41:11Z</time>
      </trkpt>
      <trkpt lat="47.89765" lon="-3.70019">
        <ele>93.3</ele>
        <time>2020-06-07T14:41:12Z</time>
      </trkpt>
      <trkpt lat="47.89771" lon="-3.70021">
        <ele>93.3</ele>
        <time>2020-06-07T14:41:13Z</time>
      </trkpt>
      <trkpt lat="47.89776" lon="-3.70022">
        <ele>93.3</ele>
        <time>2020-06-07T14:41:14Z</time>
      </trkpt>
      <trkpt lat="47.89781" lon="-3.70024">
        <ele>93.2</ele>
        <time>2020-06-07T14:41:15Z</time>
      </trkpt>
      <trkpt lat="47.89787" lon="-3.70027">
        <ele>93.1</ele>
        <time>2020-06-07T14:41:16Z</time>
      </trkpt>
      <trkpt lat="47.89792" lon="-3.70029">
        <ele>93.1</ele>
        <time>2020-06-07T14:41:17Z</time>
      </trkpt>
      <trkpt lat="47.89799" lon="-3.7003">
        <ele>93</ele>
        <time>2020-06-07T14:41:18Z</time>
      </trkpt>
      <trkpt lat="47.89806" lon="-3.70032">
        <ele>93</ele>
        <time>2020-06-07T14:41:19Z</time>
      </trkpt>
      <trkpt lat="47.89812" lon="-3.70033">
        <ele>93</ele>
        <time>2020-06-07T14:41:20Z</time>
      </trkpt>
      <trkpt lat="47.89818" lon="-3.70034">
        <ele>92.9</ele>
        <time>2020-06-07T14:41:21Z</time>
      </trkpt>
      <trkpt lat="47.89824" lon="-3.70035">
        <ele>92.9</ele>
        <time>2020-06-07T14:41:22Z</time>
      </trkpt>
      <trkpt lat="47.8983" lon="-3.70037">
        <ele>92.8</ele>
        <time>2020-06-07T14:41:23Z</time>
      </trkpt>
      <trkpt lat="47.89837" lon="-3.70039">
        <ele>92.8</ele>
        <time>2020-06-07T14:41:24Z</time>
      </trkpt>
      <trkpt lat="47.89844" lon="-3.70042">
        <ele>92.8</ele>
        <time>2020-06-07T14:41:25Z</time>
      </trkpt>
      <trkpt lat="47.8985" lon="-3.70044">
        <ele>92.8</ele>
        <time>2020-06-07T14:41:26Z</time>
      </trkpt>
      <trkpt lat="47.89855" lon="-3.70046">
        <ele>92.8</ele>
        <time>2020-06-07T14:41:27Z</time>
      </trkpt>
      <trkpt lat="47.89862" lon="-3.70048">
        <ele>92.8</ele>
        <time>2020-06-07T14:41:28Z</time>
      </trkpt>
      <trkpt lat="47.89867" lon="-3.70049">
        <ele>92.8</ele>
        <time>2020-06-07T14:41:29Z</time>
      </trkpt>
      <trkpt lat="47.89873" lon="-3.7005">
        <ele>92.8</ele>
        <time>2020-06-07T14:41:30Z</time>
      </trkpt>
      <trkpt lat="47.89877" lon="-3.70052">
        <ele>92.9</ele>
        <time>2020-06-07T14:41:31Z</time>
      </trkpt>
      <trkpt lat="47.89883" lon="-3.70054">
        <ele>92.9</ele>
        <time>2020-06-07T14:41:32Z</time>
      </trkpt>
      <trkpt lat="47.89889" lon="-3.70056">
        <ele>92.9</ele>
        <time>2020-06-07T14:41:33Z</time>
      </trkpt>
      <trkpt lat="47.89894" lon="-3.70058">
        <ele>92.9</ele>
        <time>2020-06-07T14:41:34Z</time>
      </trkpt>
      <trkpt lat="47.899" lon="-3.70061">
        <ele>92.9</ele>
        <time>2020-06-07T14:41:35Z</time>
      </trkpt>
      <trkpt lat="47.89905" lon="-3.70063">
        <ele>92.9</ele>
        <time>2020-06-07T14:41:36Z</time>
      </trkpt>
      <trkpt lat="47.8991" lon="-3.70064">
        <ele>92.9</ele>
        <time>2020-06-07T14:41:37Z</time>
      </trkpt>
      <trkpt lat="47.89917" lon="-3.70066">
        <ele>92.9</ele>
        <time>2020-06-07T14:41:38Z</time>
      </trkpt>
      <trkpt lat="47.89923" lon="-3.70067">
        <ele>92.9</ele>
        <time>2020-06-07T14:41:39Z</time>
      </trkpt>
      <trkpt lat="47.89928" lon="-3.70069">
        <ele>92.9</ele>
        <time>2020-06-07T14:41:40Z</time>
      </trkpt>
      <trkpt lat="47.89934" lon="-3.70071">
        <ele>93</ele>
        <time>2020-06-07T14:41:41Z</time>
      </trkpt>
      <trkpt lat="47.8994" lon="-3.70071">
        <ele>93</ele>
        <time>2020-06-07T14:41:42Z</time>
      </trkpt>
      <trkpt lat="47.89946" lon="-3.70073">
        <ele>93</ele>
        <time>2020-06-07T14:41:43Z</time>
      </trkpt>
      <trkpt lat="47.89951" lon="-3.70076">
        <ele>93</ele>
        <time>2020-06-07T14:41:44Z</time>
      </trkpt>
      <trkpt lat="47.89956" lon="-3.70077">
        <ele>93.1</ele>
        <time>2020-06-07T14:41:45Z</time>
      </trkpt>
      <trkpt lat="47.89962" lon="-3.70079">
        <ele>93.1</ele>
        <time>2020-06-07T14:41:46Z</time>
      </trkpt>
      <trkpt lat="47.89969" lon="-3.70081">
        <ele>93.1</ele>
        <time>2020-06-07T14:41:47Z</time>
      </trkpt>
      <trkpt lat="47.89974" lon="-3.70082">
        <ele>93.1</ele>
        <time>2020-06-07T14:41:48Z</time>
      </trkpt>
      <trkpt lat="47.8998" lon="-3.70084">
        <ele>93.1</ele>
        <time>2020-06-07T14:41:49Z</time>
      </trkpt>
      <trkpt lat="47.89985" lon="-3.70086">
        <ele>93.1</ele>
        <time>2020-06-07T14:41:50Z</time>
      </trkpt>
      <trkpt lat="47.89991" lon="-3.70088">
        <ele>93.2</ele>
        <time>2020-06-07T14:41:51Z</time>
      </trkpt>
      <trkpt lat="47.89997" lon="-3.70089">
        <ele>93.2</ele>
        <time>2020-06-07T14:41:52Z</time>
      </trkpt>
      <trkpt lat="47.90003" lon="-3.70091">
        <ele>93.2</ele>
        <time>2020-06-07T14:41:53Z</time>
      </trkpt>
      <trkpt lat="47.90008" lon="-3.70093">
        <ele>93.3</ele>
        <time>2020-06-07T14:41:54Z</time>
      </trkpt>
      <trkpt lat="47.90014" lon="-3.70095">
        <ele>93.3</ele>
        <time>2020-06-07T14:41:55Z</time>
      </trkpt>
      <trkpt lat="47.9002" lon="-3.70097">
        <ele>93.3</ele>
        <time>2020-06-07T14:41:56Z</time>
      </trkpt>
      <trkpt lat="47.90026" lon="-3.70099">
        <ele>93.3</ele>
        <time>2020-06-07T14:41:57Z</time>
      </trkpt>
      <trkpt lat="47.90033" lon="-3.70101">
        <ele>93.4</ele>
        <time>2020-06-07T14:41:58Z</time>
      </trkpt>
      <trkpt lat="47.90037" lon="-3.70102">
        <ele>93.5</ele>
        <time>2020-06-07T14:41:59Z</time>
      </trkpt>
      <trkpt lat="47.90042" lon="-3.70104">
        <ele>93.5</ele>
        <time>2020-06-07T14:42:00Z</time>
      </trkpt>
      <trkpt lat="47.90049" lon="-3.70106">
        <ele>93.6</ele>
        <time>2020-06-07T14:42:01Z</time>
      </trkpt>
      <trkpt lat="47.90055" lon="-3.70109">
        <ele>93.7</ele>
        <time>2020-06-07T14:42:02Z</time>
      </trkpt>
      <trkpt lat="47.90061" lon="-3.70111">
        <ele>93.8</ele>
        <time>2020-06-07T14:42:03Z</time>
      </trkpt>
      <trkpt lat="47.90065" lon="-3.70112">
        <ele>93.9</ele>
        <time>2020-06-07T14:42:04Z</time>
      </trkpt>
      <trkpt lat="47.90071" lon="-3.70114">
        <ele>94</ele>
        <time>2020-06-07T14:42:05Z</time>
      </trkpt>
      <trkpt lat="47.90076" lon="-3.70116">
        <ele>94</ele>
        <time>2020-06-07T14:42:06Z</time>
      </trkpt>
      <trkpt lat="47.90081" lon="-3.70117">
        <ele>94.1</ele>
        <time>2020-06-07T14:42:07Z</time>
      </trkpt>
      <trkpt lat="47.90086" lon="-3.70118">
        <ele>94.2</ele>
        <time>2020-06-07T14:42:08Z</time>
      </trkpt>
      <trkpt lat="47.90091" lon="-3.7012">
        <ele>94.3</ele>
        <time>2020-06-07T14:42:09Z</time>
      </trkpt>
      <trkpt lat="47.90095" lon="-3.7012">
        <ele>94.4</ele>
        <time>2020-06-07T14:42:10Z</time>
      </trkpt>
      <trkpt lat="47.90099" lon="-3.70121">
        <ele>94.6</ele>
        <time>2020-06-07T14:42:11Z</time>
      </trkpt>
      <trkpt lat="47.90104" lon="-3.70122">
        <ele>94.6</ele>
        <time>2020-06-07T14:42:12Z</time>
      </trkpt>
      <trkpt lat="47.90109" lon="-3.70124">
        <ele>94.7</ele>
        <time>2020-06-07T14:42:13Z</time>
      </trkpt>
      <trkpt lat="47.90113" lon="-3.70126">
        <ele>94.8</ele>
        <time>2020-06-07T14:42:14Z</time>
      </trkpt>
      <trkpt lat="47.90117" lon="-3.70128">
        <ele>94.8</ele>
        <time>2020-06-07T14:42:15Z</time>
      </trkpt>
      <trkpt lat="47.90122" lon="-3.7013">
        <ele>94.9</ele>
        <time>2020-06-07T14:42:16Z</time>
      </trkpt>
      <trkpt lat="47.90126" lon="-3.70131">
        <ele>95</ele>
        <time>2020-06-07T14:42:17Z</time>
      </trkpt>
      <trkpt lat="47.9013" lon="-3.70133">
        <ele>95.1</ele>
        <time>2020-06-07T14:42:18Z</time>
      </trkpt>
      <trkpt lat="47.90133" lon="-3.70135">
        <ele>95.1</ele>
        <time>2020-06-07T14:42:19Z</time>
      </trkpt>
      <trkpt lat="47.90138" lon="-3.70136">
        <ele>95.2</ele>
        <time>2020-06-07T14:42:20Z</time>
      </trkpt>
      <trkpt lat="47.90142" lon="-3.70137">
        <ele>95.3</ele>
        <time>2020-06-07T14:42:21Z</time>
      </trkpt>
      <trkpt lat="47.90146" lon="-3.70137">
        <ele>95.4</ele>
        <time>2020-06-07T14:42:22Z</time>
      </trkpt>
      <trkpt lat="47.9015" lon="-3.70139">
        <ele>95.5</ele>
        <time>2020-06-07T14:42:23Z</time>
      </trkpt>
      <trkpt lat="47.90154" lon="-3.70141">
        <ele>95.6</ele>
        <time>2020-06-07T14:42:24Z</time>
      </trkpt>
      <trkpt lat="47.90159" lon="-3.70142">
        <ele>95.7</ele>
        <time>2020-06-07T14:42:25Z</time>
      </trkpt>
      <trkpt lat="47.90162" lon="-3.70144">
        <ele>95.7</ele>
        <time>2020-06-07T14:42:26Z</time>
      </trkpt>
      <trkpt lat="47.90166" lon="-3.70145">
        <ele>95.7</ele>
        <time>2020-06-07T14:42:27Z</time>
      </trkpt>
      <trkpt lat="47.90171" lon="-3.70146">
        <ele>95.8</ele>
        <time>2020-06-07T14:42:28Z</time>
      </trkpt>
      <trkpt lat="47.90176" lon="-3.70148">
        <ele>95.9</ele>
        <time>2020-06-07T14:42:29Z</time>
      </trkpt>
      <trkpt lat="47.90182" lon="-3.7015">
        <ele>95.9</ele>
        <time>2020-06-07T14:42:30Z</time>
      </trkpt>
      <trkpt lat="47.90187" lon="-3.70151">
        <ele>95.9</ele>
        <time>2020-06-07T14:42:31Z</time>
      </trkpt>
      <trkpt lat="47.90191" lon="-3.70154">
        <ele>95.9</ele>
        <time>2020-06-07T14:42:32Z</time>
      </trkpt>
      <trkpt lat="47.90195" lon="-3.70155">
        <ele>95.9</ele>
        <time>2020-06-07T14:42:33Z</time>
      </trkpt>
      <trkpt lat="47.90199" lon="-3.70158">
        <ele>95.9</ele>
        <time>2020-06-07T14:42:34Z</time>
      </trkpt>
      <trkpt lat="47.90205" lon="-3.7016">
        <ele>95.9</ele>
        <time>2020-06-07T14:42:35Z</time>
      </trkpt>
      <trkpt lat="47.90211" lon="-3.70162">
        <ele>95.8</ele>
        <time>2020-06-07T14:42:36Z</time>
      </trkpt>
      <trkpt lat="47.90216" lon="-3.70164">
        <ele>95.8</ele>
        <time>2020-06-07T14:42:37Z</time>
      </trkpt>
      <trkpt lat="47.90222" lon="-3.70169">
        <ele>95.7</ele>
        <time>2020-06-07T14:42:38Z</time>
      </trkpt>
      <trkpt lat="47.90226" lon="-3.70172">
        <ele>95.6</ele>
        <time>2020-06-07T14:42:39Z</time>
      </trkpt>
      <trkpt lat="47.9023" lon="-3.70173">
        <ele>95.6</ele>
        <time>2020-06-07T14:42:40Z</time>
      </trkpt>
      <trkpt lat="47.90235" lon="-3.70176">
        <ele>95.5</ele>
        <time>2020-06-07T14:42:41Z</time>
      </trkpt>
      <trkpt lat="47.90239" lon="-3.70178">
        <ele>95.5</ele>
        <time>2020-06-07T14:42:42Z</time>
      </trkpt>
      <trkpt lat="47.90242" lon="-3.7018">
        <ele>95.4</ele>
        <time>2020-06-07T14:42:43Z</time>
      </trkpt>
      <trkpt lat="47.90244" lon="-3.70182">
        <ele>95.4</ele>
        <time>2020-06-07T14:42:44Z</time>
      </trkpt>
      <trkpt lat="47.90247" lon="-3.70184">
        <ele>95.4</ele>
        <time>2020-06-07T14:42:45Z</time>
      </trkpt>
      <trkpt lat="47.90251" lon="-3.70186">
        <ele>95.3</ele>
        <time>2020-06-07T14:42:46Z</time>
      </trkpt>
      <trkpt lat="47.90254" lon="-3.70188">
        <ele>95.3</ele>
        <time>2020-06-07T14:42:47Z</time>
      </trkpt>
      <trkpt lat="47.9026" lon="-3.70191">
        <ele>95.2</ele>
        <time>2020-06-07T14:42:48Z</time>
      </trkpt>
      <trkpt lat="47.90263" lon="-3.70194">
        <ele>95.2</ele>
        <time>2020-06-07T14:42:49Z</time>
      </trkpt>
      <trkpt lat="47.90267" lon="-3.70197">
        <ele>95.1</ele>
        <time>2020-06-07T14:42:50Z</time>
      </trkpt>
      <trkpt lat="47.90272" lon="-3.70199">
        <ele>95.1</ele>
        <time>2020-06-07T14:42:51Z</time>
      </trkpt>
      <trkpt lat="47.90276" lon="-3.70201">
        <ele>95</ele>
        <time>2020-06-07T14:42:52Z</time>
      </trkpt>
      <trkpt lat="47.90281" lon="-3.70205">
        <ele>94.9</ele>
        <time>2020-06-07T14:42:53Z</time>
      </trkpt>
      <trkpt lat="47.90285" lon="-3.70208">
        <ele>94.9</ele>
        <time>2020-06-07T14:42:54Z</time>
      </trkpt>
      <trkpt lat="47.9029" lon="-3.70211">
        <ele>94.8</ele>
        <time>2020-06-07T14:42:55Z</time>
      </trkpt>
      <trkpt lat="47.90294" lon="-3.70215">
        <ele>94.8</ele>
        <time>2020-06-07T14:42:56Z</time>
      </trkpt>
      <trkpt lat="47.90299" lon="-3.70219">
        <ele>94.7</ele>
        <time>2020-06-07T14:42:57Z</time>
      </trkpt>
      <trkpt lat="47.90304" lon="-3.70223">
        <ele>94.6</ele>
        <time>2020-06-07T14:42:58Z</time>
      </trkpt>
      <trkpt lat="47.90308" lon="-3.70227">
        <ele>94.6</ele>
        <time>2020-06-07T14:42:59Z</time>
      </trkpt>
      <trkpt lat="47.90313" lon="-3.70231">
        <ele>94.5</ele>
        <time>2020-06-07T14:43:00Z</time>
      </trkpt>
      <trkpt lat="47.90318" lon="-3.70237">
        <ele>94.4</ele>
        <time>2020-06-07T14:43:01Z</time>
      </trkpt>
      <trkpt lat="47.90323" lon="-3.70241">
        <ele>94.3</ele>
        <time>2020-06-07T14:43:02Z</time>
      </trkpt>
      <trkpt lat="47.90328" lon="-3.70248">
        <ele>94.2</ele>
        <time>2020-06-07T14:43:03Z</time>
      </trkpt>
      <trkpt lat="47.90333" lon="-3.70254">
        <ele>94.1</ele>
        <time>2020-06-07T14:43:04Z</time>
      </trkpt>
      <trkpt lat="47.90338" lon="-3.70259">
        <ele>94</ele>
        <time>2020-06-07T14:43:05Z</time>
      </trkpt>
      <trkpt lat="47.90342" lon="-3.70265">
        <ele>93.8</ele>
        <time>2020-06-07T14:43:06Z</time>
      </trkpt>
      <trkpt lat="47.90347" lon="-3.7027">
        <ele>93.6</ele>
        <time>2020-06-07T14:43:07Z</time>
      </trkpt>
      <trkpt lat="47.90351" lon="-3.70276">
        <ele>93.3</ele>
        <time>2020-06-07T14:43:08Z</time>
      </trkpt>
      <trkpt lat="47.90355" lon="-3.70281">
        <ele>93.1</ele>
        <time>2020-06-07T14:43:09Z</time>
      </trkpt>
      <trkpt lat="47.90359" lon="-3.70286">
        <ele>92.9</ele>
        <time>2020-06-07T14:43:10Z</time>
      </trkpt>
      <trkpt lat="47.90364" lon="-3.70291">
        <ele>92.7</ele>
        <time>2020-06-07T14:43:11Z</time>
      </trkpt>
      <trkpt lat="47.90369" lon="-3.70298">
        <ele>92.5</ele>
        <time>2020-06-07T14:43:12Z</time>
      </trkpt>
      <trkpt lat="47.90373" lon="-3.70305">
        <ele>92.3</ele>
        <time>2020-06-07T14:43:13Z</time>
      </trkpt>
      <trkpt lat="47.90378" lon="-3.70311">
        <ele>92</ele>
        <time>2020-06-07T14:43:14Z</time>
      </trkpt>
      <trkpt lat="47.90383" lon="-3.70318">
        <ele>91.7</ele>
        <time>2020-06-07T14:43:15Z</time>
      </trkpt>
      <trkpt lat="47.90388" lon="-3.70325">
        <ele>91.4</ele>
        <time>2020-06-07T14:43:16Z</time>
      </trkpt>
      <trkpt lat="47.90393" lon="-3.70332">
        <ele>91.1</ele>
        <time>2020-06-07T14:43:17Z</time>
      </trkpt>
      <trkpt lat="47.90398" lon="-3.7034">
        <ele>90.8</ele>
        <time>2020-06-07T14:43:18Z</time>
      </trkpt>
      <trkpt lat="47.90403" lon="-3.70347">
        <ele>90.5</ele>
        <time>2020-06-07T14:43:19Z</time>
      </trkpt>
      <trkpt lat="47.90408" lon="-3.70355">
        <ele>90.1</ele>
        <time>2020-06-07T14:43:20Z</time>
      </trkpt>
      <trkpt lat="47.90414" lon="-3.70362">
        <ele>89.8</ele>
        <time>2020-06-07T14:43:21Z</time>
      </trkpt>
      <trkpt lat="47.9042" lon="-3.7037">
        <ele>89.5</ele>
        <time>2020-06-07T14:43:22Z</time>
      </trkpt>
      <trkpt lat="47.90425" lon="-3.70378">
        <ele>89.1</ele>
        <time>2020-06-07T14:43:23Z</time>
      </trkpt>
      <trkpt lat="47.90431" lon="-3.70387">
        <ele>88.8</ele>
        <time>2020-06-07T14:43:24Z</time>
      </trkpt>
      <trkpt lat="47.90436" lon="-3.70395">
        <ele>88.4</ele>
        <time>2020-06-07T14:43:25Z</time>
      </trkpt>
      <trkpt lat="47.90441" lon="-3.70403">
        <ele>88</ele>
        <time>2020-06-07T14:43:26Z</time>
      </trkpt>
      <trkpt lat="47.90447" lon="-3.70411">
        <ele>87.7</ele>
        <time>2020-06-07T14:43:27Z</time>
      </trkpt>
      <trkpt lat="47.90453" lon="-3.70419">
        <ele>87.3</ele>
        <time>2020-06-07T14:43:28Z</time>
      </trkpt>
      <trkpt lat="47.90459" lon="-3.70426">
        <ele>87</ele>
        <time>2020-06-07T14:43:29Z</time>
      </trkpt>
      <trkpt lat="47.90465" lon="-3.70434">
        <ele>86.7</ele>
        <time>2020-06-07T14:43:30Z</time>
      </trkpt>
      <trkpt lat="47.90471" lon="-3.70442">
        <ele>86.4</ele>
        <time>2020-06-07T14:43:31Z</time>
      </trkpt>
      <trkpt lat="47.90477" lon="-3.70449">
        <ele>86.1</ele>
        <time>2020-06-07T14:43:32Z</time>
      </trkpt>
      <trkpt lat="47.90484" lon="-3.70456">
        <ele>85.9</ele>
        <time>2020-06-07T14:43:33Z</time>
      </trkpt>
      <trkpt lat="47.9049" lon="-3.70463">
        <ele>85.6</ele>
        <time>2020-06-07T14:43:34Z</time>
      </trkpt>
      <trkpt lat="47.90497" lon="-3.70469">
        <ele>85.4</ele>
        <time>2020-06-07T14:43:35Z</time>
      </trkpt>
      <trkpt lat="47.90503" lon="-3.70475">
        <ele>85.2</ele>
        <time>2020-06-07T14:43:36Z</time>
      </trkpt>
      <trkpt lat="47.90509" lon="-3.70482">
        <ele>85</ele>
        <time>2020-06-07T14:43:37Z</time>
      </trkpt>
      <trkpt lat="47.90516" lon="-3.70489">
        <ele>84.8</ele>
        <time>2020-06-07T14:43:38Z</time>
      </trkpt>
      <trkpt lat="47.90522" lon="-3.70495">
        <ele>84.7</ele>
        <time>2020-06-07T14:43:39Z</time>
      </trkpt>
      <trkpt lat="47.90528" lon="-3.70501">
        <ele>84.5</ele>
        <time>2020-06-07T14:43:40Z</time>
      </trkpt>
      <trkpt lat="47.90534" lon="-3.70507">
        <ele>84.4</ele>
        <time>2020-06-07T14:43:41Z</time>
      </trkpt>
      <trkpt lat="47.9054" lon="-3.70512">
        <ele>84.3</ele>
        <time>2020-06-07T14:43:42Z</time>
      </trkpt>
      <trkpt lat="47.90546" lon="-3.70516">
        <ele>84.2</ele>
        <time>2020-06-07T14:43:43Z</time>
      </trkpt>
      <trkpt lat="47.90552" lon="-3.70521">
        <ele>84.2</ele>
        <time>2020-06-07T14:43:44Z</time>
      </trkpt>
      <trkpt lat="47.90558" lon="-3.70526">
        <ele>84.2</ele>
        <time>2020-06-07T14:43:45Z</time>
      </trkpt>
      <trkpt lat="47.90564" lon="-3.70531">
        <ele>84.2</ele>
        <time>2020-06-07T14:43:46Z</time>
      </trkpt>
      <trkpt lat="47.9057" lon="-3.70537">
        <ele>84.2</ele>
        <time>2020-06-07T14:43:47Z</time>
      </trkpt>
      <trkpt lat="47.90576" lon="-3.70542">
        <ele>84.3</ele>
        <time>2020-06-07T14:43:48Z</time>
      </trkpt>
      <trkpt lat="47.90582" lon="-3.70548">
        <ele>84.2</ele>
        <time>2020-06-07T14:43:49Z</time>
      </trkpt>
      <trkpt lat="47.90588" lon="-3.70554">
        <ele>84.1</ele>
        <time>2020-06-07T14:43:50Z</time>
      </trkpt>
      <trkpt lat="47.90594" lon="-3.7056">
        <ele>84</ele>
        <time>2020-06-07T14:43:51Z</time>
      </trkpt>
      <trkpt lat="47.906" lon="-3.70565">
        <ele>84</ele>
        <time>2020-06-07T14:43:52Z</time>
      </trkpt>
      <trkpt lat="47.90606" lon="-3.70569">
        <ele>83.9</ele>
        <time>2020-06-07T14:43:53Z</time>
      </trkpt>
      <trkpt lat="47.90611" lon="-3.70575">
        <ele>83.9</ele>
        <time>2020-06-07T14:43:54Z</time>
      </trkpt>
      <trkpt lat="47.90616" lon="-3.7058">
        <ele>84</ele>
        <time>2020-06-07T14:43:55Z</time>
      </trkpt>
      <trkpt lat="47.90622" lon="-3.70585">
        <ele>84</ele>
        <time>2020-06-07T14:43:56Z</time>
      </trkpt>
      <trkpt lat="47.90628" lon="-3.7059">
        <ele>84.2</ele>
        <time>2020-06-07T14:43:57Z</time>
      </trkpt>
      <trkpt lat="47.90632" lon="-3.70596">
        <ele>84.3</ele>
        <time>2020-06-07T14:43:58Z</time>
      </trkpt>
      <trkpt lat="47.90637" lon="-3.70602">
        <ele>84.4</ele>
        <time>2020-06-07T14:43:59Z</time>
      </trkpt>
      <trkpt lat="47.90642" lon="-3.70606">
        <ele>84.5</ele>
        <time>2020-06-07T14:44:00Z</time>
      </trkpt>
      <trkpt lat="47.90647" lon="-3.7061">
        <ele>84.7</ele>
        <time>2020-06-07T14:44:01Z</time>
      </trkpt>
      <trkpt lat="47.90651" lon="-3.70616">
        <ele>84.8</ele>
        <time>2020-06-07T14:44:02Z</time>
      </trkpt>
      <trkpt lat="47.90655" lon="-3.70621">
        <ele>84.9</ele>
        <time>2020-06-07T14:44:03Z</time>
      </trkpt>
      <trkpt lat="47.90659" lon="-3.70626">
        <ele>85.1</ele>
        <time>2020-06-07T14:44:04Z</time>
      </trkpt>
      <trkpt lat="47.90664" lon="-3.7063">
        <ele>85.2</ele>
        <time>2020-06-07T14:44:05Z</time>
      </trkpt>
      <trkpt lat="47.90667" lon="-3.70635">
        <ele>85.4</ele>
        <time>2020-06-07T14:44:06Z</time>
      </trkpt>
      <trkpt lat="47.90671" lon="-3.7064">
        <ele>85.5</ele>
        <time>2020-06-07T14:44:07Z</time>
      </trkpt>
      <trkpt lat="47.90675" lon="-3.70644">
        <ele>85.7</ele>
        <time>2020-06-07T14:44:08Z</time>
      </trkpt>
      <trkpt lat="47.90679" lon="-3.70649">
        <ele>85.9</ele>
        <time>2020-06-07T14:44:09Z</time>
      </trkpt>
      <trkpt lat="47.90683" lon="-3.70654">
        <ele>86</ele>
        <time>2020-06-07T14:44:10Z</time>
      </trkpt>
      <trkpt lat="47.90687" lon="-3.70659">
        <ele>86.2</ele>
        <time>2020-06-07T14:44:11Z</time>
      </trkpt>
      <trkpt lat="47.90691" lon="-3.70664">
        <ele>86.4</ele>
        <time>2020-06-07T14:44:12Z</time>
      </trkpt>
      <trkpt lat="47.90695" lon="-3.70669">
        <ele>86.5</ele>
        <time>2020-06-07T14:44:13Z</time>
      </trkpt>
      <trkpt lat="47.907" lon="-3.70673">
        <ele>86.7</ele>
        <time>2020-06-07T14:44:14Z</time>
      </trkpt>
      <trkpt lat="47.90704" lon="-3.70677">
        <ele>86.9</ele>
        <time>2020-06-07T14:44:15Z</time>
      </trkpt>
      <trkpt lat="47.90708" lon="-3.70681">
        <ele>87.1</ele>
        <time>2020-06-07T14:44:16Z</time>
      </trkpt>
      <trkpt lat="47.90712" lon="-3.70685">
        <ele>87.3</ele>
        <time>2020-06-07T14:44:17Z</time>
      </trkpt>
      <trkpt lat="47.90716" lon="-3.70689">
        <ele>87.5</ele>
        <time>2020-06-07T14:44:18Z</time>
      </trkpt>
      <trkpt lat="47.90721" lon="-3.70694">
        <ele>87.7</ele>
        <time>2020-06-07T14:44:19Z</time>
      </trkpt>
      <trkpt lat="47.90725" lon="-3.70698">
        <ele>87.9</ele>
        <time>2020-06-07T14:44:20Z</time>
      </trkpt>
      <trkpt lat="47.9073" lon="-3.70701">
        <ele>88.1</ele>
        <time>2020-06-07T14:44:21Z</time>
      </trkpt>
      <trkpt lat="47.90735" lon="-3.70706">
        <ele>88.3</ele>
        <time>2020-06-07T14:44:22Z</time>
      </trkpt>
      <trkpt lat="47.9074" lon="-3.70709">
        <ele>88.6</ele>
        <time>2020-06-07T14:44:23Z</time>
      </trkpt>
      <trkpt lat="47.90744" lon="-3.70713">
        <ele>88.8</ele>
        <time>2020-06-07T14:44:24Z</time>
      </trkpt>
      <trkpt lat="47.90748" lon="-3.70717">
        <ele>89</ele>
        <time>2020-06-07T14:44:25Z</time>
      </trkpt>
      <trkpt lat="47.90752" lon="-3.70721">
        <ele>89.2</ele>
        <time>2020-06-07T14:44:26Z</time>
      </trkpt>
      <trkpt lat="47.90756" lon="-3.70726">
        <ele>89.4</ele>
        <time>2020-06-07T14:44:27Z</time>
      </trkpt>
      <trkpt lat="47.90761" lon="-3.70732">
        <ele>89.7</ele>
        <time>2020-06-07T14:44:28Z</time>
      </trkpt>
      <trkpt lat="47.90765" lon="-3.70737">
        <ele>89.9</ele>
        <time>2020-06-07T14:44:29Z</time>
      </trkpt>
      <trkpt lat="47.90769" lon="-3.70742">
        <ele>90</ele>
        <time>2020-06-07T14:44:30Z</time>
      </trkpt>
      <trkpt lat="47.90773" lon="-3.70746">
        <ele>90.2</ele>
        <time>2020-06-07T14:44:31Z</time>
      </trkpt>
      <trkpt lat="47.90777" lon="-3.70751">
        <ele>90.3</ele>
        <time>2020-06-07T14:44:32Z</time>
      </trkpt>
      <trkpt lat="47.9078" lon="-3.70755">
        <ele>90.4</ele>
        <time>2020-06-07T14:44:33Z</time>
      </trkpt>
      <trkpt lat="47.90785" lon="-3.70758">
        <ele>90.6</ele>
        <time>2020-06-07T14:44:34Z</time>
      </trkpt>
      <trkpt lat="47.90789" lon="-3.7076">
        <ele>90.7</ele>
        <time>2020-06-07T14:44:35Z</time>
      </trkpt>
      <trkpt lat="47.90794" lon="-3.70764">
        <ele>90.9</ele>
        <time>2020-06-07T14:44:36Z</time>
      </trkpt>
      <trkpt lat="47.90799" lon="-3.70768">
        <ele>91</ele>
        <time>2020-06-07T14:44:37Z</time>
      </trkpt>
      <trkpt lat="47.90804" lon="-3.70772">
        <ele>91.2</ele>
        <time>2020-06-07T14:44:38Z</time>
      </trkpt>
      <trkpt lat="47.9081" lon="-3.70774">
        <ele>91.3</ele>
        <time>2020-06-07T14:44:39Z</time>
      </trkpt>
      <trkpt lat="47.90814" lon="-3.70776">
        <ele>91.4</ele>
        <time>2020-06-07T14:44:40Z</time>
      </trkpt>
      <trkpt lat="47.90818" lon="-3.7078">
        <ele>91.6</ele>
        <time>2020-06-07T14:44:41Z</time>
      </trkpt>
      <trkpt lat="47.90821" lon="-3.70784">
        <ele>91.7</ele>
        <time>2020-06-07T14:44:42Z</time>
      </trkpt>
      <trkpt lat="47.90826" lon="-3.70787">
        <ele>91.9</ele>
        <time>2020-06-07T14:44:43Z</time>
      </trkpt>
      <trkpt lat="47.90831" lon="-3.70791">
        <ele>92</ele>
        <time>2020-06-07T14:44:44Z</time>
      </trkpt>
      <trkpt lat="47.90835" lon="-3.70795">
        <ele>92.2</ele>
        <time>2020-06-07T14:44:45Z</time>
      </trkpt>
      <trkpt lat="47.90839" lon="-3.70798">
        <ele>92.3</ele>
        <time>2020-06-07T14:44:46Z</time>
      </trkpt>
      <trkpt lat="47.90844" lon="-3.70802">
        <ele>92.4</ele>
        <time>2020-06-07T14:44:47Z</time>
      </trkpt>
      <trkpt lat="47.90848" lon="-3.70807">
        <ele>92.5</ele>
        <time>2020-06-07T14:44:48Z</time>
      </trkpt>
      <trkpt lat="47.90852" lon="-3.70811">
        <ele>92.6</ele>
        <time>2020-06-07T14:44:49Z</time>
      </trkpt>
      <trkpt lat="47.90857" lon="-3.70815">
        <ele>92.8</ele>
        <time>2020-06-07T14:44:50Z</time>
      </trkpt>
      <trkpt lat="47.9086" lon="-3.70819">
        <ele>92.9</ele>
        <time>2020-06-07T14:44:51Z</time>
      </trkpt>
      <trkpt lat="47.90865" lon="-3.70824">
        <ele>93.1</ele>
        <time>2020-06-07T14:44:52Z</time>
      </trkpt>
      <trkpt lat="47.9087" lon="-3.70828">
        <ele>93.2</ele>
        <time>2020-06-07T14:44:53Z</time>
      </trkpt>
      <trkpt lat="47.90873" lon="-3.70832">
        <ele>93.3</ele>
        <time>2020-06-07T14:44:54Z</time>
      </trkpt>
      <trkpt lat="47.90877" lon="-3.70836">
        <ele>93.5</ele>
        <time>2020-06-07T14:44:55Z</time>
      </trkpt>
      <trkpt lat="47.90882" lon="-3.70841">
        <ele>93.6</ele>
        <time>2020-06-07T14:44:56Z</time>
      </trkpt>
      <trkpt lat="47.90886" lon="-3.70844">
        <ele>93.7</ele>
        <time>2020-06-07T14:44:57Z</time>
      </trkpt>
      <trkpt lat="47.90891" lon="-3.70848">
        <ele>93.9</ele>
        <time>2020-06-07T14:44:58Z</time>
      </trkpt>
      <trkpt lat="47.90895" lon="-3.70852">
        <ele>94</ele>
        <time>2020-06-07T14:44:59Z</time>
      </trkpt>
      <trkpt lat="47.90898" lon="-3.70856">
        <ele>94.1</ele>
        <time>2020-06-07T14:45:00Z</time>
      </trkpt>
      <trkpt lat="47.90902" lon="-3.70861">
        <ele>94.3</ele>
        <time>2020-06-07T14:45:01Z</time>
      </trkpt>
      <trkpt lat="47.90907" lon="-3.70865">
        <ele>94.5</ele>
        <time>2020-06-07T14:45:02Z</time>
      </trkpt>
      <trkpt lat="47.90911" lon="-3.70868">
        <ele>94.6</ele>
        <time>2020-06-07T14:45:03Z</time>
      </trkpt>
      <trkpt lat="47.90914" lon="-3.70872">
        <ele>94.7</ele>
        <time>2020-06-07T14:45:04Z</time>
      </trkpt>
      <trkpt lat="47.90917" lon="-3.70875">
        <ele>94.8</ele>
        <time>2020-06-07T14:45:05Z</time>
      </trkpt>
      <trkpt lat="47.90922" lon="-3.70879">
        <ele>94.9</ele>
        <time>2020-06-07T14:45:06Z</time>
      </trkpt>
      <trkpt lat="47.90926" lon="-3.70883">
        <ele>95.1</ele>
        <time>2020-06-07T14:45:07Z</time>
      </trkpt>
      <trkpt lat="47.9093" lon="-3.70886">
        <ele>95.2</ele>
        <time>2020-06-07T14:45:08Z</time>
      </trkpt>
      <trkpt lat="47.90935" lon="-3.7089">
        <ele>95.3</ele>
        <time>2020-06-07T14:45:09Z</time>
      </trkpt>
      <trkpt lat="47.90937" lon="-3.70893">
        <ele>95.4</ele>
        <time>2020-06-07T14:45:10Z</time>
      </trkpt>
      <trkpt lat="47.90941" lon="-3.70897">
        <ele>95.5</ele>
        <time>2020-06-07T14:45:11Z</time>
      </trkpt>
      <trkpt lat="47.90945" lon="-3.70901">
        <ele>95.6</ele>
        <time>2020-06-07T14:45:12Z</time>
      </trkpt>
      <trkpt lat="47.90947" lon="-3.70906">
        <ele>95.8</ele>
        <time>2020-06-07T14:45:13Z</time>
      </trkpt>
      <trkpt lat="47.90951" lon="-3.7091">
        <ele>95.9</ele>
        <time>2020-06-07T14:45:14Z</time>
      </trkpt>
      <trkpt lat="47.90955" lon="-3.70914">
        <ele>96</ele>
        <time>2020-06-07T14:45:15Z</time>
      </trkpt>
      <trkpt lat="47.90959" lon="-3.70916">
        <ele>96.1</ele>
        <time>2020-06-07T14:45:16Z</time>
      </trkpt>
      <trkpt lat="47.90964" lon="-3.7092">
        <ele>96.2</ele>
        <time>2020-06-07T14:45:17Z</time>
      </trkpt>
      <trkpt lat="47.90968" lon="-3.70922">
        <ele>96.3</ele>
        <time>2020-06-07T14:45:18Z</time>
      </trkpt>
      <trkpt lat="47.90971" lon="-3.70927">
        <ele>96.4</ele>
        <time>2020-06-07T14:45:19Z</time>
      </trkpt>
      <trkpt lat="47.90975" lon="-3.70932">
        <ele>96.5</ele>
        <time>2020-06-07T14:45:20Z</time>
      </trkpt>
      <trkpt lat="47.90979" lon="-3.70935">
        <ele>96.6</ele>
        <time>2020-06-07T14:45:21Z</time>
      </trkpt>
      <trkpt lat="47.90983" lon="-3.70938">
        <ele>96.7</ele>
        <time>2020-06-07T14:45:22Z</time>
      </trkpt>
      <trkpt lat="47.90986" lon="-3.70941">
        <ele>96.8</ele>
        <time>2020-06-07T14:45:23Z</time>
      </trkpt>
      <trkpt lat="47.9099" lon="-3.70943">
        <ele>96.9</ele>
        <time>2020-06-07T14:45:24Z</time>
      </trkpt>
      <trkpt lat="47.90994" lon="-3.70946">
        <ele>97</ele>
        <time>2020-06-07T14:45:25Z</time>
      </trkpt>
      <trkpt lat="47.90997" lon="-3.70949">
        <ele>97.1</ele>
        <time>2020-06-07T14:45:26Z</time>
      </trkpt>
      <trkpt lat="47.91002" lon="-3.70953">
        <ele>97.3</ele>
        <time>2020-06-07T14:45:27Z</time>
      </trkpt>
      <trkpt lat="47.91006" lon="-3.70956">
        <ele>97.4</ele>
        <time>2020-06-07T14:45:28Z</time>
      </trkpt>
      <trkpt lat="47.9101" lon="-3.70959">
        <ele>97.5</ele>
        <time>2020-06-07T14:45:29Z</time>
      </trkpt>
      <trkpt lat="47.91014" lon="-3.70963">
        <ele>97.6</ele>
        <time>2020-06-07T14:45:30Z</time>
      </trkpt>
      <trkpt lat="47.91019" lon="-3.70969">
        <ele>97.8</ele>
        <time>2020-06-07T14:45:31Z</time>
      </trkpt>
      <trkpt lat="47.91022" lon="-3.70973">
        <ele>97.8</ele>
        <time>2020-06-07T14:45:32Z</time>
      </trkpt>
      <trkpt lat="47.91026" lon="-3.70977">
        <ele>98</ele>
        <time>2020-06-07T14:45:33Z</time>
      </trkpt>
      <trkpt lat="47.9103" lon="-3.70981">
        <ele>98.1</ele>
        <time>2020-06-07T14:45:34Z</time>
      </trkpt>
      <trkpt lat="47.91033" lon="-3.70983">
        <ele>98.2</ele>
        <time>2020-06-07T14:45:35Z</time>
      </trkpt>
      <trkpt lat="47.91037" lon="-3.70985">
        <ele>98.3</ele>
        <time>2020-06-07T14:45:36Z</time>
      </trkpt>
      <trkpt lat="47.9104" lon="-3.70988">
        <ele>98.4</ele>
        <time>2020-06-07T14:45:37Z</time>
      </trkpt>
      <trkpt lat="47.91043" lon="-3.70991">
        <ele>98.5</ele>
        <time>2020-06-07T14:45:38Z</time>
      </trkpt>
      <trkpt lat="47.91047" lon="-3.70995">
        <ele>98.6</ele>
        <time>2020-06-07T14:45:39Z</time>
      </trkpt>
      <trkpt lat="47.91051" lon="-3.71">
        <ele>98.7</ele>
        <time>2020-06-07T14:45:40Z</time>
      </trkpt>
      <trkpt lat="47.91055" lon="-3.71004">
        <ele>98.8</ele>
        <time>2020-06-07T14:45:41Z</time>
      </trkpt>
      <trkpt lat="47.91059" lon="-3.71008">
        <ele>99</ele>
        <time>2020-06-07T14:45:42Z</time>
      </trkpt>
      <trkpt lat="47.91063" lon="-3.71013">
        <ele>99.1</ele>
        <time>2020-06-07T14:45:43Z</time>
      </trkpt>
      <trkpt lat="47.91067" lon="-3.71017">
        <ele>99.2</ele>
        <time>2020-06-07T14:45:44Z</time>
      </trkpt>
      <trkpt lat="47.91072" lon="-3.71022">
        <ele>99.4</ele>
        <time>2020-06-07T14:45:45Z</time>
      </trkpt>
      <trkpt lat="47.91076" lon="-3.71026">
        <ele>99.5</ele>
        <time>2020-06-07T14:45:46Z</time>
      </trkpt>
      <trkpt lat="47.9108" lon="-3.7103">
        <ele>99.5</ele>
        <time>2020-06-07T14:45:47Z</time>
      </trkpt>
      <trkpt lat="47.91084" lon="-3.71034">
        <ele>99.6</ele>
        <time>2020-06-07T14:45:48Z</time>
      </trkpt>
      <trkpt lat="47.91088" lon="-3.71037">
        <ele>99.7</ele>
        <time>2020-06-07T14:45:49Z</time>
      </trkpt>
      <trkpt lat="47.91092" lon="-3.7104">
        <ele>99.7</ele>
        <time>2020-06-07T14:45:50Z</time>
      </trkpt>
      <trkpt lat="47.91098" lon="-3.71044">
        <ele>99.8</ele>
        <time>2020-06-07T14:45:51Z</time>
      </trkpt>
      <trkpt lat="47.91101" lon="-3.71048">
        <ele>99.9</ele>
        <time>2020-06-07T14:45:52Z</time>
      </trkpt>
      <trkpt lat="47.91103" lon="-3.7105">
        <ele>100</ele>
        <time>2020-06-07T14:45:53Z</time>
      </trkpt>
      <trkpt lat="47.91107" lon="-3.71055">
        <ele>100</ele>
        <time>2020-06-07T14:45:54Z</time>
      </trkpt>
      <trkpt lat="47.9111" lon="-3.71058">
        <ele>100.1</ele>
        <time>2020-06-07T14:45:55Z</time>
      </trkpt>
      <trkpt lat="47.91113" lon="-3.7106">
        <ele>100.1</ele>
        <time>2020-06-07T14:45:56Z</time>
      </trkpt>
      <trkpt lat="47.91117" lon="-3.71064">
        <ele>100.2</ele>
        <time>2020-06-07T14:45:57Z</time>
      </trkpt>
      <trkpt lat="47.9112" lon="-3.71068">
        <ele>100.2</ele>
        <time>2020-06-07T14:45:58Z</time>
      </trkpt>
      <trkpt lat="47.91123" lon="-3.71073">
        <ele>100.2</ele>
        <time>2020-06-07T14:45:59Z</time>
      </trkpt>
      <trkpt lat="47.91127" lon="-3.71078">
        <ele>100.2</ele>
        <time>2020-06-07T14:46:00Z</time>
      </trkpt>
      <trkpt lat="47.9113" lon="-3.71081">
        <ele>100.2</ele>
        <time>2020-06-07T14:46:01Z</time>
      </trkpt>
      <trkpt lat="47.91134" lon="-3.71083">
        <ele>100.2</ele>
        <time>2020-06-07T14:46:02Z</time>
      </trkpt>
      <trkpt lat="47.91136" lon="-3.71083">
        <ele>100.3</ele>
        <time>2020-06-07T14:46:03Z</time>
      </trkpt>
      <trkpt lat="47.91141" lon="-3.71084">
        <ele>100.3</ele>
        <time>2020-06-07T14:46:04Z</time>
      </trkpt>
      <trkpt lat="47.91147" lon="-3.71085">
        <ele>100.3</ele>
        <time>2020-06-07T14:46:05Z</time>
      </trkpt>
      <trkpt lat="47.91152" lon="-3.71085">
        <ele>100.3</ele>
        <time>2020-06-07T14:46:06Z</time>
      </trkpt>
      <trkpt lat="47.91155" lon="-3.71084">
        <ele>100.2</ele>
        <time>2020-06-07T14:46:07Z</time>
      </trkpt>
      <trkpt lat="47.9116" lon="-3.71083">
        <ele>100.2</ele>
        <time>2020-06-07T14:46:08Z</time>
      </trkpt>
      <trkpt lat="47.91166" lon="-3.71081">
        <ele>100.1</ele>
        <time>2020-06-07T14:46:09Z</time>
      </trkpt>
      <trkpt lat="47.91171" lon="-3.71078">
        <ele>100.1</ele>
        <time>2020-06-07T14:46:10Z</time>
      </trkpt>
      <trkpt lat="47.91176" lon="-3.71075">
        <ele>100</ele>
        <time>2020-06-07T14:46:11Z</time>
      </trkpt>
      <trkpt lat="47.9118" lon="-3.71072">
        <ele>100</ele>
        <time>2020-06-07T14:46:12Z</time>
      </trkpt>
      <trkpt lat="47.91185" lon="-3.7107">
        <ele>100</ele>
        <time>2020-06-07T14:46:13Z</time>
      </trkpt>
      <trkpt lat="47.91189" lon="-3.71069">
        <ele>100</ele>
        <time>2020-06-07T14:46:14Z</time>
      </trkpt>
      <trkpt lat="47.91194" lon="-3.71066">
        <ele>100</ele>
        <time>2020-06-07T14:46:15Z</time>
      </trkpt>
      <trkpt lat="47.91198" lon="-3.71064">
        <ele>100</ele>
        <time>2020-06-07T14:46:16Z</time>
      </trkpt>
      <trkpt lat="47.91202" lon="-3.71062">
        <ele>100</ele>
        <time>2020-06-07T14:46:17Z</time>
      </trkpt>
      <trkpt lat="47.91206" lon="-3.7106">
        <ele>100</ele>
        <time>2020-06-07T14:46:18Z</time>
      </trkpt>
      <trkpt lat="47.91211" lon="-3.71057">
        <ele>100</ele>
        <time>2020-06-07T14:46:19Z</time>
      </trkpt>
      <trkpt lat="47.91216" lon="-3.71054">
        <ele>100</ele>
        <time>2020-06-07T14:46:20Z</time>
      </trkpt>
      <trkpt lat="47.9122" lon="-3.71052">
        <ele>100</ele>
        <time>2020-06-07T14:46:21Z</time>
      </trkpt>
      <trkpt lat="47.91225" lon="-3.7105">
        <ele>100</ele>
        <time>2020-06-07T14:46:22Z</time>
      </trkpt>
      <trkpt lat="47.91229" lon="-3.71048">
        <ele>100</ele>
        <time>2020-06-07T14:46:23Z</time>
      </trkpt>
      <trkpt lat="47.91234" lon="-3.71046">
        <ele>100</ele>
        <time>2020-06-07T14:46:24Z</time>
      </trkpt>
      <trkpt lat="47.91239" lon="-3.71045">
        <ele>100.1</ele>
        <time>2020-06-07T14:46:25Z</time>
      </trkpt>
      <trkpt lat="47.91244" lon="-3.71043">
        <ele>100.1</ele>
        <time>2020-06-07T14:46:26Z</time>
      </trkpt>
      <trkpt lat="47.91249" lon="-3.71041">
        <ele>100.1</ele>
        <time>2020-06-07T14:46:27Z</time>
      </trkpt>
      <trkpt lat="47.91253" lon="-3.71039">
        <ele>100.1</ele>
        <time>2020-06-07T14:46:28Z</time>
      </trkpt>
      <trkpt lat="47.91258" lon="-3.71037">
        <ele>100.1</ele>
        <time>2020-06-07T14:46:29Z</time>
      </trkpt>
      <trkpt lat="47.91264" lon="-3.71034">
        <ele>100.1</ele>
        <time>2020-06-07T14:46:30Z</time>
      </trkpt>
      <trkpt lat="47.91269" lon="-3.71032">
        <ele>100.1</ele>
        <time>2020-06-07T14:46:31Z</time>
      </trkpt>
      <trkpt lat="47.91274" lon="-3.7103">
        <ele>100</ele>
        <time>2020-06-07T14:46:32Z</time>
      </trkpt>
      <trkpt lat="47.9128" lon="-3.71028">
        <ele>100</ele>
        <time>2020-06-07T14:46:33Z</time>
      </trkpt>
      <trkpt lat="47.91286" lon="-3.71027">
        <ele>100</ele>
        <time>2020-06-07T14:46:34Z</time>
      </trkpt>
      <trkpt lat="47.91291" lon="-3.71025">
        <ele>100</ele>
        <time>2020-06-07T14:46:35Z</time>
      </trkpt>
      <trkpt lat="47.91297" lon="-3.71024">
        <ele>100.1</ele>
        <time>2020-06-07T14:46:36Z</time>
      </trkpt>
      <trkpt lat="47.91302" lon="-3.71023">
        <ele>100.1</ele>
        <time>2020-06-07T14:46:37Z</time>
      </trkpt>
      <trkpt lat="47.91307" lon="-3.71022">
        <ele>100.1</ele>
        <time>2020-06-07T14:46:38Z</time>
      </trkpt>
      <trkpt lat="47.91312" lon="-3.7102">
        <ele>100.1</ele>
        <time>2020-06-07T14:46:39Z</time>
      </trkpt>
      <trkpt lat="47.91316" lon="-3.71019">
        <ele>100.1</ele>
        <time>2020-06-07T14:46:40Z</time>
      </trkpt>
      <trkpt lat="47.91321" lon="-3.71018">
        <ele>100.1</ele>
        <time>2020-06-07T14:46:41Z</time>
      </trkpt>
      <trkpt lat="47.91326" lon="-3.71017">
        <ele>100</ele>
        <time>2020-06-07T14:46:42Z</time>
      </trkpt>
      <trkpt lat="47.91332" lon="-3.71016">
        <ele>99.9</ele>
        <time>2020-06-07T14:46:43Z</time>
      </trkpt>
      <trkpt lat="47.91338" lon="-3.71015">
        <ele>99.9</ele>
        <time>2020-06-07T14:46:44Z</time>
      </trkpt>
      <trkpt lat="47.91343" lon="-3.71013">
        <ele>99.8</ele>
        <time>2020-06-07T14:46:45Z</time>
      </trkpt>
      <trkpt lat="47.91347" lon="-3.71011">
        <ele>99.8</ele>
        <time>2020-06-07T14:46:46Z</time>
      </trkpt>
      <trkpt lat="47.91351" lon="-3.71011">
        <ele>99.7</ele>
        <time>2020-06-07T14:46:47Z</time>
      </trkpt>
      <trkpt lat="47.91357" lon="-3.71008">
        <ele>99.6</ele>
        <time>2020-06-07T14:46:48Z</time>
      </trkpt>
      <trkpt lat="47.91361" lon="-3.71007">
        <ele>99.5</ele>
        <time>2020-06-07T14:46:49Z</time>
      </trkpt>
      <trkpt lat="47.91365" lon="-3.71005">
        <ele>99.4</ele>
        <time>2020-06-07T14:46:50Z</time>
      </trkpt>
      <trkpt lat="47.91368" lon="-3.71006">
        <ele>99.3</ele>
        <time>2020-06-07T14:46:51Z</time>
      </trkpt>
      <trkpt lat="47.9137" lon="-3.71006">
        <ele>99.2</ele>
        <time>2020-06-07T14:46:52Z</time>
      </trkpt>
      <trkpt lat="47.91371" lon="-3.71006">
        <ele>99.2</ele>
        <time>2020-06-07T14:46:53Z</time>
      </trkpt>
      <trkpt lat="47.91372" lon="-3.71004">
        <ele>99.1</ele>
        <time>2020-06-07T14:46:54Z</time>
      </trkpt>
      <trkpt lat="47.91371" lon="-3.71004">
        <ele>99.1</ele>
        <time>2020-06-07T14:46:55Z</time>
      </trkpt>
      <trkpt lat="47.9137" lon="-3.71005">
        <ele>99</ele>
        <time>2020-06-07T14:46:56Z</time>
      </trkpt>
      <trkpt lat="47.9137" lon="-3.71004">
        <ele>99</ele>
        <time>2020-06-07T14:46:57Z</time>
      </trkpt>
      <trkpt lat="47.9137" lon="-3.71004">
        <ele>99</ele>
        <time>2020-06-07T14:46:58Z</time>
      </trkpt>
      <trkpt lat="47.9137" lon="-3.71005">
        <ele>99</ele>
        <time>2020-06-07T14:46:59Z</time>
      </trkpt>
      <trkpt lat="47.9137" lon="-3.71004">
        <ele>99</ele>
        <time>2020-06-07T14:47:00Z</time>
      </trkpt>
      <trkpt lat="47.9137" lon="-3.71003">
        <ele>99</ele>
        <time>2020-06-07T14:47:01Z</time>
      </trkpt>
      <trkpt lat="47.9137" lon="-3.71003">
        <ele>99</ele>
        <time>2020-06-07T14:47:02Z</time>
      </trkpt>
      <trkpt lat="47.91369" lon="-3.71003">
        <ele>98.9</ele>
        <time>2020-06-07T14:47:03Z</time>
      </trkpt>
      <trkpt lat="47.91369" lon="-3.71003">
        <ele>98.9</ele>
        <time>2020-06-07T14:47:04Z</time>
      </trkpt>
      <trkpt lat="47.91369" lon="-3.71003">
        <ele>98.9</ele>
        <time>2020-06-07T14:47:05Z</time>
      </trkpt>
      <trkpt lat="47.91369" lon="-3.71003">
        <ele>98.9</ele>
        <time>2020-06-07T14:47:06Z</time>
      </trkpt>
      <trkpt lat="47.91369" lon="-3.71003">
        <ele>98.9</ele>
        <time>2020-06-07T14:47:07Z</time>
      </trkpt>
      <trkpt lat="47.91368" lon="-3.71003">
        <ele>98.9</ele>
        <time>2020-06-07T14:47:08Z</time>
      </trkpt>
      <trkpt lat="47.91369" lon="-3.71004">
        <ele>98.9</ele>
        <time>2020-06-07T14:47:09Z</time>
      </trkpt>
      <trkpt lat="47.91369" lon="-3.71005">
        <ele>98.9</ele>
        <time>2020-06-07T14:47:10Z</time>
      </trkpt>
      <trkpt lat="47.9137" lon="-3.71006">
        <ele>98.8</ele>
        <time>2020-06-07T14:47:11Z</time>
      </trkpt>
      <trkpt lat="47.9137" lon="-3.71007">
        <ele>98.8</ele>
        <time>2020-06-07T14:47:12Z</time>
      </trkpt>
      <trkpt lat="47.91371" lon="-3.71007">
        <ele>98.8</ele>
        <time>2020-06-07T14:47:46Z</time>
      </trkpt>
      <trkpt lat="47.91371" lon="-3.71008">
        <ele>98.7</ele>
        <time>2020-06-07T14:47:47Z</time>
      </trkpt>
      <trkpt lat="47.91374" lon="-3.71006">
        <ele>98.6</ele>
        <time>2020-06-07T14:47:48Z</time>
      </trkpt>
      <trkpt lat="47.91377" lon="-3.71004">
        <ele>98.5</ele>
        <time>2020-06-07T14:47:49Z</time>
      </trkpt>
      <trkpt lat="47.91382" lon="-3.71002">
        <ele>98.3</ele>
        <time>2020-06-07T14:47:50Z</time>
      </trkpt>
      <trkpt lat="47.91387" lon="-3.71">
        <ele>98.1</ele>
        <time>2020-06-07T14:47:51Z</time>
      </trkpt>
      <trkpt lat="47.91391" lon="-3.70999">
        <ele>97.9</ele>
        <time>2020-06-07T14:47:52Z</time>
      </trkpt>
      <trkpt lat="47.91397" lon="-3.70997">
        <ele>97.6</ele>
        <time>2020-06-07T14:47:53Z</time>
      </trkpt>
      <trkpt lat="47.91402" lon="-3.70996">
        <ele>97.4</ele>
        <time>2020-06-07T14:47:54Z</time>
      </trkpt>
      <trkpt lat="47.91407" lon="-3.70994">
        <ele>97.1</ele>
        <time>2020-06-07T14:47:55Z</time>
      </trkpt>
      <trkpt lat="47.91412" lon="-3.70991">
        <ele>96.8</ele>
        <time>2020-06-07T14:47:56Z</time>
      </trkpt>
      <trkpt lat="47.91418" lon="-3.7099">
        <ele>96.5</ele>
        <time>2020-06-07T14:47:57Z</time>
      </trkpt>
      <trkpt lat="47.91424" lon="-3.70988">
        <ele>96.2</ele>
        <time>2020-06-07T14:47:58Z</time>
      </trkpt>
      <trkpt lat="47.91431" lon="-3.70986">
        <ele>95.8</ele>
        <time>2020-06-07T14:47:59Z</time>
      </trkpt>
      <trkpt lat="47.91439" lon="-3.70983">
        <ele>95.3</ele>
        <time>2020-06-07T14:48:00Z</time>
      </trkpt>
      <trkpt lat="47.91447" lon="-3.7098">
        <ele>94.8</ele>
        <time>2020-06-07T14:48:01Z</time>
      </trkpt>
      <trkpt lat="47.91455" lon="-3.70978">
        <ele>94.3</ele>
        <time>2020-06-07T14:48:02Z</time>
      </trkpt>
      <trkpt lat="47.91463" lon="-3.70975">
        <ele>93.9</ele>
        <time>2020-06-07T14:48:03Z</time>
      </trkpt>
      <trkpt lat="47.91473" lon="-3.70972">
        <ele>93.5</ele>
        <time>2020-06-07T14:48:04Z</time>
      </trkpt>
      <trkpt lat="47.91483" lon="-3.70969">
        <ele>93.3</ele>
        <time>2020-06-07T14:48:05Z</time>
      </trkpt>
      <trkpt lat="47.91492" lon="-3.70966">
        <ele>93.1</ele>
        <time>2020-06-07T14:48:06Z</time>
      </trkpt>
      <trkpt lat="47.91501" lon="-3.70964">
        <ele>93.1</ele>
        <time>2020-06-07T14:48:07Z</time>
      </trkpt>
      <trkpt lat="47.91511" lon="-3.70962">
        <ele>93.2</ele>
        <time>2020-06-07T14:48:08Z</time>
      </trkpt>
      <trkpt lat="47.9152" lon="-3.7096">
        <ele>93.3</ele>
        <time>2020-06-07T14:48:09Z</time>
      </trkpt>
      <trkpt lat="47.91529" lon="-3.70958">
        <ele>93.4</ele>
        <time>2020-06-07T14:48:10Z</time>
      </trkpt>
      <trkpt lat="47.91537" lon="-3.70956">
        <ele>93.5</ele>
        <time>2020-06-07T14:48:11Z</time>
      </trkpt>
      <trkpt lat="47.91545" lon="-3.70956">
        <ele>93.7</ele>
        <time>2020-06-07T14:48:12Z</time>
      </trkpt>
      <trkpt lat="47.91552" lon="-3.70955">
        <ele>93.9</ele>
        <time>2020-06-07T14:48:13Z</time>
      </trkpt>
      <trkpt lat="47.9156" lon="-3.70954">
        <ele>94.2</ele>
        <time>2020-06-07T14:48:14Z</time>
      </trkpt>
      <trkpt lat="47.91567" lon="-3.70954">
        <ele>94.4</ele>
        <time>2020-06-07T14:48:15Z</time>
      </trkpt>
      <trkpt lat="47.91574" lon="-3.70953">
        <ele>94.7</ele>
        <time>2020-06-07T14:48:16Z</time>
      </trkpt>
      <trkpt lat="47.9158" lon="-3.70953">
        <ele>94.9</ele>
        <time>2020-06-07T14:48:17Z</time>
      </trkpt>
      <trkpt lat="47.91586" lon="-3.70952">
        <ele>95.1</ele>
        <time>2020-06-07T14:48:18Z</time>
      </trkpt>
      <trkpt lat="47.91592" lon="-3.70952">
        <ele>95.4</ele>
        <time>2020-06-07T14:48:19Z</time>
      </trkpt>
      <trkpt lat="47.91598" lon="-3.70952">
        <ele>95.6</ele>
        <time>2020-06-07T14:48:20Z</time>
      </trkpt>
      <trkpt lat="47.91604" lon="-3.70951">
        <ele>95.8</ele>
        <time>2020-06-07T14:48:21Z</time>
      </trkpt>
      <trkpt lat="47.91609" lon="-3.70951">
        <ele>96</ele>
        <time>2020-06-07T14:48:22Z</time>
      </trkpt>
      <trkpt lat="47.91614" lon="-3.70951">
        <ele>96.1</ele>
        <time>2020-06-07T14:48:23Z</time>
      </trkpt>
      <trkpt lat="47.9162" lon="-3.70951">
        <ele>96.2</ele>
        <time>2020-06-07T14:48:24Z</time>
      </trkpt>
      <trkpt lat="47.91624" lon="-3.70952">
        <ele>96.3</ele>
        <time>2020-06-07T14:48:25Z</time>
      </trkpt>
      <trkpt lat="47.91629" lon="-3.70953">
        <ele>96.4</ele>
        <time>2020-06-07T14:48:26Z</time>
      </trkpt>
      <trkpt lat="47.91634" lon="-3.70953">
        <ele>96.5</ele>
        <time>2020-06-07T14:48:27Z</time>
      </trkpt>
      <trkpt lat="47.91639" lon="-3.70953">
        <ele>96.6</ele>
        <time>2020-06-07T14:48:28Z</time>
      </trkpt>
      <trkpt lat="47.91643" lon="-3.70954">
        <ele>96.7</ele>
        <time>2020-06-07T14:48:29Z</time>
      </trkpt>
      <trkpt lat="47.91649" lon="-3.70954">
        <ele>96.7</ele>
        <time>2020-06-07T14:48:30Z</time>
      </trkpt>
      <trkpt lat="47.91654" lon="-3.70954">
        <ele>96.7</ele>
        <time>2020-06-07T14:48:31Z</time>
      </trkpt>
      <trkpt lat="47.91659" lon="-3.70954">
        <ele>96.7</ele>
        <time>2020-06-07T14:48:32Z</time>
      </trkpt>
      <trkpt lat="47.91663" lon="-3.70954">
        <ele>96.7</ele>
        <time>2020-06-07T14:48:33Z</time>
      </trkpt>
      <trkpt lat="47.91667" lon="-3.70954">
        <ele>96.7</ele>
        <time>2020-06-07T14:48:34Z</time>
      </trkpt>
      <trkpt lat="47.91673" lon="-3.70954">
        <ele>96.7</ele>
        <time>2020-06-07T14:48:35Z</time>
      </trkpt>
      <trkpt lat="47.91677" lon="-3.70954">
        <ele>96.7</ele>
        <time>2020-06-07T14:48:36Z</time>
      </trkpt>
      <trkpt lat="47.91683" lon="-3.70952">
        <ele>96.7</ele>
        <time>2020-06-07T14:48:37Z</time>
      </trkpt>
      <trkpt lat="47.9169" lon="-3.70952">
        <ele>96.6</ele>
        <time>2020-06-07T14:48:38Z</time>
      </trkpt>
      <trkpt lat="47.91695" lon="-3.70951">
        <ele>96.6</ele>
        <time>2020-06-07T14:48:39Z</time>
      </trkpt>
      <trkpt lat="47.91701" lon="-3.70953">
        <ele>96.6</ele>
        <time>2020-06-07T14:48:40Z</time>
      </trkpt>
      <trkpt lat="47.91707" lon="-3.70954">
        <ele>96.5</ele>
        <time>2020-06-07T14:48:41Z</time>
      </trkpt>
      <trkpt lat="47.91713" lon="-3.70953">
        <ele>96.4</ele>
        <time>2020-06-07T14:48:42Z</time>
      </trkpt>
      <trkpt lat="47.9172" lon="-3.70952">
        <ele>96.4</ele>
        <time>2020-06-07T14:48:43Z</time>
      </trkpt>
      <trkpt lat="47.91727" lon="-3.70951">
        <ele>96.4</ele>
        <time>2020-06-07T14:48:44Z</time>
      </trkpt>
      <trkpt lat="47.91735" lon="-3.7095">
        <ele>96.4</ele>
        <time>2020-06-07T14:48:45Z</time>
      </trkpt>
      <trkpt lat="47.91741" lon="-3.70949">
        <ele>96.4</ele>
        <time>2020-06-07T14:48:46Z</time>
      </trkpt>
      <trkpt lat="47.91747" lon="-3.70949">
        <ele>96.4</ele>
        <time>2020-06-07T14:48:47Z</time>
      </trkpt>
      <trkpt lat="47.91753" lon="-3.7095">
        <ele>96.4</ele>
        <time>2020-06-07T14:48:48Z</time>
      </trkpt>
      <trkpt lat="47.91758" lon="-3.7095">
        <ele>96.4</ele>
        <time>2020-06-07T14:48:49Z</time>
      </trkpt>
      <trkpt lat="47.91765" lon="-3.7095">
        <ele>96.4</ele>
        <time>2020-06-07T14:48:50Z</time>
      </trkpt>
      <trkpt lat="47.9177" lon="-3.70951">
        <ele>96.3</ele>
        <time>2020-06-07T14:48:51Z</time>
      </trkpt>
      <trkpt lat="47.91776" lon="-3.70951">
        <ele>96.3</ele>
        <time>2020-06-07T14:48:52Z</time>
      </trkpt>
      <trkpt lat="47.91783" lon="-3.70951">
        <ele>96.3</ele>
        <time>2020-06-07T14:48:53Z</time>
      </trkpt>
      <trkpt lat="47.91791" lon="-3.7095">
        <ele>96.3</ele>
        <time>2020-06-07T14:48:54Z</time>
      </trkpt>
      <trkpt lat="47.91796" lon="-3.70949">
        <ele>96.3</ele>
        <time>2020-06-07T14:48:55Z</time>
      </trkpt>
      <trkpt lat="47.91803" lon="-3.70949">
        <ele>96.3</ele>
        <time>2020-06-07T14:48:56Z</time>
      </trkpt>
      <trkpt lat="47.91809" lon="-3.70949">
        <ele>96.4</ele>
        <time>2020-06-07T14:48:57Z</time>
      </trkpt>
      <trkpt lat="47.91815" lon="-3.70949">
        <ele>96.4</ele>
        <time>2020-06-07T14:48:58Z</time>
      </trkpt>
      <trkpt lat="47.91822" lon="-3.70949">
        <ele>96.5</ele>
        <time>2020-06-07T14:48:59Z</time>
      </trkpt>
      <trkpt lat="47.91829" lon="-3.70948">
        <ele>96.6</ele>
        <time>2020-06-07T14:49:00Z</time>
      </trkpt>
      <trkpt lat="47.91835" lon="-3.70948">
        <ele>96.7</ele>
        <time>2020-06-07T14:49:01Z</time>
      </trkpt>
      <trkpt lat="47.91842" lon="-3.70948">
        <ele>96.8</ele>
        <time>2020-06-07T14:49:02Z</time>
      </trkpt>
      <trkpt lat="47.91849" lon="-3.70948">
        <ele>97</ele>
        <time>2020-06-07T14:49:03Z</time>
      </trkpt>
      <trkpt lat="47.91856" lon="-3.70947">
        <ele>97.1</ele>
        <time>2020-06-07T14:49:04Z</time>
      </trkpt>
      <trkpt lat="47.91862" lon="-3.70947">
        <ele>97.2</ele>
        <time>2020-06-07T14:49:05Z</time>
      </trkpt>
      <trkpt lat="47.91868" lon="-3.70947">
        <ele>97.4</ele>
        <time>2020-06-07T14:49:06Z</time>
      </trkpt>
      <trkpt lat="47.91874" lon="-3.70947">
        <ele>97.5</ele>
        <time>2020-06-07T14:49:07Z</time>
      </trkpt>
      <trkpt lat="47.9188" lon="-3.70946">
        <ele>97.7</ele>
        <time>2020-06-07T14:49:08Z</time>
      </trkpt>
      <trkpt lat="47.91886" lon="-3.70946">
        <ele>97.9</ele>
        <time>2020-06-07T14:49:09Z</time>
      </trkpt>
      <trkpt lat="47.91891" lon="-3.70946">
        <ele>98.1</ele>
        <time>2020-06-07T14:49:10Z</time>
      </trkpt>
      <trkpt lat="47.91896" lon="-3.70947">
        <ele>98.3</ele>
        <time>2020-06-07T14:49:11Z</time>
      </trkpt>
      <trkpt lat="47.91901" lon="-3.70947">
        <ele>98.5</ele>
        <time>2020-06-07T14:49:12Z</time>
      </trkpt>
      <trkpt lat="47.91907" lon="-3.70948">
        <ele>98.7</ele>
        <time>2020-06-07T14:49:13Z</time>
      </trkpt>
      <trkpt lat="47.91911" lon="-3.70948">
        <ele>98.9</ele>
        <time>2020-06-07T14:49:14Z</time>
      </trkpt>
      <trkpt lat="47.91916" lon="-3.70947">
        <ele>99.1</ele>
        <time>2020-06-07T14:49:15Z</time>
      </trkpt>
      <trkpt lat="47.91921" lon="-3.70946">
        <ele>99.3</ele>
        <time>2020-06-07T14:49:16Z</time>
      </trkpt>
      <trkpt lat="47.91926" lon="-3.70946">
        <ele>99.5</ele>
        <time>2020-06-07T14:49:17Z</time>
      </trkpt>
      <trkpt lat="47.91931" lon="-3.70947">
        <ele>99.6</ele>
        <time>2020-06-07T14:49:18Z</time>
      </trkpt>
      <trkpt lat="47.91936" lon="-3.70947">
        <ele>99.8</ele>
        <time>2020-06-07T14:49:19Z</time>
      </trkpt>
      <trkpt lat="47.91941" lon="-3.70947">
        <ele>100</ele>
        <time>2020-06-07T14:49:20Z</time>
      </trkpt>
      <trkpt lat="47.91946" lon="-3.70947">
        <ele>100.2</ele>
        <time>2020-06-07T14:49:21Z</time>
      </trkpt>
      <trkpt lat="47.9195" lon="-3.70947">
        <ele>100.3</ele>
        <time>2020-06-07T14:49:22Z</time>
      </trkpt>
      <trkpt lat="47.91955" lon="-3.70947">
        <ele>100.5</ele>
        <time>2020-06-07T14:49:23Z</time>
      </trkpt>
      <trkpt lat="47.9196" lon="-3.70947">
        <ele>100.6</ele>
        <time>2020-06-07T14:49:24Z</time>
      </trkpt>
      <trkpt lat="47.91965" lon="-3.70948">
        <ele>100.8</ele>
        <time>2020-06-07T14:49:25Z</time>
      </trkpt>
      <trkpt lat="47.9197" lon="-3.70948">
        <ele>100.9</ele>
        <time>2020-06-07T14:49:26Z</time>
      </trkpt>
      <trkpt lat="47.91973" lon="-3.70949">
        <ele>101</ele>
        <time>2020-06-07T14:49:27Z</time>
      </trkpt>
      <trkpt lat="47.91976" lon="-3.70949">
        <ele>101.1</ele>
        <time>2020-06-07T14:49:28Z</time>
      </trkpt>
      <trkpt lat="47.91979" lon="-3.70949">
        <ele>101.2</ele>
        <time>2020-06-07T14:49:29Z</time>
      </trkpt>
      <trkpt lat="47.91983" lon="-3.7095">
        <ele>101.2</ele>
        <time>2020-06-07T14:49:30Z</time>
      </trkpt>
      <trkpt lat="47.91988" lon="-3.7095">
        <ele>101.3</ele>
        <time>2020-06-07T14:49:31Z</time>
      </trkpt>
      <trkpt lat="47.91993" lon="-3.70949">
        <ele>101.4</ele>
        <time>2020-06-07T14:49:32Z</time>
      </trkpt>
      <trkpt lat="47.91998" lon="-3.70949">
        <ele>101.5</ele>
        <time>2020-06-07T14:49:33Z</time>
      </trkpt>
      <trkpt lat="47.92003" lon="-3.70948">
        <ele>101.6</ele>
        <time>2020-06-07T14:49:34Z</time>
      </trkpt>
      <trkpt lat="47.92009" lon="-3.70948">
        <ele>101.7</ele>
        <time>2020-06-07T14:49:35Z</time>
      </trkpt>
      <trkpt lat="47.92012" lon="-3.70947">
        <ele>101.8</ele>
        <time>2020-06-07T14:49:36Z</time>
      </trkpt>
      <trkpt lat="47.92017" lon="-3.70948">
        <ele>101.8</ele>
        <time>2020-06-07T14:49:37Z</time>
      </trkpt>
      <trkpt lat="47.9202" lon="-3.70948">
        <ele>101.9</ele>
        <time>2020-06-07T14:49:38Z</time>
      </trkpt>
      <trkpt lat="47.92024" lon="-3.70948">
        <ele>101.9</ele>
        <time>2020-06-07T14:49:39Z</time>
      </trkpt>
      <trkpt lat="47.92028" lon="-3.70948">
        <ele>101.9</ele>
        <time>2020-06-07T14:49:40Z</time>
      </trkpt>
      <trkpt lat="47.92033" lon="-3.70948">
        <ele>101.9</ele>
        <time>2020-06-07T14:49:41Z</time>
      </trkpt>
      <trkpt lat="47.92037" lon="-3.70948">
        <ele>101.9</ele>
        <time>2020-06-07T14:49:42Z</time>
      </trkpt>
      <trkpt lat="47.9204" lon="-3.70948">
        <ele>101.8</ele>
        <time>2020-06-07T14:49:43Z</time>
      </trkpt>
      <trkpt lat="47.92045" lon="-3.70948">
        <ele>101.7</ele>
        <time>2020-06-07T14:49:44Z</time>
      </trkpt>
      <trkpt lat="47.92049" lon="-3.70947">
        <ele>101.6</ele>
        <time>2020-06-07T14:49:45Z</time>
      </trkpt>
      <trkpt lat="47.92055" lon="-3.70947">
        <ele>101.5</ele>
        <time>2020-06-07T14:49:46Z</time>
      </trkpt>
      <trkpt lat="47.9206" lon="-3.70947">
        <ele>101.3</ele>
        <time>2020-06-07T14:49:47Z</time>
      </trkpt>
      <trkpt lat="47.92066" lon="-3.70947">
        <ele>101.2</ele>
        <time>2020-06-07T14:49:48Z</time>
      </trkpt>
      <trkpt lat="47.92073" lon="-3.70947">
        <ele>100.9</ele>
        <time>2020-06-07T14:49:49Z</time>
      </trkpt>
      <trkpt lat="47.92079" lon="-3.70946">
        <ele>100.7</ele>
        <time>2020-06-07T14:49:50Z</time>
      </trkpt>
      <trkpt lat="47.92085" lon="-3.70945">
        <ele>100.5</ele>
        <time>2020-06-07T14:49:51Z</time>
      </trkpt>
      <trkpt lat="47.92092" lon="-3.70945">
        <ele>100.3</ele>
        <time>2020-06-07T14:49:52Z</time>
      </trkpt>
      <trkpt lat="47.92099" lon="-3.70945">
        <ele>100</ele>
        <time>2020-06-07T14:49:53Z</time>
      </trkpt>
      <trkpt lat="47.92107" lon="-3.70945">
        <ele>99.6</ele>
        <time>2020-06-07T14:49:54Z</time>
      </trkpt>
      <trkpt lat="47.92115" lon="-3.70945">
        <ele>99.2</ele>
        <time>2020-06-07T14:49:55Z</time>
      </trkpt>
      <trkpt lat="47.92123" lon="-3.70946">
        <ele>98.8</ele>
        <time>2020-06-07T14:49:56Z</time>
      </trkpt>
      <trkpt lat="47.9213" lon="-3.70945">
        <ele>98.4</ele>
        <time>2020-06-07T14:49:57Z</time>
      </trkpt>
      <trkpt lat="47.92139" lon="-3.70945">
        <ele>98</ele>
        <time>2020-06-07T14:49:58Z</time>
      </trkpt>
      <trkpt lat="47.92147" lon="-3.70945">
        <ele>97.4</ele>
        <time>2020-06-07T14:49:59Z</time>
      </trkpt>
      <trkpt lat="47.92156" lon="-3.70945">
        <ele>96.9</ele>
        <time>2020-06-07T14:50:00Z</time>
      </trkpt>
      <trkpt lat="47.92165" lon="-3.70945">
        <ele>96.2</ele>
        <time>2020-06-07T14:50:01Z</time>
      </trkpt>
      <trkpt lat="47.92175" lon="-3.70945">
        <ele>95.5</ele>
        <time>2020-06-07T14:50:02Z</time>
      </trkpt>
      <trkpt lat="47.92184" lon="-3.70944">
        <ele>94.6</ele>
        <time>2020-06-07T14:50:03Z</time>
      </trkpt>
      <trkpt lat="47.92194" lon="-3.70942">
        <ele>93.7</ele>
        <time>2020-06-07T14:50:04Z</time>
      </trkpt>
      <trkpt lat="47.92204" lon="-3.70941">
        <ele>92.9</ele>
        <time>2020-06-07T14:50:05Z</time>
      </trkpt>
      <trkpt lat="47.92214" lon="-3.7094">
        <ele>92</ele>
        <time>2020-06-07T14:50:06Z</time>
      </trkpt>
      <trkpt lat="47.92225" lon="-3.70938">
        <ele>91.1</ele>
        <time>2020-06-07T14:50:07Z</time>
      </trkpt>
      <trkpt lat="47.92236" lon="-3.70933">
        <ele>90.1</ele>
        <time>2020-06-07T14:50:08Z</time>
      </trkpt>
      <trkpt lat="47.92247" lon="-3.70929">
        <ele>89.1</ele>
        <time>2020-06-07T14:50:09Z</time>
      </trkpt>
      <trkpt lat="47.92259" lon="-3.70924">
        <ele>88.1</ele>
        <time>2020-06-07T14:50:10Z</time>
      </trkpt>
      <trkpt lat="47.92271" lon="-3.70919">
        <ele>87.1</ele>
        <time>2020-06-07T14:50:11Z</time>
      </trkpt>
      <trkpt lat="47.92283" lon="-3.70915">
        <ele>85.9</ele>
        <time>2020-06-07T14:50:12Z</time>
      </trkpt>
      <trkpt lat="47.92295" lon="-3.7091">
        <ele>84.7</ele>
        <time>2020-06-07T14:50:13Z</time>
      </trkpt>
      <trkpt lat="47.92307" lon="-3.70905">
        <ele>83.5</ele>
        <time>2020-06-07T14:50:14Z</time>
      </trkpt>
      <trkpt lat="47.92319" lon="-3.709">
        <ele>82.3</ele>
        <time>2020-06-07T14:50:15Z</time>
      </trkpt>
      <trkpt lat="47.92331" lon="-3.70896">
        <ele>81.2</ele>
        <time>2020-06-07T14:50:16Z</time>
      </trkpt>
      <trkpt lat="47.92343" lon="-3.7089">
        <ele>80.1</ele>
        <time>2020-06-07T14:50:17Z</time>
      </trkpt>
      <trkpt lat="47.92356" lon="-3.70884">
        <ele>79</ele>
        <time>2020-06-07T14:50:18Z</time>
      </trkpt>
      <trkpt lat="47.92368" lon="-3.70878">
        <ele>78.1</ele>
        <time>2020-06-07T14:50:19Z</time>
      </trkpt>
      <trkpt lat="47.92381" lon="-3.70872">
        <ele>77.3</ele>
        <time>2020-06-07T14:50:20Z</time>
      </trkpt>
      <trkpt lat="47.92394" lon="-3.70865">
        <ele>76.7</ele>
        <time>2020-06-07T14:50:21Z</time>
      </trkpt>
      <trkpt lat="47.92406" lon="-3.70859">
        <ele>76.1</ele>
        <time>2020-06-07T14:50:22Z</time>
      </trkpt>
      <trkpt lat="47.92418" lon="-3.70853">
        <ele>75.6</ele>
        <time>2020-06-07T14:50:23Z</time>
      </trkpt>
      <trkpt lat="47.9243" lon="-3.70846">
        <ele>75.2</ele>
        <time>2020-06-07T14:50:24Z</time>
      </trkpt>
      <trkpt lat="47.92442" lon="-3.7084">
        <ele>74.8</ele>
        <time>2020-06-07T14:50:25Z</time>
      </trkpt>
      <trkpt lat="47.92453" lon="-3.70836">
        <ele>74.5</ele>
        <time>2020-06-07T14:50:26Z</time>
      </trkpt>
      <trkpt lat="47.92465" lon="-3.70832">
        <ele>74.4</ele>
        <time>2020-06-07T14:50:27Z</time>
      </trkpt>
      <trkpt lat="47.92476" lon="-3.70828">
        <ele>74.4</ele>
        <time>2020-06-07T14:50:28Z</time>
      </trkpt>
      <trkpt lat="47.92488" lon="-3.70825">
        <ele>74.5</ele>
        <time>2020-06-07T14:50:29Z</time>
      </trkpt>
      <trkpt lat="47.92499" lon="-3.70822">
        <ele>74.6</ele>
        <time>2020-06-07T14:50:30Z</time>
      </trkpt>
      <trkpt lat="47.92509" lon="-3.70819">
        <ele>74.8</ele>
        <time>2020-06-07T14:50:31Z</time>
      </trkpt>
      <trkpt lat="47.9252" lon="-3.70819">
        <ele>74.9</ele>
        <time>2020-06-07T14:50:32Z</time>
      </trkpt>
      <trkpt lat="47.9253" lon="-3.70818">
        <ele>75.1</ele>
        <time>2020-06-07T14:50:33Z</time>
      </trkpt>
      <trkpt lat="47.92539" lon="-3.70817">
        <ele>75.4</ele>
        <time>2020-06-07T14:50:34Z</time>
      </trkpt>
      <trkpt lat="47.92549" lon="-3.70818">
        <ele>75.7</ele>
        <time>2020-06-07T14:50:35Z</time>
      </trkpt>
      <trkpt lat="47.92558" lon="-3.70818">
        <ele>76.1</ele>
        <time>2020-06-07T14:50:36Z</time>
      </trkpt>
      <trkpt lat="47.92567" lon="-3.70819">
        <ele>76.4</ele>
        <time>2020-06-07T14:50:37Z</time>
      </trkpt>
      <trkpt lat="47.92575" lon="-3.70819">
        <ele>76.8</ele>
        <time>2020-06-07T14:50:38Z</time>
      </trkpt>
      <trkpt lat="47.92583" lon="-3.7082">
        <ele>77.2</ele>
        <time>2020-06-07T14:50:39Z</time>
      </trkpt>
      <trkpt lat="47.92591" lon="-3.7082">
        <ele>77.6</ele>
        <time>2020-06-07T14:50:40Z</time>
      </trkpt>
      <trkpt lat="47.92598" lon="-3.7082">
        <ele>78</ele>
        <time>2020-06-07T14:50:41Z</time>
      </trkpt>
      <trkpt lat="47.92605" lon="-3.7082">
        <ele>78.4</ele>
        <time>2020-06-07T14:50:42Z</time>
      </trkpt>
      <trkpt lat="47.92611" lon="-3.70819">
        <ele>78.8</ele>
        <time>2020-06-07T14:50:43Z</time>
      </trkpt>
      <trkpt lat="47.92618" lon="-3.70818">
        <ele>79.1</ele>
        <time>2020-06-07T14:50:44Z</time>
      </trkpt>
      <trkpt lat="47.92623" lon="-3.70816">
        <ele>79.5</ele>
        <time>2020-06-07T14:50:45Z</time>
      </trkpt>
      <trkpt lat="47.92629" lon="-3.70814">
        <ele>79.8</ele>
        <time>2020-06-07T14:50:46Z</time>
      </trkpt>
      <trkpt lat="47.92634" lon="-3.70813">
        <ele>80.1</ele>
        <time>2020-06-07T14:50:47Z</time>
      </trkpt>
      <trkpt lat="47.9264" lon="-3.70811">
        <ele>80.4</ele>
        <time>2020-06-07T14:50:48Z</time>
      </trkpt>
      <trkpt lat="47.92645" lon="-3.7081">
        <ele>80.7</ele>
        <time>2020-06-07T14:50:49Z</time>
      </trkpt>
      <trkpt lat="47.9265" lon="-3.70808">
        <ele>81</ele>
        <time>2020-06-07T14:50:50Z</time>
      </trkpt>
      <trkpt lat="47.92655" lon="-3.70806">
        <ele>81.3</ele>
        <time>2020-06-07T14:50:51Z</time>
      </trkpt>
      <trkpt lat="47.92658" lon="-3.70803">
        <ele>81.6</ele>
        <time>2020-06-07T14:50:52Z</time>
      </trkpt>
      <trkpt lat="47.92661" lon="-3.708">
        <ele>81.9</ele>
        <time>2020-06-07T14:50:53Z</time>
      </trkpt>
      <trkpt lat="47.92664" lon="-3.70798">
        <ele>82.1</ele>
        <time>2020-06-07T14:50:54Z</time>
      </trkpt>
      <trkpt lat="47.92667" lon="-3.70795">
        <ele>82.3</ele>
        <time>2020-06-07T14:50:55Z</time>
      </trkpt>
      <trkpt lat="47.9267" lon="-3.70791">
        <ele>82.5</ele>
        <time>2020-06-07T14:50:56Z</time>
      </trkpt>
      <trkpt lat="47.92673" lon="-3.70789">
        <ele>82.7</ele>
        <time>2020-06-07T14:50:57Z</time>
      </trkpt>
      <trkpt lat="47.92675" lon="-3.70784">
        <ele>83</ele>
        <time>2020-06-07T14:50:58Z</time>
      </trkpt>
      <trkpt lat="47.92678" lon="-3.70781">
        <ele>83.2</ele>
        <time>2020-06-07T14:50:59Z</time>
      </trkpt>
      <trkpt lat="47.92681" lon="-3.70779">
        <ele>83.3</ele>
        <time>2020-06-07T14:51:00Z</time>
      </trkpt>
      <trkpt lat="47.92683" lon="-3.70777">
        <ele>83.5</ele>
        <time>2020-06-07T14:51:01Z</time>
      </trkpt>
      <trkpt lat="47.92686" lon="-3.70774">
        <ele>83.7</ele>
        <time>2020-06-07T14:51:02Z</time>
      </trkpt>
      <trkpt lat="47.92688" lon="-3.7077">
        <ele>83.9</ele>
        <time>2020-06-07T14:51:03Z</time>
      </trkpt>
      <trkpt lat="47.9269" lon="-3.70767">
        <ele>84.1</ele>
        <time>2020-06-07T14:51:04Z</time>
      </trkpt>
      <trkpt lat="47.92692" lon="-3.70763">
        <ele>84.3</ele>
        <time>2020-06-07T14:51:05Z</time>
      </trkpt>
      <trkpt lat="47.92694" lon="-3.7076">
        <ele>84.4</ele>
        <time>2020-06-07T14:51:06Z</time>
      </trkpt>
      <trkpt lat="47.92696" lon="-3.70757">
        <ele>84.6</ele>
        <time>2020-06-07T14:51:07Z</time>
      </trkpt>
      <trkpt lat="47.92697" lon="-3.70756">
        <ele>84.7</ele>
        <time>2020-06-07T14:51:08Z</time>
      </trkpt>
      <trkpt lat="47.92698" lon="-3.70753">
        <ele>84.8</ele>
        <time>2020-06-07T14:51:09Z</time>
      </trkpt>
      <trkpt lat="47.92699" lon="-3.70753">
        <ele>84.8</ele>
        <time>2020-06-07T14:51:10Z</time>
      </trkpt>
      <trkpt lat="47.92698" lon="-3.70755">
        <ele>84.9</ele>
        <time>2020-06-07T14:51:11Z</time>
      </trkpt>
      <trkpt lat="47.92696" lon="-3.70756">
        <ele>85</ele>
        <time>2020-06-07T14:51:12Z</time>
      </trkpt>
      <trkpt lat="47.92696" lon="-3.70755">
        <ele>85</ele>
        <time>2020-06-07T14:51:13Z</time>
      </trkpt>
      <trkpt lat="47.92697" lon="-3.70754">
        <ele>85.1</ele>
        <time>2020-06-07T14:51:14Z</time>
      </trkpt>
      <trkpt lat="47.92697" lon="-3.70753">
        <ele>85.1</ele>
        <time>2020-06-07T14:51:15Z</time>
      </trkpt>
      <trkpt lat="47.92697" lon="-3.70753">
        <ele>85.1</ele>
        <time>2020-06-07T14:51:16Z</time>
      </trkpt>
      <trkpt lat="47.92697" lon="-3.70752">
        <ele>85.1</ele>
        <time>2020-06-07T14:51:17Z</time>
      </trkpt>
      <trkpt lat="47.92696" lon="-3.70752">
        <ele>85.1</ele>
        <time>2020-06-07T14:51:18Z</time>
      </trkpt>
      <trkpt lat="47.92696" lon="-3.70752">
        <ele>85.1</ele>
        <time>2020-06-07T14:51:19Z</time>
      </trkpt>
      <trkpt lat="47.92696" lon="-3.70752">
        <ele>85.1</ele>
        <time>2020-06-07T14:51:20Z</time>
      </trkpt>
      <trkpt lat="47.92702" lon="-3.70749">
        <ele>85.4</ele>
        <time>2020-06-07T14:51:47Z</time>
      </trkpt>
      <trkpt lat="47.92704" lon="-3.70746">
        <ele>85.5</ele>
        <time>2020-06-07T14:51:48Z</time>
      </trkpt>
      <trkpt lat="47.92706" lon="-3.70743">
        <ele>85.6</ele>
        <time>2020-06-07T14:51:49Z</time>
      </trkpt>
      <trkpt lat="47.9271" lon="-3.7074">
        <ele>85.7</ele>
        <time>2020-06-07T14:51:50Z</time>
      </trkpt>
      <trkpt lat="47.92711" lon="-3.70739">
        <ele>85.8</ele>
        <time>2020-06-07T14:51:51Z</time>
      </trkpt>
      <trkpt lat="47.92712" lon="-3.70736">
        <ele>86</ele>
        <time>2020-06-07T14:51:52Z</time>
      </trkpt>
      <trkpt lat="47.92716" lon="-3.70733">
        <ele>86.3</ele>
        <time>2020-06-07T14:51:53Z</time>
      </trkpt>
      <trkpt lat="47.92717" lon="-3.70732">
        <ele>86.4</ele>
        <time>2020-06-07T14:51:54Z</time>
      </trkpt>
      <trkpt lat="47.92719" lon="-3.70729">
        <ele>86.5</ele>
        <time>2020-06-07T14:51:55Z</time>
      </trkpt>
      <trkpt lat="47.92721" lon="-3.70727">
        <ele>86.4</ele>
        <time>2020-06-07T14:51:56Z</time>
      </trkpt>
      <trkpt lat="47.92724" lon="-3.70724">
        <ele>86.4</ele>
        <time>2020-06-07T14:51:57Z</time>
      </trkpt>
      <trkpt lat="47.92726" lon="-3.70719">
        <ele>86.3</ele>
        <time>2020-06-07T14:51:58Z</time>
      </trkpt>
      <trkpt lat="47.92728" lon="-3.70718">
        <ele>86.3</ele>
        <time>2020-06-07T14:51:59Z</time>
      </trkpt>
      <trkpt lat="47.9273" lon="-3.70714">
        <ele>86.3</ele>
        <time>2020-06-07T14:52:00Z</time>
      </trkpt>
      <trkpt lat="47.92733" lon="-3.70708">
        <ele>86.4</ele>
        <time>2020-06-07T14:52:01Z</time>
      </trkpt>
      <trkpt lat="47.92735" lon="-3.70702">
        <ele>86.4</ele>
        <time>2020-06-07T14:52:02Z</time>
      </trkpt>
      <trkpt lat="47.92736" lon="-3.70697">
        <ele>86.4</ele>
        <time>2020-06-07T14:52:03Z</time>
      </trkpt>
      <trkpt lat="47.92735" lon="-3.70691">
        <ele>86.4</ele>
        <time>2020-06-07T14:52:04Z</time>
      </trkpt>
      <trkpt lat="47.92736" lon="-3.70685">
        <ele>86.4</ele>
        <time>2020-06-07T14:52:05Z</time>
      </trkpt>
      <trkpt lat="47.92735" lon="-3.70679">
        <ele>86.4</ele>
        <time>2020-06-07T14:52:06Z</time>
      </trkpt>
      <trkpt lat="47.92735" lon="-3.70673">
        <ele>86.4</ele>
        <time>2020-06-07T14:52:07Z</time>
      </trkpt>
      <trkpt lat="47.92735" lon="-3.70667">
        <ele>86.4</ele>
        <time>2020-06-07T14:52:08Z</time>
      </trkpt>
      <trkpt lat="47.92734" lon="-3.70661">
        <ele>86.4</ele>
        <time>2020-06-07T14:52:09Z</time>
      </trkpt>
      <trkpt lat="47.92733" lon="-3.70655">
        <ele>86.5</ele>
        <time>2020-06-07T14:52:10Z</time>
      </trkpt>
      <trkpt lat="47.92731" lon="-3.7065">
        <ele>86.5</ele>
        <time>2020-06-07T14:52:11Z</time>
      </trkpt>
      <trkpt lat="47.92728" lon="-3.70644">
        <ele>86.5</ele>
        <time>2020-06-07T14:52:12Z</time>
      </trkpt>
      <trkpt lat="47.92725" lon="-3.70638">
        <ele>86.6</ele>
        <time>2020-06-07T14:52:13Z</time>
      </trkpt>
      <trkpt lat="47.92722" lon="-3.70634">
        <ele>86.6</ele>
        <time>2020-06-07T14:52:14Z</time>
      </trkpt>
      <trkpt lat="47.9272" lon="-3.70629">
        <ele>86.7</ele>
        <time>2020-06-07T14:52:15Z</time>
      </trkpt>
      <trkpt lat="47.92717" lon="-3.70624">
        <ele>86.7</ele>
        <time>2020-06-07T14:52:16Z</time>
      </trkpt>
      <trkpt lat="47.92716" lon="-3.7062">
        <ele>86.8</ele>
        <time>2020-06-07T14:52:17Z</time>
      </trkpt>
      <trkpt lat="47.92714" lon="-3.70615">
        <ele>86.9</ele>
        <time>2020-06-07T14:52:18Z</time>
      </trkpt>
      <trkpt lat="47.92713" lon="-3.70611">
        <ele>86.9</ele>
        <time>2020-06-07T14:52:19Z</time>
      </trkpt>
      <trkpt lat="47.92712" lon="-3.70605">
        <ele>87</ele>
        <time>2020-06-07T14:52:20Z</time>
      </trkpt>
      <trkpt lat="47.92713" lon="-3.70599">
        <ele>87.3</ele>
        <time>2020-06-07T14:52:21Z</time>
      </trkpt>
      <trkpt lat="47.92715" lon="-3.70594">
        <ele>87.4</ele>
        <time>2020-06-07T14:52:22Z</time>
      </trkpt>
      <trkpt lat="47.92717" lon="-3.7059">
        <ele>87.6</ele>
        <time>2020-06-07T14:52:23Z</time>
      </trkpt>
      <trkpt lat="47.92719" lon="-3.70585">
        <ele>87.7</ele>
        <time>2020-06-07T14:52:24Z</time>
      </trkpt>
      <trkpt lat="47.92722" lon="-3.70581">
        <ele>87.9</ele>
        <time>2020-06-07T14:52:25Z</time>
      </trkpt>
      <trkpt lat="47.92724" lon="-3.70578">
        <ele>88</ele>
        <time>2020-06-07T14:52:26Z</time>
      </trkpt>
      <trkpt lat="47.92726" lon="-3.70574">
        <ele>88.2</ele>
        <time>2020-06-07T14:52:27Z</time>
      </trkpt>
      <trkpt lat="47.92727" lon="-3.70571">
        <ele>88.3</ele>
        <time>2020-06-07T14:52:28Z</time>
      </trkpt>
      <trkpt lat="47.9273" lon="-3.70567">
        <ele>88.5</ele>
        <time>2020-06-07T14:52:29Z</time>
      </trkpt>
      <trkpt lat="47.92732" lon="-3.70563">
        <ele>88.7</ele>
        <time>2020-06-07T14:52:30Z</time>
      </trkpt>
      <trkpt lat="47.92734" lon="-3.70557">
        <ele>89</ele>
        <time>2020-06-07T14:52:31Z</time>
      </trkpt>
      <trkpt lat="47.92736" lon="-3.70554">
        <ele>89.1</ele>
        <time>2020-06-07T14:52:32Z</time>
      </trkpt>
      <trkpt lat="47.92739" lon="-3.70553">
        <ele>89.3</ele>
        <time>2020-06-07T14:52:33Z</time>
      </trkpt>
      <trkpt lat="47.92742" lon="-3.7055">
        <ele>89.5</ele>
        <time>2020-06-07T14:52:34Z</time>
      </trkpt>
      <trkpt lat="47.92742" lon="-3.70549">
        <ele>89.6</ele>
        <time>2020-06-07T14:52:35Z</time>
      </trkpt>
      <trkpt lat="47.92745" lon="-3.70547">
        <ele>89.8</ele>
        <time>2020-06-07T14:52:36Z</time>
      </trkpt>
      <trkpt lat="47.92745" lon="-3.70546">
        <ele>89.8</ele>
        <time>2020-06-07T14:52:37Z</time>
      </trkpt>
      <trkpt lat="47.92747" lon="-3.70541">
        <ele>90</ele>
        <time>2020-06-07T14:52:38Z</time>
      </trkpt>
      <trkpt lat="47.92748" lon="-3.7054">
        <ele>90.1</ele>
        <time>2020-06-07T14:52:39Z</time>
      </trkpt>
      <trkpt lat="47.9275" lon="-3.70538">
        <ele>90.3</ele>
        <time>2020-06-07T14:52:40Z</time>
      </trkpt>
      <trkpt lat="47.92751" lon="-3.70537">
        <ele>90.3</ele>
        <time>2020-06-07T14:52:41Z</time>
      </trkpt>
      <trkpt lat="47.92753" lon="-3.70533">
        <ele>90.6</ele>
        <time>2020-06-07T14:52:42Z</time>
      </trkpt>
      <trkpt lat="47.92753" lon="-3.70532">
        <ele>90.6</ele>
        <time>2020-06-07T14:52:43Z</time>
      </trkpt>
      <trkpt lat="47.92754" lon="-3.70527">
        <ele>90.7</ele>
        <time>2020-06-07T14:52:44Z</time>
      </trkpt>
      <trkpt lat="47.92755" lon="-3.70525">
        <ele>90.7</ele>
        <time>2020-06-07T14:52:45Z</time>
      </trkpt>
      <trkpt lat="47.92755" lon="-3.7052">
        <ele>90.7</ele>
        <time>2020-06-07T14:52:46Z</time>
      </trkpt>
      <trkpt lat="47.92756" lon="-3.70515">
        <ele>90.7</ele>
        <time>2020-06-07T14:52:47Z</time>
      </trkpt>
      <trkpt lat="47.92756" lon="-3.70513">
        <ele>90.7</ele>
        <time>2020-06-07T14:52:48Z</time>
      </trkpt>
      <trkpt lat="47.92756" lon="-3.7051">
        <ele>90.7</ele>
        <time>2020-06-07T14:52:49Z</time>
      </trkpt>
      <trkpt lat="47.92757" lon="-3.70508">
        <ele>90.8</ele>
        <time>2020-06-07T14:52:50Z</time>
      </trkpt>
      <trkpt lat="47.92758" lon="-3.70506">
        <ele>90.8</ele>
        <time>2020-06-07T14:52:51Z</time>
      </trkpt>
      <trkpt lat="47.9276" lon="-3.70509">
        <ele>90.8</ele>
        <time>2020-06-07T14:52:52Z</time>
      </trkpt>
      <trkpt lat="47.92763" lon="-3.70512">
        <ele>90.7</ele>
        <time>2020-06-07T14:52:53Z</time>
      </trkpt>
      <trkpt lat="47.92764" lon="-3.70513">
        <ele>90.7</ele>
        <time>2020-06-07T14:52:54Z</time>
      </trkpt>
      <trkpt lat="47.92766" lon="-3.70516">
        <ele>90.7</ele>
        <time>2020-06-07T14:52:55Z</time>
      </trkpt>
      <trkpt lat="47.92767" lon="-3.70518">
        <ele>90.6</ele>
        <time>2020-06-07T14:52:56Z</time>
      </trkpt>
      <trkpt lat="47.92768" lon="-3.70519">
        <ele>90.6</ele>
        <time>2020-06-07T14:52:57Z</time>
      </trkpt>
      <trkpt lat="47.9277" lon="-3.7052">
        <ele>90.6</ele>
        <time>2020-06-07T14:52:58Z</time>
      </trkpt>
      <trkpt lat="47.92771" lon="-3.70522">
        <ele>90.5</ele>
        <time>2020-06-07T14:52:59Z</time>
      </trkpt>
      <trkpt lat="47.92772" lon="-3.70522">
        <ele>90.5</ele>
        <time>2020-06-07T14:53:00Z</time>
      </trkpt>
      <trkpt lat="47.92774" lon="-3.70522">
        <ele>90.4</ele>
        <time>2020-06-07T14:53:01Z</time>
      </trkpt>
      <trkpt lat="47.92775" lon="-3.70522">
        <ele>90.4</ele>
        <time>2020-06-07T14:53:02Z</time>
      </trkpt>
      <trkpt lat="47.92776" lon="-3.70522">
        <ele>90.4</ele>
        <time>2020-06-07T14:53:03Z</time>
      </trkpt>
      <trkpt lat="47.92777" lon="-3.70524">
        <ele>90.3</ele>
        <time>2020-06-07T14:53:04Z</time>
      </trkpt>
      <trkpt lat="47.92778" lon="-3.70524">
        <ele>90.3</ele>
        <time>2020-06-07T14:53:05Z</time>
      </trkpt>
      <trkpt lat="47.92779" lon="-3.70524">
        <ele>90.3</ele>
        <time>2020-06-07T14:53:06Z</time>
      </trkpt>
      <trkpt lat="47.92779" lon="-3.70524">
        <ele>90.3</ele>
        <time>2020-06-07T14:53:07Z</time>
      </trkpt>
      <trkpt lat="47.9278" lon="-3.70524">
        <ele>90.3</ele>
        <time>2020-06-07T14:53:08Z</time>
      </trkpt>
      <trkpt lat="47.9278" lon="-3.70525">
        <ele>90.2</ele>
        <time>2020-06-07T14:53:09Z</time>
      </trkpt>
      <trkpt lat="47.92781" lon="-3.70525">
        <ele>90.2</ele>
        <time>2020-06-07T14:53:10Z</time>
      </trkpt>
      <trkpt lat="47.92781" lon="-3.70525">
        <ele>90.2</ele>
        <time>2020-06-07T14:53:11Z</time>
      </trkpt>
      <trkpt lat="47.92782" lon="-3.70525">
        <ele>90.2</ele>
        <time>2020-06-07T14:53:12Z</time>
      </trkpt>
      <trkpt lat="47.92783" lon="-3.70525">
        <ele>90.2</ele>
        <time>2020-06-07T14:53:13Z</time>
      </trkpt>
      <trkpt lat="47.92783" lon="-3.70525">
        <ele>90.2</ele>
        <time>2020-06-07T14:53:14Z</time>
      </trkpt>
      <trkpt lat="47.92784" lon="-3.70526">
        <ele>90.1</ele>
        <time>2020-06-07T14:53:15Z</time>
      </trkpt>
      <trkpt lat="47.92784" lon="-3.70526">
        <ele>90.1</ele>
        <time>2020-06-07T14:53:16Z</time>
      </trkpt>
      <trkpt lat="47.92785" lon="-3.70526">
        <ele>90.1</ele>
        <time>2020-06-07T14:54:31Z</time>
      </trkpt>
      <trkpt lat="47.92786" lon="-3.70526">
        <ele>90.1</ele>
        <time>2020-06-07T14:54:32Z</time>
      </trkpt>
      <trkpt lat="47.92788" lon="-3.70529">
        <ele>90</ele>
        <time>2020-06-07T14:54:33Z</time>
      </trkpt>
      <trkpt lat="47.92789" lon="-3.70531">
        <ele>90</ele>
        <time>2020-06-07T14:54:34Z</time>
      </trkpt>
      <trkpt lat="47.92793" lon="-3.70533">
        <ele>89.8</ele>
        <time>2020-06-07T14:54:35Z</time>
      </trkpt>
      <trkpt lat="47.92796" lon="-3.70536">
        <ele>89.7</ele>
        <time>2020-06-07T14:54:36Z</time>
      </trkpt>
      <trkpt lat="47.92798" lon="-3.70539">
        <ele>89.6</ele>
        <time>2020-06-07T14:54:37Z</time>
      </trkpt>
      <trkpt lat="47.92803" lon="-3.70542">
        <ele>89.5</ele>
        <time>2020-06-07T14:54:38Z</time>
      </trkpt>
      <trkpt lat="47.92806" lon="-3.70544">
        <ele>89.4</ele>
        <time>2020-06-07T14:54:39Z</time>
      </trkpt>
      <trkpt lat="47.92809" lon="-3.70547">
        <ele>89.3</ele>
        <time>2020-06-07T14:54:40Z</time>
      </trkpt>
      <trkpt lat="47.92813" lon="-3.70551">
        <ele>89.3</ele>
        <time>2020-06-07T14:54:41Z</time>
      </trkpt>
      <trkpt lat="47.92817" lon="-3.70554">
        <ele>89.2</ele>
        <time>2020-06-07T14:54:42Z</time>
      </trkpt>
      <trkpt lat="47.92822" lon="-3.70556">
        <ele>89.1</ele>
        <time>2020-06-07T14:54:43Z</time>
      </trkpt>
      <trkpt lat="47.92827" lon="-3.70559">
        <ele>89.1</ele>
        <time>2020-06-07T14:54:44Z</time>
      </trkpt>
      <trkpt lat="47.92831" lon="-3.70561">
        <ele>89.1</ele>
        <time>2020-06-07T14:54:45Z</time>
      </trkpt>
      <trkpt lat="47.92835" lon="-3.70564">
        <ele>89.1</ele>
        <time>2020-06-07T14:54:46Z</time>
      </trkpt>
      <trkpt lat="47.9284" lon="-3.70567">
        <ele>89.1</ele>
        <time>2020-06-07T14:54:47Z</time>
      </trkpt>
      <trkpt lat="47.92844" lon="-3.70569">
        <ele>89.1</ele>
        <time>2020-06-07T14:54:48Z</time>
      </trkpt>
      <trkpt lat="47.92849" lon="-3.70569">
        <ele>89.1</ele>
        <time>2020-06-07T14:54:49Z</time>
      </trkpt>
      <trkpt lat="47.92853" lon="-3.7057">
        <ele>89.2</ele>
        <time>2020-06-07T14:54:50Z</time>
      </trkpt>
      <trkpt lat="47.92858" lon="-3.70572">
        <ele>89.3</ele>
        <time>2020-06-07T14:54:51Z</time>
      </trkpt>
      <trkpt lat="47.92862" lon="-3.70574">
        <ele>89.3</ele>
        <time>2020-06-07T14:54:52Z</time>
      </trkpt>
      <trkpt lat="47.92867" lon="-3.70575">
        <ele>89.4</ele>
        <time>2020-06-07T14:54:53Z</time>
      </trkpt>
      <trkpt lat="47.92871" lon="-3.70577">
        <ele>89.5</ele>
        <time>2020-06-07T14:54:54Z</time>
      </trkpt>
      <trkpt lat="47.92877" lon="-3.70578">
        <ele>89.6</ele>
        <time>2020-06-07T14:54:55Z</time>
      </trkpt>
      <trkpt lat="47.92882" lon="-3.70579">
        <ele>89.7</ele>
        <time>2020-06-07T14:54:56Z</time>
      </trkpt>
      <trkpt lat="47.92887" lon="-3.7058">
        <ele>89.9</ele>
        <time>2020-06-07T14:54:57Z</time>
      </trkpt>
      <trkpt lat="47.92891" lon="-3.7058">
        <ele>90</ele>
        <time>2020-06-07T14:54:58Z</time>
      </trkpt>
      <trkpt lat="47.92896" lon="-3.7058">
        <ele>90.1</ele>
        <time>2020-06-07T14:54:59Z</time>
      </trkpt>
      <trkpt lat="47.92899" lon="-3.7058">
        <ele>90.2</ele>
        <time>2020-06-07T14:55:00Z</time>
      </trkpt>
      <trkpt lat="47.92903" lon="-3.7058">
        <ele>90.3</ele>
        <time>2020-06-07T14:55:01Z</time>
      </trkpt>
      <trkpt lat="47.92908" lon="-3.70579">
        <ele>90.4</ele>
        <time>2020-06-07T14:55:02Z</time>
      </trkpt>
      <trkpt lat="47.92912" lon="-3.70579">
        <ele>90.5</ele>
        <time>2020-06-07T14:55:03Z</time>
      </trkpt>
      <trkpt lat="47.92917" lon="-3.70579">
        <ele>90.6</ele>
        <time>2020-06-07T14:55:04Z</time>
      </trkpt>
      <trkpt lat="47.92922" lon="-3.7058">
        <ele>90.7</ele>
        <time>2020-06-07T14:55:05Z</time>
      </trkpt>
      <trkpt lat="47.92926" lon="-3.7058">
        <ele>90.7</ele>
        <time>2020-06-07T14:55:06Z</time>
      </trkpt>
      <trkpt lat="47.92931" lon="-3.70581">
        <ele>90.8</ele>
        <time>2020-06-07T14:55:07Z</time>
      </trkpt>
      <trkpt lat="47.92935" lon="-3.70581">
        <ele>90.9</ele>
        <time>2020-06-07T14:55:08Z</time>
      </trkpt>
      <trkpt lat="47.9294" lon="-3.70581">
        <ele>91</ele>
        <time>2020-06-07T14:55:09Z</time>
      </trkpt>
      <trkpt lat="47.92944" lon="-3.70582">
        <ele>91</ele>
        <time>2020-06-07T14:55:10Z</time>
      </trkpt>
      <trkpt lat="47.92949" lon="-3.70583">
        <ele>91.1</ele>
        <time>2020-06-07T14:55:11Z</time>
      </trkpt>
      <trkpt lat="47.92953" lon="-3.70585">
        <ele>91.1</ele>
        <time>2020-06-07T14:55:12Z</time>
      </trkpt>
      <trkpt lat="47.92958" lon="-3.70586">
        <ele>91.2</ele>
        <time>2020-06-07T14:55:13Z</time>
      </trkpt>
      <trkpt lat="47.92962" lon="-3.70587">
        <ele>91.2</ele>
        <time>2020-06-07T14:55:14Z</time>
      </trkpt>
      <trkpt lat="47.92966" lon="-3.70588">
        <ele>91.2</ele>
        <time>2020-06-07T14:55:15Z</time>
      </trkpt>
      <trkpt lat="47.9297" lon="-3.7059">
        <ele>91.2</ele>
        <time>2020-06-07T14:55:16Z</time>
      </trkpt>
      <trkpt lat="47.92975" lon="-3.70592">
        <ele>91.1</ele>
        <time>2020-06-07T14:55:17Z</time>
      </trkpt>
      <trkpt lat="47.92979" lon="-3.70594">
        <ele>91.1</ele>
        <time>2020-06-07T14:55:18Z</time>
      </trkpt>
      <trkpt lat="47.92983" lon="-3.70596">
        <ele>91.1</ele>
        <time>2020-06-07T14:55:19Z</time>
      </trkpt>
      <trkpt lat="47.92987" lon="-3.70598">
        <ele>91</ele>
        <time>2020-06-07T14:55:20Z</time>
      </trkpt>
      <trkpt lat="47.92991" lon="-3.706">
        <ele>91</ele>
        <time>2020-06-07T14:55:21Z</time>
      </trkpt>
      <trkpt lat="47.92997" lon="-3.706">
        <ele>90.8</ele>
        <time>2020-06-07T14:55:22Z</time>
      </trkpt>
      <trkpt lat="47.93001" lon="-3.70602">
        <ele>90.7</ele>
        <time>2020-06-07T14:55:23Z</time>
      </trkpt>
      <trkpt lat="47.93005" lon="-3.70607">
        <ele>90.5</ele>
        <time>2020-06-07T14:55:24Z</time>
      </trkpt>
      <trkpt lat="47.9301" lon="-3.7061">
        <ele>90.4</ele>
        <time>2020-06-07T14:55:25Z</time>
      </trkpt>
      <trkpt lat="47.93014" lon="-3.70611">
        <ele>90.4</ele>
        <time>2020-06-07T14:55:26Z</time>
      </trkpt>
      <trkpt lat="47.93018" lon="-3.70614">
        <ele>90.3</ele>
        <time>2020-06-07T14:55:27Z</time>
      </trkpt>
      <trkpt lat="47.93021" lon="-3.70617">
        <ele>90.2</ele>
        <time>2020-06-07T14:55:28Z</time>
      </trkpt>
      <trkpt lat="47.93024" lon="-3.7062">
        <ele>90.1</ele>
        <time>2020-06-07T14:55:29Z</time>
      </trkpt>
      <trkpt lat="47.93027" lon="-3.70623">
        <ele>90</ele>
        <time>2020-06-07T14:55:30Z</time>
      </trkpt>
      <trkpt lat="47.93031" lon="-3.70628">
        <ele>89.8</ele>
        <time>2020-06-07T14:55:31Z</time>
      </trkpt>
      <trkpt lat="47.93035" lon="-3.70631">
        <ele>89.6</ele>
        <time>2020-06-07T14:55:32Z</time>
      </trkpt>
      <trkpt lat="47.93039" lon="-3.70636">
        <ele>89.4</ele>
        <time>2020-06-07T14:55:33Z</time>
      </trkpt>
      <trkpt lat="47.93043" lon="-3.7064">
        <ele>89.1</ele>
        <time>2020-06-07T14:55:34Z</time>
      </trkpt>
      <trkpt lat="47.93048" lon="-3.70646">
        <ele>88.8</ele>
        <time>2020-06-07T14:55:35Z</time>
      </trkpt>
      <trkpt lat="47.93053" lon="-3.70653">
        <ele>88.4</ele>
        <time>2020-06-07T14:55:36Z</time>
      </trkpt>
      <trkpt lat="47.93059" lon="-3.70658">
        <ele>88</ele>
        <time>2020-06-07T14:55:37Z</time>
      </trkpt>
      <trkpt lat="47.93063" lon="-3.70664">
        <ele>87.6</ele>
        <time>2020-06-07T14:55:38Z</time>
      </trkpt>
      <trkpt lat="47.9307" lon="-3.70671">
        <ele>87.1</ele>
        <time>2020-06-07T14:55:39Z</time>
      </trkpt>
      <trkpt lat="47.93076" lon="-3.70678">
        <ele>86.6</ele>
        <time>2020-06-07T14:55:40Z</time>
      </trkpt>
      <trkpt lat="47.93083" lon="-3.70686">
        <ele>86</ele>
        <time>2020-06-07T14:55:41Z</time>
      </trkpt>
      <trkpt lat="47.9309" lon="-3.70693">
        <ele>85.5</ele>
        <time>2020-06-07T14:55:42Z</time>
      </trkpt>
      <trkpt lat="47.93097" lon="-3.70702">
        <ele>84.9</ele>
        <time>2020-06-07T14:55:43Z</time>
      </trkpt>
      <trkpt lat="47.93104" lon="-3.7071">
        <ele>84.3</ele>
        <time>2020-06-07T14:55:44Z</time>
      </trkpt>
      <trkpt lat="47.93112" lon="-3.70718">
        <ele>83.7</ele>
        <time>2020-06-07T14:55:45Z</time>
      </trkpt>
      <trkpt lat="47.93119" lon="-3.70726">
        <ele>83.2</ele>
        <time>2020-06-07T14:55:46Z</time>
      </trkpt>
      <trkpt lat="47.93126" lon="-3.70734">
        <ele>82.8</ele>
        <time>2020-06-07T14:55:47Z</time>
      </trkpt>
      <trkpt lat="47.93134" lon="-3.70742">
        <ele>82.5</ele>
        <time>2020-06-07T14:55:48Z</time>
      </trkpt>
      <trkpt lat="47.93141" lon="-3.7075">
        <ele>82.3</ele>
        <time>2020-06-07T14:55:49Z</time>
      </trkpt>
      <trkpt lat="47.93148" lon="-3.70757">
        <ele>82.1</ele>
        <time>2020-06-07T14:55:50Z</time>
      </trkpt>
      <trkpt lat="47.93155" lon="-3.70764">
        <ele>81.9</ele>
        <time>2020-06-07T14:55:51Z</time>
      </trkpt>
      <trkpt lat="47.93162" lon="-3.70771">
        <ele>81.7</ele>
        <time>2020-06-07T14:55:52Z</time>
      </trkpt>
      <trkpt lat="47.93169" lon="-3.70779">
        <ele>81.5</ele>
        <time>2020-06-07T14:55:53Z</time>
      </trkpt>
      <trkpt lat="47.93176" lon="-3.70786">
        <ele>81.3</ele>
        <time>2020-06-07T14:55:54Z</time>
      </trkpt>
      <trkpt lat="47.93183" lon="-3.70793">
        <ele>81.2</ele>
        <time>2020-06-07T14:55:55Z</time>
      </trkpt>
      <trkpt lat="47.93191" lon="-3.70798">
        <ele>81.3</ele>
        <time>2020-06-07T14:55:56Z</time>
      </trkpt>
      <trkpt lat="47.93198" lon="-3.70803">
        <ele>81.3</ele>
        <time>2020-06-07T14:55:57Z</time>
      </trkpt>
      <trkpt lat="47.93205" lon="-3.70808">
        <ele>81.5</ele>
        <time>2020-06-07T14:55:58Z</time>
      </trkpt>
      <trkpt lat="47.93212" lon="-3.70813">
        <ele>81.6</ele>
        <time>2020-06-07T14:55:59Z</time>
      </trkpt>
      <trkpt lat="47.93218" lon="-3.70816">
        <ele>81.4</ele>
        <time>2020-06-07T14:56:00Z</time>
      </trkpt>
      <trkpt lat="47.93224" lon="-3.70818">
        <ele>81.2</ele>
        <time>2020-06-07T14:56:01Z</time>
      </trkpt>
      <trkpt lat="47.9323" lon="-3.70818">
        <ele>81</ele>
        <time>2020-06-07T14:56:02Z</time>
      </trkpt>
      <trkpt lat="47.93236" lon="-3.70816">
        <ele>80.8</ele>
        <time>2020-06-07T14:56:03Z</time>
      </trkpt>
      <trkpt lat="47.9324" lon="-3.7081">
        <ele>80.8</ele>
        <time>2020-06-07T14:56:04Z</time>
      </trkpt>
      <trkpt lat="47.93244" lon="-3.70806">
        <ele>80.9</ele>
        <time>2020-06-07T14:56:05Z</time>
      </trkpt>
      <trkpt lat="47.93248" lon="-3.70802">
        <ele>80.9</ele>
        <time>2020-06-07T14:56:06Z</time>
      </trkpt>
      <trkpt lat="47.93252" lon="-3.70798">
        <ele>80.8</ele>
        <time>2020-06-07T14:56:07Z</time>
      </trkpt>
      <trkpt lat="47.93257" lon="-3.70798">
        <ele>80.8</ele>
        <time>2020-06-07T14:56:08Z</time>
      </trkpt>
      <trkpt lat="47.93262" lon="-3.70798">
        <ele>80.7</ele>
        <time>2020-06-07T14:56:09Z</time>
      </trkpt>
      <trkpt lat="47.93266" lon="-3.70803">
        <ele>80.6</ele>
        <time>2020-06-07T14:56:10Z</time>
      </trkpt>
      <trkpt lat="47.9327" lon="-3.70807">
        <ele>80.5</ele>
        <time>2020-06-07T14:56:11Z</time>
      </trkpt>
      <trkpt lat="47.93273" lon="-3.70813">
        <ele>80.5</ele>
        <time>2020-06-07T14:56:12Z</time>
      </trkpt>
      <trkpt lat="47.93276" lon="-3.70818">
        <ele>80.4</ele>
        <time>2020-06-07T14:56:13Z</time>
      </trkpt>
      <trkpt lat="47.93278" lon="-3.70823">
        <ele>80.4</ele>
        <time>2020-06-07T14:56:14Z</time>
      </trkpt>
      <trkpt lat="47.9328" lon="-3.70829">
        <ele>80.4</ele>
        <time>2020-06-07T14:56:15Z</time>
      </trkpt>
      <trkpt lat="47.93278" lon="-3.70835">
        <ele>80.3</ele>
        <time>2020-06-07T14:56:16Z</time>
      </trkpt>
      <trkpt lat="47.93276" lon="-3.70841">
        <ele>80.3</ele>
        <time>2020-06-07T14:56:17Z</time>
      </trkpt>
      <trkpt lat="47.93273" lon="-3.70847">
        <ele>80.3</ele>
        <time>2020-06-07T14:56:18Z</time>
      </trkpt>
      <trkpt lat="47.93269" lon="-3.70851">
        <ele>80.4</ele>
        <time>2020-06-07T14:56:19Z</time>
      </trkpt>
      <trkpt lat="47.93265" lon="-3.70854">
        <ele>80.4</ele>
        <time>2020-06-07T14:56:20Z</time>
      </trkpt>
      <trkpt lat="47.93261" lon="-3.70857">
        <ele>80.4</ele>
        <time>2020-06-07T14:56:21Z</time>
      </trkpt>
      <trkpt lat="47.93257" lon="-3.70858">
        <ele>80.5</ele>
        <time>2020-06-07T14:56:22Z</time>
      </trkpt>
      <trkpt lat="47.93253" lon="-3.7086">
        <ele>80.5</ele>
        <time>2020-06-07T14:56:23Z</time>
      </trkpt>
      <trkpt lat="47.93249" lon="-3.7086">
        <ele>80.5</ele>
        <time>2020-06-07T14:56:24Z</time>
      </trkpt>
      <trkpt lat="47.93245" lon="-3.70859">
        <ele>80.9</ele>
        <time>2020-06-07T14:56:25Z</time>
      </trkpt>
      <trkpt lat="47.93242" lon="-3.70857">
        <ele>80.9</ele>
        <time>2020-06-07T14:56:26Z</time>
      </trkpt>
      <trkpt lat="47.9324" lon="-3.70853">
        <ele>80.8</ele>
        <time>2020-06-07T14:56:27Z</time>
      </trkpt>
      <trkpt lat="47.93239" lon="-3.70847">
        <ele>80.8</ele>
        <time>2020-06-07T14:56:28Z</time>
      </trkpt>
      <trkpt lat="47.93238" lon="-3.70841">
        <ele>80.7</ele>
        <time>2020-06-07T14:56:29Z</time>
      </trkpt>
      <trkpt lat="47.93237" lon="-3.70835">
        <ele>80.7</ele>
        <time>2020-06-07T14:56:30Z</time>
      </trkpt>
      <trkpt lat="47.93236" lon="-3.70829">
        <ele>80.7</ele>
        <time>2020-06-07T14:56:31Z</time>
      </trkpt>
      <trkpt lat="47.93236" lon="-3.70823">
        <ele>80.7</ele>
        <time>2020-06-07T14:56:32Z</time>
      </trkpt>
      <trkpt lat="47.93237" lon="-3.70818">
        <ele>80.7</ele>
        <time>2020-06-07T14:56:33Z</time>
      </trkpt>
      <trkpt lat="47.93239" lon="-3.70813">
        <ele>80.8</ele>
        <time>2020-06-07T14:56:34Z</time>
      </trkpt>
      <trkpt lat="47.93242" lon="-3.70807">
        <ele>80.8</ele>
        <time>2020-06-07T14:56:35Z</time>
      </trkpt>
      <trkpt lat="47.93245" lon="-3.70802">
        <ele>80.9</ele>
        <time>2020-06-07T14:56:36Z</time>
      </trkpt>
      <trkpt lat="47.93248" lon="-3.708">
        <ele>80.8</ele>
        <time>2020-06-07T14:56:37Z</time>
      </trkpt>
      <trkpt lat="47.93253" lon="-3.708">
        <ele>80.8</ele>
        <time>2020-06-07T14:56:38Z</time>
      </trkpt>
      <trkpt lat="47.93257" lon="-3.70802">
        <ele>80.7</ele>
        <time>2020-06-07T14:56:39Z</time>
      </trkpt>
      <trkpt lat="47.93262" lon="-3.70806">
        <ele>80.6</ele>
        <time>2020-06-07T14:56:40Z</time>
      </trkpt>
      <trkpt lat="47.93266" lon="-3.70809">
        <ele>80.6</ele>
        <time>2020-06-07T14:56:41Z</time>
      </trkpt>
      <trkpt lat="47.9327" lon="-3.70815">
        <ele>80.5</ele>
        <time>2020-06-07T14:56:42Z</time>
      </trkpt>
      <trkpt lat="47.93273" lon="-3.70821">
        <ele>80.5</ele>
        <time>2020-06-07T14:56:43Z</time>
      </trkpt>
      <trkpt lat="47.93276" lon="-3.70828">
        <ele>80.4</ele>
        <time>2020-06-07T14:56:44Z</time>
      </trkpt>
      <trkpt lat="47.93278" lon="-3.70835">
        <ele>80.3</ele>
        <time>2020-06-07T14:56:45Z</time>
      </trkpt>
      <trkpt lat="47.93281" lon="-3.70841">
        <ele>80.4</ele>
        <time>2020-06-07T14:56:46Z</time>
      </trkpt>
      <trkpt lat="47.93285" lon="-3.70846">
        <ele>80.4</ele>
        <time>2020-06-07T14:56:47Z</time>
      </trkpt>
      <trkpt lat="47.93289" lon="-3.70848">
        <ele>80.4</ele>
        <time>2020-06-07T14:56:48Z</time>
      </trkpt>
      <trkpt lat="47.93294" lon="-3.7085">
        <ele>80.5</ele>
        <time>2020-06-07T14:56:49Z</time>
      </trkpt>
      <trkpt lat="47.93299" lon="-3.7085">
        <ele>80.5</ele>
        <time>2020-06-07T14:56:50Z</time>
      </trkpt>
      <trkpt lat="47.93304" lon="-3.70851">
        <ele>80.6</ele>
        <time>2020-06-07T14:56:51Z</time>
      </trkpt>
      <trkpt lat="47.93309" lon="-3.70851">
        <ele>80.6</ele>
        <time>2020-06-07T14:56:52Z</time>
      </trkpt>
      <trkpt lat="47.93314" lon="-3.70852">
        <ele>80.7</ele>
        <time>2020-06-07T14:56:53Z</time>
      </trkpt>
      <trkpt lat="47.93319" lon="-3.70853">
        <ele>80.8</ele>
        <time>2020-06-07T14:56:54Z</time>
      </trkpt>
      <trkpt lat="47.93323" lon="-3.70854">
        <ele>80.8</ele>
        <time>2020-06-07T14:56:55Z</time>
      </trkpt>
      <trkpt lat="47.93328" lon="-3.70855">
        <ele>80.9</ele>
        <time>2020-06-07T14:56:56Z</time>
      </trkpt>
      <trkpt lat="47.93333" lon="-3.70856">
        <ele>81</ele>
        <time>2020-06-07T14:56:57Z</time>
      </trkpt>
      <trkpt lat="47.93339" lon="-3.70857">
        <ele>81.1</ele>
        <time>2020-06-07T14:56:58Z</time>
      </trkpt>
      <trkpt lat="47.93345" lon="-3.70858">
        <ele>81.2</ele>
        <time>2020-06-07T14:56:59Z</time>
      </trkpt>
      <trkpt lat="47.9335" lon="-3.7086">
        <ele>81.3</ele>
        <time>2020-06-07T14:57:00Z</time>
      </trkpt>
      <trkpt lat="47.93355" lon="-3.70862">
        <ele>81.4</ele>
        <time>2020-06-07T14:57:01Z</time>
      </trkpt>
      <trkpt lat="47.93359" lon="-3.70864">
        <ele>81.5</ele>
        <time>2020-06-07T14:57:02Z</time>
      </trkpt>
      <trkpt lat="47.93364" lon="-3.70864">
        <ele>81.6</ele>
        <time>2020-06-07T14:57:03Z</time>
      </trkpt>
      <trkpt lat="47.93368" lon="-3.70865">
        <ele>81.8</ele>
        <time>2020-06-07T14:57:04Z</time>
      </trkpt>
      <trkpt lat="47.93373" lon="-3.70865">
        <ele>81.9</ele>
        <time>2020-06-07T14:57:05Z</time>
      </trkpt>
      <trkpt lat="47.93377" lon="-3.70866">
        <ele>82</ele>
        <time>2020-06-07T14:57:06Z</time>
      </trkpt>
      <trkpt lat="47.9338" lon="-3.70867">
        <ele>82.2</ele>
        <time>2020-06-07T14:57:07Z</time>
      </trkpt>
      <trkpt lat="47.93384" lon="-3.70868">
        <ele>82.3</ele>
        <time>2020-06-07T14:57:08Z</time>
      </trkpt>
      <trkpt lat="47.93388" lon="-3.70868">
        <ele>82.4</ele>
        <time>2020-06-07T14:57:09Z</time>
      </trkpt>
      <trkpt lat="47.93392" lon="-3.70869">
        <ele>82.6</ele>
        <time>2020-06-07T14:57:10Z</time>
      </trkpt>
      <trkpt lat="47.93395" lon="-3.70869">
        <ele>82.8</ele>
        <time>2020-06-07T14:57:11Z</time>
      </trkpt>
      <trkpt lat="47.93399" lon="-3.7087">
        <ele>83</ele>
        <time>2020-06-07T14:57:12Z</time>
      </trkpt>
      <trkpt lat="47.93403" lon="-3.70871">
        <ele>83.2</ele>
        <time>2020-06-07T14:57:13Z</time>
      </trkpt>
      <trkpt lat="47.93407" lon="-3.70872">
        <ele>83.4</ele>
        <time>2020-06-07T14:57:14Z</time>
      </trkpt>
      <trkpt lat="47.93411" lon="-3.70874">
        <ele>83.5</ele>
        <time>2020-06-07T14:57:15Z</time>
      </trkpt>
      <trkpt lat="47.93415" lon="-3.70874">
        <ele>83.7</ele>
        <time>2020-06-07T14:57:16Z</time>
      </trkpt>
      <trkpt lat="47.93419" lon="-3.70875">
        <ele>83.9</ele>
        <time>2020-06-07T14:57:17Z</time>
      </trkpt>
      <trkpt lat="47.93422" lon="-3.70876">
        <ele>84</ele>
        <time>2020-06-07T14:57:18Z</time>
      </trkpt>
      <trkpt lat="47.93426" lon="-3.70877">
        <ele>84.2</ele>
        <time>2020-06-07T14:57:19Z</time>
      </trkpt>
      <trkpt lat="47.9343" lon="-3.70878">
        <ele>84.3</ele>
        <time>2020-06-07T14:57:20Z</time>
      </trkpt>
      <trkpt lat="47.93435" lon="-3.70879">
        <ele>84.5</ele>
        <time>2020-06-07T14:57:21Z</time>
      </trkpt>
      <trkpt lat="47.9344" lon="-3.7088">
        <ele>84.8</ele>
        <time>2020-06-07T14:57:22Z</time>
      </trkpt>
      <trkpt lat="47.93445" lon="-3.70881">
        <ele>85</ele>
        <time>2020-06-07T14:57:23Z</time>
      </trkpt>
      <trkpt lat="47.93449" lon="-3.70882">
        <ele>85.2</ele>
        <time>2020-06-07T14:57:24Z</time>
      </trkpt>
      <trkpt lat="47.93453" lon="-3.70882">
        <ele>85.3</ele>
        <time>2020-06-07T14:57:25Z</time>
      </trkpt>
      <trkpt lat="47.93457" lon="-3.70882">
        <ele>85.5</ele>
        <time>2020-06-07T14:57:26Z</time>
      </trkpt>
      <trkpt lat="47.93461" lon="-3.70883">
        <ele>85.7</ele>
        <time>2020-06-07T14:57:27Z</time>
      </trkpt>
      <trkpt lat="47.93464" lon="-3.70883">
        <ele>85.8</ele>
        <time>2020-06-07T14:57:28Z</time>
      </trkpt>
      <trkpt lat="47.93467" lon="-3.70884">
        <ele>86</ele>
        <time>2020-06-07T14:57:29Z</time>
      </trkpt>
      <trkpt lat="47.9347" lon="-3.70885">
        <ele>86.1</ele>
        <time>2020-06-07T14:57:30Z</time>
      </trkpt>
      <trkpt lat="47.93473" lon="-3.70885">
        <ele>86.2</ele>
        <time>2020-06-07T14:57:31Z</time>
      </trkpt>
      <trkpt lat="47.93476" lon="-3.70885">
        <ele>86.4</ele>
        <time>2020-06-07T14:57:32Z</time>
      </trkpt>
      <trkpt lat="47.93478" lon="-3.70885">
        <ele>86.5</ele>
        <time>2020-06-07T14:57:33Z</time>
      </trkpt>
      <trkpt lat="47.9348" lon="-3.70885">
        <ele>86.6</ele>
        <time>2020-06-07T14:57:34Z</time>
      </trkpt>
      <trkpt lat="47.93484" lon="-3.70885">
        <ele>86.8</ele>
        <time>2020-06-07T14:57:35Z</time>
      </trkpt>
      <trkpt lat="47.93487" lon="-3.70885">
        <ele>86.9</ele>
        <time>2020-06-07T14:57:36Z</time>
      </trkpt>
      <trkpt lat="47.9349" lon="-3.70887">
        <ele>87.1</ele>
        <time>2020-06-07T14:57:37Z</time>
      </trkpt>
      <trkpt lat="47.93495" lon="-3.70889">
        <ele>87.4</ele>
        <time>2020-06-07T14:57:38Z</time>
      </trkpt>
      <trkpt lat="47.93498" lon="-3.70889">
        <ele>87.5</ele>
        <time>2020-06-07T14:57:39Z</time>
      </trkpt>
      <trkpt lat="47.93501" lon="-3.7089">
        <ele>87.7</ele>
        <time>2020-06-07T14:57:40Z</time>
      </trkpt>
      <trkpt lat="47.93505" lon="-3.7089">
        <ele>87.9</ele>
        <time>2020-06-07T14:57:41Z</time>
      </trkpt>
      <trkpt lat="47.93509" lon="-3.70892">
        <ele>88.2</ele>
        <time>2020-06-07T14:57:42Z</time>
      </trkpt>
      <trkpt lat="47.93513" lon="-3.70892">
        <ele>88.4</ele>
        <time>2020-06-07T14:57:43Z</time>
      </trkpt>
      <trkpt lat="47.93517" lon="-3.70894">
        <ele>88.6</ele>
        <time>2020-06-07T14:57:44Z</time>
      </trkpt>
      <trkpt lat="47.93521" lon="-3.70896">
        <ele>88.9</ele>
        <time>2020-06-07T14:57:45Z</time>
      </trkpt>
      <trkpt lat="47.93525" lon="-3.70896">
        <ele>89.1</ele>
        <time>2020-06-07T14:57:46Z</time>
      </trkpt>
      <trkpt lat="47.93529" lon="-3.70896">
        <ele>89.3</ele>
        <time>2020-06-07T14:57:47Z</time>
      </trkpt>
      <trkpt lat="47.93533" lon="-3.70896">
        <ele>89.6</ele>
        <time>2020-06-07T14:57:48Z</time>
      </trkpt>
      <trkpt lat="47.93537" lon="-3.70897">
        <ele>89.8</ele>
        <time>2020-06-07T14:57:49Z</time>
      </trkpt>
      <trkpt lat="47.9354" lon="-3.70897">
        <ele>90.1</ele>
        <time>2020-06-07T14:57:50Z</time>
      </trkpt>
      <trkpt lat="47.93542" lon="-3.70898">
        <ele>90.2</ele>
        <time>2020-06-07T14:57:51Z</time>
      </trkpt>
      <trkpt lat="47.93546" lon="-3.70899">
        <ele>90.5</ele>
        <time>2020-06-07T14:57:52Z</time>
      </trkpt>
      <trkpt lat="47.93549" lon="-3.70899">
        <ele>90.8</ele>
        <time>2020-06-07T14:57:53Z</time>
      </trkpt>
      <trkpt lat="47.93552" lon="-3.70899">
        <ele>91</ele>
        <time>2020-06-07T14:57:54Z</time>
      </trkpt>
      <trkpt lat="47.93556" lon="-3.70899">
        <ele>91.3</ele>
        <time>2020-06-07T14:57:55Z</time>
      </trkpt>
      <trkpt lat="47.93558" lon="-3.70899">
        <ele>91.5</ele>
        <time>2020-06-07T14:57:56Z</time>
      </trkpt>
      <trkpt lat="47.93561" lon="-3.70899">
        <ele>91.7</ele>
        <time>2020-06-07T14:57:57Z</time>
      </trkpt>
      <trkpt lat="47.93563" lon="-3.70899">
        <ele>91.8</ele>
        <time>2020-06-07T14:57:58Z</time>
      </trkpt>
      <trkpt lat="47.93566" lon="-3.709">
        <ele>92.1</ele>
        <time>2020-06-07T14:57:59Z</time>
      </trkpt>
      <trkpt lat="47.93567" lon="-3.70901">
        <ele>92.2</ele>
        <time>2020-06-07T14:58:00Z</time>
      </trkpt>
      <trkpt lat="47.93571" lon="-3.70902">
        <ele>92.5</ele>
        <time>2020-06-07T14:58:01Z</time>
      </trkpt>
      <trkpt lat="47.93572" lon="-3.70902">
        <ele>92.6</ele>
        <time>2020-06-07T14:58:02Z</time>
      </trkpt>
      <trkpt lat="47.93575" lon="-3.70903">
        <ele>92.8</ele>
        <time>2020-06-07T14:58:03Z</time>
      </trkpt>
      <trkpt lat="47.93578" lon="-3.70904">
        <ele>92.9</ele>
        <time>2020-06-07T14:58:04Z</time>
      </trkpt>
      <trkpt lat="47.93582" lon="-3.70905">
        <ele>93.2</ele>
        <time>2020-06-07T14:58:05Z</time>
      </trkpt>
      <trkpt lat="47.93584" lon="-3.70905">
        <ele>93.3</ele>
        <time>2020-06-07T14:58:06Z</time>
      </trkpt>
      <trkpt lat="47.93587" lon="-3.70905">
        <ele>93.5</ele>
        <time>2020-06-07T14:58:07Z</time>
      </trkpt>
      <trkpt lat="47.93589" lon="-3.70906">
        <ele>93.7</ele>
        <time>2020-06-07T14:58:08Z</time>
      </trkpt>
      <trkpt lat="47.93591" lon="-3.70906">
        <ele>93.8</ele>
        <time>2020-06-07T14:58:09Z</time>
      </trkpt>
      <trkpt lat="47.93594" lon="-3.70907">
        <ele>94</ele>
        <time>2020-06-07T14:58:10Z</time>
      </trkpt>
      <trkpt lat="47.93595" lon="-3.70907">
        <ele>94.1</ele>
        <time>2020-06-07T14:58:11Z</time>
      </trkpt>
      <trkpt lat="47.93598" lon="-3.70906">
        <ele>94.3</ele>
        <time>2020-06-07T14:58:12Z</time>
      </trkpt>
      <trkpt lat="47.936" lon="-3.70907">
        <ele>94.4</ele>
        <time>2020-06-07T14:58:13Z</time>
      </trkpt>
      <trkpt lat="47.93602" lon="-3.70907">
        <ele>94.6</ele>
        <time>2020-06-07T14:58:14Z</time>
      </trkpt>
      <trkpt lat="47.93603" lon="-3.70907">
        <ele>94.7</ele>
        <time>2020-06-07T14:58:15Z</time>
      </trkpt>
      <trkpt lat="47.93607" lon="-3.70906">
        <ele>94.9</ele>
        <time>2020-06-07T14:58:16Z</time>
      </trkpt>
      <trkpt lat="47.93609" lon="-3.70907">
        <ele>95</ele>
        <time>2020-06-07T14:58:17Z</time>
      </trkpt>
      <trkpt lat="47.93611" lon="-3.70908">
        <ele>95.2</ele>
        <time>2020-06-07T14:58:18Z</time>
      </trkpt>
      <trkpt lat="47.93614" lon="-3.70908">
        <ele>95.4</ele>
        <time>2020-06-07T14:58:19Z</time>
      </trkpt>
      <trkpt lat="47.93617" lon="-3.70909">
        <ele>95.6</ele>
        <time>2020-06-07T14:58:20Z</time>
      </trkpt>
      <trkpt lat="47.93621" lon="-3.7091">
        <ele>95.9</ele>
        <time>2020-06-07T14:58:21Z</time>
      </trkpt>
      <trkpt lat="47.93622" lon="-3.7091">
        <ele>96</ele>
        <time>2020-06-07T14:58:22Z</time>
      </trkpt>
      <trkpt lat="47.93625" lon="-3.70911">
        <ele>96.2</ele>
        <time>2020-06-07T14:58:23Z</time>
      </trkpt>
      <trkpt lat="47.93627" lon="-3.7091">
        <ele>96.4</ele>
        <time>2020-06-07T14:58:24Z</time>
      </trkpt>
      <trkpt lat="47.93629" lon="-3.7091">
        <ele>96.5</ele>
        <time>2020-06-07T14:58:25Z</time>
      </trkpt>
      <trkpt lat="47.9363" lon="-3.7091">
        <ele>96.6</ele>
        <time>2020-06-07T14:58:26Z</time>
      </trkpt>
      <trkpt lat="47.93633" lon="-3.70912">
        <ele>96.8</ele>
        <time>2020-06-07T14:58:27Z</time>
      </trkpt>
      <trkpt lat="47.93637" lon="-3.70912">
        <ele>97.1</ele>
        <time>2020-06-07T14:58:28Z</time>
      </trkpt>
      <trkpt lat="47.93639" lon="-3.70913">
        <ele>97.2</ele>
        <time>2020-06-07T14:58:29Z</time>
      </trkpt>
      <trkpt lat="47.93642" lon="-3.70913">
        <ele>97.5</ele>
        <time>2020-06-07T14:58:30Z</time>
      </trkpt>
      <trkpt lat="47.93644" lon="-3.70913">
        <ele>97.6</ele>
        <time>2020-06-07T14:58:31Z</time>
      </trkpt>
      <trkpt lat="47.93647" lon="-3.70913">
        <ele>97.9</ele>
        <time>2020-06-07T14:58:32Z</time>
      </trkpt>
      <trkpt lat="47.93648" lon="-3.70913">
        <ele>98</ele>
        <time>2020-06-07T14:58:33Z</time>
      </trkpt>
      <trkpt lat="47.93653" lon="-3.70913">
        <ele>98.3</ele>
        <time>2020-06-07T14:58:34Z</time>
      </trkpt>
      <trkpt lat="47.93654" lon="-3.70913">
        <ele>98.4</ele>
        <time>2020-06-07T14:58:35Z</time>
      </trkpt>
      <trkpt lat="47.93657" lon="-3.70913">
        <ele>98.6</ele>
        <time>2020-06-07T14:58:36Z</time>
      </trkpt>
      <trkpt lat="47.9366" lon="-3.70914">
        <ele>98.8</ele>
        <time>2020-06-07T14:58:37Z</time>
      </trkpt>
      <trkpt lat="47.93661" lon="-3.70914">
        <ele>98.9</ele>
        <time>2020-06-07T14:58:38Z</time>
      </trkpt>
      <trkpt lat="47.93665" lon="-3.70915">
        <ele>99.2</ele>
        <time>2020-06-07T14:58:39Z</time>
      </trkpt>
      <trkpt lat="47.93666" lon="-3.70915">
        <ele>99.2</ele>
        <time>2020-06-07T14:58:40Z</time>
      </trkpt>
      <trkpt lat="47.93667" lon="-3.70915">
        <ele>99.4</ele>
        <time>2020-06-07T14:58:41Z</time>
      </trkpt>
      <trkpt lat="47.93669" lon="-3.70915">
        <ele>99.5</ele>
        <time>2020-06-07T14:58:42Z</time>
      </trkpt>
      <trkpt lat="47.93672" lon="-3.70916">
        <ele>99.7</ele>
        <time>2020-06-07T14:58:43Z</time>
      </trkpt>
      <trkpt lat="47.93674" lon="-3.70916">
        <ele>99.8</ele>
        <time>2020-06-07T14:58:44Z</time>
      </trkpt>
      <trkpt lat="47.93678" lon="-3.70916">
        <ele>100.1</ele>
        <time>2020-06-07T14:58:45Z</time>
      </trkpt>
      <trkpt lat="47.93679" lon="-3.70917">
        <ele>100.2</ele>
        <time>2020-06-07T14:58:46Z</time>
      </trkpt>
      <trkpt lat="47.93681" lon="-3.70917">
        <ele>100.3</ele>
        <time>2020-06-07T14:58:47Z</time>
      </trkpt>
      <trkpt lat="47.93685" lon="-3.70918">
        <ele>100.6</ele>
        <time>2020-06-07T14:58:48Z</time>
      </trkpt>
      <trkpt lat="47.93686" lon="-3.70919">
        <ele>100.7</ele>
        <time>2020-06-07T14:58:49Z</time>
      </trkpt>
      <trkpt lat="47.9369" lon="-3.70919">
        <ele>100.9</ele>
        <time>2020-06-07T14:58:50Z</time>
      </trkpt>
      <trkpt lat="47.9369" lon="-3.7092">
        <ele>101</ele>
        <time>2020-06-07T14:58:51Z</time>
      </trkpt>
      <trkpt lat="47.93692" lon="-3.7092">
        <ele>101.1</ele>
        <time>2020-06-07T14:58:52Z</time>
      </trkpt>
      <trkpt lat="47.93693" lon="-3.7092">
        <ele>101.2</ele>
        <time>2020-06-07T14:58:53Z</time>
      </trkpt>
      <trkpt lat="47.93696" lon="-3.70921">
        <ele>101.4</ele>
        <time>2020-06-07T14:58:54Z</time>
      </trkpt>
      <trkpt lat="47.93698" lon="-3.70921">
        <ele>101.5</ele>
        <time>2020-06-07T14:58:55Z</time>
      </trkpt>
      <trkpt lat="47.937" lon="-3.70922">
        <ele>101.7</ele>
        <time>2020-06-07T14:58:56Z</time>
      </trkpt>
      <trkpt lat="47.93703" lon="-3.70924">
        <ele>101.9</ele>
        <time>2020-06-07T14:58:57Z</time>
      </trkpt>
      <trkpt lat="47.93706" lon="-3.70924">
        <ele>102.1</ele>
        <time>2020-06-07T14:58:58Z</time>
      </trkpt>
      <trkpt lat="47.93707" lon="-3.70925">
        <ele>102.2</ele>
        <time>2020-06-07T14:58:59Z</time>
      </trkpt>
      <trkpt lat="47.9371" lon="-3.70925">
        <ele>102.4</ele>
        <time>2020-06-07T14:59:00Z</time>
      </trkpt>
      <trkpt lat="47.93713" lon="-3.70925">
        <ele>102.5</ele>
        <time>2020-06-07T14:59:01Z</time>
      </trkpt>
      <trkpt lat="47.93714" lon="-3.70925">
        <ele>102.6</ele>
        <time>2020-06-07T14:59:02Z</time>
      </trkpt>
      <trkpt lat="47.93718" lon="-3.70925">
        <ele>102.9</ele>
        <time>2020-06-07T14:59:03Z</time>
      </trkpt>
      <trkpt lat="47.93721" lon="-3.70925">
        <ele>103.1</ele>
        <time>2020-06-07T14:59:04Z</time>
      </trkpt>
      <trkpt lat="47.93723" lon="-3.70926">
        <ele>103.2</ele>
        <time>2020-06-07T14:59:05Z</time>
      </trkpt>
      <trkpt lat="47.93727" lon="-3.70925">
        <ele>103.5</ele>
        <time>2020-06-07T14:59:06Z</time>
      </trkpt>
      <trkpt lat="47.9373" lon="-3.70926">
        <ele>103.7</ele>
        <time>2020-06-07T14:59:07Z</time>
      </trkpt>
      <trkpt lat="47.93731" lon="-3.70926">
        <ele>103.8</ele>
        <time>2020-06-07T14:59:08Z</time>
      </trkpt>
      <trkpt lat="47.93735" lon="-3.70927">
        <ele>104.1</ele>
        <time>2020-06-07T14:59:09Z</time>
      </trkpt>
      <trkpt lat="47.93736" lon="-3.70927">
        <ele>104.2</ele>
        <time>2020-06-07T14:59:10Z</time>
      </trkpt>
      <trkpt lat="47.9374" lon="-3.70928">
        <ele>104.4</ele>
        <time>2020-06-07T14:59:11Z</time>
      </trkpt>
      <trkpt lat="47.93743" lon="-3.70928">
        <ele>104.6</ele>
        <time>2020-06-07T14:59:12Z</time>
      </trkpt>
      <trkpt lat="47.93746" lon="-3.70928">
        <ele>104.8</ele>
        <time>2020-06-07T14:59:13Z</time>
      </trkpt>
      <trkpt lat="47.93749" lon="-3.70928">
        <ele>105</ele>
        <time>2020-06-07T14:59:14Z</time>
      </trkpt>
      <trkpt lat="47.9375" lon="-3.70928">
        <ele>105.1</ele>
        <time>2020-06-07T14:59:15Z</time>
      </trkpt>
      <trkpt lat="47.93753" lon="-3.70928">
        <ele>105.3</ele>
        <time>2020-06-07T14:59:16Z</time>
      </trkpt>
      <trkpt lat="47.93754" lon="-3.70928">
        <ele>105.4</ele>
        <time>2020-06-07T14:59:17Z</time>
      </trkpt>
      <trkpt lat="47.93758" lon="-3.70929">
        <ele>105.7</ele>
        <time>2020-06-07T14:59:18Z</time>
      </trkpt>
      <trkpt lat="47.9376" lon="-3.7093">
        <ele>105.8</ele>
        <time>2020-06-07T14:59:19Z</time>
      </trkpt>
      <trkpt lat="47.93763" lon="-3.7093">
        <ele>106</ele>
        <time>2020-06-07T14:59:20Z</time>
      </trkpt>
      <trkpt lat="47.93766" lon="-3.70931">
        <ele>106.2</ele>
        <time>2020-06-07T14:59:21Z</time>
      </trkpt>
      <trkpt lat="47.93769" lon="-3.70932">
        <ele>106.4</ele>
        <time>2020-06-07T14:59:22Z</time>
      </trkpt>
      <trkpt lat="47.93772" lon="-3.70931">
        <ele>106.5</ele>
        <time>2020-06-07T14:59:23Z</time>
      </trkpt>
      <trkpt lat="47.93776" lon="-3.70931">
        <ele>106.8</ele>
        <time>2020-06-07T14:59:24Z</time>
      </trkpt>
      <trkpt lat="47.93778" lon="-3.70931">
        <ele>106.9</ele>
        <time>2020-06-07T14:59:25Z</time>
      </trkpt>
      <trkpt lat="47.9378" lon="-3.70932">
        <ele>107</ele>
        <time>2020-06-07T14:59:26Z</time>
      </trkpt>
      <trkpt lat="47.93784" lon="-3.70933">
        <ele>107.3</ele>
        <time>2020-06-07T14:59:27Z</time>
      </trkpt>
      <trkpt lat="47.93785" lon="-3.70933">
        <ele>107.3</ele>
        <time>2020-06-07T14:59:28Z</time>
      </trkpt>
      <trkpt lat="47.93789" lon="-3.70933">
        <ele>107.5</ele>
        <time>2020-06-07T14:59:29Z</time>
      </trkpt>
      <trkpt lat="47.9379" lon="-3.70933">
        <ele>107.6</ele>
        <time>2020-06-07T14:59:30Z</time>
      </trkpt>
      <trkpt lat="47.93792" lon="-3.70933">
        <ele>107.7</ele>
        <time>2020-06-07T14:59:31Z</time>
      </trkpt>
      <trkpt lat="47.93794" lon="-3.70933">
        <ele>107.8</ele>
        <time>2020-06-07T14:59:32Z</time>
      </trkpt>
      <trkpt lat="47.93797" lon="-3.70934">
        <ele>108</ele>
        <time>2020-06-07T14:59:33Z</time>
      </trkpt>
      <trkpt lat="47.93798" lon="-3.70934">
        <ele>108</ele>
        <time>2020-06-07T14:59:34Z</time>
      </trkpt>
      <trkpt lat="47.93801" lon="-3.70935">
        <ele>108.2</ele>
        <time>2020-06-07T14:59:35Z</time>
      </trkpt>
      <trkpt lat="47.93802" lon="-3.70935">
        <ele>108.3</ele>
        <time>2020-06-07T14:59:36Z</time>
      </trkpt>
      <trkpt lat="47.93806" lon="-3.70936">
        <ele>108.5</ele>
        <time>2020-06-07T14:59:37Z</time>
      </trkpt>
      <trkpt lat="47.93807" lon="-3.70936">
        <ele>108.6</ele>
        <time>2020-06-07T14:59:38Z</time>
      </trkpt>
      <trkpt lat="47.9381" lon="-3.70936">
        <ele>108.7</ele>
        <time>2020-06-07T14:59:39Z</time>
      </trkpt>
      <trkpt lat="47.93813" lon="-3.70936">
        <ele>108.9</ele>
        <time>2020-06-07T14:59:40Z</time>
      </trkpt>
      <trkpt lat="47.93817" lon="-3.70937">
        <ele>109.1</ele>
        <time>2020-06-07T14:59:41Z</time>
      </trkpt>
      <trkpt lat="47.93818" lon="-3.70938">
        <ele>109.2</ele>
        <time>2020-06-07T14:59:42Z</time>
      </trkpt>
      <trkpt lat="47.93822" lon="-3.70938">
        <ele>109.4</ele>
        <time>2020-06-07T14:59:43Z</time>
      </trkpt>
      <trkpt lat="47.93824" lon="-3.70938">
        <ele>109.5</ele>
        <time>2020-06-07T14:59:44Z</time>
      </trkpt>
      <trkpt lat="47.93827" lon="-3.70938">
        <ele>109.7</ele>
        <time>2020-06-07T14:59:45Z</time>
      </trkpt>
      <trkpt lat="47.93831" lon="-3.70938">
        <ele>109.9</ele>
        <time>2020-06-07T14:59:46Z</time>
      </trkpt>
      <trkpt lat="47.93834" lon="-3.70938">
        <ele>110.1</ele>
        <time>2020-06-07T14:59:47Z</time>
      </trkpt>
      <trkpt lat="47.93838" lon="-3.70938">
        <ele>110.3</ele>
        <time>2020-06-07T14:59:48Z</time>
      </trkpt>
      <trkpt lat="47.93839" lon="-3.70938">
        <ele>110.4</ele>
        <time>2020-06-07T14:59:49Z</time>
      </trkpt>
      <trkpt lat="47.93843" lon="-3.70939">
        <ele>110.6</ele>
        <time>2020-06-07T14:59:50Z</time>
      </trkpt>
      <trkpt lat="47.93844" lon="-3.70939">
        <ele>110.6</ele>
        <time>2020-06-07T14:59:51Z</time>
      </trkpt>
      <trkpt lat="47.93847" lon="-3.70939">
        <ele>110.8</ele>
        <time>2020-06-07T14:59:52Z</time>
      </trkpt>
      <trkpt lat="47.9385" lon="-3.7094">
        <ele>111</ele>
        <time>2020-06-07T14:59:53Z</time>
      </trkpt>
      <trkpt lat="47.93851" lon="-3.7094">
        <ele>111</ele>
        <time>2020-06-07T14:59:54Z</time>
      </trkpt>
      <trkpt lat="47.93855" lon="-3.7094">
        <ele>111.2</ele>
        <time>2020-06-07T14:59:55Z</time>
      </trkpt>
      <trkpt lat="47.93856" lon="-3.70941">
        <ele>111.3</ele>
        <time>2020-06-07T14:59:56Z</time>
      </trkpt>
      <trkpt lat="47.93859" lon="-3.70942">
        <ele>111.4</ele>
        <time>2020-06-07T14:59:57Z</time>
      </trkpt>
      <trkpt lat="47.9386" lon="-3.70943">
        <ele>111.4</ele>
        <time>2020-06-07T14:59:58Z</time>
      </trkpt>
      <trkpt lat="47.93863" lon="-3.70942">
        <ele>111.4</ele>
        <time>2020-06-07T14:59:59Z</time>
      </trkpt>
      <trkpt lat="47.93864" lon="-3.70942">
        <ele>111.4</ele>
        <time>2020-06-07T15:00:00Z</time>
      </trkpt>
      <trkpt lat="47.93867" lon="-3.70942">
        <ele>111.4</ele>
        <time>2020-06-07T15:00:01Z</time>
      </trkpt>
      <trkpt lat="47.9387" lon="-3.70943">
        <ele>111.6</ele>
        <time>2020-06-07T15:00:02Z</time>
      </trkpt>
      <trkpt lat="47.93871" lon="-3.70944">
        <ele>111.7</ele>
        <time>2020-06-07T15:00:03Z</time>
      </trkpt>
      <trkpt lat="47.93874" lon="-3.70945">
        <ele>111.9</ele>
        <time>2020-06-07T15:00:04Z</time>
      </trkpt>
      <trkpt lat="47.93879" lon="-3.70945">
        <ele>112.1</ele>
        <time>2020-06-07T15:00:05Z</time>
      </trkpt>
      <trkpt lat="47.93881" lon="-3.70945">
        <ele>112.2</ele>
        <time>2020-06-07T15:00:06Z</time>
      </trkpt>
      <trkpt lat="47.93885" lon="-3.70946">
        <ele>112.4</ele>
        <time>2020-06-07T15:00:07Z</time>
      </trkpt>
      <trkpt lat="47.93886" lon="-3.70946">
        <ele>112.5</ele>
        <time>2020-06-07T15:00:08Z</time>
      </trkpt>
      <trkpt lat="47.9389" lon="-3.70947">
        <ele>112.7</ele>
        <time>2020-06-07T15:00:09Z</time>
      </trkpt>
      <trkpt lat="47.93891" lon="-3.70947">
        <ele>112.7</ele>
        <time>2020-06-07T15:00:10Z</time>
      </trkpt>
      <trkpt lat="47.93894" lon="-3.70947">
        <ele>112.9</ele>
        <time>2020-06-07T15:00:11Z</time>
      </trkpt>
      <trkpt lat="47.93898" lon="-3.70949">
        <ele>113</ele>
        <time>2020-06-07T15:00:12Z</time>
      </trkpt>
      <trkpt lat="47.93899" lon="-3.70949">
        <ele>113.1</ele>
        <time>2020-06-07T15:00:13Z</time>
      </trkpt>
      <trkpt lat="47.93903" lon="-3.70949">
        <ele>113.2</ele>
        <time>2020-06-07T15:00:14Z</time>
      </trkpt>
      <trkpt lat="47.93904" lon="-3.70949">
        <ele>113.3</ele>
        <time>2020-06-07T15:00:15Z</time>
      </trkpt>
      <trkpt lat="47.93907" lon="-3.7095">
        <ele>113.4</ele>
        <time>2020-06-07T15:00:16Z</time>
      </trkpt>
      <trkpt lat="47.93911" lon="-3.70952">
        <ele>113.5</ele>
        <time>2020-06-07T15:00:17Z</time>
      </trkpt>
      <trkpt lat="47.93914" lon="-3.70953">
        <ele>113.6</ele>
        <time>2020-06-07T15:00:18Z</time>
      </trkpt>
      <trkpt lat="47.93918" lon="-3.70954">
        <ele>113.8</ele>
        <time>2020-06-07T15:00:19Z</time>
      </trkpt>
      <trkpt lat="47.93921" lon="-3.70956">
        <ele>113.9</ele>
        <time>2020-06-07T15:00:20Z</time>
      </trkpt>
      <trkpt lat="47.93924" lon="-3.70958">
        <ele>114</ele>
        <time>2020-06-07T15:00:21Z</time>
      </trkpt>
      <trkpt lat="47.93928" lon="-3.7096">
        <ele>114.1</ele>
        <time>2020-06-07T15:00:22Z</time>
      </trkpt>
      <trkpt lat="47.93929" lon="-3.7096">
        <ele>114.1</ele>
        <time>2020-06-07T15:00:23Z</time>
      </trkpt>
      <trkpt lat="47.93932" lon="-3.70959">
        <ele>114.2</ele>
        <time>2020-06-07T15:00:24Z</time>
      </trkpt>
      <trkpt lat="47.93935" lon="-3.70957">
        <ele>114.3</ele>
        <time>2020-06-07T15:00:25Z</time>
      </trkpt>
      <trkpt lat="47.93938" lon="-3.70957">
        <ele>114.4</ele>
        <time>2020-06-07T15:00:26Z</time>
      </trkpt>
      <trkpt lat="47.93941" lon="-3.70958">
        <ele>114.5</ele>
        <time>2020-06-07T15:00:27Z</time>
      </trkpt>
      <trkpt lat="47.93945" lon="-3.70959">
        <ele>114.6</ele>
        <time>2020-06-07T15:00:28Z</time>
      </trkpt>
      <trkpt lat="47.93949" lon="-3.70959">
        <ele>114.7</ele>
        <time>2020-06-07T15:00:29Z</time>
      </trkpt>
      <trkpt lat="47.93951" lon="-3.70959">
        <ele>114.7</ele>
        <time>2020-06-07T15:00:30Z</time>
      </trkpt>
      <trkpt lat="47.93954" lon="-3.70958">
        <ele>114.8</ele>
        <time>2020-06-07T15:00:31Z</time>
      </trkpt>
      <trkpt lat="47.93957" lon="-3.70959">
        <ele>114.9</ele>
        <time>2020-06-07T15:00:32Z</time>
      </trkpt>
      <trkpt lat="47.9396" lon="-3.70959">
        <ele>114.9</ele>
        <time>2020-06-07T15:00:33Z</time>
      </trkpt>
      <trkpt lat="47.93963" lon="-3.7096">
        <ele>115</ele>
        <time>2020-06-07T15:00:34Z</time>
      </trkpt>
      <trkpt lat="47.93964" lon="-3.70961">
        <ele>115</ele>
        <time>2020-06-07T15:00:35Z</time>
      </trkpt>
      <trkpt lat="47.93968" lon="-3.70962">
        <ele>115.1</ele>
        <time>2020-06-07T15:00:36Z</time>
      </trkpt>
      <trkpt lat="47.93969" lon="-3.70961">
        <ele>115.1</ele>
        <time>2020-06-07T15:00:37Z</time>
      </trkpt>
      <trkpt lat="47.93972" lon="-3.70961">
        <ele>115.2</ele>
        <time>2020-06-07T15:00:38Z</time>
      </trkpt>
      <trkpt lat="47.93974" lon="-3.70962">
        <ele>115.2</ele>
        <time>2020-06-07T15:00:39Z</time>
      </trkpt>
      <trkpt lat="47.93977" lon="-3.70962">
        <ele>115.2</ele>
        <time>2020-06-07T15:00:40Z</time>
      </trkpt>
      <trkpt lat="47.9398" lon="-3.70963">
        <ele>115.3</ele>
        <time>2020-06-07T15:00:41Z</time>
      </trkpt>
      <trkpt lat="47.93983" lon="-3.70962">
        <ele>115.3</ele>
        <time>2020-06-07T15:00:42Z</time>
      </trkpt>
      <trkpt lat="47.93987" lon="-3.70963">
        <ele>115.3</ele>
        <time>2020-06-07T15:00:43Z</time>
      </trkpt>
      <trkpt lat="47.9399" lon="-3.70964">
        <ele>115.4</ele>
        <time>2020-06-07T15:00:44Z</time>
      </trkpt>
      <trkpt lat="47.93993" lon="-3.70963">
        <ele>115.4</ele>
        <time>2020-06-07T15:00:45Z</time>
      </trkpt>
      <trkpt lat="47.93997" lon="-3.70963">
        <ele>115.5</ele>
        <time>2020-06-07T15:00:46Z</time>
      </trkpt>
      <trkpt lat="47.93998" lon="-3.70962">
        <ele>115.5</ele>
        <time>2020-06-07T15:00:47Z</time>
      </trkpt>
      <trkpt lat="47.94001" lon="-3.70963">
        <ele>115.5</ele>
        <time>2020-06-07T15:00:48Z</time>
      </trkpt>
      <trkpt lat="47.94005" lon="-3.70964">
        <ele>115.6</ele>
        <time>2020-06-07T15:00:49Z</time>
      </trkpt>
      <trkpt lat="47.94009" lon="-3.70963">
        <ele>115.6</ele>
        <time>2020-06-07T15:00:50Z</time>
      </trkpt>
      <trkpt lat="47.94013" lon="-3.70964">
        <ele>115.6</ele>
        <time>2020-06-07T15:00:51Z</time>
      </trkpt>
      <trkpt lat="47.94017" lon="-3.70964">
        <ele>115.7</ele>
        <time>2020-06-07T15:00:52Z</time>
      </trkpt>
      <trkpt lat="47.9402" lon="-3.70965">
        <ele>115.7</ele>
        <time>2020-06-07T15:00:53Z</time>
      </trkpt>
      <trkpt lat="47.94024" lon="-3.70965">
        <ele>115.7</ele>
        <time>2020-06-07T15:00:54Z</time>
      </trkpt>
      <trkpt lat="47.94029" lon="-3.70966">
        <ele>115.8</ele>
        <time>2020-06-07T15:00:55Z</time>
      </trkpt>
      <trkpt lat="47.94034" lon="-3.70967">
        <ele>115.8</ele>
        <time>2020-06-07T15:00:56Z</time>
      </trkpt>
      <trkpt lat="47.94038" lon="-3.70967">
        <ele>115.8</ele>
        <time>2020-06-07T15:00:57Z</time>
      </trkpt>
      <trkpt lat="47.94042" lon="-3.70968">
        <ele>115.8</ele>
        <time>2020-06-07T15:00:58Z</time>
      </trkpt>
      <trkpt lat="47.94046" lon="-3.70969">
        <ele>115.8</ele>
        <time>2020-06-07T15:00:59Z</time>
      </trkpt>
      <trkpt lat="47.9405" lon="-3.7097">
        <ele>115.8</ele>
        <time>2020-06-07T15:01:00Z</time>
      </trkpt>
      <trkpt lat="47.94053" lon="-3.70971">
        <ele>115.8</ele>
        <time>2020-06-07T15:01:01Z</time>
      </trkpt>
      <trkpt lat="47.94056" lon="-3.70972">
        <ele>115.8</ele>
        <time>2020-06-07T15:01:02Z</time>
      </trkpt>
      <trkpt lat="47.9406" lon="-3.70972">
        <ele>115.8</ele>
        <time>2020-06-07T15:01:03Z</time>
      </trkpt>
      <trkpt lat="47.94061" lon="-3.70973">
        <ele>115.8</ele>
        <time>2020-06-07T15:01:04Z</time>
      </trkpt>
      <trkpt lat="47.94066" lon="-3.70975">
        <ele>115.8</ele>
        <time>2020-06-07T15:01:05Z</time>
      </trkpt>
      <trkpt lat="47.9407" lon="-3.70976">
        <ele>115.7</ele>
        <time>2020-06-07T15:01:06Z</time>
      </trkpt>
      <trkpt lat="47.94073" lon="-3.70975">
        <ele>115.7</ele>
        <time>2020-06-07T15:01:07Z</time>
      </trkpt>
      <trkpt lat="47.94077" lon="-3.70976">
        <ele>115.7</ele>
        <time>2020-06-07T15:01:08Z</time>
      </trkpt>
      <trkpt lat="47.94081" lon="-3.70977">
        <ele>115.7</ele>
        <time>2020-06-07T15:01:09Z</time>
      </trkpt>
      <trkpt lat="47.94085" lon="-3.70975">
        <ele>115.7</ele>
        <time>2020-06-07T15:01:10Z</time>
      </trkpt>
      <trkpt lat="47.94089" lon="-3.70976">
        <ele>115.6</ele>
        <time>2020-06-07T15:01:11Z</time>
      </trkpt>
      <trkpt lat="47.94093" lon="-3.70976">
        <ele>115.6</ele>
        <time>2020-06-07T15:01:12Z</time>
      </trkpt>
      <trkpt lat="47.94098" lon="-3.70975">
        <ele>115.6</ele>
        <time>2020-06-07T15:01:13Z</time>
      </trkpt>
      <trkpt lat="47.94101" lon="-3.70975">
        <ele>115.5</ele>
        <time>2020-06-07T15:01:14Z</time>
      </trkpt>
      <trkpt lat="47.94105" lon="-3.70976">
        <ele>115.5</ele>
        <time>2020-06-07T15:01:15Z</time>
      </trkpt>
      <trkpt lat="47.9411" lon="-3.70977">
        <ele>115.4</ele>
        <time>2020-06-07T15:01:16Z</time>
      </trkpt>
      <trkpt lat="47.94114" lon="-3.70979">
        <ele>115.4</ele>
        <time>2020-06-07T15:01:17Z</time>
      </trkpt>
      <trkpt lat="47.94118" lon="-3.70979">
        <ele>115.4</ele>
        <time>2020-06-07T15:01:18Z</time>
      </trkpt>
      <trkpt lat="47.94122" lon="-3.70979">
        <ele>115.3</ele>
        <time>2020-06-07T15:01:19Z</time>
      </trkpt>
      <trkpt lat="47.94127" lon="-3.70979">
        <ele>115.3</ele>
        <time>2020-06-07T15:01:20Z</time>
      </trkpt>
      <trkpt lat="47.94132" lon="-3.7098">
        <ele>115.2</ele>
        <time>2020-06-07T15:01:21Z</time>
      </trkpt>
      <trkpt lat="47.94136" lon="-3.70981">
        <ele>115.2</ele>
        <time>2020-06-07T15:01:22Z</time>
      </trkpt>
      <trkpt lat="47.94141" lon="-3.70982">
        <ele>115.1</ele>
        <time>2020-06-07T15:01:23Z</time>
      </trkpt>
      <trkpt lat="47.94146" lon="-3.70982">
        <ele>115</ele>
        <time>2020-06-07T15:01:24Z</time>
      </trkpt>
      <trkpt lat="47.94152" lon="-3.70978">
        <ele>114.8</ele>
        <time>2020-06-07T15:01:25Z</time>
      </trkpt>
      <trkpt lat="47.94158" lon="-3.70978">
        <ele>114.7</ele>
        <time>2020-06-07T15:01:26Z</time>
      </trkpt>
      <trkpt lat="47.94163" lon="-3.7098">
        <ele>114.5</ele>
        <time>2020-06-07T15:01:27Z</time>
      </trkpt>
      <trkpt lat="47.94169" lon="-3.7098">
        <ele>114.3</ele>
        <time>2020-06-07T15:01:28Z</time>
      </trkpt>
      <trkpt lat="47.94176" lon="-3.7098">
        <ele>114.1</ele>
        <time>2020-06-07T15:01:29Z</time>
      </trkpt>
      <trkpt lat="47.94184" lon="-3.7098">
        <ele>113.9</ele>
        <time>2020-06-07T15:01:30Z</time>
      </trkpt>
      <trkpt lat="47.9419" lon="-3.7098">
        <ele>113.7</ele>
        <time>2020-06-07T15:01:31Z</time>
      </trkpt>
      <trkpt lat="47.94197" lon="-3.70979">
        <ele>113.5</ele>
        <time>2020-06-07T15:01:32Z</time>
      </trkpt>
      <trkpt lat="47.94202" lon="-3.7098">
        <ele>113.4</ele>
        <time>2020-06-07T15:01:33Z</time>
      </trkpt>
      <trkpt lat="47.94209" lon="-3.7098">
        <ele>113.2</ele>
        <time>2020-06-07T15:01:34Z</time>
      </trkpt>
      <trkpt lat="47.94214" lon="-3.7098">
        <ele>113.1</ele>
        <time>2020-06-07T15:01:35Z</time>
      </trkpt>
      <trkpt lat="47.94219" lon="-3.7098">
        <ele>112.9</ele>
        <time>2020-06-07T15:01:36Z</time>
      </trkpt>
      <trkpt lat="47.94224" lon="-3.7098">
        <ele>112.8</ele>
        <time>2020-06-07T15:01:37Z</time>
      </trkpt>
      <trkpt lat="47.94228" lon="-3.7098">
        <ele>112.6</ele>
        <time>2020-06-07T15:01:38Z</time>
      </trkpt>
      <trkpt lat="47.94233" lon="-3.7098">
        <ele>112.5</ele>
        <time>2020-06-07T15:01:39Z</time>
      </trkpt>
      <trkpt lat="47.94237" lon="-3.70981">
        <ele>112.3</ele>
        <time>2020-06-07T15:01:40Z</time>
      </trkpt>
      <trkpt lat="47.94242" lon="-3.70981">
        <ele>112.1</ele>
        <time>2020-06-07T15:01:41Z</time>
      </trkpt>
      <trkpt lat="47.94247" lon="-3.70981">
        <ele>112</ele>
        <time>2020-06-07T15:01:42Z</time>
      </trkpt>
      <trkpt lat="47.94252" lon="-3.70981">
        <ele>111.8</ele>
        <time>2020-06-07T15:01:43Z</time>
      </trkpt>
      <trkpt lat="47.94257" lon="-3.70981">
        <ele>111.7</ele>
        <time>2020-06-07T15:01:44Z</time>
      </trkpt>
      <trkpt lat="47.94262" lon="-3.70982">
        <ele>111.5</ele>
        <time>2020-06-07T15:01:45Z</time>
      </trkpt>
      <trkpt lat="47.94268" lon="-3.70982">
        <ele>111.3</ele>
        <time>2020-06-07T15:01:46Z</time>
      </trkpt>
      <trkpt lat="47.94273" lon="-3.70982">
        <ele>111.2</ele>
        <time>2020-06-07T15:01:47Z</time>
      </trkpt>
      <trkpt lat="47.9428" lon="-3.70982">
        <ele>111</ele>
        <time>2020-06-07T15:01:48Z</time>
      </trkpt>
      <trkpt lat="47.94287" lon="-3.70983">
        <ele>110.7</ele>
        <time>2020-06-07T15:01:49Z</time>
      </trkpt>
      <trkpt lat="47.94293" lon="-3.70983">
        <ele>110.5</ele>
        <time>2020-06-07T15:01:50Z</time>
      </trkpt>
      <trkpt lat="47.943" lon="-3.70983">
        <ele>110.3</ele>
        <time>2020-06-07T15:01:51Z</time>
      </trkpt>
      <trkpt lat="47.94306" lon="-3.70983">
        <ele>110.2</ele>
        <time>2020-06-07T15:01:52Z</time>
      </trkpt>
      <trkpt lat="47.94312" lon="-3.70983">
        <ele>110</ele>
        <time>2020-06-07T15:01:53Z</time>
      </trkpt>
      <trkpt lat="47.94317" lon="-3.70983">
        <ele>109.9</ele>
        <time>2020-06-07T15:01:54Z</time>
      </trkpt>
      <trkpt lat="47.94322" lon="-3.70983">
        <ele>109.7</ele>
        <time>2020-06-07T15:01:55Z</time>
      </trkpt>
      <trkpt lat="47.94327" lon="-3.70983">
        <ele>109.6</ele>
        <time>2020-06-07T15:01:56Z</time>
      </trkpt>
      <trkpt lat="47.94332" lon="-3.70983">
        <ele>109.4</ele>
        <time>2020-06-07T15:01:57Z</time>
      </trkpt>
      <trkpt lat="47.94339" lon="-3.70983">
        <ele>109.2</ele>
        <time>2020-06-07T15:01:58Z</time>
      </trkpt>
      <trkpt lat="47.94345" lon="-3.70984">
        <ele>109.1</ele>
        <time>2020-06-07T15:01:59Z</time>
      </trkpt>
      <trkpt lat="47.94351" lon="-3.70983">
        <ele>108.9</ele>
        <time>2020-06-07T15:02:00Z</time>
      </trkpt>
      <trkpt lat="47.94356" lon="-3.70983">
        <ele>108.8</ele>
        <time>2020-06-07T15:02:01Z</time>
      </trkpt>
      <trkpt lat="47.94362" lon="-3.70983">
        <ele>108.6</ele>
        <time>2020-06-07T15:02:02Z</time>
      </trkpt>
      <trkpt lat="47.94368" lon="-3.70983">
        <ele>108.5</ele>
        <time>2020-06-07T15:02:03Z</time>
      </trkpt>
      <trkpt lat="47.94374" lon="-3.70984">
        <ele>108.4</ele>
        <time>2020-06-07T15:02:04Z</time>
      </trkpt>
      <trkpt lat="47.94379" lon="-3.70985">
        <ele>108.2</ele>
        <time>2020-06-07T15:02:05Z</time>
      </trkpt>
      <trkpt lat="47.94385" lon="-3.70985">
        <ele>108.1</ele>
        <time>2020-06-07T15:02:06Z</time>
      </trkpt>
      <trkpt lat="47.94392" lon="-3.70985">
        <ele>108</ele>
        <time>2020-06-07T15:02:07Z</time>
      </trkpt>
      <trkpt lat="47.94398" lon="-3.70985">
        <ele>107.9</ele>
        <time>2020-06-07T15:02:08Z</time>
      </trkpt>
      <trkpt lat="47.94405" lon="-3.70986">
        <ele>107.9</ele>
        <time>2020-06-07T15:02:09Z</time>
      </trkpt>
      <trkpt lat="47.94411" lon="-3.70986">
        <ele>107.8</ele>
        <time>2020-06-07T15:02:10Z</time>
      </trkpt>
      <trkpt lat="47.94417" lon="-3.70987">
        <ele>107.8</ele>
        <time>2020-06-07T15:02:11Z</time>
      </trkpt>
      <trkpt lat="47.94423" lon="-3.70987">
        <ele>107.7</ele>
        <time>2020-06-07T15:02:12Z</time>
      </trkpt>
      <trkpt lat="47.9443" lon="-3.70986">
        <ele>107.7</ele>
        <time>2020-06-07T15:02:13Z</time>
      </trkpt>
      <trkpt lat="47.94435" lon="-3.70984">
        <ele>107.7</ele>
        <time>2020-06-07T15:02:14Z</time>
      </trkpt>
      <trkpt lat="47.94441" lon="-3.70984">
        <ele>107.7</ele>
        <time>2020-06-07T15:02:15Z</time>
      </trkpt>
      <trkpt lat="47.94447" lon="-3.70983">
        <ele>107.8</ele>
        <time>2020-06-07T15:02:16Z</time>
      </trkpt>
      <trkpt lat="47.94453" lon="-3.70983">
        <ele>107.8</ele>
        <time>2020-06-07T15:02:17Z</time>
      </trkpt>
      <trkpt lat="47.9446" lon="-3.70982">
        <ele>107.8</ele>
        <time>2020-06-07T15:02:18Z</time>
      </trkpt>
      <trkpt lat="47.94465" lon="-3.70982">
        <ele>107.8</ele>
        <time>2020-06-07T15:02:19Z</time>
      </trkpt>
      <trkpt lat="47.94472" lon="-3.70982">
        <ele>107.8</ele>
        <time>2020-06-07T15:02:20Z</time>
      </trkpt>
      <trkpt lat="47.94478" lon="-3.70982">
        <ele>107.8</ele>
        <time>2020-06-07T15:02:21Z</time>
      </trkpt>
      <trkpt lat="47.94485" lon="-3.70982">
        <ele>107.9</ele>
        <time>2020-06-07T15:02:22Z</time>
      </trkpt>
      <trkpt lat="47.94491" lon="-3.70981">
        <ele>107.9</ele>
        <time>2020-06-07T15:02:23Z</time>
      </trkpt>
      <trkpt lat="47.94496" lon="-3.70981">
        <ele>108</ele>
        <time>2020-06-07T15:02:24Z</time>
      </trkpt>
      <trkpt lat="47.94502" lon="-3.7098">
        <ele>108</ele>
        <time>2020-06-07T15:02:25Z</time>
      </trkpt>
      <trkpt lat="47.94507" lon="-3.7098">
        <ele>108.1</ele>
        <time>2020-06-07T15:02:26Z</time>
      </trkpt>
      <trkpt lat="47.94513" lon="-3.70979">
        <ele>108.2</ele>
        <time>2020-06-07T15:02:27Z</time>
      </trkpt>
      <trkpt lat="47.94518" lon="-3.70979">
        <ele>108.2</ele>
        <time>2020-06-07T15:02:28Z</time>
      </trkpt>
      <trkpt lat="47.94523" lon="-3.70978">
        <ele>108.3</ele>
        <time>2020-06-07T15:02:29Z</time>
      </trkpt>
      <trkpt lat="47.94529" lon="-3.70977">
        <ele>108.4</ele>
        <time>2020-06-07T15:02:30Z</time>
      </trkpt>
      <trkpt lat="47.94534" lon="-3.70976">
        <ele>108.5</ele>
        <time>2020-06-07T15:02:31Z</time>
      </trkpt>
      <trkpt lat="47.94539" lon="-3.70975">
        <ele>108.6</ele>
        <time>2020-06-07T15:02:32Z</time>
      </trkpt>
      <trkpt lat="47.94543" lon="-3.70974">
        <ele>108.7</ele>
        <time>2020-06-07T15:02:33Z</time>
      </trkpt>
      <trkpt lat="47.94546" lon="-3.70974">
        <ele>108.8</ele>
        <time>2020-06-07T15:02:34Z</time>
      </trkpt>
      <trkpt lat="47.9455" lon="-3.70974">
        <ele>108.9</ele>
        <time>2020-06-07T15:02:35Z</time>
      </trkpt>
      <trkpt lat="47.94554" lon="-3.70974">
        <ele>109</ele>
        <time>2020-06-07T15:02:36Z</time>
      </trkpt>
      <trkpt lat="47.94558" lon="-3.70973">
        <ele>109.1</ele>
        <time>2020-06-07T15:02:37Z</time>
      </trkpt>
      <trkpt lat="47.94562" lon="-3.70974">
        <ele>109.2</ele>
        <time>2020-06-07T15:02:38Z</time>
      </trkpt>
      <trkpt lat="47.94565" lon="-3.70974">
        <ele>109.3</ele>
        <time>2020-06-07T15:02:39Z</time>
      </trkpt>
      <trkpt lat="47.9457" lon="-3.70974">
        <ele>109.4</ele>
        <time>2020-06-07T15:02:40Z</time>
      </trkpt>
      <trkpt lat="47.94574" lon="-3.70973">
        <ele>109.6</ele>
        <time>2020-06-07T15:02:41Z</time>
      </trkpt>
      <trkpt lat="47.94578" lon="-3.70973">
        <ele>109.7</ele>
        <time>2020-06-07T15:02:42Z</time>
      </trkpt>
      <trkpt lat="47.94583" lon="-3.70973">
        <ele>109.8</ele>
        <time>2020-06-07T15:02:43Z</time>
      </trkpt>
      <trkpt lat="47.94586" lon="-3.70973">
        <ele>110</ele>
        <time>2020-06-07T15:02:44Z</time>
      </trkpt>
      <trkpt lat="47.94591" lon="-3.70973">
        <ele>110.1</ele>
        <time>2020-06-07T15:02:45Z</time>
      </trkpt>
      <trkpt lat="47.94596" lon="-3.70973">
        <ele>110.3</ele>
        <time>2020-06-07T15:02:46Z</time>
      </trkpt>
      <trkpt lat="47.946" lon="-3.70972">
        <ele>110.5</ele>
        <time>2020-06-07T15:02:47Z</time>
      </trkpt>
      <trkpt lat="47.94605" lon="-3.70972">
        <ele>110.7</ele>
        <time>2020-06-07T15:02:48Z</time>
      </trkpt>
      <trkpt lat="47.94609" lon="-3.70973">
        <ele>110.9</ele>
        <time>2020-06-07T15:02:49Z</time>
      </trkpt>
      <trkpt lat="47.94614" lon="-3.70973">
        <ele>111.1</ele>
        <time>2020-06-07T15:02:50Z</time>
      </trkpt>
      <trkpt lat="47.94618" lon="-3.70973">
        <ele>111.2</ele>
        <time>2020-06-07T15:02:51Z</time>
      </trkpt>
      <trkpt lat="47.94622" lon="-3.70972">
        <ele>111.4</ele>
        <time>2020-06-07T15:02:52Z</time>
      </trkpt>
      <trkpt lat="47.94626" lon="-3.70972">
        <ele>111.6</ele>
        <time>2020-06-07T15:02:53Z</time>
      </trkpt>
      <trkpt lat="47.9463" lon="-3.70972">
        <ele>111.7</ele>
        <time>2020-06-07T15:02:54Z</time>
      </trkpt>
      <trkpt lat="47.94634" lon="-3.70971">
        <ele>111.8</ele>
        <time>2020-06-07T15:02:55Z</time>
      </trkpt>
      <trkpt lat="47.94638" lon="-3.70971">
        <ele>112</ele>
        <time>2020-06-07T15:02:56Z</time>
      </trkpt>
      <trkpt lat="47.94641" lon="-3.70971">
        <ele>112.1</ele>
        <time>2020-06-07T15:02:57Z</time>
      </trkpt>
      <trkpt lat="47.94644" lon="-3.70971">
        <ele>112.2</ele>
        <time>2020-06-07T15:02:58Z</time>
      </trkpt>
      <trkpt lat="47.94647" lon="-3.70971">
        <ele>112.3</ele>
        <time>2020-06-07T15:02:59Z</time>
      </trkpt>
      <trkpt lat="47.94651" lon="-3.70972">
        <ele>112.4</ele>
        <time>2020-06-07T15:03:00Z</time>
      </trkpt>
      <trkpt lat="47.94655" lon="-3.70972">
        <ele>112.6</ele>
        <time>2020-06-07T15:03:01Z</time>
      </trkpt>
      <trkpt lat="47.94659" lon="-3.70972">
        <ele>112.7</ele>
        <time>2020-06-07T15:03:02Z</time>
      </trkpt>
      <trkpt lat="47.94663" lon="-3.70972">
        <ele>112.9</ele>
        <time>2020-06-07T15:03:03Z</time>
      </trkpt>
      <trkpt lat="47.94667" lon="-3.70971">
        <ele>113.1</ele>
        <time>2020-06-07T15:03:04Z</time>
      </trkpt>
      <trkpt lat="47.94671" lon="-3.70971">
        <ele>113.2</ele>
        <time>2020-06-07T15:03:05Z</time>
      </trkpt>
      <trkpt lat="47.94674" lon="-3.70971">
        <ele>113.3</ele>
        <time>2020-06-07T15:03:06Z</time>
      </trkpt>
      <trkpt lat="47.94678" lon="-3.70971">
        <ele>113.5</ele>
        <time>2020-06-07T15:03:07Z</time>
      </trkpt>
      <trkpt lat="47.94681" lon="-3.70972">
        <ele>113.6</ele>
        <time>2020-06-07T15:03:08Z</time>
      </trkpt>
      <trkpt lat="47.94684" lon="-3.70972">
        <ele>113.7</ele>
        <time>2020-06-07T15:03:09Z</time>
      </trkpt>
      <trkpt lat="47.94687" lon="-3.70972">
        <ele>114</ele>
        <time>2020-06-07T15:03:10Z</time>
      </trkpt>
      <trkpt lat="47.9469" lon="-3.70972">
        <ele>114</ele>
        <time>2020-06-07T15:03:11Z</time>
      </trkpt>
      <trkpt lat="47.94693" lon="-3.70971">
        <ele>114.1</ele>
        <time>2020-06-07T15:03:12Z</time>
      </trkpt>
      <trkpt lat="47.94696" lon="-3.70971">
        <ele>114.1</ele>
        <time>2020-06-07T15:03:13Z</time>
      </trkpt>
      <trkpt lat="47.947" lon="-3.70971">
        <ele>114.2</ele>
        <time>2020-06-07T15:03:14Z</time>
      </trkpt>
      <trkpt lat="47.94703" lon="-3.70972">
        <ele>114.3</ele>
        <time>2020-06-07T15:03:15Z</time>
      </trkpt>
      <trkpt lat="47.94706" lon="-3.70972">
        <ele>114.3</ele>
        <time>2020-06-07T15:03:16Z</time>
      </trkpt>
      <trkpt lat="47.94709" lon="-3.70974">
        <ele>114.4</ele>
        <time>2020-06-07T15:03:17Z</time>
      </trkpt>
      <trkpt lat="47.94712" lon="-3.70975">
        <ele>114.5</ele>
        <time>2020-06-07T15:03:18Z</time>
      </trkpt>
      <trkpt lat="47.94715" lon="-3.70976">
        <ele>114.5</ele>
        <time>2020-06-07T15:03:19Z</time>
      </trkpt>
      <trkpt lat="47.94718" lon="-3.70977">
        <ele>114.6</ele>
        <time>2020-06-07T15:03:20Z</time>
      </trkpt>
      <trkpt lat="47.94722" lon="-3.70978">
        <ele>114.7</ele>
        <time>2020-06-07T15:03:21Z</time>
      </trkpt>
      <trkpt lat="47.94726" lon="-3.70979">
        <ele>114.9</ele>
        <time>2020-06-07T15:03:22Z</time>
      </trkpt>
      <trkpt lat="47.94729" lon="-3.70979">
        <ele>115.1</ele>
        <time>2020-06-07T15:03:23Z</time>
      </trkpt>
      <trkpt lat="47.94732" lon="-3.70979">
        <ele>115.3</ele>
        <time>2020-06-07T15:03:24Z</time>
      </trkpt>
      <trkpt lat="47.94736" lon="-3.7098">
        <ele>115.5</ele>
        <time>2020-06-07T15:03:25Z</time>
      </trkpt>
      <trkpt lat="47.9474" lon="-3.70981">
        <ele>115.7</ele>
        <time>2020-06-07T15:03:26Z</time>
      </trkpt>
      <trkpt lat="47.94743" lon="-3.70982">
        <ele>115.9</ele>
        <time>2020-06-07T15:03:27Z</time>
      </trkpt>
      <trkpt lat="47.94747" lon="-3.70984">
        <ele>116.2</ele>
        <time>2020-06-07T15:03:28Z</time>
      </trkpt>
      <trkpt lat="47.9475" lon="-3.70985">
        <ele>116.3</ele>
        <time>2020-06-07T15:03:29Z</time>
      </trkpt>
      <trkpt lat="47.94753" lon="-3.70986">
        <ele>116.5</ele>
        <time>2020-06-07T15:03:30Z</time>
      </trkpt>
      <trkpt lat="47.94756" lon="-3.70987">
        <ele>116.7</ele>
        <time>2020-06-07T15:03:31Z</time>
      </trkpt>
      <trkpt lat="47.94759" lon="-3.70989">
        <ele>116.9</ele>
        <time>2020-06-07T15:03:32Z</time>
      </trkpt>
      <trkpt lat="47.94763" lon="-3.7099">
        <ele>117.1</ele>
        <time>2020-06-07T15:03:33Z</time>
      </trkpt>
      <trkpt lat="47.94766" lon="-3.70991">
        <ele>117.3</ele>
        <time>2020-06-07T15:03:34Z</time>
      </trkpt>
      <trkpt lat="47.9477" lon="-3.70992">
        <ele>117.5</ele>
        <time>2020-06-07T15:03:35Z</time>
      </trkpt>
      <trkpt lat="47.94773" lon="-3.70993">
        <ele>117.8</ele>
        <time>2020-06-07T15:03:36Z</time>
      </trkpt>
      <trkpt lat="47.94777" lon="-3.70993">
        <ele>117.7</ele>
        <time>2020-06-07T15:03:37Z</time>
      </trkpt>
      <trkpt lat="47.9478" lon="-3.70993">
        <ele>117.8</ele>
        <time>2020-06-07T15:03:38Z</time>
      </trkpt>
      <trkpt lat="47.94783" lon="-3.70993">
        <ele>118</ele>
        <time>2020-06-07T15:03:39Z</time>
      </trkpt>
      <trkpt lat="47.94784" lon="-3.70993">
        <ele>118</ele>
        <time>2020-06-07T15:03:40Z</time>
      </trkpt>
      <trkpt lat="47.94787" lon="-3.70996">
        <ele>118.2</ele>
        <time>2020-06-07T15:03:41Z</time>
      </trkpt>
      <trkpt lat="47.94788" lon="-3.70997">
        <ele>118.3</ele>
        <time>2020-06-07T15:03:42Z</time>
      </trkpt>
      <trkpt lat="47.94792" lon="-3.70999">
        <ele>118.4</ele>
        <time>2020-06-07T15:03:43Z</time>
      </trkpt>
      <trkpt lat="47.94793" lon="-3.71">
        <ele>118.5</ele>
        <time>2020-06-07T15:03:44Z</time>
      </trkpt>
      <trkpt lat="47.94797" lon="-3.71">
        <ele>118.6</ele>
        <time>2020-06-07T15:03:45Z</time>
      </trkpt>
      <trkpt lat="47.94798" lon="-3.71">
        <ele>118.7</ele>
        <time>2020-06-07T15:03:46Z</time>
      </trkpt>
      <trkpt lat="47.94801" lon="-3.71001">
        <ele>118.8</ele>
        <time>2020-06-07T15:03:47Z</time>
      </trkpt>
      <trkpt lat="47.94802" lon="-3.71002">
        <ele>118.9</ele>
        <time>2020-06-07T15:03:48Z</time>
      </trkpt>
      <trkpt lat="47.94806" lon="-3.71003">
        <ele>119</ele>
        <time>2020-06-07T15:03:49Z</time>
      </trkpt>
      <trkpt lat="47.94808" lon="-3.71003">
        <ele>119.1</ele>
        <time>2020-06-07T15:03:50Z</time>
      </trkpt>
      <trkpt lat="47.94812" lon="-3.71004">
        <ele>119.3</ele>
        <time>2020-06-07T15:03:51Z</time>
      </trkpt>
      <trkpt lat="47.94815" lon="-3.71005">
        <ele>119.4</ele>
        <time>2020-06-07T15:03:52Z</time>
      </trkpt>
      <trkpt lat="47.94818" lon="-3.71006">
        <ele>119.5</ele>
        <time>2020-06-07T15:03:53Z</time>
      </trkpt>
      <trkpt lat="47.94822" lon="-3.71007">
        <ele>119.7</ele>
        <time>2020-06-07T15:03:54Z</time>
      </trkpt>
      <trkpt lat="47.94823" lon="-3.71008">
        <ele>119.7</ele>
        <time>2020-06-07T15:03:55Z</time>
      </trkpt>
      <trkpt lat="47.94827" lon="-3.71008">
        <ele>119.9</ele>
        <time>2020-06-07T15:03:56Z</time>
      </trkpt>
      <trkpt lat="47.94828" lon="-3.71008">
        <ele>119.9</ele>
        <time>2020-06-07T15:03:57Z</time>
      </trkpt>
      <trkpt lat="47.94832" lon="-3.71009">
        <ele>120.1</ele>
        <time>2020-06-07T15:03:58Z</time>
      </trkpt>
      <trkpt lat="47.94833" lon="-3.7101">
        <ele>120.2</ele>
        <time>2020-06-07T15:03:59Z</time>
      </trkpt>
      <trkpt lat="47.94836" lon="-3.7101">
        <ele>120.3</ele>
        <time>2020-06-07T15:04:00Z</time>
      </trkpt>
      <trkpt lat="47.94839" lon="-3.71011">
        <ele>120.4</ele>
        <time>2020-06-07T15:04:01Z</time>
      </trkpt>
      <trkpt lat="47.94842" lon="-3.71011">
        <ele>120.6</ele>
        <time>2020-06-07T15:04:02Z</time>
      </trkpt>
      <trkpt lat="47.94844" lon="-3.71012">
        <ele>120.7</ele>
        <time>2020-06-07T15:04:03Z</time>
      </trkpt>
      <trkpt lat="47.94847" lon="-3.71012">
        <ele>120.8</ele>
        <time>2020-06-07T15:04:04Z</time>
      </trkpt>
      <trkpt lat="47.9485" lon="-3.71012">
        <ele>121</ele>
        <time>2020-06-07T15:04:05Z</time>
      </trkpt>
      <trkpt lat="47.94854" lon="-3.71013">
        <ele>121.1</ele>
        <time>2020-06-07T15:04:06Z</time>
      </trkpt>
      <trkpt lat="47.94855" lon="-3.71014">
        <ele>121.2</ele>
        <time>2020-06-07T15:04:07Z</time>
      </trkpt>
      <trkpt lat="47.94859" lon="-3.71015">
        <ele>121.4</ele>
        <time>2020-06-07T15:04:08Z</time>
      </trkpt>
      <trkpt lat="47.9486" lon="-3.71015">
        <ele>121.4</ele>
        <time>2020-06-07T15:04:09Z</time>
      </trkpt>
      <trkpt lat="47.94864" lon="-3.71015">
        <ele>121.6</ele>
        <time>2020-06-07T15:04:10Z</time>
      </trkpt>
      <trkpt lat="47.94865" lon="-3.71015">
        <ele>121.6</ele>
        <time>2020-06-07T15:04:11Z</time>
      </trkpt>
      <trkpt lat="47.94869" lon="-3.71015">
        <ele>121.8</ele>
        <time>2020-06-07T15:04:12Z</time>
      </trkpt>
      <trkpt lat="47.94871" lon="-3.71015">
        <ele>121.8</ele>
        <time>2020-06-07T15:04:13Z</time>
      </trkpt>
      <trkpt lat="47.94874" lon="-3.71017">
        <ele>121.9</ele>
        <time>2020-06-07T15:04:14Z</time>
      </trkpt>
      <trkpt lat="47.94877" lon="-3.71018">
        <ele>122</ele>
        <time>2020-06-07T15:04:15Z</time>
      </trkpt>
      <trkpt lat="47.9488" lon="-3.71019">
        <ele>122.2</ele>
        <time>2020-06-07T15:04:16Z</time>
      </trkpt>
      <trkpt lat="47.94881" lon="-3.71019">
        <ele>122.2</ele>
        <time>2020-06-07T15:04:17Z</time>
      </trkpt>
      <trkpt lat="47.94884" lon="-3.71018">
        <ele>122.4</ele>
        <time>2020-06-07T15:04:18Z</time>
      </trkpt>
      <trkpt lat="47.94885" lon="-3.71018">
        <ele>122.4</ele>
        <time>2020-06-07T15:04:19Z</time>
      </trkpt>
      <trkpt lat="47.94888" lon="-3.71019">
        <ele>122.6</ele>
        <time>2020-06-07T15:04:20Z</time>
      </trkpt>
      <trkpt lat="47.9489" lon="-3.71019">
        <ele>122.6</ele>
        <time>2020-06-07T15:04:21Z</time>
      </trkpt>
      <trkpt lat="47.94893" lon="-3.7102">
        <ele>122.8</ele>
        <time>2020-06-07T15:04:22Z</time>
      </trkpt>
      <trkpt lat="47.94894" lon="-3.7102">
        <ele>122.8</ele>
        <time>2020-06-07T15:04:23Z</time>
      </trkpt>
      <trkpt lat="47.94897" lon="-3.7102">
        <ele>122.9</ele>
        <time>2020-06-07T15:04:24Z</time>
      </trkpt>
      <trkpt lat="47.949" lon="-3.7102">
        <ele>123.1</ele>
        <time>2020-06-07T15:04:25Z</time>
      </trkpt>
      <trkpt lat="47.94903" lon="-3.71021">
        <ele>123.2</ele>
        <time>2020-06-07T15:04:26Z</time>
      </trkpt>
      <trkpt lat="47.94906" lon="-3.71022">
        <ele>123.3</ele>
        <time>2020-06-07T15:04:27Z</time>
      </trkpt>
      <trkpt lat="47.94909" lon="-3.71022">
        <ele>123.5</ele>
        <time>2020-06-07T15:04:28Z</time>
      </trkpt>
      <trkpt lat="47.94912" lon="-3.71022">
        <ele>123.6</ele>
        <time>2020-06-07T15:04:29Z</time>
      </trkpt>
      <trkpt lat="47.94915" lon="-3.71023">
        <ele>123.7</ele>
        <time>2020-06-07T15:04:30Z</time>
      </trkpt>
      <trkpt lat="47.94918" lon="-3.71024">
        <ele>123.8</ele>
        <time>2020-06-07T15:04:31Z</time>
      </trkpt>
      <trkpt lat="47.94921" lon="-3.71025">
        <ele>123.9</ele>
        <time>2020-06-07T15:04:32Z</time>
      </trkpt>
      <trkpt lat="47.94924" lon="-3.71026">
        <ele>124.1</ele>
        <time>2020-06-07T15:04:33Z</time>
      </trkpt>
      <trkpt lat="47.94927" lon="-3.71025">
        <ele>124.2</ele>
        <time>2020-06-07T15:04:34Z</time>
      </trkpt>
      <trkpt lat="47.94931" lon="-3.71026">
        <ele>124.3</ele>
        <time>2020-06-07T15:04:35Z</time>
      </trkpt>
      <trkpt lat="47.94932" lon="-3.71027">
        <ele>124.4</ele>
        <time>2020-06-07T15:04:36Z</time>
      </trkpt>
      <trkpt lat="47.94935" lon="-3.71026">
        <ele>124.5</ele>
        <time>2020-06-07T15:04:37Z</time>
      </trkpt>
      <trkpt lat="47.94939" lon="-3.71027">
        <ele>124.7</ele>
        <time>2020-06-07T15:04:38Z</time>
      </trkpt>
      <trkpt lat="47.94941" lon="-3.71027">
        <ele>124.7</ele>
        <time>2020-06-07T15:04:39Z</time>
      </trkpt>
      <trkpt lat="47.94944" lon="-3.71027">
        <ele>124.9</ele>
        <time>2020-06-07T15:04:40Z</time>
      </trkpt>
      <trkpt lat="47.94948" lon="-3.71027">
        <ele>125</ele>
        <time>2020-06-07T15:04:41Z</time>
      </trkpt>
      <trkpt lat="47.94951" lon="-3.71027">
        <ele>125.1</ele>
        <time>2020-06-07T15:04:42Z</time>
      </trkpt>
      <trkpt lat="47.94954" lon="-3.71027">
        <ele>125.2</ele>
        <time>2020-06-07T15:04:43Z</time>
      </trkpt>
      <trkpt lat="47.94958" lon="-3.71027">
        <ele>125.4</ele>
        <time>2020-06-07T15:04:44Z</time>
      </trkpt>
      <trkpt lat="47.94962" lon="-3.71027">
        <ele>125.5</ele>
        <time>2020-06-07T15:04:45Z</time>
      </trkpt>
      <trkpt lat="47.94966" lon="-3.71027">
        <ele>125.6</ele>
        <time>2020-06-07T15:04:46Z</time>
      </trkpt>
      <trkpt lat="47.94969" lon="-3.71027">
        <ele>125.7</ele>
        <time>2020-06-07T15:04:47Z</time>
      </trkpt>
      <trkpt lat="47.94973" lon="-3.71027">
        <ele>126</ele>
        <time>2020-06-07T15:04:48Z</time>
      </trkpt>
      <trkpt lat="47.94976" lon="-3.71027">
        <ele>126.2</ele>
        <time>2020-06-07T15:04:49Z</time>
      </trkpt>
      <trkpt lat="47.9498" lon="-3.71027">
        <ele>126.3</ele>
        <time>2020-06-07T15:04:50Z</time>
      </trkpt>
      <trkpt lat="47.94984" lon="-3.71027">
        <ele>126.4</ele>
        <time>2020-06-07T15:04:51Z</time>
      </trkpt>
      <trkpt lat="47.94987" lon="-3.71027">
        <ele>126.6</ele>
        <time>2020-06-07T15:04:52Z</time>
      </trkpt>
      <trkpt lat="47.94992" lon="-3.71026">
        <ele>126.7</ele>
        <time>2020-06-07T15:04:53Z</time>
      </trkpt>
      <trkpt lat="47.94995" lon="-3.71025">
        <ele>126.8</ele>
        <time>2020-06-07T15:04:54Z</time>
      </trkpt>
      <trkpt lat="47.94998" lon="-3.71026">
        <ele>126.9</ele>
        <time>2020-06-07T15:04:55Z</time>
      </trkpt>
      <trkpt lat="47.95002" lon="-3.71025">
        <ele>127</ele>
        <time>2020-06-07T15:04:56Z</time>
      </trkpt>
      <trkpt lat="47.95005" lon="-3.71025">
        <ele>127.1</ele>
        <time>2020-06-07T15:04:57Z</time>
      </trkpt>
      <trkpt lat="47.95008" lon="-3.71024">
        <ele>127.2</ele>
        <time>2020-06-07T15:04:58Z</time>
      </trkpt>
      <trkpt lat="47.95012" lon="-3.71023">
        <ele>127.3</ele>
        <time>2020-06-07T15:04:59Z</time>
      </trkpt>
      <trkpt lat="47.95016" lon="-3.71022">
        <ele>127.4</ele>
        <time>2020-06-07T15:05:00Z</time>
      </trkpt>
      <trkpt lat="47.9502" lon="-3.71021">
        <ele>127.5</ele>
        <time>2020-06-07T15:05:01Z</time>
      </trkpt>
      <trkpt lat="47.95024" lon="-3.7102">
        <ele>127.6</ele>
        <time>2020-06-07T15:05:02Z</time>
      </trkpt>
      <trkpt lat="47.95028" lon="-3.7102">
        <ele>127.7</ele>
        <time>2020-06-07T15:05:03Z</time>
      </trkpt>
      <trkpt lat="47.95032" lon="-3.7102">
        <ele>127.8</ele>
        <time>2020-06-07T15:05:04Z</time>
      </trkpt>
      <trkpt lat="47.95036" lon="-3.71019">
        <ele>127.9</ele>
        <time>2020-06-07T15:05:05Z</time>
      </trkpt>
      <trkpt lat="47.9504" lon="-3.71018">
        <ele>128</ele>
        <time>2020-06-07T15:05:06Z</time>
      </trkpt>
      <trkpt lat="47.95044" lon="-3.71018">
        <ele>128.1</ele>
        <time>2020-06-07T15:05:07Z</time>
      </trkpt>
      <trkpt lat="47.95047" lon="-3.71017">
        <ele>128.2</ele>
        <time>2020-06-07T15:05:08Z</time>
      </trkpt>
      <trkpt lat="47.95051" lon="-3.71017">
        <ele>128.3</ele>
        <time>2020-06-07T15:05:09Z</time>
      </trkpt>
      <trkpt lat="47.95054" lon="-3.71017">
        <ele>128.4</ele>
        <time>2020-06-07T15:05:10Z</time>
      </trkpt>
      <trkpt lat="47.95058" lon="-3.71017">
        <ele>128.4</ele>
        <time>2020-06-07T15:05:11Z</time>
      </trkpt>
      <trkpt lat="47.95061" lon="-3.71016">
        <ele>128.5</ele>
        <time>2020-06-07T15:05:12Z</time>
      </trkpt>
      <trkpt lat="47.95064" lon="-3.71016">
        <ele>128.6</ele>
        <time>2020-06-07T15:05:13Z</time>
      </trkpt>
      <trkpt lat="47.95067" lon="-3.71015">
        <ele>128.6</ele>
        <time>2020-06-07T15:05:14Z</time>
      </trkpt>
      <trkpt lat="47.95072" lon="-3.71014">
        <ele>128.7</ele>
        <time>2020-06-07T15:05:15Z</time>
      </trkpt>
      <trkpt lat="47.95075" lon="-3.71014">
        <ele>128.7</ele>
        <time>2020-06-07T15:05:16Z</time>
      </trkpt>
      <trkpt lat="47.9508" lon="-3.71012">
        <ele>128.8</ele>
        <time>2020-06-07T15:05:17Z</time>
      </trkpt>
      <trkpt lat="47.95082" lon="-3.71012">
        <ele>128.8</ele>
        <time>2020-06-07T15:05:18Z</time>
      </trkpt>
      <trkpt lat="47.95087" lon="-3.7101">
        <ele>128.9</ele>
        <time>2020-06-07T15:05:19Z</time>
      </trkpt>
      <trkpt lat="47.9509" lon="-3.7101">
        <ele>128.9</ele>
        <time>2020-06-07T15:05:20Z</time>
      </trkpt>
      <trkpt lat="47.95093" lon="-3.71009">
        <ele>129</ele>
        <time>2020-06-07T15:05:21Z</time>
      </trkpt>
      <trkpt lat="47.95097" lon="-3.71008">
        <ele>129</ele>
        <time>2020-06-07T15:05:22Z</time>
      </trkpt>
      <trkpt lat="47.95101" lon="-3.71008">
        <ele>129</ele>
        <time>2020-06-07T15:05:23Z</time>
      </trkpt>
      <trkpt lat="47.95104" lon="-3.71007">
        <ele>129.1</ele>
        <time>2020-06-07T15:05:24Z</time>
      </trkpt>
      <trkpt lat="47.95108" lon="-3.71006">
        <ele>129.1</ele>
        <time>2020-06-07T15:05:25Z</time>
      </trkpt>
      <trkpt lat="47.95112" lon="-3.71005">
        <ele>129.2</ele>
        <time>2020-06-07T15:05:26Z</time>
      </trkpt>
      <trkpt lat="47.95116" lon="-3.71004">
        <ele>129.2</ele>
        <time>2020-06-07T15:05:27Z</time>
      </trkpt>
      <trkpt lat="47.95119" lon="-3.71004">
        <ele>129.2</ele>
        <time>2020-06-07T15:05:28Z</time>
      </trkpt>
      <trkpt lat="47.95122" lon="-3.71003">
        <ele>129.3</ele>
        <time>2020-06-07T15:05:29Z</time>
      </trkpt>
      <trkpt lat="47.95126" lon="-3.71002">
        <ele>129.3</ele>
        <time>2020-06-07T15:05:30Z</time>
      </trkpt>
      <trkpt lat="47.9513" lon="-3.71002">
        <ele>129.4</ele>
        <time>2020-06-07T15:05:31Z</time>
      </trkpt>
      <trkpt lat="47.95135" lon="-3.71001">
        <ele>129.4</ele>
        <time>2020-06-07T15:05:32Z</time>
      </trkpt>
      <trkpt lat="47.95139" lon="-3.71">
        <ele>129.4</ele>
        <time>2020-06-07T15:05:33Z</time>
      </trkpt>
      <trkpt lat="47.95143" lon="-3.70998">
        <ele>129.5</ele>
        <time>2020-06-07T15:05:34Z</time>
      </trkpt>
      <trkpt lat="47.95146" lon="-3.70997">
        <ele>129.5</ele>
        <time>2020-06-07T15:05:35Z</time>
      </trkpt>
      <trkpt lat="47.9515" lon="-3.70997">
        <ele>129.5</ele>
        <time>2020-06-07T15:05:36Z</time>
      </trkpt>
      <trkpt lat="47.95152" lon="-3.70996">
        <ele>129.5</ele>
        <time>2020-06-07T15:05:37Z</time>
      </trkpt>
      <trkpt lat="47.95155" lon="-3.70996">
        <ele>129.5</ele>
        <time>2020-06-07T15:05:38Z</time>
      </trkpt>
      <trkpt lat="47.95158" lon="-3.70996">
        <ele>129.6</ele>
        <time>2020-06-07T15:05:39Z</time>
      </trkpt>
      <trkpt lat="47.95163" lon="-3.70995">
        <ele>129.6</ele>
        <time>2020-06-07T15:05:40Z</time>
      </trkpt>
      <trkpt lat="47.95166" lon="-3.70994">
        <ele>129.6</ele>
        <time>2020-06-07T15:05:41Z</time>
      </trkpt>
      <trkpt lat="47.9517" lon="-3.70994">
        <ele>129.6</ele>
        <time>2020-06-07T15:05:42Z</time>
      </trkpt>
      <trkpt lat="47.95174" lon="-3.70993">
        <ele>129.6</ele>
        <time>2020-06-07T15:05:43Z</time>
      </trkpt>
      <trkpt lat="47.95178" lon="-3.70992">
        <ele>129.7</ele>
        <time>2020-06-07T15:05:44Z</time>
      </trkpt>
      <trkpt lat="47.95183" lon="-3.70989">
        <ele>129.7</ele>
        <time>2020-06-07T15:05:45Z</time>
      </trkpt>
      <trkpt lat="47.95187" lon="-3.70988">
        <ele>129.7</ele>
        <time>2020-06-07T15:05:46Z</time>
      </trkpt>
      <trkpt lat="47.95191" lon="-3.70987">
        <ele>129.7</ele>
        <time>2020-06-07T15:05:47Z</time>
      </trkpt>
      <trkpt lat="47.95195" lon="-3.70986">
        <ele>129.6</ele>
        <time>2020-06-07T15:05:48Z</time>
      </trkpt>
      <trkpt lat="47.95199" lon="-3.70985">
        <ele>129.6</ele>
        <time>2020-06-07T15:05:49Z</time>
      </trkpt>
      <trkpt lat="47.95204" lon="-3.70983">
        <ele>129.6</ele>
        <time>2020-06-07T15:05:50Z</time>
      </trkpt>
      <trkpt lat="47.95207" lon="-3.70983">
        <ele>129.6</ele>
        <time>2020-06-07T15:05:51Z</time>
      </trkpt>
      <trkpt lat="47.95211" lon="-3.70982">
        <ele>129.6</ele>
        <time>2020-06-07T15:05:52Z</time>
      </trkpt>
      <trkpt lat="47.95216" lon="-3.70981">
        <ele>129.6</ele>
        <time>2020-06-07T15:05:53Z</time>
      </trkpt>
      <trkpt lat="47.9522" lon="-3.70981">
        <ele>129.6</ele>
        <time>2020-06-07T15:05:54Z</time>
      </trkpt>
      <trkpt lat="47.95224" lon="-3.7098">
        <ele>129.5</ele>
        <time>2020-06-07T15:05:55Z</time>
      </trkpt>
      <trkpt lat="47.95228" lon="-3.70979">
        <ele>129.5</ele>
        <time>2020-06-07T15:05:56Z</time>
      </trkpt>
      <trkpt lat="47.95232" lon="-3.70978">
        <ele>129.5</ele>
        <time>2020-06-07T15:05:57Z</time>
      </trkpt>
      <trkpt lat="47.95236" lon="-3.70977">
        <ele>129.4</ele>
        <time>2020-06-07T15:05:58Z</time>
      </trkpt>
      <trkpt lat="47.9524" lon="-3.70976">
        <ele>129.3</ele>
        <time>2020-06-07T15:05:59Z</time>
      </trkpt>
      <trkpt lat="47.95245" lon="-3.70974">
        <ele>129.3</ele>
        <time>2020-06-07T15:06:00Z</time>
      </trkpt>
      <trkpt lat="47.95249" lon="-3.70974">
        <ele>129.3</ele>
        <time>2020-06-07T15:06:01Z</time>
      </trkpt>
      <trkpt lat="47.95255" lon="-3.70974">
        <ele>129.3</ele>
        <time>2020-06-07T15:06:02Z</time>
      </trkpt>
      <trkpt lat="47.9526" lon="-3.70973">
        <ele>129.3</ele>
        <time>2020-06-07T15:06:03Z</time>
      </trkpt>
      <trkpt lat="47.95265" lon="-3.70973">
        <ele>129.3</ele>
        <time>2020-06-07T15:06:04Z</time>
      </trkpt>
      <trkpt lat="47.9527" lon="-3.70972">
        <ele>129.3</ele>
        <time>2020-06-07T15:06:05Z</time>
      </trkpt>
      <trkpt lat="47.95276" lon="-3.70972">
        <ele>129.2</ele>
        <time>2020-06-07T15:06:06Z</time>
      </trkpt>
      <trkpt lat="47.9528" lon="-3.70972">
        <ele>129.2</ele>
        <time>2020-06-07T15:06:07Z</time>
      </trkpt>
      <trkpt lat="47.95286" lon="-3.70971">
        <ele>129.2</ele>
        <time>2020-06-07T15:06:08Z</time>
      </trkpt>
      <trkpt lat="47.95291" lon="-3.70971">
        <ele>129.1</ele>
        <time>2020-06-07T15:06:09Z</time>
      </trkpt>
      <trkpt lat="47.95297" lon="-3.7097">
        <ele>129</ele>
        <time>2020-06-07T15:06:10Z</time>
      </trkpt>
      <trkpt lat="47.95303" lon="-3.70968">
        <ele>128.9</ele>
        <time>2020-06-07T15:06:11Z</time>
      </trkpt>
      <trkpt lat="47.95308" lon="-3.70967">
        <ele>128.8</ele>
        <time>2020-06-07T15:06:12Z</time>
      </trkpt>
      <trkpt lat="47.95313" lon="-3.70965">
        <ele>128.7</ele>
        <time>2020-06-07T15:06:13Z</time>
      </trkpt>
      <trkpt lat="47.95317" lon="-3.70964">
        <ele>128.6</ele>
        <time>2020-06-07T15:06:14Z</time>
      </trkpt>
      <trkpt lat="47.95322" lon="-3.70962">
        <ele>128.6</ele>
        <time>2020-06-07T15:06:15Z</time>
      </trkpt>
      <trkpt lat="47.95327" lon="-3.70961">
        <ele>128.5</ele>
        <time>2020-06-07T15:06:16Z</time>
      </trkpt>
      <trkpt lat="47.95333" lon="-3.70961">
        <ele>128.4</ele>
        <time>2020-06-07T15:06:17Z</time>
      </trkpt>
      <trkpt lat="47.95339" lon="-3.7096">
        <ele>128.2</ele>
        <time>2020-06-07T15:06:18Z</time>
      </trkpt>
      <trkpt lat="47.95345" lon="-3.70958">
        <ele>128.1</ele>
        <time>2020-06-07T15:06:19Z</time>
      </trkpt>
      <trkpt lat="47.9535" lon="-3.70957">
        <ele>128</ele>
        <time>2020-06-07T15:06:20Z</time>
      </trkpt>
      <trkpt lat="47.95357" lon="-3.70956">
        <ele>127.8</ele>
        <time>2020-06-07T15:06:21Z</time>
      </trkpt>
      <trkpt lat="47.95364" lon="-3.70955">
        <ele>127.6</ele>
        <time>2020-06-07T15:06:22Z</time>
      </trkpt>
      <trkpt lat="47.95367" lon="-3.70954">
        <ele>127.6</ele>
        <time>2020-06-07T15:06:23Z</time>
      </trkpt>
      <trkpt lat="47.95373" lon="-3.70953">
        <ele>127.4</ele>
        <time>2020-06-07T15:06:24Z</time>
      </trkpt>
      <trkpt lat="47.95381" lon="-3.7095">
        <ele>127.2</ele>
        <time>2020-06-07T15:06:25Z</time>
      </trkpt>
      <trkpt lat="47.95387" lon="-3.70948">
        <ele>127</ele>
        <time>2020-06-07T15:06:26Z</time>
      </trkpt>
      <trkpt lat="47.95395" lon="-3.70947">
        <ele>126.8</ele>
        <time>2020-06-07T15:06:27Z</time>
      </trkpt>
      <trkpt lat="47.95401" lon="-3.70946">
        <ele>126.7</ele>
        <time>2020-06-07T15:06:28Z</time>
      </trkpt>
      <trkpt lat="47.95408" lon="-3.70945">
        <ele>126.4</ele>
        <time>2020-06-07T15:06:29Z</time>
      </trkpt>
      <trkpt lat="47.95415" lon="-3.70944">
        <ele>126.1</ele>
        <time>2020-06-07T15:06:30Z</time>
      </trkpt>
      <trkpt lat="47.95423" lon="-3.70942">
        <ele>125.9</ele>
        <time>2020-06-07T15:06:31Z</time>
      </trkpt>
      <trkpt lat="47.9543" lon="-3.70941">
        <ele>125.6</ele>
        <time>2020-06-07T15:06:32Z</time>
      </trkpt>
      <trkpt lat="47.95438" lon="-3.7094">
        <ele>125.3</ele>
        <time>2020-06-07T15:06:33Z</time>
      </trkpt>
      <trkpt lat="47.95445" lon="-3.70938">
        <ele>125.1</ele>
        <time>2020-06-07T15:06:34Z</time>
      </trkpt>
      <trkpt lat="47.95452" lon="-3.70937">
        <ele>124.8</ele>
        <time>2020-06-07T15:06:35Z</time>
      </trkpt>
      <trkpt lat="47.95459" lon="-3.70935">
        <ele>124.5</ele>
        <time>2020-06-07T15:06:36Z</time>
      </trkpt>
      <trkpt lat="47.95466" lon="-3.70933">
        <ele>124.2</ele>
        <time>2020-06-07T15:06:37Z</time>
      </trkpt>
      <trkpt lat="47.95473" lon="-3.70932">
        <ele>123.9</ele>
        <time>2020-06-07T15:06:38Z</time>
      </trkpt>
      <trkpt lat="47.9548" lon="-3.7093">
        <ele>123.6</ele>
        <time>2020-06-07T15:06:39Z</time>
      </trkpt>
      <trkpt lat="47.95487" lon="-3.70929">
        <ele>123.4</ele>
        <time>2020-06-07T15:06:40Z</time>
      </trkpt>
      <trkpt lat="47.95495" lon="-3.70928">
        <ele>123.1</ele>
        <time>2020-06-07T15:06:41Z</time>
      </trkpt>
      <trkpt lat="47.95502" lon="-3.70926">
        <ele>122.8</ele>
        <time>2020-06-07T15:06:42Z</time>
      </trkpt>
      <trkpt lat="47.95509" lon="-3.70924">
        <ele>122.6</ele>
        <time>2020-06-07T15:06:43Z</time>
      </trkpt>
      <trkpt lat="47.95517" lon="-3.70922">
        <ele>122.4</ele>
        <time>2020-06-07T15:06:44Z</time>
      </trkpt>
      <trkpt lat="47.95525" lon="-3.7092">
        <ele>122.2</ele>
        <time>2020-06-07T15:06:45Z</time>
      </trkpt>
      <trkpt lat="47.95533" lon="-3.70918">
        <ele>122</ele>
        <time>2020-06-07T15:06:46Z</time>
      </trkpt>
      <trkpt lat="47.95541" lon="-3.70916">
        <ele>121.8</ele>
        <time>2020-06-07T15:06:47Z</time>
      </trkpt>
      <trkpt lat="47.95549" lon="-3.70915">
        <ele>121.7</ele>
        <time>2020-06-07T15:06:48Z</time>
      </trkpt>
      <trkpt lat="47.95557" lon="-3.70913">
        <ele>121.6</ele>
        <time>2020-06-07T15:06:49Z</time>
      </trkpt>
      <trkpt lat="47.95564" lon="-3.70912">
        <ele>121.8</ele>
        <time>2020-06-07T15:06:50Z</time>
      </trkpt>
      <trkpt lat="47.95572" lon="-3.70911">
        <ele>122</ele>
        <time>2020-06-07T15:06:51Z</time>
      </trkpt>
      <trkpt lat="47.95579" lon="-3.70911">
        <ele>122.2</ele>
        <time>2020-06-07T15:06:52Z</time>
      </trkpt>
      <trkpt lat="47.95586" lon="-3.7091">
        <ele>122.3</ele>
        <time>2020-06-07T15:06:53Z</time>
      </trkpt>
      <trkpt lat="47.95593" lon="-3.70909">
        <ele>122.5</ele>
        <time>2020-06-07T15:06:54Z</time>
      </trkpt>
      <trkpt lat="47.95599" lon="-3.70908">
        <ele>122.7</ele>
        <time>2020-06-07T15:06:55Z</time>
      </trkpt>
      <trkpt lat="47.95606" lon="-3.70907">
        <ele>122.8</ele>
        <time>2020-06-07T15:06:56Z</time>
      </trkpt>
      <trkpt lat="47.95612" lon="-3.70906">
        <ele>123</ele>
        <time>2020-06-07T15:06:57Z</time>
      </trkpt>
      <trkpt lat="47.95618" lon="-3.70905">
        <ele>123.2</ele>
        <time>2020-06-07T15:06:58Z</time>
      </trkpt>
      <trkpt lat="47.95624" lon="-3.70905">
        <ele>123.3</ele>
        <time>2020-06-07T15:06:59Z</time>
      </trkpt>
      <trkpt lat="47.9563" lon="-3.70903">
        <ele>123.5</ele>
        <time>2020-06-07T15:07:00Z</time>
      </trkpt>
      <trkpt lat="47.95636" lon="-3.70903">
        <ele>123.6</ele>
        <time>2020-06-07T15:07:01Z</time>
      </trkpt>
      <trkpt lat="47.95641" lon="-3.70903">
        <ele>123.8</ele>
        <time>2020-06-07T15:07:02Z</time>
      </trkpt>
      <trkpt lat="47.95647" lon="-3.70902">
        <ele>124</ele>
        <time>2020-06-07T15:07:03Z</time>
      </trkpt>
      <trkpt lat="47.95652" lon="-3.709">
        <ele>124.1</ele>
        <time>2020-06-07T15:07:04Z</time>
      </trkpt>
      <trkpt lat="47.95658" lon="-3.709">
        <ele>124.2</ele>
        <time>2020-06-07T15:07:05Z</time>
      </trkpt>
      <trkpt lat="47.95663" lon="-3.709">
        <ele>124.4</ele>
        <time>2020-06-07T15:07:06Z</time>
      </trkpt>
      <trkpt lat="47.95668" lon="-3.70899">
        <ele>124.5</ele>
        <time>2020-06-07T15:07:07Z</time>
      </trkpt>
      <trkpt lat="47.95674" lon="-3.70897">
        <ele>124.6</ele>
        <time>2020-06-07T15:07:08Z</time>
      </trkpt>
      <trkpt lat="47.95678" lon="-3.70896">
        <ele>124.7</ele>
        <time>2020-06-07T15:07:09Z</time>
      </trkpt>
      <trkpt lat="47.95683" lon="-3.70895">
        <ele>124.8</ele>
        <time>2020-06-07T15:07:10Z</time>
      </trkpt>
      <trkpt lat="47.95688" lon="-3.70894">
        <ele>124.8</ele>
        <time>2020-06-07T15:07:11Z</time>
      </trkpt>
      <trkpt lat="47.95693" lon="-3.70894">
        <ele>124.9</ele>
        <time>2020-06-07T15:07:12Z</time>
      </trkpt>
      <trkpt lat="47.95697" lon="-3.70893">
        <ele>124.9</ele>
        <time>2020-06-07T15:07:13Z</time>
      </trkpt>
      <trkpt lat="47.95702" lon="-3.70893">
        <ele>125</ele>
        <time>2020-06-07T15:07:14Z</time>
      </trkpt>
      <trkpt lat="47.95706" lon="-3.70892">
        <ele>125</ele>
        <time>2020-06-07T15:07:15Z</time>
      </trkpt>
      <trkpt lat="47.95711" lon="-3.70892">
        <ele>125.1</ele>
        <time>2020-06-07T15:07:16Z</time>
      </trkpt>
      <trkpt lat="47.95715" lon="-3.70891">
        <ele>125.1</ele>
        <time>2020-06-07T15:07:17Z</time>
      </trkpt>
      <trkpt lat="47.95719" lon="-3.7089">
        <ele>125.1</ele>
        <time>2020-06-07T15:07:18Z</time>
      </trkpt>
      <trkpt lat="47.95724" lon="-3.70889">
        <ele>125.1</ele>
        <time>2020-06-07T15:07:19Z</time>
      </trkpt>
      <trkpt lat="47.95728" lon="-3.70888">
        <ele>125</ele>
        <time>2020-06-07T15:07:20Z</time>
      </trkpt>
      <trkpt lat="47.95731" lon="-3.70888">
        <ele>125</ele>
        <time>2020-06-07T15:07:21Z</time>
      </trkpt>
      <trkpt lat="47.95734" lon="-3.70888">
        <ele>125</ele>
        <time>2020-06-07T15:07:22Z</time>
      </trkpt>
      <trkpt lat="47.95738" lon="-3.70887">
        <ele>125</ele>
        <time>2020-06-07T15:07:23Z</time>
      </trkpt>
      <trkpt lat="47.95741" lon="-3.70888">
        <ele>125.1</ele>
        <time>2020-06-07T15:07:24Z</time>
      </trkpt>
      <trkpt lat="47.95745" lon="-3.70888">
        <ele>125.1</ele>
        <time>2020-06-07T15:07:25Z</time>
      </trkpt>
      <trkpt lat="47.9575" lon="-3.70888">
        <ele>125.2</ele>
        <time>2020-06-07T15:07:26Z</time>
      </trkpt>
      <trkpt lat="47.95754" lon="-3.70888">
        <ele>125.2</ele>
        <time>2020-06-07T15:07:27Z</time>
      </trkpt>
      <trkpt lat="47.9576" lon="-3.70886">
        <ele>125.3</ele>
        <time>2020-06-07T15:07:28Z</time>
      </trkpt>
      <trkpt lat="47.95766" lon="-3.70886">
        <ele>125.3</ele>
        <time>2020-06-07T15:07:29Z</time>
      </trkpt>
      <trkpt lat="47.95772" lon="-3.70887">
        <ele>125.3</ele>
        <time>2020-06-07T15:07:30Z</time>
      </trkpt>
      <trkpt lat="47.95778" lon="-3.70887">
        <ele>125.2</ele>
        <time>2020-06-07T15:07:31Z</time>
      </trkpt>
      <trkpt lat="47.95785" lon="-3.70886">
        <ele>125.2</ele>
        <time>2020-06-07T15:07:32Z</time>
      </trkpt>
      <trkpt lat="47.95791" lon="-3.70885">
        <ele>125.2</ele>
        <time>2020-06-07T15:07:33Z</time>
      </trkpt>
      <trkpt lat="47.95798" lon="-3.70885">
        <ele>125.2</ele>
        <time>2020-06-07T15:07:34Z</time>
      </trkpt>
      <trkpt lat="47.95805" lon="-3.70884">
        <ele>125.2</ele>
        <time>2020-06-07T15:07:35Z</time>
      </trkpt>
      <trkpt lat="47.95812" lon="-3.70883">
        <ele>125.1</ele>
        <time>2020-06-07T15:07:36Z</time>
      </trkpt>
      <trkpt lat="47.95819" lon="-3.70883">
        <ele>125</ele>
        <time>2020-06-07T15:07:37Z</time>
      </trkpt>
      <trkpt lat="47.95826" lon="-3.70884">
        <ele>124.8</ele>
        <time>2020-06-07T15:07:38Z</time>
      </trkpt>
      <trkpt lat="47.95833" lon="-3.70884">
        <ele>124.7</ele>
        <time>2020-06-07T15:07:39Z</time>
      </trkpt>
      <trkpt lat="47.95841" lon="-3.70884">
        <ele>124.5</ele>
        <time>2020-06-07T15:07:40Z</time>
      </trkpt>
      <trkpt lat="47.95848" lon="-3.70885">
        <ele>124.4</ele>
        <time>2020-06-07T15:07:41Z</time>
      </trkpt>
      <trkpt lat="47.95856" lon="-3.70886">
        <ele>124.2</ele>
        <time>2020-06-07T15:07:42Z</time>
      </trkpt>
      <trkpt lat="47.95864" lon="-3.70886">
        <ele>123.9</ele>
        <time>2020-06-07T15:07:43Z</time>
      </trkpt>
      <trkpt lat="47.95873" lon="-3.70887">
        <ele>123.6</ele>
        <time>2020-06-07T15:07:44Z</time>
      </trkpt>
      <trkpt lat="47.95881" lon="-3.70887">
        <ele>123.3</ele>
        <time>2020-06-07T15:07:45Z</time>
      </trkpt>
      <trkpt lat="47.95889" lon="-3.70888">
        <ele>122.9</ele>
        <time>2020-06-07T15:07:46Z</time>
      </trkpt>
      <trkpt lat="47.95898" lon="-3.70888">
        <ele>122.6</ele>
        <time>2020-06-07T15:07:47Z</time>
      </trkpt>
      <trkpt lat="47.95906" lon="-3.70889">
        <ele>122.2</ele>
        <time>2020-06-07T15:07:48Z</time>
      </trkpt>
      <trkpt lat="47.95915" lon="-3.70889">
        <ele>121.8</ele>
        <time>2020-06-07T15:07:49Z</time>
      </trkpt>
      <trkpt lat="47.95924" lon="-3.70889">
        <ele>121.5</ele>
        <time>2020-06-07T15:07:50Z</time>
      </trkpt>
      <trkpt lat="47.95933" lon="-3.7089">
        <ele>121</ele>
        <time>2020-06-07T15:07:51Z</time>
      </trkpt>
      <trkpt lat="47.95942" lon="-3.70891">
        <ele>120.5</ele>
        <time>2020-06-07T15:07:52Z</time>
      </trkpt>
      <trkpt lat="47.95951" lon="-3.70891">
        <ele>120</ele>
        <time>2020-06-07T15:07:53Z</time>
      </trkpt>
      <trkpt lat="47.95961" lon="-3.70892">
        <ele>119.4</ele>
        <time>2020-06-07T15:07:54Z</time>
      </trkpt>
      <trkpt lat="47.9597" lon="-3.70893">
        <ele>118.8</ele>
        <time>2020-06-07T15:07:55Z</time>
      </trkpt>
      <trkpt lat="47.9598" lon="-3.70895">
        <ele>118.3</ele>
        <time>2020-06-07T15:07:56Z</time>
      </trkpt>
      <trkpt lat="47.9599" lon="-3.70896">
        <ele>117.7</ele>
        <time>2020-06-07T15:07:57Z</time>
      </trkpt>
      <trkpt lat="47.96" lon="-3.70898">
        <ele>117.2</ele>
        <time>2020-06-07T15:07:58Z</time>
      </trkpt>
      <trkpt lat="47.9601" lon="-3.70898">
        <ele>116.8</ele>
        <time>2020-06-07T15:07:59Z</time>
      </trkpt>
      <trkpt lat="47.9602" lon="-3.709">
        <ele>116.4</ele>
        <time>2020-06-07T15:08:00Z</time>
      </trkpt>
      <trkpt lat="47.9603" lon="-3.70901">
        <ele>115.9</ele>
        <time>2020-06-07T15:08:01Z</time>
      </trkpt>
      <trkpt lat="47.9604" lon="-3.70902">
        <ele>115.5</ele>
        <time>2020-06-07T15:08:02Z</time>
      </trkpt>
      <trkpt lat="47.9605" lon="-3.70903">
        <ele>115.2</ele>
        <time>2020-06-07T15:08:03Z</time>
      </trkpt>
      <trkpt lat="47.9606" lon="-3.70903">
        <ele>114.9</ele>
        <time>2020-06-07T15:08:04Z</time>
      </trkpt>
      <trkpt lat="47.9607" lon="-3.70904">
        <ele>114.6</ele>
        <time>2020-06-07T15:08:05Z</time>
      </trkpt>
      <trkpt lat="47.9608" lon="-3.70905">
        <ele>114.2</ele>
        <time>2020-06-07T15:08:06Z</time>
      </trkpt>
      <trkpt lat="47.9609" lon="-3.70906">
        <ele>114.4</ele>
        <time>2020-06-07T15:08:07Z</time>
      </trkpt>
      <trkpt lat="47.961" lon="-3.70907">
        <ele>114.6</ele>
        <time>2020-06-07T15:08:08Z</time>
      </trkpt>
      <trkpt lat="47.9611" lon="-3.70907">
        <ele>114.5</ele>
        <time>2020-06-07T15:08:09Z</time>
      </trkpt>
      <trkpt lat="47.9612" lon="-3.70908">
        <ele>114.5</ele>
        <time>2020-06-07T15:08:10Z</time>
      </trkpt>
      <trkpt lat="47.9613" lon="-3.70909">
        <ele>114.3</ele>
        <time>2020-06-07T15:08:11Z</time>
      </trkpt>
      <trkpt lat="47.96139" lon="-3.70909">
        <ele>114.2</ele>
        <time>2020-06-07T15:08:12Z</time>
      </trkpt>
      <trkpt lat="47.96149" lon="-3.7091">
        <ele>114</ele>
        <time>2020-06-07T15:08:13Z</time>
      </trkpt>
      <trkpt lat="47.96158" lon="-3.70912">
        <ele>113.8</ele>
        <time>2020-06-07T15:08:14Z</time>
      </trkpt>
      <trkpt lat="47.96167" lon="-3.70913">
        <ele>113.7</ele>
        <time>2020-06-07T15:08:15Z</time>
      </trkpt>
      <trkpt lat="47.96177" lon="-3.70914">
        <ele>113.5</ele>
        <time>2020-06-07T15:08:16Z</time>
      </trkpt>
      <trkpt lat="47.96186" lon="-3.70915">
        <ele>113.2</ele>
        <time>2020-06-07T15:08:17Z</time>
      </trkpt>
      <trkpt lat="47.96196" lon="-3.70915">
        <ele>113</ele>
        <time>2020-06-07T15:08:18Z</time>
      </trkpt>
      <trkpt lat="47.96205" lon="-3.70916">
        <ele>112.8</ele>
        <time>2020-06-07T15:08:19Z</time>
      </trkpt>
      <trkpt lat="47.96214" lon="-3.70917">
        <ele>112.7</ele>
        <time>2020-06-07T15:08:20Z</time>
      </trkpt>
      <trkpt lat="47.96223" lon="-3.70917">
        <ele>112.5</ele>
        <time>2020-06-07T15:08:21Z</time>
      </trkpt>
      <trkpt lat="47.96232" lon="-3.70917">
        <ele>112.3</ele>
        <time>2020-06-07T15:08:22Z</time>
      </trkpt>
      <trkpt lat="47.96241" lon="-3.70918">
        <ele>112.1</ele>
        <time>2020-06-07T15:08:23Z</time>
      </trkpt>
      <trkpt lat="47.96251" lon="-3.70919">
        <ele>111.9</ele>
        <time>2020-06-07T15:08:24Z</time>
      </trkpt>
      <trkpt lat="47.9626" lon="-3.70919">
        <ele>111.7</ele>
        <time>2020-06-07T15:08:25Z</time>
      </trkpt>
      <trkpt lat="47.96268" lon="-3.7092">
        <ele>111.5</ele>
        <time>2020-06-07T15:08:26Z</time>
      </trkpt>
      <trkpt lat="47.96278" lon="-3.70921">
        <ele>111.3</ele>
        <time>2020-06-07T15:08:27Z</time>
      </trkpt>
      <trkpt lat="47.96286" lon="-3.70921">
        <ele>111.1</ele>
        <time>2020-06-07T15:08:28Z</time>
      </trkpt>
      <trkpt lat="47.96295" lon="-3.70923">
        <ele>110.9</ele>
        <time>2020-06-07T15:08:29Z</time>
      </trkpt>
      <trkpt lat="47.96304" lon="-3.70923">
        <ele>110.6</ele>
        <time>2020-06-07T15:08:30Z</time>
      </trkpt>
      <trkpt lat="47.96313" lon="-3.70924">
        <ele>110.5</ele>
        <time>2020-06-07T15:08:31Z</time>
      </trkpt>
      <trkpt lat="47.96322" lon="-3.70925">
        <ele>110.2</ele>
        <time>2020-06-07T15:08:32Z</time>
      </trkpt>
      <trkpt lat="47.96331" lon="-3.70925">
        <ele>109.7</ele>
        <time>2020-06-07T15:08:33Z</time>
      </trkpt>
      <trkpt lat="47.9634" lon="-3.70926">
        <ele>109.5</ele>
        <time>2020-06-07T15:08:34Z</time>
      </trkpt>
      <trkpt lat="47.96349" lon="-3.70927">
        <ele>109.5</ele>
        <time>2020-06-07T15:08:35Z</time>
      </trkpt>
      <trkpt lat="47.96358" lon="-3.70928">
        <ele>109.4</ele>
        <time>2020-06-07T15:08:36Z</time>
      </trkpt>
      <trkpt lat="47.96367" lon="-3.7093">
        <ele>109.4</ele>
        <time>2020-06-07T15:08:37Z</time>
      </trkpt>
      <trkpt lat="47.96376" lon="-3.7093">
        <ele>109.3</ele>
        <time>2020-06-07T15:08:38Z</time>
      </trkpt>
      <trkpt lat="47.96384" lon="-3.70932">
        <ele>109.2</ele>
        <time>2020-06-07T15:08:39Z</time>
      </trkpt>
      <trkpt lat="47.96393" lon="-3.70933">
        <ele>109.2</ele>
        <time>2020-06-07T15:08:40Z</time>
      </trkpt>
      <trkpt lat="47.96401" lon="-3.70934">
        <ele>109.3</ele>
        <time>2020-06-07T15:08:41Z</time>
      </trkpt>
      <trkpt lat="47.96409" lon="-3.70935">
        <ele>109.4</ele>
        <time>2020-06-07T15:08:42Z</time>
      </trkpt>
      <trkpt lat="47.96417" lon="-3.70935">
        <ele>109.5</ele>
        <time>2020-06-07T15:08:43Z</time>
      </trkpt>
      <trkpt lat="47.96424" lon="-3.70936">
        <ele>109.6</ele>
        <time>2020-06-07T15:08:44Z</time>
      </trkpt>
      <trkpt lat="47.96432" lon="-3.70937">
        <ele>109.7</ele>
        <time>2020-06-07T15:08:45Z</time>
      </trkpt>
      <trkpt lat="47.96439" lon="-3.70938">
        <ele>109.8</ele>
        <time>2020-06-07T15:08:46Z</time>
      </trkpt>
      <trkpt lat="47.96446" lon="-3.70939">
        <ele>110</ele>
        <time>2020-06-07T15:08:47Z</time>
      </trkpt>
      <trkpt lat="47.96453" lon="-3.70941">
        <ele>110.2</ele>
        <time>2020-06-07T15:08:48Z</time>
      </trkpt>
      <trkpt lat="47.96461" lon="-3.70941">
        <ele>110.4</ele>
        <time>2020-06-07T15:08:49Z</time>
      </trkpt>
      <trkpt lat="47.96467" lon="-3.70942">
        <ele>110.6</ele>
        <time>2020-06-07T15:08:50Z</time>
      </trkpt>
      <trkpt lat="47.96474" lon="-3.70943">
        <ele>110.8</ele>
        <time>2020-06-07T15:08:51Z</time>
      </trkpt>
      <trkpt lat="47.9648" lon="-3.70944">
        <ele>111</ele>
        <time>2020-06-07T15:08:52Z</time>
      </trkpt>
      <trkpt lat="47.96486" lon="-3.70945">
        <ele>111.3</ele>
        <time>2020-06-07T15:08:53Z</time>
      </trkpt>
      <trkpt lat="47.96492" lon="-3.70946">
        <ele>111.5</ele>
        <time>2020-06-07T15:08:54Z</time>
      </trkpt>
      <trkpt lat="47.96497" lon="-3.70948">
        <ele>111.7</ele>
        <time>2020-06-07T15:08:55Z</time>
      </trkpt>
      <trkpt lat="47.96503" lon="-3.7095">
        <ele>112</ele>
        <time>2020-06-07T15:08:56Z</time>
      </trkpt>
      <trkpt lat="47.96509" lon="-3.7095">
        <ele>112.2</ele>
        <time>2020-06-07T15:08:57Z</time>
      </trkpt>
      <trkpt lat="47.96514" lon="-3.70952">
        <ele>112.5</ele>
        <time>2020-06-07T15:08:58Z</time>
      </trkpt>
      <trkpt lat="47.96519" lon="-3.70953">
        <ele>112.8</ele>
        <time>2020-06-07T15:08:59Z</time>
      </trkpt>
      <trkpt lat="47.96524" lon="-3.70956">
        <ele>113.1</ele>
        <time>2020-06-07T15:09:00Z</time>
      </trkpt>
      <trkpt lat="47.96528" lon="-3.70959">
        <ele>113.3</ele>
        <time>2020-06-07T15:09:01Z</time>
      </trkpt>
      <trkpt lat="47.96532" lon="-3.70961">
        <ele>113.6</ele>
        <time>2020-06-07T15:09:02Z</time>
      </trkpt>
      <trkpt lat="47.96536" lon="-3.70964">
        <ele>113.8</ele>
        <time>2020-06-07T15:09:03Z</time>
      </trkpt>
      <trkpt lat="47.9654" lon="-3.70966">
        <ele>114</ele>
        <time>2020-06-07T15:09:04Z</time>
      </trkpt>
      <trkpt lat="47.96544" lon="-3.70968">
        <ele>114.2</ele>
        <time>2020-06-07T15:09:05Z</time>
      </trkpt>
      <trkpt lat="47.96549" lon="-3.7097">
        <ele>114.5</ele>
        <time>2020-06-07T15:09:06Z</time>
      </trkpt>
      <trkpt lat="47.96553" lon="-3.70973">
        <ele>114.7</ele>
        <time>2020-06-07T15:09:07Z</time>
      </trkpt>
      <trkpt lat="47.96557" lon="-3.70976">
        <ele>114.9</ele>
        <time>2020-06-07T15:09:08Z</time>
      </trkpt>
      <trkpt lat="47.96561" lon="-3.70978">
        <ele>115.2</ele>
        <time>2020-06-07T15:09:09Z</time>
      </trkpt>
      <trkpt lat="47.96565" lon="-3.7098">
        <ele>115.4</ele>
        <time>2020-06-07T15:09:10Z</time>
      </trkpt>
      <trkpt lat="47.96569" lon="-3.70981">
        <ele>115.7</ele>
        <time>2020-06-07T15:09:11Z</time>
      </trkpt>
      <trkpt lat="47.96573" lon="-3.70983">
        <ele>116</ele>
        <time>2020-06-07T15:09:12Z</time>
      </trkpt>
      <trkpt lat="47.96575" lon="-3.70985">
        <ele>116.2</ele>
        <time>2020-06-07T15:09:13Z</time>
      </trkpt>
      <trkpt lat="47.96578" lon="-3.70986">
        <ele>116.4</ele>
        <time>2020-06-07T15:09:14Z</time>
      </trkpt>
      <trkpt lat="47.96581" lon="-3.70987">
        <ele>116.6</ele>
        <time>2020-06-07T15:09:15Z</time>
      </trkpt>
      <trkpt lat="47.96584" lon="-3.7099">
        <ele>116.8</ele>
        <time>2020-06-07T15:09:16Z</time>
      </trkpt>
      <trkpt lat="47.96588" lon="-3.70992">
        <ele>117.1</ele>
        <time>2020-06-07T15:09:17Z</time>
      </trkpt>
      <trkpt lat="47.96592" lon="-3.70993">
        <ele>117.4</ele>
        <time>2020-06-07T15:09:18Z</time>
      </trkpt>
      <trkpt lat="47.96596" lon="-3.70995">
        <ele>117.7</ele>
        <time>2020-06-07T15:09:19Z</time>
      </trkpt>
      <trkpt lat="47.96599" lon="-3.70996">
        <ele>117.9</ele>
        <time>2020-06-07T15:09:20Z</time>
      </trkpt>
      <trkpt lat="47.96601" lon="-3.70998">
        <ele>118.2</ele>
        <time>2020-06-07T15:09:21Z</time>
      </trkpt>
      <trkpt lat="47.96604" lon="-3.71">
        <ele>118.4</ele>
        <time>2020-06-07T15:09:22Z</time>
      </trkpt>
      <trkpt lat="47.96607" lon="-3.71001">
        <ele>118.6</ele>
        <time>2020-06-07T15:09:23Z</time>
      </trkpt>
      <trkpt lat="47.9661" lon="-3.71003">
        <ele>118.9</ele>
        <time>2020-06-07T15:09:24Z</time>
      </trkpt>
      <trkpt lat="47.96614" lon="-3.71004">
        <ele>119.2</ele>
        <time>2020-06-07T15:09:25Z</time>
      </trkpt>
      <trkpt lat="47.96617" lon="-3.71006">
        <ele>119.5</ele>
        <time>2020-06-07T15:09:26Z</time>
      </trkpt>
      <trkpt lat="47.9662" lon="-3.71007">
        <ele>119.7</ele>
        <time>2020-06-07T15:09:27Z</time>
      </trkpt>
      <trkpt lat="47.96623" lon="-3.7101">
        <ele>120</ele>
        <time>2020-06-07T15:09:28Z</time>
      </trkpt>
      <trkpt lat="47.96627" lon="-3.71012">
        <ele>120.3</ele>
        <time>2020-06-07T15:09:29Z</time>
      </trkpt>
      <trkpt lat="47.96629" lon="-3.71013">
        <ele>120.5</ele>
        <time>2020-06-07T15:09:30Z</time>
      </trkpt>
      <trkpt lat="47.96632" lon="-3.71014">
        <ele>120.7</ele>
        <time>2020-06-07T15:09:31Z</time>
      </trkpt>
      <trkpt lat="47.96635" lon="-3.71015">
        <ele>120.9</ele>
        <time>2020-06-07T15:09:32Z</time>
      </trkpt>
      <trkpt lat="47.96638" lon="-3.71017">
        <ele>121.2</ele>
        <time>2020-06-07T15:09:33Z</time>
      </trkpt>
      <trkpt lat="47.96639" lon="-3.71017">
        <ele>121.3</ele>
        <time>2020-06-07T15:09:34Z</time>
      </trkpt>
      <trkpt lat="47.96642" lon="-3.71018">
        <ele>121.5</ele>
        <time>2020-06-07T15:09:35Z</time>
      </trkpt>
      <trkpt lat="47.96645" lon="-3.71019">
        <ele>121.8</ele>
        <time>2020-06-07T15:09:36Z</time>
      </trkpt>
      <trkpt lat="47.96648" lon="-3.71021">
        <ele>122.1</ele>
        <time>2020-06-07T15:09:37Z</time>
      </trkpt>
      <trkpt lat="47.96651" lon="-3.71023">
        <ele>122.4</ele>
        <time>2020-06-07T15:09:38Z</time>
      </trkpt>
      <trkpt lat="47.96652" lon="-3.71024">
        <ele>122.6</ele>
        <time>2020-06-07T15:09:39Z</time>
      </trkpt>
      <trkpt lat="47.96655" lon="-3.71026">
        <ele>123</ele>
        <time>2020-06-07T15:09:40Z</time>
      </trkpt>
      <trkpt lat="47.96657" lon="-3.71027">
        <ele>123.1</ele>
        <time>2020-06-07T15:09:41Z</time>
      </trkpt>
      <trkpt lat="47.96659" lon="-3.71027">
        <ele>123.4</ele>
        <time>2020-06-07T15:09:42Z</time>
      </trkpt>
      <trkpt lat="47.96663" lon="-3.71027">
        <ele>123.7</ele>
        <time>2020-06-07T15:09:43Z</time>
      </trkpt>
      <trkpt lat="47.96664" lon="-3.71028">
        <ele>123.8</ele>
        <time>2020-06-07T15:09:44Z</time>
      </trkpt>
      <trkpt lat="47.96666" lon="-3.71028">
        <ele>124</ele>
        <time>2020-06-07T15:09:45Z</time>
      </trkpt>
      <trkpt lat="47.96668" lon="-3.71028">
        <ele>124.2</ele>
        <time>2020-06-07T15:09:46Z</time>
      </trkpt>
      <trkpt lat="47.96672" lon="-3.71029">
        <ele>125</ele>
        <time>2020-06-07T15:09:47Z</time>
      </trkpt>
      <trkpt lat="47.96673" lon="-3.7103">
        <ele>125.1</ele>
        <time>2020-06-07T15:09:48Z</time>
      </trkpt>
      <trkpt lat="47.96676" lon="-3.71031">
        <ele>125.4</ele>
        <time>2020-06-07T15:09:49Z</time>
      </trkpt>
      <trkpt lat="47.9668" lon="-3.71031">
        <ele>125.7</ele>
        <time>2020-06-07T15:09:50Z</time>
      </trkpt>
      <trkpt lat="47.9668" lon="-3.71032">
        <ele>125.7</ele>
        <time>2020-06-07T15:09:51Z</time>
      </trkpt>
      <trkpt lat="47.96684" lon="-3.71033">
        <ele>126</ele>
        <time>2020-06-07T15:09:52Z</time>
      </trkpt>
      <trkpt lat="47.96685" lon="-3.71033">
        <ele>126.1</ele>
        <time>2020-06-07T15:09:53Z</time>
      </trkpt>
      <trkpt lat="47.96688" lon="-3.71035">
        <ele>126.4</ele>
        <time>2020-06-07T15:09:54Z</time>
      </trkpt>
      <trkpt lat="47.96689" lon="-3.71035">
        <ele>126.5</ele>
        <time>2020-06-07T15:09:55Z</time>
      </trkpt>
      <trkpt lat="47.96692" lon="-3.71037">
        <ele>126.8</ele>
        <time>2020-06-07T15:09:56Z</time>
      </trkpt>
      <trkpt lat="47.96693" lon="-3.71038">
        <ele>126.9</ele>
        <time>2020-06-07T15:09:57Z</time>
      </trkpt>
      <trkpt lat="47.96697" lon="-3.7104">
        <ele>127.2</ele>
        <time>2020-06-07T15:09:58Z</time>
      </trkpt>
      <trkpt lat="47.96698" lon="-3.71041">
        <ele>127.3</ele>
        <time>2020-06-07T15:09:59Z</time>
      </trkpt>
      <trkpt lat="47.967" lon="-3.71042">
        <ele>127.5</ele>
        <time>2020-06-07T15:10:00Z</time>
      </trkpt>
      <trkpt lat="47.96701" lon="-3.71041">
        <ele>127.6</ele>
        <time>2020-06-07T15:10:01Z</time>
      </trkpt>
      <trkpt lat="47.96704" lon="-3.71043">
        <ele>127.8</ele>
        <time>2020-06-07T15:10:02Z</time>
      </trkpt>
      <trkpt lat="47.96705" lon="-3.71044">
        <ele>127.9</ele>
        <time>2020-06-07T15:10:03Z</time>
      </trkpt>
      <trkpt lat="47.96708" lon="-3.71045">
        <ele>128.2</ele>
        <time>2020-06-07T15:10:04Z</time>
      </trkpt>
      <trkpt lat="47.96712" lon="-3.71045">
        <ele>128.5</ele>
        <time>2020-06-07T15:10:05Z</time>
      </trkpt>
      <trkpt lat="47.96714" lon="-3.71046">
        <ele>128.6</ele>
        <time>2020-06-07T15:10:06Z</time>
      </trkpt>
      <trkpt lat="47.96717" lon="-3.71046">
        <ele>128.9</ele>
        <time>2020-06-07T15:10:07Z</time>
      </trkpt>
      <trkpt lat="47.96718" lon="-3.71046">
        <ele>129</ele>
        <time>2020-06-07T15:10:08Z</time>
      </trkpt>
      <trkpt lat="47.96721" lon="-3.71047">
        <ele>129.2</ele>
        <time>2020-06-07T15:10:09Z</time>
      </trkpt>
      <trkpt lat="47.96722" lon="-3.71047">
        <ele>129.3</ele>
        <time>2020-06-07T15:10:10Z</time>
      </trkpt>
      <trkpt lat="47.96725" lon="-3.71048">
        <ele>129.5</ele>
        <time>2020-06-07T15:10:11Z</time>
      </trkpt>
      <trkpt lat="47.96726" lon="-3.71049">
        <ele>129.6</ele>
        <time>2020-06-07T15:10:12Z</time>
      </trkpt>
      <trkpt lat="47.96729" lon="-3.71049">
        <ele>129.8</ele>
        <time>2020-06-07T15:10:13Z</time>
      </trkpt>
      <trkpt lat="47.9673" lon="-3.71049">
        <ele>129.9</ele>
        <time>2020-06-07T15:10:14Z</time>
      </trkpt>
      <trkpt lat="47.96734" lon="-3.71049">
        <ele>130.1</ele>
        <time>2020-06-07T15:10:15Z</time>
      </trkpt>
      <trkpt lat="47.96735" lon="-3.71049">
        <ele>130.2</ele>
        <time>2020-06-07T15:10:16Z</time>
      </trkpt>
      <trkpt lat="47.96738" lon="-3.71048">
        <ele>130.5</ele>
        <time>2020-06-07T15:10:17Z</time>
      </trkpt>
      <trkpt lat="47.9674" lon="-3.71048">
        <ele>130.6</ele>
        <time>2020-06-07T15:10:18Z</time>
      </trkpt>
      <trkpt lat="47.96742" lon="-3.71048">
        <ele>130.7</ele>
        <time>2020-06-07T15:10:19Z</time>
      </trkpt>
      <trkpt lat="47.96743" lon="-3.71047">
        <ele>130.8</ele>
        <time>2020-06-07T15:10:20Z</time>
      </trkpt>
      <trkpt lat="47.96746" lon="-3.71047">
        <ele>131</ele>
        <time>2020-06-07T15:10:21Z</time>
      </trkpt>
      <trkpt lat="47.96747" lon="-3.71047">
        <ele>131.1</ele>
        <time>2020-06-07T15:10:22Z</time>
      </trkpt>
      <trkpt lat="47.96751" lon="-3.71048">
        <ele>131.4</ele>
        <time>2020-06-07T15:10:23Z</time>
      </trkpt>
      <trkpt lat="47.96752" lon="-3.71048">
        <ele>131.5</ele>
        <time>2020-06-07T15:10:24Z</time>
      </trkpt>
      <trkpt lat="47.96755" lon="-3.71049">
        <ele>131.7</ele>
        <time>2020-06-07T15:10:25Z</time>
      </trkpt>
      <trkpt lat="47.96757" lon="-3.71048">
        <ele>131.9</ele>
        <time>2020-06-07T15:10:26Z</time>
      </trkpt>
      <trkpt lat="47.96759" lon="-3.71048">
        <ele>132</ele>
        <time>2020-06-07T15:10:27Z</time>
      </trkpt>
      <trkpt lat="47.96761" lon="-3.71048">
        <ele>132.1</ele>
        <time>2020-06-07T15:10:28Z</time>
      </trkpt>
      <trkpt lat="47.96764" lon="-3.71049">
        <ele>132.3</ele>
        <time>2020-06-07T15:10:29Z</time>
      </trkpt>
      <trkpt lat="47.96767" lon="-3.71049">
        <ele>132.5</ele>
        <time>2020-06-07T15:10:30Z</time>
      </trkpt>
      <trkpt lat="47.96768" lon="-3.71048">
        <ele>132.5</ele>
        <time>2020-06-07T15:10:31Z</time>
      </trkpt>
      <trkpt lat="47.96771" lon="-3.71049">
        <ele>132.7</ele>
        <time>2020-06-07T15:10:32Z</time>
      </trkpt>
      <trkpt lat="47.96774" lon="-3.71049">
        <ele>132.9</ele>
        <time>2020-06-07T15:10:33Z</time>
      </trkpt>
      <trkpt lat="47.96778" lon="-3.71049">
        <ele>133.1</ele>
        <time>2020-06-07T15:10:34Z</time>
      </trkpt>
      <trkpt lat="47.96779" lon="-3.71049">
        <ele>133.2</ele>
        <time>2020-06-07T15:10:35Z</time>
      </trkpt>
      <trkpt lat="47.96782" lon="-3.71048">
        <ele>133.4</ele>
        <time>2020-06-07T15:10:36Z</time>
      </trkpt>
      <trkpt lat="47.96783" lon="-3.71047">
        <ele>133.4</ele>
        <time>2020-06-07T15:10:37Z</time>
      </trkpt>
      <trkpt lat="47.96786" lon="-3.71047">
        <ele>133.6</ele>
        <time>2020-06-07T15:10:38Z</time>
      </trkpt>
      <trkpt lat="47.96791" lon="-3.71048">
        <ele>133.8</ele>
        <time>2020-06-07T15:10:39Z</time>
      </trkpt>
      <trkpt lat="47.96793" lon="-3.71049">
        <ele>134</ele>
        <time>2020-06-07T15:10:40Z</time>
      </trkpt>
      <trkpt lat="47.96797" lon="-3.71051">
        <ele>134.2</ele>
        <time>2020-06-07T15:10:41Z</time>
      </trkpt>
      <trkpt lat="47.968" lon="-3.71052">
        <ele>134.3</ele>
        <time>2020-06-07T15:10:42Z</time>
      </trkpt>
      <trkpt lat="47.96803" lon="-3.71052">
        <ele>134.4</ele>
        <time>2020-06-07T15:10:43Z</time>
      </trkpt>
      <trkpt lat="47.96806" lon="-3.71052">
        <ele>134.6</ele>
        <time>2020-06-07T15:10:44Z</time>
      </trkpt>
      <trkpt lat="47.9681" lon="-3.71052">
        <ele>134.8</ele>
        <time>2020-06-07T15:10:45Z</time>
      </trkpt>
      <trkpt lat="47.96811" lon="-3.71052">
        <ele>134.8</ele>
        <time>2020-06-07T15:10:46Z</time>
      </trkpt>
      <trkpt lat="47.96814" lon="-3.7105">
        <ele>135</ele>
        <time>2020-06-07T15:10:47Z</time>
      </trkpt>
      <trkpt lat="47.96818" lon="-3.71048">
        <ele>135.1</ele>
        <time>2020-06-07T15:10:48Z</time>
      </trkpt>
      <trkpt lat="47.96821" lon="-3.71045">
        <ele>135.3</ele>
        <time>2020-06-07T15:10:49Z</time>
      </trkpt>
      <trkpt lat="47.96824" lon="-3.71045">
        <ele>135.4</ele>
        <time>2020-06-07T15:10:50Z</time>
      </trkpt>
      <trkpt lat="47.96825" lon="-3.71045">
        <ele>135.4</ele>
        <time>2020-06-07T15:10:51Z</time>
      </trkpt>
      <trkpt lat="47.96828" lon="-3.71044">
        <ele>135.6</ele>
        <time>2020-06-07T15:10:52Z</time>
      </trkpt>
      <trkpt lat="47.96832" lon="-3.71043">
        <ele>135.7</ele>
        <time>2020-06-07T15:10:53Z</time>
      </trkpt>
      <trkpt lat="47.96835" lon="-3.71042">
        <ele>135.8</ele>
        <time>2020-06-07T15:10:54Z</time>
      </trkpt>
      <trkpt lat="47.96838" lon="-3.71042">
        <ele>136</ele>
        <time>2020-06-07T15:10:55Z</time>
      </trkpt>
      <trkpt lat="47.96842" lon="-3.71041">
        <ele>136.1</ele>
        <time>2020-06-07T15:10:56Z</time>
      </trkpt>
      <trkpt lat="47.96845" lon="-3.7104">
        <ele>136.2</ele>
        <time>2020-06-07T15:10:57Z</time>
      </trkpt>
      <trkpt lat="47.96846" lon="-3.7104">
        <ele>136.2</ele>
        <time>2020-06-07T15:10:58Z</time>
      </trkpt>
      <trkpt lat="47.96849" lon="-3.71039">
        <ele>136.3</ele>
        <time>2020-06-07T15:10:59Z</time>
      </trkpt>
      <trkpt lat="47.96853" lon="-3.71038">
        <ele>136.4</ele>
        <time>2020-06-07T15:11:00Z</time>
      </trkpt>
      <trkpt lat="47.96855" lon="-3.71037">
        <ele>136.5</ele>
        <time>2020-06-07T15:11:01Z</time>
      </trkpt>
      <trkpt lat="47.96859" lon="-3.71036">
        <ele>136.6</ele>
        <time>2020-06-07T15:11:02Z</time>
      </trkpt>
      <trkpt lat="47.96863" lon="-3.71036">
        <ele>136.7</ele>
        <time>2020-06-07T15:11:03Z</time>
      </trkpt>
      <trkpt lat="47.96867" lon="-3.71036">
        <ele>136.8</ele>
        <time>2020-06-07T15:11:04Z</time>
      </trkpt>
      <trkpt lat="47.96871" lon="-3.71035">
        <ele>136.9</ele>
        <time>2020-06-07T15:11:05Z</time>
      </trkpt>
      <trkpt lat="47.96875" lon="-3.71034">
        <ele>137</ele>
        <time>2020-06-07T15:11:06Z</time>
      </trkpt>
      <trkpt lat="47.96879" lon="-3.71032">
        <ele>137.1</ele>
        <time>2020-06-07T15:11:07Z</time>
      </trkpt>
      <trkpt lat="47.96883" lon="-3.71029">
        <ele>137.2</ele>
        <time>2020-06-07T15:11:08Z</time>
      </trkpt>
      <trkpt lat="47.96888" lon="-3.71026">
        <ele>137.3</ele>
        <time>2020-06-07T15:11:09Z</time>
      </trkpt>
      <trkpt lat="47.96893" lon="-3.71025">
        <ele>137.4</ele>
        <time>2020-06-07T15:11:10Z</time>
      </trkpt>
      <trkpt lat="47.96897" lon="-3.71023">
        <ele>137.6</ele>
        <time>2020-06-07T15:11:11Z</time>
      </trkpt>
      <trkpt lat="47.96901" lon="-3.71023">
        <ele>137.6</ele>
        <time>2020-06-07T15:11:12Z</time>
      </trkpt>
      <trkpt lat="47.96906" lon="-3.71022">
        <ele>137.7</ele>
        <time>2020-06-07T15:11:13Z</time>
      </trkpt>
      <trkpt lat="47.9691" lon="-3.71021">
        <ele>137.8</ele>
        <time>2020-06-07T15:11:14Z</time>
      </trkpt>
      <trkpt lat="47.96913" lon="-3.71021">
        <ele>137.8</ele>
        <time>2020-06-07T15:11:15Z</time>
      </trkpt>
      <trkpt lat="47.96917" lon="-3.7102">
        <ele>137.8</ele>
        <time>2020-06-07T15:11:16Z</time>
      </trkpt>
      <trkpt lat="47.96921" lon="-3.7102">
        <ele>138</ele>
        <time>2020-06-07T15:11:17Z</time>
      </trkpt>
      <trkpt lat="47.96924" lon="-3.71018">
        <ele>138.1</ele>
        <time>2020-06-07T15:11:18Z</time>
      </trkpt>
      <trkpt lat="47.96929" lon="-3.71018">
        <ele>138.3</ele>
        <time>2020-06-07T15:11:19Z</time>
      </trkpt>
      <trkpt lat="47.96933" lon="-3.71017">
        <ele>138.4</ele>
        <time>2020-06-07T15:11:20Z</time>
      </trkpt>
      <trkpt lat="47.96936" lon="-3.71016">
        <ele>138.5</ele>
        <time>2020-06-07T15:11:21Z</time>
      </trkpt>
      <trkpt lat="47.9694" lon="-3.71015">
        <ele>138.7</ele>
        <time>2020-06-07T15:11:22Z</time>
      </trkpt>
      <trkpt lat="47.96945" lon="-3.71014">
        <ele>138.9</ele>
        <time>2020-06-07T15:11:23Z</time>
      </trkpt>
      <trkpt lat="47.96949" lon="-3.71011">
        <ele>139.1</ele>
        <time>2020-06-07T15:11:24Z</time>
      </trkpt>
      <trkpt lat="47.96952" lon="-3.71009">
        <ele>139.2</ele>
        <time>2020-06-07T15:11:25Z</time>
      </trkpt>
      <trkpt lat="47.96956" lon="-3.71008">
        <ele>139.4</ele>
        <time>2020-06-07T15:11:26Z</time>
      </trkpt>
      <trkpt lat="47.9696" lon="-3.71007">
        <ele>139.6</ele>
        <time>2020-06-07T15:11:27Z</time>
      </trkpt>
      <trkpt lat="47.96964" lon="-3.71005">
        <ele>139.7</ele>
        <time>2020-06-07T15:11:28Z</time>
      </trkpt>
      <trkpt lat="47.96968" lon="-3.71003">
        <ele>139.9</ele>
        <time>2020-06-07T15:11:29Z</time>
      </trkpt>
      <trkpt lat="47.96972" lon="-3.71002">
        <ele>140.1</ele>
        <time>2020-06-07T15:11:30Z</time>
      </trkpt>
      <trkpt lat="47.96976" lon="-3.71001">
        <ele>140.2</ele>
        <time>2020-06-07T15:11:31Z</time>
      </trkpt>
      <trkpt lat="47.96979" lon="-3.71">
        <ele>140.4</ele>
        <time>2020-06-07T15:11:32Z</time>
      </trkpt>
      <trkpt lat="47.96983" lon="-3.70999">
        <ele>140.5</ele>
        <time>2020-06-07T15:11:33Z</time>
      </trkpt>
      <trkpt lat="47.96986" lon="-3.70997">
        <ele>140.6</ele>
        <time>2020-06-07T15:11:34Z</time>
      </trkpt>
      <trkpt lat="47.9699" lon="-3.70996">
        <ele>140.8</ele>
        <time>2020-06-07T15:11:35Z</time>
      </trkpt>
      <trkpt lat="47.96993" lon="-3.70996">
        <ele>140.9</ele>
        <time>2020-06-07T15:11:36Z</time>
      </trkpt>
      <trkpt lat="47.96997" lon="-3.70996">
        <ele>141.1</ele>
        <time>2020-06-07T15:11:37Z</time>
      </trkpt>
      <trkpt lat="47.97001" lon="-3.70996">
        <ele>141.3</ele>
        <time>2020-06-07T15:11:38Z</time>
      </trkpt>
      <trkpt lat="47.97005" lon="-3.70995">
        <ele>141.5</ele>
        <time>2020-06-07T15:11:39Z</time>
      </trkpt>
      <trkpt lat="47.9701" lon="-3.70993">
        <ele>141.6</ele>
        <time>2020-06-07T15:11:40Z</time>
      </trkpt>
      <trkpt lat="47.97015" lon="-3.70992">
        <ele>141.8</ele>
        <time>2020-06-07T15:11:41Z</time>
      </trkpt>
      <trkpt lat="47.97019" lon="-3.70989">
        <ele>142</ele>
        <time>2020-06-07T15:11:42Z</time>
      </trkpt>
      <trkpt lat="47.97023" lon="-3.70987">
        <ele>142.2</ele>
        <time>2020-06-07T15:11:43Z</time>
      </trkpt>
      <trkpt lat="47.97027" lon="-3.70986">
        <ele>142.4</ele>
        <time>2020-06-07T15:11:44Z</time>
      </trkpt>
      <trkpt lat="47.97031" lon="-3.70984">
        <ele>142.6</ele>
        <time>2020-06-07T15:11:45Z</time>
      </trkpt>
      <trkpt lat="47.97032" lon="-3.70984">
        <ele>142.7</ele>
        <time>2020-06-07T15:11:46Z</time>
      </trkpt>
      <trkpt lat="47.97036" lon="-3.70983">
        <ele>142.9</ele>
        <time>2020-06-07T15:11:47Z</time>
      </trkpt>
      <trkpt lat="47.97039" lon="-3.70982">
        <ele>143</ele>
        <time>2020-06-07T15:11:48Z</time>
      </trkpt>
      <trkpt lat="47.97043" lon="-3.7098">
        <ele>143.3</ele>
        <time>2020-06-07T15:11:49Z</time>
      </trkpt>
      <trkpt lat="47.97046" lon="-3.7098">
        <ele>143.4</ele>
        <time>2020-06-07T15:11:50Z</time>
      </trkpt>
      <trkpt lat="47.9705" lon="-3.70979">
        <ele>143.7</ele>
        <time>2020-06-07T15:11:51Z</time>
      </trkpt>
      <trkpt lat="47.97054" lon="-3.70979">
        <ele>143.9</ele>
        <time>2020-06-07T15:11:52Z</time>
      </trkpt>
      <trkpt lat="47.97057" lon="-3.70978">
        <ele>144.1</ele>
        <time>2020-06-07T15:11:53Z</time>
      </trkpt>
      <trkpt lat="47.97061" lon="-3.70977">
        <ele>144.3</ele>
        <time>2020-06-07T15:11:54Z</time>
      </trkpt>
      <trkpt lat="47.97065" lon="-3.70976">
        <ele>144.5</ele>
        <time>2020-06-07T15:11:55Z</time>
      </trkpt>
      <trkpt lat="47.97069" lon="-3.70976">
        <ele>144.7</ele>
        <time>2020-06-07T15:11:56Z</time>
      </trkpt>
      <trkpt lat="47.97073" lon="-3.70976">
        <ele>144.9</ele>
        <time>2020-06-07T15:11:57Z</time>
      </trkpt>
      <trkpt lat="47.97077" lon="-3.70975">
        <ele>145.1</ele>
        <time>2020-06-07T15:11:58Z</time>
      </trkpt>
      <trkpt lat="47.9708" lon="-3.70974">
        <ele>145.3</ele>
        <time>2020-06-07T15:11:59Z</time>
      </trkpt>
      <trkpt lat="47.97083" lon="-3.70973">
        <ele>145.5</ele>
        <time>2020-06-07T15:12:00Z</time>
      </trkpt>
      <trkpt lat="47.97086" lon="-3.70972">
        <ele>145.6</ele>
        <time>2020-06-07T15:12:01Z</time>
      </trkpt>
      <trkpt lat="47.97089" lon="-3.7097">
        <ele>145.8</ele>
        <time>2020-06-07T15:12:02Z</time>
      </trkpt>
      <trkpt lat="47.97092" lon="-3.70969">
        <ele>146</ele>
        <time>2020-06-07T15:12:03Z</time>
      </trkpt>
      <trkpt lat="47.97096" lon="-3.70968">
        <ele>146.1</ele>
        <time>2020-06-07T15:12:04Z</time>
      </trkpt>
      <trkpt lat="47.97099" lon="-3.70967">
        <ele>146.3</ele>
        <time>2020-06-07T15:12:05Z</time>
      </trkpt>
      <trkpt lat="47.97102" lon="-3.70965">
        <ele>146.4</ele>
        <time>2020-06-07T15:12:06Z</time>
      </trkpt>
      <trkpt lat="47.97105" lon="-3.70965">
        <ele>146.6</ele>
        <time>2020-06-07T15:12:07Z</time>
      </trkpt>
      <trkpt lat="47.97108" lon="-3.70964">
        <ele>146.7</ele>
        <time>2020-06-07T15:12:08Z</time>
      </trkpt>
      <trkpt lat="47.97112" lon="-3.70963">
        <ele>146.9</ele>
        <time>2020-06-07T15:12:09Z</time>
      </trkpt>
      <trkpt lat="47.97115" lon="-3.70963">
        <ele>147</ele>
        <time>2020-06-07T15:12:10Z</time>
      </trkpt>
      <trkpt lat="47.97117" lon="-3.70963">
        <ele>147.1</ele>
        <time>2020-06-07T15:12:11Z</time>
      </trkpt>
      <trkpt lat="47.9712" lon="-3.70962">
        <ele>147.3</ele>
        <time>2020-06-07T15:12:12Z</time>
      </trkpt>
      <trkpt lat="47.97123" lon="-3.70961">
        <ele>147.4</ele>
        <time>2020-06-07T15:12:13Z</time>
      </trkpt>
      <trkpt lat="47.97126" lon="-3.7096">
        <ele>147.5</ele>
        <time>2020-06-07T15:12:14Z</time>
      </trkpt>
      <trkpt lat="47.9713" lon="-3.70959">
        <ele>147.7</ele>
        <time>2020-06-07T15:12:15Z</time>
      </trkpt>
      <trkpt lat="47.97133" lon="-3.70958">
        <ele>147.8</ele>
        <time>2020-06-07T15:12:16Z</time>
      </trkpt>
      <trkpt lat="47.97137" lon="-3.70957">
        <ele>147.9</ele>
        <time>2020-06-07T15:12:17Z</time>
      </trkpt>
      <trkpt lat="47.9714" lon="-3.70956">
        <ele>148.1</ele>
        <time>2020-06-07T15:12:18Z</time>
      </trkpt>
      <trkpt lat="47.97143" lon="-3.70954">
        <ele>148.2</ele>
        <time>2020-06-07T15:12:19Z</time>
      </trkpt>
      <trkpt lat="47.97145" lon="-3.70954">
        <ele>148.2</ele>
        <time>2020-06-07T15:12:20Z</time>
      </trkpt>
      <trkpt lat="47.97149" lon="-3.70954">
        <ele>148.3</ele>
        <time>2020-06-07T15:12:21Z</time>
      </trkpt>
      <trkpt lat="47.97152" lon="-3.70952">
        <ele>148.5</ele>
        <time>2020-06-07T15:12:22Z</time>
      </trkpt>
      <trkpt lat="47.97155" lon="-3.70951">
        <ele>148.6</ele>
        <time>2020-06-07T15:12:23Z</time>
      </trkpt>
      <trkpt lat="47.97158" lon="-3.7095">
        <ele>148.7</ele>
        <time>2020-06-07T15:12:24Z</time>
      </trkpt>
      <trkpt lat="47.97163" lon="-3.70947">
        <ele>148.8</ele>
        <time>2020-06-07T15:12:25Z</time>
      </trkpt>
      <trkpt lat="47.97168" lon="-3.70945">
        <ele>149</ele>
        <time>2020-06-07T15:12:26Z</time>
      </trkpt>
      <trkpt lat="47.97172" lon="-3.70943">
        <ele>149.1</ele>
        <time>2020-06-07T15:12:27Z</time>
      </trkpt>
      <trkpt lat="47.97174" lon="-3.70942">
        <ele>149.2</ele>
        <time>2020-06-07T15:12:28Z</time>
      </trkpt>
      <trkpt lat="47.97178" lon="-3.7094">
        <ele>149.3</ele>
        <time>2020-06-07T15:12:29Z</time>
      </trkpt>
      <trkpt lat="47.97182" lon="-3.70939">
        <ele>149.4</ele>
        <time>2020-06-07T15:12:30Z</time>
      </trkpt>
      <trkpt lat="47.97185" lon="-3.70937">
        <ele>149.5</ele>
        <time>2020-06-07T15:12:31Z</time>
      </trkpt>
      <trkpt lat="47.97188" lon="-3.70936">
        <ele>149.6</ele>
        <time>2020-06-07T15:12:32Z</time>
      </trkpt>
      <trkpt lat="47.97192" lon="-3.70936">
        <ele>149.7</ele>
        <time>2020-06-07T15:12:33Z</time>
      </trkpt>
      <trkpt lat="47.97196" lon="-3.70934">
        <ele>149.9</ele>
        <time>2020-06-07T15:12:34Z</time>
      </trkpt>
      <trkpt lat="47.972" lon="-3.70933">
        <ele>150.1</ele>
        <time>2020-06-07T15:12:35Z</time>
      </trkpt>
      <trkpt lat="47.97203" lon="-3.70932">
        <ele>150.2</ele>
        <time>2020-06-07T15:12:36Z</time>
      </trkpt>
      <trkpt lat="47.97206" lon="-3.70931">
        <ele>150.4</ele>
        <time>2020-06-07T15:12:37Z</time>
      </trkpt>
      <trkpt lat="47.97211" lon="-3.70931">
        <ele>150.5</ele>
        <time>2020-06-07T15:12:38Z</time>
      </trkpt>
      <trkpt lat="47.97212" lon="-3.7093">
        <ele>150.6</ele>
        <time>2020-06-07T15:12:39Z</time>
      </trkpt>
      <trkpt lat="47.97216" lon="-3.70928">
        <ele>150.7</ele>
        <time>2020-06-07T15:12:40Z</time>
      </trkpt>
      <trkpt lat="47.9722" lon="-3.70926">
        <ele>150.9</ele>
        <time>2020-06-07T15:12:41Z</time>
      </trkpt>
      <trkpt lat="47.97224" lon="-3.70925">
        <ele>151</ele>
        <time>2020-06-07T15:12:42Z</time>
      </trkpt>
      <trkpt lat="47.97228" lon="-3.70923">
        <ele>151.2</ele>
        <time>2020-06-07T15:12:43Z</time>
      </trkpt>
      <trkpt lat="47.97233" lon="-3.70921">
        <ele>151.4</ele>
        <time>2020-06-07T15:12:44Z</time>
      </trkpt>
      <trkpt lat="47.97236" lon="-3.7092">
        <ele>151.5</ele>
        <time>2020-06-07T15:12:45Z</time>
      </trkpt>
      <trkpt lat="47.97239" lon="-3.70919">
        <ele>151.6</ele>
        <time>2020-06-07T15:12:46Z</time>
      </trkpt>
      <trkpt lat="47.97243" lon="-3.70918">
        <ele>151.7</ele>
        <time>2020-06-07T15:12:47Z</time>
      </trkpt>
      <trkpt lat="47.97245" lon="-3.70918">
        <ele>151.8</ele>
        <time>2020-06-07T15:12:48Z</time>
      </trkpt>
      <trkpt lat="47.97249" lon="-3.70917">
        <ele>152</ele>
        <time>2020-06-07T15:12:49Z</time>
      </trkpt>
      <trkpt lat="47.97252" lon="-3.70916">
        <ele>152.1</ele>
        <time>2020-06-07T15:12:50Z</time>
      </trkpt>
      <trkpt lat="47.97256" lon="-3.70915">
        <ele>152.3</ele>
        <time>2020-06-07T15:12:51Z</time>
      </trkpt>
      <trkpt lat="47.97261" lon="-3.70914">
        <ele>152.4</ele>
        <time>2020-06-07T15:12:52Z</time>
      </trkpt>
      <trkpt lat="47.97265" lon="-3.70913">
        <ele>152.6</ele>
        <time>2020-06-07T15:12:53Z</time>
      </trkpt>
      <trkpt lat="47.9727" lon="-3.70912">
        <ele>152.8</ele>
        <time>2020-06-07T15:12:54Z</time>
      </trkpt>
      <trkpt lat="47.97273" lon="-3.70911">
        <ele>153</ele>
        <time>2020-06-07T15:12:55Z</time>
      </trkpt>
      <trkpt lat="47.97278" lon="-3.70909">
        <ele>153.3</ele>
        <time>2020-06-07T15:12:56Z</time>
      </trkpt>
      <trkpt lat="47.97283" lon="-3.70908">
        <ele>153.5</ele>
        <time>2020-06-07T15:12:57Z</time>
      </trkpt>
      <trkpt lat="47.97288" lon="-3.70906">
        <ele>153.7</ele>
        <time>2020-06-07T15:12:58Z</time>
      </trkpt>
      <trkpt lat="47.97292" lon="-3.70905">
        <ele>153.9</ele>
        <time>2020-06-07T15:12:59Z</time>
      </trkpt>
      <trkpt lat="47.97296" lon="-3.70905">
        <ele>154.1</ele>
        <time>2020-06-07T15:13:00Z</time>
      </trkpt>
      <trkpt lat="47.973" lon="-3.70904">
        <ele>154.2</ele>
        <time>2020-06-07T15:13:01Z</time>
      </trkpt>
      <trkpt lat="47.97304" lon="-3.70903">
        <ele>154.3</ele>
        <time>2020-06-07T15:13:02Z</time>
      </trkpt>
      <trkpt lat="47.97307" lon="-3.70902">
        <ele>154.4</ele>
        <time>2020-06-07T15:13:03Z</time>
      </trkpt>
      <trkpt lat="47.9731" lon="-3.70901">
        <ele>154.5</ele>
        <time>2020-06-07T15:13:04Z</time>
      </trkpt>
      <trkpt lat="47.97314" lon="-3.70901">
        <ele>154.7</ele>
        <time>2020-06-07T15:13:05Z</time>
      </trkpt>
      <trkpt lat="47.97318" lon="-3.709">
        <ele>154.8</ele>
        <time>2020-06-07T15:13:06Z</time>
      </trkpt>
      <trkpt lat="47.97322" lon="-3.70899">
        <ele>155</ele>
        <time>2020-06-07T15:13:07Z</time>
      </trkpt>
      <trkpt lat="47.97326" lon="-3.70898">
        <ele>155.1</ele>
        <time>2020-06-07T15:13:08Z</time>
      </trkpt>
      <trkpt lat="47.97328" lon="-3.70897">
        <ele>155.3</ele>
        <time>2020-06-07T15:13:09Z</time>
      </trkpt>
      <trkpt lat="47.97332" lon="-3.70896">
        <ele>155.4</ele>
        <time>2020-06-07T15:13:10Z</time>
      </trkpt>
      <trkpt lat="47.97336" lon="-3.70895">
        <ele>155.6</ele>
        <time>2020-06-07T15:13:11Z</time>
      </trkpt>
      <trkpt lat="47.9734" lon="-3.70895">
        <ele>155.8</ele>
        <time>2020-06-07T15:13:12Z</time>
      </trkpt>
      <trkpt lat="47.97344" lon="-3.70895">
        <ele>156.1</ele>
        <time>2020-06-07T15:13:13Z</time>
      </trkpt>
      <trkpt lat="47.97348" lon="-3.70894">
        <ele>156.3</ele>
        <time>2020-06-07T15:13:14Z</time>
      </trkpt>
      <trkpt lat="47.97352" lon="-3.70893">
        <ele>156.4</ele>
        <time>2020-06-07T15:13:15Z</time>
      </trkpt>
      <trkpt lat="47.97355" lon="-3.70892">
        <ele>156.6</ele>
        <time>2020-06-07T15:13:16Z</time>
      </trkpt>
      <trkpt lat="47.97358" lon="-3.7089">
        <ele>156.8</ele>
        <time>2020-06-07T15:13:17Z</time>
      </trkpt>
      <trkpt lat="47.97362" lon="-3.70888">
        <ele>157</ele>
        <time>2020-06-07T15:13:18Z</time>
      </trkpt>
      <trkpt lat="47.97364" lon="-3.70888">
        <ele>157.1</ele>
        <time>2020-06-07T15:13:19Z</time>
      </trkpt>
      <trkpt lat="47.97367" lon="-3.70887">
        <ele>157.2</ele>
        <time>2020-06-07T15:13:20Z</time>
      </trkpt>
      <trkpt lat="47.97371" lon="-3.70886">
        <ele>157.5</ele>
        <time>2020-06-07T15:13:21Z</time>
      </trkpt>
      <trkpt lat="47.97375" lon="-3.70885">
        <ele>157.7</ele>
        <time>2020-06-07T15:13:22Z</time>
      </trkpt>
      <trkpt lat="47.97379" lon="-3.70883">
        <ele>157.9</ele>
        <time>2020-06-07T15:13:23Z</time>
      </trkpt>
      <trkpt lat="47.97383" lon="-3.70881">
        <ele>158.1</ele>
        <time>2020-06-07T15:13:24Z</time>
      </trkpt>
      <trkpt lat="47.97386" lon="-3.7088">
        <ele>158.3</ele>
        <time>2020-06-07T15:13:25Z</time>
      </trkpt>
      <trkpt lat="47.97389" lon="-3.70879">
        <ele>158.4</ele>
        <time>2020-06-07T15:13:26Z</time>
      </trkpt>
      <trkpt lat="47.97392" lon="-3.70879">
        <ele>158.6</ele>
        <time>2020-06-07T15:13:27Z</time>
      </trkpt>
      <trkpt lat="47.97395" lon="-3.70878">
        <ele>158.7</ele>
        <time>2020-06-07T15:13:28Z</time>
      </trkpt>
      <trkpt lat="47.97399" lon="-3.70878">
        <ele>158.9</ele>
        <time>2020-06-07T15:13:29Z</time>
      </trkpt>
      <trkpt lat="47.974" lon="-3.70878">
        <ele>159</ele>
        <time>2020-06-07T15:13:30Z</time>
      </trkpt>
      <trkpt lat="47.97403" lon="-3.70878">
        <ele>159.1</ele>
        <time>2020-06-07T15:13:31Z</time>
      </trkpt>
      <trkpt lat="47.97406" lon="-3.70877">
        <ele>159.2</ele>
        <time>2020-06-07T15:13:32Z</time>
      </trkpt>
      <trkpt lat="47.97409" lon="-3.70876">
        <ele>159.4</ele>
        <time>2020-06-07T15:13:33Z</time>
      </trkpt>
      <trkpt lat="47.97412" lon="-3.70876">
        <ele>159.5</ele>
        <time>2020-06-07T15:13:34Z</time>
      </trkpt>
      <trkpt lat="47.97415" lon="-3.70876">
        <ele>159.7</ele>
        <time>2020-06-07T15:13:35Z</time>
      </trkpt>
      <trkpt lat="47.97419" lon="-3.70875">
        <ele>159.8</ele>
        <time>2020-06-07T15:13:36Z</time>
      </trkpt>
      <trkpt lat="47.97422" lon="-3.70874">
        <ele>160</ele>
        <time>2020-06-07T15:13:37Z</time>
      </trkpt>
      <trkpt lat="47.97424" lon="-3.70874">
        <ele>160.1</ele>
        <time>2020-06-07T15:13:38Z</time>
      </trkpt>
      <trkpt lat="47.97427" lon="-3.70873">
        <ele>160.2</ele>
        <time>2020-06-07T15:13:39Z</time>
      </trkpt>
      <trkpt lat="47.97429" lon="-3.70873">
        <ele>160.4</ele>
        <time>2020-06-07T15:13:40Z</time>
      </trkpt>
      <trkpt lat="47.97433" lon="-3.70873">
        <ele>160.6</ele>
        <time>2020-06-07T15:13:41Z</time>
      </trkpt>
      <trkpt lat="47.97436" lon="-3.70873">
        <ele>160.7</ele>
        <time>2020-06-07T15:13:42Z</time>
      </trkpt>
      <trkpt lat="47.97439" lon="-3.70873">
        <ele>160.9</ele>
        <time>2020-06-07T15:13:43Z</time>
      </trkpt>
      <trkpt lat="47.97442" lon="-3.70872">
        <ele>161.1</ele>
        <time>2020-06-07T15:13:44Z</time>
      </trkpt>
      <trkpt lat="47.97445" lon="-3.70871">
        <ele>161.3</ele>
        <time>2020-06-07T15:13:45Z</time>
      </trkpt>
      <trkpt lat="47.97449" lon="-3.7087">
        <ele>161.5</ele>
        <time>2020-06-07T15:13:46Z</time>
      </trkpt>
      <trkpt lat="47.97449" lon="-3.7087">
        <ele>161.5</ele>
        <time>2020-06-07T15:13:47Z</time>
      </trkpt>
      <trkpt lat="47.97453" lon="-3.70869">
        <ele>161.7</ele>
        <time>2020-06-07T15:13:48Z</time>
      </trkpt>
      <trkpt lat="47.97454" lon="-3.70869">
        <ele>161.8</ele>
        <time>2020-06-07T15:13:49Z</time>
      </trkpt>
      <trkpt lat="47.97457" lon="-3.70869">
        <ele>161.9</ele>
        <time>2020-06-07T15:13:50Z</time>
      </trkpt>
      <trkpt lat="47.9746" lon="-3.70868">
        <ele>162.1</ele>
        <time>2020-06-07T15:13:51Z</time>
      </trkpt>
      <trkpt lat="47.97463" lon="-3.70868">
        <ele>162.3</ele>
        <time>2020-06-07T15:13:52Z</time>
      </trkpt>
      <trkpt lat="47.97466" lon="-3.70867">
        <ele>162.4</ele>
        <time>2020-06-07T15:13:53Z</time>
      </trkpt>
      <trkpt lat="47.97469" lon="-3.70867">
        <ele>162.6</ele>
        <time>2020-06-07T15:13:54Z</time>
      </trkpt>
      <trkpt lat="47.97472" lon="-3.70865">
        <ele>162.8</ele>
        <time>2020-06-07T15:13:55Z</time>
      </trkpt>
      <trkpt lat="47.97476" lon="-3.70864">
        <ele>163</ele>
        <time>2020-06-07T15:13:56Z</time>
      </trkpt>
      <trkpt lat="47.97479" lon="-3.70864">
        <ele>163.1</ele>
        <time>2020-06-07T15:13:57Z</time>
      </trkpt>
      <trkpt lat="47.97482" lon="-3.70863">
        <ele>163.3</ele>
        <time>2020-06-07T15:13:58Z</time>
      </trkpt>
      <trkpt lat="47.97486" lon="-3.70861">
        <ele>163.5</ele>
        <time>2020-06-07T15:13:59Z</time>
      </trkpt>
      <trkpt lat="47.97487" lon="-3.7086">
        <ele>163.5</ele>
        <time>2020-06-07T15:14:00Z</time>
      </trkpt>
      <trkpt lat="47.97491" lon="-3.7086">
        <ele>163.7</ele>
        <time>2020-06-07T15:14:01Z</time>
      </trkpt>
      <trkpt lat="47.97495" lon="-3.7086">
        <ele>163.9</ele>
        <time>2020-06-07T15:14:02Z</time>
      </trkpt>
      <trkpt lat="47.97496" lon="-3.7086">
        <ele>163.9</ele>
        <time>2020-06-07T15:14:03Z</time>
      </trkpt>
      <trkpt lat="47.975" lon="-3.70859">
        <ele>164.1</ele>
        <time>2020-06-07T15:14:04Z</time>
      </trkpt>
      <trkpt lat="47.97501" lon="-3.70859">
        <ele>164.2</ele>
        <time>2020-06-07T15:14:05Z</time>
      </trkpt>
      <trkpt lat="47.97505" lon="-3.7086">
        <ele>164.4</ele>
        <time>2020-06-07T15:14:06Z</time>
      </trkpt>
      <trkpt lat="47.97508" lon="-3.7086">
        <ele>164.5</ele>
        <time>2020-06-07T15:14:07Z</time>
      </trkpt>
      <trkpt lat="47.97512" lon="-3.70861">
        <ele>164.7</ele>
        <time>2020-06-07T15:14:08Z</time>
      </trkpt>
      <trkpt lat="47.97514" lon="-3.7086">
        <ele>164.8</ele>
        <time>2020-06-07T15:14:09Z</time>
      </trkpt>
      <trkpt lat="47.97516" lon="-3.7086">
        <ele>164.9</ele>
        <time>2020-06-07T15:14:10Z</time>
      </trkpt>
      <trkpt lat="47.97519" lon="-3.70859">
        <ele>165</ele>
        <time>2020-06-07T15:14:11Z</time>
      </trkpt>
      <trkpt lat="47.97522" lon="-3.70857">
        <ele>165.2</ele>
        <time>2020-06-07T15:14:12Z</time>
      </trkpt>
      <trkpt lat="47.97523" lon="-3.70857">
        <ele>165.2</ele>
        <time>2020-06-07T15:14:13Z</time>
      </trkpt>
      <trkpt lat="47.97523" lon="-3.70856">
        <ele>165.2</ele>
        <time>2020-06-07T15:14:14Z</time>
      </trkpt>
      <trkpt lat="47.97524" lon="-3.70857">
        <ele>165.3</ele>
        <time>2020-06-07T15:14:15Z</time>
      </trkpt>
      <trkpt lat="47.97524" lon="-3.70856">
        <ele>165.3</ele>
        <time>2020-06-07T15:14:16Z</time>
      </trkpt>
      <trkpt lat="47.97523" lon="-3.70856">
        <ele>165.3</ele>
        <time>2020-06-07T15:14:17Z</time>
      </trkpt>
      <trkpt lat="47.97524" lon="-3.70856">
        <ele>165.3</ele>
        <time>2020-06-07T15:14:18Z</time>
      </trkpt>
      <trkpt lat="47.97524" lon="-3.70854">
        <ele>165.4</ele>
        <time>2020-06-07T15:14:19Z</time>
      </trkpt>
      <trkpt lat="47.97523" lon="-3.70854">
        <ele>165.4</ele>
        <time>2020-06-07T15:14:20Z</time>
      </trkpt>
      <trkpt lat="47.97524" lon="-3.70854">
        <ele>165.4</ele>
        <time>2020-06-07T15:14:21Z</time>
      </trkpt>
      <trkpt lat="47.97523" lon="-3.70854">
        <ele>165.4</ele>
        <time>2020-06-07T15:14:22Z</time>
      </trkpt>
      <trkpt lat="47.97523" lon="-3.70854">
        <ele>165.4</ele>
        <time>2020-06-07T15:14:23Z</time>
      </trkpt>
      <trkpt lat="47.97523" lon="-3.70854">
        <ele>165.4</ele>
        <time>2020-06-07T15:14:24Z</time>
      </trkpt>
      <trkpt lat="47.97524" lon="-3.70854">
        <ele>165.4</ele>
        <time>2020-06-07T15:14:25Z</time>
      </trkpt>
      <trkpt lat="47.97524" lon="-3.70854">
        <ele>165.4</ele>
        <time>2020-06-07T15:14:26Z</time>
      </trkpt>
      <trkpt lat="47.97528" lon="-3.70854">
        <ele>165.6</ele>
        <time>2020-06-07T15:17:55Z</time>
      </trkpt>
      <trkpt lat="47.97529" lon="-3.70854">
        <ele>165.6</ele>
        <time>2020-06-07T15:17:56Z</time>
      </trkpt>
      <trkpt lat="47.97531" lon="-3.70854">
        <ele>165.7</ele>
        <time>2020-06-07T15:17:57Z</time>
      </trkpt>
      <trkpt lat="47.97531" lon="-3.70853">
        <ele>165.7</ele>
        <time>2020-06-07T15:17:58Z</time>
      </trkpt>
      <trkpt lat="47.97532" lon="-3.70853">
        <ele>165.7</ele>
        <time>2020-06-07T15:17:59Z</time>
      </trkpt>
      <trkpt lat="47.97533" lon="-3.70853">
        <ele>165.8</ele>
        <time>2020-06-07T15:18:00Z</time>
      </trkpt>
      <trkpt lat="47.97533" lon="-3.70853">
        <ele>165.8</ele>
        <time>2020-06-07T15:18:01Z</time>
      </trkpt>
      <trkpt lat="47.97533" lon="-3.70853">
        <ele>165.8</ele>
        <time>2020-06-07T15:18:02Z</time>
      </trkpt>
      <trkpt lat="47.97533" lon="-3.70852">
        <ele>165.8</ele>
        <time>2020-06-07T15:18:03Z</time>
      </trkpt>
      <trkpt lat="47.97533" lon="-3.70852">
        <ele>165.8</ele>
        <time>2020-06-07T15:18:04Z</time>
      </trkpt>
      <trkpt lat="47.97533" lon="-3.70852">
        <ele>165.8</ele>
        <time>2020-06-07T15:18:05Z</time>
      </trkpt>
      <trkpt lat="47.97534" lon="-3.70853">
        <ele>165.9</ele>
        <time>2020-06-07T15:18:06Z</time>
      </trkpt>
      <trkpt lat="47.97535" lon="-3.70853">
        <ele>165.9</ele>
        <time>2020-06-07T15:18:07Z</time>
      </trkpt>
      <trkpt lat="47.97535" lon="-3.70853">
        <ele>165.9</ele>
        <time>2020-06-07T15:18:08Z</time>
      </trkpt>
      <trkpt lat="47.97534" lon="-3.70854">
        <ele>165.9</ele>
        <time>2020-06-07T15:18:09Z</time>
      </trkpt>
      <trkpt lat="47.97534" lon="-3.70854">
        <ele>165.9</ele>
        <time>2020-06-07T15:18:10Z</time>
      </trkpt>
      <trkpt lat="47.97534" lon="-3.70854">
        <ele>165.9</ele>
        <time>2020-06-07T15:18:11Z</time>
      </trkpt>
      <trkpt lat="47.97534" lon="-3.70854">
        <ele>166</ele>
        <time>2020-06-07T15:18:12Z</time>
      </trkpt>
      <trkpt lat="47.97533" lon="-3.70854">
        <ele>166</ele>
        <time>2020-06-07T15:18:13Z</time>
      </trkpt>
      <trkpt lat="47.97532" lon="-3.70854">
        <ele>166</ele>
        <time>2020-06-07T15:18:14Z</time>
      </trkpt>
      <trkpt lat="47.97532" lon="-3.70854">
        <ele>166</ele>
        <time>2020-06-07T15:18:15Z</time>
      </trkpt>
      <trkpt lat="47.97532" lon="-3.70855">
        <ele>166</ele>
        <time>2020-06-07T15:18:16Z</time>
      </trkpt>
      <trkpt lat="47.97532" lon="-3.70855">
        <ele>166.1</ele>
        <time>2020-06-07T15:18:17Z</time>
      </trkpt>
      <trkpt lat="47.97525" lon="-3.70859">
        <ele>166.3</ele>
        <time>2020-06-07T15:20:09Z</time>
      </trkpt>
      <trkpt lat="47.97524" lon="-3.70859">
        <ele>166.4</ele>
        <time>2020-06-07T15:20:10Z</time>
      </trkpt>
      <trkpt lat="47.97523" lon="-3.70859">
        <ele>166.4</ele>
        <time>2020-06-07T15:20:11Z</time>
      </trkpt>
      <trkpt lat="47.97524" lon="-3.70859">
        <ele>166.4</ele>
        <time>2020-06-07T15:20:12Z</time>
      </trkpt>
      <trkpt lat="47.97525" lon="-3.70859">
        <ele>166.5</ele>
        <time>2020-06-07T15:20:13Z</time>
      </trkpt>
      <trkpt lat="47.97526" lon="-3.70858">
        <ele>166.5</ele>
        <time>2020-06-07T15:20:14Z</time>
      </trkpt>
      <trkpt lat="47.97526" lon="-3.70858">
        <ele>166.5</ele>
        <time>2020-06-07T15:20:15Z</time>
      </trkpt>
      <trkpt lat="47.97527" lon="-3.70858">
        <ele>166.5</ele>
        <time>2020-06-07T15:20:16Z</time>
      </trkpt>
      <trkpt lat="47.97528" lon="-3.70857">
        <ele>166.6</ele>
        <time>2020-06-07T15:20:17Z</time>
      </trkpt>
      <trkpt lat="47.97528" lon="-3.70857">
        <ele>166.6</ele>
        <time>2020-06-07T15:20:18Z</time>
      </trkpt>
      <trkpt lat="47.97529" lon="-3.70856">
        <ele>166.6</ele>
        <time>2020-06-07T15:20:19Z</time>
      </trkpt>
      <trkpt lat="47.9753" lon="-3.70856">
        <ele>166.6</ele>
        <time>2020-06-07T15:20:20Z</time>
      </trkpt>
      <trkpt lat="47.97531" lon="-3.70856">
        <ele>166.7</ele>
        <time>2020-06-07T15:20:21Z</time>
      </trkpt>
      <trkpt lat="47.97531" lon="-3.70855">
        <ele>166.7</ele>
        <time>2020-06-07T15:21:32Z</time>
      </trkpt>
      <trkpt lat="47.97532" lon="-3.70855">
        <ele>166.7</ele>
        <time>2020-06-07T15:21:33Z</time>
      </trkpt>
      <trkpt lat="47.97536" lon="-3.70854">
        <ele>166.8</ele>
        <time>2020-06-07T15:21:34Z</time>
      </trkpt>
      <trkpt lat="47.9754" lon="-3.70854">
        <ele>166.9</ele>
        <time>2020-06-07T15:21:35Z</time>
      </trkpt>
      <trkpt lat="47.97544" lon="-3.70853">
        <ele>167.1</ele>
        <time>2020-06-07T15:21:36Z</time>
      </trkpt>
      <trkpt lat="47.97548" lon="-3.70851">
        <ele>167.2</ele>
        <time>2020-06-07T15:21:37Z</time>
      </trkpt>
      <trkpt lat="47.97552" lon="-3.7085">
        <ele>167.3</ele>
        <time>2020-06-07T15:21:38Z</time>
      </trkpt>
      <trkpt lat="47.97556" lon="-3.70849">
        <ele>167.4</ele>
        <time>2020-06-07T15:21:39Z</time>
      </trkpt>
      <trkpt lat="47.97561" lon="-3.70849">
        <ele>167.5</ele>
        <time>2020-06-07T15:21:40Z</time>
      </trkpt>
      <trkpt lat="47.97565" lon="-3.70848">
        <ele>167.7</ele>
        <time>2020-06-07T15:21:41Z</time>
      </trkpt>
      <trkpt lat="47.9757" lon="-3.70848">
        <ele>167.8</ele>
        <time>2020-06-07T15:21:42Z</time>
      </trkpt>
      <trkpt lat="47.97574" lon="-3.70847">
        <ele>167.9</ele>
        <time>2020-06-07T15:21:43Z</time>
      </trkpt>
      <trkpt lat="47.97578" lon="-3.70847">
        <ele>168</ele>
        <time>2020-06-07T15:21:44Z</time>
      </trkpt>
      <trkpt lat="47.97583" lon="-3.70846">
        <ele>168.1</ele>
        <time>2020-06-07T15:21:45Z</time>
      </trkpt>
      <trkpt lat="47.97588" lon="-3.70845">
        <ele>168.2</ele>
        <time>2020-06-07T15:21:46Z</time>
      </trkpt>
      <trkpt lat="47.97592" lon="-3.70844">
        <ele>168.4</ele>
        <time>2020-06-07T15:21:47Z</time>
      </trkpt>
      <trkpt lat="47.97597" lon="-3.70844">
        <ele>168.5</ele>
        <time>2020-06-07T15:21:48Z</time>
      </trkpt>
      <trkpt lat="47.97602" lon="-3.70843">
        <ele>168.6</ele>
        <time>2020-06-07T15:21:49Z</time>
      </trkpt>
      <trkpt lat="47.97606" lon="-3.70843">
        <ele>168.7</ele>
        <time>2020-06-07T15:21:50Z</time>
      </trkpt>
      <trkpt lat="47.9761" lon="-3.70843">
        <ele>168.8</ele>
        <time>2020-06-07T15:21:51Z</time>
      </trkpt>
      <trkpt lat="47.97614" lon="-3.70843">
        <ele>168.9</ele>
        <time>2020-06-07T15:21:52Z</time>
      </trkpt>
      <trkpt lat="47.97618" lon="-3.70842">
        <ele>168.9</ele>
        <time>2020-06-07T15:21:53Z</time>
      </trkpt>
      <trkpt lat="47.97622" lon="-3.70841">
        <ele>169</ele>
        <time>2020-06-07T15:21:54Z</time>
      </trkpt>
      <trkpt lat="47.97627" lon="-3.7084">
        <ele>169.1</ele>
        <time>2020-06-07T15:21:55Z</time>
      </trkpt>
      <trkpt lat="47.97631" lon="-3.7084">
        <ele>169.2</ele>
        <time>2020-06-07T15:21:56Z</time>
      </trkpt>
      <trkpt lat="47.97635" lon="-3.70839">
        <ele>169.3</ele>
        <time>2020-06-07T15:21:57Z</time>
      </trkpt>
      <trkpt lat="47.97639" lon="-3.70839">
        <ele>169.4</ele>
        <time>2020-06-07T15:21:58Z</time>
      </trkpt>
      <trkpt lat="47.97643" lon="-3.70839">
        <ele>169.4</ele>
        <time>2020-06-07T15:21:59Z</time>
      </trkpt>
      <trkpt lat="47.97647" lon="-3.70839">
        <ele>169.5</ele>
        <time>2020-06-07T15:22:00Z</time>
      </trkpt>
      <trkpt lat="47.97651" lon="-3.70839">
        <ele>169.6</ele>
        <time>2020-06-07T15:22:01Z</time>
      </trkpt>
      <trkpt lat="47.97655" lon="-3.70839">
        <ele>169.7</ele>
        <time>2020-06-07T15:22:02Z</time>
      </trkpt>
      <trkpt lat="47.9766" lon="-3.7084">
        <ele>169.8</ele>
        <time>2020-06-07T15:22:03Z</time>
      </trkpt>
      <trkpt lat="47.97663" lon="-3.7084">
        <ele>169.8</ele>
        <time>2020-06-07T15:22:04Z</time>
      </trkpt>
      <trkpt lat="47.97668" lon="-3.70841">
        <ele>169.9</ele>
        <time>2020-06-07T15:22:05Z</time>
      </trkpt>
      <trkpt lat="47.97671" lon="-3.70841">
        <ele>170</ele>
        <time>2020-06-07T15:22:06Z</time>
      </trkpt>
      <trkpt lat="47.97675" lon="-3.70842">
        <ele>170.1</ele>
        <time>2020-06-07T15:22:07Z</time>
      </trkpt>
      <trkpt lat="47.97679" lon="-3.70842">
        <ele>170.1</ele>
        <time>2020-06-07T15:22:08Z</time>
      </trkpt>
      <trkpt lat="47.97683" lon="-3.70843">
        <ele>170.2</ele>
        <time>2020-06-07T15:22:09Z</time>
      </trkpt>
      <trkpt lat="47.97688" lon="-3.70843">
        <ele>170.3</ele>
        <time>2020-06-07T15:22:10Z</time>
      </trkpt>
      <trkpt lat="47.97692" lon="-3.70845">
        <ele>170.4</ele>
        <time>2020-06-07T15:22:11Z</time>
      </trkpt>
      <trkpt lat="47.97696" lon="-3.70846">
        <ele>170.4</ele>
        <time>2020-06-07T15:22:12Z</time>
      </trkpt>
      <trkpt lat="47.977" lon="-3.70847">
        <ele>170.5</ele>
        <time>2020-06-07T15:22:13Z</time>
      </trkpt>
      <trkpt lat="47.97705" lon="-3.70848">
        <ele>170.5</ele>
        <time>2020-06-07T15:22:14Z</time>
      </trkpt>
      <trkpt lat="47.97709" lon="-3.70849">
        <ele>170.5</ele>
        <time>2020-06-07T15:22:15Z</time>
      </trkpt>
      <trkpt lat="47.97713" lon="-3.70851">
        <ele>170.6</ele>
        <time>2020-06-07T15:22:16Z</time>
      </trkpt>
      <trkpt lat="47.97718" lon="-3.70853">
        <ele>170.6</ele>
        <time>2020-06-07T15:22:17Z</time>
      </trkpt>
      <trkpt lat="47.97722" lon="-3.70855">
        <ele>170.7</ele>
        <time>2020-06-07T15:22:18Z</time>
      </trkpt>
      <trkpt lat="47.97726" lon="-3.70857">
        <ele>170.7</ele>
        <time>2020-06-07T15:22:19Z</time>
      </trkpt>
      <trkpt lat="47.9773" lon="-3.70859">
        <ele>170.7</ele>
        <time>2020-06-07T15:22:20Z</time>
      </trkpt>
      <trkpt lat="47.97734" lon="-3.70861">
        <ele>170.8</ele>
        <time>2020-06-07T15:22:21Z</time>
      </trkpt>
      <trkpt lat="47.97737" lon="-3.70863">
        <ele>170.8</ele>
        <time>2020-06-07T15:22:22Z</time>
      </trkpt>
      <trkpt lat="47.97741" lon="-3.70865">
        <ele>170.9</ele>
        <time>2020-06-07T15:22:23Z</time>
      </trkpt>
      <trkpt lat="47.97745" lon="-3.70868">
        <ele>170.9</ele>
        <time>2020-06-07T15:22:24Z</time>
      </trkpt>
      <trkpt lat="47.97749" lon="-3.70871">
        <ele>170.9</ele>
        <time>2020-06-07T15:22:25Z</time>
      </trkpt>
      <trkpt lat="47.97753" lon="-3.70873">
        <ele>170.9</ele>
        <time>2020-06-07T15:22:26Z</time>
      </trkpt>
      <trkpt lat="47.97757" lon="-3.70876">
        <ele>170.9</ele>
        <time>2020-06-07T15:22:27Z</time>
      </trkpt>
      <trkpt lat="47.97761" lon="-3.70878">
        <ele>170.9</ele>
        <time>2020-06-07T15:22:28Z</time>
      </trkpt>
      <trkpt lat="47.97766" lon="-3.70881">
        <ele>170.9</ele>
        <time>2020-06-07T15:22:29Z</time>
      </trkpt>
      <trkpt lat="47.9777" lon="-3.70884">
        <ele>170.9</ele>
        <time>2020-06-07T15:22:30Z</time>
      </trkpt>
      <trkpt lat="47.97774" lon="-3.70887">
        <ele>170.8</ele>
        <time>2020-06-07T15:22:31Z</time>
      </trkpt>
      <trkpt lat="47.97778" lon="-3.7089">
        <ele>170.8</ele>
        <time>2020-06-07T15:22:32Z</time>
      </trkpt>
      <trkpt lat="47.97781" lon="-3.70893">
        <ele>170.8</ele>
        <time>2020-06-07T15:22:33Z</time>
      </trkpt>
      <trkpt lat="47.97785" lon="-3.70896">
        <ele>170.7</ele>
        <time>2020-06-07T15:22:34Z</time>
      </trkpt>
      <trkpt lat="47.97788" lon="-3.709">
        <ele>170.7</ele>
        <time>2020-06-07T15:22:35Z</time>
      </trkpt>
      <trkpt lat="47.97791" lon="-3.70903">
        <ele>170.6</ele>
        <time>2020-06-07T15:22:36Z</time>
      </trkpt>
      <trkpt lat="47.97794" lon="-3.70907">
        <ele>170.6</ele>
        <time>2020-06-07T15:22:37Z</time>
      </trkpt>
      <trkpt lat="47.97797" lon="-3.7091">
        <ele>170.6</ele>
        <time>2020-06-07T15:22:38Z</time>
      </trkpt>
      <trkpt lat="47.97801" lon="-3.70913">
        <ele>170.5</ele>
        <time>2020-06-07T15:22:39Z</time>
      </trkpt>
      <trkpt lat="47.97805" lon="-3.70917">
        <ele>170.5</ele>
        <time>2020-06-07T15:22:40Z</time>
      </trkpt>
      <trkpt lat="47.97809" lon="-3.70921">
        <ele>170.5</ele>
        <time>2020-06-07T15:22:41Z</time>
      </trkpt>
      <trkpt lat="47.97813" lon="-3.70925">
        <ele>170.4</ele>
        <time>2020-06-07T15:22:42Z</time>
      </trkpt>
      <trkpt lat="47.97816" lon="-3.70929">
        <ele>170.4</ele>
        <time>2020-06-07T15:22:43Z</time>
      </trkpt>
      <trkpt lat="47.9782" lon="-3.70933">
        <ele>170.4</ele>
        <time>2020-06-07T15:22:44Z</time>
      </trkpt>
      <trkpt lat="47.97824" lon="-3.70938">
        <ele>170.4</ele>
        <time>2020-06-07T15:22:45Z</time>
      </trkpt>
      <trkpt lat="47.97828" lon="-3.70943">
        <ele>170.4</ele>
        <time>2020-06-07T15:22:46Z</time>
      </trkpt>
      <trkpt lat="47.97833" lon="-3.70948">
        <ele>170.4</ele>
        <time>2020-06-07T15:22:47Z</time>
      </trkpt>
      <trkpt lat="47.97837" lon="-3.70953">
        <ele>170.5</ele>
        <time>2020-06-07T15:22:48Z</time>
      </trkpt>
      <trkpt lat="47.9784" lon="-3.70958">
        <ele>170.5</ele>
        <time>2020-06-07T15:22:49Z</time>
      </trkpt>
      <trkpt lat="47.97844" lon="-3.70963">
        <ele>170.6</ele>
        <time>2020-06-07T15:22:50Z</time>
      </trkpt>
      <trkpt lat="47.97848" lon="-3.70968">
        <ele>170.6</ele>
        <time>2020-06-07T15:22:51Z</time>
      </trkpt>
      <trkpt lat="47.97851" lon="-3.70972">
        <ele>170.6</ele>
        <time>2020-06-07T15:22:52Z</time>
      </trkpt>
      <trkpt lat="47.97855" lon="-3.70976">
        <ele>170.7</ele>
        <time>2020-06-07T15:22:53Z</time>
      </trkpt>
      <trkpt lat="47.97859" lon="-3.70981">
        <ele>170.7</ele>
        <time>2020-06-07T15:22:54Z</time>
      </trkpt>
      <trkpt lat="47.97863" lon="-3.70985">
        <ele>170.8</ele>
        <time>2020-06-07T15:22:55Z</time>
      </trkpt>
      <trkpt lat="47.97867" lon="-3.7099">
        <ele>170.9</ele>
        <time>2020-06-07T15:22:56Z</time>
      </trkpt>
      <trkpt lat="47.9787" lon="-3.70994">
        <ele>170.9</ele>
        <time>2020-06-07T15:22:57Z</time>
      </trkpt>
      <trkpt lat="47.97873" lon="-3.70998">
        <ele>171</ele>
        <time>2020-06-07T15:22:58Z</time>
      </trkpt>
      <trkpt lat="47.97876" lon="-3.71002">
        <ele>171</ele>
        <time>2020-06-07T15:22:59Z</time>
      </trkpt>
      <trkpt lat="47.97879" lon="-3.71006">
        <ele>171.1</ele>
        <time>2020-06-07T15:23:00Z</time>
      </trkpt>
      <trkpt lat="47.97882" lon="-3.71009">
        <ele>171.1</ele>
        <time>2020-06-07T15:23:01Z</time>
      </trkpt>
      <trkpt lat="47.97885" lon="-3.71013">
        <ele>171.2</ele>
        <time>2020-06-07T15:23:02Z</time>
      </trkpt>
      <trkpt lat="47.97888" lon="-3.71017">
        <ele>171.3</ele>
        <time>2020-06-07T15:23:03Z</time>
      </trkpt>
      <trkpt lat="47.97892" lon="-3.7102">
        <ele>171.4</ele>
        <time>2020-06-07T15:23:04Z</time>
      </trkpt>
      <trkpt lat="47.97895" lon="-3.71025">
        <ele>171.5</ele>
        <time>2020-06-07T15:23:05Z</time>
      </trkpt>
      <trkpt lat="47.97898" lon="-3.71028">
        <ele>171.5</ele>
        <time>2020-06-07T15:23:06Z</time>
      </trkpt>
      <trkpt lat="47.979" lon="-3.71031">
        <ele>171.6</ele>
        <time>2020-06-07T15:23:07Z</time>
      </trkpt>
      <trkpt lat="47.97904" lon="-3.71035">
        <ele>171.7</ele>
        <time>2020-06-07T15:23:08Z</time>
      </trkpt>
      <trkpt lat="47.97907" lon="-3.71038">
        <ele>171.8</ele>
        <time>2020-06-07T15:23:09Z</time>
      </trkpt>
      <trkpt lat="47.9791" lon="-3.71042">
        <ele>171.9</ele>
        <time>2020-06-07T15:23:10Z</time>
      </trkpt>
      <trkpt lat="47.97913" lon="-3.71046">
        <ele>171.9</ele>
        <time>2020-06-07T15:23:11Z</time>
      </trkpt>
      <trkpt lat="47.97915" lon="-3.71049">
        <ele>172</ele>
        <time>2020-06-07T15:23:12Z</time>
      </trkpt>
      <trkpt lat="47.97918" lon="-3.71053">
        <ele>172.1</ele>
        <time>2020-06-07T15:23:13Z</time>
      </trkpt>
      <trkpt lat="47.97921" lon="-3.71056">
        <ele>172.2</ele>
        <time>2020-06-07T15:23:14Z</time>
      </trkpt>
      <trkpt lat="47.97924" lon="-3.7106">
        <ele>172.3</ele>
        <time>2020-06-07T15:23:15Z</time>
      </trkpt>
      <trkpt lat="47.97929" lon="-3.71064">
        <ele>172.4</ele>
        <time>2020-06-07T15:23:16Z</time>
      </trkpt>
      <trkpt lat="47.97933" lon="-3.71068">
        <ele>172.5</ele>
        <time>2020-06-07T15:23:17Z</time>
      </trkpt>
      <trkpt lat="47.97937" lon="-3.71073">
        <ele>172.6</ele>
        <time>2020-06-07T15:23:18Z</time>
      </trkpt>
      <trkpt lat="47.9794" lon="-3.71076">
        <ele>172.7</ele>
        <time>2020-06-07T15:23:19Z</time>
      </trkpt>
      <trkpt lat="47.97945" lon="-3.7108">
        <ele>172.9</ele>
        <time>2020-06-07T15:23:20Z</time>
      </trkpt>
      <trkpt lat="47.97948" lon="-3.71083">
        <ele>173.2</ele>
        <time>2020-06-07T15:23:21Z</time>
      </trkpt>
      <trkpt lat="47.97953" lon="-3.71085">
        <ele>173.4</ele>
        <time>2020-06-07T15:23:22Z</time>
      </trkpt>
      <trkpt lat="47.97956" lon="-3.71089">
        <ele>173.5</ele>
        <time>2020-06-07T15:23:23Z</time>
      </trkpt>
      <trkpt lat="47.97959" lon="-3.71093">
        <ele>173.7</ele>
        <time>2020-06-07T15:23:24Z</time>
      </trkpt>
      <trkpt lat="47.97961" lon="-3.71097">
        <ele>173.8</ele>
        <time>2020-06-07T15:23:25Z</time>
      </trkpt>
      <trkpt lat="47.97965" lon="-3.711">
        <ele>173.9</ele>
        <time>2020-06-07T15:23:26Z</time>
      </trkpt>
      <trkpt lat="47.97968" lon="-3.71104">
        <ele>174.1</ele>
        <time>2020-06-07T15:23:27Z</time>
      </trkpt>
      <trkpt lat="47.97973" lon="-3.71107">
        <ele>174.2</ele>
        <time>2020-06-07T15:23:28Z</time>
      </trkpt>
      <trkpt lat="47.97976" lon="-3.71108">
        <ele>174.2</ele>
        <time>2020-06-07T15:23:29Z</time>
      </trkpt>
      <trkpt lat="47.9798" lon="-3.71109">
        <ele>174.3</ele>
        <time>2020-06-07T15:23:30Z</time>
      </trkpt>
      <trkpt lat="47.97984" lon="-3.71112">
        <ele>174.4</ele>
        <time>2020-06-07T15:23:31Z</time>
      </trkpt>
      <trkpt lat="47.97988" lon="-3.71114">
        <ele>174.4</ele>
        <time>2020-06-07T15:23:32Z</time>
      </trkpt>
      <trkpt lat="47.97992" lon="-3.71117">
        <ele>174.5</ele>
        <time>2020-06-07T15:23:33Z</time>
      </trkpt>
      <trkpt lat="47.97995" lon="-3.7112">
        <ele>174.5</ele>
        <time>2020-06-07T15:23:34Z</time>
      </trkpt>
      <trkpt lat="47.97999" lon="-3.71122">
        <ele>174.6</ele>
        <time>2020-06-07T15:23:35Z</time>
      </trkpt>
      <trkpt lat="47.98002" lon="-3.71123">
        <ele>174.6</ele>
        <time>2020-06-07T15:23:36Z</time>
      </trkpt>
      <trkpt lat="47.98005" lon="-3.71124">
        <ele>174.6</ele>
        <time>2020-06-07T15:23:37Z</time>
      </trkpt>
      <trkpt lat="47.98009" lon="-3.71126">
        <ele>174.7</ele>
        <time>2020-06-07T15:23:38Z</time>
      </trkpt>
      <trkpt lat="47.98013" lon="-3.71127">
        <ele>174.7</ele>
        <time>2020-06-07T15:23:39Z</time>
      </trkpt>
      <trkpt lat="47.98019" lon="-3.71127">
        <ele>174.7</ele>
        <time>2020-06-07T15:23:40Z</time>
      </trkpt>
      <trkpt lat="47.98023" lon="-3.71129">
        <ele>174.7</ele>
        <time>2020-06-07T15:23:41Z</time>
      </trkpt>
      <trkpt lat="47.98027" lon="-3.71131">
        <ele>174.7</ele>
        <time>2020-06-07T15:23:42Z</time>
      </trkpt>
      <trkpt lat="47.98031" lon="-3.71134">
        <ele>174.7</ele>
        <time>2020-06-07T15:23:43Z</time>
      </trkpt>
      <trkpt lat="47.98036" lon="-3.71135">
        <ele>174.7</ele>
        <time>2020-06-07T15:23:44Z</time>
      </trkpt>
      <trkpt lat="47.9804" lon="-3.71137">
        <ele>174.7</ele>
        <time>2020-06-07T15:23:45Z</time>
      </trkpt>
      <trkpt lat="47.98043" lon="-3.71139">
        <ele>174.7</ele>
        <time>2020-06-07T15:23:46Z</time>
      </trkpt>
      <trkpt lat="47.98047" lon="-3.71141">
        <ele>174.6</ele>
        <time>2020-06-07T15:23:47Z</time>
      </trkpt>
      <trkpt lat="47.9805" lon="-3.71144">
        <ele>174.6</ele>
        <time>2020-06-07T15:23:48Z</time>
      </trkpt>
      <trkpt lat="47.98055" lon="-3.71145">
        <ele>174.6</ele>
        <time>2020-06-07T15:23:49Z</time>
      </trkpt>
      <trkpt lat="47.98059" lon="-3.71146">
        <ele>174.6</ele>
        <time>2020-06-07T15:23:50Z</time>
      </trkpt>
      <trkpt lat="47.98064" lon="-3.71148">
        <ele>174.5</ele>
        <time>2020-06-07T15:23:51Z</time>
      </trkpt>
      <trkpt lat="47.98068" lon="-3.71148">
        <ele>174.5</ele>
        <time>2020-06-07T15:23:52Z</time>
      </trkpt>
      <trkpt lat="47.98072" lon="-3.71149">
        <ele>174.5</ele>
        <time>2020-06-07T15:23:53Z</time>
      </trkpt>
      <trkpt lat="47.98077" lon="-3.7115">
        <ele>174.4</ele>
        <time>2020-06-07T15:23:54Z</time>
      </trkpt>
      <trkpt lat="47.98081" lon="-3.71152">
        <ele>174.4</ele>
        <time>2020-06-07T15:23:55Z</time>
      </trkpt>
      <trkpt lat="47.98086" lon="-3.71153">
        <ele>174.3</ele>
        <time>2020-06-07T15:23:56Z</time>
      </trkpt>
      <trkpt lat="47.9809" lon="-3.71154">
        <ele>174.3</ele>
        <time>2020-06-07T15:23:57Z</time>
      </trkpt>
      <trkpt lat="47.98095" lon="-3.71155">
        <ele>174.2</ele>
        <time>2020-06-07T15:23:58Z</time>
      </trkpt>
      <trkpt lat="47.98101" lon="-3.71157">
        <ele>174.1</ele>
        <time>2020-06-07T15:23:59Z</time>
      </trkpt>
      <trkpt lat="47.98106" lon="-3.71158">
        <ele>174</ele>
        <time>2020-06-07T15:24:00Z</time>
      </trkpt>
      <trkpt lat="47.9811" lon="-3.7116">
        <ele>173.9</ele>
        <time>2020-06-07T15:24:01Z</time>
      </trkpt>
      <trkpt lat="47.98115" lon="-3.7116">
        <ele>173.8</ele>
        <time>2020-06-07T15:24:02Z</time>
      </trkpt>
      <trkpt lat="47.9812" lon="-3.71162">
        <ele>173.7</ele>
        <time>2020-06-07T15:24:03Z</time>
      </trkpt>
      <trkpt lat="47.98126" lon="-3.71164">
        <ele>173.5</ele>
        <time>2020-06-07T15:24:04Z</time>
      </trkpt>
      <trkpt lat="47.98131" lon="-3.71165">
        <ele>173.4</ele>
        <time>2020-06-07T15:24:05Z</time>
      </trkpt>
      <trkpt lat="47.98136" lon="-3.71167">
        <ele>173.2</ele>
        <time>2020-06-07T15:24:06Z</time>
      </trkpt>
      <trkpt lat="47.98141" lon="-3.71169">
        <ele>173</ele>
        <time>2020-06-07T15:24:07Z</time>
      </trkpt>
      <trkpt lat="47.98145" lon="-3.71172">
        <ele>172.9</ele>
        <time>2020-06-07T15:24:08Z</time>
      </trkpt>
      <trkpt lat="47.9815" lon="-3.71174">
        <ele>172.7</ele>
        <time>2020-06-07T15:24:09Z</time>
      </trkpt>
      <trkpt lat="47.98155" lon="-3.71176">
        <ele>172.5</ele>
        <time>2020-06-07T15:24:10Z</time>
      </trkpt>
      <trkpt lat="47.9816" lon="-3.71177">
        <ele>172.3</ele>
        <time>2020-06-07T15:24:11Z</time>
      </trkpt>
      <trkpt lat="47.98166" lon="-3.71179">
        <ele>172</ele>
        <time>2020-06-07T15:24:12Z</time>
      </trkpt>
      <trkpt lat="47.98172" lon="-3.71181">
        <ele>171.8</ele>
        <time>2020-06-07T15:24:13Z</time>
      </trkpt>
      <trkpt lat="47.98178" lon="-3.71183">
        <ele>171.6</ele>
        <time>2020-06-07T15:24:14Z</time>
      </trkpt>
      <trkpt lat="47.98184" lon="-3.71186">
        <ele>171.3</ele>
        <time>2020-06-07T15:24:15Z</time>
      </trkpt>
      <trkpt lat="47.9819" lon="-3.71188">
        <ele>171</ele>
        <time>2020-06-07T15:24:16Z</time>
      </trkpt>
      <trkpt lat="47.98196" lon="-3.7119">
        <ele>170.8</ele>
        <time>2020-06-07T15:24:17Z</time>
      </trkpt>
      <trkpt lat="47.98203" lon="-3.71192">
        <ele>170.4</ele>
        <time>2020-06-07T15:24:18Z</time>
      </trkpt>
      <trkpt lat="47.98211" lon="-3.71195">
        <ele>170</ele>
        <time>2020-06-07T15:24:19Z</time>
      </trkpt>
      <trkpt lat="47.98218" lon="-3.71199">
        <ele>169.6</ele>
        <time>2020-06-07T15:24:20Z</time>
      </trkpt>
      <trkpt lat="47.98225" lon="-3.71203">
        <ele>169.2</ele>
        <time>2020-06-07T15:24:21Z</time>
      </trkpt>
      <trkpt lat="47.98232" lon="-3.71208">
        <ele>168.8</ele>
        <time>2020-06-07T15:24:22Z</time>
      </trkpt>
      <trkpt lat="47.9824" lon="-3.71212">
        <ele>168.4</ele>
        <time>2020-06-07T15:24:23Z</time>
      </trkpt>
      <trkpt lat="47.98246" lon="-3.71216">
        <ele>168</ele>
        <time>2020-06-07T15:24:24Z</time>
      </trkpt>
      <trkpt lat="47.98253" lon="-3.71221">
        <ele>167.5</ele>
        <time>2020-06-07T15:24:25Z</time>
      </trkpt>
      <trkpt lat="47.98261" lon="-3.71225">
        <ele>166.9</ele>
        <time>2020-06-07T15:24:26Z</time>
      </trkpt>
      <trkpt lat="47.98267" lon="-3.7123">
        <ele>166.4</ele>
        <time>2020-06-07T15:24:27Z</time>
      </trkpt>
      <trkpt lat="47.98274" lon="-3.71235">
        <ele>165.8</ele>
        <time>2020-06-07T15:24:28Z</time>
      </trkpt>
      <trkpt lat="47.98282" lon="-3.7124">
        <ele>165.3</ele>
        <time>2020-06-07T15:24:29Z</time>
      </trkpt>
      <trkpt lat="47.98289" lon="-3.71245">
        <ele>164.8</ele>
        <time>2020-06-07T15:24:30Z</time>
      </trkpt>
      <trkpt lat="47.98296" lon="-3.7125">
        <ele>164.3</ele>
        <time>2020-06-07T15:24:31Z</time>
      </trkpt>
      <trkpt lat="47.98303" lon="-3.71255">
        <ele>163.9</ele>
        <time>2020-06-07T15:24:32Z</time>
      </trkpt>
      <trkpt lat="47.9831" lon="-3.71261">
        <ele>163.4</ele>
        <time>2020-06-07T15:24:33Z</time>
      </trkpt>
      <trkpt lat="47.98317" lon="-3.71266">
        <ele>162.9</ele>
        <time>2020-06-07T15:24:34Z</time>
      </trkpt>
      <trkpt lat="47.98324" lon="-3.71272">
        <ele>162.4</ele>
        <time>2020-06-07T15:24:35Z</time>
      </trkpt>
      <trkpt lat="47.9833" lon="-3.71278">
        <ele>161.9</ele>
        <time>2020-06-07T15:24:36Z</time>
      </trkpt>
      <trkpt lat="47.98336" lon="-3.71283">
        <ele>161.5</ele>
        <time>2020-06-07T15:24:37Z</time>
      </trkpt>
      <trkpt lat="47.98342" lon="-3.71289">
        <ele>161</ele>
        <time>2020-06-07T15:24:38Z</time>
      </trkpt>
      <trkpt lat="47.98349" lon="-3.71295">
        <ele>160.6</ele>
        <time>2020-06-07T15:24:39Z</time>
      </trkpt>
      <trkpt lat="47.98356" lon="-3.71301">
        <ele>160.1</ele>
        <time>2020-06-07T15:24:40Z</time>
      </trkpt>
      <trkpt lat="47.98362" lon="-3.71308">
        <ele>159.7</ele>
        <time>2020-06-07T15:24:41Z</time>
      </trkpt>
      <trkpt lat="47.98369" lon="-3.71314">
        <ele>159.3</ele>
        <time>2020-06-07T15:24:42Z</time>
      </trkpt>
      <trkpt lat="47.98375" lon="-3.7132">
        <ele>159</ele>
        <time>2020-06-07T15:24:43Z</time>
      </trkpt>
      <trkpt lat="47.98381" lon="-3.71327">
        <ele>158.7</ele>
        <time>2020-06-07T15:24:44Z</time>
      </trkpt>
      <trkpt lat="47.98387" lon="-3.71334">
        <ele>158.4</ele>
        <time>2020-06-07T15:24:45Z</time>
      </trkpt>
      <trkpt lat="47.98393" lon="-3.71341">
        <ele>158.2</ele>
        <time>2020-06-07T15:24:46Z</time>
      </trkpt>
      <trkpt lat="47.98399" lon="-3.71347">
        <ele>158.1</ele>
        <time>2020-06-07T15:24:47Z</time>
      </trkpt>
      <trkpt lat="47.98404" lon="-3.71354">
        <ele>157.9</ele>
        <time>2020-06-07T15:24:48Z</time>
      </trkpt>
      <trkpt lat="47.9841" lon="-3.7136">
        <ele>157.8</ele>
        <time>2020-06-07T15:24:49Z</time>
      </trkpt>
      <trkpt lat="47.98415" lon="-3.71366">
        <ele>157.7</ele>
        <time>2020-06-07T15:24:50Z</time>
      </trkpt>
      <trkpt lat="47.98421" lon="-3.71373">
        <ele>157.5</ele>
        <time>2020-06-07T15:24:51Z</time>
      </trkpt>
      <trkpt lat="47.98426" lon="-3.71379">
        <ele>157.4</ele>
        <time>2020-06-07T15:24:52Z</time>
      </trkpt>
      <trkpt lat="47.98431" lon="-3.71386">
        <ele>157.3</ele>
        <time>2020-06-07T15:24:53Z</time>
      </trkpt>
      <trkpt lat="47.98437" lon="-3.71392">
        <ele>157.3</ele>
        <time>2020-06-07T15:24:54Z</time>
      </trkpt>
      <trkpt lat="47.98442" lon="-3.71399">
        <ele>157.2</ele>
        <time>2020-06-07T15:24:55Z</time>
      </trkpt>
      <trkpt lat="47.98448" lon="-3.71406">
        <ele>157.2</ele>
        <time>2020-06-07T15:24:56Z</time>
      </trkpt>
      <trkpt lat="47.98454" lon="-3.71414">
        <ele>157.1</ele>
        <time>2020-06-07T15:24:57Z</time>
      </trkpt>
      <trkpt lat="47.9846" lon="-3.7142">
        <ele>157.1</ele>
        <time>2020-06-07T15:24:58Z</time>
      </trkpt>
      <trkpt lat="47.98466" lon="-3.71427">
        <ele>157.1</ele>
        <time>2020-06-07T15:24:59Z</time>
      </trkpt>
      <trkpt lat="47.98471" lon="-3.71434">
        <ele>157.1</ele>
        <time>2020-06-07T15:25:00Z</time>
      </trkpt>
      <trkpt lat="47.98476" lon="-3.71442">
        <ele>157.1</ele>
        <time>2020-06-07T15:25:01Z</time>
      </trkpt>
      <trkpt lat="47.98482" lon="-3.71449">
        <ele>157.2</ele>
        <time>2020-06-07T15:25:02Z</time>
      </trkpt>
      <trkpt lat="47.98487" lon="-3.71457">
        <ele>157.2</ele>
        <time>2020-06-07T15:25:03Z</time>
      </trkpt>
      <trkpt lat="47.98492" lon="-3.71464">
        <ele>157.3</ele>
        <time>2020-06-07T15:25:04Z</time>
      </trkpt>
      <trkpt lat="47.98498" lon="-3.7147">
        <ele>157.3</ele>
        <time>2020-06-07T15:25:05Z</time>
      </trkpt>
      <trkpt lat="47.98504" lon="-3.71476">
        <ele>157.4</ele>
        <time>2020-06-07T15:25:06Z</time>
      </trkpt>
      <trkpt lat="47.98509" lon="-3.71484">
        <ele>157.5</ele>
        <time>2020-06-07T15:25:07Z</time>
      </trkpt>
      <trkpt lat="47.98514" lon="-3.71491">
        <ele>157.6</ele>
        <time>2020-06-07T15:25:08Z</time>
      </trkpt>
      <trkpt lat="47.98519" lon="-3.71497">
        <ele>157.6</ele>
        <time>2020-06-07T15:25:09Z</time>
      </trkpt>
      <trkpt lat="47.98524" lon="-3.71503">
        <ele>157.8</ele>
        <time>2020-06-07T15:25:10Z</time>
      </trkpt>
      <trkpt lat="47.98529" lon="-3.71508">
        <ele>157.9</ele>
        <time>2020-06-07T15:25:11Z</time>
      </trkpt>
      <trkpt lat="47.98534" lon="-3.71513">
        <ele>158.1</ele>
        <time>2020-06-07T15:25:12Z</time>
      </trkpt>
      <trkpt lat="47.98539" lon="-3.71519">
        <ele>158.2</ele>
        <time>2020-06-07T15:25:13Z</time>
      </trkpt>
      <trkpt lat="47.98544" lon="-3.71524">
        <ele>158.4</ele>
        <time>2020-06-07T15:25:14Z</time>
      </trkpt>
      <trkpt lat="47.98548" lon="-3.71528">
        <ele>158.5</ele>
        <time>2020-06-07T15:25:15Z</time>
      </trkpt>
      <trkpt lat="47.98553" lon="-3.71532">
        <ele>158.7</ele>
        <time>2020-06-07T15:25:16Z</time>
      </trkpt>
      <trkpt lat="47.98557" lon="-3.71535">
        <ele>158.9</ele>
        <time>2020-06-07T15:25:17Z</time>
      </trkpt>
      <trkpt lat="47.98561" lon="-3.71539">
        <ele>159</ele>
        <time>2020-06-07T15:25:18Z</time>
      </trkpt>
      <trkpt lat="47.98565" lon="-3.71542">
        <ele>159.2</ele>
        <time>2020-06-07T15:25:19Z</time>
      </trkpt>
      <trkpt lat="47.98569" lon="-3.71545">
        <ele>159.4</ele>
        <time>2020-06-07T15:25:20Z</time>
      </trkpt>
      <trkpt lat="47.98574" lon="-3.7155">
        <ele>159.7</ele>
        <time>2020-06-07T15:25:21Z</time>
      </trkpt>
      <trkpt lat="47.98578" lon="-3.71554">
        <ele>159.9</ele>
        <time>2020-06-07T15:25:22Z</time>
      </trkpt>
      <trkpt lat="47.98582" lon="-3.71559">
        <ele>160.2</ele>
        <time>2020-06-07T15:25:23Z</time>
      </trkpt>
      <trkpt lat="47.98587" lon="-3.71563">
        <ele>160.5</ele>
        <time>2020-06-07T15:25:24Z</time>
      </trkpt>
      <trkpt lat="47.98591" lon="-3.71566">
        <ele>160.7</ele>
        <time>2020-06-07T15:25:25Z</time>
      </trkpt>
      <trkpt lat="47.98595" lon="-3.71569">
        <ele>160.9</ele>
        <time>2020-06-07T15:25:26Z</time>
      </trkpt>
      <trkpt lat="47.98599" lon="-3.71572">
        <ele>161.1</ele>
        <time>2020-06-07T15:25:27Z</time>
      </trkpt>
      <trkpt lat="47.98603" lon="-3.71575">
        <ele>161.3</ele>
        <time>2020-06-07T15:25:28Z</time>
      </trkpt>
      <trkpt lat="47.98606" lon="-3.71578">
        <ele>161.5</ele>
        <time>2020-06-07T15:25:29Z</time>
      </trkpt>
      <trkpt lat="47.9861" lon="-3.71582">
        <ele>161.7</ele>
        <time>2020-06-07T15:25:30Z</time>
      </trkpt>
      <trkpt lat="47.98614" lon="-3.71585">
        <ele>161.9</ele>
        <time>2020-06-07T15:25:31Z</time>
      </trkpt>
      <trkpt lat="47.98617" lon="-3.71588">
        <ele>162.1</ele>
        <time>2020-06-07T15:25:32Z</time>
      </trkpt>
      <trkpt lat="47.9862" lon="-3.71591">
        <ele>162.3</ele>
        <time>2020-06-07T15:25:33Z</time>
      </trkpt>
      <trkpt lat="47.98623" lon="-3.71594">
        <ele>162.5</ele>
        <time>2020-06-07T15:25:34Z</time>
      </trkpt>
      <trkpt lat="47.98626" lon="-3.71598">
        <ele>162.7</ele>
        <time>2020-06-07T15:25:35Z</time>
      </trkpt>
      <trkpt lat="47.9863" lon="-3.716">
        <ele>162.9</ele>
        <time>2020-06-07T15:25:36Z</time>
      </trkpt>
      <trkpt lat="47.98634" lon="-3.71603">
        <ele>163.1</ele>
        <time>2020-06-07T15:25:37Z</time>
      </trkpt>
      <trkpt lat="47.98637" lon="-3.71606">
        <ele>163.3</ele>
        <time>2020-06-07T15:25:38Z</time>
      </trkpt>
      <trkpt lat="47.9864" lon="-3.7161">
        <ele>163.5</ele>
        <time>2020-06-07T15:25:39Z</time>
      </trkpt>
      <trkpt lat="47.98643" lon="-3.71613">
        <ele>163.8</ele>
        <time>2020-06-07T15:25:40Z</time>
      </trkpt>
      <trkpt lat="47.98647" lon="-3.71617">
        <ele>164</ele>
        <time>2020-06-07T15:25:41Z</time>
      </trkpt>
      <trkpt lat="47.98651" lon="-3.7162">
        <ele>164.2</ele>
        <time>2020-06-07T15:25:42Z</time>
      </trkpt>
      <trkpt lat="47.98654" lon="-3.71624">
        <ele>164.4</ele>
        <time>2020-06-07T15:25:43Z</time>
      </trkpt>
      <trkpt lat="47.98658" lon="-3.71627">
        <ele>164.6</ele>
        <time>2020-06-07T15:25:44Z</time>
      </trkpt>
      <trkpt lat="47.98661" lon="-3.71631">
        <ele>164.8</ele>
        <time>2020-06-07T15:25:45Z</time>
      </trkpt>
      <trkpt lat="47.98665" lon="-3.71634">
        <ele>164.9</ele>
        <time>2020-06-07T15:25:46Z</time>
      </trkpt>
      <trkpt lat="47.98669" lon="-3.71637">
        <ele>165.1</ele>
        <time>2020-06-07T15:25:47Z</time>
      </trkpt>
      <trkpt lat="47.98672" lon="-3.71641">
        <ele>165.2</ele>
        <time>2020-06-07T15:25:48Z</time>
      </trkpt>
      <trkpt lat="47.98675" lon="-3.71644">
        <ele>165.4</ele>
        <time>2020-06-07T15:25:49Z</time>
      </trkpt>
      <trkpt lat="47.98679" lon="-3.71648">
        <ele>165.5</ele>
        <time>2020-06-07T15:25:50Z</time>
      </trkpt>
      <trkpt lat="47.98683" lon="-3.71651">
        <ele>165.6</ele>
        <time>2020-06-07T15:25:51Z</time>
      </trkpt>
      <trkpt lat="47.98687" lon="-3.71654">
        <ele>165.6</ele>
        <time>2020-06-07T15:25:52Z</time>
      </trkpt>
      <trkpt lat="47.98692" lon="-3.71656">
        <ele>165.5</ele>
        <time>2020-06-07T15:25:53Z</time>
      </trkpt>
      <trkpt lat="47.98696" lon="-3.71659">
        <ele>165.2</ele>
        <time>2020-06-07T15:25:54Z</time>
      </trkpt>
      <trkpt lat="47.98699" lon="-3.71663">
        <ele>165.4</ele>
        <time>2020-06-07T15:25:55Z</time>
      </trkpt>
      <trkpt lat="47.98703" lon="-3.71667">
        <ele>165.5</ele>
        <time>2020-06-07T15:25:56Z</time>
      </trkpt>
      <trkpt lat="47.98707" lon="-3.71671">
        <ele>165.6</ele>
        <time>2020-06-07T15:25:57Z</time>
      </trkpt>
      <trkpt lat="47.9871" lon="-3.71675">
        <ele>165.7</ele>
        <time>2020-06-07T15:25:58Z</time>
      </trkpt>
      <trkpt lat="47.98713" lon="-3.71678">
        <ele>165.8</ele>
        <time>2020-06-07T15:25:59Z</time>
      </trkpt>
      <trkpt lat="47.98716" lon="-3.71682">
        <ele>165.9</ele>
        <time>2020-06-07T15:26:00Z</time>
      </trkpt>
      <trkpt lat="47.9872" lon="-3.71686">
        <ele>166</ele>
        <time>2020-06-07T15:26:01Z</time>
      </trkpt>
      <trkpt lat="47.98723" lon="-3.71689">
        <ele>166.1</ele>
        <time>2020-06-07T15:26:02Z</time>
      </trkpt>
      <trkpt lat="47.98727" lon="-3.71692">
        <ele>166.2</ele>
        <time>2020-06-07T15:26:03Z</time>
      </trkpt>
      <trkpt lat="47.9873" lon="-3.71695">
        <ele>166.2</ele>
        <time>2020-06-07T15:26:04Z</time>
      </trkpt>
      <trkpt lat="47.98733" lon="-3.71697">
        <ele>166.3</ele>
        <time>2020-06-07T15:26:05Z</time>
      </trkpt>
      <trkpt lat="47.98736" lon="-3.717">
        <ele>166.3</ele>
        <time>2020-06-07T15:26:06Z</time>
      </trkpt>
      <trkpt lat="47.98738" lon="-3.71703">
        <ele>166.4</ele>
        <time>2020-06-07T15:26:07Z</time>
      </trkpt>
      <trkpt lat="47.98741" lon="-3.71705">
        <ele>166.4</ele>
        <time>2020-06-07T15:26:08Z</time>
      </trkpt>
      <trkpt lat="47.98744" lon="-3.71708">
        <ele>166.4</ele>
        <time>2020-06-07T15:26:09Z</time>
      </trkpt>
      <trkpt lat="47.98747" lon="-3.71712">
        <ele>166.5</ele>
        <time>2020-06-07T15:26:10Z</time>
      </trkpt>
      <trkpt lat="47.98751" lon="-3.71715">
        <ele>166.5</ele>
        <time>2020-06-07T15:26:11Z</time>
      </trkpt>
      <trkpt lat="47.98755" lon="-3.71719">
        <ele>166.5</ele>
        <time>2020-06-07T15:26:12Z</time>
      </trkpt>
      <trkpt lat="47.9876" lon="-3.71722">
        <ele>166.6</ele>
        <time>2020-06-07T15:26:13Z</time>
      </trkpt>
      <trkpt lat="47.98764" lon="-3.71726">
        <ele>166.7</ele>
        <time>2020-06-07T15:26:14Z</time>
      </trkpt>
      <trkpt lat="47.98768" lon="-3.7173">
        <ele>166.8</ele>
        <time>2020-06-07T15:26:15Z</time>
      </trkpt>
      <trkpt lat="47.98771" lon="-3.71733">
        <ele>166.9</ele>
        <time>2020-06-07T15:26:16Z</time>
      </trkpt>
      <trkpt lat="47.98774" lon="-3.71736">
        <ele>167</ele>
        <time>2020-06-07T15:26:17Z</time>
      </trkpt>
      <trkpt lat="47.98777" lon="-3.7174">
        <ele>167.1</ele>
        <time>2020-06-07T15:26:18Z</time>
      </trkpt>
      <trkpt lat="47.98781" lon="-3.71742">
        <ele>167.2</ele>
        <time>2020-06-07T15:26:19Z</time>
      </trkpt>
      <trkpt lat="47.98786" lon="-3.71746">
        <ele>167.2</ele>
        <time>2020-06-07T15:26:20Z</time>
      </trkpt>
      <trkpt lat="47.9879" lon="-3.71749">
        <ele>167.3</ele>
        <time>2020-06-07T15:26:21Z</time>
      </trkpt>
      <trkpt lat="47.98794" lon="-3.71753">
        <ele>167.3</ele>
        <time>2020-06-07T15:26:22Z</time>
      </trkpt>
      <trkpt lat="47.98798" lon="-3.71757">
        <ele>167.3</ele>
        <time>2020-06-07T15:26:23Z</time>
      </trkpt>
      <trkpt lat="47.98804" lon="-3.71762">
        <ele>167.4</ele>
        <time>2020-06-07T15:26:24Z</time>
      </trkpt>
      <trkpt lat="47.98808" lon="-3.71764">
        <ele>167.4</ele>
        <time>2020-06-07T15:26:25Z</time>
      </trkpt>
      <trkpt lat="47.98812" lon="-3.71768">
        <ele>167.5</ele>
        <time>2020-06-07T15:26:26Z</time>
      </trkpt>
      <trkpt lat="47.98815" lon="-3.71773">
        <ele>167.5</ele>
        <time>2020-06-07T15:26:27Z</time>
      </trkpt>
      <trkpt lat="47.98818" lon="-3.71775">
        <ele>167.6</ele>
        <time>2020-06-07T15:26:28Z</time>
      </trkpt>
      <trkpt lat="47.98821" lon="-3.71777">
        <ele>167.7</ele>
        <time>2020-06-07T15:26:29Z</time>
      </trkpt>
      <trkpt lat="47.98825" lon="-3.71781">
        <ele>167.7</ele>
        <time>2020-06-07T15:26:30Z</time>
      </trkpt>
      <trkpt lat="47.98829" lon="-3.71784">
        <ele>167.8</ele>
        <time>2020-06-07T15:26:31Z</time>
      </trkpt>
      <trkpt lat="47.98833" lon="-3.71788">
        <ele>167.9</ele>
        <time>2020-06-07T15:26:32Z</time>
      </trkpt>
      <trkpt lat="47.98837" lon="-3.71791">
        <ele>168</ele>
        <time>2020-06-07T15:26:33Z</time>
      </trkpt>
      <trkpt lat="47.9884" lon="-3.71793">
        <ele>168.1</ele>
        <time>2020-06-07T15:26:34Z</time>
      </trkpt>
      <trkpt lat="47.98843" lon="-3.71796">
        <ele>168.2</ele>
        <time>2020-06-07T15:26:35Z</time>
      </trkpt>
      <trkpt lat="47.98845" lon="-3.71798">
        <ele>168.2</ele>
        <time>2020-06-07T15:26:36Z</time>
      </trkpt>
      <trkpt lat="47.98849" lon="-3.718">
        <ele>168.3</ele>
        <time>2020-06-07T15:26:37Z</time>
      </trkpt>
      <trkpt lat="47.98853" lon="-3.71804">
        <ele>168.4</ele>
        <time>2020-06-07T15:26:38Z</time>
      </trkpt>
      <trkpt lat="47.98855" lon="-3.71806">
        <ele>168.4</ele>
        <time>2020-06-07T15:26:39Z</time>
      </trkpt>
      <trkpt lat="47.98858" lon="-3.71809">
        <ele>168.5</ele>
        <time>2020-06-07T15:26:40Z</time>
      </trkpt>
      <trkpt lat="47.98862" lon="-3.71813">
        <ele>168.6</ele>
        <time>2020-06-07T15:26:41Z</time>
      </trkpt>
      <trkpt lat="47.98865" lon="-3.71816">
        <ele>168.6</ele>
        <time>2020-06-07T15:26:42Z</time>
      </trkpt>
      <trkpt lat="47.9887" lon="-3.71819">
        <ele>168.7</ele>
        <time>2020-06-07T15:26:43Z</time>
      </trkpt>
      <trkpt lat="47.98874" lon="-3.71823">
        <ele>168.7</ele>
        <time>2020-06-07T15:26:44Z</time>
      </trkpt>
      <trkpt lat="47.98877" lon="-3.71827">
        <ele>168.8</ele>
        <time>2020-06-07T15:26:45Z</time>
      </trkpt>
      <trkpt lat="47.9888" lon="-3.71829">
        <ele>168.9</ele>
        <time>2020-06-07T15:26:46Z</time>
      </trkpt>
      <trkpt lat="47.98883" lon="-3.71832">
        <ele>168.9</ele>
        <time>2020-06-07T15:26:47Z</time>
      </trkpt>
      <trkpt lat="47.98888" lon="-3.71835">
        <ele>169.1</ele>
        <time>2020-06-07T15:26:48Z</time>
      </trkpt>
      <trkpt lat="47.98892" lon="-3.71839">
        <ele>169.3</ele>
        <time>2020-06-07T15:26:49Z</time>
      </trkpt>
      <trkpt lat="47.98896" lon="-3.71843">
        <ele>169.4</ele>
        <time>2020-06-07T15:26:50Z</time>
      </trkpt>
      <trkpt lat="47.98899" lon="-3.71844">
        <ele>169.6</ele>
        <time>2020-06-07T15:26:51Z</time>
      </trkpt>
      <trkpt lat="47.98903" lon="-3.71846">
        <ele>169.7</ele>
        <time>2020-06-07T15:26:52Z</time>
      </trkpt>
      <trkpt lat="47.98907" lon="-3.71849">
        <ele>169.8</ele>
        <time>2020-06-07T15:26:53Z</time>
      </trkpt>
      <trkpt lat="47.98909" lon="-3.71852">
        <ele>169.8</ele>
        <time>2020-06-07T15:26:54Z</time>
      </trkpt>
      <trkpt lat="47.98913" lon="-3.71855">
        <ele>169.9</ele>
        <time>2020-06-07T15:26:55Z</time>
      </trkpt>
      <trkpt lat="47.98916" lon="-3.71857">
        <ele>170</ele>
        <time>2020-06-07T15:26:56Z</time>
      </trkpt>
      <trkpt lat="47.9892" lon="-3.7186">
        <ele>170.2</ele>
        <time>2020-06-07T15:26:57Z</time>
      </trkpt>
      <trkpt lat="47.98924" lon="-3.71863">
        <ele>170.3</ele>
        <time>2020-06-07T15:26:58Z</time>
      </trkpt>
      <trkpt lat="47.98928" lon="-3.71865">
        <ele>170.4</ele>
        <time>2020-06-07T15:26:59Z</time>
      </trkpt>
      <trkpt lat="47.98931" lon="-3.71868">
        <ele>170.5</ele>
        <time>2020-06-07T15:27:00Z</time>
      </trkpt>
      <trkpt lat="47.98934" lon="-3.71871">
        <ele>170.5</ele>
        <time>2020-06-07T15:27:01Z</time>
      </trkpt>
      <trkpt lat="47.98937" lon="-3.71874">
        <ele>170.6</ele>
        <time>2020-06-07T15:27:02Z</time>
      </trkpt>
      <trkpt lat="47.9894" lon="-3.71875">
        <ele>170.7</ele>
        <time>2020-06-07T15:27:03Z</time>
      </trkpt>
      <trkpt lat="47.98944" lon="-3.71877">
        <ele>170.8</ele>
        <time>2020-06-07T15:27:04Z</time>
      </trkpt>
      <trkpt lat="47.98948" lon="-3.71878">
        <ele>170.9</ele>
        <time>2020-06-07T15:27:05Z</time>
      </trkpt>
      <trkpt lat="47.98952" lon="-3.71881">
        <ele>171</ele>
        <time>2020-06-07T15:27:06Z</time>
      </trkpt>
      <trkpt lat="47.98955" lon="-3.71883">
        <ele>171</ele>
        <time>2020-06-07T15:27:07Z</time>
      </trkpt>
      <trkpt lat="47.98959" lon="-3.71886">
        <ele>171.1</ele>
        <time>2020-06-07T15:27:08Z</time>
      </trkpt>
      <trkpt lat="47.98963" lon="-3.71888">
        <ele>171.2</ele>
        <time>2020-06-07T15:27:09Z</time>
      </trkpt>
      <trkpt lat="47.98967" lon="-3.7189">
        <ele>171.3</ele>
        <time>2020-06-07T15:27:10Z</time>
      </trkpt>
      <trkpt lat="47.98971" lon="-3.71892">
        <ele>171.4</ele>
        <time>2020-06-07T15:27:11Z</time>
      </trkpt>
      <trkpt lat="47.98975" lon="-3.71894">
        <ele>171.5</ele>
        <time>2020-06-07T15:27:12Z</time>
      </trkpt>
      <trkpt lat="47.9898" lon="-3.71895">
        <ele>171.6</ele>
        <time>2020-06-07T15:27:13Z</time>
      </trkpt>
      <trkpt lat="47.98984" lon="-3.71897">
        <ele>171.7</ele>
        <time>2020-06-07T15:27:14Z</time>
      </trkpt>
      <trkpt lat="47.98988" lon="-3.71899">
        <ele>171.8</ele>
        <time>2020-06-07T15:27:15Z</time>
      </trkpt>
      <trkpt lat="47.98993" lon="-3.719">
        <ele>171.8</ele>
        <time>2020-06-07T15:27:16Z</time>
      </trkpt>
      <trkpt lat="47.98997" lon="-3.71902">
        <ele>171.9</ele>
        <time>2020-06-07T15:27:17Z</time>
      </trkpt>
      <trkpt lat="47.99001" lon="-3.71904">
        <ele>172</ele>
        <time>2020-06-07T15:27:18Z</time>
      </trkpt>
      <trkpt lat="47.99005" lon="-3.71905">
        <ele>172.1</ele>
        <time>2020-06-07T15:27:19Z</time>
      </trkpt>
      <trkpt lat="47.99009" lon="-3.71907">
        <ele>172.1</ele>
        <time>2020-06-07T15:27:20Z</time>
      </trkpt>
      <trkpt lat="47.99013" lon="-3.71907">
        <ele>172.2</ele>
        <time>2020-06-07T15:27:21Z</time>
      </trkpt>
      <trkpt lat="47.99017" lon="-3.71907">
        <ele>172.3</ele>
        <time>2020-06-07T15:27:22Z</time>
      </trkpt>
      <trkpt lat="47.99021" lon="-3.71908">
        <ele>172.4</ele>
        <time>2020-06-07T15:27:23Z</time>
      </trkpt>
      <trkpt lat="47.99025" lon="-3.71909">
        <ele>172.4</ele>
        <time>2020-06-07T15:27:24Z</time>
      </trkpt>
      <trkpt lat="47.99029" lon="-3.71911">
        <ele>172.5</ele>
        <time>2020-06-07T15:27:25Z</time>
      </trkpt>
      <trkpt lat="47.99033" lon="-3.71912">
        <ele>172.6</ele>
        <time>2020-06-07T15:27:26Z</time>
      </trkpt>
      <trkpt lat="47.99037" lon="-3.71912">
        <ele>172.7</ele>
        <time>2020-06-07T15:27:27Z</time>
      </trkpt>
      <trkpt lat="47.9904" lon="-3.71912">
        <ele>172.7</ele>
        <time>2020-06-07T15:27:28Z</time>
      </trkpt>
      <trkpt lat="47.99043" lon="-3.71912">
        <ele>172.8</ele>
        <time>2020-06-07T15:27:29Z</time>
      </trkpt>
      <trkpt lat="47.99047" lon="-3.71912">
        <ele>172.8</ele>
        <time>2020-06-07T15:27:30Z</time>
      </trkpt>
      <trkpt lat="47.9905" lon="-3.71913">
        <ele>172.9</ele>
        <time>2020-06-07T15:27:31Z</time>
      </trkpt>
      <trkpt lat="47.99056" lon="-3.71913">
        <ele>173</ele>
        <time>2020-06-07T15:27:32Z</time>
      </trkpt>
      <trkpt lat="47.99061" lon="-3.71914">
        <ele>173</ele>
        <time>2020-06-07T15:27:33Z</time>
      </trkpt>
      <trkpt lat="47.99065" lon="-3.71913">
        <ele>173.1</ele>
        <time>2020-06-07T15:27:34Z</time>
      </trkpt>
      <trkpt lat="47.99069" lon="-3.71913">
        <ele>173.2</ele>
        <time>2020-06-07T15:27:35Z</time>
      </trkpt>
      <trkpt lat="47.99072" lon="-3.71913">
        <ele>173.2</ele>
        <time>2020-06-07T15:27:36Z</time>
      </trkpt>
      <trkpt lat="47.99075" lon="-3.71913">
        <ele>173.2</ele>
        <time>2020-06-07T15:27:37Z</time>
      </trkpt>
      <trkpt lat="47.99078" lon="-3.71913">
        <ele>173.2</ele>
        <time>2020-06-07T15:27:38Z</time>
      </trkpt>
      <trkpt lat="47.99082" lon="-3.71912">
        <ele>173.3</ele>
        <time>2020-06-07T15:27:39Z</time>
      </trkpt>
      <trkpt lat="47.99084" lon="-3.71912">
        <ele>173.3</ele>
        <time>2020-06-07T15:27:40Z</time>
      </trkpt>
      <trkpt lat="47.99086" lon="-3.71915">
        <ele>173.3</ele>
        <time>2020-06-07T15:27:41Z</time>
      </trkpt>
      <trkpt lat="47.99086" lon="-3.71917">
        <ele>173.3</ele>
        <time>2020-06-07T15:27:42Z</time>
      </trkpt>
      <trkpt lat="47.99085" lon="-3.71921">
        <ele>173.3</ele>
        <time>2020-06-07T15:27:43Z</time>
      </trkpt>
      <trkpt lat="47.99085" lon="-3.71922">
        <ele>173.3</ele>
        <time>2020-06-07T15:27:44Z</time>
      </trkpt>
      <trkpt lat="47.99085" lon="-3.71925">
        <ele>173.3</ele>
        <time>2020-06-07T15:27:45Z</time>
      </trkpt>
      <trkpt lat="47.99085" lon="-3.71925">
        <ele>173.3</ele>
        <time>2020-06-07T15:27:46Z</time>
      </trkpt>
      <trkpt lat="47.99085" lon="-3.71927">
        <ele>173.3</ele>
        <time>2020-06-07T15:27:47Z</time>
      </trkpt>
      <trkpt lat="47.99084" lon="-3.71927">
        <ele>173.3</ele>
        <time>2020-06-07T15:27:48Z</time>
      </trkpt>
      <trkpt lat="47.99084" lon="-3.71928">
        <ele>173.3</ele>
        <time>2020-06-07T15:27:49Z</time>
      </trkpt>
      <trkpt lat="47.99084" lon="-3.71928">
        <ele>173.3</ele>
        <time>2020-06-07T15:27:50Z</time>
      </trkpt>
      <trkpt lat="47.99084" lon="-3.71929">
        <ele>173.3</ele>
        <time>2020-06-07T15:27:51Z</time>
      </trkpt>
      <trkpt lat="47.99083" lon="-3.71929">
        <ele>173.3</ele>
        <time>2020-06-07T15:27:52Z</time>
      </trkpt>
      <trkpt lat="47.99083" lon="-3.71929">
        <ele>173.3</ele>
        <time>2020-06-07T15:27:53Z</time>
      </trkpt>
      <trkpt lat="47.99083" lon="-3.71929">
        <ele>173.3</ele>
        <time>2020-06-07T15:27:54Z</time>
      </trkpt>
      <trkpt lat="47.99083" lon="-3.71929">
        <ele>173.3</ele>
        <time>2020-06-07T15:27:55Z</time>
      </trkpt>
      <trkpt lat="47.99083" lon="-3.71929">
        <ele>173.3</ele>
        <time>2020-06-07T15:27:56Z</time>
      </trkpt>
      <trkpt lat="47.99084" lon="-3.71929">
        <ele>173.3</ele>
        <time>2020-06-07T15:27:57Z</time>
      </trkpt>
      <trkpt lat="47.99084" lon="-3.71928">
        <ele>173.3</ele>
        <time>2020-06-07T15:27:58Z</time>
      </trkpt>
      <trkpt lat="47.99084" lon="-3.71928">
        <ele>173.3</ele>
        <time>2020-06-07T15:27:59Z</time>
      </trkpt>
      <trkpt lat="47.99084" lon="-3.71929">
        <ele>173.3</ele>
        <time>2020-06-07T15:28:00Z</time>
      </trkpt>
      <trkpt lat="47.99084" lon="-3.71929">
        <ele>173.3</ele>
        <time>2020-06-07T15:28:01Z</time>
      </trkpt>
      <trkpt lat="47.99084" lon="-3.7193">
        <ele>173.3</ele>
        <time>2020-06-07T15:28:02Z</time>
      </trkpt>
      <trkpt lat="47.99084" lon="-3.71931">
        <ele>173.3</ele>
        <time>2020-06-07T15:28:03Z</time>
      </trkpt>
      <trkpt lat="47.99084" lon="-3.7193">
        <ele>173.3</ele>
        <time>2020-06-07T15:28:04Z</time>
      </trkpt>
      <trkpt lat="47.99084" lon="-3.7193">
        <ele>173.3</ele>
        <time>2020-06-07T15:28:05Z</time>
      </trkpt>
      <trkpt lat="47.99084" lon="-3.7193">
        <ele>173.3</ele>
        <time>2020-06-07T15:28:06Z</time>
      </trkpt>
      <trkpt lat="47.99084" lon="-3.7193">
        <ele>173.3</ele>
        <time>2020-06-07T15:28:07Z</time>
      </trkpt>
      <trkpt lat="47.99084" lon="-3.7193">
        <ele>173.3</ele>
        <time>2020-06-07T15:28:08Z</time>
      </trkpt>
      <trkpt lat="47.99084" lon="-3.7193">
        <ele>173.3</ele>
        <time>2020-06-07T15:28:09Z</time>
      </trkpt>
      <trkpt lat="47.99084" lon="-3.71931">
        <ele>173.3</ele>
        <time>2020-06-07T15:28:10Z</time>
      </trkpt>
      <trkpt lat="47.99084" lon="-3.71931">
        <ele>173.3</ele>
        <time>2020-06-07T15:28:11Z</time>
      </trkpt>
      <trkpt lat="47.99084" lon="-3.71931">
        <ele>173.3</ele>
        <time>2020-06-07T15:28:12Z</time>
      </trkpt>
      <trkpt lat="47.99084" lon="-3.71931">
        <ele>173.3</ele>
        <time>2020-06-07T15:28:13Z</time>
      </trkpt>
      <trkpt lat="47.99084" lon="-3.71931">
        <ele>173.3</ele>
        <time>2020-06-07T15:28:14Z</time>
      </trkpt>
      <trkpt lat="47.99084" lon="-3.71931">
        <ele>173.3</ele>
        <time>2020-06-07T15:28:15Z</time>
      </trkpt>
      <trkpt lat="47.99084" lon="-3.71932">
        <ele>173.3</ele>
        <time>2020-06-07T15:28:16Z</time>
      </trkpt>
      <trkpt lat="47.99084" lon="-3.71933">
        <ele>173.3</ele>
        <time>2020-06-07T15:28:17Z</time>
      </trkpt>
      <trkpt lat="47.99084" lon="-3.71935">
        <ele>173.3</ele>
        <time>2020-06-07T15:28:18Z</time>
      </trkpt>
      <trkpt lat="47.99084" lon="-3.71939">
        <ele>173.3</ele>
        <time>2020-06-07T15:28:19Z</time>
      </trkpt>
      <trkpt lat="47.99084" lon="-3.71941">
        <ele>173.3</ele>
        <time>2020-06-07T15:28:20Z</time>
      </trkpt>
      <trkpt lat="47.99085" lon="-3.71943">
        <ele>173.3</ele>
        <time>2020-06-07T15:28:21Z</time>
      </trkpt>
      <trkpt lat="47.99085" lon="-3.71946">
        <ele>173.3</ele>
        <time>2020-06-07T15:28:22Z</time>
      </trkpt>
      <trkpt lat="47.99085" lon="-3.71945">
        <ele>173.3</ele>
        <time>2020-06-07T15:28:23Z</time>
      </trkpt>
      <trkpt lat="47.99086" lon="-3.71944">
        <ele>173.3</ele>
        <time>2020-06-07T15:28:24Z</time>
      </trkpt>
      <trkpt lat="47.99087" lon="-3.71944">
        <ele>173.3</ele>
        <time>2020-06-07T15:28:25Z</time>
      </trkpt>
      <trkpt lat="47.99088" lon="-3.71943">
        <ele>173.3</ele>
        <time>2020-06-07T15:28:26Z</time>
      </trkpt>
      <trkpt lat="47.99088" lon="-3.71942">
        <ele>173.3</ele>
        <time>2020-06-07T15:28:27Z</time>
      </trkpt>
      <trkpt lat="47.99089" lon="-3.71942">
        <ele>173.3</ele>
        <time>2020-06-07T15:28:28Z</time>
      </trkpt>
      <trkpt lat="47.9909" lon="-3.71941">
        <ele>173.3</ele>
        <time>2020-06-07T15:28:29Z</time>
      </trkpt>
      <trkpt lat="47.9909" lon="-3.7194">
        <ele>173.3</ele>
        <time>2020-06-07T15:28:30Z</time>
      </trkpt>
      <trkpt lat="47.99091" lon="-3.7194">
        <ele>173.3</ele>
        <time>2020-06-07T15:28:31Z</time>
      </trkpt>
      <trkpt lat="47.99092" lon="-3.71939">
        <ele>173.3</ele>
        <time>2020-06-07T15:28:32Z</time>
      </trkpt>
      <trkpt lat="47.99092" lon="-3.71938">
        <ele>173.3</ele>
        <time>2020-06-07T15:28:33Z</time>
      </trkpt>
      <trkpt lat="47.99093" lon="-3.71938">
        <ele>173.3</ele>
        <time>2020-06-07T15:30:02Z</time>
      </trkpt>
      <trkpt lat="47.99094" lon="-3.71937">
        <ele>173.3</ele>
        <time>2020-06-07T15:30:03Z</time>
      </trkpt>
      <trkpt lat="47.99095" lon="-3.71936">
        <ele>173.3</ele>
        <time>2020-06-07T15:30:04Z</time>
      </trkpt>
      <trkpt lat="47.99097" lon="-3.71936">
        <ele>173.3</ele>
        <time>2020-06-07T15:30:05Z</time>
      </trkpt>
      <trkpt lat="47.99098" lon="-3.71936">
        <ele>173.3</ele>
        <time>2020-06-07T15:30:06Z</time>
      </trkpt>
      <trkpt lat="47.991" lon="-3.71933">
        <ele>173.3</ele>
        <time>2020-06-07T15:30:07Z</time>
      </trkpt>
      <trkpt lat="47.99103" lon="-3.71932">
        <ele>173.3</ele>
        <time>2020-06-07T15:30:08Z</time>
      </trkpt>
      <trkpt lat="47.99104" lon="-3.71932">
        <ele>173.3</ele>
        <time>2020-06-07T15:30:09Z</time>
      </trkpt>
      <trkpt lat="47.99108" lon="-3.71933">
        <ele>173.3</ele>
        <time>2020-06-07T15:30:10Z</time>
      </trkpt>
      <trkpt lat="47.99109" lon="-3.71935">
        <ele>173.3</ele>
        <time>2020-06-07T15:30:11Z</time>
      </trkpt>
      <trkpt lat="47.99113" lon="-3.71936">
        <ele>173.3</ele>
        <time>2020-06-07T15:30:12Z</time>
      </trkpt>
      <trkpt lat="47.99114" lon="-3.71936">
        <ele>173.3</ele>
        <time>2020-06-07T15:30:13Z</time>
      </trkpt>
      <trkpt lat="47.99117" lon="-3.71936">
        <ele>173.3</ele>
        <time>2020-06-07T15:30:14Z</time>
      </trkpt>
      <trkpt lat="47.9912" lon="-3.71937">
        <ele>173.4</ele>
        <time>2020-06-07T15:30:15Z</time>
      </trkpt>
      <trkpt lat="47.99123" lon="-3.71937">
        <ele>173.4</ele>
        <time>2020-06-07T15:30:16Z</time>
      </trkpt>
      <trkpt lat="47.99126" lon="-3.71938">
        <ele>173.4</ele>
        <time>2020-06-07T15:30:17Z</time>
      </trkpt>
      <trkpt lat="47.99128" lon="-3.71938">
        <ele>173.4</ele>
        <time>2020-06-07T15:30:18Z</time>
      </trkpt>
      <trkpt lat="47.99129" lon="-3.71937">
        <ele>173.4</ele>
        <time>2020-06-07T15:30:19Z</time>
      </trkpt>
      <trkpt lat="47.99129" lon="-3.71936">
        <ele>173.4</ele>
        <time>2020-06-07T15:30:20Z</time>
      </trkpt>
      <trkpt lat="47.99129" lon="-3.71936">
        <ele>173.4</ele>
        <time>2020-06-07T15:30:21Z</time>
      </trkpt>
      <trkpt lat="47.99129" lon="-3.71936">
        <ele>173.4</ele>
        <time>2020-06-07T15:30:22Z</time>
      </trkpt>
      <trkpt lat="47.99129" lon="-3.71937">
        <ele>173.4</ele>
        <time>2020-06-07T15:30:23Z</time>
      </trkpt>
      <trkpt lat="47.99129" lon="-3.71937">
        <ele>173.4</ele>
        <time>2020-06-07T15:30:24Z</time>
      </trkpt>
      <trkpt lat="47.99129" lon="-3.71937">
        <ele>173.4</ele>
        <time>2020-06-07T15:30:25Z</time>
      </trkpt>
      <trkpt lat="47.99129" lon="-3.71937">
        <ele>173.4</ele>
        <time>2020-06-07T15:30:26Z</time>
      </trkpt>
      <trkpt lat="47.99129" lon="-3.71937">
        <ele>173.4</ele>
        <time>2020-06-07T15:30:27Z</time>
      </trkpt>
      <trkpt lat="47.99129" lon="-3.71937">
        <ele>173.4</ele>
        <time>2020-06-07T15:30:28Z</time>
      </trkpt>
      <trkpt lat="47.99129" lon="-3.71937">
        <ele>173.4</ele>
        <time>2020-06-07T15:30:29Z</time>
      </trkpt>
      <trkpt lat="47.99129" lon="-3.71937">
        <ele>173.4</ele>
        <time>2020-06-07T15:30:30Z</time>
      </trkpt>
      <trkpt lat="47.99129" lon="-3.71937">
        <ele>173.4</ele>
        <time>2020-06-07T15:30:31Z</time>
      </trkpt>
      <trkpt lat="47.99129" lon="-3.71937">
        <ele>173.4</ele>
        <time>2020-06-07T15:30:32Z</time>
      </trkpt>
      <trkpt lat="47.99129" lon="-3.71937">
        <ele>173.4</ele>
        <time>2020-06-07T15:30:33Z</time>
      </trkpt>
      <trkpt lat="47.99129" lon="-3.71937">
        <ele>173.4</ele>
        <time>2020-06-07T15:30:34Z</time>
      </trkpt>
      <trkpt lat="47.99129" lon="-3.71937">
        <ele>173.4</ele>
        <time>2020-06-07T15:30:35Z</time>
      </trkpt>
      <trkpt lat="47.99129" lon="-3.71924">
        <ele>173.4</ele>
        <time>2020-06-07T15:37:04Z</time>
      </trkpt>
      <trkpt lat="47.9913" lon="-3.71924">
        <ele>173.4</ele>
        <time>2020-06-07T15:37:05Z</time>
      </trkpt>
      <trkpt lat="47.9913" lon="-3.71923">
        <ele>173.4</ele>
        <time>2020-06-07T15:37:06Z</time>
      </trkpt>
      <trkpt lat="47.9913" lon="-3.71922">
        <ele>173.4</ele>
        <time>2020-06-07T15:37:07Z</time>
      </trkpt>
      <trkpt lat="47.9913" lon="-3.71921">
        <ele>173.4</ele>
        <time>2020-06-07T15:37:08Z</time>
      </trkpt>
      <trkpt lat="47.9913" lon="-3.71918">
        <ele>173.4</ele>
        <time>2020-06-07T15:37:09Z</time>
      </trkpt>
      <trkpt lat="47.99131" lon="-3.71917">
        <ele>173.4</ele>
        <time>2020-06-07T15:37:10Z</time>
      </trkpt>
      <trkpt lat="47.99131" lon="-3.71915">
        <ele>173.4</ele>
        <time>2020-06-07T15:37:11Z</time>
      </trkpt>
      <trkpt lat="47.99134" lon="-3.71912">
        <ele>173.4</ele>
        <time>2020-06-07T15:37:12Z</time>
      </trkpt>
      <trkpt lat="47.99135" lon="-3.7191">
        <ele>173.4</ele>
        <time>2020-06-07T15:37:13Z</time>
      </trkpt>
      <trkpt lat="47.99137" lon="-3.71905">
        <ele>173.4</ele>
        <time>2020-06-07T15:37:14Z</time>
      </trkpt>
      <trkpt lat="47.9914" lon="-3.71902">
        <ele>173.4</ele>
        <time>2020-06-07T15:37:15Z</time>
      </trkpt>
      <trkpt lat="47.99142" lon="-3.719">
        <ele>173.4</ele>
        <time>2020-06-07T15:37:16Z</time>
      </trkpt>
      <trkpt lat="47.99145" lon="-3.71898">
        <ele>173.4</ele>
        <time>2020-06-07T15:37:17Z</time>
      </trkpt>
      <trkpt lat="47.99149" lon="-3.71893">
        <ele>173.5</ele>
        <time>2020-06-07T15:37:18Z</time>
      </trkpt>
      <trkpt lat="47.99153" lon="-3.71891">
        <ele>173.5</ele>
        <time>2020-06-07T15:37:19Z</time>
      </trkpt>
      <trkpt lat="47.99157" lon="-3.71888">
        <ele>173.5</ele>
        <time>2020-06-07T15:37:20Z</time>
      </trkpt>
      <trkpt lat="47.99161" lon="-3.71886">
        <ele>173.5</ele>
        <time>2020-06-07T15:37:21Z</time>
      </trkpt>
      <trkpt lat="47.99165" lon="-3.71884">
        <ele>173.5</ele>
        <time>2020-06-07T15:37:22Z</time>
      </trkpt>
      <trkpt lat="47.99169" lon="-3.71881">
        <ele>173.5</ele>
        <time>2020-06-07T15:37:23Z</time>
      </trkpt>
      <trkpt lat="47.99172" lon="-3.7188">
        <ele>173.5</ele>
        <time>2020-06-07T15:37:24Z</time>
      </trkpt>
      <trkpt lat="47.99177" lon="-3.71878">
        <ele>173.5</ele>
        <time>2020-06-07T15:37:25Z</time>
      </trkpt>
      <trkpt lat="47.9918" lon="-3.71875">
        <ele>173.5</ele>
        <time>2020-06-07T15:37:26Z</time>
      </trkpt>
      <trkpt lat="47.99186" lon="-3.71873">
        <ele>173.6</ele>
        <time>2020-06-07T15:37:27Z</time>
      </trkpt>
      <trkpt lat="47.9919" lon="-3.7187">
        <ele>173.6</ele>
        <time>2020-06-07T15:37:28Z</time>
      </trkpt>
      <trkpt lat="47.99195" lon="-3.71867">
        <ele>173.6</ele>
        <time>2020-06-07T15:37:29Z</time>
      </trkpt>
      <trkpt lat="47.99199" lon="-3.71863">
        <ele>173.6</ele>
        <time>2020-06-07T15:37:30Z</time>
      </trkpt>
      <trkpt lat="47.99204" lon="-3.71859">
        <ele>173.6</ele>
        <time>2020-06-07T15:37:31Z</time>
      </trkpt>
      <trkpt lat="47.99209" lon="-3.71856">
        <ele>173.6</ele>
        <time>2020-06-07T15:37:32Z</time>
      </trkpt>
      <trkpt lat="47.99213" lon="-3.71854">
        <ele>173.5</ele>
        <time>2020-06-07T15:37:33Z</time>
      </trkpt>
      <trkpt lat="47.99217" lon="-3.71852">
        <ele>173.5</ele>
        <time>2020-06-07T15:37:34Z</time>
      </trkpt>
      <trkpt lat="47.99221" lon="-3.7185">
        <ele>173.5</ele>
        <time>2020-06-07T15:37:35Z</time>
      </trkpt>
      <trkpt lat="47.99225" lon="-3.71846">
        <ele>173.6</ele>
        <time>2020-06-07T15:37:36Z</time>
      </trkpt>
      <trkpt lat="47.99228" lon="-3.71843">
        <ele>173.6</ele>
        <time>2020-06-07T15:37:37Z</time>
      </trkpt>
      <trkpt lat="47.99232" lon="-3.7184">
        <ele>173.7</ele>
        <time>2020-06-07T15:37:38Z</time>
      </trkpt>
      <trkpt lat="47.99237" lon="-3.71837">
        <ele>173.7</ele>
        <time>2020-06-07T15:37:39Z</time>
      </trkpt>
      <trkpt lat="47.9924" lon="-3.71834">
        <ele>173.7</ele>
        <time>2020-06-07T15:37:40Z</time>
      </trkpt>
      <trkpt lat="47.99244" lon="-3.71832">
        <ele>173.7</ele>
        <time>2020-06-07T15:37:41Z</time>
      </trkpt>
      <trkpt lat="47.99248" lon="-3.71829">
        <ele>173.7</ele>
        <time>2020-06-07T15:37:42Z</time>
      </trkpt>
      <trkpt lat="47.99252" lon="-3.71827">
        <ele>173.7</ele>
        <time>2020-06-07T15:37:43Z</time>
      </trkpt>
      <trkpt lat="47.99256" lon="-3.71824">
        <ele>173.7</ele>
        <time>2020-06-07T15:37:44Z</time>
      </trkpt>
      <trkpt lat="47.9926" lon="-3.71821">
        <ele>173.7</ele>
        <time>2020-06-07T15:37:45Z</time>
      </trkpt>
      <trkpt lat="47.99264" lon="-3.71818">
        <ele>173.6</ele>
        <time>2020-06-07T15:37:46Z</time>
      </trkpt>
      <trkpt lat="47.99269" lon="-3.71814">
        <ele>173.6</ele>
        <time>2020-06-07T15:37:47Z</time>
      </trkpt>
      <trkpt lat="47.99273" lon="-3.71812">
        <ele>173.6</ele>
        <time>2020-06-07T15:37:48Z</time>
      </trkpt>
      <trkpt lat="47.99277" lon="-3.71809">
        <ele>173.6</ele>
        <time>2020-06-07T15:37:49Z</time>
      </trkpt>
      <trkpt lat="47.9928" lon="-3.71806">
        <ele>173.6</ele>
        <time>2020-06-07T15:37:50Z</time>
      </trkpt>
      <trkpt lat="47.99284" lon="-3.71803">
        <ele>173.6</ele>
        <time>2020-06-07T15:37:51Z</time>
      </trkpt>
      <trkpt lat="47.99289" lon="-3.718">
        <ele>173.6</ele>
        <time>2020-06-07T15:37:52Z</time>
      </trkpt>
      <trkpt lat="47.99295" lon="-3.71797">
        <ele>173.5</ele>
        <time>2020-06-07T15:37:53Z</time>
      </trkpt>
      <trkpt lat="47.993" lon="-3.71794">
        <ele>173.5</ele>
        <time>2020-06-07T15:37:54Z</time>
      </trkpt>
      <trkpt lat="47.99305" lon="-3.7179">
        <ele>173.5</ele>
        <time>2020-06-07T15:37:55Z</time>
      </trkpt>
      <trkpt lat="47.9931" lon="-3.71787">
        <ele>173.4</ele>
        <time>2020-06-07T15:37:56Z</time>
      </trkpt>
      <trkpt lat="47.99315" lon="-3.71783">
        <ele>173.3</ele>
        <time>2020-06-07T15:37:57Z</time>
      </trkpt>
      <trkpt lat="47.9932" lon="-3.7178">
        <ele>173.3</ele>
        <time>2020-06-07T15:37:58Z</time>
      </trkpt>
      <trkpt lat="47.99324" lon="-3.71776">
        <ele>173.2</ele>
        <time>2020-06-07T15:37:59Z</time>
      </trkpt>
      <trkpt lat="47.99329" lon="-3.71773">
        <ele>173.1</ele>
        <time>2020-06-07T15:38:00Z</time>
      </trkpt>
      <trkpt lat="47.99333" lon="-3.7177">
        <ele>173</ele>
        <time>2020-06-07T15:38:01Z</time>
      </trkpt>
      <trkpt lat="47.99338" lon="-3.71766">
        <ele>172.9</ele>
        <time>2020-06-07T15:38:02Z</time>
      </trkpt>
      <trkpt lat="47.99343" lon="-3.71762">
        <ele>172.8</ele>
        <time>2020-06-07T15:38:03Z</time>
      </trkpt>
      <trkpt lat="47.99349" lon="-3.71758">
        <ele>172.6</ele>
        <time>2020-06-07T15:38:04Z</time>
      </trkpt>
      <trkpt lat="47.99356" lon="-3.71754">
        <ele>172.5</ele>
        <time>2020-06-07T15:38:05Z</time>
      </trkpt>
      <trkpt lat="47.99363" lon="-3.71752">
        <ele>172.3</ele>
        <time>2020-06-07T15:38:06Z</time>
      </trkpt>
      <trkpt lat="47.99368" lon="-3.71748">
        <ele>172.2</ele>
        <time>2020-06-07T15:38:07Z</time>
      </trkpt>
      <trkpt lat="47.99375" lon="-3.71745">
        <ele>172</ele>
        <time>2020-06-07T15:38:08Z</time>
      </trkpt>
      <trkpt lat="47.9938" lon="-3.71742">
        <ele>171.9</ele>
        <time>2020-06-07T15:38:09Z</time>
      </trkpt>
      <trkpt lat="47.99386" lon="-3.71739">
        <ele>171.8</ele>
        <time>2020-06-07T15:38:10Z</time>
      </trkpt>
      <trkpt lat="47.99392" lon="-3.71735">
        <ele>171.6</ele>
        <time>2020-06-07T15:38:11Z</time>
      </trkpt>
      <trkpt lat="47.99398" lon="-3.71731">
        <ele>171.5</ele>
        <time>2020-06-07T15:38:12Z</time>
      </trkpt>
      <trkpt lat="47.99403" lon="-3.71727">
        <ele>171.4</ele>
        <time>2020-06-07T15:38:13Z</time>
      </trkpt>
      <trkpt lat="47.99409" lon="-3.71724">
        <ele>171.2</ele>
        <time>2020-06-07T15:38:14Z</time>
      </trkpt>
      <trkpt lat="47.99415" lon="-3.71721">
        <ele>171</ele>
        <time>2020-06-07T15:38:15Z</time>
      </trkpt>
      <trkpt lat="47.99422" lon="-3.71717">
        <ele>170.9</ele>
        <time>2020-06-07T15:38:16Z</time>
      </trkpt>
      <trkpt lat="47.99427" lon="-3.71714">
        <ele>170.7</ele>
        <time>2020-06-07T15:38:17Z</time>
      </trkpt>
      <trkpt lat="47.99433" lon="-3.71711">
        <ele>170.6</ele>
        <time>2020-06-07T15:38:18Z</time>
      </trkpt>
      <trkpt lat="47.99439" lon="-3.71709">
        <ele>170.4</ele>
        <time>2020-06-07T15:38:19Z</time>
      </trkpt>
      <trkpt lat="47.99445" lon="-3.71706">
        <ele>170.2</ele>
        <time>2020-06-07T15:38:20Z</time>
      </trkpt>
      <trkpt lat="47.99451" lon="-3.71703">
        <ele>170.1</ele>
        <time>2020-06-07T15:38:21Z</time>
      </trkpt>
      <trkpt lat="47.99457" lon="-3.71701">
        <ele>169.9</ele>
        <time>2020-06-07T15:38:22Z</time>
      </trkpt>
      <trkpt lat="47.99463" lon="-3.71699">
        <ele>169.7</ele>
        <time>2020-06-07T15:38:23Z</time>
      </trkpt>
      <trkpt lat="47.9947" lon="-3.71697">
        <ele>169.5</ele>
        <time>2020-06-07T15:38:24Z</time>
      </trkpt>
      <trkpt lat="47.99476" lon="-3.71695">
        <ele>169.3</ele>
        <time>2020-06-07T15:38:25Z</time>
      </trkpt>
      <trkpt lat="47.99481" lon="-3.71692">
        <ele>169.1</ele>
        <time>2020-06-07T15:38:26Z</time>
      </trkpt>
      <trkpt lat="47.99488" lon="-3.7169">
        <ele>169</ele>
        <time>2020-06-07T15:38:27Z</time>
      </trkpt>
      <trkpt lat="47.99494" lon="-3.71689">
        <ele>168.8</ele>
        <time>2020-06-07T15:38:28Z</time>
      </trkpt>
      <trkpt lat="47.995" lon="-3.71687">
        <ele>168.7</ele>
        <time>2020-06-07T15:38:29Z</time>
      </trkpt>
      <trkpt lat="47.99506" lon="-3.71686">
        <ele>168.5</ele>
        <time>2020-06-07T15:38:30Z</time>
      </trkpt>
      <trkpt lat="47.99512" lon="-3.71685">
        <ele>168.3</ele>
        <time>2020-06-07T15:38:31Z</time>
      </trkpt>
      <trkpt lat="47.99518" lon="-3.71684">
        <ele>168.1</ele>
        <time>2020-06-07T15:38:32Z</time>
      </trkpt>
      <trkpt lat="47.99525" lon="-3.71684">
        <ele>167.8</ele>
        <time>2020-06-07T15:38:33Z</time>
      </trkpt>
      <trkpt lat="47.99531" lon="-3.71685">
        <ele>167.6</ele>
        <time>2020-06-07T15:38:34Z</time>
      </trkpt>
      <trkpt lat="47.99539" lon="-3.71685">
        <ele>167.4</ele>
        <time>2020-06-07T15:38:35Z</time>
      </trkpt>
      <trkpt lat="47.99546" lon="-3.71687">
        <ele>167.2</ele>
        <time>2020-06-07T15:38:36Z</time>
      </trkpt>
      <trkpt lat="47.99553" lon="-3.71689">
        <ele>167</ele>
        <time>2020-06-07T15:38:37Z</time>
      </trkpt>
      <trkpt lat="47.99561" lon="-3.71692">
        <ele>166.8</ele>
        <time>2020-06-07T15:38:38Z</time>
      </trkpt>
      <trkpt lat="47.99568" lon="-3.71694">
        <ele>166.6</ele>
        <time>2020-06-07T15:38:39Z</time>
      </trkpt>
      <trkpt lat="47.99574" lon="-3.71695">
        <ele>166.5</ele>
        <time>2020-06-07T15:38:40Z</time>
      </trkpt>
      <trkpt lat="47.99581" lon="-3.71696">
        <ele>166.3</ele>
        <time>2020-06-07T15:38:41Z</time>
      </trkpt>
      <trkpt lat="47.99588" lon="-3.71699">
        <ele>166.1</ele>
        <time>2020-06-07T15:38:42Z</time>
      </trkpt>
      <trkpt lat="47.99594" lon="-3.71701">
        <ele>165.9</ele>
        <time>2020-06-07T15:38:43Z</time>
      </trkpt>
      <trkpt lat="47.99602" lon="-3.71704">
        <ele>165.7</ele>
        <time>2020-06-07T15:38:44Z</time>
      </trkpt>
      <trkpt lat="47.99608" lon="-3.71707">
        <ele>165.6</ele>
        <time>2020-06-07T15:38:45Z</time>
      </trkpt>
      <trkpt lat="47.99615" lon="-3.71709">
        <ele>165.4</ele>
        <time>2020-06-07T15:38:46Z</time>
      </trkpt>
      <trkpt lat="47.99621" lon="-3.71711">
        <ele>165.2</ele>
        <time>2020-06-07T15:38:47Z</time>
      </trkpt>
      <trkpt lat="47.99626" lon="-3.71714">
        <ele>165.1</ele>
        <time>2020-06-07T15:38:48Z</time>
      </trkpt>
      <trkpt lat="47.99633" lon="-3.71718">
        <ele>164.9</ele>
        <time>2020-06-07T15:38:49Z</time>
      </trkpt>
      <trkpt lat="47.99639" lon="-3.71721">
        <ele>164.8</ele>
        <time>2020-06-07T15:38:50Z</time>
      </trkpt>
      <trkpt lat="47.99645" lon="-3.71724">
        <ele>164.6</ele>
        <time>2020-06-07T15:38:51Z</time>
      </trkpt>
      <trkpt lat="47.99651" lon="-3.71728">
        <ele>164.4</ele>
        <time>2020-06-07T15:38:52Z</time>
      </trkpt>
      <trkpt lat="47.99657" lon="-3.71732">
        <ele>164.3</ele>
        <time>2020-06-07T15:38:53Z</time>
      </trkpt>
      <trkpt lat="47.99663" lon="-3.71737">
        <ele>164.1</ele>
        <time>2020-06-07T15:38:54Z</time>
      </trkpt>
      <trkpt lat="47.9967" lon="-3.7174">
        <ele>164</ele>
        <time>2020-06-07T15:38:55Z</time>
      </trkpt>
      <trkpt lat="47.99676" lon="-3.71745">
        <ele>163.8</ele>
        <time>2020-06-07T15:38:56Z</time>
      </trkpt>
      <trkpt lat="47.99681" lon="-3.71751">
        <ele>163.7</ele>
        <time>2020-06-07T15:38:57Z</time>
      </trkpt>
      <trkpt lat="47.99687" lon="-3.71756">
        <ele>163.5</ele>
        <time>2020-06-07T15:38:58Z</time>
      </trkpt>
      <trkpt lat="47.99692" lon="-3.71761">
        <ele>163.4</ele>
        <time>2020-06-07T15:38:59Z</time>
      </trkpt>
      <trkpt lat="47.99698" lon="-3.71767">
        <ele>163.3</ele>
        <time>2020-06-07T15:39:00Z</time>
      </trkpt>
      <trkpt lat="47.99704" lon="-3.71771">
        <ele>163.1</ele>
        <time>2020-06-07T15:39:01Z</time>
      </trkpt>
      <trkpt lat="47.99709" lon="-3.71777">
        <ele>163</ele>
        <time>2020-06-07T15:39:02Z</time>
      </trkpt>
      <trkpt lat="47.99714" lon="-3.71783">
        <ele>162.9</ele>
        <time>2020-06-07T15:39:03Z</time>
      </trkpt>
      <trkpt lat="47.9972" lon="-3.71788">
        <ele>162.7</ele>
        <time>2020-06-07T15:39:04Z</time>
      </trkpt>
      <trkpt lat="47.99725" lon="-3.71794">
        <ele>162.6</ele>
        <time>2020-06-07T15:39:05Z</time>
      </trkpt>
      <trkpt lat="47.9973" lon="-3.718">
        <ele>162.4</ele>
        <time>2020-06-07T15:39:06Z</time>
      </trkpt>
      <trkpt lat="47.99736" lon="-3.71805">
        <ele>162.3</ele>
        <time>2020-06-07T15:39:07Z</time>
      </trkpt>
      <trkpt lat="47.99741" lon="-3.71812">
        <ele>162.1</ele>
        <time>2020-06-07T15:39:08Z</time>
      </trkpt>
      <trkpt lat="47.99747" lon="-3.71817">
        <ele>161.9</ele>
        <time>2020-06-07T15:39:09Z</time>
      </trkpt>
      <trkpt lat="47.99752" lon="-3.71823">
        <ele>161.8</ele>
        <time>2020-06-07T15:39:10Z</time>
      </trkpt>
      <trkpt lat="47.99758" lon="-3.71828">
        <ele>161.6</ele>
        <time>2020-06-07T15:39:11Z</time>
      </trkpt>
      <trkpt lat="47.99762" lon="-3.71833">
        <ele>161.5</ele>
        <time>2020-06-07T15:39:12Z</time>
      </trkpt>
      <trkpt lat="47.99767" lon="-3.71838">
        <ele>161.4</ele>
        <time>2020-06-07T15:39:13Z</time>
      </trkpt>
      <trkpt lat="47.99773" lon="-3.71843">
        <ele>161.2</ele>
        <time>2020-06-07T15:39:14Z</time>
      </trkpt>
      <trkpt lat="47.99778" lon="-3.71849">
        <ele>161.1</ele>
        <time>2020-06-07T15:39:15Z</time>
      </trkpt>
      <trkpt lat="47.99783" lon="-3.71855">
        <ele>160.9</ele>
        <time>2020-06-07T15:39:16Z</time>
      </trkpt>
      <trkpt lat="47.99788" lon="-3.7186">
        <ele>160.7</ele>
        <time>2020-06-07T15:39:17Z</time>
      </trkpt>
      <trkpt lat="47.99793" lon="-3.71865">
        <ele>160.6</ele>
        <time>2020-06-07T15:39:18Z</time>
      </trkpt>
      <trkpt lat="47.99799" lon="-3.7187">
        <ele>160.5</ele>
        <time>2020-06-07T15:39:19Z</time>
      </trkpt>
      <trkpt lat="47.99804" lon="-3.71875">
        <ele>160.3</ele>
        <time>2020-06-07T15:39:20Z</time>
      </trkpt>
      <trkpt lat="47.9981" lon="-3.71879">
        <ele>160.2</ele>
        <time>2020-06-07T15:39:21Z</time>
      </trkpt>
      <trkpt lat="47.99817" lon="-3.71883">
        <ele>160.1</ele>
        <time>2020-06-07T15:39:22Z</time>
      </trkpt>
      <trkpt lat="47.99822" lon="-3.71886">
        <ele>160</ele>
        <time>2020-06-07T15:39:23Z</time>
      </trkpt>
      <trkpt lat="47.99829" lon="-3.71889">
        <ele>159.9</ele>
        <time>2020-06-07T15:39:24Z</time>
      </trkpt>
      <trkpt lat="47.99835" lon="-3.71893">
        <ele>159.9</ele>
        <time>2020-06-07T15:39:25Z</time>
      </trkpt>
      <trkpt lat="47.9984" lon="-3.71897">
        <ele>159.9</ele>
        <time>2020-06-07T15:39:26Z</time>
      </trkpt>
      <trkpt lat="47.99846" lon="-3.719">
        <ele>159.9</ele>
        <time>2020-06-07T15:39:27Z</time>
      </trkpt>
      <trkpt lat="47.99852" lon="-3.71904">
        <ele>159.8</ele>
        <time>2020-06-07T15:39:28Z</time>
      </trkpt>
      <trkpt lat="47.99858" lon="-3.71907">
        <ele>159.8</ele>
        <time>2020-06-07T15:39:29Z</time>
      </trkpt>
      <trkpt lat="47.99864" lon="-3.7191">
        <ele>159.7</ele>
        <time>2020-06-07T15:39:30Z</time>
      </trkpt>
      <trkpt lat="47.9987" lon="-3.71913">
        <ele>159.7</ele>
        <time>2020-06-07T15:39:31Z</time>
      </trkpt>
      <trkpt lat="47.99876" lon="-3.71915">
        <ele>159.6</ele>
        <time>2020-06-07T15:39:32Z</time>
      </trkpt>
      <trkpt lat="47.99882" lon="-3.71918">
        <ele>159.5</ele>
        <time>2020-06-07T15:39:33Z</time>
      </trkpt>
      <trkpt lat="47.99887" lon="-3.71921">
        <ele>159.4</ele>
        <time>2020-06-07T15:39:34Z</time>
      </trkpt>
      <trkpt lat="47.99893" lon="-3.71922">
        <ele>159.4</ele>
        <time>2020-06-07T15:39:35Z</time>
      </trkpt>
      <trkpt lat="47.99899" lon="-3.71923">
        <ele>159.3</ele>
        <time>2020-06-07T15:39:36Z</time>
      </trkpt>
      <trkpt lat="47.99905" lon="-3.71925">
        <ele>159.2</ele>
        <time>2020-06-07T15:39:37Z</time>
      </trkpt>
      <trkpt lat="47.9991" lon="-3.71928">
        <ele>159.2</ele>
        <time>2020-06-07T15:39:38Z</time>
      </trkpt>
      <trkpt lat="47.99916" lon="-3.7193">
        <ele>159.1</ele>
        <time>2020-06-07T15:39:39Z</time>
      </trkpt>
      <trkpt lat="47.99922" lon="-3.71932">
        <ele>159.1</ele>
        <time>2020-06-07T15:39:40Z</time>
      </trkpt>
      <trkpt lat="47.99928" lon="-3.71935">
        <ele>159.1</ele>
        <time>2020-06-07T15:39:41Z</time>
      </trkpt>
      <trkpt lat="47.99933" lon="-3.71936">
        <ele>159.1</ele>
        <time>2020-06-07T15:39:42Z</time>
      </trkpt>
      <trkpt lat="47.99939" lon="-3.71939">
        <ele>159.1</ele>
        <time>2020-06-07T15:39:43Z</time>
      </trkpt>
      <trkpt lat="47.99945" lon="-3.7194">
        <ele>159.1</ele>
        <time>2020-06-07T15:39:44Z</time>
      </trkpt>
      <trkpt lat="47.9995" lon="-3.71943">
        <ele>159.1</ele>
        <time>2020-06-07T15:39:45Z</time>
      </trkpt>
      <trkpt lat="47.99956" lon="-3.71945">
        <ele>159.2</ele>
        <time>2020-06-07T15:39:46Z</time>
      </trkpt>
      <trkpt lat="47.99961" lon="-3.71947">
        <ele>159.2</ele>
        <time>2020-06-07T15:39:47Z</time>
      </trkpt>
      <trkpt lat="47.99966" lon="-3.71949">
        <ele>159.2</ele>
        <time>2020-06-07T15:39:48Z</time>
      </trkpt>
      <trkpt lat="47.99972" lon="-3.71951">
        <ele>159.1</ele>
        <time>2020-06-07T15:39:49Z</time>
      </trkpt>
      <trkpt lat="47.99977" lon="-3.71953">
        <ele>159.1</ele>
        <time>2020-06-07T15:39:50Z</time>
      </trkpt>
      <trkpt lat="47.99982" lon="-3.71955">
        <ele>159.1</ele>
        <time>2020-06-07T15:39:51Z</time>
      </trkpt>
      <trkpt lat="47.99987" lon="-3.71957">
        <ele>159.1</ele>
        <time>2020-06-07T15:39:52Z</time>
      </trkpt>
      <trkpt lat="47.99992" lon="-3.71959">
        <ele>159.2</ele>
        <time>2020-06-07T15:39:53Z</time>
      </trkpt>
      <trkpt lat="47.99997" lon="-3.71959">
        <ele>159.2</ele>
        <time>2020-06-07T15:39:54Z</time>
      </trkpt>
      <trkpt lat="48.00002" lon="-3.7196">
        <ele>159.3</ele>
        <time>2020-06-07T15:39:55Z</time>
      </trkpt>
      <trkpt lat="48.00007" lon="-3.71962">
        <ele>159.3</ele>
        <time>2020-06-07T15:39:56Z</time>
      </trkpt>
      <trkpt lat="48.00012" lon="-3.71964">
        <ele>159.4</ele>
        <time>2020-06-07T15:39:57Z</time>
      </trkpt>
      <trkpt lat="48.00017" lon="-3.71965">
        <ele>159.4</ele>
        <time>2020-06-07T15:39:58Z</time>
      </trkpt>
      <trkpt lat="48.00022" lon="-3.71965">
        <ele>159.5</ele>
        <time>2020-06-07T15:39:59Z</time>
      </trkpt>
      <trkpt lat="48.00027" lon="-3.71966">
        <ele>159.5</ele>
        <time>2020-06-07T15:40:00Z</time>
      </trkpt>
      <trkpt lat="48.00033" lon="-3.71967">
        <ele>159.6</ele>
        <time>2020-06-07T15:40:01Z</time>
      </trkpt>
      <trkpt lat="48.00038" lon="-3.71967">
        <ele>159.6</ele>
        <time>2020-06-07T15:40:02Z</time>
      </trkpt>
      <trkpt lat="48.00043" lon="-3.71967">
        <ele>159.6</ele>
        <time>2020-06-07T15:40:03Z</time>
      </trkpt>
      <trkpt lat="48.00048" lon="-3.71968">
        <ele>159.6</ele>
        <time>2020-06-07T15:40:04Z</time>
      </trkpt>
      <trkpt lat="48.00053" lon="-3.71969">
        <ele>159.7</ele>
        <time>2020-06-07T15:40:05Z</time>
      </trkpt>
      <trkpt lat="48.00058" lon="-3.7197">
        <ele>159.7</ele>
        <time>2020-06-07T15:40:06Z</time>
      </trkpt>
      <trkpt lat="48.00064" lon="-3.71971">
        <ele>159.8</ele>
        <time>2020-06-07T15:40:07Z</time>
      </trkpt>
      <trkpt lat="48.00069" lon="-3.71972">
        <ele>159.8</ele>
        <time>2020-06-07T15:40:08Z</time>
      </trkpt>
      <trkpt lat="48.00073" lon="-3.71973">
        <ele>159.8</ele>
        <time>2020-06-07T15:40:09Z</time>
      </trkpt>
      <trkpt lat="48.00078" lon="-3.71975">
        <ele>159.9</ele>
        <time>2020-06-07T15:40:10Z</time>
      </trkpt>
      <trkpt lat="48.00084" lon="-3.71977">
        <ele>159.9</ele>
        <time>2020-06-07T15:40:11Z</time>
      </trkpt>
      <trkpt lat="48.00089" lon="-3.71977">
        <ele>160</ele>
        <time>2020-06-07T15:40:12Z</time>
      </trkpt>
      <trkpt lat="48.00093" lon="-3.71979">
        <ele>160</ele>
        <time>2020-06-07T15:40:13Z</time>
      </trkpt>
      <trkpt lat="48.00098" lon="-3.7198">
        <ele>160</ele>
        <time>2020-06-07T15:40:14Z</time>
      </trkpt>
      <trkpt lat="48.00103" lon="-3.7198">
        <ele>160</ele>
        <time>2020-06-07T15:40:15Z</time>
      </trkpt>
      <trkpt lat="48.00108" lon="-3.71981">
        <ele>160</ele>
        <time>2020-06-07T15:40:16Z</time>
      </trkpt>
      <trkpt lat="48.00114" lon="-3.71983">
        <ele>160</ele>
        <time>2020-06-07T15:40:17Z</time>
      </trkpt>
      <trkpt lat="48.00119" lon="-3.71985">
        <ele>160</ele>
        <time>2020-06-07T15:40:18Z</time>
      </trkpt>
      <trkpt lat="48.00124" lon="-3.71986">
        <ele>160</ele>
        <time>2020-06-07T15:40:19Z</time>
      </trkpt>
      <trkpt lat="48.00129" lon="-3.71987">
        <ele>160.1</ele>
        <time>2020-06-07T15:40:20Z</time>
      </trkpt>
      <trkpt lat="48.00135" lon="-3.71988">
        <ele>160.1</ele>
        <time>2020-06-07T15:40:21Z</time>
      </trkpt>
      <trkpt lat="48.0014" lon="-3.7199">
        <ele>160.1</ele>
        <time>2020-06-07T15:40:22Z</time>
      </trkpt>
      <trkpt lat="48.00146" lon="-3.71991">
        <ele>160.1</ele>
        <time>2020-06-07T15:40:23Z</time>
      </trkpt>
      <trkpt lat="48.00151" lon="-3.71993">
        <ele>160.1</ele>
        <time>2020-06-07T15:40:24Z</time>
      </trkpt>
      <trkpt lat="48.00156" lon="-3.71994">
        <ele>160.2</ele>
        <time>2020-06-07T15:40:25Z</time>
      </trkpt>
      <trkpt lat="48.00161" lon="-3.71995">
        <ele>160.2</ele>
        <time>2020-06-07T15:40:26Z</time>
      </trkpt>
      <trkpt lat="48.00167" lon="-3.71997">
        <ele>160.2</ele>
        <time>2020-06-07T15:40:27Z</time>
      </trkpt>
      <trkpt lat="48.00172" lon="-3.71998">
        <ele>160.2</ele>
        <time>2020-06-07T15:40:28Z</time>
      </trkpt>
      <trkpt lat="48.00178" lon="-3.72">
        <ele>160.2</ele>
        <time>2020-06-07T15:40:29Z</time>
      </trkpt>
      <trkpt lat="48.00183" lon="-3.72001">
        <ele>160.2</ele>
        <time>2020-06-07T15:40:30Z</time>
      </trkpt>
      <trkpt lat="48.00188" lon="-3.72003">
        <ele>160.3</ele>
        <time>2020-06-07T15:40:31Z</time>
      </trkpt>
      <trkpt lat="48.00194" lon="-3.72004">
        <ele>160.3</ele>
        <time>2020-06-07T15:40:32Z</time>
      </trkpt>
      <trkpt lat="48.002" lon="-3.72004">
        <ele>160.2</ele>
        <time>2020-06-07T15:40:33Z</time>
      </trkpt>
      <trkpt lat="48.00205" lon="-3.72006">
        <ele>160.2</ele>
        <time>2020-06-07T15:40:34Z</time>
      </trkpt>
      <trkpt lat="48.00211" lon="-3.72008">
        <ele>160.2</ele>
        <time>2020-06-07T15:40:35Z</time>
      </trkpt>
      <trkpt lat="48.00217" lon="-3.7201">
        <ele>160.2</ele>
        <time>2020-06-07T15:40:36Z</time>
      </trkpt>
      <trkpt lat="48.00222" lon="-3.72011">
        <ele>160.2</ele>
        <time>2020-06-07T15:40:37Z</time>
      </trkpt>
      <trkpt lat="48.00228" lon="-3.72013">
        <ele>160.2</ele>
        <time>2020-06-07T15:40:38Z</time>
      </trkpt>
      <trkpt lat="48.00233" lon="-3.72014">
        <ele>160.2</ele>
        <time>2020-06-07T15:40:39Z</time>
      </trkpt>
      <trkpt lat="48.00239" lon="-3.72015">
        <ele>160.2</ele>
        <time>2020-06-07T15:40:40Z</time>
      </trkpt>
      <trkpt lat="48.00245" lon="-3.72015">
        <ele>160.2</ele>
        <time>2020-06-07T15:40:41Z</time>
      </trkpt>
      <trkpt lat="48.0025" lon="-3.72016">
        <ele>160.3</ele>
        <time>2020-06-07T15:40:42Z</time>
      </trkpt>
      <trkpt lat="48.00255" lon="-3.72018">
        <ele>160.3</ele>
        <time>2020-06-07T15:40:43Z</time>
      </trkpt>
      <trkpt lat="48.00261" lon="-3.7202">
        <ele>160.4</ele>
        <time>2020-06-07T15:40:44Z</time>
      </trkpt>
      <trkpt lat="48.00266" lon="-3.72022">
        <ele>160.4</ele>
        <time>2020-06-07T15:40:45Z</time>
      </trkpt>
      <trkpt lat="48.00272" lon="-3.72024">
        <ele>160.5</ele>
        <time>2020-06-07T15:40:46Z</time>
      </trkpt>
      <trkpt lat="48.00277" lon="-3.72025">
        <ele>160.5</ele>
        <time>2020-06-07T15:40:47Z</time>
      </trkpt>
      <trkpt lat="48.00283" lon="-3.72027">
        <ele>160.6</ele>
        <time>2020-06-07T15:40:48Z</time>
      </trkpt>
      <trkpt lat="48.00288" lon="-3.72028">
        <ele>160.6</ele>
        <time>2020-06-07T15:40:49Z</time>
      </trkpt>
      <trkpt lat="48.00294" lon="-3.7203">
        <ele>160.7</ele>
        <time>2020-06-07T15:40:50Z</time>
      </trkpt>
      <trkpt lat="48.00299" lon="-3.72031">
        <ele>160.8</ele>
        <time>2020-06-07T15:40:51Z</time>
      </trkpt>
      <trkpt lat="48.00305" lon="-3.72032">
        <ele>160.8</ele>
        <time>2020-06-07T15:40:52Z</time>
      </trkpt>
      <trkpt lat="48.0031" lon="-3.72033">
        <ele>160.8</ele>
        <time>2020-06-07T15:40:53Z</time>
      </trkpt>
      <trkpt lat="48.00316" lon="-3.72034">
        <ele>160.8</ele>
        <time>2020-06-07T15:40:54Z</time>
      </trkpt>
      <trkpt lat="48.00321" lon="-3.72035">
        <ele>160.8</ele>
        <time>2020-06-07T15:40:55Z</time>
      </trkpt>
      <trkpt lat="48.00327" lon="-3.72036">
        <ele>160.8</ele>
        <time>2020-06-07T15:40:56Z</time>
      </trkpt>
      <trkpt lat="48.00332" lon="-3.72036">
        <ele>160.8</ele>
        <time>2020-06-07T15:40:57Z</time>
      </trkpt>
      <trkpt lat="48.00338" lon="-3.72037">
        <ele>160.8</ele>
        <time>2020-06-07T15:40:58Z</time>
      </trkpt>
      <trkpt lat="48.00343" lon="-3.72039">
        <ele>160.8</ele>
        <time>2020-06-07T15:40:59Z</time>
      </trkpt>
      <trkpt lat="48.00349" lon="-3.7204">
        <ele>160.9</ele>
        <time>2020-06-07T15:41:00Z</time>
      </trkpt>
      <trkpt lat="48.00354" lon="-3.72042">
        <ele>160.9</ele>
        <time>2020-06-07T15:41:01Z</time>
      </trkpt>
      <trkpt lat="48.0036" lon="-3.72043">
        <ele>160.9</ele>
        <time>2020-06-07T15:41:02Z</time>
      </trkpt>
      <trkpt lat="48.00365" lon="-3.72045">
        <ele>160.9</ele>
        <time>2020-06-07T15:41:03Z</time>
      </trkpt>
      <trkpt lat="48.00371" lon="-3.72046">
        <ele>161</ele>
        <time>2020-06-07T15:41:04Z</time>
      </trkpt>
      <trkpt lat="48.00376" lon="-3.72047">
        <ele>161</ele>
        <time>2020-06-07T15:41:05Z</time>
      </trkpt>
      <trkpt lat="48.00382" lon="-3.72046">
        <ele>161</ele>
        <time>2020-06-07T15:41:06Z</time>
      </trkpt>
      <trkpt lat="48.00387" lon="-3.72047">
        <ele>161.1</ele>
        <time>2020-06-07T15:41:07Z</time>
      </trkpt>
      <trkpt lat="48.00393" lon="-3.72047">
        <ele>161.1</ele>
        <time>2020-06-07T15:41:08Z</time>
      </trkpt>
      <trkpt lat="48.00398" lon="-3.72048">
        <ele>161.1</ele>
        <time>2020-06-07T15:41:09Z</time>
      </trkpt>
      <trkpt lat="48.00404" lon="-3.72048">
        <ele>161.1</ele>
        <time>2020-06-07T15:41:10Z</time>
      </trkpt>
      <trkpt lat="48.00409" lon="-3.72049">
        <ele>161.1</ele>
        <time>2020-06-07T15:41:11Z</time>
      </trkpt>
      <trkpt lat="48.00415" lon="-3.7205">
        <ele>161.1</ele>
        <time>2020-06-07T15:41:12Z</time>
      </trkpt>
      <trkpt lat="48.0042" lon="-3.72051">
        <ele>161.1</ele>
        <time>2020-06-07T15:41:13Z</time>
      </trkpt>
      <trkpt lat="48.00426" lon="-3.72052">
        <ele>161.1</ele>
        <time>2020-06-07T15:41:14Z</time>
      </trkpt>
      <trkpt lat="48.00431" lon="-3.72053">
        <ele>161.2</ele>
        <time>2020-06-07T15:41:15Z</time>
      </trkpt>
      <trkpt lat="48.00436" lon="-3.72053">
        <ele>161.2</ele>
        <time>2020-06-07T15:41:16Z</time>
      </trkpt>
      <trkpt lat="48.00442" lon="-3.72054">
        <ele>161.2</ele>
        <time>2020-06-07T15:41:17Z</time>
      </trkpt>
      <trkpt lat="48.00447" lon="-3.72054">
        <ele>161.2</ele>
        <time>2020-06-07T15:41:18Z</time>
      </trkpt>
      <trkpt lat="48.00453" lon="-3.72055">
        <ele>161.2</ele>
        <time>2020-06-07T15:41:19Z</time>
      </trkpt>
      <trkpt lat="48.00458" lon="-3.72056">
        <ele>161.2</ele>
        <time>2020-06-07T15:41:20Z</time>
      </trkpt>
      <trkpt lat="48.00464" lon="-3.72057">
        <ele>161.3</ele>
        <time>2020-06-07T15:41:21Z</time>
      </trkpt>
      <trkpt lat="48.00469" lon="-3.72058">
        <ele>161.3</ele>
        <time>2020-06-07T15:41:22Z</time>
      </trkpt>
      <trkpt lat="48.00475" lon="-3.72059">
        <ele>161.4</ele>
        <time>2020-06-07T15:41:23Z</time>
      </trkpt>
      <trkpt lat="48.00481" lon="-3.7206">
        <ele>161.4</ele>
        <time>2020-06-07T15:41:24Z</time>
      </trkpt>
      <trkpt lat="48.00486" lon="-3.7206">
        <ele>161.5</ele>
        <time>2020-06-07T15:41:25Z</time>
      </trkpt>
      <trkpt lat="48.00492" lon="-3.72059">
        <ele>161.5</ele>
        <time>2020-06-07T15:41:26Z</time>
      </trkpt>
      <trkpt lat="48.00497" lon="-3.72059">
        <ele>161.6</ele>
        <time>2020-06-07T15:41:27Z</time>
      </trkpt>
      <trkpt lat="48.00503" lon="-3.72059">
        <ele>161.7</ele>
        <time>2020-06-07T15:41:28Z</time>
      </trkpt>
      <trkpt lat="48.00508" lon="-3.7206">
        <ele>161.7</ele>
        <time>2020-06-07T15:41:29Z</time>
      </trkpt>
      <trkpt lat="48.00514" lon="-3.7206">
        <ele>161.8</ele>
        <time>2020-06-07T15:41:30Z</time>
      </trkpt>
      <trkpt lat="48.00519" lon="-3.72061">
        <ele>161.8</ele>
        <time>2020-06-07T15:41:31Z</time>
      </trkpt>
      <trkpt lat="48.00524" lon="-3.72061">
        <ele>161.9</ele>
        <time>2020-06-07T15:41:32Z</time>
      </trkpt>
      <trkpt lat="48.00528" lon="-3.72061">
        <ele>161.9</ele>
        <time>2020-06-07T15:41:33Z</time>
      </trkpt>
      <trkpt lat="48.00533" lon="-3.7206">
        <ele>161.9</ele>
        <time>2020-06-07T15:41:34Z</time>
      </trkpt>
      <trkpt lat="48.00538" lon="-3.72061">
        <ele>162</ele>
        <time>2020-06-07T15:41:35Z</time>
      </trkpt>
      <trkpt lat="48.00542" lon="-3.7206">
        <ele>162</ele>
        <time>2020-06-07T15:41:36Z</time>
      </trkpt>
      <trkpt lat="48.00547" lon="-3.72061">
        <ele>162.1</ele>
        <time>2020-06-07T15:41:37Z</time>
      </trkpt>
      <trkpt lat="48.00552" lon="-3.72061">
        <ele>162.2</ele>
        <time>2020-06-07T15:41:38Z</time>
      </trkpt>
      <trkpt lat="48.00557" lon="-3.7206">
        <ele>162.2</ele>
        <time>2020-06-07T15:41:39Z</time>
      </trkpt>
      <trkpt lat="48.00562" lon="-3.72061">
        <ele>162.3</ele>
        <time>2020-06-07T15:41:40Z</time>
      </trkpt>
      <trkpt lat="48.00567" lon="-3.72061">
        <ele>162.3</ele>
        <time>2020-06-07T15:41:41Z</time>
      </trkpt>
      <trkpt lat="48.00572" lon="-3.7206">
        <ele>162.4</ele>
        <time>2020-06-07T15:41:42Z</time>
      </trkpt>
      <trkpt lat="48.00576" lon="-3.7206">
        <ele>162.4</ele>
        <time>2020-06-07T15:41:43Z</time>
      </trkpt>
      <trkpt lat="48.00581" lon="-3.7206">
        <ele>162.5</ele>
        <time>2020-06-07T15:41:44Z</time>
      </trkpt>
      <trkpt lat="48.00586" lon="-3.7206">
        <ele>162.6</ele>
        <time>2020-06-07T15:41:45Z</time>
      </trkpt>
      <trkpt lat="48.00591" lon="-3.72059">
        <ele>162.6</ele>
        <time>2020-06-07T15:41:46Z</time>
      </trkpt>
      <trkpt lat="48.00596" lon="-3.7206">
        <ele>162.7</ele>
        <time>2020-06-07T15:41:47Z</time>
      </trkpt>
      <trkpt lat="48.00601" lon="-3.72061">
        <ele>162.9</ele>
        <time>2020-06-07T15:41:48Z</time>
      </trkpt>
      <trkpt lat="48.00606" lon="-3.72062">
        <ele>163</ele>
        <time>2020-06-07T15:41:49Z</time>
      </trkpt>
      <trkpt lat="48.0061" lon="-3.72063">
        <ele>163.1</ele>
        <time>2020-06-07T15:41:50Z</time>
      </trkpt>
      <trkpt lat="48.00614" lon="-3.72064">
        <ele>163.2</ele>
        <time>2020-06-07T15:41:51Z</time>
      </trkpt>
      <trkpt lat="48.00618" lon="-3.72063">
        <ele>163.3</ele>
        <time>2020-06-07T15:41:52Z</time>
      </trkpt>
      <trkpt lat="48.00623" lon="-3.72062">
        <ele>163.5</ele>
        <time>2020-06-07T15:41:53Z</time>
      </trkpt>
      <trkpt lat="48.00628" lon="-3.72062">
        <ele>163.6</ele>
        <time>2020-06-07T15:41:54Z</time>
      </trkpt>
      <trkpt lat="48.00633" lon="-3.7206">
        <ele>163.7</ele>
        <time>2020-06-07T15:41:55Z</time>
      </trkpt>
      <trkpt lat="48.00638" lon="-3.7206">
        <ele>163.8</ele>
        <time>2020-06-07T15:41:56Z</time>
      </trkpt>
      <trkpt lat="48.00642" lon="-3.7206">
        <ele>164</ele>
        <time>2020-06-07T15:41:57Z</time>
      </trkpt>
      <trkpt lat="48.00647" lon="-3.7206">
        <ele>164.1</ele>
        <time>2020-06-07T15:41:58Z</time>
      </trkpt>
      <trkpt lat="48.00651" lon="-3.7206">
        <ele>164.2</ele>
        <time>2020-06-07T15:41:59Z</time>
      </trkpt>
      <trkpt lat="48.00655" lon="-3.72059">
        <ele>164.3</ele>
        <time>2020-06-07T15:42:00Z</time>
      </trkpt>
      <trkpt lat="48.0066" lon="-3.72058">
        <ele>164.4</ele>
        <time>2020-06-07T15:42:01Z</time>
      </trkpt>
      <trkpt lat="48.00664" lon="-3.72057">
        <ele>164.5</ele>
        <time>2020-06-07T15:42:02Z</time>
      </trkpt>
      <trkpt lat="48.00669" lon="-3.72056">
        <ele>164.6</ele>
        <time>2020-06-07T15:42:03Z</time>
      </trkpt>
      <trkpt lat="48.00673" lon="-3.72056">
        <ele>164.6</ele>
        <time>2020-06-07T15:42:04Z</time>
      </trkpt>
      <trkpt lat="48.00678" lon="-3.72056">
        <ele>164.7</ele>
        <time>2020-06-07T15:42:05Z</time>
      </trkpt>
      <trkpt lat="48.00683" lon="-3.72056">
        <ele>164.8</ele>
        <time>2020-06-07T15:42:06Z</time>
      </trkpt>
      <trkpt lat="48.00687" lon="-3.72058">
        <ele>164.8</ele>
        <time>2020-06-07T15:42:07Z</time>
      </trkpt>
      <trkpt lat="48.00692" lon="-3.72055">
        <ele>164.9</ele>
        <time>2020-06-07T15:42:08Z</time>
      </trkpt>
      <trkpt lat="48.00696" lon="-3.72051">
        <ele>165</ele>
        <time>2020-06-07T15:42:09Z</time>
      </trkpt>
      <trkpt lat="48.007" lon="-3.72047">
        <ele>165.1</ele>
        <time>2020-06-07T15:42:10Z</time>
      </trkpt>
      <trkpt lat="48.00705" lon="-3.72045">
        <ele>165.2</ele>
        <time>2020-06-07T15:42:11Z</time>
      </trkpt>
      <trkpt lat="48.00709" lon="-3.72046">
        <ele>165.3</ele>
        <time>2020-06-07T15:42:12Z</time>
      </trkpt>
      <trkpt lat="48.00714" lon="-3.72046">
        <ele>165.4</ele>
        <time>2020-06-07T15:42:13Z</time>
      </trkpt>
      <trkpt lat="48.00718" lon="-3.72047">
        <ele>165.5</ele>
        <time>2020-06-07T15:42:14Z</time>
      </trkpt>
      <trkpt lat="48.00721" lon="-3.72048">
        <ele>165.6</ele>
        <time>2020-06-07T15:42:15Z</time>
      </trkpt>
      <trkpt lat="48.00726" lon="-3.72048">
        <ele>165.8</ele>
        <time>2020-06-07T15:42:16Z</time>
      </trkpt>
      <trkpt lat="48.0073" lon="-3.72049">
        <ele>165.9</ele>
        <time>2020-06-07T15:42:17Z</time>
      </trkpt>
      <trkpt lat="48.00736" lon="-3.7205">
        <ele>166</ele>
        <time>2020-06-07T15:42:18Z</time>
      </trkpt>
      <trkpt lat="48.00742" lon="-3.7205">
        <ele>166.2</ele>
        <time>2020-06-07T15:42:19Z</time>
      </trkpt>
      <trkpt lat="48.00746" lon="-3.72051">
        <ele>166.3</ele>
        <time>2020-06-07T15:42:20Z</time>
      </trkpt>
      <trkpt lat="48.00752" lon="-3.72052">
        <ele>166.5</ele>
        <time>2020-06-07T15:42:21Z</time>
      </trkpt>
      <trkpt lat="48.00759" lon="-3.72053">
        <ele>166.6</ele>
        <time>2020-06-07T15:42:22Z</time>
      </trkpt>
      <trkpt lat="48.00766" lon="-3.72055">
        <ele>166.8</ele>
        <time>2020-06-07T15:42:23Z</time>
      </trkpt>
      <trkpt lat="48.00772" lon="-3.72056">
        <ele>167</ele>
        <time>2020-06-07T15:42:24Z</time>
      </trkpt>
      <trkpt lat="48.00779" lon="-3.72055">
        <ele>167.1</ele>
        <time>2020-06-07T15:42:25Z</time>
      </trkpt>
      <trkpt lat="48.00786" lon="-3.72055">
        <ele>167.3</ele>
        <time>2020-06-07T15:42:26Z</time>
      </trkpt>
      <trkpt lat="48.00791" lon="-3.72054">
        <ele>167.4</ele>
        <time>2020-06-07T15:42:27Z</time>
      </trkpt>
      <trkpt lat="48.00796" lon="-3.72053">
        <ele>167.6</ele>
        <time>2020-06-07T15:42:28Z</time>
      </trkpt>
      <trkpt lat="48.00801" lon="-3.72052">
        <ele>167.7</ele>
        <time>2020-06-07T15:42:29Z</time>
      </trkpt>
      <trkpt lat="48.00807" lon="-3.72052">
        <ele>167.8</ele>
        <time>2020-06-07T15:42:30Z</time>
      </trkpt>
      <trkpt lat="48.00811" lon="-3.72051">
        <ele>168</ele>
        <time>2020-06-07T15:42:31Z</time>
      </trkpt>
      <trkpt lat="48.00815" lon="-3.7205">
        <ele>168.1</ele>
        <time>2020-06-07T15:42:32Z</time>
      </trkpt>
      <trkpt lat="48.00819" lon="-3.72049">
        <ele>168.2</ele>
        <time>2020-06-07T15:42:33Z</time>
      </trkpt>
      <trkpt lat="48.00825" lon="-3.72049">
        <ele>168.4</ele>
        <time>2020-06-07T15:42:34Z</time>
      </trkpt>
      <trkpt lat="48.00829" lon="-3.72049">
        <ele>168.5</ele>
        <time>2020-06-07T15:42:35Z</time>
      </trkpt>
      <trkpt lat="48.00834" lon="-3.72049">
        <ele>168.6</ele>
        <time>2020-06-07T15:42:36Z</time>
      </trkpt>
      <trkpt lat="48.00839" lon="-3.7205">
        <ele>168.8</ele>
        <time>2020-06-07T15:42:37Z</time>
      </trkpt>
      <trkpt lat="48.00844" lon="-3.7205">
        <ele>168.9</ele>
        <time>2020-06-07T15:42:38Z</time>
      </trkpt>
      <trkpt lat="48.00848" lon="-3.72049">
        <ele>169</ele>
        <time>2020-06-07T15:42:39Z</time>
      </trkpt>
      <trkpt lat="48.00853" lon="-3.72049">
        <ele>169.1</ele>
        <time>2020-06-07T15:42:40Z</time>
      </trkpt>
      <trkpt lat="48.00857" lon="-3.7205">
        <ele>169.2</ele>
        <time>2020-06-07T15:42:41Z</time>
      </trkpt>
      <trkpt lat="48.00863" lon="-3.72051">
        <ele>169.3</ele>
        <time>2020-06-07T15:42:42Z</time>
      </trkpt>
      <trkpt lat="48.00867" lon="-3.7205">
        <ele>169.4</ele>
        <time>2020-06-07T15:42:43Z</time>
      </trkpt>
      <trkpt lat="48.00873" lon="-3.7205">
        <ele>169.6</ele>
        <time>2020-06-07T15:42:44Z</time>
      </trkpt>
      <trkpt lat="48.00878" lon="-3.72051">
        <ele>169.7</ele>
        <time>2020-06-07T15:42:45Z</time>
      </trkpt>
      <trkpt lat="48.00884" lon="-3.7205">
        <ele>169.9</ele>
        <time>2020-06-07T15:42:46Z</time>
      </trkpt>
      <trkpt lat="48.00889" lon="-3.72051">
        <ele>170.1</ele>
        <time>2020-06-07T15:42:47Z</time>
      </trkpt>
      <trkpt lat="48.00894" lon="-3.7205">
        <ele>170.2</ele>
        <time>2020-06-07T15:42:48Z</time>
      </trkpt>
      <trkpt lat="48.00898" lon="-3.7205">
        <ele>170.3</ele>
        <time>2020-06-07T15:42:49Z</time>
      </trkpt>
      <trkpt lat="48.00902" lon="-3.7205">
        <ele>170.4</ele>
        <time>2020-06-07T15:42:50Z</time>
      </trkpt>
      <trkpt lat="48.00906" lon="-3.7205">
        <ele>170.5</ele>
        <time>2020-06-07T15:42:51Z</time>
      </trkpt>
      <trkpt lat="48.00911" lon="-3.7205">
        <ele>170.7</ele>
        <time>2020-06-07T15:42:52Z</time>
      </trkpt>
      <trkpt lat="48.00915" lon="-3.7205">
        <ele>170.8</ele>
        <time>2020-06-07T15:42:53Z</time>
      </trkpt>
      <trkpt lat="48.0092" lon="-3.7205">
        <ele>170.9</ele>
        <time>2020-06-07T15:42:54Z</time>
      </trkpt>
      <trkpt lat="48.00924" lon="-3.7205">
        <ele>171</ele>
        <time>2020-06-07T15:42:55Z</time>
      </trkpt>
      <trkpt lat="48.00928" lon="-3.72051">
        <ele>171.1</ele>
        <time>2020-06-07T15:42:56Z</time>
      </trkpt>
      <trkpt lat="48.00931" lon="-3.72051">
        <ele>171.2</ele>
        <time>2020-06-07T15:42:57Z</time>
      </trkpt>
      <trkpt lat="48.00935" lon="-3.72051">
        <ele>171.3</ele>
        <time>2020-06-07T15:42:58Z</time>
      </trkpt>
      <trkpt lat="48.0094" lon="-3.72052">
        <ele>171.4</ele>
        <time>2020-06-07T15:42:59Z</time>
      </trkpt>
      <trkpt lat="48.00944" lon="-3.72053">
        <ele>171.5</ele>
        <time>2020-06-07T15:43:00Z</time>
      </trkpt>
      <trkpt lat="48.00946" lon="-3.72054">
        <ele>171.6</ele>
        <time>2020-06-07T15:43:01Z</time>
      </trkpt>
      <trkpt lat="48.00951" lon="-3.72054">
        <ele>171.7</ele>
        <time>2020-06-07T15:43:02Z</time>
      </trkpt>
      <trkpt lat="48.00955" lon="-3.72052">
        <ele>171.8</ele>
        <time>2020-06-07T15:43:03Z</time>
      </trkpt>
      <trkpt lat="48.00959" lon="-3.72053">
        <ele>171.9</ele>
        <time>2020-06-07T15:43:04Z</time>
      </trkpt>
      <trkpt lat="48.00964" lon="-3.72053">
        <ele>171.9</ele>
        <time>2020-06-07T15:43:05Z</time>
      </trkpt>
      <trkpt lat="48.00969" lon="-3.72053">
        <ele>172</ele>
        <time>2020-06-07T15:43:06Z</time>
      </trkpt>
      <trkpt lat="48.00975" lon="-3.72053">
        <ele>172.1</ele>
        <time>2020-06-07T15:43:07Z</time>
      </trkpt>
      <trkpt lat="48.00979" lon="-3.72053">
        <ele>172.2</ele>
        <time>2020-06-07T15:43:08Z</time>
      </trkpt>
      <trkpt lat="48.00983" lon="-3.72052">
        <ele>172.3</ele>
        <time>2020-06-07T15:43:09Z</time>
      </trkpt>
      <trkpt lat="48.00989" lon="-3.72052">
        <ele>172.5</ele>
        <time>2020-06-07T15:43:10Z</time>
      </trkpt>
      <trkpt lat="48.00993" lon="-3.72052">
        <ele>172.6</ele>
        <time>2020-06-07T15:43:11Z</time>
      </trkpt>
      <trkpt lat="48.00997" lon="-3.72052">
        <ele>172.7</ele>
        <time>2020-06-07T15:43:12Z</time>
      </trkpt>
      <trkpt lat="48.01001" lon="-3.72052">
        <ele>172.8</ele>
        <time>2020-06-07T15:43:13Z</time>
      </trkpt>
      <trkpt lat="48.01005" lon="-3.72053">
        <ele>172.9</ele>
        <time>2020-06-07T15:43:14Z</time>
      </trkpt>
      <trkpt lat="48.01009" lon="-3.72053">
        <ele>173.1</ele>
        <time>2020-06-07T15:43:15Z</time>
      </trkpt>
      <trkpt lat="48.01014" lon="-3.72053">
        <ele>173.2</ele>
        <time>2020-06-07T15:43:16Z</time>
      </trkpt>
      <trkpt lat="48.01018" lon="-3.72052">
        <ele>173.3</ele>
        <time>2020-06-07T15:43:17Z</time>
      </trkpt>
      <trkpt lat="48.01022" lon="-3.72052">
        <ele>173.5</ele>
        <time>2020-06-07T15:43:18Z</time>
      </trkpt>
      <trkpt lat="48.01026" lon="-3.72052">
        <ele>173.6</ele>
        <time>2020-06-07T15:43:19Z</time>
      </trkpt>
      <trkpt lat="48.01031" lon="-3.72052">
        <ele>173.9</ele>
        <time>2020-06-07T15:43:20Z</time>
      </trkpt>
      <trkpt lat="48.01036" lon="-3.72052">
        <ele>174</ele>
        <time>2020-06-07T15:43:21Z</time>
      </trkpt>
      <trkpt lat="48.0104" lon="-3.72052">
        <ele>174</ele>
        <time>2020-06-07T15:43:22Z</time>
      </trkpt>
      <trkpt lat="48.01044" lon="-3.72052">
        <ele>174.1</ele>
        <time>2020-06-07T15:43:23Z</time>
      </trkpt>
      <trkpt lat="48.01049" lon="-3.72052">
        <ele>174.2</ele>
        <time>2020-06-07T15:43:24Z</time>
      </trkpt>
      <trkpt lat="48.01053" lon="-3.72053">
        <ele>174.3</ele>
        <time>2020-06-07T15:43:25Z</time>
      </trkpt>
      <trkpt lat="48.01058" lon="-3.72054">
        <ele>174.4</ele>
        <time>2020-06-07T15:43:26Z</time>
      </trkpt>
      <trkpt lat="48.01062" lon="-3.72054">
        <ele>174.5</ele>
        <time>2020-06-07T15:43:27Z</time>
      </trkpt>
      <trkpt lat="48.01066" lon="-3.72054">
        <ele>174.6</ele>
        <time>2020-06-07T15:43:28Z</time>
      </trkpt>
      <trkpt lat="48.01071" lon="-3.72054">
        <ele>174.7</ele>
        <time>2020-06-07T15:43:29Z</time>
      </trkpt>
      <trkpt lat="48.01075" lon="-3.72054">
        <ele>174.8</ele>
        <time>2020-06-07T15:43:30Z</time>
      </trkpt>
      <trkpt lat="48.01078" lon="-3.72052">
        <ele>174.9</ele>
        <time>2020-06-07T15:43:31Z</time>
      </trkpt>
      <trkpt lat="48.01083" lon="-3.72052">
        <ele>175</ele>
        <time>2020-06-07T15:43:32Z</time>
      </trkpt>
      <trkpt lat="48.01087" lon="-3.72052">
        <ele>175.1</ele>
        <time>2020-06-07T15:43:33Z</time>
      </trkpt>
      <trkpt lat="48.01091" lon="-3.72051">
        <ele>175.3</ele>
        <time>2020-06-07T15:43:34Z</time>
      </trkpt>
      <trkpt lat="48.01096" lon="-3.72051">
        <ele>175.4</ele>
        <time>2020-06-07T15:43:35Z</time>
      </trkpt>
      <trkpt lat="48.011" lon="-3.72051">
        <ele>175.5</ele>
        <time>2020-06-07T15:43:36Z</time>
      </trkpt>
      <trkpt lat="48.01103" lon="-3.72049">
        <ele>175.6</ele>
        <time>2020-06-07T15:43:37Z</time>
      </trkpt>
      <trkpt lat="48.01108" lon="-3.72048">
        <ele>175.7</ele>
        <time>2020-06-07T15:43:38Z</time>
      </trkpt>
      <trkpt lat="48.01114" lon="-3.72049">
        <ele>175.8</ele>
        <time>2020-06-07T15:43:39Z</time>
      </trkpt>
      <trkpt lat="48.0112" lon="-3.7205">
        <ele>176</ele>
        <time>2020-06-07T15:43:40Z</time>
      </trkpt>
      <trkpt lat="48.01125" lon="-3.7205">
        <ele>176.1</ele>
        <time>2020-06-07T15:43:41Z</time>
      </trkpt>
      <trkpt lat="48.01129" lon="-3.72052">
        <ele>176.2</ele>
        <time>2020-06-07T15:43:42Z</time>
      </trkpt>
      <trkpt lat="48.01133" lon="-3.72052">
        <ele>176.2</ele>
        <time>2020-06-07T15:43:43Z</time>
      </trkpt>
      <trkpt lat="48.01138" lon="-3.72051">
        <ele>176.3</ele>
        <time>2020-06-07T15:43:44Z</time>
      </trkpt>
      <trkpt lat="48.01142" lon="-3.7205">
        <ele>176.4</ele>
        <time>2020-06-07T15:43:45Z</time>
      </trkpt>
      <trkpt lat="48.01145" lon="-3.72049">
        <ele>176.5</ele>
        <time>2020-06-07T15:43:46Z</time>
      </trkpt>
      <trkpt lat="48.01148" lon="-3.72048">
        <ele>176.5</ele>
        <time>2020-06-07T15:43:47Z</time>
      </trkpt>
      <trkpt lat="48.01152" lon="-3.72047">
        <ele>176.6</ele>
        <time>2020-06-07T15:43:48Z</time>
      </trkpt>
      <trkpt lat="48.01156" lon="-3.72046">
        <ele>176.7</ele>
        <time>2020-06-07T15:43:49Z</time>
      </trkpt>
      <trkpt lat="48.0116" lon="-3.72047">
        <ele>176.7</ele>
        <time>2020-06-07T15:43:50Z</time>
      </trkpt>
      <trkpt lat="48.01165" lon="-3.72048">
        <ele>176.8</ele>
        <time>2020-06-07T15:43:51Z</time>
      </trkpt>
      <trkpt lat="48.0117" lon="-3.72048">
        <ele>176.9</ele>
        <time>2020-06-07T15:43:52Z</time>
      </trkpt>
      <trkpt lat="48.01174" lon="-3.72048">
        <ele>177</ele>
        <time>2020-06-07T15:43:53Z</time>
      </trkpt>
      <trkpt lat="48.01178" lon="-3.72048">
        <ele>177</ele>
        <time>2020-06-07T15:43:54Z</time>
      </trkpt>
      <trkpt lat="48.01182" lon="-3.72048">
        <ele>177.1</ele>
        <time>2020-06-07T15:43:55Z</time>
      </trkpt>
      <trkpt lat="48.01186" lon="-3.72048">
        <ele>177.2</ele>
        <time>2020-06-07T15:43:56Z</time>
      </trkpt>
      <trkpt lat="48.01191" lon="-3.72047">
        <ele>177.3</ele>
        <time>2020-06-07T15:43:57Z</time>
      </trkpt>
      <trkpt lat="48.01196" lon="-3.72046">
        <ele>177.4</ele>
        <time>2020-06-07T15:43:58Z</time>
      </trkpt>
      <trkpt lat="48.01201" lon="-3.72046">
        <ele>177.5</ele>
        <time>2020-06-07T15:43:59Z</time>
      </trkpt>
      <trkpt lat="48.01205" lon="-3.72045">
        <ele>177.6</ele>
        <time>2020-06-07T15:44:00Z</time>
      </trkpt>
      <trkpt lat="48.0121" lon="-3.72045">
        <ele>177.7</ele>
        <time>2020-06-07T15:44:01Z</time>
      </trkpt>
      <trkpt lat="48.01214" lon="-3.72045">
        <ele>177.8</ele>
        <time>2020-06-07T15:44:02Z</time>
      </trkpt>
      <trkpt lat="48.0122" lon="-3.72045">
        <ele>177.9</ele>
        <time>2020-06-07T15:44:03Z</time>
      </trkpt>
      <trkpt lat="48.01224" lon="-3.72045">
        <ele>178</ele>
        <time>2020-06-07T15:44:04Z</time>
      </trkpt>
      <trkpt lat="48.01228" lon="-3.72043">
        <ele>178</ele>
        <time>2020-06-07T15:44:05Z</time>
      </trkpt>
      <trkpt lat="48.01231" lon="-3.72043">
        <ele>178.1</ele>
        <time>2020-06-07T15:44:06Z</time>
      </trkpt>
      <trkpt lat="48.01236" lon="-3.72043">
        <ele>178.2</ele>
        <time>2020-06-07T15:44:07Z</time>
      </trkpt>
      <trkpt lat="48.01242" lon="-3.72043">
        <ele>178.3</ele>
        <time>2020-06-07T15:44:08Z</time>
      </trkpt>
      <trkpt lat="48.01246" lon="-3.72044">
        <ele>178.4</ele>
        <time>2020-06-07T15:44:09Z</time>
      </trkpt>
      <trkpt lat="48.01251" lon="-3.72044">
        <ele>178.5</ele>
        <time>2020-06-07T15:44:10Z</time>
      </trkpt>
      <trkpt lat="48.01257" lon="-3.72044">
        <ele>178.7</ele>
        <time>2020-06-07T15:44:11Z</time>
      </trkpt>
      <trkpt lat="48.01262" lon="-3.72042">
        <ele>178.8</ele>
        <time>2020-06-07T15:44:12Z</time>
      </trkpt>
      <trkpt lat="48.01266" lon="-3.72043">
        <ele>178.9</ele>
        <time>2020-06-07T15:44:13Z</time>
      </trkpt>
      <trkpt lat="48.0127" lon="-3.72043">
        <ele>179</ele>
        <time>2020-06-07T15:44:14Z</time>
      </trkpt>
      <trkpt lat="48.01275" lon="-3.72043">
        <ele>179.1</ele>
        <time>2020-06-07T15:44:15Z</time>
      </trkpt>
      <trkpt lat="48.01279" lon="-3.72044">
        <ele>179.2</ele>
        <time>2020-06-07T15:44:16Z</time>
      </trkpt>
      <trkpt lat="48.01282" lon="-3.72044">
        <ele>179.2</ele>
        <time>2020-06-07T15:44:17Z</time>
      </trkpt>
      <trkpt lat="48.01287" lon="-3.72044">
        <ele>179.3</ele>
        <time>2020-06-07T15:44:18Z</time>
      </trkpt>
      <trkpt lat="48.01291" lon="-3.72044">
        <ele>179.4</ele>
        <time>2020-06-07T15:44:19Z</time>
      </trkpt>
      <trkpt lat="48.01294" lon="-3.72045">
        <ele>179.5</ele>
        <time>2020-06-07T15:44:20Z</time>
      </trkpt>
      <trkpt lat="48.01298" lon="-3.72045">
        <ele>179.6</ele>
        <time>2020-06-07T15:44:21Z</time>
      </trkpt>
      <trkpt lat="48.01303" lon="-3.72045">
        <ele>179.8</ele>
        <time>2020-06-07T15:44:22Z</time>
      </trkpt>
      <trkpt lat="48.01308" lon="-3.72045">
        <ele>179.9</ele>
        <time>2020-06-07T15:44:23Z</time>
      </trkpt>
      <trkpt lat="48.01313" lon="-3.72044">
        <ele>180</ele>
        <time>2020-06-07T15:44:24Z</time>
      </trkpt>
      <trkpt lat="48.01317" lon="-3.72044">
        <ele>180.1</ele>
        <time>2020-06-07T15:44:25Z</time>
      </trkpt>
      <trkpt lat="48.01322" lon="-3.72045">
        <ele>180.3</ele>
        <time>2020-06-07T15:44:26Z</time>
      </trkpt>
      <trkpt lat="48.01327" lon="-3.72046">
        <ele>180.4</ele>
        <time>2020-06-07T15:44:27Z</time>
      </trkpt>
      <trkpt lat="48.01333" lon="-3.72046">
        <ele>180.5</ele>
        <time>2020-06-07T15:44:28Z</time>
      </trkpt>
      <trkpt lat="48.01337" lon="-3.72046">
        <ele>180.6</ele>
        <time>2020-06-07T15:44:29Z</time>
      </trkpt>
      <trkpt lat="48.01341" lon="-3.72046">
        <ele>180.7</ele>
        <time>2020-06-07T15:44:30Z</time>
      </trkpt>
      <trkpt lat="48.01344" lon="-3.72046">
        <ele>180.8</ele>
        <time>2020-06-07T15:44:31Z</time>
      </trkpt>
      <trkpt lat="48.01349" lon="-3.72046">
        <ele>180.9</ele>
        <time>2020-06-07T15:44:32Z</time>
      </trkpt>
      <trkpt lat="48.01352" lon="-3.72047">
        <ele>181</ele>
        <time>2020-06-07T15:44:33Z</time>
      </trkpt>
      <trkpt lat="48.01354" lon="-3.72047">
        <ele>181</ele>
        <time>2020-06-07T15:44:34Z</time>
      </trkpt>
      <trkpt lat="48.01357" lon="-3.72047">
        <ele>181.1</ele>
        <time>2020-06-07T15:44:35Z</time>
      </trkpt>
      <trkpt lat="48.01361" lon="-3.72047">
        <ele>181.1</ele>
        <time>2020-06-07T15:44:36Z</time>
      </trkpt>
      <trkpt lat="48.01366" lon="-3.72047">
        <ele>181.2</ele>
        <time>2020-06-07T15:44:37Z</time>
      </trkpt>
      <trkpt lat="48.01372" lon="-3.72047">
        <ele>181.3</ele>
        <time>2020-06-07T15:44:38Z</time>
      </trkpt>
      <trkpt lat="48.01376" lon="-3.72046">
        <ele>181.4</ele>
        <time>2020-06-07T15:44:39Z</time>
      </trkpt>
      <trkpt lat="48.01381" lon="-3.72046">
        <ele>181.5</ele>
        <time>2020-06-07T15:44:40Z</time>
      </trkpt>
      <trkpt lat="48.01387" lon="-3.72044">
        <ele>181.7</ele>
        <time>2020-06-07T15:44:41Z</time>
      </trkpt>
      <trkpt lat="48.0139" lon="-3.72045">
        <ele>181.8</ele>
        <time>2020-06-07T15:44:42Z</time>
      </trkpt>
      <trkpt lat="48.01395" lon="-3.72046">
        <ele>182</ele>
        <time>2020-06-07T15:44:43Z</time>
      </trkpt>
      <trkpt lat="48.014" lon="-3.72046">
        <ele>182.1</ele>
        <time>2020-06-07T15:44:44Z</time>
      </trkpt>
      <trkpt lat="48.01403" lon="-3.72047">
        <ele>182.2</ele>
        <time>2020-06-07T15:44:45Z</time>
      </trkpt>
      <trkpt lat="48.01408" lon="-3.72047">
        <ele>182.5</ele>
        <time>2020-06-07T15:44:46Z</time>
      </trkpt>
      <trkpt lat="48.01414" lon="-3.72047">
        <ele>182.6</ele>
        <time>2020-06-07T15:44:47Z</time>
      </trkpt>
      <trkpt lat="48.01418" lon="-3.72049">
        <ele>182.7</ele>
        <time>2020-06-07T15:44:48Z</time>
      </trkpt>
      <trkpt lat="48.01423" lon="-3.7205">
        <ele>182.8</ele>
        <time>2020-06-07T15:44:49Z</time>
      </trkpt>
      <trkpt lat="48.01427" lon="-3.72051">
        <ele>182.9</ele>
        <time>2020-06-07T15:44:50Z</time>
      </trkpt>
      <trkpt lat="48.01432" lon="-3.72052">
        <ele>183</ele>
        <time>2020-06-07T15:44:51Z</time>
      </trkpt>
      <trkpt lat="48.01436" lon="-3.72054">
        <ele>183.1</ele>
        <time>2020-06-07T15:44:52Z</time>
      </trkpt>
      <trkpt lat="48.0144" lon="-3.72055">
        <ele>183.2</ele>
        <time>2020-06-07T15:44:53Z</time>
      </trkpt>
      <trkpt lat="48.01443" lon="-3.72057">
        <ele>183.3</ele>
        <time>2020-06-07T15:44:54Z</time>
      </trkpt>
      <trkpt lat="48.01447" lon="-3.72059">
        <ele>183.4</ele>
        <time>2020-06-07T15:44:55Z</time>
      </trkpt>
      <trkpt lat="48.01451" lon="-3.7206">
        <ele>183.5</ele>
        <time>2020-06-07T15:44:56Z</time>
      </trkpt>
      <trkpt lat="48.01454" lon="-3.7206">
        <ele>183.6</ele>
        <time>2020-06-07T15:44:57Z</time>
      </trkpt>
      <trkpt lat="48.01457" lon="-3.7206">
        <ele>183.6</ele>
        <time>2020-06-07T15:44:58Z</time>
      </trkpt>
      <trkpt lat="48.01461" lon="-3.72061">
        <ele>183.7</ele>
        <time>2020-06-07T15:44:59Z</time>
      </trkpt>
      <trkpt lat="48.01462" lon="-3.72061">
        <ele>183.8</ele>
        <time>2020-06-07T15:45:00Z</time>
      </trkpt>
      <trkpt lat="48.01468" lon="-3.7206">
        <ele>183.9</ele>
        <time>2020-06-07T15:45:01Z</time>
      </trkpt>
      <trkpt lat="48.01471" lon="-3.72063">
        <ele>184</ele>
        <time>2020-06-07T15:45:02Z</time>
      </trkpt>
      <trkpt lat="48.01472" lon="-3.72065">
        <ele>184.1</ele>
        <time>2020-06-07T15:45:03Z</time>
      </trkpt>
      <trkpt lat="48.01473" lon="-3.7207">
        <ele>184.1</ele>
        <time>2020-06-07T15:45:04Z</time>
      </trkpt>
      <trkpt lat="48.01474" lon="-3.72073">
        <ele>184.2</ele>
        <time>2020-06-07T15:45:05Z</time>
      </trkpt>
      <trkpt lat="48.01476" lon="-3.72077">
        <ele>184.3</ele>
        <time>2020-06-07T15:45:06Z</time>
      </trkpt>
      <trkpt lat="48.01478" lon="-3.72081">
        <ele>184.3</ele>
        <time>2020-06-07T15:45:07Z</time>
      </trkpt>
      <trkpt lat="48.01481" lon="-3.72085">
        <ele>184.4</ele>
        <time>2020-06-07T15:45:08Z</time>
      </trkpt>
      <trkpt lat="48.01483" lon="-3.72089">
        <ele>184.5</ele>
        <time>2020-06-07T15:45:09Z</time>
      </trkpt>
      <trkpt lat="48.01485" lon="-3.72093">
        <ele>184.6</ele>
        <time>2020-06-07T15:45:10Z</time>
      </trkpt>
      <trkpt lat="48.01486" lon="-3.72096">
        <ele>184.7</ele>
        <time>2020-06-07T15:45:11Z</time>
      </trkpt>
      <trkpt lat="48.01488" lon="-3.72101">
        <ele>184.8</ele>
        <time>2020-06-07T15:45:12Z</time>
      </trkpt>
      <trkpt lat="48.01492" lon="-3.72105">
        <ele>185</ele>
        <time>2020-06-07T15:45:13Z</time>
      </trkpt>
      <trkpt lat="48.01495" lon="-3.72108">
        <ele>185.1</ele>
        <time>2020-06-07T15:45:14Z</time>
      </trkpt>
      <trkpt lat="48.01499" lon="-3.72112">
        <ele>185.3</ele>
        <time>2020-06-07T15:45:15Z</time>
      </trkpt>
      <trkpt lat="48.01502" lon="-3.72116">
        <ele>185.5</ele>
        <time>2020-06-07T15:45:16Z</time>
      </trkpt>
      <trkpt lat="48.01505" lon="-3.72119">
        <ele>185.6</ele>
        <time>2020-06-07T15:45:17Z</time>
      </trkpt>
      <trkpt lat="48.01507" lon="-3.72122">
        <ele>185.8</ele>
        <time>2020-06-07T15:45:18Z</time>
      </trkpt>
      <trkpt lat="48.01511" lon="-3.72126">
        <ele>185.9</ele>
        <time>2020-06-07T15:45:19Z</time>
      </trkpt>
      <trkpt lat="48.01514" lon="-3.72129">
        <ele>186.1</ele>
        <time>2020-06-07T15:45:20Z</time>
      </trkpt>
      <trkpt lat="48.01517" lon="-3.72133">
        <ele>186.2</ele>
        <time>2020-06-07T15:45:21Z</time>
      </trkpt>
      <trkpt lat="48.0152" lon="-3.72137">
        <ele>186.3</ele>
        <time>2020-06-07T15:45:22Z</time>
      </trkpt>
      <trkpt lat="48.01523" lon="-3.72141">
        <ele>186.5</ele>
        <time>2020-06-07T15:45:23Z</time>
      </trkpt>
      <trkpt lat="48.01525" lon="-3.72144">
        <ele>186.6</ele>
        <time>2020-06-07T15:45:24Z</time>
      </trkpt>
      <trkpt lat="48.01528" lon="-3.72147">
        <ele>186.7</ele>
        <time>2020-06-07T15:45:25Z</time>
      </trkpt>
      <trkpt lat="48.01531" lon="-3.72151">
        <ele>186.7</ele>
        <time>2020-06-07T15:45:26Z</time>
      </trkpt>
      <trkpt lat="48.01533" lon="-3.72155">
        <ele>186.8</ele>
        <time>2020-06-07T15:45:27Z</time>
      </trkpt>
      <trkpt lat="48.01536" lon="-3.72158">
        <ele>187</ele>
        <time>2020-06-07T15:45:28Z</time>
      </trkpt>
      <trkpt lat="48.01539" lon="-3.72162">
        <ele>187.1</ele>
        <time>2020-06-07T15:45:29Z</time>
      </trkpt>
      <trkpt lat="48.01543" lon="-3.72165">
        <ele>187.3</ele>
        <time>2020-06-07T15:45:30Z</time>
      </trkpt>
      <trkpt lat="48.01546" lon="-3.72168">
        <ele>187.4</ele>
        <time>2020-06-07T15:45:31Z</time>
      </trkpt>
      <trkpt lat="48.01547" lon="-3.72172">
        <ele>187.6</ele>
        <time>2020-06-07T15:45:32Z</time>
      </trkpt>
      <trkpt lat="48.0155" lon="-3.72174">
        <ele>187.7</ele>
        <time>2020-06-07T15:45:33Z</time>
      </trkpt>
      <trkpt lat="48.01553" lon="-3.72179">
        <ele>187.9</ele>
        <time>2020-06-07T15:45:34Z</time>
      </trkpt>
      <trkpt lat="48.01556" lon="-3.72182">
        <ele>188.1</ele>
        <time>2020-06-07T15:45:35Z</time>
      </trkpt>
      <trkpt lat="48.0156" lon="-3.72186">
        <ele>188.3</ele>
        <time>2020-06-07T15:45:36Z</time>
      </trkpt>
      <trkpt lat="48.01563" lon="-3.7219">
        <ele>188.4</ele>
        <time>2020-06-07T15:45:37Z</time>
      </trkpt>
      <trkpt lat="48.01565" lon="-3.72192">
        <ele>188.5</ele>
        <time>2020-06-07T15:45:38Z</time>
      </trkpt>
      <trkpt lat="48.01568" lon="-3.72195">
        <ele>188.6</ele>
        <time>2020-06-07T15:45:39Z</time>
      </trkpt>
      <trkpt lat="48.0157" lon="-3.72199">
        <ele>188.7</ele>
        <time>2020-06-07T15:45:40Z</time>
      </trkpt>
      <trkpt lat="48.01572" lon="-3.72202">
        <ele>188.8</ele>
        <time>2020-06-07T15:45:41Z</time>
      </trkpt>
      <trkpt lat="48.01575" lon="-3.72205">
        <ele>188.9</ele>
        <time>2020-06-07T15:45:42Z</time>
      </trkpt>
      <trkpt lat="48.01579" lon="-3.72208">
        <ele>189</ele>
        <time>2020-06-07T15:45:43Z</time>
      </trkpt>
      <trkpt lat="48.01583" lon="-3.72211">
        <ele>189.1</ele>
        <time>2020-06-07T15:45:44Z</time>
      </trkpt>
      <trkpt lat="48.01587" lon="-3.72214">
        <ele>189.3</ele>
        <time>2020-06-07T15:45:45Z</time>
      </trkpt>
      <trkpt lat="48.0159" lon="-3.72218">
        <ele>189.4</ele>
        <time>2020-06-07T15:45:46Z</time>
      </trkpt>
      <trkpt lat="48.01593" lon="-3.72221">
        <ele>189.5</ele>
        <time>2020-06-07T15:45:47Z</time>
      </trkpt>
      <trkpt lat="48.01597" lon="-3.72225">
        <ele>189.6</ele>
        <time>2020-06-07T15:45:48Z</time>
      </trkpt>
      <trkpt lat="48.01601" lon="-3.72228">
        <ele>189.7</ele>
        <time>2020-06-07T15:45:49Z</time>
      </trkpt>
      <trkpt lat="48.01604" lon="-3.72231">
        <ele>189.8</ele>
        <time>2020-06-07T15:45:50Z</time>
      </trkpt>
      <trkpt lat="48.01608" lon="-3.72234">
        <ele>189.9</ele>
        <time>2020-06-07T15:45:51Z</time>
      </trkpt>
      <trkpt lat="48.01611" lon="-3.72237">
        <ele>189.9</ele>
        <time>2020-06-07T15:45:52Z</time>
      </trkpt>
      <trkpt lat="48.01615" lon="-3.7224">
        <ele>190</ele>
        <time>2020-06-07T15:45:53Z</time>
      </trkpt>
      <trkpt lat="48.01619" lon="-3.72243">
        <ele>190</ele>
        <time>2020-06-07T15:45:54Z</time>
      </trkpt>
      <trkpt lat="48.01623" lon="-3.72246">
        <ele>190.1</ele>
        <time>2020-06-07T15:45:55Z</time>
      </trkpt>
      <trkpt lat="48.01627" lon="-3.72249">
        <ele>190.1</ele>
        <time>2020-06-07T15:45:56Z</time>
      </trkpt>
      <trkpt lat="48.01631" lon="-3.72252">
        <ele>190.2</ele>
        <time>2020-06-07T15:45:57Z</time>
      </trkpt>
      <trkpt lat="48.01635" lon="-3.72257">
        <ele>190.2</ele>
        <time>2020-06-07T15:45:58Z</time>
      </trkpt>
      <trkpt lat="48.01639" lon="-3.72261">
        <ele>190.3</ele>
        <time>2020-06-07T15:45:59Z</time>
      </trkpt>
      <trkpt lat="48.01643" lon="-3.72263">
        <ele>190.3</ele>
        <time>2020-06-07T15:46:00Z</time>
      </trkpt>
      <trkpt lat="48.01648" lon="-3.72266">
        <ele>190.3</ele>
        <time>2020-06-07T15:46:01Z</time>
      </trkpt>
      <trkpt lat="48.01652" lon="-3.72269">
        <ele>190.3</ele>
        <time>2020-06-07T15:46:02Z</time>
      </trkpt>
      <trkpt lat="48.01656" lon="-3.72271">
        <ele>190.3</ele>
        <time>2020-06-07T15:46:03Z</time>
      </trkpt>
      <trkpt lat="48.01661" lon="-3.72275">
        <ele>190.2</ele>
        <time>2020-06-07T15:46:04Z</time>
      </trkpt>
      <trkpt lat="48.01665" lon="-3.72278">
        <ele>190.2</ele>
        <time>2020-06-07T15:46:05Z</time>
      </trkpt>
      <trkpt lat="48.0167" lon="-3.72282">
        <ele>190.1</ele>
        <time>2020-06-07T15:46:06Z</time>
      </trkpt>
      <trkpt lat="48.01675" lon="-3.72286">
        <ele>190</ele>
        <time>2020-06-07T15:46:07Z</time>
      </trkpt>
      <trkpt lat="48.0168" lon="-3.72288">
        <ele>189.9</ele>
        <time>2020-06-07T15:46:08Z</time>
      </trkpt>
      <trkpt lat="48.01685" lon="-3.72291">
        <ele>189.9</ele>
        <time>2020-06-07T15:46:09Z</time>
      </trkpt>
      <trkpt lat="48.0169" lon="-3.72294">
        <ele>189.8</ele>
        <time>2020-06-07T15:46:10Z</time>
      </trkpt>
      <trkpt lat="48.01694" lon="-3.72298">
        <ele>189.7</ele>
        <time>2020-06-07T15:46:11Z</time>
      </trkpt>
      <trkpt lat="48.01699" lon="-3.72302">
        <ele>189.6</ele>
        <time>2020-06-07T15:46:12Z</time>
      </trkpt>
      <trkpt lat="48.01704" lon="-3.72304">
        <ele>189.5</ele>
        <time>2020-06-07T15:46:13Z</time>
      </trkpt>
      <trkpt lat="48.01709" lon="-3.72307">
        <ele>189.4</ele>
        <time>2020-06-07T15:46:14Z</time>
      </trkpt>
      <trkpt lat="48.01713" lon="-3.72311">
        <ele>189.3</ele>
        <time>2020-06-07T15:46:15Z</time>
      </trkpt>
      <trkpt lat="48.01719" lon="-3.72314">
        <ele>189.1</ele>
        <time>2020-06-07T15:46:16Z</time>
      </trkpt>
      <trkpt lat="48.01724" lon="-3.72319">
        <ele>189</ele>
        <time>2020-06-07T15:46:17Z</time>
      </trkpt>
      <trkpt lat="48.01731" lon="-3.72322">
        <ele>188.8</ele>
        <time>2020-06-07T15:46:18Z</time>
      </trkpt>
      <trkpt lat="48.01737" lon="-3.72324">
        <ele>188.7</ele>
        <time>2020-06-07T15:46:19Z</time>
      </trkpt>
      <trkpt lat="48.01743" lon="-3.72327">
        <ele>188.5</ele>
        <time>2020-06-07T15:46:20Z</time>
      </trkpt>
      <trkpt lat="48.01749" lon="-3.72329">
        <ele>188.5</ele>
        <time>2020-06-07T15:46:21Z</time>
      </trkpt>
      <trkpt lat="48.01755" lon="-3.72331">
        <ele>188.5</ele>
        <time>2020-06-07T15:46:22Z</time>
      </trkpt>
      <trkpt lat="48.01761" lon="-3.72334">
        <ele>188.5</ele>
        <time>2020-06-07T15:46:23Z</time>
      </trkpt>
      <trkpt lat="48.01768" lon="-3.72336">
        <ele>188.4</ele>
        <time>2020-06-07T15:46:24Z</time>
      </trkpt>
      <trkpt lat="48.01773" lon="-3.72341">
        <ele>188.4</ele>
        <time>2020-06-07T15:46:25Z</time>
      </trkpt>
      <trkpt lat="48.01778" lon="-3.72343">
        <ele>188.3</ele>
        <time>2020-06-07T15:46:26Z</time>
      </trkpt>
      <trkpt lat="48.01784" lon="-3.72345">
        <ele>188.3</ele>
        <time>2020-06-07T15:46:27Z</time>
      </trkpt>
      <trkpt lat="48.01789" lon="-3.72347">
        <ele>188.4</ele>
        <time>2020-06-07T15:46:28Z</time>
      </trkpt>
      <trkpt lat="48.01795" lon="-3.72349">
        <ele>188.4</ele>
        <time>2020-06-07T15:46:29Z</time>
      </trkpt>
      <trkpt lat="48.01799" lon="-3.72352">
        <ele>188.4</ele>
        <time>2020-06-07T15:46:30Z</time>
      </trkpt>
      <trkpt lat="48.01804" lon="-3.72354">
        <ele>188.5</ele>
        <time>2020-06-07T15:46:31Z</time>
      </trkpt>
      <trkpt lat="48.01809" lon="-3.72355">
        <ele>188.5</ele>
        <time>2020-06-07T15:46:32Z</time>
      </trkpt>
      <trkpt lat="48.01814" lon="-3.72357">
        <ele>188.6</ele>
        <time>2020-06-07T15:46:33Z</time>
      </trkpt>
      <trkpt lat="48.01819" lon="-3.72359">
        <ele>188.6</ele>
        <time>2020-06-07T15:46:34Z</time>
      </trkpt>
      <trkpt lat="48.01824" lon="-3.72361">
        <ele>188.7</ele>
        <time>2020-06-07T15:46:35Z</time>
      </trkpt>
      <trkpt lat="48.01829" lon="-3.72362">
        <ele>188.8</ele>
        <time>2020-06-07T15:46:36Z</time>
      </trkpt>
      <trkpt lat="48.01834" lon="-3.72364">
        <ele>188.8</ele>
        <time>2020-06-07T15:46:37Z</time>
      </trkpt>
      <trkpt lat="48.01839" lon="-3.72366">
        <ele>188.9</ele>
        <time>2020-06-07T15:46:38Z</time>
      </trkpt>
      <trkpt lat="48.01844" lon="-3.72367">
        <ele>189</ele>
        <time>2020-06-07T15:46:39Z</time>
      </trkpt>
      <trkpt lat="48.01849" lon="-3.72369">
        <ele>189.1</ele>
        <time>2020-06-07T15:46:40Z</time>
      </trkpt>
      <trkpt lat="48.01853" lon="-3.72371">
        <ele>189.2</ele>
        <time>2020-06-07T15:46:41Z</time>
      </trkpt>
      <trkpt lat="48.01858" lon="-3.72374">
        <ele>189.3</ele>
        <time>2020-06-07T15:46:42Z</time>
      </trkpt>
      <trkpt lat="48.01862" lon="-3.72375">
        <ele>189.4</ele>
        <time>2020-06-07T15:46:43Z</time>
      </trkpt>
      <trkpt lat="48.01867" lon="-3.72377">
        <ele>189.5</ele>
        <time>2020-06-07T15:46:44Z</time>
      </trkpt>
      <trkpt lat="48.01872" lon="-3.7238">
        <ele>189.6</ele>
        <time>2020-06-07T15:46:45Z</time>
      </trkpt>
      <trkpt lat="48.01876" lon="-3.72381">
        <ele>189.7</ele>
        <time>2020-06-07T15:46:46Z</time>
      </trkpt>
      <trkpt lat="48.01881" lon="-3.72383">
        <ele>189.8</ele>
        <time>2020-06-07T15:46:47Z</time>
      </trkpt>
      <trkpt lat="48.01886" lon="-3.72385">
        <ele>189.9</ele>
        <time>2020-06-07T15:46:48Z</time>
      </trkpt>
      <trkpt lat="48.01891" lon="-3.72387">
        <ele>190</ele>
        <time>2020-06-07T15:46:49Z</time>
      </trkpt>
      <trkpt lat="48.01895" lon="-3.72389">
        <ele>190.1</ele>
        <time>2020-06-07T15:46:50Z</time>
      </trkpt>
      <trkpt lat="48.019" lon="-3.7239">
        <ele>190.2</ele>
        <time>2020-06-07T15:46:51Z</time>
      </trkpt>
      <trkpt lat="48.01904" lon="-3.72391">
        <ele>190.3</ele>
        <time>2020-06-07T15:46:52Z</time>
      </trkpt>
      <trkpt lat="48.01907" lon="-3.72394">
        <ele>190.4</ele>
        <time>2020-06-07T15:46:53Z</time>
      </trkpt>
      <trkpt lat="48.01912" lon="-3.72394">
        <ele>190.5</ele>
        <time>2020-06-07T15:46:54Z</time>
      </trkpt>
      <trkpt lat="48.01916" lon="-3.72395">
        <ele>190.6</ele>
        <time>2020-06-07T15:46:55Z</time>
      </trkpt>
      <trkpt lat="48.0192" lon="-3.72397">
        <ele>190.7</ele>
        <time>2020-06-07T15:46:56Z</time>
      </trkpt>
      <trkpt lat="48.01923" lon="-3.72399">
        <ele>190.8</ele>
        <time>2020-06-07T15:46:57Z</time>
      </trkpt>
      <trkpt lat="48.01928" lon="-3.72401">
        <ele>190.9</ele>
        <time>2020-06-07T15:46:58Z</time>
      </trkpt>
      <trkpt lat="48.01931" lon="-3.72402">
        <ele>191</ele>
        <time>2020-06-07T15:46:59Z</time>
      </trkpt>
      <trkpt lat="48.01935" lon="-3.72404">
        <ele>191.1</ele>
        <time>2020-06-07T15:47:00Z</time>
      </trkpt>
      <trkpt lat="48.01939" lon="-3.72405">
        <ele>191.2</ele>
        <time>2020-06-07T15:47:01Z</time>
      </trkpt>
      <trkpt lat="48.01943" lon="-3.72407">
        <ele>191.3</ele>
        <time>2020-06-07T15:47:02Z</time>
      </trkpt>
      <trkpt lat="48.01949" lon="-3.72406">
        <ele>191.4</ele>
        <time>2020-06-07T15:47:03Z</time>
      </trkpt>
      <trkpt lat="48.01954" lon="-3.72407">
        <ele>191.5</ele>
        <time>2020-06-07T15:47:04Z</time>
      </trkpt>
      <trkpt lat="48.01957" lon="-3.72408">
        <ele>191.6</ele>
        <time>2020-06-07T15:47:05Z</time>
      </trkpt>
      <trkpt lat="48.01962" lon="-3.72409">
        <ele>191.7</ele>
        <time>2020-06-07T15:47:06Z</time>
      </trkpt>
      <trkpt lat="48.01966" lon="-3.7241">
        <ele>191.8</ele>
        <time>2020-06-07T15:47:07Z</time>
      </trkpt>
      <trkpt lat="48.0197" lon="-3.72411">
        <ele>191.9</ele>
        <time>2020-06-07T15:47:08Z</time>
      </trkpt>
      <trkpt lat="48.01974" lon="-3.72411">
        <ele>191.9</ele>
        <time>2020-06-07T15:47:09Z</time>
      </trkpt>
      <trkpt lat="48.01978" lon="-3.72411">
        <ele>191.9</ele>
        <time>2020-06-07T15:47:10Z</time>
      </trkpt>
      <trkpt lat="48.01982" lon="-3.72409">
        <ele>191.8</ele>
        <time>2020-06-07T15:47:11Z</time>
      </trkpt>
      <trkpt lat="48.01987" lon="-3.72408">
        <ele>191.9</ele>
        <time>2020-06-07T15:47:12Z</time>
      </trkpt>
      <trkpt lat="48.0199" lon="-3.72408">
        <ele>192</ele>
        <time>2020-06-07T15:47:13Z</time>
      </trkpt>
      <trkpt lat="48.01994" lon="-3.72406">
        <ele>192.1</ele>
        <time>2020-06-07T15:47:14Z</time>
      </trkpt>
      <trkpt lat="48.01998" lon="-3.72404">
        <ele>192.2</ele>
        <time>2020-06-07T15:47:15Z</time>
      </trkpt>
      <trkpt lat="48.02003" lon="-3.72404">
        <ele>192.2</ele>
        <time>2020-06-07T15:47:16Z</time>
      </trkpt>
      <trkpt lat="48.02007" lon="-3.72403">
        <ele>192.3</ele>
        <time>2020-06-07T15:47:17Z</time>
      </trkpt>
      <trkpt lat="48.02012" lon="-3.72402">
        <ele>192.4</ele>
        <time>2020-06-07T15:47:18Z</time>
      </trkpt>
      <trkpt lat="48.02016" lon="-3.72404">
        <ele>192.4</ele>
        <time>2020-06-07T15:47:19Z</time>
      </trkpt>
      <trkpt lat="48.0202" lon="-3.72407">
        <ele>192.5</ele>
        <time>2020-06-07T15:47:20Z</time>
      </trkpt>
      <trkpt lat="48.02023" lon="-3.7241">
        <ele>192.5</ele>
        <time>2020-06-07T15:47:21Z</time>
      </trkpt>
      <trkpt lat="48.02027" lon="-3.72414">
        <ele>192.5</ele>
        <time>2020-06-07T15:47:22Z</time>
      </trkpt>
      <trkpt lat="48.0203" lon="-3.72415">
        <ele>192.5</ele>
        <time>2020-06-07T15:47:23Z</time>
      </trkpt>
      <trkpt lat="48.02034" lon="-3.72416">
        <ele>192.6</ele>
        <time>2020-06-07T15:47:24Z</time>
      </trkpt>
      <trkpt lat="48.02038" lon="-3.72417">
        <ele>192.6</ele>
        <time>2020-06-07T15:47:25Z</time>
      </trkpt>
      <trkpt lat="48.02042" lon="-3.72418">
        <ele>192.6</ele>
        <time>2020-06-07T15:47:26Z</time>
      </trkpt>
      <trkpt lat="48.02047" lon="-3.72417">
        <ele>192.7</ele>
        <time>2020-06-07T15:47:27Z</time>
      </trkpt>
      <trkpt lat="48.02051" lon="-3.72417">
        <ele>192.7</ele>
        <time>2020-06-07T15:47:28Z</time>
      </trkpt>
      <trkpt lat="48.02055" lon="-3.72418">
        <ele>192.7</ele>
        <time>2020-06-07T15:47:29Z</time>
      </trkpt>
      <trkpt lat="48.0206" lon="-3.72417">
        <ele>192.8</ele>
        <time>2020-06-07T15:47:30Z</time>
      </trkpt>
      <trkpt lat="48.02064" lon="-3.72416">
        <ele>192.9</ele>
        <time>2020-06-07T15:47:31Z</time>
      </trkpt>
      <trkpt lat="48.02067" lon="-3.72415">
        <ele>192.9</ele>
        <time>2020-06-07T15:47:32Z</time>
      </trkpt>
      <trkpt lat="48.02071" lon="-3.72414">
        <ele>193</ele>
        <time>2020-06-07T15:47:33Z</time>
      </trkpt>
      <trkpt lat="48.02075" lon="-3.72413">
        <ele>193.1</ele>
        <time>2020-06-07T15:47:34Z</time>
      </trkpt>
      <trkpt lat="48.02079" lon="-3.72412">
        <ele>193.2</ele>
        <time>2020-06-07T15:47:35Z</time>
      </trkpt>
      <trkpt lat="48.02084" lon="-3.7241">
        <ele>193.3</ele>
        <time>2020-06-07T15:47:36Z</time>
      </trkpt>
      <trkpt lat="48.02088" lon="-3.72411">
        <ele>193.4</ele>
        <time>2020-06-07T15:47:37Z</time>
      </trkpt>
      <trkpt lat="48.02091" lon="-3.72412">
        <ele>193.5</ele>
        <time>2020-06-07T15:47:38Z</time>
      </trkpt>
      <trkpt lat="48.02094" lon="-3.72414">
        <ele>193.6</ele>
        <time>2020-06-07T15:47:39Z</time>
      </trkpt>
      <trkpt lat="48.02099" lon="-3.72415">
        <ele>193.7</ele>
        <time>2020-06-07T15:47:40Z</time>
      </trkpt>
      <trkpt lat="48.02103" lon="-3.72416">
        <ele>193.8</ele>
        <time>2020-06-07T15:47:41Z</time>
      </trkpt>
      <trkpt lat="48.02107" lon="-3.72417">
        <ele>193.9</ele>
        <time>2020-06-07T15:47:42Z</time>
      </trkpt>
      <trkpt lat="48.02111" lon="-3.72418">
        <ele>194</ele>
        <time>2020-06-07T15:47:43Z</time>
      </trkpt>
      <trkpt lat="48.02115" lon="-3.72421">
        <ele>194.1</ele>
        <time>2020-06-07T15:47:44Z</time>
      </trkpt>
      <trkpt lat="48.02119" lon="-3.72422">
        <ele>194.3</ele>
        <time>2020-06-07T15:47:45Z</time>
      </trkpt>
      <trkpt lat="48.02123" lon="-3.72425">
        <ele>194.4</ele>
        <time>2020-06-07T15:47:46Z</time>
      </trkpt>
      <trkpt lat="48.02127" lon="-3.72427">
        <ele>194.5</ele>
        <time>2020-06-07T15:47:47Z</time>
      </trkpt>
      <trkpt lat="48.0213" lon="-3.72428">
        <ele>194.7</ele>
        <time>2020-06-07T15:47:48Z</time>
      </trkpt>
      <trkpt lat="48.02134" lon="-3.72429">
        <ele>194.8</ele>
        <time>2020-06-07T15:47:49Z</time>
      </trkpt>
      <trkpt lat="48.02138" lon="-3.7243">
        <ele>195</ele>
        <time>2020-06-07T15:47:50Z</time>
      </trkpt>
      <trkpt lat="48.02142" lon="-3.72432">
        <ele>195.1</ele>
        <time>2020-06-07T15:47:51Z</time>
      </trkpt>
      <trkpt lat="48.02145" lon="-3.72433">
        <ele>195.3</ele>
        <time>2020-06-07T15:47:52Z</time>
      </trkpt>
      <trkpt lat="48.02149" lon="-3.72435">
        <ele>195.4</ele>
        <time>2020-06-07T15:47:53Z</time>
      </trkpt>
      <trkpt lat="48.02152" lon="-3.72437">
        <ele>195.6</ele>
        <time>2020-06-07T15:47:54Z</time>
      </trkpt>
      <trkpt lat="48.02156" lon="-3.72438">
        <ele>195.7</ele>
        <time>2020-06-07T15:47:55Z</time>
      </trkpt>
      <trkpt lat="48.0216" lon="-3.7244">
        <ele>195.9</ele>
        <time>2020-06-07T15:47:56Z</time>
      </trkpt>
      <trkpt lat="48.02163" lon="-3.72442">
        <ele>196</ele>
        <time>2020-06-07T15:47:57Z</time>
      </trkpt>
      <trkpt lat="48.02168" lon="-3.72444">
        <ele>196.2</ele>
        <time>2020-06-07T15:47:58Z</time>
      </trkpt>
      <trkpt lat="48.02171" lon="-3.72446">
        <ele>196.3</ele>
        <time>2020-06-07T15:47:59Z</time>
      </trkpt>
      <trkpt lat="48.02174" lon="-3.72447">
        <ele>196.4</ele>
        <time>2020-06-07T15:48:00Z</time>
      </trkpt>
      <trkpt lat="48.02178" lon="-3.72448">
        <ele>196.5</ele>
        <time>2020-06-07T15:48:01Z</time>
      </trkpt>
      <trkpt lat="48.02181" lon="-3.7245">
        <ele>196.7</ele>
        <time>2020-06-07T15:48:02Z</time>
      </trkpt>
      <trkpt lat="48.02185" lon="-3.72452">
        <ele>196.8</ele>
        <time>2020-06-07T15:48:03Z</time>
      </trkpt>
      <trkpt lat="48.02189" lon="-3.72453">
        <ele>196.9</ele>
        <time>2020-06-07T15:48:04Z</time>
      </trkpt>
      <trkpt lat="48.02193" lon="-3.72455">
        <ele>197.1</ele>
        <time>2020-06-07T15:48:05Z</time>
      </trkpt>
      <trkpt lat="48.02197" lon="-3.72458">
        <ele>197.2</ele>
        <time>2020-06-07T15:48:06Z</time>
      </trkpt>
      <trkpt lat="48.022" lon="-3.72461">
        <ele>197.3</ele>
        <time>2020-06-07T15:48:07Z</time>
      </trkpt>
      <trkpt lat="48.02204" lon="-3.72462">
        <ele>197.4</ele>
        <time>2020-06-07T15:48:08Z</time>
      </trkpt>
      <trkpt lat="48.02208" lon="-3.72465">
        <ele>197.5</ele>
        <time>2020-06-07T15:48:09Z</time>
      </trkpt>
      <trkpt lat="48.02212" lon="-3.72467">
        <ele>197.6</ele>
        <time>2020-06-07T15:48:10Z</time>
      </trkpt>
      <trkpt lat="48.02215" lon="-3.72468">
        <ele>197.7</ele>
        <time>2020-06-07T15:48:11Z</time>
      </trkpt>
      <trkpt lat="48.02219" lon="-3.7247">
        <ele>197.7</ele>
        <time>2020-06-07T15:48:12Z</time>
      </trkpt>
      <trkpt lat="48.02223" lon="-3.72471">
        <ele>197.9</ele>
        <time>2020-06-07T15:48:13Z</time>
      </trkpt>
      <trkpt lat="48.02226" lon="-3.72473">
        <ele>198</ele>
        <time>2020-06-07T15:48:14Z</time>
      </trkpt>
      <trkpt lat="48.0223" lon="-3.72475">
        <ele>198.1</ele>
        <time>2020-06-07T15:48:15Z</time>
      </trkpt>
      <trkpt lat="48.02233" lon="-3.72477">
        <ele>198.2</ele>
        <time>2020-06-07T15:48:16Z</time>
      </trkpt>
      <trkpt lat="48.02237" lon="-3.72479">
        <ele>198.3</ele>
        <time>2020-06-07T15:48:17Z</time>
      </trkpt>
      <trkpt lat="48.02241" lon="-3.7248">
        <ele>198.4</ele>
        <time>2020-06-07T15:48:18Z</time>
      </trkpt>
      <trkpt lat="48.02245" lon="-3.72481">
        <ele>198.5</ele>
        <time>2020-06-07T15:48:19Z</time>
      </trkpt>
      <trkpt lat="48.02249" lon="-3.72483">
        <ele>198.6</ele>
        <time>2020-06-07T15:48:20Z</time>
      </trkpt>
      <trkpt lat="48.02253" lon="-3.72484">
        <ele>198.7</ele>
        <time>2020-06-07T15:48:21Z</time>
      </trkpt>
      <trkpt lat="48.02256" lon="-3.72485">
        <ele>198.7</ele>
        <time>2020-06-07T15:48:22Z</time>
      </trkpt>
      <trkpt lat="48.0226" lon="-3.72486">
        <ele>198.8</ele>
        <time>2020-06-07T15:48:23Z</time>
      </trkpt>
      <trkpt lat="48.02264" lon="-3.72489">
        <ele>198.9</ele>
        <time>2020-06-07T15:48:24Z</time>
      </trkpt>
      <trkpt lat="48.02268" lon="-3.7249">
        <ele>199</ele>
        <time>2020-06-07T15:48:25Z</time>
      </trkpt>
      <trkpt lat="48.02272" lon="-3.72492">
        <ele>199.1</ele>
        <time>2020-06-07T15:48:26Z</time>
      </trkpt>
      <trkpt lat="48.02276" lon="-3.72494">
        <ele>199.2</ele>
        <time>2020-06-07T15:48:27Z</time>
      </trkpt>
      <trkpt lat="48.02279" lon="-3.72496">
        <ele>199.3</ele>
        <time>2020-06-07T15:48:28Z</time>
      </trkpt>
      <trkpt lat="48.02282" lon="-3.72498">
        <ele>199.4</ele>
        <time>2020-06-07T15:48:29Z</time>
      </trkpt>
      <trkpt lat="48.02287" lon="-3.725">
        <ele>199.5</ele>
        <time>2020-06-07T15:48:30Z</time>
      </trkpt>
      <trkpt lat="48.0229" lon="-3.72501">
        <ele>199.6</ele>
        <time>2020-06-07T15:48:31Z</time>
      </trkpt>
      <trkpt lat="48.02293" lon="-3.72502">
        <ele>199.7</ele>
        <time>2020-06-07T15:48:32Z</time>
      </trkpt>
      <trkpt lat="48.02296" lon="-3.72505">
        <ele>199.7</ele>
        <time>2020-06-07T15:48:33Z</time>
      </trkpt>
      <trkpt lat="48.023" lon="-3.72506">
        <ele>199.8</ele>
        <time>2020-06-07T15:48:34Z</time>
      </trkpt>
      <trkpt lat="48.02304" lon="-3.72508">
        <ele>199.8</ele>
        <time>2020-06-07T15:48:35Z</time>
      </trkpt>
      <trkpt lat="48.02308" lon="-3.72509">
        <ele>199.9</ele>
        <time>2020-06-07T15:48:36Z</time>
      </trkpt>
      <trkpt lat="48.02312" lon="-3.7251">
        <ele>200</ele>
        <time>2020-06-07T15:48:37Z</time>
      </trkpt>
      <trkpt lat="48.02315" lon="-3.72513">
        <ele>200</ele>
        <time>2020-06-07T15:48:38Z</time>
      </trkpt>
      <trkpt lat="48.02319" lon="-3.72515">
        <ele>200</ele>
        <time>2020-06-07T15:48:39Z</time>
      </trkpt>
      <trkpt lat="48.02323" lon="-3.72517">
        <ele>200.1</ele>
        <time>2020-06-07T15:48:40Z</time>
      </trkpt>
      <trkpt lat="48.02326" lon="-3.72518">
        <ele>200.1</ele>
        <time>2020-06-07T15:48:41Z</time>
      </trkpt>
      <trkpt lat="48.02329" lon="-3.7252">
        <ele>200.1</ele>
        <time>2020-06-07T15:48:42Z</time>
      </trkpt>
      <trkpt lat="48.02332" lon="-3.72521">
        <ele>200.1</ele>
        <time>2020-06-07T15:48:43Z</time>
      </trkpt>
      <trkpt lat="48.02335" lon="-3.72523">
        <ele>200.2</ele>
        <time>2020-06-07T15:48:44Z</time>
      </trkpt>
      <trkpt lat="48.02339" lon="-3.72525">
        <ele>200.2</ele>
        <time>2020-06-07T15:48:45Z</time>
      </trkpt>
      <trkpt lat="48.02342" lon="-3.72527">
        <ele>200.2</ele>
        <time>2020-06-07T15:48:46Z</time>
      </trkpt>
      <trkpt lat="48.02345" lon="-3.72529">
        <ele>200.2</ele>
        <time>2020-06-07T15:48:47Z</time>
      </trkpt>
      <trkpt lat="48.02348" lon="-3.72532">
        <ele>200.2</ele>
        <time>2020-06-07T15:48:48Z</time>
      </trkpt>
      <trkpt lat="48.02352" lon="-3.72533">
        <ele>200.2</ele>
        <time>2020-06-07T15:48:49Z</time>
      </trkpt>
      <trkpt lat="48.02356" lon="-3.72535">
        <ele>200.2</ele>
        <time>2020-06-07T15:48:50Z</time>
      </trkpt>
      <trkpt lat="48.02359" lon="-3.72537">
        <ele>200.1</ele>
        <time>2020-06-07T15:48:51Z</time>
      </trkpt>
      <trkpt lat="48.02364" lon="-3.72538">
        <ele>200.1</ele>
        <time>2020-06-07T15:48:52Z</time>
      </trkpt>
      <trkpt lat="48.02367" lon="-3.7254">
        <ele>200.1</ele>
        <time>2020-06-07T15:48:53Z</time>
      </trkpt>
      <trkpt lat="48.0237" lon="-3.72542">
        <ele>200</ele>
        <time>2020-06-07T15:48:54Z</time>
      </trkpt>
      <trkpt lat="48.02374" lon="-3.72544">
        <ele>200</ele>
        <time>2020-06-07T15:48:55Z</time>
      </trkpt>
      <trkpt lat="48.02378" lon="-3.72547">
        <ele>199.9</ele>
        <time>2020-06-07T15:48:56Z</time>
      </trkpt>
      <trkpt lat="48.02382" lon="-3.7255">
        <ele>199.9</ele>
        <time>2020-06-07T15:48:57Z</time>
      </trkpt>
      <trkpt lat="48.02387" lon="-3.72553">
        <ele>199.8</ele>
        <time>2020-06-07T15:48:58Z</time>
      </trkpt>
      <trkpt lat="48.02393" lon="-3.72554">
        <ele>199.7</ele>
        <time>2020-06-07T15:48:59Z</time>
      </trkpt>
      <trkpt lat="48.02397" lon="-3.72558">
        <ele>199.6</ele>
        <time>2020-06-07T15:49:00Z</time>
      </trkpt>
      <trkpt lat="48.02402" lon="-3.72562">
        <ele>199.6</ele>
        <time>2020-06-07T15:49:01Z</time>
      </trkpt>
      <trkpt lat="48.02406" lon="-3.72566">
        <ele>199.5</ele>
        <time>2020-06-07T15:49:02Z</time>
      </trkpt>
      <trkpt lat="48.02411" lon="-3.72569">
        <ele>199.4</ele>
        <time>2020-06-07T15:49:03Z</time>
      </trkpt>
      <trkpt lat="48.02415" lon="-3.72573">
        <ele>199.4</ele>
        <time>2020-06-07T15:49:04Z</time>
      </trkpt>
      <trkpt lat="48.02421" lon="-3.72577">
        <ele>199.3</ele>
        <time>2020-06-07T15:49:05Z</time>
      </trkpt>
      <trkpt lat="48.02426" lon="-3.7258">
        <ele>199.2</ele>
        <time>2020-06-07T15:49:06Z</time>
      </trkpt>
      <trkpt lat="48.02431" lon="-3.72583">
        <ele>199.1</ele>
        <time>2020-06-07T15:49:07Z</time>
      </trkpt>
      <trkpt lat="48.02435" lon="-3.72586">
        <ele>199</ele>
        <time>2020-06-07T15:49:08Z</time>
      </trkpt>
      <trkpt lat="48.0244" lon="-3.72589">
        <ele>198.9</ele>
        <time>2020-06-07T15:49:09Z</time>
      </trkpt>
      <trkpt lat="48.02445" lon="-3.72593">
        <ele>198.8</ele>
        <time>2020-06-07T15:49:10Z</time>
      </trkpt>
      <trkpt lat="48.0245" lon="-3.72596">
        <ele>198.7</ele>
        <time>2020-06-07T15:49:11Z</time>
      </trkpt>
      <trkpt lat="48.02454" lon="-3.72601">
        <ele>198.7</ele>
        <time>2020-06-07T15:49:12Z</time>
      </trkpt>
      <trkpt lat="48.0246" lon="-3.72605">
        <ele>198.6</ele>
        <time>2020-06-07T15:49:13Z</time>
      </trkpt>
      <trkpt lat="48.02465" lon="-3.72611">
        <ele>198.5</ele>
        <time>2020-06-07T15:49:14Z</time>
      </trkpt>
      <trkpt lat="48.02469" lon="-3.72615">
        <ele>198.5</ele>
        <time>2020-06-07T15:49:15Z</time>
      </trkpt>
      <trkpt lat="48.02474" lon="-3.72621">
        <ele>198.4</ele>
        <time>2020-06-07T15:49:16Z</time>
      </trkpt>
      <trkpt lat="48.02479" lon="-3.72626">
        <ele>198.3</ele>
        <time>2020-06-07T15:49:17Z</time>
      </trkpt>
      <trkpt lat="48.02483" lon="-3.72631">
        <ele>198.2</ele>
        <time>2020-06-07T15:49:18Z</time>
      </trkpt>
      <trkpt lat="48.02489" lon="-3.72635">
        <ele>198.2</ele>
        <time>2020-06-07T15:49:19Z</time>
      </trkpt>
      <trkpt lat="48.02494" lon="-3.7264">
        <ele>198.1</ele>
        <time>2020-06-07T15:49:20Z</time>
      </trkpt>
      <trkpt lat="48.025" lon="-3.72644">
        <ele>198.1</ele>
        <time>2020-06-07T15:49:21Z</time>
      </trkpt>
      <trkpt lat="48.02505" lon="-3.72648">
        <ele>198.1</ele>
        <time>2020-06-07T15:49:22Z</time>
      </trkpt>
      <trkpt lat="48.02511" lon="-3.72652">
        <ele>198.2</ele>
        <time>2020-06-07T15:49:23Z</time>
      </trkpt>
      <trkpt lat="48.02516" lon="-3.72656">
        <ele>198.3</ele>
        <time>2020-06-07T15:49:24Z</time>
      </trkpt>
      <trkpt lat="48.0252" lon="-3.7266">
        <ele>198.4</ele>
        <time>2020-06-07T15:49:25Z</time>
      </trkpt>
      <trkpt lat="48.02525" lon="-3.72664">
        <ele>198.5</ele>
        <time>2020-06-07T15:49:26Z</time>
      </trkpt>
      <trkpt lat="48.0253" lon="-3.72668">
        <ele>198.6</ele>
        <time>2020-06-07T15:49:27Z</time>
      </trkpt>
      <trkpt lat="48.02533" lon="-3.72672">
        <ele>198.7</ele>
        <time>2020-06-07T15:49:28Z</time>
      </trkpt>
      <trkpt lat="48.02538" lon="-3.72676">
        <ele>198.8</ele>
        <time>2020-06-07T15:49:29Z</time>
      </trkpt>
      <trkpt lat="48.02544" lon="-3.7268">
        <ele>198.9</ele>
        <time>2020-06-07T15:49:30Z</time>
      </trkpt>
      <trkpt lat="48.02548" lon="-3.72684">
        <ele>199</ele>
        <time>2020-06-07T15:49:31Z</time>
      </trkpt>
      <trkpt lat="48.02553" lon="-3.72689">
        <ele>198.9</ele>
        <time>2020-06-07T15:49:32Z</time>
      </trkpt>
      <trkpt lat="48.02558" lon="-3.72692">
        <ele>199</ele>
        <time>2020-06-07T15:49:33Z</time>
      </trkpt>
      <trkpt lat="48.02562" lon="-3.72693">
        <ele>199</ele>
        <time>2020-06-07T15:49:34Z</time>
      </trkpt>
      <trkpt lat="48.02566" lon="-3.72697">
        <ele>199</ele>
        <time>2020-06-07T15:49:35Z</time>
      </trkpt>
      <trkpt lat="48.0257" lon="-3.72701">
        <ele>199.1</ele>
        <time>2020-06-07T15:49:36Z</time>
      </trkpt>
      <trkpt lat="48.02575" lon="-3.72704">
        <ele>199.1</ele>
        <time>2020-06-07T15:49:37Z</time>
      </trkpt>
      <trkpt lat="48.02579" lon="-3.72708">
        <ele>199.2</ele>
        <time>2020-06-07T15:49:38Z</time>
      </trkpt>
      <trkpt lat="48.02583" lon="-3.7271">
        <ele>199.2</ele>
        <time>2020-06-07T15:49:39Z</time>
      </trkpt>
      <trkpt lat="48.02588" lon="-3.72713">
        <ele>199.3</ele>
        <time>2020-06-07T15:49:40Z</time>
      </trkpt>
      <trkpt lat="48.02593" lon="-3.72716">
        <ele>199.4</ele>
        <time>2020-06-07T15:49:41Z</time>
      </trkpt>
      <trkpt lat="48.02597" lon="-3.7272">
        <ele>199.5</ele>
        <time>2020-06-07T15:49:42Z</time>
      </trkpt>
      <trkpt lat="48.02601" lon="-3.72723">
        <ele>199.6</ele>
        <time>2020-06-07T15:49:43Z</time>
      </trkpt>
      <trkpt lat="48.02605" lon="-3.72726">
        <ele>199.7</ele>
        <time>2020-06-07T15:49:44Z</time>
      </trkpt>
      <trkpt lat="48.0261" lon="-3.72729">
        <ele>199.8</ele>
        <time>2020-06-07T15:49:45Z</time>
      </trkpt>
      <trkpt lat="48.02614" lon="-3.72732">
        <ele>199.9</ele>
        <time>2020-06-07T15:49:46Z</time>
      </trkpt>
      <trkpt lat="48.02619" lon="-3.72735">
        <ele>200</ele>
        <time>2020-06-07T15:49:47Z</time>
      </trkpt>
      <trkpt lat="48.02624" lon="-3.72738">
        <ele>200.2</ele>
        <time>2020-06-07T15:49:48Z</time>
      </trkpt>
      <trkpt lat="48.0263" lon="-3.72741">
        <ele>200.4</ele>
        <time>2020-06-07T15:49:49Z</time>
      </trkpt>
      <trkpt lat="48.02635" lon="-3.72744">
        <ele>200.7</ele>
        <time>2020-06-07T15:49:50Z</time>
      </trkpt>
      <trkpt lat="48.02639" lon="-3.72747">
        <ele>200.9</ele>
        <time>2020-06-07T15:49:51Z</time>
      </trkpt>
      <trkpt lat="48.02644" lon="-3.7275">
        <ele>201.2</ele>
        <time>2020-06-07T15:49:52Z</time>
      </trkpt>
      <trkpt lat="48.02649" lon="-3.72753">
        <ele>201.4</ele>
        <time>2020-06-07T15:49:53Z</time>
      </trkpt>
      <trkpt lat="48.02653" lon="-3.72755">
        <ele>201.6</ele>
        <time>2020-06-07T15:49:54Z</time>
      </trkpt>
      <trkpt lat="48.02656" lon="-3.72759">
        <ele>201.8</ele>
        <time>2020-06-07T15:49:55Z</time>
      </trkpt>
      <trkpt lat="48.02659" lon="-3.72761">
        <ele>202</ele>
        <time>2020-06-07T15:49:56Z</time>
      </trkpt>
      <trkpt lat="48.02661" lon="-3.72765">
        <ele>202.2</ele>
        <time>2020-06-07T15:49:57Z</time>
      </trkpt>
      <trkpt lat="48.02667" lon="-3.72767">
        <ele>202.6</ele>
        <time>2020-06-07T15:49:58Z</time>
      </trkpt>
      <trkpt lat="48.02669" lon="-3.72769">
        <ele>202.8</ele>
        <time>2020-06-07T15:49:59Z</time>
      </trkpt>
      <trkpt lat="48.02672" lon="-3.72771">
        <ele>203.1</ele>
        <time>2020-06-07T15:50:00Z</time>
      </trkpt>
      <trkpt lat="48.02676" lon="-3.72772">
        <ele>203.4</ele>
        <time>2020-06-07T15:50:01Z</time>
      </trkpt>
      <trkpt lat="48.02677" lon="-3.72774">
        <ele>203.5</ele>
        <time>2020-06-07T15:50:02Z</time>
      </trkpt>
      <trkpt lat="48.0268" lon="-3.72775">
        <ele>203.7</ele>
        <time>2020-06-07T15:50:03Z</time>
      </trkpt>
      <trkpt lat="48.02684" lon="-3.72776">
        <ele>204</ele>
        <time>2020-06-07T15:50:04Z</time>
      </trkpt>
      <trkpt lat="48.02687" lon="-3.72778">
        <ele>204.3</ele>
        <time>2020-06-07T15:50:05Z</time>
      </trkpt>
      <trkpt lat="48.02689" lon="-3.72779">
        <ele>204.4</ele>
        <time>2020-06-07T15:50:06Z</time>
      </trkpt>
      <trkpt lat="48.02692" lon="-3.72781">
        <ele>204.6</ele>
        <time>2020-06-07T15:50:07Z</time>
      </trkpt>
      <trkpt lat="48.02695" lon="-3.72784">
        <ele>204.9</ele>
        <time>2020-06-07T15:50:08Z</time>
      </trkpt>
      <trkpt lat="48.02698" lon="-3.72785">
        <ele>205.1</ele>
        <time>2020-06-07T15:50:09Z</time>
      </trkpt>
      <trkpt lat="48.02701" lon="-3.72788">
        <ele>205.3</ele>
        <time>2020-06-07T15:50:10Z</time>
      </trkpt>
      <trkpt lat="48.02704" lon="-3.72789">
        <ele>205.5</ele>
        <time>2020-06-07T15:50:11Z</time>
      </trkpt>
      <trkpt lat="48.02707" lon="-3.7279">
        <ele>205.7</ele>
        <time>2020-06-07T15:50:12Z</time>
      </trkpt>
      <trkpt lat="48.0271" lon="-3.72792">
        <ele>206</ele>
        <time>2020-06-07T15:50:13Z</time>
      </trkpt>
      <trkpt lat="48.02714" lon="-3.72795">
        <ele>206.2</ele>
        <time>2020-06-07T15:50:14Z</time>
      </trkpt>
      <trkpt lat="48.02715" lon="-3.72796">
        <ele>206.3</ele>
        <time>2020-06-07T15:50:15Z</time>
      </trkpt>
      <trkpt lat="48.02718" lon="-3.72798">
        <ele>206.5</ele>
        <time>2020-06-07T15:50:16Z</time>
      </trkpt>
      <trkpt lat="48.0272" lon="-3.728">
        <ele>206.7</ele>
        <time>2020-06-07T15:50:17Z</time>
      </trkpt>
      <trkpt lat="48.02723" lon="-3.72801">
        <ele>206.9</ele>
        <time>2020-06-07T15:50:18Z</time>
      </trkpt>
      <trkpt lat="48.02726" lon="-3.72803">
        <ele>207.1</ele>
        <time>2020-06-07T15:50:19Z</time>
      </trkpt>
      <trkpt lat="48.02729" lon="-3.72806">
        <ele>207.3</ele>
        <time>2020-06-07T15:50:20Z</time>
      </trkpt>
      <trkpt lat="48.0273" lon="-3.72807">
        <ele>207.3</ele>
        <time>2020-06-07T15:50:21Z</time>
      </trkpt>
      <trkpt lat="48.02733" lon="-3.72809">
        <ele>207.5</ele>
        <time>2020-06-07T15:50:22Z</time>
      </trkpt>
      <trkpt lat="48.02736" lon="-3.72811">
        <ele>207.6</ele>
        <time>2020-06-07T15:50:23Z</time>
      </trkpt>
      <trkpt lat="48.02738" lon="-3.72813">
        <ele>207.7</ele>
        <time>2020-06-07T15:50:24Z</time>
      </trkpt>
      <trkpt lat="48.02741" lon="-3.72814">
        <ele>207.7</ele>
        <time>2020-06-07T15:50:25Z</time>
      </trkpt>
      <trkpt lat="48.02744" lon="-3.72815">
        <ele>207.7</ele>
        <time>2020-06-07T15:50:26Z</time>
      </trkpt>
      <trkpt lat="48.02747" lon="-3.72817">
        <ele>207.6</ele>
        <time>2020-06-07T15:50:27Z</time>
      </trkpt>
      <trkpt lat="48.02748" lon="-3.72818">
        <ele>207.6</ele>
        <time>2020-06-07T15:50:28Z</time>
      </trkpt>
      <trkpt lat="48.02751" lon="-3.7282">
        <ele>207.4</ele>
        <time>2020-06-07T15:50:29Z</time>
      </trkpt>
      <trkpt lat="48.02754" lon="-3.72822">
        <ele>207.3</ele>
        <time>2020-06-07T15:50:30Z</time>
      </trkpt>
      <trkpt lat="48.02756" lon="-3.72824">
        <ele>207.4</ele>
        <time>2020-06-07T15:50:31Z</time>
      </trkpt>
      <trkpt lat="48.0276" lon="-3.72825">
        <ele>207.5</ele>
        <time>2020-06-07T15:50:32Z</time>
      </trkpt>
      <trkpt lat="48.02762" lon="-3.72828">
        <ele>207.5</ele>
        <time>2020-06-07T15:50:33Z</time>
      </trkpt>
      <trkpt lat="48.02765" lon="-3.7283">
        <ele>207.6</ele>
        <time>2020-06-07T15:50:34Z</time>
      </trkpt>
      <trkpt lat="48.02769" lon="-3.72832">
        <ele>207.7</ele>
        <time>2020-06-07T15:50:35Z</time>
      </trkpt>
      <trkpt lat="48.02772" lon="-3.72833">
        <ele>207.8</ele>
        <time>2020-06-07T15:50:36Z</time>
      </trkpt>
      <trkpt lat="48.02775" lon="-3.72835">
        <ele>207.8</ele>
        <time>2020-06-07T15:50:37Z</time>
      </trkpt>
      <trkpt lat="48.0278" lon="-3.72837">
        <ele>207.9</ele>
        <time>2020-06-07T15:50:38Z</time>
      </trkpt>
      <trkpt lat="48.02783" lon="-3.72838">
        <ele>207.9</ele>
        <time>2020-06-07T15:50:39Z</time>
      </trkpt>
      <trkpt lat="48.02786" lon="-3.72839">
        <ele>208</ele>
        <time>2020-06-07T15:50:40Z</time>
      </trkpt>
      <trkpt lat="48.0279" lon="-3.7284">
        <ele>208</ele>
        <time>2020-06-07T15:50:41Z</time>
      </trkpt>
      <trkpt lat="48.02794" lon="-3.72843">
        <ele>208</ele>
        <time>2020-06-07T15:50:42Z</time>
      </trkpt>
      <trkpt lat="48.02797" lon="-3.72845">
        <ele>208.1</ele>
        <time>2020-06-07T15:50:43Z</time>
      </trkpt>
      <trkpt lat="48.028" lon="-3.72847">
        <ele>208.1</ele>
        <time>2020-06-07T15:50:44Z</time>
      </trkpt>
      <trkpt lat="48.02805" lon="-3.72848">
        <ele>208.1</ele>
        <time>2020-06-07T15:50:45Z</time>
      </trkpt>
      <trkpt lat="48.0281" lon="-3.72852">
        <ele>208.1</ele>
        <time>2020-06-07T15:50:46Z</time>
      </trkpt>
      <trkpt lat="48.02815" lon="-3.72856">
        <ele>208</ele>
        <time>2020-06-07T15:50:47Z</time>
      </trkpt>
      <trkpt lat="48.02819" lon="-3.72858">
        <ele>208</ele>
        <time>2020-06-07T15:50:48Z</time>
      </trkpt>
      <trkpt lat="48.02824" lon="-3.7286">
        <ele>208</ele>
        <time>2020-06-07T15:50:49Z</time>
      </trkpt>
      <trkpt lat="48.02828" lon="-3.72863">
        <ele>208</ele>
        <time>2020-06-07T15:50:50Z</time>
      </trkpt>
      <trkpt lat="48.02835" lon="-3.72865">
        <ele>207.9</ele>
        <time>2020-06-07T15:50:51Z</time>
      </trkpt>
      <trkpt lat="48.0284" lon="-3.72867">
        <ele>207.8</ele>
        <time>2020-06-07T15:50:52Z</time>
      </trkpt>
      <trkpt lat="48.02845" lon="-3.72868">
        <ele>207.8</ele>
        <time>2020-06-07T15:50:53Z</time>
      </trkpt>
      <trkpt lat="48.0285" lon="-3.7287">
        <ele>207.8</ele>
        <time>2020-06-07T15:50:54Z</time>
      </trkpt>
      <trkpt lat="48.02854" lon="-3.7287">
        <ele>207.8</ele>
        <time>2020-06-07T15:50:55Z</time>
      </trkpt>
      <trkpt lat="48.02858" lon="-3.72871">
        <ele>207.8</ele>
        <time>2020-06-07T15:50:56Z</time>
      </trkpt>
      <trkpt lat="48.02863" lon="-3.72871">
        <ele>207.8</ele>
        <time>2020-06-07T15:50:57Z</time>
      </trkpt>
      <trkpt lat="48.02868" lon="-3.72871">
        <ele>207.8</ele>
        <time>2020-06-07T15:50:58Z</time>
      </trkpt>
      <trkpt lat="48.02873" lon="-3.72871">
        <ele>207.9</ele>
        <time>2020-06-07T15:50:59Z</time>
      </trkpt>
      <trkpt lat="48.02878" lon="-3.7287">
        <ele>207.9</ele>
        <time>2020-06-07T15:51:00Z</time>
      </trkpt>
      <trkpt lat="48.02883" lon="-3.7287">
        <ele>207.9</ele>
        <time>2020-06-07T15:51:01Z</time>
      </trkpt>
      <trkpt lat="48.02887" lon="-3.72869">
        <ele>207.9</ele>
        <time>2020-06-07T15:51:02Z</time>
      </trkpt>
      <trkpt lat="48.02891" lon="-3.72869">
        <ele>208</ele>
        <time>2020-06-07T15:51:03Z</time>
      </trkpt>
      <trkpt lat="48.02895" lon="-3.72869">
        <ele>208</ele>
        <time>2020-06-07T15:51:04Z</time>
      </trkpt>
      <trkpt lat="48.029" lon="-3.72869">
        <ele>208.1</ele>
        <time>2020-06-07T15:51:05Z</time>
      </trkpt>
      <trkpt lat="48.02905" lon="-3.7287">
        <ele>208.1</ele>
        <time>2020-06-07T15:51:06Z</time>
      </trkpt>
      <trkpt lat="48.0291" lon="-3.72869">
        <ele>208.2</ele>
        <time>2020-06-07T15:51:07Z</time>
      </trkpt>
      <trkpt lat="48.02914" lon="-3.72869">
        <ele>208.2</ele>
        <time>2020-06-07T15:51:08Z</time>
      </trkpt>
      <trkpt lat="48.02919" lon="-3.7287">
        <ele>208.3</ele>
        <time>2020-06-07T15:51:09Z</time>
      </trkpt>
      <trkpt lat="48.02923" lon="-3.72871">
        <ele>208.4</ele>
        <time>2020-06-07T15:51:10Z</time>
      </trkpt>
      <trkpt lat="48.02927" lon="-3.7287">
        <ele>208.5</ele>
        <time>2020-06-07T15:51:11Z</time>
      </trkpt>
      <trkpt lat="48.02932" lon="-3.7287">
        <ele>208.6</ele>
        <time>2020-06-07T15:51:12Z</time>
      </trkpt>
      <trkpt lat="48.02936" lon="-3.7287">
        <ele>208.7</ele>
        <time>2020-06-07T15:51:13Z</time>
      </trkpt>
      <trkpt lat="48.02941" lon="-3.72869">
        <ele>208.8</ele>
        <time>2020-06-07T15:51:14Z</time>
      </trkpt>
      <trkpt lat="48.02945" lon="-3.72869">
        <ele>208.9</ele>
        <time>2020-06-07T15:51:15Z</time>
      </trkpt>
      <trkpt lat="48.02949" lon="-3.72868">
        <ele>209</ele>
        <time>2020-06-07T15:51:16Z</time>
      </trkpt>
      <trkpt lat="48.02953" lon="-3.72868">
        <ele>209.2</ele>
        <time>2020-06-07T15:51:17Z</time>
      </trkpt>
      <trkpt lat="48.02957" lon="-3.72868">
        <ele>209.3</ele>
        <time>2020-06-07T15:51:18Z</time>
      </trkpt>
      <trkpt lat="48.02961" lon="-3.72868">
        <ele>209.5</ele>
        <time>2020-06-07T15:51:19Z</time>
      </trkpt>
      <trkpt lat="48.02965" lon="-3.72868">
        <ele>209.6</ele>
        <time>2020-06-07T15:51:20Z</time>
      </trkpt>
      <trkpt lat="48.02969" lon="-3.72868">
        <ele>209.8</ele>
        <time>2020-06-07T15:51:21Z</time>
      </trkpt>
      <trkpt lat="48.02974" lon="-3.72867">
        <ele>210</ele>
        <time>2020-06-07T15:51:22Z</time>
      </trkpt>
      <trkpt lat="48.02978" lon="-3.72866">
        <ele>210.2</ele>
        <time>2020-06-07T15:51:23Z</time>
      </trkpt>
      <trkpt lat="48.02982" lon="-3.72866">
        <ele>210.4</ele>
        <time>2020-06-07T15:51:24Z</time>
      </trkpt>
      <trkpt lat="48.02986" lon="-3.72866">
        <ele>210.6</ele>
        <time>2020-06-07T15:51:25Z</time>
      </trkpt>
      <trkpt lat="48.0299" lon="-3.72868">
        <ele>210.8</ele>
        <time>2020-06-07T15:51:26Z</time>
      </trkpt>
      <trkpt lat="48.02993" lon="-3.72868">
        <ele>211</ele>
        <time>2020-06-07T15:51:27Z</time>
      </trkpt>
      <trkpt lat="48.02997" lon="-3.7287">
        <ele>211.2</ele>
        <time>2020-06-07T15:51:28Z</time>
      </trkpt>
      <trkpt lat="48.03001" lon="-3.7287">
        <ele>211.4</ele>
        <time>2020-06-07T15:51:29Z</time>
      </trkpt>
      <trkpt lat="48.03005" lon="-3.7287">
        <ele>211.7</ele>
        <time>2020-06-07T15:51:30Z</time>
      </trkpt>
      <trkpt lat="48.03009" lon="-3.7287">
        <ele>212</ele>
        <time>2020-06-07T15:51:31Z</time>
      </trkpt>
      <trkpt lat="48.03012" lon="-3.72871">
        <ele>212.2</ele>
        <time>2020-06-07T15:51:32Z</time>
      </trkpt>
      <trkpt lat="48.03016" lon="-3.72871">
        <ele>212.4</ele>
        <time>2020-06-07T15:51:33Z</time>
      </trkpt>
      <trkpt lat="48.03017" lon="-3.72871">
        <ele>212.5</ele>
        <time>2020-06-07T15:51:34Z</time>
      </trkpt>
      <trkpt lat="48.03021" lon="-3.72872">
        <ele>212.8</ele>
        <time>2020-06-07T15:51:35Z</time>
      </trkpt>
      <trkpt lat="48.03022" lon="-3.72874">
        <ele>212.9</ele>
        <time>2020-06-07T15:51:36Z</time>
      </trkpt>
      <trkpt lat="48.03025" lon="-3.72875">
        <ele>213.1</ele>
        <time>2020-06-07T15:51:37Z</time>
      </trkpt>
      <trkpt lat="48.03028" lon="-3.72876">
        <ele>213.3</ele>
        <time>2020-06-07T15:51:38Z</time>
      </trkpt>
      <trkpt lat="48.0303" lon="-3.72877">
        <ele>213.5</ele>
        <time>2020-06-07T15:51:39Z</time>
      </trkpt>
      <trkpt lat="48.03033" lon="-3.72878">
        <ele>213.6</ele>
        <time>2020-06-07T15:51:40Z</time>
      </trkpt>
      <trkpt lat="48.03036" lon="-3.72879">
        <ele>213.8</ele>
        <time>2020-06-07T15:51:41Z</time>
      </trkpt>
      <trkpt lat="48.0304" lon="-3.72879">
        <ele>214</ele>
        <time>2020-06-07T15:51:42Z</time>
      </trkpt>
      <trkpt lat="48.03043" lon="-3.72879">
        <ele>214.2</ele>
        <time>2020-06-07T15:51:43Z</time>
      </trkpt>
      <trkpt lat="48.03046" lon="-3.7288">
        <ele>214.4</ele>
        <time>2020-06-07T15:51:44Z</time>
      </trkpt>
      <trkpt lat="48.03048" lon="-3.7288">
        <ele>214.5</ele>
        <time>2020-06-07T15:51:45Z</time>
      </trkpt>
      <trkpt lat="48.03051" lon="-3.7288">
        <ele>214.7</ele>
        <time>2020-06-07T15:51:46Z</time>
      </trkpt>
      <trkpt lat="48.03052" lon="-3.7288">
        <ele>214.8</ele>
        <time>2020-06-07T15:51:47Z</time>
      </trkpt>
      <trkpt lat="48.03056" lon="-3.72881">
        <ele>215</ele>
        <time>2020-06-07T15:51:48Z</time>
      </trkpt>
      <trkpt lat="48.03057" lon="-3.72881">
        <ele>215</ele>
        <time>2020-06-07T15:51:49Z</time>
      </trkpt>
      <trkpt lat="48.0306" lon="-3.72882">
        <ele>215.2</ele>
        <time>2020-06-07T15:51:50Z</time>
      </trkpt>
      <trkpt lat="48.03064" lon="-3.72883">
        <ele>215.4</ele>
        <time>2020-06-07T15:51:51Z</time>
      </trkpt>
      <trkpt lat="48.03065" lon="-3.72883">
        <ele>215.4</ele>
        <time>2020-06-07T15:51:52Z</time>
      </trkpt>
      <trkpt lat="48.03068" lon="-3.72884">
        <ele>215.5</ele>
        <time>2020-06-07T15:51:53Z</time>
      </trkpt>
      <trkpt lat="48.03072" lon="-3.72885">
        <ele>215.7</ele>
        <time>2020-06-07T15:51:54Z</time>
      </trkpt>
      <trkpt lat="48.03076" lon="-3.72886">
        <ele>215.9</ele>
        <time>2020-06-07T15:51:55Z</time>
      </trkpt>
      <trkpt lat="48.0308" lon="-3.72887">
        <ele>216</ele>
        <time>2020-06-07T15:51:56Z</time>
      </trkpt>
      <trkpt lat="48.03082" lon="-3.72888">
        <ele>216.1</ele>
        <time>2020-06-07T15:51:57Z</time>
      </trkpt>
      <trkpt lat="48.03085" lon="-3.72889">
        <ele>216.2</ele>
        <time>2020-06-07T15:51:58Z</time>
      </trkpt>
      <trkpt lat="48.03088" lon="-3.7289">
        <ele>216.3</ele>
        <time>2020-06-07T15:51:59Z</time>
      </trkpt>
      <trkpt lat="48.03092" lon="-3.72892">
        <ele>216.4</ele>
        <time>2020-06-07T15:52:00Z</time>
      </trkpt>
      <trkpt lat="48.03096" lon="-3.72895">
        <ele>216.6</ele>
        <time>2020-06-07T15:52:01Z</time>
      </trkpt>
      <trkpt lat="48.03099" lon="-3.72896">
        <ele>216.7</ele>
        <time>2020-06-07T15:52:02Z</time>
      </trkpt>
      <trkpt lat="48.03103" lon="-3.72897">
        <ele>216.8</ele>
        <time>2020-06-07T15:52:03Z</time>
      </trkpt>
      <trkpt lat="48.03106" lon="-3.72899">
        <ele>216.9</ele>
        <time>2020-06-07T15:52:04Z</time>
      </trkpt>
      <trkpt lat="48.0311" lon="-3.72901">
        <ele>217.1</ele>
        <time>2020-06-07T15:52:05Z</time>
      </trkpt>
      <trkpt lat="48.03113" lon="-3.72901">
        <ele>217.2</ele>
        <time>2020-06-07T15:52:06Z</time>
      </trkpt>
      <trkpt lat="48.03116" lon="-3.72901">
        <ele>217.2</ele>
        <time>2020-06-07T15:52:07Z</time>
      </trkpt>
      <trkpt lat="48.03119" lon="-3.72901">
        <ele>217.3</ele>
        <time>2020-06-07T15:52:08Z</time>
      </trkpt>
      <trkpt lat="48.03123" lon="-3.72904">
        <ele>217.4</ele>
        <time>2020-06-07T15:52:09Z</time>
      </trkpt>
      <trkpt lat="48.03124" lon="-3.72904">
        <ele>217.5</ele>
        <time>2020-06-07T15:52:10Z</time>
      </trkpt>
      <trkpt lat="48.03128" lon="-3.72904">
        <ele>217.6</ele>
        <time>2020-06-07T15:52:11Z</time>
      </trkpt>
      <trkpt lat="48.03131" lon="-3.72905">
        <ele>217.6</ele>
        <time>2020-06-07T15:52:12Z</time>
      </trkpt>
      <trkpt lat="48.03134" lon="-3.72906">
        <ele>217.7</ele>
        <time>2020-06-07T15:52:13Z</time>
      </trkpt>
      <trkpt lat="48.03138" lon="-3.72907">
        <ele>217.8</ele>
        <time>2020-06-07T15:52:14Z</time>
      </trkpt>
      <trkpt lat="48.03141" lon="-3.72908">
        <ele>217.9</ele>
        <time>2020-06-07T15:52:15Z</time>
      </trkpt>
      <trkpt lat="48.03146" lon="-3.7291">
        <ele>218.1</ele>
        <time>2020-06-07T15:52:16Z</time>
      </trkpt>
      <trkpt lat="48.0315" lon="-3.72911">
        <ele>218.2</ele>
        <time>2020-06-07T15:52:17Z</time>
      </trkpt>
      <trkpt lat="48.03153" lon="-3.72913">
        <ele>218.3</ele>
        <time>2020-06-07T15:52:18Z</time>
      </trkpt>
      <trkpt lat="48.03157" lon="-3.72914">
        <ele>218.4</ele>
        <time>2020-06-07T15:52:19Z</time>
      </trkpt>
      <trkpt lat="48.03161" lon="-3.72915">
        <ele>218.5</ele>
        <time>2020-06-07T15:52:20Z</time>
      </trkpt>
      <trkpt lat="48.03165" lon="-3.72916">
        <ele>218.6</ele>
        <time>2020-06-07T15:52:21Z</time>
      </trkpt>
      <trkpt lat="48.03168" lon="-3.72916">
        <ele>218.6</ele>
        <time>2020-06-07T15:52:22Z</time>
      </trkpt>
      <trkpt lat="48.03171" lon="-3.72918">
        <ele>218.7</ele>
        <time>2020-06-07T15:52:23Z</time>
      </trkpt>
      <trkpt lat="48.03175" lon="-3.72919">
        <ele>218.7</ele>
        <time>2020-06-07T15:52:24Z</time>
      </trkpt>
      <trkpt lat="48.03178" lon="-3.72919">
        <ele>218.7</ele>
        <time>2020-06-07T15:52:25Z</time>
      </trkpt>
      <trkpt lat="48.03182" lon="-3.7292">
        <ele>218.8</ele>
        <time>2020-06-07T15:52:26Z</time>
      </trkpt>
      <trkpt lat="48.03187" lon="-3.72922">
        <ele>218.9</ele>
        <time>2020-06-07T15:52:27Z</time>
      </trkpt>
      <trkpt lat="48.03191" lon="-3.72924">
        <ele>219</ele>
        <time>2020-06-07T15:52:28Z</time>
      </trkpt>
      <trkpt lat="48.03195" lon="-3.72926">
        <ele>219.1</ele>
        <time>2020-06-07T15:52:29Z</time>
      </trkpt>
      <trkpt lat="48.03198" lon="-3.72927">
        <ele>219.2</ele>
        <time>2020-06-07T15:52:30Z</time>
      </trkpt>
      <trkpt lat="48.03202" lon="-3.72929">
        <ele>219.2</ele>
        <time>2020-06-07T15:52:31Z</time>
      </trkpt>
      <trkpt lat="48.03206" lon="-3.7293">
        <ele>219.3</ele>
        <time>2020-06-07T15:52:32Z</time>
      </trkpt>
      <trkpt lat="48.03211" lon="-3.72931">
        <ele>219.4</ele>
        <time>2020-06-07T15:52:33Z</time>
      </trkpt>
      <trkpt lat="48.03214" lon="-3.72933">
        <ele>219.5</ele>
        <time>2020-06-07T15:52:34Z</time>
      </trkpt>
      <trkpt lat="48.03218" lon="-3.72935">
        <ele>219.6</ele>
        <time>2020-06-07T15:52:35Z</time>
      </trkpt>
      <trkpt lat="48.03222" lon="-3.72936">
        <ele>219.6</ele>
        <time>2020-06-07T15:52:36Z</time>
      </trkpt>
      <trkpt lat="48.03225" lon="-3.72937">
        <ele>219.7</ele>
        <time>2020-06-07T15:52:37Z</time>
      </trkpt>
      <trkpt lat="48.03228" lon="-3.72939">
        <ele>219.8</ele>
        <time>2020-06-07T15:52:38Z</time>
      </trkpt>
      <trkpt lat="48.03231" lon="-3.7294">
        <ele>219.8</ele>
        <time>2020-06-07T15:52:39Z</time>
      </trkpt>
      <trkpt lat="48.03235" lon="-3.72938">
        <ele>219.9</ele>
        <time>2020-06-07T15:52:40Z</time>
      </trkpt>
      <trkpt lat="48.03237" lon="-3.72938">
        <ele>219.9</ele>
        <time>2020-06-07T15:52:41Z</time>
      </trkpt>
      <trkpt lat="48.03239" lon="-3.72938">
        <ele>219.9</ele>
        <time>2020-06-07T15:52:42Z</time>
      </trkpt>
      <trkpt lat="48.03242" lon="-3.72938">
        <ele>220</ele>
        <time>2020-06-07T15:52:43Z</time>
      </trkpt>
      <trkpt lat="48.03245" lon="-3.72938">
        <ele>220</ele>
        <time>2020-06-07T15:52:44Z</time>
      </trkpt>
      <trkpt lat="48.03248" lon="-3.7294">
        <ele>220.1</ele>
        <time>2020-06-07T15:52:45Z</time>
      </trkpt>
      <trkpt lat="48.03252" lon="-3.7294">
        <ele>220.2</ele>
        <time>2020-06-07T15:52:46Z</time>
      </trkpt>
      <trkpt lat="48.03255" lon="-3.72941">
        <ele>220.2</ele>
        <time>2020-06-07T15:52:47Z</time>
      </trkpt>
      <trkpt lat="48.03258" lon="-3.72942">
        <ele>220.3</ele>
        <time>2020-06-07T15:52:48Z</time>
      </trkpt>
      <trkpt lat="48.03262" lon="-3.72943">
        <ele>220.4</ele>
        <time>2020-06-07T15:52:49Z</time>
      </trkpt>
      <trkpt lat="48.03265" lon="-3.72943">
        <ele>220.5</ele>
        <time>2020-06-07T15:52:50Z</time>
      </trkpt>
      <trkpt lat="48.03268" lon="-3.72942">
        <ele>220.6</ele>
        <time>2020-06-07T15:52:51Z</time>
      </trkpt>
      <trkpt lat="48.03271" lon="-3.72942">
        <ele>220.7</ele>
        <time>2020-06-07T15:52:52Z</time>
      </trkpt>
      <trkpt lat="48.03274" lon="-3.72941">
        <ele>220.8</ele>
        <time>2020-06-07T15:52:53Z</time>
      </trkpt>
      <trkpt lat="48.03278" lon="-3.7294">
        <ele>220.9</ele>
        <time>2020-06-07T15:52:54Z</time>
      </trkpt>
      <trkpt lat="48.03282" lon="-3.7294">
        <ele>221.1</ele>
        <time>2020-06-07T15:52:55Z</time>
      </trkpt>
      <trkpt lat="48.03285" lon="-3.7294">
        <ele>221.2</ele>
        <time>2020-06-07T15:52:56Z</time>
      </trkpt>
      <trkpt lat="48.03289" lon="-3.72939">
        <ele>221.4</ele>
        <time>2020-06-07T15:52:57Z</time>
      </trkpt>
      <trkpt lat="48.0329" lon="-3.72939">
        <ele>221.4</ele>
        <time>2020-06-07T15:52:58Z</time>
      </trkpt>
      <trkpt lat="48.03293" lon="-3.72937">
        <ele>221.5</ele>
        <time>2020-06-07T15:52:59Z</time>
      </trkpt>
      <trkpt lat="48.03296" lon="-3.72936">
        <ele>221.6</ele>
        <time>2020-06-07T15:53:00Z</time>
      </trkpt>
      <trkpt lat="48.03298" lon="-3.72936">
        <ele>221.8</ele>
        <time>2020-06-07T15:53:01Z</time>
      </trkpt>
      <trkpt lat="48.03298" lon="-3.72936">
        <ele>221.8</ele>
        <time>2020-06-07T15:53:02Z</time>
      </trkpt>
      <trkpt lat="48.03299" lon="-3.72937">
        <ele>221.7</ele>
        <time>2020-06-07T15:53:03Z</time>
      </trkpt>
      <trkpt lat="48.03299" lon="-3.72937">
        <ele>221.7</ele>
        <time>2020-06-07T15:53:04Z</time>
      </trkpt>
      <trkpt lat="48.03299" lon="-3.72937">
        <ele>221.7</ele>
        <time>2020-06-07T15:53:05Z</time>
      </trkpt>
      <trkpt lat="48.03299" lon="-3.72937">
        <ele>221.7</ele>
        <time>2020-06-07T15:53:06Z</time>
      </trkpt>
      <trkpt lat="48.033" lon="-3.72937">
        <ele>221.7</ele>
        <time>2020-06-07T15:53:07Z</time>
      </trkpt>
      <trkpt lat="48.033" lon="-3.72937">
        <ele>221.7</ele>
        <time>2020-06-07T15:53:08Z</time>
      </trkpt>
      <trkpt lat="48.033" lon="-3.72938">
        <ele>221.7</ele>
        <time>2020-06-07T15:53:09Z</time>
      </trkpt>
      <trkpt lat="48.03301" lon="-3.72938">
        <ele>221.7</ele>
        <time>2020-06-07T15:53:10Z</time>
      </trkpt>
      <trkpt lat="48.03301" lon="-3.72938">
        <ele>221.7</ele>
        <time>2020-06-07T15:53:11Z</time>
      </trkpt>
      <trkpt lat="48.03301" lon="-3.72938">
        <ele>221.7</ele>
        <time>2020-06-07T15:53:12Z</time>
      </trkpt>
      <trkpt lat="48.03302" lon="-3.72938">
        <ele>221.7</ele>
        <time>2020-06-07T15:53:13Z</time>
      </trkpt>
      <trkpt lat="48.03302" lon="-3.72938">
        <ele>221.7</ele>
        <time>2020-06-07T15:53:14Z</time>
      </trkpt>
      <trkpt lat="48.03302" lon="-3.72939">
        <ele>221.7</ele>
        <time>2020-06-07T15:53:15Z</time>
      </trkpt>
      <trkpt lat="48.03303" lon="-3.72939">
        <ele>221.7</ele>
        <time>2020-06-07T15:54:37Z</time>
      </trkpt>
      <trkpt lat="48.03303" lon="-3.72939">
        <ele>221.7</ele>
        <time>2020-06-07T15:54:38Z</time>
      </trkpt>
      <trkpt lat="48.03303" lon="-3.72939">
        <ele>221.7</ele>
        <time>2020-06-07T15:54:39Z</time>
      </trkpt>
      <trkpt lat="48.03304" lon="-3.72944">
        <ele>221.6</ele>
        <time>2020-06-07T15:54:40Z</time>
      </trkpt>
      <trkpt lat="48.03305" lon="-3.72948">
        <ele>221.6</ele>
        <time>2020-06-07T15:54:41Z</time>
      </trkpt>
      <trkpt lat="48.03305" lon="-3.72953">
        <ele>221.5</ele>
        <time>2020-06-07T15:54:42Z</time>
      </trkpt>
      <trkpt lat="48.03306" lon="-3.72958">
        <ele>221.5</ele>
        <time>2020-06-07T15:54:43Z</time>
      </trkpt>
      <trkpt lat="48.03307" lon="-3.72962">
        <ele>221.4</ele>
        <time>2020-06-07T15:54:44Z</time>
      </trkpt>
      <trkpt lat="48.03308" lon="-3.72967">
        <ele>221.3</ele>
        <time>2020-06-07T15:54:45Z</time>
      </trkpt>
      <trkpt lat="48.0331" lon="-3.72972">
        <ele>221.3</ele>
        <time>2020-06-07T15:54:46Z</time>
      </trkpt>
      <trkpt lat="48.03311" lon="-3.72977">
        <ele>221.2</ele>
        <time>2020-06-07T15:54:47Z</time>
      </trkpt>
      <trkpt lat="48.03312" lon="-3.72982">
        <ele>221.1</ele>
        <time>2020-06-07T15:54:48Z</time>
      </trkpt>
      <trkpt lat="48.03313" lon="-3.72987">
        <ele>221.1</ele>
        <time>2020-06-07T15:54:49Z</time>
      </trkpt>
      <trkpt lat="48.03314" lon="-3.72993">
        <ele>221</ele>
        <time>2020-06-07T15:54:50Z</time>
      </trkpt>
      <trkpt lat="48.03314" lon="-3.72999">
        <ele>220.9</ele>
        <time>2020-06-07T15:54:51Z</time>
      </trkpt>
      <trkpt lat="48.03315" lon="-3.73006">
        <ele>220.7</ele>
        <time>2020-06-07T15:54:52Z</time>
      </trkpt>
      <trkpt lat="48.03317" lon="-3.73011">
        <ele>220.6</ele>
        <time>2020-06-07T15:54:53Z</time>
      </trkpt>
      <trkpt lat="48.03318" lon="-3.73017">
        <ele>220.5</ele>
        <time>2020-06-07T15:54:54Z</time>
      </trkpt>
      <trkpt lat="48.0332" lon="-3.73023">
        <ele>220.3</ele>
        <time>2020-06-07T15:54:55Z</time>
      </trkpt>
      <trkpt lat="48.03321" lon="-3.73029">
        <ele>220.2</ele>
        <time>2020-06-07T15:54:56Z</time>
      </trkpt>
      <trkpt lat="48.03322" lon="-3.73035">
        <ele>220</ele>
        <time>2020-06-07T15:54:57Z</time>
      </trkpt>
      <trkpt lat="48.03324" lon="-3.73043">
        <ele>219.8</ele>
        <time>2020-06-07T15:54:58Z</time>
      </trkpt>
      <trkpt lat="48.03325" lon="-3.73051">
        <ele>219.6</ele>
        <time>2020-06-07T15:54:59Z</time>
      </trkpt>
      <trkpt lat="48.03326" lon="-3.7306">
        <ele>219.3</ele>
        <time>2020-06-07T15:55:00Z</time>
      </trkpt>
      <trkpt lat="48.03328" lon="-3.73069">
        <ele>219.1</ele>
        <time>2020-06-07T15:55:01Z</time>
      </trkpt>
      <trkpt lat="48.0333" lon="-3.73079">
        <ele>218.9</ele>
        <time>2020-06-07T15:55:02Z</time>
      </trkpt>
      <trkpt lat="48.03331" lon="-3.73088">
        <ele>218.6</ele>
        <time>2020-06-07T15:55:03Z</time>
      </trkpt>
      <trkpt lat="48.03333" lon="-3.73097">
        <ele>218.4</ele>
        <time>2020-06-07T15:55:04Z</time>
      </trkpt>
      <trkpt lat="48.03335" lon="-3.73106">
        <ele>218.2</ele>
        <time>2020-06-07T15:55:05Z</time>
      </trkpt>
      <trkpt lat="48.03336" lon="-3.73116">
        <ele>217.9</ele>
        <time>2020-06-07T15:55:06Z</time>
      </trkpt>
      <trkpt lat="48.03338" lon="-3.73126">
        <ele>217.7</ele>
        <time>2020-06-07T15:55:07Z</time>
      </trkpt>
      <trkpt lat="48.0334" lon="-3.73136">
        <ele>217.5</ele>
        <time>2020-06-07T15:55:08Z</time>
      </trkpt>
      <trkpt lat="48.03342" lon="-3.73146">
        <ele>217.3</ele>
        <time>2020-06-07T15:55:09Z</time>
      </trkpt>
      <trkpt lat="48.03344" lon="-3.73156">
        <ele>217</ele>
        <time>2020-06-07T15:55:10Z</time>
      </trkpt>
      <trkpt lat="48.03346" lon="-3.73167">
        <ele>216.8</ele>
        <time>2020-06-07T15:55:11Z</time>
      </trkpt>
      <trkpt lat="48.03348" lon="-3.73178">
        <ele>216.5</ele>
        <time>2020-06-07T15:55:12Z</time>
      </trkpt>
      <trkpt lat="48.0335" lon="-3.73189">
        <ele>216.3</ele>
        <time>2020-06-07T15:55:13Z</time>
      </trkpt>
      <trkpt lat="48.03352" lon="-3.732">
        <ele>216.1</ele>
        <time>2020-06-07T15:55:14Z</time>
      </trkpt>
      <trkpt lat="48.03354" lon="-3.73211">
        <ele>215.9</ele>
        <time>2020-06-07T15:55:15Z</time>
      </trkpt>
      <trkpt lat="48.03356" lon="-3.73221">
        <ele>215.8</ele>
        <time>2020-06-07T15:55:16Z</time>
      </trkpt>
      <trkpt lat="48.03358" lon="-3.73232">
        <ele>215.6</ele>
        <time>2020-06-07T15:55:17Z</time>
      </trkpt>
      <trkpt lat="48.0336" lon="-3.73241">
        <ele>215.4</ele>
        <time>2020-06-07T15:55:18Z</time>
      </trkpt>
      <trkpt lat="48.03362" lon="-3.7325">
        <ele>215.3</ele>
        <time>2020-06-07T15:55:19Z</time>
      </trkpt>
      <trkpt lat="48.03363" lon="-3.73261">
        <ele>215.2</ele>
        <time>2020-06-07T15:55:20Z</time>
      </trkpt>
      <trkpt lat="48.03365" lon="-3.73271">
        <ele>215.1</ele>
        <time>2020-06-07T15:55:21Z</time>
      </trkpt>
      <trkpt lat="48.03367" lon="-3.73281">
        <ele>214.9</ele>
        <time>2020-06-07T15:55:22Z</time>
      </trkpt>
      <trkpt lat="48.03369" lon="-3.73292">
        <ele>214.8</ele>
        <time>2020-06-07T15:55:23Z</time>
      </trkpt>
      <trkpt lat="48.03371" lon="-3.73303">
        <ele>214.8</ele>
        <time>2020-06-07T15:55:24Z</time>
      </trkpt>
      <trkpt lat="48.03373" lon="-3.73313">
        <ele>214.7</ele>
        <time>2020-06-07T15:55:25Z</time>
      </trkpt>
      <trkpt lat="48.03375" lon="-3.73322">
        <ele>214.7</ele>
        <time>2020-06-07T15:55:26Z</time>
      </trkpt>
      <trkpt lat="48.03377" lon="-3.73332">
        <ele>214.7</ele>
        <time>2020-06-07T15:55:27Z</time>
      </trkpt>
      <trkpt lat="48.03379" lon="-3.73342">
        <ele>214.7</ele>
        <time>2020-06-07T15:55:28Z</time>
      </trkpt>
      <trkpt lat="48.03381" lon="-3.73351">
        <ele>214.7</ele>
        <time>2020-06-07T15:55:29Z</time>
      </trkpt>
      <trkpt lat="48.03382" lon="-3.7336">
        <ele>214.7</ele>
        <time>2020-06-07T15:55:30Z</time>
      </trkpt>
      <trkpt lat="48.03384" lon="-3.7337">
        <ele>214.7</ele>
        <time>2020-06-07T15:55:31Z</time>
      </trkpt>
      <trkpt lat="48.03386" lon="-3.73379">
        <ele>214.7</ele>
        <time>2020-06-07T15:55:32Z</time>
      </trkpt>
      <trkpt lat="48.03388" lon="-3.73388">
        <ele>214.7</ele>
        <time>2020-06-07T15:55:33Z</time>
      </trkpt>
      <trkpt lat="48.03389" lon="-3.73397">
        <ele>214.7</ele>
        <time>2020-06-07T15:55:34Z</time>
      </trkpt>
      <trkpt lat="48.03391" lon="-3.73406">
        <ele>214.7</ele>
        <time>2020-06-07T15:55:35Z</time>
      </trkpt>
      <trkpt lat="48.03392" lon="-3.73415">
        <ele>214.6</ele>
        <time>2020-06-07T15:55:36Z</time>
      </trkpt>
      <trkpt lat="48.03394" lon="-3.73424">
        <ele>214.6</ele>
        <time>2020-06-07T15:55:37Z</time>
      </trkpt>
      <trkpt lat="48.03395" lon="-3.73433">
        <ele>214.6</ele>
        <time>2020-06-07T15:55:38Z</time>
      </trkpt>
      <trkpt lat="48.03397" lon="-3.73442">
        <ele>214.6</ele>
        <time>2020-06-07T15:55:39Z</time>
      </trkpt>
      <trkpt lat="48.03399" lon="-3.73451">
        <ele>214.5</ele>
        <time>2020-06-07T15:55:40Z</time>
      </trkpt>
      <trkpt lat="48.034" lon="-3.73459">
        <ele>214.5</ele>
        <time>2020-06-07T15:55:41Z</time>
      </trkpt>
      <trkpt lat="48.03402" lon="-3.73468">
        <ele>214.5</ele>
        <time>2020-06-07T15:55:42Z</time>
      </trkpt>
      <trkpt lat="48.03404" lon="-3.73477">
        <ele>214.5</ele>
        <time>2020-06-07T15:55:43Z</time>
      </trkpt>
      <trkpt lat="48.03406" lon="-3.73485">
        <ele>214.5</ele>
        <time>2020-06-07T15:55:44Z</time>
      </trkpt>
      <trkpt lat="48.03407" lon="-3.73494">
        <ele>214.5</ele>
        <time>2020-06-07T15:55:45Z</time>
      </trkpt>
      <trkpt lat="48.03409" lon="-3.73503">
        <ele>214.5</ele>
        <time>2020-06-07T15:55:46Z</time>
      </trkpt>
      <trkpt lat="48.03411" lon="-3.73511">
        <ele>214.5</ele>
        <time>2020-06-07T15:55:47Z</time>
      </trkpt>
      <trkpt lat="48.03412" lon="-3.7352">
        <ele>214.4</ele>
        <time>2020-06-07T15:55:48Z</time>
      </trkpt>
      <trkpt lat="48.03414" lon="-3.73528">
        <ele>214.3</ele>
        <time>2020-06-07T15:55:49Z</time>
      </trkpt>
      <trkpt lat="48.03415" lon="-3.73537">
        <ele>214.3</ele>
        <time>2020-06-07T15:55:50Z</time>
      </trkpt>
      <trkpt lat="48.03416" lon="-3.73545">
        <ele>214.3</ele>
        <time>2020-06-07T15:55:51Z</time>
      </trkpt>
      <trkpt lat="48.03418" lon="-3.73554">
        <ele>214.2</ele>
        <time>2020-06-07T15:55:52Z</time>
      </trkpt>
      <trkpt lat="48.03419" lon="-3.73562">
        <ele>214.1</ele>
        <time>2020-06-07T15:55:53Z</time>
      </trkpt>
      <trkpt lat="48.0342" lon="-3.73571">
        <ele>214</ele>
        <time>2020-06-07T15:55:54Z</time>
      </trkpt>
      <trkpt lat="48.03421" lon="-3.7358">
        <ele>213.9</ele>
        <time>2020-06-07T15:55:55Z</time>
      </trkpt>
      <trkpt lat="48.03423" lon="-3.73588">
        <ele>213.8</ele>
        <time>2020-06-07T15:55:56Z</time>
      </trkpt>
      <trkpt lat="48.03424" lon="-3.73597">
        <ele>213.7</ele>
        <time>2020-06-07T15:55:57Z</time>
      </trkpt>
      <trkpt lat="48.03426" lon="-3.73606">
        <ele>213.6</ele>
        <time>2020-06-07T15:55:58Z</time>
      </trkpt>
      <trkpt lat="48.03428" lon="-3.73614">
        <ele>213.5</ele>
        <time>2020-06-07T15:55:59Z</time>
      </trkpt>
      <trkpt lat="48.03429" lon="-3.73623">
        <ele>213.4</ele>
        <time>2020-06-07T15:56:00Z</time>
      </trkpt>
      <trkpt lat="48.03431" lon="-3.73632">
        <ele>213.3</ele>
        <time>2020-06-07T15:56:01Z</time>
      </trkpt>
      <trkpt lat="48.03433" lon="-3.73641">
        <ele>213.1</ele>
        <time>2020-06-07T15:56:02Z</time>
      </trkpt>
      <trkpt lat="48.03435" lon="-3.7365">
        <ele>213</ele>
        <time>2020-06-07T15:56:03Z</time>
      </trkpt>
      <trkpt lat="48.03436" lon="-3.7366">
        <ele>212.8</ele>
        <time>2020-06-07T15:56:04Z</time>
      </trkpt>
      <trkpt lat="48.03438" lon="-3.73669">
        <ele>212.6</ele>
        <time>2020-06-07T15:56:05Z</time>
      </trkpt>
      <trkpt lat="48.0344" lon="-3.73678">
        <ele>212.4</ele>
        <time>2020-06-07T15:56:06Z</time>
      </trkpt>
      <trkpt lat="48.03442" lon="-3.73688">
        <ele>212.2</ele>
        <time>2020-06-07T15:56:07Z</time>
      </trkpt>
      <trkpt lat="48.03443" lon="-3.73698">
        <ele>212</ele>
        <time>2020-06-07T15:56:08Z</time>
      </trkpt>
      <trkpt lat="48.03446" lon="-3.73708">
        <ele>211.8</ele>
        <time>2020-06-07T15:56:09Z</time>
      </trkpt>
      <trkpt lat="48.03447" lon="-3.73718">
        <ele>211.6</ele>
        <time>2020-06-07T15:56:10Z</time>
      </trkpt>
      <trkpt lat="48.03449" lon="-3.73728">
        <ele>211.4</ele>
        <time>2020-06-07T15:56:11Z</time>
      </trkpt>
      <trkpt lat="48.03451" lon="-3.73739">
        <ele>211.1</ele>
        <time>2020-06-07T15:56:12Z</time>
      </trkpt>
      <trkpt lat="48.03453" lon="-3.73749">
        <ele>210.9</ele>
        <time>2020-06-07T15:56:13Z</time>
      </trkpt>
      <trkpt lat="48.03455" lon="-3.73759">
        <ele>210.7</ele>
        <time>2020-06-07T15:56:14Z</time>
      </trkpt>
      <trkpt lat="48.03457" lon="-3.7377">
        <ele>210.4</ele>
        <time>2020-06-07T15:56:15Z</time>
      </trkpt>
      <trkpt lat="48.03459" lon="-3.73781">
        <ele>210.2</ele>
        <time>2020-06-07T15:56:16Z</time>
      </trkpt>
      <trkpt lat="48.03461" lon="-3.73792">
        <ele>210</ele>
        <time>2020-06-07T15:56:17Z</time>
      </trkpt>
      <trkpt lat="48.03463" lon="-3.73803">
        <ele>209.8</ele>
        <time>2020-06-07T15:56:18Z</time>
      </trkpt>
      <trkpt lat="48.03466" lon="-3.73814">
        <ele>209.6</ele>
        <time>2020-06-07T15:56:19Z</time>
      </trkpt>
      <trkpt lat="48.03468" lon="-3.73825">
        <ele>209.4</ele>
        <time>2020-06-07T15:56:20Z</time>
      </trkpt>
      <trkpt lat="48.03469" lon="-3.73836">
        <ele>209.3</ele>
        <time>2020-06-07T15:56:21Z</time>
      </trkpt>
      <trkpt lat="48.03471" lon="-3.73847">
        <ele>209.2</ele>
        <time>2020-06-07T15:56:22Z</time>
      </trkpt>
      <trkpt lat="48.03473" lon="-3.73858">
        <ele>209.1</ele>
        <time>2020-06-07T15:56:23Z</time>
      </trkpt>
      <trkpt lat="48.03475" lon="-3.73868">
        <ele>209</ele>
        <time>2020-06-07T15:56:24Z</time>
      </trkpt>
      <trkpt lat="48.03477" lon="-3.73879">
        <ele>208.9</ele>
        <time>2020-06-07T15:56:25Z</time>
      </trkpt>
      <trkpt lat="48.03479" lon="-3.73889">
        <ele>208.9</ele>
        <time>2020-06-07T15:56:26Z</time>
      </trkpt>
      <trkpt lat="48.03481" lon="-3.739">
        <ele>208.9</ele>
        <time>2020-06-07T15:56:27Z</time>
      </trkpt>
      <trkpt lat="48.03483" lon="-3.73909">
        <ele>208.8</ele>
        <time>2020-06-07T15:56:28Z</time>
      </trkpt>
      <trkpt lat="48.03485" lon="-3.73919">
        <ele>208.9</ele>
        <time>2020-06-07T15:56:29Z</time>
      </trkpt>
      <trkpt lat="48.03487" lon="-3.73929">
        <ele>208.9</ele>
        <time>2020-06-07T15:56:30Z</time>
      </trkpt>
      <trkpt lat="48.03489" lon="-3.73938">
        <ele>209</ele>
        <time>2020-06-07T15:56:31Z</time>
      </trkpt>
      <trkpt lat="48.03491" lon="-3.73948">
        <ele>209</ele>
        <time>2020-06-07T15:56:32Z</time>
      </trkpt>
      <trkpt lat="48.03493" lon="-3.73957">
        <ele>209.1</ele>
        <time>2020-06-07T15:56:33Z</time>
      </trkpt>
      <trkpt lat="48.03494" lon="-3.73967">
        <ele>209.2</ele>
        <time>2020-06-07T15:56:34Z</time>
      </trkpt>
      <trkpt lat="48.03495" lon="-3.73976">
        <ele>209.2</ele>
        <time>2020-06-07T15:56:35Z</time>
      </trkpt>
      <trkpt lat="48.03497" lon="-3.73984">
        <ele>209.3</ele>
        <time>2020-06-07T15:56:36Z</time>
      </trkpt>
      <trkpt lat="48.03499" lon="-3.73993">
        <ele>209.3</ele>
        <time>2020-06-07T15:56:37Z</time>
      </trkpt>
      <trkpt lat="48.03501" lon="-3.74002">
        <ele>209.3</ele>
        <time>2020-06-07T15:56:38Z</time>
      </trkpt>
      <trkpt lat="48.03503" lon="-3.7401">
        <ele>209.4</ele>
        <time>2020-06-07T15:56:39Z</time>
      </trkpt>
      <trkpt lat="48.03505" lon="-3.74019">
        <ele>209.4</ele>
        <time>2020-06-07T15:56:40Z</time>
      </trkpt>
      <trkpt lat="48.03506" lon="-3.74028">
        <ele>209.4</ele>
        <time>2020-06-07T15:56:41Z</time>
      </trkpt>
      <trkpt lat="48.03509" lon="-3.74037">
        <ele>209.3</ele>
        <time>2020-06-07T15:56:42Z</time>
      </trkpt>
      <trkpt lat="48.03511" lon="-3.74046">
        <ele>209.3</ele>
        <time>2020-06-07T15:56:43Z</time>
      </trkpt>
      <trkpt lat="48.03513" lon="-3.74055">
        <ele>209.3</ele>
        <time>2020-06-07T15:56:44Z</time>
      </trkpt>
      <trkpt lat="48.03514" lon="-3.74064">
        <ele>209.2</ele>
        <time>2020-06-07T15:56:45Z</time>
      </trkpt>
      <trkpt lat="48.03517" lon="-3.74073">
        <ele>209.2</ele>
        <time>2020-06-07T15:56:46Z</time>
      </trkpt>
      <trkpt lat="48.03519" lon="-3.74082">
        <ele>209.1</ele>
        <time>2020-06-07T15:56:47Z</time>
      </trkpt>
      <trkpt lat="48.03521" lon="-3.74091">
        <ele>209</ele>
        <time>2020-06-07T15:56:48Z</time>
      </trkpt>
      <trkpt lat="48.03523" lon="-3.741">
        <ele>209</ele>
        <time>2020-06-07T15:56:49Z</time>
      </trkpt>
      <trkpt lat="48.03525" lon="-3.74109">
        <ele>208.9</ele>
        <time>2020-06-07T15:56:50Z</time>
      </trkpt>
      <trkpt lat="48.03527" lon="-3.74119">
        <ele>208.8</ele>
        <time>2020-06-07T15:56:51Z</time>
      </trkpt>
      <trkpt lat="48.03528" lon="-3.74128">
        <ele>208.7</ele>
        <time>2020-06-07T15:56:52Z</time>
      </trkpt>
      <trkpt lat="48.0353" lon="-3.74138">
        <ele>208.5</ele>
        <time>2020-06-07T15:56:53Z</time>
      </trkpt>
      <trkpt lat="48.03532" lon="-3.74147">
        <ele>208.4</ele>
        <time>2020-06-07T15:56:54Z</time>
      </trkpt>
      <trkpt lat="48.03534" lon="-3.74157">
        <ele>208.3</ele>
        <time>2020-06-07T15:56:55Z</time>
      </trkpt>
      <trkpt lat="48.03535" lon="-3.74166">
        <ele>208.2</ele>
        <time>2020-06-07T15:56:56Z</time>
      </trkpt>
      <trkpt lat="48.03537" lon="-3.74176">
        <ele>208.1</ele>
        <time>2020-06-07T15:56:57Z</time>
      </trkpt>
      <trkpt lat="48.03538" lon="-3.74186">
        <ele>208</ele>
        <time>2020-06-07T15:56:58Z</time>
      </trkpt>
      <trkpt lat="48.0354" lon="-3.74195">
        <ele>208</ele>
        <time>2020-06-07T15:56:59Z</time>
      </trkpt>
      <trkpt lat="48.03542" lon="-3.74205">
        <ele>207.9</ele>
        <time>2020-06-07T15:57:00Z</time>
      </trkpt>
      <trkpt lat="48.03544" lon="-3.74214">
        <ele>207.8</ele>
        <time>2020-06-07T15:57:01Z</time>
      </trkpt>
      <trkpt lat="48.03545" lon="-3.74224">
        <ele>207.7</ele>
        <time>2020-06-07T15:57:02Z</time>
      </trkpt>
      <trkpt lat="48.03547" lon="-3.74233">
        <ele>207.7</ele>
        <time>2020-06-07T15:57:03Z</time>
      </trkpt>
      <trkpt lat="48.03549" lon="-3.74242">
        <ele>207.6</ele>
        <time>2020-06-07T15:57:04Z</time>
      </trkpt>
      <trkpt lat="48.03551" lon="-3.74251">
        <ele>207.6</ele>
        <time>2020-06-07T15:57:05Z</time>
      </trkpt>
      <trkpt lat="48.03552" lon="-3.7426">
        <ele>207.5</ele>
        <time>2020-06-07T15:57:06Z</time>
      </trkpt>
      <trkpt lat="48.03554" lon="-3.74269">
        <ele>207.5</ele>
        <time>2020-06-07T15:57:07Z</time>
      </trkpt>
      <trkpt lat="48.03555" lon="-3.74278">
        <ele>207.5</ele>
        <time>2020-06-07T15:57:08Z</time>
      </trkpt>
      <trkpt lat="48.03557" lon="-3.74287">
        <ele>207.4</ele>
        <time>2020-06-07T15:57:09Z</time>
      </trkpt>
      <trkpt lat="48.03559" lon="-3.74297">
        <ele>207.4</ele>
        <time>2020-06-07T15:57:10Z</time>
      </trkpt>
      <trkpt lat="48.0356" lon="-3.74306">
        <ele>207.4</ele>
        <time>2020-06-07T15:57:11Z</time>
      </trkpt>
      <trkpt lat="48.03562" lon="-3.74315">
        <ele>207.3</ele>
        <time>2020-06-07T15:57:12Z</time>
      </trkpt>
      <trkpt lat="48.03564" lon="-3.74324">
        <ele>207.3</ele>
        <time>2020-06-07T15:57:13Z</time>
      </trkpt>
      <trkpt lat="48.03565" lon="-3.74333">
        <ele>207.3</ele>
        <time>2020-06-07T15:57:14Z</time>
      </trkpt>
      <trkpt lat="48.03567" lon="-3.74342">
        <ele>207.3</ele>
        <time>2020-06-07T15:57:15Z</time>
      </trkpt>
      <trkpt lat="48.03569" lon="-3.74351">
        <ele>207.3</ele>
        <time>2020-06-07T15:57:16Z</time>
      </trkpt>
      <trkpt lat="48.0357" lon="-3.7436">
        <ele>207.3</ele>
        <time>2020-06-07T15:57:17Z</time>
      </trkpt>
      <trkpt lat="48.03572" lon="-3.74369">
        <ele>207.3</ele>
        <time>2020-06-07T15:57:18Z</time>
      </trkpt>
      <trkpt lat="48.03574" lon="-3.74378">
        <ele>207.4</ele>
        <time>2020-06-07T15:57:19Z</time>
      </trkpt>
      <trkpt lat="48.03575" lon="-3.74387">
        <ele>207.4</ele>
        <time>2020-06-07T15:57:20Z</time>
      </trkpt>
      <trkpt lat="48.03576" lon="-3.74395">
        <ele>207.3</ele>
        <time>2020-06-07T15:57:21Z</time>
      </trkpt>
      <trkpt lat="48.03578" lon="-3.74404">
        <ele>207.3</ele>
        <time>2020-06-07T15:57:22Z</time>
      </trkpt>
      <trkpt lat="48.0358" lon="-3.74412">
        <ele>207.3</ele>
        <time>2020-06-07T15:57:23Z</time>
      </trkpt>
      <trkpt lat="48.03581" lon="-3.74421">
        <ele>207.4</ele>
        <time>2020-06-07T15:57:24Z</time>
      </trkpt>
      <trkpt lat="48.03583" lon="-3.74429">
        <ele>207.4</ele>
        <time>2020-06-07T15:57:25Z</time>
      </trkpt>
      <trkpt lat="48.03585" lon="-3.74438">
        <ele>207.4</ele>
        <time>2020-06-07T15:57:26Z</time>
      </trkpt>
      <trkpt lat="48.03587" lon="-3.74446">
        <ele>207.5</ele>
        <time>2020-06-07T15:57:27Z</time>
      </trkpt>
      <trkpt lat="48.03588" lon="-3.74455">
        <ele>207.5</ele>
        <time>2020-06-07T15:57:28Z</time>
      </trkpt>
      <trkpt lat="48.03589" lon="-3.74463">
        <ele>207.5</ele>
        <time>2020-06-07T15:57:29Z</time>
      </trkpt>
      <trkpt lat="48.03591" lon="-3.74472">
        <ele>207.6</ele>
        <time>2020-06-07T15:57:30Z</time>
      </trkpt>
      <trkpt lat="48.03592" lon="-3.7448">
        <ele>207.7</ele>
        <time>2020-06-07T15:57:31Z</time>
      </trkpt>
      <trkpt lat="48.03594" lon="-3.74488">
        <ele>207.7</ele>
        <time>2020-06-07T15:57:32Z</time>
      </trkpt>
      <trkpt lat="48.03596" lon="-3.74497">
        <ele>207.8</ele>
        <time>2020-06-07T15:57:33Z</time>
      </trkpt>
      <trkpt lat="48.03597" lon="-3.74505">
        <ele>207.9</ele>
        <time>2020-06-07T15:57:34Z</time>
      </trkpt>
      <trkpt lat="48.03598" lon="-3.74514">
        <ele>208</ele>
        <time>2020-06-07T15:57:35Z</time>
      </trkpt>
      <trkpt lat="48.036" lon="-3.74522">
        <ele>208.1</ele>
        <time>2020-06-07T15:57:36Z</time>
      </trkpt>
      <trkpt lat="48.03601" lon="-3.7453">
        <ele>208.3</ele>
        <time>2020-06-07T15:57:37Z</time>
      </trkpt>
      <trkpt lat="48.03603" lon="-3.74539">
        <ele>208.4</ele>
        <time>2020-06-07T15:57:38Z</time>
      </trkpt>
      <trkpt lat="48.03604" lon="-3.74547">
        <ele>208.5</ele>
        <time>2020-06-07T15:57:39Z</time>
      </trkpt>
      <trkpt lat="48.03606" lon="-3.74554">
        <ele>208.5</ele>
        <time>2020-06-07T15:57:40Z</time>
      </trkpt>
      <trkpt lat="48.03607" lon="-3.74562">
        <ele>208.6</ele>
        <time>2020-06-07T15:57:41Z</time>
      </trkpt>
      <trkpt lat="48.03609" lon="-3.74569">
        <ele>208.6</ele>
        <time>2020-06-07T15:57:42Z</time>
      </trkpt>
      <trkpt lat="48.0361" lon="-3.74577">
        <ele>208.7</ele>
        <time>2020-06-07T15:57:43Z</time>
      </trkpt>
      <trkpt lat="48.03611" lon="-3.74584">
        <ele>208.7</ele>
        <time>2020-06-07T15:57:44Z</time>
      </trkpt>
      <trkpt lat="48.03612" lon="-3.74592">
        <ele>208.8</ele>
        <time>2020-06-07T15:57:45Z</time>
      </trkpt>
      <trkpt lat="48.03613" lon="-3.746">
        <ele>208.9</ele>
        <time>2020-06-07T15:57:46Z</time>
      </trkpt>
      <trkpt lat="48.03614" lon="-3.74609">
        <ele>208.9</ele>
        <time>2020-06-07T15:57:47Z</time>
      </trkpt>
      <trkpt lat="48.03616" lon="-3.74617">
        <ele>209.1</ele>
        <time>2020-06-07T15:57:48Z</time>
      </trkpt>
      <trkpt lat="48.03617" lon="-3.74625">
        <ele>209.2</ele>
        <time>2020-06-07T15:57:49Z</time>
      </trkpt>
      <trkpt lat="48.03618" lon="-3.74632">
        <ele>209.3</ele>
        <time>2020-06-07T15:57:50Z</time>
      </trkpt>
      <trkpt lat="48.0362" lon="-3.7464">
        <ele>209.5</ele>
        <time>2020-06-07T15:57:51Z</time>
      </trkpt>
      <trkpt lat="48.03622" lon="-3.74647">
        <ele>209.6</ele>
        <time>2020-06-07T15:57:52Z</time>
      </trkpt>
      <trkpt lat="48.03623" lon="-3.74655">
        <ele>209.7</ele>
        <time>2020-06-07T15:57:53Z</time>
      </trkpt>
      <trkpt lat="48.03624" lon="-3.74662">
        <ele>209.9</ele>
        <time>2020-06-07T15:57:54Z</time>
      </trkpt>
      <trkpt lat="48.03625" lon="-3.74668">
        <ele>210</ele>
        <time>2020-06-07T15:57:55Z</time>
      </trkpt>
      <trkpt lat="48.03627" lon="-3.74675">
        <ele>210.2</ele>
        <time>2020-06-07T15:57:56Z</time>
      </trkpt>
      <trkpt lat="48.03628" lon="-3.74682">
        <ele>210.3</ele>
        <time>2020-06-07T15:57:57Z</time>
      </trkpt>
      <trkpt lat="48.0363" lon="-3.74689">
        <ele>210.5</ele>
        <time>2020-06-07T15:57:58Z</time>
      </trkpt>
      <trkpt lat="48.03632" lon="-3.74697">
        <ele>210.6</ele>
        <time>2020-06-07T15:57:59Z</time>
      </trkpt>
      <trkpt lat="48.03633" lon="-3.74705">
        <ele>210.8</ele>
        <time>2020-06-07T15:58:00Z</time>
      </trkpt>
      <trkpt lat="48.03635" lon="-3.74712">
        <ele>211</ele>
        <time>2020-06-07T15:58:01Z</time>
      </trkpt>
      <trkpt lat="48.03637" lon="-3.74719">
        <ele>211.1</ele>
        <time>2020-06-07T15:58:02Z</time>
      </trkpt>
      <trkpt lat="48.03639" lon="-3.74726">
        <ele>211.3</ele>
        <time>2020-06-07T15:58:03Z</time>
      </trkpt>
      <trkpt lat="48.0364" lon="-3.74732">
        <ele>211.5</ele>
        <time>2020-06-07T15:58:04Z</time>
      </trkpt>
      <trkpt lat="48.03642" lon="-3.74738">
        <ele>211.7</ele>
        <time>2020-06-07T15:58:05Z</time>
      </trkpt>
      <trkpt lat="48.03645" lon="-3.74746">
        <ele>212</ele>
        <time>2020-06-07T15:58:06Z</time>
      </trkpt>
      <trkpt lat="48.03648" lon="-3.74751">
        <ele>212.2</ele>
        <time>2020-06-07T15:58:07Z</time>
      </trkpt>
      <trkpt lat="48.0365" lon="-3.74756">
        <ele>212.3</ele>
        <time>2020-06-07T15:58:08Z</time>
      </trkpt>
      <trkpt lat="48.03652" lon="-3.74762">
        <ele>212.5</ele>
        <time>2020-06-07T15:58:09Z</time>
      </trkpt>
      <trkpt lat="48.03655" lon="-3.74767">
        <ele>212.6</ele>
        <time>2020-06-07T15:58:10Z</time>
      </trkpt>
      <trkpt lat="48.03656" lon="-3.74772">
        <ele>212.8</ele>
        <time>2020-06-07T15:58:11Z</time>
      </trkpt>
      <trkpt lat="48.03659" lon="-3.74777">
        <ele>212.9</ele>
        <time>2020-06-07T15:58:12Z</time>
      </trkpt>
      <trkpt lat="48.03661" lon="-3.74782">
        <ele>213.1</ele>
        <time>2020-06-07T15:58:13Z</time>
      </trkpt>
      <trkpt lat="48.03663" lon="-3.74787">
        <ele>213.2</ele>
        <time>2020-06-07T15:58:14Z</time>
      </trkpt>
      <trkpt lat="48.03666" lon="-3.74792">
        <ele>213.3</ele>
        <time>2020-06-07T15:58:15Z</time>
      </trkpt>
      <trkpt lat="48.03669" lon="-3.74799">
        <ele>213.5</ele>
        <time>2020-06-07T15:58:16Z</time>
      </trkpt>
      <trkpt lat="48.03672" lon="-3.74804">
        <ele>213.6</ele>
        <time>2020-06-07T15:58:17Z</time>
      </trkpt>
      <trkpt lat="48.03674" lon="-3.7481">
        <ele>213.8</ele>
        <time>2020-06-07T15:58:18Z</time>
      </trkpt>
      <trkpt lat="48.03678" lon="-3.74816">
        <ele>213.9</ele>
        <time>2020-06-07T15:58:19Z</time>
      </trkpt>
      <trkpt lat="48.03681" lon="-3.74821">
        <ele>214.1</ele>
        <time>2020-06-07T15:58:20Z</time>
      </trkpt>
      <trkpt lat="48.03684" lon="-3.74827">
        <ele>214.3</ele>
        <time>2020-06-07T15:58:21Z</time>
      </trkpt>
      <trkpt lat="48.03686" lon="-3.74832">
        <ele>214.4</ele>
        <time>2020-06-07T15:58:22Z</time>
      </trkpt>
      <trkpt lat="48.03688" lon="-3.74837">
        <ele>214.5</ele>
        <time>2020-06-07T15:58:23Z</time>
      </trkpt>
      <trkpt lat="48.03691" lon="-3.7484">
        <ele>214.5</ele>
        <time>2020-06-07T15:58:24Z</time>
      </trkpt>
      <trkpt lat="48.03694" lon="-3.74845">
        <ele>214.6</ele>
        <time>2020-06-07T15:58:25Z</time>
      </trkpt>
      <trkpt lat="48.03697" lon="-3.74849">
        <ele>214.7</ele>
        <time>2020-06-07T15:58:26Z</time>
      </trkpt>
      <trkpt lat="48.03699" lon="-3.74853">
        <ele>214.8</ele>
        <time>2020-06-07T15:58:27Z</time>
      </trkpt>
      <trkpt lat="48.03704" lon="-3.7486">
        <ele>214.9</ele>
        <time>2020-06-07T15:58:28Z</time>
      </trkpt>
      <trkpt lat="48.03707" lon="-3.74864">
        <ele>214.9</ele>
        <time>2020-06-07T15:58:29Z</time>
      </trkpt>
      <trkpt lat="48.0371" lon="-3.74867">
        <ele>215</ele>
        <time>2020-06-07T15:58:30Z</time>
      </trkpt>
      <trkpt lat="48.03714" lon="-3.74872">
        <ele>215.1</ele>
        <time>2020-06-07T15:58:31Z</time>
      </trkpt>
      <trkpt lat="48.03716" lon="-3.74877">
        <ele>215.1</ele>
        <time>2020-06-07T15:58:32Z</time>
      </trkpt>
      <trkpt lat="48.03719" lon="-3.74882">
        <ele>215.2</ele>
        <time>2020-06-07T15:58:33Z</time>
      </trkpt>
      <trkpt lat="48.03723" lon="-3.74887">
        <ele>215.2</ele>
        <time>2020-06-07T15:58:34Z</time>
      </trkpt>
      <trkpt lat="48.03726" lon="-3.74892">
        <ele>215.3</ele>
        <time>2020-06-07T15:58:35Z</time>
      </trkpt>
      <trkpt lat="48.0373" lon="-3.74897">
        <ele>215.3</ele>
        <time>2020-06-07T15:58:36Z</time>
      </trkpt>
      <trkpt lat="48.03733" lon="-3.74902">
        <ele>215.3</ele>
        <time>2020-06-07T15:58:37Z</time>
      </trkpt>
      <trkpt lat="48.03736" lon="-3.74906">
        <ele>215.4</ele>
        <time>2020-06-07T15:58:38Z</time>
      </trkpt>
      <trkpt lat="48.03739" lon="-3.74911">
        <ele>215.4</ele>
        <time>2020-06-07T15:58:39Z</time>
      </trkpt>
      <trkpt lat="48.03741" lon="-3.74915">
        <ele>215.4</ele>
        <time>2020-06-07T15:58:40Z</time>
      </trkpt>
      <trkpt lat="48.03744" lon="-3.7492">
        <ele>215.4</ele>
        <time>2020-06-07T15:58:41Z</time>
      </trkpt>
      <trkpt lat="48.03747" lon="-3.74926">
        <ele>215.5</ele>
        <time>2020-06-07T15:58:42Z</time>
      </trkpt>
      <trkpt lat="48.0375" lon="-3.74931">
        <ele>215.5</ele>
        <time>2020-06-07T15:58:43Z</time>
      </trkpt>
      <trkpt lat="48.03753" lon="-3.74937">
        <ele>215.5</ele>
        <time>2020-06-07T15:58:44Z</time>
      </trkpt>
      <trkpt lat="48.03757" lon="-3.74943">
        <ele>215.5</ele>
        <time>2020-06-07T15:58:45Z</time>
      </trkpt>
      <trkpt lat="48.0376" lon="-3.74949">
        <ele>215.4</ele>
        <time>2020-06-07T15:58:46Z</time>
      </trkpt>
      <trkpt lat="48.03764" lon="-3.74955">
        <ele>215.4</ele>
        <time>2020-06-07T15:58:47Z</time>
      </trkpt>
      <trkpt lat="48.03767" lon="-3.74961">
        <ele>215.4</ele>
        <time>2020-06-07T15:58:48Z</time>
      </trkpt>
      <trkpt lat="48.0377" lon="-3.74967">
        <ele>215.4</ele>
        <time>2020-06-07T15:58:49Z</time>
      </trkpt>
      <trkpt lat="48.03773" lon="-3.74973">
        <ele>215.4</ele>
        <time>2020-06-07T15:58:50Z</time>
      </trkpt>
      <trkpt lat="48.03778" lon="-3.74979">
        <ele>215.3</ele>
        <time>2020-06-07T15:58:51Z</time>
      </trkpt>
      <trkpt lat="48.03781" lon="-3.74985">
        <ele>215.3</ele>
        <time>2020-06-07T15:58:52Z</time>
      </trkpt>
      <trkpt lat="48.03786" lon="-3.74989">
        <ele>215.3</ele>
        <time>2020-06-07T15:58:53Z</time>
      </trkpt>
      <trkpt lat="48.0379" lon="-3.74996">
        <ele>215.3</ele>
        <time>2020-06-07T15:58:54Z</time>
      </trkpt>
      <trkpt lat="48.03794" lon="-3.75002">
        <ele>215.3</ele>
        <time>2020-06-07T15:58:55Z</time>
      </trkpt>
      <trkpt lat="48.03797" lon="-3.75007">
        <ele>215.2</ele>
        <time>2020-06-07T15:58:56Z</time>
      </trkpt>
      <trkpt lat="48.03801" lon="-3.75012">
        <ele>215.2</ele>
        <time>2020-06-07T15:58:57Z</time>
      </trkpt>
      <trkpt lat="48.03805" lon="-3.75018">
        <ele>215.2</ele>
        <time>2020-06-07T15:58:58Z</time>
      </trkpt>
      <trkpt lat="48.03809" lon="-3.75024">
        <ele>215.2</ele>
        <time>2020-06-07T15:58:59Z</time>
      </trkpt>
      <trkpt lat="48.03813" lon="-3.7503">
        <ele>215.1</ele>
        <time>2020-06-07T15:59:00Z</time>
      </trkpt>
      <trkpt lat="48.03817" lon="-3.75035">
        <ele>215.1</ele>
        <time>2020-06-07T15:59:01Z</time>
      </trkpt>
      <trkpt lat="48.03822" lon="-3.75041">
        <ele>215.1</ele>
        <time>2020-06-07T15:59:02Z</time>
      </trkpt>
      <trkpt lat="48.03826" lon="-3.75046">
        <ele>215.1</ele>
        <time>2020-06-07T15:59:03Z</time>
      </trkpt>
      <trkpt lat="48.03831" lon="-3.75051">
        <ele>215.1</ele>
        <time>2020-06-07T15:59:04Z</time>
      </trkpt>
      <trkpt lat="48.03835" lon="-3.75056">
        <ele>215.2</ele>
        <time>2020-06-07T15:59:05Z</time>
      </trkpt>
      <trkpt lat="48.0384" lon="-3.75061">
        <ele>215.2</ele>
        <time>2020-06-07T15:59:06Z</time>
      </trkpt>
      <trkpt lat="48.03845" lon="-3.75066">
        <ele>215.2</ele>
        <time>2020-06-07T15:59:07Z</time>
      </trkpt>
      <trkpt lat="48.0385" lon="-3.75071">
        <ele>215.2</ele>
        <time>2020-06-07T15:59:08Z</time>
      </trkpt>
      <trkpt lat="48.03855" lon="-3.75074">
        <ele>215.3</ele>
        <time>2020-06-07T15:59:09Z</time>
      </trkpt>
      <trkpt lat="48.0386" lon="-3.75079">
        <ele>215.3</ele>
        <time>2020-06-07T15:59:10Z</time>
      </trkpt>
      <trkpt lat="48.03865" lon="-3.75083">
        <ele>215.3</ele>
        <time>2020-06-07T15:59:11Z</time>
      </trkpt>
      <trkpt lat="48.0387" lon="-3.75089">
        <ele>215.4</ele>
        <time>2020-06-07T15:59:12Z</time>
      </trkpt>
      <trkpt lat="48.03875" lon="-3.75094">
        <ele>215.4</ele>
        <time>2020-06-07T15:59:13Z</time>
      </trkpt>
      <trkpt lat="48.03879" lon="-3.75098">
        <ele>215.5</ele>
        <time>2020-06-07T15:59:14Z</time>
      </trkpt>
      <trkpt lat="48.03883" lon="-3.75102">
        <ele>215.5</ele>
        <time>2020-06-07T15:59:15Z</time>
      </trkpt>
      <trkpt lat="48.03888" lon="-3.75107">
        <ele>215.8</ele>
        <time>2020-06-07T15:59:16Z</time>
      </trkpt>
      <trkpt lat="48.03893" lon="-3.75111">
        <ele>216</ele>
        <time>2020-06-07T15:59:17Z</time>
      </trkpt>
      <trkpt lat="48.03898" lon="-3.75116">
        <ele>216.2</ele>
        <time>2020-06-07T15:59:18Z</time>
      </trkpt>
      <trkpt lat="48.03903" lon="-3.7512">
        <ele>216.3</ele>
        <time>2020-06-07T15:59:19Z</time>
      </trkpt>
      <trkpt lat="48.03907" lon="-3.75124">
        <ele>216.4</ele>
        <time>2020-06-07T15:59:20Z</time>
      </trkpt>
      <trkpt lat="48.03912" lon="-3.75129">
        <ele>216.5</ele>
        <time>2020-06-07T15:59:21Z</time>
      </trkpt>
      <trkpt lat="48.03916" lon="-3.75134">
        <ele>216.6</ele>
        <time>2020-06-07T15:59:22Z</time>
      </trkpt>
      <trkpt lat="48.0392" lon="-3.75138">
        <ele>216.7</ele>
        <time>2020-06-07T15:59:23Z</time>
      </trkpt>
      <trkpt lat="48.03925" lon="-3.75143">
        <ele>216.8</ele>
        <time>2020-06-07T15:59:24Z</time>
      </trkpt>
      <trkpt lat="48.03929" lon="-3.75147">
        <ele>216.9</ele>
        <time>2020-06-07T15:59:25Z</time>
      </trkpt>
      <trkpt lat="48.03933" lon="-3.75151">
        <ele>217</ele>
        <time>2020-06-07T15:59:26Z</time>
      </trkpt>
      <trkpt lat="48.03938" lon="-3.75154">
        <ele>217.2</ele>
        <time>2020-06-07T15:59:27Z</time>
      </trkpt>
      <trkpt lat="48.03943" lon="-3.75158">
        <ele>217.3</ele>
        <time>2020-06-07T15:59:28Z</time>
      </trkpt>
      <trkpt lat="48.03947" lon="-3.75162">
        <ele>217.4</ele>
        <time>2020-06-07T15:59:29Z</time>
      </trkpt>
      <trkpt lat="48.03952" lon="-3.75167">
        <ele>217.6</ele>
        <time>2020-06-07T15:59:30Z</time>
      </trkpt>
      <trkpt lat="48.03955" lon="-3.75171">
        <ele>217.7</ele>
        <time>2020-06-07T15:59:31Z</time>
      </trkpt>
      <trkpt lat="48.03959" lon="-3.75175">
        <ele>217.8</ele>
        <time>2020-06-07T15:59:32Z</time>
      </trkpt>
      <trkpt lat="48.03964" lon="-3.75178">
        <ele>217.9</ele>
        <time>2020-06-07T15:59:33Z</time>
      </trkpt>
      <trkpt lat="48.03968" lon="-3.75182">
        <ele>218</ele>
        <time>2020-06-07T15:59:34Z</time>
      </trkpt>
      <trkpt lat="48.03972" lon="-3.75185">
        <ele>218.1</ele>
        <time>2020-06-07T15:59:35Z</time>
      </trkpt>
      <trkpt lat="48.03976" lon="-3.75188">
        <ele>218.3</ele>
        <time>2020-06-07T15:59:36Z</time>
      </trkpt>
      <trkpt lat="48.0398" lon="-3.75192">
        <ele>218.4</ele>
        <time>2020-06-07T15:59:37Z</time>
      </trkpt>
      <trkpt lat="48.03985" lon="-3.75194">
        <ele>218.5</ele>
        <time>2020-06-07T15:59:38Z</time>
      </trkpt>
      <trkpt lat="48.03989" lon="-3.75198">
        <ele>218.7</ele>
        <time>2020-06-07T15:59:39Z</time>
      </trkpt>
      <trkpt lat="48.03993" lon="-3.75201">
        <ele>218.8</ele>
        <time>2020-06-07T15:59:40Z</time>
      </trkpt>
      <trkpt lat="48.03996" lon="-3.75203">
        <ele>218.9</ele>
        <time>2020-06-07T15:59:41Z</time>
      </trkpt>
      <trkpt lat="48.03999" lon="-3.75206">
        <ele>219</ele>
        <time>2020-06-07T15:59:42Z</time>
      </trkpt>
      <trkpt lat="48.04003" lon="-3.75211">
        <ele>219.1</ele>
        <time>2020-06-07T15:59:43Z</time>
      </trkpt>
      <trkpt lat="48.04008" lon="-3.75214">
        <ele>219.3</ele>
        <time>2020-06-07T15:59:44Z</time>
      </trkpt>
      <trkpt lat="48.04012" lon="-3.75217">
        <ele>219.4</ele>
        <time>2020-06-07T15:59:45Z</time>
      </trkpt>
      <trkpt lat="48.04015" lon="-3.7522">
        <ele>219.5</ele>
        <time>2020-06-07T15:59:46Z</time>
      </trkpt>
      <trkpt lat="48.04019" lon="-3.75223">
        <ele>219.6</ele>
        <time>2020-06-07T15:59:47Z</time>
      </trkpt>
      <trkpt lat="48.04022" lon="-3.75227">
        <ele>219.7</ele>
        <time>2020-06-07T15:59:48Z</time>
      </trkpt>
      <trkpt lat="48.04026" lon="-3.75231">
        <ele>219.8</ele>
        <time>2020-06-07T15:59:49Z</time>
      </trkpt>
      <trkpt lat="48.0403" lon="-3.75235">
        <ele>219.9</ele>
        <time>2020-06-07T15:59:50Z</time>
      </trkpt>
      <trkpt lat="48.04034" lon="-3.75238">
        <ele>220</ele>
        <time>2020-06-07T15:59:51Z</time>
      </trkpt>
      <trkpt lat="48.04038" lon="-3.75242">
        <ele>220.2</ele>
        <time>2020-06-07T15:59:52Z</time>
      </trkpt>
      <trkpt lat="48.04042" lon="-3.75246">
        <ele>220.3</ele>
        <time>2020-06-07T15:59:53Z</time>
      </trkpt>
      <trkpt lat="48.04046" lon="-3.7525">
        <ele>220.4</ele>
        <time>2020-06-07T15:59:54Z</time>
      </trkpt>
      <trkpt lat="48.04049" lon="-3.75254">
        <ele>220.5</ele>
        <time>2020-06-07T15:59:55Z</time>
      </trkpt>
      <trkpt lat="48.04052" lon="-3.75257">
        <ele>220.7</ele>
        <time>2020-06-07T15:59:56Z</time>
      </trkpt>
      <trkpt lat="48.04055" lon="-3.75261">
        <ele>220.8</ele>
        <time>2020-06-07T15:59:57Z</time>
      </trkpt>
      <trkpt lat="48.04059" lon="-3.75264">
        <ele>220.9</ele>
        <time>2020-06-07T15:59:58Z</time>
      </trkpt>
      <trkpt lat="48.04061" lon="-3.75268">
        <ele>221</ele>
        <time>2020-06-07T15:59:59Z</time>
      </trkpt>
      <trkpt lat="48.04065" lon="-3.75272">
        <ele>221.1</ele>
        <time>2020-06-07T16:00:00Z</time>
      </trkpt>
      <trkpt lat="48.04068" lon="-3.75275">
        <ele>221.1</ele>
        <time>2020-06-07T16:00:01Z</time>
      </trkpt>
      <trkpt lat="48.04071" lon="-3.75278">
        <ele>221.2</ele>
        <time>2020-06-07T16:00:02Z</time>
      </trkpt>
      <trkpt lat="48.04075" lon="-3.75282">
        <ele>221.3</ele>
        <time>2020-06-07T16:00:03Z</time>
      </trkpt>
      <trkpt lat="48.04079" lon="-3.75287">
        <ele>221.3</ele>
        <time>2020-06-07T16:00:04Z</time>
      </trkpt>
      <trkpt lat="48.04082" lon="-3.75291">
        <ele>221.4</ele>
        <time>2020-06-07T16:00:05Z</time>
      </trkpt>
      <trkpt lat="48.04086" lon="-3.75295">
        <ele>221.4</ele>
        <time>2020-06-07T16:00:06Z</time>
      </trkpt>
      <trkpt lat="48.04089" lon="-3.75299">
        <ele>221.5</ele>
        <time>2020-06-07T16:00:07Z</time>
      </trkpt>
      <trkpt lat="48.04092" lon="-3.75304">
        <ele>221.5</ele>
        <time>2020-06-07T16:00:08Z</time>
      </trkpt>
      <trkpt lat="48.04095" lon="-3.75309">
        <ele>221.5</ele>
        <time>2020-06-07T16:00:09Z</time>
      </trkpt>
      <trkpt lat="48.04098" lon="-3.75313">
        <ele>221.5</ele>
        <time>2020-06-07T16:00:10Z</time>
      </trkpt>
      <trkpt lat="48.04102" lon="-3.75317">
        <ele>221.5</ele>
        <time>2020-06-07T16:00:11Z</time>
      </trkpt>
      <trkpt lat="48.04106" lon="-3.75322">
        <ele>221.5</ele>
        <time>2020-06-07T16:00:12Z</time>
      </trkpt>
      <trkpt lat="48.0411" lon="-3.75327">
        <ele>221.5</ele>
        <time>2020-06-07T16:00:13Z</time>
      </trkpt>
      <trkpt lat="48.04113" lon="-3.75331">
        <ele>221.5</ele>
        <time>2020-06-07T16:00:14Z</time>
      </trkpt>
      <trkpt lat="48.04116" lon="-3.75336">
        <ele>221.6</ele>
        <time>2020-06-07T16:00:15Z</time>
      </trkpt>
      <trkpt lat="48.0412" lon="-3.75342">
        <ele>221.6</ele>
        <time>2020-06-07T16:00:16Z</time>
      </trkpt>
      <trkpt lat="48.04124" lon="-3.75346">
        <ele>221.6</ele>
        <time>2020-06-07T16:00:17Z</time>
      </trkpt>
      <trkpt lat="48.04128" lon="-3.75352">
        <ele>221.6</ele>
        <time>2020-06-07T16:00:18Z</time>
      </trkpt>
      <trkpt lat="48.04131" lon="-3.75357">
        <ele>221.6</ele>
        <time>2020-06-07T16:00:19Z</time>
      </trkpt>
      <trkpt lat="48.04134" lon="-3.75364">
        <ele>221.6</ele>
        <time>2020-06-07T16:00:20Z</time>
      </trkpt>
      <trkpt lat="48.04138" lon="-3.75371">
        <ele>221.6</ele>
        <time>2020-06-07T16:00:21Z</time>
      </trkpt>
      <trkpt lat="48.04141" lon="-3.75377">
        <ele>221.6</ele>
        <time>2020-06-07T16:00:22Z</time>
      </trkpt>
      <trkpt lat="48.04145" lon="-3.75383">
        <ele>221.6</ele>
        <time>2020-06-07T16:00:23Z</time>
      </trkpt>
      <trkpt lat="48.04148" lon="-3.75389">
        <ele>221.6</ele>
        <time>2020-06-07T16:00:24Z</time>
      </trkpt>
      <trkpt lat="48.04154" lon="-3.75393">
        <ele>221.7</ele>
        <time>2020-06-07T16:00:25Z</time>
      </trkpt>
      <trkpt lat="48.04157" lon="-3.75397">
        <ele>221.7</ele>
        <time>2020-06-07T16:00:26Z</time>
      </trkpt>
      <trkpt lat="48.0416" lon="-3.75402">
        <ele>221.7</ele>
        <time>2020-06-07T16:00:27Z</time>
      </trkpt>
      <trkpt lat="48.04164" lon="-3.75408">
        <ele>221.7</ele>
        <time>2020-06-07T16:00:28Z</time>
      </trkpt>
      <trkpt lat="48.04167" lon="-3.75414">
        <ele>221.7</ele>
        <time>2020-06-07T16:00:29Z</time>
      </trkpt>
      <trkpt lat="48.04171" lon="-3.75421">
        <ele>221.7</ele>
        <time>2020-06-07T16:00:30Z</time>
      </trkpt>
      <trkpt lat="48.04175" lon="-3.75427">
        <ele>221.7</ele>
        <time>2020-06-07T16:00:31Z</time>
      </trkpt>
      <trkpt lat="48.04179" lon="-3.75432">
        <ele>221.7</ele>
        <time>2020-06-07T16:00:32Z</time>
      </trkpt>
      <trkpt lat="48.04182" lon="-3.75437">
        <ele>221.6</ele>
        <time>2020-06-07T16:00:33Z</time>
      </trkpt>
      <trkpt lat="48.04186" lon="-3.75443">
        <ele>221.6</ele>
        <time>2020-06-07T16:00:34Z</time>
      </trkpt>
      <trkpt lat="48.04189" lon="-3.7545">
        <ele>221.6</ele>
        <time>2020-06-07T16:00:35Z</time>
      </trkpt>
      <trkpt lat="48.04192" lon="-3.75455">
        <ele>221.6</ele>
        <time>2020-06-07T16:00:36Z</time>
      </trkpt>
      <trkpt lat="48.04197" lon="-3.7546">
        <ele>221.6</ele>
        <time>2020-06-07T16:00:37Z</time>
      </trkpt>
      <trkpt lat="48.042" lon="-3.75466">
        <ele>221.6</ele>
        <time>2020-06-07T16:00:38Z</time>
      </trkpt>
      <trkpt lat="48.04204" lon="-3.75473">
        <ele>221.6</ele>
        <time>2020-06-07T16:00:39Z</time>
      </trkpt>
      <trkpt lat="48.04208" lon="-3.7548">
        <ele>221.6</ele>
        <time>2020-06-07T16:00:40Z</time>
      </trkpt>
      <trkpt lat="48.04212" lon="-3.75484">
        <ele>221.6</ele>
        <time>2020-06-07T16:00:41Z</time>
      </trkpt>
      <trkpt lat="48.04217" lon="-3.75491">
        <ele>221.6</ele>
        <time>2020-06-07T16:00:42Z</time>
      </trkpt>
      <trkpt lat="48.04222" lon="-3.75495">
        <ele>221.5</ele>
        <time>2020-06-07T16:00:43Z</time>
      </trkpt>
      <trkpt lat="48.04226" lon="-3.75501">
        <ele>221.5</ele>
        <time>2020-06-07T16:00:44Z</time>
      </trkpt>
      <trkpt lat="48.0423" lon="-3.75507">
        <ele>221.4</ele>
        <time>2020-06-07T16:00:45Z</time>
      </trkpt>
      <trkpt lat="48.04234" lon="-3.75513">
        <ele>221.4</ele>
        <time>2020-06-07T16:00:46Z</time>
      </trkpt>
      <trkpt lat="48.04238" lon="-3.75519">
        <ele>221.4</ele>
        <time>2020-06-07T16:00:47Z</time>
      </trkpt>
      <trkpt lat="48.04242" lon="-3.75526">
        <ele>221.3</ele>
        <time>2020-06-07T16:00:48Z</time>
      </trkpt>
      <trkpt lat="48.04245" lon="-3.75532">
        <ele>221.3</ele>
        <time>2020-06-07T16:00:49Z</time>
      </trkpt>
      <trkpt lat="48.04249" lon="-3.75537">
        <ele>221.3</ele>
        <time>2020-06-07T16:00:50Z</time>
      </trkpt>
      <trkpt lat="48.04253" lon="-3.75543">
        <ele>221.3</ele>
        <time>2020-06-07T16:00:51Z</time>
      </trkpt>
      <trkpt lat="48.04255" lon="-3.7555">
        <ele>221.3</ele>
        <time>2020-06-07T16:00:52Z</time>
      </trkpt>
      <trkpt lat="48.04259" lon="-3.75555">
        <ele>221.3</ele>
        <time>2020-06-07T16:00:53Z</time>
      </trkpt>
      <trkpt lat="48.04264" lon="-3.75562">
        <ele>221.3</ele>
        <time>2020-06-07T16:00:54Z</time>
      </trkpt>
      <trkpt lat="48.04267" lon="-3.75568">
        <ele>221.3</ele>
        <time>2020-06-07T16:00:55Z</time>
      </trkpt>
      <trkpt lat="48.04271" lon="-3.75574">
        <ele>221.2</ele>
        <time>2020-06-07T16:00:56Z</time>
      </trkpt>
      <trkpt lat="48.04275" lon="-3.7558">
        <ele>221.2</ele>
        <time>2020-06-07T16:00:57Z</time>
      </trkpt>
      <trkpt lat="48.04279" lon="-3.75585">
        <ele>221.2</ele>
        <time>2020-06-07T16:00:58Z</time>
      </trkpt>
      <trkpt lat="48.04282" lon="-3.75591">
        <ele>221.2</ele>
        <time>2020-06-07T16:00:59Z</time>
      </trkpt>
      <trkpt lat="48.04286" lon="-3.75596">
        <ele>221.1</ele>
        <time>2020-06-07T16:01:00Z</time>
      </trkpt>
      <trkpt lat="48.04289" lon="-3.75602">
        <ele>221.1</ele>
        <time>2020-06-07T16:01:01Z</time>
      </trkpt>
      <trkpt lat="48.04293" lon="-3.75609">
        <ele>221.1</ele>
        <time>2020-06-07T16:01:02Z</time>
      </trkpt>
      <trkpt lat="48.04296" lon="-3.75615">
        <ele>221</ele>
        <time>2020-06-07T16:01:03Z</time>
      </trkpt>
      <trkpt lat="48.043" lon="-3.75622">
        <ele>221</ele>
        <time>2020-06-07T16:01:04Z</time>
      </trkpt>
      <trkpt lat="48.04304" lon="-3.75627">
        <ele>221</ele>
        <time>2020-06-07T16:01:05Z</time>
      </trkpt>
      <trkpt lat="48.04308" lon="-3.75632">
        <ele>221</ele>
        <time>2020-06-07T16:01:06Z</time>
      </trkpt>
      <trkpt lat="48.04312" lon="-3.7564">
        <ele>220.9</ele>
        <time>2020-06-07T16:01:07Z</time>
      </trkpt>
      <trkpt lat="48.04316" lon="-3.75647">
        <ele>220.9</ele>
        <time>2020-06-07T16:01:08Z</time>
      </trkpt>
      <trkpt lat="48.0432" lon="-3.75653">
        <ele>220.8</ele>
        <time>2020-06-07T16:01:09Z</time>
      </trkpt>
      <trkpt lat="48.04324" lon="-3.7566">
        <ele>220.8</ele>
        <time>2020-06-07T16:01:10Z</time>
      </trkpt>
      <trkpt lat="48.04328" lon="-3.75667">
        <ele>220.7</ele>
        <time>2020-06-07T16:01:11Z</time>
      </trkpt>
      <trkpt lat="48.04331" lon="-3.75674">
        <ele>220.7</ele>
        <time>2020-06-07T16:01:12Z</time>
      </trkpt>
      <trkpt lat="48.04334" lon="-3.75682">
        <ele>220.7</ele>
        <time>2020-06-07T16:01:13Z</time>
      </trkpt>
      <trkpt lat="48.04337" lon="-3.75688">
        <ele>220.7</ele>
        <time>2020-06-07T16:01:14Z</time>
      </trkpt>
      <trkpt lat="48.0434" lon="-3.75696">
        <ele>220.7</ele>
        <time>2020-06-07T16:01:15Z</time>
      </trkpt>
      <trkpt lat="48.04343" lon="-3.75703">
        <ele>220.7</ele>
        <time>2020-06-07T16:01:16Z</time>
      </trkpt>
      <trkpt lat="48.04346" lon="-3.75709">
        <ele>220.7</ele>
        <time>2020-06-07T16:01:17Z</time>
      </trkpt>
      <trkpt lat="48.0435" lon="-3.75715">
        <ele>220.7</ele>
        <time>2020-06-07T16:01:18Z</time>
      </trkpt>
      <trkpt lat="48.04353" lon="-3.75721">
        <ele>220.7</ele>
        <time>2020-06-07T16:01:19Z</time>
      </trkpt>
      <trkpt lat="48.04357" lon="-3.75728">
        <ele>220.7</ele>
        <time>2020-06-07T16:01:20Z</time>
      </trkpt>
      <trkpt lat="48.04361" lon="-3.75734">
        <ele>220.7</ele>
        <time>2020-06-07T16:01:21Z</time>
      </trkpt>
      <trkpt lat="48.04364" lon="-3.75741">
        <ele>220.7</ele>
        <time>2020-06-07T16:01:22Z</time>
      </trkpt>
      <trkpt lat="48.04367" lon="-3.75748">
        <ele>220.7</ele>
        <time>2020-06-07T16:01:23Z</time>
      </trkpt>
      <trkpt lat="48.04371" lon="-3.75753">
        <ele>220.7</ele>
        <time>2020-06-07T16:01:24Z</time>
      </trkpt>
      <trkpt lat="48.04374" lon="-3.75759">
        <ele>220.8</ele>
        <time>2020-06-07T16:01:25Z</time>
      </trkpt>
      <trkpt lat="48.04378" lon="-3.75765">
        <ele>220.8</ele>
        <time>2020-06-07T16:01:26Z</time>
      </trkpt>
      <trkpt lat="48.04381" lon="-3.75771">
        <ele>220.8</ele>
        <time>2020-06-07T16:01:27Z</time>
      </trkpt>
      <trkpt lat="48.04385" lon="-3.75777">
        <ele>220.8</ele>
        <time>2020-06-07T16:01:28Z</time>
      </trkpt>
      <trkpt lat="48.04389" lon="-3.75783">
        <ele>220.9</ele>
        <time>2020-06-07T16:01:29Z</time>
      </trkpt>
      <trkpt lat="48.04392" lon="-3.7579">
        <ele>220.9</ele>
        <time>2020-06-07T16:01:30Z</time>
      </trkpt>
      <trkpt lat="48.04395" lon="-3.75796">
        <ele>220.9</ele>
        <time>2020-06-07T16:01:31Z</time>
      </trkpt>
      <trkpt lat="48.04398" lon="-3.75804">
        <ele>220.9</ele>
        <time>2020-06-07T16:01:32Z</time>
      </trkpt>
      <trkpt lat="48.044" lon="-3.75811">
        <ele>221</ele>
        <time>2020-06-07T16:01:33Z</time>
      </trkpt>
      <trkpt lat="48.04402" lon="-3.75818">
        <ele>221</ele>
        <time>2020-06-07T16:01:34Z</time>
      </trkpt>
      <trkpt lat="48.04405" lon="-3.75824">
        <ele>221</ele>
        <time>2020-06-07T16:01:35Z</time>
      </trkpt>
      <trkpt lat="48.04409" lon="-3.7583">
        <ele>221.1</ele>
        <time>2020-06-07T16:01:36Z</time>
      </trkpt>
      <trkpt lat="48.04412" lon="-3.75837">
        <ele>221.2</ele>
        <time>2020-06-07T16:01:37Z</time>
      </trkpt>
      <trkpt lat="48.04416" lon="-3.75844">
        <ele>221.2</ele>
        <time>2020-06-07T16:01:38Z</time>
      </trkpt>
      <trkpt lat="48.04419" lon="-3.75851">
        <ele>221.3</ele>
        <time>2020-06-07T16:01:39Z</time>
      </trkpt>
      <trkpt lat="48.04422" lon="-3.75857">
        <ele>221.4</ele>
        <time>2020-06-07T16:01:40Z</time>
      </trkpt>
      <trkpt lat="48.04425" lon="-3.75864">
        <ele>221.5</ele>
        <time>2020-06-07T16:01:41Z</time>
      </trkpt>
      <trkpt lat="48.04429" lon="-3.7587">
        <ele>221.6</ele>
        <time>2020-06-07T16:01:42Z</time>
      </trkpt>
      <trkpt lat="48.04433" lon="-3.75877">
        <ele>221.7</ele>
        <time>2020-06-07T16:01:43Z</time>
      </trkpt>
      <trkpt lat="48.04437" lon="-3.75883">
        <ele>221.8</ele>
        <time>2020-06-07T16:01:44Z</time>
      </trkpt>
      <trkpt lat="48.0444" lon="-3.75888">
        <ele>222</ele>
        <time>2020-06-07T16:01:45Z</time>
      </trkpt>
      <trkpt lat="48.04443" lon="-3.75894">
        <ele>222</ele>
        <time>2020-06-07T16:01:46Z</time>
      </trkpt>
      <trkpt lat="48.04445" lon="-3.759">
        <ele>222</ele>
        <time>2020-06-07T16:01:47Z</time>
      </trkpt>
      <trkpt lat="48.04449" lon="-3.75906">
        <ele>222</ele>
        <time>2020-06-07T16:01:48Z</time>
      </trkpt>
      <trkpt lat="48.04453" lon="-3.75912">
        <ele>222</ele>
        <time>2020-06-07T16:01:49Z</time>
      </trkpt>
      <trkpt lat="48.04457" lon="-3.75918">
        <ele>222.1</ele>
        <time>2020-06-07T16:01:50Z</time>
      </trkpt>
      <trkpt lat="48.0446" lon="-3.75925">
        <ele>222.1</ele>
        <time>2020-06-07T16:01:51Z</time>
      </trkpt>
      <trkpt lat="48.04463" lon="-3.75931">
        <ele>222.2</ele>
        <time>2020-06-07T16:01:52Z</time>
      </trkpt>
      <trkpt lat="48.04465" lon="-3.75936">
        <ele>222.2</ele>
        <time>2020-06-07T16:01:53Z</time>
      </trkpt>
      <trkpt lat="48.04468" lon="-3.75941">
        <ele>222.3</ele>
        <time>2020-06-07T16:01:54Z</time>
      </trkpt>
      <trkpt lat="48.04471" lon="-3.75946">
        <ele>222.4</ele>
        <time>2020-06-07T16:01:55Z</time>
      </trkpt>
      <trkpt lat="48.04474" lon="-3.75951">
        <ele>222.5</ele>
        <time>2020-06-07T16:01:56Z</time>
      </trkpt>
      <trkpt lat="48.04477" lon="-3.75956">
        <ele>222.6</ele>
        <time>2020-06-07T16:01:57Z</time>
      </trkpt>
      <trkpt lat="48.0448" lon="-3.75961">
        <ele>222.7</ele>
        <time>2020-06-07T16:01:58Z</time>
      </trkpt>
      <trkpt lat="48.04483" lon="-3.75965">
        <ele>222.8</ele>
        <time>2020-06-07T16:01:59Z</time>
      </trkpt>
      <trkpt lat="48.04485" lon="-3.75969">
        <ele>222.9</ele>
        <time>2020-06-07T16:02:00Z</time>
      </trkpt>
      <trkpt lat="48.04486" lon="-3.75973">
        <ele>223</ele>
        <time>2020-06-07T16:02:01Z</time>
      </trkpt>
      <trkpt lat="48.04489" lon="-3.75977">
        <ele>223.1</ele>
        <time>2020-06-07T16:02:02Z</time>
      </trkpt>
      <trkpt lat="48.0449" lon="-3.75982">
        <ele>223.2</ele>
        <time>2020-06-07T16:02:03Z</time>
      </trkpt>
      <trkpt lat="48.04491" lon="-3.75983">
        <ele>223.2</ele>
        <time>2020-06-07T16:02:04Z</time>
      </trkpt>
      <trkpt lat="48.04489" lon="-3.75984">
        <ele>223.3</ele>
        <time>2020-06-07T16:02:05Z</time>
      </trkpt>
      <trkpt lat="48.04488" lon="-3.75984">
        <ele>223.3</ele>
        <time>2020-06-07T16:02:06Z</time>
      </trkpt>
      <trkpt lat="48.04487" lon="-3.75984">
        <ele>223.3</ele>
        <time>2020-06-07T16:02:07Z</time>
      </trkpt>
      <trkpt lat="48.04486" lon="-3.75984">
        <ele>223.4</ele>
        <time>2020-06-07T16:02:08Z</time>
      </trkpt>
      <trkpt lat="48.04485" lon="-3.75983">
        <ele>223.4</ele>
        <time>2020-06-07T16:02:09Z</time>
      </trkpt>
      <trkpt lat="48.04484" lon="-3.75982">
        <ele>223.4</ele>
        <time>2020-06-07T16:02:10Z</time>
      </trkpt>
      <trkpt lat="48.04484" lon="-3.75982">
        <ele>223.5</ele>
        <time>2020-06-07T16:02:11Z</time>
      </trkpt>
      <trkpt lat="48.04483" lon="-3.75981">
        <ele>223.5</ele>
        <time>2020-06-07T16:02:12Z</time>
      </trkpt>
      <trkpt lat="48.04483" lon="-3.7598">
        <ele>223.5</ele>
        <time>2020-06-07T16:02:13Z</time>
      </trkpt>
      <trkpt lat="48.04482" lon="-3.7598">
        <ele>223.6</ele>
        <time>2020-06-07T16:02:14Z</time>
      </trkpt>
      <trkpt lat="48.04482" lon="-3.75981">
        <ele>223.6</ele>
        <time>2020-06-07T16:02:15Z</time>
      </trkpt>
      <trkpt lat="48.04482" lon="-3.75982">
        <ele>223.6</ele>
        <time>2020-06-07T16:02:16Z</time>
      </trkpt>
      <trkpt lat="48.04482" lon="-3.75983">
        <ele>223.6</ele>
        <time>2020-06-07T16:02:17Z</time>
      </trkpt>
      <trkpt lat="48.04482" lon="-3.75983">
        <ele>223.7</ele>
        <time>2020-06-07T16:02:18Z</time>
      </trkpt>
      <trkpt lat="48.04482" lon="-3.75984">
        <ele>223.7</ele>
        <time>2020-06-07T16:02:19Z</time>
      </trkpt>
      <trkpt lat="48.04482" lon="-3.75985">
        <ele>223.7</ele>
        <time>2020-06-07T16:02:20Z</time>
      </trkpt>
      <trkpt lat="48.04482" lon="-3.75986">
        <ele>223.7</ele>
        <time>2020-06-07T16:02:21Z</time>
      </trkpt>
      <trkpt lat="48.04482" lon="-3.75987">
        <ele>223.8</ele>
        <time>2020-06-07T16:02:22Z</time>
      </trkpt>
      <trkpt lat="48.04482" lon="-3.75988">
        <ele>223.8</ele>
        <time>2020-06-07T16:02:23Z</time>
      </trkpt>
      <trkpt lat="48.04482" lon="-3.75988">
        <ele>223.8</ele>
        <time>2020-06-07T16:02:24Z</time>
      </trkpt>
      <trkpt lat="48.04482" lon="-3.75989">
        <ele>223.8</ele>
        <time>2020-06-07T16:02:25Z</time>
      </trkpt>
      <trkpt lat="48.04482" lon="-3.7599">
        <ele>223.8</ele>
        <time>2020-06-07T16:06:11Z</time>
      </trkpt>
      <trkpt lat="48.04482" lon="-3.75991">
        <ele>223.9</ele>
        <time>2020-06-07T16:06:12Z</time>
      </trkpt>
      <trkpt lat="48.04482" lon="-3.75993">
        <ele>223.9</ele>
        <time>2020-06-07T16:06:13Z</time>
      </trkpt>
      <trkpt lat="48.04482" lon="-3.75995">
        <ele>224</ele>
        <time>2020-06-07T16:06:14Z</time>
      </trkpt>
      <trkpt lat="48.04481" lon="-3.75998">
        <ele>224.1</ele>
        <time>2020-06-07T16:06:15Z</time>
      </trkpt>
      <trkpt lat="48.04481" lon="-3.76">
        <ele>224.2</ele>
        <time>2020-06-07T16:06:16Z</time>
      </trkpt>
      <trkpt lat="48.0448" lon="-3.76005">
        <ele>224.3</ele>
        <time>2020-06-07T16:06:17Z</time>
      </trkpt>
      <trkpt lat="48.0448" lon="-3.76006">
        <ele>224.4</ele>
        <time>2020-06-07T16:06:18Z</time>
      </trkpt>
      <trkpt lat="48.04479" lon="-3.76007">
        <ele>224.5</ele>
        <time>2020-06-07T16:06:19Z</time>
      </trkpt>
      <trkpt lat="48.04479" lon="-3.76009">
        <ele>224.5</ele>
        <time>2020-06-07T16:06:20Z</time>
      </trkpt>
      <trkpt lat="48.04479" lon="-3.7601">
        <ele>224.5</ele>
        <time>2020-06-07T16:06:21Z</time>
      </trkpt>
      <trkpt lat="48.04478" lon="-3.76011">
        <ele>224.6</ele>
        <time>2020-06-07T16:06:22Z</time>
      </trkpt>
      <trkpt lat="48.04477" lon="-3.76012">
        <ele>224.6</ele>
        <time>2020-06-07T16:06:23Z</time>
      </trkpt>
      <trkpt lat="48.04477" lon="-3.76012">
        <ele>224.6</ele>
        <time>2020-06-07T16:06:24Z</time>
      </trkpt>
      <trkpt lat="48.04477" lon="-3.76012">
        <ele>224.6</ele>
        <time>2020-06-07T16:06:25Z</time>
      </trkpt>
      <trkpt lat="48.04477" lon="-3.76013">
        <ele>224.6</ele>
        <time>2020-06-07T16:06:26Z</time>
      </trkpt>
      <trkpt lat="48.04478" lon="-3.76012">
        <ele>224.6</ele>
        <time>2020-06-07T16:06:27Z</time>
      </trkpt>
      <trkpt lat="48.04478" lon="-3.76014">
        <ele>224.7</ele>
        <time>2020-06-07T16:06:28Z</time>
      </trkpt>
      <trkpt lat="48.04478" lon="-3.76015">
        <ele>224.7</ele>
        <time>2020-06-07T16:06:29Z</time>
      </trkpt>
      <trkpt lat="48.04478" lon="-3.76016">
        <ele>224.7</ele>
        <time>2020-06-07T16:06:30Z</time>
      </trkpt>
      <trkpt lat="48.04478" lon="-3.76017">
        <ele>224.8</ele>
        <time>2020-06-07T16:06:31Z</time>
      </trkpt>
      <trkpt lat="48.04478" lon="-3.76019">
        <ele>224.8</ele>
        <time>2020-06-07T16:06:32Z</time>
      </trkpt>
      <trkpt lat="48.04478" lon="-3.7602">
        <ele>224.8</ele>
        <time>2020-06-07T16:06:33Z</time>
      </trkpt>
      <trkpt lat="48.04478" lon="-3.76021">
        <ele>224.9</ele>
        <time>2020-06-07T16:06:56Z</time>
      </trkpt>
      <trkpt lat="48.04478" lon="-3.76023">
        <ele>224.9</ele>
        <time>2020-06-07T16:06:57Z</time>
      </trkpt>
      <trkpt lat="48.04478" lon="-3.76024">
        <ele>224.9</ele>
        <time>2020-06-07T16:06:58Z</time>
      </trkpt>
      <trkpt lat="48.04478" lon="-3.76025">
        <ele>224.9</ele>
        <time>2020-06-07T16:06:59Z</time>
      </trkpt>
      <trkpt lat="48.04478" lon="-3.76026">
        <ele>225</ele>
        <time>2020-06-07T16:07:00Z</time>
      </trkpt>
      <trkpt lat="48.04479" lon="-3.76027">
        <ele>225</ele>
        <time>2020-06-07T16:07:01Z</time>
      </trkpt>
      <trkpt lat="48.04479" lon="-3.76027">
        <ele>225</ele>
        <time>2020-06-07T16:07:02Z</time>
      </trkpt>
      <trkpt lat="48.04479" lon="-3.76027">
        <ele>225</ele>
        <time>2020-06-07T16:07:03Z</time>
      </trkpt>
      <trkpt lat="48.04479" lon="-3.76027">
        <ele>225</ele>
        <time>2020-06-07T16:07:04Z</time>
      </trkpt>
      <trkpt lat="48.04479" lon="-3.76027">
        <ele>225</ele>
        <time>2020-06-07T16:07:05Z</time>
      </trkpt>
      <trkpt lat="48.0448" lon="-3.76028">
        <ele>225.1</ele>
        <time>2020-06-07T16:07:06Z</time>
      </trkpt>
      <trkpt lat="48.0448" lon="-3.76029">
        <ele>225.1</ele>
        <time>2020-06-07T16:07:07Z</time>
      </trkpt>
      <trkpt lat="48.0448" lon="-3.76029">
        <ele>225.1</ele>
        <time>2020-06-07T16:07:08Z</time>
      </trkpt>
      <trkpt lat="48.0448" lon="-3.76029">
        <ele>225.1</ele>
        <time>2020-06-07T16:07:09Z</time>
      </trkpt>
      <trkpt lat="48.0448" lon="-3.76029">
        <ele>225.1</ele>
        <time>2020-06-07T16:07:10Z</time>
      </trkpt>
      <trkpt lat="48.0448" lon="-3.76029">
        <ele>225.1</ele>
        <time>2020-06-07T16:07:11Z</time>
      </trkpt>
      <trkpt lat="48.0448" lon="-3.76029">
        <ele>225.1</ele>
        <time>2020-06-07T16:07:12Z</time>
      </trkpt>
      <trkpt lat="48.0448" lon="-3.76029">
        <ele>225.1</ele>
        <time>2020-06-07T16:07:13Z</time>
      </trkpt>
      <trkpt lat="48.04481" lon="-3.76032">
        <ele>225.2</ele>
        <time>2020-06-07T16:07:50Z</time>
      </trkpt>
      <trkpt lat="48.04482" lon="-3.76033">
        <ele>225.2</ele>
        <time>2020-06-07T16:07:51Z</time>
      </trkpt>
      <trkpt lat="48.04485" lon="-3.76036">
        <ele>225.4</ele>
        <time>2020-06-07T16:07:52Z</time>
      </trkpt>
      <trkpt lat="48.04487" lon="-3.76038">
        <ele>225.5</ele>
        <time>2020-06-07T16:07:53Z</time>
      </trkpt>
      <trkpt lat="48.04489" lon="-3.7604">
        <ele>225.5</ele>
        <time>2020-06-07T16:07:54Z</time>
      </trkpt>
      <trkpt lat="48.04491" lon="-3.76042">
        <ele>225.6</ele>
        <time>2020-06-07T16:07:55Z</time>
      </trkpt>
      <trkpt lat="48.04493" lon="-3.76043">
        <ele>225.7</ele>
        <time>2020-06-07T16:07:56Z</time>
      </trkpt>
      <trkpt lat="48.04494" lon="-3.76045">
        <ele>225.8</ele>
        <time>2020-06-07T16:07:57Z</time>
      </trkpt>
      <trkpt lat="48.04495" lon="-3.76046">
        <ele>225.8</ele>
        <time>2020-06-07T16:07:58Z</time>
      </trkpt>
      <trkpt lat="48.04497" lon="-3.76048">
        <ele>225.9</ele>
        <time>2020-06-07T16:07:59Z</time>
      </trkpt>
      <trkpt lat="48.045" lon="-3.7605">
        <ele>226</ele>
        <time>2020-06-07T16:08:00Z</time>
      </trkpt>
      <trkpt lat="48.04501" lon="-3.76051">
        <ele>226.1</ele>
        <time>2020-06-07T16:08:01Z</time>
      </trkpt>
      <trkpt lat="48.04504" lon="-3.76052">
        <ele>226.2</ele>
        <time>2020-06-07T16:08:02Z</time>
      </trkpt>
      <trkpt lat="48.04507" lon="-3.76054">
        <ele>226.4</ele>
        <time>2020-06-07T16:08:03Z</time>
      </trkpt>
      <trkpt lat="48.0451" lon="-3.76056">
        <ele>226.5</ele>
        <time>2020-06-07T16:08:04Z</time>
      </trkpt>
      <trkpt lat="48.04512" lon="-3.76058">
        <ele>226.6</ele>
        <time>2020-06-07T16:08:05Z</time>
      </trkpt>
      <trkpt lat="48.04517" lon="-3.76061">
        <ele>226.8</ele>
        <time>2020-06-07T16:08:06Z</time>
      </trkpt>
      <trkpt lat="48.0452" lon="-3.76064">
        <ele>226.9</ele>
        <time>2020-06-07T16:08:07Z</time>
      </trkpt>
      <trkpt lat="48.04524" lon="-3.76066">
        <ele>227.1</ele>
        <time>2020-06-07T16:08:08Z</time>
      </trkpt>
      <trkpt lat="48.04526" lon="-3.76068">
        <ele>227.2</ele>
        <time>2020-06-07T16:08:09Z</time>
      </trkpt>
      <trkpt lat="48.04529" lon="-3.76069">
        <ele>227.3</ele>
        <time>2020-06-07T16:08:10Z</time>
      </trkpt>
      <trkpt lat="48.04531" lon="-3.7607">
        <ele>227.4</ele>
        <time>2020-06-07T16:08:11Z</time>
      </trkpt>
      <trkpt lat="48.04533" lon="-3.76071">
        <ele>227.5</ele>
        <time>2020-06-07T16:08:12Z</time>
      </trkpt>
      <trkpt lat="48.04531" lon="-3.7607">
        <ele>227.6</ele>
        <time>2020-06-07T16:08:13Z</time>
      </trkpt>
      <trkpt lat="48.04549" lon="-3.76077">
        <ele>228.3</ele>
        <time>2020-06-07T16:08:21Z</time>
      </trkpt>
      <trkpt lat="48.04552" lon="-3.76078">
        <ele>228.4</ele>
        <time>2020-06-07T16:08:22Z</time>
      </trkpt>
      <trkpt lat="48.04556" lon="-3.76079">
        <ele>228.6</ele>
        <time>2020-06-07T16:08:23Z</time>
      </trkpt>
      <trkpt lat="48.04558" lon="-3.76082">
        <ele>228.7</ele>
        <time>2020-06-07T16:08:24Z</time>
      </trkpt>
      <trkpt lat="48.04559" lon="-3.76082">
        <ele>228.7</ele>
        <time>2020-06-07T16:08:25Z</time>
      </trkpt>
      <trkpt lat="48.04559" lon="-3.76083">
        <ele>228.8</ele>
        <time>2020-06-07T16:08:26Z</time>
      </trkpt>
      <trkpt lat="48.0456" lon="-3.76083">
        <ele>228.8</ele>
        <time>2020-06-07T16:08:27Z</time>
      </trkpt>
      <trkpt lat="48.04561" lon="-3.76083">
        <ele>228.8</ele>
        <time>2020-06-07T16:08:28Z</time>
      </trkpt>
      <trkpt lat="48.04562" lon="-3.76083">
        <ele>228.9</ele>
        <time>2020-06-07T16:08:29Z</time>
      </trkpt>
      <trkpt lat="48.04562" lon="-3.76084">
        <ele>228.9</ele>
        <time>2020-06-07T16:08:30Z</time>
      </trkpt>
      <trkpt lat="48.04563" lon="-3.76084">
        <ele>228.9</ele>
        <time>2020-06-07T16:08:31Z</time>
      </trkpt>
      <trkpt lat="48.04564" lon="-3.76084">
        <ele>229</ele>
        <time>2020-06-07T16:08:32Z</time>
      </trkpt>
      <trkpt lat="48.04566" lon="-3.76086">
        <ele>229.1</ele>
        <time>2020-06-07T16:08:33Z</time>
      </trkpt>
      <trkpt lat="48.04564" lon="-3.7609">
        <ele>229.2</ele>
        <time>2020-06-07T16:08:34Z</time>
      </trkpt>
      <trkpt lat="48.04561" lon="-3.76092">
        <ele>229.3</ele>
        <time>2020-06-07T16:08:35Z</time>
      </trkpt>
      <trkpt lat="48.04563" lon="-3.76097">
        <ele>229.5</ele>
        <time>2020-06-07T16:08:36Z</time>
      </trkpt>
      <trkpt lat="48.04565" lon="-3.76099">
        <ele>229.6</ele>
        <time>2020-06-07T16:08:37Z</time>
      </trkpt>
      <trkpt lat="48.04568" lon="-3.76104">
        <ele>229.8</ele>
        <time>2020-06-07T16:08:38Z</time>
      </trkpt>
      <trkpt lat="48.04569" lon="-3.76105">
        <ele>229.7</ele>
        <time>2020-06-07T16:08:39Z</time>
      </trkpt>
      <trkpt lat="48.0457" lon="-3.76106">
        <ele>229.7</ele>
        <time>2020-06-07T16:08:40Z</time>
      </trkpt>
      <trkpt lat="48.0457" lon="-3.76108">
        <ele>229.7</ele>
        <time>2020-06-07T16:08:41Z</time>
      </trkpt>
      <trkpt lat="48.04568" lon="-3.76108">
        <ele>229.6</ele>
        <time>2020-06-07T16:08:42Z</time>
      </trkpt>
      <trkpt lat="48.04567" lon="-3.76109">
        <ele>229.6</ele>
        <time>2020-06-07T16:08:43Z</time>
      </trkpt>
      <trkpt lat="48.04564" lon="-3.7611">
        <ele>229.6</ele>
        <time>2020-06-07T16:08:44Z</time>
      </trkpt>
      <trkpt lat="48.04561" lon="-3.7611">
        <ele>229.5</ele>
        <time>2020-06-07T16:08:45Z</time>
      </trkpt>
      <trkpt lat="48.04558" lon="-3.76111">
        <ele>229.4</ele>
        <time>2020-06-07T16:08:46Z</time>
      </trkpt>
      <trkpt lat="48.04559" lon="-3.7611">
        <ele>229.4</ele>
        <time>2020-06-07T16:08:47Z</time>
      </trkpt>
      <trkpt lat="48.0456" lon="-3.76109">
        <ele>229.3</ele>
        <time>2020-06-07T16:08:48Z</time>
      </trkpt>
      <trkpt lat="48.04561" lon="-3.76109">
        <ele>229.3</ele>
        <time>2020-06-07T16:08:49Z</time>
      </trkpt>
      <trkpt lat="48.04561" lon="-3.76108">
        <ele>229.3</ele>
        <time>2020-06-07T16:08:50Z</time>
      </trkpt>
      <trkpt lat="48.04562" lon="-3.76108">
        <ele>229.3</ele>
        <time>2020-06-07T16:08:51Z</time>
      </trkpt>
      <trkpt lat="48.04562" lon="-3.76108">
        <ele>229.3</ele>
        <time>2020-06-07T16:08:52Z</time>
      </trkpt>
      <trkpt lat="48.04563" lon="-3.76107">
        <ele>229.3</ele>
        <time>2020-06-07T16:08:53Z</time>
      </trkpt>
      <trkpt lat="48.04562" lon="-3.76107">
        <ele>229.2</ele>
        <time>2020-06-07T16:08:54Z</time>
      </trkpt>
      <trkpt lat="48.04561" lon="-3.76107">
        <ele>229.2</ele>
        <time>2020-06-07T16:08:55Z</time>
      </trkpt>
      <trkpt lat="48.04559" lon="-3.76108">
        <ele>229.2</ele>
        <time>2020-06-07T16:08:56Z</time>
      </trkpt>
      <trkpt lat="48.04558" lon="-3.76108">
        <ele>229.2</ele>
        <time>2020-06-07T16:08:57Z</time>
      </trkpt>
      <trkpt lat="48.04558" lon="-3.76106">
        <ele>229.1</ele>
        <time>2020-06-07T16:08:58Z</time>
      </trkpt>
      <trkpt lat="48.04556" lon="-3.76108">
        <ele>229.1</ele>
        <time>2020-06-07T16:08:59Z</time>
      </trkpt>
      <trkpt lat="48.04554" lon="-3.76107">
        <ele>229</ele>
        <time>2020-06-07T16:09:00Z</time>
      </trkpt>
      <trkpt lat="48.04553" lon="-3.76106">
        <ele>229</ele>
        <time>2020-06-07T16:09:01Z</time>
      </trkpt>
      <trkpt lat="48.04552" lon="-3.76105">
        <ele>229</ele>
        <time>2020-06-07T16:09:02Z</time>
      </trkpt>
      <trkpt lat="48.04551" lon="-3.76104">
        <ele>228.9</ele>
        <time>2020-06-07T16:09:03Z</time>
      </trkpt>
      <trkpt lat="48.04549" lon="-3.76103">
        <ele>228.9</ele>
        <time>2020-06-07T16:09:04Z</time>
      </trkpt>
      <trkpt lat="48.04548" lon="-3.76102">
        <ele>228.9</ele>
        <time>2020-06-07T16:09:05Z</time>
      </trkpt>
      <trkpt lat="48.04544" lon="-3.76101">
        <ele>228.8</ele>
        <time>2020-06-07T16:09:06Z</time>
      </trkpt>
      <trkpt lat="48.04543" lon="-3.761">
        <ele>228.7</ele>
        <time>2020-06-07T16:09:07Z</time>
      </trkpt>
      <trkpt lat="48.0454" lon="-3.76098">
        <ele>228.7</ele>
        <time>2020-06-07T16:09:08Z</time>
      </trkpt>
      <trkpt lat="48.0454" lon="-3.76099">
        <ele>228.6</ele>
        <time>2020-06-07T16:09:09Z</time>
      </trkpt>
      <trkpt lat="48.04539" lon="-3.76099">
        <ele>228.6</ele>
        <time>2020-06-07T16:09:10Z</time>
      </trkpt>
      <trkpt lat="48.04537" lon="-3.76098">
        <ele>228.6</ele>
        <time>2020-06-07T16:09:11Z</time>
      </trkpt>
      <trkpt lat="48.04535" lon="-3.76096">
        <ele>228.5</ele>
        <time>2020-06-07T16:09:12Z</time>
      </trkpt>
      <trkpt lat="48.04534" lon="-3.76096">
        <ele>228.5</ele>
        <time>2020-06-07T16:09:13Z</time>
      </trkpt>
      <trkpt lat="48.04533" lon="-3.76095">
        <ele>228.5</ele>
        <time>2020-06-07T16:09:14Z</time>
      </trkpt>
      <trkpt lat="48.04531" lon="-3.76093">
        <ele>228.4</ele>
        <time>2020-06-07T16:09:15Z</time>
      </trkpt>
      <trkpt lat="48.0453" lon="-3.76092">
        <ele>228.4</ele>
        <time>2020-06-07T16:09:16Z</time>
      </trkpt>
      <trkpt lat="48.04528" lon="-3.76091">
        <ele>228.3</ele>
        <time>2020-06-07T16:09:17Z</time>
      </trkpt>
      <trkpt lat="48.04527" lon="-3.76088">
        <ele>228.3</ele>
        <time>2020-06-07T16:09:18Z</time>
      </trkpt>
      <trkpt lat="48.04526" lon="-3.76087">
        <ele>228.3</ele>
        <time>2020-06-07T16:09:19Z</time>
      </trkpt>
      <trkpt lat="48.04525" lon="-3.76086">
        <ele>228.2</ele>
        <time>2020-06-07T16:09:20Z</time>
      </trkpt>
      <trkpt lat="48.0452" lon="-3.76078">
        <ele>228.1</ele>
        <time>2020-06-07T16:09:46Z</time>
      </trkpt>
      <trkpt lat="48.04522" lon="-3.76077">
        <ele>228</ele>
        <time>2020-06-07T16:09:47Z</time>
      </trkpt>
      <trkpt lat="48.04524" lon="-3.76077">
        <ele>228</ele>
        <time>2020-06-07T16:09:48Z</time>
      </trkpt>
      <trkpt lat="48.04525" lon="-3.76079">
        <ele>228</ele>
        <time>2020-06-07T16:09:49Z</time>
      </trkpt>
      <trkpt lat="48.04526" lon="-3.76079">
        <ele>227.9</ele>
        <time>2020-06-07T16:09:50Z</time>
      </trkpt>
      <trkpt lat="48.04526" lon="-3.76076">
        <ele>227.9</ele>
        <time>2020-06-07T16:09:51Z</time>
      </trkpt>
      <trkpt lat="48.04526" lon="-3.76074">
        <ele>227.9</ele>
        <time>2020-06-07T16:09:52Z</time>
      </trkpt>
      <trkpt lat="48.04526" lon="-3.76072">
        <ele>227.9</ele>
        <time>2020-06-07T16:09:53Z</time>
      </trkpt>
      <trkpt lat="48.04526" lon="-3.7607">
        <ele>227.8</ele>
        <time>2020-06-07T16:09:54Z</time>
      </trkpt>
      <trkpt lat="48.04525" lon="-3.7607">
        <ele>227.8</ele>
        <time>2020-06-07T16:09:55Z</time>
      </trkpt>
      <trkpt lat="48.04525" lon="-3.7607">
        <ele>227.8</ele>
        <time>2020-06-07T16:09:56Z</time>
      </trkpt>
      <trkpt lat="48.04524" lon="-3.76071">
        <ele>227.8</ele>
        <time>2020-06-07T16:09:57Z</time>
      </trkpt>
      <trkpt lat="48.04524" lon="-3.76071">
        <ele>227.8</ele>
        <time>2020-06-07T16:09:58Z</time>
      </trkpt>
      <trkpt lat="48.04524" lon="-3.76071">
        <ele>227.8</ele>
        <time>2020-06-07T16:09:59Z</time>
      </trkpt>
      <trkpt lat="48.04524" lon="-3.76071">
        <ele>227.8</ele>
        <time>2020-06-07T16:10:00Z</time>
      </trkpt>
      <trkpt lat="48.04525" lon="-3.7607">
        <ele>227.8</ele>
        <time>2020-06-07T16:10:01Z</time>
      </trkpt>
      <trkpt lat="48.04525" lon="-3.7607">
        <ele>227.8</ele>
        <time>2020-06-07T16:10:02Z</time>
      </trkpt>
      <trkpt lat="48.04526" lon="-3.7607">
        <ele>227.7</ele>
        <time>2020-06-07T16:10:03Z</time>
      </trkpt>
      <trkpt lat="48.04525" lon="-3.76069">
        <ele>227.7</ele>
        <time>2020-06-07T16:10:04Z</time>
      </trkpt>
      <trkpt lat="48.04526" lon="-3.76068">
        <ele>227.7</ele>
        <time>2020-06-07T16:10:05Z</time>
      </trkpt>
      <trkpt lat="48.04527" lon="-3.76068">
        <ele>227.7</ele>
        <time>2020-06-07T16:10:06Z</time>
      </trkpt>
      <trkpt lat="48.04528" lon="-3.76068">
        <ele>227.7</ele>
        <time>2020-06-07T16:10:07Z</time>
      </trkpt>
      <trkpt lat="48.04529" lon="-3.76067">
        <ele>227.6</ele>
        <time>2020-06-07T16:10:08Z</time>
      </trkpt>
      <trkpt lat="48.04529" lon="-3.76067">
        <ele>227.6</ele>
        <time>2020-06-07T16:10:09Z</time>
      </trkpt>
      <trkpt lat="48.04529" lon="-3.76067">
        <ele>227.6</ele>
        <time>2020-06-07T16:10:10Z</time>
      </trkpt>
      <trkpt lat="48.04529" lon="-3.76066">
        <ele>227.6</ele>
        <time>2020-06-07T16:10:11Z</time>
      </trkpt>
      <trkpt lat="48.0453" lon="-3.76066">
        <ele>227.6</ele>
        <time>2020-06-07T16:10:12Z</time>
      </trkpt>
      <trkpt lat="48.0453" lon="-3.76066">
        <ele>227.6</ele>
        <time>2020-06-07T16:10:13Z</time>
      </trkpt>
      <trkpt lat="48.04531" lon="-3.76065">
        <ele>227.6</ele>
        <time>2020-06-07T16:10:14Z</time>
      </trkpt>
      <trkpt lat="48.0453" lon="-3.76065">
        <ele>227.6</ele>
        <time>2020-06-07T16:10:15Z</time>
      </trkpt>
      <trkpt lat="48.04531" lon="-3.76065">
        <ele>227.6</ele>
        <time>2020-06-07T16:10:16Z</time>
      </trkpt>
      <trkpt lat="48.04531" lon="-3.76065">
        <ele>227.6</ele>
        <time>2020-06-07T16:10:17Z</time>
      </trkpt>
      <trkpt lat="48.04531" lon="-3.76064">
        <ele>227.6</ele>
        <time>2020-06-07T16:10:18Z</time>
      </trkpt>
      <trkpt lat="48.04531" lon="-3.76064">
        <ele>227.6</ele>
        <time>2020-06-07T16:10:19Z</time>
      </trkpt>
      <trkpt lat="48.04531" lon="-3.76064">
        <ele>227.6</ele>
        <time>2020-06-07T16:10:20Z</time>
      </trkpt>
      <trkpt lat="48.04531" lon="-3.76064">
        <ele>227.6</ele>
        <time>2020-06-07T16:10:21Z</time>
      </trkpt>
      <trkpt lat="48.04532" lon="-3.76064">
        <ele>227.5</ele>
        <time>2020-06-07T16:10:22Z</time>
      </trkpt>
      <trkpt lat="48.04532" lon="-3.76065">
        <ele>227.5</ele>
        <time>2020-06-07T16:10:23Z</time>
      </trkpt>
      <trkpt lat="48.04533" lon="-3.76066">
        <ele>227.8</ele>
        <time>2020-06-07T16:10:24Z</time>
      </trkpt>
      <trkpt lat="48.04533" lon="-3.76066">
        <ele>227.8</ele>
        <time>2020-06-07T16:10:25Z</time>
      </trkpt>
      <trkpt lat="48.04533" lon="-3.76066">
        <ele>227.8</ele>
        <time>2020-06-07T16:10:26Z</time>
      </trkpt>
      <trkpt lat="48.04532" lon="-3.76066">
        <ele>227.5</ele>
        <time>2020-06-07T16:10:27Z</time>
      </trkpt>
      <trkpt lat="48.04533" lon="-3.76066">
        <ele>227.8</ele>
        <time>2020-06-07T16:10:28Z</time>
      </trkpt>
      <trkpt lat="48.04533" lon="-3.76066">
        <ele>227.8</ele>
        <time>2020-06-07T16:10:29Z</time>
      </trkpt>
      <trkpt lat="48.04534" lon="-3.76066">
        <ele>227.8</ele>
        <time>2020-06-07T16:10:30Z</time>
      </trkpt>
      <trkpt lat="48.04534" lon="-3.76066">
        <ele>227.8</ele>
        <time>2020-06-07T16:10:31Z</time>
      </trkpt>
      <trkpt lat="48.04535" lon="-3.76066">
        <ele>227.8</ele>
        <time>2020-06-07T16:10:32Z</time>
      </trkpt>
      <trkpt lat="48.04535" lon="-3.76067">
        <ele>227.8</ele>
        <time>2020-06-07T16:10:33Z</time>
      </trkpt>
      <trkpt lat="48.04536" lon="-3.76067">
        <ele>228.1</ele>
        <time>2020-06-07T16:10:34Z</time>
      </trkpt>
      <trkpt lat="48.04549" lon="-3.7606">
        <ele>228.8</ele>
        <time>2020-06-07T16:10:52Z</time>
      </trkpt>
      <trkpt lat="48.0455" lon="-3.76061">
        <ele>229.1</ele>
        <time>2020-06-07T16:10:53Z</time>
      </trkpt>
      <trkpt lat="48.04551" lon="-3.76061">
        <ele>229.1</ele>
        <time>2020-06-07T16:10:54Z</time>
      </trkpt>
      <trkpt lat="48.04552" lon="-3.76061">
        <ele>229.1</ele>
        <time>2020-06-07T16:10:55Z</time>
      </trkpt>
      <trkpt lat="48.04551" lon="-3.76061">
        <ele>229.1</ele>
        <time>2020-06-07T16:10:56Z</time>
      </trkpt>
      <trkpt lat="48.04551" lon="-3.76061">
        <ele>229.1</ele>
        <time>2020-06-07T16:10:57Z</time>
      </trkpt>
      <trkpt lat="48.04552" lon="-3.76061">
        <ele>229.1</ele>
        <time>2020-06-07T16:10:58Z</time>
      </trkpt>
      <trkpt lat="48.04552" lon="-3.76061">
        <ele>229.1</ele>
        <time>2020-06-07T16:10:59Z</time>
      </trkpt>
      <trkpt lat="48.04552" lon="-3.76061">
        <ele>229.1</ele>
        <time>2020-06-07T16:11:00Z</time>
      </trkpt>
      <trkpt lat="48.04551" lon="-3.76061">
        <ele>229.1</ele>
        <time>2020-06-07T16:11:01Z</time>
      </trkpt>
      <trkpt lat="48.04551" lon="-3.76061">
        <ele>229.1</ele>
        <time>2020-06-07T16:11:02Z</time>
      </trkpt>
      <trkpt lat="48.04551" lon="-3.76061">
        <ele>229.1</ele>
        <time>2020-06-07T16:11:03Z</time>
      </trkpt>
      <trkpt lat="48.04551" lon="-3.76061">
        <ele>229.1</ele>
        <time>2020-06-07T16:11:04Z</time>
      </trkpt>
      <trkpt lat="48.04552" lon="-3.76062">
        <ele>229.1</ele>
        <time>2020-06-07T16:11:05Z</time>
      </trkpt>
      <trkpt lat="48.04552" lon="-3.76062">
        <ele>229.1</ele>
        <time>2020-06-07T16:11:06Z</time>
      </trkpt>
      <trkpt lat="48.04552" lon="-3.76062">
        <ele>229.1</ele>
        <time>2020-06-07T16:11:07Z</time>
      </trkpt>
      <trkpt lat="48.04552" lon="-3.76062">
        <ele>229.1</ele>
        <time>2020-06-07T16:11:08Z</time>
      </trkpt>
      <trkpt lat="48.04552" lon="-3.76062">
        <ele>229.1</ele>
        <time>2020-06-07T16:11:09Z</time>
      </trkpt>
      <trkpt lat="48.04552" lon="-3.76062">
        <ele>229.1</ele>
        <time>2020-06-07T16:11:10Z</time>
      </trkpt>
      <trkpt lat="48.04484" lon="-3.76053">
        <ele>225.1</ele>
        <time>2020-06-07T16:13:15Z</time>
      </trkpt>
      <trkpt lat="48.04484" lon="-3.76054">
        <ele>225.1</ele>
        <time>2020-06-07T16:13:16Z</time>
      </trkpt>
      <trkpt lat="48.04484" lon="-3.76053">
        <ele>225.1</ele>
        <time>2020-06-07T16:13:17Z</time>
      </trkpt>
      <trkpt lat="48.04484" lon="-3.76053">
        <ele>225.1</ele>
        <time>2020-06-07T16:13:18Z</time>
      </trkpt>
      <trkpt lat="48.04484" lon="-3.76054">
        <ele>225</ele>
        <time>2020-06-07T16:13:19Z</time>
      </trkpt>
      <trkpt lat="48.04483" lon="-3.76054">
        <ele>225</ele>
        <time>2020-06-07T16:13:20Z</time>
      </trkpt>
      <trkpt lat="48.04483" lon="-3.76055">
        <ele>225.1</ele>
        <time>2020-06-07T16:13:21Z</time>
      </trkpt>
      <trkpt lat="48.04483" lon="-3.76055">
        <ele>225.1</ele>
        <time>2020-06-07T16:13:22Z</time>
      </trkpt>
      <trkpt lat="48.04482" lon="-3.76056">
        <ele>225.1</ele>
        <time>2020-06-07T16:13:23Z</time>
      </trkpt>
      <trkpt lat="48.04482" lon="-3.76056">
        <ele>225.1</ele>
        <time>2020-06-07T16:13:24Z</time>
      </trkpt>
      <trkpt lat="48.04481" lon="-3.76057">
        <ele>225.1</ele>
        <time>2020-06-07T16:13:25Z</time>
      </trkpt>
      <trkpt lat="48.04481" lon="-3.76057">
        <ele>225</ele>
        <time>2020-06-07T16:13:26Z</time>
      </trkpt>
      <trkpt lat="48.04481" lon="-3.76057">
        <ele>225</ele>
        <time>2020-06-07T16:13:27Z</time>
      </trkpt>
      <trkpt lat="48.0448" lon="-3.76057">
        <ele>225</ele>
        <time>2020-06-07T16:13:28Z</time>
      </trkpt>
      <trkpt lat="48.0448" lon="-3.76057">
        <ele>225</ele>
        <time>2020-06-07T16:13:29Z</time>
      </trkpt>
      <trkpt lat="48.04481" lon="-3.76056">
        <ele>225</ele>
        <time>2020-06-07T16:13:30Z</time>
      </trkpt>
      <trkpt lat="48.04481" lon="-3.76055">
        <ele>225</ele>
        <time>2020-06-07T16:13:31Z</time>
      </trkpt>
      <trkpt lat="48.04481" lon="-3.76055">
        <ele>225</ele>
        <time>2020-06-07T16:13:32Z</time>
      </trkpt>
      <trkpt lat="48.04481" lon="-3.76055">
        <ele>225</ele>
        <time>2020-06-07T16:13:33Z</time>
      </trkpt>
      <trkpt lat="48.0448" lon="-3.76054">
        <ele>225</ele>
        <time>2020-06-07T16:13:34Z</time>
      </trkpt>
      <trkpt lat="48.04481" lon="-3.76054">
        <ele>225</ele>
        <time>2020-06-07T16:13:35Z</time>
      </trkpt>
      <trkpt lat="48.0448" lon="-3.76052">
        <ele>225</ele>
        <time>2020-06-07T16:13:36Z</time>
      </trkpt>
      <trkpt lat="48.04479" lon="-3.76052">
        <ele>225</ele>
        <time>2020-06-07T16:13:37Z</time>
      </trkpt>
      <trkpt lat="48.04479" lon="-3.76052">
        <ele>225</ele>
        <time>2020-06-07T16:13:38Z</time>
      </trkpt>
      <trkpt lat="48.04478" lon="-3.76051">
        <ele>225</ele>
        <time>2020-06-07T16:13:39Z</time>
      </trkpt>
      <trkpt lat="48.04476" lon="-3.76052">
        <ele>225</ele>
        <time>2020-06-07T16:13:40Z</time>
      </trkpt>
      <trkpt lat="48.04476" lon="-3.76053">
        <ele>225</ele>
        <time>2020-06-07T16:13:41Z</time>
      </trkpt>
      <trkpt lat="48.04475" lon="-3.76053">
        <ele>224.9</ele>
        <time>2020-06-07T16:13:42Z</time>
      </trkpt>
      <trkpt lat="48.04473" lon="-3.76054">
        <ele>224.9</ele>
        <time>2020-06-07T16:13:43Z</time>
      </trkpt>
      <trkpt lat="48.04472" lon="-3.76054">
        <ele>224.9</ele>
        <time>2020-06-07T16:13:44Z</time>
      </trkpt>
      <trkpt lat="48.04472" lon="-3.76054">
        <ele>224.8</ele>
        <time>2020-06-07T16:13:45Z</time>
      </trkpt>
      <trkpt lat="48.04471" lon="-3.76054">
        <ele>224.8</ele>
        <time>2020-06-07T16:13:46Z</time>
      </trkpt>
      <trkpt lat="48.0447" lon="-3.76054">
        <ele>224.8</ele>
        <time>2020-06-07T16:13:47Z</time>
      </trkpt>
      <trkpt lat="48.04468" lon="-3.76054">
        <ele>224.8</ele>
        <time>2020-06-07T16:13:48Z</time>
      </trkpt>
      <trkpt lat="48.04467" lon="-3.76054">
        <ele>224.8</ele>
        <time>2020-06-07T16:13:49Z</time>
      </trkpt>
      <trkpt lat="48.04466" lon="-3.76053">
        <ele>224.7</ele>
        <time>2020-06-07T16:13:50Z</time>
      </trkpt>
      <trkpt lat="48.04465" lon="-3.76053">
        <ele>224.7</ele>
        <time>2020-06-07T16:13:51Z</time>
      </trkpt>
      <trkpt lat="48.04464" lon="-3.76053">
        <ele>224.7</ele>
        <time>2020-06-07T16:13:52Z</time>
      </trkpt>
      <trkpt lat="48.04463" lon="-3.76053">
        <ele>224.7</ele>
        <time>2020-06-07T16:13:53Z</time>
      </trkpt>
      <trkpt lat="48.04462" lon="-3.76053">
        <ele>224.7</ele>
        <time>2020-06-07T16:13:54Z</time>
      </trkpt>
      <trkpt lat="48.04461" lon="-3.76053">
        <ele>224.7</ele>
        <time>2020-06-07T16:13:55Z</time>
      </trkpt>
      <trkpt lat="48.0446" lon="-3.76053">
        <ele>224.7</ele>
        <time>2020-06-07T16:13:56Z</time>
      </trkpt>
      <trkpt lat="48.04459" lon="-3.76053">
        <ele>224.7</ele>
        <time>2020-06-07T16:13:57Z</time>
      </trkpt>
      <trkpt lat="48.04457" lon="-3.76052">
        <ele>224.6</ele>
        <time>2020-06-07T16:13:58Z</time>
      </trkpt>
      <trkpt lat="48.04456" lon="-3.76052">
        <ele>224.6</ele>
        <time>2020-06-07T16:13:59Z</time>
      </trkpt>
      <trkpt lat="48.04455" lon="-3.76051">
        <ele>224.6</ele>
        <time>2020-06-07T16:14:00Z</time>
      </trkpt>
      <trkpt lat="48.04456" lon="-3.76049">
        <ele>224.6</ele>
        <time>2020-06-07T16:14:01Z</time>
      </trkpt>
      <trkpt lat="48.04457" lon="-3.76048">
        <ele>224.6</ele>
        <time>2020-06-07T16:14:02Z</time>
      </trkpt>
      <trkpt lat="48.04458" lon="-3.76047">
        <ele>224.6</ele>
        <time>2020-06-07T16:14:03Z</time>
      </trkpt>
      <trkpt lat="48.0446" lon="-3.76046">
        <ele>224.6</ele>
        <time>2020-06-07T16:14:04Z</time>
      </trkpt>
      <trkpt lat="48.04461" lon="-3.76045">
        <ele>224.6</ele>
        <time>2020-06-07T16:14:05Z</time>
      </trkpt>
      <trkpt lat="48.04463" lon="-3.76044">
        <ele>224.6</ele>
        <time>2020-06-07T16:14:06Z</time>
      </trkpt>
      <trkpt lat="48.04464" lon="-3.76043">
        <ele>224.6</ele>
        <time>2020-06-07T16:14:07Z</time>
      </trkpt>
      <trkpt lat="48.04465" lon="-3.76042">
        <ele>224.6</ele>
        <time>2020-06-07T16:14:08Z</time>
      </trkpt>
      <trkpt lat="48.04467" lon="-3.76041">
        <ele>224.6</ele>
        <time>2020-06-07T16:14:09Z</time>
      </trkpt>
      <trkpt lat="48.04468" lon="-3.7604">
        <ele>224.6</ele>
        <time>2020-06-07T16:14:10Z</time>
      </trkpt>
      <trkpt lat="48.0447" lon="-3.76039">
        <ele>224.6</ele>
        <time>2020-06-07T16:14:11Z</time>
      </trkpt>
      <trkpt lat="48.04471" lon="-3.76038">
        <ele>224.6</ele>
        <time>2020-06-07T16:14:56Z</time>
      </trkpt>
      <trkpt lat="48.04473" lon="-3.76037">
        <ele>224.6</ele>
        <time>2020-06-07T16:14:57Z</time>
      </trkpt>
      <trkpt lat="48.04477" lon="-3.76035">
        <ele>224.6</ele>
        <time>2020-06-07T16:14:58Z</time>
      </trkpt>
      <trkpt lat="48.04477" lon="-3.76034">
        <ele>224.6</ele>
        <time>2020-06-07T16:14:59Z</time>
      </trkpt>
      <trkpt lat="48.04477" lon="-3.76034">
        <ele>224.6</ele>
        <time>2020-06-07T16:15:00Z</time>
      </trkpt>
      <trkpt lat="48.04474" lon="-3.76033">
        <ele>224.6</ele>
        <time>2020-06-07T16:15:01Z</time>
      </trkpt>
      <trkpt lat="48.0447" lon="-3.76032">
        <ele>224.4</ele>
        <time>2020-06-07T16:15:02Z</time>
      </trkpt>
      <trkpt lat="48.04465" lon="-3.76033">
        <ele>224.3</ele>
        <time>2020-06-07T16:15:03Z</time>
      </trkpt>
      <trkpt lat="48.04463" lon="-3.76032">
        <ele>224.3</ele>
        <time>2020-06-07T16:15:04Z</time>
      </trkpt>
      <trkpt lat="48.04463" lon="-3.76032">
        <ele>224.3</ele>
        <time>2020-06-07T16:15:05Z</time>
      </trkpt>
      <trkpt lat="48.04462" lon="-3.76032">
        <ele>224.3</ele>
        <time>2020-06-07T16:15:06Z</time>
      </trkpt>
      <trkpt lat="48.04462" lon="-3.76031">
        <ele>224.3</ele>
        <time>2020-06-07T16:15:07Z</time>
      </trkpt>
      <trkpt lat="48.04461" lon="-3.7603">
        <ele>224.3</ele>
        <time>2020-06-07T16:15:08Z</time>
      </trkpt>
      <trkpt lat="48.04461" lon="-3.76029">
        <ele>224.3</ele>
        <time>2020-06-07T16:15:09Z</time>
      </trkpt>
      <trkpt lat="48.0446" lon="-3.76029">
        <ele>224.2</ele>
        <time>2020-06-07T16:15:10Z</time>
      </trkpt>
      <trkpt lat="48.0446" lon="-3.76028">
        <ele>224.1</ele>
        <time>2020-06-07T16:15:11Z</time>
      </trkpt>
      <trkpt lat="48.0446" lon="-3.76027">
        <ele>224.1</ele>
        <time>2020-06-07T16:15:12Z</time>
      </trkpt>
      <trkpt lat="48.04458" lon="-3.76026">
        <ele>224.1</ele>
        <time>2020-06-07T16:15:13Z</time>
      </trkpt>
      <trkpt lat="48.04456" lon="-3.76025">
        <ele>224.1</ele>
        <time>2020-06-07T16:15:14Z</time>
      </trkpt>
      <trkpt lat="48.04455" lon="-3.76024">
        <ele>223.9</ele>
        <time>2020-06-07T16:15:15Z</time>
      </trkpt>
      <trkpt lat="48.04454" lon="-3.76023">
        <ele>223.9</ele>
        <time>2020-06-07T16:15:16Z</time>
      </trkpt>
      <trkpt lat="48.04451" lon="-3.76021">
        <ele>223.8</ele>
        <time>2020-06-07T16:15:17Z</time>
      </trkpt>
      <trkpt lat="48.0445" lon="-3.76021">
        <ele>223.8</ele>
        <time>2020-06-07T16:15:18Z</time>
      </trkpt>
      <trkpt lat="48.04447" lon="-3.76019">
        <ele>223.6</ele>
        <time>2020-06-07T16:15:19Z</time>
      </trkpt>
      <trkpt lat="48.04446" lon="-3.76018">
        <ele>223.6</ele>
        <time>2020-06-07T16:15:20Z</time>
      </trkpt>
      <trkpt lat="48.04446" lon="-3.76018">
        <ele>223.6</ele>
        <time>2020-06-07T16:15:21Z</time>
      </trkpt>
      <trkpt lat="48.04446" lon="-3.76015">
        <ele>223.4</ele>
        <time>2020-06-07T16:15:22Z</time>
      </trkpt>
      <trkpt lat="48.04448" lon="-3.76013">
        <ele>223.5</ele>
        <time>2020-06-07T16:15:23Z</time>
      </trkpt>
      <trkpt lat="48.04451" lon="-3.76013">
        <ele>223.5</ele>
        <time>2020-06-07T16:15:24Z</time>
      </trkpt>
      <trkpt lat="48.04452" lon="-3.76014">
        <ele>223.5</ele>
        <time>2020-06-07T16:15:25Z</time>
      </trkpt>
      <trkpt lat="48.04453" lon="-3.76014">
        <ele>223.6</ele>
        <time>2020-06-07T16:15:26Z</time>
      </trkpt>
      <trkpt lat="48.04455" lon="-3.76019">
        <ele>223.8</ele>
        <time>2020-06-07T16:15:27Z</time>
      </trkpt>
      <trkpt lat="48.04455" lon="-3.76019">
        <ele>223.8</ele>
        <time>2020-06-07T16:15:28Z</time>
      </trkpt>
      <trkpt lat="48.04455" lon="-3.76019">
        <ele>223.8</ele>
        <time>2020-06-07T16:15:29Z</time>
      </trkpt>
      <trkpt lat="48.04456" lon="-3.7602">
        <ele>223.8</ele>
        <time>2020-06-07T16:15:30Z</time>
      </trkpt>
      <trkpt lat="48.04456" lon="-3.76021">
        <ele>223.9</ele>
        <time>2020-06-07T16:15:31Z</time>
      </trkpt>
      <trkpt lat="48.04457" lon="-3.76021">
        <ele>223.9</ele>
        <time>2020-06-07T16:15:32Z</time>
      </trkpt>
      <trkpt lat="48.04458" lon="-3.76021">
        <ele>223.9</ele>
        <time>2020-06-07T16:15:33Z</time>
      </trkpt>
      <trkpt lat="48.04459" lon="-3.7603">
        <ele>224.2</ele>
        <time>2020-06-07T16:16:54Z</time>
      </trkpt>
      <trkpt lat="48.04459" lon="-3.7603">
        <ele>224.2</ele>
        <time>2020-06-07T16:16:55Z</time>
      </trkpt>
      <trkpt lat="48.04459" lon="-3.7603">
        <ele>224.2</ele>
        <time>2020-06-07T16:16:56Z</time>
      </trkpt>
      <trkpt lat="48.04459" lon="-3.7603">
        <ele>224.2</ele>
        <time>2020-06-07T16:16:57Z</time>
      </trkpt>
      <trkpt lat="48.04459" lon="-3.7603">
        <ele>224.2</ele>
        <time>2020-06-07T16:16:58Z</time>
      </trkpt>
      <trkpt lat="48.04459" lon="-3.7603">
        <ele>224.2</ele>
        <time>2020-06-07T16:16:59Z</time>
      </trkpt>
      <trkpt lat="48.04459" lon="-3.7603">
        <ele>224.2</ele>
        <time>2020-06-07T16:17:00Z</time>
      </trkpt>
      <trkpt lat="48.04459" lon="-3.7603">
        <ele>224.2</ele>
        <time>2020-06-07T16:17:01Z</time>
      </trkpt>
      <trkpt lat="48.04459" lon="-3.7603">
        <ele>224.2</ele>
        <time>2020-06-07T16:17:02Z</time>
      </trkpt>
      <trkpt lat="48.04459" lon="-3.7603">
        <ele>224.2</ele>
        <time>2020-06-07T16:17:03Z</time>
      </trkpt>
      <trkpt lat="48.04459" lon="-3.7603">
        <ele>224.2</ele>
        <time>2020-06-07T16:17:04Z</time>
      </trkpt>
      <trkpt lat="48.04459" lon="-3.7603">
        <ele>224.2</ele>
        <time>2020-06-07T16:17:05Z</time>
      </trkpt>
      <trkpt lat="48.04459" lon="-3.7603">
        <ele>224.2</ele>
        <time>2020-06-07T16:17:06Z</time>
      </trkpt>
      <trkpt lat="48.04467" lon="-3.76029">
        <ele>224.4</ele>
        <time>2020-06-07T16:17:17Z</time>
      </trkpt>
      <trkpt lat="48.04468" lon="-3.76029">
        <ele>224.4</ele>
        <time>2020-06-07T16:17:18Z</time>
      </trkpt>
      <trkpt lat="48.04468" lon="-3.76028">
        <ele>224.2</ele>
        <time>2020-06-07T16:17:19Z</time>
      </trkpt>
      <trkpt lat="48.04468" lon="-3.76028">
        <ele>224.2</ele>
        <time>2020-06-07T16:17:20Z</time>
      </trkpt>
      <trkpt lat="48.04468" lon="-3.76028">
        <ele>224.2</ele>
        <time>2020-06-07T16:17:21Z</time>
      </trkpt>
      <trkpt lat="48.04468" lon="-3.76029">
        <ele>224.4</ele>
        <time>2020-06-07T16:17:22Z</time>
      </trkpt>
      <trkpt lat="48.04468" lon="-3.76029">
        <ele>224.4</ele>
        <time>2020-06-07T16:17:23Z</time>
      </trkpt>
      <trkpt lat="48.04467" lon="-3.76029">
        <ele>224.2</ele>
        <time>2020-06-07T16:17:24Z</time>
      </trkpt>
      <trkpt lat="48.04468" lon="-3.76028">
        <ele>224.2</ele>
        <time>2020-06-07T16:17:25Z</time>
      </trkpt>
      <trkpt lat="48.04467" lon="-3.76026">
        <ele>224.2</ele>
        <time>2020-06-07T16:17:26Z</time>
      </trkpt>
      <trkpt lat="48.04469" lon="-3.76024">
        <ele>224.2</ele>
        <time>2020-06-07T16:17:27Z</time>
      </trkpt>
      <trkpt lat="48.04469" lon="-3.76024">
        <ele>224.1</ele>
        <time>2020-06-07T16:17:28Z</time>
      </trkpt>
      <trkpt lat="48.0447" lon="-3.76024">
        <ele>224.1</ele>
        <time>2020-06-07T16:17:29Z</time>
      </trkpt>
      <trkpt lat="48.04471" lon="-3.76024">
        <ele>224.1</ele>
        <time>2020-06-07T16:17:30Z</time>
      </trkpt>
      <trkpt lat="48.04471" lon="-3.76026">
        <ele>224.3</ele>
        <time>2020-06-07T16:17:31Z</time>
      </trkpt>
      <trkpt lat="48.04472" lon="-3.76027">
        <ele>224.3</ele>
        <time>2020-06-07T16:17:32Z</time>
      </trkpt>
      <trkpt lat="48.04473" lon="-3.76027">
        <ele>224.3</ele>
        <time>2020-06-07T16:17:33Z</time>
      </trkpt>
      <trkpt lat="48.04474" lon="-3.76028">
        <ele>224.3</ele>
        <time>2020-06-07T16:17:34Z</time>
      </trkpt>
      <trkpt lat="48.04474" lon="-3.76027">
        <ele>224.3</ele>
        <time>2020-06-07T16:17:35Z</time>
      </trkpt>
      <trkpt lat="48.04474" lon="-3.76028">
        <ele>224.3</ele>
        <time>2020-06-07T16:17:36Z</time>
      </trkpt>
      <trkpt lat="48.04473" lon="-3.76029">
        <ele>224.5</ele>
        <time>2020-06-07T16:17:37Z</time>
      </trkpt>
      <trkpt lat="48.04474" lon="-3.7603">
        <ele>224.5</ele>
        <time>2020-06-07T16:17:38Z</time>
      </trkpt>
      <trkpt lat="48.04474" lon="-3.7603">
        <ele>224.5</ele>
        <time>2020-06-07T16:17:39Z</time>
      </trkpt>
      <trkpt lat="48.04474" lon="-3.7603">
        <ele>224.5</ele>
        <time>2020-06-07T16:17:40Z</time>
      </trkpt>
      <trkpt lat="48.04474" lon="-3.7603">
        <ele>224.5</ele>
        <time>2020-06-07T16:17:41Z</time>
      </trkpt>
      <trkpt lat="48.04474" lon="-3.7603">
        <ele>224.5</ele>
        <time>2020-06-07T16:17:42Z</time>
      </trkpt>
      <trkpt lat="48.04474" lon="-3.76031">
        <ele>224.5</ele>
        <time>2020-06-07T16:17:43Z</time>
      </trkpt>
      <trkpt lat="48.04473" lon="-3.76032">
        <ele>224.5</ele>
        <time>2020-06-07T16:17:44Z</time>
      </trkpt>
      <trkpt lat="48.04473" lon="-3.76032">
        <ele>224.5</ele>
        <time>2020-06-07T16:17:45Z</time>
      </trkpt>
      <trkpt lat="48.04472" lon="-3.76032">
        <ele>224.4</ele>
        <time>2020-06-07T16:17:46Z</time>
      </trkpt>
      <trkpt lat="48.04473" lon="-3.76031">
        <ele>224.5</ele>
        <time>2020-06-07T16:17:47Z</time>
      </trkpt>
      <trkpt lat="48.04474" lon="-3.76031">
        <ele>224.5</ele>
        <time>2020-06-07T16:17:48Z</time>
      </trkpt>
      <trkpt lat="48.04475" lon="-3.7603">
        <ele>224.5</ele>
        <time>2020-06-07T16:17:49Z</time>
      </trkpt>
      <trkpt lat="48.04475" lon="-3.7603">
        <ele>224.5</ele>
        <time>2020-06-07T16:17:50Z</time>
      </trkpt>
      <trkpt lat="48.04475" lon="-3.7603">
        <ele>224.5</ele>
        <time>2020-06-07T16:17:51Z</time>
      </trkpt>
      <trkpt lat="48.04474" lon="-3.7603">
        <ele>224.5</ele>
        <time>2020-06-07T16:17:52Z</time>
      </trkpt>
      <trkpt lat="48.04481" lon="-3.76032">
        <ele>224.5</ele>
        <time>2020-06-07T16:23:51Z</time>
      </trkpt>
      <trkpt lat="48.04481" lon="-3.76032">
        <ele>224.6</ele>
        <time>2020-06-07T16:23:52Z</time>
      </trkpt>
      <trkpt lat="48.04482" lon="-3.76032">
        <ele>224.6</ele>
        <time>2020-06-07T16:23:53Z</time>
      </trkpt>
      <trkpt lat="48.04482" lon="-3.76032">
        <ele>224.6</ele>
        <time>2020-06-07T16:23:54Z</time>
      </trkpt>
      <trkpt lat="48.04483" lon="-3.76032">
        <ele>224.6</ele>
        <time>2020-06-07T16:23:55Z</time>
      </trkpt>
      <trkpt lat="48.04483" lon="-3.76033">
        <ele>224.6</ele>
        <time>2020-06-07T16:23:56Z</time>
      </trkpt>
      <trkpt lat="48.04484" lon="-3.76033">
        <ele>224.6</ele>
        <time>2020-06-07T16:23:57Z</time>
      </trkpt>
      <trkpt lat="48.04484" lon="-3.76033">
        <ele>224.7</ele>
        <time>2020-06-07T16:23:58Z</time>
      </trkpt>
      <trkpt lat="48.04485" lon="-3.76033">
        <ele>224.7</ele>
        <time>2020-06-07T16:23:59Z</time>
      </trkpt>
      <trkpt lat="48.04485" lon="-3.76033">
        <ele>224.7</ele>
        <time>2020-06-07T16:24:00Z</time>
      </trkpt>
      <trkpt lat="48.04486" lon="-3.76034">
        <ele>224.7</ele>
        <time>2020-06-07T16:24:01Z</time>
      </trkpt>
      <trkpt lat="48.04486" lon="-3.76034">
        <ele>224.7</ele>
        <time>2020-06-07T16:24:02Z</time>
      </trkpt>
      <trkpt lat="48.04487" lon="-3.76034">
        <ele>224.8</ele>
        <time>2020-06-07T16:24:03Z</time>
      </trkpt>
      <trkpt lat="48.04487" lon="-3.76034">
        <ele>224.8</ele>
        <time>2020-06-07T16:24:04Z</time>
      </trkpt>
      <trkpt lat="48.04488" lon="-3.76035">
        <ele>224.8</ele>
        <time>2020-06-07T16:24:05Z</time>
      </trkpt>
      <trkpt lat="48.04488" lon="-3.76035">
        <ele>224.8</ele>
        <time>2020-06-07T16:24:06Z</time>
      </trkpt>
      <trkpt lat="48.04489" lon="-3.76035">
        <ele>224.8</ele>
        <time>2020-06-07T16:24:07Z</time>
      </trkpt>
      <trkpt lat="48.04489" lon="-3.76035">
        <ele>224.8</ele>
        <time>2020-06-07T16:24:08Z</time>
      </trkpt>
      <trkpt lat="48.0449" lon="-3.76036">
        <ele>224.8</ele>
        <time>2020-06-07T16:24:09Z</time>
      </trkpt>
      <trkpt lat="48.0449" lon="-3.76036">
        <ele>224.8</ele>
        <time>2020-06-07T16:24:31Z</time>
      </trkpt>
      <trkpt lat="48.04491" lon="-3.76036">
        <ele>224.8</ele>
        <time>2020-06-07T16:24:32Z</time>
      </trkpt>
      <trkpt lat="48.04491" lon="-3.76036">
        <ele>224.8</ele>
        <time>2020-06-07T16:24:33Z</time>
      </trkpt>
      <trkpt lat="48.04493" lon="-3.76037">
        <ele>224.9</ele>
        <time>2020-06-07T16:24:34Z</time>
      </trkpt>
      <trkpt lat="48.04494" lon="-3.76037">
        <ele>225</ele>
        <time>2020-06-07T16:24:35Z</time>
      </trkpt>
      <trkpt lat="48.04495" lon="-3.76038">
        <ele>225</ele>
        <time>2020-06-07T16:24:36Z</time>
      </trkpt>
      <trkpt lat="48.04496" lon="-3.76038">
        <ele>225</ele>
        <time>2020-06-07T16:24:37Z</time>
      </trkpt>
      <trkpt lat="48.04497" lon="-3.76039">
        <ele>225</ele>
        <time>2020-06-07T16:24:38Z</time>
      </trkpt>
      <trkpt lat="48.04499" lon="-3.76039">
        <ele>225.1</ele>
        <time>2020-06-07T16:24:39Z</time>
      </trkpt>
      <trkpt lat="48.045" lon="-3.7604">
        <ele>225.1</ele>
        <time>2020-06-07T16:24:40Z</time>
      </trkpt>
      <trkpt lat="48.045" lon="-3.7604">
        <ele>225.1</ele>
        <time>2020-06-07T16:24:41Z</time>
      </trkpt>
      <trkpt lat="48.04501" lon="-3.76041">
        <ele>225.1</ele>
        <time>2020-06-07T16:24:42Z</time>
      </trkpt>
      <trkpt lat="48.045" lon="-3.76041">
        <ele>225.1</ele>
        <time>2020-06-07T16:24:43Z</time>
      </trkpt>
      <trkpt lat="48.045" lon="-3.7604">
        <ele>225.1</ele>
        <time>2020-06-07T16:24:44Z</time>
      </trkpt>
      <trkpt lat="48.04501" lon="-3.76041">
        <ele>225.2</ele>
        <time>2020-06-07T16:24:45Z</time>
      </trkpt>
      <trkpt lat="48.04502" lon="-3.76042">
        <ele>225.3</ele>
        <time>2020-06-07T16:24:46Z</time>
      </trkpt>
      <trkpt lat="48.04502" lon="-3.76042">
        <ele>225.3</ele>
        <time>2020-06-07T16:24:47Z</time>
      </trkpt>
      <trkpt lat="48.04502" lon="-3.76043">
        <ele>225.3</ele>
        <time>2020-06-07T16:24:48Z</time>
      </trkpt>
      <trkpt lat="48.04502" lon="-3.76042">
        <ele>225.3</ele>
        <time>2020-06-07T16:24:49Z</time>
      </trkpt>
      <trkpt lat="48.04502" lon="-3.76042">
        <ele>225.3</ele>
        <time>2020-06-07T16:24:50Z</time>
      </trkpt>
      <trkpt lat="48.04503" lon="-3.76042">
        <ele>225.3</ele>
        <time>2020-06-07T16:24:51Z</time>
      </trkpt>
      <trkpt lat="48.04504" lon="-3.76043">
        <ele>225.4</ele>
        <time>2020-06-07T16:24:52Z</time>
      </trkpt>
      <trkpt lat="48.04505" lon="-3.76043">
        <ele>225.4</ele>
        <time>2020-06-07T16:24:53Z</time>
      </trkpt>
      <trkpt lat="48.04506" lon="-3.76044">
        <ele>225.4</ele>
        <time>2020-06-07T16:24:54Z</time>
      </trkpt>
      <trkpt lat="48.04506" lon="-3.76043">
        <ele>225.4</ele>
        <time>2020-06-07T16:24:55Z</time>
      </trkpt>
      <trkpt lat="48.04506" lon="-3.76044">
        <ele>225.4</ele>
        <time>2020-06-07T16:24:56Z</time>
      </trkpt>
      <trkpt lat="48.04506" lon="-3.76043">
        <ele>225.4</ele>
        <time>2020-06-07T16:24:57Z</time>
      </trkpt>
      <trkpt lat="48.04507" lon="-3.76043">
        <ele>225.5</ele>
        <time>2020-06-07T16:24:58Z</time>
      </trkpt>
      <trkpt lat="48.04507" lon="-3.76043">
        <ele>225.5</ele>
        <time>2020-06-07T16:24:59Z</time>
      </trkpt>
      <trkpt lat="48.04507" lon="-3.76043">
        <ele>225.5</ele>
        <time>2020-06-07T16:25:00Z</time>
      </trkpt>
      <trkpt lat="48.04507" lon="-3.76043">
        <ele>225.5</ele>
        <time>2020-06-07T16:25:01Z</time>
      </trkpt>
      <trkpt lat="48.04507" lon="-3.76043">
        <ele>225.5</ele>
        <time>2020-06-07T16:25:02Z</time>
      </trkpt>
      <trkpt lat="48.04507" lon="-3.76043">
        <ele>225.5</ele>
        <time>2020-06-07T16:25:03Z</time>
      </trkpt>
      <trkpt lat="48.04507" lon="-3.76042">
        <ele>225.5</ele>
        <time>2020-06-07T16:25:04Z</time>
      </trkpt>
      <trkpt lat="48.04507" lon="-3.76042">
        <ele>225.5</ele>
        <time>2020-06-07T16:25:05Z</time>
      </trkpt>
      <trkpt lat="48.04506" lon="-3.7604">
        <ele>225.3</ele>
        <time>2020-06-07T16:25:06Z</time>
      </trkpt>
      <trkpt lat="48.04506" lon="-3.7604">
        <ele>225.3</ele>
        <time>2020-06-07T16:25:07Z</time>
      </trkpt>
      <trkpt lat="48.04505" lon="-3.76038">
        <ele>225.3</ele>
        <time>2020-06-07T16:25:08Z</time>
      </trkpt>
      <trkpt lat="48.04505" lon="-3.76036">
        <ele>225.2</ele>
        <time>2020-06-07T16:25:09Z</time>
      </trkpt>
      <trkpt lat="48.04504" lon="-3.76036">
        <ele>225.2</ele>
        <time>2020-06-07T16:25:10Z</time>
      </trkpt>
      <trkpt lat="48.04504" lon="-3.76038">
        <ele>225.3</ele>
        <time>2020-06-07T16:25:11Z</time>
      </trkpt>
      <trkpt lat="48.04504" lon="-3.76039">
        <ele>225.2</ele>
        <time>2020-06-07T16:25:12Z</time>
      </trkpt>
      <trkpt lat="48.04503" lon="-3.7604">
        <ele>225.2</ele>
        <time>2020-06-07T16:25:13Z</time>
      </trkpt>
      <trkpt lat="48.04503" lon="-3.76041">
        <ele>225.2</ele>
        <time>2020-06-07T16:25:14Z</time>
      </trkpt>
      <trkpt lat="48.04502" lon="-3.76041">
        <ele>225.2</ele>
        <time>2020-06-07T16:25:15Z</time>
      </trkpt>
      <trkpt lat="48.04501" lon="-3.76041">
        <ele>225.2</ele>
        <time>2020-06-07T16:25:16Z</time>
      </trkpt>
      <trkpt lat="48.045" lon="-3.7604">
        <ele>225.1</ele>
        <time>2020-06-07T16:25:17Z</time>
      </trkpt>
      <trkpt lat="48.04499" lon="-3.76038">
        <ele>225.1</ele>
        <time>2020-06-07T16:25:18Z</time>
      </trkpt>
      <trkpt lat="48.04499" lon="-3.76038">
        <ele>225.1</ele>
        <time>2020-06-07T16:25:19Z</time>
      </trkpt>
      <trkpt lat="48.04499" lon="-3.76037">
        <ele>225</ele>
        <time>2020-06-07T16:25:20Z</time>
      </trkpt>
      <trkpt lat="48.04498" lon="-3.76036">
        <ele>225</ele>
        <time>2020-06-07T16:25:21Z</time>
      </trkpt>
      <trkpt lat="48.04499" lon="-3.76035">
        <ele>225</ele>
        <time>2020-06-07T16:25:22Z</time>
      </trkpt>
      <trkpt lat="48.04498" lon="-3.76035">
        <ele>225</ele>
        <time>2020-06-07T16:25:23Z</time>
      </trkpt>
      <trkpt lat="48.04497" lon="-3.76034">
        <ele>224.9</ele>
        <time>2020-06-07T16:25:24Z</time>
      </trkpt>
      <trkpt lat="48.04497" lon="-3.76034">
        <ele>224.9</ele>
        <time>2020-06-07T16:25:25Z</time>
      </trkpt>
      <trkpt lat="48.04496" lon="-3.76034">
        <ele>224.9</ele>
        <time>2020-06-07T16:25:26Z</time>
      </trkpt>
      <trkpt lat="48.04495" lon="-3.76034">
        <ele>224.9</ele>
        <time>2020-06-07T16:25:27Z</time>
      </trkpt>
      <trkpt lat="48.04493" lon="-3.76033">
        <ele>224.9</ele>
        <time>2020-06-07T16:25:28Z</time>
      </trkpt>
      <trkpt lat="48.04492" lon="-3.76033">
        <ele>224.7</ele>
        <time>2020-06-07T16:25:29Z</time>
      </trkpt>
      <trkpt lat="48.04491" lon="-3.76032">
        <ele>224.7</ele>
        <time>2020-06-07T16:25:30Z</time>
      </trkpt>
      <trkpt lat="48.04491" lon="-3.76032">
        <ele>224.7</ele>
        <time>2020-06-07T16:25:31Z</time>
      </trkpt>
      <trkpt lat="48.04489" lon="-3.76031">
        <ele>224.7</ele>
        <time>2020-06-07T16:25:32Z</time>
      </trkpt>
      <trkpt lat="48.04488" lon="-3.76031">
        <ele>224.7</ele>
        <time>2020-06-07T16:25:33Z</time>
      </trkpt>
      <trkpt lat="48.04487" lon="-3.76031">
        <ele>224.6</ele>
        <time>2020-06-07T16:25:34Z</time>
      </trkpt>
      <trkpt lat="48.04486" lon="-3.76032">
        <ele>224.6</ele>
        <time>2020-06-07T16:25:35Z</time>
      </trkpt>
      <trkpt lat="48.04487" lon="-3.76032">
        <ele>224.7</ele>
        <time>2020-06-07T16:25:36Z</time>
      </trkpt>
      <trkpt lat="48.04486" lon="-3.76034">
        <ele>224.7</ele>
        <time>2020-06-07T16:25:37Z</time>
      </trkpt>
      <trkpt lat="48.04485" lon="-3.76035">
        <ele>224.7</ele>
        <time>2020-06-07T16:25:38Z</time>
      </trkpt>
      <trkpt lat="48.04485" lon="-3.76035">
        <ele>224.7</ele>
        <time>2020-06-07T16:25:39Z</time>
      </trkpt>
      <trkpt lat="48.04485" lon="-3.76036">
        <ele>224.7</ele>
        <time>2020-06-07T16:25:40Z</time>
      </trkpt>
      <trkpt lat="48.04484" lon="-3.76037">
        <ele>224.8</ele>
        <time>2020-06-07T16:25:41Z</time>
      </trkpt>
      <trkpt lat="48.04483" lon="-3.76037">
        <ele>224.8</ele>
        <time>2020-06-07T16:25:42Z</time>
      </trkpt>
      <trkpt lat="48.04483" lon="-3.76037">
        <ele>224.8</ele>
        <time>2020-06-07T16:25:43Z</time>
      </trkpt>
      <trkpt lat="48.04482" lon="-3.76037">
        <ele>224.8</ele>
        <time>2020-06-07T16:25:44Z</time>
      </trkpt>
      <trkpt lat="48.04481" lon="-3.76037">
        <ele>224.7</ele>
        <time>2020-06-07T16:25:45Z</time>
      </trkpt>
      <trkpt lat="48.04481" lon="-3.76037">
        <ele>224.7</ele>
        <time>2020-06-07T16:25:46Z</time>
      </trkpt>
      <trkpt lat="48.0448" lon="-3.76037">
        <ele>224.8</ele>
        <time>2020-06-07T16:25:47Z</time>
      </trkpt>
      <trkpt lat="48.04479" lon="-3.76039">
        <ele>224.8</ele>
        <time>2020-06-07T16:25:48Z</time>
      </trkpt>
      <trkpt lat="48.04479" lon="-3.76039">
        <ele>224.8</ele>
        <time>2020-06-07T16:25:49Z</time>
      </trkpt>
      <trkpt lat="48.04479" lon="-3.76039">
        <ele>224.8</ele>
        <time>2020-06-07T16:25:50Z</time>
      </trkpt>
      <trkpt lat="48.04479" lon="-3.76039">
        <ele>224.8</ele>
        <time>2020-06-07T16:25:51Z</time>
      </trkpt>
      <trkpt lat="48.04479" lon="-3.76039">
        <ele>224.8</ele>
        <time>2020-06-07T16:25:52Z</time>
      </trkpt>
      <trkpt lat="48.04479" lon="-3.76038">
        <ele>224.8</ele>
        <time>2020-06-07T16:25:53Z</time>
      </trkpt>
      <trkpt lat="48.04478" lon="-3.76038">
        <ele>224.7</ele>
        <time>2020-06-07T16:25:54Z</time>
      </trkpt>
      <trkpt lat="48.04477" lon="-3.76038">
        <ele>224.7</ele>
        <time>2020-06-07T16:25:55Z</time>
      </trkpt>
      <trkpt lat="48.04477" lon="-3.76039">
        <ele>224.7</ele>
        <time>2020-06-07T16:25:56Z</time>
      </trkpt>
      <trkpt lat="48.04476" lon="-3.76039">
        <ele>224.7</ele>
        <time>2020-06-07T16:25:57Z</time>
      </trkpt>
      <trkpt lat="48.04477" lon="-3.76038">
        <ele>224.7</ele>
        <time>2020-06-07T16:25:58Z</time>
      </trkpt>
      <trkpt lat="48.04477" lon="-3.76038">
        <ele>224.7</ele>
        <time>2020-06-07T16:25:59Z</time>
      </trkpt>
      <trkpt lat="48.04476" lon="-3.76039">
        <ele>224.7</ele>
        <time>2020-06-07T16:26:00Z</time>
      </trkpt>
      <trkpt lat="48.04476" lon="-3.76039">
        <ele>224.7</ele>
        <time>2020-06-07T16:26:01Z</time>
      </trkpt>
      <trkpt lat="48.04476" lon="-3.76039">
        <ele>224.7</ele>
        <time>2020-06-07T16:26:02Z</time>
      </trkpt>
      <trkpt lat="48.04475" lon="-3.7604">
        <ele>224.7</ele>
        <time>2020-06-07T16:26:03Z</time>
      </trkpt>
      <trkpt lat="48.04474" lon="-3.76039">
        <ele>224.7</ele>
        <time>2020-06-07T16:26:04Z</time>
      </trkpt>
      <trkpt lat="48.04474" lon="-3.76039">
        <ele>224.7</ele>
        <time>2020-06-07T16:26:05Z</time>
      </trkpt>
      <trkpt lat="48.04475" lon="-3.76038">
        <ele>224.7</ele>
        <time>2020-06-07T16:26:06Z</time>
      </trkpt>
      <trkpt lat="48.04475" lon="-3.76037">
        <ele>224.7</ele>
        <time>2020-06-07T16:26:07Z</time>
      </trkpt>
      <trkpt lat="48.04475" lon="-3.76037">
        <ele>224.6</ele>
        <time>2020-06-07T16:26:08Z</time>
      </trkpt>
      <trkpt lat="48.04476" lon="-3.76036">
        <ele>224.6</ele>
        <time>2020-06-07T16:26:09Z</time>
      </trkpt>
      <trkpt lat="48.04476" lon="-3.76035">
        <ele>224.6</ele>
        <time>2020-06-07T16:28:29Z</time>
      </trkpt>
      <trkpt lat="48.04476" lon="-3.76034">
        <ele>224.6</ele>
        <time>2020-06-07T16:28:30Z</time>
      </trkpt>
      <trkpt lat="48.04477" lon="-3.76034">
        <ele>224.6</ele>
        <time>2020-06-07T16:28:31Z</time>
      </trkpt>
      <trkpt lat="48.04477" lon="-3.76033">
        <ele>224.6</ele>
        <time>2020-06-07T16:28:32Z</time>
      </trkpt>
      <trkpt lat="48.04477" lon="-3.76032">
        <ele>224.5</ele>
        <time>2020-06-07T16:28:33Z</time>
      </trkpt>
      <trkpt lat="48.04478" lon="-3.76032">
        <ele>224.5</ele>
        <time>2020-06-07T16:28:34Z</time>
      </trkpt>
      <trkpt lat="48.04478" lon="-3.76031">
        <ele>224.5</ele>
        <time>2020-06-07T16:28:35Z</time>
      </trkpt>
      <trkpt lat="48.04478" lon="-3.7603">
        <ele>224.5</ele>
        <time>2020-06-07T16:28:36Z</time>
      </trkpt>
      <trkpt lat="48.04479" lon="-3.76029">
        <ele>224.5</ele>
        <time>2020-06-07T16:28:37Z</time>
      </trkpt>
      <trkpt lat="48.04479" lon="-3.76029">
        <ele>224.5</ele>
        <time>2020-06-07T16:28:38Z</time>
      </trkpt>
      <trkpt lat="48.04479" lon="-3.76028">
        <ele>224.4</ele>
        <time>2020-06-07T16:28:39Z</time>
      </trkpt>
      <trkpt lat="48.0448" lon="-3.76027">
        <ele>224.4</ele>
        <time>2020-06-07T16:28:40Z</time>
      </trkpt>
      <trkpt lat="48.0448" lon="-3.76026">
        <ele>224.4</ele>
        <time>2020-06-07T16:28:41Z</time>
      </trkpt>
      <trkpt lat="48.0448" lon="-3.76026">
        <ele>224.4</ele>
        <time>2020-06-07T16:28:42Z</time>
      </trkpt>
      <trkpt lat="48.04481" lon="-3.76025">
        <ele>224.4</ele>
        <time>2020-06-07T16:47:19Z</time>
      </trkpt>
      <trkpt lat="48.04481" lon="-3.76024">
        <ele>224.4</ele>
        <time>2020-06-07T16:47:20Z</time>
      </trkpt>
      <trkpt lat="48.04481" lon="-3.76024">
        <ele>224.3</ele>
        <time>2020-06-07T16:47:21Z</time>
      </trkpt>
      <trkpt lat="48.04481" lon="-3.76023">
        <ele>224.3</ele>
        <time>2020-06-07T16:47:22Z</time>
      </trkpt>
      <trkpt lat="48.04482" lon="-3.76022">
        <ele>224.3</ele>
        <time>2020-06-07T16:47:23Z</time>
      </trkpt>
      <trkpt lat="48.04482" lon="-3.76021">
        <ele>224.3</ele>
        <time>2020-06-07T16:47:24Z</time>
      </trkpt>
      <trkpt lat="48.04482" lon="-3.76021">
        <ele>224.3</ele>
        <time>2020-06-07T16:47:25Z</time>
      </trkpt>
      <trkpt lat="48.04483" lon="-3.7602">
        <ele>224.2</ele>
        <time>2020-06-07T16:47:26Z</time>
      </trkpt>
      <trkpt lat="48.04483" lon="-3.76019">
        <ele>224.2</ele>
        <time>2020-06-07T16:47:27Z</time>
      </trkpt>
      <trkpt lat="48.04483" lon="-3.76019">
        <ele>224.2</ele>
        <time>2020-06-07T16:47:28Z</time>
      </trkpt>
      <trkpt lat="48.04484" lon="-3.76018">
        <ele>224.2</ele>
        <time>2020-06-07T16:47:29Z</time>
      </trkpt>
      <trkpt lat="48.04484" lon="-3.76018">
        <ele>224.2</ele>
        <time>2020-06-07T16:47:30Z</time>
      </trkpt>
      <trkpt lat="48.04484" lon="-3.76017">
        <ele>224.2</ele>
        <time>2020-06-07T16:47:31Z</time>
      </trkpt>
      <trkpt lat="48.04484" lon="-3.76016">
        <ele>224.2</ele>
        <time>2020-06-07T16:47:32Z</time>
      </trkpt>
      <trkpt lat="48.04488" lon="-3.76014">
        <ele>224.2</ele>
        <time>2020-06-07T16:48:04Z</time>
      </trkpt>
      <trkpt lat="48.04488" lon="-3.76013">
        <ele>224.2</ele>
        <time>2020-06-07T16:48:05Z</time>
      </trkpt>
      <trkpt lat="48.04489" lon="-3.76013">
        <ele>224.2</ele>
        <time>2020-06-07T16:48:06Z</time>
      </trkpt>
      <trkpt lat="48.04489" lon="-3.76013">
        <ele>224.2</ele>
        <time>2020-06-07T16:48:07Z</time>
      </trkpt>
      <trkpt lat="48.04489" lon="-3.76013">
        <ele>224.2</ele>
        <time>2020-06-07T16:48:08Z</time>
      </trkpt>
      <trkpt lat="48.04489" lon="-3.76013">
        <ele>224.2</ele>
        <time>2020-06-07T16:48:09Z</time>
      </trkpt>
      <trkpt lat="48.0449" lon="-3.76013">
        <ele>224.2</ele>
        <time>2020-06-07T16:48:10Z</time>
      </trkpt>
      <trkpt lat="48.0449" lon="-3.76013">
        <ele>224.2</ele>
        <time>2020-06-07T16:48:11Z</time>
      </trkpt>
      <trkpt lat="48.04491" lon="-3.76014">
        <ele>224.2</ele>
        <time>2020-06-07T16:48:12Z</time>
      </trkpt>
      <trkpt lat="48.04491" lon="-3.76013">
        <ele>224.2</ele>
        <time>2020-06-07T16:48:13Z</time>
      </trkpt>
      <trkpt lat="48.04492" lon="-3.76014">
        <ele>224.2</ele>
        <time>2020-06-07T16:48:14Z</time>
      </trkpt>
      <trkpt lat="48.04492" lon="-3.76013">
        <ele>224.2</ele>
        <time>2020-06-07T16:48:15Z</time>
      </trkpt>
      <trkpt lat="48.04492" lon="-3.76013">
        <ele>224.3</ele>
        <time>2020-06-07T16:48:16Z</time>
      </trkpt>
      <trkpt lat="48.04493" lon="-3.76013">
        <ele>224.3</ele>
        <time>2020-06-07T16:48:17Z</time>
      </trkpt>
      <trkpt lat="48.04493" lon="-3.76013">
        <ele>224.3</ele>
        <time>2020-06-07T16:48:18Z</time>
      </trkpt>
      <trkpt lat="48.04493" lon="-3.76013">
        <ele>224.3</ele>
        <time>2020-06-07T16:48:19Z</time>
      </trkpt>
      <trkpt lat="48.04493" lon="-3.76013">
        <ele>224.3</ele>
        <time>2020-06-07T16:48:20Z</time>
      </trkpt>
      <trkpt lat="48.04493" lon="-3.76013">
        <ele>224.3</ele>
        <time>2020-06-07T16:48:21Z</time>
      </trkpt>
      <trkpt lat="48.04493" lon="-3.76013">
        <ele>224.3</ele>
        <time>2020-06-07T16:48:22Z</time>
      </trkpt>
      <trkpt lat="48.04493" lon="-3.76013">
        <ele>224.3</ele>
        <time>2020-06-07T16:48:23Z</time>
      </trkpt>
      <trkpt lat="48.04295" lon="-3.76115">
        <ele>216.2</ele>
        <time>2020-06-07T16:49:38Z</time>
      </trkpt>
      <trkpt lat="48.04308" lon="-3.76113">
        <ele>217.7</ele>
        <time>2020-06-07T16:49:39Z</time>
      </trkpt>
      <trkpt lat="48.04308" lon="-3.76113">
        <ele>217.7</ele>
        <time>2020-06-07T16:49:40Z</time>
      </trkpt>
      <trkpt lat="48.04308" lon="-3.76113">
        <ele>217.7</ele>
        <time>2020-06-07T16:49:41Z</time>
      </trkpt>
      <trkpt lat="48.04308" lon="-3.76113">
        <ele>217.7</ele>
        <time>2020-06-07T16:49:42Z</time>
      </trkpt>
      <trkpt lat="48.04308" lon="-3.76113">
        <ele>217.7</ele>
        <time>2020-06-07T16:49:43Z</time>
      </trkpt>
      <trkpt lat="48.04308" lon="-3.76113">
        <ele>217.7</ele>
        <time>2020-06-07T16:49:44Z</time>
      </trkpt>
      <trkpt lat="48.04308" lon="-3.76113">
        <ele>217.7</ele>
        <time>2020-06-07T16:49:45Z</time>
      </trkpt>
      <trkpt lat="48.04308" lon="-3.76113">
        <ele>217.7</ele>
        <time>2020-06-07T16:49:46Z</time>
      </trkpt>
      <trkpt lat="48.04308" lon="-3.76113">
        <ele>217.7</ele>
        <time>2020-06-07T16:49:47Z</time>
      </trkpt>
      <trkpt lat="48.04308" lon="-3.76113">
        <ele>217.7</ele>
        <time>2020-06-07T16:49:48Z</time>
      </trkpt>
      <trkpt lat="48.04308" lon="-3.76113">
        <ele>217.7</ele>
        <time>2020-06-07T16:49:49Z</time>
      </trkpt>
      <trkpt lat="48.04308" lon="-3.76113">
        <ele>217.7</ele>
        <time>2020-06-07T16:49:50Z</time>
      </trkpt>
      <trkpt lat="48.04349" lon="-3.75999">
        <ele>223.8</ele>
        <time>2020-06-07T16:50:28Z</time>
      </trkpt>
      <trkpt lat="48.04351" lon="-3.75995">
        <ele>223.6</ele>
        <time>2020-06-07T16:50:29Z</time>
      </trkpt>
      <trkpt lat="48.04353" lon="-3.75992">
        <ele>223.3</ele>
        <time>2020-06-07T16:50:30Z</time>
      </trkpt>
      <trkpt lat="48.04354" lon="-3.75989">
        <ele>223.1</ele>
        <time>2020-06-07T16:50:31Z</time>
      </trkpt>
      <trkpt lat="48.04354" lon="-3.75988">
        <ele>223.1</ele>
        <time>2020-06-07T16:50:32Z</time>
      </trkpt>
      <trkpt lat="48.04354" lon="-3.75988">
        <ele>223.1</ele>
        <time>2020-06-07T16:50:33Z</time>
      </trkpt>
      <trkpt lat="48.04355" lon="-3.75987">
        <ele>223</ele>
        <time>2020-06-07T16:50:34Z</time>
      </trkpt>
      <trkpt lat="48.04355" lon="-3.75987">
        <ele>223</ele>
        <time>2020-06-07T16:50:35Z</time>
      </trkpt>
      <trkpt lat="48.04355" lon="-3.75987">
        <ele>223</ele>
        <time>2020-06-07T16:50:36Z</time>
      </trkpt>
      <trkpt lat="48.04435" lon="-3.76059">
        <ele>224.4</ele>
        <time>2020-06-07T16:54:28Z</time>
      </trkpt>
      <trkpt lat="48.04435" lon="-3.76061">
        <ele>224.4</ele>
        <time>2020-06-07T16:54:29Z</time>
      </trkpt>
      <trkpt lat="48.04436" lon="-3.76058">
        <ele>224.4</ele>
        <time>2020-06-07T16:54:30Z</time>
      </trkpt>
      <trkpt lat="48.04432" lon="-3.7605">
        <ele>224.2</ele>
        <time>2020-06-07T16:54:31Z</time>
      </trkpt>
      <trkpt lat="48.0443" lon="-3.76047">
        <ele>224.2</ele>
        <time>2020-06-07T16:54:32Z</time>
      </trkpt>
      <trkpt lat="48.04429" lon="-3.76044">
        <ele>224.1</ele>
        <time>2020-06-07T16:54:33Z</time>
      </trkpt>
      <trkpt lat="48.04428" lon="-3.76041">
        <ele>224</ele>
        <time>2020-06-07T16:54:34Z</time>
      </trkpt>
      <trkpt lat="48.04426" lon="-3.76038">
        <ele>224</ele>
        <time>2020-06-07T16:54:35Z</time>
      </trkpt>
      <trkpt lat="48.04432" lon="-3.76036">
        <ele>223.9</ele>
        <time>2020-06-07T16:54:36Z</time>
      </trkpt>
      <trkpt lat="48.04435" lon="-3.76036">
        <ele>224</ele>
        <time>2020-06-07T16:54:37Z</time>
      </trkpt>
      <trkpt lat="48.04437" lon="-3.76037">
        <ele>224.1</ele>
        <time>2020-06-07T16:54:38Z</time>
      </trkpt>
      <trkpt lat="48.0444" lon="-3.76038">
        <ele>224.2</ele>
        <time>2020-06-07T16:54:39Z</time>
      </trkpt>
      <trkpt lat="48.04443" lon="-3.76042">
        <ele>224.3</ele>
        <time>2020-06-07T16:54:40Z</time>
      </trkpt>
      <trkpt lat="48.04446" lon="-3.76041">
        <ele>224.2</ele>
        <time>2020-06-07T16:54:41Z</time>
      </trkpt>
      <trkpt lat="48.04447" lon="-3.76041">
        <ele>224.3</ele>
        <time>2020-06-07T16:54:42Z</time>
      </trkpt>
      <trkpt lat="48.04447" lon="-3.76041">
        <ele>224.3</ele>
        <time>2020-06-07T16:54:43Z</time>
      </trkpt>
      <trkpt lat="48.04446" lon="-3.76041">
        <ele>224.3</ele>
        <time>2020-06-07T16:54:44Z</time>
      </trkpt>
      <trkpt lat="48.04446" lon="-3.7604">
        <ele>224.2</ele>
        <time>2020-06-07T16:54:45Z</time>
      </trkpt>
      <trkpt lat="48.04446" lon="-3.76039">
        <ele>224.2</ele>
        <time>2020-06-07T16:54:46Z</time>
      </trkpt>
      <trkpt lat="48.04446" lon="-3.7604">
        <ele>224.2</ele>
        <time>2020-06-07T16:54:47Z</time>
      </trkpt>
      <trkpt lat="48.04448" lon="-3.7604">
        <ele>224.3</ele>
        <time>2020-06-07T16:54:48Z</time>
      </trkpt>
      <trkpt lat="48.04447" lon="-3.76039">
        <ele>224.3</ele>
        <time>2020-06-07T16:54:49Z</time>
      </trkpt>
      <trkpt lat="48.04448" lon="-3.76038">
        <ele>224.3</ele>
        <time>2020-06-07T16:54:50Z</time>
      </trkpt>
      <trkpt lat="48.04448" lon="-3.76038">
        <ele>224.3</ele>
        <time>2020-06-07T16:54:51Z</time>
      </trkpt>
      <trkpt lat="48.04448" lon="-3.76037">
        <ele>224.3</ele>
        <time>2020-06-07T16:54:52Z</time>
      </trkpt>
      <trkpt lat="48.04448" lon="-3.76037">
        <ele>224.2</ele>
        <time>2020-06-07T16:54:53Z</time>
      </trkpt>
      <trkpt lat="48.04448" lon="-3.76036">
        <ele>224.2</ele>
        <time>2020-06-07T16:54:54Z</time>
      </trkpt>
      <trkpt lat="48.04448" lon="-3.76035">
        <ele>224.2</ele>
        <time>2020-06-07T16:54:55Z</time>
      </trkpt>
      <trkpt lat="48.04448" lon="-3.76035">
        <ele>224.2</ele>
        <time>2020-06-07T16:54:56Z</time>
      </trkpt>
      <trkpt lat="48.04448" lon="-3.76033">
        <ele>224.2</ele>
        <time>2020-06-07T16:54:57Z</time>
      </trkpt>
      <trkpt lat="48.04448" lon="-3.76033">
        <ele>224.1</ele>
        <time>2020-06-07T16:54:58Z</time>
      </trkpt>
      <trkpt lat="48.04448" lon="-3.76032">
        <ele>224.1</ele>
        <time>2020-06-07T16:54:59Z</time>
      </trkpt>
      <trkpt lat="48.04448" lon="-3.7603">
        <ele>224.1</ele>
        <time>2020-06-07T16:55:00Z</time>
      </trkpt>
      <trkpt lat="48.0445" lon="-3.7603">
        <ele>224.1</ele>
        <time>2020-06-07T16:55:01Z</time>
      </trkpt>
      <trkpt lat="48.04452" lon="-3.76029">
        <ele>224</ele>
        <time>2020-06-07T16:55:02Z</time>
      </trkpt>
      <trkpt lat="48.04452" lon="-3.76028">
        <ele>224</ele>
        <time>2020-06-07T16:55:03Z</time>
      </trkpt>
      <trkpt lat="48.04452" lon="-3.76027">
        <ele>224</ele>
        <time>2020-06-07T16:55:04Z</time>
      </trkpt>
      <trkpt lat="48.04453" lon="-3.76026">
        <ele>224</ele>
        <time>2020-06-07T16:55:05Z</time>
      </trkpt>
      <trkpt lat="48.04453" lon="-3.76025">
        <ele>224</ele>
        <time>2020-06-07T16:55:06Z</time>
      </trkpt>
      <trkpt lat="48.04454" lon="-3.76024">
        <ele>223.9</ele>
        <time>2020-06-07T16:55:07Z</time>
      </trkpt>
      <trkpt lat="48.04455" lon="-3.76023">
        <ele>223.9</ele>
        <time>2020-06-07T16:55:08Z</time>
      </trkpt>
      <trkpt lat="48.04455" lon="-3.76021">
        <ele>223.9</ele>
        <time>2020-06-07T16:55:09Z</time>
      </trkpt>
      <trkpt lat="48.04456" lon="-3.7602">
        <ele>223.9</ele>
        <time>2020-06-07T16:55:10Z</time>
      </trkpt>
      <trkpt lat="48.04457" lon="-3.76019">
        <ele>223.8</ele>
        <time>2020-06-07T16:55:11Z</time>
      </trkpt>
      <trkpt lat="48.04457" lon="-3.76018">
        <ele>223.8</ele>
        <time>2020-06-07T16:55:12Z</time>
      </trkpt>
      <trkpt lat="48.04458" lon="-3.76017">
        <ele>223.8</ele>
        <time>2020-06-07T16:55:13Z</time>
      </trkpt>
      <trkpt lat="48.04458" lon="-3.76016">
        <ele>223.8</ele>
        <time>2020-06-07T16:55:14Z</time>
      </trkpt>
      <trkpt lat="48.04459" lon="-3.76015">
        <ele>223.7</ele>
        <time>2020-06-07T16:55:15Z</time>
      </trkpt>
      <trkpt lat="48.0446" lon="-3.76014">
        <ele>223.7</ele>
        <time>2020-06-07T16:55:16Z</time>
      </trkpt>
      <trkpt lat="48.0446" lon="-3.76013">
        <ele>223.7</ele>
        <time>2020-06-07T17:12:57Z</time>
      </trkpt>
      <trkpt lat="48.04461" lon="-3.76012">
        <ele>223.7</ele>
        <time>2020-06-07T17:12:58Z</time>
      </trkpt>
      <trkpt lat="48.04462" lon="-3.76011">
        <ele>223.5</ele>
        <time>2020-06-07T17:12:59Z</time>
      </trkpt>
      <trkpt lat="48.04462" lon="-3.7601">
        <ele>223.5</ele>
        <time>2020-06-07T17:13:00Z</time>
      </trkpt>
      <trkpt lat="48.04463" lon="-3.76009">
        <ele>223.5</ele>
        <time>2020-06-07T17:13:01Z</time>
      </trkpt>
      <trkpt lat="48.04462" lon="-3.76006">
        <ele>223.4</ele>
        <time>2020-06-07T17:13:02Z</time>
      </trkpt>
      <trkpt lat="48.04461" lon="-3.76005">
        <ele>223.4</ele>
        <time>2020-06-07T17:13:03Z</time>
      </trkpt>
      <trkpt lat="48.0446" lon="-3.76004">
        <ele>223.3</ele>
        <time>2020-06-07T17:13:04Z</time>
      </trkpt>
      <trkpt lat="48.04459" lon="-3.76002">
        <ele>223.2</ele>
        <time>2020-06-07T17:13:05Z</time>
      </trkpt>
      <trkpt lat="48.04458" lon="-3.76">
        <ele>223.2</ele>
        <time>2020-06-07T17:13:06Z</time>
      </trkpt>
      <trkpt lat="48.04458" lon="-3.75999">
        <ele>223.2</ele>
        <time>2020-06-07T17:13:07Z</time>
      </trkpt>
      <trkpt lat="48.04458" lon="-3.75998">
        <ele>223</ele>
        <time>2020-06-07T17:13:08Z</time>
      </trkpt>
      <trkpt lat="48.04458" lon="-3.75997">
        <ele>223</ele>
        <time>2020-06-07T17:13:09Z</time>
      </trkpt>
      <trkpt lat="48.04457" lon="-3.75997">
        <ele>223</ele>
        <time>2020-06-07T17:13:10Z</time>
      </trkpt>
      <trkpt lat="48.04457" lon="-3.75996">
        <ele>223</ele>
        <time>2020-06-07T17:13:11Z</time>
      </trkpt>
      <trkpt lat="48.04457" lon="-3.75995">
        <ele>223</ele>
        <time>2020-06-07T17:13:12Z</time>
      </trkpt>
      <trkpt lat="48.04457" lon="-3.75994">
        <ele>223</ele>
        <time>2020-06-07T17:13:13Z</time>
      </trkpt>
      <trkpt lat="48.04457" lon="-3.75994">
        <ele>222.8</ele>
        <time>2020-06-07T17:13:14Z</time>
      </trkpt>
      <trkpt lat="48.04457" lon="-3.75994">
        <ele>222.8</ele>
        <time>2020-06-07T17:13:15Z</time>
      </trkpt>
      <trkpt lat="48.04457" lon="-3.75994">
        <ele>222.8</ele>
        <time>2020-06-07T17:13:16Z</time>
      </trkpt>
      <trkpt lat="48.04456" lon="-3.75993">
        <ele>222.8</ele>
        <time>2020-06-07T17:13:17Z</time>
      </trkpt>
      <trkpt lat="48.04455" lon="-3.75992">
        <ele>222.8</ele>
        <time>2020-06-07T17:13:18Z</time>
      </trkpt>
      <trkpt lat="48.04455" lon="-3.75991">
        <ele>222.8</ele>
        <time>2020-06-07T17:13:19Z</time>
      </trkpt>
      <trkpt lat="48.04455" lon="-3.75989">
        <ele>222.6</ele>
        <time>2020-06-07T17:13:20Z</time>
      </trkpt>
      <trkpt lat="48.04453" lon="-3.75987">
        <ele>222.6</ele>
        <time>2020-06-07T17:13:21Z</time>
      </trkpt>
      <trkpt lat="48.04453" lon="-3.75986">
        <ele>222.6</ele>
        <time>2020-06-07T17:13:22Z</time>
      </trkpt>
      <trkpt lat="48.04452" lon="-3.75984">
        <ele>222.4</ele>
        <time>2020-06-07T17:13:23Z</time>
      </trkpt>
      <trkpt lat="48.04452" lon="-3.75983">
        <ele>222.4</ele>
        <time>2020-06-07T17:13:24Z</time>
      </trkpt>
      <trkpt lat="48.04451" lon="-3.75982">
        <ele>222.4</ele>
        <time>2020-06-07T17:13:25Z</time>
      </trkpt>
      <trkpt lat="48.04449" lon="-3.75977">
        <ele>222.2</ele>
        <time>2020-06-07T17:13:26Z</time>
      </trkpt>
      <trkpt lat="48.04448" lon="-3.75975">
        <ele>221.9</ele>
        <time>2020-06-07T17:13:27Z</time>
      </trkpt>
      <trkpt lat="48.04447" lon="-3.75973">
        <ele>221.9</ele>
        <time>2020-06-07T17:13:28Z</time>
      </trkpt>
      <trkpt lat="48.04449" lon="-3.75976">
        <ele>221.9</ele>
        <time>2020-06-07T17:13:29Z</time>
      </trkpt>
      <trkpt lat="48.04449" lon="-3.75976">
        <ele>221.9</ele>
        <time>2020-06-07T17:13:30Z</time>
      </trkpt>
      <trkpt lat="48.04451" lon="-3.75979">
        <ele>222.2</ele>
        <time>2020-06-07T17:13:31Z</time>
      </trkpt>
      <trkpt lat="48.04451" lon="-3.75981">
        <ele>222.2</ele>
        <time>2020-06-07T17:13:32Z</time>
      </trkpt>
      <trkpt lat="48.04451" lon="-3.75982">
        <ele>222.4</ele>
        <time>2020-06-07T17:13:33Z</time>
      </trkpt>
      <trkpt lat="48.04451" lon="-3.75982">
        <ele>222.4</ele>
        <time>2020-06-07T17:13:34Z</time>
      </trkpt>
      <trkpt lat="48.04451" lon="-3.75982">
        <ele>222.4</ele>
        <time>2020-06-07T17:13:35Z</time>
      </trkpt>
      <trkpt lat="48.0445" lon="-3.75982">
        <ele>222.4</ele>
        <time>2020-06-07T17:13:36Z</time>
      </trkpt>
      <trkpt lat="48.0445" lon="-3.75982">
        <ele>222.4</ele>
        <time>2020-06-07T17:13:37Z</time>
      </trkpt>
      <trkpt lat="48.0445" lon="-3.75983">
        <ele>222.4</ele>
        <time>2020-06-07T17:13:38Z</time>
      </trkpt>
      <trkpt lat="48.04449" lon="-3.75983">
        <ele>222.4</ele>
        <time>2020-06-07T17:13:39Z</time>
      </trkpt>
      <trkpt lat="48.04449" lon="-3.75983">
        <ele>222.3</ele>
        <time>2020-06-07T17:13:40Z</time>
      </trkpt>
      <trkpt lat="48.04449" lon="-3.75983">
        <ele>222.3</ele>
        <time>2020-06-07T17:13:41Z</time>
      </trkpt>
      <trkpt lat="48.04448" lon="-3.75983">
        <ele>222.3</ele>
        <time>2020-06-07T17:13:42Z</time>
      </trkpt>
      <trkpt lat="48.04448" lon="-3.75983">
        <ele>222.3</ele>
        <time>2020-06-07T17:13:43Z</time>
      </trkpt>
      <trkpt lat="48.04448" lon="-3.75984">
        <ele>222.3</ele>
        <time>2020-06-07T17:13:44Z</time>
      </trkpt>
      <trkpt lat="48.04447" lon="-3.75984">
        <ele>222.3</ele>
        <time>2020-06-07T17:13:45Z</time>
      </trkpt>
      <trkpt lat="48.04447" lon="-3.75984">
        <ele>222.3</ele>
        <time>2020-06-07T17:13:46Z</time>
      </trkpt>
      <trkpt lat="48.04447" lon="-3.75984">
        <ele>222.3</ele>
        <time>2020-06-07T17:13:47Z</time>
      </trkpt>
      <trkpt lat="48.04447" lon="-3.75984">
        <ele>222.3</ele>
        <time>2020-06-07T17:13:48Z</time>
      </trkpt>
      <trkpt lat="48.04446" lon="-3.75984">
        <ele>222.3</ele>
        <time>2020-06-07T17:13:49Z</time>
      </trkpt>
      <trkpt lat="48.04446" lon="-3.75985">
        <ele>222.3</ele>
        <time>2020-06-07T17:13:50Z</time>
      </trkpt>
      <trkpt lat="48.04446" lon="-3.75985">
        <ele>222.3</ele>
        <time>2020-06-07T17:13:51Z</time>
      </trkpt>
      <trkpt lat="48.04445" lon="-3.75985">
        <ele>222.3</ele>
        <time>2020-06-07T17:13:52Z</time>
      </trkpt>
      <trkpt lat="48.04445" lon="-3.75985">
        <ele>222.3</ele>
        <time>2020-06-07T17:13:53Z</time>
      </trkpt>
      <trkpt lat="48.04445" lon="-3.75985">
        <ele>222.3</ele>
        <time>2020-06-07T17:13:54Z</time>
      </trkpt>
      <trkpt lat="48.04444" lon="-3.75985">
        <ele>222.3</ele>
        <time>2020-06-07T17:13:55Z</time>
      </trkpt>
      <trkpt lat="48.04444" lon="-3.75986">
        <ele>222.3</ele>
        <time>2020-06-07T17:13:56Z</time>
      </trkpt>
      <trkpt lat="48.04444" lon="-3.75986">
        <ele>222.4</ele>
        <time>2020-06-07T17:14:03Z</time>
      </trkpt>
      <trkpt lat="48.04443" lon="-3.75986">
        <ele>222.4</ele>
        <time>2020-06-07T17:14:04Z</time>
      </trkpt>
      <trkpt lat="48.04443" lon="-3.75986">
        <ele>222.4</ele>
        <time>2020-06-07T17:14:05Z</time>
      </trkpt>
      <trkpt lat="48.04443" lon="-3.75986">
        <ele>222.3</ele>
        <time>2020-06-07T17:14:06Z</time>
      </trkpt>
      <trkpt lat="48.04442" lon="-3.75987">
        <ele>222.3</ele>
        <time>2020-06-07T17:14:07Z</time>
      </trkpt>
      <trkpt lat="48.04442" lon="-3.75987">
        <ele>222.3</ele>
        <time>2020-06-07T17:14:08Z</time>
      </trkpt>
      <trkpt lat="48.04442" lon="-3.75987">
        <ele>222.3</ele>
        <time>2020-06-07T17:14:09Z</time>
      </trkpt>
      <trkpt lat="48.04441" lon="-3.75987">
        <ele>222.3</ele>
        <time>2020-06-07T17:14:10Z</time>
      </trkpt>
      <trkpt lat="48.04441" lon="-3.75987">
        <ele>222.3</ele>
        <time>2020-06-07T17:14:11Z</time>
      </trkpt>
      <trkpt lat="48.04442" lon="-3.75988">
        <ele>222.3</ele>
        <time>2020-06-07T17:14:12Z</time>
      </trkpt>
      <trkpt lat="48.04444" lon="-3.7599">
        <ele>222.4</ele>
        <time>2020-06-07T17:14:13Z</time>
      </trkpt>
      <trkpt lat="48.04446" lon="-3.75991">
        <ele>222.5</ele>
        <time>2020-06-07T17:14:14Z</time>
      </trkpt>
      <trkpt lat="48.04448" lon="-3.75993">
        <ele>222.6</ele>
        <time>2020-06-07T17:14:15Z</time>
      </trkpt>
      <trkpt lat="48.0445" lon="-3.75994">
        <ele>222.6</ele>
        <time>2020-06-07T17:14:16Z</time>
      </trkpt>
      <trkpt lat="48.04452" lon="-3.75995">
        <ele>222.8</ele>
        <time>2020-06-07T17:14:17Z</time>
      </trkpt>
      <trkpt lat="48.04454" lon="-3.75997">
        <ele>222.8</ele>
        <time>2020-06-07T17:14:18Z</time>
      </trkpt>
      <trkpt lat="48.04456" lon="-3.75998">
        <ele>222.9</ele>
        <time>2020-06-07T17:14:19Z</time>
      </trkpt>
      <trkpt lat="48.04458" lon="-3.76">
        <ele>223.1</ele>
        <time>2020-06-07T17:14:20Z</time>
      </trkpt>
      <trkpt lat="48.0446" lon="-3.76001">
        <ele>223.1</ele>
        <time>2020-06-07T17:14:21Z</time>
      </trkpt>
      <trkpt lat="48.04462" lon="-3.76003">
        <ele>223.1</ele>
        <time>2020-06-07T17:14:22Z</time>
      </trkpt>
      <trkpt lat="48.04464" lon="-3.76004">
        <ele>223.4</ele>
        <time>2020-06-07T17:21:10Z</time>
      </trkpt>
      <trkpt lat="48.04466" lon="-3.76005">
        <ele>223.4</ele>
        <time>2020-06-07T17:21:11Z</time>
      </trkpt>
      <trkpt lat="48.04468" lon="-3.76007">
        <ele>223.4</ele>
        <time>2020-06-07T17:21:12Z</time>
      </trkpt>
      <trkpt lat="48.0447" lon="-3.76008">
        <ele>223.6</ele>
        <time>2020-06-07T17:21:13Z</time>
      </trkpt>
      <trkpt lat="48.04472" lon="-3.7601">
        <ele>223.6</ele>
        <time>2020-06-07T17:21:14Z</time>
      </trkpt>
      <trkpt lat="48.04474" lon="-3.76011">
        <ele>223.7</ele>
        <time>2020-06-07T17:21:15Z</time>
      </trkpt>
      <trkpt lat="48.04476" lon="-3.76013">
        <ele>223.9</ele>
        <time>2020-06-07T17:21:16Z</time>
      </trkpt>
      <trkpt lat="48.04478" lon="-3.76014">
        <ele>223.9</ele>
        <time>2020-06-07T17:21:17Z</time>
      </trkpt>
      <trkpt lat="48.0448" lon="-3.76016">
        <ele>223.8</ele>
        <time>2020-06-07T17:21:18Z</time>
      </trkpt>
      <trkpt lat="48.04482" lon="-3.76017">
        <ele>224</ele>
        <time>2020-06-07T17:21:19Z</time>
      </trkpt>
      <trkpt lat="48.04484" lon="-3.76018">
        <ele>224</ele>
        <time>2020-06-07T17:21:20Z</time>
      </trkpt>
      <trkpt lat="48.04486" lon="-3.7602">
        <ele>224</ele>
        <time>2020-06-07T17:21:21Z</time>
      </trkpt>
      <trkpt lat="48.04488" lon="-3.76021">
        <ele>224.2</ele>
        <time>2020-06-07T17:21:22Z</time>
      </trkpt>
      <trkpt lat="48.0449" lon="-3.76023">
        <ele>224.3</ele>
        <time>2020-06-07T17:21:23Z</time>
      </trkpt>
      <trkpt lat="48.04492" lon="-3.76024">
        <ele>224.3</ele>
        <time>2020-06-07T17:21:24Z</time>
      </trkpt>
      <trkpt lat="48.04494" lon="-3.76026">
        <ele>224.4</ele>
        <time>2020-06-07T17:21:25Z</time>
      </trkpt>
      <trkpt lat="48.04491" lon="-3.76029">
        <ele>224.5</ele>
        <time>2020-06-07T17:21:26Z</time>
      </trkpt>
      <trkpt lat="48.04491" lon="-3.7603">
        <ele>224.5</ele>
        <time>2020-06-07T17:21:27Z</time>
      </trkpt>
      <trkpt lat="48.0449" lon="-3.76031">
        <ele>224.5</ele>
        <time>2020-06-07T17:21:28Z</time>
      </trkpt>
      <trkpt lat="48.0449" lon="-3.76031">
        <ele>224.5</ele>
        <time>2020-06-07T17:21:29Z</time>
      </trkpt>
      <trkpt lat="48.0449" lon="-3.76031">
        <ele>224.5</ele>
        <time>2020-06-07T17:21:30Z</time>
      </trkpt>
      <trkpt lat="48.04489" lon="-3.76032">
        <ele>224.5</ele>
        <time>2020-06-07T17:21:31Z</time>
      </trkpt>
      <trkpt lat="48.04488" lon="-3.76033">
        <ele>224.6</ele>
        <time>2020-06-07T17:21:32Z</time>
      </trkpt>
      <trkpt lat="48.04488" lon="-3.76031">
        <ele>224.5</ele>
        <time>2020-06-07T17:21:33Z</time>
      </trkpt>
      <trkpt lat="48.04488" lon="-3.76027">
        <ele>224.3</ele>
        <time>2020-06-07T17:22:43Z</time>
      </trkpt>
      <trkpt lat="48.04489" lon="-3.76024">
        <ele>224.2</ele>
        <time>2020-06-07T17:22:44Z</time>
      </trkpt>
      <trkpt lat="48.04489" lon="-3.76021">
        <ele>224.2</ele>
        <time>2020-06-07T17:22:45Z</time>
      </trkpt>
      <trkpt lat="48.0449" lon="-3.76017">
        <ele>224.1</ele>
        <time>2020-06-07T17:22:46Z</time>
      </trkpt>
      <trkpt lat="48.0449" lon="-3.76014">
        <ele>224</ele>
        <time>2020-06-07T17:22:47Z</time>
      </trkpt>
      <trkpt lat="48.04489" lon="-3.76015">
        <ele>224</ele>
        <time>2020-06-07T17:22:48Z</time>
      </trkpt>
      <trkpt lat="48.04488" lon="-3.76016">
        <ele>224.1</ele>
        <time>2020-06-07T17:22:49Z</time>
      </trkpt>
      <trkpt lat="48.04487" lon="-3.76017">
        <ele>224.1</ele>
        <time>2020-06-07T17:22:50Z</time>
      </trkpt>
      <trkpt lat="48.04486" lon="-3.76018">
        <ele>224</ele>
        <time>2020-06-07T17:22:51Z</time>
      </trkpt>
      <trkpt lat="48.04485" lon="-3.76018">
        <ele>223.9</ele>
        <time>2020-06-07T17:22:52Z</time>
      </trkpt>
      <trkpt lat="48.04483" lon="-3.76019">
        <ele>223.9</ele>
        <time>2020-06-07T17:22:53Z</time>
      </trkpt>
      <trkpt lat="48.04482" lon="-3.7602">
        <ele>224</ele>
        <time>2020-06-07T17:22:54Z</time>
      </trkpt>
      <trkpt lat="48.04481" lon="-3.76021">
        <ele>224</ele>
        <time>2020-06-07T17:22:55Z</time>
      </trkpt>
      <trkpt lat="48.0448" lon="-3.76022">
        <ele>224</ele>
        <time>2020-06-07T17:22:56Z</time>
      </trkpt>
      <trkpt lat="48.04479" lon="-3.76023">
        <ele>224</ele>
        <time>2020-06-07T17:22:57Z</time>
      </trkpt>
      <trkpt lat="48.04478" lon="-3.76024">
        <ele>223.9</ele>
        <time>2020-06-07T17:22:58Z</time>
      </trkpt>
      <trkpt lat="48.04477" lon="-3.76024">
        <ele>224.1</ele>
        <time>2020-06-07T17:24:20Z</time>
      </trkpt>
      <trkpt lat="48.04476" lon="-3.76025">
        <ele>224.1</ele>
        <time>2020-06-07T17:24:21Z</time>
      </trkpt>
      <trkpt lat="48.04475" lon="-3.76026">
        <ele>224</ele>
        <time>2020-06-07T17:24:22Z</time>
      </trkpt>
      <trkpt lat="48.04475" lon="-3.76022">
        <ele>223.9</ele>
        <time>2020-06-07T17:24:23Z</time>
      </trkpt>
      <trkpt lat="48.04475" lon="-3.76021">
        <ele>223.9</ele>
        <time>2020-06-07T17:24:24Z</time>
      </trkpt>
      <trkpt lat="48.04474" lon="-3.7602">
        <ele>223.8</ele>
        <time>2020-06-07T17:24:25Z</time>
      </trkpt>
      <trkpt lat="48.04474" lon="-3.76018">
        <ele>223.8</ele>
        <time>2020-06-07T17:24:26Z</time>
      </trkpt>
      <trkpt lat="48.04474" lon="-3.76017">
        <ele>223.8</ele>
        <time>2020-06-07T17:24:27Z</time>
      </trkpt>
      <trkpt lat="48.04473" lon="-3.76017">
        <ele>223.8</ele>
        <time>2020-06-07T17:24:28Z</time>
      </trkpt>
      <trkpt lat="48.04473" lon="-3.76017">
        <ele>223.8</ele>
        <time>2020-06-07T17:24:29Z</time>
      </trkpt>
      <trkpt lat="48.04473" lon="-3.76017">
        <ele>223.8</ele>
        <time>2020-06-07T17:24:30Z</time>
      </trkpt>
      <trkpt lat="48.04473" lon="-3.76018">
        <ele>223.8</ele>
        <time>2020-06-07T17:24:31Z</time>
      </trkpt>
      <trkpt lat="48.04473" lon="-3.76018">
        <ele>223.8</ele>
        <time>2020-06-07T17:24:32Z</time>
      </trkpt>
      <trkpt lat="48.04473" lon="-3.76018">
        <ele>223.8</ele>
        <time>2020-06-07T17:24:33Z</time>
      </trkpt>
      <trkpt lat="48.04473" lon="-3.76019">
        <ele>223.8</ele>
        <time>2020-06-07T17:24:34Z</time>
      </trkpt>
      <trkpt lat="48.04474" lon="-3.76019">
        <ele>223.8</ele>
        <time>2020-06-07T17:24:35Z</time>
      </trkpt>
      <trkpt lat="48.04473" lon="-3.7602">
        <ele>223.8</ele>
        <time>2020-06-07T17:24:36Z</time>
      </trkpt>
      <trkpt lat="48.04474" lon="-3.7602">
        <ele>223.9</ele>
        <time>2020-06-07T17:24:37Z</time>
      </trkpt>
      <trkpt lat="48.04474" lon="-3.7602">
        <ele>223.7</ele>
        <time>2020-06-07T17:24:38Z</time>
      </trkpt>
      <trkpt lat="48.04475" lon="-3.76018">
        <ele>223.7</ele>
        <time>2020-06-07T17:24:39Z</time>
      </trkpt>
      <trkpt lat="48.04475" lon="-3.76018">
        <ele>223.7</ele>
        <time>2020-06-07T17:24:40Z</time>
      </trkpt>
      <trkpt lat="48.04475" lon="-3.76018">
        <ele>223.7</ele>
        <time>2020-06-07T17:24:41Z</time>
      </trkpt>
      <trkpt lat="48.04474" lon="-3.76018">
        <ele>223.7</ele>
        <time>2020-06-07T17:24:42Z</time>
      </trkpt>
      <trkpt lat="48.04474" lon="-3.76018">
        <ele>223.7</ele>
        <time>2020-06-07T17:24:43Z</time>
      </trkpt>
      <trkpt lat="48.04475" lon="-3.76016">
        <ele>223.7</ele>
        <time>2020-06-07T17:24:44Z</time>
      </trkpt>
      <trkpt lat="48.04475" lon="-3.76016">
        <ele>223.7</ele>
        <time>2020-06-07T17:24:45Z</time>
      </trkpt>
      <trkpt lat="48.04475" lon="-3.76015">
        <ele>223.6</ele>
        <time>2020-06-07T17:24:46Z</time>
      </trkpt>
      <trkpt lat="48.04475" lon="-3.76016">
        <ele>223.6</ele>
        <time>2020-06-07T17:24:47Z</time>
      </trkpt>
      <trkpt lat="48.04475" lon="-3.76016">
        <ele>223.6</ele>
        <time>2020-06-07T17:24:48Z</time>
      </trkpt>
      <trkpt lat="48.04475" lon="-3.76016">
        <ele>223.7</ele>
        <time>2020-06-07T17:24:49Z</time>
      </trkpt>
      <trkpt lat="48.04475" lon="-3.76016">
        <ele>223.7</ele>
        <time>2020-06-07T17:24:50Z</time>
      </trkpt>
      <trkpt lat="48.04476" lon="-3.76015">
        <ele>223.6</ele>
        <time>2020-06-07T17:24:51Z</time>
      </trkpt>
      <trkpt lat="48.04476" lon="-3.76016">
        <ele>223.6</ele>
        <time>2020-06-07T17:24:52Z</time>
      </trkpt>
      <trkpt lat="48.04477" lon="-3.76016">
        <ele>223.6</ele>
        <time>2020-06-07T17:24:53Z</time>
      </trkpt>
      <trkpt lat="48.04478" lon="-3.76017">
        <ele>223.7</ele>
        <time>2020-06-07T17:24:54Z</time>
      </trkpt>
      <trkpt lat="48.04478" lon="-3.76017">
        <ele>223.7</ele>
        <time>2020-06-07T17:24:55Z</time>
      </trkpt>
      <trkpt lat="48.0448" lon="-3.76018">
        <ele>223.7</ele>
        <time>2020-06-07T17:24:56Z</time>
      </trkpt>
      <trkpt lat="48.04481" lon="-3.76018">
        <ele>223.7</ele>
        <time>2020-06-07T17:24:57Z</time>
      </trkpt>
      <trkpt lat="48.04482" lon="-3.76017">
        <ele>223.8</ele>
        <time>2020-06-07T17:24:58Z</time>
      </trkpt>
      <trkpt lat="48.04481" lon="-3.76018">
        <ele>223.8</ele>
        <time>2020-06-07T17:24:59Z</time>
      </trkpt>
      <trkpt lat="48.04482" lon="-3.76018">
        <ele>223.8</ele>
        <time>2020-06-07T17:25:00Z</time>
      </trkpt>
      <trkpt lat="48.04482" lon="-3.76018">
        <ele>223.8</ele>
        <time>2020-06-07T17:25:01Z</time>
      </trkpt>
      <trkpt lat="48.04482" lon="-3.76018">
        <ele>223.8</ele>
        <time>2020-06-07T17:25:02Z</time>
      </trkpt>
      <trkpt lat="48.04481" lon="-3.76018">
        <ele>223.8</ele>
        <time>2020-06-07T17:25:03Z</time>
      </trkpt>
      <trkpt lat="48.0448" lon="-3.76018">
        <ele>223.7</ele>
        <time>2020-06-07T17:25:04Z</time>
      </trkpt>
      <trkpt lat="48.04479" lon="-3.76019">
        <ele>223.7</ele>
        <time>2020-06-07T17:25:05Z</time>
      </trkpt>
      <trkpt lat="48.04478" lon="-3.76019">
        <ele>223.7</ele>
        <time>2020-06-07T17:25:06Z</time>
      </trkpt>
      <trkpt lat="48.04478" lon="-3.76019">
        <ele>223.7</ele>
        <time>2020-06-07T17:25:07Z</time>
      </trkpt>
      <trkpt lat="48.04478" lon="-3.76018">
        <ele>223.7</ele>
        <time>2020-06-07T17:25:08Z</time>
      </trkpt>
      <trkpt lat="48.04478" lon="-3.76018">
        <ele>223.7</ele>
        <time>2020-06-07T17:25:09Z</time>
      </trkpt>
      <trkpt lat="48.04477" lon="-3.76017">
        <ele>223.7</ele>
        <time>2020-06-07T17:25:10Z</time>
      </trkpt>
      <trkpt lat="48.04477" lon="-3.76017">
        <ele>223.7</ele>
        <time>2020-06-07T17:25:11Z</time>
      </trkpt>
      <trkpt lat="48.04477" lon="-3.76016">
        <ele>223.7</ele>
        <time>2020-06-07T17:25:12Z</time>
      </trkpt>
      <trkpt lat="48.04477" lon="-3.76015">
        <ele>223.6</ele>
        <time>2020-06-07T17:25:13Z</time>
      </trkpt>
      <trkpt lat="48.04476" lon="-3.76014">
        <ele>223.6</ele>
        <time>2020-06-07T17:25:14Z</time>
      </trkpt>
      <trkpt lat="48.04475" lon="-3.76014">
        <ele>223.6</ele>
        <time>2020-06-07T17:25:15Z</time>
      </trkpt>
      <trkpt lat="48.04474" lon="-3.76013">
        <ele>223.5</ele>
        <time>2020-06-07T17:25:16Z</time>
      </trkpt>
      <trkpt lat="48.04472" lon="-3.76013">
        <ele>223.5</ele>
        <time>2020-06-07T17:25:17Z</time>
      </trkpt>
      <trkpt lat="48.04471" lon="-3.76011">
        <ele>223.3</ele>
        <time>2020-06-07T17:25:18Z</time>
      </trkpt>
      <trkpt lat="48.0447" lon="-3.7601">
        <ele>223.3</ele>
        <time>2020-06-07T17:25:19Z</time>
      </trkpt>
      <trkpt lat="48.04468" lon="-3.76009">
        <ele>223.3</ele>
        <time>2020-06-07T17:25:20Z</time>
      </trkpt>
      <trkpt lat="48.04466" lon="-3.76008">
        <ele>223.2</ele>
        <time>2020-06-07T17:25:21Z</time>
      </trkpt>
      <trkpt lat="48.04465" lon="-3.76006">
        <ele>223.1</ele>
        <time>2020-06-07T17:25:22Z</time>
      </trkpt>
      <trkpt lat="48.04465" lon="-3.76004">
        <ele>223.1</ele>
        <time>2020-06-07T17:25:23Z</time>
      </trkpt>
      <trkpt lat="48.04463" lon="-3.76002">
        <ele>222.8</ele>
        <time>2020-06-07T17:25:24Z</time>
      </trkpt>
      <trkpt lat="48.0448" lon="-3.76029">
        <ele>224.1</ele>
        <time>2020-06-07T17:27:27Z</time>
      </trkpt>
      <trkpt lat="48.04478" lon="-3.7603">
        <ele>224.1</ele>
        <time>2020-06-07T17:27:28Z</time>
      </trkpt>
      <trkpt lat="48.04478" lon="-3.76032">
        <ele>224.1</ele>
        <time>2020-06-07T17:27:29Z</time>
      </trkpt>
      <trkpt lat="48.04478" lon="-3.76034">
        <ele>224.3</ele>
        <time>2020-06-07T17:27:30Z</time>
      </trkpt>
      <trkpt lat="48.04479" lon="-3.76036">
        <ele>224.3</ele>
        <time>2020-06-07T17:27:31Z</time>
      </trkpt>
      <trkpt lat="48.04476" lon="-3.76037">
        <ele>224.2</ele>
        <time>2020-06-07T17:27:32Z</time>
      </trkpt>
      <trkpt lat="48.04476" lon="-3.76037">
        <ele>224.2</ele>
        <time>2020-06-07T17:27:33Z</time>
      </trkpt>
      <trkpt lat="48.04475" lon="-3.76036">
        <ele>224.2</ele>
        <time>2020-06-07T17:27:34Z</time>
      </trkpt>
      <trkpt lat="48.04476" lon="-3.76036">
        <ele>224.2</ele>
        <time>2020-06-07T17:27:35Z</time>
      </trkpt>
      <trkpt lat="48.04476" lon="-3.76038">
        <ele>224.3</ele>
        <time>2020-06-07T17:27:36Z</time>
      </trkpt>
      <trkpt lat="48.04476" lon="-3.76037">
        <ele>224.3</ele>
        <time>2020-06-07T17:27:37Z</time>
      </trkpt>
      <trkpt lat="48.04476" lon="-3.76038">
        <ele>224.3</ele>
        <time>2020-06-07T17:27:38Z</time>
      </trkpt>
      <trkpt lat="48.04476" lon="-3.76037">
        <ele>224.3</ele>
        <time>2020-06-07T17:27:39Z</time>
      </trkpt>
      <trkpt lat="48.04475" lon="-3.76037">
        <ele>224.3</ele>
        <time>2020-06-07T17:27:40Z</time>
      </trkpt>
      <trkpt lat="48.04473" lon="-3.76038">
        <ele>224.3</ele>
        <time>2020-06-07T17:27:41Z</time>
      </trkpt>
      <trkpt lat="48.04473" lon="-3.76038">
        <ele>224.3</ele>
        <time>2020-06-07T17:27:42Z</time>
      </trkpt>
      <trkpt lat="48.04475" lon="-3.76037">
        <ele>224.2</ele>
        <time>2020-06-07T17:27:43Z</time>
      </trkpt>
      <trkpt lat="48.04475" lon="-3.76037">
        <ele>224.3</ele>
        <time>2020-06-07T17:27:44Z</time>
      </trkpt>
      <trkpt lat="48.04474" lon="-3.76038">
        <ele>224.3</ele>
        <time>2020-06-07T17:27:45Z</time>
      </trkpt>
      <trkpt lat="48.04474" lon="-3.76039">
        <ele>224.3</ele>
        <time>2020-06-07T17:27:46Z</time>
      </trkpt>
      <trkpt lat="48.04473" lon="-3.7604">
        <ele>224.3</ele>
        <time>2020-06-07T17:27:47Z</time>
      </trkpt>
      <trkpt lat="48.04473" lon="-3.7604">
        <ele>224.3</ele>
        <time>2020-06-07T17:27:48Z</time>
      </trkpt>
      <trkpt lat="48.04474" lon="-3.76041">
        <ele>224.3</ele>
        <time>2020-06-07T17:27:49Z</time>
      </trkpt>
      <trkpt lat="48.04472" lon="-3.76042">
        <ele>224.3</ele>
        <time>2020-06-07T17:27:50Z</time>
      </trkpt>
      <trkpt lat="48.04472" lon="-3.76042">
        <ele>224.3</ele>
        <time>2020-06-07T17:27:51Z</time>
      </trkpt>
      <trkpt lat="48.04472" lon="-3.76042">
        <ele>224.4</ele>
        <time>2020-06-07T17:27:52Z</time>
      </trkpt>
      <trkpt lat="48.04473" lon="-3.76041">
        <ele>224.3</ele>
        <time>2020-06-07T17:27:53Z</time>
      </trkpt>
      <trkpt lat="48.04474" lon="-3.76039">
        <ele>224.3</ele>
        <time>2020-06-07T17:27:54Z</time>
      </trkpt>
      <trkpt lat="48.04475" lon="-3.7604">
        <ele>224.3</ele>
        <time>2020-06-07T17:27:55Z</time>
      </trkpt>
      <trkpt lat="48.04475" lon="-3.76039">
        <ele>224.3</ele>
        <time>2020-06-07T17:27:56Z</time>
      </trkpt>
      <trkpt lat="48.04474" lon="-3.76037">
        <ele>224.3</ele>
        <time>2020-06-07T17:27:57Z</time>
      </trkpt>
      <trkpt lat="48.04476" lon="-3.76038">
        <ele>224.3</ele>
        <time>2020-06-07T17:27:58Z</time>
      </trkpt>
      <trkpt lat="48.04476" lon="-3.76038">
        <ele>224.3</ele>
        <time>2020-06-07T17:27:59Z</time>
      </trkpt>
      <trkpt lat="48.04476" lon="-3.76037">
        <ele>224.3</ele>
        <time>2020-06-07T17:28:00Z</time>
      </trkpt>
      <trkpt lat="48.04476" lon="-3.76038">
        <ele>224.3</ele>
        <time>2020-06-07T17:28:01Z</time>
      </trkpt>
      <trkpt lat="48.04477" lon="-3.76038">
        <ele>224.3</ele>
        <time>2020-06-07T17:28:02Z</time>
      </trkpt>
      <trkpt lat="48.04476" lon="-3.76039">
        <ele>224.3</ele>
        <time>2020-06-07T17:28:03Z</time>
      </trkpt>
      <trkpt lat="48.04476" lon="-3.7604">
        <ele>224.3</ele>
        <time>2020-06-07T17:28:04Z</time>
      </trkpt>
      <trkpt lat="48.04476" lon="-3.76042">
        <ele>224.4</ele>
        <time>2020-06-07T17:28:05Z</time>
      </trkpt>
      <trkpt lat="48.04476" lon="-3.76042">
        <ele>224.4</ele>
        <time>2020-06-07T17:28:06Z</time>
      </trkpt>
      <trkpt lat="48.04476" lon="-3.76042">
        <ele>224.4</ele>
        <time>2020-06-07T17:28:07Z</time>
      </trkpt>
      <trkpt lat="48.04476" lon="-3.76042">
        <ele>224.4</ele>
        <time>2020-06-07T17:28:08Z</time>
      </trkpt>
      <trkpt lat="48.04475" lon="-3.76042">
        <ele>224.4</ele>
        <time>2020-06-07T17:28:09Z</time>
      </trkpt>
      <trkpt lat="48.04475" lon="-3.76043">
        <ele>224.4</ele>
        <time>2020-06-07T17:28:10Z</time>
      </trkpt>
      <trkpt lat="48.04475" lon="-3.76043">
        <ele>224.4</ele>
        <time>2020-06-07T17:28:11Z</time>
      </trkpt>
      <trkpt lat="48.04475" lon="-3.76042">
        <ele>224.4</ele>
        <time>2020-06-07T17:28:12Z</time>
      </trkpt>
      <trkpt lat="48.04474" lon="-3.76042">
        <ele>224.4</ele>
        <time>2020-06-07T17:28:13Z</time>
      </trkpt>
      <trkpt lat="48.04473" lon="-3.76043">
        <ele>224.4</ele>
        <time>2020-06-07T17:28:14Z</time>
      </trkpt>
      <trkpt lat="48.04473" lon="-3.76043">
        <ele>224.4</ele>
        <time>2020-06-07T17:28:15Z</time>
      </trkpt>
      <trkpt lat="48.04473" lon="-3.76043">
        <ele>224.4</ele>
        <time>2020-06-07T17:28:16Z</time>
      </trkpt>
      <trkpt lat="48.0447" lon="-3.76042">
        <ele>224.3</ele>
        <time>2020-06-07T17:28:17Z</time>
      </trkpt>
      <trkpt lat="48.04468" lon="-3.76042">
        <ele>224.3</ele>
        <time>2020-06-07T17:28:18Z</time>
      </trkpt>
      <trkpt lat="48.04673" lon="-3.76009">
        <ele>234.4</ele>
        <time>2020-06-07T17:39:23Z</time>
      </trkpt>
      <trkpt lat="48.04674" lon="-3.7601">
        <ele>234.2</ele>
        <time>2020-06-07T17:39:24Z</time>
      </trkpt>
      <trkpt lat="48.04674" lon="-3.76012">
        <ele>234.6</ele>
        <time>2020-06-07T17:39:25Z</time>
      </trkpt>
      <trkpt lat="48.04674" lon="-3.76014">
        <ele>234.6</ele>
        <time>2020-06-07T17:39:26Z</time>
      </trkpt>
      <trkpt lat="48.04673" lon="-3.76013">
        <ele>234.6</ele>
        <time>2020-06-07T17:39:27Z</time>
      </trkpt>
      <trkpt lat="48.04673" lon="-3.76012">
        <ele>234.8</ele>
        <time>2020-06-07T17:39:28Z</time>
      </trkpt>
      <trkpt lat="48.04672" lon="-3.7601">
        <ele>234.4</ele>
        <time>2020-06-07T17:39:29Z</time>
      </trkpt>
      <trkpt lat="48.04672" lon="-3.76009">
        <ele>234.4</ele>
        <time>2020-06-07T17:39:30Z</time>
      </trkpt>
      <trkpt lat="48.04669" lon="-3.76007">
        <ele>234.6</ele>
        <time>2020-06-07T17:39:31Z</time>
      </trkpt>
      <trkpt lat="48.04668" lon="-3.76007">
        <ele>234.1</ele>
        <time>2020-06-07T17:39:32Z</time>
      </trkpt>
      <trkpt lat="48.04666" lon="-3.76005">
        <ele>234.2</ele>
        <time>2020-06-07T17:39:33Z</time>
      </trkpt>
      <trkpt lat="48.04665" lon="-3.76005">
        <ele>234.2</ele>
        <time>2020-06-07T17:39:34Z</time>
      </trkpt>
      <trkpt lat="48.04664" lon="-3.76004">
        <ele>234.4</ele>
        <time>2020-06-07T17:39:35Z</time>
      </trkpt>
      <trkpt lat="48.04663" lon="-3.76003">
        <ele>234.4</ele>
        <time>2020-06-07T17:39:36Z</time>
      </trkpt>
      <trkpt lat="48.04661" lon="-3.76003">
        <ele>234.5</ele>
        <time>2020-06-07T17:39:37Z</time>
      </trkpt>
      <trkpt lat="48.0466" lon="-3.76004">
        <ele>234.5</ele>
        <time>2020-06-07T17:39:38Z</time>
      </trkpt>
      <trkpt lat="48.04659" lon="-3.76004">
        <ele>234.5</ele>
        <time>2020-06-07T17:39:39Z</time>
      </trkpt>
      <trkpt lat="48.04659" lon="-3.76004">
        <ele>234.5</ele>
        <time>2020-06-07T17:39:40Z</time>
      </trkpt>
      <trkpt lat="48.04658" lon="-3.76004">
        <ele>234.7</ele>
        <time>2020-06-07T17:39:41Z</time>
      </trkpt>
      <trkpt lat="48.04657" lon="-3.76004">
        <ele>234.7</ele>
        <time>2020-06-07T17:39:42Z</time>
      </trkpt>
      <trkpt lat="48.04657" lon="-3.76005">
        <ele>234.7</ele>
        <time>2020-06-07T17:39:43Z</time>
      </trkpt>
      <trkpt lat="48.04657" lon="-3.76005">
        <ele>234.7</ele>
        <time>2020-06-07T17:39:44Z</time>
      </trkpt>
      <trkpt lat="48.04657" lon="-3.76005">
        <ele>234.7</ele>
        <time>2020-06-07T17:39:45Z</time>
      </trkpt>
      <trkpt lat="48.04657" lon="-3.76005">
        <ele>234.7</ele>
        <time>2020-06-07T17:39:46Z</time>
      </trkpt>
      <trkpt lat="48.04657" lon="-3.76005">
        <ele>234.7</ele>
        <time>2020-06-07T17:39:47Z</time>
      </trkpt>
      <trkpt lat="48.04657" lon="-3.76005">
        <ele>234.7</ele>
        <time>2020-06-07T17:39:48Z</time>
      </trkpt>
      <trkpt lat="48.04657" lon="-3.76005">
        <ele>234.7</ele>
        <time>2020-06-07T17:39:49Z</time>
      </trkpt>
      <trkpt lat="48.04657" lon="-3.76005">
        <ele>234.7</ele>
        <time>2020-06-07T17:39:50Z</time>
      </trkpt>
      <trkpt lat="48.04649" lon="-3.76012">
        <ele>235.7</ele>
        <time>2020-06-07T17:40:02Z</time>
      </trkpt>
      <trkpt lat="48.04649" lon="-3.76014">
        <ele>235.7</ele>
        <time>2020-06-07T17:40:03Z</time>
      </trkpt>
      <trkpt lat="48.04648" lon="-3.76015">
        <ele>235.7</ele>
        <time>2020-06-07T17:40:04Z</time>
      </trkpt>
      <trkpt lat="48.04648" lon="-3.76016">
        <ele>235.7</ele>
        <time>2020-06-07T17:40:05Z</time>
      </trkpt>
      <trkpt lat="48.04647" lon="-3.76017">
        <ele>236</ele>
        <time>2020-06-07T17:40:06Z</time>
      </trkpt>
      <trkpt lat="48.04647" lon="-3.76018">
        <ele>236</ele>
        <time>2020-06-07T17:40:07Z</time>
      </trkpt>
      <trkpt lat="48.04647" lon="-3.76018">
        <ele>236</ele>
        <time>2020-06-07T17:40:08Z</time>
      </trkpt>
      <trkpt lat="48.04646" lon="-3.76019">
        <ele>236</ele>
        <time>2020-06-07T17:40:09Z</time>
      </trkpt>
      <trkpt lat="48.04648" lon="-3.76023">
        <ele>236.2</ele>
        <time>2020-06-07T17:40:10Z</time>
      </trkpt>
      <trkpt lat="48.04649" lon="-3.76025">
        <ele>236.4</ele>
        <time>2020-06-07T17:40:11Z</time>
      </trkpt>
      <trkpt lat="48.04649" lon="-3.76026">
        <ele>236.4</ele>
        <time>2020-06-07T17:40:12Z</time>
      </trkpt>
      <trkpt lat="48.04649" lon="-3.76032">
        <ele>236.4</ele>
        <time>2020-06-07T17:40:13Z</time>
      </trkpt>
      <trkpt lat="48.04648" lon="-3.76033">
        <ele>236.5</ele>
        <time>2020-06-07T17:40:14Z</time>
      </trkpt>
      <trkpt lat="48.04648" lon="-3.76035">
        <ele>236.5</ele>
        <time>2020-06-07T17:40:15Z</time>
      </trkpt>
      <trkpt lat="48.04648" lon="-3.76038">
        <ele>236.4</ele>
        <time>2020-06-07T17:40:16Z</time>
      </trkpt>
      <trkpt lat="48.04649" lon="-3.76042">
        <ele>236.3</ele>
        <time>2020-06-07T17:40:17Z</time>
      </trkpt>
      <trkpt lat="48.0465" lon="-3.76043">
        <ele>236.3</ele>
        <time>2020-06-07T17:40:18Z</time>
      </trkpt>
      <trkpt lat="48.0465" lon="-3.76044">
        <ele>236.3</ele>
        <time>2020-06-07T17:40:19Z</time>
      </trkpt>
      <trkpt lat="48.0465" lon="-3.76044">
        <ele>236.3</ele>
        <time>2020-06-07T17:40:20Z</time>
      </trkpt>
      <trkpt lat="48.0465" lon="-3.76046">
        <ele>236.2</ele>
        <time>2020-06-07T17:40:21Z</time>
      </trkpt>
      <trkpt lat="48.0465" lon="-3.76046">
        <ele>236.2</ele>
        <time>2020-06-07T17:40:22Z</time>
      </trkpt>
      <trkpt lat="48.0465" lon="-3.76046">
        <ele>236.2</ele>
        <time>2020-06-07T17:40:23Z</time>
      </trkpt>
      <trkpt lat="48.0465" lon="-3.76046">
        <ele>236.2</ele>
        <time>2020-06-07T17:40:24Z</time>
      </trkpt>
      <trkpt lat="48.0465" lon="-3.76046">
        <ele>236.2</ele>
        <time>2020-06-07T17:40:25Z</time>
      </trkpt>
      <trkpt lat="48.0465" lon="-3.76046">
        <ele>236.2</ele>
        <time>2020-06-07T17:40:26Z</time>
      </trkpt>
      <trkpt lat="48.0465" lon="-3.76046">
        <ele>236.2</ele>
        <time>2020-06-07T17:40:27Z</time>
      </trkpt>
      <trkpt lat="48.0465" lon="-3.76046">
        <ele>236.2</ele>
        <time>2020-06-07T17:40:28Z</time>
      </trkpt>
      <trkpt lat="48.0465" lon="-3.76046">
        <ele>236.2</ele>
        <time>2020-06-07T17:40:29Z</time>
      </trkpt>
      <trkpt lat="48.04603" lon="-3.76285">
        <ele>235.3</ele>
        <time>2020-06-07T17:55:51Z</time>
      </trkpt>
      <trkpt lat="48.04591" lon="-3.76271">
        <ele>233.4</ele>
        <time>2020-06-07T17:55:52Z</time>
      </trkpt>
      <trkpt lat="48.0458" lon="-3.76266">
        <ele>231.3</ele>
        <time>2020-06-07T17:55:53Z</time>
      </trkpt>
      <trkpt lat="48.04576" lon="-3.76261">
        <ele>230.7</ele>
        <time>2020-06-07T17:55:54Z</time>
      </trkpt>
      <trkpt lat="48.04573" lon="-3.76256">
        <ele>229.6</ele>
        <time>2020-06-07T17:55:55Z</time>
      </trkpt>
      <trkpt lat="48.04565" lon="-3.76244">
        <ele>228.7</ele>
        <time>2020-06-07T17:55:56Z</time>
      </trkpt>
      <trkpt lat="48.04564" lon="-3.76239">
        <ele>228.3</ele>
        <time>2020-06-07T17:55:57Z</time>
      </trkpt>
      <trkpt lat="48.04563" lon="-3.76235">
        <ele>228.4</ele>
        <time>2020-06-07T17:55:58Z</time>
      </trkpt>
      <trkpt lat="48.04565" lon="-3.76229">
        <ele>229</ele>
        <time>2020-06-07T17:55:59Z</time>
      </trkpt>
      <trkpt lat="48.04568" lon="-3.76225">
        <ele>229.5</ele>
        <time>2020-06-07T17:56:00Z</time>
      </trkpt>
      <trkpt lat="48.04567" lon="-3.76222">
        <ele>229.5</ele>
        <time>2020-06-07T17:56:01Z</time>
      </trkpt>
      <trkpt lat="48.04566" lon="-3.76221">
        <ele>229.2</ele>
        <time>2020-06-07T17:56:02Z</time>
      </trkpt>
      <trkpt lat="48.04563" lon="-3.76219">
        <ele>228.9</ele>
        <time>2020-06-07T17:56:03Z</time>
      </trkpt>
      <trkpt lat="48.04561" lon="-3.76217">
        <ele>228.6</ele>
        <time>2020-06-07T17:56:04Z</time>
      </trkpt>
      <trkpt lat="48.04561" lon="-3.76216">
        <ele>228.6</ele>
        <time>2020-06-07T17:56:05Z</time>
      </trkpt>
      <trkpt lat="48.04561" lon="-3.76212">
        <ele>228.8</ele>
        <time>2020-06-07T17:56:06Z</time>
      </trkpt>
      <trkpt lat="48.0456" lon="-3.7621">
        <ele>228.8</ele>
        <time>2020-06-07T17:56:07Z</time>
      </trkpt>
      <trkpt lat="48.04561" lon="-3.76207">
        <ele>228.9</ele>
        <time>2020-06-07T17:56:08Z</time>
      </trkpt>
      <trkpt lat="48.04561" lon="-3.76205">
        <ele>229.2</ele>
        <time>2020-06-07T17:56:09Z</time>
      </trkpt>
      <trkpt lat="48.04561" lon="-3.76204">
        <ele>229</ele>
        <time>2020-06-07T17:56:10Z</time>
      </trkpt>
      <trkpt lat="48.04561" lon="-3.76204">
        <ele>229</ele>
        <time>2020-06-07T17:56:11Z</time>
      </trkpt>
      <trkpt lat="48.04561" lon="-3.76204">
        <ele>229</ele>
        <time>2020-06-07T17:56:12Z</time>
      </trkpt>
      <trkpt lat="48.04561" lon="-3.76204">
        <ele>229</ele>
        <time>2020-06-07T17:56:13Z</time>
      </trkpt>
      <trkpt lat="48.04561" lon="-3.76204">
        <ele>229</ele>
        <time>2020-06-07T17:56:14Z</time>
      </trkpt>
      <trkpt lat="48.04561" lon="-3.76203">
        <ele>229</ele>
        <time>2020-06-07T17:56:15Z</time>
      </trkpt>
      <trkpt lat="48.0456" lon="-3.76203">
        <ele>229</ele>
        <time>2020-06-07T17:56:16Z</time>
      </trkpt>
      <trkpt lat="48.0456" lon="-3.76203">
        <ele>229</ele>
        <time>2020-06-07T17:56:17Z</time>
      </trkpt>
      <trkpt lat="48.04559" lon="-3.76203">
        <ele>229</ele>
        <time>2020-06-07T17:56:18Z</time>
      </trkpt>
      <trkpt lat="48.04559" lon="-3.76203">
        <ele>229</ele>
        <time>2020-06-07T17:56:19Z</time>
      </trkpt>
      <trkpt lat="48.04479" lon="-3.76035">
        <ele>224.3</ele>
        <time>2020-06-07T18:10:13Z</time>
      </trkpt>
      <trkpt lat="48.04478" lon="-3.76036">
        <ele>224.2</ele>
        <time>2020-06-07T18:10:14Z</time>
      </trkpt>
      <trkpt lat="48.04476" lon="-3.76037">
        <ele>224.2</ele>
        <time>2020-06-07T18:10:15Z</time>
      </trkpt>
      <trkpt lat="48.04474" lon="-3.76036">
        <ele>224.2</ele>
        <time>2020-06-07T18:10:16Z</time>
      </trkpt>
      <trkpt lat="48.04472" lon="-3.76036">
        <ele>224.1</ele>
        <time>2020-06-07T18:10:17Z</time>
      </trkpt>
      <trkpt lat="48.04472" lon="-3.76037">
        <ele>224.2</ele>
        <time>2020-06-07T18:10:18Z</time>
      </trkpt>
      <trkpt lat="48.04471" lon="-3.76038">
        <ele>224.2</ele>
        <time>2020-06-07T18:10:19Z</time>
      </trkpt>
      <trkpt lat="48.04472" lon="-3.76039">
        <ele>224.2</ele>
        <time>2020-06-07T18:10:20Z</time>
      </trkpt>
      <trkpt lat="48.04472" lon="-3.76039">
        <ele>224.2</ele>
        <time>2020-06-07T18:10:21Z</time>
      </trkpt>
      <trkpt lat="48.04471" lon="-3.7604">
        <ele>224.2</ele>
        <time>2020-06-07T18:10:22Z</time>
      </trkpt>
      <trkpt lat="48.04471" lon="-3.76041">
        <ele>224.2</ele>
        <time>2020-06-07T18:10:23Z</time>
      </trkpt>
      <trkpt lat="48.04471" lon="-3.76042">
        <ele>224.3</ele>
        <time>2020-06-07T18:10:24Z</time>
      </trkpt>
      <trkpt lat="48.04471" lon="-3.76042">
        <ele>224.3</ele>
        <time>2020-06-07T18:10:25Z</time>
      </trkpt>
      <trkpt lat="48.04471" lon="-3.76041">
        <ele>224.2</ele>
        <time>2020-06-07T18:10:26Z</time>
      </trkpt>
      <trkpt lat="48.0447" lon="-3.7604">
        <ele>224.2</ele>
        <time>2020-06-07T18:10:27Z</time>
      </trkpt>
      <trkpt lat="48.0447" lon="-3.7604">
        <ele>224.2</ele>
        <time>2020-06-07T18:10:28Z</time>
      </trkpt>
      <trkpt lat="48.0447" lon="-3.7604">
        <ele>224.2</ele>
        <time>2020-06-07T18:10:29Z</time>
      </trkpt>
      <trkpt lat="48.0447" lon="-3.7604">
        <ele>224.2</ele>
        <time>2020-06-07T18:10:30Z</time>
      </trkpt>
      <trkpt lat="48.0447" lon="-3.7604">
        <ele>224.2</ele>
        <time>2020-06-07T18:10:31Z</time>
      </trkpt>
      <trkpt lat="48.0447" lon="-3.7604">
        <ele>224.2</ele>
        <time>2020-06-07T18:10:32Z</time>
      </trkpt>
      <trkpt lat="48.0447" lon="-3.7604">
        <ele>224.2</ele>
        <time>2020-06-07T18:10:33Z</time>
      </trkpt>
      <trkpt lat="48.0447" lon="-3.7604">
        <ele>224.2</ele>
        <time>2020-06-07T18:10:34Z</time>
      </trkpt>
      <trkpt lat="48.0447" lon="-3.7604">
        <ele>224.2</ele>
        <time>2020-06-07T18:10:35Z</time>
      </trkpt>
      <trkpt lat="48.0447" lon="-3.76039">
        <ele>224.2</ele>
        <time>2020-06-07T18:10:36Z</time>
      </trkpt>
      <trkpt lat="48.0447" lon="-3.7604">
        <ele>224.2</ele>
        <time>2020-06-07T18:10:37Z</time>
      </trkpt>
      <trkpt lat="48.04469" lon="-3.7604">
        <ele>224.2</ele>
        <time>2020-06-07T18:10:38Z</time>
      </trkpt>
      <trkpt lat="48.04468" lon="-3.76041">
        <ele>224.2</ele>
        <time>2020-06-07T18:10:39Z</time>
      </trkpt>
      <trkpt lat="48.04467" lon="-3.76041">
        <ele>224.2</ele>
        <time>2020-06-07T18:10:40Z</time>
      </trkpt>
      <trkpt lat="48.04465" lon="-3.76042">
        <ele>224.2</ele>
        <time>2020-06-07T18:10:41Z</time>
      </trkpt>
      <trkpt lat="48.04464" lon="-3.76042">
        <ele>224.2</ele>
        <time>2020-06-07T18:10:42Z</time>
      </trkpt>
      <trkpt lat="48.04463" lon="-3.76042">
        <ele>224.2</ele>
        <time>2020-06-07T18:10:43Z</time>
      </trkpt>
      <trkpt lat="48.04461" lon="-3.76041">
        <ele>224.1</ele>
        <time>2020-06-07T18:10:44Z</time>
      </trkpt>
      <trkpt lat="48.0446" lon="-3.76041">
        <ele>224</ele>
        <time>2020-06-07T18:10:45Z</time>
      </trkpt>
      <trkpt lat="48.04458" lon="-3.76041">
        <ele>224</ele>
        <time>2020-06-07T18:10:46Z</time>
      </trkpt>
      <trkpt lat="48.04457" lon="-3.76041">
        <ele>224</ele>
        <time>2020-06-07T18:10:47Z</time>
      </trkpt>
      <trkpt lat="48.04456" lon="-3.7604">
        <ele>224</ele>
        <time>2020-06-07T18:10:48Z</time>
      </trkpt>
      <trkpt lat="48.04455" lon="-3.76039">
        <ele>224</ele>
        <time>2020-06-07T18:10:49Z</time>
      </trkpt>
      <trkpt lat="48.04456" lon="-3.7604">
        <ele>224</ele>
        <time>2020-06-07T18:10:50Z</time>
      </trkpt>
      <trkpt lat="48.04455" lon="-3.7604">
        <ele>224</ele>
        <time>2020-06-07T18:10:51Z</time>
      </trkpt>
      <trkpt lat="48.04455" lon="-3.76041">
        <ele>224</ele>
        <time>2020-06-07T18:10:52Z</time>
      </trkpt>
      <trkpt lat="48.04454" lon="-3.76041">
        <ele>224</ele>
        <time>2020-06-07T18:10:53Z</time>
      </trkpt>
      <trkpt lat="48.04454" lon="-3.76041">
        <ele>224</ele>
        <time>2020-06-07T18:10:54Z</time>
      </trkpt>
      <trkpt lat="48.04454" lon="-3.76041">
        <ele>224</ele>
        <time>2020-06-07T18:10:55Z</time>
      </trkpt>
      <trkpt lat="48.04454" lon="-3.76041">
        <ele>224</ele>
        <time>2020-06-07T18:10:56Z</time>
      </trkpt>
      <trkpt lat="48.04454" lon="-3.76041">
        <ele>224</ele>
        <time>2020-06-07T18:10:57Z</time>
      </trkpt>
      <trkpt lat="48.04453" lon="-3.7604">
        <ele>224</ele>
        <time>2020-06-07T18:10:58Z</time>
      </trkpt>
      <trkpt lat="48.04453" lon="-3.7604">
        <ele>224</ele>
        <time>2020-06-07T18:10:59Z</time>
      </trkpt>
      <trkpt lat="48.04453" lon="-3.7604">
        <ele>224</ele>
        <time>2020-06-07T18:11:00Z</time>
      </trkpt>
      <trkpt lat="48.04454" lon="-3.76041">
        <ele>224</ele>
        <time>2020-06-07T18:11:01Z</time>
      </trkpt>
      <trkpt lat="48.04454" lon="-3.76041">
        <ele>224</ele>
        <time>2020-06-07T18:11:02Z</time>
      </trkpt>
      <trkpt lat="48.04453" lon="-3.7604">
        <ele>224</ele>
        <time>2020-06-07T18:11:03Z</time>
      </trkpt>
      <trkpt lat="48.04453" lon="-3.76041">
        <ele>224</ele>
        <time>2020-06-07T18:11:04Z</time>
      </trkpt>
      <trkpt lat="48.04453" lon="-3.76041">
        <ele>224</ele>
        <time>2020-06-07T18:11:05Z</time>
      </trkpt>
      <trkpt lat="48.04453" lon="-3.7604">
        <ele>224</ele>
        <time>2020-06-07T18:11:06Z</time>
      </trkpt>
      <trkpt lat="48.04453" lon="-3.7604">
        <ele>224</ele>
        <time>2020-06-07T18:11:07Z</time>
      </trkpt>
      <trkpt lat="48.04453" lon="-3.76041">
        <ele>224</ele>
        <time>2020-06-07T18:11:08Z</time>
      </trkpt>
      <trkpt lat="48.04453" lon="-3.76041">
        <ele>224</ele>
        <time>2020-06-07T18:11:09Z</time>
      </trkpt>
      <trkpt lat="48.04453" lon="-3.76041">
        <ele>224</ele>
        <time>2020-06-07T18:11:10Z</time>
      </trkpt>
      <trkpt lat="48.04453" lon="-3.76041">
        <ele>224</ele>
        <time>2020-06-07T18:11:11Z</time>
      </trkpt>
      <trkpt lat="48.04453" lon="-3.76041">
        <ele>224</ele>
        <time>2020-06-07T18:11:12Z</time>
      </trkpt>
      <trkpt lat="48.04453" lon="-3.76041">
        <ele>224</ele>
        <time>2020-06-07T18:11:13Z</time>
      </trkpt>
      <trkpt lat="48.04461" lon="-3.7604">
        <ele>224.1</ele>
        <time>2020-06-07T18:11:29Z</time>
      </trkpt>
      <trkpt lat="48.04462" lon="-3.76039">
        <ele>224.1</ele>
        <time>2020-06-07T18:11:30Z</time>
      </trkpt>
      <trkpt lat="48.04463" lon="-3.76038">
        <ele>224.1</ele>
        <time>2020-06-07T18:11:31Z</time>
      </trkpt>
      <trkpt lat="48.04465" lon="-3.76038">
        <ele>224.1</ele>
        <time>2020-06-07T18:11:32Z</time>
      </trkpt>
      <trkpt lat="48.04466" lon="-3.76038">
        <ele>224.1</ele>
        <time>2020-06-07T18:11:33Z</time>
      </trkpt>
      <trkpt lat="48.04466" lon="-3.76038">
        <ele>224.1</ele>
        <time>2020-06-07T18:11:34Z</time>
      </trkpt>
      <trkpt lat="48.04467" lon="-3.76038">
        <ele>224.2</ele>
        <time>2020-06-07T18:11:35Z</time>
      </trkpt>
      <trkpt lat="48.04468" lon="-3.76037">
        <ele>224.2</ele>
        <time>2020-06-07T18:11:36Z</time>
      </trkpt>
      <trkpt lat="48.04469" lon="-3.76037">
        <ele>224.2</ele>
        <time>2020-06-07T18:11:37Z</time>
      </trkpt>
      <trkpt lat="48.0447" lon="-3.76037">
        <ele>224.1</ele>
        <time>2020-06-07T18:11:38Z</time>
      </trkpt>
      <trkpt lat="48.0447" lon="-3.76037">
        <ele>224.1</ele>
        <time>2020-06-07T18:11:39Z</time>
      </trkpt>
      <trkpt lat="48.04471" lon="-3.76036">
        <ele>224.1</ele>
        <time>2020-06-07T18:11:40Z</time>
      </trkpt>
      <trkpt lat="48.04472" lon="-3.76036">
        <ele>224.1</ele>
        <time>2020-06-07T18:11:41Z</time>
      </trkpt>
      <trkpt lat="48.04472" lon="-3.76035">
        <ele>224.1</ele>
        <time>2020-06-07T18:11:42Z</time>
      </trkpt>
      <trkpt lat="48.04474" lon="-3.76034">
        <ele>224.2</ele>
        <time>2020-06-07T18:11:43Z</time>
      </trkpt>
      <trkpt lat="48.04474" lon="-3.76032">
        <ele>224.2</ele>
        <time>2020-06-07T18:11:44Z</time>
      </trkpt>
      <trkpt lat="48.04475" lon="-3.76031">
        <ele>224.2</ele>
        <time>2020-06-07T18:11:45Z</time>
      </trkpt>
      <trkpt lat="48.04476" lon="-3.7603">
        <ele>224.2</ele>
        <time>2020-06-07T18:11:46Z</time>
      </trkpt>
      <trkpt lat="48.04477" lon="-3.76029">
        <ele>224.2</ele>
        <time>2020-06-07T18:11:47Z</time>
      </trkpt>
      <trkpt lat="48.04477" lon="-3.76029">
        <ele>224.2</ele>
        <time>2020-06-07T18:11:48Z</time>
      </trkpt>
      <trkpt lat="48.04478" lon="-3.76029">
        <ele>224.2</ele>
        <time>2020-06-07T18:11:50Z</time>
      </trkpt>
      <trkpt lat="48.04481" lon="-3.76023">
        <ele>224.3</ele>
        <time>2020-06-07T18:11:51Z</time>
      </trkpt>
      <trkpt lat="48.04484" lon="-3.7602">
        <ele>224.3</ele>
        <time>2020-06-07T18:11:52Z</time>
      </trkpt>
      <trkpt lat="48.04486" lon="-3.76014">
        <ele>224.3</ele>
        <time>2020-06-07T18:11:53Z</time>
      </trkpt>
      <trkpt lat="48.04489" lon="-3.76007">
        <ele>224.4</ele>
        <time>2020-06-07T18:11:54Z</time>
      </trkpt>
      <trkpt lat="48.04491" lon="-3.76005">
        <ele>224.4</ele>
        <time>2020-06-07T18:11:55Z</time>
      </trkpt>
      <trkpt lat="48.04493" lon="-3.76002">
        <ele>224.4</ele>
        <time>2020-06-07T18:11:56Z</time>
      </trkpt>
      <trkpt lat="48.04494" lon="-3.75999">
        <ele>224.5</ele>
        <time>2020-06-07T18:11:57Z</time>
      </trkpt>
      <trkpt lat="48.04497" lon="-3.75997">
        <ele>224.5</ele>
        <time>2020-06-07T18:11:58Z</time>
      </trkpt>
      <trkpt lat="48.045" lon="-3.75993">
        <ele>224.5</ele>
        <time>2020-06-07T18:11:59Z</time>
      </trkpt>
      <trkpt lat="48.04502" lon="-3.7599">
        <ele>224.5</ele>
        <time>2020-06-07T18:12:00Z</time>
      </trkpt>
      <trkpt lat="48.04504" lon="-3.75987">
        <ele>224.4</ele>
        <time>2020-06-07T18:12:01Z</time>
      </trkpt>
      <trkpt lat="48.04507" lon="-3.75983">
        <ele>224.4</ele>
        <time>2020-06-07T18:12:02Z</time>
      </trkpt>
      <trkpt lat="48.04509" lon="-3.75981">
        <ele>224.4</ele>
        <time>2020-06-07T18:12:03Z</time>
      </trkpt>
      <trkpt lat="48.04511" lon="-3.75978">
        <ele>224.5</ele>
        <time>2020-06-07T18:12:04Z</time>
      </trkpt>
      <trkpt lat="48.04513" lon="-3.75976">
        <ele>224.5</ele>
        <time>2020-06-07T18:12:05Z</time>
      </trkpt>
      <trkpt lat="48.04515" lon="-3.75973">
        <ele>224.5</ele>
        <time>2020-06-07T18:12:06Z</time>
      </trkpt>
      <trkpt lat="48.04516" lon="-3.75968">
        <ele>224.5</ele>
        <time>2020-06-07T18:12:07Z</time>
      </trkpt>
      <trkpt lat="48.04518" lon="-3.75966">
        <ele>224.5</ele>
        <time>2020-06-07T18:12:08Z</time>
      </trkpt>
      <trkpt lat="48.04454" lon="-3.76032">
        <ele>224</ele>
        <time>2020-06-07T18:22:11Z</time>
      </trkpt>
      <trkpt lat="48.04454" lon="-3.76032">
        <ele>224</ele>
        <time>2020-06-07T18:22:12Z</time>
      </trkpt>
      <trkpt lat="48.04452" lon="-3.76032">
        <ele>224</ele>
        <time>2020-06-07T18:22:13Z</time>
      </trkpt>
      <trkpt lat="48.04453" lon="-3.76031">
        <ele>224</ele>
        <time>2020-06-07T18:22:14Z</time>
      </trkpt>
      <trkpt lat="48.04452" lon="-3.7603">
        <ele>224</ele>
        <time>2020-06-07T18:22:15Z</time>
      </trkpt>
      <trkpt lat="48.04452" lon="-3.76031">
        <ele>224</ele>
        <time>2020-06-07T18:22:16Z</time>
      </trkpt>
      <trkpt lat="48.04451" lon="-3.76032">
        <ele>224</ele>
        <time>2020-06-07T18:22:17Z</time>
      </trkpt>
      <trkpt lat="48.04451" lon="-3.76032">
        <ele>224</ele>
        <time>2020-06-07T18:22:18Z</time>
      </trkpt>
      <trkpt lat="48.0445" lon="-3.76032">
        <ele>224</ele>
        <time>2020-06-07T18:22:19Z</time>
      </trkpt>
      <trkpt lat="48.04449" lon="-3.76033">
        <ele>224</ele>
        <time>2020-06-07T18:22:20Z</time>
      </trkpt>
      <trkpt lat="48.04449" lon="-3.76033">
        <ele>224</ele>
        <time>2020-06-07T18:22:21Z</time>
      </trkpt>
      <trkpt lat="48.04448" lon="-3.76034">
        <ele>224</ele>
        <time>2020-06-07T18:22:22Z</time>
      </trkpt>
      <trkpt lat="48.04448" lon="-3.76034">
        <ele>224</ele>
        <time>2020-06-07T18:22:23Z</time>
      </trkpt>
      <trkpt lat="48.04448" lon="-3.76035">
        <ele>224</ele>
        <time>2020-06-07T18:22:24Z</time>
      </trkpt>
      <trkpt lat="48.04448" lon="-3.76036">
        <ele>224</ele>
        <time>2020-06-07T18:22:25Z</time>
      </trkpt>
      <trkpt lat="48.04448" lon="-3.76036">
        <ele>224</ele>
        <time>2020-06-07T18:22:26Z</time>
      </trkpt>
      <trkpt lat="48.04449" lon="-3.76036">
        <ele>223.9</ele>
        <time>2020-06-07T18:22:27Z</time>
      </trkpt>
      <trkpt lat="48.04449" lon="-3.76037">
        <ele>223.9</ele>
        <time>2020-06-07T18:22:28Z</time>
      </trkpt>
      <trkpt lat="48.04449" lon="-3.76037">
        <ele>223.9</ele>
        <time>2020-06-07T18:22:29Z</time>
      </trkpt>
      <trkpt lat="48.04449" lon="-3.76037">
        <ele>223.9</ele>
        <time>2020-06-07T18:22:30Z</time>
      </trkpt>
      <trkpt lat="48.04449" lon="-3.76037">
        <ele>223.9</ele>
        <time>2020-06-07T18:22:31Z</time>
      </trkpt>
      <trkpt lat="48.04449" lon="-3.76037">
        <ele>223.9</ele>
        <time>2020-06-07T18:22:32Z</time>
      </trkpt>
      <trkpt lat="48.04449" lon="-3.76037">
        <ele>223.9</ele>
        <time>2020-06-07T18:22:33Z</time>
      </trkpt>
      <trkpt lat="48.04465" lon="-3.76022">
        <ele>223.8</ele>
        <time>2020-06-07T18:34:04Z</time>
      </trkpt>
      <trkpt lat="48.04466" lon="-3.76023">
        <ele>223.8</ele>
        <time>2020-06-07T18:34:05Z</time>
      </trkpt>
      <trkpt lat="48.04466" lon="-3.76022">
        <ele>223.8</ele>
        <time>2020-06-07T18:34:06Z</time>
      </trkpt>
      <trkpt lat="48.04467" lon="-3.76022">
        <ele>223.7</ele>
        <time>2020-06-07T18:34:07Z</time>
      </trkpt>
      <trkpt lat="48.04468" lon="-3.76021">
        <ele>223.7</ele>
        <time>2020-06-07T18:34:08Z</time>
      </trkpt>
      <trkpt lat="48.04468" lon="-3.76021">
        <ele>223.7</ele>
        <time>2020-06-07T18:34:09Z</time>
      </trkpt>
      <trkpt lat="48.04468" lon="-3.7602">
        <ele>223.7</ele>
        <time>2020-06-07T18:34:10Z</time>
      </trkpt>
      <trkpt lat="48.04468" lon="-3.76019">
        <ele>223.7</ele>
        <time>2020-06-07T18:34:11Z</time>
      </trkpt>
      <trkpt lat="48.04468" lon="-3.76018">
        <ele>223.7</ele>
        <time>2020-06-07T18:34:12Z</time>
      </trkpt>
      <trkpt lat="48.04468" lon="-3.76017">
        <ele>223.7</ele>
        <time>2020-06-07T18:34:13Z</time>
      </trkpt>
      <trkpt lat="48.04467" lon="-3.76016">
        <ele>223.7</ele>
        <time>2020-06-07T18:34:14Z</time>
      </trkpt>
      <trkpt lat="48.04467" lon="-3.76015">
        <ele>223.7</ele>
        <time>2020-06-07T18:34:15Z</time>
      </trkpt>
      <trkpt lat="48.04468" lon="-3.7601">
        <ele>223.7</ele>
        <time>2020-06-07T18:34:16Z</time>
      </trkpt>
      <trkpt lat="48.04468" lon="-3.76008">
        <ele>223.6</ele>
        <time>2020-06-07T18:34:17Z</time>
      </trkpt>
      <trkpt lat="48.04467" lon="-3.76006">
        <ele>223.6</ele>
        <time>2020-06-07T18:34:18Z</time>
      </trkpt>
      <trkpt lat="48.04467" lon="-3.76005">
        <ele>223.6</ele>
        <time>2020-06-07T18:34:19Z</time>
      </trkpt>
      <trkpt lat="48.04467" lon="-3.76004">
        <ele>223.6</ele>
        <time>2020-06-07T18:34:20Z</time>
      </trkpt>
      <trkpt lat="48.04467" lon="-3.76004">
        <ele>223.6</ele>
        <time>2020-06-07T18:34:21Z</time>
      </trkpt>
      <trkpt lat="48.04467" lon="-3.76003">
        <ele>223.6</ele>
        <time>2020-06-07T18:34:22Z</time>
      </trkpt>
      <trkpt lat="48.04467" lon="-3.76003">
        <ele>223.6</ele>
        <time>2020-06-07T18:34:23Z</time>
      </trkpt>
      <trkpt lat="48.04467" lon="-3.76002">
        <ele>223.6</ele>
        <time>2020-06-07T18:34:24Z</time>
      </trkpt>
      <trkpt lat="48.04467" lon="-3.76">
        <ele>223.6</ele>
        <time>2020-06-07T18:34:25Z</time>
      </trkpt>
      <trkpt lat="48.04467" lon="-3.75999">
        <ele>223.6</ele>
        <time>2020-06-07T18:34:26Z</time>
      </trkpt>
      <trkpt lat="48.04467" lon="-3.75998">
        <ele>223.5</ele>
        <time>2020-06-07T18:34:27Z</time>
      </trkpt>
      <trkpt lat="48.04467" lon="-3.75996">
        <ele>223.5</ele>
        <time>2020-06-07T18:34:28Z</time>
      </trkpt>
      <trkpt lat="48.04467" lon="-3.75996">
        <ele>223.5</ele>
        <time>2020-06-07T18:34:29Z</time>
      </trkpt>
      <trkpt lat="48.04467" lon="-3.75995">
        <ele>223.5</ele>
        <time>2020-06-07T18:34:30Z</time>
      </trkpt>
      <trkpt lat="48.04467" lon="-3.75995">
        <ele>223.5</ele>
        <time>2020-06-07T18:34:31Z</time>
      </trkpt>
      <trkpt lat="48.04467" lon="-3.75994">
        <ele>223.5</ele>
        <time>2020-06-07T18:34:32Z</time>
      </trkpt>
      <trkpt lat="48.04467" lon="-3.75993">
        <ele>223.5</ele>
        <time>2020-06-07T18:34:33Z</time>
      </trkpt>
      <trkpt lat="48.04467" lon="-3.75992">
        <ele>223.5</ele>
        <time>2020-06-07T18:34:34Z</time>
      </trkpt>
      <trkpt lat="48.04467" lon="-3.75992">
        <ele>223.5</ele>
        <time>2020-06-07T18:34:35Z</time>
      </trkpt>
      <trkpt lat="48.04467" lon="-3.75992">
        <ele>223.5</ele>
        <time>2020-06-07T18:34:36Z</time>
      </trkpt>
      <trkpt lat="48.04466" lon="-3.75992">
        <ele>223.5</ele>
        <time>2020-06-07T18:34:37Z</time>
      </trkpt>
      <trkpt lat="48.04466" lon="-3.75991">
        <ele>223.5</ele>
        <time>2020-06-07T18:34:38Z</time>
      </trkpt>
      <trkpt lat="48.04466" lon="-3.75991">
        <ele>223.5</ele>
        <time>2020-06-07T18:34:39Z</time>
      </trkpt>
      <trkpt lat="48.04466" lon="-3.7599">
        <ele>223.4</ele>
        <time>2020-06-07T18:34:40Z</time>
      </trkpt>
      <trkpt lat="48.04466" lon="-3.75991">
        <ele>223.4</ele>
        <time>2020-06-07T18:34:41Z</time>
      </trkpt>
      <trkpt lat="48.04466" lon="-3.75991">
        <ele>223.4</ele>
        <time>2020-06-07T18:34:42Z</time>
      </trkpt>
      <trkpt lat="48.04466" lon="-3.75991">
        <ele>223.4</ele>
        <time>2020-06-07T18:34:43Z</time>
      </trkpt>
      <trkpt lat="48.04466" lon="-3.7599">
        <ele>223.4</ele>
        <time>2020-06-07T18:34:44Z</time>
      </trkpt>
      <trkpt lat="48.04466" lon="-3.75991">
        <ele>223.4</ele>
        <time>2020-06-07T18:34:45Z</time>
      </trkpt>
      <trkpt lat="48.04466" lon="-3.75989">
        <ele>223.4</ele>
        <time>2020-06-07T18:34:46Z</time>
      </trkpt>
      <trkpt lat="48.04466" lon="-3.75987">
        <ele>223.4</ele>
        <time>2020-06-07T18:34:47Z</time>
      </trkpt>
      <trkpt lat="48.04466" lon="-3.75985">
        <ele>223.4</ele>
        <time>2020-06-07T18:34:48Z</time>
      </trkpt>
      <trkpt lat="48.04466" lon="-3.75984">
        <ele>223.4</ele>
        <time>2020-06-07T18:34:49Z</time>
      </trkpt>
      <trkpt lat="48.04466" lon="-3.75983">
        <ele>223.3</ele>
        <time>2020-06-07T18:34:50Z</time>
      </trkpt>
      <trkpt lat="48.04466" lon="-3.75979">
        <ele>223.3</ele>
        <time>2020-06-07T18:34:51Z</time>
      </trkpt>
      <trkpt lat="48.04466" lon="-3.75977">
        <ele>223.3</ele>
        <time>2020-06-07T18:34:52Z</time>
      </trkpt>
      <trkpt lat="48.04466" lon="-3.75973">
        <ele>223.2</ele>
        <time>2020-06-07T18:34:53Z</time>
      </trkpt>
      <trkpt lat="48.04467" lon="-3.7597">
        <ele>223.2</ele>
        <time>2020-06-07T18:34:54Z</time>
      </trkpt>
      <trkpt lat="48.04467" lon="-3.75967">
        <ele>223.2</ele>
        <time>2020-06-07T18:34:55Z</time>
      </trkpt>
      <trkpt lat="48.04468" lon="-3.75964">
        <ele>223.2</ele>
        <time>2020-06-07T18:34:56Z</time>
      </trkpt>
      <trkpt lat="48.04424" lon="-3.75725">
        <ele>220.8</ele>
        <time>2020-06-07T18:48:15Z</time>
      </trkpt>
      <trkpt lat="48.04423" lon="-3.75735">
        <ele>220.8</ele>
        <time>2020-06-07T18:48:16Z</time>
      </trkpt>
      <trkpt lat="48.04422" lon="-3.75744">
        <ele>220.9</ele>
        <time>2020-06-07T18:48:17Z</time>
      </trkpt>
      <trkpt lat="48.04431" lon="-3.75777">
        <ele>221</ele>
        <time>2020-06-07T18:48:18Z</time>
      </trkpt>
      <trkpt lat="48.04442" lon="-3.75807">
        <ele>221.1</ele>
        <time>2020-06-07T18:48:19Z</time>
      </trkpt>
      <trkpt lat="48.04453" lon="-3.75837">
        <ele>221.3</ele>
        <time>2020-06-07T18:48:20Z</time>
      </trkpt>
      <trkpt lat="48.04451" lon="-3.75848">
        <ele>221.4</ele>
        <time>2020-06-07T18:48:21Z</time>
      </trkpt>
      <trkpt lat="48.04449" lon="-3.75853">
        <ele>221.4</ele>
        <time>2020-06-07T18:48:22Z</time>
      </trkpt>
      <trkpt lat="48.04446" lon="-3.75858">
        <ele>221.5</ele>
        <time>2020-06-07T18:48:23Z</time>
      </trkpt>
      <trkpt lat="48.04445" lon="-3.75861">
        <ele>221.5</ele>
        <time>2020-06-07T18:48:24Z</time>
      </trkpt>
      <trkpt lat="48.04442" lon="-3.75866">
        <ele>221.6</ele>
        <time>2020-06-07T18:48:25Z</time>
      </trkpt>
      <trkpt lat="48.04441" lon="-3.75867">
        <ele>221.6</ele>
        <time>2020-06-07T18:48:26Z</time>
      </trkpt>
      <trkpt lat="48.04438" lon="-3.75871">
        <ele>221.7</ele>
        <time>2020-06-07T18:48:27Z</time>
      </trkpt>
      <trkpt lat="48.04435" lon="-3.75878">
        <ele>221.8</ele>
        <time>2020-06-07T18:48:28Z</time>
      </trkpt>
      <trkpt lat="48.04435" lon="-3.75885">
        <ele>221.8</ele>
        <time>2020-06-07T18:48:29Z</time>
      </trkpt>
      <trkpt lat="48.04436" lon="-3.7589">
        <ele>221.9</ele>
        <time>2020-06-07T18:48:30Z</time>
      </trkpt>
      <trkpt lat="48.04437" lon="-3.75894">
        <ele>221.9</ele>
        <time>2020-06-07T18:48:31Z</time>
      </trkpt>
      <trkpt lat="48.04439" lon="-3.75905">
        <ele>222</ele>
        <time>2020-06-07T18:48:32Z</time>
      </trkpt>
      <trkpt lat="48.04442" lon="-3.75921">
        <ele>222.2</ele>
        <time>2020-06-07T18:48:33Z</time>
      </trkpt>
      <trkpt lat="48.04443" lon="-3.75926">
        <ele>222.3</ele>
        <time>2020-06-07T18:48:34Z</time>
      </trkpt>
      <trkpt lat="48.04443" lon="-3.75927">
        <ele>222.3</ele>
        <time>2020-06-07T18:48:35Z</time>
      </trkpt>
      <trkpt lat="48.04446" lon="-3.75935">
        <ele>222.4</ele>
        <time>2020-06-07T18:48:36Z</time>
      </trkpt>
      <trkpt lat="48.04448" lon="-3.7594">
        <ele>222.5</ele>
        <time>2020-06-07T18:48:37Z</time>
      </trkpt>
      <trkpt lat="48.04448" lon="-3.75941">
        <ele>222.5</ele>
        <time>2020-06-07T18:48:38Z</time>
      </trkpt>
      <trkpt lat="48.04464" lon="-3.75996">
        <ele>223.8</ele>
        <time>2020-06-07T18:48:51Z</time>
      </trkpt>
      <trkpt lat="48.04465" lon="-3.76">
        <ele>223.8</ele>
        <time>2020-06-07T18:48:52Z</time>
      </trkpt>
      <trkpt lat="48.04465" lon="-3.76002">
        <ele>223.8</ele>
        <time>2020-06-07T18:48:53Z</time>
      </trkpt>
      <trkpt lat="48.04466" lon="-3.76003">
        <ele>223.9</ele>
        <time>2020-06-07T18:48:54Z</time>
      </trkpt>
      <trkpt lat="48.04466" lon="-3.76005">
        <ele>223.9</ele>
        <time>2020-06-07T18:48:55Z</time>
      </trkpt>
      <trkpt lat="48.04467" lon="-3.76007">
        <ele>223.9</ele>
        <time>2020-06-07T18:48:56Z</time>
      </trkpt>
      <trkpt lat="48.04468" lon="-3.76009">
        <ele>224</ele>
        <time>2020-06-07T18:48:57Z</time>
      </trkpt>
      <trkpt lat="48.04468" lon="-3.76012">
        <ele>224</ele>
        <time>2020-06-07T18:48:58Z</time>
      </trkpt>
      <trkpt lat="48.04469" lon="-3.76013">
        <ele>224</ele>
        <time>2020-06-07T18:48:59Z</time>
      </trkpt>
      <trkpt lat="48.04469" lon="-3.76014">
        <ele>224</ele>
        <time>2020-06-07T18:49:00Z</time>
      </trkpt>
      <trkpt lat="48.04469" lon="-3.76016">
        <ele>224</ele>
        <time>2020-06-07T18:49:01Z</time>
      </trkpt>
      <trkpt lat="48.0447" lon="-3.76019">
        <ele>224.1</ele>
        <time>2020-06-07T18:49:02Z</time>
      </trkpt>
      <trkpt lat="48.0447" lon="-3.76023">
        <ele>224.1</ele>
        <time>2020-06-07T18:49:03Z</time>
      </trkpt>
      <trkpt lat="48.0447" lon="-3.76024">
        <ele>224.2</ele>
        <time>2020-06-07T18:49:04Z</time>
      </trkpt>
      <trkpt lat="48.04471" lon="-3.76029">
        <ele>224.2</ele>
        <time>2020-06-07T18:49:05Z</time>
      </trkpt>
      <trkpt lat="48.04471" lon="-3.76031">
        <ele>224.3</ele>
        <time>2020-06-07T18:49:06Z</time>
      </trkpt>
      <trkpt lat="48.04471" lon="-3.76035">
        <ele>224.3</ele>
        <time>2020-06-07T18:49:07Z</time>
      </trkpt>
      <trkpt lat="48.04471" lon="-3.76036">
        <ele>224.3</ele>
        <time>2020-06-07T18:49:08Z</time>
      </trkpt>
      <trkpt lat="48.04472" lon="-3.7604">
        <ele>224.4</ele>
        <time>2020-06-07T18:49:09Z</time>
      </trkpt>
      <trkpt lat="48.04472" lon="-3.76041">
        <ele>224.4</ele>
        <time>2020-06-07T18:49:10Z</time>
      </trkpt>
      <trkpt lat="48.04472" lon="-3.76042">
        <ele>224.4</ele>
        <time>2020-06-07T18:49:11Z</time>
      </trkpt>
      <trkpt lat="48.04472" lon="-3.76044">
        <ele>224.5</ele>
        <time>2020-06-07T18:49:12Z</time>
      </trkpt>
      <trkpt lat="48.04472" lon="-3.76045">
        <ele>224.5</ele>
        <time>2020-06-07T18:49:13Z</time>
      </trkpt>
      <trkpt lat="48.04471" lon="-3.76047">
        <ele>224.5</ele>
        <time>2020-06-07T18:49:14Z</time>
      </trkpt>
      <trkpt lat="48.04471" lon="-3.76049">
        <ele>224.5</ele>
        <time>2020-06-07T18:49:15Z</time>
      </trkpt>
      <trkpt lat="48.04471" lon="-3.7605">
        <ele>224.6</ele>
        <time>2020-06-07T18:49:16Z</time>
      </trkpt>
      <trkpt lat="48.04471" lon="-3.76051">
        <ele>224.6</ele>
        <time>2020-06-07T18:49:17Z</time>
      </trkpt>
      <trkpt lat="48.04471" lon="-3.76051">
        <ele>224.6</ele>
        <time>2020-06-07T18:49:18Z</time>
      </trkpt>
      <trkpt lat="48.04471" lon="-3.76052">
        <ele>224.6</ele>
        <time>2020-06-07T18:49:19Z</time>
      </trkpt>
      <trkpt lat="48.04471" lon="-3.76052">
        <ele>224.6</ele>
        <time>2020-06-07T18:49:20Z</time>
      </trkpt>
      <trkpt lat="48.04472" lon="-3.76053">
        <ele>224.6</ele>
        <time>2020-06-07T18:49:21Z</time>
      </trkpt>
      <trkpt lat="48.04471" lon="-3.76052">
        <ele>224.6</ele>
        <time>2020-06-07T18:49:22Z</time>
      </trkpt>
      <trkpt lat="48.0447" lon="-3.76052">
        <ele>224.6</ele>
        <time>2020-06-07T18:49:23Z</time>
      </trkpt>
      <trkpt lat="48.0447" lon="-3.76052">
        <ele>224.6</ele>
        <time>2020-06-07T18:49:24Z</time>
      </trkpt>
      <trkpt lat="48.04469" lon="-3.76052">
        <ele>224.5</ele>
        <time>2020-06-07T18:49:25Z</time>
      </trkpt>
      <trkpt lat="48.04468" lon="-3.76053">
        <ele>224.5</ele>
        <time>2020-06-07T18:49:26Z</time>
      </trkpt>
      <trkpt lat="48.04468" lon="-3.76053">
        <ele>224.5</ele>
        <time>2020-06-07T18:49:27Z</time>
      </trkpt>
      <trkpt lat="48.04467" lon="-3.76054">
        <ele>224.5</ele>
        <time>2020-06-07T18:49:28Z</time>
      </trkpt>
      <trkpt lat="48.04466" lon="-3.76054">
        <ele>224.5</ele>
        <time>2020-06-07T18:49:29Z</time>
      </trkpt>
      <trkpt lat="48.04464" lon="-3.76054">
        <ele>224.5</ele>
        <time>2020-06-07T18:49:30Z</time>
      </trkpt>
      <trkpt lat="48.04463" lon="-3.76054">
        <ele>224.5</ele>
        <time>2020-06-07T18:49:31Z</time>
      </trkpt>
      <trkpt lat="48.04463" lon="-3.76054">
        <ele>224.5</ele>
        <time>2020-06-07T18:49:32Z</time>
      </trkpt>
      <trkpt lat="48.04462" lon="-3.76055">
        <ele>224.5</ele>
        <time>2020-06-07T18:49:33Z</time>
      </trkpt>
      <trkpt lat="48.04461" lon="-3.76055">
        <ele>224.5</ele>
        <time>2020-06-07T18:49:34Z</time>
      </trkpt>
      <trkpt lat="48.04461" lon="-3.76055">
        <ele>224.4</ele>
        <time>2020-06-07T18:49:35Z</time>
      </trkpt>
      <trkpt lat="48.04459" lon="-3.76054">
        <ele>224.4</ele>
        <time>2020-06-07T18:49:36Z</time>
      </trkpt>
      <trkpt lat="48.04459" lon="-3.76053">
        <ele>224.4</ele>
        <time>2020-06-07T18:49:37Z</time>
      </trkpt>
      <trkpt lat="48.0446" lon="-3.76053">
        <ele>224.4</ele>
        <time>2020-06-07T18:49:38Z</time>
      </trkpt>
      <trkpt lat="48.0446" lon="-3.76053">
        <ele>224.4</ele>
        <time>2020-06-07T18:49:39Z</time>
      </trkpt>
      <trkpt lat="48.0446" lon="-3.76053">
        <ele>224.4</ele>
        <time>2020-06-07T18:49:40Z</time>
      </trkpt>
      <trkpt lat="48.0446" lon="-3.76053">
        <ele>224.4</ele>
        <time>2020-06-07T18:49:41Z</time>
      </trkpt>
      <trkpt lat="48.0446" lon="-3.76053">
        <ele>224.4</ele>
        <time>2020-06-07T18:49:42Z</time>
      </trkpt>
      <trkpt lat="48.0446" lon="-3.76052">
        <ele>224.4</ele>
        <time>2020-06-07T18:49:43Z</time>
      </trkpt>
      <trkpt lat="48.0446" lon="-3.76052">
        <ele>224.4</ele>
        <time>2020-06-07T18:49:44Z</time>
      </trkpt>
      <trkpt lat="48.0446" lon="-3.76052">
        <ele>224.4</ele>
        <time>2020-06-07T18:49:45Z</time>
      </trkpt>
      <trkpt lat="48.04459" lon="-3.76053">
        <ele>224.4</ele>
        <time>2020-06-07T18:49:46Z</time>
      </trkpt>
      <trkpt lat="48.0446" lon="-3.76052">
        <ele>224.4</ele>
        <time>2020-06-07T18:49:47Z</time>
      </trkpt>
      <trkpt lat="48.04459" lon="-3.76053">
        <ele>224.4</ele>
        <time>2020-06-07T18:49:48Z</time>
      </trkpt>
      <trkpt lat="48.04469" lon="-3.76047">
        <ele>224.5</ele>
        <time>2020-06-07T18:50:08Z</time>
      </trkpt>
      <trkpt lat="48.04469" lon="-3.76047">
        <ele>224.5</ele>
        <time>2020-06-07T18:50:09Z</time>
      </trkpt>
      <trkpt lat="48.04469" lon="-3.76047">
        <ele>224.5</ele>
        <time>2020-06-07T18:50:10Z</time>
      </trkpt>
      <trkpt lat="48.04469" lon="-3.76047">
        <ele>224.5</ele>
        <time>2020-06-07T18:50:11Z</time>
      </trkpt>
      <trkpt lat="48.04469" lon="-3.76046">
        <ele>224.5</ele>
        <time>2020-06-07T18:50:12Z</time>
      </trkpt>
      <trkpt lat="48.04469" lon="-3.76046">
        <ele>224.5</ele>
        <time>2020-06-07T18:50:13Z</time>
      </trkpt>
      <trkpt lat="48.0447" lon="-3.76045">
        <ele>224.4</ele>
        <time>2020-06-07T18:50:14Z</time>
      </trkpt>
      <trkpt lat="48.0447" lon="-3.76045">
        <ele>224.4</ele>
        <time>2020-06-07T18:50:15Z</time>
      </trkpt>
      <trkpt lat="48.0447" lon="-3.76045">
        <ele>224.4</ele>
        <time>2020-06-07T18:50:16Z</time>
      </trkpt>
      <trkpt lat="48.0447" lon="-3.76045">
        <ele>224.4</ele>
        <time>2020-06-07T18:50:17Z</time>
      </trkpt>
      <trkpt lat="48.0447" lon="-3.76045">
        <ele>224.4</ele>
        <time>2020-06-07T18:50:18Z</time>
      </trkpt>
      <trkpt lat="48.04471" lon="-3.76045">
        <ele>224.4</ele>
        <time>2020-06-07T18:50:19Z</time>
      </trkpt>
      <trkpt lat="48.04471" lon="-3.76045">
        <ele>224.4</ele>
        <time>2020-06-07T18:50:20Z</time>
      </trkpt>
      <trkpt lat="48.04471" lon="-3.76045">
        <ele>224.4</ele>
        <time>2020-06-07T18:50:21Z</time>
      </trkpt>
      <trkpt lat="48.04471" lon="-3.76045">
        <ele>224.4</ele>
        <time>2020-06-07T18:50:22Z</time>
      </trkpt>
      <trkpt lat="48.04471" lon="-3.76045">
        <ele>224.4</ele>
        <time>2020-06-07T18:50:23Z</time>
      </trkpt>
      <trkpt lat="48.04472" lon="-3.76044">
        <ele>224.4</ele>
        <time>2020-06-07T18:50:24Z</time>
      </trkpt>
      <trkpt lat="48.04472" lon="-3.76043">
        <ele>224.4</ele>
        <time>2020-06-07T18:50:25Z</time>
      </trkpt>
      <trkpt lat="48.04472" lon="-3.76042">
        <ele>224.4</ele>
        <time>2020-06-07T18:50:26Z</time>
      </trkpt>
      <trkpt lat="48.04473" lon="-3.76041">
        <ele>224.4</ele>
        <time>2020-06-07T18:50:27Z</time>
      </trkpt>
      <trkpt lat="48.04473" lon="-3.7604">
        <ele>224.4</ele>
        <time>2020-06-07T18:50:28Z</time>
      </trkpt>
      <trkpt lat="48.04474" lon="-3.76039">
        <ele>224.4</ele>
        <time>2020-06-07T18:50:29Z</time>
      </trkpt>
      <trkpt lat="48.04474" lon="-3.76038">
        <ele>224.4</ele>
        <time>2020-06-07T18:50:30Z</time>
      </trkpt>
      <trkpt lat="48.04475" lon="-3.76037">
        <ele>224.3</ele>
        <time>2020-06-07T18:50:31Z</time>
      </trkpt>
      <trkpt lat="48.04478" lon="-3.76035">
        <ele>224.4</ele>
        <time>2020-06-07T18:50:32Z</time>
      </trkpt>
      <trkpt lat="48.04479" lon="-3.76034">
        <ele>224.4</ele>
        <time>2020-06-07T18:50:33Z</time>
      </trkpt>
      <trkpt lat="48.04481" lon="-3.76033">
        <ele>224.4</ele>
        <time>2020-06-07T18:50:34Z</time>
      </trkpt>
      <trkpt lat="48.04481" lon="-3.76032">
        <ele>224.3</ele>
        <time>2020-06-07T18:50:35Z</time>
      </trkpt>
      <trkpt lat="48.04481" lon="-3.76032">
        <ele>224.3</ele>
        <time>2020-06-07T18:50:36Z</time>
      </trkpt>
      <trkpt lat="48.0448" lon="-3.76032">
        <ele>224.3</ele>
        <time>2020-06-07T18:50:37Z</time>
      </trkpt>
      <trkpt lat="48.04479" lon="-3.76033">
        <ele>224.3</ele>
        <time>2020-06-07T18:50:38Z</time>
      </trkpt>
      <trkpt lat="48.04479" lon="-3.76033">
        <ele>224.3</ele>
        <time>2020-06-07T18:50:39Z</time>
      </trkpt>
      <trkpt lat="48.04478" lon="-3.76032">
        <ele>224.3</ele>
        <time>2020-06-07T18:50:40Z</time>
      </trkpt>
      <trkpt lat="48.04479" lon="-3.76031">
        <ele>224.3</ele>
        <time>2020-06-07T18:50:41Z</time>
      </trkpt>
      <trkpt lat="48.04479" lon="-3.76031">
        <ele>224.3</ele>
        <time>2020-06-07T18:50:42Z</time>
      </trkpt>
      <trkpt lat="48.04479" lon="-3.7603">
        <ele>224.3</ele>
        <time>2020-06-07T18:50:43Z</time>
      </trkpt>
      <trkpt lat="48.04479" lon="-3.76029">
        <ele>224.3</ele>
        <time>2020-06-07T18:50:44Z</time>
      </trkpt>
      <trkpt lat="48.04479" lon="-3.76029">
        <ele>224.3</ele>
        <time>2020-06-07T18:50:45Z</time>
      </trkpt>
      <trkpt lat="48.04479" lon="-3.76028">
        <ele>224.1</ele>
        <time>2020-06-07T18:50:46Z</time>
      </trkpt>
      <trkpt lat="48.04479" lon="-3.76028">
        <ele>224.1</ele>
        <time>2020-06-07T18:50:47Z</time>
      </trkpt>
      <trkpt lat="48.0448" lon="-3.76027">
        <ele>224.1</ele>
        <time>2020-06-07T18:50:48Z</time>
      </trkpt>
      <trkpt lat="48.0448" lon="-3.76026">
        <ele>224.1</ele>
        <time>2020-06-07T18:50:49Z</time>
      </trkpt>
      <trkpt lat="48.04479" lon="-3.76026">
        <ele>224.1</ele>
        <time>2020-06-07T18:50:50Z</time>
      </trkpt>
      <trkpt lat="48.0448" lon="-3.76024">
        <ele>224.1</ele>
        <time>2020-06-07T18:50:51Z</time>
      </trkpt>
      <trkpt lat="48.0448" lon="-3.76024">
        <ele>224.1</ele>
        <time>2020-06-07T18:50:52Z</time>
      </trkpt>
      <trkpt lat="48.0448" lon="-3.76024">
        <ele>224.1</ele>
        <time>2020-06-07T18:50:53Z</time>
      </trkpt>
      <trkpt lat="48.0448" lon="-3.76024">
        <ele>224.1</ele>
        <time>2020-06-07T18:50:54Z</time>
      </trkpt>
      <trkpt lat="48.04481" lon="-3.76023">
        <ele>224.1</ele>
        <time>2020-06-07T18:50:55Z</time>
      </trkpt>
      <trkpt lat="48.04483" lon="-3.76022">
        <ele>224.1</ele>
        <time>2020-06-07T18:50:56Z</time>
      </trkpt>
      <trkpt lat="48.04484" lon="-3.76022">
        <ele>224.1</ele>
        <time>2020-06-07T18:50:57Z</time>
      </trkpt>
      <trkpt lat="48.04484" lon="-3.76023">
        <ele>224.1</ele>
        <time>2020-06-07T18:50:58Z</time>
      </trkpt>
      <trkpt lat="48.04483" lon="-3.76023">
        <ele>224.1</ele>
        <time>2020-06-07T18:50:59Z</time>
      </trkpt>
      <trkpt lat="48.04484" lon="-3.76023">
        <ele>224.1</ele>
        <time>2020-06-07T18:51:00Z</time>
      </trkpt>
      <trkpt lat="48.04482" lon="-3.76023">
        <ele>224.1</ele>
        <time>2020-06-07T18:51:01Z</time>
      </trkpt>
      <trkpt lat="48.04482" lon="-3.76024">
        <ele>224.1</ele>
        <time>2020-06-07T18:51:02Z</time>
      </trkpt>
      <trkpt lat="48.04482" lon="-3.76024">
        <ele>224.2</ele>
        <time>2020-06-07T18:51:03Z</time>
      </trkpt>
      <trkpt lat="48.04482" lon="-3.76025">
        <ele>224.2</ele>
        <time>2020-06-07T18:51:04Z</time>
      </trkpt>
      <trkpt lat="48.04482" lon="-3.76024">
        <ele>224.1</ele>
        <time>2020-06-07T18:51:05Z</time>
      </trkpt>
      <trkpt lat="48.04481" lon="-3.76023">
        <ele>224.1</ele>
        <time>2020-06-07T18:51:06Z</time>
      </trkpt>
      <trkpt lat="48.04481" lon="-3.76022">
        <ele>224</ele>
        <time>2020-06-07T18:51:07Z</time>
      </trkpt>
      <trkpt lat="48.0448" lon="-3.76021">
        <ele>224</ele>
        <time>2020-06-07T18:51:08Z</time>
      </trkpt>
      <trkpt lat="48.04479" lon="-3.7602">
        <ele>224</ele>
        <time>2020-06-07T18:51:09Z</time>
      </trkpt>
      <trkpt lat="48.04478" lon="-3.76018">
        <ele>223.8</ele>
        <time>2020-06-07T18:51:10Z</time>
      </trkpt>
      <trkpt lat="48.04477" lon="-3.76018">
        <ele>223.8</ele>
        <time>2020-06-07T18:51:11Z</time>
      </trkpt>
      <trkpt lat="48.04476" lon="-3.76017">
        <ele>223.8</ele>
        <time>2020-06-07T18:51:12Z</time>
      </trkpt>
      <trkpt lat="48.04476" lon="-3.76017">
        <ele>223.8</ele>
        <time>2020-06-07T18:51:13Z</time>
      </trkpt>
      <trkpt lat="48.04477" lon="-3.76018">
        <ele>223.8</ele>
        <time>2020-06-07T18:51:14Z</time>
      </trkpt>
      <trkpt lat="48.04477" lon="-3.76018">
        <ele>223.8</ele>
        <time>2020-06-07T18:51:15Z</time>
      </trkpt>
      <trkpt lat="48.04478" lon="-3.76019">
        <ele>223.8</ele>
        <time>2020-06-07T18:51:16Z</time>
      </trkpt>
      <trkpt lat="48.04478" lon="-3.76019">
        <ele>223.9</ele>
        <time>2020-06-07T18:51:17Z</time>
      </trkpt>
      <trkpt lat="48.04479" lon="-3.7602">
        <ele>224</ele>
        <time>2020-06-07T18:51:18Z</time>
      </trkpt>
      <trkpt lat="48.0448" lon="-3.76021">
        <ele>224</ele>
        <time>2020-06-07T18:51:19Z</time>
      </trkpt>
      <trkpt lat="48.0448" lon="-3.76021">
        <ele>224</ele>
        <time>2020-06-07T18:51:20Z</time>
      </trkpt>
      <trkpt lat="48.04481" lon="-3.76022">
        <ele>224</ele>
        <time>2020-06-07T18:51:21Z</time>
      </trkpt>
      <trkpt lat="48.04481" lon="-3.76022">
        <ele>224.1</ele>
        <time>2020-06-07T18:51:22Z</time>
      </trkpt>
      <trkpt lat="48.04482" lon="-3.76023">
        <ele>224.1</ele>
        <time>2020-06-07T18:51:23Z</time>
      </trkpt>
      <trkpt lat="48.04482" lon="-3.76023">
        <ele>224.1</ele>
        <time>2020-06-07T18:51:43Z</time>
      </trkpt>
      <trkpt lat="48.04483" lon="-3.76024">
        <ele>224.1</ele>
        <time>2020-06-07T18:51:44Z</time>
      </trkpt>
      <trkpt lat="48.04484" lon="-3.76026">
        <ele>224.2</ele>
        <time>2020-06-07T18:51:45Z</time>
      </trkpt>
      <trkpt lat="48.04485" lon="-3.76027">
        <ele>224.2</ele>
        <time>2020-06-07T18:51:46Z</time>
      </trkpt>
      <trkpt lat="48.04487" lon="-3.76029">
        <ele>224.4</ele>
        <time>2020-06-07T18:51:47Z</time>
      </trkpt>
      <trkpt lat="48.04488" lon="-3.76029">
        <ele>224.4</ele>
        <time>2020-06-07T18:51:48Z</time>
      </trkpt>
      <trkpt lat="48.04489" lon="-3.7603">
        <ele>224.4</ele>
        <time>2020-06-07T18:51:49Z</time>
      </trkpt>
      <trkpt lat="48.04489" lon="-3.76031">
        <ele>224.4</ele>
        <time>2020-06-07T18:51:50Z</time>
      </trkpt>
      <trkpt lat="48.0449" lon="-3.76032">
        <ele>224.4</ele>
        <time>2020-06-07T18:51:51Z</time>
      </trkpt>
      <trkpt lat="48.0449" lon="-3.76032">
        <ele>224.4</ele>
        <time>2020-06-07T18:51:52Z</time>
      </trkpt>
      <trkpt lat="48.0449" lon="-3.76032">
        <ele>224.4</ele>
        <time>2020-06-07T18:51:53Z</time>
      </trkpt>
      <trkpt lat="48.0449" lon="-3.76032">
        <ele>224.4</ele>
        <time>2020-06-07T18:51:54Z</time>
      </trkpt>
      <trkpt lat="48.0449" lon="-3.76032">
        <ele>224.4</ele>
        <time>2020-06-07T18:51:55Z</time>
      </trkpt>
      <trkpt lat="48.0449" lon="-3.76032">
        <ele>224.4</ele>
        <time>2020-06-07T18:51:56Z</time>
      </trkpt>
      <trkpt lat="48.0449" lon="-3.76033">
        <ele>224.5</ele>
        <time>2020-06-07T18:51:57Z</time>
      </trkpt>
      <trkpt lat="48.04489" lon="-3.76033">
        <ele>224.5</ele>
        <time>2020-06-07T18:51:58Z</time>
      </trkpt>
      <trkpt lat="48.04489" lon="-3.76034">
        <ele>224.5</ele>
        <time>2020-06-07T18:51:59Z</time>
      </trkpt>
      <trkpt lat="48.04489" lon="-3.76035">
        <ele>224.5</ele>
        <time>2020-06-07T18:52:00Z</time>
      </trkpt>
      <trkpt lat="48.04488" lon="-3.76036">
        <ele>224.5</ele>
        <time>2020-06-07T18:52:01Z</time>
      </trkpt>
      <trkpt lat="48.04488" lon="-3.76037">
        <ele>224.5</ele>
        <time>2020-06-07T18:52:02Z</time>
      </trkpt>
      <trkpt lat="48.04488" lon="-3.76037">
        <ele>224.6</ele>
        <time>2020-06-07T18:52:03Z</time>
      </trkpt>
      <trkpt lat="48.04487" lon="-3.76038">
        <ele>224.6</ele>
        <time>2020-06-07T18:52:04Z</time>
      </trkpt>
      <trkpt lat="48.04487" lon="-3.76039">
        <ele>224.6</ele>
        <time>2020-06-07T18:52:05Z</time>
      </trkpt>
      <trkpt lat="48.04487" lon="-3.7604">
        <ele>224.6</ele>
        <time>2020-06-07T18:52:06Z</time>
      </trkpt>
      <trkpt lat="48.04486" lon="-3.7604">
        <ele>224.6</ele>
        <time>2020-06-07T18:52:07Z</time>
      </trkpt>
      <trkpt lat="48.04486" lon="-3.76042">
        <ele>224.7</ele>
        <time>2020-06-07T18:52:08Z</time>
      </trkpt>
      <trkpt lat="48.04486" lon="-3.76043">
        <ele>224.7</ele>
        <time>2020-06-07T18:52:09Z</time>
      </trkpt>
      <trkpt lat="48.04486" lon="-3.76044">
        <ele>224.7</ele>
        <time>2020-06-07T18:52:10Z</time>
      </trkpt>
      <trkpt lat="48.04486" lon="-3.76045">
        <ele>224.7</ele>
        <time>2020-06-07T18:52:11Z</time>
      </trkpt>
      <trkpt lat="48.04486" lon="-3.76046">
        <ele>224.7</ele>
        <time>2020-06-07T18:52:12Z</time>
      </trkpt>
      <trkpt lat="48.04486" lon="-3.76047">
        <ele>224.7</ele>
        <time>2020-06-07T18:52:13Z</time>
      </trkpt>
      <trkpt lat="48.04486" lon="-3.76048">
        <ele>224.7</ele>
        <time>2020-06-07T18:52:14Z</time>
      </trkpt>
      <trkpt lat="48.04485" lon="-3.76048">
        <ele>224.7</ele>
        <time>2020-06-07T18:52:15Z</time>
      </trkpt>
      <trkpt lat="48.04484" lon="-3.76047">
        <ele>224.7</ele>
        <time>2020-06-07T18:52:16Z</time>
      </trkpt>
      <trkpt lat="48.04484" lon="-3.76047">
        <ele>224.7</ele>
        <time>2020-06-07T18:52:17Z</time>
      </trkpt>
      <trkpt lat="48.04484" lon="-3.76047">
        <ele>224.7</ele>
        <time>2020-06-07T18:52:18Z</time>
      </trkpt>
      <trkpt lat="48.04483" lon="-3.76046">
        <ele>224.7</ele>
        <time>2020-06-07T18:52:19Z</time>
      </trkpt>
      <trkpt lat="48.04483" lon="-3.76046">
        <ele>224.7</ele>
        <time>2020-06-07T18:52:20Z</time>
      </trkpt>
      <trkpt lat="48.04483" lon="-3.76046">
        <ele>224.6</ele>
        <time>2020-06-07T18:52:21Z</time>
      </trkpt>
      <trkpt lat="48.04483" lon="-3.76045">
        <ele>224.6</ele>
        <time>2020-06-07T18:52:22Z</time>
      </trkpt>
      <trkpt lat="48.04483" lon="-3.76045">
        <ele>224.6</ele>
        <time>2020-06-07T18:52:23Z</time>
      </trkpt>
      <trkpt lat="48.04482" lon="-3.76045">
        <ele>224.6</ele>
        <time>2020-06-07T18:52:24Z</time>
      </trkpt>
      <trkpt lat="48.04482" lon="-3.76045">
        <ele>224.6</ele>
        <time>2020-06-07T18:52:25Z</time>
      </trkpt>
      <trkpt lat="48.04481" lon="-3.76046">
        <ele>224.6</ele>
        <time>2020-06-07T18:52:26Z</time>
      </trkpt>
      <trkpt lat="48.0448" lon="-3.76046">
        <ele>224.6</ele>
        <time>2020-06-07T18:52:27Z</time>
      </trkpt>
      <trkpt lat="48.0448" lon="-3.76046">
        <ele>224.7</ele>
        <time>2020-06-07T18:52:28Z</time>
      </trkpt>
      <trkpt lat="48.04479" lon="-3.76047">
        <ele>224.7</ele>
        <time>2020-06-07T18:52:29Z</time>
      </trkpt>
      <trkpt lat="48.04478" lon="-3.76048">
        <ele>224.7</ele>
        <time>2020-06-07T18:52:30Z</time>
      </trkpt>
      <trkpt lat="48.04478" lon="-3.76049">
        <ele>224.7</ele>
        <time>2020-06-07T18:52:31Z</time>
      </trkpt>
      <trkpt lat="48.04478" lon="-3.7605">
        <ele>224.6</ele>
        <time>2020-06-07T18:52:32Z</time>
      </trkpt>
      <trkpt lat="48.04477" lon="-3.76051">
        <ele>224.7</ele>
        <time>2020-06-07T18:52:33Z</time>
      </trkpt>
      <trkpt lat="48.04477" lon="-3.76052">
        <ele>224.7</ele>
        <time>2020-06-07T18:52:34Z</time>
      </trkpt>
      <trkpt lat="48.04477" lon="-3.76054">
        <ele>224.7</ele>
        <time>2020-06-07T18:52:35Z</time>
      </trkpt>
      <trkpt lat="48.04477" lon="-3.76055">
        <ele>224.7</ele>
        <time>2020-06-07T18:52:36Z</time>
      </trkpt>
      <trkpt lat="48.04477" lon="-3.76056">
        <ele>224.7</ele>
        <time>2020-06-07T18:52:37Z</time>
      </trkpt>
      <trkpt lat="48.04477" lon="-3.76057">
        <ele>224.7</ele>
        <time>2020-06-07T18:52:38Z</time>
      </trkpt>
      <trkpt lat="48.04476" lon="-3.76058">
        <ele>224.7</ele>
        <time>2020-06-07T18:52:39Z</time>
      </trkpt>
      <trkpt lat="48.04477" lon="-3.76059">
        <ele>224.8</ele>
        <time>2020-06-07T18:52:40Z</time>
      </trkpt>
      <trkpt lat="48.04477" lon="-3.76061">
        <ele>224.8</ele>
        <time>2020-06-07T18:52:41Z</time>
      </trkpt>
      <trkpt lat="48.04478" lon="-3.76062">
        <ele>224.8</ele>
        <time>2020-06-07T18:52:42Z</time>
      </trkpt>
      <trkpt lat="48.04478" lon="-3.76063">
        <ele>224.8</ele>
        <time>2020-06-07T18:52:43Z</time>
      </trkpt>
      <trkpt lat="48.04478" lon="-3.76064">
        <ele>224.8</ele>
        <time>2020-06-07T18:52:44Z</time>
      </trkpt>
      <trkpt lat="48.04478" lon="-3.76065">
        <ele>224.8</ele>
        <time>2020-06-07T18:52:45Z</time>
      </trkpt>
      <trkpt lat="48.04477" lon="-3.76066">
        <ele>224.8</ele>
        <time>2020-06-07T18:52:46Z</time>
      </trkpt>
      <trkpt lat="48.04477" lon="-3.76068">
        <ele>224.8</ele>
        <time>2020-06-07T18:52:47Z</time>
      </trkpt>
      <trkpt lat="48.04477" lon="-3.7607">
        <ele>224.8</ele>
        <time>2020-06-07T18:52:48Z</time>
      </trkpt>
      <trkpt lat="48.04477" lon="-3.7607">
        <ele>224.8</ele>
        <time>2020-06-07T18:52:49Z</time>
      </trkpt>
      <trkpt lat="48.04477" lon="-3.76072">
        <ele>224.8</ele>
        <time>2020-06-07T18:52:50Z</time>
      </trkpt>
      <trkpt lat="48.04477" lon="-3.76072">
        <ele>224.8</ele>
        <time>2020-06-07T18:52:51Z</time>
      </trkpt>
      <trkpt lat="48.04477" lon="-3.76073">
        <ele>224.8</ele>
        <time>2020-06-07T18:52:52Z</time>
      </trkpt>
      <trkpt lat="48.04477" lon="-3.76073">
        <ele>224.8</ele>
        <time>2020-06-07T18:52:53Z</time>
      </trkpt>
      <trkpt lat="48.04477" lon="-3.76073">
        <ele>224.8</ele>
        <time>2020-06-07T18:52:54Z</time>
      </trkpt>
      <trkpt lat="48.04477" lon="-3.76074">
        <ele>224.8</ele>
        <time>2020-06-07T18:52:55Z</time>
      </trkpt>
      <trkpt lat="48.04477" lon="-3.76074">
        <ele>224.8</ele>
        <time>2020-06-07T18:52:56Z</time>
      </trkpt>
      <trkpt lat="48.04476" lon="-3.76073">
        <ele>224.8</ele>
        <time>2020-06-07T18:52:57Z</time>
      </trkpt>
      <trkpt lat="48.04476" lon="-3.76071">
        <ele>224.8</ele>
        <time>2020-06-07T18:52:58Z</time>
      </trkpt>
      <trkpt lat="48.04475" lon="-3.76071">
        <ele>224.8</ele>
        <time>2020-06-07T18:52:59Z</time>
      </trkpt>
      <trkpt lat="48.04474" lon="-3.76069">
        <ele>224.7</ele>
        <time>2020-06-07T18:53:00Z</time>
      </trkpt>
      <trkpt lat="48.04474" lon="-3.76069">
        <ele>224.7</ele>
        <time>2020-06-07T18:53:01Z</time>
      </trkpt>
      <trkpt lat="48.04475" lon="-3.76068">
        <ele>224.7</ele>
        <time>2020-06-07T18:53:02Z</time>
      </trkpt>
      <trkpt lat="48.04474" lon="-3.76067">
        <ele>224.7</ele>
        <time>2020-06-07T18:53:03Z</time>
      </trkpt>
      <trkpt lat="48.04474" lon="-3.76067">
        <ele>224.7</ele>
        <time>2020-06-07T18:53:04Z</time>
      </trkpt>
      <trkpt lat="48.04474" lon="-3.76066">
        <ele>224.7</ele>
        <time>2020-06-07T18:53:05Z</time>
      </trkpt>
      <trkpt lat="48.04473" lon="-3.76064">
        <ele>224.7</ele>
        <time>2020-06-07T18:53:06Z</time>
      </trkpt>
      <trkpt lat="48.04472" lon="-3.76061">
        <ele>224.6</ele>
        <time>2020-06-07T18:53:07Z</time>
      </trkpt>
      <trkpt lat="48.04469" lon="-3.76065">
        <ele>224.6</ele>
        <time>2020-06-07T18:53:23Z</time>
      </trkpt>
      <trkpt lat="48.04469" lon="-3.76065">
        <ele>224.6</ele>
        <time>2020-06-07T18:53:24Z</time>
      </trkpt>
      <trkpt lat="48.04469" lon="-3.76065">
        <ele>224.6</ele>
        <time>2020-06-07T18:53:25Z</time>
      </trkpt>
      <trkpt lat="48.04469" lon="-3.76064">
        <ele>224.6</ele>
        <time>2020-06-07T18:53:26Z</time>
      </trkpt>
      <trkpt lat="48.04469" lon="-3.76064">
        <ele>224.6</ele>
        <time>2020-06-07T18:53:27Z</time>
      </trkpt>
      <trkpt lat="48.04469" lon="-3.76066">
        <ele>224.6</ele>
        <time>2020-06-07T18:53:28Z</time>
      </trkpt>
      <trkpt lat="48.04468" lon="-3.76067">
        <ele>224.6</ele>
        <time>2020-06-07T18:53:29Z</time>
      </trkpt>
      <trkpt lat="48.04468" lon="-3.76067">
        <ele>224.6</ele>
        <time>2020-06-07T18:53:30Z</time>
      </trkpt>
      <trkpt lat="48.04467" lon="-3.76067">
        <ele>224.6</ele>
        <time>2020-06-07T18:53:31Z</time>
      </trkpt>
      <trkpt lat="48.04467" lon="-3.76066">
        <ele>224.6</ele>
        <time>2020-06-07T18:53:32Z</time>
      </trkpt>
      <trkpt lat="48.04467" lon="-3.76066">
        <ele>224.6</ele>
        <time>2020-06-07T18:53:33Z</time>
      </trkpt>
      <trkpt lat="48.04466" lon="-3.76066">
        <ele>224.5</ele>
        <time>2020-06-07T18:53:34Z</time>
      </trkpt>
      <trkpt lat="48.04466" lon="-3.76065">
        <ele>224.5</ele>
        <time>2020-06-07T18:53:35Z</time>
      </trkpt>
      <trkpt lat="48.04466" lon="-3.76065">
        <ele>224.5</ele>
        <time>2020-06-07T18:53:36Z</time>
      </trkpt>
      <trkpt lat="48.04465" lon="-3.76064">
        <ele>224.5</ele>
        <time>2020-06-07T18:53:37Z</time>
      </trkpt>
      <trkpt lat="48.04465" lon="-3.76063">
        <ele>224.5</ele>
        <time>2020-06-07T18:53:38Z</time>
      </trkpt>
      <trkpt lat="48.04463" lon="-3.7606">
        <ele>224.5</ele>
        <time>2020-06-07T18:53:39Z</time>
      </trkpt>
      <trkpt lat="48.04461" lon="-3.76057">
        <ele>224.5</ele>
        <time>2020-06-07T18:53:40Z</time>
      </trkpt>
      <trkpt lat="48.04461" lon="-3.76056">
        <ele>224.5</ele>
        <time>2020-06-07T18:53:41Z</time>
      </trkpt>
      <trkpt lat="48.0446" lon="-3.76052">
        <ele>224.4</ele>
        <time>2020-06-07T18:53:42Z</time>
      </trkpt>
      <trkpt lat="48.04458" lon="-3.76049">
        <ele>224.3</ele>
        <time>2020-06-07T18:53:43Z</time>
      </trkpt>
      <trkpt lat="48.04458" lon="-3.76049">
        <ele>224.3</ele>
        <time>2020-06-07T18:53:44Z</time>
      </trkpt>
      <trkpt lat="48.04458" lon="-3.76049">
        <ele>224.3</ele>
        <time>2020-06-07T18:53:45Z</time>
      </trkpt>
      <trkpt lat="48.04458" lon="-3.76049">
        <ele>224.3</ele>
        <time>2020-06-07T18:53:46Z</time>
      </trkpt>
      <trkpt lat="48.0446" lon="-3.76051">
        <ele>224.4</ele>
        <time>2020-06-07T18:53:47Z</time>
      </trkpt>
      <trkpt lat="48.0446" lon="-3.76051">
        <ele>224.4</ele>
        <time>2020-06-07T18:53:48Z</time>
      </trkpt>
      <trkpt lat="48.0446" lon="-3.7605">
        <ele>224.4</ele>
        <time>2020-06-07T18:53:49Z</time>
      </trkpt>
      <trkpt lat="48.0446" lon="-3.7605">
        <ele>224.4</ele>
        <time>2020-06-07T18:53:50Z</time>
      </trkpt>
      <trkpt lat="48.0446" lon="-3.76051">
        <ele>224.4</ele>
        <time>2020-06-07T18:53:51Z</time>
      </trkpt>
      <trkpt lat="48.0446" lon="-3.76051">
        <ele>224.4</ele>
        <time>2020-06-07T18:53:52Z</time>
      </trkpt>
      <trkpt lat="48.04462" lon="-3.7605">
        <ele>224.4</ele>
        <time>2020-06-07T18:53:53Z</time>
      </trkpt>
      <trkpt lat="48.04462" lon="-3.76051">
        <ele>224.4</ele>
        <time>2020-06-07T18:53:54Z</time>
      </trkpt>
      <trkpt lat="48.04463" lon="-3.76052">
        <ele>224.4</ele>
        <time>2020-06-07T18:53:55Z</time>
      </trkpt>
      <trkpt lat="48.04464" lon="-3.7605">
        <ele>224.5</ele>
        <time>2020-06-07T18:53:56Z</time>
      </trkpt>
      <trkpt lat="48.04465" lon="-3.76049">
        <ele>224.4</ele>
        <time>2020-06-07T18:53:57Z</time>
      </trkpt>
      <trkpt lat="48.04467" lon="-3.76047">
        <ele>224.5</ele>
        <time>2020-06-07T18:53:58Z</time>
      </trkpt>
      <trkpt lat="48.04467" lon="-3.76045">
        <ele>224.4</ele>
        <time>2020-06-07T18:53:59Z</time>
      </trkpt>
      <trkpt lat="48.04468" lon="-3.76044">
        <ele>224.4</ele>
        <time>2020-06-07T18:54:00Z</time>
      </trkpt>
      <trkpt lat="48.04471" lon="-3.76042">
        <ele>224.4</ele>
        <time>2020-06-07T18:54:01Z</time>
      </trkpt>
      <trkpt lat="48.04472" lon="-3.76041">
        <ele>224.3</ele>
        <time>2020-06-07T18:54:02Z</time>
      </trkpt>
      <trkpt lat="48.04475" lon="-3.76038">
        <ele>224.4</ele>
        <time>2020-06-07T18:54:03Z</time>
      </trkpt>
      <trkpt lat="48.04476" lon="-3.76037">
        <ele>224.3</ele>
        <time>2020-06-07T18:54:04Z</time>
      </trkpt>
      <trkpt lat="48.0448" lon="-3.76034">
        <ele>224.4</ele>
        <time>2020-06-07T18:54:05Z</time>
      </trkpt>
      <trkpt lat="48.04481" lon="-3.76033">
        <ele>224.3</ele>
        <time>2020-06-07T18:54:06Z</time>
      </trkpt>
      <trkpt lat="48.04484" lon="-3.7603">
        <ele>224.3</ele>
        <time>2020-06-07T18:54:07Z</time>
      </trkpt>
      <trkpt lat="48.04484" lon="-3.76029">
        <ele>224.4</ele>
        <time>2020-06-07T18:54:08Z</time>
      </trkpt>
      <trkpt lat="48.04485" lon="-3.76028">
        <ele>224.2</ele>
        <time>2020-06-07T18:54:09Z</time>
      </trkpt>
      <trkpt lat="48.04484" lon="-3.76028">
        <ele>224.2</ele>
        <time>2020-06-07T18:54:10Z</time>
      </trkpt>
      <trkpt lat="48.04484" lon="-3.76027">
        <ele>224.2</ele>
        <time>2020-06-07T18:54:11Z</time>
      </trkpt>
      <trkpt lat="48.04484" lon="-3.76025">
        <ele>224.2</ele>
        <time>2020-06-07T18:54:12Z</time>
      </trkpt>
      <trkpt lat="48.04484" lon="-3.76025">
        <ele>224.2</ele>
        <time>2020-06-07T18:54:13Z</time>
      </trkpt>
      <trkpt lat="48.04484" lon="-3.76024">
        <ele>224.1</ele>
        <time>2020-06-07T18:54:14Z</time>
      </trkpt>
      <trkpt lat="48.04484" lon="-3.76024">
        <ele>224.1</ele>
        <time>2020-06-07T18:54:15Z</time>
      </trkpt>
      <trkpt lat="48.04483" lon="-3.76024">
        <ele>224.2</ele>
        <time>2020-06-07T18:54:16Z</time>
      </trkpt>
      <trkpt lat="48.04482" lon="-3.76025">
        <ele>224.2</ele>
        <time>2020-06-07T18:54:17Z</time>
      </trkpt>
      <trkpt lat="48.04481" lon="-3.76025">
        <ele>224.1</ele>
        <time>2020-06-07T18:54:18Z</time>
      </trkpt>
      <trkpt lat="48.0448" lon="-3.76026">
        <ele>224.1</ele>
        <time>2020-06-07T18:54:19Z</time>
      </trkpt>
      <trkpt lat="48.0448" lon="-3.76024">
        <ele>224</ele>
        <time>2020-06-07T18:54:20Z</time>
      </trkpt>
      <trkpt lat="48.04479" lon="-3.76024">
        <ele>224</ele>
        <time>2020-06-07T18:54:21Z</time>
      </trkpt>
      <trkpt lat="48.04479" lon="-3.76027">
        <ele>224.1</ele>
        <time>2020-06-07T18:54:22Z</time>
      </trkpt>
      <trkpt lat="48.04478" lon="-3.7603">
        <ele>224.2</ele>
        <time>2020-06-07T18:54:23Z</time>
      </trkpt>
      <trkpt lat="48.04478" lon="-3.76031">
        <ele>224.2</ele>
        <time>2020-06-07T18:54:24Z</time>
      </trkpt>
      <trkpt lat="48.04477" lon="-3.76032">
        <ele>224.2</ele>
        <time>2020-06-07T18:54:25Z</time>
      </trkpt>
      <trkpt lat="48.04476" lon="-3.76033">
        <ele>224.3</ele>
        <time>2020-06-07T18:54:26Z</time>
      </trkpt>
      <trkpt lat="48.04476" lon="-3.76033">
        <ele>224.3</ele>
        <time>2020-06-07T18:54:27Z</time>
      </trkpt>
      <trkpt lat="48.04475" lon="-3.76034">
        <ele>224.3</ele>
        <time>2020-06-07T18:54:28Z</time>
      </trkpt>
      <trkpt lat="48.04475" lon="-3.76035">
        <ele>224.3</ele>
        <time>2020-06-07T18:54:29Z</time>
      </trkpt>
      <trkpt lat="48.04474" lon="-3.76036">
        <ele>224.3</ele>
        <time>2020-06-07T18:54:30Z</time>
      </trkpt>
      <trkpt lat="48.04473" lon="-3.76037">
        <ele>224.3</ele>
        <time>2020-06-07T18:54:31Z</time>
      </trkpt>
      <trkpt lat="48.04473" lon="-3.76038">
        <ele>224.4</ele>
        <time>2020-06-07T18:54:32Z</time>
      </trkpt>
      <trkpt lat="48.04472" lon="-3.76039">
        <ele>224.3</ele>
        <time>2020-06-07T18:54:33Z</time>
      </trkpt>
      <trkpt lat="48.04471" lon="-3.76041">
        <ele>224.3</ele>
        <time>2020-06-07T18:54:34Z</time>
      </trkpt>
      <trkpt lat="48.04471" lon="-3.76041">
        <ele>224.3</ele>
        <time>2020-06-07T18:54:35Z</time>
      </trkpt>
      <trkpt lat="48.0447" lon="-3.76042">
        <ele>224.4</ele>
        <time>2020-06-07T18:54:36Z</time>
      </trkpt>
      <trkpt lat="48.04469" lon="-3.76039">
        <ele>224.3</ele>
        <time>2020-06-07T18:54:39Z</time>
      </trkpt>
      <trkpt lat="48.04469" lon="-3.76038">
        <ele>224.3</ele>
        <time>2020-06-07T18:54:40Z</time>
      </trkpt>
      <trkpt lat="48.04469" lon="-3.76038">
        <ele>224.3</ele>
        <time>2020-06-07T18:54:41Z</time>
      </trkpt>
      <trkpt lat="48.04469" lon="-3.76038">
        <ele>224.3</ele>
        <time>2020-06-07T18:54:42Z</time>
      </trkpt>
      <trkpt lat="48.04469" lon="-3.7604">
        <ele>224.3</ele>
        <time>2020-06-07T18:54:43Z</time>
      </trkpt>
      <trkpt lat="48.04469" lon="-3.76041">
        <ele>224.3</ele>
        <time>2020-06-07T18:54:44Z</time>
      </trkpt>
      <trkpt lat="48.0447" lon="-3.76042">
        <ele>224.4</ele>
        <time>2020-06-07T18:54:45Z</time>
      </trkpt>
      <trkpt lat="48.0447" lon="-3.76042">
        <ele>224.4</ele>
        <time>2020-06-07T18:54:46Z</time>
      </trkpt>
      <trkpt lat="48.04469" lon="-3.76042">
        <ele>224.4</ele>
        <time>2020-06-07T18:54:47Z</time>
      </trkpt>
      <trkpt lat="48.04469" lon="-3.76041">
        <ele>224.3</ele>
        <time>2020-06-07T18:54:48Z</time>
      </trkpt>
      <trkpt lat="48.04469" lon="-3.76042">
        <ele>224.4</ele>
        <time>2020-06-07T18:54:49Z</time>
      </trkpt>
      <trkpt lat="48.04469" lon="-3.76041">
        <ele>224.3</ele>
        <time>2020-06-07T18:54:50Z</time>
      </trkpt>
      <trkpt lat="48.04469" lon="-3.76041">
        <ele>224.3</ele>
        <time>2020-06-07T18:54:51Z</time>
      </trkpt>
      <trkpt lat="48.04469" lon="-3.76041">
        <ele>224.3</ele>
        <time>2020-06-07T18:54:52Z</time>
      </trkpt>
      <trkpt lat="48.04469" lon="-3.76042">
        <ele>224.4</ele>
        <time>2020-06-07T18:54:53Z</time>
      </trkpt>
      <trkpt lat="48.04468" lon="-3.76042">
        <ele>224.4</ele>
        <time>2020-06-07T18:54:54Z</time>
      </trkpt>
      <trkpt lat="48.04468" lon="-3.76043">
        <ele>224.4</ele>
        <time>2020-06-07T18:54:55Z</time>
      </trkpt>
      <trkpt lat="48.04467" lon="-3.76044">
        <ele>224.4</ele>
        <time>2020-06-07T18:54:56Z</time>
      </trkpt>
      <trkpt lat="48.04466" lon="-3.76044">
        <ele>224.3</ele>
        <time>2020-06-07T18:54:57Z</time>
      </trkpt>
      <trkpt lat="48.04465" lon="-3.76045">
        <ele>224.3</ele>
        <time>2020-06-07T18:54:58Z</time>
      </trkpt>
      <trkpt lat="48.04464" lon="-3.76045">
        <ele>224.3</ele>
        <time>2020-06-07T18:54:59Z</time>
      </trkpt>
      <trkpt lat="48.04463" lon="-3.76045">
        <ele>224.3</ele>
        <time>2020-06-07T18:55:00Z</time>
      </trkpt>
      <trkpt lat="48.04462" lon="-3.76046">
        <ele>224.4</ele>
        <time>2020-06-07T18:55:01Z</time>
      </trkpt>
      <trkpt lat="48.04461" lon="-3.76047">
        <ele>224.4</ele>
        <time>2020-06-07T18:55:02Z</time>
      </trkpt>
      <trkpt lat="48.04462" lon="-3.76047">
        <ele>224.4</ele>
        <time>2020-06-07T18:55:03Z</time>
      </trkpt>
      <trkpt lat="48.04461" lon="-3.76048">
        <ele>224.4</ele>
        <time>2020-06-07T18:55:04Z</time>
      </trkpt>
      <trkpt lat="48.04461" lon="-3.76048">
        <ele>224.4</ele>
        <time>2020-06-07T18:55:05Z</time>
      </trkpt>
      <trkpt lat="48.04461" lon="-3.76048">
        <ele>224.4</ele>
        <time>2020-06-07T18:55:06Z</time>
      </trkpt>
      <trkpt lat="48.04461" lon="-3.76049">
        <ele>224.3</ele>
        <time>2020-06-07T18:55:07Z</time>
      </trkpt>
      <trkpt lat="48.0446" lon="-3.76049">
        <ele>224.3</ele>
        <time>2020-06-07T18:55:08Z</time>
      </trkpt>
      <trkpt lat="48.0446" lon="-3.7605">
        <ele>224.3</ele>
        <time>2020-06-07T18:55:09Z</time>
      </trkpt>
      <trkpt lat="48.0446" lon="-3.7605">
        <ele>224.4</ele>
        <time>2020-06-07T18:55:10Z</time>
      </trkpt>
      <trkpt lat="48.04459" lon="-3.7605">
        <ele>224.4</ele>
        <time>2020-06-07T18:55:11Z</time>
      </trkpt>
      <trkpt lat="48.04459" lon="-3.7605">
        <ele>224.4</ele>
        <time>2020-06-07T18:55:12Z</time>
      </trkpt>
      <trkpt lat="48.04459" lon="-3.76051">
        <ele>224.4</ele>
        <time>2020-06-07T18:55:13Z</time>
      </trkpt>
      <trkpt lat="48.04458" lon="-3.76051">
        <ele>224.4</ele>
        <time>2020-06-07T18:55:14Z</time>
      </trkpt>
      <trkpt lat="48.04458" lon="-3.76051">
        <ele>224.4</ele>
        <time>2020-06-07T18:55:15Z</time>
      </trkpt>
      <trkpt lat="48.04458" lon="-3.76051">
        <ele>224.4</ele>
        <time>2020-06-07T18:55:16Z</time>
      </trkpt>
      <trkpt lat="48.04458" lon="-3.76051">
        <ele>224.4</ele>
        <time>2020-06-07T18:55:17Z</time>
      </trkpt>
      <trkpt lat="48.04459" lon="-3.76051">
        <ele>224.4</ele>
        <time>2020-06-07T18:55:18Z</time>
      </trkpt>
      <trkpt lat="48.04459" lon="-3.76051">
        <ele>224.4</ele>
        <time>2020-06-07T18:55:19Z</time>
      </trkpt>
      <trkpt lat="48.04459" lon="-3.76049">
        <ele>224.3</ele>
        <time>2020-06-07T18:55:20Z</time>
      </trkpt>
      <trkpt lat="48.04459" lon="-3.76048">
        <ele>224.3</ele>
        <time>2020-06-07T18:55:21Z</time>
      </trkpt>
      <trkpt lat="48.04459" lon="-3.76048">
        <ele>224.3</ele>
        <time>2020-06-07T18:55:22Z</time>
      </trkpt>
      <trkpt lat="48.04459" lon="-3.76047">
        <ele>224.3</ele>
        <time>2020-06-07T18:55:23Z</time>
      </trkpt>
      <trkpt lat="48.0446" lon="-3.76047">
        <ele>224.3</ele>
        <time>2020-06-07T18:55:24Z</time>
      </trkpt>
      <trkpt lat="48.0446" lon="-3.76046">
        <ele>224.3</ele>
        <time>2020-06-07T18:55:25Z</time>
      </trkpt>
      <trkpt lat="48.04461" lon="-3.76044">
        <ele>224.3</ele>
        <time>2020-06-07T18:55:26Z</time>
      </trkpt>
      <trkpt lat="48.04462" lon="-3.76042">
        <ele>224.3</ele>
        <time>2020-06-07T18:55:27Z</time>
      </trkpt>
      <trkpt lat="48.04463" lon="-3.76041">
        <ele>224.2</ele>
        <time>2020-06-07T18:55:28Z</time>
      </trkpt>
      <trkpt lat="48.04464" lon="-3.7604">
        <ele>224.2</ele>
        <time>2020-06-07T18:55:29Z</time>
      </trkpt>
      <trkpt lat="48.04465" lon="-3.76039">
        <ele>224.2</ele>
        <time>2020-06-07T18:55:30Z</time>
      </trkpt>
      <trkpt lat="48.04465" lon="-3.76039">
        <ele>224.2</ele>
        <time>2020-06-07T18:55:31Z</time>
      </trkpt>
      <trkpt lat="48.04466" lon="-3.76039">
        <ele>224.2</ele>
        <time>2020-06-07T18:55:32Z</time>
      </trkpt>
      <trkpt lat="48.04465" lon="-3.76039">
        <ele>224.2</ele>
        <time>2020-06-07T18:55:33Z</time>
      </trkpt>
      <trkpt lat="48.04465" lon="-3.7604">
        <ele>224.2</ele>
        <time>2020-06-07T18:55:34Z</time>
      </trkpt>
      <trkpt lat="48.04465" lon="-3.7604">
        <ele>224.2</ele>
        <time>2020-06-07T18:55:35Z</time>
      </trkpt>
      <trkpt lat="48.04465" lon="-3.76041">
        <ele>224.2</ele>
        <time>2020-06-07T18:55:36Z</time>
      </trkpt>
      <trkpt lat="48.04465" lon="-3.76041">
        <ele>224.2</ele>
        <time>2020-06-07T18:55:37Z</time>
      </trkpt>
      <trkpt lat="48.04465" lon="-3.76042">
        <ele>224.3</ele>
        <time>2020-06-07T18:55:38Z</time>
      </trkpt>
      <trkpt lat="48.04465" lon="-3.76043">
        <ele>224.3</ele>
        <time>2020-06-07T18:55:39Z</time>
      </trkpt>
      <trkpt lat="48.04465" lon="-3.76043">
        <ele>224.3</ele>
        <time>2020-06-07T18:55:40Z</time>
      </trkpt>
      <trkpt lat="48.04464" lon="-3.76044">
        <ele>224.3</ele>
        <time>2020-06-07T18:55:41Z</time>
      </trkpt>
      <trkpt lat="48.04463" lon="-3.76046">
        <ele>224.3</ele>
        <time>2020-06-07T18:55:42Z</time>
      </trkpt>
      <trkpt lat="48.04463" lon="-3.76047">
        <ele>224.4</ele>
        <time>2020-06-07T18:55:43Z</time>
      </trkpt>
      <trkpt lat="48.04462" lon="-3.76047">
        <ele>224.4</ele>
        <time>2020-06-07T18:55:44Z</time>
      </trkpt>
      <trkpt lat="48.04461" lon="-3.76049">
        <ele>224.4</ele>
        <time>2020-06-07T18:55:45Z</time>
      </trkpt>
      <trkpt lat="48.0446" lon="-3.7605">
        <ele>224.3</ele>
        <time>2020-06-07T18:55:46Z</time>
      </trkpt>
      <trkpt lat="48.0446" lon="-3.7605">
        <ele>224.3</ele>
        <time>2020-06-07T18:55:47Z</time>
      </trkpt>
      <trkpt lat="48.0446" lon="-3.76051">
        <ele>224.4</ele>
        <time>2020-06-07T18:55:48Z</time>
      </trkpt>
      <trkpt lat="48.0446" lon="-3.76051">
        <ele>224.4</ele>
        <time>2020-06-07T18:55:49Z</time>
      </trkpt>
      <trkpt lat="48.04459" lon="-3.76051">
        <ele>224.4</ele>
        <time>2020-06-07T18:55:50Z</time>
      </trkpt>
      <trkpt lat="48.04459" lon="-3.7605">
        <ele>224.4</ele>
        <time>2020-06-07T18:55:51Z</time>
      </trkpt>
      <trkpt lat="48.04459" lon="-3.76051">
        <ele>224.4</ele>
        <time>2020-06-07T18:55:52Z</time>
      </trkpt>
      <trkpt lat="48.04459" lon="-3.76051">
        <ele>224.4</ele>
        <time>2020-06-07T18:55:53Z</time>
      </trkpt>
      <trkpt lat="48.04459" lon="-3.76051">
        <ele>224.4</ele>
        <time>2020-06-07T18:55:54Z</time>
      </trkpt>
      <trkpt lat="48.04459" lon="-3.76052">
        <ele>224.4</ele>
        <time>2020-06-07T18:55:55Z</time>
      </trkpt>
      <trkpt lat="48.04459" lon="-3.76052">
        <ele>224.4</ele>
        <time>2020-06-07T18:55:56Z</time>
      </trkpt>
      <trkpt lat="48.04459" lon="-3.76052">
        <ele>224.4</ele>
        <time>2020-06-07T18:55:57Z</time>
      </trkpt>
      <trkpt lat="48.04459" lon="-3.76052">
        <ele>224.4</ele>
        <time>2020-06-07T18:55:58Z</time>
      </trkpt>
      <trkpt lat="48.04459" lon="-3.76052">
        <ele>224.4</ele>
        <time>2020-06-07T18:55:59Z</time>
      </trkpt>
      <trkpt lat="48.0446" lon="-3.76053">
        <ele>224.4</ele>
        <time>2020-06-07T18:56:00Z</time>
      </trkpt>
      <trkpt lat="48.0446" lon="-3.76054">
        <ele>224.4</ele>
        <time>2020-06-07T18:56:01Z</time>
      </trkpt>
      <trkpt lat="48.0446" lon="-3.76054">
        <ele>224.4</ele>
        <time>2020-06-07T18:56:02Z</time>
      </trkpt>
      <trkpt lat="48.04461" lon="-3.76055">
        <ele>224.4</ele>
        <time>2020-06-07T18:56:03Z</time>
      </trkpt>
      <trkpt lat="48.04461" lon="-3.76056">
        <ele>224.4</ele>
        <time>2020-06-07T18:56:04Z</time>
      </trkpt>
      <trkpt lat="48.04461" lon="-3.76056">
        <ele>224.4</ele>
        <time>2020-06-07T18:56:05Z</time>
      </trkpt>
      <trkpt lat="48.04461" lon="-3.76057">
        <ele>224.5</ele>
        <time>2020-06-07T18:56:06Z</time>
      </trkpt>
      <trkpt lat="48.04461" lon="-3.76059">
        <ele>224.5</ele>
        <time>2020-06-07T18:56:07Z</time>
      </trkpt>
      <trkpt lat="48.04462" lon="-3.7606">
        <ele>224.5</ele>
        <time>2020-06-07T18:56:08Z</time>
      </trkpt>
      <trkpt lat="48.04463" lon="-3.7606">
        <ele>224.5</ele>
        <time>2020-06-07T18:56:09Z</time>
      </trkpt>
      <trkpt lat="48.04463" lon="-3.7606">
        <ele>224.5</ele>
        <time>2020-06-07T18:56:10Z</time>
      </trkpt>
      <trkpt lat="48.04463" lon="-3.7606">
        <ele>224.5</ele>
        <time>2020-06-07T18:56:11Z</time>
      </trkpt>
      <trkpt lat="48.04464" lon="-3.76061">
        <ele>224.5</ele>
        <time>2020-06-07T18:56:12Z</time>
      </trkpt>
      <trkpt lat="48.04464" lon="-3.7606">
        <ele>224.5</ele>
        <time>2020-06-07T18:56:13Z</time>
      </trkpt>
      <trkpt lat="48.04464" lon="-3.7606">
        <ele>224.5</ele>
        <time>2020-06-07T18:56:14Z</time>
      </trkpt>
      <trkpt lat="48.04463" lon="-3.7606">
        <ele>224.5</ele>
        <time>2020-06-07T18:56:15Z</time>
      </trkpt>
      <trkpt lat="48.04463" lon="-3.76059">
        <ele>224.5</ele>
        <time>2020-06-07T18:56:16Z</time>
      </trkpt>
      <trkpt lat="48.04463" lon="-3.76059">
        <ele>224.5</ele>
        <time>2020-06-07T18:56:17Z</time>
      </trkpt>
      <trkpt lat="48.04463" lon="-3.7606">
        <ele>224.5</ele>
        <time>2020-06-07T18:56:18Z</time>
      </trkpt>
      <trkpt lat="48.04462" lon="-3.76059">
        <ele>224.5</ele>
        <time>2020-06-07T18:56:19Z</time>
      </trkpt>
      <trkpt lat="48.04463" lon="-3.7606">
        <ele>224.5</ele>
        <time>2020-06-07T18:56:20Z</time>
      </trkpt>
      <trkpt lat="48.04463" lon="-3.76061">
        <ele>224.5</ele>
        <time>2020-06-07T18:56:21Z</time>
      </trkpt>
      <trkpt lat="48.04463" lon="-3.76061">
        <ele>224.5</ele>
        <time>2020-06-07T18:56:22Z</time>
      </trkpt>
      <trkpt lat="48.04463" lon="-3.76061">
        <ele>224.5</ele>
        <time>2020-06-07T18:56:23Z</time>
      </trkpt>
      <trkpt lat="48.04462" lon="-3.76061">
        <ele>224.5</ele>
        <time>2020-06-07T18:56:24Z</time>
      </trkpt>
      <trkpt lat="48.04462" lon="-3.76061">
        <ele>224.5</ele>
        <time>2020-06-07T18:56:25Z</time>
      </trkpt>
      <trkpt lat="48.04462" lon="-3.76061">
        <ele>224.5</ele>
        <time>2020-06-07T18:56:26Z</time>
      </trkpt>
      <trkpt lat="48.04461" lon="-3.7606">
        <ele>224.5</ele>
        <time>2020-06-07T18:56:27Z</time>
      </trkpt>
      <trkpt lat="48.04461" lon="-3.7606">
        <ele>224.5</ele>
        <time>2020-06-07T18:56:28Z</time>
      </trkpt>
      <trkpt lat="48.0446" lon="-3.76059">
        <ele>224.4</ele>
        <time>2020-06-07T18:56:29Z</time>
      </trkpt>
      <trkpt lat="48.04461" lon="-3.76058">
        <ele>224.4</ele>
        <time>2020-06-07T18:56:30Z</time>
      </trkpt>
      <trkpt lat="48.04461" lon="-3.76056">
        <ele>224.5</ele>
        <time>2020-06-07T18:56:31Z</time>
      </trkpt>
      <trkpt lat="48.04462" lon="-3.76055">
        <ele>224.5</ele>
        <time>2020-06-07T18:56:32Z</time>
      </trkpt>
      <trkpt lat="48.04463" lon="-3.76054">
        <ele>224.5</ele>
        <time>2020-06-07T18:56:33Z</time>
      </trkpt>
      <trkpt lat="48.04464" lon="-3.76054">
        <ele>224.5</ele>
        <time>2020-06-07T18:56:34Z</time>
      </trkpt>
      <trkpt lat="48.04464" lon="-3.76053">
        <ele>224.5</ele>
        <time>2020-06-07T18:56:35Z</time>
      </trkpt>
      <trkpt lat="48.04464" lon="-3.76053">
        <ele>224.4</ele>
        <time>2020-06-07T18:56:36Z</time>
      </trkpt>
      <trkpt lat="48.04464" lon="-3.76053">
        <ele>224.5</ele>
        <time>2020-06-07T18:56:37Z</time>
      </trkpt>
      <trkpt lat="48.04464" lon="-3.76053">
        <ele>224.4</ele>
        <time>2020-06-07T18:56:38Z</time>
      </trkpt>
      <trkpt lat="48.04463" lon="-3.76053">
        <ele>224.4</ele>
        <time>2020-06-07T18:56:39Z</time>
      </trkpt>
      <trkpt lat="48.04463" lon="-3.76053">
        <ele>224.4</ele>
        <time>2020-06-07T18:56:40Z</time>
      </trkpt>
      <trkpt lat="48.04463" lon="-3.76053">
        <ele>224.4</ele>
        <time>2020-06-07T18:56:41Z</time>
      </trkpt>
      <trkpt lat="48.04463" lon="-3.76054">
        <ele>224.4</ele>
        <time>2020-06-07T18:56:42Z</time>
      </trkpt>
      <trkpt lat="48.04463" lon="-3.76054">
        <ele>224.4</ele>
        <time>2020-06-07T18:56:43Z</time>
      </trkpt>
      <trkpt lat="48.04464" lon="-3.76054">
        <ele>224.5</ele>
        <time>2020-06-07T18:56:44Z</time>
      </trkpt>
      <trkpt lat="48.04463" lon="-3.76054">
        <ele>224.4</ele>
        <time>2020-06-07T18:56:45Z</time>
      </trkpt>
      <trkpt lat="48.04469" lon="-3.76042">
        <ele>224.4</ele>
        <time>2020-06-07T18:57:47Z</time>
      </trkpt>
      <trkpt lat="48.04468" lon="-3.76041">
        <ele>224.3</ele>
        <time>2020-06-07T18:57:48Z</time>
      </trkpt>
      <trkpt lat="48.04469" lon="-3.76041">
        <ele>224.3</ele>
        <time>2020-06-07T18:57:49Z</time>
      </trkpt>
      <trkpt lat="48.0447" lon="-3.76041">
        <ele>224.3</ele>
        <time>2020-06-07T18:57:50Z</time>
      </trkpt>
      <trkpt lat="48.04471" lon="-3.7604">
        <ele>224.3</ele>
        <time>2020-06-07T18:57:51Z</time>
      </trkpt>
      <trkpt lat="48.04471" lon="-3.7604">
        <ele>224.3</ele>
        <time>2020-06-07T18:57:52Z</time>
      </trkpt>
      <trkpt lat="48.04471" lon="-3.76041">
        <ele>224.3</ele>
        <time>2020-06-07T18:57:53Z</time>
      </trkpt>
      <trkpt lat="48.04471" lon="-3.76041">
        <ele>224.3</ele>
        <time>2020-06-07T18:57:54Z</time>
      </trkpt>
      <trkpt lat="48.04471" lon="-3.76041">
        <ele>224.3</ele>
        <time>2020-06-07T18:57:55Z</time>
      </trkpt>
      <trkpt lat="48.0447" lon="-3.76041">
        <ele>224.3</ele>
        <time>2020-06-07T18:57:56Z</time>
      </trkpt>
      <trkpt lat="48.0447" lon="-3.76041">
        <ele>224.3</ele>
        <time>2020-06-07T18:57:57Z</time>
      </trkpt>
      <trkpt lat="48.0447" lon="-3.76041">
        <ele>224.3</ele>
        <time>2020-06-07T18:57:58Z</time>
      </trkpt>
      <trkpt lat="48.0447" lon="-3.7604">
        <ele>224.3</ele>
        <time>2020-06-07T18:57:59Z</time>
      </trkpt>
      <trkpt lat="48.04471" lon="-3.76041">
        <ele>224.3</ele>
        <time>2020-06-07T18:58:00Z</time>
      </trkpt>
      <trkpt lat="48.04471" lon="-3.76042">
        <ele>224.4</ele>
        <time>2020-06-07T18:58:01Z</time>
      </trkpt>
      <trkpt lat="48.04471" lon="-3.76043">
        <ele>224.4</ele>
        <time>2020-06-07T18:58:02Z</time>
      </trkpt>
      <trkpt lat="48.04471" lon="-3.76043">
        <ele>224.4</ele>
        <time>2020-06-07T18:58:03Z</time>
      </trkpt>
      <trkpt lat="48.0447" lon="-3.76043">
        <ele>224.4</ele>
        <time>2020-06-07T18:58:04Z</time>
      </trkpt>
      <trkpt lat="48.04471" lon="-3.76044">
        <ele>224.4</ele>
        <time>2020-06-07T18:58:05Z</time>
      </trkpt>
      <trkpt lat="48.04471" lon="-3.76043">
        <ele>224.4</ele>
        <time>2020-06-07T18:58:06Z</time>
      </trkpt>
      <trkpt lat="48.0447" lon="-3.76043">
        <ele>224.4</ele>
        <time>2020-06-07T18:58:07Z</time>
      </trkpt>
      <trkpt lat="48.0447" lon="-3.76043">
        <ele>224.4</ele>
        <time>2020-06-07T18:58:08Z</time>
      </trkpt>
      <trkpt lat="48.0447" lon="-3.76043">
        <ele>224.4</ele>
        <time>2020-06-07T18:58:09Z</time>
      </trkpt>
      <trkpt lat="48.0447" lon="-3.76043">
        <ele>224.4</ele>
        <time>2020-06-07T18:58:10Z</time>
      </trkpt>
      <trkpt lat="48.0447" lon="-3.76043">
        <ele>224.4</ele>
        <time>2020-06-07T18:58:11Z</time>
      </trkpt>
      <trkpt lat="48.04471" lon="-3.76043">
        <ele>224.4</ele>
        <time>2020-06-07T18:58:12Z</time>
      </trkpt>
      <trkpt lat="48.04471" lon="-3.76043">
        <ele>224.4</ele>
        <time>2020-06-07T18:58:13Z</time>
      </trkpt>
      <trkpt lat="48.04471" lon="-3.76044">
        <ele>224.4</ele>
        <time>2020-06-07T18:58:14Z</time>
      </trkpt>
      <trkpt lat="48.04471" lon="-3.76044">
        <ele>224.4</ele>
        <time>2020-06-07T18:58:15Z</time>
      </trkpt>
      <trkpt lat="48.04463" lon="-3.76036">
        <ele>224.1</ele>
        <time>2020-06-07T18:59:04Z</time>
      </trkpt>
      <trkpt lat="48.04462" lon="-3.76036">
        <ele>224.1</ele>
        <time>2020-06-07T18:59:05Z</time>
      </trkpt>
      <trkpt lat="48.04461" lon="-3.76037">
        <ele>224.1</ele>
        <time>2020-06-07T18:59:06Z</time>
      </trkpt>
      <trkpt lat="48.04461" lon="-3.76037">
        <ele>224.1</ele>
        <time>2020-06-07T18:59:07Z</time>
      </trkpt>
      <trkpt lat="48.04461" lon="-3.76037">
        <ele>224.2</ele>
        <time>2020-06-07T18:59:08Z</time>
      </trkpt>
      <trkpt lat="48.04461" lon="-3.76038">
        <ele>224.2</ele>
        <time>2020-06-07T18:59:09Z</time>
      </trkpt>
      <trkpt lat="48.04461" lon="-3.76038">
        <ele>224.2</ele>
        <time>2020-06-07T18:59:10Z</time>
      </trkpt>
      <trkpt lat="48.04461" lon="-3.76039">
        <ele>224.2</ele>
        <time>2020-06-07T18:59:11Z</time>
      </trkpt>
      <trkpt lat="48.04462" lon="-3.7604">
        <ele>224.2</ele>
        <time>2020-06-07T18:59:12Z</time>
      </trkpt>
      <trkpt lat="48.04463" lon="-3.7604">
        <ele>224.2</ele>
        <time>2020-06-07T18:59:13Z</time>
      </trkpt>
      <trkpt lat="48.04463" lon="-3.7604">
        <ele>224.2</ele>
        <time>2020-06-07T18:59:14Z</time>
      </trkpt>
      <trkpt lat="48.04464" lon="-3.76041">
        <ele>224.2</ele>
        <time>2020-06-07T18:59:15Z</time>
      </trkpt>
      <trkpt lat="48.04465" lon="-3.76041">
        <ele>224.2</ele>
        <time>2020-06-07T18:59:16Z</time>
      </trkpt>
      <trkpt lat="48.04466" lon="-3.76042">
        <ele>224.3</ele>
        <time>2020-06-07T18:59:17Z</time>
      </trkpt>
      <trkpt lat="48.04466" lon="-3.76042">
        <ele>224.3</ele>
        <time>2020-06-07T18:59:18Z</time>
      </trkpt>
      <trkpt lat="48.04466" lon="-3.76042">
        <ele>224.3</ele>
        <time>2020-06-07T18:59:19Z</time>
      </trkpt>
      <trkpt lat="48.04465" lon="-3.76042">
        <ele>224.3</ele>
        <time>2020-06-07T18:59:20Z</time>
      </trkpt>
      <trkpt lat="48.04465" lon="-3.76043">
        <ele>224.3</ele>
        <time>2020-06-07T18:59:21Z</time>
      </trkpt>
      <trkpt lat="48.04464" lon="-3.76045">
        <ele>224.3</ele>
        <time>2020-06-07T18:59:22Z</time>
      </trkpt>
      <trkpt lat="48.04463" lon="-3.76045">
        <ele>224.3</ele>
        <time>2020-06-07T18:59:23Z</time>
      </trkpt>
      <trkpt lat="48.04462" lon="-3.76045">
        <ele>224.3</ele>
        <time>2020-06-07T18:59:24Z</time>
      </trkpt>
      <trkpt lat="48.0446" lon="-3.76046">
        <ele>224.3</ele>
        <time>2020-06-07T18:59:25Z</time>
      </trkpt>
      <trkpt lat="48.0446" lon="-3.76047">
        <ele>224.3</ele>
        <time>2020-06-07T18:59:26Z</time>
      </trkpt>
      <trkpt lat="48.0446" lon="-3.76048">
        <ele>224.3</ele>
        <time>2020-06-07T18:59:27Z</time>
      </trkpt>
      <trkpt lat="48.0446" lon="-3.76049">
        <ele>224.3</ele>
        <time>2020-06-07T18:59:28Z</time>
      </trkpt>
      <trkpt lat="48.0446" lon="-3.7605">
        <ele>224.3</ele>
        <time>2020-06-07T18:59:29Z</time>
      </trkpt>
      <trkpt lat="48.0446" lon="-3.7605">
        <ele>224.3</ele>
        <time>2020-06-07T18:59:30Z</time>
      </trkpt>
      <trkpt lat="48.0446" lon="-3.7605">
        <ele>224.4</ele>
        <time>2020-06-07T18:59:31Z</time>
      </trkpt>
      <trkpt lat="48.0446" lon="-3.7605">
        <ele>224.4</ele>
        <time>2020-06-07T18:59:32Z</time>
      </trkpt>
      <trkpt lat="48.04459" lon="-3.76051">
        <ele>224.4</ele>
        <time>2020-06-07T18:59:33Z</time>
      </trkpt>
      <trkpt lat="48.04459" lon="-3.76051">
        <ele>224.4</ele>
        <time>2020-06-07T18:59:34Z</time>
      </trkpt>
      <trkpt lat="48.0446" lon="-3.76051">
        <ele>224.4</ele>
        <time>2020-06-07T18:59:35Z</time>
      </trkpt>
      <trkpt lat="48.0446" lon="-3.76051">
        <ele>224.4</ele>
        <time>2020-06-07T18:59:36Z</time>
      </trkpt>
      <trkpt lat="48.0446" lon="-3.76051">
        <ele>224.4</ele>
        <time>2020-06-07T18:59:37Z</time>
      </trkpt>
      <trkpt lat="48.04461" lon="-3.76051">
        <ele>224.4</ele>
        <time>2020-06-07T18:59:38Z</time>
      </trkpt>
      <trkpt lat="48.04461" lon="-3.76052">
        <ele>224.4</ele>
        <time>2020-06-07T18:59:39Z</time>
      </trkpt>
      <trkpt lat="48.04461" lon="-3.76052">
        <ele>224.4</ele>
        <time>2020-06-07T18:59:40Z</time>
      </trkpt>
      <trkpt lat="48.04455" lon="-3.76057">
        <ele>224.3</ele>
        <time>2020-06-07T18:59:58Z</time>
      </trkpt>
      <trkpt lat="48.04454" lon="-3.76057">
        <ele>224.3</ele>
        <time>2020-06-07T18:59:59Z</time>
      </trkpt>
      <trkpt lat="48.04453" lon="-3.76057">
        <ele>224.3</ele>
        <time>2020-06-07T19:00:00Z</time>
      </trkpt>
      <trkpt lat="48.04452" lon="-3.76057">
        <ele>224.3</ele>
        <time>2020-06-07T19:00:01Z</time>
      </trkpt>
      <trkpt lat="48.04451" lon="-3.76057">
        <ele>224.3</ele>
        <time>2020-06-07T19:00:02Z</time>
      </trkpt>
      <trkpt lat="48.04451" lon="-3.76057">
        <ele>224.3</ele>
        <time>2020-06-07T19:00:03Z</time>
      </trkpt>
      <trkpt lat="48.0445" lon="-3.76057">
        <ele>224.3</ele>
        <time>2020-06-07T19:00:04Z</time>
      </trkpt>
      <trkpt lat="48.0445" lon="-3.76057">
        <ele>224.3</ele>
        <time>2020-06-07T19:00:05Z</time>
      </trkpt>
      <trkpt lat="48.0445" lon="-3.76057">
        <ele>224.3</ele>
        <time>2020-06-07T19:00:06Z</time>
      </trkpt>
      <trkpt lat="48.0445" lon="-3.76057">
        <ele>224.3</ele>
        <time>2020-06-07T19:00:07Z</time>
      </trkpt>
      <trkpt lat="48.0445" lon="-3.76057">
        <ele>224.3</ele>
        <time>2020-06-07T19:00:08Z</time>
      </trkpt>
      <trkpt lat="48.04451" lon="-3.76057">
        <ele>224.3</ele>
        <time>2020-06-07T19:00:09Z</time>
      </trkpt>
      <trkpt lat="48.0445" lon="-3.76057">
        <ele>224.3</ele>
        <time>2020-06-07T19:00:10Z</time>
      </trkpt>
      <trkpt lat="48.0445" lon="-3.76057">
        <ele>224.3</ele>
        <time>2020-06-07T19:00:11Z</time>
      </trkpt>
      <trkpt lat="48.0445" lon="-3.76057">
        <ele>224.3</ele>
        <time>2020-06-07T19:00:12Z</time>
      </trkpt>
      <trkpt lat="48.0445" lon="-3.76057">
        <ele>224.3</ele>
        <time>2020-06-07T19:00:13Z</time>
      </trkpt>
      <trkpt lat="48.0445" lon="-3.76057">
        <ele>224.3</ele>
        <time>2020-06-07T19:00:14Z</time>
      </trkpt>
      <trkpt lat="48.0445" lon="-3.76057">
        <ele>224.3</ele>
        <time>2020-06-07T19:00:15Z</time>
      </trkpt>
      <trkpt lat="48.04451" lon="-3.76057">
        <ele>224.3</ele>
        <time>2020-06-07T19:00:16Z</time>
      </trkpt>
      <trkpt lat="48.04451" lon="-3.76057">
        <ele>224.3</ele>
        <time>2020-06-07T19:00:17Z</time>
      </trkpt>
      <trkpt lat="48.0445" lon="-3.76056">
        <ele>224.3</ele>
        <time>2020-06-07T19:00:18Z</time>
      </trkpt>
      <trkpt lat="48.04455" lon="-3.76047">
        <ele>224.2</ele>
        <time>2020-06-07T19:00:52Z</time>
      </trkpt>
      <trkpt lat="48.04455" lon="-3.76047">
        <ele>224.2</ele>
        <time>2020-06-07T19:00:53Z</time>
      </trkpt>
      <trkpt lat="48.04455" lon="-3.76047">
        <ele>224.3</ele>
        <time>2020-06-07T19:00:54Z</time>
      </trkpt>
      <trkpt lat="48.04456" lon="-3.76047">
        <ele>224.3</ele>
        <time>2020-06-07T19:00:55Z</time>
      </trkpt>
      <trkpt lat="48.04456" lon="-3.76047">
        <ele>224.3</ele>
        <time>2020-06-07T19:00:56Z</time>
      </trkpt>
      <trkpt lat="48.04456" lon="-3.76047">
        <ele>224.3</ele>
        <time>2020-06-07T19:00:57Z</time>
      </trkpt>
      <trkpt lat="48.04456" lon="-3.76047">
        <ele>224.3</ele>
        <time>2020-06-07T19:00:58Z</time>
      </trkpt>
      <trkpt lat="48.04457" lon="-3.76047">
        <ele>224.3</ele>
        <time>2020-06-07T19:00:59Z</time>
      </trkpt>
      <trkpt lat="48.04457" lon="-3.76047">
        <ele>224.3</ele>
        <time>2020-06-07T19:01:00Z</time>
      </trkpt>
      <trkpt lat="48.04458" lon="-3.76047">
        <ele>224.3</ele>
        <time>2020-06-07T19:01:01Z</time>
      </trkpt>
      <trkpt lat="48.04458" lon="-3.76047">
        <ele>224.3</ele>
        <time>2020-06-07T19:01:02Z</time>
      </trkpt>
      <trkpt lat="48.04458" lon="-3.76047">
        <ele>224.3</ele>
        <time>2020-06-07T19:01:03Z</time>
      </trkpt>
      <trkpt lat="48.04466" lon="-3.76042">
        <ele>224.3</ele>
        <time>2020-06-07T19:01:17Z</time>
      </trkpt>
      <trkpt lat="48.04466" lon="-3.76042">
        <ele>224.3</ele>
        <time>2020-06-07T19:01:18Z</time>
      </trkpt>
      <trkpt lat="48.04466" lon="-3.76043">
        <ele>224.3</ele>
        <time>2020-06-07T19:01:19Z</time>
      </trkpt>
      <trkpt lat="48.04467" lon="-3.76042">
        <ele>224.4</ele>
        <time>2020-06-07T19:01:20Z</time>
      </trkpt>
      <trkpt lat="48.04467" lon="-3.76041">
        <ele>224.3</ele>
        <time>2020-06-07T19:01:21Z</time>
      </trkpt>
      <trkpt lat="48.04468" lon="-3.7604">
        <ele>224.3</ele>
        <time>2020-06-07T19:01:22Z</time>
      </trkpt>
      <trkpt lat="48.04469" lon="-3.76039">
        <ele>224.3</ele>
        <time>2020-06-07T19:01:23Z</time>
      </trkpt>
      <trkpt lat="48.0447" lon="-3.76038">
        <ele>224.3</ele>
        <time>2020-06-07T19:01:24Z</time>
      </trkpt>
      <trkpt lat="48.04471" lon="-3.76037">
        <ele>224.3</ele>
        <time>2020-06-07T19:01:25Z</time>
      </trkpt>
      <trkpt lat="48.04471" lon="-3.76036">
        <ele>224.3</ele>
        <time>2020-06-07T19:01:26Z</time>
      </trkpt>
      <trkpt lat="48.04471" lon="-3.76036">
        <ele>224.3</ele>
        <time>2020-06-07T19:01:27Z</time>
      </trkpt>
      <trkpt lat="48.04471" lon="-3.76036">
        <ele>224.3</ele>
        <time>2020-06-07T19:01:28Z</time>
      </trkpt>
      <trkpt lat="48.04471" lon="-3.76036">
        <ele>224.3</ele>
        <time>2020-06-07T19:01:29Z</time>
      </trkpt>
      <trkpt lat="48.04471" lon="-3.76036">
        <ele>224.3</ele>
        <time>2020-06-07T19:01:30Z</time>
      </trkpt>
      <trkpt lat="48.04471" lon="-3.76036">
        <ele>224.3</ele>
        <time>2020-06-07T19:01:31Z</time>
      </trkpt>
      <trkpt lat="48.04471" lon="-3.76036">
        <ele>224.3</ele>
        <time>2020-06-07T19:01:32Z</time>
      </trkpt>
      <trkpt lat="48.04471" lon="-3.76036">
        <ele>224.3</ele>
        <time>2020-06-07T19:01:33Z</time>
      </trkpt>
      <trkpt lat="48.04472" lon="-3.76036">
        <ele>224.3</ele>
        <time>2020-06-07T19:01:34Z</time>
      </trkpt>
      <trkpt lat="48.04472" lon="-3.76036">
        <ele>224.3</ele>
        <time>2020-06-07T19:01:35Z</time>
      </trkpt>
      <trkpt lat="48.04472" lon="-3.76036">
        <ele>224.3</ele>
        <time>2020-06-07T19:01:36Z</time>
      </trkpt>
      <trkpt lat="48.04472" lon="-3.76036">
        <ele>224.3</ele>
        <time>2020-06-07T19:01:37Z</time>
      </trkpt>
      <trkpt lat="48.04464" lon="-3.76062">
        <ele>224.5</ele>
        <time>2020-06-07T19:08:53Z</time>
      </trkpt>
      <trkpt lat="48.04465" lon="-3.76063">
        <ele>224.5</ele>
        <time>2020-06-07T19:08:54Z</time>
      </trkpt>
      <trkpt lat="48.04464" lon="-3.76063">
        <ele>224.5</ele>
        <time>2020-06-07T19:08:55Z</time>
      </trkpt>
      <trkpt lat="48.04464" lon="-3.76063">
        <ele>224.5</ele>
        <time>2020-06-07T19:08:56Z</time>
      </trkpt>
      <trkpt lat="48.04464" lon="-3.76063">
        <ele>224.5</ele>
        <time>2020-06-07T19:08:57Z</time>
      </trkpt>
      <trkpt lat="48.04464" lon="-3.76064">
        <ele>224.5</ele>
        <time>2020-06-07T19:08:58Z</time>
      </trkpt>
      <trkpt lat="48.04464" lon="-3.76064">
        <ele>224.5</ele>
        <time>2020-06-07T19:08:59Z</time>
      </trkpt>
      <trkpt lat="48.04464" lon="-3.76065">
        <ele>224.5</ele>
        <time>2020-06-07T19:09:00Z</time>
      </trkpt>
      <trkpt lat="48.04463" lon="-3.76065">
        <ele>224.5</ele>
        <time>2020-06-07T19:09:01Z</time>
      </trkpt>
      <trkpt lat="48.04464" lon="-3.76066">
        <ele>224.5</ele>
        <time>2020-06-07T19:09:02Z</time>
      </trkpt>
      <trkpt lat="48.04463" lon="-3.76065">
        <ele>224.5</ele>
        <time>2020-06-07T19:09:03Z</time>
      </trkpt>
      <trkpt lat="48.04463" lon="-3.76064">
        <ele>224.5</ele>
        <time>2020-06-07T19:09:04Z</time>
      </trkpt>
      <trkpt lat="48.04463" lon="-3.76063">
        <ele>224.5</ele>
        <time>2020-06-07T19:09:05Z</time>
      </trkpt>
      <trkpt lat="48.04463" lon="-3.76063">
        <ele>224.5</ele>
        <time>2020-06-07T19:09:06Z</time>
      </trkpt>
      <trkpt lat="48.04463" lon="-3.76061">
        <ele>224.5</ele>
        <time>2020-06-07T19:09:07Z</time>
      </trkpt>
      <trkpt lat="48.04467" lon="-3.76055">
        <ele>224.6</ele>
        <time>2020-06-07T19:09:16Z</time>
      </trkpt>
      <trkpt lat="48.04467" lon="-3.76054">
        <ele>224.5</ele>
        <time>2020-06-07T19:09:17Z</time>
      </trkpt>
      <trkpt lat="48.04467" lon="-3.76053">
        <ele>224.5</ele>
        <time>2020-06-07T19:09:18Z</time>
      </trkpt>
      <trkpt lat="48.04467" lon="-3.76053">
        <ele>224.5</ele>
        <time>2020-06-07T19:09:19Z</time>
      </trkpt>
      <trkpt lat="48.04468" lon="-3.76052">
        <ele>224.5</ele>
        <time>2020-06-07T19:09:20Z</time>
      </trkpt>
      <trkpt lat="48.04468" lon="-3.76052">
        <ele>224.5</ele>
        <time>2020-06-07T19:09:21Z</time>
      </trkpt>
      <trkpt lat="48.04468" lon="-3.76051">
        <ele>224.5</ele>
        <time>2020-06-07T19:09:22Z</time>
      </trkpt>
      <trkpt lat="48.04468" lon="-3.7605">
        <ele>224.5</ele>
        <time>2020-06-07T19:09:23Z</time>
      </trkpt>
      <trkpt lat="48.04468" lon="-3.7605">
        <ele>224.5</ele>
        <time>2020-06-07T19:09:24Z</time>
      </trkpt>
      <trkpt lat="48.04467" lon="-3.7605">
        <ele>224.5</ele>
        <time>2020-06-07T19:09:25Z</time>
      </trkpt>
      <trkpt lat="48.04466" lon="-3.7605">
        <ele>224.4</ele>
        <time>2020-06-07T19:09:26Z</time>
      </trkpt>
      <trkpt lat="48.04465" lon="-3.76051">
        <ele>224.5</ele>
        <time>2020-06-07T19:09:27Z</time>
      </trkpt>
      <trkpt lat="48.04465" lon="-3.76051">
        <ele>224.5</ele>
        <time>2020-06-07T19:09:28Z</time>
      </trkpt>
      <trkpt lat="48.04465" lon="-3.76051">
        <ele>224.5</ele>
        <time>2020-06-07T19:09:29Z</time>
      </trkpt>
      <trkpt lat="48.04465" lon="-3.76052">
        <ele>224.5</ele>
        <time>2020-06-07T19:09:30Z</time>
      </trkpt>
      <trkpt lat="48.04465" lon="-3.76052">
        <ele>224.5</ele>
        <time>2020-06-07T19:09:31Z</time>
      </trkpt>
      <trkpt lat="48.04465" lon="-3.76051">
        <ele>224.5</ele>
        <time>2020-06-07T19:09:32Z</time>
      </trkpt>
      <trkpt lat="48.04465" lon="-3.76051">
        <ele>224.5</ele>
        <time>2020-06-07T19:09:33Z</time>
      </trkpt>
      <trkpt lat="48.04466" lon="-3.76052">
        <ele>224.5</ele>
        <time>2020-06-07T19:09:34Z</time>
      </trkpt>
      <trkpt lat="48.04462" lon="-3.7605">
        <ele>224.4</ele>
        <time>2020-06-07T19:12:32Z</time>
      </trkpt>
      <trkpt lat="48.04461" lon="-3.7605">
        <ele>224.4</ele>
        <time>2020-06-07T19:12:33Z</time>
      </trkpt>
      <trkpt lat="48.04461" lon="-3.76051">
        <ele>224.4</ele>
        <time>2020-06-07T19:12:34Z</time>
      </trkpt>
      <trkpt lat="48.0446" lon="-3.7605">
        <ele>224.4</ele>
        <time>2020-06-07T19:12:35Z</time>
      </trkpt>
      <trkpt lat="48.0446" lon="-3.7605">
        <ele>224.4</ele>
        <time>2020-06-07T19:12:36Z</time>
      </trkpt>
      <trkpt lat="48.0446" lon="-3.7605">
        <ele>224.4</ele>
        <time>2020-06-07T19:12:37Z</time>
      </trkpt>
      <trkpt lat="48.04459" lon="-3.7605">
        <ele>224.4</ele>
        <time>2020-06-07T19:12:38Z</time>
      </trkpt>
      <trkpt lat="48.04458" lon="-3.7605">
        <ele>224.3</ele>
        <time>2020-06-07T19:12:39Z</time>
      </trkpt>
      <trkpt lat="48.04457" lon="-3.76049">
        <ele>224.3</ele>
        <time>2020-06-07T19:12:40Z</time>
      </trkpt>
      <trkpt lat="48.04457" lon="-3.76049">
        <ele>224.3</ele>
        <time>2020-06-07T19:12:41Z</time>
      </trkpt>
      <trkpt lat="48.04457" lon="-3.76048">
        <ele>224.3</ele>
        <time>2020-06-07T19:12:42Z</time>
      </trkpt>
      <trkpt lat="48.04457" lon="-3.76049">
        <ele>224.3</ele>
        <time>2020-06-07T19:12:43Z</time>
      </trkpt>
      <trkpt lat="48.04457" lon="-3.76049">
        <ele>224.3</ele>
        <time>2020-06-07T19:12:44Z</time>
      </trkpt>
      <trkpt lat="48.04457" lon="-3.76049">
        <ele>224.3</ele>
        <time>2020-06-07T19:12:45Z</time>
      </trkpt>
      <trkpt lat="48.04458" lon="-3.76049">
        <ele>224.3</ele>
        <time>2020-06-07T19:12:46Z</time>
      </trkpt>
      <trkpt lat="48.04458" lon="-3.7605">
        <ele>224.3</ele>
        <time>2020-06-07T19:12:47Z</time>
      </trkpt>
      <trkpt lat="48.04458" lon="-3.76049">
        <ele>224.3</ele>
        <time>2020-06-07T19:12:48Z</time>
      </trkpt>
      <trkpt lat="48.04458" lon="-3.76049">
        <ele>224.3</ele>
        <time>2020-06-07T19:12:49Z</time>
      </trkpt>
      <trkpt lat="48.04458" lon="-3.7605">
        <ele>224.4</ele>
        <time>2020-06-07T19:12:50Z</time>
      </trkpt>
      <trkpt lat="48.04458" lon="-3.7605">
        <ele>224.4</ele>
        <time>2020-06-07T19:12:51Z</time>
      </trkpt>
      <trkpt lat="48.04459" lon="-3.7605">
        <ele>224.4</ele>
        <time>2020-06-07T19:12:52Z</time>
      </trkpt>
      <trkpt lat="48.04459" lon="-3.7605">
        <ele>224.4</ele>
        <time>2020-06-07T19:12:53Z</time>
      </trkpt>
      <trkpt lat="48.04459" lon="-3.76051">
        <ele>224.4</ele>
        <time>2020-06-07T19:12:54Z</time>
      </trkpt>
      <trkpt lat="48.04459" lon="-3.76051">
        <ele>224.4</ele>
        <time>2020-06-07T19:12:55Z</time>
      </trkpt>
      <trkpt lat="48.04459" lon="-3.7605">
        <ele>224.3</ele>
        <time>2020-06-07T19:12:56Z</time>
      </trkpt>
      <trkpt lat="48.04458" lon="-3.7605">
        <ele>224.4</ele>
        <time>2020-06-07T19:12:57Z</time>
      </trkpt>
      <trkpt lat="48.04458" lon="-3.76052">
        <ele>224.3</ele>
        <time>2020-06-07T19:12:58Z</time>
      </trkpt>
      <trkpt lat="48.04457" lon="-3.76054">
        <ele>224.3</ele>
        <time>2020-06-07T19:12:59Z</time>
      </trkpt>
      <trkpt lat="48.04456" lon="-3.76054">
        <ele>224.4</ele>
        <time>2020-06-07T19:13:00Z</time>
      </trkpt>
      <trkpt lat="48.04456" lon="-3.76054">
        <ele>224.3</ele>
        <time>2020-06-07T19:13:01Z</time>
      </trkpt>
      <trkpt lat="48.04455" lon="-3.76055">
        <ele>224.4</ele>
        <time>2020-06-07T19:13:02Z</time>
      </trkpt>
      <trkpt lat="48.04454" lon="-3.76054">
        <ele>224.3</ele>
        <time>2020-06-07T19:13:03Z</time>
      </trkpt>
      <trkpt lat="48.04454" lon="-3.76054">
        <ele>224.3</ele>
        <time>2020-06-07T19:13:04Z</time>
      </trkpt>
      <trkpt lat="48.04453" lon="-3.76054">
        <ele>224.3</ele>
        <time>2020-06-07T19:13:05Z</time>
      </trkpt>
      <trkpt lat="48.04453" lon="-3.76053">
        <ele>224.3</ele>
        <time>2020-06-07T19:13:06Z</time>
      </trkpt>
      <trkpt lat="48.04453" lon="-3.76053">
        <ele>224.3</ele>
        <time>2020-06-07T19:13:07Z</time>
      </trkpt>
      <trkpt lat="48.04453" lon="-3.76053">
        <ele>224.3</ele>
        <time>2020-06-07T19:13:08Z</time>
      </trkpt>
      <trkpt lat="48.04453" lon="-3.76053">
        <ele>224.3</ele>
        <time>2020-06-07T19:13:09Z</time>
      </trkpt>
      <trkpt lat="48.04454" lon="-3.76054">
        <ele>224.3</ele>
        <time>2020-06-07T19:13:10Z</time>
      </trkpt>
      <trkpt lat="48.04454" lon="-3.76054">
        <ele>224.3</ele>
        <time>2020-06-07T19:13:11Z</time>
      </trkpt>
      <trkpt lat="48.04455" lon="-3.76054">
        <ele>224.3</ele>
        <time>2020-06-07T19:13:12Z</time>
      </trkpt>
      <trkpt lat="48.04455" lon="-3.76055">
        <ele>224.4</ele>
        <time>2020-06-07T19:13:13Z</time>
      </trkpt>
      <trkpt lat="48.04456" lon="-3.76055">
        <ele>224.4</ele>
        <time>2020-06-07T19:13:14Z</time>
      </trkpt>
      <trkpt lat="48.04456" lon="-3.76055">
        <ele>224.4</ele>
        <time>2020-06-07T19:13:15Z</time>
      </trkpt>
      <trkpt lat="48.04456" lon="-3.76054">
        <ele>224.4</ele>
        <time>2020-06-07T19:13:16Z</time>
      </trkpt>
      <trkpt lat="48.04457" lon="-3.76054">
        <ele>224.4</ele>
        <time>2020-06-07T19:13:17Z</time>
      </trkpt>
      <trkpt lat="48.04457" lon="-3.76054">
        <ele>224.3</ele>
        <time>2020-06-07T19:13:18Z</time>
      </trkpt>
      <trkpt lat="48.04457" lon="-3.76054">
        <ele>224.3</ele>
        <time>2020-06-07T19:13:19Z</time>
      </trkpt>
      <trkpt lat="48.04457" lon="-3.76053">
        <ele>224.3</ele>
        <time>2020-06-07T19:13:20Z</time>
      </trkpt>
      <trkpt lat="48.04458" lon="-3.76053">
        <ele>224.4</ele>
        <time>2020-06-07T19:13:21Z</time>
      </trkpt>
      <trkpt lat="48.04459" lon="-3.76052">
        <ele>224.4</ele>
        <time>2020-06-07T19:13:22Z</time>
      </trkpt>
      <trkpt lat="48.0446" lon="-3.76051">
        <ele>224.4</ele>
        <time>2020-06-07T19:13:23Z</time>
      </trkpt>
      <trkpt lat="48.04461" lon="-3.7605">
        <ele>224.4</ele>
        <time>2020-06-07T19:13:24Z</time>
      </trkpt>
      <trkpt lat="48.04462" lon="-3.7605">
        <ele>224.4</ele>
        <time>2020-06-07T19:13:25Z</time>
      </trkpt>
      <trkpt lat="48.04463" lon="-3.76049">
        <ele>224.4</ele>
        <time>2020-06-07T19:13:26Z</time>
      </trkpt>
      <trkpt lat="48.04464" lon="-3.76049">
        <ele>224.4</ele>
        <time>2020-06-07T19:13:27Z</time>
      </trkpt>
      <trkpt lat="48.04464" lon="-3.76049">
        <ele>224.4</ele>
        <time>2020-06-07T19:13:28Z</time>
      </trkpt>
      <trkpt lat="48.04465" lon="-3.76048">
        <ele>224.4</ele>
        <time>2020-06-07T19:13:29Z</time>
      </trkpt>
      <trkpt lat="48.04465" lon="-3.76048">
        <ele>224.4</ele>
        <time>2020-06-07T19:13:30Z</time>
      </trkpt>
      <trkpt lat="48.04466" lon="-3.76048">
        <ele>224.4</ele>
        <time>2020-06-07T19:13:31Z</time>
      </trkpt>
      <trkpt lat="48.04467" lon="-3.76047">
        <ele>224.5</ele>
        <time>2020-06-07T19:13:32Z</time>
      </trkpt>
      <trkpt lat="48.04469" lon="-3.76047">
        <ele>224.5</ele>
        <time>2020-06-07T19:13:33Z</time>
      </trkpt>
      <trkpt lat="48.0447" lon="-3.76046">
        <ele>224.5</ele>
        <time>2020-06-07T19:13:34Z</time>
      </trkpt>
      <trkpt lat="48.04471" lon="-3.76045">
        <ele>224.4</ele>
        <time>2020-06-07T19:13:35Z</time>
      </trkpt>
      <trkpt lat="48.04472" lon="-3.76044">
        <ele>224.5</ele>
        <time>2020-06-07T19:13:36Z</time>
      </trkpt>
      <trkpt lat="48.04473" lon="-3.76043">
        <ele>224.5</ele>
        <time>2020-06-07T19:13:37Z</time>
      </trkpt>
      <trkpt lat="48.04474" lon="-3.76042">
        <ele>224.5</ele>
        <time>2020-06-07T19:13:38Z</time>
      </trkpt>
      <trkpt lat="48.04474" lon="-3.76041">
        <ele>224.4</ele>
        <time>2020-06-07T19:13:39Z</time>
      </trkpt>
      <trkpt lat="48.04475" lon="-3.76041">
        <ele>224.4</ele>
        <time>2020-06-07T19:13:40Z</time>
      </trkpt>
      <trkpt lat="48.04475" lon="-3.76041">
        <ele>224.4</ele>
        <time>2020-06-07T19:13:41Z</time>
      </trkpt>
      <trkpt lat="48.04475" lon="-3.76041">
        <ele>224.4</ele>
        <time>2020-06-07T19:13:42Z</time>
      </trkpt>
      <trkpt lat="48.04475" lon="-3.76041">
        <ele>224.4</ele>
        <time>2020-06-07T19:13:43Z</time>
      </trkpt>
      <trkpt lat="48.04474" lon="-3.7604">
        <ele>224.4</ele>
        <time>2020-06-07T19:13:44Z</time>
      </trkpt>
      <trkpt lat="48.04475" lon="-3.7604">
        <ele>224.4</ele>
        <time>2020-06-07T19:13:45Z</time>
      </trkpt>
      <trkpt lat="48.04476" lon="-3.7604">
        <ele>224.4</ele>
        <time>2020-06-07T19:13:46Z</time>
      </trkpt>
      <trkpt lat="48.04476" lon="-3.76039">
        <ele>224.4</ele>
        <time>2020-06-07T19:13:47Z</time>
      </trkpt>
      <trkpt lat="48.04476" lon="-3.76039">
        <ele>224.4</ele>
        <time>2020-06-07T19:13:48Z</time>
      </trkpt>
      <trkpt lat="48.04476" lon="-3.76039">
        <ele>224.4</ele>
        <time>2020-06-07T19:13:49Z</time>
      </trkpt>
      <trkpt lat="48.04476" lon="-3.76038">
        <ele>224.4</ele>
        <time>2020-06-07T19:13:50Z</time>
      </trkpt>
      <trkpt lat="48.04477" lon="-3.76038">
        <ele>224.4</ele>
        <time>2020-06-07T19:13:51Z</time>
      </trkpt>
      <trkpt lat="48.04477" lon="-3.76037">
        <ele>224.4</ele>
        <time>2020-06-07T19:13:52Z</time>
      </trkpt>
      <trkpt lat="48.04477" lon="-3.76037">
        <ele>224.3</ele>
        <time>2020-06-07T19:13:53Z</time>
      </trkpt>
      <trkpt lat="48.04477" lon="-3.76037">
        <ele>224.3</ele>
        <time>2020-06-07T19:13:54Z</time>
      </trkpt>
      <trkpt lat="48.04478" lon="-3.76037">
        <ele>224.3</ele>
        <time>2020-06-07T19:13:55Z</time>
      </trkpt>
      <trkpt lat="48.04478" lon="-3.76036">
        <ele>224.3</ele>
        <time>2020-06-07T19:13:56Z</time>
      </trkpt>
      <trkpt lat="48.04478" lon="-3.76036">
        <ele>224.4</ele>
        <time>2020-06-07T19:13:57Z</time>
      </trkpt>
      <trkpt lat="48.04479" lon="-3.76036">
        <ele>224.4</ele>
        <time>2020-06-07T19:13:58Z</time>
      </trkpt>
      <trkpt lat="48.04479" lon="-3.76035">
        <ele>224.4</ele>
        <time>2020-06-07T19:13:59Z</time>
      </trkpt>
      <trkpt lat="48.04481" lon="-3.76034">
        <ele>224.4</ele>
        <time>2020-06-07T19:14:00Z</time>
      </trkpt>
      <trkpt lat="48.04481" lon="-3.76032">
        <ele>224.3</ele>
        <time>2020-06-07T19:14:01Z</time>
      </trkpt>
      <trkpt lat="48.04482" lon="-3.76031">
        <ele>224.3</ele>
        <time>2020-06-07T19:14:02Z</time>
      </trkpt>
      <trkpt lat="48.04484" lon="-3.76029">
        <ele>224.3</ele>
        <time>2020-06-07T19:14:03Z</time>
      </trkpt>
      <trkpt lat="48.04484" lon="-3.76028">
        <ele>224.2</ele>
        <time>2020-06-07T19:14:04Z</time>
      </trkpt>
      <trkpt lat="48.04485" lon="-3.76027">
        <ele>224.2</ele>
        <time>2020-06-07T19:14:05Z</time>
      </trkpt>
      <trkpt lat="48.04486" lon="-3.76025">
        <ele>224.2</ele>
        <time>2020-06-07T19:14:06Z</time>
      </trkpt>
      <trkpt lat="48.04486" lon="-3.76024">
        <ele>224.1</ele>
        <time>2020-06-07T19:14:07Z</time>
      </trkpt>
      <trkpt lat="48.04486" lon="-3.76023">
        <ele>224.1</ele>
        <time>2020-06-07T19:14:08Z</time>
      </trkpt>
      <trkpt lat="48.04486" lon="-3.76023">
        <ele>224.1</ele>
        <time>2020-06-07T19:14:09Z</time>
      </trkpt>
      <trkpt lat="48.04486" lon="-3.76023">
        <ele>224.1</ele>
        <time>2020-06-07T19:14:10Z</time>
      </trkpt>
      <trkpt lat="48.04485" lon="-3.76024">
        <ele>224.1</ele>
        <time>2020-06-07T19:14:11Z</time>
      </trkpt>
      <trkpt lat="48.04485" lon="-3.76024">
        <ele>224.1</ele>
        <time>2020-06-07T19:14:12Z</time>
      </trkpt>
      <trkpt lat="48.04485" lon="-3.76024">
        <ele>224.2</ele>
        <time>2020-06-07T19:14:13Z</time>
      </trkpt>
      <trkpt lat="48.04485" lon="-3.76025">
        <ele>224.2</ele>
        <time>2020-06-07T19:14:14Z</time>
      </trkpt>
      <trkpt lat="48.04485" lon="-3.76025">
        <ele>224.2</ele>
        <time>2020-06-07T19:14:15Z</time>
      </trkpt>
      <trkpt lat="48.04484" lon="-3.76026">
        <ele>224.2</ele>
        <time>2020-06-07T19:14:16Z</time>
      </trkpt>
      <trkpt lat="48.04484" lon="-3.76026">
        <ele>224.2</ele>
        <time>2020-06-07T19:14:17Z</time>
      </trkpt>
      <trkpt lat="48.04484" lon="-3.76027">
        <ele>224.2</ele>
        <time>2020-06-07T19:14:18Z</time>
      </trkpt>
      <trkpt lat="48.04484" lon="-3.76027">
        <ele>224.2</ele>
        <time>2020-06-07T19:14:19Z</time>
      </trkpt>
      <trkpt lat="48.04482" lon="-3.76031">
        <ele>224.3</ele>
        <time>2020-06-07T19:14:20Z</time>
      </trkpt>
      <trkpt lat="48.04481" lon="-3.76033">
        <ele>224.3</ele>
        <time>2020-06-07T19:14:21Z</time>
      </trkpt>
      <trkpt lat="48.0448" lon="-3.76035">
        <ele>224.4</ele>
        <time>2020-06-07T19:14:22Z</time>
      </trkpt>
      <trkpt lat="48.04479" lon="-3.76037">
        <ele>224.4</ele>
        <time>2020-06-07T19:14:23Z</time>
      </trkpt>
      <trkpt lat="48.04479" lon="-3.76039">
        <ele>224.5</ele>
        <time>2020-06-07T19:14:24Z</time>
      </trkpt>
      <trkpt lat="48.04478" lon="-3.7604">
        <ele>224.5</ele>
        <time>2020-06-07T19:14:25Z</time>
      </trkpt>
      <trkpt lat="48.04478" lon="-3.76041">
        <ele>224.4</ele>
        <time>2020-06-07T19:14:26Z</time>
      </trkpt>
      <trkpt lat="48.04477" lon="-3.76042">
        <ele>224.5</ele>
        <time>2020-06-07T19:14:27Z</time>
      </trkpt>
      <trkpt lat="48.04476" lon="-3.76042">
        <ele>224.5</ele>
        <time>2020-06-07T19:14:28Z</time>
      </trkpt>
      <trkpt lat="48.04476" lon="-3.76043">
        <ele>224.5</ele>
        <time>2020-06-07T19:14:29Z</time>
      </trkpt>
      <trkpt lat="48.04475" lon="-3.76044">
        <ele>224.5</ele>
        <time>2020-06-07T19:14:30Z</time>
      </trkpt>
      <trkpt lat="48.04473" lon="-3.76045">
        <ele>224.5</ele>
        <time>2020-06-07T19:14:31Z</time>
      </trkpt>
      <trkpt lat="48.04472" lon="-3.76046">
        <ele>224.4</ele>
        <time>2020-06-07T19:14:32Z</time>
      </trkpt>
      <trkpt lat="48.04471" lon="-3.76046">
        <ele>224.5</ele>
        <time>2020-06-07T19:14:33Z</time>
      </trkpt>
      <trkpt lat="48.0447" lon="-3.76047">
        <ele>224.6</ele>
        <time>2020-06-07T19:14:34Z</time>
      </trkpt>
      <trkpt lat="48.0447" lon="-3.76047">
        <ele>224.6</ele>
        <time>2020-06-07T19:14:35Z</time>
      </trkpt>
      <trkpt lat="48.04469" lon="-3.76047">
        <ele>224.6</ele>
        <time>2020-06-07T19:14:36Z</time>
      </trkpt>
      <trkpt lat="48.04469" lon="-3.76047">
        <ele>224.6</ele>
        <time>2020-06-07T19:14:37Z</time>
      </trkpt>
      <trkpt lat="48.04469" lon="-3.76047">
        <ele>224.6</ele>
        <time>2020-06-07T19:14:38Z</time>
      </trkpt>
      <trkpt lat="48.04468" lon="-3.76047">
        <ele>224.6</ele>
        <time>2020-06-07T19:14:39Z</time>
      </trkpt>
      <trkpt lat="48.04468" lon="-3.76047">
        <ele>224.6</ele>
        <time>2020-06-07T19:14:40Z</time>
      </trkpt>
      <trkpt lat="48.04468" lon="-3.76047">
        <ele>224.6</ele>
        <time>2020-06-07T19:14:41Z</time>
      </trkpt>
      <trkpt lat="48.04468" lon="-3.76047">
        <ele>224.6</ele>
        <time>2020-06-07T19:14:42Z</time>
      </trkpt>
      <trkpt lat="48.04468" lon="-3.76047">
        <ele>224.6</ele>
        <time>2020-06-07T19:14:43Z</time>
      </trkpt>
      <trkpt lat="48.04467" lon="-3.76048">
        <ele>224.6</ele>
        <time>2020-06-07T19:14:44Z</time>
      </trkpt>
      <trkpt lat="48.04467" lon="-3.76048">
        <ele>224.6</ele>
        <time>2020-06-07T19:14:45Z</time>
      </trkpt>
      <trkpt lat="48.04467" lon="-3.76049">
        <ele>224.6</ele>
        <time>2020-06-07T19:14:46Z</time>
      </trkpt>
      <trkpt lat="48.04467" lon="-3.76049">
        <ele>224.7</ele>
        <time>2020-06-07T19:14:47Z</time>
      </trkpt>
      <trkpt lat="48.04467" lon="-3.76049">
        <ele>224.7</ele>
        <time>2020-06-07T19:14:48Z</time>
      </trkpt>
      <trkpt lat="48.04466" lon="-3.76049">
        <ele>224.6</ele>
        <time>2020-06-07T19:14:49Z</time>
      </trkpt>
      <trkpt lat="48.04467" lon="-3.76049">
        <ele>224.7</ele>
        <time>2020-06-07T19:14:50Z</time>
      </trkpt>
      <trkpt lat="48.04467" lon="-3.76049">
        <ele>224.7</ele>
        <time>2020-06-07T19:14:51Z</time>
      </trkpt>
      <trkpt lat="48.04468" lon="-3.76049">
        <ele>224.7</ele>
        <time>2020-06-07T19:14:52Z</time>
      </trkpt>
      <trkpt lat="48.0447" lon="-3.76048">
        <ele>224.7</ele>
        <time>2020-06-07T19:14:53Z</time>
      </trkpt>
      <trkpt lat="48.04471" lon="-3.76046">
        <ele>224.6</ele>
        <time>2020-06-07T19:14:54Z</time>
      </trkpt>
      <trkpt lat="48.04474" lon="-3.76043">
        <ele>224.7</ele>
        <time>2020-06-07T19:14:55Z</time>
      </trkpt>
      <trkpt lat="48.04475" lon="-3.76042">
        <ele>224.8</ele>
        <time>2020-06-07T19:14:56Z</time>
      </trkpt>
      <trkpt lat="48.04476" lon="-3.76041">
        <ele>224.7</ele>
        <time>2020-06-07T19:14:57Z</time>
      </trkpt>
      <trkpt lat="48.04477" lon="-3.76039">
        <ele>224.7</ele>
        <time>2020-06-07T19:14:58Z</time>
      </trkpt>
      <trkpt lat="48.04479" lon="-3.76036">
        <ele>224.7</ele>
        <time>2020-06-07T19:14:59Z</time>
      </trkpt>
      <trkpt lat="48.0448" lon="-3.76035">
        <ele>224.7</ele>
        <time>2020-06-07T19:15:00Z</time>
      </trkpt>
      <trkpt lat="48.04481" lon="-3.76034">
        <ele>224.7</ele>
        <time>2020-06-07T19:15:01Z</time>
      </trkpt>
      <trkpt lat="48.04483" lon="-3.76032">
        <ele>224.6</ele>
        <time>2020-06-07T19:15:02Z</time>
      </trkpt>
      <trkpt lat="48.04483" lon="-3.76031">
        <ele>224.6</ele>
        <time>2020-06-07T19:15:03Z</time>
      </trkpt>
      <trkpt lat="48.04483" lon="-3.7603">
        <ele>224.6</ele>
        <time>2020-06-07T19:15:04Z</time>
      </trkpt>
      <trkpt lat="48.04483" lon="-3.76031">
        <ele>224.6</ele>
        <time>2020-06-07T19:15:05Z</time>
      </trkpt>
      <trkpt lat="48.04483" lon="-3.76031">
        <ele>224.6</ele>
        <time>2020-06-07T19:15:06Z</time>
      </trkpt>
      <trkpt lat="48.04483" lon="-3.76031">
        <ele>224.7</ele>
        <time>2020-06-07T19:15:07Z</time>
      </trkpt>
      <trkpt lat="48.04483" lon="-3.76032">
        <ele>224.7</ele>
        <time>2020-06-07T19:15:08Z</time>
      </trkpt>
      <trkpt lat="48.04483" lon="-3.76032">
        <ele>224.7</ele>
        <time>2020-06-07T19:15:09Z</time>
      </trkpt>
      <trkpt lat="48.04483" lon="-3.76032">
        <ele>224.7</ele>
        <time>2020-06-07T19:15:10Z</time>
      </trkpt>
      <trkpt lat="48.04482" lon="-3.76032">
        <ele>224.7</ele>
        <time>2020-06-07T19:15:11Z</time>
      </trkpt>
      <trkpt lat="48.04482" lon="-3.76032">
        <ele>224.7</ele>
        <time>2020-06-07T19:15:12Z</time>
      </trkpt>
      <trkpt lat="48.04481" lon="-3.76032">
        <ele>224.7</ele>
        <time>2020-06-07T19:15:13Z</time>
      </trkpt>
      <trkpt lat="48.04481" lon="-3.76033">
        <ele>224.7</ele>
        <time>2020-06-07T19:15:14Z</time>
      </trkpt>
      <trkpt lat="48.04481" lon="-3.76033">
        <ele>224.7</ele>
        <time>2020-06-07T19:15:15Z</time>
      </trkpt>
      <trkpt lat="48.04482" lon="-3.76033">
        <ele>224.8</ele>
        <time>2020-06-07T19:15:16Z</time>
      </trkpt>
      <trkpt lat="48.04482" lon="-3.76033">
        <ele>224.7</ele>
        <time>2020-06-07T19:15:17Z</time>
      </trkpt>
      <trkpt lat="48.04481" lon="-3.76032">
        <ele>224.8</ele>
        <time>2020-06-07T19:15:18Z</time>
      </trkpt>
      <trkpt lat="48.04482" lon="-3.76033">
        <ele>224.9</ele>
        <time>2020-06-07T19:15:19Z</time>
      </trkpt>
      <trkpt lat="48.04482" lon="-3.76033">
        <ele>224.9</ele>
        <time>2020-06-07T19:15:20Z</time>
      </trkpt>
      <trkpt lat="48.04482" lon="-3.76033">
        <ele>224.8</ele>
        <time>2020-06-07T19:15:21Z</time>
      </trkpt>
      <trkpt lat="48.04481" lon="-3.76032">
        <ele>224.8</ele>
        <time>2020-06-07T19:15:22Z</time>
      </trkpt>
      <trkpt lat="48.04481" lon="-3.76031">
        <ele>224.8</ele>
        <time>2020-06-07T19:15:23Z</time>
      </trkpt>
      <trkpt lat="48.0448" lon="-3.7603">
        <ele>224.7</ele>
        <time>2020-06-07T19:15:24Z</time>
      </trkpt>
      <trkpt lat="48.0448" lon="-3.7603">
        <ele>224.8</ele>
        <time>2020-06-07T19:15:25Z</time>
      </trkpt>
      <trkpt lat="48.0448" lon="-3.7603">
        <ele>224.8</ele>
        <time>2020-06-07T19:15:26Z</time>
      </trkpt>
      <trkpt lat="48.0448" lon="-3.7603">
        <ele>224.8</ele>
        <time>2020-06-07T19:15:27Z</time>
      </trkpt>
      <trkpt lat="48.0448" lon="-3.7603">
        <ele>224.8</ele>
        <time>2020-06-07T19:15:28Z</time>
      </trkpt>
      <trkpt lat="48.0448" lon="-3.7603">
        <ele>224.8</ele>
        <time>2020-06-07T19:15:29Z</time>
      </trkpt>
      <trkpt lat="48.0448" lon="-3.7603">
        <ele>224.8</ele>
        <time>2020-06-07T19:15:30Z</time>
      </trkpt>
      <trkpt lat="48.0447" lon="-3.76034">
        <ele>224.8</ele>
        <time>2020-06-07T19:16:18Z</time>
      </trkpt>
      <trkpt lat="48.0447" lon="-3.76033">
        <ele>224.8</ele>
        <time>2020-06-07T19:16:19Z</time>
      </trkpt>
      <trkpt lat="48.0447" lon="-3.76033">
        <ele>224.8</ele>
        <time>2020-06-07T19:16:20Z</time>
      </trkpt>
      <trkpt lat="48.0447" lon="-3.76033">
        <ele>224.8</ele>
        <time>2020-06-07T19:16:21Z</time>
      </trkpt>
      <trkpt lat="48.04471" lon="-3.76034">
        <ele>224.8</ele>
        <time>2020-06-07T19:16:22Z</time>
      </trkpt>
      <trkpt lat="48.0447" lon="-3.76034">
        <ele>224.8</ele>
        <time>2020-06-07T19:16:23Z</time>
      </trkpt>
      <trkpt lat="48.0447" lon="-3.76034">
        <ele>224.9</ele>
        <time>2020-06-07T19:16:24Z</time>
      </trkpt>
      <trkpt lat="48.0447" lon="-3.76034">
        <ele>224.9</ele>
        <time>2020-06-07T19:16:25Z</time>
      </trkpt>
      <trkpt lat="48.04471" lon="-3.76035">
        <ele>224.9</ele>
        <time>2020-06-07T19:16:26Z</time>
      </trkpt>
      <trkpt lat="48.04471" lon="-3.76035">
        <ele>224.9</ele>
        <time>2020-06-07T19:16:27Z</time>
      </trkpt>
      <trkpt lat="48.04471" lon="-3.76035">
        <ele>224.9</ele>
        <time>2020-06-07T19:16:28Z</time>
      </trkpt>
      <trkpt lat="48.04471" lon="-3.76035">
        <ele>224.9</ele>
        <time>2020-06-07T19:16:29Z</time>
      </trkpt>
      <trkpt lat="48.04471" lon="-3.76035">
        <ele>224.9</ele>
        <time>2020-06-07T19:16:30Z</time>
      </trkpt>
      <trkpt lat="48.04471" lon="-3.76034">
        <ele>224.9</ele>
        <time>2020-06-07T19:16:31Z</time>
      </trkpt>
      <trkpt lat="48.04471" lon="-3.76034">
        <ele>224.9</ele>
        <time>2020-06-07T19:16:32Z</time>
      </trkpt>
      <trkpt lat="48.0447" lon="-3.76034">
        <ele>224.9</ele>
        <time>2020-06-07T19:16:33Z</time>
      </trkpt>
      <trkpt lat="48.0447" lon="-3.76035">
        <ele>224.9</ele>
        <time>2020-06-07T19:16:34Z</time>
      </trkpt>
      <trkpt lat="48.04471" lon="-3.76034">
        <ele>224.9</ele>
        <time>2020-06-07T19:16:35Z</time>
      </trkpt>
      <trkpt lat="48.04471" lon="-3.76034">
        <ele>224.9</ele>
        <time>2020-06-07T19:16:36Z</time>
      </trkpt>
      <trkpt lat="48.04471" lon="-3.76034">
        <ele>225</ele>
        <time>2020-06-07T19:16:37Z</time>
      </trkpt>
      <trkpt lat="48.04472" lon="-3.76033">
        <ele>225</ele>
        <time>2020-06-07T19:16:38Z</time>
      </trkpt>
      <trkpt lat="48.04472" lon="-3.76033">
        <ele>225</ele>
        <time>2020-06-07T19:16:39Z</time>
      </trkpt>
      <trkpt lat="48.04472" lon="-3.76034">
        <ele>225</ele>
        <time>2020-06-07T19:16:40Z</time>
      </trkpt>
      <trkpt lat="48.04473" lon="-3.76034">
        <ele>225.1</ele>
        <time>2020-06-07T19:16:41Z</time>
      </trkpt>
      <trkpt lat="48.04473" lon="-3.76034">
        <ele>225.1</ele>
        <time>2020-06-07T19:16:42Z</time>
      </trkpt>
      <trkpt lat="48.04473" lon="-3.76033">
        <ele>225.1</ele>
        <time>2020-06-07T19:16:43Z</time>
      </trkpt>
      <trkpt lat="48.04473" lon="-3.76033">
        <ele>225.1</ele>
        <time>2020-06-07T19:16:44Z</time>
      </trkpt>
      <trkpt lat="48.04473" lon="-3.76034">
        <ele>225.1</ele>
        <time>2020-06-07T19:16:45Z</time>
      </trkpt>
      <trkpt lat="48.04473" lon="-3.76034">
        <ele>225.1</ele>
        <time>2020-06-07T19:16:46Z</time>
      </trkpt>
      <trkpt lat="48.04473" lon="-3.76034">
        <ele>225.1</ele>
        <time>2020-06-07T19:16:47Z</time>
      </trkpt>
      <trkpt lat="48.04473" lon="-3.76034">
        <ele>225.1</ele>
        <time>2020-06-07T19:16:48Z</time>
      </trkpt>
      <trkpt lat="48.04473" lon="-3.76034">
        <ele>225.1</ele>
        <time>2020-06-07T19:16:49Z</time>
      </trkpt>
      <trkpt lat="48.04473" lon="-3.76034">
        <ele>225.2</ele>
        <time>2020-06-07T19:16:50Z</time>
      </trkpt>
      <trkpt lat="48.04473" lon="-3.76034">
        <ele>225.2</ele>
        <time>2020-06-07T19:16:51Z</time>
      </trkpt>
      <trkpt lat="48.04473" lon="-3.76034">
        <ele>225.2</ele>
        <time>2020-06-07T19:16:52Z</time>
      </trkpt>
      <trkpt lat="48.04473" lon="-3.76034">
        <ele>225.2</ele>
        <time>2020-06-07T19:16:53Z</time>
      </trkpt>
      <trkpt lat="48.04473" lon="-3.76034">
        <ele>225.2</ele>
        <time>2020-06-07T19:16:54Z</time>
      </trkpt>
      <trkpt lat="48.04473" lon="-3.76034">
        <ele>225.2</ele>
        <time>2020-06-07T19:16:55Z</time>
      </trkpt>
      <trkpt lat="48.04473" lon="-3.76035">
        <ele>225.2</ele>
        <time>2020-06-07T19:16:56Z</time>
      </trkpt>
      <trkpt lat="48.04473" lon="-3.76036">
        <ele>225.2</ele>
        <time>2020-06-07T19:16:57Z</time>
      </trkpt>
      <trkpt lat="48.04472" lon="-3.76038">
        <ele>225.2</ele>
        <time>2020-06-07T19:17:35Z</time>
      </trkpt>
      <trkpt lat="48.04472" lon="-3.76039">
        <ele>225.2</ele>
        <time>2020-06-07T19:17:36Z</time>
      </trkpt>
      <trkpt lat="48.04472" lon="-3.76038">
        <ele>225.3</ele>
        <time>2020-06-07T19:17:37Z</time>
      </trkpt>
      <trkpt lat="48.04472" lon="-3.76038">
        <ele>225.3</ele>
        <time>2020-06-07T19:17:38Z</time>
      </trkpt>
      <trkpt lat="48.04472" lon="-3.76039">
        <ele>225.3</ele>
        <time>2020-06-07T19:17:39Z</time>
      </trkpt>
      <trkpt lat="48.04473" lon="-3.76039">
        <ele>225.3</ele>
        <time>2020-06-07T19:17:40Z</time>
      </trkpt>
      <trkpt lat="48.04473" lon="-3.76039">
        <ele>225.3</ele>
        <time>2020-06-07T19:17:41Z</time>
      </trkpt>
      <trkpt lat="48.04473" lon="-3.76039">
        <ele>225.3</ele>
        <time>2020-06-07T19:17:42Z</time>
      </trkpt>
      <trkpt lat="48.04473" lon="-3.76038">
        <ele>225.3</ele>
        <time>2020-06-07T19:17:43Z</time>
      </trkpt>
      <trkpt lat="48.04474" lon="-3.76037">
        <ele>225.3</ele>
        <time>2020-06-07T19:17:44Z</time>
      </trkpt>
      <trkpt lat="48.04474" lon="-3.76037">
        <ele>225.2</ele>
        <time>2020-06-07T19:17:45Z</time>
      </trkpt>
      <trkpt lat="48.04474" lon="-3.76036">
        <ele>225.2</ele>
        <time>2020-06-07T19:17:46Z</time>
      </trkpt>
      <trkpt lat="48.04474" lon="-3.76036">
        <ele>225.2</ele>
        <time>2020-06-07T19:17:47Z</time>
      </trkpt>
      <trkpt lat="48.04474" lon="-3.76036">
        <ele>225.2</ele>
        <time>2020-06-07T19:17:48Z</time>
      </trkpt>
      <trkpt lat="48.04474" lon="-3.76036">
        <ele>225.2</ele>
        <time>2020-06-07T19:17:49Z</time>
      </trkpt>
      <trkpt lat="48.04474" lon="-3.76036">
        <ele>225.2</ele>
        <time>2020-06-07T19:17:50Z</time>
      </trkpt>
      <trkpt lat="48.04474" lon="-3.76037">
        <ele>225.2</ele>
        <time>2020-06-07T19:17:51Z</time>
      </trkpt>
      <trkpt lat="48.04473" lon="-3.76037">
        <ele>225.3</ele>
        <time>2020-06-07T19:17:52Z</time>
      </trkpt>
      <trkpt lat="48.04473" lon="-3.76038">
        <ele>225.3</ele>
        <time>2020-06-07T19:17:53Z</time>
      </trkpt>
      <trkpt lat="48.04473" lon="-3.76039">
        <ele>225.3</ele>
        <time>2020-06-07T19:17:54Z</time>
      </trkpt>
      <trkpt lat="48.04473" lon="-3.7604">
        <ele>225.3</ele>
        <time>2020-06-07T19:17:55Z</time>
      </trkpt>
      <trkpt lat="48.04472" lon="-3.76041">
        <ele>225.2</ele>
        <time>2020-06-07T19:17:56Z</time>
      </trkpt>
      <trkpt lat="48.04472" lon="-3.76042">
        <ele>225.3</ele>
        <time>2020-06-07T19:17:57Z</time>
      </trkpt>
      <trkpt lat="48.04472" lon="-3.76043">
        <ele>225.3</ele>
        <time>2020-06-07T19:17:58Z</time>
      </trkpt>
      <trkpt lat="48.04472" lon="-3.76044">
        <ele>225.3</ele>
        <time>2020-06-07T19:17:59Z</time>
      </trkpt>
      <trkpt lat="48.04472" lon="-3.76046">
        <ele>225.3</ele>
        <time>2020-06-07T19:18:00Z</time>
      </trkpt>
      <trkpt lat="48.04472" lon="-3.76046">
        <ele>225.4</ele>
        <time>2020-06-07T19:18:01Z</time>
      </trkpt>
      <trkpt lat="48.04471" lon="-3.76048">
        <ele>225.4</ele>
        <time>2020-06-07T19:18:02Z</time>
      </trkpt>
      <trkpt lat="48.04471" lon="-3.76048">
        <ele>225.4</ele>
        <time>2020-06-07T19:18:03Z</time>
      </trkpt>
      <trkpt lat="48.0447" lon="-3.76048">
        <ele>225.4</ele>
        <time>2020-06-07T19:18:04Z</time>
      </trkpt>
      <trkpt lat="48.0447" lon="-3.76048">
        <ele>225.4</ele>
        <time>2020-06-07T19:18:05Z</time>
      </trkpt>
      <trkpt lat="48.0447" lon="-3.76049">
        <ele>225.4</ele>
        <time>2020-06-07T19:18:06Z</time>
      </trkpt>
      <trkpt lat="48.0447" lon="-3.76048">
        <ele>225.4</ele>
        <time>2020-06-07T19:18:07Z</time>
      </trkpt>
      <trkpt lat="48.0447" lon="-3.76047">
        <ele>225.4</ele>
        <time>2020-06-07T19:18:08Z</time>
      </trkpt>
      <trkpt lat="48.04471" lon="-3.76047">
        <ele>225.4</ele>
        <time>2020-06-07T19:18:09Z</time>
      </trkpt>
      <trkpt lat="48.04471" lon="-3.76046">
        <ele>225.4</ele>
        <time>2020-06-07T19:18:10Z</time>
      </trkpt>
      <trkpt lat="48.04471" lon="-3.76045">
        <ele>225.3</ele>
        <time>2020-06-07T19:18:26Z</time>
      </trkpt>
      <trkpt lat="48.04471" lon="-3.76045">
        <ele>225.3</ele>
        <time>2020-06-07T19:18:27Z</time>
      </trkpt>
      <trkpt lat="48.04471" lon="-3.76044">
        <ele>225.3</ele>
        <time>2020-06-07T19:18:28Z</time>
      </trkpt>
      <trkpt lat="48.04472" lon="-3.76044">
        <ele>225.3</ele>
        <time>2020-06-07T19:18:29Z</time>
      </trkpt>
      <trkpt lat="48.04472" lon="-3.76043">
        <ele>225.3</ele>
        <time>2020-06-07T19:18:30Z</time>
      </trkpt>
      <trkpt lat="48.04472" lon="-3.76042">
        <ele>225.3</ele>
        <time>2020-06-07T19:18:31Z</time>
      </trkpt>
      <trkpt lat="48.04472" lon="-3.76042">
        <ele>225.4</ele>
        <time>2020-06-07T19:18:32Z</time>
      </trkpt>
      <trkpt lat="48.04473" lon="-3.76041">
        <ele>225.3</ele>
        <time>2020-06-07T19:18:33Z</time>
      </trkpt>
      <trkpt lat="48.04473" lon="-3.7604">
        <ele>225.3</ele>
        <time>2020-06-07T19:18:34Z</time>
      </trkpt>
      <trkpt lat="48.04473" lon="-3.7604">
        <ele>225.3</ele>
        <time>2020-06-07T19:18:35Z</time>
      </trkpt>
      <trkpt lat="48.04473" lon="-3.76039">
        <ele>225.3</ele>
        <time>2020-06-07T19:18:36Z</time>
      </trkpt>
      <trkpt lat="48.04473" lon="-3.76038">
        <ele>225.3</ele>
        <time>2020-06-07T19:18:37Z</time>
      </trkpt>
      <trkpt lat="48.04474" lon="-3.76038">
        <ele>225.3</ele>
        <time>2020-06-07T19:18:56Z</time>
      </trkpt>
      <trkpt lat="48.04474" lon="-3.76037">
        <ele>225.2</ele>
        <time>2020-06-07T19:18:57Z</time>
      </trkpt>
      <trkpt lat="48.04474" lon="-3.76036">
        <ele>225.2</ele>
        <time>2020-06-07T19:18:58Z</time>
      </trkpt>
      <trkpt lat="48.04474" lon="-3.76036">
        <ele>225.2</ele>
        <time>2020-06-07T19:18:59Z</time>
      </trkpt>
      <trkpt lat="48.04475" lon="-3.76034">
        <ele>225.2</ele>
        <time>2020-06-07T19:19:00Z</time>
      </trkpt>
      <trkpt lat="48.04475" lon="-3.76033">
        <ele>225.1</ele>
        <time>2020-06-07T19:19:01Z</time>
      </trkpt>
      <trkpt lat="48.04475" lon="-3.76031">
        <ele>225.1</ele>
        <time>2020-06-07T19:19:02Z</time>
      </trkpt>
      <trkpt lat="48.04475" lon="-3.76031">
        <ele>225.1</ele>
        <time>2020-06-07T19:19:03Z</time>
      </trkpt>
      <trkpt lat="48.04475" lon="-3.76031">
        <ele>225.1</ele>
        <time>2020-06-07T19:19:04Z</time>
      </trkpt>
      <trkpt lat="48.04474" lon="-3.7603">
        <ele>225.1</ele>
        <time>2020-06-07T19:19:05Z</time>
      </trkpt>
      <trkpt lat="48.04474" lon="-3.7603">
        <ele>225.1</ele>
        <time>2020-06-07T19:19:06Z</time>
      </trkpt>
      <trkpt lat="48.04474" lon="-3.76029">
        <ele>225.1</ele>
        <time>2020-06-07T19:19:07Z</time>
      </trkpt>
      <trkpt lat="48.04473" lon="-3.76028">
        <ele>224.9</ele>
        <time>2020-06-07T19:19:08Z</time>
      </trkpt>
      <trkpt lat="48.04473" lon="-3.76027">
        <ele>224.9</ele>
        <time>2020-06-07T19:19:09Z</time>
      </trkpt>
      <trkpt lat="48.04472" lon="-3.76027">
        <ele>224.9</ele>
        <time>2020-06-07T19:19:10Z</time>
      </trkpt>
      <trkpt lat="48.04472" lon="-3.76027">
        <ele>224.9</ele>
        <time>2020-06-07T19:19:11Z</time>
      </trkpt>
      <trkpt lat="48.04472" lon="-3.76026">
        <ele>224.9</ele>
        <time>2020-06-07T19:19:12Z</time>
      </trkpt>
      <trkpt lat="48.04471" lon="-3.76026">
        <ele>224.9</ele>
        <time>2020-06-07T19:19:13Z</time>
      </trkpt>
      <trkpt lat="48.04471" lon="-3.76026">
        <ele>224.9</ele>
        <time>2020-06-07T19:19:14Z</time>
      </trkpt>
      <trkpt lat="48.04471" lon="-3.76025">
        <ele>224.9</ele>
        <time>2020-06-07T19:19:15Z</time>
      </trkpt>
      <trkpt lat="48.0447" lon="-3.76025">
        <ele>224.9</ele>
        <time>2020-06-07T19:19:16Z</time>
      </trkpt>
      <trkpt lat="48.0447" lon="-3.76025">
        <ele>224.9</ele>
        <time>2020-06-07T19:19:17Z</time>
      </trkpt>
      <trkpt lat="48.0447" lon="-3.76024">
        <ele>224.9</ele>
        <time>2020-06-07T19:19:18Z</time>
      </trkpt>
      <trkpt lat="48.04469" lon="-3.76024">
        <ele>224.7</ele>
        <time>2020-06-07T19:19:19Z</time>
      </trkpt>
      <trkpt lat="48.04469" lon="-3.76024">
        <ele>224.7</ele>
        <time>2020-06-07T19:19:20Z</time>
      </trkpt>
      <trkpt lat="48.04469" lon="-3.76024">
        <ele>224.7</ele>
        <time>2020-06-07T19:19:21Z</time>
      </trkpt>
      <trkpt lat="48.0447" lon="-3.76024">
        <ele>224.7</ele>
        <time>2020-06-07T19:19:22Z</time>
      </trkpt>
      <trkpt lat="48.04469" lon="-3.76023">
        <ele>224.7</ele>
        <time>2020-06-07T19:19:23Z</time>
      </trkpt>
      <trkpt lat="48.04407" lon="-3.75977">
        <ele>222.3</ele>
        <time>2020-06-07T19:20:03Z</time>
      </trkpt>
      <trkpt lat="48.04405" lon="-3.75976">
        <ele>222.3</ele>
        <time>2020-06-07T19:20:04Z</time>
      </trkpt>
      <trkpt lat="48.04402" lon="-3.75973">
        <ele>222.3</ele>
        <time>2020-06-07T19:20:05Z</time>
      </trkpt>
      <trkpt lat="48.04401" lon="-3.75971">
        <ele>222.1</ele>
        <time>2020-06-07T19:20:06Z</time>
      </trkpt>
      <trkpt lat="48.04399" lon="-3.75969">
        <ele>222.1</ele>
        <time>2020-06-07T19:20:07Z</time>
      </trkpt>
      <trkpt lat="48.04398" lon="-3.75967">
        <ele>221.9</ele>
        <time>2020-06-07T19:20:08Z</time>
      </trkpt>
      <trkpt lat="48.04396" lon="-3.75965">
        <ele>221.9</ele>
        <time>2020-06-07T19:20:09Z</time>
      </trkpt>
      <trkpt lat="48.04395" lon="-3.75963">
        <ele>221.7</ele>
        <time>2020-06-07T19:20:10Z</time>
      </trkpt>
      <trkpt lat="48.04576" lon="-3.75839">
        <ele>221</ele>
        <time>2020-06-07T19:22:07Z</time>
      </trkpt>
      <trkpt lat="48.04576" lon="-3.75838">
        <ele>221</ele>
        <time>2020-06-07T19:22:08Z</time>
      </trkpt>
      <trkpt lat="48.04577" lon="-3.75838">
        <ele>221</ele>
        <time>2020-06-07T19:22:09Z</time>
      </trkpt>
      <trkpt lat="48.04578" lon="-3.75838">
        <ele>221</ele>
        <time>2020-06-07T19:22:10Z</time>
      </trkpt>
      <trkpt lat="48.04578" lon="-3.75838">
        <ele>221</ele>
        <time>2020-06-07T19:22:11Z</time>
      </trkpt>
      <trkpt lat="48.04578" lon="-3.75838">
        <ele>221</ele>
        <time>2020-06-07T19:22:12Z</time>
      </trkpt>
      <trkpt lat="48.04578" lon="-3.75838">
        <ele>221</ele>
        <time>2020-06-07T19:22:13Z</time>
      </trkpt>
      <trkpt lat="48.04578" lon="-3.75838">
        <ele>221</ele>
        <time>2020-06-07T19:22:14Z</time>
      </trkpt>
      <trkpt lat="48.04578" lon="-3.75838">
        <ele>221</ele>
        <time>2020-06-07T19:22:15Z</time>
      </trkpt>
      <trkpt lat="48.04578" lon="-3.75838">
        <ele>221</ele>
        <time>2020-06-07T19:22:16Z</time>
      </trkpt>
      <trkpt lat="48.0458" lon="-3.75839">
        <ele>221</ele>
        <time>2020-06-07T19:22:17Z</time>
      </trkpt>
      <trkpt lat="48.0458" lon="-3.75838">
        <ele>221</ele>
        <time>2020-06-07T19:22:18Z</time>
      </trkpt>
      <trkpt lat="48.04448" lon="-3.76043">
        <ele>225</ele>
        <time>2020-06-07T20:03:47Z</time>
      </trkpt>
      <trkpt lat="48.04449" lon="-3.76041">
        <ele>224.9</ele>
        <time>2020-06-07T20:03:48Z</time>
      </trkpt>
      <trkpt lat="48.0445" lon="-3.76039">
        <ele>224.9</ele>
        <time>2020-06-07T20:03:49Z</time>
      </trkpt>
      <trkpt lat="48.04451" lon="-3.76037">
        <ele>224.8</ele>
        <time>2020-06-07T20:03:50Z</time>
      </trkpt>
      <trkpt lat="48.04452" lon="-3.76035">
        <ele>224.8</ele>
        <time>2020-06-07T20:03:51Z</time>
      </trkpt>
      <trkpt lat="48.04453" lon="-3.76033">
        <ele>224.9</ele>
        <time>2020-06-07T20:03:52Z</time>
      </trkpt>
      <trkpt lat="48.04454" lon="-3.76031">
        <ele>224.7</ele>
        <time>2020-06-07T20:03:53Z</time>
      </trkpt>
      <trkpt lat="48.04455" lon="-3.76029">
        <ele>224.7</ele>
        <time>2020-06-07T20:03:54Z</time>
      </trkpt>
      <trkpt lat="48.04456" lon="-3.76027">
        <ele>224.7</ele>
        <time>2020-06-07T20:03:55Z</time>
      </trkpt>
      <trkpt lat="48.04457" lon="-3.76025">
        <ele>224.7</ele>
        <time>2020-06-07T20:03:56Z</time>
      </trkpt>
      <trkpt lat="48.04458" lon="-3.76023">
        <ele>224.6</ele>
        <time>2020-06-07T20:03:57Z</time>
      </trkpt>
      <trkpt lat="48.04459" lon="-3.76021">
        <ele>224.6</ele>
        <time>2020-06-07T20:03:58Z</time>
      </trkpt>
      <trkpt lat="48.0446" lon="-3.76019">
        <ele>224.4</ele>
        <time>2020-06-07T20:03:59Z</time>
      </trkpt>
      <trkpt lat="48.04461" lon="-3.76017">
        <ele>224.4</ele>
        <time>2020-06-07T20:04:00Z</time>
      </trkpt>
      <trkpt lat="48.04463" lon="-3.76015">
        <ele>224.3</ele>
        <time>2020-06-07T20:04:01Z</time>
      </trkpt>
      <trkpt lat="48.04464" lon="-3.76013">
        <ele>224.3</ele>
        <time>2020-06-07T20:04:43Z</time>
      </trkpt>
      <trkpt lat="48.04465" lon="-3.76011">
        <ele>224.2</ele>
        <time>2020-06-07T20:04:44Z</time>
      </trkpt>
      <trkpt lat="48.04466" lon="-3.76009">
        <ele>224.2</ele>
        <time>2020-06-07T20:04:45Z</time>
      </trkpt>
      <trkpt lat="48.04466" lon="-3.76008">
        <ele>224.2</ele>
        <time>2020-06-07T20:04:46Z</time>
      </trkpt>
      <trkpt lat="48.04467" lon="-3.76008">
        <ele>224.3</ele>
        <time>2020-06-07T20:04:47Z</time>
      </trkpt>
      <trkpt lat="48.04467" lon="-3.76008">
        <ele>224.3</ele>
        <time>2020-06-07T20:04:48Z</time>
      </trkpt>
      <trkpt lat="48.04467" lon="-3.76007">
        <ele>224.1</ele>
        <time>2020-06-07T20:04:49Z</time>
      </trkpt>
      <trkpt lat="48.04467" lon="-3.76007">
        <ele>224.3</ele>
        <time>2020-06-07T20:04:50Z</time>
      </trkpt>
      <trkpt lat="48.04467" lon="-3.76007">
        <ele>224.3</ele>
        <time>2020-06-07T20:04:51Z</time>
      </trkpt>
      <trkpt lat="48.04467" lon="-3.76007">
        <ele>224.1</ele>
        <time>2020-06-07T20:04:52Z</time>
      </trkpt>
      <trkpt lat="48.04467" lon="-3.76007">
        <ele>224.1</ele>
        <time>2020-06-07T20:04:53Z</time>
      </trkpt>
      <trkpt lat="48.04468" lon="-3.76006">
        <ele>224.1</ele>
        <time>2020-06-07T20:04:54Z</time>
      </trkpt>
      <trkpt lat="48.04468" lon="-3.76005">
        <ele>224.1</ele>
        <time>2020-06-07T20:04:55Z</time>
      </trkpt>
      <trkpt lat="48.04468" lon="-3.76004">
        <ele>224.1</ele>
        <time>2020-06-07T20:04:56Z</time>
      </trkpt>
      <trkpt lat="48.04469" lon="-3.76004">
        <ele>224.1</ele>
        <time>2020-06-07T20:04:57Z</time>
      </trkpt>
      <trkpt lat="48.04469" lon="-3.76004">
        <ele>224.1</ele>
        <time>2020-06-07T20:04:58Z</time>
      </trkpt>
      <trkpt lat="48.0447" lon="-3.76003">
        <ele>224.2</ele>
        <time>2020-06-07T20:04:59Z</time>
      </trkpt>
      <trkpt lat="48.0447" lon="-3.76004">
        <ele>224.2</ele>
        <time>2020-06-07T20:05:00Z</time>
      </trkpt>
      <trkpt lat="48.0447" lon="-3.76005">
        <ele>224.2</ele>
        <time>2020-06-07T20:05:01Z</time>
      </trkpt>
      <trkpt lat="48.0447" lon="-3.76005">
        <ele>224.2</ele>
        <time>2020-06-07T20:05:02Z</time>
      </trkpt>
      <trkpt lat="48.0447" lon="-3.76005">
        <ele>224.2</ele>
        <time>2020-06-07T20:05:03Z</time>
      </trkpt>
      <trkpt lat="48.0447" lon="-3.76006">
        <ele>224.2</ele>
        <time>2020-06-07T20:05:04Z</time>
      </trkpt>
      <trkpt lat="48.0447" lon="-3.76006">
        <ele>224.2</ele>
        <time>2020-06-07T20:05:05Z</time>
      </trkpt>
      <trkpt lat="48.0447" lon="-3.76005">
        <ele>224.2</ele>
        <time>2020-06-07T20:05:06Z</time>
      </trkpt>
      <trkpt lat="48.0447" lon="-3.76005">
        <ele>224.2</ele>
        <time>2020-06-07T20:05:07Z</time>
      </trkpt>
      <trkpt lat="48.04471" lon="-3.76005">
        <ele>224.2</ele>
        <time>2020-06-07T20:05:08Z</time>
      </trkpt>
      <trkpt lat="48.04471" lon="-3.76005">
        <ele>224.2</ele>
        <time>2020-06-07T20:05:09Z</time>
      </trkpt>
      <trkpt lat="48.04472" lon="-3.76006">
        <ele>224.2</ele>
        <time>2020-06-07T20:05:10Z</time>
      </trkpt>
      <trkpt lat="48.04472" lon="-3.76006">
        <ele>224.2</ele>
        <time>2020-06-07T20:05:11Z</time>
      </trkpt>
      <trkpt lat="48.04481" lon="-3.76011">
        <ele>224.5</ele>
        <time>2020-06-07T20:05:59Z</time>
      </trkpt>
      <trkpt lat="48.04482" lon="-3.7601">
        <ele>224.5</ele>
        <time>2020-06-07T20:06:00Z</time>
      </trkpt>
      <trkpt lat="48.04483" lon="-3.7601">
        <ele>224.5</ele>
        <time>2020-06-07T20:06:01Z</time>
      </trkpt>
      <trkpt lat="48.04483" lon="-3.7601">
        <ele>224.5</ele>
        <time>2020-06-07T20:06:02Z</time>
      </trkpt>
      <trkpt lat="48.04483" lon="-3.7601">
        <ele>224.5</ele>
        <time>2020-06-07T20:06:03Z</time>
      </trkpt>
      <trkpt lat="48.04483" lon="-3.7601">
        <ele>224.5</ele>
        <time>2020-06-07T20:06:04Z</time>
      </trkpt>
      <trkpt lat="48.04483" lon="-3.76011">
        <ele>224.5</ele>
        <time>2020-06-07T20:06:05Z</time>
      </trkpt>
      <trkpt lat="48.04483" lon="-3.76011">
        <ele>224.5</ele>
        <time>2020-06-07T20:06:06Z</time>
      </trkpt>
      <trkpt lat="48.04483" lon="-3.76011">
        <ele>224.5</ele>
        <time>2020-06-07T20:06:07Z</time>
      </trkpt>
      <trkpt lat="48.04483" lon="-3.76011">
        <ele>224.5</ele>
        <time>2020-06-07T20:06:08Z</time>
      </trkpt>
      <trkpt lat="48.04483" lon="-3.7601">
        <ele>224.5</ele>
        <time>2020-06-07T20:06:09Z</time>
      </trkpt>
      <trkpt lat="48.04481" lon="-3.76019">
        <ele>224.7</ele>
        <time>2020-06-07T20:06:23Z</time>
      </trkpt>
      <trkpt lat="48.0448" lon="-3.76019">
        <ele>224.7</ele>
        <time>2020-06-07T20:06:24Z</time>
      </trkpt>
      <trkpt lat="48.0448" lon="-3.76018">
        <ele>224.7</ele>
        <time>2020-06-07T20:06:25Z</time>
      </trkpt>
      <trkpt lat="48.0448" lon="-3.76018">
        <ele>224.7</ele>
        <time>2020-06-07T20:06:26Z</time>
      </trkpt>
      <trkpt lat="48.0448" lon="-3.76018">
        <ele>224.7</ele>
        <time>2020-06-07T20:06:27Z</time>
      </trkpt>
      <trkpt lat="48.04479" lon="-3.76018">
        <ele>224.7</ele>
        <time>2020-06-07T20:06:28Z</time>
      </trkpt>
      <trkpt lat="48.04479" lon="-3.76018">
        <ele>224.7</ele>
        <time>2020-06-07T20:06:29Z</time>
      </trkpt>
      <trkpt lat="48.04479" lon="-3.76018">
        <ele>224.7</ele>
        <time>2020-06-07T20:06:30Z</time>
      </trkpt>
      <trkpt lat="48.04478" lon="-3.76017">
        <ele>224.7</ele>
        <time>2020-06-07T20:06:31Z</time>
      </trkpt>
      <trkpt lat="48.04482" lon="-3.76023">
        <ele>224.9</ele>
        <time>2020-06-07T20:06:32Z</time>
      </trkpt>
      <trkpt lat="48.04487" lon="-3.76028">
        <ele>225.1</ele>
        <time>2020-06-07T20:06:33Z</time>
      </trkpt>
      <trkpt lat="48.04491" lon="-3.76033">
        <ele>225.1</ele>
        <time>2020-06-07T20:06:34Z</time>
      </trkpt>
      <trkpt lat="48.04496" lon="-3.76038">
        <ele>225.1</ele>
        <time>2020-06-07T20:08:25Z</time>
      </trkpt>
      <trkpt lat="48.04501" lon="-3.76043">
        <ele>225</ele>
        <time>2020-06-07T20:08:26Z</time>
      </trkpt>
      <trkpt lat="48.04502" lon="-3.76039">
        <ele>225</ele>
        <time>2020-06-07T20:08:27Z</time>
      </trkpt>
      <trkpt lat="48.04502" lon="-3.76038">
        <ele>225</ele>
        <time>2020-06-07T20:08:28Z</time>
      </trkpt>
      <trkpt lat="48.04502" lon="-3.76037">
        <ele>225</ele>
        <time>2020-06-07T20:08:29Z</time>
      </trkpt>
      <trkpt lat="48.04502" lon="-3.76037">
        <ele>225</ele>
        <time>2020-06-07T20:08:30Z</time>
      </trkpt>
      <trkpt lat="48.04501" lon="-3.76037">
        <ele>225</ele>
        <time>2020-06-07T20:08:31Z</time>
      </trkpt>
      <trkpt lat="48.04501" lon="-3.76036">
        <ele>225</ele>
        <time>2020-06-07T20:08:32Z</time>
      </trkpt>
      <trkpt lat="48.045" lon="-3.76036">
        <ele>225</ele>
        <time>2020-06-07T20:08:33Z</time>
      </trkpt>
      <trkpt lat="48.045" lon="-3.76036">
        <ele>225</ele>
        <time>2020-06-07T20:08:34Z</time>
      </trkpt>
      <trkpt lat="48.045" lon="-3.76036">
        <ele>225</ele>
        <time>2020-06-07T20:08:35Z</time>
      </trkpt>
      <trkpt lat="48.04499" lon="-3.76035">
        <ele>225</ele>
        <time>2020-06-07T20:08:36Z</time>
      </trkpt>
      <trkpt lat="48.04499" lon="-3.76035">
        <ele>225</ele>
        <time>2020-06-07T20:08:37Z</time>
      </trkpt>
      <trkpt lat="48.04498" lon="-3.76035">
        <ele>225</ele>
        <time>2020-06-07T20:08:38Z</time>
      </trkpt>
      <trkpt lat="48.04497" lon="-3.76031">
        <ele>225</ele>
        <time>2020-06-07T20:08:39Z</time>
      </trkpt>
      <trkpt lat="48.04495" lon="-3.76028">
        <ele>225</ele>
        <time>2020-06-07T20:08:40Z</time>
      </trkpt>
      <trkpt lat="48.04494" lon="-3.76024">
        <ele>224.9</ele>
        <time>2020-06-07T20:08:41Z</time>
      </trkpt>
      <trkpt lat="48.04493" lon="-3.76023">
        <ele>224.9</ele>
        <time>2020-06-07T20:08:42Z</time>
      </trkpt>
      <trkpt lat="48.04493" lon="-3.76022">
        <ele>224.9</ele>
        <time>2020-06-07T20:08:43Z</time>
      </trkpt>
      <trkpt lat="48.04493" lon="-3.76021">
        <ele>224.9</ele>
        <time>2020-06-07T20:08:44Z</time>
      </trkpt>
      <trkpt lat="48.04492" lon="-3.7602">
        <ele>224.9</ele>
        <time>2020-06-07T20:08:45Z</time>
      </trkpt>
      <trkpt lat="48.04492" lon="-3.76018">
        <ele>224.9</ele>
        <time>2020-06-07T20:08:46Z</time>
      </trkpt>
      <trkpt lat="48.04491" lon="-3.76016">
        <ele>224.9</ele>
        <time>2020-06-07T20:08:47Z</time>
      </trkpt>
      <trkpt lat="48.0449" lon="-3.76015">
        <ele>224.9</ele>
        <time>2020-06-07T20:08:48Z</time>
      </trkpt>
      <trkpt lat="48.0449" lon="-3.76016">
        <ele>224.9</ele>
        <time>2020-06-07T20:08:49Z</time>
      </trkpt>
      <trkpt lat="48.0449" lon="-3.76017">
        <ele>224.9</ele>
        <time>2020-06-07T20:08:50Z</time>
      </trkpt>
      <trkpt lat="48.04491" lon="-3.76019">
        <ele>224.9</ele>
        <time>2020-06-07T20:08:51Z</time>
      </trkpt>
      <trkpt lat="48.04492" lon="-3.7602">
        <ele>224.9</ele>
        <time>2020-06-07T20:08:52Z</time>
      </trkpt>
      <trkpt lat="48.04492" lon="-3.7602">
        <ele>224.9</ele>
        <time>2020-06-07T20:08:53Z</time>
      </trkpt>
      <trkpt lat="48.04493" lon="-3.7602">
        <ele>224.9</ele>
        <time>2020-06-07T20:08:54Z</time>
      </trkpt>
      <trkpt lat="48.04493" lon="-3.76019">
        <ele>224.9</ele>
        <time>2020-06-07T20:08:55Z</time>
      </trkpt>
      <trkpt lat="48.04494" lon="-3.76018">
        <ele>224.9</ele>
        <time>2020-06-07T20:08:56Z</time>
      </trkpt>
      <trkpt lat="48.04495" lon="-3.76016">
        <ele>224.9</ele>
        <time>2020-06-07T20:08:57Z</time>
      </trkpt>
      <trkpt lat="48.04497" lon="-3.76013">
        <ele>224.8</ele>
        <time>2020-06-07T20:08:58Z</time>
      </trkpt>
      <trkpt lat="48.04497" lon="-3.76014">
        <ele>224.8</ele>
        <time>2020-06-07T20:08:59Z</time>
      </trkpt>
      <trkpt lat="48.04496" lon="-3.76016">
        <ele>224.8</ele>
        <time>2020-06-07T20:09:00Z</time>
      </trkpt>
      <trkpt lat="48.04495" lon="-3.76017">
        <ele>224.8</ele>
        <time>2020-06-07T20:09:01Z</time>
      </trkpt>
      <trkpt lat="48.04495" lon="-3.76016">
        <ele>224.8</ele>
        <time>2020-06-07T20:09:02Z</time>
      </trkpt>
      <trkpt lat="48.04493" lon="-3.76015">
        <ele>224.8</ele>
        <time>2020-06-07T20:09:03Z</time>
      </trkpt>
      <trkpt lat="48.04493" lon="-3.76014">
        <ele>224.8</ele>
        <time>2020-06-07T20:09:04Z</time>
      </trkpt>
      <trkpt lat="48.04492" lon="-3.76013">
        <ele>224.8</ele>
        <time>2020-06-07T20:09:05Z</time>
      </trkpt>
      <trkpt lat="48.04492" lon="-3.76012">
        <ele>224.8</ele>
        <time>2020-06-07T20:09:06Z</time>
      </trkpt>
      <trkpt lat="48.0449" lon="-3.76014">
        <ele>224.8</ele>
        <time>2020-06-07T20:09:07Z</time>
      </trkpt>
      <trkpt lat="48.04492" lon="-3.76015">
        <ele>224.8</ele>
        <time>2020-06-07T20:09:08Z</time>
      </trkpt>
      <trkpt lat="48.04492" lon="-3.76018">
        <ele>224.8</ele>
        <time>2020-06-07T20:09:09Z</time>
      </trkpt>
      <trkpt lat="48.04493" lon="-3.76019">
        <ele>224.8</ele>
        <time>2020-06-07T20:09:10Z</time>
      </trkpt>
      <trkpt lat="48.04494" lon="-3.7602">
        <ele>224.8</ele>
        <time>2020-06-07T20:09:27Z</time>
      </trkpt>
      <trkpt lat="48.04495" lon="-3.76021">
        <ele>224.7</ele>
        <time>2020-06-07T20:09:28Z</time>
      </trkpt>
      <trkpt lat="48.04496" lon="-3.76022">
        <ele>224.7</ele>
        <time>2020-06-07T20:09:29Z</time>
      </trkpt>
      <trkpt lat="48.04497" lon="-3.76022">
        <ele>224.7</ele>
        <time>2020-06-07T20:09:30Z</time>
      </trkpt>
      <trkpt lat="48.04497" lon="-3.76023">
        <ele>224.7</ele>
        <time>2020-06-07T20:09:31Z</time>
      </trkpt>
      <trkpt lat="48.04498" lon="-3.76024">
        <ele>224.7</ele>
        <time>2020-06-07T20:09:32Z</time>
      </trkpt>
      <trkpt lat="48.04498" lon="-3.76023">
        <ele>224.7</ele>
        <time>2020-06-07T20:09:33Z</time>
      </trkpt>
      <trkpt lat="48.04498" lon="-3.76022">
        <ele>224.7</ele>
        <time>2020-06-07T20:09:34Z</time>
      </trkpt>
      <trkpt lat="48.04498" lon="-3.76021">
        <ele>224.7</ele>
        <time>2020-06-07T20:09:35Z</time>
      </trkpt>
      <trkpt lat="48.04498" lon="-3.76021">
        <ele>224.7</ele>
        <time>2020-06-07T20:09:36Z</time>
      </trkpt>
      <trkpt lat="48.04498" lon="-3.76021">
        <ele>224.7</ele>
        <time>2020-06-07T20:09:37Z</time>
      </trkpt>
      <trkpt lat="48.04498" lon="-3.76021">
        <ele>224.7</ele>
        <time>2020-06-07T20:09:38Z</time>
      </trkpt>
      <trkpt lat="48.04497" lon="-3.7602">
        <ele>224.7</ele>
        <time>2020-06-07T20:09:39Z</time>
      </trkpt>
      <trkpt lat="48.04496" lon="-3.76017">
        <ele>224.7</ele>
        <time>2020-06-07T20:09:40Z</time>
      </trkpt>
      <trkpt lat="48.04494" lon="-3.76014">
        <ele>224.7</ele>
        <time>2020-06-07T20:09:41Z</time>
      </trkpt>
      <trkpt lat="48.04492" lon="-3.7601">
        <ele>224.7</ele>
        <time>2020-06-07T20:09:42Z</time>
      </trkpt>
      <trkpt lat="48.0449" lon="-3.76007">
        <ele>224.6</ele>
        <time>2020-06-07T20:09:43Z</time>
      </trkpt>
      <trkpt lat="48.04488" lon="-3.76004">
        <ele>224.6</ele>
        <time>2020-06-07T20:10:43Z</time>
      </trkpt>
      <trkpt lat="48.04486" lon="-3.76001">
        <ele>224.5</ele>
        <time>2020-06-07T20:10:44Z</time>
      </trkpt>
      <trkpt lat="48.04485" lon="-3.75998">
        <ele>224.3</ele>
        <time>2020-06-07T20:10:45Z</time>
      </trkpt>
      <trkpt lat="48.04483" lon="-3.75995">
        <ele>224.3</ele>
        <time>2020-06-07T20:10:46Z</time>
      </trkpt>
      <trkpt lat="48.04482" lon="-3.7599">
        <ele>224.1</ele>
        <time>2020-06-07T20:10:47Z</time>
      </trkpt>
      <trkpt lat="48.04481" lon="-3.75989">
        <ele>224.1</ele>
        <time>2020-06-07T20:10:48Z</time>
      </trkpt>
      <trkpt lat="48.04479" lon="-3.75985">
        <ele>224</ele>
        <time>2020-06-07T20:10:49Z</time>
      </trkpt>
      <trkpt lat="48.04478" lon="-3.75983">
        <ele>223.9</ele>
        <time>2020-06-07T20:10:50Z</time>
      </trkpt>
      <trkpt lat="48.04476" lon="-3.75981">
        <ele>223.9</ele>
        <time>2020-06-07T20:10:51Z</time>
      </trkpt>
      <trkpt lat="48.04473" lon="-3.7598">
        <ele>223.8</ele>
        <time>2020-06-07T20:10:52Z</time>
      </trkpt>
      <trkpt lat="48.04471" lon="-3.75979">
        <ele>223.7</ele>
        <time>2020-06-07T20:10:53Z</time>
      </trkpt>
      <trkpt lat="48.0447" lon="-3.75979">
        <ele>223.7</ele>
        <time>2020-06-07T20:10:54Z</time>
      </trkpt>
      <trkpt lat="48.04469" lon="-3.75981">
        <ele>223.6</ele>
        <time>2020-06-07T20:10:55Z</time>
      </trkpt>
      <trkpt lat="48.0447" lon="-3.75982">
        <ele>223.6</ele>
        <time>2020-06-07T20:10:56Z</time>
      </trkpt>
      <trkpt lat="48.04471" lon="-3.75984">
        <ele>223.6</ele>
        <time>2020-06-07T20:10:57Z</time>
      </trkpt>
      <trkpt lat="48.04472" lon="-3.75986">
        <ele>223.5</ele>
        <time>2020-06-07T20:10:58Z</time>
      </trkpt>
      <trkpt lat="48.04472" lon="-3.75986">
        <ele>223.5</ele>
        <time>2020-06-07T20:10:59Z</time>
      </trkpt>
      <trkpt lat="48.04472" lon="-3.75987">
        <ele>223.5</ele>
        <time>2020-06-07T20:11:00Z</time>
      </trkpt>
      <trkpt lat="48.04472" lon="-3.75988">
        <ele>223.5</ele>
        <time>2020-06-07T20:11:01Z</time>
      </trkpt>
      <trkpt lat="48.04473" lon="-3.75988">
        <ele>223.6</ele>
        <time>2020-06-07T20:11:02Z</time>
      </trkpt>
      <trkpt lat="48.04473" lon="-3.75989">
        <ele>223.6</ele>
        <time>2020-06-07T20:11:03Z</time>
      </trkpt>
      <trkpt lat="48.04473" lon="-3.7599">
        <ele>223.6</ele>
        <time>2020-06-07T20:11:04Z</time>
      </trkpt>
      <trkpt lat="48.04473" lon="-3.75991">
        <ele>223.6</ele>
        <time>2020-06-07T20:11:05Z</time>
      </trkpt>
      <trkpt lat="48.04473" lon="-3.75991">
        <ele>223.7</ele>
        <time>2020-06-07T20:11:06Z</time>
      </trkpt>
      <trkpt lat="48.04474" lon="-3.75992">
        <ele>223.7</ele>
        <time>2020-06-07T20:11:07Z</time>
      </trkpt>
      <trkpt lat="48.04474" lon="-3.75993">
        <ele>223.7</ele>
        <time>2020-06-07T20:11:08Z</time>
      </trkpt>
      <trkpt lat="48.04474" lon="-3.75994">
        <ele>223.8</ele>
        <time>2020-06-07T20:11:09Z</time>
      </trkpt>
      <trkpt lat="48.04475" lon="-3.75994">
        <ele>223.8</ele>
        <time>2020-06-07T20:11:10Z</time>
      </trkpt>
      <trkpt lat="48.04475" lon="-3.75995">
        <ele>223.8</ele>
        <time>2020-06-07T20:11:11Z</time>
      </trkpt>
      <trkpt lat="48.04476" lon="-3.75998">
        <ele>223.9</ele>
        <time>2020-06-07T20:11:12Z</time>
      </trkpt>
      <trkpt lat="48.04477" lon="-3.76002">
        <ele>224.5</ele>
        <time>2020-06-07T20:11:13Z</time>
      </trkpt>
      <trkpt lat="48.04477" lon="-3.76003">
        <ele>224.5</ele>
        <time>2020-06-07T20:11:14Z</time>
      </trkpt>
      <trkpt lat="48.04478" lon="-3.76007">
        <ele>224.6</ele>
        <time>2020-06-07T20:11:15Z</time>
      </trkpt>
      <trkpt lat="48.04479" lon="-3.76009">
        <ele>224.6</ele>
        <time>2020-06-07T20:11:16Z</time>
      </trkpt>
      <trkpt lat="48.0448" lon="-3.76011">
        <ele>224.7</ele>
        <time>2020-06-07T20:11:17Z</time>
      </trkpt>
      <trkpt lat="48.04482" lon="-3.76012">
        <ele>224.7</ele>
        <time>2020-06-07T20:11:18Z</time>
      </trkpt>
      <trkpt lat="48.04483" lon="-3.76013">
        <ele>224.8</ele>
        <time>2020-06-07T20:11:19Z</time>
      </trkpt>
      <trkpt lat="48.04484" lon="-3.76014">
        <ele>224.9</ele>
        <time>2020-06-07T20:11:20Z</time>
      </trkpt>
      <trkpt lat="48.04486" lon="-3.76015">
        <ele>224.9</ele>
        <time>2020-06-07T20:11:21Z</time>
      </trkpt>
      <trkpt lat="48.04487" lon="-3.76016">
        <ele>225</ele>
        <time>2020-06-07T20:11:22Z</time>
      </trkpt>
      <trkpt lat="48.04488" lon="-3.76017">
        <ele>225</ele>
        <time>2020-06-07T20:11:23Z</time>
      </trkpt>
      <trkpt lat="48.04492" lon="-3.76018">
        <ele>225.1</ele>
        <time>2020-06-07T20:11:24Z</time>
      </trkpt>
      <trkpt lat="48.04498" lon="-3.7602">
        <ele>225.4</ele>
        <time>2020-06-07T20:11:25Z</time>
      </trkpt>
      <trkpt lat="48.04502" lon="-3.76021">
        <ele>225.5</ele>
        <time>2020-06-07T20:11:26Z</time>
      </trkpt>
      <trkpt lat="48.04505" lon="-3.76022">
        <ele>225.6</ele>
        <time>2020-06-07T20:11:27Z</time>
      </trkpt>
      <trkpt lat="48.04508" lon="-3.76023">
        <ele>225.8</ele>
        <time>2020-06-07T20:11:28Z</time>
      </trkpt>
      <trkpt lat="48.04511" lon="-3.76024">
        <ele>225.9</ele>
        <time>2020-06-07T20:11:29Z</time>
      </trkpt>
      <trkpt lat="48.04514" lon="-3.76025">
        <ele>226</ele>
        <time>2020-06-07T20:11:30Z</time>
      </trkpt>
      <trkpt lat="48.04517" lon="-3.76027">
        <ele>226.2</ele>
        <time>2020-06-07T20:11:31Z</time>
      </trkpt>
      <trkpt lat="48.0452" lon="-3.76029">
        <ele>226.3</ele>
        <time>2020-06-07T20:11:32Z</time>
      </trkpt>
      <trkpt lat="48.04524" lon="-3.76033">
        <ele>226.5</ele>
        <time>2020-06-07T20:11:33Z</time>
      </trkpt>
      <trkpt lat="48.04527" lon="-3.76037">
        <ele>226.7</ele>
        <time>2020-06-07T20:11:34Z</time>
      </trkpt>
      <trkpt lat="48.04529" lon="-3.76041">
        <ele>226.8</ele>
        <time>2020-06-07T20:11:35Z</time>
      </trkpt>
      <trkpt lat="48.04532" lon="-3.76042">
        <ele>226.9</ele>
        <time>2020-06-07T20:11:36Z</time>
      </trkpt>
      <trkpt lat="48.04534" lon="-3.76044">
        <ele>227</ele>
        <time>2020-06-07T20:11:37Z</time>
      </trkpt>
      <trkpt lat="48.04537" lon="-3.76046">
        <ele>227.1</ele>
        <time>2020-06-07T20:11:38Z</time>
      </trkpt>
      <trkpt lat="48.0454" lon="-3.76048">
        <ele>227.3</ele>
        <time>2020-06-07T20:11:39Z</time>
      </trkpt>
      <trkpt lat="48.04539" lon="-3.76048">
        <ele>227.3</ele>
        <time>2020-06-07T20:11:40Z</time>
      </trkpt>
      <trkpt lat="48.04539" lon="-3.76051">
        <ele>227.4</ele>
        <time>2020-06-07T20:11:41Z</time>
      </trkpt>
      <trkpt lat="48.04534" lon="-3.76086">
        <ele>228.2</ele>
        <time>2020-06-07T20:11:52Z</time>
      </trkpt>
      <trkpt lat="48.04533" lon="-3.76089">
        <ele>228.1</ele>
        <time>2020-06-07T20:11:53Z</time>
      </trkpt>
      <trkpt lat="48.04532" lon="-3.76089">
        <ele>228</ele>
        <time>2020-06-07T20:11:54Z</time>
      </trkpt>
      <trkpt lat="48.04532" lon="-3.76088">
        <ele>228</ele>
        <time>2020-06-07T20:11:55Z</time>
      </trkpt>
      <trkpt lat="48.04531" lon="-3.76088">
        <ele>228</ele>
        <time>2020-06-07T20:11:56Z</time>
      </trkpt>
      <trkpt lat="48.0453" lon="-3.76088">
        <ele>228</ele>
        <time>2020-06-07T20:11:57Z</time>
      </trkpt>
      <trkpt lat="48.0453" lon="-3.76087">
        <ele>227.9</ele>
        <time>2020-06-07T20:11:58Z</time>
      </trkpt>
      <trkpt lat="48.04529" lon="-3.76087">
        <ele>227.9</ele>
        <time>2020-06-07T20:11:59Z</time>
      </trkpt>
      <trkpt lat="48.04528" lon="-3.76086">
        <ele>227.9</ele>
        <time>2020-06-07T20:12:00Z</time>
      </trkpt>
      <trkpt lat="48.04527" lon="-3.76084">
        <ele>227.8</ele>
        <time>2020-06-07T20:12:01Z</time>
      </trkpt>
      <trkpt lat="48.04526" lon="-3.76085">
        <ele>227.8</ele>
        <time>2020-06-07T20:12:02Z</time>
      </trkpt>
      <trkpt lat="48.04525" lon="-3.76085">
        <ele>227.7</ele>
        <time>2020-06-07T20:12:03Z</time>
      </trkpt>
      <trkpt lat="48.04525" lon="-3.76085">
        <ele>227.7</ele>
        <time>2020-06-07T20:12:04Z</time>
      </trkpt>
      <trkpt lat="48.04525" lon="-3.76083">
        <ele>227.7</ele>
        <time>2020-06-07T20:12:05Z</time>
      </trkpt>
      <trkpt lat="48.04525" lon="-3.76081">
        <ele>227.6</ele>
        <time>2020-06-07T20:12:06Z</time>
      </trkpt>
      <trkpt lat="48.04525" lon="-3.76078">
        <ele>227.5</ele>
        <time>2020-06-07T20:12:07Z</time>
      </trkpt>
      <trkpt lat="48.04524" lon="-3.76079">
        <ele>227.5</ele>
        <time>2020-06-07T20:12:08Z</time>
      </trkpt>
      <trkpt lat="48.04524" lon="-3.76078">
        <ele>227.5</ele>
        <time>2020-06-07T20:12:09Z</time>
      </trkpt>
      <trkpt lat="48.04523" lon="-3.76079">
        <ele>227.4</ele>
        <time>2020-06-07T20:12:10Z</time>
      </trkpt>
      <trkpt lat="48.04522" lon="-3.76079">
        <ele>227.4</ele>
        <time>2020-06-07T20:12:11Z</time>
      </trkpt>
      <trkpt lat="48.04521" lon="-3.76079">
        <ele>227.4</ele>
        <time>2020-06-07T20:12:12Z</time>
      </trkpt>
      <trkpt lat="48.04521" lon="-3.76082">
        <ele>227.3</ele>
        <time>2020-06-07T20:12:14Z</time>
      </trkpt>
      <trkpt lat="48.0452" lon="-3.7608">
        <ele>227.2</ele>
        <time>2020-06-07T20:12:15Z</time>
      </trkpt>
      <trkpt lat="48.0452" lon="-3.7608">
        <ele>227.2</ele>
        <time>2020-06-07T20:12:16Z</time>
      </trkpt>
      <trkpt lat="48.0452" lon="-3.76079">
        <ele>227.2</ele>
        <time>2020-06-07T20:12:17Z</time>
      </trkpt>
      <trkpt lat="48.0452" lon="-3.76079">
        <ele>227.2</ele>
        <time>2020-06-07T20:12:18Z</time>
      </trkpt>
      <trkpt lat="48.0452" lon="-3.76079">
        <ele>227.2</ele>
        <time>2020-06-07T20:12:19Z</time>
      </trkpt>
      <trkpt lat="48.04519" lon="-3.76078">
        <ele>227.2</ele>
        <time>2020-06-07T20:12:20Z</time>
      </trkpt>
      <trkpt lat="48.04519" lon="-3.76078">
        <ele>227.2</ele>
        <time>2020-06-07T20:12:21Z</time>
      </trkpt>
      <trkpt lat="48.04519" lon="-3.76077">
        <ele>227.1</ele>
        <time>2020-06-07T20:12:22Z</time>
      </trkpt>
      <trkpt lat="48.04519" lon="-3.76077">
        <ele>227.1</ele>
        <time>2020-06-07T20:12:23Z</time>
      </trkpt>
      <trkpt lat="48.04518" lon="-3.76077">
        <ele>227.1</ele>
        <time>2020-06-07T20:12:24Z</time>
      </trkpt>
      <trkpt lat="48.04518" lon="-3.76076">
        <ele>227.1</ele>
        <time>2020-06-07T20:12:25Z</time>
      </trkpt>
      <trkpt lat="48.04518" lon="-3.76076">
        <ele>227.1</ele>
        <time>2020-06-07T20:12:26Z</time>
      </trkpt>
      <trkpt lat="48.04519" lon="-3.76071">
        <ele>227</ele>
        <time>2020-06-07T20:12:27Z</time>
      </trkpt>
      <trkpt lat="48.0452" lon="-3.7607">
        <ele>226.9</ele>
        <time>2020-06-07T20:12:28Z</time>
      </trkpt>
      <trkpt lat="48.0452" lon="-3.76069">
        <ele>226.9</ele>
        <time>2020-06-07T20:12:29Z</time>
      </trkpt>
      <trkpt lat="48.04519" lon="-3.76066">
        <ele>226.8</ele>
        <time>2020-06-07T20:12:30Z</time>
      </trkpt>
      <trkpt lat="48.04519" lon="-3.76065">
        <ele>226.8</ele>
        <time>2020-06-07T20:12:31Z</time>
      </trkpt>
      <trkpt lat="48.04518" lon="-3.76064">
        <ele>226.7</ele>
        <time>2020-06-07T20:12:32Z</time>
      </trkpt>
      <trkpt lat="48.04518" lon="-3.76062">
        <ele>226.7</ele>
        <time>2020-06-07T20:12:33Z</time>
      </trkpt>
      <trkpt lat="48.04517" lon="-3.7606">
        <ele>226.6</ele>
        <time>2020-06-07T20:12:34Z</time>
      </trkpt>
      <trkpt lat="48.04515" lon="-3.76056">
        <ele>226.5</ele>
        <time>2020-06-07T20:12:35Z</time>
      </trkpt>
      <trkpt lat="48.04515" lon="-3.76055">
        <ele>226.5</ele>
        <time>2020-06-07T20:12:36Z</time>
      </trkpt>
      <trkpt lat="48.04514" lon="-3.76052">
        <ele>226.4</ele>
        <time>2020-06-07T20:12:37Z</time>
      </trkpt>
      <trkpt lat="48.04513" lon="-3.7605">
        <ele>226.3</ele>
        <time>2020-06-07T20:12:38Z</time>
      </trkpt>
      <trkpt lat="48.04512" lon="-3.76049">
        <ele>226.3</ele>
        <time>2020-06-07T20:12:39Z</time>
      </trkpt>
      <trkpt lat="48.04512" lon="-3.76047">
        <ele>226.2</ele>
        <time>2020-06-07T20:12:40Z</time>
      </trkpt>
      <trkpt lat="48.04511" lon="-3.76045">
        <ele>226.1</ele>
        <time>2020-06-07T20:12:41Z</time>
      </trkpt>
      <trkpt lat="48.0451" lon="-3.76044">
        <ele>226.1</ele>
        <time>2020-06-07T20:12:42Z</time>
      </trkpt>
      <trkpt lat="48.04509" lon="-3.76042">
        <ele>226</ele>
        <time>2020-06-07T20:12:43Z</time>
      </trkpt>
      <trkpt lat="48.04508" lon="-3.7604">
        <ele>226</ele>
        <time>2020-06-07T20:12:44Z</time>
      </trkpt>
      <trkpt lat="48.04507" lon="-3.76039">
        <ele>225.9</ele>
        <time>2020-06-07T20:12:45Z</time>
      </trkpt>
      <trkpt lat="48.04506" lon="-3.76037">
        <ele>225.8</ele>
        <time>2020-06-07T20:12:46Z</time>
      </trkpt>
      <trkpt lat="48.04505" lon="-3.76036">
        <ele>225.8</ele>
        <time>2020-06-07T20:12:47Z</time>
      </trkpt>
      <trkpt lat="48.04504" lon="-3.76034">
        <ele>225.7</ele>
        <time>2020-06-07T20:12:48Z</time>
      </trkpt>
      <trkpt lat="48.04503" lon="-3.76032">
        <ele>225.7</ele>
        <time>2020-06-07T20:12:49Z</time>
      </trkpt>
      <trkpt lat="48.04502" lon="-3.76031">
        <ele>225.6</ele>
        <time>2020-06-07T20:12:50Z</time>
      </trkpt>
      <trkpt lat="48.04501" lon="-3.76029">
        <ele>225.6</ele>
        <time>2020-06-07T20:14:16Z</time>
      </trkpt>
      <trkpt lat="48.045" lon="-3.76027">
        <ele>225.5</ele>
        <time>2020-06-07T20:14:17Z</time>
      </trkpt>
      <trkpt lat="48.04499" lon="-3.76026">
        <ele>225.4</ele>
        <time>2020-06-07T20:14:18Z</time>
      </trkpt>
      <trkpt lat="48.04498" lon="-3.76024">
        <ele>225.4</ele>
        <time>2020-06-07T20:14:19Z</time>
      </trkpt>
      <trkpt lat="48.04498" lon="-3.76022">
        <ele>225.3</ele>
        <time>2020-06-07T20:14:20Z</time>
      </trkpt>
      <trkpt lat="48.04497" lon="-3.76021">
        <ele>225.3</ele>
        <time>2020-06-07T20:14:21Z</time>
      </trkpt>
      <trkpt lat="48.04496" lon="-3.76019">
        <ele>225.2</ele>
        <time>2020-06-07T20:14:22Z</time>
      </trkpt>
      <trkpt lat="48.04495" lon="-3.76017">
        <ele>225.2</ele>
        <time>2020-06-07T20:14:23Z</time>
      </trkpt>
      <trkpt lat="48.04494" lon="-3.76016">
        <ele>225.1</ele>
        <time>2020-06-07T20:14:24Z</time>
      </trkpt>
      <trkpt lat="48.04493" lon="-3.76014">
        <ele>225.1</ele>
        <time>2020-06-07T20:14:25Z</time>
      </trkpt>
      <trkpt lat="48.04493" lon="-3.76013">
        <ele>225</ele>
        <time>2020-06-07T20:14:26Z</time>
      </trkpt>
      <trkpt lat="48.04491" lon="-3.76012">
        <ele>225</ele>
        <time>2020-06-07T20:14:27Z</time>
      </trkpt>
      <trkpt lat="48.04491" lon="-3.76012">
        <ele>225</ele>
        <time>2020-06-07T20:14:28Z</time>
      </trkpt>
      <trkpt lat="48.04491" lon="-3.76012">
        <ele>225</ele>
        <time>2020-06-07T20:14:29Z</time>
      </trkpt>
      <trkpt lat="48.04491" lon="-3.76012">
        <ele>224.9</ele>
        <time>2020-06-07T20:14:30Z</time>
      </trkpt>
      <trkpt lat="48.04491" lon="-3.76013">
        <ele>224.9</ele>
        <time>2020-06-07T20:14:31Z</time>
      </trkpt>
      <trkpt lat="48.04491" lon="-3.76013">
        <ele>224.9</ele>
        <time>2020-06-07T20:14:32Z</time>
      </trkpt>
      <trkpt lat="48.0449" lon="-3.76012">
        <ele>224.9</ele>
        <time>2020-06-07T20:14:33Z</time>
      </trkpt>
      <trkpt lat="48.04489" lon="-3.7601">
        <ele>224.8</ele>
        <time>2020-06-07T20:14:34Z</time>
      </trkpt>
      <trkpt lat="48.04488" lon="-3.76008">
        <ele>224.8</ele>
        <time>2020-06-07T20:14:35Z</time>
      </trkpt>
      <trkpt lat="48.04488" lon="-3.76007">
        <ele>224.8</ele>
        <time>2020-06-07T20:14:36Z</time>
      </trkpt>
      <trkpt lat="48.04488" lon="-3.76005">
        <ele>224.7</ele>
        <time>2020-06-07T20:14:37Z</time>
      </trkpt>
      <trkpt lat="48.04489" lon="-3.76004">
        <ele>224.7</ele>
        <time>2020-06-07T20:14:38Z</time>
      </trkpt>
      <trkpt lat="48.04489" lon="-3.76002">
        <ele>224.6</ele>
        <time>2020-06-07T20:14:39Z</time>
      </trkpt>
      <trkpt lat="48.0449" lon="-3.76001">
        <ele>224.6</ele>
        <time>2020-06-07T20:14:40Z</time>
      </trkpt>
      <trkpt lat="48.0449" lon="-3.76">
        <ele>224.4</ele>
        <time>2020-06-07T20:14:41Z</time>
      </trkpt>
      <trkpt lat="48.04491" lon="-3.75999">
        <ele>224.6</ele>
        <time>2020-06-07T20:14:42Z</time>
      </trkpt>
      <trkpt lat="48.04491" lon="-3.76001">
        <ele>224.6</ele>
        <time>2020-06-07T20:14:43Z</time>
      </trkpt>
      <trkpt lat="48.04491" lon="-3.76003">
        <ele>224.7</ele>
        <time>2020-06-07T20:14:44Z</time>
      </trkpt>
      <trkpt lat="48.04492" lon="-3.76004">
        <ele>224.7</ele>
        <time>2020-06-07T20:14:45Z</time>
      </trkpt>
      <trkpt lat="48.04492" lon="-3.76006">
        <ele>224.8</ele>
        <time>2020-06-07T20:14:46Z</time>
      </trkpt>
      <trkpt lat="48.04492" lon="-3.76007">
        <ele>224.8</ele>
        <time>2020-06-07T20:14:47Z</time>
      </trkpt>
      <trkpt lat="48.04492" lon="-3.76009">
        <ele>224.8</ele>
        <time>2020-06-07T20:14:48Z</time>
      </trkpt>
      <trkpt lat="48.04492" lon="-3.76011">
        <ele>224.9</ele>
        <time>2020-06-07T20:14:49Z</time>
      </trkpt>
      <trkpt lat="48.04492" lon="-3.76012">
        <ele>224.9</ele>
        <time>2020-06-07T20:14:50Z</time>
      </trkpt>
      <trkpt lat="48.04493" lon="-3.76014">
        <ele>225</ele>
        <time>2020-06-07T20:14:51Z</time>
      </trkpt>
      <trkpt lat="48.04493" lon="-3.76015">
        <ele>224.4</ele>
        <time>2020-06-07T20:14:52Z</time>
      </trkpt>
      <trkpt lat="48.04493" lon="-3.76017">
        <ele>224.4</ele>
        <time>2020-06-07T20:17:52Z</time>
      </trkpt>
      <trkpt lat="48.04493" lon="-3.76019">
        <ele>224.4</ele>
        <time>2020-06-07T20:17:53Z</time>
      </trkpt>
      <trkpt lat="48.04493" lon="-3.7602">
        <ele>224.4</ele>
        <time>2020-06-07T20:17:54Z</time>
      </trkpt>
      <trkpt lat="48.04493" lon="-3.76022">
        <ele>224.4</ele>
        <time>2020-06-07T20:17:55Z</time>
      </trkpt>
      <trkpt lat="48.04493" lon="-3.76024">
        <ele>224.3</ele>
        <time>2020-06-07T20:17:56Z</time>
      </trkpt>
      <trkpt lat="48.04494" lon="-3.76025">
        <ele>224.3</ele>
        <time>2020-06-07T20:17:57Z</time>
      </trkpt>
      <trkpt lat="48.04494" lon="-3.76027">
        <ele>224.3</ele>
        <time>2020-06-07T20:17:58Z</time>
      </trkpt>
      <trkpt lat="48.04494" lon="-3.76028">
        <ele>224.3</ele>
        <time>2020-06-07T20:17:59Z</time>
      </trkpt>
      <trkpt lat="48.04494" lon="-3.7603">
        <ele>224.3</ele>
        <time>2020-06-07T20:18:00Z</time>
      </trkpt>
      <trkpt lat="48.04494" lon="-3.76032">
        <ele>224.3</ele>
        <time>2020-06-07T20:18:01Z</time>
      </trkpt>
      <trkpt lat="48.04494" lon="-3.76033">
        <ele>224.3</ele>
        <time>2020-06-07T20:18:02Z</time>
      </trkpt>
      <trkpt lat="48.04494" lon="-3.76035">
        <ele>224.3</ele>
        <time>2020-06-07T20:18:39Z</time>
      </trkpt>
      <trkpt lat="48.04495" lon="-3.76036">
        <ele>224.3</ele>
        <time>2020-06-07T20:18:40Z</time>
      </trkpt>
      <trkpt lat="48.04495" lon="-3.76038">
        <ele>224.3</ele>
        <time>2020-06-07T20:18:41Z</time>
      </trkpt>
      <trkpt lat="48.04496" lon="-3.76036">
        <ele>224.3</ele>
        <time>2020-06-07T20:18:42Z</time>
      </trkpt>
      <trkpt lat="48.04498" lon="-3.76035">
        <ele>224.3</ele>
        <time>2020-06-07T20:18:43Z</time>
      </trkpt>
      <trkpt lat="48.04498" lon="-3.76033">
        <ele>224.3</ele>
        <time>2020-06-07T20:18:44Z</time>
      </trkpt>
      <trkpt lat="48.04498" lon="-3.76033">
        <ele>224.3</ele>
        <time>2020-06-07T20:18:45Z</time>
      </trkpt>
      <trkpt lat="48.04498" lon="-3.76032">
        <ele>224.3</ele>
        <time>2020-06-07T20:18:46Z</time>
      </trkpt>
      <trkpt lat="48.04497" lon="-3.76031">
        <ele>224.3</ele>
        <time>2020-06-07T20:18:47Z</time>
      </trkpt>
      <trkpt lat="48.04497" lon="-3.76031">
        <ele>224.3</ele>
        <time>2020-06-07T20:18:48Z</time>
      </trkpt>
      <trkpt lat="48.04496" lon="-3.7603">
        <ele>224.3</ele>
        <time>2020-06-07T20:18:49Z</time>
      </trkpt>
      <trkpt lat="48.04496" lon="-3.76029">
        <ele>224.3</ele>
        <time>2020-06-07T20:18:50Z</time>
      </trkpt>
      <trkpt lat="48.04495" lon="-3.76029">
        <ele>224.3</ele>
        <time>2020-06-07T20:18:51Z</time>
      </trkpt>
      <trkpt lat="48.04495" lon="-3.76028">
        <ele>224.3</ele>
        <time>2020-06-07T20:18:52Z</time>
      </trkpt>
      <trkpt lat="48.04494" lon="-3.76027">
        <ele>224.3</ele>
        <time>2020-06-07T20:18:53Z</time>
      </trkpt>
      <trkpt lat="48.04494" lon="-3.76027">
        <ele>224.3</ele>
        <time>2020-06-07T20:18:54Z</time>
      </trkpt>
      <trkpt lat="48.04493" lon="-3.76026">
        <ele>224.3</ele>
        <time>2020-06-07T20:20:36Z</time>
      </trkpt>
      <trkpt lat="48.04493" lon="-3.76025">
        <ele>224.3</ele>
        <time>2020-06-07T20:20:37Z</time>
      </trkpt>
      <trkpt lat="48.04493" lon="-3.76024">
        <ele>224.3</ele>
        <time>2020-06-07T20:20:38Z</time>
      </trkpt>
      <trkpt lat="48.04494" lon="-3.76024">
        <ele>224.3</ele>
        <time>2020-06-07T20:20:39Z</time>
      </trkpt>
      <trkpt lat="48.04494" lon="-3.76024">
        <ele>224.3</ele>
        <time>2020-06-07T20:20:40Z</time>
      </trkpt>
      <trkpt lat="48.04495" lon="-3.76024">
        <ele>224.3</ele>
        <time>2020-06-07T20:20:41Z</time>
      </trkpt>
      <trkpt lat="48.04495" lon="-3.76025">
        <ele>224.3</ele>
        <time>2020-06-07T20:20:42Z</time>
      </trkpt>
      <trkpt lat="48.04495" lon="-3.76025">
        <ele>224.3</ele>
        <time>2020-06-07T20:20:43Z</time>
      </trkpt>
      <trkpt lat="48.04495" lon="-3.76026">
        <ele>224.2</ele>
        <time>2020-06-07T20:20:44Z</time>
      </trkpt>
      <trkpt lat="48.04495" lon="-3.76026">
        <ele>224.2</ele>
        <time>2020-06-07T20:20:45Z</time>
      </trkpt>
      <trkpt lat="48.04495" lon="-3.76027">
        <ele>224.2</ele>
        <time>2020-06-07T20:20:46Z</time>
      </trkpt>
      <trkpt lat="48.04494" lon="-3.76027">
        <ele>224.2</ele>
        <time>2020-06-07T20:20:47Z</time>
      </trkpt>
      <trkpt lat="48.04495" lon="-3.76028">
        <ele>224.2</ele>
        <time>2020-06-07T20:20:48Z</time>
      </trkpt>
      <trkpt lat="48.04494" lon="-3.76028">
        <ele>224.2</ele>
        <time>2020-06-07T20:20:49Z</time>
      </trkpt>
      <trkpt lat="48.04495" lon="-3.76027">
        <ele>224.2</ele>
        <time>2020-06-07T20:20:50Z</time>
      </trkpt>
      <trkpt lat="48.04495" lon="-3.76027">
        <ele>224.2</ele>
        <time>2020-06-07T20:20:51Z</time>
      </trkpt>
      <trkpt lat="48.04494" lon="-3.76027">
        <ele>224.2</ele>
        <time>2020-06-07T20:20:52Z</time>
      </trkpt>
      <trkpt lat="48.04495" lon="-3.76027">
        <ele>224.2</ele>
        <time>2020-06-07T20:20:53Z</time>
      </trkpt>
      <trkpt lat="48.04494" lon="-3.76027">
        <ele>224.2</ele>
        <time>2020-06-07T20:20:54Z</time>
      </trkpt>
      <trkpt lat="48.04494" lon="-3.76028">
        <ele>224.2</ele>
        <time>2020-06-07T20:20:55Z</time>
      </trkpt>
      <trkpt lat="48.04493" lon="-3.76029">
        <ele>224.2</ele>
        <time>2020-06-07T20:20:56Z</time>
      </trkpt>
      <trkpt lat="48.04493" lon="-3.76029">
        <ele>224.2</ele>
        <time>2020-06-07T20:20:57Z</time>
      </trkpt>
      <trkpt lat="48.04493" lon="-3.76029">
        <ele>224.2</ele>
        <time>2020-06-07T20:20:58Z</time>
      </trkpt>
      <trkpt lat="48.04493" lon="-3.76028">
        <ele>224.2</ele>
        <time>2020-06-07T20:20:59Z</time>
      </trkpt>
      <trkpt lat="48.04481" lon="-3.76024">
        <ele>224.2</ele>
        <time>2020-06-07T20:21:57Z</time>
      </trkpt>
      <trkpt lat="48.04481" lon="-3.76023">
        <ele>224.2</ele>
        <time>2020-06-07T20:21:58Z</time>
      </trkpt>
      <trkpt lat="48.04481" lon="-3.76022">
        <ele>224.2</ele>
        <time>2020-06-07T20:21:59Z</time>
      </trkpt>
      <trkpt lat="48.0448" lon="-3.76022">
        <ele>224.2</ele>
        <time>2020-06-07T20:22:00Z</time>
      </trkpt>
      <trkpt lat="48.04479" lon="-3.76022">
        <ele>224.2</ele>
        <time>2020-06-07T20:22:01Z</time>
      </trkpt>
      <trkpt lat="48.04477" lon="-3.76021">
        <ele>224.2</ele>
        <time>2020-06-07T20:22:02Z</time>
      </trkpt>
      <trkpt lat="48.04476" lon="-3.7602">
        <ele>224.2</ele>
        <time>2020-06-07T20:22:03Z</time>
      </trkpt>
      <trkpt lat="48.04475" lon="-3.76019">
        <ele>224.2</ele>
        <time>2020-06-07T20:22:04Z</time>
      </trkpt>
      <trkpt lat="48.04474" lon="-3.76018">
        <ele>224.2</ele>
        <time>2020-06-07T20:22:05Z</time>
      </trkpt>
      <trkpt lat="48.04473" lon="-3.76017">
        <ele>224.1</ele>
        <time>2020-06-07T20:22:06Z</time>
      </trkpt>
      <trkpt lat="48.04471" lon="-3.76016">
        <ele>224.1</ele>
        <time>2020-06-07T20:22:07Z</time>
      </trkpt>
      <trkpt lat="48.0447" lon="-3.76014">
        <ele>224.1</ele>
        <time>2020-06-07T20:22:53Z</time>
      </trkpt>
      <trkpt lat="48.04469" lon="-3.76013">
        <ele>224.1</ele>
        <time>2020-06-07T20:22:54Z</time>
      </trkpt>
      <trkpt lat="48.04466" lon="-3.76016">
        <ele>224.1</ele>
        <time>2020-06-07T20:22:55Z</time>
      </trkpt>
      <trkpt lat="48.04465" lon="-3.76017">
        <ele>224.1</ele>
        <time>2020-06-07T20:22:56Z</time>
      </trkpt>
      <trkpt lat="48.04462" lon="-3.76021">
        <ele>224.1</ele>
        <time>2020-06-07T20:22:57Z</time>
      </trkpt>
      <trkpt lat="48.04461" lon="-3.76022">
        <ele>224.1</ele>
        <time>2020-06-07T20:22:58Z</time>
      </trkpt>
      <trkpt lat="48.04459" lon="-3.76026">
        <ele>224.1</ele>
        <time>2020-06-07T20:22:59Z</time>
      </trkpt>
      <trkpt lat="48.04456" lon="-3.76032">
        <ele>224.2</ele>
        <time>2020-06-07T20:23:00Z</time>
      </trkpt>
      <trkpt lat="48.04455" lon="-3.76038">
        <ele>224.3</ele>
        <time>2020-06-07T20:23:01Z</time>
      </trkpt>
      <trkpt lat="48.04455" lon="-3.76045">
        <ele>224.4</ele>
        <time>2020-06-07T20:23:02Z</time>
      </trkpt>
      <trkpt lat="48.04456" lon="-3.7605">
        <ele>224.5</ele>
        <time>2020-06-07T20:23:03Z</time>
      </trkpt>
      <trkpt lat="48.04458" lon="-3.76056">
        <ele>224.6</ele>
        <time>2020-06-07T20:23:04Z</time>
      </trkpt>
      <trkpt lat="48.04458" lon="-3.76062">
        <ele>224.6</ele>
        <time>2020-06-07T20:23:05Z</time>
      </trkpt>
      <trkpt lat="48.04458" lon="-3.76068">
        <ele>224.7</ele>
        <time>2020-06-07T20:23:06Z</time>
      </trkpt>
      <trkpt lat="48.04459" lon="-3.76073">
        <ele>224.8</ele>
        <time>2020-06-07T20:23:07Z</time>
      </trkpt>
      <trkpt lat="48.04459" lon="-3.76078">
        <ele>224.9</ele>
        <time>2020-06-07T20:23:08Z</time>
      </trkpt>
      <trkpt lat="48.04458" lon="-3.76083">
        <ele>225</ele>
        <time>2020-06-07T20:23:09Z</time>
      </trkpt>
      <trkpt lat="48.04455" lon="-3.76087">
        <ele>225.1</ele>
        <time>2020-06-07T20:23:10Z</time>
      </trkpt>
      <trkpt lat="48.04451" lon="-3.76091">
        <ele>224.3</ele>
        <time>2020-06-07T20:23:11Z</time>
      </trkpt>
      <trkpt lat="48.04447" lon="-3.76093">
        <ele>224</ele>
        <time>2020-06-07T20:23:12Z</time>
      </trkpt>
      <trkpt lat="48.04442" lon="-3.76094">
        <ele>223.7</ele>
        <time>2020-06-07T20:23:13Z</time>
      </trkpt>
      <trkpt lat="48.04437" lon="-3.76094">
        <ele>223.3</ele>
        <time>2020-06-07T20:23:14Z</time>
      </trkpt>
      <trkpt lat="48.04431" lon="-3.76095">
        <ele>223</ele>
        <time>2020-06-07T20:23:15Z</time>
      </trkpt>
      <trkpt lat="48.04426" lon="-3.76097">
        <ele>222.7</ele>
        <time>2020-06-07T20:23:16Z</time>
      </trkpt>
      <trkpt lat="48.0442" lon="-3.76098">
        <ele>222.3</ele>
        <time>2020-06-07T20:23:17Z</time>
      </trkpt>
      <trkpt lat="48.04413" lon="-3.76099">
        <ele>221.9</ele>
        <time>2020-06-07T20:23:18Z</time>
      </trkpt>
      <trkpt lat="48.04407" lon="-3.761">
        <ele>221.5</ele>
        <time>2020-06-07T20:23:19Z</time>
      </trkpt>
      <trkpt lat="48.044" lon="-3.761">
        <ele>221.1</ele>
        <time>2020-06-07T20:23:20Z</time>
      </trkpt>
      <trkpt lat="48.04392" lon="-3.76098">
        <ele>220.7</ele>
        <time>2020-06-07T20:23:21Z</time>
      </trkpt>
      <trkpt lat="48.04385" lon="-3.76096">
        <ele>220.3</ele>
        <time>2020-06-07T20:23:22Z</time>
      </trkpt>
      <trkpt lat="48.04377" lon="-3.76094">
        <ele>219.9</ele>
        <time>2020-06-07T20:23:23Z</time>
      </trkpt>
      <trkpt lat="48.04369" lon="-3.76091">
        <ele>219.4</ele>
        <time>2020-06-07T20:23:24Z</time>
      </trkpt>
      <trkpt lat="48.04362" lon="-3.76087">
        <ele>219</ele>
        <time>2020-06-07T20:23:25Z</time>
      </trkpt>
      <trkpt lat="48.04355" lon="-3.76083">
        <ele>218.6</ele>
        <time>2020-06-07T20:23:26Z</time>
      </trkpt>
      <trkpt lat="48.04347" lon="-3.76077">
        <ele>218.1</ele>
        <time>2020-06-07T20:23:27Z</time>
      </trkpt>
      <trkpt lat="48.04338" lon="-3.7607">
        <ele>217.5</ele>
        <time>2020-06-07T20:23:28Z</time>
      </trkpt>
      <trkpt lat="48.04329" lon="-3.76065">
        <ele>217</ele>
        <time>2020-06-07T20:23:29Z</time>
      </trkpt>
      <trkpt lat="48.04322" lon="-3.76059">
        <ele>216.6</ele>
        <time>2020-06-07T20:23:30Z</time>
      </trkpt>
      <trkpt lat="48.04312" lon="-3.76052">
        <ele>216.1</ele>
        <time>2020-06-07T20:23:31Z</time>
      </trkpt>
      <trkpt lat="48.04304" lon="-3.76046">
        <ele>215.8</ele>
        <time>2020-06-07T20:23:32Z</time>
      </trkpt>
      <trkpt lat="48.04295" lon="-3.76041">
        <ele>215.4</ele>
        <time>2020-06-07T20:23:33Z</time>
      </trkpt>
      <trkpt lat="48.04287" lon="-3.76035">
        <ele>215.1</ele>
        <time>2020-06-07T20:23:34Z</time>
      </trkpt>
      <trkpt lat="48.04278" lon="-3.7603">
        <ele>214.9</ele>
        <time>2020-06-07T20:23:35Z</time>
      </trkpt>
      <trkpt lat="48.0427" lon="-3.76024">
        <ele>214.7</ele>
        <time>2020-06-07T20:23:36Z</time>
      </trkpt>
      <trkpt lat="48.04261" lon="-3.76018">
        <ele>214.5</ele>
        <time>2020-06-07T20:23:37Z</time>
      </trkpt>
      <trkpt lat="48.04253" lon="-3.76013">
        <ele>214.5</ele>
        <time>2020-06-07T20:23:38Z</time>
      </trkpt>
      <trkpt lat="48.04244" lon="-3.76008">
        <ele>214.4</ele>
        <time>2020-06-07T20:23:39Z</time>
      </trkpt>
      <trkpt lat="48.04236" lon="-3.76003">
        <ele>214.4</ele>
        <time>2020-06-07T20:23:40Z</time>
      </trkpt>
      <trkpt lat="48.04228" lon="-3.75998">
        <ele>214.5</ele>
        <time>2020-06-07T20:23:41Z</time>
      </trkpt>
      <trkpt lat="48.04219" lon="-3.75993">
        <ele>214.6</ele>
        <time>2020-06-07T20:23:42Z</time>
      </trkpt>
      <trkpt lat="48.04211" lon="-3.75989">
        <ele>214.7</ele>
        <time>2020-06-07T20:23:43Z</time>
      </trkpt>
      <trkpt lat="48.04204" lon="-3.75985">
        <ele>214.9</ele>
        <time>2020-06-07T20:23:44Z</time>
      </trkpt>
      <trkpt lat="48.04196" lon="-3.75981">
        <ele>215.1</ele>
        <time>2020-06-07T20:23:45Z</time>
      </trkpt>
      <trkpt lat="48.04188" lon="-3.75976">
        <ele>215.3</ele>
        <time>2020-06-07T20:23:46Z</time>
      </trkpt>
      <trkpt lat="48.04181" lon="-3.75973">
        <ele>215.5</ele>
        <time>2020-06-07T20:23:47Z</time>
      </trkpt>
      <trkpt lat="48.04174" lon="-3.75969">
        <ele>215.7</ele>
        <time>2020-06-07T20:23:48Z</time>
      </trkpt>
      <trkpt lat="48.04167" lon="-3.75966">
        <ele>215.9</ele>
        <time>2020-06-07T20:23:49Z</time>
      </trkpt>
      <trkpt lat="48.0416" lon="-3.75962">
        <ele>216.1</ele>
        <time>2020-06-07T20:23:50Z</time>
      </trkpt>
      <trkpt lat="48.04153" lon="-3.75959">
        <ele>216.3</ele>
        <time>2020-06-07T20:23:51Z</time>
      </trkpt>
      <trkpt lat="48.04147" lon="-3.75956">
        <ele>216.5</ele>
        <time>2020-06-07T20:23:52Z</time>
      </trkpt>
      <trkpt lat="48.04141" lon="-3.75953">
        <ele>216.8</ele>
        <time>2020-06-07T20:23:53Z</time>
      </trkpt>
      <trkpt lat="48.04135" lon="-3.75951">
        <ele>216.9</ele>
        <time>2020-06-07T20:23:54Z</time>
      </trkpt>
      <trkpt lat="48.04129" lon="-3.75948">
        <ele>217.1</ele>
        <time>2020-06-07T20:23:55Z</time>
      </trkpt>
      <trkpt lat="48.04123" lon="-3.75944">
        <ele>217.3</ele>
        <time>2020-06-07T20:23:56Z</time>
      </trkpt>
      <trkpt lat="48.04116" lon="-3.7594">
        <ele>217.5</ele>
        <time>2020-06-07T20:23:57Z</time>
      </trkpt>
      <trkpt lat="48.04111" lon="-3.75936">
        <ele>217.6</ele>
        <time>2020-06-07T20:23:58Z</time>
      </trkpt>
      <trkpt lat="48.04105" lon="-3.75933">
        <ele>217.7</ele>
        <time>2020-06-07T20:23:59Z</time>
      </trkpt>
      <trkpt lat="48.04099" lon="-3.75931">
        <ele>217.8</ele>
        <time>2020-06-07T20:24:00Z</time>
      </trkpt>
      <trkpt lat="48.04093" lon="-3.75929">
        <ele>217.9</ele>
        <time>2020-06-07T20:24:01Z</time>
      </trkpt>
      <trkpt lat="48.04086" lon="-3.75925">
        <ele>217.9</ele>
        <time>2020-06-07T20:24:02Z</time>
      </trkpt>
      <trkpt lat="48.04081" lon="-3.75922">
        <ele>217.9</ele>
        <time>2020-06-07T20:24:03Z</time>
      </trkpt>
      <trkpt lat="48.04074" lon="-3.75919">
        <ele>217.9</ele>
        <time>2020-06-07T20:24:04Z</time>
      </trkpt>
      <trkpt lat="48.04066" lon="-3.75916">
        <ele>217.8</ele>
        <time>2020-06-07T20:24:05Z</time>
      </trkpt>
      <trkpt lat="48.04058" lon="-3.75911">
        <ele>217.7</ele>
        <time>2020-06-07T20:24:06Z</time>
      </trkpt>
      <trkpt lat="48.04051" lon="-3.75907">
        <ele>217.5</ele>
        <time>2020-06-07T20:24:07Z</time>
      </trkpt>
      <trkpt lat="48.04043" lon="-3.75903">
        <ele>217.2</ele>
        <time>2020-06-07T20:24:08Z</time>
      </trkpt>
      <trkpt lat="48.04035" lon="-3.75897">
        <ele>216.9</ele>
        <time>2020-06-07T20:24:09Z</time>
      </trkpt>
      <trkpt lat="48.04027" lon="-3.75891">
        <ele>216.6</ele>
        <time>2020-06-07T20:24:10Z</time>
      </trkpt>
      <trkpt lat="48.04019" lon="-3.75887">
        <ele>216.4</ele>
        <time>2020-06-07T20:24:11Z</time>
      </trkpt>
      <trkpt lat="48.04011" lon="-3.75882">
        <ele>216.1</ele>
        <time>2020-06-07T20:24:12Z</time>
      </trkpt>
      <trkpt lat="48.04002" lon="-3.75877">
        <ele>215.8</ele>
        <time>2020-06-07T20:24:13Z</time>
      </trkpt>
      <trkpt lat="48.03995" lon="-3.75872">
        <ele>215.5</ele>
        <time>2020-06-07T20:24:14Z</time>
      </trkpt>
      <trkpt lat="48.03987" lon="-3.75868">
        <ele>215.2</ele>
        <time>2020-06-07T20:24:15Z</time>
      </trkpt>
      <trkpt lat="48.03979" lon="-3.75864">
        <ele>214.9</ele>
        <time>2020-06-07T20:24:16Z</time>
      </trkpt>
      <trkpt lat="48.0397" lon="-3.75861">
        <ele>214.6</ele>
        <time>2020-06-07T20:24:17Z</time>
      </trkpt>
      <trkpt lat="48.03962" lon="-3.75858">
        <ele>214.3</ele>
        <time>2020-06-07T20:24:18Z</time>
      </trkpt>
      <trkpt lat="48.03954" lon="-3.75856">
        <ele>213.9</ele>
        <time>2020-06-07T20:24:19Z</time>
      </trkpt>
      <trkpt lat="48.03945" lon="-3.75854">
        <ele>213.7</ele>
        <time>2020-06-07T20:24:20Z</time>
      </trkpt>
      <trkpt lat="48.03935" lon="-3.75853">
        <ele>213.5</ele>
        <time>2020-06-07T20:24:21Z</time>
      </trkpt>
      <trkpt lat="48.03925" lon="-3.75851">
        <ele>213.3</ele>
        <time>2020-06-07T20:24:22Z</time>
      </trkpt>
      <trkpt lat="48.03916" lon="-3.7585">
        <ele>213.1</ele>
        <time>2020-06-07T20:24:23Z</time>
      </trkpt>
      <trkpt lat="48.03905" lon="-3.75849">
        <ele>212.9</ele>
        <time>2020-06-07T20:24:24Z</time>
      </trkpt>
      <trkpt lat="48.03894" lon="-3.75848">
        <ele>212.5</ele>
        <time>2020-06-07T20:24:25Z</time>
      </trkpt>
      <trkpt lat="48.03884" lon="-3.75844">
        <ele>212.1</ele>
        <time>2020-06-07T20:24:26Z</time>
      </trkpt>
      <trkpt lat="48.03873" lon="-3.75841">
        <ele>211.8</ele>
        <time>2020-06-07T20:24:27Z</time>
      </trkpt>
      <trkpt lat="48.03863" lon="-3.7584">
        <ele>211.5</ele>
        <time>2020-06-07T20:24:28Z</time>
      </trkpt>
      <trkpt lat="48.03852" lon="-3.75839">
        <ele>211</ele>
        <time>2020-06-07T20:24:29Z</time>
      </trkpt>
      <trkpt lat="48.03842" lon="-3.75837">
        <ele>210.5</ele>
        <time>2020-06-07T20:24:30Z</time>
      </trkpt>
      <trkpt lat="48.03831" lon="-3.75837">
        <ele>210</ele>
        <time>2020-06-07T20:24:31Z</time>
      </trkpt>
      <trkpt lat="48.03821" lon="-3.75838">
        <ele>209.5</ele>
        <time>2020-06-07T20:24:32Z</time>
      </trkpt>
      <trkpt lat="48.03811" lon="-3.75838">
        <ele>209.2</ele>
        <time>2020-06-07T20:24:33Z</time>
      </trkpt>
      <trkpt lat="48.03801" lon="-3.75837">
        <ele>208.9</ele>
        <time>2020-06-07T20:24:34Z</time>
      </trkpt>
      <trkpt lat="48.03791" lon="-3.75836">
        <ele>208.6</ele>
        <time>2020-06-07T20:24:35Z</time>
      </trkpt>
      <trkpt lat="48.03781" lon="-3.75834">
        <ele>208.3</ele>
        <time>2020-06-07T20:24:36Z</time>
      </trkpt>
      <trkpt lat="48.0377" lon="-3.75832">
        <ele>207.9</ele>
        <time>2020-06-07T20:24:37Z</time>
      </trkpt>
      <trkpt lat="48.0376" lon="-3.7583">
        <ele>207.6</ele>
        <time>2020-06-07T20:24:38Z</time>
      </trkpt>
      <trkpt lat="48.0375" lon="-3.75829">
        <ele>207.1</ele>
        <time>2020-06-07T20:24:39Z</time>
      </trkpt>
      <trkpt lat="48.0374" lon="-3.75826">
        <ele>206.6</ele>
        <time>2020-06-07T20:24:40Z</time>
      </trkpt>
      <trkpt lat="48.03729" lon="-3.75823">
        <ele>206.1</ele>
        <time>2020-06-07T20:24:41Z</time>
      </trkpt>
      <trkpt lat="48.03719" lon="-3.7582">
        <ele>205.6</ele>
        <time>2020-06-07T20:24:42Z</time>
      </trkpt>
      <trkpt lat="48.03709" lon="-3.75815">
        <ele>205</ele>
        <time>2020-06-07T20:24:43Z</time>
      </trkpt>
      <trkpt lat="48.03699" lon="-3.75811">
        <ele>204.4</ele>
        <time>2020-06-07T20:24:44Z</time>
      </trkpt>
      <trkpt lat="48.03688" lon="-3.75806">
        <ele>203.6</ele>
        <time>2020-06-07T20:24:45Z</time>
      </trkpt>
      <trkpt lat="48.03678" lon="-3.758">
        <ele>202.7</ele>
        <time>2020-06-07T20:24:46Z</time>
      </trkpt>
      <trkpt lat="48.03667" lon="-3.75794">
        <ele>201.4</ele>
        <time>2020-06-07T20:24:47Z</time>
      </trkpt>
      <trkpt lat="48.03657" lon="-3.75787">
        <ele>200.3</ele>
        <time>2020-06-07T20:24:48Z</time>
      </trkpt>
      <trkpt lat="48.03648" lon="-3.7578">
        <ele>200.4</ele>
        <time>2020-06-07T20:24:49Z</time>
      </trkpt>
      <trkpt lat="48.03638" lon="-3.75772">
        <ele>200.8</ele>
        <time>2020-06-07T20:24:50Z</time>
      </trkpt>
      <trkpt lat="48.03628" lon="-3.75765">
        <ele>201.3</ele>
        <time>2020-06-07T20:24:51Z</time>
      </trkpt>
      <trkpt lat="48.03618" lon="-3.75758">
        <ele>201.1</ele>
        <time>2020-06-07T20:24:52Z</time>
      </trkpt>
      <trkpt lat="48.03608" lon="-3.75751">
        <ele>200.5</ele>
        <time>2020-06-07T20:24:53Z</time>
      </trkpt>
      <trkpt lat="48.03598" lon="-3.75746">
        <ele>200</ele>
        <time>2020-06-07T20:24:54Z</time>
      </trkpt>
      <trkpt lat="48.03588" lon="-3.75741">
        <ele>199.8</ele>
        <time>2020-06-07T20:24:55Z</time>
      </trkpt>
      <trkpt lat="48.03578" lon="-3.75737">
        <ele>199.6</ele>
        <time>2020-06-07T20:24:56Z</time>
      </trkpt>
      <trkpt lat="48.03568" lon="-3.75735">
        <ele>199.4</ele>
        <time>2020-06-07T20:24:57Z</time>
      </trkpt>
      <trkpt lat="48.03559" lon="-3.75732">
        <ele>199.3</ele>
        <time>2020-06-07T20:24:58Z</time>
      </trkpt>
      <trkpt lat="48.0355" lon="-3.75729">
        <ele>199.2</ele>
        <time>2020-06-07T20:24:59Z</time>
      </trkpt>
      <trkpt lat="48.03542" lon="-3.75726">
        <ele>199.1</ele>
        <time>2020-06-07T20:25:00Z</time>
      </trkpt>
      <trkpt lat="48.03534" lon="-3.75725">
        <ele>199.1</ele>
        <time>2020-06-07T20:25:01Z</time>
      </trkpt>
      <trkpt lat="48.03525" lon="-3.75724">
        <ele>199</ele>
        <time>2020-06-07T20:25:02Z</time>
      </trkpt>
      <trkpt lat="48.03516" lon="-3.75722">
        <ele>198.9</ele>
        <time>2020-06-07T20:25:03Z</time>
      </trkpt>
      <trkpt lat="48.03508" lon="-3.75719">
        <ele>198.7</ele>
        <time>2020-06-07T20:25:04Z</time>
      </trkpt>
      <trkpt lat="48.03499" lon="-3.75716">
        <ele>198.6</ele>
        <time>2020-06-07T20:25:05Z</time>
      </trkpt>
      <trkpt lat="48.03491" lon="-3.75714">
        <ele>198.6</ele>
        <time>2020-06-07T20:25:06Z</time>
      </trkpt>
      <trkpt lat="48.03484" lon="-3.75712">
        <ele>198.7</ele>
        <time>2020-06-07T20:25:07Z</time>
      </trkpt>
      <trkpt lat="48.03476" lon="-3.75709">
        <ele>198.7</ele>
        <time>2020-06-07T20:25:08Z</time>
      </trkpt>
      <trkpt lat="48.03469" lon="-3.75707">
        <ele>198.8</ele>
        <time>2020-06-07T20:25:09Z</time>
      </trkpt>
      <trkpt lat="48.03461" lon="-3.75705">
        <ele>198.9</ele>
        <time>2020-06-07T20:25:10Z</time>
      </trkpt>
      <trkpt lat="48.03454" lon="-3.75701">
        <ele>198.9</ele>
        <time>2020-06-07T20:25:11Z</time>
      </trkpt>
      <trkpt lat="48.03447" lon="-3.75699">
        <ele>199</ele>
        <time>2020-06-07T20:25:12Z</time>
      </trkpt>
      <trkpt lat="48.0344" lon="-3.75696">
        <ele>199.1</ele>
        <time>2020-06-07T20:25:13Z</time>
      </trkpt>
      <trkpt lat="48.03433" lon="-3.75693">
        <ele>199.2</ele>
        <time>2020-06-07T20:25:14Z</time>
      </trkpt>
      <trkpt lat="48.03427" lon="-3.7569">
        <ele>199.2</ele>
        <time>2020-06-07T20:25:15Z</time>
      </trkpt>
      <trkpt lat="48.0342" lon="-3.75689">
        <ele>199.2</ele>
        <time>2020-06-07T20:25:16Z</time>
      </trkpt>
      <trkpt lat="48.03413" lon="-3.75689">
        <ele>199.2</ele>
        <time>2020-06-07T20:25:17Z</time>
      </trkpt>
      <trkpt lat="48.03406" lon="-3.75688">
        <ele>199.2</ele>
        <time>2020-06-07T20:25:18Z</time>
      </trkpt>
      <trkpt lat="48.034" lon="-3.75686">
        <ele>199.2</ele>
        <time>2020-06-07T20:25:19Z</time>
      </trkpt>
      <trkpt lat="48.03394" lon="-3.75684">
        <ele>199.2</ele>
        <time>2020-06-07T20:25:20Z</time>
      </trkpt>
      <trkpt lat="48.03388" lon="-3.75682">
        <ele>199.1</ele>
        <time>2020-06-07T20:25:21Z</time>
      </trkpt>
      <trkpt lat="48.03381" lon="-3.75679">
        <ele>199.1</ele>
        <time>2020-06-07T20:25:22Z</time>
      </trkpt>
      <trkpt lat="48.03375" lon="-3.75677">
        <ele>199</ele>
        <time>2020-06-07T20:25:23Z</time>
      </trkpt>
      <trkpt lat="48.03368" lon="-3.75676">
        <ele>198.9</ele>
        <time>2020-06-07T20:25:24Z</time>
      </trkpt>
      <trkpt lat="48.03362" lon="-3.75675">
        <ele>198.8</ele>
        <time>2020-06-07T20:25:25Z</time>
      </trkpt>
      <trkpt lat="48.03355" lon="-3.75673">
        <ele>198.8</ele>
        <time>2020-06-07T20:25:26Z</time>
      </trkpt>
      <trkpt lat="48.03347" lon="-3.75671">
        <ele>198.7</ele>
        <time>2020-06-07T20:25:27Z</time>
      </trkpt>
      <trkpt lat="48.03339" lon="-3.75669">
        <ele>198.7</ele>
        <time>2020-06-07T20:25:28Z</time>
      </trkpt>
      <trkpt lat="48.0333" lon="-3.75667">
        <ele>198.7</ele>
        <time>2020-06-07T20:25:29Z</time>
      </trkpt>
      <trkpt lat="48.03321" lon="-3.75664">
        <ele>198.6</ele>
        <time>2020-06-07T20:25:30Z</time>
      </trkpt>
      <trkpt lat="48.03313" lon="-3.7566">
        <ele>198.5</ele>
        <time>2020-06-07T20:25:31Z</time>
      </trkpt>
      <trkpt lat="48.03304" lon="-3.75658">
        <ele>198.5</ele>
        <time>2020-06-07T20:25:32Z</time>
      </trkpt>
      <trkpt lat="48.03297" lon="-3.75653">
        <ele>198.5</ele>
        <time>2020-06-07T20:25:33Z</time>
      </trkpt>
      <trkpt lat="48.03289" lon="-3.75648">
        <ele>198.6</ele>
        <time>2020-06-07T20:25:34Z</time>
      </trkpt>
      <trkpt lat="48.03281" lon="-3.75643">
        <ele>198.6</ele>
        <time>2020-06-07T20:25:35Z</time>
      </trkpt>
      <trkpt lat="48.03274" lon="-3.7564">
        <ele>198.6</ele>
        <time>2020-06-07T20:25:36Z</time>
      </trkpt>
      <trkpt lat="48.03266" lon="-3.75639">
        <ele>198.6</ele>
        <time>2020-06-07T20:25:37Z</time>
      </trkpt>
      <trkpt lat="48.0326" lon="-3.75641">
        <ele>198.6</ele>
        <time>2020-06-07T20:25:38Z</time>
      </trkpt>
      <trkpt lat="48.03254" lon="-3.75648">
        <ele>198.6</ele>
        <time>2020-06-07T20:25:39Z</time>
      </trkpt>
      <trkpt lat="48.03249" lon="-3.75655">
        <ele>198.6</ele>
        <time>2020-06-07T20:25:40Z</time>
      </trkpt>
      <trkpt lat="48.03246" lon="-3.75661">
        <ele>198.6</ele>
        <time>2020-06-07T20:25:41Z</time>
      </trkpt>
      <trkpt lat="48.03242" lon="-3.75665">
        <ele>198.5</ele>
        <time>2020-06-07T20:25:42Z</time>
      </trkpt>
      <trkpt lat="48.03238" lon="-3.75666">
        <ele>198.3</ele>
        <time>2020-06-07T20:25:43Z</time>
      </trkpt>
      <trkpt lat="48.03232" lon="-3.75668">
        <ele>198.1</ele>
        <time>2020-06-07T20:25:44Z</time>
      </trkpt>
      <trkpt lat="48.03226" lon="-3.75668">
        <ele>197.8</ele>
        <time>2020-06-07T20:25:45Z</time>
      </trkpt>
      <trkpt lat="48.03219" lon="-3.75668">
        <ele>197.5</ele>
        <time>2020-06-07T20:25:46Z</time>
      </trkpt>
      <trkpt lat="48.03212" lon="-3.75665">
        <ele>197.1</ele>
        <time>2020-06-07T20:25:47Z</time>
      </trkpt>
      <trkpt lat="48.03204" lon="-3.75661">
        <ele>196.8</ele>
        <time>2020-06-07T20:25:48Z</time>
      </trkpt>
      <trkpt lat="48.03196" lon="-3.75659">
        <ele>196.5</ele>
        <time>2020-06-07T20:25:49Z</time>
      </trkpt>
      <trkpt lat="48.03187" lon="-3.75657">
        <ele>196.3</ele>
        <time>2020-06-07T20:25:50Z</time>
      </trkpt>
      <trkpt lat="48.03178" lon="-3.75654">
        <ele>196</ele>
        <time>2020-06-07T20:25:51Z</time>
      </trkpt>
      <trkpt lat="48.03172" lon="-3.75652">
        <ele>195.9</ele>
        <time>2020-06-07T20:25:52Z</time>
      </trkpt>
      <trkpt lat="48.03166" lon="-3.75648">
        <ele>195.6</ele>
        <time>2020-06-07T20:25:53Z</time>
      </trkpt>
      <trkpt lat="48.03159" lon="-3.75645">
        <ele>195.4</ele>
        <time>2020-06-07T20:25:54Z</time>
      </trkpt>
      <trkpt lat="48.03152" lon="-3.75641">
        <ele>195.1</ele>
        <time>2020-06-07T20:25:55Z</time>
      </trkpt>
      <trkpt lat="48.03144" lon="-3.75637">
        <ele>195</ele>
        <time>2020-06-07T20:25:56Z</time>
      </trkpt>
      <trkpt lat="48.03135" lon="-3.75634">
        <ele>194.8</ele>
        <time>2020-06-07T20:25:57Z</time>
      </trkpt>
      <trkpt lat="48.03125" lon="-3.7563">
        <ele>194.8</ele>
        <time>2020-06-07T20:25:58Z</time>
      </trkpt>
      <trkpt lat="48.03116" lon="-3.75627">
        <ele>194.7</ele>
        <time>2020-06-07T20:25:59Z</time>
      </trkpt>
      <trkpt lat="48.03106" lon="-3.75623">
        <ele>194.6</ele>
        <time>2020-06-07T20:26:00Z</time>
      </trkpt>
      <trkpt lat="48.03094" lon="-3.75619">
        <ele>194.3</ele>
        <time>2020-06-07T20:26:01Z</time>
      </trkpt>
      <trkpt lat="48.03083" lon="-3.75615">
        <ele>194.1</ele>
        <time>2020-06-07T20:26:02Z</time>
      </trkpt>
      <trkpt lat="48.03073" lon="-3.75612">
        <ele>193.9</ele>
        <time>2020-06-07T20:26:03Z</time>
      </trkpt>
      <trkpt lat="48.03062" lon="-3.75609">
        <ele>193.8</ele>
        <time>2020-06-07T20:26:04Z</time>
      </trkpt>
      <trkpt lat="48.03052" lon="-3.75606">
        <ele>193.6</ele>
        <time>2020-06-07T20:26:05Z</time>
      </trkpt>
      <trkpt lat="48.03042" lon="-3.75604">
        <ele>193.4</ele>
        <time>2020-06-07T20:26:06Z</time>
      </trkpt>
      <trkpt lat="48.03032" lon="-3.75603">
        <ele>193.2</ele>
        <time>2020-06-07T20:26:07Z</time>
      </trkpt>
      <trkpt lat="48.03024" lon="-3.75601">
        <ele>193.1</ele>
        <time>2020-06-07T20:26:08Z</time>
      </trkpt>
      <trkpt lat="48.03017" lon="-3.75599">
        <ele>193.1</ele>
        <time>2020-06-07T20:26:09Z</time>
      </trkpt>
      <trkpt lat="48.03009" lon="-3.75596">
        <ele>193.1</ele>
        <time>2020-06-07T20:26:10Z</time>
      </trkpt>
      <trkpt lat="48.02999" lon="-3.75594">
        <ele>192.9</ele>
        <time>2020-06-07T20:26:11Z</time>
      </trkpt>
      <trkpt lat="48.0299" lon="-3.75593">
        <ele>192.8</ele>
        <time>2020-06-07T20:26:12Z</time>
      </trkpt>
      <trkpt lat="48.0298" lon="-3.75592">
        <ele>192.7</ele>
        <time>2020-06-07T20:26:13Z</time>
      </trkpt>
      <trkpt lat="48.02971" lon="-3.75591">
        <ele>192.6</ele>
        <time>2020-06-07T20:26:14Z</time>
      </trkpt>
      <trkpt lat="48.02961" lon="-3.75589">
        <ele>192.6</ele>
        <time>2020-06-07T20:26:15Z</time>
      </trkpt>
      <trkpt lat="48.02952" lon="-3.75588">
        <ele>192.4</ele>
        <time>2020-06-07T20:26:16Z</time>
      </trkpt>
      <trkpt lat="48.02944" lon="-3.75588">
        <ele>192.3</ele>
        <time>2020-06-07T20:26:17Z</time>
      </trkpt>
      <trkpt lat="48.02936" lon="-3.75587">
        <ele>192.2</ele>
        <time>2020-06-07T20:26:18Z</time>
      </trkpt>
      <trkpt lat="48.02927" lon="-3.75587">
        <ele>192.2</ele>
        <time>2020-06-07T20:26:19Z</time>
      </trkpt>
      <trkpt lat="48.02919" lon="-3.75587">
        <ele>192.2</ele>
        <time>2020-06-07T20:26:20Z</time>
      </trkpt>
      <trkpt lat="48.0291" lon="-3.75586">
        <ele>192.1</ele>
        <time>2020-06-07T20:26:21Z</time>
      </trkpt>
      <trkpt lat="48.029" lon="-3.75587">
        <ele>191.9</ele>
        <time>2020-06-07T20:26:22Z</time>
      </trkpt>
      <trkpt lat="48.02892" lon="-3.75587">
        <ele>191.7</ele>
        <time>2020-06-07T20:26:23Z</time>
      </trkpt>
      <trkpt lat="48.02883" lon="-3.75586">
        <ele>191.4</ele>
        <time>2020-06-07T20:26:24Z</time>
      </trkpt>
      <trkpt lat="48.02874" lon="-3.75586">
        <ele>191.1</ele>
        <time>2020-06-07T20:26:25Z</time>
      </trkpt>
      <trkpt lat="48.02864" lon="-3.75585">
        <ele>190.9</ele>
        <time>2020-06-07T20:26:26Z</time>
      </trkpt>
      <trkpt lat="48.02855" lon="-3.75584">
        <ele>190.7</ele>
        <time>2020-06-07T20:26:27Z</time>
      </trkpt>
      <trkpt lat="48.02846" lon="-3.75583">
        <ele>190.5</ele>
        <time>2020-06-07T20:26:28Z</time>
      </trkpt>
      <trkpt lat="48.02837" lon="-3.75582">
        <ele>190.4</ele>
        <time>2020-06-07T20:26:29Z</time>
      </trkpt>
      <trkpt lat="48.02828" lon="-3.75581">
        <ele>190.2</ele>
        <time>2020-06-07T20:26:30Z</time>
      </trkpt>
      <trkpt lat="48.02818" lon="-3.7558">
        <ele>190.2</ele>
        <time>2020-06-07T20:26:31Z</time>
      </trkpt>
      <trkpt lat="48.02809" lon="-3.7558">
        <ele>190.2</ele>
        <time>2020-06-07T20:26:32Z</time>
      </trkpt>
      <trkpt lat="48.02801" lon="-3.7558">
        <ele>190.2</ele>
        <time>2020-06-07T20:26:33Z</time>
      </trkpt>
      <trkpt lat="48.02794" lon="-3.7558">
        <ele>190.1</ele>
        <time>2020-06-07T20:26:34Z</time>
      </trkpt>
      <trkpt lat="48.02786" lon="-3.7558">
        <ele>190</ele>
        <time>2020-06-07T20:26:35Z</time>
      </trkpt>
      <trkpt lat="48.02778" lon="-3.7558">
        <ele>189.9</ele>
        <time>2020-06-07T20:26:36Z</time>
      </trkpt>
      <trkpt lat="48.02771" lon="-3.75579">
        <ele>189.9</ele>
        <time>2020-06-07T20:26:37Z</time>
      </trkpt>
      <trkpt lat="48.02765" lon="-3.75579">
        <ele>189.9</ele>
        <time>2020-06-07T20:26:38Z</time>
      </trkpt>
      <trkpt lat="48.02758" lon="-3.75579">
        <ele>189.7</ele>
        <time>2020-06-07T20:26:39Z</time>
      </trkpt>
      <trkpt lat="48.02751" lon="-3.75579">
        <ele>189.4</ele>
        <time>2020-06-07T20:26:40Z</time>
      </trkpt>
      <trkpt lat="48.02744" lon="-3.75578">
        <ele>189.2</ele>
        <time>2020-06-07T20:26:41Z</time>
      </trkpt>
      <trkpt lat="48.02737" lon="-3.75577">
        <ele>189.1</ele>
        <time>2020-06-07T20:26:42Z</time>
      </trkpt>
      <trkpt lat="48.02728" lon="-3.75578">
        <ele>188.9</ele>
        <time>2020-06-07T20:26:43Z</time>
      </trkpt>
      <trkpt lat="48.0272" lon="-3.75577">
        <ele>188.5</ele>
        <time>2020-06-07T20:26:44Z</time>
      </trkpt>
      <trkpt lat="48.02711" lon="-3.75576">
        <ele>188.3</ele>
        <time>2020-06-07T20:26:45Z</time>
      </trkpt>
      <trkpt lat="48.02703" lon="-3.75575">
        <ele>188.1</ele>
        <time>2020-06-07T20:26:46Z</time>
      </trkpt>
      <trkpt lat="48.02695" lon="-3.75573">
        <ele>187.8</ele>
        <time>2020-06-07T20:26:47Z</time>
      </trkpt>
      <trkpt lat="48.02686" lon="-3.75572">
        <ele>187.5</ele>
        <time>2020-06-07T20:26:48Z</time>
      </trkpt>
      <trkpt lat="48.02677" lon="-3.7557">
        <ele>187.7</ele>
        <time>2020-06-07T20:26:49Z</time>
      </trkpt>
      <trkpt lat="48.02668" lon="-3.75568">
        <ele>189.3</ele>
        <time>2020-06-07T20:26:50Z</time>
      </trkpt>
      <trkpt lat="48.02657" lon="-3.75566">
        <ele>190.6</ele>
        <time>2020-06-07T20:26:51Z</time>
      </trkpt>
      <trkpt lat="48.02646" lon="-3.75564">
        <ele>190.9</ele>
        <time>2020-06-07T20:26:52Z</time>
      </trkpt>
      <trkpt lat="48.02634" lon="-3.75563">
        <ele>190.6</ele>
        <time>2020-06-07T20:26:53Z</time>
      </trkpt>
      <trkpt lat="48.02623" lon="-3.75562">
        <ele>190</ele>
        <time>2020-06-07T20:26:54Z</time>
      </trkpt>
      <trkpt lat="48.02614" lon="-3.75561">
        <ele>189.5</ele>
        <time>2020-06-07T20:26:55Z</time>
      </trkpt>
      <trkpt lat="48.02604" lon="-3.75562">
        <ele>188.9</ele>
        <time>2020-06-07T20:26:56Z</time>
      </trkpt>
      <trkpt lat="48.02595" lon="-3.75562">
        <ele>188.3</ele>
        <time>2020-06-07T20:26:57Z</time>
      </trkpt>
      <trkpt lat="48.02586" lon="-3.75561">
        <ele>187.6</ele>
        <time>2020-06-07T20:26:58Z</time>
      </trkpt>
      <trkpt lat="48.02578" lon="-3.75561">
        <ele>186.9</ele>
        <time>2020-06-07T20:26:59Z</time>
      </trkpt>
      <trkpt lat="48.02569" lon="-3.75562">
        <ele>186.4</ele>
        <time>2020-06-07T20:27:00Z</time>
      </trkpt>
      <trkpt lat="48.02561" lon="-3.75563">
        <ele>186.1</ele>
        <time>2020-06-07T20:27:01Z</time>
      </trkpt>
      <trkpt lat="48.02552" lon="-3.75563">
        <ele>185.7</ele>
        <time>2020-06-07T20:27:02Z</time>
      </trkpt>
      <trkpt lat="48.02543" lon="-3.75563">
        <ele>185.4</ele>
        <time>2020-06-07T20:27:03Z</time>
      </trkpt>
      <trkpt lat="48.02535" lon="-3.75563">
        <ele>185.1</ele>
        <time>2020-06-07T20:27:04Z</time>
      </trkpt>
      <trkpt lat="48.02526" lon="-3.75561">
        <ele>184.8</ele>
        <time>2020-06-07T20:27:05Z</time>
      </trkpt>
      <trkpt lat="48.02518" lon="-3.75559">
        <ele>184.5</ele>
        <time>2020-06-07T20:27:06Z</time>
      </trkpt>
      <trkpt lat="48.0251" lon="-3.75558">
        <ele>184.1</ele>
        <time>2020-06-07T20:27:07Z</time>
      </trkpt>
      <trkpt lat="48.02501" lon="-3.75558">
        <ele>183.8</ele>
        <time>2020-06-07T20:27:08Z</time>
      </trkpt>
      <trkpt lat="48.02493" lon="-3.75558">
        <ele>183.5</ele>
        <time>2020-06-07T20:27:09Z</time>
      </trkpt>
      <trkpt lat="48.02485" lon="-3.75559">
        <ele>183.2</ele>
        <time>2020-06-07T20:27:10Z</time>
      </trkpt>
      <trkpt lat="48.02476" lon="-3.7556">
        <ele>182.8</ele>
        <time>2020-06-07T20:27:11Z</time>
      </trkpt>
      <trkpt lat="48.02468" lon="-3.7556">
        <ele>182.4</ele>
        <time>2020-06-07T20:27:12Z</time>
      </trkpt>
      <trkpt lat="48.0246" lon="-3.75559">
        <ele>182</ele>
        <time>2020-06-07T20:27:13Z</time>
      </trkpt>
      <trkpt lat="48.02452" lon="-3.75559">
        <ele>181.6</ele>
        <time>2020-06-07T20:27:14Z</time>
      </trkpt>
      <trkpt lat="48.02443" lon="-3.75559">
        <ele>181.2</ele>
        <time>2020-06-07T20:27:15Z</time>
      </trkpt>
      <trkpt lat="48.02434" lon="-3.75558">
        <ele>180.8</ele>
        <time>2020-06-07T20:27:16Z</time>
      </trkpt>
      <trkpt lat="48.02426" lon="-3.75558">
        <ele>180.4</ele>
        <time>2020-06-07T20:27:17Z</time>
      </trkpt>
      <trkpt lat="48.02417" lon="-3.75559">
        <ele>180</ele>
        <time>2020-06-07T20:27:18Z</time>
      </trkpt>
      <trkpt lat="48.02408" lon="-3.75559">
        <ele>179.2</ele>
        <time>2020-06-07T20:27:19Z</time>
      </trkpt>
      <trkpt lat="48.02399" lon="-3.75559">
        <ele>178.9</ele>
        <time>2020-06-07T20:27:20Z</time>
      </trkpt>
      <trkpt lat="48.0239" lon="-3.75559">
        <ele>178.6</ele>
        <time>2020-06-07T20:27:21Z</time>
      </trkpt>
      <trkpt lat="48.02382" lon="-3.75558">
        <ele>178.3</ele>
        <time>2020-06-07T20:27:22Z</time>
      </trkpt>
      <trkpt lat="48.02373" lon="-3.75558">
        <ele>178.1</ele>
        <time>2020-06-07T20:27:23Z</time>
      </trkpt>
      <trkpt lat="48.02365" lon="-3.75558">
        <ele>177.9</ele>
        <time>2020-06-07T20:27:24Z</time>
      </trkpt>
      <trkpt lat="48.02357" lon="-3.75558">
        <ele>177.7</ele>
        <time>2020-06-07T20:27:25Z</time>
      </trkpt>
      <trkpt lat="48.02348" lon="-3.75558">
        <ele>177.5</ele>
        <time>2020-06-07T20:27:26Z</time>
      </trkpt>
      <trkpt lat="48.0234" lon="-3.75557">
        <ele>177.3</ele>
        <time>2020-06-07T20:27:27Z</time>
      </trkpt>
      <trkpt lat="48.02331" lon="-3.75557">
        <ele>177.2</ele>
        <time>2020-06-07T20:27:28Z</time>
      </trkpt>
      <trkpt lat="48.02322" lon="-3.75557">
        <ele>177.2</ele>
        <time>2020-06-07T20:27:29Z</time>
      </trkpt>
      <trkpt lat="48.02312" lon="-3.75556">
        <ele>177.2</ele>
        <time>2020-06-07T20:27:30Z</time>
      </trkpt>
      <trkpt lat="48.02303" lon="-3.75555">
        <ele>177.2</ele>
        <time>2020-06-07T20:27:31Z</time>
      </trkpt>
      <trkpt lat="48.02293" lon="-3.75555">
        <ele>177.3</ele>
        <time>2020-06-07T20:27:32Z</time>
      </trkpt>
      <trkpt lat="48.02284" lon="-3.75555">
        <ele>177.2</ele>
        <time>2020-06-07T20:27:33Z</time>
      </trkpt>
      <trkpt lat="48.02274" lon="-3.75556">
        <ele>177.1</ele>
        <time>2020-06-07T20:27:34Z</time>
      </trkpt>
      <trkpt lat="48.02264" lon="-3.75557">
        <ele>177</ele>
        <time>2020-06-07T20:27:35Z</time>
      </trkpt>
      <trkpt lat="48.02254" lon="-3.75558">
        <ele>176.9</ele>
        <time>2020-06-07T20:27:36Z</time>
      </trkpt>
      <trkpt lat="48.02245" lon="-3.75559">
        <ele>176.9</ele>
        <time>2020-06-07T20:27:37Z</time>
      </trkpt>
      <trkpt lat="48.02235" lon="-3.75561">
        <ele>176.9</ele>
        <time>2020-06-07T20:27:38Z</time>
      </trkpt>
      <trkpt lat="48.02226" lon="-3.75562">
        <ele>176.8</ele>
        <time>2020-06-07T20:27:39Z</time>
      </trkpt>
      <trkpt lat="48.02217" lon="-3.75562">
        <ele>176.8</ele>
        <time>2020-06-07T20:27:40Z</time>
      </trkpt>
      <trkpt lat="48.02207" lon="-3.75562">
        <ele>176.9</ele>
        <time>2020-06-07T20:27:41Z</time>
      </trkpt>
      <trkpt lat="48.02199" lon="-3.75563">
        <ele>177</ele>
        <time>2020-06-07T20:27:42Z</time>
      </trkpt>
      <trkpt lat="48.02189" lon="-3.75565">
        <ele>177.1</ele>
        <time>2020-06-07T20:27:43Z</time>
      </trkpt>
      <trkpt lat="48.0218" lon="-3.75566">
        <ele>177.1</ele>
        <time>2020-06-07T20:27:44Z</time>
      </trkpt>
      <trkpt lat="48.02171" lon="-3.75567">
        <ele>177.1</ele>
        <time>2020-06-07T20:27:45Z</time>
      </trkpt>
      <trkpt lat="48.02162" lon="-3.75568">
        <ele>176.9</ele>
        <time>2020-06-07T20:27:46Z</time>
      </trkpt>
      <trkpt lat="48.02152" lon="-3.75569">
        <ele>176.7</ele>
        <time>2020-06-07T20:27:47Z</time>
      </trkpt>
      <trkpt lat="48.02143" lon="-3.7557">
        <ele>176.5</ele>
        <time>2020-06-07T20:27:48Z</time>
      </trkpt>
      <trkpt lat="48.02134" lon="-3.75571">
        <ele>176.4</ele>
        <time>2020-06-07T20:27:49Z</time>
      </trkpt>
      <trkpt lat="48.02125" lon="-3.75572">
        <ele>176.4</ele>
        <time>2020-06-07T20:27:50Z</time>
      </trkpt>
      <trkpt lat="48.02117" lon="-3.75572">
        <ele>176.5</ele>
        <time>2020-06-07T20:27:51Z</time>
      </trkpt>
      <trkpt lat="48.02109" lon="-3.75573">
        <ele>176.6</ele>
        <time>2020-06-07T20:27:52Z</time>
      </trkpt>
      <trkpt lat="48.02101" lon="-3.75574">
        <ele>176.7</ele>
        <time>2020-06-07T20:27:53Z</time>
      </trkpt>
      <trkpt lat="48.02092" lon="-3.75575">
        <ele>176.8</ele>
        <time>2020-06-07T20:27:54Z</time>
      </trkpt>
      <trkpt lat="48.02084" lon="-3.75577">
        <ele>176.9</ele>
        <time>2020-06-07T20:27:55Z</time>
      </trkpt>
      <trkpt lat="48.02075" lon="-3.75578">
        <ele>176.9</ele>
        <time>2020-06-07T20:27:56Z</time>
      </trkpt>
      <trkpt lat="48.02066" lon="-3.75578">
        <ele>177.5</ele>
        <time>2020-06-07T20:27:57Z</time>
      </trkpt>
      <trkpt lat="48.02057" lon="-3.75578">
        <ele>177.8</ele>
        <time>2020-06-07T20:27:58Z</time>
      </trkpt>
      <trkpt lat="48.02049" lon="-3.75577">
        <ele>178.1</ele>
        <time>2020-06-07T20:27:59Z</time>
      </trkpt>
      <trkpt lat="48.02041" lon="-3.75577">
        <ele>178.2</ele>
        <time>2020-06-07T20:28:00Z</time>
      </trkpt>
      <trkpt lat="48.02033" lon="-3.75575">
        <ele>178.4</ele>
        <time>2020-06-07T20:28:01Z</time>
      </trkpt>
      <trkpt lat="48.02025" lon="-3.75573">
        <ele>178.5</ele>
        <time>2020-06-07T20:28:02Z</time>
      </trkpt>
      <trkpt lat="48.02018" lon="-3.75573">
        <ele>178.5</ele>
        <time>2020-06-07T20:28:03Z</time>
      </trkpt>
      <trkpt lat="48.0201" lon="-3.75573">
        <ele>178.5</ele>
        <time>2020-06-07T20:28:04Z</time>
      </trkpt>
      <trkpt lat="48.02002" lon="-3.75571">
        <ele>178.5</ele>
        <time>2020-06-07T20:28:05Z</time>
      </trkpt>
      <trkpt lat="48.01994" lon="-3.75571">
        <ele>178.6</ele>
        <time>2020-06-07T20:28:06Z</time>
      </trkpt>
      <trkpt lat="48.01987" lon="-3.7557">
        <ele>178.6</ele>
        <time>2020-06-07T20:28:07Z</time>
      </trkpt>
      <trkpt lat="48.01981" lon="-3.75569">
        <ele>178.7</ele>
        <time>2020-06-07T20:28:08Z</time>
      </trkpt>
      <trkpt lat="48.01974" lon="-3.75568">
        <ele>178.7</ele>
        <time>2020-06-07T20:28:09Z</time>
      </trkpt>
      <trkpt lat="48.01968" lon="-3.75568">
        <ele>178.8</ele>
        <time>2020-06-07T20:28:10Z</time>
      </trkpt>
      <trkpt lat="48.01961" lon="-3.75567">
        <ele>178.8</ele>
        <time>2020-06-07T20:28:11Z</time>
      </trkpt>
      <trkpt lat="48.01955" lon="-3.75566">
        <ele>178.7</ele>
        <time>2020-06-07T20:28:12Z</time>
      </trkpt>
      <trkpt lat="48.01949" lon="-3.75566">
        <ele>178.6</ele>
        <time>2020-06-07T20:28:13Z</time>
      </trkpt>
      <trkpt lat="48.01943" lon="-3.75565">
        <ele>178.5</ele>
        <time>2020-06-07T20:28:14Z</time>
      </trkpt>
      <trkpt lat="48.01937" lon="-3.75564">
        <ele>178.5</ele>
        <time>2020-06-07T20:28:15Z</time>
      </trkpt>
      <trkpt lat="48.01932" lon="-3.75562">
        <ele>178.4</ele>
        <time>2020-06-07T20:28:16Z</time>
      </trkpt>
      <trkpt lat="48.01927" lon="-3.75561">
        <ele>178.3</ele>
        <time>2020-06-07T20:28:17Z</time>
      </trkpt>
      <trkpt lat="48.01921" lon="-3.7556">
        <ele>178.1</ele>
        <time>2020-06-07T20:28:18Z</time>
      </trkpt>
      <trkpt lat="48.01914" lon="-3.75559">
        <ele>178</ele>
        <time>2020-06-07T20:28:19Z</time>
      </trkpt>
      <trkpt lat="48.01908" lon="-3.75557">
        <ele>177.8</ele>
        <time>2020-06-07T20:28:20Z</time>
      </trkpt>
      <trkpt lat="48.01902" lon="-3.75554">
        <ele>177.7</ele>
        <time>2020-06-07T20:28:21Z</time>
      </trkpt>
      <trkpt lat="48.01896" lon="-3.7555">
        <ele>177.6</ele>
        <time>2020-06-07T20:28:22Z</time>
      </trkpt>
      <trkpt lat="48.0189" lon="-3.75546">
        <ele>177.5</ele>
        <time>2020-06-07T20:28:23Z</time>
      </trkpt>
      <trkpt lat="48.01883" lon="-3.75544">
        <ele>177.3</ele>
        <time>2020-06-07T20:28:24Z</time>
      </trkpt>
      <trkpt lat="48.01876" lon="-3.75542">
        <ele>177.2</ele>
        <time>2020-06-07T20:28:25Z</time>
      </trkpt>
      <trkpt lat="48.01869" lon="-3.75539">
        <ele>177</ele>
        <time>2020-06-07T20:28:26Z</time>
      </trkpt>
      <trkpt lat="48.01862" lon="-3.75535">
        <ele>176.9</ele>
        <time>2020-06-07T20:28:27Z</time>
      </trkpt>
      <trkpt lat="48.01856" lon="-3.75531">
        <ele>176.7</ele>
        <time>2020-06-07T20:28:28Z</time>
      </trkpt>
      <trkpt lat="48.0185" lon="-3.75527">
        <ele>176.5</ele>
        <time>2020-06-07T20:28:29Z</time>
      </trkpt>
      <trkpt lat="48.01843" lon="-3.75523">
        <ele>176.2</ele>
        <time>2020-06-07T20:28:30Z</time>
      </trkpt>
      <trkpt lat="48.01835" lon="-3.75519">
        <ele>175.9</ele>
        <time>2020-06-07T20:28:31Z</time>
      </trkpt>
      <trkpt lat="48.01828" lon="-3.75516">
        <ele>175.6</ele>
        <time>2020-06-07T20:28:32Z</time>
      </trkpt>
      <trkpt lat="48.0182" lon="-3.75513">
        <ele>175.3</ele>
        <time>2020-06-07T20:28:33Z</time>
      </trkpt>
      <trkpt lat="48.01811" lon="-3.75509">
        <ele>175</ele>
        <time>2020-06-07T20:28:34Z</time>
      </trkpt>
      <trkpt lat="48.01804" lon="-3.75505">
        <ele>174.7</ele>
        <time>2020-06-07T20:28:35Z</time>
      </trkpt>
      <trkpt lat="48.01796" lon="-3.75501">
        <ele>174.3</ele>
        <time>2020-06-07T20:28:36Z</time>
      </trkpt>
      <trkpt lat="48.01787" lon="-3.75499">
        <ele>173.8</ele>
        <time>2020-06-07T20:28:37Z</time>
      </trkpt>
      <trkpt lat="48.01779" lon="-3.75497">
        <ele>173.2</ele>
        <time>2020-06-07T20:28:38Z</time>
      </trkpt>
      <trkpt lat="48.01771" lon="-3.75494">
        <ele>172.8</ele>
        <time>2020-06-07T20:28:39Z</time>
      </trkpt>
      <trkpt lat="48.01763" lon="-3.75491">
        <ele>172.5</ele>
        <time>2020-06-07T20:28:40Z</time>
      </trkpt>
      <trkpt lat="48.01755" lon="-3.75487">
        <ele>172.1</ele>
        <time>2020-06-07T20:28:41Z</time>
      </trkpt>
      <trkpt lat="48.01747" lon="-3.75483">
        <ele>171.6</ele>
        <time>2020-06-07T20:28:42Z</time>
      </trkpt>
      <trkpt lat="48.01738" lon="-3.75479">
        <ele>171.2</ele>
        <time>2020-06-07T20:28:43Z</time>
      </trkpt>
      <trkpt lat="48.01731" lon="-3.75474">
        <ele>170.9</ele>
        <time>2020-06-07T20:28:44Z</time>
      </trkpt>
      <trkpt lat="48.01723" lon="-3.75471">
        <ele>170.6</ele>
        <time>2020-06-07T20:28:45Z</time>
      </trkpt>
      <trkpt lat="48.01715" lon="-3.75468">
        <ele>170.4</ele>
        <time>2020-06-07T20:28:46Z</time>
      </trkpt>
      <trkpt lat="48.01707" lon="-3.75465">
        <ele>170</ele>
        <time>2020-06-07T20:28:47Z</time>
      </trkpt>
      <trkpt lat="48.01699" lon="-3.75459">
        <ele>169.6</ele>
        <time>2020-06-07T20:28:48Z</time>
      </trkpt>
      <trkpt lat="48.0169" lon="-3.75454">
        <ele>169.1</ele>
        <time>2020-06-07T20:28:49Z</time>
      </trkpt>
      <trkpt lat="48.01682" lon="-3.7545">
        <ele>168.9</ele>
        <time>2020-06-07T20:28:50Z</time>
      </trkpt>
      <trkpt lat="48.01673" lon="-3.75445">
        <ele>168.8</ele>
        <time>2020-06-07T20:28:51Z</time>
      </trkpt>
      <trkpt lat="48.01664" lon="-3.75441">
        <ele>168.8</ele>
        <time>2020-06-07T20:28:52Z</time>
      </trkpt>
      <trkpt lat="48.01656" lon="-3.75436">
        <ele>168.7</ele>
        <time>2020-06-07T20:28:53Z</time>
      </trkpt>
      <trkpt lat="48.01647" lon="-3.75431">
        <ele>168.5</ele>
        <time>2020-06-07T20:28:54Z</time>
      </trkpt>
      <trkpt lat="48.01638" lon="-3.75426">
        <ele>168.3</ele>
        <time>2020-06-07T20:28:55Z</time>
      </trkpt>
      <trkpt lat="48.0163" lon="-3.75421">
        <ele>168.2</ele>
        <time>2020-06-07T20:28:56Z</time>
      </trkpt>
      <trkpt lat="48.01622" lon="-3.75416">
        <ele>168.1</ele>
        <time>2020-06-07T20:28:57Z</time>
      </trkpt>
      <trkpt lat="48.01614" lon="-3.7541">
        <ele>168</ele>
        <time>2020-06-07T20:28:58Z</time>
      </trkpt>
      <trkpt lat="48.01606" lon="-3.75405">
        <ele>167.7</ele>
        <time>2020-06-07T20:28:59Z</time>
      </trkpt>
      <trkpt lat="48.01597" lon="-3.75403">
        <ele>167.4</ele>
        <time>2020-06-07T20:29:00Z</time>
      </trkpt>
      <trkpt lat="48.01589" lon="-3.754">
        <ele>167.1</ele>
        <time>2020-06-07T20:29:01Z</time>
      </trkpt>
      <trkpt lat="48.01581" lon="-3.75397">
        <ele>166.8</ele>
        <time>2020-06-07T20:29:02Z</time>
      </trkpt>
      <trkpt lat="48.01573" lon="-3.75393">
        <ele>166.3</ele>
        <time>2020-06-07T20:29:03Z</time>
      </trkpt>
      <trkpt lat="48.01564" lon="-3.75387">
        <ele>166</ele>
        <time>2020-06-07T20:29:04Z</time>
      </trkpt>
      <trkpt lat="48.01556" lon="-3.75382">
        <ele>165.8</ele>
        <time>2020-06-07T20:29:05Z</time>
      </trkpt>
      <trkpt lat="48.01547" lon="-3.75377">
        <ele>165.6</ele>
        <time>2020-06-07T20:29:06Z</time>
      </trkpt>
      <trkpt lat="48.01539" lon="-3.75373">
        <ele>165.3</ele>
        <time>2020-06-07T20:29:07Z</time>
      </trkpt>
      <trkpt lat="48.0153" lon="-3.7537">
        <ele>164.8</ele>
        <time>2020-06-07T20:29:08Z</time>
      </trkpt>
      <trkpt lat="48.01522" lon="-3.75366">
        <ele>164.3</ele>
        <time>2020-06-07T20:29:09Z</time>
      </trkpt>
      <trkpt lat="48.01513" lon="-3.75362">
        <ele>163.9</ele>
        <time>2020-06-07T20:29:10Z</time>
      </trkpt>
      <trkpt lat="48.01504" lon="-3.75359">
        <ele>163.5</ele>
        <time>2020-06-07T20:29:11Z</time>
      </trkpt>
      <trkpt lat="48.01495" lon="-3.75354">
        <ele>163.1</ele>
        <time>2020-06-07T20:29:12Z</time>
      </trkpt>
      <trkpt lat="48.01484" lon="-3.75349">
        <ele>162.5</ele>
        <time>2020-06-07T20:29:13Z</time>
      </trkpt>
      <trkpt lat="48.01474" lon="-3.75346">
        <ele>162</ele>
        <time>2020-06-07T20:29:14Z</time>
      </trkpt>
      <trkpt lat="48.01463" lon="-3.75342">
        <ele>161.6</ele>
        <time>2020-06-07T20:29:15Z</time>
      </trkpt>
      <trkpt lat="48.01453" lon="-3.75336">
        <ele>161.1</ele>
        <time>2020-06-07T20:29:16Z</time>
      </trkpt>
      <trkpt lat="48.01443" lon="-3.75331">
        <ele>160.7</ele>
        <time>2020-06-07T20:29:17Z</time>
      </trkpt>
      <trkpt lat="48.01433" lon="-3.75327">
        <ele>160.3</ele>
        <time>2020-06-07T20:29:18Z</time>
      </trkpt>
      <trkpt lat="48.01423" lon="-3.75322">
        <ele>159.9</ele>
        <time>2020-06-07T20:29:19Z</time>
      </trkpt>
      <trkpt lat="48.01413" lon="-3.75317">
        <ele>159.7</ele>
        <time>2020-06-07T20:29:20Z</time>
      </trkpt>
      <trkpt lat="48.01403" lon="-3.75314">
        <ele>159.4</ele>
        <time>2020-06-07T20:29:21Z</time>
      </trkpt>
      <trkpt lat="48.01394" lon="-3.7531">
        <ele>159.1</ele>
        <time>2020-06-07T20:29:22Z</time>
      </trkpt>
      <trkpt lat="48.01385" lon="-3.75306">
        <ele>158.8</ele>
        <time>2020-06-07T20:29:23Z</time>
      </trkpt>
      <trkpt lat="48.01376" lon="-3.753">
        <ele>158.5</ele>
        <time>2020-06-07T20:29:24Z</time>
      </trkpt>
      <trkpt lat="48.01366" lon="-3.75294">
        <ele>158.4</ele>
        <time>2020-06-07T20:29:25Z</time>
      </trkpt>
      <trkpt lat="48.01357" lon="-3.75289">
        <ele>158.4</ele>
        <time>2020-06-07T20:29:26Z</time>
      </trkpt>
      <trkpt lat="48.01348" lon="-3.75284">
        <ele>158.4</ele>
        <time>2020-06-07T20:29:27Z</time>
      </trkpt>
      <trkpt lat="48.0134" lon="-3.75281">
        <ele>158.4</ele>
        <time>2020-06-07T20:29:28Z</time>
      </trkpt>
      <trkpt lat="48.01331" lon="-3.75278">
        <ele>158.3</ele>
        <time>2020-06-07T20:29:29Z</time>
      </trkpt>
      <trkpt lat="48.01323" lon="-3.75274">
        <ele>158.2</ele>
        <time>2020-06-07T20:29:30Z</time>
      </trkpt>
      <trkpt lat="48.01315" lon="-3.7527">
        <ele>158</ele>
        <time>2020-06-07T20:29:31Z</time>
      </trkpt>
      <trkpt lat="48.01306" lon="-3.75264">
        <ele>157.9</ele>
        <time>2020-06-07T20:29:32Z</time>
      </trkpt>
      <trkpt lat="48.01298" lon="-3.75259">
        <ele>157.7</ele>
        <time>2020-06-07T20:29:33Z</time>
      </trkpt>
      <trkpt lat="48.01291" lon="-3.75255">
        <ele>157.4</ele>
        <time>2020-06-07T20:29:34Z</time>
      </trkpt>
      <trkpt lat="48.01283" lon="-3.75251">
        <ele>157.1</ele>
        <time>2020-06-07T20:29:35Z</time>
      </trkpt>
      <trkpt lat="48.01275" lon="-3.75247">
        <ele>156.7</ele>
        <time>2020-06-07T20:29:36Z</time>
      </trkpt>
      <trkpt lat="48.01267" lon="-3.75244">
        <ele>156.4</ele>
        <time>2020-06-07T20:29:37Z</time>
      </trkpt>
      <trkpt lat="48.01259" lon="-3.7524">
        <ele>156.1</ele>
        <time>2020-06-07T20:29:38Z</time>
      </trkpt>
      <trkpt lat="48.01253" lon="-3.75235">
        <ele>155.8</ele>
        <time>2020-06-07T20:29:39Z</time>
      </trkpt>
      <trkpt lat="48.01246" lon="-3.75229">
        <ele>155.6</ele>
        <time>2020-06-07T20:29:40Z</time>
      </trkpt>
      <trkpt lat="48.0124" lon="-3.75225">
        <ele>155.3</ele>
        <time>2020-06-07T20:29:41Z</time>
      </trkpt>
      <trkpt lat="48.01235" lon="-3.75223">
        <ele>155.1</ele>
        <time>2020-06-07T20:29:42Z</time>
      </trkpt>
      <trkpt lat="48.01231" lon="-3.75223">
        <ele>154.9</ele>
        <time>2020-06-07T20:29:43Z</time>
      </trkpt>
      <trkpt lat="48.01228" lon="-3.75222">
        <ele>154.8</ele>
        <time>2020-06-07T20:29:44Z</time>
      </trkpt>
      <trkpt lat="48.01225" lon="-3.75224">
        <ele>154.7</ele>
        <time>2020-06-07T20:29:45Z</time>
      </trkpt>
      <trkpt lat="48.01224" lon="-3.75224">
        <ele>154.7</ele>
        <time>2020-06-07T20:29:46Z</time>
      </trkpt>
      <trkpt lat="48.01224" lon="-3.75223">
        <ele>154.6</ele>
        <time>2020-06-07T20:29:47Z</time>
      </trkpt>
      <trkpt lat="48.01223" lon="-3.75223">
        <ele>154.6</ele>
        <time>2020-06-07T20:29:48Z</time>
      </trkpt>
      <trkpt lat="48.01223" lon="-3.75224">
        <ele>154.6</ele>
        <time>2020-06-07T20:29:49Z</time>
      </trkpt>
      <trkpt lat="48.01223" lon="-3.75225">
        <ele>154.6</ele>
        <time>2020-06-07T20:29:50Z</time>
      </trkpt>
      <trkpt lat="48.01222" lon="-3.75225">
        <ele>154.6</ele>
        <time>2020-06-07T20:29:51Z</time>
      </trkpt>
      <trkpt lat="48.01222" lon="-3.75225">
        <ele>154.5</ele>
        <time>2020-06-07T20:29:52Z</time>
      </trkpt>
      <trkpt lat="48.01221" lon="-3.75225">
        <ele>154.5</ele>
        <time>2020-06-07T20:29:53Z</time>
      </trkpt>
      <trkpt lat="48.0122" lon="-3.75226">
        <ele>154.5</ele>
        <time>2020-06-07T20:29:54Z</time>
      </trkpt>
      <trkpt lat="48.01219" lon="-3.75225">
        <ele>154.4</ele>
        <time>2020-06-07T20:29:55Z</time>
      </trkpt>
      <trkpt lat="48.01217" lon="-3.75225">
        <ele>154.4</ele>
        <time>2020-06-07T20:29:56Z</time>
      </trkpt>
      <trkpt lat="48.01216" lon="-3.75226">
        <ele>154.3</ele>
        <time>2020-06-07T20:29:57Z</time>
      </trkpt>
      <trkpt lat="48.01215" lon="-3.75227">
        <ele>154</ele>
        <time>2020-06-07T20:29:58Z</time>
      </trkpt>
      <trkpt lat="48.01213" lon="-3.75232">
        <ele>154</ele>
        <time>2020-06-07T20:29:59Z</time>
      </trkpt>
      <trkpt lat="48.01212" lon="-3.75235">
        <ele>154</ele>
        <time>2020-06-07T20:30:00Z</time>
      </trkpt>
      <trkpt lat="48.01211" lon="-3.75241">
        <ele>153.9</ele>
        <time>2020-06-07T20:30:01Z</time>
      </trkpt>
      <trkpt lat="48.0121" lon="-3.75247">
        <ele>153.9</ele>
        <time>2020-06-07T20:30:02Z</time>
      </trkpt>
      <trkpt lat="48.0121" lon="-3.75255">
        <ele>153.9</ele>
        <time>2020-06-07T20:30:03Z</time>
      </trkpt>
      <trkpt lat="48.01211" lon="-3.75263">
        <ele>153.8</ele>
        <time>2020-06-07T20:30:04Z</time>
      </trkpt>
      <trkpt lat="48.01211" lon="-3.75271">
        <ele>153.7</ele>
        <time>2020-06-07T20:30:05Z</time>
      </trkpt>
      <trkpt lat="48.01211" lon="-3.7528">
        <ele>153.6</ele>
        <time>2020-06-07T20:30:06Z</time>
      </trkpt>
      <trkpt lat="48.0121" lon="-3.75289">
        <ele>153.4</ele>
        <time>2020-06-07T20:30:07Z</time>
      </trkpt>
      <trkpt lat="48.01208" lon="-3.75299">
        <ele>153.2</ele>
        <time>2020-06-07T20:30:08Z</time>
      </trkpt>
      <trkpt lat="48.01208" lon="-3.7531">
        <ele>153</ele>
        <time>2020-06-07T20:30:09Z</time>
      </trkpt>
      <trkpt lat="48.01207" lon="-3.75322">
        <ele>152.7</ele>
        <time>2020-06-07T20:30:10Z</time>
      </trkpt>
      <trkpt lat="48.01206" lon="-3.75333">
        <ele>152.5</ele>
        <time>2020-06-07T20:30:11Z</time>
      </trkpt>
      <trkpt lat="48.01205" lon="-3.75345">
        <ele>152.3</ele>
        <time>2020-06-07T20:30:12Z</time>
      </trkpt>
      <trkpt lat="48.01204" lon="-3.75357">
        <ele>152.1</ele>
        <time>2020-06-07T20:30:13Z</time>
      </trkpt>
      <trkpt lat="48.01203" lon="-3.75368">
        <ele>151.9</ele>
        <time>2020-06-07T20:30:14Z</time>
      </trkpt>
      <trkpt lat="48.01201" lon="-3.75381">
        <ele>151.6</ele>
        <time>2020-06-07T20:30:15Z</time>
      </trkpt>
      <trkpt lat="48.01201" lon="-3.75394">
        <ele>151.4</ele>
        <time>2020-06-07T20:30:16Z</time>
      </trkpt>
      <trkpt lat="48.01199" lon="-3.75406">
        <ele>151.2</ele>
        <time>2020-06-07T20:30:17Z</time>
      </trkpt>
      <trkpt lat="48.01197" lon="-3.75417">
        <ele>151.1</ele>
        <time>2020-06-07T20:30:18Z</time>
      </trkpt>
      <trkpt lat="48.01195" lon="-3.75429">
        <ele>150.9</ele>
        <time>2020-06-07T20:30:19Z</time>
      </trkpt>
      <trkpt lat="48.01194" lon="-3.75441">
        <ele>150.5</ele>
        <time>2020-06-07T20:30:20Z</time>
      </trkpt>
      <trkpt lat="48.01194" lon="-3.75454">
        <ele>150.2</ele>
        <time>2020-06-07T20:30:21Z</time>
      </trkpt>
      <trkpt lat="48.01194" lon="-3.75467">
        <ele>149.9</ele>
        <time>2020-06-07T20:30:22Z</time>
      </trkpt>
      <trkpt lat="48.01195" lon="-3.75481">
        <ele>149.5</ele>
        <time>2020-06-07T20:30:23Z</time>
      </trkpt>
      <trkpt lat="48.01194" lon="-3.75494">
        <ele>149.1</ele>
        <time>2020-06-07T20:30:24Z</time>
      </trkpt>
      <trkpt lat="48.01194" lon="-3.75506">
        <ele>148.9</ele>
        <time>2020-06-07T20:30:25Z</time>
      </trkpt>
      <trkpt lat="48.01194" lon="-3.75518">
        <ele>148.6</ele>
        <time>2020-06-07T20:30:26Z</time>
      </trkpt>
      <trkpt lat="48.01195" lon="-3.75531">
        <ele>148.3</ele>
        <time>2020-06-07T20:30:27Z</time>
      </trkpt>
      <trkpt lat="48.01195" lon="-3.75545">
        <ele>148</ele>
        <time>2020-06-07T20:30:28Z</time>
      </trkpt>
      <trkpt lat="48.01196" lon="-3.75556">
        <ele>147.7</ele>
        <time>2020-06-07T20:30:29Z</time>
      </trkpt>
      <trkpt lat="48.01198" lon="-3.7557">
        <ele>147.5</ele>
        <time>2020-06-07T20:30:30Z</time>
      </trkpt>
      <trkpt lat="48.01199" lon="-3.75583">
        <ele>147.1</ele>
        <time>2020-06-07T20:30:31Z</time>
      </trkpt>
      <trkpt lat="48.01198" lon="-3.75596">
        <ele>147</ele>
        <time>2020-06-07T20:30:32Z</time>
      </trkpt>
      <trkpt lat="48.01198" lon="-3.75609">
        <ele>146.9</ele>
        <time>2020-06-07T20:30:33Z</time>
      </trkpt>
      <trkpt lat="48.012" lon="-3.75621">
        <ele>146.7</ele>
        <time>2020-06-07T20:30:34Z</time>
      </trkpt>
      <trkpt lat="48.01201" lon="-3.75633">
        <ele>146.7</ele>
        <time>2020-06-07T20:30:35Z</time>
      </trkpt>
      <trkpt lat="48.012" lon="-3.75646">
        <ele>146.6</ele>
        <time>2020-06-07T20:30:36Z</time>
      </trkpt>
      <trkpt lat="48.01199" lon="-3.75659">
        <ele>146.6</ele>
        <time>2020-06-07T20:30:37Z</time>
      </trkpt>
      <trkpt lat="48.012" lon="-3.75669">
        <ele>146.7</ele>
        <time>2020-06-07T20:30:38Z</time>
      </trkpt>
      <trkpt lat="48.012" lon="-3.7568">
        <ele>146.8</ele>
        <time>2020-06-07T20:30:39Z</time>
      </trkpt>
      <trkpt lat="48.012" lon="-3.7569">
        <ele>146.9</ele>
        <time>2020-06-07T20:30:40Z</time>
      </trkpt>
      <trkpt lat="48.012" lon="-3.757">
        <ele>146.9</ele>
        <time>2020-06-07T20:30:41Z</time>
      </trkpt>
      <trkpt lat="48.012" lon="-3.7571">
        <ele>147</ele>
        <time>2020-06-07T20:30:42Z</time>
      </trkpt>
      <trkpt lat="48.01197" lon="-3.75718">
        <ele>147.8</ele>
        <time>2020-06-07T20:30:43Z</time>
      </trkpt>
      <trkpt lat="48.01192" lon="-3.75722">
        <ele>148.2</ele>
        <time>2020-06-07T20:30:44Z</time>
      </trkpt>
      <trkpt lat="48.01186" lon="-3.75723">
        <ele>148.7</ele>
        <time>2020-06-07T20:30:45Z</time>
      </trkpt>
      <trkpt lat="48.0118" lon="-3.75724">
        <ele>149.1</ele>
        <time>2020-06-07T20:30:46Z</time>
      </trkpt>
      <trkpt lat="48.01175" lon="-3.75725">
        <ele>149.5</ele>
        <time>2020-06-07T20:30:47Z</time>
      </trkpt>
      <trkpt lat="48.01171" lon="-3.75727">
        <ele>149.8</ele>
        <time>2020-06-07T20:30:48Z</time>
      </trkpt>
      <trkpt lat="48.01167" lon="-3.7573">
        <ele>150.2</ele>
        <time>2020-06-07T20:30:49Z</time>
      </trkpt>
      <trkpt lat="48.01162" lon="-3.75733">
        <ele>150.6</ele>
        <time>2020-06-07T20:30:50Z</time>
      </trkpt>
      <trkpt lat="48.01158" lon="-3.75736">
        <ele>150.9</ele>
        <time>2020-06-07T20:30:51Z</time>
      </trkpt>
      <trkpt lat="48.01155" lon="-3.7574">
        <ele>151.2</ele>
        <time>2020-06-07T20:30:52Z</time>
      </trkpt>
      <trkpt lat="48.01151" lon="-3.75743">
        <ele>151.5</ele>
        <time>2020-06-07T20:30:53Z</time>
      </trkpt>
      <trkpt lat="48.01148" lon="-3.75747">
        <ele>151.9</ele>
        <time>2020-06-07T20:30:54Z</time>
      </trkpt>
      <trkpt lat="48.01146" lon="-3.75752">
        <ele>152.2</ele>
        <time>2020-06-07T20:30:55Z</time>
      </trkpt>
      <trkpt lat="48.01143" lon="-3.75757">
        <ele>152.5</ele>
        <time>2020-06-07T20:30:56Z</time>
      </trkpt>
      <trkpt lat="48.0114" lon="-3.75762">
        <ele>152.8</ele>
        <time>2020-06-07T20:30:57Z</time>
      </trkpt>
      <trkpt lat="48.01138" lon="-3.75766">
        <ele>153.1</ele>
        <time>2020-06-07T20:30:58Z</time>
      </trkpt>
      <trkpt lat="48.01136" lon="-3.75772">
        <ele>153.4</ele>
        <time>2020-06-07T20:30:59Z</time>
      </trkpt>
      <trkpt lat="48.01134" lon="-3.75778">
        <ele>153.8</ele>
        <time>2020-06-07T20:31:00Z</time>
      </trkpt>
      <trkpt lat="48.01132" lon="-3.75784">
        <ele>154.1</ele>
        <time>2020-06-07T20:31:01Z</time>
      </trkpt>
      <trkpt lat="48.0113" lon="-3.75788">
        <ele>154.3</ele>
        <time>2020-06-07T20:31:02Z</time>
      </trkpt>
      <trkpt lat="48.01129" lon="-3.75792">
        <ele>154.6</ele>
        <time>2020-06-07T20:31:03Z</time>
      </trkpt>
      <trkpt lat="48.01127" lon="-3.75798">
        <ele>154.9</ele>
        <time>2020-06-07T20:31:04Z</time>
      </trkpt>
      <trkpt lat="48.01125" lon="-3.75803">
        <ele>155.2</ele>
        <time>2020-06-07T20:31:05Z</time>
      </trkpt>
      <trkpt lat="48.01124" lon="-3.75807">
        <ele>155.4</ele>
        <time>2020-06-07T20:31:06Z</time>
      </trkpt>
      <trkpt lat="48.01122" lon="-3.75811">
        <ele>155.6</ele>
        <time>2020-06-07T20:31:07Z</time>
      </trkpt>
      <trkpt lat="48.01122" lon="-3.75813">
        <ele>155.7</ele>
        <time>2020-06-07T20:31:08Z</time>
      </trkpt>
      <trkpt lat="48.01121" lon="-3.75817">
        <ele>155.9</ele>
        <time>2020-06-07T20:31:09Z</time>
      </trkpt>
      <trkpt lat="48.0112" lon="-3.75821">
        <ele>156.2</ele>
        <time>2020-06-07T20:31:10Z</time>
      </trkpt>
      <trkpt lat="48.01119" lon="-3.75826">
        <ele>156.4</ele>
        <time>2020-06-07T20:31:11Z</time>
      </trkpt>
      <trkpt lat="48.01117" lon="-3.75832">
        <ele>156.7</ele>
        <time>2020-06-07T20:31:12Z</time>
      </trkpt>
      <trkpt lat="48.01115" lon="-3.75837">
        <ele>157</ele>
        <time>2020-06-07T20:31:13Z</time>
      </trkpt>
      <trkpt lat="48.01112" lon="-3.75841">
        <ele>157.3</ele>
        <time>2020-06-07T20:31:14Z</time>
      </trkpt>
      <trkpt lat="48.0111" lon="-3.75847">
        <ele>157.6</ele>
        <time>2020-06-07T20:31:15Z</time>
      </trkpt>
      <trkpt lat="48.01108" lon="-3.75852">
        <ele>157.9</ele>
        <time>2020-06-07T20:31:16Z</time>
      </trkpt>
      <trkpt lat="48.01107" lon="-3.75858">
        <ele>158.2</ele>
        <time>2020-06-07T20:31:17Z</time>
      </trkpt>
      <trkpt lat="48.01105" lon="-3.75863">
        <ele>158.5</ele>
        <time>2020-06-07T20:31:18Z</time>
      </trkpt>
      <trkpt lat="48.01104" lon="-3.75868">
        <ele>158.8</ele>
        <time>2020-06-07T20:31:19Z</time>
      </trkpt>
      <trkpt lat="48.01102" lon="-3.75873">
        <ele>159.1</ele>
        <time>2020-06-07T20:31:20Z</time>
      </trkpt>
      <trkpt lat="48.011" lon="-3.75879">
        <ele>159.4</ele>
        <time>2020-06-07T20:31:21Z</time>
      </trkpt>
      <trkpt lat="48.01099" lon="-3.75884">
        <ele>159.7</ele>
        <time>2020-06-07T20:31:22Z</time>
      </trkpt>
      <trkpt lat="48.01097" lon="-3.7589">
        <ele>160</ele>
        <time>2020-06-07T20:31:23Z</time>
      </trkpt>
      <trkpt lat="48.01096" lon="-3.75896">
        <ele>160.3</ele>
        <time>2020-06-07T20:31:24Z</time>
      </trkpt>
      <trkpt lat="48.01094" lon="-3.75903">
        <ele>160.7</ele>
        <time>2020-06-07T20:31:25Z</time>
      </trkpt>
      <trkpt lat="48.01092" lon="-3.75909">
        <ele>161</ele>
        <time>2020-06-07T20:31:26Z</time>
      </trkpt>
      <trkpt lat="48.01091" lon="-3.75915">
        <ele>161.4</ele>
        <time>2020-06-07T20:31:27Z</time>
      </trkpt>
      <trkpt lat="48.01089" lon="-3.75921">
        <ele>161.7</ele>
        <time>2020-06-07T20:31:28Z</time>
      </trkpt>
      <trkpt lat="48.01089" lon="-3.75926">
        <ele>161.9</ele>
        <time>2020-06-07T20:31:29Z</time>
      </trkpt>
      <trkpt lat="48.01087" lon="-3.7593">
        <ele>162.2</ele>
        <time>2020-06-07T20:31:30Z</time>
      </trkpt>
      <trkpt lat="48.01086" lon="-3.75936">
        <ele>162.5</ele>
        <time>2020-06-07T20:31:31Z</time>
      </trkpt>
      <trkpt lat="48.01084" lon="-3.75942">
        <ele>162.8</ele>
        <time>2020-06-07T20:31:32Z</time>
      </trkpt>
      <trkpt lat="48.01083" lon="-3.75947">
        <ele>163.1</ele>
        <time>2020-06-07T20:31:33Z</time>
      </trkpt>
      <trkpt lat="48.0108" lon="-3.75951">
        <ele>163.3</ele>
        <time>2020-06-07T20:31:34Z</time>
      </trkpt>
      <trkpt lat="48.01077" lon="-3.75953">
        <ele>163.6</ele>
        <time>2020-06-07T20:31:35Z</time>
      </trkpt>
      <trkpt lat="48.01074" lon="-3.75955">
        <ele>163.9</ele>
        <time>2020-06-07T20:31:36Z</time>
      </trkpt>
      <trkpt lat="48.01071" lon="-3.75954">
        <ele>164</ele>
        <time>2020-06-07T20:31:37Z</time>
      </trkpt>
      <trkpt lat="48.01068" lon="-3.75952">
        <ele>163.9</ele>
        <time>2020-06-07T20:31:38Z</time>
      </trkpt>
      <trkpt lat="48.01064" lon="-3.7595">
        <ele>163.8</ele>
        <time>2020-06-07T20:31:39Z</time>
      </trkpt>
      <trkpt lat="48.01063" lon="-3.7595">
        <ele>163.7</ele>
        <time>2020-06-07T20:31:40Z</time>
      </trkpt>
      <trkpt lat="48.0106" lon="-3.75948">
        <ele>163.6</ele>
        <time>2020-06-07T20:31:41Z</time>
      </trkpt>
      <trkpt lat="48.01058" lon="-3.75945">
        <ele>163.5</ele>
        <time>2020-06-07T20:31:42Z</time>
      </trkpt>
      <trkpt lat="48.01057" lon="-3.75942">
        <ele>163.3</ele>
        <time>2020-06-07T20:31:43Z</time>
      </trkpt>
      <trkpt lat="48.01055" lon="-3.75938">
        <ele>163.2</ele>
        <time>2020-06-07T20:31:44Z</time>
      </trkpt>
      <trkpt lat="48.01054" lon="-3.75932">
        <ele>163</ele>
        <time>2020-06-07T20:31:45Z</time>
      </trkpt>
      <trkpt lat="48.01052" lon="-3.75927">
        <ele>162.9</ele>
        <time>2020-06-07T20:31:46Z</time>
      </trkpt>
      <trkpt lat="48.01049" lon="-3.75922">
        <ele>162.7</ele>
        <time>2020-06-07T20:31:47Z</time>
      </trkpt>
      <trkpt lat="48.01045" lon="-3.75918">
        <ele>162.5</ele>
        <time>2020-06-07T20:31:48Z</time>
      </trkpt>
      <trkpt lat="48.01041" lon="-3.75914">
        <ele>162.3</ele>
        <time>2020-06-07T20:31:49Z</time>
      </trkpt>
      <trkpt lat="48.01036" lon="-3.75911">
        <ele>162.1</ele>
        <time>2020-06-07T20:31:50Z</time>
      </trkpt>
      <trkpt lat="48.01032" lon="-3.75911">
        <ele>161.9</ele>
        <time>2020-06-07T20:31:51Z</time>
      </trkpt>
      <trkpt lat="48.01027" lon="-3.75912">
        <ele>161.7</ele>
        <time>2020-06-07T20:31:52Z</time>
      </trkpt>
      <trkpt lat="48.01022" lon="-3.75914">
        <ele>161.4</ele>
        <time>2020-06-07T20:31:53Z</time>
      </trkpt>
      <trkpt lat="48.01016" lon="-3.75917">
        <ele>161.2</ele>
        <time>2020-06-07T20:31:54Z</time>
      </trkpt>
      <trkpt lat="48.01011" lon="-3.75922">
        <ele>160.9</ele>
        <time>2020-06-07T20:31:55Z</time>
      </trkpt>
      <trkpt lat="48.01007" lon="-3.75927">
        <ele>160.7</ele>
        <time>2020-06-07T20:31:56Z</time>
      </trkpt>
      <trkpt lat="48.01003" lon="-3.75932">
        <ele>160.5</ele>
        <time>2020-06-07T20:31:57Z</time>
      </trkpt>
      <trkpt lat="48.00998" lon="-3.75934">
        <ele>160.3</ele>
        <time>2020-06-07T20:31:58Z</time>
      </trkpt>
      <trkpt lat="48.00992" lon="-3.75937">
        <ele>160</ele>
        <time>2020-06-07T20:31:59Z</time>
      </trkpt>
      <trkpt lat="48.00986" lon="-3.75938">
        <ele>159.7</ele>
        <time>2020-06-07T20:32:00Z</time>
      </trkpt>
      <trkpt lat="48.00979" lon="-3.75938">
        <ele>159.5</ele>
        <time>2020-06-07T20:32:01Z</time>
      </trkpt>
      <trkpt lat="48.00973" lon="-3.75936">
        <ele>159.2</ele>
        <time>2020-06-07T20:32:02Z</time>
      </trkpt>
      <trkpt lat="48.00967" lon="-3.75933">
        <ele>159</ele>
        <time>2020-06-07T20:32:03Z</time>
      </trkpt>
      <trkpt lat="48.00963" lon="-3.75931">
        <ele>158.7</ele>
        <time>2020-06-07T20:32:04Z</time>
      </trkpt>
      <trkpt lat="48.00958" lon="-3.7593">
        <ele>158.6</ele>
        <time>2020-06-07T20:32:05Z</time>
      </trkpt>
      <trkpt lat="48.00954" lon="-3.75928">
        <ele>158.4</ele>
        <time>2020-06-07T20:32:06Z</time>
      </trkpt>
      <trkpt lat="48.00949" lon="-3.75927">
        <ele>158.2</ele>
        <time>2020-06-07T20:32:07Z</time>
      </trkpt>
      <trkpt lat="48.00944" lon="-3.75924">
        <ele>157.9</ele>
        <time>2020-06-07T20:32:08Z</time>
      </trkpt>
      <trkpt lat="48.00939" lon="-3.75921">
        <ele>157.7</ele>
        <time>2020-06-07T20:32:09Z</time>
      </trkpt>
      <trkpt lat="48.00934" lon="-3.75918">
        <ele>157.5</ele>
        <time>2020-06-07T20:32:10Z</time>
      </trkpt>
      <trkpt lat="48.00929" lon="-3.75915">
        <ele>157.2</ele>
        <time>2020-06-07T20:32:11Z</time>
      </trkpt>
      <trkpt lat="48.00924" lon="-3.75913">
        <ele>157</ele>
        <time>2020-06-07T20:32:12Z</time>
      </trkpt>
      <trkpt lat="48.00919" lon="-3.75909">
        <ele>156.7</ele>
        <time>2020-06-07T20:32:13Z</time>
      </trkpt>
      <trkpt lat="48.00913" lon="-3.75907">
        <ele>156.5</ele>
        <time>2020-06-07T20:32:14Z</time>
      </trkpt>
      <trkpt lat="48.00908" lon="-3.75905">
        <ele>156.2</ele>
        <time>2020-06-07T20:32:15Z</time>
      </trkpt>
      <trkpt lat="48.00902" lon="-3.75901">
        <ele>155.9</ele>
        <time>2020-06-07T20:32:16Z</time>
      </trkpt>
      <trkpt lat="48.00897" lon="-3.75897">
        <ele>155.6</ele>
        <time>2020-06-07T20:32:17Z</time>
      </trkpt>
      <trkpt lat="48.00891" lon="-3.75893">
        <ele>155.3</ele>
        <time>2020-06-07T20:32:18Z</time>
      </trkpt>
      <trkpt lat="48.00885" lon="-3.75888">
        <ele>155</ele>
        <time>2020-06-07T20:32:19Z</time>
      </trkpt>
      <trkpt lat="48.00879" lon="-3.75883">
        <ele>154.6</ele>
        <time>2020-06-07T20:32:20Z</time>
      </trkpt>
      <trkpt lat="48.00872" lon="-3.75878">
        <ele>154.2</ele>
        <time>2020-06-07T20:32:21Z</time>
      </trkpt>
      <trkpt lat="48.00866" lon="-3.75874">
        <ele>153.9</ele>
        <time>2020-06-07T20:32:22Z</time>
      </trkpt>
      <trkpt lat="48.0086" lon="-3.75868">
        <ele>153.6</ele>
        <time>2020-06-07T20:32:23Z</time>
      </trkpt>
      <trkpt lat="48.00854" lon="-3.75862">
        <ele>153.2</ele>
        <time>2020-06-07T20:32:24Z</time>
      </trkpt>
      <trkpt lat="48.00847" lon="-3.75855">
        <ele>152.8</ele>
        <time>2020-06-07T20:32:25Z</time>
      </trkpt>
      <trkpt lat="48.00841" lon="-3.7585">
        <ele>152.5</ele>
        <time>2020-06-07T20:32:26Z</time>
      </trkpt>
      <trkpt lat="48.00834" lon="-3.75844">
        <ele>152.1</ele>
        <time>2020-06-07T20:32:27Z</time>
      </trkpt>
      <trkpt lat="48.00827" lon="-3.75838">
        <ele>151.7</ele>
        <time>2020-06-07T20:32:28Z</time>
      </trkpt>
      <trkpt lat="48.0082" lon="-3.75832">
        <ele>151.3</ele>
        <time>2020-06-07T20:32:29Z</time>
      </trkpt>
      <trkpt lat="48.00812" lon="-3.75826">
        <ele>150.9</ele>
        <time>2020-06-07T20:32:30Z</time>
      </trkpt>
      <trkpt lat="48.00804" lon="-3.75821">
        <ele>150.5</ele>
        <time>2020-06-07T20:32:31Z</time>
      </trkpt>
      <trkpt lat="48.00796" lon="-3.75816">
        <ele>150</ele>
        <time>2020-06-07T20:32:32Z</time>
      </trkpt>
      <trkpt lat="48.00789" lon="-3.75811">
        <ele>149.6</ele>
        <time>2020-06-07T20:32:33Z</time>
      </trkpt>
      <trkpt lat="48.00782" lon="-3.75805">
        <ele>149.2</ele>
        <time>2020-06-07T20:32:34Z</time>
      </trkpt>
      <trkpt lat="48.00775" lon="-3.75799">
        <ele>148.8</ele>
        <time>2020-06-07T20:32:35Z</time>
      </trkpt>
      <trkpt lat="48.00766" lon="-3.75792">
        <ele>148.4</ele>
        <time>2020-06-07T20:32:36Z</time>
      </trkpt>
      <trkpt lat="48.00758" lon="-3.75786">
        <ele>147.9</ele>
        <time>2020-06-07T20:32:37Z</time>
      </trkpt>
      <trkpt lat="48.0075" lon="-3.75781">
        <ele>147.5</ele>
        <time>2020-06-07T20:32:38Z</time>
      </trkpt>
      <trkpt lat="48.00742" lon="-3.75775">
        <ele>147.1</ele>
        <time>2020-06-07T20:32:39Z</time>
      </trkpt>
      <trkpt lat="48.00734" lon="-3.75769">
        <ele>146.6</ele>
        <time>2020-06-07T20:32:40Z</time>
      </trkpt>
      <trkpt lat="48.00726" lon="-3.75763">
        <ele>146.2</ele>
        <time>2020-06-07T20:32:41Z</time>
      </trkpt>
      <trkpt lat="48.00718" lon="-3.75757">
        <ele>145.7</ele>
        <time>2020-06-07T20:32:42Z</time>
      </trkpt>
      <trkpt lat="48.0071" lon="-3.75752">
        <ele>145.3</ele>
        <time>2020-06-07T20:32:43Z</time>
      </trkpt>
      <trkpt lat="48.00703" lon="-3.75748">
        <ele>145</ele>
        <time>2020-06-07T20:32:44Z</time>
      </trkpt>
      <trkpt lat="48.00697" lon="-3.75744">
        <ele>144.6</ele>
        <time>2020-06-07T20:32:45Z</time>
      </trkpt>
      <trkpt lat="48.0069" lon="-3.75739">
        <ele>144.4</ele>
        <time>2020-06-07T20:32:46Z</time>
      </trkpt>
      <trkpt lat="48.00685" lon="-3.75734">
        <ele>144.3</ele>
        <time>2020-06-07T20:32:47Z</time>
      </trkpt>
      <trkpt lat="48.0068" lon="-3.75728">
        <ele>144.2</ele>
        <time>2020-06-07T20:32:48Z</time>
      </trkpt>
      <trkpt lat="48.00674" lon="-3.75719">
        <ele>144.1</ele>
        <time>2020-06-07T20:32:49Z</time>
      </trkpt>
      <trkpt lat="48.0067" lon="-3.75709">
        <ele>143.9</ele>
        <time>2020-06-07T20:32:50Z</time>
      </trkpt>
      <trkpt lat="48.00668" lon="-3.75699">
        <ele>143.8</ele>
        <time>2020-06-07T20:32:51Z</time>
      </trkpt>
      <trkpt lat="48.00667" lon="-3.75691">
        <ele>143.8</ele>
        <time>2020-06-07T20:32:52Z</time>
      </trkpt>
      <trkpt lat="48.00669" lon="-3.75684">
        <ele>143.7</ele>
        <time>2020-06-07T20:32:53Z</time>
      </trkpt>
      <trkpt lat="48.00672" lon="-3.75678">
        <ele>143.6</ele>
        <time>2020-06-07T20:32:54Z</time>
      </trkpt>
      <trkpt lat="48.00674" lon="-3.75674">
        <ele>143.6</ele>
        <time>2020-06-07T20:32:55Z</time>
      </trkpt>
      <trkpt lat="48.00676" lon="-3.7567">
        <ele>143.5</ele>
        <time>2020-06-07T20:32:56Z</time>
      </trkpt>
      <trkpt lat="48.00678" lon="-3.75667">
        <ele>143.5</ele>
        <time>2020-06-07T20:32:57Z</time>
      </trkpt>
      <trkpt lat="48.00679" lon="-3.75666">
        <ele>143.5</ele>
        <time>2020-06-07T20:32:58Z</time>
      </trkpt>
      <trkpt lat="48.00681" lon="-3.75665">
        <ele>143.5</ele>
        <time>2020-06-07T20:32:59Z</time>
      </trkpt>
      <trkpt lat="48.00682" lon="-3.75663">
        <ele>143.4</ele>
        <time>2020-06-07T20:33:00Z</time>
      </trkpt>
      <trkpt lat="48.00683" lon="-3.75662">
        <ele>143.4</ele>
        <time>2020-06-07T20:33:01Z</time>
      </trkpt>
      <trkpt lat="48.00683" lon="-3.7566">
        <ele>143.4</ele>
        <time>2020-06-07T20:33:02Z</time>
      </trkpt>
      <trkpt lat="48.00684" lon="-3.75659">
        <ele>143.4</ele>
        <time>2020-06-07T20:33:03Z</time>
      </trkpt>
      <trkpt lat="48.00685" lon="-3.75659">
        <ele>143.4</ele>
        <time>2020-06-07T20:33:04Z</time>
      </trkpt>
      <trkpt lat="48.00685" lon="-3.75658">
        <ele>143.4</ele>
        <time>2020-06-07T20:33:05Z</time>
      </trkpt>
      <trkpt lat="48.00686" lon="-3.75658">
        <ele>143.4</ele>
        <time>2020-06-07T20:33:06Z</time>
      </trkpt>
      <trkpt lat="48.00687" lon="-3.75658">
        <ele>143.4</ele>
        <time>2020-06-07T20:33:07Z</time>
      </trkpt>
      <trkpt lat="48.00688" lon="-3.75658">
        <ele>143.4</ele>
        <time>2020-06-07T20:33:08Z</time>
      </trkpt>
      <trkpt lat="48.00688" lon="-3.75658">
        <ele>143.4</ele>
        <time>2020-06-07T20:33:09Z</time>
      </trkpt>
      <trkpt lat="48.00689" lon="-3.75658">
        <ele>143.4</ele>
        <time>2020-06-07T20:33:10Z</time>
      </trkpt>
      <trkpt lat="48.0069" lon="-3.75659">
        <ele>143.5</ele>
        <time>2020-06-07T20:33:11Z</time>
      </trkpt>
      <trkpt lat="48.00691" lon="-3.75659">
        <ele>143.5</ele>
        <time>2020-06-07T20:33:12Z</time>
      </trkpt>
      <trkpt lat="48.00691" lon="-3.7566">
        <ele>143.5</ele>
        <time>2020-06-07T20:33:13Z</time>
      </trkpt>
      <trkpt lat="48.00692" lon="-3.7566">
        <ele>143.5</ele>
        <time>2020-06-07T20:33:14Z</time>
      </trkpt>
      <trkpt lat="48.00692" lon="-3.7566">
        <ele>143.5</ele>
        <time>2020-06-07T20:33:15Z</time>
      </trkpt>
      <trkpt lat="48.00692" lon="-3.75661">
        <ele>143.5</ele>
        <time>2020-06-07T20:33:16Z</time>
      </trkpt>
      <trkpt lat="48.00692" lon="-3.75661">
        <ele>143.5</ele>
        <time>2020-06-07T20:33:17Z</time>
      </trkpt>
      <trkpt lat="48.00692" lon="-3.75661">
        <ele>143.5</ele>
        <time>2020-06-07T20:33:18Z</time>
      </trkpt>
    </trkseg>
  </trk>
  <trk>
    <name><![CDATA[J7]]></name>
    <trkseg>
      <trkpt lat="47.44662" lon="-2.26516">
        <ele>4.2</ele>
        <time>2020-06-06T08:02:14Z</time>
      </trkpt>
      <trkpt lat="47.44657" lon="-2.26525">
        <ele>4.2</ele>
        <time>2020-06-06T08:02:15Z</time>
      </trkpt>
      <trkpt lat="47.44657" lon="-2.2653">
        <ele>4.2</ele>
        <time>2020-06-06T08:02:16Z</time>
      </trkpt>
      <trkpt lat="47.44657" lon="-2.26535">
        <ele>4.2</ele>
        <time>2020-06-06T08:02:17Z</time>
      </trkpt>
      <trkpt lat="47.44658" lon="-2.2654">
        <ele>4.2</ele>
        <time>2020-06-06T08:02:18Z</time>
      </trkpt>
      <trkpt lat="47.44658" lon="-2.26545">
        <ele>4.2</ele>
        <time>2020-06-06T08:02:19Z</time>
      </trkpt>
      <trkpt lat="47.44658" lon="-2.2655">
        <ele>4.2</ele>
        <time>2020-06-06T08:02:20Z</time>
      </trkpt>
      <trkpt lat="47.44658" lon="-2.26556">
        <ele>4.2</ele>
        <time>2020-06-06T08:02:21Z</time>
      </trkpt>
      <trkpt lat="47.44659" lon="-2.26562">
        <ele>4.2</ele>
        <time>2020-06-06T08:02:22Z</time>
      </trkpt>
      <trkpt lat="47.4466" lon="-2.2657">
        <ele>4.2</ele>
        <time>2020-06-06T08:02:23Z</time>
      </trkpt>
      <trkpt lat="47.44661" lon="-2.26579">
        <ele>4.2</ele>
        <time>2020-06-06T08:02:24Z</time>
      </trkpt>
      <trkpt lat="47.44661" lon="-2.26586">
        <ele>4.2</ele>
        <time>2020-06-06T08:02:25Z</time>
      </trkpt>
      <trkpt lat="47.44662" lon="-2.26594">
        <ele>4.2</ele>
        <time>2020-06-06T08:02:26Z</time>
      </trkpt>
      <trkpt lat="47.44663" lon="-2.26604">
        <ele>4.2</ele>
        <time>2020-06-06T08:02:27Z</time>
      </trkpt>
      <trkpt lat="47.44663" lon="-2.26614">
        <ele>4.1</ele>
        <time>2020-06-06T08:02:28Z</time>
      </trkpt>
      <trkpt lat="47.44664" lon="-2.26625">
        <ele>4.1</ele>
        <time>2020-06-06T08:02:29Z</time>
      </trkpt>
      <trkpt lat="47.44664" lon="-2.26637">
        <ele>4.1</ele>
        <time>2020-06-06T08:02:31Z</time>
      </trkpt>
      <trkpt lat="47.44664" lon="-2.26647">
        <ele>4</ele>
        <time>2020-06-06T08:02:32Z</time>
      </trkpt>
      <trkpt lat="47.44665" lon="-2.26656">
        <ele>4</ele>
        <time>2020-06-06T08:02:33Z</time>
      </trkpt>
      <trkpt lat="47.44665" lon="-2.26665">
        <ele>3.9</ele>
        <time>2020-06-06T08:02:34Z</time>
      </trkpt>
      <trkpt lat="47.44665" lon="-2.26675">
        <ele>3.9</ele>
        <time>2020-06-06T08:02:35Z</time>
      </trkpt>
      <trkpt lat="47.44666" lon="-2.26687">
        <ele>3.8</ele>
        <time>2020-06-06T08:02:36Z</time>
      </trkpt>
      <trkpt lat="47.44666" lon="-2.26696">
        <ele>3.8</ele>
        <time>2020-06-06T08:02:37Z</time>
      </trkpt>
      <trkpt lat="47.44666" lon="-2.26706">
        <ele>3.8</ele>
        <time>2020-06-06T08:02:38Z</time>
      </trkpt>
      <trkpt lat="47.44667" lon="-2.26715">
        <ele>3.8</ele>
        <time>2020-06-06T08:02:39Z</time>
      </trkpt>
      <trkpt lat="47.44668" lon="-2.26725">
        <ele>3.8</ele>
        <time>2020-06-06T08:02:40Z</time>
      </trkpt>
      <trkpt lat="47.44669" lon="-2.26735">
        <ele>3.8</ele>
        <time>2020-06-06T08:02:41Z</time>
      </trkpt>
      <trkpt lat="47.44669" lon="-2.26745">
        <ele>3.8</ele>
        <time>2020-06-06T08:02:42Z</time>
      </trkpt>
      <trkpt lat="47.4467" lon="-2.26756">
        <ele>3.8</ele>
        <time>2020-06-06T08:02:43Z</time>
      </trkpt>
      <trkpt lat="47.44672" lon="-2.2677">
        <ele>3.8</ele>
        <time>2020-06-06T08:02:44Z</time>
      </trkpt>
      <trkpt lat="47.44674" lon="-2.2678">
        <ele>3.8</ele>
        <time>2020-06-06T08:02:45Z</time>
      </trkpt>
      <trkpt lat="47.44675" lon="-2.26789">
        <ele>3.8</ele>
        <time>2020-06-06T08:02:46Z</time>
      </trkpt>
      <trkpt lat="47.44677" lon="-2.268">
        <ele>3.8</ele>
        <time>2020-06-06T08:02:47Z</time>
      </trkpt>
      <trkpt lat="47.44678" lon="-2.26821">
        <ele>3.8</ele>
        <time>2020-06-06T08:02:48Z</time>
      </trkpt>
      <trkpt lat="47.44679" lon="-2.26831">
        <ele>3.8</ele>
        <time>2020-06-06T08:02:49Z</time>
      </trkpt>
      <trkpt lat="47.44681" lon="-2.26841">
        <ele>3.8</ele>
        <time>2020-06-06T08:02:50Z</time>
      </trkpt>
      <trkpt lat="47.44682" lon="-2.26851">
        <ele>3.8</ele>
        <time>2020-06-06T08:02:51Z</time>
      </trkpt>
      <trkpt lat="47.44683" lon="-2.2686">
        <ele>3.8</ele>
        <time>2020-06-06T08:02:52Z</time>
      </trkpt>
      <trkpt lat="47.44684" lon="-2.26869">
        <ele>3.8</ele>
        <time>2020-06-06T08:02:53Z</time>
      </trkpt>
      <trkpt lat="47.44684" lon="-2.26879">
        <ele>3.7</ele>
        <time>2020-06-06T08:02:54Z</time>
      </trkpt>
      <trkpt lat="47.44686" lon="-2.26888">
        <ele>3.7</ele>
        <time>2020-06-06T08:02:55Z</time>
      </trkpt>
      <trkpt lat="47.44687" lon="-2.26898">
        <ele>3.6</ele>
        <time>2020-06-06T08:02:56Z</time>
      </trkpt>
      <trkpt lat="47.44688" lon="-2.26907">
        <ele>3.6</ele>
        <time>2020-06-06T08:02:57Z</time>
      </trkpt>
      <trkpt lat="47.44689" lon="-2.26916">
        <ele>3.5</ele>
        <time>2020-06-06T08:02:58Z</time>
      </trkpt>
      <trkpt lat="47.44691" lon="-2.26924">
        <ele>3.5</ele>
        <time>2020-06-06T08:02:59Z</time>
      </trkpt>
      <trkpt lat="47.44692" lon="-2.26933">
        <ele>3.5</ele>
        <time>2020-06-06T08:03:00Z</time>
      </trkpt>
      <trkpt lat="47.44693" lon="-2.26941">
        <ele>3.4</ele>
        <time>2020-06-06T08:03:01Z</time>
      </trkpt>
      <trkpt lat="47.44694" lon="-2.2695">
        <ele>3.4</ele>
        <time>2020-06-06T08:03:02Z</time>
      </trkpt>
      <trkpt lat="47.44696" lon="-2.26959">
        <ele>3.3</ele>
        <time>2020-06-06T08:03:03Z</time>
      </trkpt>
      <trkpt lat="47.44697" lon="-2.26967">
        <ele>3.3</ele>
        <time>2020-06-06T08:03:04Z</time>
      </trkpt>
      <trkpt lat="47.44698" lon="-2.26976">
        <ele>3.3</ele>
        <time>2020-06-06T08:03:05Z</time>
      </trkpt>
      <trkpt lat="47.44699" lon="-2.26985">
        <ele>3.3</ele>
        <time>2020-06-06T08:03:06Z</time>
      </trkpt>
      <trkpt lat="47.447" lon="-2.26995">
        <ele>3.2</ele>
        <time>2020-06-06T08:03:07Z</time>
      </trkpt>
      <trkpt lat="47.44701" lon="-2.27006">
        <ele>3.2</ele>
        <time>2020-06-06T08:03:08Z</time>
      </trkpt>
      <trkpt lat="47.44702" lon="-2.27017">
        <ele>3.1</ele>
        <time>2020-06-06T08:03:09Z</time>
      </trkpt>
      <trkpt lat="47.44703" lon="-2.27027">
        <ele>3.1</ele>
        <time>2020-06-06T08:03:10Z</time>
      </trkpt>
      <trkpt lat="47.44704" lon="-2.27036">
        <ele>3</ele>
        <time>2020-06-06T08:03:11Z</time>
      </trkpt>
      <trkpt lat="47.44705" lon="-2.27046">
        <ele>2.9</ele>
        <time>2020-06-06T08:03:12Z</time>
      </trkpt>
      <trkpt lat="47.44706" lon="-2.27057">
        <ele>2.9</ele>
        <time>2020-06-06T08:03:13Z</time>
      </trkpt>
      <trkpt lat="47.44707" lon="-2.27067">
        <ele>2.8</ele>
        <time>2020-06-06T08:03:14Z</time>
      </trkpt>
      <trkpt lat="47.44708" lon="-2.27077">
        <ele>2.8</ele>
        <time>2020-06-06T08:03:15Z</time>
      </trkpt>
      <trkpt lat="47.44709" lon="-2.27086">
        <ele>2.8</ele>
        <time>2020-06-06T08:03:16Z</time>
      </trkpt>
      <trkpt lat="47.44709" lon="-2.27095">
        <ele>2.7</ele>
        <time>2020-06-06T08:03:17Z</time>
      </trkpt>
      <trkpt lat="47.4471" lon="-2.27105">
        <ele>2.7</ele>
        <time>2020-06-06T08:03:18Z</time>
      </trkpt>
      <trkpt lat="47.44711" lon="-2.27115">
        <ele>2.7</ele>
        <time>2020-06-06T08:03:19Z</time>
      </trkpt>
      <trkpt lat="47.44711" lon="-2.27125">
        <ele>2.6</ele>
        <time>2020-06-06T08:03:20Z</time>
      </trkpt>
      <trkpt lat="47.44713" lon="-2.27134">
        <ele>2.6</ele>
        <time>2020-06-06T08:03:21Z</time>
      </trkpt>
      <trkpt lat="47.44714" lon="-2.27144">
        <ele>2.6</ele>
        <time>2020-06-06T08:03:22Z</time>
      </trkpt>
      <trkpt lat="47.44715" lon="-2.27153">
        <ele>2.5</ele>
        <time>2020-06-06T08:03:23Z</time>
      </trkpt>
      <trkpt lat="47.44716" lon="-2.27163">
        <ele>2.5</ele>
        <time>2020-06-06T08:03:24Z</time>
      </trkpt>
      <trkpt lat="47.44717" lon="-2.27172">
        <ele>2.4</ele>
        <time>2020-06-06T08:03:25Z</time>
      </trkpt>
      <trkpt lat="47.44718" lon="-2.27181">
        <ele>2.4</ele>
        <time>2020-06-06T08:03:26Z</time>
      </trkpt>
      <trkpt lat="47.44719" lon="-2.2719">
        <ele>2.3</ele>
        <time>2020-06-06T08:03:27Z</time>
      </trkpt>
      <trkpt lat="47.4472" lon="-2.27199">
        <ele>2.3</ele>
        <time>2020-06-06T08:03:28Z</time>
      </trkpt>
      <trkpt lat="47.44721" lon="-2.27208">
        <ele>2.4</ele>
        <time>2020-06-06T08:03:29Z</time>
      </trkpt>
      <trkpt lat="47.44722" lon="-2.27217">
        <ele>2.4</ele>
        <time>2020-06-06T08:03:30Z</time>
      </trkpt>
      <trkpt lat="47.44722" lon="-2.27227">
        <ele>2.4</ele>
        <time>2020-06-06T08:03:31Z</time>
      </trkpt>
      <trkpt lat="47.44723" lon="-2.27236">
        <ele>2.4</ele>
        <time>2020-06-06T08:03:32Z</time>
      </trkpt>
      <trkpt lat="47.44723" lon="-2.27246">
        <ele>2.4</ele>
        <time>2020-06-06T08:03:33Z</time>
      </trkpt>
      <trkpt lat="47.44723" lon="-2.27255">
        <ele>2.4</ele>
        <time>2020-06-06T08:03:34Z</time>
      </trkpt>
      <trkpt lat="47.44724" lon="-2.27265">
        <ele>2.4</ele>
        <time>2020-06-06T08:03:35Z</time>
      </trkpt>
      <trkpt lat="47.44725" lon="-2.27275">
        <ele>2.4</ele>
        <time>2020-06-06T08:03:36Z</time>
      </trkpt>
      <trkpt lat="47.44727" lon="-2.27284">
        <ele>2.4</ele>
        <time>2020-06-06T08:03:37Z</time>
      </trkpt>
      <trkpt lat="47.44728" lon="-2.27293">
        <ele>2.4</ele>
        <time>2020-06-06T08:03:38Z</time>
      </trkpt>
      <trkpt lat="47.44729" lon="-2.27301">
        <ele>2.4</ele>
        <time>2020-06-06T08:03:39Z</time>
      </trkpt>
      <trkpt lat="47.4473" lon="-2.2731">
        <ele>2.5</ele>
        <time>2020-06-06T08:03:40Z</time>
      </trkpt>
      <trkpt lat="47.4473" lon="-2.27318">
        <ele>2.5</ele>
        <time>2020-06-06T08:03:41Z</time>
      </trkpt>
      <trkpt lat="47.44731" lon="-2.27327">
        <ele>2.5</ele>
        <time>2020-06-06T08:03:42Z</time>
      </trkpt>
      <trkpt lat="47.44732" lon="-2.27337">
        <ele>2.5</ele>
        <time>2020-06-06T08:03:43Z</time>
      </trkpt>
      <trkpt lat="47.44734" lon="-2.27346">
        <ele>2.5</ele>
        <time>2020-06-06T08:03:44Z</time>
      </trkpt>
      <trkpt lat="47.44735" lon="-2.27355">
        <ele>2.5</ele>
        <time>2020-06-06T08:03:45Z</time>
      </trkpt>
      <trkpt lat="47.44736" lon="-2.27364">
        <ele>2.5</ele>
        <time>2020-06-06T08:03:46Z</time>
      </trkpt>
      <trkpt lat="47.44737" lon="-2.27373">
        <ele>2.5</ele>
        <time>2020-06-06T08:03:47Z</time>
      </trkpt>
      <trkpt lat="47.44738" lon="-2.27382">
        <ele>2.5</ele>
        <time>2020-06-06T08:03:48Z</time>
      </trkpt>
      <trkpt lat="47.44738" lon="-2.27391">
        <ele>2.5</ele>
        <time>2020-06-06T08:03:49Z</time>
      </trkpt>
      <trkpt lat="47.44738" lon="-2.274">
        <ele>2.5</ele>
        <time>2020-06-06T08:03:50Z</time>
      </trkpt>
      <trkpt lat="47.44739" lon="-2.27409">
        <ele>2.5</ele>
        <time>2020-06-06T08:03:51Z</time>
      </trkpt>
      <trkpt lat="47.44741" lon="-2.27418">
        <ele>2.5</ele>
        <time>2020-06-06T08:03:52Z</time>
      </trkpt>
      <trkpt lat="47.44742" lon="-2.27427">
        <ele>2.5</ele>
        <time>2020-06-06T08:03:53Z</time>
      </trkpt>
      <trkpt lat="47.44743" lon="-2.27436">
        <ele>2.5</ele>
        <time>2020-06-06T08:03:54Z</time>
      </trkpt>
      <trkpt lat="47.44744" lon="-2.27444">
        <ele>2.5</ele>
        <time>2020-06-06T08:03:55Z</time>
      </trkpt>
      <trkpt lat="47.44745" lon="-2.27453">
        <ele>2.5</ele>
        <time>2020-06-06T08:03:56Z</time>
      </trkpt>
      <trkpt lat="47.44746" lon="-2.27461">
        <ele>2.5</ele>
        <time>2020-06-06T08:03:57Z</time>
      </trkpt>
      <trkpt lat="47.44748" lon="-2.2747">
        <ele>2.5</ele>
        <time>2020-06-06T08:03:58Z</time>
      </trkpt>
      <trkpt lat="47.44748" lon="-2.27478">
        <ele>2.5</ele>
        <time>2020-06-06T08:03:59Z</time>
      </trkpt>
      <trkpt lat="47.44748" lon="-2.27487">
        <ele>2.5</ele>
        <time>2020-06-06T08:04:00Z</time>
      </trkpt>
      <trkpt lat="47.44749" lon="-2.27496">
        <ele>2.5</ele>
        <time>2020-06-06T08:04:01Z</time>
      </trkpt>
      <trkpt lat="47.4475" lon="-2.27505">
        <ele>2.5</ele>
        <time>2020-06-06T08:04:02Z</time>
      </trkpt>
      <trkpt lat="47.44751" lon="-2.27514">
        <ele>2.5</ele>
        <time>2020-06-06T08:04:03Z</time>
      </trkpt>
      <trkpt lat="47.44752" lon="-2.27524">
        <ele>2.5</ele>
        <time>2020-06-06T08:04:04Z</time>
      </trkpt>
      <trkpt lat="47.44753" lon="-2.27533">
        <ele>2.5</ele>
        <time>2020-06-06T08:04:05Z</time>
      </trkpt>
      <trkpt lat="47.44755" lon="-2.27541">
        <ele>2.5</ele>
        <time>2020-06-06T08:04:06Z</time>
      </trkpt>
      <trkpt lat="47.44756" lon="-2.2755">
        <ele>2.6</ele>
        <time>2020-06-06T08:04:07Z</time>
      </trkpt>
      <trkpt lat="47.44757" lon="-2.27559">
        <ele>2.6</ele>
        <time>2020-06-06T08:04:08Z</time>
      </trkpt>
      <trkpt lat="47.44757" lon="-2.27568">
        <ele>2.7</ele>
        <time>2020-06-06T08:04:09Z</time>
      </trkpt>
      <trkpt lat="47.44759" lon="-2.27576">
        <ele>2.7</ele>
        <time>2020-06-06T08:04:10Z</time>
      </trkpt>
      <trkpt lat="47.4476" lon="-2.27585">
        <ele>2.8</ele>
        <time>2020-06-06T08:04:11Z</time>
      </trkpt>
      <trkpt lat="47.44761" lon="-2.27594">
        <ele>2.8</ele>
        <time>2020-06-06T08:04:12Z</time>
      </trkpt>
      <trkpt lat="47.44762" lon="-2.27604">
        <ele>2.8</ele>
        <time>2020-06-06T08:04:13Z</time>
      </trkpt>
      <trkpt lat="47.44763" lon="-2.27613">
        <ele>2.8</ele>
        <time>2020-06-06T08:04:14Z</time>
      </trkpt>
      <trkpt lat="47.44763" lon="-2.27622">
        <ele>2.8</ele>
        <time>2020-06-06T08:04:15Z</time>
      </trkpt>
      <trkpt lat="47.44764" lon="-2.27631">
        <ele>2.8</ele>
        <time>2020-06-06T08:04:16Z</time>
      </trkpt>
      <trkpt lat="47.44765" lon="-2.2764">
        <ele>2.9</ele>
        <time>2020-06-06T08:04:17Z</time>
      </trkpt>
      <trkpt lat="47.44767" lon="-2.27649">
        <ele>2.9</ele>
        <time>2020-06-06T08:04:18Z</time>
      </trkpt>
      <trkpt lat="47.44768" lon="-2.27658">
        <ele>2.9</ele>
        <time>2020-06-06T08:04:19Z</time>
      </trkpt>
      <trkpt lat="47.44768" lon="-2.27668">
        <ele>2.9</ele>
        <time>2020-06-06T08:04:20Z</time>
      </trkpt>
      <trkpt lat="47.44769" lon="-2.27677">
        <ele>2.9</ele>
        <time>2020-06-06T08:04:21Z</time>
      </trkpt>
      <trkpt lat="47.4477" lon="-2.27686">
        <ele>2.9</ele>
        <time>2020-06-06T08:04:22Z</time>
      </trkpt>
      <trkpt lat="47.44771" lon="-2.27695">
        <ele>2.9</ele>
        <time>2020-06-06T08:04:23Z</time>
      </trkpt>
      <trkpt lat="47.44771" lon="-2.27704">
        <ele>2.9</ele>
        <time>2020-06-06T08:04:24Z</time>
      </trkpt>
      <trkpt lat="47.44772" lon="-2.27714">
        <ele>2.9</ele>
        <time>2020-06-06T08:04:25Z</time>
      </trkpt>
      <trkpt lat="47.44772" lon="-2.27723">
        <ele>2.9</ele>
        <time>2020-06-06T08:04:26Z</time>
      </trkpt>
      <trkpt lat="47.44773" lon="-2.27732">
        <ele>2.9</ele>
        <time>2020-06-06T08:04:27Z</time>
      </trkpt>
      <trkpt lat="47.44774" lon="-2.27741">
        <ele>2.8</ele>
        <time>2020-06-06T08:04:28Z</time>
      </trkpt>
      <trkpt lat="47.44774" lon="-2.2775">
        <ele>2.8</ele>
        <time>2020-06-06T08:04:29Z</time>
      </trkpt>
      <trkpt lat="47.44775" lon="-2.27759">
        <ele>2.8</ele>
        <time>2020-06-06T08:04:30Z</time>
      </trkpt>
      <trkpt lat="47.44776" lon="-2.27768">
        <ele>2.8</ele>
        <time>2020-06-06T08:04:31Z</time>
      </trkpt>
      <trkpt lat="47.44777" lon="-2.27777">
        <ele>2.8</ele>
        <time>2020-06-06T08:04:32Z</time>
      </trkpt>
      <trkpt lat="47.44779" lon="-2.27787">
        <ele>2.8</ele>
        <time>2020-06-06T08:04:33Z</time>
      </trkpt>
      <trkpt lat="47.44779" lon="-2.27796">
        <ele>2.8</ele>
        <time>2020-06-06T08:04:34Z</time>
      </trkpt>
      <trkpt lat="47.4478" lon="-2.27805">
        <ele>2.8</ele>
        <time>2020-06-06T08:04:35Z</time>
      </trkpt>
      <trkpt lat="47.44781" lon="-2.27815">
        <ele>2.8</ele>
        <time>2020-06-06T08:04:36Z</time>
      </trkpt>
      <trkpt lat="47.44782" lon="-2.27824">
        <ele>2.9</ele>
        <time>2020-06-06T08:04:37Z</time>
      </trkpt>
      <trkpt lat="47.44782" lon="-2.27833">
        <ele>2.9</ele>
        <time>2020-06-06T08:04:38Z</time>
      </trkpt>
      <trkpt lat="47.44783" lon="-2.27842">
        <ele>2.9</ele>
        <time>2020-06-06T08:04:39Z</time>
      </trkpt>
      <trkpt lat="47.44783" lon="-2.27852">
        <ele>2.9</ele>
        <time>2020-06-06T08:04:40Z</time>
      </trkpt>
      <trkpt lat="47.44784" lon="-2.27861">
        <ele>2.8</ele>
        <time>2020-06-06T08:04:41Z</time>
      </trkpt>
      <trkpt lat="47.44785" lon="-2.27871">
        <ele>2.8</ele>
        <time>2020-06-06T08:04:42Z</time>
      </trkpt>
      <trkpt lat="47.44785" lon="-2.2788">
        <ele>2.8</ele>
        <time>2020-06-06T08:04:43Z</time>
      </trkpt>
      <trkpt lat="47.44786" lon="-2.27889">
        <ele>2.8</ele>
        <time>2020-06-06T08:04:44Z</time>
      </trkpt>
      <trkpt lat="47.44788" lon="-2.27898">
        <ele>2.8</ele>
        <time>2020-06-06T08:04:45Z</time>
      </trkpt>
      <trkpt lat="47.44789" lon="-2.27907">
        <ele>2.8</ele>
        <time>2020-06-06T08:04:46Z</time>
      </trkpt>
      <trkpt lat="47.44791" lon="-2.27916">
        <ele>2.8</ele>
        <time>2020-06-06T08:04:47Z</time>
      </trkpt>
      <trkpt lat="47.44791" lon="-2.27926">
        <ele>2.8</ele>
        <time>2020-06-06T08:04:48Z</time>
      </trkpt>
      <trkpt lat="47.44792" lon="-2.27935">
        <ele>2.8</ele>
        <time>2020-06-06T08:04:49Z</time>
      </trkpt>
      <trkpt lat="47.44793" lon="-2.27943">
        <ele>2.7</ele>
        <time>2020-06-06T08:04:50Z</time>
      </trkpt>
      <trkpt lat="47.44795" lon="-2.27952">
        <ele>2.7</ele>
        <time>2020-06-06T08:04:51Z</time>
      </trkpt>
      <trkpt lat="47.44795" lon="-2.27961">
        <ele>2.6</ele>
        <time>2020-06-06T08:04:52Z</time>
      </trkpt>
      <trkpt lat="47.44796" lon="-2.27969">
        <ele>2.6</ele>
        <time>2020-06-06T08:04:53Z</time>
      </trkpt>
      <trkpt lat="47.44796" lon="-2.27978">
        <ele>2.5</ele>
        <time>2020-06-06T08:04:54Z</time>
      </trkpt>
      <trkpt lat="47.44797" lon="-2.27986">
        <ele>2.5</ele>
        <time>2020-06-06T08:04:55Z</time>
      </trkpt>
      <trkpt lat="47.44797" lon="-2.27994">
        <ele>2.5</ele>
        <time>2020-06-06T08:04:56Z</time>
      </trkpt>
      <trkpt lat="47.44798" lon="-2.28002">
        <ele>2.5</ele>
        <time>2020-06-06T08:04:57Z</time>
      </trkpt>
      <trkpt lat="47.44799" lon="-2.2801">
        <ele>2.5</ele>
        <time>2020-06-06T08:04:58Z</time>
      </trkpt>
      <trkpt lat="47.44801" lon="-2.28018">
        <ele>2.5</ele>
        <time>2020-06-06T08:04:59Z</time>
      </trkpt>
      <trkpt lat="47.44802" lon="-2.28027">
        <ele>2.5</ele>
        <time>2020-06-06T08:05:00Z</time>
      </trkpt>
      <trkpt lat="47.44803" lon="-2.28036">
        <ele>2.5</ele>
        <time>2020-06-06T08:05:01Z</time>
      </trkpt>
      <trkpt lat="47.44805" lon="-2.28045">
        <ele>2.4</ele>
        <time>2020-06-06T08:05:02Z</time>
      </trkpt>
      <trkpt lat="47.44806" lon="-2.28053">
        <ele>2.4</ele>
        <time>2020-06-06T08:05:03Z</time>
      </trkpt>
      <trkpt lat="47.44808" lon="-2.28062">
        <ele>2.4</ele>
        <time>2020-06-06T08:05:04Z</time>
      </trkpt>
      <trkpt lat="47.4481" lon="-2.2807">
        <ele>2.4</ele>
        <time>2020-06-06T08:05:05Z</time>
      </trkpt>
      <trkpt lat="47.44811" lon="-2.28078">
        <ele>2.4</ele>
        <time>2020-06-06T08:05:06Z</time>
      </trkpt>
      <trkpt lat="47.44811" lon="-2.28085">
        <ele>2.4</ele>
        <time>2020-06-06T08:05:07Z</time>
      </trkpt>
      <trkpt lat="47.44812" lon="-2.28092">
        <ele>2.4</ele>
        <time>2020-06-06T08:05:08Z</time>
      </trkpt>
      <trkpt lat="47.44813" lon="-2.28099">
        <ele>2.4</ele>
        <time>2020-06-06T08:05:09Z</time>
      </trkpt>
      <trkpt lat="47.44814" lon="-2.28106">
        <ele>2.5</ele>
        <time>2020-06-06T08:05:10Z</time>
      </trkpt>
      <trkpt lat="47.44814" lon="-2.28114">
        <ele>2.5</ele>
        <time>2020-06-06T08:05:11Z</time>
      </trkpt>
      <trkpt lat="47.44814" lon="-2.28122">
        <ele>2.5</ele>
        <time>2020-06-06T08:05:12Z</time>
      </trkpt>
      <trkpt lat="47.44815" lon="-2.2813">
        <ele>2.6</ele>
        <time>2020-06-06T08:05:13Z</time>
      </trkpt>
      <trkpt lat="47.44815" lon="-2.28138">
        <ele>2.6</ele>
        <time>2020-06-06T08:05:14Z</time>
      </trkpt>
      <trkpt lat="47.44816" lon="-2.28147">
        <ele>2.6</ele>
        <time>2020-06-06T08:05:15Z</time>
      </trkpt>
      <trkpt lat="47.44817" lon="-2.28155">
        <ele>2.6</ele>
        <time>2020-06-06T08:05:16Z</time>
      </trkpt>
      <trkpt lat="47.44818" lon="-2.28163">
        <ele>2.6</ele>
        <time>2020-06-06T08:05:17Z</time>
      </trkpt>
      <trkpt lat="47.4482" lon="-2.28171">
        <ele>2.5</ele>
        <time>2020-06-06T08:05:18Z</time>
      </trkpt>
      <trkpt lat="47.4482" lon="-2.28178">
        <ele>2.5</ele>
        <time>2020-06-06T08:05:19Z</time>
      </trkpt>
      <trkpt lat="47.44821" lon="-2.28186">
        <ele>2.5</ele>
        <time>2020-06-06T08:05:20Z</time>
      </trkpt>
      <trkpt lat="47.44821" lon="-2.28194">
        <ele>2.4</ele>
        <time>2020-06-06T08:05:21Z</time>
      </trkpt>
      <trkpt lat="47.44822" lon="-2.28203">
        <ele>2.4</ele>
        <time>2020-06-06T08:05:22Z</time>
      </trkpt>
      <trkpt lat="47.44822" lon="-2.28211">
        <ele>2.4</ele>
        <time>2020-06-06T08:05:23Z</time>
      </trkpt>
      <trkpt lat="47.44823" lon="-2.28218">
        <ele>2.4</ele>
        <time>2020-06-06T08:05:24Z</time>
      </trkpt>
      <trkpt lat="47.44823" lon="-2.28225">
        <ele>2.4</ele>
        <time>2020-06-06T08:05:25Z</time>
      </trkpt>
      <trkpt lat="47.44824" lon="-2.28233">
        <ele>2.4</ele>
        <time>2020-06-06T08:05:26Z</time>
      </trkpt>
      <trkpt lat="47.44825" lon="-2.28241">
        <ele>2.5</ele>
        <time>2020-06-06T08:05:27Z</time>
      </trkpt>
      <trkpt lat="47.44825" lon="-2.28248">
        <ele>2.5</ele>
        <time>2020-06-06T08:05:28Z</time>
      </trkpt>
      <trkpt lat="47.44826" lon="-2.28256">
        <ele>2.5</ele>
        <time>2020-06-06T08:05:29Z</time>
      </trkpt>
      <trkpt lat="47.44827" lon="-2.28264">
        <ele>2.5</ele>
        <time>2020-06-06T08:05:30Z</time>
      </trkpt>
      <trkpt lat="47.44829" lon="-2.28271">
        <ele>2.5</ele>
        <time>2020-06-06T08:05:31Z</time>
      </trkpt>
      <trkpt lat="47.44829" lon="-2.28279">
        <ele>2.5</ele>
        <time>2020-06-06T08:05:32Z</time>
      </trkpt>
      <trkpt lat="47.44831" lon="-2.28287">
        <ele>2.5</ele>
        <time>2020-06-06T08:05:33Z</time>
      </trkpt>
      <trkpt lat="47.44831" lon="-2.28294">
        <ele>2.4</ele>
        <time>2020-06-06T08:05:34Z</time>
      </trkpt>
      <trkpt lat="47.44832" lon="-2.28302">
        <ele>2.4</ele>
        <time>2020-06-06T08:05:35Z</time>
      </trkpt>
      <trkpt lat="47.44833" lon="-2.2831">
        <ele>2.4</ele>
        <time>2020-06-06T08:05:36Z</time>
      </trkpt>
      <trkpt lat="47.44834" lon="-2.28318">
        <ele>2.4</ele>
        <time>2020-06-06T08:05:37Z</time>
      </trkpt>
      <trkpt lat="47.44835" lon="-2.28325">
        <ele>2.5</ele>
        <time>2020-06-06T08:05:38Z</time>
      </trkpt>
      <trkpt lat="47.44836" lon="-2.28332">
        <ele>2.5</ele>
        <time>2020-06-06T08:05:39Z</time>
      </trkpt>
      <trkpt lat="47.44837" lon="-2.2834">
        <ele>2.5</ele>
        <time>2020-06-06T08:05:40Z</time>
      </trkpt>
      <trkpt lat="47.44838" lon="-2.28347">
        <ele>2.5</ele>
        <time>2020-06-06T08:05:41Z</time>
      </trkpt>
      <trkpt lat="47.44838" lon="-2.28355">
        <ele>2.5</ele>
        <time>2020-06-06T08:05:42Z</time>
      </trkpt>
      <trkpt lat="47.44839" lon="-2.28363">
        <ele>2.5</ele>
        <time>2020-06-06T08:05:43Z</time>
      </trkpt>
      <trkpt lat="47.4484" lon="-2.28371">
        <ele>2.5</ele>
        <time>2020-06-06T08:05:44Z</time>
      </trkpt>
      <trkpt lat="47.44841" lon="-2.2838">
        <ele>2.5</ele>
        <time>2020-06-06T08:05:45Z</time>
      </trkpt>
      <trkpt lat="47.44841" lon="-2.28388">
        <ele>2.5</ele>
        <time>2020-06-06T08:05:46Z</time>
      </trkpt>
      <trkpt lat="47.44841" lon="-2.28397">
        <ele>2.5</ele>
        <time>2020-06-06T08:05:47Z</time>
      </trkpt>
      <trkpt lat="47.44842" lon="-2.28405">
        <ele>2.5</ele>
        <time>2020-06-06T08:05:48Z</time>
      </trkpt>
      <trkpt lat="47.44843" lon="-2.28413">
        <ele>2.5</ele>
        <time>2020-06-06T08:05:49Z</time>
      </trkpt>
      <trkpt lat="47.44844" lon="-2.28421">
        <ele>2.5</ele>
        <time>2020-06-06T08:05:50Z</time>
      </trkpt>
      <trkpt lat="47.44845" lon="-2.28429">
        <ele>2.6</ele>
        <time>2020-06-06T08:05:51Z</time>
      </trkpt>
      <trkpt lat="47.44847" lon="-2.28437">
        <ele>2.6</ele>
        <time>2020-06-06T08:05:52Z</time>
      </trkpt>
      <trkpt lat="47.44848" lon="-2.28446">
        <ele>2.6</ele>
        <time>2020-06-06T08:05:53Z</time>
      </trkpt>
      <trkpt lat="47.4485" lon="-2.28454">
        <ele>2.6</ele>
        <time>2020-06-06T08:05:54Z</time>
      </trkpt>
      <trkpt lat="47.44851" lon="-2.28462">
        <ele>2.7</ele>
        <time>2020-06-06T08:05:55Z</time>
      </trkpt>
      <trkpt lat="47.44851" lon="-2.2847">
        <ele>2.7</ele>
        <time>2020-06-06T08:05:56Z</time>
      </trkpt>
      <trkpt lat="47.44852" lon="-2.28478">
        <ele>2.7</ele>
        <time>2020-06-06T08:05:57Z</time>
      </trkpt>
      <trkpt lat="47.44853" lon="-2.28486">
        <ele>2.7</ele>
        <time>2020-06-06T08:05:58Z</time>
      </trkpt>
      <trkpt lat="47.44853" lon="-2.28494">
        <ele>2.8</ele>
        <time>2020-06-06T08:05:59Z</time>
      </trkpt>
      <trkpt lat="47.44854" lon="-2.28502">
        <ele>2.8</ele>
        <time>2020-06-06T08:06:00Z</time>
      </trkpt>
      <trkpt lat="47.44854" lon="-2.2851">
        <ele>2.9</ele>
        <time>2020-06-06T08:06:01Z</time>
      </trkpt>
      <trkpt lat="47.44855" lon="-2.28518">
        <ele>2.9</ele>
        <time>2020-06-06T08:06:02Z</time>
      </trkpt>
      <trkpt lat="47.44856" lon="-2.28526">
        <ele>2.9</ele>
        <time>2020-06-06T08:06:03Z</time>
      </trkpt>
      <trkpt lat="47.44856" lon="-2.28535">
        <ele>3</ele>
        <time>2020-06-06T08:06:04Z</time>
      </trkpt>
      <trkpt lat="47.44856" lon="-2.28543">
        <ele>3.1</ele>
        <time>2020-06-06T08:06:05Z</time>
      </trkpt>
      <trkpt lat="47.44856" lon="-2.28552">
        <ele>3.1</ele>
        <time>2020-06-06T08:06:06Z</time>
      </trkpt>
      <trkpt lat="47.44856" lon="-2.2856">
        <ele>3.2</ele>
        <time>2020-06-06T08:06:07Z</time>
      </trkpt>
      <trkpt lat="47.44857" lon="-2.28568">
        <ele>3.3</ele>
        <time>2020-06-06T08:06:08Z</time>
      </trkpt>
      <trkpt lat="47.44858" lon="-2.28576">
        <ele>3.4</ele>
        <time>2020-06-06T08:06:09Z</time>
      </trkpt>
      <trkpt lat="47.44859" lon="-2.28585">
        <ele>3.5</ele>
        <time>2020-06-06T08:06:10Z</time>
      </trkpt>
      <trkpt lat="47.44859" lon="-2.28593">
        <ele>3.6</ele>
        <time>2020-06-06T08:06:11Z</time>
      </trkpt>
      <trkpt lat="47.44859" lon="-2.28601">
        <ele>3.7</ele>
        <time>2020-06-06T08:06:12Z</time>
      </trkpt>
      <trkpt lat="47.44859" lon="-2.28609">
        <ele>3.8</ele>
        <time>2020-06-06T08:06:13Z</time>
      </trkpt>
      <trkpt lat="47.44859" lon="-2.28617">
        <ele>3.9</ele>
        <time>2020-06-06T08:06:14Z</time>
      </trkpt>
      <trkpt lat="47.44859" lon="-2.28625">
        <ele>4</ele>
        <time>2020-06-06T08:06:15Z</time>
      </trkpt>
      <trkpt lat="47.44858" lon="-2.28632">
        <ele>4.1</ele>
        <time>2020-06-06T08:06:16Z</time>
      </trkpt>
      <trkpt lat="47.44857" lon="-2.2864">
        <ele>4.2</ele>
        <time>2020-06-06T08:06:17Z</time>
      </trkpt>
      <trkpt lat="47.44857" lon="-2.28648">
        <ele>4.3</ele>
        <time>2020-06-06T08:06:18Z</time>
      </trkpt>
      <trkpt lat="47.44857" lon="-2.28655">
        <ele>4.4</ele>
        <time>2020-06-06T08:06:19Z</time>
      </trkpt>
      <trkpt lat="47.44857" lon="-2.28663">
        <ele>4.5</ele>
        <time>2020-06-06T08:06:20Z</time>
      </trkpt>
      <trkpt lat="47.44857" lon="-2.28671">
        <ele>4.6</ele>
        <time>2020-06-06T08:06:21Z</time>
      </trkpt>
      <trkpt lat="47.44858" lon="-2.28678">
        <ele>4.8</ele>
        <time>2020-06-06T08:06:22Z</time>
      </trkpt>
      <trkpt lat="47.44859" lon="-2.28686">
        <ele>5</ele>
        <time>2020-06-06T08:06:23Z</time>
      </trkpt>
      <trkpt lat="47.4486" lon="-2.28694">
        <ele>5.1</ele>
        <time>2020-06-06T08:06:24Z</time>
      </trkpt>
      <trkpt lat="47.44861" lon="-2.28701">
        <ele>5.3</ele>
        <time>2020-06-06T08:06:25Z</time>
      </trkpt>
      <trkpt lat="47.44861" lon="-2.28709">
        <ele>5.4</ele>
        <time>2020-06-06T08:06:26Z</time>
      </trkpt>
      <trkpt lat="47.44861" lon="-2.28717">
        <ele>5.6</ele>
        <time>2020-06-06T08:06:27Z</time>
      </trkpt>
      <trkpt lat="47.44862" lon="-2.28724">
        <ele>5.8</ele>
        <time>2020-06-06T08:06:28Z</time>
      </trkpt>
      <trkpt lat="47.44862" lon="-2.28732">
        <ele>6</ele>
        <time>2020-06-06T08:06:29Z</time>
      </trkpt>
      <trkpt lat="47.44863" lon="-2.28739">
        <ele>6.1</ele>
        <time>2020-06-06T08:06:30Z</time>
      </trkpt>
      <trkpt lat="47.44863" lon="-2.28746">
        <ele>6.3</ele>
        <time>2020-06-06T08:06:31Z</time>
      </trkpt>
      <trkpt lat="47.44863" lon="-2.28753">
        <ele>6.5</ele>
        <time>2020-06-06T08:06:32Z</time>
      </trkpt>
      <trkpt lat="47.44864" lon="-2.2876">
        <ele>6.7</ele>
        <time>2020-06-06T08:06:33Z</time>
      </trkpt>
      <trkpt lat="47.44864" lon="-2.28767">
        <ele>6.9</ele>
        <time>2020-06-06T08:06:34Z</time>
      </trkpt>
      <trkpt lat="47.44865" lon="-2.28774">
        <ele>7.1</ele>
        <time>2020-06-06T08:06:35Z</time>
      </trkpt>
      <trkpt lat="47.44866" lon="-2.28781">
        <ele>7.3</ele>
        <time>2020-06-06T08:06:36Z</time>
      </trkpt>
      <trkpt lat="47.44866" lon="-2.28789">
        <ele>7.6</ele>
        <time>2020-06-06T08:06:37Z</time>
      </trkpt>
      <trkpt lat="47.44866" lon="-2.28796">
        <ele>7.8</ele>
        <time>2020-06-06T08:06:38Z</time>
      </trkpt>
      <trkpt lat="47.44865" lon="-2.28803">
        <ele>8</ele>
        <time>2020-06-06T08:06:39Z</time>
      </trkpt>
      <trkpt lat="47.44865" lon="-2.28809">
        <ele>8.2</ele>
        <time>2020-06-06T08:06:40Z</time>
      </trkpt>
      <trkpt lat="47.44865" lon="-2.28816">
        <ele>8.4</ele>
        <time>2020-06-06T08:06:41Z</time>
      </trkpt>
      <trkpt lat="47.44864" lon="-2.28823">
        <ele>8.6</ele>
        <time>2020-06-06T08:06:42Z</time>
      </trkpt>
      <trkpt lat="47.44863" lon="-2.28831">
        <ele>8.8</ele>
        <time>2020-06-06T08:06:43Z</time>
      </trkpt>
      <trkpt lat="47.44863" lon="-2.28838">
        <ele>9</ele>
        <time>2020-06-06T08:06:44Z</time>
      </trkpt>
      <trkpt lat="47.44864" lon="-2.28845">
        <ele>9.2</ele>
        <time>2020-06-06T08:06:45Z</time>
      </trkpt>
      <trkpt lat="47.44864" lon="-2.28853">
        <ele>9.4</ele>
        <time>2020-06-06T08:06:46Z</time>
      </trkpt>
      <trkpt lat="47.44864" lon="-2.28862">
        <ele>9.5</ele>
        <time>2020-06-06T08:06:47Z</time>
      </trkpt>
      <trkpt lat="47.44864" lon="-2.2887">
        <ele>9.6</ele>
        <time>2020-06-06T08:06:48Z</time>
      </trkpt>
      <trkpt lat="47.44863" lon="-2.28878">
        <ele>9.8</ele>
        <time>2020-06-06T08:06:49Z</time>
      </trkpt>
      <trkpt lat="47.44864" lon="-2.28885">
        <ele>9.9</ele>
        <time>2020-06-06T08:06:50Z</time>
      </trkpt>
      <trkpt lat="47.44864" lon="-2.28893">
        <ele>10</ele>
        <time>2020-06-06T08:06:51Z</time>
      </trkpt>
      <trkpt lat="47.44864" lon="-2.28899">
        <ele>10.1</ele>
        <time>2020-06-06T08:06:52Z</time>
      </trkpt>
      <trkpt lat="47.44864" lon="-2.28906">
        <ele>10.2</ele>
        <time>2020-06-06T08:06:53Z</time>
      </trkpt>
      <trkpt lat="47.44864" lon="-2.28913">
        <ele>10.2</ele>
        <time>2020-06-06T08:06:54Z</time>
      </trkpt>
      <trkpt lat="47.44865" lon="-2.2892">
        <ele>10.3</ele>
        <time>2020-06-06T08:06:55Z</time>
      </trkpt>
      <trkpt lat="47.44865" lon="-2.28927">
        <ele>10.4</ele>
        <time>2020-06-06T08:06:56Z</time>
      </trkpt>
      <trkpt lat="47.44866" lon="-2.28934">
        <ele>10.5</ele>
        <time>2020-06-06T08:06:57Z</time>
      </trkpt>
      <trkpt lat="47.44866" lon="-2.2894">
        <ele>10.5</ele>
        <time>2020-06-06T08:06:58Z</time>
      </trkpt>
      <trkpt lat="47.44867" lon="-2.28946">
        <ele>10.6</ele>
        <time>2020-06-06T08:06:59Z</time>
      </trkpt>
      <trkpt lat="47.44866" lon="-2.28953">
        <ele>10.6</ele>
        <time>2020-06-06T08:07:00Z</time>
      </trkpt>
      <trkpt lat="47.44866" lon="-2.28959">
        <ele>10.7</ele>
        <time>2020-06-06T08:07:01Z</time>
      </trkpt>
      <trkpt lat="47.44866" lon="-2.28966">
        <ele>10.8</ele>
        <time>2020-06-06T08:07:02Z</time>
      </trkpt>
      <trkpt lat="47.44867" lon="-2.28974">
        <ele>10.8</ele>
        <time>2020-06-06T08:07:03Z</time>
      </trkpt>
      <trkpt lat="47.44868" lon="-2.28982">
        <ele>10.8</ele>
        <time>2020-06-06T08:07:04Z</time>
      </trkpt>
      <trkpt lat="47.44868" lon="-2.2899">
        <ele>10.9</ele>
        <time>2020-06-06T08:07:05Z</time>
      </trkpt>
      <trkpt lat="47.44867" lon="-2.28997">
        <ele>10.9</ele>
        <time>2020-06-06T08:07:06Z</time>
      </trkpt>
      <trkpt lat="47.44867" lon="-2.29004">
        <ele>10.9</ele>
        <time>2020-06-06T08:07:07Z</time>
      </trkpt>
      <trkpt lat="47.44867" lon="-2.29011">
        <ele>10.9</ele>
        <time>2020-06-06T08:07:08Z</time>
      </trkpt>
      <trkpt lat="47.44867" lon="-2.29018">
        <ele>10.9</ele>
        <time>2020-06-06T08:07:09Z</time>
      </trkpt>
      <trkpt lat="47.44868" lon="-2.29026">
        <ele>10.9</ele>
        <time>2020-06-06T08:07:10Z</time>
      </trkpt>
      <trkpt lat="47.44867" lon="-2.29035">
        <ele>10.9</ele>
        <time>2020-06-06T08:07:11Z</time>
      </trkpt>
      <trkpt lat="47.44867" lon="-2.29044">
        <ele>10.9</ele>
        <time>2020-06-06T08:07:12Z</time>
      </trkpt>
      <trkpt lat="47.44868" lon="-2.29052">
        <ele>10.9</ele>
        <time>2020-06-06T08:07:13Z</time>
      </trkpt>
      <trkpt lat="47.44868" lon="-2.29059">
        <ele>10.9</ele>
        <time>2020-06-06T08:07:14Z</time>
      </trkpt>
      <trkpt lat="47.44869" lon="-2.29067">
        <ele>11</ele>
        <time>2020-06-06T08:07:15Z</time>
      </trkpt>
      <trkpt lat="47.44869" lon="-2.29075">
        <ele>11</ele>
        <time>2020-06-06T08:07:16Z</time>
      </trkpt>
      <trkpt lat="47.44869" lon="-2.29083">
        <ele>11</ele>
        <time>2020-06-06T08:07:17Z</time>
      </trkpt>
      <trkpt lat="47.44869" lon="-2.29091">
        <ele>11.1</ele>
        <time>2020-06-06T08:07:18Z</time>
      </trkpt>
      <trkpt lat="47.44869" lon="-2.29099">
        <ele>11.1</ele>
        <time>2020-06-06T08:07:19Z</time>
      </trkpt>
      <trkpt lat="47.4487" lon="-2.29107">
        <ele>11.1</ele>
        <time>2020-06-06T08:07:20Z</time>
      </trkpt>
      <trkpt lat="47.44871" lon="-2.29114">
        <ele>11.1</ele>
        <time>2020-06-06T08:07:21Z</time>
      </trkpt>
      <trkpt lat="47.44871" lon="-2.2912">
        <ele>11.1</ele>
        <time>2020-06-06T08:07:22Z</time>
      </trkpt>
      <trkpt lat="47.44872" lon="-2.29127">
        <ele>11.1</ele>
        <time>2020-06-06T08:07:23Z</time>
      </trkpt>
      <trkpt lat="47.44873" lon="-2.29135">
        <ele>11.1</ele>
        <time>2020-06-06T08:07:24Z</time>
      </trkpt>
      <trkpt lat="47.44874" lon="-2.29144">
        <ele>11.1</ele>
        <time>2020-06-06T08:07:25Z</time>
      </trkpt>
      <trkpt lat="47.44874" lon="-2.29153">
        <ele>11</ele>
        <time>2020-06-06T08:07:26Z</time>
      </trkpt>
      <trkpt lat="47.44874" lon="-2.29161">
        <ele>11</ele>
        <time>2020-06-06T08:07:27Z</time>
      </trkpt>
      <trkpt lat="47.44874" lon="-2.29169">
        <ele>11</ele>
        <time>2020-06-06T08:07:28Z</time>
      </trkpt>
      <trkpt lat="47.44875" lon="-2.29178">
        <ele>11</ele>
        <time>2020-06-06T08:07:29Z</time>
      </trkpt>
      <trkpt lat="47.44875" lon="-2.29184">
        <ele>11</ele>
        <time>2020-06-06T08:07:30Z</time>
      </trkpt>
      <trkpt lat="47.44875" lon="-2.29192">
        <ele>11</ele>
        <time>2020-06-06T08:07:31Z</time>
      </trkpt>
      <trkpt lat="47.44876" lon="-2.29201">
        <ele>11</ele>
        <time>2020-06-06T08:07:32Z</time>
      </trkpt>
      <trkpt lat="47.44876" lon="-2.29208">
        <ele>11</ele>
        <time>2020-06-06T08:07:33Z</time>
      </trkpt>
      <trkpt lat="47.44876" lon="-2.29215">
        <ele>10.9</ele>
        <time>2020-06-06T08:07:34Z</time>
      </trkpt>
      <trkpt lat="47.44876" lon="-2.29223">
        <ele>10.9</ele>
        <time>2020-06-06T08:07:35Z</time>
      </trkpt>
      <trkpt lat="47.44876" lon="-2.29233">
        <ele>10.8</ele>
        <time>2020-06-06T08:07:36Z</time>
      </trkpt>
      <trkpt lat="47.44876" lon="-2.29243">
        <ele>10.7</ele>
        <time>2020-06-06T08:07:37Z</time>
      </trkpt>
      <trkpt lat="47.44876" lon="-2.29251">
        <ele>10.7</ele>
        <time>2020-06-06T08:07:38Z</time>
      </trkpt>
      <trkpt lat="47.44876" lon="-2.29259">
        <ele>10.6</ele>
        <time>2020-06-06T08:07:39Z</time>
      </trkpt>
      <trkpt lat="47.44876" lon="-2.29266">
        <ele>10.6</ele>
        <time>2020-06-06T08:07:40Z</time>
      </trkpt>
      <trkpt lat="47.44876" lon="-2.29274">
        <ele>10.6</ele>
        <time>2020-06-06T08:07:41Z</time>
      </trkpt>
      <trkpt lat="47.44876" lon="-2.2928">
        <ele>10.6</ele>
        <time>2020-06-06T08:07:42Z</time>
      </trkpt>
      <trkpt lat="47.44877" lon="-2.29287">
        <ele>10.5</ele>
        <time>2020-06-06T08:07:43Z</time>
      </trkpt>
      <trkpt lat="47.44877" lon="-2.29294">
        <ele>10.5</ele>
        <time>2020-06-06T08:07:44Z</time>
      </trkpt>
      <trkpt lat="47.44878" lon="-2.29302">
        <ele>10.5</ele>
        <time>2020-06-06T08:07:45Z</time>
      </trkpt>
      <trkpt lat="47.44878" lon="-2.2931">
        <ele>10.5</ele>
        <time>2020-06-06T08:07:46Z</time>
      </trkpt>
      <trkpt lat="47.44879" lon="-2.29319">
        <ele>10.4</ele>
        <time>2020-06-06T08:07:47Z</time>
      </trkpt>
      <trkpt lat="47.4488" lon="-2.29325">
        <ele>10.4</ele>
        <time>2020-06-06T08:07:48Z</time>
      </trkpt>
      <trkpt lat="47.4488" lon="-2.29333">
        <ele>10.4</ele>
        <time>2020-06-06T08:07:49Z</time>
      </trkpt>
      <trkpt lat="47.4488" lon="-2.29341">
        <ele>10.3</ele>
        <time>2020-06-06T08:07:50Z</time>
      </trkpt>
      <trkpt lat="47.44881" lon="-2.29349">
        <ele>10.3</ele>
        <time>2020-06-06T08:07:51Z</time>
      </trkpt>
      <trkpt lat="47.44881" lon="-2.29358">
        <ele>10.3</ele>
        <time>2020-06-06T08:07:52Z</time>
      </trkpt>
      <trkpt lat="47.44881" lon="-2.29368">
        <ele>10.2</ele>
        <time>2020-06-06T08:07:53Z</time>
      </trkpt>
      <trkpt lat="47.44882" lon="-2.29377">
        <ele>10.1</ele>
        <time>2020-06-06T08:07:54Z</time>
      </trkpt>
      <trkpt lat="47.44882" lon="-2.29384">
        <ele>10.1</ele>
        <time>2020-06-06T08:07:55Z</time>
      </trkpt>
      <trkpt lat="47.44882" lon="-2.29393">
        <ele>10.1</ele>
        <time>2020-06-06T08:07:56Z</time>
      </trkpt>
      <trkpt lat="47.44883" lon="-2.29402">
        <ele>10</ele>
        <time>2020-06-06T08:07:57Z</time>
      </trkpt>
      <trkpt lat="47.44883" lon="-2.2941">
        <ele>9.9</ele>
        <time>2020-06-06T08:07:58Z</time>
      </trkpt>
      <trkpt lat="47.44883" lon="-2.29418">
        <ele>9.9</ele>
        <time>2020-06-06T08:07:59Z</time>
      </trkpt>
      <trkpt lat="47.44884" lon="-2.29425">
        <ele>9.9</ele>
        <time>2020-06-06T08:08:00Z</time>
      </trkpt>
      <trkpt lat="47.44884" lon="-2.29434">
        <ele>9.8</ele>
        <time>2020-06-06T08:08:01Z</time>
      </trkpt>
      <trkpt lat="47.44884" lon="-2.29444">
        <ele>9.8</ele>
        <time>2020-06-06T08:08:02Z</time>
      </trkpt>
      <trkpt lat="47.44884" lon="-2.29454">
        <ele>9.7</ele>
        <time>2020-06-06T08:08:03Z</time>
      </trkpt>
      <trkpt lat="47.44884" lon="-2.29466">
        <ele>9.7</ele>
        <time>2020-06-06T08:08:04Z</time>
      </trkpt>
      <trkpt lat="47.44884" lon="-2.29477">
        <ele>9.6</ele>
        <time>2020-06-06T08:08:05Z</time>
      </trkpt>
      <trkpt lat="47.44884" lon="-2.29488">
        <ele>9.6</ele>
        <time>2020-06-06T08:08:06Z</time>
      </trkpt>
      <trkpt lat="47.44885" lon="-2.29497">
        <ele>9.6</ele>
        <time>2020-06-06T08:08:07Z</time>
      </trkpt>
      <trkpt lat="47.44884" lon="-2.29506">
        <ele>9.6</ele>
        <time>2020-06-06T08:08:08Z</time>
      </trkpt>
      <trkpt lat="47.44884" lon="-2.29515">
        <ele>9.6</ele>
        <time>2020-06-06T08:08:09Z</time>
      </trkpt>
      <trkpt lat="47.44884" lon="-2.29524">
        <ele>9.5</ele>
        <time>2020-06-06T08:08:10Z</time>
      </trkpt>
      <trkpt lat="47.44884" lon="-2.29533">
        <ele>9.5</ele>
        <time>2020-06-06T08:08:11Z</time>
      </trkpt>
      <trkpt lat="47.44884" lon="-2.29542">
        <ele>9.4</ele>
        <time>2020-06-06T08:08:12Z</time>
      </trkpt>
      <trkpt lat="47.44884" lon="-2.2955">
        <ele>9.3</ele>
        <time>2020-06-06T08:08:13Z</time>
      </trkpt>
      <trkpt lat="47.44884" lon="-2.29559">
        <ele>9.2</ele>
        <time>2020-06-06T08:08:14Z</time>
      </trkpt>
      <trkpt lat="47.44884" lon="-2.29568">
        <ele>9.2</ele>
        <time>2020-06-06T08:08:15Z</time>
      </trkpt>
      <trkpt lat="47.44884" lon="-2.29576">
        <ele>9.1</ele>
        <time>2020-06-06T08:08:16Z</time>
      </trkpt>
      <trkpt lat="47.44885" lon="-2.29586">
        <ele>9</ele>
        <time>2020-06-06T08:08:17Z</time>
      </trkpt>
      <trkpt lat="47.44886" lon="-2.29596">
        <ele>8.9</ele>
        <time>2020-06-06T08:08:18Z</time>
      </trkpt>
      <trkpt lat="47.44886" lon="-2.29606">
        <ele>8.7</ele>
        <time>2020-06-06T08:08:19Z</time>
      </trkpt>
      <trkpt lat="47.44886" lon="-2.29617">
        <ele>8.6</ele>
        <time>2020-06-06T08:08:20Z</time>
      </trkpt>
      <trkpt lat="47.44886" lon="-2.2963">
        <ele>8.5</ele>
        <time>2020-06-06T08:08:21Z</time>
      </trkpt>
      <trkpt lat="47.44887" lon="-2.29641">
        <ele>8.3</ele>
        <time>2020-06-06T08:08:22Z</time>
      </trkpt>
      <trkpt lat="47.44887" lon="-2.29652">
        <ele>8.3</ele>
        <time>2020-06-06T08:08:23Z</time>
      </trkpt>
      <trkpt lat="47.44888" lon="-2.29661">
        <ele>8.2</ele>
        <time>2020-06-06T08:08:24Z</time>
      </trkpt>
      <trkpt lat="47.44888" lon="-2.29671">
        <ele>8.1</ele>
        <time>2020-06-06T08:08:25Z</time>
      </trkpt>
      <trkpt lat="47.44889" lon="-2.29682">
        <ele>8</ele>
        <time>2020-06-06T08:08:26Z</time>
      </trkpt>
      <trkpt lat="47.44889" lon="-2.29692">
        <ele>8</ele>
        <time>2020-06-06T08:08:27Z</time>
      </trkpt>
      <trkpt lat="47.44889" lon="-2.29701">
        <ele>8</ele>
        <time>2020-06-06T08:08:28Z</time>
      </trkpt>
      <trkpt lat="47.44889" lon="-2.29711">
        <ele>8</ele>
        <time>2020-06-06T08:08:29Z</time>
      </trkpt>
      <trkpt lat="47.44889" lon="-2.2972">
        <ele>8</ele>
        <time>2020-06-06T08:08:30Z</time>
      </trkpt>
      <trkpt lat="47.44889" lon="-2.2973">
        <ele>8.1</ele>
        <time>2020-06-06T08:08:31Z</time>
      </trkpt>
      <trkpt lat="47.44889" lon="-2.2974">
        <ele>8.1</ele>
        <time>2020-06-06T08:08:32Z</time>
      </trkpt>
      <trkpt lat="47.44889" lon="-2.29749">
        <ele>8.1</ele>
        <time>2020-06-06T08:08:33Z</time>
      </trkpt>
      <trkpt lat="47.44889" lon="-2.29759">
        <ele>8.1</ele>
        <time>2020-06-06T08:08:34Z</time>
      </trkpt>
      <trkpt lat="47.4489" lon="-2.29768">
        <ele>8.1</ele>
        <time>2020-06-06T08:08:35Z</time>
      </trkpt>
      <trkpt lat="47.44891" lon="-2.29777">
        <ele>8.2</ele>
        <time>2020-06-06T08:08:36Z</time>
      </trkpt>
      <trkpt lat="47.44892" lon="-2.29786">
        <ele>8.2</ele>
        <time>2020-06-06T08:08:37Z</time>
      </trkpt>
      <trkpt lat="47.44892" lon="-2.29796">
        <ele>8.2</ele>
        <time>2020-06-06T08:08:38Z</time>
      </trkpt>
      <trkpt lat="47.44891" lon="-2.29806">
        <ele>8.2</ele>
        <time>2020-06-06T08:08:39Z</time>
      </trkpt>
      <trkpt lat="47.44892" lon="-2.29815">
        <ele>8.3</ele>
        <time>2020-06-06T08:08:40Z</time>
      </trkpt>
      <trkpt lat="47.44892" lon="-2.29825">
        <ele>8.3</ele>
        <time>2020-06-06T08:08:41Z</time>
      </trkpt>
      <trkpt lat="47.44893" lon="-2.29835">
        <ele>8.4</ele>
        <time>2020-06-06T08:08:42Z</time>
      </trkpt>
      <trkpt lat="47.44892" lon="-2.29845">
        <ele>8.4</ele>
        <time>2020-06-06T08:08:43Z</time>
      </trkpt>
      <trkpt lat="47.44892" lon="-2.29854">
        <ele>8.3</ele>
        <time>2020-06-06T08:08:44Z</time>
      </trkpt>
      <trkpt lat="47.44892" lon="-2.29863">
        <ele>8.2</ele>
        <time>2020-06-06T08:08:45Z</time>
      </trkpt>
      <trkpt lat="47.44892" lon="-2.29872">
        <ele>8.2</ele>
        <time>2020-06-06T08:08:46Z</time>
      </trkpt>
      <trkpt lat="47.44892" lon="-2.29882">
        <ele>8.1</ele>
        <time>2020-06-06T08:08:47Z</time>
      </trkpt>
      <trkpt lat="47.44892" lon="-2.29891">
        <ele>8.1</ele>
        <time>2020-06-06T08:08:48Z</time>
      </trkpt>
      <trkpt lat="47.44893" lon="-2.299">
        <ele>8.1</ele>
        <time>2020-06-06T08:08:49Z</time>
      </trkpt>
      <trkpt lat="47.44893" lon="-2.29908">
        <ele>8</ele>
        <time>2020-06-06T08:08:50Z</time>
      </trkpt>
      <trkpt lat="47.44895" lon="-2.29917">
        <ele>8</ele>
        <time>2020-06-06T08:08:51Z</time>
      </trkpt>
      <trkpt lat="47.44895" lon="-2.29926">
        <ele>7.9</ele>
        <time>2020-06-06T08:08:52Z</time>
      </trkpt>
      <trkpt lat="47.44895" lon="-2.29935">
        <ele>7.8</ele>
        <time>2020-06-06T08:08:53Z</time>
      </trkpt>
      <trkpt lat="47.44895" lon="-2.29943">
        <ele>7.8</ele>
        <time>2020-06-06T08:08:54Z</time>
      </trkpt>
      <trkpt lat="47.44895" lon="-2.29952">
        <ele>7.7</ele>
        <time>2020-06-06T08:08:55Z</time>
      </trkpt>
      <trkpt lat="47.44894" lon="-2.29959">
        <ele>7.6</ele>
        <time>2020-06-06T08:08:56Z</time>
      </trkpt>
      <trkpt lat="47.44896" lon="-2.29967">
        <ele>7.5</ele>
        <time>2020-06-06T08:08:57Z</time>
      </trkpt>
      <trkpt lat="47.44895" lon="-2.29976">
        <ele>7.4</ele>
        <time>2020-06-06T08:08:58Z</time>
      </trkpt>
      <trkpt lat="47.44896" lon="-2.29985">
        <ele>7.3</ele>
        <time>2020-06-06T08:08:59Z</time>
      </trkpt>
      <trkpt lat="47.44897" lon="-2.29994">
        <ele>7.2</ele>
        <time>2020-06-06T08:09:00Z</time>
      </trkpt>
      <trkpt lat="47.44898" lon="-2.30003">
        <ele>7</ele>
        <time>2020-06-06T08:09:01Z</time>
      </trkpt>
      <trkpt lat="47.44898" lon="-2.30012">
        <ele>6.9</ele>
        <time>2020-06-06T08:09:02Z</time>
      </trkpt>
      <trkpt lat="47.44898" lon="-2.30022">
        <ele>6.8</ele>
        <time>2020-06-06T08:09:03Z</time>
      </trkpt>
      <trkpt lat="47.44898" lon="-2.30032">
        <ele>6.7</ele>
        <time>2020-06-06T08:09:04Z</time>
      </trkpt>
      <trkpt lat="47.44898" lon="-2.30042">
        <ele>6.6</ele>
        <time>2020-06-06T08:09:05Z</time>
      </trkpt>
      <trkpt lat="47.44898" lon="-2.30051">
        <ele>6.5</ele>
        <time>2020-06-06T08:09:06Z</time>
      </trkpt>
      <trkpt lat="47.44899" lon="-2.3006">
        <ele>6.4</ele>
        <time>2020-06-06T08:09:07Z</time>
      </trkpt>
      <trkpt lat="47.44899" lon="-2.3007">
        <ele>6.3</ele>
        <time>2020-06-06T08:09:08Z</time>
      </trkpt>
      <trkpt lat="47.44899" lon="-2.3008">
        <ele>6.2</ele>
        <time>2020-06-06T08:09:09Z</time>
      </trkpt>
      <trkpt lat="47.44899" lon="-2.3009">
        <ele>6</ele>
        <time>2020-06-06T08:09:10Z</time>
      </trkpt>
      <trkpt lat="47.44899" lon="-2.301">
        <ele>5.9</ele>
        <time>2020-06-06T08:09:11Z</time>
      </trkpt>
      <trkpt lat="47.44899" lon="-2.3011">
        <ele>5.8</ele>
        <time>2020-06-06T08:09:12Z</time>
      </trkpt>
      <trkpt lat="47.44899" lon="-2.30121">
        <ele>5.8</ele>
        <time>2020-06-06T08:09:13Z</time>
      </trkpt>
      <trkpt lat="47.449" lon="-2.30132">
        <ele>5.7</ele>
        <time>2020-06-06T08:09:14Z</time>
      </trkpt>
      <trkpt lat="47.449" lon="-2.30141">
        <ele>5.7</ele>
        <time>2020-06-06T08:09:15Z</time>
      </trkpt>
      <trkpt lat="47.44901" lon="-2.30151">
        <ele>5.6</ele>
        <time>2020-06-06T08:09:16Z</time>
      </trkpt>
      <trkpt lat="47.44902" lon="-2.30161">
        <ele>5.5</ele>
        <time>2020-06-06T08:09:17Z</time>
      </trkpt>
      <trkpt lat="47.44902" lon="-2.30171">
        <ele>5.5</ele>
        <time>2020-06-06T08:09:18Z</time>
      </trkpt>
      <trkpt lat="47.44903" lon="-2.3018">
        <ele>5.5</ele>
        <time>2020-06-06T08:09:19Z</time>
      </trkpt>
      <trkpt lat="47.44903" lon="-2.30189">
        <ele>5.4</ele>
        <time>2020-06-06T08:09:20Z</time>
      </trkpt>
      <trkpt lat="47.44904" lon="-2.30199">
        <ele>5.5</ele>
        <time>2020-06-06T08:09:21Z</time>
      </trkpt>
      <trkpt lat="47.44905" lon="-2.30208">
        <ele>5.3</ele>
        <time>2020-06-06T08:09:22Z</time>
      </trkpt>
      <trkpt lat="47.44905" lon="-2.30217">
        <ele>5.2</ele>
        <time>2020-06-06T08:09:23Z</time>
      </trkpt>
      <trkpt lat="47.44905" lon="-2.30226">
        <ele>5.1</ele>
        <time>2020-06-06T08:09:24Z</time>
      </trkpt>
      <trkpt lat="47.44906" lon="-2.30236">
        <ele>5.1</ele>
        <time>2020-06-06T08:09:25Z</time>
      </trkpt>
      <trkpt lat="47.44907" lon="-2.30245">
        <ele>5</ele>
        <time>2020-06-06T08:09:26Z</time>
      </trkpt>
      <trkpt lat="47.44908" lon="-2.30256">
        <ele>5</ele>
        <time>2020-06-06T08:09:27Z</time>
      </trkpt>
      <trkpt lat="47.44908" lon="-2.30265">
        <ele>5</ele>
        <time>2020-06-06T08:09:28Z</time>
      </trkpt>
      <trkpt lat="47.44909" lon="-2.30275">
        <ele>5</ele>
        <time>2020-06-06T08:09:29Z</time>
      </trkpt>
      <trkpt lat="47.44909" lon="-2.30285">
        <ele>5</ele>
        <time>2020-06-06T08:09:30Z</time>
      </trkpt>
      <trkpt lat="47.44909" lon="-2.30295">
        <ele>5</ele>
        <time>2020-06-06T08:09:31Z</time>
      </trkpt>
      <trkpt lat="47.4491" lon="-2.30304">
        <ele>5</ele>
        <time>2020-06-06T08:09:32Z</time>
      </trkpt>
      <trkpt lat="47.4491" lon="-2.30315">
        <ele>5</ele>
        <time>2020-06-06T08:09:33Z</time>
      </trkpt>
      <trkpt lat="47.44911" lon="-2.30325">
        <ele>5</ele>
        <time>2020-06-06T08:09:34Z</time>
      </trkpt>
      <trkpt lat="47.4491" lon="-2.30334">
        <ele>5</ele>
        <time>2020-06-06T08:09:35Z</time>
      </trkpt>
      <trkpt lat="47.44911" lon="-2.30344">
        <ele>5</ele>
        <time>2020-06-06T08:09:36Z</time>
      </trkpt>
      <trkpt lat="47.44911" lon="-2.30354">
        <ele>5.1</ele>
        <time>2020-06-06T08:09:37Z</time>
      </trkpt>
      <trkpt lat="47.44911" lon="-2.30364">
        <ele>5.1</ele>
        <time>2020-06-06T08:09:38Z</time>
      </trkpt>
      <trkpt lat="47.44911" lon="-2.30373">
        <ele>5.1</ele>
        <time>2020-06-06T08:09:39Z</time>
      </trkpt>
      <trkpt lat="47.44911" lon="-2.30383">
        <ele>5.2</ele>
        <time>2020-06-06T08:09:40Z</time>
      </trkpt>
      <trkpt lat="47.44911" lon="-2.30392">
        <ele>5.2</ele>
        <time>2020-06-06T08:09:41Z</time>
      </trkpt>
      <trkpt lat="47.44911" lon="-2.30401">
        <ele>5.2</ele>
        <time>2020-06-06T08:09:42Z</time>
      </trkpt>
      <trkpt lat="47.44912" lon="-2.3041">
        <ele>5.3</ele>
        <time>2020-06-06T08:09:43Z</time>
      </trkpt>
      <trkpt lat="47.44912" lon="-2.30419">
        <ele>5.3</ele>
        <time>2020-06-06T08:09:44Z</time>
      </trkpt>
      <trkpt lat="47.44912" lon="-2.30429">
        <ele>5.3</ele>
        <time>2020-06-06T08:09:45Z</time>
      </trkpt>
      <trkpt lat="47.44913" lon="-2.30439">
        <ele>5.4</ele>
        <time>2020-06-06T08:09:46Z</time>
      </trkpt>
      <trkpt lat="47.44913" lon="-2.30448">
        <ele>5.4</ele>
        <time>2020-06-06T08:09:47Z</time>
      </trkpt>
      <trkpt lat="47.44914" lon="-2.30458">
        <ele>5.4</ele>
        <time>2020-06-06T08:09:48Z</time>
      </trkpt>
      <trkpt lat="47.44914" lon="-2.30467">
        <ele>5.5</ele>
        <time>2020-06-06T08:09:49Z</time>
      </trkpt>
      <trkpt lat="47.44914" lon="-2.30476">
        <ele>5.5</ele>
        <time>2020-06-06T08:09:50Z</time>
      </trkpt>
      <trkpt lat="47.44915" lon="-2.30486">
        <ele>5.6</ele>
        <time>2020-06-06T08:09:51Z</time>
      </trkpt>
      <trkpt lat="47.44915" lon="-2.30495">
        <ele>5.6</ele>
        <time>2020-06-06T08:09:52Z</time>
      </trkpt>
      <trkpt lat="47.44915" lon="-2.30504">
        <ele>5.6</ele>
        <time>2020-06-06T08:09:53Z</time>
      </trkpt>
      <trkpt lat="47.44916" lon="-2.30513">
        <ele>5.6</ele>
        <time>2020-06-06T08:09:54Z</time>
      </trkpt>
      <trkpt lat="47.44916" lon="-2.30522">
        <ele>5.6</ele>
        <time>2020-06-06T08:09:55Z</time>
      </trkpt>
      <trkpt lat="47.44916" lon="-2.30531">
        <ele>5.6</ele>
        <time>2020-06-06T08:09:56Z</time>
      </trkpt>
      <trkpt lat="47.44917" lon="-2.30539">
        <ele>5.7</ele>
        <time>2020-06-06T08:09:57Z</time>
      </trkpt>
      <trkpt lat="47.44917" lon="-2.30548">
        <ele>5.7</ele>
        <time>2020-06-06T08:09:58Z</time>
      </trkpt>
      <trkpt lat="47.44918" lon="-2.30558">
        <ele>5.8</ele>
        <time>2020-06-06T08:09:59Z</time>
      </trkpt>
      <trkpt lat="47.44918" lon="-2.30568">
        <ele>5.9</ele>
        <time>2020-06-06T08:10:00Z</time>
      </trkpt>
      <trkpt lat="47.44918" lon="-2.30578">
        <ele>5.9</ele>
        <time>2020-06-06T08:10:01Z</time>
      </trkpt>
      <trkpt lat="47.44919" lon="-2.30587">
        <ele>5.9</ele>
        <time>2020-06-06T08:10:02Z</time>
      </trkpt>
      <trkpt lat="47.44918" lon="-2.30597">
        <ele>6</ele>
        <time>2020-06-06T08:10:03Z</time>
      </trkpt>
      <trkpt lat="47.44919" lon="-2.30606">
        <ele>6</ele>
        <time>2020-06-06T08:10:04Z</time>
      </trkpt>
      <trkpt lat="47.44919" lon="-2.30615">
        <ele>6</ele>
        <time>2020-06-06T08:10:05Z</time>
      </trkpt>
      <trkpt lat="47.44918" lon="-2.30625">
        <ele>6</ele>
        <time>2020-06-06T08:10:06Z</time>
      </trkpt>
      <trkpt lat="47.44919" lon="-2.30634">
        <ele>6.1</ele>
        <time>2020-06-06T08:10:07Z</time>
      </trkpt>
      <trkpt lat="47.4492" lon="-2.30643">
        <ele>6.1</ele>
        <time>2020-06-06T08:10:08Z</time>
      </trkpt>
      <trkpt lat="47.44921" lon="-2.30652">
        <ele>6.2</ele>
        <time>2020-06-06T08:10:09Z</time>
      </trkpt>
      <trkpt lat="47.44921" lon="-2.30661">
        <ele>6.2</ele>
        <time>2020-06-06T08:10:10Z</time>
      </trkpt>
      <trkpt lat="47.44922" lon="-2.3067">
        <ele>6.2</ele>
        <time>2020-06-06T08:10:11Z</time>
      </trkpt>
      <trkpt lat="47.44921" lon="-2.30679">
        <ele>6.2</ele>
        <time>2020-06-06T08:10:12Z</time>
      </trkpt>
      <trkpt lat="47.44921" lon="-2.30688">
        <ele>6.2</ele>
        <time>2020-06-06T08:10:13Z</time>
      </trkpt>
      <trkpt lat="47.44921" lon="-2.30697">
        <ele>6.3</ele>
        <time>2020-06-06T08:10:14Z</time>
      </trkpt>
      <trkpt lat="47.44922" lon="-2.30706">
        <ele>6.3</ele>
        <time>2020-06-06T08:10:15Z</time>
      </trkpt>
      <trkpt lat="47.44922" lon="-2.30715">
        <ele>6.3</ele>
        <time>2020-06-06T08:10:16Z</time>
      </trkpt>
      <trkpt lat="47.44922" lon="-2.30724">
        <ele>6.3</ele>
        <time>2020-06-06T08:10:17Z</time>
      </trkpt>
      <trkpt lat="47.44922" lon="-2.30734">
        <ele>6.3</ele>
        <time>2020-06-06T08:10:18Z</time>
      </trkpt>
      <trkpt lat="47.44922" lon="-2.30744">
        <ele>6.3</ele>
        <time>2020-06-06T08:10:19Z</time>
      </trkpt>
      <trkpt lat="47.44922" lon="-2.30754">
        <ele>6.3</ele>
        <time>2020-06-06T08:10:20Z</time>
      </trkpt>
      <trkpt lat="47.44922" lon="-2.30764">
        <ele>6.3</ele>
        <time>2020-06-06T08:10:21Z</time>
      </trkpt>
      <trkpt lat="47.44922" lon="-2.30774">
        <ele>6.3</ele>
        <time>2020-06-06T08:10:22Z</time>
      </trkpt>
      <trkpt lat="47.44922" lon="-2.30784">
        <ele>6.3</ele>
        <time>2020-06-06T08:10:23Z</time>
      </trkpt>
      <trkpt lat="47.44923" lon="-2.30794">
        <ele>6.4</ele>
        <time>2020-06-06T08:10:24Z</time>
      </trkpt>
      <trkpt lat="47.44923" lon="-2.30804">
        <ele>6.4</ele>
        <time>2020-06-06T08:10:25Z</time>
      </trkpt>
      <trkpt lat="47.44923" lon="-2.30814">
        <ele>6.4</ele>
        <time>2020-06-06T08:10:26Z</time>
      </trkpt>
      <trkpt lat="47.44923" lon="-2.30823">
        <ele>6.5</ele>
        <time>2020-06-06T08:10:27Z</time>
      </trkpt>
      <trkpt lat="47.44922" lon="-2.30833">
        <ele>6.5</ele>
        <time>2020-06-06T08:10:28Z</time>
      </trkpt>
      <trkpt lat="47.44922" lon="-2.30842">
        <ele>6.6</ele>
        <time>2020-06-06T08:10:29Z</time>
      </trkpt>
      <trkpt lat="47.44922" lon="-2.30851">
        <ele>6.7</ele>
        <time>2020-06-06T08:10:30Z</time>
      </trkpt>
      <trkpt lat="47.44923" lon="-2.3086">
        <ele>6.8</ele>
        <time>2020-06-06T08:10:31Z</time>
      </trkpt>
      <trkpt lat="47.44923" lon="-2.30869">
        <ele>6.8</ele>
        <time>2020-06-06T08:10:32Z</time>
      </trkpt>
      <trkpt lat="47.44922" lon="-2.30878">
        <ele>6.9</ele>
        <time>2020-06-06T08:10:33Z</time>
      </trkpt>
      <trkpt lat="47.44923" lon="-2.30887">
        <ele>7</ele>
        <time>2020-06-06T08:10:34Z</time>
      </trkpt>
      <trkpt lat="47.44924" lon="-2.30896">
        <ele>7</ele>
        <time>2020-06-06T08:10:35Z</time>
      </trkpt>
      <trkpt lat="47.44924" lon="-2.30905">
        <ele>7.1</ele>
        <time>2020-06-06T08:10:36Z</time>
      </trkpt>
      <trkpt lat="47.44924" lon="-2.30913">
        <ele>7.2</ele>
        <time>2020-06-06T08:10:37Z</time>
      </trkpt>
      <trkpt lat="47.44925" lon="-2.30922">
        <ele>7.2</ele>
        <time>2020-06-06T08:10:38Z</time>
      </trkpt>
      <trkpt lat="47.44925" lon="-2.30931">
        <ele>7.3</ele>
        <time>2020-06-06T08:10:39Z</time>
      </trkpt>
      <trkpt lat="47.44926" lon="-2.30941">
        <ele>7.4</ele>
        <time>2020-06-06T08:10:40Z</time>
      </trkpt>
      <trkpt lat="47.44926" lon="-2.3095">
        <ele>7.4</ele>
        <time>2020-06-06T08:10:41Z</time>
      </trkpt>
      <trkpt lat="47.44925" lon="-2.30959">
        <ele>7.5</ele>
        <time>2020-06-06T08:10:42Z</time>
      </trkpt>
      <trkpt lat="47.44926" lon="-2.30967">
        <ele>7.6</ele>
        <time>2020-06-06T08:10:43Z</time>
      </trkpt>
      <trkpt lat="47.44926" lon="-2.30976">
        <ele>7.7</ele>
        <time>2020-06-06T08:10:44Z</time>
      </trkpt>
      <trkpt lat="47.44927" lon="-2.30984">
        <ele>7.7</ele>
        <time>2020-06-06T08:10:45Z</time>
      </trkpt>
      <trkpt lat="47.44927" lon="-2.30993">
        <ele>7.7</ele>
        <time>2020-06-06T08:10:46Z</time>
      </trkpt>
      <trkpt lat="47.44927" lon="-2.31002">
        <ele>7.8</ele>
        <time>2020-06-06T08:10:47Z</time>
      </trkpt>
      <trkpt lat="47.44928" lon="-2.3101">
        <ele>7.8</ele>
        <time>2020-06-06T08:10:48Z</time>
      </trkpt>
      <trkpt lat="47.44928" lon="-2.31018">
        <ele>7.9</ele>
        <time>2020-06-06T08:10:49Z</time>
      </trkpt>
      <trkpt lat="47.44928" lon="-2.31026">
        <ele>7.9</ele>
        <time>2020-06-06T08:10:50Z</time>
      </trkpt>
      <trkpt lat="47.44929" lon="-2.31035">
        <ele>8</ele>
        <time>2020-06-06T08:10:51Z</time>
      </trkpt>
      <trkpt lat="47.44929" lon="-2.31043">
        <ele>8</ele>
        <time>2020-06-06T08:10:52Z</time>
      </trkpt>
      <trkpt lat="47.44929" lon="-2.31051">
        <ele>8.1</ele>
        <time>2020-06-06T08:10:53Z</time>
      </trkpt>
      <trkpt lat="47.44929" lon="-2.31059">
        <ele>8.1</ele>
        <time>2020-06-06T08:10:54Z</time>
      </trkpt>
      <trkpt lat="47.4493" lon="-2.31067">
        <ele>8.2</ele>
        <time>2020-06-06T08:10:55Z</time>
      </trkpt>
      <trkpt lat="47.44929" lon="-2.31074">
        <ele>8.2</ele>
        <time>2020-06-06T08:10:56Z</time>
      </trkpt>
      <trkpt lat="47.44929" lon="-2.31082">
        <ele>8.2</ele>
        <time>2020-06-06T08:10:57Z</time>
      </trkpt>
      <trkpt lat="47.44928" lon="-2.31089">
        <ele>8.3</ele>
        <time>2020-06-06T08:10:58Z</time>
      </trkpt>
      <trkpt lat="47.44928" lon="-2.31096">
        <ele>8.3</ele>
        <time>2020-06-06T08:10:59Z</time>
      </trkpt>
      <trkpt lat="47.44929" lon="-2.31102">
        <ele>8.3</ele>
        <time>2020-06-06T08:11:00Z</time>
      </trkpt>
      <trkpt lat="47.4493" lon="-2.31109">
        <ele>8.3</ele>
        <time>2020-06-06T08:11:01Z</time>
      </trkpt>
      <trkpt lat="47.44929" lon="-2.31114">
        <ele>8.3</ele>
        <time>2020-06-06T08:11:02Z</time>
      </trkpt>
      <trkpt lat="47.44928" lon="-2.31119">
        <ele>8.3</ele>
        <time>2020-06-06T08:11:03Z</time>
      </trkpt>
      <trkpt lat="47.44927" lon="-2.31123">
        <ele>8.3</ele>
        <time>2020-06-06T08:11:04Z</time>
      </trkpt>
      <trkpt lat="47.44927" lon="-2.31124">
        <ele>8.3</ele>
        <time>2020-06-06T08:11:05Z</time>
      </trkpt>
      <trkpt lat="47.44926" lon="-2.31126">
        <ele>8.3</ele>
        <time>2020-06-06T08:11:06Z</time>
      </trkpt>
      <trkpt lat="47.44924" lon="-2.31127">
        <ele>8.3</ele>
        <time>2020-06-06T08:11:07Z</time>
      </trkpt>
      <trkpt lat="47.44923" lon="-2.3113">
        <ele>8.3</ele>
        <time>2020-06-06T08:11:08Z</time>
      </trkpt>
      <trkpt lat="47.44923" lon="-2.31132">
        <ele>8.3</ele>
        <time>2020-06-06T08:11:09Z</time>
      </trkpt>
      <trkpt lat="47.44922" lon="-2.31133">
        <ele>8.3</ele>
        <time>2020-06-06T08:11:10Z</time>
      </trkpt>
      <trkpt lat="47.44922" lon="-2.31133">
        <ele>8.3</ele>
        <time>2020-06-06T08:11:11Z</time>
      </trkpt>
      <trkpt lat="47.44922" lon="-2.31133">
        <ele>8.3</ele>
        <time>2020-06-06T08:11:12Z</time>
      </trkpt>
      <trkpt lat="47.44922" lon="-2.31133">
        <ele>8.3</ele>
        <time>2020-06-06T08:11:13Z</time>
      </trkpt>
      <trkpt lat="47.44922" lon="-2.31133">
        <ele>8.3</ele>
        <time>2020-06-06T08:11:14Z</time>
      </trkpt>
      <trkpt lat="47.44922" lon="-2.31133">
        <ele>8.3</ele>
        <time>2020-06-06T08:11:15Z</time>
      </trkpt>
      <trkpt lat="47.44921" lon="-2.31133">
        <ele>8.3</ele>
        <time>2020-06-06T08:11:16Z</time>
      </trkpt>
      <trkpt lat="47.44922" lon="-2.31134">
        <ele>8.3</ele>
        <time>2020-06-06T08:11:17Z</time>
      </trkpt>
      <trkpt lat="47.44921" lon="-2.31134">
        <ele>8.3</ele>
        <time>2020-06-06T08:11:18Z</time>
      </trkpt>
      <trkpt lat="47.44922" lon="-2.31134">
        <ele>8.3</ele>
        <time>2020-06-06T08:11:19Z</time>
      </trkpt>
      <trkpt lat="47.44921" lon="-2.31134">
        <ele>8.3</ele>
        <time>2020-06-06T08:11:20Z</time>
      </trkpt>
      <trkpt lat="47.44921" lon="-2.31134">
        <ele>8.3</ele>
        <time>2020-06-06T08:11:21Z</time>
      </trkpt>
      <trkpt lat="47.44933" lon="-2.31138">
        <ele>8.3</ele>
        <time>2020-06-06T08:14:00Z</time>
      </trkpt>
      <trkpt lat="47.44927" lon="-2.31136">
        <ele>8.4</ele>
        <time>2020-06-06T08:14:01Z</time>
      </trkpt>
      <trkpt lat="47.44924" lon="-2.3113">
        <ele>8.4</ele>
        <time>2020-06-06T08:14:02Z</time>
      </trkpt>
      <trkpt lat="47.44916" lon="-2.31132">
        <ele>8.4</ele>
        <time>2020-06-06T08:14:03Z</time>
      </trkpt>
      <trkpt lat="47.44915" lon="-2.31134">
        <ele>8.4</ele>
        <time>2020-06-06T08:14:04Z</time>
      </trkpt>
      <trkpt lat="47.44916" lon="-2.31135">
        <ele>8.4</ele>
        <time>2020-06-06T08:14:05Z</time>
      </trkpt>
      <trkpt lat="47.44917" lon="-2.31137">
        <ele>8.4</ele>
        <time>2020-06-06T08:14:06Z</time>
      </trkpt>
      <trkpt lat="47.44919" lon="-2.31139">
        <ele>8.4</ele>
        <time>2020-06-06T08:14:07Z</time>
      </trkpt>
      <trkpt lat="47.44928" lon="-2.31142">
        <ele>8.4</ele>
        <time>2020-06-06T08:14:08Z</time>
      </trkpt>
      <trkpt lat="47.4493" lon="-2.31141">
        <ele>8.4</ele>
        <time>2020-06-06T08:14:10Z</time>
      </trkpt>
      <trkpt lat="47.44931" lon="-2.31146">
        <ele>8.4</ele>
        <time>2020-06-06T08:14:11Z</time>
      </trkpt>
      <trkpt lat="47.44929" lon="-2.31149">
        <ele>8.4</ele>
        <time>2020-06-06T08:14:12Z</time>
      </trkpt>
      <trkpt lat="47.44928" lon="-2.31152">
        <ele>8.5</ele>
        <time>2020-06-06T08:14:13Z</time>
      </trkpt>
      <trkpt lat="47.44927" lon="-2.31154">
        <ele>8.5</ele>
        <time>2020-06-06T08:14:14Z</time>
      </trkpt>
      <trkpt lat="47.44928" lon="-2.31159">
        <ele>8.5</ele>
        <time>2020-06-06T08:14:15Z</time>
      </trkpt>
      <trkpt lat="47.44929" lon="-2.3116">
        <ele>8.5</ele>
        <time>2020-06-06T08:14:16Z</time>
      </trkpt>
      <trkpt lat="47.4493" lon="-2.31164">
        <ele>8.5</ele>
        <time>2020-06-06T08:14:17Z</time>
      </trkpt>
      <trkpt lat="47.4493" lon="-2.31168">
        <ele>8.5</ele>
        <time>2020-06-06T08:14:19Z</time>
      </trkpt>
      <trkpt lat="47.44929" lon="-2.31173">
        <ele>8.5</ele>
        <time>2020-06-06T08:14:20Z</time>
      </trkpt>
      <trkpt lat="47.44928" lon="-2.31177">
        <ele>8.5</ele>
        <time>2020-06-06T08:14:21Z</time>
      </trkpt>
      <trkpt lat="47.44929" lon="-2.31182">
        <ele>8.5</ele>
        <time>2020-06-06T08:14:22Z</time>
      </trkpt>
      <trkpt lat="47.4493" lon="-2.31188">
        <ele>8.5</ele>
        <time>2020-06-06T08:14:23Z</time>
      </trkpt>
      <trkpt lat="47.4493" lon="-2.31191">
        <ele>8.5</ele>
        <time>2020-06-06T08:14:24Z</time>
      </trkpt>
      <trkpt lat="47.44931" lon="-2.31196">
        <ele>8.5</ele>
        <time>2020-06-06T08:14:25Z</time>
      </trkpt>
      <trkpt lat="47.44931" lon="-2.31202">
        <ele>8.5</ele>
        <time>2020-06-06T08:14:26Z</time>
      </trkpt>
      <trkpt lat="47.44931" lon="-2.31209">
        <ele>8.5</ele>
        <time>2020-06-06T08:14:27Z</time>
      </trkpt>
      <trkpt lat="47.44932" lon="-2.31215">
        <ele>8.5</ele>
        <time>2020-06-06T08:14:28Z</time>
      </trkpt>
      <trkpt lat="47.44932" lon="-2.31222">
        <ele>8.5</ele>
        <time>2020-06-06T08:14:29Z</time>
      </trkpt>
      <trkpt lat="47.44931" lon="-2.31228">
        <ele>8.5</ele>
        <time>2020-06-06T08:14:30Z</time>
      </trkpt>
      <trkpt lat="47.44931" lon="-2.31234">
        <ele>8.5</ele>
        <time>2020-06-06T08:14:31Z</time>
      </trkpt>
      <trkpt lat="47.44931" lon="-2.31241">
        <ele>8.5</ele>
        <time>2020-06-06T08:14:32Z</time>
      </trkpt>
      <trkpt lat="47.44931" lon="-2.31246">
        <ele>8.5</ele>
        <time>2020-06-06T08:14:33Z</time>
      </trkpt>
      <trkpt lat="47.44931" lon="-2.31252">
        <ele>8.5</ele>
        <time>2020-06-06T08:14:34Z</time>
      </trkpt>
      <trkpt lat="47.44931" lon="-2.31258">
        <ele>8.5</ele>
        <time>2020-06-06T08:14:35Z</time>
      </trkpt>
      <trkpt lat="47.44932" lon="-2.31264">
        <ele>8.6</ele>
        <time>2020-06-06T08:14:36Z</time>
      </trkpt>
      <trkpt lat="47.44931" lon="-2.31268">
        <ele>8.6</ele>
        <time>2020-06-06T08:14:37Z</time>
      </trkpt>
      <trkpt lat="47.44931" lon="-2.31274">
        <ele>8.6</ele>
        <time>2020-06-06T08:14:38Z</time>
      </trkpt>
      <trkpt lat="47.44931" lon="-2.31276">
        <ele>8.6</ele>
        <time>2020-06-06T08:14:39Z</time>
      </trkpt>
      <trkpt lat="47.44931" lon="-2.3128">
        <ele>8.6</ele>
        <time>2020-06-06T08:14:40Z</time>
      </trkpt>
      <trkpt lat="47.44932" lon="-2.31283">
        <ele>8.6</ele>
        <time>2020-06-06T08:14:41Z</time>
      </trkpt>
      <trkpt lat="47.44932" lon="-2.31285">
        <ele>8.6</ele>
        <time>2020-06-06T08:14:42Z</time>
      </trkpt>
      <trkpt lat="47.44932" lon="-2.31286">
        <ele>8.6</ele>
        <time>2020-06-06T08:14:43Z</time>
      </trkpt>
      <trkpt lat="47.44934" lon="-2.31287">
        <ele>8.6</ele>
        <time>2020-06-06T08:14:44Z</time>
      </trkpt>
      <trkpt lat="47.44935" lon="-2.31288">
        <ele>8.6</ele>
        <time>2020-06-06T08:14:45Z</time>
      </trkpt>
      <trkpt lat="47.44937" lon="-2.31291">
        <ele>8.7</ele>
        <time>2020-06-06T08:14:46Z</time>
      </trkpt>
      <trkpt lat="47.4494" lon="-2.31293">
        <ele>8.7</ele>
        <time>2020-06-06T08:14:47Z</time>
      </trkpt>
      <trkpt lat="47.4494" lon="-2.31294">
        <ele>8.7</ele>
        <time>2020-06-06T08:14:48Z</time>
      </trkpt>
      <trkpt lat="47.44942" lon="-2.31299">
        <ele>8.7</ele>
        <time>2020-06-06T08:14:49Z</time>
      </trkpt>
      <trkpt lat="47.44944" lon="-2.31302">
        <ele>8.7</ele>
        <time>2020-06-06T08:14:50Z</time>
      </trkpt>
      <trkpt lat="47.44946" lon="-2.31312">
        <ele>8.8</ele>
        <time>2020-06-06T08:14:51Z</time>
      </trkpt>
      <trkpt lat="47.44947" lon="-2.31319">
        <ele>8.9</ele>
        <time>2020-06-06T08:14:52Z</time>
      </trkpt>
      <trkpt lat="47.44949" lon="-2.31324">
        <ele>8.9</ele>
        <time>2020-06-06T08:14:53Z</time>
      </trkpt>
      <trkpt lat="47.4495" lon="-2.31329">
        <ele>8.9</ele>
        <time>2020-06-06T08:14:54Z</time>
      </trkpt>
      <trkpt lat="47.44949" lon="-2.31335">
        <ele>8.9</ele>
        <time>2020-06-06T08:14:55Z</time>
      </trkpt>
      <trkpt lat="47.44948" lon="-2.31341">
        <ele>8.9</ele>
        <time>2020-06-06T08:14:56Z</time>
      </trkpt>
      <trkpt lat="47.44945" lon="-2.31347">
        <ele>8.9</ele>
        <time>2020-06-06T08:14:57Z</time>
      </trkpt>
      <trkpt lat="47.44943" lon="-2.31355">
        <ele>8.9</ele>
        <time>2020-06-06T08:14:58Z</time>
      </trkpt>
      <trkpt lat="47.4494" lon="-2.31363">
        <ele>9</ele>
        <time>2020-06-06T08:14:59Z</time>
      </trkpt>
      <trkpt lat="47.44938" lon="-2.31369">
        <ele>9.1</ele>
        <time>2020-06-06T08:15:00Z</time>
      </trkpt>
      <trkpt lat="47.44936" lon="-2.31374">
        <ele>9</ele>
        <time>2020-06-06T08:15:01Z</time>
      </trkpt>
      <trkpt lat="47.44934" lon="-2.3138">
        <ele>9.2</ele>
        <time>2020-06-06T08:15:02Z</time>
      </trkpt>
      <trkpt lat="47.44934" lon="-2.31387">
        <ele>9.3</ele>
        <time>2020-06-06T08:15:03Z</time>
      </trkpt>
      <trkpt lat="47.44934" lon="-2.31394">
        <ele>9.4</ele>
        <time>2020-06-06T08:15:04Z</time>
      </trkpt>
      <trkpt lat="47.44934" lon="-2.31404">
        <ele>9.6</ele>
        <time>2020-06-06T08:15:05Z</time>
      </trkpt>
      <trkpt lat="47.44934" lon="-2.31413">
        <ele>9.8</ele>
        <time>2020-06-06T08:15:06Z</time>
      </trkpt>
      <trkpt lat="47.44934" lon="-2.31421">
        <ele>10</ele>
        <time>2020-06-06T08:15:07Z</time>
      </trkpt>
      <trkpt lat="47.44935" lon="-2.31429">
        <ele>10.1</ele>
        <time>2020-06-06T08:15:08Z</time>
      </trkpt>
      <trkpt lat="47.44936" lon="-2.31435">
        <ele>10.3</ele>
        <time>2020-06-06T08:15:09Z</time>
      </trkpt>
      <trkpt lat="47.44935" lon="-2.31441">
        <ele>10.5</ele>
        <time>2020-06-06T08:15:10Z</time>
      </trkpt>
      <trkpt lat="47.44933" lon="-2.31448">
        <ele>10.7</ele>
        <time>2020-06-06T08:15:11Z</time>
      </trkpt>
      <trkpt lat="47.44933" lon="-2.31457">
        <ele>10.9</ele>
        <time>2020-06-06T08:15:12Z</time>
      </trkpt>
      <trkpt lat="47.44933" lon="-2.31465">
        <ele>11.2</ele>
        <time>2020-06-06T08:15:13Z</time>
      </trkpt>
      <trkpt lat="47.44933" lon="-2.31472">
        <ele>11.4</ele>
        <time>2020-06-06T08:15:14Z</time>
      </trkpt>
      <trkpt lat="47.44933" lon="-2.31479">
        <ele>11.6</ele>
        <time>2020-06-06T08:15:15Z</time>
      </trkpt>
      <trkpt lat="47.44933" lon="-2.31487">
        <ele>11.9</ele>
        <time>2020-06-06T08:15:16Z</time>
      </trkpt>
      <trkpt lat="47.44932" lon="-2.31495">
        <ele>12.2</ele>
        <time>2020-06-06T08:15:17Z</time>
      </trkpt>
      <trkpt lat="47.44932" lon="-2.31505">
        <ele>12.6</ele>
        <time>2020-06-06T08:15:18Z</time>
      </trkpt>
      <trkpt lat="47.44931" lon="-2.31515">
        <ele>13</ele>
        <time>2020-06-06T08:15:19Z</time>
      </trkpt>
      <trkpt lat="47.44931" lon="-2.31525">
        <ele>13.4</ele>
        <time>2020-06-06T08:15:20Z</time>
      </trkpt>
      <trkpt lat="47.4493" lon="-2.31534">
        <ele>13.8</ele>
        <time>2020-06-06T08:15:21Z</time>
      </trkpt>
      <trkpt lat="47.44929" lon="-2.31542">
        <ele>14.1</ele>
        <time>2020-06-06T08:15:22Z</time>
      </trkpt>
      <trkpt lat="47.44929" lon="-2.31551">
        <ele>14.5</ele>
        <time>2020-06-06T08:15:23Z</time>
      </trkpt>
      <trkpt lat="47.44929" lon="-2.31561">
        <ele>14.9</ele>
        <time>2020-06-06T08:15:24Z</time>
      </trkpt>
      <trkpt lat="47.44929" lon="-2.3157">
        <ele>15.3</ele>
        <time>2020-06-06T08:15:25Z</time>
      </trkpt>
      <trkpt lat="47.44929" lon="-2.31578">
        <ele>15.7</ele>
        <time>2020-06-06T08:15:26Z</time>
      </trkpt>
      <trkpt lat="47.44929" lon="-2.31589">
        <ele>16.2</ele>
        <time>2020-06-06T08:15:27Z</time>
      </trkpt>
      <trkpt lat="47.44929" lon="-2.31599">
        <ele>16.7</ele>
        <time>2020-06-06T08:15:28Z</time>
      </trkpt>
      <trkpt lat="47.4493" lon="-2.31608">
        <ele>17</ele>
        <time>2020-06-06T08:15:29Z</time>
      </trkpt>
      <trkpt lat="47.4493" lon="-2.31617">
        <ele>17.4</ele>
        <time>2020-06-06T08:15:30Z</time>
      </trkpt>
      <trkpt lat="47.4493" lon="-2.31625">
        <ele>17.8</ele>
        <time>2020-06-06T08:15:31Z</time>
      </trkpt>
      <trkpt lat="47.4493" lon="-2.31633">
        <ele>18.2</ele>
        <time>2020-06-06T08:15:32Z</time>
      </trkpt>
      <trkpt lat="47.44931" lon="-2.31639">
        <ele>18.4</ele>
        <time>2020-06-06T08:15:33Z</time>
      </trkpt>
      <trkpt lat="47.44931" lon="-2.31647">
        <ele>18.8</ele>
        <time>2020-06-06T08:15:34Z</time>
      </trkpt>
      <trkpt lat="47.4493" lon="-2.31655">
        <ele>19</ele>
        <time>2020-06-06T08:15:35Z</time>
      </trkpt>
      <trkpt lat="47.44931" lon="-2.31662">
        <ele>19.4</ele>
        <time>2020-06-06T08:15:36Z</time>
      </trkpt>
      <trkpt lat="47.44931" lon="-2.31669">
        <ele>19.6</ele>
        <time>2020-06-06T08:15:37Z</time>
      </trkpt>
      <trkpt lat="47.44931" lon="-2.31675">
        <ele>19.8</ele>
        <time>2020-06-06T08:15:38Z</time>
      </trkpt>
      <trkpt lat="47.44932" lon="-2.3168">
        <ele>20</ele>
        <time>2020-06-06T08:15:39Z</time>
      </trkpt>
      <trkpt lat="47.44932" lon="-2.31685">
        <ele>20.1</ele>
        <time>2020-06-06T08:15:40Z</time>
      </trkpt>
      <trkpt lat="47.44931" lon="-2.3169">
        <ele>20.2</ele>
        <time>2020-06-06T08:15:41Z</time>
      </trkpt>
      <trkpt lat="47.4493" lon="-2.31695">
        <ele>20.4</ele>
        <time>2020-06-06T08:15:42Z</time>
      </trkpt>
      <trkpt lat="47.4493" lon="-2.317">
        <ele>21</ele>
        <time>2020-06-06T08:15:43Z</time>
      </trkpt>
      <trkpt lat="47.44929" lon="-2.31705">
        <ele>21</ele>
        <time>2020-06-06T08:15:44Z</time>
      </trkpt>
      <trkpt lat="47.4493" lon="-2.31708">
        <ele>21</ele>
        <time>2020-06-06T08:15:45Z</time>
      </trkpt>
      <trkpt lat="47.44931" lon="-2.31709">
        <ele>21</ele>
        <time>2020-06-06T08:15:46Z</time>
      </trkpt>
      <trkpt lat="47.44935" lon="-2.31711">
        <ele>21</ele>
        <time>2020-06-06T08:15:47Z</time>
      </trkpt>
      <trkpt lat="47.44936" lon="-2.31711">
        <ele>21.2</ele>
        <time>2020-06-06T08:15:48Z</time>
      </trkpt>
      <trkpt lat="47.44939" lon="-2.31712">
        <ele>21.2</ele>
        <time>2020-06-06T08:15:49Z</time>
      </trkpt>
      <trkpt lat="47.4494" lon="-2.31712">
        <ele>21.2</ele>
        <time>2020-06-06T08:15:50Z</time>
      </trkpt>
      <trkpt lat="47.44943" lon="-2.31712">
        <ele>21.2</ele>
        <time>2020-06-06T08:15:51Z</time>
      </trkpt>
      <trkpt lat="47.44944" lon="-2.31713">
        <ele>21.2</ele>
        <time>2020-06-06T08:15:52Z</time>
      </trkpt>
      <trkpt lat="47.44946" lon="-2.31715">
        <ele>21.2</ele>
        <time>2020-06-06T08:15:53Z</time>
      </trkpt>
      <trkpt lat="47.44948" lon="-2.31719">
        <ele>21.2</ele>
        <time>2020-06-06T08:15:54Z</time>
      </trkpt>
      <trkpt lat="47.44949" lon="-2.3172">
        <ele>21.2</ele>
        <time>2020-06-06T08:15:55Z</time>
      </trkpt>
      <trkpt lat="47.44949" lon="-2.31722">
        <ele>21.2</ele>
        <time>2020-06-06T08:15:56Z</time>
      </trkpt>
      <trkpt lat="47.44949" lon="-2.31722">
        <ele>21.2</ele>
        <time>2020-06-06T08:15:57Z</time>
      </trkpt>
      <trkpt lat="47.44948" lon="-2.31723">
        <ele>21.2</ele>
        <time>2020-06-06T08:15:58Z</time>
      </trkpt>
      <trkpt lat="47.44947" lon="-2.31724">
        <ele>21.2</ele>
        <time>2020-06-06T08:15:59Z</time>
      </trkpt>
      <trkpt lat="47.44947" lon="-2.31725">
        <ele>21.2</ele>
        <time>2020-06-06T08:16:00Z</time>
      </trkpt>
      <trkpt lat="47.44946" lon="-2.31726">
        <ele>21.2</ele>
        <time>2020-06-06T08:16:01Z</time>
      </trkpt>
      <trkpt lat="47.44945" lon="-2.31726">
        <ele>21.2</ele>
        <time>2020-06-06T08:16:02Z</time>
      </trkpt>
      <trkpt lat="47.44942" lon="-2.31729">
        <ele>21.1</ele>
        <time>2020-06-06T08:16:03Z</time>
      </trkpt>
      <trkpt lat="47.44941" lon="-2.3173">
        <ele>21.1</ele>
        <time>2020-06-06T08:16:04Z</time>
      </trkpt>
      <trkpt lat="47.44938" lon="-2.31733">
        <ele>21.1</ele>
        <time>2020-06-06T08:16:05Z</time>
      </trkpt>
      <trkpt lat="47.44935" lon="-2.31736">
        <ele>21.2</ele>
        <time>2020-06-06T08:16:06Z</time>
      </trkpt>
      <trkpt lat="47.44932" lon="-2.3174">
        <ele>21.2</ele>
        <time>2020-06-06T08:16:07Z</time>
      </trkpt>
      <trkpt lat="47.4493" lon="-2.31745">
        <ele>21.3</ele>
        <time>2020-06-06T08:16:08Z</time>
      </trkpt>
      <trkpt lat="47.44928" lon="-2.31749">
        <ele>21.3</ele>
        <time>2020-06-06T08:16:09Z</time>
      </trkpt>
      <trkpt lat="47.44925" lon="-2.31752">
        <ele>21.3</ele>
        <time>2020-06-06T08:16:10Z</time>
      </trkpt>
      <trkpt lat="47.44924" lon="-2.31754">
        <ele>21.3</ele>
        <time>2020-06-06T08:16:11Z</time>
      </trkpt>
      <trkpt lat="47.44921" lon="-2.31756">
        <ele>21.4</ele>
        <time>2020-06-06T08:16:12Z</time>
      </trkpt>
      <trkpt lat="47.44918" lon="-2.31761">
        <ele>21.4</ele>
        <time>2020-06-06T08:16:13Z</time>
      </trkpt>
      <trkpt lat="47.44914" lon="-2.31765">
        <ele>21.4</ele>
        <time>2020-06-06T08:16:14Z</time>
      </trkpt>
      <trkpt lat="47.4491" lon="-2.31768">
        <ele>21.4</ele>
        <time>2020-06-06T08:16:15Z</time>
      </trkpt>
      <trkpt lat="47.44906" lon="-2.31772">
        <ele>21.4</ele>
        <time>2020-06-06T08:16:16Z</time>
      </trkpt>
      <trkpt lat="47.44902" lon="-2.31775">
        <ele>21.4</ele>
        <time>2020-06-06T08:16:17Z</time>
      </trkpt>
      <trkpt lat="47.44899" lon="-2.31778">
        <ele>21.3</ele>
        <time>2020-06-06T08:16:18Z</time>
      </trkpt>
      <trkpt lat="47.44895" lon="-2.31781">
        <ele>21.2</ele>
        <time>2020-06-06T08:16:19Z</time>
      </trkpt>
      <trkpt lat="47.44892" lon="-2.31785">
        <ele>21.1</ele>
        <time>2020-06-06T08:16:20Z</time>
      </trkpt>
      <trkpt lat="47.44888" lon="-2.31789">
        <ele>21</ele>
        <time>2020-06-06T08:16:21Z</time>
      </trkpt>
      <trkpt lat="47.44884" lon="-2.31794">
        <ele>21</ele>
        <time>2020-06-06T08:16:22Z</time>
      </trkpt>
      <trkpt lat="47.44881" lon="-2.31799">
        <ele>20.9</ele>
        <time>2020-06-06T08:16:23Z</time>
      </trkpt>
      <trkpt lat="47.44878" lon="-2.31802">
        <ele>20.8</ele>
        <time>2020-06-06T08:16:24Z</time>
      </trkpt>
      <trkpt lat="47.44875" lon="-2.31806">
        <ele>20.7</ele>
        <time>2020-06-06T08:16:25Z</time>
      </trkpt>
      <trkpt lat="47.44872" lon="-2.3181">
        <ele>20.6</ele>
        <time>2020-06-06T08:16:26Z</time>
      </trkpt>
      <trkpt lat="47.44869" lon="-2.31814">
        <ele>20.5</ele>
        <time>2020-06-06T08:16:27Z</time>
      </trkpt>
      <trkpt lat="47.44867" lon="-2.31818">
        <ele>20.5</ele>
        <time>2020-06-06T08:16:28Z</time>
      </trkpt>
      <trkpt lat="47.44865" lon="-2.31821">
        <ele>20.4</ele>
        <time>2020-06-06T08:16:29Z</time>
      </trkpt>
      <trkpt lat="47.44862" lon="-2.31824">
        <ele>20.3</ele>
        <time>2020-06-06T08:16:30Z</time>
      </trkpt>
      <trkpt lat="47.44859" lon="-2.31827">
        <ele>20.2</ele>
        <time>2020-06-06T08:16:31Z</time>
      </trkpt>
      <trkpt lat="47.44856" lon="-2.31829">
        <ele>20.1</ele>
        <time>2020-06-06T08:16:32Z</time>
      </trkpt>
      <trkpt lat="47.44854" lon="-2.31832">
        <ele>20</ele>
        <time>2020-06-06T08:16:33Z</time>
      </trkpt>
      <trkpt lat="47.44852" lon="-2.31835">
        <ele>20</ele>
        <time>2020-06-06T08:16:34Z</time>
      </trkpt>
      <trkpt lat="47.44852" lon="-2.31835">
        <ele>20</ele>
        <time>2020-06-06T08:16:35Z</time>
      </trkpt>
      <trkpt lat="47.44851" lon="-2.31837">
        <ele>19.9</ele>
        <time>2020-06-06T08:16:36Z</time>
      </trkpt>
      <trkpt lat="47.44851" lon="-2.31838">
        <ele>19.9</ele>
        <time>2020-06-06T08:16:37Z</time>
      </trkpt>
      <trkpt lat="47.44851" lon="-2.31838">
        <ele>19.9</ele>
        <time>2020-06-06T08:16:38Z</time>
      </trkpt>
      <trkpt lat="47.44851" lon="-2.31838">
        <ele>19.9</ele>
        <time>2020-06-06T08:16:39Z</time>
      </trkpt>
      <trkpt lat="47.44851" lon="-2.31839">
        <ele>19.9</ele>
        <time>2020-06-06T08:16:40Z</time>
      </trkpt>
      <trkpt lat="47.44851" lon="-2.31839">
        <ele>19.9</ele>
        <time>2020-06-06T08:16:41Z</time>
      </trkpt>
      <trkpt lat="47.4485" lon="-2.3184">
        <ele>19.9</ele>
        <time>2020-06-06T08:16:42Z</time>
      </trkpt>
      <trkpt lat="47.4485" lon="-2.31841">
        <ele>19.8</ele>
        <time>2020-06-06T08:16:43Z</time>
      </trkpt>
      <trkpt lat="47.44849" lon="-2.31841">
        <ele>19.8</ele>
        <time>2020-06-06T08:16:44Z</time>
      </trkpt>
      <trkpt lat="47.44848" lon="-2.3184">
        <ele>19.8</ele>
        <time>2020-06-06T08:16:45Z</time>
      </trkpt>
      <trkpt lat="47.44846" lon="-2.3184">
        <ele>19.8</ele>
        <time>2020-06-06T08:16:46Z</time>
      </trkpt>
      <trkpt lat="47.44846" lon="-2.3184">
        <ele>19.7</ele>
        <time>2020-06-06T08:16:47Z</time>
      </trkpt>
      <trkpt lat="47.44845" lon="-2.3184">
        <ele>19.7</ele>
        <time>2020-06-06T08:16:48Z</time>
      </trkpt>
      <trkpt lat="47.44842" lon="-2.31841">
        <ele>19.6</ele>
        <time>2020-06-06T08:16:49Z</time>
      </trkpt>
      <trkpt lat="47.44841" lon="-2.31842">
        <ele>19.6</ele>
        <time>2020-06-06T08:16:50Z</time>
      </trkpt>
      <trkpt lat="47.4484" lon="-2.31843">
        <ele>19.6</ele>
        <time>2020-06-06T08:16:51Z</time>
      </trkpt>
      <trkpt lat="47.44837" lon="-2.31844">
        <ele>19.5</ele>
        <time>2020-06-06T08:16:52Z</time>
      </trkpt>
      <trkpt lat="47.44832" lon="-2.31847">
        <ele>19.4</ele>
        <time>2020-06-06T08:16:53Z</time>
      </trkpt>
      <trkpt lat="47.4483" lon="-2.31847">
        <ele>19.3</ele>
        <time>2020-06-06T08:16:54Z</time>
      </trkpt>
      <trkpt lat="47.44829" lon="-2.31847">
        <ele>19.3</ele>
        <time>2020-06-06T08:16:55Z</time>
      </trkpt>
      <trkpt lat="47.44827" lon="-2.31847">
        <ele>19.2</ele>
        <time>2020-06-06T08:16:56Z</time>
      </trkpt>
      <trkpt lat="47.44826" lon="-2.31846">
        <ele>19.2</ele>
        <time>2020-06-06T08:16:57Z</time>
      </trkpt>
      <trkpt lat="47.44826" lon="-2.31847">
        <ele>19.2</ele>
        <time>2020-06-06T08:16:58Z</time>
      </trkpt>
      <trkpt lat="47.44825" lon="-2.31846">
        <ele>19.2</ele>
        <time>2020-06-06T08:16:59Z</time>
      </trkpt>
      <trkpt lat="47.44824" lon="-2.31845">
        <ele>19.1</ele>
        <time>2020-06-06T08:17:00Z</time>
      </trkpt>
      <trkpt lat="47.44823" lon="-2.31844">
        <ele>19.1</ele>
        <time>2020-06-06T08:17:01Z</time>
      </trkpt>
      <trkpt lat="47.44822" lon="-2.31841">
        <ele>19.1</ele>
        <time>2020-06-06T08:17:02Z</time>
      </trkpt>
      <trkpt lat="47.44821" lon="-2.3184">
        <ele>19</ele>
        <time>2020-06-06T08:17:03Z</time>
      </trkpt>
      <trkpt lat="47.44823" lon="-2.31838">
        <ele>19</ele>
        <time>2020-06-06T08:17:04Z</time>
      </trkpt>
      <trkpt lat="47.44825" lon="-2.31836">
        <ele>19</ele>
        <time>2020-06-06T08:17:05Z</time>
      </trkpt>
      <trkpt lat="47.44833" lon="-2.3185">
        <ele>19.4</ele>
        <time>2020-06-06T08:57:19Z</time>
      </trkpt>
      <trkpt lat="47.44834" lon="-2.3185">
        <ele>19.4</ele>
        <time>2020-06-06T08:57:20Z</time>
      </trkpt>
      <trkpt lat="47.44835" lon="-2.31849">
        <ele>19.4</ele>
        <time>2020-06-06T08:57:21Z</time>
      </trkpt>
      <trkpt lat="47.44836" lon="-2.31849">
        <ele>19.4</ele>
        <time>2020-06-06T08:57:22Z</time>
      </trkpt>
      <trkpt lat="47.44837" lon="-2.31849">
        <ele>19.5</ele>
        <time>2020-06-06T08:57:23Z</time>
      </trkpt>
      <trkpt lat="47.44838" lon="-2.31849">
        <ele>19.5</ele>
        <time>2020-06-06T08:57:24Z</time>
      </trkpt>
      <trkpt lat="47.44839" lon="-2.31848">
        <ele>19.5</ele>
        <time>2020-06-06T08:57:25Z</time>
      </trkpt>
      <trkpt lat="47.4484" lon="-2.31848">
        <ele>19.6</ele>
        <time>2020-06-06T08:57:26Z</time>
      </trkpt>
      <trkpt lat="47.44841" lon="-2.31848">
        <ele>19.6</ele>
        <time>2020-06-06T08:57:27Z</time>
      </trkpt>
      <trkpt lat="47.44842" lon="-2.31848">
        <ele>19.6</ele>
        <time>2020-06-06T08:57:28Z</time>
      </trkpt>
      <trkpt lat="47.44843" lon="-2.31848">
        <ele>19.6</ele>
        <time>2020-06-06T08:57:29Z</time>
      </trkpt>
      <trkpt lat="47.44844" lon="-2.31847">
        <ele>19.7</ele>
        <time>2020-06-06T08:59:15Z</time>
      </trkpt>
      <trkpt lat="47.44845" lon="-2.31847">
        <ele>19.7</ele>
        <time>2020-06-06T08:59:16Z</time>
      </trkpt>
      <trkpt lat="47.44848" lon="-2.31844">
        <ele>19.8</ele>
        <time>2020-06-06T08:59:17Z</time>
      </trkpt>
      <trkpt lat="47.44848" lon="-2.31844">
        <ele>19.8</ele>
        <time>2020-06-06T08:59:18Z</time>
      </trkpt>
      <trkpt lat="47.44852" lon="-2.3184">
        <ele>19.9</ele>
        <time>2020-06-06T08:59:19Z</time>
      </trkpt>
      <trkpt lat="47.44853" lon="-2.31838">
        <ele>20</ele>
        <time>2020-06-06T08:59:20Z</time>
      </trkpt>
      <trkpt lat="47.44856" lon="-2.31833">
        <ele>20.1</ele>
        <time>2020-06-06T08:59:21Z</time>
      </trkpt>
      <trkpt lat="47.44859" lon="-2.31829">
        <ele>20.2</ele>
        <time>2020-06-06T08:59:22Z</time>
      </trkpt>
      <trkpt lat="47.44862" lon="-2.31826">
        <ele>20.3</ele>
        <time>2020-06-06T08:59:23Z</time>
      </trkpt>
      <trkpt lat="47.44866" lon="-2.31823">
        <ele>20.4</ele>
        <time>2020-06-06T08:59:24Z</time>
      </trkpt>
      <trkpt lat="47.4487" lon="-2.31818">
        <ele>20.5</ele>
        <time>2020-06-06T08:59:25Z</time>
      </trkpt>
      <trkpt lat="47.44874" lon="-2.31813">
        <ele>20.6</ele>
        <time>2020-06-06T08:59:26Z</time>
      </trkpt>
      <trkpt lat="47.44878" lon="-2.31808">
        <ele>20.7</ele>
        <time>2020-06-06T08:59:27Z</time>
      </trkpt>
      <trkpt lat="47.44882" lon="-2.31803">
        <ele>20.8</ele>
        <time>2020-06-06T08:59:28Z</time>
      </trkpt>
      <trkpt lat="47.44885" lon="-2.318">
        <ele>20.9</ele>
        <time>2020-06-06T08:59:29Z</time>
      </trkpt>
      <trkpt lat="47.44888" lon="-2.31798">
        <ele>21</ele>
        <time>2020-06-06T08:59:30Z</time>
      </trkpt>
      <trkpt lat="47.44892" lon="-2.31795">
        <ele>21.1</ele>
        <time>2020-06-06T08:59:31Z</time>
      </trkpt>
      <trkpt lat="47.44896" lon="-2.31792">
        <ele>21.1</ele>
        <time>2020-06-06T08:59:32Z</time>
      </trkpt>
      <trkpt lat="47.449" lon="-2.31789">
        <ele>21.2</ele>
        <time>2020-06-06T08:59:33Z</time>
      </trkpt>
      <trkpt lat="47.44903" lon="-2.31787">
        <ele>21.3</ele>
        <time>2020-06-06T08:59:34Z</time>
      </trkpt>
      <trkpt lat="47.44906" lon="-2.31783">
        <ele>21.4</ele>
        <time>2020-06-06T08:59:35Z</time>
      </trkpt>
      <trkpt lat="47.44909" lon="-2.31781">
        <ele>21.4</ele>
        <time>2020-06-06T08:59:36Z</time>
      </trkpt>
      <trkpt lat="47.44912" lon="-2.31777">
        <ele>21.4</ele>
        <time>2020-06-06T08:59:37Z</time>
      </trkpt>
      <trkpt lat="47.44914" lon="-2.31776">
        <ele>21.4</ele>
        <time>2020-06-06T08:59:38Z</time>
      </trkpt>
      <trkpt lat="47.44915" lon="-2.31774">
        <ele>21.4</ele>
        <time>2020-06-06T08:59:39Z</time>
      </trkpt>
      <trkpt lat="47.44916" lon="-2.31773">
        <ele>21.4</ele>
        <time>2020-06-06T08:59:40Z</time>
      </trkpt>
      <trkpt lat="47.44917" lon="-2.31771">
        <ele>21.4</ele>
        <time>2020-06-06T08:59:41Z</time>
      </trkpt>
      <trkpt lat="47.44918" lon="-2.3177">
        <ele>21.4</ele>
        <time>2020-06-06T08:59:42Z</time>
      </trkpt>
      <trkpt lat="47.44918" lon="-2.3177">
        <ele>21.4</ele>
        <time>2020-06-06T08:59:43Z</time>
      </trkpt>
      <trkpt lat="47.44919" lon="-2.3177">
        <ele>21.4</ele>
        <time>2020-06-06T08:59:44Z</time>
      </trkpt>
      <trkpt lat="47.44922" lon="-2.31771">
        <ele>21.4</ele>
        <time>2020-06-06T08:59:45Z</time>
      </trkpt>
      <trkpt lat="47.44923" lon="-2.31771">
        <ele>21.4</ele>
        <time>2020-06-06T08:59:46Z</time>
      </trkpt>
      <trkpt lat="47.44925" lon="-2.31771">
        <ele>21.4</ele>
        <time>2020-06-06T08:59:47Z</time>
      </trkpt>
      <trkpt lat="47.44926" lon="-2.31771">
        <ele>21.4</ele>
        <time>2020-06-06T08:59:48Z</time>
      </trkpt>
      <trkpt lat="47.4493" lon="-2.3177">
        <ele>21.3</ele>
        <time>2020-06-06T08:59:49Z</time>
      </trkpt>
      <trkpt lat="47.44931" lon="-2.31769">
        <ele>21.3</ele>
        <time>2020-06-06T08:59:50Z</time>
      </trkpt>
      <trkpt lat="47.44934" lon="-2.31766">
        <ele>21.3</ele>
        <time>2020-06-06T08:59:51Z</time>
      </trkpt>
      <trkpt lat="47.44938" lon="-2.31761">
        <ele>21.2</ele>
        <time>2020-06-06T08:59:52Z</time>
      </trkpt>
      <trkpt lat="47.4494" lon="-2.31758">
        <ele>21.2</ele>
        <time>2020-06-06T08:59:53Z</time>
      </trkpt>
      <trkpt lat="47.44943" lon="-2.31755">
        <ele>21.1</ele>
        <time>2020-06-06T08:59:54Z</time>
      </trkpt>
      <trkpt lat="47.44945" lon="-2.31752">
        <ele>21.1</ele>
        <time>2020-06-06T08:59:55Z</time>
      </trkpt>
      <trkpt lat="47.44946" lon="-2.31751">
        <ele>21.1</ele>
        <time>2020-06-06T08:59:56Z</time>
      </trkpt>
      <trkpt lat="47.44948" lon="-2.31747">
        <ele>21.1</ele>
        <time>2020-06-06T08:59:57Z</time>
      </trkpt>
      <trkpt lat="47.44949" lon="-2.31745">
        <ele>21</ele>
        <time>2020-06-06T08:59:58Z</time>
      </trkpt>
      <trkpt lat="47.44952" lon="-2.31743">
        <ele>20.9</ele>
        <time>2020-06-06T08:59:59Z</time>
      </trkpt>
      <trkpt lat="47.44953" lon="-2.31742">
        <ele>20.8</ele>
        <time>2020-06-06T09:00:00Z</time>
      </trkpt>
      <trkpt lat="47.44956" lon="-2.31741">
        <ele>20.7</ele>
        <time>2020-06-06T09:00:01Z</time>
      </trkpt>
      <trkpt lat="47.44957" lon="-2.31741">
        <ele>20.6</ele>
        <time>2020-06-06T09:00:02Z</time>
      </trkpt>
      <trkpt lat="47.44961" lon="-2.31739">
        <ele>20.5</ele>
        <time>2020-06-06T09:00:03Z</time>
      </trkpt>
      <trkpt lat="47.44962" lon="-2.31738">
        <ele>20.4</ele>
        <time>2020-06-06T09:00:04Z</time>
      </trkpt>
      <trkpt lat="47.44964" lon="-2.31736">
        <ele>20.3</ele>
        <time>2020-06-06T09:00:05Z</time>
      </trkpt>
      <trkpt lat="47.44965" lon="-2.31735">
        <ele>20.2</ele>
        <time>2020-06-06T09:00:06Z</time>
      </trkpt>
      <trkpt lat="47.44968" lon="-2.31734">
        <ele>20.1</ele>
        <time>2020-06-06T09:00:07Z</time>
      </trkpt>
      <trkpt lat="47.44969" lon="-2.31734">
        <ele>20.1</ele>
        <time>2020-06-06T09:00:08Z</time>
      </trkpt>
      <trkpt lat="47.44972" lon="-2.31735">
        <ele>20</ele>
        <time>2020-06-06T09:00:09Z</time>
      </trkpt>
      <trkpt lat="47.44976" lon="-2.31736">
        <ele>19.8</ele>
        <time>2020-06-06T09:00:10Z</time>
      </trkpt>
      <trkpt lat="47.4498" lon="-2.31736">
        <ele>19.7</ele>
        <time>2020-06-06T09:00:11Z</time>
      </trkpt>
      <trkpt lat="47.44983" lon="-2.31737">
        <ele>19.5</ele>
        <time>2020-06-06T09:00:12Z</time>
      </trkpt>
      <trkpt lat="47.44986" lon="-2.31737">
        <ele>19.4</ele>
        <time>2020-06-06T09:00:13Z</time>
      </trkpt>
      <trkpt lat="47.44989" lon="-2.31738">
        <ele>19.3</ele>
        <time>2020-06-06T09:00:14Z</time>
      </trkpt>
      <trkpt lat="47.44993" lon="-2.31738">
        <ele>19.2</ele>
        <time>2020-06-06T09:00:15Z</time>
      </trkpt>
      <trkpt lat="47.44997" lon="-2.31738">
        <ele>19</ele>
        <time>2020-06-06T09:00:16Z</time>
      </trkpt>
      <trkpt lat="47.45001" lon="-2.31738">
        <ele>18.8</ele>
        <time>2020-06-06T09:00:17Z</time>
      </trkpt>
      <trkpt lat="47.45005" lon="-2.31737">
        <ele>18.6</ele>
        <time>2020-06-06T09:00:18Z</time>
      </trkpt>
      <trkpt lat="47.45009" lon="-2.31736">
        <ele>18.5</ele>
        <time>2020-06-06T09:00:19Z</time>
      </trkpt>
      <trkpt lat="47.45013" lon="-2.31736">
        <ele>18.3</ele>
        <time>2020-06-06T09:00:20Z</time>
      </trkpt>
      <trkpt lat="47.45017" lon="-2.31737">
        <ele>18.1</ele>
        <time>2020-06-06T09:00:21Z</time>
      </trkpt>
      <trkpt lat="47.45021" lon="-2.31736">
        <ele>18</ele>
        <time>2020-06-06T09:00:22Z</time>
      </trkpt>
      <trkpt lat="47.45023" lon="-2.31736">
        <ele>17.9</ele>
        <time>2020-06-06T09:00:23Z</time>
      </trkpt>
      <trkpt lat="47.45026" lon="-2.31738">
        <ele>17.7</ele>
        <time>2020-06-06T09:00:24Z</time>
      </trkpt>
      <trkpt lat="47.45029" lon="-2.31742">
        <ele>17.5</ele>
        <time>2020-06-06T09:00:25Z</time>
      </trkpt>
      <trkpt lat="47.45031" lon="-2.31747">
        <ele>17.4</ele>
        <time>2020-06-06T09:00:26Z</time>
      </trkpt>
      <trkpt lat="47.45032" lon="-2.3175">
        <ele>17.2</ele>
        <time>2020-06-06T09:00:27Z</time>
      </trkpt>
      <trkpt lat="47.45034" lon="-2.31755">
        <ele>17.1</ele>
        <time>2020-06-06T09:00:28Z</time>
      </trkpt>
      <trkpt lat="47.45035" lon="-2.3176">
        <ele>17</ele>
        <time>2020-06-06T09:00:29Z</time>
      </trkpt>
      <trkpt lat="47.45037" lon="-2.31764">
        <ele>16.8</ele>
        <time>2020-06-06T09:00:30Z</time>
      </trkpt>
      <trkpt lat="47.45038" lon="-2.31768">
        <ele>16.7</ele>
        <time>2020-06-06T09:00:31Z</time>
      </trkpt>
      <trkpt lat="47.4504" lon="-2.31772">
        <ele>16.6</ele>
        <time>2020-06-06T09:00:32Z</time>
      </trkpt>
      <trkpt lat="47.45041" lon="-2.31776">
        <ele>16.5</ele>
        <time>2020-06-06T09:00:33Z</time>
      </trkpt>
      <trkpt lat="47.45042" lon="-2.3178">
        <ele>16.5</ele>
        <time>2020-06-06T09:00:34Z</time>
      </trkpt>
      <trkpt lat="47.45044" lon="-2.31784">
        <ele>16.4</ele>
        <time>2020-06-06T09:00:35Z</time>
      </trkpt>
      <trkpt lat="47.45046" lon="-2.31789">
        <ele>16.3</ele>
        <time>2020-06-06T09:00:36Z</time>
      </trkpt>
      <trkpt lat="47.45048" lon="-2.31796">
        <ele>16.2</ele>
        <time>2020-06-06T09:00:37Z</time>
      </trkpt>
      <trkpt lat="47.45051" lon="-2.31802">
        <ele>16.2</ele>
        <time>2020-06-06T09:00:38Z</time>
      </trkpt>
      <trkpt lat="47.45054" lon="-2.31809">
        <ele>16.1</ele>
        <time>2020-06-06T09:00:39Z</time>
      </trkpt>
      <trkpt lat="47.45055" lon="-2.31816">
        <ele>16.1</ele>
        <time>2020-06-06T09:00:40Z</time>
      </trkpt>
      <trkpt lat="47.45057" lon="-2.31822">
        <ele>16</ele>
        <time>2020-06-06T09:00:41Z</time>
      </trkpt>
      <trkpt lat="47.45059" lon="-2.31828">
        <ele>15.9</ele>
        <time>2020-06-06T09:00:42Z</time>
      </trkpt>
      <trkpt lat="47.45061" lon="-2.31834">
        <ele>15.9</ele>
        <time>2020-06-06T09:00:43Z</time>
      </trkpt>
      <trkpt lat="47.45065" lon="-2.3184">
        <ele>15.9</ele>
        <time>2020-06-06T09:00:44Z</time>
      </trkpt>
      <trkpt lat="47.45068" lon="-2.31846">
        <ele>15.9</ele>
        <time>2020-06-06T09:00:45Z</time>
      </trkpt>
      <trkpt lat="47.45071" lon="-2.31853">
        <ele>15.9</ele>
        <time>2020-06-06T09:00:46Z</time>
      </trkpt>
      <trkpt lat="47.45073" lon="-2.3186">
        <ele>15.9</ele>
        <time>2020-06-06T09:00:47Z</time>
      </trkpt>
      <trkpt lat="47.45076" lon="-2.31867">
        <ele>15.9</ele>
        <time>2020-06-06T09:00:48Z</time>
      </trkpt>
      <trkpt lat="47.45078" lon="-2.31874">
        <ele>16</ele>
        <time>2020-06-06T09:00:49Z</time>
      </trkpt>
      <trkpt lat="47.45081" lon="-2.31882">
        <ele>15.9</ele>
        <time>2020-06-06T09:00:50Z</time>
      </trkpt>
      <trkpt lat="47.45084" lon="-2.31889">
        <ele>15.9</ele>
        <time>2020-06-06T09:00:51Z</time>
      </trkpt>
      <trkpt lat="47.45088" lon="-2.31895">
        <ele>15.9</ele>
        <time>2020-06-06T09:00:52Z</time>
      </trkpt>
      <trkpt lat="47.45092" lon="-2.31901">
        <ele>15.9</ele>
        <time>2020-06-06T09:00:53Z</time>
      </trkpt>
      <trkpt lat="47.45096" lon="-2.31906">
        <ele>15.9</ele>
        <time>2020-06-06T09:00:54Z</time>
      </trkpt>
      <trkpt lat="47.45101" lon="-2.31911">
        <ele>15.9</ele>
        <time>2020-06-06T09:00:55Z</time>
      </trkpt>
      <trkpt lat="47.45105" lon="-2.31915">
        <ele>16</ele>
        <time>2020-06-06T09:00:56Z</time>
      </trkpt>
      <trkpt lat="47.4511" lon="-2.3192">
        <ele>16</ele>
        <time>2020-06-06T09:00:57Z</time>
      </trkpt>
      <trkpt lat="47.45115" lon="-2.31923">
        <ele>16.1</ele>
        <time>2020-06-06T09:00:58Z</time>
      </trkpt>
      <trkpt lat="47.45119" lon="-2.31926">
        <ele>16.1</ele>
        <time>2020-06-06T09:00:59Z</time>
      </trkpt>
      <trkpt lat="47.45124" lon="-2.31929">
        <ele>16.1</ele>
        <time>2020-06-06T09:01:00Z</time>
      </trkpt>
      <trkpt lat="47.45128" lon="-2.31933">
        <ele>16.1</ele>
        <time>2020-06-06T09:01:01Z</time>
      </trkpt>
      <trkpt lat="47.45133" lon="-2.31936">
        <ele>16.2</ele>
        <time>2020-06-06T09:01:02Z</time>
      </trkpt>
      <trkpt lat="47.45137" lon="-2.3194">
        <ele>16.2</ele>
        <time>2020-06-06T09:01:03Z</time>
      </trkpt>
      <trkpt lat="47.45142" lon="-2.31944">
        <ele>16.2</ele>
        <time>2020-06-06T09:01:04Z</time>
      </trkpt>
      <trkpt lat="47.45146" lon="-2.31949">
        <ele>16.2</ele>
        <time>2020-06-06T09:01:05Z</time>
      </trkpt>
      <trkpt lat="47.45151" lon="-2.31953">
        <ele>16.3</ele>
        <time>2020-06-06T09:01:06Z</time>
      </trkpt>
      <trkpt lat="47.45156" lon="-2.31957">
        <ele>16.3</ele>
        <time>2020-06-06T09:01:07Z</time>
      </trkpt>
      <trkpt lat="47.4516" lon="-2.31962">
        <ele>16.3</ele>
        <time>2020-06-06T09:01:08Z</time>
      </trkpt>
      <trkpt lat="47.45163" lon="-2.31967">
        <ele>16.4</ele>
        <time>2020-06-06T09:01:09Z</time>
      </trkpt>
      <trkpt lat="47.45166" lon="-2.31971">
        <ele>16.5</ele>
        <time>2020-06-06T09:01:10Z</time>
      </trkpt>
      <trkpt lat="47.45169" lon="-2.31974">
        <ele>16.5</ele>
        <time>2020-06-06T09:01:11Z</time>
      </trkpt>
      <trkpt lat="47.4517" lon="-2.31976">
        <ele>16.5</ele>
        <time>2020-06-06T09:01:12Z</time>
      </trkpt>
      <trkpt lat="47.45171" lon="-2.31977">
        <ele>16.6</ele>
        <time>2020-06-06T09:01:13Z</time>
      </trkpt>
      <trkpt lat="47.45172" lon="-2.31977">
        <ele>16.6</ele>
        <time>2020-06-06T09:01:14Z</time>
      </trkpt>
      <trkpt lat="47.45173" lon="-2.31978">
        <ele>16.6</ele>
        <time>2020-06-06T09:01:15Z</time>
      </trkpt>
      <trkpt lat="47.45175" lon="-2.31979">
        <ele>16.6</ele>
        <time>2020-06-06T09:01:16Z</time>
      </trkpt>
      <trkpt lat="47.45176" lon="-2.31981">
        <ele>16.7</ele>
        <time>2020-06-06T09:01:17Z</time>
      </trkpt>
      <trkpt lat="47.45178" lon="-2.31982">
        <ele>16.7</ele>
        <time>2020-06-06T09:01:18Z</time>
      </trkpt>
      <trkpt lat="47.4518" lon="-2.31987">
        <ele>16.7</ele>
        <time>2020-06-06T09:01:19Z</time>
      </trkpt>
      <trkpt lat="47.45181" lon="-2.31988">
        <ele>16.7</ele>
        <time>2020-06-06T09:01:20Z</time>
      </trkpt>
      <trkpt lat="47.45182" lon="-2.31993">
        <ele>16.7</ele>
        <time>2020-06-06T09:01:21Z</time>
      </trkpt>
      <trkpt lat="47.45183" lon="-2.31995">
        <ele>16.7</ele>
        <time>2020-06-06T09:01:22Z</time>
      </trkpt>
      <trkpt lat="47.45184" lon="-2.31999">
        <ele>16.8</ele>
        <time>2020-06-06T09:01:23Z</time>
      </trkpt>
      <trkpt lat="47.45186" lon="-2.32003">
        <ele>16.8</ele>
        <time>2020-06-06T09:01:24Z</time>
      </trkpt>
      <trkpt lat="47.45188" lon="-2.32007">
        <ele>16.8</ele>
        <time>2020-06-06T09:01:25Z</time>
      </trkpt>
      <trkpt lat="47.4519" lon="-2.3201">
        <ele>16.9</ele>
        <time>2020-06-06T09:01:26Z</time>
      </trkpt>
      <trkpt lat="47.45192" lon="-2.32014">
        <ele>16.9</ele>
        <time>2020-06-06T09:01:27Z</time>
      </trkpt>
      <trkpt lat="47.45193" lon="-2.32019">
        <ele>17</ele>
        <time>2020-06-06T09:01:28Z</time>
      </trkpt>
      <trkpt lat="47.45194" lon="-2.32024">
        <ele>17</ele>
        <time>2020-06-06T09:01:29Z</time>
      </trkpt>
      <trkpt lat="47.45196" lon="-2.32028">
        <ele>17.1</ele>
        <time>2020-06-06T09:01:30Z</time>
      </trkpt>
      <trkpt lat="47.45198" lon="-2.32033">
        <ele>17.2</ele>
        <time>2020-06-06T09:01:31Z</time>
      </trkpt>
      <trkpt lat="47.45201" lon="-2.32037">
        <ele>17.2</ele>
        <time>2020-06-06T09:01:32Z</time>
      </trkpt>
      <trkpt lat="47.45204" lon="-2.32042">
        <ele>17.3</ele>
        <time>2020-06-06T09:01:33Z</time>
      </trkpt>
      <trkpt lat="47.45207" lon="-2.32046">
        <ele>17.4</ele>
        <time>2020-06-06T09:01:34Z</time>
      </trkpt>
      <trkpt lat="47.4521" lon="-2.3205">
        <ele>17.5</ele>
        <time>2020-06-06T09:01:35Z</time>
      </trkpt>
      <trkpt lat="47.45213" lon="-2.32054">
        <ele>17.5</ele>
        <time>2020-06-06T09:01:36Z</time>
      </trkpt>
      <trkpt lat="47.45216" lon="-2.32057">
        <ele>17.5</ele>
        <time>2020-06-06T09:01:37Z</time>
      </trkpt>
      <trkpt lat="47.45219" lon="-2.3206">
        <ele>17.4</ele>
        <time>2020-06-06T09:01:38Z</time>
      </trkpt>
      <trkpt lat="47.45223" lon="-2.32064">
        <ele>17.3</ele>
        <time>2020-06-06T09:01:39Z</time>
      </trkpt>
      <trkpt lat="47.45227" lon="-2.32067">
        <ele>17.2</ele>
        <time>2020-06-06T09:01:40Z</time>
      </trkpt>
      <trkpt lat="47.45231" lon="-2.32069">
        <ele>17.1</ele>
        <time>2020-06-06T09:01:41Z</time>
      </trkpt>
      <trkpt lat="47.45235" lon="-2.32072">
        <ele>17</ele>
        <time>2020-06-06T09:01:42Z</time>
      </trkpt>
      <trkpt lat="47.45238" lon="-2.32074">
        <ele>16.9</ele>
        <time>2020-06-06T09:01:43Z</time>
      </trkpt>
      <trkpt lat="47.45242" lon="-2.32076">
        <ele>16.8</ele>
        <time>2020-06-06T09:01:44Z</time>
      </trkpt>
      <trkpt lat="47.45246" lon="-2.32078">
        <ele>16.6</ele>
        <time>2020-06-06T09:01:45Z</time>
      </trkpt>
      <trkpt lat="47.45251" lon="-2.3208">
        <ele>16.5</ele>
        <time>2020-06-06T09:01:46Z</time>
      </trkpt>
      <trkpt lat="47.45256" lon="-2.32082">
        <ele>16.4</ele>
        <time>2020-06-06T09:01:47Z</time>
      </trkpt>
      <trkpt lat="47.45261" lon="-2.32084">
        <ele>16.2</ele>
        <time>2020-06-06T09:01:48Z</time>
      </trkpt>
      <trkpt lat="47.45266" lon="-2.32087">
        <ele>16.1</ele>
        <time>2020-06-06T09:01:49Z</time>
      </trkpt>
      <trkpt lat="47.45271" lon="-2.3209">
        <ele>16</ele>
        <time>2020-06-06T09:01:50Z</time>
      </trkpt>
      <trkpt lat="47.45275" lon="-2.32093">
        <ele>15.9</ele>
        <time>2020-06-06T09:01:51Z</time>
      </trkpt>
      <trkpt lat="47.4528" lon="-2.32095">
        <ele>15.8</ele>
        <time>2020-06-06T09:01:52Z</time>
      </trkpt>
      <trkpt lat="47.45285" lon="-2.32098">
        <ele>15.8</ele>
        <time>2020-06-06T09:01:53Z</time>
      </trkpt>
      <trkpt lat="47.4529" lon="-2.32101">
        <ele>15.9</ele>
        <time>2020-06-06T09:01:54Z</time>
      </trkpt>
      <trkpt lat="47.45295" lon="-2.32105">
        <ele>15.9</ele>
        <time>2020-06-06T09:01:55Z</time>
      </trkpt>
      <trkpt lat="47.453" lon="-2.3211">
        <ele>15.9</ele>
        <time>2020-06-06T09:01:56Z</time>
      </trkpt>
      <trkpt lat="47.45305" lon="-2.32115">
        <ele>15.9</ele>
        <time>2020-06-06T09:01:57Z</time>
      </trkpt>
      <trkpt lat="47.45309" lon="-2.32121">
        <ele>16</ele>
        <time>2020-06-06T09:01:58Z</time>
      </trkpt>
      <trkpt lat="47.45313" lon="-2.32126">
        <ele>16.1</ele>
        <time>2020-06-06T09:01:59Z</time>
      </trkpt>
      <trkpt lat="47.45316" lon="-2.32132">
        <ele>16.2</ele>
        <time>2020-06-06T09:02:00Z</time>
      </trkpt>
      <trkpt lat="47.45319" lon="-2.32138">
        <ele>16.3</ele>
        <time>2020-06-06T09:02:01Z</time>
      </trkpt>
      <trkpt lat="47.45321" lon="-2.32143">
        <ele>16.3</ele>
        <time>2020-06-06T09:02:02Z</time>
      </trkpt>
      <trkpt lat="47.45324" lon="-2.32147">
        <ele>16.4</ele>
        <time>2020-06-06T09:02:03Z</time>
      </trkpt>
      <trkpt lat="47.45327" lon="-2.32151">
        <ele>16.5</ele>
        <time>2020-06-06T09:02:04Z</time>
      </trkpt>
      <trkpt lat="47.4533" lon="-2.32155">
        <ele>16.5</ele>
        <time>2020-06-06T09:02:05Z</time>
      </trkpt>
      <trkpt lat="47.45333" lon="-2.3216">
        <ele>16.6</ele>
        <time>2020-06-06T09:02:06Z</time>
      </trkpt>
      <trkpt lat="47.45337" lon="-2.32164">
        <ele>16.6</ele>
        <time>2020-06-06T09:02:07Z</time>
      </trkpt>
      <trkpt lat="47.45343" lon="-2.32164">
        <ele>16.6</ele>
        <time>2020-06-06T09:02:08Z</time>
      </trkpt>
      <trkpt lat="47.45348" lon="-2.32165">
        <ele>16.7</ele>
        <time>2020-06-06T09:02:09Z</time>
      </trkpt>
      <trkpt lat="47.45354" lon="-2.32165">
        <ele>16.7</ele>
        <time>2020-06-06T09:02:10Z</time>
      </trkpt>
      <trkpt lat="47.45359" lon="-2.32166">
        <ele>16.6</ele>
        <time>2020-06-06T09:02:11Z</time>
      </trkpt>
      <trkpt lat="47.45366" lon="-2.32166">
        <ele>16.6</ele>
        <time>2020-06-06T09:02:12Z</time>
      </trkpt>
      <trkpt lat="47.45372" lon="-2.32167">
        <ele>16.6</ele>
        <time>2020-06-06T09:02:13Z</time>
      </trkpt>
      <trkpt lat="47.45377" lon="-2.32168">
        <ele>16.6</ele>
        <time>2020-06-06T09:02:14Z</time>
      </trkpt>
      <trkpt lat="47.45382" lon="-2.32168">
        <ele>16.6</ele>
        <time>2020-06-06T09:02:15Z</time>
      </trkpt>
      <trkpt lat="47.45387" lon="-2.32168">
        <ele>16.6</ele>
        <time>2020-06-06T09:02:16Z</time>
      </trkpt>
      <trkpt lat="47.45392" lon="-2.32171">
        <ele>16.6</ele>
        <time>2020-06-06T09:02:17Z</time>
      </trkpt>
      <trkpt lat="47.45397" lon="-2.32172">
        <ele>16.6</ele>
        <time>2020-06-06T09:02:18Z</time>
      </trkpt>
      <trkpt lat="47.45402" lon="-2.32174">
        <ele>16.7</ele>
        <time>2020-06-06T09:02:19Z</time>
      </trkpt>
      <trkpt lat="47.45408" lon="-2.32178">
        <ele>16.7</ele>
        <time>2020-06-06T09:02:20Z</time>
      </trkpt>
      <trkpt lat="47.45413" lon="-2.32182">
        <ele>16.8</ele>
        <time>2020-06-06T09:02:21Z</time>
      </trkpt>
      <trkpt lat="47.45418" lon="-2.32185">
        <ele>16.9</ele>
        <time>2020-06-06T09:02:22Z</time>
      </trkpt>
      <trkpt lat="47.45423" lon="-2.32188">
        <ele>17</ele>
        <time>2020-06-06T09:02:23Z</time>
      </trkpt>
      <trkpt lat="47.45427" lon="-2.32193">
        <ele>17</ele>
        <time>2020-06-06T09:02:24Z</time>
      </trkpt>
      <trkpt lat="47.4543" lon="-2.32198">
        <ele>17.1</ele>
        <time>2020-06-06T09:02:25Z</time>
      </trkpt>
      <trkpt lat="47.45434" lon="-2.32203">
        <ele>17.2</ele>
        <time>2020-06-06T09:02:26Z</time>
      </trkpt>
      <trkpt lat="47.45438" lon="-2.32208">
        <ele>17.3</ele>
        <time>2020-06-06T09:02:27Z</time>
      </trkpt>
      <trkpt lat="47.45442" lon="-2.32212">
        <ele>17.4</ele>
        <time>2020-06-06T09:02:28Z</time>
      </trkpt>
      <trkpt lat="47.45445" lon="-2.32217">
        <ele>17.5</ele>
        <time>2020-06-06T09:02:29Z</time>
      </trkpt>
      <trkpt lat="47.45449" lon="-2.32221">
        <ele>17.5</ele>
        <time>2020-06-06T09:02:30Z</time>
      </trkpt>
      <trkpt lat="47.45452" lon="-2.32225">
        <ele>17.6</ele>
        <time>2020-06-06T09:02:31Z</time>
      </trkpt>
      <trkpt lat="47.45456" lon="-2.32229">
        <ele>17.7</ele>
        <time>2020-06-06T09:02:32Z</time>
      </trkpt>
      <trkpt lat="47.45459" lon="-2.32234">
        <ele>17.8</ele>
        <time>2020-06-06T09:02:33Z</time>
      </trkpt>
      <trkpt lat="47.45463" lon="-2.3224">
        <ele>17.9</ele>
        <time>2020-06-06T09:02:34Z</time>
      </trkpt>
      <trkpt lat="47.45468" lon="-2.32245">
        <ele>18</ele>
        <time>2020-06-06T09:02:35Z</time>
      </trkpt>
      <trkpt lat="47.45473" lon="-2.3225">
        <ele>18.1</ele>
        <time>2020-06-06T09:02:36Z</time>
      </trkpt>
      <trkpt lat="47.45477" lon="-2.32254">
        <ele>18.3</ele>
        <time>2020-06-06T09:02:37Z</time>
      </trkpt>
      <trkpt lat="47.45482" lon="-2.32257">
        <ele>18.5</ele>
        <time>2020-06-06T09:02:38Z</time>
      </trkpt>
      <trkpt lat="47.45487" lon="-2.32259">
        <ele>18.8</ele>
        <time>2020-06-06T09:02:39Z</time>
      </trkpt>
      <trkpt lat="47.45492" lon="-2.3226">
        <ele>19.1</ele>
        <time>2020-06-06T09:02:40Z</time>
      </trkpt>
      <trkpt lat="47.45496" lon="-2.32261">
        <ele>19.3</ele>
        <time>2020-06-06T09:02:41Z</time>
      </trkpt>
      <trkpt lat="47.45499" lon="-2.32261">
        <ele>19.5</ele>
        <time>2020-06-06T09:02:42Z</time>
      </trkpt>
      <trkpt lat="47.455" lon="-2.32262">
        <ele>19.5</ele>
        <time>2020-06-06T09:02:43Z</time>
      </trkpt>
      <trkpt lat="47.45501" lon="-2.32262">
        <ele>19.6</ele>
        <time>2020-06-06T09:02:44Z</time>
      </trkpt>
      <trkpt lat="47.45501" lon="-2.3226">
        <ele>19.6</ele>
        <time>2020-06-06T09:02:45Z</time>
      </trkpt>
      <trkpt lat="47.45502" lon="-2.3226">
        <ele>19.6</ele>
        <time>2020-06-06T09:02:46Z</time>
      </trkpt>
      <trkpt lat="47.45502" lon="-2.3226">
        <ele>19.7</ele>
        <time>2020-06-06T09:02:47Z</time>
      </trkpt>
      <trkpt lat="47.45503" lon="-2.32261">
        <ele>19.7</ele>
        <time>2020-06-06T09:02:48Z</time>
      </trkpt>
      <trkpt lat="47.45504" lon="-2.3226">
        <ele>19.7</ele>
        <time>2020-06-06T09:02:49Z</time>
      </trkpt>
      <trkpt lat="47.45505" lon="-2.3226">
        <ele>19.8</ele>
        <time>2020-06-06T09:02:50Z</time>
      </trkpt>
      <trkpt lat="47.45506" lon="-2.3226">
        <ele>19.8</ele>
        <time>2020-06-06T09:02:51Z</time>
      </trkpt>
      <trkpt lat="47.45507" lon="-2.3226">
        <ele>20</ele>
        <time>2020-06-06T09:02:52Z</time>
      </trkpt>
      <trkpt lat="47.45509" lon="-2.32262">
        <ele>20</ele>
        <time>2020-06-06T09:02:53Z</time>
      </trkpt>
      <trkpt lat="47.45512" lon="-2.32267">
        <ele>20.1</ele>
        <time>2020-06-06T09:02:54Z</time>
      </trkpt>
      <trkpt lat="47.45514" lon="-2.32271">
        <ele>20.1</ele>
        <time>2020-06-06T09:02:55Z</time>
      </trkpt>
      <trkpt lat="47.45516" lon="-2.32276">
        <ele>20.1</ele>
        <time>2020-06-06T09:02:56Z</time>
      </trkpt>
      <trkpt lat="47.45519" lon="-2.32281">
        <ele>20.1</ele>
        <time>2020-06-06T09:02:57Z</time>
      </trkpt>
      <trkpt lat="47.45522" lon="-2.32286">
        <ele>20.2</ele>
        <time>2020-06-06T09:02:58Z</time>
      </trkpt>
      <trkpt lat="47.45524" lon="-2.32292">
        <ele>20.2</ele>
        <time>2020-06-06T09:02:59Z</time>
      </trkpt>
      <trkpt lat="47.45527" lon="-2.32297">
        <ele>20.3</ele>
        <time>2020-06-06T09:03:00Z</time>
      </trkpt>
      <trkpt lat="47.4553" lon="-2.32304">
        <ele>20.4</ele>
        <time>2020-06-06T09:03:01Z</time>
      </trkpt>
      <trkpt lat="47.45532" lon="-2.32311">
        <ele>20.4</ele>
        <time>2020-06-06T09:03:02Z</time>
      </trkpt>
      <trkpt lat="47.45535" lon="-2.32318">
        <ele>20.5</ele>
        <time>2020-06-06T09:03:03Z</time>
      </trkpt>
      <trkpt lat="47.45537" lon="-2.32324">
        <ele>20.6</ele>
        <time>2020-06-06T09:03:04Z</time>
      </trkpt>
      <trkpt lat="47.4554" lon="-2.32331">
        <ele>20.7</ele>
        <time>2020-06-06T09:03:05Z</time>
      </trkpt>
      <trkpt lat="47.45544" lon="-2.32336">
        <ele>20.8</ele>
        <time>2020-06-06T09:03:06Z</time>
      </trkpt>
      <trkpt lat="47.45546" lon="-2.32342">
        <ele>20.9</ele>
        <time>2020-06-06T09:03:07Z</time>
      </trkpt>
      <trkpt lat="47.4555" lon="-2.32349">
        <ele>21</ele>
        <time>2020-06-06T09:03:08Z</time>
      </trkpt>
      <trkpt lat="47.45553" lon="-2.32355">
        <ele>21.2</ele>
        <time>2020-06-06T09:03:09Z</time>
      </trkpt>
      <trkpt lat="47.45557" lon="-2.32361">
        <ele>21.3</ele>
        <time>2020-06-06T09:03:10Z</time>
      </trkpt>
      <trkpt lat="47.45561" lon="-2.32367">
        <ele>21.4</ele>
        <time>2020-06-06T09:03:11Z</time>
      </trkpt>
      <trkpt lat="47.45564" lon="-2.32373">
        <ele>21.4</ele>
        <time>2020-06-06T09:03:12Z</time>
      </trkpt>
      <trkpt lat="47.45568" lon="-2.32379">
        <ele>21.5</ele>
        <time>2020-06-06T09:03:13Z</time>
      </trkpt>
      <trkpt lat="47.45572" lon="-2.32385">
        <ele>21.5</ele>
        <time>2020-06-06T09:03:14Z</time>
      </trkpt>
      <trkpt lat="47.45576" lon="-2.32391">
        <ele>21.5</ele>
        <time>2020-06-06T09:03:15Z</time>
      </trkpt>
      <trkpt lat="47.45579" lon="-2.32397">
        <ele>21.5</ele>
        <time>2020-06-06T09:03:16Z</time>
      </trkpt>
      <trkpt lat="47.45583" lon="-2.32403">
        <ele>21.5</ele>
        <time>2020-06-06T09:03:17Z</time>
      </trkpt>
      <trkpt lat="47.45586" lon="-2.32409">
        <ele>21.5</ele>
        <time>2020-06-06T09:03:18Z</time>
      </trkpt>
      <trkpt lat="47.45591" lon="-2.32415">
        <ele>21.6</ele>
        <time>2020-06-06T09:03:19Z</time>
      </trkpt>
      <trkpt lat="47.45594" lon="-2.32422">
        <ele>21.6</ele>
        <time>2020-06-06T09:03:20Z</time>
      </trkpt>
      <trkpt lat="47.45597" lon="-2.32428">
        <ele>21.6</ele>
        <time>2020-06-06T09:03:21Z</time>
      </trkpt>
      <trkpt lat="47.45601" lon="-2.32435">
        <ele>21.6</ele>
        <time>2020-06-06T09:03:22Z</time>
      </trkpt>
      <trkpt lat="47.45605" lon="-2.3244">
        <ele>21.6</ele>
        <time>2020-06-06T09:03:23Z</time>
      </trkpt>
      <trkpt lat="47.45608" lon="-2.32447">
        <ele>21.6</ele>
        <time>2020-06-06T09:03:24Z</time>
      </trkpt>
      <trkpt lat="47.45613" lon="-2.32453">
        <ele>21.6</ele>
        <time>2020-06-06T09:03:25Z</time>
      </trkpt>
      <trkpt lat="47.45616" lon="-2.3246">
        <ele>21.7</ele>
        <time>2020-06-06T09:03:26Z</time>
      </trkpt>
      <trkpt lat="47.4562" lon="-2.32467">
        <ele>21.7</ele>
        <time>2020-06-06T09:03:27Z</time>
      </trkpt>
      <trkpt lat="47.45624" lon="-2.32473">
        <ele>21.7</ele>
        <time>2020-06-06T09:03:28Z</time>
      </trkpt>
      <trkpt lat="47.45628" lon="-2.3248">
        <ele>21.8</ele>
        <time>2020-06-06T09:03:29Z</time>
      </trkpt>
      <trkpt lat="47.45632" lon="-2.32486">
        <ele>21.8</ele>
        <time>2020-06-06T09:03:30Z</time>
      </trkpt>
      <trkpt lat="47.45635" lon="-2.32492">
        <ele>21.8</ele>
        <time>2020-06-06T09:03:31Z</time>
      </trkpt>
      <trkpt lat="47.45638" lon="-2.32499">
        <ele>21.9</ele>
        <time>2020-06-06T09:03:32Z</time>
      </trkpt>
      <trkpt lat="47.45642" lon="-2.32506">
        <ele>21.9</ele>
        <time>2020-06-06T09:03:33Z</time>
      </trkpt>
      <trkpt lat="47.45646" lon="-2.32514">
        <ele>21.9</ele>
        <time>2020-06-06T09:03:34Z</time>
      </trkpt>
      <trkpt lat="47.4565" lon="-2.32521">
        <ele>21.9</ele>
        <time>2020-06-06T09:03:35Z</time>
      </trkpt>
      <trkpt lat="47.45654" lon="-2.32528">
        <ele>21.9</ele>
        <time>2020-06-06T09:03:36Z</time>
      </trkpt>
      <trkpt lat="47.45658" lon="-2.32534">
        <ele>22</ele>
        <time>2020-06-06T09:03:37Z</time>
      </trkpt>
      <trkpt lat="47.45661" lon="-2.32541">
        <ele>22</ele>
        <time>2020-06-06T09:03:38Z</time>
      </trkpt>
      <trkpt lat="47.45665" lon="-2.32548">
        <ele>22.1</ele>
        <time>2020-06-06T09:03:39Z</time>
      </trkpt>
      <trkpt lat="47.45669" lon="-2.32555">
        <ele>22.2</ele>
        <time>2020-06-06T09:03:40Z</time>
      </trkpt>
      <trkpt lat="47.45673" lon="-2.32564">
        <ele>22.3</ele>
        <time>2020-06-06T09:03:41Z</time>
      </trkpt>
      <trkpt lat="47.45677" lon="-2.32571">
        <ele>22.4</ele>
        <time>2020-06-06T09:03:42Z</time>
      </trkpt>
      <trkpt lat="47.45681" lon="-2.32577">
        <ele>22.4</ele>
        <time>2020-06-06T09:03:43Z</time>
      </trkpt>
      <trkpt lat="47.45685" lon="-2.32584">
        <ele>22.5</ele>
        <time>2020-06-06T09:03:44Z</time>
      </trkpt>
      <trkpt lat="47.45689" lon="-2.3259">
        <ele>22.6</ele>
        <time>2020-06-06T09:03:45Z</time>
      </trkpt>
      <trkpt lat="47.45693" lon="-2.32595">
        <ele>22.7</ele>
        <time>2020-06-06T09:03:46Z</time>
      </trkpt>
      <trkpt lat="47.45698" lon="-2.32601">
        <ele>22.8</ele>
        <time>2020-06-06T09:03:47Z</time>
      </trkpt>
      <trkpt lat="47.45703" lon="-2.32605">
        <ele>22.9</ele>
        <time>2020-06-06T09:03:48Z</time>
      </trkpt>
      <trkpt lat="47.4571" lon="-2.3261">
        <ele>23.2</ele>
        <time>2020-06-06T09:03:49Z</time>
      </trkpt>
      <trkpt lat="47.45714" lon="-2.32614">
        <ele>23.3</ele>
        <time>2020-06-06T09:03:50Z</time>
      </trkpt>
      <trkpt lat="47.45719" lon="-2.32619">
        <ele>23.5</ele>
        <time>2020-06-06T09:03:51Z</time>
      </trkpt>
      <trkpt lat="47.45723" lon="-2.32622">
        <ele>23.6</ele>
        <time>2020-06-06T09:03:52Z</time>
      </trkpt>
      <trkpt lat="47.45727" lon="-2.32627">
        <ele>23.7</ele>
        <time>2020-06-06T09:03:53Z</time>
      </trkpt>
      <trkpt lat="47.45733" lon="-2.32631">
        <ele>23.9</ele>
        <time>2020-06-06T09:03:54Z</time>
      </trkpt>
      <trkpt lat="47.45737" lon="-2.32635">
        <ele>24</ele>
        <time>2020-06-06T09:03:55Z</time>
      </trkpt>
      <trkpt lat="47.45742" lon="-2.32639">
        <ele>24.2</ele>
        <time>2020-06-06T09:03:56Z</time>
      </trkpt>
      <trkpt lat="47.45747" lon="-2.32642">
        <ele>24.3</ele>
        <time>2020-06-06T09:03:57Z</time>
      </trkpt>
      <trkpt lat="47.45752" lon="-2.32647">
        <ele>24.5</ele>
        <time>2020-06-06T09:03:58Z</time>
      </trkpt>
      <trkpt lat="47.45757" lon="-2.32649">
        <ele>24.6</ele>
        <time>2020-06-06T09:03:59Z</time>
      </trkpt>
      <trkpt lat="47.45762" lon="-2.32653">
        <ele>24.8</ele>
        <time>2020-06-06T09:04:00Z</time>
      </trkpt>
      <trkpt lat="47.45767" lon="-2.32656">
        <ele>24.9</ele>
        <time>2020-06-06T09:04:01Z</time>
      </trkpt>
      <trkpt lat="47.45772" lon="-2.3266">
        <ele>25.1</ele>
        <time>2020-06-06T09:04:02Z</time>
      </trkpt>
      <trkpt lat="47.45776" lon="-2.32665">
        <ele>25.2</ele>
        <time>2020-06-06T09:04:03Z</time>
      </trkpt>
      <trkpt lat="47.45781" lon="-2.32669">
        <ele>25.4</ele>
        <time>2020-06-06T09:04:04Z</time>
      </trkpt>
      <trkpt lat="47.45785" lon="-2.32674">
        <ele>25.5</ele>
        <time>2020-06-06T09:04:05Z</time>
      </trkpt>
      <trkpt lat="47.4579" lon="-2.32679">
        <ele>25.7</ele>
        <time>2020-06-06T09:04:06Z</time>
      </trkpt>
      <trkpt lat="47.45795" lon="-2.32682">
        <ele>25.8</ele>
        <time>2020-06-06T09:04:07Z</time>
      </trkpt>
      <trkpt lat="47.458" lon="-2.32685">
        <ele>26</ele>
        <time>2020-06-06T09:04:08Z</time>
      </trkpt>
      <trkpt lat="47.45804" lon="-2.32689">
        <ele>26.1</ele>
        <time>2020-06-06T09:04:09Z</time>
      </trkpt>
      <trkpt lat="47.45808" lon="-2.32692">
        <ele>26.2</ele>
        <time>2020-06-06T09:04:10Z</time>
      </trkpt>
      <trkpt lat="47.45813" lon="-2.32695">
        <ele>26.3</ele>
        <time>2020-06-06T09:04:11Z</time>
      </trkpt>
      <trkpt lat="47.45818" lon="-2.32699">
        <ele>26.5</ele>
        <time>2020-06-06T09:04:12Z</time>
      </trkpt>
      <trkpt lat="47.45822" lon="-2.32701">
        <ele>26.6</ele>
        <time>2020-06-06T09:04:13Z</time>
      </trkpt>
      <trkpt lat="47.45827" lon="-2.32705">
        <ele>26.7</ele>
        <time>2020-06-06T09:04:14Z</time>
      </trkpt>
      <trkpt lat="47.45832" lon="-2.32709">
        <ele>26.8</ele>
        <time>2020-06-06T09:04:15Z</time>
      </trkpt>
      <trkpt lat="47.45836" lon="-2.32713">
        <ele>26.9</ele>
        <time>2020-06-06T09:04:16Z</time>
      </trkpt>
      <trkpt lat="47.45841" lon="-2.32717">
        <ele>27</ele>
        <time>2020-06-06T09:04:17Z</time>
      </trkpt>
      <trkpt lat="47.45845" lon="-2.32721">
        <ele>27.1</ele>
        <time>2020-06-06T09:04:18Z</time>
      </trkpt>
      <trkpt lat="47.45849" lon="-2.32724">
        <ele>27.2</ele>
        <time>2020-06-06T09:04:19Z</time>
      </trkpt>
      <trkpt lat="47.45854" lon="-2.32728">
        <ele>27.2</ele>
        <time>2020-06-06T09:04:20Z</time>
      </trkpt>
      <trkpt lat="47.45858" lon="-2.32732">
        <ele>27.2</ele>
        <time>2020-06-06T09:04:21Z</time>
      </trkpt>
      <trkpt lat="47.45863" lon="-2.32736">
        <ele>27.3</ele>
        <time>2020-06-06T09:04:22Z</time>
      </trkpt>
      <trkpt lat="47.45869" lon="-2.3274">
        <ele>27.3</ele>
        <time>2020-06-06T09:04:23Z</time>
      </trkpt>
      <trkpt lat="47.45873" lon="-2.32744">
        <ele>27.4</ele>
        <time>2020-06-06T09:04:24Z</time>
      </trkpt>
      <trkpt lat="47.45879" lon="-2.32748">
        <ele>27.4</ele>
        <time>2020-06-06T09:04:25Z</time>
      </trkpt>
      <trkpt lat="47.45883" lon="-2.32753">
        <ele>27.5</ele>
        <time>2020-06-06T09:04:26Z</time>
      </trkpt>
      <trkpt lat="47.45888" lon="-2.32757">
        <ele>27.6</ele>
        <time>2020-06-06T09:04:27Z</time>
      </trkpt>
      <trkpt lat="47.45892" lon="-2.32761">
        <ele>27.7</ele>
        <time>2020-06-06T09:04:28Z</time>
      </trkpt>
      <trkpt lat="47.45897" lon="-2.32766">
        <ele>27.7</ele>
        <time>2020-06-06T09:04:29Z</time>
      </trkpt>
      <trkpt lat="47.45902" lon="-2.3277">
        <ele>27.8</ele>
        <time>2020-06-06T09:04:30Z</time>
      </trkpt>
      <trkpt lat="47.45907" lon="-2.32774">
        <ele>27.9</ele>
        <time>2020-06-06T09:04:31Z</time>
      </trkpt>
      <trkpt lat="47.45912" lon="-2.32778">
        <ele>28</ele>
        <time>2020-06-06T09:04:32Z</time>
      </trkpt>
      <trkpt lat="47.45915" lon="-2.32782">
        <ele>28</ele>
        <time>2020-06-06T09:04:33Z</time>
      </trkpt>
      <trkpt lat="47.45919" lon="-2.32786">
        <ele>28.1</ele>
        <time>2020-06-06T09:04:34Z</time>
      </trkpt>
      <trkpt lat="47.45924" lon="-2.32789">
        <ele>28.2</ele>
        <time>2020-06-06T09:04:35Z</time>
      </trkpt>
      <trkpt lat="47.45928" lon="-2.32793">
        <ele>28.3</ele>
        <time>2020-06-06T09:04:36Z</time>
      </trkpt>
      <trkpt lat="47.45933" lon="-2.32797">
        <ele>28.3</ele>
        <time>2020-06-06T09:04:37Z</time>
      </trkpt>
      <trkpt lat="47.45937" lon="-2.328">
        <ele>28.4</ele>
        <time>2020-06-06T09:04:38Z</time>
      </trkpt>
      <trkpt lat="47.45942" lon="-2.32804">
        <ele>28.5</ele>
        <time>2020-06-06T09:04:39Z</time>
      </trkpt>
      <trkpt lat="47.45948" lon="-2.32807">
        <ele>28.5</ele>
        <time>2020-06-06T09:04:40Z</time>
      </trkpt>
      <trkpt lat="47.45952" lon="-2.3281">
        <ele>28.5</ele>
        <time>2020-06-06T09:04:41Z</time>
      </trkpt>
      <trkpt lat="47.45957" lon="-2.32814">
        <ele>28.6</ele>
        <time>2020-06-06T09:04:42Z</time>
      </trkpt>
      <trkpt lat="47.45962" lon="-2.32818">
        <ele>28.7</ele>
        <time>2020-06-06T09:04:43Z</time>
      </trkpt>
      <trkpt lat="47.45967" lon="-2.32822">
        <ele>28.7</ele>
        <time>2020-06-06T09:04:44Z</time>
      </trkpt>
      <trkpt lat="47.45973" lon="-2.32826">
        <ele>28.8</ele>
        <time>2020-06-06T09:04:45Z</time>
      </trkpt>
      <trkpt lat="47.45977" lon="-2.3283">
        <ele>28.8</ele>
        <time>2020-06-06T09:04:46Z</time>
      </trkpt>
      <trkpt lat="47.45983" lon="-2.32834">
        <ele>28.8</ele>
        <time>2020-06-06T09:04:47Z</time>
      </trkpt>
      <trkpt lat="47.45989" lon="-2.32839">
        <ele>28.8</ele>
        <time>2020-06-06T09:04:48Z</time>
      </trkpt>
      <trkpt lat="47.45993" lon="-2.32843">
        <ele>28.8</ele>
        <time>2020-06-06T09:04:49Z</time>
      </trkpt>
      <trkpt lat="47.45998" lon="-2.32847">
        <ele>28.7</ele>
        <time>2020-06-06T09:04:50Z</time>
      </trkpt>
      <trkpt lat="47.46005" lon="-2.32853">
        <ele>28.7</ele>
        <time>2020-06-06T09:04:51Z</time>
      </trkpt>
      <trkpt lat="47.4601" lon="-2.32857">
        <ele>28.7</ele>
        <time>2020-06-06T09:04:52Z</time>
      </trkpt>
      <trkpt lat="47.46015" lon="-2.32859">
        <ele>28.7</ele>
        <time>2020-06-06T09:04:53Z</time>
      </trkpt>
      <trkpt lat="47.4602" lon="-2.32863">
        <ele>28.7</ele>
        <time>2020-06-06T09:04:54Z</time>
      </trkpt>
      <trkpt lat="47.46025" lon="-2.32866">
        <ele>28.8</ele>
        <time>2020-06-06T09:04:55Z</time>
      </trkpt>
      <trkpt lat="47.4603" lon="-2.3287">
        <ele>28.8</ele>
        <time>2020-06-06T09:04:56Z</time>
      </trkpt>
      <trkpt lat="47.46035" lon="-2.32873">
        <ele>28.8</ele>
        <time>2020-06-06T09:04:57Z</time>
      </trkpt>
      <trkpt lat="47.4604" lon="-2.32876">
        <ele>28.9</ele>
        <time>2020-06-06T09:04:58Z</time>
      </trkpt>
      <trkpt lat="47.46046" lon="-2.3288">
        <ele>28.9</ele>
        <time>2020-06-06T09:04:59Z</time>
      </trkpt>
      <trkpt lat="47.46053" lon="-2.32884">
        <ele>29</ele>
        <time>2020-06-06T09:05:00Z</time>
      </trkpt>
      <trkpt lat="47.4606" lon="-2.32888">
        <ele>29</ele>
        <time>2020-06-06T09:05:01Z</time>
      </trkpt>
      <trkpt lat="47.46065" lon="-2.32891">
        <ele>29.1</ele>
        <time>2020-06-06T09:05:02Z</time>
      </trkpt>
      <trkpt lat="47.46072" lon="-2.32896">
        <ele>29.1</ele>
        <time>2020-06-06T09:05:03Z</time>
      </trkpt>
      <trkpt lat="47.46077" lon="-2.32899">
        <ele>29.2</ele>
        <time>2020-06-06T09:05:04Z</time>
      </trkpt>
      <trkpt lat="47.46082" lon="-2.32902">
        <ele>29.3</ele>
        <time>2020-06-06T09:05:05Z</time>
      </trkpt>
      <trkpt lat="47.46088" lon="-2.32904">
        <ele>29.3</ele>
        <time>2020-06-06T09:05:06Z</time>
      </trkpt>
      <trkpt lat="47.46094" lon="-2.32907">
        <ele>29.4</ele>
        <time>2020-06-06T09:05:07Z</time>
      </trkpt>
      <trkpt lat="47.46099" lon="-2.3291">
        <ele>29.5</ele>
        <time>2020-06-06T09:05:08Z</time>
      </trkpt>
      <trkpt lat="47.46105" lon="-2.32913">
        <ele>29.6</ele>
        <time>2020-06-06T09:05:09Z</time>
      </trkpt>
      <trkpt lat="47.4611" lon="-2.32916">
        <ele>29.6</ele>
        <time>2020-06-06T09:05:10Z</time>
      </trkpt>
      <trkpt lat="47.46116" lon="-2.32919">
        <ele>29.7</ele>
        <time>2020-06-06T09:05:11Z</time>
      </trkpt>
      <trkpt lat="47.46121" lon="-2.32923">
        <ele>29.7</ele>
        <time>2020-06-06T09:05:12Z</time>
      </trkpt>
      <trkpt lat="47.46126" lon="-2.32926">
        <ele>29.7</ele>
        <time>2020-06-06T09:05:13Z</time>
      </trkpt>
      <trkpt lat="47.4613" lon="-2.32928">
        <ele>29.7</ele>
        <time>2020-06-06T09:05:14Z</time>
      </trkpt>
      <trkpt lat="47.46134" lon="-2.32931">
        <ele>29.7</ele>
        <time>2020-06-06T09:05:15Z</time>
      </trkpt>
      <trkpt lat="47.4614" lon="-2.32935">
        <ele>29.7</ele>
        <time>2020-06-06T09:05:16Z</time>
      </trkpt>
      <trkpt lat="47.46146" lon="-2.3294">
        <ele>29.8</ele>
        <time>2020-06-06T09:05:17Z</time>
      </trkpt>
      <trkpt lat="47.46153" lon="-2.32944">
        <ele>29.8</ele>
        <time>2020-06-06T09:05:18Z</time>
      </trkpt>
      <trkpt lat="47.46158" lon="-2.32948">
        <ele>29.8</ele>
        <time>2020-06-06T09:05:19Z</time>
      </trkpt>
      <trkpt lat="47.46162" lon="-2.3295">
        <ele>29.8</ele>
        <time>2020-06-06T09:05:20Z</time>
      </trkpt>
      <trkpt lat="47.46168" lon="-2.32954">
        <ele>29.8</ele>
        <time>2020-06-06T09:05:21Z</time>
      </trkpt>
      <trkpt lat="47.46173" lon="-2.32958">
        <ele>29.9</ele>
        <time>2020-06-06T09:05:22Z</time>
      </trkpt>
      <trkpt lat="47.46179" lon="-2.32963">
        <ele>29.9</ele>
        <time>2020-06-06T09:05:23Z</time>
      </trkpt>
      <trkpt lat="47.46185" lon="-2.32968">
        <ele>30</ele>
        <time>2020-06-06T09:05:24Z</time>
      </trkpt>
      <trkpt lat="47.4619" lon="-2.32971">
        <ele>30</ele>
        <time>2020-06-06T09:05:25Z</time>
      </trkpt>
      <trkpt lat="47.46195" lon="-2.32976">
        <ele>30</ele>
        <time>2020-06-06T09:05:26Z</time>
      </trkpt>
      <trkpt lat="47.462" lon="-2.3298">
        <ele>30</ele>
        <time>2020-06-06T09:05:27Z</time>
      </trkpt>
      <trkpt lat="47.46203" lon="-2.32984">
        <ele>30</ele>
        <time>2020-06-06T09:05:28Z</time>
      </trkpt>
      <trkpt lat="47.46208" lon="-2.32989">
        <ele>30.1</ele>
        <time>2020-06-06T09:05:29Z</time>
      </trkpt>
      <trkpt lat="47.46214" lon="-2.32994">
        <ele>30.1</ele>
        <time>2020-06-06T09:05:30Z</time>
      </trkpt>
      <trkpt lat="47.46219" lon="-2.32998">
        <ele>30.1</ele>
        <time>2020-06-06T09:05:31Z</time>
      </trkpt>
      <trkpt lat="47.46224" lon="-2.33003">
        <ele>30.1</ele>
        <time>2020-06-06T09:05:32Z</time>
      </trkpt>
      <trkpt lat="47.46229" lon="-2.33007">
        <ele>30.1</ele>
        <time>2020-06-06T09:05:33Z</time>
      </trkpt>
      <trkpt lat="47.46235" lon="-2.33012">
        <ele>30.1</ele>
        <time>2020-06-06T09:05:34Z</time>
      </trkpt>
      <trkpt lat="47.46239" lon="-2.33017">
        <ele>30.2</ele>
        <time>2020-06-06T09:05:35Z</time>
      </trkpt>
      <trkpt lat="47.46244" lon="-2.33023">
        <ele>30.2</ele>
        <time>2020-06-06T09:05:36Z</time>
      </trkpt>
      <trkpt lat="47.46249" lon="-2.33028">
        <ele>30.3</ele>
        <time>2020-06-06T09:05:37Z</time>
      </trkpt>
      <trkpt lat="47.46254" lon="-2.33032">
        <ele>30.3</ele>
        <time>2020-06-06T09:05:38Z</time>
      </trkpt>
      <trkpt lat="47.4626" lon="-2.33038">
        <ele>30.4</ele>
        <time>2020-06-06T09:05:39Z</time>
      </trkpt>
      <trkpt lat="47.46265" lon="-2.33043">
        <ele>30.5</ele>
        <time>2020-06-06T09:05:40Z</time>
      </trkpt>
      <trkpt lat="47.4627" lon="-2.33048">
        <ele>30.6</ele>
        <time>2020-06-06T09:05:41Z</time>
      </trkpt>
      <trkpt lat="47.46274" lon="-2.33053">
        <ele>30.7</ele>
        <time>2020-06-06T09:05:42Z</time>
      </trkpt>
      <trkpt lat="47.46279" lon="-2.33058">
        <ele>30.8</ele>
        <time>2020-06-06T09:05:43Z</time>
      </trkpt>
      <trkpt lat="47.46284" lon="-2.33063">
        <ele>30.9</ele>
        <time>2020-06-06T09:05:44Z</time>
      </trkpt>
      <trkpt lat="47.46289" lon="-2.33068">
        <ele>31</ele>
        <time>2020-06-06T09:05:45Z</time>
      </trkpt>
      <trkpt lat="47.46295" lon="-2.33073">
        <ele>31.1</ele>
        <time>2020-06-06T09:05:46Z</time>
      </trkpt>
      <trkpt lat="47.46301" lon="-2.33078">
        <ele>31.3</ele>
        <time>2020-06-06T09:05:47Z</time>
      </trkpt>
      <trkpt lat="47.46305" lon="-2.33084">
        <ele>31.4</ele>
        <time>2020-06-06T09:05:48Z</time>
      </trkpt>
      <trkpt lat="47.46311" lon="-2.33089">
        <ele>31.6</ele>
        <time>2020-06-06T09:05:49Z</time>
      </trkpt>
      <trkpt lat="47.46317" lon="-2.33094">
        <ele>31.8</ele>
        <time>2020-06-06T09:05:50Z</time>
      </trkpt>
      <trkpt lat="47.46321" lon="-2.33097">
        <ele>31.9</ele>
        <time>2020-06-06T09:05:51Z</time>
      </trkpt>
      <trkpt lat="47.46325" lon="-2.33101">
        <ele>32</ele>
        <time>2020-06-06T09:05:52Z</time>
      </trkpt>
      <trkpt lat="47.46329" lon="-2.33106">
        <ele>32.2</ele>
        <time>2020-06-06T09:05:53Z</time>
      </trkpt>
      <trkpt lat="47.46333" lon="-2.3311">
        <ele>32.3</ele>
        <time>2020-06-06T09:05:54Z</time>
      </trkpt>
      <trkpt lat="47.46338" lon="-2.33113">
        <ele>32.4</ele>
        <time>2020-06-06T09:05:55Z</time>
      </trkpt>
      <trkpt lat="47.46343" lon="-2.33118">
        <ele>32.6</ele>
        <time>2020-06-06T09:05:56Z</time>
      </trkpt>
      <trkpt lat="47.46347" lon="-2.33121">
        <ele>32.7</ele>
        <time>2020-06-06T09:05:57Z</time>
      </trkpt>
      <trkpt lat="47.46352" lon="-2.33123">
        <ele>32.8</ele>
        <time>2020-06-06T09:05:58Z</time>
      </trkpt>
      <trkpt lat="47.46355" lon="-2.33125">
        <ele>32.9</ele>
        <time>2020-06-06T09:05:59Z</time>
      </trkpt>
      <trkpt lat="47.46359" lon="-2.33128">
        <ele>33.1</ele>
        <time>2020-06-06T09:06:00Z</time>
      </trkpt>
      <trkpt lat="47.46363" lon="-2.3313">
        <ele>33.2</ele>
        <time>2020-06-06T09:06:01Z</time>
      </trkpt>
      <trkpt lat="47.46368" lon="-2.33132">
        <ele>33.4</ele>
        <time>2020-06-06T09:06:02Z</time>
      </trkpt>
      <trkpt lat="47.46373" lon="-2.33134">
        <ele>33.5</ele>
        <time>2020-06-06T09:06:03Z</time>
      </trkpt>
      <trkpt lat="47.46379" lon="-2.33137">
        <ele>33.8</ele>
        <time>2020-06-06T09:06:04Z</time>
      </trkpt>
      <trkpt lat="47.46385" lon="-2.33139">
        <ele>34</ele>
        <time>2020-06-06T09:06:05Z</time>
      </trkpt>
      <trkpt lat="47.4639" lon="-2.33142">
        <ele>34.1</ele>
        <time>2020-06-06T09:06:06Z</time>
      </trkpt>
      <trkpt lat="47.46395" lon="-2.33145">
        <ele>34.3</ele>
        <time>2020-06-06T09:06:07Z</time>
      </trkpt>
      <trkpt lat="47.46399" lon="-2.33147">
        <ele>34.5</ele>
        <time>2020-06-06T09:06:08Z</time>
      </trkpt>
      <trkpt lat="47.46403" lon="-2.33149">
        <ele>34.6</ele>
        <time>2020-06-06T09:06:09Z</time>
      </trkpt>
      <trkpt lat="47.46407" lon="-2.33151">
        <ele>34.7</ele>
        <time>2020-06-06T09:06:10Z</time>
      </trkpt>
      <trkpt lat="47.46412" lon="-2.33153">
        <ele>34.8</ele>
        <time>2020-06-06T09:06:11Z</time>
      </trkpt>
      <trkpt lat="47.46418" lon="-2.33154">
        <ele>35</ele>
        <time>2020-06-06T09:06:12Z</time>
      </trkpt>
      <trkpt lat="47.46423" lon="-2.33157">
        <ele>35</ele>
        <time>2020-06-06T09:06:13Z</time>
      </trkpt>
      <trkpt lat="47.46428" lon="-2.33159">
        <ele>35</ele>
        <time>2020-06-06T09:06:14Z</time>
      </trkpt>
      <trkpt lat="47.46433" lon="-2.33162">
        <ele>35.1</ele>
        <time>2020-06-06T09:06:15Z</time>
      </trkpt>
      <trkpt lat="47.46438" lon="-2.33164">
        <ele>35.1</ele>
        <time>2020-06-06T09:06:16Z</time>
      </trkpt>
      <trkpt lat="47.46444" lon="-2.33167">
        <ele>35.1</ele>
        <time>2020-06-06T09:06:17Z</time>
      </trkpt>
      <trkpt lat="47.46448" lon="-2.3317">
        <ele>35.1</ele>
        <time>2020-06-06T09:06:18Z</time>
      </trkpt>
      <trkpt lat="47.46454" lon="-2.33173">
        <ele>35.2</ele>
        <time>2020-06-06T09:06:19Z</time>
      </trkpt>
      <trkpt lat="47.46459" lon="-2.33175">
        <ele>35.2</ele>
        <time>2020-06-06T09:06:20Z</time>
      </trkpt>
      <trkpt lat="47.46464" lon="-2.33178">
        <ele>35.2</ele>
        <time>2020-06-06T09:06:21Z</time>
      </trkpt>
      <trkpt lat="47.46469" lon="-2.3318">
        <ele>35.2</ele>
        <time>2020-06-06T09:06:22Z</time>
      </trkpt>
      <trkpt lat="47.46474" lon="-2.33183">
        <ele>35.1</ele>
        <time>2020-06-06T09:06:23Z</time>
      </trkpt>
      <trkpt lat="47.46479" lon="-2.33186">
        <ele>35.1</ele>
        <time>2020-06-06T09:06:24Z</time>
      </trkpt>
      <trkpt lat="47.46484" lon="-2.33188">
        <ele>35</ele>
        <time>2020-06-06T09:06:25Z</time>
      </trkpt>
      <trkpt lat="47.4649" lon="-2.33191">
        <ele>35</ele>
        <time>2020-06-06T09:06:26Z</time>
      </trkpt>
      <trkpt lat="47.46495" lon="-2.33194">
        <ele>35</ele>
        <time>2020-06-06T09:06:27Z</time>
      </trkpt>
      <trkpt lat="47.465" lon="-2.33197">
        <ele>34.9</ele>
        <time>2020-06-06T09:06:28Z</time>
      </trkpt>
      <trkpt lat="47.46506" lon="-2.33201">
        <ele>34.8</ele>
        <time>2020-06-06T09:06:29Z</time>
      </trkpt>
      <trkpt lat="47.46511" lon="-2.33204">
        <ele>34.8</ele>
        <time>2020-06-06T09:06:30Z</time>
      </trkpt>
      <trkpt lat="47.46517" lon="-2.33208">
        <ele>34.7</ele>
        <time>2020-06-06T09:06:31Z</time>
      </trkpt>
      <trkpt lat="47.46523" lon="-2.33212">
        <ele>34.6</ele>
        <time>2020-06-06T09:06:32Z</time>
      </trkpt>
      <trkpt lat="47.46529" lon="-2.33215">
        <ele>34.5</ele>
        <time>2020-06-06T09:06:33Z</time>
      </trkpt>
      <trkpt lat="47.46536" lon="-2.33218">
        <ele>34.3</ele>
        <time>2020-06-06T09:06:34Z</time>
      </trkpt>
      <trkpt lat="47.46541" lon="-2.33221">
        <ele>34.2</ele>
        <time>2020-06-06T09:06:35Z</time>
      </trkpt>
      <trkpt lat="47.46548" lon="-2.33225">
        <ele>34.1</ele>
        <time>2020-06-06T09:06:36Z</time>
      </trkpt>
      <trkpt lat="47.46554" lon="-2.33228">
        <ele>34</ele>
        <time>2020-06-06T09:06:37Z</time>
      </trkpt>
      <trkpt lat="47.46561" lon="-2.33232">
        <ele>33.8</ele>
        <time>2020-06-06T09:06:38Z</time>
      </trkpt>
      <trkpt lat="47.46568" lon="-2.33235">
        <ele>33.6</ele>
        <time>2020-06-06T09:06:39Z</time>
      </trkpt>
      <trkpt lat="47.46575" lon="-2.33239">
        <ele>33.4</ele>
        <time>2020-06-06T09:06:40Z</time>
      </trkpt>
      <trkpt lat="47.46582" lon="-2.33243">
        <ele>33.2</ele>
        <time>2020-06-06T09:06:41Z</time>
      </trkpt>
      <trkpt lat="47.46589" lon="-2.33247">
        <ele>33.2</ele>
        <time>2020-06-06T09:06:42Z</time>
      </trkpt>
      <trkpt lat="47.46595" lon="-2.33252">
        <ele>33.2</ele>
        <time>2020-06-06T09:06:43Z</time>
      </trkpt>
      <trkpt lat="47.46601" lon="-2.33256">
        <ele>33.2</ele>
        <time>2020-06-06T09:06:44Z</time>
      </trkpt>
      <trkpt lat="47.46608" lon="-2.33262">
        <ele>33.2</ele>
        <time>2020-06-06T09:06:45Z</time>
      </trkpt>
      <trkpt lat="47.46614" lon="-2.33266">
        <ele>33.3</ele>
        <time>2020-06-06T09:06:46Z</time>
      </trkpt>
      <trkpt lat="47.46619" lon="-2.33271">
        <ele>33.3</ele>
        <time>2020-06-06T09:06:47Z</time>
      </trkpt>
      <trkpt lat="47.46625" lon="-2.33276">
        <ele>33.4</ele>
        <time>2020-06-06T09:06:48Z</time>
      </trkpt>
      <trkpt lat="47.46631" lon="-2.33281">
        <ele>33.5</ele>
        <time>2020-06-06T09:06:49Z</time>
      </trkpt>
      <trkpt lat="47.46636" lon="-2.33287">
        <ele>33.6</ele>
        <time>2020-06-06T09:06:50Z</time>
      </trkpt>
      <trkpt lat="47.46641" lon="-2.33292">
        <ele>33.7</ele>
        <time>2020-06-06T09:06:51Z</time>
      </trkpt>
      <trkpt lat="47.46646" lon="-2.33297">
        <ele>33.8</ele>
        <time>2020-06-06T09:06:52Z</time>
      </trkpt>
      <trkpt lat="47.46651" lon="-2.33303">
        <ele>33.8</ele>
        <time>2020-06-06T09:06:53Z</time>
      </trkpt>
      <trkpt lat="47.46655" lon="-2.33309">
        <ele>33.9</ele>
        <time>2020-06-06T09:06:54Z</time>
      </trkpt>
      <trkpt lat="47.46661" lon="-2.33313">
        <ele>34</ele>
        <time>2020-06-06T09:06:55Z</time>
      </trkpt>
      <trkpt lat="47.46667" lon="-2.33317">
        <ele>34</ele>
        <time>2020-06-06T09:06:56Z</time>
      </trkpt>
      <trkpt lat="47.46672" lon="-2.33321">
        <ele>34.1</ele>
        <time>2020-06-06T09:06:57Z</time>
      </trkpt>
      <trkpt lat="47.46677" lon="-2.33325">
        <ele>34.2</ele>
        <time>2020-06-06T09:06:58Z</time>
      </trkpt>
      <trkpt lat="47.46683" lon="-2.33329">
        <ele>34.3</ele>
        <time>2020-06-06T09:06:59Z</time>
      </trkpt>
      <trkpt lat="47.46689" lon="-2.33333">
        <ele>34.4</ele>
        <time>2020-06-06T09:07:00Z</time>
      </trkpt>
      <trkpt lat="47.46693" lon="-2.33338">
        <ele>34.5</ele>
        <time>2020-06-06T09:07:01Z</time>
      </trkpt>
      <trkpt lat="47.46698" lon="-2.33343">
        <ele>34.6</ele>
        <time>2020-06-06T09:07:02Z</time>
      </trkpt>
      <trkpt lat="47.46702" lon="-2.33346">
        <ele>34.7</ele>
        <time>2020-06-06T09:07:03Z</time>
      </trkpt>
      <trkpt lat="47.46707" lon="-2.3335">
        <ele>34.8</ele>
        <time>2020-06-06T09:07:04Z</time>
      </trkpt>
      <trkpt lat="47.46713" lon="-2.33354">
        <ele>34.9</ele>
        <time>2020-06-06T09:07:05Z</time>
      </trkpt>
      <trkpt lat="47.46718" lon="-2.33357">
        <ele>35</ele>
        <time>2020-06-06T09:07:06Z</time>
      </trkpt>
      <trkpt lat="47.46723" lon="-2.33359">
        <ele>35.1</ele>
        <time>2020-06-06T09:07:07Z</time>
      </trkpt>
      <trkpt lat="47.46727" lon="-2.33362">
        <ele>35.2</ele>
        <time>2020-06-06T09:07:08Z</time>
      </trkpt>
      <trkpt lat="47.46732" lon="-2.33365">
        <ele>35.2</ele>
        <time>2020-06-06T09:07:09Z</time>
      </trkpt>
      <trkpt lat="47.46737" lon="-2.33368">
        <ele>35.3</ele>
        <time>2020-06-06T09:07:10Z</time>
      </trkpt>
      <trkpt lat="47.46742" lon="-2.33371">
        <ele>35.4</ele>
        <time>2020-06-06T09:07:11Z</time>
      </trkpt>
      <trkpt lat="47.46747" lon="-2.33372">
        <ele>35.5</ele>
        <time>2020-06-06T09:07:12Z</time>
      </trkpt>
      <trkpt lat="47.46752" lon="-2.33374">
        <ele>35.6</ele>
        <time>2020-06-06T09:07:13Z</time>
      </trkpt>
      <trkpt lat="47.46758" lon="-2.33375">
        <ele>35.7</ele>
        <time>2020-06-06T09:07:14Z</time>
      </trkpt>
      <trkpt lat="47.46763" lon="-2.33376">
        <ele>35.8</ele>
        <time>2020-06-06T09:07:15Z</time>
      </trkpt>
      <trkpt lat="47.46769" lon="-2.33377">
        <ele>35.9</ele>
        <time>2020-06-06T09:07:16Z</time>
      </trkpt>
      <trkpt lat="47.46775" lon="-2.33379">
        <ele>36</ele>
        <time>2020-06-06T09:07:17Z</time>
      </trkpt>
      <trkpt lat="47.46781" lon="-2.33381">
        <ele>36.1</ele>
        <time>2020-06-06T09:07:18Z</time>
      </trkpt>
      <trkpt lat="47.46787" lon="-2.33383">
        <ele>36.2</ele>
        <time>2020-06-06T09:07:19Z</time>
      </trkpt>
      <trkpt lat="47.46793" lon="-2.33386">
        <ele>36.3</ele>
        <time>2020-06-06T09:07:20Z</time>
      </trkpt>
      <trkpt lat="47.46799" lon="-2.33387">
        <ele>36.4</ele>
        <time>2020-06-06T09:07:21Z</time>
      </trkpt>
      <trkpt lat="47.46804" lon="-2.33389">
        <ele>36.5</ele>
        <time>2020-06-06T09:07:22Z</time>
      </trkpt>
      <trkpt lat="47.4681" lon="-2.3339">
        <ele>36.6</ele>
        <time>2020-06-06T09:07:23Z</time>
      </trkpt>
      <trkpt lat="47.46816" lon="-2.33393">
        <ele>36.7</ele>
        <time>2020-06-06T09:07:24Z</time>
      </trkpt>
      <trkpt lat="47.46821" lon="-2.33396">
        <ele>36.8</ele>
        <time>2020-06-06T09:07:25Z</time>
      </trkpt>
      <trkpt lat="47.46827" lon="-2.33397">
        <ele>36.9</ele>
        <time>2020-06-06T09:07:26Z</time>
      </trkpt>
      <trkpt lat="47.46832" lon="-2.334">
        <ele>37</ele>
        <time>2020-06-06T09:07:27Z</time>
      </trkpt>
      <trkpt lat="47.46838" lon="-2.33402">
        <ele>37.1</ele>
        <time>2020-06-06T09:07:28Z</time>
      </trkpt>
      <trkpt lat="47.46843" lon="-2.33403">
        <ele>37.1</ele>
        <time>2020-06-06T09:07:29Z</time>
      </trkpt>
      <trkpt lat="47.46849" lon="-2.33406">
        <ele>37.2</ele>
        <time>2020-06-06T09:07:30Z</time>
      </trkpt>
      <trkpt lat="47.46855" lon="-2.33408">
        <ele>37.2</ele>
        <time>2020-06-06T09:07:31Z</time>
      </trkpt>
      <trkpt lat="47.46861" lon="-2.33411">
        <ele>37.1</ele>
        <time>2020-06-06T09:07:32Z</time>
      </trkpt>
      <trkpt lat="47.46866" lon="-2.33413">
        <ele>37.1</ele>
        <time>2020-06-06T09:07:33Z</time>
      </trkpt>
      <trkpt lat="47.46871" lon="-2.33415">
        <ele>37.1</ele>
        <time>2020-06-06T09:07:34Z</time>
      </trkpt>
      <trkpt lat="47.46877" lon="-2.33417">
        <ele>37</ele>
        <time>2020-06-06T09:07:35Z</time>
      </trkpt>
      <trkpt lat="47.46883" lon="-2.33419">
        <ele>37</ele>
        <time>2020-06-06T09:07:36Z</time>
      </trkpt>
      <trkpt lat="47.4689" lon="-2.33421">
        <ele>36.9</ele>
        <time>2020-06-06T09:07:37Z</time>
      </trkpt>
      <trkpt lat="47.46896" lon="-2.33423">
        <ele>36.8</ele>
        <time>2020-06-06T09:07:38Z</time>
      </trkpt>
      <trkpt lat="47.46903" lon="-2.33426">
        <ele>36.7</ele>
        <time>2020-06-06T09:07:39Z</time>
      </trkpt>
      <trkpt lat="47.46909" lon="-2.33429">
        <ele>36.6</ele>
        <time>2020-06-06T09:07:40Z</time>
      </trkpt>
      <trkpt lat="47.46915" lon="-2.33432">
        <ele>36.6</ele>
        <time>2020-06-06T09:07:41Z</time>
      </trkpt>
      <trkpt lat="47.46922" lon="-2.33435">
        <ele>36.5</ele>
        <time>2020-06-06T09:07:42Z</time>
      </trkpt>
      <trkpt lat="47.46929" lon="-2.33437">
        <ele>36.4</ele>
        <time>2020-06-06T09:07:43Z</time>
      </trkpt>
      <trkpt lat="47.46936" lon="-2.33439">
        <ele>36.3</ele>
        <time>2020-06-06T09:07:44Z</time>
      </trkpt>
      <trkpt lat="47.46942" lon="-2.33442">
        <ele>36.2</ele>
        <time>2020-06-06T09:07:45Z</time>
      </trkpt>
      <trkpt lat="47.46949" lon="-2.33446">
        <ele>36</ele>
        <time>2020-06-06T09:07:46Z</time>
      </trkpt>
      <trkpt lat="47.46956" lon="-2.33448">
        <ele>35.9</ele>
        <time>2020-06-06T09:07:47Z</time>
      </trkpt>
      <trkpt lat="47.46963" lon="-2.3345">
        <ele>35.8</ele>
        <time>2020-06-06T09:07:48Z</time>
      </trkpt>
      <trkpt lat="47.4697" lon="-2.33453">
        <ele>35.6</ele>
        <time>2020-06-06T09:07:49Z</time>
      </trkpt>
      <trkpt lat="47.46976" lon="-2.33455">
        <ele>35.4</ele>
        <time>2020-06-06T09:07:50Z</time>
      </trkpt>
      <trkpt lat="47.46984" lon="-2.33458">
        <ele>35.2</ele>
        <time>2020-06-06T09:07:51Z</time>
      </trkpt>
      <trkpt lat="47.46991" lon="-2.3346">
        <ele>35.1</ele>
        <time>2020-06-06T09:07:52Z</time>
      </trkpt>
      <trkpt lat="47.46998" lon="-2.33462">
        <ele>34.9</ele>
        <time>2020-06-06T09:07:53Z</time>
      </trkpt>
      <trkpt lat="47.47006" lon="-2.33464">
        <ele>34.8</ele>
        <time>2020-06-06T09:07:54Z</time>
      </trkpt>
      <trkpt lat="47.47014" lon="-2.33467">
        <ele>34.6</ele>
        <time>2020-06-06T09:07:55Z</time>
      </trkpt>
      <trkpt lat="47.4702" lon="-2.33471">
        <ele>34.5</ele>
        <time>2020-06-06T09:07:56Z</time>
      </trkpt>
      <trkpt lat="47.47026" lon="-2.33475">
        <ele>34.3</ele>
        <time>2020-06-06T09:07:57Z</time>
      </trkpt>
      <trkpt lat="47.47033" lon="-2.3348">
        <ele>34.1</ele>
        <time>2020-06-06T09:07:58Z</time>
      </trkpt>
      <trkpt lat="47.4704" lon="-2.33485">
        <ele>33.9</ele>
        <time>2020-06-06T09:07:59Z</time>
      </trkpt>
      <trkpt lat="47.47047" lon="-2.3349">
        <ele>33.7</ele>
        <time>2020-06-06T09:08:00Z</time>
      </trkpt>
      <trkpt lat="47.47053" lon="-2.33495">
        <ele>33.5</ele>
        <time>2020-06-06T09:08:01Z</time>
      </trkpt>
      <trkpt lat="47.4706" lon="-2.335">
        <ele>33.2</ele>
        <time>2020-06-06T09:08:02Z</time>
      </trkpt>
      <trkpt lat="47.47067" lon="-2.33504">
        <ele>33</ele>
        <time>2020-06-06T09:08:03Z</time>
      </trkpt>
      <trkpt lat="47.47075" lon="-2.33507">
        <ele>32.8</ele>
        <time>2020-06-06T09:08:04Z</time>
      </trkpt>
      <trkpt lat="47.47084" lon="-2.33509">
        <ele>32.7</ele>
        <time>2020-06-06T09:08:05Z</time>
      </trkpt>
      <trkpt lat="47.47092" lon="-2.33509">
        <ele>32.5</ele>
        <time>2020-06-06T09:08:06Z</time>
      </trkpt>
      <trkpt lat="47.471" lon="-2.33509">
        <ele>32.5</ele>
        <time>2020-06-06T09:08:07Z</time>
      </trkpt>
      <trkpt lat="47.47108" lon="-2.3351">
        <ele>32.4</ele>
        <time>2020-06-06T09:08:08Z</time>
      </trkpt>
      <trkpt lat="47.47116" lon="-2.33508">
        <ele>32.4</ele>
        <time>2020-06-06T09:08:09Z</time>
      </trkpt>
      <trkpt lat="47.47124" lon="-2.33504">
        <ele>32.4</ele>
        <time>2020-06-06T09:08:10Z</time>
      </trkpt>
      <trkpt lat="47.47131" lon="-2.335">
        <ele>32.4</ele>
        <time>2020-06-06T09:08:11Z</time>
      </trkpt>
      <trkpt lat="47.47139" lon="-2.33497">
        <ele>32.5</ele>
        <time>2020-06-06T09:08:12Z</time>
      </trkpt>
      <trkpt lat="47.47146" lon="-2.33493">
        <ele>32.6</ele>
        <time>2020-06-06T09:08:13Z</time>
      </trkpt>
      <trkpt lat="47.47153" lon="-2.3349">
        <ele>32.8</ele>
        <time>2020-06-06T09:08:14Z</time>
      </trkpt>
      <trkpt lat="47.47159" lon="-2.33485">
        <ele>33</ele>
        <time>2020-06-06T09:08:15Z</time>
      </trkpt>
      <trkpt lat="47.47166" lon="-2.33481">
        <ele>33.3</ele>
        <time>2020-06-06T09:08:16Z</time>
      </trkpt>
      <trkpt lat="47.47172" lon="-2.33477">
        <ele>33.5</ele>
        <time>2020-06-06T09:08:17Z</time>
      </trkpt>
      <trkpt lat="47.47178" lon="-2.33473">
        <ele>33.7</ele>
        <time>2020-06-06T09:08:18Z</time>
      </trkpt>
      <trkpt lat="47.47184" lon="-2.3347">
        <ele>33.9</ele>
        <time>2020-06-06T09:08:19Z</time>
      </trkpt>
      <trkpt lat="47.4719" lon="-2.33466">
        <ele>34.2</ele>
        <time>2020-06-06T09:08:20Z</time>
      </trkpt>
      <trkpt lat="47.47196" lon="-2.33463">
        <ele>34.4</ele>
        <time>2020-06-06T09:08:21Z</time>
      </trkpt>
      <trkpt lat="47.47202" lon="-2.33459">
        <ele>34.6</ele>
        <time>2020-06-06T09:08:22Z</time>
      </trkpt>
      <trkpt lat="47.47208" lon="-2.33456">
        <ele>34.8</ele>
        <time>2020-06-06T09:08:23Z</time>
      </trkpt>
      <trkpt lat="47.47214" lon="-2.33453">
        <ele>35</ele>
        <time>2020-06-06T09:08:24Z</time>
      </trkpt>
      <trkpt lat="47.4722" lon="-2.33449">
        <ele>35.2</ele>
        <time>2020-06-06T09:08:25Z</time>
      </trkpt>
      <trkpt lat="47.47226" lon="-2.33445">
        <ele>35.4</ele>
        <time>2020-06-06T09:08:26Z</time>
      </trkpt>
      <trkpt lat="47.47232" lon="-2.33441">
        <ele>35.5</ele>
        <time>2020-06-06T09:08:27Z</time>
      </trkpt>
      <trkpt lat="47.47238" lon="-2.33438">
        <ele>35.7</ele>
        <time>2020-06-06T09:08:28Z</time>
      </trkpt>
      <trkpt lat="47.47244" lon="-2.33435">
        <ele>35.8</ele>
        <time>2020-06-06T09:08:29Z</time>
      </trkpt>
      <trkpt lat="47.47251" lon="-2.33433">
        <ele>35.9</ele>
        <time>2020-06-06T09:08:30Z</time>
      </trkpt>
      <trkpt lat="47.47257" lon="-2.33431">
        <ele>36.1</ele>
        <time>2020-06-06T09:08:31Z</time>
      </trkpt>
      <trkpt lat="47.47263" lon="-2.33429">
        <ele>36.3</ele>
        <time>2020-06-06T09:08:32Z</time>
      </trkpt>
      <trkpt lat="47.47269" lon="-2.33428">
        <ele>36.5</ele>
        <time>2020-06-06T09:08:33Z</time>
      </trkpt>
      <trkpt lat="47.47275" lon="-2.33426">
        <ele>36.6</ele>
        <time>2020-06-06T09:08:34Z</time>
      </trkpt>
      <trkpt lat="47.47281" lon="-2.33425">
        <ele>36.6</ele>
        <time>2020-06-06T09:08:35Z</time>
      </trkpt>
      <trkpt lat="47.47287" lon="-2.33425">
        <ele>36.7</ele>
        <time>2020-06-06T09:08:36Z</time>
      </trkpt>
      <trkpt lat="47.47292" lon="-2.33425">
        <ele>36.7</ele>
        <time>2020-06-06T09:08:37Z</time>
      </trkpt>
      <trkpt lat="47.47298" lon="-2.33426">
        <ele>36.8</ele>
        <time>2020-06-06T09:08:38Z</time>
      </trkpt>
      <trkpt lat="47.47304" lon="-2.33427">
        <ele>36.8</ele>
        <time>2020-06-06T09:08:39Z</time>
      </trkpt>
      <trkpt lat="47.4731" lon="-2.33427">
        <ele>36.8</ele>
        <time>2020-06-06T09:08:40Z</time>
      </trkpt>
      <trkpt lat="47.47317" lon="-2.33427">
        <ele>36.7</ele>
        <time>2020-06-06T09:08:41Z</time>
      </trkpt>
      <trkpt lat="47.47323" lon="-2.33427">
        <ele>36.7</ele>
        <time>2020-06-06T09:08:42Z</time>
      </trkpt>
      <trkpt lat="47.47329" lon="-2.33427">
        <ele>36.7</ele>
        <time>2020-06-06T09:08:43Z</time>
      </trkpt>
      <trkpt lat="47.47335" lon="-2.33428">
        <ele>36.7</ele>
        <time>2020-06-06T09:08:44Z</time>
      </trkpt>
      <trkpt lat="47.47341" lon="-2.33429">
        <ele>36.7</ele>
        <time>2020-06-06T09:08:45Z</time>
      </trkpt>
      <trkpt lat="47.47347" lon="-2.33431">
        <ele>36.7</ele>
        <time>2020-06-06T09:08:46Z</time>
      </trkpt>
      <trkpt lat="47.47352" lon="-2.33432">
        <ele>36.7</ele>
        <time>2020-06-06T09:08:47Z</time>
      </trkpt>
      <trkpt lat="47.47358" lon="-2.33434">
        <ele>36.7</ele>
        <time>2020-06-06T09:08:48Z</time>
      </trkpt>
      <trkpt lat="47.47364" lon="-2.33437">
        <ele>36.8</ele>
        <time>2020-06-06T09:08:49Z</time>
      </trkpt>
      <trkpt lat="47.4737" lon="-2.33438">
        <ele>36.8</ele>
        <time>2020-06-06T09:08:50Z</time>
      </trkpt>
      <trkpt lat="47.47376" lon="-2.3344">
        <ele>36.8</ele>
        <time>2020-06-06T09:08:51Z</time>
      </trkpt>
      <trkpt lat="47.47382" lon="-2.33443">
        <ele>36.8</ele>
        <time>2020-06-06T09:08:52Z</time>
      </trkpt>
      <trkpt lat="47.47388" lon="-2.33446">
        <ele>36.8</ele>
        <time>2020-06-06T09:08:53Z</time>
      </trkpt>
      <trkpt lat="47.47393" lon="-2.3345">
        <ele>36.8</ele>
        <time>2020-06-06T09:08:54Z</time>
      </trkpt>
      <trkpt lat="47.47399" lon="-2.33453">
        <ele>36.8</ele>
        <time>2020-06-06T09:08:55Z</time>
      </trkpt>
      <trkpt lat="47.47404" lon="-2.33457">
        <ele>36.8</ele>
        <time>2020-06-06T09:08:56Z</time>
      </trkpt>
      <trkpt lat="47.4741" lon="-2.3346">
        <ele>36.7</ele>
        <time>2020-06-06T09:08:57Z</time>
      </trkpt>
      <trkpt lat="47.47416" lon="-2.33464">
        <ele>36.7</ele>
        <time>2020-06-06T09:08:58Z</time>
      </trkpt>
      <trkpt lat="47.47421" lon="-2.33467">
        <ele>36.6</ele>
        <time>2020-06-06T09:08:59Z</time>
      </trkpt>
      <trkpt lat="47.47428" lon="-2.33471">
        <ele>36.5</ele>
        <time>2020-06-06T09:09:00Z</time>
      </trkpt>
      <trkpt lat="47.47434" lon="-2.33475">
        <ele>36.3</ele>
        <time>2020-06-06T09:09:01Z</time>
      </trkpt>
      <trkpt lat="47.47441" lon="-2.33479">
        <ele>36.2</ele>
        <time>2020-06-06T09:09:02Z</time>
      </trkpt>
      <trkpt lat="47.47448" lon="-2.33482">
        <ele>35.9</ele>
        <time>2020-06-06T09:09:03Z</time>
      </trkpt>
      <trkpt lat="47.47456" lon="-2.33485">
        <ele>35.7</ele>
        <time>2020-06-06T09:09:04Z</time>
      </trkpt>
      <trkpt lat="47.47463" lon="-2.33489">
        <ele>35.5</ele>
        <time>2020-06-06T09:09:05Z</time>
      </trkpt>
      <trkpt lat="47.4747" lon="-2.33492">
        <ele>35.2</ele>
        <time>2020-06-06T09:09:06Z</time>
      </trkpt>
      <trkpt lat="47.47478" lon="-2.33496">
        <ele>34.9</ele>
        <time>2020-06-06T09:09:07Z</time>
      </trkpt>
      <trkpt lat="47.47486" lon="-2.33499">
        <ele>34.6</ele>
        <time>2020-06-06T09:09:08Z</time>
      </trkpt>
      <trkpt lat="47.47493" lon="-2.33503">
        <ele>34.3</ele>
        <time>2020-06-06T09:09:09Z</time>
      </trkpt>
      <trkpt lat="47.47501" lon="-2.33506">
        <ele>34</ele>
        <time>2020-06-06T09:09:10Z</time>
      </trkpt>
      <trkpt lat="47.47509" lon="-2.33509">
        <ele>33.8</ele>
        <time>2020-06-06T09:09:11Z</time>
      </trkpt>
      <trkpt lat="47.47517" lon="-2.33513">
        <ele>33.6</ele>
        <time>2020-06-06T09:09:12Z</time>
      </trkpt>
      <trkpt lat="47.47525" lon="-2.33517">
        <ele>33.4</ele>
        <time>2020-06-06T09:09:13Z</time>
      </trkpt>
      <trkpt lat="47.47532" lon="-2.3352">
        <ele>33.3</ele>
        <time>2020-06-06T09:09:14Z</time>
      </trkpt>
      <trkpt lat="47.4754" lon="-2.33524">
        <ele>33.2</ele>
        <time>2020-06-06T09:09:15Z</time>
      </trkpt>
      <trkpt lat="47.47548" lon="-2.33527">
        <ele>33</ele>
        <time>2020-06-06T09:09:16Z</time>
      </trkpt>
      <trkpt lat="47.47555" lon="-2.3353">
        <ele>32.9</ele>
        <time>2020-06-06T09:09:17Z</time>
      </trkpt>
      <trkpt lat="47.47562" lon="-2.33532">
        <ele>32.8</ele>
        <time>2020-06-06T09:09:18Z</time>
      </trkpt>
      <trkpt lat="47.47569" lon="-2.33535">
        <ele>32.8</ele>
        <time>2020-06-06T09:09:19Z</time>
      </trkpt>
      <trkpt lat="47.47576" lon="-2.33537">
        <ele>32.8</ele>
        <time>2020-06-06T09:09:20Z</time>
      </trkpt>
      <trkpt lat="47.47582" lon="-2.33539">
        <ele>32.9</ele>
        <time>2020-06-06T09:09:21Z</time>
      </trkpt>
      <trkpt lat="47.47588" lon="-2.33542">
        <ele>33</ele>
        <time>2020-06-06T09:09:22Z</time>
      </trkpt>
      <trkpt lat="47.47594" lon="-2.33545">
        <ele>33.2</ele>
        <time>2020-06-06T09:09:23Z</time>
      </trkpt>
      <trkpt lat="47.476" lon="-2.33547">
        <ele>33.3</ele>
        <time>2020-06-06T09:09:24Z</time>
      </trkpt>
      <trkpt lat="47.47606" lon="-2.33551">
        <ele>33.5</ele>
        <time>2020-06-06T09:09:25Z</time>
      </trkpt>
      <trkpt lat="47.47612" lon="-2.33555">
        <ele>33.7</ele>
        <time>2020-06-06T09:09:26Z</time>
      </trkpt>
      <trkpt lat="47.47617" lon="-2.3356">
        <ele>33.8</ele>
        <time>2020-06-06T09:09:27Z</time>
      </trkpt>
      <trkpt lat="47.47623" lon="-2.33563">
        <ele>34</ele>
        <time>2020-06-06T09:09:28Z</time>
      </trkpt>
      <trkpt lat="47.47629" lon="-2.33568">
        <ele>34.2</ele>
        <time>2020-06-06T09:09:29Z</time>
      </trkpt>
      <trkpt lat="47.47634" lon="-2.33573">
        <ele>34.4</ele>
        <time>2020-06-06T09:09:30Z</time>
      </trkpt>
      <trkpt lat="47.4764" lon="-2.33577">
        <ele>34.5</ele>
        <time>2020-06-06T09:09:31Z</time>
      </trkpt>
      <trkpt lat="47.47645" lon="-2.33582">
        <ele>34.7</ele>
        <time>2020-06-06T09:09:32Z</time>
      </trkpt>
      <trkpt lat="47.47651" lon="-2.33587">
        <ele>34.9</ele>
        <time>2020-06-06T09:09:33Z</time>
      </trkpt>
      <trkpt lat="47.47656" lon="-2.33592">
        <ele>35</ele>
        <time>2020-06-06T09:09:34Z</time>
      </trkpt>
      <trkpt lat="47.47661" lon="-2.33596">
        <ele>35.1</ele>
        <time>2020-06-06T09:09:35Z</time>
      </trkpt>
      <trkpt lat="47.47667" lon="-2.336">
        <ele>35.1</ele>
        <time>2020-06-06T09:09:36Z</time>
      </trkpt>
      <trkpt lat="47.47672" lon="-2.33604">
        <ele>35.2</ele>
        <time>2020-06-06T09:09:37Z</time>
      </trkpt>
      <trkpt lat="47.47678" lon="-2.33608">
        <ele>35.3</ele>
        <time>2020-06-06T09:09:38Z</time>
      </trkpt>
      <trkpt lat="47.47684" lon="-2.33612">
        <ele>35.4</ele>
        <time>2020-06-06T09:09:39Z</time>
      </trkpt>
      <trkpt lat="47.4769" lon="-2.33616">
        <ele>35.4</ele>
        <time>2020-06-06T09:09:40Z</time>
      </trkpt>
      <trkpt lat="47.47695" lon="-2.3362">
        <ele>35.5</ele>
        <time>2020-06-06T09:09:41Z</time>
      </trkpt>
      <trkpt lat="47.47702" lon="-2.33625">
        <ele>35.5</ele>
        <time>2020-06-06T09:09:42Z</time>
      </trkpt>
      <trkpt lat="47.47709" lon="-2.33631">
        <ele>35.6</ele>
        <time>2020-06-06T09:09:43Z</time>
      </trkpt>
      <trkpt lat="47.47715" lon="-2.33636">
        <ele>35.6</ele>
        <time>2020-06-06T09:09:44Z</time>
      </trkpt>
      <trkpt lat="47.47722" lon="-2.33641">
        <ele>35.7</ele>
        <time>2020-06-06T09:09:45Z</time>
      </trkpt>
      <trkpt lat="47.47727" lon="-2.33645">
        <ele>35.7</ele>
        <time>2020-06-06T09:09:46Z</time>
      </trkpt>
      <trkpt lat="47.47733" lon="-2.3365">
        <ele>35.7</ele>
        <time>2020-06-06T09:09:47Z</time>
      </trkpt>
      <trkpt lat="47.47738" lon="-2.33655">
        <ele>35.8</ele>
        <time>2020-06-06T09:09:48Z</time>
      </trkpt>
      <trkpt lat="47.47744" lon="-2.3366">
        <ele>35.8</ele>
        <time>2020-06-06T09:09:49Z</time>
      </trkpt>
      <trkpt lat="47.47751" lon="-2.33665">
        <ele>35.8</ele>
        <time>2020-06-06T09:09:50Z</time>
      </trkpt>
      <trkpt lat="47.47756" lon="-2.33669">
        <ele>35.8</ele>
        <time>2020-06-06T09:09:51Z</time>
      </trkpt>
      <trkpt lat="47.47762" lon="-2.33674">
        <ele>35.8</ele>
        <time>2020-06-06T09:09:52Z</time>
      </trkpt>
      <trkpt lat="47.47768" lon="-2.33679">
        <ele>35.9</ele>
        <time>2020-06-06T09:09:53Z</time>
      </trkpt>
      <trkpt lat="47.47773" lon="-2.33684">
        <ele>35.9</ele>
        <time>2020-06-06T09:09:54Z</time>
      </trkpt>
      <trkpt lat="47.47779" lon="-2.33689">
        <ele>35.8</ele>
        <time>2020-06-06T09:09:55Z</time>
      </trkpt>
      <trkpt lat="47.47785" lon="-2.33694">
        <ele>35.8</ele>
        <time>2020-06-06T09:09:56Z</time>
      </trkpt>
      <trkpt lat="47.4779" lon="-2.33699">
        <ele>35.8</ele>
        <time>2020-06-06T09:09:57Z</time>
      </trkpt>
      <trkpt lat="47.47796" lon="-2.33704">
        <ele>35.8</ele>
        <time>2020-06-06T09:09:58Z</time>
      </trkpt>
      <trkpt lat="47.47801" lon="-2.3371">
        <ele>35.8</ele>
        <time>2020-06-06T09:09:59Z</time>
      </trkpt>
      <trkpt lat="47.47807" lon="-2.33716">
        <ele>35.7</ele>
        <time>2020-06-06T09:10:00Z</time>
      </trkpt>
      <trkpt lat="47.47813" lon="-2.33722">
        <ele>35.6</ele>
        <time>2020-06-06T09:10:01Z</time>
      </trkpt>
      <trkpt lat="47.47818" lon="-2.33727">
        <ele>35.5</ele>
        <time>2020-06-06T09:10:02Z</time>
      </trkpt>
      <trkpt lat="47.47823" lon="-2.33735">
        <ele>35.4</ele>
        <time>2020-06-06T09:10:03Z</time>
      </trkpt>
      <trkpt lat="47.47829" lon="-2.33742">
        <ele>35.4</ele>
        <time>2020-06-06T09:10:04Z</time>
      </trkpt>
      <trkpt lat="47.47834" lon="-2.33749">
        <ele>35.3</ele>
        <time>2020-06-06T09:10:05Z</time>
      </trkpt>
      <trkpt lat="47.47839" lon="-2.33756">
        <ele>35.3</ele>
        <time>2020-06-06T09:10:06Z</time>
      </trkpt>
      <trkpt lat="47.47845" lon="-2.33762">
        <ele>35.3</ele>
        <time>2020-06-06T09:10:07Z</time>
      </trkpt>
      <trkpt lat="47.4785" lon="-2.3377">
        <ele>35.2</ele>
        <time>2020-06-06T09:10:08Z</time>
      </trkpt>
      <trkpt lat="47.47855" lon="-2.33778">
        <ele>35.2</ele>
        <time>2020-06-06T09:10:09Z</time>
      </trkpt>
      <trkpt lat="47.4786" lon="-2.33785">
        <ele>35.2</ele>
        <time>2020-06-06T09:10:10Z</time>
      </trkpt>
      <trkpt lat="47.47866" lon="-2.33792">
        <ele>35.2</ele>
        <time>2020-06-06T09:10:11Z</time>
      </trkpt>
      <trkpt lat="47.47871" lon="-2.33799">
        <ele>35.1</ele>
        <time>2020-06-06T09:10:12Z</time>
      </trkpt>
      <trkpt lat="47.47876" lon="-2.33806">
        <ele>35.1</ele>
        <time>2020-06-06T09:10:13Z</time>
      </trkpt>
      <trkpt lat="47.47881" lon="-2.33813">
        <ele>35.1</ele>
        <time>2020-06-06T09:10:14Z</time>
      </trkpt>
      <trkpt lat="47.47886" lon="-2.3382">
        <ele>35.1</ele>
        <time>2020-06-06T09:10:15Z</time>
      </trkpt>
      <trkpt lat="47.4789" lon="-2.33827">
        <ele>35</ele>
        <time>2020-06-06T09:10:16Z</time>
      </trkpt>
      <trkpt lat="47.47896" lon="-2.33833">
        <ele>35</ele>
        <time>2020-06-06T09:10:17Z</time>
      </trkpt>
      <trkpt lat="47.479" lon="-2.3384">
        <ele>35</ele>
        <time>2020-06-06T09:10:18Z</time>
      </trkpt>
      <trkpt lat="47.47905" lon="-2.33847">
        <ele>34.9</ele>
        <time>2020-06-06T09:10:19Z</time>
      </trkpt>
      <trkpt lat="47.47909" lon="-2.33854">
        <ele>34.9</ele>
        <time>2020-06-06T09:10:20Z</time>
      </trkpt>
      <trkpt lat="47.47914" lon="-2.33862">
        <ele>34.8</ele>
        <time>2020-06-06T09:10:21Z</time>
      </trkpt>
      <trkpt lat="47.47918" lon="-2.33869">
        <ele>34.7</ele>
        <time>2020-06-06T09:10:22Z</time>
      </trkpt>
      <trkpt lat="47.47922" lon="-2.33877">
        <ele>34.6</ele>
        <time>2020-06-06T09:10:23Z</time>
      </trkpt>
      <trkpt lat="47.47927" lon="-2.33886">
        <ele>34.5</ele>
        <time>2020-06-06T09:10:24Z</time>
      </trkpt>
      <trkpt lat="47.47931" lon="-2.33894">
        <ele>34.4</ele>
        <time>2020-06-06T09:10:25Z</time>
      </trkpt>
      <trkpt lat="47.47935" lon="-2.33902">
        <ele>34.3</ele>
        <time>2020-06-06T09:10:26Z</time>
      </trkpt>
      <trkpt lat="47.4794" lon="-2.3391">
        <ele>34.2</ele>
        <time>2020-06-06T09:10:27Z</time>
      </trkpt>
      <trkpt lat="47.47944" lon="-2.33917">
        <ele>34</ele>
        <time>2020-06-06T09:10:28Z</time>
      </trkpt>
      <trkpt lat="47.47949" lon="-2.33926">
        <ele>33.9</ele>
        <time>2020-06-06T09:10:29Z</time>
      </trkpt>
      <trkpt lat="47.47953" lon="-2.33934">
        <ele>33.7</ele>
        <time>2020-06-06T09:10:30Z</time>
      </trkpt>
      <trkpt lat="47.47957" lon="-2.33943">
        <ele>33.6</ele>
        <time>2020-06-06T09:10:31Z</time>
      </trkpt>
      <trkpt lat="47.47961" lon="-2.33953">
        <ele>33.4</ele>
        <time>2020-06-06T09:10:32Z</time>
      </trkpt>
      <trkpt lat="47.47966" lon="-2.33962">
        <ele>33.3</ele>
        <time>2020-06-06T09:10:33Z</time>
      </trkpt>
      <trkpt lat="47.4797" lon="-2.33971">
        <ele>33.1</ele>
        <time>2020-06-06T09:10:34Z</time>
      </trkpt>
      <trkpt lat="47.47975" lon="-2.33979">
        <ele>33</ele>
        <time>2020-06-06T09:10:35Z</time>
      </trkpt>
      <trkpt lat="47.47979" lon="-2.33989">
        <ele>32.9</ele>
        <time>2020-06-06T09:10:36Z</time>
      </trkpt>
      <trkpt lat="47.47984" lon="-2.33998">
        <ele>32.8</ele>
        <time>2020-06-06T09:10:37Z</time>
      </trkpt>
      <trkpt lat="47.47989" lon="-2.34007">
        <ele>32.7</ele>
        <time>2020-06-06T09:10:38Z</time>
      </trkpt>
      <trkpt lat="47.47994" lon="-2.34016">
        <ele>32.6</ele>
        <time>2020-06-06T09:10:39Z</time>
      </trkpt>
      <trkpt lat="47.47999" lon="-2.34024">
        <ele>32.5</ele>
        <time>2020-06-06T09:10:40Z</time>
      </trkpt>
      <trkpt lat="47.48003" lon="-2.34032">
        <ele>32.5</ele>
        <time>2020-06-06T09:10:41Z</time>
      </trkpt>
      <trkpt lat="47.48007" lon="-2.34041">
        <ele>32.4</ele>
        <time>2020-06-06T09:10:42Z</time>
      </trkpt>
      <trkpt lat="47.48012" lon="-2.34049">
        <ele>32.4</ele>
        <time>2020-06-06T09:10:43Z</time>
      </trkpt>
      <trkpt lat="47.48017" lon="-2.34057">
        <ele>32.4</ele>
        <time>2020-06-06T09:10:44Z</time>
      </trkpt>
      <trkpt lat="47.48022" lon="-2.34065">
        <ele>32.5</ele>
        <time>2020-06-06T09:10:45Z</time>
      </trkpt>
      <trkpt lat="47.48026" lon="-2.34073">
        <ele>32.5</ele>
        <time>2020-06-06T09:10:46Z</time>
      </trkpt>
      <trkpt lat="47.48031" lon="-2.34081">
        <ele>32.6</ele>
        <time>2020-06-06T09:10:47Z</time>
      </trkpt>
      <trkpt lat="47.48035" lon="-2.34089">
        <ele>32.7</ele>
        <time>2020-06-06T09:10:48Z</time>
      </trkpt>
      <trkpt lat="47.4804" lon="-2.34097">
        <ele>32.8</ele>
        <time>2020-06-06T09:10:49Z</time>
      </trkpt>
      <trkpt lat="47.48044" lon="-2.34104">
        <ele>32.9</ele>
        <time>2020-06-06T09:10:50Z</time>
      </trkpt>
      <trkpt lat="47.48048" lon="-2.34112">
        <ele>33</ele>
        <time>2020-06-06T09:10:51Z</time>
      </trkpt>
      <trkpt lat="47.48053" lon="-2.3412">
        <ele>33.1</ele>
        <time>2020-06-06T09:10:52Z</time>
      </trkpt>
      <trkpt lat="47.48058" lon="-2.34127">
        <ele>33.2</ele>
        <time>2020-06-06T09:10:53Z</time>
      </trkpt>
      <trkpt lat="47.48063" lon="-2.34133">
        <ele>33.4</ele>
        <time>2020-06-06T09:10:54Z</time>
      </trkpt>
      <trkpt lat="47.48069" lon="-2.34138">
        <ele>33.5</ele>
        <time>2020-06-06T09:10:55Z</time>
      </trkpt>
      <trkpt lat="47.48075" lon="-2.34141">
        <ele>33.7</ele>
        <time>2020-06-06T09:10:56Z</time>
      </trkpt>
      <trkpt lat="47.48082" lon="-2.34142">
        <ele>33.9</ele>
        <time>2020-06-06T09:10:57Z</time>
      </trkpt>
      <trkpt lat="47.48088" lon="-2.34142">
        <ele>34</ele>
        <time>2020-06-06T09:10:58Z</time>
      </trkpt>
      <trkpt lat="47.48095" lon="-2.3414">
        <ele>34.2</ele>
        <time>2020-06-06T09:10:59Z</time>
      </trkpt>
      <trkpt lat="47.48101" lon="-2.34139">
        <ele>34.3</ele>
        <time>2020-06-06T09:11:00Z</time>
      </trkpt>
      <trkpt lat="47.48107" lon="-2.34138">
        <ele>34.5</ele>
        <time>2020-06-06T09:11:01Z</time>
      </trkpt>
      <trkpt lat="47.48114" lon="-2.34138">
        <ele>34.6</ele>
        <time>2020-06-06T09:11:02Z</time>
      </trkpt>
      <trkpt lat="47.48121" lon="-2.34139">
        <ele>34.8</ele>
        <time>2020-06-06T09:11:03Z</time>
      </trkpt>
      <trkpt lat="47.48127" lon="-2.34142">
        <ele>35</ele>
        <time>2020-06-06T09:11:04Z</time>
      </trkpt>
      <trkpt lat="47.48133" lon="-2.34145">
        <ele>35.1</ele>
        <time>2020-06-06T09:11:05Z</time>
      </trkpt>
      <trkpt lat="47.48139" lon="-2.34151">
        <ele>35.3</ele>
        <time>2020-06-06T09:11:06Z</time>
      </trkpt>
      <trkpt lat="47.48144" lon="-2.34158">
        <ele>35.5</ele>
        <time>2020-06-06T09:11:07Z</time>
      </trkpt>
      <trkpt lat="47.48148" lon="-2.34167">
        <ele>35.6</ele>
        <time>2020-06-06T09:11:08Z</time>
      </trkpt>
      <trkpt lat="47.48152" lon="-2.34176">
        <ele>35.9</ele>
        <time>2020-06-06T09:11:09Z</time>
      </trkpt>
      <trkpt lat="47.48155" lon="-2.34185">
        <ele>36.1</ele>
        <time>2020-06-06T09:11:10Z</time>
      </trkpt>
      <trkpt lat="47.48158" lon="-2.34194">
        <ele>36.3</ele>
        <time>2020-06-06T09:11:11Z</time>
      </trkpt>
      <trkpt lat="47.48161" lon="-2.34202">
        <ele>36.5</ele>
        <time>2020-06-06T09:11:12Z</time>
      </trkpt>
      <trkpt lat="47.48164" lon="-2.3421">
        <ele>36.7</ele>
        <time>2020-06-06T09:11:13Z</time>
      </trkpt>
      <trkpt lat="47.48166" lon="-2.34218">
        <ele>36.9</ele>
        <time>2020-06-06T09:11:14Z</time>
      </trkpt>
      <trkpt lat="47.48168" lon="-2.34226">
        <ele>37.1</ele>
        <time>2020-06-06T09:11:15Z</time>
      </trkpt>
      <trkpt lat="47.4817" lon="-2.34234">
        <ele>37.3</ele>
        <time>2020-06-06T09:11:16Z</time>
      </trkpt>
      <trkpt lat="47.48173" lon="-2.34241">
        <ele>37.5</ele>
        <time>2020-06-06T09:11:17Z</time>
      </trkpt>
      <trkpt lat="47.48176" lon="-2.34247">
        <ele>37.6</ele>
        <time>2020-06-06T09:11:18Z</time>
      </trkpt>
      <trkpt lat="47.48179" lon="-2.34253">
        <ele>37.8</ele>
        <time>2020-06-06T09:11:19Z</time>
      </trkpt>
      <trkpt lat="47.48182" lon="-2.34259">
        <ele>38</ele>
        <time>2020-06-06T09:11:20Z</time>
      </trkpt>
      <trkpt lat="47.48185" lon="-2.34264">
        <ele>38.1</ele>
        <time>2020-06-06T09:11:21Z</time>
      </trkpt>
      <trkpt lat="47.48188" lon="-2.3427">
        <ele>38.4</ele>
        <time>2020-06-06T09:11:22Z</time>
      </trkpt>
      <trkpt lat="47.4819" lon="-2.34275">
        <ele>38.4</ele>
        <time>2020-06-06T09:11:23Z</time>
      </trkpt>
      <trkpt lat="47.48191" lon="-2.34281">
        <ele>38.4</ele>
        <time>2020-06-06T09:11:24Z</time>
      </trkpt>
      <trkpt lat="47.48191" lon="-2.34287">
        <ele>38.5</ele>
        <time>2020-06-06T09:11:25Z</time>
      </trkpt>
      <trkpt lat="47.4819" lon="-2.34293">
        <ele>38.5</ele>
        <time>2020-06-06T09:11:26Z</time>
      </trkpt>
      <trkpt lat="47.48189" lon="-2.34299">
        <ele>38.6</ele>
        <time>2020-06-06T09:11:27Z</time>
      </trkpt>
      <trkpt lat="47.48189" lon="-2.34305">
        <ele>38.6</ele>
        <time>2020-06-06T09:11:28Z</time>
      </trkpt>
      <trkpt lat="47.48188" lon="-2.3431">
        <ele>38.7</ele>
        <time>2020-06-06T09:11:29Z</time>
      </trkpt>
      <trkpt lat="47.48186" lon="-2.34314">
        <ele>38.8</ele>
        <time>2020-06-06T09:11:30Z</time>
      </trkpt>
      <trkpt lat="47.48184" lon="-2.34319">
        <ele>38.8</ele>
        <time>2020-06-06T09:11:31Z</time>
      </trkpt>
      <trkpt lat="47.48182" lon="-2.34324">
        <ele>39</ele>
        <time>2020-06-06T09:11:32Z</time>
      </trkpt>
      <trkpt lat="47.48179" lon="-2.34329">
        <ele>39</ele>
        <time>2020-06-06T09:11:33Z</time>
      </trkpt>
      <trkpt lat="47.48179" lon="-2.34333">
        <ele>38.9</ele>
        <time>2020-06-06T09:11:34Z</time>
      </trkpt>
      <trkpt lat="47.48178" lon="-2.34339">
        <ele>38.9</ele>
        <time>2020-06-06T09:11:35Z</time>
      </trkpt>
      <trkpt lat="47.4818" lon="-2.34345">
        <ele>38.8</ele>
        <time>2020-06-06T09:11:36Z</time>
      </trkpt>
      <trkpt lat="47.48182" lon="-2.3435">
        <ele>38.8</ele>
        <time>2020-06-06T09:11:37Z</time>
      </trkpt>
      <trkpt lat="47.48184" lon="-2.34356">
        <ele>38.7</ele>
        <time>2020-06-06T09:11:38Z</time>
      </trkpt>
      <trkpt lat="47.48187" lon="-2.34362">
        <ele>38.7</ele>
        <time>2020-06-06T09:11:39Z</time>
      </trkpt>
      <trkpt lat="47.48189" lon="-2.34368">
        <ele>38.7</ele>
        <time>2020-06-06T09:11:40Z</time>
      </trkpt>
      <trkpt lat="47.48192" lon="-2.34374">
        <ele>38.7</ele>
        <time>2020-06-06T09:11:41Z</time>
      </trkpt>
      <trkpt lat="47.48194" lon="-2.3438">
        <ele>38.7</ele>
        <time>2020-06-06T09:11:42Z</time>
      </trkpt>
      <trkpt lat="47.48196" lon="-2.34386">
        <ele>38.7</ele>
        <time>2020-06-06T09:11:43Z</time>
      </trkpt>
      <trkpt lat="47.48196" lon="-2.34392">
        <ele>38.7</ele>
        <time>2020-06-06T09:11:44Z</time>
      </trkpt>
      <trkpt lat="47.48198" lon="-2.34398">
        <ele>38.7</ele>
        <time>2020-06-06T09:11:45Z</time>
      </trkpt>
      <trkpt lat="47.48199" lon="-2.34405">
        <ele>38.7</ele>
        <time>2020-06-06T09:11:46Z</time>
      </trkpt>
      <trkpt lat="47.48201" lon="-2.34411">
        <ele>38.7</ele>
        <time>2020-06-06T09:11:47Z</time>
      </trkpt>
      <trkpt lat="47.48203" lon="-2.34417">
        <ele>38.8</ele>
        <time>2020-06-06T09:11:48Z</time>
      </trkpt>
      <trkpt lat="47.48205" lon="-2.34423">
        <ele>38.8</ele>
        <time>2020-06-06T09:11:49Z</time>
      </trkpt>
      <trkpt lat="47.48206" lon="-2.34429">
        <ele>38.8</ele>
        <time>2020-06-06T09:11:50Z</time>
      </trkpt>
      <trkpt lat="47.48208" lon="-2.34436">
        <ele>38.8</ele>
        <time>2020-06-06T09:11:51Z</time>
      </trkpt>
      <trkpt lat="47.4821" lon="-2.34442">
        <ele>38.8</ele>
        <time>2020-06-06T09:11:52Z</time>
      </trkpt>
      <trkpt lat="47.48211" lon="-2.34448">
        <ele>38.9</ele>
        <time>2020-06-06T09:11:53Z</time>
      </trkpt>
      <trkpt lat="47.48213" lon="-2.34455">
        <ele>38.9</ele>
        <time>2020-06-06T09:11:54Z</time>
      </trkpt>
      <trkpt lat="47.48213" lon="-2.34462">
        <ele>38.9</ele>
        <time>2020-06-06T09:11:55Z</time>
      </trkpt>
      <trkpt lat="47.48213" lon="-2.34468">
        <ele>38.9</ele>
        <time>2020-06-06T09:11:56Z</time>
      </trkpt>
      <trkpt lat="47.48214" lon="-2.34473">
        <ele>38.9</ele>
        <time>2020-06-06T09:11:57Z</time>
      </trkpt>
      <trkpt lat="47.48215" lon="-2.34477">
        <ele>38.9</ele>
        <time>2020-06-06T09:11:58Z</time>
      </trkpt>
      <trkpt lat="47.48215" lon="-2.34478">
        <ele>38.9</ele>
        <time>2020-06-06T09:11:59Z</time>
      </trkpt>
      <trkpt lat="47.48215" lon="-2.34482">
        <ele>38.9</ele>
        <time>2020-06-06T09:12:00Z</time>
      </trkpt>
      <trkpt lat="47.48215" lon="-2.34483">
        <ele>38.9</ele>
        <time>2020-06-06T09:12:01Z</time>
      </trkpt>
      <trkpt lat="47.48215" lon="-2.34488">
        <ele>38.9</ele>
        <time>2020-06-06T09:12:02Z</time>
      </trkpt>
      <trkpt lat="47.48216" lon="-2.34492">
        <ele>38.9</ele>
        <time>2020-06-06T09:12:03Z</time>
      </trkpt>
      <trkpt lat="47.48216" lon="-2.34497">
        <ele>39</ele>
        <time>2020-06-06T09:12:04Z</time>
      </trkpt>
      <trkpt lat="47.48214" lon="-2.34503">
        <ele>39</ele>
        <time>2020-06-06T09:12:05Z</time>
      </trkpt>
      <trkpt lat="47.48213" lon="-2.34509">
        <ele>39.1</ele>
        <time>2020-06-06T09:12:06Z</time>
      </trkpt>
      <trkpt lat="47.48212" lon="-2.34515">
        <ele>39.1</ele>
        <time>2020-06-06T09:12:07Z</time>
      </trkpt>
      <trkpt lat="47.48211" lon="-2.34522">
        <ele>39.2</ele>
        <time>2020-06-06T09:12:08Z</time>
      </trkpt>
      <trkpt lat="47.4821" lon="-2.34528">
        <ele>39.2</ele>
        <time>2020-06-06T09:12:09Z</time>
      </trkpt>
      <trkpt lat="47.48209" lon="-2.34535">
        <ele>39.3</ele>
        <time>2020-06-06T09:12:10Z</time>
      </trkpt>
      <trkpt lat="47.48207" lon="-2.34543">
        <ele>39.3</ele>
        <time>2020-06-06T09:12:11Z</time>
      </trkpt>
      <trkpt lat="47.48205" lon="-2.34549">
        <ele>39.3</ele>
        <time>2020-06-06T09:12:12Z</time>
      </trkpt>
      <trkpt lat="47.48205" lon="-2.34556">
        <ele>39.3</ele>
        <time>2020-06-06T09:12:13Z</time>
      </trkpt>
      <trkpt lat="47.48205" lon="-2.34562">
        <ele>39.3</ele>
        <time>2020-06-06T09:12:14Z</time>
      </trkpt>
      <trkpt lat="47.48206" lon="-2.34569">
        <ele>39.2</ele>
        <time>2020-06-06T09:12:15Z</time>
      </trkpt>
      <trkpt lat="47.48206" lon="-2.34575">
        <ele>39.2</ele>
        <time>2020-06-06T09:12:16Z</time>
      </trkpt>
      <trkpt lat="47.48207" lon="-2.34581">
        <ele>39.3</ele>
        <time>2020-06-06T09:12:17Z</time>
      </trkpt>
      <trkpt lat="47.48209" lon="-2.34586">
        <ele>39.4</ele>
        <time>2020-06-06T09:12:18Z</time>
      </trkpt>
      <trkpt lat="47.48213" lon="-2.34589">
        <ele>39.2</ele>
        <time>2020-06-06T09:12:19Z</time>
      </trkpt>
      <trkpt lat="47.48218" lon="-2.34594">
        <ele>39.2</ele>
        <time>2020-06-06T09:12:20Z</time>
      </trkpt>
      <trkpt lat="47.4822" lon="-2.34601">
        <ele>39</ele>
        <time>2020-06-06T09:12:21Z</time>
      </trkpt>
      <trkpt lat="47.48222" lon="-2.34609">
        <ele>39</ele>
        <time>2020-06-06T09:12:22Z</time>
      </trkpt>
      <trkpt lat="47.48222" lon="-2.34616">
        <ele>39</ele>
        <time>2020-06-06T09:12:23Z</time>
      </trkpt>
      <trkpt lat="47.48221" lon="-2.34623">
        <ele>39.1</ele>
        <time>2020-06-06T09:12:24Z</time>
      </trkpt>
      <trkpt lat="47.4822" lon="-2.3463">
        <ele>39.1</ele>
        <time>2020-06-06T09:12:25Z</time>
      </trkpt>
      <trkpt lat="47.48219" lon="-2.34636">
        <ele>39.2</ele>
        <time>2020-06-06T09:12:26Z</time>
      </trkpt>
      <trkpt lat="47.48216" lon="-2.34641">
        <ele>39.3</ele>
        <time>2020-06-06T09:12:27Z</time>
      </trkpt>
      <trkpt lat="47.48213" lon="-2.34647">
        <ele>39.4</ele>
        <time>2020-06-06T09:12:28Z</time>
      </trkpt>
      <trkpt lat="47.4821" lon="-2.34654">
        <ele>39.4</ele>
        <time>2020-06-06T09:12:29Z</time>
      </trkpt>
      <trkpt lat="47.48208" lon="-2.3466">
        <ele>39.5</ele>
        <time>2020-06-06T09:12:30Z</time>
      </trkpt>
      <trkpt lat="47.48206" lon="-2.34667">
        <ele>39.5</ele>
        <time>2020-06-06T09:12:31Z</time>
      </trkpt>
      <trkpt lat="47.48205" lon="-2.34674">
        <ele>39.6</ele>
        <time>2020-06-06T09:12:32Z</time>
      </trkpt>
      <trkpt lat="47.48205" lon="-2.34681">
        <ele>39.7</ele>
        <time>2020-06-06T09:12:33Z</time>
      </trkpt>
      <trkpt lat="47.48205" lon="-2.34688">
        <ele>39.8</ele>
        <time>2020-06-06T09:12:34Z</time>
      </trkpt>
      <trkpt lat="47.48204" lon="-2.34695">
        <ele>39.9</ele>
        <time>2020-06-06T09:12:35Z</time>
      </trkpt>
      <trkpt lat="47.48203" lon="-2.34701">
        <ele>39.9</ele>
        <time>2020-06-06T09:12:36Z</time>
      </trkpt>
      <trkpt lat="47.48201" lon="-2.34707">
        <ele>40</ele>
        <time>2020-06-06T09:12:37Z</time>
      </trkpt>
      <trkpt lat="47.48199" lon="-2.34713">
        <ele>40.1</ele>
        <time>2020-06-06T09:12:38Z</time>
      </trkpt>
      <trkpt lat="47.48198" lon="-2.34719">
        <ele>40.2</ele>
        <time>2020-06-06T09:12:39Z</time>
      </trkpt>
      <trkpt lat="47.48197" lon="-2.34724">
        <ele>40.2</ele>
        <time>2020-06-06T09:12:40Z</time>
      </trkpt>
      <trkpt lat="47.48196" lon="-2.34731">
        <ele>40.3</ele>
        <time>2020-06-06T09:12:41Z</time>
      </trkpt>
      <trkpt lat="47.48194" lon="-2.34739">
        <ele>40.4</ele>
        <time>2020-06-06T09:12:42Z</time>
      </trkpt>
      <trkpt lat="47.48193" lon="-2.34745">
        <ele>40.4</ele>
        <time>2020-06-06T09:12:43Z</time>
      </trkpt>
      <trkpt lat="47.48191" lon="-2.34752">
        <ele>40.5</ele>
        <time>2020-06-06T09:12:44Z</time>
      </trkpt>
      <trkpt lat="47.4819" lon="-2.34761">
        <ele>40.6</ele>
        <time>2020-06-06T09:12:45Z</time>
      </trkpt>
      <trkpt lat="47.48188" lon="-2.34769">
        <ele>40.6</ele>
        <time>2020-06-06T09:12:46Z</time>
      </trkpt>
      <trkpt lat="47.48186" lon="-2.34778">
        <ele>40.7</ele>
        <time>2020-06-06T09:12:47Z</time>
      </trkpt>
      <trkpt lat="47.48185" lon="-2.34786">
        <ele>40.8</ele>
        <time>2020-06-06T09:12:48Z</time>
      </trkpt>
      <trkpt lat="47.48184" lon="-2.34793">
        <ele>41</ele>
        <time>2020-06-06T09:12:49Z</time>
      </trkpt>
      <trkpt lat="47.48183" lon="-2.34799">
        <ele>41.1</ele>
        <time>2020-06-06T09:12:50Z</time>
      </trkpt>
      <trkpt lat="47.48182" lon="-2.34807">
        <ele>41.2</ele>
        <time>2020-06-06T09:12:51Z</time>
      </trkpt>
      <trkpt lat="47.48182" lon="-2.34815">
        <ele>41.4</ele>
        <time>2020-06-06T09:12:52Z</time>
      </trkpt>
      <trkpt lat="47.48182" lon="-2.34822">
        <ele>41.5</ele>
        <time>2020-06-06T09:12:53Z</time>
      </trkpt>
      <trkpt lat="47.48182" lon="-2.34829">
        <ele>41.7</ele>
        <time>2020-06-06T09:12:54Z</time>
      </trkpt>
      <trkpt lat="47.48182" lon="-2.34835">
        <ele>41.8</ele>
        <time>2020-06-06T09:12:55Z</time>
      </trkpt>
      <trkpt lat="47.48182" lon="-2.34842">
        <ele>41.9</ele>
        <time>2020-06-06T09:12:56Z</time>
      </trkpt>
      <trkpt lat="47.48182" lon="-2.34848">
        <ele>42</ele>
        <time>2020-06-06T09:12:57Z</time>
      </trkpt>
      <trkpt lat="47.48182" lon="-2.34855">
        <ele>42.1</ele>
        <time>2020-06-06T09:12:58Z</time>
      </trkpt>
      <trkpt lat="47.48182" lon="-2.34863">
        <ele>42.3</ele>
        <time>2020-06-06T09:12:59Z</time>
      </trkpt>
      <trkpt lat="47.48182" lon="-2.3487">
        <ele>42.4</ele>
        <time>2020-06-06T09:13:00Z</time>
      </trkpt>
      <trkpt lat="47.48182" lon="-2.34877">
        <ele>42.5</ele>
        <time>2020-06-06T09:13:01Z</time>
      </trkpt>
      <trkpt lat="47.48183" lon="-2.34884">
        <ele>42.6</ele>
        <time>2020-06-06T09:13:02Z</time>
      </trkpt>
      <trkpt lat="47.48184" lon="-2.34894">
        <ele>42.8</ele>
        <time>2020-06-06T09:13:03Z</time>
      </trkpt>
      <trkpt lat="47.48185" lon="-2.34903">
        <ele>43</ele>
        <time>2020-06-06T09:13:04Z</time>
      </trkpt>
      <trkpt lat="47.48186" lon="-2.3491">
        <ele>43.1</ele>
        <time>2020-06-06T09:13:05Z</time>
      </trkpt>
      <trkpt lat="47.48187" lon="-2.34918">
        <ele>43.2</ele>
        <time>2020-06-06T09:13:06Z</time>
      </trkpt>
      <trkpt lat="47.48188" lon="-2.34926">
        <ele>43.4</ele>
        <time>2020-06-06T09:13:07Z</time>
      </trkpt>
      <trkpt lat="47.4819" lon="-2.34932">
        <ele>43.5</ele>
        <time>2020-06-06T09:13:08Z</time>
      </trkpt>
      <trkpt lat="47.48191" lon="-2.34939">
        <ele>43.6</ele>
        <time>2020-06-06T09:13:09Z</time>
      </trkpt>
      <trkpt lat="47.48192" lon="-2.34946">
        <ele>43.7</ele>
        <time>2020-06-06T09:13:10Z</time>
      </trkpt>
      <trkpt lat="47.48193" lon="-2.34953">
        <ele>43.8</ele>
        <time>2020-06-06T09:13:11Z</time>
      </trkpt>
      <trkpt lat="47.48194" lon="-2.34959">
        <ele>43.9</ele>
        <time>2020-06-06T09:13:12Z</time>
      </trkpt>
      <trkpt lat="47.48196" lon="-2.34966">
        <ele>44</ele>
        <time>2020-06-06T09:13:13Z</time>
      </trkpt>
      <trkpt lat="47.48197" lon="-2.34973">
        <ele>44.1</ele>
        <time>2020-06-06T09:13:14Z</time>
      </trkpt>
      <trkpt lat="47.48198" lon="-2.34981">
        <ele>44.1</ele>
        <time>2020-06-06T09:13:15Z</time>
      </trkpt>
      <trkpt lat="47.482" lon="-2.34989">
        <ele>44.2</ele>
        <time>2020-06-06T09:13:16Z</time>
      </trkpt>
      <trkpt lat="47.48201" lon="-2.34997">
        <ele>44.3</ele>
        <time>2020-06-06T09:13:17Z</time>
      </trkpt>
      <trkpt lat="47.48202" lon="-2.35004">
        <ele>44.3</ele>
        <time>2020-06-06T09:13:18Z</time>
      </trkpt>
      <trkpt lat="47.48204" lon="-2.3501">
        <ele>44.4</ele>
        <time>2020-06-06T09:13:19Z</time>
      </trkpt>
      <trkpt lat="47.48205" lon="-2.35017">
        <ele>44.4</ele>
        <time>2020-06-06T09:13:20Z</time>
      </trkpt>
      <trkpt lat="47.48207" lon="-2.35025">
        <ele>44.5</ele>
        <time>2020-06-06T09:13:21Z</time>
      </trkpt>
      <trkpt lat="47.48209" lon="-2.35033">
        <ele>44.5</ele>
        <time>2020-06-06T09:13:22Z</time>
      </trkpt>
      <trkpt lat="47.48211" lon="-2.35042">
        <ele>44.6</ele>
        <time>2020-06-06T09:13:23Z</time>
      </trkpt>
      <trkpt lat="47.48212" lon="-2.3505">
        <ele>44.7</ele>
        <time>2020-06-06T09:13:24Z</time>
      </trkpt>
      <trkpt lat="47.48214" lon="-2.35058">
        <ele>44.8</ele>
        <time>2020-06-06T09:13:25Z</time>
      </trkpt>
      <trkpt lat="47.48215" lon="-2.35065">
        <ele>44.8</ele>
        <time>2020-06-06T09:13:26Z</time>
      </trkpt>
      <trkpt lat="47.48217" lon="-2.35073">
        <ele>44.9</ele>
        <time>2020-06-06T09:13:27Z</time>
      </trkpt>
      <trkpt lat="47.48218" lon="-2.35081">
        <ele>45</ele>
        <time>2020-06-06T09:13:28Z</time>
      </trkpt>
      <trkpt lat="47.48219" lon="-2.35089">
        <ele>45.1</ele>
        <time>2020-06-06T09:13:29Z</time>
      </trkpt>
      <trkpt lat="47.48221" lon="-2.35097">
        <ele>45.2</ele>
        <time>2020-06-06T09:13:30Z</time>
      </trkpt>
      <trkpt lat="47.48222" lon="-2.35106">
        <ele>45.3</ele>
        <time>2020-06-06T09:13:31Z</time>
      </trkpt>
      <trkpt lat="47.48224" lon="-2.35114">
        <ele>45.4</ele>
        <time>2020-06-06T09:13:32Z</time>
      </trkpt>
      <trkpt lat="47.48226" lon="-2.35122">
        <ele>45.4</ele>
        <time>2020-06-06T09:13:33Z</time>
      </trkpt>
      <trkpt lat="47.48228" lon="-2.3513">
        <ele>45.4</ele>
        <time>2020-06-06T09:13:34Z</time>
      </trkpt>
      <trkpt lat="47.48229" lon="-2.35138">
        <ele>45.4</ele>
        <time>2020-06-06T09:13:35Z</time>
      </trkpt>
      <trkpt lat="47.48231" lon="-2.35145">
        <ele>45.5</ele>
        <time>2020-06-06T09:13:36Z</time>
      </trkpt>
      <trkpt lat="47.48233" lon="-2.35153">
        <ele>45.5</ele>
        <time>2020-06-06T09:13:37Z</time>
      </trkpt>
      <trkpt lat="47.48234" lon="-2.35161">
        <ele>45.5</ele>
        <time>2020-06-06T09:13:38Z</time>
      </trkpt>
      <trkpt lat="47.48236" lon="-2.3517">
        <ele>45.5</ele>
        <time>2020-06-06T09:13:39Z</time>
      </trkpt>
      <trkpt lat="47.48238" lon="-2.3518">
        <ele>45.5</ele>
        <time>2020-06-06T09:13:40Z</time>
      </trkpt>
      <trkpt lat="47.4824" lon="-2.35189">
        <ele>45.4</ele>
        <time>2020-06-06T09:13:41Z</time>
      </trkpt>
      <trkpt lat="47.48241" lon="-2.35197">
        <ele>45.4</ele>
        <time>2020-06-06T09:13:42Z</time>
      </trkpt>
      <trkpt lat="47.48242" lon="-2.35206">
        <ele>45.4</ele>
        <time>2020-06-06T09:13:43Z</time>
      </trkpt>
      <trkpt lat="47.48243" lon="-2.35214">
        <ele>45.3</ele>
        <time>2020-06-06T09:13:44Z</time>
      </trkpt>
      <trkpt lat="47.48244" lon="-2.35223">
        <ele>45.3</ele>
        <time>2020-06-06T09:13:45Z</time>
      </trkpt>
      <trkpt lat="47.48246" lon="-2.35232">
        <ele>45.3</ele>
        <time>2020-06-06T09:13:46Z</time>
      </trkpt>
      <trkpt lat="47.48247" lon="-2.35242">
        <ele>45.2</ele>
        <time>2020-06-06T09:13:47Z</time>
      </trkpt>
      <trkpt lat="47.48248" lon="-2.35251">
        <ele>45.2</ele>
        <time>2020-06-06T09:13:48Z</time>
      </trkpt>
      <trkpt lat="47.48249" lon="-2.3526">
        <ele>45.2</ele>
        <time>2020-06-06T09:13:49Z</time>
      </trkpt>
      <trkpt lat="47.48251" lon="-2.35269">
        <ele>45.1</ele>
        <time>2020-06-06T09:13:50Z</time>
      </trkpt>
      <trkpt lat="47.48251" lon="-2.35279">
        <ele>45.1</ele>
        <time>2020-06-06T09:13:51Z</time>
      </trkpt>
      <trkpt lat="47.48252" lon="-2.35288">
        <ele>45</ele>
        <time>2020-06-06T09:13:52Z</time>
      </trkpt>
      <trkpt lat="47.48253" lon="-2.35297">
        <ele>45</ele>
        <time>2020-06-06T09:13:53Z</time>
      </trkpt>
      <trkpt lat="47.48254" lon="-2.35307">
        <ele>44.9</ele>
        <time>2020-06-06T09:13:54Z</time>
      </trkpt>
      <trkpt lat="47.48255" lon="-2.35316">
        <ele>44.8</ele>
        <time>2020-06-06T09:13:55Z</time>
      </trkpt>
      <trkpt lat="47.48255" lon="-2.35326">
        <ele>44.8</ele>
        <time>2020-06-06T09:13:56Z</time>
      </trkpt>
      <trkpt lat="47.48256" lon="-2.35337">
        <ele>44.7</ele>
        <time>2020-06-06T09:13:57Z</time>
      </trkpt>
      <trkpt lat="47.48257" lon="-2.35346">
        <ele>44.6</ele>
        <time>2020-06-06T09:13:58Z</time>
      </trkpt>
      <trkpt lat="47.48257" lon="-2.35356">
        <ele>44.5</ele>
        <time>2020-06-06T09:13:59Z</time>
      </trkpt>
      <trkpt lat="47.48257" lon="-2.35367">
        <ele>44.4</ele>
        <time>2020-06-06T09:14:00Z</time>
      </trkpt>
      <trkpt lat="47.48257" lon="-2.35376">
        <ele>44.4</ele>
        <time>2020-06-06T09:14:01Z</time>
      </trkpt>
      <trkpt lat="47.48257" lon="-2.35385">
        <ele>44.4</ele>
        <time>2020-06-06T09:14:02Z</time>
      </trkpt>
      <trkpt lat="47.48257" lon="-2.35396">
        <ele>44.3</ele>
        <time>2020-06-06T09:14:03Z</time>
      </trkpt>
      <trkpt lat="47.48256" lon="-2.35406">
        <ele>44.3</ele>
        <time>2020-06-06T09:14:04Z</time>
      </trkpt>
      <trkpt lat="47.48255" lon="-2.35417">
        <ele>44.2</ele>
        <time>2020-06-06T09:14:05Z</time>
      </trkpt>
      <trkpt lat="47.48254" lon="-2.35426">
        <ele>44.2</ele>
        <time>2020-06-06T09:14:06Z</time>
      </trkpt>
      <trkpt lat="47.48254" lon="-2.35437">
        <ele>44.1</ele>
        <time>2020-06-06T09:14:07Z</time>
      </trkpt>
      <trkpt lat="47.48254" lon="-2.35448">
        <ele>44</ele>
        <time>2020-06-06T09:14:08Z</time>
      </trkpt>
      <trkpt lat="47.48254" lon="-2.35457">
        <ele>43.9</ele>
        <time>2020-06-06T09:14:09Z</time>
      </trkpt>
      <trkpt lat="47.48254" lon="-2.35467">
        <ele>43.9</ele>
        <time>2020-06-06T09:14:10Z</time>
      </trkpt>
      <trkpt lat="47.48254" lon="-2.35476">
        <ele>43.8</ele>
        <time>2020-06-06T09:14:11Z</time>
      </trkpt>
      <trkpt lat="47.48253" lon="-2.35485">
        <ele>43.8</ele>
        <time>2020-06-06T09:14:12Z</time>
      </trkpt>
      <trkpt lat="47.48253" lon="-2.35494">
        <ele>43.8</ele>
        <time>2020-06-06T09:14:13Z</time>
      </trkpt>
      <trkpt lat="47.48253" lon="-2.35503">
        <ele>43.7</ele>
        <time>2020-06-06T09:14:14Z</time>
      </trkpt>
      <trkpt lat="47.48252" lon="-2.35512">
        <ele>43.7</ele>
        <time>2020-06-06T09:14:15Z</time>
      </trkpt>
      <trkpt lat="47.48252" lon="-2.35521">
        <ele>43.7</ele>
        <time>2020-06-06T09:14:16Z</time>
      </trkpt>
      <trkpt lat="47.48252" lon="-2.3553">
        <ele>43.6</ele>
        <time>2020-06-06T09:14:17Z</time>
      </trkpt>
      <trkpt lat="47.48253" lon="-2.35539">
        <ele>43.6</ele>
        <time>2020-06-06T09:14:18Z</time>
      </trkpt>
      <trkpt lat="47.48252" lon="-2.35549">
        <ele>43.5</ele>
        <time>2020-06-06T09:14:19Z</time>
      </trkpt>
      <trkpt lat="47.48253" lon="-2.35558">
        <ele>43.5</ele>
        <time>2020-06-06T09:14:20Z</time>
      </trkpt>
      <trkpt lat="47.48253" lon="-2.35568">
        <ele>43.5</ele>
        <time>2020-06-06T09:14:21Z</time>
      </trkpt>
      <trkpt lat="47.48252" lon="-2.35577">
        <ele>43.4</ele>
        <time>2020-06-06T09:14:22Z</time>
      </trkpt>
      <trkpt lat="47.48252" lon="-2.35586">
        <ele>43.4</ele>
        <time>2020-06-06T09:14:23Z</time>
      </trkpt>
      <trkpt lat="47.48252" lon="-2.35596">
        <ele>43.4</ele>
        <time>2020-06-06T09:14:24Z</time>
      </trkpt>
      <trkpt lat="47.48252" lon="-2.35605">
        <ele>43.4</ele>
        <time>2020-06-06T09:14:25Z</time>
      </trkpt>
      <trkpt lat="47.48251" lon="-2.35615">
        <ele>43.4</ele>
        <time>2020-06-06T09:14:26Z</time>
      </trkpt>
      <trkpt lat="47.48251" lon="-2.35625">
        <ele>43.3</ele>
        <time>2020-06-06T09:14:27Z</time>
      </trkpt>
      <trkpt lat="47.4825" lon="-2.35634">
        <ele>43.2</ele>
        <time>2020-06-06T09:14:28Z</time>
      </trkpt>
      <trkpt lat="47.4825" lon="-2.35644">
        <ele>43.1</ele>
        <time>2020-06-06T09:14:29Z</time>
      </trkpt>
      <trkpt lat="47.4825" lon="-2.35654">
        <ele>43</ele>
        <time>2020-06-06T09:14:30Z</time>
      </trkpt>
      <trkpt lat="47.48249" lon="-2.35664">
        <ele>43</ele>
        <time>2020-06-06T09:14:31Z</time>
      </trkpt>
      <trkpt lat="47.48249" lon="-2.35674">
        <ele>42.9</ele>
        <time>2020-06-06T09:14:32Z</time>
      </trkpt>
      <trkpt lat="47.48248" lon="-2.35684">
        <ele>42.8</ele>
        <time>2020-06-06T09:14:33Z</time>
      </trkpt>
      <trkpt lat="47.48248" lon="-2.35694">
        <ele>42.7</ele>
        <time>2020-06-06T09:14:34Z</time>
      </trkpt>
      <trkpt lat="47.48248" lon="-2.35703">
        <ele>42.7</ele>
        <time>2020-06-06T09:14:35Z</time>
      </trkpt>
      <trkpt lat="47.48248" lon="-2.35713">
        <ele>42.6</ele>
        <time>2020-06-06T09:14:36Z</time>
      </trkpt>
      <trkpt lat="47.48248" lon="-2.35724">
        <ele>42.5</ele>
        <time>2020-06-06T09:14:37Z</time>
      </trkpt>
      <trkpt lat="47.48248" lon="-2.35734">
        <ele>42.4</ele>
        <time>2020-06-06T09:14:38Z</time>
      </trkpt>
      <trkpt lat="47.48248" lon="-2.35743">
        <ele>42.3</ele>
        <time>2020-06-06T09:14:39Z</time>
      </trkpt>
      <trkpt lat="47.48247" lon="-2.35753">
        <ele>42</ele>
        <time>2020-06-06T09:14:40Z</time>
      </trkpt>
      <trkpt lat="47.48247" lon="-2.35763">
        <ele>41.8</ele>
        <time>2020-06-06T09:14:41Z</time>
      </trkpt>
      <trkpt lat="47.48246" lon="-2.35773">
        <ele>41.6</ele>
        <time>2020-06-06T09:14:42Z</time>
      </trkpt>
      <trkpt lat="47.48246" lon="-2.35783">
        <ele>41.5</ele>
        <time>2020-06-06T09:14:43Z</time>
      </trkpt>
      <trkpt lat="47.48246" lon="-2.35793">
        <ele>41.4</ele>
        <time>2020-06-06T09:14:44Z</time>
      </trkpt>
      <trkpt lat="47.48246" lon="-2.35803">
        <ele>41.3</ele>
        <time>2020-06-06T09:14:45Z</time>
      </trkpt>
      <trkpt lat="47.48246" lon="-2.35813">
        <ele>41.2</ele>
        <time>2020-06-06T09:14:46Z</time>
      </trkpt>
      <trkpt lat="47.48245" lon="-2.35824">
        <ele>41.1</ele>
        <time>2020-06-06T09:14:47Z</time>
      </trkpt>
      <trkpt lat="47.48246" lon="-2.35834">
        <ele>41.1</ele>
        <time>2020-06-06T09:14:48Z</time>
      </trkpt>
      <trkpt lat="47.48246" lon="-2.35844">
        <ele>41</ele>
        <time>2020-06-06T09:14:49Z</time>
      </trkpt>
      <trkpt lat="47.48246" lon="-2.35854">
        <ele>41</ele>
        <time>2020-06-06T09:14:50Z</time>
      </trkpt>
      <trkpt lat="47.48245" lon="-2.35865">
        <ele>41</ele>
        <time>2020-06-06T09:14:51Z</time>
      </trkpt>
      <trkpt lat="47.48245" lon="-2.35875">
        <ele>41</ele>
        <time>2020-06-06T09:14:52Z</time>
      </trkpt>
      <trkpt lat="47.48245" lon="-2.35884">
        <ele>41</ele>
        <time>2020-06-06T09:14:53Z</time>
      </trkpt>
      <trkpt lat="47.48245" lon="-2.35893">
        <ele>41.1</ele>
        <time>2020-06-06T09:14:54Z</time>
      </trkpt>
      <trkpt lat="47.48245" lon="-2.35902">
        <ele>41.2</ele>
        <time>2020-06-06T09:14:55Z</time>
      </trkpt>
      <trkpt lat="47.48245" lon="-2.35912">
        <ele>41.2</ele>
        <time>2020-06-06T09:14:56Z</time>
      </trkpt>
      <trkpt lat="47.48245" lon="-2.35921">
        <ele>41.3</ele>
        <time>2020-06-06T09:14:57Z</time>
      </trkpt>
      <trkpt lat="47.48246" lon="-2.3593">
        <ele>41.4</ele>
        <time>2020-06-06T09:14:58Z</time>
      </trkpt>
      <trkpt lat="47.48246" lon="-2.3594">
        <ele>41.5</ele>
        <time>2020-06-06T09:14:59Z</time>
      </trkpt>
      <trkpt lat="47.48245" lon="-2.35949">
        <ele>41.6</ele>
        <time>2020-06-06T09:15:00Z</time>
      </trkpt>
      <trkpt lat="47.48245" lon="-2.35958">
        <ele>41.7</ele>
        <time>2020-06-06T09:15:01Z</time>
      </trkpt>
      <trkpt lat="47.48245" lon="-2.35967">
        <ele>41.8</ele>
        <time>2020-06-06T09:15:02Z</time>
      </trkpt>
      <trkpt lat="47.48244" lon="-2.35976">
        <ele>41.9</ele>
        <time>2020-06-06T09:15:03Z</time>
      </trkpt>
      <trkpt lat="47.48245" lon="-2.35985">
        <ele>42.1</ele>
        <time>2020-06-06T09:15:04Z</time>
      </trkpt>
      <trkpt lat="47.48247" lon="-2.35995">
        <ele>42.2</ele>
        <time>2020-06-06T09:15:05Z</time>
      </trkpt>
      <trkpt lat="47.48246" lon="-2.36004">
        <ele>42.4</ele>
        <time>2020-06-06T09:15:06Z</time>
      </trkpt>
      <trkpt lat="47.48246" lon="-2.36012">
        <ele>42.6</ele>
        <time>2020-06-06T09:15:07Z</time>
      </trkpt>
      <trkpt lat="47.48246" lon="-2.36021">
        <ele>42.8</ele>
        <time>2020-06-06T09:15:08Z</time>
      </trkpt>
      <trkpt lat="47.48246" lon="-2.36029">
        <ele>42.9</ele>
        <time>2020-06-06T09:15:09Z</time>
      </trkpt>
      <trkpt lat="47.48247" lon="-2.36037">
        <ele>43</ele>
        <time>2020-06-06T09:15:10Z</time>
      </trkpt>
      <trkpt lat="47.48247" lon="-2.36046">
        <ele>43.1</ele>
        <time>2020-06-06T09:15:11Z</time>
      </trkpt>
      <trkpt lat="47.48248" lon="-2.36054">
        <ele>43.2</ele>
        <time>2020-06-06T09:15:12Z</time>
      </trkpt>
      <trkpt lat="47.48249" lon="-2.36062">
        <ele>43.3</ele>
        <time>2020-06-06T09:15:13Z</time>
      </trkpt>
      <trkpt lat="47.48249" lon="-2.36071">
        <ele>43.4</ele>
        <time>2020-06-06T09:15:14Z</time>
      </trkpt>
      <trkpt lat="47.48249" lon="-2.36079">
        <ele>43.5</ele>
        <time>2020-06-06T09:15:15Z</time>
      </trkpt>
      <trkpt lat="47.4825" lon="-2.36087">
        <ele>43.6</ele>
        <time>2020-06-06T09:15:16Z</time>
      </trkpt>
      <trkpt lat="47.48251" lon="-2.36096">
        <ele>43.7</ele>
        <time>2020-06-06T09:15:17Z</time>
      </trkpt>
      <trkpt lat="47.48252" lon="-2.36105">
        <ele>43.8</ele>
        <time>2020-06-06T09:15:18Z</time>
      </trkpt>
      <trkpt lat="47.48252" lon="-2.36114">
        <ele>43.9</ele>
        <time>2020-06-06T09:15:19Z</time>
      </trkpt>
      <trkpt lat="47.48254" lon="-2.36123">
        <ele>44</ele>
        <time>2020-06-06T09:15:20Z</time>
      </trkpt>
      <trkpt lat="47.48253" lon="-2.36133">
        <ele>44.2</ele>
        <time>2020-06-06T09:15:21Z</time>
      </trkpt>
      <trkpt lat="47.48254" lon="-2.36144">
        <ele>44.3</ele>
        <time>2020-06-06T09:15:22Z</time>
      </trkpt>
      <trkpt lat="47.48254" lon="-2.36154">
        <ele>44.5</ele>
        <time>2020-06-06T09:15:23Z</time>
      </trkpt>
      <trkpt lat="47.48255" lon="-2.36164">
        <ele>44.7</ele>
        <time>2020-06-06T09:15:24Z</time>
      </trkpt>
      <trkpt lat="47.48255" lon="-2.36174">
        <ele>44.8</ele>
        <time>2020-06-06T09:15:25Z</time>
      </trkpt>
      <trkpt lat="47.48256" lon="-2.36185">
        <ele>45</ele>
        <time>2020-06-06T09:15:26Z</time>
      </trkpt>
      <trkpt lat="47.48255" lon="-2.36192">
        <ele>45.1</ele>
        <time>2020-06-06T09:15:27Z</time>
      </trkpt>
      <trkpt lat="47.48256" lon="-2.36203">
        <ele>45.3</ele>
        <time>2020-06-06T09:15:28Z</time>
      </trkpt>
      <trkpt lat="47.48257" lon="-2.36213">
        <ele>45.5</ele>
        <time>2020-06-06T09:15:29Z</time>
      </trkpt>
      <trkpt lat="47.48257" lon="-2.36222">
        <ele>45.6</ele>
        <time>2020-06-06T09:15:30Z</time>
      </trkpt>
      <trkpt lat="47.48257" lon="-2.36231">
        <ele>45.7</ele>
        <time>2020-06-06T09:15:31Z</time>
      </trkpt>
      <trkpt lat="47.48257" lon="-2.3624">
        <ele>45.9</ele>
        <time>2020-06-06T09:15:32Z</time>
      </trkpt>
      <trkpt lat="47.48256" lon="-2.36247">
        <ele>46</ele>
        <time>2020-06-06T09:15:33Z</time>
      </trkpt>
      <trkpt lat="47.48256" lon="-2.36255">
        <ele>46.1</ele>
        <time>2020-06-06T09:15:34Z</time>
      </trkpt>
      <trkpt lat="47.48256" lon="-2.36265">
        <ele>46.3</ele>
        <time>2020-06-06T09:15:35Z</time>
      </trkpt>
      <trkpt lat="47.48256" lon="-2.36276">
        <ele>46.5</ele>
        <time>2020-06-06T09:15:36Z</time>
      </trkpt>
      <trkpt lat="47.48256" lon="-2.36287">
        <ele>46.7</ele>
        <time>2020-06-06T09:15:37Z</time>
      </trkpt>
      <trkpt lat="47.48257" lon="-2.36297">
        <ele>46.8</ele>
        <time>2020-06-06T09:15:38Z</time>
      </trkpt>
      <trkpt lat="47.48257" lon="-2.36305">
        <ele>47</ele>
        <time>2020-06-06T09:15:39Z</time>
      </trkpt>
      <trkpt lat="47.48257" lon="-2.36313">
        <ele>47.1</ele>
        <time>2020-06-06T09:15:40Z</time>
      </trkpt>
      <trkpt lat="47.48257" lon="-2.36321">
        <ele>47.2</ele>
        <time>2020-06-06T09:15:41Z</time>
      </trkpt>
      <trkpt lat="47.48259" lon="-2.36329">
        <ele>47.4</ele>
        <time>2020-06-06T09:15:42Z</time>
      </trkpt>
      <trkpt lat="47.48261" lon="-2.36337">
        <ele>47.5</ele>
        <time>2020-06-06T09:15:43Z</time>
      </trkpt>
      <trkpt lat="47.48262" lon="-2.36345">
        <ele>47.6</ele>
        <time>2020-06-06T09:15:44Z</time>
      </trkpt>
      <trkpt lat="47.48262" lon="-2.36352">
        <ele>47.7</ele>
        <time>2020-06-06T09:15:45Z</time>
      </trkpt>
      <trkpt lat="47.48263" lon="-2.36361">
        <ele>47.8</ele>
        <time>2020-06-06T09:15:46Z</time>
      </trkpt>
      <trkpt lat="47.48263" lon="-2.36371">
        <ele>48</ele>
        <time>2020-06-06T09:15:47Z</time>
      </trkpt>
      <trkpt lat="47.48262" lon="-2.3638">
        <ele>48.1</ele>
        <time>2020-06-06T09:15:48Z</time>
      </trkpt>
      <trkpt lat="47.48262" lon="-2.36388">
        <ele>48.2</ele>
        <time>2020-06-06T09:15:49Z</time>
      </trkpt>
      <trkpt lat="47.48262" lon="-2.36396">
        <ele>48.3</ele>
        <time>2020-06-06T09:15:50Z</time>
      </trkpt>
      <trkpt lat="47.48262" lon="-2.36404">
        <ele>48.4</ele>
        <time>2020-06-06T09:15:51Z</time>
      </trkpt>
      <trkpt lat="47.48262" lon="-2.36413">
        <ele>48.5</ele>
        <time>2020-06-06T09:15:52Z</time>
      </trkpt>
      <trkpt lat="47.48263" lon="-2.36422">
        <ele>48.5</ele>
        <time>2020-06-06T09:15:53Z</time>
      </trkpt>
      <trkpt lat="47.48263" lon="-2.36431">
        <ele>48.6</ele>
        <time>2020-06-06T09:15:54Z</time>
      </trkpt>
      <trkpt lat="47.48263" lon="-2.36439">
        <ele>48.7</ele>
        <time>2020-06-06T09:15:55Z</time>
      </trkpt>
      <trkpt lat="47.48263" lon="-2.36447">
        <ele>48.8</ele>
        <time>2020-06-06T09:15:56Z</time>
      </trkpt>
      <trkpt lat="47.48262" lon="-2.36456">
        <ele>48.8</ele>
        <time>2020-06-06T09:15:57Z</time>
      </trkpt>
      <trkpt lat="47.48262" lon="-2.36465">
        <ele>48.9</ele>
        <time>2020-06-06T09:15:58Z</time>
      </trkpt>
      <trkpt lat="47.48261" lon="-2.36473">
        <ele>49</ele>
        <time>2020-06-06T09:15:59Z</time>
      </trkpt>
      <trkpt lat="47.48261" lon="-2.36482">
        <ele>49.1</ele>
        <time>2020-06-06T09:16:00Z</time>
      </trkpt>
      <trkpt lat="47.48261" lon="-2.3649">
        <ele>49.1</ele>
        <time>2020-06-06T09:16:01Z</time>
      </trkpt>
      <trkpt lat="47.48262" lon="-2.36498">
        <ele>49.2</ele>
        <time>2020-06-06T09:16:02Z</time>
      </trkpt>
      <trkpt lat="47.48263" lon="-2.36505">
        <ele>49.2</ele>
        <time>2020-06-06T09:16:03Z</time>
      </trkpt>
      <trkpt lat="47.48263" lon="-2.36515">
        <ele>49.3</ele>
        <time>2020-06-06T09:16:04Z</time>
      </trkpt>
      <trkpt lat="47.48263" lon="-2.36526">
        <ele>49.3</ele>
        <time>2020-06-06T09:16:05Z</time>
      </trkpt>
      <trkpt lat="47.48263" lon="-2.36535">
        <ele>49.4</ele>
        <time>2020-06-06T09:16:06Z</time>
      </trkpt>
      <trkpt lat="47.48263" lon="-2.36545">
        <ele>49.5</ele>
        <time>2020-06-06T09:16:07Z</time>
      </trkpt>
      <trkpt lat="47.48263" lon="-2.36554">
        <ele>49.5</ele>
        <time>2020-06-06T09:16:08Z</time>
      </trkpt>
      <trkpt lat="47.48263" lon="-2.36561">
        <ele>49.6</ele>
        <time>2020-06-06T09:16:09Z</time>
      </trkpt>
      <trkpt lat="47.48263" lon="-2.36569">
        <ele>49.7</ele>
        <time>2020-06-06T09:16:10Z</time>
      </trkpt>
      <trkpt lat="47.48264" lon="-2.36577">
        <ele>49.8</ele>
        <time>2020-06-06T09:16:11Z</time>
      </trkpt>
      <trkpt lat="47.48264" lon="-2.36585">
        <ele>49.9</ele>
        <time>2020-06-06T09:16:12Z</time>
      </trkpt>
      <trkpt lat="47.48265" lon="-2.36595">
        <ele>49.9</ele>
        <time>2020-06-06T09:16:13Z</time>
      </trkpt>
      <trkpt lat="47.48265" lon="-2.36602">
        <ele>49.9</ele>
        <time>2020-06-06T09:16:14Z</time>
      </trkpt>
      <trkpt lat="47.48266" lon="-2.36611">
        <ele>50</ele>
        <time>2020-06-06T09:16:15Z</time>
      </trkpt>
      <trkpt lat="47.48267" lon="-2.36619">
        <ele>50</ele>
        <time>2020-06-06T09:16:16Z</time>
      </trkpt>
      <trkpt lat="47.48267" lon="-2.36629">
        <ele>50</ele>
        <time>2020-06-06T09:16:17Z</time>
      </trkpt>
      <trkpt lat="47.48267" lon="-2.36638">
        <ele>50</ele>
        <time>2020-06-06T09:16:18Z</time>
      </trkpt>
      <trkpt lat="47.48267" lon="-2.36647">
        <ele>50</ele>
        <time>2020-06-06T09:16:19Z</time>
      </trkpt>
      <trkpt lat="47.48268" lon="-2.36656">
        <ele>50</ele>
        <time>2020-06-06T09:16:20Z</time>
      </trkpt>
      <trkpt lat="47.48268" lon="-2.36665">
        <ele>50</ele>
        <time>2020-06-06T09:16:21Z</time>
      </trkpt>
      <trkpt lat="47.48269" lon="-2.36674">
        <ele>50</ele>
        <time>2020-06-06T09:16:22Z</time>
      </trkpt>
      <trkpt lat="47.48269" lon="-2.36683">
        <ele>50</ele>
        <time>2020-06-06T09:16:23Z</time>
      </trkpt>
      <trkpt lat="47.48268" lon="-2.36694">
        <ele>50</ele>
        <time>2020-06-06T09:16:24Z</time>
      </trkpt>
      <trkpt lat="47.48268" lon="-2.36704">
        <ele>50</ele>
        <time>2020-06-06T09:16:25Z</time>
      </trkpt>
      <trkpt lat="47.48268" lon="-2.36714">
        <ele>50</ele>
        <time>2020-06-06T09:16:26Z</time>
      </trkpt>
      <trkpt lat="47.48268" lon="-2.36723">
        <ele>50</ele>
        <time>2020-06-06T09:16:27Z</time>
      </trkpt>
      <trkpt lat="47.48267" lon="-2.36733">
        <ele>50</ele>
        <time>2020-06-06T09:16:28Z</time>
      </trkpt>
      <trkpt lat="47.48267" lon="-2.36743">
        <ele>50</ele>
        <time>2020-06-06T09:16:29Z</time>
      </trkpt>
      <trkpt lat="47.48267" lon="-2.36753">
        <ele>50</ele>
        <time>2020-06-06T09:16:30Z</time>
      </trkpt>
      <trkpt lat="47.48267" lon="-2.36763">
        <ele>49.9</ele>
        <time>2020-06-06T09:16:31Z</time>
      </trkpt>
      <trkpt lat="47.48267" lon="-2.36772">
        <ele>49.8</ele>
        <time>2020-06-06T09:16:32Z</time>
      </trkpt>
      <trkpt lat="47.48267" lon="-2.36782">
        <ele>49.8</ele>
        <time>2020-06-06T09:16:33Z</time>
      </trkpt>
      <trkpt lat="47.48267" lon="-2.36792">
        <ele>49.8</ele>
        <time>2020-06-06T09:16:34Z</time>
      </trkpt>
      <trkpt lat="47.48267" lon="-2.36802">
        <ele>49.8</ele>
        <time>2020-06-06T09:16:35Z</time>
      </trkpt>
      <trkpt lat="47.48267" lon="-2.36812">
        <ele>49.7</ele>
        <time>2020-06-06T09:16:36Z</time>
      </trkpt>
      <trkpt lat="47.48267" lon="-2.36823">
        <ele>49.7</ele>
        <time>2020-06-06T09:16:37Z</time>
      </trkpt>
      <trkpt lat="47.48267" lon="-2.36833">
        <ele>49.6</ele>
        <time>2020-06-06T09:16:38Z</time>
      </trkpt>
      <trkpt lat="47.48267" lon="-2.36844">
        <ele>49.6</ele>
        <time>2020-06-06T09:16:39Z</time>
      </trkpt>
      <trkpt lat="47.48268" lon="-2.36855">
        <ele>49.5</ele>
        <time>2020-06-06T09:16:40Z</time>
      </trkpt>
      <trkpt lat="47.48269" lon="-2.36866">
        <ele>49.5</ele>
        <time>2020-06-06T09:16:41Z</time>
      </trkpt>
      <trkpt lat="47.4827" lon="-2.36877">
        <ele>49.4</ele>
        <time>2020-06-06T09:16:42Z</time>
      </trkpt>
      <trkpt lat="47.4827" lon="-2.36888">
        <ele>49.3</ele>
        <time>2020-06-06T09:16:43Z</time>
      </trkpt>
      <trkpt lat="47.48271" lon="-2.36899">
        <ele>49.2</ele>
        <time>2020-06-06T09:16:44Z</time>
      </trkpt>
      <trkpt lat="47.48271" lon="-2.36909">
        <ele>49.2</ele>
        <time>2020-06-06T09:16:45Z</time>
      </trkpt>
      <trkpt lat="47.48271" lon="-2.3692">
        <ele>49.1</ele>
        <time>2020-06-06T09:16:46Z</time>
      </trkpt>
      <trkpt lat="47.48271" lon="-2.36931">
        <ele>49</ele>
        <time>2020-06-06T09:16:47Z</time>
      </trkpt>
      <trkpt lat="47.48271" lon="-2.36942">
        <ele>48.9</ele>
        <time>2020-06-06T09:16:48Z</time>
      </trkpt>
      <trkpt lat="47.48271" lon="-2.36954">
        <ele>48.6</ele>
        <time>2020-06-06T09:16:49Z</time>
      </trkpt>
      <trkpt lat="47.48272" lon="-2.36965">
        <ele>48.3</ele>
        <time>2020-06-06T09:16:50Z</time>
      </trkpt>
      <trkpt lat="47.48272" lon="-2.36976">
        <ele>48</ele>
        <time>2020-06-06T09:16:51Z</time>
      </trkpt>
      <trkpt lat="47.48272" lon="-2.36988">
        <ele>47.7</ele>
        <time>2020-06-06T09:16:52Z</time>
      </trkpt>
      <trkpt lat="47.48272" lon="-2.37001">
        <ele>47.4</ele>
        <time>2020-06-06T09:16:53Z</time>
      </trkpt>
      <trkpt lat="47.48272" lon="-2.37013">
        <ele>47</ele>
        <time>2020-06-06T09:16:54Z</time>
      </trkpt>
      <trkpt lat="47.48272" lon="-2.37026">
        <ele>46.6</ele>
        <time>2020-06-06T09:16:55Z</time>
      </trkpt>
      <trkpt lat="47.48272" lon="-2.37038">
        <ele>46.3</ele>
        <time>2020-06-06T09:16:56Z</time>
      </trkpt>
      <trkpt lat="47.48272" lon="-2.37051">
        <ele>46</ele>
        <time>2020-06-06T09:16:57Z</time>
      </trkpt>
      <trkpt lat="47.48273" lon="-2.37063">
        <ele>45.6</ele>
        <time>2020-06-06T09:16:58Z</time>
      </trkpt>
      <trkpt lat="47.48273" lon="-2.37074">
        <ele>45.3</ele>
        <time>2020-06-06T09:16:59Z</time>
      </trkpt>
      <trkpt lat="47.48273" lon="-2.37086">
        <ele>45</ele>
        <time>2020-06-06T09:17:00Z</time>
      </trkpt>
      <trkpt lat="47.48273" lon="-2.37097">
        <ele>44.7</ele>
        <time>2020-06-06T09:17:01Z</time>
      </trkpt>
      <trkpt lat="47.48273" lon="-2.37108">
        <ele>44.5</ele>
        <time>2020-06-06T09:17:02Z</time>
      </trkpt>
      <trkpt lat="47.48275" lon="-2.3712">
        <ele>44.1</ele>
        <time>2020-06-06T09:17:03Z</time>
      </trkpt>
      <trkpt lat="47.48275" lon="-2.3713">
        <ele>43.8</ele>
        <time>2020-06-06T09:17:04Z</time>
      </trkpt>
      <trkpt lat="47.48275" lon="-2.3714">
        <ele>43.5</ele>
        <time>2020-06-06T09:17:05Z</time>
      </trkpt>
      <trkpt lat="47.48276" lon="-2.3715">
        <ele>43.2</ele>
        <time>2020-06-06T09:17:06Z</time>
      </trkpt>
      <trkpt lat="47.48277" lon="-2.37162">
        <ele>42.9</ele>
        <time>2020-06-06T09:17:07Z</time>
      </trkpt>
      <trkpt lat="47.48279" lon="-2.37175">
        <ele>42.6</ele>
        <time>2020-06-06T09:17:08Z</time>
      </trkpt>
      <trkpt lat="47.48279" lon="-2.37186">
        <ele>42.3</ele>
        <time>2020-06-06T09:17:09Z</time>
      </trkpt>
      <trkpt lat="47.48279" lon="-2.37198">
        <ele>42</ele>
        <time>2020-06-06T09:17:10Z</time>
      </trkpt>
      <trkpt lat="47.48279" lon="-2.37209">
        <ele>41.8</ele>
        <time>2020-06-06T09:17:11Z</time>
      </trkpt>
      <trkpt lat="47.48279" lon="-2.37221">
        <ele>41.6</ele>
        <time>2020-06-06T09:17:12Z</time>
      </trkpt>
      <trkpt lat="47.48278" lon="-2.37232">
        <ele>41.4</ele>
        <time>2020-06-06T09:17:13Z</time>
      </trkpt>
      <trkpt lat="47.48278" lon="-2.37243">
        <ele>41.4</ele>
        <time>2020-06-06T09:17:14Z</time>
      </trkpt>
      <trkpt lat="47.48279" lon="-2.37255">
        <ele>41.4</ele>
        <time>2020-06-06T09:17:15Z</time>
      </trkpt>
      <trkpt lat="47.48279" lon="-2.37266">
        <ele>41.4</ele>
        <time>2020-06-06T09:17:16Z</time>
      </trkpt>
      <trkpt lat="47.48278" lon="-2.37277">
        <ele>41.4</ele>
        <time>2020-06-06T09:17:17Z</time>
      </trkpt>
      <trkpt lat="47.48277" lon="-2.37287">
        <ele>41.4</ele>
        <time>2020-06-06T09:17:18Z</time>
      </trkpt>
      <trkpt lat="47.48277" lon="-2.37297">
        <ele>41.4</ele>
        <time>2020-06-06T09:17:19Z</time>
      </trkpt>
      <trkpt lat="47.48278" lon="-2.37308">
        <ele>41.4</ele>
        <time>2020-06-06T09:17:20Z</time>
      </trkpt>
      <trkpt lat="47.48279" lon="-2.37318">
        <ele>41.4</ele>
        <time>2020-06-06T09:17:21Z</time>
      </trkpt>
      <trkpt lat="47.4828" lon="-2.37327">
        <ele>41.4</ele>
        <time>2020-06-06T09:17:22Z</time>
      </trkpt>
      <trkpt lat="47.48281" lon="-2.37337">
        <ele>41.4</ele>
        <time>2020-06-06T09:17:23Z</time>
      </trkpt>
      <trkpt lat="47.48282" lon="-2.37348">
        <ele>41.4</ele>
        <time>2020-06-06T09:17:24Z</time>
      </trkpt>
      <trkpt lat="47.48283" lon="-2.37358">
        <ele>41.4</ele>
        <time>2020-06-06T09:17:25Z</time>
      </trkpt>
      <trkpt lat="47.48283" lon="-2.37369">
        <ele>41.3</ele>
        <time>2020-06-06T09:17:26Z</time>
      </trkpt>
      <trkpt lat="47.48284" lon="-2.3738">
        <ele>41.3</ele>
        <time>2020-06-06T09:17:27Z</time>
      </trkpt>
      <trkpt lat="47.48284" lon="-2.3739">
        <ele>41.3</ele>
        <time>2020-06-06T09:17:28Z</time>
      </trkpt>
      <trkpt lat="47.48285" lon="-2.37401">
        <ele>41.2</ele>
        <time>2020-06-06T09:17:29Z</time>
      </trkpt>
      <trkpt lat="47.48285" lon="-2.37412">
        <ele>41.2</ele>
        <time>2020-06-06T09:17:30Z</time>
      </trkpt>
      <trkpt lat="47.48284" lon="-2.37422">
        <ele>41.2</ele>
        <time>2020-06-06T09:17:31Z</time>
      </trkpt>
      <trkpt lat="47.48283" lon="-2.37431">
        <ele>41.2</ele>
        <time>2020-06-06T09:17:32Z</time>
      </trkpt>
      <trkpt lat="47.48281" lon="-2.37442">
        <ele>41.1</ele>
        <time>2020-06-06T09:17:33Z</time>
      </trkpt>
      <trkpt lat="47.4828" lon="-2.37453">
        <ele>41.1</ele>
        <time>2020-06-06T09:17:34Z</time>
      </trkpt>
      <trkpt lat="47.48279" lon="-2.37464">
        <ele>41.2</ele>
        <time>2020-06-06T09:17:35Z</time>
      </trkpt>
      <trkpt lat="47.48278" lon="-2.37474">
        <ele>41.2</ele>
        <time>2020-06-06T09:17:36Z</time>
      </trkpt>
      <trkpt lat="47.48277" lon="-2.37485">
        <ele>41.2</ele>
        <time>2020-06-06T09:17:37Z</time>
      </trkpt>
      <trkpt lat="47.48277" lon="-2.37496">
        <ele>41.3</ele>
        <time>2020-06-06T09:17:38Z</time>
      </trkpt>
      <trkpt lat="47.48278" lon="-2.37507">
        <ele>41.3</ele>
        <time>2020-06-06T09:17:39Z</time>
      </trkpt>
      <trkpt lat="47.48278" lon="-2.37517">
        <ele>41.3</ele>
        <time>2020-06-06T09:17:40Z</time>
      </trkpt>
      <trkpt lat="47.48279" lon="-2.37528">
        <ele>41.4</ele>
        <time>2020-06-06T09:17:41Z</time>
      </trkpt>
      <trkpt lat="47.48279" lon="-2.37538">
        <ele>41.4</ele>
        <time>2020-06-06T09:17:42Z</time>
      </trkpt>
      <trkpt lat="47.48279" lon="-2.37548">
        <ele>41.4</ele>
        <time>2020-06-06T09:17:43Z</time>
      </trkpt>
      <trkpt lat="47.4828" lon="-2.37558">
        <ele>41.5</ele>
        <time>2020-06-06T09:17:44Z</time>
      </trkpt>
      <trkpt lat="47.48281" lon="-2.37569">
        <ele>41.6</ele>
        <time>2020-06-06T09:17:45Z</time>
      </trkpt>
      <trkpt lat="47.48281" lon="-2.37579">
        <ele>41.6</ele>
        <time>2020-06-06T09:17:46Z</time>
      </trkpt>
      <trkpt lat="47.48282" lon="-2.3759">
        <ele>41.7</ele>
        <time>2020-06-06T09:17:47Z</time>
      </trkpt>
      <trkpt lat="47.48283" lon="-2.37601">
        <ele>41.6</ele>
        <time>2020-06-06T09:17:48Z</time>
      </trkpt>
      <trkpt lat="47.48283" lon="-2.37612">
        <ele>41.4</ele>
        <time>2020-06-06T09:17:49Z</time>
      </trkpt>
      <trkpt lat="47.48282" lon="-2.37622">
        <ele>41.3</ele>
        <time>2020-06-06T09:17:50Z</time>
      </trkpt>
      <trkpt lat="47.48282" lon="-2.37633">
        <ele>41.2</ele>
        <time>2020-06-06T09:17:51Z</time>
      </trkpt>
      <trkpt lat="47.48281" lon="-2.37644">
        <ele>41.2</ele>
        <time>2020-06-06T09:17:52Z</time>
      </trkpt>
      <trkpt lat="47.4828" lon="-2.37654">
        <ele>41.3</ele>
        <time>2020-06-06T09:17:53Z</time>
      </trkpt>
      <trkpt lat="47.4828" lon="-2.37665">
        <ele>41.3</ele>
        <time>2020-06-06T09:17:54Z</time>
      </trkpt>
      <trkpt lat="47.4828" lon="-2.37675">
        <ele>41.3</ele>
        <time>2020-06-06T09:17:55Z</time>
      </trkpt>
      <trkpt lat="47.48281" lon="-2.37686">
        <ele>41.3</ele>
        <time>2020-06-06T09:17:56Z</time>
      </trkpt>
      <trkpt lat="47.48282" lon="-2.37697">
        <ele>41.3</ele>
        <time>2020-06-06T09:17:57Z</time>
      </trkpt>
      <trkpt lat="47.48281" lon="-2.37708">
        <ele>41.3</ele>
        <time>2020-06-06T09:17:58Z</time>
      </trkpt>
      <trkpt lat="47.4828" lon="-2.37719">
        <ele>41.4</ele>
        <time>2020-06-06T09:17:59Z</time>
      </trkpt>
      <trkpt lat="47.48281" lon="-2.3773">
        <ele>41.4</ele>
        <time>2020-06-06T09:18:00Z</time>
      </trkpt>
      <trkpt lat="47.4828" lon="-2.3774">
        <ele>41.4</ele>
        <time>2020-06-06T09:18:01Z</time>
      </trkpt>
      <trkpt lat="47.48281" lon="-2.37751">
        <ele>41.4</ele>
        <time>2020-06-06T09:18:02Z</time>
      </trkpt>
      <trkpt lat="47.48281" lon="-2.37762">
        <ele>41.4</ele>
        <time>2020-06-06T09:18:03Z</time>
      </trkpt>
      <trkpt lat="47.48282" lon="-2.37774">
        <ele>41.3</ele>
        <time>2020-06-06T09:18:04Z</time>
      </trkpt>
      <trkpt lat="47.48283" lon="-2.37785">
        <ele>41.3</ele>
        <time>2020-06-06T09:18:05Z</time>
      </trkpt>
      <trkpt lat="47.48283" lon="-2.37796">
        <ele>41.2</ele>
        <time>2020-06-06T09:18:06Z</time>
      </trkpt>
      <trkpt lat="47.48284" lon="-2.37807">
        <ele>41.2</ele>
        <time>2020-06-06T09:18:07Z</time>
      </trkpt>
      <trkpt lat="47.48284" lon="-2.37818">
        <ele>41.1</ele>
        <time>2020-06-06T09:18:08Z</time>
      </trkpt>
      <trkpt lat="47.48284" lon="-2.37829">
        <ele>41</ele>
        <time>2020-06-06T09:18:09Z</time>
      </trkpt>
      <trkpt lat="47.48285" lon="-2.37839">
        <ele>40.9</ele>
        <time>2020-06-06T09:18:10Z</time>
      </trkpt>
      <trkpt lat="47.48285" lon="-2.3785">
        <ele>40.8</ele>
        <time>2020-06-06T09:18:11Z</time>
      </trkpt>
      <trkpt lat="47.48285" lon="-2.3786">
        <ele>40.7</ele>
        <time>2020-06-06T09:18:12Z</time>
      </trkpt>
      <trkpt lat="47.48286" lon="-2.3787">
        <ele>40.7</ele>
        <time>2020-06-06T09:18:13Z</time>
      </trkpt>
      <trkpt lat="47.48287" lon="-2.3788">
        <ele>40.6</ele>
        <time>2020-06-06T09:18:14Z</time>
      </trkpt>
      <trkpt lat="47.48287" lon="-2.37889">
        <ele>40.6</ele>
        <time>2020-06-06T09:18:15Z</time>
      </trkpt>
      <trkpt lat="47.48288" lon="-2.37898">
        <ele>40.6</ele>
        <time>2020-06-06T09:18:16Z</time>
      </trkpt>
      <trkpt lat="47.48289" lon="-2.37906">
        <ele>40.5</ele>
        <time>2020-06-06T09:18:17Z</time>
      </trkpt>
      <trkpt lat="47.48292" lon="-2.37914">
        <ele>40.5</ele>
        <time>2020-06-06T09:18:18Z</time>
      </trkpt>
      <trkpt lat="47.48294" lon="-2.37922">
        <ele>40.6</ele>
        <time>2020-06-06T09:18:19Z</time>
      </trkpt>
      <trkpt lat="47.48297" lon="-2.37929">
        <ele>40.6</ele>
        <time>2020-06-06T09:18:20Z</time>
      </trkpt>
      <trkpt lat="47.48301" lon="-2.37936">
        <ele>40</ele>
        <time>2020-06-06T09:18:21Z</time>
      </trkpt>
      <trkpt lat="47.48307" lon="-2.37943">
        <ele>39.8</ele>
        <time>2020-06-06T09:18:22Z</time>
      </trkpt>
      <trkpt lat="47.48312" lon="-2.37949">
        <ele>39.6</ele>
        <time>2020-06-06T09:18:23Z</time>
      </trkpt>
      <trkpt lat="47.48318" lon="-2.37954">
        <ele>39.4</ele>
        <time>2020-06-06T09:18:24Z</time>
      </trkpt>
      <trkpt lat="47.48324" lon="-2.37959">
        <ele>39.2</ele>
        <time>2020-06-06T09:18:25Z</time>
      </trkpt>
      <trkpt lat="47.4833" lon="-2.37964">
        <ele>39</ele>
        <time>2020-06-06T09:18:26Z</time>
      </trkpt>
      <trkpt lat="47.48336" lon="-2.3797">
        <ele>38.8</ele>
        <time>2020-06-06T09:18:27Z</time>
      </trkpt>
      <trkpt lat="47.48342" lon="-2.37977">
        <ele>38.6</ele>
        <time>2020-06-06T09:18:28Z</time>
      </trkpt>
      <trkpt lat="47.48347" lon="-2.37984">
        <ele>38.4</ele>
        <time>2020-06-06T09:18:29Z</time>
      </trkpt>
      <trkpt lat="47.48353" lon="-2.3799">
        <ele>38.2</ele>
        <time>2020-06-06T09:18:30Z</time>
      </trkpt>
      <trkpt lat="47.48359" lon="-2.37997">
        <ele>37.9</ele>
        <time>2020-06-06T09:18:31Z</time>
      </trkpt>
      <trkpt lat="47.48364" lon="-2.38004">
        <ele>37.7</ele>
        <time>2020-06-06T09:18:32Z</time>
      </trkpt>
      <trkpt lat="47.4837" lon="-2.38011">
        <ele>37.5</ele>
        <time>2020-06-06T09:18:33Z</time>
      </trkpt>
      <trkpt lat="47.48377" lon="-2.38017">
        <ele>37.3</ele>
        <time>2020-06-06T09:18:34Z</time>
      </trkpt>
      <trkpt lat="47.48383" lon="-2.38023">
        <ele>37.1</ele>
        <time>2020-06-06T09:18:35Z</time>
      </trkpt>
      <trkpt lat="47.4839" lon="-2.38029">
        <ele>37</ele>
        <time>2020-06-06T09:18:36Z</time>
      </trkpt>
      <trkpt lat="47.48395" lon="-2.38036">
        <ele>36.9</ele>
        <time>2020-06-06T09:18:37Z</time>
      </trkpt>
      <trkpt lat="47.48402" lon="-2.38042">
        <ele>36.8</ele>
        <time>2020-06-06T09:18:39Z</time>
      </trkpt>
      <trkpt lat="47.48408" lon="-2.38047">
        <ele>36.6</ele>
        <time>2020-06-06T09:18:40Z</time>
      </trkpt>
      <trkpt lat="47.48414" lon="-2.38053">
        <ele>36.5</ele>
        <time>2020-06-06T09:18:41Z</time>
      </trkpt>
      <trkpt lat="47.4842" lon="-2.38059">
        <ele>36.4</ele>
        <time>2020-06-06T09:18:42Z</time>
      </trkpt>
      <trkpt lat="47.48427" lon="-2.38066">
        <ele>36.2</ele>
        <time>2020-06-06T09:18:43Z</time>
      </trkpt>
      <trkpt lat="47.48434" lon="-2.38072">
        <ele>36.1</ele>
        <time>2020-06-06T09:18:44Z</time>
      </trkpt>
      <trkpt lat="47.4844" lon="-2.38078">
        <ele>36</ele>
        <time>2020-06-06T09:18:45Z</time>
      </trkpt>
      <trkpt lat="47.48447" lon="-2.38084">
        <ele>35.9</ele>
        <time>2020-06-06T09:18:46Z</time>
      </trkpt>
      <trkpt lat="47.48453" lon="-2.38089">
        <ele>35.8</ele>
        <time>2020-06-06T09:18:47Z</time>
      </trkpt>
      <trkpt lat="47.4846" lon="-2.38095">
        <ele>35.7</ele>
        <time>2020-06-06T09:18:48Z</time>
      </trkpt>
      <trkpt lat="47.48466" lon="-2.38101">
        <ele>35.5</ele>
        <time>2020-06-06T09:18:49Z</time>
      </trkpt>
      <trkpt lat="47.48474" lon="-2.38107">
        <ele>35.4</ele>
        <time>2020-06-06T09:18:50Z</time>
      </trkpt>
      <trkpt lat="47.48481" lon="-2.38112">
        <ele>35.3</ele>
        <time>2020-06-06T09:18:51Z</time>
      </trkpt>
      <trkpt lat="47.48487" lon="-2.38118">
        <ele>35.1</ele>
        <time>2020-06-06T09:18:52Z</time>
      </trkpt>
      <trkpt lat="47.48494" lon="-2.38124">
        <ele>35</ele>
        <time>2020-06-06T09:18:53Z</time>
      </trkpt>
      <trkpt lat="47.48501" lon="-2.3813">
        <ele>34.9</ele>
        <time>2020-06-06T09:18:54Z</time>
      </trkpt>
      <trkpt lat="47.48507" lon="-2.38137">
        <ele>34.8</ele>
        <time>2020-06-06T09:18:55Z</time>
      </trkpt>
      <trkpt lat="47.48514" lon="-2.38143">
        <ele>34.7</ele>
        <time>2020-06-06T09:18:56Z</time>
      </trkpt>
      <trkpt lat="47.4852" lon="-2.38149">
        <ele>34.5</ele>
        <time>2020-06-06T09:18:57Z</time>
      </trkpt>
      <trkpt lat="47.48527" lon="-2.38154">
        <ele>34.4</ele>
        <time>2020-06-06T09:18:58Z</time>
      </trkpt>
      <trkpt lat="47.48534" lon="-2.38159">
        <ele>34.3</ele>
        <time>2020-06-06T09:18:59Z</time>
      </trkpt>
      <trkpt lat="47.48542" lon="-2.38165">
        <ele>34.2</ele>
        <time>2020-06-06T09:19:00Z</time>
      </trkpt>
      <trkpt lat="47.48549" lon="-2.3817">
        <ele>34.1</ele>
        <time>2020-06-06T09:19:01Z</time>
      </trkpt>
      <trkpt lat="47.48556" lon="-2.38176">
        <ele>34</ele>
        <time>2020-06-06T09:19:02Z</time>
      </trkpt>
      <trkpt lat="47.48563" lon="-2.38182">
        <ele>33.9</ele>
        <time>2020-06-06T09:19:03Z</time>
      </trkpt>
      <trkpt lat="47.4857" lon="-2.38187">
        <ele>33.8</ele>
        <time>2020-06-06T09:19:04Z</time>
      </trkpt>
      <trkpt lat="47.48578" lon="-2.38192">
        <ele>33.8</ele>
        <time>2020-06-06T09:19:05Z</time>
      </trkpt>
      <trkpt lat="47.48585" lon="-2.38196">
        <ele>33.7</ele>
        <time>2020-06-06T09:19:06Z</time>
      </trkpt>
      <trkpt lat="47.48592" lon="-2.382">
        <ele>33.7</ele>
        <time>2020-06-06T09:19:07Z</time>
      </trkpt>
      <trkpt lat="47.486" lon="-2.38204">
        <ele>33.6</ele>
        <time>2020-06-06T09:19:08Z</time>
      </trkpt>
      <trkpt lat="47.48607" lon="-2.38208">
        <ele>33.6</ele>
        <time>2020-06-06T09:19:09Z</time>
      </trkpt>
      <trkpt lat="47.48614" lon="-2.38212">
        <ele>33.5</ele>
        <time>2020-06-06T09:19:10Z</time>
      </trkpt>
      <trkpt lat="47.48621" lon="-2.38217">
        <ele>33.5</ele>
        <time>2020-06-06T09:19:11Z</time>
      </trkpt>
      <trkpt lat="47.48628" lon="-2.3822">
        <ele>33.5</ele>
        <time>2020-06-06T09:19:12Z</time>
      </trkpt>
      <trkpt lat="47.48636" lon="-2.38223">
        <ele>33.5</ele>
        <time>2020-06-06T09:19:13Z</time>
      </trkpt>
      <trkpt lat="47.48642" lon="-2.38227">
        <ele>33.5</ele>
        <time>2020-06-06T09:19:14Z</time>
      </trkpt>
      <trkpt lat="47.48649" lon="-2.38231">
        <ele>33.5</ele>
        <time>2020-06-06T09:19:15Z</time>
      </trkpt>
      <trkpt lat="47.48656" lon="-2.38234">
        <ele>33.5</ele>
        <time>2020-06-06T09:19:16Z</time>
      </trkpt>
      <trkpt lat="47.48662" lon="-2.38237">
        <ele>33.4</ele>
        <time>2020-06-06T09:19:17Z</time>
      </trkpt>
      <trkpt lat="47.48669" lon="-2.38241">
        <ele>33.4</ele>
        <time>2020-06-06T09:19:18Z</time>
      </trkpt>
      <trkpt lat="47.48677" lon="-2.38244">
        <ele>33.3</ele>
        <time>2020-06-06T09:19:19Z</time>
      </trkpt>
      <trkpt lat="47.48684" lon="-2.38247">
        <ele>33.3</ele>
        <time>2020-06-06T09:19:20Z</time>
      </trkpt>
      <trkpt lat="47.48692" lon="-2.38249">
        <ele>33.2</ele>
        <time>2020-06-06T09:19:21Z</time>
      </trkpt>
      <trkpt lat="47.48699" lon="-2.38251">
        <ele>33.2</ele>
        <time>2020-06-06T09:19:22Z</time>
      </trkpt>
      <trkpt lat="47.48707" lon="-2.38255">
        <ele>33.2</ele>
        <time>2020-06-06T09:19:23Z</time>
      </trkpt>
      <trkpt lat="47.48714" lon="-2.38259">
        <ele>33.2</ele>
        <time>2020-06-06T09:19:24Z</time>
      </trkpt>
      <trkpt lat="47.4872" lon="-2.38263">
        <ele>33.2</ele>
        <time>2020-06-06T09:19:25Z</time>
      </trkpt>
      <trkpt lat="47.48727" lon="-2.38266">
        <ele>33.2</ele>
        <time>2020-06-06T09:19:26Z</time>
      </trkpt>
      <trkpt lat="47.48734" lon="-2.3827">
        <ele>33.2</ele>
        <time>2020-06-06T09:19:27Z</time>
      </trkpt>
      <trkpt lat="47.4874" lon="-2.38273">
        <ele>33.3</ele>
        <time>2020-06-06T09:19:28Z</time>
      </trkpt>
      <trkpt lat="47.48747" lon="-2.38276">
        <ele>33.3</ele>
        <time>2020-06-06T09:19:29Z</time>
      </trkpt>
      <trkpt lat="47.48754" lon="-2.38279">
        <ele>33.3</ele>
        <time>2020-06-06T09:19:30Z</time>
      </trkpt>
      <trkpt lat="47.4876" lon="-2.38282">
        <ele>33.3</ele>
        <time>2020-06-06T09:19:31Z</time>
      </trkpt>
      <trkpt lat="47.48767" lon="-2.38285">
        <ele>33.3</ele>
        <time>2020-06-06T09:19:32Z</time>
      </trkpt>
      <trkpt lat="47.48773" lon="-2.38287">
        <ele>33.3</ele>
        <time>2020-06-06T09:19:33Z</time>
      </trkpt>
      <trkpt lat="47.48779" lon="-2.3829">
        <ele>33.4</ele>
        <time>2020-06-06T09:19:34Z</time>
      </trkpt>
      <trkpt lat="47.48786" lon="-2.38292">
        <ele>33.4</ele>
        <time>2020-06-06T09:19:35Z</time>
      </trkpt>
      <trkpt lat="47.48792" lon="-2.38294">
        <ele>33.4</ele>
        <time>2020-06-06T09:19:36Z</time>
      </trkpt>
      <trkpt lat="47.48798" lon="-2.38297">
        <ele>33.4</ele>
        <time>2020-06-06T09:19:37Z</time>
      </trkpt>
      <trkpt lat="47.48804" lon="-2.38299">
        <ele>33.4</ele>
        <time>2020-06-06T09:19:38Z</time>
      </trkpt>
      <trkpt lat="47.4881" lon="-2.38302">
        <ele>33.4</ele>
        <time>2020-06-06T09:19:39Z</time>
      </trkpt>
      <trkpt lat="47.48817" lon="-2.38306">
        <ele>33.4</ele>
        <time>2020-06-06T09:19:40Z</time>
      </trkpt>
      <trkpt lat="47.48823" lon="-2.38308">
        <ele>33.4</ele>
        <time>2020-06-06T09:19:41Z</time>
      </trkpt>
      <trkpt lat="47.48829" lon="-2.38311">
        <ele>33.4</ele>
        <time>2020-06-06T09:19:42Z</time>
      </trkpt>
      <trkpt lat="47.48836" lon="-2.38314">
        <ele>33.4</ele>
        <time>2020-06-06T09:19:43Z</time>
      </trkpt>
      <trkpt lat="47.48842" lon="-2.38318">
        <ele>33.4</ele>
        <time>2020-06-06T09:19:44Z</time>
      </trkpt>
      <trkpt lat="47.48849" lon="-2.38321">
        <ele>33.4</ele>
        <time>2020-06-06T09:19:45Z</time>
      </trkpt>
      <trkpt lat="47.48855" lon="-2.38323">
        <ele>33.4</ele>
        <time>2020-06-06T09:19:46Z</time>
      </trkpt>
      <trkpt lat="47.48862" lon="-2.38326">
        <ele>33.4</ele>
        <time>2020-06-06T09:19:47Z</time>
      </trkpt>
      <trkpt lat="47.48868" lon="-2.38329">
        <ele>33.4</ele>
        <time>2020-06-06T09:19:48Z</time>
      </trkpt>
      <trkpt lat="47.48875" lon="-2.38331">
        <ele>33.3</ele>
        <time>2020-06-06T09:19:49Z</time>
      </trkpt>
      <trkpt lat="47.48881" lon="-2.38334">
        <ele>33.3</ele>
        <time>2020-06-06T09:19:50Z</time>
      </trkpt>
      <trkpt lat="47.48888" lon="-2.38337">
        <ele>33.3</ele>
        <time>2020-06-06T09:19:51Z</time>
      </trkpt>
      <trkpt lat="47.48895" lon="-2.38339">
        <ele>33.3</ele>
        <time>2020-06-06T09:19:52Z</time>
      </trkpt>
      <trkpt lat="47.48902" lon="-2.38342">
        <ele>33.3</ele>
        <time>2020-06-06T09:19:53Z</time>
      </trkpt>
      <trkpt lat="47.48909" lon="-2.38345">
        <ele>33.3</ele>
        <time>2020-06-06T09:19:54Z</time>
      </trkpt>
      <trkpt lat="47.48915" lon="-2.38348">
        <ele>33.2</ele>
        <time>2020-06-06T09:19:55Z</time>
      </trkpt>
      <trkpt lat="47.48922" lon="-2.38352">
        <ele>33.2</ele>
        <time>2020-06-06T09:19:56Z</time>
      </trkpt>
      <trkpt lat="47.48935" lon="-2.38359">
        <ele>33.1</ele>
        <time>2020-06-06T09:19:57Z</time>
      </trkpt>
      <trkpt lat="47.48942" lon="-2.38363">
        <ele>33.1</ele>
        <time>2020-06-06T09:19:58Z</time>
      </trkpt>
      <trkpt lat="47.48948" lon="-2.38366">
        <ele>33</ele>
        <time>2020-06-06T09:19:59Z</time>
      </trkpt>
      <trkpt lat="47.48955" lon="-2.38369">
        <ele>33</ele>
        <time>2020-06-06T09:20:00Z</time>
      </trkpt>
      <trkpt lat="47.48962" lon="-2.38372">
        <ele>32.9</ele>
        <time>2020-06-06T09:20:01Z</time>
      </trkpt>
      <trkpt lat="47.48968" lon="-2.38375">
        <ele>32.9</ele>
        <time>2020-06-06T09:20:02Z</time>
      </trkpt>
      <trkpt lat="47.48975" lon="-2.38377">
        <ele>32.8</ele>
        <time>2020-06-06T09:20:03Z</time>
      </trkpt>
      <trkpt lat="47.48982" lon="-2.38379">
        <ele>32.7</ele>
        <time>2020-06-06T09:20:04Z</time>
      </trkpt>
      <trkpt lat="47.48989" lon="-2.38382">
        <ele>32.6</ele>
        <time>2020-06-06T09:20:05Z</time>
      </trkpt>
      <trkpt lat="47.48996" lon="-2.38385">
        <ele>32.5</ele>
        <time>2020-06-06T09:20:06Z</time>
      </trkpt>
      <trkpt lat="47.49003" lon="-2.38388">
        <ele>32.4</ele>
        <time>2020-06-06T09:20:07Z</time>
      </trkpt>
      <trkpt lat="47.4901" lon="-2.38392">
        <ele>32.3</ele>
        <time>2020-06-06T09:20:08Z</time>
      </trkpt>
      <trkpt lat="47.49017" lon="-2.38396">
        <ele>32.2</ele>
        <time>2020-06-06T09:20:09Z</time>
      </trkpt>
      <trkpt lat="47.49024" lon="-2.38401">
        <ele>32.1</ele>
        <time>2020-06-06T09:20:10Z</time>
      </trkpt>
      <trkpt lat="47.4903" lon="-2.38405">
        <ele>31.9</ele>
        <time>2020-06-06T09:20:11Z</time>
      </trkpt>
      <trkpt lat="47.49037" lon="-2.38411">
        <ele>31.8</ele>
        <time>2020-06-06T09:20:12Z</time>
      </trkpt>
      <trkpt lat="47.49043" lon="-2.38416">
        <ele>31.7</ele>
        <time>2020-06-06T09:20:13Z</time>
      </trkpt>
      <trkpt lat="47.4905" lon="-2.38421">
        <ele>31.5</ele>
        <time>2020-06-06T09:20:14Z</time>
      </trkpt>
      <trkpt lat="47.49056" lon="-2.38426">
        <ele>31.4</ele>
        <time>2020-06-06T09:20:15Z</time>
      </trkpt>
      <trkpt lat="47.49062" lon="-2.3843">
        <ele>31.2</ele>
        <time>2020-06-06T09:20:16Z</time>
      </trkpt>
      <trkpt lat="47.49069" lon="-2.38436">
        <ele>31</ele>
        <time>2020-06-06T09:20:17Z</time>
      </trkpt>
      <trkpt lat="47.49076" lon="-2.38441">
        <ele>30.8</ele>
        <time>2020-06-06T09:20:18Z</time>
      </trkpt>
      <trkpt lat="47.49082" lon="-2.38447">
        <ele>30.6</ele>
        <time>2020-06-06T09:20:19Z</time>
      </trkpt>
      <trkpt lat="47.49089" lon="-2.38453">
        <ele>30.4</ele>
        <time>2020-06-06T09:20:20Z</time>
      </trkpt>
      <trkpt lat="47.49096" lon="-2.38457">
        <ele>30.2</ele>
        <time>2020-06-06T09:20:21Z</time>
      </trkpt>
      <trkpt lat="47.49103" lon="-2.38462">
        <ele>29.9</ele>
        <time>2020-06-06T09:20:22Z</time>
      </trkpt>
      <trkpt lat="47.4911" lon="-2.38467">
        <ele>29.8</ele>
        <time>2020-06-06T09:20:23Z</time>
      </trkpt>
      <trkpt lat="47.49118" lon="-2.38472">
        <ele>29.6</ele>
        <time>2020-06-06T09:20:24Z</time>
      </trkpt>
      <trkpt lat="47.49125" lon="-2.38477">
        <ele>29.4</ele>
        <time>2020-06-06T09:20:25Z</time>
      </trkpt>
      <trkpt lat="47.49132" lon="-2.38483">
        <ele>29.2</ele>
        <time>2020-06-06T09:20:26Z</time>
      </trkpt>
      <trkpt lat="47.49139" lon="-2.38487">
        <ele>28.9</ele>
        <time>2020-06-06T09:20:27Z</time>
      </trkpt>
      <trkpt lat="47.49145" lon="-2.38492">
        <ele>28.6</ele>
        <time>2020-06-06T09:20:28Z</time>
      </trkpt>
      <trkpt lat="47.49152" lon="-2.38498">
        <ele>28.4</ele>
        <time>2020-06-06T09:20:29Z</time>
      </trkpt>
      <trkpt lat="47.49159" lon="-2.38502">
        <ele>28.1</ele>
        <time>2020-06-06T09:20:30Z</time>
      </trkpt>
      <trkpt lat="47.49166" lon="-2.38508">
        <ele>27.8</ele>
        <time>2020-06-06T09:20:31Z</time>
      </trkpt>
      <trkpt lat="47.49173" lon="-2.38513">
        <ele>27.5</ele>
        <time>2020-06-06T09:20:32Z</time>
      </trkpt>
      <trkpt lat="47.49181" lon="-2.38519">
        <ele>27.2</ele>
        <time>2020-06-06T09:20:33Z</time>
      </trkpt>
      <trkpt lat="47.49188" lon="-2.38525">
        <ele>26.8</ele>
        <time>2020-06-06T09:20:34Z</time>
      </trkpt>
      <trkpt lat="47.49195" lon="-2.38532">
        <ele>26.5</ele>
        <time>2020-06-06T09:20:35Z</time>
      </trkpt>
      <trkpt lat="47.49203" lon="-2.38539">
        <ele>26.3</ele>
        <time>2020-06-06T09:20:36Z</time>
      </trkpt>
      <trkpt lat="47.4921" lon="-2.38546">
        <ele>25.7</ele>
        <time>2020-06-06T09:20:37Z</time>
      </trkpt>
      <trkpt lat="47.49217" lon="-2.38553">
        <ele>25.2</ele>
        <time>2020-06-06T09:20:38Z</time>
      </trkpt>
      <trkpt lat="47.49225" lon="-2.38561">
        <ele>24.6</ele>
        <time>2020-06-06T09:20:39Z</time>
      </trkpt>
      <trkpt lat="47.49232" lon="-2.38569">
        <ele>24.1</ele>
        <time>2020-06-06T09:20:40Z</time>
      </trkpt>
      <trkpt lat="47.49239" lon="-2.38577">
        <ele>23.6</ele>
        <time>2020-06-06T09:20:41Z</time>
      </trkpt>
      <trkpt lat="47.49246" lon="-2.38586">
        <ele>23.1</ele>
        <time>2020-06-06T09:20:42Z</time>
      </trkpt>
      <trkpt lat="47.49254" lon="-2.38594">
        <ele>22.5</ele>
        <time>2020-06-06T09:20:43Z</time>
      </trkpt>
      <trkpt lat="47.49261" lon="-2.38604">
        <ele>21.8</ele>
        <time>2020-06-06T09:20:44Z</time>
      </trkpt>
      <trkpt lat="47.49269" lon="-2.38612">
        <ele>21.1</ele>
        <time>2020-06-06T09:20:45Z</time>
      </trkpt>
      <trkpt lat="47.49277" lon="-2.3862">
        <ele>20.5</ele>
        <time>2020-06-06T09:20:46Z</time>
      </trkpt>
      <trkpt lat="47.49284" lon="-2.38629">
        <ele>19.8</ele>
        <time>2020-06-06T09:20:47Z</time>
      </trkpt>
      <trkpt lat="47.49292" lon="-2.38639">
        <ele>19.1</ele>
        <time>2020-06-06T09:20:48Z</time>
      </trkpt>
      <trkpt lat="47.49299" lon="-2.38648">
        <ele>18.4</ele>
        <time>2020-06-06T09:20:49Z</time>
      </trkpt>
      <trkpt lat="47.49307" lon="-2.38658">
        <ele>17.9</ele>
        <time>2020-06-06T09:20:50Z</time>
      </trkpt>
      <trkpt lat="47.49315" lon="-2.38667">
        <ele>17.4</ele>
        <time>2020-06-06T09:20:51Z</time>
      </trkpt>
      <trkpt lat="47.49322" lon="-2.38677">
        <ele>16.9</ele>
        <time>2020-06-06T09:20:52Z</time>
      </trkpt>
      <trkpt lat="47.49329" lon="-2.38687">
        <ele>16.5</ele>
        <time>2020-06-06T09:20:53Z</time>
      </trkpt>
      <trkpt lat="47.49337" lon="-2.38697">
        <ele>15.8</ele>
        <time>2020-06-06T09:20:54Z</time>
      </trkpt>
      <trkpt lat="47.49345" lon="-2.38705">
        <ele>15.2</ele>
        <time>2020-06-06T09:20:55Z</time>
      </trkpt>
      <trkpt lat="47.49354" lon="-2.38712">
        <ele>14.5</ele>
        <time>2020-06-06T09:20:56Z</time>
      </trkpt>
      <trkpt lat="47.49363" lon="-2.38718">
        <ele>14</ele>
        <time>2020-06-06T09:20:57Z</time>
      </trkpt>
      <trkpt lat="47.49372" lon="-2.38724">
        <ele>13.5</ele>
        <time>2020-06-06T09:20:58Z</time>
      </trkpt>
      <trkpt lat="47.4938" lon="-2.3873">
        <ele>13.1</ele>
        <time>2020-06-06T09:20:59Z</time>
      </trkpt>
      <trkpt lat="47.4939" lon="-2.38734">
        <ele>12.8</ele>
        <time>2020-06-06T09:21:00Z</time>
      </trkpt>
      <trkpt lat="47.49398" lon="-2.38738">
        <ele>12.4</ele>
        <time>2020-06-06T09:21:01Z</time>
      </trkpt>
      <trkpt lat="47.49406" lon="-2.38742">
        <ele>12.1</ele>
        <time>2020-06-06T09:21:02Z</time>
      </trkpt>
      <trkpt lat="47.49415" lon="-2.38744">
        <ele>11.7</ele>
        <time>2020-06-06T09:21:03Z</time>
      </trkpt>
      <trkpt lat="47.49424" lon="-2.38743">
        <ele>11.5</ele>
        <time>2020-06-06T09:21:04Z</time>
      </trkpt>
      <trkpt lat="47.49432" lon="-2.38741">
        <ele>11.4</ele>
        <time>2020-06-06T09:21:05Z</time>
      </trkpt>
      <trkpt lat="47.49439" lon="-2.38739">
        <ele>11.3</ele>
        <time>2020-06-06T09:21:06Z</time>
      </trkpt>
      <trkpt lat="47.49447" lon="-2.38736">
        <ele>11.3</ele>
        <time>2020-06-06T09:21:07Z</time>
      </trkpt>
      <trkpt lat="47.49454" lon="-2.38734">
        <ele>11.3</ele>
        <time>2020-06-06T09:21:08Z</time>
      </trkpt>
      <trkpt lat="47.4946" lon="-2.38732">
        <ele>11.3</ele>
        <time>2020-06-06T09:21:09Z</time>
      </trkpt>
      <trkpt lat="47.49467" lon="-2.3873">
        <ele>11.4</ele>
        <time>2020-06-06T09:21:10Z</time>
      </trkpt>
      <trkpt lat="47.49473" lon="-2.38728">
        <ele>11.4</ele>
        <time>2020-06-06T09:21:11Z</time>
      </trkpt>
      <trkpt lat="47.4948" lon="-2.38725">
        <ele>11.3</ele>
        <time>2020-06-06T09:21:12Z</time>
      </trkpt>
      <trkpt lat="47.49486" lon="-2.38723">
        <ele>11.2</ele>
        <time>2020-06-06T09:21:13Z</time>
      </trkpt>
      <trkpt lat="47.49492" lon="-2.38722">
        <ele>11</ele>
        <time>2020-06-06T09:21:14Z</time>
      </trkpt>
      <trkpt lat="47.49497" lon="-2.3872">
        <ele>10.9</ele>
        <time>2020-06-06T09:21:15Z</time>
      </trkpt>
      <trkpt lat="47.49503" lon="-2.38718">
        <ele>10.8</ele>
        <time>2020-06-06T09:21:16Z</time>
      </trkpt>
      <trkpt lat="47.49509" lon="-2.38715">
        <ele>10.8</ele>
        <time>2020-06-06T09:21:17Z</time>
      </trkpt>
      <trkpt lat="47.49515" lon="-2.38712">
        <ele>10.7</ele>
        <time>2020-06-06T09:21:18Z</time>
      </trkpt>
      <trkpt lat="47.4952" lon="-2.38709">
        <ele>10.6</ele>
        <time>2020-06-06T09:21:19Z</time>
      </trkpt>
      <trkpt lat="47.49526" lon="-2.38707">
        <ele>10.6</ele>
        <time>2020-06-06T09:21:20Z</time>
      </trkpt>
      <trkpt lat="47.49532" lon="-2.38704">
        <ele>10.5</ele>
        <time>2020-06-06T09:21:21Z</time>
      </trkpt>
      <trkpt lat="47.49538" lon="-2.38702">
        <ele>10.5</ele>
        <time>2020-06-06T09:21:22Z</time>
      </trkpt>
      <trkpt lat="47.49544" lon="-2.38698">
        <ele>10.4</ele>
        <time>2020-06-06T09:21:23Z</time>
      </trkpt>
      <trkpt lat="47.4955" lon="-2.38694">
        <ele>10.4</ele>
        <time>2020-06-06T09:21:24Z</time>
      </trkpt>
      <trkpt lat="47.49556" lon="-2.3869">
        <ele>10.3</ele>
        <time>2020-06-06T09:21:25Z</time>
      </trkpt>
      <trkpt lat="47.49563" lon="-2.38687">
        <ele>10.1</ele>
        <time>2020-06-06T09:21:26Z</time>
      </trkpt>
      <trkpt lat="47.49569" lon="-2.38683">
        <ele>10</ele>
        <time>2020-06-06T09:21:27Z</time>
      </trkpt>
      <trkpt lat="47.49576" lon="-2.3868">
        <ele>9.8</ele>
        <time>2020-06-06T09:21:28Z</time>
      </trkpt>
      <trkpt lat="47.49583" lon="-2.38675">
        <ele>9.6</ele>
        <time>2020-06-06T09:21:29Z</time>
      </trkpt>
      <trkpt lat="47.4959" lon="-2.3867">
        <ele>9.4</ele>
        <time>2020-06-06T09:21:30Z</time>
      </trkpt>
      <trkpt lat="47.49597" lon="-2.38665">
        <ele>9.1</ele>
        <time>2020-06-06T09:21:31Z</time>
      </trkpt>
      <trkpt lat="47.49604" lon="-2.3866">
        <ele>8.8</ele>
        <time>2020-06-06T09:21:32Z</time>
      </trkpt>
      <trkpt lat="47.49611" lon="-2.38655">
        <ele>8.5</ele>
        <time>2020-06-06T09:21:33Z</time>
      </trkpt>
      <trkpt lat="47.49619" lon="-2.3865">
        <ele>8.2</ele>
        <time>2020-06-06T09:21:34Z</time>
      </trkpt>
      <trkpt lat="47.49626" lon="-2.38645">
        <ele>7.9</ele>
        <time>2020-06-06T09:21:35Z</time>
      </trkpt>
      <trkpt lat="47.49633" lon="-2.38639">
        <ele>7.6</ele>
        <time>2020-06-06T09:21:36Z</time>
      </trkpt>
      <trkpt lat="47.4964" lon="-2.38631">
        <ele>7.3</ele>
        <time>2020-06-06T09:21:37Z</time>
      </trkpt>
      <trkpt lat="47.49646" lon="-2.38623">
        <ele>6.9</ele>
        <time>2020-06-06T09:21:38Z</time>
      </trkpt>
      <trkpt lat="47.49654" lon="-2.38616">
        <ele>6.6</ele>
        <time>2020-06-06T09:21:39Z</time>
      </trkpt>
      <trkpt lat="47.49661" lon="-2.38609">
        <ele>6.3</ele>
        <time>2020-06-06T09:21:40Z</time>
      </trkpt>
      <trkpt lat="47.49668" lon="-2.386">
        <ele>5.9</ele>
        <time>2020-06-06T09:21:41Z</time>
      </trkpt>
      <trkpt lat="47.49676" lon="-2.38592">
        <ele>5.6</ele>
        <time>2020-06-06T09:21:42Z</time>
      </trkpt>
      <trkpt lat="47.49683" lon="-2.38584">
        <ele>5.4</ele>
        <time>2020-06-06T09:21:43Z</time>
      </trkpt>
      <trkpt lat="47.4969" lon="-2.38574">
        <ele>5.3</ele>
        <time>2020-06-06T09:21:44Z</time>
      </trkpt>
      <trkpt lat="47.49696" lon="-2.38566">
        <ele>5.2</ele>
        <time>2020-06-06T09:21:45Z</time>
      </trkpt>
      <trkpt lat="47.49703" lon="-2.38557">
        <ele>5.2</ele>
        <time>2020-06-06T09:21:46Z</time>
      </trkpt>
      <trkpt lat="47.49709" lon="-2.38549">
        <ele>5.1</ele>
        <time>2020-06-06T09:21:47Z</time>
      </trkpt>
      <trkpt lat="47.49715" lon="-2.38541">
        <ele>5</ele>
        <time>2020-06-06T09:21:48Z</time>
      </trkpt>
      <trkpt lat="47.49721" lon="-2.38533">
        <ele>4.9</ele>
        <time>2020-06-06T09:21:49Z</time>
      </trkpt>
      <trkpt lat="47.49728" lon="-2.38525">
        <ele>4.9</ele>
        <time>2020-06-06T09:21:50Z</time>
      </trkpt>
      <trkpt lat="47.49734" lon="-2.38518">
        <ele>4.8</ele>
        <time>2020-06-06T09:21:51Z</time>
      </trkpt>
      <trkpt lat="47.4974" lon="-2.38511">
        <ele>4.8</ele>
        <time>2020-06-06T09:21:52Z</time>
      </trkpt>
      <trkpt lat="47.49747" lon="-2.38504">
        <ele>4.8</ele>
        <time>2020-06-06T09:21:53Z</time>
      </trkpt>
      <trkpt lat="47.49753" lon="-2.38496">
        <ele>4.8</ele>
        <time>2020-06-06T09:21:54Z</time>
      </trkpt>
      <trkpt lat="47.49759" lon="-2.38488">
        <ele>4.8</ele>
        <time>2020-06-06T09:21:55Z</time>
      </trkpt>
      <trkpt lat="47.49764" lon="-2.3848">
        <ele>4.8</ele>
        <time>2020-06-06T09:21:56Z</time>
      </trkpt>
      <trkpt lat="47.4977" lon="-2.38472">
        <ele>4.8</ele>
        <time>2020-06-06T09:21:57Z</time>
      </trkpt>
      <trkpt lat="47.49776" lon="-2.38465">
        <ele>4.9</ele>
        <time>2020-06-06T09:21:58Z</time>
      </trkpt>
      <trkpt lat="47.49782" lon="-2.38457">
        <ele>4.9</ele>
        <time>2020-06-06T09:21:59Z</time>
      </trkpt>
      <trkpt lat="47.49788" lon="-2.38449">
        <ele>4.9</ele>
        <time>2020-06-06T09:22:00Z</time>
      </trkpt>
      <trkpt lat="47.49793" lon="-2.38442">
        <ele>4.9</ele>
        <time>2020-06-06T09:22:01Z</time>
      </trkpt>
      <trkpt lat="47.49799" lon="-2.38434">
        <ele>4.9</ele>
        <time>2020-06-06T09:22:02Z</time>
      </trkpt>
      <trkpt lat="47.49805" lon="-2.38427">
        <ele>5</ele>
        <time>2020-06-06T09:22:03Z</time>
      </trkpt>
      <trkpt lat="47.4981" lon="-2.38419">
        <ele>5</ele>
        <time>2020-06-06T09:22:04Z</time>
      </trkpt>
      <trkpt lat="47.49815" lon="-2.38411">
        <ele>5</ele>
        <time>2020-06-06T09:22:05Z</time>
      </trkpt>
      <trkpt lat="47.49821" lon="-2.38403">
        <ele>5</ele>
        <time>2020-06-06T09:22:06Z</time>
      </trkpt>
      <trkpt lat="47.49825" lon="-2.38395">
        <ele>5.1</ele>
        <time>2020-06-06T09:22:07Z</time>
      </trkpt>
      <trkpt lat="47.4983" lon="-2.38387">
        <ele>5.2</ele>
        <time>2020-06-06T09:22:08Z</time>
      </trkpt>
      <trkpt lat="47.49835" lon="-2.3838">
        <ele>5.3</ele>
        <time>2020-06-06T09:22:09Z</time>
      </trkpt>
      <trkpt lat="47.4984" lon="-2.38372">
        <ele>5.4</ele>
        <time>2020-06-06T09:22:10Z</time>
      </trkpt>
      <trkpt lat="47.49845" lon="-2.38366">
        <ele>5.6</ele>
        <time>2020-06-06T09:22:11Z</time>
      </trkpt>
      <trkpt lat="47.4985" lon="-2.38359">
        <ele>5.7</ele>
        <time>2020-06-06T09:22:12Z</time>
      </trkpt>
      <trkpt lat="47.49855" lon="-2.38353">
        <ele>5.9</ele>
        <time>2020-06-06T09:22:13Z</time>
      </trkpt>
      <trkpt lat="47.4986" lon="-2.38347">
        <ele>6</ele>
        <time>2020-06-06T09:22:14Z</time>
      </trkpt>
      <trkpt lat="47.49866" lon="-2.38341">
        <ele>6.1</ele>
        <time>2020-06-06T09:22:15Z</time>
      </trkpt>
      <trkpt lat="47.4987" lon="-2.38334">
        <ele>6.3</ele>
        <time>2020-06-06T09:22:16Z</time>
      </trkpt>
      <trkpt lat="47.49875" lon="-2.38328">
        <ele>6.5</ele>
        <time>2020-06-06T09:22:17Z</time>
      </trkpt>
      <trkpt lat="47.4988" lon="-2.38322">
        <ele>6.7</ele>
        <time>2020-06-06T09:22:18Z</time>
      </trkpt>
      <trkpt lat="47.49885" lon="-2.38316">
        <ele>6.8</ele>
        <time>2020-06-06T09:22:19Z</time>
      </trkpt>
      <trkpt lat="47.49889" lon="-2.3831">
        <ele>7</ele>
        <time>2020-06-06T09:22:20Z</time>
      </trkpt>
      <trkpt lat="47.49894" lon="-2.38304">
        <ele>7.2</ele>
        <time>2020-06-06T09:22:21Z</time>
      </trkpt>
      <trkpt lat="47.49899" lon="-2.38299">
        <ele>7.3</ele>
        <time>2020-06-06T09:22:22Z</time>
      </trkpt>
      <trkpt lat="47.49904" lon="-2.38294">
        <ele>7.5</ele>
        <time>2020-06-06T09:22:23Z</time>
      </trkpt>
      <trkpt lat="47.49908" lon="-2.3829">
        <ele>7.6</ele>
        <time>2020-06-06T09:22:24Z</time>
      </trkpt>
      <trkpt lat="47.49913" lon="-2.38285">
        <ele>7.7</ele>
        <time>2020-06-06T09:22:25Z</time>
      </trkpt>
      <trkpt lat="47.49918" lon="-2.3828">
        <ele>7.7</ele>
        <time>2020-06-06T09:22:26Z</time>
      </trkpt>
      <trkpt lat="47.49922" lon="-2.38276">
        <ele>7.8</ele>
        <time>2020-06-06T09:22:27Z</time>
      </trkpt>
      <trkpt lat="47.49927" lon="-2.3827">
        <ele>7.8</ele>
        <time>2020-06-06T09:22:28Z</time>
      </trkpt>
      <trkpt lat="47.49931" lon="-2.38265">
        <ele>7.8</ele>
        <time>2020-06-06T09:22:29Z</time>
      </trkpt>
      <trkpt lat="47.49935" lon="-2.38259">
        <ele>7.8</ele>
        <time>2020-06-06T09:22:30Z</time>
      </trkpt>
      <trkpt lat="47.49939" lon="-2.38253">
        <ele>7.8</ele>
        <time>2020-06-06T09:22:31Z</time>
      </trkpt>
      <trkpt lat="47.49943" lon="-2.38247">
        <ele>7.8</ele>
        <time>2020-06-06T09:22:32Z</time>
      </trkpt>
      <trkpt lat="47.49947" lon="-2.38241">
        <ele>7.8</ele>
        <time>2020-06-06T09:22:33Z</time>
      </trkpt>
      <trkpt lat="47.49951" lon="-2.38236">
        <ele>7.8</ele>
        <time>2020-06-06T09:22:34Z</time>
      </trkpt>
      <trkpt lat="47.49955" lon="-2.38231">
        <ele>7.8</ele>
        <time>2020-06-06T09:22:35Z</time>
      </trkpt>
      <trkpt lat="47.49959" lon="-2.38225">
        <ele>7.8</ele>
        <time>2020-06-06T09:22:36Z</time>
      </trkpt>
      <trkpt lat="47.49964" lon="-2.3822">
        <ele>7.7</ele>
        <time>2020-06-06T09:22:37Z</time>
      </trkpt>
      <trkpt lat="47.49968" lon="-2.38214">
        <ele>7.7</ele>
        <time>2020-06-06T09:22:38Z</time>
      </trkpt>
      <trkpt lat="47.49973" lon="-2.38209">
        <ele>7.7</ele>
        <time>2020-06-06T09:22:39Z</time>
      </trkpt>
      <trkpt lat="47.49978" lon="-2.38204">
        <ele>7.7</ele>
        <time>2020-06-06T09:22:40Z</time>
      </trkpt>
      <trkpt lat="47.49982" lon="-2.38197">
        <ele>7.7</ele>
        <time>2020-06-06T09:22:41Z</time>
      </trkpt>
      <trkpt lat="47.49987" lon="-2.38191">
        <ele>7.7</ele>
        <time>2020-06-06T09:22:42Z</time>
      </trkpt>
      <trkpt lat="47.49991" lon="-2.38185">
        <ele>7.7</ele>
        <time>2020-06-06T09:22:43Z</time>
      </trkpt>
      <trkpt lat="47.49995" lon="-2.38179">
        <ele>7.8</ele>
        <time>2020-06-06T09:22:44Z</time>
      </trkpt>
      <trkpt lat="47.5" lon="-2.38172">
        <ele>7.7</ele>
        <time>2020-06-06T09:22:45Z</time>
      </trkpt>
      <trkpt lat="47.50004" lon="-2.38166">
        <ele>7.7</ele>
        <time>2020-06-06T09:22:46Z</time>
      </trkpt>
      <trkpt lat="47.50008" lon="-2.3816">
        <ele>7.7</ele>
        <time>2020-06-06T09:22:47Z</time>
      </trkpt>
      <trkpt lat="47.50013" lon="-2.38153">
        <ele>7.7</ele>
        <time>2020-06-06T09:22:48Z</time>
      </trkpt>
      <trkpt lat="47.50017" lon="-2.38146">
        <ele>7.6</ele>
        <time>2020-06-06T09:22:49Z</time>
      </trkpt>
      <trkpt lat="47.50021" lon="-2.38139">
        <ele>7.6</ele>
        <time>2020-06-06T09:22:50Z</time>
      </trkpt>
      <trkpt lat="47.50025" lon="-2.38134">
        <ele>7.5</ele>
        <time>2020-06-06T09:22:51Z</time>
      </trkpt>
      <trkpt lat="47.50029" lon="-2.38128">
        <ele>7.5</ele>
        <time>2020-06-06T09:22:52Z</time>
      </trkpt>
      <trkpt lat="47.50034" lon="-2.38122">
        <ele>7.5</ele>
        <time>2020-06-06T09:22:53Z</time>
      </trkpt>
      <trkpt lat="47.50039" lon="-2.38116">
        <ele>7.5</ele>
        <time>2020-06-06T09:22:54Z</time>
      </trkpt>
      <trkpt lat="47.50043" lon="-2.3811">
        <ele>7.5</ele>
        <time>2020-06-06T09:22:55Z</time>
      </trkpt>
      <trkpt lat="47.50047" lon="-2.38103">
        <ele>7.6</ele>
        <time>2020-06-06T09:22:56Z</time>
      </trkpt>
      <trkpt lat="47.50053" lon="-2.38095">
        <ele>7.6</ele>
        <time>2020-06-06T09:22:57Z</time>
      </trkpt>
      <trkpt lat="47.50058" lon="-2.38088">
        <ele>7.7</ele>
        <time>2020-06-06T09:22:58Z</time>
      </trkpt>
      <trkpt lat="47.50063" lon="-2.38081">
        <ele>7.7</ele>
        <time>2020-06-06T09:22:59Z</time>
      </trkpt>
      <trkpt lat="47.50068" lon="-2.38074">
        <ele>7.7</ele>
        <time>2020-06-06T09:23:00Z</time>
      </trkpt>
      <trkpt lat="47.50072" lon="-2.38067">
        <ele>7.7</ele>
        <time>2020-06-06T09:23:01Z</time>
      </trkpt>
      <trkpt lat="47.50077" lon="-2.38061">
        <ele>7.8</ele>
        <time>2020-06-06T09:23:02Z</time>
      </trkpt>
      <trkpt lat="47.50082" lon="-2.38054">
        <ele>7.9</ele>
        <time>2020-06-06T09:23:03Z</time>
      </trkpt>
      <trkpt lat="47.50086" lon="-2.38048">
        <ele>7.9</ele>
        <time>2020-06-06T09:23:04Z</time>
      </trkpt>
      <trkpt lat="47.5009" lon="-2.38043">
        <ele>8</ele>
        <time>2020-06-06T09:23:05Z</time>
      </trkpt>
      <trkpt lat="47.50094" lon="-2.38037">
        <ele>8.1</ele>
        <time>2020-06-06T09:23:06Z</time>
      </trkpt>
      <trkpt lat="47.50099" lon="-2.3803">
        <ele>8.2</ele>
        <time>2020-06-06T09:23:07Z</time>
      </trkpt>
      <trkpt lat="47.50104" lon="-2.38024">
        <ele>8.2</ele>
        <time>2020-06-06T09:23:08Z</time>
      </trkpt>
      <trkpt lat="47.50109" lon="-2.38019">
        <ele>8.3</ele>
        <time>2020-06-06T09:23:09Z</time>
      </trkpt>
      <trkpt lat="47.50113" lon="-2.38013">
        <ele>8.4</ele>
        <time>2020-06-06T09:23:10Z</time>
      </trkpt>
      <trkpt lat="47.50117" lon="-2.38007">
        <ele>8.4</ele>
        <time>2020-06-06T09:23:11Z</time>
      </trkpt>
      <trkpt lat="47.50121" lon="-2.38002">
        <ele>8.5</ele>
        <time>2020-06-06T09:23:12Z</time>
      </trkpt>
      <trkpt lat="47.50125" lon="-2.37996">
        <ele>8.5</ele>
        <time>2020-06-06T09:23:13Z</time>
      </trkpt>
      <trkpt lat="47.5013" lon="-2.3799">
        <ele>8.6</ele>
        <time>2020-06-06T09:23:14Z</time>
      </trkpt>
      <trkpt lat="47.50134" lon="-2.37984">
        <ele>8.7</ele>
        <time>2020-06-06T09:23:15Z</time>
      </trkpt>
      <trkpt lat="47.50138" lon="-2.37979">
        <ele>8.7</ele>
        <time>2020-06-06T09:23:16Z</time>
      </trkpt>
      <trkpt lat="47.50142" lon="-2.37974">
        <ele>8.7</ele>
        <time>2020-06-06T09:23:17Z</time>
      </trkpt>
      <trkpt lat="47.50147" lon="-2.37969">
        <ele>8.8</ele>
        <time>2020-06-06T09:23:18Z</time>
      </trkpt>
      <trkpt lat="47.50151" lon="-2.37964">
        <ele>8.8</ele>
        <time>2020-06-06T09:23:19Z</time>
      </trkpt>
      <trkpt lat="47.50156" lon="-2.3796">
        <ele>8.9</ele>
        <time>2020-06-06T09:23:20Z</time>
      </trkpt>
      <trkpt lat="47.50161" lon="-2.37957">
        <ele>8.9</ele>
        <time>2020-06-06T09:23:21Z</time>
      </trkpt>
      <trkpt lat="47.50166" lon="-2.37953">
        <ele>9</ele>
        <time>2020-06-06T09:23:22Z</time>
      </trkpt>
      <trkpt lat="47.50172" lon="-2.37948">
        <ele>9.3</ele>
        <time>2020-06-06T09:23:23Z</time>
      </trkpt>
      <trkpt lat="47.50176" lon="-2.37942">
        <ele>9.4</ele>
        <time>2020-06-06T09:23:24Z</time>
      </trkpt>
      <trkpt lat="47.50179" lon="-2.37935">
        <ele>9.5</ele>
        <time>2020-06-06T09:23:25Z</time>
      </trkpt>
      <trkpt lat="47.50183" lon="-2.37929">
        <ele>9.5</ele>
        <time>2020-06-06T09:23:26Z</time>
      </trkpt>
      <trkpt lat="47.50188" lon="-2.37926">
        <ele>9.5</ele>
        <time>2020-06-06T09:23:27Z</time>
      </trkpt>
      <trkpt lat="47.50193" lon="-2.37923">
        <ele>9.5</ele>
        <time>2020-06-06T09:23:28Z</time>
      </trkpt>
      <trkpt lat="47.50198" lon="-2.37923">
        <ele>9.6</ele>
        <time>2020-06-06T09:23:29Z</time>
      </trkpt>
      <trkpt lat="47.50203" lon="-2.37922">
        <ele>9.6</ele>
        <time>2020-06-06T09:23:30Z</time>
      </trkpt>
      <trkpt lat="47.50208" lon="-2.37922">
        <ele>9.6</ele>
        <time>2020-06-06T09:23:31Z</time>
      </trkpt>
      <trkpt lat="47.50211" lon="-2.37922">
        <ele>9.6</ele>
        <time>2020-06-06T09:23:32Z</time>
      </trkpt>
      <trkpt lat="47.50215" lon="-2.37923">
        <ele>9.6</ele>
        <time>2020-06-06T09:23:33Z</time>
      </trkpt>
      <trkpt lat="47.50216" lon="-2.37923">
        <ele>9.6</ele>
        <time>2020-06-06T09:23:34Z</time>
      </trkpt>
      <trkpt lat="47.50218" lon="-2.37926">
        <ele>9.6</ele>
        <time>2020-06-06T09:23:35Z</time>
      </trkpt>
      <trkpt lat="47.50219" lon="-2.37927">
        <ele>9.6</ele>
        <time>2020-06-06T09:23:36Z</time>
      </trkpt>
      <trkpt lat="47.50222" lon="-2.37932">
        <ele>10.2</ele>
        <time>2020-06-06T09:23:37Z</time>
      </trkpt>
      <trkpt lat="47.50225" lon="-2.37935">
        <ele>10.2</ele>
        <time>2020-06-06T09:23:38Z</time>
      </trkpt>
      <trkpt lat="47.50228" lon="-2.37934">
        <ele>10.1</ele>
        <time>2020-06-06T09:23:39Z</time>
      </trkpt>
      <trkpt lat="47.50229" lon="-2.37934">
        <ele>10.1</ele>
        <time>2020-06-06T09:23:40Z</time>
      </trkpt>
      <trkpt lat="47.50231" lon="-2.37931">
        <ele>10</ele>
        <time>2020-06-06T09:23:41Z</time>
      </trkpt>
      <trkpt lat="47.50233" lon="-2.37927">
        <ele>10</ele>
        <time>2020-06-06T09:23:42Z</time>
      </trkpt>
      <trkpt lat="47.50235" lon="-2.37924">
        <ele>10</ele>
        <time>2020-06-06T09:23:43Z</time>
      </trkpt>
      <trkpt lat="47.50237" lon="-2.3792">
        <ele>10</ele>
        <time>2020-06-06T09:23:44Z</time>
      </trkpt>
      <trkpt lat="47.50239" lon="-2.37915">
        <ele>10.1</ele>
        <time>2020-06-06T09:23:45Z</time>
      </trkpt>
      <trkpt lat="47.50242" lon="-2.37912">
        <ele>10.1</ele>
        <time>2020-06-06T09:23:46Z</time>
      </trkpt>
      <trkpt lat="47.50245" lon="-2.37907">
        <ele>10.2</ele>
        <time>2020-06-06T09:23:47Z</time>
      </trkpt>
      <trkpt lat="47.50248" lon="-2.37901">
        <ele>10.3</ele>
        <time>2020-06-06T09:23:48Z</time>
      </trkpt>
      <trkpt lat="47.50251" lon="-2.37897">
        <ele>10.4</ele>
        <time>2020-06-06T09:23:49Z</time>
      </trkpt>
      <trkpt lat="47.50255" lon="-2.37892">
        <ele>10.6</ele>
        <time>2020-06-06T09:23:50Z</time>
      </trkpt>
      <trkpt lat="47.50258" lon="-2.37888">
        <ele>10.7</ele>
        <time>2020-06-06T09:23:51Z</time>
      </trkpt>
      <trkpt lat="47.50262" lon="-2.37885">
        <ele>10.9</ele>
        <time>2020-06-06T09:23:52Z</time>
      </trkpt>
      <trkpt lat="47.50264" lon="-2.37883">
        <ele>11</ele>
        <time>2020-06-06T09:23:53Z</time>
      </trkpt>
      <trkpt lat="47.5027" lon="-2.3788">
        <ele>11.1</ele>
        <time>2020-06-06T09:23:54Z</time>
      </trkpt>
      <trkpt lat="47.50274" lon="-2.37877">
        <ele>11.1</ele>
        <time>2020-06-06T09:23:55Z</time>
      </trkpt>
      <trkpt lat="47.50279" lon="-2.37874">
        <ele>11.1</ele>
        <time>2020-06-06T09:23:56Z</time>
      </trkpt>
      <trkpt lat="47.50283" lon="-2.37871">
        <ele>11.1</ele>
        <time>2020-06-06T09:23:57Z</time>
      </trkpt>
      <trkpt lat="47.50287" lon="-2.37868">
        <ele>11.1</ele>
        <time>2020-06-06T09:23:58Z</time>
      </trkpt>
      <trkpt lat="47.50291" lon="-2.37865">
        <ele>11.3</ele>
        <time>2020-06-06T09:23:59Z</time>
      </trkpt>
      <trkpt lat="47.50295" lon="-2.37862">
        <ele>11.6</ele>
        <time>2020-06-06T09:24:00Z</time>
      </trkpt>
      <trkpt lat="47.503" lon="-2.37859">
        <ele>11.9</ele>
        <time>2020-06-06T09:24:01Z</time>
      </trkpt>
      <trkpt lat="47.50304" lon="-2.37856">
        <ele>12.1</ele>
        <time>2020-06-06T09:24:02Z</time>
      </trkpt>
      <trkpt lat="47.50309" lon="-2.37853">
        <ele>12.3</ele>
        <time>2020-06-06T09:24:03Z</time>
      </trkpt>
      <trkpt lat="47.50314" lon="-2.37851">
        <ele>12.3</ele>
        <time>2020-06-06T09:24:04Z</time>
      </trkpt>
      <trkpt lat="47.50318" lon="-2.37849">
        <ele>12.3</ele>
        <time>2020-06-06T09:24:05Z</time>
      </trkpt>
      <trkpt lat="47.50322" lon="-2.37848">
        <ele>12.4</ele>
        <time>2020-06-06T09:24:06Z</time>
      </trkpt>
      <trkpt lat="47.50326" lon="-2.37846">
        <ele>12.4</ele>
        <time>2020-06-06T09:24:07Z</time>
      </trkpt>
      <trkpt lat="47.5033" lon="-2.37845">
        <ele>12.5</ele>
        <time>2020-06-06T09:24:08Z</time>
      </trkpt>
      <trkpt lat="47.50334" lon="-2.37842">
        <ele>12.6</ele>
        <time>2020-06-06T09:24:09Z</time>
      </trkpt>
      <trkpt lat="47.50338" lon="-2.3784">
        <ele>12.7</ele>
        <time>2020-06-06T09:24:10Z</time>
      </trkpt>
      <trkpt lat="47.50343" lon="-2.37837">
        <ele>12.8</ele>
        <time>2020-06-06T09:24:11Z</time>
      </trkpt>
      <trkpt lat="47.50348" lon="-2.37835">
        <ele>12.9</ele>
        <time>2020-06-06T09:24:12Z</time>
      </trkpt>
      <trkpt lat="47.50353" lon="-2.37833">
        <ele>13</ele>
        <time>2020-06-06T09:24:13Z</time>
      </trkpt>
      <trkpt lat="47.50358" lon="-2.37832">
        <ele>13.2</ele>
        <time>2020-06-06T09:24:14Z</time>
      </trkpt>
      <trkpt lat="47.50362" lon="-2.37831">
        <ele>13.3</ele>
        <time>2020-06-06T09:24:15Z</time>
      </trkpt>
      <trkpt lat="47.50366" lon="-2.3783">
        <ele>13.4</ele>
        <time>2020-06-06T09:24:16Z</time>
      </trkpt>
      <trkpt lat="47.5037" lon="-2.37829">
        <ele>13.5</ele>
        <time>2020-06-06T09:24:17Z</time>
      </trkpt>
      <trkpt lat="47.50375" lon="-2.37828">
        <ele>13.6</ele>
        <time>2020-06-06T09:24:18Z</time>
      </trkpt>
      <trkpt lat="47.50381" lon="-2.37828">
        <ele>13.8</ele>
        <time>2020-06-06T09:24:19Z</time>
      </trkpt>
      <trkpt lat="47.50387" lon="-2.37828">
        <ele>14</ele>
        <time>2020-06-06T09:24:20Z</time>
      </trkpt>
      <trkpt lat="47.50391" lon="-2.37828">
        <ele>14.3</ele>
        <time>2020-06-06T09:24:21Z</time>
      </trkpt>
      <trkpt lat="47.50395" lon="-2.37828">
        <ele>14.5</ele>
        <time>2020-06-06T09:24:22Z</time>
      </trkpt>
      <trkpt lat="47.50398" lon="-2.37827">
        <ele>14.7</ele>
        <time>2020-06-06T09:24:23Z</time>
      </trkpt>
      <trkpt lat="47.50401" lon="-2.37828">
        <ele>14.9</ele>
        <time>2020-06-06T09:24:24Z</time>
      </trkpt>
      <trkpt lat="47.50406" lon="-2.37826">
        <ele>15.2</ele>
        <time>2020-06-06T09:24:25Z</time>
      </trkpt>
      <trkpt lat="47.5041" lon="-2.37826">
        <ele>15.5</ele>
        <time>2020-06-06T09:24:26Z</time>
      </trkpt>
      <trkpt lat="47.50414" lon="-2.37826">
        <ele>15.7</ele>
        <time>2020-06-06T09:24:27Z</time>
      </trkpt>
      <trkpt lat="47.50418" lon="-2.37825">
        <ele>16</ele>
        <time>2020-06-06T09:24:28Z</time>
      </trkpt>
      <trkpt lat="47.50421" lon="-2.37825">
        <ele>16.2</ele>
        <time>2020-06-06T09:24:29Z</time>
      </trkpt>
      <trkpt lat="47.50425" lon="-2.37824">
        <ele>16.4</ele>
        <time>2020-06-06T09:24:30Z</time>
      </trkpt>
      <trkpt lat="47.50426" lon="-2.37823">
        <ele>16.5</ele>
        <time>2020-06-06T09:24:31Z</time>
      </trkpt>
      <trkpt lat="47.50429" lon="-2.37823">
        <ele>16.6</ele>
        <time>2020-06-06T09:24:32Z</time>
      </trkpt>
      <trkpt lat="47.50432" lon="-2.37822">
        <ele>16.8</ele>
        <time>2020-06-06T09:24:33Z</time>
      </trkpt>
      <trkpt lat="47.50435" lon="-2.37821">
        <ele>16.9</ele>
        <time>2020-06-06T09:24:34Z</time>
      </trkpt>
      <trkpt lat="47.50438" lon="-2.3782">
        <ele>17.1</ele>
        <time>2020-06-06T09:24:35Z</time>
      </trkpt>
      <trkpt lat="47.5044" lon="-2.3782">
        <ele>17.1</ele>
        <time>2020-06-06T09:24:36Z</time>
      </trkpt>
      <trkpt lat="47.50443" lon="-2.3782">
        <ele>17.3</ele>
        <time>2020-06-06T09:24:37Z</time>
      </trkpt>
      <trkpt lat="47.50445" lon="-2.37819">
        <ele>17.3</ele>
        <time>2020-06-06T09:24:38Z</time>
      </trkpt>
      <trkpt lat="47.50448" lon="-2.37819">
        <ele>17.5</ele>
        <time>2020-06-06T09:24:39Z</time>
      </trkpt>
      <trkpt lat="47.50451" lon="-2.37818">
        <ele>17.6</ele>
        <time>2020-06-06T09:24:40Z</time>
      </trkpt>
      <trkpt lat="47.50452" lon="-2.37818">
        <ele>17.6</ele>
        <time>2020-06-06T09:24:41Z</time>
      </trkpt>
      <trkpt lat="47.50455" lon="-2.37817">
        <ele>17.8</ele>
        <time>2020-06-06T09:24:42Z</time>
      </trkpt>
      <trkpt lat="47.50457" lon="-2.37817">
        <ele>17.9</ele>
        <time>2020-06-06T09:24:43Z</time>
      </trkpt>
      <trkpt lat="47.50461" lon="-2.37816">
        <ele>18.1</ele>
        <time>2020-06-06T09:24:44Z</time>
      </trkpt>
      <trkpt lat="47.50462" lon="-2.37816">
        <ele>18.1</ele>
        <time>2020-06-06T09:24:45Z</time>
      </trkpt>
      <trkpt lat="47.50465" lon="-2.37815">
        <ele>18.3</ele>
        <time>2020-06-06T09:24:46Z</time>
      </trkpt>
      <trkpt lat="47.50467" lon="-2.37815">
        <ele>18.4</ele>
        <time>2020-06-06T09:24:47Z</time>
      </trkpt>
      <trkpt lat="47.50469" lon="-2.37815">
        <ele>18.5</ele>
        <time>2020-06-06T09:24:48Z</time>
      </trkpt>
      <trkpt lat="47.50472" lon="-2.37815">
        <ele>18.6</ele>
        <time>2020-06-06T09:24:49Z</time>
      </trkpt>
      <trkpt lat="47.50476" lon="-2.37814">
        <ele>18.9</ele>
        <time>2020-06-06T09:24:50Z</time>
      </trkpt>
      <trkpt lat="47.50477" lon="-2.37814">
        <ele>19</ele>
        <time>2020-06-06T09:24:51Z</time>
      </trkpt>
      <trkpt lat="47.50482" lon="-2.37813">
        <ele>19.4</ele>
        <time>2020-06-06T09:24:52Z</time>
      </trkpt>
      <trkpt lat="47.50486" lon="-2.37812">
        <ele>19.7</ele>
        <time>2020-06-06T09:24:53Z</time>
      </trkpt>
      <trkpt lat="47.5049" lon="-2.37812">
        <ele>20</ele>
        <time>2020-06-06T09:24:54Z</time>
      </trkpt>
      <trkpt lat="47.50492" lon="-2.37811">
        <ele>20.2</ele>
        <time>2020-06-06T09:24:55Z</time>
      </trkpt>
      <trkpt lat="47.50495" lon="-2.37811">
        <ele>20.4</ele>
        <time>2020-06-06T09:24:56Z</time>
      </trkpt>
      <trkpt lat="47.50499" lon="-2.37811">
        <ele>20.7</ele>
        <time>2020-06-06T09:24:57Z</time>
      </trkpt>
      <trkpt lat="47.50503" lon="-2.37812">
        <ele>20.9</ele>
        <time>2020-06-06T09:24:58Z</time>
      </trkpt>
      <trkpt lat="47.50506" lon="-2.37812">
        <ele>21.1</ele>
        <time>2020-06-06T09:24:59Z</time>
      </trkpt>
      <trkpt lat="47.5051" lon="-2.37812">
        <ele>21.3</ele>
        <time>2020-06-06T09:25:00Z</time>
      </trkpt>
      <trkpt lat="47.50514" lon="-2.37812">
        <ele>21.6</ele>
        <time>2020-06-06T09:25:01Z</time>
      </trkpt>
      <trkpt lat="47.50517" lon="-2.37811">
        <ele>21.8</ele>
        <time>2020-06-06T09:25:02Z</time>
      </trkpt>
      <trkpt lat="47.50521" lon="-2.37812">
        <ele>22</ele>
        <time>2020-06-06T09:25:03Z</time>
      </trkpt>
      <trkpt lat="47.50524" lon="-2.37811">
        <ele>22.2</ele>
        <time>2020-06-06T09:25:04Z</time>
      </trkpt>
      <trkpt lat="47.50528" lon="-2.37809">
        <ele>22.4</ele>
        <time>2020-06-06T09:25:05Z</time>
      </trkpt>
      <trkpt lat="47.50531" lon="-2.37808">
        <ele>22.6</ele>
        <time>2020-06-06T09:25:06Z</time>
      </trkpt>
      <trkpt lat="47.50533" lon="-2.37808">
        <ele>22.8</ele>
        <time>2020-06-06T09:25:07Z</time>
      </trkpt>
      <trkpt lat="47.50537" lon="-2.37807">
        <ele>23</ele>
        <time>2020-06-06T09:25:08Z</time>
      </trkpt>
      <trkpt lat="47.50539" lon="-2.37808">
        <ele>23</ele>
        <time>2020-06-06T09:25:09Z</time>
      </trkpt>
      <trkpt lat="47.50543" lon="-2.37807">
        <ele>23.2</ele>
        <time>2020-06-06T09:25:10Z</time>
      </trkpt>
      <trkpt lat="47.50545" lon="-2.37806">
        <ele>23.4</ele>
        <time>2020-06-06T09:25:11Z</time>
      </trkpt>
      <trkpt lat="47.50548" lon="-2.37806">
        <ele>18</ele>
        <time>2020-06-06T09:25:12Z</time>
      </trkpt>
      <trkpt lat="47.50552" lon="-2.37805">
        <ele>18</ele>
        <time>2020-06-06T09:25:13Z</time>
      </trkpt>
      <trkpt lat="47.50555" lon="-2.37803">
        <ele>18.1</ele>
        <time>2020-06-06T09:25:14Z</time>
      </trkpt>
      <trkpt lat="47.50556" lon="-2.37802">
        <ele>18.1</ele>
        <time>2020-06-06T09:25:15Z</time>
      </trkpt>
      <trkpt lat="47.5056" lon="-2.37799">
        <ele>18.2</ele>
        <time>2020-06-06T09:25:16Z</time>
      </trkpt>
      <trkpt lat="47.50561" lon="-2.37798">
        <ele>18.2</ele>
        <time>2020-06-06T09:25:17Z</time>
      </trkpt>
      <trkpt lat="47.50564" lon="-2.37796">
        <ele>18.2</ele>
        <time>2020-06-06T09:25:18Z</time>
      </trkpt>
      <trkpt lat="47.50567" lon="-2.37793">
        <ele>18.3</ele>
        <time>2020-06-06T09:25:19Z</time>
      </trkpt>
      <trkpt lat="47.5057" lon="-2.37791">
        <ele>18.5</ele>
        <time>2020-06-06T09:25:20Z</time>
      </trkpt>
      <trkpt lat="47.50571" lon="-2.3779">
        <ele>18.6</ele>
        <time>2020-06-06T09:25:21Z</time>
      </trkpt>
      <trkpt lat="47.50575" lon="-2.37789">
        <ele>18.7</ele>
        <time>2020-06-06T09:25:22Z</time>
      </trkpt>
      <trkpt lat="47.50578" lon="-2.37789">
        <ele>18.9</ele>
        <time>2020-06-06T09:25:23Z</time>
      </trkpt>
      <trkpt lat="47.50582" lon="-2.37789">
        <ele>19</ele>
        <time>2020-06-06T09:25:24Z</time>
      </trkpt>
      <trkpt lat="47.50584" lon="-2.37789">
        <ele>19.2</ele>
        <time>2020-06-06T09:25:25Z</time>
      </trkpt>
      <trkpt lat="47.50589" lon="-2.3779">
        <ele>19.3</ele>
        <time>2020-06-06T09:25:26Z</time>
      </trkpt>
      <trkpt lat="47.5059" lon="-2.3779">
        <ele>19.4</ele>
        <time>2020-06-06T09:25:27Z</time>
      </trkpt>
      <trkpt lat="47.50594" lon="-2.3779">
        <ele>19.6</ele>
        <time>2020-06-06T09:25:28Z</time>
      </trkpt>
      <trkpt lat="47.50598" lon="-2.3779">
        <ele>19.8</ele>
        <time>2020-06-06T09:25:29Z</time>
      </trkpt>
      <trkpt lat="47.50603" lon="-2.3779">
        <ele>20</ele>
        <time>2020-06-06T09:25:30Z</time>
      </trkpt>
      <trkpt lat="47.50606" lon="-2.37789">
        <ele>20.2</ele>
        <time>2020-06-06T09:25:31Z</time>
      </trkpt>
      <trkpt lat="47.5061" lon="-2.37788">
        <ele>20.3</ele>
        <time>2020-06-06T09:25:32Z</time>
      </trkpt>
      <trkpt lat="47.50614" lon="-2.37787">
        <ele>20.5</ele>
        <time>2020-06-06T09:25:33Z</time>
      </trkpt>
      <trkpt lat="47.50618" lon="-2.37786">
        <ele>20.7</ele>
        <time>2020-06-06T09:25:34Z</time>
      </trkpt>
      <trkpt lat="47.50622" lon="-2.37785">
        <ele>20.8</ele>
        <time>2020-06-06T09:25:35Z</time>
      </trkpt>
      <trkpt lat="47.50625" lon="-2.37784">
        <ele>21</ele>
        <time>2020-06-06T09:25:36Z</time>
      </trkpt>
      <trkpt lat="47.50629" lon="-2.37784">
        <ele>21.2</ele>
        <time>2020-06-06T09:25:37Z</time>
      </trkpt>
      <trkpt lat="47.50634" lon="-2.37785">
        <ele>21.4</ele>
        <time>2020-06-06T09:25:38Z</time>
      </trkpt>
      <trkpt lat="47.50637" lon="-2.37785">
        <ele>21.6</ele>
        <time>2020-06-06T09:25:39Z</time>
      </trkpt>
      <trkpt lat="47.50641" lon="-2.37785">
        <ele>21.8</ele>
        <time>2020-06-06T09:25:40Z</time>
      </trkpt>
      <trkpt lat="47.50645" lon="-2.37784">
        <ele>22</ele>
        <time>2020-06-06T09:25:41Z</time>
      </trkpt>
      <trkpt lat="47.50649" lon="-2.37784">
        <ele>22.2</ele>
        <time>2020-06-06T09:25:42Z</time>
      </trkpt>
      <trkpt lat="47.50654" lon="-2.37785">
        <ele>22.4</ele>
        <time>2020-06-06T09:25:43Z</time>
      </trkpt>
      <trkpt lat="47.50657" lon="-2.37786">
        <ele>22.6</ele>
        <time>2020-06-06T09:25:44Z</time>
      </trkpt>
      <trkpt lat="47.50661" lon="-2.37786">
        <ele>22.8</ele>
        <time>2020-06-06T09:25:45Z</time>
      </trkpt>
      <trkpt lat="47.50665" lon="-2.37785">
        <ele>23</ele>
        <time>2020-06-06T09:25:46Z</time>
      </trkpt>
      <trkpt lat="47.50669" lon="-2.37785">
        <ele>23.2</ele>
        <time>2020-06-06T09:25:47Z</time>
      </trkpt>
      <trkpt lat="47.50671" lon="-2.37785">
        <ele>23.3</ele>
        <time>2020-06-06T09:25:48Z</time>
      </trkpt>
      <trkpt lat="47.50675" lon="-2.37784">
        <ele>23.5</ele>
        <time>2020-06-06T09:25:49Z</time>
      </trkpt>
      <trkpt lat="47.50678" lon="-2.37783">
        <ele>23.7</ele>
        <time>2020-06-06T09:25:50Z</time>
      </trkpt>
      <trkpt lat="47.50683" lon="-2.37781">
        <ele>24</ele>
        <time>2020-06-06T09:25:51Z</time>
      </trkpt>
      <trkpt lat="47.50687" lon="-2.37781">
        <ele>24.2</ele>
        <time>2020-06-06T09:25:52Z</time>
      </trkpt>
      <trkpt lat="47.50693" lon="-2.37781">
        <ele>24.4</ele>
        <time>2020-06-06T09:25:53Z</time>
      </trkpt>
      <trkpt lat="47.50698" lon="-2.3778">
        <ele>24.7</ele>
        <time>2020-06-06T09:25:54Z</time>
      </trkpt>
      <trkpt lat="47.50704" lon="-2.3778">
        <ele>24.9</ele>
        <time>2020-06-06T09:25:55Z</time>
      </trkpt>
      <trkpt lat="47.50709" lon="-2.37779">
        <ele>25.1</ele>
        <time>2020-06-06T09:25:56Z</time>
      </trkpt>
      <trkpt lat="47.50713" lon="-2.37778">
        <ele>25.3</ele>
        <time>2020-06-06T09:25:57Z</time>
      </trkpt>
      <trkpt lat="47.50717" lon="-2.37778">
        <ele>25.6</ele>
        <time>2020-06-06T09:25:58Z</time>
      </trkpt>
      <trkpt lat="47.50722" lon="-2.37778">
        <ele>25.8</ele>
        <time>2020-06-06T09:25:59Z</time>
      </trkpt>
      <trkpt lat="47.50726" lon="-2.37777">
        <ele>26</ele>
        <time>2020-06-06T09:26:00Z</time>
      </trkpt>
      <trkpt lat="47.5073" lon="-2.37776">
        <ele>26.2</ele>
        <time>2020-06-06T09:26:01Z</time>
      </trkpt>
      <trkpt lat="47.50734" lon="-2.37777">
        <ele>26.3</ele>
        <time>2020-06-06T09:26:02Z</time>
      </trkpt>
      <trkpt lat="47.50735" lon="-2.37778">
        <ele>26.4</ele>
        <time>2020-06-06T09:26:03Z</time>
      </trkpt>
      <trkpt lat="47.50739" lon="-2.37778">
        <ele>26.6</ele>
        <time>2020-06-06T09:26:04Z</time>
      </trkpt>
      <trkpt lat="47.50743" lon="-2.37778">
        <ele>26.7</ele>
        <time>2020-06-06T09:26:05Z</time>
      </trkpt>
      <trkpt lat="47.50747" lon="-2.37778">
        <ele>26.9</ele>
        <time>2020-06-06T09:26:06Z</time>
      </trkpt>
      <trkpt lat="47.50751" lon="-2.37777">
        <ele>27.1</ele>
        <time>2020-06-06T09:26:07Z</time>
      </trkpt>
      <trkpt lat="47.50756" lon="-2.37777">
        <ele>27.3</ele>
        <time>2020-06-06T09:26:08Z</time>
      </trkpt>
      <trkpt lat="47.50758" lon="-2.37777">
        <ele>27.5</ele>
        <time>2020-06-06T09:26:09Z</time>
      </trkpt>
      <trkpt lat="47.50762" lon="-2.37777">
        <ele>27.6</ele>
        <time>2020-06-06T09:26:10Z</time>
      </trkpt>
      <trkpt lat="47.50766" lon="-2.37778">
        <ele>27.8</ele>
        <time>2020-06-06T09:26:11Z</time>
      </trkpt>
      <trkpt lat="47.5077" lon="-2.37778">
        <ele>28</ele>
        <time>2020-06-06T09:26:12Z</time>
      </trkpt>
      <trkpt lat="47.50774" lon="-2.37778">
        <ele>28.2</ele>
        <time>2020-06-06T09:26:13Z</time>
      </trkpt>
      <trkpt lat="47.50777" lon="-2.37779">
        <ele>28.4</ele>
        <time>2020-06-06T09:26:14Z</time>
      </trkpt>
      <trkpt lat="47.5078" lon="-2.3778">
        <ele>28.6</ele>
        <time>2020-06-06T09:26:15Z</time>
      </trkpt>
      <trkpt lat="47.50785" lon="-2.37779">
        <ele>28.8</ele>
        <time>2020-06-06T09:26:16Z</time>
      </trkpt>
      <trkpt lat="47.50789" lon="-2.37779">
        <ele>29</ele>
        <time>2020-06-06T09:26:17Z</time>
      </trkpt>
      <trkpt lat="47.50794" lon="-2.37779">
        <ele>29.2</ele>
        <time>2020-06-06T09:26:18Z</time>
      </trkpt>
      <trkpt lat="47.50799" lon="-2.37777">
        <ele>29.5</ele>
        <time>2020-06-06T09:26:19Z</time>
      </trkpt>
      <trkpt lat="47.50801" lon="-2.37777">
        <ele>29.5</ele>
        <time>2020-06-06T09:26:20Z</time>
      </trkpt>
      <trkpt lat="47.50804" lon="-2.37776">
        <ele>29.7</ele>
        <time>2020-06-06T09:26:21Z</time>
      </trkpt>
      <trkpt lat="47.50807" lon="-2.37775">
        <ele>29.8</ele>
        <time>2020-06-06T09:26:22Z</time>
      </trkpt>
      <trkpt lat="47.50811" lon="-2.37775">
        <ele>30</ele>
        <time>2020-06-06T09:26:23Z</time>
      </trkpt>
      <trkpt lat="47.50814" lon="-2.37774">
        <ele>30.2</ele>
        <time>2020-06-06T09:26:24Z</time>
      </trkpt>
      <trkpt lat="47.50817" lon="-2.37773">
        <ele>30.3</ele>
        <time>2020-06-06T09:26:25Z</time>
      </trkpt>
      <trkpt lat="47.50821" lon="-2.37772">
        <ele>30.5</ele>
        <time>2020-06-06T09:26:26Z</time>
      </trkpt>
      <trkpt lat="47.50825" lon="-2.37772">
        <ele>30.7</ele>
        <time>2020-06-06T09:26:27Z</time>
      </trkpt>
      <trkpt lat="47.50826" lon="-2.37771">
        <ele>30.7</ele>
        <time>2020-06-06T09:26:28Z</time>
      </trkpt>
      <trkpt lat="47.5083" lon="-2.3777">
        <ele>30.9</ele>
        <time>2020-06-06T09:26:29Z</time>
      </trkpt>
      <trkpt lat="47.50834" lon="-2.3777">
        <ele>31</ele>
        <time>2020-06-06T09:26:30Z</time>
      </trkpt>
      <trkpt lat="47.50838" lon="-2.37769">
        <ele>31.2</ele>
        <time>2020-06-06T09:26:31Z</time>
      </trkpt>
      <trkpt lat="47.50843" lon="-2.37768">
        <ele>31.4</ele>
        <time>2020-06-06T09:26:32Z</time>
      </trkpt>
      <trkpt lat="47.50847" lon="-2.37768">
        <ele>31.5</ele>
        <time>2020-06-06T09:26:33Z</time>
      </trkpt>
      <trkpt lat="47.50848" lon="-2.37768">
        <ele>31.6</ele>
        <time>2020-06-06T09:26:34Z</time>
      </trkpt>
      <trkpt lat="47.50852" lon="-2.37767">
        <ele>31.7</ele>
        <time>2020-06-06T09:26:35Z</time>
      </trkpt>
      <trkpt lat="47.50855" lon="-2.37766">
        <ele>31.8</ele>
        <time>2020-06-06T09:26:36Z</time>
      </trkpt>
      <trkpt lat="47.50858" lon="-2.37765">
        <ele>31.9</ele>
        <time>2020-06-06T09:26:37Z</time>
      </trkpt>
      <trkpt lat="47.50862" lon="-2.37764">
        <ele>32.1</ele>
        <time>2020-06-06T09:26:38Z</time>
      </trkpt>
      <trkpt lat="47.50866" lon="-2.37762">
        <ele>32.2</ele>
        <time>2020-06-06T09:26:39Z</time>
      </trkpt>
      <trkpt lat="47.5087" lon="-2.3776">
        <ele>32.3</ele>
        <time>2020-06-06T09:26:40Z</time>
      </trkpt>
      <trkpt lat="47.50874" lon="-2.37759">
        <ele>32.5</ele>
        <time>2020-06-06T09:26:41Z</time>
      </trkpt>
      <trkpt lat="47.50877" lon="-2.37758">
        <ele>32.6</ele>
        <time>2020-06-06T09:26:42Z</time>
      </trkpt>
      <trkpt lat="47.50881" lon="-2.37756">
        <ele>32.7</ele>
        <time>2020-06-06T09:26:43Z</time>
      </trkpt>
      <trkpt lat="47.50885" lon="-2.37755">
        <ele>32.9</ele>
        <time>2020-06-06T09:26:44Z</time>
      </trkpt>
      <trkpt lat="47.50889" lon="-2.37754">
        <ele>33</ele>
        <time>2020-06-06T09:26:45Z</time>
      </trkpt>
      <trkpt lat="47.50893" lon="-2.37753">
        <ele>33.2</ele>
        <time>2020-06-06T09:26:46Z</time>
      </trkpt>
      <trkpt lat="47.50898" lon="-2.37752">
        <ele>33.3</ele>
        <time>2020-06-06T09:26:47Z</time>
      </trkpt>
      <trkpt lat="47.50902" lon="-2.3775">
        <ele>33.4</ele>
        <time>2020-06-06T09:26:48Z</time>
      </trkpt>
      <trkpt lat="47.50905" lon="-2.37748">
        <ele>33.5</ele>
        <time>2020-06-06T09:26:49Z</time>
      </trkpt>
      <trkpt lat="47.50908" lon="-2.37746">
        <ele>33.6</ele>
        <time>2020-06-06T09:26:50Z</time>
      </trkpt>
      <trkpt lat="47.50913" lon="-2.37744">
        <ele>33.8</ele>
        <time>2020-06-06T09:26:51Z</time>
      </trkpt>
      <trkpt lat="47.50915" lon="-2.37743">
        <ele>33.9</ele>
        <time>2020-06-06T09:26:52Z</time>
      </trkpt>
      <trkpt lat="47.50919" lon="-2.37742">
        <ele>34</ele>
        <time>2020-06-06T09:26:53Z</time>
      </trkpt>
      <trkpt lat="47.50922" lon="-2.3774">
        <ele>34.1</ele>
        <time>2020-06-06T09:26:54Z</time>
      </trkpt>
      <trkpt lat="47.50926" lon="-2.37739">
        <ele>34.2</ele>
        <time>2020-06-06T09:26:55Z</time>
      </trkpt>
      <trkpt lat="47.5093" lon="-2.37737">
        <ele>34.3</ele>
        <time>2020-06-06T09:26:56Z</time>
      </trkpt>
      <trkpt lat="47.50934" lon="-2.37735">
        <ele>34.3</ele>
        <time>2020-06-06T09:26:57Z</time>
      </trkpt>
      <trkpt lat="47.50937" lon="-2.37732">
        <ele>34.4</ele>
        <time>2020-06-06T09:26:58Z</time>
      </trkpt>
      <trkpt lat="47.50942" lon="-2.3773">
        <ele>34.5</ele>
        <time>2020-06-06T09:26:59Z</time>
      </trkpt>
      <trkpt lat="47.50946" lon="-2.37728">
        <ele>34.6</ele>
        <time>2020-06-06T09:27:00Z</time>
      </trkpt>
      <trkpt lat="47.5095" lon="-2.37725">
        <ele>34.7</ele>
        <time>2020-06-06T09:27:01Z</time>
      </trkpt>
      <trkpt lat="47.50955" lon="-2.37723">
        <ele>34.8</ele>
        <time>2020-06-06T09:27:02Z</time>
      </trkpt>
      <trkpt lat="47.50958" lon="-2.3772">
        <ele>34.9</ele>
        <time>2020-06-06T09:27:03Z</time>
      </trkpt>
      <trkpt lat="47.50962" lon="-2.37717">
        <ele>35</ele>
        <time>2020-06-06T09:27:04Z</time>
      </trkpt>
      <trkpt lat="47.50966" lon="-2.37714">
        <ele>35.1</ele>
        <time>2020-06-06T09:27:05Z</time>
      </trkpt>
      <trkpt lat="47.50969" lon="-2.37711">
        <ele>35.1</ele>
        <time>2020-06-06T09:27:06Z</time>
      </trkpt>
      <trkpt lat="47.50974" lon="-2.37708">
        <ele>35.2</ele>
        <time>2020-06-06T09:27:07Z</time>
      </trkpt>
      <trkpt lat="47.50978" lon="-2.37704">
        <ele>35.2</ele>
        <time>2020-06-06T09:27:08Z</time>
      </trkpt>
      <trkpt lat="47.50982" lon="-2.37701">
        <ele>35.3</ele>
        <time>2020-06-06T09:27:09Z</time>
      </trkpt>
      <trkpt lat="47.50986" lon="-2.37699">
        <ele>35.3</ele>
        <time>2020-06-06T09:27:10Z</time>
      </trkpt>
      <trkpt lat="47.5099" lon="-2.37696">
        <ele>35.3</ele>
        <time>2020-06-06T09:27:11Z</time>
      </trkpt>
      <trkpt lat="47.50994" lon="-2.37693">
        <ele>35.4</ele>
        <time>2020-06-06T09:27:12Z</time>
      </trkpt>
      <trkpt lat="47.50998" lon="-2.3769">
        <ele>35.4</ele>
        <time>2020-06-06T09:27:13Z</time>
      </trkpt>
      <trkpt lat="47.51002" lon="-2.37687">
        <ele>35.4</ele>
        <time>2020-06-06T09:27:14Z</time>
      </trkpt>
      <trkpt lat="47.51007" lon="-2.37684">
        <ele>35.5</ele>
        <time>2020-06-06T09:27:15Z</time>
      </trkpt>
      <trkpt lat="47.51012" lon="-2.3768">
        <ele>35.5</ele>
        <time>2020-06-06T09:27:16Z</time>
      </trkpt>
      <trkpt lat="47.51019" lon="-2.37676">
        <ele>35.5</ele>
        <time>2020-06-06T09:27:17Z</time>
      </trkpt>
      <trkpt lat="47.51025" lon="-2.37671">
        <ele>35.4</ele>
        <time>2020-06-06T09:27:18Z</time>
      </trkpt>
      <trkpt lat="47.51031" lon="-2.37666">
        <ele>35.4</ele>
        <time>2020-06-06T09:27:19Z</time>
      </trkpt>
      <trkpt lat="47.51038" lon="-2.37661">
        <ele>35.3</ele>
        <time>2020-06-06T09:27:20Z</time>
      </trkpt>
      <trkpt lat="47.51044" lon="-2.37658">
        <ele>35.2</ele>
        <time>2020-06-06T09:27:21Z</time>
      </trkpt>
      <trkpt lat="47.5105" lon="-2.37654">
        <ele>35.2</ele>
        <time>2020-06-06T09:27:22Z</time>
      </trkpt>
      <trkpt lat="47.51055" lon="-2.3765">
        <ele>35.2</ele>
        <time>2020-06-06T09:27:23Z</time>
      </trkpt>
      <trkpt lat="47.5106" lon="-2.37647">
        <ele>35.2</ele>
        <time>2020-06-06T09:27:24Z</time>
      </trkpt>
      <trkpt lat="47.51064" lon="-2.37643">
        <ele>35.2</ele>
        <time>2020-06-06T09:27:25Z</time>
      </trkpt>
      <trkpt lat="47.51067" lon="-2.37639">
        <ele>35.2</ele>
        <time>2020-06-06T09:27:26Z</time>
      </trkpt>
      <trkpt lat="47.51071" lon="-2.37634">
        <ele>35.1</ele>
        <time>2020-06-06T09:27:27Z</time>
      </trkpt>
      <trkpt lat="47.51075" lon="-2.37631">
        <ele>35.1</ele>
        <time>2020-06-06T09:27:28Z</time>
      </trkpt>
      <trkpt lat="47.51079" lon="-2.37627">
        <ele>35.1</ele>
        <time>2020-06-06T09:27:29Z</time>
      </trkpt>
      <trkpt lat="47.51083" lon="-2.37623">
        <ele>35.1</ele>
        <time>2020-06-06T09:27:30Z</time>
      </trkpt>
      <trkpt lat="47.51088" lon="-2.37619">
        <ele>35</ele>
        <time>2020-06-06T09:27:31Z</time>
      </trkpt>
      <trkpt lat="47.51093" lon="-2.37614">
        <ele>35</ele>
        <time>2020-06-06T09:27:32Z</time>
      </trkpt>
      <trkpt lat="47.51097" lon="-2.37609">
        <ele>35.1</ele>
        <time>2020-06-06T09:27:33Z</time>
      </trkpt>
      <trkpt lat="47.51101" lon="-2.37605">
        <ele>35.1</ele>
        <time>2020-06-06T09:27:34Z</time>
      </trkpt>
      <trkpt lat="47.51104" lon="-2.376">
        <ele>35.1</ele>
        <time>2020-06-06T09:27:35Z</time>
      </trkpt>
      <trkpt lat="47.51107" lon="-2.37595">
        <ele>35.1</ele>
        <time>2020-06-06T09:27:36Z</time>
      </trkpt>
      <trkpt lat="47.51112" lon="-2.3759">
        <ele>35.2</ele>
        <time>2020-06-06T09:27:37Z</time>
      </trkpt>
      <trkpt lat="47.51115" lon="-2.37586">
        <ele>35.2</ele>
        <time>2020-06-06T09:27:38Z</time>
      </trkpt>
      <trkpt lat="47.51118" lon="-2.37583">
        <ele>35.2</ele>
        <time>2020-06-06T09:27:39Z</time>
      </trkpt>
      <trkpt lat="47.51122" lon="-2.37579">
        <ele>35.2</ele>
        <time>2020-06-06T09:27:40Z</time>
      </trkpt>
      <trkpt lat="47.51123" lon="-2.37577">
        <ele>35.2</ele>
        <time>2020-06-06T09:27:41Z</time>
      </trkpt>
      <trkpt lat="47.51125" lon="-2.37576">
        <ele>35.2</ele>
        <time>2020-06-06T09:27:42Z</time>
      </trkpt>
      <trkpt lat="47.51125" lon="-2.37576">
        <ele>35.2</ele>
        <time>2020-06-06T09:27:43Z</time>
      </trkpt>
      <trkpt lat="47.51125" lon="-2.37577">
        <ele>35.2</ele>
        <time>2020-06-06T09:27:44Z</time>
      </trkpt>
      <trkpt lat="47.51124" lon="-2.37577">
        <ele>35.2</ele>
        <time>2020-06-06T09:27:45Z</time>
      </trkpt>
      <trkpt lat="47.51124" lon="-2.37577">
        <ele>35.2</ele>
        <time>2020-06-06T09:27:46Z</time>
      </trkpt>
      <trkpt lat="47.51124" lon="-2.37577">
        <ele>35.2</ele>
        <time>2020-06-06T09:27:47Z</time>
      </trkpt>
      <trkpt lat="47.51123" lon="-2.37576">
        <ele>35.2</ele>
        <time>2020-06-06T09:27:48Z</time>
      </trkpt>
      <trkpt lat="47.51123" lon="-2.37576">
        <ele>35.2</ele>
        <time>2020-06-06T09:27:49Z</time>
      </trkpt>
      <trkpt lat="47.51123" lon="-2.37576">
        <ele>35.2</ele>
        <time>2020-06-06T09:27:50Z</time>
      </trkpt>
      <trkpt lat="47.51122" lon="-2.37576">
        <ele>35.2</ele>
        <time>2020-06-06T09:27:51Z</time>
      </trkpt>
      <trkpt lat="47.51122" lon="-2.37576">
        <ele>35.2</ele>
        <time>2020-06-06T09:27:52Z</time>
      </trkpt>
      <trkpt lat="47.51122" lon="-2.37576">
        <ele>35.2</ele>
        <time>2020-06-06T09:27:53Z</time>
      </trkpt>
      <trkpt lat="47.51122" lon="-2.37576">
        <ele>35.2</ele>
        <time>2020-06-06T09:27:54Z</time>
      </trkpt>
      <trkpt lat="47.51122" lon="-2.37577">
        <ele>35.2</ele>
        <time>2020-06-06T09:27:55Z</time>
      </trkpt>
      <trkpt lat="47.51122" lon="-2.37577">
        <ele>35.2</ele>
        <time>2020-06-06T09:27:56Z</time>
      </trkpt>
      <trkpt lat="47.51125" lon="-2.37582">
        <ele>35.2</ele>
        <time>2020-06-06T09:27:57Z</time>
      </trkpt>
      <trkpt lat="47.51127" lon="-2.37587">
        <ele>35.2</ele>
        <time>2020-06-06T09:28:07Z</time>
      </trkpt>
      <trkpt lat="47.5113" lon="-2.37591">
        <ele>35.2</ele>
        <time>2020-06-06T09:28:08Z</time>
      </trkpt>
      <trkpt lat="47.51134" lon="-2.37595">
        <ele>35.2</ele>
        <time>2020-06-06T09:28:09Z</time>
      </trkpt>
      <trkpt lat="47.51138" lon="-2.376">
        <ele>35.2</ele>
        <time>2020-06-06T09:28:10Z</time>
      </trkpt>
      <trkpt lat="47.51142" lon="-2.37604">
        <ele>35.2</ele>
        <time>2020-06-06T09:28:11Z</time>
      </trkpt>
      <trkpt lat="47.51146" lon="-2.37607">
        <ele>35.2</ele>
        <time>2020-06-06T09:28:12Z</time>
      </trkpt>
      <trkpt lat="47.5115" lon="-2.3761">
        <ele>35.2</ele>
        <time>2020-06-06T09:28:13Z</time>
      </trkpt>
      <trkpt lat="47.51155" lon="-2.37614">
        <ele>35.2</ele>
        <time>2020-06-06T09:28:14Z</time>
      </trkpt>
      <trkpt lat="47.51158" lon="-2.37616">
        <ele>35.3</ele>
        <time>2020-06-06T09:28:15Z</time>
      </trkpt>
      <trkpt lat="47.51162" lon="-2.37619">
        <ele>35.3</ele>
        <time>2020-06-06T09:28:16Z</time>
      </trkpt>
      <trkpt lat="47.51167" lon="-2.37623">
        <ele>35.4</ele>
        <time>2020-06-06T09:28:17Z</time>
      </trkpt>
      <trkpt lat="47.51171" lon="-2.37625">
        <ele>35.5</ele>
        <time>2020-06-06T09:28:18Z</time>
      </trkpt>
      <trkpt lat="47.51174" lon="-2.37628">
        <ele>35.6</ele>
        <time>2020-06-06T09:28:19Z</time>
      </trkpt>
      <trkpt lat="47.51178" lon="-2.37632">
        <ele>35.7</ele>
        <time>2020-06-06T09:28:20Z</time>
      </trkpt>
      <trkpt lat="47.51181" lon="-2.37637">
        <ele>35.8</ele>
        <time>2020-06-06T09:28:21Z</time>
      </trkpt>
      <trkpt lat="47.51185" lon="-2.37642">
        <ele>35.9</ele>
        <time>2020-06-06T09:28:22Z</time>
      </trkpt>
      <trkpt lat="47.51189" lon="-2.37646">
        <ele>36</ele>
        <time>2020-06-06T09:28:23Z</time>
      </trkpt>
      <trkpt lat="47.51192" lon="-2.37651">
        <ele>36.1</ele>
        <time>2020-06-06T09:28:24Z</time>
      </trkpt>
      <trkpt lat="47.51196" lon="-2.37655">
        <ele>36.2</ele>
        <time>2020-06-06T09:28:25Z</time>
      </trkpt>
      <trkpt lat="47.512" lon="-2.37659">
        <ele>36.3</ele>
        <time>2020-06-06T09:28:26Z</time>
      </trkpt>
      <trkpt lat="47.51203" lon="-2.37663">
        <ele>36.4</ele>
        <time>2020-06-06T09:28:27Z</time>
      </trkpt>
      <trkpt lat="47.51208" lon="-2.37669">
        <ele>36.6</ele>
        <time>2020-06-06T09:28:28Z</time>
      </trkpt>
      <trkpt lat="47.51211" lon="-2.37674">
        <ele>36.7</ele>
        <time>2020-06-06T09:28:29Z</time>
      </trkpt>
      <trkpt lat="47.51215" lon="-2.37679">
        <ele>36.9</ele>
        <time>2020-06-06T09:28:30Z</time>
      </trkpt>
      <trkpt lat="47.51219" lon="-2.37683">
        <ele>37</ele>
        <time>2020-06-06T09:28:31Z</time>
      </trkpt>
      <trkpt lat="47.51223" lon="-2.37685">
        <ele>37.1</ele>
        <time>2020-06-06T09:28:32Z</time>
      </trkpt>
      <trkpt lat="47.51228" lon="-2.37688">
        <ele>37.1</ele>
        <time>2020-06-06T09:28:33Z</time>
      </trkpt>
      <trkpt lat="47.51233" lon="-2.3769">
        <ele>37.2</ele>
        <time>2020-06-06T09:28:34Z</time>
      </trkpt>
      <trkpt lat="47.51237" lon="-2.37691">
        <ele>37.2</ele>
        <time>2020-06-06T09:28:35Z</time>
      </trkpt>
      <trkpt lat="47.51242" lon="-2.37693">
        <ele>37.2</ele>
        <time>2020-06-06T09:28:36Z</time>
      </trkpt>
      <trkpt lat="47.51247" lon="-2.37693">
        <ele>37.2</ele>
        <time>2020-06-06T09:28:37Z</time>
      </trkpt>
      <trkpt lat="47.51252" lon="-2.37693">
        <ele>37.2</ele>
        <time>2020-06-06T09:28:38Z</time>
      </trkpt>
      <trkpt lat="47.51258" lon="-2.37693">
        <ele>37.3</ele>
        <time>2020-06-06T09:28:39Z</time>
      </trkpt>
      <trkpt lat="47.51263" lon="-2.37693">
        <ele>37.3</ele>
        <time>2020-06-06T09:28:40Z</time>
      </trkpt>
      <trkpt lat="47.51268" lon="-2.37691">
        <ele>37.4</ele>
        <time>2020-06-06T09:28:41Z</time>
      </trkpt>
      <trkpt lat="47.51274" lon="-2.37691">
        <ele>37.5</ele>
        <time>2020-06-06T09:28:42Z</time>
      </trkpt>
      <trkpt lat="47.5128" lon="-2.37692">
        <ele>37.6</ele>
        <time>2020-06-06T09:28:43Z</time>
      </trkpt>
      <trkpt lat="47.51285" lon="-2.37691">
        <ele>37.6</ele>
        <time>2020-06-06T09:28:44Z</time>
      </trkpt>
      <trkpt lat="47.5129" lon="-2.37692">
        <ele>37.7</ele>
        <time>2020-06-06T09:28:45Z</time>
      </trkpt>
      <trkpt lat="47.51294" lon="-2.37692">
        <ele>37.7</ele>
        <time>2020-06-06T09:28:46Z</time>
      </trkpt>
      <trkpt lat="47.51299" lon="-2.37692">
        <ele>37.9</ele>
        <time>2020-06-06T09:28:47Z</time>
      </trkpt>
      <trkpt lat="47.51303" lon="-2.37691">
        <ele>38</ele>
        <time>2020-06-06T09:28:48Z</time>
      </trkpt>
      <trkpt lat="47.51308" lon="-2.3769">
        <ele>38.2</ele>
        <time>2020-06-06T09:28:49Z</time>
      </trkpt>
      <trkpt lat="47.51312" lon="-2.3769">
        <ele>38.3</ele>
        <time>2020-06-06T09:28:50Z</time>
      </trkpt>
      <trkpt lat="47.51317" lon="-2.37689">
        <ele>38.5</ele>
        <time>2020-06-06T09:28:51Z</time>
      </trkpt>
      <trkpt lat="47.51322" lon="-2.37689">
        <ele>38.6</ele>
        <time>2020-06-06T09:28:52Z</time>
      </trkpt>
      <trkpt lat="47.51327" lon="-2.37688">
        <ele>38.8</ele>
        <time>2020-06-06T09:28:53Z</time>
      </trkpt>
      <trkpt lat="47.51332" lon="-2.37687">
        <ele>38.9</ele>
        <time>2020-06-06T09:28:54Z</time>
      </trkpt>
      <trkpt lat="47.51336" lon="-2.37687">
        <ele>39</ele>
        <time>2020-06-06T09:28:55Z</time>
      </trkpt>
      <trkpt lat="47.51341" lon="-2.37685">
        <ele>39.2</ele>
        <time>2020-06-06T09:28:56Z</time>
      </trkpt>
      <trkpt lat="47.51346" lon="-2.37683">
        <ele>39.3</ele>
        <time>2020-06-06T09:28:57Z</time>
      </trkpt>
      <trkpt lat="47.51351" lon="-2.37683">
        <ele>39.5</ele>
        <time>2020-06-06T09:28:58Z</time>
      </trkpt>
      <trkpt lat="47.51355" lon="-2.37681">
        <ele>39.6</ele>
        <time>2020-06-06T09:28:59Z</time>
      </trkpt>
      <trkpt lat="47.51361" lon="-2.3768">
        <ele>39.8</ele>
        <time>2020-06-06T09:29:00Z</time>
      </trkpt>
      <trkpt lat="47.51365" lon="-2.37679">
        <ele>39.9</ele>
        <time>2020-06-06T09:29:01Z</time>
      </trkpt>
      <trkpt lat="47.5137" lon="-2.37678">
        <ele>40.1</ele>
        <time>2020-06-06T09:29:02Z</time>
      </trkpt>
      <trkpt lat="47.51376" lon="-2.37678">
        <ele>40.3</ele>
        <time>2020-06-06T09:29:03Z</time>
      </trkpt>
      <trkpt lat="47.51381" lon="-2.37676">
        <ele>40.4</ele>
        <time>2020-06-06T09:29:04Z</time>
      </trkpt>
      <trkpt lat="47.51385" lon="-2.37675">
        <ele>40.6</ele>
        <time>2020-06-06T09:29:05Z</time>
      </trkpt>
      <trkpt lat="47.5139" lon="-2.37674">
        <ele>40.8</ele>
        <time>2020-06-06T09:29:06Z</time>
      </trkpt>
      <trkpt lat="47.51397" lon="-2.37671">
        <ele>40.9</ele>
        <time>2020-06-06T09:29:07Z</time>
      </trkpt>
      <trkpt lat="47.51402" lon="-2.3767">
        <ele>41</ele>
        <time>2020-06-06T09:29:08Z</time>
      </trkpt>
      <trkpt lat="47.51407" lon="-2.3767">
        <ele>41.1</ele>
        <time>2020-06-06T09:29:09Z</time>
      </trkpt>
      <trkpt lat="47.51413" lon="-2.37669">
        <ele>41.2</ele>
        <time>2020-06-06T09:29:10Z</time>
      </trkpt>
      <trkpt lat="47.51418" lon="-2.37669">
        <ele>41.3</ele>
        <time>2020-06-06T09:29:11Z</time>
      </trkpt>
      <trkpt lat="47.51423" lon="-2.37668">
        <ele>41.4</ele>
        <time>2020-06-06T09:29:12Z</time>
      </trkpt>
      <trkpt lat="47.51429" lon="-2.37666">
        <ele>41.5</ele>
        <time>2020-06-06T09:29:13Z</time>
      </trkpt>
      <trkpt lat="47.51434" lon="-2.37665">
        <ele>41.6</ele>
        <time>2020-06-06T09:29:14Z</time>
      </trkpt>
      <trkpt lat="47.5144" lon="-2.37663">
        <ele>41.7</ele>
        <time>2020-06-06T09:29:15Z</time>
      </trkpt>
      <trkpt lat="47.51446" lon="-2.37663">
        <ele>41.9</ele>
        <time>2020-06-06T09:29:16Z</time>
      </trkpt>
      <trkpt lat="47.51451" lon="-2.37661">
        <ele>42</ele>
        <time>2020-06-06T09:29:17Z</time>
      </trkpt>
      <trkpt lat="47.51456" lon="-2.3766">
        <ele>42.1</ele>
        <time>2020-06-06T09:29:18Z</time>
      </trkpt>
      <trkpt lat="47.51461" lon="-2.37659">
        <ele>42.2</ele>
        <time>2020-06-06T09:29:19Z</time>
      </trkpt>
      <trkpt lat="47.51467" lon="-2.37658">
        <ele>42.3</ele>
        <time>2020-06-06T09:29:20Z</time>
      </trkpt>
      <trkpt lat="47.51472" lon="-2.37658">
        <ele>42.4</ele>
        <time>2020-06-06T09:29:21Z</time>
      </trkpt>
      <trkpt lat="47.51476" lon="-2.37658">
        <ele>42.5</ele>
        <time>2020-06-06T09:29:22Z</time>
      </trkpt>
      <trkpt lat="47.51481" lon="-2.37658">
        <ele>42.6</ele>
        <time>2020-06-06T09:29:23Z</time>
      </trkpt>
      <trkpt lat="47.51486" lon="-2.37658">
        <ele>42.7</ele>
        <time>2020-06-06T09:29:24Z</time>
      </trkpt>
      <trkpt lat="47.5149" lon="-2.37658">
        <ele>42.8</ele>
        <time>2020-06-06T09:29:25Z</time>
      </trkpt>
      <trkpt lat="47.51496" lon="-2.37657">
        <ele>42.9</ele>
        <time>2020-06-06T09:29:26Z</time>
      </trkpt>
      <trkpt lat="47.51502" lon="-2.37656">
        <ele>43</ele>
        <time>2020-06-06T09:29:27Z</time>
      </trkpt>
      <trkpt lat="47.51507" lon="-2.37655">
        <ele>43</ele>
        <time>2020-06-06T09:29:28Z</time>
      </trkpt>
      <trkpt lat="47.51512" lon="-2.37655">
        <ele>43</ele>
        <time>2020-06-06T09:29:29Z</time>
      </trkpt>
      <trkpt lat="47.51518" lon="-2.37653">
        <ele>43.1</ele>
        <time>2020-06-06T09:29:30Z</time>
      </trkpt>
      <trkpt lat="47.51523" lon="-2.37652">
        <ele>43.1</ele>
        <time>2020-06-06T09:29:31Z</time>
      </trkpt>
      <trkpt lat="47.51529" lon="-2.3765">
        <ele>43.2</ele>
        <time>2020-06-06T09:29:32Z</time>
      </trkpt>
      <trkpt lat="47.51535" lon="-2.37647">
        <ele>43.2</ele>
        <time>2020-06-06T09:29:33Z</time>
      </trkpt>
      <trkpt lat="47.51541" lon="-2.37644">
        <ele>43.3</ele>
        <time>2020-06-06T09:29:34Z</time>
      </trkpt>
      <trkpt lat="47.51546" lon="-2.37642">
        <ele>43.3</ele>
        <time>2020-06-06T09:29:35Z</time>
      </trkpt>
      <trkpt lat="47.51551" lon="-2.37641">
        <ele>43.3</ele>
        <time>2020-06-06T09:29:36Z</time>
      </trkpt>
      <trkpt lat="47.51556" lon="-2.37638">
        <ele>43.3</ele>
        <time>2020-06-06T09:29:37Z</time>
      </trkpt>
      <trkpt lat="47.51561" lon="-2.37636">
        <ele>43.4</ele>
        <time>2020-06-06T09:29:38Z</time>
      </trkpt>
      <trkpt lat="47.51566" lon="-2.37634">
        <ele>43.4</ele>
        <time>2020-06-06T09:29:39Z</time>
      </trkpt>
      <trkpt lat="47.51572" lon="-2.37633">
        <ele>43.4</ele>
        <time>2020-06-06T09:29:40Z</time>
      </trkpt>
      <trkpt lat="47.51577" lon="-2.3763">
        <ele>43.4</ele>
        <time>2020-06-06T09:29:41Z</time>
      </trkpt>
      <trkpt lat="47.51582" lon="-2.37629">
        <ele>43.4</ele>
        <time>2020-06-06T09:29:42Z</time>
      </trkpt>
      <trkpt lat="47.51588" lon="-2.37627">
        <ele>43.5</ele>
        <time>2020-06-06T09:29:43Z</time>
      </trkpt>
      <trkpt lat="47.51593" lon="-2.37624">
        <ele>43.6</ele>
        <time>2020-06-06T09:29:44Z</time>
      </trkpt>
      <trkpt lat="47.51598" lon="-2.37622">
        <ele>43.6</ele>
        <time>2020-06-06T09:29:45Z</time>
      </trkpt>
      <trkpt lat="47.51604" lon="-2.37621">
        <ele>43.6</ele>
        <time>2020-06-06T09:29:46Z</time>
      </trkpt>
      <trkpt lat="47.51609" lon="-2.37622">
        <ele>43.7</ele>
        <time>2020-06-06T09:29:47Z</time>
      </trkpt>
      <trkpt lat="47.51614" lon="-2.37625">
        <ele>43.7</ele>
        <time>2020-06-06T09:29:48Z</time>
      </trkpt>
      <trkpt lat="47.51619" lon="-2.37628">
        <ele>43.7</ele>
        <time>2020-06-06T09:29:49Z</time>
      </trkpt>
      <trkpt lat="47.51624" lon="-2.37634">
        <ele>43.7</ele>
        <time>2020-06-06T09:29:50Z</time>
      </trkpt>
      <trkpt lat="47.5163" lon="-2.3764">
        <ele>43.7</ele>
        <time>2020-06-06T09:29:51Z</time>
      </trkpt>
      <trkpt lat="47.51634" lon="-2.37647">
        <ele>43.7</ele>
        <time>2020-06-06T09:29:52Z</time>
      </trkpt>
      <trkpt lat="47.51639" lon="-2.37653">
        <ele>43.7</ele>
        <time>2020-06-06T09:29:53Z</time>
      </trkpt>
      <trkpt lat="47.51643" lon="-2.37658">
        <ele>43.7</ele>
        <time>2020-06-06T09:29:54Z</time>
      </trkpt>
      <trkpt lat="47.51648" lon="-2.37663">
        <ele>43.7</ele>
        <time>2020-06-06T09:29:55Z</time>
      </trkpt>
      <trkpt lat="47.51653" lon="-2.37667">
        <ele>43.7</ele>
        <time>2020-06-06T09:29:56Z</time>
      </trkpt>
      <trkpt lat="47.51658" lon="-2.37671">
        <ele>43.7</ele>
        <time>2020-06-06T09:29:57Z</time>
      </trkpt>
      <trkpt lat="47.51663" lon="-2.37674">
        <ele>43.8</ele>
        <time>2020-06-06T09:29:58Z</time>
      </trkpt>
      <trkpt lat="47.51669" lon="-2.37674">
        <ele>43.8</ele>
        <time>2020-06-06T09:29:59Z</time>
      </trkpt>
      <trkpt lat="47.51674" lon="-2.37674">
        <ele>43.8</ele>
        <time>2020-06-06T09:30:00Z</time>
      </trkpt>
      <trkpt lat="47.5168" lon="-2.37675">
        <ele>43.8</ele>
        <time>2020-06-06T09:30:01Z</time>
      </trkpt>
      <trkpt lat="47.51685" lon="-2.37677">
        <ele>43.8</ele>
        <time>2020-06-06T09:30:02Z</time>
      </trkpt>
      <trkpt lat="47.51689" lon="-2.3768">
        <ele>43.8</ele>
        <time>2020-06-06T09:30:03Z</time>
      </trkpt>
      <trkpt lat="47.51694" lon="-2.37683">
        <ele>43.8</ele>
        <time>2020-06-06T09:30:04Z</time>
      </trkpt>
      <trkpt lat="47.51698" lon="-2.37685">
        <ele>43.8</ele>
        <time>2020-06-06T09:30:05Z</time>
      </trkpt>
      <trkpt lat="47.51702" lon="-2.37689">
        <ele>43.9</ele>
        <time>2020-06-06T09:30:06Z</time>
      </trkpt>
      <trkpt lat="47.51706" lon="-2.37692">
        <ele>43.9</ele>
        <time>2020-06-06T09:30:07Z</time>
      </trkpt>
      <trkpt lat="47.5171" lon="-2.37696">
        <ele>43.9</ele>
        <time>2020-06-06T09:30:08Z</time>
      </trkpt>
      <trkpt lat="47.51713" lon="-2.37702">
        <ele>43.8</ele>
        <time>2020-06-06T09:30:09Z</time>
      </trkpt>
      <trkpt lat="47.51715" lon="-2.37709">
        <ele>43.8</ele>
        <time>2020-06-06T09:30:10Z</time>
      </trkpt>
      <trkpt lat="47.51716" lon="-2.37716">
        <ele>43.8</ele>
        <time>2020-06-06T09:30:11Z</time>
      </trkpt>
      <trkpt lat="47.51719" lon="-2.37723">
        <ele>43.7</ele>
        <time>2020-06-06T09:30:12Z</time>
      </trkpt>
      <trkpt lat="47.51721" lon="-2.3773">
        <ele>43.7</ele>
        <time>2020-06-06T09:30:13Z</time>
      </trkpt>
      <trkpt lat="47.51724" lon="-2.37737">
        <ele>43.6</ele>
        <time>2020-06-06T09:30:14Z</time>
      </trkpt>
      <trkpt lat="47.51727" lon="-2.37743">
        <ele>43.6</ele>
        <time>2020-06-06T09:30:15Z</time>
      </trkpt>
      <trkpt lat="47.5173" lon="-2.37749">
        <ele>43.6</ele>
        <time>2020-06-06T09:30:16Z</time>
      </trkpt>
      <trkpt lat="47.51734" lon="-2.37755">
        <ele>43.6</ele>
        <time>2020-06-06T09:30:17Z</time>
      </trkpt>
      <trkpt lat="47.51738" lon="-2.37761">
        <ele>43.5</ele>
        <time>2020-06-06T09:30:18Z</time>
      </trkpt>
      <trkpt lat="47.51742" lon="-2.37767">
        <ele>43.5</ele>
        <time>2020-06-06T09:30:19Z</time>
      </trkpt>
      <trkpt lat="47.51745" lon="-2.37772">
        <ele>43.5</ele>
        <time>2020-06-06T09:30:20Z</time>
      </trkpt>
      <trkpt lat="47.51749" lon="-2.37776">
        <ele>43.5</ele>
        <time>2020-06-06T09:30:21Z</time>
      </trkpt>
      <trkpt lat="47.51753" lon="-2.3778">
        <ele>43.5</ele>
        <time>2020-06-06T09:30:22Z</time>
      </trkpt>
      <trkpt lat="47.51757" lon="-2.37785">
        <ele>43.4</ele>
        <time>2020-06-06T09:30:23Z</time>
      </trkpt>
      <trkpt lat="47.51761" lon="-2.3779">
        <ele>43.4</ele>
        <time>2020-06-06T09:30:24Z</time>
      </trkpt>
      <trkpt lat="47.51765" lon="-2.37796">
        <ele>43.4</ele>
        <time>2020-06-06T09:30:25Z</time>
      </trkpt>
      <trkpt lat="47.51769" lon="-2.37802">
        <ele>43.4</ele>
        <time>2020-06-06T09:30:26Z</time>
      </trkpt>
      <trkpt lat="47.51773" lon="-2.37807">
        <ele>43.4</ele>
        <time>2020-06-06T09:30:27Z</time>
      </trkpt>
      <trkpt lat="47.51778" lon="-2.37812">
        <ele>43.4</ele>
        <time>2020-06-06T09:30:28Z</time>
      </trkpt>
      <trkpt lat="47.51783" lon="-2.37817">
        <ele>43.4</ele>
        <time>2020-06-06T09:30:29Z</time>
      </trkpt>
      <trkpt lat="47.51786" lon="-2.37822">
        <ele>43.4</ele>
        <time>2020-06-06T09:30:30Z</time>
      </trkpt>
      <trkpt lat="47.5179" lon="-2.37827">
        <ele>43.4</ele>
        <time>2020-06-06T09:30:31Z</time>
      </trkpt>
      <trkpt lat="47.51793" lon="-2.37833">
        <ele>43.4</ele>
        <time>2020-06-06T09:30:32Z</time>
      </trkpt>
      <trkpt lat="47.51797" lon="-2.37839">
        <ele>43.4</ele>
        <time>2020-06-06T09:30:33Z</time>
      </trkpt>
      <trkpt lat="47.51801" lon="-2.37845">
        <ele>43.4</ele>
        <time>2020-06-06T09:30:34Z</time>
      </trkpt>
      <trkpt lat="47.51805" lon="-2.37851">
        <ele>43.4</ele>
        <time>2020-06-06T09:30:35Z</time>
      </trkpt>
      <trkpt lat="47.5181" lon="-2.37858">
        <ele>43.3</ele>
        <time>2020-06-06T09:30:36Z</time>
      </trkpt>
      <trkpt lat="47.51815" lon="-2.37864">
        <ele>43.3</ele>
        <time>2020-06-06T09:30:37Z</time>
      </trkpt>
      <trkpt lat="47.51819" lon="-2.3787">
        <ele>43.3</ele>
        <time>2020-06-06T09:30:38Z</time>
      </trkpt>
      <trkpt lat="47.51824" lon="-2.37875">
        <ele>43.3</ele>
        <time>2020-06-06T09:30:39Z</time>
      </trkpt>
      <trkpt lat="47.51828" lon="-2.37882">
        <ele>43.3</ele>
        <time>2020-06-06T09:30:40Z</time>
      </trkpt>
      <trkpt lat="47.51832" lon="-2.37888">
        <ele>43.3</ele>
        <time>2020-06-06T09:30:41Z</time>
      </trkpt>
      <trkpt lat="47.51836" lon="-2.37894">
        <ele>43.3</ele>
        <time>2020-06-06T09:30:42Z</time>
      </trkpt>
      <trkpt lat="47.51841" lon="-2.37899">
        <ele>43.4</ele>
        <time>2020-06-06T09:30:43Z</time>
      </trkpt>
      <trkpt lat="47.51846" lon="-2.37905">
        <ele>43.4</ele>
        <time>2020-06-06T09:30:44Z</time>
      </trkpt>
      <trkpt lat="47.5185" lon="-2.37911">
        <ele>43.5</ele>
        <time>2020-06-06T09:30:45Z</time>
      </trkpt>
      <trkpt lat="47.51855" lon="-2.37916">
        <ele>43.5</ele>
        <time>2020-06-06T09:30:46Z</time>
      </trkpt>
      <trkpt lat="47.51859" lon="-2.37921">
        <ele>43.6</ele>
        <time>2020-06-06T09:30:47Z</time>
      </trkpt>
      <trkpt lat="47.51864" lon="-2.37927">
        <ele>43.6</ele>
        <time>2020-06-06T09:30:48Z</time>
      </trkpt>
      <trkpt lat="47.51868" lon="-2.37932">
        <ele>43.7</ele>
        <time>2020-06-06T09:30:49Z</time>
      </trkpt>
      <trkpt lat="47.51872" lon="-2.37937">
        <ele>43.8</ele>
        <time>2020-06-06T09:30:50Z</time>
      </trkpt>
      <trkpt lat="47.51876" lon="-2.37942">
        <ele>43.8</ele>
        <time>2020-06-06T09:30:51Z</time>
      </trkpt>
      <trkpt lat="47.5188" lon="-2.37948">
        <ele>43.9</ele>
        <time>2020-06-06T09:30:52Z</time>
      </trkpt>
      <trkpt lat="47.51884" lon="-2.37953">
        <ele>44</ele>
        <time>2020-06-06T09:30:53Z</time>
      </trkpt>
      <trkpt lat="47.51887" lon="-2.37959">
        <ele>44.1</ele>
        <time>2020-06-06T09:30:54Z</time>
      </trkpt>
      <trkpt lat="47.5189" lon="-2.37965">
        <ele>44.1</ele>
        <time>2020-06-06T09:30:55Z</time>
      </trkpt>
      <trkpt lat="47.51894" lon="-2.37972">
        <ele>44.2</ele>
        <time>2020-06-06T09:30:56Z</time>
      </trkpt>
      <trkpt lat="47.51898" lon="-2.37978">
        <ele>44.3</ele>
        <time>2020-06-06T09:30:57Z</time>
      </trkpt>
      <trkpt lat="47.51902" lon="-2.37985">
        <ele>44.4</ele>
        <time>2020-06-06T09:30:58Z</time>
      </trkpt>
      <trkpt lat="47.51906" lon="-2.37992">
        <ele>44.4</ele>
        <time>2020-06-06T09:30:59Z</time>
      </trkpt>
      <trkpt lat="47.5191" lon="-2.37999">
        <ele>44.5</ele>
        <time>2020-06-06T09:31:00Z</time>
      </trkpt>
      <trkpt lat="47.51914" lon="-2.38006">
        <ele>44.6</ele>
        <time>2020-06-06T09:31:01Z</time>
      </trkpt>
      <trkpt lat="47.51917" lon="-2.38013">
        <ele>44.7</ele>
        <time>2020-06-06T09:31:02Z</time>
      </trkpt>
      <trkpt lat="47.51921" lon="-2.3802">
        <ele>44.7</ele>
        <time>2020-06-06T09:31:03Z</time>
      </trkpt>
      <trkpt lat="47.51925" lon="-2.38027">
        <ele>44.8</ele>
        <time>2020-06-06T09:31:04Z</time>
      </trkpt>
      <trkpt lat="47.51928" lon="-2.38034">
        <ele>44.9</ele>
        <time>2020-06-06T09:31:05Z</time>
      </trkpt>
      <trkpt lat="47.51931" lon="-2.38041">
        <ele>45</ele>
        <time>2020-06-06T09:31:06Z</time>
      </trkpt>
      <trkpt lat="47.51935" lon="-2.38048">
        <ele>45</ele>
        <time>2020-06-06T09:31:07Z</time>
      </trkpt>
      <trkpt lat="47.51938" lon="-2.38054">
        <ele>45.1</ele>
        <time>2020-06-06T09:31:08Z</time>
      </trkpt>
      <trkpt lat="47.51941" lon="-2.38061">
        <ele>45.1</ele>
        <time>2020-06-06T09:31:09Z</time>
      </trkpt>
      <trkpt lat="47.51945" lon="-2.38068">
        <ele>45.2</ele>
        <time>2020-06-06T09:31:10Z</time>
      </trkpt>
      <trkpt lat="47.51948" lon="-2.38075">
        <ele>45.3</ele>
        <time>2020-06-06T09:31:11Z</time>
      </trkpt>
      <trkpt lat="47.51952" lon="-2.38082">
        <ele>45.3</ele>
        <time>2020-06-06T09:31:12Z</time>
      </trkpt>
      <trkpt lat="47.51956" lon="-2.3809">
        <ele>45.4</ele>
        <time>2020-06-06T09:31:13Z</time>
      </trkpt>
      <trkpt lat="47.5196" lon="-2.38097">
        <ele>45.5</ele>
        <time>2020-06-06T09:31:14Z</time>
      </trkpt>
      <trkpt lat="47.51963" lon="-2.38104">
        <ele>45.6</ele>
        <time>2020-06-06T09:31:15Z</time>
      </trkpt>
      <trkpt lat="47.51967" lon="-2.38111">
        <ele>45.6</ele>
        <time>2020-06-06T09:31:16Z</time>
      </trkpt>
      <trkpt lat="47.51971" lon="-2.38118">
        <ele>45.7</ele>
        <time>2020-06-06T09:31:17Z</time>
      </trkpt>
      <trkpt lat="47.51974" lon="-2.38126">
        <ele>45.8</ele>
        <time>2020-06-06T09:31:18Z</time>
      </trkpt>
      <trkpt lat="47.51978" lon="-2.38134">
        <ele>45.9</ele>
        <time>2020-06-06T09:31:19Z</time>
      </trkpt>
      <trkpt lat="47.51982" lon="-2.38142">
        <ele>46.1</ele>
        <time>2020-06-06T09:31:20Z</time>
      </trkpt>
      <trkpt lat="47.51985" lon="-2.3815">
        <ele>46.2</ele>
        <time>2020-06-06T09:31:21Z</time>
      </trkpt>
      <trkpt lat="47.51989" lon="-2.38156">
        <ele>46.3</ele>
        <time>2020-06-06T09:31:22Z</time>
      </trkpt>
      <trkpt lat="47.51992" lon="-2.38163">
        <ele>46.4</ele>
        <time>2020-06-06T09:31:23Z</time>
      </trkpt>
      <trkpt lat="47.51995" lon="-2.38169">
        <ele>46.5</ele>
        <time>2020-06-06T09:31:24Z</time>
      </trkpt>
      <trkpt lat="47.51999" lon="-2.38176">
        <ele>46.6</ele>
        <time>2020-06-06T09:31:25Z</time>
      </trkpt>
      <trkpt lat="47.52003" lon="-2.38183">
        <ele>46.7</ele>
        <time>2020-06-06T09:31:26Z</time>
      </trkpt>
      <trkpt lat="47.52006" lon="-2.3819">
        <ele>46.8</ele>
        <time>2020-06-06T09:31:27Z</time>
      </trkpt>
      <trkpt lat="47.52011" lon="-2.38197">
        <ele>47</ele>
        <time>2020-06-06T09:31:28Z</time>
      </trkpt>
      <trkpt lat="47.52013" lon="-2.38202">
        <ele>47.1</ele>
        <time>2020-06-06T09:31:29Z</time>
      </trkpt>
      <trkpt lat="47.52017" lon="-2.38208">
        <ele>47.2</ele>
        <time>2020-06-06T09:31:30Z</time>
      </trkpt>
      <trkpt lat="47.52019" lon="-2.38214">
        <ele>47.3</ele>
        <time>2020-06-06T09:31:31Z</time>
      </trkpt>
      <trkpt lat="47.52022" lon="-2.38221">
        <ele>47.3</ele>
        <time>2020-06-06T09:31:32Z</time>
      </trkpt>
      <trkpt lat="47.52024" lon="-2.38227">
        <ele>47.4</ele>
        <time>2020-06-06T09:31:33Z</time>
      </trkpt>
      <trkpt lat="47.52028" lon="-2.38233">
        <ele>47.5</ele>
        <time>2020-06-06T09:31:34Z</time>
      </trkpt>
      <trkpt lat="47.52031" lon="-2.3824">
        <ele>47.6</ele>
        <time>2020-06-06T09:31:35Z</time>
      </trkpt>
      <trkpt lat="47.52035" lon="-2.38247">
        <ele>47.7</ele>
        <time>2020-06-06T09:31:36Z</time>
      </trkpt>
      <trkpt lat="47.52037" lon="-2.38253">
        <ele>47.7</ele>
        <time>2020-06-06T09:31:37Z</time>
      </trkpt>
      <trkpt lat="47.5204" lon="-2.3826">
        <ele>47.8</ele>
        <time>2020-06-06T09:31:38Z</time>
      </trkpt>
      <trkpt lat="47.52043" lon="-2.38265">
        <ele>47.8</ele>
        <time>2020-06-06T09:31:39Z</time>
      </trkpt>
      <trkpt lat="47.52046" lon="-2.38272">
        <ele>47.9</ele>
        <time>2020-06-06T09:31:40Z</time>
      </trkpt>
      <trkpt lat="47.52049" lon="-2.3828">
        <ele>48</ele>
        <time>2020-06-06T09:31:41Z</time>
      </trkpt>
      <trkpt lat="47.52052" lon="-2.38287">
        <ele>48.1</ele>
        <time>2020-06-06T09:31:42Z</time>
      </trkpt>
      <trkpt lat="47.52055" lon="-2.38294">
        <ele>48.2</ele>
        <time>2020-06-06T09:31:43Z</time>
      </trkpt>
      <trkpt lat="47.52058" lon="-2.383">
        <ele>48.2</ele>
        <time>2020-06-06T09:31:44Z</time>
      </trkpt>
      <trkpt lat="47.5206" lon="-2.38306">
        <ele>48.2</ele>
        <time>2020-06-06T09:31:45Z</time>
      </trkpt>
      <trkpt lat="47.52064" lon="-2.38313">
        <ele>48.3</ele>
        <time>2020-06-06T09:31:46Z</time>
      </trkpt>
      <trkpt lat="47.52067" lon="-2.3832">
        <ele>48.3</ele>
        <time>2020-06-06T09:31:47Z</time>
      </trkpt>
      <trkpt lat="47.5207" lon="-2.38327">
        <ele>48.4</ele>
        <time>2020-06-06T09:31:48Z</time>
      </trkpt>
      <trkpt lat="47.52074" lon="-2.38334">
        <ele>48.4</ele>
        <time>2020-06-06T09:31:49Z</time>
      </trkpt>
      <trkpt lat="47.52078" lon="-2.38342">
        <ele>48.4</ele>
        <time>2020-06-06T09:31:50Z</time>
      </trkpt>
      <trkpt lat="47.52081" lon="-2.38349">
        <ele>48.5</ele>
        <time>2020-06-06T09:31:51Z</time>
      </trkpt>
      <trkpt lat="47.52085" lon="-2.38356">
        <ele>48.5</ele>
        <time>2020-06-06T09:31:52Z</time>
      </trkpt>
      <trkpt lat="47.52088" lon="-2.38363">
        <ele>48.5</ele>
        <time>2020-06-06T09:31:53Z</time>
      </trkpt>
      <trkpt lat="47.52092" lon="-2.38371">
        <ele>48.5</ele>
        <time>2020-06-06T09:31:54Z</time>
      </trkpt>
      <trkpt lat="47.52095" lon="-2.38379">
        <ele>48.6</ele>
        <time>2020-06-06T09:31:55Z</time>
      </trkpt>
      <trkpt lat="47.52098" lon="-2.38386">
        <ele>48.6</ele>
        <time>2020-06-06T09:31:56Z</time>
      </trkpt>
      <trkpt lat="47.52101" lon="-2.38393">
        <ele>48.6</ele>
        <time>2020-06-06T09:31:57Z</time>
      </trkpt>
      <trkpt lat="47.52104" lon="-2.38401">
        <ele>48.6</ele>
        <time>2020-06-06T09:31:58Z</time>
      </trkpt>
      <trkpt lat="47.52108" lon="-2.38409">
        <ele>48.5</ele>
        <time>2020-06-06T09:31:59Z</time>
      </trkpt>
      <trkpt lat="47.52112" lon="-2.38416">
        <ele>48.5</ele>
        <time>2020-06-06T09:32:00Z</time>
      </trkpt>
      <trkpt lat="47.52115" lon="-2.38424">
        <ele>48.5</ele>
        <time>2020-06-06T09:32:01Z</time>
      </trkpt>
      <trkpt lat="47.52119" lon="-2.38431">
        <ele>48.5</ele>
        <time>2020-06-06T09:32:02Z</time>
      </trkpt>
      <trkpt lat="47.52122" lon="-2.38438">
        <ele>48.5</ele>
        <time>2020-06-06T09:32:03Z</time>
      </trkpt>
      <trkpt lat="47.52125" lon="-2.38445">
        <ele>48.4</ele>
        <time>2020-06-06T09:32:04Z</time>
      </trkpt>
      <trkpt lat="47.52128" lon="-2.38452">
        <ele>48.4</ele>
        <time>2020-06-06T09:32:05Z</time>
      </trkpt>
      <trkpt lat="47.52131" lon="-2.38461">
        <ele>48.4</ele>
        <time>2020-06-06T09:32:06Z</time>
      </trkpt>
      <trkpt lat="47.52134" lon="-2.38468">
        <ele>48.4</ele>
        <time>2020-06-06T09:32:07Z</time>
      </trkpt>
      <trkpt lat="47.52137" lon="-2.38476">
        <ele>48.4</ele>
        <time>2020-06-06T09:32:08Z</time>
      </trkpt>
      <trkpt lat="47.5214" lon="-2.38485">
        <ele>48.4</ele>
        <time>2020-06-06T09:32:09Z</time>
      </trkpt>
      <trkpt lat="47.52144" lon="-2.38493">
        <ele>48.4</ele>
        <time>2020-06-06T09:32:10Z</time>
      </trkpt>
      <trkpt lat="47.52147" lon="-2.385">
        <ele>48.4</ele>
        <time>2020-06-06T09:32:11Z</time>
      </trkpt>
      <trkpt lat="47.5215" lon="-2.38506">
        <ele>48.4</ele>
        <time>2020-06-06T09:32:12Z</time>
      </trkpt>
      <trkpt lat="47.52153" lon="-2.38513">
        <ele>48.4</ele>
        <time>2020-06-06T09:32:13Z</time>
      </trkpt>
      <trkpt lat="47.52156" lon="-2.38519">
        <ele>48.3</ele>
        <time>2020-06-06T09:32:14Z</time>
      </trkpt>
      <trkpt lat="47.5216" lon="-2.38528">
        <ele>48.3</ele>
        <time>2020-06-06T09:32:15Z</time>
      </trkpt>
      <trkpt lat="47.52164" lon="-2.38537">
        <ele>48.2</ele>
        <time>2020-06-06T09:32:16Z</time>
      </trkpt>
      <trkpt lat="47.52168" lon="-2.38544">
        <ele>48.2</ele>
        <time>2020-06-06T09:32:17Z</time>
      </trkpt>
      <trkpt lat="47.52171" lon="-2.38552">
        <ele>48.2</ele>
        <time>2020-06-06T09:32:18Z</time>
      </trkpt>
      <trkpt lat="47.52175" lon="-2.3856">
        <ele>48.1</ele>
        <time>2020-06-06T09:32:19Z</time>
      </trkpt>
      <trkpt lat="47.52178" lon="-2.38567">
        <ele>48</ele>
        <time>2020-06-06T09:32:20Z</time>
      </trkpt>
      <trkpt lat="47.52182" lon="-2.38576">
        <ele>47.9</ele>
        <time>2020-06-06T09:32:21Z</time>
      </trkpt>
      <trkpt lat="47.52187" lon="-2.38584">
        <ele>47.8</ele>
        <time>2020-06-06T09:32:22Z</time>
      </trkpt>
      <trkpt lat="47.52191" lon="-2.38591">
        <ele>47.7</ele>
        <time>2020-06-06T09:32:23Z</time>
      </trkpt>
      <trkpt lat="47.52195" lon="-2.38599">
        <ele>47.6</ele>
        <time>2020-06-06T09:32:24Z</time>
      </trkpt>
      <trkpt lat="47.52199" lon="-2.38606">
        <ele>47.5</ele>
        <time>2020-06-06T09:32:25Z</time>
      </trkpt>
      <trkpt lat="47.52203" lon="-2.38613">
        <ele>47.5</ele>
        <time>2020-06-06T09:32:26Z</time>
      </trkpt>
      <trkpt lat="47.52208" lon="-2.3862">
        <ele>47.4</ele>
        <time>2020-06-06T09:32:27Z</time>
      </trkpt>
      <trkpt lat="47.52213" lon="-2.38628">
        <ele>47.4</ele>
        <time>2020-06-06T09:32:28Z</time>
      </trkpt>
      <trkpt lat="47.52217" lon="-2.38635">
        <ele>47.3</ele>
        <time>2020-06-06T09:32:29Z</time>
      </trkpt>
      <trkpt lat="47.52221" lon="-2.38641">
        <ele>47.3</ele>
        <time>2020-06-06T09:32:30Z</time>
      </trkpt>
      <trkpt lat="47.52225" lon="-2.38648">
        <ele>47.2</ele>
        <time>2020-06-06T09:32:31Z</time>
      </trkpt>
      <trkpt lat="47.5223" lon="-2.38655">
        <ele>47.1</ele>
        <time>2020-06-06T09:32:32Z</time>
      </trkpt>
      <trkpt lat="47.52234" lon="-2.38662">
        <ele>47.1</ele>
        <time>2020-06-06T09:32:33Z</time>
      </trkpt>
      <trkpt lat="47.52238" lon="-2.38668">
        <ele>47</ele>
        <time>2020-06-06T09:32:34Z</time>
      </trkpt>
      <trkpt lat="47.52243" lon="-2.38675">
        <ele>47</ele>
        <time>2020-06-06T09:32:35Z</time>
      </trkpt>
      <trkpt lat="47.52247" lon="-2.38681">
        <ele>47</ele>
        <time>2020-06-06T09:32:36Z</time>
      </trkpt>
      <trkpt lat="47.52251" lon="-2.38687">
        <ele>46.9</ele>
        <time>2020-06-06T09:32:37Z</time>
      </trkpt>
      <trkpt lat="47.52255" lon="-2.38693">
        <ele>46.9</ele>
        <time>2020-06-06T09:32:38Z</time>
      </trkpt>
      <trkpt lat="47.52259" lon="-2.387">
        <ele>46.8</ele>
        <time>2020-06-06T09:32:39Z</time>
      </trkpt>
      <trkpt lat="47.52263" lon="-2.38707">
        <ele>46.8</ele>
        <time>2020-06-06T09:32:40Z</time>
      </trkpt>
      <trkpt lat="47.52268" lon="-2.38714">
        <ele>46.7</ele>
        <time>2020-06-06T09:32:41Z</time>
      </trkpt>
      <trkpt lat="47.52272" lon="-2.38721">
        <ele>46.7</ele>
        <time>2020-06-06T09:32:42Z</time>
      </trkpt>
      <trkpt lat="47.52276" lon="-2.38728">
        <ele>46.7</ele>
        <time>2020-06-06T09:32:43Z</time>
      </trkpt>
      <trkpt lat="47.5228" lon="-2.38736">
        <ele>46.7</ele>
        <time>2020-06-06T09:32:44Z</time>
      </trkpt>
      <trkpt lat="47.52284" lon="-2.38743">
        <ele>46.7</ele>
        <time>2020-06-06T09:32:45Z</time>
      </trkpt>
      <trkpt lat="47.52289" lon="-2.3875">
        <ele>46.7</ele>
        <time>2020-06-06T09:32:46Z</time>
      </trkpt>
      <trkpt lat="47.52293" lon="-2.38757">
        <ele>46.7</ele>
        <time>2020-06-06T09:32:47Z</time>
      </trkpt>
      <trkpt lat="47.52297" lon="-2.38763">
        <ele>46.7</ele>
        <time>2020-06-06T09:32:48Z</time>
      </trkpt>
      <trkpt lat="47.52302" lon="-2.3877">
        <ele>46.7</ele>
        <time>2020-06-06T09:32:49Z</time>
      </trkpt>
      <trkpt lat="47.52305" lon="-2.38776">
        <ele>46.7</ele>
        <time>2020-06-06T09:32:50Z</time>
      </trkpt>
      <trkpt lat="47.52309" lon="-2.38782">
        <ele>46.7</ele>
        <time>2020-06-06T09:32:51Z</time>
      </trkpt>
      <trkpt lat="47.52313" lon="-2.38787">
        <ele>46.8</ele>
        <time>2020-06-06T09:32:52Z</time>
      </trkpt>
      <trkpt lat="47.52318" lon="-2.38794">
        <ele>46.8</ele>
        <time>2020-06-06T09:32:53Z</time>
      </trkpt>
      <trkpt lat="47.52322" lon="-2.38801">
        <ele>46.8</ele>
        <time>2020-06-06T09:32:54Z</time>
      </trkpt>
      <trkpt lat="47.52326" lon="-2.38808">
        <ele>46.7</ele>
        <time>2020-06-06T09:32:55Z</time>
      </trkpt>
      <trkpt lat="47.5233" lon="-2.38815">
        <ele>46.7</ele>
        <time>2020-06-06T09:32:56Z</time>
      </trkpt>
      <trkpt lat="47.52333" lon="-2.38822">
        <ele>46.7</ele>
        <time>2020-06-06T09:32:57Z</time>
      </trkpt>
      <trkpt lat="47.52335" lon="-2.38829">
        <ele>46.7</ele>
        <time>2020-06-06T09:32:58Z</time>
      </trkpt>
      <trkpt lat="47.52338" lon="-2.38837">
        <ele>46.7</ele>
        <time>2020-06-06T09:32:59Z</time>
      </trkpt>
      <trkpt lat="47.52341" lon="-2.38845">
        <ele>46.7</ele>
        <time>2020-06-06T09:33:00Z</time>
      </trkpt>
      <trkpt lat="47.52344" lon="-2.38853">
        <ele>46.6</ele>
        <time>2020-06-06T09:33:01Z</time>
      </trkpt>
      <trkpt lat="47.52346" lon="-2.38861">
        <ele>46.6</ele>
        <time>2020-06-06T09:33:02Z</time>
      </trkpt>
      <trkpt lat="47.52349" lon="-2.38868">
        <ele>46.6</ele>
        <time>2020-06-06T09:33:03Z</time>
      </trkpt>
      <trkpt lat="47.52352" lon="-2.38876">
        <ele>46.6</ele>
        <time>2020-06-06T09:33:04Z</time>
      </trkpt>
      <trkpt lat="47.52355" lon="-2.38883">
        <ele>46.6</ele>
        <time>2020-06-06T09:33:05Z</time>
      </trkpt>
      <trkpt lat="47.52357" lon="-2.38891">
        <ele>46.6</ele>
        <time>2020-06-06T09:33:06Z</time>
      </trkpt>
      <trkpt lat="47.5236" lon="-2.38898">
        <ele>46.5</ele>
        <time>2020-06-06T09:33:07Z</time>
      </trkpt>
      <trkpt lat="47.52363" lon="-2.38905">
        <ele>46.5</ele>
        <time>2020-06-06T09:33:08Z</time>
      </trkpt>
      <trkpt lat="47.52366" lon="-2.38912">
        <ele>46.5</ele>
        <time>2020-06-06T09:33:09Z</time>
      </trkpt>
      <trkpt lat="47.5237" lon="-2.3892">
        <ele>46.5</ele>
        <time>2020-06-06T09:33:10Z</time>
      </trkpt>
      <trkpt lat="47.52374" lon="-2.38927">
        <ele>46.5</ele>
        <time>2020-06-06T09:33:11Z</time>
      </trkpt>
      <trkpt lat="47.52378" lon="-2.38934">
        <ele>46.5</ele>
        <time>2020-06-06T09:33:12Z</time>
      </trkpt>
      <trkpt lat="47.52381" lon="-2.38942">
        <ele>46.4</ele>
        <time>2020-06-06T09:33:13Z</time>
      </trkpt>
      <trkpt lat="47.52385" lon="-2.38948">
        <ele>46.4</ele>
        <time>2020-06-06T09:33:14Z</time>
      </trkpt>
      <trkpt lat="47.5239" lon="-2.38956">
        <ele>46.4</ele>
        <time>2020-06-06T09:33:15Z</time>
      </trkpt>
      <trkpt lat="47.52395" lon="-2.38963">
        <ele>46.4</ele>
        <time>2020-06-06T09:33:16Z</time>
      </trkpt>
      <trkpt lat="47.52399" lon="-2.3897">
        <ele>46.4</ele>
        <time>2020-06-06T09:33:17Z</time>
      </trkpt>
      <trkpt lat="47.52403" lon="-2.38976">
        <ele>46.5</ele>
        <time>2020-06-06T09:33:18Z</time>
      </trkpt>
      <trkpt lat="47.52406" lon="-2.38983">
        <ele>46.5</ele>
        <time>2020-06-06T09:33:19Z</time>
      </trkpt>
      <trkpt lat="47.5241" lon="-2.38991">
        <ele>46.5</ele>
        <time>2020-06-06T09:33:20Z</time>
      </trkpt>
      <trkpt lat="47.52414" lon="-2.38997">
        <ele>46.5</ele>
        <time>2020-06-06T09:33:21Z</time>
      </trkpt>
      <trkpt lat="47.52418" lon="-2.39004">
        <ele>46.5</ele>
        <time>2020-06-06T09:33:22Z</time>
      </trkpt>
      <trkpt lat="47.52421" lon="-2.39011">
        <ele>46.6</ele>
        <time>2020-06-06T09:33:23Z</time>
      </trkpt>
      <trkpt lat="47.52425" lon="-2.39017">
        <ele>46.6</ele>
        <time>2020-06-06T09:33:24Z</time>
      </trkpt>
      <trkpt lat="47.52427" lon="-2.39023">
        <ele>46.6</ele>
        <time>2020-06-06T09:33:25Z</time>
      </trkpt>
      <trkpt lat="47.52431" lon="-2.3903">
        <ele>46.6</ele>
        <time>2020-06-06T09:33:26Z</time>
      </trkpt>
      <trkpt lat="47.52435" lon="-2.39037">
        <ele>46.7</ele>
        <time>2020-06-06T09:33:27Z</time>
      </trkpt>
      <trkpt lat="47.52439" lon="-2.39044">
        <ele>46.7</ele>
        <time>2020-06-06T09:33:28Z</time>
      </trkpt>
      <trkpt lat="47.52443" lon="-2.39049">
        <ele>46.8</ele>
        <time>2020-06-06T09:33:29Z</time>
      </trkpt>
      <trkpt lat="47.52446" lon="-2.39055">
        <ele>46.8</ele>
        <time>2020-06-06T09:33:30Z</time>
      </trkpt>
      <trkpt lat="47.52449" lon="-2.3906">
        <ele>46.8</ele>
        <time>2020-06-06T09:33:31Z</time>
      </trkpt>
      <trkpt lat="47.52452" lon="-2.39067">
        <ele>46.9</ele>
        <time>2020-06-06T09:33:32Z</time>
      </trkpt>
      <trkpt lat="47.52455" lon="-2.39072">
        <ele>46.9</ele>
        <time>2020-06-06T09:33:33Z</time>
      </trkpt>
      <trkpt lat="47.52457" lon="-2.39078">
        <ele>46.9</ele>
        <time>2020-06-06T09:33:34Z</time>
      </trkpt>
      <trkpt lat="47.52461" lon="-2.39085">
        <ele>47</ele>
        <time>2020-06-06T09:33:35Z</time>
      </trkpt>
      <trkpt lat="47.52464" lon="-2.39092">
        <ele>47</ele>
        <time>2020-06-06T09:33:36Z</time>
      </trkpt>
      <trkpt lat="47.5247" lon="-2.39101">
        <ele>47</ele>
        <time>2020-06-06T09:33:37Z</time>
      </trkpt>
      <trkpt lat="47.52474" lon="-2.39108">
        <ele>47.1</ele>
        <time>2020-06-06T09:33:38Z</time>
      </trkpt>
      <trkpt lat="47.52478" lon="-2.39117">
        <ele>47.2</ele>
        <time>2020-06-06T09:33:39Z</time>
      </trkpt>
      <trkpt lat="47.52481" lon="-2.39124">
        <ele>47.4</ele>
        <time>2020-06-06T09:33:40Z</time>
      </trkpt>
      <trkpt lat="47.52484" lon="-2.3913">
        <ele>47.3</ele>
        <time>2020-06-06T09:33:41Z</time>
      </trkpt>
      <trkpt lat="47.52487" lon="-2.39136">
        <ele>47.3</ele>
        <time>2020-06-06T09:33:42Z</time>
      </trkpt>
      <trkpt lat="47.5249" lon="-2.39142">
        <ele>47.3</ele>
        <time>2020-06-06T09:33:43Z</time>
      </trkpt>
      <trkpt lat="47.52493" lon="-2.39148">
        <ele>47.3</ele>
        <time>2020-06-06T09:33:44Z</time>
      </trkpt>
      <trkpt lat="47.52496" lon="-2.39154">
        <ele>47.2</ele>
        <time>2020-06-06T09:33:45Z</time>
      </trkpt>
      <trkpt lat="47.525" lon="-2.39161">
        <ele>47.2</ele>
        <time>2020-06-06T09:33:46Z</time>
      </trkpt>
      <trkpt lat="47.52503" lon="-2.39168">
        <ele>47.2</ele>
        <time>2020-06-06T09:33:47Z</time>
      </trkpt>
      <trkpt lat="47.52507" lon="-2.39175">
        <ele>47.1</ele>
        <time>2020-06-06T09:33:48Z</time>
      </trkpt>
      <trkpt lat="47.52509" lon="-2.39182">
        <ele>47</ele>
        <time>2020-06-06T09:33:49Z</time>
      </trkpt>
      <trkpt lat="47.52513" lon="-2.3919">
        <ele>47</ele>
        <time>2020-06-06T09:33:50Z</time>
      </trkpt>
      <trkpt lat="47.52517" lon="-2.39198">
        <ele>46.9</ele>
        <time>2020-06-06T09:33:51Z</time>
      </trkpt>
      <trkpt lat="47.5252" lon="-2.39205">
        <ele>46.9</ele>
        <time>2020-06-06T09:33:52Z</time>
      </trkpt>
      <trkpt lat="47.52524" lon="-2.39211">
        <ele>46.8</ele>
        <time>2020-06-06T09:33:53Z</time>
      </trkpt>
      <trkpt lat="47.52526" lon="-2.39217">
        <ele>46.8</ele>
        <time>2020-06-06T09:33:54Z</time>
      </trkpt>
      <trkpt lat="47.52529" lon="-2.39223">
        <ele>46.8</ele>
        <time>2020-06-06T09:33:55Z</time>
      </trkpt>
      <trkpt lat="47.52533" lon="-2.39231">
        <ele>46.7</ele>
        <time>2020-06-06T09:33:56Z</time>
      </trkpt>
      <trkpt lat="47.52537" lon="-2.39238">
        <ele>46.7</ele>
        <time>2020-06-06T09:33:57Z</time>
      </trkpt>
      <trkpt lat="47.52541" lon="-2.39246">
        <ele>46.6</ele>
        <time>2020-06-06T09:33:58Z</time>
      </trkpt>
      <trkpt lat="47.52544" lon="-2.39253">
        <ele>46.6</ele>
        <time>2020-06-06T09:33:59Z</time>
      </trkpt>
      <trkpt lat="47.52548" lon="-2.3926">
        <ele>46.6</ele>
        <time>2020-06-06T09:34:00Z</time>
      </trkpt>
      <trkpt lat="47.52551" lon="-2.39267">
        <ele>46.5</ele>
        <time>2020-06-06T09:34:01Z</time>
      </trkpt>
      <trkpt lat="47.52554" lon="-2.39273">
        <ele>46.5</ele>
        <time>2020-06-06T09:34:02Z</time>
      </trkpt>
      <trkpt lat="47.52558" lon="-2.39279">
        <ele>46.4</ele>
        <time>2020-06-06T09:34:03Z</time>
      </trkpt>
      <trkpt lat="47.52561" lon="-2.39286">
        <ele>46.4</ele>
        <time>2020-06-06T09:34:04Z</time>
      </trkpt>
      <trkpt lat="47.52565" lon="-2.39294">
        <ele>46.3</ele>
        <time>2020-06-06T09:34:05Z</time>
      </trkpt>
      <trkpt lat="47.52569" lon="-2.393">
        <ele>46.3</ele>
        <time>2020-06-06T09:34:06Z</time>
      </trkpt>
      <trkpt lat="47.52572" lon="-2.39306">
        <ele>46.3</ele>
        <time>2020-06-06T09:34:07Z</time>
      </trkpt>
      <trkpt lat="47.52575" lon="-2.39313">
        <ele>46.3</ele>
        <time>2020-06-06T09:34:08Z</time>
      </trkpt>
      <trkpt lat="47.52578" lon="-2.39317">
        <ele>46.3</ele>
        <time>2020-06-06T09:34:09Z</time>
      </trkpt>
      <trkpt lat="47.5258" lon="-2.39324">
        <ele>46.3</ele>
        <time>2020-06-06T09:34:10Z</time>
      </trkpt>
      <trkpt lat="47.52584" lon="-2.3933">
        <ele>46.2</ele>
        <time>2020-06-06T09:34:11Z</time>
      </trkpt>
      <trkpt lat="47.52587" lon="-2.39337">
        <ele>46.2</ele>
        <time>2020-06-06T09:34:12Z</time>
      </trkpt>
      <trkpt lat="47.5259" lon="-2.39342">
        <ele>46.2</ele>
        <time>2020-06-06T09:34:13Z</time>
      </trkpt>
      <trkpt lat="47.52593" lon="-2.39349">
        <ele>46.1</ele>
        <time>2020-06-06T09:34:14Z</time>
      </trkpt>
      <trkpt lat="47.52598" lon="-2.39356">
        <ele>46.1</ele>
        <time>2020-06-06T09:34:15Z</time>
      </trkpt>
      <trkpt lat="47.52602" lon="-2.39363">
        <ele>46</ele>
        <time>2020-06-06T09:34:16Z</time>
      </trkpt>
      <trkpt lat="47.52606" lon="-2.3937">
        <ele>46</ele>
        <time>2020-06-06T09:34:17Z</time>
      </trkpt>
      <trkpt lat="47.52609" lon="-2.39376">
        <ele>46</ele>
        <time>2020-06-06T09:34:18Z</time>
      </trkpt>
      <trkpt lat="47.52613" lon="-2.39383">
        <ele>45.9</ele>
        <time>2020-06-06T09:34:19Z</time>
      </trkpt>
      <trkpt lat="47.52617" lon="-2.3939">
        <ele>45.8</ele>
        <time>2020-06-06T09:34:20Z</time>
      </trkpt>
      <trkpt lat="47.52621" lon="-2.39398">
        <ele>45.8</ele>
        <time>2020-06-06T09:34:21Z</time>
      </trkpt>
      <trkpt lat="47.52625" lon="-2.39405">
        <ele>45.7</ele>
        <time>2020-06-06T09:34:22Z</time>
      </trkpt>
      <trkpt lat="47.52629" lon="-2.39412">
        <ele>45.6</ele>
        <time>2020-06-06T09:34:23Z</time>
      </trkpt>
      <trkpt lat="47.52633" lon="-2.39419">
        <ele>45.6</ele>
        <time>2020-06-06T09:34:24Z</time>
      </trkpt>
      <trkpt lat="47.52637" lon="-2.39427">
        <ele>45.5</ele>
        <time>2020-06-06T09:34:25Z</time>
      </trkpt>
      <trkpt lat="47.5264" lon="-2.39434">
        <ele>45.4</ele>
        <time>2020-06-06T09:34:26Z</time>
      </trkpt>
      <trkpt lat="47.52644" lon="-2.39442">
        <ele>45.3</ele>
        <time>2020-06-06T09:34:27Z</time>
      </trkpt>
      <trkpt lat="47.52648" lon="-2.39449">
        <ele>45.2</ele>
        <time>2020-06-06T09:34:28Z</time>
      </trkpt>
      <trkpt lat="47.52652" lon="-2.39456">
        <ele>45.1</ele>
        <time>2020-06-06T09:34:29Z</time>
      </trkpt>
      <trkpt lat="47.52656" lon="-2.39463">
        <ele>45</ele>
        <time>2020-06-06T09:34:30Z</time>
      </trkpt>
      <trkpt lat="47.5266" lon="-2.39471">
        <ele>44.9</ele>
        <time>2020-06-06T09:34:31Z</time>
      </trkpt>
      <trkpt lat="47.52664" lon="-2.39478">
        <ele>44.8</ele>
        <time>2020-06-06T09:34:32Z</time>
      </trkpt>
      <trkpt lat="47.52668" lon="-2.39485">
        <ele>44.7</ele>
        <time>2020-06-06T09:34:33Z</time>
      </trkpt>
      <trkpt lat="47.52672" lon="-2.39492">
        <ele>44.6</ele>
        <time>2020-06-06T09:34:34Z</time>
      </trkpt>
      <trkpt lat="47.52676" lon="-2.395">
        <ele>44.5</ele>
        <time>2020-06-06T09:34:35Z</time>
      </trkpt>
      <trkpt lat="47.52679" lon="-2.39507">
        <ele>44.4</ele>
        <time>2020-06-06T09:34:36Z</time>
      </trkpt>
      <trkpt lat="47.52683" lon="-2.39513">
        <ele>44.3</ele>
        <time>2020-06-06T09:34:37Z</time>
      </trkpt>
      <trkpt lat="47.52687" lon="-2.39521">
        <ele>44.1</ele>
        <time>2020-06-06T09:34:38Z</time>
      </trkpt>
      <trkpt lat="47.52691" lon="-2.39528">
        <ele>43.9</ele>
        <time>2020-06-06T09:34:39Z</time>
      </trkpt>
      <trkpt lat="47.52696" lon="-2.39537">
        <ele>43.8</ele>
        <time>2020-06-06T09:34:40Z</time>
      </trkpt>
      <trkpt lat="47.52699" lon="-2.39545">
        <ele>43.7</ele>
        <time>2020-06-06T09:34:41Z</time>
      </trkpt>
      <trkpt lat="47.52703" lon="-2.39554">
        <ele>43.6</ele>
        <time>2020-06-06T09:34:42Z</time>
      </trkpt>
      <trkpt lat="47.52707" lon="-2.39563">
        <ele>43.5</ele>
        <time>2020-06-06T09:34:43Z</time>
      </trkpt>
      <trkpt lat="47.52711" lon="-2.39572">
        <ele>43.4</ele>
        <time>2020-06-06T09:34:44Z</time>
      </trkpt>
      <trkpt lat="47.52714" lon="-2.39581">
        <ele>43.3</ele>
        <time>2020-06-06T09:34:45Z</time>
      </trkpt>
      <trkpt lat="47.52717" lon="-2.39591">
        <ele>43.2</ele>
        <time>2020-06-06T09:34:46Z</time>
      </trkpt>
      <trkpt lat="47.52722" lon="-2.39602">
        <ele>43.1</ele>
        <time>2020-06-06T09:34:47Z</time>
      </trkpt>
      <trkpt lat="47.52724" lon="-2.39612">
        <ele>43</ele>
        <time>2020-06-06T09:34:48Z</time>
      </trkpt>
      <trkpt lat="47.52727" lon="-2.39622">
        <ele>42.9</ele>
        <time>2020-06-06T09:34:49Z</time>
      </trkpt>
      <trkpt lat="47.52729" lon="-2.39632">
        <ele>42.9</ele>
        <time>2020-06-06T09:34:50Z</time>
      </trkpt>
      <trkpt lat="47.52731" lon="-2.39642">
        <ele>42.9</ele>
        <time>2020-06-06T09:34:51Z</time>
      </trkpt>
      <trkpt lat="47.52734" lon="-2.39652">
        <ele>42.9</ele>
        <time>2020-06-06T09:34:52Z</time>
      </trkpt>
      <trkpt lat="47.52736" lon="-2.39661">
        <ele>42.9</ele>
        <time>2020-06-06T09:34:53Z</time>
      </trkpt>
      <trkpt lat="47.52738" lon="-2.39671">
        <ele>42.9</ele>
        <time>2020-06-06T09:34:54Z</time>
      </trkpt>
      <trkpt lat="47.5274" lon="-2.39681">
        <ele>43</ele>
        <time>2020-06-06T09:34:55Z</time>
      </trkpt>
      <trkpt lat="47.52744" lon="-2.3969">
        <ele>43</ele>
        <time>2020-06-06T09:34:56Z</time>
      </trkpt>
      <trkpt lat="47.52747" lon="-2.39698">
        <ele>43.1</ele>
        <time>2020-06-06T09:34:57Z</time>
      </trkpt>
      <trkpt lat="47.52751" lon="-2.39707">
        <ele>43.2</ele>
        <time>2020-06-06T09:34:58Z</time>
      </trkpt>
      <trkpt lat="47.52755" lon="-2.39715">
        <ele>43.4</ele>
        <time>2020-06-06T09:34:59Z</time>
      </trkpt>
      <trkpt lat="47.52758" lon="-2.39723">
        <ele>43.5</ele>
        <time>2020-06-06T09:35:00Z</time>
      </trkpt>
      <trkpt lat="47.52762" lon="-2.39731">
        <ele>43.6</ele>
        <time>2020-06-06T09:35:01Z</time>
      </trkpt>
      <trkpt lat="47.52766" lon="-2.3974">
        <ele>43.8</ele>
        <time>2020-06-06T09:35:02Z</time>
      </trkpt>
      <trkpt lat="47.5277" lon="-2.39749">
        <ele>44</ele>
        <time>2020-06-06T09:35:03Z</time>
      </trkpt>
      <trkpt lat="47.52772" lon="-2.39758">
        <ele>44.2</ele>
        <time>2020-06-06T09:35:04Z</time>
      </trkpt>
      <trkpt lat="47.52775" lon="-2.39767">
        <ele>44.3</ele>
        <time>2020-06-06T09:35:05Z</time>
      </trkpt>
      <trkpt lat="47.52776" lon="-2.39777">
        <ele>44.5</ele>
        <time>2020-06-06T09:35:06Z</time>
      </trkpt>
      <trkpt lat="47.52777" lon="-2.39787">
        <ele>44.6</ele>
        <time>2020-06-06T09:35:07Z</time>
      </trkpt>
      <trkpt lat="47.52778" lon="-2.39798">
        <ele>44.7</ele>
        <time>2020-06-06T09:35:08Z</time>
      </trkpt>
      <trkpt lat="47.52778" lon="-2.39809">
        <ele>44.8</ele>
        <time>2020-06-06T09:35:09Z</time>
      </trkpt>
      <trkpt lat="47.52779" lon="-2.3982">
        <ele>44.9</ele>
        <time>2020-06-06T09:35:10Z</time>
      </trkpt>
      <trkpt lat="47.5278" lon="-2.39831">
        <ele>45</ele>
        <time>2020-06-06T09:35:11Z</time>
      </trkpt>
      <trkpt lat="47.5278" lon="-2.39842">
        <ele>45</ele>
        <time>2020-06-06T09:35:12Z</time>
      </trkpt>
      <trkpt lat="47.5278" lon="-2.39854">
        <ele>45.1</ele>
        <time>2020-06-06T09:35:13Z</time>
      </trkpt>
      <trkpt lat="47.52779" lon="-2.39865">
        <ele>45.1</ele>
        <time>2020-06-06T09:35:14Z</time>
      </trkpt>
      <trkpt lat="47.52779" lon="-2.39877">
        <ele>45.1</ele>
        <time>2020-06-06T09:35:15Z</time>
      </trkpt>
      <trkpt lat="47.52781" lon="-2.39888">
        <ele>45.2</ele>
        <time>2020-06-06T09:35:16Z</time>
      </trkpt>
      <trkpt lat="47.52782" lon="-2.39899">
        <ele>45.2</ele>
        <time>2020-06-06T09:35:17Z</time>
      </trkpt>
      <trkpt lat="47.52784" lon="-2.3991">
        <ele>45.2</ele>
        <time>2020-06-06T09:35:18Z</time>
      </trkpt>
      <trkpt lat="47.52785" lon="-2.3992">
        <ele>45.3</ele>
        <time>2020-06-06T09:35:19Z</time>
      </trkpt>
      <trkpt lat="47.52787" lon="-2.3993">
        <ele>45.3</ele>
        <time>2020-06-06T09:35:20Z</time>
      </trkpt>
      <trkpt lat="47.52788" lon="-2.3994">
        <ele>45.3</ele>
        <time>2020-06-06T09:35:21Z</time>
      </trkpt>
      <trkpt lat="47.5279" lon="-2.39948">
        <ele>45.2</ele>
        <time>2020-06-06T09:35:22Z</time>
      </trkpt>
      <trkpt lat="47.52792" lon="-2.39956">
        <ele>45.2</ele>
        <time>2020-06-06T09:35:23Z</time>
      </trkpt>
      <trkpt lat="47.52794" lon="-2.39964">
        <ele>45.1</ele>
        <time>2020-06-06T09:35:24Z</time>
      </trkpt>
      <trkpt lat="47.52797" lon="-2.39971">
        <ele>45.1</ele>
        <time>2020-06-06T09:35:25Z</time>
      </trkpt>
      <trkpt lat="47.52799" lon="-2.39978">
        <ele>45.1</ele>
        <time>2020-06-06T09:35:26Z</time>
      </trkpt>
      <trkpt lat="47.52801" lon="-2.39984">
        <ele>45.1</ele>
        <time>2020-06-06T09:35:27Z</time>
      </trkpt>
      <trkpt lat="47.52803" lon="-2.39991">
        <ele>45.2</ele>
        <time>2020-06-06T09:35:28Z</time>
      </trkpt>
      <trkpt lat="47.52806" lon="-2.39997">
        <ele>45.2</ele>
        <time>2020-06-06T09:35:29Z</time>
      </trkpt>
      <trkpt lat="47.52809" lon="-2.40003">
        <ele>45.2</ele>
        <time>2020-06-06T09:35:30Z</time>
      </trkpt>
      <trkpt lat="47.52812" lon="-2.40009">
        <ele>45.3</ele>
        <time>2020-06-06T09:35:31Z</time>
      </trkpt>
      <trkpt lat="47.52815" lon="-2.40015">
        <ele>45.3</ele>
        <time>2020-06-06T09:35:32Z</time>
      </trkpt>
      <trkpt lat="47.52817" lon="-2.40022">
        <ele>45.4</ele>
        <time>2020-06-06T09:35:33Z</time>
      </trkpt>
      <trkpt lat="47.52817" lon="-2.40028">
        <ele>45.4</ele>
        <time>2020-06-06T09:35:34Z</time>
      </trkpt>
      <trkpt lat="47.52819" lon="-2.40035">
        <ele>45.5</ele>
        <time>2020-06-06T09:35:35Z</time>
      </trkpt>
      <trkpt lat="47.52821" lon="-2.40041">
        <ele>45.5</ele>
        <time>2020-06-06T09:35:36Z</time>
      </trkpt>
      <trkpt lat="47.52822" lon="-2.40047">
        <ele>45.6</ele>
        <time>2020-06-06T09:35:37Z</time>
      </trkpt>
      <trkpt lat="47.52825" lon="-2.40052">
        <ele>45.6</ele>
        <time>2020-06-06T09:35:38Z</time>
      </trkpt>
      <trkpt lat="47.52827" lon="-2.40058">
        <ele>45.7</ele>
        <time>2020-06-06T09:35:39Z</time>
      </trkpt>
      <trkpt lat="47.5283" lon="-2.40063">
        <ele>45.7</ele>
        <time>2020-06-06T09:35:40Z</time>
      </trkpt>
      <trkpt lat="47.52833" lon="-2.40069">
        <ele>45.7</ele>
        <time>2020-06-06T09:35:41Z</time>
      </trkpt>
      <trkpt lat="47.52836" lon="-2.40076">
        <ele>45.7</ele>
        <time>2020-06-06T09:35:42Z</time>
      </trkpt>
      <trkpt lat="47.52838" lon="-2.40082">
        <ele>45.7</ele>
        <time>2020-06-06T09:35:43Z</time>
      </trkpt>
      <trkpt lat="47.5284" lon="-2.40088">
        <ele>45.7</ele>
        <time>2020-06-06T09:35:44Z</time>
      </trkpt>
      <trkpt lat="47.52842" lon="-2.40095">
        <ele>45.7</ele>
        <time>2020-06-06T09:35:45Z</time>
      </trkpt>
      <trkpt lat="47.52845" lon="-2.40101">
        <ele>45.6</ele>
        <time>2020-06-06T09:35:46Z</time>
      </trkpt>
      <trkpt lat="47.52848" lon="-2.40108">
        <ele>45.6</ele>
        <time>2020-06-06T09:35:47Z</time>
      </trkpt>
      <trkpt lat="47.52851" lon="-2.40114">
        <ele>45.5</ele>
        <time>2020-06-06T09:35:48Z</time>
      </trkpt>
      <trkpt lat="47.52854" lon="-2.40122">
        <ele>45.4</ele>
        <time>2020-06-06T09:35:49Z</time>
      </trkpt>
      <trkpt lat="47.52856" lon="-2.4013">
        <ele>45.3</ele>
        <time>2020-06-06T09:35:50Z</time>
      </trkpt>
      <trkpt lat="47.52858" lon="-2.40138">
        <ele>45.2</ele>
        <time>2020-06-06T09:35:51Z</time>
      </trkpt>
      <trkpt lat="47.5286" lon="-2.40145">
        <ele>45.1</ele>
        <time>2020-06-06T09:35:52Z</time>
      </trkpt>
      <trkpt lat="47.52862" lon="-2.40153">
        <ele>45</ele>
        <time>2020-06-06T09:35:53Z</time>
      </trkpt>
      <trkpt lat="47.52865" lon="-2.40161">
        <ele>44.8</ele>
        <time>2020-06-06T09:35:54Z</time>
      </trkpt>
      <trkpt lat="47.52867" lon="-2.40169">
        <ele>44.7</ele>
        <time>2020-06-06T09:35:55Z</time>
      </trkpt>
      <trkpt lat="47.5287" lon="-2.40177">
        <ele>44.5</ele>
        <time>2020-06-06T09:35:56Z</time>
      </trkpt>
      <trkpt lat="47.52873" lon="-2.40184">
        <ele>44.4</ele>
        <time>2020-06-06T09:35:57Z</time>
      </trkpt>
      <trkpt lat="47.52875" lon="-2.40192">
        <ele>44.2</ele>
        <time>2020-06-06T09:35:58Z</time>
      </trkpt>
      <trkpt lat="47.52878" lon="-2.402">
        <ele>44.1</ele>
        <time>2020-06-06T09:35:59Z</time>
      </trkpt>
      <trkpt lat="47.52881" lon="-2.40207">
        <ele>43.9</ele>
        <time>2020-06-06T09:36:00Z</time>
      </trkpt>
      <trkpt lat="47.52883" lon="-2.40216">
        <ele>43.7</ele>
        <time>2020-06-06T09:36:01Z</time>
      </trkpt>
      <trkpt lat="47.52886" lon="-2.40223">
        <ele>43.5</ele>
        <time>2020-06-06T09:36:02Z</time>
      </trkpt>
      <trkpt lat="47.52889" lon="-2.40231">
        <ele>43.2</ele>
        <time>2020-06-06T09:36:03Z</time>
      </trkpt>
      <trkpt lat="47.52892" lon="-2.4024">
        <ele>42.9</ele>
        <time>2020-06-06T09:36:04Z</time>
      </trkpt>
      <trkpt lat="47.52895" lon="-2.40248">
        <ele>42.7</ele>
        <time>2020-06-06T09:36:05Z</time>
      </trkpt>
      <trkpt lat="47.52898" lon="-2.40256">
        <ele>42.4</ele>
        <time>2020-06-06T09:36:06Z</time>
      </trkpt>
      <trkpt lat="47.52902" lon="-2.40263">
        <ele>42.1</ele>
        <time>2020-06-06T09:36:07Z</time>
      </trkpt>
      <trkpt lat="47.52905" lon="-2.40271">
        <ele>41.9</ele>
        <time>2020-06-06T09:36:08Z</time>
      </trkpt>
      <trkpt lat="47.52909" lon="-2.40278">
        <ele>41.7</ele>
        <time>2020-06-06T09:36:09Z</time>
      </trkpt>
      <trkpt lat="47.52912" lon="-2.40286">
        <ele>41.4</ele>
        <time>2020-06-06T09:36:10Z</time>
      </trkpt>
      <trkpt lat="47.52916" lon="-2.40293">
        <ele>41.1</ele>
        <time>2020-06-06T09:36:11Z</time>
      </trkpt>
      <trkpt lat="47.5292" lon="-2.403">
        <ele>40.8</ele>
        <time>2020-06-06T09:36:12Z</time>
      </trkpt>
      <trkpt lat="47.52925" lon="-2.40307">
        <ele>40.5</ele>
        <time>2020-06-06T09:36:13Z</time>
      </trkpt>
      <trkpt lat="47.52931" lon="-2.40313">
        <ele>40.2</ele>
        <time>2020-06-06T09:36:14Z</time>
      </trkpt>
      <trkpt lat="47.52936" lon="-2.4032">
        <ele>39.9</ele>
        <time>2020-06-06T09:36:15Z</time>
      </trkpt>
      <trkpt lat="47.52942" lon="-2.40328">
        <ele>39.7</ele>
        <time>2020-06-06T09:36:16Z</time>
      </trkpt>
      <trkpt lat="47.52948" lon="-2.40336">
        <ele>39.5</ele>
        <time>2020-06-06T09:36:17Z</time>
      </trkpt>
      <trkpt lat="47.52955" lon="-2.40342">
        <ele>39.3</ele>
        <time>2020-06-06T09:36:18Z</time>
      </trkpt>
      <trkpt lat="47.52962" lon="-2.4035">
        <ele>39.2</ele>
        <time>2020-06-06T09:36:19Z</time>
      </trkpt>
      <trkpt lat="47.52968" lon="-2.40358">
        <ele>39.2</ele>
        <time>2020-06-06T09:36:20Z</time>
      </trkpt>
      <trkpt lat="47.52975" lon="-2.40366">
        <ele>39.2</ele>
        <time>2020-06-06T09:36:21Z</time>
      </trkpt>
      <trkpt lat="47.52981" lon="-2.40374">
        <ele>39.2</ele>
        <time>2020-06-06T09:36:22Z</time>
      </trkpt>
      <trkpt lat="47.52987" lon="-2.40382">
        <ele>39.3</ele>
        <time>2020-06-06T09:36:23Z</time>
      </trkpt>
      <trkpt lat="47.52992" lon="-2.40389">
        <ele>39.4</ele>
        <time>2020-06-06T09:36:24Z</time>
      </trkpt>
      <trkpt lat="47.52998" lon="-2.40397">
        <ele>39.5</ele>
        <time>2020-06-06T09:36:25Z</time>
      </trkpt>
      <trkpt lat="47.53004" lon="-2.40404">
        <ele>39.7</ele>
        <time>2020-06-06T09:36:26Z</time>
      </trkpt>
      <trkpt lat="47.53009" lon="-2.40411">
        <ele>39.9</ele>
        <time>2020-06-06T09:36:27Z</time>
      </trkpt>
      <trkpt lat="47.53015" lon="-2.40417">
        <ele>40.2</ele>
        <time>2020-06-06T09:36:28Z</time>
      </trkpt>
      <trkpt lat="47.53021" lon="-2.40422">
        <ele>40.5</ele>
        <time>2020-06-06T09:36:29Z</time>
      </trkpt>
      <trkpt lat="47.53026" lon="-2.40428">
        <ele>40.8</ele>
        <time>2020-06-06T09:36:30Z</time>
      </trkpt>
      <trkpt lat="47.53031" lon="-2.40433">
        <ele>41.1</ele>
        <time>2020-06-06T09:36:31Z</time>
      </trkpt>
      <trkpt lat="47.53037" lon="-2.40439">
        <ele>41.5</ele>
        <time>2020-06-06T09:36:32Z</time>
      </trkpt>
      <trkpt lat="47.53042" lon="-2.40443">
        <ele>41.9</ele>
        <time>2020-06-06T09:36:33Z</time>
      </trkpt>
      <trkpt lat="47.53048" lon="-2.40447">
        <ele>42.3</ele>
        <time>2020-06-06T09:36:34Z</time>
      </trkpt>
      <trkpt lat="47.53053" lon="-2.40452">
        <ele>42.7</ele>
        <time>2020-06-06T09:36:35Z</time>
      </trkpt>
      <trkpt lat="47.53058" lon="-2.40456">
        <ele>43</ele>
        <time>2020-06-06T09:36:36Z</time>
      </trkpt>
      <trkpt lat="47.53063" lon="-2.40461">
        <ele>43.3</ele>
        <time>2020-06-06T09:36:37Z</time>
      </trkpt>
      <trkpt lat="47.53067" lon="-2.40465">
        <ele>43.7</ele>
        <time>2020-06-06T09:36:38Z</time>
      </trkpt>
      <trkpt lat="47.53072" lon="-2.40469">
        <ele>43.9</ele>
        <time>2020-06-06T09:36:39Z</time>
      </trkpt>
      <trkpt lat="47.53077" lon="-2.40473">
        <ele>44.2</ele>
        <time>2020-06-06T09:36:40Z</time>
      </trkpt>
      <trkpt lat="47.53082" lon="-2.40477">
        <ele>44.5</ele>
        <time>2020-06-06T09:36:41Z</time>
      </trkpt>
      <trkpt lat="47.53087" lon="-2.40481">
        <ele>44.7</ele>
        <time>2020-06-06T09:36:42Z</time>
      </trkpt>
      <trkpt lat="47.53092" lon="-2.40485">
        <ele>45</ele>
        <time>2020-06-06T09:36:43Z</time>
      </trkpt>
      <trkpt lat="47.53097" lon="-2.4049">
        <ele>45.2</ele>
        <time>2020-06-06T09:36:44Z</time>
      </trkpt>
      <trkpt lat="47.53101" lon="-2.40495">
        <ele>45.4</ele>
        <time>2020-06-06T09:36:45Z</time>
      </trkpt>
      <trkpt lat="47.53106" lon="-2.40501">
        <ele>45.6</ele>
        <time>2020-06-06T09:36:46Z</time>
      </trkpt>
      <trkpt lat="47.53111" lon="-2.40507">
        <ele>45.9</ele>
        <time>2020-06-06T09:36:47Z</time>
      </trkpt>
      <trkpt lat="47.53116" lon="-2.40513">
        <ele>46.1</ele>
        <time>2020-06-06T09:36:48Z</time>
      </trkpt>
      <trkpt lat="47.53121" lon="-2.40518">
        <ele>46.3</ele>
        <time>2020-06-06T09:36:49Z</time>
      </trkpt>
      <trkpt lat="47.53126" lon="-2.40524">
        <ele>46.5</ele>
        <time>2020-06-06T09:36:50Z</time>
      </trkpt>
      <trkpt lat="47.5313" lon="-2.4053">
        <ele>46.7</ele>
        <time>2020-06-06T09:36:51Z</time>
      </trkpt>
      <trkpt lat="47.53135" lon="-2.40534">
        <ele>46.8</ele>
        <time>2020-06-06T09:36:52Z</time>
      </trkpt>
      <trkpt lat="47.53139" lon="-2.40538">
        <ele>46.9</ele>
        <time>2020-06-06T09:36:53Z</time>
      </trkpt>
      <trkpt lat="47.53143" lon="-2.40542">
        <ele>47</ele>
        <time>2020-06-06T09:36:54Z</time>
      </trkpt>
      <trkpt lat="47.53147" lon="-2.40545">
        <ele>47</ele>
        <time>2020-06-06T09:36:55Z</time>
      </trkpt>
      <trkpt lat="47.53151" lon="-2.40543">
        <ele>46.9</ele>
        <time>2020-06-06T09:36:56Z</time>
      </trkpt>
      <trkpt lat="47.53156" lon="-2.40538">
        <ele>46.9</ele>
        <time>2020-06-06T09:36:57Z</time>
      </trkpt>
      <trkpt lat="47.53157" lon="-2.4053">
        <ele>46.9</ele>
        <time>2020-06-06T09:36:58Z</time>
      </trkpt>
      <trkpt lat="47.53159" lon="-2.40524">
        <ele>46.9</ele>
        <time>2020-06-06T09:36:59Z</time>
      </trkpt>
      <trkpt lat="47.53161" lon="-2.40517">
        <ele>46.9</ele>
        <time>2020-06-06T09:37:00Z</time>
      </trkpt>
      <trkpt lat="47.53162" lon="-2.4051">
        <ele>46.9</ele>
        <time>2020-06-06T09:37:01Z</time>
      </trkpt>
      <trkpt lat="47.53164" lon="-2.40504">
        <ele>46.9</ele>
        <time>2020-06-06T09:37:02Z</time>
      </trkpt>
      <trkpt lat="47.53165" lon="-2.40495">
        <ele>46.8</ele>
        <time>2020-06-06T09:37:03Z</time>
      </trkpt>
      <trkpt lat="47.53168" lon="-2.40488">
        <ele>46.8</ele>
        <time>2020-06-06T09:37:04Z</time>
      </trkpt>
      <trkpt lat="47.5317" lon="-2.40483">
        <ele>46.8</ele>
        <time>2020-06-06T09:37:05Z</time>
      </trkpt>
      <trkpt lat="47.53174" lon="-2.40478">
        <ele>46.7</ele>
        <time>2020-06-06T09:37:06Z</time>
      </trkpt>
      <trkpt lat="47.53177" lon="-2.40478">
        <ele>46.7</ele>
        <time>2020-06-06T09:37:07Z</time>
      </trkpt>
      <trkpt lat="47.5318" lon="-2.40478">
        <ele>46.7</ele>
        <time>2020-06-06T09:37:08Z</time>
      </trkpt>
      <trkpt lat="47.53185" lon="-2.40478">
        <ele>46.6</ele>
        <time>2020-06-06T09:37:09Z</time>
      </trkpt>
      <trkpt lat="47.53191" lon="-2.4048">
        <ele>46.6</ele>
        <time>2020-06-06T09:37:10Z</time>
      </trkpt>
      <trkpt lat="47.53196" lon="-2.40481">
        <ele>46.5</ele>
        <time>2020-06-06T09:37:11Z</time>
      </trkpt>
      <trkpt lat="47.53201" lon="-2.40482">
        <ele>46.5</ele>
        <time>2020-06-06T09:37:12Z</time>
      </trkpt>
      <trkpt lat="47.53205" lon="-2.40484">
        <ele>46.6</ele>
        <time>2020-06-06T09:37:13Z</time>
      </trkpt>
      <trkpt lat="47.53211" lon="-2.40487">
        <ele>46.6</ele>
        <time>2020-06-06T09:37:14Z</time>
      </trkpt>
      <trkpt lat="47.53216" lon="-2.4049">
        <ele>46.7</ele>
        <time>2020-06-06T09:37:15Z</time>
      </trkpt>
      <trkpt lat="47.53221" lon="-2.40493">
        <ele>46.7</ele>
        <time>2020-06-06T09:37:16Z</time>
      </trkpt>
      <trkpt lat="47.53226" lon="-2.40497">
        <ele>46.8</ele>
        <time>2020-06-06T09:37:17Z</time>
      </trkpt>
      <trkpt lat="47.5323" lon="-2.40501">
        <ele>46.8</ele>
        <time>2020-06-06T09:37:18Z</time>
      </trkpt>
      <trkpt lat="47.53234" lon="-2.40504">
        <ele>46.8</ele>
        <time>2020-06-06T09:37:19Z</time>
      </trkpt>
      <trkpt lat="47.53237" lon="-2.40507">
        <ele>46.8</ele>
        <time>2020-06-06T09:37:20Z</time>
      </trkpt>
      <trkpt lat="47.53241" lon="-2.40511">
        <ele>46.9</ele>
        <time>2020-06-06T09:37:21Z</time>
      </trkpt>
      <trkpt lat="47.53246" lon="-2.40514">
        <ele>47</ele>
        <time>2020-06-06T09:37:22Z</time>
      </trkpt>
      <trkpt lat="47.53251" lon="-2.40518">
        <ele>47.1</ele>
        <time>2020-06-06T09:37:23Z</time>
      </trkpt>
      <trkpt lat="47.53255" lon="-2.40522">
        <ele>47.2</ele>
        <time>2020-06-06T09:37:24Z</time>
      </trkpt>
      <trkpt lat="47.5326" lon="-2.40524">
        <ele>47.4</ele>
        <time>2020-06-06T09:37:25Z</time>
      </trkpt>
      <trkpt lat="47.53264" lon="-2.40526">
        <ele>47.5</ele>
        <time>2020-06-06T09:37:26Z</time>
      </trkpt>
      <trkpt lat="47.53267" lon="-2.40529">
        <ele>47.6</ele>
        <time>2020-06-06T09:37:27Z</time>
      </trkpt>
      <trkpt lat="47.5327" lon="-2.40532">
        <ele>47.7</ele>
        <time>2020-06-06T09:37:28Z</time>
      </trkpt>
      <trkpt lat="47.53274" lon="-2.40534">
        <ele>47.7</ele>
        <time>2020-06-06T09:37:29Z</time>
      </trkpt>
      <trkpt lat="47.53278" lon="-2.40537">
        <ele>47.8</ele>
        <time>2020-06-06T09:37:30Z</time>
      </trkpt>
      <trkpt lat="47.53282" lon="-2.40539">
        <ele>47.9</ele>
        <time>2020-06-06T09:37:31Z</time>
      </trkpt>
      <trkpt lat="47.53286" lon="-2.40542">
        <ele>48</ele>
        <time>2020-06-06T09:37:32Z</time>
      </trkpt>
      <trkpt lat="47.5329" lon="-2.40545">
        <ele>48.1</ele>
        <time>2020-06-06T09:37:33Z</time>
      </trkpt>
      <trkpt lat="47.53295" lon="-2.40548">
        <ele>48.1</ele>
        <time>2020-06-06T09:37:34Z</time>
      </trkpt>
      <trkpt lat="47.53298" lon="-2.40551">
        <ele>48.2</ele>
        <time>2020-06-06T09:37:35Z</time>
      </trkpt>
      <trkpt lat="47.53302" lon="-2.40554">
        <ele>48.3</ele>
        <time>2020-06-06T09:37:36Z</time>
      </trkpt>
      <trkpt lat="47.53306" lon="-2.40556">
        <ele>48.4</ele>
        <time>2020-06-06T09:37:37Z</time>
      </trkpt>
      <trkpt lat="47.53311" lon="-2.40559">
        <ele>48.5</ele>
        <time>2020-06-06T09:37:38Z</time>
      </trkpt>
      <trkpt lat="47.53317" lon="-2.40561">
        <ele>48.6</ele>
        <time>2020-06-06T09:37:39Z</time>
      </trkpt>
      <trkpt lat="47.53321" lon="-2.40564">
        <ele>48.7</ele>
        <time>2020-06-06T09:37:40Z</time>
      </trkpt>
      <trkpt lat="47.53326" lon="-2.40568">
        <ele>48.9</ele>
        <time>2020-06-06T09:37:41Z</time>
      </trkpt>
      <trkpt lat="47.5333" lon="-2.40571">
        <ele>49</ele>
        <time>2020-06-06T09:37:42Z</time>
      </trkpt>
      <trkpt lat="47.53334" lon="-2.40574">
        <ele>49.1</ele>
        <time>2020-06-06T09:37:43Z</time>
      </trkpt>
      <trkpt lat="47.53339" lon="-2.40577">
        <ele>49.2</ele>
        <time>2020-06-06T09:37:44Z</time>
      </trkpt>
      <trkpt lat="47.53343" lon="-2.4058">
        <ele>49.3</ele>
        <time>2020-06-06T09:37:45Z</time>
      </trkpt>
      <trkpt lat="47.53347" lon="-2.40584">
        <ele>49.4</ele>
        <time>2020-06-06T09:37:46Z</time>
      </trkpt>
      <trkpt lat="47.5335" lon="-2.40587">
        <ele>49.5</ele>
        <time>2020-06-06T09:37:47Z</time>
      </trkpt>
      <trkpt lat="47.53354" lon="-2.4059">
        <ele>49.6</ele>
        <time>2020-06-06T09:37:48Z</time>
      </trkpt>
      <trkpt lat="47.53359" lon="-2.40594">
        <ele>49.7</ele>
        <time>2020-06-06T09:37:49Z</time>
      </trkpt>
      <trkpt lat="47.53363" lon="-2.40598">
        <ele>49.9</ele>
        <time>2020-06-06T09:37:50Z</time>
      </trkpt>
      <trkpt lat="47.53366" lon="-2.40601">
        <ele>50</ele>
        <time>2020-06-06T09:37:51Z</time>
      </trkpt>
      <trkpt lat="47.53369" lon="-2.40604">
        <ele>50.1</ele>
        <time>2020-06-06T09:37:52Z</time>
      </trkpt>
      <trkpt lat="47.53373" lon="-2.40607">
        <ele>50.3</ele>
        <time>2020-06-06T09:37:53Z</time>
      </trkpt>
      <trkpt lat="47.53377" lon="-2.40609">
        <ele>50.5</ele>
        <time>2020-06-06T09:37:54Z</time>
      </trkpt>
      <trkpt lat="47.53381" lon="-2.40612">
        <ele>50.6</ele>
        <time>2020-06-06T09:37:55Z</time>
      </trkpt>
      <trkpt lat="47.53385" lon="-2.40614">
        <ele>50.7</ele>
        <time>2020-06-06T09:37:56Z</time>
      </trkpt>
      <trkpt lat="47.53389" lon="-2.40617">
        <ele>50.9</ele>
        <time>2020-06-06T09:37:57Z</time>
      </trkpt>
      <trkpt lat="47.53393" lon="-2.4062">
        <ele>51</ele>
        <time>2020-06-06T09:37:58Z</time>
      </trkpt>
      <trkpt lat="47.53397" lon="-2.40623">
        <ele>51.2</ele>
        <time>2020-06-06T09:37:59Z</time>
      </trkpt>
      <trkpt lat="47.53401" lon="-2.40627">
        <ele>51.3</ele>
        <time>2020-06-06T09:38:00Z</time>
      </trkpt>
      <trkpt lat="47.53405" lon="-2.40632">
        <ele>51.5</ele>
        <time>2020-06-06T09:38:01Z</time>
      </trkpt>
      <trkpt lat="47.53408" lon="-2.40638">
        <ele>51.6</ele>
        <time>2020-06-06T09:38:02Z</time>
      </trkpt>
      <trkpt lat="47.5341" lon="-2.40643">
        <ele>51.8</ele>
        <time>2020-06-06T09:38:03Z</time>
      </trkpt>
      <trkpt lat="47.53412" lon="-2.40649">
        <ele>51.9</ele>
        <time>2020-06-06T09:38:04Z</time>
      </trkpt>
      <trkpt lat="47.53413" lon="-2.40654">
        <ele>52</ele>
        <time>2020-06-06T09:38:05Z</time>
      </trkpt>
      <trkpt lat="47.53416" lon="-2.4066">
        <ele>52.1</ele>
        <time>2020-06-06T09:38:06Z</time>
      </trkpt>
      <trkpt lat="47.53418" lon="-2.40666">
        <ele>52.2</ele>
        <time>2020-06-06T09:38:07Z</time>
      </trkpt>
      <trkpt lat="47.5342" lon="-2.40671">
        <ele>52.3</ele>
        <time>2020-06-06T09:38:08Z</time>
      </trkpt>
      <trkpt lat="47.53422" lon="-2.40676">
        <ele>52.5</ele>
        <time>2020-06-06T09:38:09Z</time>
      </trkpt>
      <trkpt lat="47.53425" lon="-2.40681">
        <ele>52.6</ele>
        <time>2020-06-06T09:38:10Z</time>
      </trkpt>
      <trkpt lat="47.53428" lon="-2.40688">
        <ele>52.8</ele>
        <time>2020-06-06T09:38:11Z</time>
      </trkpt>
      <trkpt lat="47.5343" lon="-2.40694">
        <ele>52.9</ele>
        <time>2020-06-06T09:38:12Z</time>
      </trkpt>
      <trkpt lat="47.53433" lon="-2.407">
        <ele>53</ele>
        <time>2020-06-06T09:38:13Z</time>
      </trkpt>
      <trkpt lat="47.53436" lon="-2.40705">
        <ele>53.1</ele>
        <time>2020-06-06T09:38:14Z</time>
      </trkpt>
      <trkpt lat="47.53438" lon="-2.40709">
        <ele>53.2</ele>
        <time>2020-06-06T09:38:15Z</time>
      </trkpt>
      <trkpt lat="47.5344" lon="-2.40713">
        <ele>53.2</ele>
        <time>2020-06-06T09:38:16Z</time>
      </trkpt>
      <trkpt lat="47.53441" lon="-2.40718">
        <ele>53.3</ele>
        <time>2020-06-06T09:38:17Z</time>
      </trkpt>
      <trkpt lat="47.53442" lon="-2.4072">
        <ele>53.4</ele>
        <time>2020-06-06T09:38:18Z</time>
      </trkpt>
      <trkpt lat="47.53445" lon="-2.40726">
        <ele>53.5</ele>
        <time>2020-06-06T09:38:19Z</time>
      </trkpt>
      <trkpt lat="47.53446" lon="-2.4073">
        <ele>53.6</ele>
        <time>2020-06-06T09:38:20Z</time>
      </trkpt>
      <trkpt lat="47.53448" lon="-2.40735">
        <ele>53.7</ele>
        <time>2020-06-06T09:38:21Z</time>
      </trkpt>
      <trkpt lat="47.53451" lon="-2.40741">
        <ele>53.8</ele>
        <time>2020-06-06T09:38:22Z</time>
      </trkpt>
      <trkpt lat="47.53452" lon="-2.40743">
        <ele>53.8</ele>
        <time>2020-06-06T09:38:23Z</time>
      </trkpt>
      <trkpt lat="47.53455" lon="-2.40748">
        <ele>53.9</ele>
        <time>2020-06-06T09:38:24Z</time>
      </trkpt>
      <trkpt lat="47.53457" lon="-2.40753">
        <ele>54</ele>
        <time>2020-06-06T09:38:25Z</time>
      </trkpt>
      <trkpt lat="47.53459" lon="-2.40758">
        <ele>54.1</ele>
        <time>2020-06-06T09:38:26Z</time>
      </trkpt>
      <trkpt lat="47.53462" lon="-2.40764">
        <ele>54.2</ele>
        <time>2020-06-06T09:38:27Z</time>
      </trkpt>
      <trkpt lat="47.53465" lon="-2.40772">
        <ele>54.4</ele>
        <time>2020-06-06T09:38:28Z</time>
      </trkpt>
      <trkpt lat="47.53467" lon="-2.40777">
        <ele>54.5</ele>
        <time>2020-06-06T09:38:29Z</time>
      </trkpt>
      <trkpt lat="47.53469" lon="-2.40782">
        <ele>54.6</ele>
        <time>2020-06-06T09:38:30Z</time>
      </trkpt>
      <trkpt lat="47.53472" lon="-2.40787">
        <ele>54.7</ele>
        <time>2020-06-06T09:38:31Z</time>
      </trkpt>
      <trkpt lat="47.53474" lon="-2.40793">
        <ele>54.8</ele>
        <time>2020-06-06T09:38:32Z</time>
      </trkpt>
      <trkpt lat="47.53477" lon="-2.40799">
        <ele>54.9</ele>
        <time>2020-06-06T09:38:33Z</time>
      </trkpt>
      <trkpt lat="47.53479" lon="-2.40804">
        <ele>55</ele>
        <time>2020-06-06T09:38:34Z</time>
      </trkpt>
      <trkpt lat="47.53481" lon="-2.4081">
        <ele>55.1</ele>
        <time>2020-06-06T09:38:35Z</time>
      </trkpt>
      <trkpt lat="47.53484" lon="-2.40815">
        <ele>55.2</ele>
        <time>2020-06-06T09:38:36Z</time>
      </trkpt>
      <trkpt lat="47.53487" lon="-2.40819">
        <ele>55.2</ele>
        <time>2020-06-06T09:38:37Z</time>
      </trkpt>
      <trkpt lat="47.5349" lon="-2.40822">
        <ele>55.2</ele>
        <time>2020-06-06T09:38:38Z</time>
      </trkpt>
      <trkpt lat="47.53494" lon="-2.40823">
        <ele>55.3</ele>
        <time>2020-06-06T09:38:39Z</time>
      </trkpt>
      <trkpt lat="47.53497" lon="-2.40825">
        <ele>55.3</ele>
        <time>2020-06-06T09:38:40Z</time>
      </trkpt>
      <trkpt lat="47.53501" lon="-2.40828">
        <ele>55.3</ele>
        <time>2020-06-06T09:38:41Z</time>
      </trkpt>
      <trkpt lat="47.53504" lon="-2.40831">
        <ele>55.4</ele>
        <time>2020-06-06T09:38:42Z</time>
      </trkpt>
      <trkpt lat="47.53507" lon="-2.40834">
        <ele>55.4</ele>
        <time>2020-06-06T09:38:43Z</time>
      </trkpt>
      <trkpt lat="47.5351" lon="-2.40837">
        <ele>55.4</ele>
        <time>2020-06-06T09:38:44Z</time>
      </trkpt>
      <trkpt lat="47.53514" lon="-2.4084">
        <ele>55.4</ele>
        <time>2020-06-06T09:38:45Z</time>
      </trkpt>
      <trkpt lat="47.53517" lon="-2.40843">
        <ele>55.5</ele>
        <time>2020-06-06T09:38:46Z</time>
      </trkpt>
      <trkpt lat="47.53521" lon="-2.40846">
        <ele>55.5</ele>
        <time>2020-06-06T09:38:47Z</time>
      </trkpt>
      <trkpt lat="47.53525" lon="-2.40849">
        <ele>55.5</ele>
        <time>2020-06-06T09:38:48Z</time>
      </trkpt>
      <trkpt lat="47.5353" lon="-2.40851">
        <ele>55.5</ele>
        <time>2020-06-06T09:38:49Z</time>
      </trkpt>
      <trkpt lat="47.53534" lon="-2.40853">
        <ele>55.5</ele>
        <time>2020-06-06T09:38:50Z</time>
      </trkpt>
      <trkpt lat="47.53539" lon="-2.40855">
        <ele>55.5</ele>
        <time>2020-06-06T09:38:51Z</time>
      </trkpt>
      <trkpt lat="47.53543" lon="-2.40859">
        <ele>55.4</ele>
        <time>2020-06-06T09:38:52Z</time>
      </trkpt>
      <trkpt lat="47.53548" lon="-2.40862">
        <ele>55.4</ele>
        <time>2020-06-06T09:38:53Z</time>
      </trkpt>
      <trkpt lat="47.53553" lon="-2.40866">
        <ele>55.3</ele>
        <time>2020-06-06T09:38:54Z</time>
      </trkpt>
      <trkpt lat="47.53558" lon="-2.40869">
        <ele>55.2</ele>
        <time>2020-06-06T09:38:55Z</time>
      </trkpt>
      <trkpt lat="47.53563" lon="-2.40872">
        <ele>55.2</ele>
        <time>2020-06-06T09:38:56Z</time>
      </trkpt>
      <trkpt lat="47.53566" lon="-2.40876">
        <ele>55.1</ele>
        <time>2020-06-06T09:38:57Z</time>
      </trkpt>
      <trkpt lat="47.53571" lon="-2.4088">
        <ele>55</ele>
        <time>2020-06-06T09:38:58Z</time>
      </trkpt>
      <trkpt lat="47.53575" lon="-2.40883">
        <ele>54.9</ele>
        <time>2020-06-06T09:38:59Z</time>
      </trkpt>
      <trkpt lat="47.53578" lon="-2.40887">
        <ele>54.8</ele>
        <time>2020-06-06T09:39:00Z</time>
      </trkpt>
      <trkpt lat="47.53583" lon="-2.4089">
        <ele>54.7</ele>
        <time>2020-06-06T09:39:01Z</time>
      </trkpt>
      <trkpt lat="47.53585" lon="-2.40894">
        <ele>54.6</ele>
        <time>2020-06-06T09:39:02Z</time>
      </trkpt>
      <trkpt lat="47.53589" lon="-2.40898">
        <ele>54.5</ele>
        <time>2020-06-06T09:39:03Z</time>
      </trkpt>
      <trkpt lat="47.53593" lon="-2.40903">
        <ele>54.4</ele>
        <time>2020-06-06T09:39:04Z</time>
      </trkpt>
      <trkpt lat="47.53597" lon="-2.40906">
        <ele>54.3</ele>
        <time>2020-06-06T09:39:05Z</time>
      </trkpt>
      <trkpt lat="47.53602" lon="-2.4091">
        <ele>54.1</ele>
        <time>2020-06-06T09:39:06Z</time>
      </trkpt>
      <trkpt lat="47.53607" lon="-2.40913">
        <ele>53.9</ele>
        <time>2020-06-06T09:39:07Z</time>
      </trkpt>
      <trkpt lat="47.53612" lon="-2.40916">
        <ele>53.7</ele>
        <time>2020-06-06T09:39:08Z</time>
      </trkpt>
      <trkpt lat="47.53618" lon="-2.40921">
        <ele>53.5</ele>
        <time>2020-06-06T09:39:09Z</time>
      </trkpt>
      <trkpt lat="47.53626" lon="-2.40926">
        <ele>53.2</ele>
        <time>2020-06-06T09:39:10Z</time>
      </trkpt>
      <trkpt lat="47.53632" lon="-2.40931">
        <ele>53</ele>
        <time>2020-06-06T09:39:11Z</time>
      </trkpt>
      <trkpt lat="47.53638" lon="-2.40935">
        <ele>52.8</ele>
        <time>2020-06-06T09:39:12Z</time>
      </trkpt>
      <trkpt lat="47.53645" lon="-2.40941">
        <ele>52.6</ele>
        <time>2020-06-06T09:39:13Z</time>
      </trkpt>
      <trkpt lat="47.53651" lon="-2.40945">
        <ele>52.4</ele>
        <time>2020-06-06T09:39:14Z</time>
      </trkpt>
      <trkpt lat="47.53657" lon="-2.40951">
        <ele>52.2</ele>
        <time>2020-06-06T09:39:15Z</time>
      </trkpt>
      <trkpt lat="47.53661" lon="-2.40958">
        <ele>52.1</ele>
        <time>2020-06-06T09:39:16Z</time>
      </trkpt>
      <trkpt lat="47.53664" lon="-2.40967">
        <ele>52</ele>
        <time>2020-06-06T09:39:17Z</time>
      </trkpt>
      <trkpt lat="47.53668" lon="-2.40977">
        <ele>51.8</ele>
        <time>2020-06-06T09:39:18Z</time>
      </trkpt>
      <trkpt lat="47.53671" lon="-2.40987">
        <ele>51.7</ele>
        <time>2020-06-06T09:39:19Z</time>
      </trkpt>
      <trkpt lat="47.53673" lon="-2.40997">
        <ele>51.6</ele>
        <time>2020-06-06T09:39:20Z</time>
      </trkpt>
      <trkpt lat="47.53675" lon="-2.41005">
        <ele>51.5</ele>
        <time>2020-06-06T09:39:21Z</time>
      </trkpt>
      <trkpt lat="47.53677" lon="-2.41014">
        <ele>51.5</ele>
        <time>2020-06-06T09:39:22Z</time>
      </trkpt>
      <trkpt lat="47.5368" lon="-2.41023">
        <ele>51.5</ele>
        <time>2020-06-06T09:39:23Z</time>
      </trkpt>
      <trkpt lat="47.53682" lon="-2.41033">
        <ele>51.3</ele>
        <time>2020-06-06T09:39:24Z</time>
      </trkpt>
      <trkpt lat="47.53685" lon="-2.41042">
        <ele>51.2</ele>
        <time>2020-06-06T09:39:25Z</time>
      </trkpt>
      <trkpt lat="47.53688" lon="-2.41052">
        <ele>51.1</ele>
        <time>2020-06-06T09:39:26Z</time>
      </trkpt>
      <trkpt lat="47.5369" lon="-2.41061">
        <ele>51</ele>
        <time>2020-06-06T09:39:27Z</time>
      </trkpt>
      <trkpt lat="47.53693" lon="-2.41071">
        <ele>51</ele>
        <time>2020-06-06T09:39:28Z</time>
      </trkpt>
      <trkpt lat="47.53696" lon="-2.41082">
        <ele>50.9</ele>
        <time>2020-06-06T09:39:29Z</time>
      </trkpt>
      <trkpt lat="47.53698" lon="-2.41092">
        <ele>50.9</ele>
        <time>2020-06-06T09:39:30Z</time>
      </trkpt>
      <trkpt lat="47.537" lon="-2.41102">
        <ele>50.9</ele>
        <time>2020-06-06T09:39:31Z</time>
      </trkpt>
      <trkpt lat="47.53703" lon="-2.41111">
        <ele>50.9</ele>
        <time>2020-06-06T09:39:32Z</time>
      </trkpt>
      <trkpt lat="47.53706" lon="-2.41121">
        <ele>50.9</ele>
        <time>2020-06-06T09:39:33Z</time>
      </trkpt>
      <trkpt lat="47.53708" lon="-2.41132">
        <ele>50.9</ele>
        <time>2020-06-06T09:39:34Z</time>
      </trkpt>
      <trkpt lat="47.53711" lon="-2.41142">
        <ele>50.9</ele>
        <time>2020-06-06T09:39:35Z</time>
      </trkpt>
      <trkpt lat="47.53714" lon="-2.41151">
        <ele>51</ele>
        <time>2020-06-06T09:39:36Z</time>
      </trkpt>
      <trkpt lat="47.53716" lon="-2.41161">
        <ele>51</ele>
        <time>2020-06-06T09:39:37Z</time>
      </trkpt>
      <trkpt lat="47.53719" lon="-2.41171">
        <ele>50.9</ele>
        <time>2020-06-06T09:39:38Z</time>
      </trkpt>
      <trkpt lat="47.53722" lon="-2.41181">
        <ele>50.9</ele>
        <time>2020-06-06T09:39:39Z</time>
      </trkpt>
      <trkpt lat="47.53725" lon="-2.4119">
        <ele>50.8</ele>
        <time>2020-06-06T09:39:40Z</time>
      </trkpt>
      <trkpt lat="47.53728" lon="-2.41199">
        <ele>50.8</ele>
        <time>2020-06-06T09:39:41Z</time>
      </trkpt>
      <trkpt lat="47.53731" lon="-2.41209">
        <ele>50.7</ele>
        <time>2020-06-06T09:39:42Z</time>
      </trkpt>
      <trkpt lat="47.53733" lon="-2.41219">
        <ele>50.6</ele>
        <time>2020-06-06T09:39:43Z</time>
      </trkpt>
      <trkpt lat="47.53737" lon="-2.41228">
        <ele>50.5</ele>
        <time>2020-06-06T09:39:44Z</time>
      </trkpt>
      <trkpt lat="47.53739" lon="-2.41237">
        <ele>50.5</ele>
        <time>2020-06-06T09:39:45Z</time>
      </trkpt>
      <trkpt lat="47.53742" lon="-2.41247">
        <ele>50.5</ele>
        <time>2020-06-06T09:39:46Z</time>
      </trkpt>
      <trkpt lat="47.53745" lon="-2.41256">
        <ele>50.5</ele>
        <time>2020-06-06T09:39:47Z</time>
      </trkpt>
      <trkpt lat="47.53748" lon="-2.41265">
        <ele>50.4</ele>
        <time>2020-06-06T09:39:48Z</time>
      </trkpt>
      <trkpt lat="47.53751" lon="-2.41275">
        <ele>50.4</ele>
        <time>2020-06-06T09:39:49Z</time>
      </trkpt>
      <trkpt lat="47.53754" lon="-2.41284">
        <ele>50.3</ele>
        <time>2020-06-06T09:39:50Z</time>
      </trkpt>
      <trkpt lat="47.53756" lon="-2.41294">
        <ele>50.2</ele>
        <time>2020-06-06T09:39:51Z</time>
      </trkpt>
      <trkpt lat="47.53759" lon="-2.41304">
        <ele>50.2</ele>
        <time>2020-06-06T09:39:52Z</time>
      </trkpt>
      <trkpt lat="47.53762" lon="-2.41313">
        <ele>50.1</ele>
        <time>2020-06-06T09:39:53Z</time>
      </trkpt>
      <trkpt lat="47.53765" lon="-2.41323">
        <ele>50</ele>
        <time>2020-06-06T09:39:54Z</time>
      </trkpt>
      <trkpt lat="47.53768" lon="-2.41333">
        <ele>50</ele>
        <time>2020-06-06T09:39:55Z</time>
      </trkpt>
      <trkpt lat="47.53771" lon="-2.41342">
        <ele>49.9</ele>
        <time>2020-06-06T09:39:56Z</time>
      </trkpt>
      <trkpt lat="47.53774" lon="-2.41352">
        <ele>49.8</ele>
        <time>2020-06-06T09:39:57Z</time>
      </trkpt>
      <trkpt lat="47.53777" lon="-2.41362">
        <ele>49.8</ele>
        <time>2020-06-06T09:39:58Z</time>
      </trkpt>
      <trkpt lat="47.5378" lon="-2.41372">
        <ele>49.7</ele>
        <time>2020-06-06T09:39:59Z</time>
      </trkpt>
      <trkpt lat="47.53782" lon="-2.41382">
        <ele>49.6</ele>
        <time>2020-06-06T09:40:00Z</time>
      </trkpt>
      <trkpt lat="47.53784" lon="-2.41393">
        <ele>49.6</ele>
        <time>2020-06-06T09:40:01Z</time>
      </trkpt>
      <trkpt lat="47.53787" lon="-2.41403">
        <ele>49.5</ele>
        <time>2020-06-06T09:40:02Z</time>
      </trkpt>
      <trkpt lat="47.53789" lon="-2.41414">
        <ele>49.4</ele>
        <time>2020-06-06T09:40:03Z</time>
      </trkpt>
      <trkpt lat="47.53792" lon="-2.41424">
        <ele>49.4</ele>
        <time>2020-06-06T09:40:04Z</time>
      </trkpt>
      <trkpt lat="47.53795" lon="-2.41434">
        <ele>49.3</ele>
        <time>2020-06-06T09:40:05Z</time>
      </trkpt>
      <trkpt lat="47.53798" lon="-2.41444">
        <ele>49.2</ele>
        <time>2020-06-06T09:40:06Z</time>
      </trkpt>
      <trkpt lat="47.53801" lon="-2.41453">
        <ele>49.1</ele>
        <time>2020-06-06T09:40:07Z</time>
      </trkpt>
      <trkpt lat="47.53804" lon="-2.41462">
        <ele>49.1</ele>
        <time>2020-06-06T09:40:08Z</time>
      </trkpt>
      <trkpt lat="47.53806" lon="-2.41471">
        <ele>49</ele>
        <time>2020-06-06T09:40:09Z</time>
      </trkpt>
      <trkpt lat="47.53809" lon="-2.4148">
        <ele>48.9</ele>
        <time>2020-06-06T09:40:10Z</time>
      </trkpt>
      <trkpt lat="47.53812" lon="-2.41489">
        <ele>48.8</ele>
        <time>2020-06-06T09:40:11Z</time>
      </trkpt>
      <trkpt lat="47.53814" lon="-2.41498">
        <ele>48.7</ele>
        <time>2020-06-06T09:40:12Z</time>
      </trkpt>
      <trkpt lat="47.53817" lon="-2.41508">
        <ele>48.7</ele>
        <time>2020-06-06T09:40:13Z</time>
      </trkpt>
      <trkpt lat="47.5382" lon="-2.41517">
        <ele>48.6</ele>
        <time>2020-06-06T09:40:14Z</time>
      </trkpt>
      <trkpt lat="47.53822" lon="-2.41527">
        <ele>48.6</ele>
        <time>2020-06-06T09:40:15Z</time>
      </trkpt>
      <trkpt lat="47.53824" lon="-2.41537">
        <ele>48.5</ele>
        <time>2020-06-06T09:40:16Z</time>
      </trkpt>
      <trkpt lat="47.53827" lon="-2.41546">
        <ele>48.5</ele>
        <time>2020-06-06T09:40:17Z</time>
      </trkpt>
      <trkpt lat="47.5383" lon="-2.41555">
        <ele>48.4</ele>
        <time>2020-06-06T09:40:18Z</time>
      </trkpt>
      <trkpt lat="47.53833" lon="-2.41564">
        <ele>48.3</ele>
        <time>2020-06-06T09:40:19Z</time>
      </trkpt>
      <trkpt lat="47.53835" lon="-2.41574">
        <ele>48.3</ele>
        <time>2020-06-06T09:40:20Z</time>
      </trkpt>
      <trkpt lat="47.53838" lon="-2.41583">
        <ele>48.2</ele>
        <time>2020-06-06T09:40:21Z</time>
      </trkpt>
      <trkpt lat="47.5384" lon="-2.41592">
        <ele>48.2</ele>
        <time>2020-06-06T09:40:22Z</time>
      </trkpt>
      <trkpt lat="47.53843" lon="-2.41601">
        <ele>48.2</ele>
        <time>2020-06-06T09:40:23Z</time>
      </trkpt>
      <trkpt lat="47.53846" lon="-2.4161">
        <ele>48.1</ele>
        <time>2020-06-06T09:40:24Z</time>
      </trkpt>
      <trkpt lat="47.53849" lon="-2.41619">
        <ele>48.1</ele>
        <time>2020-06-06T09:40:25Z</time>
      </trkpt>
      <trkpt lat="47.53851" lon="-2.41628">
        <ele>48</ele>
        <time>2020-06-06T09:40:26Z</time>
      </trkpt>
      <trkpt lat="47.53854" lon="-2.41637">
        <ele>48</ele>
        <time>2020-06-06T09:40:27Z</time>
      </trkpt>
      <trkpt lat="47.53856" lon="-2.41647">
        <ele>48</ele>
        <time>2020-06-06T09:40:28Z</time>
      </trkpt>
      <trkpt lat="47.53859" lon="-2.41656">
        <ele>47.9</ele>
        <time>2020-06-06T09:40:29Z</time>
      </trkpt>
      <trkpt lat="47.53861" lon="-2.41665">
        <ele>47.9</ele>
        <time>2020-06-06T09:40:30Z</time>
      </trkpt>
      <trkpt lat="47.53864" lon="-2.41674">
        <ele>47.9</ele>
        <time>2020-06-06T09:40:31Z</time>
      </trkpt>
      <trkpt lat="47.53867" lon="-2.41683">
        <ele>47.8</ele>
        <time>2020-06-06T09:40:32Z</time>
      </trkpt>
      <trkpt lat="47.5387" lon="-2.41692">
        <ele>47.8</ele>
        <time>2020-06-06T09:40:33Z</time>
      </trkpt>
      <trkpt lat="47.53872" lon="-2.41702">
        <ele>47.7</ele>
        <time>2020-06-06T09:40:34Z</time>
      </trkpt>
      <trkpt lat="47.53875" lon="-2.41711">
        <ele>47.7</ele>
        <time>2020-06-06T09:40:35Z</time>
      </trkpt>
      <trkpt lat="47.53878" lon="-2.4172">
        <ele>47.6</ele>
        <time>2020-06-06T09:40:36Z</time>
      </trkpt>
      <trkpt lat="47.53881" lon="-2.4173">
        <ele>47.5</ele>
        <time>2020-06-06T09:40:37Z</time>
      </trkpt>
      <trkpt lat="47.53883" lon="-2.41739">
        <ele>47.5</ele>
        <time>2020-06-06T09:40:38Z</time>
      </trkpt>
      <trkpt lat="47.53886" lon="-2.41749">
        <ele>47.4</ele>
        <time>2020-06-06T09:40:39Z</time>
      </trkpt>
      <trkpt lat="47.53889" lon="-2.41758">
        <ele>47.4</ele>
        <time>2020-06-06T09:40:40Z</time>
      </trkpt>
      <trkpt lat="47.53891" lon="-2.41768">
        <ele>47.3</ele>
        <time>2020-06-06T09:40:41Z</time>
      </trkpt>
      <trkpt lat="47.53894" lon="-2.41778">
        <ele>47.3</ele>
        <time>2020-06-06T09:40:42Z</time>
      </trkpt>
      <trkpt lat="47.53896" lon="-2.41787">
        <ele>47.2</ele>
        <time>2020-06-06T09:40:43Z</time>
      </trkpt>
      <trkpt lat="47.53898" lon="-2.41797">
        <ele>47.2</ele>
        <time>2020-06-06T09:40:44Z</time>
      </trkpt>
      <trkpt lat="47.53901" lon="-2.41807">
        <ele>47.2</ele>
        <time>2020-06-06T09:40:45Z</time>
      </trkpt>
      <trkpt lat="47.53904" lon="-2.41816">
        <ele>47.2</ele>
        <time>2020-06-06T09:40:46Z</time>
      </trkpt>
      <trkpt lat="47.53906" lon="-2.41826">
        <ele>47.1</ele>
        <time>2020-06-06T09:40:47Z</time>
      </trkpt>
      <trkpt lat="47.53909" lon="-2.41836">
        <ele>47</ele>
        <time>2020-06-06T09:40:48Z</time>
      </trkpt>
      <trkpt lat="47.53912" lon="-2.41845">
        <ele>47</ele>
        <time>2020-06-06T09:40:49Z</time>
      </trkpt>
      <trkpt lat="47.53915" lon="-2.41855">
        <ele>46.9</ele>
        <time>2020-06-06T09:40:50Z</time>
      </trkpt>
      <trkpt lat="47.53918" lon="-2.41865">
        <ele>46.9</ele>
        <time>2020-06-06T09:40:51Z</time>
      </trkpt>
      <trkpt lat="47.5392" lon="-2.41874">
        <ele>46.8</ele>
        <time>2020-06-06T09:40:52Z</time>
      </trkpt>
      <trkpt lat="47.53923" lon="-2.41884">
        <ele>46.7</ele>
        <time>2020-06-06T09:40:53Z</time>
      </trkpt>
      <trkpt lat="47.53925" lon="-2.41893">
        <ele>46.6</ele>
        <time>2020-06-06T09:40:54Z</time>
      </trkpt>
      <trkpt lat="47.53928" lon="-2.41903">
        <ele>46.5</ele>
        <time>2020-06-06T09:40:55Z</time>
      </trkpt>
      <trkpt lat="47.5393" lon="-2.41912">
        <ele>46.5</ele>
        <time>2020-06-06T09:40:56Z</time>
      </trkpt>
      <trkpt lat="47.53933" lon="-2.41922">
        <ele>46.4</ele>
        <time>2020-06-06T09:40:57Z</time>
      </trkpt>
      <trkpt lat="47.53935" lon="-2.41931">
        <ele>46.4</ele>
        <time>2020-06-06T09:40:58Z</time>
      </trkpt>
      <trkpt lat="47.53938" lon="-2.41941">
        <ele>46.5</ele>
        <time>2020-06-06T09:40:59Z</time>
      </trkpt>
      <trkpt lat="47.5394" lon="-2.4195">
        <ele>46.5</ele>
        <time>2020-06-06T09:41:00Z</time>
      </trkpt>
      <trkpt lat="47.53943" lon="-2.41959">
        <ele>46.6</ele>
        <time>2020-06-06T09:41:01Z</time>
      </trkpt>
      <trkpt lat="47.53946" lon="-2.41968">
        <ele>46.5</ele>
        <time>2020-06-06T09:41:02Z</time>
      </trkpt>
      <trkpt lat="47.53949" lon="-2.41976">
        <ele>46.4</ele>
        <time>2020-06-06T09:41:03Z</time>
      </trkpt>
      <trkpt lat="47.53953" lon="-2.41985">
        <ele>46.2</ele>
        <time>2020-06-06T09:41:04Z</time>
      </trkpt>
      <trkpt lat="47.53956" lon="-2.41994">
        <ele>46.1</ele>
        <time>2020-06-06T09:41:05Z</time>
      </trkpt>
      <trkpt lat="47.53959" lon="-2.42003">
        <ele>46</ele>
        <time>2020-06-06T09:41:06Z</time>
      </trkpt>
      <trkpt lat="47.53962" lon="-2.42012">
        <ele>45.9</ele>
        <time>2020-06-06T09:41:07Z</time>
      </trkpt>
      <trkpt lat="47.53965" lon="-2.42021">
        <ele>45.8</ele>
        <time>2020-06-06T09:41:08Z</time>
      </trkpt>
      <trkpt lat="47.53967" lon="-2.42031">
        <ele>45.7</ele>
        <time>2020-06-06T09:41:09Z</time>
      </trkpt>
      <trkpt lat="47.5397" lon="-2.4204">
        <ele>45.7</ele>
        <time>2020-06-06T09:41:10Z</time>
      </trkpt>
      <trkpt lat="47.53973" lon="-2.42049">
        <ele>45.7</ele>
        <time>2020-06-06T09:41:11Z</time>
      </trkpt>
      <trkpt lat="47.53975" lon="-2.42058">
        <ele>45.6</ele>
        <time>2020-06-06T09:41:12Z</time>
      </trkpt>
      <trkpt lat="47.53978" lon="-2.42067">
        <ele>45.6</ele>
        <time>2020-06-06T09:41:13Z</time>
      </trkpt>
      <trkpt lat="47.5398" lon="-2.42076">
        <ele>45.5</ele>
        <time>2020-06-06T09:41:14Z</time>
      </trkpt>
      <trkpt lat="47.53983" lon="-2.42085">
        <ele>45.5</ele>
        <time>2020-06-06T09:41:15Z</time>
      </trkpt>
      <trkpt lat="47.53986" lon="-2.42093">
        <ele>45.5</ele>
        <time>2020-06-06T09:41:16Z</time>
      </trkpt>
      <trkpt lat="47.53989" lon="-2.42101">
        <ele>45.5</ele>
        <time>2020-06-06T09:41:17Z</time>
      </trkpt>
      <trkpt lat="47.53992" lon="-2.4211">
        <ele>45.4</ele>
        <time>2020-06-06T09:41:18Z</time>
      </trkpt>
      <trkpt lat="47.53994" lon="-2.42118">
        <ele>45.4</ele>
        <time>2020-06-06T09:41:19Z</time>
      </trkpt>
      <trkpt lat="47.53996" lon="-2.42127">
        <ele>45.4</ele>
        <time>2020-06-06T09:41:20Z</time>
      </trkpt>
      <trkpt lat="47.53998" lon="-2.42136">
        <ele>45.3</ele>
        <time>2020-06-06T09:41:21Z</time>
      </trkpt>
      <trkpt lat="47.54001" lon="-2.42145">
        <ele>45.3</ele>
        <time>2020-06-06T09:41:22Z</time>
      </trkpt>
      <trkpt lat="47.54004" lon="-2.42153">
        <ele>45.3</ele>
        <time>2020-06-06T09:41:23Z</time>
      </trkpt>
      <trkpt lat="47.54006" lon="-2.42162">
        <ele>45.2</ele>
        <time>2020-06-06T09:41:24Z</time>
      </trkpt>
      <trkpt lat="47.54009" lon="-2.4217">
        <ele>45.2</ele>
        <time>2020-06-06T09:41:25Z</time>
      </trkpt>
      <trkpt lat="47.54011" lon="-2.42178">
        <ele>45.2</ele>
        <time>2020-06-06T09:41:26Z</time>
      </trkpt>
      <trkpt lat="47.54013" lon="-2.42186">
        <ele>45.1</ele>
        <time>2020-06-06T09:41:27Z</time>
      </trkpt>
      <trkpt lat="47.54016" lon="-2.42194">
        <ele>45.1</ele>
        <time>2020-06-06T09:41:28Z</time>
      </trkpt>
      <trkpt lat="47.54018" lon="-2.42202">
        <ele>45.1</ele>
        <time>2020-06-06T09:41:29Z</time>
      </trkpt>
      <trkpt lat="47.54019" lon="-2.42211">
        <ele>45.1</ele>
        <time>2020-06-06T09:41:30Z</time>
      </trkpt>
      <trkpt lat="47.54021" lon="-2.42219">
        <ele>45</ele>
        <time>2020-06-06T09:41:31Z</time>
      </trkpt>
      <trkpt lat="47.54023" lon="-2.42227">
        <ele>45</ele>
        <time>2020-06-06T09:41:32Z</time>
      </trkpt>
      <trkpt lat="47.54025" lon="-2.42234">
        <ele>45</ele>
        <time>2020-06-06T09:41:33Z</time>
      </trkpt>
      <trkpt lat="47.54026" lon="-2.42242">
        <ele>44.9</ele>
        <time>2020-06-06T09:41:34Z</time>
      </trkpt>
      <trkpt lat="47.54028" lon="-2.4225">
        <ele>44.9</ele>
        <time>2020-06-06T09:41:35Z</time>
      </trkpt>
      <trkpt lat="47.54031" lon="-2.42257">
        <ele>44.9</ele>
        <time>2020-06-06T09:41:36Z</time>
      </trkpt>
      <trkpt lat="47.54035" lon="-2.42266">
        <ele>44.8</ele>
        <time>2020-06-06T09:41:37Z</time>
      </trkpt>
      <trkpt lat="47.54037" lon="-2.42274">
        <ele>44.8</ele>
        <time>2020-06-06T09:41:38Z</time>
      </trkpt>
      <trkpt lat="47.5404" lon="-2.42283">
        <ele>44.7</ele>
        <time>2020-06-06T09:41:39Z</time>
      </trkpt>
      <trkpt lat="47.54042" lon="-2.42292">
        <ele>44.7</ele>
        <time>2020-06-06T09:41:40Z</time>
      </trkpt>
      <trkpt lat="47.54044" lon="-2.42299">
        <ele>44.7</ele>
        <time>2020-06-06T09:41:41Z</time>
      </trkpt>
      <trkpt lat="47.54047" lon="-2.42308">
        <ele>44.6</ele>
        <time>2020-06-06T09:41:42Z</time>
      </trkpt>
      <trkpt lat="47.54049" lon="-2.42316">
        <ele>44.6</ele>
        <time>2020-06-06T09:41:43Z</time>
      </trkpt>
      <trkpt lat="47.54051" lon="-2.42324">
        <ele>44.5</ele>
        <time>2020-06-06T09:41:44Z</time>
      </trkpt>
      <trkpt lat="47.54053" lon="-2.42333">
        <ele>44.5</ele>
        <time>2020-06-06T09:41:45Z</time>
      </trkpt>
      <trkpt lat="47.54056" lon="-2.42341">
        <ele>44.4</ele>
        <time>2020-06-06T09:41:46Z</time>
      </trkpt>
      <trkpt lat="47.54058" lon="-2.42349">
        <ele>44.3</ele>
        <time>2020-06-06T09:41:47Z</time>
      </trkpt>
      <trkpt lat="47.54061" lon="-2.42357">
        <ele>44.2</ele>
        <time>2020-06-06T09:41:48Z</time>
      </trkpt>
      <trkpt lat="47.54063" lon="-2.42366">
        <ele>44.1</ele>
        <time>2020-06-06T09:41:49Z</time>
      </trkpt>
      <trkpt lat="47.54066" lon="-2.42373">
        <ele>44.1</ele>
        <time>2020-06-06T09:41:50Z</time>
      </trkpt>
      <trkpt lat="47.54069" lon="-2.42383">
        <ele>44</ele>
        <time>2020-06-06T09:41:51Z</time>
      </trkpt>
      <trkpt lat="47.54071" lon="-2.42391">
        <ele>44</ele>
        <time>2020-06-06T09:41:52Z</time>
      </trkpt>
      <trkpt lat="47.54072" lon="-2.42399">
        <ele>43.9</ele>
        <time>2020-06-06T09:41:53Z</time>
      </trkpt>
      <trkpt lat="47.54075" lon="-2.42406">
        <ele>43.9</ele>
        <time>2020-06-06T09:41:54Z</time>
      </trkpt>
      <trkpt lat="47.54077" lon="-2.42413">
        <ele>43.9</ele>
        <time>2020-06-06T09:41:55Z</time>
      </trkpt>
      <trkpt lat="47.54079" lon="-2.42421">
        <ele>43.9</ele>
        <time>2020-06-06T09:41:56Z</time>
      </trkpt>
      <trkpt lat="47.54081" lon="-2.42428">
        <ele>43.9</ele>
        <time>2020-06-06T09:41:57Z</time>
      </trkpt>
      <trkpt lat="47.54084" lon="-2.42436">
        <ele>43.9</ele>
        <time>2020-06-06T09:41:58Z</time>
      </trkpt>
      <trkpt lat="47.54086" lon="-2.42443">
        <ele>43.9</ele>
        <time>2020-06-06T09:41:59Z</time>
      </trkpt>
      <trkpt lat="47.54089" lon="-2.42451">
        <ele>43.9</ele>
        <time>2020-06-06T09:42:00Z</time>
      </trkpt>
      <trkpt lat="47.54091" lon="-2.42459">
        <ele>43.9</ele>
        <time>2020-06-06T09:42:01Z</time>
      </trkpt>
      <trkpt lat="47.54092" lon="-2.42467">
        <ele>44</ele>
        <time>2020-06-06T09:42:02Z</time>
      </trkpt>
      <trkpt lat="47.54094" lon="-2.42475">
        <ele>44</ele>
        <time>2020-06-06T09:42:03Z</time>
      </trkpt>
      <trkpt lat="47.54096" lon="-2.42483">
        <ele>44</ele>
        <time>2020-06-06T09:42:04Z</time>
      </trkpt>
      <trkpt lat="47.54097" lon="-2.42491">
        <ele>44</ele>
        <time>2020-06-06T09:42:05Z</time>
      </trkpt>
      <trkpt lat="47.54096" lon="-2.42497">
        <ele>44</ele>
        <time>2020-06-06T09:42:06Z</time>
      </trkpt>
      <trkpt lat="47.54092" lon="-2.42503">
        <ele>44</ele>
        <time>2020-06-06T09:42:07Z</time>
      </trkpt>
      <trkpt lat="47.54087" lon="-2.42506">
        <ele>44</ele>
        <time>2020-06-06T09:42:08Z</time>
      </trkpt>
      <trkpt lat="47.54082" lon="-2.42509">
        <ele>44</ele>
        <time>2020-06-06T09:42:09Z</time>
      </trkpt>
      <trkpt lat="47.54078" lon="-2.42512">
        <ele>44</ele>
        <time>2020-06-06T09:42:10Z</time>
      </trkpt>
      <trkpt lat="47.54073" lon="-2.42516">
        <ele>44</ele>
        <time>2020-06-06T09:42:11Z</time>
      </trkpt>
      <trkpt lat="47.54067" lon="-2.4252">
        <ele>44</ele>
        <time>2020-06-06T09:42:12Z</time>
      </trkpt>
      <trkpt lat="47.54061" lon="-2.42524">
        <ele>44</ele>
        <time>2020-06-06T09:42:13Z</time>
      </trkpt>
      <trkpt lat="47.54055" lon="-2.42528">
        <ele>43.9</ele>
        <time>2020-06-06T09:42:14Z</time>
      </trkpt>
      <trkpt lat="47.54049" lon="-2.42532">
        <ele>43.7</ele>
        <time>2020-06-06T09:42:15Z</time>
      </trkpt>
      <trkpt lat="47.54043" lon="-2.4254">
        <ele>43.5</ele>
        <time>2020-06-06T09:42:16Z</time>
      </trkpt>
      <trkpt lat="47.54039" lon="-2.42546">
        <ele>43.4</ele>
        <time>2020-06-06T09:42:17Z</time>
      </trkpt>
      <trkpt lat="47.54036" lon="-2.42553">
        <ele>43.3</ele>
        <time>2020-06-06T09:42:18Z</time>
      </trkpt>
      <trkpt lat="47.54032" lon="-2.42562">
        <ele>43.1</ele>
        <time>2020-06-06T09:42:19Z</time>
      </trkpt>
      <trkpt lat="47.54029" lon="-2.42569">
        <ele>43</ele>
        <time>2020-06-06T09:42:20Z</time>
      </trkpt>
      <trkpt lat="47.54025" lon="-2.42577">
        <ele>42.9</ele>
        <time>2020-06-06T09:42:21Z</time>
      </trkpt>
      <trkpt lat="47.54022" lon="-2.42585">
        <ele>42.7</ele>
        <time>2020-06-06T09:42:22Z</time>
      </trkpt>
      <trkpt lat="47.54018" lon="-2.42593">
        <ele>42.6</ele>
        <time>2020-06-06T09:42:23Z</time>
      </trkpt>
      <trkpt lat="47.54015" lon="-2.42602">
        <ele>42.4</ele>
        <time>2020-06-06T09:42:24Z</time>
      </trkpt>
      <trkpt lat="47.54011" lon="-2.4261">
        <ele>42.3</ele>
        <time>2020-06-06T09:42:25Z</time>
      </trkpt>
      <trkpt lat="47.54007" lon="-2.42618">
        <ele>42.1</ele>
        <time>2020-06-06T09:42:26Z</time>
      </trkpt>
      <trkpt lat="47.54004" lon="-2.42627">
        <ele>41.9</ele>
        <time>2020-06-06T09:42:27Z</time>
      </trkpt>
      <trkpt lat="47.54" lon="-2.42636">
        <ele>41.7</ele>
        <time>2020-06-06T09:42:28Z</time>
      </trkpt>
      <trkpt lat="47.53997" lon="-2.42644">
        <ele>41.6</ele>
        <time>2020-06-06T09:42:29Z</time>
      </trkpt>
      <trkpt lat="47.53993" lon="-2.42652">
        <ele>41.4</ele>
        <time>2020-06-06T09:42:30Z</time>
      </trkpt>
      <trkpt lat="47.53989" lon="-2.42661">
        <ele>41.2</ele>
        <time>2020-06-06T09:42:31Z</time>
      </trkpt>
      <trkpt lat="47.53986" lon="-2.42669">
        <ele>41.1</ele>
        <time>2020-06-06T09:42:32Z</time>
      </trkpt>
      <trkpt lat="47.53982" lon="-2.42678">
        <ele>40.9</ele>
        <time>2020-06-06T09:42:33Z</time>
      </trkpt>
      <trkpt lat="47.53978" lon="-2.42686">
        <ele>40.7</ele>
        <time>2020-06-06T09:42:34Z</time>
      </trkpt>
      <trkpt lat="47.53974" lon="-2.42693">
        <ele>40.5</ele>
        <time>2020-06-06T09:42:35Z</time>
      </trkpt>
      <trkpt lat="47.5397" lon="-2.42701">
        <ele>40.3</ele>
        <time>2020-06-06T09:42:36Z</time>
      </trkpt>
      <trkpt lat="47.53965" lon="-2.42708">
        <ele>40.1</ele>
        <time>2020-06-06T09:42:37Z</time>
      </trkpt>
      <trkpt lat="47.53961" lon="-2.42715">
        <ele>40</ele>
        <time>2020-06-06T09:42:38Z</time>
      </trkpt>
      <trkpt lat="47.53956" lon="-2.42721">
        <ele>39.9</ele>
        <time>2020-06-06T09:42:39Z</time>
      </trkpt>
      <trkpt lat="47.53951" lon="-2.42727">
        <ele>39.7</ele>
        <time>2020-06-06T09:42:40Z</time>
      </trkpt>
      <trkpt lat="47.53946" lon="-2.42734">
        <ele>39.6</ele>
        <time>2020-06-06T09:42:41Z</time>
      </trkpt>
      <trkpt lat="47.53942" lon="-2.42739">
        <ele>39.5</ele>
        <time>2020-06-06T09:42:42Z</time>
      </trkpt>
      <trkpt lat="47.53937" lon="-2.42745">
        <ele>39.4</ele>
        <time>2020-06-06T09:42:43Z</time>
      </trkpt>
      <trkpt lat="47.53932" lon="-2.42752">
        <ele>39.3</ele>
        <time>2020-06-06T09:42:44Z</time>
      </trkpt>
      <trkpt lat="47.53927" lon="-2.42758">
        <ele>39.2</ele>
        <time>2020-06-06T09:42:45Z</time>
      </trkpt>
      <trkpt lat="47.53921" lon="-2.42763">
        <ele>39.2</ele>
        <time>2020-06-06T09:42:46Z</time>
      </trkpt>
      <trkpt lat="47.53916" lon="-2.42769">
        <ele>39.1</ele>
        <time>2020-06-06T09:42:47Z</time>
      </trkpt>
      <trkpt lat="47.5391" lon="-2.42773">
        <ele>39.1</ele>
        <time>2020-06-06T09:42:48Z</time>
      </trkpt>
      <trkpt lat="47.53905" lon="-2.42778">
        <ele>39.1</ele>
        <time>2020-06-06T09:42:49Z</time>
      </trkpt>
      <trkpt lat="47.53899" lon="-2.42784">
        <ele>39.1</ele>
        <time>2020-06-06T09:42:50Z</time>
      </trkpt>
      <trkpt lat="47.53893" lon="-2.42789">
        <ele>39.1</ele>
        <time>2020-06-06T09:42:51Z</time>
      </trkpt>
      <trkpt lat="47.53888" lon="-2.42795">
        <ele>39.1</ele>
        <time>2020-06-06T09:42:52Z</time>
      </trkpt>
      <trkpt lat="47.53883" lon="-2.42802">
        <ele>39</ele>
        <time>2020-06-06T09:42:53Z</time>
      </trkpt>
      <trkpt lat="47.53877" lon="-2.42807">
        <ele>39</ele>
        <time>2020-06-06T09:42:54Z</time>
      </trkpt>
      <trkpt lat="47.53872" lon="-2.42813">
        <ele>38.9</ele>
        <time>2020-06-06T09:42:55Z</time>
      </trkpt>
      <trkpt lat="47.53867" lon="-2.42819">
        <ele>38.9</ele>
        <time>2020-06-06T09:42:56Z</time>
      </trkpt>
      <trkpt lat="47.53863" lon="-2.42827">
        <ele>38.8</ele>
        <time>2020-06-06T09:42:57Z</time>
      </trkpt>
      <trkpt lat="47.53859" lon="-2.42834">
        <ele>38.8</ele>
        <time>2020-06-06T09:42:58Z</time>
      </trkpt>
      <trkpt lat="47.53855" lon="-2.42842">
        <ele>38.7</ele>
        <time>2020-06-06T09:42:59Z</time>
      </trkpt>
      <trkpt lat="47.53851" lon="-2.4285">
        <ele>38.6</ele>
        <time>2020-06-06T09:43:00Z</time>
      </trkpt>
      <trkpt lat="47.53847" lon="-2.42858">
        <ele>38.5</ele>
        <time>2020-06-06T09:43:01Z</time>
      </trkpt>
      <trkpt lat="47.53842" lon="-2.42866">
        <ele>38.5</ele>
        <time>2020-06-06T09:43:02Z</time>
      </trkpt>
      <trkpt lat="47.53838" lon="-2.42874">
        <ele>38.5</ele>
        <time>2020-06-06T09:43:03Z</time>
      </trkpt>
      <trkpt lat="47.53834" lon="-2.42883">
        <ele>38.6</ele>
        <time>2020-06-06T09:43:04Z</time>
      </trkpt>
      <trkpt lat="47.5383" lon="-2.42891">
        <ele>38.6</ele>
        <time>2020-06-06T09:43:05Z</time>
      </trkpt>
      <trkpt lat="47.53825" lon="-2.429">
        <ele>38.7</ele>
        <time>2020-06-06T09:43:06Z</time>
      </trkpt>
      <trkpt lat="47.53821" lon="-2.42908">
        <ele>38.7</ele>
        <time>2020-06-06T09:43:07Z</time>
      </trkpt>
      <trkpt lat="47.53817" lon="-2.42916">
        <ele>38.7</ele>
        <time>2020-06-06T09:43:08Z</time>
      </trkpt>
      <trkpt lat="47.53813" lon="-2.42924">
        <ele>38.8</ele>
        <time>2020-06-06T09:43:09Z</time>
      </trkpt>
      <trkpt lat="47.53808" lon="-2.42931">
        <ele>39</ele>
        <time>2020-06-06T09:43:10Z</time>
      </trkpt>
      <trkpt lat="47.53804" lon="-2.42939">
        <ele>39.2</ele>
        <time>2020-06-06T09:43:11Z</time>
      </trkpt>
      <trkpt lat="47.538" lon="-2.42947">
        <ele>39.2</ele>
        <time>2020-06-06T09:43:12Z</time>
      </trkpt>
      <trkpt lat="47.53796" lon="-2.42954">
        <ele>39.3</ele>
        <time>2020-06-06T09:43:13Z</time>
      </trkpt>
      <trkpt lat="47.53791" lon="-2.42962">
        <ele>39.3</ele>
        <time>2020-06-06T09:43:14Z</time>
      </trkpt>
      <trkpt lat="47.53787" lon="-2.42969">
        <ele>39.3</ele>
        <time>2020-06-06T09:43:15Z</time>
      </trkpt>
      <trkpt lat="47.53783" lon="-2.42976">
        <ele>39.3</ele>
        <time>2020-06-06T09:43:16Z</time>
      </trkpt>
      <trkpt lat="47.53778" lon="-2.42984">
        <ele>39.4</ele>
        <time>2020-06-06T09:43:17Z</time>
      </trkpt>
      <trkpt lat="47.53775" lon="-2.42992">
        <ele>39.4</ele>
        <time>2020-06-06T09:43:18Z</time>
      </trkpt>
      <trkpt lat="47.53771" lon="-2.43">
        <ele>39.4</ele>
        <time>2020-06-06T09:43:19Z</time>
      </trkpt>
      <trkpt lat="47.53768" lon="-2.4301">
        <ele>39.4</ele>
        <time>2020-06-06T09:43:20Z</time>
      </trkpt>
      <trkpt lat="47.53765" lon="-2.43018">
        <ele>39.4</ele>
        <time>2020-06-06T09:43:21Z</time>
      </trkpt>
      <trkpt lat="47.53764" lon="-2.43028">
        <ele>39.4</ele>
        <time>2020-06-06T09:43:22Z</time>
      </trkpt>
      <trkpt lat="47.53763" lon="-2.43037">
        <ele>39.5</ele>
        <time>2020-06-06T09:43:23Z</time>
      </trkpt>
      <trkpt lat="47.53762" lon="-2.43047">
        <ele>39.4</ele>
        <time>2020-06-06T09:43:24Z</time>
      </trkpt>
      <trkpt lat="47.53762" lon="-2.43057">
        <ele>39.4</ele>
        <time>2020-06-06T09:43:25Z</time>
      </trkpt>
      <trkpt lat="47.53764" lon="-2.43067">
        <ele>39.4</ele>
        <time>2020-06-06T09:43:26Z</time>
      </trkpt>
      <trkpt lat="47.53766" lon="-2.43076">
        <ele>39.3</ele>
        <time>2020-06-06T09:43:27Z</time>
      </trkpt>
      <trkpt lat="47.53769" lon="-2.43085">
        <ele>39.3</ele>
        <time>2020-06-06T09:43:28Z</time>
      </trkpt>
      <trkpt lat="47.53772" lon="-2.43095">
        <ele>39.2</ele>
        <time>2020-06-06T09:43:29Z</time>
      </trkpt>
      <trkpt lat="47.53774" lon="-2.43104">
        <ele>39.2</ele>
        <time>2020-06-06T09:43:30Z</time>
      </trkpt>
      <trkpt lat="47.53776" lon="-2.43113">
        <ele>39.1</ele>
        <time>2020-06-06T09:43:31Z</time>
      </trkpt>
      <trkpt lat="47.53778" lon="-2.43122">
        <ele>39.1</ele>
        <time>2020-06-06T09:43:32Z</time>
      </trkpt>
      <trkpt lat="47.53781" lon="-2.43132">
        <ele>39</ele>
        <time>2020-06-06T09:43:33Z</time>
      </trkpt>
      <trkpt lat="47.53783" lon="-2.43142">
        <ele>38.9</ele>
        <time>2020-06-06T09:43:34Z</time>
      </trkpt>
      <trkpt lat="47.53784" lon="-2.43152">
        <ele>38.8</ele>
        <time>2020-06-06T09:43:35Z</time>
      </trkpt>
      <trkpt lat="47.53785" lon="-2.43162">
        <ele>38.6</ele>
        <time>2020-06-06T09:43:36Z</time>
      </trkpt>
      <trkpt lat="47.53787" lon="-2.43173">
        <ele>38.5</ele>
        <time>2020-06-06T09:43:37Z</time>
      </trkpt>
      <trkpt lat="47.53788" lon="-2.43183">
        <ele>38.4</ele>
        <time>2020-06-06T09:43:38Z</time>
      </trkpt>
      <trkpt lat="47.53788" lon="-2.43194">
        <ele>38.2</ele>
        <time>2020-06-06T09:43:39Z</time>
      </trkpt>
      <trkpt lat="47.53789" lon="-2.43205">
        <ele>38.1</ele>
        <time>2020-06-06T09:43:40Z</time>
      </trkpt>
      <trkpt lat="47.53788" lon="-2.43216">
        <ele>37.9</ele>
        <time>2020-06-06T09:43:41Z</time>
      </trkpt>
      <trkpt lat="47.53787" lon="-2.43227">
        <ele>37.8</ele>
        <time>2020-06-06T09:43:42Z</time>
      </trkpt>
      <trkpt lat="47.53786" lon="-2.43238">
        <ele>37.6</ele>
        <time>2020-06-06T09:43:43Z</time>
      </trkpt>
      <trkpt lat="47.53787" lon="-2.43248">
        <ele>37.4</ele>
        <time>2020-06-06T09:43:44Z</time>
      </trkpt>
      <trkpt lat="47.53787" lon="-2.43259">
        <ele>37.2</ele>
        <time>2020-06-06T09:43:45Z</time>
      </trkpt>
      <trkpt lat="47.53787" lon="-2.4327">
        <ele>36.9</ele>
        <time>2020-06-06T09:43:46Z</time>
      </trkpt>
      <trkpt lat="47.53786" lon="-2.4328">
        <ele>36.7</ele>
        <time>2020-06-06T09:43:47Z</time>
      </trkpt>
      <trkpt lat="47.53785" lon="-2.43291">
        <ele>36.5</ele>
        <time>2020-06-06T09:43:48Z</time>
      </trkpt>
      <trkpt lat="47.53785" lon="-2.43302">
        <ele>36.3</ele>
        <time>2020-06-06T09:43:49Z</time>
      </trkpt>
      <trkpt lat="47.53785" lon="-2.43313">
        <ele>36.1</ele>
        <time>2020-06-06T09:43:50Z</time>
      </trkpt>
      <trkpt lat="47.53784" lon="-2.43324">
        <ele>35.9</ele>
        <time>2020-06-06T09:43:51Z</time>
      </trkpt>
      <trkpt lat="47.53784" lon="-2.43336">
        <ele>35.6</ele>
        <time>2020-06-06T09:43:52Z</time>
      </trkpt>
      <trkpt lat="47.53784" lon="-2.43348">
        <ele>35.3</ele>
        <time>2020-06-06T09:43:53Z</time>
      </trkpt>
      <trkpt lat="47.53784" lon="-2.4336">
        <ele>34.9</ele>
        <time>2020-06-06T09:43:54Z</time>
      </trkpt>
      <trkpt lat="47.53785" lon="-2.43371">
        <ele>34.6</ele>
        <time>2020-06-06T09:43:55Z</time>
      </trkpt>
      <trkpt lat="47.53786" lon="-2.43384">
        <ele>34.2</ele>
        <time>2020-06-06T09:43:56Z</time>
      </trkpt>
      <trkpt lat="47.53787" lon="-2.43396">
        <ele>33.8</ele>
        <time>2020-06-06T09:43:57Z</time>
      </trkpt>
      <trkpt lat="47.53789" lon="-2.43409">
        <ele>33.3</ele>
        <time>2020-06-06T09:43:58Z</time>
      </trkpt>
      <trkpt lat="47.53793" lon="-2.43421">
        <ele>32.9</ele>
        <time>2020-06-06T09:43:59Z</time>
      </trkpt>
      <trkpt lat="47.53796" lon="-2.43434">
        <ele>32.3</ele>
        <time>2020-06-06T09:44:00Z</time>
      </trkpt>
      <trkpt lat="47.53801" lon="-2.43447">
        <ele>31.8</ele>
        <time>2020-06-06T09:44:01Z</time>
      </trkpt>
      <trkpt lat="47.53805" lon="-2.43461">
        <ele>31.1</ele>
        <time>2020-06-06T09:44:02Z</time>
      </trkpt>
      <trkpt lat="47.53809" lon="-2.43475">
        <ele>30.3</ele>
        <time>2020-06-06T09:44:03Z</time>
      </trkpt>
      <trkpt lat="47.53813" lon="-2.4349">
        <ele>29.5</ele>
        <time>2020-06-06T09:44:04Z</time>
      </trkpt>
      <trkpt lat="47.53818" lon="-2.43505">
        <ele>29</ele>
        <time>2020-06-06T09:44:05Z</time>
      </trkpt>
      <trkpt lat="47.53821" lon="-2.43521">
        <ele>28.7</ele>
        <time>2020-06-06T09:44:06Z</time>
      </trkpt>
      <trkpt lat="47.53823" lon="-2.43537">
        <ele>28.6</ele>
        <time>2020-06-06T09:44:07Z</time>
      </trkpt>
      <trkpt lat="47.53825" lon="-2.43553">
        <ele>28.8</ele>
        <time>2020-06-06T09:44:08Z</time>
      </trkpt>
      <trkpt lat="47.53827" lon="-2.4357">
        <ele>29.1</ele>
        <time>2020-06-06T09:44:09Z</time>
      </trkpt>
      <trkpt lat="47.53827" lon="-2.43585">
        <ele>29.5</ele>
        <time>2020-06-06T09:44:10Z</time>
      </trkpt>
      <trkpt lat="47.53829" lon="-2.43598">
        <ele>29.8</ele>
        <time>2020-06-06T09:44:11Z</time>
      </trkpt>
      <trkpt lat="47.53831" lon="-2.43611">
        <ele>30</ele>
        <time>2020-06-06T09:44:12Z</time>
      </trkpt>
      <trkpt lat="47.53834" lon="-2.43622">
        <ele>30.1</ele>
        <time>2020-06-06T09:44:13Z</time>
      </trkpt>
      <trkpt lat="47.53838" lon="-2.43633">
        <ele>30.2</ele>
        <time>2020-06-06T09:44:14Z</time>
      </trkpt>
      <trkpt lat="47.53841" lon="-2.43644">
        <ele>30.3</ele>
        <time>2020-06-06T09:44:15Z</time>
      </trkpt>
      <trkpt lat="47.53845" lon="-2.43654">
        <ele>30.3</ele>
        <time>2020-06-06T09:44:16Z</time>
      </trkpt>
      <trkpt lat="47.53849" lon="-2.43663">
        <ele>30.3</ele>
        <time>2020-06-06T09:44:17Z</time>
      </trkpt>
      <trkpt lat="47.53853" lon="-2.43673">
        <ele>30.4</ele>
        <time>2020-06-06T09:44:18Z</time>
      </trkpt>
      <trkpt lat="47.53856" lon="-2.43682">
        <ele>30.4</ele>
        <time>2020-06-06T09:44:19Z</time>
      </trkpt>
      <trkpt lat="47.5386" lon="-2.43691">
        <ele>30.4</ele>
        <time>2020-06-06T09:44:20Z</time>
      </trkpt>
      <trkpt lat="47.53863" lon="-2.43701">
        <ele>30.4</ele>
        <time>2020-06-06T09:44:21Z</time>
      </trkpt>
      <trkpt lat="47.53866" lon="-2.4371">
        <ele>30.4</ele>
        <time>2020-06-06T09:44:22Z</time>
      </trkpt>
      <trkpt lat="47.53869" lon="-2.4372">
        <ele>30.5</ele>
        <time>2020-06-06T09:44:23Z</time>
      </trkpt>
      <trkpt lat="47.53871" lon="-2.43729">
        <ele>30.5</ele>
        <time>2020-06-06T09:44:24Z</time>
      </trkpt>
      <trkpt lat="47.53874" lon="-2.43738">
        <ele>30.6</ele>
        <time>2020-06-06T09:44:25Z</time>
      </trkpt>
      <trkpt lat="47.53877" lon="-2.43747">
        <ele>30.7</ele>
        <time>2020-06-06T09:44:26Z</time>
      </trkpt>
      <trkpt lat="47.53879" lon="-2.43756">
        <ele>30.8</ele>
        <time>2020-06-06T09:44:27Z</time>
      </trkpt>
      <trkpt lat="47.53881" lon="-2.43764">
        <ele>30.9</ele>
        <time>2020-06-06T09:44:28Z</time>
      </trkpt>
      <trkpt lat="47.53883" lon="-2.43773">
        <ele>31</ele>
        <time>2020-06-06T09:44:29Z</time>
      </trkpt>
      <trkpt lat="47.53886" lon="-2.43782">
        <ele>31.1</ele>
        <time>2020-06-06T09:44:30Z</time>
      </trkpt>
      <trkpt lat="47.53888" lon="-2.4379">
        <ele>31.1</ele>
        <time>2020-06-06T09:44:31Z</time>
      </trkpt>
      <trkpt lat="47.53889" lon="-2.43799">
        <ele>31.2</ele>
        <time>2020-06-06T09:44:32Z</time>
      </trkpt>
      <trkpt lat="47.53892" lon="-2.43806">
        <ele>31.2</ele>
        <time>2020-06-06T09:44:33Z</time>
      </trkpt>
      <trkpt lat="47.53895" lon="-2.43814">
        <ele>31.2</ele>
        <time>2020-06-06T09:44:34Z</time>
      </trkpt>
      <trkpt lat="47.53898" lon="-2.43821">
        <ele>31.3</ele>
        <time>2020-06-06T09:44:35Z</time>
      </trkpt>
      <trkpt lat="47.53901" lon="-2.43829">
        <ele>31.3</ele>
        <time>2020-06-06T09:44:36Z</time>
      </trkpt>
      <trkpt lat="47.53903" lon="-2.43837">
        <ele>31.3</ele>
        <time>2020-06-06T09:44:37Z</time>
      </trkpt>
      <trkpt lat="47.53906" lon="-2.43845">
        <ele>31.3</ele>
        <time>2020-06-06T09:44:38Z</time>
      </trkpt>
      <trkpt lat="47.53909" lon="-2.43854">
        <ele>31.3</ele>
        <time>2020-06-06T09:44:39Z</time>
      </trkpt>
      <trkpt lat="47.53912" lon="-2.43862">
        <ele>31.3</ele>
        <time>2020-06-06T09:44:40Z</time>
      </trkpt>
      <trkpt lat="47.53916" lon="-2.4387">
        <ele>31.4</ele>
        <time>2020-06-06T09:44:41Z</time>
      </trkpt>
      <trkpt lat="47.53919" lon="-2.43879">
        <ele>31.5</ele>
        <time>2020-06-06T09:44:42Z</time>
      </trkpt>
      <trkpt lat="47.53923" lon="-2.43887">
        <ele>31.6</ele>
        <time>2020-06-06T09:44:43Z</time>
      </trkpt>
      <trkpt lat="47.53927" lon="-2.43895">
        <ele>31.7</ele>
        <time>2020-06-06T09:44:44Z</time>
      </trkpt>
      <trkpt lat="47.53931" lon="-2.43902">
        <ele>31.8</ele>
        <time>2020-06-06T09:44:45Z</time>
      </trkpt>
      <trkpt lat="47.53934" lon="-2.43909">
        <ele>31.9</ele>
        <time>2020-06-06T09:44:46Z</time>
      </trkpt>
      <trkpt lat="47.53938" lon="-2.43916">
        <ele>31.9</ele>
        <time>2020-06-06T09:44:47Z</time>
      </trkpt>
      <trkpt lat="47.53942" lon="-2.43923">
        <ele>31.9</ele>
        <time>2020-06-06T09:44:48Z</time>
      </trkpt>
      <trkpt lat="47.53946" lon="-2.4393">
        <ele>31.9</ele>
        <time>2020-06-06T09:44:49Z</time>
      </trkpt>
      <trkpt lat="47.53949" lon="-2.43938">
        <ele>31.9</ele>
        <time>2020-06-06T09:44:50Z</time>
      </trkpt>
      <trkpt lat="47.53953" lon="-2.43945">
        <ele>31.9</ele>
        <time>2020-06-06T09:44:51Z</time>
      </trkpt>
      <trkpt lat="47.53956" lon="-2.43954">
        <ele>31.9</ele>
        <time>2020-06-06T09:44:52Z</time>
      </trkpt>
      <trkpt lat="47.53959" lon="-2.43963">
        <ele>31.9</ele>
        <time>2020-06-06T09:44:53Z</time>
      </trkpt>
      <trkpt lat="47.53962" lon="-2.4397">
        <ele>31.9</ele>
        <time>2020-06-06T09:44:54Z</time>
      </trkpt>
      <trkpt lat="47.53965" lon="-2.43979">
        <ele>31.9</ele>
        <time>2020-06-06T09:44:55Z</time>
      </trkpt>
      <trkpt lat="47.53968" lon="-2.43987">
        <ele>31.9</ele>
        <time>2020-06-06T09:44:56Z</time>
      </trkpt>
      <trkpt lat="47.5397" lon="-2.43996">
        <ele>31.9</ele>
        <time>2020-06-06T09:44:57Z</time>
      </trkpt>
      <trkpt lat="47.53973" lon="-2.44006">
        <ele>31.8</ele>
        <time>2020-06-06T09:44:58Z</time>
      </trkpt>
      <trkpt lat="47.53975" lon="-2.44015">
        <ele>31.5</ele>
        <time>2020-06-06T09:44:59Z</time>
      </trkpt>
      <trkpt lat="47.53978" lon="-2.44024">
        <ele>31.3</ele>
        <time>2020-06-06T09:45:00Z</time>
      </trkpt>
      <trkpt lat="47.53981" lon="-2.44034">
        <ele>31.1</ele>
        <time>2020-06-06T09:45:01Z</time>
      </trkpt>
      <trkpt lat="47.53984" lon="-2.44043">
        <ele>30.9</ele>
        <time>2020-06-06T09:45:02Z</time>
      </trkpt>
      <trkpt lat="47.53987" lon="-2.44052">
        <ele>30.8</ele>
        <time>2020-06-06T09:45:03Z</time>
      </trkpt>
      <trkpt lat="47.5399" lon="-2.44061">
        <ele>30.6</ele>
        <time>2020-06-06T09:45:04Z</time>
      </trkpt>
      <trkpt lat="47.53992" lon="-2.4407">
        <ele>30.4</ele>
        <time>2020-06-06T09:45:05Z</time>
      </trkpt>
      <trkpt lat="47.53995" lon="-2.44079">
        <ele>30.3</ele>
        <time>2020-06-06T09:45:06Z</time>
      </trkpt>
      <trkpt lat="47.53998" lon="-2.44088">
        <ele>30.1</ele>
        <time>2020-06-06T09:45:07Z</time>
      </trkpt>
      <trkpt lat="47.54" lon="-2.44098">
        <ele>29.9</ele>
        <time>2020-06-06T09:45:08Z</time>
      </trkpt>
      <trkpt lat="47.54002" lon="-2.44107">
        <ele>29.7</ele>
        <time>2020-06-06T09:45:09Z</time>
      </trkpt>
      <trkpt lat="47.54004" lon="-2.44117">
        <ele>29.5</ele>
        <time>2020-06-06T09:45:10Z</time>
      </trkpt>
      <trkpt lat="47.54006" lon="-2.44126">
        <ele>29.3</ele>
        <time>2020-06-06T09:45:11Z</time>
      </trkpt>
      <trkpt lat="47.54008" lon="-2.44136">
        <ele>29.1</ele>
        <time>2020-06-06T09:45:12Z</time>
      </trkpt>
      <trkpt lat="47.5401" lon="-2.44146">
        <ele>28.9</ele>
        <time>2020-06-06T09:45:13Z</time>
      </trkpt>
      <trkpt lat="47.54012" lon="-2.44155">
        <ele>28.7</ele>
        <time>2020-06-06T09:45:14Z</time>
      </trkpt>
      <trkpt lat="47.54014" lon="-2.44164">
        <ele>28.5</ele>
        <time>2020-06-06T09:45:15Z</time>
      </trkpt>
      <trkpt lat="47.54016" lon="-2.44173">
        <ele>28.3</ele>
        <time>2020-06-06T09:45:16Z</time>
      </trkpt>
      <trkpt lat="47.54019" lon="-2.44182">
        <ele>28.1</ele>
        <time>2020-06-06T09:45:17Z</time>
      </trkpt>
      <trkpt lat="47.54021" lon="-2.44191">
        <ele>27.8</ele>
        <time>2020-06-06T09:45:18Z</time>
      </trkpt>
      <trkpt lat="47.54024" lon="-2.44199">
        <ele>27.6</ele>
        <time>2020-06-06T09:45:19Z</time>
      </trkpt>
      <trkpt lat="47.54028" lon="-2.44207">
        <ele>27.3</ele>
        <time>2020-06-06T09:45:20Z</time>
      </trkpt>
      <trkpt lat="47.54031" lon="-2.44216">
        <ele>27.1</ele>
        <time>2020-06-06T09:45:21Z</time>
      </trkpt>
      <trkpt lat="47.54035" lon="-2.44224">
        <ele>26.8</ele>
        <time>2020-06-06T09:45:22Z</time>
      </trkpt>
      <trkpt lat="47.54038" lon="-2.44231">
        <ele>26.5</ele>
        <time>2020-06-06T09:45:23Z</time>
      </trkpt>
      <trkpt lat="47.54043" lon="-2.44239">
        <ele>26.2</ele>
        <time>2020-06-06T09:45:24Z</time>
      </trkpt>
      <trkpt lat="47.54047" lon="-2.44246">
        <ele>25.9</ele>
        <time>2020-06-06T09:45:25Z</time>
      </trkpt>
      <trkpt lat="47.5405" lon="-2.44254">
        <ele>25.6</ele>
        <time>2020-06-06T09:45:26Z</time>
      </trkpt>
      <trkpt lat="47.54053" lon="-2.44263">
        <ele>25.3</ele>
        <time>2020-06-06T09:45:27Z</time>
      </trkpt>
      <trkpt lat="47.54057" lon="-2.44271">
        <ele>24.9</ele>
        <time>2020-06-06T09:45:28Z</time>
      </trkpt>
      <trkpt lat="47.5406" lon="-2.4428">
        <ele>24.5</ele>
        <time>2020-06-06T09:45:29Z</time>
      </trkpt>
      <trkpt lat="47.54064" lon="-2.44289">
        <ele>24.2</ele>
        <time>2020-06-06T09:45:30Z</time>
      </trkpt>
      <trkpt lat="47.54067" lon="-2.44298">
        <ele>23.8</ele>
        <time>2020-06-06T09:45:31Z</time>
      </trkpt>
      <trkpt lat="47.54068" lon="-2.44309">
        <ele>23.4</ele>
        <time>2020-06-06T09:45:32Z</time>
      </trkpt>
      <trkpt lat="47.5407" lon="-2.44319">
        <ele>23</ele>
        <time>2020-06-06T09:45:33Z</time>
      </trkpt>
      <trkpt lat="47.54072" lon="-2.44329">
        <ele>22.7</ele>
        <time>2020-06-06T09:45:34Z</time>
      </trkpt>
      <trkpt lat="47.54073" lon="-2.4434">
        <ele>22.3</ele>
        <time>2020-06-06T09:45:35Z</time>
      </trkpt>
      <trkpt lat="47.54074" lon="-2.4435">
        <ele>22</ele>
        <time>2020-06-06T09:45:36Z</time>
      </trkpt>
      <trkpt lat="47.54076" lon="-2.44361">
        <ele>21.6</ele>
        <time>2020-06-06T09:45:37Z</time>
      </trkpt>
      <trkpt lat="47.54076" lon="-2.44372">
        <ele>21.3</ele>
        <time>2020-06-06T09:45:38Z</time>
      </trkpt>
      <trkpt lat="47.54076" lon="-2.44383">
        <ele>21</ele>
        <time>2020-06-06T09:45:39Z</time>
      </trkpt>
      <trkpt lat="47.54076" lon="-2.44395">
        <ele>20.6</ele>
        <time>2020-06-06T09:45:40Z</time>
      </trkpt>
      <trkpt lat="47.54076" lon="-2.44407">
        <ele>20.2</ele>
        <time>2020-06-06T09:45:41Z</time>
      </trkpt>
      <trkpt lat="47.54076" lon="-2.44419">
        <ele>19.7</ele>
        <time>2020-06-06T09:45:42Z</time>
      </trkpt>
      <trkpt lat="47.54076" lon="-2.44431">
        <ele>19.3</ele>
        <time>2020-06-06T09:45:43Z</time>
      </trkpt>
      <trkpt lat="47.54077" lon="-2.44442">
        <ele>18.9</ele>
        <time>2020-06-06T09:45:44Z</time>
      </trkpt>
      <trkpt lat="47.54078" lon="-2.44454">
        <ele>18.5</ele>
        <time>2020-06-06T09:45:45Z</time>
      </trkpt>
      <trkpt lat="47.5408" lon="-2.44465">
        <ele>17.8</ele>
        <time>2020-06-06T09:45:46Z</time>
      </trkpt>
      <trkpt lat="47.54082" lon="-2.44476">
        <ele>17.8</ele>
        <time>2020-06-06T09:45:47Z</time>
      </trkpt>
      <trkpt lat="47.54085" lon="-2.44486">
        <ele>17.8</ele>
        <time>2020-06-06T09:45:48Z</time>
      </trkpt>
      <trkpt lat="47.54087" lon="-2.44497">
        <ele>17.3</ele>
        <time>2020-06-06T09:45:49Z</time>
      </trkpt>
      <trkpt lat="47.5409" lon="-2.44508">
        <ele>16.8</ele>
        <time>2020-06-06T09:45:50Z</time>
      </trkpt>
      <trkpt lat="47.54092" lon="-2.4452">
        <ele>16.2</ele>
        <time>2020-06-06T09:45:51Z</time>
      </trkpt>
      <trkpt lat="47.54095" lon="-2.44531">
        <ele>15.6</ele>
        <time>2020-06-06T09:45:52Z</time>
      </trkpt>
      <trkpt lat="47.54098" lon="-2.44544">
        <ele>15</ele>
        <time>2020-06-06T09:45:53Z</time>
      </trkpt>
      <trkpt lat="47.54101" lon="-2.44556">
        <ele>14.3</ele>
        <time>2020-06-06T09:45:54Z</time>
      </trkpt>
      <trkpt lat="47.54105" lon="-2.44569">
        <ele>13.6</ele>
        <time>2020-06-06T09:45:55Z</time>
      </trkpt>
      <trkpt lat="47.54109" lon="-2.44582">
        <ele>12.9</ele>
        <time>2020-06-06T09:45:56Z</time>
      </trkpt>
      <trkpt lat="47.54114" lon="-2.44595">
        <ele>12</ele>
        <time>2020-06-06T09:45:57Z</time>
      </trkpt>
      <trkpt lat="47.54119" lon="-2.44609">
        <ele>11.2</ele>
        <time>2020-06-06T09:45:58Z</time>
      </trkpt>
      <trkpt lat="47.54124" lon="-2.44623">
        <ele>10.3</ele>
        <time>2020-06-06T09:45:59Z</time>
      </trkpt>
      <trkpt lat="47.54129" lon="-2.44636">
        <ele>9.4</ele>
        <time>2020-06-06T09:46:00Z</time>
      </trkpt>
      <trkpt lat="47.54135" lon="-2.4465">
        <ele>8.4</ele>
        <time>2020-06-06T09:46:01Z</time>
      </trkpt>
      <trkpt lat="47.54141" lon="-2.44664">
        <ele>7.4</ele>
        <time>2020-06-06T09:46:02Z</time>
      </trkpt>
      <trkpt lat="47.54146" lon="-2.44679">
        <ele>6.6</ele>
        <time>2020-06-06T09:46:03Z</time>
      </trkpt>
      <trkpt lat="47.5415" lon="-2.44694">
        <ele>5.9</ele>
        <time>2020-06-06T09:46:04Z</time>
      </trkpt>
      <trkpt lat="47.54155" lon="-2.44709">
        <ele>5.2</ele>
        <time>2020-06-06T09:46:05Z</time>
      </trkpt>
      <trkpt lat="47.54159" lon="-2.44724">
        <ele>4.7</ele>
        <time>2020-06-06T09:46:06Z</time>
      </trkpt>
      <trkpt lat="47.54163" lon="-2.4474">
        <ele>4.2</ele>
        <time>2020-06-06T09:46:07Z</time>
      </trkpt>
      <trkpt lat="47.54167" lon="-2.44755">
        <ele>3.8</ele>
        <time>2020-06-06T09:46:08Z</time>
      </trkpt>
      <trkpt lat="47.54172" lon="-2.44769">
        <ele>3.6</ele>
        <time>2020-06-06T09:46:09Z</time>
      </trkpt>
      <trkpt lat="47.54176" lon="-2.44784">
        <ele>3.5</ele>
        <time>2020-06-06T09:46:10Z</time>
      </trkpt>
      <trkpt lat="47.54179" lon="-2.44798">
        <ele>3.4</ele>
        <time>2020-06-06T09:46:11Z</time>
      </trkpt>
      <trkpt lat="47.54182" lon="-2.44811">
        <ele>3.3</ele>
        <time>2020-06-06T09:46:12Z</time>
      </trkpt>
      <trkpt lat="47.54186" lon="-2.44823">
        <ele>3.4</ele>
        <time>2020-06-06T09:46:13Z</time>
      </trkpt>
      <trkpt lat="47.54189" lon="-2.44835">
        <ele>3.2</ele>
        <time>2020-06-06T09:46:14Z</time>
      </trkpt>
      <trkpt lat="47.54193" lon="-2.44848">
        <ele>3.1</ele>
        <time>2020-06-06T09:46:15Z</time>
      </trkpt>
      <trkpt lat="47.54197" lon="-2.44861">
        <ele>3</ele>
        <time>2020-06-06T09:46:16Z</time>
      </trkpt>
      <trkpt lat="47.54201" lon="-2.44874">
        <ele>2.9</ele>
        <time>2020-06-06T09:46:17Z</time>
      </trkpt>
      <trkpt lat="47.54207" lon="-2.44886">
        <ele>2.9</ele>
        <time>2020-06-06T09:46:18Z</time>
      </trkpt>
      <trkpt lat="47.54211" lon="-2.44898">
        <ele>3</ele>
        <time>2020-06-06T09:46:19Z</time>
      </trkpt>
      <trkpt lat="47.54216" lon="-2.4491">
        <ele>3.1</ele>
        <time>2020-06-06T09:46:20Z</time>
      </trkpt>
      <trkpt lat="47.54221" lon="-2.44921">
        <ele>3.3</ele>
        <time>2020-06-06T09:46:21Z</time>
      </trkpt>
      <trkpt lat="47.54226" lon="-2.44934">
        <ele>3.5</ele>
        <time>2020-06-06T09:46:22Z</time>
      </trkpt>
      <trkpt lat="47.5423" lon="-2.44946">
        <ele>3.7</ele>
        <time>2020-06-06T09:46:23Z</time>
      </trkpt>
      <trkpt lat="47.54234" lon="-2.44958">
        <ele>3.9</ele>
        <time>2020-06-06T09:46:24Z</time>
      </trkpt>
      <trkpt lat="47.5424" lon="-2.4497">
        <ele>4.1</ele>
        <time>2020-06-06T09:46:25Z</time>
      </trkpt>
      <trkpt lat="47.54246" lon="-2.44982">
        <ele>4.4</ele>
        <time>2020-06-06T09:46:26Z</time>
      </trkpt>
      <trkpt lat="47.54252" lon="-2.44993">
        <ele>4.7</ele>
        <time>2020-06-06T09:46:27Z</time>
      </trkpt>
      <trkpt lat="47.54257" lon="-2.45004">
        <ele>5.1</ele>
        <time>2020-06-06T09:46:28Z</time>
      </trkpt>
      <trkpt lat="47.54261" lon="-2.45015">
        <ele>5.5</ele>
        <time>2020-06-06T09:46:29Z</time>
      </trkpt>
      <trkpt lat="47.54266" lon="-2.45026">
        <ele>6</ele>
        <time>2020-06-06T09:46:30Z</time>
      </trkpt>
      <trkpt lat="47.5427" lon="-2.45036">
        <ele>6.4</ele>
        <time>2020-06-06T09:46:31Z</time>
      </trkpt>
      <trkpt lat="47.54274" lon="-2.45045">
        <ele>6.9</ele>
        <time>2020-06-06T09:46:32Z</time>
      </trkpt>
      <trkpt lat="47.54279" lon="-2.45054">
        <ele>7.5</ele>
        <time>2020-06-06T09:46:33Z</time>
      </trkpt>
      <trkpt lat="47.54283" lon="-2.45063">
        <ele>8.1</ele>
        <time>2020-06-06T09:46:34Z</time>
      </trkpt>
      <trkpt lat="47.54287" lon="-2.45072">
        <ele>8.7</ele>
        <time>2020-06-06T09:46:35Z</time>
      </trkpt>
      <trkpt lat="47.5429" lon="-2.45079">
        <ele>9.3</ele>
        <time>2020-06-06T09:46:36Z</time>
      </trkpt>
      <trkpt lat="47.54293" lon="-2.45087">
        <ele>9.8</ele>
        <time>2020-06-06T09:46:37Z</time>
      </trkpt>
      <trkpt lat="47.54296" lon="-2.45094">
        <ele>10.4</ele>
        <time>2020-06-06T09:46:38Z</time>
      </trkpt>
      <trkpt lat="47.54298" lon="-2.45102">
        <ele>10.9</ele>
        <time>2020-06-06T09:46:39Z</time>
      </trkpt>
      <trkpt lat="47.54301" lon="-2.45109">
        <ele>11.3</ele>
        <time>2020-06-06T09:46:40Z</time>
      </trkpt>
      <trkpt lat="47.54304" lon="-2.45115">
        <ele>11.8</ele>
        <time>2020-06-06T09:46:41Z</time>
      </trkpt>
      <trkpt lat="47.54306" lon="-2.45121">
        <ele>12.1</ele>
        <time>2020-06-06T09:46:42Z</time>
      </trkpt>
      <trkpt lat="47.54308" lon="-2.45127">
        <ele>12.5</ele>
        <time>2020-06-06T09:46:43Z</time>
      </trkpt>
      <trkpt lat="47.5431" lon="-2.45133">
        <ele>12.9</ele>
        <time>2020-06-06T09:46:44Z</time>
      </trkpt>
      <trkpt lat="47.54312" lon="-2.45139">
        <ele>13.2</ele>
        <time>2020-06-06T09:46:45Z</time>
      </trkpt>
      <trkpt lat="47.54314" lon="-2.45145">
        <ele>13.5</ele>
        <time>2020-06-06T09:46:46Z</time>
      </trkpt>
      <trkpt lat="47.54317" lon="-2.45151">
        <ele>13.8</ele>
        <time>2020-06-06T09:46:47Z</time>
      </trkpt>
      <trkpt lat="47.54319" lon="-2.45156">
        <ele>14.1</ele>
        <time>2020-06-06T09:46:48Z</time>
      </trkpt>
      <trkpt lat="47.54321" lon="-2.45162">
        <ele>14.4</ele>
        <time>2020-06-06T09:46:49Z</time>
      </trkpt>
      <trkpt lat="47.54322" lon="-2.45168">
        <ele>14.6</ele>
        <time>2020-06-06T09:46:50Z</time>
      </trkpt>
      <trkpt lat="47.54323" lon="-2.45173">
        <ele>14.8</ele>
        <time>2020-06-06T09:46:51Z</time>
      </trkpt>
      <trkpt lat="47.54324" lon="-2.45178">
        <ele>15.1</ele>
        <time>2020-06-06T09:46:52Z</time>
      </trkpt>
      <trkpt lat="47.54325" lon="-2.45183">
        <ele>15.2</ele>
        <time>2020-06-06T09:46:53Z</time>
      </trkpt>
      <trkpt lat="47.54327" lon="-2.45187">
        <ele>15.3</ele>
        <time>2020-06-06T09:46:54Z</time>
      </trkpt>
      <trkpt lat="47.54328" lon="-2.4519">
        <ele>15.4</ele>
        <time>2020-06-06T09:46:55Z</time>
      </trkpt>
      <trkpt lat="47.5433" lon="-2.45196">
        <ele>15.5</ele>
        <time>2020-06-06T09:46:56Z</time>
      </trkpt>
      <trkpt lat="47.5433" lon="-2.45198">
        <ele>15.5</ele>
        <time>2020-06-06T09:46:57Z</time>
      </trkpt>
      <trkpt lat="47.54331" lon="-2.45203">
        <ele>15.5</ele>
        <time>2020-06-06T09:46:58Z</time>
      </trkpt>
      <trkpt lat="47.54333" lon="-2.45207">
        <ele>15.8</ele>
        <time>2020-06-06T09:46:59Z</time>
      </trkpt>
      <trkpt lat="47.54335" lon="-2.4521">
        <ele>16</ele>
        <time>2020-06-06T09:47:00Z</time>
      </trkpt>
      <trkpt lat="47.54336" lon="-2.45214">
        <ele>16.3</ele>
        <time>2020-06-06T09:47:01Z</time>
      </trkpt>
      <trkpt lat="47.54337" lon="-2.45219">
        <ele>16.6</ele>
        <time>2020-06-06T09:47:02Z</time>
      </trkpt>
      <trkpt lat="47.54337" lon="-2.45221">
        <ele>16.7</ele>
        <time>2020-06-06T09:47:03Z</time>
      </trkpt>
      <trkpt lat="47.54339" lon="-2.45225">
        <ele>17</ele>
        <time>2020-06-06T09:47:04Z</time>
      </trkpt>
      <trkpt lat="47.54341" lon="-2.45229">
        <ele>17.2</ele>
        <time>2020-06-06T09:47:05Z</time>
      </trkpt>
      <trkpt lat="47.54342" lon="-2.45233">
        <ele>17.5</ele>
        <time>2020-06-06T09:47:06Z</time>
      </trkpt>
      <trkpt lat="47.54343" lon="-2.45235">
        <ele>17.6</ele>
        <time>2020-06-06T09:47:07Z</time>
      </trkpt>
      <trkpt lat="47.54344" lon="-2.4524">
        <ele>17.9</ele>
        <time>2020-06-06T09:47:08Z</time>
      </trkpt>
      <trkpt lat="47.54345" lon="-2.45242">
        <ele>18</ele>
        <time>2020-06-06T09:47:09Z</time>
      </trkpt>
      <trkpt lat="47.54346" lon="-2.45246">
        <ele>18.3</ele>
        <time>2020-06-06T09:47:10Z</time>
      </trkpt>
      <trkpt lat="47.54347" lon="-2.45249">
        <ele>18.5</ele>
        <time>2020-06-06T09:47:11Z</time>
      </trkpt>
      <trkpt lat="47.54348" lon="-2.45252">
        <ele>18.7</ele>
        <time>2020-06-06T09:47:12Z</time>
      </trkpt>
      <trkpt lat="47.54349" lon="-2.45254">
        <ele>18.8</ele>
        <time>2020-06-06T09:47:13Z</time>
      </trkpt>
      <trkpt lat="47.5435" lon="-2.45258">
        <ele>19.1</ele>
        <time>2020-06-06T09:47:14Z</time>
      </trkpt>
      <trkpt lat="47.5435" lon="-2.45259">
        <ele>19.2</ele>
        <time>2020-06-06T09:47:15Z</time>
      </trkpt>
      <trkpt lat="47.54351" lon="-2.45265">
        <ele>19.5</ele>
        <time>2020-06-06T09:47:16Z</time>
      </trkpt>
      <trkpt lat="47.54352" lon="-2.45266">
        <ele>19.6</ele>
        <time>2020-06-06T09:47:17Z</time>
      </trkpt>
      <trkpt lat="47.54354" lon="-2.45271">
        <ele>19.9</ele>
        <time>2020-06-06T09:47:18Z</time>
      </trkpt>
      <trkpt lat="47.54354" lon="-2.45272">
        <ele>20</ele>
        <time>2020-06-06T09:47:19Z</time>
      </trkpt>
      <trkpt lat="47.54356" lon="-2.45276">
        <ele>20.3</ele>
        <time>2020-06-06T09:47:20Z</time>
      </trkpt>
      <trkpt lat="47.54357" lon="-2.45278">
        <ele>20.4</ele>
        <time>2020-06-06T09:47:21Z</time>
      </trkpt>
      <trkpt lat="47.54358" lon="-2.45283">
        <ele>20.7</ele>
        <time>2020-06-06T09:47:22Z</time>
      </trkpt>
      <trkpt lat="47.54358" lon="-2.45284">
        <ele>20.7</ele>
        <time>2020-06-06T09:47:23Z</time>
      </trkpt>
      <trkpt lat="47.5436" lon="-2.4529">
        <ele>21.1</ele>
        <time>2020-06-06T09:47:24Z</time>
      </trkpt>
      <trkpt lat="47.5436" lon="-2.45291">
        <ele>21.2</ele>
        <time>2020-06-06T09:47:25Z</time>
      </trkpt>
      <trkpt lat="47.54362" lon="-2.45296">
        <ele>21.4</ele>
        <time>2020-06-06T09:47:26Z</time>
      </trkpt>
      <trkpt lat="47.54363" lon="-2.45297">
        <ele>21.5</ele>
        <time>2020-06-06T09:47:27Z</time>
      </trkpt>
      <trkpt lat="47.54364" lon="-2.453">
        <ele>21.7</ele>
        <time>2020-06-06T09:47:28Z</time>
      </trkpt>
      <trkpt lat="47.54366" lon="-2.45304">
        <ele>21.9</ele>
        <time>2020-06-06T09:47:29Z</time>
      </trkpt>
      <trkpt lat="47.54368" lon="-2.45309">
        <ele>22.2</ele>
        <time>2020-06-06T09:47:30Z</time>
      </trkpt>
      <trkpt lat="47.54368" lon="-2.45312">
        <ele>22.3</ele>
        <time>2020-06-06T09:47:31Z</time>
      </trkpt>
      <trkpt lat="47.54369" lon="-2.45317">
        <ele>22.5</ele>
        <time>2020-06-06T09:47:32Z</time>
      </trkpt>
      <trkpt lat="47.54369" lon="-2.45319">
        <ele>22.6</ele>
        <time>2020-06-06T09:47:33Z</time>
      </trkpt>
      <trkpt lat="47.5437" lon="-2.45323">
        <ele>22.8</ele>
        <time>2020-06-06T09:47:34Z</time>
      </trkpt>
      <trkpt lat="47.54371" lon="-2.45327">
        <ele>23</ele>
        <time>2020-06-06T09:47:35Z</time>
      </trkpt>
      <trkpt lat="47.54371" lon="-2.45332">
        <ele>23.2</ele>
        <time>2020-06-06T09:47:36Z</time>
      </trkpt>
      <trkpt lat="47.54373" lon="-2.45337">
        <ele>23.4</ele>
        <time>2020-06-06T09:47:37Z</time>
      </trkpt>
      <trkpt lat="47.54374" lon="-2.45342">
        <ele>23.7</ele>
        <time>2020-06-06T09:47:38Z</time>
      </trkpt>
      <trkpt lat="47.54375" lon="-2.45346">
        <ele>23.8</ele>
        <time>2020-06-06T09:47:39Z</time>
      </trkpt>
      <trkpt lat="47.54377" lon="-2.45351">
        <ele>24.1</ele>
        <time>2020-06-06T09:47:40Z</time>
      </trkpt>
      <trkpt lat="47.54377" lon="-2.45353">
        <ele>24.2</ele>
        <time>2020-06-06T09:47:41Z</time>
      </trkpt>
      <trkpt lat="47.54379" lon="-2.45358">
        <ele>24.3</ele>
        <time>2020-06-06T09:47:42Z</time>
      </trkpt>
      <trkpt lat="47.5438" lon="-2.45363">
        <ele>24.6</ele>
        <time>2020-06-06T09:47:43Z</time>
      </trkpt>
      <trkpt lat="47.54381" lon="-2.45367">
        <ele>24.7</ele>
        <time>2020-06-06T09:47:44Z</time>
      </trkpt>
      <trkpt lat="47.54383" lon="-2.45373">
        <ele>24.9</ele>
        <time>2020-06-06T09:47:45Z</time>
      </trkpt>
      <trkpt lat="47.54384" lon="-2.45377">
        <ele>25.1</ele>
        <time>2020-06-06T09:47:46Z</time>
      </trkpt>
      <trkpt lat="47.54385" lon="-2.45383">
        <ele>25.3</ele>
        <time>2020-06-06T09:47:47Z</time>
      </trkpt>
      <trkpt lat="47.54386" lon="-2.45386">
        <ele>25.4</ele>
        <time>2020-06-06T09:47:48Z</time>
      </trkpt>
      <trkpt lat="47.54386" lon="-2.4539">
        <ele>25.6</ele>
        <time>2020-06-06T09:47:49Z</time>
      </trkpt>
      <trkpt lat="47.54386" lon="-2.45395">
        <ele>25.8</ele>
        <time>2020-06-06T09:47:50Z</time>
      </trkpt>
      <trkpt lat="47.54386" lon="-2.454">
        <ele>25.9</ele>
        <time>2020-06-06T09:47:51Z</time>
      </trkpt>
      <trkpt lat="47.54387" lon="-2.45405">
        <ele>26.1</ele>
        <time>2020-06-06T09:47:52Z</time>
      </trkpt>
      <trkpt lat="47.54388" lon="-2.4541">
        <ele>26.3</ele>
        <time>2020-06-06T09:47:53Z</time>
      </trkpt>
      <trkpt lat="47.54388" lon="-2.45414">
        <ele>26.5</ele>
        <time>2020-06-06T09:47:54Z</time>
      </trkpt>
      <trkpt lat="47.54388" lon="-2.45419">
        <ele>26.7</ele>
        <time>2020-06-06T09:47:55Z</time>
      </trkpt>
      <trkpt lat="47.54388" lon="-2.45421">
        <ele>26.8</ele>
        <time>2020-06-06T09:47:56Z</time>
      </trkpt>
      <trkpt lat="47.54389" lon="-2.45426">
        <ele>26.9</ele>
        <time>2020-06-06T09:47:57Z</time>
      </trkpt>
      <trkpt lat="47.5439" lon="-2.45432">
        <ele>27.2</ele>
        <time>2020-06-06T09:47:58Z</time>
      </trkpt>
      <trkpt lat="47.54392" lon="-2.45436">
        <ele>27.5</ele>
        <time>2020-06-06T09:47:59Z</time>
      </trkpt>
      <trkpt lat="47.54392" lon="-2.45438">
        <ele>27.5</ele>
        <time>2020-06-06T09:48:00Z</time>
      </trkpt>
      <trkpt lat="47.54393" lon="-2.45442">
        <ele>27.7</ele>
        <time>2020-06-06T09:48:01Z</time>
      </trkpt>
      <trkpt lat="47.54394" lon="-2.45448">
        <ele>28</ele>
        <time>2020-06-06T09:48:02Z</time>
      </trkpt>
      <trkpt lat="47.54395" lon="-2.45451">
        <ele>28.1</ele>
        <time>2020-06-06T09:48:03Z</time>
      </trkpt>
      <trkpt lat="47.54395" lon="-2.45456">
        <ele>28.4</ele>
        <time>2020-06-06T09:48:04Z</time>
      </trkpt>
      <trkpt lat="47.54396" lon="-2.45461">
        <ele>28.6</ele>
        <time>2020-06-06T09:48:05Z</time>
      </trkpt>
      <trkpt lat="47.54398" lon="-2.45466">
        <ele>28.8</ele>
        <time>2020-06-06T09:48:06Z</time>
      </trkpt>
      <trkpt lat="47.54397" lon="-2.45471">
        <ele>29</ele>
        <time>2020-06-06T09:48:07Z</time>
      </trkpt>
      <trkpt lat="47.54398" lon="-2.45476">
        <ele>29.3</ele>
        <time>2020-06-06T09:48:08Z</time>
      </trkpt>
      <trkpt lat="47.544" lon="-2.45482">
        <ele>29.6</ele>
        <time>2020-06-06T09:48:09Z</time>
      </trkpt>
      <trkpt lat="47.54402" lon="-2.45488">
        <ele>29.9</ele>
        <time>2020-06-06T09:48:10Z</time>
      </trkpt>
      <trkpt lat="47.54404" lon="-2.45493">
        <ele>30.2</ele>
        <time>2020-06-06T09:48:11Z</time>
      </trkpt>
      <trkpt lat="47.54407" lon="-2.45498">
        <ele>30.5</ele>
        <time>2020-06-06T09:48:12Z</time>
      </trkpt>
      <trkpt lat="47.54409" lon="-2.45502">
        <ele>30.7</ele>
        <time>2020-06-06T09:48:13Z</time>
      </trkpt>
      <trkpt lat="47.54409" lon="-2.45506">
        <ele>30.9</ele>
        <time>2020-06-06T09:48:14Z</time>
      </trkpt>
      <trkpt lat="47.54411" lon="-2.4551">
        <ele>31.1</ele>
        <time>2020-06-06T09:48:15Z</time>
      </trkpt>
      <trkpt lat="47.54412" lon="-2.45514">
        <ele>31.3</ele>
        <time>2020-06-06T09:48:16Z</time>
      </trkpt>
      <trkpt lat="47.54413" lon="-2.45519">
        <ele>31.5</ele>
        <time>2020-06-06T09:48:17Z</time>
      </trkpt>
      <trkpt lat="47.54415" lon="-2.45523">
        <ele>31.7</ele>
        <time>2020-06-06T09:48:18Z</time>
      </trkpt>
      <trkpt lat="47.54417" lon="-2.45527">
        <ele>31.9</ele>
        <time>2020-06-06T09:48:19Z</time>
      </trkpt>
      <trkpt lat="47.54418" lon="-2.45531">
        <ele>32.2</ele>
        <time>2020-06-06T09:48:20Z</time>
      </trkpt>
      <trkpt lat="47.54419" lon="-2.45535">
        <ele>32.4</ele>
        <time>2020-06-06T09:48:21Z</time>
      </trkpt>
      <trkpt lat="47.54422" lon="-2.4554">
        <ele>32.7</ele>
        <time>2020-06-06T09:48:22Z</time>
      </trkpt>
      <trkpt lat="47.54424" lon="-2.45546">
        <ele>33</ele>
        <time>2020-06-06T09:48:23Z</time>
      </trkpt>
      <trkpt lat="47.54425" lon="-2.45549">
        <ele>33.2</ele>
        <time>2020-06-06T09:48:24Z</time>
      </trkpt>
      <trkpt lat="47.54427" lon="-2.45554">
        <ele>33.4</ele>
        <time>2020-06-06T09:48:25Z</time>
      </trkpt>
      <trkpt lat="47.54428" lon="-2.45558">
        <ele>33.6</ele>
        <time>2020-06-06T09:48:26Z</time>
      </trkpt>
      <trkpt lat="47.5443" lon="-2.45562">
        <ele>33.8</ele>
        <time>2020-06-06T09:48:27Z</time>
      </trkpt>
      <trkpt lat="47.54432" lon="-2.45567">
        <ele>34.1</ele>
        <time>2020-06-06T09:48:28Z</time>
      </trkpt>
      <trkpt lat="47.54433" lon="-2.45571">
        <ele>34.3</ele>
        <time>2020-06-06T09:48:29Z</time>
      </trkpt>
      <trkpt lat="47.54435" lon="-2.45575">
        <ele>34.5</ele>
        <time>2020-06-06T09:48:30Z</time>
      </trkpt>
      <trkpt lat="47.54437" lon="-2.4558">
        <ele>34.7</ele>
        <time>2020-06-06T09:48:31Z</time>
      </trkpt>
      <trkpt lat="47.54438" lon="-2.45582">
        <ele>34.8</ele>
        <time>2020-06-06T09:48:32Z</time>
      </trkpt>
      <trkpt lat="47.54441" lon="-2.45586">
        <ele>35.1</ele>
        <time>2020-06-06T09:48:33Z</time>
      </trkpt>
      <trkpt lat="47.54442" lon="-2.4559">
        <ele>35.2</ele>
        <time>2020-06-06T09:48:34Z</time>
      </trkpt>
      <trkpt lat="47.54444" lon="-2.45594">
        <ele>35.5</ele>
        <time>2020-06-06T09:48:35Z</time>
      </trkpt>
      <trkpt lat="47.54445" lon="-2.45599">
        <ele>35.7</ele>
        <time>2020-06-06T09:48:36Z</time>
      </trkpt>
      <trkpt lat="47.54447" lon="-2.45604">
        <ele>36</ele>
        <time>2020-06-06T09:48:37Z</time>
      </trkpt>
      <trkpt lat="47.54448" lon="-2.4561">
        <ele>36.2</ele>
        <time>2020-06-06T09:48:38Z</time>
      </trkpt>
      <trkpt lat="47.5445" lon="-2.45614">
        <ele>36.5</ele>
        <time>2020-06-06T09:48:39Z</time>
      </trkpt>
      <trkpt lat="47.54451" lon="-2.45619">
        <ele>36.7</ele>
        <time>2020-06-06T09:48:40Z</time>
      </trkpt>
      <trkpt lat="47.54452" lon="-2.45624">
        <ele>36.9</ele>
        <time>2020-06-06T09:48:41Z</time>
      </trkpt>
      <trkpt lat="47.54453" lon="-2.45626">
        <ele>37</ele>
        <time>2020-06-06T09:48:42Z</time>
      </trkpt>
      <trkpt lat="47.54454" lon="-2.45631">
        <ele>37.3</ele>
        <time>2020-06-06T09:48:43Z</time>
      </trkpt>
      <trkpt lat="47.54456" lon="-2.45635">
        <ele>37.4</ele>
        <time>2020-06-06T09:48:44Z</time>
      </trkpt>
      <trkpt lat="47.54457" lon="-2.4564">
        <ele>37.6</ele>
        <time>2020-06-06T09:48:45Z</time>
      </trkpt>
      <trkpt lat="47.54459" lon="-2.45645">
        <ele>37.8</ele>
        <time>2020-06-06T09:48:46Z</time>
      </trkpt>
      <trkpt lat="47.54461" lon="-2.45649">
        <ele>38</ele>
        <time>2020-06-06T09:48:47Z</time>
      </trkpt>
      <trkpt lat="47.54461" lon="-2.45653">
        <ele>38.1</ele>
        <time>2020-06-06T09:48:48Z</time>
      </trkpt>
      <trkpt lat="47.54461" lon="-2.4566">
        <ele>38.3</ele>
        <time>2020-06-06T09:48:49Z</time>
      </trkpt>
      <trkpt lat="47.54461" lon="-2.45665">
        <ele>38.5</ele>
        <time>2020-06-06T09:48:50Z</time>
      </trkpt>
      <trkpt lat="47.54461" lon="-2.45667">
        <ele>38.5</ele>
        <time>2020-06-06T09:48:51Z</time>
      </trkpt>
      <trkpt lat="47.5446" lon="-2.45673">
        <ele>38.6</ele>
        <time>2020-06-06T09:48:52Z</time>
      </trkpt>
      <trkpt lat="47.5446" lon="-2.45678">
        <ele>38.7</ele>
        <time>2020-06-06T09:48:53Z</time>
      </trkpt>
      <trkpt lat="47.5446" lon="-2.45682">
        <ele>38.7</ele>
        <time>2020-06-06T09:48:54Z</time>
      </trkpt>
      <trkpt lat="47.54461" lon="-2.45687">
        <ele>38.8</ele>
        <time>2020-06-06T09:48:55Z</time>
      </trkpt>
      <trkpt lat="47.54461" lon="-2.45691">
        <ele>38.9</ele>
        <time>2020-06-06T09:48:56Z</time>
      </trkpt>
      <trkpt lat="47.54461" lon="-2.45693">
        <ele>38.9</ele>
        <time>2020-06-06T09:48:57Z</time>
      </trkpt>
      <trkpt lat="47.54461" lon="-2.45696">
        <ele>38.9</ele>
        <time>2020-06-06T09:48:58Z</time>
      </trkpt>
      <trkpt lat="47.54461" lon="-2.45696">
        <ele>38.9</ele>
        <time>2020-06-06T09:48:59Z</time>
      </trkpt>
      <trkpt lat="47.54461" lon="-2.45697">
        <ele>38.9</ele>
        <time>2020-06-06T09:49:00Z</time>
      </trkpt>
      <trkpt lat="47.54461" lon="-2.45698">
        <ele>38.9</ele>
        <time>2020-06-06T09:49:01Z</time>
      </trkpt>
      <trkpt lat="47.5446" lon="-2.45698">
        <ele>38.9</ele>
        <time>2020-06-06T09:49:02Z</time>
      </trkpt>
      <trkpt lat="47.5446" lon="-2.45699">
        <ele>38.9</ele>
        <time>2020-06-06T09:49:03Z</time>
      </trkpt>
      <trkpt lat="47.5446" lon="-2.45699">
        <ele>38.9</ele>
        <time>2020-06-06T09:49:04Z</time>
      </trkpt>
      <trkpt lat="47.5446" lon="-2.457">
        <ele>38.9</ele>
        <time>2020-06-06T09:49:05Z</time>
      </trkpt>
      <trkpt lat="47.5446" lon="-2.457">
        <ele>38.9</ele>
        <time>2020-06-06T09:49:06Z</time>
      </trkpt>
      <trkpt lat="47.54459" lon="-2.45701">
        <ele>38.9</ele>
        <time>2020-06-06T09:49:07Z</time>
      </trkpt>
      <trkpt lat="47.54459" lon="-2.45701">
        <ele>39</ele>
        <time>2020-06-06T09:49:08Z</time>
      </trkpt>
      <trkpt lat="47.54459" lon="-2.45702">
        <ele>39</ele>
        <time>2020-06-06T09:49:09Z</time>
      </trkpt>
      <trkpt lat="47.54459" lon="-2.45702">
        <ele>39</ele>
        <time>2020-06-06T09:49:51Z</time>
      </trkpt>
      <trkpt lat="47.54458" lon="-2.45703">
        <ele>39</ele>
        <time>2020-06-06T09:49:52Z</time>
      </trkpt>
      <trkpt lat="47.54459" lon="-2.45708">
        <ele>39</ele>
        <time>2020-06-06T09:49:53Z</time>
      </trkpt>
      <trkpt lat="47.54459" lon="-2.4571">
        <ele>39</ele>
        <time>2020-06-06T09:49:54Z</time>
      </trkpt>
      <trkpt lat="47.54459" lon="-2.45715">
        <ele>39</ele>
        <time>2020-06-06T09:49:55Z</time>
      </trkpt>
      <trkpt lat="47.54459" lon="-2.45716">
        <ele>39.1</ele>
        <time>2020-06-06T09:49:56Z</time>
      </trkpt>
      <trkpt lat="47.54459" lon="-2.45719">
        <ele>39.1</ele>
        <time>2020-06-06T09:49:57Z</time>
      </trkpt>
      <trkpt lat="47.54458" lon="-2.45722">
        <ele>39.1</ele>
        <time>2020-06-06T09:49:58Z</time>
      </trkpt>
      <trkpt lat="47.54457" lon="-2.45723">
        <ele>39.1</ele>
        <time>2020-06-06T09:49:59Z</time>
      </trkpt>
      <trkpt lat="47.54457" lon="-2.45725">
        <ele>39.1</ele>
        <time>2020-06-06T09:50:00Z</time>
      </trkpt>
      <trkpt lat="47.54456" lon="-2.45729">
        <ele>39.1</ele>
        <time>2020-06-06T09:50:01Z</time>
      </trkpt>
      <trkpt lat="47.54456" lon="-2.45731">
        <ele>39.1</ele>
        <time>2020-06-06T09:50:02Z</time>
      </trkpt>
      <trkpt lat="47.54457" lon="-2.45735">
        <ele>39</ele>
        <time>2020-06-06T09:50:03Z</time>
      </trkpt>
      <trkpt lat="47.5446" lon="-2.45738">
        <ele>39</ele>
        <time>2020-06-06T09:50:04Z</time>
      </trkpt>
      <trkpt lat="47.5446" lon="-2.4574">
        <ele>39</ele>
        <time>2020-06-06T09:50:05Z</time>
      </trkpt>
      <trkpt lat="47.54463" lon="-2.45743">
        <ele>39</ele>
        <time>2020-06-06T09:50:06Z</time>
      </trkpt>
      <trkpt lat="47.54464" lon="-2.45745">
        <ele>39</ele>
        <time>2020-06-06T09:50:07Z</time>
      </trkpt>
      <trkpt lat="47.54466" lon="-2.45749">
        <ele>38.9</ele>
        <time>2020-06-06T09:50:08Z</time>
      </trkpt>
      <trkpt lat="47.54467" lon="-2.45753">
        <ele>38.9</ele>
        <time>2020-06-06T09:50:09Z</time>
      </trkpt>
      <trkpt lat="47.54467" lon="-2.45754">
        <ele>38.9</ele>
        <time>2020-06-06T09:50:10Z</time>
      </trkpt>
      <trkpt lat="47.54469" lon="-2.45759">
        <ele>38.8</ele>
        <time>2020-06-06T09:50:11Z</time>
      </trkpt>
      <trkpt lat="47.54469" lon="-2.45761">
        <ele>38.8</ele>
        <time>2020-06-06T09:50:12Z</time>
      </trkpt>
      <trkpt lat="47.5447" lon="-2.45766">
        <ele>38.8</ele>
        <time>2020-06-06T09:50:13Z</time>
      </trkpt>
      <trkpt lat="47.5447" lon="-2.45767">
        <ele>38.8</ele>
        <time>2020-06-06T09:50:14Z</time>
      </trkpt>
      <trkpt lat="47.54472" lon="-2.45771">
        <ele>38.7</ele>
        <time>2020-06-06T09:50:15Z</time>
      </trkpt>
      <trkpt lat="47.54472" lon="-2.45773">
        <ele>38.7</ele>
        <time>2020-06-06T09:50:16Z</time>
      </trkpt>
      <trkpt lat="47.54472" lon="-2.45774">
        <ele>38.7</ele>
        <time>2020-06-06T09:50:17Z</time>
      </trkpt>
      <trkpt lat="47.54472" lon="-2.45774">
        <ele>38.7</ele>
        <time>2020-06-06T09:50:18Z</time>
      </trkpt>
      <trkpt lat="47.54472" lon="-2.45775">
        <ele>38.7</ele>
        <time>2020-06-06T09:50:19Z</time>
      </trkpt>
      <trkpt lat="47.54473" lon="-2.45775">
        <ele>38.7</ele>
        <time>2020-06-06T09:50:20Z</time>
      </trkpt>
      <trkpt lat="47.54473" lon="-2.45776">
        <ele>38.7</ele>
        <time>2020-06-06T09:50:21Z</time>
      </trkpt>
      <trkpt lat="47.54473" lon="-2.45776">
        <ele>38.7</ele>
        <time>2020-06-06T09:50:22Z</time>
      </trkpt>
      <trkpt lat="47.54473" lon="-2.45777">
        <ele>38.6</ele>
        <time>2020-06-06T09:50:23Z</time>
      </trkpt>
      <trkpt lat="47.54474" lon="-2.45777">
        <ele>38.6</ele>
        <time>2020-06-06T09:50:24Z</time>
      </trkpt>
      <trkpt lat="47.54474" lon="-2.45778">
        <ele>38.6</ele>
        <time>2020-06-06T09:50:25Z</time>
      </trkpt>
      <trkpt lat="47.54474" lon="-2.45778">
        <ele>38.6</ele>
        <time>2020-06-06T09:50:26Z</time>
      </trkpt>
      <trkpt lat="47.54474" lon="-2.45779">
        <ele>38.6</ele>
        <time>2020-06-06T09:50:27Z</time>
      </trkpt>
      <trkpt lat="47.54475" lon="-2.45779">
        <ele>38.6</ele>
        <time>2020-06-06T09:50:28Z</time>
      </trkpt>
      <trkpt lat="47.54475" lon="-2.4578">
        <ele>38.6</ele>
        <time>2020-06-06T09:50:29Z</time>
      </trkpt>
      <trkpt lat="47.54475" lon="-2.4578">
        <ele>38.6</ele>
        <time>2020-06-06T09:50:30Z</time>
      </trkpt>
      <trkpt lat="47.54475" lon="-2.45781">
        <ele>38.6</ele>
        <time>2020-06-06T09:50:31Z</time>
      </trkpt>
      <trkpt lat="47.54476" lon="-2.45781">
        <ele>38.6</ele>
        <time>2020-06-06T09:50:59Z</time>
      </trkpt>
      <trkpt lat="47.54476" lon="-2.45782">
        <ele>38.6</ele>
        <time>2020-06-06T09:51:00Z</time>
      </trkpt>
      <trkpt lat="47.54476" lon="-2.45782">
        <ele>38.6</ele>
        <time>2020-06-06T09:51:01Z</time>
      </trkpt>
      <trkpt lat="47.54476" lon="-2.45782">
        <ele>38.6</ele>
        <time>2020-06-06T09:51:02Z</time>
      </trkpt>
      <trkpt lat="47.54477" lon="-2.45783">
        <ele>38.6</ele>
        <time>2020-06-06T09:51:03Z</time>
      </trkpt>
      <trkpt lat="47.54477" lon="-2.45783">
        <ele>38.6</ele>
        <time>2020-06-06T09:51:04Z</time>
      </trkpt>
      <trkpt lat="47.54477" lon="-2.45784">
        <ele>38.6</ele>
        <time>2020-06-06T09:51:05Z</time>
      </trkpt>
      <trkpt lat="47.54477" lon="-2.45784">
        <ele>38.5</ele>
        <time>2020-06-06T09:51:06Z</time>
      </trkpt>
      <trkpt lat="47.54478" lon="-2.45785">
        <ele>38.5</ele>
        <time>2020-06-06T09:51:07Z</time>
      </trkpt>
      <trkpt lat="47.54478" lon="-2.45785">
        <ele>38.5</ele>
        <time>2020-06-06T09:51:08Z</time>
      </trkpt>
      <trkpt lat="47.54478" lon="-2.45786">
        <ele>38.5</ele>
        <time>2020-06-06T09:51:09Z</time>
      </trkpt>
      <trkpt lat="47.54478" lon="-2.45786">
        <ele>38.5</ele>
        <time>2020-06-06T09:51:10Z</time>
      </trkpt>
      <trkpt lat="47.54479" lon="-2.45787">
        <ele>38.5</ele>
        <time>2020-06-06T09:52:30Z</time>
      </trkpt>
      <trkpt lat="47.54479" lon="-2.45787">
        <ele>38.5</ele>
        <time>2020-06-06T09:52:31Z</time>
      </trkpt>
      <trkpt lat="47.54481" lon="-2.45791">
        <ele>38.5</ele>
        <time>2020-06-06T09:52:32Z</time>
      </trkpt>
      <trkpt lat="47.54482" lon="-2.45795">
        <ele>38.4</ele>
        <time>2020-06-06T09:52:33Z</time>
      </trkpt>
      <trkpt lat="47.54483" lon="-2.458">
        <ele>38.3</ele>
        <time>2020-06-06T09:52:34Z</time>
      </trkpt>
      <trkpt lat="47.54485" lon="-2.45804">
        <ele>38.3</ele>
        <time>2020-06-06T09:52:35Z</time>
      </trkpt>
      <trkpt lat="47.54487" lon="-2.45809">
        <ele>38.2</ele>
        <time>2020-06-06T09:52:36Z</time>
      </trkpt>
      <trkpt lat="47.5449" lon="-2.45815">
        <ele>38.1</ele>
        <time>2020-06-06T09:52:37Z</time>
      </trkpt>
      <trkpt lat="47.54491" lon="-2.4582">
        <ele>38</ele>
        <time>2020-06-06T09:52:38Z</time>
      </trkpt>
      <trkpt lat="47.54492" lon="-2.45825">
        <ele>37.9</ele>
        <time>2020-06-06T09:52:39Z</time>
      </trkpt>
      <trkpt lat="47.54494" lon="-2.4583">
        <ele>37.8</ele>
        <time>2020-06-06T09:52:40Z</time>
      </trkpt>
      <trkpt lat="47.54496" lon="-2.45835">
        <ele>37.8</ele>
        <time>2020-06-06T09:52:41Z</time>
      </trkpt>
      <trkpt lat="47.54497" lon="-2.4584">
        <ele>37.7</ele>
        <time>2020-06-06T09:52:42Z</time>
      </trkpt>
      <trkpt lat="47.54499" lon="-2.45846">
        <ele>37.5</ele>
        <time>2020-06-06T09:52:43Z</time>
      </trkpt>
      <trkpt lat="47.54501" lon="-2.45852">
        <ele>37.4</ele>
        <time>2020-06-06T09:52:44Z</time>
      </trkpt>
      <trkpt lat="47.54503" lon="-2.45859">
        <ele>37.2</ele>
        <time>2020-06-06T09:52:45Z</time>
      </trkpt>
      <trkpt lat="47.54506" lon="-2.45865">
        <ele>37.1</ele>
        <time>2020-06-06T09:52:46Z</time>
      </trkpt>
      <trkpt lat="47.54508" lon="-2.45871">
        <ele>37</ele>
        <time>2020-06-06T09:52:47Z</time>
      </trkpt>
      <trkpt lat="47.54511" lon="-2.45878">
        <ele>36.8</ele>
        <time>2020-06-06T09:52:48Z</time>
      </trkpt>
      <trkpt lat="47.54514" lon="-2.45886">
        <ele>36.7</ele>
        <time>2020-06-06T09:52:49Z</time>
      </trkpt>
      <trkpt lat="47.54517" lon="-2.45893">
        <ele>36.5</ele>
        <time>2020-06-06T09:52:50Z</time>
      </trkpt>
      <trkpt lat="47.54519" lon="-2.45901">
        <ele>36.3</ele>
        <time>2020-06-06T09:52:51Z</time>
      </trkpt>
      <trkpt lat="47.54522" lon="-2.45909">
        <ele>36.1</ele>
        <time>2020-06-06T09:52:52Z</time>
      </trkpt>
      <trkpt lat="47.54525" lon="-2.45917">
        <ele>35.9</ele>
        <time>2020-06-06T09:52:53Z</time>
      </trkpt>
      <trkpt lat="47.54527" lon="-2.45927">
        <ele>35.6</ele>
        <time>2020-06-06T09:52:54Z</time>
      </trkpt>
      <trkpt lat="47.54531" lon="-2.45937">
        <ele>35.3</ele>
        <time>2020-06-06T09:52:55Z</time>
      </trkpt>
      <trkpt lat="47.54535" lon="-2.45947">
        <ele>35</ele>
        <time>2020-06-06T09:52:56Z</time>
      </trkpt>
      <trkpt lat="47.54538" lon="-2.45959">
        <ele>34.7</ele>
        <time>2020-06-06T09:52:57Z</time>
      </trkpt>
      <trkpt lat="47.54542" lon="-2.4597">
        <ele>34.4</ele>
        <time>2020-06-06T09:52:58Z</time>
      </trkpt>
      <trkpt lat="47.54546" lon="-2.45983">
        <ele>34</ele>
        <time>2020-06-06T09:52:59Z</time>
      </trkpt>
      <trkpt lat="47.54549" lon="-2.45995">
        <ele>33.7</ele>
        <time>2020-06-06T09:53:00Z</time>
      </trkpt>
      <trkpt lat="47.54552" lon="-2.46009">
        <ele>33.3</ele>
        <time>2020-06-06T09:53:01Z</time>
      </trkpt>
      <trkpt lat="47.54556" lon="-2.4602">
        <ele>32.9</ele>
        <time>2020-06-06T09:53:02Z</time>
      </trkpt>
      <trkpt lat="47.5456" lon="-2.46033">
        <ele>32.5</ele>
        <time>2020-06-06T09:53:03Z</time>
      </trkpt>
      <trkpt lat="47.54564" lon="-2.46047">
        <ele>32.2</ele>
        <time>2020-06-06T09:53:04Z</time>
      </trkpt>
      <trkpt lat="47.54568" lon="-2.4606">
        <ele>31.8</ele>
        <time>2020-06-06T09:53:05Z</time>
      </trkpt>
      <trkpt lat="47.54572" lon="-2.46072">
        <ele>31.5</ele>
        <time>2020-06-06T09:53:06Z</time>
      </trkpt>
      <trkpt lat="47.54577" lon="-2.46085">
        <ele>31.2</ele>
        <time>2020-06-06T09:53:07Z</time>
      </trkpt>
      <trkpt lat="47.54581" lon="-2.46097">
        <ele>30.9</ele>
        <time>2020-06-06T09:53:08Z</time>
      </trkpt>
      <trkpt lat="47.54587" lon="-2.46109">
        <ele>30.7</ele>
        <time>2020-06-06T09:53:09Z</time>
      </trkpt>
      <trkpt lat="47.54592" lon="-2.46121">
        <ele>30.5</ele>
        <time>2020-06-06T09:53:10Z</time>
      </trkpt>
      <trkpt lat="47.54597" lon="-2.46132">
        <ele>30.3</ele>
        <time>2020-06-06T09:53:11Z</time>
      </trkpt>
      <trkpt lat="47.54602" lon="-2.46143">
        <ele>30.2</ele>
        <time>2020-06-06T09:53:12Z</time>
      </trkpt>
      <trkpt lat="47.54606" lon="-2.46153">
        <ele>30.1</ele>
        <time>2020-06-06T09:53:13Z</time>
      </trkpt>
      <trkpt lat="47.54611" lon="-2.46164">
        <ele>30.1</ele>
        <time>2020-06-06T09:53:14Z</time>
      </trkpt>
      <trkpt lat="47.54616" lon="-2.46174">
        <ele>30.1</ele>
        <time>2020-06-06T09:53:15Z</time>
      </trkpt>
      <trkpt lat="47.54621" lon="-2.46183">
        <ele>30.1</ele>
        <time>2020-06-06T09:53:16Z</time>
      </trkpt>
      <trkpt lat="47.54626" lon="-2.46191">
        <ele>30.1</ele>
        <time>2020-06-06T09:53:17Z</time>
      </trkpt>
      <trkpt lat="47.54632" lon="-2.46199">
        <ele>30.1</ele>
        <time>2020-06-06T09:53:18Z</time>
      </trkpt>
      <trkpt lat="47.54637" lon="-2.46206">
        <ele>30.1</ele>
        <time>2020-06-06T09:53:19Z</time>
      </trkpt>
      <trkpt lat="47.54642" lon="-2.46213">
        <ele>30.1</ele>
        <time>2020-06-06T09:53:20Z</time>
      </trkpt>
      <trkpt lat="47.54647" lon="-2.46219">
        <ele>30.1</ele>
        <time>2020-06-06T09:53:21Z</time>
      </trkpt>
      <trkpt lat="47.54652" lon="-2.46225">
        <ele>30</ele>
        <time>2020-06-06T09:53:22Z</time>
      </trkpt>
      <trkpt lat="47.54657" lon="-2.46231">
        <ele>30</ele>
        <time>2020-06-06T09:53:23Z</time>
      </trkpt>
      <trkpt lat="47.54661" lon="-2.46237">
        <ele>29.9</ele>
        <time>2020-06-06T09:53:24Z</time>
      </trkpt>
      <trkpt lat="47.54666" lon="-2.46243">
        <ele>29.8</ele>
        <time>2020-06-06T09:53:25Z</time>
      </trkpt>
      <trkpt lat="47.5467" lon="-2.46248">
        <ele>29.8</ele>
        <time>2020-06-06T09:53:26Z</time>
      </trkpt>
      <trkpt lat="47.54674" lon="-2.46252">
        <ele>29.7</ele>
        <time>2020-06-06T09:53:27Z</time>
      </trkpt>
      <trkpt lat="47.54679" lon="-2.46257">
        <ele>29.7</ele>
        <time>2020-06-06T09:53:28Z</time>
      </trkpt>
      <trkpt lat="47.54683" lon="-2.46262">
        <ele>29.6</ele>
        <time>2020-06-06T09:53:29Z</time>
      </trkpt>
      <trkpt lat="47.54688" lon="-2.46267">
        <ele>29.6</ele>
        <time>2020-06-06T09:53:30Z</time>
      </trkpt>
      <trkpt lat="47.54692" lon="-2.46272">
        <ele>29.5</ele>
        <time>2020-06-06T09:53:31Z</time>
      </trkpt>
      <trkpt lat="47.54696" lon="-2.46277">
        <ele>29.4</ele>
        <time>2020-06-06T09:53:32Z</time>
      </trkpt>
      <trkpt lat="47.547" lon="-2.46282">
        <ele>29.3</ele>
        <time>2020-06-06T09:53:33Z</time>
      </trkpt>
      <trkpt lat="47.54704" lon="-2.46287">
        <ele>29.2</ele>
        <time>2020-06-06T09:53:34Z</time>
      </trkpt>
      <trkpt lat="47.54707" lon="-2.46292">
        <ele>29.1</ele>
        <time>2020-06-06T09:53:35Z</time>
      </trkpt>
      <trkpt lat="47.54711" lon="-2.46297">
        <ele>29</ele>
        <time>2020-06-06T09:53:36Z</time>
      </trkpt>
      <trkpt lat="47.54715" lon="-2.46302">
        <ele>28.9</ele>
        <time>2020-06-06T09:53:37Z</time>
      </trkpt>
      <trkpt lat="47.54718" lon="-2.46307">
        <ele>28.8</ele>
        <time>2020-06-06T09:53:38Z</time>
      </trkpt>
      <trkpt lat="47.54721" lon="-2.46311">
        <ele>28.7</ele>
        <time>2020-06-06T09:53:39Z</time>
      </trkpt>
      <trkpt lat="47.54724" lon="-2.46316">
        <ele>28.7</ele>
        <time>2020-06-06T09:53:40Z</time>
      </trkpt>
      <trkpt lat="47.54727" lon="-2.46321">
        <ele>28.7</ele>
        <time>2020-06-06T09:53:41Z</time>
      </trkpt>
      <trkpt lat="47.5473" lon="-2.46325">
        <ele>28.4</ele>
        <time>2020-06-06T09:53:42Z</time>
      </trkpt>
      <trkpt lat="47.54734" lon="-2.46329">
        <ele>28.2</ele>
        <time>2020-06-06T09:53:43Z</time>
      </trkpt>
      <trkpt lat="47.54737" lon="-2.46333">
        <ele>28</ele>
        <time>2020-06-06T09:53:44Z</time>
      </trkpt>
      <trkpt lat="47.5474" lon="-2.46339">
        <ele>27.9</ele>
        <time>2020-06-06T09:53:45Z</time>
      </trkpt>
      <trkpt lat="47.54743" lon="-2.46345">
        <ele>27.7</ele>
        <time>2020-06-06T09:53:46Z</time>
      </trkpt>
      <trkpt lat="47.54746" lon="-2.46351">
        <ele>27.4</ele>
        <time>2020-06-06T09:53:47Z</time>
      </trkpt>
      <trkpt lat="47.54748" lon="-2.46357">
        <ele>27.2</ele>
        <time>2020-06-06T09:53:48Z</time>
      </trkpt>
      <trkpt lat="47.5475" lon="-2.46364">
        <ele>27</ele>
        <time>2020-06-06T09:53:49Z</time>
      </trkpt>
      <trkpt lat="47.54752" lon="-2.4637">
        <ele>26.8</ele>
        <time>2020-06-06T09:53:50Z</time>
      </trkpt>
      <trkpt lat="47.54755" lon="-2.46375">
        <ele>26.6</ele>
        <time>2020-06-06T09:53:51Z</time>
      </trkpt>
      <trkpt lat="47.54757" lon="-2.46379">
        <ele>26.4</ele>
        <time>2020-06-06T09:53:52Z</time>
      </trkpt>
      <trkpt lat="47.54758" lon="-2.4638">
        <ele>26.4</ele>
        <time>2020-06-06T09:53:53Z</time>
      </trkpt>
      <trkpt lat="47.54759" lon="-2.4638">
        <ele>26.4</ele>
        <time>2020-06-06T09:53:54Z</time>
      </trkpt>
      <trkpt lat="47.54759" lon="-2.4638">
        <ele>26.3</ele>
        <time>2020-06-06T09:53:55Z</time>
      </trkpt>
      <trkpt lat="47.54759" lon="-2.4638">
        <ele>26.3</ele>
        <time>2020-06-06T09:53:56Z</time>
      </trkpt>
      <trkpt lat="47.54759" lon="-2.4638">
        <ele>26.3</ele>
        <time>2020-06-06T09:53:57Z</time>
      </trkpt>
      <trkpt lat="47.54759" lon="-2.46381">
        <ele>26.3</ele>
        <time>2020-06-06T09:53:58Z</time>
      </trkpt>
      <trkpt lat="47.54759" lon="-2.4638">
        <ele>26.3</ele>
        <time>2020-06-06T09:53:59Z</time>
      </trkpt>
      <trkpt lat="47.5476" lon="-2.4638">
        <ele>26.3</ele>
        <time>2020-06-06T09:54:00Z</time>
      </trkpt>
      <trkpt lat="47.5476" lon="-2.4638">
        <ele>26.3</ele>
        <time>2020-06-06T09:54:01Z</time>
      </trkpt>
      <trkpt lat="47.5476" lon="-2.4638">
        <ele>26.3</ele>
        <time>2020-06-06T09:54:02Z</time>
      </trkpt>
      <trkpt lat="47.54761" lon="-2.46379">
        <ele>26.3</ele>
        <time>2020-06-06T09:54:03Z</time>
      </trkpt>
      <trkpt lat="47.54762" lon="-2.46377">
        <ele>26.3</ele>
        <time>2020-06-06T09:54:04Z</time>
      </trkpt>
      <trkpt lat="47.54762" lon="-2.46377">
        <ele>26.3</ele>
        <time>2020-06-06T09:54:05Z</time>
      </trkpt>
      <trkpt lat="47.54762" lon="-2.46378">
        <ele>26.3</ele>
        <time>2020-06-06T09:54:06Z</time>
      </trkpt>
      <trkpt lat="47.54762" lon="-2.46379">
        <ele>26.3</ele>
        <time>2020-06-06T09:54:07Z</time>
      </trkpt>
      <trkpt lat="47.54762" lon="-2.4638">
        <ele>26.2</ele>
        <time>2020-06-06T09:54:08Z</time>
      </trkpt>
      <trkpt lat="47.54762" lon="-2.46381">
        <ele>26.2</ele>
        <time>2020-06-06T09:55:36Z</time>
      </trkpt>
      <trkpt lat="47.54762" lon="-2.46382">
        <ele>26.2</ele>
        <time>2020-06-06T09:55:37Z</time>
      </trkpt>
      <trkpt lat="47.54761" lon="-2.46387">
        <ele>26</ele>
        <time>2020-06-06T09:55:38Z</time>
      </trkpt>
      <trkpt lat="47.54762" lon="-2.46388">
        <ele>25.9</ele>
        <time>2020-06-06T09:55:39Z</time>
      </trkpt>
      <trkpt lat="47.54762" lon="-2.46394">
        <ele>25.8</ele>
        <time>2020-06-06T09:55:40Z</time>
      </trkpt>
      <trkpt lat="47.54763" lon="-2.46396">
        <ele>25.7</ele>
        <time>2020-06-06T09:55:41Z</time>
      </trkpt>
      <trkpt lat="47.54764" lon="-2.464">
        <ele>25.5</ele>
        <time>2020-06-06T09:55:42Z</time>
      </trkpt>
      <trkpt lat="47.54766" lon="-2.46406">
        <ele>25.3</ele>
        <time>2020-06-06T09:55:43Z</time>
      </trkpt>
      <trkpt lat="47.54767" lon="-2.46412">
        <ele>25.1</ele>
        <time>2020-06-06T09:55:44Z</time>
      </trkpt>
      <trkpt lat="47.5477" lon="-2.46418">
        <ele>24.9</ele>
        <time>2020-06-06T09:55:45Z</time>
      </trkpt>
      <trkpt lat="47.54772" lon="-2.46426">
        <ele>24.6</ele>
        <time>2020-06-06T09:55:46Z</time>
      </trkpt>
      <trkpt lat="47.54774" lon="-2.46434">
        <ele>24.2</ele>
        <time>2020-06-06T09:55:47Z</time>
      </trkpt>
      <trkpt lat="47.54776" lon="-2.46442">
        <ele>23.9</ele>
        <time>2020-06-06T09:55:48Z</time>
      </trkpt>
      <trkpt lat="47.54779" lon="-2.46451">
        <ele>23.5</ele>
        <time>2020-06-06T09:55:49Z</time>
      </trkpt>
      <trkpt lat="47.54784" lon="-2.4646">
        <ele>23.1</ele>
        <time>2020-06-06T09:55:50Z</time>
      </trkpt>
      <trkpt lat="47.54788" lon="-2.46471">
        <ele>22.6</ele>
        <time>2020-06-06T09:55:51Z</time>
      </trkpt>
      <trkpt lat="47.54792" lon="-2.46481">
        <ele>22.1</ele>
        <time>2020-06-06T09:55:52Z</time>
      </trkpt>
      <trkpt lat="47.54797" lon="-2.46492">
        <ele>21.6</ele>
        <time>2020-06-06T09:55:53Z</time>
      </trkpt>
      <trkpt lat="47.54802" lon="-2.46504">
        <ele>21</ele>
        <time>2020-06-06T09:55:54Z</time>
      </trkpt>
      <trkpt lat="47.54807" lon="-2.46515">
        <ele>20.3</ele>
        <time>2020-06-06T09:55:55Z</time>
      </trkpt>
      <trkpt lat="47.54812" lon="-2.46527">
        <ele>19.6</ele>
        <time>2020-06-06T09:55:56Z</time>
      </trkpt>
      <trkpt lat="47.54816" lon="-2.4654">
        <ele>18.9</ele>
        <time>2020-06-06T09:55:57Z</time>
      </trkpt>
      <trkpt lat="47.5482" lon="-2.46553">
        <ele>18.2</ele>
        <time>2020-06-06T09:55:58Z</time>
      </trkpt>
      <trkpt lat="47.54822" lon="-2.46567">
        <ele>17.5</ele>
        <time>2020-06-06T09:55:59Z</time>
      </trkpt>
      <trkpt lat="47.54824" lon="-2.46582">
        <ele>16.8</ele>
        <time>2020-06-06T09:56:00Z</time>
      </trkpt>
      <trkpt lat="47.54824" lon="-2.46596">
        <ele>16.4</ele>
        <time>2020-06-06T09:56:01Z</time>
      </trkpt>
      <trkpt lat="47.54825" lon="-2.46609">
        <ele>16.1</ele>
        <time>2020-06-06T09:56:02Z</time>
      </trkpt>
      <trkpt lat="47.54827" lon="-2.4662">
        <ele>16</ele>
        <time>2020-06-06T09:56:03Z</time>
      </trkpt>
      <trkpt lat="47.54829" lon="-2.46627">
        <ele>15.8</ele>
        <time>2020-06-06T09:56:04Z</time>
      </trkpt>
      <trkpt lat="47.54832" lon="-2.46632">
        <ele>15.7</ele>
        <time>2020-06-06T09:56:05Z</time>
      </trkpt>
      <trkpt lat="47.54835" lon="-2.46635">
        <ele>15.6</ele>
        <time>2020-06-06T09:56:06Z</time>
      </trkpt>
      <trkpt lat="47.54839" lon="-2.46635">
        <ele>15.4</ele>
        <time>2020-06-06T09:56:07Z</time>
      </trkpt>
      <trkpt lat="47.54842" lon="-2.46635">
        <ele>15.2</ele>
        <time>2020-06-06T09:56:08Z</time>
      </trkpt>
      <trkpt lat="47.54843" lon="-2.46634">
        <ele>15.2</ele>
        <time>2020-06-06T09:56:09Z</time>
      </trkpt>
      <trkpt lat="47.54845" lon="-2.46634">
        <ele>15.1</ele>
        <time>2020-06-06T09:56:10Z</time>
      </trkpt>
      <trkpt lat="47.54846" lon="-2.46633">
        <ele>15</ele>
        <time>2020-06-06T09:56:11Z</time>
      </trkpt>
      <trkpt lat="47.54848" lon="-2.46632">
        <ele>14.9</ele>
        <time>2020-06-06T09:56:12Z</time>
      </trkpt>
      <trkpt lat="47.54849" lon="-2.4663">
        <ele>14.8</ele>
        <time>2020-06-06T09:56:13Z</time>
      </trkpt>
      <trkpt lat="47.5485" lon="-2.46628">
        <ele>14.7</ele>
        <time>2020-06-06T09:56:14Z</time>
      </trkpt>
      <trkpt lat="47.54852" lon="-2.46626">
        <ele>14.6</ele>
        <time>2020-06-06T09:56:15Z</time>
      </trkpt>
      <trkpt lat="47.54854" lon="-2.46623">
        <ele>14.6</ele>
        <time>2020-06-06T09:56:16Z</time>
      </trkpt>
      <trkpt lat="47.54855" lon="-2.46622">
        <ele>14.6</ele>
        <time>2020-06-06T09:56:17Z</time>
      </trkpt>
      <trkpt lat="47.54857" lon="-2.46618">
        <ele>14.6</ele>
        <time>2020-06-06T09:56:18Z</time>
      </trkpt>
      <trkpt lat="47.5486" lon="-2.46617">
        <ele>14.6</ele>
        <time>2020-06-06T09:56:19Z</time>
      </trkpt>
      <trkpt lat="47.54864" lon="-2.46617">
        <ele>14.4</ele>
        <time>2020-06-06T09:56:20Z</time>
      </trkpt>
      <trkpt lat="47.54867" lon="-2.46617">
        <ele>14.4</ele>
        <time>2020-06-06T09:56:21Z</time>
      </trkpt>
      <trkpt lat="47.5487" lon="-2.46615">
        <ele>14.4</ele>
        <time>2020-06-06T09:56:22Z</time>
      </trkpt>
      <trkpt lat="47.54874" lon="-2.46614">
        <ele>13.3</ele>
        <time>2020-06-06T09:56:23Z</time>
      </trkpt>
      <trkpt lat="47.54878" lon="-2.46612">
        <ele>12.9</ele>
        <time>2020-06-06T09:56:24Z</time>
      </trkpt>
      <trkpt lat="47.54881" lon="-2.46609">
        <ele>12.5</ele>
        <time>2020-06-06T09:56:25Z</time>
      </trkpt>
      <trkpt lat="47.54886" lon="-2.46605">
        <ele>11.9</ele>
        <time>2020-06-06T09:56:26Z</time>
      </trkpt>
      <trkpt lat="47.5489" lon="-2.466">
        <ele>11.3</ele>
        <time>2020-06-06T09:56:27Z</time>
      </trkpt>
      <trkpt lat="47.54896" lon="-2.46595">
        <ele>10.9</ele>
        <time>2020-06-06T09:56:28Z</time>
      </trkpt>
      <trkpt lat="47.54902" lon="-2.46592">
        <ele>10.8</ele>
        <time>2020-06-06T09:56:29Z</time>
      </trkpt>
      <trkpt lat="47.54908" lon="-2.46589">
        <ele>10.7</ele>
        <time>2020-06-06T09:56:30Z</time>
      </trkpt>
      <trkpt lat="47.54916" lon="-2.46586">
        <ele>10.7</ele>
        <time>2020-06-06T09:56:31Z</time>
      </trkpt>
      <trkpt lat="47.54923" lon="-2.46585">
        <ele>10.6</ele>
        <time>2020-06-06T09:56:32Z</time>
      </trkpt>
      <trkpt lat="47.54931" lon="-2.46586">
        <ele>10.6</ele>
        <time>2020-06-06T09:56:33Z</time>
      </trkpt>
      <trkpt lat="47.54938" lon="-2.46586">
        <ele>10.6</ele>
        <time>2020-06-06T09:56:34Z</time>
      </trkpt>
      <trkpt lat="47.54948" lon="-2.46587">
        <ele>10.7</ele>
        <time>2020-06-06T09:56:35Z</time>
      </trkpt>
      <trkpt lat="47.54952" lon="-2.46588">
        <ele>10.8</ele>
        <time>2020-06-06T09:56:36Z</time>
      </trkpt>
      <trkpt lat="47.54959" lon="-2.46589">
        <ele>10.9</ele>
        <time>2020-06-06T09:56:37Z</time>
      </trkpt>
      <trkpt lat="47.54966" lon="-2.46589">
        <ele>11</ele>
        <time>2020-06-06T09:56:38Z</time>
      </trkpt>
      <trkpt lat="47.54973" lon="-2.46588">
        <ele>11.2</ele>
        <time>2020-06-06T09:56:39Z</time>
      </trkpt>
      <trkpt lat="47.5498" lon="-2.46587">
        <ele>11.4</ele>
        <time>2020-06-06T09:56:40Z</time>
      </trkpt>
      <trkpt lat="47.54987" lon="-2.46586">
        <ele>11.6</ele>
        <time>2020-06-06T09:56:41Z</time>
      </trkpt>
      <trkpt lat="47.54993" lon="-2.46586">
        <ele>12.1</ele>
        <time>2020-06-06T09:56:42Z</time>
      </trkpt>
      <trkpt lat="47.55" lon="-2.46584">
        <ele>12.6</ele>
        <time>2020-06-06T09:56:43Z</time>
      </trkpt>
      <trkpt lat="47.55005" lon="-2.46581">
        <ele>13.2</ele>
        <time>2020-06-06T09:56:44Z</time>
      </trkpt>
      <trkpt lat="47.5501" lon="-2.46577">
        <ele>13.7</ele>
        <time>2020-06-06T09:56:45Z</time>
      </trkpt>
      <trkpt lat="47.55014" lon="-2.46572">
        <ele>14.2</ele>
        <time>2020-06-06T09:56:46Z</time>
      </trkpt>
      <trkpt lat="47.55019" lon="-2.46568">
        <ele>14.3</ele>
        <time>2020-06-06T09:56:47Z</time>
      </trkpt>
      <trkpt lat="47.55023" lon="-2.46564">
        <ele>14.4</ele>
        <time>2020-06-06T09:56:48Z</time>
      </trkpt>
      <trkpt lat="47.55027" lon="-2.46561">
        <ele>14.4</ele>
        <time>2020-06-06T09:56:49Z</time>
      </trkpt>
      <trkpt lat="47.55032" lon="-2.4656">
        <ele>14.3</ele>
        <time>2020-06-06T09:56:50Z</time>
      </trkpt>
      <trkpt lat="47.55037" lon="-2.4656">
        <ele>14.2</ele>
        <time>2020-06-06T09:56:51Z</time>
      </trkpt>
      <trkpt lat="47.55041" lon="-2.46563">
        <ele>14.1</ele>
        <time>2020-06-06T09:56:52Z</time>
      </trkpt>
      <trkpt lat="47.55045" lon="-2.46568">
        <ele>14.2</ele>
        <time>2020-06-06T09:56:53Z</time>
      </trkpt>
      <trkpt lat="47.55048" lon="-2.46574">
        <ele>14.3</ele>
        <time>2020-06-06T09:56:54Z</time>
      </trkpt>
      <trkpt lat="47.5505" lon="-2.46581">
        <ele>14.3</ele>
        <time>2020-06-06T09:56:55Z</time>
      </trkpt>
      <trkpt lat="47.5505" lon="-2.46588">
        <ele>14.3</ele>
        <time>2020-06-06T09:56:56Z</time>
      </trkpt>
      <trkpt lat="47.55051" lon="-2.46596">
        <ele>14.6</ele>
        <time>2020-06-06T09:56:57Z</time>
      </trkpt>
      <trkpt lat="47.5505" lon="-2.46604">
        <ele>14.8</ele>
        <time>2020-06-06T09:56:58Z</time>
      </trkpt>
      <trkpt lat="47.55049" lon="-2.46611">
        <ele>14.2</ele>
        <time>2020-06-06T09:56:59Z</time>
      </trkpt>
      <trkpt lat="47.55048" lon="-2.46619">
        <ele>13.6</ele>
        <time>2020-06-06T09:57:00Z</time>
      </trkpt>
      <trkpt lat="47.55047" lon="-2.46627">
        <ele>13</ele>
        <time>2020-06-06T09:57:01Z</time>
      </trkpt>
      <trkpt lat="47.55049" lon="-2.46635">
        <ele>12.3</ele>
        <time>2020-06-06T09:57:02Z</time>
      </trkpt>
      <trkpt lat="47.55049" lon="-2.46643">
        <ele>11.7</ele>
        <time>2020-06-06T09:57:03Z</time>
      </trkpt>
      <trkpt lat="47.55047" lon="-2.4665">
        <ele>11.6</ele>
        <time>2020-06-06T09:57:04Z</time>
      </trkpt>
      <trkpt lat="47.55045" lon="-2.46657">
        <ele>11.5</ele>
        <time>2020-06-06T09:57:05Z</time>
      </trkpt>
      <trkpt lat="47.55043" lon="-2.46663">
        <ele>11.4</ele>
        <time>2020-06-06T09:57:06Z</time>
      </trkpt>
      <trkpt lat="47.5504" lon="-2.46668">
        <ele>11.3</ele>
        <time>2020-06-06T09:57:07Z</time>
      </trkpt>
      <trkpt lat="47.55037" lon="-2.46674">
        <ele>11.2</ele>
        <time>2020-06-06T09:57:08Z</time>
      </trkpt>
      <trkpt lat="47.55034" lon="-2.46679">
        <ele>11.1</ele>
        <time>2020-06-06T09:57:09Z</time>
      </trkpt>
      <trkpt lat="47.55031" lon="-2.46685">
        <ele>11</ele>
        <time>2020-06-06T09:57:10Z</time>
      </trkpt>
      <trkpt lat="47.55027" lon="-2.4669">
        <ele>10.9</ele>
        <time>2020-06-06T09:57:11Z</time>
      </trkpt>
      <trkpt lat="47.55023" lon="-2.46696">
        <ele>10.8</ele>
        <time>2020-06-06T09:57:12Z</time>
      </trkpt>
      <trkpt lat="47.55019" lon="-2.46702">
        <ele>10.5</ele>
        <time>2020-06-06T09:57:13Z</time>
      </trkpt>
      <trkpt lat="47.55015" lon="-2.46708">
        <ele>10.4</ele>
        <time>2020-06-06T09:57:14Z</time>
      </trkpt>
      <trkpt lat="47.55011" lon="-2.46714">
        <ele>10.2</ele>
        <time>2020-06-06T09:57:15Z</time>
      </trkpt>
      <trkpt lat="47.55007" lon="-2.46719">
        <ele>10</ele>
        <time>2020-06-06T09:57:16Z</time>
      </trkpt>
      <trkpt lat="47.55003" lon="-2.46725">
        <ele>9.9</ele>
        <time>2020-06-06T09:57:17Z</time>
      </trkpt>
      <trkpt lat="47.55" lon="-2.4673">
        <ele>9.8</ele>
        <time>2020-06-06T09:57:18Z</time>
      </trkpt>
      <trkpt lat="47.54997" lon="-2.46737">
        <ele>9.6</ele>
        <time>2020-06-06T09:57:19Z</time>
      </trkpt>
      <trkpt lat="47.54994" lon="-2.46743">
        <ele>9.5</ele>
        <time>2020-06-06T09:57:20Z</time>
      </trkpt>
      <trkpt lat="47.54991" lon="-2.4675">
        <ele>9.3</ele>
        <time>2020-06-06T09:57:21Z</time>
      </trkpt>
      <trkpt lat="47.54988" lon="-2.46757">
        <ele>9.2</ele>
        <time>2020-06-06T09:57:22Z</time>
      </trkpt>
      <trkpt lat="47.54986" lon="-2.46764">
        <ele>9</ele>
        <time>2020-06-06T09:57:23Z</time>
      </trkpt>
      <trkpt lat="47.54984" lon="-2.46772">
        <ele>8.9</ele>
        <time>2020-06-06T09:57:24Z</time>
      </trkpt>
      <trkpt lat="47.54982" lon="-2.46779">
        <ele>8.8</ele>
        <time>2020-06-06T09:57:25Z</time>
      </trkpt>
      <trkpt lat="47.5498" lon="-2.46788">
        <ele>8.7</ele>
        <time>2020-06-06T09:57:26Z</time>
      </trkpt>
      <trkpt lat="47.54979" lon="-2.46797">
        <ele>8.5</ele>
        <time>2020-06-06T09:57:27Z</time>
      </trkpt>
      <trkpt lat="47.54978" lon="-2.46806">
        <ele>8.4</ele>
        <time>2020-06-06T09:57:28Z</time>
      </trkpt>
      <trkpt lat="47.54976" lon="-2.46815">
        <ele>8.3</ele>
        <time>2020-06-06T09:57:29Z</time>
      </trkpt>
      <trkpt lat="47.54975" lon="-2.46825">
        <ele>8.1</ele>
        <time>2020-06-06T09:57:30Z</time>
      </trkpt>
      <trkpt lat="47.54975" lon="-2.46835">
        <ele>7.9</ele>
        <time>2020-06-06T09:57:31Z</time>
      </trkpt>
      <trkpt lat="47.54974" lon="-2.46845">
        <ele>7.8</ele>
        <time>2020-06-06T09:57:32Z</time>
      </trkpt>
      <trkpt lat="47.54973" lon="-2.46855">
        <ele>7.6</ele>
        <time>2020-06-06T09:57:33Z</time>
      </trkpt>
      <trkpt lat="47.54972" lon="-2.46865">
        <ele>7.4</ele>
        <time>2020-06-06T09:57:34Z</time>
      </trkpt>
      <trkpt lat="47.54971" lon="-2.46876">
        <ele>7.3</ele>
        <time>2020-06-06T09:57:35Z</time>
      </trkpt>
      <trkpt lat="47.5497" lon="-2.46886">
        <ele>7.2</ele>
        <time>2020-06-06T09:57:36Z</time>
      </trkpt>
      <trkpt lat="47.5497" lon="-2.46897">
        <ele>7</ele>
        <time>2020-06-06T09:57:37Z</time>
      </trkpt>
      <trkpt lat="47.54971" lon="-2.46907">
        <ele>6.8</ele>
        <time>2020-06-06T09:57:38Z</time>
      </trkpt>
      <trkpt lat="47.54972" lon="-2.46918">
        <ele>6.8</ele>
        <time>2020-06-06T09:57:39Z</time>
      </trkpt>
      <trkpt lat="47.54974" lon="-2.46928">
        <ele>6.9</ele>
        <time>2020-06-06T09:57:40Z</time>
      </trkpt>
      <trkpt lat="47.54976" lon="-2.46938">
        <ele>6.9</ele>
        <time>2020-06-06T09:57:41Z</time>
      </trkpt>
      <trkpt lat="47.54978" lon="-2.46947">
        <ele>7</ele>
        <time>2020-06-06T09:57:42Z</time>
      </trkpt>
      <trkpt lat="47.54981" lon="-2.46955">
        <ele>7.2</ele>
        <time>2020-06-06T09:57:43Z</time>
      </trkpt>
      <trkpt lat="47.54984" lon="-2.46964">
        <ele>7.4</ele>
        <time>2020-06-06T09:57:44Z</time>
      </trkpt>
      <trkpt lat="47.54987" lon="-2.46972">
        <ele>7.6</ele>
        <time>2020-06-06T09:57:45Z</time>
      </trkpt>
      <trkpt lat="47.54988" lon="-2.4698">
        <ele>7.9</ele>
        <time>2020-06-06T09:57:46Z</time>
      </trkpt>
      <trkpt lat="47.5499" lon="-2.46987">
        <ele>8.2</ele>
        <time>2020-06-06T09:57:47Z</time>
      </trkpt>
      <trkpt lat="47.54992" lon="-2.46994">
        <ele>8.5</ele>
        <time>2020-06-06T09:57:48Z</time>
      </trkpt>
      <trkpt lat="47.54995" lon="-2.47">
        <ele>8.8</ele>
        <time>2020-06-06T09:57:49Z</time>
      </trkpt>
      <trkpt lat="47.54996" lon="-2.47007">
        <ele>9.1</ele>
        <time>2020-06-06T09:57:50Z</time>
      </trkpt>
      <trkpt lat="47.54998" lon="-2.47012">
        <ele>9.4</ele>
        <time>2020-06-06T09:57:51Z</time>
      </trkpt>
      <trkpt lat="47.55" lon="-2.47018">
        <ele>9.7</ele>
        <time>2020-06-06T09:57:52Z</time>
      </trkpt>
      <trkpt lat="47.55002" lon="-2.47024">
        <ele>10</ele>
        <time>2020-06-06T09:57:53Z</time>
      </trkpt>
      <trkpt lat="47.55004" lon="-2.47031">
        <ele>10.3</ele>
        <time>2020-06-06T09:57:54Z</time>
      </trkpt>
      <trkpt lat="47.55005" lon="-2.47037">
        <ele>10.7</ele>
        <time>2020-06-06T09:57:55Z</time>
      </trkpt>
      <trkpt lat="47.55007" lon="-2.47044">
        <ele>11</ele>
        <time>2020-06-06T09:57:56Z</time>
      </trkpt>
      <trkpt lat="47.55008" lon="-2.4705">
        <ele>11.4</ele>
        <time>2020-06-06T09:57:57Z</time>
      </trkpt>
      <trkpt lat="47.5501" lon="-2.47057">
        <ele>11.7</ele>
        <time>2020-06-06T09:57:58Z</time>
      </trkpt>
      <trkpt lat="47.55011" lon="-2.47064">
        <ele>12.1</ele>
        <time>2020-06-06T09:57:59Z</time>
      </trkpt>
      <trkpt lat="47.55012" lon="-2.47071">
        <ele>12.5</ele>
        <time>2020-06-06T09:58:00Z</time>
      </trkpt>
      <trkpt lat="47.55013" lon="-2.47079">
        <ele>12.9</ele>
        <time>2020-06-06T09:58:01Z</time>
      </trkpt>
      <trkpt lat="47.55013" lon="-2.47087">
        <ele>13.3</ele>
        <time>2020-06-06T09:58:02Z</time>
      </trkpt>
      <trkpt lat="47.55013" lon="-2.47094">
        <ele>13.7</ele>
        <time>2020-06-06T09:58:03Z</time>
      </trkpt>
      <trkpt lat="47.55014" lon="-2.47101">
        <ele>14.1</ele>
        <time>2020-06-06T09:58:04Z</time>
      </trkpt>
      <trkpt lat="47.55014" lon="-2.47109">
        <ele>14.5</ele>
        <time>2020-06-06T09:58:05Z</time>
      </trkpt>
      <trkpt lat="47.55014" lon="-2.47117">
        <ele>14.9</ele>
        <time>2020-06-06T09:58:06Z</time>
      </trkpt>
      <trkpt lat="47.55014" lon="-2.47124">
        <ele>15.2</ele>
        <time>2020-06-06T09:58:07Z</time>
      </trkpt>
      <trkpt lat="47.55014" lon="-2.4713">
        <ele>15.5</ele>
        <time>2020-06-06T09:58:08Z</time>
      </trkpt>
      <trkpt lat="47.55014" lon="-2.47136">
        <ele>15.8</ele>
        <time>2020-06-06T09:58:09Z</time>
      </trkpt>
      <trkpt lat="47.55014" lon="-2.47142">
        <ele>16.1</ele>
        <time>2020-06-06T09:58:10Z</time>
      </trkpt>
      <trkpt lat="47.55015" lon="-2.47147">
        <ele>16.3</ele>
        <time>2020-06-06T09:58:11Z</time>
      </trkpt>
      <trkpt lat="47.55015" lon="-2.47152">
        <ele>16.5</ele>
        <time>2020-06-06T09:58:12Z</time>
      </trkpt>
      <trkpt lat="47.55015" lon="-2.47158">
        <ele>16.8</ele>
        <time>2020-06-06T09:58:13Z</time>
      </trkpt>
      <trkpt lat="47.55014" lon="-2.47164">
        <ele>17</ele>
        <time>2020-06-06T09:58:14Z</time>
      </trkpt>
      <trkpt lat="47.55015" lon="-2.47169">
        <ele>17.1</ele>
        <time>2020-06-06T09:58:15Z</time>
      </trkpt>
      <trkpt lat="47.55015" lon="-2.47175">
        <ele>17.3</ele>
        <time>2020-06-06T09:58:16Z</time>
      </trkpt>
      <trkpt lat="47.55015" lon="-2.47181">
        <ele>17.5</ele>
        <time>2020-06-06T09:58:17Z</time>
      </trkpt>
      <trkpt lat="47.55014" lon="-2.47187">
        <ele>17.7</ele>
        <time>2020-06-06T09:58:18Z</time>
      </trkpt>
      <trkpt lat="47.55015" lon="-2.47194">
        <ele>17.9</ele>
        <time>2020-06-06T09:58:19Z</time>
      </trkpt>
      <trkpt lat="47.55015" lon="-2.47201">
        <ele>18.1</ele>
        <time>2020-06-06T09:58:20Z</time>
      </trkpt>
      <trkpt lat="47.55015" lon="-2.47207">
        <ele>18.3</ele>
        <time>2020-06-06T09:58:21Z</time>
      </trkpt>
      <trkpt lat="47.55015" lon="-2.47213">
        <ele>18.5</ele>
        <time>2020-06-06T09:58:22Z</time>
      </trkpt>
      <trkpt lat="47.55015" lon="-2.47219">
        <ele>18.7</ele>
        <time>2020-06-06T09:58:23Z</time>
      </trkpt>
      <trkpt lat="47.55015" lon="-2.47225">
        <ele>18.8</ele>
        <time>2020-06-06T09:58:24Z</time>
      </trkpt>
      <trkpt lat="47.55015" lon="-2.47231">
        <ele>19</ele>
        <time>2020-06-06T09:58:25Z</time>
      </trkpt>
      <trkpt lat="47.55015" lon="-2.47235">
        <ele>19.1</ele>
        <time>2020-06-06T09:58:26Z</time>
      </trkpt>
      <trkpt lat="47.55015" lon="-2.47242">
        <ele>19.3</ele>
        <time>2020-06-06T09:58:27Z</time>
      </trkpt>
      <trkpt lat="47.55015" lon="-2.47247">
        <ele>19.4</ele>
        <time>2020-06-06T09:58:28Z</time>
      </trkpt>
      <trkpt lat="47.55015" lon="-2.47253">
        <ele>19.6</ele>
        <time>2020-06-06T09:58:29Z</time>
      </trkpt>
      <trkpt lat="47.55016" lon="-2.47259">
        <ele>19.7</ele>
        <time>2020-06-06T09:58:30Z</time>
      </trkpt>
      <trkpt lat="47.55016" lon="-2.47265">
        <ele>19.9</ele>
        <time>2020-06-06T09:58:31Z</time>
      </trkpt>
      <trkpt lat="47.55016" lon="-2.47271">
        <ele>20</ele>
        <time>2020-06-06T09:58:32Z</time>
      </trkpt>
      <trkpt lat="47.55016" lon="-2.47276">
        <ele>20.1</ele>
        <time>2020-06-06T09:58:33Z</time>
      </trkpt>
      <trkpt lat="47.55016" lon="-2.47283">
        <ele>20.2</ele>
        <time>2020-06-06T09:58:34Z</time>
      </trkpt>
      <trkpt lat="47.55016" lon="-2.47287">
        <ele>20.3</ele>
        <time>2020-06-06T09:58:35Z</time>
      </trkpt>
      <trkpt lat="47.55017" lon="-2.47292">
        <ele>20.4</ele>
        <time>2020-06-06T09:58:36Z</time>
      </trkpt>
      <trkpt lat="47.55016" lon="-2.47297">
        <ele>20.5</ele>
        <time>2020-06-06T09:58:37Z</time>
      </trkpt>
      <trkpt lat="47.55016" lon="-2.47303">
        <ele>20.6</ele>
        <time>2020-06-06T09:58:38Z</time>
      </trkpt>
      <trkpt lat="47.55016" lon="-2.47309">
        <ele>20.6</ele>
        <time>2020-06-06T09:58:39Z</time>
      </trkpt>
      <trkpt lat="47.55016" lon="-2.47314">
        <ele>20.7</ele>
        <time>2020-06-06T09:58:40Z</time>
      </trkpt>
      <trkpt lat="47.55016" lon="-2.4732">
        <ele>20.7</ele>
        <time>2020-06-06T09:58:41Z</time>
      </trkpt>
      <trkpt lat="47.55015" lon="-2.47329">
        <ele>20.8</ele>
        <time>2020-06-06T09:58:42Z</time>
      </trkpt>
      <trkpt lat="47.55015" lon="-2.47337">
        <ele>20.8</ele>
        <time>2020-06-06T09:58:43Z</time>
      </trkpt>
      <trkpt lat="47.55014" lon="-2.47346">
        <ele>20.8</ele>
        <time>2020-06-06T09:58:44Z</time>
      </trkpt>
      <trkpt lat="47.55014" lon="-2.47355">
        <ele>20.8</ele>
        <time>2020-06-06T09:58:45Z</time>
      </trkpt>
      <trkpt lat="47.55013" lon="-2.47364">
        <ele>20.7</ele>
        <time>2020-06-06T09:58:46Z</time>
      </trkpt>
      <trkpt lat="47.55012" lon="-2.47372">
        <ele>20.6</ele>
        <time>2020-06-06T09:58:47Z</time>
      </trkpt>
      <trkpt lat="47.55011" lon="-2.4738">
        <ele>20.5</ele>
        <time>2020-06-06T09:58:48Z</time>
      </trkpt>
      <trkpt lat="47.5501" lon="-2.47389">
        <ele>20.4</ele>
        <time>2020-06-06T09:58:49Z</time>
      </trkpt>
      <trkpt lat="47.55008" lon="-2.47398">
        <ele>20.3</ele>
        <time>2020-06-06T09:58:50Z</time>
      </trkpt>
      <trkpt lat="47.55007" lon="-2.47408">
        <ele>20.2</ele>
        <time>2020-06-06T09:58:51Z</time>
      </trkpt>
      <trkpt lat="47.55005" lon="-2.47416">
        <ele>20.2</ele>
        <time>2020-06-06T09:58:52Z</time>
      </trkpt>
      <trkpt lat="47.55004" lon="-2.47425">
        <ele>20.1</ele>
        <time>2020-06-06T09:58:53Z</time>
      </trkpt>
      <trkpt lat="47.55002" lon="-2.47435">
        <ele>20.1</ele>
        <time>2020-06-06T09:58:54Z</time>
      </trkpt>
      <trkpt lat="47.55002" lon="-2.47444">
        <ele>20</ele>
        <time>2020-06-06T09:58:55Z</time>
      </trkpt>
      <trkpt lat="47.55002" lon="-2.47455">
        <ele>20.1</ele>
        <time>2020-06-06T09:58:56Z</time>
      </trkpt>
      <trkpt lat="47.55003" lon="-2.47462">
        <ele>20.1</ele>
        <time>2020-06-06T09:58:57Z</time>
      </trkpt>
      <trkpt lat="47.55004" lon="-2.47468">
        <ele>20.2</ele>
        <time>2020-06-06T09:58:58Z</time>
      </trkpt>
      <trkpt lat="47.55006" lon="-2.47474">
        <ele>20.3</ele>
        <time>2020-06-06T09:58:59Z</time>
      </trkpt>
      <trkpt lat="47.55009" lon="-2.47477">
        <ele>20.4</ele>
        <time>2020-06-06T09:59:00Z</time>
      </trkpt>
      <trkpt lat="47.55011" lon="-2.47482">
        <ele>20.6</ele>
        <time>2020-06-06T09:59:01Z</time>
      </trkpt>
      <trkpt lat="47.55013" lon="-2.47487">
        <ele>20.8</ele>
        <time>2020-06-06T09:59:02Z</time>
      </trkpt>
      <trkpt lat="47.55016" lon="-2.47492">
        <ele>21</ele>
        <time>2020-06-06T09:59:03Z</time>
      </trkpt>
      <trkpt lat="47.55018" lon="-2.47497">
        <ele>21.2</ele>
        <time>2020-06-06T09:59:04Z</time>
      </trkpt>
      <trkpt lat="47.55021" lon="-2.47502">
        <ele>21.4</ele>
        <time>2020-06-06T09:59:05Z</time>
      </trkpt>
      <trkpt lat="47.55022" lon="-2.47506">
        <ele>21.6</ele>
        <time>2020-06-06T09:59:06Z</time>
      </trkpt>
      <trkpt lat="47.55025" lon="-2.47511">
        <ele>21.8</ele>
        <time>2020-06-06T09:59:07Z</time>
      </trkpt>
      <trkpt lat="47.55027" lon="-2.47515">
        <ele>22</ele>
        <time>2020-06-06T09:59:08Z</time>
      </trkpt>
      <trkpt lat="47.5503" lon="-2.47519">
        <ele>22.1</ele>
        <time>2020-06-06T09:59:09Z</time>
      </trkpt>
      <trkpt lat="47.55032" lon="-2.47524">
        <ele>22.3</ele>
        <time>2020-06-06T09:59:10Z</time>
      </trkpt>
      <trkpt lat="47.55034" lon="-2.4753">
        <ele>22.6</ele>
        <time>2020-06-06T09:59:11Z</time>
      </trkpt>
      <trkpt lat="47.55036" lon="-2.47534">
        <ele>22.7</ele>
        <time>2020-06-06T09:59:12Z</time>
      </trkpt>
      <trkpt lat="47.55039" lon="-2.47539">
        <ele>22.9</ele>
        <time>2020-06-06T09:59:13Z</time>
      </trkpt>
      <trkpt lat="47.55042" lon="-2.47545">
        <ele>23.2</ele>
        <time>2020-06-06T09:59:14Z</time>
      </trkpt>
      <trkpt lat="47.55044" lon="-2.4755">
        <ele>23.3</ele>
        <time>2020-06-06T09:59:15Z</time>
      </trkpt>
      <trkpt lat="47.55046" lon="-2.47554">
        <ele>23.5</ele>
        <time>2020-06-06T09:59:16Z</time>
      </trkpt>
      <trkpt lat="47.55048" lon="-2.47557">
        <ele>23.6</ele>
        <time>2020-06-06T09:59:17Z</time>
      </trkpt>
      <trkpt lat="47.55051" lon="-2.47562">
        <ele>23.8</ele>
        <time>2020-06-06T09:59:18Z</time>
      </trkpt>
      <trkpt lat="47.55053" lon="-2.47567">
        <ele>24</ele>
        <time>2020-06-06T09:59:19Z</time>
      </trkpt>
      <trkpt lat="47.55055" lon="-2.47571">
        <ele>24.2</ele>
        <time>2020-06-06T09:59:20Z</time>
      </trkpt>
      <trkpt lat="47.55057" lon="-2.47574">
        <ele>24.3</ele>
        <time>2020-06-06T09:59:21Z</time>
      </trkpt>
      <trkpt lat="47.55059" lon="-2.47578">
        <ele>24.4</ele>
        <time>2020-06-06T09:59:22Z</time>
      </trkpt>
      <trkpt lat="47.55062" lon="-2.47582">
        <ele>24.6</ele>
        <time>2020-06-06T09:59:23Z</time>
      </trkpt>
      <trkpt lat="47.55065" lon="-2.47587">
        <ele>24.8</ele>
        <time>2020-06-06T09:59:24Z</time>
      </trkpt>
      <trkpt lat="47.55068" lon="-2.47591">
        <ele>24.9</ele>
        <time>2020-06-06T09:59:25Z</time>
      </trkpt>
      <trkpt lat="47.5507" lon="-2.47595">
        <ele>25</ele>
        <time>2020-06-06T09:59:26Z</time>
      </trkpt>
      <trkpt lat="47.55073" lon="-2.476">
        <ele>25.1</ele>
        <time>2020-06-06T09:59:27Z</time>
      </trkpt>
      <trkpt lat="47.55075" lon="-2.47604">
        <ele>25.2</ele>
        <time>2020-06-06T09:59:28Z</time>
      </trkpt>
      <trkpt lat="47.55078" lon="-2.47609">
        <ele>25.3</ele>
        <time>2020-06-06T09:59:29Z</time>
      </trkpt>
      <trkpt lat="47.55081" lon="-2.47613">
        <ele>25.4</ele>
        <time>2020-06-06T09:59:30Z</time>
      </trkpt>
      <trkpt lat="47.55083" lon="-2.47617">
        <ele>25.5</ele>
        <time>2020-06-06T09:59:31Z</time>
      </trkpt>
      <trkpt lat="47.55086" lon="-2.47621">
        <ele>25.5</ele>
        <time>2020-06-06T09:59:32Z</time>
      </trkpt>
      <trkpt lat="47.55088" lon="-2.47625">
        <ele>25.6</ele>
        <time>2020-06-06T09:59:33Z</time>
      </trkpt>
      <trkpt lat="47.55091" lon="-2.47629">
        <ele>25.7</ele>
        <time>2020-06-06T09:59:34Z</time>
      </trkpt>
      <trkpt lat="47.55093" lon="-2.47633">
        <ele>25.7</ele>
        <time>2020-06-06T09:59:35Z</time>
      </trkpt>
      <trkpt lat="47.55095" lon="-2.47637">
        <ele>25.8</ele>
        <time>2020-06-06T09:59:36Z</time>
      </trkpt>
      <trkpt lat="47.55097" lon="-2.47641">
        <ele>25.8</ele>
        <time>2020-06-06T09:59:37Z</time>
      </trkpt>
      <trkpt lat="47.551" lon="-2.47647">
        <ele>25.9</ele>
        <time>2020-06-06T09:59:38Z</time>
      </trkpt>
      <trkpt lat="47.55103" lon="-2.47651">
        <ele>25.9</ele>
        <time>2020-06-06T09:59:39Z</time>
      </trkpt>
      <trkpt lat="47.55106" lon="-2.47656">
        <ele>26</ele>
        <time>2020-06-06T09:59:40Z</time>
      </trkpt>
      <trkpt lat="47.55108" lon="-2.4766">
        <ele>26</ele>
        <time>2020-06-06T09:59:41Z</time>
      </trkpt>
      <trkpt lat="47.5511" lon="-2.47664">
        <ele>25.9</ele>
        <time>2020-06-06T09:59:42Z</time>
      </trkpt>
      <trkpt lat="47.55113" lon="-2.47668">
        <ele>25.9</ele>
        <time>2020-06-06T09:59:43Z</time>
      </trkpt>
      <trkpt lat="47.55116" lon="-2.47674">
        <ele>25.8</ele>
        <time>2020-06-06T09:59:44Z</time>
      </trkpt>
      <trkpt lat="47.55118" lon="-2.4768">
        <ele>25.7</ele>
        <time>2020-06-06T09:59:45Z</time>
      </trkpt>
      <trkpt lat="47.55121" lon="-2.47686">
        <ele>25.6</ele>
        <time>2020-06-06T09:59:46Z</time>
      </trkpt>
      <trkpt lat="47.55124" lon="-2.47692">
        <ele>25.5</ele>
        <time>2020-06-06T09:59:47Z</time>
      </trkpt>
      <trkpt lat="47.55126" lon="-2.47698">
        <ele>25.3</ele>
        <time>2020-06-06T09:59:48Z</time>
      </trkpt>
      <trkpt lat="47.55128" lon="-2.47703">
        <ele>25.1</ele>
        <time>2020-06-06T09:59:49Z</time>
      </trkpt>
      <trkpt lat="47.55131" lon="-2.4771">
        <ele>24.9</ele>
        <time>2020-06-06T09:59:50Z</time>
      </trkpt>
      <trkpt lat="47.55134" lon="-2.47717">
        <ele>24.6</ele>
        <time>2020-06-06T09:59:51Z</time>
      </trkpt>
      <trkpt lat="47.55137" lon="-2.47727">
        <ele>24.3</ele>
        <time>2020-06-06T09:59:52Z</time>
      </trkpt>
      <trkpt lat="47.5514" lon="-2.47736">
        <ele>23.9</ele>
        <time>2020-06-06T09:59:53Z</time>
      </trkpt>
      <trkpt lat="47.55142" lon="-2.47745">
        <ele>23.6</ele>
        <time>2020-06-06T09:59:54Z</time>
      </trkpt>
      <trkpt lat="47.55145" lon="-2.47754">
        <ele>23.2</ele>
        <time>2020-06-06T09:59:55Z</time>
      </trkpt>
      <trkpt lat="47.55147" lon="-2.47764">
        <ele>22.8</ele>
        <time>2020-06-06T09:59:56Z</time>
      </trkpt>
      <trkpt lat="47.5515" lon="-2.47773">
        <ele>22.5</ele>
        <time>2020-06-06T09:59:57Z</time>
      </trkpt>
      <trkpt lat="47.55152" lon="-2.47782">
        <ele>22.1</ele>
        <time>2020-06-06T09:59:58Z</time>
      </trkpt>
      <trkpt lat="47.55155" lon="-2.47793">
        <ele>21.8</ele>
        <time>2020-06-06T09:59:59Z</time>
      </trkpt>
      <trkpt lat="47.55158" lon="-2.47804">
        <ele>21.5</ele>
        <time>2020-06-06T10:00:00Z</time>
      </trkpt>
      <trkpt lat="47.5516" lon="-2.47814">
        <ele>21.3</ele>
        <time>2020-06-06T10:00:01Z</time>
      </trkpt>
      <trkpt lat="47.55162" lon="-2.47824">
        <ele>21.1</ele>
        <time>2020-06-06T10:00:02Z</time>
      </trkpt>
      <trkpt lat="47.55165" lon="-2.47833">
        <ele>20.9</ele>
        <time>2020-06-06T10:00:03Z</time>
      </trkpt>
      <trkpt lat="47.55167" lon="-2.47843">
        <ele>20.7</ele>
        <time>2020-06-06T10:00:04Z</time>
      </trkpt>
      <trkpt lat="47.55169" lon="-2.47852">
        <ele>20.6</ele>
        <time>2020-06-06T10:00:05Z</time>
      </trkpt>
      <trkpt lat="47.55171" lon="-2.47862">
        <ele>20.5</ele>
        <time>2020-06-06T10:00:06Z</time>
      </trkpt>
      <trkpt lat="47.55173" lon="-2.47872">
        <ele>20.3</ele>
        <time>2020-06-06T10:00:07Z</time>
      </trkpt>
      <trkpt lat="47.55174" lon="-2.47882">
        <ele>20.2</ele>
        <time>2020-06-06T10:00:08Z</time>
      </trkpt>
      <trkpt lat="47.55176" lon="-2.47893">
        <ele>20</ele>
        <time>2020-06-06T10:00:09Z</time>
      </trkpt>
      <trkpt lat="47.55179" lon="-2.47903">
        <ele>19.9</ele>
        <time>2020-06-06T10:00:10Z</time>
      </trkpt>
      <trkpt lat="47.55182" lon="-2.47912">
        <ele>19.8</ele>
        <time>2020-06-06T10:00:11Z</time>
      </trkpt>
      <trkpt lat="47.55186" lon="-2.47921">
        <ele>19.8</ele>
        <time>2020-06-06T10:00:12Z</time>
      </trkpt>
      <trkpt lat="47.55189" lon="-2.47931">
        <ele>19.7</ele>
        <time>2020-06-06T10:00:13Z</time>
      </trkpt>
      <trkpt lat="47.55192" lon="-2.47941">
        <ele>19.7</ele>
        <time>2020-06-06T10:00:14Z</time>
      </trkpt>
      <trkpt lat="47.55195" lon="-2.47951">
        <ele>19.7</ele>
        <time>2020-06-06T10:00:15Z</time>
      </trkpt>
      <trkpt lat="47.55198" lon="-2.47961">
        <ele>19.7</ele>
        <time>2020-06-06T10:00:16Z</time>
      </trkpt>
      <trkpt lat="47.552" lon="-2.47969">
        <ele>19.6</ele>
        <time>2020-06-06T10:00:17Z</time>
      </trkpt>
      <trkpt lat="47.55203" lon="-2.47979">
        <ele>19.6</ele>
        <time>2020-06-06T10:00:18Z</time>
      </trkpt>
      <trkpt lat="47.55207" lon="-2.47988">
        <ele>19.5</ele>
        <time>2020-06-06T10:00:19Z</time>
      </trkpt>
      <trkpt lat="47.55209" lon="-2.47998">
        <ele>19.5</ele>
        <time>2020-06-06T10:00:20Z</time>
      </trkpt>
      <trkpt lat="47.55211" lon="-2.48007">
        <ele>19.4</ele>
        <time>2020-06-06T10:00:21Z</time>
      </trkpt>
      <trkpt lat="47.55213" lon="-2.48017">
        <ele>19.4</ele>
        <time>2020-06-06T10:00:22Z</time>
      </trkpt>
      <trkpt lat="47.55217" lon="-2.48026">
        <ele>19.3</ele>
        <time>2020-06-06T10:00:23Z</time>
      </trkpt>
      <trkpt lat="47.5522" lon="-2.48035">
        <ele>19.3</ele>
        <time>2020-06-06T10:00:24Z</time>
      </trkpt>
      <trkpt lat="47.55223" lon="-2.48044">
        <ele>19.3</ele>
        <time>2020-06-06T10:00:25Z</time>
      </trkpt>
      <trkpt lat="47.55226" lon="-2.48052">
        <ele>19.3</ele>
        <time>2020-06-06T10:00:26Z</time>
      </trkpt>
      <trkpt lat="47.55229" lon="-2.48061">
        <ele>19.2</ele>
        <time>2020-06-06T10:00:27Z</time>
      </trkpt>
      <trkpt lat="47.55232" lon="-2.4807">
        <ele>19.2</ele>
        <time>2020-06-06T10:00:28Z</time>
      </trkpt>
      <trkpt lat="47.55235" lon="-2.48079">
        <ele>19.2</ele>
        <time>2020-06-06T10:00:29Z</time>
      </trkpt>
      <trkpt lat="47.55238" lon="-2.48088">
        <ele>19.1</ele>
        <time>2020-06-06T10:00:30Z</time>
      </trkpt>
      <trkpt lat="47.55241" lon="-2.48096">
        <ele>19.1</ele>
        <time>2020-06-06T10:00:31Z</time>
      </trkpt>
      <trkpt lat="47.55244" lon="-2.48105">
        <ele>19.1</ele>
        <time>2020-06-06T10:00:32Z</time>
      </trkpt>
      <trkpt lat="47.55247" lon="-2.48113">
        <ele>19</ele>
        <time>2020-06-06T10:00:33Z</time>
      </trkpt>
      <trkpt lat="47.5525" lon="-2.48121">
        <ele>19</ele>
        <time>2020-06-06T10:00:34Z</time>
      </trkpt>
      <trkpt lat="47.55253" lon="-2.48129">
        <ele>19</ele>
        <time>2020-06-06T10:00:35Z</time>
      </trkpt>
      <trkpt lat="47.55257" lon="-2.48137">
        <ele>19</ele>
        <time>2020-06-06T10:00:36Z</time>
      </trkpt>
      <trkpt lat="47.5526" lon="-2.48145">
        <ele>19</ele>
        <time>2020-06-06T10:00:37Z</time>
      </trkpt>
      <trkpt lat="47.55263" lon="-2.48153">
        <ele>19.1</ele>
        <time>2020-06-06T10:00:38Z</time>
      </trkpt>
      <trkpt lat="47.55266" lon="-2.4816">
        <ele>19.2</ele>
        <time>2020-06-06T10:00:39Z</time>
      </trkpt>
      <trkpt lat="47.55269" lon="-2.48167">
        <ele>19.2</ele>
        <time>2020-06-06T10:00:40Z</time>
      </trkpt>
      <trkpt lat="47.55272" lon="-2.48173">
        <ele>19.3</ele>
        <time>2020-06-06T10:00:41Z</time>
      </trkpt>
      <trkpt lat="47.55274" lon="-2.48178">
        <ele>19.3</ele>
        <time>2020-06-06T10:00:42Z</time>
      </trkpt>
      <trkpt lat="47.55275" lon="-2.48182">
        <ele>19.4</ele>
        <time>2020-06-06T10:00:43Z</time>
      </trkpt>
      <trkpt lat="47.55277" lon="-2.48187">
        <ele>19.4</ele>
        <time>2020-06-06T10:00:44Z</time>
      </trkpt>
      <trkpt lat="47.55277" lon="-2.48189">
        <ele>19.5</ele>
        <time>2020-06-06T10:00:45Z</time>
      </trkpt>
      <trkpt lat="47.5528" lon="-2.48194">
        <ele>19.7</ele>
        <time>2020-06-06T10:00:46Z</time>
      </trkpt>
      <trkpt lat="47.55281" lon="-2.48196">
        <ele>19.7</ele>
        <time>2020-06-06T10:00:47Z</time>
      </trkpt>
      <trkpt lat="47.55284" lon="-2.48199">
        <ele>19.9</ele>
        <time>2020-06-06T10:00:48Z</time>
      </trkpt>
      <trkpt lat="47.55285" lon="-2.482">
        <ele>19.9</ele>
        <time>2020-06-06T10:00:49Z</time>
      </trkpt>
      <trkpt lat="47.55287" lon="-2.48203">
        <ele>20</ele>
        <time>2020-06-06T10:00:50Z</time>
      </trkpt>
      <trkpt lat="47.5529" lon="-2.48207">
        <ele>20.1</ele>
        <time>2020-06-06T10:00:51Z</time>
      </trkpt>
      <trkpt lat="47.5529" lon="-2.48209">
        <ele>20.2</ele>
        <time>2020-06-06T10:00:52Z</time>
      </trkpt>
      <trkpt lat="47.55293" lon="-2.48213">
        <ele>20.3</ele>
        <time>2020-06-06T10:00:53Z</time>
      </trkpt>
      <trkpt lat="47.55294" lon="-2.48215">
        <ele>20.4</ele>
        <time>2020-06-06T10:00:54Z</time>
      </trkpt>
      <trkpt lat="47.55295" lon="-2.48219">
        <ele>20.7</ele>
        <time>2020-06-06T10:00:55Z</time>
      </trkpt>
      <trkpt lat="47.55295" lon="-2.48224">
        <ele>20.7</ele>
        <time>2020-06-06T10:00:56Z</time>
      </trkpt>
      <trkpt lat="47.55295" lon="-2.48229">
        <ele>20.7</ele>
        <time>2020-06-06T10:00:57Z</time>
      </trkpt>
      <trkpt lat="47.55295" lon="-2.48234">
        <ele>20.7</ele>
        <time>2020-06-06T10:00:58Z</time>
      </trkpt>
      <trkpt lat="47.55295" lon="-2.4824">
        <ele>20.7</ele>
        <time>2020-06-06T10:00:59Z</time>
      </trkpt>
      <trkpt lat="47.55295" lon="-2.48247">
        <ele>20.6</ele>
        <time>2020-06-06T10:01:00Z</time>
      </trkpt>
      <trkpt lat="47.55296" lon="-2.48254">
        <ele>20.6</ele>
        <time>2020-06-06T10:01:01Z</time>
      </trkpt>
      <trkpt lat="47.55296" lon="-2.48261">
        <ele>20.5</ele>
        <time>2020-06-06T10:01:02Z</time>
      </trkpt>
      <trkpt lat="47.55297" lon="-2.48267">
        <ele>20.5</ele>
        <time>2020-06-06T10:01:03Z</time>
      </trkpt>
      <trkpt lat="47.55297" lon="-2.48273">
        <ele>20.5</ele>
        <time>2020-06-06T10:01:04Z</time>
      </trkpt>
      <trkpt lat="47.55298" lon="-2.48279">
        <ele>20.5</ele>
        <time>2020-06-06T10:01:05Z</time>
      </trkpt>
      <trkpt lat="47.55299" lon="-2.48285">
        <ele>20.5</ele>
        <time>2020-06-06T10:01:06Z</time>
      </trkpt>
      <trkpt lat="47.55299" lon="-2.48292">
        <ele>20.5</ele>
        <time>2020-06-06T10:01:07Z</time>
      </trkpt>
      <trkpt lat="47.553" lon="-2.48299">
        <ele>20.5</ele>
        <time>2020-06-06T10:01:08Z</time>
      </trkpt>
      <trkpt lat="47.55301" lon="-2.48306">
        <ele>20.4</ele>
        <time>2020-06-06T10:01:09Z</time>
      </trkpt>
      <trkpt lat="47.55302" lon="-2.48313">
        <ele>20.4</ele>
        <time>2020-06-06T10:01:10Z</time>
      </trkpt>
      <trkpt lat="47.55303" lon="-2.4832">
        <ele>20.3</ele>
        <time>2020-06-06T10:01:11Z</time>
      </trkpt>
      <trkpt lat="47.55303" lon="-2.48327">
        <ele>20.2</ele>
        <time>2020-06-06T10:01:12Z</time>
      </trkpt>
      <trkpt lat="47.55304" lon="-2.48335">
        <ele>20.1</ele>
        <time>2020-06-06T10:01:13Z</time>
      </trkpt>
      <trkpt lat="47.55306" lon="-2.48343">
        <ele>20</ele>
        <time>2020-06-06T10:01:14Z</time>
      </trkpt>
      <trkpt lat="47.55307" lon="-2.4835">
        <ele>19.8</ele>
        <time>2020-06-06T10:01:15Z</time>
      </trkpt>
      <trkpt lat="47.55308" lon="-2.48358">
        <ele>19.7</ele>
        <time>2020-06-06T10:01:16Z</time>
      </trkpt>
      <trkpt lat="47.55309" lon="-2.48366">
        <ele>19.6</ele>
        <time>2020-06-06T10:01:17Z</time>
      </trkpt>
      <trkpt lat="47.55311" lon="-2.48373">
        <ele>19.5</ele>
        <time>2020-06-06T10:01:18Z</time>
      </trkpt>
      <trkpt lat="47.55312" lon="-2.48381">
        <ele>19.4</ele>
        <time>2020-06-06T10:01:19Z</time>
      </trkpt>
      <trkpt lat="47.55314" lon="-2.48389">
        <ele>19.3</ele>
        <time>2020-06-06T10:01:20Z</time>
      </trkpt>
      <trkpt lat="47.55315" lon="-2.48396">
        <ele>19.1</ele>
        <time>2020-06-06T10:01:21Z</time>
      </trkpt>
      <trkpt lat="47.55316" lon="-2.48401">
        <ele>19</ele>
        <time>2020-06-06T10:01:22Z</time>
      </trkpt>
      <trkpt lat="47.55317" lon="-2.48406">
        <ele>18.9</ele>
        <time>2020-06-06T10:01:23Z</time>
      </trkpt>
      <trkpt lat="47.55318" lon="-2.48411">
        <ele>18.8</ele>
        <time>2020-06-06T10:01:24Z</time>
      </trkpt>
      <trkpt lat="47.55319" lon="-2.48416">
        <ele>18.7</ele>
        <time>2020-06-06T10:01:25Z</time>
      </trkpt>
      <trkpt lat="47.5532" lon="-2.48421">
        <ele>18.6</ele>
        <time>2020-06-06T10:01:26Z</time>
      </trkpt>
      <trkpt lat="47.55321" lon="-2.48425">
        <ele>18.6</ele>
        <time>2020-06-06T10:01:27Z</time>
      </trkpt>
      <trkpt lat="47.55321" lon="-2.4843">
        <ele>18.5</ele>
        <time>2020-06-06T10:01:28Z</time>
      </trkpt>
      <trkpt lat="47.55322" lon="-2.48434">
        <ele>18.5</ele>
        <time>2020-06-06T10:01:29Z</time>
      </trkpt>
      <trkpt lat="47.55323" lon="-2.48439">
        <ele>18.4</ele>
        <time>2020-06-06T10:01:30Z</time>
      </trkpt>
      <trkpt lat="47.55323" lon="-2.48444">
        <ele>18.4</ele>
        <time>2020-06-06T10:01:31Z</time>
      </trkpt>
      <trkpt lat="47.55323" lon="-2.48449">
        <ele>18.4</ele>
        <time>2020-06-06T10:01:32Z</time>
      </trkpt>
      <trkpt lat="47.55324" lon="-2.48453">
        <ele>18.4</ele>
        <time>2020-06-06T10:01:33Z</time>
      </trkpt>
      <trkpt lat="47.55325" lon="-2.48458">
        <ele>18.2</ele>
        <time>2020-06-06T10:01:34Z</time>
      </trkpt>
      <trkpt lat="47.55325" lon="-2.48459">
        <ele>18.2</ele>
        <time>2020-06-06T10:01:35Z</time>
      </trkpt>
      <trkpt lat="47.55326" lon="-2.48461">
        <ele>18.2</ele>
        <time>2020-06-06T10:01:36Z</time>
      </trkpt>
      <trkpt lat="47.55326" lon="-2.48462">
        <ele>18.1</ele>
        <time>2020-06-06T10:01:37Z</time>
      </trkpt>
      <trkpt lat="47.55326" lon="-2.48463">
        <ele>18.1</ele>
        <time>2020-06-06T10:01:38Z</time>
      </trkpt>
      <trkpt lat="47.55326" lon="-2.48465">
        <ele>18.1</ele>
        <time>2020-06-06T10:01:39Z</time>
      </trkpt>
      <trkpt lat="47.55326" lon="-2.48465">
        <ele>18.1</ele>
        <time>2020-06-06T10:01:40Z</time>
      </trkpt>
      <trkpt lat="47.55326" lon="-2.48466">
        <ele>18.1</ele>
        <time>2020-06-06T10:01:41Z</time>
      </trkpt>
      <trkpt lat="47.55326" lon="-2.48466">
        <ele>18</ele>
        <time>2020-06-06T10:01:42Z</time>
      </trkpt>
      <trkpt lat="47.55326" lon="-2.48467">
        <ele>18</ele>
        <time>2020-06-06T10:01:43Z</time>
      </trkpt>
      <trkpt lat="47.55325" lon="-2.48467">
        <ele>18</ele>
        <time>2020-06-06T10:01:44Z</time>
      </trkpt>
      <trkpt lat="47.55325" lon="-2.48467">
        <ele>18</ele>
        <time>2020-06-06T10:01:45Z</time>
      </trkpt>
      <trkpt lat="47.55326" lon="-2.48468">
        <ele>18</ele>
        <time>2020-06-06T10:01:46Z</time>
      </trkpt>
      <trkpt lat="47.55325" lon="-2.48468">
        <ele>18</ele>
        <time>2020-06-06T10:01:47Z</time>
      </trkpt>
      <trkpt lat="47.55325" lon="-2.48468">
        <ele>18</ele>
        <time>2020-06-06T10:01:48Z</time>
      </trkpt>
      <trkpt lat="47.55325" lon="-2.48468">
        <ele>17.9</ele>
        <time>2020-06-06T10:01:49Z</time>
      </trkpt>
      <trkpt lat="47.55326" lon="-2.48469">
        <ele>17.9</ele>
        <time>2020-06-06T10:01:50Z</time>
      </trkpt>
      <trkpt lat="47.55325" lon="-2.4847">
        <ele>17.9</ele>
        <time>2020-06-06T10:01:51Z</time>
      </trkpt>
      <trkpt lat="47.55325" lon="-2.48471">
        <ele>17.9</ele>
        <time>2020-06-06T10:01:52Z</time>
      </trkpt>
      <trkpt lat="47.55325" lon="-2.48471">
        <ele>17.9</ele>
        <time>2020-06-06T10:01:53Z</time>
      </trkpt>
      <trkpt lat="47.55324" lon="-2.48471">
        <ele>17.8</ele>
        <time>2020-06-06T10:01:54Z</time>
      </trkpt>
      <trkpt lat="47.55325" lon="-2.48472">
        <ele>17.8</ele>
        <time>2020-06-06T10:01:55Z</time>
      </trkpt>
      <trkpt lat="47.55325" lon="-2.48472">
        <ele>17.8</ele>
        <time>2020-06-06T10:01:56Z</time>
      </trkpt>
      <trkpt lat="47.55326" lon="-2.48473">
        <ele>17.8</ele>
        <time>2020-06-06T10:01:57Z</time>
      </trkpt>
      <trkpt lat="47.55326" lon="-2.48473">
        <ele>17.8</ele>
        <time>2020-06-06T10:01:58Z</time>
      </trkpt>
      <trkpt lat="47.55326" lon="-2.48474">
        <ele>17.8</ele>
        <time>2020-06-06T10:01:59Z</time>
      </trkpt>
      <trkpt lat="47.55325" lon="-2.48474">
        <ele>17.7</ele>
        <time>2020-06-06T10:02:00Z</time>
      </trkpt>
      <trkpt lat="47.55325" lon="-2.48475">
        <ele>17.7</ele>
        <time>2020-06-06T10:02:01Z</time>
      </trkpt>
      <trkpt lat="47.55326" lon="-2.48475">
        <ele>17.7</ele>
        <time>2020-06-06T10:02:02Z</time>
      </trkpt>
      <trkpt lat="47.55325" lon="-2.48476">
        <ele>17.7</ele>
        <time>2020-06-06T10:02:03Z</time>
      </trkpt>
      <trkpt lat="47.55325" lon="-2.48476">
        <ele>17.7</ele>
        <time>2020-06-06T10:02:04Z</time>
      </trkpt>
      <trkpt lat="47.55325" lon="-2.48476">
        <ele>17.7</ele>
        <time>2020-06-06T10:02:05Z</time>
      </trkpt>
      <trkpt lat="47.55325" lon="-2.48478">
        <ele>17.6</ele>
        <time>2020-06-06T10:02:06Z</time>
      </trkpt>
      <trkpt lat="47.55326" lon="-2.48478">
        <ele>17.6</ele>
        <time>2020-06-06T10:02:07Z</time>
      </trkpt>
      <trkpt lat="47.55326" lon="-2.48478">
        <ele>17.6</ele>
        <time>2020-06-06T10:02:08Z</time>
      </trkpt>
      <trkpt lat="47.55326" lon="-2.48479">
        <ele>17.6</ele>
        <time>2020-06-06T10:02:09Z</time>
      </trkpt>
      <trkpt lat="47.55326" lon="-2.48479">
        <ele>17.6</ele>
        <time>2020-06-06T10:02:10Z</time>
      </trkpt>
      <trkpt lat="47.55326" lon="-2.48479">
        <ele>17.6</ele>
        <time>2020-06-06T10:02:11Z</time>
      </trkpt>
      <trkpt lat="47.55327" lon="-2.4848">
        <ele>17.6</ele>
        <time>2020-06-06T10:02:12Z</time>
      </trkpt>
      <trkpt lat="47.55327" lon="-2.4848">
        <ele>17.6</ele>
        <time>2020-06-06T10:02:13Z</time>
      </trkpt>
      <trkpt lat="47.55327" lon="-2.48481">
        <ele>17.6</ele>
        <time>2020-06-06T10:02:14Z</time>
      </trkpt>
      <trkpt lat="47.55327" lon="-2.48481">
        <ele>17.6</ele>
        <time>2020-06-06T10:02:15Z</time>
      </trkpt>
      <trkpt lat="47.55327" lon="-2.48481">
        <ele>17.5</ele>
        <time>2020-06-06T10:02:16Z</time>
      </trkpt>
      <trkpt lat="47.55328" lon="-2.48482">
        <ele>17.5</ele>
        <time>2020-06-06T10:02:17Z</time>
      </trkpt>
      <trkpt lat="47.55329" lon="-2.48486">
        <ele>17.4</ele>
        <time>2020-06-06T10:02:18Z</time>
      </trkpt>
      <trkpt lat="47.55329" lon="-2.48488">
        <ele>17.3</ele>
        <time>2020-06-06T10:02:19Z</time>
      </trkpt>
      <trkpt lat="47.5533" lon="-2.48494">
        <ele>17</ele>
        <time>2020-06-06T10:02:20Z</time>
      </trkpt>
      <trkpt lat="47.5533" lon="-2.48496">
        <ele>16.9</ele>
        <time>2020-06-06T10:02:21Z</time>
      </trkpt>
      <trkpt lat="47.5533" lon="-2.48502">
        <ele>16.7</ele>
        <time>2020-06-06T10:02:22Z</time>
      </trkpt>
      <trkpt lat="47.55331" lon="-2.4851">
        <ele>16.4</ele>
        <time>2020-06-06T10:02:23Z</time>
      </trkpt>
      <trkpt lat="47.55332" lon="-2.48518">
        <ele>16.1</ele>
        <time>2020-06-06T10:02:24Z</time>
      </trkpt>
      <trkpt lat="47.55332" lon="-2.48525">
        <ele>15.8</ele>
        <time>2020-06-06T10:02:25Z</time>
      </trkpt>
      <trkpt lat="47.55332" lon="-2.48533">
        <ele>15.1</ele>
        <time>2020-06-06T10:02:26Z</time>
      </trkpt>
      <trkpt lat="47.55331" lon="-2.4854">
        <ele>14.9</ele>
        <time>2020-06-06T10:02:27Z</time>
      </trkpt>
      <trkpt lat="47.55331" lon="-2.48546">
        <ele>14.7</ele>
        <time>2020-06-06T10:02:28Z</time>
      </trkpt>
      <trkpt lat="47.55329" lon="-2.48555">
        <ele>14.4</ele>
        <time>2020-06-06T10:02:29Z</time>
      </trkpt>
      <trkpt lat="47.55328" lon="-2.48563">
        <ele>14.1</ele>
        <time>2020-06-06T10:02:30Z</time>
      </trkpt>
      <trkpt lat="47.55327" lon="-2.48573">
        <ele>13.8</ele>
        <time>2020-06-06T10:02:31Z</time>
      </trkpt>
      <trkpt lat="47.55326" lon="-2.48582">
        <ele>13.5</ele>
        <time>2020-06-06T10:02:32Z</time>
      </trkpt>
      <trkpt lat="47.55325" lon="-2.48593">
        <ele>13.2</ele>
        <time>2020-06-06T10:02:33Z</time>
      </trkpt>
      <trkpt lat="47.55323" lon="-2.48602">
        <ele>12.9</ele>
        <time>2020-06-06T10:02:34Z</time>
      </trkpt>
      <trkpt lat="47.55322" lon="-2.48611">
        <ele>12.7</ele>
        <time>2020-06-06T10:02:35Z</time>
      </trkpt>
      <trkpt lat="47.55321" lon="-2.48618">
        <ele>12.5</ele>
        <time>2020-06-06T10:02:36Z</time>
      </trkpt>
      <trkpt lat="47.5532" lon="-2.48626">
        <ele>12.1</ele>
        <time>2020-06-06T10:02:37Z</time>
      </trkpt>
      <trkpt lat="47.55319" lon="-2.48635">
        <ele>11.8</ele>
        <time>2020-06-06T10:02:38Z</time>
      </trkpt>
      <trkpt lat="47.55318" lon="-2.48642">
        <ele>11.5</ele>
        <time>2020-06-06T10:02:39Z</time>
      </trkpt>
      <trkpt lat="47.5532" lon="-2.48651">
        <ele>11.1</ele>
        <time>2020-06-06T10:02:40Z</time>
      </trkpt>
      <trkpt lat="47.55322" lon="-2.4866">
        <ele>10.7</ele>
        <time>2020-06-06T10:02:41Z</time>
      </trkpt>
      <trkpt lat="47.55325" lon="-2.48669">
        <ele>10.3</ele>
        <time>2020-06-06T10:02:42Z</time>
      </trkpt>
      <trkpt lat="47.55328" lon="-2.48678">
        <ele>9.8</ele>
        <time>2020-06-06T10:02:43Z</time>
      </trkpt>
      <trkpt lat="47.55331" lon="-2.48687">
        <ele>9.4</ele>
        <time>2020-06-06T10:02:44Z</time>
      </trkpt>
      <trkpt lat="47.55333" lon="-2.48697">
        <ele>8.9</ele>
        <time>2020-06-06T10:02:45Z</time>
      </trkpt>
      <trkpt lat="47.55336" lon="-2.48708">
        <ele>8.4</ele>
        <time>2020-06-06T10:02:46Z</time>
      </trkpt>
      <trkpt lat="47.55338" lon="-2.48719">
        <ele>8</ele>
        <time>2020-06-06T10:02:47Z</time>
      </trkpt>
      <trkpt lat="47.55341" lon="-2.48728">
        <ele>7.6</ele>
        <time>2020-06-06T10:02:48Z</time>
      </trkpt>
      <trkpt lat="47.55344" lon="-2.48735">
        <ele>7.3</ele>
        <time>2020-06-06T10:02:49Z</time>
      </trkpt>
      <trkpt lat="47.55346" lon="-2.4874">
        <ele>7.1</ele>
        <time>2020-06-06T10:02:50Z</time>
      </trkpt>
      <trkpt lat="47.55347" lon="-2.48744">
        <ele>7</ele>
        <time>2020-06-06T10:02:51Z</time>
      </trkpt>
      <trkpt lat="47.55349" lon="-2.48748">
        <ele>6.8</ele>
        <time>2020-06-06T10:02:52Z</time>
      </trkpt>
      <trkpt lat="47.55351" lon="-2.48752">
        <ele>6.7</ele>
        <time>2020-06-06T10:02:53Z</time>
      </trkpt>
      <trkpt lat="47.55352" lon="-2.48757">
        <ele>6.6</ele>
        <time>2020-06-06T10:02:54Z</time>
      </trkpt>
      <trkpt lat="47.55354" lon="-2.48762">
        <ele>6.4</ele>
        <time>2020-06-06T10:02:55Z</time>
      </trkpt>
      <trkpt lat="47.55356" lon="-2.48768">
        <ele>6.3</ele>
        <time>2020-06-06T10:02:56Z</time>
      </trkpt>
      <trkpt lat="47.55359" lon="-2.48773">
        <ele>6.1</ele>
        <time>2020-06-06T10:02:57Z</time>
      </trkpt>
      <trkpt lat="47.55362" lon="-2.48779">
        <ele>5.9</ele>
        <time>2020-06-06T10:02:58Z</time>
      </trkpt>
      <trkpt lat="47.55364" lon="-2.48786">
        <ele>5.7</ele>
        <time>2020-06-06T10:02:59Z</time>
      </trkpt>
      <trkpt lat="47.55367" lon="-2.48793">
        <ele>5.5</ele>
        <time>2020-06-06T10:03:00Z</time>
      </trkpt>
      <trkpt lat="47.5537" lon="-2.48801">
        <ele>5.3</ele>
        <time>2020-06-06T10:03:01Z</time>
      </trkpt>
      <trkpt lat="47.55373" lon="-2.4881">
        <ele>5.1</ele>
        <time>2020-06-06T10:03:02Z</time>
      </trkpt>
      <trkpt lat="47.55376" lon="-2.48818">
        <ele>5</ele>
        <time>2020-06-06T10:03:03Z</time>
      </trkpt>
      <trkpt lat="47.55379" lon="-2.48826">
        <ele>4.9</ele>
        <time>2020-06-06T10:03:04Z</time>
      </trkpt>
      <trkpt lat="47.55382" lon="-2.48833">
        <ele>4.8</ele>
        <time>2020-06-06T10:03:05Z</time>
      </trkpt>
      <trkpt lat="47.55385" lon="-2.48841">
        <ele>4.7</ele>
        <time>2020-06-06T10:03:06Z</time>
      </trkpt>
      <trkpt lat="47.55388" lon="-2.48848">
        <ele>4.6</ele>
        <time>2020-06-06T10:03:07Z</time>
      </trkpt>
      <trkpt lat="47.55391" lon="-2.48855">
        <ele>4.5</ele>
        <time>2020-06-06T10:03:08Z</time>
      </trkpt>
      <trkpt lat="47.55394" lon="-2.48863">
        <ele>4.4</ele>
        <time>2020-06-06T10:03:09Z</time>
      </trkpt>
      <trkpt lat="47.55397" lon="-2.4887">
        <ele>4.3</ele>
        <time>2020-06-06T10:03:10Z</time>
      </trkpt>
      <trkpt lat="47.554" lon="-2.48877">
        <ele>4.3</ele>
        <time>2020-06-06T10:03:11Z</time>
      </trkpt>
      <trkpt lat="47.55403" lon="-2.48884">
        <ele>4.2</ele>
        <time>2020-06-06T10:03:12Z</time>
      </trkpt>
      <trkpt lat="47.55406" lon="-2.4889">
        <ele>4.3</ele>
        <time>2020-06-06T10:03:13Z</time>
      </trkpt>
      <trkpt lat="47.55409" lon="-2.48897">
        <ele>4.3</ele>
        <time>2020-06-06T10:03:14Z</time>
      </trkpt>
      <trkpt lat="47.55412" lon="-2.48904">
        <ele>4.4</ele>
        <time>2020-06-06T10:03:15Z</time>
      </trkpt>
      <trkpt lat="47.55414" lon="-2.4891">
        <ele>4.5</ele>
        <time>2020-06-06T10:03:16Z</time>
      </trkpt>
      <trkpt lat="47.55416" lon="-2.48917">
        <ele>4.5</ele>
        <time>2020-06-06T10:03:17Z</time>
      </trkpt>
      <trkpt lat="47.5542" lon="-2.48921">
        <ele>4.6</ele>
        <time>2020-06-06T10:03:18Z</time>
      </trkpt>
      <trkpt lat="47.55422" lon="-2.48926">
        <ele>4.6</ele>
        <time>2020-06-06T10:03:19Z</time>
      </trkpt>
      <trkpt lat="47.55424" lon="-2.48931">
        <ele>4.7</ele>
        <time>2020-06-06T10:03:20Z</time>
      </trkpt>
      <trkpt lat="47.55427" lon="-2.48936">
        <ele>4.8</ele>
        <time>2020-06-06T10:03:21Z</time>
      </trkpt>
      <trkpt lat="47.55429" lon="-2.48942">
        <ele>4.9</ele>
        <time>2020-06-06T10:03:22Z</time>
      </trkpt>
      <trkpt lat="47.5543" lon="-2.48948">
        <ele>5</ele>
        <time>2020-06-06T10:03:23Z</time>
      </trkpt>
      <trkpt lat="47.55433" lon="-2.48953">
        <ele>5.1</ele>
        <time>2020-06-06T10:03:24Z</time>
      </trkpt>
      <trkpt lat="47.55436" lon="-2.48958">
        <ele>5.3</ele>
        <time>2020-06-06T10:03:25Z</time>
      </trkpt>
      <trkpt lat="47.55439" lon="-2.48963">
        <ele>5.5</ele>
        <time>2020-06-06T10:03:26Z</time>
      </trkpt>
      <trkpt lat="47.55441" lon="-2.48969">
        <ele>5.7</ele>
        <time>2020-06-06T10:03:27Z</time>
      </trkpt>
      <trkpt lat="47.55444" lon="-2.48976">
        <ele>5.9</ele>
        <time>2020-06-06T10:03:28Z</time>
      </trkpt>
      <trkpt lat="47.55447" lon="-2.48982">
        <ele>6.2</ele>
        <time>2020-06-06T10:03:29Z</time>
      </trkpt>
      <trkpt lat="47.5545" lon="-2.48988">
        <ele>6.4</ele>
        <time>2020-06-06T10:03:30Z</time>
      </trkpt>
      <trkpt lat="47.55453" lon="-2.48993">
        <ele>6.6</ele>
        <time>2020-06-06T10:03:31Z</time>
      </trkpt>
      <trkpt lat="47.55457" lon="-2.48999">
        <ele>6.8</ele>
        <time>2020-06-06T10:03:32Z</time>
      </trkpt>
      <trkpt lat="47.5546" lon="-2.49005">
        <ele>7</ele>
        <time>2020-06-06T10:03:33Z</time>
      </trkpt>
      <trkpt lat="47.55463" lon="-2.4901">
        <ele>7.2</ele>
        <time>2020-06-06T10:03:34Z</time>
      </trkpt>
      <trkpt lat="47.55466" lon="-2.49015">
        <ele>7.3</ele>
        <time>2020-06-06T10:03:35Z</time>
      </trkpt>
      <trkpt lat="47.5547" lon="-2.4902">
        <ele>7.4</ele>
        <time>2020-06-06T10:03:36Z</time>
      </trkpt>
      <trkpt lat="47.55474" lon="-2.49025">
        <ele>7.6</ele>
        <time>2020-06-06T10:03:37Z</time>
      </trkpt>
      <trkpt lat="47.55478" lon="-2.49029">
        <ele>7.6</ele>
        <time>2020-06-06T10:03:38Z</time>
      </trkpt>
      <trkpt lat="47.55482" lon="-2.49034">
        <ele>7.7</ele>
        <time>2020-06-06T10:03:39Z</time>
      </trkpt>
      <trkpt lat="47.55487" lon="-2.49039">
        <ele>7.7</ele>
        <time>2020-06-06T10:03:40Z</time>
      </trkpt>
      <trkpt lat="47.55491" lon="-2.49044">
        <ele>7.6</ele>
        <time>2020-06-06T10:03:41Z</time>
      </trkpt>
      <trkpt lat="47.55496" lon="-2.49049">
        <ele>7.6</ele>
        <time>2020-06-06T10:03:42Z</time>
      </trkpt>
      <trkpt lat="47.55501" lon="-2.49054">
        <ele>7.5</ele>
        <time>2020-06-06T10:03:43Z</time>
      </trkpt>
      <trkpt lat="47.55506" lon="-2.49059">
        <ele>7.4</ele>
        <time>2020-06-06T10:03:44Z</time>
      </trkpt>
      <trkpt lat="47.55511" lon="-2.49065">
        <ele>7.2</ele>
        <time>2020-06-06T10:03:45Z</time>
      </trkpt>
      <trkpt lat="47.55517" lon="-2.49069">
        <ele>7</ele>
        <time>2020-06-06T10:03:46Z</time>
      </trkpt>
      <trkpt lat="47.55522" lon="-2.49074">
        <ele>6.9</ele>
        <time>2020-06-06T10:03:47Z</time>
      </trkpt>
      <trkpt lat="47.55527" lon="-2.49078">
        <ele>6.7</ele>
        <time>2020-06-06T10:03:48Z</time>
      </trkpt>
      <trkpt lat="47.55532" lon="-2.49083">
        <ele>6.6</ele>
        <time>2020-06-06T10:03:49Z</time>
      </trkpt>
      <trkpt lat="47.55538" lon="-2.49089">
        <ele>6.5</ele>
        <time>2020-06-06T10:03:50Z</time>
      </trkpt>
      <trkpt lat="47.55544" lon="-2.49095">
        <ele>6.5</ele>
        <time>2020-06-06T10:03:51Z</time>
      </trkpt>
      <trkpt lat="47.5555" lon="-2.49101">
        <ele>6.4</ele>
        <time>2020-06-06T10:03:52Z</time>
      </trkpt>
      <trkpt lat="47.55555" lon="-2.49107">
        <ele>6.4</ele>
        <time>2020-06-06T10:03:53Z</time>
      </trkpt>
      <trkpt lat="47.5556" lon="-2.49113">
        <ele>6.5</ele>
        <time>2020-06-06T10:03:54Z</time>
      </trkpt>
      <trkpt lat="47.55565" lon="-2.49119">
        <ele>6.5</ele>
        <time>2020-06-06T10:03:55Z</time>
      </trkpt>
      <trkpt lat="47.55569" lon="-2.49126">
        <ele>6.7</ele>
        <time>2020-06-06T10:03:56Z</time>
      </trkpt>
      <trkpt lat="47.55573" lon="-2.49133">
        <ele>6.9</ele>
        <time>2020-06-06T10:03:57Z</time>
      </trkpt>
      <trkpt lat="47.55579" lon="-2.49142">
        <ele>7.2</ele>
        <time>2020-06-06T10:03:58Z</time>
      </trkpt>
      <trkpt lat="47.55583" lon="-2.4915">
        <ele>7.5</ele>
        <time>2020-06-06T10:03:59Z</time>
      </trkpt>
      <trkpt lat="47.55587" lon="-2.49159">
        <ele>7.8</ele>
        <time>2020-06-06T10:04:00Z</time>
      </trkpt>
      <trkpt lat="47.55592" lon="-2.49167">
        <ele>8.1</ele>
        <time>2020-06-06T10:04:01Z</time>
      </trkpt>
      <trkpt lat="47.55596" lon="-2.49175">
        <ele>8.4</ele>
        <time>2020-06-06T10:04:02Z</time>
      </trkpt>
      <trkpt lat="47.55601" lon="-2.49182">
        <ele>8.6</ele>
        <time>2020-06-06T10:04:03Z</time>
      </trkpt>
      <trkpt lat="47.55605" lon="-2.49188">
        <ele>8.8</ele>
        <time>2020-06-06T10:04:04Z</time>
      </trkpt>
      <trkpt lat="47.5561" lon="-2.49197">
        <ele>9</ele>
        <time>2020-06-06T10:04:05Z</time>
      </trkpt>
      <trkpt lat="47.55614" lon="-2.49204">
        <ele>9.2</ele>
        <time>2020-06-06T10:04:06Z</time>
      </trkpt>
      <trkpt lat="47.55617" lon="-2.4921">
        <ele>9.3</ele>
        <time>2020-06-06T10:04:07Z</time>
      </trkpt>
      <trkpt lat="47.55621" lon="-2.49218">
        <ele>9.4</ele>
        <time>2020-06-06T10:04:08Z</time>
      </trkpt>
      <trkpt lat="47.55625" lon="-2.49224">
        <ele>9.6</ele>
        <time>2020-06-06T10:04:09Z</time>
      </trkpt>
      <trkpt lat="47.55628" lon="-2.4923">
        <ele>9.7</ele>
        <time>2020-06-06T10:04:10Z</time>
      </trkpt>
      <trkpt lat="47.55631" lon="-2.49235">
        <ele>9.8</ele>
        <time>2020-06-06T10:04:11Z</time>
      </trkpt>
      <trkpt lat="47.55635" lon="-2.49241">
        <ele>9.9</ele>
        <time>2020-06-06T10:04:12Z</time>
      </trkpt>
      <trkpt lat="47.55638" lon="-2.49245">
        <ele>10</ele>
        <time>2020-06-06T10:04:13Z</time>
      </trkpt>
      <trkpt lat="47.55641" lon="-2.4925">
        <ele>10.1</ele>
        <time>2020-06-06T10:04:14Z</time>
      </trkpt>
      <trkpt lat="47.55644" lon="-2.49256">
        <ele>10.2</ele>
        <time>2020-06-06T10:04:15Z</time>
      </trkpt>
      <trkpt lat="47.55647" lon="-2.4926">
        <ele>10.2</ele>
        <time>2020-06-06T10:04:16Z</time>
      </trkpt>
      <trkpt lat="47.55651" lon="-2.49265">
        <ele>10.3</ele>
        <time>2020-06-06T10:04:17Z</time>
      </trkpt>
      <trkpt lat="47.55654" lon="-2.49269">
        <ele>10.4</ele>
        <time>2020-06-06T10:04:18Z</time>
      </trkpt>
      <trkpt lat="47.55657" lon="-2.49274">
        <ele>10.4</ele>
        <time>2020-06-06T10:04:19Z</time>
      </trkpt>
      <trkpt lat="47.5566" lon="-2.49279">
        <ele>10.5</ele>
        <time>2020-06-06T10:04:20Z</time>
      </trkpt>
      <trkpt lat="47.55664" lon="-2.49285">
        <ele>10.5</ele>
        <time>2020-06-06T10:04:21Z</time>
      </trkpt>
      <trkpt lat="47.55667" lon="-2.49289">
        <ele>10.5</ele>
        <time>2020-06-06T10:04:22Z</time>
      </trkpt>
      <trkpt lat="47.55671" lon="-2.49295">
        <ele>10.5</ele>
        <time>2020-06-06T10:04:23Z</time>
      </trkpt>
      <trkpt lat="47.55674" lon="-2.493">
        <ele>10.4</ele>
        <time>2020-06-06T10:04:24Z</time>
      </trkpt>
      <trkpt lat="47.55676" lon="-2.49304">
        <ele>10.4</ele>
        <time>2020-06-06T10:04:25Z</time>
      </trkpt>
      <trkpt lat="47.5568" lon="-2.49309">
        <ele>10.4</ele>
        <time>2020-06-06T10:04:26Z</time>
      </trkpt>
      <trkpt lat="47.55684" lon="-2.49316">
        <ele>10.3</ele>
        <time>2020-06-06T10:04:27Z</time>
      </trkpt>
      <trkpt lat="47.55687" lon="-2.49323">
        <ele>10.3</ele>
        <time>2020-06-06T10:04:28Z</time>
      </trkpt>
      <trkpt lat="47.55691" lon="-2.4933">
        <ele>10.3</ele>
        <time>2020-06-06T10:04:29Z</time>
      </trkpt>
      <trkpt lat="47.55694" lon="-2.49337">
        <ele>10.3</ele>
        <time>2020-06-06T10:04:30Z</time>
      </trkpt>
      <trkpt lat="47.55698" lon="-2.49345">
        <ele>10.2</ele>
        <time>2020-06-06T10:04:31Z</time>
      </trkpt>
      <trkpt lat="47.55701" lon="-2.49352">
        <ele>10.2</ele>
        <time>2020-06-06T10:04:32Z</time>
      </trkpt>
      <trkpt lat="47.55704" lon="-2.49358">
        <ele>10.2</ele>
        <time>2020-06-06T10:04:33Z</time>
      </trkpt>
      <trkpt lat="47.55708" lon="-2.49364">
        <ele>10.2</ele>
        <time>2020-06-06T10:04:34Z</time>
      </trkpt>
      <trkpt lat="47.55711" lon="-2.49371">
        <ele>10.2</ele>
        <time>2020-06-06T10:04:35Z</time>
      </trkpt>
      <trkpt lat="47.55715" lon="-2.49377">
        <ele>10.2</ele>
        <time>2020-06-06T10:04:36Z</time>
      </trkpt>
      <trkpt lat="47.55718" lon="-2.49383">
        <ele>10.2</ele>
        <time>2020-06-06T10:04:37Z</time>
      </trkpt>
      <trkpt lat="47.55721" lon="-2.4939">
        <ele>10.2</ele>
        <time>2020-06-06T10:04:38Z</time>
      </trkpt>
      <trkpt lat="47.55725" lon="-2.49397">
        <ele>10.3</ele>
        <time>2020-06-06T10:04:39Z</time>
      </trkpt>
      <trkpt lat="47.55729" lon="-2.49403">
        <ele>10.3</ele>
        <time>2020-06-06T10:04:40Z</time>
      </trkpt>
      <trkpt lat="47.55732" lon="-2.49408">
        <ele>10.3</ele>
        <time>2020-06-06T10:04:41Z</time>
      </trkpt>
      <trkpt lat="47.55735" lon="-2.49413">
        <ele>10.3</ele>
        <time>2020-06-06T10:04:42Z</time>
      </trkpt>
      <trkpt lat="47.55739" lon="-2.49419">
        <ele>10.4</ele>
        <time>2020-06-06T10:04:43Z</time>
      </trkpt>
      <trkpt lat="47.55743" lon="-2.49425">
        <ele>10.4</ele>
        <time>2020-06-06T10:04:44Z</time>
      </trkpt>
      <trkpt lat="47.55747" lon="-2.4943">
        <ele>10.5</ele>
        <time>2020-06-06T10:04:45Z</time>
      </trkpt>
      <trkpt lat="47.55751" lon="-2.49434">
        <ele>10.5</ele>
        <time>2020-06-06T10:04:46Z</time>
      </trkpt>
      <trkpt lat="47.55754" lon="-2.49439">
        <ele>10.6</ele>
        <time>2020-06-06T10:04:47Z</time>
      </trkpt>
      <trkpt lat="47.55758" lon="-2.49444">
        <ele>10.7</ele>
        <time>2020-06-06T10:04:48Z</time>
      </trkpt>
      <trkpt lat="47.5576" lon="-2.49449">
        <ele>10.8</ele>
        <time>2020-06-06T10:04:49Z</time>
      </trkpt>
      <trkpt lat="47.55763" lon="-2.49453">
        <ele>10.8</ele>
        <time>2020-06-06T10:04:50Z</time>
      </trkpt>
      <trkpt lat="47.55765" lon="-2.49459">
        <ele>10.9</ele>
        <time>2020-06-06T10:04:51Z</time>
      </trkpt>
      <trkpt lat="47.55767" lon="-2.49464">
        <ele>11</ele>
        <time>2020-06-06T10:04:52Z</time>
      </trkpt>
      <trkpt lat="47.5577" lon="-2.4947">
        <ele>11.1</ele>
        <time>2020-06-06T10:04:53Z</time>
      </trkpt>
      <trkpt lat="47.55774" lon="-2.49476">
        <ele>11.2</ele>
        <time>2020-06-06T10:04:54Z</time>
      </trkpt>
      <trkpt lat="47.55776" lon="-2.49482">
        <ele>11.4</ele>
        <time>2020-06-06T10:04:55Z</time>
      </trkpt>
      <trkpt lat="47.5578" lon="-2.49486">
        <ele>11.6</ele>
        <time>2020-06-06T10:04:56Z</time>
      </trkpt>
      <trkpt lat="47.55783" lon="-2.49491">
        <ele>11.7</ele>
        <time>2020-06-06T10:04:57Z</time>
      </trkpt>
      <trkpt lat="47.55786" lon="-2.49497">
        <ele>11.9</ele>
        <time>2020-06-06T10:04:58Z</time>
      </trkpt>
      <trkpt lat="47.55789" lon="-2.49503">
        <ele>12.1</ele>
        <time>2020-06-06T10:04:59Z</time>
      </trkpt>
      <trkpt lat="47.55792" lon="-2.4951">
        <ele>12.4</ele>
        <time>2020-06-06T10:05:00Z</time>
      </trkpt>
      <trkpt lat="47.55793" lon="-2.49515">
        <ele>12.6</ele>
        <time>2020-06-06T10:05:01Z</time>
      </trkpt>
      <trkpt lat="47.55795" lon="-2.49519">
        <ele>12.7</ele>
        <time>2020-06-06T10:05:02Z</time>
      </trkpt>
      <trkpt lat="47.55796" lon="-2.49523">
        <ele>12.9</ele>
        <time>2020-06-06T10:05:03Z</time>
      </trkpt>
      <trkpt lat="47.55799" lon="-2.49528">
        <ele>13.1</ele>
        <time>2020-06-06T10:05:04Z</time>
      </trkpt>
      <trkpt lat="47.55801" lon="-2.49533">
        <ele>13.3</ele>
        <time>2020-06-06T10:05:05Z</time>
      </trkpt>
      <trkpt lat="47.55803" lon="-2.49538">
        <ele>13.5</ele>
        <time>2020-06-06T10:05:06Z</time>
      </trkpt>
      <trkpt lat="47.55805" lon="-2.49543">
        <ele>13.6</ele>
        <time>2020-06-06T10:05:07Z</time>
      </trkpt>
      <trkpt lat="47.55808" lon="-2.4955">
        <ele>13.9</ele>
        <time>2020-06-06T10:05:08Z</time>
      </trkpt>
      <trkpt lat="47.55809" lon="-2.49554">
        <ele>14</ele>
        <time>2020-06-06T10:05:09Z</time>
      </trkpt>
      <trkpt lat="47.55811" lon="-2.49558">
        <ele>14.2</ele>
        <time>2020-06-06T10:05:10Z</time>
      </trkpt>
      <trkpt lat="47.55812" lon="-2.49563">
        <ele>14.4</ele>
        <time>2020-06-06T10:05:11Z</time>
      </trkpt>
      <trkpt lat="47.55813" lon="-2.49567">
        <ele>14.5</ele>
        <time>2020-06-06T10:05:12Z</time>
      </trkpt>
      <trkpt lat="47.55815" lon="-2.49572">
        <ele>14.7</ele>
        <time>2020-06-06T10:05:13Z</time>
      </trkpt>
      <trkpt lat="47.55817" lon="-2.49577">
        <ele>14.9</ele>
        <time>2020-06-06T10:05:14Z</time>
      </trkpt>
      <trkpt lat="47.55819" lon="-2.49582">
        <ele>15.1</ele>
        <time>2020-06-06T10:05:15Z</time>
      </trkpt>
      <trkpt lat="47.5582" lon="-2.49587">
        <ele>15.3</ele>
        <time>2020-06-06T10:05:16Z</time>
      </trkpt>
      <trkpt lat="47.55821" lon="-2.49592">
        <ele>15.4</ele>
        <time>2020-06-06T10:05:17Z</time>
      </trkpt>
      <trkpt lat="47.55823" lon="-2.49597">
        <ele>15.6</ele>
        <time>2020-06-06T10:05:18Z</time>
      </trkpt>
      <trkpt lat="47.55824" lon="-2.49602">
        <ele>15.7</ele>
        <time>2020-06-06T10:05:19Z</time>
      </trkpt>
      <trkpt lat="47.55826" lon="-2.49608">
        <ele>15.8</ele>
        <time>2020-06-06T10:05:20Z</time>
      </trkpt>
      <trkpt lat="47.55827" lon="-2.49614">
        <ele>16</ele>
        <time>2020-06-06T10:05:21Z</time>
      </trkpt>
      <trkpt lat="47.55828" lon="-2.4962">
        <ele>16.1</ele>
        <time>2020-06-06T10:05:22Z</time>
      </trkpt>
      <trkpt lat="47.5583" lon="-2.49625">
        <ele>16.2</ele>
        <time>2020-06-06T10:05:23Z</time>
      </trkpt>
      <trkpt lat="47.55831" lon="-2.49632">
        <ele>16.3</ele>
        <time>2020-06-06T10:05:24Z</time>
      </trkpt>
      <trkpt lat="47.55833" lon="-2.49639">
        <ele>16.4</ele>
        <time>2020-06-06T10:05:25Z</time>
      </trkpt>
      <trkpt lat="47.55835" lon="-2.49645">
        <ele>16.5</ele>
        <time>2020-06-06T10:05:26Z</time>
      </trkpt>
      <trkpt lat="47.55835" lon="-2.49647">
        <ele>16.5</ele>
        <time>2020-06-06T10:05:27Z</time>
      </trkpt>
      <trkpt lat="47.55837" lon="-2.49652">
        <ele>16.5</ele>
        <time>2020-06-06T10:05:28Z</time>
      </trkpt>
      <trkpt lat="47.55839" lon="-2.49658">
        <ele>16.6</ele>
        <time>2020-06-06T10:05:29Z</time>
      </trkpt>
      <trkpt lat="47.55841" lon="-2.49664">
        <ele>16.6</ele>
        <time>2020-06-06T10:05:30Z</time>
      </trkpt>
      <trkpt lat="47.55843" lon="-2.49669">
        <ele>16.7</ele>
        <time>2020-06-06T10:05:31Z</time>
      </trkpt>
      <trkpt lat="47.55846" lon="-2.49677">
        <ele>16.8</ele>
        <time>2020-06-06T10:05:32Z</time>
      </trkpt>
      <trkpt lat="47.55847" lon="-2.49682">
        <ele>16.8</ele>
        <time>2020-06-06T10:05:33Z</time>
      </trkpt>
      <trkpt lat="47.55849" lon="-2.49689">
        <ele>16.9</ele>
        <time>2020-06-06T10:05:34Z</time>
      </trkpt>
      <trkpt lat="47.5585" lon="-2.49694">
        <ele>17</ele>
        <time>2020-06-06T10:05:35Z</time>
      </trkpt>
      <trkpt lat="47.55852" lon="-2.49699">
        <ele>17.1</ele>
        <time>2020-06-06T10:05:36Z</time>
      </trkpt>
      <trkpt lat="47.55855" lon="-2.49707">
        <ele>17.2</ele>
        <time>2020-06-06T10:05:37Z</time>
      </trkpt>
      <trkpt lat="47.55857" lon="-2.49714">
        <ele>17.2</ele>
        <time>2020-06-06T10:05:38Z</time>
      </trkpt>
      <trkpt lat="47.55859" lon="-2.49719">
        <ele>17.3</ele>
        <time>2020-06-06T10:05:39Z</time>
      </trkpt>
      <trkpt lat="47.55861" lon="-2.49725">
        <ele>17.3</ele>
        <time>2020-06-06T10:05:40Z</time>
      </trkpt>
      <trkpt lat="47.55864" lon="-2.49731">
        <ele>17.4</ele>
        <time>2020-06-06T10:05:41Z</time>
      </trkpt>
      <trkpt lat="47.55866" lon="-2.49737">
        <ele>17.4</ele>
        <time>2020-06-06T10:05:42Z</time>
      </trkpt>
      <trkpt lat="47.55869" lon="-2.49743">
        <ele>17.4</ele>
        <time>2020-06-06T10:05:43Z</time>
      </trkpt>
      <trkpt lat="47.55872" lon="-2.49749">
        <ele>17.3</ele>
        <time>2020-06-06T10:05:44Z</time>
      </trkpt>
      <trkpt lat="47.55875" lon="-2.49754">
        <ele>17.3</ele>
        <time>2020-06-06T10:05:45Z</time>
      </trkpt>
      <trkpt lat="47.55877" lon="-2.49758">
        <ele>17.3</ele>
        <time>2020-06-06T10:05:46Z</time>
      </trkpt>
      <trkpt lat="47.5588" lon="-2.49763">
        <ele>17.2</ele>
        <time>2020-06-06T10:05:47Z</time>
      </trkpt>
      <trkpt lat="47.55882" lon="-2.49768">
        <ele>17.2</ele>
        <time>2020-06-06T10:05:48Z</time>
      </trkpt>
      <trkpt lat="47.55884" lon="-2.49774">
        <ele>17.1</ele>
        <time>2020-06-06T10:05:49Z</time>
      </trkpt>
      <trkpt lat="47.55887" lon="-2.49779">
        <ele>17.1</ele>
        <time>2020-06-06T10:05:50Z</time>
      </trkpt>
      <trkpt lat="47.5589" lon="-2.49784">
        <ele>17</ele>
        <time>2020-06-06T10:05:51Z</time>
      </trkpt>
      <trkpt lat="47.55892" lon="-2.49789">
        <ele>17</ele>
        <time>2020-06-06T10:05:52Z</time>
      </trkpt>
      <trkpt lat="47.55896" lon="-2.49793">
        <ele>16.8</ele>
        <time>2020-06-06T10:05:53Z</time>
      </trkpt>
      <trkpt lat="47.559" lon="-2.49797">
        <ele>16.7</ele>
        <time>2020-06-06T10:05:54Z</time>
      </trkpt>
      <trkpt lat="47.55906" lon="-2.49797">
        <ele>16.5</ele>
        <time>2020-06-06T10:05:55Z</time>
      </trkpt>
      <trkpt lat="47.55914" lon="-2.49797">
        <ele>16.2</ele>
        <time>2020-06-06T10:05:56Z</time>
      </trkpt>
      <trkpt lat="47.5592" lon="-2.49798">
        <ele>16</ele>
        <time>2020-06-06T10:05:57Z</time>
      </trkpt>
      <trkpt lat="47.55925" lon="-2.49799">
        <ele>15.8</ele>
        <time>2020-06-06T10:05:58Z</time>
      </trkpt>
      <trkpt lat="47.55931" lon="-2.498">
        <ele>15.6</ele>
        <time>2020-06-06T10:05:59Z</time>
      </trkpt>
      <trkpt lat="47.55937" lon="-2.49802">
        <ele>15.4</ele>
        <time>2020-06-06T10:06:00Z</time>
      </trkpt>
      <trkpt lat="47.55942" lon="-2.49804">
        <ele>15.2</ele>
        <time>2020-06-06T10:06:01Z</time>
      </trkpt>
      <trkpt lat="47.55948" lon="-2.49804">
        <ele>15.2</ele>
        <time>2020-06-06T10:06:02Z</time>
      </trkpt>
      <trkpt lat="47.55954" lon="-2.49801">
        <ele>15.2</ele>
        <time>2020-06-06T10:06:03Z</time>
      </trkpt>
      <trkpt lat="47.55958" lon="-2.49796">
        <ele>15.2</ele>
        <time>2020-06-06T10:06:04Z</time>
      </trkpt>
      <trkpt lat="47.55961" lon="-2.49789">
        <ele>15.2</ele>
        <time>2020-06-06T10:06:05Z</time>
      </trkpt>
      <trkpt lat="47.55965" lon="-2.49781">
        <ele>15.4</ele>
        <time>2020-06-06T10:06:06Z</time>
      </trkpt>
      <trkpt lat="47.55967" lon="-2.49774">
        <ele>15.4</ele>
        <time>2020-06-06T10:06:07Z</time>
      </trkpt>
      <trkpt lat="47.5597" lon="-2.49768">
        <ele>15.4</ele>
        <time>2020-06-06T10:06:08Z</time>
      </trkpt>
      <trkpt lat="47.55972" lon="-2.49761">
        <ele>15.4</ele>
        <time>2020-06-06T10:06:09Z</time>
      </trkpt>
      <trkpt lat="47.55975" lon="-2.49755">
        <ele>15.4</ele>
        <time>2020-06-06T10:06:10Z</time>
      </trkpt>
      <trkpt lat="47.55978" lon="-2.49749">
        <ele>15.5</ele>
        <time>2020-06-06T10:06:11Z</time>
      </trkpt>
      <trkpt lat="47.55982" lon="-2.49748">
        <ele>15.5</ele>
        <time>2020-06-06T10:06:12Z</time>
      </trkpt>
      <trkpt lat="47.55987" lon="-2.49749">
        <ele>15.6</ele>
        <time>2020-06-06T10:06:13Z</time>
      </trkpt>
      <trkpt lat="47.55991" lon="-2.4975">
        <ele>15.6</ele>
        <time>2020-06-06T10:06:14Z</time>
      </trkpt>
      <trkpt lat="47.55994" lon="-2.49753">
        <ele>15.6</ele>
        <time>2020-06-06T10:06:15Z</time>
      </trkpt>
      <trkpt lat="47.55997" lon="-2.49757">
        <ele>15.7</ele>
        <time>2020-06-06T10:06:16Z</time>
      </trkpt>
      <trkpt lat="47.56" lon="-2.49761">
        <ele>16</ele>
        <time>2020-06-06T10:06:17Z</time>
      </trkpt>
      <trkpt lat="47.56004" lon="-2.49764">
        <ele>16.1</ele>
        <time>2020-06-06T10:06:18Z</time>
      </trkpt>
      <trkpt lat="47.56007" lon="-2.49766">
        <ele>16.2</ele>
        <time>2020-06-06T10:06:19Z</time>
      </trkpt>
      <trkpt lat="47.56011" lon="-2.49767">
        <ele>16.4</ele>
        <time>2020-06-06T10:06:20Z</time>
      </trkpt>
      <trkpt lat="47.56015" lon="-2.49769">
        <ele>16.5</ele>
        <time>2020-06-06T10:06:21Z</time>
      </trkpt>
      <trkpt lat="47.56019" lon="-2.49772">
        <ele>16.6</ele>
        <time>2020-06-06T10:06:22Z</time>
      </trkpt>
      <trkpt lat="47.56024" lon="-2.49772">
        <ele>16.8</ele>
        <time>2020-06-06T10:06:23Z</time>
      </trkpt>
      <trkpt lat="47.56027" lon="-2.49774">
        <ele>16.9</ele>
        <time>2020-06-06T10:06:24Z</time>
      </trkpt>
      <trkpt lat="47.56031" lon="-2.49776">
        <ele>17</ele>
        <time>2020-06-06T10:06:25Z</time>
      </trkpt>
      <trkpt lat="47.56035" lon="-2.49778">
        <ele>17.2</ele>
        <time>2020-06-06T10:06:26Z</time>
      </trkpt>
      <trkpt lat="47.56039" lon="-2.4978">
        <ele>17.3</ele>
        <time>2020-06-06T10:06:27Z</time>
      </trkpt>
      <trkpt lat="47.56044" lon="-2.49784">
        <ele>17.5</ele>
        <time>2020-06-06T10:06:28Z</time>
      </trkpt>
      <trkpt lat="47.56047" lon="-2.49786">
        <ele>17.6</ele>
        <time>2020-06-06T10:06:29Z</time>
      </trkpt>
      <trkpt lat="47.56051" lon="-2.4979">
        <ele>17.8</ele>
        <time>2020-06-06T10:06:30Z</time>
      </trkpt>
      <trkpt lat="47.56057" lon="-2.49793">
        <ele>18</ele>
        <time>2020-06-06T10:06:31Z</time>
      </trkpt>
      <trkpt lat="47.56062" lon="-2.49796">
        <ele>18.2</ele>
        <time>2020-06-06T10:06:32Z</time>
      </trkpt>
      <trkpt lat="47.56065" lon="-2.49798">
        <ele>18.3</ele>
        <time>2020-06-06T10:06:33Z</time>
      </trkpt>
      <trkpt lat="47.56069" lon="-2.49801">
        <ele>18.4</ele>
        <time>2020-06-06T10:06:34Z</time>
      </trkpt>
      <trkpt lat="47.56073" lon="-2.49804">
        <ele>18.6</ele>
        <time>2020-06-06T10:06:35Z</time>
      </trkpt>
      <trkpt lat="47.56076" lon="-2.49807">
        <ele>18.7</ele>
        <time>2020-06-06T10:06:36Z</time>
      </trkpt>
      <trkpt lat="47.5608" lon="-2.4981">
        <ele>18.8</ele>
        <time>2020-06-06T10:06:37Z</time>
      </trkpt>
      <trkpt lat="47.56084" lon="-2.49813">
        <ele>18.9</ele>
        <time>2020-06-06T10:06:38Z</time>
      </trkpt>
      <trkpt lat="47.56089" lon="-2.49817">
        <ele>19</ele>
        <time>2020-06-06T10:06:39Z</time>
      </trkpt>
      <trkpt lat="47.56093" lon="-2.49821">
        <ele>19.1</ele>
        <time>2020-06-06T10:06:40Z</time>
      </trkpt>
      <trkpt lat="47.56097" lon="-2.49824">
        <ele>19.2</ele>
        <time>2020-06-06T10:06:41Z</time>
      </trkpt>
      <trkpt lat="47.56102" lon="-2.49827">
        <ele>19.4</ele>
        <time>2020-06-06T10:06:42Z</time>
      </trkpt>
      <trkpt lat="47.56105" lon="-2.4983">
        <ele>19.4</ele>
        <time>2020-06-06T10:06:43Z</time>
      </trkpt>
      <trkpt lat="47.56109" lon="-2.49833">
        <ele>19.5</ele>
        <time>2020-06-06T10:06:44Z</time>
      </trkpt>
      <trkpt lat="47.56113" lon="-2.49836">
        <ele>19.6</ele>
        <time>2020-06-06T10:06:45Z</time>
      </trkpt>
      <trkpt lat="47.56117" lon="-2.49839">
        <ele>19.7</ele>
        <time>2020-06-06T10:06:46Z</time>
      </trkpt>
      <trkpt lat="47.56122" lon="-2.49842">
        <ele>19.8</ele>
        <time>2020-06-06T10:06:47Z</time>
      </trkpt>
      <trkpt lat="47.56127" lon="-2.49845">
        <ele>19.9</ele>
        <time>2020-06-06T10:06:48Z</time>
      </trkpt>
      <trkpt lat="47.56131" lon="-2.49848">
        <ele>20</ele>
        <time>2020-06-06T10:06:49Z</time>
      </trkpt>
      <trkpt lat="47.56136" lon="-2.49851">
        <ele>20.1</ele>
        <time>2020-06-06T10:06:50Z</time>
      </trkpt>
      <trkpt lat="47.56139" lon="-2.49854">
        <ele>20.1</ele>
        <time>2020-06-06T10:06:51Z</time>
      </trkpt>
      <trkpt lat="47.56143" lon="-2.49857">
        <ele>20.2</ele>
        <time>2020-06-06T10:06:52Z</time>
      </trkpt>
      <trkpt lat="47.56148" lon="-2.4986">
        <ele>20.3</ele>
        <time>2020-06-06T10:06:53Z</time>
      </trkpt>
      <trkpt lat="47.56153" lon="-2.49863">
        <ele>20.3</ele>
        <time>2020-06-06T10:06:54Z</time>
      </trkpt>
      <trkpt lat="47.56156" lon="-2.49866">
        <ele>20.4</ele>
        <time>2020-06-06T10:06:55Z</time>
      </trkpt>
      <trkpt lat="47.56159" lon="-2.49868">
        <ele>20.4</ele>
        <time>2020-06-06T10:06:56Z</time>
      </trkpt>
      <trkpt lat="47.56162" lon="-2.49872">
        <ele>20.5</ele>
        <time>2020-06-06T10:06:57Z</time>
      </trkpt>
      <trkpt lat="47.56167" lon="-2.49875">
        <ele>20.6</ele>
        <time>2020-06-06T10:06:58Z</time>
      </trkpt>
      <trkpt lat="47.5617" lon="-2.49878">
        <ele>20.7</ele>
        <time>2020-06-06T10:06:59Z</time>
      </trkpt>
      <trkpt lat="47.56174" lon="-2.49882">
        <ele>20.8</ele>
        <time>2020-06-06T10:07:00Z</time>
      </trkpt>
      <trkpt lat="47.56179" lon="-2.49886">
        <ele>20.9</ele>
        <time>2020-06-06T10:07:01Z</time>
      </trkpt>
      <trkpt lat="47.56183" lon="-2.49889">
        <ele>21</ele>
        <time>2020-06-06T10:07:02Z</time>
      </trkpt>
      <trkpt lat="47.56187" lon="-2.49892">
        <ele>21</ele>
        <time>2020-06-06T10:07:03Z</time>
      </trkpt>
      <trkpt lat="47.5619" lon="-2.49895">
        <ele>21.1</ele>
        <time>2020-06-06T10:07:04Z</time>
      </trkpt>
      <trkpt lat="47.56194" lon="-2.499">
        <ele>21.2</ele>
        <time>2020-06-06T10:07:05Z</time>
      </trkpt>
      <trkpt lat="47.56198" lon="-2.49903">
        <ele>21.2</ele>
        <time>2020-06-06T10:07:06Z</time>
      </trkpt>
      <trkpt lat="47.56201" lon="-2.49906">
        <ele>21.3</ele>
        <time>2020-06-06T10:07:07Z</time>
      </trkpt>
      <trkpt lat="47.56204" lon="-2.49911">
        <ele>21.3</ele>
        <time>2020-06-06T10:07:08Z</time>
      </trkpt>
      <trkpt lat="47.56207" lon="-2.49913">
        <ele>21.4</ele>
        <time>2020-06-06T10:07:09Z</time>
      </trkpt>
      <trkpt lat="47.5621" lon="-2.49915">
        <ele>21.4</ele>
        <time>2020-06-06T10:07:10Z</time>
      </trkpt>
      <trkpt lat="47.56212" lon="-2.49919">
        <ele>21.5</ele>
        <time>2020-06-06T10:07:11Z</time>
      </trkpt>
      <trkpt lat="47.56215" lon="-2.49923">
        <ele>21.6</ele>
        <time>2020-06-06T10:07:12Z</time>
      </trkpt>
      <trkpt lat="47.5622" lon="-2.49928">
        <ele>21.7</ele>
        <time>2020-06-06T10:07:13Z</time>
      </trkpt>
      <trkpt lat="47.56223" lon="-2.49933">
        <ele>21.8</ele>
        <time>2020-06-06T10:07:14Z</time>
      </trkpt>
      <trkpt lat="47.56226" lon="-2.49937">
        <ele>21.8</ele>
        <time>2020-06-06T10:07:15Z</time>
      </trkpt>
      <trkpt lat="47.56229" lon="-2.49941">
        <ele>21.9</ele>
        <time>2020-06-06T10:07:16Z</time>
      </trkpt>
      <trkpt lat="47.56232" lon="-2.49944">
        <ele>21.9</ele>
        <time>2020-06-06T10:07:17Z</time>
      </trkpt>
      <trkpt lat="47.56235" lon="-2.49948">
        <ele>21.9</ele>
        <time>2020-06-06T10:07:18Z</time>
      </trkpt>
      <trkpt lat="47.56237" lon="-2.49953">
        <ele>22</ele>
        <time>2020-06-06T10:07:19Z</time>
      </trkpt>
      <trkpt lat="47.5624" lon="-2.49958">
        <ele>22</ele>
        <time>2020-06-06T10:07:20Z</time>
      </trkpt>
      <trkpt lat="47.56242" lon="-2.49963">
        <ele>22.1</ele>
        <time>2020-06-06T10:07:21Z</time>
      </trkpt>
      <trkpt lat="47.56244" lon="-2.49967">
        <ele>22.1</ele>
        <time>2020-06-06T10:07:22Z</time>
      </trkpt>
      <trkpt lat="47.56247" lon="-2.49971">
        <ele>22.1</ele>
        <time>2020-06-06T10:07:23Z</time>
      </trkpt>
      <trkpt lat="47.5625" lon="-2.49977">
        <ele>22.2</ele>
        <time>2020-06-06T10:07:24Z</time>
      </trkpt>
      <trkpt lat="47.56253" lon="-2.49982">
        <ele>22.2</ele>
        <time>2020-06-06T10:07:25Z</time>
      </trkpt>
      <trkpt lat="47.56256" lon="-2.49988">
        <ele>22.2</ele>
        <time>2020-06-06T10:07:26Z</time>
      </trkpt>
      <trkpt lat="47.56258" lon="-2.49992">
        <ele>22.3</ele>
        <time>2020-06-06T10:07:27Z</time>
      </trkpt>
      <trkpt lat="47.56261" lon="-2.49998">
        <ele>22.3</ele>
        <time>2020-06-06T10:07:28Z</time>
      </trkpt>
      <trkpt lat="47.56264" lon="-2.50002">
        <ele>22.3</ele>
        <time>2020-06-06T10:07:29Z</time>
      </trkpt>
      <trkpt lat="47.56266" lon="-2.50007">
        <ele>22.4</ele>
        <time>2020-06-06T10:07:30Z</time>
      </trkpt>
      <trkpt lat="47.5627" lon="-2.50012">
        <ele>22.5</ele>
        <time>2020-06-06T10:07:31Z</time>
      </trkpt>
      <trkpt lat="47.56274" lon="-2.50017">
        <ele>22.5</ele>
        <time>2020-06-06T10:07:32Z</time>
      </trkpt>
      <trkpt lat="47.56277" lon="-2.50022">
        <ele>22.6</ele>
        <time>2020-06-06T10:07:33Z</time>
      </trkpt>
      <trkpt lat="47.56279" lon="-2.50026">
        <ele>22.7</ele>
        <time>2020-06-06T10:07:34Z</time>
      </trkpt>
      <trkpt lat="47.56281" lon="-2.50032">
        <ele>22.7</ele>
        <time>2020-06-06T10:07:35Z</time>
      </trkpt>
      <trkpt lat="47.56283" lon="-2.50039">
        <ele>22.8</ele>
        <time>2020-06-06T10:07:36Z</time>
      </trkpt>
      <trkpt lat="47.56286" lon="-2.50045">
        <ele>22.9</ele>
        <time>2020-06-06T10:07:37Z</time>
      </trkpt>
      <trkpt lat="47.56288" lon="-2.5005">
        <ele>22.9</ele>
        <time>2020-06-06T10:07:38Z</time>
      </trkpt>
      <trkpt lat="47.5629" lon="-2.50055">
        <ele>23</ele>
        <time>2020-06-06T10:07:39Z</time>
      </trkpt>
      <trkpt lat="47.56293" lon="-2.50061">
        <ele>23</ele>
        <time>2020-06-06T10:07:40Z</time>
      </trkpt>
      <trkpt lat="47.56297" lon="-2.50067">
        <ele>23.1</ele>
        <time>2020-06-06T10:07:41Z</time>
      </trkpt>
      <trkpt lat="47.563" lon="-2.50071">
        <ele>23.1</ele>
        <time>2020-06-06T10:07:42Z</time>
      </trkpt>
      <trkpt lat="47.56303" lon="-2.50076">
        <ele>23.1</ele>
        <time>2020-06-06T10:07:43Z</time>
      </trkpt>
      <trkpt lat="47.56305" lon="-2.5008">
        <ele>23.2</ele>
        <time>2020-06-06T10:07:44Z</time>
      </trkpt>
      <trkpt lat="47.56307" lon="-2.50084">
        <ele>23.2</ele>
        <time>2020-06-06T10:07:45Z</time>
      </trkpt>
      <trkpt lat="47.56312" lon="-2.50089">
        <ele>23.3</ele>
        <time>2020-06-06T10:07:46Z</time>
      </trkpt>
      <trkpt lat="47.56314" lon="-2.50094">
        <ele>23.3</ele>
        <time>2020-06-06T10:07:47Z</time>
      </trkpt>
      <trkpt lat="47.56317" lon="-2.50099">
        <ele>23.3</ele>
        <time>2020-06-06T10:07:48Z</time>
      </trkpt>
      <trkpt lat="47.56319" lon="-2.50104">
        <ele>23.4</ele>
        <time>2020-06-06T10:07:49Z</time>
      </trkpt>
      <trkpt lat="47.56322" lon="-2.50108">
        <ele>23.4</ele>
        <time>2020-06-06T10:07:50Z</time>
      </trkpt>
      <trkpt lat="47.56325" lon="-2.50113">
        <ele>23.5</ele>
        <time>2020-06-06T10:07:51Z</time>
      </trkpt>
      <trkpt lat="47.56328" lon="-2.50118">
        <ele>23.5</ele>
        <time>2020-06-06T10:07:52Z</time>
      </trkpt>
      <trkpt lat="47.5633" lon="-2.50123">
        <ele>23.5</ele>
        <time>2020-06-06T10:07:53Z</time>
      </trkpt>
      <trkpt lat="47.56331" lon="-2.5013">
        <ele>23.6</ele>
        <time>2020-06-06T10:07:54Z</time>
      </trkpt>
      <trkpt lat="47.5633" lon="-2.50138">
        <ele>23.5</ele>
        <time>2020-06-06T10:07:55Z</time>
      </trkpt>
      <trkpt lat="47.56329" lon="-2.50145">
        <ele>23.5</ele>
        <time>2020-06-06T10:07:56Z</time>
      </trkpt>
      <trkpt lat="47.56329" lon="-2.50151">
        <ele>23.6</ele>
        <time>2020-06-06T10:07:57Z</time>
      </trkpt>
      <trkpt lat="47.5633" lon="-2.50157">
        <ele>23.7</ele>
        <time>2020-06-06T10:07:58Z</time>
      </trkpt>
      <trkpt lat="47.56332" lon="-2.50163">
        <ele>23.8</ele>
        <time>2020-06-06T10:07:59Z</time>
      </trkpt>
      <trkpt lat="47.56335" lon="-2.50168">
        <ele>23.9</ele>
        <time>2020-06-06T10:08:00Z</time>
      </trkpt>
      <trkpt lat="47.56337" lon="-2.50174">
        <ele>23.9</ele>
        <time>2020-06-06T10:08:01Z</time>
      </trkpt>
      <trkpt lat="47.56339" lon="-2.50178">
        <ele>24</ele>
        <time>2020-06-06T10:08:02Z</time>
      </trkpt>
      <trkpt lat="47.56342" lon="-2.50183">
        <ele>24</ele>
        <time>2020-06-06T10:08:03Z</time>
      </trkpt>
      <trkpt lat="47.56344" lon="-2.50189">
        <ele>24.1</ele>
        <time>2020-06-06T10:08:04Z</time>
      </trkpt>
      <trkpt lat="47.56347" lon="-2.50195">
        <ele>24.2</ele>
        <time>2020-06-06T10:08:05Z</time>
      </trkpt>
      <trkpt lat="47.56349" lon="-2.50202">
        <ele>24.2</ele>
        <time>2020-06-06T10:08:06Z</time>
      </trkpt>
      <trkpt lat="47.56351" lon="-2.50208">
        <ele>24.3</ele>
        <time>2020-06-06T10:08:07Z</time>
      </trkpt>
      <trkpt lat="47.56353" lon="-2.50215">
        <ele>24.3</ele>
        <time>2020-06-06T10:08:08Z</time>
      </trkpt>
      <trkpt lat="47.56354" lon="-2.5022">
        <ele>24.4</ele>
        <time>2020-06-06T10:08:09Z</time>
      </trkpt>
      <trkpt lat="47.56356" lon="-2.50225">
        <ele>24.4</ele>
        <time>2020-06-06T10:08:10Z</time>
      </trkpt>
      <trkpt lat="47.56357" lon="-2.5023">
        <ele>24.4</ele>
        <time>2020-06-06T10:08:11Z</time>
      </trkpt>
      <trkpt lat="47.5636" lon="-2.50236">
        <ele>24.5</ele>
        <time>2020-06-06T10:08:12Z</time>
      </trkpt>
      <trkpt lat="47.56362" lon="-2.50244">
        <ele>24.6</ele>
        <time>2020-06-06T10:08:13Z</time>
      </trkpt>
      <trkpt lat="47.56364" lon="-2.50251">
        <ele>24.7</ele>
        <time>2020-06-06T10:08:14Z</time>
      </trkpt>
      <trkpt lat="47.56366" lon="-2.50259">
        <ele>24.8</ele>
        <time>2020-06-06T10:08:15Z</time>
      </trkpt>
      <trkpt lat="47.56367" lon="-2.50265">
        <ele>24.9</ele>
        <time>2020-06-06T10:08:16Z</time>
      </trkpt>
      <trkpt lat="47.56368" lon="-2.50271">
        <ele>24.9</ele>
        <time>2020-06-06T10:08:17Z</time>
      </trkpt>
      <trkpt lat="47.5637" lon="-2.50277">
        <ele>25</ele>
        <time>2020-06-06T10:08:18Z</time>
      </trkpt>
      <trkpt lat="47.56372" lon="-2.50285">
        <ele>25</ele>
        <time>2020-06-06T10:08:19Z</time>
      </trkpt>
      <trkpt lat="47.56373" lon="-2.50292">
        <ele>25.1</ele>
        <time>2020-06-06T10:08:20Z</time>
      </trkpt>
      <trkpt lat="47.56374" lon="-2.50298">
        <ele>25.1</ele>
        <time>2020-06-06T10:08:21Z</time>
      </trkpt>
      <trkpt lat="47.56375" lon="-2.50304">
        <ele>25.1</ele>
        <time>2020-06-06T10:08:22Z</time>
      </trkpt>
      <trkpt lat="47.56377" lon="-2.50311">
        <ele>25.2</ele>
        <time>2020-06-06T10:08:23Z</time>
      </trkpt>
      <trkpt lat="47.56378" lon="-2.50319">
        <ele>25.2</ele>
        <time>2020-06-06T10:08:24Z</time>
      </trkpt>
      <trkpt lat="47.56378" lon="-2.50326">
        <ele>25.3</ele>
        <time>2020-06-06T10:08:25Z</time>
      </trkpt>
      <trkpt lat="47.56379" lon="-2.50334">
        <ele>25.4</ele>
        <time>2020-06-06T10:08:26Z</time>
      </trkpt>
      <trkpt lat="47.56379" lon="-2.50342">
        <ele>25.5</ele>
        <time>2020-06-06T10:08:27Z</time>
      </trkpt>
      <trkpt lat="47.5638" lon="-2.5035">
        <ele>25.6</ele>
        <time>2020-06-06T10:08:28Z</time>
      </trkpt>
      <trkpt lat="47.56381" lon="-2.50358">
        <ele>25.7</ele>
        <time>2020-06-06T10:08:29Z</time>
      </trkpt>
      <trkpt lat="47.56381" lon="-2.50367">
        <ele>25.9</ele>
        <time>2020-06-06T10:08:30Z</time>
      </trkpt>
      <trkpt lat="47.56382" lon="-2.50374">
        <ele>26</ele>
        <time>2020-06-06T10:08:31Z</time>
      </trkpt>
      <trkpt lat="47.56383" lon="-2.50381">
        <ele>26.1</ele>
        <time>2020-06-06T10:08:32Z</time>
      </trkpt>
      <trkpt lat="47.56384" lon="-2.50388">
        <ele>26.2</ele>
        <time>2020-06-06T10:08:33Z</time>
      </trkpt>
      <trkpt lat="47.56385" lon="-2.50394">
        <ele>26.3</ele>
        <time>2020-06-06T10:08:34Z</time>
      </trkpt>
      <trkpt lat="47.56386" lon="-2.504">
        <ele>26.3</ele>
        <time>2020-06-06T10:08:35Z</time>
      </trkpt>
      <trkpt lat="47.56387" lon="-2.50407">
        <ele>26.5</ele>
        <time>2020-06-06T10:08:36Z</time>
      </trkpt>
      <trkpt lat="47.56387" lon="-2.50413">
        <ele>26.6</ele>
        <time>2020-06-06T10:08:37Z</time>
      </trkpt>
      <trkpt lat="47.56387" lon="-2.50418">
        <ele>26.6</ele>
        <time>2020-06-06T10:08:38Z</time>
      </trkpt>
      <trkpt lat="47.56388" lon="-2.50422">
        <ele>26.7</ele>
        <time>2020-06-06T10:08:39Z</time>
      </trkpt>
      <trkpt lat="47.56388" lon="-2.50427">
        <ele>26.8</ele>
        <time>2020-06-06T10:08:40Z</time>
      </trkpt>
      <trkpt lat="47.56388" lon="-2.50433">
        <ele>27</ele>
        <time>2020-06-06T10:08:41Z</time>
      </trkpt>
      <trkpt lat="47.56387" lon="-2.50438">
        <ele>27</ele>
        <time>2020-06-06T10:08:42Z</time>
      </trkpt>
      <trkpt lat="47.56387" lon="-2.50443">
        <ele>27.1</ele>
        <time>2020-06-06T10:08:43Z</time>
      </trkpt>
      <trkpt lat="47.56387" lon="-2.50448">
        <ele>27.2</ele>
        <time>2020-06-06T10:08:44Z</time>
      </trkpt>
      <trkpt lat="47.56388" lon="-2.50453">
        <ele>27.3</ele>
        <time>2020-06-06T10:08:45Z</time>
      </trkpt>
      <trkpt lat="47.56389" lon="-2.50458">
        <ele>27.4</ele>
        <time>2020-06-06T10:08:46Z</time>
      </trkpt>
      <trkpt lat="47.56389" lon="-2.50463">
        <ele>27.4</ele>
        <time>2020-06-06T10:08:47Z</time>
      </trkpt>
      <trkpt lat="47.5639" lon="-2.50468">
        <ele>27.5</ele>
        <time>2020-06-06T10:08:48Z</time>
      </trkpt>
      <trkpt lat="47.5639" lon="-2.50474">
        <ele>27.6</ele>
        <time>2020-06-06T10:08:49Z</time>
      </trkpt>
      <trkpt lat="47.5639" lon="-2.5048">
        <ele>27.6</ele>
        <time>2020-06-06T10:08:50Z</time>
      </trkpt>
      <trkpt lat="47.56391" lon="-2.50486">
        <ele>27.7</ele>
        <time>2020-06-06T10:08:51Z</time>
      </trkpt>
      <trkpt lat="47.56392" lon="-2.50492">
        <ele>27.8</ele>
        <time>2020-06-06T10:08:52Z</time>
      </trkpt>
      <trkpt lat="47.56394" lon="-2.50498">
        <ele>27.8</ele>
        <time>2020-06-06T10:08:53Z</time>
      </trkpt>
      <trkpt lat="47.56395" lon="-2.50504">
        <ele>27.9</ele>
        <time>2020-06-06T10:08:54Z</time>
      </trkpt>
      <trkpt lat="47.56397" lon="-2.5051">
        <ele>27.9</ele>
        <time>2020-06-06T10:08:55Z</time>
      </trkpt>
      <trkpt lat="47.564" lon="-2.50517">
        <ele>28</ele>
        <time>2020-06-06T10:08:56Z</time>
      </trkpt>
      <trkpt lat="47.56402" lon="-2.50523">
        <ele>28</ele>
        <time>2020-06-06T10:08:57Z</time>
      </trkpt>
      <trkpt lat="47.56404" lon="-2.50528">
        <ele>28</ele>
        <time>2020-06-06T10:08:58Z</time>
      </trkpt>
      <trkpt lat="47.56406" lon="-2.50533">
        <ele>28.1</ele>
        <time>2020-06-06T10:08:59Z</time>
      </trkpt>
      <trkpt lat="47.56407" lon="-2.50537">
        <ele>28.1</ele>
        <time>2020-06-06T10:09:00Z</time>
      </trkpt>
      <trkpt lat="47.56408" lon="-2.50543">
        <ele>28.1</ele>
        <time>2020-06-06T10:09:01Z</time>
      </trkpt>
      <trkpt lat="47.5641" lon="-2.50549">
        <ele>28.2</ele>
        <time>2020-06-06T10:09:02Z</time>
      </trkpt>
      <trkpt lat="47.56411" lon="-2.50553">
        <ele>28.2</ele>
        <time>2020-06-06T10:09:03Z</time>
      </trkpt>
      <trkpt lat="47.56413" lon="-2.50559">
        <ele>28.2</ele>
        <time>2020-06-06T10:09:04Z</time>
      </trkpt>
      <trkpt lat="47.56414" lon="-2.50564">
        <ele>28.2</ele>
        <time>2020-06-06T10:09:05Z</time>
      </trkpt>
      <trkpt lat="47.56415" lon="-2.5057">
        <ele>28.3</ele>
        <time>2020-06-06T10:09:06Z</time>
      </trkpt>
      <trkpt lat="47.56417" lon="-2.50576">
        <ele>28.3</ele>
        <time>2020-06-06T10:09:07Z</time>
      </trkpt>
      <trkpt lat="47.56419" lon="-2.50581">
        <ele>28.4</ele>
        <time>2020-06-06T10:09:08Z</time>
      </trkpt>
      <trkpt lat="47.5642" lon="-2.50585">
        <ele>28.4</ele>
        <time>2020-06-06T10:09:09Z</time>
      </trkpt>
      <trkpt lat="47.56422" lon="-2.50589">
        <ele>28.4</ele>
        <time>2020-06-06T10:09:10Z</time>
      </trkpt>
      <trkpt lat="47.56424" lon="-2.50594">
        <ele>28.4</ele>
        <time>2020-06-06T10:09:11Z</time>
      </trkpt>
      <trkpt lat="47.56425" lon="-2.50599">
        <ele>28.4</ele>
        <time>2020-06-06T10:09:12Z</time>
      </trkpt>
      <trkpt lat="47.56426" lon="-2.50603">
        <ele>28.5</ele>
        <time>2020-06-06T10:09:13Z</time>
      </trkpt>
      <trkpt lat="47.56429" lon="-2.50607">
        <ele>28.5</ele>
        <time>2020-06-06T10:09:14Z</time>
      </trkpt>
      <trkpt lat="47.5643" lon="-2.50609">
        <ele>28.5</ele>
        <time>2020-06-06T10:09:15Z</time>
      </trkpt>
      <trkpt lat="47.56434" lon="-2.50609">
        <ele>28.5</ele>
        <time>2020-06-06T10:09:16Z</time>
      </trkpt>
      <trkpt lat="47.56435" lon="-2.5061">
        <ele>28.5</ele>
        <time>2020-06-06T10:09:17Z</time>
      </trkpt>
      <trkpt lat="47.56438" lon="-2.50613">
        <ele>28.6</ele>
        <time>2020-06-06T10:09:18Z</time>
      </trkpt>
      <trkpt lat="47.56439" lon="-2.50614">
        <ele>28.6</ele>
        <time>2020-06-06T10:09:19Z</time>
      </trkpt>
      <trkpt lat="47.56441" lon="-2.50618">
        <ele>28.6</ele>
        <time>2020-06-06T10:09:20Z</time>
      </trkpt>
      <trkpt lat="47.56442" lon="-2.50619">
        <ele>28.7</ele>
        <time>2020-06-06T10:09:21Z</time>
      </trkpt>
      <trkpt lat="47.56444" lon="-2.50622">
        <ele>28.7</ele>
        <time>2020-06-06T10:09:22Z</time>
      </trkpt>
      <trkpt lat="47.56446" lon="-2.50624">
        <ele>28.8</ele>
        <time>2020-06-06T10:09:23Z</time>
      </trkpt>
      <trkpt lat="47.56448" lon="-2.50626">
        <ele>29</ele>
        <time>2020-06-06T10:09:24Z</time>
      </trkpt>
      <trkpt lat="47.5645" lon="-2.50631">
        <ele>29.2</ele>
        <time>2020-06-06T10:09:25Z</time>
      </trkpt>
      <trkpt lat="47.56451" lon="-2.50633">
        <ele>29.2</ele>
        <time>2020-06-06T10:09:26Z</time>
      </trkpt>
      <trkpt lat="47.56451" lon="-2.50638">
        <ele>29.4</ele>
        <time>2020-06-06T10:09:27Z</time>
      </trkpt>
      <trkpt lat="47.56452" lon="-2.50642">
        <ele>29.4</ele>
        <time>2020-06-06T10:09:28Z</time>
      </trkpt>
      <trkpt lat="47.56453" lon="-2.50648">
        <ele>29.4</ele>
        <time>2020-06-06T10:09:29Z</time>
      </trkpt>
      <trkpt lat="47.56452" lon="-2.50652">
        <ele>29.1</ele>
        <time>2020-06-06T10:09:30Z</time>
      </trkpt>
      <trkpt lat="47.56451" lon="-2.50658">
        <ele>29</ele>
        <time>2020-06-06T10:09:31Z</time>
      </trkpt>
      <trkpt lat="47.56451" lon="-2.50663">
        <ele>28.9</ele>
        <time>2020-06-06T10:09:32Z</time>
      </trkpt>
      <trkpt lat="47.56452" lon="-2.50669">
        <ele>28.8</ele>
        <time>2020-06-06T10:09:33Z</time>
      </trkpt>
      <trkpt lat="47.56453" lon="-2.50675">
        <ele>28.8</ele>
        <time>2020-06-06T10:09:34Z</time>
      </trkpt>
      <trkpt lat="47.56454" lon="-2.5068">
        <ele>28.8</ele>
        <time>2020-06-06T10:09:35Z</time>
      </trkpt>
      <trkpt lat="47.56455" lon="-2.50686">
        <ele>28.8</ele>
        <time>2020-06-06T10:09:36Z</time>
      </trkpt>
      <trkpt lat="47.56457" lon="-2.50691">
        <ele>28.8</ele>
        <time>2020-06-06T10:09:37Z</time>
      </trkpt>
      <trkpt lat="47.56458" lon="-2.50696">
        <ele>28.7</ele>
        <time>2020-06-06T10:09:38Z</time>
      </trkpt>
      <trkpt lat="47.5646" lon="-2.50701">
        <ele>28.7</ele>
        <time>2020-06-06T10:09:39Z</time>
      </trkpt>
      <trkpt lat="47.56461" lon="-2.50707">
        <ele>28.8</ele>
        <time>2020-06-06T10:09:40Z</time>
      </trkpt>
      <trkpt lat="47.56463" lon="-2.50715">
        <ele>28.8</ele>
        <time>2020-06-06T10:09:41Z</time>
      </trkpt>
      <trkpt lat="47.56464" lon="-2.50721">
        <ele>28.8</ele>
        <time>2020-06-06T10:09:42Z</time>
      </trkpt>
      <trkpt lat="47.56466" lon="-2.50728">
        <ele>28.8</ele>
        <time>2020-06-06T10:09:43Z</time>
      </trkpt>
      <trkpt lat="47.56467" lon="-2.50734">
        <ele>28.8</ele>
        <time>2020-06-06T10:09:44Z</time>
      </trkpt>
      <trkpt lat="47.56468" lon="-2.5074">
        <ele>28.8</ele>
        <time>2020-06-06T10:09:45Z</time>
      </trkpt>
      <trkpt lat="47.56469" lon="-2.50746">
        <ele>28.8</ele>
        <time>2020-06-06T10:09:46Z</time>
      </trkpt>
      <trkpt lat="47.5647" lon="-2.50752">
        <ele>28.8</ele>
        <time>2020-06-06T10:09:47Z</time>
      </trkpt>
      <trkpt lat="47.56471" lon="-2.50758">
        <ele>28.8</ele>
        <time>2020-06-06T10:09:48Z</time>
      </trkpt>
      <trkpt lat="47.56472" lon="-2.50765">
        <ele>28.8</ele>
        <time>2020-06-06T10:09:49Z</time>
      </trkpt>
      <trkpt lat="47.56473" lon="-2.50772">
        <ele>28.8</ele>
        <time>2020-06-06T10:09:50Z</time>
      </trkpt>
      <trkpt lat="47.56474" lon="-2.50778">
        <ele>28.8</ele>
        <time>2020-06-06T10:09:51Z</time>
      </trkpt>
      <trkpt lat="47.56475" lon="-2.50787">
        <ele>28.8</ele>
        <time>2020-06-06T10:09:52Z</time>
      </trkpt>
      <trkpt lat="47.56476" lon="-2.50794">
        <ele>28.8</ele>
        <time>2020-06-06T10:09:53Z</time>
      </trkpt>
      <trkpt lat="47.56476" lon="-2.50801">
        <ele>28.8</ele>
        <time>2020-06-06T10:09:54Z</time>
      </trkpt>
      <trkpt lat="47.56477" lon="-2.50808">
        <ele>28.7</ele>
        <time>2020-06-06T10:09:55Z</time>
      </trkpt>
      <trkpt lat="47.56478" lon="-2.50815">
        <ele>28.7</ele>
        <time>2020-06-06T10:09:56Z</time>
      </trkpt>
      <trkpt lat="47.56479" lon="-2.50822">
        <ele>28.6</ele>
        <time>2020-06-06T10:09:57Z</time>
      </trkpt>
      <trkpt lat="47.5648" lon="-2.50829">
        <ele>28.6</ele>
        <time>2020-06-06T10:09:58Z</time>
      </trkpt>
      <trkpt lat="47.56481" lon="-2.50836">
        <ele>28.5</ele>
        <time>2020-06-06T10:09:59Z</time>
      </trkpt>
      <trkpt lat="47.56482" lon="-2.50842">
        <ele>28.5</ele>
        <time>2020-06-06T10:10:00Z</time>
      </trkpt>
      <trkpt lat="47.56483" lon="-2.50849">
        <ele>28.4</ele>
        <time>2020-06-06T10:10:01Z</time>
      </trkpt>
      <trkpt lat="47.56484" lon="-2.50856">
        <ele>28.4</ele>
        <time>2020-06-06T10:10:02Z</time>
      </trkpt>
      <trkpt lat="47.56485" lon="-2.50863">
        <ele>28.4</ele>
        <time>2020-06-06T10:10:03Z</time>
      </trkpt>
      <trkpt lat="47.56486" lon="-2.5087">
        <ele>28.4</ele>
        <time>2020-06-06T10:10:04Z</time>
      </trkpt>
      <trkpt lat="47.56486" lon="-2.50877">
        <ele>28.4</ele>
        <time>2020-06-06T10:10:05Z</time>
      </trkpt>
      <trkpt lat="47.56487" lon="-2.50884">
        <ele>28.4</ele>
        <time>2020-06-06T10:10:06Z</time>
      </trkpt>
      <trkpt lat="47.56488" lon="-2.50891">
        <ele>28.4</ele>
        <time>2020-06-06T10:10:07Z</time>
      </trkpt>
      <trkpt lat="47.5649" lon="-2.50897">
        <ele>28.4</ele>
        <time>2020-06-06T10:10:08Z</time>
      </trkpt>
      <trkpt lat="47.56491" lon="-2.50904">
        <ele>28.4</ele>
        <time>2020-06-06T10:10:09Z</time>
      </trkpt>
      <trkpt lat="47.56493" lon="-2.50912">
        <ele>28.4</ele>
        <time>2020-06-06T10:10:10Z</time>
      </trkpt>
      <trkpt lat="47.56495" lon="-2.5092">
        <ele>28.4</ele>
        <time>2020-06-06T10:10:11Z</time>
      </trkpt>
      <trkpt lat="47.56497" lon="-2.50926">
        <ele>28.4</ele>
        <time>2020-06-06T10:10:12Z</time>
      </trkpt>
      <trkpt lat="47.56499" lon="-2.50934">
        <ele>28.4</ele>
        <time>2020-06-06T10:10:13Z</time>
      </trkpt>
      <trkpt lat="47.56501" lon="-2.50941">
        <ele>28.4</ele>
        <time>2020-06-06T10:10:14Z</time>
      </trkpt>
      <trkpt lat="47.56502" lon="-2.50947">
        <ele>28.4</ele>
        <time>2020-06-06T10:10:15Z</time>
      </trkpt>
      <trkpt lat="47.56504" lon="-2.50954">
        <ele>28.4</ele>
        <time>2020-06-06T10:10:16Z</time>
      </trkpt>
      <trkpt lat="47.56506" lon="-2.5096">
        <ele>28.4</ele>
        <time>2020-06-06T10:10:17Z</time>
      </trkpt>
      <trkpt lat="47.56507" lon="-2.50967">
        <ele>28.4</ele>
        <time>2020-06-06T10:10:18Z</time>
      </trkpt>
      <trkpt lat="47.56509" lon="-2.50974">
        <ele>28.4</ele>
        <time>2020-06-06T10:10:19Z</time>
      </trkpt>
      <trkpt lat="47.56511" lon="-2.50981">
        <ele>28.3</ele>
        <time>2020-06-06T10:10:20Z</time>
      </trkpt>
      <trkpt lat="47.56512" lon="-2.50987">
        <ele>28.3</ele>
        <time>2020-06-06T10:10:21Z</time>
      </trkpt>
      <trkpt lat="47.56514" lon="-2.50993">
        <ele>28.3</ele>
        <time>2020-06-06T10:10:22Z</time>
      </trkpt>
      <trkpt lat="47.56516" lon="-2.51">
        <ele>28.3</ele>
        <time>2020-06-06T10:10:23Z</time>
      </trkpt>
      <trkpt lat="47.56518" lon="-2.51006">
        <ele>28.3</ele>
        <time>2020-06-06T10:10:24Z</time>
      </trkpt>
      <trkpt lat="47.56521" lon="-2.51013">
        <ele>28.2</ele>
        <time>2020-06-06T10:10:25Z</time>
      </trkpt>
      <trkpt lat="47.56523" lon="-2.51019">
        <ele>28.2</ele>
        <time>2020-06-06T10:10:26Z</time>
      </trkpt>
      <trkpt lat="47.56525" lon="-2.51026">
        <ele>28.1</ele>
        <time>2020-06-06T10:10:27Z</time>
      </trkpt>
      <trkpt lat="47.56527" lon="-2.51034">
        <ele>28.1</ele>
        <time>2020-06-06T10:10:28Z</time>
      </trkpt>
      <trkpt lat="47.56531" lon="-2.51041">
        <ele>28</ele>
        <time>2020-06-06T10:10:29Z</time>
      </trkpt>
      <trkpt lat="47.56533" lon="-2.51048">
        <ele>28</ele>
        <time>2020-06-06T10:10:30Z</time>
      </trkpt>
      <trkpt lat="47.56535" lon="-2.51055">
        <ele>27.9</ele>
        <time>2020-06-06T10:10:31Z</time>
      </trkpt>
      <trkpt lat="47.56538" lon="-2.51063">
        <ele>27.8</ele>
        <time>2020-06-06T10:10:32Z</time>
      </trkpt>
      <trkpt lat="47.56541" lon="-2.51069">
        <ele>27.8</ele>
        <time>2020-06-06T10:10:33Z</time>
      </trkpt>
      <trkpt lat="47.56544" lon="-2.51075">
        <ele>27.8</ele>
        <time>2020-06-06T10:10:34Z</time>
      </trkpt>
      <trkpt lat="47.56547" lon="-2.51081">
        <ele>27.7</ele>
        <time>2020-06-06T10:10:35Z</time>
      </trkpt>
      <trkpt lat="47.5655" lon="-2.51087">
        <ele>27.7</ele>
        <time>2020-06-06T10:10:36Z</time>
      </trkpt>
      <trkpt lat="47.56553" lon="-2.51093">
        <ele>27.7</ele>
        <time>2020-06-06T10:10:37Z</time>
      </trkpt>
      <trkpt lat="47.56557" lon="-2.51099">
        <ele>27.7</ele>
        <time>2020-06-06T10:10:38Z</time>
      </trkpt>
      <trkpt lat="47.5656" lon="-2.51105">
        <ele>27.7</ele>
        <time>2020-06-06T10:10:39Z</time>
      </trkpt>
      <trkpt lat="47.56564" lon="-2.51111">
        <ele>27.6</ele>
        <time>2020-06-06T10:10:40Z</time>
      </trkpt>
      <trkpt lat="47.56567" lon="-2.51117">
        <ele>27.6</ele>
        <time>2020-06-06T10:10:41Z</time>
      </trkpt>
      <trkpt lat="47.5657" lon="-2.51122">
        <ele>27.6</ele>
        <time>2020-06-06T10:10:42Z</time>
      </trkpt>
      <trkpt lat="47.56573" lon="-2.51127">
        <ele>27.6</ele>
        <time>2020-06-06T10:10:43Z</time>
      </trkpt>
      <trkpt lat="47.56577" lon="-2.51132">
        <ele>27.6</ele>
        <time>2020-06-06T10:10:44Z</time>
      </trkpt>
      <trkpt lat="47.5658" lon="-2.51138">
        <ele>27.5</ele>
        <time>2020-06-06T10:10:45Z</time>
      </trkpt>
      <trkpt lat="47.56584" lon="-2.51143">
        <ele>27.5</ele>
        <time>2020-06-06T10:10:46Z</time>
      </trkpt>
      <trkpt lat="47.56587" lon="-2.51148">
        <ele>27.6</ele>
        <time>2020-06-06T10:10:47Z</time>
      </trkpt>
      <trkpt lat="47.5659" lon="-2.51153">
        <ele>27.6</ele>
        <time>2020-06-06T10:10:48Z</time>
      </trkpt>
      <trkpt lat="47.56592" lon="-2.51158">
        <ele>27.6</ele>
        <time>2020-06-06T10:10:49Z</time>
      </trkpt>
      <trkpt lat="47.56595" lon="-2.51163">
        <ele>27.7</ele>
        <time>2020-06-06T10:10:50Z</time>
      </trkpt>
      <trkpt lat="47.56599" lon="-2.51167">
        <ele>27.8</ele>
        <time>2020-06-06T10:10:51Z</time>
      </trkpt>
      <trkpt lat="47.56603" lon="-2.51171">
        <ele>27.8</ele>
        <time>2020-06-06T10:10:52Z</time>
      </trkpt>
      <trkpt lat="47.56606" lon="-2.51177">
        <ele>27.9</ele>
        <time>2020-06-06T10:10:53Z</time>
      </trkpt>
      <trkpt lat="47.56609" lon="-2.51181">
        <ele>28</ele>
        <time>2020-06-06T10:10:54Z</time>
      </trkpt>
      <trkpt lat="47.56612" lon="-2.51186">
        <ele>28</ele>
        <time>2020-06-06T10:10:55Z</time>
      </trkpt>
      <trkpt lat="47.56615" lon="-2.51192">
        <ele>28.1</ele>
        <time>2020-06-06T10:10:56Z</time>
      </trkpt>
      <trkpt lat="47.56618" lon="-2.51198">
        <ele>28.2</ele>
        <time>2020-06-06T10:10:57Z</time>
      </trkpt>
      <trkpt lat="47.56621" lon="-2.51203">
        <ele>28.3</ele>
        <time>2020-06-06T10:10:58Z</time>
      </trkpt>
      <trkpt lat="47.56625" lon="-2.51208">
        <ele>28.4</ele>
        <time>2020-06-06T10:10:59Z</time>
      </trkpt>
      <trkpt lat="47.56628" lon="-2.51213">
        <ele>28.5</ele>
        <time>2020-06-06T10:11:00Z</time>
      </trkpt>
      <trkpt lat="47.56631" lon="-2.51218">
        <ele>28.6</ele>
        <time>2020-06-06T10:11:01Z</time>
      </trkpt>
      <trkpt lat="47.56634" lon="-2.51222">
        <ele>28.7</ele>
        <time>2020-06-06T10:11:02Z</time>
      </trkpt>
      <trkpt lat="47.56637" lon="-2.51227">
        <ele>28.7</ele>
        <time>2020-06-06T10:11:03Z</time>
      </trkpt>
      <trkpt lat="47.56639" lon="-2.5123">
        <ele>28.8</ele>
        <time>2020-06-06T10:11:04Z</time>
      </trkpt>
      <trkpt lat="47.56643" lon="-2.51234">
        <ele>28.8</ele>
        <time>2020-06-06T10:11:05Z</time>
      </trkpt>
      <trkpt lat="47.56646" lon="-2.51239">
        <ele>28.9</ele>
        <time>2020-06-06T10:11:06Z</time>
      </trkpt>
      <trkpt lat="47.56649" lon="-2.51244">
        <ele>28.9</ele>
        <time>2020-06-06T10:11:07Z</time>
      </trkpt>
      <trkpt lat="47.56651" lon="-2.51249">
        <ele>29</ele>
        <time>2020-06-06T10:11:08Z</time>
      </trkpt>
      <trkpt lat="47.56654" lon="-2.51254">
        <ele>29</ele>
        <time>2020-06-06T10:11:09Z</time>
      </trkpt>
      <trkpt lat="47.56657" lon="-2.51259">
        <ele>29.1</ele>
        <time>2020-06-06T10:11:10Z</time>
      </trkpt>
      <trkpt lat="47.5666" lon="-2.51264">
        <ele>29.1</ele>
        <time>2020-06-06T10:11:11Z</time>
      </trkpt>
      <trkpt lat="47.56663" lon="-2.5127">
        <ele>29.2</ele>
        <time>2020-06-06T10:11:12Z</time>
      </trkpt>
      <trkpt lat="47.56665" lon="-2.51275">
        <ele>29.3</ele>
        <time>2020-06-06T10:11:13Z</time>
      </trkpt>
      <trkpt lat="47.56667" lon="-2.5128">
        <ele>29.4</ele>
        <time>2020-06-06T10:11:14Z</time>
      </trkpt>
      <trkpt lat="47.56669" lon="-2.51285">
        <ele>29.4</ele>
        <time>2020-06-06T10:11:15Z</time>
      </trkpt>
      <trkpt lat="47.56672" lon="-2.5129">
        <ele>29.5</ele>
        <time>2020-06-06T10:11:16Z</time>
      </trkpt>
      <trkpt lat="47.56676" lon="-2.51295">
        <ele>29.6</ele>
        <time>2020-06-06T10:11:17Z</time>
      </trkpt>
      <trkpt lat="47.56678" lon="-2.51299">
        <ele>29.6</ele>
        <time>2020-06-06T10:11:18Z</time>
      </trkpt>
      <trkpt lat="47.56682" lon="-2.51303">
        <ele>29.7</ele>
        <time>2020-06-06T10:11:19Z</time>
      </trkpt>
      <trkpt lat="47.56684" lon="-2.51307">
        <ele>29.8</ele>
        <time>2020-06-06T10:11:20Z</time>
      </trkpt>
      <trkpt lat="47.56688" lon="-2.51311">
        <ele>29.8</ele>
        <time>2020-06-06T10:11:21Z</time>
      </trkpt>
      <trkpt lat="47.56691" lon="-2.51315">
        <ele>29.9</ele>
        <time>2020-06-06T10:11:22Z</time>
      </trkpt>
      <trkpt lat="47.56694" lon="-2.51319">
        <ele>30</ele>
        <time>2020-06-06T10:11:23Z</time>
      </trkpt>
      <trkpt lat="47.56697" lon="-2.51323">
        <ele>30</ele>
        <time>2020-06-06T10:11:24Z</time>
      </trkpt>
      <trkpt lat="47.56701" lon="-2.51328">
        <ele>30.1</ele>
        <time>2020-06-06T10:11:25Z</time>
      </trkpt>
      <trkpt lat="47.56704" lon="-2.51332">
        <ele>30.2</ele>
        <time>2020-06-06T10:11:26Z</time>
      </trkpt>
      <trkpt lat="47.56708" lon="-2.51336">
        <ele>30.3</ele>
        <time>2020-06-06T10:11:27Z</time>
      </trkpt>
      <trkpt lat="47.56711" lon="-2.51341">
        <ele>30.4</ele>
        <time>2020-06-06T10:11:28Z</time>
      </trkpt>
      <trkpt lat="47.56715" lon="-2.51345">
        <ele>30.4</ele>
        <time>2020-06-06T10:11:29Z</time>
      </trkpt>
      <trkpt lat="47.56719" lon="-2.51349">
        <ele>30.7</ele>
        <time>2020-06-06T10:11:30Z</time>
      </trkpt>
      <trkpt lat="47.56723" lon="-2.51354">
        <ele>30.8</ele>
        <time>2020-06-06T10:11:31Z</time>
      </trkpt>
      <trkpt lat="47.56726" lon="-2.51359">
        <ele>31</ele>
        <time>2020-06-06T10:11:32Z</time>
      </trkpt>
      <trkpt lat="47.56729" lon="-2.51363">
        <ele>31.1</ele>
        <time>2020-06-06T10:11:33Z</time>
      </trkpt>
      <trkpt lat="47.56732" lon="-2.51368">
        <ele>31.2</ele>
        <time>2020-06-06T10:11:34Z</time>
      </trkpt>
      <trkpt lat="47.56736" lon="-2.51372">
        <ele>31.4</ele>
        <time>2020-06-06T10:11:35Z</time>
      </trkpt>
      <trkpt lat="47.5674" lon="-2.51377">
        <ele>31.6</ele>
        <time>2020-06-06T10:11:36Z</time>
      </trkpt>
      <trkpt lat="47.56744" lon="-2.51381">
        <ele>31.7</ele>
        <time>2020-06-06T10:11:37Z</time>
      </trkpt>
      <trkpt lat="47.56746" lon="-2.51385">
        <ele>31.9</ele>
        <time>2020-06-06T10:11:38Z</time>
      </trkpt>
      <trkpt lat="47.56749" lon="-2.51389">
        <ele>32</ele>
        <time>2020-06-06T10:11:39Z</time>
      </trkpt>
      <trkpt lat="47.56752" lon="-2.51392">
        <ele>32.1</ele>
        <time>2020-06-06T10:11:40Z</time>
      </trkpt>
      <trkpt lat="47.56755" lon="-2.51395">
        <ele>32.2</ele>
        <time>2020-06-06T10:11:41Z</time>
      </trkpt>
      <trkpt lat="47.56758" lon="-2.51399">
        <ele>32.3</ele>
        <time>2020-06-06T10:11:42Z</time>
      </trkpt>
      <trkpt lat="47.56761" lon="-2.51403">
        <ele>32.4</ele>
        <time>2020-06-06T10:11:43Z</time>
      </trkpt>
      <trkpt lat="47.56765" lon="-2.51408">
        <ele>32.6</ele>
        <time>2020-06-06T10:11:44Z</time>
      </trkpt>
      <trkpt lat="47.56769" lon="-2.51412">
        <ele>32.7</ele>
        <time>2020-06-06T10:11:45Z</time>
      </trkpt>
      <trkpt lat="47.56772" lon="-2.51417">
        <ele>32.8</ele>
        <time>2020-06-06T10:11:46Z</time>
      </trkpt>
      <trkpt lat="47.56776" lon="-2.51422">
        <ele>33</ele>
        <time>2020-06-06T10:11:47Z</time>
      </trkpt>
      <trkpt lat="47.56779" lon="-2.51426">
        <ele>33.1</ele>
        <time>2020-06-06T10:11:48Z</time>
      </trkpt>
      <trkpt lat="47.56782" lon="-2.5143">
        <ele>33.2</ele>
        <time>2020-06-06T10:11:49Z</time>
      </trkpt>
      <trkpt lat="47.56785" lon="-2.51433">
        <ele>33.3</ele>
        <time>2020-06-06T10:11:50Z</time>
      </trkpt>
      <trkpt lat="47.56788" lon="-2.51437">
        <ele>33.5</ele>
        <time>2020-06-06T10:11:51Z</time>
      </trkpt>
      <trkpt lat="47.56792" lon="-2.51441">
        <ele>33.6</ele>
        <time>2020-06-06T10:11:52Z</time>
      </trkpt>
      <trkpt lat="47.56795" lon="-2.51444">
        <ele>33.7</ele>
        <time>2020-06-06T10:11:53Z</time>
      </trkpt>
      <trkpt lat="47.56799" lon="-2.51447">
        <ele>33.8</ele>
        <time>2020-06-06T10:11:54Z</time>
      </trkpt>
      <trkpt lat="47.56803" lon="-2.5145">
        <ele>34</ele>
        <time>2020-06-06T10:11:55Z</time>
      </trkpt>
      <trkpt lat="47.56807" lon="-2.51454">
        <ele>34.1</ele>
        <time>2020-06-06T10:11:56Z</time>
      </trkpt>
      <trkpt lat="47.5681" lon="-2.5146">
        <ele>34.2</ele>
        <time>2020-06-06T10:11:57Z</time>
      </trkpt>
      <trkpt lat="47.56813" lon="-2.51464">
        <ele>34.3</ele>
        <time>2020-06-06T10:11:58Z</time>
      </trkpt>
      <trkpt lat="47.56816" lon="-2.51468">
        <ele>34.4</ele>
        <time>2020-06-06T10:11:59Z</time>
      </trkpt>
      <trkpt lat="47.56819" lon="-2.51472">
        <ele>34.5</ele>
        <time>2020-06-06T10:12:00Z</time>
      </trkpt>
      <trkpt lat="47.56823" lon="-2.51475">
        <ele>34.6</ele>
        <time>2020-06-06T10:12:01Z</time>
      </trkpt>
      <trkpt lat="47.56827" lon="-2.51479">
        <ele>34.8</ele>
        <time>2020-06-06T10:12:02Z</time>
      </trkpt>
      <trkpt lat="47.5683" lon="-2.51483">
        <ele>34.9</ele>
        <time>2020-06-06T10:12:03Z</time>
      </trkpt>
      <trkpt lat="47.56834" lon="-2.51486">
        <ele>35</ele>
        <time>2020-06-06T10:12:04Z</time>
      </trkpt>
      <trkpt lat="47.56838" lon="-2.5149">
        <ele>35.1</ele>
        <time>2020-06-06T10:12:05Z</time>
      </trkpt>
      <trkpt lat="47.56841" lon="-2.51494">
        <ele>35.2</ele>
        <time>2020-06-06T10:12:06Z</time>
      </trkpt>
      <trkpt lat="47.56844" lon="-2.51498">
        <ele>35.3</ele>
        <time>2020-06-06T10:12:07Z</time>
      </trkpt>
      <trkpt lat="47.56848" lon="-2.51501">
        <ele>35.5</ele>
        <time>2020-06-06T10:12:08Z</time>
      </trkpt>
      <trkpt lat="47.56851" lon="-2.51506">
        <ele>35.6</ele>
        <time>2020-06-06T10:12:09Z</time>
      </trkpt>
      <trkpt lat="47.56855" lon="-2.51509">
        <ele>35.7</ele>
        <time>2020-06-06T10:12:10Z</time>
      </trkpt>
      <trkpt lat="47.56859" lon="-2.51512">
        <ele>35.8</ele>
        <time>2020-06-06T10:12:11Z</time>
      </trkpt>
      <trkpt lat="47.56862" lon="-2.51515">
        <ele>35.9</ele>
        <time>2020-06-06T10:12:12Z</time>
      </trkpt>
      <trkpt lat="47.56865" lon="-2.51518">
        <ele>36</ele>
        <time>2020-06-06T10:12:13Z</time>
      </trkpt>
      <trkpt lat="47.56869" lon="-2.51522">
        <ele>36.1</ele>
        <time>2020-06-06T10:12:14Z</time>
      </trkpt>
      <trkpt lat="47.56872" lon="-2.51526">
        <ele>36.2</ele>
        <time>2020-06-06T10:12:15Z</time>
      </trkpt>
      <trkpt lat="47.56876" lon="-2.5153">
        <ele>36.3</ele>
        <time>2020-06-06T10:12:16Z</time>
      </trkpt>
      <trkpt lat="47.5688" lon="-2.51534">
        <ele>36.4</ele>
        <time>2020-06-06T10:12:17Z</time>
      </trkpt>
      <trkpt lat="47.56883" lon="-2.51537">
        <ele>36.5</ele>
        <time>2020-06-06T10:12:18Z</time>
      </trkpt>
      <trkpt lat="47.56887" lon="-2.5154">
        <ele>36.6</ele>
        <time>2020-06-06T10:12:19Z</time>
      </trkpt>
      <trkpt lat="47.5689" lon="-2.51543">
        <ele>36.7</ele>
        <time>2020-06-06T10:12:20Z</time>
      </trkpt>
      <trkpt lat="47.56894" lon="-2.51546">
        <ele>36.8</ele>
        <time>2020-06-06T10:12:21Z</time>
      </trkpt>
      <trkpt lat="47.56897" lon="-2.5155">
        <ele>36.9</ele>
        <time>2020-06-06T10:12:22Z</time>
      </trkpt>
      <trkpt lat="47.56901" lon="-2.51554">
        <ele>37</ele>
        <time>2020-06-06T10:12:23Z</time>
      </trkpt>
      <trkpt lat="47.56905" lon="-2.51557">
        <ele>37</ele>
        <time>2020-06-06T10:12:24Z</time>
      </trkpt>
      <trkpt lat="47.56908" lon="-2.5156">
        <ele>37.1</ele>
        <time>2020-06-06T10:12:25Z</time>
      </trkpt>
      <trkpt lat="47.56912" lon="-2.51563">
        <ele>37.2</ele>
        <time>2020-06-06T10:12:26Z</time>
      </trkpt>
      <trkpt lat="47.56916" lon="-2.51566">
        <ele>37.3</ele>
        <time>2020-06-06T10:12:27Z</time>
      </trkpt>
      <trkpt lat="47.5692" lon="-2.51569">
        <ele>37.4</ele>
        <time>2020-06-06T10:12:28Z</time>
      </trkpt>
      <trkpt lat="47.56922" lon="-2.51572">
        <ele>37.4</ele>
        <time>2020-06-06T10:12:29Z</time>
      </trkpt>
      <trkpt lat="47.56926" lon="-2.51574">
        <ele>37.5</ele>
        <time>2020-06-06T10:12:30Z</time>
      </trkpt>
      <trkpt lat="47.56929" lon="-2.51577">
        <ele>37.6</ele>
        <time>2020-06-06T10:12:31Z</time>
      </trkpt>
      <trkpt lat="47.56932" lon="-2.5158">
        <ele>37.7</ele>
        <time>2020-06-06T10:12:32Z</time>
      </trkpt>
      <trkpt lat="47.56935" lon="-2.51583">
        <ele>37.9</ele>
        <time>2020-06-06T10:12:33Z</time>
      </trkpt>
      <trkpt lat="47.56939" lon="-2.51586">
        <ele>38</ele>
        <time>2020-06-06T10:12:34Z</time>
      </trkpt>
      <trkpt lat="47.56942" lon="-2.51589">
        <ele>38.1</ele>
        <time>2020-06-06T10:12:35Z</time>
      </trkpt>
      <trkpt lat="47.56946" lon="-2.51592">
        <ele>38.2</ele>
        <time>2020-06-06T10:12:36Z</time>
      </trkpt>
      <trkpt lat="47.56951" lon="-2.51595">
        <ele>38.3</ele>
        <time>2020-06-06T10:12:37Z</time>
      </trkpt>
      <trkpt lat="47.56955" lon="-2.51598">
        <ele>38.3</ele>
        <time>2020-06-06T10:12:38Z</time>
      </trkpt>
      <trkpt lat="47.56959" lon="-2.51601">
        <ele>38.3</ele>
        <time>2020-06-06T10:12:39Z</time>
      </trkpt>
      <trkpt lat="47.56963" lon="-2.51605">
        <ele>38.4</ele>
        <time>2020-06-06T10:12:40Z</time>
      </trkpt>
      <trkpt lat="47.56968" lon="-2.51608">
        <ele>38.5</ele>
        <time>2020-06-06T10:12:41Z</time>
      </trkpt>
      <trkpt lat="47.56972" lon="-2.51611">
        <ele>38.6</ele>
        <time>2020-06-06T10:12:42Z</time>
      </trkpt>
      <trkpt lat="47.56976" lon="-2.51614">
        <ele>38.6</ele>
        <time>2020-06-06T10:12:43Z</time>
      </trkpt>
      <trkpt lat="47.56979" lon="-2.51618">
        <ele>38.7</ele>
        <time>2020-06-06T10:12:44Z</time>
      </trkpt>
      <trkpt lat="47.56983" lon="-2.51621">
        <ele>38.8</ele>
        <time>2020-06-06T10:12:45Z</time>
      </trkpt>
      <trkpt lat="47.56987" lon="-2.51624">
        <ele>38.8</ele>
        <time>2020-06-06T10:12:46Z</time>
      </trkpt>
      <trkpt lat="47.56991" lon="-2.51626">
        <ele>38.9</ele>
        <time>2020-06-06T10:12:47Z</time>
      </trkpt>
      <trkpt lat="47.56996" lon="-2.51628">
        <ele>39</ele>
        <time>2020-06-06T10:12:48Z</time>
      </trkpt>
      <trkpt lat="47.57001" lon="-2.5163">
        <ele>39.1</ele>
        <time>2020-06-06T10:12:49Z</time>
      </trkpt>
      <trkpt lat="47.57004" lon="-2.51633">
        <ele>39.1</ele>
        <time>2020-06-06T10:12:50Z</time>
      </trkpt>
      <trkpt lat="47.57009" lon="-2.51636">
        <ele>39.3</ele>
        <time>2020-06-06T10:12:51Z</time>
      </trkpt>
      <trkpt lat="47.57014" lon="-2.51639">
        <ele>39.4</ele>
        <time>2020-06-06T10:12:52Z</time>
      </trkpt>
      <trkpt lat="47.57017" lon="-2.51642">
        <ele>39.5</ele>
        <time>2020-06-06T10:12:53Z</time>
      </trkpt>
      <trkpt lat="47.57021" lon="-2.51645">
        <ele>39.6</ele>
        <time>2020-06-06T10:12:54Z</time>
      </trkpt>
      <trkpt lat="47.57026" lon="-2.51648">
        <ele>39.7</ele>
        <time>2020-06-06T10:12:55Z</time>
      </trkpt>
      <trkpt lat="47.5703" lon="-2.51651">
        <ele>39.7</ele>
        <time>2020-06-06T10:12:56Z</time>
      </trkpt>
      <trkpt lat="47.57034" lon="-2.51654">
        <ele>39.8</ele>
        <time>2020-06-06T10:12:57Z</time>
      </trkpt>
      <trkpt lat="47.57038" lon="-2.51657">
        <ele>39.9</ele>
        <time>2020-06-06T10:12:58Z</time>
      </trkpt>
      <trkpt lat="47.57042" lon="-2.5166">
        <ele>39.9</ele>
        <time>2020-06-06T10:12:59Z</time>
      </trkpt>
      <trkpt lat="47.57046" lon="-2.51663">
        <ele>40</ele>
        <time>2020-06-06T10:13:00Z</time>
      </trkpt>
      <trkpt lat="47.5705" lon="-2.51667">
        <ele>40</ele>
        <time>2020-06-06T10:13:01Z</time>
      </trkpt>
      <trkpt lat="47.57053" lon="-2.51671">
        <ele>40.1</ele>
        <time>2020-06-06T10:13:02Z</time>
      </trkpt>
      <trkpt lat="47.57057" lon="-2.51675">
        <ele>40.1</ele>
        <time>2020-06-06T10:13:03Z</time>
      </trkpt>
      <trkpt lat="47.57061" lon="-2.51679">
        <ele>40.2</ele>
        <time>2020-06-06T10:13:04Z</time>
      </trkpt>
      <trkpt lat="47.57065" lon="-2.51683">
        <ele>40.3</ele>
        <time>2020-06-06T10:13:05Z</time>
      </trkpt>
      <trkpt lat="47.57069" lon="-2.51687">
        <ele>40.4</ele>
        <time>2020-06-06T10:13:06Z</time>
      </trkpt>
      <trkpt lat="47.57073" lon="-2.51689">
        <ele>40.5</ele>
        <time>2020-06-06T10:13:07Z</time>
      </trkpt>
      <trkpt lat="47.57077" lon="-2.51693">
        <ele>40.5</ele>
        <time>2020-06-06T10:13:08Z</time>
      </trkpt>
      <trkpt lat="47.57082" lon="-2.51697">
        <ele>40.6</ele>
        <time>2020-06-06T10:13:09Z</time>
      </trkpt>
      <trkpt lat="47.57086" lon="-2.517">
        <ele>40.7</ele>
        <time>2020-06-06T10:13:10Z</time>
      </trkpt>
      <trkpt lat="47.57091" lon="-2.51703">
        <ele>40.8</ele>
        <time>2020-06-06T10:13:11Z</time>
      </trkpt>
      <trkpt lat="47.57095" lon="-2.51707">
        <ele>40.8</ele>
        <time>2020-06-06T10:13:12Z</time>
      </trkpt>
      <trkpt lat="47.571" lon="-2.5171">
        <ele>40.9</ele>
        <time>2020-06-06T10:13:13Z</time>
      </trkpt>
      <trkpt lat="47.57105" lon="-2.51714">
        <ele>41</ele>
        <time>2020-06-06T10:13:14Z</time>
      </trkpt>
      <trkpt lat="47.57109" lon="-2.51717">
        <ele>41</ele>
        <time>2020-06-06T10:13:15Z</time>
      </trkpt>
      <trkpt lat="47.57115" lon="-2.51721">
        <ele>41.1</ele>
        <time>2020-06-06T10:13:16Z</time>
      </trkpt>
      <trkpt lat="47.57119" lon="-2.51726">
        <ele>41.2</ele>
        <time>2020-06-06T10:13:17Z</time>
      </trkpt>
      <trkpt lat="47.57124" lon="-2.5173">
        <ele>41.3</ele>
        <time>2020-06-06T10:13:18Z</time>
      </trkpt>
      <trkpt lat="47.57128" lon="-2.51734">
        <ele>41.3</ele>
        <time>2020-06-06T10:13:19Z</time>
      </trkpt>
      <trkpt lat="47.57132" lon="-2.51737">
        <ele>41.4</ele>
        <time>2020-06-06T10:13:20Z</time>
      </trkpt>
      <trkpt lat="47.57137" lon="-2.51741">
        <ele>41.4</ele>
        <time>2020-06-06T10:13:21Z</time>
      </trkpt>
      <trkpt lat="47.57141" lon="-2.51744">
        <ele>41.5</ele>
        <time>2020-06-06T10:13:22Z</time>
      </trkpt>
      <trkpt lat="47.57145" lon="-2.51748">
        <ele>41.5</ele>
        <time>2020-06-06T10:13:23Z</time>
      </trkpt>
      <trkpt lat="47.57148" lon="-2.51751">
        <ele>41.5</ele>
        <time>2020-06-06T10:13:24Z</time>
      </trkpt>
      <trkpt lat="47.57153" lon="-2.51756">
        <ele>41.5</ele>
        <time>2020-06-06T10:13:25Z</time>
      </trkpt>
      <trkpt lat="47.57156" lon="-2.5176">
        <ele>41.6</ele>
        <time>2020-06-06T10:13:26Z</time>
      </trkpt>
      <trkpt lat="47.57161" lon="-2.51763">
        <ele>41.6</ele>
        <time>2020-06-06T10:13:27Z</time>
      </trkpt>
      <trkpt lat="47.57166" lon="-2.51766">
        <ele>41.6</ele>
        <time>2020-06-06T10:13:28Z</time>
      </trkpt>
      <trkpt lat="47.5717" lon="-2.5177">
        <ele>41.6</ele>
        <time>2020-06-06T10:13:29Z</time>
      </trkpt>
      <trkpt lat="47.57174" lon="-2.51775">
        <ele>41.7</ele>
        <time>2020-06-06T10:13:30Z</time>
      </trkpt>
      <trkpt lat="47.57179" lon="-2.51779">
        <ele>41.7</ele>
        <time>2020-06-06T10:13:31Z</time>
      </trkpt>
      <trkpt lat="47.57183" lon="-2.51784">
        <ele>41.8</ele>
        <time>2020-06-06T10:13:32Z</time>
      </trkpt>
      <trkpt lat="47.57187" lon="-2.51789">
        <ele>41.8</ele>
        <time>2020-06-06T10:13:33Z</time>
      </trkpt>
      <trkpt lat="47.57192" lon="-2.51793">
        <ele>41.9</ele>
        <time>2020-06-06T10:13:34Z</time>
      </trkpt>
      <trkpt lat="47.57196" lon="-2.51797">
        <ele>41.9</ele>
        <time>2020-06-06T10:13:35Z</time>
      </trkpt>
      <trkpt lat="47.57201" lon="-2.51801">
        <ele>42</ele>
        <time>2020-06-06T10:13:36Z</time>
      </trkpt>
      <trkpt lat="47.57205" lon="-2.51805">
        <ele>42</ele>
        <time>2020-06-06T10:13:37Z</time>
      </trkpt>
      <trkpt lat="47.57209" lon="-2.5181">
        <ele>42</ele>
        <time>2020-06-06T10:13:38Z</time>
      </trkpt>
      <trkpt lat="47.57213" lon="-2.51814">
        <ele>42</ele>
        <time>2020-06-06T10:13:39Z</time>
      </trkpt>
      <trkpt lat="47.57217" lon="-2.51819">
        <ele>42.1</ele>
        <time>2020-06-06T10:13:40Z</time>
      </trkpt>
      <trkpt lat="47.57221" lon="-2.51823">
        <ele>42.1</ele>
        <time>2020-06-06T10:13:41Z</time>
      </trkpt>
      <trkpt lat="47.57226" lon="-2.51829">
        <ele>42.2</ele>
        <time>2020-06-06T10:13:42Z</time>
      </trkpt>
      <trkpt lat="47.5723" lon="-2.51834">
        <ele>42.2</ele>
        <time>2020-06-06T10:13:43Z</time>
      </trkpt>
      <trkpt lat="47.57234" lon="-2.51838">
        <ele>42.2</ele>
        <time>2020-06-06T10:13:44Z</time>
      </trkpt>
      <trkpt lat="47.57239" lon="-2.51843">
        <ele>42.3</ele>
        <time>2020-06-06T10:13:45Z</time>
      </trkpt>
      <trkpt lat="47.57243" lon="-2.51847">
        <ele>42.3</ele>
        <time>2020-06-06T10:13:46Z</time>
      </trkpt>
      <trkpt lat="47.57246" lon="-2.51852">
        <ele>42.3</ele>
        <time>2020-06-06T10:13:47Z</time>
      </trkpt>
      <trkpt lat="47.57251" lon="-2.51857">
        <ele>42.3</ele>
        <time>2020-06-06T10:13:48Z</time>
      </trkpt>
      <trkpt lat="47.57255" lon="-2.51861">
        <ele>42.3</ele>
        <time>2020-06-06T10:13:49Z</time>
      </trkpt>
      <trkpt lat="47.5726" lon="-2.51865">
        <ele>42.3</ele>
        <time>2020-06-06T10:13:50Z</time>
      </trkpt>
      <trkpt lat="47.57265" lon="-2.51869">
        <ele>42.3</ele>
        <time>2020-06-06T10:13:51Z</time>
      </trkpt>
      <trkpt lat="47.57269" lon="-2.51873">
        <ele>42.3</ele>
        <time>2020-06-06T10:13:52Z</time>
      </trkpt>
      <trkpt lat="47.57274" lon="-2.51878">
        <ele>42.3</ele>
        <time>2020-06-06T10:13:53Z</time>
      </trkpt>
      <trkpt lat="47.57278" lon="-2.51883">
        <ele>42.3</ele>
        <time>2020-06-06T10:13:54Z</time>
      </trkpt>
      <trkpt lat="47.57282" lon="-2.51888">
        <ele>42.3</ele>
        <time>2020-06-06T10:13:55Z</time>
      </trkpt>
      <trkpt lat="47.57286" lon="-2.51893">
        <ele>42.3</ele>
        <time>2020-06-06T10:13:56Z</time>
      </trkpt>
      <trkpt lat="47.5729" lon="-2.51898">
        <ele>42.3</ele>
        <time>2020-06-06T10:13:57Z</time>
      </trkpt>
      <trkpt lat="47.57295" lon="-2.51903">
        <ele>42.4</ele>
        <time>2020-06-06T10:13:58Z</time>
      </trkpt>
      <trkpt lat="47.573" lon="-2.51908">
        <ele>42.4</ele>
        <time>2020-06-06T10:13:59Z</time>
      </trkpt>
      <trkpt lat="47.57304" lon="-2.51914">
        <ele>42.4</ele>
        <time>2020-06-06T10:14:00Z</time>
      </trkpt>
      <trkpt lat="47.57307" lon="-2.51918">
        <ele>42.5</ele>
        <time>2020-06-06T10:14:01Z</time>
      </trkpt>
      <trkpt lat="47.57311" lon="-2.51923">
        <ele>42.5</ele>
        <time>2020-06-06T10:14:02Z</time>
      </trkpt>
      <trkpt lat="47.57314" lon="-2.51929">
        <ele>42.5</ele>
        <time>2020-06-06T10:14:03Z</time>
      </trkpt>
      <trkpt lat="47.57318" lon="-2.51933">
        <ele>42.6</ele>
        <time>2020-06-06T10:14:04Z</time>
      </trkpt>
      <trkpt lat="47.57322" lon="-2.51939">
        <ele>42.6</ele>
        <time>2020-06-06T10:14:05Z</time>
      </trkpt>
      <trkpt lat="47.57326" lon="-2.51945">
        <ele>42.6</ele>
        <time>2020-06-06T10:14:06Z</time>
      </trkpt>
      <trkpt lat="47.5733" lon="-2.51949">
        <ele>42.6</ele>
        <time>2020-06-06T10:14:07Z</time>
      </trkpt>
      <trkpt lat="47.57336" lon="-2.51955">
        <ele>42.6</ele>
        <time>2020-06-06T10:14:08Z</time>
      </trkpt>
      <trkpt lat="47.5734" lon="-2.5196">
        <ele>42.6</ele>
        <time>2020-06-06T10:14:09Z</time>
      </trkpt>
      <trkpt lat="47.57344" lon="-2.51967">
        <ele>42.6</ele>
        <time>2020-06-06T10:14:10Z</time>
      </trkpt>
      <trkpt lat="47.57348" lon="-2.51973">
        <ele>42.6</ele>
        <time>2020-06-06T10:14:11Z</time>
      </trkpt>
      <trkpt lat="47.57352" lon="-2.51978">
        <ele>42.6</ele>
        <time>2020-06-06T10:14:12Z</time>
      </trkpt>
      <trkpt lat="47.57356" lon="-2.51983">
        <ele>42.6</ele>
        <time>2020-06-06T10:14:13Z</time>
      </trkpt>
      <trkpt lat="47.5736" lon="-2.51988">
        <ele>42.6</ele>
        <time>2020-06-06T10:14:14Z</time>
      </trkpt>
      <trkpt lat="47.57364" lon="-2.51993">
        <ele>42.6</ele>
        <time>2020-06-06T10:14:15Z</time>
      </trkpt>
      <trkpt lat="47.57368" lon="-2.51998">
        <ele>42.5</ele>
        <time>2020-06-06T10:14:16Z</time>
      </trkpt>
      <trkpt lat="47.57372" lon="-2.52003">
        <ele>42.5</ele>
        <time>2020-06-06T10:14:17Z</time>
      </trkpt>
      <trkpt lat="47.57376" lon="-2.52008">
        <ele>42.5</ele>
        <time>2020-06-06T10:14:18Z</time>
      </trkpt>
      <trkpt lat="47.5738" lon="-2.52013">
        <ele>42.5</ele>
        <time>2020-06-06T10:14:19Z</time>
      </trkpt>
      <trkpt lat="47.57384" lon="-2.52019">
        <ele>42.5</ele>
        <time>2020-06-06T10:14:20Z</time>
      </trkpt>
      <trkpt lat="47.57387" lon="-2.52025">
        <ele>42.5</ele>
        <time>2020-06-06T10:14:21Z</time>
      </trkpt>
      <trkpt lat="47.57391" lon="-2.52032">
        <ele>42.5</ele>
        <time>2020-06-06T10:14:22Z</time>
      </trkpt>
      <trkpt lat="47.57395" lon="-2.52038">
        <ele>42.4</ele>
        <time>2020-06-06T10:14:23Z</time>
      </trkpt>
      <trkpt lat="47.57399" lon="-2.52044">
        <ele>42.4</ele>
        <time>2020-06-06T10:14:24Z</time>
      </trkpt>
      <trkpt lat="47.57403" lon="-2.52051">
        <ele>42.4</ele>
        <time>2020-06-06T10:14:25Z</time>
      </trkpt>
      <trkpt lat="47.57407" lon="-2.52057">
        <ele>42.5</ele>
        <time>2020-06-06T10:14:26Z</time>
      </trkpt>
      <trkpt lat="47.57411" lon="-2.52063">
        <ele>42.5</ele>
        <time>2020-06-06T10:14:27Z</time>
      </trkpt>
      <trkpt lat="47.57416" lon="-2.52068">
        <ele>42.5</ele>
        <time>2020-06-06T10:14:28Z</time>
      </trkpt>
      <trkpt lat="47.57419" lon="-2.52073">
        <ele>42.5</ele>
        <time>2020-06-06T10:14:29Z</time>
      </trkpt>
      <trkpt lat="47.57423" lon="-2.52077">
        <ele>42.4</ele>
        <time>2020-06-06T10:14:30Z</time>
      </trkpt>
      <trkpt lat="47.57428" lon="-2.52082">
        <ele>42.4</ele>
        <time>2020-06-06T10:14:31Z</time>
      </trkpt>
      <trkpt lat="47.57432" lon="-2.52087">
        <ele>42.4</ele>
        <time>2020-06-06T10:14:32Z</time>
      </trkpt>
      <trkpt lat="47.57436" lon="-2.52093">
        <ele>42.4</ele>
        <time>2020-06-06T10:14:33Z</time>
      </trkpt>
      <trkpt lat="47.5744" lon="-2.52097">
        <ele>42.3</ele>
        <time>2020-06-06T10:14:34Z</time>
      </trkpt>
      <trkpt lat="47.57445" lon="-2.52103">
        <ele>42.3</ele>
        <time>2020-06-06T10:14:35Z</time>
      </trkpt>
      <trkpt lat="47.57449" lon="-2.52109">
        <ele>42.2</ele>
        <time>2020-06-06T10:14:36Z</time>
      </trkpt>
      <trkpt lat="47.57452" lon="-2.52115">
        <ele>42.2</ele>
        <time>2020-06-06T10:14:37Z</time>
      </trkpt>
      <trkpt lat="47.57456" lon="-2.52121">
        <ele>42.2</ele>
        <time>2020-06-06T10:14:38Z</time>
      </trkpt>
      <trkpt lat="47.57459" lon="-2.52127">
        <ele>42.2</ele>
        <time>2020-06-06T10:14:39Z</time>
      </trkpt>
      <trkpt lat="47.57463" lon="-2.52134">
        <ele>42.2</ele>
        <time>2020-06-06T10:14:40Z</time>
      </trkpt>
      <trkpt lat="47.57467" lon="-2.52141">
        <ele>42.1</ele>
        <time>2020-06-06T10:14:41Z</time>
      </trkpt>
      <trkpt lat="47.57471" lon="-2.52147">
        <ele>42.1</ele>
        <time>2020-06-06T10:14:42Z</time>
      </trkpt>
      <trkpt lat="47.57474" lon="-2.52152">
        <ele>42.1</ele>
        <time>2020-06-06T10:14:43Z</time>
      </trkpt>
      <trkpt lat="47.57478" lon="-2.52159">
        <ele>42</ele>
        <time>2020-06-06T10:14:44Z</time>
      </trkpt>
      <trkpt lat="47.57482" lon="-2.52165">
        <ele>42</ele>
        <time>2020-06-06T10:14:45Z</time>
      </trkpt>
      <trkpt lat="47.57486" lon="-2.52171">
        <ele>41.9</ele>
        <time>2020-06-06T10:14:46Z</time>
      </trkpt>
      <trkpt lat="47.57489" lon="-2.52177">
        <ele>41.9</ele>
        <time>2020-06-06T10:14:47Z</time>
      </trkpt>
      <trkpt lat="47.57493" lon="-2.52184">
        <ele>41.9</ele>
        <time>2020-06-06T10:14:48Z</time>
      </trkpt>
      <trkpt lat="47.57497" lon="-2.5219">
        <ele>41.8</ele>
        <time>2020-06-06T10:14:49Z</time>
      </trkpt>
      <trkpt lat="47.57501" lon="-2.52196">
        <ele>41.8</ele>
        <time>2020-06-06T10:14:50Z</time>
      </trkpt>
      <trkpt lat="47.57504" lon="-2.52202">
        <ele>41.7</ele>
        <time>2020-06-06T10:14:51Z</time>
      </trkpt>
      <trkpt lat="47.5751" lon="-2.52208">
        <ele>41.7</ele>
        <time>2020-06-06T10:14:52Z</time>
      </trkpt>
      <trkpt lat="47.57515" lon="-2.52213">
        <ele>41.7</ele>
        <time>2020-06-06T10:14:53Z</time>
      </trkpt>
      <trkpt lat="47.57518" lon="-2.5222">
        <ele>41.6</ele>
        <time>2020-06-06T10:14:54Z</time>
      </trkpt>
      <trkpt lat="47.57522" lon="-2.52227">
        <ele>41.6</ele>
        <time>2020-06-06T10:14:55Z</time>
      </trkpt>
      <trkpt lat="47.57527" lon="-2.52231">
        <ele>41.5</ele>
        <time>2020-06-06T10:14:56Z</time>
      </trkpt>
      <trkpt lat="47.57531" lon="-2.52238">
        <ele>41.5</ele>
        <time>2020-06-06T10:14:57Z</time>
      </trkpt>
      <trkpt lat="47.57535" lon="-2.52245">
        <ele>41.5</ele>
        <time>2020-06-06T10:14:58Z</time>
      </trkpt>
      <trkpt lat="47.57539" lon="-2.52252">
        <ele>41.5</ele>
        <time>2020-06-06T10:14:59Z</time>
      </trkpt>
      <trkpt lat="47.57544" lon="-2.52259">
        <ele>41.6</ele>
        <time>2020-06-06T10:15:00Z</time>
      </trkpt>
      <trkpt lat="47.57548" lon="-2.52265">
        <ele>41.6</ele>
        <time>2020-06-06T10:15:01Z</time>
      </trkpt>
      <trkpt lat="47.57553" lon="-2.52272">
        <ele>41.7</ele>
        <time>2020-06-06T10:15:02Z</time>
      </trkpt>
      <trkpt lat="47.57557" lon="-2.52279">
        <ele>41.8</ele>
        <time>2020-06-06T10:15:03Z</time>
      </trkpt>
      <trkpt lat="47.5756" lon="-2.52285">
        <ele>41.9</ele>
        <time>2020-06-06T10:15:04Z</time>
      </trkpt>
      <trkpt lat="47.57564" lon="-2.52292">
        <ele>42</ele>
        <time>2020-06-06T10:15:05Z</time>
      </trkpt>
      <trkpt lat="47.57569" lon="-2.52299">
        <ele>42.1</ele>
        <time>2020-06-06T10:15:06Z</time>
      </trkpt>
      <trkpt lat="47.57574" lon="-2.52306">
        <ele>42.3</ele>
        <time>2020-06-06T10:15:07Z</time>
      </trkpt>
      <trkpt lat="47.57579" lon="-2.52312">
        <ele>42.5</ele>
        <time>2020-06-06T10:15:08Z</time>
      </trkpt>
      <trkpt lat="47.57582" lon="-2.52317">
        <ele>42.6</ele>
        <time>2020-06-06T10:15:09Z</time>
      </trkpt>
      <trkpt lat="47.57586" lon="-2.52323">
        <ele>42.7</ele>
        <time>2020-06-06T10:15:10Z</time>
      </trkpt>
      <trkpt lat="47.57591" lon="-2.52331">
        <ele>43</ele>
        <time>2020-06-06T10:15:11Z</time>
      </trkpt>
      <trkpt lat="47.57596" lon="-2.52339">
        <ele>43.2</ele>
        <time>2020-06-06T10:15:12Z</time>
      </trkpt>
      <trkpt lat="47.57601" lon="-2.52345">
        <ele>43.4</ele>
        <time>2020-06-06T10:15:13Z</time>
      </trkpt>
      <trkpt lat="47.57605" lon="-2.52351">
        <ele>43.5</ele>
        <time>2020-06-06T10:15:14Z</time>
      </trkpt>
      <trkpt lat="47.57608" lon="-2.52358">
        <ele>43.7</ele>
        <time>2020-06-06T10:15:15Z</time>
      </trkpt>
      <trkpt lat="47.57613" lon="-2.52364">
        <ele>43.8</ele>
        <time>2020-06-06T10:15:16Z</time>
      </trkpt>
      <trkpt lat="47.57618" lon="-2.52371">
        <ele>44</ele>
        <time>2020-06-06T10:15:17Z</time>
      </trkpt>
      <trkpt lat="47.57622" lon="-2.52378">
        <ele>44.2</ele>
        <time>2020-06-06T10:15:18Z</time>
      </trkpt>
      <trkpt lat="47.57626" lon="-2.52384">
        <ele>44.3</ele>
        <time>2020-06-06T10:15:19Z</time>
      </trkpt>
      <trkpt lat="47.5763" lon="-2.52391">
        <ele>44.5</ele>
        <time>2020-06-06T10:15:20Z</time>
      </trkpt>
      <trkpt lat="47.57635" lon="-2.52398">
        <ele>44.7</ele>
        <time>2020-06-06T10:15:21Z</time>
      </trkpt>
      <trkpt lat="47.57639" lon="-2.52405">
        <ele>44.8</ele>
        <time>2020-06-06T10:15:22Z</time>
      </trkpt>
      <trkpt lat="47.57644" lon="-2.52411">
        <ele>44.9</ele>
        <time>2020-06-06T10:15:23Z</time>
      </trkpt>
      <trkpt lat="47.57648" lon="-2.52418">
        <ele>44.9</ele>
        <time>2020-06-06T10:15:24Z</time>
      </trkpt>
      <trkpt lat="47.57654" lon="-2.52426">
        <ele>45</ele>
        <time>2020-06-06T10:15:25Z</time>
      </trkpt>
      <trkpt lat="47.57657" lon="-2.52432">
        <ele>45</ele>
        <time>2020-06-06T10:15:26Z</time>
      </trkpt>
      <trkpt lat="47.57662" lon="-2.5244">
        <ele>45.1</ele>
        <time>2020-06-06T10:15:27Z</time>
      </trkpt>
      <trkpt lat="47.57665" lon="-2.52446">
        <ele>45.1</ele>
        <time>2020-06-06T10:15:28Z</time>
      </trkpt>
      <trkpt lat="47.57669" lon="-2.52453">
        <ele>45.1</ele>
        <time>2020-06-06T10:15:29Z</time>
      </trkpt>
      <trkpt lat="47.57674" lon="-2.52459">
        <ele>45.2</ele>
        <time>2020-06-06T10:15:30Z</time>
      </trkpt>
      <trkpt lat="47.57677" lon="-2.52465">
        <ele>45.1</ele>
        <time>2020-06-06T10:15:31Z</time>
      </trkpt>
      <trkpt lat="47.57681" lon="-2.52471">
        <ele>45</ele>
        <time>2020-06-06T10:15:32Z</time>
      </trkpt>
      <trkpt lat="47.57684" lon="-2.52477">
        <ele>45</ele>
        <time>2020-06-06T10:15:33Z</time>
      </trkpt>
      <trkpt lat="47.57688" lon="-2.52483">
        <ele>44.9</ele>
        <time>2020-06-06T10:15:34Z</time>
      </trkpt>
      <trkpt lat="47.57691" lon="-2.52489">
        <ele>44.8</ele>
        <time>2020-06-06T10:15:36Z</time>
      </trkpt>
      <trkpt lat="47.57694" lon="-2.52494">
        <ele>44.8</ele>
        <time>2020-06-06T10:15:37Z</time>
      </trkpt>
      <trkpt lat="47.57697" lon="-2.525">
        <ele>44.7</ele>
        <time>2020-06-06T10:15:38Z</time>
      </trkpt>
      <trkpt lat="47.577" lon="-2.52506">
        <ele>44.6</ele>
        <time>2020-06-06T10:15:39Z</time>
      </trkpt>
      <trkpt lat="47.57703" lon="-2.52511">
        <ele>44.5</ele>
        <time>2020-06-06T10:15:40Z</time>
      </trkpt>
      <trkpt lat="47.57706" lon="-2.52517">
        <ele>44.5</ele>
        <time>2020-06-06T10:15:41Z</time>
      </trkpt>
      <trkpt lat="47.57708" lon="-2.52523">
        <ele>44.4</ele>
        <time>2020-06-06T10:15:42Z</time>
      </trkpt>
      <trkpt lat="47.57711" lon="-2.52529">
        <ele>44.3</ele>
        <time>2020-06-06T10:15:43Z</time>
      </trkpt>
      <trkpt lat="47.57714" lon="-2.52534">
        <ele>44.2</ele>
        <time>2020-06-06T10:15:44Z</time>
      </trkpt>
      <trkpt lat="47.57718" lon="-2.52539">
        <ele>44.2</ele>
        <time>2020-06-06T10:15:45Z</time>
      </trkpt>
      <trkpt lat="47.57721" lon="-2.52545">
        <ele>44.1</ele>
        <time>2020-06-06T10:15:46Z</time>
      </trkpt>
      <trkpt lat="47.57724" lon="-2.52551">
        <ele>44</ele>
        <time>2020-06-06T10:15:47Z</time>
      </trkpt>
      <trkpt lat="47.57726" lon="-2.52557">
        <ele>43.9</ele>
        <time>2020-06-06T10:15:48Z</time>
      </trkpt>
      <trkpt lat="47.57729" lon="-2.52562">
        <ele>43.8</ele>
        <time>2020-06-06T10:15:49Z</time>
      </trkpt>
      <trkpt lat="47.57732" lon="-2.52568">
        <ele>43.7</ele>
        <time>2020-06-06T10:15:50Z</time>
      </trkpt>
      <trkpt lat="47.57734" lon="-2.52573">
        <ele>43.6</ele>
        <time>2020-06-06T10:15:51Z</time>
      </trkpt>
      <trkpt lat="47.57737" lon="-2.52578">
        <ele>43.5</ele>
        <time>2020-06-06T10:15:52Z</time>
      </trkpt>
      <trkpt lat="47.57739" lon="-2.52584">
        <ele>43.4</ele>
        <time>2020-06-06T10:15:53Z</time>
      </trkpt>
      <trkpt lat="47.57742" lon="-2.52589">
        <ele>43.4</ele>
        <time>2020-06-06T10:15:54Z</time>
      </trkpt>
      <trkpt lat="47.57745" lon="-2.52594">
        <ele>43.3</ele>
        <time>2020-06-06T10:15:55Z</time>
      </trkpt>
      <trkpt lat="47.57748" lon="-2.52599">
        <ele>43.3</ele>
        <time>2020-06-06T10:15:56Z</time>
      </trkpt>
      <trkpt lat="47.57751" lon="-2.52605">
        <ele>43.2</ele>
        <time>2020-06-06T10:15:57Z</time>
      </trkpt>
      <trkpt lat="47.57754" lon="-2.5261">
        <ele>43</ele>
        <time>2020-06-06T10:15:58Z</time>
      </trkpt>
      <trkpt lat="47.57758" lon="-2.52616">
        <ele>42.9</ele>
        <time>2020-06-06T10:15:59Z</time>
      </trkpt>
      <trkpt lat="47.57761" lon="-2.52622">
        <ele>42.7</ele>
        <time>2020-06-06T10:16:00Z</time>
      </trkpt>
      <trkpt lat="47.57764" lon="-2.52629">
        <ele>42.5</ele>
        <time>2020-06-06T10:16:01Z</time>
      </trkpt>
      <trkpt lat="47.57767" lon="-2.52637">
        <ele>42.2</ele>
        <time>2020-06-06T10:16:02Z</time>
      </trkpt>
      <trkpt lat="47.57772" lon="-2.52652">
        <ele>41.8</ele>
        <time>2020-06-06T10:16:03Z</time>
      </trkpt>
      <trkpt lat="47.57775" lon="-2.52659">
        <ele>41.6</ele>
        <time>2020-06-06T10:16:04Z</time>
      </trkpt>
      <trkpt lat="47.57779" lon="-2.52666">
        <ele>41.3</ele>
        <time>2020-06-06T10:16:05Z</time>
      </trkpt>
      <trkpt lat="47.57783" lon="-2.52673">
        <ele>41.1</ele>
        <time>2020-06-06T10:16:06Z</time>
      </trkpt>
      <trkpt lat="47.57786" lon="-2.5268">
        <ele>40.9</ele>
        <time>2020-06-06T10:16:07Z</time>
      </trkpt>
      <trkpt lat="47.57789" lon="-2.52687">
        <ele>40.6</ele>
        <time>2020-06-06T10:16:08Z</time>
      </trkpt>
      <trkpt lat="47.57794" lon="-2.52693">
        <ele>40.4</ele>
        <time>2020-06-06T10:16:09Z</time>
      </trkpt>
      <trkpt lat="47.57798" lon="-2.527">
        <ele>40.1</ele>
        <time>2020-06-06T10:16:10Z</time>
      </trkpt>
      <trkpt lat="47.57801" lon="-2.52709">
        <ele>39.8</ele>
        <time>2020-06-06T10:16:11Z</time>
      </trkpt>
      <trkpt lat="47.57804" lon="-2.52718">
        <ele>39.5</ele>
        <time>2020-06-06T10:16:12Z</time>
      </trkpt>
      <trkpt lat="47.57808" lon="-2.52727">
        <ele>39.2</ele>
        <time>2020-06-06T10:16:13Z</time>
      </trkpt>
      <trkpt lat="47.57812" lon="-2.52734">
        <ele>39</ele>
        <time>2020-06-06T10:16:14Z</time>
      </trkpt>
      <trkpt lat="47.57816" lon="-2.52742">
        <ele>38.8</ele>
        <time>2020-06-06T10:16:15Z</time>
      </trkpt>
      <trkpt lat="47.5782" lon="-2.52749">
        <ele>38.6</ele>
        <time>2020-06-06T10:16:16Z</time>
      </trkpt>
      <trkpt lat="47.57824" lon="-2.52757">
        <ele>38.3</ele>
        <time>2020-06-06T10:16:17Z</time>
      </trkpt>
      <trkpt lat="47.57827" lon="-2.52766">
        <ele>38.1</ele>
        <time>2020-06-06T10:16:18Z</time>
      </trkpt>
      <trkpt lat="47.57831" lon="-2.52774">
        <ele>37.9</ele>
        <time>2020-06-06T10:16:19Z</time>
      </trkpt>
      <trkpt lat="47.57835" lon="-2.52782">
        <ele>37.7</ele>
        <time>2020-06-06T10:16:20Z</time>
      </trkpt>
      <trkpt lat="47.57839" lon="-2.5279">
        <ele>37.6</ele>
        <time>2020-06-06T10:16:21Z</time>
      </trkpt>
      <trkpt lat="47.57843" lon="-2.52798">
        <ele>37.4</ele>
        <time>2020-06-06T10:16:22Z</time>
      </trkpt>
      <trkpt lat="47.57847" lon="-2.52806">
        <ele>37.3</ele>
        <time>2020-06-06T10:16:23Z</time>
      </trkpt>
      <trkpt lat="47.57851" lon="-2.52814">
        <ele>37.2</ele>
        <time>2020-06-06T10:16:24Z</time>
      </trkpt>
      <trkpt lat="47.57855" lon="-2.52821">
        <ele>37.2</ele>
        <time>2020-06-06T10:16:25Z</time>
      </trkpt>
      <trkpt lat="47.57859" lon="-2.52829">
        <ele>37.1</ele>
        <time>2020-06-06T10:16:26Z</time>
      </trkpt>
      <trkpt lat="47.57863" lon="-2.52836">
        <ele>37.1</ele>
        <time>2020-06-06T10:16:27Z</time>
      </trkpt>
      <trkpt lat="47.57867" lon="-2.52843">
        <ele>37.1</ele>
        <time>2020-06-06T10:16:28Z</time>
      </trkpt>
      <trkpt lat="47.57871" lon="-2.52851">
        <ele>37.1</ele>
        <time>2020-06-06T10:16:29Z</time>
      </trkpt>
      <trkpt lat="47.57875" lon="-2.52858">
        <ele>37.1</ele>
        <time>2020-06-06T10:16:30Z</time>
      </trkpt>
      <trkpt lat="47.57879" lon="-2.52865">
        <ele>37.1</ele>
        <time>2020-06-06T10:16:31Z</time>
      </trkpt>
      <trkpt lat="47.57883" lon="-2.52872">
        <ele>37.1</ele>
        <time>2020-06-06T10:16:32Z</time>
      </trkpt>
      <trkpt lat="47.57886" lon="-2.5288">
        <ele>37.1</ele>
        <time>2020-06-06T10:16:33Z</time>
      </trkpt>
      <trkpt lat="47.5789" lon="-2.52888">
        <ele>37.2</ele>
        <time>2020-06-06T10:16:34Z</time>
      </trkpt>
      <trkpt lat="47.57893" lon="-2.52895">
        <ele>37.2</ele>
        <time>2020-06-06T10:16:35Z</time>
      </trkpt>
      <trkpt lat="47.57897" lon="-2.52902">
        <ele>37.3</ele>
        <time>2020-06-06T10:16:36Z</time>
      </trkpt>
      <trkpt lat="47.57901" lon="-2.52908">
        <ele>37.3</ele>
        <time>2020-06-06T10:16:37Z</time>
      </trkpt>
      <trkpt lat="47.57906" lon="-2.52915">
        <ele>37.3</ele>
        <time>2020-06-06T10:16:38Z</time>
      </trkpt>
      <trkpt lat="47.57909" lon="-2.52922">
        <ele>37.3</ele>
        <time>2020-06-06T10:16:39Z</time>
      </trkpt>
      <trkpt lat="47.57913" lon="-2.52929">
        <ele>37.3</ele>
        <time>2020-06-06T10:16:40Z</time>
      </trkpt>
      <trkpt lat="47.57917" lon="-2.52936">
        <ele>37.4</ele>
        <time>2020-06-06T10:16:41Z</time>
      </trkpt>
      <trkpt lat="47.57921" lon="-2.52944">
        <ele>37.4</ele>
        <time>2020-06-06T10:16:42Z</time>
      </trkpt>
      <trkpt lat="47.57924" lon="-2.52951">
        <ele>37.4</ele>
        <time>2020-06-06T10:16:43Z</time>
      </trkpt>
      <trkpt lat="47.57928" lon="-2.52957">
        <ele>37.5</ele>
        <time>2020-06-06T10:16:44Z</time>
      </trkpt>
      <trkpt lat="47.57931" lon="-2.52966">
        <ele>37.5</ele>
        <time>2020-06-06T10:16:45Z</time>
      </trkpt>
      <trkpt lat="47.57935" lon="-2.52973">
        <ele>37.6</ele>
        <time>2020-06-06T10:16:46Z</time>
      </trkpt>
      <trkpt lat="47.57938" lon="-2.52981">
        <ele>37.6</ele>
        <time>2020-06-06T10:16:47Z</time>
      </trkpt>
      <trkpt lat="47.57942" lon="-2.52988">
        <ele>37.6</ele>
        <time>2020-06-06T10:16:48Z</time>
      </trkpt>
      <trkpt lat="47.57947" lon="-2.52995">
        <ele>37.6</ele>
        <time>2020-06-06T10:16:49Z</time>
      </trkpt>
      <trkpt lat="47.57951" lon="-2.53002">
        <ele>37.6</ele>
        <time>2020-06-06T10:16:50Z</time>
      </trkpt>
      <trkpt lat="47.57956" lon="-2.53008">
        <ele>37.7</ele>
        <time>2020-06-06T10:16:51Z</time>
      </trkpt>
      <trkpt lat="47.5796" lon="-2.53015">
        <ele>37.7</ele>
        <time>2020-06-06T10:16:52Z</time>
      </trkpt>
      <trkpt lat="47.57964" lon="-2.53022">
        <ele>37.8</ele>
        <time>2020-06-06T10:16:53Z</time>
      </trkpt>
      <trkpt lat="47.57967" lon="-2.5303">
        <ele>37.8</ele>
        <time>2020-06-06T10:16:54Z</time>
      </trkpt>
      <trkpt lat="47.57971" lon="-2.53038">
        <ele>37.9</ele>
        <time>2020-06-06T10:16:55Z</time>
      </trkpt>
      <trkpt lat="47.57976" lon="-2.53045">
        <ele>37.9</ele>
        <time>2020-06-06T10:16:56Z</time>
      </trkpt>
      <trkpt lat="47.57979" lon="-2.53053">
        <ele>38</ele>
        <time>2020-06-06T10:16:57Z</time>
      </trkpt>
      <trkpt lat="47.57983" lon="-2.53062">
        <ele>38</ele>
        <time>2020-06-06T10:16:58Z</time>
      </trkpt>
      <trkpt lat="47.57987" lon="-2.53069">
        <ele>38</ele>
        <time>2020-06-06T10:16:59Z</time>
      </trkpt>
      <trkpt lat="47.57992" lon="-2.53076">
        <ele>38.1</ele>
        <time>2020-06-06T10:17:00Z</time>
      </trkpt>
      <trkpt lat="47.57996" lon="-2.53083">
        <ele>38.1</ele>
        <time>2020-06-06T10:17:01Z</time>
      </trkpt>
      <trkpt lat="47.58001" lon="-2.53091">
        <ele>38.1</ele>
        <time>2020-06-06T10:17:02Z</time>
      </trkpt>
      <trkpt lat="47.58005" lon="-2.53098">
        <ele>38.1</ele>
        <time>2020-06-06T10:17:03Z</time>
      </trkpt>
      <trkpt lat="47.58009" lon="-2.53106">
        <ele>38.1</ele>
        <time>2020-06-06T10:17:04Z</time>
      </trkpt>
      <trkpt lat="47.58013" lon="-2.53114">
        <ele>38.1</ele>
        <time>2020-06-06T10:17:05Z</time>
      </trkpt>
      <trkpt lat="47.58017" lon="-2.53122">
        <ele>38.1</ele>
        <time>2020-06-06T10:17:06Z</time>
      </trkpt>
      <trkpt lat="47.58021" lon="-2.5313">
        <ele>38.2</ele>
        <time>2020-06-06T10:17:07Z</time>
      </trkpt>
      <trkpt lat="47.58025" lon="-2.53137">
        <ele>38.2</ele>
        <time>2020-06-06T10:17:08Z</time>
      </trkpt>
      <trkpt lat="47.58028" lon="-2.53143">
        <ele>38.2</ele>
        <time>2020-06-06T10:17:09Z</time>
      </trkpt>
      <trkpt lat="47.58033" lon="-2.53151">
        <ele>38.2</ele>
        <time>2020-06-06T10:17:10Z</time>
      </trkpt>
      <trkpt lat="47.58037" lon="-2.53158">
        <ele>38.2</ele>
        <time>2020-06-06T10:17:11Z</time>
      </trkpt>
      <trkpt lat="47.5804" lon="-2.53165">
        <ele>38.2</ele>
        <time>2020-06-06T10:17:12Z</time>
      </trkpt>
      <trkpt lat="47.58044" lon="-2.53172">
        <ele>38.3</ele>
        <time>2020-06-06T10:17:13Z</time>
      </trkpt>
      <trkpt lat="47.58048" lon="-2.53179">
        <ele>38.3</ele>
        <time>2020-06-06T10:17:14Z</time>
      </trkpt>
      <trkpt lat="47.58051" lon="-2.53186">
        <ele>38.3</ele>
        <time>2020-06-06T10:17:15Z</time>
      </trkpt>
      <trkpt lat="47.58055" lon="-2.53193">
        <ele>38.3</ele>
        <time>2020-06-06T10:17:16Z</time>
      </trkpt>
      <trkpt lat="47.58059" lon="-2.532">
        <ele>38.3</ele>
        <time>2020-06-06T10:17:17Z</time>
      </trkpt>
      <trkpt lat="47.58064" lon="-2.53207">
        <ele>38.4</ele>
        <time>2020-06-06T10:17:18Z</time>
      </trkpt>
      <trkpt lat="47.58068" lon="-2.53214">
        <ele>38.4</ele>
        <time>2020-06-06T10:17:19Z</time>
      </trkpt>
      <trkpt lat="47.58072" lon="-2.53222">
        <ele>38.4</ele>
        <time>2020-06-06T10:17:20Z</time>
      </trkpt>
      <trkpt lat="47.58076" lon="-2.53229">
        <ele>38.5</ele>
        <time>2020-06-06T10:17:21Z</time>
      </trkpt>
      <trkpt lat="47.5808" lon="-2.53237">
        <ele>38.5</ele>
        <time>2020-06-06T10:17:22Z</time>
      </trkpt>
      <trkpt lat="47.58084" lon="-2.53244">
        <ele>38.6</ele>
        <time>2020-06-06T10:17:23Z</time>
      </trkpt>
      <trkpt lat="47.58089" lon="-2.53252">
        <ele>38.6</ele>
        <time>2020-06-06T10:17:24Z</time>
      </trkpt>
      <trkpt lat="47.58092" lon="-2.53259">
        <ele>38.6</ele>
        <time>2020-06-06T10:17:25Z</time>
      </trkpt>
      <trkpt lat="47.58096" lon="-2.53266">
        <ele>38.6</ele>
        <time>2020-06-06T10:17:26Z</time>
      </trkpt>
      <trkpt lat="47.58099" lon="-2.53273">
        <ele>38.7</ele>
        <time>2020-06-06T10:17:27Z</time>
      </trkpt>
      <trkpt lat="47.58104" lon="-2.53281">
        <ele>38.7</ele>
        <time>2020-06-06T10:17:28Z</time>
      </trkpt>
      <trkpt lat="47.58108" lon="-2.53288">
        <ele>38.8</ele>
        <time>2020-06-06T10:17:29Z</time>
      </trkpt>
      <trkpt lat="47.58112" lon="-2.53295">
        <ele>38.8</ele>
        <time>2020-06-06T10:17:30Z</time>
      </trkpt>
      <trkpt lat="47.58115" lon="-2.53302">
        <ele>38.9</ele>
        <time>2020-06-06T10:17:31Z</time>
      </trkpt>
      <trkpt lat="47.58118" lon="-2.53308">
        <ele>38.9</ele>
        <time>2020-06-06T10:17:32Z</time>
      </trkpt>
      <trkpt lat="47.58122" lon="-2.53315">
        <ele>38.9</ele>
        <time>2020-06-06T10:17:33Z</time>
      </trkpt>
      <trkpt lat="47.58127" lon="-2.53323">
        <ele>39</ele>
        <time>2020-06-06T10:17:34Z</time>
      </trkpt>
      <trkpt lat="47.5813" lon="-2.5333">
        <ele>39</ele>
        <time>2020-06-06T10:17:35Z</time>
      </trkpt>
      <trkpt lat="47.58134" lon="-2.53336">
        <ele>39</ele>
        <time>2020-06-06T10:17:36Z</time>
      </trkpt>
      <trkpt lat="47.58137" lon="-2.53342">
        <ele>39</ele>
        <time>2020-06-06T10:17:37Z</time>
      </trkpt>
      <trkpt lat="47.58141" lon="-2.53349">
        <ele>39.1</ele>
        <time>2020-06-06T10:17:38Z</time>
      </trkpt>
      <trkpt lat="47.58145" lon="-2.53356">
        <ele>39.2</ele>
        <time>2020-06-06T10:17:39Z</time>
      </trkpt>
      <trkpt lat="47.58149" lon="-2.53363">
        <ele>39.2</ele>
        <time>2020-06-06T10:17:40Z</time>
      </trkpt>
      <trkpt lat="47.58153" lon="-2.53371">
        <ele>39.3</ele>
        <time>2020-06-06T10:17:41Z</time>
      </trkpt>
      <trkpt lat="47.58158" lon="-2.53379">
        <ele>39.3</ele>
        <time>2020-06-06T10:17:42Z</time>
      </trkpt>
      <trkpt lat="47.58161" lon="-2.53385">
        <ele>39.4</ele>
        <time>2020-06-06T10:17:43Z</time>
      </trkpt>
      <trkpt lat="47.58166" lon="-2.53393">
        <ele>39.4</ele>
        <time>2020-06-06T10:17:44Z</time>
      </trkpt>
      <trkpt lat="47.58169" lon="-2.53401">
        <ele>39.4</ele>
        <time>2020-06-06T10:17:45Z</time>
      </trkpt>
      <trkpt lat="47.58173" lon="-2.53408">
        <ele>39.5</ele>
        <time>2020-06-06T10:17:46Z</time>
      </trkpt>
      <trkpt lat="47.58176" lon="-2.53415">
        <ele>39.5</ele>
        <time>2020-06-06T10:17:47Z</time>
      </trkpt>
      <trkpt lat="47.5818" lon="-2.5342">
        <ele>39.5</ele>
        <time>2020-06-06T10:17:48Z</time>
      </trkpt>
      <trkpt lat="47.58184" lon="-2.53427">
        <ele>39.6</ele>
        <time>2020-06-06T10:17:49Z</time>
      </trkpt>
      <trkpt lat="47.58187" lon="-2.53433">
        <ele>39.6</ele>
        <time>2020-06-06T10:17:50Z</time>
      </trkpt>
      <trkpt lat="47.5819" lon="-2.5344">
        <ele>39.7</ele>
        <time>2020-06-06T10:17:51Z</time>
      </trkpt>
      <trkpt lat="47.58194" lon="-2.53446">
        <ele>39.8</ele>
        <time>2020-06-06T10:17:52Z</time>
      </trkpt>
      <trkpt lat="47.58197" lon="-2.53452">
        <ele>39.8</ele>
        <time>2020-06-06T10:17:53Z</time>
      </trkpt>
      <trkpt lat="47.582" lon="-2.53458">
        <ele>39.9</ele>
        <time>2020-06-06T10:17:54Z</time>
      </trkpt>
      <trkpt lat="47.58204" lon="-2.53464">
        <ele>39.9</ele>
        <time>2020-06-06T10:17:55Z</time>
      </trkpt>
      <trkpt lat="47.58207" lon="-2.53469">
        <ele>39.9</ele>
        <time>2020-06-06T10:17:56Z</time>
      </trkpt>
      <trkpt lat="47.5821" lon="-2.53476">
        <ele>40</ele>
        <time>2020-06-06T10:17:57Z</time>
      </trkpt>
      <trkpt lat="47.58214" lon="-2.53482">
        <ele>40</ele>
        <time>2020-06-06T10:17:58Z</time>
      </trkpt>
      <trkpt lat="47.58218" lon="-2.53489">
        <ele>40</ele>
        <time>2020-06-06T10:17:59Z</time>
      </trkpt>
      <trkpt lat="47.58222" lon="-2.53495">
        <ele>40</ele>
        <time>2020-06-06T10:18:00Z</time>
      </trkpt>
      <trkpt lat="47.58225" lon="-2.53502">
        <ele>40.1</ele>
        <time>2020-06-06T10:18:01Z</time>
      </trkpt>
      <trkpt lat="47.58228" lon="-2.5351">
        <ele>40.1</ele>
        <time>2020-06-06T10:18:02Z</time>
      </trkpt>
      <trkpt lat="47.58231" lon="-2.53517">
        <ele>40.1</ele>
        <time>2020-06-06T10:18:03Z</time>
      </trkpt>
      <trkpt lat="47.58235" lon="-2.53524">
        <ele>40.2</ele>
        <time>2020-06-06T10:18:04Z</time>
      </trkpt>
      <trkpt lat="47.58239" lon="-2.5353">
        <ele>40.2</ele>
        <time>2020-06-06T10:18:05Z</time>
      </trkpt>
      <trkpt lat="47.58243" lon="-2.53537">
        <ele>40.2</ele>
        <time>2020-06-06T10:18:06Z</time>
      </trkpt>
      <trkpt lat="47.58248" lon="-2.53544">
        <ele>40.3</ele>
        <time>2020-06-06T10:18:07Z</time>
      </trkpt>
      <trkpt lat="47.58252" lon="-2.5355">
        <ele>40.3</ele>
        <time>2020-06-06T10:18:08Z</time>
      </trkpt>
      <trkpt lat="47.58256" lon="-2.53557">
        <ele>40.3</ele>
        <time>2020-06-06T10:18:09Z</time>
      </trkpt>
      <trkpt lat="47.5826" lon="-2.53565">
        <ele>40.3</ele>
        <time>2020-06-06T10:18:10Z</time>
      </trkpt>
      <trkpt lat="47.58264" lon="-2.53571">
        <ele>40.4</ele>
        <time>2020-06-06T10:18:11Z</time>
      </trkpt>
      <trkpt lat="47.58267" lon="-2.53577">
        <ele>40.4</ele>
        <time>2020-06-06T10:18:12Z</time>
      </trkpt>
      <trkpt lat="47.5827" lon="-2.53583">
        <ele>40.4</ele>
        <time>2020-06-06T10:18:13Z</time>
      </trkpt>
      <trkpt lat="47.58273" lon="-2.5359">
        <ele>40.4</ele>
        <time>2020-06-06T10:18:14Z</time>
      </trkpt>
      <trkpt lat="47.58278" lon="-2.53598">
        <ele>40.3</ele>
        <time>2020-06-06T10:18:15Z</time>
      </trkpt>
      <trkpt lat="47.58281" lon="-2.53604">
        <ele>40</ele>
        <time>2020-06-06T10:18:16Z</time>
      </trkpt>
      <trkpt lat="47.58285" lon="-2.53611">
        <ele>39.7</ele>
        <time>2020-06-06T10:18:17Z</time>
      </trkpt>
      <trkpt lat="47.58289" lon="-2.53618">
        <ele>39.7</ele>
        <time>2020-06-06T10:18:18Z</time>
      </trkpt>
      <trkpt lat="47.58293" lon="-2.53625">
        <ele>39.7</ele>
        <time>2020-06-06T10:18:19Z</time>
      </trkpt>
      <trkpt lat="47.58296" lon="-2.53631">
        <ele>39.7</ele>
        <time>2020-06-06T10:18:20Z</time>
      </trkpt>
      <trkpt lat="47.583" lon="-2.53638">
        <ele>39.7</ele>
        <time>2020-06-06T10:18:21Z</time>
      </trkpt>
      <trkpt lat="47.58303" lon="-2.53645">
        <ele>39.7</ele>
        <time>2020-06-06T10:18:22Z</time>
      </trkpt>
      <trkpt lat="47.58307" lon="-2.53652">
        <ele>39.7</ele>
        <time>2020-06-06T10:18:23Z</time>
      </trkpt>
      <trkpt lat="47.5831" lon="-2.53658">
        <ele>39.8</ele>
        <time>2020-06-06T10:18:24Z</time>
      </trkpt>
      <trkpt lat="47.58314" lon="-2.53665">
        <ele>39.8</ele>
        <time>2020-06-06T10:18:25Z</time>
      </trkpt>
      <trkpt lat="47.58318" lon="-2.53673">
        <ele>39.8</ele>
        <time>2020-06-06T10:18:26Z</time>
      </trkpt>
      <trkpt lat="47.58322" lon="-2.5368">
        <ele>39.8</ele>
        <time>2020-06-06T10:18:27Z</time>
      </trkpt>
      <trkpt lat="47.58326" lon="-2.53687">
        <ele>39.8</ele>
        <time>2020-06-06T10:18:28Z</time>
      </trkpt>
      <trkpt lat="47.58331" lon="-2.53697">
        <ele>39.9</ele>
        <time>2020-06-06T10:18:29Z</time>
      </trkpt>
      <trkpt lat="47.58335" lon="-2.53705">
        <ele>39.9</ele>
        <time>2020-06-06T10:18:30Z</time>
      </trkpt>
      <trkpt lat="47.58338" lon="-2.53711">
        <ele>39.9</ele>
        <time>2020-06-06T10:18:31Z</time>
      </trkpt>
      <trkpt lat="47.58342" lon="-2.53719">
        <ele>40</ele>
        <time>2020-06-06T10:18:32Z</time>
      </trkpt>
      <trkpt lat="47.58346" lon="-2.53726">
        <ele>40</ele>
        <time>2020-06-06T10:18:33Z</time>
      </trkpt>
      <trkpt lat="47.58349" lon="-2.53732">
        <ele>40</ele>
        <time>2020-06-06T10:18:34Z</time>
      </trkpt>
      <trkpt lat="47.58354" lon="-2.53739">
        <ele>40</ele>
        <time>2020-06-06T10:18:35Z</time>
      </trkpt>
      <trkpt lat="47.58358" lon="-2.53747">
        <ele>40</ele>
        <time>2020-06-06T10:18:36Z</time>
      </trkpt>
      <trkpt lat="47.58363" lon="-2.53754">
        <ele>40</ele>
        <time>2020-06-06T10:18:37Z</time>
      </trkpt>
      <trkpt lat="47.58367" lon="-2.53761">
        <ele>40</ele>
        <time>2020-06-06T10:18:38Z</time>
      </trkpt>
      <trkpt lat="47.58371" lon="-2.53768">
        <ele>40</ele>
        <time>2020-06-06T10:18:39Z</time>
      </trkpt>
      <trkpt lat="47.58375" lon="-2.53775">
        <ele>40</ele>
        <time>2020-06-06T10:18:40Z</time>
      </trkpt>
      <trkpt lat="47.58378" lon="-2.53782">
        <ele>40.1</ele>
        <time>2020-06-06T10:18:41Z</time>
      </trkpt>
      <trkpt lat="47.58382" lon="-2.53789">
        <ele>40.1</ele>
        <time>2020-06-06T10:18:42Z</time>
      </trkpt>
      <trkpt lat="47.58386" lon="-2.53796">
        <ele>40.1</ele>
        <time>2020-06-06T10:18:43Z</time>
      </trkpt>
      <trkpt lat="47.5839" lon="-2.53803">
        <ele>40.2</ele>
        <time>2020-06-06T10:18:44Z</time>
      </trkpt>
      <trkpt lat="47.58394" lon="-2.5381">
        <ele>40.2</ele>
        <time>2020-06-06T10:18:45Z</time>
      </trkpt>
      <trkpt lat="47.58397" lon="-2.53817">
        <ele>40.2</ele>
        <time>2020-06-06T10:18:46Z</time>
      </trkpt>
      <trkpt lat="47.584" lon="-2.53823">
        <ele>40.2</ele>
        <time>2020-06-06T10:18:47Z</time>
      </trkpt>
      <trkpt lat="47.58404" lon="-2.5383">
        <ele>40.3</ele>
        <time>2020-06-06T10:18:48Z</time>
      </trkpt>
      <trkpt lat="47.58407" lon="-2.53837">
        <ele>40.3</ele>
        <time>2020-06-06T10:18:49Z</time>
      </trkpt>
      <trkpt lat="47.58412" lon="-2.53844">
        <ele>40.3</ele>
        <time>2020-06-06T10:18:50Z</time>
      </trkpt>
      <trkpt lat="47.58415" lon="-2.53851">
        <ele>40.3</ele>
        <time>2020-06-06T10:18:51Z</time>
      </trkpt>
      <trkpt lat="47.58419" lon="-2.53858">
        <ele>40.3</ele>
        <time>2020-06-06T10:18:52Z</time>
      </trkpt>
      <trkpt lat="47.58422" lon="-2.53864">
        <ele>40.4</ele>
        <time>2020-06-06T10:18:53Z</time>
      </trkpt>
      <trkpt lat="47.58426" lon="-2.53871">
        <ele>40.4</ele>
        <time>2020-06-06T10:18:54Z</time>
      </trkpt>
      <trkpt lat="47.5843" lon="-2.53879">
        <ele>40.5</ele>
        <time>2020-06-06T10:18:55Z</time>
      </trkpt>
      <trkpt lat="47.58433" lon="-2.53886">
        <ele>40.5</ele>
        <time>2020-06-06T10:18:56Z</time>
      </trkpt>
      <trkpt lat="47.58438" lon="-2.53894">
        <ele>40.6</ele>
        <time>2020-06-06T10:18:57Z</time>
      </trkpt>
      <trkpt lat="47.58442" lon="-2.53902">
        <ele>40.6</ele>
        <time>2020-06-06T10:18:58Z</time>
      </trkpt>
      <trkpt lat="47.58445" lon="-2.53909">
        <ele>40.6</ele>
        <time>2020-06-06T10:18:59Z</time>
      </trkpt>
      <trkpt lat="47.58448" lon="-2.53914">
        <ele>40.7</ele>
        <time>2020-06-06T10:19:00Z</time>
      </trkpt>
      <trkpt lat="47.58451" lon="-2.53921">
        <ele>40.7</ele>
        <time>2020-06-06T10:19:01Z</time>
      </trkpt>
      <trkpt lat="47.58455" lon="-2.53928">
        <ele>40.7</ele>
        <time>2020-06-06T10:19:02Z</time>
      </trkpt>
      <trkpt lat="47.58459" lon="-2.53935">
        <ele>40.8</ele>
        <time>2020-06-06T10:19:03Z</time>
      </trkpt>
      <trkpt lat="47.58462" lon="-2.53942">
        <ele>40.8</ele>
        <time>2020-06-06T10:19:04Z</time>
      </trkpt>
      <trkpt lat="47.58466" lon="-2.53949">
        <ele>40.8</ele>
        <time>2020-06-06T10:19:05Z</time>
      </trkpt>
      <trkpt lat="47.5847" lon="-2.53956">
        <ele>40.9</ele>
        <time>2020-06-06T10:19:06Z</time>
      </trkpt>
      <trkpt lat="47.58474" lon="-2.53961">
        <ele>40.9</ele>
        <time>2020-06-06T10:19:07Z</time>
      </trkpt>
      <trkpt lat="47.58478" lon="-2.53967">
        <ele>40.9</ele>
        <time>2020-06-06T10:19:08Z</time>
      </trkpt>
      <trkpt lat="47.58481" lon="-2.53972">
        <ele>40.9</ele>
        <time>2020-06-06T10:19:09Z</time>
      </trkpt>
      <trkpt lat="47.58485" lon="-2.53977">
        <ele>41</ele>
        <time>2020-06-06T10:19:10Z</time>
      </trkpt>
      <trkpt lat="47.58488" lon="-2.53984">
        <ele>41</ele>
        <time>2020-06-06T10:19:11Z</time>
      </trkpt>
      <trkpt lat="47.58492" lon="-2.53989">
        <ele>41</ele>
        <time>2020-06-06T10:19:12Z</time>
      </trkpt>
      <trkpt lat="47.58496" lon="-2.53995">
        <ele>41</ele>
        <time>2020-06-06T10:19:13Z</time>
      </trkpt>
      <trkpt lat="47.585" lon="-2.54001">
        <ele>41</ele>
        <time>2020-06-06T10:19:14Z</time>
      </trkpt>
      <trkpt lat="47.58503" lon="-2.54007">
        <ele>41</ele>
        <time>2020-06-06T10:19:15Z</time>
      </trkpt>
      <trkpt lat="47.58506" lon="-2.54013">
        <ele>41</ele>
        <time>2020-06-06T10:19:16Z</time>
      </trkpt>
      <trkpt lat="47.58508" lon="-2.54018">
        <ele>41</ele>
        <time>2020-06-06T10:19:17Z</time>
      </trkpt>
      <trkpt lat="47.58511" lon="-2.54024">
        <ele>41</ele>
        <time>2020-06-06T10:19:18Z</time>
      </trkpt>
      <trkpt lat="47.58515" lon="-2.54032">
        <ele>41</ele>
        <time>2020-06-06T10:19:19Z</time>
      </trkpt>
      <trkpt lat="47.58518" lon="-2.54038">
        <ele>41</ele>
        <time>2020-06-06T10:19:20Z</time>
      </trkpt>
      <trkpt lat="47.58522" lon="-2.54046">
        <ele>41</ele>
        <time>2020-06-06T10:19:21Z</time>
      </trkpt>
      <trkpt lat="47.58525" lon="-2.54052">
        <ele>41.1</ele>
        <time>2020-06-06T10:19:22Z</time>
      </trkpt>
      <trkpt lat="47.58528" lon="-2.54057">
        <ele>41.1</ele>
        <time>2020-06-06T10:19:23Z</time>
      </trkpt>
      <trkpt lat="47.58531" lon="-2.54064">
        <ele>41.1</ele>
        <time>2020-06-06T10:19:24Z</time>
      </trkpt>
      <trkpt lat="47.58535" lon="-2.54071">
        <ele>41.1</ele>
        <time>2020-06-06T10:19:25Z</time>
      </trkpt>
      <trkpt lat="47.58538" lon="-2.54078">
        <ele>41.1</ele>
        <time>2020-06-06T10:19:26Z</time>
      </trkpt>
      <trkpt lat="47.5854" lon="-2.54083">
        <ele>41.1</ele>
        <time>2020-06-06T10:19:27Z</time>
      </trkpt>
      <trkpt lat="47.58543" lon="-2.54089">
        <ele>41.1</ele>
        <time>2020-06-06T10:19:28Z</time>
      </trkpt>
      <trkpt lat="47.58546" lon="-2.54095">
        <ele>41.1</ele>
        <time>2020-06-06T10:19:29Z</time>
      </trkpt>
      <trkpt lat="47.5855" lon="-2.54102">
        <ele>41</ele>
        <time>2020-06-06T10:19:30Z</time>
      </trkpt>
      <trkpt lat="47.58554" lon="-2.54109">
        <ele>41</ele>
        <time>2020-06-06T10:19:31Z</time>
      </trkpt>
      <trkpt lat="47.58558" lon="-2.54115">
        <ele>40.9</ele>
        <time>2020-06-06T10:19:32Z</time>
      </trkpt>
      <trkpt lat="47.58562" lon="-2.54123">
        <ele>40.9</ele>
        <time>2020-06-06T10:19:33Z</time>
      </trkpt>
      <trkpt lat="47.58565" lon="-2.5413">
        <ele>40.9</ele>
        <time>2020-06-06T10:19:34Z</time>
      </trkpt>
      <trkpt lat="47.58568" lon="-2.54137">
        <ele>41</ele>
        <time>2020-06-06T10:19:35Z</time>
      </trkpt>
      <trkpt lat="47.58573" lon="-2.54146">
        <ele>41</ele>
        <time>2020-06-06T10:19:36Z</time>
      </trkpt>
      <trkpt lat="47.58578" lon="-2.54155">
        <ele>41</ele>
        <time>2020-06-06T10:19:37Z</time>
      </trkpt>
      <trkpt lat="47.58581" lon="-2.54161">
        <ele>41</ele>
        <time>2020-06-06T10:19:38Z</time>
      </trkpt>
      <trkpt lat="47.58584" lon="-2.54167">
        <ele>40.9</ele>
        <time>2020-06-06T10:19:39Z</time>
      </trkpt>
      <trkpt lat="47.58588" lon="-2.54175">
        <ele>40.9</ele>
        <time>2020-06-06T10:19:40Z</time>
      </trkpt>
      <trkpt lat="47.58592" lon="-2.54182">
        <ele>40.9</ele>
        <time>2020-06-06T10:19:41Z</time>
      </trkpt>
      <trkpt lat="47.58595" lon="-2.54189">
        <ele>40.8</ele>
        <time>2020-06-06T10:19:42Z</time>
      </trkpt>
      <trkpt lat="47.58598" lon="-2.54196">
        <ele>40.8</ele>
        <time>2020-06-06T10:19:43Z</time>
      </trkpt>
      <trkpt lat="47.58602" lon="-2.54203">
        <ele>40.7</ele>
        <time>2020-06-06T10:19:44Z</time>
      </trkpt>
      <trkpt lat="47.58605" lon="-2.5421">
        <ele>40.7</ele>
        <time>2020-06-06T10:19:45Z</time>
      </trkpt>
      <trkpt lat="47.58608" lon="-2.54217">
        <ele>40.6</ele>
        <time>2020-06-06T10:19:46Z</time>
      </trkpt>
      <trkpt lat="47.58612" lon="-2.54225">
        <ele>40.5</ele>
        <time>2020-06-06T10:19:47Z</time>
      </trkpt>
      <trkpt lat="47.58615" lon="-2.54233">
        <ele>40.5</ele>
        <time>2020-06-06T10:19:48Z</time>
      </trkpt>
      <trkpt lat="47.58619" lon="-2.54241">
        <ele>40.5</ele>
        <time>2020-06-06T10:19:49Z</time>
      </trkpt>
      <trkpt lat="47.58623" lon="-2.54249">
        <ele>40.4</ele>
        <time>2020-06-06T10:19:50Z</time>
      </trkpt>
      <trkpt lat="47.58626" lon="-2.54257">
        <ele>40.4</ele>
        <time>2020-06-06T10:19:51Z</time>
      </trkpt>
      <trkpt lat="47.5863" lon="-2.54265">
        <ele>40.4</ele>
        <time>2020-06-06T10:19:52Z</time>
      </trkpt>
      <trkpt lat="47.58633" lon="-2.54273">
        <ele>40.3</ele>
        <time>2020-06-06T10:19:53Z</time>
      </trkpt>
      <trkpt lat="47.58637" lon="-2.54281">
        <ele>40.3</ele>
        <time>2020-06-06T10:19:54Z</time>
      </trkpt>
      <trkpt lat="47.5864" lon="-2.54289">
        <ele>40.2</ele>
        <time>2020-06-06T10:19:55Z</time>
      </trkpt>
      <trkpt lat="47.58643" lon="-2.54296">
        <ele>40.1</ele>
        <time>2020-06-06T10:19:56Z</time>
      </trkpt>
      <trkpt lat="47.58647" lon="-2.54304">
        <ele>40.1</ele>
        <time>2020-06-06T10:19:57Z</time>
      </trkpt>
      <trkpt lat="47.5865" lon="-2.54311">
        <ele>40</ele>
        <time>2020-06-06T10:19:58Z</time>
      </trkpt>
      <trkpt lat="47.58653" lon="-2.54319">
        <ele>39.9</ele>
        <time>2020-06-06T10:19:59Z</time>
      </trkpt>
      <trkpt lat="47.58656" lon="-2.54326">
        <ele>39.8</ele>
        <time>2020-06-06T10:20:00Z</time>
      </trkpt>
      <trkpt lat="47.5866" lon="-2.54333">
        <ele>39.7</ele>
        <time>2020-06-06T10:20:01Z</time>
      </trkpt>
      <trkpt lat="47.58663" lon="-2.5434">
        <ele>39.6</ele>
        <time>2020-06-06T10:20:02Z</time>
      </trkpt>
      <trkpt lat="47.58667" lon="-2.54348">
        <ele>39.5</ele>
        <time>2020-06-06T10:20:03Z</time>
      </trkpt>
      <trkpt lat="47.58671" lon="-2.54356">
        <ele>39.4</ele>
        <time>2020-06-06T10:20:04Z</time>
      </trkpt>
      <trkpt lat="47.58674" lon="-2.54363">
        <ele>39.4</ele>
        <time>2020-06-06T10:20:05Z</time>
      </trkpt>
      <trkpt lat="47.58677" lon="-2.54369">
        <ele>39.3</ele>
        <time>2020-06-06T10:20:06Z</time>
      </trkpt>
      <trkpt lat="47.5868" lon="-2.54375">
        <ele>39.2</ele>
        <time>2020-06-06T10:20:07Z</time>
      </trkpt>
      <trkpt lat="47.58683" lon="-2.54382">
        <ele>39.2</ele>
        <time>2020-06-06T10:20:08Z</time>
      </trkpt>
      <trkpt lat="47.58687" lon="-2.54389">
        <ele>39.1</ele>
        <time>2020-06-06T10:20:09Z</time>
      </trkpt>
      <trkpt lat="47.5869" lon="-2.54396">
        <ele>39</ele>
        <time>2020-06-06T10:20:10Z</time>
      </trkpt>
      <trkpt lat="47.58694" lon="-2.54405">
        <ele>38.9</ele>
        <time>2020-06-06T10:20:11Z</time>
      </trkpt>
      <trkpt lat="47.58697" lon="-2.54412">
        <ele>38.8</ele>
        <time>2020-06-06T10:20:12Z</time>
      </trkpt>
      <trkpt lat="47.58701" lon="-2.5442">
        <ele>38.6</ele>
        <time>2020-06-06T10:20:13Z</time>
      </trkpt>
      <trkpt lat="47.58704" lon="-2.54429">
        <ele>38.5</ele>
        <time>2020-06-06T10:20:14Z</time>
      </trkpt>
      <trkpt lat="47.58707" lon="-2.54437">
        <ele>38.3</ele>
        <time>2020-06-06T10:20:15Z</time>
      </trkpt>
      <trkpt lat="47.5871" lon="-2.54443">
        <ele>38.2</ele>
        <time>2020-06-06T10:20:16Z</time>
      </trkpt>
      <trkpt lat="47.58713" lon="-2.54451">
        <ele>38.1</ele>
        <time>2020-06-06T10:20:17Z</time>
      </trkpt>
      <trkpt lat="47.58717" lon="-2.5446">
        <ele>37.9</ele>
        <time>2020-06-06T10:20:18Z</time>
      </trkpt>
      <trkpt lat="47.5872" lon="-2.54467">
        <ele>37.8</ele>
        <time>2020-06-06T10:20:19Z</time>
      </trkpt>
      <trkpt lat="47.58724" lon="-2.54475">
        <ele>37.7</ele>
        <time>2020-06-06T10:20:20Z</time>
      </trkpt>
      <trkpt lat="47.58727" lon="-2.54483">
        <ele>37.5</ele>
        <time>2020-06-06T10:20:21Z</time>
      </trkpt>
      <trkpt lat="47.58731" lon="-2.54491">
        <ele>37.4</ele>
        <time>2020-06-06T10:20:22Z</time>
      </trkpt>
      <trkpt lat="47.58735" lon="-2.545">
        <ele>37.3</ele>
        <time>2020-06-06T10:20:23Z</time>
      </trkpt>
      <trkpt lat="47.58738" lon="-2.54509">
        <ele>37.1</ele>
        <time>2020-06-06T10:20:24Z</time>
      </trkpt>
      <trkpt lat="47.58741" lon="-2.54517">
        <ele>37</ele>
        <time>2020-06-06T10:20:25Z</time>
      </trkpt>
      <trkpt lat="47.58745" lon="-2.54524">
        <ele>36.8</ele>
        <time>2020-06-06T10:20:26Z</time>
      </trkpt>
      <trkpt lat="47.58748" lon="-2.54532">
        <ele>36.5</ele>
        <time>2020-06-06T10:20:27Z</time>
      </trkpt>
      <trkpt lat="47.58751" lon="-2.54539">
        <ele>36.4</ele>
        <time>2020-06-06T10:20:28Z</time>
      </trkpt>
      <trkpt lat="47.58754" lon="-2.54547">
        <ele>36.2</ele>
        <time>2020-06-06T10:20:29Z</time>
      </trkpt>
      <trkpt lat="47.58758" lon="-2.54555">
        <ele>36</ele>
        <time>2020-06-06T10:20:30Z</time>
      </trkpt>
      <trkpt lat="47.58761" lon="-2.54563">
        <ele>35.8</ele>
        <time>2020-06-06T10:20:31Z</time>
      </trkpt>
      <trkpt lat="47.58765" lon="-2.54571">
        <ele>35.6</ele>
        <time>2020-06-06T10:20:32Z</time>
      </trkpt>
      <trkpt lat="47.58768" lon="-2.5458">
        <ele>35.4</ele>
        <time>2020-06-06T10:20:33Z</time>
      </trkpt>
      <trkpt lat="47.58771" lon="-2.54588">
        <ele>35.2</ele>
        <time>2020-06-06T10:20:34Z</time>
      </trkpt>
      <trkpt lat="47.58775" lon="-2.54596">
        <ele>35</ele>
        <time>2020-06-06T10:20:35Z</time>
      </trkpt>
      <trkpt lat="47.58778" lon="-2.54604">
        <ele>34.8</ele>
        <time>2020-06-06T10:20:36Z</time>
      </trkpt>
      <trkpt lat="47.58782" lon="-2.54612">
        <ele>34.7</ele>
        <time>2020-06-06T10:20:37Z</time>
      </trkpt>
      <trkpt lat="47.58785" lon="-2.54619">
        <ele>34.5</ele>
        <time>2020-06-06T10:20:38Z</time>
      </trkpt>
      <trkpt lat="47.58789" lon="-2.54628">
        <ele>34.3</ele>
        <time>2020-06-06T10:20:39Z</time>
      </trkpt>
      <trkpt lat="47.58793" lon="-2.54636">
        <ele>34.1</ele>
        <time>2020-06-06T10:20:40Z</time>
      </trkpt>
      <trkpt lat="47.58796" lon="-2.54644">
        <ele>33.9</ele>
        <time>2020-06-06T10:20:41Z</time>
      </trkpt>
      <trkpt lat="47.588" lon="-2.54652">
        <ele>33.7</ele>
        <time>2020-06-06T10:20:42Z</time>
      </trkpt>
      <trkpt lat="47.58803" lon="-2.54659">
        <ele>33.6</ele>
        <time>2020-06-06T10:20:43Z</time>
      </trkpt>
      <trkpt lat="47.58807" lon="-2.54666">
        <ele>33.4</ele>
        <time>2020-06-06T10:20:44Z</time>
      </trkpt>
      <trkpt lat="47.5881" lon="-2.54675">
        <ele>33.3</ele>
        <time>2020-06-06T10:20:45Z</time>
      </trkpt>
      <trkpt lat="47.58814" lon="-2.54682">
        <ele>33.2</ele>
        <time>2020-06-06T10:20:46Z</time>
      </trkpt>
      <trkpt lat="47.58817" lon="-2.5469">
        <ele>33.1</ele>
        <time>2020-06-06T10:20:47Z</time>
      </trkpt>
      <trkpt lat="47.58821" lon="-2.54698">
        <ele>33.1</ele>
        <time>2020-06-06T10:20:48Z</time>
      </trkpt>
      <trkpt lat="47.58825" lon="-2.54705">
        <ele>33</ele>
        <time>2020-06-06T10:20:49Z</time>
      </trkpt>
      <trkpt lat="47.58828" lon="-2.54713">
        <ele>32.9</ele>
        <time>2020-06-06T10:20:50Z</time>
      </trkpt>
      <trkpt lat="47.58832" lon="-2.54721">
        <ele>32.9</ele>
        <time>2020-06-06T10:20:51Z</time>
      </trkpt>
      <trkpt lat="47.58836" lon="-2.54729">
        <ele>32.8</ele>
        <time>2020-06-06T10:20:52Z</time>
      </trkpt>
      <trkpt lat="47.5884" lon="-2.54737">
        <ele>32.8</ele>
        <time>2020-06-06T10:20:53Z</time>
      </trkpt>
      <trkpt lat="47.58843" lon="-2.54744">
        <ele>32.8</ele>
        <time>2020-06-06T10:20:54Z</time>
      </trkpt>
      <trkpt lat="47.58847" lon="-2.54752">
        <ele>32.8</ele>
        <time>2020-06-06T10:20:55Z</time>
      </trkpt>
      <trkpt lat="47.5885" lon="-2.54758">
        <ele>32.7</ele>
        <time>2020-06-06T10:20:56Z</time>
      </trkpt>
      <trkpt lat="47.58854" lon="-2.54766">
        <ele>32.7</ele>
        <time>2020-06-06T10:20:57Z</time>
      </trkpt>
      <trkpt lat="47.58858" lon="-2.54772">
        <ele>32.7</ele>
        <time>2020-06-06T10:20:58Z</time>
      </trkpt>
      <trkpt lat="47.58862" lon="-2.54779">
        <ele>32.6</ele>
        <time>2020-06-06T10:20:59Z</time>
      </trkpt>
      <trkpt lat="47.58866" lon="-2.54787">
        <ele>32.5</ele>
        <time>2020-06-06T10:21:00Z</time>
      </trkpt>
      <trkpt lat="47.5887" lon="-2.54794">
        <ele>32.5</ele>
        <time>2020-06-06T10:21:01Z</time>
      </trkpt>
      <trkpt lat="47.58875" lon="-2.548">
        <ele>32.4</ele>
        <time>2020-06-06T10:21:02Z</time>
      </trkpt>
      <trkpt lat="47.5888" lon="-2.54807">
        <ele>32.3</ele>
        <time>2020-06-06T10:21:03Z</time>
      </trkpt>
      <trkpt lat="47.58885" lon="-2.54812">
        <ele>32.2</ele>
        <time>2020-06-06T10:21:04Z</time>
      </trkpt>
      <trkpt lat="47.58889" lon="-2.54816">
        <ele>32.1</ele>
        <time>2020-06-06T10:21:05Z</time>
      </trkpt>
      <trkpt lat="47.58894" lon="-2.54821">
        <ele>32</ele>
        <time>2020-06-06T10:21:06Z</time>
      </trkpt>
      <trkpt lat="47.589" lon="-2.54825">
        <ele>31.9</ele>
        <time>2020-06-06T10:21:07Z</time>
      </trkpt>
      <trkpt lat="47.58905" lon="-2.54828">
        <ele>31.8</ele>
        <time>2020-06-06T10:21:08Z</time>
      </trkpt>
      <trkpt lat="47.58912" lon="-2.54831">
        <ele>31.6</ele>
        <time>2020-06-06T10:21:09Z</time>
      </trkpt>
      <trkpt lat="47.58917" lon="-2.54833">
        <ele>31.4</ele>
        <time>2020-06-06T10:21:10Z</time>
      </trkpt>
      <trkpt lat="47.58924" lon="-2.54835">
        <ele>31.3</ele>
        <time>2020-06-06T10:21:11Z</time>
      </trkpt>
      <trkpt lat="47.58929" lon="-2.54838">
        <ele>31.2</ele>
        <time>2020-06-06T10:21:12Z</time>
      </trkpt>
      <trkpt lat="47.58935" lon="-2.54839">
        <ele>31.1</ele>
        <time>2020-06-06T10:21:13Z</time>
      </trkpt>
      <trkpt lat="47.5894" lon="-2.54841">
        <ele>31</ele>
        <time>2020-06-06T10:21:14Z</time>
      </trkpt>
      <trkpt lat="47.58945" lon="-2.54842">
        <ele>30.9</ele>
        <time>2020-06-06T10:21:15Z</time>
      </trkpt>
      <trkpt lat="47.5895" lon="-2.54843">
        <ele>30.8</ele>
        <time>2020-06-06T10:21:16Z</time>
      </trkpt>
      <trkpt lat="47.58955" lon="-2.54842">
        <ele>30.6</ele>
        <time>2020-06-06T10:21:17Z</time>
      </trkpt>
      <trkpt lat="47.58961" lon="-2.54841">
        <ele>30.5</ele>
        <time>2020-06-06T10:21:18Z</time>
      </trkpt>
      <trkpt lat="47.58967" lon="-2.5484">
        <ele>30.4</ele>
        <time>2020-06-06T10:21:19Z</time>
      </trkpt>
      <trkpt lat="47.58973" lon="-2.5484">
        <ele>30.3</ele>
        <time>2020-06-06T10:21:20Z</time>
      </trkpt>
      <trkpt lat="47.58979" lon="-2.5484">
        <ele>30.3</ele>
        <time>2020-06-06T10:21:21Z</time>
      </trkpt>
      <trkpt lat="47.58983" lon="-2.54839">
        <ele>30.2</ele>
        <time>2020-06-06T10:21:22Z</time>
      </trkpt>
      <trkpt lat="47.58989" lon="-2.54839">
        <ele>30.1</ele>
        <time>2020-06-06T10:21:23Z</time>
      </trkpt>
      <trkpt lat="47.58995" lon="-2.54839">
        <ele>30</ele>
        <time>2020-06-06T10:21:24Z</time>
      </trkpt>
      <trkpt lat="47.59002" lon="-2.5484">
        <ele>29.9</ele>
        <time>2020-06-06T10:21:25Z</time>
      </trkpt>
      <trkpt lat="47.59008" lon="-2.54843">
        <ele>29.8</ele>
        <time>2020-06-06T10:21:26Z</time>
      </trkpt>
      <trkpt lat="47.59014" lon="-2.54847">
        <ele>29.7</ele>
        <time>2020-06-06T10:21:27Z</time>
      </trkpt>
      <trkpt lat="47.59019" lon="-2.54851">
        <ele>29.6</ele>
        <time>2020-06-06T10:21:28Z</time>
      </trkpt>
      <trkpt lat="47.59024" lon="-2.54857">
        <ele>29.4</ele>
        <time>2020-06-06T10:21:29Z</time>
      </trkpt>
      <trkpt lat="47.59029" lon="-2.54863">
        <ele>29.4</ele>
        <time>2020-06-06T10:21:30Z</time>
      </trkpt>
      <trkpt lat="47.59032" lon="-2.5487">
        <ele>29.4</ele>
        <time>2020-06-06T10:21:31Z</time>
      </trkpt>
      <trkpt lat="47.59033" lon="-2.54878">
        <ele>29.4</ele>
        <time>2020-06-06T10:21:32Z</time>
      </trkpt>
      <trkpt lat="47.59034" lon="-2.54887">
        <ele>29.4</ele>
        <time>2020-06-06T10:21:33Z</time>
      </trkpt>
      <trkpt lat="47.59034" lon="-2.54893">
        <ele>29.4</ele>
        <time>2020-06-06T10:21:34Z</time>
      </trkpt>
      <trkpt lat="47.59035" lon="-2.54902">
        <ele>29.4</ele>
        <time>2020-06-06T10:21:35Z</time>
      </trkpt>
      <trkpt lat="47.59036" lon="-2.54912">
        <ele>29.4</ele>
        <time>2020-06-06T10:21:36Z</time>
      </trkpt>
      <trkpt lat="47.59039" lon="-2.54921">
        <ele>29.4</ele>
        <time>2020-06-06T10:21:37Z</time>
      </trkpt>
      <trkpt lat="47.59042" lon="-2.5493">
        <ele>29.4</ele>
        <time>2020-06-06T10:21:38Z</time>
      </trkpt>
      <trkpt lat="47.59046" lon="-2.54937">
        <ele>29.4</ele>
        <time>2020-06-06T10:21:39Z</time>
      </trkpt>
      <trkpt lat="47.59049" lon="-2.54946">
        <ele>29.3</ele>
        <time>2020-06-06T10:21:40Z</time>
      </trkpt>
      <trkpt lat="47.5905" lon="-2.54955">
        <ele>29</ele>
        <time>2020-06-06T10:21:41Z</time>
      </trkpt>
      <trkpt lat="47.5905" lon="-2.54965">
        <ele>28.7</ele>
        <time>2020-06-06T10:21:42Z</time>
      </trkpt>
      <trkpt lat="47.59047" lon="-2.54973">
        <ele>28.6</ele>
        <time>2020-06-06T10:21:43Z</time>
      </trkpt>
      <trkpt lat="47.59043" lon="-2.54983">
        <ele>28.6</ele>
        <time>2020-06-06T10:21:44Z</time>
      </trkpt>
      <trkpt lat="47.59039" lon="-2.5499">
        <ele>28.5</ele>
        <time>2020-06-06T10:21:45Z</time>
      </trkpt>
      <trkpt lat="47.59035" lon="-2.54999">
        <ele>28.6</ele>
        <time>2020-06-06T10:21:46Z</time>
      </trkpt>
      <trkpt lat="47.59031" lon="-2.55008">
        <ele>28.7</ele>
        <time>2020-06-06T10:21:47Z</time>
      </trkpt>
      <trkpt lat="47.59029" lon="-2.55018">
        <ele>28.8</ele>
        <time>2020-06-06T10:21:48Z</time>
      </trkpt>
      <trkpt lat="47.59028" lon="-2.55026">
        <ele>28.9</ele>
        <time>2020-06-06T10:21:49Z</time>
      </trkpt>
      <trkpt lat="47.59026" lon="-2.55034">
        <ele>29</ele>
        <time>2020-06-06T10:21:50Z</time>
      </trkpt>
      <trkpt lat="47.59025" lon="-2.55043">
        <ele>29.2</ele>
        <time>2020-06-06T10:21:51Z</time>
      </trkpt>
      <trkpt lat="47.59023" lon="-2.55055">
        <ele>29.4</ele>
        <time>2020-06-06T10:21:52Z</time>
      </trkpt>
      <trkpt lat="47.59021" lon="-2.55062">
        <ele>29.7</ele>
        <time>2020-06-06T10:21:53Z</time>
      </trkpt>
      <trkpt lat="47.5902" lon="-2.55067">
        <ele>29.9</ele>
        <time>2020-06-06T10:21:54Z</time>
      </trkpt>
      <trkpt lat="47.59018" lon="-2.55072">
        <ele>30.1</ele>
        <time>2020-06-06T10:21:55Z</time>
      </trkpt>
      <trkpt lat="47.59017" lon="-2.55078">
        <ele>30.3</ele>
        <time>2020-06-06T10:21:56Z</time>
      </trkpt>
      <trkpt lat="47.59016" lon="-2.55085">
        <ele>30.5</ele>
        <time>2020-06-06T10:21:57Z</time>
      </trkpt>
      <trkpt lat="47.59015" lon="-2.55091">
        <ele>30.8</ele>
        <time>2020-06-06T10:21:58Z</time>
      </trkpt>
      <trkpt lat="47.59014" lon="-2.55097">
        <ele>31</ele>
        <time>2020-06-06T10:21:59Z</time>
      </trkpt>
      <trkpt lat="47.59013" lon="-2.55103">
        <ele>31.2</ele>
        <time>2020-06-06T10:22:00Z</time>
      </trkpt>
      <trkpt lat="47.59012" lon="-2.55111">
        <ele>31.5</ele>
        <time>2020-06-06T10:22:01Z</time>
      </trkpt>
      <trkpt lat="47.59012" lon="-2.55118">
        <ele>31.8</ele>
        <time>2020-06-06T10:22:02Z</time>
      </trkpt>
      <trkpt lat="47.59012" lon="-2.55124">
        <ele>32</ele>
        <time>2020-06-06T10:22:03Z</time>
      </trkpt>
      <trkpt lat="47.59011" lon="-2.55132">
        <ele>32.3</ele>
        <time>2020-06-06T10:22:04Z</time>
      </trkpt>
      <trkpt lat="47.5901" lon="-2.5514">
        <ele>32.6</ele>
        <time>2020-06-06T10:22:05Z</time>
      </trkpt>
      <trkpt lat="47.59009" lon="-2.5515">
        <ele>32.9</ele>
        <time>2020-06-06T10:22:06Z</time>
      </trkpt>
      <trkpt lat="47.59009" lon="-2.55157">
        <ele>33.2</ele>
        <time>2020-06-06T10:22:07Z</time>
      </trkpt>
      <trkpt lat="47.59009" lon="-2.55165">
        <ele>33.4</ele>
        <time>2020-06-06T10:22:08Z</time>
      </trkpt>
      <trkpt lat="47.5901" lon="-2.55172">
        <ele>33.6</ele>
        <time>2020-06-06T10:22:09Z</time>
      </trkpt>
      <trkpt lat="47.59009" lon="-2.55179">
        <ele>33.8</ele>
        <time>2020-06-06T10:22:10Z</time>
      </trkpt>
      <trkpt lat="47.5901" lon="-2.55189">
        <ele>34</ele>
        <time>2020-06-06T10:22:11Z</time>
      </trkpt>
      <trkpt lat="47.59011" lon="-2.55198">
        <ele>34.2</ele>
        <time>2020-06-06T10:22:12Z</time>
      </trkpt>
      <trkpt lat="47.59012" lon="-2.55204">
        <ele>34.3</ele>
        <time>2020-06-06T10:22:13Z</time>
      </trkpt>
      <trkpt lat="47.59014" lon="-2.5521">
        <ele>34.5</ele>
        <time>2020-06-06T10:22:14Z</time>
      </trkpt>
      <trkpt lat="47.59015" lon="-2.55217">
        <ele>34.6</ele>
        <time>2020-06-06T10:22:15Z</time>
      </trkpt>
      <trkpt lat="47.59016" lon="-2.55223">
        <ele>34.7</ele>
        <time>2020-06-06T10:22:16Z</time>
      </trkpt>
      <trkpt lat="47.59019" lon="-2.5523">
        <ele>34.8</ele>
        <time>2020-06-06T10:22:17Z</time>
      </trkpt>
      <trkpt lat="47.59021" lon="-2.55237">
        <ele>34.9</ele>
        <time>2020-06-06T10:22:18Z</time>
      </trkpt>
      <trkpt lat="47.59022" lon="-2.5524">
        <ele>34.9</ele>
        <time>2020-06-06T10:22:19Z</time>
      </trkpt>
      <trkpt lat="47.59024" lon="-2.55247">
        <ele>35.3</ele>
        <time>2020-06-06T10:22:20Z</time>
      </trkpt>
      <trkpt lat="47.59026" lon="-2.55252">
        <ele>35.6</ele>
        <time>2020-06-06T10:22:21Z</time>
      </trkpt>
      <trkpt lat="47.59028" lon="-2.55259">
        <ele>35.8</ele>
        <time>2020-06-06T10:22:22Z</time>
      </trkpt>
      <trkpt lat="47.59031" lon="-2.55266">
        <ele>35.8</ele>
        <time>2020-06-06T10:22:23Z</time>
      </trkpt>
      <trkpt lat="47.59033" lon="-2.55273">
        <ele>35.9</ele>
        <time>2020-06-06T10:22:24Z</time>
      </trkpt>
      <trkpt lat="47.59035" lon="-2.55278">
        <ele>35.9</ele>
        <time>2020-06-06T10:22:25Z</time>
      </trkpt>
      <trkpt lat="47.59037" lon="-2.55284">
        <ele>35.9</ele>
        <time>2020-06-06T10:22:26Z</time>
      </trkpt>
      <trkpt lat="47.59039" lon="-2.55289">
        <ele>35.9</ele>
        <time>2020-06-06T10:22:27Z</time>
      </trkpt>
      <trkpt lat="47.59042" lon="-2.55294">
        <ele>35.8</ele>
        <time>2020-06-06T10:22:28Z</time>
      </trkpt>
      <trkpt lat="47.59046" lon="-2.553">
        <ele>35.8</ele>
        <time>2020-06-06T10:22:29Z</time>
      </trkpt>
      <trkpt lat="47.59047" lon="-2.55306">
        <ele>35.8</ele>
        <time>2020-06-06T10:22:31Z</time>
      </trkpt>
      <trkpt lat="47.5905" lon="-2.55312">
        <ele>35.8</ele>
        <time>2020-06-06T10:22:32Z</time>
      </trkpt>
      <trkpt lat="47.59053" lon="-2.55316">
        <ele>35.7</ele>
        <time>2020-06-06T10:22:33Z</time>
      </trkpt>
      <trkpt lat="47.59055" lon="-2.55322">
        <ele>35.7</ele>
        <time>2020-06-06T10:22:34Z</time>
      </trkpt>
      <trkpt lat="47.59057" lon="-2.55328">
        <ele>35.6</ele>
        <time>2020-06-06T10:22:35Z</time>
      </trkpt>
      <trkpt lat="47.5906" lon="-2.55334">
        <ele>35.5</ele>
        <time>2020-06-06T10:22:36Z</time>
      </trkpt>
      <trkpt lat="47.59062" lon="-2.5534">
        <ele>35.5</ele>
        <time>2020-06-06T10:22:37Z</time>
      </trkpt>
      <trkpt lat="47.59065" lon="-2.55346">
        <ele>35.4</ele>
        <time>2020-06-06T10:22:38Z</time>
      </trkpt>
      <trkpt lat="47.59067" lon="-2.55352">
        <ele>35.3</ele>
        <time>2020-06-06T10:22:39Z</time>
      </trkpt>
      <trkpt lat="47.5907" lon="-2.55358">
        <ele>35.2</ele>
        <time>2020-06-06T10:22:40Z</time>
      </trkpt>
      <trkpt lat="47.59072" lon="-2.55363">
        <ele>35.1</ele>
        <time>2020-06-06T10:22:41Z</time>
      </trkpt>
      <trkpt lat="47.59073" lon="-2.55368">
        <ele>35</ele>
        <time>2020-06-06T10:22:42Z</time>
      </trkpt>
      <trkpt lat="47.59075" lon="-2.55374">
        <ele>34.9</ele>
        <time>2020-06-06T10:22:43Z</time>
      </trkpt>
      <trkpt lat="47.59077" lon="-2.55378">
        <ele>34.8</ele>
        <time>2020-06-06T10:22:44Z</time>
      </trkpt>
      <trkpt lat="47.59079" lon="-2.55383">
        <ele>34.7</ele>
        <time>2020-06-06T10:22:45Z</time>
      </trkpt>
      <trkpt lat="47.59081" lon="-2.55389">
        <ele>34.6</ele>
        <time>2020-06-06T10:22:46Z</time>
      </trkpt>
      <trkpt lat="47.59084" lon="-2.55396">
        <ele>34.5</ele>
        <time>2020-06-06T10:22:47Z</time>
      </trkpt>
      <trkpt lat="47.59086" lon="-2.55402">
        <ele>34.4</ele>
        <time>2020-06-06T10:22:48Z</time>
      </trkpt>
      <trkpt lat="47.59088" lon="-2.55407">
        <ele>34.3</ele>
        <time>2020-06-06T10:22:49Z</time>
      </trkpt>
      <trkpt lat="47.59091" lon="-2.55413">
        <ele>34.1</ele>
        <time>2020-06-06T10:22:50Z</time>
      </trkpt>
      <trkpt lat="47.59093" lon="-2.55419">
        <ele>34</ele>
        <time>2020-06-06T10:22:51Z</time>
      </trkpt>
      <trkpt lat="47.59095" lon="-2.55425">
        <ele>33.9</ele>
        <time>2020-06-06T10:22:52Z</time>
      </trkpt>
      <trkpt lat="47.591" lon="-2.55438">
        <ele>33.6</ele>
        <time>2020-06-06T10:22:53Z</time>
      </trkpt>
      <trkpt lat="47.59103" lon="-2.55445">
        <ele>33.4</ele>
        <time>2020-06-06T10:22:54Z</time>
      </trkpt>
      <trkpt lat="47.59105" lon="-2.55452">
        <ele>33.3</ele>
        <time>2020-06-06T10:22:55Z</time>
      </trkpt>
      <trkpt lat="47.59108" lon="-2.55457">
        <ele>33.1</ele>
        <time>2020-06-06T10:22:56Z</time>
      </trkpt>
      <trkpt lat="47.5911" lon="-2.55465">
        <ele>33</ele>
        <time>2020-06-06T10:22:57Z</time>
      </trkpt>
      <trkpt lat="47.59113" lon="-2.55472">
        <ele>32.8</ele>
        <time>2020-06-06T10:22:58Z</time>
      </trkpt>
      <trkpt lat="47.59116" lon="-2.55478">
        <ele>32.7</ele>
        <time>2020-06-06T10:22:59Z</time>
      </trkpt>
      <trkpt lat="47.59118" lon="-2.55484">
        <ele>32.5</ele>
        <time>2020-06-06T10:23:00Z</time>
      </trkpt>
      <trkpt lat="47.59123" lon="-2.55493">
        <ele>32.2</ele>
        <time>2020-06-06T10:23:01Z</time>
      </trkpt>
      <trkpt lat="47.59126" lon="-2.55502">
        <ele>32</ele>
        <time>2020-06-06T10:23:02Z</time>
      </trkpt>
      <trkpt lat="47.59128" lon="-2.55509">
        <ele>31.8</ele>
        <time>2020-06-06T10:23:03Z</time>
      </trkpt>
      <trkpt lat="47.5913" lon="-2.55517">
        <ele>31.7</ele>
        <time>2020-06-06T10:23:04Z</time>
      </trkpt>
      <trkpt lat="47.59133" lon="-2.55524">
        <ele>31.5</ele>
        <time>2020-06-06T10:23:05Z</time>
      </trkpt>
      <trkpt lat="47.59135" lon="-2.55531">
        <ele>31.4</ele>
        <time>2020-06-06T10:23:06Z</time>
      </trkpt>
      <trkpt lat="47.59138" lon="-2.55539">
        <ele>31.3</ele>
        <time>2020-06-06T10:23:07Z</time>
      </trkpt>
      <trkpt lat="47.59141" lon="-2.55548">
        <ele>31.2</ele>
        <time>2020-06-06T10:23:08Z</time>
      </trkpt>
      <trkpt lat="47.59144" lon="-2.55555">
        <ele>31.1</ele>
        <time>2020-06-06T10:23:09Z</time>
      </trkpt>
      <trkpt lat="47.59147" lon="-2.55562">
        <ele>31</ele>
        <time>2020-06-06T10:23:10Z</time>
      </trkpt>
      <trkpt lat="47.5915" lon="-2.5557">
        <ele>30.9</ele>
        <time>2020-06-06T10:23:11Z</time>
      </trkpt>
      <trkpt lat="47.59152" lon="-2.55578">
        <ele>30.8</ele>
        <time>2020-06-06T10:23:12Z</time>
      </trkpt>
      <trkpt lat="47.59154" lon="-2.55586">
        <ele>30.8</ele>
        <time>2020-06-06T10:23:13Z</time>
      </trkpt>
      <trkpt lat="47.59157" lon="-2.55595">
        <ele>30.7</ele>
        <time>2020-06-06T10:23:14Z</time>
      </trkpt>
      <trkpt lat="47.59159" lon="-2.55602">
        <ele>30.7</ele>
        <time>2020-06-06T10:23:15Z</time>
      </trkpt>
      <trkpt lat="47.59161" lon="-2.55609">
        <ele>30.7</ele>
        <time>2020-06-06T10:23:16Z</time>
      </trkpt>
      <trkpt lat="47.59164" lon="-2.55618">
        <ele>30.7</ele>
        <time>2020-06-06T10:23:17Z</time>
      </trkpt>
      <trkpt lat="47.59166" lon="-2.55625">
        <ele>30.6</ele>
        <time>2020-06-06T10:23:18Z</time>
      </trkpt>
      <trkpt lat="47.5917" lon="-2.55633">
        <ele>30.6</ele>
        <time>2020-06-06T10:23:19Z</time>
      </trkpt>
      <trkpt lat="47.59171" lon="-2.5564">
        <ele>30.6</ele>
        <time>2020-06-06T10:23:20Z</time>
      </trkpt>
      <trkpt lat="47.59174" lon="-2.55646">
        <ele>30.6</ele>
        <time>2020-06-06T10:23:21Z</time>
      </trkpt>
      <trkpt lat="47.59176" lon="-2.55652">
        <ele>30.6</ele>
        <time>2020-06-06T10:23:22Z</time>
      </trkpt>
      <trkpt lat="47.59177" lon="-2.55658">
        <ele>30.6</ele>
        <time>2020-06-06T10:23:23Z</time>
      </trkpt>
      <trkpt lat="47.59179" lon="-2.55665">
        <ele>30.6</ele>
        <time>2020-06-06T10:23:24Z</time>
      </trkpt>
      <trkpt lat="47.59181" lon="-2.5567">
        <ele>30.7</ele>
        <time>2020-06-06T10:23:25Z</time>
      </trkpt>
      <trkpt lat="47.59182" lon="-2.55675">
        <ele>30.7</ele>
        <time>2020-06-06T10:23:26Z</time>
      </trkpt>
      <trkpt lat="47.59185" lon="-2.5568">
        <ele>30.7</ele>
        <time>2020-06-06T10:23:27Z</time>
      </trkpt>
      <trkpt lat="47.59186" lon="-2.55684">
        <ele>30.7</ele>
        <time>2020-06-06T10:23:28Z</time>
      </trkpt>
      <trkpt lat="47.59187" lon="-2.55688">
        <ele>30.7</ele>
        <time>2020-06-06T10:23:29Z</time>
      </trkpt>
      <trkpt lat="47.59189" lon="-2.55693">
        <ele>30.7</ele>
        <time>2020-06-06T10:23:30Z</time>
      </trkpt>
      <trkpt lat="47.59191" lon="-2.55698">
        <ele>30.7</ele>
        <time>2020-06-06T10:23:31Z</time>
      </trkpt>
      <trkpt lat="47.59193" lon="-2.55703">
        <ele>30.7</ele>
        <time>2020-06-06T10:23:32Z</time>
      </trkpt>
      <trkpt lat="47.59195" lon="-2.55708">
        <ele>30.7</ele>
        <time>2020-06-06T10:23:33Z</time>
      </trkpt>
      <trkpt lat="47.59197" lon="-2.55713">
        <ele>30.7</ele>
        <time>2020-06-06T10:23:34Z</time>
      </trkpt>
      <trkpt lat="47.59199" lon="-2.55717">
        <ele>30.8</ele>
        <time>2020-06-06T10:23:35Z</time>
      </trkpt>
      <trkpt lat="47.592" lon="-2.55723">
        <ele>30.8</ele>
        <time>2020-06-06T10:23:36Z</time>
      </trkpt>
      <trkpt lat="47.59202" lon="-2.55727">
        <ele>30.8</ele>
        <time>2020-06-06T10:23:37Z</time>
      </trkpt>
      <trkpt lat="47.59203" lon="-2.55733">
        <ele>30.8</ele>
        <time>2020-06-06T10:23:38Z</time>
      </trkpt>
      <trkpt lat="47.59206" lon="-2.55738">
        <ele>30.8</ele>
        <time>2020-06-06T10:23:39Z</time>
      </trkpt>
      <trkpt lat="47.59207" lon="-2.55742">
        <ele>30.8</ele>
        <time>2020-06-06T10:23:40Z</time>
      </trkpt>
      <trkpt lat="47.59209" lon="-2.55747">
        <ele>30.8</ele>
        <time>2020-06-06T10:23:41Z</time>
      </trkpt>
      <trkpt lat="47.59211" lon="-2.55752">
        <ele>30.8</ele>
        <time>2020-06-06T10:23:42Z</time>
      </trkpt>
      <trkpt lat="47.59212" lon="-2.55758">
        <ele>30.7</ele>
        <time>2020-06-06T10:23:43Z</time>
      </trkpt>
      <trkpt lat="47.59214" lon="-2.55764">
        <ele>30.7</ele>
        <time>2020-06-06T10:23:44Z</time>
      </trkpt>
      <trkpt lat="47.59216" lon="-2.55771">
        <ele>30.7</ele>
        <time>2020-06-06T10:23:45Z</time>
      </trkpt>
      <trkpt lat="47.59218" lon="-2.55779">
        <ele>30.7</ele>
        <time>2020-06-06T10:23:46Z</time>
      </trkpt>
      <trkpt lat="47.59219" lon="-2.55785">
        <ele>30.7</ele>
        <time>2020-06-06T10:23:47Z</time>
      </trkpt>
      <trkpt lat="47.59221" lon="-2.55791">
        <ele>30.7</ele>
        <time>2020-06-06T10:23:48Z</time>
      </trkpt>
      <trkpt lat="47.59223" lon="-2.55796">
        <ele>30.7</ele>
        <time>2020-06-06T10:23:49Z</time>
      </trkpt>
      <trkpt lat="47.59224" lon="-2.558">
        <ele>30.7</ele>
        <time>2020-06-06T10:23:50Z</time>
      </trkpt>
      <trkpt lat="47.59225" lon="-2.55804">
        <ele>30.7</ele>
        <time>2020-06-06T10:23:51Z</time>
      </trkpt>
      <trkpt lat="47.59226" lon="-2.55809">
        <ele>30.7</ele>
        <time>2020-06-06T10:23:52Z</time>
      </trkpt>
      <trkpt lat="47.59228" lon="-2.55816">
        <ele>30.7</ele>
        <time>2020-06-06T10:23:53Z</time>
      </trkpt>
      <trkpt lat="47.5923" lon="-2.55822">
        <ele>30.7</ele>
        <time>2020-06-06T10:23:54Z</time>
      </trkpt>
      <trkpt lat="47.59233" lon="-2.55828">
        <ele>30.7</ele>
        <time>2020-06-06T10:23:55Z</time>
      </trkpt>
      <trkpt lat="47.59234" lon="-2.55834">
        <ele>30.6</ele>
        <time>2020-06-06T10:23:56Z</time>
      </trkpt>
      <trkpt lat="47.59236" lon="-2.5584">
        <ele>30.6</ele>
        <time>2020-06-06T10:23:57Z</time>
      </trkpt>
      <trkpt lat="47.59238" lon="-2.55846">
        <ele>30.5</ele>
        <time>2020-06-06T10:23:58Z</time>
      </trkpt>
      <trkpt lat="47.59239" lon="-2.55853">
        <ele>30.5</ele>
        <time>2020-06-06T10:23:59Z</time>
      </trkpt>
      <trkpt lat="47.59241" lon="-2.55859">
        <ele>30.4</ele>
        <time>2020-06-06T10:24:00Z</time>
      </trkpt>
      <trkpt lat="47.59243" lon="-2.55865">
        <ele>30.4</ele>
        <time>2020-06-06T10:24:01Z</time>
      </trkpt>
      <trkpt lat="47.59245" lon="-2.5587">
        <ele>30.4</ele>
        <time>2020-06-06T10:24:02Z</time>
      </trkpt>
      <trkpt lat="47.59246" lon="-2.55877">
        <ele>30.3</ele>
        <time>2020-06-06T10:24:03Z</time>
      </trkpt>
      <trkpt lat="47.59247" lon="-2.55882">
        <ele>30.3</ele>
        <time>2020-06-06T10:24:04Z</time>
      </trkpt>
      <trkpt lat="47.59248" lon="-2.55887">
        <ele>30.2</ele>
        <time>2020-06-06T10:24:05Z</time>
      </trkpt>
      <trkpt lat="47.59249" lon="-2.55893">
        <ele>30.2</ele>
        <time>2020-06-06T10:24:06Z</time>
      </trkpt>
      <trkpt lat="47.5925" lon="-2.55899">
        <ele>30.1</ele>
        <time>2020-06-06T10:24:07Z</time>
      </trkpt>
      <trkpt lat="47.59251" lon="-2.55905">
        <ele>30.1</ele>
        <time>2020-06-06T10:24:08Z</time>
      </trkpt>
      <trkpt lat="47.59252" lon="-2.5591">
        <ele>30</ele>
        <time>2020-06-06T10:24:09Z</time>
      </trkpt>
      <trkpt lat="47.59253" lon="-2.55915">
        <ele>30</ele>
        <time>2020-06-06T10:24:10Z</time>
      </trkpt>
      <trkpt lat="47.59255" lon="-2.55922">
        <ele>29.9</ele>
        <time>2020-06-06T10:24:11Z</time>
      </trkpt>
      <trkpt lat="47.59257" lon="-2.55929">
        <ele>29.8</ele>
        <time>2020-06-06T10:24:12Z</time>
      </trkpt>
      <trkpt lat="47.59259" lon="-2.55936">
        <ele>29.7</ele>
        <time>2020-06-06T10:24:13Z</time>
      </trkpt>
      <trkpt lat="47.59261" lon="-2.55945">
        <ele>29.6</ele>
        <time>2020-06-06T10:24:14Z</time>
      </trkpt>
      <trkpt lat="47.59263" lon="-2.55952">
        <ele>29.5</ele>
        <time>2020-06-06T10:24:15Z</time>
      </trkpt>
      <trkpt lat="47.59264" lon="-2.5596">
        <ele>29.4</ele>
        <time>2020-06-06T10:24:16Z</time>
      </trkpt>
      <trkpt lat="47.59265" lon="-2.55968">
        <ele>29.3</ele>
        <time>2020-06-06T10:24:17Z</time>
      </trkpt>
      <trkpt lat="47.59267" lon="-2.55978">
        <ele>29.2</ele>
        <time>2020-06-06T10:24:18Z</time>
      </trkpt>
      <trkpt lat="47.59268" lon="-2.55986">
        <ele>29.1</ele>
        <time>2020-06-06T10:24:19Z</time>
      </trkpt>
      <trkpt lat="47.59269" lon="-2.55993">
        <ele>29</ele>
        <time>2020-06-06T10:24:20Z</time>
      </trkpt>
      <trkpt lat="47.59271" lon="-2.56001">
        <ele>28.9</ele>
        <time>2020-06-06T10:24:21Z</time>
      </trkpt>
      <trkpt lat="47.59272" lon="-2.56008">
        <ele>28.8</ele>
        <time>2020-06-06T10:24:22Z</time>
      </trkpt>
      <trkpt lat="47.59273" lon="-2.56014">
        <ele>28.6</ele>
        <time>2020-06-06T10:24:23Z</time>
      </trkpt>
      <trkpt lat="47.59274" lon="-2.56021">
        <ele>28.5</ele>
        <time>2020-06-06T10:24:24Z</time>
      </trkpt>
      <trkpt lat="47.59276" lon="-2.56029">
        <ele>28.4</ele>
        <time>2020-06-06T10:24:25Z</time>
      </trkpt>
      <trkpt lat="47.59278" lon="-2.56036">
        <ele>28.2</ele>
        <time>2020-06-06T10:24:26Z</time>
      </trkpt>
      <trkpt lat="47.59279" lon="-2.56043">
        <ele>28.1</ele>
        <time>2020-06-06T10:24:27Z</time>
      </trkpt>
      <trkpt lat="47.59281" lon="-2.56049">
        <ele>28</ele>
        <time>2020-06-06T10:24:28Z</time>
      </trkpt>
      <trkpt lat="47.59283" lon="-2.56057">
        <ele>27.8</ele>
        <time>2020-06-06T10:24:29Z</time>
      </trkpt>
      <trkpt lat="47.59285" lon="-2.56064">
        <ele>27.7</ele>
        <time>2020-06-06T10:24:30Z</time>
      </trkpt>
      <trkpt lat="47.59285" lon="-2.5607">
        <ele>27.6</ele>
        <time>2020-06-06T10:24:31Z</time>
      </trkpt>
      <trkpt lat="47.59287" lon="-2.56078">
        <ele>27.4</ele>
        <time>2020-06-06T10:24:32Z</time>
      </trkpt>
      <trkpt lat="47.59289" lon="-2.56086">
        <ele>27.2</ele>
        <time>2020-06-06T10:24:33Z</time>
      </trkpt>
      <trkpt lat="47.5929" lon="-2.56093">
        <ele>27</ele>
        <time>2020-06-06T10:24:34Z</time>
      </trkpt>
      <trkpt lat="47.59292" lon="-2.561">
        <ele>26.9</ele>
        <time>2020-06-06T10:24:35Z</time>
      </trkpt>
      <trkpt lat="47.59294" lon="-2.56107">
        <ele>26.7</ele>
        <time>2020-06-06T10:24:36Z</time>
      </trkpt>
      <trkpt lat="47.59295" lon="-2.56116">
        <ele>26.5</ele>
        <time>2020-06-06T10:24:37Z</time>
      </trkpt>
      <trkpt lat="47.59297" lon="-2.56126">
        <ele>26.3</ele>
        <time>2020-06-06T10:24:38Z</time>
      </trkpt>
      <trkpt lat="47.59299" lon="-2.56134">
        <ele>26.1</ele>
        <time>2020-06-06T10:24:39Z</time>
      </trkpt>
      <trkpt lat="47.59301" lon="-2.56144">
        <ele>25.8</ele>
        <time>2020-06-06T10:24:40Z</time>
      </trkpt>
      <trkpt lat="47.59303" lon="-2.56153">
        <ele>25.5</ele>
        <time>2020-06-06T10:24:41Z</time>
      </trkpt>
      <trkpt lat="47.59306" lon="-2.56162">
        <ele>25.2</ele>
        <time>2020-06-06T10:24:42Z</time>
      </trkpt>
      <trkpt lat="47.59308" lon="-2.56171">
        <ele>25</ele>
        <time>2020-06-06T10:24:43Z</time>
      </trkpt>
      <trkpt lat="47.59309" lon="-2.5618">
        <ele>24.8</ele>
        <time>2020-06-06T10:24:44Z</time>
      </trkpt>
      <trkpt lat="47.59311" lon="-2.5619">
        <ele>24.6</ele>
        <time>2020-06-06T10:24:45Z</time>
      </trkpt>
      <trkpt lat="47.59313" lon="-2.562">
        <ele>24.4</ele>
        <time>2020-06-06T10:24:46Z</time>
      </trkpt>
      <trkpt lat="47.59315" lon="-2.5621">
        <ele>24.1</ele>
        <time>2020-06-06T10:24:47Z</time>
      </trkpt>
      <trkpt lat="47.59316" lon="-2.5622">
        <ele>23.8</ele>
        <time>2020-06-06T10:24:48Z</time>
      </trkpt>
      <trkpt lat="47.59318" lon="-2.5623">
        <ele>23.6</ele>
        <time>2020-06-06T10:24:49Z</time>
      </trkpt>
      <trkpt lat="47.5932" lon="-2.5624">
        <ele>23.3</ele>
        <time>2020-06-06T10:24:50Z</time>
      </trkpt>
      <trkpt lat="47.59322" lon="-2.5625">
        <ele>23</ele>
        <time>2020-06-06T10:24:51Z</time>
      </trkpt>
      <trkpt lat="47.59324" lon="-2.5626">
        <ele>22.7</ele>
        <time>2020-06-06T10:24:52Z</time>
      </trkpt>
      <trkpt lat="47.59326" lon="-2.5627">
        <ele>22.4</ele>
        <time>2020-06-06T10:24:53Z</time>
      </trkpt>
      <trkpt lat="47.59328" lon="-2.5628">
        <ele>22</ele>
        <time>2020-06-06T10:24:54Z</time>
      </trkpt>
      <trkpt lat="47.5933" lon="-2.5629">
        <ele>21.7</ele>
        <time>2020-06-06T10:24:55Z</time>
      </trkpt>
      <trkpt lat="47.59333" lon="-2.56301">
        <ele>21.3</ele>
        <time>2020-06-06T10:24:56Z</time>
      </trkpt>
      <trkpt lat="47.59335" lon="-2.56311">
        <ele>20.9</ele>
        <time>2020-06-06T10:24:57Z</time>
      </trkpt>
      <trkpt lat="47.59338" lon="-2.56322">
        <ele>20.4</ele>
        <time>2020-06-06T10:24:58Z</time>
      </trkpt>
      <trkpt lat="47.59341" lon="-2.56333">
        <ele>19.9</ele>
        <time>2020-06-06T10:24:59Z</time>
      </trkpt>
      <trkpt lat="47.59343" lon="-2.56344">
        <ele>19.4</ele>
        <time>2020-06-06T10:25:00Z</time>
      </trkpt>
      <trkpt lat="47.59347" lon="-2.56355">
        <ele>18.9</ele>
        <time>2020-06-06T10:25:01Z</time>
      </trkpt>
      <trkpt lat="47.59351" lon="-2.56366">
        <ele>18.5</ele>
        <time>2020-06-06T10:25:02Z</time>
      </trkpt>
      <trkpt lat="47.59355" lon="-2.56377">
        <ele>17.9</ele>
        <time>2020-06-06T10:25:03Z</time>
      </trkpt>
      <trkpt lat="47.59359" lon="-2.56389">
        <ele>17.4</ele>
        <time>2020-06-06T10:25:04Z</time>
      </trkpt>
      <trkpt lat="47.59364" lon="-2.56399">
        <ele>17</ele>
        <time>2020-06-06T10:25:05Z</time>
      </trkpt>
      <trkpt lat="47.59369" lon="-2.56409">
        <ele>16.7</ele>
        <time>2020-06-06T10:25:06Z</time>
      </trkpt>
      <trkpt lat="47.59375" lon="-2.5642">
        <ele>16.4</ele>
        <time>2020-06-06T10:25:07Z</time>
      </trkpt>
      <trkpt lat="47.5938" lon="-2.5643">
        <ele>16.1</ele>
        <time>2020-06-06T10:25:08Z</time>
      </trkpt>
      <trkpt lat="47.59385" lon="-2.5644">
        <ele>16</ele>
        <time>2020-06-06T10:25:09Z</time>
      </trkpt>
      <trkpt lat="47.5939" lon="-2.56449">
        <ele>16</ele>
        <time>2020-06-06T10:25:10Z</time>
      </trkpt>
      <trkpt lat="47.59396" lon="-2.56459">
        <ele>16</ele>
        <time>2020-06-06T10:25:11Z</time>
      </trkpt>
      <trkpt lat="47.59401" lon="-2.56467">
        <ele>15.9</ele>
        <time>2020-06-06T10:25:12Z</time>
      </trkpt>
      <trkpt lat="47.59406" lon="-2.56476">
        <ele>15.8</ele>
        <time>2020-06-06T10:25:13Z</time>
      </trkpt>
      <trkpt lat="47.59412" lon="-2.56484">
        <ele>15.8</ele>
        <time>2020-06-06T10:25:14Z</time>
      </trkpt>
      <trkpt lat="47.59417" lon="-2.56492">
        <ele>15.9</ele>
        <time>2020-06-06T10:25:15Z</time>
      </trkpt>
      <trkpt lat="47.59421" lon="-2.56499">
        <ele>16</ele>
        <time>2020-06-06T10:25:16Z</time>
      </trkpt>
      <trkpt lat="47.59426" lon="-2.56506">
        <ele>16.2</ele>
        <time>2020-06-06T10:25:17Z</time>
      </trkpt>
      <trkpt lat="47.5943" lon="-2.56513">
        <ele>16.3</ele>
        <time>2020-06-06T10:25:18Z</time>
      </trkpt>
      <trkpt lat="47.59435" lon="-2.56519">
        <ele>16.5</ele>
        <time>2020-06-06T10:25:19Z</time>
      </trkpt>
      <trkpt lat="47.59439" lon="-2.56525">
        <ele>16.7</ele>
        <time>2020-06-06T10:25:20Z</time>
      </trkpt>
      <trkpt lat="47.59443" lon="-2.56532">
        <ele>16.9</ele>
        <time>2020-06-06T10:25:21Z</time>
      </trkpt>
      <trkpt lat="47.59447" lon="-2.56538">
        <ele>17.1</ele>
        <time>2020-06-06T10:25:22Z</time>
      </trkpt>
      <trkpt lat="47.5945" lon="-2.56545">
        <ele>17.3</ele>
        <time>2020-06-06T10:25:23Z</time>
      </trkpt>
      <trkpt lat="47.59453" lon="-2.56551">
        <ele>17.5</ele>
        <time>2020-06-06T10:25:24Z</time>
      </trkpt>
      <trkpt lat="47.59456" lon="-2.56557">
        <ele>17.6</ele>
        <time>2020-06-06T10:25:25Z</time>
      </trkpt>
      <trkpt lat="47.59459" lon="-2.56564">
        <ele>17.8</ele>
        <time>2020-06-06T10:25:26Z</time>
      </trkpt>
      <trkpt lat="47.59463" lon="-2.5657">
        <ele>18</ele>
        <time>2020-06-06T10:25:27Z</time>
      </trkpt>
      <trkpt lat="47.59466" lon="-2.56576">
        <ele>18.2</ele>
        <time>2020-06-06T10:25:28Z</time>
      </trkpt>
      <trkpt lat="47.59468" lon="-2.56584">
        <ele>18.4</ele>
        <time>2020-06-06T10:25:29Z</time>
      </trkpt>
      <trkpt lat="47.59471" lon="-2.56591">
        <ele>18.6</ele>
        <time>2020-06-06T10:25:30Z</time>
      </trkpt>
      <trkpt lat="47.59474" lon="-2.56597">
        <ele>18.8</ele>
        <time>2020-06-06T10:25:31Z</time>
      </trkpt>
      <trkpt lat="47.59476" lon="-2.56604">
        <ele>18.9</ele>
        <time>2020-06-06T10:25:32Z</time>
      </trkpt>
      <trkpt lat="47.59479" lon="-2.56611">
        <ele>19.1</ele>
        <time>2020-06-06T10:25:33Z</time>
      </trkpt>
      <trkpt lat="47.59483" lon="-2.56617">
        <ele>19.3</ele>
        <time>2020-06-06T10:25:34Z</time>
      </trkpt>
      <trkpt lat="47.59486" lon="-2.56623">
        <ele>19.5</ele>
        <time>2020-06-06T10:25:35Z</time>
      </trkpt>
      <trkpt lat="47.59488" lon="-2.5663">
        <ele>19.6</ele>
        <time>2020-06-06T10:25:36Z</time>
      </trkpt>
      <trkpt lat="47.59491" lon="-2.56637">
        <ele>19.8</ele>
        <time>2020-06-06T10:25:37Z</time>
      </trkpt>
      <trkpt lat="47.59493" lon="-2.56644">
        <ele>20</ele>
        <time>2020-06-06T10:25:38Z</time>
      </trkpt>
      <trkpt lat="47.59496" lon="-2.5665">
        <ele>20.2</ele>
        <time>2020-06-06T10:25:39Z</time>
      </trkpt>
      <trkpt lat="47.59498" lon="-2.56657">
        <ele>20.4</ele>
        <time>2020-06-06T10:25:40Z</time>
      </trkpt>
      <trkpt lat="47.59501" lon="-2.56664">
        <ele>20.6</ele>
        <time>2020-06-06T10:25:41Z</time>
      </trkpt>
      <trkpt lat="47.59503" lon="-2.56672">
        <ele>20.8</ele>
        <time>2020-06-06T10:25:42Z</time>
      </trkpt>
      <trkpt lat="47.59506" lon="-2.5668">
        <ele>21.1</ele>
        <time>2020-06-06T10:25:43Z</time>
      </trkpt>
      <trkpt lat="47.59508" lon="-2.5669">
        <ele>21.5</ele>
        <time>2020-06-06T10:25:44Z</time>
      </trkpt>
      <trkpt lat="47.59511" lon="-2.56696">
        <ele>21.8</ele>
        <time>2020-06-06T10:25:45Z</time>
      </trkpt>
      <trkpt lat="47.59513" lon="-2.56703">
        <ele>22.1</ele>
        <time>2020-06-06T10:25:46Z</time>
      </trkpt>
      <trkpt lat="47.59516" lon="-2.56709">
        <ele>22.3</ele>
        <time>2020-06-06T10:25:47Z</time>
      </trkpt>
      <trkpt lat="47.59519" lon="-2.56717">
        <ele>22.7</ele>
        <time>2020-06-06T10:25:48Z</time>
      </trkpt>
      <trkpt lat="47.59522" lon="-2.56723">
        <ele>23</ele>
        <time>2020-06-06T10:25:49Z</time>
      </trkpt>
      <trkpt lat="47.59524" lon="-2.56729">
        <ele>23.3</ele>
        <time>2020-06-06T10:25:50Z</time>
      </trkpt>
      <trkpt lat="47.59526" lon="-2.56735">
        <ele>23.5</ele>
        <time>2020-06-06T10:25:51Z</time>
      </trkpt>
      <trkpt lat="47.59528" lon="-2.56741">
        <ele>23.8</ele>
        <time>2020-06-06T10:25:52Z</time>
      </trkpt>
      <trkpt lat="47.59531" lon="-2.56747">
        <ele>24.1</ele>
        <time>2020-06-06T10:25:53Z</time>
      </trkpt>
      <trkpt lat="47.59533" lon="-2.56754">
        <ele>24.4</ele>
        <time>2020-06-06T10:25:54Z</time>
      </trkpt>
      <trkpt lat="47.59536" lon="-2.56762">
        <ele>24.7</ele>
        <time>2020-06-06T10:25:55Z</time>
      </trkpt>
      <trkpt lat="47.59538" lon="-2.56768">
        <ele>25</ele>
        <time>2020-06-06T10:25:56Z</time>
      </trkpt>
      <trkpt lat="47.5954" lon="-2.56773">
        <ele>25.2</ele>
        <time>2020-06-06T10:25:57Z</time>
      </trkpt>
      <trkpt lat="47.59542" lon="-2.56779">
        <ele>25.4</ele>
        <time>2020-06-06T10:25:58Z</time>
      </trkpt>
      <trkpt lat="47.59544" lon="-2.56785">
        <ele>25.7</ele>
        <time>2020-06-06T10:25:59Z</time>
      </trkpt>
      <trkpt lat="47.59546" lon="-2.56791">
        <ele>25.9</ele>
        <time>2020-06-06T10:26:00Z</time>
      </trkpt>
      <trkpt lat="47.59549" lon="-2.56797">
        <ele>26.1</ele>
        <time>2020-06-06T10:26:01Z</time>
      </trkpt>
      <trkpt lat="47.59552" lon="-2.56804">
        <ele>26.4</ele>
        <time>2020-06-06T10:26:02Z</time>
      </trkpt>
      <trkpt lat="47.59553" lon="-2.5681">
        <ele>26.6</ele>
        <time>2020-06-06T10:26:03Z</time>
      </trkpt>
      <trkpt lat="47.59555" lon="-2.56817">
        <ele>26.7</ele>
        <time>2020-06-06T10:26:04Z</time>
      </trkpt>
      <trkpt lat="47.59557" lon="-2.56824">
        <ele>26.9</ele>
        <time>2020-06-06T10:26:05Z</time>
      </trkpt>
      <trkpt lat="47.5956" lon="-2.5683">
        <ele>27.1</ele>
        <time>2020-06-06T10:26:06Z</time>
      </trkpt>
      <trkpt lat="47.59562" lon="-2.56836">
        <ele>27.2</ele>
        <time>2020-06-06T10:26:07Z</time>
      </trkpt>
      <trkpt lat="47.59565" lon="-2.56842">
        <ele>27.4</ele>
        <time>2020-06-06T10:26:08Z</time>
      </trkpt>
      <trkpt lat="47.59568" lon="-2.56848">
        <ele>27.5</ele>
        <time>2020-06-06T10:26:09Z</time>
      </trkpt>
      <trkpt lat="47.59571" lon="-2.56854">
        <ele>27.6</ele>
        <time>2020-06-06T10:26:10Z</time>
      </trkpt>
      <trkpt lat="47.59573" lon="-2.56858">
        <ele>27.7</ele>
        <time>2020-06-06T10:26:11Z</time>
      </trkpt>
      <trkpt lat="47.59575" lon="-2.56863">
        <ele>27.8</ele>
        <time>2020-06-06T10:26:12Z</time>
      </trkpt>
      <trkpt lat="47.59577" lon="-2.56868">
        <ele>27.9</ele>
        <time>2020-06-06T10:26:13Z</time>
      </trkpt>
      <trkpt lat="47.59579" lon="-2.56874">
        <ele>28.1</ele>
        <time>2020-06-06T10:26:14Z</time>
      </trkpt>
      <trkpt lat="47.59581" lon="-2.56879">
        <ele>28.2</ele>
        <time>2020-06-06T10:26:15Z</time>
      </trkpt>
      <trkpt lat="47.59583" lon="-2.56885">
        <ele>28.3</ele>
        <time>2020-06-06T10:26:16Z</time>
      </trkpt>
      <trkpt lat="47.59584" lon="-2.5689">
        <ele>28.4</ele>
        <time>2020-06-06T10:26:17Z</time>
      </trkpt>
      <trkpt lat="47.59585" lon="-2.56895">
        <ele>28.6</ele>
        <time>2020-06-06T10:26:18Z</time>
      </trkpt>
      <trkpt lat="47.59588" lon="-2.569">
        <ele>28.7</ele>
        <time>2020-06-06T10:26:19Z</time>
      </trkpt>
      <trkpt lat="47.5959" lon="-2.56905">
        <ele>28.8</ele>
        <time>2020-06-06T10:26:20Z</time>
      </trkpt>
      <trkpt lat="47.59591" lon="-2.56909">
        <ele>28.9</ele>
        <time>2020-06-06T10:26:21Z</time>
      </trkpt>
      <trkpt lat="47.59593" lon="-2.56914">
        <ele>29</ele>
        <time>2020-06-06T10:26:22Z</time>
      </trkpt>
      <trkpt lat="47.59594" lon="-2.56918">
        <ele>29.1</ele>
        <time>2020-06-06T10:26:23Z</time>
      </trkpt>
      <trkpt lat="47.59595" lon="-2.56922">
        <ele>29.3</ele>
        <time>2020-06-06T10:26:24Z</time>
      </trkpt>
      <trkpt lat="47.59595" lon="-2.56926">
        <ele>29.4</ele>
        <time>2020-06-06T10:26:25Z</time>
      </trkpt>
      <trkpt lat="47.59596" lon="-2.5693">
        <ele>29.5</ele>
        <time>2020-06-06T10:26:26Z</time>
      </trkpt>
      <trkpt lat="47.59598" lon="-2.56936">
        <ele>29.6</ele>
        <time>2020-06-06T10:26:27Z</time>
      </trkpt>
      <trkpt lat="47.59599" lon="-2.56938">
        <ele>29.7</ele>
        <time>2020-06-06T10:26:28Z</time>
      </trkpt>
      <trkpt lat="47.596" lon="-2.56942">
        <ele>29.8</ele>
        <time>2020-06-06T10:26:29Z</time>
      </trkpt>
      <trkpt lat="47.59601" lon="-2.56946">
        <ele>29.9</ele>
        <time>2020-06-06T10:26:30Z</time>
      </trkpt>
      <trkpt lat="47.59602" lon="-2.56951">
        <ele>30</ele>
        <time>2020-06-06T10:26:31Z</time>
      </trkpt>
      <trkpt lat="47.59604" lon="-2.56957">
        <ele>30.2</ele>
        <time>2020-06-06T10:26:32Z</time>
      </trkpt>
      <trkpt lat="47.59605" lon="-2.56962">
        <ele>30.3</ele>
        <time>2020-06-06T10:26:33Z</time>
      </trkpt>
      <trkpt lat="47.59608" lon="-2.56967">
        <ele>30.5</ele>
        <time>2020-06-06T10:26:34Z</time>
      </trkpt>
      <trkpt lat="47.59609" lon="-2.56973">
        <ele>30.6</ele>
        <time>2020-06-06T10:26:35Z</time>
      </trkpt>
      <trkpt lat="47.59611" lon="-2.56978">
        <ele>30.7</ele>
        <time>2020-06-06T10:26:36Z</time>
      </trkpt>
      <trkpt lat="47.59613" lon="-2.56983">
        <ele>30.8</ele>
        <time>2020-06-06T10:26:37Z</time>
      </trkpt>
      <trkpt lat="47.59616" lon="-2.56988">
        <ele>30.9</ele>
        <time>2020-06-06T10:26:38Z</time>
      </trkpt>
      <trkpt lat="47.59616" lon="-2.5699">
        <ele>31</ele>
        <time>2020-06-06T10:26:39Z</time>
      </trkpt>
      <trkpt lat="47.59617" lon="-2.56994">
        <ele>31</ele>
        <time>2020-06-06T10:26:40Z</time>
      </trkpt>
      <trkpt lat="47.59619" lon="-2.56998">
        <ele>31.1</ele>
        <time>2020-06-06T10:26:41Z</time>
      </trkpt>
      <trkpt lat="47.5962" lon="-2.57003">
        <ele>31.2</ele>
        <time>2020-06-06T10:26:42Z</time>
      </trkpt>
      <trkpt lat="47.59622" lon="-2.57008">
        <ele>31.3</ele>
        <time>2020-06-06T10:26:43Z</time>
      </trkpt>
      <trkpt lat="47.59624" lon="-2.57013">
        <ele>31.4</ele>
        <time>2020-06-06T10:26:44Z</time>
      </trkpt>
      <trkpt lat="47.59626" lon="-2.57019">
        <ele>31.4</ele>
        <time>2020-06-06T10:26:45Z</time>
      </trkpt>
      <trkpt lat="47.59627" lon="-2.57024">
        <ele>31.5</ele>
        <time>2020-06-06T10:26:46Z</time>
      </trkpt>
      <trkpt lat="47.59629" lon="-2.5703">
        <ele>31.5</ele>
        <time>2020-06-06T10:26:47Z</time>
      </trkpt>
      <trkpt lat="47.5963" lon="-2.57034">
        <ele>31.4</ele>
        <time>2020-06-06T10:26:48Z</time>
      </trkpt>
      <trkpt lat="47.5963" lon="-2.57039">
        <ele>31.4</ele>
        <time>2020-06-06T10:26:49Z</time>
      </trkpt>
      <trkpt lat="47.59631" lon="-2.57044">
        <ele>31.2</ele>
        <time>2020-06-06T10:26:50Z</time>
      </trkpt>
      <trkpt lat="47.59632" lon="-2.57049">
        <ele>31.3</ele>
        <time>2020-06-06T10:26:51Z</time>
      </trkpt>
      <trkpt lat="47.59633" lon="-2.57055">
        <ele>31.5</ele>
        <time>2020-06-06T10:26:52Z</time>
      </trkpt>
      <trkpt lat="47.59634" lon="-2.5706">
        <ele>31.6</ele>
        <time>2020-06-06T10:26:53Z</time>
      </trkpt>
      <trkpt lat="47.59635" lon="-2.57064">
        <ele>31.7</ele>
        <time>2020-06-06T10:26:54Z</time>
      </trkpt>
      <trkpt lat="47.59636" lon="-2.57069">
        <ele>31.8</ele>
        <time>2020-06-06T10:26:55Z</time>
      </trkpt>
      <trkpt lat="47.59638" lon="-2.57074">
        <ele>32</ele>
        <time>2020-06-06T10:26:56Z</time>
      </trkpt>
      <trkpt lat="47.59639" lon="-2.5708">
        <ele>32.1</ele>
        <time>2020-06-06T10:26:57Z</time>
      </trkpt>
      <trkpt lat="47.5964" lon="-2.57084">
        <ele>32.2</ele>
        <time>2020-06-06T10:26:58Z</time>
      </trkpt>
      <trkpt lat="47.59641" lon="-2.5709">
        <ele>32.3</ele>
        <time>2020-06-06T10:26:59Z</time>
      </trkpt>
      <trkpt lat="47.59642" lon="-2.57095">
        <ele>32.4</ele>
        <time>2020-06-06T10:27:00Z</time>
      </trkpt>
      <trkpt lat="47.59643" lon="-2.57101">
        <ele>32.5</ele>
        <time>2020-06-06T10:27:01Z</time>
      </trkpt>
      <trkpt lat="47.59644" lon="-2.57106">
        <ele>32.6</ele>
        <time>2020-06-06T10:27:02Z</time>
      </trkpt>
      <trkpt lat="47.59645" lon="-2.57111">
        <ele>32.7</ele>
        <time>2020-06-06T10:27:03Z</time>
      </trkpt>
      <trkpt lat="47.59647" lon="-2.57115">
        <ele>32.7</ele>
        <time>2020-06-06T10:27:04Z</time>
      </trkpt>
      <trkpt lat="47.59647" lon="-2.57119">
        <ele>32.8</ele>
        <time>2020-06-06T10:27:05Z</time>
      </trkpt>
      <trkpt lat="47.59648" lon="-2.57125">
        <ele>32.9</ele>
        <time>2020-06-06T10:27:06Z</time>
      </trkpt>
      <trkpt lat="47.59648" lon="-2.57127">
        <ele>32.9</ele>
        <time>2020-06-06T10:27:07Z</time>
      </trkpt>
      <trkpt lat="47.59649" lon="-2.57132">
        <ele>33</ele>
        <time>2020-06-06T10:27:08Z</time>
      </trkpt>
      <trkpt lat="47.5965" lon="-2.57137">
        <ele>33.1</ele>
        <time>2020-06-06T10:27:09Z</time>
      </trkpt>
      <trkpt lat="47.59651" lon="-2.57141">
        <ele>33.2</ele>
        <time>2020-06-06T10:27:10Z</time>
      </trkpt>
      <trkpt lat="47.59652" lon="-2.57146">
        <ele>33.2</ele>
        <time>2020-06-06T10:27:11Z</time>
      </trkpt>
      <trkpt lat="47.59653" lon="-2.57151">
        <ele>33.3</ele>
        <time>2020-06-06T10:27:12Z</time>
      </trkpt>
      <trkpt lat="47.59654" lon="-2.57157">
        <ele>33.4</ele>
        <time>2020-06-06T10:27:13Z</time>
      </trkpt>
      <trkpt lat="47.59654" lon="-2.57163">
        <ele>33.5</ele>
        <time>2020-06-06T10:27:14Z</time>
      </trkpt>
      <trkpt lat="47.59654" lon="-2.57165">
        <ele>33.6</ele>
        <time>2020-06-06T10:27:15Z</time>
      </trkpt>
      <trkpt lat="47.59655" lon="-2.5717">
        <ele>33.6</ele>
        <time>2020-06-06T10:27:16Z</time>
      </trkpt>
      <trkpt lat="47.59655" lon="-2.57175">
        <ele>33.7</ele>
        <time>2020-06-06T10:27:17Z</time>
      </trkpt>
      <trkpt lat="47.59656" lon="-2.57181">
        <ele>33.8</ele>
        <time>2020-06-06T10:27:18Z</time>
      </trkpt>
      <trkpt lat="47.59656" lon="-2.57188">
        <ele>33.9</ele>
        <time>2020-06-06T10:27:19Z</time>
      </trkpt>
      <trkpt lat="47.59657" lon="-2.57193">
        <ele>34</ele>
        <time>2020-06-06T10:27:20Z</time>
      </trkpt>
      <trkpt lat="47.59658" lon="-2.57198">
        <ele>34.1</ele>
        <time>2020-06-06T10:27:21Z</time>
      </trkpt>
      <trkpt lat="47.59658" lon="-2.57203">
        <ele>34.1</ele>
        <time>2020-06-06T10:27:22Z</time>
      </trkpt>
      <trkpt lat="47.59659" lon="-2.5721">
        <ele>34.2</ele>
        <time>2020-06-06T10:27:23Z</time>
      </trkpt>
      <trkpt lat="47.5966" lon="-2.57216">
        <ele>34.4</ele>
        <time>2020-06-06T10:27:24Z</time>
      </trkpt>
      <trkpt lat="47.5966" lon="-2.57222">
        <ele>34.4</ele>
        <time>2020-06-06T10:27:25Z</time>
      </trkpt>
      <trkpt lat="47.5966" lon="-2.57227">
        <ele>34.5</ele>
        <time>2020-06-06T10:27:26Z</time>
      </trkpt>
      <trkpt lat="47.59661" lon="-2.57229">
        <ele>34.6</ele>
        <time>2020-06-06T10:27:27Z</time>
      </trkpt>
      <trkpt lat="47.59661" lon="-2.57235">
        <ele>34.6</ele>
        <time>2020-06-06T10:27:28Z</time>
      </trkpt>
      <trkpt lat="47.59662" lon="-2.57241">
        <ele>34.7</ele>
        <time>2020-06-06T10:27:29Z</time>
      </trkpt>
      <trkpt lat="47.59663" lon="-2.57248">
        <ele>34.8</ele>
        <time>2020-06-06T10:27:30Z</time>
      </trkpt>
      <trkpt lat="47.59664" lon="-2.57254">
        <ele>34.8</ele>
        <time>2020-06-06T10:27:31Z</time>
      </trkpt>
      <trkpt lat="47.59665" lon="-2.5726">
        <ele>34.9</ele>
        <time>2020-06-06T10:27:32Z</time>
      </trkpt>
      <trkpt lat="47.59666" lon="-2.57265">
        <ele>34.9</ele>
        <time>2020-06-06T10:27:33Z</time>
      </trkpt>
      <trkpt lat="47.59666" lon="-2.5727">
        <ele>35</ele>
        <time>2020-06-06T10:27:34Z</time>
      </trkpt>
      <trkpt lat="47.59667" lon="-2.57275">
        <ele>35.1</ele>
        <time>2020-06-06T10:27:35Z</time>
      </trkpt>
      <trkpt lat="47.59668" lon="-2.5728">
        <ele>35.1</ele>
        <time>2020-06-06T10:27:36Z</time>
      </trkpt>
      <trkpt lat="47.59669" lon="-2.57286">
        <ele>35.2</ele>
        <time>2020-06-06T10:27:37Z</time>
      </trkpt>
      <trkpt lat="47.5967" lon="-2.57291">
        <ele>35.2</ele>
        <time>2020-06-06T10:27:38Z</time>
      </trkpt>
      <trkpt lat="47.59671" lon="-2.57296">
        <ele>35.3</ele>
        <time>2020-06-06T10:27:39Z</time>
      </trkpt>
      <trkpt lat="47.59672" lon="-2.57303">
        <ele>35.3</ele>
        <time>2020-06-06T10:27:40Z</time>
      </trkpt>
      <trkpt lat="47.59672" lon="-2.57306">
        <ele>35.3</ele>
        <time>2020-06-06T10:27:41Z</time>
      </trkpt>
      <trkpt lat="47.59673" lon="-2.57312">
        <ele>35.3</ele>
        <time>2020-06-06T10:27:42Z</time>
      </trkpt>
      <trkpt lat="47.59673" lon="-2.57318">
        <ele>35.4</ele>
        <time>2020-06-06T10:27:43Z</time>
      </trkpt>
      <trkpt lat="47.59674" lon="-2.57324">
        <ele>35.4</ele>
        <time>2020-06-06T10:27:44Z</time>
      </trkpt>
      <trkpt lat="47.59675" lon="-2.57332">
        <ele>35.4</ele>
        <time>2020-06-06T10:27:45Z</time>
      </trkpt>
      <trkpt lat="47.59676" lon="-2.57337">
        <ele>35.5</ele>
        <time>2020-06-06T10:27:46Z</time>
      </trkpt>
      <trkpt lat="47.59677" lon="-2.57343">
        <ele>35.5</ele>
        <time>2020-06-06T10:27:47Z</time>
      </trkpt>
      <trkpt lat="47.59678" lon="-2.57348">
        <ele>35.5</ele>
        <time>2020-06-06T10:27:48Z</time>
      </trkpt>
      <trkpt lat="47.59679" lon="-2.57355">
        <ele>35.6</ele>
        <time>2020-06-06T10:27:49Z</time>
      </trkpt>
      <trkpt lat="47.59679" lon="-2.57362">
        <ele>35.6</ele>
        <time>2020-06-06T10:27:50Z</time>
      </trkpt>
      <trkpt lat="47.59681" lon="-2.57368">
        <ele>35.6</ele>
        <time>2020-06-06T10:27:51Z</time>
      </trkpt>
      <trkpt lat="47.59682" lon="-2.57374">
        <ele>35.7</ele>
        <time>2020-06-06T10:27:52Z</time>
      </trkpt>
      <trkpt lat="47.59683" lon="-2.5738">
        <ele>35.7</ele>
        <time>2020-06-06T10:27:53Z</time>
      </trkpt>
      <trkpt lat="47.59683" lon="-2.57385">
        <ele>35.7</ele>
        <time>2020-06-06T10:27:54Z</time>
      </trkpt>
      <trkpt lat="47.59683" lon="-2.57391">
        <ele>35.7</ele>
        <time>2020-06-06T10:27:55Z</time>
      </trkpt>
      <trkpt lat="47.59684" lon="-2.57396">
        <ele>35.7</ele>
        <time>2020-06-06T10:27:56Z</time>
      </trkpt>
      <trkpt lat="47.59684" lon="-2.57398">
        <ele>35.7</ele>
        <time>2020-06-06T10:27:57Z</time>
      </trkpt>
      <trkpt lat="47.59685" lon="-2.57404">
        <ele>35.7</ele>
        <time>2020-06-06T10:27:58Z</time>
      </trkpt>
      <trkpt lat="47.59686" lon="-2.57411">
        <ele>35.8</ele>
        <time>2020-06-06T10:27:59Z</time>
      </trkpt>
      <trkpt lat="47.59686" lon="-2.57417">
        <ele>35.8</ele>
        <time>2020-06-06T10:28:00Z</time>
      </trkpt>
      <trkpt lat="47.59687" lon="-2.57424">
        <ele>35.8</ele>
        <time>2020-06-06T10:28:01Z</time>
      </trkpt>
      <trkpt lat="47.59688" lon="-2.5743">
        <ele>35.8</ele>
        <time>2020-06-06T10:28:02Z</time>
      </trkpt>
      <trkpt lat="47.59689" lon="-2.57435">
        <ele>35.9</ele>
        <time>2020-06-06T10:28:03Z</time>
      </trkpt>
      <trkpt lat="47.5969" lon="-2.57442">
        <ele>35.9</ele>
        <time>2020-06-06T10:28:04Z</time>
      </trkpt>
      <trkpt lat="47.59692" lon="-2.57448">
        <ele>36</ele>
        <time>2020-06-06T10:28:05Z</time>
      </trkpt>
      <trkpt lat="47.59693" lon="-2.57454">
        <ele>36</ele>
        <time>2020-06-06T10:28:06Z</time>
      </trkpt>
      <trkpt lat="47.59694" lon="-2.57462">
        <ele>36.1</ele>
        <time>2020-06-06T10:28:07Z</time>
      </trkpt>
      <trkpt lat="47.59695" lon="-2.57467">
        <ele>36.1</ele>
        <time>2020-06-06T10:28:08Z</time>
      </trkpt>
      <trkpt lat="47.59697" lon="-2.57473">
        <ele>36.2</ele>
        <time>2020-06-06T10:28:09Z</time>
      </trkpt>
      <trkpt lat="47.59699" lon="-2.57479">
        <ele>36.2</ele>
        <time>2020-06-06T10:28:10Z</time>
      </trkpt>
      <trkpt lat="47.59701" lon="-2.57484">
        <ele>36.3</ele>
        <time>2020-06-06T10:28:11Z</time>
      </trkpt>
      <trkpt lat="47.59702" lon="-2.57489">
        <ele>36.3</ele>
        <time>2020-06-06T10:28:12Z</time>
      </trkpt>
      <trkpt lat="47.59704" lon="-2.57496">
        <ele>36.4</ele>
        <time>2020-06-06T10:28:13Z</time>
      </trkpt>
      <trkpt lat="47.59705" lon="-2.57501">
        <ele>36.4</ele>
        <time>2020-06-06T10:28:14Z</time>
      </trkpt>
      <trkpt lat="47.59706" lon="-2.57506">
        <ele>36.4</ele>
        <time>2020-06-06T10:28:15Z</time>
      </trkpt>
      <trkpt lat="47.59708" lon="-2.57511">
        <ele>36.5</ele>
        <time>2020-06-06T10:28:16Z</time>
      </trkpt>
      <trkpt lat="47.59711" lon="-2.57517">
        <ele>36.5</ele>
        <time>2020-06-06T10:28:17Z</time>
      </trkpt>
      <trkpt lat="47.59713" lon="-2.57523">
        <ele>36.6</ele>
        <time>2020-06-06T10:28:18Z</time>
      </trkpt>
      <trkpt lat="47.59715" lon="-2.57529">
        <ele>36.7</ele>
        <time>2020-06-06T10:28:19Z</time>
      </trkpt>
      <trkpt lat="47.59716" lon="-2.57534">
        <ele>36.7</ele>
        <time>2020-06-06T10:28:20Z</time>
      </trkpt>
      <trkpt lat="47.59718" lon="-2.5754">
        <ele>36.8</ele>
        <time>2020-06-06T10:28:21Z</time>
      </trkpt>
      <trkpt lat="47.5972" lon="-2.57546">
        <ele>36.8</ele>
        <time>2020-06-06T10:28:22Z</time>
      </trkpt>
      <trkpt lat="47.59722" lon="-2.57551">
        <ele>36.9</ele>
        <time>2020-06-06T10:28:23Z</time>
      </trkpt>
      <trkpt lat="47.59723" lon="-2.57557">
        <ele>36.9</ele>
        <time>2020-06-06T10:28:24Z</time>
      </trkpt>
      <trkpt lat="47.59724" lon="-2.57562">
        <ele>37</ele>
        <time>2020-06-06T10:28:25Z</time>
      </trkpt>
      <trkpt lat="47.59726" lon="-2.57567">
        <ele>37</ele>
        <time>2020-06-06T10:28:26Z</time>
      </trkpt>
      <trkpt lat="47.59727" lon="-2.57573">
        <ele>37</ele>
        <time>2020-06-06T10:28:27Z</time>
      </trkpt>
      <trkpt lat="47.59729" lon="-2.57579">
        <ele>37.1</ele>
        <time>2020-06-06T10:28:28Z</time>
      </trkpt>
      <trkpt lat="47.59732" lon="-2.57585">
        <ele>37.2</ele>
        <time>2020-06-06T10:28:29Z</time>
      </trkpt>
      <trkpt lat="47.59735" lon="-2.57592">
        <ele>37.2</ele>
        <time>2020-06-06T10:28:30Z</time>
      </trkpt>
      <trkpt lat="47.59736" lon="-2.57598">
        <ele>37.3</ele>
        <time>2020-06-06T10:28:31Z</time>
      </trkpt>
      <trkpt lat="47.59738" lon="-2.57603">
        <ele>37.3</ele>
        <time>2020-06-06T10:28:32Z</time>
      </trkpt>
      <trkpt lat="47.59739" lon="-2.57609">
        <ele>37.5</ele>
        <time>2020-06-06T10:28:33Z</time>
      </trkpt>
      <trkpt lat="47.5974" lon="-2.57613">
        <ele>37.6</ele>
        <time>2020-06-06T10:28:34Z</time>
      </trkpt>
      <trkpt lat="47.59741" lon="-2.57619">
        <ele>37.7</ele>
        <time>2020-06-06T10:28:35Z</time>
      </trkpt>
      <trkpt lat="47.59743" lon="-2.57624">
        <ele>37.8</ele>
        <time>2020-06-06T10:28:36Z</time>
      </trkpt>
      <trkpt lat="47.59744" lon="-2.57629">
        <ele>37.8</ele>
        <time>2020-06-06T10:28:37Z</time>
      </trkpt>
      <trkpt lat="47.59745" lon="-2.57633">
        <ele>37.9</ele>
        <time>2020-06-06T10:28:38Z</time>
      </trkpt>
      <trkpt lat="47.59747" lon="-2.57639">
        <ele>38</ele>
        <time>2020-06-06T10:28:39Z</time>
      </trkpt>
      <trkpt lat="47.59748" lon="-2.57642">
        <ele>38</ele>
        <time>2020-06-06T10:28:40Z</time>
      </trkpt>
      <trkpt lat="47.59749" lon="-2.57646">
        <ele>38.1</ele>
        <time>2020-06-06T10:28:41Z</time>
      </trkpt>
      <trkpt lat="47.5975" lon="-2.5765">
        <ele>38.1</ele>
        <time>2020-06-06T10:28:42Z</time>
      </trkpt>
      <trkpt lat="47.59751" lon="-2.57655">
        <ele>38.2</ele>
        <time>2020-06-06T10:28:43Z</time>
      </trkpt>
      <trkpt lat="47.59752" lon="-2.57661">
        <ele>38.2</ele>
        <time>2020-06-06T10:28:44Z</time>
      </trkpt>
      <trkpt lat="47.59754" lon="-2.57667">
        <ele>38.3</ele>
        <time>2020-06-06T10:28:45Z</time>
      </trkpt>
      <trkpt lat="47.59755" lon="-2.57673">
        <ele>38.4</ele>
        <time>2020-06-06T10:28:46Z</time>
      </trkpt>
      <trkpt lat="47.59757" lon="-2.57678">
        <ele>38.4</ele>
        <time>2020-06-06T10:28:47Z</time>
      </trkpt>
      <trkpt lat="47.59758" lon="-2.57683">
        <ele>38.5</ele>
        <time>2020-06-06T10:28:48Z</time>
      </trkpt>
      <trkpt lat="47.59759" lon="-2.57687">
        <ele>38.5</ele>
        <time>2020-06-06T10:28:49Z</time>
      </trkpt>
      <trkpt lat="47.5976" lon="-2.57692">
        <ele>38.5</ele>
        <time>2020-06-06T10:28:50Z</time>
      </trkpt>
      <trkpt lat="47.59761" lon="-2.57697">
        <ele>38.6</ele>
        <time>2020-06-06T10:28:51Z</time>
      </trkpt>
      <trkpt lat="47.59762" lon="-2.57703">
        <ele>38.6</ele>
        <time>2020-06-06T10:28:52Z</time>
      </trkpt>
      <trkpt lat="47.59764" lon="-2.5771">
        <ele>38.7</ele>
        <time>2020-06-06T10:28:53Z</time>
      </trkpt>
      <trkpt lat="47.59765" lon="-2.57715">
        <ele>38.7</ele>
        <time>2020-06-06T10:28:54Z</time>
      </trkpt>
      <trkpt lat="47.59767" lon="-2.57721">
        <ele>38.8</ele>
        <time>2020-06-06T10:28:55Z</time>
      </trkpt>
      <trkpt lat="47.59769" lon="-2.57726">
        <ele>38.8</ele>
        <time>2020-06-06T10:28:56Z</time>
      </trkpt>
      <trkpt lat="47.5977" lon="-2.57732">
        <ele>38.9</ele>
        <time>2020-06-06T10:28:57Z</time>
      </trkpt>
      <trkpt lat="47.59772" lon="-2.57737">
        <ele>39</ele>
        <time>2020-06-06T10:28:58Z</time>
      </trkpt>
      <trkpt lat="47.59774" lon="-2.57742">
        <ele>39</ele>
        <time>2020-06-06T10:28:59Z</time>
      </trkpt>
      <trkpt lat="47.59776" lon="-2.57747">
        <ele>39.1</ele>
        <time>2020-06-06T10:29:00Z</time>
      </trkpt>
      <trkpt lat="47.59778" lon="-2.57751">
        <ele>39.1</ele>
        <time>2020-06-06T10:29:01Z</time>
      </trkpt>
      <trkpt lat="47.59781" lon="-2.57755">
        <ele>39.2</ele>
        <time>2020-06-06T10:29:02Z</time>
      </trkpt>
      <trkpt lat="47.59783" lon="-2.5776">
        <ele>39.2</ele>
        <time>2020-06-06T10:29:03Z</time>
      </trkpt>
      <trkpt lat="47.59785" lon="-2.57765">
        <ele>39.3</ele>
        <time>2020-06-06T10:29:04Z</time>
      </trkpt>
      <trkpt lat="47.59788" lon="-2.57771">
        <ele>39.4</ele>
        <time>2020-06-06T10:29:05Z</time>
      </trkpt>
      <trkpt lat="47.5979" lon="-2.57776">
        <ele>39.5</ele>
        <time>2020-06-06T10:29:06Z</time>
      </trkpt>
      <trkpt lat="47.59792" lon="-2.57779">
        <ele>39.6</ele>
        <time>2020-06-06T10:29:07Z</time>
      </trkpt>
      <trkpt lat="47.59795" lon="-2.57784">
        <ele>39.6</ele>
        <time>2020-06-06T10:29:08Z</time>
      </trkpt>
      <trkpt lat="47.59798" lon="-2.5779">
        <ele>39.7</ele>
        <time>2020-06-06T10:29:09Z</time>
      </trkpt>
      <trkpt lat="47.598" lon="-2.57794">
        <ele>39.8</ele>
        <time>2020-06-06T10:29:10Z</time>
      </trkpt>
      <trkpt lat="47.59802" lon="-2.57797">
        <ele>39.8</ele>
        <time>2020-06-06T10:29:11Z</time>
      </trkpt>
      <trkpt lat="47.59804" lon="-2.57801">
        <ele>39.9</ele>
        <time>2020-06-06T10:29:12Z</time>
      </trkpt>
      <trkpt lat="47.59806" lon="-2.57805">
        <ele>39.9</ele>
        <time>2020-06-06T10:29:13Z</time>
      </trkpt>
      <trkpt lat="47.59807" lon="-2.57811">
        <ele>40</ele>
        <time>2020-06-06T10:29:14Z</time>
      </trkpt>
      <trkpt lat="47.59809" lon="-2.57816">
        <ele>40</ele>
        <time>2020-06-06T10:29:15Z</time>
      </trkpt>
      <trkpt lat="47.59811" lon="-2.5782">
        <ele>40.1</ele>
        <time>2020-06-06T10:29:16Z</time>
      </trkpt>
      <trkpt lat="47.59812" lon="-2.57825">
        <ele>40.1</ele>
        <time>2020-06-06T10:29:17Z</time>
      </trkpt>
      <trkpt lat="47.59814" lon="-2.5783">
        <ele>40.2</ele>
        <time>2020-06-06T10:29:18Z</time>
      </trkpt>
      <trkpt lat="47.59816" lon="-2.57837">
        <ele>40.2</ele>
        <time>2020-06-06T10:29:19Z</time>
      </trkpt>
      <trkpt lat="47.59818" lon="-2.57842">
        <ele>40.3</ele>
        <time>2020-06-06T10:29:20Z</time>
      </trkpt>
      <trkpt lat="47.5982" lon="-2.57847">
        <ele>40.3</ele>
        <time>2020-06-06T10:29:21Z</time>
      </trkpt>
      <trkpt lat="47.59821" lon="-2.57853">
        <ele>40.4</ele>
        <time>2020-06-06T10:29:22Z</time>
      </trkpt>
      <trkpt lat="47.59822" lon="-2.57857">
        <ele>40.4</ele>
        <time>2020-06-06T10:29:23Z</time>
      </trkpt>
      <trkpt lat="47.59824" lon="-2.57863">
        <ele>40.4</ele>
        <time>2020-06-06T10:29:24Z</time>
      </trkpt>
      <trkpt lat="47.59825" lon="-2.57866">
        <ele>40.5</ele>
        <time>2020-06-06T10:29:25Z</time>
      </trkpt>
      <trkpt lat="47.59827" lon="-2.57871">
        <ele>40.5</ele>
        <time>2020-06-06T10:29:26Z</time>
      </trkpt>
      <trkpt lat="47.59829" lon="-2.57876">
        <ele>40.5</ele>
        <time>2020-06-06T10:29:27Z</time>
      </trkpt>
      <trkpt lat="47.59831" lon="-2.57881">
        <ele>40.5</ele>
        <time>2020-06-06T10:29:28Z</time>
      </trkpt>
      <trkpt lat="47.59833" lon="-2.57885">
        <ele>40.6</ele>
        <time>2020-06-06T10:29:29Z</time>
      </trkpt>
      <trkpt lat="47.59836" lon="-2.57889">
        <ele>40.6</ele>
        <time>2020-06-06T10:29:30Z</time>
      </trkpt>
      <trkpt lat="47.59837" lon="-2.5789">
        <ele>40.6</ele>
        <time>2020-06-06T10:29:31Z</time>
      </trkpt>
      <trkpt lat="47.5984" lon="-2.57894">
        <ele>40.6</ele>
        <time>2020-06-06T10:29:32Z</time>
      </trkpt>
      <trkpt lat="47.59842" lon="-2.57898">
        <ele>40.7</ele>
        <time>2020-06-06T10:29:33Z</time>
      </trkpt>
      <trkpt lat="47.59843" lon="-2.57903">
        <ele>40.7</ele>
        <time>2020-06-06T10:29:34Z</time>
      </trkpt>
      <trkpt lat="47.59845" lon="-2.57908">
        <ele>40.7</ele>
        <time>2020-06-06T10:29:35Z</time>
      </trkpt>
      <trkpt lat="47.59846" lon="-2.57912">
        <ele>40.7</ele>
        <time>2020-06-06T10:29:36Z</time>
      </trkpt>
      <trkpt lat="47.59848" lon="-2.57915">
        <ele>40.8</ele>
        <time>2020-06-06T10:29:37Z</time>
      </trkpt>
      <trkpt lat="47.5985" lon="-2.57921">
        <ele>40.8</ele>
        <time>2020-06-06T10:29:38Z</time>
      </trkpt>
      <trkpt lat="47.59852" lon="-2.57925">
        <ele>40.9</ele>
        <time>2020-06-06T10:29:39Z</time>
      </trkpt>
      <trkpt lat="47.59853" lon="-2.57931">
        <ele>40.9</ele>
        <time>2020-06-06T10:29:40Z</time>
      </trkpt>
      <trkpt lat="47.59855" lon="-2.57935">
        <ele>41</ele>
        <time>2020-06-06T10:29:41Z</time>
      </trkpt>
      <trkpt lat="47.59857" lon="-2.57941">
        <ele>41</ele>
        <time>2020-06-06T10:29:42Z</time>
      </trkpt>
      <trkpt lat="47.59859" lon="-2.57947">
        <ele>41</ele>
        <time>2020-06-06T10:29:43Z</time>
      </trkpt>
      <trkpt lat="47.59862" lon="-2.57952">
        <ele>41</ele>
        <time>2020-06-06T10:29:44Z</time>
      </trkpt>
      <trkpt lat="47.59864" lon="-2.57957">
        <ele>41.1</ele>
        <time>2020-06-06T10:29:45Z</time>
      </trkpt>
      <trkpt lat="47.59866" lon="-2.57962">
        <ele>41.1</ele>
        <time>2020-06-06T10:29:46Z</time>
      </trkpt>
      <trkpt lat="47.59867" lon="-2.57966">
        <ele>41.1</ele>
        <time>2020-06-06T10:29:47Z</time>
      </trkpt>
      <trkpt lat="47.59869" lon="-2.57972">
        <ele>41.1</ele>
        <time>2020-06-06T10:29:48Z</time>
      </trkpt>
      <trkpt lat="47.59871" lon="-2.57977">
        <ele>41.1</ele>
        <time>2020-06-06T10:29:49Z</time>
      </trkpt>
      <trkpt lat="47.59873" lon="-2.57983">
        <ele>41.1</ele>
        <time>2020-06-06T10:29:50Z</time>
      </trkpt>
      <trkpt lat="47.59875" lon="-2.57989">
        <ele>41.1</ele>
        <time>2020-06-06T10:29:51Z</time>
      </trkpt>
      <trkpt lat="47.59877" lon="-2.57994">
        <ele>41.1</ele>
        <time>2020-06-06T10:29:52Z</time>
      </trkpt>
      <trkpt lat="47.59879" lon="-2.57998">
        <ele>41.1</ele>
        <time>2020-06-06T10:29:53Z</time>
      </trkpt>
      <trkpt lat="47.5988" lon="-2.58003">
        <ele>41.1</ele>
        <time>2020-06-06T10:29:54Z</time>
      </trkpt>
      <trkpt lat="47.59882" lon="-2.58007">
        <ele>41.1</ele>
        <time>2020-06-06T10:29:55Z</time>
      </trkpt>
      <trkpt lat="47.59884" lon="-2.58011">
        <ele>41.1</ele>
        <time>2020-06-06T10:29:56Z</time>
      </trkpt>
      <trkpt lat="47.59887" lon="-2.58017">
        <ele>41.1</ele>
        <time>2020-06-06T10:29:57Z</time>
      </trkpt>
      <trkpt lat="47.59889" lon="-2.58022">
        <ele>41.1</ele>
        <time>2020-06-06T10:29:58Z</time>
      </trkpt>
      <trkpt lat="47.59891" lon="-2.58027">
        <ele>41.1</ele>
        <time>2020-06-06T10:29:59Z</time>
      </trkpt>
      <trkpt lat="47.59894" lon="-2.58031">
        <ele>41.1</ele>
        <time>2020-06-06T10:30:00Z</time>
      </trkpt>
      <trkpt lat="47.59896" lon="-2.58038">
        <ele>41.1</ele>
        <time>2020-06-06T10:30:01Z</time>
      </trkpt>
      <trkpt lat="47.59898" lon="-2.58043">
        <ele>41.1</ele>
        <time>2020-06-06T10:30:02Z</time>
      </trkpt>
      <trkpt lat="47.59899" lon="-2.58048">
        <ele>41.1</ele>
        <time>2020-06-06T10:30:03Z</time>
      </trkpt>
      <trkpt lat="47.59901" lon="-2.58053">
        <ele>41.1</ele>
        <time>2020-06-06T10:30:04Z</time>
      </trkpt>
      <trkpt lat="47.59904" lon="-2.58058">
        <ele>41.1</ele>
        <time>2020-06-06T10:30:05Z</time>
      </trkpt>
      <trkpt lat="47.59906" lon="-2.58062">
        <ele>41.1</ele>
        <time>2020-06-06T10:30:06Z</time>
      </trkpt>
      <trkpt lat="47.59908" lon="-2.58067">
        <ele>41.1</ele>
        <time>2020-06-06T10:30:07Z</time>
      </trkpt>
      <trkpt lat="47.5991" lon="-2.58073">
        <ele>41.2</ele>
        <time>2020-06-06T10:30:08Z</time>
      </trkpt>
      <trkpt lat="47.59912" lon="-2.58078">
        <ele>41.2</ele>
        <time>2020-06-06T10:30:09Z</time>
      </trkpt>
      <trkpt lat="47.59914" lon="-2.58083">
        <ele>41.2</ele>
        <time>2020-06-06T10:30:10Z</time>
      </trkpt>
      <trkpt lat="47.59916" lon="-2.58088">
        <ele>41.2</ele>
        <time>2020-06-06T10:30:11Z</time>
      </trkpt>
      <trkpt lat="47.59918" lon="-2.58092">
        <ele>41.2</ele>
        <time>2020-06-06T10:30:12Z</time>
      </trkpt>
      <trkpt lat="47.59919" lon="-2.58098">
        <ele>41.3</ele>
        <time>2020-06-06T10:30:13Z</time>
      </trkpt>
      <trkpt lat="47.59921" lon="-2.58102">
        <ele>41.3</ele>
        <time>2020-06-06T10:30:14Z</time>
      </trkpt>
      <trkpt lat="47.59923" lon="-2.58107">
        <ele>41.3</ele>
        <time>2020-06-06T10:30:15Z</time>
      </trkpt>
      <trkpt lat="47.59926" lon="-2.58112">
        <ele>41.3</ele>
        <time>2020-06-06T10:30:16Z</time>
      </trkpt>
      <trkpt lat="47.59927" lon="-2.58116">
        <ele>41.3</ele>
        <time>2020-06-06T10:30:17Z</time>
      </trkpt>
      <trkpt lat="47.5993" lon="-2.58121">
        <ele>41.3</ele>
        <time>2020-06-06T10:30:18Z</time>
      </trkpt>
      <trkpt lat="47.59934" lon="-2.58126">
        <ele>41.3</ele>
        <time>2020-06-06T10:30:19Z</time>
      </trkpt>
      <trkpt lat="47.59936" lon="-2.58132">
        <ele>41.3</ele>
        <time>2020-06-06T10:30:20Z</time>
      </trkpt>
      <trkpt lat="47.59939" lon="-2.58137">
        <ele>41.3</ele>
        <time>2020-06-06T10:30:21Z</time>
      </trkpt>
      <trkpt lat="47.59942" lon="-2.58141">
        <ele>41.3</ele>
        <time>2020-06-06T10:30:22Z</time>
      </trkpt>
      <trkpt lat="47.59944" lon="-2.58145">
        <ele>41.3</ele>
        <time>2020-06-06T10:30:23Z</time>
      </trkpt>
      <trkpt lat="47.59947" lon="-2.58148">
        <ele>41.3</ele>
        <time>2020-06-06T10:30:24Z</time>
      </trkpt>
      <trkpt lat="47.59949" lon="-2.58153">
        <ele>41.3</ele>
        <time>2020-06-06T10:30:25Z</time>
      </trkpt>
      <trkpt lat="47.59951" lon="-2.58155">
        <ele>41.3</ele>
        <time>2020-06-06T10:30:26Z</time>
      </trkpt>
      <trkpt lat="47.59954" lon="-2.58159">
        <ele>41.3</ele>
        <time>2020-06-06T10:30:27Z</time>
      </trkpt>
      <trkpt lat="47.59956" lon="-2.58163">
        <ele>41.3</ele>
        <time>2020-06-06T10:30:28Z</time>
      </trkpt>
      <trkpt lat="47.59959" lon="-2.58166">
        <ele>41.4</ele>
        <time>2020-06-06T10:30:29Z</time>
      </trkpt>
      <trkpt lat="47.59962" lon="-2.5817">
        <ele>41.4</ele>
        <time>2020-06-06T10:30:30Z</time>
      </trkpt>
      <trkpt lat="47.59965" lon="-2.58173">
        <ele>41.4</ele>
        <time>2020-06-06T10:30:31Z</time>
      </trkpt>
      <trkpt lat="47.59967" lon="-2.58176">
        <ele>41.4</ele>
        <time>2020-06-06T10:30:32Z</time>
      </trkpt>
      <trkpt lat="47.59971" lon="-2.58179">
        <ele>41.4</ele>
        <time>2020-06-06T10:30:33Z</time>
      </trkpt>
      <trkpt lat="47.59972" lon="-2.58181">
        <ele>41.4</ele>
        <time>2020-06-06T10:30:34Z</time>
      </trkpt>
      <trkpt lat="47.59974" lon="-2.58183">
        <ele>41.4</ele>
        <time>2020-06-06T10:30:35Z</time>
      </trkpt>
      <trkpt lat="47.59977" lon="-2.58185">
        <ele>41.4</ele>
        <time>2020-06-06T10:30:36Z</time>
      </trkpt>
      <trkpt lat="47.5998" lon="-2.58187">
        <ele>41.4</ele>
        <time>2020-06-06T10:30:37Z</time>
      </trkpt>
      <trkpt lat="47.59981" lon="-2.58187">
        <ele>41.4</ele>
        <time>2020-06-06T10:30:38Z</time>
      </trkpt>
      <trkpt lat="47.59982" lon="-2.58187">
        <ele>41.4</ele>
        <time>2020-06-06T10:30:39Z</time>
      </trkpt>
      <trkpt lat="47.59983" lon="-2.58187">
        <ele>41.4</ele>
        <time>2020-06-06T10:30:40Z</time>
      </trkpt>
      <trkpt lat="47.59983" lon="-2.58187">
        <ele>41.4</ele>
        <time>2020-06-06T10:30:41Z</time>
      </trkpt>
      <trkpt lat="47.59983" lon="-2.58187">
        <ele>41.4</ele>
        <time>2020-06-06T10:30:42Z</time>
      </trkpt>
      <trkpt lat="47.59984" lon="-2.58187">
        <ele>41.4</ele>
        <time>2020-06-06T10:30:43Z</time>
      </trkpt>
      <trkpt lat="47.59984" lon="-2.58187">
        <ele>41.4</ele>
        <time>2020-06-06T10:30:44Z</time>
      </trkpt>
      <trkpt lat="47.59984" lon="-2.58187">
        <ele>41.4</ele>
        <time>2020-06-06T10:30:45Z</time>
      </trkpt>
      <trkpt lat="47.59984" lon="-2.58187">
        <ele>41.4</ele>
        <time>2020-06-06T10:30:46Z</time>
      </trkpt>
      <trkpt lat="47.59984" lon="-2.58187">
        <ele>41.4</ele>
        <time>2020-06-06T10:30:47Z</time>
      </trkpt>
      <trkpt lat="47.59984" lon="-2.58187">
        <ele>41.4</ele>
        <time>2020-06-06T10:30:48Z</time>
      </trkpt>
      <trkpt lat="47.59984" lon="-2.58186">
        <ele>41.4</ele>
        <time>2020-06-06T10:30:49Z</time>
      </trkpt>
      <trkpt lat="47.59984" lon="-2.58186">
        <ele>41.4</ele>
        <time>2020-06-06T10:30:50Z</time>
      </trkpt>
      <trkpt lat="47.59988" lon="-2.58191">
        <ele>41.4</ele>
        <time>2020-06-06T10:40:31Z</time>
      </trkpt>
      <trkpt lat="47.5999" lon="-2.58191">
        <ele>41.4</ele>
        <time>2020-06-06T10:40:32Z</time>
      </trkpt>
      <trkpt lat="47.59993" lon="-2.58193">
        <ele>41.3</ele>
        <time>2020-06-06T10:40:33Z</time>
      </trkpt>
      <trkpt lat="47.59995" lon="-2.58196">
        <ele>41.3</ele>
        <time>2020-06-06T10:40:34Z</time>
      </trkpt>
      <trkpt lat="47.59997" lon="-2.58199">
        <ele>41.3</ele>
        <time>2020-06-06T10:40:35Z</time>
      </trkpt>
      <trkpt lat="47.60001" lon="-2.58203">
        <ele>41.2</ele>
        <time>2020-06-06T10:40:36Z</time>
      </trkpt>
      <trkpt lat="47.60003" lon="-2.58206">
        <ele>41.2</ele>
        <time>2020-06-06T10:40:37Z</time>
      </trkpt>
      <trkpt lat="47.60006" lon="-2.58209">
        <ele>41.1</ele>
        <time>2020-06-06T10:40:38Z</time>
      </trkpt>
      <trkpt lat="47.6001" lon="-2.58212">
        <ele>41.1</ele>
        <time>2020-06-06T10:40:39Z</time>
      </trkpt>
      <trkpt lat="47.60013" lon="-2.58214">
        <ele>41</ele>
        <time>2020-06-06T10:40:40Z</time>
      </trkpt>
      <trkpt lat="47.60016" lon="-2.58216">
        <ele>41</ele>
        <time>2020-06-06T10:40:41Z</time>
      </trkpt>
      <trkpt lat="47.6002" lon="-2.58218">
        <ele>40.9</ele>
        <time>2020-06-06T10:40:42Z</time>
      </trkpt>
      <trkpt lat="47.60025" lon="-2.5822">
        <ele>40.9</ele>
        <time>2020-06-06T10:40:43Z</time>
      </trkpt>
      <trkpt lat="47.60028" lon="-2.58221">
        <ele>40.9</ele>
        <time>2020-06-06T10:40:44Z</time>
      </trkpt>
      <trkpt lat="47.60031" lon="-2.58223">
        <ele>40.8</ele>
        <time>2020-06-06T10:40:45Z</time>
      </trkpt>
      <trkpt lat="47.60035" lon="-2.58223">
        <ele>40.8</ele>
        <time>2020-06-06T10:40:46Z</time>
      </trkpt>
      <trkpt lat="47.60039" lon="-2.58225">
        <ele>40.8</ele>
        <time>2020-06-06T10:40:47Z</time>
      </trkpt>
      <trkpt lat="47.60043" lon="-2.58228">
        <ele>40.8</ele>
        <time>2020-06-06T10:40:48Z</time>
      </trkpt>
      <trkpt lat="47.60048" lon="-2.58231">
        <ele>40.7</ele>
        <time>2020-06-06T10:40:49Z</time>
      </trkpt>
      <trkpt lat="47.60052" lon="-2.58232">
        <ele>40.7</ele>
        <time>2020-06-06T10:40:50Z</time>
      </trkpt>
      <trkpt lat="47.60057" lon="-2.58233">
        <ele>40.7</ele>
        <time>2020-06-06T10:40:51Z</time>
      </trkpt>
      <trkpt lat="47.60062" lon="-2.58235">
        <ele>40.7</ele>
        <time>2020-06-06T10:40:52Z</time>
      </trkpt>
      <trkpt lat="47.60065" lon="-2.58235">
        <ele>40.7</ele>
        <time>2020-06-06T10:40:53Z</time>
      </trkpt>
      <trkpt lat="47.60069" lon="-2.58237">
        <ele>40.7</ele>
        <time>2020-06-06T10:40:54Z</time>
      </trkpt>
      <trkpt lat="47.60073" lon="-2.5824">
        <ele>40.7</ele>
        <time>2020-06-06T10:40:55Z</time>
      </trkpt>
      <trkpt lat="47.60076" lon="-2.58243">
        <ele>40.7</ele>
        <time>2020-06-06T10:40:56Z</time>
      </trkpt>
      <trkpt lat="47.60079" lon="-2.58246">
        <ele>40.6</ele>
        <time>2020-06-06T10:40:57Z</time>
      </trkpt>
      <trkpt lat="47.60081" lon="-2.58247">
        <ele>40.6</ele>
        <time>2020-06-06T10:40:58Z</time>
      </trkpt>
      <trkpt lat="47.60085" lon="-2.58248">
        <ele>40.6</ele>
        <time>2020-06-06T10:40:59Z</time>
      </trkpt>
      <trkpt lat="47.60089" lon="-2.58251">
        <ele>40.6</ele>
        <time>2020-06-06T10:41:00Z</time>
      </trkpt>
      <trkpt lat="47.60093" lon="-2.58254">
        <ele>40.6</ele>
        <time>2020-06-06T10:41:01Z</time>
      </trkpt>
      <trkpt lat="47.60097" lon="-2.58255">
        <ele>40.5</ele>
        <time>2020-06-06T10:41:02Z</time>
      </trkpt>
      <trkpt lat="47.60102" lon="-2.58257">
        <ele>40.5</ele>
        <time>2020-06-06T10:41:03Z</time>
      </trkpt>
      <trkpt lat="47.60106" lon="-2.58258">
        <ele>40.5</ele>
        <time>2020-06-06T10:41:04Z</time>
      </trkpt>
      <trkpt lat="47.60111" lon="-2.58261">
        <ele>40.4</ele>
        <time>2020-06-06T10:41:05Z</time>
      </trkpt>
      <trkpt lat="47.60115" lon="-2.58265">
        <ele>40.4</ele>
        <time>2020-06-06T10:41:06Z</time>
      </trkpt>
      <trkpt lat="47.6012" lon="-2.58269">
        <ele>40.3</ele>
        <time>2020-06-06T10:41:07Z</time>
      </trkpt>
      <trkpt lat="47.60124" lon="-2.58273">
        <ele>40.2</ele>
        <time>2020-06-06T10:41:08Z</time>
      </trkpt>
      <trkpt lat="47.60128" lon="-2.58276">
        <ele>40.2</ele>
        <time>2020-06-06T10:41:09Z</time>
      </trkpt>
      <trkpt lat="47.60133" lon="-2.58281">
        <ele>40.1</ele>
        <time>2020-06-06T10:41:10Z</time>
      </trkpt>
      <trkpt lat="47.60137" lon="-2.58285">
        <ele>40.1</ele>
        <time>2020-06-06T10:41:11Z</time>
      </trkpt>
      <trkpt lat="47.60141" lon="-2.58289">
        <ele>40</ele>
        <time>2020-06-06T10:41:12Z</time>
      </trkpt>
      <trkpt lat="47.60146" lon="-2.58294">
        <ele>40</ele>
        <time>2020-06-06T10:41:13Z</time>
      </trkpt>
      <trkpt lat="47.6015" lon="-2.58301">
        <ele>39.9</ele>
        <time>2020-06-06T10:41:14Z</time>
      </trkpt>
      <trkpt lat="47.60153" lon="-2.58306">
        <ele>39.9</ele>
        <time>2020-06-06T10:41:15Z</time>
      </trkpt>
      <trkpt lat="47.60156" lon="-2.58311">
        <ele>39.8</ele>
        <time>2020-06-06T10:41:16Z</time>
      </trkpt>
      <trkpt lat="47.6016" lon="-2.58314">
        <ele>39.8</ele>
        <time>2020-06-06T10:41:17Z</time>
      </trkpt>
      <trkpt lat="47.60165" lon="-2.58319">
        <ele>39.7</ele>
        <time>2020-06-06T10:41:18Z</time>
      </trkpt>
      <trkpt lat="47.60168" lon="-2.58324">
        <ele>39.6</ele>
        <time>2020-06-06T10:41:19Z</time>
      </trkpt>
      <trkpt lat="47.60173" lon="-2.58328">
        <ele>39.5</ele>
        <time>2020-06-06T10:41:20Z</time>
      </trkpt>
      <trkpt lat="47.60177" lon="-2.58332">
        <ele>39.5</ele>
        <time>2020-06-06T10:41:21Z</time>
      </trkpt>
      <trkpt lat="47.6018" lon="-2.58337">
        <ele>39.4</ele>
        <time>2020-06-06T10:41:22Z</time>
      </trkpt>
      <trkpt lat="47.60184" lon="-2.58343">
        <ele>39.3</ele>
        <time>2020-06-06T10:41:23Z</time>
      </trkpt>
      <trkpt lat="47.60187" lon="-2.58348">
        <ele>39.2</ele>
        <time>2020-06-06T10:41:24Z</time>
      </trkpt>
      <trkpt lat="47.6019" lon="-2.58355">
        <ele>39.2</ele>
        <time>2020-06-06T10:41:25Z</time>
      </trkpt>
      <trkpt lat="47.60194" lon="-2.58361">
        <ele>39.2</ele>
        <time>2020-06-06T10:41:26Z</time>
      </trkpt>
      <trkpt lat="47.60198" lon="-2.58368">
        <ele>39.2</ele>
        <time>2020-06-06T10:41:27Z</time>
      </trkpt>
      <trkpt lat="47.60201" lon="-2.58373">
        <ele>39.2</ele>
        <time>2020-06-06T10:41:28Z</time>
      </trkpt>
      <trkpt lat="47.60205" lon="-2.58379">
        <ele>39.3</ele>
        <time>2020-06-06T10:41:29Z</time>
      </trkpt>
      <trkpt lat="47.60208" lon="-2.58386">
        <ele>39.3</ele>
        <time>2020-06-06T10:41:30Z</time>
      </trkpt>
      <trkpt lat="47.60211" lon="-2.58392">
        <ele>39.2</ele>
        <time>2020-06-06T10:41:31Z</time>
      </trkpt>
      <trkpt lat="47.60213" lon="-2.58398">
        <ele>39</ele>
        <time>2020-06-06T10:41:32Z</time>
      </trkpt>
      <trkpt lat="47.60215" lon="-2.58405">
        <ele>39</ele>
        <time>2020-06-06T10:41:33Z</time>
      </trkpt>
      <trkpt lat="47.60218" lon="-2.58411">
        <ele>39</ele>
        <time>2020-06-06T10:41:34Z</time>
      </trkpt>
      <trkpt lat="47.60222" lon="-2.58418">
        <ele>38.9</ele>
        <time>2020-06-06T10:41:35Z</time>
      </trkpt>
      <trkpt lat="47.60225" lon="-2.58426">
        <ele>38.9</ele>
        <time>2020-06-06T10:41:36Z</time>
      </trkpt>
      <trkpt lat="47.60228" lon="-2.58432">
        <ele>38.9</ele>
        <time>2020-06-06T10:41:37Z</time>
      </trkpt>
      <trkpt lat="47.60231" lon="-2.58438">
        <ele>39</ele>
        <time>2020-06-06T10:41:38Z</time>
      </trkpt>
      <trkpt lat="47.60233" lon="-2.58443">
        <ele>39</ele>
        <time>2020-06-06T10:41:39Z</time>
      </trkpt>
      <trkpt lat="47.60235" lon="-2.5845">
        <ele>39</ele>
        <time>2020-06-06T10:41:40Z</time>
      </trkpt>
      <trkpt lat="47.60238" lon="-2.58456">
        <ele>39</ele>
        <time>2020-06-06T10:41:41Z</time>
      </trkpt>
      <trkpt lat="47.60241" lon="-2.58463">
        <ele>39.1</ele>
        <time>2020-06-06T10:41:42Z</time>
      </trkpt>
      <trkpt lat="47.60243" lon="-2.5847">
        <ele>39.1</ele>
        <time>2020-06-06T10:41:43Z</time>
      </trkpt>
      <trkpt lat="47.60246" lon="-2.58477">
        <ele>39.1</ele>
        <time>2020-06-06T10:41:44Z</time>
      </trkpt>
      <trkpt lat="47.60249" lon="-2.58484">
        <ele>39.2</ele>
        <time>2020-06-06T10:41:45Z</time>
      </trkpt>
      <trkpt lat="47.60253" lon="-2.58491">
        <ele>39.2</ele>
        <time>2020-06-06T10:41:46Z</time>
      </trkpt>
      <trkpt lat="47.60256" lon="-2.58498">
        <ele>39.3</ele>
        <time>2020-06-06T10:41:47Z</time>
      </trkpt>
      <trkpt lat="47.60258" lon="-2.58505">
        <ele>39.3</ele>
        <time>2020-06-06T10:41:48Z</time>
      </trkpt>
      <trkpt lat="47.60261" lon="-2.58512">
        <ele>39.3</ele>
        <time>2020-06-06T10:41:49Z</time>
      </trkpt>
      <trkpt lat="47.60262" lon="-2.58519">
        <ele>39.4</ele>
        <time>2020-06-06T10:41:50Z</time>
      </trkpt>
      <trkpt lat="47.60265" lon="-2.58527">
        <ele>39.4</ele>
        <time>2020-06-06T10:41:51Z</time>
      </trkpt>
      <trkpt lat="47.60268" lon="-2.58534">
        <ele>39.5</ele>
        <time>2020-06-06T10:41:52Z</time>
      </trkpt>
      <trkpt lat="47.6027" lon="-2.58541">
        <ele>39.5</ele>
        <time>2020-06-06T10:41:53Z</time>
      </trkpt>
      <trkpt lat="47.60272" lon="-2.58548">
        <ele>39.6</ele>
        <time>2020-06-06T10:41:54Z</time>
      </trkpt>
      <trkpt lat="47.60273" lon="-2.58555">
        <ele>39.6</ele>
        <time>2020-06-06T10:41:55Z</time>
      </trkpt>
      <trkpt lat="47.60274" lon="-2.58562">
        <ele>39.6</ele>
        <time>2020-06-06T10:41:56Z</time>
      </trkpt>
      <trkpt lat="47.60276" lon="-2.58569">
        <ele>39.6</ele>
        <time>2020-06-06T10:41:57Z</time>
      </trkpt>
      <trkpt lat="47.60277" lon="-2.58577">
        <ele>39.5</ele>
        <time>2020-06-06T10:41:58Z</time>
      </trkpt>
      <trkpt lat="47.60279" lon="-2.58584">
        <ele>39.5</ele>
        <time>2020-06-06T10:41:59Z</time>
      </trkpt>
      <trkpt lat="47.60281" lon="-2.58591">
        <ele>39.5</ele>
        <time>2020-06-06T10:42:00Z</time>
      </trkpt>
      <trkpt lat="47.60281" lon="-2.58597">
        <ele>39.5</ele>
        <time>2020-06-06T10:42:01Z</time>
      </trkpt>
      <trkpt lat="47.60284" lon="-2.58603">
        <ele>39.4</ele>
        <time>2020-06-06T10:42:02Z</time>
      </trkpt>
      <trkpt lat="47.60285" lon="-2.58608">
        <ele>39.4</ele>
        <time>2020-06-06T10:42:03Z</time>
      </trkpt>
      <trkpt lat="47.60286" lon="-2.58614">
        <ele>39.4</ele>
        <time>2020-06-06T10:42:04Z</time>
      </trkpt>
      <trkpt lat="47.60288" lon="-2.58619">
        <ele>39.3</ele>
        <time>2020-06-06T10:42:05Z</time>
      </trkpt>
      <trkpt lat="47.6029" lon="-2.58626">
        <ele>39.3</ele>
        <time>2020-06-06T10:42:06Z</time>
      </trkpt>
      <trkpt lat="47.60291" lon="-2.58632">
        <ele>39.3</ele>
        <time>2020-06-06T10:42:07Z</time>
      </trkpt>
      <trkpt lat="47.60293" lon="-2.58638">
        <ele>39.2</ele>
        <time>2020-06-06T10:42:08Z</time>
      </trkpt>
      <trkpt lat="47.60294" lon="-2.58644">
        <ele>39.2</ele>
        <time>2020-06-06T10:42:09Z</time>
      </trkpt>
      <trkpt lat="47.60295" lon="-2.58652">
        <ele>39.1</ele>
        <time>2020-06-06T10:42:10Z</time>
      </trkpt>
      <trkpt lat="47.60296" lon="-2.58659">
        <ele>39.1</ele>
        <time>2020-06-06T10:42:11Z</time>
      </trkpt>
      <trkpt lat="47.60297" lon="-2.58665">
        <ele>39.1</ele>
        <time>2020-06-06T10:42:12Z</time>
      </trkpt>
      <trkpt lat="47.60299" lon="-2.58672">
        <ele>39.1</ele>
        <time>2020-06-06T10:42:13Z</time>
      </trkpt>
      <trkpt lat="47.603" lon="-2.58677">
        <ele>39.1</ele>
        <time>2020-06-06T10:42:14Z</time>
      </trkpt>
      <trkpt lat="47.60301" lon="-2.58683">
        <ele>39.1</ele>
        <time>2020-06-06T10:42:15Z</time>
      </trkpt>
      <trkpt lat="47.60303" lon="-2.58689">
        <ele>39.1</ele>
        <time>2020-06-06T10:42:16Z</time>
      </trkpt>
      <trkpt lat="47.60304" lon="-2.58695">
        <ele>39.1</ele>
        <time>2020-06-06T10:42:17Z</time>
      </trkpt>
      <trkpt lat="47.60306" lon="-2.58701">
        <ele>39.1</ele>
        <time>2020-06-06T10:42:18Z</time>
      </trkpt>
      <trkpt lat="47.60308" lon="-2.58708">
        <ele>39.1</ele>
        <time>2020-06-06T10:42:19Z</time>
      </trkpt>
      <trkpt lat="47.60309" lon="-2.58713">
        <ele>39.1</ele>
        <time>2020-06-06T10:42:20Z</time>
      </trkpt>
      <trkpt lat="47.60311" lon="-2.58719">
        <ele>39.1</ele>
        <time>2020-06-06T10:42:21Z</time>
      </trkpt>
      <trkpt lat="47.60313" lon="-2.58726">
        <ele>39.1</ele>
        <time>2020-06-06T10:42:22Z</time>
      </trkpt>
      <trkpt lat="47.60315" lon="-2.58732">
        <ele>39.1</ele>
        <time>2020-06-06T10:42:23Z</time>
      </trkpt>
      <trkpt lat="47.60316" lon="-2.5874">
        <ele>39.1</ele>
        <time>2020-06-06T10:42:24Z</time>
      </trkpt>
      <trkpt lat="47.60319" lon="-2.58747">
        <ele>39.1</ele>
        <time>2020-06-06T10:42:25Z</time>
      </trkpt>
      <trkpt lat="47.60321" lon="-2.58755">
        <ele>39.1</ele>
        <time>2020-06-06T10:42:26Z</time>
      </trkpt>
      <trkpt lat="47.60323" lon="-2.58763">
        <ele>39.1</ele>
        <time>2020-06-06T10:42:27Z</time>
      </trkpt>
      <trkpt lat="47.60325" lon="-2.58771">
        <ele>39.1</ele>
        <time>2020-06-06T10:42:28Z</time>
      </trkpt>
      <trkpt lat="47.60326" lon="-2.58777">
        <ele>39.1</ele>
        <time>2020-06-06T10:42:29Z</time>
      </trkpt>
      <trkpt lat="47.60328" lon="-2.58784">
        <ele>39.1</ele>
        <time>2020-06-06T10:42:30Z</time>
      </trkpt>
      <trkpt lat="47.60329" lon="-2.58791">
        <ele>39.1</ele>
        <time>2020-06-06T10:42:31Z</time>
      </trkpt>
      <trkpt lat="47.60331" lon="-2.58797">
        <ele>39.2</ele>
        <time>2020-06-06T10:42:32Z</time>
      </trkpt>
      <trkpt lat="47.60333" lon="-2.58803">
        <ele>39.2</ele>
        <time>2020-06-06T10:42:33Z</time>
      </trkpt>
      <trkpt lat="47.60335" lon="-2.5881">
        <ele>39.2</ele>
        <time>2020-06-06T10:42:34Z</time>
      </trkpt>
      <trkpt lat="47.60338" lon="-2.58817">
        <ele>39.2</ele>
        <time>2020-06-06T10:42:35Z</time>
      </trkpt>
      <trkpt lat="47.6034" lon="-2.58823">
        <ele>39.2</ele>
        <time>2020-06-06T10:42:36Z</time>
      </trkpt>
      <trkpt lat="47.60341" lon="-2.58828">
        <ele>39.2</ele>
        <time>2020-06-06T10:42:37Z</time>
      </trkpt>
      <trkpt lat="47.60343" lon="-2.58834">
        <ele>39.2</ele>
        <time>2020-06-06T10:42:38Z</time>
      </trkpt>
      <trkpt lat="47.60344" lon="-2.5884">
        <ele>39.2</ele>
        <time>2020-06-06T10:42:39Z</time>
      </trkpt>
      <trkpt lat="47.60346" lon="-2.58846">
        <ele>39.2</ele>
        <time>2020-06-06T10:42:40Z</time>
      </trkpt>
      <trkpt lat="47.60348" lon="-2.58853">
        <ele>39.2</ele>
        <time>2020-06-06T10:42:41Z</time>
      </trkpt>
      <trkpt lat="47.60349" lon="-2.58859">
        <ele>39.2</ele>
        <time>2020-06-06T10:42:42Z</time>
      </trkpt>
      <trkpt lat="47.60351" lon="-2.58865">
        <ele>39.2</ele>
        <time>2020-06-06T10:42:43Z</time>
      </trkpt>
      <trkpt lat="47.60354" lon="-2.58871">
        <ele>39.3</ele>
        <time>2020-06-06T10:42:44Z</time>
      </trkpt>
      <trkpt lat="47.60356" lon="-2.58877">
        <ele>39.3</ele>
        <time>2020-06-06T10:42:45Z</time>
      </trkpt>
      <trkpt lat="47.60357" lon="-2.58883">
        <ele>39.3</ele>
        <time>2020-06-06T10:42:46Z</time>
      </trkpt>
      <trkpt lat="47.60359" lon="-2.58889">
        <ele>39.3</ele>
        <time>2020-06-06T10:42:47Z</time>
      </trkpt>
      <trkpt lat="47.60361" lon="-2.58896">
        <ele>39.3</ele>
        <time>2020-06-06T10:42:48Z</time>
      </trkpt>
      <trkpt lat="47.60363" lon="-2.58903">
        <ele>39.3</ele>
        <time>2020-06-06T10:42:49Z</time>
      </trkpt>
      <trkpt lat="47.60364" lon="-2.5891">
        <ele>39.3</ele>
        <time>2020-06-06T10:42:50Z</time>
      </trkpt>
      <trkpt lat="47.60366" lon="-2.58917">
        <ele>39.2</ele>
        <time>2020-06-06T10:42:51Z</time>
      </trkpt>
      <trkpt lat="47.60369" lon="-2.58924">
        <ele>39.1</ele>
        <time>2020-06-06T10:42:52Z</time>
      </trkpt>
      <trkpt lat="47.60371" lon="-2.58931">
        <ele>39</ele>
        <time>2020-06-06T10:42:53Z</time>
      </trkpt>
      <trkpt lat="47.60373" lon="-2.58939">
        <ele>38.8</ele>
        <time>2020-06-06T10:42:54Z</time>
      </trkpt>
      <trkpt lat="47.60376" lon="-2.58946">
        <ele>38.7</ele>
        <time>2020-06-06T10:42:55Z</time>
      </trkpt>
      <trkpt lat="47.60378" lon="-2.58952">
        <ele>38.6</ele>
        <time>2020-06-06T10:42:56Z</time>
      </trkpt>
      <trkpt lat="47.60381" lon="-2.58959">
        <ele>38.4</ele>
        <time>2020-06-06T10:42:57Z</time>
      </trkpt>
      <trkpt lat="47.60383" lon="-2.58965">
        <ele>38.3</ele>
        <time>2020-06-06T10:42:58Z</time>
      </trkpt>
      <trkpt lat="47.60386" lon="-2.58972">
        <ele>38.2</ele>
        <time>2020-06-06T10:42:59Z</time>
      </trkpt>
      <trkpt lat="47.60388" lon="-2.58979">
        <ele>38</ele>
        <time>2020-06-06T10:43:00Z</time>
      </trkpt>
      <trkpt lat="47.6039" lon="-2.58987">
        <ele>37.8</ele>
        <time>2020-06-06T10:43:01Z</time>
      </trkpt>
      <trkpt lat="47.60392" lon="-2.58994">
        <ele>37.7</ele>
        <time>2020-06-06T10:43:02Z</time>
      </trkpt>
      <trkpt lat="47.60395" lon="-2.59001">
        <ele>37.5</ele>
        <time>2020-06-06T10:43:03Z</time>
      </trkpt>
      <trkpt lat="47.60397" lon="-2.59008">
        <ele>37.3</ele>
        <time>2020-06-06T10:43:04Z</time>
      </trkpt>
      <trkpt lat="47.60399" lon="-2.59015">
        <ele>37.2</ele>
        <time>2020-06-06T10:43:05Z</time>
      </trkpt>
      <trkpt lat="47.60401" lon="-2.59022">
        <ele>37</ele>
        <time>2020-06-06T10:43:06Z</time>
      </trkpt>
      <trkpt lat="47.60404" lon="-2.59029">
        <ele>36.9</ele>
        <time>2020-06-06T10:43:07Z</time>
      </trkpt>
      <trkpt lat="47.60407" lon="-2.59036">
        <ele>36.7</ele>
        <time>2020-06-06T10:43:08Z</time>
      </trkpt>
      <trkpt lat="47.60409" lon="-2.59043">
        <ele>36.6</ele>
        <time>2020-06-06T10:43:09Z</time>
      </trkpt>
      <trkpt lat="47.60411" lon="-2.59051">
        <ele>36.4</ele>
        <time>2020-06-06T10:43:10Z</time>
      </trkpt>
      <trkpt lat="47.60411" lon="-2.59059">
        <ele>36.2</ele>
        <time>2020-06-06T10:43:11Z</time>
      </trkpt>
      <trkpt lat="47.60412" lon="-2.59069">
        <ele>36.1</ele>
        <time>2020-06-06T10:43:12Z</time>
      </trkpt>
      <trkpt lat="47.60413" lon="-2.5908">
        <ele>35.9</ele>
        <time>2020-06-06T10:43:13Z</time>
      </trkpt>
      <trkpt lat="47.60413" lon="-2.59091">
        <ele>35.7</ele>
        <time>2020-06-06T10:43:14Z</time>
      </trkpt>
      <trkpt lat="47.60413" lon="-2.59102">
        <ele>35.5</ele>
        <time>2020-06-06T10:43:15Z</time>
      </trkpt>
      <trkpt lat="47.60413" lon="-2.59115">
        <ele>35.2</ele>
        <time>2020-06-06T10:43:16Z</time>
      </trkpt>
      <trkpt lat="47.60411" lon="-2.59125">
        <ele>35</ele>
        <time>2020-06-06T10:43:17Z</time>
      </trkpt>
      <trkpt lat="47.60412" lon="-2.59136">
        <ele>34.8</ele>
        <time>2020-06-06T10:43:18Z</time>
      </trkpt>
      <trkpt lat="47.60412" lon="-2.59149">
        <ele>34.6</ele>
        <time>2020-06-06T10:43:19Z</time>
      </trkpt>
      <trkpt lat="47.60411" lon="-2.59162">
        <ele>34.4</ele>
        <time>2020-06-06T10:43:20Z</time>
      </trkpt>
      <trkpt lat="47.60411" lon="-2.59176">
        <ele>34.2</ele>
        <time>2020-06-06T10:43:21Z</time>
      </trkpt>
      <trkpt lat="47.60411" lon="-2.5919">
        <ele>34</ele>
        <time>2020-06-06T10:43:22Z</time>
      </trkpt>
      <trkpt lat="47.60411" lon="-2.59203">
        <ele>33.7</ele>
        <time>2020-06-06T10:43:23Z</time>
      </trkpt>
      <trkpt lat="47.60411" lon="-2.59217">
        <ele>33.5</ele>
        <time>2020-06-06T10:43:24Z</time>
      </trkpt>
      <trkpt lat="47.60412" lon="-2.59231">
        <ele>33.2</ele>
        <time>2020-06-06T10:43:25Z</time>
      </trkpt>
      <trkpt lat="47.60412" lon="-2.59245">
        <ele>33.1</ele>
        <time>2020-06-06T10:43:26Z</time>
      </trkpt>
      <trkpt lat="47.60412" lon="-2.59259">
        <ele>32.9</ele>
        <time>2020-06-06T10:43:27Z</time>
      </trkpt>
      <trkpt lat="47.60412" lon="-2.59272">
        <ele>32.8</ele>
        <time>2020-06-06T10:43:28Z</time>
      </trkpt>
      <trkpt lat="47.60412" lon="-2.59284">
        <ele>32.6</ele>
        <time>2020-06-06T10:43:29Z</time>
      </trkpt>
      <trkpt lat="47.60412" lon="-2.59297">
        <ele>32.5</ele>
        <time>2020-06-06T10:43:30Z</time>
      </trkpt>
      <trkpt lat="47.60413" lon="-2.5931">
        <ele>32.4</ele>
        <time>2020-06-06T10:43:31Z</time>
      </trkpt>
      <trkpt lat="47.60414" lon="-2.59322">
        <ele>32.2</ele>
        <time>2020-06-06T10:43:32Z</time>
      </trkpt>
      <trkpt lat="47.60415" lon="-2.59334">
        <ele>32.1</ele>
        <time>2020-06-06T10:43:33Z</time>
      </trkpt>
      <trkpt lat="47.60416" lon="-2.59344">
        <ele>32</ele>
        <time>2020-06-06T10:43:34Z</time>
      </trkpt>
      <trkpt lat="47.60415" lon="-2.59355">
        <ele>31.8</ele>
        <time>2020-06-06T10:43:35Z</time>
      </trkpt>
      <trkpt lat="47.60414" lon="-2.59366">
        <ele>31.7</ele>
        <time>2020-06-06T10:43:36Z</time>
      </trkpt>
      <trkpt lat="47.60414" lon="-2.59376">
        <ele>31.5</ele>
        <time>2020-06-06T10:43:37Z</time>
      </trkpt>
      <trkpt lat="47.60414" lon="-2.59386">
        <ele>31.4</ele>
        <time>2020-06-06T10:43:38Z</time>
      </trkpt>
      <trkpt lat="47.60414" lon="-2.59395">
        <ele>31.3</ele>
        <time>2020-06-06T10:43:39Z</time>
      </trkpt>
      <trkpt lat="47.60413" lon="-2.59405">
        <ele>31.1</ele>
        <time>2020-06-06T10:43:40Z</time>
      </trkpt>
      <trkpt lat="47.60414" lon="-2.59414">
        <ele>30.9</ele>
        <time>2020-06-06T10:43:41Z</time>
      </trkpt>
      <trkpt lat="47.60414" lon="-2.59424">
        <ele>30.7</ele>
        <time>2020-06-06T10:43:42Z</time>
      </trkpt>
      <trkpt lat="47.60415" lon="-2.59434">
        <ele>30.5</ele>
        <time>2020-06-06T10:43:43Z</time>
      </trkpt>
      <trkpt lat="47.60417" lon="-2.59443">
        <ele>30.2</ele>
        <time>2020-06-06T10:43:44Z</time>
      </trkpt>
      <trkpt lat="47.6042" lon="-2.59452">
        <ele>29.9</ele>
        <time>2020-06-06T10:43:45Z</time>
      </trkpt>
      <trkpt lat="47.60422" lon="-2.5946">
        <ele>29.6</ele>
        <time>2020-06-06T10:43:46Z</time>
      </trkpt>
      <trkpt lat="47.60425" lon="-2.59468">
        <ele>29.4</ele>
        <time>2020-06-06T10:43:47Z</time>
      </trkpt>
      <trkpt lat="47.60428" lon="-2.59476">
        <ele>29.1</ele>
        <time>2020-06-06T10:43:48Z</time>
      </trkpt>
      <trkpt lat="47.6043" lon="-2.59484">
        <ele>28.8</ele>
        <time>2020-06-06T10:43:49Z</time>
      </trkpt>
      <trkpt lat="47.60433" lon="-2.59491">
        <ele>28.4</ele>
        <time>2020-06-06T10:43:50Z</time>
      </trkpt>
      <trkpt lat="47.60437" lon="-2.59498">
        <ele>28.1</ele>
        <time>2020-06-06T10:43:51Z</time>
      </trkpt>
      <trkpt lat="47.60441" lon="-2.59505">
        <ele>27.8</ele>
        <time>2020-06-06T10:43:52Z</time>
      </trkpt>
      <trkpt lat="47.60445" lon="-2.59514">
        <ele>27.4</ele>
        <time>2020-06-06T10:43:53Z</time>
      </trkpt>
      <trkpt lat="47.60448" lon="-2.59523">
        <ele>27.1</ele>
        <time>2020-06-06T10:43:54Z</time>
      </trkpt>
      <trkpt lat="47.60451" lon="-2.59533">
        <ele>26.7</ele>
        <time>2020-06-06T10:43:55Z</time>
      </trkpt>
      <trkpt lat="47.60454" lon="-2.59542">
        <ele>26.5</ele>
        <time>2020-06-06T10:43:56Z</time>
      </trkpt>
      <trkpt lat="47.60458" lon="-2.59551">
        <ele>26.1</ele>
        <time>2020-06-06T10:43:57Z</time>
      </trkpt>
      <trkpt lat="47.60462" lon="-2.59562">
        <ele>25.6</ele>
        <time>2020-06-06T10:43:58Z</time>
      </trkpt>
      <trkpt lat="47.60465" lon="-2.59572">
        <ele>25.2</ele>
        <time>2020-06-06T10:43:59Z</time>
      </trkpt>
      <trkpt lat="47.60469" lon="-2.59581">
        <ele>24.8</ele>
        <time>2020-06-06T10:44:00Z</time>
      </trkpt>
      <trkpt lat="47.60473" lon="-2.59592">
        <ele>24.4</ele>
        <time>2020-06-06T10:44:01Z</time>
      </trkpt>
      <trkpt lat="47.60476" lon="-2.59602">
        <ele>24</ele>
        <time>2020-06-06T10:44:02Z</time>
      </trkpt>
      <trkpt lat="47.6048" lon="-2.59612">
        <ele>23.7</ele>
        <time>2020-06-06T10:44:03Z</time>
      </trkpt>
      <trkpt lat="47.60484" lon="-2.59622">
        <ele>23.4</ele>
        <time>2020-06-06T10:44:04Z</time>
      </trkpt>
      <trkpt lat="47.60487" lon="-2.59632">
        <ele>23.1</ele>
        <time>2020-06-06T10:44:05Z</time>
      </trkpt>
      <trkpt lat="47.6049" lon="-2.59642">
        <ele>22.8</ele>
        <time>2020-06-06T10:44:06Z</time>
      </trkpt>
      <trkpt lat="47.60493" lon="-2.59653">
        <ele>22.5</ele>
        <time>2020-06-06T10:44:07Z</time>
      </trkpt>
      <trkpt lat="47.60496" lon="-2.59662">
        <ele>22.4</ele>
        <time>2020-06-06T10:44:08Z</time>
      </trkpt>
      <trkpt lat="47.60499" lon="-2.59672">
        <ele>22.2</ele>
        <time>2020-06-06T10:44:09Z</time>
      </trkpt>
      <trkpt lat="47.60502" lon="-2.59682">
        <ele>22.1</ele>
        <time>2020-06-06T10:44:10Z</time>
      </trkpt>
      <trkpt lat="47.60505" lon="-2.59692">
        <ele>22.1</ele>
        <time>2020-06-06T10:44:11Z</time>
      </trkpt>
      <trkpt lat="47.60507" lon="-2.59701">
        <ele>21.9</ele>
        <time>2020-06-06T10:44:12Z</time>
      </trkpt>
      <trkpt lat="47.6051" lon="-2.59711">
        <ele>21.7</ele>
        <time>2020-06-06T10:44:13Z</time>
      </trkpt>
      <trkpt lat="47.60512" lon="-2.5972">
        <ele>21.5</ele>
        <time>2020-06-06T10:44:14Z</time>
      </trkpt>
      <trkpt lat="47.60515" lon="-2.5973">
        <ele>21.3</ele>
        <time>2020-06-06T10:44:15Z</time>
      </trkpt>
      <trkpt lat="47.60517" lon="-2.59739">
        <ele>21.1</ele>
        <time>2020-06-06T10:44:16Z</time>
      </trkpt>
      <trkpt lat="47.6052" lon="-2.59748">
        <ele>20.9</ele>
        <time>2020-06-06T10:44:17Z</time>
      </trkpt>
      <trkpt lat="47.60523" lon="-2.59757">
        <ele>20.7</ele>
        <time>2020-06-06T10:44:18Z</time>
      </trkpt>
      <trkpt lat="47.60527" lon="-2.59766">
        <ele>20.5</ele>
        <time>2020-06-06T10:44:19Z</time>
      </trkpt>
      <trkpt lat="47.6053" lon="-2.59775">
        <ele>20.4</ele>
        <time>2020-06-06T10:44:20Z</time>
      </trkpt>
      <trkpt lat="47.60533" lon="-2.59784">
        <ele>20.2</ele>
        <time>2020-06-06T10:44:21Z</time>
      </trkpt>
      <trkpt lat="47.60537" lon="-2.59794">
        <ele>20.1</ele>
        <time>2020-06-06T10:44:22Z</time>
      </trkpt>
      <trkpt lat="47.60539" lon="-2.59804">
        <ele>20</ele>
        <time>2020-06-06T10:44:23Z</time>
      </trkpt>
      <trkpt lat="47.60542" lon="-2.59815">
        <ele>20</ele>
        <time>2020-06-06T10:44:24Z</time>
      </trkpt>
      <trkpt lat="47.60545" lon="-2.59825">
        <ele>19.9</ele>
        <time>2020-06-06T10:44:25Z</time>
      </trkpt>
      <trkpt lat="47.60548" lon="-2.59835">
        <ele>19.8</ele>
        <time>2020-06-06T10:44:26Z</time>
      </trkpt>
      <trkpt lat="47.60551" lon="-2.59845">
        <ele>19.6</ele>
        <time>2020-06-06T10:44:27Z</time>
      </trkpt>
      <trkpt lat="47.60554" lon="-2.59855">
        <ele>19.5</ele>
        <time>2020-06-06T10:44:28Z</time>
      </trkpt>
      <trkpt lat="47.60557" lon="-2.59866">
        <ele>19.4</ele>
        <time>2020-06-06T10:44:29Z</time>
      </trkpt>
      <trkpt lat="47.6056" lon="-2.59875">
        <ele>19.2</ele>
        <time>2020-06-06T10:44:30Z</time>
      </trkpt>
      <trkpt lat="47.60564" lon="-2.59884">
        <ele>19.1</ele>
        <time>2020-06-06T10:44:31Z</time>
      </trkpt>
      <trkpt lat="47.60567" lon="-2.59894">
        <ele>18.9</ele>
        <time>2020-06-06T10:44:32Z</time>
      </trkpt>
      <trkpt lat="47.6057" lon="-2.59904">
        <ele>18.7</ele>
        <time>2020-06-06T10:44:33Z</time>
      </trkpt>
      <trkpt lat="47.60573" lon="-2.59915">
        <ele>18.6</ele>
        <time>2020-06-06T10:44:34Z</time>
      </trkpt>
      <trkpt lat="47.60576" lon="-2.59925">
        <ele>18.5</ele>
        <time>2020-06-06T10:44:35Z</time>
      </trkpt>
      <trkpt lat="47.60579" lon="-2.59935">
        <ele>18.4</ele>
        <time>2020-06-06T10:44:36Z</time>
      </trkpt>
      <trkpt lat="47.60582" lon="-2.59945">
        <ele>18.3</ele>
        <time>2020-06-06T10:44:37Z</time>
      </trkpt>
      <trkpt lat="47.60586" lon="-2.59955">
        <ele>18.3</ele>
        <time>2020-06-06T10:44:38Z</time>
      </trkpt>
      <trkpt lat="47.60589" lon="-2.59965">
        <ele>18.2</ele>
        <time>2020-06-06T10:44:39Z</time>
      </trkpt>
      <trkpt lat="47.60593" lon="-2.59975">
        <ele>18.1</ele>
        <time>2020-06-06T10:44:40Z</time>
      </trkpt>
      <trkpt lat="47.60596" lon="-2.59985">
        <ele>18</ele>
        <time>2020-06-06T10:44:41Z</time>
      </trkpt>
      <trkpt lat="47.606" lon="-2.59995">
        <ele>17.9</ele>
        <time>2020-06-06T10:44:42Z</time>
      </trkpt>
      <trkpt lat="47.60603" lon="-2.60005">
        <ele>17.8</ele>
        <time>2020-06-06T10:44:43Z</time>
      </trkpt>
      <trkpt lat="47.60605" lon="-2.60016">
        <ele>17.7</ele>
        <time>2020-06-06T10:44:44Z</time>
      </trkpt>
      <trkpt lat="47.60608" lon="-2.60025">
        <ele>17.7</ele>
        <time>2020-06-06T10:44:45Z</time>
      </trkpt>
      <trkpt lat="47.60611" lon="-2.60035">
        <ele>17.6</ele>
        <time>2020-06-06T10:44:46Z</time>
      </trkpt>
      <trkpt lat="47.60615" lon="-2.60044">
        <ele>17.6</ele>
        <time>2020-06-06T10:44:47Z</time>
      </trkpt>
      <trkpt lat="47.60618" lon="-2.60054">
        <ele>17.5</ele>
        <time>2020-06-06T10:44:48Z</time>
      </trkpt>
      <trkpt lat="47.60621" lon="-2.60063">
        <ele>17.5</ele>
        <time>2020-06-06T10:44:49Z</time>
      </trkpt>
      <trkpt lat="47.60625" lon="-2.60073">
        <ele>17.4</ele>
        <time>2020-06-06T10:44:50Z</time>
      </trkpt>
      <trkpt lat="47.60628" lon="-2.60081">
        <ele>17.3</ele>
        <time>2020-06-06T10:44:51Z</time>
      </trkpt>
      <trkpt lat="47.60631" lon="-2.6009">
        <ele>17.3</ele>
        <time>2020-06-06T10:44:52Z</time>
      </trkpt>
      <trkpt lat="47.60633" lon="-2.60099">
        <ele>17.2</ele>
        <time>2020-06-06T10:44:53Z</time>
      </trkpt>
      <trkpt lat="47.60635" lon="-2.60108">
        <ele>17.1</ele>
        <time>2020-06-06T10:44:54Z</time>
      </trkpt>
      <trkpt lat="47.60636" lon="-2.60117">
        <ele>17.1</ele>
        <time>2020-06-06T10:44:55Z</time>
      </trkpt>
      <trkpt lat="47.60638" lon="-2.60125">
        <ele>17</ele>
        <time>2020-06-06T10:44:56Z</time>
      </trkpt>
      <trkpt lat="47.60641" lon="-2.60133">
        <ele>16.9</ele>
        <time>2020-06-06T10:44:57Z</time>
      </trkpt>
      <trkpt lat="47.60644" lon="-2.60141">
        <ele>16.9</ele>
        <time>2020-06-06T10:44:58Z</time>
      </trkpt>
      <trkpt lat="47.60647" lon="-2.60149">
        <ele>16.8</ele>
        <time>2020-06-06T10:44:59Z</time>
      </trkpt>
      <trkpt lat="47.6065" lon="-2.60157">
        <ele>16.8</ele>
        <time>2020-06-06T10:45:00Z</time>
      </trkpt>
      <trkpt lat="47.60652" lon="-2.60166">
        <ele>16.7</ele>
        <time>2020-06-06T10:45:01Z</time>
      </trkpt>
      <trkpt lat="47.60655" lon="-2.60174">
        <ele>16.6</ele>
        <time>2020-06-06T10:45:02Z</time>
      </trkpt>
      <trkpt lat="47.60657" lon="-2.60183">
        <ele>16.6</ele>
        <time>2020-06-06T10:45:03Z</time>
      </trkpt>
      <trkpt lat="47.6066" lon="-2.60192">
        <ele>16.6</ele>
        <time>2020-06-06T10:45:04Z</time>
      </trkpt>
      <trkpt lat="47.60664" lon="-2.602">
        <ele>16.5</ele>
        <time>2020-06-06T10:45:05Z</time>
      </trkpt>
      <trkpt lat="47.60667" lon="-2.60209">
        <ele>16.5</ele>
        <time>2020-06-06T10:45:06Z</time>
      </trkpt>
      <trkpt lat="47.60669" lon="-2.60218">
        <ele>16.4</ele>
        <time>2020-06-06T10:45:07Z</time>
      </trkpt>
      <trkpt lat="47.60672" lon="-2.60228">
        <ele>16.3</ele>
        <time>2020-06-06T10:45:08Z</time>
      </trkpt>
      <trkpt lat="47.60676" lon="-2.60237">
        <ele>16.2</ele>
        <time>2020-06-06T10:45:09Z</time>
      </trkpt>
      <trkpt lat="47.60679" lon="-2.60246">
        <ele>16.2</ele>
        <time>2020-06-06T10:45:10Z</time>
      </trkpt>
      <trkpt lat="47.60682" lon="-2.60255">
        <ele>16.1</ele>
        <time>2020-06-06T10:45:11Z</time>
      </trkpt>
      <trkpt lat="47.60685" lon="-2.60265">
        <ele>16.1</ele>
        <time>2020-06-06T10:45:12Z</time>
      </trkpt>
      <trkpt lat="47.60688" lon="-2.60274">
        <ele>16</ele>
        <time>2020-06-06T10:45:13Z</time>
      </trkpt>
      <trkpt lat="47.60691" lon="-2.60284">
        <ele>16</ele>
        <time>2020-06-06T10:45:14Z</time>
      </trkpt>
      <trkpt lat="47.60693" lon="-2.60294">
        <ele>15.9</ele>
        <time>2020-06-06T10:45:15Z</time>
      </trkpt>
      <trkpt lat="47.60696" lon="-2.60304">
        <ele>15.9</ele>
        <time>2020-06-06T10:45:16Z</time>
      </trkpt>
      <trkpt lat="47.60699" lon="-2.60314">
        <ele>15.9</ele>
        <time>2020-06-06T10:45:17Z</time>
      </trkpt>
      <trkpt lat="47.60702" lon="-2.60323">
        <ele>15.9</ele>
        <time>2020-06-06T10:45:18Z</time>
      </trkpt>
      <trkpt lat="47.60705" lon="-2.60333">
        <ele>15.9</ele>
        <time>2020-06-06T10:45:19Z</time>
      </trkpt>
      <trkpt lat="47.60707" lon="-2.60343">
        <ele>15.9</ele>
        <time>2020-06-06T10:45:20Z</time>
      </trkpt>
      <trkpt lat="47.6071" lon="-2.60352">
        <ele>16</ele>
        <time>2020-06-06T10:45:21Z</time>
      </trkpt>
      <trkpt lat="47.60713" lon="-2.60362">
        <ele>16.1</ele>
        <time>2020-06-06T10:45:22Z</time>
      </trkpt>
      <trkpt lat="47.60716" lon="-2.60372">
        <ele>16.3</ele>
        <time>2020-06-06T10:45:23Z</time>
      </trkpt>
      <trkpt lat="47.60719" lon="-2.60382">
        <ele>16.4</ele>
        <time>2020-06-06T10:45:24Z</time>
      </trkpt>
      <trkpt lat="47.60723" lon="-2.6039">
        <ele>16.5</ele>
        <time>2020-06-06T10:45:25Z</time>
      </trkpt>
      <trkpt lat="47.60725" lon="-2.60399">
        <ele>16.6</ele>
        <time>2020-06-06T10:45:26Z</time>
      </trkpt>
      <trkpt lat="47.60728" lon="-2.60408">
        <ele>16.7</ele>
        <time>2020-06-06T10:45:27Z</time>
      </trkpt>
      <trkpt lat="47.60731" lon="-2.60416">
        <ele>16.7</ele>
        <time>2020-06-06T10:45:28Z</time>
      </trkpt>
      <trkpt lat="47.60734" lon="-2.60424">
        <ele>16.8</ele>
        <time>2020-06-06T10:45:29Z</time>
      </trkpt>
      <trkpt lat="47.60738" lon="-2.60432">
        <ele>16.9</ele>
        <time>2020-06-06T10:45:30Z</time>
      </trkpt>
      <trkpt lat="47.60741" lon="-2.6044">
        <ele>16.9</ele>
        <time>2020-06-06T10:45:31Z</time>
      </trkpt>
      <trkpt lat="47.60743" lon="-2.60449">
        <ele>17</ele>
        <time>2020-06-06T10:45:32Z</time>
      </trkpt>
      <trkpt lat="47.60746" lon="-2.60458">
        <ele>17</ele>
        <time>2020-06-06T10:45:33Z</time>
      </trkpt>
      <trkpt lat="47.60748" lon="-2.60468">
        <ele>17</ele>
        <time>2020-06-06T10:45:34Z</time>
      </trkpt>
      <trkpt lat="47.6075" lon="-2.60477">
        <ele>17</ele>
        <time>2020-06-06T10:45:35Z</time>
      </trkpt>
      <trkpt lat="47.60753" lon="-2.60485">
        <ele>17</ele>
        <time>2020-06-06T10:45:36Z</time>
      </trkpt>
      <trkpt lat="47.60755" lon="-2.60494">
        <ele>17</ele>
        <time>2020-06-06T10:45:37Z</time>
      </trkpt>
      <trkpt lat="47.60758" lon="-2.60502">
        <ele>16.9</ele>
        <time>2020-06-06T10:45:38Z</time>
      </trkpt>
      <trkpt lat="47.60761" lon="-2.60511">
        <ele>16.9</ele>
        <time>2020-06-06T10:45:39Z</time>
      </trkpt>
      <trkpt lat="47.60764" lon="-2.60521">
        <ele>16.9</ele>
        <time>2020-06-06T10:45:40Z</time>
      </trkpt>
      <trkpt lat="47.60767" lon="-2.6053">
        <ele>16.8</ele>
        <time>2020-06-06T10:45:41Z</time>
      </trkpt>
      <trkpt lat="47.60769" lon="-2.60539">
        <ele>16.8</ele>
        <time>2020-06-06T10:45:42Z</time>
      </trkpt>
      <trkpt lat="47.60772" lon="-2.60548">
        <ele>16.8</ele>
        <time>2020-06-06T10:45:43Z</time>
      </trkpt>
      <trkpt lat="47.60775" lon="-2.60558">
        <ele>16.8</ele>
        <time>2020-06-06T10:45:44Z</time>
      </trkpt>
      <trkpt lat="47.60778" lon="-2.60567">
        <ele>16.7</ele>
        <time>2020-06-06T10:45:45Z</time>
      </trkpt>
      <trkpt lat="47.60781" lon="-2.60576">
        <ele>16.7</ele>
        <time>2020-06-06T10:45:46Z</time>
      </trkpt>
      <trkpt lat="47.60784" lon="-2.60585">
        <ele>16.7</ele>
        <time>2020-06-06T10:45:47Z</time>
      </trkpt>
      <trkpt lat="47.60787" lon="-2.60594">
        <ele>16.6</ele>
        <time>2020-06-06T10:45:48Z</time>
      </trkpt>
      <trkpt lat="47.6079" lon="-2.60604">
        <ele>16.6</ele>
        <time>2020-06-06T10:45:49Z</time>
      </trkpt>
      <trkpt lat="47.60793" lon="-2.60613">
        <ele>16.5</ele>
        <time>2020-06-06T10:45:50Z</time>
      </trkpt>
      <trkpt lat="47.60795" lon="-2.60623">
        <ele>16.4</ele>
        <time>2020-06-06T10:45:51Z</time>
      </trkpt>
      <trkpt lat="47.60798" lon="-2.60633">
        <ele>16.3</ele>
        <time>2020-06-06T10:45:52Z</time>
      </trkpt>
      <trkpt lat="47.60801" lon="-2.60642">
        <ele>16.2</ele>
        <time>2020-06-06T10:45:53Z</time>
      </trkpt>
      <trkpt lat="47.60804" lon="-2.60652">
        <ele>16.1</ele>
        <time>2020-06-06T10:45:54Z</time>
      </trkpt>
      <trkpt lat="47.60808" lon="-2.6066">
        <ele>16</ele>
        <time>2020-06-06T10:45:55Z</time>
      </trkpt>
      <trkpt lat="47.60812" lon="-2.60668">
        <ele>15.9</ele>
        <time>2020-06-06T10:45:56Z</time>
      </trkpt>
      <trkpt lat="47.60816" lon="-2.60676">
        <ele>15.9</ele>
        <time>2020-06-06T10:45:57Z</time>
      </trkpt>
      <trkpt lat="47.60821" lon="-2.60684">
        <ele>15.8</ele>
        <time>2020-06-06T10:45:58Z</time>
      </trkpt>
      <trkpt lat="47.60825" lon="-2.60692">
        <ele>15.8</ele>
        <time>2020-06-06T10:45:59Z</time>
      </trkpt>
      <trkpt lat="47.6083" lon="-2.60699">
        <ele>15.8</ele>
        <time>2020-06-06T10:46:00Z</time>
      </trkpt>
      <trkpt lat="47.60834" lon="-2.60706">
        <ele>15.8</ele>
        <time>2020-06-06T10:46:01Z</time>
      </trkpt>
      <trkpt lat="47.60839" lon="-2.60713">
        <ele>15.7</ele>
        <time>2020-06-06T10:46:02Z</time>
      </trkpt>
      <trkpt lat="47.60843" lon="-2.60721">
        <ele>15.7</ele>
        <time>2020-06-06T10:46:03Z</time>
      </trkpt>
      <trkpt lat="47.60848" lon="-2.60729">
        <ele>15.7</ele>
        <time>2020-06-06T10:46:04Z</time>
      </trkpt>
      <trkpt lat="47.60852" lon="-2.60737">
        <ele>15.7</ele>
        <time>2020-06-06T10:46:05Z</time>
      </trkpt>
      <trkpt lat="47.60856" lon="-2.60745">
        <ele>15.7</ele>
        <time>2020-06-06T10:46:06Z</time>
      </trkpt>
      <trkpt lat="47.60861" lon="-2.60753">
        <ele>15.7</ele>
        <time>2020-06-06T10:46:07Z</time>
      </trkpt>
      <trkpt lat="47.60866" lon="-2.6076">
        <ele>15.8</ele>
        <time>2020-06-06T10:46:08Z</time>
      </trkpt>
      <trkpt lat="47.6087" lon="-2.60767">
        <ele>15.8</ele>
        <time>2020-06-06T10:46:09Z</time>
      </trkpt>
      <trkpt lat="47.60875" lon="-2.60774">
        <ele>15.9</ele>
        <time>2020-06-06T10:46:10Z</time>
      </trkpt>
      <trkpt lat="47.6088" lon="-2.60782">
        <ele>16</ele>
        <time>2020-06-06T10:46:11Z</time>
      </trkpt>
      <trkpt lat="47.60885" lon="-2.60789">
        <ele>16.1</ele>
        <time>2020-06-06T10:46:12Z</time>
      </trkpt>
      <trkpt lat="47.60889" lon="-2.60796">
        <ele>16.2</ele>
        <time>2020-06-06T10:46:13Z</time>
      </trkpt>
      <trkpt lat="47.60893" lon="-2.60804">
        <ele>16.3</ele>
        <time>2020-06-06T10:46:14Z</time>
      </trkpt>
      <trkpt lat="47.60898" lon="-2.60811">
        <ele>16.4</ele>
        <time>2020-06-06T10:46:15Z</time>
      </trkpt>
      <trkpt lat="47.60903" lon="-2.60818">
        <ele>16.5</ele>
        <time>2020-06-06T10:46:16Z</time>
      </trkpt>
      <trkpt lat="47.60907" lon="-2.60825">
        <ele>16.6</ele>
        <time>2020-06-06T10:46:17Z</time>
      </trkpt>
      <trkpt lat="47.60911" lon="-2.60832">
        <ele>16.8</ele>
        <time>2020-06-06T10:46:18Z</time>
      </trkpt>
      <trkpt lat="47.60915" lon="-2.60839">
        <ele>16.9</ele>
        <time>2020-06-06T10:46:19Z</time>
      </trkpt>
      <trkpt lat="47.6092" lon="-2.60847">
        <ele>17</ele>
        <time>2020-06-06T10:46:20Z</time>
      </trkpt>
      <trkpt lat="47.60924" lon="-2.60854">
        <ele>17.1</ele>
        <time>2020-06-06T10:46:21Z</time>
      </trkpt>
      <trkpt lat="47.60928" lon="-2.60862">
        <ele>17.3</ele>
        <time>2020-06-06T10:46:22Z</time>
      </trkpt>
      <trkpt lat="47.60932" lon="-2.60869">
        <ele>17.5</ele>
        <time>2020-06-06T10:46:23Z</time>
      </trkpt>
      <trkpt lat="47.60936" lon="-2.60876">
        <ele>17.7</ele>
        <time>2020-06-06T10:46:24Z</time>
      </trkpt>
      <trkpt lat="47.60941" lon="-2.60883">
        <ele>17.9</ele>
        <time>2020-06-06T10:46:25Z</time>
      </trkpt>
      <trkpt lat="47.60945" lon="-2.60891">
        <ele>18</ele>
        <time>2020-06-06T10:46:26Z</time>
      </trkpt>
      <trkpt lat="47.60949" lon="-2.60898">
        <ele>18.2</ele>
        <time>2020-06-06T10:46:27Z</time>
      </trkpt>
      <trkpt lat="47.60953" lon="-2.60905">
        <ele>18.3</ele>
        <time>2020-06-06T10:46:28Z</time>
      </trkpt>
      <trkpt lat="47.60958" lon="-2.60913">
        <ele>18.5</ele>
        <time>2020-06-06T10:46:29Z</time>
      </trkpt>
      <trkpt lat="47.60962" lon="-2.6092">
        <ele>18.6</ele>
        <time>2020-06-06T10:46:30Z</time>
      </trkpt>
      <trkpt lat="47.60966" lon="-2.60928">
        <ele>18.8</ele>
        <time>2020-06-06T10:46:31Z</time>
      </trkpt>
      <trkpt lat="47.6097" lon="-2.60935">
        <ele>19</ele>
        <time>2020-06-06T10:46:32Z</time>
      </trkpt>
      <trkpt lat="47.60974" lon="-2.60941">
        <ele>19.1</ele>
        <time>2020-06-06T10:46:33Z</time>
      </trkpt>
      <trkpt lat="47.60978" lon="-2.60947">
        <ele>19.2</ele>
        <time>2020-06-06T10:46:34Z</time>
      </trkpt>
      <trkpt lat="47.60981" lon="-2.60953">
        <ele>19.3</ele>
        <time>2020-06-06T10:46:35Z</time>
      </trkpt>
      <trkpt lat="47.60984" lon="-2.60959">
        <ele>19.4</ele>
        <time>2020-06-06T10:46:36Z</time>
      </trkpt>
      <trkpt lat="47.60988" lon="-2.60966">
        <ele>19.5</ele>
        <time>2020-06-06T10:46:37Z</time>
      </trkpt>
      <trkpt lat="47.60991" lon="-2.60971">
        <ele>19.6</ele>
        <time>2020-06-06T10:46:38Z</time>
      </trkpt>
      <trkpt lat="47.60994" lon="-2.60976">
        <ele>19.6</ele>
        <time>2020-06-06T10:46:39Z</time>
      </trkpt>
      <trkpt lat="47.60997" lon="-2.60982">
        <ele>19.7</ele>
        <time>2020-06-06T10:46:40Z</time>
      </trkpt>
      <trkpt lat="47.61001" lon="-2.60987">
        <ele>19.7</ele>
        <time>2020-06-06T10:46:41Z</time>
      </trkpt>
      <trkpt lat="47.61005" lon="-2.60994">
        <ele>19.7</ele>
        <time>2020-06-06T10:46:42Z</time>
      </trkpt>
      <trkpt lat="47.61009" lon="-2.60999">
        <ele>19.7</ele>
        <time>2020-06-06T10:46:43Z</time>
      </trkpt>
      <trkpt lat="47.61011" lon="-2.61003">
        <ele>19.7</ele>
        <time>2020-06-06T10:46:44Z</time>
      </trkpt>
      <trkpt lat="47.61013" lon="-2.61007">
        <ele>19.7</ele>
        <time>2020-06-06T10:46:45Z</time>
      </trkpt>
      <trkpt lat="47.61016" lon="-2.6101">
        <ele>19.7</ele>
        <time>2020-06-06T10:46:46Z</time>
      </trkpt>
      <trkpt lat="47.61019" lon="-2.61014">
        <ele>19.7</ele>
        <time>2020-06-06T10:46:47Z</time>
      </trkpt>
      <trkpt lat="47.61022" lon="-2.61018">
        <ele>19.7</ele>
        <time>2020-06-06T10:46:48Z</time>
      </trkpt>
      <trkpt lat="47.61025" lon="-2.61022">
        <ele>19.7</ele>
        <time>2020-06-06T10:46:49Z</time>
      </trkpt>
      <trkpt lat="47.61029" lon="-2.61027">
        <ele>19.7</ele>
        <time>2020-06-06T10:46:50Z</time>
      </trkpt>
      <trkpt lat="47.61033" lon="-2.61031">
        <ele>19.6</ele>
        <time>2020-06-06T10:46:51Z</time>
      </trkpt>
      <trkpt lat="47.61038" lon="-2.61036">
        <ele>19.6</ele>
        <time>2020-06-06T10:46:52Z</time>
      </trkpt>
      <trkpt lat="47.61042" lon="-2.61039">
        <ele>19.5</ele>
        <time>2020-06-06T10:46:53Z</time>
      </trkpt>
      <trkpt lat="47.61047" lon="-2.61043">
        <ele>19.5</ele>
        <time>2020-06-06T10:46:54Z</time>
      </trkpt>
      <trkpt lat="47.61052" lon="-2.61048">
        <ele>19.4</ele>
        <time>2020-06-06T10:46:55Z</time>
      </trkpt>
      <trkpt lat="47.61057" lon="-2.61051">
        <ele>19.4</ele>
        <time>2020-06-06T10:46:56Z</time>
      </trkpt>
      <trkpt lat="47.61062" lon="-2.61055">
        <ele>19.3</ele>
        <time>2020-06-06T10:46:57Z</time>
      </trkpt>
      <trkpt lat="47.61068" lon="-2.61059">
        <ele>19.3</ele>
        <time>2020-06-06T10:46:58Z</time>
      </trkpt>
      <trkpt lat="47.61073" lon="-2.61063">
        <ele>19.2</ele>
        <time>2020-06-06T10:46:59Z</time>
      </trkpt>
      <trkpt lat="47.61078" lon="-2.61068">
        <ele>19.2</ele>
        <time>2020-06-06T10:47:00Z</time>
      </trkpt>
      <trkpt lat="47.61084" lon="-2.61072">
        <ele>19.2</ele>
        <time>2020-06-06T10:47:01Z</time>
      </trkpt>
      <trkpt lat="47.6109" lon="-2.61074">
        <ele>19.1</ele>
        <time>2020-06-06T10:47:02Z</time>
      </trkpt>
      <trkpt lat="47.61095" lon="-2.61077">
        <ele>19.1</ele>
        <time>2020-06-06T10:47:03Z</time>
      </trkpt>
      <trkpt lat="47.61102" lon="-2.6108">
        <ele>19</ele>
        <time>2020-06-06T10:47:04Z</time>
      </trkpt>
      <trkpt lat="47.61107" lon="-2.61083">
        <ele>18.9</ele>
        <time>2020-06-06T10:47:05Z</time>
      </trkpt>
      <trkpt lat="47.61113" lon="-2.61086">
        <ele>18.8</ele>
        <time>2020-06-06T10:47:06Z</time>
      </trkpt>
      <trkpt lat="47.61118" lon="-2.61089">
        <ele>18.8</ele>
        <time>2020-06-06T10:47:07Z</time>
      </trkpt>
      <trkpt lat="47.61124" lon="-2.61092">
        <ele>18.7</ele>
        <time>2020-06-06T10:47:08Z</time>
      </trkpt>
      <trkpt lat="47.6113" lon="-2.61096">
        <ele>18.6</ele>
        <time>2020-06-06T10:47:09Z</time>
      </trkpt>
      <trkpt lat="47.61137" lon="-2.611">
        <ele>18.6</ele>
        <time>2020-06-06T10:47:10Z</time>
      </trkpt>
      <trkpt lat="47.61142" lon="-2.61102">
        <ele>18.5</ele>
        <time>2020-06-06T10:47:11Z</time>
      </trkpt>
      <trkpt lat="47.61147" lon="-2.61105">
        <ele>18.5</ele>
        <time>2020-06-06T10:47:12Z</time>
      </trkpt>
      <trkpt lat="47.61152" lon="-2.61107">
        <ele>18.5</ele>
        <time>2020-06-06T10:47:13Z</time>
      </trkpt>
      <trkpt lat="47.61158" lon="-2.6111">
        <ele>18.5</ele>
        <time>2020-06-06T10:47:14Z</time>
      </trkpt>
      <trkpt lat="47.61164" lon="-2.61115">
        <ele>18.4</ele>
        <time>2020-06-06T10:47:15Z</time>
      </trkpt>
      <trkpt lat="47.61169" lon="-2.6112">
        <ele>18.4</ele>
        <time>2020-06-06T10:47:16Z</time>
      </trkpt>
      <trkpt lat="47.61174" lon="-2.61124">
        <ele>18.4</ele>
        <time>2020-06-06T10:47:17Z</time>
      </trkpt>
      <trkpt lat="47.61179" lon="-2.6113">
        <ele>18.3</ele>
        <time>2020-06-06T10:47:18Z</time>
      </trkpt>
      <trkpt lat="47.61185" lon="-2.61136">
        <ele>18.3</ele>
        <time>2020-06-06T10:47:19Z</time>
      </trkpt>
      <trkpt lat="47.61189" lon="-2.61141">
        <ele>18.3</ele>
        <time>2020-06-06T10:47:20Z</time>
      </trkpt>
      <trkpt lat="47.61194" lon="-2.61146">
        <ele>18.3</ele>
        <time>2020-06-06T10:47:21Z</time>
      </trkpt>
      <trkpt lat="47.61198" lon="-2.61154">
        <ele>18.4</ele>
        <time>2020-06-06T10:47:22Z</time>
      </trkpt>
      <trkpt lat="47.61201" lon="-2.61162">
        <ele>18.4</ele>
        <time>2020-06-06T10:47:23Z</time>
      </trkpt>
      <trkpt lat="47.61204" lon="-2.6117">
        <ele>18.5</ele>
        <time>2020-06-06T10:47:24Z</time>
      </trkpt>
      <trkpt lat="47.61207" lon="-2.61176">
        <ele>18.5</ele>
        <time>2020-06-06T10:47:25Z</time>
      </trkpt>
      <trkpt lat="47.61209" lon="-2.61184">
        <ele>18.6</ele>
        <time>2020-06-06T10:47:26Z</time>
      </trkpt>
      <trkpt lat="47.61212" lon="-2.6119">
        <ele>18.7</ele>
        <time>2020-06-06T10:47:27Z</time>
      </trkpt>
      <trkpt lat="47.61215" lon="-2.61195">
        <ele>18.8</ele>
        <time>2020-06-06T10:47:28Z</time>
      </trkpt>
      <trkpt lat="47.6122" lon="-2.612">
        <ele>18.8</ele>
        <time>2020-06-06T10:47:29Z</time>
      </trkpt>
      <trkpt lat="47.61225" lon="-2.61206">
        <ele>18.9</ele>
        <time>2020-06-06T10:47:30Z</time>
      </trkpt>
      <trkpt lat="47.61229" lon="-2.61213">
        <ele>18.8</ele>
        <time>2020-06-06T10:47:31Z</time>
      </trkpt>
      <trkpt lat="47.61231" lon="-2.61222">
        <ele>18.6</ele>
        <time>2020-06-06T10:47:32Z</time>
      </trkpt>
      <trkpt lat="47.61234" lon="-2.6123">
        <ele>18.4</ele>
        <time>2020-06-06T10:47:33Z</time>
      </trkpt>
      <trkpt lat="47.61235" lon="-2.61237">
        <ele>18.3</ele>
        <time>2020-06-06T10:47:34Z</time>
      </trkpt>
      <trkpt lat="47.61236" lon="-2.61246">
        <ele>18.3</ele>
        <time>2020-06-06T10:47:35Z</time>
      </trkpt>
      <trkpt lat="47.61236" lon="-2.61255">
        <ele>18.3</ele>
        <time>2020-06-06T10:47:36Z</time>
      </trkpt>
      <trkpt lat="47.61237" lon="-2.61265">
        <ele>18.1</ele>
        <time>2020-06-06T10:47:37Z</time>
      </trkpt>
      <trkpt lat="47.61239" lon="-2.61273">
        <ele>17.9</ele>
        <time>2020-06-06T10:47:38Z</time>
      </trkpt>
      <trkpt lat="47.61243" lon="-2.6128">
        <ele>17.7</ele>
        <time>2020-06-06T10:47:39Z</time>
      </trkpt>
      <trkpt lat="47.61246" lon="-2.61288">
        <ele>17.5</ele>
        <time>2020-06-06T10:47:40Z</time>
      </trkpt>
      <trkpt lat="47.61249" lon="-2.61297">
        <ele>17.3</ele>
        <time>2020-06-06T10:47:41Z</time>
      </trkpt>
      <trkpt lat="47.61253" lon="-2.61306">
        <ele>17.1</ele>
        <time>2020-06-06T10:47:42Z</time>
      </trkpt>
      <trkpt lat="47.61255" lon="-2.61315">
        <ele>16.9</ele>
        <time>2020-06-06T10:47:43Z</time>
      </trkpt>
      <trkpt lat="47.61258" lon="-2.61324">
        <ele>16.7</ele>
        <time>2020-06-06T10:47:44Z</time>
      </trkpt>
      <trkpt lat="47.61261" lon="-2.61333">
        <ele>16.4</ele>
        <time>2020-06-06T10:47:45Z</time>
      </trkpt>
      <trkpt lat="47.61263" lon="-2.61343">
        <ele>16.1</ele>
        <time>2020-06-06T10:47:46Z</time>
      </trkpt>
      <trkpt lat="47.61265" lon="-2.61355">
        <ele>15.8</ele>
        <time>2020-06-06T10:47:47Z</time>
      </trkpt>
      <trkpt lat="47.61267" lon="-2.61366">
        <ele>15.6</ele>
        <time>2020-06-06T10:47:48Z</time>
      </trkpt>
      <trkpt lat="47.61268" lon="-2.61379">
        <ele>15.3</ele>
        <time>2020-06-06T10:47:49Z</time>
      </trkpt>
      <trkpt lat="47.6127" lon="-2.61391">
        <ele>15.1</ele>
        <time>2020-06-06T10:47:50Z</time>
      </trkpt>
      <trkpt lat="47.61271" lon="-2.61403">
        <ele>14.8</ele>
        <time>2020-06-06T10:47:51Z</time>
      </trkpt>
      <trkpt lat="47.61274" lon="-2.61416">
        <ele>14.4</ele>
        <time>2020-06-06T10:47:52Z</time>
      </trkpt>
      <trkpt lat="47.61276" lon="-2.61429">
        <ele>14.1</ele>
        <time>2020-06-06T10:47:53Z</time>
      </trkpt>
      <trkpt lat="47.61279" lon="-2.6144">
        <ele>13.9</ele>
        <time>2020-06-06T10:47:54Z</time>
      </trkpt>
      <trkpt lat="47.61281" lon="-2.61451">
        <ele>13.8</ele>
        <time>2020-06-06T10:47:55Z</time>
      </trkpt>
      <trkpt lat="47.61284" lon="-2.61463">
        <ele>13.7</ele>
        <time>2020-06-06T10:47:56Z</time>
      </trkpt>
      <trkpt lat="47.61287" lon="-2.61473">
        <ele>13.6</ele>
        <time>2020-06-06T10:47:57Z</time>
      </trkpt>
      <trkpt lat="47.61291" lon="-2.61484">
        <ele>13.6</ele>
        <time>2020-06-06T10:47:58Z</time>
      </trkpt>
      <trkpt lat="47.61295" lon="-2.61494">
        <ele>13.6</ele>
        <time>2020-06-06T10:47:59Z</time>
      </trkpt>
      <trkpt lat="47.61298" lon="-2.61504">
        <ele>13.6</ele>
        <time>2020-06-06T10:48:00Z</time>
      </trkpt>
      <trkpt lat="47.61302" lon="-2.61514">
        <ele>13.6</ele>
        <time>2020-06-06T10:48:01Z</time>
      </trkpt>
      <trkpt lat="47.61307" lon="-2.61523">
        <ele>13.7</ele>
        <time>2020-06-06T10:48:02Z</time>
      </trkpt>
      <trkpt lat="47.6131" lon="-2.61532">
        <ele>13.8</ele>
        <time>2020-06-06T10:48:03Z</time>
      </trkpt>
      <trkpt lat="47.61315" lon="-2.61541">
        <ele>13.9</ele>
        <time>2020-06-06T10:48:04Z</time>
      </trkpt>
      <trkpt lat="47.6132" lon="-2.61549">
        <ele>14</ele>
        <time>2020-06-06T10:48:05Z</time>
      </trkpt>
      <trkpt lat="47.61325" lon="-2.61557">
        <ele>14.1</ele>
        <time>2020-06-06T10:48:06Z</time>
      </trkpt>
      <trkpt lat="47.61331" lon="-2.61564">
        <ele>14.2</ele>
        <time>2020-06-06T10:48:07Z</time>
      </trkpt>
      <trkpt lat="47.61334" lon="-2.61573">
        <ele>14.4</ele>
        <time>2020-06-06T10:48:08Z</time>
      </trkpt>
      <trkpt lat="47.61338" lon="-2.61583">
        <ele>14.5</ele>
        <time>2020-06-06T10:48:09Z</time>
      </trkpt>
      <trkpt lat="47.61342" lon="-2.61591">
        <ele>14.7</ele>
        <time>2020-06-06T10:48:10Z</time>
      </trkpt>
      <trkpt lat="47.61347" lon="-2.61598">
        <ele>14.8</ele>
        <time>2020-06-06T10:48:11Z</time>
      </trkpt>
      <trkpt lat="47.61352" lon="-2.61606">
        <ele>14.9</ele>
        <time>2020-06-06T10:48:12Z</time>
      </trkpt>
      <trkpt lat="47.61356" lon="-2.61613">
        <ele>15</ele>
        <time>2020-06-06T10:48:13Z</time>
      </trkpt>
      <trkpt lat="47.6136" lon="-2.61619">
        <ele>15.1</ele>
        <time>2020-06-06T10:48:14Z</time>
      </trkpt>
      <trkpt lat="47.61364" lon="-2.61626">
        <ele>15.2</ele>
        <time>2020-06-06T10:48:15Z</time>
      </trkpt>
      <trkpt lat="47.61369" lon="-2.61633">
        <ele>15.3</ele>
        <time>2020-06-06T10:48:16Z</time>
      </trkpt>
      <trkpt lat="47.61373" lon="-2.61641">
        <ele>15.3</ele>
        <time>2020-06-06T10:48:17Z</time>
      </trkpt>
      <trkpt lat="47.61378" lon="-2.61648">
        <ele>15.3</ele>
        <time>2020-06-06T10:48:18Z</time>
      </trkpt>
      <trkpt lat="47.61382" lon="-2.61655">
        <ele>15.3</ele>
        <time>2020-06-06T10:48:19Z</time>
      </trkpt>
      <trkpt lat="47.61386" lon="-2.61661">
        <ele>15.3</ele>
        <time>2020-06-06T10:48:20Z</time>
      </trkpt>
      <trkpt lat="47.61389" lon="-2.61668">
        <ele>15.3</ele>
        <time>2020-06-06T10:48:21Z</time>
      </trkpt>
      <trkpt lat="47.61393" lon="-2.61675">
        <ele>15.3</ele>
        <time>2020-06-06T10:48:22Z</time>
      </trkpt>
      <trkpt lat="47.61397" lon="-2.61682">
        <ele>15.3</ele>
        <time>2020-06-06T10:48:23Z</time>
      </trkpt>
      <trkpt lat="47.61401" lon="-2.6169">
        <ele>15.3</ele>
        <time>2020-06-06T10:48:24Z</time>
      </trkpt>
      <trkpt lat="47.61406" lon="-2.61697">
        <ele>15.3</ele>
        <time>2020-06-06T10:48:25Z</time>
      </trkpt>
      <trkpt lat="47.61411" lon="-2.61704">
        <ele>15.3</ele>
        <time>2020-06-06T10:48:26Z</time>
      </trkpt>
      <trkpt lat="47.61415" lon="-2.61711">
        <ele>15.3</ele>
        <time>2020-06-06T10:48:27Z</time>
      </trkpt>
      <trkpt lat="47.61419" lon="-2.61718">
        <ele>15.4</ele>
        <time>2020-06-06T10:48:28Z</time>
      </trkpt>
      <trkpt lat="47.61423" lon="-2.61724">
        <ele>15.5</ele>
        <time>2020-06-06T10:48:29Z</time>
      </trkpt>
      <trkpt lat="47.61426" lon="-2.61731">
        <ele>15.6</ele>
        <time>2020-06-06T10:48:30Z</time>
      </trkpt>
      <trkpt lat="47.6143" lon="-2.61737">
        <ele>15.6</ele>
        <time>2020-06-06T10:48:31Z</time>
      </trkpt>
      <trkpt lat="47.61436" lon="-2.61745">
        <ele>15.8</ele>
        <time>2020-06-06T10:48:32Z</time>
      </trkpt>
      <trkpt lat="47.6144" lon="-2.61753">
        <ele>15.9</ele>
        <time>2020-06-06T10:48:33Z</time>
      </trkpt>
      <trkpt lat="47.61445" lon="-2.61761">
        <ele>16</ele>
        <time>2020-06-06T10:48:34Z</time>
      </trkpt>
      <trkpt lat="47.6145" lon="-2.61769">
        <ele>16.2</ele>
        <time>2020-06-06T10:48:35Z</time>
      </trkpt>
      <trkpt lat="47.61455" lon="-2.61777">
        <ele>16.4</ele>
        <time>2020-06-06T10:48:36Z</time>
      </trkpt>
      <trkpt lat="47.6146" lon="-2.61785">
        <ele>16.6</ele>
        <time>2020-06-06T10:48:37Z</time>
      </trkpt>
      <trkpt lat="47.61464" lon="-2.61794">
        <ele>16.9</ele>
        <time>2020-06-06T10:48:38Z</time>
      </trkpt>
      <trkpt lat="47.61468" lon="-2.61801">
        <ele>17.1</ele>
        <time>2020-06-06T10:48:39Z</time>
      </trkpt>
      <trkpt lat="47.61471" lon="-2.61808">
        <ele>17.3</ele>
        <time>2020-06-06T10:48:40Z</time>
      </trkpt>
      <trkpt lat="47.61475" lon="-2.61814">
        <ele>17.5</ele>
        <time>2020-06-06T10:48:41Z</time>
      </trkpt>
      <trkpt lat="47.61478" lon="-2.61821">
        <ele>17.7</ele>
        <time>2020-06-06T10:48:42Z</time>
      </trkpt>
      <trkpt lat="47.61483" lon="-2.61828">
        <ele>17.9</ele>
        <time>2020-06-06T10:48:43Z</time>
      </trkpt>
      <trkpt lat="47.61487" lon="-2.61835">
        <ele>18.2</ele>
        <time>2020-06-06T10:48:44Z</time>
      </trkpt>
      <trkpt lat="47.6149" lon="-2.61842">
        <ele>18.4</ele>
        <time>2020-06-06T10:48:45Z</time>
      </trkpt>
      <trkpt lat="47.61494" lon="-2.61848">
        <ele>18.6</ele>
        <time>2020-06-06T10:48:46Z</time>
      </trkpt>
      <trkpt lat="47.61498" lon="-2.61855">
        <ele>18.8</ele>
        <time>2020-06-06T10:48:47Z</time>
      </trkpt>
      <trkpt lat="47.61503" lon="-2.61863">
        <ele>19</ele>
        <time>2020-06-06T10:48:48Z</time>
      </trkpt>
      <trkpt lat="47.61507" lon="-2.61869">
        <ele>19.1</ele>
        <time>2020-06-06T10:48:49Z</time>
      </trkpt>
      <trkpt lat="47.61511" lon="-2.61875">
        <ele>19.2</ele>
        <time>2020-06-06T10:48:50Z</time>
      </trkpt>
      <trkpt lat="47.61513" lon="-2.61879">
        <ele>19.3</ele>
        <time>2020-06-06T10:48:51Z</time>
      </trkpt>
      <trkpt lat="47.61517" lon="-2.61885">
        <ele>19.4</ele>
        <time>2020-06-06T10:48:52Z</time>
      </trkpt>
      <trkpt lat="47.61521" lon="-2.6189">
        <ele>19.5</ele>
        <time>2020-06-06T10:48:53Z</time>
      </trkpt>
      <trkpt lat="47.61524" lon="-2.61896">
        <ele>19.5</ele>
        <time>2020-06-06T10:48:54Z</time>
      </trkpt>
      <trkpt lat="47.61527" lon="-2.61901">
        <ele>19.6</ele>
        <time>2020-06-06T10:48:55Z</time>
      </trkpt>
      <trkpt lat="47.61531" lon="-2.61907">
        <ele>19.7</ele>
        <time>2020-06-06T10:48:56Z</time>
      </trkpt>
      <trkpt lat="47.61535" lon="-2.61913">
        <ele>19.7</ele>
        <time>2020-06-06T10:48:57Z</time>
      </trkpt>
      <trkpt lat="47.61538" lon="-2.61919">
        <ele>19.8</ele>
        <time>2020-06-06T10:48:58Z</time>
      </trkpt>
      <trkpt lat="47.61543" lon="-2.61927">
        <ele>19.8</ele>
        <time>2020-06-06T10:48:59Z</time>
      </trkpt>
      <trkpt lat="47.61547" lon="-2.61933">
        <ele>19.9</ele>
        <time>2020-06-06T10:49:00Z</time>
      </trkpt>
      <trkpt lat="47.6155" lon="-2.61939">
        <ele>20</ele>
        <time>2020-06-06T10:49:01Z</time>
      </trkpt>
      <trkpt lat="47.61553" lon="-2.61945">
        <ele>20</ele>
        <time>2020-06-06T10:49:02Z</time>
      </trkpt>
      <trkpt lat="47.61557" lon="-2.61951">
        <ele>20.1</ele>
        <time>2020-06-06T10:49:03Z</time>
      </trkpt>
      <trkpt lat="47.6156" lon="-2.61956">
        <ele>20.2</ele>
        <time>2020-06-06T10:49:04Z</time>
      </trkpt>
      <trkpt lat="47.61564" lon="-2.61962">
        <ele>20.4</ele>
        <time>2020-06-06T10:49:05Z</time>
      </trkpt>
      <trkpt lat="47.61567" lon="-2.61968">
        <ele>20.5</ele>
        <time>2020-06-06T10:49:06Z</time>
      </trkpt>
      <trkpt lat="47.6157" lon="-2.61975">
        <ele>20.7</ele>
        <time>2020-06-06T10:49:07Z</time>
      </trkpt>
      <trkpt lat="47.61573" lon="-2.61982">
        <ele>20.8</ele>
        <time>2020-06-06T10:49:08Z</time>
      </trkpt>
      <trkpt lat="47.61575" lon="-2.61988">
        <ele>20.9</ele>
        <time>2020-06-06T10:49:09Z</time>
      </trkpt>
      <trkpt lat="47.61577" lon="-2.61995">
        <ele>21.1</ele>
        <time>2020-06-06T10:49:10Z</time>
      </trkpt>
      <trkpt lat="47.6158" lon="-2.62001">
        <ele>21.2</ele>
        <time>2020-06-06T10:49:11Z</time>
      </trkpt>
      <trkpt lat="47.61583" lon="-2.62007">
        <ele>21.4</ele>
        <time>2020-06-06T10:49:12Z</time>
      </trkpt>
      <trkpt lat="47.61586" lon="-2.62012">
        <ele>21.5</ele>
        <time>2020-06-06T10:49:13Z</time>
      </trkpt>
      <trkpt lat="47.61589" lon="-2.62019">
        <ele>21.7</ele>
        <time>2020-06-06T10:49:14Z</time>
      </trkpt>
      <trkpt lat="47.61591" lon="-2.62024">
        <ele>21.9</ele>
        <time>2020-06-06T10:49:15Z</time>
      </trkpt>
      <trkpt lat="47.61595" lon="-2.6203">
        <ele>22</ele>
        <time>2020-06-06T10:49:16Z</time>
      </trkpt>
      <trkpt lat="47.61598" lon="-2.62035">
        <ele>22.2</ele>
        <time>2020-06-06T10:49:17Z</time>
      </trkpt>
      <trkpt lat="47.616" lon="-2.62041">
        <ele>22.4</ele>
        <time>2020-06-06T10:49:18Z</time>
      </trkpt>
      <trkpt lat="47.61603" lon="-2.62046">
        <ele>22.6</ele>
        <time>2020-06-06T10:49:19Z</time>
      </trkpt>
      <trkpt lat="47.61606" lon="-2.62052">
        <ele>22.8</ele>
        <time>2020-06-06T10:49:20Z</time>
      </trkpt>
      <trkpt lat="47.61608" lon="-2.62058">
        <ele>23.1</ele>
        <time>2020-06-06T10:49:21Z</time>
      </trkpt>
      <trkpt lat="47.61611" lon="-2.62064">
        <ele>23.3</ele>
        <time>2020-06-06T10:49:22Z</time>
      </trkpt>
      <trkpt lat="47.61613" lon="-2.62069">
        <ele>23.5</ele>
        <time>2020-06-06T10:49:23Z</time>
      </trkpt>
      <trkpt lat="47.61616" lon="-2.62074">
        <ele>23.6</ele>
        <time>2020-06-06T10:49:24Z</time>
      </trkpt>
      <trkpt lat="47.6162" lon="-2.62077">
        <ele>23.8</ele>
        <time>2020-06-06T10:49:25Z</time>
      </trkpt>
      <trkpt lat="47.61623" lon="-2.62081">
        <ele>24</ele>
        <time>2020-06-06T10:49:26Z</time>
      </trkpt>
      <trkpt lat="47.61625" lon="-2.62085">
        <ele>24.1</ele>
        <time>2020-06-06T10:49:27Z</time>
      </trkpt>
      <trkpt lat="47.61628" lon="-2.6209">
        <ele>24.2</ele>
        <time>2020-06-06T10:49:28Z</time>
      </trkpt>
      <trkpt lat="47.61631" lon="-2.62095">
        <ele>24.4</ele>
        <time>2020-06-06T10:49:29Z</time>
      </trkpt>
      <trkpt lat="47.61634" lon="-2.621">
        <ele>24.5</ele>
        <time>2020-06-06T10:49:30Z</time>
      </trkpt>
      <trkpt lat="47.61637" lon="-2.62104">
        <ele>24.6</ele>
        <time>2020-06-06T10:49:31Z</time>
      </trkpt>
      <trkpt lat="47.61641" lon="-2.62109">
        <ele>24.7</ele>
        <time>2020-06-06T10:49:32Z</time>
      </trkpt>
      <trkpt lat="47.61644" lon="-2.62114">
        <ele>24.7</ele>
        <time>2020-06-06T10:49:33Z</time>
      </trkpt>
      <trkpt lat="47.61646" lon="-2.62119">
        <ele>24.8</ele>
        <time>2020-06-06T10:49:34Z</time>
      </trkpt>
      <trkpt lat="47.61649" lon="-2.62124">
        <ele>24.8</ele>
        <time>2020-06-06T10:49:35Z</time>
      </trkpt>
      <trkpt lat="47.61651" lon="-2.62128">
        <ele>24.8</ele>
        <time>2020-06-06T10:49:36Z</time>
      </trkpt>
      <trkpt lat="47.61655" lon="-2.62134">
        <ele>24.9</ele>
        <time>2020-06-06T10:49:37Z</time>
      </trkpt>
      <trkpt lat="47.61658" lon="-2.62139">
        <ele>24.9</ele>
        <time>2020-06-06T10:49:38Z</time>
      </trkpt>
      <trkpt lat="47.61661" lon="-2.62146">
        <ele>24.9</ele>
        <time>2020-06-06T10:49:39Z</time>
      </trkpt>
      <trkpt lat="47.61664" lon="-2.62151">
        <ele>24.9</ele>
        <time>2020-06-06T10:49:40Z</time>
      </trkpt>
      <trkpt lat="47.61668" lon="-2.62157">
        <ele>24.9</ele>
        <time>2020-06-06T10:49:41Z</time>
      </trkpt>
      <trkpt lat="47.61672" lon="-2.62163">
        <ele>25</ele>
        <time>2020-06-06T10:49:42Z</time>
      </trkpt>
      <trkpt lat="47.61676" lon="-2.62168">
        <ele>25</ele>
        <time>2020-06-06T10:49:43Z</time>
      </trkpt>
      <trkpt lat="47.61679" lon="-2.62173">
        <ele>25</ele>
        <time>2020-06-06T10:49:44Z</time>
      </trkpt>
      <trkpt lat="47.61682" lon="-2.62179">
        <ele>25</ele>
        <time>2020-06-06T10:49:45Z</time>
      </trkpt>
      <trkpt lat="47.61685" lon="-2.62183">
        <ele>25.1</ele>
        <time>2020-06-06T10:49:46Z</time>
      </trkpt>
      <trkpt lat="47.61689" lon="-2.62189">
        <ele>25.1</ele>
        <time>2020-06-06T10:49:47Z</time>
      </trkpt>
      <trkpt lat="47.61693" lon="-2.62195">
        <ele>25.2</ele>
        <time>2020-06-06T10:49:48Z</time>
      </trkpt>
      <trkpt lat="47.61698" lon="-2.62201">
        <ele>25.3</ele>
        <time>2020-06-06T10:49:49Z</time>
      </trkpt>
      <trkpt lat="47.61701" lon="-2.62206">
        <ele>25.4</ele>
        <time>2020-06-06T10:49:50Z</time>
      </trkpt>
      <trkpt lat="47.61704" lon="-2.62212">
        <ele>25.5</ele>
        <time>2020-06-06T10:49:51Z</time>
      </trkpt>
      <trkpt lat="47.61707" lon="-2.62217">
        <ele>25.5</ele>
        <time>2020-06-06T10:49:52Z</time>
      </trkpt>
      <trkpt lat="47.61711" lon="-2.62222">
        <ele>25.6</ele>
        <time>2020-06-06T10:49:53Z</time>
      </trkpt>
      <trkpt lat="47.61714" lon="-2.62228">
        <ele>25.6</ele>
        <time>2020-06-06T10:49:54Z</time>
      </trkpt>
      <trkpt lat="47.61717" lon="-2.62233">
        <ele>25.7</ele>
        <time>2020-06-06T10:49:55Z</time>
      </trkpt>
      <trkpt lat="47.61721" lon="-2.62238">
        <ele>25.8</ele>
        <time>2020-06-06T10:49:56Z</time>
      </trkpt>
      <trkpt lat="47.61724" lon="-2.62243">
        <ele>25.8</ele>
        <time>2020-06-06T10:49:57Z</time>
      </trkpt>
      <trkpt lat="47.61727" lon="-2.62249">
        <ele>25.9</ele>
        <time>2020-06-06T10:49:58Z</time>
      </trkpt>
      <trkpt lat="47.61731" lon="-2.62254">
        <ele>25.9</ele>
        <time>2020-06-06T10:49:59Z</time>
      </trkpt>
      <trkpt lat="47.61734" lon="-2.6226">
        <ele>25.9</ele>
        <time>2020-06-06T10:50:00Z</time>
      </trkpt>
      <trkpt lat="47.61737" lon="-2.62267">
        <ele>26</ele>
        <time>2020-06-06T10:50:01Z</time>
      </trkpt>
      <trkpt lat="47.6174" lon="-2.62271">
        <ele>26</ele>
        <time>2020-06-06T10:50:02Z</time>
      </trkpt>
      <trkpt lat="47.61744" lon="-2.62277">
        <ele>26</ele>
        <time>2020-06-06T10:50:03Z</time>
      </trkpt>
      <trkpt lat="47.61749" lon="-2.62281">
        <ele>26</ele>
        <time>2020-06-06T10:50:04Z</time>
      </trkpt>
      <trkpt lat="47.61753" lon="-2.62287">
        <ele>25.9</ele>
        <time>2020-06-06T10:50:05Z</time>
      </trkpt>
      <trkpt lat="47.61757" lon="-2.62292">
        <ele>25.9</ele>
        <time>2020-06-06T10:50:06Z</time>
      </trkpt>
      <trkpt lat="47.61761" lon="-2.62298">
        <ele>25.9</ele>
        <time>2020-06-06T10:50:07Z</time>
      </trkpt>
      <trkpt lat="47.61765" lon="-2.62304">
        <ele>25.9</ele>
        <time>2020-06-06T10:50:08Z</time>
      </trkpt>
      <trkpt lat="47.6177" lon="-2.62309">
        <ele>25.9</ele>
        <time>2020-06-06T10:50:09Z</time>
      </trkpt>
      <trkpt lat="47.61774" lon="-2.62317">
        <ele>25.8</ele>
        <time>2020-06-06T10:50:10Z</time>
      </trkpt>
      <trkpt lat="47.61777" lon="-2.62323">
        <ele>25.7</ele>
        <time>2020-06-06T10:50:11Z</time>
      </trkpt>
      <trkpt lat="47.61782" lon="-2.62329">
        <ele>25.7</ele>
        <time>2020-06-06T10:50:12Z</time>
      </trkpt>
      <trkpt lat="47.61786" lon="-2.62336">
        <ele>25.6</ele>
        <time>2020-06-06T10:50:13Z</time>
      </trkpt>
      <trkpt lat="47.6179" lon="-2.62343">
        <ele>25.5</ele>
        <time>2020-06-06T10:50:14Z</time>
      </trkpt>
      <trkpt lat="47.61795" lon="-2.62349">
        <ele>25.3</ele>
        <time>2020-06-06T10:50:15Z</time>
      </trkpt>
      <trkpt lat="47.618" lon="-2.62355">
        <ele>25.2</ele>
        <time>2020-06-06T10:50:16Z</time>
      </trkpt>
      <trkpt lat="47.61804" lon="-2.62361">
        <ele>25.1</ele>
        <time>2020-06-06T10:50:17Z</time>
      </trkpt>
      <trkpt lat="47.6181" lon="-2.62367">
        <ele>24.9</ele>
        <time>2020-06-06T10:50:18Z</time>
      </trkpt>
      <trkpt lat="47.61815" lon="-2.62373">
        <ele>24.8</ele>
        <time>2020-06-06T10:50:19Z</time>
      </trkpt>
      <trkpt lat="47.6182" lon="-2.62381">
        <ele>24.6</ele>
        <time>2020-06-06T10:50:20Z</time>
      </trkpt>
      <trkpt lat="47.61824" lon="-2.62388">
        <ele>24.5</ele>
        <time>2020-06-06T10:50:21Z</time>
      </trkpt>
      <trkpt lat="47.61829" lon="-2.62397">
        <ele>24.4</ele>
        <time>2020-06-06T10:50:22Z</time>
      </trkpt>
      <trkpt lat="47.61833" lon="-2.62405">
        <ele>24.3</ele>
        <time>2020-06-06T10:50:23Z</time>
      </trkpt>
      <trkpt lat="47.61838" lon="-2.62413">
        <ele>24.2</ele>
        <time>2020-06-06T10:50:24Z</time>
      </trkpt>
      <trkpt lat="47.61843" lon="-2.62422">
        <ele>24</ele>
        <time>2020-06-06T10:50:25Z</time>
      </trkpt>
      <trkpt lat="47.61849" lon="-2.6243">
        <ele>23.8</ele>
        <time>2020-06-06T10:50:26Z</time>
      </trkpt>
      <trkpt lat="47.61854" lon="-2.62439">
        <ele>23.6</ele>
        <time>2020-06-06T10:50:27Z</time>
      </trkpt>
      <trkpt lat="47.61859" lon="-2.62447">
        <ele>23.5</ele>
        <time>2020-06-06T10:50:28Z</time>
      </trkpt>
      <trkpt lat="47.61864" lon="-2.62455">
        <ele>23.4</ele>
        <time>2020-06-06T10:50:29Z</time>
      </trkpt>
      <trkpt lat="47.61869" lon="-2.62462">
        <ele>23.4</ele>
        <time>2020-06-06T10:50:30Z</time>
      </trkpt>
      <trkpt lat="47.61873" lon="-2.62469">
        <ele>23.4</ele>
        <time>2020-06-06T10:50:31Z</time>
      </trkpt>
      <trkpt lat="47.61878" lon="-2.62476">
        <ele>23.4</ele>
        <time>2020-06-06T10:50:32Z</time>
      </trkpt>
      <trkpt lat="47.61883" lon="-2.62483">
        <ele>23.4</ele>
        <time>2020-06-06T10:50:33Z</time>
      </trkpt>
      <trkpt lat="47.61887" lon="-2.62491">
        <ele>23.5</ele>
        <time>2020-06-06T10:50:34Z</time>
      </trkpt>
      <trkpt lat="47.61892" lon="-2.62498">
        <ele>23.5</ele>
        <time>2020-06-06T10:50:35Z</time>
      </trkpt>
      <trkpt lat="47.61897" lon="-2.62505">
        <ele>23.6</ele>
        <time>2020-06-06T10:50:36Z</time>
      </trkpt>
      <trkpt lat="47.61901" lon="-2.62512">
        <ele>23.6</ele>
        <time>2020-06-06T10:50:37Z</time>
      </trkpt>
      <trkpt lat="47.61906" lon="-2.62519">
        <ele>23.7</ele>
        <time>2020-06-06T10:50:38Z</time>
      </trkpt>
      <trkpt lat="47.6191" lon="-2.62526">
        <ele>23.9</ele>
        <time>2020-06-06T10:50:39Z</time>
      </trkpt>
      <trkpt lat="47.61914" lon="-2.62533">
        <ele>24</ele>
        <time>2020-06-06T10:50:40Z</time>
      </trkpt>
      <trkpt lat="47.61918" lon="-2.62539">
        <ele>24.1</ele>
        <time>2020-06-06T10:50:41Z</time>
      </trkpt>
      <trkpt lat="47.61922" lon="-2.62546">
        <ele>24.3</ele>
        <time>2020-06-06T10:50:42Z</time>
      </trkpt>
      <trkpt lat="47.61927" lon="-2.62552">
        <ele>24.4</ele>
        <time>2020-06-06T10:50:43Z</time>
      </trkpt>
      <trkpt lat="47.61932" lon="-2.62559">
        <ele>24.6</ele>
        <time>2020-06-06T10:50:44Z</time>
      </trkpt>
      <trkpt lat="47.61936" lon="-2.62565">
        <ele>24.7</ele>
        <time>2020-06-06T10:50:45Z</time>
      </trkpt>
      <trkpt lat="47.61939" lon="-2.62572">
        <ele>24.8</ele>
        <time>2020-06-06T10:50:46Z</time>
      </trkpt>
      <trkpt lat="47.61943" lon="-2.62579">
        <ele>24.9</ele>
        <time>2020-06-06T10:50:47Z</time>
      </trkpt>
      <trkpt lat="47.61947" lon="-2.62586">
        <ele>25.1</ele>
        <time>2020-06-06T10:50:48Z</time>
      </trkpt>
      <trkpt lat="47.61951" lon="-2.62593">
        <ele>25.2</ele>
        <time>2020-06-06T10:50:49Z</time>
      </trkpt>
      <trkpt lat="47.61956" lon="-2.62599">
        <ele>25.3</ele>
        <time>2020-06-06T10:50:50Z</time>
      </trkpt>
      <trkpt lat="47.61961" lon="-2.62604">
        <ele>25.4</ele>
        <time>2020-06-06T10:50:51Z</time>
      </trkpt>
      <trkpt lat="47.61966" lon="-2.6261">
        <ele>25.6</ele>
        <time>2020-06-06T10:50:52Z</time>
      </trkpt>
      <trkpt lat="47.6197" lon="-2.62616">
        <ele>25.6</ele>
        <time>2020-06-06T10:50:53Z</time>
      </trkpt>
      <trkpt lat="47.61974" lon="-2.62623">
        <ele>25.7</ele>
        <time>2020-06-06T10:50:54Z</time>
      </trkpt>
      <trkpt lat="47.61978" lon="-2.62628">
        <ele>25.8</ele>
        <time>2020-06-06T10:50:55Z</time>
      </trkpt>
      <trkpt lat="47.61981" lon="-2.62634">
        <ele>25.9</ele>
        <time>2020-06-06T10:50:56Z</time>
      </trkpt>
      <trkpt lat="47.61985" lon="-2.6264">
        <ele>26</ele>
        <time>2020-06-06T10:50:57Z</time>
      </trkpt>
      <trkpt lat="47.6199" lon="-2.62644">
        <ele>26</ele>
        <time>2020-06-06T10:50:58Z</time>
      </trkpt>
      <trkpt lat="47.61993" lon="-2.62649">
        <ele>26.1</ele>
        <time>2020-06-06T10:50:59Z</time>
      </trkpt>
      <trkpt lat="47.61996" lon="-2.62653">
        <ele>26.1</ele>
        <time>2020-06-06T10:51:00Z</time>
      </trkpt>
      <trkpt lat="47.61999" lon="-2.62657">
        <ele>26.1</ele>
        <time>2020-06-06T10:51:01Z</time>
      </trkpt>
      <trkpt lat="47.62003" lon="-2.6266">
        <ele>26.2</ele>
        <time>2020-06-06T10:51:02Z</time>
      </trkpt>
      <trkpt lat="47.62006" lon="-2.62664">
        <ele>26.2</ele>
        <time>2020-06-06T10:51:03Z</time>
      </trkpt>
      <trkpt lat="47.62008" lon="-2.62668">
        <ele>26.2</ele>
        <time>2020-06-06T10:51:04Z</time>
      </trkpt>
      <trkpt lat="47.62011" lon="-2.62672">
        <ele>26.2</ele>
        <time>2020-06-06T10:51:05Z</time>
      </trkpt>
      <trkpt lat="47.62013" lon="-2.62675">
        <ele>26.2</ele>
        <time>2020-06-06T10:51:06Z</time>
      </trkpt>
      <trkpt lat="47.62015" lon="-2.62679">
        <ele>26.3</ele>
        <time>2020-06-06T10:51:07Z</time>
      </trkpt>
      <trkpt lat="47.62018" lon="-2.62682">
        <ele>26.3</ele>
        <time>2020-06-06T10:51:08Z</time>
      </trkpt>
      <trkpt lat="47.6202" lon="-2.62686">
        <ele>26.3</ele>
        <time>2020-06-06T10:51:09Z</time>
      </trkpt>
      <trkpt lat="47.62023" lon="-2.6269">
        <ele>26.3</ele>
        <time>2020-06-06T10:51:10Z</time>
      </trkpt>
      <trkpt lat="47.62025" lon="-2.62693">
        <ele>26.3</ele>
        <time>2020-06-06T10:51:11Z</time>
      </trkpt>
      <trkpt lat="47.62027" lon="-2.62698">
        <ele>26.2</ele>
        <time>2020-06-06T10:51:12Z</time>
      </trkpt>
      <trkpt lat="47.62029" lon="-2.62702">
        <ele>26.2</ele>
        <time>2020-06-06T10:51:13Z</time>
      </trkpt>
      <trkpt lat="47.62032" lon="-2.62706">
        <ele>26.2</ele>
        <time>2020-06-06T10:51:14Z</time>
      </trkpt>
      <trkpt lat="47.62034" lon="-2.6271">
        <ele>26.2</ele>
        <time>2020-06-06T10:51:15Z</time>
      </trkpt>
      <trkpt lat="47.62037" lon="-2.62714">
        <ele>26.2</ele>
        <time>2020-06-06T10:51:16Z</time>
      </trkpt>
      <trkpt lat="47.62039" lon="-2.62718">
        <ele>26.2</ele>
        <time>2020-06-06T10:51:17Z</time>
      </trkpt>
      <trkpt lat="47.62041" lon="-2.62722">
        <ele>26.2</ele>
        <time>2020-06-06T10:51:18Z</time>
      </trkpt>
      <trkpt lat="47.62043" lon="-2.62726">
        <ele>26.1</ele>
        <time>2020-06-06T10:51:19Z</time>
      </trkpt>
      <trkpt lat="47.62045" lon="-2.6273">
        <ele>26.1</ele>
        <time>2020-06-06T10:51:20Z</time>
      </trkpt>
      <trkpt lat="47.62047" lon="-2.62733">
        <ele>26.1</ele>
        <time>2020-06-06T10:51:21Z</time>
      </trkpt>
      <trkpt lat="47.62049" lon="-2.62737">
        <ele>26</ele>
        <time>2020-06-06T10:51:22Z</time>
      </trkpt>
      <trkpt lat="47.62051" lon="-2.6274">
        <ele>26</ele>
        <time>2020-06-06T10:51:23Z</time>
      </trkpt>
      <trkpt lat="47.62054" lon="-2.62744">
        <ele>25.9</ele>
        <time>2020-06-06T10:51:24Z</time>
      </trkpt>
      <trkpt lat="47.62058" lon="-2.62746">
        <ele>25.9</ele>
        <time>2020-06-06T10:51:25Z</time>
      </trkpt>
      <trkpt lat="47.62061" lon="-2.6275">
        <ele>25.8</ele>
        <time>2020-06-06T10:51:26Z</time>
      </trkpt>
      <trkpt lat="47.62064" lon="-2.62753">
        <ele>25.7</ele>
        <time>2020-06-06T10:51:27Z</time>
      </trkpt>
      <trkpt lat="47.62067" lon="-2.62757">
        <ele>25.7</ele>
        <time>2020-06-06T10:51:28Z</time>
      </trkpt>
      <trkpt lat="47.6207" lon="-2.6276">
        <ele>25.6</ele>
        <time>2020-06-06T10:51:29Z</time>
      </trkpt>
      <trkpt lat="47.62073" lon="-2.62764">
        <ele>25.6</ele>
        <time>2020-06-06T10:51:30Z</time>
      </trkpt>
      <trkpt lat="47.62075" lon="-2.62768">
        <ele>25.6</ele>
        <time>2020-06-06T10:51:31Z</time>
      </trkpt>
      <trkpt lat="47.62078" lon="-2.6277">
        <ele>25.5</ele>
        <time>2020-06-06T10:51:32Z</time>
      </trkpt>
      <trkpt lat="47.62081" lon="-2.62774">
        <ele>25.5</ele>
        <time>2020-06-06T10:51:33Z</time>
      </trkpt>
      <trkpt lat="47.62084" lon="-2.62778">
        <ele>25.4</ele>
        <time>2020-06-06T10:51:34Z</time>
      </trkpt>
      <trkpt lat="47.62085" lon="-2.62783">
        <ele>25.4</ele>
        <time>2020-06-06T10:51:35Z</time>
      </trkpt>
      <trkpt lat="47.62088" lon="-2.62787">
        <ele>25.4</ele>
        <time>2020-06-06T10:51:36Z</time>
      </trkpt>
      <trkpt lat="47.62091" lon="-2.62792">
        <ele>25.3</ele>
        <time>2020-06-06T10:51:37Z</time>
      </trkpt>
      <trkpt lat="47.62094" lon="-2.62797">
        <ele>25.3</ele>
        <time>2020-06-06T10:51:38Z</time>
      </trkpt>
      <trkpt lat="47.62097" lon="-2.62802">
        <ele>25.2</ele>
        <time>2020-06-06T10:51:39Z</time>
      </trkpt>
      <trkpt lat="47.62099" lon="-2.62808">
        <ele>25.2</ele>
        <time>2020-06-06T10:51:40Z</time>
      </trkpt>
      <trkpt lat="47.62102" lon="-2.62814">
        <ele>25.1</ele>
        <time>2020-06-06T10:51:41Z</time>
      </trkpt>
      <trkpt lat="47.62107" lon="-2.62818">
        <ele>25</ele>
        <time>2020-06-06T10:51:42Z</time>
      </trkpt>
      <trkpt lat="47.62111" lon="-2.62822">
        <ele>25</ele>
        <time>2020-06-06T10:51:43Z</time>
      </trkpt>
      <trkpt lat="47.62115" lon="-2.62826">
        <ele>24.9</ele>
        <time>2020-06-06T10:51:44Z</time>
      </trkpt>
      <trkpt lat="47.62117" lon="-2.62832">
        <ele>24.9</ele>
        <time>2020-06-06T10:51:45Z</time>
      </trkpt>
      <trkpt lat="47.62121" lon="-2.62837">
        <ele>24.8</ele>
        <time>2020-06-06T10:51:46Z</time>
      </trkpt>
      <trkpt lat="47.62125" lon="-2.62841">
        <ele>24.8</ele>
        <time>2020-06-06T10:51:47Z</time>
      </trkpt>
      <trkpt lat="47.62128" lon="-2.62845">
        <ele>24.7</ele>
        <time>2020-06-06T10:51:48Z</time>
      </trkpt>
      <trkpt lat="47.62132" lon="-2.6285">
        <ele>24.7</ele>
        <time>2020-06-06T10:51:49Z</time>
      </trkpt>
      <trkpt lat="47.62135" lon="-2.62855">
        <ele>24.6</ele>
        <time>2020-06-06T10:51:50Z</time>
      </trkpt>
      <trkpt lat="47.62137" lon="-2.62862">
        <ele>24.5</ele>
        <time>2020-06-06T10:51:51Z</time>
      </trkpt>
      <trkpt lat="47.62141" lon="-2.62867">
        <ele>24.4</ele>
        <time>2020-06-06T10:51:52Z</time>
      </trkpt>
      <trkpt lat="47.62145" lon="-2.62873">
        <ele>24.4</ele>
        <time>2020-06-06T10:51:53Z</time>
      </trkpt>
      <trkpt lat="47.62149" lon="-2.62877">
        <ele>24.3</ele>
        <time>2020-06-06T10:51:54Z</time>
      </trkpt>
      <trkpt lat="47.62152" lon="-2.62883">
        <ele>24.2</ele>
        <time>2020-06-06T10:51:55Z</time>
      </trkpt>
      <trkpt lat="47.62157" lon="-2.62889">
        <ele>24.1</ele>
        <time>2020-06-06T10:51:56Z</time>
      </trkpt>
      <trkpt lat="47.62161" lon="-2.62894">
        <ele>24</ele>
        <time>2020-06-06T10:51:57Z</time>
      </trkpt>
      <trkpt lat="47.62165" lon="-2.629">
        <ele>24</ele>
        <time>2020-06-06T10:51:58Z</time>
      </trkpt>
      <trkpt lat="47.62169" lon="-2.62905">
        <ele>23.9</ele>
        <time>2020-06-06T10:51:59Z</time>
      </trkpt>
      <trkpt lat="47.62173" lon="-2.62911">
        <ele>23.8</ele>
        <time>2020-06-06T10:52:00Z</time>
      </trkpt>
      <trkpt lat="47.62177" lon="-2.62916">
        <ele>23.7</ele>
        <time>2020-06-06T10:52:01Z</time>
      </trkpt>
      <trkpt lat="47.62182" lon="-2.62921">
        <ele>23.7</ele>
        <time>2020-06-06T10:52:02Z</time>
      </trkpt>
      <trkpt lat="47.62186" lon="-2.62927">
        <ele>23.6</ele>
        <time>2020-06-06T10:52:03Z</time>
      </trkpt>
      <trkpt lat="47.6219" lon="-2.62934">
        <ele>23.5</ele>
        <time>2020-06-06T10:52:04Z</time>
      </trkpt>
      <trkpt lat="47.62195" lon="-2.6294">
        <ele>23.4</ele>
        <time>2020-06-06T10:52:05Z</time>
      </trkpt>
      <trkpt lat="47.62199" lon="-2.62945">
        <ele>23.3</ele>
        <time>2020-06-06T10:52:06Z</time>
      </trkpt>
      <trkpt lat="47.62204" lon="-2.6295">
        <ele>23.3</ele>
        <time>2020-06-06T10:52:07Z</time>
      </trkpt>
      <trkpt lat="47.62208" lon="-2.62956">
        <ele>23.2</ele>
        <time>2020-06-06T10:52:08Z</time>
      </trkpt>
      <trkpt lat="47.62212" lon="-2.62961">
        <ele>23.1</ele>
        <time>2020-06-06T10:52:09Z</time>
      </trkpt>
      <trkpt lat="47.62216" lon="-2.62967">
        <ele>23</ele>
        <time>2020-06-06T10:52:10Z</time>
      </trkpt>
      <trkpt lat="47.62221" lon="-2.62971">
        <ele>22.9</ele>
        <time>2020-06-06T10:52:11Z</time>
      </trkpt>
      <trkpt lat="47.62226" lon="-2.62976">
        <ele>22.8</ele>
        <time>2020-06-06T10:52:12Z</time>
      </trkpt>
      <trkpt lat="47.62231" lon="-2.62982">
        <ele>22.7</ele>
        <time>2020-06-06T10:52:13Z</time>
      </trkpt>
      <trkpt lat="47.62235" lon="-2.62988">
        <ele>22.6</ele>
        <time>2020-06-06T10:52:14Z</time>
      </trkpt>
      <trkpt lat="47.6224" lon="-2.62995">
        <ele>22.5</ele>
        <time>2020-06-06T10:52:15Z</time>
      </trkpt>
      <trkpt lat="47.62245" lon="-2.63">
        <ele>22.4</ele>
        <time>2020-06-06T10:52:16Z</time>
      </trkpt>
      <trkpt lat="47.6225" lon="-2.63006">
        <ele>22.2</ele>
        <time>2020-06-06T10:52:17Z</time>
      </trkpt>
      <trkpt lat="47.62256" lon="-2.63012">
        <ele>22.1</ele>
        <time>2020-06-06T10:52:18Z</time>
      </trkpt>
      <trkpt lat="47.62261" lon="-2.63017">
        <ele>22</ele>
        <time>2020-06-06T10:52:19Z</time>
      </trkpt>
      <trkpt lat="47.62266" lon="-2.63023">
        <ele>21.8</ele>
        <time>2020-06-06T10:52:20Z</time>
      </trkpt>
      <trkpt lat="47.62272" lon="-2.63029">
        <ele>21.6</ele>
        <time>2020-06-06T10:52:21Z</time>
      </trkpt>
      <trkpt lat="47.62277" lon="-2.63034">
        <ele>21.5</ele>
        <time>2020-06-06T10:52:22Z</time>
      </trkpt>
      <trkpt lat="47.62283" lon="-2.63039">
        <ele>21.3</ele>
        <time>2020-06-06T10:52:23Z</time>
      </trkpt>
      <trkpt lat="47.62289" lon="-2.63044">
        <ele>21.1</ele>
        <time>2020-06-06T10:52:24Z</time>
      </trkpt>
      <trkpt lat="47.62295" lon="-2.6305">
        <ele>20.8</ele>
        <time>2020-06-06T10:52:25Z</time>
      </trkpt>
      <trkpt lat="47.62301" lon="-2.63055">
        <ele>20.5</ele>
        <time>2020-06-06T10:52:26Z</time>
      </trkpt>
      <trkpt lat="47.62307" lon="-2.6306">
        <ele>20.3</ele>
        <time>2020-06-06T10:52:27Z</time>
      </trkpt>
      <trkpt lat="47.62313" lon="-2.63065">
        <ele>20.3</ele>
        <time>2020-06-06T10:52:28Z</time>
      </trkpt>
      <trkpt lat="47.6232" lon="-2.6307">
        <ele>20</ele>
        <time>2020-06-06T10:52:29Z</time>
      </trkpt>
      <trkpt lat="47.62326" lon="-2.63074">
        <ele>19.7</ele>
        <time>2020-06-06T10:52:30Z</time>
      </trkpt>
      <trkpt lat="47.62333" lon="-2.63079">
        <ele>19.4</ele>
        <time>2020-06-06T10:52:31Z</time>
      </trkpt>
      <trkpt lat="47.62339" lon="-2.63084">
        <ele>19.1</ele>
        <time>2020-06-06T10:52:32Z</time>
      </trkpt>
      <trkpt lat="47.62345" lon="-2.63089">
        <ele>18.8</ele>
        <time>2020-06-06T10:52:33Z</time>
      </trkpt>
      <trkpt lat="47.62351" lon="-2.63094">
        <ele>18.6</ele>
        <time>2020-06-06T10:52:34Z</time>
      </trkpt>
      <trkpt lat="47.62358" lon="-2.63099">
        <ele>18.3</ele>
        <time>2020-06-06T10:52:35Z</time>
      </trkpt>
      <trkpt lat="47.62365" lon="-2.63103">
        <ele>18</ele>
        <time>2020-06-06T10:52:36Z</time>
      </trkpt>
      <trkpt lat="47.62372" lon="-2.63108">
        <ele>17.7</ele>
        <time>2020-06-06T10:52:37Z</time>
      </trkpt>
      <trkpt lat="47.62378" lon="-2.63113">
        <ele>17.3</ele>
        <time>2020-06-06T10:52:38Z</time>
      </trkpt>
      <trkpt lat="47.62385" lon="-2.63118">
        <ele>16.9</ele>
        <time>2020-06-06T10:52:39Z</time>
      </trkpt>
      <trkpt lat="47.62392" lon="-2.63124">
        <ele>16.6</ele>
        <time>2020-06-06T10:52:40Z</time>
      </trkpt>
      <trkpt lat="47.62399" lon="-2.63129">
        <ele>16.2</ele>
        <time>2020-06-06T10:52:41Z</time>
      </trkpt>
      <trkpt lat="47.62406" lon="-2.63133">
        <ele>15.9</ele>
        <time>2020-06-06T10:52:42Z</time>
      </trkpt>
      <trkpt lat="47.62414" lon="-2.63138">
        <ele>15.6</ele>
        <time>2020-06-06T10:52:43Z</time>
      </trkpt>
      <trkpt lat="47.62421" lon="-2.63143">
        <ele>15.3</ele>
        <time>2020-06-06T10:52:44Z</time>
      </trkpt>
      <trkpt lat="47.62429" lon="-2.63148">
        <ele>14.9</ele>
        <time>2020-06-06T10:52:45Z</time>
      </trkpt>
      <trkpt lat="47.62437" lon="-2.63154">
        <ele>14.5</ele>
        <time>2020-06-06T10:52:46Z</time>
      </trkpt>
      <trkpt lat="47.62444" lon="-2.63159">
        <ele>14.1</ele>
        <time>2020-06-06T10:52:47Z</time>
      </trkpt>
      <trkpt lat="47.62452" lon="-2.63165">
        <ele>13.7</ele>
        <time>2020-06-06T10:52:48Z</time>
      </trkpt>
      <trkpt lat="47.6246" lon="-2.6317">
        <ele>13.4</ele>
        <time>2020-06-06T10:52:49Z</time>
      </trkpt>
      <trkpt lat="47.62468" lon="-2.63177">
        <ele>13.2</ele>
        <time>2020-06-06T10:52:50Z</time>
      </trkpt>
      <trkpt lat="47.62476" lon="-2.63183">
        <ele>12.9</ele>
        <time>2020-06-06T10:52:51Z</time>
      </trkpt>
      <trkpt lat="47.62484" lon="-2.63188">
        <ele>12.7</ele>
        <time>2020-06-06T10:52:52Z</time>
      </trkpt>
      <trkpt lat="47.62492" lon="-2.63195">
        <ele>12.6</ele>
        <time>2020-06-06T10:52:53Z</time>
      </trkpt>
      <trkpt lat="47.62499" lon="-2.63202">
        <ele>12.5</ele>
        <time>2020-06-06T10:52:54Z</time>
      </trkpt>
      <trkpt lat="47.62505" lon="-2.63211">
        <ele>12.5</ele>
        <time>2020-06-06T10:52:55Z</time>
      </trkpt>
      <trkpt lat="47.62512" lon="-2.63217">
        <ele>12.5</ele>
        <time>2020-06-06T10:52:56Z</time>
      </trkpt>
      <trkpt lat="47.62519" lon="-2.63224">
        <ele>12.6</ele>
        <time>2020-06-06T10:52:57Z</time>
      </trkpt>
      <trkpt lat="47.62526" lon="-2.6323">
        <ele>12.6</ele>
        <time>2020-06-06T10:52:58Z</time>
      </trkpt>
      <trkpt lat="47.62532" lon="-2.63236">
        <ele>12.7</ele>
        <time>2020-06-06T10:52:59Z</time>
      </trkpt>
      <trkpt lat="47.62538" lon="-2.63243">
        <ele>12.8</ele>
        <time>2020-06-06T10:53:00Z</time>
      </trkpt>
      <trkpt lat="47.62544" lon="-2.63249">
        <ele>12.9</ele>
        <time>2020-06-06T10:53:01Z</time>
      </trkpt>
      <trkpt lat="47.6255" lon="-2.63255">
        <ele>13.1</ele>
        <time>2020-06-06T10:53:02Z</time>
      </trkpt>
      <trkpt lat="47.62556" lon="-2.63261">
        <ele>13.2</ele>
        <time>2020-06-06T10:53:03Z</time>
      </trkpt>
      <trkpt lat="47.62561" lon="-2.63267">
        <ele>13.4</ele>
        <time>2020-06-06T10:53:04Z</time>
      </trkpt>
      <trkpt lat="47.62567" lon="-2.63272">
        <ele>13.5</ele>
        <time>2020-06-06T10:53:05Z</time>
      </trkpt>
      <trkpt lat="47.62573" lon="-2.63277">
        <ele>13.7</ele>
        <time>2020-06-06T10:53:06Z</time>
      </trkpt>
      <trkpt lat="47.62578" lon="-2.63282">
        <ele>13.8</ele>
        <time>2020-06-06T10:53:07Z</time>
      </trkpt>
      <trkpt lat="47.62584" lon="-2.63287">
        <ele>14</ele>
        <time>2020-06-06T10:53:08Z</time>
      </trkpt>
      <trkpt lat="47.6259" lon="-2.63293">
        <ele>14.1</ele>
        <time>2020-06-06T10:53:09Z</time>
      </trkpt>
      <trkpt lat="47.62595" lon="-2.63299">
        <ele>14.2</ele>
        <time>2020-06-06T10:53:10Z</time>
      </trkpt>
      <trkpt lat="47.62601" lon="-2.63304">
        <ele>14.3</ele>
        <time>2020-06-06T10:53:11Z</time>
      </trkpt>
      <trkpt lat="47.62607" lon="-2.63309">
        <ele>14.3</ele>
        <time>2020-06-06T10:53:12Z</time>
      </trkpt>
      <trkpt lat="47.62612" lon="-2.63315">
        <ele>14.4</ele>
        <time>2020-06-06T10:53:13Z</time>
      </trkpt>
      <trkpt lat="47.62617" lon="-2.6332">
        <ele>14.5</ele>
        <time>2020-06-06T10:53:14Z</time>
      </trkpt>
      <trkpt lat="47.62623" lon="-2.63326">
        <ele>14.5</ele>
        <time>2020-06-06T10:53:15Z</time>
      </trkpt>
      <trkpt lat="47.62628" lon="-2.63331">
        <ele>14.6</ele>
        <time>2020-06-06T10:53:16Z</time>
      </trkpt>
      <trkpt lat="47.62633" lon="-2.63336">
        <ele>14.6</ele>
        <time>2020-06-06T10:53:17Z</time>
      </trkpt>
      <trkpt lat="47.62638" lon="-2.63341">
        <ele>14.6</ele>
        <time>2020-06-06T10:53:18Z</time>
      </trkpt>
      <trkpt lat="47.62643" lon="-2.63346">
        <ele>14.6</ele>
        <time>2020-06-06T10:53:19Z</time>
      </trkpt>
      <trkpt lat="47.62648" lon="-2.63352">
        <ele>14.5</ele>
        <time>2020-06-06T10:53:20Z</time>
      </trkpt>
      <trkpt lat="47.62653" lon="-2.63357">
        <ele>14.5</ele>
        <time>2020-06-06T10:53:21Z</time>
      </trkpt>
      <trkpt lat="47.62658" lon="-2.63361">
        <ele>14.4</ele>
        <time>2020-06-06T10:53:22Z</time>
      </trkpt>
      <trkpt lat="47.62663" lon="-2.63366">
        <ele>14.3</ele>
        <time>2020-06-06T10:53:23Z</time>
      </trkpt>
      <trkpt lat="47.62668" lon="-2.63371">
        <ele>14.2</ele>
        <time>2020-06-06T10:53:24Z</time>
      </trkpt>
      <trkpt lat="47.62673" lon="-2.63376">
        <ele>14.2</ele>
        <time>2020-06-06T10:53:25Z</time>
      </trkpt>
      <trkpt lat="47.62677" lon="-2.63383">
        <ele>14.1</ele>
        <time>2020-06-06T10:53:26Z</time>
      </trkpt>
      <trkpt lat="47.62681" lon="-2.63389">
        <ele>14.1</ele>
        <time>2020-06-06T10:53:27Z</time>
      </trkpt>
      <trkpt lat="47.62685" lon="-2.63393">
        <ele>14</ele>
        <time>2020-06-06T10:53:28Z</time>
      </trkpt>
      <trkpt lat="47.62689" lon="-2.63398">
        <ele>14</ele>
        <time>2020-06-06T10:53:29Z</time>
      </trkpt>
      <trkpt lat="47.62695" lon="-2.63401">
        <ele>13.9</ele>
        <time>2020-06-06T10:53:30Z</time>
      </trkpt>
      <trkpt lat="47.62699" lon="-2.63406">
        <ele>13.8</ele>
        <time>2020-06-06T10:53:31Z</time>
      </trkpt>
      <trkpt lat="47.62704" lon="-2.63411">
        <ele>13.7</ele>
        <time>2020-06-06T10:53:32Z</time>
      </trkpt>
      <trkpt lat="47.62709" lon="-2.63417">
        <ele>13.6</ele>
        <time>2020-06-06T10:53:33Z</time>
      </trkpt>
      <trkpt lat="47.62714" lon="-2.63422">
        <ele>13.5</ele>
        <time>2020-06-06T10:53:34Z</time>
      </trkpt>
      <trkpt lat="47.62719" lon="-2.63427">
        <ele>13.4</ele>
        <time>2020-06-06T10:53:35Z</time>
      </trkpt>
      <trkpt lat="47.62724" lon="-2.63432">
        <ele>13.3</ele>
        <time>2020-06-06T10:53:36Z</time>
      </trkpt>
      <trkpt lat="47.62729" lon="-2.63438">
        <ele>13.1</ele>
        <time>2020-06-06T10:53:37Z</time>
      </trkpt>
      <trkpt lat="47.62734" lon="-2.63443">
        <ele>13</ele>
        <time>2020-06-06T10:53:38Z</time>
      </trkpt>
      <trkpt lat="47.62739" lon="-2.63448">
        <ele>12.9</ele>
        <time>2020-06-06T10:53:39Z</time>
      </trkpt>
      <trkpt lat="47.62745" lon="-2.63452">
        <ele>12.8</ele>
        <time>2020-06-06T10:53:40Z</time>
      </trkpt>
      <trkpt lat="47.6275" lon="-2.63456">
        <ele>12.7</ele>
        <time>2020-06-06T10:53:41Z</time>
      </trkpt>
      <trkpt lat="47.62755" lon="-2.63461">
        <ele>12.6</ele>
        <time>2020-06-06T10:53:42Z</time>
      </trkpt>
      <trkpt lat="47.6276" lon="-2.63466">
        <ele>12.5</ele>
        <time>2020-06-06T10:53:43Z</time>
      </trkpt>
      <trkpt lat="47.62765" lon="-2.6347">
        <ele>12.4</ele>
        <time>2020-06-06T10:53:44Z</time>
      </trkpt>
      <trkpt lat="47.62769" lon="-2.63475">
        <ele>12.3</ele>
        <time>2020-06-06T10:53:45Z</time>
      </trkpt>
      <trkpt lat="47.62774" lon="-2.6348">
        <ele>12.3</ele>
        <time>2020-06-06T10:53:46Z</time>
      </trkpt>
      <trkpt lat="47.62779" lon="-2.63484">
        <ele>12.2</ele>
        <time>2020-06-06T10:53:47Z</time>
      </trkpt>
      <trkpt lat="47.62785" lon="-2.63489">
        <ele>12.1</ele>
        <time>2020-06-06T10:53:48Z</time>
      </trkpt>
      <trkpt lat="47.6279" lon="-2.63493">
        <ele>12</ele>
        <time>2020-06-06T10:53:49Z</time>
      </trkpt>
      <trkpt lat="47.62795" lon="-2.63497">
        <ele>11.9</ele>
        <time>2020-06-06T10:53:50Z</time>
      </trkpt>
      <trkpt lat="47.62801" lon="-2.63501">
        <ele>11.8</ele>
        <time>2020-06-06T10:53:51Z</time>
      </trkpt>
      <trkpt lat="47.62806" lon="-2.63505">
        <ele>11.7</ele>
        <time>2020-06-06T10:53:52Z</time>
      </trkpt>
      <trkpt lat="47.62811" lon="-2.6351">
        <ele>11.6</ele>
        <time>2020-06-06T10:53:53Z</time>
      </trkpt>
      <trkpt lat="47.62816" lon="-2.63515">
        <ele>11.4</ele>
        <time>2020-06-06T10:53:54Z</time>
      </trkpt>
      <trkpt lat="47.62822" lon="-2.6352">
        <ele>11.3</ele>
        <time>2020-06-06T10:53:55Z</time>
      </trkpt>
      <trkpt lat="47.62827" lon="-2.63524">
        <ele>11.2</ele>
        <time>2020-06-06T10:53:56Z</time>
      </trkpt>
      <trkpt lat="47.62833" lon="-2.63527">
        <ele>11.1</ele>
        <time>2020-06-06T10:53:57Z</time>
      </trkpt>
      <trkpt lat="47.62838" lon="-2.6353">
        <ele>11.1</ele>
        <time>2020-06-06T10:53:58Z</time>
      </trkpt>
      <trkpt lat="47.62844" lon="-2.63534">
        <ele>11</ele>
        <time>2020-06-06T10:53:59Z</time>
      </trkpt>
      <trkpt lat="47.6285" lon="-2.63537">
        <ele>11</ele>
        <time>2020-06-06T10:54:00Z</time>
      </trkpt>
      <trkpt lat="47.62856" lon="-2.63539">
        <ele>10.9</ele>
        <time>2020-06-06T10:54:01Z</time>
      </trkpt>
      <trkpt lat="47.62861" lon="-2.63542">
        <ele>10.9</ele>
        <time>2020-06-06T10:54:02Z</time>
      </trkpt>
      <trkpt lat="47.62866" lon="-2.63546">
        <ele>10.9</ele>
        <time>2020-06-06T10:54:03Z</time>
      </trkpt>
      <trkpt lat="47.62871" lon="-2.6355">
        <ele>10.9</ele>
        <time>2020-06-06T10:54:04Z</time>
      </trkpt>
      <trkpt lat="47.62877" lon="-2.63553">
        <ele>10.9</ele>
        <time>2020-06-06T10:54:05Z</time>
      </trkpt>
      <trkpt lat="47.62882" lon="-2.63556">
        <ele>11</ele>
        <time>2020-06-06T10:54:06Z</time>
      </trkpt>
      <trkpt lat="47.62888" lon="-2.63559">
        <ele>11</ele>
        <time>2020-06-06T10:54:07Z</time>
      </trkpt>
      <trkpt lat="47.62893" lon="-2.63562">
        <ele>11.1</ele>
        <time>2020-06-06T10:54:08Z</time>
      </trkpt>
      <trkpt lat="47.62899" lon="-2.63566">
        <ele>11.1</ele>
        <time>2020-06-06T10:54:09Z</time>
      </trkpt>
      <trkpt lat="47.62904" lon="-2.6357">
        <ele>11.2</ele>
        <time>2020-06-06T10:54:10Z</time>
      </trkpt>
      <trkpt lat="47.62909" lon="-2.63573">
        <ele>11.3</ele>
        <time>2020-06-06T10:54:11Z</time>
      </trkpt>
      <trkpt lat="47.62914" lon="-2.63576">
        <ele>11.4</ele>
        <time>2020-06-06T10:54:12Z</time>
      </trkpt>
      <trkpt lat="47.62919" lon="-2.63579">
        <ele>11.6</ele>
        <time>2020-06-06T10:54:13Z</time>
      </trkpt>
      <trkpt lat="47.62924" lon="-2.63583">
        <ele>11.8</ele>
        <time>2020-06-06T10:54:14Z</time>
      </trkpt>
      <trkpt lat="47.62929" lon="-2.63585">
        <ele>12</ele>
        <time>2020-06-06T10:54:15Z</time>
      </trkpt>
      <trkpt lat="47.62933" lon="-2.63589">
        <ele>12.2</ele>
        <time>2020-06-06T10:54:16Z</time>
      </trkpt>
      <trkpt lat="47.62938" lon="-2.63592">
        <ele>12.3</ele>
        <time>2020-06-06T10:54:17Z</time>
      </trkpt>
      <trkpt lat="47.62942" lon="-2.63595">
        <ele>12.5</ele>
        <time>2020-06-06T10:54:18Z</time>
      </trkpt>
      <trkpt lat="47.62946" lon="-2.63599">
        <ele>12.7</ele>
        <time>2020-06-06T10:54:19Z</time>
      </trkpt>
      <trkpt lat="47.6295" lon="-2.63602">
        <ele>12.9</ele>
        <time>2020-06-06T10:54:20Z</time>
      </trkpt>
      <trkpt lat="47.62954" lon="-2.63606">
        <ele>13.2</ele>
        <time>2020-06-06T10:54:21Z</time>
      </trkpt>
      <trkpt lat="47.62958" lon="-2.6361">
        <ele>13.2</ele>
        <time>2020-06-06T10:54:22Z</time>
      </trkpt>
      <trkpt lat="47.62962" lon="-2.63614">
        <ele>13.2</ele>
        <time>2020-06-06T10:54:23Z</time>
      </trkpt>
      <trkpt lat="47.62965" lon="-2.63617">
        <ele>13.3</ele>
        <time>2020-06-06T10:54:24Z</time>
      </trkpt>
      <trkpt lat="47.62967" lon="-2.63622">
        <ele>13.3</ele>
        <time>2020-06-06T10:54:25Z</time>
      </trkpt>
      <trkpt lat="47.62968" lon="-2.63627">
        <ele>13.3</ele>
        <time>2020-06-06T10:54:26Z</time>
      </trkpt>
      <trkpt lat="47.62967" lon="-2.63633">
        <ele>13.3</ele>
        <time>2020-06-06T10:54:27Z</time>
      </trkpt>
      <trkpt lat="47.62965" lon="-2.63637">
        <ele>13.3</ele>
        <time>2020-06-06T10:54:28Z</time>
      </trkpt>
      <trkpt lat="47.62962" lon="-2.63643">
        <ele>13.3</ele>
        <time>2020-06-06T10:54:29Z</time>
      </trkpt>
      <trkpt lat="47.6296" lon="-2.63648">
        <ele>13.3</ele>
        <time>2020-06-06T10:54:30Z</time>
      </trkpt>
      <trkpt lat="47.62958" lon="-2.63654">
        <ele>13.3</ele>
        <time>2020-06-06T10:54:31Z</time>
      </trkpt>
      <trkpt lat="47.62955" lon="-2.63659">
        <ele>13.3</ele>
        <time>2020-06-06T10:54:32Z</time>
      </trkpt>
      <trkpt lat="47.62952" lon="-2.63664">
        <ele>13.4</ele>
        <time>2020-06-06T10:54:33Z</time>
      </trkpt>
      <trkpt lat="47.62949" lon="-2.6367">
        <ele>13.4</ele>
        <time>2020-06-06T10:54:34Z</time>
      </trkpt>
      <trkpt lat="47.62946" lon="-2.63675">
        <ele>13.4</ele>
        <time>2020-06-06T10:54:35Z</time>
      </trkpt>
      <trkpt lat="47.62943" lon="-2.6368">
        <ele>13.4</ele>
        <time>2020-06-06T10:54:36Z</time>
      </trkpt>
      <trkpt lat="47.6294" lon="-2.63685">
        <ele>13.5</ele>
        <time>2020-06-06T10:54:37Z</time>
      </trkpt>
      <trkpt lat="47.62938" lon="-2.63691">
        <ele>13.5</ele>
        <time>2020-06-06T10:54:38Z</time>
      </trkpt>
      <trkpt lat="47.62935" lon="-2.63696">
        <ele>13.5</ele>
        <time>2020-06-06T10:54:39Z</time>
      </trkpt>
      <trkpt lat="47.62932" lon="-2.63702">
        <ele>13.6</ele>
        <time>2020-06-06T10:54:40Z</time>
      </trkpt>
      <trkpt lat="47.6293" lon="-2.63708">
        <ele>13.6</ele>
        <time>2020-06-06T10:54:41Z</time>
      </trkpt>
      <trkpt lat="47.62928" lon="-2.63714">
        <ele>13.6</ele>
        <time>2020-06-06T10:54:42Z</time>
      </trkpt>
      <trkpt lat="47.62926" lon="-2.63721">
        <ele>13.6</ele>
        <time>2020-06-06T10:54:43Z</time>
      </trkpt>
      <trkpt lat="47.62924" lon="-2.63727">
        <ele>13.6</ele>
        <time>2020-06-06T10:54:44Z</time>
      </trkpt>
      <trkpt lat="47.62922" lon="-2.63733">
        <ele>13.6</ele>
        <time>2020-06-06T10:54:45Z</time>
      </trkpt>
      <trkpt lat="47.6292" lon="-2.63739">
        <ele>13.6</ele>
        <time>2020-06-06T10:54:46Z</time>
      </trkpt>
      <trkpt lat="47.62918" lon="-2.63745">
        <ele>13.6</ele>
        <time>2020-06-06T10:54:47Z</time>
      </trkpt>
      <trkpt lat="47.62916" lon="-2.63751">
        <ele>13.5</ele>
        <time>2020-06-06T10:54:48Z</time>
      </trkpt>
      <trkpt lat="47.62914" lon="-2.63757">
        <ele>13.5</ele>
        <time>2020-06-06T10:54:49Z</time>
      </trkpt>
      <trkpt lat="47.62911" lon="-2.63764">
        <ele>13.5</ele>
        <time>2020-06-06T10:54:50Z</time>
      </trkpt>
      <trkpt lat="47.62909" lon="-2.63772">
        <ele>13.4</ele>
        <time>2020-06-06T10:54:51Z</time>
      </trkpt>
      <trkpt lat="47.62907" lon="-2.63779">
        <ele>13.3</ele>
        <time>2020-06-06T10:54:52Z</time>
      </trkpt>
      <trkpt lat="47.62905" lon="-2.63787">
        <ele>13.3</ele>
        <time>2020-06-06T10:54:53Z</time>
      </trkpt>
      <trkpt lat="47.62903" lon="-2.63795">
        <ele>13.2</ele>
        <time>2020-06-06T10:54:54Z</time>
      </trkpt>
      <trkpt lat="47.62901" lon="-2.63803">
        <ele>13</ele>
        <time>2020-06-06T10:54:55Z</time>
      </trkpt>
      <trkpt lat="47.629" lon="-2.63811">
        <ele>12.9</ele>
        <time>2020-06-06T10:54:56Z</time>
      </trkpt>
      <trkpt lat="47.62897" lon="-2.63819">
        <ele>12.8</ele>
        <time>2020-06-06T10:54:57Z</time>
      </trkpt>
      <trkpt lat="47.62896" lon="-2.63827">
        <ele>12.6</ele>
        <time>2020-06-06T10:54:58Z</time>
      </trkpt>
      <trkpt lat="47.62895" lon="-2.63836">
        <ele>12.4</ele>
        <time>2020-06-06T10:54:59Z</time>
      </trkpt>
      <trkpt lat="47.62894" lon="-2.63846">
        <ele>12.2</ele>
        <time>2020-06-06T10:55:00Z</time>
      </trkpt>
      <trkpt lat="47.62893" lon="-2.63855">
        <ele>12.1</ele>
        <time>2020-06-06T10:55:01Z</time>
      </trkpt>
      <trkpt lat="47.62893" lon="-2.63865">
        <ele>11.9</ele>
        <time>2020-06-06T10:55:02Z</time>
      </trkpt>
      <trkpt lat="47.62893" lon="-2.63875">
        <ele>11.8</ele>
        <time>2020-06-06T10:55:03Z</time>
      </trkpt>
      <trkpt lat="47.62893" lon="-2.63884">
        <ele>11.7</ele>
        <time>2020-06-06T10:55:04Z</time>
      </trkpt>
      <trkpt lat="47.62892" lon="-2.63894">
        <ele>11.6</ele>
        <time>2020-06-06T10:55:05Z</time>
      </trkpt>
      <trkpt lat="47.62892" lon="-2.63903">
        <ele>11.5</ele>
        <time>2020-06-06T10:55:06Z</time>
      </trkpt>
      <trkpt lat="47.62892" lon="-2.63911">
        <ele>11.5</ele>
        <time>2020-06-06T10:55:07Z</time>
      </trkpt>
      <trkpt lat="47.62891" lon="-2.6392">
        <ele>11.5</ele>
        <time>2020-06-06T10:55:08Z</time>
      </trkpt>
      <trkpt lat="47.62892" lon="-2.63928">
        <ele>11.5</ele>
        <time>2020-06-06T10:55:09Z</time>
      </trkpt>
      <trkpt lat="47.62892" lon="-2.63936">
        <ele>11.5</ele>
        <time>2020-06-06T10:55:10Z</time>
      </trkpt>
      <trkpt lat="47.62892" lon="-2.63944">
        <ele>11.6</ele>
        <time>2020-06-06T10:55:11Z</time>
      </trkpt>
      <trkpt lat="47.62892" lon="-2.63952">
        <ele>11.6</ele>
        <time>2020-06-06T10:55:12Z</time>
      </trkpt>
      <trkpt lat="47.62893" lon="-2.6396">
        <ele>11.7</ele>
        <time>2020-06-06T10:55:13Z</time>
      </trkpt>
      <trkpt lat="47.62892" lon="-2.63968">
        <ele>11.8</ele>
        <time>2020-06-06T10:55:14Z</time>
      </trkpt>
      <trkpt lat="47.62892" lon="-2.63975">
        <ele>11.9</ele>
        <time>2020-06-06T10:55:15Z</time>
      </trkpt>
      <trkpt lat="47.62891" lon="-2.63982">
        <ele>12</ele>
        <time>2020-06-06T10:55:16Z</time>
      </trkpt>
      <trkpt lat="47.62891" lon="-2.6399">
        <ele>12.1</ele>
        <time>2020-06-06T10:55:17Z</time>
      </trkpt>
      <trkpt lat="47.6289" lon="-2.63999">
        <ele>12.2</ele>
        <time>2020-06-06T10:55:18Z</time>
      </trkpt>
      <trkpt lat="47.62889" lon="-2.64008">
        <ele>12.3</ele>
        <time>2020-06-06T10:55:19Z</time>
      </trkpt>
      <trkpt lat="47.62889" lon="-2.64016">
        <ele>12.4</ele>
        <time>2020-06-06T10:55:20Z</time>
      </trkpt>
      <trkpt lat="47.62888" lon="-2.64025">
        <ele>12.5</ele>
        <time>2020-06-06T10:55:21Z</time>
      </trkpt>
      <trkpt lat="47.62888" lon="-2.64034">
        <ele>12.7</ele>
        <time>2020-06-06T10:55:22Z</time>
      </trkpt>
      <trkpt lat="47.62888" lon="-2.64043">
        <ele>12.8</ele>
        <time>2020-06-06T10:55:23Z</time>
      </trkpt>
      <trkpt lat="47.62887" lon="-2.64052">
        <ele>13</ele>
        <time>2020-06-06T10:55:24Z</time>
      </trkpt>
      <trkpt lat="47.62887" lon="-2.6406">
        <ele>13.2</ele>
        <time>2020-06-06T10:55:25Z</time>
      </trkpt>
      <trkpt lat="47.62886" lon="-2.64068">
        <ele>13.3</ele>
        <time>2020-06-06T10:55:26Z</time>
      </trkpt>
      <trkpt lat="47.62885" lon="-2.64076">
        <ele>13.5</ele>
        <time>2020-06-06T10:55:27Z</time>
      </trkpt>
      <trkpt lat="47.62884" lon="-2.64082">
        <ele>13.5</ele>
        <time>2020-06-06T10:55:28Z</time>
      </trkpt>
      <trkpt lat="47.62884" lon="-2.64089">
        <ele>13.6</ele>
        <time>2020-06-06T10:55:29Z</time>
      </trkpt>
      <trkpt lat="47.62883" lon="-2.64095">
        <ele>13.7</ele>
        <time>2020-06-06T10:55:30Z</time>
      </trkpt>
      <trkpt lat="47.62882" lon="-2.64101">
        <ele>13.8</ele>
        <time>2020-06-06T10:55:31Z</time>
      </trkpt>
      <trkpt lat="47.62881" lon="-2.6411">
        <ele>13.9</ele>
        <time>2020-06-06T10:55:32Z</time>
      </trkpt>
      <trkpt lat="47.6288" lon="-2.64119">
        <ele>14</ele>
        <time>2020-06-06T10:55:33Z</time>
      </trkpt>
      <trkpt lat="47.62879" lon="-2.64127">
        <ele>14</ele>
        <time>2020-06-06T10:55:34Z</time>
      </trkpt>
      <trkpt lat="47.62878" lon="-2.64134">
        <ele>14</ele>
        <time>2020-06-06T10:55:35Z</time>
      </trkpt>
      <trkpt lat="47.62876" lon="-2.64142">
        <ele>14.1</ele>
        <time>2020-06-06T10:55:36Z</time>
      </trkpt>
      <trkpt lat="47.62874" lon="-2.6415">
        <ele>14.2</ele>
        <time>2020-06-06T10:55:37Z</time>
      </trkpt>
      <trkpt lat="47.62872" lon="-2.64156">
        <ele>14.2</ele>
        <time>2020-06-06T10:55:38Z</time>
      </trkpt>
      <trkpt lat="47.6287" lon="-2.64164">
        <ele>14.3</ele>
        <time>2020-06-06T10:55:39Z</time>
      </trkpt>
      <trkpt lat="47.62868" lon="-2.6417">
        <ele>14.3</ele>
        <time>2020-06-06T10:55:40Z</time>
      </trkpt>
      <trkpt lat="47.62866" lon="-2.64175">
        <ele>14.3</ele>
        <time>2020-06-06T10:55:41Z</time>
      </trkpt>
      <trkpt lat="47.62864" lon="-2.64182">
        <ele>14.3</ele>
        <time>2020-06-06T10:55:42Z</time>
      </trkpt>
      <trkpt lat="47.62861" lon="-2.64191">
        <ele>14.2</ele>
        <time>2020-06-06T10:55:43Z</time>
      </trkpt>
      <trkpt lat="47.62858" lon="-2.64197">
        <ele>14.2</ele>
        <time>2020-06-06T10:55:44Z</time>
      </trkpt>
      <trkpt lat="47.62856" lon="-2.64203">
        <ele>14.1</ele>
        <time>2020-06-06T10:55:45Z</time>
      </trkpt>
      <trkpt lat="47.62853" lon="-2.6421">
        <ele>14.1</ele>
        <time>2020-06-06T10:55:46Z</time>
      </trkpt>
      <trkpt lat="47.62851" lon="-2.64216">
        <ele>14</ele>
        <time>2020-06-06T10:55:47Z</time>
      </trkpt>
      <trkpt lat="47.62849" lon="-2.64223">
        <ele>14</ele>
        <time>2020-06-06T10:55:48Z</time>
      </trkpt>
      <trkpt lat="47.62846" lon="-2.6423">
        <ele>13.9</ele>
        <time>2020-06-06T10:55:49Z</time>
      </trkpt>
      <trkpt lat="47.62844" lon="-2.64237">
        <ele>13.8</ele>
        <time>2020-06-06T10:55:50Z</time>
      </trkpt>
      <trkpt lat="47.62842" lon="-2.64243">
        <ele>13.8</ele>
        <time>2020-06-06T10:55:51Z</time>
      </trkpt>
      <trkpt lat="47.6284" lon="-2.64249">
        <ele>13.7</ele>
        <time>2020-06-06T10:55:52Z</time>
      </trkpt>
      <trkpt lat="47.62838" lon="-2.64255">
        <ele>13.6</ele>
        <time>2020-06-06T10:55:53Z</time>
      </trkpt>
      <trkpt lat="47.62836" lon="-2.64259">
        <ele>13.6</ele>
        <time>2020-06-06T10:55:54Z</time>
      </trkpt>
      <trkpt lat="47.62834" lon="-2.64265">
        <ele>13.4</ele>
        <time>2020-06-06T10:55:55Z</time>
      </trkpt>
      <trkpt lat="47.62832" lon="-2.64272">
        <ele>13.3</ele>
        <time>2020-06-06T10:55:56Z</time>
      </trkpt>
      <trkpt lat="47.62829" lon="-2.64278">
        <ele>13.2</ele>
        <time>2020-06-06T10:55:57Z</time>
      </trkpt>
      <trkpt lat="47.62827" lon="-2.64285">
        <ele>13</ele>
        <time>2020-06-06T10:55:58Z</time>
      </trkpt>
      <trkpt lat="47.62825" lon="-2.64292">
        <ele>13</ele>
        <time>2020-06-06T10:55:59Z</time>
      </trkpt>
      <trkpt lat="47.62823" lon="-2.64301">
        <ele>13</ele>
        <time>2020-06-06T10:56:00Z</time>
      </trkpt>
      <trkpt lat="47.62822" lon="-2.64309">
        <ele>13</ele>
        <time>2020-06-06T10:56:01Z</time>
      </trkpt>
      <trkpt lat="47.62822" lon="-2.64318">
        <ele>13</ele>
        <time>2020-06-06T10:56:02Z</time>
      </trkpt>
      <trkpt lat="47.62821" lon="-2.64327">
        <ele>13</ele>
        <time>2020-06-06T10:56:03Z</time>
      </trkpt>
      <trkpt lat="47.6282" lon="-2.64334">
        <ele>13</ele>
        <time>2020-06-06T10:56:04Z</time>
      </trkpt>
      <trkpt lat="47.62819" lon="-2.6434">
        <ele>12.8</ele>
        <time>2020-06-06T10:56:05Z</time>
      </trkpt>
      <trkpt lat="47.62818" lon="-2.64347">
        <ele>12.7</ele>
        <time>2020-06-06T10:56:06Z</time>
      </trkpt>
      <trkpt lat="47.62816" lon="-2.64354">
        <ele>12.6</ele>
        <time>2020-06-06T10:56:07Z</time>
      </trkpt>
      <trkpt lat="47.62813" lon="-2.6436">
        <ele>12.4</ele>
        <time>2020-06-06T10:56:08Z</time>
      </trkpt>
      <trkpt lat="47.62813" lon="-2.64365">
        <ele>12.3</ele>
        <time>2020-06-06T10:56:09Z</time>
      </trkpt>
      <trkpt lat="47.62812" lon="-2.64372">
        <ele>12.2</ele>
        <time>2020-06-06T10:56:10Z</time>
      </trkpt>
      <trkpt lat="47.62811" lon="-2.64381">
        <ele>12.1</ele>
        <time>2020-06-06T10:56:11Z</time>
      </trkpt>
      <trkpt lat="47.62812" lon="-2.64388">
        <ele>12</ele>
        <time>2020-06-06T10:56:12Z</time>
      </trkpt>
      <trkpt lat="47.62813" lon="-2.64396">
        <ele>11.9</ele>
        <time>2020-06-06T10:56:13Z</time>
      </trkpt>
      <trkpt lat="47.62816" lon="-2.64403">
        <ele>11.8</ele>
        <time>2020-06-06T10:56:14Z</time>
      </trkpt>
      <trkpt lat="47.6282" lon="-2.64408">
        <ele>13.3</ele>
        <time>2020-06-06T10:56:15Z</time>
      </trkpt>
      <trkpt lat="47.62822" lon="-2.64413">
        <ele>13.1</ele>
        <time>2020-06-06T10:56:16Z</time>
      </trkpt>
      <trkpt lat="47.62823" lon="-2.64419">
        <ele>12.9</ele>
        <time>2020-06-06T10:56:17Z</time>
      </trkpt>
      <trkpt lat="47.62821" lon="-2.64424">
        <ele>12.5</ele>
        <time>2020-06-06T10:56:18Z</time>
      </trkpt>
      <trkpt lat="47.62816" lon="-2.64427">
        <ele>12.2</ele>
        <time>2020-06-06T10:56:19Z</time>
      </trkpt>
      <trkpt lat="47.62813" lon="-2.64432">
        <ele>11.4</ele>
        <time>2020-06-06T10:56:20Z</time>
      </trkpt>
      <trkpt lat="47.62809" lon="-2.64436">
        <ele>10.5</ele>
        <time>2020-06-06T10:56:21Z</time>
      </trkpt>
      <trkpt lat="47.62805" lon="-2.64444">
        <ele>9.4</ele>
        <time>2020-06-06T10:56:22Z</time>
      </trkpt>
      <trkpt lat="47.62804" lon="-2.64453">
        <ele>9.1</ele>
        <time>2020-06-06T10:56:23Z</time>
      </trkpt>
      <trkpt lat="47.62803" lon="-2.64463">
        <ele>8.8</ele>
        <time>2020-06-06T10:56:24Z</time>
      </trkpt>
      <trkpt lat="47.62802" lon="-2.64472">
        <ele>8.6</ele>
        <time>2020-06-06T10:56:25Z</time>
      </trkpt>
      <trkpt lat="47.628" lon="-2.64481">
        <ele>8.4</ele>
        <time>2020-06-06T10:56:26Z</time>
      </trkpt>
      <trkpt lat="47.62798" lon="-2.64489">
        <ele>8.3</ele>
        <time>2020-06-06T10:56:27Z</time>
      </trkpt>
      <trkpt lat="47.62796" lon="-2.64499">
        <ele>8.1</ele>
        <time>2020-06-06T10:56:28Z</time>
      </trkpt>
      <trkpt lat="47.62794" lon="-2.64509">
        <ele>7.9</ele>
        <time>2020-06-06T10:56:29Z</time>
      </trkpt>
      <trkpt lat="47.62791" lon="-2.64517">
        <ele>7.8</ele>
        <time>2020-06-06T10:56:30Z</time>
      </trkpt>
      <trkpt lat="47.62789" lon="-2.64523">
        <ele>7.8</ele>
        <time>2020-06-06T10:56:31Z</time>
      </trkpt>
      <trkpt lat="47.62786" lon="-2.64531">
        <ele>7.7</ele>
        <time>2020-06-06T10:56:32Z</time>
      </trkpt>
      <trkpt lat="47.62783" lon="-2.64538">
        <ele>7.7</ele>
        <time>2020-06-06T10:56:33Z</time>
      </trkpt>
      <trkpt lat="47.62781" lon="-2.64546">
        <ele>7.6</ele>
        <time>2020-06-06T10:56:34Z</time>
      </trkpt>
      <trkpt lat="47.62779" lon="-2.64553">
        <ele>7.6</ele>
        <time>2020-06-06T10:56:35Z</time>
      </trkpt>
      <trkpt lat="47.62777" lon="-2.64559">
        <ele>7.6</ele>
        <time>2020-06-06T10:56:36Z</time>
      </trkpt>
      <trkpt lat="47.62775" lon="-2.64566">
        <ele>7.7</ele>
        <time>2020-06-06T10:56:37Z</time>
      </trkpt>
      <trkpt lat="47.62773" lon="-2.64572">
        <ele>7.7</ele>
        <time>2020-06-06T10:56:38Z</time>
      </trkpt>
      <trkpt lat="47.62772" lon="-2.64577">
        <ele>7.7</ele>
        <time>2020-06-06T10:56:39Z</time>
      </trkpt>
      <trkpt lat="47.62771" lon="-2.64585">
        <ele>7.8</ele>
        <time>2020-06-06T10:56:40Z</time>
      </trkpt>
      <trkpt lat="47.62769" lon="-2.64593">
        <ele>7.8</ele>
        <time>2020-06-06T10:56:41Z</time>
      </trkpt>
      <trkpt lat="47.62766" lon="-2.64601">
        <ele>7.9</ele>
        <time>2020-06-06T10:56:42Z</time>
      </trkpt>
      <trkpt lat="47.62764" lon="-2.64609">
        <ele>8</ele>
        <time>2020-06-06T10:56:43Z</time>
      </trkpt>
      <trkpt lat="47.62763" lon="-2.64615">
        <ele>8</ele>
        <time>2020-06-06T10:56:44Z</time>
      </trkpt>
      <trkpt lat="47.62761" lon="-2.64622">
        <ele>8.1</ele>
        <time>2020-06-06T10:56:45Z</time>
      </trkpt>
      <trkpt lat="47.62759" lon="-2.64629">
        <ele>8.3</ele>
        <time>2020-06-06T10:56:46Z</time>
      </trkpt>
      <trkpt lat="47.62758" lon="-2.64636">
        <ele>8.4</ele>
        <time>2020-06-06T10:56:47Z</time>
      </trkpt>
      <trkpt lat="47.62757" lon="-2.64641">
        <ele>8.5</ele>
        <time>2020-06-06T10:56:48Z</time>
      </trkpt>
      <trkpt lat="47.62756" lon="-2.64646">
        <ele>8.7</ele>
        <time>2020-06-06T10:56:49Z</time>
      </trkpt>
      <trkpt lat="47.62756" lon="-2.64652">
        <ele>8.8</ele>
        <time>2020-06-06T10:56:50Z</time>
      </trkpt>
      <trkpt lat="47.62756" lon="-2.64655">
        <ele>8.9</ele>
        <time>2020-06-06T10:56:51Z</time>
      </trkpt>
      <trkpt lat="47.62757" lon="-2.6466">
        <ele>9</ele>
        <time>2020-06-06T10:56:52Z</time>
      </trkpt>
      <trkpt lat="47.62757" lon="-2.64664">
        <ele>9.1</ele>
        <time>2020-06-06T10:56:53Z</time>
      </trkpt>
      <trkpt lat="47.62758" lon="-2.64669">
        <ele>9.2</ele>
        <time>2020-06-06T10:56:54Z</time>
      </trkpt>
      <trkpt lat="47.6276" lon="-2.64675">
        <ele>9.3</ele>
        <time>2020-06-06T10:56:55Z</time>
      </trkpt>
      <trkpt lat="47.62762" lon="-2.6468">
        <ele>9.4</ele>
        <time>2020-06-06T10:56:56Z</time>
      </trkpt>
      <trkpt lat="47.62763" lon="-2.64686">
        <ele>9.6</ele>
        <time>2020-06-06T10:56:57Z</time>
      </trkpt>
      <trkpt lat="47.62764" lon="-2.6469">
        <ele>9.7</ele>
        <time>2020-06-06T10:56:58Z</time>
      </trkpt>
      <trkpt lat="47.62764" lon="-2.64696">
        <ele>9.9</ele>
        <time>2020-06-06T10:56:59Z</time>
      </trkpt>
      <trkpt lat="47.62765" lon="-2.64698">
        <ele>10</ele>
        <time>2020-06-06T10:57:00Z</time>
      </trkpt>
      <trkpt lat="47.62766" lon="-2.64703">
        <ele>10.2</ele>
        <time>2020-06-06T10:57:01Z</time>
      </trkpt>
      <trkpt lat="47.62768" lon="-2.6471">
        <ele>10.4</ele>
        <time>2020-06-06T10:57:02Z</time>
      </trkpt>
      <trkpt lat="47.62771" lon="-2.64716">
        <ele>10.7</ele>
        <time>2020-06-06T10:57:03Z</time>
      </trkpt>
      <trkpt lat="47.62775" lon="-2.64721">
        <ele>10.9</ele>
        <time>2020-06-06T10:57:04Z</time>
      </trkpt>
      <trkpt lat="47.62778" lon="-2.64726">
        <ele>11.2</ele>
        <time>2020-06-06T10:57:05Z</time>
      </trkpt>
      <trkpt lat="47.6278" lon="-2.6473">
        <ele>11.4</ele>
        <time>2020-06-06T10:57:06Z</time>
      </trkpt>
      <trkpt lat="47.62784" lon="-2.64734">
        <ele>11.6</ele>
        <time>2020-06-06T10:57:07Z</time>
      </trkpt>
      <trkpt lat="47.62789" lon="-2.64737">
        <ele>11.9</ele>
        <time>2020-06-06T10:57:08Z</time>
      </trkpt>
      <trkpt lat="47.62794" lon="-2.6474">
        <ele>12.3</ele>
        <time>2020-06-06T10:57:09Z</time>
      </trkpt>
      <trkpt lat="47.62799" lon="-2.64743">
        <ele>12.5</ele>
        <time>2020-06-06T10:57:10Z</time>
      </trkpt>
      <trkpt lat="47.62803" lon="-2.64747">
        <ele>12.8</ele>
        <time>2020-06-06T10:57:11Z</time>
      </trkpt>
      <trkpt lat="47.62806" lon="-2.64749">
        <ele>12.9</ele>
        <time>2020-06-06T10:57:12Z</time>
      </trkpt>
      <trkpt lat="47.6281" lon="-2.64752">
        <ele>13.1</ele>
        <time>2020-06-06T10:57:13Z</time>
      </trkpt>
      <trkpt lat="47.62813" lon="-2.64754">
        <ele>13.3</ele>
        <time>2020-06-06T10:57:14Z</time>
      </trkpt>
      <trkpt lat="47.62816" lon="-2.64757">
        <ele>13.5</ele>
        <time>2020-06-06T10:57:15Z</time>
      </trkpt>
      <trkpt lat="47.62819" lon="-2.64761">
        <ele>13.6</ele>
        <time>2020-06-06T10:57:16Z</time>
      </trkpt>
      <trkpt lat="47.62823" lon="-2.64765">
        <ele>13.8</ele>
        <time>2020-06-06T10:57:17Z</time>
      </trkpt>
      <trkpt lat="47.62828" lon="-2.64769">
        <ele>14</ele>
        <time>2020-06-06T10:57:18Z</time>
      </trkpt>
      <trkpt lat="47.62832" lon="-2.64771">
        <ele>14.2</ele>
        <time>2020-06-06T10:57:19Z</time>
      </trkpt>
      <trkpt lat="47.62836" lon="-2.64773">
        <ele>14.4</ele>
        <time>2020-06-06T10:57:20Z</time>
      </trkpt>
      <trkpt lat="47.6284" lon="-2.64776">
        <ele>14.7</ele>
        <time>2020-06-06T10:57:21Z</time>
      </trkpt>
      <trkpt lat="47.62845" lon="-2.6478">
        <ele>15</ele>
        <time>2020-06-06T10:57:22Z</time>
      </trkpt>
      <trkpt lat="47.62849" lon="-2.64782">
        <ele>15.2</ele>
        <time>2020-06-06T10:57:23Z</time>
      </trkpt>
      <trkpt lat="47.62853" lon="-2.64785">
        <ele>15.5</ele>
        <time>2020-06-06T10:57:24Z</time>
      </trkpt>
      <trkpt lat="47.62858" lon="-2.64787">
        <ele>15.8</ele>
        <time>2020-06-06T10:57:25Z</time>
      </trkpt>
      <trkpt lat="47.62864" lon="-2.6479">
        <ele>16.1</ele>
        <time>2020-06-06T10:57:26Z</time>
      </trkpt>
      <trkpt lat="47.62869" lon="-2.64791">
        <ele>16.3</ele>
        <time>2020-06-06T10:57:27Z</time>
      </trkpt>
      <trkpt lat="47.62873" lon="-2.64792">
        <ele>16.5</ele>
        <time>2020-06-06T10:57:28Z</time>
      </trkpt>
      <trkpt lat="47.62877" lon="-2.64794">
        <ele>16.8</ele>
        <time>2020-06-06T10:57:29Z</time>
      </trkpt>
      <trkpt lat="47.62881" lon="-2.64796">
        <ele>17</ele>
        <time>2020-06-06T10:57:30Z</time>
      </trkpt>
      <trkpt lat="47.62885" lon="-2.64798">
        <ele>17.2</ele>
        <time>2020-06-06T10:57:31Z</time>
      </trkpt>
      <trkpt lat="47.62888" lon="-2.648">
        <ele>17.3</ele>
        <time>2020-06-06T10:57:32Z</time>
      </trkpt>
      <trkpt lat="47.62892" lon="-2.64803">
        <ele>17.5</ele>
        <time>2020-06-06T10:57:33Z</time>
      </trkpt>
      <trkpt lat="47.62894" lon="-2.64807">
        <ele>17.7</ele>
        <time>2020-06-06T10:57:34Z</time>
      </trkpt>
      <trkpt lat="47.62897" lon="-2.64812">
        <ele>17.9</ele>
        <time>2020-06-06T10:57:35Z</time>
      </trkpt>
      <trkpt lat="47.629" lon="-2.64816">
        <ele>18.1</ele>
        <time>2020-06-06T10:57:36Z</time>
      </trkpt>
      <trkpt lat="47.62902" lon="-2.64821">
        <ele>18.2</ele>
        <time>2020-06-06T10:57:37Z</time>
      </trkpt>
      <trkpt lat="47.62905" lon="-2.64827">
        <ele>18.4</ele>
        <time>2020-06-06T10:57:38Z</time>
      </trkpt>
      <trkpt lat="47.62907" lon="-2.64831">
        <ele>18.8</ele>
        <time>2020-06-06T10:57:39Z</time>
      </trkpt>
      <trkpt lat="47.62909" lon="-2.64836">
        <ele>18.9</ele>
        <time>2020-06-06T10:57:40Z</time>
      </trkpt>
      <trkpt lat="47.62912" lon="-2.64841">
        <ele>19.2</ele>
        <time>2020-06-06T10:57:41Z</time>
      </trkpt>
      <trkpt lat="47.62915" lon="-2.64846">
        <ele>19.3</ele>
        <time>2020-06-06T10:57:42Z</time>
      </trkpt>
      <trkpt lat="47.62917" lon="-2.64851">
        <ele>19.5</ele>
        <time>2020-06-06T10:57:43Z</time>
      </trkpt>
      <trkpt lat="47.62919" lon="-2.64856">
        <ele>19.7</ele>
        <time>2020-06-06T10:57:44Z</time>
      </trkpt>
      <trkpt lat="47.6292" lon="-2.64863">
        <ele>19.9</ele>
        <time>2020-06-06T10:57:45Z</time>
      </trkpt>
      <trkpt lat="47.6292" lon="-2.64869">
        <ele>20</ele>
        <time>2020-06-06T10:57:46Z</time>
      </trkpt>
      <trkpt lat="47.6292" lon="-2.64875">
        <ele>20.2</ele>
        <time>2020-06-06T10:57:47Z</time>
      </trkpt>
      <trkpt lat="47.6292" lon="-2.64881">
        <ele>20.4</ele>
        <time>2020-06-06T10:57:48Z</time>
      </trkpt>
      <trkpt lat="47.6292" lon="-2.64888">
        <ele>20.6</ele>
        <time>2020-06-06T10:57:49Z</time>
      </trkpt>
      <trkpt lat="47.62921" lon="-2.64893">
        <ele>20.7</ele>
        <time>2020-06-06T10:57:50Z</time>
      </trkpt>
      <trkpt lat="47.62921" lon="-2.649">
        <ele>20.9</ele>
        <time>2020-06-06T10:57:51Z</time>
      </trkpt>
      <trkpt lat="47.6292" lon="-2.64905">
        <ele>21</ele>
        <time>2020-06-06T10:57:52Z</time>
      </trkpt>
      <trkpt lat="47.62919" lon="-2.64911">
        <ele>21</ele>
        <time>2020-06-06T10:57:53Z</time>
      </trkpt>
      <trkpt lat="47.62917" lon="-2.64914">
        <ele>21.1</ele>
        <time>2020-06-06T10:57:54Z</time>
      </trkpt>
      <trkpt lat="47.62915" lon="-2.64919">
        <ele>21.1</ele>
        <time>2020-06-06T10:57:55Z</time>
      </trkpt>
      <trkpt lat="47.62914" lon="-2.64922">
        <ele>21.2</ele>
        <time>2020-06-06T10:57:56Z</time>
      </trkpt>
      <trkpt lat="47.62913" lon="-2.64928">
        <ele>21.2</ele>
        <time>2020-06-06T10:57:57Z</time>
      </trkpt>
      <trkpt lat="47.62912" lon="-2.64931">
        <ele>21.3</ele>
        <time>2020-06-06T10:57:58Z</time>
      </trkpt>
      <trkpt lat="47.62912" lon="-2.64933">
        <ele>21.3</ele>
        <time>2020-06-06T10:57:59Z</time>
      </trkpt>
      <trkpt lat="47.62912" lon="-2.64937">
        <ele>21.4</ele>
        <time>2020-06-06T10:58:00Z</time>
      </trkpt>
      <trkpt lat="47.62911" lon="-2.64943">
        <ele>21.5</ele>
        <time>2020-06-06T10:58:01Z</time>
      </trkpt>
      <trkpt lat="47.62911" lon="-2.64948">
        <ele>21.5</ele>
        <time>2020-06-06T10:58:02Z</time>
      </trkpt>
      <trkpt lat="47.6291" lon="-2.64953">
        <ele>21.6</ele>
        <time>2020-06-06T10:58:03Z</time>
      </trkpt>
      <trkpt lat="47.62909" lon="-2.64957">
        <ele>21.7</ele>
        <time>2020-06-06T10:58:04Z</time>
      </trkpt>
      <trkpt lat="47.62909" lon="-2.64962">
        <ele>21.7</ele>
        <time>2020-06-06T10:58:05Z</time>
      </trkpt>
      <trkpt lat="47.62908" lon="-2.64964">
        <ele>21.8</ele>
        <time>2020-06-06T10:58:06Z</time>
      </trkpt>
      <trkpt lat="47.62909" lon="-2.64968">
        <ele>21.8</ele>
        <time>2020-06-06T10:58:07Z</time>
      </trkpt>
      <trkpt lat="47.6291" lon="-2.64973">
        <ele>21.8</ele>
        <time>2020-06-06T10:58:08Z</time>
      </trkpt>
      <trkpt lat="47.6291" lon="-2.64975">
        <ele>21.8</ele>
        <time>2020-06-06T10:58:09Z</time>
      </trkpt>
      <trkpt lat="47.6291" lon="-2.64979">
        <ele>21.9</ele>
        <time>2020-06-06T10:58:10Z</time>
      </trkpt>
      <trkpt lat="47.6291" lon="-2.64983">
        <ele>21.9</ele>
        <time>2020-06-06T10:58:12Z</time>
      </trkpt>
      <trkpt lat="47.62911" lon="-2.64987">
        <ele>21.9</ele>
        <time>2020-06-06T10:58:13Z</time>
      </trkpt>
      <trkpt lat="47.62912" lon="-2.64989">
        <ele>21.9</ele>
        <time>2020-06-06T10:58:14Z</time>
      </trkpt>
      <trkpt lat="47.62913" lon="-2.64993">
        <ele>21.9</ele>
        <time>2020-06-06T10:58:15Z</time>
      </trkpt>
      <trkpt lat="47.62915" lon="-2.64997">
        <ele>21.9</ele>
        <time>2020-06-06T10:58:16Z</time>
      </trkpt>
      <trkpt lat="47.62915" lon="-2.64998">
        <ele>21.9</ele>
        <time>2020-06-06T10:58:17Z</time>
      </trkpt>
      <trkpt lat="47.62915" lon="-2.64999">
        <ele>21.9</ele>
        <time>2020-06-06T10:58:18Z</time>
      </trkpt>
      <trkpt lat="47.62916" lon="-2.65002">
        <ele>21.9</ele>
        <time>2020-06-06T10:58:19Z</time>
      </trkpt>
      <trkpt lat="47.62918" lon="-2.65006">
        <ele>21.8</ele>
        <time>2020-06-06T10:58:20Z</time>
      </trkpt>
      <trkpt lat="47.62919" lon="-2.65007">
        <ele>21.8</ele>
        <time>2020-06-06T10:58:21Z</time>
      </trkpt>
      <trkpt lat="47.62919" lon="-2.65013">
        <ele>21.8</ele>
        <time>2020-06-06T10:58:22Z</time>
      </trkpt>
      <trkpt lat="47.62919" lon="-2.65015">
        <ele>21.8</ele>
        <time>2020-06-06T10:58:23Z</time>
      </trkpt>
      <trkpt lat="47.62922" lon="-2.65019">
        <ele>21.8</ele>
        <time>2020-06-06T10:58:24Z</time>
      </trkpt>
      <trkpt lat="47.62922" lon="-2.65021">
        <ele>21.8</ele>
        <time>2020-06-06T10:58:25Z</time>
      </trkpt>
      <trkpt lat="47.62926" lon="-2.65024">
        <ele>21.8</ele>
        <time>2020-06-06T10:58:26Z</time>
      </trkpt>
      <trkpt lat="47.62927" lon="-2.65026">
        <ele>21.8</ele>
        <time>2020-06-06T10:58:27Z</time>
      </trkpt>
      <trkpt lat="47.62929" lon="-2.65029">
        <ele>21.8</ele>
        <time>2020-06-06T10:58:28Z</time>
      </trkpt>
      <trkpt lat="47.62931" lon="-2.65034">
        <ele>21.8</ele>
        <time>2020-06-06T10:58:29Z</time>
      </trkpt>
      <trkpt lat="47.62932" lon="-2.65036">
        <ele>21.7</ele>
        <time>2020-06-06T10:58:30Z</time>
      </trkpt>
      <trkpt lat="47.62933" lon="-2.6504">
        <ele>21.7</ele>
        <time>2020-06-06T10:58:31Z</time>
      </trkpt>
      <trkpt lat="47.62935" lon="-2.65044">
        <ele>21.7</ele>
        <time>2020-06-06T10:58:32Z</time>
      </trkpt>
      <trkpt lat="47.62936" lon="-2.65045">
        <ele>21.6</ele>
        <time>2020-06-06T10:58:33Z</time>
      </trkpt>
      <trkpt lat="47.62937" lon="-2.65051">
        <ele>21.6</ele>
        <time>2020-06-06T10:58:34Z</time>
      </trkpt>
      <trkpt lat="47.62937" lon="-2.65054">
        <ele>21.5</ele>
        <time>2020-06-06T10:58:35Z</time>
      </trkpt>
      <trkpt lat="47.62937" lon="-2.65058">
        <ele>21.4</ele>
        <time>2020-06-06T10:58:36Z</time>
      </trkpt>
      <trkpt lat="47.62937" lon="-2.65065">
        <ele>21.2</ele>
        <time>2020-06-06T10:58:37Z</time>
      </trkpt>
      <trkpt lat="47.62937" lon="-2.65067">
        <ele>21.1</ele>
        <time>2020-06-06T10:58:38Z</time>
      </trkpt>
      <trkpt lat="47.62936" lon="-2.65073">
        <ele>20.9</ele>
        <time>2020-06-06T10:58:39Z</time>
      </trkpt>
      <trkpt lat="47.62935" lon="-2.65079">
        <ele>20.7</ele>
        <time>2020-06-06T10:58:40Z</time>
      </trkpt>
      <trkpt lat="47.62934" lon="-2.65085">
        <ele>20.4</ele>
        <time>2020-06-06T10:58:41Z</time>
      </trkpt>
      <trkpt lat="47.62934" lon="-2.65091">
        <ele>20.2</ele>
        <time>2020-06-06T10:58:42Z</time>
      </trkpt>
      <trkpt lat="47.62933" lon="-2.65097">
        <ele>19.9</ele>
        <time>2020-06-06T10:58:43Z</time>
      </trkpt>
      <trkpt lat="47.62933" lon="-2.65103">
        <ele>19.7</ele>
        <time>2020-06-06T10:58:44Z</time>
      </trkpt>
      <trkpt lat="47.62933" lon="-2.6511">
        <ele>19.3</ele>
        <time>2020-06-06T10:58:45Z</time>
      </trkpt>
      <trkpt lat="47.62932" lon="-2.65119">
        <ele>19</ele>
        <time>2020-06-06T10:58:46Z</time>
      </trkpt>
      <trkpt lat="47.62931" lon="-2.65129">
        <ele>18.6</ele>
        <time>2020-06-06T10:58:47Z</time>
      </trkpt>
      <trkpt lat="47.62931" lon="-2.65139">
        <ele>18.1</ele>
        <time>2020-06-06T10:58:48Z</time>
      </trkpt>
      <trkpt lat="47.62931" lon="-2.65149">
        <ele>17.7</ele>
        <time>2020-06-06T10:58:49Z</time>
      </trkpt>
      <trkpt lat="47.62931" lon="-2.65159">
        <ele>17.3</ele>
        <time>2020-06-06T10:58:50Z</time>
      </trkpt>
      <trkpt lat="47.6293" lon="-2.65168">
        <ele>16.9</ele>
        <time>2020-06-06T10:58:51Z</time>
      </trkpt>
      <trkpt lat="47.62928" lon="-2.65178">
        <ele>16.5</ele>
        <time>2020-06-06T10:58:52Z</time>
      </trkpt>
      <trkpt lat="47.62927" lon="-2.65188">
        <ele>16.2</ele>
        <time>2020-06-06T10:58:53Z</time>
      </trkpt>
      <trkpt lat="47.62925" lon="-2.65198">
        <ele>15.8</ele>
        <time>2020-06-06T10:58:54Z</time>
      </trkpt>
      <trkpt lat="47.62924" lon="-2.65208">
        <ele>15.5</ele>
        <time>2020-06-06T10:58:55Z</time>
      </trkpt>
      <trkpt lat="47.62922" lon="-2.65219">
        <ele>15.2</ele>
        <time>2020-06-06T10:58:56Z</time>
      </trkpt>
      <trkpt lat="47.62918" lon="-2.65239">
        <ele>14.6</ele>
        <time>2020-06-06T10:58:57Z</time>
      </trkpt>
      <trkpt lat="47.62916" lon="-2.65249">
        <ele>14.3</ele>
        <time>2020-06-06T10:58:58Z</time>
      </trkpt>
      <trkpt lat="47.62914" lon="-2.65259">
        <ele>14</ele>
        <time>2020-06-06T10:58:59Z</time>
      </trkpt>
      <trkpt lat="47.62913" lon="-2.65269">
        <ele>13.8</ele>
        <time>2020-06-06T10:59:00Z</time>
      </trkpt>
      <trkpt lat="47.62911" lon="-2.6528">
        <ele>13.6</ele>
        <time>2020-06-06T10:59:01Z</time>
      </trkpt>
      <trkpt lat="47.62909" lon="-2.6529">
        <ele>13.4</ele>
        <time>2020-06-06T10:59:02Z</time>
      </trkpt>
      <trkpt lat="47.62908" lon="-2.653">
        <ele>13.3</ele>
        <time>2020-06-06T10:59:03Z</time>
      </trkpt>
      <trkpt lat="47.62906" lon="-2.6531">
        <ele>13.2</ele>
        <time>2020-06-06T10:59:04Z</time>
      </trkpt>
      <trkpt lat="47.62904" lon="-2.65321">
        <ele>13</ele>
        <time>2020-06-06T10:59:05Z</time>
      </trkpt>
      <trkpt lat="47.62903" lon="-2.65331">
        <ele>12.9</ele>
        <time>2020-06-06T10:59:06Z</time>
      </trkpt>
      <trkpt lat="47.62902" lon="-2.6534">
        <ele>12.9</ele>
        <time>2020-06-06T10:59:07Z</time>
      </trkpt>
      <trkpt lat="47.629" lon="-2.6535">
        <ele>12.8</ele>
        <time>2020-06-06T10:59:08Z</time>
      </trkpt>
      <trkpt lat="47.62899" lon="-2.65359">
        <ele>12.8</ele>
        <time>2020-06-06T10:59:09Z</time>
      </trkpt>
      <trkpt lat="47.62897" lon="-2.65369">
        <ele>12.9</ele>
        <time>2020-06-06T10:59:10Z</time>
      </trkpt>
      <trkpt lat="47.62897" lon="-2.65377">
        <ele>12.9</ele>
        <time>2020-06-06T10:59:11Z</time>
      </trkpt>
      <trkpt lat="47.62897" lon="-2.65386">
        <ele>13</ele>
        <time>2020-06-06T10:59:12Z</time>
      </trkpt>
      <trkpt lat="47.62897" lon="-2.65394">
        <ele>14.2</ele>
        <time>2020-06-06T10:59:13Z</time>
      </trkpt>
      <trkpt lat="47.62896" lon="-2.65402">
        <ele>13.8</ele>
        <time>2020-06-06T10:59:14Z</time>
      </trkpt>
      <trkpt lat="47.62895" lon="-2.6541">
        <ele>13.2</ele>
        <time>2020-06-06T10:59:15Z</time>
      </trkpt>
      <trkpt lat="47.62893" lon="-2.65418">
        <ele>12.7</ele>
        <time>2020-06-06T10:59:16Z</time>
      </trkpt>
      <trkpt lat="47.6289" lon="-2.65425">
        <ele>12.5</ele>
        <time>2020-06-06T10:59:17Z</time>
      </trkpt>
      <trkpt lat="47.62888" lon="-2.65433">
        <ele>12.4</ele>
        <time>2020-06-06T10:59:18Z</time>
      </trkpt>
      <trkpt lat="47.62886" lon="-2.65441">
        <ele>12.4</ele>
        <time>2020-06-06T10:59:19Z</time>
      </trkpt>
      <trkpt lat="47.62885" lon="-2.65449">
        <ele>12.4</ele>
        <time>2020-06-06T10:59:20Z</time>
      </trkpt>
      <trkpt lat="47.62884" lon="-2.65458">
        <ele>12.3</ele>
        <time>2020-06-06T10:59:21Z</time>
      </trkpt>
      <trkpt lat="47.62883" lon="-2.65467">
        <ele>12.3</ele>
        <time>2020-06-06T10:59:22Z</time>
      </trkpt>
      <trkpt lat="47.62882" lon="-2.65475">
        <ele>12.3</ele>
        <time>2020-06-06T10:59:23Z</time>
      </trkpt>
      <trkpt lat="47.62882" lon="-2.65484">
        <ele>12.3</ele>
        <time>2020-06-06T10:59:24Z</time>
      </trkpt>
      <trkpt lat="47.62883" lon="-2.65492">
        <ele>12.4</ele>
        <time>2020-06-06T10:59:25Z</time>
      </trkpt>
      <trkpt lat="47.62884" lon="-2.655">
        <ele>12.4</ele>
        <time>2020-06-06T10:59:26Z</time>
      </trkpt>
      <trkpt lat="47.62885" lon="-2.65508">
        <ele>12.3</ele>
        <time>2020-06-06T10:59:27Z</time>
      </trkpt>
      <trkpt lat="47.62887" lon="-2.65516">
        <ele>12.3</ele>
        <time>2020-06-06T10:59:28Z</time>
      </trkpt>
      <trkpt lat="47.62889" lon="-2.65522">
        <ele>12.2</ele>
        <time>2020-06-06T10:59:29Z</time>
      </trkpt>
      <trkpt lat="47.62893" lon="-2.65529">
        <ele>12.1</ele>
        <time>2020-06-06T10:59:30Z</time>
      </trkpt>
      <trkpt lat="47.62897" lon="-2.65535">
        <ele>12</ele>
        <time>2020-06-06T10:59:31Z</time>
      </trkpt>
      <trkpt lat="47.62901" lon="-2.65541">
        <ele>11.9</ele>
        <time>2020-06-06T10:59:32Z</time>
      </trkpt>
      <trkpt lat="47.62905" lon="-2.65547">
        <ele>11.8</ele>
        <time>2020-06-06T10:59:33Z</time>
      </trkpt>
      <trkpt lat="47.6291" lon="-2.65553">
        <ele>11.7</ele>
        <time>2020-06-06T10:59:34Z</time>
      </trkpt>
      <trkpt lat="47.62914" lon="-2.65559">
        <ele>11.5</ele>
        <time>2020-06-06T10:59:35Z</time>
      </trkpt>
      <trkpt lat="47.62918" lon="-2.65565">
        <ele>11.4</ele>
        <time>2020-06-06T10:59:36Z</time>
      </trkpt>
      <trkpt lat="47.62922" lon="-2.65571">
        <ele>11.4</ele>
        <time>2020-06-06T10:59:37Z</time>
      </trkpt>
      <trkpt lat="47.62926" lon="-2.65578">
        <ele>11.3</ele>
        <time>2020-06-06T10:59:38Z</time>
      </trkpt>
      <trkpt lat="47.6293" lon="-2.65584">
        <ele>11.3</ele>
        <time>2020-06-06T10:59:39Z</time>
      </trkpt>
      <trkpt lat="47.62934" lon="-2.65591">
        <ele>11.2</ele>
        <time>2020-06-06T10:59:40Z</time>
      </trkpt>
      <trkpt lat="47.62939" lon="-2.65597">
        <ele>11.1</ele>
        <time>2020-06-06T10:59:41Z</time>
      </trkpt>
      <trkpt lat="47.62944" lon="-2.65602">
        <ele>11</ele>
        <time>2020-06-06T10:59:42Z</time>
      </trkpt>
      <trkpt lat="47.62948" lon="-2.65608">
        <ele>10.9</ele>
        <time>2020-06-06T10:59:43Z</time>
      </trkpt>
      <trkpt lat="47.62952" lon="-2.65614">
        <ele>10.8</ele>
        <time>2020-06-06T10:59:44Z</time>
      </trkpt>
      <trkpt lat="47.62956" lon="-2.6562">
        <ele>10.7</ele>
        <time>2020-06-06T10:59:45Z</time>
      </trkpt>
      <trkpt lat="47.62961" lon="-2.65627">
        <ele>10.6</ele>
        <time>2020-06-06T10:59:46Z</time>
      </trkpt>
      <trkpt lat="47.62965" lon="-2.65633">
        <ele>10.5</ele>
        <time>2020-06-06T10:59:47Z</time>
      </trkpt>
      <trkpt lat="47.62971" lon="-2.65639">
        <ele>10.4</ele>
        <time>2020-06-06T10:59:48Z</time>
      </trkpt>
      <trkpt lat="47.62975" lon="-2.65646">
        <ele>10.3</ele>
        <time>2020-06-06T10:59:49Z</time>
      </trkpt>
      <trkpt lat="47.6298" lon="-2.65653">
        <ele>10.2</ele>
        <time>2020-06-06T10:59:50Z</time>
      </trkpt>
      <trkpt lat="47.62984" lon="-2.6566">
        <ele>10</ele>
        <time>2020-06-06T10:59:51Z</time>
      </trkpt>
      <trkpt lat="47.62988" lon="-2.65667">
        <ele>9.9</ele>
        <time>2020-06-06T10:59:52Z</time>
      </trkpt>
      <trkpt lat="47.62992" lon="-2.65674">
        <ele>9.8</ele>
        <time>2020-06-06T10:59:53Z</time>
      </trkpt>
      <trkpt lat="47.62997" lon="-2.65681">
        <ele>9.7</ele>
        <time>2020-06-06T10:59:54Z</time>
      </trkpt>
      <trkpt lat="47.63002" lon="-2.65688">
        <ele>9.6</ele>
        <time>2020-06-06T10:59:55Z</time>
      </trkpt>
      <trkpt lat="47.63006" lon="-2.65695">
        <ele>9.5</ele>
        <time>2020-06-06T10:59:56Z</time>
      </trkpt>
      <trkpt lat="47.63011" lon="-2.65701">
        <ele>9.4</ele>
        <time>2020-06-06T10:59:57Z</time>
      </trkpt>
      <trkpt lat="47.63015" lon="-2.65708">
        <ele>9.2</ele>
        <time>2020-06-06T10:59:58Z</time>
      </trkpt>
      <trkpt lat="47.63019" lon="-2.65715">
        <ele>9.1</ele>
        <time>2020-06-06T10:59:59Z</time>
      </trkpt>
      <trkpt lat="47.63023" lon="-2.65722">
        <ele>9.1</ele>
        <time>2020-06-06T11:00:00Z</time>
      </trkpt>
      <trkpt lat="47.63028" lon="-2.65729">
        <ele>9.1</ele>
        <time>2020-06-06T11:00:01Z</time>
      </trkpt>
      <trkpt lat="47.63032" lon="-2.65736">
        <ele>9</ele>
        <time>2020-06-06T11:00:02Z</time>
      </trkpt>
      <trkpt lat="47.63036" lon="-2.65743">
        <ele>8.9</ele>
        <time>2020-06-06T11:00:03Z</time>
      </trkpt>
      <trkpt lat="47.63039" lon="-2.6575">
        <ele>8.8</ele>
        <time>2020-06-06T11:00:04Z</time>
      </trkpt>
      <trkpt lat="47.63043" lon="-2.65757">
        <ele>8.7</ele>
        <time>2020-06-06T11:00:05Z</time>
      </trkpt>
      <trkpt lat="47.63046" lon="-2.65764">
        <ele>8.7</ele>
        <time>2020-06-06T11:00:06Z</time>
      </trkpt>
      <trkpt lat="47.63049" lon="-2.65771">
        <ele>8.6</ele>
        <time>2020-06-06T11:00:07Z</time>
      </trkpt>
      <trkpt lat="47.63052" lon="-2.65778">
        <ele>8.5</ele>
        <time>2020-06-06T11:00:08Z</time>
      </trkpt>
      <trkpt lat="47.63056" lon="-2.65785">
        <ele>8.5</ele>
        <time>2020-06-06T11:00:09Z</time>
      </trkpt>
      <trkpt lat="47.63059" lon="-2.65791">
        <ele>8.5</ele>
        <time>2020-06-06T11:00:10Z</time>
      </trkpt>
      <trkpt lat="47.63063" lon="-2.65798">
        <ele>8.4</ele>
        <time>2020-06-06T11:00:11Z</time>
      </trkpt>
      <trkpt lat="47.63067" lon="-2.65804">
        <ele>8.5</ele>
        <time>2020-06-06T11:00:12Z</time>
      </trkpt>
      <trkpt lat="47.6307" lon="-2.65811">
        <ele>8.5</ele>
        <time>2020-06-06T11:00:13Z</time>
      </trkpt>
      <trkpt lat="47.63074" lon="-2.65818">
        <ele>8.4</ele>
        <time>2020-06-06T11:00:14Z</time>
      </trkpt>
      <trkpt lat="47.63077" lon="-2.65826">
        <ele>8.3</ele>
        <time>2020-06-06T11:00:15Z</time>
      </trkpt>
      <trkpt lat="47.6308" lon="-2.65834">
        <ele>8.3</ele>
        <time>2020-06-06T11:00:16Z</time>
      </trkpt>
      <trkpt lat="47.63083" lon="-2.65842">
        <ele>8.2</ele>
        <time>2020-06-06T11:00:17Z</time>
      </trkpt>
      <trkpt lat="47.63087" lon="-2.6585">
        <ele>8.1</ele>
        <time>2020-06-06T11:00:18Z</time>
      </trkpt>
      <trkpt lat="47.63091" lon="-2.65857">
        <ele>8.1</ele>
        <time>2020-06-06T11:00:19Z</time>
      </trkpt>
      <trkpt lat="47.63094" lon="-2.65866">
        <ele>8.1</ele>
        <time>2020-06-06T11:00:20Z</time>
      </trkpt>
      <trkpt lat="47.63097" lon="-2.65874">
        <ele>8.1</ele>
        <time>2020-06-06T11:00:21Z</time>
      </trkpt>
      <trkpt lat="47.631" lon="-2.65882">
        <ele>8.1</ele>
        <time>2020-06-06T11:00:22Z</time>
      </trkpt>
      <trkpt lat="47.63103" lon="-2.65889">
        <ele>8.1</ele>
        <time>2020-06-06T11:00:23Z</time>
      </trkpt>
      <trkpt lat="47.63106" lon="-2.65897">
        <ele>8.1</ele>
        <time>2020-06-06T11:00:24Z</time>
      </trkpt>
      <trkpt lat="47.63109" lon="-2.65905">
        <ele>8.1</ele>
        <time>2020-06-06T11:00:25Z</time>
      </trkpt>
      <trkpt lat="47.63112" lon="-2.65912">
        <ele>8.1</ele>
        <time>2020-06-06T11:00:26Z</time>
      </trkpt>
      <trkpt lat="47.63114" lon="-2.6592">
        <ele>8.1</ele>
        <time>2020-06-06T11:00:27Z</time>
      </trkpt>
      <trkpt lat="47.63117" lon="-2.65928">
        <ele>8.1</ele>
        <time>2020-06-06T11:00:28Z</time>
      </trkpt>
      <trkpt lat="47.63119" lon="-2.65937">
        <ele>8.1</ele>
        <time>2020-06-06T11:00:29Z</time>
      </trkpt>
      <trkpt lat="47.63121" lon="-2.65946">
        <ele>8.1</ele>
        <time>2020-06-06T11:00:30Z</time>
      </trkpt>
      <trkpt lat="47.63124" lon="-2.65954">
        <ele>8.1</ele>
        <time>2020-06-06T11:00:31Z</time>
      </trkpt>
      <trkpt lat="47.63126" lon="-2.65963">
        <ele>8</ele>
        <time>2020-06-06T11:00:32Z</time>
      </trkpt>
      <trkpt lat="47.63129" lon="-2.65971">
        <ele>8</ele>
        <time>2020-06-06T11:00:33Z</time>
      </trkpt>
      <trkpt lat="47.63132" lon="-2.6598">
        <ele>8</ele>
        <time>2020-06-06T11:00:34Z</time>
      </trkpt>
      <trkpt lat="47.63135" lon="-2.65988">
        <ele>8</ele>
        <time>2020-06-06T11:00:35Z</time>
      </trkpt>
      <trkpt lat="47.63137" lon="-2.65996">
        <ele>8</ele>
        <time>2020-06-06T11:00:36Z</time>
      </trkpt>
      <trkpt lat="47.63139" lon="-2.66005">
        <ele>8</ele>
        <time>2020-06-06T11:00:37Z</time>
      </trkpt>
      <trkpt lat="47.63141" lon="-2.66013">
        <ele>8</ele>
        <time>2020-06-06T11:00:38Z</time>
      </trkpt>
      <trkpt lat="47.63143" lon="-2.66022">
        <ele>8</ele>
        <time>2020-06-06T11:00:39Z</time>
      </trkpt>
      <trkpt lat="47.63145" lon="-2.6603">
        <ele>8</ele>
        <time>2020-06-06T11:00:40Z</time>
      </trkpt>
      <trkpt lat="47.63147" lon="-2.66038">
        <ele>8</ele>
        <time>2020-06-06T11:00:41Z</time>
      </trkpt>
      <trkpt lat="47.63149" lon="-2.66046">
        <ele>8.1</ele>
        <time>2020-06-06T11:00:42Z</time>
      </trkpt>
      <trkpt lat="47.63151" lon="-2.66055">
        <ele>8.1</ele>
        <time>2020-06-06T11:00:43Z</time>
      </trkpt>
      <trkpt lat="47.63152" lon="-2.66064">
        <ele>8.1</ele>
        <time>2020-06-06T11:00:44Z</time>
      </trkpt>
      <trkpt lat="47.63154" lon="-2.66072">
        <ele>8</ele>
        <time>2020-06-06T11:00:45Z</time>
      </trkpt>
      <trkpt lat="47.63154" lon="-2.66081">
        <ele>8</ele>
        <time>2020-06-06T11:00:46Z</time>
      </trkpt>
      <trkpt lat="47.63156" lon="-2.6609">
        <ele>8</ele>
        <time>2020-06-06T11:00:47Z</time>
      </trkpt>
      <trkpt lat="47.63157" lon="-2.66099">
        <ele>7.9</ele>
        <time>2020-06-06T11:00:48Z</time>
      </trkpt>
      <trkpt lat="47.63158" lon="-2.6611">
        <ele>7.9</ele>
        <time>2020-06-06T11:00:49Z</time>
      </trkpt>
      <trkpt lat="47.6316" lon="-2.6612">
        <ele>7.9</ele>
        <time>2020-06-06T11:00:50Z</time>
      </trkpt>
      <trkpt lat="47.63161" lon="-2.6613">
        <ele>7.9</ele>
        <time>2020-06-06T11:00:51Z</time>
      </trkpt>
      <trkpt lat="47.63162" lon="-2.66139">
        <ele>7.9</ele>
        <time>2020-06-06T11:00:52Z</time>
      </trkpt>
      <trkpt lat="47.63163" lon="-2.66148">
        <ele>7.9</ele>
        <time>2020-06-06T11:00:53Z</time>
      </trkpt>
      <trkpt lat="47.63165" lon="-2.66158">
        <ele>8</ele>
        <time>2020-06-06T11:00:54Z</time>
      </trkpt>
      <trkpt lat="47.63166" lon="-2.66168">
        <ele>8.1</ele>
        <time>2020-06-06T11:00:55Z</time>
      </trkpt>
      <trkpt lat="47.63167" lon="-2.66177">
        <ele>8.1</ele>
        <time>2020-06-06T11:00:56Z</time>
      </trkpt>
      <trkpt lat="47.6317" lon="-2.66186">
        <ele>8.1</ele>
        <time>2020-06-06T11:00:57Z</time>
      </trkpt>
      <trkpt lat="47.63172" lon="-2.66194">
        <ele>8.1</ele>
        <time>2020-06-06T11:00:58Z</time>
      </trkpt>
      <trkpt lat="47.63175" lon="-2.66201">
        <ele>8.1</ele>
        <time>2020-06-06T11:00:59Z</time>
      </trkpt>
      <trkpt lat="47.63179" lon="-2.66208">
        <ele>8.1</ele>
        <time>2020-06-06T11:01:00Z</time>
      </trkpt>
      <trkpt lat="47.63183" lon="-2.66215">
        <ele>9.6</ele>
        <time>2020-06-06T11:01:01Z</time>
      </trkpt>
      <trkpt lat="47.63186" lon="-2.66221">
        <ele>9.3</ele>
        <time>2020-06-06T11:01:02Z</time>
      </trkpt>
      <trkpt lat="47.63188" lon="-2.66227">
        <ele>9</ele>
        <time>2020-06-06T11:01:03Z</time>
      </trkpt>
      <trkpt lat="47.63187" lon="-2.66234">
        <ele>8.9</ele>
        <time>2020-06-06T11:01:04Z</time>
      </trkpt>
      <trkpt lat="47.63185" lon="-2.66242">
        <ele>8.7</ele>
        <time>2020-06-06T11:01:05Z</time>
      </trkpt>
      <trkpt lat="47.63184" lon="-2.6625">
        <ele>8.6</ele>
        <time>2020-06-06T11:01:06Z</time>
      </trkpt>
      <trkpt lat="47.63182" lon="-2.66259">
        <ele>8.4</ele>
        <time>2020-06-06T11:01:07Z</time>
      </trkpt>
      <trkpt lat="47.63181" lon="-2.66268">
        <ele>8.3</ele>
        <time>2020-06-06T11:01:08Z</time>
      </trkpt>
      <trkpt lat="47.6318" lon="-2.66277">
        <ele>8.1</ele>
        <time>2020-06-06T11:01:09Z</time>
      </trkpt>
      <trkpt lat="47.63179" lon="-2.66286">
        <ele>8</ele>
        <time>2020-06-06T11:01:10Z</time>
      </trkpt>
      <trkpt lat="47.63179" lon="-2.66297">
        <ele>8</ele>
        <time>2020-06-06T11:01:11Z</time>
      </trkpt>
      <trkpt lat="47.63179" lon="-2.66307">
        <ele>8</ele>
        <time>2020-06-06T11:01:12Z</time>
      </trkpt>
      <trkpt lat="47.63179" lon="-2.66315">
        <ele>8</ele>
        <time>2020-06-06T11:01:13Z</time>
      </trkpt>
      <trkpt lat="47.63181" lon="-2.66322">
        <ele>8.1</ele>
        <time>2020-06-06T11:01:14Z</time>
      </trkpt>
      <trkpt lat="47.63182" lon="-2.6633">
        <ele>8.1</ele>
        <time>2020-06-06T11:01:15Z</time>
      </trkpt>
      <trkpt lat="47.63183" lon="-2.6634">
        <ele>8.2</ele>
        <time>2020-06-06T11:01:16Z</time>
      </trkpt>
      <trkpt lat="47.63184" lon="-2.66349">
        <ele>8.3</ele>
        <time>2020-06-06T11:01:17Z</time>
      </trkpt>
      <trkpt lat="47.63186" lon="-2.66358">
        <ele>8.4</ele>
        <time>2020-06-06T11:01:18Z</time>
      </trkpt>
      <trkpt lat="47.63187" lon="-2.66366">
        <ele>8.5</ele>
        <time>2020-06-06T11:01:19Z</time>
      </trkpt>
      <trkpt lat="47.63188" lon="-2.66373">
        <ele>8.6</ele>
        <time>2020-06-06T11:01:20Z</time>
      </trkpt>
      <trkpt lat="47.63189" lon="-2.6638">
        <ele>8.6</ele>
        <time>2020-06-06T11:01:21Z</time>
      </trkpt>
      <trkpt lat="47.63189" lon="-2.66388">
        <ele>8.7</ele>
        <time>2020-06-06T11:01:22Z</time>
      </trkpt>
      <trkpt lat="47.6319" lon="-2.66396">
        <ele>8.8</ele>
        <time>2020-06-06T11:01:23Z</time>
      </trkpt>
      <trkpt lat="47.63191" lon="-2.66404">
        <ele>8.9</ele>
        <time>2020-06-06T11:01:24Z</time>
      </trkpt>
      <trkpt lat="47.63192" lon="-2.66413">
        <ele>9</ele>
        <time>2020-06-06T11:01:25Z</time>
      </trkpt>
      <trkpt lat="47.63192" lon="-2.66421">
        <ele>9.1</ele>
        <time>2020-06-06T11:01:26Z</time>
      </trkpt>
      <trkpt lat="47.63194" lon="-2.66431">
        <ele>9.3</ele>
        <time>2020-06-06T11:01:27Z</time>
      </trkpt>
      <trkpt lat="47.63195" lon="-2.6644">
        <ele>9.4</ele>
        <time>2020-06-06T11:01:28Z</time>
      </trkpt>
      <trkpt lat="47.63196" lon="-2.66449">
        <ele>9.6</ele>
        <time>2020-06-06T11:01:29Z</time>
      </trkpt>
      <trkpt lat="47.63197" lon="-2.66457">
        <ele>9.7</ele>
        <time>2020-06-06T11:01:30Z</time>
      </trkpt>
      <trkpt lat="47.63197" lon="-2.66467">
        <ele>9.8</ele>
        <time>2020-06-06T11:01:31Z</time>
      </trkpt>
      <trkpt lat="47.63199" lon="-2.66476">
        <ele>9.9</ele>
        <time>2020-06-06T11:01:32Z</time>
      </trkpt>
      <trkpt lat="47.632" lon="-2.66483">
        <ele>10</ele>
        <time>2020-06-06T11:01:33Z</time>
      </trkpt>
      <trkpt lat="47.632" lon="-2.66489">
        <ele>10.1</ele>
        <time>2020-06-06T11:01:34Z</time>
      </trkpt>
      <trkpt lat="47.63201" lon="-2.66496">
        <ele>10.2</ele>
        <time>2020-06-06T11:01:35Z</time>
      </trkpt>
      <trkpt lat="47.63201" lon="-2.66504">
        <ele>10.4</ele>
        <time>2020-06-06T11:01:36Z</time>
      </trkpt>
      <trkpt lat="47.63202" lon="-2.66512">
        <ele>10.5</ele>
        <time>2020-06-06T11:01:37Z</time>
      </trkpt>
      <trkpt lat="47.63204" lon="-2.6652">
        <ele>10.7</ele>
        <time>2020-06-06T11:01:38Z</time>
      </trkpt>
      <trkpt lat="47.63205" lon="-2.66528">
        <ele>10.8</ele>
        <time>2020-06-06T11:01:39Z</time>
      </trkpt>
      <trkpt lat="47.63206" lon="-2.66538">
        <ele>11</ele>
        <time>2020-06-06T11:01:40Z</time>
      </trkpt>
      <trkpt lat="47.63207" lon="-2.66546">
        <ele>11.2</ele>
        <time>2020-06-06T11:01:41Z</time>
      </trkpt>
      <trkpt lat="47.63208" lon="-2.66554">
        <ele>11.4</ele>
        <time>2020-06-06T11:01:42Z</time>
      </trkpt>
      <trkpt lat="47.6321" lon="-2.66561">
        <ele>11.5</ele>
        <time>2020-06-06T11:01:43Z</time>
      </trkpt>
      <trkpt lat="47.63211" lon="-2.66569">
        <ele>11.7</ele>
        <time>2020-06-06T11:01:44Z</time>
      </trkpt>
      <trkpt lat="47.63211" lon="-2.66577">
        <ele>11.8</ele>
        <time>2020-06-06T11:01:45Z</time>
      </trkpt>
      <trkpt lat="47.63212" lon="-2.66584">
        <ele>11.9</ele>
        <time>2020-06-06T11:01:46Z</time>
      </trkpt>
      <trkpt lat="47.63214" lon="-2.66591">
        <ele>12</ele>
        <time>2020-06-06T11:01:47Z</time>
      </trkpt>
      <trkpt lat="47.63215" lon="-2.66599">
        <ele>12.1</ele>
        <time>2020-06-06T11:01:48Z</time>
      </trkpt>
      <trkpt lat="47.63215" lon="-2.66606">
        <ele>12.2</ele>
        <time>2020-06-06T11:01:49Z</time>
      </trkpt>
      <trkpt lat="47.63216" lon="-2.66614">
        <ele>12.3</ele>
        <time>2020-06-06T11:01:50Z</time>
      </trkpt>
      <trkpt lat="47.63216" lon="-2.66622">
        <ele>12.4</ele>
        <time>2020-06-06T11:01:51Z</time>
      </trkpt>
      <trkpt lat="47.63217" lon="-2.66629">
        <ele>12.4</ele>
        <time>2020-06-06T11:01:52Z</time>
      </trkpt>
      <trkpt lat="47.63217" lon="-2.66637">
        <ele>12.5</ele>
        <time>2020-06-06T11:01:53Z</time>
      </trkpt>
      <trkpt lat="47.63218" lon="-2.66644">
        <ele>12.5</ele>
        <time>2020-06-06T11:01:54Z</time>
      </trkpt>
      <trkpt lat="47.63219" lon="-2.66652">
        <ele>12.5</ele>
        <time>2020-06-06T11:01:55Z</time>
      </trkpt>
      <trkpt lat="47.63219" lon="-2.66661">
        <ele>12.6</ele>
        <time>2020-06-06T11:01:56Z</time>
      </trkpt>
      <trkpt lat="47.63219" lon="-2.66667">
        <ele>12.6</ele>
        <time>2020-06-06T11:01:57Z</time>
      </trkpt>
      <trkpt lat="47.6322" lon="-2.66674">
        <ele>12.7</ele>
        <time>2020-06-06T11:01:58Z</time>
      </trkpt>
      <trkpt lat="47.63221" lon="-2.66682">
        <ele>12.7</ele>
        <time>2020-06-06T11:01:59Z</time>
      </trkpt>
      <trkpt lat="47.63222" lon="-2.6669">
        <ele>12.8</ele>
        <time>2020-06-06T11:02:00Z</time>
      </trkpt>
      <trkpt lat="47.63223" lon="-2.66698">
        <ele>12.9</ele>
        <time>2020-06-06T11:02:01Z</time>
      </trkpt>
      <trkpt lat="47.63226" lon="-2.66705">
        <ele>13</ele>
        <time>2020-06-06T11:02:02Z</time>
      </trkpt>
      <trkpt lat="47.6323" lon="-2.66711">
        <ele>13.3</ele>
        <time>2020-06-06T11:02:03Z</time>
      </trkpt>
      <trkpt lat="47.63233" lon="-2.66716">
        <ele>13.4</ele>
        <time>2020-06-06T11:02:04Z</time>
      </trkpt>
      <trkpt lat="47.63237" lon="-2.66722">
        <ele>13.6</ele>
        <time>2020-06-06T11:02:05Z</time>
      </trkpt>
      <trkpt lat="47.63239" lon="-2.66729">
        <ele>13.7</ele>
        <time>2020-06-06T11:02:06Z</time>
      </trkpt>
      <trkpt lat="47.6324" lon="-2.66737">
        <ele>13.7</ele>
        <time>2020-06-06T11:02:07Z</time>
      </trkpt>
      <trkpt lat="47.63241" lon="-2.66744">
        <ele>13.8</ele>
        <time>2020-06-06T11:02:08Z</time>
      </trkpt>
      <trkpt lat="47.63242" lon="-2.66752">
        <ele>13.9</ele>
        <time>2020-06-06T11:02:09Z</time>
      </trkpt>
      <trkpt lat="47.63243" lon="-2.66759">
        <ele>14</ele>
        <time>2020-06-06T11:02:10Z</time>
      </trkpt>
      <trkpt lat="47.63244" lon="-2.66765">
        <ele>14.1</ele>
        <time>2020-06-06T11:02:11Z</time>
      </trkpt>
      <trkpt lat="47.63245" lon="-2.66771">
        <ele>14.2</ele>
        <time>2020-06-06T11:02:12Z</time>
      </trkpt>
      <trkpt lat="47.63246" lon="-2.66777">
        <ele>14.3</ele>
        <time>2020-06-06T11:02:13Z</time>
      </trkpt>
      <trkpt lat="47.63247" lon="-2.66783">
        <ele>14.4</ele>
        <time>2020-06-06T11:02:14Z</time>
      </trkpt>
      <trkpt lat="47.63248" lon="-2.6679">
        <ele>14.5</ele>
        <time>2020-06-06T11:02:15Z</time>
      </trkpt>
      <trkpt lat="47.6325" lon="-2.66796">
        <ele>14.6</ele>
        <time>2020-06-06T11:02:16Z</time>
      </trkpt>
      <trkpt lat="47.63251" lon="-2.66803">
        <ele>14.7</ele>
        <time>2020-06-06T11:02:17Z</time>
      </trkpt>
      <trkpt lat="47.63251" lon="-2.6681">
        <ele>14.8</ele>
        <time>2020-06-06T11:02:18Z</time>
      </trkpt>
      <trkpt lat="47.63251" lon="-2.66817">
        <ele>14.9</ele>
        <time>2020-06-06T11:02:19Z</time>
      </trkpt>
      <trkpt lat="47.63251" lon="-2.66823">
        <ele>14.9</ele>
        <time>2020-06-06T11:02:20Z</time>
      </trkpt>
      <trkpt lat="47.6325" lon="-2.66829">
        <ele>15</ele>
        <time>2020-06-06T11:02:21Z</time>
      </trkpt>
      <trkpt lat="47.6325" lon="-2.66835">
        <ele>15</ele>
        <time>2020-06-06T11:02:22Z</time>
      </trkpt>
      <trkpt lat="47.63251" lon="-2.66842">
        <ele>15.1</ele>
        <time>2020-06-06T11:02:23Z</time>
      </trkpt>
      <trkpt lat="47.63251" lon="-2.66849">
        <ele>15.1</ele>
        <time>2020-06-06T11:02:24Z</time>
      </trkpt>
      <trkpt lat="47.63252" lon="-2.66855">
        <ele>15.2</ele>
        <time>2020-06-06T11:02:25Z</time>
      </trkpt>
      <trkpt lat="47.63253" lon="-2.66863">
        <ele>15.2</ele>
        <time>2020-06-06T11:02:26Z</time>
      </trkpt>
      <trkpt lat="47.63253" lon="-2.6687">
        <ele>15.3</ele>
        <time>2020-06-06T11:02:27Z</time>
      </trkpt>
      <trkpt lat="47.63254" lon="-2.66877">
        <ele>15.3</ele>
        <time>2020-06-06T11:02:28Z</time>
      </trkpt>
      <trkpt lat="47.63254" lon="-2.66884">
        <ele>15.4</ele>
        <time>2020-06-06T11:02:29Z</time>
      </trkpt>
      <trkpt lat="47.63254" lon="-2.66892">
        <ele>15.4</ele>
        <time>2020-06-06T11:02:30Z</time>
      </trkpt>
      <trkpt lat="47.63254" lon="-2.66899">
        <ele>15.5</ele>
        <time>2020-06-06T11:02:31Z</time>
      </trkpt>
      <trkpt lat="47.63255" lon="-2.66906">
        <ele>15.5</ele>
        <time>2020-06-06T11:02:32Z</time>
      </trkpt>
      <trkpt lat="47.63257" lon="-2.66912">
        <ele>15.6</ele>
        <time>2020-06-06T11:02:33Z</time>
      </trkpt>
      <trkpt lat="47.63259" lon="-2.66917">
        <ele>15.6</ele>
        <time>2020-06-06T11:02:34Z</time>
      </trkpt>
      <trkpt lat="47.63262" lon="-2.66921">
        <ele>15.6</ele>
        <time>2020-06-06T11:02:35Z</time>
      </trkpt>
      <trkpt lat="47.63264" lon="-2.66925">
        <ele>15.5</ele>
        <time>2020-06-06T11:02:36Z</time>
      </trkpt>
      <trkpt lat="47.63266" lon="-2.66932">
        <ele>15.4</ele>
        <time>2020-06-06T11:02:37Z</time>
      </trkpt>
      <trkpt lat="47.63266" lon="-2.66939">
        <ele>15.4</ele>
        <time>2020-06-06T11:02:38Z</time>
      </trkpt>
      <trkpt lat="47.63266" lon="-2.66947">
        <ele>15.4</ele>
        <time>2020-06-06T11:02:39Z</time>
      </trkpt>
      <trkpt lat="47.63266" lon="-2.66954">
        <ele>15.3</ele>
        <time>2020-06-06T11:02:40Z</time>
      </trkpt>
      <trkpt lat="47.63266" lon="-2.66962">
        <ele>15.3</ele>
        <time>2020-06-06T11:02:41Z</time>
      </trkpt>
      <trkpt lat="47.63266" lon="-2.66968">
        <ele>15.3</ele>
        <time>2020-06-06T11:02:42Z</time>
      </trkpt>
      <trkpt lat="47.63267" lon="-2.66974">
        <ele>15.3</ele>
        <time>2020-06-06T11:02:43Z</time>
      </trkpt>
      <trkpt lat="47.63266" lon="-2.6698">
        <ele>15.3</ele>
        <time>2020-06-06T11:02:44Z</time>
      </trkpt>
      <trkpt lat="47.63267" lon="-2.66986">
        <ele>15.3</ele>
        <time>2020-06-06T11:02:45Z</time>
      </trkpt>
      <trkpt lat="47.63267" lon="-2.66992">
        <ele>15.3</ele>
        <time>2020-06-06T11:02:46Z</time>
      </trkpt>
      <trkpt lat="47.63268" lon="-2.67">
        <ele>15.4</ele>
        <time>2020-06-06T11:02:47Z</time>
      </trkpt>
      <trkpt lat="47.63269" lon="-2.67008">
        <ele>15.4</ele>
        <time>2020-06-06T11:02:48Z</time>
      </trkpt>
      <trkpt lat="47.6327" lon="-2.67016">
        <ele>15.4</ele>
        <time>2020-06-06T11:02:49Z</time>
      </trkpt>
      <trkpt lat="47.63271" lon="-2.67023">
        <ele>15.5</ele>
        <time>2020-06-06T11:02:50Z</time>
      </trkpt>
      <trkpt lat="47.63272" lon="-2.67031">
        <ele>15.5</ele>
        <time>2020-06-06T11:02:51Z</time>
      </trkpt>
      <trkpt lat="47.63274" lon="-2.6704">
        <ele>15.5</ele>
        <time>2020-06-06T11:02:52Z</time>
      </trkpt>
      <trkpt lat="47.63274" lon="-2.67047">
        <ele>15.6</ele>
        <time>2020-06-06T11:02:53Z</time>
      </trkpt>
      <trkpt lat="47.63274" lon="-2.67054">
        <ele>15.6</ele>
        <time>2020-06-06T11:02:54Z</time>
      </trkpt>
      <trkpt lat="47.63275" lon="-2.67062">
        <ele>15.7</ele>
        <time>2020-06-06T11:02:55Z</time>
      </trkpt>
      <trkpt lat="47.63277" lon="-2.67071">
        <ele>15.8</ele>
        <time>2020-06-06T11:02:56Z</time>
      </trkpt>
      <trkpt lat="47.63278" lon="-2.67078">
        <ele>15.9</ele>
        <time>2020-06-06T11:02:57Z</time>
      </trkpt>
      <trkpt lat="47.63279" lon="-2.67087">
        <ele>16</ele>
        <time>2020-06-06T11:02:58Z</time>
      </trkpt>
      <trkpt lat="47.6328" lon="-2.67094">
        <ele>16.1</ele>
        <time>2020-06-06T11:02:59Z</time>
      </trkpt>
      <trkpt lat="47.63281" lon="-2.67101">
        <ele>16.2</ele>
        <time>2020-06-06T11:03:00Z</time>
      </trkpt>
      <trkpt lat="47.63282" lon="-2.67108">
        <ele>16.3</ele>
        <time>2020-06-06T11:03:01Z</time>
      </trkpt>
      <trkpt lat="47.63283" lon="-2.67115">
        <ele>16.4</ele>
        <time>2020-06-06T11:03:02Z</time>
      </trkpt>
      <trkpt lat="47.63283" lon="-2.67123">
        <ele>16.5</ele>
        <time>2020-06-06T11:03:03Z</time>
      </trkpt>
      <trkpt lat="47.63284" lon="-2.6713">
        <ele>16.6</ele>
        <time>2020-06-06T11:03:04Z</time>
      </trkpt>
      <trkpt lat="47.63285" lon="-2.67137">
        <ele>16.8</ele>
        <time>2020-06-06T11:03:05Z</time>
      </trkpt>
      <trkpt lat="47.63285" lon="-2.67145">
        <ele>16.9</ele>
        <time>2020-06-06T11:03:06Z</time>
      </trkpt>
      <trkpt lat="47.63286" lon="-2.67152">
        <ele>17</ele>
        <time>2020-06-06T11:03:07Z</time>
      </trkpt>
      <trkpt lat="47.63286" lon="-2.67159">
        <ele>17.1</ele>
        <time>2020-06-06T11:03:08Z</time>
      </trkpt>
      <trkpt lat="47.63287" lon="-2.67166">
        <ele>17.3</ele>
        <time>2020-06-06T11:03:09Z</time>
      </trkpt>
      <trkpt lat="47.63287" lon="-2.67173">
        <ele>17.4</ele>
        <time>2020-06-06T11:03:10Z</time>
      </trkpt>
      <trkpt lat="47.63287" lon="-2.67179">
        <ele>17.5</ele>
        <time>2020-06-06T11:03:11Z</time>
      </trkpt>
      <trkpt lat="47.63288" lon="-2.67186">
        <ele>17.6</ele>
        <time>2020-06-06T11:03:12Z</time>
      </trkpt>
      <trkpt lat="47.63288" lon="-2.67192">
        <ele>17.7</ele>
        <time>2020-06-06T11:03:13Z</time>
      </trkpt>
      <trkpt lat="47.6329" lon="-2.67199">
        <ele>17.8</ele>
        <time>2020-06-06T11:03:14Z</time>
      </trkpt>
      <trkpt lat="47.63291" lon="-2.67206">
        <ele>18</ele>
        <time>2020-06-06T11:03:15Z</time>
      </trkpt>
      <trkpt lat="47.63291" lon="-2.67213">
        <ele>18.1</ele>
        <time>2020-06-06T11:03:16Z</time>
      </trkpt>
      <trkpt lat="47.63292" lon="-2.67221">
        <ele>18.2</ele>
        <time>2020-06-06T11:03:17Z</time>
      </trkpt>
      <trkpt lat="47.63293" lon="-2.67228">
        <ele>18.4</ele>
        <time>2020-06-06T11:03:18Z</time>
      </trkpt>
      <trkpt lat="47.63294" lon="-2.67235">
        <ele>18.5</ele>
        <time>2020-06-06T11:03:19Z</time>
      </trkpt>
      <trkpt lat="47.63295" lon="-2.67243">
        <ele>18.6</ele>
        <time>2020-06-06T11:03:20Z</time>
      </trkpt>
      <trkpt lat="47.63296" lon="-2.67249">
        <ele>18.8</ele>
        <time>2020-06-06T11:03:21Z</time>
      </trkpt>
      <trkpt lat="47.63297" lon="-2.67256">
        <ele>18.9</ele>
        <time>2020-06-06T11:03:22Z</time>
      </trkpt>
      <trkpt lat="47.63297" lon="-2.67262">
        <ele>18.9</ele>
        <time>2020-06-06T11:03:23Z</time>
      </trkpt>
      <trkpt lat="47.63298" lon="-2.67269">
        <ele>19</ele>
        <time>2020-06-06T11:03:24Z</time>
      </trkpt>
      <trkpt lat="47.63298" lon="-2.67276">
        <ele>19.1</ele>
        <time>2020-06-06T11:03:25Z</time>
      </trkpt>
      <trkpt lat="47.63299" lon="-2.67283">
        <ele>19.3</ele>
        <time>2020-06-06T11:03:26Z</time>
      </trkpt>
      <trkpt lat="47.633" lon="-2.6729">
        <ele>19.4</ele>
        <time>2020-06-06T11:03:27Z</time>
      </trkpt>
      <trkpt lat="47.63302" lon="-2.67297">
        <ele>19.5</ele>
        <time>2020-06-06T11:03:28Z</time>
      </trkpt>
      <trkpt lat="47.63304" lon="-2.67305">
        <ele>19.6</ele>
        <time>2020-06-06T11:03:29Z</time>
      </trkpt>
      <trkpt lat="47.63306" lon="-2.67312">
        <ele>19.7</ele>
        <time>2020-06-06T11:03:30Z</time>
      </trkpt>
      <trkpt lat="47.63308" lon="-2.67318">
        <ele>19.8</ele>
        <time>2020-06-06T11:03:31Z</time>
      </trkpt>
      <trkpt lat="47.63311" lon="-2.67324">
        <ele>19.8</ele>
        <time>2020-06-06T11:03:32Z</time>
      </trkpt>
      <trkpt lat="47.63313" lon="-2.67331">
        <ele>19.9</ele>
        <time>2020-06-06T11:03:33Z</time>
      </trkpt>
      <trkpt lat="47.63315" lon="-2.67339">
        <ele>20</ele>
        <time>2020-06-06T11:03:34Z</time>
      </trkpt>
      <trkpt lat="47.63317" lon="-2.67346">
        <ele>20.1</ele>
        <time>2020-06-06T11:03:35Z</time>
      </trkpt>
      <trkpt lat="47.63318" lon="-2.67354">
        <ele>20.2</ele>
        <time>2020-06-06T11:03:36Z</time>
      </trkpt>
      <trkpt lat="47.6332" lon="-2.67362">
        <ele>20.3</ele>
        <time>2020-06-06T11:03:37Z</time>
      </trkpt>
      <trkpt lat="47.63322" lon="-2.6737">
        <ele>20.3</ele>
        <time>2020-06-06T11:03:38Z</time>
      </trkpt>
      <trkpt lat="47.63324" lon="-2.67377">
        <ele>20.4</ele>
        <time>2020-06-06T11:03:39Z</time>
      </trkpt>
      <trkpt lat="47.63326" lon="-2.67385">
        <ele>20.4</ele>
        <time>2020-06-06T11:03:40Z</time>
      </trkpt>
      <trkpt lat="47.63328" lon="-2.67392">
        <ele>20.4</ele>
        <time>2020-06-06T11:03:41Z</time>
      </trkpt>
      <trkpt lat="47.63331" lon="-2.67399">
        <ele>20.5</ele>
        <time>2020-06-06T11:03:42Z</time>
      </trkpt>
      <trkpt lat="47.63333" lon="-2.67406">
        <ele>20.5</ele>
        <time>2020-06-06T11:03:43Z</time>
      </trkpt>
      <trkpt lat="47.63335" lon="-2.67413">
        <ele>20.5</ele>
        <time>2020-06-06T11:03:44Z</time>
      </trkpt>
      <trkpt lat="47.63336" lon="-2.6742">
        <ele>20.4</ele>
        <time>2020-06-06T11:03:45Z</time>
      </trkpt>
      <trkpt lat="47.63339" lon="-2.67428">
        <ele>20.4</ele>
        <time>2020-06-06T11:03:46Z</time>
      </trkpt>
      <trkpt lat="47.63341" lon="-2.67435">
        <ele>20.4</ele>
        <time>2020-06-06T11:03:47Z</time>
      </trkpt>
      <trkpt lat="47.63343" lon="-2.67443">
        <ele>20.4</ele>
        <time>2020-06-06T11:03:48Z</time>
      </trkpt>
      <trkpt lat="47.63345" lon="-2.67451">
        <ele>20.4</ele>
        <time>2020-06-06T11:03:49Z</time>
      </trkpt>
      <trkpt lat="47.63348" lon="-2.67459">
        <ele>20.4</ele>
        <time>2020-06-06T11:03:50Z</time>
      </trkpt>
      <trkpt lat="47.63349" lon="-2.67467">
        <ele>20.4</ele>
        <time>2020-06-06T11:03:51Z</time>
      </trkpt>
      <trkpt lat="47.63351" lon="-2.67475">
        <ele>20.4</ele>
        <time>2020-06-06T11:03:52Z</time>
      </trkpt>
      <trkpt lat="47.63352" lon="-2.67482">
        <ele>20.4</ele>
        <time>2020-06-06T11:03:53Z</time>
      </trkpt>
      <trkpt lat="47.63354" lon="-2.6749">
        <ele>20.4</ele>
        <time>2020-06-06T11:03:54Z</time>
      </trkpt>
      <trkpt lat="47.63357" lon="-2.67497">
        <ele>20.4</ele>
        <time>2020-06-06T11:03:55Z</time>
      </trkpt>
      <trkpt lat="47.63359" lon="-2.67505">
        <ele>20.4</ele>
        <time>2020-06-06T11:03:56Z</time>
      </trkpt>
      <trkpt lat="47.63361" lon="-2.67512">
        <ele>20.4</ele>
        <time>2020-06-06T11:03:57Z</time>
      </trkpt>
      <trkpt lat="47.63363" lon="-2.67519">
        <ele>20.3</ele>
        <time>2020-06-06T11:03:58Z</time>
      </trkpt>
      <trkpt lat="47.63366" lon="-2.67526">
        <ele>20.3</ele>
        <time>2020-06-06T11:03:59Z</time>
      </trkpt>
      <trkpt lat="47.63368" lon="-2.67534">
        <ele>20.3</ele>
        <time>2020-06-06T11:04:00Z</time>
      </trkpt>
      <trkpt lat="47.6337" lon="-2.67541">
        <ele>20.3</ele>
        <time>2020-06-06T11:04:01Z</time>
      </trkpt>
      <trkpt lat="47.63372" lon="-2.67549">
        <ele>20.3</ele>
        <time>2020-06-06T11:04:02Z</time>
      </trkpt>
      <trkpt lat="47.63375" lon="-2.67557">
        <ele>20.3</ele>
        <time>2020-06-06T11:04:03Z</time>
      </trkpt>
      <trkpt lat="47.63377" lon="-2.67565">
        <ele>20.2</ele>
        <time>2020-06-06T11:04:04Z</time>
      </trkpt>
      <trkpt lat="47.63379" lon="-2.67573">
        <ele>20.2</ele>
        <time>2020-06-06T11:04:05Z</time>
      </trkpt>
      <trkpt lat="47.6338" lon="-2.67581">
        <ele>20.2</ele>
        <time>2020-06-06T11:04:06Z</time>
      </trkpt>
      <trkpt lat="47.63383" lon="-2.67588">
        <ele>20.2</ele>
        <time>2020-06-06T11:04:07Z</time>
      </trkpt>
      <trkpt lat="47.63385" lon="-2.67596">
        <ele>20.1</ele>
        <time>2020-06-06T11:04:08Z</time>
      </trkpt>
      <trkpt lat="47.63387" lon="-2.67604">
        <ele>20.1</ele>
        <time>2020-06-06T11:04:09Z</time>
      </trkpt>
      <trkpt lat="47.6339" lon="-2.67611">
        <ele>20</ele>
        <time>2020-06-06T11:04:10Z</time>
      </trkpt>
      <trkpt lat="47.63393" lon="-2.67618">
        <ele>20</ele>
        <time>2020-06-06T11:04:11Z</time>
      </trkpt>
      <trkpt lat="47.63394" lon="-2.67626">
        <ele>20</ele>
        <time>2020-06-06T11:04:12Z</time>
      </trkpt>
      <trkpt lat="47.63396" lon="-2.67634">
        <ele>20</ele>
        <time>2020-06-06T11:04:13Z</time>
      </trkpt>
      <trkpt lat="47.63398" lon="-2.67643">
        <ele>20</ele>
        <time>2020-06-06T11:04:14Z</time>
      </trkpt>
      <trkpt lat="47.63401" lon="-2.6765">
        <ele>20</ele>
        <time>2020-06-06T11:04:15Z</time>
      </trkpt>
      <trkpt lat="47.63403" lon="-2.67658">
        <ele>19.9</ele>
        <time>2020-06-06T11:04:16Z</time>
      </trkpt>
      <trkpt lat="47.63405" lon="-2.67666">
        <ele>19.9</ele>
        <time>2020-06-06T11:04:17Z</time>
      </trkpt>
      <trkpt lat="47.63408" lon="-2.67673">
        <ele>19.8</ele>
        <time>2020-06-06T11:04:18Z</time>
      </trkpt>
      <trkpt lat="47.6341" lon="-2.67681">
        <ele>19.8</ele>
        <time>2020-06-06T11:04:19Z</time>
      </trkpt>
      <trkpt lat="47.63412" lon="-2.67689">
        <ele>19.7</ele>
        <time>2020-06-06T11:04:20Z</time>
      </trkpt>
      <trkpt lat="47.63414" lon="-2.67697">
        <ele>19.6</ele>
        <time>2020-06-06T11:04:21Z</time>
      </trkpt>
      <trkpt lat="47.63416" lon="-2.67705">
        <ele>19.5</ele>
        <time>2020-06-06T11:04:22Z</time>
      </trkpt>
      <trkpt lat="47.63419" lon="-2.67713">
        <ele>19.4</ele>
        <time>2020-06-06T11:04:23Z</time>
      </trkpt>
      <trkpt lat="47.63421" lon="-2.67722">
        <ele>19.3</ele>
        <time>2020-06-06T11:04:24Z</time>
      </trkpt>
      <trkpt lat="47.63424" lon="-2.67729">
        <ele>19.2</ele>
        <time>2020-06-06T11:04:25Z</time>
      </trkpt>
      <trkpt lat="47.63426" lon="-2.67736">
        <ele>19.2</ele>
        <time>2020-06-06T11:04:26Z</time>
      </trkpt>
      <trkpt lat="47.63428" lon="-2.67744">
        <ele>19.1</ele>
        <time>2020-06-06T11:04:27Z</time>
      </trkpt>
      <trkpt lat="47.63429" lon="-2.67752">
        <ele>18.9</ele>
        <time>2020-06-06T11:04:28Z</time>
      </trkpt>
      <trkpt lat="47.6343" lon="-2.67759">
        <ele>18.8</ele>
        <time>2020-06-06T11:04:29Z</time>
      </trkpt>
      <trkpt lat="47.63432" lon="-2.67768">
        <ele>18.7</ele>
        <time>2020-06-06T11:04:30Z</time>
      </trkpt>
      <trkpt lat="47.63433" lon="-2.67775">
        <ele>18.5</ele>
        <time>2020-06-06T11:04:31Z</time>
      </trkpt>
      <trkpt lat="47.63435" lon="-2.67782">
        <ele>18.4</ele>
        <time>2020-06-06T11:04:32Z</time>
      </trkpt>
      <trkpt lat="47.63437" lon="-2.6779">
        <ele>18.3</ele>
        <time>2020-06-06T11:04:33Z</time>
      </trkpt>
      <trkpt lat="47.6344" lon="-2.67796">
        <ele>18.1</ele>
        <time>2020-06-06T11:04:34Z</time>
      </trkpt>
      <trkpt lat="47.63443" lon="-2.67804">
        <ele>18</ele>
        <time>2020-06-06T11:04:35Z</time>
      </trkpt>
      <trkpt lat="47.63446" lon="-2.67811">
        <ele>17.9</ele>
        <time>2020-06-06T11:04:36Z</time>
      </trkpt>
      <trkpt lat="47.63449" lon="-2.67819">
        <ele>17.8</ele>
        <time>2020-06-06T11:04:37Z</time>
      </trkpt>
      <trkpt lat="47.63451" lon="-2.67827">
        <ele>17.6</ele>
        <time>2020-06-06T11:04:38Z</time>
      </trkpt>
      <trkpt lat="47.63453" lon="-2.67835">
        <ele>17.5</ele>
        <time>2020-06-06T11:04:39Z</time>
      </trkpt>
      <trkpt lat="47.63455" lon="-2.67842">
        <ele>17.3</ele>
        <time>2020-06-06T11:04:40Z</time>
      </trkpt>
      <trkpt lat="47.63457" lon="-2.67851">
        <ele>17.2</ele>
        <time>2020-06-06T11:04:41Z</time>
      </trkpt>
      <trkpt lat="47.63458" lon="-2.67858">
        <ele>17</ele>
        <time>2020-06-06T11:04:42Z</time>
      </trkpt>
      <trkpt lat="47.6346" lon="-2.67867">
        <ele>16.9</ele>
        <time>2020-06-06T11:04:43Z</time>
      </trkpt>
      <trkpt lat="47.63463" lon="-2.67875">
        <ele>16.7</ele>
        <time>2020-06-06T11:04:44Z</time>
      </trkpt>
      <trkpt lat="47.63466" lon="-2.67882">
        <ele>16.5</ele>
        <time>2020-06-06T11:04:45Z</time>
      </trkpt>
      <trkpt lat="47.6347" lon="-2.67889">
        <ele>16.3</ele>
        <time>2020-06-06T11:04:46Z</time>
      </trkpt>
      <trkpt lat="47.63473" lon="-2.67897">
        <ele>16</ele>
        <time>2020-06-06T11:04:47Z</time>
      </trkpt>
      <trkpt lat="47.63476" lon="-2.67904">
        <ele>15.8</ele>
        <time>2020-06-06T11:04:48Z</time>
      </trkpt>
      <trkpt lat="47.63479" lon="-2.67911">
        <ele>15.6</ele>
        <time>2020-06-06T11:04:49Z</time>
      </trkpt>
      <trkpt lat="47.63484" lon="-2.6792">
        <ele>15.3</ele>
        <time>2020-06-06T11:04:50Z</time>
      </trkpt>
      <trkpt lat="47.63489" lon="-2.67929">
        <ele>15.1</ele>
        <time>2020-06-06T11:04:51Z</time>
      </trkpt>
      <trkpt lat="47.63494" lon="-2.67938">
        <ele>14.8</ele>
        <time>2020-06-06T11:04:52Z</time>
      </trkpt>
      <trkpt lat="47.63499" lon="-2.67945">
        <ele>14.6</ele>
        <time>2020-06-06T11:04:53Z</time>
      </trkpt>
      <trkpt lat="47.63504" lon="-2.67953">
        <ele>14.4</ele>
        <time>2020-06-06T11:04:54Z</time>
      </trkpt>
      <trkpt lat="47.6351" lon="-2.6796">
        <ele>14.2</ele>
        <time>2020-06-06T11:04:55Z</time>
      </trkpt>
      <trkpt lat="47.63516" lon="-2.67968">
        <ele>14</ele>
        <time>2020-06-06T11:04:56Z</time>
      </trkpt>
      <trkpt lat="47.63521" lon="-2.67975">
        <ele>13.8</ele>
        <time>2020-06-06T11:04:57Z</time>
      </trkpt>
      <trkpt lat="47.63527" lon="-2.67982">
        <ele>13.7</ele>
        <time>2020-06-06T11:04:58Z</time>
      </trkpt>
      <trkpt lat="47.63533" lon="-2.67988">
        <ele>13.6</ele>
        <time>2020-06-06T11:04:59Z</time>
      </trkpt>
      <trkpt lat="47.63539" lon="-2.67994">
        <ele>13.4</ele>
        <time>2020-06-06T11:05:00Z</time>
      </trkpt>
      <trkpt lat="47.63546" lon="-2.68">
        <ele>13.3</ele>
        <time>2020-06-06T11:05:01Z</time>
      </trkpt>
      <trkpt lat="47.63552" lon="-2.68005">
        <ele>13.2</ele>
        <time>2020-06-06T11:05:02Z</time>
      </trkpt>
      <trkpt lat="47.63558" lon="-2.6801">
        <ele>13.1</ele>
        <time>2020-06-06T11:05:03Z</time>
      </trkpt>
      <trkpt lat="47.63564" lon="-2.68015">
        <ele>13</ele>
        <time>2020-06-06T11:05:04Z</time>
      </trkpt>
      <trkpt lat="47.63571" lon="-2.68019">
        <ele>12.9</ele>
        <time>2020-06-06T11:05:05Z</time>
      </trkpt>
      <trkpt lat="47.63577" lon="-2.68023">
        <ele>12.7</ele>
        <time>2020-06-06T11:05:06Z</time>
      </trkpt>
      <trkpt lat="47.63584" lon="-2.68027">
        <ele>12.6</ele>
        <time>2020-06-06T11:05:07Z</time>
      </trkpt>
      <trkpt lat="47.63591" lon="-2.6803">
        <ele>12.5</ele>
        <time>2020-06-06T11:05:08Z</time>
      </trkpt>
      <trkpt lat="47.63597" lon="-2.68035">
        <ele>12.3</ele>
        <time>2020-06-06T11:05:09Z</time>
      </trkpt>
      <trkpt lat="47.63604" lon="-2.68039">
        <ele>12.2</ele>
        <time>2020-06-06T11:05:10Z</time>
      </trkpt>
      <trkpt lat="47.6361" lon="-2.68043">
        <ele>12</ele>
        <time>2020-06-06T11:05:11Z</time>
      </trkpt>
      <trkpt lat="47.63616" lon="-2.68047">
        <ele>11.8</ele>
        <time>2020-06-06T11:05:12Z</time>
      </trkpt>
      <trkpt lat="47.63623" lon="-2.6805">
        <ele>11.7</ele>
        <time>2020-06-06T11:05:13Z</time>
      </trkpt>
      <trkpt lat="47.63629" lon="-2.68054">
        <ele>11.5</ele>
        <time>2020-06-06T11:05:14Z</time>
      </trkpt>
      <trkpt lat="47.63635" lon="-2.68057">
        <ele>11.3</ele>
        <time>2020-06-06T11:05:15Z</time>
      </trkpt>
      <trkpt lat="47.63641" lon="-2.68061">
        <ele>11.1</ele>
        <time>2020-06-06T11:05:16Z</time>
      </trkpt>
      <trkpt lat="47.63647" lon="-2.68065">
        <ele>10.9</ele>
        <time>2020-06-06T11:05:17Z</time>
      </trkpt>
      <trkpt lat="47.63654" lon="-2.68068">
        <ele>10.7</ele>
        <time>2020-06-06T11:05:18Z</time>
      </trkpt>
      <trkpt lat="47.6366" lon="-2.68072">
        <ele>10.4</ele>
        <time>2020-06-06T11:05:19Z</time>
      </trkpt>
      <trkpt lat="47.63666" lon="-2.68077">
        <ele>10</ele>
        <time>2020-06-06T11:05:20Z</time>
      </trkpt>
      <trkpt lat="47.63672" lon="-2.68083">
        <ele>9.6</ele>
        <time>2020-06-06T11:05:21Z</time>
      </trkpt>
      <trkpt lat="47.63678" lon="-2.68091">
        <ele>9.2</ele>
        <time>2020-06-06T11:05:22Z</time>
      </trkpt>
      <trkpt lat="47.63684" lon="-2.68097">
        <ele>8.7</ele>
        <time>2020-06-06T11:05:23Z</time>
      </trkpt>
      <trkpt lat="47.63691" lon="-2.68104">
        <ele>8.2</ele>
        <time>2020-06-06T11:05:24Z</time>
      </trkpt>
      <trkpt lat="47.63698" lon="-2.6811">
        <ele>7.7</ele>
        <time>2020-06-06T11:05:25Z</time>
      </trkpt>
      <trkpt lat="47.63705" lon="-2.68117">
        <ele>7.2</ele>
        <time>2020-06-06T11:05:26Z</time>
      </trkpt>
      <trkpt lat="47.63712" lon="-2.68125">
        <ele>6.8</ele>
        <time>2020-06-06T11:05:27Z</time>
      </trkpt>
      <trkpt lat="47.63719" lon="-2.68133">
        <ele>6.5</ele>
        <time>2020-06-06T11:05:28Z</time>
      </trkpt>
      <trkpt lat="47.63724" lon="-2.68143">
        <ele>6.2</ele>
        <time>2020-06-06T11:05:29Z</time>
      </trkpt>
      <trkpt lat="47.63729" lon="-2.68154">
        <ele>6</ele>
        <time>2020-06-06T11:05:30Z</time>
      </trkpt>
      <trkpt lat="47.63732" lon="-2.68165">
        <ele>5.9</ele>
        <time>2020-06-06T11:05:31Z</time>
      </trkpt>
      <trkpt lat="47.63732" lon="-2.68177">
        <ele>5.7</ele>
        <time>2020-06-06T11:05:32Z</time>
      </trkpt>
      <trkpt lat="47.63732" lon="-2.68188">
        <ele>5.6</ele>
        <time>2020-06-06T11:05:33Z</time>
      </trkpt>
      <trkpt lat="47.63729" lon="-2.68197">
        <ele>5.5</ele>
        <time>2020-06-06T11:05:34Z</time>
      </trkpt>
      <trkpt lat="47.63724" lon="-2.68204">
        <ele>5.4</ele>
        <time>2020-06-06T11:05:35Z</time>
      </trkpt>
      <trkpt lat="47.63717" lon="-2.68209">
        <ele>5.3</ele>
        <time>2020-06-06T11:05:36Z</time>
      </trkpt>
      <trkpt lat="47.63706" lon="-2.68213">
        <ele>5.1</ele>
        <time>2020-06-06T11:05:37Z</time>
      </trkpt>
      <trkpt lat="47.63702" lon="-2.68214">
        <ele>5.1</ele>
        <time>2020-06-06T11:05:38Z</time>
      </trkpt>
      <trkpt lat="47.63698" lon="-2.68214">
        <ele>5.2</ele>
        <time>2020-06-06T11:05:39Z</time>
      </trkpt>
      <trkpt lat="47.63691" lon="-2.68217">
        <ele>5.3</ele>
        <time>2020-06-06T11:05:40Z</time>
      </trkpt>
      <trkpt lat="47.63684" lon="-2.68217">
        <ele>5.5</ele>
        <time>2020-06-06T11:05:41Z</time>
      </trkpt>
      <trkpt lat="47.63677" lon="-2.68218">
        <ele>5.7</ele>
        <time>2020-06-06T11:05:42Z</time>
      </trkpt>
      <trkpt lat="47.63671" lon="-2.68218">
        <ele>5.9</ele>
        <time>2020-06-06T11:05:43Z</time>
      </trkpt>
      <trkpt lat="47.63665" lon="-2.68219">
        <ele>6</ele>
        <time>2020-06-06T11:05:44Z</time>
      </trkpt>
      <trkpt lat="47.63659" lon="-2.68218">
        <ele>6.2</ele>
        <time>2020-06-06T11:05:45Z</time>
      </trkpt>
      <trkpt lat="47.63653" lon="-2.68218">
        <ele>6.3</ele>
        <time>2020-06-06T11:05:46Z</time>
      </trkpt>
      <trkpt lat="47.63647" lon="-2.68218">
        <ele>6.4</ele>
        <time>2020-06-06T11:05:47Z</time>
      </trkpt>
      <trkpt lat="47.63642" lon="-2.68219">
        <ele>6.6</ele>
        <time>2020-06-06T11:05:48Z</time>
      </trkpt>
      <trkpt lat="47.63639" lon="-2.68222">
        <ele>6.5</ele>
        <time>2020-06-06T11:05:49Z</time>
      </trkpt>
      <trkpt lat="47.63637" lon="-2.68227">
        <ele>6.5</ele>
        <time>2020-06-06T11:05:50Z</time>
      </trkpt>
      <trkpt lat="47.63636" lon="-2.68234">
        <ele>6.4</ele>
        <time>2020-06-06T11:05:51Z</time>
      </trkpt>
      <trkpt lat="47.63636" lon="-2.68242">
        <ele>6.3</ele>
        <time>2020-06-06T11:05:52Z</time>
      </trkpt>
      <trkpt lat="47.63635" lon="-2.68257">
        <ele>6.2</ele>
        <time>2020-06-06T11:05:53Z</time>
      </trkpt>
      <trkpt lat="47.63635" lon="-2.68264">
        <ele>6.1</ele>
        <time>2020-06-06T11:05:54Z</time>
      </trkpt>
      <trkpt lat="47.63634" lon="-2.68272">
        <ele>6</ele>
        <time>2020-06-06T11:05:55Z</time>
      </trkpt>
      <trkpt lat="47.63634" lon="-2.68279">
        <ele>6</ele>
        <time>2020-06-06T11:05:56Z</time>
      </trkpt>
      <trkpt lat="47.63634" lon="-2.68297">
        <ele>5.9</ele>
        <time>2020-06-06T11:05:57Z</time>
      </trkpt>
      <trkpt lat="47.63632" lon="-2.68308">
        <ele>6</ele>
        <time>2020-06-06T11:05:58Z</time>
      </trkpt>
      <trkpt lat="47.63628" lon="-2.68315">
        <ele>6.1</ele>
        <time>2020-06-06T11:05:59Z</time>
      </trkpt>
      <trkpt lat="47.63626" lon="-2.6832">
        <ele>6.2</ele>
        <time>2020-06-06T11:06:00Z</time>
      </trkpt>
      <trkpt lat="47.63622" lon="-2.6832">
        <ele>6.2</ele>
        <time>2020-06-06T11:06:01Z</time>
      </trkpt>
      <trkpt lat="47.63619" lon="-2.68322">
        <ele>6.3</ele>
        <time>2020-06-06T11:06:02Z</time>
      </trkpt>
      <trkpt lat="47.63618" lon="-2.68327">
        <ele>6.4</ele>
        <time>2020-06-06T11:06:03Z</time>
      </trkpt>
      <trkpt lat="47.63617" lon="-2.6833">
        <ele>6.4</ele>
        <time>2020-06-06T11:06:04Z</time>
      </trkpt>
      <trkpt lat="47.63617" lon="-2.6833">
        <ele>6.4</ele>
        <time>2020-06-06T11:06:05Z</time>
      </trkpt>
      <trkpt lat="47.63616" lon="-2.6833">
        <ele>6.4</ele>
        <time>2020-06-06T11:06:06Z</time>
      </trkpt>
      <trkpt lat="47.63615" lon="-2.6833">
        <ele>6.4</ele>
        <time>2020-06-06T11:06:07Z</time>
      </trkpt>
      <trkpt lat="47.63614" lon="-2.6833">
        <ele>6.4</ele>
        <time>2020-06-06T11:06:08Z</time>
      </trkpt>
      <trkpt lat="47.63614" lon="-2.6833">
        <ele>6.5</ele>
        <time>2020-06-06T11:06:09Z</time>
      </trkpt>
      <trkpt lat="47.63613" lon="-2.68331">
        <ele>6.5</ele>
        <time>2020-06-06T11:06:10Z</time>
      </trkpt>
      <trkpt lat="47.63613" lon="-2.68331">
        <ele>6.5</ele>
        <time>2020-06-06T11:06:11Z</time>
      </trkpt>
      <trkpt lat="47.63613" lon="-2.68331">
        <ele>6.5</ele>
        <time>2020-06-06T11:06:12Z</time>
      </trkpt>
      <trkpt lat="47.63613" lon="-2.68331">
        <ele>6.5</ele>
        <time>2020-06-06T11:06:13Z</time>
      </trkpt>
      <trkpt lat="47.63613" lon="-2.68331">
        <ele>6.5</ele>
        <time>2020-06-06T11:06:14Z</time>
      </trkpt>
      <trkpt lat="47.63613" lon="-2.68331">
        <ele>6.5</ele>
        <time>2020-06-06T11:06:15Z</time>
      </trkpt>
      <trkpt lat="47.63613" lon="-2.68331">
        <ele>6.5</ele>
        <time>2020-06-06T11:06:16Z</time>
      </trkpt>
      <trkpt lat="47.63613" lon="-2.68331">
        <ele>6.5</ele>
        <time>2020-06-06T11:06:17Z</time>
      </trkpt>
      <trkpt lat="47.63614" lon="-2.68331">
        <ele>6.5</ele>
        <time>2020-06-06T11:06:18Z</time>
      </trkpt>
      <trkpt lat="47.63614" lon="-2.68332">
        <ele>6.5</ele>
        <time>2020-06-06T11:06:19Z</time>
      </trkpt>
      <trkpt lat="47.63614" lon="-2.68333">
        <ele>6.5</ele>
        <time>2020-06-06T11:06:20Z</time>
      </trkpt>
      <trkpt lat="47.63614" lon="-2.68334">
        <ele>6.5</ele>
        <time>2020-06-06T11:06:21Z</time>
      </trkpt>
      <trkpt lat="47.63614" lon="-2.68334">
        <ele>6.5</ele>
        <time>2020-06-06T11:06:22Z</time>
      </trkpt>
      <trkpt lat="47.63614" lon="-2.68335">
        <ele>6.5</ele>
        <time>2020-06-06T11:06:23Z</time>
      </trkpt>
      <trkpt lat="47.63614" lon="-2.68335">
        <ele>6.5</ele>
        <time>2020-06-06T11:06:24Z</time>
      </trkpt>
      <trkpt lat="47.63614" lon="-2.68336">
        <ele>6.5</ele>
        <time>2020-06-06T11:06:25Z</time>
      </trkpt>
      <trkpt lat="47.6361" lon="-2.68332">
        <ele>6.6</ele>
        <time>2020-06-06T11:06:59Z</time>
      </trkpt>
      <trkpt lat="47.63609" lon="-2.68331">
        <ele>6.6</ele>
        <time>2020-06-06T11:07:00Z</time>
      </trkpt>
      <trkpt lat="47.63609" lon="-2.68331">
        <ele>6.6</ele>
        <time>2020-06-06T11:07:01Z</time>
      </trkpt>
      <trkpt lat="47.63609" lon="-2.68331">
        <ele>6.6</ele>
        <time>2020-06-06T11:07:02Z</time>
      </trkpt>
      <trkpt lat="47.63609" lon="-2.68331">
        <ele>6.6</ele>
        <time>2020-06-06T11:07:03Z</time>
      </trkpt>
      <trkpt lat="47.6361" lon="-2.6833">
        <ele>6.6</ele>
        <time>2020-06-06T11:07:04Z</time>
      </trkpt>
      <trkpt lat="47.6361" lon="-2.6833">
        <ele>6.6</ele>
        <time>2020-06-06T11:07:05Z</time>
      </trkpt>
      <trkpt lat="47.63609" lon="-2.68331">
        <ele>6.7</ele>
        <time>2020-06-06T11:07:06Z</time>
      </trkpt>
      <trkpt lat="47.63609" lon="-2.68331">
        <ele>6.7</ele>
        <time>2020-06-06T11:07:07Z</time>
      </trkpt>
      <trkpt lat="47.63608" lon="-2.68332">
        <ele>6.7</ele>
        <time>2020-06-06T11:07:08Z</time>
      </trkpt>
      <trkpt lat="47.63606" lon="-2.68331">
        <ele>6.7</ele>
        <time>2020-06-06T11:07:09Z</time>
      </trkpt>
      <trkpt lat="47.63604" lon="-2.68329">
        <ele>6.7</ele>
        <time>2020-06-06T11:07:10Z</time>
      </trkpt>
      <trkpt lat="47.63601" lon="-2.68328">
        <ele>6.7</ele>
        <time>2020-06-06T11:08:32Z</time>
      </trkpt>
      <trkpt lat="47.63599" lon="-2.68326">
        <ele>6.8</ele>
        <time>2020-06-06T11:08:33Z</time>
      </trkpt>
      <trkpt lat="47.63597" lon="-2.68325">
        <ele>6.8</ele>
        <time>2020-06-06T11:08:34Z</time>
      </trkpt>
      <trkpt lat="47.63594" lon="-2.68322">
        <ele>6.9</ele>
        <time>2020-06-06T11:08:35Z</time>
      </trkpt>
      <trkpt lat="47.63591" lon="-2.68319">
        <ele>6.9</ele>
        <time>2020-06-06T11:08:36Z</time>
      </trkpt>
      <trkpt lat="47.63588" lon="-2.68316">
        <ele>7</ele>
        <time>2020-06-06T11:08:37Z</time>
      </trkpt>
      <trkpt lat="47.63584" lon="-2.68315">
        <ele>7</ele>
        <time>2020-06-06T11:08:38Z</time>
      </trkpt>
      <trkpt lat="47.63581" lon="-2.68314">
        <ele>7.1</ele>
        <time>2020-06-06T11:08:39Z</time>
      </trkpt>
      <trkpt lat="47.63578" lon="-2.68313">
        <ele>7.2</ele>
        <time>2020-06-06T11:08:40Z</time>
      </trkpt>
      <trkpt lat="47.63575" lon="-2.68311">
        <ele>7.3</ele>
        <time>2020-06-06T11:08:41Z</time>
      </trkpt>
      <trkpt lat="47.63572" lon="-2.6831">
        <ele>7.4</ele>
        <time>2020-06-06T11:08:42Z</time>
      </trkpt>
      <trkpt lat="47.63569" lon="-2.68307">
        <ele>7.5</ele>
        <time>2020-06-06T11:08:43Z</time>
      </trkpt>
      <trkpt lat="47.63565" lon="-2.68306">
        <ele>7.6</ele>
        <time>2020-06-06T11:08:44Z</time>
      </trkpt>
      <trkpt lat="47.63562" lon="-2.68307">
        <ele>7.7</ele>
        <time>2020-06-06T11:08:45Z</time>
      </trkpt>
      <trkpt lat="47.63558" lon="-2.68308">
        <ele>7.8</ele>
        <time>2020-06-06T11:08:46Z</time>
      </trkpt>
      <trkpt lat="47.63554" lon="-2.68309">
        <ele>7.9</ele>
        <time>2020-06-06T11:08:47Z</time>
      </trkpt>
      <trkpt lat="47.63551" lon="-2.6831">
        <ele>8</ele>
        <time>2020-06-06T11:08:48Z</time>
      </trkpt>
      <trkpt lat="47.63547" lon="-2.68311">
        <ele>8.2</ele>
        <time>2020-06-06T11:08:49Z</time>
      </trkpt>
      <trkpt lat="47.63544" lon="-2.68313">
        <ele>8.3</ele>
        <time>2020-06-06T11:08:50Z</time>
      </trkpt>
      <trkpt lat="47.6354" lon="-2.68315">
        <ele>8.5</ele>
        <time>2020-06-06T11:08:51Z</time>
      </trkpt>
      <trkpt lat="47.63538" lon="-2.68317">
        <ele>8.6</ele>
        <time>2020-06-06T11:08:52Z</time>
      </trkpt>
      <trkpt lat="47.63536" lon="-2.68321">
        <ele>8.6</ele>
        <time>2020-06-06T11:08:53Z</time>
      </trkpt>
      <trkpt lat="47.63535" lon="-2.68326">
        <ele>8.6</ele>
        <time>2020-06-06T11:08:54Z</time>
      </trkpt>
      <trkpt lat="47.63534" lon="-2.68331">
        <ele>8.6</ele>
        <time>2020-06-06T11:08:55Z</time>
      </trkpt>
      <trkpt lat="47.63534" lon="-2.68338">
        <ele>8.6</ele>
        <time>2020-06-06T11:08:56Z</time>
      </trkpt>
      <trkpt lat="47.63535" lon="-2.68345">
        <ele>8.6</ele>
        <time>2020-06-06T11:08:57Z</time>
      </trkpt>
      <trkpt lat="47.63536" lon="-2.6835">
        <ele>8.6</ele>
        <time>2020-06-06T11:08:58Z</time>
      </trkpt>
      <trkpt lat="47.63536" lon="-2.68356">
        <ele>8.6</ele>
        <time>2020-06-06T11:08:59Z</time>
      </trkpt>
      <trkpt lat="47.63537" lon="-2.68362">
        <ele>8.6</ele>
        <time>2020-06-06T11:09:00Z</time>
      </trkpt>
      <trkpt lat="47.63538" lon="-2.6837">
        <ele>8.6</ele>
        <time>2020-06-06T11:09:01Z</time>
      </trkpt>
      <trkpt lat="47.6354" lon="-2.68376">
        <ele>8.6</ele>
        <time>2020-06-06T11:09:02Z</time>
      </trkpt>
      <trkpt lat="47.63541" lon="-2.68384">
        <ele>8.6</ele>
        <time>2020-06-06T11:09:03Z</time>
      </trkpt>
      <trkpt lat="47.63541" lon="-2.68391">
        <ele>8.7</ele>
        <time>2020-06-06T11:09:04Z</time>
      </trkpt>
      <trkpt lat="47.63543" lon="-2.68395">
        <ele>8.7</ele>
        <time>2020-06-06T11:09:05Z</time>
      </trkpt>
      <trkpt lat="47.63544" lon="-2.68401">
        <ele>8.7</ele>
        <time>2020-06-06T11:09:06Z</time>
      </trkpt>
      <trkpt lat="47.63545" lon="-2.68406">
        <ele>8.7</ele>
        <time>2020-06-06T11:09:07Z</time>
      </trkpt>
      <trkpt lat="47.63546" lon="-2.6841">
        <ele>8.7</ele>
        <time>2020-06-06T11:09:08Z</time>
      </trkpt>
      <trkpt lat="47.63547" lon="-2.68415">
        <ele>8.7</ele>
        <time>2020-06-06T11:09:09Z</time>
      </trkpt>
      <trkpt lat="47.63548" lon="-2.68421">
        <ele>8.7</ele>
        <time>2020-06-06T11:09:10Z</time>
      </trkpt>
      <trkpt lat="47.63549" lon="-2.68427">
        <ele>8.7</ele>
        <time>2020-06-06T11:09:11Z</time>
      </trkpt>
      <trkpt lat="47.6355" lon="-2.68434">
        <ele>8.7</ele>
        <time>2020-06-06T11:09:12Z</time>
      </trkpt>
      <trkpt lat="47.6355" lon="-2.68441">
        <ele>8.7</ele>
        <time>2020-06-06T11:09:13Z</time>
      </trkpt>
      <trkpt lat="47.63551" lon="-2.68448">
        <ele>8.6</ele>
        <time>2020-06-06T11:09:14Z</time>
      </trkpt>
      <trkpt lat="47.63552" lon="-2.68455">
        <ele>8.6</ele>
        <time>2020-06-06T11:09:15Z</time>
      </trkpt>
      <trkpt lat="47.63553" lon="-2.68462">
        <ele>8.6</ele>
        <time>2020-06-06T11:09:16Z</time>
      </trkpt>
      <trkpt lat="47.63554" lon="-2.68469">
        <ele>8.5</ele>
        <time>2020-06-06T11:09:17Z</time>
      </trkpt>
      <trkpt lat="47.63555" lon="-2.68474">
        <ele>8.5</ele>
        <time>2020-06-06T11:09:18Z</time>
      </trkpt>
      <trkpt lat="47.63556" lon="-2.6848">
        <ele>8.4</ele>
        <time>2020-06-06T11:09:19Z</time>
      </trkpt>
      <trkpt lat="47.63558" lon="-2.68486">
        <ele>8.4</ele>
        <time>2020-06-06T11:09:20Z</time>
      </trkpt>
      <trkpt lat="47.6356" lon="-2.6849">
        <ele>8.4</ele>
        <time>2020-06-06T11:09:21Z</time>
      </trkpt>
      <trkpt lat="47.6356" lon="-2.68496">
        <ele>8.4</ele>
        <time>2020-06-06T11:09:22Z</time>
      </trkpt>
      <trkpt lat="47.63561" lon="-2.68502">
        <ele>8.3</ele>
        <time>2020-06-06T11:09:23Z</time>
      </trkpt>
      <trkpt lat="47.63562" lon="-2.68507">
        <ele>8.3</ele>
        <time>2020-06-06T11:09:24Z</time>
      </trkpt>
      <trkpt lat="47.63563" lon="-2.68512">
        <ele>8.3</ele>
        <time>2020-06-06T11:09:25Z</time>
      </trkpt>
      <trkpt lat="47.63565" lon="-2.68518">
        <ele>8.2</ele>
        <time>2020-06-06T11:09:26Z</time>
      </trkpt>
      <trkpt lat="47.63565" lon="-2.68522">
        <ele>8.2</ele>
        <time>2020-06-06T11:09:27Z</time>
      </trkpt>
      <trkpt lat="47.63566" lon="-2.68527">
        <ele>8.2</ele>
        <time>2020-06-06T11:09:28Z</time>
      </trkpt>
      <trkpt lat="47.63567" lon="-2.68533">
        <ele>8.1</ele>
        <time>2020-06-06T11:09:29Z</time>
      </trkpt>
      <trkpt lat="47.63568" lon="-2.6854">
        <ele>8.1</ele>
        <time>2020-06-06T11:09:30Z</time>
      </trkpt>
      <trkpt lat="47.6357" lon="-2.68547">
        <ele>8</ele>
        <time>2020-06-06T11:09:31Z</time>
      </trkpt>
      <trkpt lat="47.63571" lon="-2.68555">
        <ele>8</ele>
        <time>2020-06-06T11:09:32Z</time>
      </trkpt>
      <trkpt lat="47.63574" lon="-2.68562">
        <ele>7.9</ele>
        <time>2020-06-06T11:09:33Z</time>
      </trkpt>
      <trkpt lat="47.63576" lon="-2.68571">
        <ele>7.8</ele>
        <time>2020-06-06T11:09:34Z</time>
      </trkpt>
      <trkpt lat="47.63578" lon="-2.68579">
        <ele>7.8</ele>
        <time>2020-06-06T11:09:35Z</time>
      </trkpt>
      <trkpt lat="47.63579" lon="-2.68587">
        <ele>7.7</ele>
        <time>2020-06-06T11:09:36Z</time>
      </trkpt>
      <trkpt lat="47.63581" lon="-2.68595">
        <ele>7.7</ele>
        <time>2020-06-06T11:09:37Z</time>
      </trkpt>
      <trkpt lat="47.63583" lon="-2.68603">
        <ele>7.7</ele>
        <time>2020-06-06T11:09:38Z</time>
      </trkpt>
      <trkpt lat="47.63585" lon="-2.68611">
        <ele>7.6</ele>
        <time>2020-06-06T11:09:39Z</time>
      </trkpt>
      <trkpt lat="47.63586" lon="-2.68619">
        <ele>7.6</ele>
        <time>2020-06-06T11:09:40Z</time>
      </trkpt>
      <trkpt lat="47.63587" lon="-2.68626">
        <ele>7.6</ele>
        <time>2020-06-06T11:09:41Z</time>
      </trkpt>
      <trkpt lat="47.63589" lon="-2.68634">
        <ele>7.6</ele>
        <time>2020-06-06T11:09:42Z</time>
      </trkpt>
      <trkpt lat="47.63591" lon="-2.68641">
        <ele>7.6</ele>
        <time>2020-06-06T11:09:43Z</time>
      </trkpt>
      <trkpt lat="47.63594" lon="-2.68647">
        <ele>7.7</ele>
        <time>2020-06-06T11:09:44Z</time>
      </trkpt>
      <trkpt lat="47.63596" lon="-2.68653">
        <ele>7.7</ele>
        <time>2020-06-06T11:09:45Z</time>
      </trkpt>
      <trkpt lat="47.63599" lon="-2.68661">
        <ele>7.7</ele>
        <time>2020-06-06T11:09:46Z</time>
      </trkpt>
      <trkpt lat="47.63601" lon="-2.68667">
        <ele>7.7</ele>
        <time>2020-06-06T11:09:47Z</time>
      </trkpt>
      <trkpt lat="47.63603" lon="-2.68674">
        <ele>7.7</ele>
        <time>2020-06-06T11:09:48Z</time>
      </trkpt>
      <trkpt lat="47.63605" lon="-2.68681">
        <ele>7.7</ele>
        <time>2020-06-06T11:09:49Z</time>
      </trkpt>
      <trkpt lat="47.63607" lon="-2.6869">
        <ele>7.8</ele>
        <time>2020-06-06T11:09:50Z</time>
      </trkpt>
      <trkpt lat="47.6361" lon="-2.68697">
        <ele>7.8</ele>
        <time>2020-06-06T11:09:51Z</time>
      </trkpt>
      <trkpt lat="47.63612" lon="-2.68703">
        <ele>7.8</ele>
        <time>2020-06-06T11:09:52Z</time>
      </trkpt>
      <trkpt lat="47.63614" lon="-2.68709">
        <ele>7.8</ele>
        <time>2020-06-06T11:09:53Z</time>
      </trkpt>
      <trkpt lat="47.63617" lon="-2.68715">
        <ele>7.8</ele>
        <time>2020-06-06T11:09:54Z</time>
      </trkpt>
      <trkpt lat="47.6362" lon="-2.6872">
        <ele>7.8</ele>
        <time>2020-06-06T11:09:55Z</time>
      </trkpt>
      <trkpt lat="47.63623" lon="-2.68726">
        <ele>7.8</ele>
        <time>2020-06-06T11:09:56Z</time>
      </trkpt>
      <trkpt lat="47.63626" lon="-2.68732">
        <ele>7.8</ele>
        <time>2020-06-06T11:09:57Z</time>
      </trkpt>
      <trkpt lat="47.63628" lon="-2.68738">
        <ele>7.8</ele>
        <time>2020-06-06T11:09:58Z</time>
      </trkpt>
      <trkpt lat="47.63631" lon="-2.68745">
        <ele>7.7</ele>
        <time>2020-06-06T11:09:59Z</time>
      </trkpt>
      <trkpt lat="47.63634" lon="-2.68751">
        <ele>7.6</ele>
        <time>2020-06-06T11:10:00Z</time>
      </trkpt>
      <trkpt lat="47.63638" lon="-2.68757">
        <ele>7.5</ele>
        <time>2020-06-06T11:10:01Z</time>
      </trkpt>
      <trkpt lat="47.63641" lon="-2.68764">
        <ele>7.4</ele>
        <time>2020-06-06T11:10:02Z</time>
      </trkpt>
      <trkpt lat="47.63643" lon="-2.68771">
        <ele>7.3</ele>
        <time>2020-06-06T11:10:03Z</time>
      </trkpt>
      <trkpt lat="47.63646" lon="-2.68778">
        <ele>7.1</ele>
        <time>2020-06-06T11:10:04Z</time>
      </trkpt>
      <trkpt lat="47.6365" lon="-2.68784">
        <ele>7</ele>
        <time>2020-06-06T11:10:05Z</time>
      </trkpt>
      <trkpt lat="47.63653" lon="-2.6879">
        <ele>6.8</ele>
        <time>2020-06-06T11:10:06Z</time>
      </trkpt>
      <trkpt lat="47.63657" lon="-2.68796">
        <ele>6.7</ele>
        <time>2020-06-06T11:10:07Z</time>
      </trkpt>
      <trkpt lat="47.63659" lon="-2.68804">
        <ele>6.6</ele>
        <time>2020-06-06T11:10:08Z</time>
      </trkpt>
      <trkpt lat="47.63663" lon="-2.68811">
        <ele>6.4</ele>
        <time>2020-06-06T11:10:09Z</time>
      </trkpt>
      <trkpt lat="47.63667" lon="-2.68817">
        <ele>6.3</ele>
        <time>2020-06-06T11:10:10Z</time>
      </trkpt>
      <trkpt lat="47.6367" lon="-2.68824">
        <ele>6.2</ele>
        <time>2020-06-06T11:10:11Z</time>
      </trkpt>
      <trkpt lat="47.63674" lon="-2.6883">
        <ele>6</ele>
        <time>2020-06-06T11:10:12Z</time>
      </trkpt>
      <trkpt lat="47.63677" lon="-2.68835">
        <ele>5.9</ele>
        <time>2020-06-06T11:10:13Z</time>
      </trkpt>
      <trkpt lat="47.6368" lon="-2.68841">
        <ele>5.7</ele>
        <time>2020-06-06T11:10:14Z</time>
      </trkpt>
      <trkpt lat="47.63683" lon="-2.68847">
        <ele>5.6</ele>
        <time>2020-06-06T11:10:15Z</time>
      </trkpt>
      <trkpt lat="47.63686" lon="-2.68852">
        <ele>5.4</ele>
        <time>2020-06-06T11:10:16Z</time>
      </trkpt>
      <trkpt lat="47.6369" lon="-2.68857">
        <ele>5.3</ele>
        <time>2020-06-06T11:10:17Z</time>
      </trkpt>
      <trkpt lat="47.63693" lon="-2.68862">
        <ele>5.2</ele>
        <time>2020-06-06T11:10:18Z</time>
      </trkpt>
      <trkpt lat="47.63695" lon="-2.68866">
        <ele>4.9</ele>
        <time>2020-06-06T11:10:19Z</time>
      </trkpt>
      <trkpt lat="47.63698" lon="-2.68871">
        <ele>4.9</ele>
        <time>2020-06-06T11:10:20Z</time>
      </trkpt>
      <trkpt lat="47.63701" lon="-2.68875">
        <ele>4.8</ele>
        <time>2020-06-06T11:10:21Z</time>
      </trkpt>
      <trkpt lat="47.63704" lon="-2.68879">
        <ele>4.8</ele>
        <time>2020-06-06T11:10:22Z</time>
      </trkpt>
      <trkpt lat="47.63707" lon="-2.68882">
        <ele>4.8</ele>
        <time>2020-06-06T11:10:23Z</time>
      </trkpt>
      <trkpt lat="47.63709" lon="-2.68887">
        <ele>4.8</ele>
        <time>2020-06-06T11:10:24Z</time>
      </trkpt>
      <trkpt lat="47.63712" lon="-2.6889">
        <ele>4.8</ele>
        <time>2020-06-06T11:10:25Z</time>
      </trkpt>
      <trkpt lat="47.63715" lon="-2.68894">
        <ele>4.8</ele>
        <time>2020-06-06T11:10:26Z</time>
      </trkpt>
      <trkpt lat="47.63719" lon="-2.689">
        <ele>4.8</ele>
        <time>2020-06-06T11:10:27Z</time>
      </trkpt>
      <trkpt lat="47.63722" lon="-2.68905">
        <ele>4.8</ele>
        <time>2020-06-06T11:10:28Z</time>
      </trkpt>
      <trkpt lat="47.63726" lon="-2.68911">
        <ele>4.8</ele>
        <time>2020-06-06T11:10:29Z</time>
      </trkpt>
      <trkpt lat="47.63729" lon="-2.68917">
        <ele>4.8</ele>
        <time>2020-06-06T11:10:30Z</time>
      </trkpt>
      <trkpt lat="47.63733" lon="-2.68922">
        <ele>4.7</ele>
        <time>2020-06-06T11:10:31Z</time>
      </trkpt>
      <trkpt lat="47.63735" lon="-2.68927">
        <ele>4.7</ele>
        <time>2020-06-06T11:10:32Z</time>
      </trkpt>
      <trkpt lat="47.63739" lon="-2.68933">
        <ele>4.7</ele>
        <time>2020-06-06T11:10:33Z</time>
      </trkpt>
      <trkpt lat="47.63742" lon="-2.68938">
        <ele>4.7</ele>
        <time>2020-06-06T11:10:34Z</time>
      </trkpt>
      <trkpt lat="47.63746" lon="-2.68942">
        <ele>4.7</ele>
        <time>2020-06-06T11:10:35Z</time>
      </trkpt>
      <trkpt lat="47.6375" lon="-2.68948">
        <ele>4.7</ele>
        <time>2020-06-06T11:10:36Z</time>
      </trkpt>
      <trkpt lat="47.63753" lon="-2.68953">
        <ele>4.6</ele>
        <time>2020-06-06T11:10:37Z</time>
      </trkpt>
      <trkpt lat="47.63758" lon="-2.68958">
        <ele>4.6</ele>
        <time>2020-06-06T11:10:38Z</time>
      </trkpt>
      <trkpt lat="47.63761" lon="-2.68963">
        <ele>4.6</ele>
        <time>2020-06-06T11:10:39Z</time>
      </trkpt>
      <trkpt lat="47.63765" lon="-2.6897">
        <ele>4.5</ele>
        <time>2020-06-06T11:10:40Z</time>
      </trkpt>
      <trkpt lat="47.63769" lon="-2.68974">
        <ele>4.5</ele>
        <time>2020-06-06T11:10:41Z</time>
      </trkpt>
      <trkpt lat="47.63773" lon="-2.6898">
        <ele>4.5</ele>
        <time>2020-06-06T11:10:42Z</time>
      </trkpt>
      <trkpt lat="47.63778" lon="-2.68984">
        <ele>4.5</ele>
        <time>2020-06-06T11:10:43Z</time>
      </trkpt>
      <trkpt lat="47.63782" lon="-2.68989">
        <ele>4.5</ele>
        <time>2020-06-06T11:10:44Z</time>
      </trkpt>
      <trkpt lat="47.63786" lon="-2.68993">
        <ele>4.4</ele>
        <time>2020-06-06T11:10:45Z</time>
      </trkpt>
      <trkpt lat="47.63791" lon="-2.68997">
        <ele>4.5</ele>
        <time>2020-06-06T11:10:46Z</time>
      </trkpt>
      <trkpt lat="47.63795" lon="-2.69003">
        <ele>4.5</ele>
        <time>2020-06-06T11:10:47Z</time>
      </trkpt>
      <trkpt lat="47.638" lon="-2.69008">
        <ele>4.5</ele>
        <time>2020-06-06T11:10:48Z</time>
      </trkpt>
      <trkpt lat="47.63804" lon="-2.69015">
        <ele>4.6</ele>
        <time>2020-06-06T11:10:49Z</time>
      </trkpt>
      <trkpt lat="47.63808" lon="-2.6902">
        <ele>4.6</ele>
        <time>2020-06-06T11:10:50Z</time>
      </trkpt>
      <trkpt lat="47.63812" lon="-2.69024">
        <ele>4.6</ele>
        <time>2020-06-06T11:10:51Z</time>
      </trkpt>
      <trkpt lat="47.63817" lon="-2.69028">
        <ele>4.6</ele>
        <time>2020-06-06T11:10:52Z</time>
      </trkpt>
      <trkpt lat="47.63821" lon="-2.69031">
        <ele>4.7</ele>
        <time>2020-06-06T11:10:53Z</time>
      </trkpt>
      <trkpt lat="47.63826" lon="-2.69035">
        <ele>4.7</ele>
        <time>2020-06-06T11:10:54Z</time>
      </trkpt>
      <trkpt lat="47.63831" lon="-2.6904">
        <ele>4.8</ele>
        <time>2020-06-06T11:10:55Z</time>
      </trkpt>
      <trkpt lat="47.63835" lon="-2.69043">
        <ele>4.8</ele>
        <time>2020-06-06T11:10:56Z</time>
      </trkpt>
      <trkpt lat="47.6384" lon="-2.69046">
        <ele>4.8</ele>
        <time>2020-06-06T11:10:57Z</time>
      </trkpt>
      <trkpt lat="47.63844" lon="-2.69049">
        <ele>4.8</ele>
        <time>2020-06-06T11:10:58Z</time>
      </trkpt>
      <trkpt lat="47.63849" lon="-2.69053">
        <ele>4.8</ele>
        <time>2020-06-06T11:10:59Z</time>
      </trkpt>
      <trkpt lat="47.63853" lon="-2.69057">
        <ele>4.8</ele>
        <time>2020-06-06T11:11:00Z</time>
      </trkpt>
      <trkpt lat="47.63857" lon="-2.69061">
        <ele>4.8</ele>
        <time>2020-06-06T11:11:01Z</time>
      </trkpt>
      <trkpt lat="47.63862" lon="-2.69067">
        <ele>4.9</ele>
        <time>2020-06-06T11:11:02Z</time>
      </trkpt>
      <trkpt lat="47.63865" lon="-2.69071">
        <ele>4.9</ele>
        <time>2020-06-06T11:11:03Z</time>
      </trkpt>
      <trkpt lat="47.6387" lon="-2.69075">
        <ele>4.9</ele>
        <time>2020-06-06T11:11:04Z</time>
      </trkpt>
      <trkpt lat="47.63874" lon="-2.6908">
        <ele>5</ele>
        <time>2020-06-06T11:11:05Z</time>
      </trkpt>
      <trkpt lat="47.63878" lon="-2.69083">
        <ele>5</ele>
        <time>2020-06-06T11:11:06Z</time>
      </trkpt>
      <trkpt lat="47.63881" lon="-2.69089">
        <ele>5</ele>
        <time>2020-06-06T11:11:07Z</time>
      </trkpt>
      <trkpt lat="47.63885" lon="-2.69094">
        <ele>5</ele>
        <time>2020-06-06T11:11:08Z</time>
      </trkpt>
      <trkpt lat="47.63889" lon="-2.69098">
        <ele>5</ele>
        <time>2020-06-06T11:11:09Z</time>
      </trkpt>
      <trkpt lat="47.63893" lon="-2.69104">
        <ele>5</ele>
        <time>2020-06-06T11:11:10Z</time>
      </trkpt>
      <trkpt lat="47.63897" lon="-2.69108">
        <ele>5.1</ele>
        <time>2020-06-06T11:11:11Z</time>
      </trkpt>
      <trkpt lat="47.639" lon="-2.69114">
        <ele>5.1</ele>
        <time>2020-06-06T11:11:12Z</time>
      </trkpt>
      <trkpt lat="47.63905" lon="-2.69118">
        <ele>5.1</ele>
        <time>2020-06-06T11:11:13Z</time>
      </trkpt>
      <trkpt lat="47.63909" lon="-2.69122">
        <ele>5.2</ele>
        <time>2020-06-06T11:11:14Z</time>
      </trkpt>
      <trkpt lat="47.63914" lon="-2.69127">
        <ele>5.2</ele>
        <time>2020-06-06T11:11:15Z</time>
      </trkpt>
      <trkpt lat="47.63917" lon="-2.69132">
        <ele>5.2</ele>
        <time>2020-06-06T11:11:16Z</time>
      </trkpt>
      <trkpt lat="47.63921" lon="-2.69136">
        <ele>5.2</ele>
        <time>2020-06-06T11:11:17Z</time>
      </trkpt>
      <trkpt lat="47.63924" lon="-2.69142">
        <ele>5.2</ele>
        <time>2020-06-06T11:11:18Z</time>
      </trkpt>
      <trkpt lat="47.63927" lon="-2.69147">
        <ele>5.2</ele>
        <time>2020-06-06T11:11:19Z</time>
      </trkpt>
      <trkpt lat="47.6393" lon="-2.69153">
        <ele>5.1</ele>
        <time>2020-06-06T11:11:20Z</time>
      </trkpt>
      <trkpt lat="47.63933" lon="-2.69159">
        <ele>5.1</ele>
        <time>2020-06-06T11:11:21Z</time>
      </trkpt>
      <trkpt lat="47.63936" lon="-2.69165">
        <ele>5.1</ele>
        <time>2020-06-06T11:11:22Z</time>
      </trkpt>
      <trkpt lat="47.63939" lon="-2.69172">
        <ele>5.1</ele>
        <time>2020-06-06T11:11:23Z</time>
      </trkpt>
      <trkpt lat="47.63941" lon="-2.6918">
        <ele>5.1</ele>
        <time>2020-06-06T11:11:24Z</time>
      </trkpt>
      <trkpt lat="47.63943" lon="-2.69187">
        <ele>5.1</ele>
        <time>2020-06-06T11:11:25Z</time>
      </trkpt>
      <trkpt lat="47.63945" lon="-2.69193">
        <ele>5.1</ele>
        <time>2020-06-06T11:11:26Z</time>
      </trkpt>
      <trkpt lat="47.63947" lon="-2.692">
        <ele>5.1</ele>
        <time>2020-06-06T11:11:27Z</time>
      </trkpt>
      <trkpt lat="47.63948" lon="-2.69208">
        <ele>5.1</ele>
        <time>2020-06-06T11:11:28Z</time>
      </trkpt>
      <trkpt lat="47.63949" lon="-2.69217">
        <ele>5</ele>
        <time>2020-06-06T11:11:29Z</time>
      </trkpt>
      <trkpt lat="47.63949" lon="-2.69226">
        <ele>5</ele>
        <time>2020-06-06T11:11:30Z</time>
      </trkpt>
      <trkpt lat="47.6395" lon="-2.69234">
        <ele>5</ele>
        <time>2020-06-06T11:11:31Z</time>
      </trkpt>
      <trkpt lat="47.63951" lon="-2.69243">
        <ele>5</ele>
        <time>2020-06-06T11:11:32Z</time>
      </trkpt>
      <trkpt lat="47.63952" lon="-2.69252">
        <ele>5</ele>
        <time>2020-06-06T11:11:33Z</time>
      </trkpt>
      <trkpt lat="47.63954" lon="-2.69259">
        <ele>5</ele>
        <time>2020-06-06T11:11:34Z</time>
      </trkpt>
      <trkpt lat="47.63954" lon="-2.69268">
        <ele>5.1</ele>
        <time>2020-06-06T11:11:35Z</time>
      </trkpt>
      <trkpt lat="47.63955" lon="-2.69275">
        <ele>5.1</ele>
        <time>2020-06-06T11:11:36Z</time>
      </trkpt>
      <trkpt lat="47.63956" lon="-2.69283">
        <ele>5.1</ele>
        <time>2020-06-06T11:11:37Z</time>
      </trkpt>
      <trkpt lat="47.63957" lon="-2.69291">
        <ele>5.2</ele>
        <time>2020-06-06T11:11:38Z</time>
      </trkpt>
      <trkpt lat="47.63958" lon="-2.69297">
        <ele>5.2</ele>
        <time>2020-06-06T11:11:39Z</time>
      </trkpt>
      <trkpt lat="47.63958" lon="-2.69302">
        <ele>5.3</ele>
        <time>2020-06-06T11:11:40Z</time>
      </trkpt>
      <trkpt lat="47.63958" lon="-2.69309">
        <ele>5.3</ele>
        <time>2020-06-06T11:11:41Z</time>
      </trkpt>
      <trkpt lat="47.63959" lon="-2.69316">
        <ele>5.3</ele>
        <time>2020-06-06T11:11:42Z</time>
      </trkpt>
      <trkpt lat="47.6396" lon="-2.69323">
        <ele>5.3</ele>
        <time>2020-06-06T11:11:43Z</time>
      </trkpt>
      <trkpt lat="47.6396" lon="-2.6933">
        <ele>5.4</ele>
        <time>2020-06-06T11:11:44Z</time>
      </trkpt>
      <trkpt lat="47.63959" lon="-2.69336">
        <ele>5.4</ele>
        <time>2020-06-06T11:11:45Z</time>
      </trkpt>
      <trkpt lat="47.63959" lon="-2.69342">
        <ele>5.4</ele>
        <time>2020-06-06T11:11:46Z</time>
      </trkpt>
      <trkpt lat="47.63958" lon="-2.69348">
        <ele>5.4</ele>
        <time>2020-06-06T11:11:47Z</time>
      </trkpt>
      <trkpt lat="47.63958" lon="-2.69354">
        <ele>5.4</ele>
        <time>2020-06-06T11:11:48Z</time>
      </trkpt>
      <trkpt lat="47.63957" lon="-2.6936">
        <ele>5.4</ele>
        <time>2020-06-06T11:11:49Z</time>
      </trkpt>
      <trkpt lat="47.63956" lon="-2.69367">
        <ele>5.5</ele>
        <time>2020-06-06T11:11:50Z</time>
      </trkpt>
      <trkpt lat="47.63955" lon="-2.69374">
        <ele>5.5</ele>
        <time>2020-06-06T11:11:51Z</time>
      </trkpt>
      <trkpt lat="47.63954" lon="-2.69381">
        <ele>5.5</ele>
        <time>2020-06-06T11:11:52Z</time>
      </trkpt>
      <trkpt lat="47.63953" lon="-2.69389">
        <ele>5.5</ele>
        <time>2020-06-06T11:11:53Z</time>
      </trkpt>
      <trkpt lat="47.63951" lon="-2.69398">
        <ele>5.5</ele>
        <time>2020-06-06T11:11:54Z</time>
      </trkpt>
      <trkpt lat="47.63949" lon="-2.69405">
        <ele>5.5</ele>
        <time>2020-06-06T11:11:55Z</time>
      </trkpt>
      <trkpt lat="47.63948" lon="-2.69413">
        <ele>5.6</ele>
        <time>2020-06-06T11:11:56Z</time>
      </trkpt>
      <trkpt lat="47.63947" lon="-2.69421">
        <ele>5.6</ele>
        <time>2020-06-06T11:11:57Z</time>
      </trkpt>
      <trkpt lat="47.63944" lon="-2.6943">
        <ele>5.6</ele>
        <time>2020-06-06T11:11:58Z</time>
      </trkpt>
      <trkpt lat="47.63943" lon="-2.69438">
        <ele>5.6</ele>
        <time>2020-06-06T11:11:59Z</time>
      </trkpt>
      <trkpt lat="47.63942" lon="-2.69446">
        <ele>5.6</ele>
        <time>2020-06-06T11:12:00Z</time>
      </trkpt>
      <trkpt lat="47.63941" lon="-2.69454">
        <ele>5.6</ele>
        <time>2020-06-06T11:12:01Z</time>
      </trkpt>
      <trkpt lat="47.6394" lon="-2.69462">
        <ele>5.6</ele>
        <time>2020-06-06T11:12:02Z</time>
      </trkpt>
      <trkpt lat="47.63938" lon="-2.6947">
        <ele>5.6</ele>
        <time>2020-06-06T11:12:03Z</time>
      </trkpt>
      <trkpt lat="47.63937" lon="-2.69479">
        <ele>5.6</ele>
        <time>2020-06-06T11:12:04Z</time>
      </trkpt>
      <trkpt lat="47.63937" lon="-2.69487">
        <ele>5.6</ele>
        <time>2020-06-06T11:12:05Z</time>
      </trkpt>
      <trkpt lat="47.63936" lon="-2.69496">
        <ele>5.6</ele>
        <time>2020-06-06T11:12:06Z</time>
      </trkpt>
      <trkpt lat="47.63935" lon="-2.69504">
        <ele>5.6</ele>
        <time>2020-06-06T11:12:07Z</time>
      </trkpt>
      <trkpt lat="47.63934" lon="-2.69512">
        <ele>5.6</ele>
        <time>2020-06-06T11:12:08Z</time>
      </trkpt>
      <trkpt lat="47.63933" lon="-2.69519">
        <ele>5.6</ele>
        <time>2020-06-06T11:12:09Z</time>
      </trkpt>
      <trkpt lat="47.63932" lon="-2.69526">
        <ele>5.5</ele>
        <time>2020-06-06T11:12:10Z</time>
      </trkpt>
      <trkpt lat="47.63931" lon="-2.69533">
        <ele>5.5</ele>
        <time>2020-06-06T11:12:11Z</time>
      </trkpt>
      <trkpt lat="47.63931" lon="-2.69541">
        <ele>5.5</ele>
        <time>2020-06-06T11:12:12Z</time>
      </trkpt>
      <trkpt lat="47.63931" lon="-2.6955">
        <ele>5.5</ele>
        <time>2020-06-06T11:12:13Z</time>
      </trkpt>
      <trkpt lat="47.6393" lon="-2.69556">
        <ele>5.5</ele>
        <time>2020-06-06T11:12:14Z</time>
      </trkpt>
      <trkpt lat="47.6393" lon="-2.69563">
        <ele>5.5</ele>
        <time>2020-06-06T11:12:15Z</time>
      </trkpt>
      <trkpt lat="47.63929" lon="-2.6957">
        <ele>5.5</ele>
        <time>2020-06-06T11:12:16Z</time>
      </trkpt>
      <trkpt lat="47.63928" lon="-2.69576">
        <ele>5.5</ele>
        <time>2020-06-06T11:12:17Z</time>
      </trkpt>
      <trkpt lat="47.63928" lon="-2.69584">
        <ele>5.5</ele>
        <time>2020-06-06T11:12:18Z</time>
      </trkpt>
      <trkpt lat="47.63928" lon="-2.69592">
        <ele>5.5</ele>
        <time>2020-06-06T11:12:19Z</time>
      </trkpt>
      <trkpt lat="47.63928" lon="-2.69599">
        <ele>5.5</ele>
        <time>2020-06-06T11:12:20Z</time>
      </trkpt>
      <trkpt lat="47.63928" lon="-2.69607">
        <ele>5.5</ele>
        <time>2020-06-06T11:12:21Z</time>
      </trkpt>
      <trkpt lat="47.63927" lon="-2.69615">
        <ele>5.5</ele>
        <time>2020-06-06T11:12:22Z</time>
      </trkpt>
      <trkpt lat="47.63927" lon="-2.69622">
        <ele>5.5</ele>
        <time>2020-06-06T11:12:23Z</time>
      </trkpt>
      <trkpt lat="47.63926" lon="-2.6963">
        <ele>5.5</ele>
        <time>2020-06-06T11:12:24Z</time>
      </trkpt>
      <trkpt lat="47.63926" lon="-2.69638">
        <ele>5.5</ele>
        <time>2020-06-06T11:12:25Z</time>
      </trkpt>
      <trkpt lat="47.63925" lon="-2.69646">
        <ele>5.4</ele>
        <time>2020-06-06T11:12:26Z</time>
      </trkpt>
      <trkpt lat="47.63923" lon="-2.69654">
        <ele>5.4</ele>
        <time>2020-06-06T11:12:27Z</time>
      </trkpt>
      <trkpt lat="47.63923" lon="-2.69662">
        <ele>5.4</ele>
        <time>2020-06-06T11:12:28Z</time>
      </trkpt>
      <trkpt lat="47.63922" lon="-2.6967">
        <ele>5.4</ele>
        <time>2020-06-06T11:12:29Z</time>
      </trkpt>
      <trkpt lat="47.6392" lon="-2.69677">
        <ele>5.4</ele>
        <time>2020-06-06T11:12:30Z</time>
      </trkpt>
      <trkpt lat="47.63919" lon="-2.69686">
        <ele>5.4</ele>
        <time>2020-06-06T11:12:31Z</time>
      </trkpt>
      <trkpt lat="47.63918" lon="-2.69694">
        <ele>5.5</ele>
        <time>2020-06-06T11:12:32Z</time>
      </trkpt>
      <trkpt lat="47.63915" lon="-2.69702">
        <ele>5.5</ele>
        <time>2020-06-06T11:12:33Z</time>
      </trkpt>
      <trkpt lat="47.63915" lon="-2.69711">
        <ele>5.5</ele>
        <time>2020-06-06T11:12:34Z</time>
      </trkpt>
      <trkpt lat="47.63914" lon="-2.69719">
        <ele>5.6</ele>
        <time>2020-06-06T11:12:35Z</time>
      </trkpt>
      <trkpt lat="47.63914" lon="-2.69726">
        <ele>5.6</ele>
        <time>2020-06-06T11:12:36Z</time>
      </trkpt>
      <trkpt lat="47.63914" lon="-2.69733">
        <ele>5.6</ele>
        <time>2020-06-06T11:12:37Z</time>
      </trkpt>
      <trkpt lat="47.63914" lon="-2.69741">
        <ele>5.6</ele>
        <time>2020-06-06T11:12:38Z</time>
      </trkpt>
      <trkpt lat="47.63914" lon="-2.69749">
        <ele>5.6</ele>
        <time>2020-06-06T11:12:39Z</time>
      </trkpt>
      <trkpt lat="47.63914" lon="-2.69756">
        <ele>5.6</ele>
        <time>2020-06-06T11:12:40Z</time>
      </trkpt>
      <trkpt lat="47.63915" lon="-2.69763">
        <ele>5.6</ele>
        <time>2020-06-06T11:12:41Z</time>
      </trkpt>
      <trkpt lat="47.63916" lon="-2.6977">
        <ele>5.7</ele>
        <time>2020-06-06T11:12:42Z</time>
      </trkpt>
      <trkpt lat="47.63916" lon="-2.69778">
        <ele>5.7</ele>
        <time>2020-06-06T11:12:43Z</time>
      </trkpt>
      <trkpt lat="47.63916" lon="-2.69786">
        <ele>5.7</ele>
        <time>2020-06-06T11:12:44Z</time>
      </trkpt>
      <trkpt lat="47.63916" lon="-2.69794">
        <ele>5.7</ele>
        <time>2020-06-06T11:12:45Z</time>
      </trkpt>
      <trkpt lat="47.63917" lon="-2.69802">
        <ele>5.7</ele>
        <time>2020-06-06T11:12:46Z</time>
      </trkpt>
      <trkpt lat="47.63917" lon="-2.69808">
        <ele>5.7</ele>
        <time>2020-06-06T11:12:47Z</time>
      </trkpt>
      <trkpt lat="47.63918" lon="-2.69815">
        <ele>5.8</ele>
        <time>2020-06-06T11:12:48Z</time>
      </trkpt>
      <trkpt lat="47.63918" lon="-2.69822">
        <ele>5.9</ele>
        <time>2020-06-06T11:12:49Z</time>
      </trkpt>
      <trkpt lat="47.6392" lon="-2.6983">
        <ele>5.9</ele>
        <time>2020-06-06T11:12:50Z</time>
      </trkpt>
      <trkpt lat="47.63921" lon="-2.69837">
        <ele>6</ele>
        <time>2020-06-06T11:12:51Z</time>
      </trkpt>
      <trkpt lat="47.63922" lon="-2.69845">
        <ele>6.1</ele>
        <time>2020-06-06T11:12:52Z</time>
      </trkpt>
      <trkpt lat="47.63924" lon="-2.69852">
        <ele>6.1</ele>
        <time>2020-06-06T11:12:53Z</time>
      </trkpt>
      <trkpt lat="47.63925" lon="-2.69859">
        <ele>6.2</ele>
        <time>2020-06-06T11:12:54Z</time>
      </trkpt>
      <trkpt lat="47.63926" lon="-2.69866">
        <ele>6.2</ele>
        <time>2020-06-06T11:12:55Z</time>
      </trkpt>
      <trkpt lat="47.63927" lon="-2.69873">
        <ele>6.3</ele>
        <time>2020-06-06T11:12:56Z</time>
      </trkpt>
      <trkpt lat="47.63929" lon="-2.69879">
        <ele>6.3</ele>
        <time>2020-06-06T11:12:57Z</time>
      </trkpt>
      <trkpt lat="47.63931" lon="-2.69885">
        <ele>6.4</ele>
        <time>2020-06-06T11:12:58Z</time>
      </trkpt>
      <trkpt lat="47.63932" lon="-2.69892">
        <ele>6.4</ele>
        <time>2020-06-06T11:12:59Z</time>
      </trkpt>
      <trkpt lat="47.63934" lon="-2.69898">
        <ele>6.5</ele>
        <time>2020-06-06T11:13:00Z</time>
      </trkpt>
      <trkpt lat="47.63936" lon="-2.69905">
        <ele>6.6</ele>
        <time>2020-06-06T11:13:01Z</time>
      </trkpt>
      <trkpt lat="47.63938" lon="-2.69911">
        <ele>6.6</ele>
        <time>2020-06-06T11:13:02Z</time>
      </trkpt>
      <trkpt lat="47.63941" lon="-2.69917">
        <ele>6.7</ele>
        <time>2020-06-06T11:13:03Z</time>
      </trkpt>
      <trkpt lat="47.63942" lon="-2.69924">
        <ele>6.8</ele>
        <time>2020-06-06T11:13:04Z</time>
      </trkpt>
      <trkpt lat="47.63945" lon="-2.6993">
        <ele>6.9</ele>
        <time>2020-06-06T11:13:05Z</time>
      </trkpt>
      <trkpt lat="47.63947" lon="-2.69936">
        <ele>7</ele>
        <time>2020-06-06T11:13:06Z</time>
      </trkpt>
      <trkpt lat="47.6395" lon="-2.69943">
        <ele>7.1</ele>
        <time>2020-06-06T11:13:07Z</time>
      </trkpt>
      <trkpt lat="47.63952" lon="-2.69949">
        <ele>7.2</ele>
        <time>2020-06-06T11:13:08Z</time>
      </trkpt>
      <trkpt lat="47.63954" lon="-2.69955">
        <ele>7.3</ele>
        <time>2020-06-06T11:13:09Z</time>
      </trkpt>
      <trkpt lat="47.63956" lon="-2.69961">
        <ele>7.4</ele>
        <time>2020-06-06T11:13:10Z</time>
      </trkpt>
      <trkpt lat="47.63959" lon="-2.69967">
        <ele>7.5</ele>
        <time>2020-06-06T11:13:11Z</time>
      </trkpt>
      <trkpt lat="47.6396" lon="-2.69972">
        <ele>7.5</ele>
        <time>2020-06-06T11:13:12Z</time>
      </trkpt>
      <trkpt lat="47.63963" lon="-2.69978">
        <ele>7.6</ele>
        <time>2020-06-06T11:13:13Z</time>
      </trkpt>
      <trkpt lat="47.63966" lon="-2.69983">
        <ele>7.6</ele>
        <time>2020-06-06T11:13:14Z</time>
      </trkpt>
      <trkpt lat="47.6397" lon="-2.69989">
        <ele>7.6</ele>
        <time>2020-06-06T11:13:15Z</time>
      </trkpt>
      <trkpt lat="47.63973" lon="-2.69994">
        <ele>7.6</ele>
        <time>2020-06-06T11:13:16Z</time>
      </trkpt>
      <trkpt lat="47.63975" lon="-2.69999">
        <ele>7.7</ele>
        <time>2020-06-06T11:13:17Z</time>
      </trkpt>
      <trkpt lat="47.63978" lon="-2.70004">
        <ele>7.7</ele>
        <time>2020-06-06T11:13:18Z</time>
      </trkpt>
      <trkpt lat="47.63981" lon="-2.7001">
        <ele>7.6</ele>
        <time>2020-06-06T11:13:19Z</time>
      </trkpt>
      <trkpt lat="47.63984" lon="-2.70015">
        <ele>7.6</ele>
        <time>2020-06-06T11:13:20Z</time>
      </trkpt>
      <trkpt lat="47.63987" lon="-2.70021">
        <ele>7.6</ele>
        <time>2020-06-06T11:13:21Z</time>
      </trkpt>
      <trkpt lat="47.63991" lon="-2.70025">
        <ele>7.5</ele>
        <time>2020-06-06T11:13:22Z</time>
      </trkpt>
      <trkpt lat="47.63995" lon="-2.7003">
        <ele>7.5</ele>
        <time>2020-06-06T11:13:23Z</time>
      </trkpt>
      <trkpt lat="47.64" lon="-2.70036">
        <ele>7.5</ele>
        <time>2020-06-06T11:13:24Z</time>
      </trkpt>
      <trkpt lat="47.64004" lon="-2.70042">
        <ele>7.4</ele>
        <time>2020-06-06T11:13:25Z</time>
      </trkpt>
      <trkpt lat="47.64009" lon="-2.70049">
        <ele>7.2</ele>
        <time>2020-06-06T11:13:26Z</time>
      </trkpt>
      <trkpt lat="47.64014" lon="-2.70055">
        <ele>7.1</ele>
        <time>2020-06-06T11:13:27Z</time>
      </trkpt>
      <trkpt lat="47.64019" lon="-2.70062">
        <ele>6.9</ele>
        <time>2020-06-06T11:13:28Z</time>
      </trkpt>
      <trkpt lat="47.64024" lon="-2.7007">
        <ele>6.8</ele>
        <time>2020-06-06T11:13:29Z</time>
      </trkpt>
      <trkpt lat="47.64028" lon="-2.70077">
        <ele>6.7</ele>
        <time>2020-06-06T11:13:30Z</time>
      </trkpt>
      <trkpt lat="47.64033" lon="-2.70085">
        <ele>6.5</ele>
        <time>2020-06-06T11:13:31Z</time>
      </trkpt>
      <trkpt lat="47.64038" lon="-2.70093">
        <ele>6.4</ele>
        <time>2020-06-06T11:13:32Z</time>
      </trkpt>
      <trkpt lat="47.64043" lon="-2.701">
        <ele>6.3</ele>
        <time>2020-06-06T11:13:33Z</time>
      </trkpt>
      <trkpt lat="47.64048" lon="-2.70107">
        <ele>6.1</ele>
        <time>2020-06-06T11:13:34Z</time>
      </trkpt>
      <trkpt lat="47.64053" lon="-2.70115">
        <ele>6</ele>
        <time>2020-06-06T11:13:35Z</time>
      </trkpt>
      <trkpt lat="47.64058" lon="-2.70122">
        <ele>5.8</ele>
        <time>2020-06-06T11:13:36Z</time>
      </trkpt>
      <trkpt lat="47.64063" lon="-2.70128">
        <ele>5.7</ele>
        <time>2020-06-06T11:13:37Z</time>
      </trkpt>
      <trkpt lat="47.64067" lon="-2.70135">
        <ele>5.6</ele>
        <time>2020-06-06T11:13:38Z</time>
      </trkpt>
      <trkpt lat="47.64072" lon="-2.70141">
        <ele>5.6</ele>
        <time>2020-06-06T11:13:39Z</time>
      </trkpt>
      <trkpt lat="47.64076" lon="-2.70148">
        <ele>5.5</ele>
        <time>2020-06-06T11:13:40Z</time>
      </trkpt>
      <trkpt lat="47.6408" lon="-2.70155">
        <ele>5.5</ele>
        <time>2020-06-06T11:13:41Z</time>
      </trkpt>
      <trkpt lat="47.64085" lon="-2.70162">
        <ele>5.5</ele>
        <time>2020-06-06T11:13:42Z</time>
      </trkpt>
      <trkpt lat="47.6409" lon="-2.70169">
        <ele>5.4</ele>
        <time>2020-06-06T11:13:43Z</time>
      </trkpt>
      <trkpt lat="47.64095" lon="-2.70177">
        <ele>5.4</ele>
        <time>2020-06-06T11:13:44Z</time>
      </trkpt>
      <trkpt lat="47.64099" lon="-2.70183">
        <ele>5.4</ele>
        <time>2020-06-06T11:13:45Z</time>
      </trkpt>
      <trkpt lat="47.64104" lon="-2.7019">
        <ele>5.4</ele>
        <time>2020-06-06T11:13:46Z</time>
      </trkpt>
      <trkpt lat="47.64109" lon="-2.70196">
        <ele>5.4</ele>
        <time>2020-06-06T11:13:47Z</time>
      </trkpt>
      <trkpt lat="47.64113" lon="-2.70202">
        <ele>5.4</ele>
        <time>2020-06-06T11:13:48Z</time>
      </trkpt>
      <trkpt lat="47.64117" lon="-2.70208">
        <ele>5.4</ele>
        <time>2020-06-06T11:13:49Z</time>
      </trkpt>
      <trkpt lat="47.64121" lon="-2.70214">
        <ele>5.4</ele>
        <time>2020-06-06T11:13:50Z</time>
      </trkpt>
      <trkpt lat="47.64126" lon="-2.7022">
        <ele>5.4</ele>
        <time>2020-06-06T11:13:51Z</time>
      </trkpt>
      <trkpt lat="47.6413" lon="-2.70226">
        <ele>5.4</ele>
        <time>2020-06-06T11:13:52Z</time>
      </trkpt>
      <trkpt lat="47.64134" lon="-2.70233">
        <ele>5.5</ele>
        <time>2020-06-06T11:13:53Z</time>
      </trkpt>
      <trkpt lat="47.64139" lon="-2.70239">
        <ele>5.5</ele>
        <time>2020-06-06T11:13:54Z</time>
      </trkpt>
      <trkpt lat="47.64144" lon="-2.70245">
        <ele>5.6</ele>
        <time>2020-06-06T11:13:55Z</time>
      </trkpt>
      <trkpt lat="47.64147" lon="-2.7025">
        <ele>5.6</ele>
        <time>2020-06-06T11:13:56Z</time>
      </trkpt>
      <trkpt lat="47.64152" lon="-2.70256">
        <ele>5.7</ele>
        <time>2020-06-06T11:13:57Z</time>
      </trkpt>
      <trkpt lat="47.64156" lon="-2.7026">
        <ele>5.8</ele>
        <time>2020-06-06T11:13:58Z</time>
      </trkpt>
      <trkpt lat="47.64159" lon="-2.70265">
        <ele>5.9</ele>
        <time>2020-06-06T11:13:59Z</time>
      </trkpt>
      <trkpt lat="47.64162" lon="-2.70271">
        <ele>6.1</ele>
        <time>2020-06-06T11:14:00Z</time>
      </trkpt>
      <trkpt lat="47.64166" lon="-2.70276">
        <ele>6.2</ele>
        <time>2020-06-06T11:14:01Z</time>
      </trkpt>
      <trkpt lat="47.6417" lon="-2.70282">
        <ele>6.4</ele>
        <time>2020-06-06T11:14:02Z</time>
      </trkpt>
      <trkpt lat="47.64174" lon="-2.70288">
        <ele>6.5</ele>
        <time>2020-06-06T11:14:03Z</time>
      </trkpt>
      <trkpt lat="47.64178" lon="-2.70293">
        <ele>6.6</ele>
        <time>2020-06-06T11:14:04Z</time>
      </trkpt>
      <trkpt lat="47.64181" lon="-2.70299">
        <ele>6.8</ele>
        <time>2020-06-06T11:14:05Z</time>
      </trkpt>
      <trkpt lat="47.64185" lon="-2.70304">
        <ele>6.8</ele>
        <time>2020-06-06T11:14:06Z</time>
      </trkpt>
      <trkpt lat="47.64187" lon="-2.70309">
        <ele>6.9</ele>
        <time>2020-06-06T11:14:07Z</time>
      </trkpt>
      <trkpt lat="47.64191" lon="-2.70314">
        <ele>7</ele>
        <time>2020-06-06T11:14:08Z</time>
      </trkpt>
      <trkpt lat="47.64194" lon="-2.70319">
        <ele>7</ele>
        <time>2020-06-06T11:14:09Z</time>
      </trkpt>
      <trkpt lat="47.64197" lon="-2.70323">
        <ele>7</ele>
        <time>2020-06-06T11:14:10Z</time>
      </trkpt>
      <trkpt lat="47.642" lon="-2.70328">
        <ele>7.1</ele>
        <time>2020-06-06T11:14:11Z</time>
      </trkpt>
      <trkpt lat="47.64204" lon="-2.70333">
        <ele>7.1</ele>
        <time>2020-06-06T11:14:12Z</time>
      </trkpt>
      <trkpt lat="47.64209" lon="-2.7034">
        <ele>7.1</ele>
        <time>2020-06-06T11:14:13Z</time>
      </trkpt>
      <trkpt lat="47.64212" lon="-2.70344">
        <ele>7.1</ele>
        <time>2020-06-06T11:14:14Z</time>
      </trkpt>
      <trkpt lat="47.64217" lon="-2.70351">
        <ele>7.2</ele>
        <time>2020-06-06T11:14:15Z</time>
      </trkpt>
      <trkpt lat="47.64222" lon="-2.70357">
        <ele>7.2</ele>
        <time>2020-06-06T11:14:16Z</time>
      </trkpt>
      <trkpt lat="47.64226" lon="-2.70363">
        <ele>7.2</ele>
        <time>2020-06-06T11:14:17Z</time>
      </trkpt>
      <trkpt lat="47.64229" lon="-2.70368">
        <ele>7.2</ele>
        <time>2020-06-06T11:14:18Z</time>
      </trkpt>
      <trkpt lat="47.64233" lon="-2.70374">
        <ele>7.1</ele>
        <time>2020-06-06T11:14:19Z</time>
      </trkpt>
      <trkpt lat="47.64237" lon="-2.70379">
        <ele>7.1</ele>
        <time>2020-06-06T11:14:20Z</time>
      </trkpt>
      <trkpt lat="47.64242" lon="-2.70385">
        <ele>7</ele>
        <time>2020-06-06T11:14:21Z</time>
      </trkpt>
      <trkpt lat="47.64245" lon="-2.70391">
        <ele>7</ele>
        <time>2020-06-06T11:14:22Z</time>
      </trkpt>
      <trkpt lat="47.64249" lon="-2.70396">
        <ele>6.9</ele>
        <time>2020-06-06T11:14:23Z</time>
      </trkpt>
      <trkpt lat="47.64253" lon="-2.70403">
        <ele>6.8</ele>
        <time>2020-06-06T11:14:24Z</time>
      </trkpt>
      <trkpt lat="47.64257" lon="-2.70408">
        <ele>6.7</ele>
        <time>2020-06-06T11:14:25Z</time>
      </trkpt>
      <trkpt lat="47.64261" lon="-2.70414">
        <ele>6.5</ele>
        <time>2020-06-06T11:14:26Z</time>
      </trkpt>
      <trkpt lat="47.64264" lon="-2.7042">
        <ele>6.3</ele>
        <time>2020-06-06T11:14:27Z</time>
      </trkpt>
      <trkpt lat="47.64269" lon="-2.70426">
        <ele>6.1</ele>
        <time>2020-06-06T11:14:28Z</time>
      </trkpt>
      <trkpt lat="47.64273" lon="-2.70433">
        <ele>5.9</ele>
        <time>2020-06-06T11:14:29Z</time>
      </trkpt>
      <trkpt lat="47.64278" lon="-2.70439">
        <ele>5.7</ele>
        <time>2020-06-06T11:14:30Z</time>
      </trkpt>
      <trkpt lat="47.64283" lon="-2.70447">
        <ele>5.5</ele>
        <time>2020-06-06T11:14:31Z</time>
      </trkpt>
      <trkpt lat="47.64287" lon="-2.70453">
        <ele>5.4</ele>
        <time>2020-06-06T11:14:32Z</time>
      </trkpt>
      <trkpt lat="47.64291" lon="-2.70459">
        <ele>5.3</ele>
        <time>2020-06-06T11:14:33Z</time>
      </trkpt>
      <trkpt lat="47.64296" lon="-2.70465">
        <ele>5.1</ele>
        <time>2020-06-06T11:14:34Z</time>
      </trkpt>
      <trkpt lat="47.64301" lon="-2.70471">
        <ele>4.9</ele>
        <time>2020-06-06T11:14:35Z</time>
      </trkpt>
      <trkpt lat="47.64305" lon="-2.70477">
        <ele>4.9</ele>
        <time>2020-06-06T11:14:36Z</time>
      </trkpt>
      <trkpt lat="47.64308" lon="-2.70482">
        <ele>4.9</ele>
        <time>2020-06-06T11:14:37Z</time>
      </trkpt>
      <trkpt lat="47.64312" lon="-2.70488">
        <ele>4.9</ele>
        <time>2020-06-06T11:14:38Z</time>
      </trkpt>
      <trkpt lat="47.64315" lon="-2.70495">
        <ele>4.9</ele>
        <time>2020-06-06T11:14:39Z</time>
      </trkpt>
      <trkpt lat="47.64318" lon="-2.70501">
        <ele>4.8</ele>
        <time>2020-06-06T11:14:40Z</time>
      </trkpt>
      <trkpt lat="47.64321" lon="-2.70505">
        <ele>4.8</ele>
        <time>2020-06-06T11:14:41Z</time>
      </trkpt>
      <trkpt lat="47.64324" lon="-2.70509">
        <ele>4.8</ele>
        <time>2020-06-06T11:14:42Z</time>
      </trkpt>
      <trkpt lat="47.64327" lon="-2.70513">
        <ele>4.8</ele>
        <time>2020-06-06T11:14:43Z</time>
      </trkpt>
      <trkpt lat="47.64331" lon="-2.70517">
        <ele>4.8</ele>
        <time>2020-06-06T11:14:44Z</time>
      </trkpt>
      <trkpt lat="47.64333" lon="-2.70522">
        <ele>4.8</ele>
        <time>2020-06-06T11:14:45Z</time>
      </trkpt>
      <trkpt lat="47.64336" lon="-2.70527">
        <ele>4.7</ele>
        <time>2020-06-06T11:14:46Z</time>
      </trkpt>
      <trkpt lat="47.64339" lon="-2.70532">
        <ele>4.7</ele>
        <time>2020-06-06T11:14:47Z</time>
      </trkpt>
      <trkpt lat="47.64341" lon="-2.70536">
        <ele>4.7</ele>
        <time>2020-06-06T11:14:48Z</time>
      </trkpt>
      <trkpt lat="47.64344" lon="-2.70539">
        <ele>4.7</ele>
        <time>2020-06-06T11:14:49Z</time>
      </trkpt>
      <trkpt lat="47.64347" lon="-2.70543">
        <ele>4.7</ele>
        <time>2020-06-06T11:14:50Z</time>
      </trkpt>
      <trkpt lat="47.6435" lon="-2.70546">
        <ele>4.7</ele>
        <time>2020-06-06T11:14:51Z</time>
      </trkpt>
      <trkpt lat="47.64352" lon="-2.70549">
        <ele>4.7</ele>
        <time>2020-06-06T11:14:52Z</time>
      </trkpt>
      <trkpt lat="47.64355" lon="-2.70554">
        <ele>4.7</ele>
        <time>2020-06-06T11:14:53Z</time>
      </trkpt>
      <trkpt lat="47.64359" lon="-2.70558">
        <ele>4.7</ele>
        <time>2020-06-06T11:14:54Z</time>
      </trkpt>
      <trkpt lat="47.64362" lon="-2.70562">
        <ele>4.7</ele>
        <time>2020-06-06T11:14:55Z</time>
      </trkpt>
      <trkpt lat="47.64366" lon="-2.70567">
        <ele>4.7</ele>
        <time>2020-06-06T11:14:56Z</time>
      </trkpt>
      <trkpt lat="47.64369" lon="-2.70571">
        <ele>4.7</ele>
        <time>2020-06-06T11:14:57Z</time>
      </trkpt>
      <trkpt lat="47.64371" lon="-2.70575">
        <ele>4.7</ele>
        <time>2020-06-06T11:14:58Z</time>
      </trkpt>
      <trkpt lat="47.64374" lon="-2.70581">
        <ele>4.7</ele>
        <time>2020-06-06T11:14:59Z</time>
      </trkpt>
      <trkpt lat="47.64377" lon="-2.70584">
        <ele>4.7</ele>
        <time>2020-06-06T11:15:00Z</time>
      </trkpt>
      <trkpt lat="47.64381" lon="-2.70591">
        <ele>4.6</ele>
        <time>2020-06-06T11:15:01Z</time>
      </trkpt>
      <trkpt lat="47.64384" lon="-2.70596">
        <ele>4.6</ele>
        <time>2020-06-06T11:15:02Z</time>
      </trkpt>
      <trkpt lat="47.64388" lon="-2.70601">
        <ele>4.6</ele>
        <time>2020-06-06T11:15:03Z</time>
      </trkpt>
      <trkpt lat="47.64392" lon="-2.70605">
        <ele>4.6</ele>
        <time>2020-06-06T11:15:04Z</time>
      </trkpt>
      <trkpt lat="47.64394" lon="-2.70609">
        <ele>4.6</ele>
        <time>2020-06-06T11:15:05Z</time>
      </trkpt>
      <trkpt lat="47.64397" lon="-2.70613">
        <ele>4.6</ele>
        <time>2020-06-06T11:15:06Z</time>
      </trkpt>
      <trkpt lat="47.64399" lon="-2.70617">
        <ele>4.6</ele>
        <time>2020-06-06T11:15:07Z</time>
      </trkpt>
      <trkpt lat="47.64403" lon="-2.70623">
        <ele>4.6</ele>
        <time>2020-06-06T11:15:08Z</time>
      </trkpt>
      <trkpt lat="47.64406" lon="-2.70628">
        <ele>4.7</ele>
        <time>2020-06-06T11:15:09Z</time>
      </trkpt>
      <trkpt lat="47.64409" lon="-2.70634">
        <ele>4.7</ele>
        <time>2020-06-06T11:15:10Z</time>
      </trkpt>
      <trkpt lat="47.64412" lon="-2.70638">
        <ele>4.7</ele>
        <time>2020-06-06T11:15:11Z</time>
      </trkpt>
      <trkpt lat="47.64416" lon="-2.70644">
        <ele>4.7</ele>
        <time>2020-06-06T11:15:12Z</time>
      </trkpt>
      <trkpt lat="47.64419" lon="-2.70649">
        <ele>4.8</ele>
        <time>2020-06-06T11:15:13Z</time>
      </trkpt>
      <trkpt lat="47.64422" lon="-2.70653">
        <ele>4.8</ele>
        <time>2020-06-06T11:15:14Z</time>
      </trkpt>
      <trkpt lat="47.64425" lon="-2.70658">
        <ele>4.8</ele>
        <time>2020-06-06T11:15:15Z</time>
      </trkpt>
      <trkpt lat="47.64427" lon="-2.70663">
        <ele>4.8</ele>
        <time>2020-06-06T11:15:16Z</time>
      </trkpt>
      <trkpt lat="47.64432" lon="-2.70669">
        <ele>4.8</ele>
        <time>2020-06-06T11:15:17Z</time>
      </trkpt>
      <trkpt lat="47.64435" lon="-2.70674">
        <ele>4.8</ele>
        <time>2020-06-06T11:15:18Z</time>
      </trkpt>
      <trkpt lat="47.64439" lon="-2.70679">
        <ele>4.8</ele>
        <time>2020-06-06T11:15:19Z</time>
      </trkpt>
      <trkpt lat="47.64443" lon="-2.70683">
        <ele>4.8</ele>
        <time>2020-06-06T11:15:20Z</time>
      </trkpt>
      <trkpt lat="47.64447" lon="-2.70687">
        <ele>4.8</ele>
        <time>2020-06-06T11:15:21Z</time>
      </trkpt>
      <trkpt lat="47.6445" lon="-2.70691">
        <ele>4.8</ele>
        <time>2020-06-06T11:15:22Z</time>
      </trkpt>
      <trkpt lat="47.64453" lon="-2.70694">
        <ele>4.9</ele>
        <time>2020-06-06T11:15:23Z</time>
      </trkpt>
      <trkpt lat="47.64456" lon="-2.70698">
        <ele>4.9</ele>
        <time>2020-06-06T11:15:24Z</time>
      </trkpt>
      <trkpt lat="47.64459" lon="-2.70702">
        <ele>4.9</ele>
        <time>2020-06-06T11:15:25Z</time>
      </trkpt>
      <trkpt lat="47.64462" lon="-2.70707">
        <ele>4.9</ele>
        <time>2020-06-06T11:15:26Z</time>
      </trkpt>
      <trkpt lat="47.64464" lon="-2.70711">
        <ele>4.9</ele>
        <time>2020-06-06T11:15:27Z</time>
      </trkpt>
      <trkpt lat="47.64469" lon="-2.70717">
        <ele>4.9</ele>
        <time>2020-06-06T11:15:28Z</time>
      </trkpt>
      <trkpt lat="47.64471" lon="-2.7072">
        <ele>4.9</ele>
        <time>2020-06-06T11:15:29Z</time>
      </trkpt>
      <trkpt lat="47.64474" lon="-2.70725">
        <ele>4.9</ele>
        <time>2020-06-06T11:15:30Z</time>
      </trkpt>
      <trkpt lat="47.64476" lon="-2.70729">
        <ele>4.9</ele>
        <time>2020-06-06T11:15:31Z</time>
      </trkpt>
      <trkpt lat="47.6448" lon="-2.70734">
        <ele>4.9</ele>
        <time>2020-06-06T11:15:32Z</time>
      </trkpt>
      <trkpt lat="47.64483" lon="-2.70739">
        <ele>4.9</ele>
        <time>2020-06-06T11:15:33Z</time>
      </trkpt>
      <trkpt lat="47.64486" lon="-2.70743">
        <ele>4.9</ele>
        <time>2020-06-06T11:15:34Z</time>
      </trkpt>
      <trkpt lat="47.6449" lon="-2.70748">
        <ele>4.8</ele>
        <time>2020-06-06T11:15:35Z</time>
      </trkpt>
      <trkpt lat="47.64493" lon="-2.70753">
        <ele>4.8</ele>
        <time>2020-06-06T11:15:36Z</time>
      </trkpt>
      <trkpt lat="47.64497" lon="-2.70758">
        <ele>4.8</ele>
        <time>2020-06-06T11:15:37Z</time>
      </trkpt>
      <trkpt lat="47.645" lon="-2.70762">
        <ele>4.8</ele>
        <time>2020-06-06T11:15:38Z</time>
      </trkpt>
      <trkpt lat="47.64503" lon="-2.70767">
        <ele>4.8</ele>
        <time>2020-06-06T11:15:39Z</time>
      </trkpt>
      <trkpt lat="47.64507" lon="-2.70771">
        <ele>4.8</ele>
        <time>2020-06-06T11:15:40Z</time>
      </trkpt>
      <trkpt lat="47.64511" lon="-2.70776">
        <ele>4.8</ele>
        <time>2020-06-06T11:15:41Z</time>
      </trkpt>
      <trkpt lat="47.64515" lon="-2.70781">
        <ele>4.8</ele>
        <time>2020-06-06T11:15:42Z</time>
      </trkpt>
      <trkpt lat="47.64519" lon="-2.70787">
        <ele>4.8</ele>
        <time>2020-06-06T11:15:43Z</time>
      </trkpt>
      <trkpt lat="47.64523" lon="-2.70793">
        <ele>4.8</ele>
        <time>2020-06-06T11:15:44Z</time>
      </trkpt>
      <trkpt lat="47.64528" lon="-2.70798">
        <ele>4.8</ele>
        <time>2020-06-06T11:15:45Z</time>
      </trkpt>
      <trkpt lat="47.64532" lon="-2.70803">
        <ele>4.8</ele>
        <time>2020-06-06T11:15:46Z</time>
      </trkpt>
      <trkpt lat="47.64535" lon="-2.70808">
        <ele>4.8</ele>
        <time>2020-06-06T11:15:47Z</time>
      </trkpt>
      <trkpt lat="47.64538" lon="-2.70813">
        <ele>4.8</ele>
        <time>2020-06-06T11:15:48Z</time>
      </trkpt>
      <trkpt lat="47.64541" lon="-2.70817">
        <ele>4.7</ele>
        <time>2020-06-06T11:15:49Z</time>
      </trkpt>
      <trkpt lat="47.64544" lon="-2.70821">
        <ele>4.7</ele>
        <time>2020-06-06T11:15:50Z</time>
      </trkpt>
      <trkpt lat="47.64548" lon="-2.70826">
        <ele>4.7</ele>
        <time>2020-06-06T11:15:51Z</time>
      </trkpt>
      <trkpt lat="47.64551" lon="-2.7083">
        <ele>4.8</ele>
        <time>2020-06-06T11:15:52Z</time>
      </trkpt>
      <trkpt lat="47.64554" lon="-2.70835">
        <ele>4.8</ele>
        <time>2020-06-06T11:15:53Z</time>
      </trkpt>
      <trkpt lat="47.64557" lon="-2.7084">
        <ele>4.8</ele>
        <time>2020-06-06T11:15:54Z</time>
      </trkpt>
      <trkpt lat="47.6456" lon="-2.70845">
        <ele>4.9</ele>
        <time>2020-06-06T11:15:55Z</time>
      </trkpt>
      <trkpt lat="47.64562" lon="-2.7085">
        <ele>4.9</ele>
        <time>2020-06-06T11:15:56Z</time>
      </trkpt>
      <trkpt lat="47.64565" lon="-2.70855">
        <ele>4.9</ele>
        <time>2020-06-06T11:15:57Z</time>
      </trkpt>
      <trkpt lat="47.64569" lon="-2.70861">
        <ele>5</ele>
        <time>2020-06-06T11:15:58Z</time>
      </trkpt>
      <trkpt lat="47.64572" lon="-2.70865">
        <ele>5</ele>
        <time>2020-06-06T11:15:59Z</time>
      </trkpt>
      <trkpt lat="47.64575" lon="-2.7087">
        <ele>5</ele>
        <time>2020-06-06T11:16:00Z</time>
      </trkpt>
      <trkpt lat="47.64578" lon="-2.70875">
        <ele>5</ele>
        <time>2020-06-06T11:16:01Z</time>
      </trkpt>
      <trkpt lat="47.64581" lon="-2.70879">
        <ele>5</ele>
        <time>2020-06-06T11:16:02Z</time>
      </trkpt>
      <trkpt lat="47.64584" lon="-2.70884">
        <ele>5</ele>
        <time>2020-06-06T11:16:03Z</time>
      </trkpt>
      <trkpt lat="47.64587" lon="-2.7089">
        <ele>5</ele>
        <time>2020-06-06T11:16:04Z</time>
      </trkpt>
      <trkpt lat="47.64591" lon="-2.70893">
        <ele>5</ele>
        <time>2020-06-06T11:16:05Z</time>
      </trkpt>
      <trkpt lat="47.64594" lon="-2.70898">
        <ele>5</ele>
        <time>2020-06-06T11:16:06Z</time>
      </trkpt>
      <trkpt lat="47.64598" lon="-2.70904">
        <ele>5</ele>
        <time>2020-06-06T11:16:07Z</time>
      </trkpt>
      <trkpt lat="47.64602" lon="-2.70909">
        <ele>5</ele>
        <time>2020-06-06T11:16:08Z</time>
      </trkpt>
      <trkpt lat="47.64606" lon="-2.70914">
        <ele>5</ele>
        <time>2020-06-06T11:16:09Z</time>
      </trkpt>
      <trkpt lat="47.6461" lon="-2.7092">
        <ele>5</ele>
        <time>2020-06-06T11:16:10Z</time>
      </trkpt>
      <trkpt lat="47.64613" lon="-2.70924">
        <ele>5</ele>
        <time>2020-06-06T11:16:11Z</time>
      </trkpt>
      <trkpt lat="47.64617" lon="-2.70929">
        <ele>5</ele>
        <time>2020-06-06T11:16:12Z</time>
      </trkpt>
      <trkpt lat="47.64621" lon="-2.70935">
        <ele>5</ele>
        <time>2020-06-06T11:16:13Z</time>
      </trkpt>
      <trkpt lat="47.64624" lon="-2.7094">
        <ele>5.1</ele>
        <time>2020-06-06T11:16:14Z</time>
      </trkpt>
      <trkpt lat="47.64627" lon="-2.70944">
        <ele>5.1</ele>
        <time>2020-06-06T11:16:15Z</time>
      </trkpt>
      <trkpt lat="47.64631" lon="-2.70948">
        <ele>5.1</ele>
        <time>2020-06-06T11:16:16Z</time>
      </trkpt>
      <trkpt lat="47.64633" lon="-2.70952">
        <ele>5.1</ele>
        <time>2020-06-06T11:16:17Z</time>
      </trkpt>
      <trkpt lat="47.64636" lon="-2.70956">
        <ele>5.1</ele>
        <time>2020-06-06T11:16:18Z</time>
      </trkpt>
      <trkpt lat="47.64638" lon="-2.7096">
        <ele>5.1</ele>
        <time>2020-06-06T11:16:19Z</time>
      </trkpt>
      <trkpt lat="47.64641" lon="-2.70965">
        <ele>5.1</ele>
        <time>2020-06-06T11:16:20Z</time>
      </trkpt>
      <trkpt lat="47.64644" lon="-2.7097">
        <ele>5.1</ele>
        <time>2020-06-06T11:16:21Z</time>
      </trkpt>
      <trkpt lat="47.64648" lon="-2.70977">
        <ele>5.1</ele>
        <time>2020-06-06T11:16:22Z</time>
      </trkpt>
      <trkpt lat="47.64652" lon="-2.70984">
        <ele>5.1</ele>
        <time>2020-06-06T11:16:23Z</time>
      </trkpt>
      <trkpt lat="47.64655" lon="-2.70991">
        <ele>5.2</ele>
        <time>2020-06-06T11:16:24Z</time>
      </trkpt>
      <trkpt lat="47.64659" lon="-2.70996">
        <ele>5.3</ele>
        <time>2020-06-06T11:16:25Z</time>
      </trkpt>
      <trkpt lat="47.64663" lon="-2.71002">
        <ele>5.4</ele>
        <time>2020-06-06T11:16:26Z</time>
      </trkpt>
      <trkpt lat="47.64667" lon="-2.71008">
        <ele>5.5</ele>
        <time>2020-06-06T11:16:27Z</time>
      </trkpt>
      <trkpt lat="47.6467" lon="-2.71013">
        <ele>5.6</ele>
        <time>2020-06-06T11:16:28Z</time>
      </trkpt>
      <trkpt lat="47.64675" lon="-2.7102">
        <ele>5.7</ele>
        <time>2020-06-06T11:16:29Z</time>
      </trkpt>
      <trkpt lat="47.6468" lon="-2.71025">
        <ele>5.8</ele>
        <time>2020-06-06T11:16:30Z</time>
      </trkpt>
      <trkpt lat="47.64685" lon="-2.7103">
        <ele>5.9</ele>
        <time>2020-06-06T11:16:31Z</time>
      </trkpt>
      <trkpt lat="47.64689" lon="-2.71035">
        <ele>6</ele>
        <time>2020-06-06T11:16:32Z</time>
      </trkpt>
      <trkpt lat="47.64693" lon="-2.7104">
        <ele>6.1</ele>
        <time>2020-06-06T11:16:33Z</time>
      </trkpt>
      <trkpt lat="47.64698" lon="-2.71044">
        <ele>6.2</ele>
        <time>2020-06-06T11:16:34Z</time>
      </trkpt>
      <trkpt lat="47.64702" lon="-2.71049">
        <ele>6.3</ele>
        <time>2020-06-06T11:16:35Z</time>
      </trkpt>
      <trkpt lat="47.64706" lon="-2.71052">
        <ele>6.4</ele>
        <time>2020-06-06T11:16:36Z</time>
      </trkpt>
      <trkpt lat="47.6471" lon="-2.71056">
        <ele>6.4</ele>
        <time>2020-06-06T11:16:37Z</time>
      </trkpt>
      <trkpt lat="47.64715" lon="-2.71059">
        <ele>6.5</ele>
        <time>2020-06-06T11:16:38Z</time>
      </trkpt>
      <trkpt lat="47.64719" lon="-2.71062">
        <ele>6.5</ele>
        <time>2020-06-06T11:16:39Z</time>
      </trkpt>
      <trkpt lat="47.64724" lon="-2.71065">
        <ele>6.6</ele>
        <time>2020-06-06T11:16:40Z</time>
      </trkpt>
      <trkpt lat="47.64729" lon="-2.71067">
        <ele>6.6</ele>
        <time>2020-06-06T11:16:41Z</time>
      </trkpt>
      <trkpt lat="47.64734" lon="-2.7107">
        <ele>6.7</ele>
        <time>2020-06-06T11:16:42Z</time>
      </trkpt>
      <trkpt lat="47.64738" lon="-2.71072">
        <ele>6.7</ele>
        <time>2020-06-06T11:16:43Z</time>
      </trkpt>
      <trkpt lat="47.64742" lon="-2.71073">
        <ele>6.7</ele>
        <time>2020-06-06T11:16:44Z</time>
      </trkpt>
      <trkpt lat="47.64745" lon="-2.71075">
        <ele>6.7</ele>
        <time>2020-06-06T11:16:45Z</time>
      </trkpt>
      <trkpt lat="47.6475" lon="-2.71076">
        <ele>6.7</ele>
        <time>2020-06-06T11:16:46Z</time>
      </trkpt>
      <trkpt lat="47.64753" lon="-2.71077">
        <ele>6.7</ele>
        <time>2020-06-06T11:16:47Z</time>
      </trkpt>
      <trkpt lat="47.64757" lon="-2.71078">
        <ele>6.7</ele>
        <time>2020-06-06T11:16:48Z</time>
      </trkpt>
      <trkpt lat="47.64762" lon="-2.71078">
        <ele>6.7</ele>
        <time>2020-06-06T11:16:49Z</time>
      </trkpt>
      <trkpt lat="47.64766" lon="-2.71079">
        <ele>6.6</ele>
        <time>2020-06-06T11:16:50Z</time>
      </trkpt>
      <trkpt lat="47.6477" lon="-2.71079">
        <ele>6.6</ele>
        <time>2020-06-06T11:16:51Z</time>
      </trkpt>
      <trkpt lat="47.64773" lon="-2.71079">
        <ele>6.6</ele>
        <time>2020-06-06T11:16:52Z</time>
      </trkpt>
      <trkpt lat="47.64778" lon="-2.71078">
        <ele>6.6</ele>
        <time>2020-06-06T11:16:53Z</time>
      </trkpt>
      <trkpt lat="47.64782" lon="-2.71077">
        <ele>6.6</ele>
        <time>2020-06-06T11:16:54Z</time>
      </trkpt>
      <trkpt lat="47.64788" lon="-2.71076">
        <ele>6.6</ele>
        <time>2020-06-06T11:16:55Z</time>
      </trkpt>
      <trkpt lat="47.64794" lon="-2.71073">
        <ele>6.6</ele>
        <time>2020-06-06T11:16:56Z</time>
      </trkpt>
      <trkpt lat="47.648" lon="-2.7107">
        <ele>6.6</ele>
        <time>2020-06-06T11:16:57Z</time>
      </trkpt>
      <trkpt lat="47.64806" lon="-2.71066">
        <ele>6.5</ele>
        <time>2020-06-06T11:16:58Z</time>
      </trkpt>
      <trkpt lat="47.6481" lon="-2.71064">
        <ele>6.5</ele>
        <time>2020-06-06T11:16:59Z</time>
      </trkpt>
      <trkpt lat="47.64814" lon="-2.71062">
        <ele>6.5</ele>
        <time>2020-06-06T11:17:00Z</time>
      </trkpt>
      <trkpt lat="47.64817" lon="-2.7106">
        <ele>6.5</ele>
        <time>2020-06-06T11:17:01Z</time>
      </trkpt>
      <trkpt lat="47.64821" lon="-2.71057">
        <ele>6.5</ele>
        <time>2020-06-06T11:17:02Z</time>
      </trkpt>
      <trkpt lat="47.64826" lon="-2.71054">
        <ele>6.5</ele>
        <time>2020-06-06T11:17:03Z</time>
      </trkpt>
      <trkpt lat="47.64831" lon="-2.71052">
        <ele>6.4</ele>
        <time>2020-06-06T11:17:04Z</time>
      </trkpt>
      <trkpt lat="47.64836" lon="-2.71049">
        <ele>6.4</ele>
        <time>2020-06-06T11:17:05Z</time>
      </trkpt>
      <trkpt lat="47.64839" lon="-2.71047">
        <ele>6.4</ele>
        <time>2020-06-06T11:17:06Z</time>
      </trkpt>
      <trkpt lat="47.64842" lon="-2.71044">
        <ele>6.4</ele>
        <time>2020-06-06T11:17:07Z</time>
      </trkpt>
      <trkpt lat="47.64847" lon="-2.71041">
        <ele>6.4</ele>
        <time>2020-06-06T11:17:08Z</time>
      </trkpt>
      <trkpt lat="47.64851" lon="-2.71039">
        <ele>6.4</ele>
        <time>2020-06-06T11:17:09Z</time>
      </trkpt>
      <trkpt lat="47.64856" lon="-2.71037">
        <ele>6.4</ele>
        <time>2020-06-06T11:17:10Z</time>
      </trkpt>
      <trkpt lat="47.6486" lon="-2.71036">
        <ele>6.4</ele>
        <time>2020-06-06T11:17:11Z</time>
      </trkpt>
      <trkpt lat="47.64863" lon="-2.71035">
        <ele>6.4</ele>
        <time>2020-06-06T11:17:12Z</time>
      </trkpt>
      <trkpt lat="47.64866" lon="-2.71034">
        <ele>6.4</ele>
        <time>2020-06-06T11:17:13Z</time>
      </trkpt>
      <trkpt lat="47.6487" lon="-2.71031">
        <ele>6.5</ele>
        <time>2020-06-06T11:17:14Z</time>
      </trkpt>
      <trkpt lat="47.64873" lon="-2.71029">
        <ele>6.5</ele>
        <time>2020-06-06T11:17:15Z</time>
      </trkpt>
      <trkpt lat="47.64877" lon="-2.71028">
        <ele>6.5</ele>
        <time>2020-06-06T11:17:16Z</time>
      </trkpt>
      <trkpt lat="47.6488" lon="-2.71027">
        <ele>6.5</ele>
        <time>2020-06-06T11:17:17Z</time>
      </trkpt>
      <trkpt lat="47.64884" lon="-2.71025">
        <ele>6.5</ele>
        <time>2020-06-06T11:17:18Z</time>
      </trkpt>
      <trkpt lat="47.64888" lon="-2.71023">
        <ele>6.5</ele>
        <time>2020-06-06T11:17:19Z</time>
      </trkpt>
      <trkpt lat="47.6489" lon="-2.71023">
        <ele>6.6</ele>
        <time>2020-06-06T11:17:20Z</time>
      </trkpt>
      <trkpt lat="47.64891" lon="-2.71023">
        <ele>6.6</ele>
        <time>2020-06-06T11:17:21Z</time>
      </trkpt>
      <trkpt lat="47.64892" lon="-2.71022">
        <ele>6.6</ele>
        <time>2020-06-06T11:17:22Z</time>
      </trkpt>
      <trkpt lat="47.64893" lon="-2.71021">
        <ele>6.6</ele>
        <time>2020-06-06T11:17:23Z</time>
      </trkpt>
      <trkpt lat="47.64893" lon="-2.7102">
        <ele>6.6</ele>
        <time>2020-06-06T11:17:24Z</time>
      </trkpt>
      <trkpt lat="47.64894" lon="-2.7102">
        <ele>6.6</ele>
        <time>2020-06-06T11:17:25Z</time>
      </trkpt>
      <trkpt lat="47.64894" lon="-2.7102">
        <ele>6.6</ele>
        <time>2020-06-06T11:17:26Z</time>
      </trkpt>
      <trkpt lat="47.64894" lon="-2.7102">
        <ele>6.6</ele>
        <time>2020-06-06T11:17:27Z</time>
      </trkpt>
      <trkpt lat="47.64894" lon="-2.7102">
        <ele>6.6</ele>
        <time>2020-06-06T11:17:28Z</time>
      </trkpt>
      <trkpt lat="47.64894" lon="-2.7102">
        <ele>6.6</ele>
        <time>2020-06-06T11:17:29Z</time>
      </trkpt>
      <trkpt lat="47.64894" lon="-2.7102">
        <ele>6.6</ele>
        <time>2020-06-06T11:17:30Z</time>
      </trkpt>
      <trkpt lat="47.64894" lon="-2.71019">
        <ele>6.6</ele>
        <time>2020-06-06T11:17:31Z</time>
      </trkpt>
      <trkpt lat="47.64895" lon="-2.71019">
        <ele>6.6</ele>
        <time>2020-06-06T11:17:32Z</time>
      </trkpt>
      <trkpt lat="47.64895" lon="-2.71019">
        <ele>6.6</ele>
        <time>2020-06-06T11:17:33Z</time>
      </trkpt>
      <trkpt lat="47.64896" lon="-2.71018">
        <ele>6.6</ele>
        <time>2020-06-06T11:17:34Z</time>
      </trkpt>
      <trkpt lat="47.64896" lon="-2.71018">
        <ele>6.6</ele>
        <time>2020-06-06T11:17:35Z</time>
      </trkpt>
      <trkpt lat="47.64897" lon="-2.71018">
        <ele>6.6</ele>
        <time>2020-06-06T11:17:36Z</time>
      </trkpt>
      <trkpt lat="47.64898" lon="-2.71018">
        <ele>6.6</ele>
        <time>2020-06-06T11:17:37Z</time>
      </trkpt>
      <trkpt lat="47.64899" lon="-2.71018">
        <ele>6.6</ele>
        <time>2020-06-06T11:17:38Z</time>
      </trkpt>
      <trkpt lat="47.64899" lon="-2.71018">
        <ele>6.6</ele>
        <time>2020-06-06T11:17:39Z</time>
      </trkpt>
      <trkpt lat="47.649" lon="-2.71018">
        <ele>6.6</ele>
        <time>2020-06-06T11:17:40Z</time>
      </trkpt>
      <trkpt lat="47.64901" lon="-2.71018">
        <ele>6.6</ele>
        <time>2020-06-06T11:17:41Z</time>
      </trkpt>
      <trkpt lat="47.64902" lon="-2.71019">
        <ele>6.6</ele>
        <time>2020-06-06T11:17:42Z</time>
      </trkpt>
      <trkpt lat="47.64902" lon="-2.7102">
        <ele>6.6</ele>
        <time>2020-06-06T11:17:43Z</time>
      </trkpt>
      <trkpt lat="47.64903" lon="-2.71022">
        <ele>6.5</ele>
        <time>2020-06-06T11:17:44Z</time>
      </trkpt>
      <trkpt lat="47.64904" lon="-2.71023">
        <ele>6.5</ele>
        <time>2020-06-06T11:17:45Z</time>
      </trkpt>
      <trkpt lat="47.64904" lon="-2.71024">
        <ele>6.5</ele>
        <time>2020-06-06T11:17:46Z</time>
      </trkpt>
      <trkpt lat="47.64904" lon="-2.71025">
        <ele>6.5</ele>
        <time>2020-06-06T11:17:47Z</time>
      </trkpt>
      <trkpt lat="47.64905" lon="-2.71026">
        <ele>6.5</ele>
        <time>2020-06-06T11:17:48Z</time>
      </trkpt>
      <trkpt lat="47.64905" lon="-2.71027">
        <ele>6.5</ele>
        <time>2020-06-06T11:17:49Z</time>
      </trkpt>
      <trkpt lat="47.64905" lon="-2.71028">
        <ele>6.5</ele>
        <time>2020-06-06T11:17:50Z</time>
      </trkpt>
      <trkpt lat="47.64906" lon="-2.71029">
        <ele>6.5</ele>
        <time>2020-06-06T11:17:51Z</time>
      </trkpt>
      <trkpt lat="47.64906" lon="-2.7103">
        <ele>6.5</ele>
        <time>2020-06-06T11:17:52Z</time>
      </trkpt>
      <trkpt lat="47.64906" lon="-2.71031">
        <ele>6.5</ele>
        <time>2020-06-06T11:17:53Z</time>
      </trkpt>
      <trkpt lat="47.64907" lon="-2.71032">
        <ele>6.5</ele>
        <time>2020-06-06T11:17:54Z</time>
      </trkpt>
      <trkpt lat="47.64907" lon="-2.71033">
        <ele>6.5</ele>
        <time>2020-06-06T11:17:55Z</time>
      </trkpt>
      <trkpt lat="47.64907" lon="-2.71034">
        <ele>6.5</ele>
        <time>2020-06-06T11:17:56Z</time>
      </trkpt>
      <trkpt lat="47.64908" lon="-2.71035">
        <ele>6.5</ele>
        <time>2020-06-06T11:17:57Z</time>
      </trkpt>
      <trkpt lat="47.64908" lon="-2.71036">
        <ele>6.5</ele>
        <time>2020-06-06T11:18:58Z</time>
      </trkpt>
      <trkpt lat="47.64908" lon="-2.71037">
        <ele>6.5</ele>
        <time>2020-06-06T11:18:59Z</time>
      </trkpt>
      <trkpt lat="47.64909" lon="-2.71042">
        <ele>6.5</ele>
        <time>2020-06-06T11:19:00Z</time>
      </trkpt>
      <trkpt lat="47.6491" lon="-2.71049">
        <ele>6.5</ele>
        <time>2020-06-06T11:19:01Z</time>
      </trkpt>
      <trkpt lat="47.64911" lon="-2.71057">
        <ele>6.4</ele>
        <time>2020-06-06T11:19:02Z</time>
      </trkpt>
      <trkpt lat="47.64913" lon="-2.71064">
        <ele>6.4</ele>
        <time>2020-06-06T11:19:03Z</time>
      </trkpt>
      <trkpt lat="47.64914" lon="-2.71072">
        <ele>6.3</ele>
        <time>2020-06-06T11:19:04Z</time>
      </trkpt>
      <trkpt lat="47.64915" lon="-2.7108">
        <ele>6.2</ele>
        <time>2020-06-06T11:19:05Z</time>
      </trkpt>
      <trkpt lat="47.64916" lon="-2.71087">
        <ele>6.2</ele>
        <time>2020-06-06T11:19:06Z</time>
      </trkpt>
      <trkpt lat="47.64917" lon="-2.71095">
        <ele>6.2</ele>
        <time>2020-06-06T11:19:07Z</time>
      </trkpt>
      <trkpt lat="47.64918" lon="-2.71103">
        <ele>6.1</ele>
        <time>2020-06-06T11:19:08Z</time>
      </trkpt>
      <trkpt lat="47.64919" lon="-2.7111">
        <ele>6.2</ele>
        <time>2020-06-06T11:19:09Z</time>
      </trkpt>
      <trkpt lat="47.64919" lon="-2.71117">
        <ele>6.2</ele>
        <time>2020-06-06T11:19:10Z</time>
      </trkpt>
      <trkpt lat="47.64919" lon="-2.71124">
        <ele>6.3</ele>
        <time>2020-06-06T11:19:11Z</time>
      </trkpt>
      <trkpt lat="47.64919" lon="-2.71131">
        <ele>6.4</ele>
        <time>2020-06-06T11:19:12Z</time>
      </trkpt>
      <trkpt lat="47.6492" lon="-2.71138">
        <ele>6.5</ele>
        <time>2020-06-06T11:19:13Z</time>
      </trkpt>
      <trkpt lat="47.64921" lon="-2.71146">
        <ele>6.6</ele>
        <time>2020-06-06T11:19:14Z</time>
      </trkpt>
      <trkpt lat="47.64922" lon="-2.71154">
        <ele>6.7</ele>
        <time>2020-06-06T11:19:15Z</time>
      </trkpt>
      <trkpt lat="47.64922" lon="-2.71161">
        <ele>6.9</ele>
        <time>2020-06-06T11:19:16Z</time>
      </trkpt>
      <trkpt lat="47.64923" lon="-2.71168">
        <ele>7</ele>
        <time>2020-06-06T11:19:17Z</time>
      </trkpt>
      <trkpt lat="47.64923" lon="-2.71174">
        <ele>7.1</ele>
        <time>2020-06-06T11:19:18Z</time>
      </trkpt>
      <trkpt lat="47.64923" lon="-2.7118">
        <ele>7.3</ele>
        <time>2020-06-06T11:19:19Z</time>
      </trkpt>
      <trkpt lat="47.64923" lon="-2.71186">
        <ele>7.4</ele>
        <time>2020-06-06T11:19:20Z</time>
      </trkpt>
      <trkpt lat="47.64923" lon="-2.71192">
        <ele>7.6</ele>
        <time>2020-06-06T11:19:21Z</time>
      </trkpt>
      <trkpt lat="47.64923" lon="-2.71199">
        <ele>7.8</ele>
        <time>2020-06-06T11:19:22Z</time>
      </trkpt>
      <trkpt lat="47.64923" lon="-2.71205">
        <ele>8</ele>
        <time>2020-06-06T11:19:23Z</time>
      </trkpt>
      <trkpt lat="47.64923" lon="-2.71212">
        <ele>8.2</ele>
        <time>2020-06-06T11:19:24Z</time>
      </trkpt>
      <trkpt lat="47.64923" lon="-2.71219">
        <ele>8.4</ele>
        <time>2020-06-06T11:19:25Z</time>
      </trkpt>
      <trkpt lat="47.64923" lon="-2.71226">
        <ele>8.6</ele>
        <time>2020-06-06T11:19:26Z</time>
      </trkpt>
      <trkpt lat="47.64923" lon="-2.71231">
        <ele>8.7</ele>
        <time>2020-06-06T11:19:27Z</time>
      </trkpt>
      <trkpt lat="47.64923" lon="-2.71237">
        <ele>8.9</ele>
        <time>2020-06-06T11:19:28Z</time>
      </trkpt>
      <trkpt lat="47.64924" lon="-2.71242">
        <ele>9.1</ele>
        <time>2020-06-06T11:19:29Z</time>
      </trkpt>
      <trkpt lat="47.64924" lon="-2.71248">
        <ele>9.2</ele>
        <time>2020-06-06T11:19:30Z</time>
      </trkpt>
      <trkpt lat="47.64924" lon="-2.71254">
        <ele>9.4</ele>
        <time>2020-06-06T11:19:31Z</time>
      </trkpt>
      <trkpt lat="47.64924" lon="-2.71259">
        <ele>9.6</ele>
        <time>2020-06-06T11:19:32Z</time>
      </trkpt>
      <trkpt lat="47.64924" lon="-2.71263">
        <ele>9.8</ele>
        <time>2020-06-06T11:19:33Z</time>
      </trkpt>
      <trkpt lat="47.64925" lon="-2.71268">
        <ele>9.9</ele>
        <time>2020-06-06T11:19:34Z</time>
      </trkpt>
      <trkpt lat="47.64925" lon="-2.71273">
        <ele>10.1</ele>
        <time>2020-06-06T11:19:35Z</time>
      </trkpt>
      <trkpt lat="47.64925" lon="-2.71278">
        <ele>10.3</ele>
        <time>2020-06-06T11:19:36Z</time>
      </trkpt>
      <trkpt lat="47.64925" lon="-2.71283">
        <ele>10.4</ele>
        <time>2020-06-06T11:19:37Z</time>
      </trkpt>
      <trkpt lat="47.64925" lon="-2.71288">
        <ele>10.6</ele>
        <time>2020-06-06T11:19:38Z</time>
      </trkpt>
      <trkpt lat="47.64924" lon="-2.71293">
        <ele>10.8</ele>
        <time>2020-06-06T11:19:39Z</time>
      </trkpt>
      <trkpt lat="47.64924" lon="-2.71298">
        <ele>11</ele>
        <time>2020-06-06T11:19:40Z</time>
      </trkpt>
      <trkpt lat="47.64924" lon="-2.71304">
        <ele>11.1</ele>
        <time>2020-06-06T11:19:41Z</time>
      </trkpt>
      <trkpt lat="47.64924" lon="-2.71308">
        <ele>11.3</ele>
        <time>2020-06-06T11:19:42Z</time>
      </trkpt>
      <trkpt lat="47.64925" lon="-2.71313">
        <ele>11.5</ele>
        <time>2020-06-06T11:19:43Z</time>
      </trkpt>
      <trkpt lat="47.64926" lon="-2.71319">
        <ele>11.6</ele>
        <time>2020-06-06T11:19:44Z</time>
      </trkpt>
      <trkpt lat="47.64927" lon="-2.71323">
        <ele>11.8</ele>
        <time>2020-06-06T11:19:45Z</time>
      </trkpt>
      <trkpt lat="47.64927" lon="-2.71327">
        <ele>11.9</ele>
        <time>2020-06-06T11:19:46Z</time>
      </trkpt>
      <trkpt lat="47.64927" lon="-2.71333">
        <ele>12.1</ele>
        <time>2020-06-06T11:19:47Z</time>
      </trkpt>
      <trkpt lat="47.64927" lon="-2.71336">
        <ele>12.2</ele>
        <time>2020-06-06T11:19:48Z</time>
      </trkpt>
      <trkpt lat="47.64928" lon="-2.71341">
        <ele>12.3</ele>
        <time>2020-06-06T11:19:49Z</time>
      </trkpt>
      <trkpt lat="47.64927" lon="-2.71347">
        <ele>12.5</ele>
        <time>2020-06-06T11:19:50Z</time>
      </trkpt>
      <trkpt lat="47.64928" lon="-2.71351">
        <ele>12.6</ele>
        <time>2020-06-06T11:19:51Z</time>
      </trkpt>
      <trkpt lat="47.64928" lon="-2.71357">
        <ele>12.8</ele>
        <time>2020-06-06T11:19:52Z</time>
      </trkpt>
      <trkpt lat="47.64929" lon="-2.71362">
        <ele>12.9</ele>
        <time>2020-06-06T11:19:53Z</time>
      </trkpt>
      <trkpt lat="47.64929" lon="-2.71368">
        <ele>13.1</ele>
        <time>2020-06-06T11:19:54Z</time>
      </trkpt>
      <trkpt lat="47.64929" lon="-2.71373">
        <ele>13.2</ele>
        <time>2020-06-06T11:19:55Z</time>
      </trkpt>
      <trkpt lat="47.64929" lon="-2.71378">
        <ele>13.4</ele>
        <time>2020-06-06T11:19:56Z</time>
      </trkpt>
      <trkpt lat="47.64929" lon="-2.71383">
        <ele>13.5</ele>
        <time>2020-06-06T11:19:57Z</time>
      </trkpt>
      <trkpt lat="47.6493" lon="-2.71388">
        <ele>13.7</ele>
        <time>2020-06-06T11:19:58Z</time>
      </trkpt>
      <trkpt lat="47.6493" lon="-2.71392">
        <ele>13.8</ele>
        <time>2020-06-06T11:19:59Z</time>
      </trkpt>
      <trkpt lat="47.64931" lon="-2.71398">
        <ele>13.9</ele>
        <time>2020-06-06T11:20:00Z</time>
      </trkpt>
      <trkpt lat="47.64931" lon="-2.714">
        <ele>14</ele>
        <time>2020-06-06T11:20:01Z</time>
      </trkpt>
      <trkpt lat="47.64932" lon="-2.71404">
        <ele>14.1</ele>
        <time>2020-06-06T11:20:02Z</time>
      </trkpt>
      <trkpt lat="47.64933" lon="-2.71409">
        <ele>14.2</ele>
        <time>2020-06-06T11:20:03Z</time>
      </trkpt>
      <trkpt lat="47.64933" lon="-2.71411">
        <ele>14.3</ele>
        <time>2020-06-06T11:20:04Z</time>
      </trkpt>
      <trkpt lat="47.64934" lon="-2.71416">
        <ele>14.4</ele>
        <time>2020-06-06T11:20:05Z</time>
      </trkpt>
      <trkpt lat="47.64935" lon="-2.71421">
        <ele>14.6</ele>
        <time>2020-06-06T11:20:06Z</time>
      </trkpt>
      <trkpt lat="47.64936" lon="-2.71427">
        <ele>14.7</ele>
        <time>2020-06-06T11:20:07Z</time>
      </trkpt>
      <trkpt lat="47.64936" lon="-2.71432">
        <ele>14.9</ele>
        <time>2020-06-06T11:20:08Z</time>
      </trkpt>
      <trkpt lat="47.64937" lon="-2.71438">
        <ele>15.1</ele>
        <time>2020-06-06T11:20:09Z</time>
      </trkpt>
      <trkpt lat="47.64937" lon="-2.71443">
        <ele>15.2</ele>
        <time>2020-06-06T11:20:10Z</time>
      </trkpt>
      <trkpt lat="47.64937" lon="-2.71448">
        <ele>15.4</ele>
        <time>2020-06-06T11:20:11Z</time>
      </trkpt>
      <trkpt lat="47.64938" lon="-2.71452">
        <ele>15.6</ele>
        <time>2020-06-06T11:20:12Z</time>
      </trkpt>
      <trkpt lat="47.64939" lon="-2.71457">
        <ele>15.7</ele>
        <time>2020-06-06T11:20:13Z</time>
      </trkpt>
      <trkpt lat="47.6494" lon="-2.71462">
        <ele>15.9</ele>
        <time>2020-06-06T11:20:14Z</time>
      </trkpt>
      <trkpt lat="47.6494" lon="-2.71468">
        <ele>16</ele>
        <time>2020-06-06T11:20:15Z</time>
      </trkpt>
      <trkpt lat="47.64941" lon="-2.71474">
        <ele>16.2</ele>
        <time>2020-06-06T11:20:16Z</time>
      </trkpt>
      <trkpt lat="47.64941" lon="-2.71478">
        <ele>16.3</ele>
        <time>2020-06-06T11:20:17Z</time>
      </trkpt>
      <trkpt lat="47.64942" lon="-2.71484">
        <ele>16.5</ele>
        <time>2020-06-06T11:20:18Z</time>
      </trkpt>
      <trkpt lat="47.64942" lon="-2.71486">
        <ele>16.5</ele>
        <time>2020-06-06T11:20:19Z</time>
      </trkpt>
      <trkpt lat="47.64943" lon="-2.71491">
        <ele>16.7</ele>
        <time>2020-06-06T11:20:20Z</time>
      </trkpt>
      <trkpt lat="47.64943" lon="-2.71494">
        <ele>16.7</ele>
        <time>2020-06-06T11:20:21Z</time>
      </trkpt>
      <trkpt lat="47.64943" lon="-2.71498">
        <ele>16.8</ele>
        <time>2020-06-06T11:20:22Z</time>
      </trkpt>
      <trkpt lat="47.64944" lon="-2.71503">
        <ele>17</ele>
        <time>2020-06-06T11:20:23Z</time>
      </trkpt>
      <trkpt lat="47.64945" lon="-2.71508">
        <ele>17.1</ele>
        <time>2020-06-06T11:20:24Z</time>
      </trkpt>
      <trkpt lat="47.64945" lon="-2.71513">
        <ele>17.2</ele>
        <time>2020-06-06T11:20:25Z</time>
      </trkpt>
      <trkpt lat="47.64946" lon="-2.71517">
        <ele>17.4</ele>
        <time>2020-06-06T11:20:26Z</time>
      </trkpt>
      <trkpt lat="47.64947" lon="-2.71522">
        <ele>17.5</ele>
        <time>2020-06-06T11:20:27Z</time>
      </trkpt>
      <trkpt lat="47.64948" lon="-2.71527">
        <ele>17.6</ele>
        <time>2020-06-06T11:20:28Z</time>
      </trkpt>
      <trkpt lat="47.64949" lon="-2.71532">
        <ele>17.7</ele>
        <time>2020-06-06T11:20:29Z</time>
      </trkpt>
      <trkpt lat="47.64949" lon="-2.71537">
        <ele>17.8</ele>
        <time>2020-06-06T11:20:30Z</time>
      </trkpt>
      <trkpt lat="47.64949" lon="-2.71542">
        <ele>17.9</ele>
        <time>2020-06-06T11:20:31Z</time>
      </trkpt>
      <trkpt lat="47.64951" lon="-2.71547">
        <ele>18</ele>
        <time>2020-06-06T11:20:32Z</time>
      </trkpt>
      <trkpt lat="47.64952" lon="-2.71554">
        <ele>18.2</ele>
        <time>2020-06-06T11:20:33Z</time>
      </trkpt>
      <trkpt lat="47.64953" lon="-2.71559">
        <ele>18.3</ele>
        <time>2020-06-06T11:20:34Z</time>
      </trkpt>
      <trkpt lat="47.64955" lon="-2.71563">
        <ele>18.4</ele>
        <time>2020-06-06T11:20:35Z</time>
      </trkpt>
      <trkpt lat="47.64955" lon="-2.71568">
        <ele>18.5</ele>
        <time>2020-06-06T11:20:36Z</time>
      </trkpt>
      <trkpt lat="47.64956" lon="-2.71572">
        <ele>18.5</ele>
        <time>2020-06-06T11:20:37Z</time>
      </trkpt>
      <trkpt lat="47.64957" lon="-2.71576">
        <ele>18.6</ele>
        <time>2020-06-06T11:20:38Z</time>
      </trkpt>
      <trkpt lat="47.64957" lon="-2.71581">
        <ele>18.6</ele>
        <time>2020-06-06T11:20:39Z</time>
      </trkpt>
      <trkpt lat="47.64957" lon="-2.71585">
        <ele>18.6</ele>
        <time>2020-06-06T11:20:40Z</time>
      </trkpt>
      <trkpt lat="47.64958" lon="-2.7159">
        <ele>18.7</ele>
        <time>2020-06-06T11:20:41Z</time>
      </trkpt>
      <trkpt lat="47.64959" lon="-2.71594">
        <ele>18.7</ele>
        <time>2020-06-06T11:20:42Z</time>
      </trkpt>
      <trkpt lat="47.64959" lon="-2.71599">
        <ele>18.7</ele>
        <time>2020-06-06T11:20:43Z</time>
      </trkpt>
      <trkpt lat="47.64959" lon="-2.71604">
        <ele>18.6</ele>
        <time>2020-06-06T11:20:44Z</time>
      </trkpt>
      <trkpt lat="47.64959" lon="-2.71609">
        <ele>18.6</ele>
        <time>2020-06-06T11:20:45Z</time>
      </trkpt>
      <trkpt lat="47.64959" lon="-2.71614">
        <ele>18.6</ele>
        <time>2020-06-06T11:20:46Z</time>
      </trkpt>
      <trkpt lat="47.64959" lon="-2.7162">
        <ele>18.6</ele>
        <time>2020-06-06T11:20:47Z</time>
      </trkpt>
      <trkpt lat="47.64956" lon="-2.71623">
        <ele>18.6</ele>
        <time>2020-06-06T11:20:48Z</time>
      </trkpt>
      <trkpt lat="47.64955" lon="-2.71623">
        <ele>18.6</ele>
        <time>2020-06-06T11:20:49Z</time>
      </trkpt>
      <trkpt lat="47.64952" lon="-2.71623">
        <ele>18.6</ele>
        <time>2020-06-06T11:20:50Z</time>
      </trkpt>
      <trkpt lat="47.64949" lon="-2.71623">
        <ele>18.6</ele>
        <time>2020-06-06T11:20:51Z</time>
      </trkpt>
      <trkpt lat="47.64945" lon="-2.71623">
        <ele>18.6</ele>
        <time>2020-06-06T11:20:52Z</time>
      </trkpt>
      <trkpt lat="47.64944" lon="-2.71623">
        <ele>18.6</ele>
        <time>2020-06-06T11:20:53Z</time>
      </trkpt>
      <trkpt lat="47.64942" lon="-2.71623">
        <ele>18.6</ele>
        <time>2020-06-06T11:20:54Z</time>
      </trkpt>
      <trkpt lat="47.64942" lon="-2.71623">
        <ele>18.6</ele>
        <time>2020-06-06T11:20:55Z</time>
      </trkpt>
      <trkpt lat="47.64941" lon="-2.71623">
        <ele>18.6</ele>
        <time>2020-06-06T11:20:56Z</time>
      </trkpt>
      <trkpt lat="47.6494" lon="-2.71623">
        <ele>18.6</ele>
        <time>2020-06-06T11:20:57Z</time>
      </trkpt>
      <trkpt lat="47.64939" lon="-2.71623">
        <ele>18.6</ele>
        <time>2020-06-06T11:20:58Z</time>
      </trkpt>
      <trkpt lat="47.64939" lon="-2.71624">
        <ele>18.6</ele>
        <time>2020-06-06T11:20:59Z</time>
      </trkpt>
      <trkpt lat="47.64938" lon="-2.71624">
        <ele>18.6</ele>
        <time>2020-06-06T11:21:00Z</time>
      </trkpt>
      <trkpt lat="47.64937" lon="-2.71625">
        <ele>18.6</ele>
        <time>2020-06-06T11:21:01Z</time>
      </trkpt>
      <trkpt lat="47.64937" lon="-2.71625">
        <ele>18.6</ele>
        <time>2020-06-06T11:21:02Z</time>
      </trkpt>
      <trkpt lat="47.64937" lon="-2.71625">
        <ele>18.6</ele>
        <time>2020-06-06T11:21:03Z</time>
      </trkpt>
      <trkpt lat="47.64936" lon="-2.71625">
        <ele>18.6</ele>
        <time>2020-06-06T11:21:04Z</time>
      </trkpt>
      <trkpt lat="47.64937" lon="-2.71625">
        <ele>18.6</ele>
        <time>2020-06-06T11:21:05Z</time>
      </trkpt>
      <trkpt lat="47.64937" lon="-2.71625">
        <ele>18.6</ele>
        <time>2020-06-06T11:21:06Z</time>
      </trkpt>
      <trkpt lat="47.64937" lon="-2.71625">
        <ele>18.6</ele>
        <time>2020-06-06T11:21:07Z</time>
      </trkpt>
      <trkpt lat="47.64937" lon="-2.71626">
        <ele>18.6</ele>
        <time>2020-06-06T11:21:08Z</time>
      </trkpt>
      <trkpt lat="47.64937" lon="-2.71626">
        <ele>18.6</ele>
        <time>2020-06-06T11:21:09Z</time>
      </trkpt>
      <trkpt lat="47.64937" lon="-2.71627">
        <ele>18.6</ele>
        <time>2020-06-06T11:21:10Z</time>
      </trkpt>
      <trkpt lat="47.64937" lon="-2.71628">
        <ele>18.7</ele>
        <time>2020-06-06T11:21:11Z</time>
      </trkpt>
      <trkpt lat="47.64937" lon="-2.71628">
        <ele>18.7</ele>
        <time>2020-06-06T11:21:12Z</time>
      </trkpt>
      <trkpt lat="47.64938" lon="-2.71628">
        <ele>18.7</ele>
        <time>2020-06-06T11:21:13Z</time>
      </trkpt>
      <trkpt lat="47.64938" lon="-2.71628">
        <ele>18.7</ele>
        <time>2020-06-06T11:21:14Z</time>
      </trkpt>
      <trkpt lat="47.64938" lon="-2.71628">
        <ele>18.7</ele>
        <time>2020-06-06T11:21:15Z</time>
      </trkpt>
      <trkpt lat="47.64938" lon="-2.71628">
        <ele>18.7</ele>
        <time>2020-06-06T11:21:16Z</time>
      </trkpt>
      <trkpt lat="47.64938" lon="-2.71629">
        <ele>18.7</ele>
        <time>2020-06-06T11:21:17Z</time>
      </trkpt>
      <trkpt lat="47.64938" lon="-2.71629">
        <ele>18.7</ele>
        <time>2020-06-06T11:21:18Z</time>
      </trkpt>
      <trkpt lat="47.64938" lon="-2.7163">
        <ele>18.7</ele>
        <time>2020-06-06T11:21:19Z</time>
      </trkpt>
      <trkpt lat="47.64938" lon="-2.7163">
        <ele>18.7</ele>
        <time>2020-06-06T11:21:20Z</time>
      </trkpt>
      <trkpt lat="47.64937" lon="-2.7163">
        <ele>18.7</ele>
        <time>2020-06-06T11:21:21Z</time>
      </trkpt>
      <trkpt lat="47.64936" lon="-2.7163">
        <ele>18.7</ele>
        <time>2020-06-06T11:21:22Z</time>
      </trkpt>
      <trkpt lat="47.64936" lon="-2.7163">
        <ele>18.7</ele>
        <time>2020-06-06T11:21:23Z</time>
      </trkpt>
      <trkpt lat="47.64936" lon="-2.7163">
        <ele>18.7</ele>
        <time>2020-06-06T11:21:24Z</time>
      </trkpt>
      <trkpt lat="47.64936" lon="-2.7163">
        <ele>18.7</ele>
        <time>2020-06-06T11:21:25Z</time>
      </trkpt>
      <trkpt lat="47.64936" lon="-2.71629">
        <ele>18.7</ele>
        <time>2020-06-06T11:21:26Z</time>
      </trkpt>
      <trkpt lat="47.64936" lon="-2.71628">
        <ele>18.7</ele>
        <time>2020-06-06T11:21:27Z</time>
      </trkpt>
      <trkpt lat="47.64936" lon="-2.71627">
        <ele>18.7</ele>
        <time>2020-06-06T11:21:28Z</time>
      </trkpt>
      <trkpt lat="47.64936" lon="-2.71626">
        <ele>18.7</ele>
        <time>2020-06-06T11:21:29Z</time>
      </trkpt>
      <trkpt lat="47.64935" lon="-2.71625">
        <ele>18.7</ele>
        <time>2020-06-06T11:21:30Z</time>
      </trkpt>
      <trkpt lat="47.64935" lon="-2.71624">
        <ele>18.7</ele>
        <time>2020-06-06T11:21:31Z</time>
      </trkpt>
      <trkpt lat="47.64935" lon="-2.71623">
        <ele>18.7</ele>
        <time>2020-06-06T11:21:32Z</time>
      </trkpt>
      <trkpt lat="47.64935" lon="-2.71623">
        <ele>18.7</ele>
        <time>2020-06-06T11:21:33Z</time>
      </trkpt>
      <trkpt lat="47.64937" lon="-2.71622">
        <ele>18.7</ele>
        <time>2020-06-06T11:21:34Z</time>
      </trkpt>
      <trkpt lat="47.64936" lon="-2.71622">
        <ele>18.7</ele>
        <time>2020-06-06T11:21:35Z</time>
      </trkpt>
      <trkpt lat="47.64937" lon="-2.71621">
        <ele>18.7</ele>
        <time>2020-06-06T11:21:36Z</time>
      </trkpt>
      <trkpt lat="47.64936" lon="-2.71621">
        <ele>18.7</ele>
        <time>2020-06-06T11:21:37Z</time>
      </trkpt>
      <trkpt lat="47.64936" lon="-2.71621">
        <ele>18.7</ele>
        <time>2020-06-06T11:21:38Z</time>
      </trkpt>
      <trkpt lat="47.64936" lon="-2.71622">
        <ele>18.7</ele>
        <time>2020-06-06T11:21:39Z</time>
      </trkpt>
      <trkpt lat="47.64935" lon="-2.71623">
        <ele>18.7</ele>
        <time>2020-06-06T11:21:40Z</time>
      </trkpt>
      <trkpt lat="47.64935" lon="-2.71623">
        <ele>18.7</ele>
        <time>2020-06-06T11:21:41Z</time>
      </trkpt>
      <trkpt lat="47.64934" lon="-2.71623">
        <ele>18.7</ele>
        <time>2020-06-06T11:21:42Z</time>
      </trkpt>
      <trkpt lat="47.64934" lon="-2.71623">
        <ele>18.7</ele>
        <time>2020-06-06T11:21:43Z</time>
      </trkpt>
      <trkpt lat="47.64934" lon="-2.71623">
        <ele>18.7</ele>
        <time>2020-06-06T11:21:44Z</time>
      </trkpt>
      <trkpt lat="47.64934" lon="-2.71624">
        <ele>18.7</ele>
        <time>2020-06-06T11:21:45Z</time>
      </trkpt>
      <trkpt lat="47.64935" lon="-2.71624">
        <ele>18.7</ele>
        <time>2020-06-06T11:21:46Z</time>
      </trkpt>
      <trkpt lat="47.64935" lon="-2.71625">
        <ele>18.7</ele>
        <time>2020-06-06T11:21:47Z</time>
      </trkpt>
      <trkpt lat="47.64935" lon="-2.71625">
        <ele>18.7</ele>
        <time>2020-06-06T11:21:48Z</time>
      </trkpt>
      <trkpt lat="47.64935" lon="-2.71625">
        <ele>18.7</ele>
        <time>2020-06-06T11:21:49Z</time>
      </trkpt>
      <trkpt lat="47.64935" lon="-2.71625">
        <ele>18.7</ele>
        <time>2020-06-06T11:21:50Z</time>
      </trkpt>
      <trkpt lat="47.64935" lon="-2.71625">
        <ele>18.7</ele>
        <time>2020-06-06T11:21:51Z</time>
      </trkpt>
      <trkpt lat="47.64935" lon="-2.71625">
        <ele>18.7</ele>
        <time>2020-06-06T11:21:52Z</time>
      </trkpt>
      <trkpt lat="47.64936" lon="-2.71626">
        <ele>18.7</ele>
        <time>2020-06-06T11:21:53Z</time>
      </trkpt>
      <trkpt lat="47.64935" lon="-2.71634">
        <ele>18.7</ele>
        <time>2020-06-06T11:22:32Z</time>
      </trkpt>
      <trkpt lat="47.64934" lon="-2.71634">
        <ele>18.7</ele>
        <time>2020-06-06T11:22:33Z</time>
      </trkpt>
      <trkpt lat="47.64932" lon="-2.71636">
        <ele>18.7</ele>
        <time>2020-06-06T11:22:34Z</time>
      </trkpt>
      <trkpt lat="47.64931" lon="-2.71636">
        <ele>18.7</ele>
        <time>2020-06-06T11:22:35Z</time>
      </trkpt>
      <trkpt lat="47.64931" lon="-2.71637">
        <ele>18.7</ele>
        <time>2020-06-06T11:22:36Z</time>
      </trkpt>
      <trkpt lat="47.64928" lon="-2.71637">
        <ele>18.7</ele>
        <time>2020-06-06T11:22:37Z</time>
      </trkpt>
      <trkpt lat="47.64927" lon="-2.71637">
        <ele>18.7</ele>
        <time>2020-06-06T11:22:38Z</time>
      </trkpt>
      <trkpt lat="47.64923" lon="-2.71638">
        <ele>18.7</ele>
        <time>2020-06-06T11:22:39Z</time>
      </trkpt>
      <trkpt lat="47.64922" lon="-2.71639">
        <ele>18.7</ele>
        <time>2020-06-06T11:22:40Z</time>
      </trkpt>
      <trkpt lat="47.64919" lon="-2.71642">
        <ele>18.7</ele>
        <time>2020-06-06T11:22:41Z</time>
      </trkpt>
      <trkpt lat="47.64919" lon="-2.71643">
        <ele>18.7</ele>
        <time>2020-06-06T11:22:42Z</time>
      </trkpt>
      <trkpt lat="47.64917" lon="-2.71647">
        <ele>18.7</ele>
        <time>2020-06-06T11:22:43Z</time>
      </trkpt>
      <trkpt lat="47.64914" lon="-2.71649">
        <ele>18.7</ele>
        <time>2020-06-06T11:22:44Z</time>
      </trkpt>
      <trkpt lat="47.64911" lon="-2.71651">
        <ele>18.7</ele>
        <time>2020-06-06T11:22:45Z</time>
      </trkpt>
      <trkpt lat="47.64907" lon="-2.71653">
        <ele>18.8</ele>
        <time>2020-06-06T11:22:46Z</time>
      </trkpt>
      <trkpt lat="47.64903" lon="-2.71654">
        <ele>18.8</ele>
        <time>2020-06-06T11:22:47Z</time>
      </trkpt>
      <trkpt lat="47.64899" lon="-2.71655">
        <ele>18.9</ele>
        <time>2020-06-06T11:22:48Z</time>
      </trkpt>
      <trkpt lat="47.64895" lon="-2.71657">
        <ele>19</ele>
        <time>2020-06-06T11:22:49Z</time>
      </trkpt>
      <trkpt lat="47.64893" lon="-2.71659">
        <ele>19.1</ele>
        <time>2020-06-06T11:22:50Z</time>
      </trkpt>
      <trkpt lat="47.6489" lon="-2.71662">
        <ele>19.2</ele>
        <time>2020-06-06T11:22:51Z</time>
      </trkpt>
      <trkpt lat="47.64889" lon="-2.71664">
        <ele>19.2</ele>
        <time>2020-06-06T11:22:52Z</time>
      </trkpt>
      <trkpt lat="47.6489" lon="-2.71669">
        <ele>19.3</ele>
        <time>2020-06-06T11:22:53Z</time>
      </trkpt>
      <trkpt lat="47.6489" lon="-2.7167">
        <ele>19.3</ele>
        <time>2020-06-06T11:22:54Z</time>
      </trkpt>
      <trkpt lat="47.64891" lon="-2.71674">
        <ele>19.4</ele>
        <time>2020-06-06T11:22:55Z</time>
      </trkpt>
      <trkpt lat="47.6489" lon="-2.71676">
        <ele>19.4</ele>
        <time>2020-06-06T11:22:56Z</time>
      </trkpt>
      <trkpt lat="47.64889" lon="-2.7168">
        <ele>19.4</ele>
        <time>2020-06-06T11:22:57Z</time>
      </trkpt>
      <trkpt lat="47.64888" lon="-2.71687">
        <ele>19.5</ele>
        <time>2020-06-06T11:22:58Z</time>
      </trkpt>
      <trkpt lat="47.64886" lon="-2.71695">
        <ele>19.6</ele>
        <time>2020-06-06T11:22:59Z</time>
      </trkpt>
      <trkpt lat="47.64885" lon="-2.71702">
        <ele>19.7</ele>
        <time>2020-06-06T11:23:00Z</time>
      </trkpt>
      <trkpt lat="47.64884" lon="-2.71709">
        <ele>19.7</ele>
        <time>2020-06-06T11:23:01Z</time>
      </trkpt>
      <trkpt lat="47.64883" lon="-2.71714">
        <ele>19.8</ele>
        <time>2020-06-06T11:23:02Z</time>
      </trkpt>
      <trkpt lat="47.64882" lon="-2.7172">
        <ele>19.9</ele>
        <time>2020-06-06T11:23:03Z</time>
      </trkpt>
      <trkpt lat="47.64881" lon="-2.71725">
        <ele>20</ele>
        <time>2020-06-06T11:23:04Z</time>
      </trkpt>
      <trkpt lat="47.64881" lon="-2.7173">
        <ele>20.1</ele>
        <time>2020-06-06T11:23:05Z</time>
      </trkpt>
      <trkpt lat="47.6488" lon="-2.71737">
        <ele>20.2</ele>
        <time>2020-06-06T11:23:06Z</time>
      </trkpt>
      <trkpt lat="47.6488" lon="-2.71742">
        <ele>20.2</ele>
        <time>2020-06-06T11:23:07Z</time>
      </trkpt>
      <trkpt lat="47.64879" lon="-2.71748">
        <ele>20.3</ele>
        <time>2020-06-06T11:23:08Z</time>
      </trkpt>
      <trkpt lat="47.64879" lon="-2.7175">
        <ele>20.3</ele>
        <time>2020-06-06T11:23:09Z</time>
      </trkpt>
      <trkpt lat="47.64879" lon="-2.71754">
        <ele>20.3</ele>
        <time>2020-06-06T11:23:10Z</time>
      </trkpt>
      <trkpt lat="47.64878" lon="-2.71759">
        <ele>20.3</ele>
        <time>2020-06-06T11:23:11Z</time>
      </trkpt>
      <trkpt lat="47.64878" lon="-2.71765">
        <ele>20.3</ele>
        <time>2020-06-06T11:23:12Z</time>
      </trkpt>
      <trkpt lat="47.64877" lon="-2.7177">
        <ele>20.4</ele>
        <time>2020-06-06T11:23:13Z</time>
      </trkpt>
      <trkpt lat="47.64876" lon="-2.71775">
        <ele>20.4</ele>
        <time>2020-06-06T11:23:14Z</time>
      </trkpt>
      <trkpt lat="47.64875" lon="-2.7178">
        <ele>20.4</ele>
        <time>2020-06-06T11:23:15Z</time>
      </trkpt>
      <trkpt lat="47.64875" lon="-2.71785">
        <ele>20.4</ele>
        <time>2020-06-06T11:23:16Z</time>
      </trkpt>
      <trkpt lat="47.64875" lon="-2.71791">
        <ele>20.4</ele>
        <time>2020-06-06T11:23:17Z</time>
      </trkpt>
      <trkpt lat="47.64875" lon="-2.71796">
        <ele>20.4</ele>
        <time>2020-06-06T11:23:18Z</time>
      </trkpt>
      <trkpt lat="47.64875" lon="-2.71801">
        <ele>20.3</ele>
        <time>2020-06-06T11:23:19Z</time>
      </trkpt>
      <trkpt lat="47.64873" lon="-2.71806">
        <ele>20.3</ele>
        <time>2020-06-06T11:23:20Z</time>
      </trkpt>
      <trkpt lat="47.64873" lon="-2.71807">
        <ele>20.3</ele>
        <time>2020-06-06T11:23:21Z</time>
      </trkpt>
      <trkpt lat="47.6487" lon="-2.71808">
        <ele>20.3</ele>
        <time>2020-06-06T11:23:22Z</time>
      </trkpt>
      <trkpt lat="47.64869" lon="-2.71809">
        <ele>20.3</ele>
        <time>2020-06-06T11:23:23Z</time>
      </trkpt>
      <trkpt lat="47.64867" lon="-2.71812">
        <ele>20.2</ele>
        <time>2020-06-06T11:23:24Z</time>
      </trkpt>
      <trkpt lat="47.64864" lon="-2.71814">
        <ele>20.2</ele>
        <time>2020-06-06T11:23:25Z</time>
      </trkpt>
      <trkpt lat="47.64861" lon="-2.71817">
        <ele>20.2</ele>
        <time>2020-06-06T11:23:26Z</time>
      </trkpt>
      <trkpt lat="47.64858" lon="-2.7182">
        <ele>20.1</ele>
        <time>2020-06-06T11:23:27Z</time>
      </trkpt>
      <trkpt lat="47.64855" lon="-2.71822">
        <ele>20.1</ele>
        <time>2020-06-06T11:23:28Z</time>
      </trkpt>
      <trkpt lat="47.64853" lon="-2.71826">
        <ele>20</ele>
        <time>2020-06-06T11:23:29Z</time>
      </trkpt>
      <trkpt lat="47.64852" lon="-2.71828">
        <ele>20</ele>
        <time>2020-06-06T11:23:30Z</time>
      </trkpt>
      <trkpt lat="47.64852" lon="-2.71834">
        <ele>20</ele>
        <time>2020-06-06T11:23:31Z</time>
      </trkpt>
      <trkpt lat="47.64852" lon="-2.71836">
        <ele>20</ele>
        <time>2020-06-06T11:23:32Z</time>
      </trkpt>
      <trkpt lat="47.64854" lon="-2.71841">
        <ele>20</ele>
        <time>2020-06-06T11:23:33Z</time>
      </trkpt>
      <trkpt lat="47.64854" lon="-2.71842">
        <ele>20</ele>
        <time>2020-06-06T11:23:34Z</time>
      </trkpt>
      <trkpt lat="47.64855" lon="-2.71847">
        <ele>20</ele>
        <time>2020-06-06T11:23:35Z</time>
      </trkpt>
      <trkpt lat="47.64855" lon="-2.71849">
        <ele>19.9</ele>
        <time>2020-06-06T11:23:36Z</time>
      </trkpt>
      <trkpt lat="47.64857" lon="-2.71852">
        <ele>19.9</ele>
        <time>2020-06-06T11:23:37Z</time>
      </trkpt>
      <trkpt lat="47.64858" lon="-2.71854">
        <ele>19.9</ele>
        <time>2020-06-06T11:23:38Z</time>
      </trkpt>
      <trkpt lat="47.64859" lon="-2.71858">
        <ele>19.9</ele>
        <time>2020-06-06T11:23:39Z</time>
      </trkpt>
      <trkpt lat="47.6486" lon="-2.71863">
        <ele>19.9</ele>
        <time>2020-06-06T11:23:40Z</time>
      </trkpt>
      <trkpt lat="47.6486" lon="-2.71866">
        <ele>19.9</ele>
        <time>2020-06-06T11:23:41Z</time>
      </trkpt>
      <trkpt lat="47.64861" lon="-2.7187">
        <ele>19.8</ele>
        <time>2020-06-06T11:23:42Z</time>
      </trkpt>
      <trkpt lat="47.64862" lon="-2.71875">
        <ele>19.8</ele>
        <time>2020-06-06T11:23:43Z</time>
      </trkpt>
      <trkpt lat="47.64861" lon="-2.7188">
        <ele>19.8</ele>
        <time>2020-06-06T11:23:44Z</time>
      </trkpt>
      <trkpt lat="47.64861" lon="-2.71885">
        <ele>19.8</ele>
        <time>2020-06-06T11:23:45Z</time>
      </trkpt>
      <trkpt lat="47.64862" lon="-2.71889">
        <ele>19.8</ele>
        <time>2020-06-06T11:23:46Z</time>
      </trkpt>
      <trkpt lat="47.64862" lon="-2.71894">
        <ele>19.8</ele>
        <time>2020-06-06T11:23:47Z</time>
      </trkpt>
      <trkpt lat="47.64862" lon="-2.71898">
        <ele>19.9</ele>
        <time>2020-06-06T11:23:48Z</time>
      </trkpt>
      <trkpt lat="47.64862" lon="-2.719">
        <ele>19.9</ele>
        <time>2020-06-06T11:23:49Z</time>
      </trkpt>
      <trkpt lat="47.64862" lon="-2.719">
        <ele>19.9</ele>
        <time>2020-06-06T11:23:50Z</time>
      </trkpt>
      <trkpt lat="47.64862" lon="-2.719">
        <ele>19.9</ele>
        <time>2020-06-06T11:23:51Z</time>
      </trkpt>
      <trkpt lat="47.64862" lon="-2.719">
        <ele>19.9</ele>
        <time>2020-06-06T11:23:52Z</time>
      </trkpt>
      <trkpt lat="47.64863" lon="-2.71901">
        <ele>19.9</ele>
        <time>2020-06-06T11:23:53Z</time>
      </trkpt>
      <trkpt lat="47.64863" lon="-2.71902">
        <ele>19.9</ele>
        <time>2020-06-06T11:23:54Z</time>
      </trkpt>
      <trkpt lat="47.64863" lon="-2.71902">
        <ele>19.9</ele>
        <time>2020-06-06T11:23:55Z</time>
      </trkpt>
      <trkpt lat="47.64863" lon="-2.71903">
        <ele>19.9</ele>
        <time>2020-06-06T11:23:56Z</time>
      </trkpt>
      <trkpt lat="47.64862" lon="-2.71904">
        <ele>19.9</ele>
        <time>2020-06-06T11:23:57Z</time>
      </trkpt>
      <trkpt lat="47.64861" lon="-2.71905">
        <ele>19.9</ele>
        <time>2020-06-06T11:23:58Z</time>
      </trkpt>
      <trkpt lat="47.6486" lon="-2.71905">
        <ele>19.9</ele>
        <time>2020-06-06T11:23:59Z</time>
      </trkpt>
      <trkpt lat="47.64859" lon="-2.71905">
        <ele>19.9</ele>
        <time>2020-06-06T11:24:00Z</time>
      </trkpt>
      <trkpt lat="47.64856" lon="-2.71906">
        <ele>19.9</ele>
        <time>2020-06-06T11:24:01Z</time>
      </trkpt>
      <trkpt lat="47.64853" lon="-2.71906">
        <ele>19.9</ele>
        <time>2020-06-06T11:24:02Z</time>
      </trkpt>
      <trkpt lat="47.64849" lon="-2.71907">
        <ele>19.9</ele>
        <time>2020-06-06T11:24:03Z</time>
      </trkpt>
      <trkpt lat="47.64844" lon="-2.71907">
        <ele>19.9</ele>
        <time>2020-06-06T11:24:04Z</time>
      </trkpt>
      <trkpt lat="47.6484" lon="-2.71909">
        <ele>19.8</ele>
        <time>2020-06-06T11:24:05Z</time>
      </trkpt>
      <trkpt lat="47.64836" lon="-2.71909">
        <ele>19.8</ele>
        <time>2020-06-06T11:24:06Z</time>
      </trkpt>
      <trkpt lat="47.64832" lon="-2.71909">
        <ele>19.8</ele>
        <time>2020-06-06T11:24:07Z</time>
      </trkpt>
      <trkpt lat="47.64826" lon="-2.71913">
        <ele>19.7</ele>
        <time>2020-06-06T11:24:08Z</time>
      </trkpt>
      <trkpt lat="47.64823" lon="-2.71912">
        <ele>19.7</ele>
        <time>2020-06-06T11:24:09Z</time>
      </trkpt>
      <trkpt lat="47.64818" lon="-2.71912">
        <ele>19.6</ele>
        <time>2020-06-06T11:24:10Z</time>
      </trkpt>
      <trkpt lat="47.64814" lon="-2.71912">
        <ele>19.5</ele>
        <time>2020-06-06T11:24:11Z</time>
      </trkpt>
      <trkpt lat="47.64809" lon="-2.71913">
        <ele>19.5</ele>
        <time>2020-06-06T11:24:12Z</time>
      </trkpt>
      <trkpt lat="47.64804" lon="-2.71913">
        <ele>19.4</ele>
        <time>2020-06-06T11:24:13Z</time>
      </trkpt>
      <trkpt lat="47.648" lon="-2.71913">
        <ele>19.4</ele>
        <time>2020-06-06T11:24:14Z</time>
      </trkpt>
      <trkpt lat="47.64795" lon="-2.71914">
        <ele>19.3</ele>
        <time>2020-06-06T11:24:15Z</time>
      </trkpt>
      <trkpt lat="47.6479" lon="-2.71914">
        <ele>19.3</ele>
        <time>2020-06-06T11:24:16Z</time>
      </trkpt>
      <trkpt lat="47.64786" lon="-2.71914">
        <ele>19.3</ele>
        <time>2020-06-06T11:24:17Z</time>
      </trkpt>
      <trkpt lat="47.64781" lon="-2.71915">
        <ele>19.3</ele>
        <time>2020-06-06T11:24:18Z</time>
      </trkpt>
      <trkpt lat="47.64777" lon="-2.71916">
        <ele>19.2</ele>
        <time>2020-06-06T11:24:19Z</time>
      </trkpt>
      <trkpt lat="47.64772" lon="-2.71918">
        <ele>19.2</ele>
        <time>2020-06-06T11:24:20Z</time>
      </trkpt>
      <trkpt lat="47.64767" lon="-2.71919">
        <ele>19.2</ele>
        <time>2020-06-06T11:24:21Z</time>
      </trkpt>
      <trkpt lat="47.64762" lon="-2.7192">
        <ele>19.1</ele>
        <time>2020-06-06T11:24:22Z</time>
      </trkpt>
      <trkpt lat="47.64757" lon="-2.71919">
        <ele>19.1</ele>
        <time>2020-06-06T11:24:23Z</time>
      </trkpt>
      <trkpt lat="47.64753" lon="-2.71921">
        <ele>19.1</ele>
        <time>2020-06-06T11:24:24Z</time>
      </trkpt>
      <trkpt lat="47.64749" lon="-2.71922">
        <ele>19.1</ele>
        <time>2020-06-06T11:24:25Z</time>
      </trkpt>
      <trkpt lat="47.64745" lon="-2.71925">
        <ele>19.1</ele>
        <time>2020-06-06T11:24:26Z</time>
      </trkpt>
      <trkpt lat="47.64743" lon="-2.71927">
        <ele>19.1</ele>
        <time>2020-06-06T11:24:27Z</time>
      </trkpt>
      <trkpt lat="47.6474" lon="-2.71928">
        <ele>19</ele>
        <time>2020-06-06T11:24:28Z</time>
      </trkpt>
      <trkpt lat="47.64737" lon="-2.71928">
        <ele>19.1</ele>
        <time>2020-06-06T11:24:29Z</time>
      </trkpt>
      <trkpt lat="47.64736" lon="-2.71928">
        <ele>19.1</ele>
        <time>2020-06-06T11:24:30Z</time>
      </trkpt>
      <trkpt lat="47.64733" lon="-2.71929">
        <ele>19.2</ele>
        <time>2020-06-06T11:24:31Z</time>
      </trkpt>
      <trkpt lat="47.6473" lon="-2.7193">
        <ele>19.2</ele>
        <time>2020-06-06T11:24:32Z</time>
      </trkpt>
      <trkpt lat="47.64729" lon="-2.71931">
        <ele>19.2</ele>
        <time>2020-06-06T11:24:33Z</time>
      </trkpt>
      <trkpt lat="47.64727" lon="-2.71932">
        <ele>19.2</ele>
        <time>2020-06-06T11:24:34Z</time>
      </trkpt>
      <trkpt lat="47.64726" lon="-2.71933">
        <ele>19.3</ele>
        <time>2020-06-06T11:24:35Z</time>
      </trkpt>
      <trkpt lat="47.64725" lon="-2.71934">
        <ele>19.3</ele>
        <time>2020-06-06T11:24:36Z</time>
      </trkpt>
      <trkpt lat="47.64724" lon="-2.71935">
        <ele>19.3</ele>
        <time>2020-06-06T11:24:37Z</time>
      </trkpt>
      <trkpt lat="47.6472" lon="-2.71938">
        <ele>19.3</ele>
        <time>2020-06-06T11:24:38Z</time>
      </trkpt>
      <trkpt lat="47.64719" lon="-2.71939">
        <ele>19.3</ele>
        <time>2020-06-06T11:24:39Z</time>
      </trkpt>
      <trkpt lat="47.64715" lon="-2.71942">
        <ele>19.3</ele>
        <time>2020-06-06T11:24:40Z</time>
      </trkpt>
      <trkpt lat="47.64713" lon="-2.71943">
        <ele>19.3</ele>
        <time>2020-06-06T11:24:41Z</time>
      </trkpt>
      <trkpt lat="47.64709" lon="-2.71946">
        <ele>19.3</ele>
        <time>2020-06-06T11:24:42Z</time>
      </trkpt>
      <trkpt lat="47.64706" lon="-2.71949">
        <ele>19.3</ele>
        <time>2020-06-06T11:24:43Z</time>
      </trkpt>
      <trkpt lat="47.64702" lon="-2.71952">
        <ele>19.3</ele>
        <time>2020-06-06T11:24:44Z</time>
      </trkpt>
      <trkpt lat="47.64697" lon="-2.71955">
        <ele>19.3</ele>
        <time>2020-06-06T11:24:45Z</time>
      </trkpt>
      <trkpt lat="47.64694" lon="-2.71957">
        <ele>19.3</ele>
        <time>2020-06-06T11:24:46Z</time>
      </trkpt>
      <trkpt lat="47.6469" lon="-2.71959">
        <ele>19.3</ele>
        <time>2020-06-06T11:24:47Z</time>
      </trkpt>
      <trkpt lat="47.64686" lon="-2.71962">
        <ele>19.3</ele>
        <time>2020-06-06T11:24:48Z</time>
      </trkpt>
      <trkpt lat="47.64683" lon="-2.71964">
        <ele>19.3</ele>
        <time>2020-06-06T11:24:49Z</time>
      </trkpt>
      <trkpt lat="47.64679" lon="-2.71966">
        <ele>19.2</ele>
        <time>2020-06-06T11:24:50Z</time>
      </trkpt>
      <trkpt lat="47.64676" lon="-2.71968">
        <ele>19.2</ele>
        <time>2020-06-06T11:24:51Z</time>
      </trkpt>
      <trkpt lat="47.64672" lon="-2.71971">
        <ele>19.1</ele>
        <time>2020-06-06T11:24:52Z</time>
      </trkpt>
      <trkpt lat="47.64669" lon="-2.71974">
        <ele>19.1</ele>
        <time>2020-06-06T11:24:53Z</time>
      </trkpt>
      <trkpt lat="47.64666" lon="-2.71977">
        <ele>19</ele>
        <time>2020-06-06T11:24:54Z</time>
      </trkpt>
      <trkpt lat="47.64663" lon="-2.71979">
        <ele>19</ele>
        <time>2020-06-06T11:24:55Z</time>
      </trkpt>
      <trkpt lat="47.64661" lon="-2.71981">
        <ele>19</ele>
        <time>2020-06-06T11:24:56Z</time>
      </trkpt>
      <trkpt lat="47.64658" lon="-2.71984">
        <ele>18.9</ele>
        <time>2020-06-06T11:24:57Z</time>
      </trkpt>
      <trkpt lat="47.64657" lon="-2.71985">
        <ele>18.9</ele>
        <time>2020-06-06T11:24:58Z</time>
      </trkpt>
      <trkpt lat="47.64654" lon="-2.71987">
        <ele>18.9</ele>
        <time>2020-06-06T11:24:59Z</time>
      </trkpt>
      <trkpt lat="47.64653" lon="-2.71988">
        <ele>18.9</ele>
        <time>2020-06-06T11:25:00Z</time>
      </trkpt>
      <trkpt lat="47.6465" lon="-2.7199">
        <ele>18.8</ele>
        <time>2020-06-06T11:25:01Z</time>
      </trkpt>
      <trkpt lat="47.64649" lon="-2.71991">
        <ele>18.8</ele>
        <time>2020-06-06T11:25:02Z</time>
      </trkpt>
      <trkpt lat="47.64647" lon="-2.71992">
        <ele>18.8</ele>
        <time>2020-06-06T11:25:03Z</time>
      </trkpt>
      <trkpt lat="47.64643" lon="-2.71995">
        <ele>18.7</ele>
        <time>2020-06-06T11:25:04Z</time>
      </trkpt>
      <trkpt lat="47.64642" lon="-2.71997">
        <ele>18.7</ele>
        <time>2020-06-06T11:25:05Z</time>
      </trkpt>
      <trkpt lat="47.64639" lon="-2.71999">
        <ele>18.7</ele>
        <time>2020-06-06T11:25:06Z</time>
      </trkpt>
      <trkpt lat="47.64635" lon="-2.72002">
        <ele>18.6</ele>
        <time>2020-06-06T11:25:07Z</time>
      </trkpt>
      <trkpt lat="47.64634" lon="-2.72003">
        <ele>18.6</ele>
        <time>2020-06-06T11:25:08Z</time>
      </trkpt>
      <trkpt lat="47.64632" lon="-2.72004">
        <ele>18.6</ele>
        <time>2020-06-06T11:25:09Z</time>
      </trkpt>
      <trkpt lat="47.64631" lon="-2.72005">
        <ele>18.6</ele>
        <time>2020-06-06T11:25:10Z</time>
      </trkpt>
      <trkpt lat="47.6463" lon="-2.72006">
        <ele>18.7</ele>
        <time>2020-06-06T11:25:11Z</time>
      </trkpt>
      <trkpt lat="47.6463" lon="-2.72006">
        <ele>18.7</ele>
        <time>2020-06-06T11:25:12Z</time>
      </trkpt>
      <trkpt lat="47.6463" lon="-2.72006">
        <ele>18.7</ele>
        <time>2020-06-06T11:25:13Z</time>
      </trkpt>
      <trkpt lat="47.6463" lon="-2.72007">
        <ele>18.7</ele>
        <time>2020-06-06T11:25:14Z</time>
      </trkpt>
      <trkpt lat="47.64629" lon="-2.72007">
        <ele>18.7</ele>
        <time>2020-06-06T11:25:15Z</time>
      </trkpt>
      <trkpt lat="47.64629" lon="-2.72007">
        <ele>18.7</ele>
        <time>2020-06-06T11:25:16Z</time>
      </trkpt>
      <trkpt lat="47.64629" lon="-2.72007">
        <ele>18.7</ele>
        <time>2020-06-06T11:25:17Z</time>
      </trkpt>
      <trkpt lat="47.64629" lon="-2.72007">
        <ele>18.7</ele>
        <time>2020-06-06T11:25:18Z</time>
      </trkpt>
      <trkpt lat="47.64629" lon="-2.72007">
        <ele>18.7</ele>
        <time>2020-06-06T11:25:19Z</time>
      </trkpt>
      <trkpt lat="47.64629" lon="-2.72007">
        <ele>18.7</ele>
        <time>2020-06-06T11:25:20Z</time>
      </trkpt>
      <trkpt lat="47.64637" lon="-2.71998">
        <ele>18.8</ele>
        <time>2020-06-06T11:27:40Z</time>
      </trkpt>
      <trkpt lat="47.64639" lon="-2.71997">
        <ele>18.8</ele>
        <time>2020-06-06T11:27:41Z</time>
      </trkpt>
      <trkpt lat="47.64642" lon="-2.71994">
        <ele>18.8</ele>
        <time>2020-06-06T11:27:42Z</time>
      </trkpt>
      <trkpt lat="47.64643" lon="-2.71993">
        <ele>18.9</ele>
        <time>2020-06-06T11:27:43Z</time>
      </trkpt>
      <trkpt lat="47.64646" lon="-2.71992">
        <ele>18.9</ele>
        <time>2020-06-06T11:27:44Z</time>
      </trkpt>
      <trkpt lat="47.64649" lon="-2.7199">
        <ele>18.9</ele>
        <time>2020-06-06T11:27:45Z</time>
      </trkpt>
      <trkpt lat="47.64652" lon="-2.71989">
        <ele>18.9</ele>
        <time>2020-06-06T11:27:46Z</time>
      </trkpt>
      <trkpt lat="47.64655" lon="-2.71985">
        <ele>19</ele>
        <time>2020-06-06T11:27:47Z</time>
      </trkpt>
      <trkpt lat="47.64659" lon="-2.71981">
        <ele>19</ele>
        <time>2020-06-06T11:27:48Z</time>
      </trkpt>
      <trkpt lat="47.64661" lon="-2.71979">
        <ele>19.1</ele>
        <time>2020-06-06T11:27:49Z</time>
      </trkpt>
      <trkpt lat="47.64664" lon="-2.71977">
        <ele>19.1</ele>
        <time>2020-06-06T11:27:50Z</time>
      </trkpt>
      <trkpt lat="47.64667" lon="-2.71976">
        <ele>19.2</ele>
        <time>2020-06-06T11:27:51Z</time>
      </trkpt>
      <trkpt lat="47.6467" lon="-2.71975">
        <ele>19.2</ele>
        <time>2020-06-06T11:27:52Z</time>
      </trkpt>
      <trkpt lat="47.64673" lon="-2.71974">
        <ele>19.2</ele>
        <time>2020-06-06T11:27:53Z</time>
      </trkpt>
      <trkpt lat="47.64675" lon="-2.71972">
        <ele>19.2</ele>
        <time>2020-06-06T11:27:54Z</time>
      </trkpt>
      <trkpt lat="47.64679" lon="-2.7197">
        <ele>19.3</ele>
        <time>2020-06-06T11:27:55Z</time>
      </trkpt>
      <trkpt lat="47.6468" lon="-2.71969">
        <ele>19.3</ele>
        <time>2020-06-06T11:27:56Z</time>
      </trkpt>
      <trkpt lat="47.64683" lon="-2.71967">
        <ele>19.3</ele>
        <time>2020-06-06T11:27:57Z</time>
      </trkpt>
      <trkpt lat="47.64686" lon="-2.71965">
        <ele>19.3</ele>
        <time>2020-06-06T11:27:58Z</time>
      </trkpt>
      <trkpt lat="47.64689" lon="-2.71962">
        <ele>19.3</ele>
        <time>2020-06-06T11:27:59Z</time>
      </trkpt>
      <trkpt lat="47.64692" lon="-2.7196">
        <ele>19.3</ele>
        <time>2020-06-06T11:28:00Z</time>
      </trkpt>
      <trkpt lat="47.64695" lon="-2.71957">
        <ele>19.3</ele>
        <time>2020-06-06T11:28:01Z</time>
      </trkpt>
      <trkpt lat="47.64698" lon="-2.71954">
        <ele>19.3</ele>
        <time>2020-06-06T11:28:02Z</time>
      </trkpt>
      <trkpt lat="47.64702" lon="-2.71952">
        <ele>19.3</ele>
        <time>2020-06-06T11:28:03Z</time>
      </trkpt>
      <trkpt lat="47.64705" lon="-2.71951">
        <ele>19.3</ele>
        <time>2020-06-06T11:28:04Z</time>
      </trkpt>
      <trkpt lat="47.64708" lon="-2.71948">
        <ele>19.3</ele>
        <time>2020-06-06T11:28:05Z</time>
      </trkpt>
      <trkpt lat="47.64712" lon="-2.71945">
        <ele>19.3</ele>
        <time>2020-06-06T11:28:06Z</time>
      </trkpt>
      <trkpt lat="47.64715" lon="-2.71943">
        <ele>19.3</ele>
        <time>2020-06-06T11:28:07Z</time>
      </trkpt>
      <trkpt lat="47.64718" lon="-2.71941">
        <ele>19.3</ele>
        <time>2020-06-06T11:28:08Z</time>
      </trkpt>
      <trkpt lat="47.64721" lon="-2.71939">
        <ele>19.3</ele>
        <time>2020-06-06T11:28:09Z</time>
      </trkpt>
      <trkpt lat="47.64724" lon="-2.71938">
        <ele>19.3</ele>
        <time>2020-06-06T11:28:10Z</time>
      </trkpt>
      <trkpt lat="47.64727" lon="-2.71937">
        <ele>19.2</ele>
        <time>2020-06-06T11:28:11Z</time>
      </trkpt>
      <trkpt lat="47.6473" lon="-2.71937">
        <ele>19.2</ele>
        <time>2020-06-06T11:28:12Z</time>
      </trkpt>
      <trkpt lat="47.64732" lon="-2.71936">
        <ele>19.2</ele>
        <time>2020-06-06T11:28:13Z</time>
      </trkpt>
      <trkpt lat="47.64735" lon="-2.71936">
        <ele>19.1</ele>
        <time>2020-06-06T11:28:14Z</time>
      </trkpt>
      <trkpt lat="47.6474" lon="-2.71935">
        <ele>19</ele>
        <time>2020-06-06T11:28:15Z</time>
      </trkpt>
      <trkpt lat="47.64744" lon="-2.71933">
        <ele>19.1</ele>
        <time>2020-06-06T11:28:16Z</time>
      </trkpt>
      <trkpt lat="47.6475" lon="-2.7193">
        <ele>19.1</ele>
        <time>2020-06-06T11:28:17Z</time>
      </trkpt>
      <trkpt lat="47.64752" lon="-2.71927">
        <ele>19.1</ele>
        <time>2020-06-06T11:28:18Z</time>
      </trkpt>
      <trkpt lat="47.64757" lon="-2.71925">
        <ele>19.1</ele>
        <time>2020-06-06T11:28:19Z</time>
      </trkpt>
      <trkpt lat="47.64761" lon="-2.71922">
        <ele>19.1</ele>
        <time>2020-06-06T11:28:20Z</time>
      </trkpt>
      <trkpt lat="47.64766" lon="-2.71921">
        <ele>19.2</ele>
        <time>2020-06-06T11:28:21Z</time>
      </trkpt>
      <trkpt lat="47.64771" lon="-2.71921">
        <ele>19.2</ele>
        <time>2020-06-06T11:28:22Z</time>
      </trkpt>
      <trkpt lat="47.64776" lon="-2.71919">
        <ele>19.2</ele>
        <time>2020-06-06T11:28:23Z</time>
      </trkpt>
      <trkpt lat="47.64781" lon="-2.71919">
        <ele>19.2</ele>
        <time>2020-06-06T11:28:24Z</time>
      </trkpt>
      <trkpt lat="47.64785" lon="-2.71918">
        <ele>19.3</ele>
        <time>2020-06-06T11:28:25Z</time>
      </trkpt>
      <trkpt lat="47.6479" lon="-2.71917">
        <ele>19.3</ele>
        <time>2020-06-06T11:28:26Z</time>
      </trkpt>
      <trkpt lat="47.64795" lon="-2.71916">
        <ele>19.3</ele>
        <time>2020-06-06T11:28:27Z</time>
      </trkpt>
      <trkpt lat="47.648" lon="-2.71916">
        <ele>19.4</ele>
        <time>2020-06-06T11:28:28Z</time>
      </trkpt>
      <trkpt lat="47.64804" lon="-2.71916">
        <ele>19.4</ele>
        <time>2020-06-06T11:28:29Z</time>
      </trkpt>
      <trkpt lat="47.64807" lon="-2.71915">
        <ele>19.5</ele>
        <time>2020-06-06T11:28:30Z</time>
      </trkpt>
      <trkpt lat="47.64812" lon="-2.71914">
        <ele>19.5</ele>
        <time>2020-06-06T11:28:31Z</time>
      </trkpt>
      <trkpt lat="47.64817" lon="-2.71913">
        <ele>19.6</ele>
        <time>2020-06-06T11:28:32Z</time>
      </trkpt>
      <trkpt lat="47.64822" lon="-2.71912">
        <ele>19.7</ele>
        <time>2020-06-06T11:28:33Z</time>
      </trkpt>
      <trkpt lat="47.64827" lon="-2.71911">
        <ele>19.7</ele>
        <time>2020-06-06T11:28:34Z</time>
      </trkpt>
      <trkpt lat="47.64831" lon="-2.71911">
        <ele>19.8</ele>
        <time>2020-06-06T11:28:35Z</time>
      </trkpt>
      <trkpt lat="47.64836" lon="-2.71911">
        <ele>19.8</ele>
        <time>2020-06-06T11:28:36Z</time>
      </trkpt>
      <trkpt lat="47.64839" lon="-2.71911">
        <ele>19.8</ele>
        <time>2020-06-06T11:28:37Z</time>
      </trkpt>
      <trkpt lat="47.64843" lon="-2.71911">
        <ele>19.9</ele>
        <time>2020-06-06T11:28:38Z</time>
      </trkpt>
      <trkpt lat="47.64847" lon="-2.71909">
        <ele>19.9</ele>
        <time>2020-06-06T11:28:39Z</time>
      </trkpt>
      <trkpt lat="47.64852" lon="-2.71908">
        <ele>19.9</ele>
        <time>2020-06-06T11:28:40Z</time>
      </trkpt>
      <trkpt lat="47.64856" lon="-2.71906">
        <ele>19.9</ele>
        <time>2020-06-06T11:28:41Z</time>
      </trkpt>
      <trkpt lat="47.64861" lon="-2.71906">
        <ele>19.9</ele>
        <time>2020-06-06T11:28:42Z</time>
      </trkpt>
      <trkpt lat="47.64865" lon="-2.71905">
        <ele>19.6</ele>
        <time>2020-06-06T11:28:43Z</time>
      </trkpt>
      <trkpt lat="47.6487" lon="-2.71906">
        <ele>19.3</ele>
        <time>2020-06-06T11:28:44Z</time>
      </trkpt>
      <trkpt lat="47.64874" lon="-2.71907">
        <ele>19.1</ele>
        <time>2020-06-06T11:28:45Z</time>
      </trkpt>
      <trkpt lat="47.64879" lon="-2.71905">
        <ele>18.7</ele>
        <time>2020-06-06T11:28:46Z</time>
      </trkpt>
      <trkpt lat="47.64883" lon="-2.71903">
        <ele>18.4</ele>
        <time>2020-06-06T11:28:47Z</time>
      </trkpt>
      <trkpt lat="47.64887" lon="-2.71901">
        <ele>18.2</ele>
        <time>2020-06-06T11:28:48Z</time>
      </trkpt>
      <trkpt lat="47.64891" lon="-2.719">
        <ele>17.9</ele>
        <time>2020-06-06T11:28:49Z</time>
      </trkpt>
      <trkpt lat="47.64895" lon="-2.71899">
        <ele>17.6</ele>
        <time>2020-06-06T11:28:50Z</time>
      </trkpt>
      <trkpt lat="47.64899" lon="-2.71899">
        <ele>17.3</ele>
        <time>2020-06-06T11:28:51Z</time>
      </trkpt>
      <trkpt lat="47.64903" lon="-2.71898">
        <ele>17</ele>
        <time>2020-06-06T11:28:52Z</time>
      </trkpt>
      <trkpt lat="47.64908" lon="-2.71896">
        <ele>16.8</ele>
        <time>2020-06-06T11:28:53Z</time>
      </trkpt>
      <trkpt lat="47.64911" lon="-2.71897">
        <ele>16.6</ele>
        <time>2020-06-06T11:28:54Z</time>
      </trkpt>
      <trkpt lat="47.64915" lon="-2.71897">
        <ele>16.6</ele>
        <time>2020-06-06T11:28:55Z</time>
      </trkpt>
      <trkpt lat="47.64919" lon="-2.71897">
        <ele>16.5</ele>
        <time>2020-06-06T11:28:56Z</time>
      </trkpt>
      <trkpt lat="47.64924" lon="-2.71896">
        <ele>16.4</ele>
        <time>2020-06-06T11:28:57Z</time>
      </trkpt>
      <trkpt lat="47.64929" lon="-2.71896">
        <ele>16.3</ele>
        <time>2020-06-06T11:28:58Z</time>
      </trkpt>
      <trkpt lat="47.64934" lon="-2.71894">
        <ele>16.2</ele>
        <time>2020-06-06T11:28:59Z</time>
      </trkpt>
      <trkpt lat="47.64939" lon="-2.71893">
        <ele>16.2</ele>
        <time>2020-06-06T11:29:00Z</time>
      </trkpt>
      <trkpt lat="47.64944" lon="-2.71891">
        <ele>16.1</ele>
        <time>2020-06-06T11:29:01Z</time>
      </trkpt>
      <trkpt lat="47.64948" lon="-2.71891">
        <ele>16</ele>
        <time>2020-06-06T11:29:02Z</time>
      </trkpt>
      <trkpt lat="47.64953" lon="-2.7189">
        <ele>15.9</ele>
        <time>2020-06-06T11:29:03Z</time>
      </trkpt>
      <trkpt lat="47.64958" lon="-2.7189">
        <ele>15.8</ele>
        <time>2020-06-06T11:29:04Z</time>
      </trkpt>
      <trkpt lat="47.64962" lon="-2.71889">
        <ele>15.7</ele>
        <time>2020-06-06T11:29:05Z</time>
      </trkpt>
      <trkpt lat="47.64968" lon="-2.71888">
        <ele>15.6</ele>
        <time>2020-06-06T11:29:06Z</time>
      </trkpt>
      <trkpt lat="47.64972" lon="-2.71886">
        <ele>15.6</ele>
        <time>2020-06-06T11:29:07Z</time>
      </trkpt>
      <trkpt lat="47.64977" lon="-2.71885">
        <ele>15.6</ele>
        <time>2020-06-06T11:29:08Z</time>
      </trkpt>
      <trkpt lat="47.64981" lon="-2.71885">
        <ele>15.6</ele>
        <time>2020-06-06T11:29:09Z</time>
      </trkpt>
      <trkpt lat="47.64985" lon="-2.71884">
        <ele>15.5</ele>
        <time>2020-06-06T11:29:10Z</time>
      </trkpt>
      <trkpt lat="47.64988" lon="-2.71884">
        <ele>15.5</ele>
        <time>2020-06-06T11:29:11Z</time>
      </trkpt>
      <trkpt lat="47.6499" lon="-2.71884">
        <ele>15.5</ele>
        <time>2020-06-06T11:29:12Z</time>
      </trkpt>
      <trkpt lat="47.64991" lon="-2.71883">
        <ele>15.5</ele>
        <time>2020-06-06T11:29:13Z</time>
      </trkpt>
      <trkpt lat="47.64993" lon="-2.71884">
        <ele>15.5</ele>
        <time>2020-06-06T11:29:14Z</time>
      </trkpt>
      <trkpt lat="47.64994" lon="-2.71883">
        <ele>15.5</ele>
        <time>2020-06-06T11:29:15Z</time>
      </trkpt>
      <trkpt lat="47.64994" lon="-2.71884">
        <ele>15.5</ele>
        <time>2020-06-06T11:29:16Z</time>
      </trkpt>
      <trkpt lat="47.64993" lon="-2.71884">
        <ele>15.5</ele>
        <time>2020-06-06T11:29:17Z</time>
      </trkpt>
      <trkpt lat="47.64993" lon="-2.71884">
        <ele>15.5</ele>
        <time>2020-06-06T11:29:18Z</time>
      </trkpt>
      <trkpt lat="47.64993" lon="-2.71885">
        <ele>15.5</ele>
        <time>2020-06-06T11:29:19Z</time>
      </trkpt>
      <trkpt lat="47.64992" lon="-2.71885">
        <ele>15.5</ele>
        <time>2020-06-06T11:29:20Z</time>
      </trkpt>
      <trkpt lat="47.64992" lon="-2.71885">
        <ele>15.5</ele>
        <time>2020-06-06T11:29:21Z</time>
      </trkpt>
      <trkpt lat="47.64992" lon="-2.71885">
        <ele>15.5</ele>
        <time>2020-06-06T11:29:22Z</time>
      </trkpt>
      <trkpt lat="47.64992" lon="-2.71885">
        <ele>15.5</ele>
        <time>2020-06-06T11:29:23Z</time>
      </trkpt>
      <trkpt lat="47.64992" lon="-2.71885">
        <ele>15.5</ele>
        <time>2020-06-06T11:29:24Z</time>
      </trkpt>
      <trkpt lat="47.64992" lon="-2.71885">
        <ele>15.5</ele>
        <time>2020-06-06T11:29:25Z</time>
      </trkpt>
      <trkpt lat="47.64992" lon="-2.71885">
        <ele>15.5</ele>
        <time>2020-06-06T11:29:26Z</time>
      </trkpt>
      <trkpt lat="47.65527" lon="-2.75556">
        <ele>11.8</ele>
        <time>2020-06-06T12:49:08Z</time>
      </trkpt>
      <trkpt lat="47.65524" lon="-2.75561">
        <ele>11.9</ele>
        <time>2020-06-06T12:49:10Z</time>
      </trkpt>
      <trkpt lat="47.65522" lon="-2.75564">
        <ele>12</ele>
        <time>2020-06-06T12:49:12Z</time>
      </trkpt>
      <trkpt lat="47.6552" lon="-2.75567">
        <ele>12</ele>
        <time>2020-06-06T12:49:13Z</time>
      </trkpt>
      <trkpt lat="47.65518" lon="-2.75569">
        <ele>12.1</ele>
        <time>2020-06-06T12:49:14Z</time>
      </trkpt>
      <trkpt lat="47.65514" lon="-2.75573">
        <ele>12.2</ele>
        <time>2020-06-06T12:49:15Z</time>
      </trkpt>
      <trkpt lat="47.65512" lon="-2.75577">
        <ele>12.3</ele>
        <time>2020-06-06T12:49:16Z</time>
      </trkpt>
      <trkpt lat="47.65511" lon="-2.75579">
        <ele>12.3</ele>
        <time>2020-06-06T12:49:17Z</time>
      </trkpt>
      <trkpt lat="47.65508" lon="-2.75583">
        <ele>12.4</ele>
        <time>2020-06-06T12:49:18Z</time>
      </trkpt>
      <trkpt lat="47.65505" lon="-2.75587">
        <ele>12.3</ele>
        <time>2020-06-06T12:49:19Z</time>
      </trkpt>
      <trkpt lat="47.65502" lon="-2.75593">
        <ele>12.2</ele>
        <time>2020-06-06T12:49:20Z</time>
      </trkpt>
      <trkpt lat="47.65499" lon="-2.75598">
        <ele>12.2</ele>
        <time>2020-06-06T12:49:21Z</time>
      </trkpt>
      <trkpt lat="47.65497" lon="-2.75604">
        <ele>12.1</ele>
        <time>2020-06-06T12:49:22Z</time>
      </trkpt>
      <trkpt lat="47.65495" lon="-2.75608">
        <ele>12</ele>
        <time>2020-06-06T12:49:23Z</time>
      </trkpt>
      <trkpt lat="47.65492" lon="-2.75612">
        <ele>11.9</ele>
        <time>2020-06-06T12:49:24Z</time>
      </trkpt>
      <trkpt lat="47.6549" lon="-2.75618">
        <ele>11.8</ele>
        <time>2020-06-06T12:49:25Z</time>
      </trkpt>
      <trkpt lat="47.65488" lon="-2.75622">
        <ele>11.6</ele>
        <time>2020-06-06T12:49:26Z</time>
      </trkpt>
      <trkpt lat="47.65485" lon="-2.75628">
        <ele>11.5</ele>
        <time>2020-06-06T12:49:27Z</time>
      </trkpt>
      <trkpt lat="47.65483" lon="-2.75634">
        <ele>11.3</ele>
        <time>2020-06-06T12:49:28Z</time>
      </trkpt>
      <trkpt lat="47.6548" lon="-2.75642">
        <ele>11.1</ele>
        <time>2020-06-06T12:49:29Z</time>
      </trkpt>
      <trkpt lat="47.65478" lon="-2.75648">
        <ele>10.8</ele>
        <time>2020-06-06T12:49:30Z</time>
      </trkpt>
      <trkpt lat="47.65474" lon="-2.75656">
        <ele>10.6</ele>
        <time>2020-06-06T12:49:31Z</time>
      </trkpt>
      <trkpt lat="47.65471" lon="-2.75664">
        <ele>10.3</ele>
        <time>2020-06-06T12:49:32Z</time>
      </trkpt>
      <trkpt lat="47.65467" lon="-2.75671">
        <ele>10</ele>
        <time>2020-06-06T12:49:33Z</time>
      </trkpt>
      <trkpt lat="47.65464" lon="-2.75678">
        <ele>9.7</ele>
        <time>2020-06-06T12:49:34Z</time>
      </trkpt>
      <trkpt lat="47.6546" lon="-2.75685">
        <ele>9.5</ele>
        <time>2020-06-06T12:49:35Z</time>
      </trkpt>
      <trkpt lat="47.65457" lon="-2.75695">
        <ele>9.1</ele>
        <time>2020-06-06T12:49:36Z</time>
      </trkpt>
      <trkpt lat="47.65455" lon="-2.75704">
        <ele>8.8</ele>
        <time>2020-06-06T12:49:37Z</time>
      </trkpt>
      <trkpt lat="47.65452" lon="-2.75711">
        <ele>8.6</ele>
        <time>2020-06-06T12:49:38Z</time>
      </trkpt>
      <trkpt lat="47.65449" lon="-2.75719">
        <ele>8.3</ele>
        <time>2020-06-06T12:49:39Z</time>
      </trkpt>
      <trkpt lat="47.65447" lon="-2.75725">
        <ele>8.1</ele>
        <time>2020-06-06T12:49:40Z</time>
      </trkpt>
      <trkpt lat="47.65444" lon="-2.7573">
        <ele>7.9</ele>
        <time>2020-06-06T12:49:41Z</time>
      </trkpt>
      <trkpt lat="47.65441" lon="-2.75735">
        <ele>7.7</ele>
        <time>2020-06-06T12:49:42Z</time>
      </trkpt>
      <trkpt lat="47.65439" lon="-2.7574">
        <ele>7.5</ele>
        <time>2020-06-06T12:49:43Z</time>
      </trkpt>
      <trkpt lat="47.65435" lon="-2.75743">
        <ele>7.4</ele>
        <time>2020-06-06T12:49:44Z</time>
      </trkpt>
      <trkpt lat="47.65433" lon="-2.75748">
        <ele>7.2</ele>
        <time>2020-06-06T12:49:45Z</time>
      </trkpt>
      <trkpt lat="47.65433" lon="-2.75753">
        <ele>7.1</ele>
        <time>2020-06-06T12:49:46Z</time>
      </trkpt>
      <trkpt lat="47.65431" lon="-2.75758">
        <ele>7</ele>
        <time>2020-06-06T12:49:47Z</time>
      </trkpt>
      <trkpt lat="47.65429" lon="-2.75765">
        <ele>6.8</ele>
        <time>2020-06-06T12:49:48Z</time>
      </trkpt>
      <trkpt lat="47.65428" lon="-2.75772">
        <ele>6.6</ele>
        <time>2020-06-06T12:49:49Z</time>
      </trkpt>
      <trkpt lat="47.65426" lon="-2.75778">
        <ele>6.2</ele>
        <time>2020-06-06T12:49:50Z</time>
      </trkpt>
      <trkpt lat="47.65426" lon="-2.75785">
        <ele>6.1</ele>
        <time>2020-06-06T12:49:51Z</time>
      </trkpt>
      <trkpt lat="47.65425" lon="-2.75794">
        <ele>6</ele>
        <time>2020-06-06T12:49:52Z</time>
      </trkpt>
      <trkpt lat="47.65424" lon="-2.75802">
        <ele>6.1</ele>
        <time>2020-06-06T12:49:53Z</time>
      </trkpt>
      <trkpt lat="47.65423" lon="-2.75809">
        <ele>6.1</ele>
        <time>2020-06-06T12:49:54Z</time>
      </trkpt>
      <trkpt lat="47.65424" lon="-2.75818">
        <ele>6</ele>
        <time>2020-06-06T12:49:55Z</time>
      </trkpt>
      <trkpt lat="47.65423" lon="-2.75826">
        <ele>5.8</ele>
        <time>2020-06-06T12:49:56Z</time>
      </trkpt>
      <trkpt lat="47.65423" lon="-2.75833">
        <ele>5.7</ele>
        <time>2020-06-06T12:49:57Z</time>
      </trkpt>
      <trkpt lat="47.65422" lon="-2.7584">
        <ele>5.6</ele>
        <time>2020-06-06T12:49:58Z</time>
      </trkpt>
      <trkpt lat="47.6542" lon="-2.75846">
        <ele>5.6</ele>
        <time>2020-06-06T12:49:59Z</time>
      </trkpt>
      <trkpt lat="47.65417" lon="-2.75852">
        <ele>5.5</ele>
        <time>2020-06-06T12:50:00Z</time>
      </trkpt>
      <trkpt lat="47.65415" lon="-2.75856">
        <ele>5.4</ele>
        <time>2020-06-06T12:50:01Z</time>
      </trkpt>
      <trkpt lat="47.65411" lon="-2.75862">
        <ele>5.3</ele>
        <time>2020-06-06T12:50:02Z</time>
      </trkpt>
      <trkpt lat="47.65408" lon="-2.75867">
        <ele>5.3</ele>
        <time>2020-06-06T12:50:03Z</time>
      </trkpt>
      <trkpt lat="47.65405" lon="-2.75871">
        <ele>5.3</ele>
        <time>2020-06-06T12:50:04Z</time>
      </trkpt>
      <trkpt lat="47.65401" lon="-2.75877">
        <ele>5.3</ele>
        <time>2020-06-06T12:50:05Z</time>
      </trkpt>
      <trkpt lat="47.65397" lon="-2.75881">
        <ele>5.3</ele>
        <time>2020-06-06T12:50:06Z</time>
      </trkpt>
      <trkpt lat="47.65393" lon="-2.75885">
        <ele>5.3</ele>
        <time>2020-06-06T12:50:07Z</time>
      </trkpt>
      <trkpt lat="47.65391" lon="-2.75888">
        <ele>5.4</ele>
        <time>2020-06-06T12:50:08Z</time>
      </trkpt>
      <trkpt lat="47.65388" lon="-2.75892">
        <ele>5.5</ele>
        <time>2020-06-06T12:50:09Z</time>
      </trkpt>
      <trkpt lat="47.65386" lon="-2.75895">
        <ele>5.5</ele>
        <time>2020-06-06T12:50:10Z</time>
      </trkpt>
      <trkpt lat="47.65383" lon="-2.75899">
        <ele>5.6</ele>
        <time>2020-06-06T12:50:11Z</time>
      </trkpt>
      <trkpt lat="47.6538" lon="-2.759">
        <ele>5.7</ele>
        <time>2020-06-06T12:50:12Z</time>
      </trkpt>
      <trkpt lat="47.65377" lon="-2.75902">
        <ele>5.7</ele>
        <time>2020-06-06T12:50:13Z</time>
      </trkpt>
      <trkpt lat="47.65374" lon="-2.75905">
        <ele>5.8</ele>
        <time>2020-06-06T12:50:14Z</time>
      </trkpt>
      <trkpt lat="47.65373" lon="-2.75906">
        <ele>5.8</ele>
        <time>2020-06-06T12:50:15Z</time>
      </trkpt>
      <trkpt lat="47.65372" lon="-2.75908">
        <ele>5.8</ele>
        <time>2020-06-06T12:50:16Z</time>
      </trkpt>
      <trkpt lat="47.65372" lon="-2.7591">
        <ele>5.9</ele>
        <time>2020-06-06T12:50:17Z</time>
      </trkpt>
      <trkpt lat="47.65371" lon="-2.7591">
        <ele>5.9</ele>
        <time>2020-06-06T12:50:18Z</time>
      </trkpt>
      <trkpt lat="47.6537" lon="-2.75914">
        <ele>6</ele>
        <time>2020-06-06T12:50:19Z</time>
      </trkpt>
      <trkpt lat="47.65369" lon="-2.75915">
        <ele>6</ele>
        <time>2020-06-06T12:50:20Z</time>
      </trkpt>
      <trkpt lat="47.65368" lon="-2.75919">
        <ele>6.2</ele>
        <time>2020-06-06T12:50:21Z</time>
      </trkpt>
      <trkpt lat="47.65366" lon="-2.75924">
        <ele>6.2</ele>
        <time>2020-06-06T12:50:22Z</time>
      </trkpt>
      <trkpt lat="47.65366" lon="-2.75925">
        <ele>6.2</ele>
        <time>2020-06-06T12:50:23Z</time>
      </trkpt>
      <trkpt lat="47.65365" lon="-2.75929">
        <ele>6.3</ele>
        <time>2020-06-06T12:50:24Z</time>
      </trkpt>
      <trkpt lat="47.65364" lon="-2.75931">
        <ele>6.3</ele>
        <time>2020-06-06T12:50:25Z</time>
      </trkpt>
      <trkpt lat="47.65364" lon="-2.75933">
        <ele>6.3</ele>
        <time>2020-06-06T12:50:26Z</time>
      </trkpt>
      <trkpt lat="47.65362" lon="-2.75938">
        <ele>6.3</ele>
        <time>2020-06-06T12:50:27Z</time>
      </trkpt>
      <trkpt lat="47.65359" lon="-2.75942">
        <ele>6.3</ele>
        <time>2020-06-06T12:50:28Z</time>
      </trkpt>
      <trkpt lat="47.65357" lon="-2.75945">
        <ele>6.3</ele>
        <time>2020-06-06T12:50:29Z</time>
      </trkpt>
      <trkpt lat="47.65353" lon="-2.75948">
        <ele>6.3</ele>
        <time>2020-06-06T12:50:30Z</time>
      </trkpt>
      <trkpt lat="47.65349" lon="-2.75947">
        <ele>6.3</ele>
        <time>2020-06-06T12:50:31Z</time>
      </trkpt>
      <trkpt lat="47.65344" lon="-2.75946">
        <ele>6.2</ele>
        <time>2020-06-06T12:50:32Z</time>
      </trkpt>
      <trkpt lat="47.65339" lon="-2.75946">
        <ele>6.1</ele>
        <time>2020-06-06T12:50:33Z</time>
      </trkpt>
      <trkpt lat="47.65334" lon="-2.75946">
        <ele>6</ele>
        <time>2020-06-06T12:50:34Z</time>
      </trkpt>
      <trkpt lat="47.65327" lon="-2.75944">
        <ele>5.6</ele>
        <time>2020-06-06T12:50:35Z</time>
      </trkpt>
      <trkpt lat="47.65322" lon="-2.75944">
        <ele>5.5</ele>
        <time>2020-06-06T12:50:36Z</time>
      </trkpt>
      <trkpt lat="47.65318" lon="-2.7594">
        <ele>5.5</ele>
        <time>2020-06-06T12:50:37Z</time>
      </trkpt>
      <trkpt lat="47.65314" lon="-2.7594">
        <ele>5.4</ele>
        <time>2020-06-06T12:50:38Z</time>
      </trkpt>
      <trkpt lat="47.65313" lon="-2.7594">
        <ele>5.4</ele>
        <time>2020-06-06T12:50:39Z</time>
      </trkpt>
      <trkpt lat="47.65312" lon="-2.7594">
        <ele>5.4</ele>
        <time>2020-06-06T12:50:40Z</time>
      </trkpt>
      <trkpt lat="47.6531" lon="-2.75939">
        <ele>5.3</ele>
        <time>2020-06-06T12:50:41Z</time>
      </trkpt>
      <trkpt lat="47.65309" lon="-2.7594">
        <ele>5.3</ele>
        <time>2020-06-06T12:50:42Z</time>
      </trkpt>
      <trkpt lat="47.65309" lon="-2.75938">
        <ele>5.3</ele>
        <time>2020-06-06T12:50:43Z</time>
      </trkpt>
      <trkpt lat="47.6531" lon="-2.75939">
        <ele>5.3</ele>
        <time>2020-06-06T12:50:44Z</time>
      </trkpt>
      <trkpt lat="47.65311" lon="-2.7594">
        <ele>5.3</ele>
        <time>2020-06-06T12:50:45Z</time>
      </trkpt>
      <trkpt lat="47.65311" lon="-2.7594">
        <ele>5.2</ele>
        <time>2020-06-06T12:50:46Z</time>
      </trkpt>
      <trkpt lat="47.65313" lon="-2.75942">
        <ele>5.2</ele>
        <time>2020-06-06T12:50:47Z</time>
      </trkpt>
      <trkpt lat="47.65311" lon="-2.7594">
        <ele>5.2</ele>
        <time>2020-06-06T12:50:48Z</time>
      </trkpt>
      <trkpt lat="47.6531" lon="-2.7594">
        <ele>5.2</ele>
        <time>2020-06-06T12:50:49Z</time>
      </trkpt>
      <trkpt lat="47.65309" lon="-2.75939">
        <ele>5.2</ele>
        <time>2020-06-06T12:50:50Z</time>
      </trkpt>
      <trkpt lat="47.65308" lon="-2.75939">
        <ele>5.1</ele>
        <time>2020-06-06T12:50:51Z</time>
      </trkpt>
      <trkpt lat="47.65307" lon="-2.75938">
        <ele>5.1</ele>
        <time>2020-06-06T12:50:52Z</time>
      </trkpt>
      <trkpt lat="47.65306" lon="-2.75937">
        <ele>5.1</ele>
        <time>2020-06-06T12:50:53Z</time>
      </trkpt>
      <trkpt lat="47.65306" lon="-2.75937">
        <ele>5.1</ele>
        <time>2020-06-06T12:50:54Z</time>
      </trkpt>
      <trkpt lat="47.65305" lon="-2.75936">
        <ele>5.1</ele>
        <time>2020-06-06T12:50:55Z</time>
      </trkpt>
      <trkpt lat="47.65304" lon="-2.75936">
        <ele>5.1</ele>
        <time>2020-06-06T12:50:56Z</time>
      </trkpt>
      <trkpt lat="47.65303" lon="-2.75935">
        <ele>5</ele>
        <time>2020-06-06T12:50:57Z</time>
      </trkpt>
      <trkpt lat="47.65302" lon="-2.75935">
        <ele>5</ele>
        <time>2020-06-06T12:50:58Z</time>
      </trkpt>
      <trkpt lat="47.65301" lon="-2.75934">
        <ele>5</ele>
        <time>2020-06-06T12:51:25Z</time>
      </trkpt>
      <trkpt lat="47.653" lon="-2.75933">
        <ele>5</ele>
        <time>2020-06-06T12:51:26Z</time>
      </trkpt>
      <trkpt lat="47.65297" lon="-2.75931">
        <ele>4.9</ele>
        <time>2020-06-06T12:51:27Z</time>
      </trkpt>
      <trkpt lat="47.65293" lon="-2.75928">
        <ele>4.8</ele>
        <time>2020-06-06T12:51:28Z</time>
      </trkpt>
      <trkpt lat="47.65289" lon="-2.75925">
        <ele>4.7</ele>
        <time>2020-06-06T12:51:29Z</time>
      </trkpt>
      <trkpt lat="47.65286" lon="-2.75923">
        <ele>4.7</ele>
        <time>2020-06-06T12:51:30Z</time>
      </trkpt>
      <trkpt lat="47.65282" lon="-2.75922">
        <ele>4.6</ele>
        <time>2020-06-06T12:51:31Z</time>
      </trkpt>
      <trkpt lat="47.65277" lon="-2.7592">
        <ele>4.5</ele>
        <time>2020-06-06T12:51:32Z</time>
      </trkpt>
      <trkpt lat="47.65272" lon="-2.7592">
        <ele>4.6</ele>
        <time>2020-06-06T12:51:33Z</time>
      </trkpt>
      <trkpt lat="47.65268" lon="-2.75919">
        <ele>4.7</ele>
        <time>2020-06-06T12:51:34Z</time>
      </trkpt>
      <trkpt lat="47.65263" lon="-2.75919">
        <ele>4.8</ele>
        <time>2020-06-06T12:51:35Z</time>
      </trkpt>
      <trkpt lat="47.65258" lon="-2.75919">
        <ele>4.9</ele>
        <time>2020-06-06T12:51:36Z</time>
      </trkpt>
      <trkpt lat="47.65253" lon="-2.7592">
        <ele>5</ele>
        <time>2020-06-06T12:51:37Z</time>
      </trkpt>
      <trkpt lat="47.65248" lon="-2.75924">
        <ele>5</ele>
        <time>2020-06-06T12:51:38Z</time>
      </trkpt>
      <trkpt lat="47.65243" lon="-2.75923">
        <ele>4.9</ele>
        <time>2020-06-06T12:51:39Z</time>
      </trkpt>
      <trkpt lat="47.65239" lon="-2.75923">
        <ele>4.8</ele>
        <time>2020-06-06T12:51:40Z</time>
      </trkpt>
      <trkpt lat="47.65235" lon="-2.75926">
        <ele>4.7</ele>
        <time>2020-06-06T12:51:41Z</time>
      </trkpt>
      <trkpt lat="47.65231" lon="-2.75932">
        <ele>4.8</ele>
        <time>2020-06-06T12:51:42Z</time>
      </trkpt>
      <trkpt lat="47.65227" lon="-2.75932">
        <ele>4.9</ele>
        <time>2020-06-06T12:51:43Z</time>
      </trkpt>
      <trkpt lat="47.65222" lon="-2.75935">
        <ele>5.1</ele>
        <time>2020-06-06T12:51:44Z</time>
      </trkpt>
      <trkpt lat="47.65218" lon="-2.75939">
        <ele>5</ele>
        <time>2020-06-06T12:51:45Z</time>
      </trkpt>
      <trkpt lat="47.65213" lon="-2.75942">
        <ele>5</ele>
        <time>2020-06-06T12:51:46Z</time>
      </trkpt>
      <trkpt lat="47.65208" lon="-2.75945">
        <ele>4.9</ele>
        <time>2020-06-06T12:51:47Z</time>
      </trkpt>
      <trkpt lat="47.65203" lon="-2.75947">
        <ele>4.9</ele>
        <time>2020-06-06T12:51:48Z</time>
      </trkpt>
      <trkpt lat="47.65197" lon="-2.75946">
        <ele>4.8</ele>
        <time>2020-06-06T12:51:49Z</time>
      </trkpt>
      <trkpt lat="47.65192" lon="-2.75947">
        <ele>4.7</ele>
        <time>2020-06-06T12:51:50Z</time>
      </trkpt>
      <trkpt lat="47.65186" lon="-2.75947">
        <ele>4.7</ele>
        <time>2020-06-06T12:51:51Z</time>
      </trkpt>
      <trkpt lat="47.65181" lon="-2.75946">
        <ele>4.6</ele>
        <time>2020-06-06T12:51:52Z</time>
      </trkpt>
      <trkpt lat="47.65177" lon="-2.75945">
        <ele>4.6</ele>
        <time>2020-06-06T12:51:53Z</time>
      </trkpt>
      <trkpt lat="47.65173" lon="-2.75943">
        <ele>4.6</ele>
        <time>2020-06-06T12:51:54Z</time>
      </trkpt>
      <trkpt lat="47.6517" lon="-2.7594">
        <ele>4.6</ele>
        <time>2020-06-06T12:51:55Z</time>
      </trkpt>
      <trkpt lat="47.65166" lon="-2.75937">
        <ele>4.6</ele>
        <time>2020-06-06T12:51:56Z</time>
      </trkpt>
      <trkpt lat="47.65161" lon="-2.75934">
        <ele>4.6</ele>
        <time>2020-06-06T12:51:57Z</time>
      </trkpt>
      <trkpt lat="47.65158" lon="-2.75928">
        <ele>4.6</ele>
        <time>2020-06-06T12:51:58Z</time>
      </trkpt>
      <trkpt lat="47.65155" lon="-2.75925">
        <ele>4.6</ele>
        <time>2020-06-06T12:51:59Z</time>
      </trkpt>
      <trkpt lat="47.6515" lon="-2.75922">
        <ele>4.6</ele>
        <time>2020-06-06T12:52:00Z</time>
      </trkpt>
      <trkpt lat="47.65146" lon="-2.75919">
        <ele>4.6</ele>
        <time>2020-06-06T12:52:01Z</time>
      </trkpt>
      <trkpt lat="47.65142" lon="-2.75914">
        <ele>4.5</ele>
        <time>2020-06-06T12:52:02Z</time>
      </trkpt>
      <trkpt lat="47.65137" lon="-2.7591">
        <ele>4.5</ele>
        <time>2020-06-06T12:52:03Z</time>
      </trkpt>
      <trkpt lat="47.65131" lon="-2.75905">
        <ele>4.4</ele>
        <time>2020-06-06T12:52:04Z</time>
      </trkpt>
      <trkpt lat="47.65126" lon="-2.75903">
        <ele>4.4</ele>
        <time>2020-06-06T12:52:05Z</time>
      </trkpt>
      <trkpt lat="47.65119" lon="-2.75902">
        <ele>4.3</ele>
        <time>2020-06-06T12:52:06Z</time>
      </trkpt>
      <trkpt lat="47.65113" lon="-2.75903">
        <ele>4.3</ele>
        <time>2020-06-06T12:52:07Z</time>
      </trkpt>
      <trkpt lat="47.65107" lon="-2.75903">
        <ele>4.3</ele>
        <time>2020-06-06T12:52:08Z</time>
      </trkpt>
      <trkpt lat="47.65103" lon="-2.75901">
        <ele>4.3</ele>
        <time>2020-06-06T12:52:09Z</time>
      </trkpt>
      <trkpt lat="47.65097" lon="-2.75901">
        <ele>4.3</ele>
        <time>2020-06-06T12:52:10Z</time>
      </trkpt>
      <trkpt lat="47.65091" lon="-2.75899">
        <ele>4.4</ele>
        <time>2020-06-06T12:52:11Z</time>
      </trkpt>
      <trkpt lat="47.65085" lon="-2.75898">
        <ele>4.4</ele>
        <time>2020-06-06T12:52:12Z</time>
      </trkpt>
      <trkpt lat="47.65079" lon="-2.75898">
        <ele>4.4</ele>
        <time>2020-06-06T12:52:13Z</time>
      </trkpt>
      <trkpt lat="47.65073" lon="-2.75897">
        <ele>4.4</ele>
        <time>2020-06-06T12:52:14Z</time>
      </trkpt>
      <trkpt lat="47.65067" lon="-2.75896">
        <ele>4.4</ele>
        <time>2020-06-06T12:52:15Z</time>
      </trkpt>
      <trkpt lat="47.65062" lon="-2.75893">
        <ele>4.4</ele>
        <time>2020-06-06T12:52:16Z</time>
      </trkpt>
      <trkpt lat="47.65057" lon="-2.75891">
        <ele>4.4</ele>
        <time>2020-06-06T12:52:17Z</time>
      </trkpt>
      <trkpt lat="47.65052" lon="-2.75887">
        <ele>4.5</ele>
        <time>2020-06-06T12:52:18Z</time>
      </trkpt>
      <trkpt lat="47.65048" lon="-2.75885">
        <ele>4.5</ele>
        <time>2020-06-06T12:52:19Z</time>
      </trkpt>
      <trkpt lat="47.65043" lon="-2.75883">
        <ele>4.5</ele>
        <time>2020-06-06T12:52:20Z</time>
      </trkpt>
      <trkpt lat="47.65038" lon="-2.75882">
        <ele>4.5</ele>
        <time>2020-06-06T12:52:21Z</time>
      </trkpt>
      <trkpt lat="47.65034" lon="-2.75881">
        <ele>4.5</ele>
        <time>2020-06-06T12:52:22Z</time>
      </trkpt>
      <trkpt lat="47.65028" lon="-2.75881">
        <ele>4.5</ele>
        <time>2020-06-06T12:52:23Z</time>
      </trkpt>
      <trkpt lat="47.65023" lon="-2.75881">
        <ele>4.4</ele>
        <time>2020-06-06T12:52:24Z</time>
      </trkpt>
      <trkpt lat="47.65018" lon="-2.75881">
        <ele>4.4</ele>
        <time>2020-06-06T12:52:25Z</time>
      </trkpt>
      <trkpt lat="47.65012" lon="-2.75881">
        <ele>4.3</ele>
        <time>2020-06-06T12:52:26Z</time>
      </trkpt>
      <trkpt lat="47.65007" lon="-2.75881">
        <ele>4.3</ele>
        <time>2020-06-06T12:52:27Z</time>
      </trkpt>
      <trkpt lat="47.65002" lon="-2.75881">
        <ele>4.3</ele>
        <time>2020-06-06T12:52:28Z</time>
      </trkpt>
      <trkpt lat="47.64997" lon="-2.7588">
        <ele>4.3</ele>
        <time>2020-06-06T12:52:29Z</time>
      </trkpt>
      <trkpt lat="47.64993" lon="-2.7588">
        <ele>4.3</ele>
        <time>2020-06-06T12:52:30Z</time>
      </trkpt>
      <trkpt lat="47.64988" lon="-2.75879">
        <ele>4.3</ele>
        <time>2020-06-06T12:52:31Z</time>
      </trkpt>
      <trkpt lat="47.64983" lon="-2.75879">
        <ele>4.4</ele>
        <time>2020-06-06T12:52:32Z</time>
      </trkpt>
      <trkpt lat="47.64978" lon="-2.75878">
        <ele>4.4</ele>
        <time>2020-06-06T12:52:33Z</time>
      </trkpt>
      <trkpt lat="47.64973" lon="-2.75876">
        <ele>4.4</ele>
        <time>2020-06-06T12:52:34Z</time>
      </trkpt>
      <trkpt lat="47.64968" lon="-2.75875">
        <ele>4.4</ele>
        <time>2020-06-06T12:52:35Z</time>
      </trkpt>
      <trkpt lat="47.64962" lon="-2.75874">
        <ele>4.4</ele>
        <time>2020-06-06T12:52:36Z</time>
      </trkpt>
      <trkpt lat="47.64957" lon="-2.75874">
        <ele>4.5</ele>
        <time>2020-06-06T12:52:37Z</time>
      </trkpt>
      <trkpt lat="47.64952" lon="-2.75874">
        <ele>4.5</ele>
        <time>2020-06-06T12:52:38Z</time>
      </trkpt>
      <trkpt lat="47.64947" lon="-2.75874">
        <ele>4.5</ele>
        <time>2020-06-06T12:52:39Z</time>
      </trkpt>
      <trkpt lat="47.64942" lon="-2.75874">
        <ele>4.5</ele>
        <time>2020-06-06T12:52:40Z</time>
      </trkpt>
      <trkpt lat="47.64938" lon="-2.75874">
        <ele>4.5</ele>
        <time>2020-06-06T12:52:41Z</time>
      </trkpt>
      <trkpt lat="47.64932" lon="-2.75873">
        <ele>4.5</ele>
        <time>2020-06-06T12:52:42Z</time>
      </trkpt>
      <trkpt lat="47.64927" lon="-2.75872">
        <ele>4.5</ele>
        <time>2020-06-06T12:52:43Z</time>
      </trkpt>
      <trkpt lat="47.64922" lon="-2.75868">
        <ele>4.6</ele>
        <time>2020-06-06T12:52:44Z</time>
      </trkpt>
      <trkpt lat="47.64917" lon="-2.75866">
        <ele>4.6</ele>
        <time>2020-06-06T12:52:45Z</time>
      </trkpt>
      <trkpt lat="47.64911" lon="-2.75865">
        <ele>4.6</ele>
        <time>2020-06-06T12:52:46Z</time>
      </trkpt>
      <trkpt lat="47.64905" lon="-2.75865">
        <ele>4.6</ele>
        <time>2020-06-06T12:52:47Z</time>
      </trkpt>
      <trkpt lat="47.649" lon="-2.75863">
        <ele>4.6</ele>
        <time>2020-06-06T12:52:48Z</time>
      </trkpt>
      <trkpt lat="47.64894" lon="-2.75862">
        <ele>4.6</ele>
        <time>2020-06-06T12:52:49Z</time>
      </trkpt>
      <trkpt lat="47.64889" lon="-2.7586">
        <ele>4.7</ele>
        <time>2020-06-06T12:52:50Z</time>
      </trkpt>
      <trkpt lat="47.64883" lon="-2.75859">
        <ele>4.7</ele>
        <time>2020-06-06T12:52:51Z</time>
      </trkpt>
      <trkpt lat="47.64878" lon="-2.75859">
        <ele>4.8</ele>
        <time>2020-06-06T12:52:52Z</time>
      </trkpt>
      <trkpt lat="47.64874" lon="-2.7586">
        <ele>4.8</ele>
        <time>2020-06-06T12:52:53Z</time>
      </trkpt>
      <trkpt lat="47.64871" lon="-2.75857">
        <ele>4.9</ele>
        <time>2020-06-06T12:52:54Z</time>
      </trkpt>
      <trkpt lat="47.64865" lon="-2.75857">
        <ele>5</ele>
        <time>2020-06-06T12:52:55Z</time>
      </trkpt>
      <trkpt lat="47.6486" lon="-2.75857">
        <ele>5.2</ele>
        <time>2020-06-06T12:52:56Z</time>
      </trkpt>
      <trkpt lat="47.64854" lon="-2.75855">
        <ele>5.1</ele>
        <time>2020-06-06T12:52:57Z</time>
      </trkpt>
      <trkpt lat="47.64849" lon="-2.75854">
        <ele>5</ele>
        <time>2020-06-06T12:52:58Z</time>
      </trkpt>
      <trkpt lat="47.64845" lon="-2.75851">
        <ele>5</ele>
        <time>2020-06-06T12:52:59Z</time>
      </trkpt>
      <trkpt lat="47.6484" lon="-2.75851">
        <ele>4.9</ele>
        <time>2020-06-06T12:53:00Z</time>
      </trkpt>
      <trkpt lat="47.64834" lon="-2.75851">
        <ele>4.9</ele>
        <time>2020-06-06T12:53:01Z</time>
      </trkpt>
      <trkpt lat="47.64828" lon="-2.75852">
        <ele>4.9</ele>
        <time>2020-06-06T12:53:02Z</time>
      </trkpt>
      <trkpt lat="47.64822" lon="-2.75851">
        <ele>4.9</ele>
        <time>2020-06-06T12:53:03Z</time>
      </trkpt>
      <trkpt lat="47.64815" lon="-2.75852">
        <ele>4.9</ele>
        <time>2020-06-06T12:53:04Z</time>
      </trkpt>
      <trkpt lat="47.64809" lon="-2.75853">
        <ele>4.8</ele>
        <time>2020-06-06T12:53:05Z</time>
      </trkpt>
      <trkpt lat="47.64803" lon="-2.75853">
        <ele>4.8</ele>
        <time>2020-06-06T12:53:06Z</time>
      </trkpt>
      <trkpt lat="47.64797" lon="-2.75853">
        <ele>4.8</ele>
        <time>2020-06-06T12:53:07Z</time>
      </trkpt>
      <trkpt lat="47.6479" lon="-2.75853">
        <ele>4.8</ele>
        <time>2020-06-06T12:53:08Z</time>
      </trkpt>
      <trkpt lat="47.64785" lon="-2.75853">
        <ele>4.8</ele>
        <time>2020-06-06T12:53:09Z</time>
      </trkpt>
      <trkpt lat="47.64779" lon="-2.75852">
        <ele>4.8</ele>
        <time>2020-06-06T12:53:10Z</time>
      </trkpt>
      <trkpt lat="47.64773" lon="-2.75853">
        <ele>4.8</ele>
        <time>2020-06-06T12:53:11Z</time>
      </trkpt>
      <trkpt lat="47.64767" lon="-2.75855">
        <ele>4.8</ele>
        <time>2020-06-06T12:53:12Z</time>
      </trkpt>
      <trkpt lat="47.64761" lon="-2.75855">
        <ele>4.7</ele>
        <time>2020-06-06T12:53:13Z</time>
      </trkpt>
      <trkpt lat="47.64756" lon="-2.75856">
        <ele>4.7</ele>
        <time>2020-06-06T12:53:14Z</time>
      </trkpt>
      <trkpt lat="47.6475" lon="-2.75857">
        <ele>4.7</ele>
        <time>2020-06-06T12:53:15Z</time>
      </trkpt>
      <trkpt lat="47.64744" lon="-2.75858">
        <ele>4.7</ele>
        <time>2020-06-06T12:53:16Z</time>
      </trkpt>
      <trkpt lat="47.6474" lon="-2.7586">
        <ele>4.7</ele>
        <time>2020-06-06T12:53:17Z</time>
      </trkpt>
      <trkpt lat="47.64735" lon="-2.75862">
        <ele>4.7</ele>
        <time>2020-06-06T12:53:18Z</time>
      </trkpt>
      <trkpt lat="47.64731" lon="-2.75863">
        <ele>4.7</ele>
        <time>2020-06-06T12:53:19Z</time>
      </trkpt>
      <trkpt lat="47.64725" lon="-2.75865">
        <ele>4.6</ele>
        <time>2020-06-06T12:53:20Z</time>
      </trkpt>
      <trkpt lat="47.6472" lon="-2.75867">
        <ele>4.6</ele>
        <time>2020-06-06T12:53:21Z</time>
      </trkpt>
      <trkpt lat="47.64715" lon="-2.75871">
        <ele>4.6</ele>
        <time>2020-06-06T12:53:22Z</time>
      </trkpt>
      <trkpt lat="47.64709" lon="-2.75875">
        <ele>4.6</ele>
        <time>2020-06-06T12:53:23Z</time>
      </trkpt>
      <trkpt lat="47.64703" lon="-2.75879">
        <ele>4.7</ele>
        <time>2020-06-06T12:53:24Z</time>
      </trkpt>
      <trkpt lat="47.64698" lon="-2.75883">
        <ele>4.7</ele>
        <time>2020-06-06T12:53:25Z</time>
      </trkpt>
      <trkpt lat="47.64693" lon="-2.75887">
        <ele>4.7</ele>
        <time>2020-06-06T12:53:26Z</time>
      </trkpt>
      <trkpt lat="47.64687" lon="-2.75889">
        <ele>4.8</ele>
        <time>2020-06-06T12:53:27Z</time>
      </trkpt>
      <trkpt lat="47.64681" lon="-2.75894">
        <ele>4.8</ele>
        <time>2020-06-06T12:53:28Z</time>
      </trkpt>
      <trkpt lat="47.64676" lon="-2.75896">
        <ele>4.9</ele>
        <time>2020-06-06T12:53:29Z</time>
      </trkpt>
      <trkpt lat="47.64671" lon="-2.75898">
        <ele>5</ele>
        <time>2020-06-06T12:53:30Z</time>
      </trkpt>
      <trkpt lat="47.64665" lon="-2.759">
        <ele>5</ele>
        <time>2020-06-06T12:53:31Z</time>
      </trkpt>
      <trkpt lat="47.64659" lon="-2.75902">
        <ele>5.2</ele>
        <time>2020-06-06T12:53:32Z</time>
      </trkpt>
      <trkpt lat="47.64653" lon="-2.75905">
        <ele>5.1</ele>
        <time>2020-06-06T12:53:33Z</time>
      </trkpt>
      <trkpt lat="47.64647" lon="-2.75909">
        <ele>5</ele>
        <time>2020-06-06T12:53:34Z</time>
      </trkpt>
      <trkpt lat="47.64641" lon="-2.75911">
        <ele>5</ele>
        <time>2020-06-06T12:53:35Z</time>
      </trkpt>
      <trkpt lat="47.64636" lon="-2.75913">
        <ele>5</ele>
        <time>2020-06-06T12:53:36Z</time>
      </trkpt>
      <trkpt lat="47.64631" lon="-2.75916">
        <ele>5</ele>
        <time>2020-06-06T12:53:37Z</time>
      </trkpt>
      <trkpt lat="47.64626" lon="-2.75918">
        <ele>4.9</ele>
        <time>2020-06-06T12:53:38Z</time>
      </trkpt>
      <trkpt lat="47.64621" lon="-2.7592">
        <ele>4.9</ele>
        <time>2020-06-06T12:53:39Z</time>
      </trkpt>
      <trkpt lat="47.64616" lon="-2.75922">
        <ele>4.9</ele>
        <time>2020-06-06T12:53:40Z</time>
      </trkpt>
      <trkpt lat="47.6461" lon="-2.75924">
        <ele>4.9</ele>
        <time>2020-06-06T12:53:41Z</time>
      </trkpt>
      <trkpt lat="47.64604" lon="-2.75927">
        <ele>4.9</ele>
        <time>2020-06-06T12:53:42Z</time>
      </trkpt>
      <trkpt lat="47.64599" lon="-2.75929">
        <ele>4.9</ele>
        <time>2020-06-06T12:53:43Z</time>
      </trkpt>
      <trkpt lat="47.64594" lon="-2.75933">
        <ele>4.9</ele>
        <time>2020-06-06T12:53:44Z</time>
      </trkpt>
      <trkpt lat="47.64589" lon="-2.75935">
        <ele>4.9</ele>
        <time>2020-06-06T12:53:45Z</time>
      </trkpt>
      <trkpt lat="47.64584" lon="-2.75938">
        <ele>4.9</ele>
        <time>2020-06-06T12:53:46Z</time>
      </trkpt>
      <trkpt lat="47.64578" lon="-2.7594">
        <ele>4.9</ele>
        <time>2020-06-06T12:53:47Z</time>
      </trkpt>
      <trkpt lat="47.64572" lon="-2.75942">
        <ele>4.9</ele>
        <time>2020-06-06T12:53:48Z</time>
      </trkpt>
      <trkpt lat="47.64567" lon="-2.75945">
        <ele>4.9</ele>
        <time>2020-06-06T12:53:49Z</time>
      </trkpt>
      <trkpt lat="47.64561" lon="-2.75947">
        <ele>4.9</ele>
        <time>2020-06-06T12:53:50Z</time>
      </trkpt>
      <trkpt lat="47.64557" lon="-2.75947">
        <ele>4.8</ele>
        <time>2020-06-06T12:53:51Z</time>
      </trkpt>
      <trkpt lat="47.64553" lon="-2.75949">
        <ele>4.8</ele>
        <time>2020-06-06T12:53:52Z</time>
      </trkpt>
      <trkpt lat="47.64548" lon="-2.7595">
        <ele>4.8</ele>
        <time>2020-06-06T12:53:53Z</time>
      </trkpt>
      <trkpt lat="47.64543" lon="-2.75952">
        <ele>4.8</ele>
        <time>2020-06-06T12:53:54Z</time>
      </trkpt>
      <trkpt lat="47.64538" lon="-2.75955">
        <ele>4.7</ele>
        <time>2020-06-06T12:53:55Z</time>
      </trkpt>
      <trkpt lat="47.64533" lon="-2.75958">
        <ele>4.7</ele>
        <time>2020-06-06T12:53:56Z</time>
      </trkpt>
      <trkpt lat="47.64527" lon="-2.7596">
        <ele>4.7</ele>
        <time>2020-06-06T12:53:57Z</time>
      </trkpt>
      <trkpt lat="47.64522" lon="-2.75963">
        <ele>4.6</ele>
        <time>2020-06-06T12:53:58Z</time>
      </trkpt>
      <trkpt lat="47.64517" lon="-2.75967">
        <ele>4.5</ele>
        <time>2020-06-06T12:53:59Z</time>
      </trkpt>
      <trkpt lat="47.64511" lon="-2.75969">
        <ele>4.5</ele>
        <time>2020-06-06T12:54:00Z</time>
      </trkpt>
      <trkpt lat="47.64506" lon="-2.75972">
        <ele>4.4</ele>
        <time>2020-06-06T12:54:01Z</time>
      </trkpt>
      <trkpt lat="47.64501" lon="-2.75975">
        <ele>4.3</ele>
        <time>2020-06-06T12:54:02Z</time>
      </trkpt>
      <trkpt lat="47.64495" lon="-2.75978">
        <ele>4.3</ele>
        <time>2020-06-06T12:54:03Z</time>
      </trkpt>
      <trkpt lat="47.64489" lon="-2.75981">
        <ele>4.3</ele>
        <time>2020-06-06T12:54:04Z</time>
      </trkpt>
      <trkpt lat="47.64483" lon="-2.75986">
        <ele>4.4</ele>
        <time>2020-06-06T12:54:05Z</time>
      </trkpt>
      <trkpt lat="47.64478" lon="-2.7599">
        <ele>4.3</ele>
        <time>2020-06-06T12:54:06Z</time>
      </trkpt>
      <trkpt lat="47.64473" lon="-2.75995">
        <ele>4.2</ele>
        <time>2020-06-06T12:54:07Z</time>
      </trkpt>
      <trkpt lat="47.64468" lon="-2.75999">
        <ele>4.2</ele>
        <time>2020-06-06T12:54:08Z</time>
      </trkpt>
      <trkpt lat="47.64462" lon="-2.76003">
        <ele>4.1</ele>
        <time>2020-06-06T12:54:09Z</time>
      </trkpt>
      <trkpt lat="47.64456" lon="-2.76006">
        <ele>4.1</ele>
        <time>2020-06-06T12:54:10Z</time>
      </trkpt>
      <trkpt lat="47.6445" lon="-2.76007">
        <ele>4.1</ele>
        <time>2020-06-06T12:54:11Z</time>
      </trkpt>
      <trkpt lat="47.64445" lon="-2.7601">
        <ele>4.1</ele>
        <time>2020-06-06T12:54:12Z</time>
      </trkpt>
      <trkpt lat="47.64439" lon="-2.76012">
        <ele>4.1</ele>
        <time>2020-06-06T12:54:13Z</time>
      </trkpt>
      <trkpt lat="47.64434" lon="-2.76015">
        <ele>4.1</ele>
        <time>2020-06-06T12:54:14Z</time>
      </trkpt>
      <trkpt lat="47.64429" lon="-2.76017">
        <ele>4</ele>
        <time>2020-06-06T12:54:15Z</time>
      </trkpt>
      <trkpt lat="47.64424" lon="-2.7602">
        <ele>4</ele>
        <time>2020-06-06T12:54:16Z</time>
      </trkpt>
      <trkpt lat="47.64417" lon="-2.76023">
        <ele>3.9</ele>
        <time>2020-06-06T12:54:17Z</time>
      </trkpt>
      <trkpt lat="47.64412" lon="-2.76023">
        <ele>3.9</ele>
        <time>2020-06-06T12:54:18Z</time>
      </trkpt>
      <trkpt lat="47.64406" lon="-2.76025">
        <ele>3.9</ele>
        <time>2020-06-06T12:54:19Z</time>
      </trkpt>
      <trkpt lat="47.64399" lon="-2.76028">
        <ele>3.9</ele>
        <time>2020-06-06T12:54:20Z</time>
      </trkpt>
      <trkpt lat="47.64394" lon="-2.76033">
        <ele>3.9</ele>
        <time>2020-06-06T12:54:21Z</time>
      </trkpt>
      <trkpt lat="47.64388" lon="-2.76036">
        <ele>3.8</ele>
        <time>2020-06-06T12:54:22Z</time>
      </trkpt>
      <trkpt lat="47.64382" lon="-2.76039">
        <ele>3.8</ele>
        <time>2020-06-06T12:54:23Z</time>
      </trkpt>
      <trkpt lat="47.64377" lon="-2.76042">
        <ele>3.8</ele>
        <time>2020-06-06T12:54:24Z</time>
      </trkpt>
      <trkpt lat="47.64371" lon="-2.76046">
        <ele>3.8</ele>
        <time>2020-06-06T12:54:25Z</time>
      </trkpt>
      <trkpt lat="47.64366" lon="-2.76049">
        <ele>3.8</ele>
        <time>2020-06-06T12:54:26Z</time>
      </trkpt>
      <trkpt lat="47.64361" lon="-2.76051">
        <ele>3.8</ele>
        <time>2020-06-06T12:54:27Z</time>
      </trkpt>
      <trkpt lat="47.64355" lon="-2.76053">
        <ele>3.8</ele>
        <time>2020-06-06T12:54:28Z</time>
      </trkpt>
      <trkpt lat="47.64348" lon="-2.76057">
        <ele>3.8</ele>
        <time>2020-06-06T12:54:29Z</time>
      </trkpt>
      <trkpt lat="47.64343" lon="-2.7606">
        <ele>3.8</ele>
        <time>2020-06-06T12:54:30Z</time>
      </trkpt>
      <trkpt lat="47.64338" lon="-2.76063">
        <ele>3.8</ele>
        <time>2020-06-06T12:54:31Z</time>
      </trkpt>
      <trkpt lat="47.64333" lon="-2.76066">
        <ele>3.8</ele>
        <time>2020-06-06T12:54:32Z</time>
      </trkpt>
      <trkpt lat="47.64328" lon="-2.76069">
        <ele>3.8</ele>
        <time>2020-06-06T12:54:33Z</time>
      </trkpt>
      <trkpt lat="47.64322" lon="-2.76072">
        <ele>3.8</ele>
        <time>2020-06-06T12:54:34Z</time>
      </trkpt>
      <trkpt lat="47.64317" lon="-2.76075">
        <ele>3.8</ele>
        <time>2020-06-06T12:54:35Z</time>
      </trkpt>
      <trkpt lat="47.64311" lon="-2.76077">
        <ele>3.9</ele>
        <time>2020-06-06T12:54:36Z</time>
      </trkpt>
      <trkpt lat="47.64306" lon="-2.76079">
        <ele>3.9</ele>
        <time>2020-06-06T12:54:37Z</time>
      </trkpt>
      <trkpt lat="47.64299" lon="-2.76082">
        <ele>4</ele>
        <time>2020-06-06T12:54:38Z</time>
      </trkpt>
      <trkpt lat="47.64294" lon="-2.76085">
        <ele>4</ele>
        <time>2020-06-06T12:54:39Z</time>
      </trkpt>
      <trkpt lat="47.6429" lon="-2.76089">
        <ele>4</ele>
        <time>2020-06-06T12:54:40Z</time>
      </trkpt>
      <trkpt lat="47.64286" lon="-2.76091">
        <ele>3.9</ele>
        <time>2020-06-06T12:54:41Z</time>
      </trkpt>
      <trkpt lat="47.64283" lon="-2.76093">
        <ele>3.9</ele>
        <time>2020-06-06T12:54:42Z</time>
      </trkpt>
      <trkpt lat="47.64278" lon="-2.76095">
        <ele>3.9</ele>
        <time>2020-06-06T12:54:43Z</time>
      </trkpt>
      <trkpt lat="47.64273" lon="-2.76097">
        <ele>3.8</ele>
        <time>2020-06-06T12:54:44Z</time>
      </trkpt>
      <trkpt lat="47.64269" lon="-2.761">
        <ele>3.8</ele>
        <time>2020-06-06T12:54:45Z</time>
      </trkpt>
      <trkpt lat="47.64263" lon="-2.76102">
        <ele>3.8</ele>
        <time>2020-06-06T12:54:46Z</time>
      </trkpt>
      <trkpt lat="47.64258" lon="-2.76103">
        <ele>3.7</ele>
        <time>2020-06-06T12:54:47Z</time>
      </trkpt>
      <trkpt lat="47.64253" lon="-2.76106">
        <ele>3.7</ele>
        <time>2020-06-06T12:54:48Z</time>
      </trkpt>
      <trkpt lat="47.64247" lon="-2.76108">
        <ele>3.6</ele>
        <time>2020-06-06T12:54:49Z</time>
      </trkpt>
      <trkpt lat="47.64242" lon="-2.7611">
        <ele>3.6</ele>
        <time>2020-06-06T12:54:50Z</time>
      </trkpt>
      <trkpt lat="47.64237" lon="-2.76113">
        <ele>3.5</ele>
        <time>2020-06-06T12:54:51Z</time>
      </trkpt>
      <trkpt lat="47.64232" lon="-2.76116">
        <ele>3.5</ele>
        <time>2020-06-06T12:54:52Z</time>
      </trkpt>
      <trkpt lat="47.64227" lon="-2.76118">
        <ele>3.5</ele>
        <time>2020-06-06T12:54:53Z</time>
      </trkpt>
      <trkpt lat="47.64221" lon="-2.76122">
        <ele>3.4</ele>
        <time>2020-06-06T12:54:54Z</time>
      </trkpt>
      <trkpt lat="47.64215" lon="-2.76124">
        <ele>3.4</ele>
        <time>2020-06-06T12:54:55Z</time>
      </trkpt>
      <trkpt lat="47.64209" lon="-2.76127">
        <ele>3.3</ele>
        <time>2020-06-06T12:54:56Z</time>
      </trkpt>
      <trkpt lat="47.64203" lon="-2.76131">
        <ele>3.3</ele>
        <time>2020-06-06T12:54:57Z</time>
      </trkpt>
      <trkpt lat="47.64198" lon="-2.76135">
        <ele>3.2</ele>
        <time>2020-06-06T12:54:58Z</time>
      </trkpt>
      <trkpt lat="47.64192" lon="-2.76138">
        <ele>3.1</ele>
        <time>2020-06-06T12:54:59Z</time>
      </trkpt>
      <trkpt lat="47.64187" lon="-2.76141">
        <ele>3</ele>
        <time>2020-06-06T12:55:00Z</time>
      </trkpt>
      <trkpt lat="47.64182" lon="-2.76144">
        <ele>3</ele>
        <time>2020-06-06T12:55:01Z</time>
      </trkpt>
      <trkpt lat="47.64177" lon="-2.76148">
        <ele>2.9</ele>
        <time>2020-06-06T12:55:02Z</time>
      </trkpt>
      <trkpt lat="47.64171" lon="-2.76151">
        <ele>2.8</ele>
        <time>2020-06-06T12:55:03Z</time>
      </trkpt>
      <trkpt lat="47.64167" lon="-2.76155">
        <ele>2.8</ele>
        <time>2020-06-06T12:55:04Z</time>
      </trkpt>
      <trkpt lat="47.64162" lon="-2.76159">
        <ele>2.7</ele>
        <time>2020-06-06T12:55:05Z</time>
      </trkpt>
      <trkpt lat="47.64157" lon="-2.76163">
        <ele>2.7</ele>
        <time>2020-06-06T12:55:06Z</time>
      </trkpt>
      <trkpt lat="47.64152" lon="-2.76168">
        <ele>2.6</ele>
        <time>2020-06-06T12:55:07Z</time>
      </trkpt>
      <trkpt lat="47.64147" lon="-2.76173">
        <ele>2.5</ele>
        <time>2020-06-06T12:55:08Z</time>
      </trkpt>
      <trkpt lat="47.64142" lon="-2.76178">
        <ele>2.5</ele>
        <time>2020-06-06T12:55:09Z</time>
      </trkpt>
      <trkpt lat="47.64137" lon="-2.76182">
        <ele>2.5</ele>
        <time>2020-06-06T12:55:10Z</time>
      </trkpt>
      <trkpt lat="47.64133" lon="-2.76186">
        <ele>2.5</ele>
        <time>2020-06-06T12:55:11Z</time>
      </trkpt>
      <trkpt lat="47.64127" lon="-2.76189">
        <ele>2.5</ele>
        <time>2020-06-06T12:55:12Z</time>
      </trkpt>
      <trkpt lat="47.64123" lon="-2.76192">
        <ele>2.6</ele>
        <time>2020-06-06T12:55:13Z</time>
      </trkpt>
      <trkpt lat="47.64118" lon="-2.76195">
        <ele>2.7</ele>
        <time>2020-06-06T12:55:14Z</time>
      </trkpt>
      <trkpt lat="47.64114" lon="-2.76198">
        <ele>2.8</ele>
        <time>2020-06-06T12:55:15Z</time>
      </trkpt>
      <trkpt lat="47.6411" lon="-2.76201">
        <ele>2.9</ele>
        <time>2020-06-06T12:55:16Z</time>
      </trkpt>
      <trkpt lat="47.64105" lon="-2.76205">
        <ele>2.8</ele>
        <time>2020-06-06T12:55:17Z</time>
      </trkpt>
      <trkpt lat="47.64101" lon="-2.76207">
        <ele>2.7</ele>
        <time>2020-06-06T12:55:18Z</time>
      </trkpt>
      <trkpt lat="47.64096" lon="-2.7621">
        <ele>2.6</ele>
        <time>2020-06-06T12:55:19Z</time>
      </trkpt>
      <trkpt lat="47.64091" lon="-2.76212">
        <ele>2.6</ele>
        <time>2020-06-06T12:55:20Z</time>
      </trkpt>
      <trkpt lat="47.64088" lon="-2.76217">
        <ele>2.5</ele>
        <time>2020-06-06T12:55:21Z</time>
      </trkpt>
      <trkpt lat="47.64084" lon="-2.76221">
        <ele>2.5</ele>
        <time>2020-06-06T12:55:22Z</time>
      </trkpt>
      <trkpt lat="47.6408" lon="-2.76223">
        <ele>2.4</ele>
        <time>2020-06-06T12:55:23Z</time>
      </trkpt>
      <trkpt lat="47.64076" lon="-2.76226">
        <ele>2.4</ele>
        <time>2020-06-06T12:55:24Z</time>
      </trkpt>
      <trkpt lat="47.64072" lon="-2.76227">
        <ele>2.4</ele>
        <time>2020-06-06T12:55:25Z</time>
      </trkpt>
      <trkpt lat="47.64069" lon="-2.7623">
        <ele>2.5</ele>
        <time>2020-06-06T12:55:26Z</time>
      </trkpt>
      <trkpt lat="47.64065" lon="-2.76231">
        <ele>2.6</ele>
        <time>2020-06-06T12:55:27Z</time>
      </trkpt>
      <trkpt lat="47.64062" lon="-2.76231">
        <ele>2.6</ele>
        <time>2020-06-06T12:55:28Z</time>
      </trkpt>
      <trkpt lat="47.6406" lon="-2.76234">
        <ele>2.7</ele>
        <time>2020-06-06T12:55:29Z</time>
      </trkpt>
      <trkpt lat="47.64056" lon="-2.76235">
        <ele>2.8</ele>
        <time>2020-06-06T12:55:30Z</time>
      </trkpt>
      <trkpt lat="47.64053" lon="-2.76236">
        <ele>2.9</ele>
        <time>2020-06-06T12:55:31Z</time>
      </trkpt>
      <trkpt lat="47.64049" lon="-2.76237">
        <ele>3</ele>
        <time>2020-06-06T12:55:32Z</time>
      </trkpt>
      <trkpt lat="47.64046" lon="-2.76239">
        <ele>3</ele>
        <time>2020-06-06T12:55:33Z</time>
      </trkpt>
      <trkpt lat="47.64041" lon="-2.76239">
        <ele>3.1</ele>
        <time>2020-06-06T12:55:34Z</time>
      </trkpt>
      <trkpt lat="47.64038" lon="-2.76241">
        <ele>3.4</ele>
        <time>2020-06-06T12:55:35Z</time>
      </trkpt>
      <trkpt lat="47.64034" lon="-2.76245">
        <ele>3.6</ele>
        <time>2020-06-06T12:55:36Z</time>
      </trkpt>
      <trkpt lat="47.64031" lon="-2.76248">
        <ele>3.8</ele>
        <time>2020-06-06T12:55:37Z</time>
      </trkpt>
      <trkpt lat="47.64028" lon="-2.76252">
        <ele>4.1</ele>
        <time>2020-06-06T12:55:38Z</time>
      </trkpt>
      <trkpt lat="47.64026" lon="-2.76257">
        <ele>3.9</ele>
        <time>2020-06-06T12:55:39Z</time>
      </trkpt>
      <trkpt lat="47.64022" lon="-2.7626">
        <ele>3.7</ele>
        <time>2020-06-06T12:55:40Z</time>
      </trkpt>
      <trkpt lat="47.6402" lon="-2.76264">
        <ele>3.6</ele>
        <time>2020-06-06T12:55:41Z</time>
      </trkpt>
      <trkpt lat="47.64018" lon="-2.7627">
        <ele>3.5</ele>
        <time>2020-06-06T12:55:42Z</time>
      </trkpt>
      <trkpt lat="47.64016" lon="-2.76277">
        <ele>3.5</ele>
        <time>2020-06-06T12:55:43Z</time>
      </trkpt>
      <trkpt lat="47.64014" lon="-2.76284">
        <ele>3.5</ele>
        <time>2020-06-06T12:55:44Z</time>
      </trkpt>
      <trkpt lat="47.64012" lon="-2.7629">
        <ele>3.4</ele>
        <time>2020-06-06T12:55:45Z</time>
      </trkpt>
      <trkpt lat="47.64009" lon="-2.76296">
        <ele>3.4</ele>
        <time>2020-06-06T12:55:46Z</time>
      </trkpt>
      <trkpt lat="47.64007" lon="-2.76303">
        <ele>3.3</ele>
        <time>2020-06-06T12:55:47Z</time>
      </trkpt>
      <trkpt lat="47.64005" lon="-2.76309">
        <ele>3.2</ele>
        <time>2020-06-06T12:55:48Z</time>
      </trkpt>
      <trkpt lat="47.64003" lon="-2.76316">
        <ele>3.1</ele>
        <time>2020-06-06T12:55:49Z</time>
      </trkpt>
      <trkpt lat="47.64001" lon="-2.76323">
        <ele>3.1</ele>
        <time>2020-06-06T12:55:50Z</time>
      </trkpt>
      <trkpt lat="47.64" lon="-2.76328">
        <ele>3</ele>
        <time>2020-06-06T12:55:51Z</time>
      </trkpt>
      <trkpt lat="47.63997" lon="-2.76335">
        <ele>3</ele>
        <time>2020-06-06T12:55:52Z</time>
      </trkpt>
      <trkpt lat="47.63994" lon="-2.76342">
        <ele>3</ele>
        <time>2020-06-06T12:55:53Z</time>
      </trkpt>
      <trkpt lat="47.63991" lon="-2.76349">
        <ele>2.9</ele>
        <time>2020-06-06T12:55:54Z</time>
      </trkpt>
      <trkpt lat="47.63987" lon="-2.76357">
        <ele>2.9</ele>
        <time>2020-06-06T12:55:55Z</time>
      </trkpt>
      <trkpt lat="47.63984" lon="-2.76364">
        <ele>2.9</ele>
        <time>2020-06-06T12:55:56Z</time>
      </trkpt>
      <trkpt lat="47.63981" lon="-2.7637">
        <ele>2.8</ele>
        <time>2020-06-06T12:55:57Z</time>
      </trkpt>
      <trkpt lat="47.63977" lon="-2.76376">
        <ele>2.8</ele>
        <time>2020-06-06T12:55:58Z</time>
      </trkpt>
      <trkpt lat="47.63973" lon="-2.76381">
        <ele>2.8</ele>
        <time>2020-06-06T12:55:59Z</time>
      </trkpt>
      <trkpt lat="47.63969" lon="-2.76386">
        <ele>2.8</ele>
        <time>2020-06-06T12:56:00Z</time>
      </trkpt>
      <trkpt lat="47.63965" lon="-2.76391">
        <ele>2.8</ele>
        <time>2020-06-06T12:56:01Z</time>
      </trkpt>
      <trkpt lat="47.63961" lon="-2.76396">
        <ele>2.7</ele>
        <time>2020-06-06T12:56:02Z</time>
      </trkpt>
      <trkpt lat="47.63958" lon="-2.76402">
        <ele>2.7</ele>
        <time>2020-06-06T12:56:03Z</time>
      </trkpt>
      <trkpt lat="47.63955" lon="-2.76407">
        <ele>2.8</ele>
        <time>2020-06-06T12:56:04Z</time>
      </trkpt>
      <trkpt lat="47.63951" lon="-2.76411">
        <ele>2.8</ele>
        <time>2020-06-06T12:56:05Z</time>
      </trkpt>
      <trkpt lat="47.63947" lon="-2.76415">
        <ele>2.9</ele>
        <time>2020-06-06T12:56:06Z</time>
      </trkpt>
      <trkpt lat="47.63943" lon="-2.76421">
        <ele>2.9</ele>
        <time>2020-06-06T12:56:07Z</time>
      </trkpt>
      <trkpt lat="47.6394" lon="-2.76426">
        <ele>3</ele>
        <time>2020-06-06T12:56:08Z</time>
      </trkpt>
      <trkpt lat="47.63936" lon="-2.76431">
        <ele>3</ele>
        <time>2020-06-06T12:56:09Z</time>
      </trkpt>
      <trkpt lat="47.63931" lon="-2.76434">
        <ele>3</ele>
        <time>2020-06-06T12:56:10Z</time>
      </trkpt>
      <trkpt lat="47.63929" lon="-2.76439">
        <ele>3.1</ele>
        <time>2020-06-06T12:56:11Z</time>
      </trkpt>
      <trkpt lat="47.63925" lon="-2.76444">
        <ele>3.1</ele>
        <time>2020-06-06T12:56:12Z</time>
      </trkpt>
      <trkpt lat="47.63922" lon="-2.76449">
        <ele>3.2</ele>
        <time>2020-06-06T12:56:13Z</time>
      </trkpt>
      <trkpt lat="47.63919" lon="-2.76454">
        <ele>3.3</ele>
        <time>2020-06-06T12:56:14Z</time>
      </trkpt>
      <trkpt lat="47.63917" lon="-2.76459">
        <ele>3.4</ele>
        <time>2020-06-06T12:56:15Z</time>
      </trkpt>
      <trkpt lat="47.63912" lon="-2.76461">
        <ele>3.5</ele>
        <time>2020-06-06T12:56:16Z</time>
      </trkpt>
      <trkpt lat="47.63909" lon="-2.76465">
        <ele>3.6</ele>
        <time>2020-06-06T12:56:17Z</time>
      </trkpt>
      <trkpt lat="47.63905" lon="-2.76468">
        <ele>3.7</ele>
        <time>2020-06-06T12:56:18Z</time>
      </trkpt>
      <trkpt lat="47.63902" lon="-2.76471">
        <ele>3.8</ele>
        <time>2020-06-06T12:56:19Z</time>
      </trkpt>
      <trkpt lat="47.63898" lon="-2.76474">
        <ele>3.8</ele>
        <time>2020-06-06T12:56:20Z</time>
      </trkpt>
      <trkpt lat="47.63895" lon="-2.7648">
        <ele>3.8</ele>
        <time>2020-06-06T12:56:21Z</time>
      </trkpt>
      <trkpt lat="47.63891" lon="-2.76486">
        <ele>3.9</ele>
        <time>2020-06-06T12:56:22Z</time>
      </trkpt>
      <trkpt lat="47.63888" lon="-2.76492">
        <ele>4</ele>
        <time>2020-06-06T12:56:23Z</time>
      </trkpt>
      <trkpt lat="47.63885" lon="-2.76498">
        <ele>4</ele>
        <time>2020-06-06T12:56:24Z</time>
      </trkpt>
      <trkpt lat="47.63884" lon="-2.76505">
        <ele>4.1</ele>
        <time>2020-06-06T12:56:25Z</time>
      </trkpt>
      <trkpt lat="47.63883" lon="-2.76513">
        <ele>4.2</ele>
        <time>2020-06-06T12:56:26Z</time>
      </trkpt>
      <trkpt lat="47.63883" lon="-2.7652">
        <ele>4.3</ele>
        <time>2020-06-06T12:56:27Z</time>
      </trkpt>
      <trkpt lat="47.63884" lon="-2.76526">
        <ele>4.4</ele>
        <time>2020-06-06T12:56:28Z</time>
      </trkpt>
      <trkpt lat="47.63885" lon="-2.76533">
        <ele>4.5</ele>
        <time>2020-06-06T12:56:29Z</time>
      </trkpt>
      <trkpt lat="47.63885" lon="-2.7654">
        <ele>4.6</ele>
        <time>2020-06-06T12:56:30Z</time>
      </trkpt>
      <trkpt lat="47.63886" lon="-2.76547">
        <ele>4.7</ele>
        <time>2020-06-06T12:56:31Z</time>
      </trkpt>
      <trkpt lat="47.63887" lon="-2.76553">
        <ele>4.8</ele>
        <time>2020-06-06T12:56:32Z</time>
      </trkpt>
      <trkpt lat="47.63887" lon="-2.7656">
        <ele>4.8</ele>
        <time>2020-06-06T12:56:33Z</time>
      </trkpt>
      <trkpt lat="47.63887" lon="-2.76566">
        <ele>4.9</ele>
        <time>2020-06-06T12:56:34Z</time>
      </trkpt>
      <trkpt lat="47.63887" lon="-2.76571">
        <ele>5</ele>
        <time>2020-06-06T12:56:35Z</time>
      </trkpt>
      <trkpt lat="47.63887" lon="-2.76577">
        <ele>5</ele>
        <time>2020-06-06T12:56:36Z</time>
      </trkpt>
      <trkpt lat="47.63888" lon="-2.76584">
        <ele>5.1</ele>
        <time>2020-06-06T12:56:37Z</time>
      </trkpt>
      <trkpt lat="47.63889" lon="-2.7659">
        <ele>5.1</ele>
        <time>2020-06-06T12:56:38Z</time>
      </trkpt>
      <trkpt lat="47.63889" lon="-2.76596">
        <ele>5.1</ele>
        <time>2020-06-06T12:56:39Z</time>
      </trkpt>
      <trkpt lat="47.63888" lon="-2.76602">
        <ele>5.1</ele>
        <time>2020-06-06T12:56:40Z</time>
      </trkpt>
      <trkpt lat="47.63888" lon="-2.76608">
        <ele>5.1</ele>
        <time>2020-06-06T12:56:41Z</time>
      </trkpt>
      <trkpt lat="47.63888" lon="-2.76614">
        <ele>5.1</ele>
        <time>2020-06-06T12:56:42Z</time>
      </trkpt>
      <trkpt lat="47.63888" lon="-2.76619">
        <ele>5.1</ele>
        <time>2020-06-06T12:56:43Z</time>
      </trkpt>
      <trkpt lat="47.63888" lon="-2.76626">
        <ele>5</ele>
        <time>2020-06-06T12:56:44Z</time>
      </trkpt>
      <trkpt lat="47.63887" lon="-2.76632">
        <ele>5</ele>
        <time>2020-06-06T12:56:45Z</time>
      </trkpt>
      <trkpt lat="47.63887" lon="-2.76638">
        <ele>4.9</ele>
        <time>2020-06-06T12:56:46Z</time>
      </trkpt>
      <trkpt lat="47.63886" lon="-2.76643">
        <ele>4.9</ele>
        <time>2020-06-06T12:56:47Z</time>
      </trkpt>
      <trkpt lat="47.63886" lon="-2.76649">
        <ele>5</ele>
        <time>2020-06-06T12:56:48Z</time>
      </trkpt>
      <trkpt lat="47.63887" lon="-2.76657">
        <ele>5</ele>
        <time>2020-06-06T12:56:49Z</time>
      </trkpt>
      <trkpt lat="47.63887" lon="-2.76664">
        <ele>5</ele>
        <time>2020-06-06T12:56:50Z</time>
      </trkpt>
      <trkpt lat="47.63886" lon="-2.76671">
        <ele>4.9</ele>
        <time>2020-06-06T12:56:51Z</time>
      </trkpt>
      <trkpt lat="47.63885" lon="-2.76677">
        <ele>4.9</ele>
        <time>2020-06-06T12:56:52Z</time>
      </trkpt>
      <trkpt lat="47.63885" lon="-2.76683">
        <ele>4.9</ele>
        <time>2020-06-06T12:56:53Z</time>
      </trkpt>
      <trkpt lat="47.63885" lon="-2.7669">
        <ele>4.8</ele>
        <time>2020-06-06T12:56:54Z</time>
      </trkpt>
      <trkpt lat="47.63885" lon="-2.76697">
        <ele>4.8</ele>
        <time>2020-06-06T12:56:55Z</time>
      </trkpt>
      <trkpt lat="47.63884" lon="-2.76705">
        <ele>4.7</ele>
        <time>2020-06-06T12:56:56Z</time>
      </trkpt>
      <trkpt lat="47.63884" lon="-2.76712">
        <ele>4.7</ele>
        <time>2020-06-06T12:56:57Z</time>
      </trkpt>
      <trkpt lat="47.63883" lon="-2.7672">
        <ele>4.6</ele>
        <time>2020-06-06T12:56:58Z</time>
      </trkpt>
      <trkpt lat="47.63882" lon="-2.76726">
        <ele>4.6</ele>
        <time>2020-06-06T12:56:59Z</time>
      </trkpt>
      <trkpt lat="47.63882" lon="-2.76732">
        <ele>4.7</ele>
        <time>2020-06-06T12:57:00Z</time>
      </trkpt>
      <trkpt lat="47.63883" lon="-2.76738">
        <ele>4.9</ele>
        <time>2020-06-06T12:57:01Z</time>
      </trkpt>
      <trkpt lat="47.63884" lon="-2.76743">
        <ele>5</ele>
        <time>2020-06-06T12:57:02Z</time>
      </trkpt>
      <trkpt lat="47.63886" lon="-2.7675">
        <ele>4.9</ele>
        <time>2020-06-06T12:57:03Z</time>
      </trkpt>
      <trkpt lat="47.63884" lon="-2.76754">
        <ele>4.9</ele>
        <time>2020-06-06T12:57:04Z</time>
      </trkpt>
      <trkpt lat="47.63884" lon="-2.7676">
        <ele>4.8</ele>
        <time>2020-06-06T12:57:05Z</time>
      </trkpt>
      <trkpt lat="47.63881" lon="-2.76766">
        <ele>4.8</ele>
        <time>2020-06-06T12:57:06Z</time>
      </trkpt>
      <trkpt lat="47.63878" lon="-2.76772">
        <ele>4.9</ele>
        <time>2020-06-06T12:57:07Z</time>
      </trkpt>
      <trkpt lat="47.63875" lon="-2.76777">
        <ele>5.1</ele>
        <time>2020-06-06T12:57:08Z</time>
      </trkpt>
      <trkpt lat="47.6387" lon="-2.76779">
        <ele>5.2</ele>
        <time>2020-06-06T12:57:09Z</time>
      </trkpt>
      <trkpt lat="47.63865" lon="-2.76781">
        <ele>5.3</ele>
        <time>2020-06-06T12:57:10Z</time>
      </trkpt>
      <trkpt lat="47.6386" lon="-2.76783">
        <ele>5.3</ele>
        <time>2020-06-06T12:57:11Z</time>
      </trkpt>
      <trkpt lat="47.63856" lon="-2.76788">
        <ele>5.2</ele>
        <time>2020-06-06T12:57:12Z</time>
      </trkpt>
      <trkpt lat="47.63852" lon="-2.76792">
        <ele>5.1</ele>
        <time>2020-06-06T12:57:13Z</time>
      </trkpt>
      <trkpt lat="47.6385" lon="-2.76798">
        <ele>5.1</ele>
        <time>2020-06-06T12:57:14Z</time>
      </trkpt>
      <trkpt lat="47.63846" lon="-2.76805">
        <ele>5</ele>
        <time>2020-06-06T12:57:15Z</time>
      </trkpt>
      <trkpt lat="47.63841" lon="-2.76811">
        <ele>5.1</ele>
        <time>2020-06-06T12:57:16Z</time>
      </trkpt>
      <trkpt lat="47.63838" lon="-2.76818">
        <ele>5</ele>
        <time>2020-06-06T12:57:17Z</time>
      </trkpt>
      <trkpt lat="47.63834" lon="-2.76824">
        <ele>5</ele>
        <time>2020-06-06T12:57:18Z</time>
      </trkpt>
      <trkpt lat="47.6383" lon="-2.7683">
        <ele>5</ele>
        <time>2020-06-06T12:57:19Z</time>
      </trkpt>
      <trkpt lat="47.63826" lon="-2.76836">
        <ele>5</ele>
        <time>2020-06-06T12:57:20Z</time>
      </trkpt>
      <trkpt lat="47.63823" lon="-2.76843">
        <ele>5</ele>
        <time>2020-06-06T12:57:21Z</time>
      </trkpt>
      <trkpt lat="47.6382" lon="-2.7685">
        <ele>5.1</ele>
        <time>2020-06-06T12:57:22Z</time>
      </trkpt>
      <trkpt lat="47.63818" lon="-2.76857">
        <ele>5.2</ele>
        <time>2020-06-06T12:57:23Z</time>
      </trkpt>
      <trkpt lat="47.63816" lon="-2.76863">
        <ele>5.2</ele>
        <time>2020-06-06T12:57:24Z</time>
      </trkpt>
      <trkpt lat="47.63814" lon="-2.76869">
        <ele>5.3</ele>
        <time>2020-06-06T12:57:25Z</time>
      </trkpt>
      <trkpt lat="47.63812" lon="-2.76875">
        <ele>5.3</ele>
        <time>2020-06-06T12:57:26Z</time>
      </trkpt>
      <trkpt lat="47.6381" lon="-2.76882">
        <ele>5.4</ele>
        <time>2020-06-06T12:57:27Z</time>
      </trkpt>
      <trkpt lat="47.63809" lon="-2.76887">
        <ele>5.4</ele>
        <time>2020-06-06T12:57:28Z</time>
      </trkpt>
      <trkpt lat="47.63807" lon="-2.76891">
        <ele>5.4</ele>
        <time>2020-06-06T12:57:29Z</time>
      </trkpt>
      <trkpt lat="47.63805" lon="-2.76896">
        <ele>5.5</ele>
        <time>2020-06-06T12:57:30Z</time>
      </trkpt>
      <trkpt lat="47.63802" lon="-2.769">
        <ele>5.5</ele>
        <time>2020-06-06T12:57:31Z</time>
      </trkpt>
      <trkpt lat="47.638" lon="-2.76905">
        <ele>5.5</ele>
        <time>2020-06-06T12:57:32Z</time>
      </trkpt>
      <trkpt lat="47.63797" lon="-2.76909">
        <ele>5.5</ele>
        <time>2020-06-06T12:57:33Z</time>
      </trkpt>
      <trkpt lat="47.63795" lon="-2.76914">
        <ele>5.6</ele>
        <time>2020-06-06T12:57:34Z</time>
      </trkpt>
      <trkpt lat="47.63793" lon="-2.7692">
        <ele>5.6</ele>
        <time>2020-06-06T12:57:35Z</time>
      </trkpt>
      <trkpt lat="47.63792" lon="-2.76926">
        <ele>5.6</ele>
        <time>2020-06-06T12:57:36Z</time>
      </trkpt>
      <trkpt lat="47.6379" lon="-2.76932">
        <ele>5.7</ele>
        <time>2020-06-06T12:57:37Z</time>
      </trkpt>
      <trkpt lat="47.63789" lon="-2.76935">
        <ele>5.7</ele>
        <time>2020-06-06T12:57:38Z</time>
      </trkpt>
      <trkpt lat="47.63787" lon="-2.7694">
        <ele>5.7</ele>
        <time>2020-06-06T12:57:39Z</time>
      </trkpt>
      <trkpt lat="47.63785" lon="-2.76944">
        <ele>5.7</ele>
        <time>2020-06-06T12:57:40Z</time>
      </trkpt>
      <trkpt lat="47.63783" lon="-2.7695">
        <ele>5.8</ele>
        <time>2020-06-06T12:57:41Z</time>
      </trkpt>
      <trkpt lat="47.63781" lon="-2.76954">
        <ele>5.8</ele>
        <time>2020-06-06T12:57:42Z</time>
      </trkpt>
      <trkpt lat="47.63779" lon="-2.76959">
        <ele>5.8</ele>
        <time>2020-06-06T12:57:43Z</time>
      </trkpt>
      <trkpt lat="47.63777" lon="-2.76963">
        <ele>5.8</ele>
        <time>2020-06-06T12:57:44Z</time>
      </trkpt>
      <trkpt lat="47.63776" lon="-2.76968">
        <ele>5.8</ele>
        <time>2020-06-06T12:57:45Z</time>
      </trkpt>
      <trkpt lat="47.63774" lon="-2.76973">
        <ele>5.8</ele>
        <time>2020-06-06T12:57:46Z</time>
      </trkpt>
      <trkpt lat="47.63773" lon="-2.76979">
        <ele>5.7</ele>
        <time>2020-06-06T12:57:47Z</time>
      </trkpt>
      <trkpt lat="47.63771" lon="-2.76986">
        <ele>5.7</ele>
        <time>2020-06-06T12:57:48Z</time>
      </trkpt>
      <trkpt lat="47.63768" lon="-2.76991">
        <ele>5.7</ele>
        <time>2020-06-06T12:57:49Z</time>
      </trkpt>
      <trkpt lat="47.63766" lon="-2.76996">
        <ele>5.7</ele>
        <time>2020-06-06T12:57:50Z</time>
      </trkpt>
      <trkpt lat="47.63764" lon="-2.76999">
        <ele>5.7</ele>
        <time>2020-06-06T12:57:51Z</time>
      </trkpt>
      <trkpt lat="47.63762" lon="-2.77003">
        <ele>5.6</ele>
        <time>2020-06-06T12:57:52Z</time>
      </trkpt>
      <trkpt lat="47.63761" lon="-2.77008">
        <ele>5.6</ele>
        <time>2020-06-06T12:57:53Z</time>
      </trkpt>
      <trkpt lat="47.63759" lon="-2.77012">
        <ele>5.6</ele>
        <time>2020-06-06T12:57:54Z</time>
      </trkpt>
      <trkpt lat="47.63757" lon="-2.77016">
        <ele>5.6</ele>
        <time>2020-06-06T12:57:55Z</time>
      </trkpt>
      <trkpt lat="47.63755" lon="-2.77021">
        <ele>5.5</ele>
        <time>2020-06-06T12:57:56Z</time>
      </trkpt>
      <trkpt lat="47.63752" lon="-2.77026">
        <ele>5.5</ele>
        <time>2020-06-06T12:57:57Z</time>
      </trkpt>
      <trkpt lat="47.63749" lon="-2.77033">
        <ele>5.5</ele>
        <time>2020-06-06T12:57:58Z</time>
      </trkpt>
      <trkpt lat="47.63746" lon="-2.77037">
        <ele>5.5</ele>
        <time>2020-06-06T12:57:59Z</time>
      </trkpt>
      <trkpt lat="47.63743" lon="-2.77041">
        <ele>5.5</ele>
        <time>2020-06-06T12:58:00Z</time>
      </trkpt>
      <trkpt lat="47.6374" lon="-2.77045">
        <ele>5.5</ele>
        <time>2020-06-06T12:58:01Z</time>
      </trkpt>
      <trkpt lat="47.63737" lon="-2.77049">
        <ele>5.5</ele>
        <time>2020-06-06T12:58:02Z</time>
      </trkpt>
      <trkpt lat="47.63735" lon="-2.77052">
        <ele>5.5</ele>
        <time>2020-06-06T12:58:03Z</time>
      </trkpt>
      <trkpt lat="47.63732" lon="-2.77056">
        <ele>5.5</ele>
        <time>2020-06-06T12:58:04Z</time>
      </trkpt>
      <trkpt lat="47.63731" lon="-2.77062">
        <ele>5.5</ele>
        <time>2020-06-06T12:58:05Z</time>
      </trkpt>
      <trkpt lat="47.63728" lon="-2.77067">
        <ele>5.5</ele>
        <time>2020-06-06T12:58:06Z</time>
      </trkpt>
      <trkpt lat="47.63725" lon="-2.77071">
        <ele>5.5</ele>
        <time>2020-06-06T12:58:07Z</time>
      </trkpt>
      <trkpt lat="47.63723" lon="-2.77077">
        <ele>5.5</ele>
        <time>2020-06-06T12:58:08Z</time>
      </trkpt>
      <trkpt lat="47.6372" lon="-2.77081">
        <ele>5.5</ele>
        <time>2020-06-06T12:58:09Z</time>
      </trkpt>
      <trkpt lat="47.63717" lon="-2.77085">
        <ele>5.5</ele>
        <time>2020-06-06T12:58:10Z</time>
      </trkpt>
      <trkpt lat="47.63715" lon="-2.7709">
        <ele>5.5</ele>
        <time>2020-06-06T12:58:11Z</time>
      </trkpt>
      <trkpt lat="47.63712" lon="-2.77095">
        <ele>5.5</ele>
        <time>2020-06-06T12:58:12Z</time>
      </trkpt>
      <trkpt lat="47.63709" lon="-2.771">
        <ele>5.5</ele>
        <time>2020-06-06T12:58:13Z</time>
      </trkpt>
      <trkpt lat="47.63707" lon="-2.77105">
        <ele>5.5</ele>
        <time>2020-06-06T12:58:14Z</time>
      </trkpt>
      <trkpt lat="47.63704" lon="-2.7711">
        <ele>5.5</ele>
        <time>2020-06-06T12:58:15Z</time>
      </trkpt>
      <trkpt lat="47.63702" lon="-2.77115">
        <ele>5.6</ele>
        <time>2020-06-06T12:58:16Z</time>
      </trkpt>
      <trkpt lat="47.63699" lon="-2.7712">
        <ele>5.6</ele>
        <time>2020-06-06T12:58:17Z</time>
      </trkpt>
      <trkpt lat="47.63696" lon="-2.77126">
        <ele>5.7</ele>
        <time>2020-06-06T12:58:18Z</time>
      </trkpt>
      <trkpt lat="47.63693" lon="-2.7713">
        <ele>5.8</ele>
        <time>2020-06-06T12:58:19Z</time>
      </trkpt>
      <trkpt lat="47.6369" lon="-2.77133">
        <ele>5.8</ele>
        <time>2020-06-06T12:58:20Z</time>
      </trkpt>
      <trkpt lat="47.63688" lon="-2.77137">
        <ele>5.9</ele>
        <time>2020-06-06T12:58:21Z</time>
      </trkpt>
      <trkpt lat="47.63685" lon="-2.77141">
        <ele>6</ele>
        <time>2020-06-06T12:58:22Z</time>
      </trkpt>
      <trkpt lat="47.63682" lon="-2.77146">
        <ele>6</ele>
        <time>2020-06-06T12:58:23Z</time>
      </trkpt>
      <trkpt lat="47.6368" lon="-2.7715">
        <ele>6.1</ele>
        <time>2020-06-06T12:58:24Z</time>
      </trkpt>
      <trkpt lat="47.63676" lon="-2.77154">
        <ele>6.2</ele>
        <time>2020-06-06T12:58:25Z</time>
      </trkpt>
      <trkpt lat="47.63673" lon="-2.77159">
        <ele>6.4</ele>
        <time>2020-06-06T12:58:26Z</time>
      </trkpt>
      <trkpt lat="47.6367" lon="-2.77164">
        <ele>6.5</ele>
        <time>2020-06-06T12:58:27Z</time>
      </trkpt>
      <trkpt lat="47.63668" lon="-2.77169">
        <ele>6.6</ele>
        <time>2020-06-06T12:58:28Z</time>
      </trkpt>
      <trkpt lat="47.63666" lon="-2.77174">
        <ele>6.8</ele>
        <time>2020-06-06T12:58:29Z</time>
      </trkpt>
      <trkpt lat="47.63663" lon="-2.77178">
        <ele>6.9</ele>
        <time>2020-06-06T12:58:30Z</time>
      </trkpt>
      <trkpt lat="47.63661" lon="-2.77183">
        <ele>7</ele>
        <time>2020-06-06T12:58:31Z</time>
      </trkpt>
      <trkpt lat="47.63659" lon="-2.77187">
        <ele>7.2</ele>
        <time>2020-06-06T12:58:32Z</time>
      </trkpt>
      <trkpt lat="47.63657" lon="-2.77191">
        <ele>7.3</ele>
        <time>2020-06-06T12:58:33Z</time>
      </trkpt>
      <trkpt lat="47.63654" lon="-2.77197">
        <ele>7.5</ele>
        <time>2020-06-06T12:58:34Z</time>
      </trkpt>
      <trkpt lat="47.63652" lon="-2.77201">
        <ele>7.6</ele>
        <time>2020-06-06T12:58:35Z</time>
      </trkpt>
      <trkpt lat="47.6365" lon="-2.77206">
        <ele>7.7</ele>
        <time>2020-06-06T12:58:36Z</time>
      </trkpt>
      <trkpt lat="47.63648" lon="-2.7721">
        <ele>7.9</ele>
        <time>2020-06-06T12:58:37Z</time>
      </trkpt>
      <trkpt lat="47.63646" lon="-2.77214">
        <ele>8</ele>
        <time>2020-06-06T12:58:38Z</time>
      </trkpt>
      <trkpt lat="47.63643" lon="-2.77218">
        <ele>8.1</ele>
        <time>2020-06-06T12:58:39Z</time>
      </trkpt>
      <trkpt lat="47.63642" lon="-2.77221">
        <ele>8.1</ele>
        <time>2020-06-06T12:58:40Z</time>
      </trkpt>
      <trkpt lat="47.63638" lon="-2.77224">
        <ele>8.2</ele>
        <time>2020-06-06T12:58:41Z</time>
      </trkpt>
      <trkpt lat="47.63635" lon="-2.77227">
        <ele>8.4</ele>
        <time>2020-06-06T12:58:42Z</time>
      </trkpt>
      <trkpt lat="47.63632" lon="-2.77231">
        <ele>8.5</ele>
        <time>2020-06-06T12:58:43Z</time>
      </trkpt>
      <trkpt lat="47.6363" lon="-2.77234">
        <ele>8.6</ele>
        <time>2020-06-06T12:58:44Z</time>
      </trkpt>
      <trkpt lat="47.63627" lon="-2.77237">
        <ele>8.7</ele>
        <time>2020-06-06T12:58:45Z</time>
      </trkpt>
      <trkpt lat="47.63625" lon="-2.7724">
        <ele>8.8</ele>
        <time>2020-06-06T12:58:46Z</time>
      </trkpt>
      <trkpt lat="47.63622" lon="-2.77245">
        <ele>8.9</ele>
        <time>2020-06-06T12:58:47Z</time>
      </trkpt>
      <trkpt lat="47.6362" lon="-2.77248">
        <ele>9</ele>
        <time>2020-06-06T12:58:48Z</time>
      </trkpt>
      <trkpt lat="47.63618" lon="-2.77252">
        <ele>9.1</ele>
        <time>2020-06-06T12:58:49Z</time>
      </trkpt>
      <trkpt lat="47.63616" lon="-2.77256">
        <ele>9.2</ele>
        <time>2020-06-06T12:58:50Z</time>
      </trkpt>
      <trkpt lat="47.63614" lon="-2.7726">
        <ele>9.3</ele>
        <time>2020-06-06T12:58:51Z</time>
      </trkpt>
      <trkpt lat="47.63612" lon="-2.77265">
        <ele>9.4</ele>
        <time>2020-06-06T12:58:52Z</time>
      </trkpt>
      <trkpt lat="47.63611" lon="-2.7727">
        <ele>9.4</ele>
        <time>2020-06-06T12:58:53Z</time>
      </trkpt>
      <trkpt lat="47.63609" lon="-2.77275">
        <ele>9.5</ele>
        <time>2020-06-06T12:58:54Z</time>
      </trkpt>
      <trkpt lat="47.63608" lon="-2.77279">
        <ele>9.6</ele>
        <time>2020-06-06T12:58:55Z</time>
      </trkpt>
      <trkpt lat="47.63606" lon="-2.77283">
        <ele>9.7</ele>
        <time>2020-06-06T12:58:56Z</time>
      </trkpt>
      <trkpt lat="47.63603" lon="-2.77288">
        <ele>9.9</ele>
        <time>2020-06-06T12:58:57Z</time>
      </trkpt>
      <trkpt lat="47.63602" lon="-2.7729">
        <ele>10</ele>
        <time>2020-06-06T12:58:58Z</time>
      </trkpt>
      <trkpt lat="47.63599" lon="-2.77293">
        <ele>10.1</ele>
        <time>2020-06-06T12:58:59Z</time>
      </trkpt>
      <trkpt lat="47.63596" lon="-2.77296">
        <ele>10.2</ele>
        <time>2020-06-06T12:59:00Z</time>
      </trkpt>
      <trkpt lat="47.63595" lon="-2.77299">
        <ele>10.3</ele>
        <time>2020-06-06T12:59:01Z</time>
      </trkpt>
      <trkpt lat="47.63592" lon="-2.77304">
        <ele>10.5</ele>
        <time>2020-06-06T12:59:02Z</time>
      </trkpt>
      <trkpt lat="47.6359" lon="-2.77308">
        <ele>10.6</ele>
        <time>2020-06-06T12:59:03Z</time>
      </trkpt>
      <trkpt lat="47.63589" lon="-2.77313">
        <ele>10.8</ele>
        <time>2020-06-06T12:59:04Z</time>
      </trkpt>
      <trkpt lat="47.63586" lon="-2.77317">
        <ele>10.9</ele>
        <time>2020-06-06T12:59:05Z</time>
      </trkpt>
      <trkpt lat="47.63584" lon="-2.77321">
        <ele>11.2</ele>
        <time>2020-06-06T12:59:06Z</time>
      </trkpt>
      <trkpt lat="47.63583" lon="-2.77325">
        <ele>11.3</ele>
        <time>2020-06-06T12:59:07Z</time>
      </trkpt>
      <trkpt lat="47.6358" lon="-2.77329">
        <ele>11.4</ele>
        <time>2020-06-06T12:59:08Z</time>
      </trkpt>
      <trkpt lat="47.63577" lon="-2.77333">
        <ele>11.6</ele>
        <time>2020-06-06T12:59:09Z</time>
      </trkpt>
      <trkpt lat="47.63573" lon="-2.77338">
        <ele>11.7</ele>
        <time>2020-06-06T12:59:10Z</time>
      </trkpt>
      <trkpt lat="47.6357" lon="-2.77342">
        <ele>11.9</ele>
        <time>2020-06-06T12:59:11Z</time>
      </trkpt>
      <trkpt lat="47.63568" lon="-2.77346">
        <ele>12</ele>
        <time>2020-06-06T12:59:12Z</time>
      </trkpt>
      <trkpt lat="47.63567" lon="-2.77352">
        <ele>12.2</ele>
        <time>2020-06-06T12:59:13Z</time>
      </trkpt>
      <trkpt lat="47.63565" lon="-2.77356">
        <ele>12.3</ele>
        <time>2020-06-06T12:59:14Z</time>
      </trkpt>
      <trkpt lat="47.63562" lon="-2.77361">
        <ele>12.5</ele>
        <time>2020-06-06T12:59:15Z</time>
      </trkpt>
      <trkpt lat="47.63559" lon="-2.77365">
        <ele>12.6</ele>
        <time>2020-06-06T12:59:16Z</time>
      </trkpt>
      <trkpt lat="47.63557" lon="-2.7737">
        <ele>12.7</ele>
        <time>2020-06-06T12:59:17Z</time>
      </trkpt>
      <trkpt lat="47.63553" lon="-2.77372">
        <ele>12.9</ele>
        <time>2020-06-06T12:59:18Z</time>
      </trkpt>
      <trkpt lat="47.63552" lon="-2.77378">
        <ele>13</ele>
        <time>2020-06-06T12:59:19Z</time>
      </trkpt>
      <trkpt lat="47.63549" lon="-2.77383">
        <ele>13.1</ele>
        <time>2020-06-06T12:59:20Z</time>
      </trkpt>
      <trkpt lat="47.63546" lon="-2.77387">
        <ele>13.2</ele>
        <time>2020-06-06T12:59:21Z</time>
      </trkpt>
      <trkpt lat="47.63543" lon="-2.77392">
        <ele>13.3</ele>
        <time>2020-06-06T12:59:22Z</time>
      </trkpt>
      <trkpt lat="47.63541" lon="-2.77395">
        <ele>13.4</ele>
        <time>2020-06-06T12:59:23Z</time>
      </trkpt>
      <trkpt lat="47.63539" lon="-2.77399">
        <ele>13.5</ele>
        <time>2020-06-06T12:59:24Z</time>
      </trkpt>
      <trkpt lat="47.63539" lon="-2.77403">
        <ele>13.6</ele>
        <time>2020-06-06T12:59:25Z</time>
      </trkpt>
      <trkpt lat="47.63537" lon="-2.77407">
        <ele>13.7</ele>
        <time>2020-06-06T12:59:26Z</time>
      </trkpt>
      <trkpt lat="47.63534" lon="-2.77411">
        <ele>13.8</ele>
        <time>2020-06-06T12:59:27Z</time>
      </trkpt>
      <trkpt lat="47.63532" lon="-2.77415">
        <ele>13.8</ele>
        <time>2020-06-06T12:59:28Z</time>
      </trkpt>
      <trkpt lat="47.63529" lon="-2.77419">
        <ele>13.9</ele>
        <time>2020-06-06T12:59:29Z</time>
      </trkpt>
      <trkpt lat="47.63527" lon="-2.77423">
        <ele>14</ele>
        <time>2020-06-06T12:59:30Z</time>
      </trkpt>
      <trkpt lat="47.63526" lon="-2.7743">
        <ele>14</ele>
        <time>2020-06-06T12:59:31Z</time>
      </trkpt>
      <trkpt lat="47.63523" lon="-2.77435">
        <ele>14.1</ele>
        <time>2020-06-06T12:59:32Z</time>
      </trkpt>
      <trkpt lat="47.63519" lon="-2.7744">
        <ele>14.2</ele>
        <time>2020-06-06T12:59:33Z</time>
      </trkpt>
      <trkpt lat="47.63516" lon="-2.77445">
        <ele>14.2</ele>
        <time>2020-06-06T12:59:34Z</time>
      </trkpt>
      <trkpt lat="47.63513" lon="-2.77449">
        <ele>14.3</ele>
        <time>2020-06-06T12:59:35Z</time>
      </trkpt>
      <trkpt lat="47.63511" lon="-2.77453">
        <ele>14.4</ele>
        <time>2020-06-06T12:59:36Z</time>
      </trkpt>
      <trkpt lat="47.63508" lon="-2.77457">
        <ele>14.4</ele>
        <time>2020-06-06T12:59:37Z</time>
      </trkpt>
      <trkpt lat="47.63507" lon="-2.77461">
        <ele>14.4</ele>
        <time>2020-06-06T12:59:38Z</time>
      </trkpt>
      <trkpt lat="47.63506" lon="-2.77466">
        <ele>14.5</ele>
        <time>2020-06-06T12:59:39Z</time>
      </trkpt>
      <trkpt lat="47.63506" lon="-2.77467">
        <ele>14.5</ele>
        <time>2020-06-06T12:59:40Z</time>
      </trkpt>
      <trkpt lat="47.63503" lon="-2.77471">
        <ele>14.6</ele>
        <time>2020-06-06T12:59:41Z</time>
      </trkpt>
      <trkpt lat="47.63502" lon="-2.77472">
        <ele>14.6</ele>
        <time>2020-06-06T12:59:42Z</time>
      </trkpt>
      <trkpt lat="47.63498" lon="-2.77474">
        <ele>14.6</ele>
        <time>2020-06-06T12:59:43Z</time>
      </trkpt>
      <trkpt lat="47.63497" lon="-2.77474">
        <ele>14.6</ele>
        <time>2020-06-06T12:59:44Z</time>
      </trkpt>
      <trkpt lat="47.63495" lon="-2.77477">
        <ele>14.6</ele>
        <time>2020-06-06T12:59:45Z</time>
      </trkpt>
      <trkpt lat="47.63494" lon="-2.77478">
        <ele>14.6</ele>
        <time>2020-06-06T12:59:46Z</time>
      </trkpt>
      <trkpt lat="47.63493" lon="-2.7748">
        <ele>14.6</ele>
        <time>2020-06-06T12:59:47Z</time>
      </trkpt>
      <trkpt lat="47.63492" lon="-2.77481">
        <ele>14.6</ele>
        <time>2020-06-06T12:59:48Z</time>
      </trkpt>
      <trkpt lat="47.63492" lon="-2.77481">
        <ele>14.6</ele>
        <time>2020-06-06T12:59:49Z</time>
      </trkpt>
      <trkpt lat="47.63491" lon="-2.77484">
        <ele>14.6</ele>
        <time>2020-06-06T12:59:50Z</time>
      </trkpt>
      <trkpt lat="47.6349" lon="-2.77482">
        <ele>14.6</ele>
        <time>2020-06-06T12:59:51Z</time>
      </trkpt>
      <trkpt lat="47.6349" lon="-2.77482">
        <ele>14.6</ele>
        <time>2020-06-06T12:59:52Z</time>
      </trkpt>
      <trkpt lat="47.6349" lon="-2.77482">
        <ele>14.6</ele>
        <time>2020-06-06T12:59:53Z</time>
      </trkpt>
      <trkpt lat="47.6349" lon="-2.77483">
        <ele>14.6</ele>
        <time>2020-06-06T12:59:54Z</time>
      </trkpt>
      <trkpt lat="47.6349" lon="-2.77485">
        <ele>14.6</ele>
        <time>2020-06-06T12:59:55Z</time>
      </trkpt>
      <trkpt lat="47.6349" lon="-2.77485">
        <ele>14.7</ele>
        <time>2020-06-06T12:59:56Z</time>
      </trkpt>
      <trkpt lat="47.6349" lon="-2.77486">
        <ele>14.7</ele>
        <time>2020-06-06T12:59:57Z</time>
      </trkpt>
      <trkpt lat="47.6349" lon="-2.77487">
        <ele>14.7</ele>
        <time>2020-06-06T12:59:58Z</time>
      </trkpt>
      <trkpt lat="47.6349" lon="-2.77486">
        <ele>14.7</ele>
        <time>2020-06-06T12:59:59Z</time>
      </trkpt>
      <trkpt lat="47.63489" lon="-2.77486">
        <ele>14.7</ele>
        <time>2020-06-06T13:00:00Z</time>
      </trkpt>
      <trkpt lat="47.63489" lon="-2.77485">
        <ele>14.7</ele>
        <time>2020-06-06T13:00:01Z</time>
      </trkpt>
      <trkpt lat="47.63489" lon="-2.77484">
        <ele>14.7</ele>
        <time>2020-06-06T13:00:02Z</time>
      </trkpt>
      <trkpt lat="47.63488" lon="-2.77483">
        <ele>14.7</ele>
        <time>2020-06-06T13:00:03Z</time>
      </trkpt>
      <trkpt lat="47.63488" lon="-2.77483">
        <ele>14.7</ele>
        <time>2020-06-06T13:00:04Z</time>
      </trkpt>
      <trkpt lat="47.63488" lon="-2.77483">
        <ele>14.7</ele>
        <time>2020-06-06T13:00:05Z</time>
      </trkpt>
      <trkpt lat="47.63487" lon="-2.77483">
        <ele>14.7</ele>
        <time>2020-06-06T13:00:06Z</time>
      </trkpt>
      <trkpt lat="47.63487" lon="-2.77482">
        <ele>14.7</ele>
        <time>2020-06-06T13:00:07Z</time>
      </trkpt>
      <trkpt lat="47.63487" lon="-2.77483">
        <ele>14.7</ele>
        <time>2020-06-06T13:00:08Z</time>
      </trkpt>
      <trkpt lat="47.63488" lon="-2.77484">
        <ele>14.7</ele>
        <time>2020-06-06T13:00:09Z</time>
      </trkpt>
      <trkpt lat="47.63488" lon="-2.77485">
        <ele>14.7</ele>
        <time>2020-06-06T13:00:10Z</time>
      </trkpt>
      <trkpt lat="47.63487" lon="-2.77483">
        <ele>14.7</ele>
        <time>2020-06-06T13:00:11Z</time>
      </trkpt>
      <trkpt lat="47.63487" lon="-2.77483">
        <ele>14.7</ele>
        <time>2020-06-06T13:00:12Z</time>
      </trkpt>
      <trkpt lat="47.63486" lon="-2.77484">
        <ele>14.7</ele>
        <time>2020-06-06T13:00:13Z</time>
      </trkpt>
      <trkpt lat="47.63484" lon="-2.77485">
        <ele>14.7</ele>
        <time>2020-06-06T13:00:14Z</time>
      </trkpt>
      <trkpt lat="47.63484" lon="-2.77484">
        <ele>14.7</ele>
        <time>2020-06-06T13:00:15Z</time>
      </trkpt>
      <trkpt lat="47.63485" lon="-2.77482">
        <ele>14.8</ele>
        <time>2020-06-06T13:00:16Z</time>
      </trkpt>
      <trkpt lat="47.63486" lon="-2.7748">
        <ele>14.8</ele>
        <time>2020-06-06T13:00:17Z</time>
      </trkpt>
      <trkpt lat="47.6348" lon="-2.77484">
        <ele>14.8</ele>
        <time>2020-06-06T13:00:53Z</time>
      </trkpt>
      <trkpt lat="47.63478" lon="-2.77487">
        <ele>14.8</ele>
        <time>2020-06-06T13:00:54Z</time>
      </trkpt>
      <trkpt lat="47.63474" lon="-2.77491">
        <ele>14.9</ele>
        <time>2020-06-06T13:00:55Z</time>
      </trkpt>
      <trkpt lat="47.63471" lon="-2.77495">
        <ele>14.9</ele>
        <time>2020-06-06T13:00:56Z</time>
      </trkpt>
      <trkpt lat="47.63467" lon="-2.775">
        <ele>15</ele>
        <time>2020-06-06T13:00:57Z</time>
      </trkpt>
      <trkpt lat="47.63464" lon="-2.77504">
        <ele>15</ele>
        <time>2020-06-06T13:00:58Z</time>
      </trkpt>
      <trkpt lat="47.6346" lon="-2.77508">
        <ele>15</ele>
        <time>2020-06-06T13:00:59Z</time>
      </trkpt>
      <trkpt lat="47.63456" lon="-2.77512">
        <ele>15.1</ele>
        <time>2020-06-06T13:01:00Z</time>
      </trkpt>
      <trkpt lat="47.63452" lon="-2.77516">
        <ele>15.1</ele>
        <time>2020-06-06T13:01:01Z</time>
      </trkpt>
      <trkpt lat="47.63447" lon="-2.7752">
        <ele>15.1</ele>
        <time>2020-06-06T13:01:02Z</time>
      </trkpt>
      <trkpt lat="47.63444" lon="-2.77524">
        <ele>15.1</ele>
        <time>2020-06-06T13:01:03Z</time>
      </trkpt>
      <trkpt lat="47.63441" lon="-2.77528">
        <ele>15.2</ele>
        <time>2020-06-06T13:01:04Z</time>
      </trkpt>
      <trkpt lat="47.63438" lon="-2.77531">
        <ele>15.2</ele>
        <time>2020-06-06T13:01:05Z</time>
      </trkpt>
      <trkpt lat="47.63434" lon="-2.77535">
        <ele>15.3</ele>
        <time>2020-06-06T13:01:06Z</time>
      </trkpt>
      <trkpt lat="47.63432" lon="-2.77539">
        <ele>15.3</ele>
        <time>2020-06-06T13:01:07Z</time>
      </trkpt>
      <trkpt lat="47.63429" lon="-2.77542">
        <ele>15.3</ele>
        <time>2020-06-06T13:01:08Z</time>
      </trkpt>
      <trkpt lat="47.63426" lon="-2.77546">
        <ele>15.4</ele>
        <time>2020-06-06T13:01:09Z</time>
      </trkpt>
      <trkpt lat="47.63424" lon="-2.77549">
        <ele>15.4</ele>
        <time>2020-06-06T13:01:10Z</time>
      </trkpt>
      <trkpt lat="47.63422" lon="-2.77553">
        <ele>15.4</ele>
        <time>2020-06-06T13:01:11Z</time>
      </trkpt>
      <trkpt lat="47.63421" lon="-2.77556">
        <ele>15.5</ele>
        <time>2020-06-06T13:01:12Z</time>
      </trkpt>
      <trkpt lat="47.63419" lon="-2.77559">
        <ele>15.5</ele>
        <time>2020-06-06T13:01:13Z</time>
      </trkpt>
      <trkpt lat="47.63416" lon="-2.77564">
        <ele>15.5</ele>
        <time>2020-06-06T13:01:14Z</time>
      </trkpt>
      <trkpt lat="47.63414" lon="-2.77565">
        <ele>15.5</ele>
        <time>2020-06-06T13:01:15Z</time>
      </trkpt>
      <trkpt lat="47.63412" lon="-2.77569">
        <ele>15.5</ele>
        <time>2020-06-06T13:01:16Z</time>
      </trkpt>
      <trkpt lat="47.63411" lon="-2.77571">
        <ele>15.5</ele>
        <time>2020-06-06T13:01:17Z</time>
      </trkpt>
      <trkpt lat="47.63409" lon="-2.77574">
        <ele>15.5</ele>
        <time>2020-06-06T13:01:18Z</time>
      </trkpt>
      <trkpt lat="47.63406" lon="-2.77576">
        <ele>15.5</ele>
        <time>2020-06-06T13:01:19Z</time>
      </trkpt>
      <trkpt lat="47.63406" lon="-2.77578">
        <ele>15.5</ele>
        <time>2020-06-06T13:01:20Z</time>
      </trkpt>
      <trkpt lat="47.63404" lon="-2.77583">
        <ele>15.5</ele>
        <time>2020-06-06T13:01:21Z</time>
      </trkpt>
      <trkpt lat="47.63403" lon="-2.77584">
        <ele>15.5</ele>
        <time>2020-06-06T13:01:22Z</time>
      </trkpt>
      <trkpt lat="47.63401" lon="-2.77588">
        <ele>15.5</ele>
        <time>2020-06-06T13:01:23Z</time>
      </trkpt>
      <trkpt lat="47.63399" lon="-2.77593">
        <ele>15.4</ele>
        <time>2020-06-06T13:01:24Z</time>
      </trkpt>
      <trkpt lat="47.63399" lon="-2.77594">
        <ele>15.4</ele>
        <time>2020-06-06T13:01:25Z</time>
      </trkpt>
      <trkpt lat="47.63398" lon="-2.77598">
        <ele>15.3</ele>
        <time>2020-06-06T13:01:26Z</time>
      </trkpt>
      <trkpt lat="47.63395" lon="-2.77603">
        <ele>15.2</ele>
        <time>2020-06-06T13:01:27Z</time>
      </trkpt>
      <trkpt lat="47.63394" lon="-2.77605">
        <ele>15.2</ele>
        <time>2020-06-06T13:01:28Z</time>
      </trkpt>
      <trkpt lat="47.63393" lon="-2.77609">
        <ele>15.1</ele>
        <time>2020-06-06T13:01:29Z</time>
      </trkpt>
      <trkpt lat="47.6339" lon="-2.77612">
        <ele>15</ele>
        <time>2020-06-06T13:01:30Z</time>
      </trkpt>
      <trkpt lat="47.63387" lon="-2.77617">
        <ele>14.8</ele>
        <time>2020-06-06T13:01:31Z</time>
      </trkpt>
      <trkpt lat="47.63384" lon="-2.77621">
        <ele>14.6</ele>
        <time>2020-06-06T13:01:32Z</time>
      </trkpt>
      <trkpt lat="47.63381" lon="-2.77625">
        <ele>14.4</ele>
        <time>2020-06-06T13:01:33Z</time>
      </trkpt>
      <trkpt lat="47.63378" lon="-2.7763">
        <ele>14.2</ele>
        <time>2020-06-06T13:01:34Z</time>
      </trkpt>
      <trkpt lat="47.63374" lon="-2.77635">
        <ele>13.8</ele>
        <time>2020-06-06T13:01:35Z</time>
      </trkpt>
      <trkpt lat="47.63371" lon="-2.7764">
        <ele>13.5</ele>
        <time>2020-06-06T13:01:36Z</time>
      </trkpt>
      <trkpt lat="47.63368" lon="-2.77647">
        <ele>13.2</ele>
        <time>2020-06-06T13:01:37Z</time>
      </trkpt>
      <trkpt lat="47.63364" lon="-2.77654">
        <ele>12.7</ele>
        <time>2020-06-06T13:01:38Z</time>
      </trkpt>
      <trkpt lat="47.63361" lon="-2.77662">
        <ele>12.3</ele>
        <time>2020-06-06T13:01:39Z</time>
      </trkpt>
      <trkpt lat="47.63357" lon="-2.77671">
        <ele>11.8</ele>
        <time>2020-06-06T13:01:40Z</time>
      </trkpt>
      <trkpt lat="47.63352" lon="-2.77679">
        <ele>11.3</ele>
        <time>2020-06-06T13:01:41Z</time>
      </trkpt>
      <trkpt lat="47.63347" lon="-2.77688">
        <ele>10.8</ele>
        <time>2020-06-06T13:01:42Z</time>
      </trkpt>
      <trkpt lat="47.63342" lon="-2.77698">
        <ele>10.2</ele>
        <time>2020-06-06T13:01:43Z</time>
      </trkpt>
      <trkpt lat="47.63337" lon="-2.7771">
        <ele>9.5</ele>
        <time>2020-06-06T13:01:44Z</time>
      </trkpt>
      <trkpt lat="47.63334" lon="-2.77719">
        <ele>9</ele>
        <time>2020-06-06T13:01:45Z</time>
      </trkpt>
      <trkpt lat="47.63331" lon="-2.77729">
        <ele>8.5</ele>
        <time>2020-06-06T13:01:46Z</time>
      </trkpt>
      <trkpt lat="47.63329" lon="-2.7774">
        <ele>8</ele>
        <time>2020-06-06T13:01:47Z</time>
      </trkpt>
      <trkpt lat="47.63326" lon="-2.77752">
        <ele>7.5</ele>
        <time>2020-06-06T13:01:48Z</time>
      </trkpt>
      <trkpt lat="47.63324" lon="-2.77763">
        <ele>6.9</ele>
        <time>2020-06-06T13:01:49Z</time>
      </trkpt>
      <trkpt lat="47.63321" lon="-2.77775">
        <ele>6.4</ele>
        <time>2020-06-06T13:01:50Z</time>
      </trkpt>
      <trkpt lat="47.63318" lon="-2.77788">
        <ele>6</ele>
        <time>2020-06-06T13:01:51Z</time>
      </trkpt>
      <trkpt lat="47.63316" lon="-2.77801">
        <ele>5.5</ele>
        <time>2020-06-06T13:01:52Z</time>
      </trkpt>
      <trkpt lat="47.63315" lon="-2.77813">
        <ele>5.1</ele>
        <time>2020-06-06T13:01:53Z</time>
      </trkpt>
      <trkpt lat="47.63313" lon="-2.77825">
        <ele>4.7</ele>
        <time>2020-06-06T13:01:54Z</time>
      </trkpt>
      <trkpt lat="47.63311" lon="-2.77837">
        <ele>4.4</ele>
        <time>2020-06-06T13:01:55Z</time>
      </trkpt>
      <trkpt lat="47.6331" lon="-2.77849">
        <ele>4.1</ele>
        <time>2020-06-06T13:01:56Z</time>
      </trkpt>
      <trkpt lat="47.6331" lon="-2.77861">
        <ele>3.9</ele>
        <time>2020-06-06T13:01:57Z</time>
      </trkpt>
      <trkpt lat="47.63309" lon="-2.77873">
        <ele>3.7</ele>
        <time>2020-06-06T13:01:58Z</time>
      </trkpt>
      <trkpt lat="47.6331" lon="-2.77885">
        <ele>3.5</ele>
        <time>2020-06-06T13:01:59Z</time>
      </trkpt>
      <trkpt lat="47.63311" lon="-2.77896">
        <ele>3.4</ele>
        <time>2020-06-06T13:02:00Z</time>
      </trkpt>
      <trkpt lat="47.63311" lon="-2.77907">
        <ele>3.2</ele>
        <time>2020-06-06T13:02:01Z</time>
      </trkpt>
      <trkpt lat="47.63312" lon="-2.77919">
        <ele>3.1</ele>
        <time>2020-06-06T13:02:02Z</time>
      </trkpt>
      <trkpt lat="47.63313" lon="-2.77929">
        <ele>3</ele>
        <time>2020-06-06T13:02:03Z</time>
      </trkpt>
      <trkpt lat="47.63313" lon="-2.7794">
        <ele>2.9</ele>
        <time>2020-06-06T13:02:04Z</time>
      </trkpt>
      <trkpt lat="47.63313" lon="-2.7795">
        <ele>2.8</ele>
        <time>2020-06-06T13:02:05Z</time>
      </trkpt>
      <trkpt lat="47.63311" lon="-2.7796">
        <ele>2.8</ele>
        <time>2020-06-06T13:02:06Z</time>
      </trkpt>
      <trkpt lat="47.63309" lon="-2.77969">
        <ele>2.8</ele>
        <time>2020-06-06T13:02:07Z</time>
      </trkpt>
      <trkpt lat="47.63306" lon="-2.77977">
        <ele>2.8</ele>
        <time>2020-06-06T13:02:08Z</time>
      </trkpt>
      <trkpt lat="47.63303" lon="-2.77984">
        <ele>2.8</ele>
        <time>2020-06-06T13:02:09Z</time>
      </trkpt>
      <trkpt lat="47.633" lon="-2.77991">
        <ele>2.9</ele>
        <time>2020-06-06T13:02:10Z</time>
      </trkpt>
      <trkpt lat="47.63297" lon="-2.77997">
        <ele>2.9</ele>
        <time>2020-06-06T13:02:11Z</time>
      </trkpt>
      <trkpt lat="47.63293" lon="-2.78003">
        <ele>2.9</ele>
        <time>2020-06-06T13:02:12Z</time>
      </trkpt>
      <trkpt lat="47.63289" lon="-2.78009">
        <ele>2.9</ele>
        <time>2020-06-06T13:02:13Z</time>
      </trkpt>
      <trkpt lat="47.63285" lon="-2.78016">
        <ele>2.9</ele>
        <time>2020-06-06T13:02:14Z</time>
      </trkpt>
      <trkpt lat="47.63281" lon="-2.78022">
        <ele>2.9</ele>
        <time>2020-06-06T13:02:15Z</time>
      </trkpt>
      <trkpt lat="47.63277" lon="-2.78028">
        <ele>3</ele>
        <time>2020-06-06T13:02:16Z</time>
      </trkpt>
      <trkpt lat="47.63273" lon="-2.78034">
        <ele>3</ele>
        <time>2020-06-06T13:02:17Z</time>
      </trkpt>
      <trkpt lat="47.63269" lon="-2.7804">
        <ele>3.1</ele>
        <time>2020-06-06T13:02:18Z</time>
      </trkpt>
      <trkpt lat="47.63265" lon="-2.78046">
        <ele>3.1</ele>
        <time>2020-06-06T13:02:19Z</time>
      </trkpt>
      <trkpt lat="47.63262" lon="-2.78052">
        <ele>3.2</ele>
        <time>2020-06-06T13:02:20Z</time>
      </trkpt>
      <trkpt lat="47.63258" lon="-2.78057">
        <ele>3.2</ele>
        <time>2020-06-06T13:02:21Z</time>
      </trkpt>
      <trkpt lat="47.63255" lon="-2.78062">
        <ele>3.2</ele>
        <time>2020-06-06T13:02:22Z</time>
      </trkpt>
      <trkpt lat="47.63251" lon="-2.78066">
        <ele>3.2</ele>
        <time>2020-06-06T13:02:23Z</time>
      </trkpt>
      <trkpt lat="47.63246" lon="-2.7807">
        <ele>3.2</ele>
        <time>2020-06-06T13:02:24Z</time>
      </trkpt>
      <trkpt lat="47.63242" lon="-2.78073">
        <ele>3.2</ele>
        <time>2020-06-06T13:02:25Z</time>
      </trkpt>
      <trkpt lat="47.63238" lon="-2.78075">
        <ele>3.2</ele>
        <time>2020-06-06T13:02:26Z</time>
      </trkpt>
      <trkpt lat="47.63234" lon="-2.78077">
        <ele>3.2</ele>
        <time>2020-06-06T13:02:27Z</time>
      </trkpt>
      <trkpt lat="47.6323" lon="-2.78078">
        <ele>3.2</ele>
        <time>2020-06-06T13:02:28Z</time>
      </trkpt>
      <trkpt lat="47.63228" lon="-2.7808">
        <ele>3.2</ele>
        <time>2020-06-06T13:02:29Z</time>
      </trkpt>
      <trkpt lat="47.63226" lon="-2.78081">
        <ele>3.1</ele>
        <time>2020-06-06T13:02:30Z</time>
      </trkpt>
      <trkpt lat="47.63225" lon="-2.7808">
        <ele>3.1</ele>
        <time>2020-06-06T13:02:31Z</time>
      </trkpt>
      <trkpt lat="47.63226" lon="-2.7808">
        <ele>3.1</ele>
        <time>2020-06-06T13:02:32Z</time>
      </trkpt>
      <trkpt lat="47.63227" lon="-2.78081">
        <ele>3.1</ele>
        <time>2020-06-06T13:02:33Z</time>
      </trkpt>
      <trkpt lat="47.63227" lon="-2.78082">
        <ele>3.1</ele>
        <time>2020-06-06T13:02:34Z</time>
      </trkpt>
      <trkpt lat="47.63227" lon="-2.78082">
        <ele>3.1</ele>
        <time>2020-06-06T13:02:35Z</time>
      </trkpt>
      <trkpt lat="47.63227" lon="-2.78082">
        <ele>3.1</ele>
        <time>2020-06-06T13:02:36Z</time>
      </trkpt>
      <trkpt lat="47.63228" lon="-2.78083">
        <ele>3.1</ele>
        <time>2020-06-06T13:02:37Z</time>
      </trkpt>
      <trkpt lat="47.63228" lon="-2.78083">
        <ele>3.1</ele>
        <time>2020-06-06T13:02:38Z</time>
      </trkpt>
      <trkpt lat="47.63228" lon="-2.78083">
        <ele>3.1</ele>
        <time>2020-06-06T13:02:39Z</time>
      </trkpt>
      <trkpt lat="47.63227" lon="-2.78082">
        <ele>3.1</ele>
        <time>2020-06-06T13:02:40Z</time>
      </trkpt>
      <trkpt lat="47.63227" lon="-2.78083">
        <ele>3.1</ele>
        <time>2020-06-06T13:02:41Z</time>
      </trkpt>
      <trkpt lat="47.63235" lon="-2.78079">
        <ele>3.2</ele>
        <time>2020-06-06T13:03:12Z</time>
      </trkpt>
      <trkpt lat="47.63235" lon="-2.78079">
        <ele>3.2</ele>
        <time>2020-06-06T13:03:13Z</time>
      </trkpt>
      <trkpt lat="47.63236" lon="-2.78079">
        <ele>3.2</ele>
        <time>2020-06-06T13:03:14Z</time>
      </trkpt>
      <trkpt lat="47.63236" lon="-2.78079">
        <ele>3.2</ele>
        <time>2020-06-06T13:03:15Z</time>
      </trkpt>
      <trkpt lat="47.63236" lon="-2.7808">
        <ele>3.2</ele>
        <time>2020-06-06T13:03:16Z</time>
      </trkpt>
      <trkpt lat="47.63236" lon="-2.7808">
        <ele>3.2</ele>
        <time>2020-06-06T13:03:17Z</time>
      </trkpt>
      <trkpt lat="47.63237" lon="-2.78079">
        <ele>3.2</ele>
        <time>2020-06-06T13:03:18Z</time>
      </trkpt>
      <trkpt lat="47.63237" lon="-2.78078">
        <ele>3.2</ele>
        <time>2020-06-06T13:03:19Z</time>
      </trkpt>
      <trkpt lat="47.63237" lon="-2.78078">
        <ele>3.2</ele>
        <time>2020-06-06T13:03:20Z</time>
      </trkpt>
      <trkpt lat="47.63237" lon="-2.78078">
        <ele>3.2</ele>
        <time>2020-06-06T13:03:21Z</time>
      </trkpt>
      <trkpt lat="47.63237" lon="-2.78079">
        <ele>3.2</ele>
        <time>2020-06-06T13:03:22Z</time>
      </trkpt>
      <trkpt lat="47.63238" lon="-2.78078">
        <ele>3.2</ele>
        <time>2020-06-06T13:03:23Z</time>
      </trkpt>
      <trkpt lat="47.63238" lon="-2.78079">
        <ele>3.2</ele>
        <time>2020-06-06T13:03:24Z</time>
      </trkpt>
      <trkpt lat="47.63238" lon="-2.78079">
        <ele>3.2</ele>
        <time>2020-06-06T13:03:25Z</time>
      </trkpt>
      <trkpt lat="47.63238" lon="-2.78079">
        <ele>3.2</ele>
        <time>2020-06-06T13:03:26Z</time>
      </trkpt>
      <trkpt lat="47.63239" lon="-2.78079">
        <ele>3.2</ele>
        <time>2020-06-06T13:03:27Z</time>
      </trkpt>
      <trkpt lat="47.6324" lon="-2.78078">
        <ele>3.2</ele>
        <time>2020-06-06T13:03:28Z</time>
      </trkpt>
      <trkpt lat="47.6324" lon="-2.78079">
        <ele>3.2</ele>
        <time>2020-06-06T13:03:29Z</time>
      </trkpt>
      <trkpt lat="47.63241" lon="-2.78078">
        <ele>3.2</ele>
        <time>2020-06-06T13:03:30Z</time>
      </trkpt>
      <trkpt lat="47.63241" lon="-2.78078">
        <ele>3.2</ele>
        <time>2020-06-06T13:03:31Z</time>
      </trkpt>
      <trkpt lat="47.63241" lon="-2.78078">
        <ele>3.2</ele>
        <time>2020-06-06T13:08:48Z</time>
      </trkpt>
      <trkpt lat="47.63241" lon="-2.78078">
        <ele>3.2</ele>
        <time>2020-06-06T13:08:49Z</time>
      </trkpt>
      <trkpt lat="47.63241" lon="-2.78078">
        <ele>3.2</ele>
        <time>2020-06-06T13:08:50Z</time>
      </trkpt>
      <trkpt lat="47.63242" lon="-2.78078">
        <ele>3.2</ele>
        <time>2020-06-06T13:08:51Z</time>
      </trkpt>
      <trkpt lat="47.63242" lon="-2.78078">
        <ele>3.2</ele>
        <time>2020-06-06T13:08:52Z</time>
      </trkpt>
      <trkpt lat="47.63242" lon="-2.78078">
        <ele>3.2</ele>
        <time>2020-06-06T13:08:53Z</time>
      </trkpt>
      <trkpt lat="47.63242" lon="-2.78078">
        <ele>3.2</ele>
        <time>2020-06-06T13:08:54Z</time>
      </trkpt>
      <trkpt lat="47.63242" lon="-2.78078">
        <ele>3.2</ele>
        <time>2020-06-06T13:08:55Z</time>
      </trkpt>
      <trkpt lat="47.63242" lon="-2.78078">
        <ele>3.2</ele>
        <time>2020-06-06T13:08:56Z</time>
      </trkpt>
      <trkpt lat="47.63243" lon="-2.78078">
        <ele>3.2</ele>
        <time>2020-06-06T13:08:57Z</time>
      </trkpt>
      <trkpt lat="47.63243" lon="-2.78078">
        <ele>3.2</ele>
        <time>2020-06-06T13:08:58Z</time>
      </trkpt>
      <trkpt lat="47.63243" lon="-2.78078">
        <ele>3.2</ele>
        <time>2020-06-06T13:09:07Z</time>
      </trkpt>
      <trkpt lat="47.63243" lon="-2.78078">
        <ele>3.2</ele>
        <time>2020-06-06T13:09:08Z</time>
      </trkpt>
      <trkpt lat="47.63246" lon="-2.78073">
        <ele>3.2</ele>
        <time>2020-06-06T13:09:09Z</time>
      </trkpt>
      <trkpt lat="47.63246" lon="-2.78071">
        <ele>3.2</ele>
        <time>2020-06-06T13:09:10Z</time>
      </trkpt>
      <trkpt lat="47.63249" lon="-2.78068">
        <ele>3.2</ele>
        <time>2020-06-06T13:09:11Z</time>
      </trkpt>
      <trkpt lat="47.63252" lon="-2.78065">
        <ele>3.2</ele>
        <time>2020-06-06T13:09:12Z</time>
      </trkpt>
      <trkpt lat="47.63255" lon="-2.78062">
        <ele>3.2</ele>
        <time>2020-06-06T13:09:13Z</time>
      </trkpt>
      <trkpt lat="47.63258" lon="-2.78058">
        <ele>3.2</ele>
        <time>2020-06-06T13:09:14Z</time>
      </trkpt>
      <trkpt lat="47.6326" lon="-2.78052">
        <ele>3.2</ele>
        <time>2020-06-06T13:09:15Z</time>
      </trkpt>
      <trkpt lat="47.63263" lon="-2.78047">
        <ele>3.1</ele>
        <time>2020-06-06T13:09:16Z</time>
      </trkpt>
      <trkpt lat="47.63266" lon="-2.78043">
        <ele>3.1</ele>
        <time>2020-06-06T13:09:17Z</time>
      </trkpt>
      <trkpt lat="47.63269" lon="-2.78039">
        <ele>3.1</ele>
        <time>2020-06-06T13:09:18Z</time>
      </trkpt>
      <trkpt lat="47.63271" lon="-2.78034">
        <ele>3.1</ele>
        <time>2020-06-06T13:09:19Z</time>
      </trkpt>
      <trkpt lat="47.63274" lon="-2.7803">
        <ele>3</ele>
        <time>2020-06-06T13:09:20Z</time>
      </trkpt>
      <trkpt lat="47.63277" lon="-2.78026">
        <ele>3</ele>
        <time>2020-06-06T13:09:21Z</time>
      </trkpt>
      <trkpt lat="47.6328" lon="-2.78022">
        <ele>3</ele>
        <time>2020-06-06T13:09:22Z</time>
      </trkpt>
      <trkpt lat="47.63282" lon="-2.78017">
        <ele>2.9</ele>
        <time>2020-06-06T13:09:23Z</time>
      </trkpt>
      <trkpt lat="47.63285" lon="-2.78011">
        <ele>2.9</ele>
        <time>2020-06-06T13:09:24Z</time>
      </trkpt>
      <trkpt lat="47.63287" lon="-2.78006">
        <ele>2.9</ele>
        <time>2020-06-06T13:09:25Z</time>
      </trkpt>
      <trkpt lat="47.63288" lon="-2.78">
        <ele>2.9</ele>
        <time>2020-06-06T13:09:26Z</time>
      </trkpt>
      <trkpt lat="47.6329" lon="-2.77995">
        <ele>2.9</ele>
        <time>2020-06-06T13:09:27Z</time>
      </trkpt>
      <trkpt lat="47.63292" lon="-2.77989">
        <ele>2.9</ele>
        <time>2020-06-06T13:09:28Z</time>
      </trkpt>
      <trkpt lat="47.63295" lon="-2.77985">
        <ele>2.9</ele>
        <time>2020-06-06T13:09:29Z</time>
      </trkpt>
      <trkpt lat="47.63297" lon="-2.77979">
        <ele>2.8</ele>
        <time>2020-06-06T13:09:30Z</time>
      </trkpt>
      <trkpt lat="47.633" lon="-2.77974">
        <ele>2.8</ele>
        <time>2020-06-06T13:09:31Z</time>
      </trkpt>
      <trkpt lat="47.63302" lon="-2.77968">
        <ele>2.8</ele>
        <time>2020-06-06T13:09:32Z</time>
      </trkpt>
      <trkpt lat="47.63303" lon="-2.77962">
        <ele>2.8</ele>
        <time>2020-06-06T13:09:33Z</time>
      </trkpt>
      <trkpt lat="47.63305" lon="-2.77955">
        <ele>2.8</ele>
        <time>2020-06-06T13:09:34Z</time>
      </trkpt>
      <trkpt lat="47.63306" lon="-2.77949">
        <ele>2.8</ele>
        <time>2020-06-06T13:09:35Z</time>
      </trkpt>
      <trkpt lat="47.63307" lon="-2.77943">
        <ele>2.8</ele>
        <time>2020-06-06T13:09:36Z</time>
      </trkpt>
      <trkpt lat="47.63307" lon="-2.77936">
        <ele>2.9</ele>
        <time>2020-06-06T13:09:37Z</time>
      </trkpt>
      <trkpt lat="47.63306" lon="-2.77929">
        <ele>3</ele>
        <time>2020-06-06T13:09:38Z</time>
      </trkpt>
      <trkpt lat="47.63305" lon="-2.77922">
        <ele>3</ele>
        <time>2020-06-06T13:09:39Z</time>
      </trkpt>
      <trkpt lat="47.63305" lon="-2.77915">
        <ele>3.1</ele>
        <time>2020-06-06T13:09:40Z</time>
      </trkpt>
      <trkpt lat="47.63304" lon="-2.77908">
        <ele>3.2</ele>
        <time>2020-06-06T13:09:41Z</time>
      </trkpt>
      <trkpt lat="47.63303" lon="-2.77902">
        <ele>3.3</ele>
        <time>2020-06-06T13:09:42Z</time>
      </trkpt>
      <trkpt lat="47.63303" lon="-2.77896">
        <ele>3.4</ele>
        <time>2020-06-06T13:09:43Z</time>
      </trkpt>
      <trkpt lat="47.63302" lon="-2.77889">
        <ele>3.5</ele>
        <time>2020-06-06T13:09:44Z</time>
      </trkpt>
      <trkpt lat="47.63302" lon="-2.77883">
        <ele>3.6</ele>
        <time>2020-06-06T13:09:45Z</time>
      </trkpt>
      <trkpt lat="47.63303" lon="-2.77877">
        <ele>3.7</ele>
        <time>2020-06-06T13:09:46Z</time>
      </trkpt>
      <trkpt lat="47.63303" lon="-2.77872">
        <ele>3.8</ele>
        <time>2020-06-06T13:09:47Z</time>
      </trkpt>
      <trkpt lat="47.63302" lon="-2.77866">
        <ele>3.9</ele>
        <time>2020-06-06T13:09:48Z</time>
      </trkpt>
      <trkpt lat="47.63302" lon="-2.77859">
        <ele>4</ele>
        <time>2020-06-06T13:09:49Z</time>
      </trkpt>
      <trkpt lat="47.63302" lon="-2.77853">
        <ele>4.1</ele>
        <time>2020-06-06T13:09:50Z</time>
      </trkpt>
      <trkpt lat="47.63302" lon="-2.77847">
        <ele>4.2</ele>
        <time>2020-06-06T13:09:51Z</time>
      </trkpt>
      <trkpt lat="47.63302" lon="-2.77841">
        <ele>4.2</ele>
        <time>2020-06-06T13:09:52Z</time>
      </trkpt>
      <trkpt lat="47.63303" lon="-2.77836">
        <ele>4.4</ele>
        <time>2020-06-06T13:09:53Z</time>
      </trkpt>
      <trkpt lat="47.63303" lon="-2.77831">
        <ele>4.5</ele>
        <time>2020-06-06T13:09:54Z</time>
      </trkpt>
      <trkpt lat="47.63304" lon="-2.77825">
        <ele>4.6</ele>
        <time>2020-06-06T13:09:55Z</time>
      </trkpt>
      <trkpt lat="47.63305" lon="-2.7782">
        <ele>4.8</ele>
        <time>2020-06-06T13:09:56Z</time>
      </trkpt>
      <trkpt lat="47.63305" lon="-2.77816">
        <ele>4.9</ele>
        <time>2020-06-06T13:09:57Z</time>
      </trkpt>
      <trkpt lat="47.63305" lon="-2.77812">
        <ele>5.1</ele>
        <time>2020-06-06T13:09:58Z</time>
      </trkpt>
      <trkpt lat="47.63305" lon="-2.77807">
        <ele>5.2</ele>
        <time>2020-06-06T13:09:59Z</time>
      </trkpt>
      <trkpt lat="47.63305" lon="-2.77803">
        <ele>5.4</ele>
        <time>2020-06-06T13:10:00Z</time>
      </trkpt>
      <trkpt lat="47.63306" lon="-2.77799">
        <ele>5.5</ele>
        <time>2020-06-06T13:10:01Z</time>
      </trkpt>
      <trkpt lat="47.63307" lon="-2.77795">
        <ele>5.6</ele>
        <time>2020-06-06T13:10:02Z</time>
      </trkpt>
      <trkpt lat="47.63308" lon="-2.7779">
        <ele>5.8</ele>
        <time>2020-06-06T13:10:03Z</time>
      </trkpt>
      <trkpt lat="47.63308" lon="-2.77788">
        <ele>5.8</ele>
        <time>2020-06-06T13:10:04Z</time>
      </trkpt>
      <trkpt lat="47.63309" lon="-2.77784">
        <ele>6</ele>
        <time>2020-06-06T13:10:05Z</time>
      </trkpt>
      <trkpt lat="47.63309" lon="-2.77783">
        <ele>6</ele>
        <time>2020-06-06T13:10:06Z</time>
      </trkpt>
      <trkpt lat="47.6331" lon="-2.77778">
        <ele>6.2</ele>
        <time>2020-06-06T13:10:07Z</time>
      </trkpt>
      <trkpt lat="47.6331" lon="-2.77777">
        <ele>6.2</ele>
        <time>2020-06-06T13:10:08Z</time>
      </trkpt>
      <trkpt lat="47.6331" lon="-2.77772">
        <ele>6.4</ele>
        <time>2020-06-06T13:10:09Z</time>
      </trkpt>
      <trkpt lat="47.63311" lon="-2.77771">
        <ele>6.4</ele>
        <time>2020-06-06T13:10:10Z</time>
      </trkpt>
      <trkpt lat="47.63312" lon="-2.77765">
        <ele>6.7</ele>
        <time>2020-06-06T13:10:11Z</time>
      </trkpt>
      <trkpt lat="47.63312" lon="-2.77764">
        <ele>6.7</ele>
        <time>2020-06-06T13:10:12Z</time>
      </trkpt>
      <trkpt lat="47.63315" lon="-2.77758">
        <ele>7</ele>
        <time>2020-06-06T13:10:13Z</time>
      </trkpt>
      <trkpt lat="47.63315" lon="-2.77756">
        <ele>7.1</ele>
        <time>2020-06-06T13:10:14Z</time>
      </trkpt>
      <trkpt lat="47.63317" lon="-2.77752">
        <ele>7.3</ele>
        <time>2020-06-06T13:10:15Z</time>
      </trkpt>
      <trkpt lat="47.63319" lon="-2.77747">
        <ele>7.5</ele>
        <time>2020-06-06T13:10:16Z</time>
      </trkpt>
      <trkpt lat="47.6332" lon="-2.77741">
        <ele>7.8</ele>
        <time>2020-06-06T13:10:17Z</time>
      </trkpt>
      <trkpt lat="47.63321" lon="-2.77734">
        <ele>8.1</ele>
        <time>2020-06-06T13:10:18Z</time>
      </trkpt>
      <trkpt lat="47.63323" lon="-2.77727">
        <ele>8.4</ele>
        <time>2020-06-06T13:10:19Z</time>
      </trkpt>
      <trkpt lat="47.63325" lon="-2.7772">
        <ele>8.8</ele>
        <time>2020-06-06T13:10:20Z</time>
      </trkpt>
      <trkpt lat="47.63327" lon="-2.77713">
        <ele>9.2</ele>
        <time>2020-06-06T13:10:21Z</time>
      </trkpt>
      <trkpt lat="47.6333" lon="-2.77706">
        <ele>9.6</ele>
        <time>2020-06-06T13:10:22Z</time>
      </trkpt>
      <trkpt lat="47.63333" lon="-2.77699">
        <ele>10</ele>
        <time>2020-06-06T13:10:23Z</time>
      </trkpt>
      <trkpt lat="47.63336" lon="-2.77691">
        <ele>10.4</ele>
        <time>2020-06-06T13:10:24Z</time>
      </trkpt>
      <trkpt lat="47.63339" lon="-2.77685">
        <ele>10.7</ele>
        <time>2020-06-06T13:10:25Z</time>
      </trkpt>
      <trkpt lat="47.63343" lon="-2.77679">
        <ele>11.1</ele>
        <time>2020-06-06T13:10:26Z</time>
      </trkpt>
      <trkpt lat="47.63347" lon="-2.77673">
        <ele>11.5</ele>
        <time>2020-06-06T13:10:27Z</time>
      </trkpt>
      <trkpt lat="47.63351" lon="-2.77665">
        <ele>11.9</ele>
        <time>2020-06-06T13:10:28Z</time>
      </trkpt>
      <trkpt lat="47.63354" lon="-2.7766">
        <ele>12.3</ele>
        <time>2020-06-06T13:10:29Z</time>
      </trkpt>
      <trkpt lat="47.63357" lon="-2.77654">
        <ele>12.6</ele>
        <time>2020-06-06T13:10:30Z</time>
      </trkpt>
      <trkpt lat="47.6336" lon="-2.77648">
        <ele>13</ele>
        <time>2020-06-06T13:10:31Z</time>
      </trkpt>
      <trkpt lat="47.63362" lon="-2.77644">
        <ele>13.2</ele>
        <time>2020-06-06T13:10:32Z</time>
      </trkpt>
      <trkpt lat="47.63365" lon="-2.7764">
        <ele>13.5</ele>
        <time>2020-06-06T13:10:33Z</time>
      </trkpt>
      <trkpt lat="47.63368" lon="-2.77635">
        <ele>13.8</ele>
        <time>2020-06-06T13:10:34Z</time>
      </trkpt>
      <trkpt lat="47.6337" lon="-2.77631">
        <ele>14</ele>
        <time>2020-06-06T13:10:35Z</time>
      </trkpt>
      <trkpt lat="47.63372" lon="-2.77628">
        <ele>14.1</ele>
        <time>2020-06-06T13:10:36Z</time>
      </trkpt>
      <trkpt lat="47.63374" lon="-2.77622">
        <ele>14.4</ele>
        <time>2020-06-06T13:10:37Z</time>
      </trkpt>
      <trkpt lat="47.63375" lon="-2.7762">
        <ele>14.5</ele>
        <time>2020-06-06T13:10:38Z</time>
      </trkpt>
      <trkpt lat="47.63378" lon="-2.77615">
        <ele>14.7</ele>
        <time>2020-06-06T13:10:39Z</time>
      </trkpt>
      <trkpt lat="47.6338" lon="-2.77614">
        <ele>14.8</ele>
        <time>2020-06-06T13:10:40Z</time>
      </trkpt>
      <trkpt lat="47.63382" lon="-2.77609">
        <ele>14.9</ele>
        <time>2020-06-06T13:10:41Z</time>
      </trkpt>
      <trkpt lat="47.63385" lon="-2.77605">
        <ele>15.1</ele>
        <time>2020-06-06T13:10:42Z</time>
      </trkpt>
      <trkpt lat="47.63386" lon="-2.77604">
        <ele>15.1</ele>
        <time>2020-06-06T13:10:43Z</time>
      </trkpt>
      <trkpt lat="47.63389" lon="-2.77599">
        <ele>15.3</ele>
        <time>2020-06-06T13:10:44Z</time>
      </trkpt>
      <trkpt lat="47.6339" lon="-2.77596">
        <ele>15.3</ele>
        <time>2020-06-06T13:10:45Z</time>
      </trkpt>
      <trkpt lat="47.63392" lon="-2.77591">
        <ele>15.4</ele>
        <time>2020-06-06T13:10:46Z</time>
      </trkpt>
      <trkpt lat="47.63394" lon="-2.77586">
        <ele>15.4</ele>
        <time>2020-06-06T13:10:47Z</time>
      </trkpt>
      <trkpt lat="47.63395" lon="-2.77583">
        <ele>15.5</ele>
        <time>2020-06-06T13:10:48Z</time>
      </trkpt>
      <trkpt lat="47.63396" lon="-2.77582">
        <ele>15.5</ele>
        <time>2020-06-06T13:10:49Z</time>
      </trkpt>
      <trkpt lat="47.63399" lon="-2.77578">
        <ele>15.5</ele>
        <time>2020-06-06T13:10:50Z</time>
      </trkpt>
      <trkpt lat="47.63402" lon="-2.77575">
        <ele>15.5</ele>
        <time>2020-06-06T13:10:51Z</time>
      </trkpt>
      <trkpt lat="47.63407" lon="-2.7757">
        <ele>15.5</ele>
        <time>2020-06-06T13:10:52Z</time>
      </trkpt>
      <trkpt lat="47.63409" lon="-2.77564">
        <ele>15.5</ele>
        <time>2020-06-06T13:10:53Z</time>
      </trkpt>
      <trkpt lat="47.63412" lon="-2.77558">
        <ele>15.5</ele>
        <time>2020-06-06T13:10:54Z</time>
      </trkpt>
      <trkpt lat="47.63416" lon="-2.77553">
        <ele>15.5</ele>
        <time>2020-06-06T13:10:55Z</time>
      </trkpt>
      <trkpt lat="47.6342" lon="-2.77548">
        <ele>15.4</ele>
        <time>2020-06-06T13:10:56Z</time>
      </trkpt>
      <trkpt lat="47.63424" lon="-2.77542">
        <ele>15.4</ele>
        <time>2020-06-06T13:10:57Z</time>
      </trkpt>
      <trkpt lat="47.63426" lon="-2.77537">
        <ele>15.3</ele>
        <time>2020-06-06T13:10:58Z</time>
      </trkpt>
      <trkpt lat="47.6343" lon="-2.77533">
        <ele>15.3</ele>
        <time>2020-06-06T13:10:59Z</time>
      </trkpt>
      <trkpt lat="47.63434" lon="-2.77527">
        <ele>15.2</ele>
        <time>2020-06-06T13:11:00Z</time>
      </trkpt>
      <trkpt lat="47.63438" lon="-2.77522">
        <ele>15.2</ele>
        <time>2020-06-06T13:11:01Z</time>
      </trkpt>
      <trkpt lat="47.63441" lon="-2.77519">
        <ele>15.2</ele>
        <time>2020-06-06T13:11:02Z</time>
      </trkpt>
      <trkpt lat="47.63445" lon="-2.77516">
        <ele>15.1</ele>
        <time>2020-06-06T13:11:03Z</time>
      </trkpt>
      <trkpt lat="47.6345" lon="-2.77511">
        <ele>15.1</ele>
        <time>2020-06-06T13:11:04Z</time>
      </trkpt>
      <trkpt lat="47.63455" lon="-2.77507">
        <ele>15</ele>
        <time>2020-06-06T13:11:05Z</time>
      </trkpt>
      <trkpt lat="47.63459" lon="-2.77504">
        <ele>15</ele>
        <time>2020-06-06T13:11:06Z</time>
      </trkpt>
      <trkpt lat="47.63464" lon="-2.77501">
        <ele>14.9</ele>
        <time>2020-06-06T13:11:07Z</time>
      </trkpt>
      <trkpt lat="47.63469" lon="-2.77498">
        <ele>14.9</ele>
        <time>2020-06-06T13:11:08Z</time>
      </trkpt>
      <trkpt lat="47.63473" lon="-2.77493">
        <ele>14.8</ele>
        <time>2020-06-06T13:11:09Z</time>
      </trkpt>
      <trkpt lat="47.63478" lon="-2.77488">
        <ele>14.7</ele>
        <time>2020-06-06T13:11:10Z</time>
      </trkpt>
      <trkpt lat="47.63482" lon="-2.77483">
        <ele>14.7</ele>
        <time>2020-06-06T13:11:11Z</time>
      </trkpt>
      <trkpt lat="47.63485" lon="-2.7748">
        <ele>14.7</ele>
        <time>2020-06-06T13:11:12Z</time>
      </trkpt>
      <trkpt lat="47.63491" lon="-2.77476">
        <ele>14.6</ele>
        <time>2020-06-06T13:11:13Z</time>
      </trkpt>
      <trkpt lat="47.63495" lon="-2.77471">
        <ele>14.6</ele>
        <time>2020-06-06T13:11:14Z</time>
      </trkpt>
      <trkpt lat="47.63499" lon="-2.77466">
        <ele>14.6</ele>
        <time>2020-06-06T13:11:15Z</time>
      </trkpt>
      <trkpt lat="47.63504" lon="-2.77463">
        <ele>14.6</ele>
        <time>2020-06-06T13:11:16Z</time>
      </trkpt>
      <trkpt lat="47.63509" lon="-2.77462">
        <ele>14.7</ele>
        <time>2020-06-06T13:11:17Z</time>
      </trkpt>
      <trkpt lat="47.63513" lon="-2.77463">
        <ele>14.7</ele>
        <time>2020-06-06T13:11:18Z</time>
      </trkpt>
      <trkpt lat="47.63517" lon="-2.77464">
        <ele>14.8</ele>
        <time>2020-06-06T13:11:19Z</time>
      </trkpt>
      <trkpt lat="47.63521" lon="-2.77464">
        <ele>14.9</ele>
        <time>2020-06-06T13:11:20Z</time>
      </trkpt>
      <trkpt lat="47.63525" lon="-2.77466">
        <ele>14.9</ele>
        <time>2020-06-06T13:11:21Z</time>
      </trkpt>
      <trkpt lat="47.63529" lon="-2.77467">
        <ele>15</ele>
        <time>2020-06-06T13:11:22Z</time>
      </trkpt>
      <trkpt lat="47.63533" lon="-2.77468">
        <ele>15</ele>
        <time>2020-06-06T13:11:23Z</time>
      </trkpt>
      <trkpt lat="47.63535" lon="-2.77468">
        <ele>15</ele>
        <time>2020-06-06T13:11:24Z</time>
      </trkpt>
      <trkpt lat="47.63538" lon="-2.77468">
        <ele>15.1</ele>
        <time>2020-06-06T13:11:25Z</time>
      </trkpt>
      <trkpt lat="47.63539" lon="-2.77468">
        <ele>15.1</ele>
        <time>2020-06-06T13:11:26Z</time>
      </trkpt>
      <trkpt lat="47.6354" lon="-2.77469">
        <ele>15.1</ele>
        <time>2020-06-06T13:11:27Z</time>
      </trkpt>
      <trkpt lat="47.63542" lon="-2.7747">
        <ele>15.1</ele>
        <time>2020-06-06T13:11:28Z</time>
      </trkpt>
      <trkpt lat="47.63545" lon="-2.77471">
        <ele>15.1</ele>
        <time>2020-06-06T13:11:29Z</time>
      </trkpt>
      <trkpt lat="47.63546" lon="-2.77471">
        <ele>15.1</ele>
        <time>2020-06-06T13:11:30Z</time>
      </trkpt>
      <trkpt lat="47.63548" lon="-2.77471">
        <ele>15.1</ele>
        <time>2020-06-06T13:11:31Z</time>
      </trkpt>
      <trkpt lat="47.63549" lon="-2.77471">
        <ele>15.1</ele>
        <time>2020-06-06T13:11:32Z</time>
      </trkpt>
      <trkpt lat="47.63551" lon="-2.7747">
        <ele>15.1</ele>
        <time>2020-06-06T13:11:33Z</time>
      </trkpt>
      <trkpt lat="47.63553" lon="-2.7747">
        <ele>15.1</ele>
        <time>2020-06-06T13:11:34Z</time>
      </trkpt>
      <trkpt lat="47.63555" lon="-2.77471">
        <ele>15.1</ele>
        <time>2020-06-06T13:11:35Z</time>
      </trkpt>
      <trkpt lat="47.63556" lon="-2.77472">
        <ele>15.1</ele>
        <time>2020-06-06T13:11:36Z</time>
      </trkpt>
      <trkpt lat="47.63556" lon="-2.77473">
        <ele>15.1</ele>
        <time>2020-06-06T13:11:37Z</time>
      </trkpt>
      <trkpt lat="47.63557" lon="-2.77473">
        <ele>15.1</ele>
        <time>2020-06-06T13:11:38Z</time>
      </trkpt>
      <trkpt lat="47.63558" lon="-2.77474">
        <ele>15.1</ele>
        <time>2020-06-06T13:11:39Z</time>
      </trkpt>
      <trkpt lat="47.63561" lon="-2.77474">
        <ele>15.1</ele>
        <time>2020-06-06T13:11:40Z</time>
      </trkpt>
      <trkpt lat="47.63562" lon="-2.77474">
        <ele>15.1</ele>
        <time>2020-06-06T13:11:41Z</time>
      </trkpt>
      <trkpt lat="47.63566" lon="-2.77474">
        <ele>15.2</ele>
        <time>2020-06-06T13:11:42Z</time>
      </trkpt>
      <trkpt lat="47.63567" lon="-2.77473">
        <ele>15.2</ele>
        <time>2020-06-06T13:11:43Z</time>
      </trkpt>
      <trkpt lat="47.6357" lon="-2.77472">
        <ele>15.2</ele>
        <time>2020-06-06T13:11:44Z</time>
      </trkpt>
      <trkpt lat="47.63573" lon="-2.77472">
        <ele>15.2</ele>
        <time>2020-06-06T13:11:45Z</time>
      </trkpt>
      <trkpt lat="47.63575" lon="-2.77475">
        <ele>15.2</ele>
        <time>2020-06-06T13:11:46Z</time>
      </trkpt>
      <trkpt lat="47.63579" lon="-2.77477">
        <ele>15.2</ele>
        <time>2020-06-06T13:11:47Z</time>
      </trkpt>
      <trkpt lat="47.6358" lon="-2.77477">
        <ele>15.3</ele>
        <time>2020-06-06T13:11:48Z</time>
      </trkpt>
      <trkpt lat="47.63583" lon="-2.77478">
        <ele>15.3</ele>
        <time>2020-06-06T13:11:49Z</time>
      </trkpt>
      <trkpt lat="47.63587" lon="-2.77478">
        <ele>15.3</ele>
        <time>2020-06-06T13:11:50Z</time>
      </trkpt>
      <trkpt lat="47.6359" lon="-2.77478">
        <ele>15.3</ele>
        <time>2020-06-06T13:11:51Z</time>
      </trkpt>
      <trkpt lat="47.63594" lon="-2.77479">
        <ele>15.4</ele>
        <time>2020-06-06T13:11:52Z</time>
      </trkpt>
      <trkpt lat="47.63595" lon="-2.7748">
        <ele>15.4</ele>
        <time>2020-06-06T13:11:53Z</time>
      </trkpt>
      <trkpt lat="47.63599" lon="-2.77478">
        <ele>15.4</ele>
        <time>2020-06-06T13:11:54Z</time>
      </trkpt>
      <trkpt lat="47.63602" lon="-2.77479">
        <ele>15.5</ele>
        <time>2020-06-06T13:11:55Z</time>
      </trkpt>
      <trkpt lat="47.63606" lon="-2.77481">
        <ele>15.5</ele>
        <time>2020-06-06T13:11:56Z</time>
      </trkpt>
      <trkpt lat="47.6361" lon="-2.77482">
        <ele>15.6</ele>
        <time>2020-06-06T13:11:57Z</time>
      </trkpt>
      <trkpt lat="47.63614" lon="-2.77483">
        <ele>15.6</ele>
        <time>2020-06-06T13:11:58Z</time>
      </trkpt>
      <trkpt lat="47.63618" lon="-2.77483">
        <ele>15.7</ele>
        <time>2020-06-06T13:11:59Z</time>
      </trkpt>
      <trkpt lat="47.63621" lon="-2.77484">
        <ele>15.7</ele>
        <time>2020-06-06T13:12:00Z</time>
      </trkpt>
      <trkpt lat="47.63625" lon="-2.77485">
        <ele>15.8</ele>
        <time>2020-06-06T13:12:01Z</time>
      </trkpt>
      <trkpt lat="47.63629" lon="-2.77485">
        <ele>15.9</ele>
        <time>2020-06-06T13:12:02Z</time>
      </trkpt>
      <trkpt lat="47.63633" lon="-2.77483">
        <ele>16</ele>
        <time>2020-06-06T13:12:03Z</time>
      </trkpt>
      <trkpt lat="47.63636" lon="-2.77481">
        <ele>16</ele>
        <time>2020-06-06T13:12:04Z</time>
      </trkpt>
      <trkpt lat="47.6364" lon="-2.77478">
        <ele>16.2</ele>
        <time>2020-06-06T13:12:05Z</time>
      </trkpt>
      <trkpt lat="47.63644" lon="-2.77477">
        <ele>16.2</ele>
        <time>2020-06-06T13:12:06Z</time>
      </trkpt>
      <trkpt lat="47.63648" lon="-2.77475">
        <ele>16.1</ele>
        <time>2020-06-06T13:12:07Z</time>
      </trkpt>
      <trkpt lat="47.63652" lon="-2.77475">
        <ele>15.9</ele>
        <time>2020-06-06T13:12:08Z</time>
      </trkpt>
      <trkpt lat="47.63656" lon="-2.77474">
        <ele>15.9</ele>
        <time>2020-06-06T13:12:09Z</time>
      </trkpt>
      <trkpt lat="47.63659" lon="-2.77475">
        <ele>15.9</ele>
        <time>2020-06-06T13:12:10Z</time>
      </trkpt>
      <trkpt lat="47.63663" lon="-2.77474">
        <ele>15.8</ele>
        <time>2020-06-06T13:12:11Z</time>
      </trkpt>
      <trkpt lat="47.63667" lon="-2.77475">
        <ele>15.8</ele>
        <time>2020-06-06T13:12:12Z</time>
      </trkpt>
      <trkpt lat="47.63673" lon="-2.77474">
        <ele>15.7</ele>
        <time>2020-06-06T13:12:13Z</time>
      </trkpt>
      <trkpt lat="47.63678" lon="-2.77474">
        <ele>15.7</ele>
        <time>2020-06-06T13:12:14Z</time>
      </trkpt>
      <trkpt lat="47.63684" lon="-2.77474">
        <ele>15.4</ele>
        <time>2020-06-06T13:12:15Z</time>
      </trkpt>
      <trkpt lat="47.63689" lon="-2.77474">
        <ele>15.4</ele>
        <time>2020-06-06T13:12:16Z</time>
      </trkpt>
      <trkpt lat="47.63694" lon="-2.77475">
        <ele>15.3</ele>
        <time>2020-06-06T13:12:17Z</time>
      </trkpt>
      <trkpt lat="47.63699" lon="-2.77476">
        <ele>15.2</ele>
        <time>2020-06-06T13:12:18Z</time>
      </trkpt>
      <trkpt lat="47.63703" lon="-2.77478">
        <ele>15.1</ele>
        <time>2020-06-06T13:12:19Z</time>
      </trkpt>
      <trkpt lat="47.63708" lon="-2.77483">
        <ele>15.1</ele>
        <time>2020-06-06T13:12:20Z</time>
      </trkpt>
      <trkpt lat="47.63713" lon="-2.77488">
        <ele>15.1</ele>
        <time>2020-06-06T13:12:21Z</time>
      </trkpt>
      <trkpt lat="47.63716" lon="-2.77494">
        <ele>15.1</ele>
        <time>2020-06-06T13:12:22Z</time>
      </trkpt>
      <trkpt lat="47.63718" lon="-2.77499">
        <ele>15.1</ele>
        <time>2020-06-06T13:12:23Z</time>
      </trkpt>
      <trkpt lat="47.63721" lon="-2.77505">
        <ele>15.2</ele>
        <time>2020-06-06T13:12:24Z</time>
      </trkpt>
      <trkpt lat="47.63724" lon="-2.7751">
        <ele>15.3</ele>
        <time>2020-06-06T13:12:25Z</time>
      </trkpt>
      <trkpt lat="47.63727" lon="-2.77515">
        <ele>15.4</ele>
        <time>2020-06-06T13:12:26Z</time>
      </trkpt>
      <trkpt lat="47.6373" lon="-2.7752">
        <ele>15.6</ele>
        <time>2020-06-06T13:12:27Z</time>
      </trkpt>
      <trkpt lat="47.63734" lon="-2.77524">
        <ele>15.7</ele>
        <time>2020-06-06T13:12:28Z</time>
      </trkpt>
      <trkpt lat="47.63737" lon="-2.77528">
        <ele>15.8</ele>
        <time>2020-06-06T13:12:29Z</time>
      </trkpt>
      <trkpt lat="47.63741" lon="-2.7753">
        <ele>16</ele>
        <time>2020-06-06T13:12:30Z</time>
      </trkpt>
      <trkpt lat="47.63745" lon="-2.77532">
        <ele>16.2</ele>
        <time>2020-06-06T13:12:31Z</time>
      </trkpt>
      <trkpt lat="47.63749" lon="-2.77534">
        <ele>16.4</ele>
        <time>2020-06-06T13:12:32Z</time>
      </trkpt>
      <trkpt lat="47.63752" lon="-2.77536">
        <ele>16.6</ele>
        <time>2020-06-06T13:12:33Z</time>
      </trkpt>
      <trkpt lat="47.63756" lon="-2.77536">
        <ele>16.8</ele>
        <time>2020-06-06T13:12:34Z</time>
      </trkpt>
      <trkpt lat="47.63761" lon="-2.77537">
        <ele>17</ele>
        <time>2020-06-06T13:12:35Z</time>
      </trkpt>
      <trkpt lat="47.63766" lon="-2.77536">
        <ele>17.3</ele>
        <time>2020-06-06T13:12:36Z</time>
      </trkpt>
      <trkpt lat="47.63772" lon="-2.77535">
        <ele>17.6</ele>
        <time>2020-06-06T13:12:37Z</time>
      </trkpt>
      <trkpt lat="47.63777" lon="-2.77535">
        <ele>17.8</ele>
        <time>2020-06-06T13:12:38Z</time>
      </trkpt>
      <trkpt lat="47.63782" lon="-2.77535">
        <ele>18</ele>
        <time>2020-06-06T13:12:39Z</time>
      </trkpt>
      <trkpt lat="47.63786" lon="-2.77534">
        <ele>18.2</ele>
        <time>2020-06-06T13:12:40Z</time>
      </trkpt>
      <trkpt lat="47.6379" lon="-2.77535">
        <ele>18.4</ele>
        <time>2020-06-06T13:12:41Z</time>
      </trkpt>
      <trkpt lat="47.63793" lon="-2.77536">
        <ele>18.6</ele>
        <time>2020-06-06T13:12:42Z</time>
      </trkpt>
      <trkpt lat="47.63796" lon="-2.77537">
        <ele>18.8</ele>
        <time>2020-06-06T13:12:43Z</time>
      </trkpt>
      <trkpt lat="47.63799" lon="-2.77539">
        <ele>18.9</ele>
        <time>2020-06-06T13:12:44Z</time>
      </trkpt>
      <trkpt lat="47.63802" lon="-2.77542">
        <ele>19</ele>
        <time>2020-06-06T13:12:45Z</time>
      </trkpt>
      <trkpt lat="47.63804" lon="-2.77546">
        <ele>19.1</ele>
        <time>2020-06-06T13:12:46Z</time>
      </trkpt>
      <trkpt lat="47.63807" lon="-2.7755">
        <ele>19.1</ele>
        <time>2020-06-06T13:12:47Z</time>
      </trkpt>
      <trkpt lat="47.63808" lon="-2.77555">
        <ele>19.1</ele>
        <time>2020-06-06T13:12:48Z</time>
      </trkpt>
      <trkpt lat="47.6381" lon="-2.77559">
        <ele>19.2</ele>
        <time>2020-06-06T13:12:49Z</time>
      </trkpt>
      <trkpt lat="47.63811" lon="-2.77563">
        <ele>19.2</ele>
        <time>2020-06-06T13:12:50Z</time>
      </trkpt>
      <trkpt lat="47.63813" lon="-2.77567">
        <ele>19.3</ele>
        <time>2020-06-06T13:12:51Z</time>
      </trkpt>
      <trkpt lat="47.63816" lon="-2.77572">
        <ele>19.3</ele>
        <time>2020-06-06T13:12:52Z</time>
      </trkpt>
      <trkpt lat="47.63818" lon="-2.77576">
        <ele>19.4</ele>
        <time>2020-06-06T13:12:53Z</time>
      </trkpt>
      <trkpt lat="47.6382" lon="-2.7758">
        <ele>19.5</ele>
        <time>2020-06-06T13:12:54Z</time>
      </trkpt>
      <trkpt lat="47.63823" lon="-2.77584">
        <ele>19.6</ele>
        <time>2020-06-06T13:12:55Z</time>
      </trkpt>
      <trkpt lat="47.63827" lon="-2.77587">
        <ele>19.6</ele>
        <time>2020-06-06T13:12:56Z</time>
      </trkpt>
      <trkpt lat="47.63829" lon="-2.77592">
        <ele>19.7</ele>
        <time>2020-06-06T13:12:57Z</time>
      </trkpt>
      <trkpt lat="47.63832" lon="-2.77596">
        <ele>19.8</ele>
        <time>2020-06-06T13:12:58Z</time>
      </trkpt>
      <trkpt lat="47.63834" lon="-2.77601">
        <ele>19.9</ele>
        <time>2020-06-06T13:12:59Z</time>
      </trkpt>
      <trkpt lat="47.63836" lon="-2.77604">
        <ele>19.9</ele>
        <time>2020-06-06T13:13:00Z</time>
      </trkpt>
      <trkpt lat="47.63838" lon="-2.77609">
        <ele>20</ele>
        <time>2020-06-06T13:13:01Z</time>
      </trkpt>
      <trkpt lat="47.63838" lon="-2.77615">
        <ele>20.1</ele>
        <time>2020-06-06T13:13:02Z</time>
      </trkpt>
      <trkpt lat="47.63839" lon="-2.77622">
        <ele>20.3</ele>
        <time>2020-06-06T13:13:03Z</time>
      </trkpt>
      <trkpt lat="47.6384" lon="-2.7763">
        <ele>20.4</ele>
        <time>2020-06-06T13:13:04Z</time>
      </trkpt>
      <trkpt lat="47.63841" lon="-2.77637">
        <ele>20.6</ele>
        <time>2020-06-06T13:13:05Z</time>
      </trkpt>
      <trkpt lat="47.63842" lon="-2.77644">
        <ele>20.7</ele>
        <time>2020-06-06T13:13:06Z</time>
      </trkpt>
      <trkpt lat="47.63843" lon="-2.77652">
        <ele>20.8</ele>
        <time>2020-06-06T13:13:07Z</time>
      </trkpt>
      <trkpt lat="47.63843" lon="-2.77658">
        <ele>20.9</ele>
        <time>2020-06-06T13:13:08Z</time>
      </trkpt>
      <trkpt lat="47.63845" lon="-2.77666">
        <ele>21.1</ele>
        <time>2020-06-06T13:13:09Z</time>
      </trkpt>
      <trkpt lat="47.63846" lon="-2.77672">
        <ele>21.2</ele>
        <time>2020-06-06T13:13:10Z</time>
      </trkpt>
      <trkpt lat="47.63847" lon="-2.77679">
        <ele>21.3</ele>
        <time>2020-06-06T13:13:11Z</time>
      </trkpt>
      <trkpt lat="47.63849" lon="-2.77685">
        <ele>21.4</ele>
        <time>2020-06-06T13:13:12Z</time>
      </trkpt>
      <trkpt lat="47.6385" lon="-2.77689">
        <ele>21.5</ele>
        <time>2020-06-06T13:13:13Z</time>
      </trkpt>
      <trkpt lat="47.63851" lon="-2.77694">
        <ele>21.7</ele>
        <time>2020-06-06T13:13:14Z</time>
      </trkpt>
      <trkpt lat="47.63851" lon="-2.77696">
        <ele>21.7</ele>
        <time>2020-06-06T13:13:15Z</time>
      </trkpt>
      <trkpt lat="47.63852" lon="-2.77701">
        <ele>21.8</ele>
        <time>2020-06-06T13:13:16Z</time>
      </trkpt>
      <trkpt lat="47.63852" lon="-2.77706">
        <ele>21.9</ele>
        <time>2020-06-06T13:13:17Z</time>
      </trkpt>
      <trkpt lat="47.63853" lon="-2.77711">
        <ele>21.9</ele>
        <time>2020-06-06T13:13:18Z</time>
      </trkpt>
      <trkpt lat="47.63853" lon="-2.77716">
        <ele>21.8</ele>
        <time>2020-06-06T13:13:19Z</time>
      </trkpt>
      <trkpt lat="47.63854" lon="-2.77722">
        <ele>21.8</ele>
        <time>2020-06-06T13:13:20Z</time>
      </trkpt>
      <trkpt lat="47.63854" lon="-2.77727">
        <ele>21.8</ele>
        <time>2020-06-06T13:13:21Z</time>
      </trkpt>
      <trkpt lat="47.63856" lon="-2.77732">
        <ele>21.8</ele>
        <time>2020-06-06T13:13:22Z</time>
      </trkpt>
      <trkpt lat="47.63859" lon="-2.77733">
        <ele>21.8</ele>
        <time>2020-06-06T13:13:23Z</time>
      </trkpt>
      <trkpt lat="47.63861" lon="-2.77732">
        <ele>21.8</ele>
        <time>2020-06-06T13:13:24Z</time>
      </trkpt>
      <trkpt lat="47.63864" lon="-2.77731">
        <ele>21.9</ele>
        <time>2020-06-06T13:13:25Z</time>
      </trkpt>
      <trkpt lat="47.63867" lon="-2.7773">
        <ele>21.9</ele>
        <time>2020-06-06T13:13:26Z</time>
      </trkpt>
      <trkpt lat="47.63871" lon="-2.77729">
        <ele>21.9</ele>
        <time>2020-06-06T13:13:27Z</time>
      </trkpt>
      <trkpt lat="47.63875" lon="-2.77729">
        <ele>22</ele>
        <time>2020-06-06T13:13:28Z</time>
      </trkpt>
      <trkpt lat="47.63879" lon="-2.77729">
        <ele>22</ele>
        <time>2020-06-06T13:13:29Z</time>
      </trkpt>
      <trkpt lat="47.63883" lon="-2.77727">
        <ele>22.1</ele>
        <time>2020-06-06T13:13:30Z</time>
      </trkpt>
      <trkpt lat="47.63887" lon="-2.77727">
        <ele>22.2</ele>
        <time>2020-06-06T13:13:31Z</time>
      </trkpt>
      <trkpt lat="47.6389" lon="-2.77725">
        <ele>22.2</ele>
        <time>2020-06-06T13:13:32Z</time>
      </trkpt>
      <trkpt lat="47.63895" lon="-2.77725">
        <ele>22.4</ele>
        <time>2020-06-06T13:13:33Z</time>
      </trkpt>
      <trkpt lat="47.63899" lon="-2.77725">
        <ele>22.5</ele>
        <time>2020-06-06T13:13:34Z</time>
      </trkpt>
      <trkpt lat="47.63903" lon="-2.77726">
        <ele>22.6</ele>
        <time>2020-06-06T13:13:35Z</time>
      </trkpt>
      <trkpt lat="47.63906" lon="-2.77725">
        <ele>22.6</ele>
        <time>2020-06-06T13:13:36Z</time>
      </trkpt>
      <trkpt lat="47.6391" lon="-2.77726">
        <ele>22.7</ele>
        <time>2020-06-06T13:13:37Z</time>
      </trkpt>
      <trkpt lat="47.63915" lon="-2.77726">
        <ele>22.8</ele>
        <time>2020-06-06T13:13:38Z</time>
      </trkpt>
      <trkpt lat="47.63918" lon="-2.77726">
        <ele>22.9</ele>
        <time>2020-06-06T13:13:39Z</time>
      </trkpt>
      <trkpt lat="47.63922" lon="-2.77725">
        <ele>23</ele>
        <time>2020-06-06T13:13:40Z</time>
      </trkpt>
      <trkpt lat="47.63926" lon="-2.77727">
        <ele>23.1</ele>
        <time>2020-06-06T13:13:41Z</time>
      </trkpt>
      <trkpt lat="47.63929" lon="-2.77727">
        <ele>23.3</ele>
        <time>2020-06-06T13:13:42Z</time>
      </trkpt>
      <trkpt lat="47.63935" lon="-2.77727">
        <ele>23.4</ele>
        <time>2020-06-06T13:13:43Z</time>
      </trkpt>
      <trkpt lat="47.63939" lon="-2.77729">
        <ele>23.4</ele>
        <time>2020-06-06T13:13:44Z</time>
      </trkpt>
      <trkpt lat="47.63942" lon="-2.7773">
        <ele>23.5</ele>
        <time>2020-06-06T13:13:45Z</time>
      </trkpt>
      <trkpt lat="47.63946" lon="-2.7773">
        <ele>23.5</ele>
        <time>2020-06-06T13:13:46Z</time>
      </trkpt>
      <trkpt lat="47.63949" lon="-2.7773">
        <ele>23.6</ele>
        <time>2020-06-06T13:13:47Z</time>
      </trkpt>
      <trkpt lat="47.63953" lon="-2.7773">
        <ele>23.7</ele>
        <time>2020-06-06T13:13:48Z</time>
      </trkpt>
      <trkpt lat="47.63957" lon="-2.77728">
        <ele>23.2</ele>
        <time>2020-06-06T13:13:49Z</time>
      </trkpt>
      <trkpt lat="47.6396" lon="-2.77725">
        <ele>23.3</ele>
        <time>2020-06-06T13:13:50Z</time>
      </trkpt>
      <trkpt lat="47.6396" lon="-2.77718">
        <ele>23.3</ele>
        <time>2020-06-06T13:13:51Z</time>
      </trkpt>
      <trkpt lat="47.63959" lon="-2.77712">
        <ele>23.4</ele>
        <time>2020-06-06T13:13:52Z</time>
      </trkpt>
      <trkpt lat="47.6396" lon="-2.77706">
        <ele>23.5</ele>
        <time>2020-06-06T13:13:53Z</time>
      </trkpt>
      <trkpt lat="47.6396" lon="-2.777">
        <ele>23.6</ele>
        <time>2020-06-06T13:13:54Z</time>
      </trkpt>
      <trkpt lat="47.6396" lon="-2.77694">
        <ele>23.7</ele>
        <time>2020-06-06T13:13:55Z</time>
      </trkpt>
      <trkpt lat="47.6396" lon="-2.77687">
        <ele>23.8</ele>
        <time>2020-06-06T13:13:56Z</time>
      </trkpt>
      <trkpt lat="47.6396" lon="-2.77681">
        <ele>23.9</ele>
        <time>2020-06-06T13:13:57Z</time>
      </trkpt>
      <trkpt lat="47.6396" lon="-2.77675">
        <ele>24</ele>
        <time>2020-06-06T13:13:58Z</time>
      </trkpt>
      <trkpt lat="47.6396" lon="-2.77669">
        <ele>24.1</ele>
        <time>2020-06-06T13:13:59Z</time>
      </trkpt>
      <trkpt lat="47.6396" lon="-2.77665">
        <ele>24.1</ele>
        <time>2020-06-06T13:14:00Z</time>
      </trkpt>
      <trkpt lat="47.63961" lon="-2.77661">
        <ele>24.3</ele>
        <time>2020-06-06T13:14:01Z</time>
      </trkpt>
      <trkpt lat="47.63961" lon="-2.77657">
        <ele>24.6</ele>
        <time>2020-06-06T13:14:02Z</time>
      </trkpt>
      <trkpt lat="47.63961" lon="-2.77652">
        <ele>24.6</ele>
        <time>2020-06-06T13:14:03Z</time>
      </trkpt>
      <trkpt lat="47.63962" lon="-2.77647">
        <ele>24.6</ele>
        <time>2020-06-06T13:14:04Z</time>
      </trkpt>
      <trkpt lat="47.63963" lon="-2.77642">
        <ele>24.7</ele>
        <time>2020-06-06T13:14:05Z</time>
      </trkpt>
      <trkpt lat="47.63966" lon="-2.77637">
        <ele>24.6</ele>
        <time>2020-06-06T13:14:06Z</time>
      </trkpt>
      <trkpt lat="47.6397" lon="-2.77633">
        <ele>24.6</ele>
        <time>2020-06-06T13:14:07Z</time>
      </trkpt>
      <trkpt lat="47.63974" lon="-2.77632">
        <ele>24.6</ele>
        <time>2020-06-06T13:14:08Z</time>
      </trkpt>
      <trkpt lat="47.63978" lon="-2.77633">
        <ele>24.7</ele>
        <time>2020-06-06T13:14:09Z</time>
      </trkpt>
      <trkpt lat="47.63982" lon="-2.77634">
        <ele>24.7</ele>
        <time>2020-06-06T13:14:10Z</time>
      </trkpt>
      <trkpt lat="47.63988" lon="-2.77634">
        <ele>24.7</ele>
        <time>2020-06-06T13:14:11Z</time>
      </trkpt>
      <trkpt lat="47.63993" lon="-2.77635">
        <ele>24.8</ele>
        <time>2020-06-06T13:14:12Z</time>
      </trkpt>
      <trkpt lat="47.63999" lon="-2.77637">
        <ele>24.8</ele>
        <time>2020-06-06T13:14:13Z</time>
      </trkpt>
      <trkpt lat="47.64004" lon="-2.77638">
        <ele>24.9</ele>
        <time>2020-06-06T13:14:14Z</time>
      </trkpt>
      <trkpt lat="47.64009" lon="-2.77639">
        <ele>25</ele>
        <time>2020-06-06T13:14:15Z</time>
      </trkpt>
      <trkpt lat="47.64014" lon="-2.7764">
        <ele>25</ele>
        <time>2020-06-06T13:14:16Z</time>
      </trkpt>
      <trkpt lat="47.64017" lon="-2.77639">
        <ele>25</ele>
        <time>2020-06-06T13:14:17Z</time>
      </trkpt>
      <trkpt lat="47.64023" lon="-2.77638">
        <ele>25.1</ele>
        <time>2020-06-06T13:14:18Z</time>
      </trkpt>
      <trkpt lat="47.64027" lon="-2.77638">
        <ele>25.2</ele>
        <time>2020-06-06T13:14:19Z</time>
      </trkpt>
      <trkpt lat="47.64032" lon="-2.77637">
        <ele>25.2</ele>
        <time>2020-06-06T13:14:20Z</time>
      </trkpt>
      <trkpt lat="47.64037" lon="-2.77636">
        <ele>25.3</ele>
        <time>2020-06-06T13:14:21Z</time>
      </trkpt>
      <trkpt lat="47.64042" lon="-2.77635">
        <ele>25.3</ele>
        <time>2020-06-06T13:14:22Z</time>
      </trkpt>
      <trkpt lat="47.64048" lon="-2.77635">
        <ele>25.4</ele>
        <time>2020-06-06T13:14:23Z</time>
      </trkpt>
      <trkpt lat="47.64053" lon="-2.77636">
        <ele>25.5</ele>
        <time>2020-06-06T13:14:24Z</time>
      </trkpt>
      <trkpt lat="47.64059" lon="-2.77636">
        <ele>25.5</ele>
        <time>2020-06-06T13:14:25Z</time>
      </trkpt>
      <trkpt lat="47.64065" lon="-2.77637">
        <ele>25.6</ele>
        <time>2020-06-06T13:14:26Z</time>
      </trkpt>
      <trkpt lat="47.64071" lon="-2.77636">
        <ele>25.6</ele>
        <time>2020-06-06T13:14:27Z</time>
      </trkpt>
      <trkpt lat="47.64076" lon="-2.77635">
        <ele>25.7</ele>
        <time>2020-06-06T13:14:28Z</time>
      </trkpt>
      <trkpt lat="47.64081" lon="-2.77635">
        <ele>25.9</ele>
        <time>2020-06-06T13:14:29Z</time>
      </trkpt>
      <trkpt lat="47.64087" lon="-2.77635">
        <ele>25.9</ele>
        <time>2020-06-06T13:14:30Z</time>
      </trkpt>
      <trkpt lat="47.64092" lon="-2.77635">
        <ele>25.8</ele>
        <time>2020-06-06T13:14:31Z</time>
      </trkpt>
      <trkpt lat="47.64096" lon="-2.77635">
        <ele>25.8</ele>
        <time>2020-06-06T13:14:32Z</time>
      </trkpt>
      <trkpt lat="47.64101" lon="-2.77634">
        <ele>25.8</ele>
        <time>2020-06-06T13:14:33Z</time>
      </trkpt>
      <trkpt lat="47.64106" lon="-2.77634">
        <ele>25.8</ele>
        <time>2020-06-06T13:14:34Z</time>
      </trkpt>
      <trkpt lat="47.64112" lon="-2.77632">
        <ele>25.7</ele>
        <time>2020-06-06T13:14:35Z</time>
      </trkpt>
      <trkpt lat="47.64118" lon="-2.77631">
        <ele>25.7</ele>
        <time>2020-06-06T13:14:36Z</time>
      </trkpt>
      <trkpt lat="47.64123" lon="-2.77629">
        <ele>25.7</ele>
        <time>2020-06-06T13:14:37Z</time>
      </trkpt>
      <trkpt lat="47.6413" lon="-2.77628">
        <ele>25.7</ele>
        <time>2020-06-06T13:14:38Z</time>
      </trkpt>
      <trkpt lat="47.64135" lon="-2.77625">
        <ele>25.7</ele>
        <time>2020-06-06T13:14:39Z</time>
      </trkpt>
      <trkpt lat="47.64141" lon="-2.77623">
        <ele>25.7</ele>
        <time>2020-06-06T13:14:40Z</time>
      </trkpt>
      <trkpt lat="47.64146" lon="-2.77621">
        <ele>25.7</ele>
        <time>2020-06-06T13:14:41Z</time>
      </trkpt>
      <trkpt lat="47.6415" lon="-2.77619">
        <ele>25.7</ele>
        <time>2020-06-06T13:14:42Z</time>
      </trkpt>
      <trkpt lat="47.64155" lon="-2.77614">
        <ele>25.6</ele>
        <time>2020-06-06T13:14:43Z</time>
      </trkpt>
      <trkpt lat="47.64159" lon="-2.77611">
        <ele>25.6</ele>
        <time>2020-06-06T13:14:44Z</time>
      </trkpt>
      <trkpt lat="47.64165" lon="-2.77606">
        <ele>25.7</ele>
        <time>2020-06-06T13:14:45Z</time>
      </trkpt>
      <trkpt lat="47.6417" lon="-2.77602">
        <ele>25.8</ele>
        <time>2020-06-06T13:14:46Z</time>
      </trkpt>
      <trkpt lat="47.64174" lon="-2.77599">
        <ele>25.9</ele>
        <time>2020-06-06T13:14:47Z</time>
      </trkpt>
      <trkpt lat="47.64179" lon="-2.77596">
        <ele>25.8</ele>
        <time>2020-06-06T13:14:48Z</time>
      </trkpt>
      <trkpt lat="47.64183" lon="-2.77592">
        <ele>25.8</ele>
        <time>2020-06-06T13:14:49Z</time>
      </trkpt>
      <trkpt lat="47.64187" lon="-2.77588">
        <ele>25.7</ele>
        <time>2020-06-06T13:14:50Z</time>
      </trkpt>
      <trkpt lat="47.64191" lon="-2.77583">
        <ele>25.7</ele>
        <time>2020-06-06T13:14:51Z</time>
      </trkpt>
      <trkpt lat="47.64196" lon="-2.77575">
        <ele>25.6</ele>
        <time>2020-06-06T13:14:52Z</time>
      </trkpt>
      <trkpt lat="47.642" lon="-2.77569">
        <ele>25.5</ele>
        <time>2020-06-06T13:14:53Z</time>
      </trkpt>
      <trkpt lat="47.64204" lon="-2.77564">
        <ele>25.3</ele>
        <time>2020-06-06T13:14:54Z</time>
      </trkpt>
      <trkpt lat="47.64207" lon="-2.77559">
        <ele>25.5</ele>
        <time>2020-06-06T13:14:55Z</time>
      </trkpt>
      <trkpt lat="47.64213" lon="-2.77559">
        <ele>25.6</ele>
        <time>2020-06-06T13:14:56Z</time>
      </trkpt>
      <trkpt lat="47.64218" lon="-2.77561">
        <ele>25.7</ele>
        <time>2020-06-06T13:14:57Z</time>
      </trkpt>
      <trkpt lat="47.64222" lon="-2.7757">
        <ele>25.6</ele>
        <time>2020-06-06T13:14:58Z</time>
      </trkpt>
      <trkpt lat="47.64226" lon="-2.77578">
        <ele>25.3</ele>
        <time>2020-06-06T13:14:59Z</time>
      </trkpt>
      <trkpt lat="47.64229" lon="-2.77584">
        <ele>25.1</ele>
        <time>2020-06-06T13:15:00Z</time>
      </trkpt>
      <trkpt lat="47.64233" lon="-2.7759">
        <ele>24.9</ele>
        <time>2020-06-06T13:15:01Z</time>
      </trkpt>
      <trkpt lat="47.64238" lon="-2.77598">
        <ele>24.7</ele>
        <time>2020-06-06T13:15:02Z</time>
      </trkpt>
      <trkpt lat="47.64241" lon="-2.77607">
        <ele>24.5</ele>
        <time>2020-06-06T13:15:03Z</time>
      </trkpt>
      <trkpt lat="47.64246" lon="-2.77614">
        <ele>24.3</ele>
        <time>2020-06-06T13:15:04Z</time>
      </trkpt>
      <trkpt lat="47.64251" lon="-2.77621">
        <ele>24</ele>
        <time>2020-06-06T13:15:05Z</time>
      </trkpt>
      <trkpt lat="47.64257" lon="-2.77627">
        <ele>23.8</ele>
        <time>2020-06-06T13:15:06Z</time>
      </trkpt>
      <trkpt lat="47.64262" lon="-2.77634">
        <ele>23.6</ele>
        <time>2020-06-06T13:15:07Z</time>
      </trkpt>
      <trkpt lat="47.64269" lon="-2.77642">
        <ele>23.3</ele>
        <time>2020-06-06T13:15:08Z</time>
      </trkpt>
      <trkpt lat="47.64274" lon="-2.77649">
        <ele>23</ele>
        <time>2020-06-06T13:15:09Z</time>
      </trkpt>
      <trkpt lat="47.6428" lon="-2.77655">
        <ele>22.8</ele>
        <time>2020-06-06T13:15:10Z</time>
      </trkpt>
      <trkpt lat="47.64286" lon="-2.77662">
        <ele>22.5</ele>
        <time>2020-06-06T13:15:11Z</time>
      </trkpt>
      <trkpt lat="47.64293" lon="-2.77669">
        <ele>22.2</ele>
        <time>2020-06-06T13:15:12Z</time>
      </trkpt>
      <trkpt lat="47.64299" lon="-2.77677">
        <ele>21.9</ele>
        <time>2020-06-06T13:15:13Z</time>
      </trkpt>
      <trkpt lat="47.64306" lon="-2.77684">
        <ele>21.7</ele>
        <time>2020-06-06T13:15:14Z</time>
      </trkpt>
      <trkpt lat="47.64317" lon="-2.77694">
        <ele>21.3</ele>
        <time>2020-06-06T13:15:15Z</time>
      </trkpt>
      <trkpt lat="47.64325" lon="-2.77702">
        <ele>21.1</ele>
        <time>2020-06-06T13:15:16Z</time>
      </trkpt>
      <trkpt lat="47.64333" lon="-2.77711">
        <ele>21</ele>
        <time>2020-06-06T13:15:17Z</time>
      </trkpt>
      <trkpt lat="47.64341" lon="-2.7772">
        <ele>20.8</ele>
        <time>2020-06-06T13:15:18Z</time>
      </trkpt>
      <trkpt lat="47.64349" lon="-2.77728">
        <ele>20.6</ele>
        <time>2020-06-06T13:15:19Z</time>
      </trkpt>
      <trkpt lat="47.64358" lon="-2.77737">
        <ele>20.5</ele>
        <time>2020-06-06T13:15:20Z</time>
      </trkpt>
      <trkpt lat="47.64367" lon="-2.77746">
        <ele>20.4</ele>
        <time>2020-06-06T13:15:21Z</time>
      </trkpt>
      <trkpt lat="47.64375" lon="-2.77755">
        <ele>20.3</ele>
        <time>2020-06-06T13:15:22Z</time>
      </trkpt>
      <trkpt lat="47.64382" lon="-2.77763">
        <ele>20.2</ele>
        <time>2020-06-06T13:15:23Z</time>
      </trkpt>
      <trkpt lat="47.64389" lon="-2.77771">
        <ele>20.1</ele>
        <time>2020-06-06T13:15:24Z</time>
      </trkpt>
      <trkpt lat="47.64397" lon="-2.7778">
        <ele>20</ele>
        <time>2020-06-06T13:15:25Z</time>
      </trkpt>
      <trkpt lat="47.64403" lon="-2.77788">
        <ele>19.9</ele>
        <time>2020-06-06T13:15:26Z</time>
      </trkpt>
      <trkpt lat="47.6441" lon="-2.77797">
        <ele>19.8</ele>
        <time>2020-06-06T13:15:27Z</time>
      </trkpt>
      <trkpt lat="47.64416" lon="-2.77805">
        <ele>19.8</ele>
        <time>2020-06-06T13:15:28Z</time>
      </trkpt>
      <trkpt lat="47.64422" lon="-2.77813">
        <ele>19.8</ele>
        <time>2020-06-06T13:15:29Z</time>
      </trkpt>
      <trkpt lat="47.64429" lon="-2.7782">
        <ele>19.8</ele>
        <time>2020-06-06T13:15:30Z</time>
      </trkpt>
      <trkpt lat="47.64435" lon="-2.77827">
        <ele>19.7</ele>
        <time>2020-06-06T13:15:31Z</time>
      </trkpt>
      <trkpt lat="47.64443" lon="-2.77833">
        <ele>19.6</ele>
        <time>2020-06-06T13:15:32Z</time>
      </trkpt>
      <trkpt lat="47.6445" lon="-2.77838">
        <ele>19.1</ele>
        <time>2020-06-06T13:15:33Z</time>
      </trkpt>
      <trkpt lat="47.64458" lon="-2.77841">
        <ele>19.1</ele>
        <time>2020-06-06T13:15:34Z</time>
      </trkpt>
      <trkpt lat="47.64465" lon="-2.77846">
        <ele>19.1</ele>
        <time>2020-06-06T13:15:35Z</time>
      </trkpt>
      <trkpt lat="47.64472" lon="-2.77852">
        <ele>19.1</ele>
        <time>2020-06-06T13:15:36Z</time>
      </trkpt>
      <trkpt lat="47.64479" lon="-2.77857">
        <ele>19.1</ele>
        <time>2020-06-06T13:15:37Z</time>
      </trkpt>
      <trkpt lat="47.64486" lon="-2.77863">
        <ele>19</ele>
        <time>2020-06-06T13:15:38Z</time>
      </trkpt>
      <trkpt lat="47.64493" lon="-2.77868">
        <ele>18.9</ele>
        <time>2020-06-06T13:15:39Z</time>
      </trkpt>
      <trkpt lat="47.645" lon="-2.77874">
        <ele>18.8</ele>
        <time>2020-06-06T13:15:40Z</time>
      </trkpt>
      <trkpt lat="47.64507" lon="-2.77879">
        <ele>18.7</ele>
        <time>2020-06-06T13:15:41Z</time>
      </trkpt>
      <trkpt lat="47.64513" lon="-2.77885">
        <ele>18.6</ele>
        <time>2020-06-06T13:15:42Z</time>
      </trkpt>
      <trkpt lat="47.64519" lon="-2.77891">
        <ele>18.5</ele>
        <time>2020-06-06T13:15:43Z</time>
      </trkpt>
      <trkpt lat="47.64524" lon="-2.77896">
        <ele>18.4</ele>
        <time>2020-06-06T13:15:44Z</time>
      </trkpt>
      <trkpt lat="47.6453" lon="-2.77902">
        <ele>18.2</ele>
        <time>2020-06-06T13:15:45Z</time>
      </trkpt>
      <trkpt lat="47.64535" lon="-2.77908">
        <ele>18.1</ele>
        <time>2020-06-06T13:15:46Z</time>
      </trkpt>
      <trkpt lat="47.6454" lon="-2.77914">
        <ele>17.9</ele>
        <time>2020-06-06T13:15:47Z</time>
      </trkpt>
      <trkpt lat="47.64544" lon="-2.77919">
        <ele>17.8</ele>
        <time>2020-06-06T13:15:48Z</time>
      </trkpt>
      <trkpt lat="47.64549" lon="-2.77925">
        <ele>17.6</ele>
        <time>2020-06-06T13:15:49Z</time>
      </trkpt>
      <trkpt lat="47.64553" lon="-2.7793">
        <ele>17.5</ele>
        <time>2020-06-06T13:15:50Z</time>
      </trkpt>
      <trkpt lat="47.64558" lon="-2.77935">
        <ele>17.3</ele>
        <time>2020-06-06T13:15:51Z</time>
      </trkpt>
      <trkpt lat="47.64562" lon="-2.7794">
        <ele>17.1</ele>
        <time>2020-06-06T13:15:52Z</time>
      </trkpt>
      <trkpt lat="47.64567" lon="-2.77944">
        <ele>16.9</ele>
        <time>2020-06-06T13:15:53Z</time>
      </trkpt>
      <trkpt lat="47.64572" lon="-2.77948">
        <ele>16.7</ele>
        <time>2020-06-06T13:15:54Z</time>
      </trkpt>
      <trkpt lat="47.64577" lon="-2.77953">
        <ele>16.5</ele>
        <time>2020-06-06T13:15:55Z</time>
      </trkpt>
      <trkpt lat="47.64582" lon="-2.77958">
        <ele>16.3</ele>
        <time>2020-06-06T13:15:56Z</time>
      </trkpt>
      <trkpt lat="47.64586" lon="-2.77964">
        <ele>16</ele>
        <time>2020-06-06T13:15:57Z</time>
      </trkpt>
      <trkpt lat="47.6459" lon="-2.77969">
        <ele>15.8</ele>
        <time>2020-06-06T13:15:58Z</time>
      </trkpt>
      <trkpt lat="47.64595" lon="-2.77974">
        <ele>15.6</ele>
        <time>2020-06-06T13:15:59Z</time>
      </trkpt>
      <trkpt lat="47.64598" lon="-2.7798">
        <ele>15.3</ele>
        <time>2020-06-06T13:16:00Z</time>
      </trkpt>
      <trkpt lat="47.64602" lon="-2.77986">
        <ele>15</ele>
        <time>2020-06-06T13:16:01Z</time>
      </trkpt>
      <trkpt lat="47.64606" lon="-2.77991">
        <ele>14.7</ele>
        <time>2020-06-06T13:16:02Z</time>
      </trkpt>
      <trkpt lat="47.6461" lon="-2.77995">
        <ele>14.5</ele>
        <time>2020-06-06T13:16:03Z</time>
      </trkpt>
      <trkpt lat="47.64612" lon="-2.77998">
        <ele>14.2</ele>
        <time>2020-06-06T13:16:04Z</time>
      </trkpt>
      <trkpt lat="47.64615" lon="-2.78001">
        <ele>14.1</ele>
        <time>2020-06-06T13:16:05Z</time>
      </trkpt>
      <trkpt lat="47.64617" lon="-2.78003">
        <ele>13.9</ele>
        <time>2020-06-06T13:16:06Z</time>
      </trkpt>
      <trkpt lat="47.64618" lon="-2.78004">
        <ele>13.9</ele>
        <time>2020-06-06T13:16:07Z</time>
      </trkpt>
      <trkpt lat="47.6462" lon="-2.78006">
        <ele>13.8</ele>
        <time>2020-06-06T13:16:08Z</time>
      </trkpt>
      <trkpt lat="47.6462" lon="-2.78008">
        <ele>13.7</ele>
        <time>2020-06-06T13:16:09Z</time>
      </trkpt>
      <trkpt lat="47.64621" lon="-2.78009">
        <ele>13.6</ele>
        <time>2020-06-06T13:16:10Z</time>
      </trkpt>
      <trkpt lat="47.64623" lon="-2.78012">
        <ele>13.4</ele>
        <time>2020-06-06T13:16:11Z</time>
      </trkpt>
      <trkpt lat="47.64626" lon="-2.78014">
        <ele>13.5</ele>
        <time>2020-06-06T13:16:12Z</time>
      </trkpt>
      <trkpt lat="47.64628" lon="-2.78017">
        <ele>13.5</ele>
        <time>2020-06-06T13:16:13Z</time>
      </trkpt>
      <trkpt lat="47.6463" lon="-2.78019">
        <ele>13.6</ele>
        <time>2020-06-06T13:16:14Z</time>
      </trkpt>
      <trkpt lat="47.64633" lon="-2.78022">
        <ele>13.4</ele>
        <time>2020-06-06T13:16:15Z</time>
      </trkpt>
      <trkpt lat="47.64636" lon="-2.78025">
        <ele>13.3</ele>
        <time>2020-06-06T13:16:16Z</time>
      </trkpt>
      <trkpt lat="47.64639" lon="-2.78028">
        <ele>13.1</ele>
        <time>2020-06-06T13:16:17Z</time>
      </trkpt>
      <trkpt lat="47.64644" lon="-2.78032">
        <ele>12.8</ele>
        <time>2020-06-06T13:16:18Z</time>
      </trkpt>
      <trkpt lat="47.64649" lon="-2.78035">
        <ele>12.5</ele>
        <time>2020-06-06T13:16:19Z</time>
      </trkpt>
      <trkpt lat="47.64653" lon="-2.78039">
        <ele>12.2</ele>
        <time>2020-06-06T13:16:20Z</time>
      </trkpt>
      <trkpt lat="47.64656" lon="-2.78043">
        <ele>11.9</ele>
        <time>2020-06-06T13:16:21Z</time>
      </trkpt>
      <trkpt lat="47.64657" lon="-2.78048">
        <ele>11.4</ele>
        <time>2020-06-06T13:16:22Z</time>
      </trkpt>
      <trkpt lat="47.64658" lon="-2.78054">
        <ele>11.2</ele>
        <time>2020-06-06T13:16:23Z</time>
      </trkpt>
      <trkpt lat="47.6466" lon="-2.78058">
        <ele>11.1</ele>
        <time>2020-06-06T13:16:24Z</time>
      </trkpt>
      <trkpt lat="47.64662" lon="-2.78063">
        <ele>11</ele>
        <time>2020-06-06T13:16:25Z</time>
      </trkpt>
      <trkpt lat="47.64666" lon="-2.78067">
        <ele>10.9</ele>
        <time>2020-06-06T13:16:26Z</time>
      </trkpt>
      <trkpt lat="47.64669" lon="-2.78071">
        <ele>10.8</ele>
        <time>2020-06-06T13:16:27Z</time>
      </trkpt>
      <trkpt lat="47.64672" lon="-2.78075">
        <ele>10.7</ele>
        <time>2020-06-06T13:16:28Z</time>
      </trkpt>
      <trkpt lat="47.64676" lon="-2.78078">
        <ele>10.6</ele>
        <time>2020-06-06T13:16:29Z</time>
      </trkpt>
      <trkpt lat="47.64679" lon="-2.78083">
        <ele>10.5</ele>
        <time>2020-06-06T13:16:30Z</time>
      </trkpt>
      <trkpt lat="47.64682" lon="-2.78087">
        <ele>10.5</ele>
        <time>2020-06-06T13:16:31Z</time>
      </trkpt>
      <trkpt lat="47.64686" lon="-2.78092">
        <ele>10.5</ele>
        <time>2020-06-06T13:16:32Z</time>
      </trkpt>
      <trkpt lat="47.64689" lon="-2.78097">
        <ele>10.6</ele>
        <time>2020-06-06T13:16:33Z</time>
      </trkpt>
      <trkpt lat="47.64693" lon="-2.78102">
        <ele>10.6</ele>
        <time>2020-06-06T13:16:34Z</time>
      </trkpt>
      <trkpt lat="47.64697" lon="-2.78106">
        <ele>10.7</ele>
        <time>2020-06-06T13:16:35Z</time>
      </trkpt>
      <trkpt lat="47.64701" lon="-2.7811">
        <ele>10.8</ele>
        <time>2020-06-06T13:16:36Z</time>
      </trkpt>
      <trkpt lat="47.64705" lon="-2.78113">
        <ele>10.9</ele>
        <time>2020-06-06T13:16:37Z</time>
      </trkpt>
      <trkpt lat="47.64709" lon="-2.78116">
        <ele>11</ele>
        <time>2020-06-06T13:16:38Z</time>
      </trkpt>
      <trkpt lat="47.64713" lon="-2.78119">
        <ele>11.1</ele>
        <time>2020-06-06T13:16:39Z</time>
      </trkpt>
      <trkpt lat="47.64716" lon="-2.78122">
        <ele>11.2</ele>
        <time>2020-06-06T13:16:40Z</time>
      </trkpt>
      <trkpt lat="47.64719" lon="-2.78124">
        <ele>11.3</ele>
        <time>2020-06-06T13:16:41Z</time>
      </trkpt>
      <trkpt lat="47.64723" lon="-2.78126">
        <ele>11.4</ele>
        <time>2020-06-06T13:16:42Z</time>
      </trkpt>
      <trkpt lat="47.64727" lon="-2.78128">
        <ele>11.5</ele>
        <time>2020-06-06T13:16:43Z</time>
      </trkpt>
      <trkpt lat="47.64731" lon="-2.78129">
        <ele>11.6</ele>
        <time>2020-06-06T13:16:44Z</time>
      </trkpt>
      <trkpt lat="47.64734" lon="-2.78132">
        <ele>11.7</ele>
        <time>2020-06-06T13:16:45Z</time>
      </trkpt>
      <trkpt lat="47.64738" lon="-2.78134">
        <ele>11.8</ele>
        <time>2020-06-06T13:16:46Z</time>
      </trkpt>
      <trkpt lat="47.64742" lon="-2.78137">
        <ele>11.9</ele>
        <time>2020-06-06T13:16:47Z</time>
      </trkpt>
      <trkpt lat="47.64745" lon="-2.78142">
        <ele>12.1</ele>
        <time>2020-06-06T13:16:48Z</time>
      </trkpt>
      <trkpt lat="47.64749" lon="-2.78145">
        <ele>12.2</ele>
        <time>2020-06-06T13:16:49Z</time>
      </trkpt>
      <trkpt lat="47.64752" lon="-2.78148">
        <ele>12.3</ele>
        <time>2020-06-06T13:16:50Z</time>
      </trkpt>
      <trkpt lat="47.64756" lon="-2.78151">
        <ele>12.4</ele>
        <time>2020-06-06T13:16:51Z</time>
      </trkpt>
      <trkpt lat="47.6476" lon="-2.78154">
        <ele>12.5</ele>
        <time>2020-06-06T13:16:52Z</time>
      </trkpt>
      <trkpt lat="47.64763" lon="-2.78156">
        <ele>12.6</ele>
        <time>2020-06-06T13:16:53Z</time>
      </trkpt>
      <trkpt lat="47.64766" lon="-2.78156">
        <ele>12.7</ele>
        <time>2020-06-06T13:16:54Z</time>
      </trkpt>
      <trkpt lat="47.64769" lon="-2.78158">
        <ele>12.8</ele>
        <time>2020-06-06T13:16:55Z</time>
      </trkpt>
      <trkpt lat="47.64772" lon="-2.78158">
        <ele>12.8</ele>
        <time>2020-06-06T13:16:56Z</time>
      </trkpt>
      <trkpt lat="47.64775" lon="-2.7816">
        <ele>12.9</ele>
        <time>2020-06-06T13:16:57Z</time>
      </trkpt>
      <trkpt lat="47.64779" lon="-2.78163">
        <ele>13</ele>
        <time>2020-06-06T13:16:58Z</time>
      </trkpt>
      <trkpt lat="47.64783" lon="-2.78166">
        <ele>13.1</ele>
        <time>2020-06-06T13:16:59Z</time>
      </trkpt>
      <trkpt lat="47.64787" lon="-2.78169">
        <ele>13.2</ele>
        <time>2020-06-06T13:17:00Z</time>
      </trkpt>
      <trkpt lat="47.6479" lon="-2.7817">
        <ele>13.3</ele>
        <time>2020-06-06T13:17:01Z</time>
      </trkpt>
      <trkpt lat="47.64792" lon="-2.78172">
        <ele>13.4</ele>
        <time>2020-06-06T13:17:02Z</time>
      </trkpt>
      <trkpt lat="47.64796" lon="-2.78175">
        <ele>13.5</ele>
        <time>2020-06-06T13:17:03Z</time>
      </trkpt>
      <trkpt lat="47.648" lon="-2.78178">
        <ele>13.7</ele>
        <time>2020-06-06T13:17:04Z</time>
      </trkpt>
      <trkpt lat="47.64805" lon="-2.78181">
        <ele>13.9</ele>
        <time>2020-06-06T13:17:05Z</time>
      </trkpt>
      <trkpt lat="47.6481" lon="-2.78184">
        <ele>14.1</ele>
        <time>2020-06-06T13:17:06Z</time>
      </trkpt>
      <trkpt lat="47.64816" lon="-2.78188">
        <ele>14.3</ele>
        <time>2020-06-06T13:17:07Z</time>
      </trkpt>
      <trkpt lat="47.6482" lon="-2.78191">
        <ele>14.5</ele>
        <time>2020-06-06T13:17:08Z</time>
      </trkpt>
      <trkpt lat="47.64824" lon="-2.78194">
        <ele>14.6</ele>
        <time>2020-06-06T13:17:09Z</time>
      </trkpt>
      <trkpt lat="47.64828" lon="-2.78197">
        <ele>14.8</ele>
        <time>2020-06-06T13:17:10Z</time>
      </trkpt>
      <trkpt lat="47.64833" lon="-2.78198">
        <ele>14.9</ele>
        <time>2020-06-06T13:17:11Z</time>
      </trkpt>
      <trkpt lat="47.64837" lon="-2.782">
        <ele>15.1</ele>
        <time>2020-06-06T13:17:12Z</time>
      </trkpt>
      <trkpt lat="47.64842" lon="-2.78202">
        <ele>15.2</ele>
        <time>2020-06-06T13:17:13Z</time>
      </trkpt>
      <trkpt lat="47.64846" lon="-2.78204">
        <ele>15.4</ele>
        <time>2020-06-06T13:17:14Z</time>
      </trkpt>
      <trkpt lat="47.6485" lon="-2.78204">
        <ele>15.5</ele>
        <time>2020-06-06T13:17:15Z</time>
      </trkpt>
      <trkpt lat="47.64855" lon="-2.78206">
        <ele>15.7</ele>
        <time>2020-06-06T13:17:16Z</time>
      </trkpt>
      <trkpt lat="47.64858" lon="-2.78209">
        <ele>15.8</ele>
        <time>2020-06-06T13:17:17Z</time>
      </trkpt>
      <trkpt lat="47.64861" lon="-2.78211">
        <ele>16</ele>
        <time>2020-06-06T13:17:18Z</time>
      </trkpt>
      <trkpt lat="47.64864" lon="-2.78212">
        <ele>16.1</ele>
        <time>2020-06-06T13:17:19Z</time>
      </trkpt>
      <trkpt lat="47.64867" lon="-2.78213">
        <ele>16.2</ele>
        <time>2020-06-06T13:17:20Z</time>
      </trkpt>
      <trkpt lat="47.64871" lon="-2.78216">
        <ele>16.4</ele>
        <time>2020-06-06T13:17:21Z</time>
      </trkpt>
      <trkpt lat="47.64873" lon="-2.78218">
        <ele>16.5</ele>
        <time>2020-06-06T13:17:22Z</time>
      </trkpt>
      <trkpt lat="47.64876" lon="-2.78219">
        <ele>16.7</ele>
        <time>2020-06-06T13:17:23Z</time>
      </trkpt>
      <trkpt lat="47.64879" lon="-2.78222">
        <ele>16.8</ele>
        <time>2020-06-06T13:17:24Z</time>
      </trkpt>
      <trkpt lat="47.64882" lon="-2.78223">
        <ele>16.9</ele>
        <time>2020-06-06T13:17:25Z</time>
      </trkpt>
      <trkpt lat="47.64886" lon="-2.78225">
        <ele>17.1</ele>
        <time>2020-06-06T13:17:26Z</time>
      </trkpt>
      <trkpt lat="47.64889" lon="-2.78227">
        <ele>17.2</ele>
        <time>2020-06-06T13:17:27Z</time>
      </trkpt>
      <trkpt lat="47.64893" lon="-2.78229">
        <ele>17.3</ele>
        <time>2020-06-06T13:17:28Z</time>
      </trkpt>
      <trkpt lat="47.64896" lon="-2.78231">
        <ele>17.5</ele>
        <time>2020-06-06T13:17:29Z</time>
      </trkpt>
      <trkpt lat="47.64899" lon="-2.78231">
        <ele>17.6</ele>
        <time>2020-06-06T13:17:30Z</time>
      </trkpt>
      <trkpt lat="47.64903" lon="-2.78233">
        <ele>17.7</ele>
        <time>2020-06-06T13:17:31Z</time>
      </trkpt>
      <trkpt lat="47.64908" lon="-2.78236">
        <ele>17.9</ele>
        <time>2020-06-06T13:17:32Z</time>
      </trkpt>
      <trkpt lat="47.64911" lon="-2.78237">
        <ele>18</ele>
        <time>2020-06-06T13:17:33Z</time>
      </trkpt>
      <trkpt lat="47.64914" lon="-2.78239">
        <ele>18.1</ele>
        <time>2020-06-06T13:17:34Z</time>
      </trkpt>
      <trkpt lat="47.64917" lon="-2.7824">
        <ele>18.3</ele>
        <time>2020-06-06T13:17:35Z</time>
      </trkpt>
      <trkpt lat="47.64921" lon="-2.78243">
        <ele>18.4</ele>
        <time>2020-06-06T13:17:36Z</time>
      </trkpt>
      <trkpt lat="47.64923" lon="-2.78244">
        <ele>18.5</ele>
        <time>2020-06-06T13:17:37Z</time>
      </trkpt>
      <trkpt lat="47.64927" lon="-2.78246">
        <ele>18.7</ele>
        <time>2020-06-06T13:17:38Z</time>
      </trkpt>
      <trkpt lat="47.6493" lon="-2.78249">
        <ele>18.8</ele>
        <time>2020-06-06T13:17:39Z</time>
      </trkpt>
      <trkpt lat="47.64934" lon="-2.7825">
        <ele>18.9</ele>
        <time>2020-06-06T13:17:40Z</time>
      </trkpt>
      <trkpt lat="47.64938" lon="-2.78251">
        <ele>19.1</ele>
        <time>2020-06-06T13:17:41Z</time>
      </trkpt>
      <trkpt lat="47.64942" lon="-2.78252">
        <ele>19.2</ele>
        <time>2020-06-06T13:17:42Z</time>
      </trkpt>
      <trkpt lat="47.64945" lon="-2.78252">
        <ele>19.3</ele>
        <time>2020-06-06T13:17:43Z</time>
      </trkpt>
      <trkpt lat="47.64949" lon="-2.78253">
        <ele>19.4</ele>
        <time>2020-06-06T13:17:44Z</time>
      </trkpt>
      <trkpt lat="47.64952" lon="-2.78253">
        <ele>19.5</ele>
        <time>2020-06-06T13:17:45Z</time>
      </trkpt>
      <trkpt lat="47.64956" lon="-2.78254">
        <ele>19.7</ele>
        <time>2020-06-06T13:17:46Z</time>
      </trkpt>
      <trkpt lat="47.64959" lon="-2.78255">
        <ele>19.8</ele>
        <time>2020-06-06T13:17:47Z</time>
      </trkpt>
      <trkpt lat="47.64963" lon="-2.78257">
        <ele>19.9</ele>
        <time>2020-06-06T13:17:48Z</time>
      </trkpt>
      <trkpt lat="47.64966" lon="-2.78259">
        <ele>20</ele>
        <time>2020-06-06T13:17:49Z</time>
      </trkpt>
      <trkpt lat="47.6497" lon="-2.78261">
        <ele>20.1</ele>
        <time>2020-06-06T13:17:50Z</time>
      </trkpt>
      <trkpt lat="47.64974" lon="-2.78262">
        <ele>20.2</ele>
        <time>2020-06-06T13:17:51Z</time>
      </trkpt>
      <trkpt lat="47.64978" lon="-2.78263">
        <ele>20.4</ele>
        <time>2020-06-06T13:17:52Z</time>
      </trkpt>
      <trkpt lat="47.64982" lon="-2.78263">
        <ele>20.5</ele>
        <time>2020-06-06T13:17:53Z</time>
      </trkpt>
      <trkpt lat="47.64986" lon="-2.78264">
        <ele>20.7</ele>
        <time>2020-06-06T13:17:54Z</time>
      </trkpt>
      <trkpt lat="47.6499" lon="-2.78265">
        <ele>20.8</ele>
        <time>2020-06-06T13:17:55Z</time>
      </trkpt>
      <trkpt lat="47.64993" lon="-2.78265">
        <ele>20.9</ele>
        <time>2020-06-06T13:17:56Z</time>
      </trkpt>
      <trkpt lat="47.64996" lon="-2.78266">
        <ele>21.1</ele>
        <time>2020-06-06T13:17:57Z</time>
      </trkpt>
      <trkpt lat="47.64999" lon="-2.78268">
        <ele>21.2</ele>
        <time>2020-06-06T13:17:58Z</time>
      </trkpt>
      <trkpt lat="47.65003" lon="-2.78269">
        <ele>21.3</ele>
        <time>2020-06-06T13:17:59Z</time>
      </trkpt>
      <trkpt lat="47.65006" lon="-2.78271">
        <ele>21.4</ele>
        <time>2020-06-06T13:18:00Z</time>
      </trkpt>
      <trkpt lat="47.6501" lon="-2.78271">
        <ele>21.6</ele>
        <time>2020-06-06T13:18:01Z</time>
      </trkpt>
      <trkpt lat="47.65013" lon="-2.78274">
        <ele>21.7</ele>
        <time>2020-06-06T13:18:02Z</time>
      </trkpt>
      <trkpt lat="47.65017" lon="-2.78277">
        <ele>21.8</ele>
        <time>2020-06-06T13:18:03Z</time>
      </trkpt>
      <trkpt lat="47.65022" lon="-2.78278">
        <ele>21.9</ele>
        <time>2020-06-06T13:18:04Z</time>
      </trkpt>
      <trkpt lat="47.65026" lon="-2.78279">
        <ele>22</ele>
        <time>2020-06-06T13:18:05Z</time>
      </trkpt>
      <trkpt lat="47.65029" lon="-2.78281">
        <ele>22.2</ele>
        <time>2020-06-06T13:18:06Z</time>
      </trkpt>
      <trkpt lat="47.65033" lon="-2.78283">
        <ele>22.3</ele>
        <time>2020-06-06T13:18:07Z</time>
      </trkpt>
      <trkpt lat="47.65037" lon="-2.78284">
        <ele>22.4</ele>
        <time>2020-06-06T13:18:09Z</time>
      </trkpt>
      <trkpt lat="47.6504" lon="-2.78285">
        <ele>22.5</ele>
        <time>2020-06-06T13:18:10Z</time>
      </trkpt>
      <trkpt lat="47.65044" lon="-2.78286">
        <ele>22.6</ele>
        <time>2020-06-06T13:18:11Z</time>
      </trkpt>
      <trkpt lat="47.65048" lon="-2.78287">
        <ele>22.7</ele>
        <time>2020-06-06T13:18:12Z</time>
      </trkpt>
      <trkpt lat="47.65052" lon="-2.78287">
        <ele>22.8</ele>
        <time>2020-06-06T13:18:13Z</time>
      </trkpt>
      <trkpt lat="47.65055" lon="-2.78287">
        <ele>22.9</ele>
        <time>2020-06-06T13:18:14Z</time>
      </trkpt>
      <trkpt lat="47.65059" lon="-2.78288">
        <ele>23</ele>
        <time>2020-06-06T13:18:15Z</time>
      </trkpt>
      <trkpt lat="47.65063" lon="-2.78289">
        <ele>23.1</ele>
        <time>2020-06-06T13:18:16Z</time>
      </trkpt>
      <trkpt lat="47.65067" lon="-2.7829">
        <ele>23.2</ele>
        <time>2020-06-06T13:18:17Z</time>
      </trkpt>
      <trkpt lat="47.65069" lon="-2.78292">
        <ele>23.2</ele>
        <time>2020-06-06T13:18:18Z</time>
      </trkpt>
      <trkpt lat="47.65072" lon="-2.78293">
        <ele>23.4</ele>
        <time>2020-06-06T13:18:19Z</time>
      </trkpt>
      <trkpt lat="47.65077" lon="-2.78295">
        <ele>23.4</ele>
        <time>2020-06-06T13:18:20Z</time>
      </trkpt>
      <trkpt lat="47.6508" lon="-2.78296">
        <ele>23.5</ele>
        <time>2020-06-06T13:18:21Z</time>
      </trkpt>
      <trkpt lat="47.65083" lon="-2.78297">
        <ele>23.5</ele>
        <time>2020-06-06T13:18:22Z</time>
      </trkpt>
      <trkpt lat="47.65087" lon="-2.78298">
        <ele>23.6</ele>
        <time>2020-06-06T13:18:23Z</time>
      </trkpt>
      <trkpt lat="47.65091" lon="-2.78299">
        <ele>23.6</ele>
        <time>2020-06-06T13:18:24Z</time>
      </trkpt>
      <trkpt lat="47.65095" lon="-2.783">
        <ele>23.7</ele>
        <time>2020-06-06T13:18:25Z</time>
      </trkpt>
      <trkpt lat="47.651" lon="-2.78301">
        <ele>23.7</ele>
        <time>2020-06-06T13:18:26Z</time>
      </trkpt>
      <trkpt lat="47.65104" lon="-2.78303">
        <ele>23.7</ele>
        <time>2020-06-06T13:18:27Z</time>
      </trkpt>
      <trkpt lat="47.65108" lon="-2.78303">
        <ele>23.7</ele>
        <time>2020-06-06T13:18:28Z</time>
      </trkpt>
      <trkpt lat="47.65112" lon="-2.78304">
        <ele>23.7</ele>
        <time>2020-06-06T13:18:29Z</time>
      </trkpt>
      <trkpt lat="47.65115" lon="-2.78304">
        <ele>23.7</ele>
        <time>2020-06-06T13:18:30Z</time>
      </trkpt>
      <trkpt lat="47.65119" lon="-2.78305">
        <ele>23.7</ele>
        <time>2020-06-06T13:18:31Z</time>
      </trkpt>
      <trkpt lat="47.65123" lon="-2.78306">
        <ele>23.7</ele>
        <time>2020-06-06T13:18:32Z</time>
      </trkpt>
      <trkpt lat="47.65127" lon="-2.78306">
        <ele>23.7</ele>
        <time>2020-06-06T13:18:33Z</time>
      </trkpt>
      <trkpt lat="47.65132" lon="-2.78308">
        <ele>23.8</ele>
        <time>2020-06-06T13:18:34Z</time>
      </trkpt>
      <trkpt lat="47.65137" lon="-2.78309">
        <ele>23.8</ele>
        <time>2020-06-06T13:18:35Z</time>
      </trkpt>
      <trkpt lat="47.65141" lon="-2.7831">
        <ele>23.8</ele>
        <time>2020-06-06T13:18:36Z</time>
      </trkpt>
      <trkpt lat="47.65146" lon="-2.7831">
        <ele>23.9</ele>
        <time>2020-06-06T13:18:37Z</time>
      </trkpt>
      <trkpt lat="47.6515" lon="-2.78312">
        <ele>24</ele>
        <time>2020-06-06T13:18:38Z</time>
      </trkpt>
      <trkpt lat="47.65155" lon="-2.78314">
        <ele>24.1</ele>
        <time>2020-06-06T13:18:39Z</time>
      </trkpt>
      <trkpt lat="47.65159" lon="-2.78314">
        <ele>24.1</ele>
        <time>2020-06-06T13:18:40Z</time>
      </trkpt>
      <trkpt lat="47.65163" lon="-2.78315">
        <ele>24.2</ele>
        <time>2020-06-06T13:18:41Z</time>
      </trkpt>
      <trkpt lat="47.65167" lon="-2.78316">
        <ele>24.2</ele>
        <time>2020-06-06T13:18:42Z</time>
      </trkpt>
      <trkpt lat="47.6517" lon="-2.78316">
        <ele>24.2</ele>
        <time>2020-06-06T13:18:43Z</time>
      </trkpt>
      <trkpt lat="47.65174" lon="-2.78317">
        <ele>24.3</ele>
        <time>2020-06-06T13:18:44Z</time>
      </trkpt>
      <trkpt lat="47.65178" lon="-2.78319">
        <ele>24.3</ele>
        <time>2020-06-06T13:18:45Z</time>
      </trkpt>
      <trkpt lat="47.65183" lon="-2.78321">
        <ele>24.3</ele>
        <time>2020-06-06T13:18:46Z</time>
      </trkpt>
      <trkpt lat="47.65187" lon="-2.78322">
        <ele>24.4</ele>
        <time>2020-06-06T13:18:47Z</time>
      </trkpt>
      <trkpt lat="47.6519" lon="-2.78322">
        <ele>24.4</ele>
        <time>2020-06-06T13:18:48Z</time>
      </trkpt>
      <trkpt lat="47.65194" lon="-2.78323">
        <ele>24.5</ele>
        <time>2020-06-06T13:18:49Z</time>
      </trkpt>
      <trkpt lat="47.65198" lon="-2.78324">
        <ele>24.6</ele>
        <time>2020-06-06T13:18:50Z</time>
      </trkpt>
      <trkpt lat="47.65202" lon="-2.78324">
        <ele>24.6</ele>
        <time>2020-06-06T13:18:51Z</time>
      </trkpt>
      <trkpt lat="47.65206" lon="-2.78324">
        <ele>24.7</ele>
        <time>2020-06-06T13:18:52Z</time>
      </trkpt>
      <trkpt lat="47.65211" lon="-2.78324">
        <ele>24.7</ele>
        <time>2020-06-06T13:18:53Z</time>
      </trkpt>
      <trkpt lat="47.65214" lon="-2.78325">
        <ele>24.7</ele>
        <time>2020-06-06T13:18:54Z</time>
      </trkpt>
      <trkpt lat="47.65218" lon="-2.78325">
        <ele>24.7</ele>
        <time>2020-06-06T13:18:55Z</time>
      </trkpt>
      <trkpt lat="47.65222" lon="-2.78325">
        <ele>24.7</ele>
        <time>2020-06-06T13:18:56Z</time>
      </trkpt>
      <trkpt lat="47.65223" lon="-2.78325">
        <ele>24.7</ele>
        <time>2020-06-06T13:18:57Z</time>
      </trkpt>
      <trkpt lat="47.65226" lon="-2.78324">
        <ele>24.7</ele>
        <time>2020-06-06T13:18:58Z</time>
      </trkpt>
      <trkpt lat="47.6523" lon="-2.78324">
        <ele>24.8</ele>
        <time>2020-06-06T13:18:59Z</time>
      </trkpt>
      <trkpt lat="47.65234" lon="-2.78324">
        <ele>24.8</ele>
        <time>2020-06-06T13:19:00Z</time>
      </trkpt>
      <trkpt lat="47.65237" lon="-2.78323">
        <ele>24.9</ele>
        <time>2020-06-06T13:19:01Z</time>
      </trkpt>
      <trkpt lat="47.65241" lon="-2.78324">
        <ele>24.9</ele>
        <time>2020-06-06T13:19:02Z</time>
      </trkpt>
      <trkpt lat="47.65245" lon="-2.78325">
        <ele>25</ele>
        <time>2020-06-06T13:19:03Z</time>
      </trkpt>
      <trkpt lat="47.6525" lon="-2.78326">
        <ele>25.1</ele>
        <time>2020-06-06T13:19:04Z</time>
      </trkpt>
      <trkpt lat="47.65254" lon="-2.78327">
        <ele>25.2</ele>
        <time>2020-06-06T13:19:05Z</time>
      </trkpt>
      <trkpt lat="47.65259" lon="-2.78327">
        <ele>25.3</ele>
        <time>2020-06-06T13:19:06Z</time>
      </trkpt>
      <trkpt lat="47.65264" lon="-2.78328">
        <ele>25.4</ele>
        <time>2020-06-06T13:19:07Z</time>
      </trkpt>
      <trkpt lat="47.65268" lon="-2.78328">
        <ele>25.5</ele>
        <time>2020-06-06T13:19:08Z</time>
      </trkpt>
      <trkpt lat="47.65272" lon="-2.78328">
        <ele>25.6</ele>
        <time>2020-06-06T13:19:09Z</time>
      </trkpt>
      <trkpt lat="47.65277" lon="-2.78329">
        <ele>25.6</ele>
        <time>2020-06-06T13:19:10Z</time>
      </trkpt>
      <trkpt lat="47.65281" lon="-2.78328">
        <ele>25.7</ele>
        <time>2020-06-06T13:19:11Z</time>
      </trkpt>
      <trkpt lat="47.65285" lon="-2.78327">
        <ele>25.8</ele>
        <time>2020-06-06T13:19:12Z</time>
      </trkpt>
      <trkpt lat="47.65289" lon="-2.78327">
        <ele>25.8</ele>
        <time>2020-06-06T13:19:13Z</time>
      </trkpt>
      <trkpt lat="47.65292" lon="-2.78327">
        <ele>25.8</ele>
        <time>2020-06-06T13:19:14Z</time>
      </trkpt>
      <trkpt lat="47.65296" lon="-2.78327">
        <ele>25.8</ele>
        <time>2020-06-06T13:19:15Z</time>
      </trkpt>
      <trkpt lat="47.65299" lon="-2.78326">
        <ele>25.8</ele>
        <time>2020-06-06T13:19:16Z</time>
      </trkpt>
      <trkpt lat="47.65302" lon="-2.78326">
        <ele>25.9</ele>
        <time>2020-06-06T13:19:17Z</time>
      </trkpt>
      <trkpt lat="47.65305" lon="-2.78326">
        <ele>25.9</ele>
        <time>2020-06-06T13:19:18Z</time>
      </trkpt>
      <trkpt lat="47.6531" lon="-2.78327">
        <ele>25.9</ele>
        <time>2020-06-06T13:19:19Z</time>
      </trkpt>
      <trkpt lat="47.65313" lon="-2.78327">
        <ele>25.9</ele>
        <time>2020-06-06T13:19:20Z</time>
      </trkpt>
      <trkpt lat="47.65316" lon="-2.78328">
        <ele>26</ele>
        <time>2020-06-06T13:19:21Z</time>
      </trkpt>
      <trkpt lat="47.65319" lon="-2.7833">
        <ele>26</ele>
        <time>2020-06-06T13:19:22Z</time>
      </trkpt>
      <trkpt lat="47.65322" lon="-2.78332">
        <ele>26</ele>
        <time>2020-06-06T13:19:23Z</time>
      </trkpt>
      <trkpt lat="47.65325" lon="-2.78333">
        <ele>26</ele>
        <time>2020-06-06T13:19:24Z</time>
      </trkpt>
      <trkpt lat="47.65328" lon="-2.78334">
        <ele>26.1</ele>
        <time>2020-06-06T13:19:25Z</time>
      </trkpt>
      <trkpt lat="47.65331" lon="-2.78334">
        <ele>26.1</ele>
        <time>2020-06-06T13:19:26Z</time>
      </trkpt>
      <trkpt lat="47.65336" lon="-2.78336">
        <ele>26.1</ele>
        <time>2020-06-06T13:19:27Z</time>
      </trkpt>
      <trkpt lat="47.65337" lon="-2.78337">
        <ele>26.1</ele>
        <time>2020-06-06T13:19:28Z</time>
      </trkpt>
      <trkpt lat="47.6534" lon="-2.78342">
        <ele>26.2</ele>
        <time>2020-06-06T13:19:29Z</time>
      </trkpt>
      <trkpt lat="47.6534" lon="-2.78344">
        <ele>26.2</ele>
        <time>2020-06-06T13:19:30Z</time>
      </trkpt>
      <trkpt lat="47.65342" lon="-2.78348">
        <ele>26.2</ele>
        <time>2020-06-06T13:19:31Z</time>
      </trkpt>
      <trkpt lat="47.65343" lon="-2.78352">
        <ele>26.2</ele>
        <time>2020-06-06T13:19:32Z</time>
      </trkpt>
      <trkpt lat="47.65344" lon="-2.78357">
        <ele>26.2</ele>
        <time>2020-06-06T13:19:33Z</time>
      </trkpt>
      <trkpt lat="47.65345" lon="-2.78361">
        <ele>26.3</ele>
        <time>2020-06-06T13:19:34Z</time>
      </trkpt>
      <trkpt lat="47.65346" lon="-2.78366">
        <ele>26.3</ele>
        <time>2020-06-06T13:19:35Z</time>
      </trkpt>
      <trkpt lat="47.65347" lon="-2.78369">
        <ele>26.3</ele>
        <time>2020-06-06T13:19:36Z</time>
      </trkpt>
      <trkpt lat="47.65351" lon="-2.7837">
        <ele>26.3</ele>
        <time>2020-06-06T13:19:37Z</time>
      </trkpt>
      <trkpt lat="47.65353" lon="-2.78369">
        <ele>26.3</ele>
        <time>2020-06-06T13:19:38Z</time>
      </trkpt>
      <trkpt lat="47.65356" lon="-2.78369">
        <ele>26.3</ele>
        <time>2020-06-06T13:19:39Z</time>
      </trkpt>
      <trkpt lat="47.65359" lon="-2.78368">
        <ele>26.4</ele>
        <time>2020-06-06T13:19:40Z</time>
      </trkpt>
      <trkpt lat="47.65363" lon="-2.78367">
        <ele>26.4</ele>
        <time>2020-06-06T13:19:41Z</time>
      </trkpt>
      <trkpt lat="47.65367" lon="-2.78367">
        <ele>26.5</ele>
        <time>2020-06-06T13:19:42Z</time>
      </trkpt>
      <trkpt lat="47.65371" lon="-2.78367">
        <ele>26.5</ele>
        <time>2020-06-06T13:19:43Z</time>
      </trkpt>
      <trkpt lat="47.65375" lon="-2.78366">
        <ele>26.6</ele>
        <time>2020-06-06T13:19:44Z</time>
      </trkpt>
      <trkpt lat="47.6538" lon="-2.78365">
        <ele>26.6</ele>
        <time>2020-06-06T13:19:45Z</time>
      </trkpt>
      <trkpt lat="47.65384" lon="-2.78364">
        <ele>26.6</ele>
        <time>2020-06-06T13:19:46Z</time>
      </trkpt>
      <trkpt lat="47.65388" lon="-2.78364">
        <ele>26.7</ele>
        <time>2020-06-06T13:19:47Z</time>
      </trkpt>
      <trkpt lat="47.65397" lon="-2.78363">
        <ele>26.7</ele>
        <time>2020-06-06T13:19:48Z</time>
      </trkpt>
      <trkpt lat="47.65401" lon="-2.78362">
        <ele>26.8</ele>
        <time>2020-06-06T13:19:49Z</time>
      </trkpt>
      <trkpt lat="47.65404" lon="-2.78359">
        <ele>26.8</ele>
        <time>2020-06-06T13:19:50Z</time>
      </trkpt>
      <trkpt lat="47.65408" lon="-2.78356">
        <ele>26.8</ele>
        <time>2020-06-06T13:19:51Z</time>
      </trkpt>
      <trkpt lat="47.65412" lon="-2.78353">
        <ele>26.9</ele>
        <time>2020-06-06T13:19:52Z</time>
      </trkpt>
      <trkpt lat="47.65416" lon="-2.78352">
        <ele>26.9</ele>
        <time>2020-06-06T13:19:53Z</time>
      </trkpt>
      <trkpt lat="47.65419" lon="-2.78351">
        <ele>27</ele>
        <time>2020-06-06T13:19:54Z</time>
      </trkpt>
      <trkpt lat="47.65422" lon="-2.78351">
        <ele>27</ele>
        <time>2020-06-06T13:19:55Z</time>
      </trkpt>
      <trkpt lat="47.65426" lon="-2.78353">
        <ele>26.9</ele>
        <time>2020-06-06T13:19:56Z</time>
      </trkpt>
      <trkpt lat="47.65427" lon="-2.78359">
        <ele>26.8</ele>
        <time>2020-06-06T13:19:57Z</time>
      </trkpt>
      <trkpt lat="47.65428" lon="-2.78362">
        <ele>26.7</ele>
        <time>2020-06-06T13:19:58Z</time>
      </trkpt>
      <trkpt lat="47.65429" lon="-2.78368">
        <ele>26.6</ele>
        <time>2020-06-06T13:19:59Z</time>
      </trkpt>
      <trkpt lat="47.6543" lon="-2.78375">
        <ele>26.4</ele>
        <time>2020-06-06T13:20:00Z</time>
      </trkpt>
      <trkpt lat="47.65431" lon="-2.78382">
        <ele>26.3</ele>
        <time>2020-06-06T13:20:01Z</time>
      </trkpt>
      <trkpt lat="47.65432" lon="-2.78388">
        <ele>26.1</ele>
        <time>2020-06-06T13:20:02Z</time>
      </trkpt>
      <trkpt lat="47.65433" lon="-2.78393">
        <ele>26.1</ele>
        <time>2020-06-06T13:20:03Z</time>
      </trkpt>
      <trkpt lat="47.65434" lon="-2.78399">
        <ele>26.1</ele>
        <time>2020-06-06T13:20:04Z</time>
      </trkpt>
      <trkpt lat="47.65436" lon="-2.78405">
        <ele>26.1</ele>
        <time>2020-06-06T13:20:05Z</time>
      </trkpt>
      <trkpt lat="47.65437" lon="-2.78411">
        <ele>26.2</ele>
        <time>2020-06-06T13:20:06Z</time>
      </trkpt>
      <trkpt lat="47.65437" lon="-2.78416">
        <ele>26.2</ele>
        <time>2020-06-06T13:20:07Z</time>
      </trkpt>
      <trkpt lat="47.65436" lon="-2.78422">
        <ele>26.5</ele>
        <time>2020-06-06T13:20:08Z</time>
      </trkpt>
      <trkpt lat="47.65436" lon="-2.78428">
        <ele>26.9</ele>
        <time>2020-06-06T13:20:09Z</time>
      </trkpt>
      <trkpt lat="47.65436" lon="-2.78434">
        <ele>27.4</ele>
        <time>2020-06-06T13:20:10Z</time>
      </trkpt>
      <trkpt lat="47.65436" lon="-2.78439">
        <ele>27.5</ele>
        <time>2020-06-06T13:20:11Z</time>
      </trkpt>
      <trkpt lat="47.65435" lon="-2.78444">
        <ele>27.6</ele>
        <time>2020-06-06T13:20:12Z</time>
      </trkpt>
      <trkpt lat="47.65436" lon="-2.78449">
        <ele>27.6</ele>
        <time>2020-06-06T13:20:13Z</time>
      </trkpt>
      <trkpt lat="47.65435" lon="-2.78455">
        <ele>27.6</ele>
        <time>2020-06-06T13:20:14Z</time>
      </trkpt>
      <trkpt lat="47.65436" lon="-2.78461">
        <ele>27.5</ele>
        <time>2020-06-06T13:20:15Z</time>
      </trkpt>
      <trkpt lat="47.65436" lon="-2.78466">
        <ele>27.5</ele>
        <time>2020-06-06T13:20:16Z</time>
      </trkpt>
      <trkpt lat="47.65436" lon="-2.78471">
        <ele>27.4</ele>
        <time>2020-06-06T13:20:17Z</time>
      </trkpt>
      <trkpt lat="47.65435" lon="-2.78476">
        <ele>27.4</ele>
        <time>2020-06-06T13:20:18Z</time>
      </trkpt>
      <trkpt lat="47.65435" lon="-2.7848">
        <ele>27.3</ele>
        <time>2020-06-06T13:20:19Z</time>
      </trkpt>
      <trkpt lat="47.65435" lon="-2.78482">
        <ele>27.3</ele>
        <time>2020-06-06T13:20:20Z</time>
      </trkpt>
      <trkpt lat="47.65435" lon="-2.78483">
        <ele>27.3</ele>
        <time>2020-06-06T13:20:21Z</time>
      </trkpt>
      <trkpt lat="47.65435" lon="-2.78482">
        <ele>27.3</ele>
        <time>2020-06-06T13:20:22Z</time>
      </trkpt>
      <trkpt lat="47.65436" lon="-2.78481">
        <ele>27.3</ele>
        <time>2020-06-06T13:20:23Z</time>
      </trkpt>
      <trkpt lat="47.65436" lon="-2.7848">
        <ele>27.3</ele>
        <time>2020-06-06T13:20:24Z</time>
      </trkpt>
      <trkpt lat="47.65437" lon="-2.78481">
        <ele>27.3</ele>
        <time>2020-06-06T13:20:25Z</time>
      </trkpt>
      <trkpt lat="47.65436" lon="-2.78483">
        <ele>27.3</ele>
        <time>2020-06-06T13:20:26Z</time>
      </trkpt>
      <trkpt lat="47.65436" lon="-2.78486">
        <ele>27.2</ele>
        <time>2020-06-06T13:20:27Z</time>
      </trkpt>
      <trkpt lat="47.65436" lon="-2.78488">
        <ele>27.2</ele>
        <time>2020-06-06T13:20:28Z</time>
      </trkpt>
      <trkpt lat="47.65436" lon="-2.7849">
        <ele>27.2</ele>
        <time>2020-06-06T13:20:29Z</time>
      </trkpt>
      <trkpt lat="47.65435" lon="-2.78494">
        <ele>27.2</ele>
        <time>2020-06-06T13:20:30Z</time>
      </trkpt>
      <trkpt lat="47.65435" lon="-2.78495">
        <ele>27.2</ele>
        <time>2020-06-06T13:20:31Z</time>
      </trkpt>
      <trkpt lat="47.65435" lon="-2.78499">
        <ele>27.2</ele>
        <time>2020-06-06T13:20:32Z</time>
      </trkpt>
      <trkpt lat="47.65435" lon="-2.78504">
        <ele>27.2</ele>
        <time>2020-06-06T13:20:33Z</time>
      </trkpt>
      <trkpt lat="47.65434" lon="-2.78508">
        <ele>27.2</ele>
        <time>2020-06-06T13:20:34Z</time>
      </trkpt>
      <trkpt lat="47.65435" lon="-2.78513">
        <ele>27.1</ele>
        <time>2020-06-06T13:20:35Z</time>
      </trkpt>
      <trkpt lat="47.65435" lon="-2.78514">
        <ele>27.1</ele>
        <time>2020-06-06T13:20:36Z</time>
      </trkpt>
      <trkpt lat="47.65435" lon="-2.7852">
        <ele>27.1</ele>
        <time>2020-06-06T13:20:37Z</time>
      </trkpt>
      <trkpt lat="47.65435" lon="-2.78522">
        <ele>27.1</ele>
        <time>2020-06-06T13:20:38Z</time>
      </trkpt>
      <trkpt lat="47.65437" lon="-2.78527">
        <ele>27</ele>
        <time>2020-06-06T13:20:39Z</time>
      </trkpt>
      <trkpt lat="47.65437" lon="-2.78529">
        <ele>27</ele>
        <time>2020-06-06T13:20:40Z</time>
      </trkpt>
      <trkpt lat="47.65438" lon="-2.78534">
        <ele>26.9</ele>
        <time>2020-06-06T13:20:41Z</time>
      </trkpt>
      <trkpt lat="47.65438" lon="-2.78535">
        <ele>26.9</ele>
        <time>2020-06-06T13:20:42Z</time>
      </trkpt>
      <trkpt lat="47.65439" lon="-2.78539">
        <ele>26.9</ele>
        <time>2020-06-06T13:20:43Z</time>
      </trkpt>
      <trkpt lat="47.65439" lon="-2.78541">
        <ele>26.9</ele>
        <time>2020-06-06T13:20:44Z</time>
      </trkpt>
      <trkpt lat="47.6544" lon="-2.78543">
        <ele>26.8</ele>
        <time>2020-06-06T13:20:45Z</time>
      </trkpt>
      <trkpt lat="47.6544" lon="-2.78546">
        <ele>26.8</ele>
        <time>2020-06-06T13:20:46Z</time>
      </trkpt>
      <trkpt lat="47.65441" lon="-2.7855">
        <ele>26.7</ele>
        <time>2020-06-06T13:20:47Z</time>
      </trkpt>
      <trkpt lat="47.6544" lon="-2.78554">
        <ele>26.7</ele>
        <time>2020-06-06T13:20:48Z</time>
      </trkpt>
      <trkpt lat="47.6544" lon="-2.78559">
        <ele>26.6</ele>
        <time>2020-06-06T13:20:49Z</time>
      </trkpt>
      <trkpt lat="47.65439" lon="-2.78564">
        <ele>26.5</ele>
        <time>2020-06-06T13:20:50Z</time>
      </trkpt>
      <trkpt lat="47.65439" lon="-2.78569">
        <ele>26.4</ele>
        <time>2020-06-06T13:20:51Z</time>
      </trkpt>
      <trkpt lat="47.65439" lon="-2.78575">
        <ele>26.3</ele>
        <time>2020-06-06T13:20:52Z</time>
      </trkpt>
      <trkpt lat="47.65439" lon="-2.78581">
        <ele>26.2</ele>
        <time>2020-06-06T13:20:53Z</time>
      </trkpt>
      <trkpt lat="47.65439" lon="-2.78586">
        <ele>26.1</ele>
        <time>2020-06-06T13:20:54Z</time>
      </trkpt>
      <trkpt lat="47.65439" lon="-2.78594">
        <ele>26</ele>
        <time>2020-06-06T13:20:55Z</time>
      </trkpt>
      <trkpt lat="47.65439" lon="-2.786">
        <ele>26</ele>
        <time>2020-06-06T13:20:56Z</time>
      </trkpt>
      <trkpt lat="47.65439" lon="-2.78607">
        <ele>25.9</ele>
        <time>2020-06-06T13:20:57Z</time>
      </trkpt>
      <trkpt lat="47.65438" lon="-2.78614">
        <ele>25.8</ele>
        <time>2020-06-06T13:20:58Z</time>
      </trkpt>
      <trkpt lat="47.65436" lon="-2.7862">
        <ele>25.7</ele>
        <time>2020-06-06T13:20:59Z</time>
      </trkpt>
      <trkpt lat="47.65436" lon="-2.78627">
        <ele>25.6</ele>
        <time>2020-06-06T13:21:00Z</time>
      </trkpt>
      <trkpt lat="47.65436" lon="-2.78634">
        <ele>25.5</ele>
        <time>2020-06-06T13:21:01Z</time>
      </trkpt>
      <trkpt lat="47.65436" lon="-2.78642">
        <ele>25.4</ele>
        <time>2020-06-06T13:21:02Z</time>
      </trkpt>
      <trkpt lat="47.65437" lon="-2.7865">
        <ele>25.3</ele>
        <time>2020-06-06T13:21:03Z</time>
      </trkpt>
      <trkpt lat="47.65438" lon="-2.78657">
        <ele>25.3</ele>
        <time>2020-06-06T13:21:04Z</time>
      </trkpt>
      <trkpt lat="47.65439" lon="-2.78665">
        <ele>25.2</ele>
        <time>2020-06-06T13:21:05Z</time>
      </trkpt>
      <trkpt lat="47.65438" lon="-2.7867">
        <ele>25.2</ele>
        <time>2020-06-06T13:21:06Z</time>
      </trkpt>
      <trkpt lat="47.65439" lon="-2.78678">
        <ele>25.2</ele>
        <time>2020-06-06T13:21:07Z</time>
      </trkpt>
      <trkpt lat="47.6544" lon="-2.78687">
        <ele>25.1</ele>
        <time>2020-06-06T13:21:08Z</time>
      </trkpt>
      <trkpt lat="47.65441" lon="-2.78694">
        <ele>25</ele>
        <time>2020-06-06T13:21:09Z</time>
      </trkpt>
      <trkpt lat="47.65442" lon="-2.78701">
        <ele>25</ele>
        <time>2020-06-06T13:21:10Z</time>
      </trkpt>
      <trkpt lat="47.65443" lon="-2.7871">
        <ele>24.8</ele>
        <time>2020-06-06T13:21:11Z</time>
      </trkpt>
      <trkpt lat="47.65444" lon="-2.78718">
        <ele>24.6</ele>
        <time>2020-06-06T13:21:12Z</time>
      </trkpt>
      <trkpt lat="47.65444" lon="-2.78724">
        <ele>24.5</ele>
        <time>2020-06-06T13:21:13Z</time>
      </trkpt>
      <trkpt lat="47.65445" lon="-2.78731">
        <ele>24.3</ele>
        <time>2020-06-06T13:21:14Z</time>
      </trkpt>
      <trkpt lat="47.65446" lon="-2.78738">
        <ele>24.2</ele>
        <time>2020-06-06T13:21:15Z</time>
      </trkpt>
      <trkpt lat="47.65447" lon="-2.78745">
        <ele>24.1</ele>
        <time>2020-06-06T13:21:16Z</time>
      </trkpt>
      <trkpt lat="47.65449" lon="-2.78751">
        <ele>23.8</ele>
        <time>2020-06-06T13:21:17Z</time>
      </trkpt>
      <trkpt lat="47.65451" lon="-2.78759">
        <ele>23.8</ele>
        <time>2020-06-06T13:21:18Z</time>
      </trkpt>
      <trkpt lat="47.65452" lon="-2.78766">
        <ele>23.8</ele>
        <time>2020-06-06T13:21:19Z</time>
      </trkpt>
      <trkpt lat="47.65452" lon="-2.78773">
        <ele>23.8</ele>
        <time>2020-06-06T13:21:20Z</time>
      </trkpt>
      <trkpt lat="47.65452" lon="-2.7878">
        <ele>23.8</ele>
        <time>2020-06-06T13:21:21Z</time>
      </trkpt>
      <trkpt lat="47.65453" lon="-2.78787">
        <ele>23.9</ele>
        <time>2020-06-06T13:21:22Z</time>
      </trkpt>
      <trkpt lat="47.65454" lon="-2.78793">
        <ele>23.9</ele>
        <time>2020-06-06T13:21:23Z</time>
      </trkpt>
      <trkpt lat="47.65455" lon="-2.788">
        <ele>23.9</ele>
        <time>2020-06-06T13:21:24Z</time>
      </trkpt>
      <trkpt lat="47.65455" lon="-2.78806">
        <ele>23.9</ele>
        <time>2020-06-06T13:21:25Z</time>
      </trkpt>
      <trkpt lat="47.65455" lon="-2.7881">
        <ele>24</ele>
        <time>2020-06-06T13:21:26Z</time>
      </trkpt>
      <trkpt lat="47.65457" lon="-2.78814">
        <ele>24</ele>
        <time>2020-06-06T13:21:27Z</time>
      </trkpt>
      <trkpt lat="47.65458" lon="-2.78815">
        <ele>24</ele>
        <time>2020-06-06T13:21:28Z</time>
      </trkpt>
      <trkpt lat="47.6546" lon="-2.78818">
        <ele>24.1</ele>
        <time>2020-06-06T13:21:29Z</time>
      </trkpt>
      <trkpt lat="47.65461" lon="-2.7882">
        <ele>24.1</ele>
        <time>2020-06-06T13:21:30Z</time>
      </trkpt>
      <trkpt lat="47.65463" lon="-2.78822">
        <ele>24.1</ele>
        <time>2020-06-06T13:21:31Z</time>
      </trkpt>
      <trkpt lat="47.65466" lon="-2.78825">
        <ele>24.2</ele>
        <time>2020-06-06T13:21:32Z</time>
      </trkpt>
      <trkpt lat="47.65468" lon="-2.78829">
        <ele>24.3</ele>
        <time>2020-06-06T13:21:33Z</time>
      </trkpt>
      <trkpt lat="47.65469" lon="-2.78833">
        <ele>24.3</ele>
        <time>2020-06-06T13:21:34Z</time>
      </trkpt>
      <trkpt lat="47.6547" lon="-2.78837">
        <ele>24.3</ele>
        <time>2020-06-06T13:21:35Z</time>
      </trkpt>
      <trkpt lat="47.65471" lon="-2.78842">
        <ele>24.3</ele>
        <time>2020-06-06T13:21:36Z</time>
      </trkpt>
      <trkpt lat="47.65472" lon="-2.78845">
        <ele>24.3</ele>
        <time>2020-06-06T13:21:37Z</time>
      </trkpt>
      <trkpt lat="47.6547" lon="-2.78851">
        <ele>24.3</ele>
        <time>2020-06-06T13:21:38Z</time>
      </trkpt>
      <trkpt lat="47.6547" lon="-2.78853">
        <ele>24.3</ele>
        <time>2020-06-06T13:21:39Z</time>
      </trkpt>
      <trkpt lat="47.65468" lon="-2.78858">
        <ele>24.3</ele>
        <time>2020-06-06T13:21:40Z</time>
      </trkpt>
      <trkpt lat="47.65468" lon="-2.78859">
        <ele>24.3</ele>
        <time>2020-06-06T13:21:41Z</time>
      </trkpt>
      <trkpt lat="47.65467" lon="-2.78864">
        <ele>24.2</ele>
        <time>2020-06-06T13:21:42Z</time>
      </trkpt>
      <trkpt lat="47.65468" lon="-2.78869">
        <ele>24.2</ele>
        <time>2020-06-06T13:21:43Z</time>
      </trkpt>
      <trkpt lat="47.65468" lon="-2.7887">
        <ele>24.2</ele>
        <time>2020-06-06T13:21:44Z</time>
      </trkpt>
      <trkpt lat="47.65469" lon="-2.78876">
        <ele>24.2</ele>
        <time>2020-06-06T13:21:45Z</time>
      </trkpt>
      <trkpt lat="47.65469" lon="-2.78878">
        <ele>24.2</ele>
        <time>2020-06-06T13:21:46Z</time>
      </trkpt>
      <trkpt lat="47.6547" lon="-2.78883">
        <ele>24.2</ele>
        <time>2020-06-06T13:21:47Z</time>
      </trkpt>
      <trkpt lat="47.65471" lon="-2.78887">
        <ele>24.2</ele>
        <time>2020-06-06T13:21:48Z</time>
      </trkpt>
      <trkpt lat="47.65472" lon="-2.78891">
        <ele>24.2</ele>
        <time>2020-06-06T13:21:49Z</time>
      </trkpt>
      <trkpt lat="47.65474" lon="-2.78896">
        <ele>24.2</ele>
        <time>2020-06-06T13:21:50Z</time>
      </trkpt>
      <trkpt lat="47.65475" lon="-2.78901">
        <ele>24.3</ele>
        <time>2020-06-06T13:21:51Z</time>
      </trkpt>
      <trkpt lat="47.65477" lon="-2.78906">
        <ele>24.3</ele>
        <time>2020-06-06T13:21:52Z</time>
      </trkpt>
      <trkpt lat="47.65479" lon="-2.78911">
        <ele>24.3</ele>
        <time>2020-06-06T13:21:53Z</time>
      </trkpt>
      <trkpt lat="47.65482" lon="-2.78917">
        <ele>24.3</ele>
        <time>2020-06-06T13:21:54Z</time>
      </trkpt>
      <trkpt lat="47.65484" lon="-2.78922">
        <ele>24.3</ele>
        <time>2020-06-06T13:21:55Z</time>
      </trkpt>
      <trkpt lat="47.65485" lon="-2.78929">
        <ele>24.3</ele>
        <time>2020-06-06T13:21:56Z</time>
      </trkpt>
      <trkpt lat="47.65487" lon="-2.78936">
        <ele>24.4</ele>
        <time>2020-06-06T13:21:57Z</time>
      </trkpt>
      <trkpt lat="47.6549" lon="-2.78941">
        <ele>24.4</ele>
        <time>2020-06-06T13:21:58Z</time>
      </trkpt>
      <trkpt lat="47.65492" lon="-2.78947">
        <ele>24.4</ele>
        <time>2020-06-06T13:21:59Z</time>
      </trkpt>
      <trkpt lat="47.65495" lon="-2.78952">
        <ele>24.4</ele>
        <time>2020-06-06T13:22:00Z</time>
      </trkpt>
      <trkpt lat="47.65497" lon="-2.78959">
        <ele>24.4</ele>
        <time>2020-06-06T13:22:01Z</time>
      </trkpt>
      <trkpt lat="47.65499" lon="-2.78966">
        <ele>24.5</ele>
        <time>2020-06-06T13:22:02Z</time>
      </trkpt>
      <trkpt lat="47.65501" lon="-2.78972">
        <ele>24.5</ele>
        <time>2020-06-06T13:22:03Z</time>
      </trkpt>
      <trkpt lat="47.65503" lon="-2.78978">
        <ele>24.5</ele>
        <time>2020-06-06T13:22:04Z</time>
      </trkpt>
      <trkpt lat="47.65506" lon="-2.78983">
        <ele>24.6</ele>
        <time>2020-06-06T13:22:05Z</time>
      </trkpt>
      <trkpt lat="47.65509" lon="-2.78988">
        <ele>24.6</ele>
        <time>2020-06-06T13:22:06Z</time>
      </trkpt>
      <trkpt lat="47.65512" lon="-2.78993">
        <ele>24.6</ele>
        <time>2020-06-06T13:22:07Z</time>
      </trkpt>
      <trkpt lat="47.65514" lon="-2.78999">
        <ele>24.7</ele>
        <time>2020-06-06T13:22:08Z</time>
      </trkpt>
      <trkpt lat="47.65517" lon="-2.79006">
        <ele>24.8</ele>
        <time>2020-06-06T13:22:09Z</time>
      </trkpt>
      <trkpt lat="47.6552" lon="-2.79011">
        <ele>25</ele>
        <time>2020-06-06T13:22:10Z</time>
      </trkpt>
      <trkpt lat="47.65522" lon="-2.79017">
        <ele>25.1</ele>
        <time>2020-06-06T13:22:11Z</time>
      </trkpt>
      <trkpt lat="47.65526" lon="-2.79021">
        <ele>25.2</ele>
        <time>2020-06-06T13:22:12Z</time>
      </trkpt>
      <trkpt lat="47.65529" lon="-2.79026">
        <ele>25.3</ele>
        <time>2020-06-06T13:22:13Z</time>
      </trkpt>
      <trkpt lat="47.65532" lon="-2.7903">
        <ele>25.3</ele>
        <time>2020-06-06T13:22:14Z</time>
      </trkpt>
      <trkpt lat="47.65534" lon="-2.79035">
        <ele>25.3</ele>
        <time>2020-06-06T13:22:15Z</time>
      </trkpt>
      <trkpt lat="47.65538" lon="-2.79038">
        <ele>25.3</ele>
        <time>2020-06-06T13:22:16Z</time>
      </trkpt>
      <trkpt lat="47.65541" lon="-2.79042">
        <ele>25.3</ele>
        <time>2020-06-06T13:22:17Z</time>
      </trkpt>
      <trkpt lat="47.65544" lon="-2.79046">
        <ele>25.4</ele>
        <time>2020-06-06T13:22:18Z</time>
      </trkpt>
      <trkpt lat="47.65546" lon="-2.7905">
        <ele>25.4</ele>
        <time>2020-06-06T13:22:19Z</time>
      </trkpt>
      <trkpt lat="47.65549" lon="-2.79053">
        <ele>25.4</ele>
        <time>2020-06-06T13:22:20Z</time>
      </trkpt>
      <trkpt lat="47.65552" lon="-2.79055">
        <ele>25.4</ele>
        <time>2020-06-06T13:22:21Z</time>
      </trkpt>
      <trkpt lat="47.65554" lon="-2.79058">
        <ele>25.5</ele>
        <time>2020-06-06T13:22:22Z</time>
      </trkpt>
      <trkpt lat="47.65556" lon="-2.79062">
        <ele>25.5</ele>
        <time>2020-06-06T13:22:23Z</time>
      </trkpt>
      <trkpt lat="47.65559" lon="-2.79064">
        <ele>25.5</ele>
        <time>2020-06-06T13:22:24Z</time>
      </trkpt>
      <trkpt lat="47.65561" lon="-2.79068">
        <ele>25.5</ele>
        <time>2020-06-06T13:22:25Z</time>
      </trkpt>
      <trkpt lat="47.65563" lon="-2.7907">
        <ele>25.5</ele>
        <time>2020-06-06T13:22:26Z</time>
      </trkpt>
      <trkpt lat="47.65565" lon="-2.79074">
        <ele>25.5</ele>
        <time>2020-06-06T13:22:27Z</time>
      </trkpt>
      <trkpt lat="47.65568" lon="-2.79077">
        <ele>25.5</ele>
        <time>2020-06-06T13:22:28Z</time>
      </trkpt>
      <trkpt lat="47.65572" lon="-2.79081">
        <ele>25.5</ele>
        <time>2020-06-06T13:22:29Z</time>
      </trkpt>
      <trkpt lat="47.65574" lon="-2.79085">
        <ele>25.5</ele>
        <time>2020-06-06T13:22:30Z</time>
      </trkpt>
      <trkpt lat="47.65577" lon="-2.79089">
        <ele>25.5</ele>
        <time>2020-06-06T13:22:31Z</time>
      </trkpt>
      <trkpt lat="47.65581" lon="-2.79094">
        <ele>25.5</ele>
        <time>2020-06-06T13:22:32Z</time>
      </trkpt>
      <trkpt lat="47.65584" lon="-2.79098">
        <ele>25.4</ele>
        <time>2020-06-06T13:22:33Z</time>
      </trkpt>
      <trkpt lat="47.65588" lon="-2.79102">
        <ele>25.4</ele>
        <time>2020-06-06T13:22:34Z</time>
      </trkpt>
      <trkpt lat="47.65591" lon="-2.79106">
        <ele>25.3</ele>
        <time>2020-06-06T13:22:35Z</time>
      </trkpt>
      <trkpt lat="47.65595" lon="-2.7911">
        <ele>25.3</ele>
        <time>2020-06-06T13:22:36Z</time>
      </trkpt>
      <trkpt lat="47.65598" lon="-2.79111">
        <ele>25.3</ele>
        <time>2020-06-06T13:22:37Z</time>
      </trkpt>
      <trkpt lat="47.65602" lon="-2.7911">
        <ele>25.4</ele>
        <time>2020-06-06T13:22:38Z</time>
      </trkpt>
      <trkpt lat="47.65607" lon="-2.79109">
        <ele>25.4</ele>
        <time>2020-06-06T13:22:39Z</time>
      </trkpt>
      <trkpt lat="47.65611" lon="-2.79109">
        <ele>25.5</ele>
        <time>2020-06-06T13:22:40Z</time>
      </trkpt>
      <trkpt lat="47.65614" lon="-2.79109">
        <ele>25.6</ele>
        <time>2020-06-06T13:22:41Z</time>
      </trkpt>
      <trkpt lat="47.65619" lon="-2.79109">
        <ele>25.6</ele>
        <time>2020-06-06T13:22:42Z</time>
      </trkpt>
      <trkpt lat="47.65622" lon="-2.7911">
        <ele>25.7</ele>
        <time>2020-06-06T13:22:43Z</time>
      </trkpt>
      <trkpt lat="47.65625" lon="-2.79111">
        <ele>25.7</ele>
        <time>2020-06-06T13:22:44Z</time>
      </trkpt>
      <trkpt lat="47.65628" lon="-2.79112">
        <ele>25.7</ele>
        <time>2020-06-06T13:22:45Z</time>
      </trkpt>
      <trkpt lat="47.65632" lon="-2.79112">
        <ele>25.8</ele>
        <time>2020-06-06T13:22:46Z</time>
      </trkpt>
      <trkpt lat="47.65633" lon="-2.79111">
        <ele>25.8</ele>
        <time>2020-06-06T13:22:47Z</time>
      </trkpt>
      <trkpt lat="47.65635" lon="-2.79107">
        <ele>25.8</ele>
        <time>2020-06-06T13:22:48Z</time>
      </trkpt>
      <trkpt lat="47.65636" lon="-2.79106">
        <ele>25.8</ele>
        <time>2020-06-06T13:22:49Z</time>
      </trkpt>
      <trkpt lat="47.65638" lon="-2.79104">
        <ele>26</ele>
        <time>2020-06-06T13:22:50Z</time>
      </trkpt>
      <trkpt lat="47.6564" lon="-2.791">
        <ele>26</ele>
        <time>2020-06-06T13:22:51Z</time>
      </trkpt>
      <trkpt lat="47.65641" lon="-2.79098">
        <ele>26</ele>
        <time>2020-06-06T13:22:52Z</time>
      </trkpt>
      <trkpt lat="47.65642" lon="-2.79098">
        <ele>26</ele>
        <time>2020-06-06T13:22:53Z</time>
      </trkpt>
      <trkpt lat="47.65643" lon="-2.79099">
        <ele>26</ele>
        <time>2020-06-06T13:22:54Z</time>
      </trkpt>
      <trkpt lat="47.65643" lon="-2.79102">
        <ele>26</ele>
        <time>2020-06-06T13:22:55Z</time>
      </trkpt>
      <trkpt lat="47.6564" lon="-2.79107">
        <ele>26</ele>
        <time>2020-06-06T13:22:56Z</time>
      </trkpt>
      <trkpt lat="47.65639" lon="-2.79108">
        <ele>25.9</ele>
        <time>2020-06-06T13:22:57Z</time>
      </trkpt>
      <trkpt lat="47.65635" lon="-2.79113">
        <ele>25.9</ele>
        <time>2020-06-06T13:22:58Z</time>
      </trkpt>
      <trkpt lat="47.65632" lon="-2.79118">
        <ele>25.8</ele>
        <time>2020-06-06T13:22:59Z</time>
      </trkpt>
      <trkpt lat="47.65629" lon="-2.79122">
        <ele>25.6</ele>
        <time>2020-06-06T13:23:00Z</time>
      </trkpt>
      <trkpt lat="47.65626" lon="-2.79126">
        <ele>25.4</ele>
        <time>2020-06-06T13:23:01Z</time>
      </trkpt>
      <trkpt lat="47.65623" lon="-2.79131">
        <ele>25.3</ele>
        <time>2020-06-06T13:23:02Z</time>
      </trkpt>
      <trkpt lat="47.65621" lon="-2.79135">
        <ele>25.1</ele>
        <time>2020-06-06T13:23:03Z</time>
      </trkpt>
      <trkpt lat="47.65621" lon="-2.7914">
        <ele>25.1</ele>
        <time>2020-06-06T13:23:04Z</time>
      </trkpt>
      <trkpt lat="47.65621" lon="-2.79142">
        <ele>25</ele>
        <time>2020-06-06T13:23:05Z</time>
      </trkpt>
      <trkpt lat="47.65623" lon="-2.79146">
        <ele>25</ele>
        <time>2020-06-06T13:23:06Z</time>
      </trkpt>
      <trkpt lat="47.65626" lon="-2.7915">
        <ele>24.9</ele>
        <time>2020-06-06T13:23:07Z</time>
      </trkpt>
      <trkpt lat="47.6563" lon="-2.79154">
        <ele>24.8</ele>
        <time>2020-06-06T13:23:08Z</time>
      </trkpt>
      <trkpt lat="47.65635" lon="-2.79157">
        <ele>24.7</ele>
        <time>2020-06-06T13:23:09Z</time>
      </trkpt>
      <trkpt lat="47.65641" lon="-2.7916">
        <ele>24.7</ele>
        <time>2020-06-06T13:23:10Z</time>
      </trkpt>
      <trkpt lat="47.65647" lon="-2.79164">
        <ele>24.7</ele>
        <time>2020-06-06T13:23:11Z</time>
      </trkpt>
      <trkpt lat="47.65652" lon="-2.79167">
        <ele>24.7</ele>
        <time>2020-06-06T13:23:12Z</time>
      </trkpt>
      <trkpt lat="47.65657" lon="-2.79172">
        <ele>24.8</ele>
        <time>2020-06-06T13:23:13Z</time>
      </trkpt>
      <trkpt lat="47.65662" lon="-2.79176">
        <ele>24.8</ele>
        <time>2020-06-06T13:23:14Z</time>
      </trkpt>
      <trkpt lat="47.65667" lon="-2.7918">
        <ele>24.9</ele>
        <time>2020-06-06T13:23:15Z</time>
      </trkpt>
      <trkpt lat="47.65672" lon="-2.79185">
        <ele>24.9</ele>
        <time>2020-06-06T13:23:16Z</time>
      </trkpt>
      <trkpt lat="47.65677" lon="-2.79189">
        <ele>25</ele>
        <time>2020-06-06T13:23:17Z</time>
      </trkpt>
      <trkpt lat="47.65682" lon="-2.79192">
        <ele>25</ele>
        <time>2020-06-06T13:23:18Z</time>
      </trkpt>
      <trkpt lat="47.65686" lon="-2.79196">
        <ele>25</ele>
        <time>2020-06-06T13:23:19Z</time>
      </trkpt>
      <trkpt lat="47.65691" lon="-2.79199">
        <ele>25</ele>
        <time>2020-06-06T13:23:20Z</time>
      </trkpt>
      <trkpt lat="47.65697" lon="-2.792">
        <ele>25</ele>
        <time>2020-06-06T13:23:21Z</time>
      </trkpt>
      <trkpt lat="47.65702" lon="-2.79203">
        <ele>25</ele>
        <time>2020-06-06T13:23:22Z</time>
      </trkpt>
      <trkpt lat="47.65706" lon="-2.79206">
        <ele>25.1</ele>
        <time>2020-06-06T13:23:23Z</time>
      </trkpt>
      <trkpt lat="47.65711" lon="-2.7921">
        <ele>25.1</ele>
        <time>2020-06-06T13:23:24Z</time>
      </trkpt>
      <trkpt lat="47.65715" lon="-2.79215">
        <ele>25.3</ele>
        <time>2020-06-06T13:23:25Z</time>
      </trkpt>
      <trkpt lat="47.65719" lon="-2.79219">
        <ele>25.4</ele>
        <time>2020-06-06T13:23:26Z</time>
      </trkpt>
      <trkpt lat="47.65723" lon="-2.79221">
        <ele>25.5</ele>
        <time>2020-06-06T13:23:27Z</time>
      </trkpt>
      <trkpt lat="47.65726" lon="-2.79224">
        <ele>25.7</ele>
        <time>2020-06-06T13:23:28Z</time>
      </trkpt>
      <trkpt lat="47.65731" lon="-2.79228">
        <ele>25.7</ele>
        <time>2020-06-06T13:23:29Z</time>
      </trkpt>
      <trkpt lat="47.65734" lon="-2.79232">
        <ele>25.8</ele>
        <time>2020-06-06T13:23:30Z</time>
      </trkpt>
      <trkpt lat="47.65738" lon="-2.79236">
        <ele>25.8</ele>
        <time>2020-06-06T13:23:31Z</time>
      </trkpt>
      <trkpt lat="47.65742" lon="-2.7924">
        <ele>25.8</ele>
        <time>2020-06-06T13:23:32Z</time>
      </trkpt>
      <trkpt lat="47.65746" lon="-2.79244">
        <ele>25.8</ele>
        <time>2020-06-06T13:23:33Z</time>
      </trkpt>
      <trkpt lat="47.65751" lon="-2.79248">
        <ele>25.9</ele>
        <time>2020-06-06T13:23:34Z</time>
      </trkpt>
      <trkpt lat="47.65756" lon="-2.79252">
        <ele>25.9</ele>
        <time>2020-06-06T13:23:35Z</time>
      </trkpt>
      <trkpt lat="47.65761" lon="-2.79256">
        <ele>25.9</ele>
        <time>2020-06-06T13:23:36Z</time>
      </trkpt>
      <trkpt lat="47.65766" lon="-2.79259">
        <ele>26</ele>
        <time>2020-06-06T13:23:37Z</time>
      </trkpt>
      <trkpt lat="47.65771" lon="-2.79263">
        <ele>26.1</ele>
        <time>2020-06-06T13:23:38Z</time>
      </trkpt>
      <trkpt lat="47.65775" lon="-2.79266">
        <ele>26.2</ele>
        <time>2020-06-06T13:23:39Z</time>
      </trkpt>
      <trkpt lat="47.65779" lon="-2.7927">
        <ele>26.2</ele>
        <time>2020-06-06T13:23:40Z</time>
      </trkpt>
      <trkpt lat="47.65783" lon="-2.79274">
        <ele>26.3</ele>
        <time>2020-06-06T13:23:41Z</time>
      </trkpt>
      <trkpt lat="47.65787" lon="-2.79278">
        <ele>26.4</ele>
        <time>2020-06-06T13:23:42Z</time>
      </trkpt>
      <trkpt lat="47.65791" lon="-2.79283">
        <ele>26.4</ele>
        <time>2020-06-06T13:23:43Z</time>
      </trkpt>
      <trkpt lat="47.65795" lon="-2.79286">
        <ele>26.5</ele>
        <time>2020-06-06T13:23:44Z</time>
      </trkpt>
      <trkpt lat="47.65799" lon="-2.79289">
        <ele>26.6</ele>
        <time>2020-06-06T13:23:45Z</time>
      </trkpt>
      <trkpt lat="47.65803" lon="-2.79292">
        <ele>26.7</ele>
        <time>2020-06-06T13:23:46Z</time>
      </trkpt>
      <trkpt lat="47.65806" lon="-2.79294">
        <ele>26.8</ele>
        <time>2020-06-06T13:23:47Z</time>
      </trkpt>
      <trkpt lat="47.65809" lon="-2.79296">
        <ele>27</ele>
        <time>2020-06-06T13:23:48Z</time>
      </trkpt>
      <trkpt lat="47.65813" lon="-2.79298">
        <ele>27.1</ele>
        <time>2020-06-06T13:23:49Z</time>
      </trkpt>
      <trkpt lat="47.65816" lon="-2.793">
        <ele>27.2</ele>
        <time>2020-06-06T13:23:50Z</time>
      </trkpt>
      <trkpt lat="47.65819" lon="-2.79303">
        <ele>27.4</ele>
        <time>2020-06-06T13:23:51Z</time>
      </trkpt>
      <trkpt lat="47.65822" lon="-2.79307">
        <ele>27.6</ele>
        <time>2020-06-06T13:23:52Z</time>
      </trkpt>
      <trkpt lat="47.65826" lon="-2.7931">
        <ele>27.8</ele>
        <time>2020-06-06T13:23:53Z</time>
      </trkpt>
      <trkpt lat="47.65829" lon="-2.79314">
        <ele>28</ele>
        <time>2020-06-06T13:23:54Z</time>
      </trkpt>
      <trkpt lat="47.65833" lon="-2.79317">
        <ele>28.2</ele>
        <time>2020-06-06T13:23:55Z</time>
      </trkpt>
      <trkpt lat="47.65836" lon="-2.7932">
        <ele>28.4</ele>
        <time>2020-06-06T13:23:56Z</time>
      </trkpt>
      <trkpt lat="47.65839" lon="-2.79322">
        <ele>28.6</ele>
        <time>2020-06-06T13:23:57Z</time>
      </trkpt>
      <trkpt lat="47.65842" lon="-2.79324">
        <ele>28.8</ele>
        <time>2020-06-06T13:23:58Z</time>
      </trkpt>
      <trkpt lat="47.65846" lon="-2.79326">
        <ele>29</ele>
        <time>2020-06-06T13:23:59Z</time>
      </trkpt>
      <trkpt lat="47.65849" lon="-2.79329">
        <ele>29.2</ele>
        <time>2020-06-06T13:24:00Z</time>
      </trkpt>
      <trkpt lat="47.65852" lon="-2.7933">
        <ele>29.4</ele>
        <time>2020-06-06T13:24:01Z</time>
      </trkpt>
      <trkpt lat="47.65856" lon="-2.79334">
        <ele>29.6</ele>
        <time>2020-06-06T13:24:02Z</time>
      </trkpt>
      <trkpt lat="47.65858" lon="-2.79337">
        <ele>29.8</ele>
        <time>2020-06-06T13:24:03Z</time>
      </trkpt>
      <trkpt lat="47.65861" lon="-2.79339">
        <ele>30</ele>
        <time>2020-06-06T13:24:04Z</time>
      </trkpt>
      <trkpt lat="47.65864" lon="-2.79342">
        <ele>30.2</ele>
        <time>2020-06-06T13:24:05Z</time>
      </trkpt>
      <trkpt lat="47.65867" lon="-2.79345">
        <ele>30.9</ele>
        <time>2020-06-06T13:24:06Z</time>
      </trkpt>
      <trkpt lat="47.65871" lon="-2.79348">
        <ele>31.2</ele>
        <time>2020-06-06T13:24:07Z</time>
      </trkpt>
      <trkpt lat="47.65874" lon="-2.79349">
        <ele>31.4</ele>
        <time>2020-06-06T13:24:08Z</time>
      </trkpt>
      <trkpt lat="47.65877" lon="-2.79351">
        <ele>31.6</ele>
        <time>2020-06-06T13:24:09Z</time>
      </trkpt>
      <trkpt lat="47.6588" lon="-2.79352">
        <ele>31.8</ele>
        <time>2020-06-06T13:24:10Z</time>
      </trkpt>
      <trkpt lat="47.65884" lon="-2.79354">
        <ele>32.1</ele>
        <time>2020-06-06T13:24:11Z</time>
      </trkpt>
      <trkpt lat="47.65887" lon="-2.79357">
        <ele>32.4</ele>
        <time>2020-06-06T13:24:12Z</time>
      </trkpt>
      <trkpt lat="47.6589" lon="-2.79359">
        <ele>32.6</ele>
        <time>2020-06-06T13:24:13Z</time>
      </trkpt>
      <trkpt lat="47.65892" lon="-2.79363">
        <ele>32.9</ele>
        <time>2020-06-06T13:24:14Z</time>
      </trkpt>
      <trkpt lat="47.65895" lon="-2.79366">
        <ele>33.1</ele>
        <time>2020-06-06T13:24:15Z</time>
      </trkpt>
      <trkpt lat="47.65898" lon="-2.79368">
        <ele>33.4</ele>
        <time>2020-06-06T13:24:16Z</time>
      </trkpt>
      <trkpt lat="47.65901" lon="-2.79371">
        <ele>33.6</ele>
        <time>2020-06-06T13:24:17Z</time>
      </trkpt>
      <trkpt lat="47.65903" lon="-2.79374">
        <ele>33.9</ele>
        <time>2020-06-06T13:24:18Z</time>
      </trkpt>
      <trkpt lat="47.65907" lon="-2.79376">
        <ele>34.2</ele>
        <time>2020-06-06T13:24:19Z</time>
      </trkpt>
      <trkpt lat="47.6591" lon="-2.79379">
        <ele>34.4</ele>
        <time>2020-06-06T13:24:20Z</time>
      </trkpt>
      <trkpt lat="47.65912" lon="-2.79381">
        <ele>34.7</ele>
        <time>2020-06-06T13:24:21Z</time>
      </trkpt>
      <trkpt lat="47.65915" lon="-2.79383">
        <ele>34.9</ele>
        <time>2020-06-06T13:24:22Z</time>
      </trkpt>
      <trkpt lat="47.65919" lon="-2.79386">
        <ele>35.2</ele>
        <time>2020-06-06T13:24:23Z</time>
      </trkpt>
      <trkpt lat="47.6592" lon="-2.79388">
        <ele>35.3</ele>
        <time>2020-06-06T13:24:24Z</time>
      </trkpt>
      <trkpt lat="47.65922" lon="-2.79391">
        <ele>35.6</ele>
        <time>2020-06-06T13:24:25Z</time>
      </trkpt>
      <trkpt lat="47.65924" lon="-2.79394">
        <ele>35.8</ele>
        <time>2020-06-06T13:24:26Z</time>
      </trkpt>
      <trkpt lat="47.65925" lon="-2.79398">
        <ele>36</ele>
        <time>2020-06-06T13:24:27Z</time>
      </trkpt>
      <trkpt lat="47.65928" lon="-2.79402">
        <ele>36.3</ele>
        <time>2020-06-06T13:24:28Z</time>
      </trkpt>
      <trkpt lat="47.65929" lon="-2.79404">
        <ele>36.4</ele>
        <time>2020-06-06T13:24:29Z</time>
      </trkpt>
      <trkpt lat="47.6593" lon="-2.79407">
        <ele>36.6</ele>
        <time>2020-06-06T13:24:30Z</time>
      </trkpt>
      <trkpt lat="47.65932" lon="-2.7941">
        <ele>36.8</ele>
        <time>2020-06-06T13:24:31Z</time>
      </trkpt>
      <trkpt lat="47.65933" lon="-2.79411">
        <ele>36.9</ele>
        <time>2020-06-06T13:24:32Z</time>
      </trkpt>
      <trkpt lat="47.65934" lon="-2.79412">
        <ele>37.3</ele>
        <time>2020-06-06T13:24:33Z</time>
      </trkpt>
      <trkpt lat="47.65936" lon="-2.79413">
        <ele>37.3</ele>
        <time>2020-06-06T13:24:34Z</time>
      </trkpt>
      <trkpt lat="47.65937" lon="-2.79414">
        <ele>37.4</ele>
        <time>2020-06-06T13:24:35Z</time>
      </trkpt>
      <trkpt lat="47.65938" lon="-2.79414">
        <ele>37.4</ele>
        <time>2020-06-06T13:24:36Z</time>
      </trkpt>
      <trkpt lat="47.6594" lon="-2.79414">
        <ele>37.5</ele>
        <time>2020-06-06T13:24:37Z</time>
      </trkpt>
      <trkpt lat="47.65942" lon="-2.79414">
        <ele>37.5</ele>
        <time>2020-06-06T13:24:38Z</time>
      </trkpt>
      <trkpt lat="47.65943" lon="-2.79414">
        <ele>37.6</ele>
        <time>2020-06-06T13:24:39Z</time>
      </trkpt>
      <trkpt lat="47.65946" lon="-2.79414">
        <ele>37.7</ele>
        <time>2020-06-06T13:24:40Z</time>
      </trkpt>
      <trkpt lat="47.65947" lon="-2.79413">
        <ele>37.7</ele>
        <time>2020-06-06T13:24:41Z</time>
      </trkpt>
      <trkpt lat="47.6595" lon="-2.79414">
        <ele>37.8</ele>
        <time>2020-06-06T13:24:42Z</time>
      </trkpt>
      <trkpt lat="47.65952" lon="-2.79413">
        <ele>37.8</ele>
        <time>2020-06-06T13:24:43Z</time>
      </trkpt>
      <trkpt lat="47.65953" lon="-2.79414">
        <ele>38.3</ele>
        <time>2020-06-06T13:24:44Z</time>
      </trkpt>
      <trkpt lat="47.65954" lon="-2.79414">
        <ele>38.3</ele>
        <time>2020-06-06T13:24:45Z</time>
      </trkpt>
      <trkpt lat="47.65955" lon="-2.79414">
        <ele>38.4</ele>
        <time>2020-06-06T13:24:46Z</time>
      </trkpt>
      <trkpt lat="47.65956" lon="-2.79415">
        <ele>38.4</ele>
        <time>2020-06-06T13:24:47Z</time>
      </trkpt>
      <trkpt lat="47.65957" lon="-2.79415">
        <ele>38.5</ele>
        <time>2020-06-06T13:24:48Z</time>
      </trkpt>
      <trkpt lat="47.65958" lon="-2.79416">
        <ele>38.5</ele>
        <time>2020-06-06T13:24:49Z</time>
      </trkpt>
      <trkpt lat="47.65959" lon="-2.79417">
        <ele>38.6</ele>
        <time>2020-06-06T13:24:50Z</time>
      </trkpt>
      <trkpt lat="47.6596" lon="-2.79418">
        <ele>38.6</ele>
        <time>2020-06-06T13:24:51Z</time>
      </trkpt>
      <trkpt lat="47.65961" lon="-2.7942">
        <ele>38.7</ele>
        <time>2020-06-06T13:24:52Z</time>
      </trkpt>
      <trkpt lat="47.65963" lon="-2.79423">
        <ele>38.7</ele>
        <time>2020-06-06T13:24:53Z</time>
      </trkpt>
      <trkpt lat="47.65964" lon="-2.79424">
        <ele>38.8</ele>
        <time>2020-06-06T13:24:54Z</time>
      </trkpt>
      <trkpt lat="47.65966" lon="-2.79424">
        <ele>38.8</ele>
        <time>2020-06-06T13:24:55Z</time>
      </trkpt>
      <trkpt lat="47.65967" lon="-2.79424">
        <ele>38.9</ele>
        <time>2020-06-06T13:24:56Z</time>
      </trkpt>
      <trkpt lat="47.65968" lon="-2.79423">
        <ele>39</ele>
        <time>2020-06-06T13:24:57Z</time>
      </trkpt>
      <trkpt lat="47.6597" lon="-2.79424">
        <ele>39</ele>
        <time>2020-06-06T13:24:58Z</time>
      </trkpt>
      <trkpt lat="47.65973" lon="-2.79424">
        <ele>39.1</ele>
        <time>2020-06-06T13:24:59Z</time>
      </trkpt>
      <trkpt lat="47.65976" lon="-2.79425">
        <ele>39.3</ele>
        <time>2020-06-06T13:25:00Z</time>
      </trkpt>
      <trkpt lat="47.65977" lon="-2.79426">
        <ele>39.3</ele>
        <time>2020-06-06T13:25:01Z</time>
      </trkpt>
      <trkpt lat="47.6598" lon="-2.79425">
        <ele>39.4</ele>
        <time>2020-06-06T13:25:02Z</time>
      </trkpt>
      <trkpt lat="47.65984" lon="-2.79425">
        <ele>39.6</ele>
        <time>2020-06-06T13:25:03Z</time>
      </trkpt>
      <trkpt lat="47.65987" lon="-2.79424">
        <ele>39.7</ele>
        <time>2020-06-06T13:25:04Z</time>
      </trkpt>
      <trkpt lat="47.6599" lon="-2.79423">
        <ele>39.9</ele>
        <time>2020-06-06T13:25:05Z</time>
      </trkpt>
      <trkpt lat="47.65994" lon="-2.79422">
        <ele>40.2</ele>
        <time>2020-06-06T13:25:06Z</time>
      </trkpt>
      <trkpt lat="47.65997" lon="-2.79421">
        <ele>40.4</ele>
        <time>2020-06-06T13:25:07Z</time>
      </trkpt>
      <trkpt lat="47.66" lon="-2.7942">
        <ele>40.6</ele>
        <time>2020-06-06T13:25:08Z</time>
      </trkpt>
      <trkpt lat="47.66003" lon="-2.7942">
        <ele>40.8</ele>
        <time>2020-06-06T13:25:09Z</time>
      </trkpt>
      <trkpt lat="47.66007" lon="-2.7942">
        <ele>41</ele>
        <time>2020-06-06T13:25:10Z</time>
      </trkpt>
      <trkpt lat="47.6601" lon="-2.79419">
        <ele>41.2</ele>
        <time>2020-06-06T13:25:11Z</time>
      </trkpt>
      <trkpt lat="47.66013" lon="-2.79418">
        <ele>41.4</ele>
        <time>2020-06-06T13:25:12Z</time>
      </trkpt>
      <trkpt lat="47.66017" lon="-2.79418">
        <ele>41.7</ele>
        <time>2020-06-06T13:25:13Z</time>
      </trkpt>
      <trkpt lat="47.6602" lon="-2.79416">
        <ele>41.8</ele>
        <time>2020-06-06T13:25:14Z</time>
      </trkpt>
      <trkpt lat="47.66024" lon="-2.79414">
        <ele>42.1</ele>
        <time>2020-06-06T13:25:15Z</time>
      </trkpt>
      <trkpt lat="47.66027" lon="-2.79413">
        <ele>42.2</ele>
        <time>2020-06-06T13:25:16Z</time>
      </trkpt>
      <trkpt lat="47.66031" lon="-2.79413">
        <ele>42.3</ele>
        <time>2020-06-06T13:25:17Z</time>
      </trkpt>
      <trkpt lat="47.66035" lon="-2.79411">
        <ele>42.5</ele>
        <time>2020-06-06T13:25:18Z</time>
      </trkpt>
      <trkpt lat="47.6604" lon="-2.79411">
        <ele>42.6</ele>
        <time>2020-06-06T13:25:19Z</time>
      </trkpt>
      <trkpt lat="47.66045" lon="-2.7941">
        <ele>42.7</ele>
        <time>2020-06-06T13:25:20Z</time>
      </trkpt>
      <trkpt lat="47.66048" lon="-2.79409">
        <ele>42.8</ele>
        <time>2020-06-06T13:25:21Z</time>
      </trkpt>
      <trkpt lat="47.66052" lon="-2.79408">
        <ele>42.9</ele>
        <time>2020-06-06T13:25:22Z</time>
      </trkpt>
      <trkpt lat="47.66053" lon="-2.79408">
        <ele>42.9</ele>
        <time>2020-06-06T13:25:23Z</time>
      </trkpt>
      <trkpt lat="47.66056" lon="-2.79407">
        <ele>42.9</ele>
        <time>2020-06-06T13:25:24Z</time>
      </trkpt>
      <trkpt lat="47.66059" lon="-2.79407">
        <ele>43</ele>
        <time>2020-06-06T13:25:25Z</time>
      </trkpt>
      <trkpt lat="47.66063" lon="-2.79406">
        <ele>43</ele>
        <time>2020-06-06T13:25:26Z</time>
      </trkpt>
      <trkpt lat="47.66065" lon="-2.79406">
        <ele>43.1</ele>
        <time>2020-06-06T13:25:27Z</time>
      </trkpt>
      <trkpt lat="47.66069" lon="-2.79406">
        <ele>43.1</ele>
        <time>2020-06-06T13:25:28Z</time>
      </trkpt>
      <trkpt lat="47.66073" lon="-2.79403">
        <ele>43.2</ele>
        <time>2020-06-06T13:25:29Z</time>
      </trkpt>
      <trkpt lat="47.66077" lon="-2.79401">
        <ele>43.2</ele>
        <time>2020-06-06T13:25:30Z</time>
      </trkpt>
      <trkpt lat="47.6608" lon="-2.794">
        <ele>43.4</ele>
        <time>2020-06-06T13:25:31Z</time>
      </trkpt>
      <trkpt lat="47.66083" lon="-2.79399">
        <ele>43.5</ele>
        <time>2020-06-06T13:25:32Z</time>
      </trkpt>
      <trkpt lat="47.66086" lon="-2.79398">
        <ele>43.7</ele>
        <time>2020-06-06T13:25:33Z</time>
      </trkpt>
      <trkpt lat="47.66089" lon="-2.79397">
        <ele>43.7</ele>
        <time>2020-06-06T13:25:34Z</time>
      </trkpt>
      <trkpt lat="47.66092" lon="-2.79397">
        <ele>43.7</ele>
        <time>2020-06-06T13:25:35Z</time>
      </trkpt>
      <trkpt lat="47.66097" lon="-2.79396">
        <ele>43.8</ele>
        <time>2020-06-06T13:25:36Z</time>
      </trkpt>
      <trkpt lat="47.66098" lon="-2.79397">
        <ele>43.8</ele>
        <time>2020-06-06T13:25:37Z</time>
      </trkpt>
      <trkpt lat="47.66102" lon="-2.79398">
        <ele>43.8</ele>
        <time>2020-06-06T13:25:38Z</time>
      </trkpt>
      <trkpt lat="47.66105" lon="-2.79399">
        <ele>43.8</ele>
        <time>2020-06-06T13:25:39Z</time>
      </trkpt>
      <trkpt lat="47.66109" lon="-2.794">
        <ele>43.9</ele>
        <time>2020-06-06T13:25:40Z</time>
      </trkpt>
      <trkpt lat="47.66113" lon="-2.79401">
        <ele>43.9</ele>
        <time>2020-06-06T13:25:41Z</time>
      </trkpt>
      <trkpt lat="47.66116" lon="-2.79403">
        <ele>43.9</ele>
        <time>2020-06-06T13:25:42Z</time>
      </trkpt>
      <trkpt lat="47.66118" lon="-2.79404">
        <ele>43.9</ele>
        <time>2020-06-06T13:25:43Z</time>
      </trkpt>
      <trkpt lat="47.66122" lon="-2.79404">
        <ele>43.9</ele>
        <time>2020-06-06T13:25:44Z</time>
      </trkpt>
      <trkpt lat="47.66126" lon="-2.79403">
        <ele>43.9</ele>
        <time>2020-06-06T13:25:45Z</time>
      </trkpt>
      <trkpt lat="47.66128" lon="-2.79403">
        <ele>43.9</ele>
        <time>2020-06-06T13:25:46Z</time>
      </trkpt>
      <trkpt lat="47.66131" lon="-2.79401">
        <ele>43.9</ele>
        <time>2020-06-06T13:25:47Z</time>
      </trkpt>
      <trkpt lat="47.66135" lon="-2.79396">
        <ele>43.9</ele>
        <time>2020-06-06T13:25:48Z</time>
      </trkpt>
      <trkpt lat="47.66138" lon="-2.79392">
        <ele>43.9</ele>
        <time>2020-06-06T13:25:49Z</time>
      </trkpt>
      <trkpt lat="47.66142" lon="-2.79386">
        <ele>43.9</ele>
        <time>2020-06-06T13:25:50Z</time>
      </trkpt>
      <trkpt lat="47.66146" lon="-2.79383">
        <ele>43.9</ele>
        <time>2020-06-06T13:25:51Z</time>
      </trkpt>
      <trkpt lat="47.6615" lon="-2.7938">
        <ele>43.8</ele>
        <time>2020-06-06T13:25:52Z</time>
      </trkpt>
      <trkpt lat="47.66155" lon="-2.79377">
        <ele>43.6</ele>
        <time>2020-06-06T13:25:53Z</time>
      </trkpt>
      <trkpt lat="47.6616" lon="-2.79376">
        <ele>43.4</ele>
        <time>2020-06-06T13:25:54Z</time>
      </trkpt>
      <trkpt lat="47.66166" lon="-2.79375">
        <ele>43.2</ele>
        <time>2020-06-06T13:25:55Z</time>
      </trkpt>
      <trkpt lat="47.66172" lon="-2.79376">
        <ele>43</ele>
        <time>2020-06-06T13:25:56Z</time>
      </trkpt>
      <trkpt lat="47.66177" lon="-2.79378">
        <ele>42.8</ele>
        <time>2020-06-06T13:25:57Z</time>
      </trkpt>
      <trkpt lat="47.66183" lon="-2.7938">
        <ele>42.5</ele>
        <time>2020-06-06T13:25:58Z</time>
      </trkpt>
      <trkpt lat="47.66189" lon="-2.79384">
        <ele>42.3</ele>
        <time>2020-06-06T13:25:59Z</time>
      </trkpt>
      <trkpt lat="47.66195" lon="-2.79389">
        <ele>42</ele>
        <time>2020-06-06T13:26:00Z</time>
      </trkpt>
      <trkpt lat="47.662" lon="-2.79395">
        <ele>41.9</ele>
        <time>2020-06-06T13:26:01Z</time>
      </trkpt>
      <trkpt lat="47.66204" lon="-2.794">
        <ele>41.7</ele>
        <time>2020-06-06T13:26:02Z</time>
      </trkpt>
      <trkpt lat="47.66208" lon="-2.79406">
        <ele>41.5</ele>
        <time>2020-06-06T13:26:03Z</time>
      </trkpt>
      <trkpt lat="47.66211" lon="-2.79415">
        <ele>41.3</ele>
        <time>2020-06-06T13:26:04Z</time>
      </trkpt>
      <trkpt lat="47.66213" lon="-2.79423">
        <ele>41.2</ele>
        <time>2020-06-06T13:26:05Z</time>
      </trkpt>
      <trkpt lat="47.66216" lon="-2.79431">
        <ele>41.2</ele>
        <time>2020-06-06T13:26:06Z</time>
      </trkpt>
      <trkpt lat="47.66217" lon="-2.79438">
        <ele>41.2</ele>
        <time>2020-06-06T13:26:07Z</time>
      </trkpt>
      <trkpt lat="47.6622" lon="-2.79446">
        <ele>41.2</ele>
        <time>2020-06-06T13:26:08Z</time>
      </trkpt>
      <trkpt lat="47.66221" lon="-2.79453">
        <ele>41.3</ele>
        <time>2020-06-06T13:26:09Z</time>
      </trkpt>
      <trkpt lat="47.66221" lon="-2.79461">
        <ele>41.3</ele>
        <time>2020-06-06T13:26:10Z</time>
      </trkpt>
      <trkpt lat="47.6622" lon="-2.79467">
        <ele>41.3</ele>
        <time>2020-06-06T13:26:11Z</time>
      </trkpt>
      <trkpt lat="47.66219" lon="-2.79475">
        <ele>41.3</ele>
        <time>2020-06-06T13:26:12Z</time>
      </trkpt>
      <trkpt lat="47.66218" lon="-2.79483">
        <ele>41.2</ele>
        <time>2020-06-06T13:26:13Z</time>
      </trkpt>
      <trkpt lat="47.66216" lon="-2.7949">
        <ele>41.1</ele>
        <time>2020-06-06T13:26:14Z</time>
      </trkpt>
      <trkpt lat="47.66214" lon="-2.79497">
        <ele>40.7</ele>
        <time>2020-06-06T13:26:15Z</time>
      </trkpt>
      <trkpt lat="47.66213" lon="-2.79504">
        <ele>40.4</ele>
        <time>2020-06-06T13:26:16Z</time>
      </trkpt>
      <trkpt lat="47.66212" lon="-2.79512">
        <ele>40.2</ele>
        <time>2020-06-06T13:26:17Z</time>
      </trkpt>
      <trkpt lat="47.66213" lon="-2.79519">
        <ele>40</ele>
        <time>2020-06-06T13:26:18Z</time>
      </trkpt>
      <trkpt lat="47.66214" lon="-2.79528">
        <ele>39.7</ele>
        <time>2020-06-06T13:26:19Z</time>
      </trkpt>
      <trkpt lat="47.66215" lon="-2.79536">
        <ele>39.3</ele>
        <time>2020-06-06T13:26:20Z</time>
      </trkpt>
      <trkpt lat="47.66216" lon="-2.79543">
        <ele>39.2</ele>
        <time>2020-06-06T13:26:21Z</time>
      </trkpt>
      <trkpt lat="47.66217" lon="-2.79549">
        <ele>39.2</ele>
        <time>2020-06-06T13:26:22Z</time>
      </trkpt>
      <trkpt lat="47.66218" lon="-2.79557">
        <ele>39.1</ele>
        <time>2020-06-06T13:26:23Z</time>
      </trkpt>
      <trkpt lat="47.66218" lon="-2.79564">
        <ele>39.1</ele>
        <time>2020-06-06T13:26:24Z</time>
      </trkpt>
      <trkpt lat="47.66218" lon="-2.79572">
        <ele>39</ele>
        <time>2020-06-06T13:26:25Z</time>
      </trkpt>
      <trkpt lat="47.66217" lon="-2.7958">
        <ele>38.9</ele>
        <time>2020-06-06T13:26:26Z</time>
      </trkpt>
      <trkpt lat="47.66216" lon="-2.79587">
        <ele>38.9</ele>
        <time>2020-06-06T13:26:27Z</time>
      </trkpt>
      <trkpt lat="47.66215" lon="-2.79593">
        <ele>38.9</ele>
        <time>2020-06-06T13:26:28Z</time>
      </trkpt>
      <trkpt lat="47.66214" lon="-2.796">
        <ele>38.9</ele>
        <time>2020-06-06T13:26:29Z</time>
      </trkpt>
      <trkpt lat="47.66213" lon="-2.79608">
        <ele>38.9</ele>
        <time>2020-06-06T13:26:30Z</time>
      </trkpt>
      <trkpt lat="47.6621" lon="-2.79614">
        <ele>38.9</ele>
        <time>2020-06-06T13:26:31Z</time>
      </trkpt>
      <trkpt lat="47.66209" lon="-2.79623">
        <ele>39</ele>
        <time>2020-06-06T13:26:32Z</time>
      </trkpt>
      <trkpt lat="47.66207" lon="-2.79635">
        <ele>39</ele>
        <time>2020-06-06T13:26:33Z</time>
      </trkpt>
      <trkpt lat="47.66206" lon="-2.79644">
        <ele>38.8</ele>
        <time>2020-06-06T13:26:34Z</time>
      </trkpt>
      <trkpt lat="47.66205" lon="-2.79653">
        <ele>38.7</ele>
        <time>2020-06-06T13:26:35Z</time>
      </trkpt>
      <trkpt lat="47.66204" lon="-2.79662">
        <ele>38.5</ele>
        <time>2020-06-06T13:26:36Z</time>
      </trkpt>
      <trkpt lat="47.66203" lon="-2.7967">
        <ele>38.4</ele>
        <time>2020-06-06T13:26:37Z</time>
      </trkpt>
      <trkpt lat="47.66203" lon="-2.79678">
        <ele>38.3</ele>
        <time>2020-06-06T13:26:38Z</time>
      </trkpt>
      <trkpt lat="47.66202" lon="-2.79685">
        <ele>38.3</ele>
        <time>2020-06-06T13:26:39Z</time>
      </trkpt>
      <trkpt lat="47.66202" lon="-2.79694">
        <ele>38.3</ele>
        <time>2020-06-06T13:26:40Z</time>
      </trkpt>
      <trkpt lat="47.66201" lon="-2.79703">
        <ele>38.2</ele>
        <time>2020-06-06T13:26:41Z</time>
      </trkpt>
      <trkpt lat="47.662" lon="-2.7971">
        <ele>38.1</ele>
        <time>2020-06-06T13:26:42Z</time>
      </trkpt>
      <trkpt lat="47.662" lon="-2.79719">
        <ele>38</ele>
        <time>2020-06-06T13:26:43Z</time>
      </trkpt>
      <trkpt lat="47.66199" lon="-2.79727">
        <ele>38</ele>
        <time>2020-06-06T13:26:44Z</time>
      </trkpt>
      <trkpt lat="47.66199" lon="-2.79735">
        <ele>37.9</ele>
        <time>2020-06-06T13:26:45Z</time>
      </trkpt>
      <trkpt lat="47.66199" lon="-2.79745">
        <ele>37.8</ele>
        <time>2020-06-06T13:26:46Z</time>
      </trkpt>
      <trkpt lat="47.66199" lon="-2.79755">
        <ele>37.7</ele>
        <time>2020-06-06T13:26:47Z</time>
      </trkpt>
      <trkpt lat="47.66198" lon="-2.79762">
        <ele>37.7</ele>
        <time>2020-06-06T13:26:48Z</time>
      </trkpt>
      <trkpt lat="47.66197" lon="-2.79772">
        <ele>37.6</ele>
        <time>2020-06-06T13:26:49Z</time>
      </trkpt>
      <trkpt lat="47.66196" lon="-2.7978">
        <ele>37.6</ele>
        <time>2020-06-06T13:26:50Z</time>
      </trkpt>
      <trkpt lat="47.66195" lon="-2.79789">
        <ele>37.5</ele>
        <time>2020-06-06T13:26:51Z</time>
      </trkpt>
      <trkpt lat="47.66195" lon="-2.79798">
        <ele>37.4</ele>
        <time>2020-06-06T13:26:52Z</time>
      </trkpt>
      <trkpt lat="47.66193" lon="-2.79807">
        <ele>37.4</ele>
        <time>2020-06-06T13:26:53Z</time>
      </trkpt>
      <trkpt lat="47.66193" lon="-2.79817">
        <ele>37.3</ele>
        <time>2020-06-06T13:26:54Z</time>
      </trkpt>
      <trkpt lat="47.66191" lon="-2.79823">
        <ele>37.3</ele>
        <time>2020-06-06T13:26:55Z</time>
      </trkpt>
      <trkpt lat="47.66191" lon="-2.79831">
        <ele>37.2</ele>
        <time>2020-06-06T13:26:56Z</time>
      </trkpt>
      <trkpt lat="47.66189" lon="-2.79839">
        <ele>37.2</ele>
        <time>2020-06-06T13:26:57Z</time>
      </trkpt>
      <trkpt lat="47.66188" lon="-2.79847">
        <ele>37.1</ele>
        <time>2020-06-06T13:26:58Z</time>
      </trkpt>
      <trkpt lat="47.66188" lon="-2.79856">
        <ele>37</ele>
        <time>2020-06-06T13:26:59Z</time>
      </trkpt>
      <trkpt lat="47.66187" lon="-2.79864">
        <ele>36.9</ele>
        <time>2020-06-06T13:27:00Z</time>
      </trkpt>
      <trkpt lat="47.66186" lon="-2.79872">
        <ele>36.8</ele>
        <time>2020-06-06T13:27:01Z</time>
      </trkpt>
      <trkpt lat="47.66185" lon="-2.79882">
        <ele>36.7</ele>
        <time>2020-06-06T13:27:02Z</time>
      </trkpt>
      <trkpt lat="47.66186" lon="-2.7989">
        <ele>36.7</ele>
        <time>2020-06-06T13:27:03Z</time>
      </trkpt>
      <trkpt lat="47.66185" lon="-2.79898">
        <ele>36.6</ele>
        <time>2020-06-06T13:27:04Z</time>
      </trkpt>
      <trkpt lat="47.66185" lon="-2.79906">
        <ele>36.5</ele>
        <time>2020-06-06T13:27:05Z</time>
      </trkpt>
      <trkpt lat="47.66183" lon="-2.79915">
        <ele>36.3</ele>
        <time>2020-06-06T13:27:06Z</time>
      </trkpt>
      <trkpt lat="47.66182" lon="-2.79924">
        <ele>36.2</ele>
        <time>2020-06-06T13:27:07Z</time>
      </trkpt>
      <trkpt lat="47.66181" lon="-2.79933">
        <ele>36</ele>
        <time>2020-06-06T13:27:08Z</time>
      </trkpt>
      <trkpt lat="47.66181" lon="-2.79943">
        <ele>35.9</ele>
        <time>2020-06-06T13:27:09Z</time>
      </trkpt>
      <trkpt lat="47.66181" lon="-2.79954">
        <ele>35.9</ele>
        <time>2020-06-06T13:27:10Z</time>
      </trkpt>
      <trkpt lat="47.66179" lon="-2.79961">
        <ele>35.8</ele>
        <time>2020-06-06T13:27:11Z</time>
      </trkpt>
      <trkpt lat="47.66179" lon="-2.79969">
        <ele>35.8</ele>
        <time>2020-06-06T13:27:12Z</time>
      </trkpt>
      <trkpt lat="47.66179" lon="-2.79977">
        <ele>35.7</ele>
        <time>2020-06-06T13:27:13Z</time>
      </trkpt>
      <trkpt lat="47.66178" lon="-2.79983">
        <ele>35.7</ele>
        <time>2020-06-06T13:27:14Z</time>
      </trkpt>
      <trkpt lat="47.66178" lon="-2.79992">
        <ele>35.6</ele>
        <time>2020-06-06T13:27:15Z</time>
      </trkpt>
      <trkpt lat="47.66177" lon="-2.79998">
        <ele>35.6</ele>
        <time>2020-06-06T13:27:16Z</time>
      </trkpt>
      <trkpt lat="47.66177" lon="-2.80006">
        <ele>35.5</ele>
        <time>2020-06-06T13:27:17Z</time>
      </trkpt>
      <trkpt lat="47.66176" lon="-2.80014">
        <ele>35.4</ele>
        <time>2020-06-06T13:27:18Z</time>
      </trkpt>
      <trkpt lat="47.66176" lon="-2.80023">
        <ele>35.3</ele>
        <time>2020-06-06T13:27:19Z</time>
      </trkpt>
      <trkpt lat="47.66175" lon="-2.80032">
        <ele>35.2</ele>
        <time>2020-06-06T13:27:20Z</time>
      </trkpt>
      <trkpt lat="47.66174" lon="-2.8004">
        <ele>35.1</ele>
        <time>2020-06-06T13:27:21Z</time>
      </trkpt>
      <trkpt lat="47.66174" lon="-2.80051">
        <ele>35</ele>
        <time>2020-06-06T13:27:22Z</time>
      </trkpt>
      <trkpt lat="47.66172" lon="-2.80058">
        <ele>35</ele>
        <time>2020-06-06T13:27:23Z</time>
      </trkpt>
      <trkpt lat="47.66172" lon="-2.80067">
        <ele>34.9</ele>
        <time>2020-06-06T13:27:24Z</time>
      </trkpt>
      <trkpt lat="47.66171" lon="-2.80077">
        <ele>34.9</ele>
        <time>2020-06-06T13:27:25Z</time>
      </trkpt>
      <trkpt lat="47.6617" lon="-2.80086">
        <ele>34.8</ele>
        <time>2020-06-06T13:27:26Z</time>
      </trkpt>
      <trkpt lat="47.6617" lon="-2.80095">
        <ele>34.8</ele>
        <time>2020-06-06T13:27:27Z</time>
      </trkpt>
      <trkpt lat="47.66169" lon="-2.80105">
        <ele>34.7</ele>
        <time>2020-06-06T13:27:28Z</time>
      </trkpt>
      <trkpt lat="47.66168" lon="-2.80114">
        <ele>34.7</ele>
        <time>2020-06-06T13:27:29Z</time>
      </trkpt>
      <trkpt lat="47.66167" lon="-2.80124">
        <ele>34.6</ele>
        <time>2020-06-06T13:27:30Z</time>
      </trkpt>
      <trkpt lat="47.66166" lon="-2.80134">
        <ele>34.5</ele>
        <time>2020-06-06T13:27:31Z</time>
      </trkpt>
      <trkpt lat="47.66164" lon="-2.80143">
        <ele>34.4</ele>
        <time>2020-06-06T13:27:32Z</time>
      </trkpt>
      <trkpt lat="47.66163" lon="-2.80151">
        <ele>34.4</ele>
        <time>2020-06-06T13:27:33Z</time>
      </trkpt>
      <trkpt lat="47.66163" lon="-2.80159">
        <ele>34.3</ele>
        <time>2020-06-06T13:27:34Z</time>
      </trkpt>
      <trkpt lat="47.66161" lon="-2.8017">
        <ele>34.2</ele>
        <time>2020-06-06T13:27:35Z</time>
      </trkpt>
      <trkpt lat="47.6616" lon="-2.80182">
        <ele>34.1</ele>
        <time>2020-06-06T13:27:36Z</time>
      </trkpt>
      <trkpt lat="47.66158" lon="-2.80192">
        <ele>34.1</ele>
        <time>2020-06-06T13:27:37Z</time>
      </trkpt>
      <trkpt lat="47.66158" lon="-2.80201">
        <ele>34</ele>
        <time>2020-06-06T13:27:38Z</time>
      </trkpt>
      <trkpt lat="47.66158" lon="-2.80211">
        <ele>34</ele>
        <time>2020-06-06T13:27:39Z</time>
      </trkpt>
      <trkpt lat="47.66157" lon="-2.80218">
        <ele>33.9</ele>
        <time>2020-06-06T13:27:40Z</time>
      </trkpt>
      <trkpt lat="47.66157" lon="-2.80229">
        <ele>33.9</ele>
        <time>2020-06-06T13:27:41Z</time>
      </trkpt>
      <trkpt lat="47.66157" lon="-2.80237">
        <ele>33.9</ele>
        <time>2020-06-06T13:27:42Z</time>
      </trkpt>
      <trkpt lat="47.66156" lon="-2.80245">
        <ele>33.8</ele>
        <time>2020-06-06T13:27:43Z</time>
      </trkpt>
      <trkpt lat="47.66155" lon="-2.80253">
        <ele>33.8</ele>
        <time>2020-06-06T13:27:44Z</time>
      </trkpt>
      <trkpt lat="47.66155" lon="-2.80262">
        <ele>33.8</ele>
        <time>2020-06-06T13:27:45Z</time>
      </trkpt>
      <trkpt lat="47.66154" lon="-2.80269">
        <ele>33.8</ele>
        <time>2020-06-06T13:27:46Z</time>
      </trkpt>
      <trkpt lat="47.66153" lon="-2.80277">
        <ele>33.8</ele>
        <time>2020-06-06T13:27:47Z</time>
      </trkpt>
      <trkpt lat="47.66152" lon="-2.80286">
        <ele>33.8</ele>
        <time>2020-06-06T13:27:48Z</time>
      </trkpt>
      <trkpt lat="47.66151" lon="-2.80292">
        <ele>33.8</ele>
        <time>2020-06-06T13:27:49Z</time>
      </trkpt>
      <trkpt lat="47.6615" lon="-2.80301">
        <ele>33.9</ele>
        <time>2020-06-06T13:27:50Z</time>
      </trkpt>
      <trkpt lat="47.66149" lon="-2.80308">
        <ele>33.9</ele>
        <time>2020-06-06T13:27:51Z</time>
      </trkpt>
      <trkpt lat="47.66148" lon="-2.80317">
        <ele>33.9</ele>
        <time>2020-06-06T13:27:52Z</time>
      </trkpt>
      <trkpt lat="47.66147" lon="-2.80326">
        <ele>34</ele>
        <time>2020-06-06T13:27:53Z</time>
      </trkpt>
      <trkpt lat="47.66146" lon="-2.80335">
        <ele>34.1</ele>
        <time>2020-06-06T13:27:54Z</time>
      </trkpt>
      <trkpt lat="47.66146" lon="-2.80342">
        <ele>34.1</ele>
        <time>2020-06-06T13:27:55Z</time>
      </trkpt>
      <trkpt lat="47.66145" lon="-2.80351">
        <ele>34</ele>
        <time>2020-06-06T13:27:56Z</time>
      </trkpt>
      <trkpt lat="47.66144" lon="-2.80359">
        <ele>33.8</ele>
        <time>2020-06-06T13:27:57Z</time>
      </trkpt>
      <trkpt lat="47.66144" lon="-2.80368">
        <ele>33.7</ele>
        <time>2020-06-06T13:27:58Z</time>
      </trkpt>
      <trkpt lat="47.66143" lon="-2.80377">
        <ele>33.5</ele>
        <time>2020-06-06T13:27:59Z</time>
      </trkpt>
      <trkpt lat="47.66142" lon="-2.80386">
        <ele>33.5</ele>
        <time>2020-06-06T13:28:00Z</time>
      </trkpt>
      <trkpt lat="47.66142" lon="-2.80395">
        <ele>33.4</ele>
        <time>2020-06-06T13:28:01Z</time>
      </trkpt>
      <trkpt lat="47.66141" lon="-2.80402">
        <ele>33.4</ele>
        <time>2020-06-06T13:28:02Z</time>
      </trkpt>
      <trkpt lat="47.66141" lon="-2.8041">
        <ele>33.4</ele>
        <time>2020-06-06T13:28:03Z</time>
      </trkpt>
      <trkpt lat="47.66141" lon="-2.80419">
        <ele>33.4</ele>
        <time>2020-06-06T13:28:04Z</time>
      </trkpt>
      <trkpt lat="47.6614" lon="-2.8043">
        <ele>33.4</ele>
        <time>2020-06-06T13:28:05Z</time>
      </trkpt>
      <trkpt lat="47.66138" lon="-2.80438">
        <ele>33.5</ele>
        <time>2020-06-06T13:28:06Z</time>
      </trkpt>
      <trkpt lat="47.66137" lon="-2.80446">
        <ele>33.5</ele>
        <time>2020-06-06T13:28:07Z</time>
      </trkpt>
      <trkpt lat="47.66136" lon="-2.80456">
        <ele>33.5</ele>
        <time>2020-06-06T13:28:08Z</time>
      </trkpt>
      <trkpt lat="47.66134" lon="-2.80463">
        <ele>33.5</ele>
        <time>2020-06-06T13:28:09Z</time>
      </trkpt>
      <trkpt lat="47.66133" lon="-2.80472">
        <ele>33.6</ele>
        <time>2020-06-06T13:28:10Z</time>
      </trkpt>
      <trkpt lat="47.66133" lon="-2.8048">
        <ele>33.6</ele>
        <time>2020-06-06T13:28:11Z</time>
      </trkpt>
      <trkpt lat="47.66133" lon="-2.80488">
        <ele>33.7</ele>
        <time>2020-06-06T13:28:12Z</time>
      </trkpt>
      <trkpt lat="47.66132" lon="-2.80494">
        <ele>33.7</ele>
        <time>2020-06-06T13:28:13Z</time>
      </trkpt>
      <trkpt lat="47.66133" lon="-2.80502">
        <ele>33.8</ele>
        <time>2020-06-06T13:28:14Z</time>
      </trkpt>
      <trkpt lat="47.66133" lon="-2.80511">
        <ele>33.8</ele>
        <time>2020-06-06T13:28:15Z</time>
      </trkpt>
      <trkpt lat="47.66133" lon="-2.80517">
        <ele>33.9</ele>
        <time>2020-06-06T13:28:16Z</time>
      </trkpt>
      <trkpt lat="47.66133" lon="-2.80524">
        <ele>33.8</ele>
        <time>2020-06-06T13:28:17Z</time>
      </trkpt>
      <trkpt lat="47.6613" lon="-2.80531">
        <ele>33.7</ele>
        <time>2020-06-06T13:28:18Z</time>
      </trkpt>
      <trkpt lat="47.66126" lon="-2.80536">
        <ele>33.6</ele>
        <time>2020-06-06T13:28:19Z</time>
      </trkpt>
      <trkpt lat="47.66122" lon="-2.80541">
        <ele>33.5</ele>
        <time>2020-06-06T13:28:20Z</time>
      </trkpt>
      <trkpt lat="47.66119" lon="-2.80548">
        <ele>33.5</ele>
        <time>2020-06-06T13:28:21Z</time>
      </trkpt>
      <trkpt lat="47.66116" lon="-2.80555">
        <ele>33.5</ele>
        <time>2020-06-06T13:28:22Z</time>
      </trkpt>
      <trkpt lat="47.66114" lon="-2.80561">
        <ele>33.5</ele>
        <time>2020-06-06T13:28:23Z</time>
      </trkpt>
      <trkpt lat="47.66111" lon="-2.80566">
        <ele>33.5</ele>
        <time>2020-06-06T13:28:24Z</time>
      </trkpt>
      <trkpt lat="47.66109" lon="-2.80571">
        <ele>33.6</ele>
        <time>2020-06-06T13:28:25Z</time>
      </trkpt>
      <trkpt lat="47.66106" lon="-2.80577">
        <ele>33.6</ele>
        <time>2020-06-06T13:28:26Z</time>
      </trkpt>
      <trkpt lat="47.66104" lon="-2.80584">
        <ele>33.7</ele>
        <time>2020-06-06T13:28:27Z</time>
      </trkpt>
      <trkpt lat="47.66101" lon="-2.80591">
        <ele>33.7</ele>
        <time>2020-06-06T13:28:28Z</time>
      </trkpt>
      <trkpt lat="47.66098" lon="-2.80598">
        <ele>33.7</ele>
        <time>2020-06-06T13:28:29Z</time>
      </trkpt>
      <trkpt lat="47.66095" lon="-2.80606">
        <ele>33.8</ele>
        <time>2020-06-06T13:28:30Z</time>
      </trkpt>
      <trkpt lat="47.66092" lon="-2.80613">
        <ele>33.8</ele>
        <time>2020-06-06T13:28:31Z</time>
      </trkpt>
      <trkpt lat="47.6609" lon="-2.80621">
        <ele>33.7</ele>
        <time>2020-06-06T13:28:32Z</time>
      </trkpt>
      <trkpt lat="47.66088" lon="-2.80629">
        <ele>33.6</ele>
        <time>2020-06-06T13:28:33Z</time>
      </trkpt>
      <trkpt lat="47.66086" lon="-2.80637">
        <ele>33.6</ele>
        <time>2020-06-06T13:28:34Z</time>
      </trkpt>
      <trkpt lat="47.66085" lon="-2.80644">
        <ele>33.7</ele>
        <time>2020-06-06T13:28:35Z</time>
      </trkpt>
      <trkpt lat="47.66084" lon="-2.80652">
        <ele>33.7</ele>
        <time>2020-06-06T13:28:36Z</time>
      </trkpt>
      <trkpt lat="47.66084" lon="-2.8066">
        <ele>33.8</ele>
        <time>2020-06-06T13:28:37Z</time>
      </trkpt>
      <trkpt lat="47.66084" lon="-2.80667">
        <ele>33.9</ele>
        <time>2020-06-06T13:28:38Z</time>
      </trkpt>
      <trkpt lat="47.66084" lon="-2.80673">
        <ele>34</ele>
        <time>2020-06-06T13:28:39Z</time>
      </trkpt>
      <trkpt lat="47.66085" lon="-2.8068">
        <ele>34.1</ele>
        <time>2020-06-06T13:28:40Z</time>
      </trkpt>
      <trkpt lat="47.66085" lon="-2.80686">
        <ele>34.1</ele>
        <time>2020-06-06T13:28:41Z</time>
      </trkpt>
      <trkpt lat="47.66085" lon="-2.80693">
        <ele>34.1</ele>
        <time>2020-06-06T13:28:42Z</time>
      </trkpt>
      <trkpt lat="47.66085" lon="-2.80701">
        <ele>34.1</ele>
        <time>2020-06-06T13:28:43Z</time>
      </trkpt>
      <trkpt lat="47.66085" lon="-2.80708">
        <ele>34.2</ele>
        <time>2020-06-06T13:28:44Z</time>
      </trkpt>
      <trkpt lat="47.66085" lon="-2.80714">
        <ele>34.2</ele>
        <time>2020-06-06T13:28:45Z</time>
      </trkpt>
      <trkpt lat="47.66086" lon="-2.8072">
        <ele>34.2</ele>
        <time>2020-06-06T13:28:46Z</time>
      </trkpt>
      <trkpt lat="47.66085" lon="-2.80727">
        <ele>34.3</ele>
        <time>2020-06-06T13:28:47Z</time>
      </trkpt>
      <trkpt lat="47.66085" lon="-2.80735">
        <ele>34.3</ele>
        <time>2020-06-06T13:28:48Z</time>
      </trkpt>
      <trkpt lat="47.66084" lon="-2.80742">
        <ele>34.4</ele>
        <time>2020-06-06T13:28:49Z</time>
      </trkpt>
      <trkpt lat="47.66084" lon="-2.8075">
        <ele>34.4</ele>
        <time>2020-06-06T13:28:50Z</time>
      </trkpt>
      <trkpt lat="47.66083" lon="-2.80757">
        <ele>34.4</ele>
        <time>2020-06-06T13:28:51Z</time>
      </trkpt>
      <trkpt lat="47.66083" lon="-2.80764">
        <ele>34.4</ele>
        <time>2020-06-06T13:28:52Z</time>
      </trkpt>
      <trkpt lat="47.66083" lon="-2.80771">
        <ele>34.5</ele>
        <time>2020-06-06T13:28:53Z</time>
      </trkpt>
      <trkpt lat="47.66084" lon="-2.80778">
        <ele>34.5</ele>
        <time>2020-06-06T13:28:54Z</time>
      </trkpt>
      <trkpt lat="47.66084" lon="-2.80785">
        <ele>34.5</ele>
        <time>2020-06-06T13:28:55Z</time>
      </trkpt>
      <trkpt lat="47.66084" lon="-2.80793">
        <ele>34.5</ele>
        <time>2020-06-06T13:28:56Z</time>
      </trkpt>
      <trkpt lat="47.66084" lon="-2.80803">
        <ele>34.5</ele>
        <time>2020-06-06T13:28:57Z</time>
      </trkpt>
      <trkpt lat="47.66084" lon="-2.8081">
        <ele>34.5</ele>
        <time>2020-06-06T13:28:58Z</time>
      </trkpt>
      <trkpt lat="47.66084" lon="-2.8082">
        <ele>34.6</ele>
        <time>2020-06-06T13:28:59Z</time>
      </trkpt>
      <trkpt lat="47.66084" lon="-2.80829">
        <ele>34.6</ele>
        <time>2020-06-06T13:29:00Z</time>
      </trkpt>
      <trkpt lat="47.66084" lon="-2.80836">
        <ele>34.6</ele>
        <time>2020-06-06T13:29:01Z</time>
      </trkpt>
      <trkpt lat="47.66084" lon="-2.80843">
        <ele>34.6</ele>
        <time>2020-06-06T13:29:02Z</time>
      </trkpt>
      <trkpt lat="47.66084" lon="-2.80852">
        <ele>34.7</ele>
        <time>2020-06-06T13:29:03Z</time>
      </trkpt>
      <trkpt lat="47.66084" lon="-2.80859">
        <ele>34.7</ele>
        <time>2020-06-06T13:29:04Z</time>
      </trkpt>
      <trkpt lat="47.66083" lon="-2.80868">
        <ele>34.8</ele>
        <time>2020-06-06T13:29:05Z</time>
      </trkpt>
      <trkpt lat="47.66083" lon="-2.80876">
        <ele>34.9</ele>
        <time>2020-06-06T13:29:06Z</time>
      </trkpt>
      <trkpt lat="47.66083" lon="-2.80884">
        <ele>34.9</ele>
        <time>2020-06-06T13:29:07Z</time>
      </trkpt>
      <trkpt lat="47.66083" lon="-2.80892">
        <ele>35</ele>
        <time>2020-06-06T13:29:08Z</time>
      </trkpt>
      <trkpt lat="47.66084" lon="-2.80899">
        <ele>35.1</ele>
        <time>2020-06-06T13:29:09Z</time>
      </trkpt>
      <trkpt lat="47.66085" lon="-2.80908">
        <ele>35.2</ele>
        <time>2020-06-06T13:29:10Z</time>
      </trkpt>
      <trkpt lat="47.66085" lon="-2.80914">
        <ele>35.3</ele>
        <time>2020-06-06T13:29:11Z</time>
      </trkpt>
      <trkpt lat="47.66086" lon="-2.80923">
        <ele>35.4</ele>
        <time>2020-06-06T13:29:12Z</time>
      </trkpt>
      <trkpt lat="47.66086" lon="-2.80931">
        <ele>35.6</ele>
        <time>2020-06-06T13:29:13Z</time>
      </trkpt>
      <trkpt lat="47.66086" lon="-2.80936">
        <ele>35.7</ele>
        <time>2020-06-06T13:29:14Z</time>
      </trkpt>
      <trkpt lat="47.66086" lon="-2.80943">
        <ele>35.8</ele>
        <time>2020-06-06T13:29:15Z</time>
      </trkpt>
      <trkpt lat="47.66087" lon="-2.8095">
        <ele>36</ele>
        <time>2020-06-06T13:29:16Z</time>
      </trkpt>
      <trkpt lat="47.66087" lon="-2.80958">
        <ele>36.2</ele>
        <time>2020-06-06T13:29:17Z</time>
      </trkpt>
      <trkpt lat="47.66087" lon="-2.80965">
        <ele>36.4</ele>
        <time>2020-06-06T13:29:18Z</time>
      </trkpt>
      <trkpt lat="47.66087" lon="-2.80972">
        <ele>36.5</ele>
        <time>2020-06-06T13:29:19Z</time>
      </trkpt>
      <trkpt lat="47.66087" lon="-2.80978">
        <ele>36.7</ele>
        <time>2020-06-06T13:29:20Z</time>
      </trkpt>
      <trkpt lat="47.66088" lon="-2.80984">
        <ele>36.8</ele>
        <time>2020-06-06T13:29:21Z</time>
      </trkpt>
      <trkpt lat="47.66089" lon="-2.8099">
        <ele>36.9</ele>
        <time>2020-06-06T13:29:22Z</time>
      </trkpt>
      <trkpt lat="47.66089" lon="-2.80997">
        <ele>37</ele>
        <time>2020-06-06T13:29:23Z</time>
      </trkpt>
      <trkpt lat="47.6609" lon="-2.81004">
        <ele>37.1</ele>
        <time>2020-06-06T13:29:24Z</time>
      </trkpt>
      <trkpt lat="47.6609" lon="-2.81008">
        <ele>37.2</ele>
        <time>2020-06-06T13:29:25Z</time>
      </trkpt>
      <trkpt lat="47.6609" lon="-2.81014">
        <ele>37.2</ele>
        <time>2020-06-06T13:29:26Z</time>
      </trkpt>
      <trkpt lat="47.6609" lon="-2.81019">
        <ele>37.3</ele>
        <time>2020-06-06T13:29:27Z</time>
      </trkpt>
      <trkpt lat="47.6609" lon="-2.81025">
        <ele>37.3</ele>
        <time>2020-06-06T13:29:28Z</time>
      </trkpt>
      <trkpt lat="47.66089" lon="-2.81033">
        <ele>37.4</ele>
        <time>2020-06-06T13:29:29Z</time>
      </trkpt>
      <trkpt lat="47.66089" lon="-2.81041">
        <ele>37.4</ele>
        <time>2020-06-06T13:29:30Z</time>
      </trkpt>
      <trkpt lat="47.66087" lon="-2.81046">
        <ele>37.4</ele>
        <time>2020-06-06T13:29:31Z</time>
      </trkpt>
      <trkpt lat="47.66083" lon="-2.81048">
        <ele>37.4</ele>
        <time>2020-06-06T13:29:32Z</time>
      </trkpt>
      <trkpt lat="47.66079" lon="-2.81046">
        <ele>37.4</ele>
        <time>2020-06-06T13:29:33Z</time>
      </trkpt>
      <trkpt lat="47.66074" lon="-2.81047">
        <ele>37.3</ele>
        <time>2020-06-06T13:29:34Z</time>
      </trkpt>
      <trkpt lat="47.66068" lon="-2.81046">
        <ele>37.3</ele>
        <time>2020-06-06T13:29:35Z</time>
      </trkpt>
      <trkpt lat="47.66063" lon="-2.81045">
        <ele>37.3</ele>
        <time>2020-06-06T13:29:36Z</time>
      </trkpt>
      <trkpt lat="47.66059" lon="-2.81045">
        <ele>37.3</ele>
        <time>2020-06-06T13:29:37Z</time>
      </trkpt>
      <trkpt lat="47.66054" lon="-2.81045">
        <ele>37.3</ele>
        <time>2020-06-06T13:29:38Z</time>
      </trkpt>
      <trkpt lat="47.66048" lon="-2.81045">
        <ele>37.2</ele>
        <time>2020-06-06T13:29:39Z</time>
      </trkpt>
      <trkpt lat="47.66041" lon="-2.81044">
        <ele>37.1</ele>
        <time>2020-06-06T13:29:40Z</time>
      </trkpt>
      <trkpt lat="47.66036" lon="-2.81044">
        <ele>37</ele>
        <time>2020-06-06T13:29:41Z</time>
      </trkpt>
      <trkpt lat="47.66032" lon="-2.81047">
        <ele>37</ele>
        <time>2020-06-06T13:29:42Z</time>
      </trkpt>
      <trkpt lat="47.66028" lon="-2.8105">
        <ele>36.5</ele>
        <time>2020-06-06T13:29:43Z</time>
      </trkpt>
      <trkpt lat="47.66028" lon="-2.81058">
        <ele>36.3</ele>
        <time>2020-06-06T13:29:44Z</time>
      </trkpt>
      <trkpt lat="47.66028" lon="-2.81065">
        <ele>36</ele>
        <time>2020-06-06T13:29:45Z</time>
      </trkpt>
      <trkpt lat="47.66027" lon="-2.81073">
        <ele>35.7</ele>
        <time>2020-06-06T13:29:46Z</time>
      </trkpt>
      <trkpt lat="47.66026" lon="-2.81081">
        <ele>35.4</ele>
        <time>2020-06-06T13:29:47Z</time>
      </trkpt>
      <trkpt lat="47.66026" lon="-2.81092">
        <ele>34.9</ele>
        <time>2020-06-06T13:29:48Z</time>
      </trkpt>
      <trkpt lat="47.66025" lon="-2.81102">
        <ele>34.4</ele>
        <time>2020-06-06T13:29:49Z</time>
      </trkpt>
      <trkpt lat="47.66024" lon="-2.81113">
        <ele>33.9</ele>
        <time>2020-06-06T13:29:50Z</time>
      </trkpt>
      <trkpt lat="47.66022" lon="-2.81124">
        <ele>33.3</ele>
        <time>2020-06-06T13:29:51Z</time>
      </trkpt>
      <trkpt lat="47.66023" lon="-2.81139">
        <ele>32.5</ele>
        <time>2020-06-06T13:29:52Z</time>
      </trkpt>
      <trkpt lat="47.66023" lon="-2.81152">
        <ele>31.8</ele>
        <time>2020-06-06T13:29:53Z</time>
      </trkpt>
      <trkpt lat="47.66022" lon="-2.81167">
        <ele>30.7</ele>
        <time>2020-06-06T13:29:54Z</time>
      </trkpt>
      <trkpt lat="47.66021" lon="-2.81181">
        <ele>29.7</ele>
        <time>2020-06-06T13:29:55Z</time>
      </trkpt>
      <trkpt lat="47.6602" lon="-2.81197">
        <ele>28.6</ele>
        <time>2020-06-06T13:29:56Z</time>
      </trkpt>
      <trkpt lat="47.66019" lon="-2.81212">
        <ele>27.5</ele>
        <time>2020-06-06T13:29:57Z</time>
      </trkpt>
      <trkpt lat="47.66016" lon="-2.81228">
        <ele>26.3</ele>
        <time>2020-06-06T13:29:58Z</time>
      </trkpt>
      <trkpt lat="47.66013" lon="-2.81246">
        <ele>25.1</ele>
        <time>2020-06-06T13:29:59Z</time>
      </trkpt>
      <trkpt lat="47.66009" lon="-2.81264">
        <ele>23.8</ele>
        <time>2020-06-06T13:30:00Z</time>
      </trkpt>
      <trkpt lat="47.66004" lon="-2.81282">
        <ele>22.5</ele>
        <time>2020-06-06T13:30:01Z</time>
      </trkpt>
      <trkpt lat="47.65997" lon="-2.81298">
        <ele>21.3</ele>
        <time>2020-06-06T13:30:02Z</time>
      </trkpt>
      <trkpt lat="47.65989" lon="-2.81314">
        <ele>20.5</ele>
        <time>2020-06-06T13:30:03Z</time>
      </trkpt>
      <trkpt lat="47.65979" lon="-2.81326">
        <ele>19.7</ele>
        <time>2020-06-06T13:30:04Z</time>
      </trkpt>
      <trkpt lat="47.65969" lon="-2.81338">
        <ele>18.9</ele>
        <time>2020-06-06T13:30:05Z</time>
      </trkpt>
      <trkpt lat="47.65958" lon="-2.81348">
        <ele>18.1</ele>
        <time>2020-06-06T13:30:06Z</time>
      </trkpt>
      <trkpt lat="47.65947" lon="-2.81358">
        <ele>17.3</ele>
        <time>2020-06-06T13:30:07Z</time>
      </trkpt>
      <trkpt lat="47.65936" lon="-2.81369">
        <ele>16.4</ele>
        <time>2020-06-06T13:30:08Z</time>
      </trkpt>
      <trkpt lat="47.65925" lon="-2.81379">
        <ele>15.6</ele>
        <time>2020-06-06T13:30:09Z</time>
      </trkpt>
      <trkpt lat="47.65914" lon="-2.8139">
        <ele>14.8</ele>
        <time>2020-06-06T13:30:10Z</time>
      </trkpt>
      <trkpt lat="47.65902" lon="-2.814">
        <ele>14.1</ele>
        <time>2020-06-06T13:30:11Z</time>
      </trkpt>
      <trkpt lat="47.65891" lon="-2.8141">
        <ele>13.5</ele>
        <time>2020-06-06T13:30:12Z</time>
      </trkpt>
      <trkpt lat="47.6588" lon="-2.81422">
        <ele>12.9</ele>
        <time>2020-06-06T13:30:13Z</time>
      </trkpt>
      <trkpt lat="47.6587" lon="-2.81434">
        <ele>12.4</ele>
        <time>2020-06-06T13:30:14Z</time>
      </trkpt>
      <trkpt lat="47.6586" lon="-2.81447">
        <ele>12</ele>
        <time>2020-06-06T13:30:15Z</time>
      </trkpt>
      <trkpt lat="47.65851" lon="-2.81461">
        <ele>11.7</ele>
        <time>2020-06-06T13:30:16Z</time>
      </trkpt>
      <trkpt lat="47.65842" lon="-2.81475">
        <ele>11.5</ele>
        <time>2020-06-06T13:30:17Z</time>
      </trkpt>
      <trkpt lat="47.65836" lon="-2.8149">
        <ele>11.5</ele>
        <time>2020-06-06T13:30:18Z</time>
      </trkpt>
      <trkpt lat="47.6583" lon="-2.81506">
        <ele>11.5</ele>
        <time>2020-06-06T13:30:19Z</time>
      </trkpt>
      <trkpt lat="47.65824" lon="-2.81521">
        <ele>11.6</ele>
        <time>2020-06-06T13:30:20Z</time>
      </trkpt>
      <trkpt lat="47.65821" lon="-2.81537">
        <ele>11.9</ele>
        <time>2020-06-06T13:30:21Z</time>
      </trkpt>
      <trkpt lat="47.65817" lon="-2.81553">
        <ele>12.2</ele>
        <time>2020-06-06T13:30:22Z</time>
      </trkpt>
      <trkpt lat="47.65815" lon="-2.81568">
        <ele>12.6</ele>
        <time>2020-06-06T13:30:23Z</time>
      </trkpt>
      <trkpt lat="47.65813" lon="-2.81583">
        <ele>12.9</ele>
        <time>2020-06-06T13:30:24Z</time>
      </trkpt>
      <trkpt lat="47.65812" lon="-2.81596">
        <ele>13.3</ele>
        <time>2020-06-06T13:30:25Z</time>
      </trkpt>
      <trkpt lat="47.65811" lon="-2.81609">
        <ele>13.6</ele>
        <time>2020-06-06T13:30:26Z</time>
      </trkpt>
      <trkpt lat="47.6581" lon="-2.81621">
        <ele>13.9</ele>
        <time>2020-06-06T13:30:27Z</time>
      </trkpt>
      <trkpt lat="47.6581" lon="-2.81633">
        <ele>14.3</ele>
        <time>2020-06-06T13:30:28Z</time>
      </trkpt>
      <trkpt lat="47.6581" lon="-2.81644">
        <ele>14.7</ele>
        <time>2020-06-06T13:30:29Z</time>
      </trkpt>
      <trkpt lat="47.6581" lon="-2.81655">
        <ele>15.1</ele>
        <time>2020-06-06T13:30:30Z</time>
      </trkpt>
      <trkpt lat="47.65812" lon="-2.81663">
        <ele>15.4</ele>
        <time>2020-06-06T13:30:31Z</time>
      </trkpt>
      <trkpt lat="47.65814" lon="-2.81672">
        <ele>15.8</ele>
        <time>2020-06-06T13:30:32Z</time>
      </trkpt>
      <trkpt lat="47.65816" lon="-2.8168">
        <ele>16.1</ele>
        <time>2020-06-06T13:30:33Z</time>
      </trkpt>
      <trkpt lat="47.65817" lon="-2.81688">
        <ele>16.4</ele>
        <time>2020-06-06T13:30:34Z</time>
      </trkpt>
      <trkpt lat="47.65819" lon="-2.81695">
        <ele>16.8</ele>
        <time>2020-06-06T13:30:35Z</time>
      </trkpt>
      <trkpt lat="47.6582" lon="-2.81702">
        <ele>17</ele>
        <time>2020-06-06T13:30:36Z</time>
      </trkpt>
      <trkpt lat="47.65822" lon="-2.81708">
        <ele>17.3</ele>
        <time>2020-06-06T13:30:37Z</time>
      </trkpt>
      <trkpt lat="47.65823" lon="-2.81713">
        <ele>17.5</ele>
        <time>2020-06-06T13:30:38Z</time>
      </trkpt>
      <trkpt lat="47.65824" lon="-2.81718">
        <ele>17.7</ele>
        <time>2020-06-06T13:30:39Z</time>
      </trkpt>
      <trkpt lat="47.65825" lon="-2.81723">
        <ele>18</ele>
        <time>2020-06-06T13:30:40Z</time>
      </trkpt>
      <trkpt lat="47.65825" lon="-2.81729">
        <ele>18.2</ele>
        <time>2020-06-06T13:30:41Z</time>
      </trkpt>
      <trkpt lat="47.65826" lon="-2.81734">
        <ele>18.5</ele>
        <time>2020-06-06T13:30:42Z</time>
      </trkpt>
      <trkpt lat="47.65827" lon="-2.8174">
        <ele>18.7</ele>
        <time>2020-06-06T13:30:43Z</time>
      </trkpt>
      <trkpt lat="47.65828" lon="-2.81745">
        <ele>18.9</ele>
        <time>2020-06-06T13:30:44Z</time>
      </trkpt>
      <trkpt lat="47.65829" lon="-2.8175">
        <ele>19.1</ele>
        <time>2020-06-06T13:30:45Z</time>
      </trkpt>
      <trkpt lat="47.6583" lon="-2.81755">
        <ele>19.3</ele>
        <time>2020-06-06T13:30:46Z</time>
      </trkpt>
      <trkpt lat="47.65831" lon="-2.81761">
        <ele>19.6</ele>
        <time>2020-06-06T13:30:47Z</time>
      </trkpt>
      <trkpt lat="47.65831" lon="-2.81767">
        <ele>19.8</ele>
        <time>2020-06-06T13:30:48Z</time>
      </trkpt>
      <trkpt lat="47.65833" lon="-2.81772">
        <ele>20.1</ele>
        <time>2020-06-06T13:30:49Z</time>
      </trkpt>
      <trkpt lat="47.65834" lon="-2.81777">
        <ele>20.3</ele>
        <time>2020-06-06T13:30:50Z</time>
      </trkpt>
      <trkpt lat="47.65834" lon="-2.81783">
        <ele>20.5</ele>
        <time>2020-06-06T13:30:51Z</time>
      </trkpt>
      <trkpt lat="47.65835" lon="-2.81789">
        <ele>20.7</ele>
        <time>2020-06-06T13:30:52Z</time>
      </trkpt>
      <trkpt lat="47.65836" lon="-2.81794">
        <ele>20.9</ele>
        <time>2020-06-06T13:30:53Z</time>
      </trkpt>
      <trkpt lat="47.65838" lon="-2.81799">
        <ele>21.1</ele>
        <time>2020-06-06T13:30:54Z</time>
      </trkpt>
      <trkpt lat="47.65839" lon="-2.81805">
        <ele>21.3</ele>
        <time>2020-06-06T13:30:55Z</time>
      </trkpt>
      <trkpt lat="47.6584" lon="-2.81811">
        <ele>21.5</ele>
        <time>2020-06-06T13:30:56Z</time>
      </trkpt>
      <trkpt lat="47.65842" lon="-2.81817">
        <ele>21.7</ele>
        <time>2020-06-06T13:30:57Z</time>
      </trkpt>
      <trkpt lat="47.65843" lon="-2.81823">
        <ele>21.9</ele>
        <time>2020-06-06T13:30:58Z</time>
      </trkpt>
      <trkpt lat="47.65844" lon="-2.81828">
        <ele>22.2</ele>
        <time>2020-06-06T13:30:59Z</time>
      </trkpt>
      <trkpt lat="47.65844" lon="-2.81832">
        <ele>22.4</ele>
        <time>2020-06-06T13:31:00Z</time>
      </trkpt>
      <trkpt lat="47.65845" lon="-2.81837">
        <ele>22.6</ele>
        <time>2020-06-06T13:31:01Z</time>
      </trkpt>
      <trkpt lat="47.65845" lon="-2.81839">
        <ele>22.7</ele>
        <time>2020-06-06T13:31:02Z</time>
      </trkpt>
      <trkpt lat="47.65846" lon="-2.81844">
        <ele>22.9</ele>
        <time>2020-06-06T13:31:03Z</time>
      </trkpt>
      <trkpt lat="47.65847" lon="-2.81851">
        <ele>23.2</ele>
        <time>2020-06-06T13:31:04Z</time>
      </trkpt>
      <trkpt lat="47.65849" lon="-2.81856">
        <ele>23.3</ele>
        <time>2020-06-06T13:31:05Z</time>
      </trkpt>
      <trkpt lat="47.65849" lon="-2.81861">
        <ele>23.5</ele>
        <time>2020-06-06T13:31:06Z</time>
      </trkpt>
      <trkpt lat="47.65851" lon="-2.81867">
        <ele>23.7</ele>
        <time>2020-06-06T13:31:07Z</time>
      </trkpt>
      <trkpt lat="47.65852" lon="-2.81872">
        <ele>23.9</ele>
        <time>2020-06-06T13:31:08Z</time>
      </trkpt>
      <trkpt lat="47.65853" lon="-2.81877">
        <ele>24.1</ele>
        <time>2020-06-06T13:31:09Z</time>
      </trkpt>
      <trkpt lat="47.65854" lon="-2.81881">
        <ele>24.2</ele>
        <time>2020-06-06T13:31:10Z</time>
      </trkpt>
      <trkpt lat="47.65855" lon="-2.81886">
        <ele>24.4</ele>
        <time>2020-06-06T13:31:11Z</time>
      </trkpt>
      <trkpt lat="47.65856" lon="-2.81891">
        <ele>24.5</ele>
        <time>2020-06-06T13:31:12Z</time>
      </trkpt>
      <trkpt lat="47.65856" lon="-2.81893">
        <ele>24.6</ele>
        <time>2020-06-06T13:31:13Z</time>
      </trkpt>
      <trkpt lat="47.65858" lon="-2.81899">
        <ele>24.8</ele>
        <time>2020-06-06T13:31:14Z</time>
      </trkpt>
      <trkpt lat="47.65859" lon="-2.81904">
        <ele>25</ele>
        <time>2020-06-06T13:31:15Z</time>
      </trkpt>
      <trkpt lat="47.6586" lon="-2.81909">
        <ele>25.2</ele>
        <time>2020-06-06T13:31:16Z</time>
      </trkpt>
      <trkpt lat="47.65862" lon="-2.81914">
        <ele>25.4</ele>
        <time>2020-06-06T13:31:17Z</time>
      </trkpt>
      <trkpt lat="47.65863" lon="-2.81918">
        <ele>25.5</ele>
        <time>2020-06-06T13:31:18Z</time>
      </trkpt>
      <trkpt lat="47.65864" lon="-2.81922">
        <ele>25.7</ele>
        <time>2020-06-06T13:31:19Z</time>
      </trkpt>
      <trkpt lat="47.65866" lon="-2.81926">
        <ele>25.8</ele>
        <time>2020-06-06T13:31:20Z</time>
      </trkpt>
      <trkpt lat="47.65867" lon="-2.81931">
        <ele>26</ele>
        <time>2020-06-06T13:31:21Z</time>
      </trkpt>
      <trkpt lat="47.65868" lon="-2.81935">
        <ele>26.1</ele>
        <time>2020-06-06T13:31:22Z</time>
      </trkpt>
      <trkpt lat="47.6587" lon="-2.8194">
        <ele>26.3</ele>
        <time>2020-06-06T13:31:23Z</time>
      </trkpt>
      <trkpt lat="47.65872" lon="-2.81944">
        <ele>26.4</ele>
        <time>2020-06-06T13:31:24Z</time>
      </trkpt>
      <trkpt lat="47.65873" lon="-2.81948">
        <ele>26.6</ele>
        <time>2020-06-06T13:31:25Z</time>
      </trkpt>
      <trkpt lat="47.65874" lon="-2.81953">
        <ele>26.7</ele>
        <time>2020-06-06T13:31:26Z</time>
      </trkpt>
      <trkpt lat="47.65876" lon="-2.81959">
        <ele>26.9</ele>
        <time>2020-06-06T13:31:27Z</time>
      </trkpt>
      <trkpt lat="47.65878" lon="-2.81964">
        <ele>27.1</ele>
        <time>2020-06-06T13:31:28Z</time>
      </trkpt>
      <trkpt lat="47.6588" lon="-2.81968">
        <ele>27.3</ele>
        <time>2020-06-06T13:31:29Z</time>
      </trkpt>
      <trkpt lat="47.65882" lon="-2.81972">
        <ele>27.4</ele>
        <time>2020-06-06T13:31:30Z</time>
      </trkpt>
      <trkpt lat="47.65884" lon="-2.81977">
        <ele>27.6</ele>
        <time>2020-06-06T13:31:31Z</time>
      </trkpt>
      <trkpt lat="47.65886" lon="-2.81982">
        <ele>27.7</ele>
        <time>2020-06-06T13:31:32Z</time>
      </trkpt>
      <trkpt lat="47.65889" lon="-2.81986">
        <ele>27.9</ele>
        <time>2020-06-06T13:31:33Z</time>
      </trkpt>
      <trkpt lat="47.6589" lon="-2.81988">
        <ele>27.9</ele>
        <time>2020-06-06T13:31:34Z</time>
      </trkpt>
      <trkpt lat="47.65892" lon="-2.81991">
        <ele>28</ele>
        <time>2020-06-06T13:31:35Z</time>
      </trkpt>
      <trkpt lat="47.65894" lon="-2.81994">
        <ele>28.1</ele>
        <time>2020-06-06T13:31:36Z</time>
      </trkpt>
      <trkpt lat="47.65896" lon="-2.81998">
        <ele>28.2</ele>
        <time>2020-06-06T13:31:37Z</time>
      </trkpt>
      <trkpt lat="47.65899" lon="-2.82002">
        <ele>28.3</ele>
        <time>2020-06-06T13:31:38Z</time>
      </trkpt>
      <trkpt lat="47.65902" lon="-2.82003">
        <ele>28.4</ele>
        <time>2020-06-06T13:31:39Z</time>
      </trkpt>
      <trkpt lat="47.65905" lon="-2.82007">
        <ele>28.4</ele>
        <time>2020-06-06T13:31:40Z</time>
      </trkpt>
      <trkpt lat="47.65906" lon="-2.82009">
        <ele>28.4</ele>
        <time>2020-06-06T13:31:41Z</time>
      </trkpt>
      <trkpt lat="47.65909" lon="-2.82012">
        <ele>28.4</ele>
        <time>2020-06-06T13:31:42Z</time>
      </trkpt>
      <trkpt lat="47.65912" lon="-2.82015">
        <ele>28.4</ele>
        <time>2020-06-06T13:31:43Z</time>
      </trkpt>
      <trkpt lat="47.65914" lon="-2.82017">
        <ele>28.4</ele>
        <time>2020-06-06T13:31:44Z</time>
      </trkpt>
      <trkpt lat="47.65918" lon="-2.8202">
        <ele>28.3</ele>
        <time>2020-06-06T13:31:45Z</time>
      </trkpt>
      <trkpt lat="47.65922" lon="-2.82022">
        <ele>28.2</ele>
        <time>2020-06-06T13:31:46Z</time>
      </trkpt>
      <trkpt lat="47.65926" lon="-2.82025">
        <ele>28.1</ele>
        <time>2020-06-06T13:31:47Z</time>
      </trkpt>
      <trkpt lat="47.65931" lon="-2.82029">
        <ele>27.9</ele>
        <time>2020-06-06T13:31:48Z</time>
      </trkpt>
      <trkpt lat="47.65935" lon="-2.82033">
        <ele>27.7</ele>
        <time>2020-06-06T13:31:49Z</time>
      </trkpt>
      <trkpt lat="47.65939" lon="-2.82036">
        <ele>27.5</ele>
        <time>2020-06-06T13:31:50Z</time>
      </trkpt>
      <trkpt lat="47.65942" lon="-2.8204">
        <ele>27.4</ele>
        <time>2020-06-06T13:31:51Z</time>
      </trkpt>
      <trkpt lat="47.65946" lon="-2.82045">
        <ele>27.2</ele>
        <time>2020-06-06T13:31:52Z</time>
      </trkpt>
      <trkpt lat="47.6595" lon="-2.82049">
        <ele>27</ele>
        <time>2020-06-06T13:31:53Z</time>
      </trkpt>
      <trkpt lat="47.65953" lon="-2.82051">
        <ele>26.8</ele>
        <time>2020-06-06T13:31:54Z</time>
      </trkpt>
      <trkpt lat="47.65956" lon="-2.82054">
        <ele>26.7</ele>
        <time>2020-06-06T13:31:55Z</time>
      </trkpt>
      <trkpt lat="47.6596" lon="-2.82058">
        <ele>26.4</ele>
        <time>2020-06-06T13:31:56Z</time>
      </trkpt>
      <trkpt lat="47.65963" lon="-2.82063">
        <ele>26.2</ele>
        <time>2020-06-06T13:31:57Z</time>
      </trkpt>
      <trkpt lat="47.65966" lon="-2.82068">
        <ele>26</ele>
        <time>2020-06-06T13:31:58Z</time>
      </trkpt>
      <trkpt lat="47.6597" lon="-2.82072">
        <ele>25.7</ele>
        <time>2020-06-06T13:31:59Z</time>
      </trkpt>
      <trkpt lat="47.65973" lon="-2.82078">
        <ele>25.4</ele>
        <time>2020-06-06T13:32:00Z</time>
      </trkpt>
      <trkpt lat="47.65976" lon="-2.82085">
        <ele>25</ele>
        <time>2020-06-06T13:32:01Z</time>
      </trkpt>
      <trkpt lat="47.6598" lon="-2.82092">
        <ele>24.7</ele>
        <time>2020-06-06T13:32:02Z</time>
      </trkpt>
      <trkpt lat="47.65982" lon="-2.82097">
        <ele>24.5</ele>
        <time>2020-06-06T13:32:03Z</time>
      </trkpt>
      <trkpt lat="47.65984" lon="-2.82104">
        <ele>24.2</ele>
        <time>2020-06-06T13:32:04Z</time>
      </trkpt>
      <trkpt lat="47.65986" lon="-2.82112">
        <ele>24</ele>
        <time>2020-06-06T13:32:05Z</time>
      </trkpt>
      <trkpt lat="47.65988" lon="-2.8212">
        <ele>23.7</ele>
        <time>2020-06-06T13:32:06Z</time>
      </trkpt>
      <trkpt lat="47.6599" lon="-2.82129">
        <ele>23.6</ele>
        <time>2020-06-06T13:32:07Z</time>
      </trkpt>
      <trkpt lat="47.65993" lon="-2.82139">
        <ele>23.4</ele>
        <time>2020-06-06T13:32:08Z</time>
      </trkpt>
      <trkpt lat="47.65994" lon="-2.82147">
        <ele>23.2</ele>
        <time>2020-06-06T13:32:09Z</time>
      </trkpt>
      <trkpt lat="47.65996" lon="-2.82156">
        <ele>23.1</ele>
        <time>2020-06-06T13:32:10Z</time>
      </trkpt>
      <trkpt lat="47.65998" lon="-2.82165">
        <ele>23.1</ele>
        <time>2020-06-06T13:32:11Z</time>
      </trkpt>
      <trkpt lat="47.65999" lon="-2.82174">
        <ele>23.1</ele>
        <time>2020-06-06T13:32:12Z</time>
      </trkpt>
      <trkpt lat="47.66002" lon="-2.82182">
        <ele>23.1</ele>
        <time>2020-06-06T13:32:13Z</time>
      </trkpt>
      <trkpt lat="47.66005" lon="-2.8219">
        <ele>23.2</ele>
        <time>2020-06-06T13:32:14Z</time>
      </trkpt>
      <trkpt lat="47.66006" lon="-2.82198">
        <ele>23.4</ele>
        <time>2020-06-06T13:32:15Z</time>
      </trkpt>
      <trkpt lat="47.66008" lon="-2.82206">
        <ele>23.6</ele>
        <time>2020-06-06T13:32:16Z</time>
      </trkpt>
      <trkpt lat="47.66009" lon="-2.82211">
        <ele>23.8</ele>
        <time>2020-06-06T13:32:17Z</time>
      </trkpt>
      <trkpt lat="47.6601" lon="-2.82219">
        <ele>24</ele>
        <time>2020-06-06T13:32:18Z</time>
      </trkpt>
      <trkpt lat="47.6601" lon="-2.82224">
        <ele>24.2</ele>
        <time>2020-06-06T13:32:19Z</time>
      </trkpt>
      <trkpt lat="47.66011" lon="-2.8223">
        <ele>24.4</ele>
        <time>2020-06-06T13:32:20Z</time>
      </trkpt>
      <trkpt lat="47.66012" lon="-2.82234">
        <ele>24.6</ele>
        <time>2020-06-06T13:32:21Z</time>
      </trkpt>
      <trkpt lat="47.66013" lon="-2.82238">
        <ele>24.8</ele>
        <time>2020-06-06T13:32:22Z</time>
      </trkpt>
      <trkpt lat="47.66015" lon="-2.82244">
        <ele>25</ele>
        <time>2020-06-06T13:32:23Z</time>
      </trkpt>
      <trkpt lat="47.66017" lon="-2.82249">
        <ele>25.3</ele>
        <time>2020-06-06T13:32:24Z</time>
      </trkpt>
      <trkpt lat="47.66018" lon="-2.82254">
        <ele>25.6</ele>
        <time>2020-06-06T13:32:25Z</time>
      </trkpt>
      <trkpt lat="47.66019" lon="-2.8226">
        <ele>25.8</ele>
        <time>2020-06-06T13:32:26Z</time>
      </trkpt>
      <trkpt lat="47.6602" lon="-2.82266">
        <ele>26.1</ele>
        <time>2020-06-06T13:32:27Z</time>
      </trkpt>
      <trkpt lat="47.66021" lon="-2.8227">
        <ele>26.3</ele>
        <time>2020-06-06T13:32:28Z</time>
      </trkpt>
      <trkpt lat="47.66022" lon="-2.82275">
        <ele>26.6</ele>
        <time>2020-06-06T13:32:29Z</time>
      </trkpt>
      <trkpt lat="47.66023" lon="-2.82281">
        <ele>26.8</ele>
        <time>2020-06-06T13:32:30Z</time>
      </trkpt>
      <trkpt lat="47.66023" lon="-2.82285">
        <ele>27</ele>
        <time>2020-06-06T13:32:31Z</time>
      </trkpt>
      <trkpt lat="47.66025" lon="-2.82289">
        <ele>27.2</ele>
        <time>2020-06-06T13:32:32Z</time>
      </trkpt>
      <trkpt lat="47.66025" lon="-2.82294">
        <ele>27.4</ele>
        <time>2020-06-06T13:32:33Z</time>
      </trkpt>
      <trkpt lat="47.66026" lon="-2.82298">
        <ele>27.5</ele>
        <time>2020-06-06T13:32:34Z</time>
      </trkpt>
      <trkpt lat="47.66027" lon="-2.82303">
        <ele>27.7</ele>
        <time>2020-06-06T13:32:35Z</time>
      </trkpt>
      <trkpt lat="47.66028" lon="-2.82309">
        <ele>27.9</ele>
        <time>2020-06-06T13:32:36Z</time>
      </trkpt>
      <trkpt lat="47.66029" lon="-2.82315">
        <ele>28.1</ele>
        <time>2020-06-06T13:32:37Z</time>
      </trkpt>
      <trkpt lat="47.66029" lon="-2.82321">
        <ele>28.3</ele>
        <time>2020-06-06T13:32:38Z</time>
      </trkpt>
      <trkpt lat="47.6603" lon="-2.82328">
        <ele>28.5</ele>
        <time>2020-06-06T13:32:39Z</time>
      </trkpt>
      <trkpt lat="47.66031" lon="-2.82335">
        <ele>28.6</ele>
        <time>2020-06-06T13:32:40Z</time>
      </trkpt>
      <trkpt lat="47.66032" lon="-2.8234">
        <ele>28.8</ele>
        <time>2020-06-06T13:32:41Z</time>
      </trkpt>
      <trkpt lat="47.66033" lon="-2.82345">
        <ele>28.9</ele>
        <time>2020-06-06T13:32:42Z</time>
      </trkpt>
      <trkpt lat="47.66034" lon="-2.8235">
        <ele>29</ele>
        <time>2020-06-06T13:32:43Z</time>
      </trkpt>
      <trkpt lat="47.66035" lon="-2.82354">
        <ele>29.2</ele>
        <time>2020-06-06T13:32:44Z</time>
      </trkpt>
      <trkpt lat="47.66036" lon="-2.82359">
        <ele>29.3</ele>
        <time>2020-06-06T13:32:45Z</time>
      </trkpt>
      <trkpt lat="47.66037" lon="-2.82364">
        <ele>29.5</ele>
        <time>2020-06-06T13:32:46Z</time>
      </trkpt>
      <trkpt lat="47.66038" lon="-2.82371">
        <ele>29.7</ele>
        <time>2020-06-06T13:32:47Z</time>
      </trkpt>
      <trkpt lat="47.66039" lon="-2.82375">
        <ele>29.8</ele>
        <time>2020-06-06T13:32:48Z</time>
      </trkpt>
      <trkpt lat="47.66041" lon="-2.82381">
        <ele>30</ele>
        <time>2020-06-06T13:32:49Z</time>
      </trkpt>
      <trkpt lat="47.66042" lon="-2.82386">
        <ele>30.2</ele>
        <time>2020-06-06T13:32:50Z</time>
      </trkpt>
      <trkpt lat="47.66043" lon="-2.82391">
        <ele>30.4</ele>
        <time>2020-06-06T13:32:51Z</time>
      </trkpt>
      <trkpt lat="47.66044" lon="-2.82395">
        <ele>30.6</ele>
        <time>2020-06-06T13:32:52Z</time>
      </trkpt>
      <trkpt lat="47.66045" lon="-2.82399">
        <ele>30.7</ele>
        <time>2020-06-06T13:32:53Z</time>
      </trkpt>
      <trkpt lat="47.66046" lon="-2.82404">
        <ele>30.9</ele>
        <time>2020-06-06T13:32:54Z</time>
      </trkpt>
      <trkpt lat="47.66048" lon="-2.82411">
        <ele>31.2</ele>
        <time>2020-06-06T13:32:55Z</time>
      </trkpt>
      <trkpt lat="47.66048" lon="-2.82418">
        <ele>31.4</ele>
        <time>2020-06-06T13:32:56Z</time>
      </trkpt>
      <trkpt lat="47.66049" lon="-2.82423">
        <ele>31.6</ele>
        <time>2020-06-06T13:32:57Z</time>
      </trkpt>
      <trkpt lat="47.6605" lon="-2.82428">
        <ele>31.8</ele>
        <time>2020-06-06T13:32:58Z</time>
      </trkpt>
      <trkpt lat="47.66051" lon="-2.8243">
        <ele>31.9</ele>
        <time>2020-06-06T13:32:59Z</time>
      </trkpt>
      <trkpt lat="47.66052" lon="-2.82437">
        <ele>32.2</ele>
        <time>2020-06-06T13:33:00Z</time>
      </trkpt>
      <trkpt lat="47.66053" lon="-2.82441">
        <ele>32.3</ele>
        <time>2020-06-06T13:33:01Z</time>
      </trkpt>
      <trkpt lat="47.66054" lon="-2.82446">
        <ele>32.5</ele>
        <time>2020-06-06T13:33:02Z</time>
      </trkpt>
      <trkpt lat="47.66054" lon="-2.82451">
        <ele>32.7</ele>
        <time>2020-06-06T13:33:03Z</time>
      </trkpt>
      <trkpt lat="47.66055" lon="-2.82455">
        <ele>32.8</ele>
        <time>2020-06-06T13:33:04Z</time>
      </trkpt>
      <trkpt lat="47.66055" lon="-2.8246">
        <ele>33</ele>
        <time>2020-06-06T13:33:05Z</time>
      </trkpt>
      <trkpt lat="47.66055" lon="-2.82462">
        <ele>33</ele>
        <time>2020-06-06T13:33:06Z</time>
      </trkpt>
      <trkpt lat="47.66056" lon="-2.82468">
        <ele>33.2</ele>
        <time>2020-06-06T13:33:07Z</time>
      </trkpt>
      <trkpt lat="47.66057" lon="-2.82471">
        <ele>33.3</ele>
        <time>2020-06-06T13:33:08Z</time>
      </trkpt>
      <trkpt lat="47.66058" lon="-2.82476">
        <ele>33.4</ele>
        <time>2020-06-06T13:33:09Z</time>
      </trkpt>
      <trkpt lat="47.66059" lon="-2.8248">
        <ele>33.5</ele>
        <time>2020-06-06T13:33:10Z</time>
      </trkpt>
      <trkpt lat="47.66061" lon="-2.82485">
        <ele>33.6</ele>
        <time>2020-06-06T13:33:11Z</time>
      </trkpt>
      <trkpt lat="47.66062" lon="-2.8249">
        <ele>33.7</ele>
        <time>2020-06-06T13:33:12Z</time>
      </trkpt>
      <trkpt lat="47.66063" lon="-2.82496">
        <ele>33.9</ele>
        <time>2020-06-06T13:33:13Z</time>
      </trkpt>
      <trkpt lat="47.66064" lon="-2.82502">
        <ele>34</ele>
        <time>2020-06-06T13:33:14Z</time>
      </trkpt>
      <trkpt lat="47.66065" lon="-2.82507">
        <ele>34.1</ele>
        <time>2020-06-06T13:33:15Z</time>
      </trkpt>
      <trkpt lat="47.66067" lon="-2.82513">
        <ele>34.2</ele>
        <time>2020-06-06T13:33:16Z</time>
      </trkpt>
      <trkpt lat="47.66068" lon="-2.82519">
        <ele>34.3</ele>
        <time>2020-06-06T13:33:17Z</time>
      </trkpt>
      <trkpt lat="47.66069" lon="-2.82523">
        <ele>34.4</ele>
        <time>2020-06-06T13:33:18Z</time>
      </trkpt>
      <trkpt lat="47.6607" lon="-2.82528">
        <ele>34.4</ele>
        <time>2020-06-06T13:33:19Z</time>
      </trkpt>
      <trkpt lat="47.66071" lon="-2.82533">
        <ele>34.5</ele>
        <time>2020-06-06T13:33:20Z</time>
      </trkpt>
      <trkpt lat="47.66073" lon="-2.82538">
        <ele>34.6</ele>
        <time>2020-06-06T13:33:21Z</time>
      </trkpt>
      <trkpt lat="47.66074" lon="-2.82543">
        <ele>34.7</ele>
        <time>2020-06-06T13:33:22Z</time>
      </trkpt>
      <trkpt lat="47.66075" lon="-2.82548">
        <ele>34.8</ele>
        <time>2020-06-06T13:33:23Z</time>
      </trkpt>
      <trkpt lat="47.66076" lon="-2.82553">
        <ele>34.9</ele>
        <time>2020-06-06T13:33:24Z</time>
      </trkpt>
      <trkpt lat="47.66077" lon="-2.82558">
        <ele>35</ele>
        <time>2020-06-06T13:33:25Z</time>
      </trkpt>
      <trkpt lat="47.66078" lon="-2.82563">
        <ele>35.1</ele>
        <time>2020-06-06T13:33:26Z</time>
      </trkpt>
      <trkpt lat="47.66079" lon="-2.82568">
        <ele>35.2</ele>
        <time>2020-06-06T13:33:27Z</time>
      </trkpt>
      <trkpt lat="47.6608" lon="-2.82574">
        <ele>35.3</ele>
        <time>2020-06-06T13:33:28Z</time>
      </trkpt>
      <trkpt lat="47.6608" lon="-2.8258">
        <ele>35.4</ele>
        <time>2020-06-06T13:33:29Z</time>
      </trkpt>
      <trkpt lat="47.66082" lon="-2.82586">
        <ele>35.6</ele>
        <time>2020-06-06T13:33:30Z</time>
      </trkpt>
      <trkpt lat="47.66083" lon="-2.82591">
        <ele>35.7</ele>
        <time>2020-06-06T13:33:31Z</time>
      </trkpt>
      <trkpt lat="47.66085" lon="-2.82595">
        <ele>35.7</ele>
        <time>2020-06-06T13:33:32Z</time>
      </trkpt>
      <trkpt lat="47.66085" lon="-2.82601">
        <ele>35.9</ele>
        <time>2020-06-06T13:33:33Z</time>
      </trkpt>
      <trkpt lat="47.66086" lon="-2.82606">
        <ele>36</ele>
        <time>2020-06-06T13:33:34Z</time>
      </trkpt>
      <trkpt lat="47.66087" lon="-2.82611">
        <ele>36</ele>
        <time>2020-06-06T13:33:35Z</time>
      </trkpt>
      <trkpt lat="47.66088" lon="-2.82616">
        <ele>36.1</ele>
        <time>2020-06-06T13:33:36Z</time>
      </trkpt>
      <trkpt lat="47.66089" lon="-2.82622">
        <ele>36.2</ele>
        <time>2020-06-06T13:33:37Z</time>
      </trkpt>
      <trkpt lat="47.66089" lon="-2.82624">
        <ele>36.2</ele>
        <time>2020-06-06T13:33:38Z</time>
      </trkpt>
      <trkpt lat="47.6609" lon="-2.82627">
        <ele>36.3</ele>
        <time>2020-06-06T13:33:39Z</time>
      </trkpt>
      <trkpt lat="47.6609" lon="-2.82633">
        <ele>36.4</ele>
        <time>2020-06-06T13:33:40Z</time>
      </trkpt>
      <trkpt lat="47.66091" lon="-2.82638">
        <ele>36.4</ele>
        <time>2020-06-06T13:33:41Z</time>
      </trkpt>
      <trkpt lat="47.66092" lon="-2.82642">
        <ele>36.5</ele>
        <time>2020-06-06T13:33:42Z</time>
      </trkpt>
      <trkpt lat="47.66093" lon="-2.82648">
        <ele>36.5</ele>
        <time>2020-06-06T13:33:43Z</time>
      </trkpt>
      <trkpt lat="47.66094" lon="-2.82653">
        <ele>36.6</ele>
        <time>2020-06-06T13:33:44Z</time>
      </trkpt>
      <trkpt lat="47.66094" lon="-2.82658">
        <ele>36.6</ele>
        <time>2020-06-06T13:33:45Z</time>
      </trkpt>
      <trkpt lat="47.66094" lon="-2.82664">
        <ele>36.6</ele>
        <time>2020-06-06T13:33:46Z</time>
      </trkpt>
      <trkpt lat="47.66094" lon="-2.82668">
        <ele>36.6</ele>
        <time>2020-06-06T13:33:47Z</time>
      </trkpt>
      <trkpt lat="47.66095" lon="-2.82672">
        <ele>36.7</ele>
        <time>2020-06-06T13:33:48Z</time>
      </trkpt>
      <trkpt lat="47.66095" lon="-2.82674">
        <ele>36.7</ele>
        <time>2020-06-06T13:33:49Z</time>
      </trkpt>
      <trkpt lat="47.66095" lon="-2.82679">
        <ele>36.6</ele>
        <time>2020-06-06T13:33:50Z</time>
      </trkpt>
      <trkpt lat="47.66096" lon="-2.82681">
        <ele>36.6</ele>
        <time>2020-06-06T13:33:51Z</time>
      </trkpt>
      <trkpt lat="47.66096" lon="-2.82683">
        <ele>36.6</ele>
        <time>2020-06-06T13:33:52Z</time>
      </trkpt>
      <trkpt lat="47.66095" lon="-2.82682">
        <ele>36.6</ele>
        <time>2020-06-06T13:33:53Z</time>
      </trkpt>
      <trkpt lat="47.66095" lon="-2.82683">
        <ele>36.6</ele>
        <time>2020-06-06T13:33:54Z</time>
      </trkpt>
      <trkpt lat="47.66095" lon="-2.82681">
        <ele>36.6</ele>
        <time>2020-06-06T13:33:55Z</time>
      </trkpt>
      <trkpt lat="47.66095" lon="-2.8268">
        <ele>36.6</ele>
        <time>2020-06-06T13:33:56Z</time>
      </trkpt>
      <trkpt lat="47.66095" lon="-2.8268">
        <ele>36.6</ele>
        <time>2020-06-06T13:33:57Z</time>
      </trkpt>
      <trkpt lat="47.66095" lon="-2.8268">
        <ele>36.6</ele>
        <time>2020-06-06T13:33:58Z</time>
      </trkpt>
      <trkpt lat="47.66096" lon="-2.8268">
        <ele>36.6</ele>
        <time>2020-06-06T13:33:59Z</time>
      </trkpt>
      <trkpt lat="47.66096" lon="-2.82679">
        <ele>36.6</ele>
        <time>2020-06-06T13:34:00Z</time>
      </trkpt>
      <trkpt lat="47.66096" lon="-2.82679">
        <ele>36.6</ele>
        <time>2020-06-06T13:34:01Z</time>
      </trkpt>
      <trkpt lat="47.66096" lon="-2.82679">
        <ele>36.6</ele>
        <time>2020-06-06T13:34:02Z</time>
      </trkpt>
      <trkpt lat="47.66096" lon="-2.82679">
        <ele>36.6</ele>
        <time>2020-06-06T13:34:03Z</time>
      </trkpt>
      <trkpt lat="47.66096" lon="-2.82679">
        <ele>36.6</ele>
        <time>2020-06-06T13:34:04Z</time>
      </trkpt>
      <trkpt lat="47.66096" lon="-2.82678">
        <ele>36.6</ele>
        <time>2020-06-06T13:34:05Z</time>
      </trkpt>
      <trkpt lat="47.66091" lon="-2.82685">
        <ele>36.5</ele>
        <time>2020-06-06T13:35:11Z</time>
      </trkpt>
      <trkpt lat="47.66091" lon="-2.82689">
        <ele>36.5</ele>
        <time>2020-06-06T13:35:12Z</time>
      </trkpt>
      <trkpt lat="47.66092" lon="-2.82695">
        <ele>36.4</ele>
        <time>2020-06-06T13:35:13Z</time>
      </trkpt>
      <trkpt lat="47.66092" lon="-2.82697">
        <ele>36.4</ele>
        <time>2020-06-06T13:35:14Z</time>
      </trkpt>
      <trkpt lat="47.66094" lon="-2.82703">
        <ele>36.3</ele>
        <time>2020-06-06T13:35:15Z</time>
      </trkpt>
      <trkpt lat="47.66094" lon="-2.82707">
        <ele>36.2</ele>
        <time>2020-06-06T13:35:16Z</time>
      </trkpt>
      <trkpt lat="47.66094" lon="-2.82712">
        <ele>36.1</ele>
        <time>2020-06-06T13:35:17Z</time>
      </trkpt>
      <trkpt lat="47.66094" lon="-2.82714">
        <ele>36.1</ele>
        <time>2020-06-06T13:35:18Z</time>
      </trkpt>
      <trkpt lat="47.66095" lon="-2.8272">
        <ele>36</ele>
        <time>2020-06-06T13:35:19Z</time>
      </trkpt>
      <trkpt lat="47.66095" lon="-2.82725">
        <ele>35.9</ele>
        <time>2020-06-06T13:35:20Z</time>
      </trkpt>
      <trkpt lat="47.66095" lon="-2.82729">
        <ele>35.8</ele>
        <time>2020-06-06T13:35:21Z</time>
      </trkpt>
      <trkpt lat="47.66095" lon="-2.82733">
        <ele>35.7</ele>
        <time>2020-06-06T13:35:22Z</time>
      </trkpt>
      <trkpt lat="47.66095" lon="-2.82738">
        <ele>35.6</ele>
        <time>2020-06-06T13:35:23Z</time>
      </trkpt>
      <trkpt lat="47.66096" lon="-2.82744">
        <ele>35.4</ele>
        <time>2020-06-06T13:35:24Z</time>
      </trkpt>
      <trkpt lat="47.66096" lon="-2.8275">
        <ele>35.2</ele>
        <time>2020-06-06T13:35:25Z</time>
      </trkpt>
      <trkpt lat="47.66096" lon="-2.82755">
        <ele>35</ele>
        <time>2020-06-06T13:35:26Z</time>
      </trkpt>
      <trkpt lat="47.66095" lon="-2.82762">
        <ele>34.7</ele>
        <time>2020-06-06T13:35:27Z</time>
      </trkpt>
      <trkpt lat="47.66095" lon="-2.82768">
        <ele>34.5</ele>
        <time>2020-06-06T13:35:28Z</time>
      </trkpt>
      <trkpt lat="47.66095" lon="-2.82773">
        <ele>34.3</ele>
        <time>2020-06-06T13:35:29Z</time>
      </trkpt>
      <trkpt lat="47.66096" lon="-2.82778">
        <ele>34</ele>
        <time>2020-06-06T13:35:30Z</time>
      </trkpt>
      <trkpt lat="47.66096" lon="-2.82786">
        <ele>33.6</ele>
        <time>2020-06-06T13:35:31Z</time>
      </trkpt>
      <trkpt lat="47.66095" lon="-2.82793">
        <ele>33.3</ele>
        <time>2020-06-06T13:35:32Z</time>
      </trkpt>
      <trkpt lat="47.66095" lon="-2.82799">
        <ele>32.9</ele>
        <time>2020-06-06T13:35:33Z</time>
      </trkpt>
      <trkpt lat="47.66095" lon="-2.82807">
        <ele>32.4</ele>
        <time>2020-06-06T13:35:34Z</time>
      </trkpt>
      <trkpt lat="47.66095" lon="-2.82814">
        <ele>32</ele>
        <time>2020-06-06T13:35:35Z</time>
      </trkpt>
      <trkpt lat="47.66095" lon="-2.82822">
        <ele>31.5</ele>
        <time>2020-06-06T13:35:36Z</time>
      </trkpt>
      <trkpt lat="47.66094" lon="-2.82831">
        <ele>31</ele>
        <time>2020-06-06T13:35:37Z</time>
      </trkpt>
      <trkpt lat="47.66094" lon="-2.8284">
        <ele>30.5</ele>
        <time>2020-06-06T13:35:38Z</time>
      </trkpt>
      <trkpt lat="47.66094" lon="-2.82852">
        <ele>30</ele>
        <time>2020-06-06T13:35:39Z</time>
      </trkpt>
      <trkpt lat="47.66094" lon="-2.82861">
        <ele>29.6</ele>
        <time>2020-06-06T13:35:40Z</time>
      </trkpt>
      <trkpt lat="47.66094" lon="-2.82871">
        <ele>29.2</ele>
        <time>2020-06-06T13:35:41Z</time>
      </trkpt>
      <trkpt lat="47.66094" lon="-2.8288">
        <ele>28.8</ele>
        <time>2020-06-06T13:35:42Z</time>
      </trkpt>
      <trkpt lat="47.66093" lon="-2.82891">
        <ele>28.4</ele>
        <time>2020-06-06T13:35:43Z</time>
      </trkpt>
      <trkpt lat="47.66093" lon="-2.82902">
        <ele>28</ele>
        <time>2020-06-06T13:35:44Z</time>
      </trkpt>
      <trkpt lat="47.66093" lon="-2.82914">
        <ele>27.8</ele>
        <time>2020-06-06T13:35:45Z</time>
      </trkpt>
      <trkpt lat="47.66094" lon="-2.82925">
        <ele>27.6</ele>
        <time>2020-06-06T13:35:46Z</time>
      </trkpt>
      <trkpt lat="47.66096" lon="-2.82936">
        <ele>27.4</ele>
        <time>2020-06-06T13:35:47Z</time>
      </trkpt>
      <trkpt lat="47.66097" lon="-2.82947">
        <ele>27.2</ele>
        <time>2020-06-06T13:35:48Z</time>
      </trkpt>
      <trkpt lat="47.66097" lon="-2.82957">
        <ele>27.1</ele>
        <time>2020-06-06T13:35:49Z</time>
      </trkpt>
      <trkpt lat="47.66098" lon="-2.82967">
        <ele>27.1</ele>
        <time>2020-06-06T13:35:50Z</time>
      </trkpt>
      <trkpt lat="47.66098" lon="-2.82977">
        <ele>27.1</ele>
        <time>2020-06-06T13:35:51Z</time>
      </trkpt>
      <trkpt lat="47.66098" lon="-2.82987">
        <ele>27.1</ele>
        <time>2020-06-06T13:35:52Z</time>
      </trkpt>
      <trkpt lat="47.66098" lon="-2.82997">
        <ele>27.2</ele>
        <time>2020-06-06T13:35:53Z</time>
      </trkpt>
      <trkpt lat="47.66098" lon="-2.83007">
        <ele>27.4</ele>
        <time>2020-06-06T13:35:54Z</time>
      </trkpt>
      <trkpt lat="47.66099" lon="-2.83016">
        <ele>27.6</ele>
        <time>2020-06-06T13:35:55Z</time>
      </trkpt>
      <trkpt lat="47.66099" lon="-2.83026">
        <ele>27.8</ele>
        <time>2020-06-06T13:35:56Z</time>
      </trkpt>
      <trkpt lat="47.66099" lon="-2.83035">
        <ele>28</ele>
        <time>2020-06-06T13:35:57Z</time>
      </trkpt>
      <trkpt lat="47.66098" lon="-2.83044">
        <ele>28.2</ele>
        <time>2020-06-06T13:35:58Z</time>
      </trkpt>
      <trkpt lat="47.66098" lon="-2.83052">
        <ele>28.4</ele>
        <time>2020-06-06T13:35:59Z</time>
      </trkpt>
      <trkpt lat="47.66098" lon="-2.83061">
        <ele>28.7</ele>
        <time>2020-06-06T13:36:00Z</time>
      </trkpt>
      <trkpt lat="47.66097" lon="-2.83069">
        <ele>28.9</ele>
        <time>2020-06-06T13:36:01Z</time>
      </trkpt>
      <trkpt lat="47.66097" lon="-2.83077">
        <ele>29.2</ele>
        <time>2020-06-06T13:36:02Z</time>
      </trkpt>
      <trkpt lat="47.66096" lon="-2.83084">
        <ele>29.5</ele>
        <time>2020-06-06T13:36:03Z</time>
      </trkpt>
      <trkpt lat="47.66096" lon="-2.83091">
        <ele>29.8</ele>
        <time>2020-06-06T13:36:04Z</time>
      </trkpt>
      <trkpt lat="47.66097" lon="-2.83099">
        <ele>30</ele>
        <time>2020-06-06T13:36:05Z</time>
      </trkpt>
      <trkpt lat="47.66097" lon="-2.83105">
        <ele>30.3</ele>
        <time>2020-06-06T13:36:06Z</time>
      </trkpt>
      <trkpt lat="47.66097" lon="-2.83112">
        <ele>30.5</ele>
        <time>2020-06-06T13:36:07Z</time>
      </trkpt>
      <trkpt lat="47.66097" lon="-2.83119">
        <ele>30.8</ele>
        <time>2020-06-06T13:36:08Z</time>
      </trkpt>
      <trkpt lat="47.66097" lon="-2.83126">
        <ele>31</ele>
        <time>2020-06-06T13:36:09Z</time>
      </trkpt>
      <trkpt lat="47.66097" lon="-2.83133">
        <ele>31.3</ele>
        <time>2020-06-06T13:36:10Z</time>
      </trkpt>
      <trkpt lat="47.66097" lon="-2.8314">
        <ele>31.5</ele>
        <time>2020-06-06T13:36:11Z</time>
      </trkpt>
      <trkpt lat="47.66097" lon="-2.83147">
        <ele>31.7</ele>
        <time>2020-06-06T13:36:12Z</time>
      </trkpt>
      <trkpt lat="47.66097" lon="-2.83154">
        <ele>31.9</ele>
        <time>2020-06-06T13:36:13Z</time>
      </trkpt>
      <trkpt lat="47.66097" lon="-2.8316">
        <ele>32.1</ele>
        <time>2020-06-06T13:36:14Z</time>
      </trkpt>
      <trkpt lat="47.66097" lon="-2.83166">
        <ele>32.3</ele>
        <time>2020-06-06T13:36:15Z</time>
      </trkpt>
      <trkpt lat="47.66097" lon="-2.83173">
        <ele>32.5</ele>
        <time>2020-06-06T13:36:16Z</time>
      </trkpt>
      <trkpt lat="47.66097" lon="-2.83179">
        <ele>32.6</ele>
        <time>2020-06-06T13:36:17Z</time>
      </trkpt>
      <trkpt lat="47.66097" lon="-2.83184">
        <ele>32.8</ele>
        <time>2020-06-06T13:36:18Z</time>
      </trkpt>
      <trkpt lat="47.66097" lon="-2.8319">
        <ele>32.9</ele>
        <time>2020-06-06T13:36:19Z</time>
      </trkpt>
      <trkpt lat="47.66096" lon="-2.83196">
        <ele>33.1</ele>
        <time>2020-06-06T13:36:20Z</time>
      </trkpt>
      <trkpt lat="47.66096" lon="-2.83202">
        <ele>33.2</ele>
        <time>2020-06-06T13:36:21Z</time>
      </trkpt>
      <trkpt lat="47.66096" lon="-2.83209">
        <ele>33.4</ele>
        <time>2020-06-06T13:36:22Z</time>
      </trkpt>
      <trkpt lat="47.66095" lon="-2.83215">
        <ele>33.5</ele>
        <time>2020-06-06T13:36:23Z</time>
      </trkpt>
      <trkpt lat="47.66095" lon="-2.8322">
        <ele>33.7</ele>
        <time>2020-06-06T13:36:24Z</time>
      </trkpt>
      <trkpt lat="47.66095" lon="-2.83226">
        <ele>33.8</ele>
        <time>2020-06-06T13:36:25Z</time>
      </trkpt>
      <trkpt lat="47.66095" lon="-2.83232">
        <ele>34</ele>
        <time>2020-06-06T13:36:26Z</time>
      </trkpt>
      <trkpt lat="47.66094" lon="-2.83236">
        <ele>34.1</ele>
        <time>2020-06-06T13:36:27Z</time>
      </trkpt>
      <trkpt lat="47.66095" lon="-2.8324">
        <ele>34.2</ele>
        <time>2020-06-06T13:36:28Z</time>
      </trkpt>
      <trkpt lat="47.66096" lon="-2.83246">
        <ele>34.3</ele>
        <time>2020-06-06T13:36:29Z</time>
      </trkpt>
      <trkpt lat="47.66096" lon="-2.8325">
        <ele>34.4</ele>
        <time>2020-06-06T13:36:30Z</time>
      </trkpt>
      <trkpt lat="47.66097" lon="-2.83255">
        <ele>34.6</ele>
        <time>2020-06-06T13:36:31Z</time>
      </trkpt>
      <trkpt lat="47.66097" lon="-2.83261">
        <ele>34.7</ele>
        <time>2020-06-06T13:36:32Z</time>
      </trkpt>
      <trkpt lat="47.66097" lon="-2.83267">
        <ele>34.9</ele>
        <time>2020-06-06T13:36:33Z</time>
      </trkpt>
      <trkpt lat="47.66096" lon="-2.83272">
        <ele>35</ele>
        <time>2020-06-06T13:36:34Z</time>
      </trkpt>
      <trkpt lat="47.66097" lon="-2.83277">
        <ele>35.1</ele>
        <time>2020-06-06T13:36:35Z</time>
      </trkpt>
      <trkpt lat="47.66097" lon="-2.83283">
        <ele>35.3</ele>
        <time>2020-06-06T13:36:36Z</time>
      </trkpt>
      <trkpt lat="47.66097" lon="-2.83288">
        <ele>35.4</ele>
        <time>2020-06-06T13:36:37Z</time>
      </trkpt>
      <trkpt lat="47.66098" lon="-2.83293">
        <ele>35.5</ele>
        <time>2020-06-06T13:36:38Z</time>
      </trkpt>
      <trkpt lat="47.66098" lon="-2.83298">
        <ele>35.6</ele>
        <time>2020-06-06T13:36:39Z</time>
      </trkpt>
      <trkpt lat="47.66098" lon="-2.83302">
        <ele>35.7</ele>
        <time>2020-06-06T13:36:40Z</time>
      </trkpt>
      <trkpt lat="47.66097" lon="-2.83307">
        <ele>35.7</ele>
        <time>2020-06-06T13:36:41Z</time>
      </trkpt>
      <trkpt lat="47.66098" lon="-2.83312">
        <ele>35.8</ele>
        <time>2020-06-06T13:36:42Z</time>
      </trkpt>
      <trkpt lat="47.66097" lon="-2.83318">
        <ele>35.9</ele>
        <time>2020-06-06T13:36:43Z</time>
      </trkpt>
      <trkpt lat="47.66097" lon="-2.83325">
        <ele>36</ele>
        <time>2020-06-06T13:36:44Z</time>
      </trkpt>
      <trkpt lat="47.66097" lon="-2.83331">
        <ele>36.1</ele>
        <time>2020-06-06T13:36:45Z</time>
      </trkpt>
      <trkpt lat="47.66097" lon="-2.83338">
        <ele>36.2</ele>
        <time>2020-06-06T13:36:46Z</time>
      </trkpt>
      <trkpt lat="47.66097" lon="-2.83343">
        <ele>36.3</ele>
        <time>2020-06-06T13:36:47Z</time>
      </trkpt>
      <trkpt lat="47.66097" lon="-2.83349">
        <ele>36.5</ele>
        <time>2020-06-06T13:36:48Z</time>
      </trkpt>
      <trkpt lat="47.66097" lon="-2.83355">
        <ele>36.6</ele>
        <time>2020-06-06T13:36:49Z</time>
      </trkpt>
      <trkpt lat="47.66097" lon="-2.83359">
        <ele>36.7</ele>
        <time>2020-06-06T13:36:50Z</time>
      </trkpt>
      <trkpt lat="47.66097" lon="-2.83364">
        <ele>36.7</ele>
        <time>2020-06-06T13:36:51Z</time>
      </trkpt>
      <trkpt lat="47.66097" lon="-2.83368">
        <ele>36.8</ele>
        <time>2020-06-06T13:36:52Z</time>
      </trkpt>
      <trkpt lat="47.66098" lon="-2.83373">
        <ele>36.9</ele>
        <time>2020-06-06T13:36:53Z</time>
      </trkpt>
      <trkpt lat="47.66098" lon="-2.83379">
        <ele>37</ele>
        <time>2020-06-06T13:36:54Z</time>
      </trkpt>
      <trkpt lat="47.66097" lon="-2.83384">
        <ele>37.1</ele>
        <time>2020-06-06T13:36:55Z</time>
      </trkpt>
      <trkpt lat="47.66097" lon="-2.8339">
        <ele>37.2</ele>
        <time>2020-06-06T13:36:56Z</time>
      </trkpt>
      <trkpt lat="47.66097" lon="-2.83395">
        <ele>37.3</ele>
        <time>2020-06-06T13:36:57Z</time>
      </trkpt>
      <trkpt lat="47.66098" lon="-2.834">
        <ele>37.3</ele>
        <time>2020-06-06T13:36:58Z</time>
      </trkpt>
      <trkpt lat="47.66098" lon="-2.83405">
        <ele>37.4</ele>
        <time>2020-06-06T13:36:59Z</time>
      </trkpt>
      <trkpt lat="47.66098" lon="-2.83411">
        <ele>37.4</ele>
        <time>2020-06-06T13:37:00Z</time>
      </trkpt>
      <trkpt lat="47.66098" lon="-2.83417">
        <ele>37.5</ele>
        <time>2020-06-06T13:37:01Z</time>
      </trkpt>
      <trkpt lat="47.66098" lon="-2.83423">
        <ele>37.6</ele>
        <time>2020-06-06T13:37:02Z</time>
      </trkpt>
      <trkpt lat="47.66098" lon="-2.83428">
        <ele>37.6</ele>
        <time>2020-06-06T13:37:03Z</time>
      </trkpt>
      <trkpt lat="47.66097" lon="-2.83434">
        <ele>37.7</ele>
        <time>2020-06-06T13:37:04Z</time>
      </trkpt>
      <trkpt lat="47.66097" lon="-2.83441">
        <ele>37.7</ele>
        <time>2020-06-06T13:37:05Z</time>
      </trkpt>
      <trkpt lat="47.66097" lon="-2.83445">
        <ele>37.8</ele>
        <time>2020-06-06T13:37:06Z</time>
      </trkpt>
      <trkpt lat="47.66096" lon="-2.8345">
        <ele>37.8</ele>
        <time>2020-06-06T13:37:07Z</time>
      </trkpt>
      <trkpt lat="47.66095" lon="-2.83455">
        <ele>37.9</ele>
        <time>2020-06-06T13:37:08Z</time>
      </trkpt>
      <trkpt lat="47.66095" lon="-2.83461">
        <ele>37.9</ele>
        <time>2020-06-06T13:37:09Z</time>
      </trkpt>
      <trkpt lat="47.66094" lon="-2.83465">
        <ele>37.9</ele>
        <time>2020-06-06T13:37:10Z</time>
      </trkpt>
      <trkpt lat="47.66094" lon="-2.83473">
        <ele>38</ele>
        <time>2020-06-06T13:37:11Z</time>
      </trkpt>
      <trkpt lat="47.66094" lon="-2.83479">
        <ele>38</ele>
        <time>2020-06-06T13:37:12Z</time>
      </trkpt>
      <trkpt lat="47.66093" lon="-2.83484">
        <ele>38.1</ele>
        <time>2020-06-06T13:37:13Z</time>
      </trkpt>
      <trkpt lat="47.66093" lon="-2.83489">
        <ele>38.1</ele>
        <time>2020-06-06T13:37:14Z</time>
      </trkpt>
      <trkpt lat="47.66093" lon="-2.83493">
        <ele>38.1</ele>
        <time>2020-06-06T13:37:15Z</time>
      </trkpt>
      <trkpt lat="47.66093" lon="-2.83499">
        <ele>38.2</ele>
        <time>2020-06-06T13:37:16Z</time>
      </trkpt>
      <trkpt lat="47.66093" lon="-2.83504">
        <ele>38.2</ele>
        <time>2020-06-06T13:37:17Z</time>
      </trkpt>
      <trkpt lat="47.66094" lon="-2.8351">
        <ele>38.3</ele>
        <time>2020-06-06T13:37:18Z</time>
      </trkpt>
      <trkpt lat="47.66093" lon="-2.83515">
        <ele>38.3</ele>
        <time>2020-06-06T13:37:19Z</time>
      </trkpt>
      <trkpt lat="47.66093" lon="-2.83521">
        <ele>38.3</ele>
        <time>2020-06-06T13:37:20Z</time>
      </trkpt>
      <trkpt lat="47.66093" lon="-2.83525">
        <ele>38.3</ele>
        <time>2020-06-06T13:37:21Z</time>
      </trkpt>
      <trkpt lat="47.66093" lon="-2.83532">
        <ele>38.4</ele>
        <time>2020-06-06T13:37:22Z</time>
      </trkpt>
      <trkpt lat="47.66093" lon="-2.83538">
        <ele>38.3</ele>
        <time>2020-06-06T13:37:23Z</time>
      </trkpt>
      <trkpt lat="47.66093" lon="-2.83546">
        <ele>38.3</ele>
        <time>2020-06-06T13:37:24Z</time>
      </trkpt>
      <trkpt lat="47.66093" lon="-2.83553">
        <ele>38.3</ele>
        <time>2020-06-06T13:37:25Z</time>
      </trkpt>
      <trkpt lat="47.66092" lon="-2.83555">
        <ele>38.3</ele>
        <time>2020-06-06T13:37:26Z</time>
      </trkpt>
      <trkpt lat="47.66093" lon="-2.83561">
        <ele>38.3</ele>
        <time>2020-06-06T13:37:27Z</time>
      </trkpt>
      <trkpt lat="47.66093" lon="-2.83567">
        <ele>38.3</ele>
        <time>2020-06-06T13:37:28Z</time>
      </trkpt>
      <trkpt lat="47.66093" lon="-2.83575">
        <ele>38.3</ele>
        <time>2020-06-06T13:37:29Z</time>
      </trkpt>
      <trkpt lat="47.66093" lon="-2.83581">
        <ele>38.3</ele>
        <time>2020-06-06T13:37:30Z</time>
      </trkpt>
      <trkpt lat="47.66093" lon="-2.83588">
        <ele>38.3</ele>
        <time>2020-06-06T13:37:31Z</time>
      </trkpt>
      <trkpt lat="47.66092" lon="-2.83593">
        <ele>38.3</ele>
        <time>2020-06-06T13:37:32Z</time>
      </trkpt>
      <trkpt lat="47.66092" lon="-2.836">
        <ele>38.3</ele>
        <time>2020-06-06T13:37:33Z</time>
      </trkpt>
      <trkpt lat="47.66091" lon="-2.83606">
        <ele>38.3</ele>
        <time>2020-06-06T13:37:34Z</time>
      </trkpt>
      <trkpt lat="47.66091" lon="-2.83613">
        <ele>38.3</ele>
        <time>2020-06-06T13:37:35Z</time>
      </trkpt>
      <trkpt lat="47.66091" lon="-2.8362">
        <ele>38.3</ele>
        <time>2020-06-06T13:37:36Z</time>
      </trkpt>
      <trkpt lat="47.6609" lon="-2.83626">
        <ele>38.3</ele>
        <time>2020-06-06T13:37:37Z</time>
      </trkpt>
      <trkpt lat="47.6609" lon="-2.83632">
        <ele>38.3</ele>
        <time>2020-06-06T13:37:38Z</time>
      </trkpt>
      <trkpt lat="47.6609" lon="-2.83638">
        <ele>38.3</ele>
        <time>2020-06-06T13:37:39Z</time>
      </trkpt>
      <trkpt lat="47.6609" lon="-2.83644">
        <ele>38.2</ele>
        <time>2020-06-06T13:37:40Z</time>
      </trkpt>
      <trkpt lat="47.6609" lon="-2.83651">
        <ele>38.2</ele>
        <time>2020-06-06T13:37:41Z</time>
      </trkpt>
      <trkpt lat="47.6609" lon="-2.83658">
        <ele>38.2</ele>
        <time>2020-06-06T13:37:42Z</time>
      </trkpt>
      <trkpt lat="47.66089" lon="-2.83665">
        <ele>38.2</ele>
        <time>2020-06-06T13:37:43Z</time>
      </trkpt>
      <trkpt lat="47.66089" lon="-2.83673">
        <ele>38.1</ele>
        <time>2020-06-06T13:37:44Z</time>
      </trkpt>
      <trkpt lat="47.66089" lon="-2.83681">
        <ele>38.1</ele>
        <time>2020-06-06T13:37:45Z</time>
      </trkpt>
      <trkpt lat="47.66089" lon="-2.83688">
        <ele>38.1</ele>
        <time>2020-06-06T13:37:46Z</time>
      </trkpt>
      <trkpt lat="47.66089" lon="-2.83694">
        <ele>38.1</ele>
        <time>2020-06-06T13:37:47Z</time>
      </trkpt>
      <trkpt lat="47.66089" lon="-2.83701">
        <ele>38.1</ele>
        <time>2020-06-06T13:37:48Z</time>
      </trkpt>
      <trkpt lat="47.66089" lon="-2.83709">
        <ele>38.1</ele>
        <time>2020-06-06T13:37:49Z</time>
      </trkpt>
      <trkpt lat="47.66089" lon="-2.83716">
        <ele>38.1</ele>
        <time>2020-06-06T13:37:50Z</time>
      </trkpt>
      <trkpt lat="47.66089" lon="-2.83723">
        <ele>38</ele>
        <time>2020-06-06T13:37:51Z</time>
      </trkpt>
      <trkpt lat="47.66088" lon="-2.83728">
        <ele>38</ele>
        <time>2020-06-06T13:37:52Z</time>
      </trkpt>
      <trkpt lat="47.66088" lon="-2.83734">
        <ele>38</ele>
        <time>2020-06-06T13:37:53Z</time>
      </trkpt>
      <trkpt lat="47.66087" lon="-2.83738">
        <ele>38</ele>
        <time>2020-06-06T13:37:54Z</time>
      </trkpt>
      <trkpt lat="47.66087" lon="-2.83745">
        <ele>37.9</ele>
        <time>2020-06-06T13:37:55Z</time>
      </trkpt>
      <trkpt lat="47.66087" lon="-2.83752">
        <ele>37.9</ele>
        <time>2020-06-06T13:37:56Z</time>
      </trkpt>
      <trkpt lat="47.66087" lon="-2.83758">
        <ele>37.9</ele>
        <time>2020-06-06T13:37:57Z</time>
      </trkpt>
      <trkpt lat="47.66088" lon="-2.83764">
        <ele>37.8</ele>
        <time>2020-06-06T13:37:58Z</time>
      </trkpt>
      <trkpt lat="47.66089" lon="-2.83769">
        <ele>37.8</ele>
        <time>2020-06-06T13:37:59Z</time>
      </trkpt>
      <trkpt lat="47.66088" lon="-2.83776">
        <ele>37.8</ele>
        <time>2020-06-06T13:38:00Z</time>
      </trkpt>
      <trkpt lat="47.66089" lon="-2.83782">
        <ele>37.8</ele>
        <time>2020-06-06T13:38:01Z</time>
      </trkpt>
      <trkpt lat="47.66089" lon="-2.83788">
        <ele>37.7</ele>
        <time>2020-06-06T13:38:02Z</time>
      </trkpt>
      <trkpt lat="47.66088" lon="-2.83795">
        <ele>37.7</ele>
        <time>2020-06-06T13:38:03Z</time>
      </trkpt>
      <trkpt lat="47.66089" lon="-2.83802">
        <ele>37.7</ele>
        <time>2020-06-06T13:38:04Z</time>
      </trkpt>
      <trkpt lat="47.66089" lon="-2.83809">
        <ele>37.7</ele>
        <time>2020-06-06T13:38:05Z</time>
      </trkpt>
      <trkpt lat="47.66089" lon="-2.83816">
        <ele>37.6</ele>
        <time>2020-06-06T13:38:06Z</time>
      </trkpt>
      <trkpt lat="47.66089" lon="-2.83822">
        <ele>37.6</ele>
        <time>2020-06-06T13:38:07Z</time>
      </trkpt>
      <trkpt lat="47.66089" lon="-2.83829">
        <ele>37.6</ele>
        <time>2020-06-06T13:38:08Z</time>
      </trkpt>
      <trkpt lat="47.66089" lon="-2.83833">
        <ele>37.6</ele>
        <time>2020-06-06T13:38:09Z</time>
      </trkpt>
      <trkpt lat="47.66089" lon="-2.83838">
        <ele>37.6</ele>
        <time>2020-06-06T13:38:10Z</time>
      </trkpt>
      <trkpt lat="47.66089" lon="-2.83844">
        <ele>37.6</ele>
        <time>2020-06-06T13:38:11Z</time>
      </trkpt>
      <trkpt lat="47.66089" lon="-2.8385">
        <ele>37.5</ele>
        <time>2020-06-06T13:38:12Z</time>
      </trkpt>
      <trkpt lat="47.66089" lon="-2.83856">
        <ele>37.5</ele>
        <time>2020-06-06T13:38:13Z</time>
      </trkpt>
      <trkpt lat="47.66089" lon="-2.83865">
        <ele>37.5</ele>
        <time>2020-06-06T13:38:14Z</time>
      </trkpt>
      <trkpt lat="47.66089" lon="-2.83871">
        <ele>37.4</ele>
        <time>2020-06-06T13:38:15Z</time>
      </trkpt>
      <trkpt lat="47.66089" lon="-2.83877">
        <ele>37.4</ele>
        <time>2020-06-06T13:38:16Z</time>
      </trkpt>
      <trkpt lat="47.66089" lon="-2.83884">
        <ele>37.4</ele>
        <time>2020-06-06T13:38:17Z</time>
      </trkpt>
      <trkpt lat="47.66089" lon="-2.8389">
        <ele>37.4</ele>
        <time>2020-06-06T13:38:18Z</time>
      </trkpt>
      <trkpt lat="47.66089" lon="-2.83897">
        <ele>37.4</ele>
        <time>2020-06-06T13:38:19Z</time>
      </trkpt>
      <trkpt lat="47.6609" lon="-2.83904">
        <ele>37.3</ele>
        <time>2020-06-06T13:38:20Z</time>
      </trkpt>
      <trkpt lat="47.6609" lon="-2.83911">
        <ele>37.3</ele>
        <time>2020-06-06T13:38:21Z</time>
      </trkpt>
      <trkpt lat="47.6609" lon="-2.83918">
        <ele>37.3</ele>
        <time>2020-06-06T13:38:22Z</time>
      </trkpt>
      <trkpt lat="47.6609" lon="-2.83926">
        <ele>37.2</ele>
        <time>2020-06-06T13:38:23Z</time>
      </trkpt>
      <trkpt lat="47.6609" lon="-2.83933">
        <ele>37.2</ele>
        <time>2020-06-06T13:38:24Z</time>
      </trkpt>
      <trkpt lat="47.6609" lon="-2.83939">
        <ele>37.2</ele>
        <time>2020-06-06T13:38:25Z</time>
      </trkpt>
      <trkpt lat="47.66089" lon="-2.83946">
        <ele>37.2</ele>
        <time>2020-06-06T13:38:26Z</time>
      </trkpt>
      <trkpt lat="47.66087" lon="-2.83951">
        <ele>37.2</ele>
        <time>2020-06-06T13:38:27Z</time>
      </trkpt>
      <trkpt lat="47.66087" lon="-2.83959">
        <ele>37.2</ele>
        <time>2020-06-06T13:38:28Z</time>
      </trkpt>
      <trkpt lat="47.66087" lon="-2.83966">
        <ele>37.1</ele>
        <time>2020-06-06T13:38:29Z</time>
      </trkpt>
      <trkpt lat="47.66087" lon="-2.83975">
        <ele>37.1</ele>
        <time>2020-06-06T13:38:30Z</time>
      </trkpt>
      <trkpt lat="47.66087" lon="-2.83982">
        <ele>37</ele>
        <time>2020-06-06T13:38:31Z</time>
      </trkpt>
      <trkpt lat="47.66087" lon="-2.83989">
        <ele>37</ele>
        <time>2020-06-06T13:38:32Z</time>
      </trkpt>
      <trkpt lat="47.66086" lon="-2.83996">
        <ele>37</ele>
        <time>2020-06-06T13:38:33Z</time>
      </trkpt>
      <trkpt lat="47.66086" lon="-2.84004">
        <ele>37</ele>
        <time>2020-06-06T13:38:34Z</time>
      </trkpt>
      <trkpt lat="47.66086" lon="-2.84012">
        <ele>36.9</ele>
        <time>2020-06-06T13:38:35Z</time>
      </trkpt>
      <trkpt lat="47.66086" lon="-2.84019">
        <ele>36.9</ele>
        <time>2020-06-06T13:38:36Z</time>
      </trkpt>
      <trkpt lat="47.66087" lon="-2.84026">
        <ele>36.9</ele>
        <time>2020-06-06T13:38:37Z</time>
      </trkpt>
      <trkpt lat="47.66087" lon="-2.84032">
        <ele>36.9</ele>
        <time>2020-06-06T13:38:38Z</time>
      </trkpt>
      <trkpt lat="47.66087" lon="-2.8404">
        <ele>36.9</ele>
        <time>2020-06-06T13:38:39Z</time>
      </trkpt>
      <trkpt lat="47.66087" lon="-2.84048">
        <ele>36.9</ele>
        <time>2020-06-06T13:38:40Z</time>
      </trkpt>
      <trkpt lat="47.66087" lon="-2.84056">
        <ele>36.9</ele>
        <time>2020-06-06T13:38:41Z</time>
      </trkpt>
      <trkpt lat="47.66087" lon="-2.84062">
        <ele>36.9</ele>
        <time>2020-06-06T13:38:42Z</time>
      </trkpt>
      <trkpt lat="47.66087" lon="-2.84069">
        <ele>36.9</ele>
        <time>2020-06-06T13:38:43Z</time>
      </trkpt>
      <trkpt lat="47.66086" lon="-2.84076">
        <ele>36.9</ele>
        <time>2020-06-06T13:38:44Z</time>
      </trkpt>
      <trkpt lat="47.66086" lon="-2.84084">
        <ele>36.9</ele>
        <time>2020-06-06T13:38:45Z</time>
      </trkpt>
      <trkpt lat="47.66086" lon="-2.8409">
        <ele>36.9</ele>
        <time>2020-06-06T13:38:46Z</time>
      </trkpt>
      <trkpt lat="47.66086" lon="-2.84097">
        <ele>36.8</ele>
        <time>2020-06-06T13:38:47Z</time>
      </trkpt>
      <trkpt lat="47.66086" lon="-2.84105">
        <ele>36.8</ele>
        <time>2020-06-06T13:38:48Z</time>
      </trkpt>
      <trkpt lat="47.66085" lon="-2.84112">
        <ele>36.8</ele>
        <time>2020-06-06T13:38:49Z</time>
      </trkpt>
      <trkpt lat="47.66085" lon="-2.84118">
        <ele>36.8</ele>
        <time>2020-06-06T13:38:50Z</time>
      </trkpt>
      <trkpt lat="47.66084" lon="-2.84125">
        <ele>36.8</ele>
        <time>2020-06-06T13:38:51Z</time>
      </trkpt>
      <trkpt lat="47.66083" lon="-2.84131">
        <ele>36.8</ele>
        <time>2020-06-06T13:38:52Z</time>
      </trkpt>
      <trkpt lat="47.66083" lon="-2.84137">
        <ele>36.8</ele>
        <time>2020-06-06T13:38:53Z</time>
      </trkpt>
      <trkpt lat="47.66082" lon="-2.84143">
        <ele>36.8</ele>
        <time>2020-06-06T13:38:54Z</time>
      </trkpt>
      <trkpt lat="47.66082" lon="-2.84149">
        <ele>36.8</ele>
        <time>2020-06-06T13:38:55Z</time>
      </trkpt>
      <trkpt lat="47.66082" lon="-2.84156">
        <ele>36.8</ele>
        <time>2020-06-06T13:38:56Z</time>
      </trkpt>
      <trkpt lat="47.66082" lon="-2.84165">
        <ele>36.8</ele>
        <time>2020-06-06T13:38:57Z</time>
      </trkpt>
      <trkpt lat="47.66081" lon="-2.84173">
        <ele>36.8</ele>
        <time>2020-06-06T13:38:58Z</time>
      </trkpt>
      <trkpt lat="47.6608" lon="-2.8418">
        <ele>36.9</ele>
        <time>2020-06-06T13:38:59Z</time>
      </trkpt>
      <trkpt lat="47.66081" lon="-2.8419">
        <ele>36.9</ele>
        <time>2020-06-06T13:39:00Z</time>
      </trkpt>
      <trkpt lat="47.66081" lon="-2.842">
        <ele>36.9</ele>
        <time>2020-06-06T13:39:01Z</time>
      </trkpt>
      <trkpt lat="47.66082" lon="-2.84207">
        <ele>36.9</ele>
        <time>2020-06-06T13:39:02Z</time>
      </trkpt>
      <trkpt lat="47.66081" lon="-2.84215">
        <ele>36.9</ele>
        <time>2020-06-06T13:39:03Z</time>
      </trkpt>
      <trkpt lat="47.66081" lon="-2.84221">
        <ele>37</ele>
        <time>2020-06-06T13:39:04Z</time>
      </trkpt>
      <trkpt lat="47.66081" lon="-2.84226">
        <ele>37</ele>
        <time>2020-06-06T13:39:05Z</time>
      </trkpt>
      <trkpt lat="47.66081" lon="-2.84233">
        <ele>37</ele>
        <time>2020-06-06T13:39:06Z</time>
      </trkpt>
      <trkpt lat="47.66081" lon="-2.8424">
        <ele>37</ele>
        <time>2020-06-06T13:39:07Z</time>
      </trkpt>
      <trkpt lat="47.66081" lon="-2.84245">
        <ele>37</ele>
        <time>2020-06-06T13:39:08Z</time>
      </trkpt>
      <trkpt lat="47.66081" lon="-2.8425">
        <ele>37.1</ele>
        <time>2020-06-06T13:39:09Z</time>
      </trkpt>
      <trkpt lat="47.6608" lon="-2.84255">
        <ele>37.1</ele>
        <time>2020-06-06T13:39:10Z</time>
      </trkpt>
      <trkpt lat="47.6608" lon="-2.8426">
        <ele>37.1</ele>
        <time>2020-06-06T13:39:11Z</time>
      </trkpt>
      <trkpt lat="47.6608" lon="-2.84266">
        <ele>37.1</ele>
        <time>2020-06-06T13:39:12Z</time>
      </trkpt>
      <trkpt lat="47.6608" lon="-2.84273">
        <ele>37.2</ele>
        <time>2020-06-06T13:39:13Z</time>
      </trkpt>
      <trkpt lat="47.66079" lon="-2.84281">
        <ele>37.2</ele>
        <time>2020-06-06T13:39:14Z</time>
      </trkpt>
      <trkpt lat="47.66078" lon="-2.84287">
        <ele>37.3</ele>
        <time>2020-06-06T13:39:15Z</time>
      </trkpt>
      <trkpt lat="47.66077" lon="-2.84293">
        <ele>37.3</ele>
        <time>2020-06-06T13:39:16Z</time>
      </trkpt>
      <trkpt lat="47.66077" lon="-2.84301">
        <ele>37.3</ele>
        <time>2020-06-06T13:39:17Z</time>
      </trkpt>
      <trkpt lat="47.66077" lon="-2.84308">
        <ele>37.3</ele>
        <time>2020-06-06T13:39:18Z</time>
      </trkpt>
      <trkpt lat="47.66077" lon="-2.84314">
        <ele>37.2</ele>
        <time>2020-06-06T13:39:19Z</time>
      </trkpt>
      <trkpt lat="47.66077" lon="-2.84321">
        <ele>37.2</ele>
        <time>2020-06-06T13:39:20Z</time>
      </trkpt>
      <trkpt lat="47.66076" lon="-2.84327">
        <ele>37.2</ele>
        <time>2020-06-06T13:39:21Z</time>
      </trkpt>
      <trkpt lat="47.66077" lon="-2.84334">
        <ele>37.2</ele>
        <time>2020-06-06T13:39:22Z</time>
      </trkpt>
      <trkpt lat="47.66077" lon="-2.8434">
        <ele>37.2</ele>
        <time>2020-06-06T13:39:23Z</time>
      </trkpt>
      <trkpt lat="47.66077" lon="-2.84347">
        <ele>37.2</ele>
        <time>2020-06-06T13:39:24Z</time>
      </trkpt>
      <trkpt lat="47.66077" lon="-2.84354">
        <ele>37.2</ele>
        <time>2020-06-06T13:39:25Z</time>
      </trkpt>
      <trkpt lat="47.66077" lon="-2.8436">
        <ele>37.2</ele>
        <time>2020-06-06T13:39:26Z</time>
      </trkpt>
      <trkpt lat="47.66077" lon="-2.84365">
        <ele>37.2</ele>
        <time>2020-06-06T13:39:27Z</time>
      </trkpt>
      <trkpt lat="47.66077" lon="-2.84372">
        <ele>37.3</ele>
        <time>2020-06-06T13:39:28Z</time>
      </trkpt>
      <trkpt lat="47.66076" lon="-2.84377">
        <ele>37.3</ele>
        <time>2020-06-06T13:39:29Z</time>
      </trkpt>
      <trkpt lat="47.66076" lon="-2.84384">
        <ele>37.3</ele>
        <time>2020-06-06T13:39:30Z</time>
      </trkpt>
      <trkpt lat="47.66076" lon="-2.84389">
        <ele>37.3</ele>
        <time>2020-06-06T13:39:31Z</time>
      </trkpt>
      <trkpt lat="47.66076" lon="-2.84395">
        <ele>37.4</ele>
        <time>2020-06-06T13:39:32Z</time>
      </trkpt>
      <trkpt lat="47.66076" lon="-2.844">
        <ele>37.4</ele>
        <time>2020-06-06T13:39:33Z</time>
      </trkpt>
      <trkpt lat="47.66076" lon="-2.84409">
        <ele>37.4</ele>
        <time>2020-06-06T13:39:34Z</time>
      </trkpt>
      <trkpt lat="47.66076" lon="-2.84415">
        <ele>37.5</ele>
        <time>2020-06-06T13:39:35Z</time>
      </trkpt>
      <trkpt lat="47.66076" lon="-2.84422">
        <ele>37.5</ele>
        <time>2020-06-06T13:39:36Z</time>
      </trkpt>
      <trkpt lat="47.66076" lon="-2.84429">
        <ele>37.6</ele>
        <time>2020-06-06T13:39:37Z</time>
      </trkpt>
      <trkpt lat="47.66075" lon="-2.84436">
        <ele>37.6</ele>
        <time>2020-06-06T13:39:38Z</time>
      </trkpt>
      <trkpt lat="47.66075" lon="-2.84443">
        <ele>37.6</ele>
        <time>2020-06-06T13:39:39Z</time>
      </trkpt>
      <trkpt lat="47.66075" lon="-2.84448">
        <ele>37.7</ele>
        <time>2020-06-06T13:39:40Z</time>
      </trkpt>
      <trkpt lat="47.66075" lon="-2.84454">
        <ele>37.7</ele>
        <time>2020-06-06T13:39:41Z</time>
      </trkpt>
      <trkpt lat="47.66075" lon="-2.84461">
        <ele>37.7</ele>
        <time>2020-06-06T13:39:42Z</time>
      </trkpt>
      <trkpt lat="47.66074" lon="-2.84468">
        <ele>37.8</ele>
        <time>2020-06-06T13:39:43Z</time>
      </trkpt>
      <trkpt lat="47.66074" lon="-2.84475">
        <ele>37.9</ele>
        <time>2020-06-06T13:39:44Z</time>
      </trkpt>
      <trkpt lat="47.66074" lon="-2.84482">
        <ele>37.9</ele>
        <time>2020-06-06T13:39:45Z</time>
      </trkpt>
      <trkpt lat="47.66074" lon="-2.84487">
        <ele>38</ele>
        <time>2020-06-06T13:39:46Z</time>
      </trkpt>
      <trkpt lat="47.66075" lon="-2.84494">
        <ele>38</ele>
        <time>2020-06-06T13:39:47Z</time>
      </trkpt>
      <trkpt lat="47.66075" lon="-2.845">
        <ele>38.1</ele>
        <time>2020-06-06T13:39:48Z</time>
      </trkpt>
      <trkpt lat="47.66076" lon="-2.84506">
        <ele>38.2</ele>
        <time>2020-06-06T13:39:49Z</time>
      </trkpt>
      <trkpt lat="47.66076" lon="-2.84512">
        <ele>38.2</ele>
        <time>2020-06-06T13:39:50Z</time>
      </trkpt>
      <trkpt lat="47.66076" lon="-2.84517">
        <ele>38.3</ele>
        <time>2020-06-06T13:39:51Z</time>
      </trkpt>
      <trkpt lat="47.66076" lon="-2.84523">
        <ele>38.3</ele>
        <time>2020-06-06T13:39:52Z</time>
      </trkpt>
      <trkpt lat="47.66076" lon="-2.8453">
        <ele>38.4</ele>
        <time>2020-06-06T13:39:53Z</time>
      </trkpt>
      <trkpt lat="47.66076" lon="-2.84535">
        <ele>38.4</ele>
        <time>2020-06-06T13:39:54Z</time>
      </trkpt>
      <trkpt lat="47.66076" lon="-2.8454">
        <ele>38.5</ele>
        <time>2020-06-06T13:39:55Z</time>
      </trkpt>
      <trkpt lat="47.66076" lon="-2.84546">
        <ele>38.5</ele>
        <time>2020-06-06T13:39:56Z</time>
      </trkpt>
      <trkpt lat="47.66076" lon="-2.84551">
        <ele>38.6</ele>
        <time>2020-06-06T13:39:57Z</time>
      </trkpt>
      <trkpt lat="47.66076" lon="-2.84558">
        <ele>38.7</ele>
        <time>2020-06-06T13:39:58Z</time>
      </trkpt>
      <trkpt lat="47.66076" lon="-2.84564">
        <ele>38.7</ele>
        <time>2020-06-06T13:39:59Z</time>
      </trkpt>
      <trkpt lat="47.66076" lon="-2.84571">
        <ele>38.8</ele>
        <time>2020-06-06T13:40:00Z</time>
      </trkpt>
      <trkpt lat="47.66075" lon="-2.84574">
        <ele>38.8</ele>
        <time>2020-06-06T13:40:01Z</time>
      </trkpt>
      <trkpt lat="47.66075" lon="-2.84581">
        <ele>38.9</ele>
        <time>2020-06-06T13:40:02Z</time>
      </trkpt>
      <trkpt lat="47.66075" lon="-2.84587">
        <ele>39</ele>
        <time>2020-06-06T13:40:03Z</time>
      </trkpt>
      <trkpt lat="47.66075" lon="-2.84594">
        <ele>39.1</ele>
        <time>2020-06-06T13:40:04Z</time>
      </trkpt>
      <trkpt lat="47.66074" lon="-2.84599">
        <ele>39.1</ele>
        <time>2020-06-06T13:40:05Z</time>
      </trkpt>
      <trkpt lat="47.66074" lon="-2.84604">
        <ele>39.2</ele>
        <time>2020-06-06T13:40:06Z</time>
      </trkpt>
      <trkpt lat="47.66073" lon="-2.84609">
        <ele>39.2</ele>
        <time>2020-06-06T13:40:07Z</time>
      </trkpt>
      <trkpt lat="47.66073" lon="-2.84615">
        <ele>39.3</ele>
        <time>2020-06-06T13:40:08Z</time>
      </trkpt>
      <trkpt lat="47.66073" lon="-2.84621">
        <ele>39.3</ele>
        <time>2020-06-06T13:40:09Z</time>
      </trkpt>
      <trkpt lat="47.66073" lon="-2.84627">
        <ele>39.4</ele>
        <time>2020-06-06T13:40:10Z</time>
      </trkpt>
      <trkpt lat="47.66072" lon="-2.84632">
        <ele>39.5</ele>
        <time>2020-06-06T13:40:11Z</time>
      </trkpt>
      <trkpt lat="47.66072" lon="-2.84638">
        <ele>39.5</ele>
        <time>2020-06-06T13:40:12Z</time>
      </trkpt>
      <trkpt lat="47.66072" lon="-2.84643">
        <ele>39.6</ele>
        <time>2020-06-06T13:40:13Z</time>
      </trkpt>
      <trkpt lat="47.66073" lon="-2.8465">
        <ele>39.7</ele>
        <time>2020-06-06T13:40:14Z</time>
      </trkpt>
      <trkpt lat="47.66073" lon="-2.84656">
        <ele>39.8</ele>
        <time>2020-06-06T13:40:15Z</time>
      </trkpt>
      <trkpt lat="47.66073" lon="-2.84662">
        <ele>39.9</ele>
        <time>2020-06-06T13:40:16Z</time>
      </trkpt>
      <trkpt lat="47.66073" lon="-2.84667">
        <ele>40</ele>
        <time>2020-06-06T13:40:17Z</time>
      </trkpt>
      <trkpt lat="47.66073" lon="-2.84672">
        <ele>40</ele>
        <time>2020-06-06T13:40:18Z</time>
      </trkpt>
      <trkpt lat="47.66072" lon="-2.84676">
        <ele>40.1</ele>
        <time>2020-06-06T13:40:19Z</time>
      </trkpt>
      <trkpt lat="47.66072" lon="-2.84681">
        <ele>40.1</ele>
        <time>2020-06-06T13:40:20Z</time>
      </trkpt>
      <trkpt lat="47.66072" lon="-2.84686">
        <ele>40.2</ele>
        <time>2020-06-06T13:40:21Z</time>
      </trkpt>
      <trkpt lat="47.66072" lon="-2.84692">
        <ele>40.3</ele>
        <time>2020-06-06T13:40:22Z</time>
      </trkpt>
      <trkpt lat="47.66072" lon="-2.84698">
        <ele>40.3</ele>
        <time>2020-06-06T13:40:23Z</time>
      </trkpt>
      <trkpt lat="47.66072" lon="-2.84703">
        <ele>40.4</ele>
        <time>2020-06-06T13:40:24Z</time>
      </trkpt>
      <trkpt lat="47.66071" lon="-2.84708">
        <ele>40.4</ele>
        <time>2020-06-06T13:40:25Z</time>
      </trkpt>
      <trkpt lat="47.66071" lon="-2.84713">
        <ele>40.5</ele>
        <time>2020-06-06T13:40:26Z</time>
      </trkpt>
      <trkpt lat="47.6607" lon="-2.84719">
        <ele>40.5</ele>
        <time>2020-06-06T13:40:27Z</time>
      </trkpt>
      <trkpt lat="47.6607" lon="-2.84726">
        <ele>40.6</ele>
        <time>2020-06-06T13:40:28Z</time>
      </trkpt>
      <trkpt lat="47.66069" lon="-2.84732">
        <ele>40.7</ele>
        <time>2020-06-06T13:40:29Z</time>
      </trkpt>
      <trkpt lat="47.66069" lon="-2.84735">
        <ele>40.7</ele>
        <time>2020-06-06T13:40:30Z</time>
      </trkpt>
      <trkpt lat="47.66069" lon="-2.84741">
        <ele>40.8</ele>
        <time>2020-06-06T13:40:31Z</time>
      </trkpt>
      <trkpt lat="47.66068" lon="-2.84747">
        <ele>40.9</ele>
        <time>2020-06-06T13:40:32Z</time>
      </trkpt>
      <trkpt lat="47.66068" lon="-2.84751">
        <ele>41</ele>
        <time>2020-06-06T13:40:33Z</time>
      </trkpt>
      <trkpt lat="47.66068" lon="-2.84757">
        <ele>41.1</ele>
        <time>2020-06-06T13:40:34Z</time>
      </trkpt>
      <trkpt lat="47.66067" lon="-2.84763">
        <ele>41.2</ele>
        <time>2020-06-06T13:40:35Z</time>
      </trkpt>
      <trkpt lat="47.66067" lon="-2.84771">
        <ele>41.3</ele>
        <time>2020-06-06T13:40:36Z</time>
      </trkpt>
      <trkpt lat="47.66067" lon="-2.84779">
        <ele>41.5</ele>
        <time>2020-06-06T13:40:37Z</time>
      </trkpt>
      <trkpt lat="47.66067" lon="-2.84784">
        <ele>41.5</ele>
        <time>2020-06-06T13:40:38Z</time>
      </trkpt>
      <trkpt lat="47.66067" lon="-2.8479">
        <ele>41.7</ele>
        <time>2020-06-06T13:40:39Z</time>
      </trkpt>
      <trkpt lat="47.66067" lon="-2.84793">
        <ele>41.7</ele>
        <time>2020-06-06T13:40:40Z</time>
      </trkpt>
      <trkpt lat="47.66067" lon="-2.84799">
        <ele>41.8</ele>
        <time>2020-06-06T13:40:41Z</time>
      </trkpt>
      <trkpt lat="47.66067" lon="-2.84805">
        <ele>41.9</ele>
        <time>2020-06-06T13:40:42Z</time>
      </trkpt>
      <trkpt lat="47.66067" lon="-2.84811">
        <ele>42</ele>
        <time>2020-06-06T13:40:43Z</time>
      </trkpt>
      <trkpt lat="47.66067" lon="-2.84818">
        <ele>42</ele>
        <time>2020-06-06T13:40:44Z</time>
      </trkpt>
      <trkpt lat="47.66068" lon="-2.84823">
        <ele>42.1</ele>
        <time>2020-06-06T13:40:45Z</time>
      </trkpt>
      <trkpt lat="47.66068" lon="-2.8483">
        <ele>42.2</ele>
        <time>2020-06-06T13:40:46Z</time>
      </trkpt>
      <trkpt lat="47.66069" lon="-2.84837">
        <ele>42.2</ele>
        <time>2020-06-06T13:40:47Z</time>
      </trkpt>
      <trkpt lat="47.66069" lon="-2.84843">
        <ele>42.3</ele>
        <time>2020-06-06T13:40:48Z</time>
      </trkpt>
      <trkpt lat="47.66069" lon="-2.84849">
        <ele>42.4</ele>
        <time>2020-06-06T13:40:49Z</time>
      </trkpt>
      <trkpt lat="47.66069" lon="-2.84855">
        <ele>42.4</ele>
        <time>2020-06-06T13:40:50Z</time>
      </trkpt>
      <trkpt lat="47.66069" lon="-2.84862">
        <ele>42.5</ele>
        <time>2020-06-06T13:40:51Z</time>
      </trkpt>
      <trkpt lat="47.66069" lon="-2.84867">
        <ele>42.6</ele>
        <time>2020-06-06T13:40:52Z</time>
      </trkpt>
      <trkpt lat="47.66068" lon="-2.84873">
        <ele>42.7</ele>
        <time>2020-06-06T13:40:53Z</time>
      </trkpt>
      <trkpt lat="47.66069" lon="-2.84879">
        <ele>42.8</ele>
        <time>2020-06-06T13:40:54Z</time>
      </trkpt>
      <trkpt lat="47.66068" lon="-2.84886">
        <ele>42.9</ele>
        <time>2020-06-06T13:40:55Z</time>
      </trkpt>
      <trkpt lat="47.66068" lon="-2.84893">
        <ele>43.1</ele>
        <time>2020-06-06T13:40:56Z</time>
      </trkpt>
      <trkpt lat="47.66068" lon="-2.849">
        <ele>43.2</ele>
        <time>2020-06-06T13:40:57Z</time>
      </trkpt>
      <trkpt lat="47.66068" lon="-2.84906">
        <ele>43.4</ele>
        <time>2020-06-06T13:40:58Z</time>
      </trkpt>
      <trkpt lat="47.66068" lon="-2.84913">
        <ele>43.5</ele>
        <time>2020-06-06T13:40:59Z</time>
      </trkpt>
      <trkpt lat="47.66067" lon="-2.84918">
        <ele>43.6</ele>
        <time>2020-06-06T13:41:00Z</time>
      </trkpt>
      <trkpt lat="47.66067" lon="-2.84925">
        <ele>43.7</ele>
        <time>2020-06-06T13:41:01Z</time>
      </trkpt>
      <trkpt lat="47.66066" lon="-2.84933">
        <ele>43.9</ele>
        <time>2020-06-06T13:41:02Z</time>
      </trkpt>
      <trkpt lat="47.66066" lon="-2.8494">
        <ele>44.1</ele>
        <time>2020-06-06T13:41:03Z</time>
      </trkpt>
      <trkpt lat="47.66065" lon="-2.84947">
        <ele>44.2</ele>
        <time>2020-06-06T13:41:04Z</time>
      </trkpt>
      <trkpt lat="47.66065" lon="-2.84955">
        <ele>44.4</ele>
        <time>2020-06-06T13:41:05Z</time>
      </trkpt>
      <trkpt lat="47.66066" lon="-2.84962">
        <ele>44.5</ele>
        <time>2020-06-06T13:41:06Z</time>
      </trkpt>
      <trkpt lat="47.66066" lon="-2.84968">
        <ele>44.6</ele>
        <time>2020-06-06T13:41:07Z</time>
      </trkpt>
      <trkpt lat="47.66065" lon="-2.84974">
        <ele>44.8</ele>
        <time>2020-06-06T13:41:08Z</time>
      </trkpt>
      <trkpt lat="47.66065" lon="-2.84981">
        <ele>44.9</ele>
        <time>2020-06-06T13:41:09Z</time>
      </trkpt>
      <trkpt lat="47.66065" lon="-2.84987">
        <ele>45</ele>
        <time>2020-06-06T13:41:10Z</time>
      </trkpt>
      <trkpt lat="47.66065" lon="-2.84993">
        <ele>45.1</ele>
        <time>2020-06-06T13:41:11Z</time>
      </trkpt>
      <trkpt lat="47.66066" lon="-2.84999">
        <ele>45.3</ele>
        <time>2020-06-06T13:41:12Z</time>
      </trkpt>
      <trkpt lat="47.66066" lon="-2.85005">
        <ele>45.4</ele>
        <time>2020-06-06T13:41:13Z</time>
      </trkpt>
      <trkpt lat="47.66066" lon="-2.85011">
        <ele>45.6</ele>
        <time>2020-06-06T13:41:14Z</time>
      </trkpt>
      <trkpt lat="47.66066" lon="-2.85018">
        <ele>45.8</ele>
        <time>2020-06-06T13:41:15Z</time>
      </trkpt>
      <trkpt lat="47.66066" lon="-2.85024">
        <ele>45.9</ele>
        <time>2020-06-06T13:41:16Z</time>
      </trkpt>
      <trkpt lat="47.66066" lon="-2.85032">
        <ele>46.1</ele>
        <time>2020-06-06T13:41:17Z</time>
      </trkpt>
      <trkpt lat="47.66066" lon="-2.8504">
        <ele>46.2</ele>
        <time>2020-06-06T13:41:18Z</time>
      </trkpt>
      <trkpt lat="47.66067" lon="-2.85046">
        <ele>46.4</ele>
        <time>2020-06-06T13:41:19Z</time>
      </trkpt>
      <trkpt lat="47.66067" lon="-2.85052">
        <ele>46.5</ele>
        <time>2020-06-06T13:41:20Z</time>
      </trkpt>
      <trkpt lat="47.66068" lon="-2.85058">
        <ele>46.6</ele>
        <time>2020-06-06T13:41:21Z</time>
      </trkpt>
      <trkpt lat="47.66068" lon="-2.85064">
        <ele>46.7</ele>
        <time>2020-06-06T13:41:22Z</time>
      </trkpt>
      <trkpt lat="47.66068" lon="-2.85071">
        <ele>46.8</ele>
        <time>2020-06-06T13:41:23Z</time>
      </trkpt>
      <trkpt lat="47.66068" lon="-2.85078">
        <ele>46.9</ele>
        <time>2020-06-06T13:41:24Z</time>
      </trkpt>
      <trkpt lat="47.66069" lon="-2.85085">
        <ele>47</ele>
        <time>2020-06-06T13:41:25Z</time>
      </trkpt>
      <trkpt lat="47.66069" lon="-2.85092">
        <ele>47.1</ele>
        <time>2020-06-06T13:41:26Z</time>
      </trkpt>
      <trkpt lat="47.6607" lon="-2.85099">
        <ele>47.2</ele>
        <time>2020-06-06T13:41:27Z</time>
      </trkpt>
      <trkpt lat="47.6607" lon="-2.85107">
        <ele>47.3</ele>
        <time>2020-06-06T13:41:28Z</time>
      </trkpt>
      <trkpt lat="47.66071" lon="-2.85113">
        <ele>47.4</ele>
        <time>2020-06-06T13:41:29Z</time>
      </trkpt>
      <trkpt lat="47.66071" lon="-2.8512">
        <ele>47.5</ele>
        <time>2020-06-06T13:41:30Z</time>
      </trkpt>
      <trkpt lat="47.6607" lon="-2.85127">
        <ele>47.6</ele>
        <time>2020-06-06T13:41:31Z</time>
      </trkpt>
      <trkpt lat="47.66071" lon="-2.85135">
        <ele>47.8</ele>
        <time>2020-06-06T13:41:32Z</time>
      </trkpt>
      <trkpt lat="47.6607" lon="-2.85141">
        <ele>47.9</ele>
        <time>2020-06-06T13:41:33Z</time>
      </trkpt>
      <trkpt lat="47.6607" lon="-2.85147">
        <ele>48</ele>
        <time>2020-06-06T13:41:34Z</time>
      </trkpt>
      <trkpt lat="47.6607" lon="-2.85153">
        <ele>48.1</ele>
        <time>2020-06-06T13:41:35Z</time>
      </trkpt>
      <trkpt lat="47.66071" lon="-2.8516">
        <ele>48.2</ele>
        <time>2020-06-06T13:41:36Z</time>
      </trkpt>
      <trkpt lat="47.66071" lon="-2.85167">
        <ele>48.3</ele>
        <time>2020-06-06T13:41:37Z</time>
      </trkpt>
      <trkpt lat="47.66071" lon="-2.85174">
        <ele>48.3</ele>
        <time>2020-06-06T13:41:38Z</time>
      </trkpt>
      <trkpt lat="47.6607" lon="-2.85182">
        <ele>48.4</ele>
        <time>2020-06-06T13:41:39Z</time>
      </trkpt>
      <trkpt lat="47.66071" lon="-2.85189">
        <ele>48.4</ele>
        <time>2020-06-06T13:41:40Z</time>
      </trkpt>
      <trkpt lat="47.66069" lon="-2.85196">
        <ele>48.5</ele>
        <time>2020-06-06T13:41:41Z</time>
      </trkpt>
      <trkpt lat="47.66069" lon="-2.85203">
        <ele>48.5</ele>
        <time>2020-06-06T13:41:42Z</time>
      </trkpt>
      <trkpt lat="47.66069" lon="-2.8521">
        <ele>48.5</ele>
        <time>2020-06-06T13:41:43Z</time>
      </trkpt>
      <trkpt lat="47.66069" lon="-2.85216">
        <ele>48.5</ele>
        <time>2020-06-06T13:41:44Z</time>
      </trkpt>
      <trkpt lat="47.66068" lon="-2.85222">
        <ele>48.5</ele>
        <time>2020-06-06T13:41:45Z</time>
      </trkpt>
      <trkpt lat="47.66068" lon="-2.85229">
        <ele>48.5</ele>
        <time>2020-06-06T13:41:46Z</time>
      </trkpt>
      <trkpt lat="47.66067" lon="-2.85236">
        <ele>48.4</ele>
        <time>2020-06-06T13:41:47Z</time>
      </trkpt>
      <trkpt lat="47.66068" lon="-2.85243">
        <ele>48.3</ele>
        <time>2020-06-06T13:41:48Z</time>
      </trkpt>
      <trkpt lat="47.66068" lon="-2.8525">
        <ele>48.2</ele>
        <time>2020-06-06T13:41:49Z</time>
      </trkpt>
      <trkpt lat="47.66067" lon="-2.85257">
        <ele>48.1</ele>
        <time>2020-06-06T13:41:50Z</time>
      </trkpt>
      <trkpt lat="47.66066" lon="-2.85264">
        <ele>48</ele>
        <time>2020-06-06T13:41:51Z</time>
      </trkpt>
      <trkpt lat="47.66065" lon="-2.8527">
        <ele>47.8</ele>
        <time>2020-06-06T13:41:52Z</time>
      </trkpt>
      <trkpt lat="47.66065" lon="-2.85276">
        <ele>47.6</ele>
        <time>2020-06-06T13:41:53Z</time>
      </trkpt>
      <trkpt lat="47.66064" lon="-2.85284">
        <ele>47.4</ele>
        <time>2020-06-06T13:41:54Z</time>
      </trkpt>
      <trkpt lat="47.66063" lon="-2.85293">
        <ele>47.1</ele>
        <time>2020-06-06T13:41:55Z</time>
      </trkpt>
      <trkpt lat="47.66062" lon="-2.85302">
        <ele>46.9</ele>
        <time>2020-06-06T13:41:56Z</time>
      </trkpt>
      <trkpt lat="47.66061" lon="-2.85312">
        <ele>46.6</ele>
        <time>2020-06-06T13:41:57Z</time>
      </trkpt>
      <trkpt lat="47.6606" lon="-2.85322">
        <ele>46.5</ele>
        <time>2020-06-06T13:41:58Z</time>
      </trkpt>
      <trkpt lat="47.66061" lon="-2.85332">
        <ele>46.4</ele>
        <time>2020-06-06T13:41:59Z</time>
      </trkpt>
      <trkpt lat="47.66061" lon="-2.85344">
        <ele>46.5</ele>
        <time>2020-06-06T13:42:00Z</time>
      </trkpt>
      <trkpt lat="47.66061" lon="-2.85353">
        <ele>46.5</ele>
        <time>2020-06-06T13:42:01Z</time>
      </trkpt>
      <trkpt lat="47.6606" lon="-2.85362">
        <ele>46.6</ele>
        <time>2020-06-06T13:42:02Z</time>
      </trkpt>
      <trkpt lat="47.66057" lon="-2.85368">
        <ele>46.8</ele>
        <time>2020-06-06T13:42:03Z</time>
      </trkpt>
      <trkpt lat="47.66054" lon="-2.85373">
        <ele>46.9</ele>
        <time>2020-06-06T13:42:04Z</time>
      </trkpt>
      <trkpt lat="47.6605" lon="-2.85378">
        <ele>47.1</ele>
        <time>2020-06-06T13:42:05Z</time>
      </trkpt>
      <trkpt lat="47.66048" lon="-2.85383">
        <ele>47.3</ele>
        <time>2020-06-06T13:42:06Z</time>
      </trkpt>
      <trkpt lat="47.66044" lon="-2.85388">
        <ele>47.4</ele>
        <time>2020-06-06T13:42:07Z</time>
      </trkpt>
      <trkpt lat="47.66041" lon="-2.85392">
        <ele>47.6</ele>
        <time>2020-06-06T13:42:08Z</time>
      </trkpt>
      <trkpt lat="47.66038" lon="-2.854">
        <ele>47.7</ele>
        <time>2020-06-06T13:42:09Z</time>
      </trkpt>
      <trkpt lat="47.66034" lon="-2.85405">
        <ele>47.7</ele>
        <time>2020-06-06T13:42:10Z</time>
      </trkpt>
      <trkpt lat="47.66031" lon="-2.85411">
        <ele>47.8</ele>
        <time>2020-06-06T13:42:11Z</time>
      </trkpt>
      <trkpt lat="47.66028" lon="-2.85417">
        <ele>47.8</ele>
        <time>2020-06-06T13:42:12Z</time>
      </trkpt>
      <trkpt lat="47.66026" lon="-2.85422">
        <ele>47.8</ele>
        <time>2020-06-06T13:42:13Z</time>
      </trkpt>
      <trkpt lat="47.66023" lon="-2.85428">
        <ele>47.8</ele>
        <time>2020-06-06T13:42:14Z</time>
      </trkpt>
      <trkpt lat="47.66021" lon="-2.85433">
        <ele>47.8</ele>
        <time>2020-06-06T13:42:15Z</time>
      </trkpt>
      <trkpt lat="47.66018" lon="-2.85439">
        <ele>47.8</ele>
        <time>2020-06-06T13:42:16Z</time>
      </trkpt>
      <trkpt lat="47.66015" lon="-2.85445">
        <ele>47.8</ele>
        <time>2020-06-06T13:42:17Z</time>
      </trkpt>
      <trkpt lat="47.66011" lon="-2.85452">
        <ele>47.8</ele>
        <time>2020-06-06T13:42:18Z</time>
      </trkpt>
      <trkpt lat="47.66008" lon="-2.85459">
        <ele>47.8</ele>
        <time>2020-06-06T13:42:19Z</time>
      </trkpt>
      <trkpt lat="47.66005" lon="-2.85465">
        <ele>47.9</ele>
        <time>2020-06-06T13:42:20Z</time>
      </trkpt>
      <trkpt lat="47.66001" lon="-2.85472">
        <ele>47.9</ele>
        <time>2020-06-06T13:42:21Z</time>
      </trkpt>
      <trkpt lat="47.65998" lon="-2.85479">
        <ele>47.9</ele>
        <time>2020-06-06T13:42:22Z</time>
      </trkpt>
      <trkpt lat="47.65995" lon="-2.85485">
        <ele>47.9</ele>
        <time>2020-06-06T13:42:23Z</time>
      </trkpt>
      <trkpt lat="47.65991" lon="-2.85491">
        <ele>47.9</ele>
        <time>2020-06-06T13:42:24Z</time>
      </trkpt>
      <trkpt lat="47.65988" lon="-2.85499">
        <ele>47.9</ele>
        <time>2020-06-06T13:42:25Z</time>
      </trkpt>
      <trkpt lat="47.65985" lon="-2.85506">
        <ele>47.9</ele>
        <time>2020-06-06T13:42:26Z</time>
      </trkpt>
      <trkpt lat="47.65981" lon="-2.85513">
        <ele>48</ele>
        <time>2020-06-06T13:42:27Z</time>
      </trkpt>
      <trkpt lat="47.65978" lon="-2.85519">
        <ele>48</ele>
        <time>2020-06-06T13:42:28Z</time>
      </trkpt>
      <trkpt lat="47.65976" lon="-2.85525">
        <ele>48</ele>
        <time>2020-06-06T13:42:29Z</time>
      </trkpt>
      <trkpt lat="47.65973" lon="-2.85531">
        <ele>48</ele>
        <time>2020-06-06T13:42:30Z</time>
      </trkpt>
      <trkpt lat="47.65971" lon="-2.85536">
        <ele>48.1</ele>
        <time>2020-06-06T13:42:31Z</time>
      </trkpt>
      <trkpt lat="47.65968" lon="-2.85541">
        <ele>48.1</ele>
        <time>2020-06-06T13:42:32Z</time>
      </trkpt>
      <trkpt lat="47.65963" lon="-2.85547">
        <ele>48.2</ele>
        <time>2020-06-06T13:42:33Z</time>
      </trkpt>
      <trkpt lat="47.6596" lon="-2.85553">
        <ele>48.3</ele>
        <time>2020-06-06T13:42:34Z</time>
      </trkpt>
      <trkpt lat="47.65956" lon="-2.8556">
        <ele>48.4</ele>
        <time>2020-06-06T13:42:35Z</time>
      </trkpt>
      <trkpt lat="47.65952" lon="-2.85566">
        <ele>48.5</ele>
        <time>2020-06-06T13:42:36Z</time>
      </trkpt>
      <trkpt lat="47.65949" lon="-2.85572">
        <ele>48.5</ele>
        <time>2020-06-06T13:42:37Z</time>
      </trkpt>
      <trkpt lat="47.65945" lon="-2.85579">
        <ele>48.6</ele>
        <time>2020-06-06T13:42:38Z</time>
      </trkpt>
      <trkpt lat="47.65942" lon="-2.85585">
        <ele>48.6</ele>
        <time>2020-06-06T13:42:39Z</time>
      </trkpt>
      <trkpt lat="47.65939" lon="-2.8559">
        <ele>48.6</ele>
        <time>2020-06-06T13:42:40Z</time>
      </trkpt>
      <trkpt lat="47.65935" lon="-2.85596">
        <ele>48.7</ele>
        <time>2020-06-06T13:42:41Z</time>
      </trkpt>
      <trkpt lat="47.65932" lon="-2.85602">
        <ele>48.7</ele>
        <time>2020-06-06T13:42:42Z</time>
      </trkpt>
      <trkpt lat="47.65928" lon="-2.85608">
        <ele>48.8</ele>
        <time>2020-06-06T13:42:43Z</time>
      </trkpt>
      <trkpt lat="47.65925" lon="-2.85615">
        <ele>48.9</ele>
        <time>2020-06-06T13:42:44Z</time>
      </trkpt>
      <trkpt lat="47.65922" lon="-2.8562">
        <ele>48.9</ele>
        <time>2020-06-06T13:42:45Z</time>
      </trkpt>
      <trkpt lat="47.65919" lon="-2.85626">
        <ele>49</ele>
        <time>2020-06-06T13:42:46Z</time>
      </trkpt>
      <trkpt lat="47.65917" lon="-2.85629">
        <ele>49</ele>
        <time>2020-06-06T13:42:47Z</time>
      </trkpt>
      <trkpt lat="47.65914" lon="-2.85636">
        <ele>49.1</ele>
        <time>2020-06-06T13:42:48Z</time>
      </trkpt>
      <trkpt lat="47.65911" lon="-2.85642">
        <ele>49.3</ele>
        <time>2020-06-06T13:42:49Z</time>
      </trkpt>
      <trkpt lat="47.65908" lon="-2.85648">
        <ele>49.5</ele>
        <time>2020-06-06T13:42:50Z</time>
      </trkpt>
      <trkpt lat="47.65905" lon="-2.85655">
        <ele>49.7</ele>
        <time>2020-06-06T13:42:51Z</time>
      </trkpt>
      <trkpt lat="47.65903" lon="-2.85662">
        <ele>50</ele>
        <time>2020-06-06T13:42:52Z</time>
      </trkpt>
      <trkpt lat="47.65901" lon="-2.85668">
        <ele>50.2</ele>
        <time>2020-06-06T13:42:53Z</time>
      </trkpt>
      <trkpt lat="47.65899" lon="-2.85675">
        <ele>50.4</ele>
        <time>2020-06-06T13:42:54Z</time>
      </trkpt>
      <trkpt lat="47.65898" lon="-2.8568">
        <ele>50.5</ele>
        <time>2020-06-06T13:42:55Z</time>
      </trkpt>
      <trkpt lat="47.65899" lon="-2.85684">
        <ele>50.5</ele>
        <time>2020-06-06T13:42:56Z</time>
      </trkpt>
      <trkpt lat="47.659" lon="-2.85688">
        <ele>50.5</ele>
        <time>2020-06-06T13:42:57Z</time>
      </trkpt>
      <trkpt lat="47.659" lon="-2.85693">
        <ele>50.5</ele>
        <time>2020-06-06T13:42:58Z</time>
      </trkpt>
      <trkpt lat="47.65901" lon="-2.857">
        <ele>50.5</ele>
        <time>2020-06-06T13:42:59Z</time>
      </trkpt>
      <trkpt lat="47.65902" lon="-2.85705">
        <ele>50.4</ele>
        <time>2020-06-06T13:43:00Z</time>
      </trkpt>
      <trkpt lat="47.65904" lon="-2.85711">
        <ele>50.3</ele>
        <time>2020-06-06T13:43:01Z</time>
      </trkpt>
      <trkpt lat="47.65905" lon="-2.85716">
        <ele>50.3</ele>
        <time>2020-06-06T13:43:02Z</time>
      </trkpt>
      <trkpt lat="47.65909" lon="-2.85723">
        <ele>50.2</ele>
        <time>2020-06-06T13:43:03Z</time>
      </trkpt>
      <trkpt lat="47.65913" lon="-2.85729">
        <ele>50.1</ele>
        <time>2020-06-06T13:43:04Z</time>
      </trkpt>
      <trkpt lat="47.65916" lon="-2.85735">
        <ele>50.1</ele>
        <time>2020-06-06T13:43:05Z</time>
      </trkpt>
      <trkpt lat="47.65918" lon="-2.8574">
        <ele>50</ele>
        <time>2020-06-06T13:43:06Z</time>
      </trkpt>
      <trkpt lat="47.65921" lon="-2.85746">
        <ele>50</ele>
        <time>2020-06-06T13:43:07Z</time>
      </trkpt>
      <trkpt lat="47.65923" lon="-2.85753">
        <ele>50</ele>
        <time>2020-06-06T13:43:08Z</time>
      </trkpt>
      <trkpt lat="47.65926" lon="-2.85758">
        <ele>49.9</ele>
        <time>2020-06-06T13:43:09Z</time>
      </trkpt>
      <trkpt lat="47.65928" lon="-2.85765">
        <ele>49.9</ele>
        <time>2020-06-06T13:43:10Z</time>
      </trkpt>
      <trkpt lat="47.6593" lon="-2.85771">
        <ele>49.9</ele>
        <time>2020-06-06T13:43:11Z</time>
      </trkpt>
      <trkpt lat="47.65932" lon="-2.85778">
        <ele>49.8</ele>
        <time>2020-06-06T13:43:12Z</time>
      </trkpt>
      <trkpt lat="47.65934" lon="-2.85785">
        <ele>49.8</ele>
        <time>2020-06-06T13:43:13Z</time>
      </trkpt>
      <trkpt lat="47.65937" lon="-2.85792">
        <ele>49.7</ele>
        <time>2020-06-06T13:43:14Z</time>
      </trkpt>
      <trkpt lat="47.6594" lon="-2.85801">
        <ele>49.7</ele>
        <time>2020-06-06T13:43:15Z</time>
      </trkpt>
      <trkpt lat="47.65942" lon="-2.85808">
        <ele>49.6</ele>
        <time>2020-06-06T13:43:16Z</time>
      </trkpt>
      <trkpt lat="47.65945" lon="-2.85816">
        <ele>49.6</ele>
        <time>2020-06-06T13:43:17Z</time>
      </trkpt>
      <trkpt lat="47.65946" lon="-2.85821">
        <ele>49.6</ele>
        <time>2020-06-06T13:43:18Z</time>
      </trkpt>
      <trkpt lat="47.65948" lon="-2.85827">
        <ele>49.6</ele>
        <time>2020-06-06T13:43:19Z</time>
      </trkpt>
      <trkpt lat="47.65949" lon="-2.85835">
        <ele>49.7</ele>
        <time>2020-06-06T13:43:20Z</time>
      </trkpt>
      <trkpt lat="47.6595" lon="-2.85844">
        <ele>49.7</ele>
        <time>2020-06-06T13:43:21Z</time>
      </trkpt>
      <trkpt lat="47.65952" lon="-2.85851">
        <ele>49.7</ele>
        <time>2020-06-06T13:43:22Z</time>
      </trkpt>
      <trkpt lat="47.65953" lon="-2.85858">
        <ele>49.7</ele>
        <time>2020-06-06T13:43:23Z</time>
      </trkpt>
      <trkpt lat="47.65955" lon="-2.85865">
        <ele>49.7</ele>
        <time>2020-06-06T13:43:24Z</time>
      </trkpt>
      <trkpt lat="47.65958" lon="-2.85872">
        <ele>49.8</ele>
        <time>2020-06-06T13:43:25Z</time>
      </trkpt>
      <trkpt lat="47.65961" lon="-2.85878">
        <ele>49.8</ele>
        <time>2020-06-06T13:43:26Z</time>
      </trkpt>
      <trkpt lat="47.65965" lon="-2.85883">
        <ele>49.9</ele>
        <time>2020-06-06T13:43:27Z</time>
      </trkpt>
      <trkpt lat="47.65969" lon="-2.85884">
        <ele>51.1</ele>
        <time>2020-06-06T13:43:28Z</time>
      </trkpt>
      <trkpt lat="47.65972" lon="-2.85887">
        <ele>51</ele>
        <time>2020-06-06T13:43:29Z</time>
      </trkpt>
      <trkpt lat="47.65975" lon="-2.85891">
        <ele>51</ele>
        <time>2020-06-06T13:43:30Z</time>
      </trkpt>
      <trkpt lat="47.65978" lon="-2.85896">
        <ele>50.9</ele>
        <time>2020-06-06T13:43:31Z</time>
      </trkpt>
      <trkpt lat="47.6598" lon="-2.85902">
        <ele>50.8</ele>
        <time>2020-06-06T13:43:32Z</time>
      </trkpt>
      <trkpt lat="47.65982" lon="-2.85908">
        <ele>50.8</ele>
        <time>2020-06-06T13:43:33Z</time>
      </trkpt>
      <trkpt lat="47.65983" lon="-2.85913">
        <ele>50.7</ele>
        <time>2020-06-06T13:43:34Z</time>
      </trkpt>
      <trkpt lat="47.65983" lon="-2.85919">
        <ele>50.8</ele>
        <time>2020-06-06T13:43:35Z</time>
      </trkpt>
      <trkpt lat="47.65983" lon="-2.85925">
        <ele>51</ele>
        <time>2020-06-06T13:43:36Z</time>
      </trkpt>
      <trkpt lat="47.65982" lon="-2.85931">
        <ele>51.1</ele>
        <time>2020-06-06T13:43:37Z</time>
      </trkpt>
      <trkpt lat="47.65982" lon="-2.85938">
        <ele>51.1</ele>
        <time>2020-06-06T13:43:38Z</time>
      </trkpt>
      <trkpt lat="47.65981" lon="-2.85944">
        <ele>51.2</ele>
        <time>2020-06-06T13:43:39Z</time>
      </trkpt>
      <trkpt lat="47.65982" lon="-2.8595">
        <ele>51.3</ele>
        <time>2020-06-06T13:43:40Z</time>
      </trkpt>
      <trkpt lat="47.65983" lon="-2.85955">
        <ele>51.3</ele>
        <time>2020-06-06T13:43:41Z</time>
      </trkpt>
      <trkpt lat="47.65985" lon="-2.8596">
        <ele>51.4</ele>
        <time>2020-06-06T13:43:42Z</time>
      </trkpt>
      <trkpt lat="47.65988" lon="-2.85965">
        <ele>51.5</ele>
        <time>2020-06-06T13:43:43Z</time>
      </trkpt>
      <trkpt lat="47.65991" lon="-2.8597">
        <ele>51.6</ele>
        <time>2020-06-06T13:43:44Z</time>
      </trkpt>
      <trkpt lat="47.65993" lon="-2.85975">
        <ele>51.8</ele>
        <time>2020-06-06T13:43:45Z</time>
      </trkpt>
      <trkpt lat="47.65995" lon="-2.85979">
        <ele>51.9</ele>
        <time>2020-06-06T13:43:46Z</time>
      </trkpt>
      <trkpt lat="47.65998" lon="-2.85985">
        <ele>52</ele>
        <time>2020-06-06T13:43:47Z</time>
      </trkpt>
      <trkpt lat="47.66001" lon="-2.85989">
        <ele>52.2</ele>
        <time>2020-06-06T13:43:48Z</time>
      </trkpt>
      <trkpt lat="47.66004" lon="-2.85993">
        <ele>52.3</ele>
        <time>2020-06-06T13:43:49Z</time>
      </trkpt>
      <trkpt lat="47.66008" lon="-2.85997">
        <ele>52.4</ele>
        <time>2020-06-06T13:43:50Z</time>
      </trkpt>
      <trkpt lat="47.66012" lon="-2.86">
        <ele>52.5</ele>
        <time>2020-06-06T13:43:51Z</time>
      </trkpt>
      <trkpt lat="47.66016" lon="-2.86002">
        <ele>52.6</ele>
        <time>2020-06-06T13:43:52Z</time>
      </trkpt>
      <trkpt lat="47.6602" lon="-2.86005">
        <ele>52.7</ele>
        <time>2020-06-06T13:43:53Z</time>
      </trkpt>
      <trkpt lat="47.66023" lon="-2.86008">
        <ele>52.9</ele>
        <time>2020-06-06T13:43:54Z</time>
      </trkpt>
      <trkpt lat="47.66027" lon="-2.86011">
        <ele>53</ele>
        <time>2020-06-06T13:43:55Z</time>
      </trkpt>
      <trkpt lat="47.66031" lon="-2.86013">
        <ele>53.1</ele>
        <time>2020-06-06T13:43:56Z</time>
      </trkpt>
      <trkpt lat="47.66035" lon="-2.86015">
        <ele>53.2</ele>
        <time>2020-06-06T13:43:57Z</time>
      </trkpt>
      <trkpt lat="47.66039" lon="-2.86017">
        <ele>53.2</ele>
        <time>2020-06-06T13:43:58Z</time>
      </trkpt>
      <trkpt lat="47.66043" lon="-2.86018">
        <ele>53.3</ele>
        <time>2020-06-06T13:43:59Z</time>
      </trkpt>
      <trkpt lat="47.66046" lon="-2.86017">
        <ele>53.4</ele>
        <time>2020-06-06T13:44:00Z</time>
      </trkpt>
      <trkpt lat="47.6605" lon="-2.86017">
        <ele>53.4</ele>
        <time>2020-06-06T13:44:01Z</time>
      </trkpt>
      <trkpt lat="47.66053" lon="-2.86016">
        <ele>53.5</ele>
        <time>2020-06-06T13:44:02Z</time>
      </trkpt>
      <trkpt lat="47.66057" lon="-2.86016">
        <ele>53.5</ele>
        <time>2020-06-06T13:44:03Z</time>
      </trkpt>
      <trkpt lat="47.66061" lon="-2.86017">
        <ele>53.5</ele>
        <time>2020-06-06T13:44:04Z</time>
      </trkpt>
      <trkpt lat="47.66064" lon="-2.86017">
        <ele>53.5</ele>
        <time>2020-06-06T13:44:05Z</time>
      </trkpt>
      <trkpt lat="47.66069" lon="-2.86017">
        <ele>53.5</ele>
        <time>2020-06-06T13:44:06Z</time>
      </trkpt>
      <trkpt lat="47.66073" lon="-2.86017">
        <ele>53.5</ele>
        <time>2020-06-06T13:44:07Z</time>
      </trkpt>
      <trkpt lat="47.66078" lon="-2.86018">
        <ele>53.5</ele>
        <time>2020-06-06T13:44:08Z</time>
      </trkpt>
      <trkpt lat="47.66082" lon="-2.86018">
        <ele>53.5</ele>
        <time>2020-06-06T13:44:09Z</time>
      </trkpt>
      <trkpt lat="47.66085" lon="-2.86017">
        <ele>53.4</ele>
        <time>2020-06-06T13:44:10Z</time>
      </trkpt>
      <trkpt lat="47.66089" lon="-2.86017">
        <ele>53.4</ele>
        <time>2020-06-06T13:44:11Z</time>
      </trkpt>
      <trkpt lat="47.66095" lon="-2.86016">
        <ele>53.3</ele>
        <time>2020-06-06T13:44:12Z</time>
      </trkpt>
      <trkpt lat="47.66099" lon="-2.86016">
        <ele>53.3</ele>
        <time>2020-06-06T13:44:13Z</time>
      </trkpt>
      <trkpt lat="47.66104" lon="-2.86015">
        <ele>53.2</ele>
        <time>2020-06-06T13:44:14Z</time>
      </trkpt>
      <trkpt lat="47.66109" lon="-2.86015">
        <ele>53.1</ele>
        <time>2020-06-06T13:44:15Z</time>
      </trkpt>
      <trkpt lat="47.66113" lon="-2.86015">
        <ele>53</ele>
        <time>2020-06-06T13:44:16Z</time>
      </trkpt>
      <trkpt lat="47.66117" lon="-2.86014">
        <ele>52.9</ele>
        <time>2020-06-06T13:44:17Z</time>
      </trkpt>
      <trkpt lat="47.66123" lon="-2.86012">
        <ele>52.7</ele>
        <time>2020-06-06T13:44:18Z</time>
      </trkpt>
      <trkpt lat="47.66129" lon="-2.86008">
        <ele>52.5</ele>
        <time>2020-06-06T13:44:19Z</time>
      </trkpt>
      <trkpt lat="47.66134" lon="-2.86004">
        <ele>52.5</ele>
        <time>2020-06-06T13:44:20Z</time>
      </trkpt>
      <trkpt lat="47.66139" lon="-2.86">
        <ele>52.5</ele>
        <time>2020-06-06T13:44:21Z</time>
      </trkpt>
      <trkpt lat="47.66144" lon="-2.85997">
        <ele>52.4</ele>
        <time>2020-06-06T13:44:22Z</time>
      </trkpt>
      <trkpt lat="47.66149" lon="-2.85993">
        <ele>52.4</ele>
        <time>2020-06-06T13:44:23Z</time>
      </trkpt>
      <trkpt lat="47.66153" lon="-2.8599">
        <ele>52.3</ele>
        <time>2020-06-06T13:44:24Z</time>
      </trkpt>
      <trkpt lat="47.66158" lon="-2.85987">
        <ele>52.1</ele>
        <time>2020-06-06T13:44:25Z</time>
      </trkpt>
      <trkpt lat="47.66164" lon="-2.85987">
        <ele>52</ele>
        <time>2020-06-06T13:44:26Z</time>
      </trkpt>
      <trkpt lat="47.6617" lon="-2.85994">
        <ele>51.7</ele>
        <time>2020-06-06T13:44:27Z</time>
      </trkpt>
      <trkpt lat="47.66174" lon="-2.86002">
        <ele>51.5</ele>
        <time>2020-06-06T13:44:28Z</time>
      </trkpt>
      <trkpt lat="47.66176" lon="-2.86012">
        <ele>51.4</ele>
        <time>2020-06-06T13:44:29Z</time>
      </trkpt>
      <trkpt lat="47.66177" lon="-2.86022">
        <ele>51.3</ele>
        <time>2020-06-06T13:44:30Z</time>
      </trkpt>
      <trkpt lat="47.66177" lon="-2.8603">
        <ele>51.3</ele>
        <time>2020-06-06T13:44:31Z</time>
      </trkpt>
      <trkpt lat="47.66175" lon="-2.86038">
        <ele>51.3</ele>
        <time>2020-06-06T13:44:32Z</time>
      </trkpt>
      <trkpt lat="47.66173" lon="-2.86045">
        <ele>51.2</ele>
        <time>2020-06-06T13:44:33Z</time>
      </trkpt>
      <trkpt lat="47.66171" lon="-2.86052">
        <ele>51.2</ele>
        <time>2020-06-06T13:44:34Z</time>
      </trkpt>
      <trkpt lat="47.6617" lon="-2.86059">
        <ele>51.1</ele>
        <time>2020-06-06T13:44:35Z</time>
      </trkpt>
      <trkpt lat="47.66168" lon="-2.86065">
        <ele>51</ele>
        <time>2020-06-06T13:44:36Z</time>
      </trkpt>
      <trkpt lat="47.66168" lon="-2.86073">
        <ele>50.8</ele>
        <time>2020-06-06T13:44:37Z</time>
      </trkpt>
      <trkpt lat="47.66167" lon="-2.86081">
        <ele>50.6</ele>
        <time>2020-06-06T13:44:38Z</time>
      </trkpt>
      <trkpt lat="47.66167" lon="-2.86089">
        <ele>50.5</ele>
        <time>2020-06-06T13:44:39Z</time>
      </trkpt>
      <trkpt lat="47.66167" lon="-2.86096">
        <ele>50.3</ele>
        <time>2020-06-06T13:44:40Z</time>
      </trkpt>
      <trkpt lat="47.66166" lon="-2.86102">
        <ele>50.2</ele>
        <time>2020-06-06T13:44:41Z</time>
      </trkpt>
      <trkpt lat="47.66165" lon="-2.8611">
        <ele>50</ele>
        <time>2020-06-06T13:44:42Z</time>
      </trkpt>
      <trkpt lat="47.66163" lon="-2.86118">
        <ele>49.8</ele>
        <time>2020-06-06T13:44:43Z</time>
      </trkpt>
      <trkpt lat="47.66161" lon="-2.86127">
        <ele>49.6</ele>
        <time>2020-06-06T13:44:44Z</time>
      </trkpt>
      <trkpt lat="47.66157" lon="-2.86136">
        <ele>49.4</ele>
        <time>2020-06-06T13:44:45Z</time>
      </trkpt>
      <trkpt lat="47.66152" lon="-2.86144">
        <ele>49.2</ele>
        <time>2020-06-06T13:44:46Z</time>
      </trkpt>
      <trkpt lat="47.66148" lon="-2.86152">
        <ele>49</ele>
        <time>2020-06-06T13:44:47Z</time>
      </trkpt>
      <trkpt lat="47.66143" lon="-2.8616">
        <ele>48.8</ele>
        <time>2020-06-06T13:44:48Z</time>
      </trkpt>
      <trkpt lat="47.66138" lon="-2.86167">
        <ele>48.7</ele>
        <time>2020-06-06T13:44:49Z</time>
      </trkpt>
      <trkpt lat="47.66133" lon="-2.86174">
        <ele>48.5</ele>
        <time>2020-06-06T13:44:50Z</time>
      </trkpt>
      <trkpt lat="47.66128" lon="-2.86181">
        <ele>48.4</ele>
        <time>2020-06-06T13:44:51Z</time>
      </trkpt>
      <trkpt lat="47.66122" lon="-2.8619">
        <ele>48.3</ele>
        <time>2020-06-06T13:44:52Z</time>
      </trkpt>
      <trkpt lat="47.66116" lon="-2.86196">
        <ele>48.3</ele>
        <time>2020-06-06T13:44:53Z</time>
      </trkpt>
      <trkpt lat="47.66111" lon="-2.86201">
        <ele>48.2</ele>
        <time>2020-06-06T13:44:54Z</time>
      </trkpt>
      <trkpt lat="47.66106" lon="-2.86206">
        <ele>48.2</ele>
        <time>2020-06-06T13:44:55Z</time>
      </trkpt>
      <trkpt lat="47.66102" lon="-2.86212">
        <ele>48.3</ele>
        <time>2020-06-06T13:44:56Z</time>
      </trkpt>
      <trkpt lat="47.66097" lon="-2.86218">
        <ele>48.3</ele>
        <time>2020-06-06T13:44:57Z</time>
      </trkpt>
      <trkpt lat="47.66093" lon="-2.86226">
        <ele>48.3</ele>
        <time>2020-06-06T13:44:58Z</time>
      </trkpt>
      <trkpt lat="47.66091" lon="-2.86233">
        <ele>48.4</ele>
        <time>2020-06-06T13:44:59Z</time>
      </trkpt>
      <trkpt lat="47.6609" lon="-2.86241">
        <ele>48.4</ele>
        <time>2020-06-06T13:45:00Z</time>
      </trkpt>
      <trkpt lat="47.66089" lon="-2.8625">
        <ele>48.5</ele>
        <time>2020-06-06T13:45:01Z</time>
      </trkpt>
      <trkpt lat="47.66088" lon="-2.86258">
        <ele>48.6</ele>
        <time>2020-06-06T13:45:02Z</time>
      </trkpt>
      <trkpt lat="47.66088" lon="-2.86265">
        <ele>48.6</ele>
        <time>2020-06-06T13:45:03Z</time>
      </trkpt>
      <trkpt lat="47.66089" lon="-2.86273">
        <ele>48.7</ele>
        <time>2020-06-06T13:45:04Z</time>
      </trkpt>
      <trkpt lat="47.66089" lon="-2.86281">
        <ele>48.8</ele>
        <time>2020-06-06T13:45:05Z</time>
      </trkpt>
      <trkpt lat="47.66089" lon="-2.86289">
        <ele>48.8</ele>
        <time>2020-06-06T13:45:06Z</time>
      </trkpt>
      <trkpt lat="47.66088" lon="-2.86297">
        <ele>48.9</ele>
        <time>2020-06-06T13:45:07Z</time>
      </trkpt>
      <trkpt lat="47.66088" lon="-2.86305">
        <ele>49</ele>
        <time>2020-06-06T13:45:08Z</time>
      </trkpt>
      <trkpt lat="47.66088" lon="-2.86314">
        <ele>49.1</ele>
        <time>2020-06-06T13:45:09Z</time>
      </trkpt>
      <trkpt lat="47.66087" lon="-2.86323">
        <ele>49.1</ele>
        <time>2020-06-06T13:45:10Z</time>
      </trkpt>
      <trkpt lat="47.66087" lon="-2.86331">
        <ele>49.2</ele>
        <time>2020-06-06T13:45:11Z</time>
      </trkpt>
      <trkpt lat="47.66086" lon="-2.8634">
        <ele>49.2</ele>
        <time>2020-06-06T13:45:12Z</time>
      </trkpt>
      <trkpt lat="47.66086" lon="-2.86348">
        <ele>49.3</ele>
        <time>2020-06-06T13:45:13Z</time>
      </trkpt>
      <trkpt lat="47.66086" lon="-2.86356">
        <ele>49.3</ele>
        <time>2020-06-06T13:45:14Z</time>
      </trkpt>
      <trkpt lat="47.66086" lon="-2.86366">
        <ele>49.4</ele>
        <time>2020-06-06T13:45:15Z</time>
      </trkpt>
      <trkpt lat="47.66085" lon="-2.86374">
        <ele>49.4</ele>
        <time>2020-06-06T13:45:16Z</time>
      </trkpt>
      <trkpt lat="47.66085" lon="-2.86382">
        <ele>49.4</ele>
        <time>2020-06-06T13:45:17Z</time>
      </trkpt>
      <trkpt lat="47.66085" lon="-2.86391">
        <ele>49.4</ele>
        <time>2020-06-06T13:45:18Z</time>
      </trkpt>
      <trkpt lat="47.66085" lon="-2.864">
        <ele>49.5</ele>
        <time>2020-06-06T13:45:19Z</time>
      </trkpt>
      <trkpt lat="47.66085" lon="-2.86405">
        <ele>49.5</ele>
        <time>2020-06-06T13:45:20Z</time>
      </trkpt>
      <trkpt lat="47.66085" lon="-2.86411">
        <ele>49.6</ele>
        <time>2020-06-06T13:45:21Z</time>
      </trkpt>
      <trkpt lat="47.66085" lon="-2.86417">
        <ele>49.6</ele>
        <time>2020-06-06T13:45:22Z</time>
      </trkpt>
      <trkpt lat="47.66084" lon="-2.86422">
        <ele>49.7</ele>
        <time>2020-06-06T13:45:23Z</time>
      </trkpt>
      <trkpt lat="47.66084" lon="-2.86429">
        <ele>49.7</ele>
        <time>2020-06-06T13:45:24Z</time>
      </trkpt>
      <trkpt lat="47.66084" lon="-2.86437">
        <ele>49.8</ele>
        <time>2020-06-06T13:45:25Z</time>
      </trkpt>
      <trkpt lat="47.66084" lon="-2.86445">
        <ele>49.9</ele>
        <time>2020-06-06T13:45:26Z</time>
      </trkpt>
      <trkpt lat="47.66083" lon="-2.86452">
        <ele>50</ele>
        <time>2020-06-06T13:45:27Z</time>
      </trkpt>
      <trkpt lat="47.66083" lon="-2.86462">
        <ele>50.1</ele>
        <time>2020-06-06T13:45:28Z</time>
      </trkpt>
      <trkpt lat="47.66082" lon="-2.8647">
        <ele>50.2</ele>
        <time>2020-06-06T13:45:29Z</time>
      </trkpt>
      <trkpt lat="47.66082" lon="-2.86477">
        <ele>50.2</ele>
        <time>2020-06-06T13:45:30Z</time>
      </trkpt>
      <trkpt lat="47.66083" lon="-2.86485">
        <ele>50.3</ele>
        <time>2020-06-06T13:45:31Z</time>
      </trkpt>
      <trkpt lat="47.66082" lon="-2.8649">
        <ele>50.4</ele>
        <time>2020-06-06T13:45:32Z</time>
      </trkpt>
      <trkpt lat="47.66082" lon="-2.86495">
        <ele>50.4</ele>
        <time>2020-06-06T13:45:33Z</time>
      </trkpt>
      <trkpt lat="47.66082" lon="-2.86501">
        <ele>50.5</ele>
        <time>2020-06-06T13:45:34Z</time>
      </trkpt>
      <trkpt lat="47.66083" lon="-2.8651">
        <ele>50.5</ele>
        <time>2020-06-06T13:45:35Z</time>
      </trkpt>
      <trkpt lat="47.66083" lon="-2.86517">
        <ele>50.5</ele>
        <time>2020-06-06T13:45:36Z</time>
      </trkpt>
      <trkpt lat="47.66083" lon="-2.86524">
        <ele>50.5</ele>
        <time>2020-06-06T13:45:37Z</time>
      </trkpt>
      <trkpt lat="47.66083" lon="-2.86532">
        <ele>50.5</ele>
        <time>2020-06-06T13:45:38Z</time>
      </trkpt>
      <trkpt lat="47.66083" lon="-2.86539">
        <ele>50.6</ele>
        <time>2020-06-06T13:45:39Z</time>
      </trkpt>
      <trkpt lat="47.66083" lon="-2.86545">
        <ele>50.6</ele>
        <time>2020-06-06T13:45:40Z</time>
      </trkpt>
      <trkpt lat="47.66084" lon="-2.86552">
        <ele>50.6</ele>
        <time>2020-06-06T13:45:41Z</time>
      </trkpt>
      <trkpt lat="47.66084" lon="-2.86559">
        <ele>50.7</ele>
        <time>2020-06-06T13:45:42Z</time>
      </trkpt>
      <trkpt lat="47.66085" lon="-2.86566">
        <ele>50.7</ele>
        <time>2020-06-06T13:45:43Z</time>
      </trkpt>
      <trkpt lat="47.66085" lon="-2.86574">
        <ele>50.8</ele>
        <time>2020-06-06T13:45:44Z</time>
      </trkpt>
      <trkpt lat="47.66086" lon="-2.86581">
        <ele>50.9</ele>
        <time>2020-06-06T13:45:45Z</time>
      </trkpt>
      <trkpt lat="47.66086" lon="-2.86588">
        <ele>50.9</ele>
        <time>2020-06-06T13:45:46Z</time>
      </trkpt>
      <trkpt lat="47.66087" lon="-2.86595">
        <ele>51</ele>
        <time>2020-06-06T13:45:47Z</time>
      </trkpt>
      <trkpt lat="47.66087" lon="-2.86602">
        <ele>51</ele>
        <time>2020-06-06T13:45:48Z</time>
      </trkpt>
      <trkpt lat="47.66087" lon="-2.86608">
        <ele>51.1</ele>
        <time>2020-06-06T13:45:49Z</time>
      </trkpt>
      <trkpt lat="47.66087" lon="-2.86616">
        <ele>51.1</ele>
        <time>2020-06-06T13:45:50Z</time>
      </trkpt>
      <trkpt lat="47.66088" lon="-2.86622">
        <ele>51.1</ele>
        <time>2020-06-06T13:45:51Z</time>
      </trkpt>
      <trkpt lat="47.66089" lon="-2.86629">
        <ele>51.2</ele>
        <time>2020-06-06T13:45:52Z</time>
      </trkpt>
      <trkpt lat="47.66089" lon="-2.86637">
        <ele>51.2</ele>
        <time>2020-06-06T13:45:53Z</time>
      </trkpt>
      <trkpt lat="47.6609" lon="-2.86645">
        <ele>51.2</ele>
        <time>2020-06-06T13:45:54Z</time>
      </trkpt>
      <trkpt lat="47.6609" lon="-2.86651">
        <ele>51.3</ele>
        <time>2020-06-06T13:45:55Z</time>
      </trkpt>
      <trkpt lat="47.6609" lon="-2.86657">
        <ele>51.3</ele>
        <time>2020-06-06T13:45:56Z</time>
      </trkpt>
      <trkpt lat="47.6609" lon="-2.86664">
        <ele>51.4</ele>
        <time>2020-06-06T13:45:57Z</time>
      </trkpt>
      <trkpt lat="47.66091" lon="-2.86672">
        <ele>51.4</ele>
        <time>2020-06-06T13:45:58Z</time>
      </trkpt>
      <trkpt lat="47.66091" lon="-2.86679">
        <ele>51.5</ele>
        <time>2020-06-06T13:45:59Z</time>
      </trkpt>
      <trkpt lat="47.66091" lon="-2.86685">
        <ele>51.5</ele>
        <time>2020-06-06T13:46:00Z</time>
      </trkpt>
      <trkpt lat="47.66091" lon="-2.86692">
        <ele>51.6</ele>
        <time>2020-06-06T13:46:01Z</time>
      </trkpt>
      <trkpt lat="47.66092" lon="-2.86699">
        <ele>51.6</ele>
        <time>2020-06-06T13:46:02Z</time>
      </trkpt>
      <trkpt lat="47.66093" lon="-2.86705">
        <ele>51.6</ele>
        <time>2020-06-06T13:46:03Z</time>
      </trkpt>
      <trkpt lat="47.66094" lon="-2.86712">
        <ele>51.6</ele>
        <time>2020-06-06T13:46:04Z</time>
      </trkpt>
      <trkpt lat="47.66095" lon="-2.86718">
        <ele>51.7</ele>
        <time>2020-06-06T13:46:05Z</time>
      </trkpt>
      <trkpt lat="47.66095" lon="-2.86723">
        <ele>51.7</ele>
        <time>2020-06-06T13:46:06Z</time>
      </trkpt>
      <trkpt lat="47.66096" lon="-2.8673">
        <ele>51.7</ele>
        <time>2020-06-06T13:46:07Z</time>
      </trkpt>
      <trkpt lat="47.66097" lon="-2.86737">
        <ele>51.8</ele>
        <time>2020-06-06T13:46:08Z</time>
      </trkpt>
      <trkpt lat="47.66098" lon="-2.86746">
        <ele>51.8</ele>
        <time>2020-06-06T13:46:09Z</time>
      </trkpt>
      <trkpt lat="47.66099" lon="-2.86752">
        <ele>51.8</ele>
        <time>2020-06-06T13:46:10Z</time>
      </trkpt>
      <trkpt lat="47.661" lon="-2.86761">
        <ele>51.9</ele>
        <time>2020-06-06T13:46:11Z</time>
      </trkpt>
      <trkpt lat="47.66101" lon="-2.86768">
        <ele>51.9</ele>
        <time>2020-06-06T13:46:12Z</time>
      </trkpt>
      <trkpt lat="47.66101" lon="-2.86775">
        <ele>52</ele>
        <time>2020-06-06T13:46:13Z</time>
      </trkpt>
      <trkpt lat="47.66102" lon="-2.86783">
        <ele>52</ele>
        <time>2020-06-06T13:46:14Z</time>
      </trkpt>
      <trkpt lat="47.66103" lon="-2.86789">
        <ele>52.1</ele>
        <time>2020-06-06T13:46:15Z</time>
      </trkpt>
      <trkpt lat="47.66103" lon="-2.86794">
        <ele>52.1</ele>
        <time>2020-06-06T13:46:16Z</time>
      </trkpt>
      <trkpt lat="47.66105" lon="-2.86804">
        <ele>52.2</ele>
        <time>2020-06-06T13:46:17Z</time>
      </trkpt>
      <trkpt lat="47.66106" lon="-2.86811">
        <ele>52.2</ele>
        <time>2020-06-06T13:46:18Z</time>
      </trkpt>
      <trkpt lat="47.66108" lon="-2.86816">
        <ele>52.3</ele>
        <time>2020-06-06T13:46:19Z</time>
      </trkpt>
      <trkpt lat="47.6611" lon="-2.86824">
        <ele>52.3</ele>
        <time>2020-06-06T13:46:20Z</time>
      </trkpt>
      <trkpt lat="47.66111" lon="-2.86831">
        <ele>52.4</ele>
        <time>2020-06-06T13:46:21Z</time>
      </trkpt>
      <trkpt lat="47.66112" lon="-2.86838">
        <ele>52.4</ele>
        <time>2020-06-06T13:46:22Z</time>
      </trkpt>
      <trkpt lat="47.66113" lon="-2.86846">
        <ele>52.4</ele>
        <time>2020-06-06T13:46:23Z</time>
      </trkpt>
      <trkpt lat="47.66114" lon="-2.86853">
        <ele>52.4</ele>
        <time>2020-06-06T13:46:24Z</time>
      </trkpt>
      <trkpt lat="47.66115" lon="-2.86861">
        <ele>52.4</ele>
        <time>2020-06-06T13:46:25Z</time>
      </trkpt>
      <trkpt lat="47.66116" lon="-2.86869">
        <ele>52.4</ele>
        <time>2020-06-06T13:46:26Z</time>
      </trkpt>
      <trkpt lat="47.66118" lon="-2.86875">
        <ele>52.4</ele>
        <time>2020-06-06T13:46:27Z</time>
      </trkpt>
      <trkpt lat="47.66119" lon="-2.86883">
        <ele>52.3</ele>
        <time>2020-06-06T13:46:28Z</time>
      </trkpt>
      <trkpt lat="47.6612" lon="-2.86889">
        <ele>52.3</ele>
        <time>2020-06-06T13:46:29Z</time>
      </trkpt>
      <trkpt lat="47.66122" lon="-2.86896">
        <ele>52.3</ele>
        <time>2020-06-06T13:46:30Z</time>
      </trkpt>
      <trkpt lat="47.66123" lon="-2.86903">
        <ele>52.3</ele>
        <time>2020-06-06T13:46:31Z</time>
      </trkpt>
      <trkpt lat="47.66124" lon="-2.8691">
        <ele>52.3</ele>
        <time>2020-06-06T13:46:32Z</time>
      </trkpt>
      <trkpt lat="47.66125" lon="-2.86919">
        <ele>52.2</ele>
        <time>2020-06-06T13:46:33Z</time>
      </trkpt>
      <trkpt lat="47.66126" lon="-2.86927">
        <ele>52.2</ele>
        <time>2020-06-06T13:46:34Z</time>
      </trkpt>
      <trkpt lat="47.66127" lon="-2.86936">
        <ele>52.1</ele>
        <time>2020-06-06T13:46:35Z</time>
      </trkpt>
      <trkpt lat="47.66128" lon="-2.86944">
        <ele>52.1</ele>
        <time>2020-06-06T13:46:36Z</time>
      </trkpt>
      <trkpt lat="47.66129" lon="-2.86952">
        <ele>52</ele>
        <time>2020-06-06T13:46:37Z</time>
      </trkpt>
      <trkpt lat="47.6613" lon="-2.8696">
        <ele>51.9</ele>
        <time>2020-06-06T13:46:38Z</time>
      </trkpt>
      <trkpt lat="47.66132" lon="-2.86968">
        <ele>51.8</ele>
        <time>2020-06-06T13:46:39Z</time>
      </trkpt>
      <trkpt lat="47.66133" lon="-2.86977">
        <ele>51.7</ele>
        <time>2020-06-06T13:46:40Z</time>
      </trkpt>
      <trkpt lat="47.66134" lon="-2.86986">
        <ele>51.6</ele>
        <time>2020-06-06T13:46:41Z</time>
      </trkpt>
      <trkpt lat="47.66136" lon="-2.86997">
        <ele>51.5</ele>
        <time>2020-06-06T13:46:42Z</time>
      </trkpt>
      <trkpt lat="47.66138" lon="-2.87007">
        <ele>51.4</ele>
        <time>2020-06-06T13:46:43Z</time>
      </trkpt>
      <trkpt lat="47.66139" lon="-2.87015">
        <ele>51.3</ele>
        <time>2020-06-06T13:46:44Z</time>
      </trkpt>
      <trkpt lat="47.66139" lon="-2.87023">
        <ele>51.2</ele>
        <time>2020-06-06T13:46:45Z</time>
      </trkpt>
      <trkpt lat="47.6614" lon="-2.87032">
        <ele>51</ele>
        <time>2020-06-06T13:46:46Z</time>
      </trkpt>
      <trkpt lat="47.66141" lon="-2.87041">
        <ele>50.9</ele>
        <time>2020-06-06T13:46:47Z</time>
      </trkpt>
      <trkpt lat="47.66142" lon="-2.87051">
        <ele>50.7</ele>
        <time>2020-06-06T13:46:48Z</time>
      </trkpt>
      <trkpt lat="47.66143" lon="-2.87061">
        <ele>50.5</ele>
        <time>2020-06-06T13:46:49Z</time>
      </trkpt>
      <trkpt lat="47.66144" lon="-2.87071">
        <ele>50.4</ele>
        <time>2020-06-06T13:46:50Z</time>
      </trkpt>
      <trkpt lat="47.66145" lon="-2.87081">
        <ele>50.2</ele>
        <time>2020-06-06T13:46:51Z</time>
      </trkpt>
      <trkpt lat="47.66146" lon="-2.87091">
        <ele>50.1</ele>
        <time>2020-06-06T13:46:52Z</time>
      </trkpt>
      <trkpt lat="47.66147" lon="-2.87101">
        <ele>49.9</ele>
        <time>2020-06-06T13:46:53Z</time>
      </trkpt>
      <trkpt lat="47.66148" lon="-2.87111">
        <ele>49.8</ele>
        <time>2020-06-06T13:46:54Z</time>
      </trkpt>
      <trkpt lat="47.66149" lon="-2.87121">
        <ele>49.7</ele>
        <time>2020-06-06T13:46:55Z</time>
      </trkpt>
      <trkpt lat="47.6615" lon="-2.87131">
        <ele>49.5</ele>
        <time>2020-06-06T13:46:56Z</time>
      </trkpt>
      <trkpt lat="47.66152" lon="-2.87142">
        <ele>49.3</ele>
        <time>2020-06-06T13:46:57Z</time>
      </trkpt>
      <trkpt lat="47.66153" lon="-2.87152">
        <ele>49.1</ele>
        <time>2020-06-06T13:46:58Z</time>
      </trkpt>
      <trkpt lat="47.66154" lon="-2.87162">
        <ele>49</ele>
        <time>2020-06-06T13:46:59Z</time>
      </trkpt>
      <trkpt lat="47.66156" lon="-2.87172">
        <ele>48.8</ele>
        <time>2020-06-06T13:47:00Z</time>
      </trkpt>
      <trkpt lat="47.66157" lon="-2.87182">
        <ele>48.7</ele>
        <time>2020-06-06T13:47:01Z</time>
      </trkpt>
      <trkpt lat="47.66158" lon="-2.87192">
        <ele>48.5</ele>
        <time>2020-06-06T13:47:02Z</time>
      </trkpt>
      <trkpt lat="47.6616" lon="-2.87203">
        <ele>48.4</ele>
        <time>2020-06-06T13:47:03Z</time>
      </trkpt>
      <trkpt lat="47.66161" lon="-2.87213">
        <ele>48.2</ele>
        <time>2020-06-06T13:47:04Z</time>
      </trkpt>
      <trkpt lat="47.66163" lon="-2.87224">
        <ele>48.1</ele>
        <time>2020-06-06T13:47:05Z</time>
      </trkpt>
      <trkpt lat="47.66164" lon="-2.87234">
        <ele>47.9</ele>
        <time>2020-06-06T13:47:06Z</time>
      </trkpt>
      <trkpt lat="47.66165" lon="-2.87245">
        <ele>47.8</ele>
        <time>2020-06-06T13:47:07Z</time>
      </trkpt>
      <trkpt lat="47.66167" lon="-2.87255">
        <ele>47.8</ele>
        <time>2020-06-06T13:47:08Z</time>
      </trkpt>
      <trkpt lat="47.66168" lon="-2.87265">
        <ele>47.7</ele>
        <time>2020-06-06T13:47:09Z</time>
      </trkpt>
      <trkpt lat="47.6617" lon="-2.87275">
        <ele>47.7</ele>
        <time>2020-06-06T13:47:10Z</time>
      </trkpt>
      <trkpt lat="47.66171" lon="-2.87286">
        <ele>47.6</ele>
        <time>2020-06-06T13:47:11Z</time>
      </trkpt>
      <trkpt lat="47.66172" lon="-2.87297">
        <ele>47.6</ele>
        <time>2020-06-06T13:47:12Z</time>
      </trkpt>
      <trkpt lat="47.66174" lon="-2.87307">
        <ele>47.5</ele>
        <time>2020-06-06T13:47:13Z</time>
      </trkpt>
      <trkpt lat="47.66176" lon="-2.87317">
        <ele>47.5</ele>
        <time>2020-06-06T13:47:14Z</time>
      </trkpt>
      <trkpt lat="47.66178" lon="-2.87328">
        <ele>47.5</ele>
        <time>2020-06-06T13:47:15Z</time>
      </trkpt>
      <trkpt lat="47.66179" lon="-2.87338">
        <ele>47.5</ele>
        <time>2020-06-06T13:47:16Z</time>
      </trkpt>
      <trkpt lat="47.66181" lon="-2.87348">
        <ele>47.5</ele>
        <time>2020-06-06T13:47:17Z</time>
      </trkpt>
      <trkpt lat="47.66182" lon="-2.87358">
        <ele>47.6</ele>
        <time>2020-06-06T13:47:18Z</time>
      </trkpt>
      <trkpt lat="47.66183" lon="-2.87368">
        <ele>47.6</ele>
        <time>2020-06-06T13:47:19Z</time>
      </trkpt>
      <trkpt lat="47.66185" lon="-2.87377">
        <ele>47.7</ele>
        <time>2020-06-06T13:47:20Z</time>
      </trkpt>
      <trkpt lat="47.66186" lon="-2.87387">
        <ele>47.7</ele>
        <time>2020-06-06T13:47:21Z</time>
      </trkpt>
      <trkpt lat="47.66187" lon="-2.87396">
        <ele>47.7</ele>
        <time>2020-06-06T13:47:22Z</time>
      </trkpt>
      <trkpt lat="47.66188" lon="-2.87404">
        <ele>47.8</ele>
        <time>2020-06-06T13:47:23Z</time>
      </trkpt>
      <trkpt lat="47.6619" lon="-2.87413">
        <ele>47.8</ele>
        <time>2020-06-06T13:47:24Z</time>
      </trkpt>
      <trkpt lat="47.66191" lon="-2.87422">
        <ele>47.8</ele>
        <time>2020-06-06T13:47:25Z</time>
      </trkpt>
      <trkpt lat="47.66192" lon="-2.87431">
        <ele>47.9</ele>
        <time>2020-06-06T13:47:26Z</time>
      </trkpt>
      <trkpt lat="47.66193" lon="-2.8744">
        <ele>47.9</ele>
        <time>2020-06-06T13:47:27Z</time>
      </trkpt>
      <trkpt lat="47.66193" lon="-2.8745">
        <ele>48</ele>
        <time>2020-06-06T13:47:28Z</time>
      </trkpt>
      <trkpt lat="47.66194" lon="-2.8746">
        <ele>48</ele>
        <time>2020-06-06T13:47:29Z</time>
      </trkpt>
      <trkpt lat="47.66196" lon="-2.8747">
        <ele>48.1</ele>
        <time>2020-06-06T13:47:30Z</time>
      </trkpt>
      <trkpt lat="47.66197" lon="-2.87479">
        <ele>48.1</ele>
        <time>2020-06-06T13:47:31Z</time>
      </trkpt>
      <trkpt lat="47.66197" lon="-2.87489">
        <ele>48.2</ele>
        <time>2020-06-06T13:47:32Z</time>
      </trkpt>
      <trkpt lat="47.66199" lon="-2.87498">
        <ele>48.3</ele>
        <time>2020-06-06T13:47:33Z</time>
      </trkpt>
      <trkpt lat="47.662" lon="-2.87508">
        <ele>48.3</ele>
        <time>2020-06-06T13:47:34Z</time>
      </trkpt>
      <trkpt lat="47.66202" lon="-2.87518">
        <ele>48.3</ele>
        <time>2020-06-06T13:47:35Z</time>
      </trkpt>
      <trkpt lat="47.66203" lon="-2.87527">
        <ele>48.3</ele>
        <time>2020-06-06T13:47:36Z</time>
      </trkpt>
      <trkpt lat="47.66205" lon="-2.87537">
        <ele>48.4</ele>
        <time>2020-06-06T13:47:37Z</time>
      </trkpt>
      <trkpt lat="47.66206" lon="-2.87546">
        <ele>48.4</ele>
        <time>2020-06-06T13:47:38Z</time>
      </trkpt>
      <trkpt lat="47.66207" lon="-2.87555">
        <ele>48.4</ele>
        <time>2020-06-06T13:47:39Z</time>
      </trkpt>
      <trkpt lat="47.66208" lon="-2.87563">
        <ele>48.5</ele>
        <time>2020-06-06T13:47:40Z</time>
      </trkpt>
      <trkpt lat="47.6621" lon="-2.87572">
        <ele>48.5</ele>
        <time>2020-06-06T13:47:41Z</time>
      </trkpt>
      <trkpt lat="47.66211" lon="-2.87581">
        <ele>48.5</ele>
        <time>2020-06-06T13:47:42Z</time>
      </trkpt>
      <trkpt lat="47.66212" lon="-2.8759">
        <ele>48.6</ele>
        <time>2020-06-06T13:47:43Z</time>
      </trkpt>
      <trkpt lat="47.66214" lon="-2.87598">
        <ele>48.6</ele>
        <time>2020-06-06T13:47:44Z</time>
      </trkpt>
      <trkpt lat="47.66215" lon="-2.87607">
        <ele>48.6</ele>
        <time>2020-06-06T13:47:45Z</time>
      </trkpt>
      <trkpt lat="47.66216" lon="-2.87616">
        <ele>48.6</ele>
        <time>2020-06-06T13:47:46Z</time>
      </trkpt>
      <trkpt lat="47.66217" lon="-2.87624">
        <ele>48.7</ele>
        <time>2020-06-06T13:47:47Z</time>
      </trkpt>
      <trkpt lat="47.66218" lon="-2.87632">
        <ele>48.7</ele>
        <time>2020-06-06T13:47:48Z</time>
      </trkpt>
      <trkpt lat="47.6622" lon="-2.8764">
        <ele>48.7</ele>
        <time>2020-06-06T13:47:49Z</time>
      </trkpt>
      <trkpt lat="47.66221" lon="-2.87648">
        <ele>48.7</ele>
        <time>2020-06-06T13:47:50Z</time>
      </trkpt>
      <trkpt lat="47.66222" lon="-2.87656">
        <ele>48.7</ele>
        <time>2020-06-06T13:47:51Z</time>
      </trkpt>
      <trkpt lat="47.66223" lon="-2.87663">
        <ele>48.7</ele>
        <time>2020-06-06T13:47:52Z</time>
      </trkpt>
      <trkpt lat="47.66223" lon="-2.87671">
        <ele>48.8</ele>
        <time>2020-06-06T13:47:53Z</time>
      </trkpt>
      <trkpt lat="47.66223" lon="-2.87677">
        <ele>48.8</ele>
        <time>2020-06-06T13:47:54Z</time>
      </trkpt>
      <trkpt lat="47.66225" lon="-2.87684">
        <ele>48.8</ele>
        <time>2020-06-06T13:47:55Z</time>
      </trkpt>
      <trkpt lat="47.66226" lon="-2.87692">
        <ele>48.9</ele>
        <time>2020-06-06T13:47:56Z</time>
      </trkpt>
      <trkpt lat="47.66227" lon="-2.87698">
        <ele>48.9</ele>
        <time>2020-06-06T13:47:57Z</time>
      </trkpt>
      <trkpt lat="47.66227" lon="-2.87704">
        <ele>48.9</ele>
        <time>2020-06-06T13:47:58Z</time>
      </trkpt>
      <trkpt lat="47.66228" lon="-2.8771">
        <ele>48.9</ele>
        <time>2020-06-06T13:47:59Z</time>
      </trkpt>
      <trkpt lat="47.6623" lon="-2.87718">
        <ele>48.9</ele>
        <time>2020-06-06T13:48:00Z</time>
      </trkpt>
      <trkpt lat="47.6623" lon="-2.87724">
        <ele>49</ele>
        <time>2020-06-06T13:48:01Z</time>
      </trkpt>
      <trkpt lat="47.66232" lon="-2.87731">
        <ele>49</ele>
        <time>2020-06-06T13:48:02Z</time>
      </trkpt>
      <trkpt lat="47.66232" lon="-2.87737">
        <ele>49</ele>
        <time>2020-06-06T13:48:03Z</time>
      </trkpt>
      <trkpt lat="47.66234" lon="-2.87744">
        <ele>49.1</ele>
        <time>2020-06-06T13:48:04Z</time>
      </trkpt>
      <trkpt lat="47.66235" lon="-2.87752">
        <ele>49.1</ele>
        <time>2020-06-06T13:48:05Z</time>
      </trkpt>
      <trkpt lat="47.66236" lon="-2.87759">
        <ele>49.1</ele>
        <time>2020-06-06T13:48:06Z</time>
      </trkpt>
      <trkpt lat="47.66237" lon="-2.87766">
        <ele>49.1</ele>
        <time>2020-06-06T13:48:07Z</time>
      </trkpt>
      <trkpt lat="47.66237" lon="-2.87774">
        <ele>49.2</ele>
        <time>2020-06-06T13:48:08Z</time>
      </trkpt>
      <trkpt lat="47.66238" lon="-2.87781">
        <ele>49.2</ele>
        <time>2020-06-06T13:48:09Z</time>
      </trkpt>
      <trkpt lat="47.66239" lon="-2.87789">
        <ele>49.2</ele>
        <time>2020-06-06T13:48:10Z</time>
      </trkpt>
      <trkpt lat="47.6624" lon="-2.87798">
        <ele>49.2</ele>
        <time>2020-06-06T13:48:11Z</time>
      </trkpt>
      <trkpt lat="47.66242" lon="-2.87806">
        <ele>49.2</ele>
        <time>2020-06-06T13:48:12Z</time>
      </trkpt>
      <trkpt lat="47.66243" lon="-2.87813">
        <ele>49.2</ele>
        <time>2020-06-06T13:48:13Z</time>
      </trkpt>
      <trkpt lat="47.66244" lon="-2.87822">
        <ele>49.2</ele>
        <time>2020-06-06T13:48:14Z</time>
      </trkpt>
      <trkpt lat="47.66245" lon="-2.8783">
        <ele>49.3</ele>
        <time>2020-06-06T13:48:15Z</time>
      </trkpt>
      <trkpt lat="47.66246" lon="-2.87838">
        <ele>49.3</ele>
        <time>2020-06-06T13:48:16Z</time>
      </trkpt>
      <trkpt lat="47.66247" lon="-2.87846">
        <ele>49.3</ele>
        <time>2020-06-06T13:48:17Z</time>
      </trkpt>
      <trkpt lat="47.66247" lon="-2.87853">
        <ele>49.4</ele>
        <time>2020-06-06T13:48:18Z</time>
      </trkpt>
      <trkpt lat="47.66248" lon="-2.8786">
        <ele>49.4</ele>
        <time>2020-06-06T13:48:19Z</time>
      </trkpt>
      <trkpt lat="47.66248" lon="-2.87867">
        <ele>49.4</ele>
        <time>2020-06-06T13:48:20Z</time>
      </trkpt>
      <trkpt lat="47.6625" lon="-2.87874">
        <ele>49.5</ele>
        <time>2020-06-06T13:48:21Z</time>
      </trkpt>
      <trkpt lat="47.66251" lon="-2.87881">
        <ele>49.5</ele>
        <time>2020-06-06T13:48:22Z</time>
      </trkpt>
      <trkpt lat="47.66252" lon="-2.87888">
        <ele>49.5</ele>
        <time>2020-06-06T13:48:23Z</time>
      </trkpt>
      <trkpt lat="47.66253" lon="-2.87894">
        <ele>49.6</ele>
        <time>2020-06-06T13:48:24Z</time>
      </trkpt>
      <trkpt lat="47.66254" lon="-2.87903">
        <ele>49.6</ele>
        <time>2020-06-06T13:48:25Z</time>
      </trkpt>
      <trkpt lat="47.66254" lon="-2.87911">
        <ele>49.7</ele>
        <time>2020-06-06T13:48:26Z</time>
      </trkpt>
      <trkpt lat="47.66255" lon="-2.87919">
        <ele>49.7</ele>
        <time>2020-06-06T13:48:27Z</time>
      </trkpt>
      <trkpt lat="47.66256" lon="-2.87926">
        <ele>49.7</ele>
        <time>2020-06-06T13:48:28Z</time>
      </trkpt>
      <trkpt lat="47.66258" lon="-2.87935">
        <ele>49.8</ele>
        <time>2020-06-06T13:48:29Z</time>
      </trkpt>
      <trkpt lat="47.66258" lon="-2.87943">
        <ele>49.8</ele>
        <time>2020-06-06T13:48:30Z</time>
      </trkpt>
      <trkpt lat="47.66258" lon="-2.8795">
        <ele>49.9</ele>
        <time>2020-06-06T13:48:31Z</time>
      </trkpt>
      <trkpt lat="47.66259" lon="-2.87957">
        <ele>49.9</ele>
        <time>2020-06-06T13:48:32Z</time>
      </trkpt>
      <trkpt lat="47.6626" lon="-2.87964">
        <ele>49.9</ele>
        <time>2020-06-06T13:48:33Z</time>
      </trkpt>
      <trkpt lat="47.66261" lon="-2.87971">
        <ele>50</ele>
        <time>2020-06-06T13:48:34Z</time>
      </trkpt>
      <trkpt lat="47.66261" lon="-2.87978">
        <ele>50</ele>
        <time>2020-06-06T13:48:35Z</time>
      </trkpt>
      <trkpt lat="47.66262" lon="-2.87985">
        <ele>50</ele>
        <time>2020-06-06T13:48:36Z</time>
      </trkpt>
      <trkpt lat="47.66263" lon="-2.87992">
        <ele>50</ele>
        <time>2020-06-06T13:48:37Z</time>
      </trkpt>
      <trkpt lat="47.66264" lon="-2.88001">
        <ele>50</ele>
        <time>2020-06-06T13:48:38Z</time>
      </trkpt>
      <trkpt lat="47.66265" lon="-2.8801">
        <ele>50.1</ele>
        <time>2020-06-06T13:48:39Z</time>
      </trkpt>
      <trkpt lat="47.66265" lon="-2.88017">
        <ele>50.1</ele>
        <time>2020-06-06T13:48:40Z</time>
      </trkpt>
      <trkpt lat="47.66266" lon="-2.88024">
        <ele>50.1</ele>
        <time>2020-06-06T13:48:41Z</time>
      </trkpt>
      <trkpt lat="47.66267" lon="-2.88032">
        <ele>50.1</ele>
        <time>2020-06-06T13:48:42Z</time>
      </trkpt>
      <trkpt lat="47.66268" lon="-2.8804">
        <ele>50.2</ele>
        <time>2020-06-06T13:48:43Z</time>
      </trkpt>
      <trkpt lat="47.66268" lon="-2.88047">
        <ele>50.2</ele>
        <time>2020-06-06T13:48:44Z</time>
      </trkpt>
      <trkpt lat="47.66269" lon="-2.88054">
        <ele>50.3</ele>
        <time>2020-06-06T13:48:45Z</time>
      </trkpt>
      <trkpt lat="47.6627" lon="-2.88061">
        <ele>50.3</ele>
        <time>2020-06-06T13:48:46Z</time>
      </trkpt>
      <trkpt lat="47.66271" lon="-2.88068">
        <ele>50.4</ele>
        <time>2020-06-06T13:48:47Z</time>
      </trkpt>
      <trkpt lat="47.66273" lon="-2.88076">
        <ele>50.4</ele>
        <time>2020-06-06T13:48:48Z</time>
      </trkpt>
      <trkpt lat="47.66274" lon="-2.88084">
        <ele>50.4</ele>
        <time>2020-06-06T13:48:49Z</time>
      </trkpt>
      <trkpt lat="47.66275" lon="-2.88091">
        <ele>50.5</ele>
        <time>2020-06-06T13:48:50Z</time>
      </trkpt>
      <trkpt lat="47.66277" lon="-2.881">
        <ele>50.6</ele>
        <time>2020-06-06T13:48:51Z</time>
      </trkpt>
      <trkpt lat="47.66278" lon="-2.88107">
        <ele>50.6</ele>
        <time>2020-06-06T13:48:52Z</time>
      </trkpt>
      <trkpt lat="47.66279" lon="-2.88115">
        <ele>50.6</ele>
        <time>2020-06-06T13:48:53Z</time>
      </trkpt>
      <trkpt lat="47.6628" lon="-2.88124">
        <ele>50.7</ele>
        <time>2020-06-06T13:48:54Z</time>
      </trkpt>
      <trkpt lat="47.66282" lon="-2.88133">
        <ele>50.7</ele>
        <time>2020-06-06T13:48:55Z</time>
      </trkpt>
      <trkpt lat="47.66283" lon="-2.88142">
        <ele>50.7</ele>
        <time>2020-06-06T13:48:56Z</time>
      </trkpt>
      <trkpt lat="47.66285" lon="-2.8815">
        <ele>50.7</ele>
        <time>2020-06-06T13:48:57Z</time>
      </trkpt>
      <trkpt lat="47.66286" lon="-2.88158">
        <ele>50.8</ele>
        <time>2020-06-06T13:48:58Z</time>
      </trkpt>
      <trkpt lat="47.66288" lon="-2.88165">
        <ele>50.8</ele>
        <time>2020-06-06T13:48:59Z</time>
      </trkpt>
      <trkpt lat="47.6629" lon="-2.88173">
        <ele>50.8</ele>
        <time>2020-06-06T13:49:00Z</time>
      </trkpt>
      <trkpt lat="47.66291" lon="-2.88181">
        <ele>50.8</ele>
        <time>2020-06-06T13:49:01Z</time>
      </trkpt>
      <trkpt lat="47.66292" lon="-2.8819">
        <ele>50.9</ele>
        <time>2020-06-06T13:49:02Z</time>
      </trkpt>
      <trkpt lat="47.66293" lon="-2.88197">
        <ele>50.9</ele>
        <time>2020-06-06T13:49:03Z</time>
      </trkpt>
      <trkpt lat="47.66295" lon="-2.88206">
        <ele>51</ele>
        <time>2020-06-06T13:49:04Z</time>
      </trkpt>
      <trkpt lat="47.66296" lon="-2.88214">
        <ele>51.1</ele>
        <time>2020-06-06T13:49:05Z</time>
      </trkpt>
      <trkpt lat="47.66298" lon="-2.88221">
        <ele>51.1</ele>
        <time>2020-06-06T13:49:06Z</time>
      </trkpt>
      <trkpt lat="47.66298" lon="-2.88228">
        <ele>51.1</ele>
        <time>2020-06-06T13:49:07Z</time>
      </trkpt>
      <trkpt lat="47.66299" lon="-2.88235">
        <ele>51.1</ele>
        <time>2020-06-06T13:49:08Z</time>
      </trkpt>
      <trkpt lat="47.663" lon="-2.8824">
        <ele>51.1</ele>
        <time>2020-06-06T13:49:09Z</time>
      </trkpt>
      <trkpt lat="47.66301" lon="-2.88247">
        <ele>51.1</ele>
        <time>2020-06-06T13:49:10Z</time>
      </trkpt>
      <trkpt lat="47.66302" lon="-2.88254">
        <ele>51.1</ele>
        <time>2020-06-06T13:49:11Z</time>
      </trkpt>
      <trkpt lat="47.66304" lon="-2.88263">
        <ele>51.1</ele>
        <time>2020-06-06T13:49:12Z</time>
      </trkpt>
      <trkpt lat="47.66305" lon="-2.88271">
        <ele>51.1</ele>
        <time>2020-06-06T13:49:13Z</time>
      </trkpt>
      <trkpt lat="47.66306" lon="-2.88278">
        <ele>51.1</ele>
        <time>2020-06-06T13:49:14Z</time>
      </trkpt>
      <trkpt lat="47.66307" lon="-2.88286">
        <ele>51.1</ele>
        <time>2020-06-06T13:49:15Z</time>
      </trkpt>
      <trkpt lat="47.66308" lon="-2.88295">
        <ele>51.1</ele>
        <time>2020-06-06T13:49:16Z</time>
      </trkpt>
      <trkpt lat="47.66309" lon="-2.88302">
        <ele>51.1</ele>
        <time>2020-06-06T13:49:17Z</time>
      </trkpt>
      <trkpt lat="47.66309" lon="-2.88309">
        <ele>51.1</ele>
        <time>2020-06-06T13:49:18Z</time>
      </trkpt>
      <trkpt lat="47.6631" lon="-2.88316">
        <ele>51.1</ele>
        <time>2020-06-06T13:49:19Z</time>
      </trkpt>
      <trkpt lat="47.66311" lon="-2.88324">
        <ele>51.1</ele>
        <time>2020-06-06T13:49:20Z</time>
      </trkpt>
      <trkpt lat="47.66312" lon="-2.88332">
        <ele>51.1</ele>
        <time>2020-06-06T13:49:21Z</time>
      </trkpt>
      <trkpt lat="47.66313" lon="-2.8834">
        <ele>51.2</ele>
        <time>2020-06-06T13:49:22Z</time>
      </trkpt>
      <trkpt lat="47.66314" lon="-2.88347">
        <ele>51.2</ele>
        <time>2020-06-06T13:49:23Z</time>
      </trkpt>
      <trkpt lat="47.66315" lon="-2.88355">
        <ele>51.2</ele>
        <time>2020-06-06T13:49:24Z</time>
      </trkpt>
      <trkpt lat="47.66316" lon="-2.88362">
        <ele>51.2</ele>
        <time>2020-06-06T13:49:25Z</time>
      </trkpt>
      <trkpt lat="47.66318" lon="-2.8837">
        <ele>51.3</ele>
        <time>2020-06-06T13:49:26Z</time>
      </trkpt>
      <trkpt lat="47.66319" lon="-2.88379">
        <ele>51.3</ele>
        <time>2020-06-06T13:49:27Z</time>
      </trkpt>
      <trkpt lat="47.6632" lon="-2.88388">
        <ele>51.4</ele>
        <time>2020-06-06T13:49:28Z</time>
      </trkpt>
      <trkpt lat="47.66321" lon="-2.88397">
        <ele>51.4</ele>
        <time>2020-06-06T13:49:29Z</time>
      </trkpt>
      <trkpt lat="47.66322" lon="-2.88407">
        <ele>51.4</ele>
        <time>2020-06-06T13:49:30Z</time>
      </trkpt>
      <trkpt lat="47.66323" lon="-2.88416">
        <ele>51.4</ele>
        <time>2020-06-06T13:49:31Z</time>
      </trkpt>
      <trkpt lat="47.66324" lon="-2.88424">
        <ele>51.4</ele>
        <time>2020-06-06T13:49:32Z</time>
      </trkpt>
      <trkpt lat="47.66325" lon="-2.88433">
        <ele>51.4</ele>
        <time>2020-06-06T13:49:33Z</time>
      </trkpt>
      <trkpt lat="47.66326" lon="-2.8844">
        <ele>51.4</ele>
        <time>2020-06-06T13:49:34Z</time>
      </trkpt>
      <trkpt lat="47.66328" lon="-2.88448">
        <ele>51.4</ele>
        <time>2020-06-06T13:49:35Z</time>
      </trkpt>
      <trkpt lat="47.6633" lon="-2.88454">
        <ele>51.4</ele>
        <time>2020-06-06T13:49:36Z</time>
      </trkpt>
      <trkpt lat="47.6633" lon="-2.88462">
        <ele>51.5</ele>
        <time>2020-06-06T13:49:37Z</time>
      </trkpt>
      <trkpt lat="47.66331" lon="-2.88468">
        <ele>51.5</ele>
        <time>2020-06-06T13:49:38Z</time>
      </trkpt>
      <trkpt lat="47.66331" lon="-2.88476">
        <ele>51.5</ele>
        <time>2020-06-06T13:49:39Z</time>
      </trkpt>
      <trkpt lat="47.66332" lon="-2.88483">
        <ele>51.5</ele>
        <time>2020-06-06T13:49:40Z</time>
      </trkpt>
      <trkpt lat="47.66332" lon="-2.88491">
        <ele>51.6</ele>
        <time>2020-06-06T13:49:41Z</time>
      </trkpt>
      <trkpt lat="47.66334" lon="-2.88499">
        <ele>51.6</ele>
        <time>2020-06-06T13:49:42Z</time>
      </trkpt>
      <trkpt lat="47.66335" lon="-2.88507">
        <ele>51.6</ele>
        <time>2020-06-06T13:49:43Z</time>
      </trkpt>
      <trkpt lat="47.66335" lon="-2.88514">
        <ele>51.6</ele>
        <time>2020-06-06T13:49:44Z</time>
      </trkpt>
      <trkpt lat="47.66336" lon="-2.88521">
        <ele>51.6</ele>
        <time>2020-06-06T13:49:45Z</time>
      </trkpt>
      <trkpt lat="47.66338" lon="-2.8853">
        <ele>51.6</ele>
        <time>2020-06-06T13:49:46Z</time>
      </trkpt>
      <trkpt lat="47.66339" lon="-2.8854">
        <ele>51.6</ele>
        <time>2020-06-06T13:49:47Z</time>
      </trkpt>
      <trkpt lat="47.6634" lon="-2.88549">
        <ele>51.6</ele>
        <time>2020-06-06T13:49:48Z</time>
      </trkpt>
      <trkpt lat="47.6634" lon="-2.88559">
        <ele>51.6</ele>
        <time>2020-06-06T13:49:49Z</time>
      </trkpt>
      <trkpt lat="47.66341" lon="-2.88568">
        <ele>51.6</ele>
        <time>2020-06-06T13:49:50Z</time>
      </trkpt>
      <trkpt lat="47.66342" lon="-2.88576">
        <ele>51.6</ele>
        <time>2020-06-06T13:49:51Z</time>
      </trkpt>
      <trkpt lat="47.66343" lon="-2.88584">
        <ele>51.6</ele>
        <time>2020-06-06T13:49:52Z</time>
      </trkpt>
      <trkpt lat="47.66344" lon="-2.88591">
        <ele>51.6</ele>
        <time>2020-06-06T13:49:53Z</time>
      </trkpt>
      <trkpt lat="47.66345" lon="-2.88598">
        <ele>51.5</ele>
        <time>2020-06-06T13:49:54Z</time>
      </trkpt>
      <trkpt lat="47.66345" lon="-2.88607">
        <ele>51.5</ele>
        <time>2020-06-06T13:49:55Z</time>
      </trkpt>
      <trkpt lat="47.66347" lon="-2.88617">
        <ele>51.5</ele>
        <time>2020-06-06T13:49:56Z</time>
      </trkpt>
      <trkpt lat="47.66348" lon="-2.88624">
        <ele>51.5</ele>
        <time>2020-06-06T13:49:57Z</time>
      </trkpt>
      <trkpt lat="47.66349" lon="-2.88633">
        <ele>51.5</ele>
        <time>2020-06-06T13:49:58Z</time>
      </trkpt>
      <trkpt lat="47.6635" lon="-2.8864">
        <ele>51.5</ele>
        <time>2020-06-06T13:49:59Z</time>
      </trkpt>
      <trkpt lat="47.66351" lon="-2.88649">
        <ele>51.5</ele>
        <time>2020-06-06T13:50:00Z</time>
      </trkpt>
      <trkpt lat="47.66353" lon="-2.88657">
        <ele>51.5</ele>
        <time>2020-06-06T13:50:01Z</time>
      </trkpt>
      <trkpt lat="47.66354" lon="-2.88665">
        <ele>51.5</ele>
        <time>2020-06-06T13:50:02Z</time>
      </trkpt>
      <trkpt lat="47.66355" lon="-2.88673">
        <ele>51.5</ele>
        <time>2020-06-06T13:50:03Z</time>
      </trkpt>
      <trkpt lat="47.66356" lon="-2.88679">
        <ele>51.5</ele>
        <time>2020-06-06T13:50:04Z</time>
      </trkpt>
      <trkpt lat="47.66357" lon="-2.88687">
        <ele>51.5</ele>
        <time>2020-06-06T13:50:05Z</time>
      </trkpt>
      <trkpt lat="47.66357" lon="-2.88696">
        <ele>51.5</ele>
        <time>2020-06-06T13:50:06Z</time>
      </trkpt>
      <trkpt lat="47.66359" lon="-2.88704">
        <ele>51.5</ele>
        <time>2020-06-06T13:50:07Z</time>
      </trkpt>
      <trkpt lat="47.66361" lon="-2.88713">
        <ele>51.4</ele>
        <time>2020-06-06T13:50:08Z</time>
      </trkpt>
      <trkpt lat="47.66363" lon="-2.88724">
        <ele>51.4</ele>
        <time>2020-06-06T13:50:09Z</time>
      </trkpt>
      <trkpt lat="47.66365" lon="-2.88735">
        <ele>51.4</ele>
        <time>2020-06-06T13:50:10Z</time>
      </trkpt>
      <trkpt lat="47.66367" lon="-2.88743">
        <ele>51.3</ele>
        <time>2020-06-06T13:50:11Z</time>
      </trkpt>
      <trkpt lat="47.66368" lon="-2.88752">
        <ele>51.3</ele>
        <time>2020-06-06T13:50:12Z</time>
      </trkpt>
      <trkpt lat="47.66369" lon="-2.88761">
        <ele>51.2</ele>
        <time>2020-06-06T13:50:13Z</time>
      </trkpt>
      <trkpt lat="47.6637" lon="-2.88768">
        <ele>51.2</ele>
        <time>2020-06-06T13:50:14Z</time>
      </trkpt>
      <trkpt lat="47.66371" lon="-2.88777">
        <ele>51.2</ele>
        <time>2020-06-06T13:50:15Z</time>
      </trkpt>
      <trkpt lat="47.66373" lon="-2.88786">
        <ele>51.2</ele>
        <time>2020-06-06T13:50:16Z</time>
      </trkpt>
      <trkpt lat="47.66375" lon="-2.88796">
        <ele>51.1</ele>
        <time>2020-06-06T13:50:17Z</time>
      </trkpt>
      <trkpt lat="47.66376" lon="-2.88806">
        <ele>51.1</ele>
        <time>2020-06-06T13:50:18Z</time>
      </trkpt>
      <trkpt lat="47.66378" lon="-2.88816">
        <ele>51.1</ele>
        <time>2020-06-06T13:50:19Z</time>
      </trkpt>
      <trkpt lat="47.66378" lon="-2.88825">
        <ele>51.1</ele>
        <time>2020-06-06T13:50:20Z</time>
      </trkpt>
      <trkpt lat="47.66379" lon="-2.88836">
        <ele>51</ele>
        <time>2020-06-06T13:50:21Z</time>
      </trkpt>
      <trkpt lat="47.66379" lon="-2.88846">
        <ele>51</ele>
        <time>2020-06-06T13:50:22Z</time>
      </trkpt>
      <trkpt lat="47.66381" lon="-2.88855">
        <ele>50.9</ele>
        <time>2020-06-06T13:50:23Z</time>
      </trkpt>
      <trkpt lat="47.66382" lon="-2.88863">
        <ele>50.9</ele>
        <time>2020-06-06T13:50:24Z</time>
      </trkpt>
      <trkpt lat="47.66383" lon="-2.88872">
        <ele>50.8</ele>
        <time>2020-06-06T13:50:25Z</time>
      </trkpt>
      <trkpt lat="47.66385" lon="-2.88881">
        <ele>50.8</ele>
        <time>2020-06-06T13:50:26Z</time>
      </trkpt>
      <trkpt lat="47.66386" lon="-2.8889">
        <ele>50.7</ele>
        <time>2020-06-06T13:50:27Z</time>
      </trkpt>
      <trkpt lat="47.66387" lon="-2.889">
        <ele>50.7</ele>
        <time>2020-06-06T13:50:28Z</time>
      </trkpt>
      <trkpt lat="47.66388" lon="-2.8891">
        <ele>50.7</ele>
        <time>2020-06-06T13:50:29Z</time>
      </trkpt>
      <trkpt lat="47.66389" lon="-2.88919">
        <ele>50.6</ele>
        <time>2020-06-06T13:50:30Z</time>
      </trkpt>
      <trkpt lat="47.6639" lon="-2.88928">
        <ele>50.6</ele>
        <time>2020-06-06T13:50:31Z</time>
      </trkpt>
      <trkpt lat="47.66391" lon="-2.88937">
        <ele>50.6</ele>
        <time>2020-06-06T13:50:32Z</time>
      </trkpt>
      <trkpt lat="47.66393" lon="-2.88947">
        <ele>50.5</ele>
        <time>2020-06-06T13:50:33Z</time>
      </trkpt>
      <trkpt lat="47.66394" lon="-2.88956">
        <ele>50.5</ele>
        <time>2020-06-06T13:50:34Z</time>
      </trkpt>
      <trkpt lat="47.66395" lon="-2.88964">
        <ele>50.5</ele>
        <time>2020-06-06T13:50:35Z</time>
      </trkpt>
      <trkpt lat="47.66396" lon="-2.88972">
        <ele>50.5</ele>
        <time>2020-06-06T13:50:36Z</time>
      </trkpt>
      <trkpt lat="47.66397" lon="-2.88981">
        <ele>50.4</ele>
        <time>2020-06-06T13:50:37Z</time>
      </trkpt>
      <trkpt lat="47.66398" lon="-2.88991">
        <ele>50.4</ele>
        <time>2020-06-06T13:50:38Z</time>
      </trkpt>
      <trkpt lat="47.664" lon="-2.89001">
        <ele>50.3</ele>
        <time>2020-06-06T13:50:39Z</time>
      </trkpt>
      <trkpt lat="47.66402" lon="-2.89011">
        <ele>50.2</ele>
        <time>2020-06-06T13:50:40Z</time>
      </trkpt>
      <trkpt lat="47.66402" lon="-2.8902">
        <ele>50.2</ele>
        <time>2020-06-06T13:50:41Z</time>
      </trkpt>
      <trkpt lat="47.66404" lon="-2.8903">
        <ele>50.2</ele>
        <time>2020-06-06T13:50:42Z</time>
      </trkpt>
      <trkpt lat="47.66406" lon="-2.89041">
        <ele>50.1</ele>
        <time>2020-06-06T13:50:43Z</time>
      </trkpt>
      <trkpt lat="47.66407" lon="-2.89049">
        <ele>50.1</ele>
        <time>2020-06-06T13:50:44Z</time>
      </trkpt>
      <trkpt lat="47.66408" lon="-2.89058">
        <ele>50.1</ele>
        <time>2020-06-06T13:50:45Z</time>
      </trkpt>
      <trkpt lat="47.6641" lon="-2.89067">
        <ele>50</ele>
        <time>2020-06-06T13:50:46Z</time>
      </trkpt>
      <trkpt lat="47.6641" lon="-2.89076">
        <ele>49.9</ele>
        <time>2020-06-06T13:50:47Z</time>
      </trkpt>
      <trkpt lat="47.66411" lon="-2.89086">
        <ele>49.8</ele>
        <time>2020-06-06T13:50:48Z</time>
      </trkpt>
      <trkpt lat="47.66412" lon="-2.89095">
        <ele>49.7</ele>
        <time>2020-06-06T13:50:49Z</time>
      </trkpt>
      <trkpt lat="47.66413" lon="-2.89104">
        <ele>49.7</ele>
        <time>2020-06-06T13:50:50Z</time>
      </trkpt>
      <trkpt lat="47.66414" lon="-2.89115">
        <ele>49.6</ele>
        <time>2020-06-06T13:50:51Z</time>
      </trkpt>
      <trkpt lat="47.66415" lon="-2.89125">
        <ele>49.6</ele>
        <time>2020-06-06T13:50:52Z</time>
      </trkpt>
      <trkpt lat="47.66417" lon="-2.89134">
        <ele>49.5</ele>
        <time>2020-06-06T13:50:53Z</time>
      </trkpt>
      <trkpt lat="47.66418" lon="-2.89143">
        <ele>49.5</ele>
        <time>2020-06-06T13:50:54Z</time>
      </trkpt>
      <trkpt lat="47.6642" lon="-2.89152">
        <ele>49.4</ele>
        <time>2020-06-06T13:50:55Z</time>
      </trkpt>
      <trkpt lat="47.66422" lon="-2.8916">
        <ele>49.3</ele>
        <time>2020-06-06T13:50:56Z</time>
      </trkpt>
      <trkpt lat="47.66423" lon="-2.89169">
        <ele>49.3</ele>
        <time>2020-06-06T13:50:57Z</time>
      </trkpt>
      <trkpt lat="47.66425" lon="-2.89178">
        <ele>49.2</ele>
        <time>2020-06-06T13:50:58Z</time>
      </trkpt>
      <trkpt lat="47.66427" lon="-2.89186">
        <ele>49.1</ele>
        <time>2020-06-06T13:50:59Z</time>
      </trkpt>
      <trkpt lat="47.66429" lon="-2.89194">
        <ele>49.1</ele>
        <time>2020-06-06T13:51:00Z</time>
      </trkpt>
      <trkpt lat="47.66431" lon="-2.89202">
        <ele>49</ele>
        <time>2020-06-06T13:51:01Z</time>
      </trkpt>
      <trkpt lat="47.66433" lon="-2.89211">
        <ele>49</ele>
        <time>2020-06-06T13:51:02Z</time>
      </trkpt>
      <trkpt lat="47.66435" lon="-2.89221">
        <ele>48.9</ele>
        <time>2020-06-06T13:51:03Z</time>
      </trkpt>
      <trkpt lat="47.66437" lon="-2.8923">
        <ele>48.8</ele>
        <time>2020-06-06T13:51:04Z</time>
      </trkpt>
      <trkpt lat="47.66439" lon="-2.89238">
        <ele>48.8</ele>
        <time>2020-06-06T13:51:05Z</time>
      </trkpt>
      <trkpt lat="47.66441" lon="-2.89246">
        <ele>48.8</ele>
        <time>2020-06-06T13:51:06Z</time>
      </trkpt>
      <trkpt lat="47.66443" lon="-2.89254">
        <ele>48.7</ele>
        <time>2020-06-06T13:51:07Z</time>
      </trkpt>
      <trkpt lat="47.66446" lon="-2.89264">
        <ele>48.7</ele>
        <time>2020-06-06T13:51:08Z</time>
      </trkpt>
      <trkpt lat="47.66449" lon="-2.89273">
        <ele>48.7</ele>
        <time>2020-06-06T13:51:09Z</time>
      </trkpt>
      <trkpt lat="47.66451" lon="-2.89282">
        <ele>48.7</ele>
        <time>2020-06-06T13:51:10Z</time>
      </trkpt>
      <trkpt lat="47.66454" lon="-2.8929">
        <ele>48.8</ele>
        <time>2020-06-06T13:51:11Z</time>
      </trkpt>
      <trkpt lat="47.66456" lon="-2.893">
        <ele>48.9</ele>
        <time>2020-06-06T13:51:12Z</time>
      </trkpt>
      <trkpt lat="47.66459" lon="-2.8931">
        <ele>49</ele>
        <time>2020-06-06T13:51:13Z</time>
      </trkpt>
      <trkpt lat="47.66462" lon="-2.89319">
        <ele>49.1</ele>
        <time>2020-06-06T13:51:14Z</time>
      </trkpt>
      <trkpt lat="47.66465" lon="-2.89329">
        <ele>49.2</ele>
        <time>2020-06-06T13:51:15Z</time>
      </trkpt>
      <trkpt lat="47.66468" lon="-2.89339">
        <ele>49.3</ele>
        <time>2020-06-06T13:51:16Z</time>
      </trkpt>
      <trkpt lat="47.66471" lon="-2.89349">
        <ele>49.5</ele>
        <time>2020-06-06T13:51:17Z</time>
      </trkpt>
      <trkpt lat="47.66474" lon="-2.89359">
        <ele>49.8</ele>
        <time>2020-06-06T13:51:18Z</time>
      </trkpt>
      <trkpt lat="47.66478" lon="-2.89369">
        <ele>50</ele>
        <time>2020-06-06T13:51:19Z</time>
      </trkpt>
      <trkpt lat="47.66481" lon="-2.89379">
        <ele>50.2</ele>
        <time>2020-06-06T13:51:20Z</time>
      </trkpt>
      <trkpt lat="47.66484" lon="-2.89388">
        <ele>50.4</ele>
        <time>2020-06-06T13:51:21Z</time>
      </trkpt>
      <trkpt lat="47.66487" lon="-2.89397">
        <ele>50.7</ele>
        <time>2020-06-06T13:51:22Z</time>
      </trkpt>
      <trkpt lat="47.6649" lon="-2.89406">
        <ele>50.9</ele>
        <time>2020-06-06T13:51:23Z</time>
      </trkpt>
      <trkpt lat="47.66493" lon="-2.89414">
        <ele>51.2</ele>
        <time>2020-06-06T13:51:24Z</time>
      </trkpt>
      <trkpt lat="47.66496" lon="-2.89422">
        <ele>51.3</ele>
        <time>2020-06-06T13:51:25Z</time>
      </trkpt>
      <trkpt lat="47.66499" lon="-2.8943">
        <ele>51.4</ele>
        <time>2020-06-06T13:51:26Z</time>
      </trkpt>
      <trkpt lat="47.66503" lon="-2.89438">
        <ele>51.6</ele>
        <time>2020-06-06T13:51:27Z</time>
      </trkpt>
      <trkpt lat="47.66505" lon="-2.89446">
        <ele>51.7</ele>
        <time>2020-06-06T13:51:28Z</time>
      </trkpt>
      <trkpt lat="47.66508" lon="-2.89455">
        <ele>51.9</ele>
        <time>2020-06-06T13:51:29Z</time>
      </trkpt>
      <trkpt lat="47.6651" lon="-2.89464">
        <ele>52</ele>
        <time>2020-06-06T13:51:30Z</time>
      </trkpt>
      <trkpt lat="47.66513" lon="-2.89472">
        <ele>52.1</ele>
        <time>2020-06-06T13:51:31Z</time>
      </trkpt>
      <trkpt lat="47.66515" lon="-2.89481">
        <ele>52.3</ele>
        <time>2020-06-06T13:51:32Z</time>
      </trkpt>
      <trkpt lat="47.66518" lon="-2.89489">
        <ele>52.4</ele>
        <time>2020-06-06T13:51:33Z</time>
      </trkpt>
      <trkpt lat="47.66521" lon="-2.89497">
        <ele>52.5</ele>
        <time>2020-06-06T13:51:34Z</time>
      </trkpt>
      <trkpt lat="47.66524" lon="-2.89505">
        <ele>52.6</ele>
        <time>2020-06-06T13:51:35Z</time>
      </trkpt>
      <trkpt lat="47.66527" lon="-2.89512">
        <ele>52.7</ele>
        <time>2020-06-06T13:51:36Z</time>
      </trkpt>
      <trkpt lat="47.6653" lon="-2.89519">
        <ele>52.9</ele>
        <time>2020-06-06T13:51:37Z</time>
      </trkpt>
      <trkpt lat="47.66533" lon="-2.89526">
        <ele>53</ele>
        <time>2020-06-06T13:51:38Z</time>
      </trkpt>
      <trkpt lat="47.66535" lon="-2.89532">
        <ele>53.2</ele>
        <time>2020-06-06T13:51:39Z</time>
      </trkpt>
      <trkpt lat="47.66538" lon="-2.89539">
        <ele>53.3</ele>
        <time>2020-06-06T13:51:40Z</time>
      </trkpt>
      <trkpt lat="47.66541" lon="-2.89545">
        <ele>53.4</ele>
        <time>2020-06-06T13:51:41Z</time>
      </trkpt>
      <trkpt lat="47.66544" lon="-2.89552">
        <ele>53.5</ele>
        <time>2020-06-06T13:51:42Z</time>
      </trkpt>
      <trkpt lat="47.66546" lon="-2.89557">
        <ele>53.6</ele>
        <time>2020-06-06T13:51:43Z</time>
      </trkpt>
      <trkpt lat="47.66548" lon="-2.89562">
        <ele>53.7</ele>
        <time>2020-06-06T13:51:44Z</time>
      </trkpt>
      <trkpt lat="47.66552" lon="-2.89564">
        <ele>53.9</ele>
        <time>2020-06-06T13:51:45Z</time>
      </trkpt>
      <trkpt lat="47.66555" lon="-2.89563">
        <ele>54</ele>
        <time>2020-06-06T13:51:46Z</time>
      </trkpt>
      <trkpt lat="47.66558" lon="-2.89564">
        <ele>54.1</ele>
        <time>2020-06-06T13:51:47Z</time>
      </trkpt>
      <trkpt lat="47.66561" lon="-2.89566">
        <ele>54.2</ele>
        <time>2020-06-06T13:51:48Z</time>
      </trkpt>
      <trkpt lat="47.66564" lon="-2.8957">
        <ele>54.2</ele>
        <time>2020-06-06T13:51:49Z</time>
      </trkpt>
      <trkpt lat="47.66566" lon="-2.89575">
        <ele>54.3</ele>
        <time>2020-06-06T13:51:50Z</time>
      </trkpt>
      <trkpt lat="47.66569" lon="-2.89581">
        <ele>54.3</ele>
        <time>2020-06-06T13:51:51Z</time>
      </trkpt>
      <trkpt lat="47.66571" lon="-2.89586">
        <ele>54.4</ele>
        <time>2020-06-06T13:51:52Z</time>
      </trkpt>
      <trkpt lat="47.66573" lon="-2.89591">
        <ele>54.5</ele>
        <time>2020-06-06T13:51:53Z</time>
      </trkpt>
      <trkpt lat="47.66573" lon="-2.89593">
        <ele>54.5</ele>
        <time>2020-06-06T13:51:54Z</time>
      </trkpt>
      <trkpt lat="47.66573" lon="-2.89599">
        <ele>54.5</ele>
        <time>2020-06-06T13:51:55Z</time>
      </trkpt>
      <trkpt lat="47.66574" lon="-2.89601">
        <ele>54.5</ele>
        <time>2020-06-06T13:51:56Z</time>
      </trkpt>
      <trkpt lat="47.66574" lon="-2.89605">
        <ele>54.6</ele>
        <time>2020-06-06T13:51:57Z</time>
      </trkpt>
      <trkpt lat="47.66574" lon="-2.8961">
        <ele>54.5</ele>
        <time>2020-06-06T13:51:58Z</time>
      </trkpt>
      <trkpt lat="47.66572" lon="-2.89615">
        <ele>54.5</ele>
        <time>2020-06-06T13:51:59Z</time>
      </trkpt>
      <trkpt lat="47.66571" lon="-2.89616">
        <ele>54.5</ele>
        <time>2020-06-06T13:52:00Z</time>
      </trkpt>
      <trkpt lat="47.66569" lon="-2.89619">
        <ele>54.6</ele>
        <time>2020-06-06T13:52:01Z</time>
      </trkpt>
      <trkpt lat="47.66567" lon="-2.89623">
        <ele>54.5</ele>
        <time>2020-06-06T13:52:02Z</time>
      </trkpt>
      <trkpt lat="47.66567" lon="-2.89624">
        <ele>54.5</ele>
        <time>2020-06-06T13:52:03Z</time>
      </trkpt>
      <trkpt lat="47.66568" lon="-2.89629">
        <ele>54.5</ele>
        <time>2020-06-06T13:52:04Z</time>
      </trkpt>
      <trkpt lat="47.66569" lon="-2.89631">
        <ele>54.5</ele>
        <time>2020-06-06T13:52:05Z</time>
      </trkpt>
      <trkpt lat="47.66573" lon="-2.89632">
        <ele>54.5</ele>
        <time>2020-06-06T13:52:06Z</time>
      </trkpt>
      <trkpt lat="47.66577" lon="-2.89634">
        <ele>54.4</ele>
        <time>2020-06-06T13:52:07Z</time>
      </trkpt>
      <trkpt lat="47.66581" lon="-2.89637">
        <ele>54.3</ele>
        <time>2020-06-06T13:52:08Z</time>
      </trkpt>
      <trkpt lat="47.66584" lon="-2.89641">
        <ele>54.3</ele>
        <time>2020-06-06T13:52:09Z</time>
      </trkpt>
      <trkpt lat="47.66588" lon="-2.89644">
        <ele>54.3</ele>
        <time>2020-06-06T13:52:10Z</time>
      </trkpt>
      <trkpt lat="47.66592" lon="-2.89648">
        <ele>54.2</ele>
        <time>2020-06-06T13:52:11Z</time>
      </trkpt>
      <trkpt lat="47.66596" lon="-2.89653">
        <ele>54.1</ele>
        <time>2020-06-06T13:52:12Z</time>
      </trkpt>
      <trkpt lat="47.666" lon="-2.89656">
        <ele>54.1</ele>
        <time>2020-06-06T13:52:13Z</time>
      </trkpt>
      <trkpt lat="47.66605" lon="-2.89659">
        <ele>54.1</ele>
        <time>2020-06-06T13:52:14Z</time>
      </trkpt>
      <trkpt lat="47.66609" lon="-2.89663">
        <ele>54.1</ele>
        <time>2020-06-06T13:52:15Z</time>
      </trkpt>
      <trkpt lat="47.66612" lon="-2.89667">
        <ele>54.1</ele>
        <time>2020-06-06T13:52:16Z</time>
      </trkpt>
      <trkpt lat="47.66615" lon="-2.89671">
        <ele>54.2</ele>
        <time>2020-06-06T13:52:17Z</time>
      </trkpt>
      <trkpt lat="47.66618" lon="-2.89678">
        <ele>54.2</ele>
        <time>2020-06-06T13:52:18Z</time>
      </trkpt>
      <trkpt lat="47.66621" lon="-2.89683">
        <ele>54.2</ele>
        <time>2020-06-06T13:52:19Z</time>
      </trkpt>
      <trkpt lat="47.66623" lon="-2.89687">
        <ele>54.2</ele>
        <time>2020-06-06T13:52:20Z</time>
      </trkpt>
      <trkpt lat="47.66626" lon="-2.89692">
        <ele>54.2</ele>
        <time>2020-06-06T13:52:21Z</time>
      </trkpt>
      <trkpt lat="47.66629" lon="-2.89697">
        <ele>54.1</ele>
        <time>2020-06-06T13:52:22Z</time>
      </trkpt>
      <trkpt lat="47.66631" lon="-2.89702">
        <ele>54.1</ele>
        <time>2020-06-06T13:52:23Z</time>
      </trkpt>
      <trkpt lat="47.66634" lon="-2.89707">
        <ele>54</ele>
        <time>2020-06-06T13:52:24Z</time>
      </trkpt>
      <trkpt lat="47.66636" lon="-2.89711">
        <ele>53.9</ele>
        <time>2020-06-06T13:52:25Z</time>
      </trkpt>
      <trkpt lat="47.66637" lon="-2.89715">
        <ele>53.9</ele>
        <time>2020-06-06T13:52:26Z</time>
      </trkpt>
      <trkpt lat="47.66639" lon="-2.8972">
        <ele>53.8</ele>
        <time>2020-06-06T13:52:27Z</time>
      </trkpt>
      <trkpt lat="47.66641" lon="-2.89725">
        <ele>53.8</ele>
        <time>2020-06-06T13:52:28Z</time>
      </trkpt>
      <trkpt lat="47.66643" lon="-2.8973">
        <ele>53.7</ele>
        <time>2020-06-06T13:52:29Z</time>
      </trkpt>
      <trkpt lat="47.66645" lon="-2.89734">
        <ele>53.7</ele>
        <time>2020-06-06T13:52:30Z</time>
      </trkpt>
      <trkpt lat="47.66647" lon="-2.89737">
        <ele>53.7</ele>
        <time>2020-06-06T13:52:31Z</time>
      </trkpt>
      <trkpt lat="47.66649" lon="-2.89743">
        <ele>53.7</ele>
        <time>2020-06-06T13:52:32Z</time>
      </trkpt>
      <trkpt lat="47.6665" lon="-2.89745">
        <ele>53.7</ele>
        <time>2020-06-06T13:52:33Z</time>
      </trkpt>
      <trkpt lat="47.66653" lon="-2.89749">
        <ele>53.6</ele>
        <time>2020-06-06T13:52:34Z</time>
      </trkpt>
      <trkpt lat="47.66655" lon="-2.89754">
        <ele>53.6</ele>
        <time>2020-06-06T13:52:35Z</time>
      </trkpt>
      <trkpt lat="47.66658" lon="-2.8976">
        <ele>53.6</ele>
        <time>2020-06-06T13:52:36Z</time>
      </trkpt>
      <trkpt lat="47.6666" lon="-2.89766">
        <ele>53.6</ele>
        <time>2020-06-06T13:52:37Z</time>
      </trkpt>
      <trkpt lat="47.66662" lon="-2.89772">
        <ele>53.6</ele>
        <time>2020-06-06T13:52:38Z</time>
      </trkpt>
      <trkpt lat="47.66664" lon="-2.89778">
        <ele>53.6</ele>
        <time>2020-06-06T13:52:39Z</time>
      </trkpt>
      <trkpt lat="47.66668" lon="-2.89786">
        <ele>53.6</ele>
        <time>2020-06-06T13:52:40Z</time>
      </trkpt>
      <trkpt lat="47.6667" lon="-2.89793">
        <ele>53.6</ele>
        <time>2020-06-06T13:52:41Z</time>
      </trkpt>
      <trkpt lat="47.66673" lon="-2.89801">
        <ele>53.6</ele>
        <time>2020-06-06T13:52:42Z</time>
      </trkpt>
      <trkpt lat="47.66674" lon="-2.89809">
        <ele>53.6</ele>
        <time>2020-06-06T13:52:43Z</time>
      </trkpt>
      <trkpt lat="47.66676" lon="-2.89819">
        <ele>53.7</ele>
        <time>2020-06-06T13:52:44Z</time>
      </trkpt>
      <trkpt lat="47.66677" lon="-2.89826">
        <ele>53.7</ele>
        <time>2020-06-06T13:52:45Z</time>
      </trkpt>
      <trkpt lat="47.66678" lon="-2.89832">
        <ele>53.8</ele>
        <time>2020-06-06T13:52:46Z</time>
      </trkpt>
      <trkpt lat="47.66678" lon="-2.89839">
        <ele>53.9</ele>
        <time>2020-06-06T13:52:47Z</time>
      </trkpt>
      <trkpt lat="47.66679" lon="-2.89845">
        <ele>54</ele>
        <time>2020-06-06T13:52:48Z</time>
      </trkpt>
      <trkpt lat="47.6668" lon="-2.8985">
        <ele>54</ele>
        <time>2020-06-06T13:52:49Z</time>
      </trkpt>
      <trkpt lat="47.6668" lon="-2.89852">
        <ele>54.1</ele>
        <time>2020-06-06T13:52:50Z</time>
      </trkpt>
      <trkpt lat="47.66681" lon="-2.89858">
        <ele>54.1</ele>
        <time>2020-06-06T13:52:51Z</time>
      </trkpt>
      <trkpt lat="47.66682" lon="-2.89863">
        <ele>54.2</ele>
        <time>2020-06-06T13:52:52Z</time>
      </trkpt>
      <trkpt lat="47.66682" lon="-2.89868">
        <ele>54.3</ele>
        <time>2020-06-06T13:52:53Z</time>
      </trkpt>
      <trkpt lat="47.66684" lon="-2.89874">
        <ele>54.2</ele>
        <time>2020-06-06T13:52:54Z</time>
      </trkpt>
      <trkpt lat="47.66685" lon="-2.89879">
        <ele>54.1</ele>
        <time>2020-06-06T13:52:55Z</time>
      </trkpt>
      <trkpt lat="47.66686" lon="-2.89884">
        <ele>54</ele>
        <time>2020-06-06T13:52:56Z</time>
      </trkpt>
      <trkpt lat="47.66686" lon="-2.89892">
        <ele>53.8</ele>
        <time>2020-06-06T13:52:57Z</time>
      </trkpt>
      <trkpt lat="47.66687" lon="-2.89898">
        <ele>53.7</ele>
        <time>2020-06-06T13:52:58Z</time>
      </trkpt>
      <trkpt lat="47.66688" lon="-2.89904">
        <ele>53.5</ele>
        <time>2020-06-06T13:52:59Z</time>
      </trkpt>
      <trkpt lat="47.66688" lon="-2.8991">
        <ele>53.4</ele>
        <time>2020-06-06T13:53:00Z</time>
      </trkpt>
      <trkpt lat="47.66689" lon="-2.89917">
        <ele>53.2</ele>
        <time>2020-06-06T13:53:01Z</time>
      </trkpt>
      <trkpt lat="47.6669" lon="-2.89923">
        <ele>53</ele>
        <time>2020-06-06T13:53:02Z</time>
      </trkpt>
      <trkpt lat="47.66691" lon="-2.89931">
        <ele>52.8</ele>
        <time>2020-06-06T13:53:03Z</time>
      </trkpt>
      <trkpt lat="47.66691" lon="-2.89938">
        <ele>52.7</ele>
        <time>2020-06-06T13:53:04Z</time>
      </trkpt>
      <trkpt lat="47.66692" lon="-2.89946">
        <ele>52.5</ele>
        <time>2020-06-06T13:53:05Z</time>
      </trkpt>
      <trkpt lat="47.66694" lon="-2.89955">
        <ele>52.3</ele>
        <time>2020-06-06T13:53:06Z</time>
      </trkpt>
      <trkpt lat="47.66695" lon="-2.89963">
        <ele>52.1</ele>
        <time>2020-06-06T13:53:07Z</time>
      </trkpt>
      <trkpt lat="47.66696" lon="-2.89972">
        <ele>51.9</ele>
        <time>2020-06-06T13:53:08Z</time>
      </trkpt>
      <trkpt lat="47.66697" lon="-2.8998">
        <ele>51.7</ele>
        <time>2020-06-06T13:53:09Z</time>
      </trkpt>
      <trkpt lat="47.66698" lon="-2.89989">
        <ele>51.5</ele>
        <time>2020-06-06T13:53:10Z</time>
      </trkpt>
      <trkpt lat="47.66699" lon="-2.89998">
        <ele>51.3</ele>
        <time>2020-06-06T13:53:11Z</time>
      </trkpt>
      <trkpt lat="47.66701" lon="-2.90008">
        <ele>51.1</ele>
        <time>2020-06-06T13:53:12Z</time>
      </trkpt>
      <trkpt lat="47.66702" lon="-2.90018">
        <ele>50.8</ele>
        <time>2020-06-06T13:53:13Z</time>
      </trkpt>
      <trkpt lat="47.66703" lon="-2.90027">
        <ele>50.6</ele>
        <time>2020-06-06T13:53:14Z</time>
      </trkpt>
      <trkpt lat="47.66705" lon="-2.90037">
        <ele>50.4</ele>
        <time>2020-06-06T13:53:15Z</time>
      </trkpt>
      <trkpt lat="47.66706" lon="-2.90047">
        <ele>50.2</ele>
        <time>2020-06-06T13:53:16Z</time>
      </trkpt>
      <trkpt lat="47.66707" lon="-2.90057">
        <ele>50</ele>
        <time>2020-06-06T13:53:17Z</time>
      </trkpt>
      <trkpt lat="47.66709" lon="-2.90067">
        <ele>49.8</ele>
        <time>2020-06-06T13:53:18Z</time>
      </trkpt>
      <trkpt lat="47.6671" lon="-2.90077">
        <ele>49.6</ele>
        <time>2020-06-06T13:53:19Z</time>
      </trkpt>
      <trkpt lat="47.66712" lon="-2.90087">
        <ele>49.4</ele>
        <time>2020-06-06T13:53:20Z</time>
      </trkpt>
      <trkpt lat="47.66713" lon="-2.90097">
        <ele>49.3</ele>
        <time>2020-06-06T13:53:21Z</time>
      </trkpt>
      <trkpt lat="47.66715" lon="-2.90107">
        <ele>49.1</ele>
        <time>2020-06-06T13:53:22Z</time>
      </trkpt>
      <trkpt lat="47.66716" lon="-2.90118">
        <ele>49</ele>
        <time>2020-06-06T13:53:23Z</time>
      </trkpt>
      <trkpt lat="47.66717" lon="-2.90128">
        <ele>48.9</ele>
        <time>2020-06-06T13:53:24Z</time>
      </trkpt>
      <trkpt lat="47.66719" lon="-2.90138">
        <ele>48.8</ele>
        <time>2020-06-06T13:53:25Z</time>
      </trkpt>
      <trkpt lat="47.6672" lon="-2.90147">
        <ele>48.8</ele>
        <time>2020-06-06T13:53:26Z</time>
      </trkpt>
      <trkpt lat="47.6672" lon="-2.90157">
        <ele>48.7</ele>
        <time>2020-06-06T13:53:27Z</time>
      </trkpt>
      <trkpt lat="47.66719" lon="-2.90166">
        <ele>48.7</ele>
        <time>2020-06-06T13:53:28Z</time>
      </trkpt>
      <trkpt lat="47.66718" lon="-2.90175">
        <ele>48.6</ele>
        <time>2020-06-06T13:53:29Z</time>
      </trkpt>
      <trkpt lat="47.66716" lon="-2.90183">
        <ele>48.6</ele>
        <time>2020-06-06T13:53:30Z</time>
      </trkpt>
      <trkpt lat="47.66714" lon="-2.90191">
        <ele>48.6</ele>
        <time>2020-06-06T13:53:31Z</time>
      </trkpt>
      <trkpt lat="47.6671" lon="-2.90198">
        <ele>48.5</ele>
        <time>2020-06-06T13:53:32Z</time>
      </trkpt>
      <trkpt lat="47.66707" lon="-2.90205">
        <ele>48.5</ele>
        <time>2020-06-06T13:53:33Z</time>
      </trkpt>
      <trkpt lat="47.66704" lon="-2.90212">
        <ele>48.5</ele>
        <time>2020-06-06T13:53:34Z</time>
      </trkpt>
      <trkpt lat="47.667" lon="-2.90219">
        <ele>48.5</ele>
        <time>2020-06-06T13:53:35Z</time>
      </trkpt>
      <trkpt lat="47.66697" lon="-2.90226">
        <ele>48.5</ele>
        <time>2020-06-06T13:53:36Z</time>
      </trkpt>
      <trkpt lat="47.66694" lon="-2.90232">
        <ele>48.5</ele>
        <time>2020-06-06T13:53:38Z</time>
      </trkpt>
      <trkpt lat="47.66692" lon="-2.90239">
        <ele>48.5</ele>
        <time>2020-06-06T13:53:39Z</time>
      </trkpt>
      <trkpt lat="47.6669" lon="-2.90246">
        <ele>48.5</ele>
        <time>2020-06-06T13:53:40Z</time>
      </trkpt>
      <trkpt lat="47.66691" lon="-2.90254">
        <ele>48.4</ele>
        <time>2020-06-06T13:53:41Z</time>
      </trkpt>
      <trkpt lat="47.66692" lon="-2.90262">
        <ele>48.4</ele>
        <time>2020-06-06T13:53:42Z</time>
      </trkpt>
      <trkpt lat="47.66694" lon="-2.90269">
        <ele>48.4</ele>
        <time>2020-06-06T13:53:43Z</time>
      </trkpt>
      <trkpt lat="47.66695" lon="-2.90277">
        <ele>48.3</ele>
        <time>2020-06-06T13:53:44Z</time>
      </trkpt>
      <trkpt lat="47.66696" lon="-2.90286">
        <ele>48.3</ele>
        <time>2020-06-06T13:53:45Z</time>
      </trkpt>
      <trkpt lat="47.66697" lon="-2.90294">
        <ele>48.3</ele>
        <time>2020-06-06T13:53:46Z</time>
      </trkpt>
      <trkpt lat="47.66698" lon="-2.90303">
        <ele>48.3</ele>
        <time>2020-06-06T13:53:47Z</time>
      </trkpt>
      <trkpt lat="47.66699" lon="-2.90311">
        <ele>48.3</ele>
        <time>2020-06-06T13:53:48Z</time>
      </trkpt>
      <trkpt lat="47.66699" lon="-2.9032">
        <ele>48.3</ele>
        <time>2020-06-06T13:53:49Z</time>
      </trkpt>
      <trkpt lat="47.667" lon="-2.90328">
        <ele>48.3</ele>
        <time>2020-06-06T13:53:50Z</time>
      </trkpt>
      <trkpt lat="47.66701" lon="-2.90336">
        <ele>48.3</ele>
        <time>2020-06-06T13:53:51Z</time>
      </trkpt>
      <trkpt lat="47.66702" lon="-2.90344">
        <ele>48.3</ele>
        <time>2020-06-06T13:53:52Z</time>
      </trkpt>
      <trkpt lat="47.66703" lon="-2.90351">
        <ele>48.3</ele>
        <time>2020-06-06T13:53:53Z</time>
      </trkpt>
      <trkpt lat="47.66705" lon="-2.90358">
        <ele>48.2</ele>
        <time>2020-06-06T13:53:54Z</time>
      </trkpt>
      <trkpt lat="47.66706" lon="-2.90365">
        <ele>48.2</ele>
        <time>2020-06-06T13:53:55Z</time>
      </trkpt>
      <trkpt lat="47.66708" lon="-2.90373">
        <ele>48.2</ele>
        <time>2020-06-06T13:53:56Z</time>
      </trkpt>
      <trkpt lat="47.66709" lon="-2.90381">
        <ele>48.2</ele>
        <time>2020-06-06T13:53:57Z</time>
      </trkpt>
      <trkpt lat="47.66709" lon="-2.90389">
        <ele>48.2</ele>
        <time>2020-06-06T13:53:58Z</time>
      </trkpt>
      <trkpt lat="47.6671" lon="-2.90398">
        <ele>48.1</ele>
        <time>2020-06-06T13:53:59Z</time>
      </trkpt>
      <trkpt lat="47.6671" lon="-2.90407">
        <ele>48.1</ele>
        <time>2020-06-06T13:54:00Z</time>
      </trkpt>
      <trkpt lat="47.66713" lon="-2.90415">
        <ele>48.1</ele>
        <time>2020-06-06T13:54:01Z</time>
      </trkpt>
      <trkpt lat="47.66713" lon="-2.90423">
        <ele>48.1</ele>
        <time>2020-06-06T13:54:02Z</time>
      </trkpt>
      <trkpt lat="47.66715" lon="-2.90432">
        <ele>48.1</ele>
        <time>2020-06-06T13:54:03Z</time>
      </trkpt>
      <trkpt lat="47.66715" lon="-2.9044">
        <ele>48</ele>
        <time>2020-06-06T13:54:04Z</time>
      </trkpt>
      <trkpt lat="47.66715" lon="-2.90449">
        <ele>48</ele>
        <time>2020-06-06T13:54:05Z</time>
      </trkpt>
      <trkpt lat="47.66716" lon="-2.90457">
        <ele>48</ele>
        <time>2020-06-06T13:54:06Z</time>
      </trkpt>
      <trkpt lat="47.66717" lon="-2.90465">
        <ele>48</ele>
        <time>2020-06-06T13:54:07Z</time>
      </trkpt>
      <trkpt lat="47.66718" lon="-2.90473">
        <ele>48</ele>
        <time>2020-06-06T13:54:08Z</time>
      </trkpt>
      <trkpt lat="47.66719" lon="-2.90481">
        <ele>48</ele>
        <time>2020-06-06T13:54:09Z</time>
      </trkpt>
      <trkpt lat="47.6672" lon="-2.9049">
        <ele>48</ele>
        <time>2020-06-06T13:54:10Z</time>
      </trkpt>
      <trkpt lat="47.66722" lon="-2.90498">
        <ele>48</ele>
        <time>2020-06-06T13:54:11Z</time>
      </trkpt>
      <trkpt lat="47.66724" lon="-2.90506">
        <ele>48</ele>
        <time>2020-06-06T13:54:12Z</time>
      </trkpt>
      <trkpt lat="47.66725" lon="-2.90514">
        <ele>47.9</ele>
        <time>2020-06-06T13:54:13Z</time>
      </trkpt>
      <trkpt lat="47.66726" lon="-2.90523">
        <ele>47.9</ele>
        <time>2020-06-06T13:54:14Z</time>
      </trkpt>
      <trkpt lat="47.66727" lon="-2.90531">
        <ele>47.9</ele>
        <time>2020-06-06T13:54:15Z</time>
      </trkpt>
      <trkpt lat="47.66728" lon="-2.9054">
        <ele>47.9</ele>
        <time>2020-06-06T13:54:16Z</time>
      </trkpt>
      <trkpt lat="47.6673" lon="-2.90548">
        <ele>47.9</ele>
        <time>2020-06-06T13:54:17Z</time>
      </trkpt>
      <trkpt lat="47.66732" lon="-2.90556">
        <ele>47.8</ele>
        <time>2020-06-06T13:54:18Z</time>
      </trkpt>
      <trkpt lat="47.66734" lon="-2.90565">
        <ele>47.8</ele>
        <time>2020-06-06T13:54:19Z</time>
      </trkpt>
      <trkpt lat="47.66735" lon="-2.90573">
        <ele>47.8</ele>
        <time>2020-06-06T13:54:20Z</time>
      </trkpt>
      <trkpt lat="47.66736" lon="-2.90582">
        <ele>47.8</ele>
        <time>2020-06-06T13:54:21Z</time>
      </trkpt>
      <trkpt lat="47.66738" lon="-2.9059">
        <ele>47.8</ele>
        <time>2020-06-06T13:54:22Z</time>
      </trkpt>
      <trkpt lat="47.66738" lon="-2.90599">
        <ele>47.8</ele>
        <time>2020-06-06T13:54:23Z</time>
      </trkpt>
      <trkpt lat="47.66738" lon="-2.90608">
        <ele>47.7</ele>
        <time>2020-06-06T13:54:24Z</time>
      </trkpt>
      <trkpt lat="47.66737" lon="-2.90616">
        <ele>47.6</ele>
        <time>2020-06-06T13:54:25Z</time>
      </trkpt>
      <trkpt lat="47.66737" lon="-2.90625">
        <ele>47.6</ele>
        <time>2020-06-06T13:54:26Z</time>
      </trkpt>
      <trkpt lat="47.66737" lon="-2.90633">
        <ele>47.5</ele>
        <time>2020-06-06T13:54:27Z</time>
      </trkpt>
      <trkpt lat="47.66736" lon="-2.90641">
        <ele>47.4</ele>
        <time>2020-06-06T13:54:28Z</time>
      </trkpt>
      <trkpt lat="47.66735" lon="-2.90649">
        <ele>47.2</ele>
        <time>2020-06-06T13:54:29Z</time>
      </trkpt>
      <trkpt lat="47.66733" lon="-2.90657">
        <ele>47.1</ele>
        <time>2020-06-06T13:54:30Z</time>
      </trkpt>
      <trkpt lat="47.6673" lon="-2.90664">
        <ele>46.9</ele>
        <time>2020-06-06T13:54:31Z</time>
      </trkpt>
      <trkpt lat="47.66726" lon="-2.90671">
        <ele>46.8</ele>
        <time>2020-06-06T13:54:32Z</time>
      </trkpt>
      <trkpt lat="47.66723" lon="-2.90678">
        <ele>46.6</ele>
        <time>2020-06-06T13:54:33Z</time>
      </trkpt>
      <trkpt lat="47.6672" lon="-2.90685">
        <ele>46.4</ele>
        <time>2020-06-06T13:54:34Z</time>
      </trkpt>
      <trkpt lat="47.66716" lon="-2.90692">
        <ele>46.2</ele>
        <time>2020-06-06T13:54:35Z</time>
      </trkpt>
      <trkpt lat="47.66712" lon="-2.90699">
        <ele>46</ele>
        <time>2020-06-06T13:54:36Z</time>
      </trkpt>
      <trkpt lat="47.66707" lon="-2.90705">
        <ele>45.8</ele>
        <time>2020-06-06T13:54:37Z</time>
      </trkpt>
      <trkpt lat="47.66703" lon="-2.90712">
        <ele>45.6</ele>
        <time>2020-06-06T13:54:38Z</time>
      </trkpt>
      <trkpt lat="47.667" lon="-2.90719">
        <ele>45.3</ele>
        <time>2020-06-06T13:54:39Z</time>
      </trkpt>
      <trkpt lat="47.66696" lon="-2.90726">
        <ele>45.1</ele>
        <time>2020-06-06T13:54:40Z</time>
      </trkpt>
      <trkpt lat="47.66692" lon="-2.90734">
        <ele>44.9</ele>
        <time>2020-06-06T13:54:41Z</time>
      </trkpt>
      <trkpt lat="47.66688" lon="-2.90741">
        <ele>44.6</ele>
        <time>2020-06-06T13:54:42Z</time>
      </trkpt>
      <trkpt lat="47.66684" lon="-2.90749">
        <ele>44.3</ele>
        <time>2020-06-06T13:54:43Z</time>
      </trkpt>
      <trkpt lat="47.6668" lon="-2.90758">
        <ele>44</ele>
        <time>2020-06-06T13:54:44Z</time>
      </trkpt>
      <trkpt lat="47.66675" lon="-2.90767">
        <ele>43.7</ele>
        <time>2020-06-06T13:54:45Z</time>
      </trkpt>
      <trkpt lat="47.6667" lon="-2.90775">
        <ele>43.4</ele>
        <time>2020-06-06T13:54:46Z</time>
      </trkpt>
      <trkpt lat="47.66665" lon="-2.90783">
        <ele>43.1</ele>
        <time>2020-06-06T13:54:47Z</time>
      </trkpt>
      <trkpt lat="47.66662" lon="-2.90792">
        <ele>42.8</ele>
        <time>2020-06-06T13:54:48Z</time>
      </trkpt>
      <trkpt lat="47.66658" lon="-2.90801">
        <ele>42.5</ele>
        <time>2020-06-06T13:54:49Z</time>
      </trkpt>
      <trkpt lat="47.66654" lon="-2.9081">
        <ele>42.2</ele>
        <time>2020-06-06T13:54:50Z</time>
      </trkpt>
      <trkpt lat="47.66651" lon="-2.90819">
        <ele>42</ele>
        <time>2020-06-06T13:54:51Z</time>
      </trkpt>
      <trkpt lat="47.66648" lon="-2.90828">
        <ele>41.7</ele>
        <time>2020-06-06T13:54:52Z</time>
      </trkpt>
      <trkpt lat="47.66646" lon="-2.90838">
        <ele>41.5</ele>
        <time>2020-06-06T13:54:53Z</time>
      </trkpt>
      <trkpt lat="47.66644" lon="-2.90848">
        <ele>41.3</ele>
        <time>2020-06-06T13:54:54Z</time>
      </trkpt>
      <trkpt lat="47.66642" lon="-2.90858">
        <ele>41.1</ele>
        <time>2020-06-06T13:54:55Z</time>
      </trkpt>
      <trkpt lat="47.6664" lon="-2.90868">
        <ele>40.9</ele>
        <time>2020-06-06T13:54:56Z</time>
      </trkpt>
      <trkpt lat="47.66639" lon="-2.90879">
        <ele>40.8</ele>
        <time>2020-06-06T13:54:57Z</time>
      </trkpt>
      <trkpt lat="47.66639" lon="-2.9089">
        <ele>40.6</ele>
        <time>2020-06-06T13:54:58Z</time>
      </trkpt>
      <trkpt lat="47.66638" lon="-2.909">
        <ele>40.6</ele>
        <time>2020-06-06T13:54:59Z</time>
      </trkpt>
      <trkpt lat="47.66638" lon="-2.90911">
        <ele>40.5</ele>
        <time>2020-06-06T13:55:00Z</time>
      </trkpt>
      <trkpt lat="47.66638" lon="-2.90922">
        <ele>40.4</ele>
        <time>2020-06-06T13:55:01Z</time>
      </trkpt>
      <trkpt lat="47.66638" lon="-2.90932">
        <ele>40.3</ele>
        <time>2020-06-06T13:55:02Z</time>
      </trkpt>
      <trkpt lat="47.66638" lon="-2.90942">
        <ele>40.2</ele>
        <time>2020-06-06T13:55:03Z</time>
      </trkpt>
      <trkpt lat="47.66637" lon="-2.90952">
        <ele>40.1</ele>
        <time>2020-06-06T13:55:04Z</time>
      </trkpt>
      <trkpt lat="47.66637" lon="-2.90962">
        <ele>40</ele>
        <time>2020-06-06T13:55:05Z</time>
      </trkpt>
      <trkpt lat="47.66637" lon="-2.90972">
        <ele>39.9</ele>
        <time>2020-06-06T13:55:06Z</time>
      </trkpt>
      <trkpt lat="47.66637" lon="-2.90982">
        <ele>39.8</ele>
        <time>2020-06-06T13:55:07Z</time>
      </trkpt>
      <trkpt lat="47.66637" lon="-2.90992">
        <ele>39.7</ele>
        <time>2020-06-06T13:55:08Z</time>
      </trkpt>
      <trkpt lat="47.66637" lon="-2.91002">
        <ele>39.6</ele>
        <time>2020-06-06T13:55:09Z</time>
      </trkpt>
      <trkpt lat="47.66636" lon="-2.91011">
        <ele>39.6</ele>
        <time>2020-06-06T13:55:10Z</time>
      </trkpt>
      <trkpt lat="47.66635" lon="-2.9102">
        <ele>39.5</ele>
        <time>2020-06-06T13:55:11Z</time>
      </trkpt>
      <trkpt lat="47.66634" lon="-2.9103">
        <ele>39.4</ele>
        <time>2020-06-06T13:55:12Z</time>
      </trkpt>
      <trkpt lat="47.66634" lon="-2.91039">
        <ele>39.2</ele>
        <time>2020-06-06T13:55:13Z</time>
      </trkpt>
      <trkpt lat="47.66634" lon="-2.91049">
        <ele>39.1</ele>
        <time>2020-06-06T13:55:14Z</time>
      </trkpt>
      <trkpt lat="47.66634" lon="-2.91058">
        <ele>39</ele>
        <time>2020-06-06T13:55:15Z</time>
      </trkpt>
      <trkpt lat="47.66633" lon="-2.91067">
        <ele>38.8</ele>
        <time>2020-06-06T13:55:16Z</time>
      </trkpt>
      <trkpt lat="47.66633" lon="-2.91076">
        <ele>38.7</ele>
        <time>2020-06-06T13:55:17Z</time>
      </trkpt>
      <trkpt lat="47.66633" lon="-2.91094">
        <ele>38.5</ele>
        <time>2020-06-06T13:55:18Z</time>
      </trkpt>
      <trkpt lat="47.66631" lon="-2.91102">
        <ele>38.4</ele>
        <time>2020-06-06T13:55:19Z</time>
      </trkpt>
      <trkpt lat="47.6663" lon="-2.91111">
        <ele>38.2</ele>
        <time>2020-06-06T13:55:20Z</time>
      </trkpt>
      <trkpt lat="47.66631" lon="-2.91119">
        <ele>38.1</ele>
        <time>2020-06-06T13:55:21Z</time>
      </trkpt>
      <trkpt lat="47.66631" lon="-2.91127">
        <ele>38</ele>
        <time>2020-06-06T13:55:22Z</time>
      </trkpt>
      <trkpt lat="47.66632" lon="-2.91135">
        <ele>37.9</ele>
        <time>2020-06-06T13:55:23Z</time>
      </trkpt>
      <trkpt lat="47.66632" lon="-2.91143">
        <ele>37.8</ele>
        <time>2020-06-06T13:55:24Z</time>
      </trkpt>
      <trkpt lat="47.66632" lon="-2.9115">
        <ele>37.7</ele>
        <time>2020-06-06T13:55:25Z</time>
      </trkpt>
      <trkpt lat="47.66632" lon="-2.91158">
        <ele>37.6</ele>
        <time>2020-06-06T13:55:26Z</time>
      </trkpt>
      <trkpt lat="47.6663" lon="-2.91166">
        <ele>37.5</ele>
        <time>2020-06-06T13:55:27Z</time>
      </trkpt>
      <trkpt lat="47.6663" lon="-2.91174">
        <ele>37.4</ele>
        <time>2020-06-06T13:55:28Z</time>
      </trkpt>
      <trkpt lat="47.66631" lon="-2.91182">
        <ele>37.2</ele>
        <time>2020-06-06T13:55:29Z</time>
      </trkpt>
      <trkpt lat="47.66631" lon="-2.91191">
        <ele>37.1</ele>
        <time>2020-06-06T13:55:30Z</time>
      </trkpt>
      <trkpt lat="47.66632" lon="-2.91199">
        <ele>36.9</ele>
        <time>2020-06-06T13:55:31Z</time>
      </trkpt>
      <trkpt lat="47.66632" lon="-2.91207">
        <ele>36.8</ele>
        <time>2020-06-06T13:55:32Z</time>
      </trkpt>
      <trkpt lat="47.66633" lon="-2.91216">
        <ele>36.6</ele>
        <time>2020-06-06T13:55:33Z</time>
      </trkpt>
      <trkpt lat="47.66634" lon="-2.91225">
        <ele>36.5</ele>
        <time>2020-06-06T13:55:34Z</time>
      </trkpt>
      <trkpt lat="47.66634" lon="-2.91234">
        <ele>36.4</ele>
        <time>2020-06-06T13:55:35Z</time>
      </trkpt>
      <trkpt lat="47.66634" lon="-2.91243">
        <ele>36.2</ele>
        <time>2020-06-06T13:55:36Z</time>
      </trkpt>
      <trkpt lat="47.66634" lon="-2.91253">
        <ele>36.1</ele>
        <time>2020-06-06T13:55:37Z</time>
      </trkpt>
      <trkpt lat="47.66635" lon="-2.91263">
        <ele>35.9</ele>
        <time>2020-06-06T13:55:38Z</time>
      </trkpt>
      <trkpt lat="47.66635" lon="-2.91273">
        <ele>35.7</ele>
        <time>2020-06-06T13:55:39Z</time>
      </trkpt>
      <trkpt lat="47.66636" lon="-2.91282">
        <ele>35.5</ele>
        <time>2020-06-06T13:55:40Z</time>
      </trkpt>
      <trkpt lat="47.66636" lon="-2.91292">
        <ele>35.3</ele>
        <time>2020-06-06T13:55:41Z</time>
      </trkpt>
      <trkpt lat="47.66637" lon="-2.91302">
        <ele>35.2</ele>
        <time>2020-06-06T13:55:42Z</time>
      </trkpt>
      <trkpt lat="47.66638" lon="-2.91311">
        <ele>35</ele>
        <time>2020-06-06T13:55:43Z</time>
      </trkpt>
      <trkpt lat="47.66639" lon="-2.9132">
        <ele>34.8</ele>
        <time>2020-06-06T13:55:44Z</time>
      </trkpt>
      <trkpt lat="47.6664" lon="-2.9133">
        <ele>34.6</ele>
        <time>2020-06-06T13:55:45Z</time>
      </trkpt>
      <trkpt lat="47.66641" lon="-2.91339">
        <ele>34.4</ele>
        <time>2020-06-06T13:55:46Z</time>
      </trkpt>
      <trkpt lat="47.66642" lon="-2.91349">
        <ele>34.2</ele>
        <time>2020-06-06T13:55:47Z</time>
      </trkpt>
      <trkpt lat="47.66644" lon="-2.91359">
        <ele>34.1</ele>
        <time>2020-06-06T13:55:48Z</time>
      </trkpt>
      <trkpt lat="47.66645" lon="-2.91369">
        <ele>33.9</ele>
        <time>2020-06-06T13:55:49Z</time>
      </trkpt>
      <trkpt lat="47.66646" lon="-2.91379">
        <ele>33.6</ele>
        <time>2020-06-06T13:55:50Z</time>
      </trkpt>
      <trkpt lat="47.66648" lon="-2.91389">
        <ele>33.4</ele>
        <time>2020-06-06T13:55:51Z</time>
      </trkpt>
      <trkpt lat="47.6665" lon="-2.914">
        <ele>33.2</ele>
        <time>2020-06-06T13:55:52Z</time>
      </trkpt>
      <trkpt lat="47.66652" lon="-2.9141">
        <ele>32.9</ele>
        <time>2020-06-06T13:55:53Z</time>
      </trkpt>
      <trkpt lat="47.66654" lon="-2.9142">
        <ele>32.6</ele>
        <time>2020-06-06T13:55:54Z</time>
      </trkpt>
      <trkpt lat="47.66656" lon="-2.91431">
        <ele>32.4</ele>
        <time>2020-06-06T13:55:55Z</time>
      </trkpt>
      <trkpt lat="47.66658" lon="-2.91441">
        <ele>32.1</ele>
        <time>2020-06-06T13:55:56Z</time>
      </trkpt>
      <trkpt lat="47.6666" lon="-2.91452">
        <ele>31.8</ele>
        <time>2020-06-06T13:55:57Z</time>
      </trkpt>
      <trkpt lat="47.66662" lon="-2.91462">
        <ele>31.5</ele>
        <time>2020-06-06T13:55:58Z</time>
      </trkpt>
      <trkpt lat="47.66664" lon="-2.91472">
        <ele>31.2</ele>
        <time>2020-06-06T13:55:59Z</time>
      </trkpt>
      <trkpt lat="47.66666" lon="-2.91482">
        <ele>30.9</ele>
        <time>2020-06-06T13:56:00Z</time>
      </trkpt>
      <trkpt lat="47.66668" lon="-2.91492">
        <ele>30.5</ele>
        <time>2020-06-06T13:56:01Z</time>
      </trkpt>
      <trkpt lat="47.66671" lon="-2.91503">
        <ele>30.1</ele>
        <time>2020-06-06T13:56:02Z</time>
      </trkpt>
      <trkpt lat="47.66673" lon="-2.91513">
        <ele>29.7</ele>
        <time>2020-06-06T13:56:03Z</time>
      </trkpt>
      <trkpt lat="47.66675" lon="-2.91524">
        <ele>29.3</ele>
        <time>2020-06-06T13:56:04Z</time>
      </trkpt>
      <trkpt lat="47.66678" lon="-2.91534">
        <ele>28.9</ele>
        <time>2020-06-06T13:56:05Z</time>
      </trkpt>
      <trkpt lat="47.66681" lon="-2.91545">
        <ele>28.5</ele>
        <time>2020-06-06T13:56:06Z</time>
      </trkpt>
      <trkpt lat="47.66685" lon="-2.91556">
        <ele>28</ele>
        <time>2020-06-06T13:56:07Z</time>
      </trkpt>
      <trkpt lat="47.66689" lon="-2.91566">
        <ele>27.5</ele>
        <time>2020-06-06T13:56:08Z</time>
      </trkpt>
      <trkpt lat="47.66693" lon="-2.91577">
        <ele>26.9</ele>
        <time>2020-06-06T13:56:09Z</time>
      </trkpt>
      <trkpt lat="47.66697" lon="-2.91588">
        <ele>26.4</ele>
        <time>2020-06-06T13:56:10Z</time>
      </trkpt>
      <trkpt lat="47.66701" lon="-2.916">
        <ele>25.8</ele>
        <time>2020-06-06T13:56:11Z</time>
      </trkpt>
      <trkpt lat="47.66705" lon="-2.91611">
        <ele>25.1</ele>
        <time>2020-06-06T13:56:12Z</time>
      </trkpt>
      <trkpt lat="47.66709" lon="-2.91623">
        <ele>24.5</ele>
        <time>2020-06-06T13:56:13Z</time>
      </trkpt>
      <trkpt lat="47.66714" lon="-2.91634">
        <ele>23.8</ele>
        <time>2020-06-06T13:56:14Z</time>
      </trkpt>
      <trkpt lat="47.66718" lon="-2.91645">
        <ele>23.2</ele>
        <time>2020-06-06T13:56:15Z</time>
      </trkpt>
      <trkpt lat="47.66723" lon="-2.91657">
        <ele>22.6</ele>
        <time>2020-06-06T13:56:16Z</time>
      </trkpt>
      <trkpt lat="47.66728" lon="-2.91669">
        <ele>21.9</ele>
        <time>2020-06-06T13:56:17Z</time>
      </trkpt>
      <trkpt lat="47.66733" lon="-2.91681">
        <ele>21.2</ele>
        <time>2020-06-06T13:56:18Z</time>
      </trkpt>
      <trkpt lat="47.66738" lon="-2.91693">
        <ele>20.6</ele>
        <time>2020-06-06T13:56:19Z</time>
      </trkpt>
      <trkpt lat="47.66743" lon="-2.91705">
        <ele>20.2</ele>
        <time>2020-06-06T13:56:20Z</time>
      </trkpt>
      <trkpt lat="47.66748" lon="-2.91717">
        <ele>19.7</ele>
        <time>2020-06-06T13:56:21Z</time>
      </trkpt>
      <trkpt lat="47.66753" lon="-2.91729">
        <ele>19.1</ele>
        <time>2020-06-06T13:56:22Z</time>
      </trkpt>
      <trkpt lat="47.66759" lon="-2.91742">
        <ele>18.5</ele>
        <time>2020-06-06T13:56:23Z</time>
      </trkpt>
      <trkpt lat="47.66764" lon="-2.91754">
        <ele>18.1</ele>
        <time>2020-06-06T13:56:24Z</time>
      </trkpt>
      <trkpt lat="47.66769" lon="-2.91765">
        <ele>17.7</ele>
        <time>2020-06-06T13:56:25Z</time>
      </trkpt>
      <trkpt lat="47.66774" lon="-2.91777">
        <ele>17.3</ele>
        <time>2020-06-06T13:56:26Z</time>
      </trkpt>
      <trkpt lat="47.66779" lon="-2.91787">
        <ele>16.9</ele>
        <time>2020-06-06T13:56:27Z</time>
      </trkpt>
      <trkpt lat="47.66785" lon="-2.91798">
        <ele>16.6</ele>
        <time>2020-06-06T13:56:28Z</time>
      </trkpt>
      <trkpt lat="47.6679" lon="-2.91808">
        <ele>16.2</ele>
        <time>2020-06-06T13:56:29Z</time>
      </trkpt>
      <trkpt lat="47.66795" lon="-2.91819">
        <ele>15.9</ele>
        <time>2020-06-06T13:56:30Z</time>
      </trkpt>
      <trkpt lat="47.668" lon="-2.91828">
        <ele>15.7</ele>
        <time>2020-06-06T13:56:31Z</time>
      </trkpt>
      <trkpt lat="47.66805" lon="-2.91838">
        <ele>15.5</ele>
        <time>2020-06-06T13:56:32Z</time>
      </trkpt>
      <trkpt lat="47.6681" lon="-2.91848">
        <ele>15.3</ele>
        <time>2020-06-06T13:56:33Z</time>
      </trkpt>
      <trkpt lat="47.66815" lon="-2.91857">
        <ele>15.1</ele>
        <time>2020-06-06T13:56:34Z</time>
      </trkpt>
      <trkpt lat="47.66819" lon="-2.91867">
        <ele>15.1</ele>
        <time>2020-06-06T13:56:35Z</time>
      </trkpt>
      <trkpt lat="47.66824" lon="-2.91877">
        <ele>15.1</ele>
        <time>2020-06-06T13:56:36Z</time>
      </trkpt>
      <trkpt lat="47.66829" lon="-2.91886">
        <ele>15.1</ele>
        <time>2020-06-06T13:56:37Z</time>
      </trkpt>
      <trkpt lat="47.66834" lon="-2.91896">
        <ele>15.1</ele>
        <time>2020-06-06T13:56:38Z</time>
      </trkpt>
      <trkpt lat="47.66838" lon="-2.91906">
        <ele>15.1</ele>
        <time>2020-06-06T13:56:39Z</time>
      </trkpt>
      <trkpt lat="47.66842" lon="-2.91915">
        <ele>15.2</ele>
        <time>2020-06-06T13:56:40Z</time>
      </trkpt>
      <trkpt lat="47.66847" lon="-2.91924">
        <ele>15.2</ele>
        <time>2020-06-06T13:56:41Z</time>
      </trkpt>
      <trkpt lat="47.66851" lon="-2.91933">
        <ele>15.3</ele>
        <time>2020-06-06T13:56:42Z</time>
      </trkpt>
      <trkpt lat="47.66856" lon="-2.91941">
        <ele>15.4</ele>
        <time>2020-06-06T13:56:43Z</time>
      </trkpt>
      <trkpt lat="47.6686" lon="-2.91949">
        <ele>15.5</ele>
        <time>2020-06-06T13:56:44Z</time>
      </trkpt>
      <trkpt lat="47.66864" lon="-2.91958">
        <ele>15.7</ele>
        <time>2020-06-06T13:56:45Z</time>
      </trkpt>
      <trkpt lat="47.66868" lon="-2.91967">
        <ele>15.9</ele>
        <time>2020-06-06T13:56:46Z</time>
      </trkpt>
      <trkpt lat="47.66872" lon="-2.91976">
        <ele>16.2</ele>
        <time>2020-06-06T13:56:47Z</time>
      </trkpt>
      <trkpt lat="47.66876" lon="-2.91984">
        <ele>16.4</ele>
        <time>2020-06-06T13:56:48Z</time>
      </trkpt>
      <trkpt lat="47.6688" lon="-2.91992">
        <ele>16.5</ele>
        <time>2020-06-06T13:56:49Z</time>
      </trkpt>
      <trkpt lat="47.66884" lon="-2.92">
        <ele>16.7</ele>
        <time>2020-06-06T13:56:50Z</time>
      </trkpt>
      <trkpt lat="47.66888" lon="-2.92008">
        <ele>16.9</ele>
        <time>2020-06-06T13:56:51Z</time>
      </trkpt>
      <trkpt lat="47.66892" lon="-2.92015">
        <ele>17.2</ele>
        <time>2020-06-06T13:56:52Z</time>
      </trkpt>
      <trkpt lat="47.66895" lon="-2.92022">
        <ele>17.4</ele>
        <time>2020-06-06T13:56:53Z</time>
      </trkpt>
      <trkpt lat="47.66899" lon="-2.92029">
        <ele>17.6</ele>
        <time>2020-06-06T13:56:54Z</time>
      </trkpt>
      <trkpt lat="47.66903" lon="-2.92036">
        <ele>17.8</ele>
        <time>2020-06-06T13:56:55Z</time>
      </trkpt>
      <trkpt lat="47.66906" lon="-2.92043">
        <ele>17.9</ele>
        <time>2020-06-06T13:56:56Z</time>
      </trkpt>
      <trkpt lat="47.6691" lon="-2.92049">
        <ele>18.1</ele>
        <time>2020-06-06T13:56:57Z</time>
      </trkpt>
      <trkpt lat="47.66913" lon="-2.92056">
        <ele>18.3</ele>
        <time>2020-06-06T13:56:58Z</time>
      </trkpt>
      <trkpt lat="47.66916" lon="-2.92062">
        <ele>18.5</ele>
        <time>2020-06-06T13:56:59Z</time>
      </trkpt>
      <trkpt lat="47.6692" lon="-2.9207">
        <ele>18.8</ele>
        <time>2020-06-06T13:57:00Z</time>
      </trkpt>
      <trkpt lat="47.66924" lon="-2.92076">
        <ele>19</ele>
        <time>2020-06-06T13:57:01Z</time>
      </trkpt>
      <trkpt lat="47.66928" lon="-2.92083">
        <ele>19.3</ele>
        <time>2020-06-06T13:57:02Z</time>
      </trkpt>
      <trkpt lat="47.66933" lon="-2.92089">
        <ele>19.7</ele>
        <time>2020-06-06T13:57:03Z</time>
      </trkpt>
      <trkpt lat="47.66936" lon="-2.92096">
        <ele>19.8</ele>
        <time>2020-06-06T13:57:04Z</time>
      </trkpt>
      <trkpt lat="47.6694" lon="-2.92103">
        <ele>19.9</ele>
        <time>2020-06-06T13:57:05Z</time>
      </trkpt>
      <trkpt lat="47.66943" lon="-2.9211">
        <ele>20.1</ele>
        <time>2020-06-06T13:57:06Z</time>
      </trkpt>
      <trkpt lat="47.66947" lon="-2.92116">
        <ele>20.2</ele>
        <time>2020-06-06T13:57:07Z</time>
      </trkpt>
      <trkpt lat="47.6695" lon="-2.92122">
        <ele>20.4</ele>
        <time>2020-06-06T13:57:08Z</time>
      </trkpt>
      <trkpt lat="47.66953" lon="-2.92129">
        <ele>20.5</ele>
        <time>2020-06-06T13:57:09Z</time>
      </trkpt>
      <trkpt lat="47.66957" lon="-2.92135">
        <ele>20.7</ele>
        <time>2020-06-06T13:57:10Z</time>
      </trkpt>
      <trkpt lat="47.6696" lon="-2.92142">
        <ele>20.9</ele>
        <time>2020-06-06T13:57:11Z</time>
      </trkpt>
      <trkpt lat="47.66963" lon="-2.92148">
        <ele>21.1</ele>
        <time>2020-06-06T13:57:12Z</time>
      </trkpt>
      <trkpt lat="47.66967" lon="-2.92154">
        <ele>21.3</ele>
        <time>2020-06-06T13:57:13Z</time>
      </trkpt>
      <trkpt lat="47.6697" lon="-2.92159">
        <ele>21.4</ele>
        <time>2020-06-06T13:57:14Z</time>
      </trkpt>
      <trkpt lat="47.66974" lon="-2.92165">
        <ele>21.6</ele>
        <time>2020-06-06T13:57:15Z</time>
      </trkpt>
      <trkpt lat="47.66976" lon="-2.9217">
        <ele>21.7</ele>
        <time>2020-06-06T13:57:16Z</time>
      </trkpt>
      <trkpt lat="47.6698" lon="-2.92177">
        <ele>22</ele>
        <time>2020-06-06T13:57:17Z</time>
      </trkpt>
      <trkpt lat="47.66984" lon="-2.92184">
        <ele>22.2</ele>
        <time>2020-06-06T13:57:18Z</time>
      </trkpt>
      <trkpt lat="47.66987" lon="-2.9219">
        <ele>22.3</ele>
        <time>2020-06-06T13:57:19Z</time>
      </trkpt>
      <trkpt lat="47.66991" lon="-2.92197">
        <ele>22.5</ele>
        <time>2020-06-06T13:57:20Z</time>
      </trkpt>
      <trkpt lat="47.66994" lon="-2.92203">
        <ele>22.7</ele>
        <time>2020-06-06T13:57:21Z</time>
      </trkpt>
      <trkpt lat="47.66997" lon="-2.9221">
        <ele>22.8</ele>
        <time>2020-06-06T13:57:22Z</time>
      </trkpt>
      <trkpt lat="47.67" lon="-2.92217">
        <ele>23</ele>
        <time>2020-06-06T13:57:23Z</time>
      </trkpt>
      <trkpt lat="47.67003" lon="-2.92224">
        <ele>23.2</ele>
        <time>2020-06-06T13:57:24Z</time>
      </trkpt>
      <trkpt lat="47.67006" lon="-2.9223">
        <ele>23.3</ele>
        <time>2020-06-06T13:57:25Z</time>
      </trkpt>
      <trkpt lat="47.6701" lon="-2.92236">
        <ele>23.5</ele>
        <time>2020-06-06T13:57:26Z</time>
      </trkpt>
      <trkpt lat="47.67013" lon="-2.92242">
        <ele>23.7</ele>
        <time>2020-06-06T13:57:27Z</time>
      </trkpt>
      <trkpt lat="47.67016" lon="-2.92248">
        <ele>23.8</ele>
        <time>2020-06-06T13:57:28Z</time>
      </trkpt>
      <trkpt lat="47.67019" lon="-2.92254">
        <ele>24</ele>
        <time>2020-06-06T13:57:29Z</time>
      </trkpt>
      <trkpt lat="47.67022" lon="-2.9226">
        <ele>24.1</ele>
        <time>2020-06-06T13:57:30Z</time>
      </trkpt>
      <trkpt lat="47.67026" lon="-2.92267">
        <ele>24.3</ele>
        <time>2020-06-06T13:57:31Z</time>
      </trkpt>
      <trkpt lat="47.6703" lon="-2.92272">
        <ele>24.5</ele>
        <time>2020-06-06T13:57:32Z</time>
      </trkpt>
      <trkpt lat="47.67033" lon="-2.92279">
        <ele>24.7</ele>
        <time>2020-06-06T13:57:33Z</time>
      </trkpt>
      <trkpt lat="47.67036" lon="-2.92284">
        <ele>24.8</ele>
        <time>2020-06-06T13:57:34Z</time>
      </trkpt>
      <trkpt lat="47.67038" lon="-2.92289">
        <ele>24.9</ele>
        <time>2020-06-06T13:57:35Z</time>
      </trkpt>
      <trkpt lat="47.67041" lon="-2.92295">
        <ele>25.1</ele>
        <time>2020-06-06T13:57:36Z</time>
      </trkpt>
      <trkpt lat="47.67044" lon="-2.923">
        <ele>25.2</ele>
        <time>2020-06-06T13:57:37Z</time>
      </trkpt>
      <trkpt lat="47.67046" lon="-2.92307">
        <ele>25.3</ele>
        <time>2020-06-06T13:57:38Z</time>
      </trkpt>
      <trkpt lat="47.67049" lon="-2.92313">
        <ele>25.5</ele>
        <time>2020-06-06T13:57:39Z</time>
      </trkpt>
      <trkpt lat="47.67052" lon="-2.9232">
        <ele>25.6</ele>
        <time>2020-06-06T13:57:40Z</time>
      </trkpt>
      <trkpt lat="47.67056" lon="-2.92326">
        <ele>25.8</ele>
        <time>2020-06-06T13:57:41Z</time>
      </trkpt>
      <trkpt lat="47.67058" lon="-2.92332">
        <ele>25.9</ele>
        <time>2020-06-06T13:57:42Z</time>
      </trkpt>
      <trkpt lat="47.67061" lon="-2.92338">
        <ele>26.1</ele>
        <time>2020-06-06T13:57:43Z</time>
      </trkpt>
      <trkpt lat="47.67065" lon="-2.92344">
        <ele>26.2</ele>
        <time>2020-06-06T13:57:44Z</time>
      </trkpt>
      <trkpt lat="47.67066" lon="-2.92349">
        <ele>26.3</ele>
        <time>2020-06-06T13:57:45Z</time>
      </trkpt>
      <trkpt lat="47.6707" lon="-2.92354">
        <ele>26.5</ele>
        <time>2020-06-06T13:57:46Z</time>
      </trkpt>
      <trkpt lat="47.67072" lon="-2.9236">
        <ele>26.6</ele>
        <time>2020-06-06T13:57:47Z</time>
      </trkpt>
      <trkpt lat="47.67075" lon="-2.92366">
        <ele>26.8</ele>
        <time>2020-06-06T13:57:48Z</time>
      </trkpt>
      <trkpt lat="47.67078" lon="-2.92372">
        <ele>26.9</ele>
        <time>2020-06-06T13:57:49Z</time>
      </trkpt>
      <trkpt lat="47.67081" lon="-2.92379">
        <ele>27.1</ele>
        <time>2020-06-06T13:57:50Z</time>
      </trkpt>
      <trkpt lat="47.67084" lon="-2.92385">
        <ele>27.3</ele>
        <time>2020-06-06T13:57:51Z</time>
      </trkpt>
      <trkpt lat="47.67087" lon="-2.92391">
        <ele>27.4</ele>
        <time>2020-06-06T13:57:52Z</time>
      </trkpt>
      <trkpt lat="47.6709" lon="-2.92396">
        <ele>27.6</ele>
        <time>2020-06-06T13:57:53Z</time>
      </trkpt>
      <trkpt lat="47.67092" lon="-2.92401">
        <ele>27.7</ele>
        <time>2020-06-06T13:57:54Z</time>
      </trkpt>
      <trkpt lat="47.67096" lon="-2.92408">
        <ele>27.9</ele>
        <time>2020-06-06T13:57:55Z</time>
      </trkpt>
      <trkpt lat="47.67098" lon="-2.92414">
        <ele>28.1</ele>
        <time>2020-06-06T13:57:56Z</time>
      </trkpt>
      <trkpt lat="47.67101" lon="-2.92419">
        <ele>28.2</ele>
        <time>2020-06-06T13:57:57Z</time>
      </trkpt>
      <trkpt lat="47.67103" lon="-2.92426">
        <ele>28.5</ele>
        <time>2020-06-06T13:57:58Z</time>
      </trkpt>
      <trkpt lat="47.67106" lon="-2.92432">
        <ele>28.7</ele>
        <time>2020-06-06T13:57:59Z</time>
      </trkpt>
      <trkpt lat="47.67109" lon="-2.92438">
        <ele>28.9</ele>
        <time>2020-06-06T13:58:00Z</time>
      </trkpt>
      <trkpt lat="47.67112" lon="-2.92443">
        <ele>29.2</ele>
        <time>2020-06-06T13:58:01Z</time>
      </trkpt>
      <trkpt lat="47.67115" lon="-2.92448">
        <ele>29.4</ele>
        <time>2020-06-06T13:58:02Z</time>
      </trkpt>
      <trkpt lat="47.67118" lon="-2.92455">
        <ele>29.7</ele>
        <time>2020-06-06T13:58:03Z</time>
      </trkpt>
      <trkpt lat="47.6712" lon="-2.92459">
        <ele>29.8</ele>
        <time>2020-06-06T13:58:04Z</time>
      </trkpt>
      <trkpt lat="47.67123" lon="-2.92464">
        <ele>30</ele>
        <time>2020-06-06T13:58:05Z</time>
      </trkpt>
      <trkpt lat="47.67125" lon="-2.9247">
        <ele>30.2</ele>
        <time>2020-06-06T13:58:06Z</time>
      </trkpt>
      <trkpt lat="47.67127" lon="-2.92474">
        <ele>30.4</ele>
        <time>2020-06-06T13:58:07Z</time>
      </trkpt>
      <trkpt lat="47.67131" lon="-2.92481">
        <ele>30.7</ele>
        <time>2020-06-06T13:58:08Z</time>
      </trkpt>
      <trkpt lat="47.67133" lon="-2.92486">
        <ele>30.9</ele>
        <time>2020-06-06T13:58:09Z</time>
      </trkpt>
      <trkpt lat="47.67135" lon="-2.92491">
        <ele>31.2</ele>
        <time>2020-06-06T13:58:10Z</time>
      </trkpt>
      <trkpt lat="47.67138" lon="-2.92495">
        <ele>31.4</ele>
        <time>2020-06-06T13:58:11Z</time>
      </trkpt>
      <trkpt lat="47.6714" lon="-2.925">
        <ele>31.6</ele>
        <time>2020-06-06T13:58:12Z</time>
      </trkpt>
      <trkpt lat="47.67143" lon="-2.92504">
        <ele>31.8</ele>
        <time>2020-06-06T13:58:13Z</time>
      </trkpt>
      <trkpt lat="47.67145" lon="-2.92509">
        <ele>32.1</ele>
        <time>2020-06-06T13:58:14Z</time>
      </trkpt>
      <trkpt lat="47.67148" lon="-2.92514">
        <ele>32.3</ele>
        <time>2020-06-06T13:58:15Z</time>
      </trkpt>
      <trkpt lat="47.67151" lon="-2.92519">
        <ele>32.6</ele>
        <time>2020-06-06T13:58:16Z</time>
      </trkpt>
      <trkpt lat="47.67154" lon="-2.92525">
        <ele>32.9</ele>
        <time>2020-06-06T13:58:17Z</time>
      </trkpt>
      <trkpt lat="47.67157" lon="-2.9253">
        <ele>33.2</ele>
        <time>2020-06-06T13:58:18Z</time>
      </trkpt>
      <trkpt lat="47.6716" lon="-2.92536">
        <ele>33.5</ele>
        <time>2020-06-06T13:58:19Z</time>
      </trkpt>
      <trkpt lat="47.67162" lon="-2.9254">
        <ele>33.7</ele>
        <time>2020-06-06T13:58:20Z</time>
      </trkpt>
      <trkpt lat="47.67165" lon="-2.92545">
        <ele>33.9</ele>
        <time>2020-06-06T13:58:21Z</time>
      </trkpt>
      <trkpt lat="47.67167" lon="-2.92552">
        <ele>34.2</ele>
        <time>2020-06-06T13:58:22Z</time>
      </trkpt>
      <trkpt lat="47.67169" lon="-2.92558">
        <ele>34.5</ele>
        <time>2020-06-06T13:58:23Z</time>
      </trkpt>
      <trkpt lat="47.67171" lon="-2.92563">
        <ele>34.7</ele>
        <time>2020-06-06T13:58:24Z</time>
      </trkpt>
      <trkpt lat="47.67174" lon="-2.9257">
        <ele>35</ele>
        <time>2020-06-06T13:58:25Z</time>
      </trkpt>
      <trkpt lat="47.67176" lon="-2.92576">
        <ele>35.3</ele>
        <time>2020-06-06T13:58:26Z</time>
      </trkpt>
      <trkpt lat="47.67179" lon="-2.9258">
        <ele>35.5</ele>
        <time>2020-06-06T13:58:27Z</time>
      </trkpt>
      <trkpt lat="47.67182" lon="-2.92586">
        <ele>35.8</ele>
        <time>2020-06-06T13:58:28Z</time>
      </trkpt>
      <trkpt lat="47.67185" lon="-2.92592">
        <ele>36</ele>
        <time>2020-06-06T13:58:29Z</time>
      </trkpt>
      <trkpt lat="47.67187" lon="-2.92598">
        <ele>36.2</ele>
        <time>2020-06-06T13:58:30Z</time>
      </trkpt>
      <trkpt lat="47.67189" lon="-2.92604">
        <ele>36.4</ele>
        <time>2020-06-06T13:58:31Z</time>
      </trkpt>
      <trkpt lat="47.6719" lon="-2.92608">
        <ele>36.6</ele>
        <time>2020-06-06T13:58:32Z</time>
      </trkpt>
      <trkpt lat="47.67192" lon="-2.92614">
        <ele>36.8</ele>
        <time>2020-06-06T13:58:33Z</time>
      </trkpt>
      <trkpt lat="47.67195" lon="-2.9262">
        <ele>36.9</ele>
        <time>2020-06-06T13:58:34Z</time>
      </trkpt>
      <trkpt lat="47.67196" lon="-2.92625">
        <ele>37.1</ele>
        <time>2020-06-06T13:58:35Z</time>
      </trkpt>
      <trkpt lat="47.67198" lon="-2.92632">
        <ele>37.3</ele>
        <time>2020-06-06T13:58:36Z</time>
      </trkpt>
      <trkpt lat="47.67201" lon="-2.92638">
        <ele>37.4</ele>
        <time>2020-06-06T13:58:37Z</time>
      </trkpt>
      <trkpt lat="47.67201" lon="-2.92643">
        <ele>37.5</ele>
        <time>2020-06-06T13:58:38Z</time>
      </trkpt>
      <trkpt lat="47.67205" lon="-2.92649">
        <ele>37.7</ele>
        <time>2020-06-06T13:58:39Z</time>
      </trkpt>
      <trkpt lat="47.67206" lon="-2.92656">
        <ele>37.8</ele>
        <time>2020-06-06T13:58:40Z</time>
      </trkpt>
      <trkpt lat="47.67207" lon="-2.92659">
        <ele>37.9</ele>
        <time>2020-06-06T13:58:41Z</time>
      </trkpt>
      <trkpt lat="47.67209" lon="-2.92664">
        <ele>38</ele>
        <time>2020-06-06T13:58:42Z</time>
      </trkpt>
      <trkpt lat="47.67211" lon="-2.92669">
        <ele>38.1</ele>
        <time>2020-06-06T13:58:43Z</time>
      </trkpt>
      <trkpt lat="47.67212" lon="-2.92675">
        <ele>38.1</ele>
        <time>2020-06-06T13:58:44Z</time>
      </trkpt>
      <trkpt lat="47.67214" lon="-2.92681">
        <ele>38.2</ele>
        <time>2020-06-06T13:58:45Z</time>
      </trkpt>
      <trkpt lat="47.67215" lon="-2.92686">
        <ele>38.2</ele>
        <time>2020-06-06T13:58:46Z</time>
      </trkpt>
      <trkpt lat="47.67217" lon="-2.92691">
        <ele>38.3</ele>
        <time>2020-06-06T13:58:47Z</time>
      </trkpt>
      <trkpt lat="47.67218" lon="-2.92696">
        <ele>38.3</ele>
        <time>2020-06-06T13:58:48Z</time>
      </trkpt>
      <trkpt lat="47.67219" lon="-2.92702">
        <ele>38.3</ele>
        <time>2020-06-06T13:58:49Z</time>
      </trkpt>
      <trkpt lat="47.6722" lon="-2.92708">
        <ele>38.4</ele>
        <time>2020-06-06T13:58:50Z</time>
      </trkpt>
      <trkpt lat="47.67221" lon="-2.92713">
        <ele>38.4</ele>
        <time>2020-06-06T13:58:51Z</time>
      </trkpt>
      <trkpt lat="47.67222" lon="-2.92719">
        <ele>38.4</ele>
        <time>2020-06-06T13:58:52Z</time>
      </trkpt>
      <trkpt lat="47.67222" lon="-2.92721">
        <ele>38.4</ele>
        <time>2020-06-06T13:58:53Z</time>
      </trkpt>
      <trkpt lat="47.67224" lon="-2.92726">
        <ele>38.4</ele>
        <time>2020-06-06T13:58:54Z</time>
      </trkpt>
      <trkpt lat="47.67225" lon="-2.9273">
        <ele>38.4</ele>
        <time>2020-06-06T13:58:55Z</time>
      </trkpt>
      <trkpt lat="47.67227" lon="-2.92735">
        <ele>38.3</ele>
        <time>2020-06-06T13:58:56Z</time>
      </trkpt>
      <trkpt lat="47.67227" lon="-2.9274">
        <ele>38.3</ele>
        <time>2020-06-06T13:58:57Z</time>
      </trkpt>
      <trkpt lat="47.67228" lon="-2.92744">
        <ele>38.3</ele>
        <time>2020-06-06T13:58:58Z</time>
      </trkpt>
      <trkpt lat="47.67229" lon="-2.92749">
        <ele>38.2</ele>
        <time>2020-06-06T13:58:59Z</time>
      </trkpt>
      <trkpt lat="47.6723" lon="-2.92753">
        <ele>38.2</ele>
        <time>2020-06-06T13:59:00Z</time>
      </trkpt>
      <trkpt lat="47.67232" lon="-2.92758">
        <ele>38.1</ele>
        <time>2020-06-06T13:59:01Z</time>
      </trkpt>
      <trkpt lat="47.67232" lon="-2.92759">
        <ele>38.1</ele>
        <time>2020-06-06T13:59:02Z</time>
      </trkpt>
      <trkpt lat="47.67234" lon="-2.92763">
        <ele>38.1</ele>
        <time>2020-06-06T13:59:03Z</time>
      </trkpt>
      <trkpt lat="47.67235" lon="-2.92767">
        <ele>38</ele>
        <time>2020-06-06T13:59:04Z</time>
      </trkpt>
      <trkpt lat="47.67237" lon="-2.92771">
        <ele>38</ele>
        <time>2020-06-06T13:59:05Z</time>
      </trkpt>
      <trkpt lat="47.67238" lon="-2.92777">
        <ele>37.9</ele>
        <time>2020-06-06T13:59:06Z</time>
      </trkpt>
      <trkpt lat="47.67239" lon="-2.92779">
        <ele>37.8</ele>
        <time>2020-06-06T13:59:07Z</time>
      </trkpt>
      <trkpt lat="47.6724" lon="-2.92783">
        <ele>37.8</ele>
        <time>2020-06-06T13:59:08Z</time>
      </trkpt>
      <trkpt lat="47.67241" lon="-2.92788">
        <ele>37.7</ele>
        <time>2020-06-06T13:59:09Z</time>
      </trkpt>
      <trkpt lat="47.67242" lon="-2.92793">
        <ele>37.5</ele>
        <time>2020-06-06T13:59:10Z</time>
      </trkpt>
      <trkpt lat="47.67243" lon="-2.92799">
        <ele>37.4</ele>
        <time>2020-06-06T13:59:11Z</time>
      </trkpt>
      <trkpt lat="47.67245" lon="-2.92804">
        <ele>37.3</ele>
        <time>2020-06-06T13:59:12Z</time>
      </trkpt>
      <trkpt lat="47.67246" lon="-2.92808">
        <ele>37.1</ele>
        <time>2020-06-06T13:59:13Z</time>
      </trkpt>
      <trkpt lat="47.67247" lon="-2.92813">
        <ele>37</ele>
        <time>2020-06-06T13:59:14Z</time>
      </trkpt>
      <trkpt lat="47.67248" lon="-2.92817">
        <ele>36.9</ele>
        <time>2020-06-06T13:59:15Z</time>
      </trkpt>
      <trkpt lat="47.67247" lon="-2.92823">
        <ele>36.7</ele>
        <time>2020-06-06T13:59:16Z</time>
      </trkpt>
      <trkpt lat="47.67247" lon="-2.92829">
        <ele>36.5</ele>
        <time>2020-06-06T13:59:17Z</time>
      </trkpt>
      <trkpt lat="47.67248" lon="-2.92835">
        <ele>36.3</ele>
        <time>2020-06-06T13:59:18Z</time>
      </trkpt>
      <trkpt lat="47.67248" lon="-2.92842">
        <ele>36.1</ele>
        <time>2020-06-06T13:59:19Z</time>
      </trkpt>
      <trkpt lat="47.67249" lon="-2.92847">
        <ele>35.9</ele>
        <time>2020-06-06T13:59:20Z</time>
      </trkpt>
      <trkpt lat="47.6725" lon="-2.92853">
        <ele>35.6</ele>
        <time>2020-06-06T13:59:21Z</time>
      </trkpt>
      <trkpt lat="47.67252" lon="-2.92859">
        <ele>35.4</ele>
        <time>2020-06-06T13:59:22Z</time>
      </trkpt>
      <trkpt lat="47.67253" lon="-2.92866">
        <ele>35.2</ele>
        <time>2020-06-06T13:59:23Z</time>
      </trkpt>
      <trkpt lat="47.67254" lon="-2.92874">
        <ele>34.9</ele>
        <time>2020-06-06T13:59:24Z</time>
      </trkpt>
      <trkpt lat="47.67256" lon="-2.92881">
        <ele>34.7</ele>
        <time>2020-06-06T13:59:25Z</time>
      </trkpt>
      <trkpt lat="47.67257" lon="-2.92889">
        <ele>34.4</ele>
        <time>2020-06-06T13:59:26Z</time>
      </trkpt>
      <trkpt lat="47.67258" lon="-2.92898">
        <ele>34.1</ele>
        <time>2020-06-06T13:59:27Z</time>
      </trkpt>
      <trkpt lat="47.67258" lon="-2.92908">
        <ele>33.7</ele>
        <time>2020-06-06T13:59:28Z</time>
      </trkpt>
      <trkpt lat="47.67258" lon="-2.92918">
        <ele>33.4</ele>
        <time>2020-06-06T13:59:29Z</time>
      </trkpt>
      <trkpt lat="47.67259" lon="-2.92928">
        <ele>33.1</ele>
        <time>2020-06-06T13:59:30Z</time>
      </trkpt>
      <trkpt lat="47.6726" lon="-2.92938">
        <ele>32.7</ele>
        <time>2020-06-06T13:59:31Z</time>
      </trkpt>
      <trkpt lat="47.67262" lon="-2.92947">
        <ele>32.4</ele>
        <time>2020-06-06T13:59:32Z</time>
      </trkpt>
      <trkpt lat="47.67263" lon="-2.92958">
        <ele>32</ele>
        <time>2020-06-06T13:59:33Z</time>
      </trkpt>
      <trkpt lat="47.67264" lon="-2.92968">
        <ele>31.6</ele>
        <time>2020-06-06T13:59:34Z</time>
      </trkpt>
      <trkpt lat="47.67265" lon="-2.92979">
        <ele>31.3</ele>
        <time>2020-06-06T13:59:35Z</time>
      </trkpt>
      <trkpt lat="47.67265" lon="-2.9299">
        <ele>30.9</ele>
        <time>2020-06-06T13:59:36Z</time>
      </trkpt>
      <trkpt lat="47.67266" lon="-2.93">
        <ele>30.7</ele>
        <time>2020-06-06T13:59:37Z</time>
      </trkpt>
      <trkpt lat="47.67267" lon="-2.93011">
        <ele>30.4</ele>
        <time>2020-06-06T13:59:38Z</time>
      </trkpt>
      <trkpt lat="47.67268" lon="-2.93022">
        <ele>30.2</ele>
        <time>2020-06-06T13:59:39Z</time>
      </trkpt>
      <trkpt lat="47.67269" lon="-2.93032">
        <ele>30.1</ele>
        <time>2020-06-06T13:59:40Z</time>
      </trkpt>
      <trkpt lat="47.6727" lon="-2.93043">
        <ele>30</ele>
        <time>2020-06-06T13:59:41Z</time>
      </trkpt>
      <trkpt lat="47.6727" lon="-2.93053">
        <ele>29.7</ele>
        <time>2020-06-06T13:59:42Z</time>
      </trkpt>
      <trkpt lat="47.67271" lon="-2.93064">
        <ele>29.6</ele>
        <time>2020-06-06T13:59:43Z</time>
      </trkpt>
      <trkpt lat="47.67271" lon="-2.93074">
        <ele>29.5</ele>
        <time>2020-06-06T13:59:44Z</time>
      </trkpt>
      <trkpt lat="47.67272" lon="-2.93083">
        <ele>29.5</ele>
        <time>2020-06-06T13:59:45Z</time>
      </trkpt>
      <trkpt lat="47.67273" lon="-2.93094">
        <ele>29.5</ele>
        <time>2020-06-06T13:59:46Z</time>
      </trkpt>
      <trkpt lat="47.67273" lon="-2.93104">
        <ele>29.5</ele>
        <time>2020-06-06T13:59:47Z</time>
      </trkpt>
      <trkpt lat="47.67273" lon="-2.93113">
        <ele>29.6</ele>
        <time>2020-06-06T13:59:48Z</time>
      </trkpt>
      <trkpt lat="47.67273" lon="-2.93123">
        <ele>29.7</ele>
        <time>2020-06-06T13:59:49Z</time>
      </trkpt>
      <trkpt lat="47.67273" lon="-2.93132">
        <ele>29.7</ele>
        <time>2020-06-06T13:59:50Z</time>
      </trkpt>
      <trkpt lat="47.67274" lon="-2.93141">
        <ele>29.8</ele>
        <time>2020-06-06T13:59:51Z</time>
      </trkpt>
      <trkpt lat="47.67274" lon="-2.9315">
        <ele>29.9</ele>
        <time>2020-06-06T13:59:52Z</time>
      </trkpt>
      <trkpt lat="47.67275" lon="-2.93159">
        <ele>29.9</ele>
        <time>2020-06-06T13:59:53Z</time>
      </trkpt>
      <trkpt lat="47.67275" lon="-2.93167">
        <ele>30</ele>
        <time>2020-06-06T13:59:54Z</time>
      </trkpt>
      <trkpt lat="47.67276" lon="-2.93174">
        <ele>30.1</ele>
        <time>2020-06-06T13:59:55Z</time>
      </trkpt>
      <trkpt lat="47.67276" lon="-2.93182">
        <ele>30.2</ele>
        <time>2020-06-06T13:59:56Z</time>
      </trkpt>
      <trkpt lat="47.67276" lon="-2.9319">
        <ele>30.3</ele>
        <time>2020-06-06T13:59:57Z</time>
      </trkpt>
      <trkpt lat="47.67276" lon="-2.93197">
        <ele>30.4</ele>
        <time>2020-06-06T13:59:58Z</time>
      </trkpt>
      <trkpt lat="47.67276" lon="-2.93204">
        <ele>30.5</ele>
        <time>2020-06-06T13:59:59Z</time>
      </trkpt>
      <trkpt lat="47.67276" lon="-2.93212">
        <ele>30.6</ele>
        <time>2020-06-06T14:00:00Z</time>
      </trkpt>
      <trkpt lat="47.67277" lon="-2.93219">
        <ele>30.7</ele>
        <time>2020-06-06T14:00:01Z</time>
      </trkpt>
      <trkpt lat="47.67278" lon="-2.93226">
        <ele>30.8</ele>
        <time>2020-06-06T14:00:02Z</time>
      </trkpt>
      <trkpt lat="47.67278" lon="-2.93234">
        <ele>30.9</ele>
        <time>2020-06-06T14:00:03Z</time>
      </trkpt>
      <trkpt lat="47.67277" lon="-2.93241">
        <ele>31</ele>
        <time>2020-06-06T14:00:04Z</time>
      </trkpt>
      <trkpt lat="47.67278" lon="-2.93249">
        <ele>31.1</ele>
        <time>2020-06-06T14:00:05Z</time>
      </trkpt>
      <trkpt lat="47.67278" lon="-2.93258">
        <ele>31.2</ele>
        <time>2020-06-06T14:00:06Z</time>
      </trkpt>
      <trkpt lat="47.67277" lon="-2.93266">
        <ele>31.3</ele>
        <time>2020-06-06T14:00:07Z</time>
      </trkpt>
      <trkpt lat="47.67277" lon="-2.93274">
        <ele>31.5</ele>
        <time>2020-06-06T14:00:08Z</time>
      </trkpt>
      <trkpt lat="47.67277" lon="-2.93282">
        <ele>31.6</ele>
        <time>2020-06-06T14:00:09Z</time>
      </trkpt>
      <trkpt lat="47.67277" lon="-2.9329">
        <ele>31.7</ele>
        <time>2020-06-06T14:00:10Z</time>
      </trkpt>
      <trkpt lat="47.67277" lon="-2.93297">
        <ele>31.8</ele>
        <time>2020-06-06T14:00:11Z</time>
      </trkpt>
      <trkpt lat="47.67277" lon="-2.93305">
        <ele>31.9</ele>
        <time>2020-06-06T14:00:12Z</time>
      </trkpt>
      <trkpt lat="47.67277" lon="-2.93312">
        <ele>32</ele>
        <time>2020-06-06T14:00:13Z</time>
      </trkpt>
      <trkpt lat="47.67278" lon="-2.9332">
        <ele>32.2</ele>
        <time>2020-06-06T14:00:14Z</time>
      </trkpt>
      <trkpt lat="47.67278" lon="-2.93328">
        <ele>32.3</ele>
        <time>2020-06-06T14:00:15Z</time>
      </trkpt>
      <trkpt lat="47.67279" lon="-2.93336">
        <ele>32.5</ele>
        <time>2020-06-06T14:00:16Z</time>
      </trkpt>
      <trkpt lat="47.67278" lon="-2.93343">
        <ele>32.6</ele>
        <time>2020-06-06T14:00:17Z</time>
      </trkpt>
      <trkpt lat="47.67277" lon="-2.9335">
        <ele>32.8</ele>
        <time>2020-06-06T14:00:18Z</time>
      </trkpt>
      <trkpt lat="47.67276" lon="-2.93358">
        <ele>33</ele>
        <time>2020-06-06T14:00:19Z</time>
      </trkpt>
      <trkpt lat="47.67276" lon="-2.93367">
        <ele>33</ele>
        <time>2020-06-06T14:00:20Z</time>
      </trkpt>
      <trkpt lat="47.67276" lon="-2.93375">
        <ele>33.1</ele>
        <time>2020-06-06T14:00:21Z</time>
      </trkpt>
      <trkpt lat="47.67275" lon="-2.93384">
        <ele>33.2</ele>
        <time>2020-06-06T14:00:22Z</time>
      </trkpt>
      <trkpt lat="47.67274" lon="-2.93394">
        <ele>33.4</ele>
        <time>2020-06-06T14:00:23Z</time>
      </trkpt>
      <trkpt lat="47.67274" lon="-2.93401">
        <ele>33.5</ele>
        <time>2020-06-06T14:00:24Z</time>
      </trkpt>
      <trkpt lat="47.67273" lon="-2.93409">
        <ele>33.6</ele>
        <time>2020-06-06T14:00:25Z</time>
      </trkpt>
      <trkpt lat="47.67272" lon="-2.93418">
        <ele>33.7</ele>
        <time>2020-06-06T14:00:26Z</time>
      </trkpt>
      <trkpt lat="47.67272" lon="-2.93425">
        <ele>33.8</ele>
        <time>2020-06-06T14:00:27Z</time>
      </trkpt>
      <trkpt lat="47.67271" lon="-2.93431">
        <ele>33.8</ele>
        <time>2020-06-06T14:00:28Z</time>
      </trkpt>
      <trkpt lat="47.6727" lon="-2.93438">
        <ele>33.9</ele>
        <time>2020-06-06T14:00:29Z</time>
      </trkpt>
      <trkpt lat="47.67269" lon="-2.93448">
        <ele>34</ele>
        <time>2020-06-06T14:00:30Z</time>
      </trkpt>
      <trkpt lat="47.67268" lon="-2.93457">
        <ele>34.1</ele>
        <time>2020-06-06T14:00:31Z</time>
      </trkpt>
      <trkpt lat="47.67267" lon="-2.93465">
        <ele>34.2</ele>
        <time>2020-06-06T14:00:32Z</time>
      </trkpt>
      <trkpt lat="47.67266" lon="-2.93473">
        <ele>34.3</ele>
        <time>2020-06-06T14:00:33Z</time>
      </trkpt>
      <trkpt lat="47.67265" lon="-2.93483">
        <ele>34.4</ele>
        <time>2020-06-06T14:00:34Z</time>
      </trkpt>
      <trkpt lat="47.67264" lon="-2.9349">
        <ele>34.5</ele>
        <time>2020-06-06T14:00:35Z</time>
      </trkpt>
      <trkpt lat="47.67263" lon="-2.93498">
        <ele>34.6</ele>
        <time>2020-06-06T14:00:36Z</time>
      </trkpt>
      <trkpt lat="47.67262" lon="-2.93505">
        <ele>34.7</ele>
        <time>2020-06-06T14:00:37Z</time>
      </trkpt>
      <trkpt lat="47.67262" lon="-2.93512">
        <ele>34.8</ele>
        <time>2020-06-06T14:00:38Z</time>
      </trkpt>
      <trkpt lat="47.67261" lon="-2.93519">
        <ele>34.9</ele>
        <time>2020-06-06T14:00:39Z</time>
      </trkpt>
      <trkpt lat="47.6726" lon="-2.93526">
        <ele>35</ele>
        <time>2020-06-06T14:00:40Z</time>
      </trkpt>
      <trkpt lat="47.67259" lon="-2.93533">
        <ele>35.1</ele>
        <time>2020-06-06T14:00:41Z</time>
      </trkpt>
      <trkpt lat="47.67258" lon="-2.93543">
        <ele>35.2</ele>
        <time>2020-06-06T14:00:42Z</time>
      </trkpt>
      <trkpt lat="47.67257" lon="-2.93549">
        <ele>35.2</ele>
        <time>2020-06-06T14:00:43Z</time>
      </trkpt>
      <trkpt lat="47.67256" lon="-2.93556">
        <ele>35.3</ele>
        <time>2020-06-06T14:00:44Z</time>
      </trkpt>
      <trkpt lat="47.67255" lon="-2.93563">
        <ele>35.3</ele>
        <time>2020-06-06T14:00:45Z</time>
      </trkpt>
      <trkpt lat="47.67254" lon="-2.93569">
        <ele>35.3</ele>
        <time>2020-06-06T14:00:46Z</time>
      </trkpt>
      <trkpt lat="47.67252" lon="-2.93577">
        <ele>35.4</ele>
        <time>2020-06-06T14:00:47Z</time>
      </trkpt>
      <trkpt lat="47.67251" lon="-2.93585">
        <ele>35.4</ele>
        <time>2020-06-06T14:00:48Z</time>
      </trkpt>
      <trkpt lat="47.6725" lon="-2.93592">
        <ele>35.4</ele>
        <time>2020-06-06T14:00:49Z</time>
      </trkpt>
      <trkpt lat="47.67249" lon="-2.93601">
        <ele>35.4</ele>
        <time>2020-06-06T14:00:50Z</time>
      </trkpt>
      <trkpt lat="47.67248" lon="-2.93609">
        <ele>35.4</ele>
        <time>2020-06-06T14:00:51Z</time>
      </trkpt>
      <trkpt lat="47.67246" lon="-2.93617">
        <ele>35.5</ele>
        <time>2020-06-06T14:00:52Z</time>
      </trkpt>
      <trkpt lat="47.67245" lon="-2.93625">
        <ele>35.5</ele>
        <time>2020-06-06T14:00:53Z</time>
      </trkpt>
      <trkpt lat="47.67243" lon="-2.93635">
        <ele>35.5</ele>
        <time>2020-06-06T14:00:54Z</time>
      </trkpt>
      <trkpt lat="47.67242" lon="-2.93642">
        <ele>35.5</ele>
        <time>2020-06-06T14:00:55Z</time>
      </trkpt>
      <trkpt lat="47.67242" lon="-2.93649">
        <ele>35.5</ele>
        <time>2020-06-06T14:00:56Z</time>
      </trkpt>
      <trkpt lat="47.6724" lon="-2.93657">
        <ele>35.5</ele>
        <time>2020-06-06T14:00:57Z</time>
      </trkpt>
      <trkpt lat="47.67238" lon="-2.93665">
        <ele>35.5</ele>
        <time>2020-06-06T14:00:58Z</time>
      </trkpt>
      <trkpt lat="47.67237" lon="-2.93674">
        <ele>35.5</ele>
        <time>2020-06-06T14:00:59Z</time>
      </trkpt>
      <trkpt lat="47.67235" lon="-2.93681">
        <ele>35.5</ele>
        <time>2020-06-06T14:01:00Z</time>
      </trkpt>
      <trkpt lat="47.67233" lon="-2.93689">
        <ele>35.4</ele>
        <time>2020-06-06T14:01:01Z</time>
      </trkpt>
      <trkpt lat="47.67231" lon="-2.93697">
        <ele>35.4</ele>
        <time>2020-06-06T14:01:02Z</time>
      </trkpt>
      <trkpt lat="47.67229" lon="-2.93705">
        <ele>35.3</ele>
        <time>2020-06-06T14:01:03Z</time>
      </trkpt>
      <trkpt lat="47.67227" lon="-2.93713">
        <ele>35.3</ele>
        <time>2020-06-06T14:01:04Z</time>
      </trkpt>
      <trkpt lat="47.67226" lon="-2.9372">
        <ele>35.2</ele>
        <time>2020-06-06T14:01:05Z</time>
      </trkpt>
      <trkpt lat="47.67223" lon="-2.93729">
        <ele>35.2</ele>
        <time>2020-06-06T14:01:06Z</time>
      </trkpt>
      <trkpt lat="47.67221" lon="-2.93739">
        <ele>35.1</ele>
        <time>2020-06-06T14:01:07Z</time>
      </trkpt>
      <trkpt lat="47.67218" lon="-2.93748">
        <ele>35.1</ele>
        <time>2020-06-06T14:01:08Z</time>
      </trkpt>
      <trkpt lat="47.67215" lon="-2.93756">
        <ele>35</ele>
        <time>2020-06-06T14:01:09Z</time>
      </trkpt>
      <trkpt lat="47.67214" lon="-2.93765">
        <ele>34.9</ele>
        <time>2020-06-06T14:01:10Z</time>
      </trkpt>
      <trkpt lat="47.67212" lon="-2.93773">
        <ele>34.7</ele>
        <time>2020-06-06T14:01:11Z</time>
      </trkpt>
      <trkpt lat="47.67209" lon="-2.93782">
        <ele>34.6</ele>
        <time>2020-06-06T14:01:12Z</time>
      </trkpt>
      <trkpt lat="47.67207" lon="-2.9379">
        <ele>34.5</ele>
        <time>2020-06-06T14:01:13Z</time>
      </trkpt>
      <trkpt lat="47.67204" lon="-2.938">
        <ele>34.3</ele>
        <time>2020-06-06T14:01:14Z</time>
      </trkpt>
      <trkpt lat="47.67202" lon="-2.93809">
        <ele>34.2</ele>
        <time>2020-06-06T14:01:15Z</time>
      </trkpt>
      <trkpt lat="47.67201" lon="-2.93819">
        <ele>34</ele>
        <time>2020-06-06T14:01:16Z</time>
      </trkpt>
      <trkpt lat="47.67199" lon="-2.93828">
        <ele>33.8</ele>
        <time>2020-06-06T14:01:17Z</time>
      </trkpt>
      <trkpt lat="47.67196" lon="-2.93838">
        <ele>33.5</ele>
        <time>2020-06-06T14:01:18Z</time>
      </trkpt>
      <trkpt lat="47.67194" lon="-2.93848">
        <ele>33.2</ele>
        <time>2020-06-06T14:01:19Z</time>
      </trkpt>
      <trkpt lat="47.67192" lon="-2.93857">
        <ele>32.9</ele>
        <time>2020-06-06T14:01:20Z</time>
      </trkpt>
      <trkpt lat="47.67189" lon="-2.93867">
        <ele>32.8</ele>
        <time>2020-06-06T14:01:21Z</time>
      </trkpt>
      <trkpt lat="47.67187" lon="-2.93876">
        <ele>32.6</ele>
        <time>2020-06-06T14:01:22Z</time>
      </trkpt>
      <trkpt lat="47.67185" lon="-2.93886">
        <ele>32.5</ele>
        <time>2020-06-06T14:01:23Z</time>
      </trkpt>
      <trkpt lat="47.67184" lon="-2.93895">
        <ele>32.2</ele>
        <time>2020-06-06T14:01:24Z</time>
      </trkpt>
      <trkpt lat="47.67181" lon="-2.93905">
        <ele>32</ele>
        <time>2020-06-06T14:01:25Z</time>
      </trkpt>
      <trkpt lat="47.67179" lon="-2.93915">
        <ele>31.7</ele>
        <time>2020-06-06T14:01:26Z</time>
      </trkpt>
      <trkpt lat="47.67177" lon="-2.93925">
        <ele>31.4</ele>
        <time>2020-06-06T14:01:27Z</time>
      </trkpt>
      <trkpt lat="47.67175" lon="-2.93936">
        <ele>31.1</ele>
        <time>2020-06-06T14:01:28Z</time>
      </trkpt>
      <trkpt lat="47.67173" lon="-2.93946">
        <ele>30.8</ele>
        <time>2020-06-06T14:01:29Z</time>
      </trkpt>
      <trkpt lat="47.67171" lon="-2.93957">
        <ele>30.4</ele>
        <time>2020-06-06T14:01:30Z</time>
      </trkpt>
      <trkpt lat="47.67169" lon="-2.93967">
        <ele>30</ele>
        <time>2020-06-06T14:01:31Z</time>
      </trkpt>
      <trkpt lat="47.67166" lon="-2.93977">
        <ele>29.6</ele>
        <time>2020-06-06T14:01:32Z</time>
      </trkpt>
      <trkpt lat="47.67164" lon="-2.93988">
        <ele>29.1</ele>
        <time>2020-06-06T14:01:33Z</time>
      </trkpt>
      <trkpt lat="47.67161" lon="-2.93999">
        <ele>28.7</ele>
        <time>2020-06-06T14:01:34Z</time>
      </trkpt>
      <trkpt lat="47.67158" lon="-2.9401">
        <ele>28.3</ele>
        <time>2020-06-06T14:01:35Z</time>
      </trkpt>
      <trkpt lat="47.67155" lon="-2.94021">
        <ele>27.9</ele>
        <time>2020-06-06T14:01:36Z</time>
      </trkpt>
      <trkpt lat="47.67153" lon="-2.94032">
        <ele>27.4</ele>
        <time>2020-06-06T14:01:37Z</time>
      </trkpt>
      <trkpt lat="47.67151" lon="-2.94043">
        <ele>26.9</ele>
        <time>2020-06-06T14:01:38Z</time>
      </trkpt>
      <trkpt lat="47.67148" lon="-2.94054">
        <ele>26.4</ele>
        <time>2020-06-06T14:01:39Z</time>
      </trkpt>
      <trkpt lat="47.67146" lon="-2.94065">
        <ele>26</ele>
        <time>2020-06-06T14:01:40Z</time>
      </trkpt>
      <trkpt lat="47.67144" lon="-2.94077">
        <ele>25.5</ele>
        <time>2020-06-06T14:01:41Z</time>
      </trkpt>
      <trkpt lat="47.67141" lon="-2.94089">
        <ele>25</ele>
        <time>2020-06-06T14:01:42Z</time>
      </trkpt>
      <trkpt lat="47.67138" lon="-2.94101">
        <ele>24.4</ele>
        <time>2020-06-06T14:01:43Z</time>
      </trkpt>
      <trkpt lat="47.67135" lon="-2.94114">
        <ele>23.8</ele>
        <time>2020-06-06T14:01:44Z</time>
      </trkpt>
      <trkpt lat="47.67133" lon="-2.94126">
        <ele>23.2</ele>
        <time>2020-06-06T14:01:45Z</time>
      </trkpt>
      <trkpt lat="47.6713" lon="-2.94139">
        <ele>22.7</ele>
        <time>2020-06-06T14:01:46Z</time>
      </trkpt>
      <trkpt lat="47.67127" lon="-2.94152">
        <ele>22.2</ele>
        <time>2020-06-06T14:01:47Z</time>
      </trkpt>
      <trkpt lat="47.67124" lon="-2.94165">
        <ele>21.9</ele>
        <time>2020-06-06T14:01:48Z</time>
      </trkpt>
      <trkpt lat="47.67121" lon="-2.94178">
        <ele>21.5</ele>
        <time>2020-06-06T14:01:49Z</time>
      </trkpt>
      <trkpt lat="47.67118" lon="-2.94191">
        <ele>21.4</ele>
        <time>2020-06-06T14:01:50Z</time>
      </trkpt>
      <trkpt lat="47.67115" lon="-2.94203">
        <ele>21.3</ele>
        <time>2020-06-06T14:01:51Z</time>
      </trkpt>
      <trkpt lat="47.67112" lon="-2.94216">
        <ele>21.1</ele>
        <time>2020-06-06T14:01:52Z</time>
      </trkpt>
      <trkpt lat="47.6711" lon="-2.94229">
        <ele>21</ele>
        <time>2020-06-06T14:01:53Z</time>
      </trkpt>
      <trkpt lat="47.67107" lon="-2.94241">
        <ele>21</ele>
        <time>2020-06-06T14:01:54Z</time>
      </trkpt>
      <trkpt lat="47.67104" lon="-2.94253">
        <ele>21</ele>
        <time>2020-06-06T14:01:55Z</time>
      </trkpt>
      <trkpt lat="47.67102" lon="-2.94264">
        <ele>21.1</ele>
        <time>2020-06-06T14:01:56Z</time>
      </trkpt>
      <trkpt lat="47.67099" lon="-2.94275">
        <ele>21.2</ele>
        <time>2020-06-06T14:01:57Z</time>
      </trkpt>
      <trkpt lat="47.67097" lon="-2.94285">
        <ele>21.3</ele>
        <time>2020-06-06T14:01:58Z</time>
      </trkpt>
      <trkpt lat="47.67094" lon="-2.94295">
        <ele>21.4</ele>
        <time>2020-06-06T14:01:59Z</time>
      </trkpt>
      <trkpt lat="47.67092" lon="-2.94305">
        <ele>21.5</ele>
        <time>2020-06-06T14:02:00Z</time>
      </trkpt>
      <trkpt lat="47.6709" lon="-2.94315">
        <ele>21.6</ele>
        <time>2020-06-06T14:02:01Z</time>
      </trkpt>
      <trkpt lat="47.67088" lon="-2.94324">
        <ele>21.7</ele>
        <time>2020-06-06T14:02:02Z</time>
      </trkpt>
      <trkpt lat="47.67086" lon="-2.94334">
        <ele>21.8</ele>
        <time>2020-06-06T14:02:03Z</time>
      </trkpt>
      <trkpt lat="47.67084" lon="-2.94343">
        <ele>21.9</ele>
        <time>2020-06-06T14:02:04Z</time>
      </trkpt>
      <trkpt lat="47.67082" lon="-2.94353">
        <ele>21.9</ele>
        <time>2020-06-06T14:02:05Z</time>
      </trkpt>
      <trkpt lat="47.6708" lon="-2.94362">
        <ele>22</ele>
        <time>2020-06-06T14:02:06Z</time>
      </trkpt>
      <trkpt lat="47.67079" lon="-2.94371">
        <ele>22.1</ele>
        <time>2020-06-06T14:02:07Z</time>
      </trkpt>
      <trkpt lat="47.67076" lon="-2.94379">
        <ele>22.2</ele>
        <time>2020-06-06T14:02:08Z</time>
      </trkpt>
      <trkpt lat="47.67074" lon="-2.94388">
        <ele>22.3</ele>
        <time>2020-06-06T14:02:09Z</time>
      </trkpt>
      <trkpt lat="47.67072" lon="-2.94397">
        <ele>22.4</ele>
        <time>2020-06-06T14:02:10Z</time>
      </trkpt>
      <trkpt lat="47.6707" lon="-2.94406">
        <ele>22.5</ele>
        <time>2020-06-06T14:02:11Z</time>
      </trkpt>
      <trkpt lat="47.67068" lon="-2.94415">
        <ele>22.5</ele>
        <time>2020-06-06T14:02:12Z</time>
      </trkpt>
      <trkpt lat="47.67065" lon="-2.94425">
        <ele>22.6</ele>
        <time>2020-06-06T14:02:13Z</time>
      </trkpt>
      <trkpt lat="47.67063" lon="-2.94434">
        <ele>22.7</ele>
        <time>2020-06-06T14:02:14Z</time>
      </trkpt>
      <trkpt lat="47.67061" lon="-2.94443">
        <ele>22.8</ele>
        <time>2020-06-06T14:02:15Z</time>
      </trkpt>
      <trkpt lat="47.67059" lon="-2.94452">
        <ele>22.8</ele>
        <time>2020-06-06T14:02:16Z</time>
      </trkpt>
      <trkpt lat="47.67057" lon="-2.9446">
        <ele>22.8</ele>
        <time>2020-06-06T14:02:17Z</time>
      </trkpt>
      <trkpt lat="47.67055" lon="-2.94469">
        <ele>22.8</ele>
        <time>2020-06-06T14:02:18Z</time>
      </trkpt>
      <trkpt lat="47.67053" lon="-2.94478">
        <ele>22.8</ele>
        <time>2020-06-06T14:02:19Z</time>
      </trkpt>
      <trkpt lat="47.67051" lon="-2.94487">
        <ele>22.9</ele>
        <time>2020-06-06T14:02:20Z</time>
      </trkpt>
      <trkpt lat="47.67049" lon="-2.94496">
        <ele>22.9</ele>
        <time>2020-06-06T14:02:21Z</time>
      </trkpt>
      <trkpt lat="47.67047" lon="-2.94504">
        <ele>23</ele>
        <time>2020-06-06T14:02:22Z</time>
      </trkpt>
      <trkpt lat="47.67045" lon="-2.94512">
        <ele>23</ele>
        <time>2020-06-06T14:02:23Z</time>
      </trkpt>
      <trkpt lat="47.67042" lon="-2.94521">
        <ele>23</ele>
        <time>2020-06-06T14:02:24Z</time>
      </trkpt>
      <trkpt lat="47.6704" lon="-2.94529">
        <ele>23.1</ele>
        <time>2020-06-06T14:02:25Z</time>
      </trkpt>
      <trkpt lat="47.67038" lon="-2.94537">
        <ele>23.1</ele>
        <time>2020-06-06T14:02:26Z</time>
      </trkpt>
      <trkpt lat="47.67036" lon="-2.94545">
        <ele>23</ele>
        <time>2020-06-06T14:02:27Z</time>
      </trkpt>
      <trkpt lat="47.67034" lon="-2.94553">
        <ele>23</ele>
        <time>2020-06-06T14:02:28Z</time>
      </trkpt>
      <trkpt lat="47.67032" lon="-2.94561">
        <ele>22.9</ele>
        <time>2020-06-06T14:02:29Z</time>
      </trkpt>
      <trkpt lat="47.6703" lon="-2.94569">
        <ele>22.9</ele>
        <time>2020-06-06T14:02:30Z</time>
      </trkpt>
      <trkpt lat="47.67029" lon="-2.94578">
        <ele>22.8</ele>
        <time>2020-06-06T14:02:31Z</time>
      </trkpt>
      <trkpt lat="47.67027" lon="-2.94586">
        <ele>22.7</ele>
        <time>2020-06-06T14:02:32Z</time>
      </trkpt>
      <trkpt lat="47.67025" lon="-2.94593">
        <ele>22.7</ele>
        <time>2020-06-06T14:02:33Z</time>
      </trkpt>
      <trkpt lat="47.67024" lon="-2.94601">
        <ele>22.6</ele>
        <time>2020-06-06T14:02:34Z</time>
      </trkpt>
      <trkpt lat="47.67022" lon="-2.94609">
        <ele>22.6</ele>
        <time>2020-06-06T14:02:35Z</time>
      </trkpt>
      <trkpt lat="47.67021" lon="-2.94617">
        <ele>22.5</ele>
        <time>2020-06-06T14:02:36Z</time>
      </trkpt>
      <trkpt lat="47.67019" lon="-2.94625">
        <ele>22.4</ele>
        <time>2020-06-06T14:02:37Z</time>
      </trkpt>
      <trkpt lat="47.67017" lon="-2.94633">
        <ele>22.3</ele>
        <time>2020-06-06T14:02:38Z</time>
      </trkpt>
      <trkpt lat="47.67014" lon="-2.94641">
        <ele>22.1</ele>
        <time>2020-06-06T14:02:39Z</time>
      </trkpt>
      <trkpt lat="47.67012" lon="-2.94648">
        <ele>22</ele>
        <time>2020-06-06T14:02:40Z</time>
      </trkpt>
      <trkpt lat="47.6701" lon="-2.94657">
        <ele>21.9</ele>
        <time>2020-06-06T14:02:41Z</time>
      </trkpt>
      <trkpt lat="47.67007" lon="-2.94666">
        <ele>21.7</ele>
        <time>2020-06-06T14:02:42Z</time>
      </trkpt>
      <trkpt lat="47.67004" lon="-2.94675">
        <ele>21.6</ele>
        <time>2020-06-06T14:02:43Z</time>
      </trkpt>
      <trkpt lat="47.67001" lon="-2.94683">
        <ele>21.4</ele>
        <time>2020-06-06T14:02:44Z</time>
      </trkpt>
      <trkpt lat="47.66999" lon="-2.94692">
        <ele>21.2</ele>
        <time>2020-06-06T14:02:45Z</time>
      </trkpt>
      <trkpt lat="47.66997" lon="-2.947">
        <ele>21.1</ele>
        <time>2020-06-06T14:02:46Z</time>
      </trkpt>
      <trkpt lat="47.66996" lon="-2.94708">
        <ele>20.9</ele>
        <time>2020-06-06T14:02:47Z</time>
      </trkpt>
      <trkpt lat="47.66994" lon="-2.94717">
        <ele>20.7</ele>
        <time>2020-06-06T14:02:48Z</time>
      </trkpt>
      <trkpt lat="47.66993" lon="-2.94725">
        <ele>20.6</ele>
        <time>2020-06-06T14:02:49Z</time>
      </trkpt>
      <trkpt lat="47.66991" lon="-2.94733">
        <ele>20.4</ele>
        <time>2020-06-06T14:02:50Z</time>
      </trkpt>
      <trkpt lat="47.66989" lon="-2.94742">
        <ele>20.3</ele>
        <time>2020-06-06T14:02:51Z</time>
      </trkpt>
      <trkpt lat="47.66986" lon="-2.9475">
        <ele>20.1</ele>
        <time>2020-06-06T14:02:52Z</time>
      </trkpt>
      <trkpt lat="47.66984" lon="-2.94758">
        <ele>19.9</ele>
        <time>2020-06-06T14:02:53Z</time>
      </trkpt>
      <trkpt lat="47.66982" lon="-2.94766">
        <ele>19.7</ele>
        <time>2020-06-06T14:02:54Z</time>
      </trkpt>
      <trkpt lat="47.6698" lon="-2.94773">
        <ele>19.5</ele>
        <time>2020-06-06T14:02:55Z</time>
      </trkpt>
      <trkpt lat="47.66979" lon="-2.94781">
        <ele>19.4</ele>
        <time>2020-06-06T14:02:56Z</time>
      </trkpt>
      <trkpt lat="47.66977" lon="-2.94789">
        <ele>19.2</ele>
        <time>2020-06-06T14:02:57Z</time>
      </trkpt>
      <trkpt lat="47.66976" lon="-2.94796">
        <ele>19</ele>
        <time>2020-06-06T14:02:58Z</time>
      </trkpt>
      <trkpt lat="47.66974" lon="-2.94804">
        <ele>18.8</ele>
        <time>2020-06-06T14:02:59Z</time>
      </trkpt>
      <trkpt lat="47.66973" lon="-2.94811">
        <ele>18.7</ele>
        <time>2020-06-06T14:03:00Z</time>
      </trkpt>
      <trkpt lat="47.66972" lon="-2.94819">
        <ele>18.5</ele>
        <time>2020-06-06T14:03:01Z</time>
      </trkpt>
      <trkpt lat="47.66972" lon="-2.94827">
        <ele>18.4</ele>
        <time>2020-06-06T14:03:02Z</time>
      </trkpt>
      <trkpt lat="47.66972" lon="-2.94835">
        <ele>18.2</ele>
        <time>2020-06-06T14:03:03Z</time>
      </trkpt>
      <trkpt lat="47.66974" lon="-2.94843">
        <ele>18</ele>
        <time>2020-06-06T14:03:04Z</time>
      </trkpt>
      <trkpt lat="47.66977" lon="-2.94851">
        <ele>17.9</ele>
        <time>2020-06-06T14:03:05Z</time>
      </trkpt>
      <trkpt lat="47.66981" lon="-2.94857">
        <ele>17.7</ele>
        <time>2020-06-06T14:03:06Z</time>
      </trkpt>
      <trkpt lat="47.66985" lon="-2.94862">
        <ele>17.6</ele>
        <time>2020-06-06T14:03:07Z</time>
      </trkpt>
      <trkpt lat="47.66989" lon="-2.94867">
        <ele>17.4</ele>
        <time>2020-06-06T14:03:08Z</time>
      </trkpt>
      <trkpt lat="47.66993" lon="-2.9487">
        <ele>17.3</ele>
        <time>2020-06-06T14:03:09Z</time>
      </trkpt>
      <trkpt lat="47.66998" lon="-2.94872">
        <ele>17.2</ele>
        <time>2020-06-06T14:03:10Z</time>
      </trkpt>
      <trkpt lat="47.67002" lon="-2.94872">
        <ele>17.2</ele>
        <time>2020-06-06T14:03:11Z</time>
      </trkpt>
      <trkpt lat="47.67007" lon="-2.94872">
        <ele>17.1</ele>
        <time>2020-06-06T14:03:12Z</time>
      </trkpt>
      <trkpt lat="47.67012" lon="-2.94872">
        <ele>17</ele>
        <time>2020-06-06T14:03:13Z</time>
      </trkpt>
      <trkpt lat="47.67017" lon="-2.94873">
        <ele>17</ele>
        <time>2020-06-06T14:03:14Z</time>
      </trkpt>
      <trkpt lat="47.67023" lon="-2.94873">
        <ele>16.9</ele>
        <time>2020-06-06T14:03:15Z</time>
      </trkpt>
      <trkpt lat="47.67027" lon="-2.94877">
        <ele>16.9</ele>
        <time>2020-06-06T14:03:16Z</time>
      </trkpt>
      <trkpt lat="47.67029" lon="-2.94883">
        <ele>16.9</ele>
        <time>2020-06-06T14:03:17Z</time>
      </trkpt>
      <trkpt lat="47.67031" lon="-2.94891">
        <ele>16.9</ele>
        <time>2020-06-06T14:03:18Z</time>
      </trkpt>
      <trkpt lat="47.6703" lon="-2.94899">
        <ele>16.8</ele>
        <time>2020-06-06T14:03:19Z</time>
      </trkpt>
      <trkpt lat="47.67029" lon="-2.94906">
        <ele>16.7</ele>
        <time>2020-06-06T14:03:20Z</time>
      </trkpt>
      <trkpt lat="47.67026" lon="-2.94912">
        <ele>16.7</ele>
        <time>2020-06-06T14:03:21Z</time>
      </trkpt>
      <trkpt lat="47.67022" lon="-2.94917">
        <ele>16.6</ele>
        <time>2020-06-06T14:03:22Z</time>
      </trkpt>
      <trkpt lat="47.67017" lon="-2.94923">
        <ele>16.5</ele>
        <time>2020-06-06T14:03:23Z</time>
      </trkpt>
      <trkpt lat="47.67012" lon="-2.94926">
        <ele>16.5</ele>
        <time>2020-06-06T14:03:24Z</time>
      </trkpt>
      <trkpt lat="47.67007" lon="-2.94928">
        <ele>16.4</ele>
        <time>2020-06-06T14:03:25Z</time>
      </trkpt>
      <trkpt lat="47.67001" lon="-2.94929">
        <ele>16.4</ele>
        <time>2020-06-06T14:03:26Z</time>
      </trkpt>
      <trkpt lat="47.66996" lon="-2.94933">
        <ele>16.4</ele>
        <time>2020-06-06T14:03:27Z</time>
      </trkpt>
      <trkpt lat="47.66991" lon="-2.94937">
        <ele>16.4</ele>
        <time>2020-06-06T14:03:28Z</time>
      </trkpt>
      <trkpt lat="47.66987" lon="-2.94942">
        <ele>16.4</ele>
        <time>2020-06-06T14:03:29Z</time>
      </trkpt>
      <trkpt lat="47.66983" lon="-2.94947">
        <ele>16.4</ele>
        <time>2020-06-06T14:03:30Z</time>
      </trkpt>
      <trkpt lat="47.66979" lon="-2.94952">
        <ele>16.5</ele>
        <time>2020-06-06T14:03:31Z</time>
      </trkpt>
      <trkpt lat="47.66974" lon="-2.94957">
        <ele>16.5</ele>
        <time>2020-06-06T14:03:32Z</time>
      </trkpt>
      <trkpt lat="47.6697" lon="-2.94962">
        <ele>16.5</ele>
        <time>2020-06-06T14:03:33Z</time>
      </trkpt>
      <trkpt lat="47.66966" lon="-2.94967">
        <ele>16.6</ele>
        <time>2020-06-06T14:03:34Z</time>
      </trkpt>
      <trkpt lat="47.66961" lon="-2.94972">
        <ele>16.6</ele>
        <time>2020-06-06T14:03:35Z</time>
      </trkpt>
      <trkpt lat="47.66958" lon="-2.94978">
        <ele>16.7</ele>
        <time>2020-06-06T14:03:36Z</time>
      </trkpt>
      <trkpt lat="47.66954" lon="-2.94983">
        <ele>16.8</ele>
        <time>2020-06-06T14:03:37Z</time>
      </trkpt>
      <trkpt lat="47.6695" lon="-2.94987">
        <ele>16.9</ele>
        <time>2020-06-06T14:03:38Z</time>
      </trkpt>
      <trkpt lat="47.66946" lon="-2.94992">
        <ele>17</ele>
        <time>2020-06-06T14:03:39Z</time>
      </trkpt>
      <trkpt lat="47.66942" lon="-2.94996">
        <ele>17.1</ele>
        <time>2020-06-06T14:03:40Z</time>
      </trkpt>
      <trkpt lat="47.66938" lon="-2.95001">
        <ele>17.3</ele>
        <time>2020-06-06T14:03:41Z</time>
      </trkpt>
      <trkpt lat="47.66934" lon="-2.95006">
        <ele>17.4</ele>
        <time>2020-06-06T14:03:42Z</time>
      </trkpt>
      <trkpt lat="47.6693" lon="-2.95011">
        <ele>17.5</ele>
        <time>2020-06-06T14:03:43Z</time>
      </trkpt>
      <trkpt lat="47.66926" lon="-2.95015">
        <ele>17.7</ele>
        <time>2020-06-06T14:03:44Z</time>
      </trkpt>
      <trkpt lat="47.66922" lon="-2.9502">
        <ele>17.8</ele>
        <time>2020-06-06T14:03:45Z</time>
      </trkpt>
      <trkpt lat="47.66919" lon="-2.95025">
        <ele>18</ele>
        <time>2020-06-06T14:03:46Z</time>
      </trkpt>
      <trkpt lat="47.66915" lon="-2.9503">
        <ele>18.1</ele>
        <time>2020-06-06T14:03:47Z</time>
      </trkpt>
      <trkpt lat="47.66911" lon="-2.95035">
        <ele>18.3</ele>
        <time>2020-06-06T14:03:48Z</time>
      </trkpt>
      <trkpt lat="47.66908" lon="-2.9504">
        <ele>18.4</ele>
        <time>2020-06-06T14:03:49Z</time>
      </trkpt>
      <trkpt lat="47.66905" lon="-2.95046">
        <ele>18.6</ele>
        <time>2020-06-06T14:03:50Z</time>
      </trkpt>
      <trkpt lat="47.66901" lon="-2.95052">
        <ele>18.8</ele>
        <time>2020-06-06T14:03:51Z</time>
      </trkpt>
      <trkpt lat="47.66899" lon="-2.95058">
        <ele>18.9</ele>
        <time>2020-06-06T14:03:52Z</time>
      </trkpt>
      <trkpt lat="47.66895" lon="-2.95063">
        <ele>19.1</ele>
        <time>2020-06-06T14:03:53Z</time>
      </trkpt>
      <trkpt lat="47.66893" lon="-2.95069">
        <ele>19.2</ele>
        <time>2020-06-06T14:03:54Z</time>
      </trkpt>
      <trkpt lat="47.66891" lon="-2.95075">
        <ele>19.4</ele>
        <time>2020-06-06T14:03:55Z</time>
      </trkpt>
      <trkpt lat="47.66889" lon="-2.95082">
        <ele>19.5</ele>
        <time>2020-06-06T14:03:56Z</time>
      </trkpt>
      <trkpt lat="47.66887" lon="-2.95088">
        <ele>19.7</ele>
        <time>2020-06-06T14:03:57Z</time>
      </trkpt>
      <trkpt lat="47.66885" lon="-2.95094">
        <ele>19.9</ele>
        <time>2020-06-06T14:03:58Z</time>
      </trkpt>
      <trkpt lat="47.66883" lon="-2.951">
        <ele>20.1</ele>
        <time>2020-06-06T14:03:59Z</time>
      </trkpt>
      <trkpt lat="47.6688" lon="-2.95106">
        <ele>20.4</ele>
        <time>2020-06-06T14:04:00Z</time>
      </trkpt>
      <trkpt lat="47.66878" lon="-2.95111">
        <ele>20.6</ele>
        <time>2020-06-06T14:04:01Z</time>
      </trkpt>
      <trkpt lat="47.66876" lon="-2.95116">
        <ele>20.8</ele>
        <time>2020-06-06T14:04:02Z</time>
      </trkpt>
      <trkpt lat="47.66874" lon="-2.95122">
        <ele>21</ele>
        <time>2020-06-06T14:04:03Z</time>
      </trkpt>
      <trkpt lat="47.66872" lon="-2.95128">
        <ele>21.3</ele>
        <time>2020-06-06T14:04:04Z</time>
      </trkpt>
      <trkpt lat="47.66871" lon="-2.95133">
        <ele>21.5</ele>
        <time>2020-06-06T14:04:05Z</time>
      </trkpt>
      <trkpt lat="47.66869" lon="-2.95139">
        <ele>21.7</ele>
        <time>2020-06-06T14:04:06Z</time>
      </trkpt>
      <trkpt lat="47.66868" lon="-2.95143">
        <ele>21.9</ele>
        <time>2020-06-06T14:04:07Z</time>
      </trkpt>
      <trkpt lat="47.66867" lon="-2.95148">
        <ele>22</ele>
        <time>2020-06-06T14:04:08Z</time>
      </trkpt>
      <trkpt lat="47.66866" lon="-2.95152">
        <ele>22.2</ele>
        <time>2020-06-06T14:04:09Z</time>
      </trkpt>
      <trkpt lat="47.66865" lon="-2.95157">
        <ele>22.3</ele>
        <time>2020-06-06T14:04:10Z</time>
      </trkpt>
      <trkpt lat="47.66864" lon="-2.95163">
        <ele>22.5</ele>
        <time>2020-06-06T14:04:11Z</time>
      </trkpt>
      <trkpt lat="47.66863" lon="-2.95168">
        <ele>22.7</ele>
        <time>2020-06-06T14:04:12Z</time>
      </trkpt>
      <trkpt lat="47.66861" lon="-2.95175">
        <ele>22.9</ele>
        <time>2020-06-06T14:04:13Z</time>
      </trkpt>
      <trkpt lat="47.66859" lon="-2.95182">
        <ele>23.2</ele>
        <time>2020-06-06T14:04:14Z</time>
      </trkpt>
      <trkpt lat="47.66857" lon="-2.95189">
        <ele>23.4</ele>
        <time>2020-06-06T14:04:15Z</time>
      </trkpt>
      <trkpt lat="47.66856" lon="-2.95197">
        <ele>23.7</ele>
        <time>2020-06-06T14:04:16Z</time>
      </trkpt>
      <trkpt lat="47.66855" lon="-2.95204">
        <ele>23.9</ele>
        <time>2020-06-06T14:04:17Z</time>
      </trkpt>
      <trkpt lat="47.66854" lon="-2.95211">
        <ele>24.2</ele>
        <time>2020-06-06T14:04:18Z</time>
      </trkpt>
      <trkpt lat="47.66853" lon="-2.95217">
        <ele>24.4</ele>
        <time>2020-06-06T14:04:19Z</time>
      </trkpt>
      <trkpt lat="47.66852" lon="-2.95223">
        <ele>24.6</ele>
        <time>2020-06-06T14:04:20Z</time>
      </trkpt>
      <trkpt lat="47.66852" lon="-2.95229">
        <ele>24.7</ele>
        <time>2020-06-06T14:04:21Z</time>
      </trkpt>
      <trkpt lat="47.66851" lon="-2.95235">
        <ele>24.9</ele>
        <time>2020-06-06T14:04:22Z</time>
      </trkpt>
      <trkpt lat="47.6685" lon="-2.95242">
        <ele>25.1</ele>
        <time>2020-06-06T14:04:23Z</time>
      </trkpt>
      <trkpt lat="47.66849" lon="-2.95248">
        <ele>25.3</ele>
        <time>2020-06-06T14:04:24Z</time>
      </trkpt>
      <trkpt lat="47.66849" lon="-2.95254">
        <ele>25.4</ele>
        <time>2020-06-06T14:04:25Z</time>
      </trkpt>
      <trkpt lat="47.66848" lon="-2.95259">
        <ele>25.5</ele>
        <time>2020-06-06T14:04:26Z</time>
      </trkpt>
      <trkpt lat="47.66848" lon="-2.95265">
        <ele>25.8</ele>
        <time>2020-06-06T14:04:27Z</time>
      </trkpt>
      <trkpt lat="47.66848" lon="-2.9527">
        <ele>25.9</ele>
        <time>2020-06-06T14:04:28Z</time>
      </trkpt>
      <trkpt lat="47.66847" lon="-2.95275">
        <ele>26</ele>
        <time>2020-06-06T14:04:29Z</time>
      </trkpt>
      <trkpt lat="47.66847" lon="-2.95282">
        <ele>26.2</ele>
        <time>2020-06-06T14:04:30Z</time>
      </trkpt>
      <trkpt lat="47.66847" lon="-2.95289">
        <ele>26.3</ele>
        <time>2020-06-06T14:04:31Z</time>
      </trkpt>
      <trkpt lat="47.66847" lon="-2.95295">
        <ele>26.5</ele>
        <time>2020-06-06T14:04:32Z</time>
      </trkpt>
      <trkpt lat="47.66848" lon="-2.95303">
        <ele>26.7</ele>
        <time>2020-06-06T14:04:33Z</time>
      </trkpt>
      <trkpt lat="47.66848" lon="-2.95309">
        <ele>26.9</ele>
        <time>2020-06-06T14:04:34Z</time>
      </trkpt>
      <trkpt lat="47.66848" lon="-2.95315">
        <ele>27</ele>
        <time>2020-06-06T14:04:35Z</time>
      </trkpt>
      <trkpt lat="47.66849" lon="-2.95319">
        <ele>27.1</ele>
        <time>2020-06-06T14:04:36Z</time>
      </trkpt>
      <trkpt lat="47.66851" lon="-2.95326">
        <ele>27.2</ele>
        <time>2020-06-06T14:04:37Z</time>
      </trkpt>
      <trkpt lat="47.66851" lon="-2.9533">
        <ele>27.3</ele>
        <time>2020-06-06T14:04:38Z</time>
      </trkpt>
      <trkpt lat="47.66852" lon="-2.95337">
        <ele>27.5</ele>
        <time>2020-06-06T14:04:39Z</time>
      </trkpt>
      <trkpt lat="47.66852" lon="-2.95341">
        <ele>27.6</ele>
        <time>2020-06-06T14:04:40Z</time>
      </trkpt>
      <trkpt lat="47.66853" lon="-2.95349">
        <ele>27.7</ele>
        <time>2020-06-06T14:04:41Z</time>
      </trkpt>
      <trkpt lat="47.66853" lon="-2.95355">
        <ele>27.8</ele>
        <time>2020-06-06T14:04:42Z</time>
      </trkpt>
      <trkpt lat="47.66853" lon="-2.95361">
        <ele>27.9</ele>
        <time>2020-06-06T14:04:43Z</time>
      </trkpt>
      <trkpt lat="47.66853" lon="-2.95369">
        <ele>28</ele>
        <time>2020-06-06T14:04:44Z</time>
      </trkpt>
      <trkpt lat="47.66854" lon="-2.95375">
        <ele>28.1</ele>
        <time>2020-06-06T14:04:45Z</time>
      </trkpt>
      <trkpt lat="47.66855" lon="-2.95382">
        <ele>28.2</ele>
        <time>2020-06-06T14:04:46Z</time>
      </trkpt>
      <trkpt lat="47.66856" lon="-2.95388">
        <ele>28.3</ele>
        <time>2020-06-06T14:04:47Z</time>
      </trkpt>
      <trkpt lat="47.66857" lon="-2.95394">
        <ele>28.4</ele>
        <time>2020-06-06T14:04:48Z</time>
      </trkpt>
      <trkpt lat="47.66857" lon="-2.95396">
        <ele>28.5</ele>
        <time>2020-06-06T14:04:49Z</time>
      </trkpt>
      <trkpt lat="47.66858" lon="-2.95402">
        <ele>28.5</ele>
        <time>2020-06-06T14:04:50Z</time>
      </trkpt>
      <trkpt lat="47.66857" lon="-2.95408">
        <ele>28.6</ele>
        <time>2020-06-06T14:04:51Z</time>
      </trkpt>
      <trkpt lat="47.66855" lon="-2.95415">
        <ele>28.7</ele>
        <time>2020-06-06T14:04:52Z</time>
      </trkpt>
      <trkpt lat="47.66853" lon="-2.95421">
        <ele>28.8</ele>
        <time>2020-06-06T14:04:53Z</time>
      </trkpt>
      <trkpt lat="47.66851" lon="-2.95425">
        <ele>28.9</ele>
        <time>2020-06-06T14:04:54Z</time>
      </trkpt>
      <trkpt lat="47.66849" lon="-2.95429">
        <ele>29</ele>
        <time>2020-06-06T14:04:55Z</time>
      </trkpt>
      <trkpt lat="47.66846" lon="-2.95433">
        <ele>29.1</ele>
        <time>2020-06-06T14:04:56Z</time>
      </trkpt>
      <trkpt lat="47.66844" lon="-2.95438">
        <ele>29.2</ele>
        <time>2020-06-06T14:04:57Z</time>
      </trkpt>
      <trkpt lat="47.66841" lon="-2.95443">
        <ele>29.2</ele>
        <time>2020-06-06T14:04:58Z</time>
      </trkpt>
      <trkpt lat="47.66838" lon="-2.95447">
        <ele>29.3</ele>
        <time>2020-06-06T14:04:59Z</time>
      </trkpt>
      <trkpt lat="47.66834" lon="-2.95451">
        <ele>29.4</ele>
        <time>2020-06-06T14:05:00Z</time>
      </trkpt>
      <trkpt lat="47.66831" lon="-2.95454">
        <ele>29.5</ele>
        <time>2020-06-06T14:05:01Z</time>
      </trkpt>
      <trkpt lat="47.66827" lon="-2.9546">
        <ele>29.5</ele>
        <time>2020-06-06T14:05:02Z</time>
      </trkpt>
      <trkpt lat="47.66823" lon="-2.95462">
        <ele>29.6</ele>
        <time>2020-06-06T14:05:03Z</time>
      </trkpt>
      <trkpt lat="47.6682" lon="-2.95465">
        <ele>29.6</ele>
        <time>2020-06-06T14:05:04Z</time>
      </trkpt>
      <trkpt lat="47.66815" lon="-2.95469">
        <ele>29.7</ele>
        <time>2020-06-06T14:05:05Z</time>
      </trkpt>
      <trkpt lat="47.66812" lon="-2.9547">
        <ele>29.7</ele>
        <time>2020-06-06T14:05:06Z</time>
      </trkpt>
      <trkpt lat="47.66808" lon="-2.95472">
        <ele>29.9</ele>
        <time>2020-06-06T14:05:07Z</time>
      </trkpt>
      <trkpt lat="47.66805" lon="-2.95474">
        <ele>30</ele>
        <time>2020-06-06T14:05:08Z</time>
      </trkpt>
      <trkpt lat="47.668" lon="-2.95476">
        <ele>30.1</ele>
        <time>2020-06-06T14:05:09Z</time>
      </trkpt>
      <trkpt lat="47.66796" lon="-2.95479">
        <ele>30.1</ele>
        <time>2020-06-06T14:05:10Z</time>
      </trkpt>
      <trkpt lat="47.66793" lon="-2.95481">
        <ele>30</ele>
        <time>2020-06-06T14:05:11Z</time>
      </trkpt>
      <trkpt lat="47.66791" lon="-2.95486">
        <ele>30</ele>
        <time>2020-06-06T14:05:12Z</time>
      </trkpt>
      <trkpt lat="47.6679" lon="-2.95492">
        <ele>29.9</ele>
        <time>2020-06-06T14:05:13Z</time>
      </trkpt>
      <trkpt lat="47.6679" lon="-2.95494">
        <ele>29.9</ele>
        <time>2020-06-06T14:05:14Z</time>
      </trkpt>
      <trkpt lat="47.6679" lon="-2.95498">
        <ele>29.9</ele>
        <time>2020-06-06T14:05:15Z</time>
      </trkpt>
      <trkpt lat="47.66789" lon="-2.95503">
        <ele>29.8</ele>
        <time>2020-06-06T14:05:16Z</time>
      </trkpt>
      <trkpt lat="47.66788" lon="-2.95507">
        <ele>29.8</ele>
        <time>2020-06-06T14:05:17Z</time>
      </trkpt>
      <trkpt lat="47.66786" lon="-2.95512">
        <ele>29.7</ele>
        <time>2020-06-06T14:05:18Z</time>
      </trkpt>
      <trkpt lat="47.66786" lon="-2.95519">
        <ele>29.7</ele>
        <time>2020-06-06T14:05:19Z</time>
      </trkpt>
      <trkpt lat="47.66785" lon="-2.95525">
        <ele>29.6</ele>
        <time>2020-06-06T14:05:20Z</time>
      </trkpt>
      <trkpt lat="47.66785" lon="-2.95531">
        <ele>29.6</ele>
        <time>2020-06-06T14:05:21Z</time>
      </trkpt>
      <trkpt lat="47.66785" lon="-2.95536">
        <ele>29.5</ele>
        <time>2020-06-06T14:05:22Z</time>
      </trkpt>
      <trkpt lat="47.66786" lon="-2.95543">
        <ele>29.5</ele>
        <time>2020-06-06T14:05:23Z</time>
      </trkpt>
      <trkpt lat="47.66787" lon="-2.95549">
        <ele>29.5</ele>
        <time>2020-06-06T14:05:24Z</time>
      </trkpt>
      <trkpt lat="47.66788" lon="-2.95557">
        <ele>29.4</ele>
        <time>2020-06-06T14:05:25Z</time>
      </trkpt>
      <trkpt lat="47.66789" lon="-2.95562">
        <ele>29.4</ele>
        <time>2020-06-06T14:05:26Z</time>
      </trkpt>
      <trkpt lat="47.66789" lon="-2.95568">
        <ele>29.5</ele>
        <time>2020-06-06T14:05:27Z</time>
      </trkpt>
      <trkpt lat="47.66791" lon="-2.95575">
        <ele>29.5</ele>
        <time>2020-06-06T14:05:28Z</time>
      </trkpt>
      <trkpt lat="47.66792" lon="-2.9558">
        <ele>29.5</ele>
        <time>2020-06-06T14:05:29Z</time>
      </trkpt>
      <trkpt lat="47.66794" lon="-2.95585">
        <ele>29.5</ele>
        <time>2020-06-06T14:05:30Z</time>
      </trkpt>
      <trkpt lat="47.66796" lon="-2.9559">
        <ele>29.5</ele>
        <time>2020-06-06T14:05:31Z</time>
      </trkpt>
      <trkpt lat="47.66798" lon="-2.95596">
        <ele>29.6</ele>
        <time>2020-06-06T14:05:32Z</time>
      </trkpt>
      <trkpt lat="47.66799" lon="-2.95603">
        <ele>29.6</ele>
        <time>2020-06-06T14:05:33Z</time>
      </trkpt>
      <trkpt lat="47.66801" lon="-2.9561">
        <ele>29.6</ele>
        <time>2020-06-06T14:05:34Z</time>
      </trkpt>
      <trkpt lat="47.66803" lon="-2.95615">
        <ele>29.7</ele>
        <time>2020-06-06T14:05:35Z</time>
      </trkpt>
      <trkpt lat="47.66803" lon="-2.95619">
        <ele>29.7</ele>
        <time>2020-06-06T14:05:36Z</time>
      </trkpt>
      <trkpt lat="47.66804" lon="-2.95624">
        <ele>29.7</ele>
        <time>2020-06-06T14:05:37Z</time>
      </trkpt>
      <trkpt lat="47.66804" lon="-2.95629">
        <ele>29.7</ele>
        <time>2020-06-06T14:05:38Z</time>
      </trkpt>
      <trkpt lat="47.66805" lon="-2.95635">
        <ele>29.7</ele>
        <time>2020-06-06T14:05:39Z</time>
      </trkpt>
      <trkpt lat="47.66806" lon="-2.9564">
        <ele>29.7</ele>
        <time>2020-06-06T14:05:40Z</time>
      </trkpt>
      <trkpt lat="47.66806" lon="-2.95645">
        <ele>29.7</ele>
        <time>2020-06-06T14:05:41Z</time>
      </trkpt>
      <trkpt lat="47.66807" lon="-2.95651">
        <ele>29.7</ele>
        <time>2020-06-06T14:05:42Z</time>
      </trkpt>
      <trkpt lat="47.66807" lon="-2.95653">
        <ele>29.6</ele>
        <time>2020-06-06T14:05:43Z</time>
      </trkpt>
      <trkpt lat="47.66808" lon="-2.95658">
        <ele>29.6</ele>
        <time>2020-06-06T14:05:44Z</time>
      </trkpt>
      <trkpt lat="47.66809" lon="-2.95663">
        <ele>29.6</ele>
        <time>2020-06-06T14:05:45Z</time>
      </trkpt>
      <trkpt lat="47.66808" lon="-2.95668">
        <ele>29.6</ele>
        <time>2020-06-06T14:05:46Z</time>
      </trkpt>
      <trkpt lat="47.66808" lon="-2.95673">
        <ele>29.6</ele>
        <time>2020-06-06T14:05:47Z</time>
      </trkpt>
      <trkpt lat="47.66808" lon="-2.95675">
        <ele>29.6</ele>
        <time>2020-06-06T14:05:48Z</time>
      </trkpt>
      <trkpt lat="47.66807" lon="-2.95679">
        <ele>29.5</ele>
        <time>2020-06-06T14:05:49Z</time>
      </trkpt>
      <trkpt lat="47.66808" lon="-2.95685">
        <ele>29.5</ele>
        <time>2020-06-06T14:05:50Z</time>
      </trkpt>
      <trkpt lat="47.66808" lon="-2.9569">
        <ele>29.5</ele>
        <time>2020-06-06T14:05:51Z</time>
      </trkpt>
      <trkpt lat="47.66809" lon="-2.95693">
        <ele>29.5</ele>
        <time>2020-06-06T14:05:52Z</time>
      </trkpt>
      <trkpt lat="47.66808" lon="-2.95698">
        <ele>29.5</ele>
        <time>2020-06-06T14:05:53Z</time>
      </trkpt>
      <trkpt lat="47.66807" lon="-2.95704">
        <ele>29.3</ele>
        <time>2020-06-06T14:05:54Z</time>
      </trkpt>
      <trkpt lat="47.66805" lon="-2.9571">
        <ele>29.2</ele>
        <time>2020-06-06T14:05:55Z</time>
      </trkpt>
      <trkpt lat="47.66804" lon="-2.95715">
        <ele>29.1</ele>
        <time>2020-06-06T14:05:56Z</time>
      </trkpt>
      <trkpt lat="47.66803" lon="-2.95721">
        <ele>28.9</ele>
        <time>2020-06-06T14:05:57Z</time>
      </trkpt>
      <trkpt lat="47.66802" lon="-2.95728">
        <ele>28.8</ele>
        <time>2020-06-06T14:05:58Z</time>
      </trkpt>
      <trkpt lat="47.66801" lon="-2.95734">
        <ele>28.7</ele>
        <time>2020-06-06T14:05:59Z</time>
      </trkpt>
      <trkpt lat="47.668" lon="-2.9574">
        <ele>28.5</ele>
        <time>2020-06-06T14:06:00Z</time>
      </trkpt>
      <trkpt lat="47.668" lon="-2.95745">
        <ele>28.4</ele>
        <time>2020-06-06T14:06:01Z</time>
      </trkpt>
      <trkpt lat="47.66799" lon="-2.9575">
        <ele>28.3</ele>
        <time>2020-06-06T14:06:02Z</time>
      </trkpt>
      <trkpt lat="47.66799" lon="-2.95755">
        <ele>28.2</ele>
        <time>2020-06-06T14:06:03Z</time>
      </trkpt>
      <trkpt lat="47.66798" lon="-2.95763">
        <ele>28.1</ele>
        <time>2020-06-06T14:06:04Z</time>
      </trkpt>
      <trkpt lat="47.66798" lon="-2.95769">
        <ele>28</ele>
        <time>2020-06-06T14:06:05Z</time>
      </trkpt>
      <trkpt lat="47.66798" lon="-2.95774">
        <ele>27.8</ele>
        <time>2020-06-06T14:06:06Z</time>
      </trkpt>
      <trkpt lat="47.66797" lon="-2.9578">
        <ele>27.7</ele>
        <time>2020-06-06T14:06:07Z</time>
      </trkpt>
      <trkpt lat="47.66796" lon="-2.95787">
        <ele>27.6</ele>
        <time>2020-06-06T14:06:08Z</time>
      </trkpt>
      <trkpt lat="47.66796" lon="-2.95793">
        <ele>27.4</ele>
        <time>2020-06-06T14:06:09Z</time>
      </trkpt>
      <trkpt lat="47.66795" lon="-2.95799">
        <ele>27.3</ele>
        <time>2020-06-06T14:06:10Z</time>
      </trkpt>
      <trkpt lat="47.66794" lon="-2.95807">
        <ele>27.1</ele>
        <time>2020-06-06T14:06:11Z</time>
      </trkpt>
      <trkpt lat="47.66794" lon="-2.95814">
        <ele>26.9</ele>
        <time>2020-06-06T14:06:12Z</time>
      </trkpt>
      <trkpt lat="47.66794" lon="-2.95821">
        <ele>26.8</ele>
        <time>2020-06-06T14:06:13Z</time>
      </trkpt>
      <trkpt lat="47.66793" lon="-2.95828">
        <ele>26.6</ele>
        <time>2020-06-06T14:06:14Z</time>
      </trkpt>
      <trkpt lat="47.66792" lon="-2.95834">
        <ele>26.4</ele>
        <time>2020-06-06T14:06:15Z</time>
      </trkpt>
      <trkpt lat="47.66791" lon="-2.95841">
        <ele>26.2</ele>
        <time>2020-06-06T14:06:16Z</time>
      </trkpt>
      <trkpt lat="47.6679" lon="-2.95848">
        <ele>26</ele>
        <time>2020-06-06T14:06:17Z</time>
      </trkpt>
      <trkpt lat="47.66789" lon="-2.95856">
        <ele>25.8</ele>
        <time>2020-06-06T14:06:18Z</time>
      </trkpt>
      <trkpt lat="47.66789" lon="-2.95863">
        <ele>25.6</ele>
        <time>2020-06-06T14:06:19Z</time>
      </trkpt>
      <trkpt lat="47.66788" lon="-2.9587">
        <ele>25.4</ele>
        <time>2020-06-06T14:06:20Z</time>
      </trkpt>
      <trkpt lat="47.66787" lon="-2.95877">
        <ele>25.2</ele>
        <time>2020-06-06T14:06:21Z</time>
      </trkpt>
      <trkpt lat="47.66786" lon="-2.95883">
        <ele>25</ele>
        <time>2020-06-06T14:06:22Z</time>
      </trkpt>
      <trkpt lat="47.66785" lon="-2.9589">
        <ele>24.9</ele>
        <time>2020-06-06T14:06:23Z</time>
      </trkpt>
      <trkpt lat="47.66785" lon="-2.95896">
        <ele>24.7</ele>
        <time>2020-06-06T14:06:24Z</time>
      </trkpt>
      <trkpt lat="47.66784" lon="-2.95903">
        <ele>24.5</ele>
        <time>2020-06-06T14:06:25Z</time>
      </trkpt>
      <trkpt lat="47.66783" lon="-2.95911">
        <ele>24.2</ele>
        <time>2020-06-06T14:06:26Z</time>
      </trkpt>
      <trkpt lat="47.66782" lon="-2.95919">
        <ele>24</ele>
        <time>2020-06-06T14:06:27Z</time>
      </trkpt>
      <trkpt lat="47.66781" lon="-2.95927">
        <ele>23.8</ele>
        <time>2020-06-06T14:06:28Z</time>
      </trkpt>
      <trkpt lat="47.66781" lon="-2.95934">
        <ele>23.6</ele>
        <time>2020-06-06T14:06:29Z</time>
      </trkpt>
      <trkpt lat="47.6678" lon="-2.9594">
        <ele>23.4</ele>
        <time>2020-06-06T14:06:30Z</time>
      </trkpt>
      <trkpt lat="47.6678" lon="-2.95947">
        <ele>23.2</ele>
        <time>2020-06-06T14:06:31Z</time>
      </trkpt>
      <trkpt lat="47.66779" lon="-2.95954">
        <ele>23</ele>
        <time>2020-06-06T14:06:32Z</time>
      </trkpt>
      <trkpt lat="47.66779" lon="-2.95962">
        <ele>22.8</ele>
        <time>2020-06-06T14:06:33Z</time>
      </trkpt>
      <trkpt lat="47.66778" lon="-2.95968">
        <ele>22.5</ele>
        <time>2020-06-06T14:06:34Z</time>
      </trkpt>
      <trkpt lat="47.66777" lon="-2.95975">
        <ele>22.4</ele>
        <time>2020-06-06T14:06:35Z</time>
      </trkpt>
      <trkpt lat="47.66776" lon="-2.95981">
        <ele>22.2</ele>
        <time>2020-06-06T14:06:36Z</time>
      </trkpt>
      <trkpt lat="47.66775" lon="-2.95989">
        <ele>22</ele>
        <time>2020-06-06T14:06:37Z</time>
      </trkpt>
      <trkpt lat="47.66775" lon="-2.95996">
        <ele>21.8</ele>
        <time>2020-06-06T14:06:38Z</time>
      </trkpt>
      <trkpt lat="47.66774" lon="-2.96004">
        <ele>21.6</ele>
        <time>2020-06-06T14:06:39Z</time>
      </trkpt>
      <trkpt lat="47.66774" lon="-2.96011">
        <ele>21.4</ele>
        <time>2020-06-06T14:06:40Z</time>
      </trkpt>
      <trkpt lat="47.66773" lon="-2.96018">
        <ele>21.2</ele>
        <time>2020-06-06T14:06:41Z</time>
      </trkpt>
      <trkpt lat="47.66773" lon="-2.96026">
        <ele>21</ele>
        <time>2020-06-06T14:06:42Z</time>
      </trkpt>
      <trkpt lat="47.66773" lon="-2.96034">
        <ele>20.8</ele>
        <time>2020-06-06T14:06:43Z</time>
      </trkpt>
      <trkpt lat="47.66774" lon="-2.96043">
        <ele>20.6</ele>
        <time>2020-06-06T14:06:44Z</time>
      </trkpt>
      <trkpt lat="47.66774" lon="-2.96052">
        <ele>20.4</ele>
        <time>2020-06-06T14:06:45Z</time>
      </trkpt>
      <trkpt lat="47.66773" lon="-2.96061">
        <ele>20.2</ele>
        <time>2020-06-06T14:06:46Z</time>
      </trkpt>
      <trkpt lat="47.66772" lon="-2.9607">
        <ele>19.9</ele>
        <time>2020-06-06T14:06:47Z</time>
      </trkpt>
      <trkpt lat="47.66771" lon="-2.96079">
        <ele>19.7</ele>
        <time>2020-06-06T14:06:48Z</time>
      </trkpt>
      <trkpt lat="47.66771" lon="-2.96089">
        <ele>19.6</ele>
        <time>2020-06-06T14:06:49Z</time>
      </trkpt>
      <trkpt lat="47.6677" lon="-2.96098">
        <ele>19.4</ele>
        <time>2020-06-06T14:06:50Z</time>
      </trkpt>
      <trkpt lat="47.6677" lon="-2.96106">
        <ele>19.3</ele>
        <time>2020-06-06T14:06:51Z</time>
      </trkpt>
      <trkpt lat="47.6677" lon="-2.96114">
        <ele>19.2</ele>
        <time>2020-06-06T14:06:52Z</time>
      </trkpt>
      <trkpt lat="47.6677" lon="-2.96121">
        <ele>19.1</ele>
        <time>2020-06-06T14:06:53Z</time>
      </trkpt>
      <trkpt lat="47.6677" lon="-2.96128">
        <ele>19</ele>
        <time>2020-06-06T14:06:54Z</time>
      </trkpt>
      <trkpt lat="47.6677" lon="-2.96136">
        <ele>18.9</ele>
        <time>2020-06-06T14:06:55Z</time>
      </trkpt>
      <trkpt lat="47.6677" lon="-2.96144">
        <ele>18.6</ele>
        <time>2020-06-06T14:06:56Z</time>
      </trkpt>
      <trkpt lat="47.66769" lon="-2.96152">
        <ele>18.4</ele>
        <time>2020-06-06T14:06:57Z</time>
      </trkpt>
      <trkpt lat="47.66769" lon="-2.96162">
        <ele>18.3</ele>
        <time>2020-06-06T14:06:58Z</time>
      </trkpt>
      <trkpt lat="47.66768" lon="-2.96172">
        <ele>18.1</ele>
        <time>2020-06-06T14:06:59Z</time>
      </trkpt>
      <trkpt lat="47.66767" lon="-2.96181">
        <ele>18</ele>
        <time>2020-06-06T14:07:00Z</time>
      </trkpt>
      <trkpt lat="47.66767" lon="-2.96189">
        <ele>18</ele>
        <time>2020-06-06T14:07:01Z</time>
      </trkpt>
      <trkpt lat="47.66766" lon="-2.96197">
        <ele>18</ele>
        <time>2020-06-06T14:07:02Z</time>
      </trkpt>
      <trkpt lat="47.66765" lon="-2.96205">
        <ele>18</ele>
        <time>2020-06-06T14:07:03Z</time>
      </trkpt>
      <trkpt lat="47.66764" lon="-2.96214">
        <ele>18</ele>
        <time>2020-06-06T14:07:04Z</time>
      </trkpt>
      <trkpt lat="47.66763" lon="-2.96221">
        <ele>18</ele>
        <time>2020-06-06T14:07:05Z</time>
      </trkpt>
      <trkpt lat="47.66762" lon="-2.96228">
        <ele>18</ele>
        <time>2020-06-06T14:07:06Z</time>
      </trkpt>
      <trkpt lat="47.6676" lon="-2.96235">
        <ele>18</ele>
        <time>2020-06-06T14:07:07Z</time>
      </trkpt>
      <trkpt lat="47.66759" lon="-2.96243">
        <ele>18.1</ele>
        <time>2020-06-06T14:07:08Z</time>
      </trkpt>
      <trkpt lat="47.66758" lon="-2.9625">
        <ele>18.1</ele>
        <time>2020-06-06T14:07:09Z</time>
      </trkpt>
      <trkpt lat="47.66757" lon="-2.96257">
        <ele>18.2</ele>
        <time>2020-06-06T14:07:10Z</time>
      </trkpt>
      <trkpt lat="47.66756" lon="-2.96263">
        <ele>18.2</ele>
        <time>2020-06-06T14:07:11Z</time>
      </trkpt>
      <trkpt lat="47.66756" lon="-2.96268">
        <ele>18.3</ele>
        <time>2020-06-06T14:07:12Z</time>
      </trkpt>
      <trkpt lat="47.66755" lon="-2.96276">
        <ele>18.3</ele>
        <time>2020-06-06T14:07:13Z</time>
      </trkpt>
      <trkpt lat="47.66754" lon="-2.96284">
        <ele>18.3</ele>
        <time>2020-06-06T14:07:14Z</time>
      </trkpt>
      <trkpt lat="47.66753" lon="-2.96291">
        <ele>18.4</ele>
        <time>2020-06-06T14:07:15Z</time>
      </trkpt>
      <trkpt lat="47.66752" lon="-2.96298">
        <ele>18.4</ele>
        <time>2020-06-06T14:07:16Z</time>
      </trkpt>
      <trkpt lat="47.66752" lon="-2.96306">
        <ele>18.5</ele>
        <time>2020-06-06T14:07:17Z</time>
      </trkpt>
      <trkpt lat="47.66751" lon="-2.96312">
        <ele>18.5</ele>
        <time>2020-06-06T14:07:18Z</time>
      </trkpt>
      <trkpt lat="47.6675" lon="-2.9632">
        <ele>18.6</ele>
        <time>2020-06-06T14:07:19Z</time>
      </trkpt>
      <trkpt lat="47.6675" lon="-2.96326">
        <ele>18.6</ele>
        <time>2020-06-06T14:07:20Z</time>
      </trkpt>
      <trkpt lat="47.66749" lon="-2.96332">
        <ele>18.6</ele>
        <time>2020-06-06T14:07:21Z</time>
      </trkpt>
      <trkpt lat="47.66748" lon="-2.96339">
        <ele>18.7</ele>
        <time>2020-06-06T14:07:22Z</time>
      </trkpt>
      <trkpt lat="47.66747" lon="-2.96347">
        <ele>18.7</ele>
        <time>2020-06-06T14:07:23Z</time>
      </trkpt>
      <trkpt lat="47.66747" lon="-2.96354">
        <ele>18.7</ele>
        <time>2020-06-06T14:07:24Z</time>
      </trkpt>
      <trkpt lat="47.66747" lon="-2.96363">
        <ele>18.7</ele>
        <time>2020-06-06T14:07:25Z</time>
      </trkpt>
      <trkpt lat="47.66748" lon="-2.96372">
        <ele>18.7</ele>
        <time>2020-06-06T14:07:26Z</time>
      </trkpt>
      <trkpt lat="47.66748" lon="-2.96381">
        <ele>18.6</ele>
        <time>2020-06-06T14:07:27Z</time>
      </trkpt>
      <trkpt lat="47.66749" lon="-2.9639">
        <ele>18.5</ele>
        <time>2020-06-06T14:07:28Z</time>
      </trkpt>
      <trkpt lat="47.6675" lon="-2.96399">
        <ele>18.5</ele>
        <time>2020-06-06T14:07:29Z</time>
      </trkpt>
      <trkpt lat="47.6675" lon="-2.96407">
        <ele>18.4</ele>
        <time>2020-06-06T14:07:30Z</time>
      </trkpt>
      <trkpt lat="47.66751" lon="-2.96415">
        <ele>18.4</ele>
        <time>2020-06-06T14:07:31Z</time>
      </trkpt>
      <trkpt lat="47.66751" lon="-2.96423">
        <ele>18.4</ele>
        <time>2020-06-06T14:07:32Z</time>
      </trkpt>
      <trkpt lat="47.6675" lon="-2.96429">
        <ele>18.4</ele>
        <time>2020-06-06T14:07:33Z</time>
      </trkpt>
      <trkpt lat="47.6675" lon="-2.96434">
        <ele>18.5</ele>
        <time>2020-06-06T14:07:34Z</time>
      </trkpt>
      <trkpt lat="47.66749" lon="-2.96439">
        <ele>18.5</ele>
        <time>2020-06-06T14:07:35Z</time>
      </trkpt>
      <trkpt lat="47.66747" lon="-2.96443">
        <ele>18.5</ele>
        <time>2020-06-06T14:07:36Z</time>
      </trkpt>
      <trkpt lat="47.66746" lon="-2.96443">
        <ele>18.5</ele>
        <time>2020-06-06T14:07:37Z</time>
      </trkpt>
      <trkpt lat="47.66745" lon="-2.96445">
        <ele>18.6</ele>
        <time>2020-06-06T14:07:38Z</time>
      </trkpt>
      <trkpt lat="47.66743" lon="-2.96446">
        <ele>18.6</ele>
        <time>2020-06-06T14:07:39Z</time>
      </trkpt>
      <trkpt lat="47.66741" lon="-2.9645">
        <ele>18.6</ele>
        <time>2020-06-06T14:07:40Z</time>
      </trkpt>
      <trkpt lat="47.6674" lon="-2.96452">
        <ele>18.6</ele>
        <time>2020-06-06T14:07:41Z</time>
      </trkpt>
      <trkpt lat="47.6674" lon="-2.96458">
        <ele>18.6</ele>
        <time>2020-06-06T14:07:42Z</time>
      </trkpt>
      <trkpt lat="47.66741" lon="-2.96461">
        <ele>18.6</ele>
        <time>2020-06-06T14:07:43Z</time>
      </trkpt>
      <trkpt lat="47.6674" lon="-2.96467">
        <ele>18.6</ele>
        <time>2020-06-06T14:07:44Z</time>
      </trkpt>
      <trkpt lat="47.66739" lon="-2.96472">
        <ele>18.6</ele>
        <time>2020-06-06T14:07:45Z</time>
      </trkpt>
      <trkpt lat="47.66737" lon="-2.96477">
        <ele>18.6</ele>
        <time>2020-06-06T14:07:46Z</time>
      </trkpt>
      <trkpt lat="47.66732" lon="-2.96483">
        <ele>18.6</ele>
        <time>2020-06-06T14:07:47Z</time>
      </trkpt>
      <trkpt lat="47.66728" lon="-2.96487">
        <ele>18.6</ele>
        <time>2020-06-06T14:07:48Z</time>
      </trkpt>
      <trkpt lat="47.66723" lon="-2.96492">
        <ele>18.6</ele>
        <time>2020-06-06T14:07:49Z</time>
      </trkpt>
      <trkpt lat="47.6672" lon="-2.96497">
        <ele>18.5</ele>
        <time>2020-06-06T14:07:50Z</time>
      </trkpt>
      <trkpt lat="47.66716" lon="-2.96501">
        <ele>18.4</ele>
        <time>2020-06-06T14:07:51Z</time>
      </trkpt>
      <trkpt lat="47.66713" lon="-2.96506">
        <ele>18.2</ele>
        <time>2020-06-06T14:07:52Z</time>
      </trkpt>
      <trkpt lat="47.66709" lon="-2.96513">
        <ele>18.1</ele>
        <time>2020-06-06T14:07:53Z</time>
      </trkpt>
      <trkpt lat="47.66707" lon="-2.9652">
        <ele>17.9</ele>
        <time>2020-06-06T14:07:54Z</time>
      </trkpt>
      <trkpt lat="47.66705" lon="-2.96528">
        <ele>17.7</ele>
        <time>2020-06-06T14:07:55Z</time>
      </trkpt>
      <trkpt lat="47.66704" lon="-2.96536">
        <ele>17.4</ele>
        <time>2020-06-06T14:07:56Z</time>
      </trkpt>
      <trkpt lat="47.66704" lon="-2.96543">
        <ele>17.3</ele>
        <time>2020-06-06T14:07:57Z</time>
      </trkpt>
      <trkpt lat="47.66704" lon="-2.96552">
        <ele>17.1</ele>
        <time>2020-06-06T14:07:58Z</time>
      </trkpt>
      <trkpt lat="47.66704" lon="-2.96561">
        <ele>16.8</ele>
        <time>2020-06-06T14:07:59Z</time>
      </trkpt>
      <trkpt lat="47.66704" lon="-2.96571">
        <ele>16.6</ele>
        <time>2020-06-06T14:08:00Z</time>
      </trkpt>
      <trkpt lat="47.66704" lon="-2.9658">
        <ele>16.4</ele>
        <time>2020-06-06T14:08:01Z</time>
      </trkpt>
      <trkpt lat="47.66703" lon="-2.96588">
        <ele>16.2</ele>
        <time>2020-06-06T14:08:02Z</time>
      </trkpt>
      <trkpt lat="47.66704" lon="-2.96595">
        <ele>16.1</ele>
        <time>2020-06-06T14:08:03Z</time>
      </trkpt>
      <trkpt lat="47.66702" lon="-2.96604">
        <ele>15.9</ele>
        <time>2020-06-06T14:08:04Z</time>
      </trkpt>
      <trkpt lat="47.66702" lon="-2.96614">
        <ele>15.7</ele>
        <time>2020-06-06T14:08:05Z</time>
      </trkpt>
      <trkpt lat="47.66702" lon="-2.96625">
        <ele>15.4</ele>
        <time>2020-06-06T14:08:06Z</time>
      </trkpt>
      <trkpt lat="47.66702" lon="-2.96633">
        <ele>15.3</ele>
        <time>2020-06-06T14:08:07Z</time>
      </trkpt>
      <trkpt lat="47.66702" lon="-2.96641">
        <ele>15.1</ele>
        <time>2020-06-06T14:08:08Z</time>
      </trkpt>
      <trkpt lat="47.66702" lon="-2.9665">
        <ele>14.9</ele>
        <time>2020-06-06T14:08:09Z</time>
      </trkpt>
      <trkpt lat="47.66703" lon="-2.96661">
        <ele>14.7</ele>
        <time>2020-06-06T14:08:10Z</time>
      </trkpt>
      <trkpt lat="47.66703" lon="-2.9667">
        <ele>14.5</ele>
        <time>2020-06-06T14:08:11Z</time>
      </trkpt>
      <trkpt lat="47.66704" lon="-2.9668">
        <ele>14.3</ele>
        <time>2020-06-06T14:08:12Z</time>
      </trkpt>
      <trkpt lat="47.66704" lon="-2.96689">
        <ele>14.1</ele>
        <time>2020-06-06T14:08:13Z</time>
      </trkpt>
      <trkpt lat="47.66704" lon="-2.96699">
        <ele>13.9</ele>
        <time>2020-06-06T14:08:14Z</time>
      </trkpt>
      <trkpt lat="47.66704" lon="-2.96708">
        <ele>13.7</ele>
        <time>2020-06-06T14:08:15Z</time>
      </trkpt>
      <trkpt lat="47.66705" lon="-2.96717">
        <ele>13.5</ele>
        <time>2020-06-06T14:08:16Z</time>
      </trkpt>
      <trkpt lat="47.66706" lon="-2.96725">
        <ele>13.4</ele>
        <time>2020-06-06T14:08:17Z</time>
      </trkpt>
      <trkpt lat="47.66707" lon="-2.96733">
        <ele>13.2</ele>
        <time>2020-06-06T14:08:18Z</time>
      </trkpt>
      <trkpt lat="47.66708" lon="-2.96743">
        <ele>13</ele>
        <time>2020-06-06T14:08:19Z</time>
      </trkpt>
      <trkpt lat="47.6671" lon="-2.96754">
        <ele>12.9</ele>
        <time>2020-06-06T14:08:20Z</time>
      </trkpt>
      <trkpt lat="47.6671" lon="-2.96765">
        <ele>12.7</ele>
        <time>2020-06-06T14:08:21Z</time>
      </trkpt>
      <trkpt lat="47.66711" lon="-2.96776">
        <ele>12.5</ele>
        <time>2020-06-06T14:08:22Z</time>
      </trkpt>
      <trkpt lat="47.66712" lon="-2.96786">
        <ele>12.3</ele>
        <time>2020-06-06T14:08:23Z</time>
      </trkpt>
      <trkpt lat="47.66712" lon="-2.96795">
        <ele>12.2</ele>
        <time>2020-06-06T14:08:24Z</time>
      </trkpt>
      <trkpt lat="47.66713" lon="-2.96804">
        <ele>12</ele>
        <time>2020-06-06T14:08:25Z</time>
      </trkpt>
      <trkpt lat="47.66714" lon="-2.96815">
        <ele>11.8</ele>
        <time>2020-06-06T14:08:26Z</time>
      </trkpt>
      <trkpt lat="47.66714" lon="-2.96823">
        <ele>11.6</ele>
        <time>2020-06-06T14:08:27Z</time>
      </trkpt>
      <trkpt lat="47.66715" lon="-2.96832">
        <ele>11.4</ele>
        <time>2020-06-06T14:08:28Z</time>
      </trkpt>
      <trkpt lat="47.66715" lon="-2.96841">
        <ele>11.3</ele>
        <time>2020-06-06T14:08:29Z</time>
      </trkpt>
      <trkpt lat="47.66716" lon="-2.96851">
        <ele>11.1</ele>
        <time>2020-06-06T14:08:30Z</time>
      </trkpt>
      <trkpt lat="47.66717" lon="-2.96862">
        <ele>10.9</ele>
        <time>2020-06-06T14:08:31Z</time>
      </trkpt>
      <trkpt lat="47.66718" lon="-2.96872">
        <ele>10.8</ele>
        <time>2020-06-06T14:08:32Z</time>
      </trkpt>
      <trkpt lat="47.66718" lon="-2.9688">
        <ele>10.6</ele>
        <time>2020-06-06T14:08:33Z</time>
      </trkpt>
      <trkpt lat="47.66718" lon="-2.9689">
        <ele>10.5</ele>
        <time>2020-06-06T14:08:34Z</time>
      </trkpt>
      <trkpt lat="47.66719" lon="-2.969">
        <ele>10.3</ele>
        <time>2020-06-06T14:08:35Z</time>
      </trkpt>
      <trkpt lat="47.6672" lon="-2.9691">
        <ele>10.2</ele>
        <time>2020-06-06T14:08:36Z</time>
      </trkpt>
      <trkpt lat="47.66721" lon="-2.96919">
        <ele>10.1</ele>
        <time>2020-06-06T14:08:37Z</time>
      </trkpt>
      <trkpt lat="47.66722" lon="-2.96928">
        <ele>10</ele>
        <time>2020-06-06T14:08:38Z</time>
      </trkpt>
      <trkpt lat="47.66724" lon="-2.96937">
        <ele>9.9</ele>
        <time>2020-06-06T14:08:39Z</time>
      </trkpt>
      <trkpt lat="47.66726" lon="-2.96946">
        <ele>9.7</ele>
        <time>2020-06-06T14:08:40Z</time>
      </trkpt>
      <trkpt lat="47.66727" lon="-2.96955">
        <ele>9.6</ele>
        <time>2020-06-06T14:08:41Z</time>
      </trkpt>
      <trkpt lat="47.66729" lon="-2.96964">
        <ele>9.5</ele>
        <time>2020-06-06T14:08:42Z</time>
      </trkpt>
      <trkpt lat="47.66731" lon="-2.96974">
        <ele>9.3</ele>
        <time>2020-06-06T14:08:43Z</time>
      </trkpt>
      <trkpt lat="47.66733" lon="-2.96984">
        <ele>9.1</ele>
        <time>2020-06-06T14:08:44Z</time>
      </trkpt>
      <trkpt lat="47.66735" lon="-2.96993">
        <ele>8.9</ele>
        <time>2020-06-06T14:08:45Z</time>
      </trkpt>
      <trkpt lat="47.66736" lon="-2.97003">
        <ele>8.7</ele>
        <time>2020-06-06T14:08:46Z</time>
      </trkpt>
      <trkpt lat="47.66738" lon="-2.97014">
        <ele>8.5</ele>
        <time>2020-06-06T14:08:47Z</time>
      </trkpt>
      <trkpt lat="47.6674" lon="-2.97023">
        <ele>8.4</ele>
        <time>2020-06-06T14:08:48Z</time>
      </trkpt>
      <trkpt lat="47.66742" lon="-2.97032">
        <ele>8.2</ele>
        <time>2020-06-06T14:08:49Z</time>
      </trkpt>
      <trkpt lat="47.66745" lon="-2.97041">
        <ele>8.1</ele>
        <time>2020-06-06T14:08:50Z</time>
      </trkpt>
      <trkpt lat="47.66747" lon="-2.9705">
        <ele>7.9</ele>
        <time>2020-06-06T14:08:51Z</time>
      </trkpt>
      <trkpt lat="47.66749" lon="-2.9706">
        <ele>7.8</ele>
        <time>2020-06-06T14:08:52Z</time>
      </trkpt>
      <trkpt lat="47.6675" lon="-2.97069">
        <ele>7.6</ele>
        <time>2020-06-06T14:08:53Z</time>
      </trkpt>
      <trkpt lat="47.66753" lon="-2.97079">
        <ele>7.3</ele>
        <time>2020-06-06T14:08:54Z</time>
      </trkpt>
      <trkpt lat="47.66755" lon="-2.97088">
        <ele>7.2</ele>
        <time>2020-06-06T14:08:55Z</time>
      </trkpt>
      <trkpt lat="47.66758" lon="-2.97097">
        <ele>7.1</ele>
        <time>2020-06-06T14:08:56Z</time>
      </trkpt>
      <trkpt lat="47.6676" lon="-2.97106">
        <ele>6.9</ele>
        <time>2020-06-06T14:08:57Z</time>
      </trkpt>
      <trkpt lat="47.66763" lon="-2.97115">
        <ele>6.7</ele>
        <time>2020-06-06T14:08:58Z</time>
      </trkpt>
      <trkpt lat="47.66767" lon="-2.97124">
        <ele>6.4</ele>
        <time>2020-06-06T14:08:59Z</time>
      </trkpt>
      <trkpt lat="47.6677" lon="-2.97132">
        <ele>6.3</ele>
        <time>2020-06-06T14:09:00Z</time>
      </trkpt>
      <trkpt lat="47.66773" lon="-2.97141">
        <ele>6.1</ele>
        <time>2020-06-06T14:09:01Z</time>
      </trkpt>
      <trkpt lat="47.66777" lon="-2.97149">
        <ele>6</ele>
        <time>2020-06-06T14:09:02Z</time>
      </trkpt>
      <trkpt lat="47.6678" lon="-2.97158">
        <ele>6</ele>
        <time>2020-06-06T14:09:03Z</time>
      </trkpt>
      <trkpt lat="47.66784" lon="-2.97166">
        <ele>5.9</ele>
        <time>2020-06-06T14:09:04Z</time>
      </trkpt>
      <trkpt lat="47.66787" lon="-2.97174">
        <ele>5.9</ele>
        <time>2020-06-06T14:09:05Z</time>
      </trkpt>
      <trkpt lat="47.6679" lon="-2.97183">
        <ele>5.9</ele>
        <time>2020-06-06T14:09:06Z</time>
      </trkpt>
      <trkpt lat="47.66794" lon="-2.9719">
        <ele>5.9</ele>
        <time>2020-06-06T14:09:07Z</time>
      </trkpt>
      <trkpt lat="47.66797" lon="-2.97198">
        <ele>5.9</ele>
        <time>2020-06-06T14:09:08Z</time>
      </trkpt>
      <trkpt lat="47.66801" lon="-2.97205">
        <ele>5.9</ele>
        <time>2020-06-06T14:09:09Z</time>
      </trkpt>
      <trkpt lat="47.66804" lon="-2.97213">
        <ele>5.9</ele>
        <time>2020-06-06T14:09:10Z</time>
      </trkpt>
      <trkpt lat="47.66807" lon="-2.9722">
        <ele>5.9</ele>
        <time>2020-06-06T14:09:11Z</time>
      </trkpt>
      <trkpt lat="47.66811" lon="-2.97227">
        <ele>5.9</ele>
        <time>2020-06-06T14:09:12Z</time>
      </trkpt>
      <trkpt lat="47.66814" lon="-2.97234">
        <ele>5.9</ele>
        <time>2020-06-06T14:09:13Z</time>
      </trkpt>
      <trkpt lat="47.66817" lon="-2.97241">
        <ele>5.9</ele>
        <time>2020-06-06T14:09:14Z</time>
      </trkpt>
      <trkpt lat="47.66821" lon="-2.97248">
        <ele>5.9</ele>
        <time>2020-06-06T14:09:15Z</time>
      </trkpt>
      <trkpt lat="47.66824" lon="-2.97255">
        <ele>5.8</ele>
        <time>2020-06-06T14:09:16Z</time>
      </trkpt>
      <trkpt lat="47.66828" lon="-2.97261">
        <ele>5.8</ele>
        <time>2020-06-06T14:09:17Z</time>
      </trkpt>
      <trkpt lat="47.66831" lon="-2.97268">
        <ele>5.8</ele>
        <time>2020-06-06T14:09:18Z</time>
      </trkpt>
      <trkpt lat="47.66835" lon="-2.97275">
        <ele>5.8</ele>
        <time>2020-06-06T14:09:19Z</time>
      </trkpt>
      <trkpt lat="47.66837" lon="-2.97283">
        <ele>5.8</ele>
        <time>2020-06-06T14:09:20Z</time>
      </trkpt>
      <trkpt lat="47.6684" lon="-2.9729">
        <ele>5.8</ele>
        <time>2020-06-06T14:09:21Z</time>
      </trkpt>
      <trkpt lat="47.66844" lon="-2.97297">
        <ele>5.8</ele>
        <time>2020-06-06T14:09:22Z</time>
      </trkpt>
      <trkpt lat="47.66847" lon="-2.97304">
        <ele>5.8</ele>
        <time>2020-06-06T14:09:23Z</time>
      </trkpt>
      <trkpt lat="47.6685" lon="-2.97312">
        <ele>5.8</ele>
        <time>2020-06-06T14:09:24Z</time>
      </trkpt>
      <trkpt lat="47.66853" lon="-2.97319">
        <ele>5.8</ele>
        <time>2020-06-06T14:09:25Z</time>
      </trkpt>
      <trkpt lat="47.66856" lon="-2.97327">
        <ele>5.7</ele>
        <time>2020-06-06T14:09:26Z</time>
      </trkpt>
      <trkpt lat="47.66859" lon="-2.97335">
        <ele>5.8</ele>
        <time>2020-06-06T14:09:27Z</time>
      </trkpt>
      <trkpt lat="47.66862" lon="-2.97343">
        <ele>5.8</ele>
        <time>2020-06-06T14:09:28Z</time>
      </trkpt>
      <trkpt lat="47.66865" lon="-2.97351">
        <ele>5.9</ele>
        <time>2020-06-06T14:09:29Z</time>
      </trkpt>
      <trkpt lat="47.66867" lon="-2.97359">
        <ele>5.9</ele>
        <time>2020-06-06T14:09:30Z</time>
      </trkpt>
      <trkpt lat="47.6687" lon="-2.97367">
        <ele>6</ele>
        <time>2020-06-06T14:09:31Z</time>
      </trkpt>
      <trkpt lat="47.66874" lon="-2.97374">
        <ele>6.1</ele>
        <time>2020-06-06T14:09:32Z</time>
      </trkpt>
      <trkpt lat="47.66877" lon="-2.97381">
        <ele>6.2</ele>
        <time>2020-06-06T14:09:33Z</time>
      </trkpt>
      <trkpt lat="47.66879" lon="-2.97388">
        <ele>6.3</ele>
        <time>2020-06-06T14:09:34Z</time>
      </trkpt>
      <trkpt lat="47.66882" lon="-2.97396">
        <ele>6.3</ele>
        <time>2020-06-06T14:09:35Z</time>
      </trkpt>
      <trkpt lat="47.66885" lon="-2.97402">
        <ele>6.5</ele>
        <time>2020-06-06T14:09:36Z</time>
      </trkpt>
      <trkpt lat="47.66886" lon="-2.9741">
        <ele>6.6</ele>
        <time>2020-06-06T14:09:37Z</time>
      </trkpt>
      <trkpt lat="47.66888" lon="-2.97417">
        <ele>6.8</ele>
        <time>2020-06-06T14:09:38Z</time>
      </trkpt>
      <trkpt lat="47.6689" lon="-2.97424">
        <ele>7</ele>
        <time>2020-06-06T14:09:39Z</time>
      </trkpt>
      <trkpt lat="47.66892" lon="-2.9743">
        <ele>7.1</ele>
        <time>2020-06-06T14:09:40Z</time>
      </trkpt>
      <trkpt lat="47.66894" lon="-2.97437">
        <ele>7.2</ele>
        <time>2020-06-06T14:09:41Z</time>
      </trkpt>
      <trkpt lat="47.66896" lon="-2.97442">
        <ele>7.3</ele>
        <time>2020-06-06T14:09:42Z</time>
      </trkpt>
      <trkpt lat="47.66897" lon="-2.97448">
        <ele>7.4</ele>
        <time>2020-06-06T14:09:43Z</time>
      </trkpt>
      <trkpt lat="47.669" lon="-2.97452">
        <ele>7.5</ele>
        <time>2020-06-06T14:09:44Z</time>
      </trkpt>
      <trkpt lat="47.66902" lon="-2.97456">
        <ele>7.5</ele>
        <time>2020-06-06T14:09:45Z</time>
      </trkpt>
      <trkpt lat="47.66904" lon="-2.97459">
        <ele>7.6</ele>
        <time>2020-06-06T14:09:46Z</time>
      </trkpt>
      <trkpt lat="47.66906" lon="-2.97463">
        <ele>7.6</ele>
        <time>2020-06-06T14:09:47Z</time>
      </trkpt>
      <trkpt lat="47.66906" lon="-2.97467">
        <ele>7.7</ele>
        <time>2020-06-06T14:09:48Z</time>
      </trkpt>
      <trkpt lat="47.66908" lon="-2.97472">
        <ele>7.8</ele>
        <time>2020-06-06T14:09:49Z</time>
      </trkpt>
      <trkpt lat="47.66908" lon="-2.97474">
        <ele>7.9</ele>
        <time>2020-06-06T14:09:50Z</time>
      </trkpt>
      <trkpt lat="47.66909" lon="-2.97479">
        <ele>8</ele>
        <time>2020-06-06T14:09:51Z</time>
      </trkpt>
      <trkpt lat="47.6691" lon="-2.97481">
        <ele>8</ele>
        <time>2020-06-06T14:09:52Z</time>
      </trkpt>
      <trkpt lat="47.66911" lon="-2.97486">
        <ele>8.1</ele>
        <time>2020-06-06T14:09:53Z</time>
      </trkpt>
      <trkpt lat="47.66912" lon="-2.97487">
        <ele>8.3</ele>
        <time>2020-06-06T14:09:54Z</time>
      </trkpt>
      <trkpt lat="47.66914" lon="-2.97492">
        <ele>8.4</ele>
        <time>2020-06-06T14:09:55Z</time>
      </trkpt>
      <trkpt lat="47.66914" lon="-2.97494">
        <ele>8.5</ele>
        <time>2020-06-06T14:09:56Z</time>
      </trkpt>
      <trkpt lat="47.66916" lon="-2.97498">
        <ele>8.6</ele>
        <time>2020-06-06T14:09:57Z</time>
      </trkpt>
      <trkpt lat="47.66917" lon="-2.97503">
        <ele>8.8</ele>
        <time>2020-06-06T14:09:58Z</time>
      </trkpt>
      <trkpt lat="47.66919" lon="-2.97507">
        <ele>8.9</ele>
        <time>2020-06-06T14:09:59Z</time>
      </trkpt>
      <trkpt lat="47.66919" lon="-2.97512">
        <ele>9.1</ele>
        <time>2020-06-06T14:10:00Z</time>
      </trkpt>
      <trkpt lat="47.66921" lon="-2.97517">
        <ele>9.3</ele>
        <time>2020-06-06T14:10:01Z</time>
      </trkpt>
      <trkpt lat="47.66923" lon="-2.97522">
        <ele>9.4</ele>
        <time>2020-06-06T14:10:02Z</time>
      </trkpt>
      <trkpt lat="47.66924" lon="-2.97526">
        <ele>9.6</ele>
        <time>2020-06-06T14:10:03Z</time>
      </trkpt>
      <trkpt lat="47.66925" lon="-2.97531">
        <ele>9.7</ele>
        <time>2020-06-06T14:10:04Z</time>
      </trkpt>
      <trkpt lat="47.66927" lon="-2.97535">
        <ele>9.9</ele>
        <time>2020-06-06T14:10:05Z</time>
      </trkpt>
      <trkpt lat="47.66928" lon="-2.9754">
        <ele>10.1</ele>
        <time>2020-06-06T14:10:06Z</time>
      </trkpt>
      <trkpt lat="47.66929" lon="-2.97544">
        <ele>10.2</ele>
        <time>2020-06-06T14:10:07Z</time>
      </trkpt>
      <trkpt lat="47.6693" lon="-2.97549">
        <ele>10.4</ele>
        <time>2020-06-06T14:10:08Z</time>
      </trkpt>
      <trkpt lat="47.66932" lon="-2.97554">
        <ele>10.5</ele>
        <time>2020-06-06T14:10:09Z</time>
      </trkpt>
      <trkpt lat="47.66933" lon="-2.97559">
        <ele>10.7</ele>
        <time>2020-06-06T14:10:10Z</time>
      </trkpt>
      <trkpt lat="47.66934" lon="-2.97564">
        <ele>10.8</ele>
        <time>2020-06-06T14:10:11Z</time>
      </trkpt>
      <trkpt lat="47.66936" lon="-2.97568">
        <ele>11</ele>
        <time>2020-06-06T14:10:12Z</time>
      </trkpt>
      <trkpt lat="47.66937" lon="-2.97573">
        <ele>11.2</ele>
        <time>2020-06-06T14:10:13Z</time>
      </trkpt>
      <trkpt lat="47.66938" lon="-2.97578">
        <ele>11.3</ele>
        <time>2020-06-06T14:10:14Z</time>
      </trkpt>
      <trkpt lat="47.6694" lon="-2.97583">
        <ele>11.5</ele>
        <time>2020-06-06T14:10:15Z</time>
      </trkpt>
      <trkpt lat="47.66941" lon="-2.97587">
        <ele>11.6</ele>
        <time>2020-06-06T14:10:16Z</time>
      </trkpt>
      <trkpt lat="47.66943" lon="-2.97591">
        <ele>11.8</ele>
        <time>2020-06-06T14:10:17Z</time>
      </trkpt>
      <trkpt lat="47.66944" lon="-2.97595">
        <ele>11.9</ele>
        <time>2020-06-06T14:10:18Z</time>
      </trkpt>
      <trkpt lat="47.66945" lon="-2.97599">
        <ele>12.1</ele>
        <time>2020-06-06T14:10:19Z</time>
      </trkpt>
      <trkpt lat="47.66946" lon="-2.97603">
        <ele>12.2</ele>
        <time>2020-06-06T14:10:20Z</time>
      </trkpt>
      <trkpt lat="47.66948" lon="-2.97608">
        <ele>12.4</ele>
        <time>2020-06-06T14:10:21Z</time>
      </trkpt>
      <trkpt lat="47.66949" lon="-2.97613">
        <ele>12.5</ele>
        <time>2020-06-06T14:10:22Z</time>
      </trkpt>
      <trkpt lat="47.66951" lon="-2.97617">
        <ele>12.7</ele>
        <time>2020-06-06T14:10:23Z</time>
      </trkpt>
      <trkpt lat="47.66952" lon="-2.97622">
        <ele>12.9</ele>
        <time>2020-06-06T14:10:24Z</time>
      </trkpt>
      <trkpt lat="47.66953" lon="-2.97626">
        <ele>13</ele>
        <time>2020-06-06T14:10:25Z</time>
      </trkpt>
      <trkpt lat="47.66954" lon="-2.97631">
        <ele>13.2</ele>
        <time>2020-06-06T14:10:26Z</time>
      </trkpt>
      <trkpt lat="47.66955" lon="-2.97636">
        <ele>13.4</ele>
        <time>2020-06-06T14:10:27Z</time>
      </trkpt>
      <trkpt lat="47.66957" lon="-2.9764">
        <ele>13.7</ele>
        <time>2020-06-06T14:10:28Z</time>
      </trkpt>
      <trkpt lat="47.66958" lon="-2.97645">
        <ele>13.9</ele>
        <time>2020-06-06T14:10:29Z</time>
      </trkpt>
      <trkpt lat="47.6696" lon="-2.97649">
        <ele>14.1</ele>
        <time>2020-06-06T14:10:30Z</time>
      </trkpt>
      <trkpt lat="47.66961" lon="-2.97653">
        <ele>14.3</ele>
        <time>2020-06-06T14:10:31Z</time>
      </trkpt>
      <trkpt lat="47.66962" lon="-2.97657">
        <ele>14.4</ele>
        <time>2020-06-06T14:10:32Z</time>
      </trkpt>
      <trkpt lat="47.66963" lon="-2.97661">
        <ele>14.6</ele>
        <time>2020-06-06T14:10:33Z</time>
      </trkpt>
      <trkpt lat="47.66965" lon="-2.97665">
        <ele>14.9</ele>
        <time>2020-06-06T14:10:34Z</time>
      </trkpt>
      <trkpt lat="47.66967" lon="-2.97669">
        <ele>15.1</ele>
        <time>2020-06-06T14:10:35Z</time>
      </trkpt>
      <trkpt lat="47.66967" lon="-2.97676">
        <ele>15.3</ele>
        <time>2020-06-06T14:10:36Z</time>
      </trkpt>
      <trkpt lat="47.66968" lon="-2.9768">
        <ele>15.5</ele>
        <time>2020-06-06T14:10:37Z</time>
      </trkpt>
      <trkpt lat="47.6697" lon="-2.97684">
        <ele>15.7</ele>
        <time>2020-06-06T14:10:38Z</time>
      </trkpt>
      <trkpt lat="47.6697" lon="-2.97688">
        <ele>15.9</ele>
        <time>2020-06-06T14:10:39Z</time>
      </trkpt>
      <trkpt lat="47.66972" lon="-2.97692">
        <ele>16.1</ele>
        <time>2020-06-06T14:10:40Z</time>
      </trkpt>
      <trkpt lat="47.66973" lon="-2.97698">
        <ele>16.3</ele>
        <time>2020-06-06T14:10:41Z</time>
      </trkpt>
      <trkpt lat="47.66974" lon="-2.97704">
        <ele>16.6</ele>
        <time>2020-06-06T14:10:42Z</time>
      </trkpt>
      <trkpt lat="47.66975" lon="-2.97708">
        <ele>16.7</ele>
        <time>2020-06-06T14:10:43Z</time>
      </trkpt>
      <trkpt lat="47.66976" lon="-2.97713">
        <ele>16.9</ele>
        <time>2020-06-06T14:10:44Z</time>
      </trkpt>
      <trkpt lat="47.66978" lon="-2.97719">
        <ele>17.2</ele>
        <time>2020-06-06T14:10:45Z</time>
      </trkpt>
      <trkpt lat="47.6698" lon="-2.97725">
        <ele>17.4</ele>
        <time>2020-06-06T14:10:46Z</time>
      </trkpt>
      <trkpt lat="47.66981" lon="-2.97731">
        <ele>17.6</ele>
        <time>2020-06-06T14:10:47Z</time>
      </trkpt>
      <trkpt lat="47.66983" lon="-2.97736">
        <ele>17.8</ele>
        <time>2020-06-06T14:10:48Z</time>
      </trkpt>
      <trkpt lat="47.66984" lon="-2.9774">
        <ele>17.9</ele>
        <time>2020-06-06T14:10:49Z</time>
      </trkpt>
      <trkpt lat="47.66985" lon="-2.97745">
        <ele>18.2</ele>
        <time>2020-06-06T14:10:50Z</time>
      </trkpt>
      <trkpt lat="47.66986" lon="-2.9775">
        <ele>18.4</ele>
        <time>2020-06-06T14:10:51Z</time>
      </trkpt>
      <trkpt lat="47.66987" lon="-2.97754">
        <ele>18.5</ele>
        <time>2020-06-06T14:10:52Z</time>
      </trkpt>
      <trkpt lat="47.66988" lon="-2.9776">
        <ele>18.8</ele>
        <time>2020-06-06T14:10:53Z</time>
      </trkpt>
      <trkpt lat="47.66989" lon="-2.97764">
        <ele>18.9</ele>
        <time>2020-06-06T14:10:54Z</time>
      </trkpt>
      <trkpt lat="47.6699" lon="-2.97768">
        <ele>19.1</ele>
        <time>2020-06-06T14:10:55Z</time>
      </trkpt>
      <trkpt lat="47.66992" lon="-2.97772">
        <ele>19.2</ele>
        <time>2020-06-06T14:10:56Z</time>
      </trkpt>
      <trkpt lat="47.66993" lon="-2.97776">
        <ele>19.4</ele>
        <time>2020-06-06T14:10:57Z</time>
      </trkpt>
      <trkpt lat="47.66993" lon="-2.9778">
        <ele>19.5</ele>
        <time>2020-06-06T14:10:58Z</time>
      </trkpt>
      <trkpt lat="47.66994" lon="-2.97784">
        <ele>19.7</ele>
        <time>2020-06-06T14:10:59Z</time>
      </trkpt>
      <trkpt lat="47.66995" lon="-2.97789">
        <ele>19.9</ele>
        <time>2020-06-06T14:11:00Z</time>
      </trkpt>
      <trkpt lat="47.66997" lon="-2.97792">
        <ele>19.9</ele>
        <time>2020-06-06T14:11:01Z</time>
      </trkpt>
      <trkpt lat="47.66998" lon="-2.97796">
        <ele>20.1</ele>
        <time>2020-06-06T14:11:02Z</time>
      </trkpt>
      <trkpt lat="47.66999" lon="-2.978">
        <ele>20.2</ele>
        <time>2020-06-06T14:11:03Z</time>
      </trkpt>
      <trkpt lat="47.67" lon="-2.97805">
        <ele>20.4</ele>
        <time>2020-06-06T14:11:04Z</time>
      </trkpt>
      <trkpt lat="47.67" lon="-2.9781">
        <ele>20.6</ele>
        <time>2020-06-06T14:11:05Z</time>
      </trkpt>
      <trkpt lat="47.67001" lon="-2.97814">
        <ele>20.7</ele>
        <time>2020-06-06T14:11:06Z</time>
      </trkpt>
      <trkpt lat="47.67003" lon="-2.9782">
        <ele>20.9</ele>
        <time>2020-06-06T14:11:07Z</time>
      </trkpt>
      <trkpt lat="47.67004" lon="-2.97825">
        <ele>21.1</ele>
        <time>2020-06-06T14:11:08Z</time>
      </trkpt>
      <trkpt lat="47.67005" lon="-2.97831">
        <ele>21.3</ele>
        <time>2020-06-06T14:11:09Z</time>
      </trkpt>
      <trkpt lat="47.67006" lon="-2.97835">
        <ele>21.4</ele>
        <time>2020-06-06T14:11:10Z</time>
      </trkpt>
      <trkpt lat="47.67007" lon="-2.9784">
        <ele>21.6</ele>
        <time>2020-06-06T14:11:11Z</time>
      </trkpt>
      <trkpt lat="47.67008" lon="-2.97844">
        <ele>21.7</ele>
        <time>2020-06-06T14:11:12Z</time>
      </trkpt>
      <trkpt lat="47.6701" lon="-2.97851">
        <ele>22</ele>
        <time>2020-06-06T14:11:13Z</time>
      </trkpt>
      <trkpt lat="47.67011" lon="-2.97855">
        <ele>22.1</ele>
        <time>2020-06-06T14:11:14Z</time>
      </trkpt>
      <trkpt lat="47.67013" lon="-2.9786">
        <ele>22.3</ele>
        <time>2020-06-06T14:11:15Z</time>
      </trkpt>
      <trkpt lat="47.67014" lon="-2.97865">
        <ele>22.4</ele>
        <time>2020-06-06T14:11:16Z</time>
      </trkpt>
      <trkpt lat="47.67015" lon="-2.97869">
        <ele>22.6</ele>
        <time>2020-06-06T14:11:17Z</time>
      </trkpt>
      <trkpt lat="47.67016" lon="-2.97874">
        <ele>22.7</ele>
        <time>2020-06-06T14:11:18Z</time>
      </trkpt>
      <trkpt lat="47.67018" lon="-2.9788">
        <ele>22.9</ele>
        <time>2020-06-06T14:11:19Z</time>
      </trkpt>
      <trkpt lat="47.67019" lon="-2.97883">
        <ele>23</ele>
        <time>2020-06-06T14:11:20Z</time>
      </trkpt>
      <trkpt lat="47.6702" lon="-2.97887">
        <ele>23.2</ele>
        <time>2020-06-06T14:11:21Z</time>
      </trkpt>
      <trkpt lat="47.67021" lon="-2.97892">
        <ele>23.3</ele>
        <time>2020-06-06T14:11:22Z</time>
      </trkpt>
      <trkpt lat="47.67023" lon="-2.97896">
        <ele>23.4</ele>
        <time>2020-06-06T14:11:23Z</time>
      </trkpt>
      <trkpt lat="47.67024" lon="-2.97901">
        <ele>23.6</ele>
        <time>2020-06-06T14:11:24Z</time>
      </trkpt>
      <trkpt lat="47.67025" lon="-2.97905">
        <ele>23.7</ele>
        <time>2020-06-06T14:11:25Z</time>
      </trkpt>
      <trkpt lat="47.67027" lon="-2.97911">
        <ele>23.9</ele>
        <time>2020-06-06T14:11:26Z</time>
      </trkpt>
      <trkpt lat="47.6703" lon="-2.97916">
        <ele>24</ele>
        <time>2020-06-06T14:11:27Z</time>
      </trkpt>
      <trkpt lat="47.6703" lon="-2.9792">
        <ele>24.1</ele>
        <time>2020-06-06T14:11:28Z</time>
      </trkpt>
      <trkpt lat="47.67031" lon="-2.97925">
        <ele>24.2</ele>
        <time>2020-06-06T14:11:29Z</time>
      </trkpt>
      <trkpt lat="47.67032" lon="-2.9793">
        <ele>24.4</ele>
        <time>2020-06-06T14:11:30Z</time>
      </trkpt>
      <trkpt lat="47.67033" lon="-2.97934">
        <ele>24.5</ele>
        <time>2020-06-06T14:11:31Z</time>
      </trkpt>
      <trkpt lat="47.67034" lon="-2.9794">
        <ele>24.6</ele>
        <time>2020-06-06T14:11:32Z</time>
      </trkpt>
      <trkpt lat="47.67035" lon="-2.97944">
        <ele>24.8</ele>
        <time>2020-06-06T14:11:33Z</time>
      </trkpt>
      <trkpt lat="47.67037" lon="-2.9795">
        <ele>25</ele>
        <time>2020-06-06T14:11:34Z</time>
      </trkpt>
      <trkpt lat="47.67038" lon="-2.97954">
        <ele>25.1</ele>
        <time>2020-06-06T14:11:35Z</time>
      </trkpt>
      <trkpt lat="47.6704" lon="-2.9796">
        <ele>25.3</ele>
        <time>2020-06-06T14:11:36Z</time>
      </trkpt>
      <trkpt lat="47.67041" lon="-2.97965">
        <ele>25.4</ele>
        <time>2020-06-06T14:11:37Z</time>
      </trkpt>
      <trkpt lat="47.67042" lon="-2.97971">
        <ele>25.6</ele>
        <time>2020-06-06T14:11:38Z</time>
      </trkpt>
      <trkpt lat="47.67044" lon="-2.97976">
        <ele>25.7</ele>
        <time>2020-06-06T14:11:39Z</time>
      </trkpt>
      <trkpt lat="47.67045" lon="-2.97981">
        <ele>25.9</ele>
        <time>2020-06-06T14:11:40Z</time>
      </trkpt>
      <trkpt lat="47.67046" lon="-2.97986">
        <ele>26</ele>
        <time>2020-06-06T14:11:41Z</time>
      </trkpt>
      <trkpt lat="47.67047" lon="-2.9799">
        <ele>26.1</ele>
        <time>2020-06-06T14:11:42Z</time>
      </trkpt>
      <trkpt lat="47.6705" lon="-2.97995">
        <ele>26.2</ele>
        <time>2020-06-06T14:11:43Z</time>
      </trkpt>
      <trkpt lat="47.67053" lon="-2.98001">
        <ele>26.4</ele>
        <time>2020-06-06T14:11:44Z</time>
      </trkpt>
      <trkpt lat="47.67053" lon="-2.98006">
        <ele>26.5</ele>
        <time>2020-06-06T14:11:45Z</time>
      </trkpt>
      <trkpt lat="47.67054" lon="-2.98008">
        <ele>26.6</ele>
        <time>2020-06-06T14:11:46Z</time>
      </trkpt>
      <trkpt lat="47.67056" lon="-2.98014">
        <ele>26.7</ele>
        <time>2020-06-06T14:11:47Z</time>
      </trkpt>
      <trkpt lat="47.67059" lon="-2.98019">
        <ele>26.8</ele>
        <time>2020-06-06T14:11:48Z</time>
      </trkpt>
      <trkpt lat="47.6706" lon="-2.98025">
        <ele>26.9</ele>
        <time>2020-06-06T14:11:49Z</time>
      </trkpt>
      <trkpt lat="47.67061" lon="-2.98029">
        <ele>27</ele>
        <time>2020-06-06T14:11:50Z</time>
      </trkpt>
      <trkpt lat="47.67063" lon="-2.98035">
        <ele>27.1</ele>
        <time>2020-06-06T14:11:51Z</time>
      </trkpt>
      <trkpt lat="47.67064" lon="-2.9804">
        <ele>27.2</ele>
        <time>2020-06-06T14:11:52Z</time>
      </trkpt>
      <trkpt lat="47.67066" lon="-2.98046">
        <ele>27.4</ele>
        <time>2020-06-06T14:11:53Z</time>
      </trkpt>
      <trkpt lat="47.67068" lon="-2.98051">
        <ele>27.5</ele>
        <time>2020-06-06T14:11:54Z</time>
      </trkpt>
      <trkpt lat="47.67069" lon="-2.98056">
        <ele>27.7</ele>
        <time>2020-06-06T14:11:55Z</time>
      </trkpt>
      <trkpt lat="47.67071" lon="-2.98061">
        <ele>27.8</ele>
        <time>2020-06-06T14:11:56Z</time>
      </trkpt>
      <trkpt lat="47.67072" lon="-2.98066">
        <ele>27.9</ele>
        <time>2020-06-06T14:11:57Z</time>
      </trkpt>
      <trkpt lat="47.67073" lon="-2.9807">
        <ele>28</ele>
        <time>2020-06-06T14:11:58Z</time>
      </trkpt>
      <trkpt lat="47.67076" lon="-2.98075">
        <ele>28.1</ele>
        <time>2020-06-06T14:11:59Z</time>
      </trkpt>
      <trkpt lat="47.67076" lon="-2.98079">
        <ele>28.1</ele>
        <time>2020-06-06T14:12:00Z</time>
      </trkpt>
      <trkpt lat="47.67077" lon="-2.98084">
        <ele>28.1</ele>
        <time>2020-06-06T14:12:01Z</time>
      </trkpt>
      <trkpt lat="47.67077" lon="-2.98089">
        <ele>28.2</ele>
        <time>2020-06-06T14:12:02Z</time>
      </trkpt>
      <trkpt lat="47.67078" lon="-2.98091">
        <ele>28.2</ele>
        <time>2020-06-06T14:12:03Z</time>
      </trkpt>
      <trkpt lat="47.67079" lon="-2.98097">
        <ele>28.2</ele>
        <time>2020-06-06T14:12:04Z</time>
      </trkpt>
      <trkpt lat="47.6708" lon="-2.98101">
        <ele>28.3</ele>
        <time>2020-06-06T14:12:05Z</time>
      </trkpt>
      <trkpt lat="47.67083" lon="-2.98105">
        <ele>28.3</ele>
        <time>2020-06-06T14:12:06Z</time>
      </trkpt>
      <trkpt lat="47.67085" lon="-2.98109">
        <ele>28.3</ele>
        <time>2020-06-06T14:12:07Z</time>
      </trkpt>
      <trkpt lat="47.67086" lon="-2.98113">
        <ele>28.4</ele>
        <time>2020-06-06T14:12:08Z</time>
      </trkpt>
      <trkpt lat="47.67087" lon="-2.98115">
        <ele>28.4</ele>
        <time>2020-06-06T14:12:09Z</time>
      </trkpt>
      <trkpt lat="47.67088" lon="-2.98118">
        <ele>28.4</ele>
        <time>2020-06-06T14:12:10Z</time>
      </trkpt>
      <trkpt lat="47.6709" lon="-2.98124">
        <ele>28.4</ele>
        <time>2020-06-06T14:12:11Z</time>
      </trkpt>
      <trkpt lat="47.67092" lon="-2.98127">
        <ele>28.5</ele>
        <time>2020-06-06T14:12:12Z</time>
      </trkpt>
      <trkpt lat="47.67096" lon="-2.9813">
        <ele>28.5</ele>
        <time>2020-06-06T14:12:13Z</time>
      </trkpt>
      <trkpt lat="47.67099" lon="-2.98133">
        <ele>28.6</ele>
        <time>2020-06-06T14:12:14Z</time>
      </trkpt>
      <trkpt lat="47.67101" lon="-2.98134">
        <ele>28.6</ele>
        <time>2020-06-06T14:12:15Z</time>
      </trkpt>
      <trkpt lat="47.67102" lon="-2.98136">
        <ele>28.6</ele>
        <time>2020-06-06T14:12:16Z</time>
      </trkpt>
      <trkpt lat="47.67101" lon="-2.98139">
        <ele>28.6</ele>
        <time>2020-06-06T14:12:17Z</time>
      </trkpt>
      <trkpt lat="47.671" lon="-2.9814">
        <ele>28.6</ele>
        <time>2020-06-06T14:12:18Z</time>
      </trkpt>
      <trkpt lat="47.67097" lon="-2.98144">
        <ele>28.7</ele>
        <time>2020-06-06T14:12:19Z</time>
      </trkpt>
      <trkpt lat="47.67092" lon="-2.98147">
        <ele>28.8</ele>
        <time>2020-06-06T14:12:20Z</time>
      </trkpt>
      <trkpt lat="47.67089" lon="-2.98148">
        <ele>28.9</ele>
        <time>2020-06-06T14:12:21Z</time>
      </trkpt>
      <trkpt lat="47.67086" lon="-2.9815">
        <ele>29</ele>
        <time>2020-06-06T14:12:22Z</time>
      </trkpt>
      <trkpt lat="47.67083" lon="-2.98153">
        <ele>29.2</ele>
        <time>2020-06-06T14:12:23Z</time>
      </trkpt>
      <trkpt lat="47.67081" lon="-2.98157">
        <ele>29.3</ele>
        <time>2020-06-06T14:12:24Z</time>
      </trkpt>
      <trkpt lat="47.6708" lon="-2.98158">
        <ele>29.4</ele>
        <time>2020-06-06T14:12:25Z</time>
      </trkpt>
      <trkpt lat="47.67078" lon="-2.98162">
        <ele>29.6</ele>
        <time>2020-06-06T14:12:26Z</time>
      </trkpt>
      <trkpt lat="47.67078" lon="-2.98163">
        <ele>29.6</ele>
        <time>2020-06-06T14:12:27Z</time>
      </trkpt>
      <trkpt lat="47.67077" lon="-2.98167">
        <ele>29.6</ele>
        <time>2020-06-06T14:12:28Z</time>
      </trkpt>
      <trkpt lat="47.67078" lon="-2.98169">
        <ele>29.6</ele>
        <time>2020-06-06T14:12:29Z</time>
      </trkpt>
      <trkpt lat="47.67079" lon="-2.98172">
        <ele>29.6</ele>
        <time>2020-06-06T14:12:30Z</time>
      </trkpt>
      <trkpt lat="47.67081" lon="-2.98175">
        <ele>29.6</ele>
        <time>2020-06-06T14:12:31Z</time>
      </trkpt>
      <trkpt lat="47.67082" lon="-2.98178">
        <ele>29.7</ele>
        <time>2020-06-06T14:12:32Z</time>
      </trkpt>
      <trkpt lat="47.67084" lon="-2.98183">
        <ele>29.7</ele>
        <time>2020-06-06T14:12:33Z</time>
      </trkpt>
      <trkpt lat="47.67084" lon="-2.98185">
        <ele>29.7</ele>
        <time>2020-06-06T14:12:34Z</time>
      </trkpt>
      <trkpt lat="47.67086" lon="-2.98189">
        <ele>29.8</ele>
        <time>2020-06-06T14:12:35Z</time>
      </trkpt>
      <trkpt lat="47.67086" lon="-2.98193">
        <ele>29.8</ele>
        <time>2020-06-06T14:12:36Z</time>
      </trkpt>
      <trkpt lat="47.67087" lon="-2.98198">
        <ele>29.9</ele>
        <time>2020-06-06T14:12:37Z</time>
      </trkpt>
      <trkpt lat="47.67089" lon="-2.98205">
        <ele>30</ele>
        <time>2020-06-06T14:12:38Z</time>
      </trkpt>
      <trkpt lat="47.6709" lon="-2.98207">
        <ele>30</ele>
        <time>2020-06-06T14:12:39Z</time>
      </trkpt>
      <trkpt lat="47.67091" lon="-2.98213">
        <ele>30.1</ele>
        <time>2020-06-06T14:12:40Z</time>
      </trkpt>
      <trkpt lat="47.67092" lon="-2.98219">
        <ele>30.1</ele>
        <time>2020-06-06T14:12:41Z</time>
      </trkpt>
      <trkpt lat="47.67093" lon="-2.98224">
        <ele>30.2</ele>
        <time>2020-06-06T14:12:42Z</time>
      </trkpt>
      <trkpt lat="47.67094" lon="-2.98229">
        <ele>30.2</ele>
        <time>2020-06-06T14:12:43Z</time>
      </trkpt>
      <trkpt lat="47.67095" lon="-2.98234">
        <ele>30.3</ele>
        <time>2020-06-06T14:12:44Z</time>
      </trkpt>
      <trkpt lat="47.67096" lon="-2.9824">
        <ele>30.3</ele>
        <time>2020-06-06T14:12:45Z</time>
      </trkpt>
      <trkpt lat="47.67097" lon="-2.98246">
        <ele>30.3</ele>
        <time>2020-06-06T14:12:46Z</time>
      </trkpt>
      <trkpt lat="47.67098" lon="-2.98251">
        <ele>30.4</ele>
        <time>2020-06-06T14:12:47Z</time>
      </trkpt>
      <trkpt lat="47.67098" lon="-2.98256">
        <ele>30.4</ele>
        <time>2020-06-06T14:12:48Z</time>
      </trkpt>
      <trkpt lat="47.67099" lon="-2.98262">
        <ele>30.4</ele>
        <time>2020-06-06T14:12:49Z</time>
      </trkpt>
      <trkpt lat="47.67101" lon="-2.98267">
        <ele>30.5</ele>
        <time>2020-06-06T14:12:50Z</time>
      </trkpt>
      <trkpt lat="47.67101" lon="-2.98273">
        <ele>30.5</ele>
        <time>2020-06-06T14:12:51Z</time>
      </trkpt>
      <trkpt lat="47.67101" lon="-2.98278">
        <ele>30.5</ele>
        <time>2020-06-06T14:12:52Z</time>
      </trkpt>
      <trkpt lat="47.67102" lon="-2.98285">
        <ele>30.6</ele>
        <time>2020-06-06T14:12:53Z</time>
      </trkpt>
      <trkpt lat="47.67103" lon="-2.98291">
        <ele>30.6</ele>
        <time>2020-06-06T14:12:54Z</time>
      </trkpt>
      <trkpt lat="47.67104" lon="-2.98297">
        <ele>30.6</ele>
        <time>2020-06-06T14:12:55Z</time>
      </trkpt>
      <trkpt lat="47.67106" lon="-2.98303">
        <ele>30.7</ele>
        <time>2020-06-06T14:12:56Z</time>
      </trkpt>
      <trkpt lat="47.67107" lon="-2.98309">
        <ele>30.7</ele>
        <time>2020-06-06T14:12:57Z</time>
      </trkpt>
      <trkpt lat="47.67107" lon="-2.98316">
        <ele>30.8</ele>
        <time>2020-06-06T14:12:58Z</time>
      </trkpt>
      <trkpt lat="47.67107" lon="-2.98322">
        <ele>30.8</ele>
        <time>2020-06-06T14:12:59Z</time>
      </trkpt>
      <trkpt lat="47.67106" lon="-2.98329">
        <ele>30.9</ele>
        <time>2020-06-06T14:13:00Z</time>
      </trkpt>
      <trkpt lat="47.67107" lon="-2.98335">
        <ele>31</ele>
        <time>2020-06-06T14:13:01Z</time>
      </trkpt>
      <trkpt lat="47.67107" lon="-2.98341">
        <ele>31</ele>
        <time>2020-06-06T14:13:02Z</time>
      </trkpt>
      <trkpt lat="47.67106" lon="-2.98348">
        <ele>31.1</ele>
        <time>2020-06-06T14:13:03Z</time>
      </trkpt>
      <trkpt lat="47.67106" lon="-2.98354">
        <ele>31.2</ele>
        <time>2020-06-06T14:13:04Z</time>
      </trkpt>
      <trkpt lat="47.67106" lon="-2.98361">
        <ele>31.2</ele>
        <time>2020-06-06T14:13:05Z</time>
      </trkpt>
      <trkpt lat="47.67106" lon="-2.98367">
        <ele>31.3</ele>
        <time>2020-06-06T14:13:06Z</time>
      </trkpt>
      <trkpt lat="47.67106" lon="-2.98373">
        <ele>31.3</ele>
        <time>2020-06-06T14:13:07Z</time>
      </trkpt>
      <trkpt lat="47.67106" lon="-2.98378">
        <ele>31.4</ele>
        <time>2020-06-06T14:13:08Z</time>
      </trkpt>
      <trkpt lat="47.67106" lon="-2.98385">
        <ele>31.4</ele>
        <time>2020-06-06T14:13:09Z</time>
      </trkpt>
      <trkpt lat="47.67107" lon="-2.9839">
        <ele>31.5</ele>
        <time>2020-06-06T14:13:10Z</time>
      </trkpt>
      <trkpt lat="47.67107" lon="-2.98396">
        <ele>31.5</ele>
        <time>2020-06-06T14:13:11Z</time>
      </trkpt>
      <trkpt lat="47.67108" lon="-2.98402">
        <ele>31.6</ele>
        <time>2020-06-06T14:13:12Z</time>
      </trkpt>
      <trkpt lat="47.67108" lon="-2.98407">
        <ele>31.6</ele>
        <time>2020-06-06T14:13:13Z</time>
      </trkpt>
      <trkpt lat="47.67109" lon="-2.98412">
        <ele>31.7</ele>
        <time>2020-06-06T14:13:14Z</time>
      </trkpt>
      <trkpt lat="47.6711" lon="-2.98417">
        <ele>31.8</ele>
        <time>2020-06-06T14:13:15Z</time>
      </trkpt>
      <trkpt lat="47.6711" lon="-2.98419">
        <ele>31.8</ele>
        <time>2020-06-06T14:13:16Z</time>
      </trkpt>
      <trkpt lat="47.6711" lon="-2.98424">
        <ele>31.8</ele>
        <time>2020-06-06T14:13:17Z</time>
      </trkpt>
      <trkpt lat="47.67109" lon="-2.98426">
        <ele>31.8</ele>
        <time>2020-06-06T14:13:18Z</time>
      </trkpt>
      <trkpt lat="47.67109" lon="-2.98431">
        <ele>31.9</ele>
        <time>2020-06-06T14:13:19Z</time>
      </trkpt>
      <trkpt lat="47.67109" lon="-2.98432">
        <ele>31.9</ele>
        <time>2020-06-06T14:13:20Z</time>
      </trkpt>
      <trkpt lat="47.67108" lon="-2.98433">
        <ele>31.9</ele>
        <time>2020-06-06T14:13:21Z</time>
      </trkpt>
      <trkpt lat="47.67108" lon="-2.98434">
        <ele>31.9</ele>
        <time>2020-06-06T14:13:22Z</time>
      </trkpt>
      <trkpt lat="47.67108" lon="-2.98435">
        <ele>31.9</ele>
        <time>2020-06-06T14:13:23Z</time>
      </trkpt>
      <trkpt lat="47.67108" lon="-2.98436">
        <ele>31.9</ele>
        <time>2020-06-06T14:13:24Z</time>
      </trkpt>
      <trkpt lat="47.67108" lon="-2.98437">
        <ele>31.9</ele>
        <time>2020-06-06T14:13:25Z</time>
      </trkpt>
      <trkpt lat="47.67108" lon="-2.98438">
        <ele>31.9</ele>
        <time>2020-06-06T14:13:26Z</time>
      </trkpt>
      <trkpt lat="47.67108" lon="-2.98439">
        <ele>31.9</ele>
        <time>2020-06-06T14:13:27Z</time>
      </trkpt>
      <trkpt lat="47.67108" lon="-2.98439">
        <ele>31.9</ele>
        <time>2020-06-06T14:13:28Z</time>
      </trkpt>
      <trkpt lat="47.67108" lon="-2.9844">
        <ele>31.9</ele>
        <time>2020-06-06T14:13:29Z</time>
      </trkpt>
      <trkpt lat="47.67108" lon="-2.98441">
        <ele>31.9</ele>
        <time>2020-06-06T14:13:30Z</time>
      </trkpt>
      <trkpt lat="47.67108" lon="-2.98442">
        <ele>31.9</ele>
        <time>2020-06-06T14:13:31Z</time>
      </trkpt>
      <trkpt lat="47.67108" lon="-2.98443">
        <ele>32</ele>
        <time>2020-06-06T14:13:32Z</time>
      </trkpt>
      <trkpt lat="47.67108" lon="-2.98444">
        <ele>32</ele>
        <time>2020-06-06T14:13:50Z</time>
      </trkpt>
      <trkpt lat="47.67108" lon="-2.98445">
        <ele>32</ele>
        <time>2020-06-06T14:13:51Z</time>
      </trkpt>
      <trkpt lat="47.67107" lon="-2.9845">
        <ele>32</ele>
        <time>2020-06-06T14:13:52Z</time>
      </trkpt>
      <trkpt lat="47.67107" lon="-2.98452">
        <ele>32</ele>
        <time>2020-06-06T14:13:53Z</time>
      </trkpt>
      <trkpt lat="47.67106" lon="-2.98457">
        <ele>32.1</ele>
        <time>2020-06-06T14:13:54Z</time>
      </trkpt>
      <trkpt lat="47.67106" lon="-2.98459">
        <ele>32.1</ele>
        <time>2020-06-06T14:13:55Z</time>
      </trkpt>
      <trkpt lat="47.67105" lon="-2.98465">
        <ele>32.2</ele>
        <time>2020-06-06T14:13:56Z</time>
      </trkpt>
      <trkpt lat="47.67105" lon="-2.98466">
        <ele>32.2</ele>
        <time>2020-06-06T14:13:57Z</time>
      </trkpt>
      <trkpt lat="47.67104" lon="-2.98472">
        <ele>32.3</ele>
        <time>2020-06-06T14:13:58Z</time>
      </trkpt>
      <trkpt lat="47.67103" lon="-2.98474">
        <ele>32.3</ele>
        <time>2020-06-06T14:13:59Z</time>
      </trkpt>
      <trkpt lat="47.67103" lon="-2.98479">
        <ele>32.3</ele>
        <time>2020-06-06T14:14:00Z</time>
      </trkpt>
      <trkpt lat="47.67104" lon="-2.98484">
        <ele>32.4</ele>
        <time>2020-06-06T14:14:01Z</time>
      </trkpt>
      <trkpt lat="47.67105" lon="-2.98488">
        <ele>32.4</ele>
        <time>2020-06-06T14:14:02Z</time>
      </trkpt>
      <trkpt lat="47.67105" lon="-2.98493">
        <ele>32.4</ele>
        <time>2020-06-06T14:14:03Z</time>
      </trkpt>
      <trkpt lat="47.67106" lon="-2.98497">
        <ele>32.5</ele>
        <time>2020-06-06T14:14:04Z</time>
      </trkpt>
      <trkpt lat="47.67106" lon="-2.98502">
        <ele>32.5</ele>
        <time>2020-06-06T14:14:05Z</time>
      </trkpt>
      <trkpt lat="47.67106" lon="-2.98508">
        <ele>32.6</ele>
        <time>2020-06-06T14:14:06Z</time>
      </trkpt>
      <trkpt lat="47.67107" lon="-2.98513">
        <ele>32.6</ele>
        <time>2020-06-06T14:14:07Z</time>
      </trkpt>
      <trkpt lat="47.67107" lon="-2.98518">
        <ele>32.7</ele>
        <time>2020-06-06T14:14:08Z</time>
      </trkpt>
      <trkpt lat="47.67106" lon="-2.98525">
        <ele>32.8</ele>
        <time>2020-06-06T14:14:09Z</time>
      </trkpt>
      <trkpt lat="47.67106" lon="-2.9853">
        <ele>32.9</ele>
        <time>2020-06-06T14:14:10Z</time>
      </trkpt>
      <trkpt lat="47.67107" lon="-2.98536">
        <ele>33</ele>
        <time>2020-06-06T14:14:11Z</time>
      </trkpt>
      <trkpt lat="47.67108" lon="-2.98541">
        <ele>33</ele>
        <time>2020-06-06T14:14:12Z</time>
      </trkpt>
      <trkpt lat="47.67107" lon="-2.98546">
        <ele>33.1</ele>
        <time>2020-06-06T14:14:13Z</time>
      </trkpt>
      <trkpt lat="47.67107" lon="-2.98552">
        <ele>33.1</ele>
        <time>2020-06-06T14:14:14Z</time>
      </trkpt>
      <trkpt lat="47.67105" lon="-2.98558">
        <ele>33.2</ele>
        <time>2020-06-06T14:14:15Z</time>
      </trkpt>
      <trkpt lat="47.67104" lon="-2.98563">
        <ele>33.3</ele>
        <time>2020-06-06T14:14:16Z</time>
      </trkpt>
      <trkpt lat="47.67103" lon="-2.98568">
        <ele>33.3</ele>
        <time>2020-06-06T14:14:17Z</time>
      </trkpt>
      <trkpt lat="47.67103" lon="-2.98573">
        <ele>33.4</ele>
        <time>2020-06-06T14:14:18Z</time>
      </trkpt>
      <trkpt lat="47.67103" lon="-2.98579">
        <ele>33.5</ele>
        <time>2020-06-06T14:14:19Z</time>
      </trkpt>
      <trkpt lat="47.67103" lon="-2.98585">
        <ele>33.5</ele>
        <time>2020-06-06T14:14:20Z</time>
      </trkpt>
      <trkpt lat="47.67103" lon="-2.98591">
        <ele>33.6</ele>
        <time>2020-06-06T14:14:21Z</time>
      </trkpt>
      <trkpt lat="47.67102" lon="-2.98597">
        <ele>33.7</ele>
        <time>2020-06-06T14:14:22Z</time>
      </trkpt>
      <trkpt lat="47.67102" lon="-2.98602">
        <ele>33.8</ele>
        <time>2020-06-06T14:14:23Z</time>
      </trkpt>
      <trkpt lat="47.67101" lon="-2.98607">
        <ele>33.9</ele>
        <time>2020-06-06T14:14:24Z</time>
      </trkpt>
      <trkpt lat="47.671" lon="-2.98612">
        <ele>34</ele>
        <time>2020-06-06T14:14:25Z</time>
      </trkpt>
      <trkpt lat="47.671" lon="-2.98617">
        <ele>34.2</ele>
        <time>2020-06-06T14:14:26Z</time>
      </trkpt>
      <trkpt lat="47.67098" lon="-2.98624">
        <ele>34.4</ele>
        <time>2020-06-06T14:14:27Z</time>
      </trkpt>
      <trkpt lat="47.67098" lon="-2.98629">
        <ele>34.6</ele>
        <time>2020-06-06T14:14:28Z</time>
      </trkpt>
      <trkpt lat="47.67097" lon="-2.98635">
        <ele>34.8</ele>
        <time>2020-06-06T14:14:29Z</time>
      </trkpt>
      <trkpt lat="47.67096" lon="-2.98639">
        <ele>35</ele>
        <time>2020-06-06T14:14:30Z</time>
      </trkpt>
      <trkpt lat="47.67095" lon="-2.98645">
        <ele>35.1</ele>
        <time>2020-06-06T14:14:31Z</time>
      </trkpt>
      <trkpt lat="47.67094" lon="-2.9865">
        <ele>35.3</ele>
        <time>2020-06-06T14:14:32Z</time>
      </trkpt>
      <trkpt lat="47.67094" lon="-2.98655">
        <ele>35.5</ele>
        <time>2020-06-06T14:14:33Z</time>
      </trkpt>
      <trkpt lat="47.67094" lon="-2.98661">
        <ele>35.7</ele>
        <time>2020-06-06T14:14:34Z</time>
      </trkpt>
      <trkpt lat="47.67094" lon="-2.98667">
        <ele>35.9</ele>
        <time>2020-06-06T14:14:35Z</time>
      </trkpt>
      <trkpt lat="47.67094" lon="-2.98673">
        <ele>36.1</ele>
        <time>2020-06-06T14:14:36Z</time>
      </trkpt>
      <trkpt lat="47.67094" lon="-2.98679">
        <ele>36.4</ele>
        <time>2020-06-06T14:14:37Z</time>
      </trkpt>
      <trkpt lat="47.67095" lon="-2.98686">
        <ele>35.9</ele>
        <time>2020-06-06T14:14:38Z</time>
      </trkpt>
      <trkpt lat="47.67095" lon="-2.98691">
        <ele>35.7</ele>
        <time>2020-06-06T14:14:39Z</time>
      </trkpt>
      <trkpt lat="47.67094" lon="-2.98696">
        <ele>35.6</ele>
        <time>2020-06-06T14:14:40Z</time>
      </trkpt>
      <trkpt lat="47.67091" lon="-2.98702">
        <ele>35.8</ele>
        <time>2020-06-06T14:14:41Z</time>
      </trkpt>
      <trkpt lat="47.67089" lon="-2.98707">
        <ele>35.8</ele>
        <time>2020-06-06T14:14:42Z</time>
      </trkpt>
      <trkpt lat="47.67088" lon="-2.98712">
        <ele>35.8</ele>
        <time>2020-06-06T14:14:43Z</time>
      </trkpt>
      <trkpt lat="47.67087" lon="-2.98717">
        <ele>35.8</ele>
        <time>2020-06-06T14:14:44Z</time>
      </trkpt>
      <trkpt lat="47.67086" lon="-2.98722">
        <ele>35.9</ele>
        <time>2020-06-06T14:14:45Z</time>
      </trkpt>
      <trkpt lat="47.67087" lon="-2.98727">
        <ele>35.9</ele>
        <time>2020-06-06T14:14:46Z</time>
      </trkpt>
      <trkpt lat="47.67086" lon="-2.98733">
        <ele>35.9</ele>
        <time>2020-06-06T14:14:47Z</time>
      </trkpt>
      <trkpt lat="47.67085" lon="-2.98738">
        <ele>35.9</ele>
        <time>2020-06-06T14:14:48Z</time>
      </trkpt>
      <trkpt lat="47.67085" lon="-2.98744">
        <ele>35.9</ele>
        <time>2020-06-06T14:14:49Z</time>
      </trkpt>
      <trkpt lat="47.67083" lon="-2.98749">
        <ele>36</ele>
        <time>2020-06-06T14:14:50Z</time>
      </trkpt>
      <trkpt lat="47.67083" lon="-2.98755">
        <ele>36</ele>
        <time>2020-06-06T14:14:51Z</time>
      </trkpt>
      <trkpt lat="47.67083" lon="-2.98761">
        <ele>36.1</ele>
        <time>2020-06-06T14:14:52Z</time>
      </trkpt>
      <trkpt lat="47.67082" lon="-2.98766">
        <ele>36.1</ele>
        <time>2020-06-06T14:14:53Z</time>
      </trkpt>
      <trkpt lat="47.67082" lon="-2.98772">
        <ele>36.3</ele>
        <time>2020-06-06T14:14:54Z</time>
      </trkpt>
      <trkpt lat="47.67081" lon="-2.98777">
        <ele>36.4</ele>
        <time>2020-06-06T14:14:55Z</time>
      </trkpt>
      <trkpt lat="47.67081" lon="-2.98782">
        <ele>36.6</ele>
        <time>2020-06-06T14:14:56Z</time>
      </trkpt>
      <trkpt lat="47.67081" lon="-2.98788">
        <ele>36.8</ele>
        <time>2020-06-06T14:14:57Z</time>
      </trkpt>
      <trkpt lat="47.67079" lon="-2.98793">
        <ele>36.9</ele>
        <time>2020-06-06T14:14:58Z</time>
      </trkpt>
      <trkpt lat="47.67079" lon="-2.98799">
        <ele>37.1</ele>
        <time>2020-06-06T14:14:59Z</time>
      </trkpt>
      <trkpt lat="47.67078" lon="-2.98805">
        <ele>37.3</ele>
        <time>2020-06-06T14:15:00Z</time>
      </trkpt>
      <trkpt lat="47.67077" lon="-2.98811">
        <ele>37.5</ele>
        <time>2020-06-06T14:15:01Z</time>
      </trkpt>
      <trkpt lat="47.67077" lon="-2.98816">
        <ele>37.7</ele>
        <time>2020-06-06T14:15:02Z</time>
      </trkpt>
      <trkpt lat="47.67077" lon="-2.9882">
        <ele>37.8</ele>
        <time>2020-06-06T14:15:03Z</time>
      </trkpt>
      <trkpt lat="47.67076" lon="-2.98826">
        <ele>38</ele>
        <time>2020-06-06T14:15:04Z</time>
      </trkpt>
      <trkpt lat="47.67076" lon="-2.9883">
        <ele>38.1</ele>
        <time>2020-06-06T14:15:05Z</time>
      </trkpt>
      <trkpt lat="47.67076" lon="-2.98835">
        <ele>38.2</ele>
        <time>2020-06-06T14:15:06Z</time>
      </trkpt>
      <trkpt lat="47.67076" lon="-2.98842">
        <ele>38.4</ele>
        <time>2020-06-06T14:15:07Z</time>
      </trkpt>
      <trkpt lat="47.67075" lon="-2.98846">
        <ele>38.6</ele>
        <time>2020-06-06T14:15:08Z</time>
      </trkpt>
      <trkpt lat="47.67075" lon="-2.98851">
        <ele>38.7</ele>
        <time>2020-06-06T14:15:09Z</time>
      </trkpt>
      <trkpt lat="47.67074" lon="-2.98858">
        <ele>38.7</ele>
        <time>2020-06-06T14:15:10Z</time>
      </trkpt>
      <trkpt lat="47.67073" lon="-2.98863">
        <ele>38.8</ele>
        <time>2020-06-06T14:15:11Z</time>
      </trkpt>
      <trkpt lat="47.67072" lon="-2.98868">
        <ele>38.8</ele>
        <time>2020-06-06T14:15:12Z</time>
      </trkpt>
      <trkpt lat="47.67071" lon="-2.98873">
        <ele>38.9</ele>
        <time>2020-06-06T14:15:13Z</time>
      </trkpt>
      <trkpt lat="47.6707" lon="-2.98879">
        <ele>38.9</ele>
        <time>2020-06-06T14:15:14Z</time>
      </trkpt>
      <trkpt lat="47.6707" lon="-2.98884">
        <ele>39</ele>
        <time>2020-06-06T14:15:15Z</time>
      </trkpt>
      <trkpt lat="47.67069" lon="-2.9889">
        <ele>39.1</ele>
        <time>2020-06-06T14:15:16Z</time>
      </trkpt>
      <trkpt lat="47.67068" lon="-2.98895">
        <ele>39.1</ele>
        <time>2020-06-06T14:15:17Z</time>
      </trkpt>
      <trkpt lat="47.67067" lon="-2.98902">
        <ele>39.2</ele>
        <time>2020-06-06T14:15:18Z</time>
      </trkpt>
      <trkpt lat="47.67067" lon="-2.98907">
        <ele>39.3</ele>
        <time>2020-06-06T14:15:19Z</time>
      </trkpt>
      <trkpt lat="47.67066" lon="-2.98912">
        <ele>39.4</ele>
        <time>2020-06-06T14:15:20Z</time>
      </trkpt>
      <trkpt lat="47.67065" lon="-2.98917">
        <ele>39.5</ele>
        <time>2020-06-06T14:15:21Z</time>
      </trkpt>
      <trkpt lat="47.67064" lon="-2.98923">
        <ele>39.5</ele>
        <time>2020-06-06T14:15:22Z</time>
      </trkpt>
      <trkpt lat="47.67064" lon="-2.98928">
        <ele>39.6</ele>
        <time>2020-06-06T14:15:23Z</time>
      </trkpt>
      <trkpt lat="47.67064" lon="-2.98934">
        <ele>39.7</ele>
        <time>2020-06-06T14:15:24Z</time>
      </trkpt>
      <trkpt lat="47.67063" lon="-2.9894">
        <ele>39.8</ele>
        <time>2020-06-06T14:15:25Z</time>
      </trkpt>
      <trkpt lat="47.67062" lon="-2.98945">
        <ele>39.9</ele>
        <time>2020-06-06T14:15:26Z</time>
      </trkpt>
      <trkpt lat="47.67062" lon="-2.9895">
        <ele>40</ele>
        <time>2020-06-06T14:15:27Z</time>
      </trkpt>
      <trkpt lat="47.67062" lon="-2.98955">
        <ele>40.1</ele>
        <time>2020-06-06T14:15:28Z</time>
      </trkpt>
      <trkpt lat="47.67061" lon="-2.98959">
        <ele>40.2</ele>
        <time>2020-06-06T14:15:29Z</time>
      </trkpt>
      <trkpt lat="47.67061" lon="-2.98965">
        <ele>40.3</ele>
        <time>2020-06-06T14:15:30Z</time>
      </trkpt>
      <trkpt lat="47.6706" lon="-2.9897">
        <ele>40.4</ele>
        <time>2020-06-06T14:15:31Z</time>
      </trkpt>
      <trkpt lat="47.67059" lon="-2.98975">
        <ele>40.4</ele>
        <time>2020-06-06T14:15:32Z</time>
      </trkpt>
      <trkpt lat="47.67058" lon="-2.9898">
        <ele>40.5</ele>
        <time>2020-06-06T14:15:33Z</time>
      </trkpt>
      <trkpt lat="47.67057" lon="-2.98984">
        <ele>40.6</ele>
        <time>2020-06-06T14:15:34Z</time>
      </trkpt>
      <trkpt lat="47.67056" lon="-2.98988">
        <ele>40.7</ele>
        <time>2020-06-06T14:15:35Z</time>
      </trkpt>
      <trkpt lat="47.67055" lon="-2.98993">
        <ele>40.8</ele>
        <time>2020-06-06T14:15:36Z</time>
      </trkpt>
      <trkpt lat="47.67055" lon="-2.98997">
        <ele>40.8</ele>
        <time>2020-06-06T14:15:37Z</time>
      </trkpt>
      <trkpt lat="47.67055" lon="-2.99002">
        <ele>40.9</ele>
        <time>2020-06-06T14:15:38Z</time>
      </trkpt>
      <trkpt lat="47.67055" lon="-2.99006">
        <ele>41</ele>
        <time>2020-06-06T14:15:39Z</time>
      </trkpt>
      <trkpt lat="47.67054" lon="-2.99011">
        <ele>41.2</ele>
        <time>2020-06-06T14:15:40Z</time>
      </trkpt>
      <trkpt lat="47.67054" lon="-2.99016">
        <ele>41.3</ele>
        <time>2020-06-06T14:15:41Z</time>
      </trkpt>
      <trkpt lat="47.67054" lon="-2.99021">
        <ele>41.4</ele>
        <time>2020-06-06T14:15:42Z</time>
      </trkpt>
      <trkpt lat="47.67054" lon="-2.99027">
        <ele>41.5</ele>
        <time>2020-06-06T14:15:43Z</time>
      </trkpt>
      <trkpt lat="47.67054" lon="-2.99032">
        <ele>41.6</ele>
        <time>2020-06-06T14:15:44Z</time>
      </trkpt>
      <trkpt lat="47.67053" lon="-2.99036">
        <ele>41.7</ele>
        <time>2020-06-06T14:15:45Z</time>
      </trkpt>
      <trkpt lat="47.67053" lon="-2.99039">
        <ele>41.8</ele>
        <time>2020-06-06T14:15:46Z</time>
      </trkpt>
      <trkpt lat="47.67054" lon="-2.9904">
        <ele>41.8</ele>
        <time>2020-06-06T14:15:47Z</time>
      </trkpt>
      <trkpt lat="47.67054" lon="-2.99041">
        <ele>42</ele>
        <time>2020-06-06T14:15:48Z</time>
      </trkpt>
      <trkpt lat="47.67053" lon="-2.99043">
        <ele>42</ele>
        <time>2020-06-06T14:15:49Z</time>
      </trkpt>
      <trkpt lat="47.67053" lon="-2.99044">
        <ele>42</ele>
        <time>2020-06-06T14:15:50Z</time>
      </trkpt>
      <trkpt lat="47.67054" lon="-2.99046">
        <ele>42</ele>
        <time>2020-06-06T14:15:51Z</time>
      </trkpt>
      <trkpt lat="47.67054" lon="-2.99049">
        <ele>42</ele>
        <time>2020-06-06T14:15:52Z</time>
      </trkpt>
      <trkpt lat="47.67055" lon="-2.99054">
        <ele>42</ele>
        <time>2020-06-06T14:15:53Z</time>
      </trkpt>
      <trkpt lat="47.67055" lon="-2.99056">
        <ele>42</ele>
        <time>2020-06-06T14:15:54Z</time>
      </trkpt>
      <trkpt lat="47.67055" lon="-2.99062">
        <ele>42</ele>
        <time>2020-06-06T14:15:55Z</time>
      </trkpt>
      <trkpt lat="47.67055" lon="-2.99068">
        <ele>42</ele>
        <time>2020-06-06T14:15:56Z</time>
      </trkpt>
      <trkpt lat="47.67055" lon="-2.99074">
        <ele>42</ele>
        <time>2020-06-06T14:15:57Z</time>
      </trkpt>
      <trkpt lat="47.67054" lon="-2.99079">
        <ele>42.1</ele>
        <time>2020-06-06T14:15:58Z</time>
      </trkpt>
      <trkpt lat="47.67055" lon="-2.99085">
        <ele>42.2</ele>
        <time>2020-06-06T14:15:59Z</time>
      </trkpt>
      <trkpt lat="47.67055" lon="-2.9909">
        <ele>42.2</ele>
        <time>2020-06-06T14:16:00Z</time>
      </trkpt>
      <trkpt lat="47.67056" lon="-2.99095">
        <ele>42.2</ele>
        <time>2020-06-06T14:16:01Z</time>
      </trkpt>
      <trkpt lat="47.67058" lon="-2.99099">
        <ele>42.2</ele>
        <time>2020-06-06T14:16:02Z</time>
      </trkpt>
      <trkpt lat="47.67058" lon="-2.99105">
        <ele>42.2</ele>
        <time>2020-06-06T14:16:03Z</time>
      </trkpt>
      <trkpt lat="47.67057" lon="-2.99109">
        <ele>42.3</ele>
        <time>2020-06-06T14:16:04Z</time>
      </trkpt>
      <trkpt lat="47.67058" lon="-2.99114">
        <ele>42.3</ele>
        <time>2020-06-06T14:16:05Z</time>
      </trkpt>
      <trkpt lat="47.67059" lon="-2.99119">
        <ele>42.3</ele>
        <time>2020-06-06T14:16:06Z</time>
      </trkpt>
      <trkpt lat="47.67061" lon="-2.99124">
        <ele>42.3</ele>
        <time>2020-06-06T14:16:07Z</time>
      </trkpt>
      <trkpt lat="47.67062" lon="-2.99129">
        <ele>42.3</ele>
        <time>2020-06-06T14:16:08Z</time>
      </trkpt>
      <trkpt lat="47.67062" lon="-2.99135">
        <ele>42.3</ele>
        <time>2020-06-06T14:16:09Z</time>
      </trkpt>
      <trkpt lat="47.67064" lon="-2.9914">
        <ele>42.4</ele>
        <time>2020-06-06T14:16:10Z</time>
      </trkpt>
      <trkpt lat="47.67065" lon="-2.99144">
        <ele>42.4</ele>
        <time>2020-06-06T14:16:11Z</time>
      </trkpt>
      <trkpt lat="47.67067" lon="-2.99149">
        <ele>42.5</ele>
        <time>2020-06-06T14:16:12Z</time>
      </trkpt>
      <trkpt lat="47.67068" lon="-2.99153">
        <ele>42.5</ele>
        <time>2020-06-06T14:16:13Z</time>
      </trkpt>
      <trkpt lat="47.6707" lon="-2.99158">
        <ele>42.6</ele>
        <time>2020-06-06T14:16:14Z</time>
      </trkpt>
      <trkpt lat="47.67071" lon="-2.99162">
        <ele>42.6</ele>
        <time>2020-06-06T14:16:15Z</time>
      </trkpt>
      <trkpt lat="47.67072" lon="-2.99166">
        <ele>42.6</ele>
        <time>2020-06-06T14:16:16Z</time>
      </trkpt>
      <trkpt lat="47.67074" lon="-2.99172">
        <ele>42.6</ele>
        <time>2020-06-06T14:16:17Z</time>
      </trkpt>
      <trkpt lat="47.67076" lon="-2.99176">
        <ele>42.6</ele>
        <time>2020-06-06T14:16:18Z</time>
      </trkpt>
      <trkpt lat="47.67079" lon="-2.99181">
        <ele>42.6</ele>
        <time>2020-06-06T14:16:19Z</time>
      </trkpt>
      <trkpt lat="47.6708" lon="-2.99186">
        <ele>42.6</ele>
        <time>2020-06-06T14:16:20Z</time>
      </trkpt>
      <trkpt lat="47.67082" lon="-2.9919">
        <ele>42.6</ele>
        <time>2020-06-06T14:16:21Z</time>
      </trkpt>
      <trkpt lat="47.67083" lon="-2.99196">
        <ele>42.7</ele>
        <time>2020-06-06T14:16:22Z</time>
      </trkpt>
      <trkpt lat="47.67085" lon="-2.99199">
        <ele>42.7</ele>
        <time>2020-06-06T14:16:23Z</time>
      </trkpt>
      <trkpt lat="47.67086" lon="-2.99203">
        <ele>42.7</ele>
        <time>2020-06-06T14:16:24Z</time>
      </trkpt>
      <trkpt lat="47.67087" lon="-2.99207">
        <ele>42.7</ele>
        <time>2020-06-06T14:16:25Z</time>
      </trkpt>
      <trkpt lat="47.67088" lon="-2.99212">
        <ele>42.7</ele>
        <time>2020-06-06T14:16:26Z</time>
      </trkpt>
      <trkpt lat="47.67089" lon="-2.99217">
        <ele>42.7</ele>
        <time>2020-06-06T14:16:27Z</time>
      </trkpt>
      <trkpt lat="47.67089" lon="-2.99219">
        <ele>42.7</ele>
        <time>2020-06-06T14:16:28Z</time>
      </trkpt>
      <trkpt lat="47.67089" lon="-2.99224">
        <ele>42.7</ele>
        <time>2020-06-06T14:16:29Z</time>
      </trkpt>
      <trkpt lat="47.67089" lon="-2.99228">
        <ele>42.7</ele>
        <time>2020-06-06T14:16:30Z</time>
      </trkpt>
      <trkpt lat="47.6709" lon="-2.99232">
        <ele>42.7</ele>
        <time>2020-06-06T14:16:31Z</time>
      </trkpt>
      <trkpt lat="47.67091" lon="-2.99237">
        <ele>42.7</ele>
        <time>2020-06-06T14:16:32Z</time>
      </trkpt>
      <trkpt lat="47.67092" lon="-2.99242">
        <ele>42.7</ele>
        <time>2020-06-06T14:16:33Z</time>
      </trkpt>
      <trkpt lat="47.67094" lon="-2.99245">
        <ele>42.7</ele>
        <time>2020-06-06T14:16:34Z</time>
      </trkpt>
      <trkpt lat="47.67096" lon="-2.9925">
        <ele>42.7</ele>
        <time>2020-06-06T14:16:35Z</time>
      </trkpt>
      <trkpt lat="47.67098" lon="-2.99255">
        <ele>42.6</ele>
        <time>2020-06-06T14:16:36Z</time>
      </trkpt>
      <trkpt lat="47.671" lon="-2.99259">
        <ele>42.6</ele>
        <time>2020-06-06T14:16:37Z</time>
      </trkpt>
      <trkpt lat="47.67101" lon="-2.99264">
        <ele>42.6</ele>
        <time>2020-06-06T14:16:38Z</time>
      </trkpt>
      <trkpt lat="47.67102" lon="-2.9927">
        <ele>42.5</ele>
        <time>2020-06-06T14:16:39Z</time>
      </trkpt>
      <trkpt lat="47.67104" lon="-2.99276">
        <ele>42.5</ele>
        <time>2020-06-06T14:16:40Z</time>
      </trkpt>
      <trkpt lat="47.67105" lon="-2.9928">
        <ele>42.4</ele>
        <time>2020-06-06T14:16:41Z</time>
      </trkpt>
      <trkpt lat="47.67107" lon="-2.99288">
        <ele>42.4</ele>
        <time>2020-06-06T14:16:42Z</time>
      </trkpt>
      <trkpt lat="47.67109" lon="-2.99294">
        <ele>42.3</ele>
        <time>2020-06-06T14:16:43Z</time>
      </trkpt>
      <trkpt lat="47.6711" lon="-2.99297">
        <ele>42.3</ele>
        <time>2020-06-06T14:16:44Z</time>
      </trkpt>
      <trkpt lat="47.67111" lon="-2.99302">
        <ele>42.2</ele>
        <time>2020-06-06T14:16:45Z</time>
      </trkpt>
      <trkpt lat="47.67113" lon="-2.99308">
        <ele>42.2</ele>
        <time>2020-06-06T14:16:46Z</time>
      </trkpt>
      <trkpt lat="47.67114" lon="-2.99314">
        <ele>42.2</ele>
        <time>2020-06-06T14:16:47Z</time>
      </trkpt>
      <trkpt lat="47.67115" lon="-2.99319">
        <ele>42.1</ele>
        <time>2020-06-06T14:16:48Z</time>
      </trkpt>
      <trkpt lat="47.67116" lon="-2.99325">
        <ele>42.1</ele>
        <time>2020-06-06T14:16:49Z</time>
      </trkpt>
      <trkpt lat="47.67118" lon="-2.99329">
        <ele>42.1</ele>
        <time>2020-06-06T14:16:50Z</time>
      </trkpt>
      <trkpt lat="47.67119" lon="-2.99334">
        <ele>42.1</ele>
        <time>2020-06-06T14:16:51Z</time>
      </trkpt>
      <trkpt lat="47.67121" lon="-2.99338">
        <ele>42</ele>
        <time>2020-06-06T14:16:52Z</time>
      </trkpt>
      <trkpt lat="47.67122" lon="-2.99344">
        <ele>42</ele>
        <time>2020-06-06T14:16:53Z</time>
      </trkpt>
      <trkpt lat="47.67123" lon="-2.99349">
        <ele>42</ele>
        <time>2020-06-06T14:16:54Z</time>
      </trkpt>
      <trkpt lat="47.67124" lon="-2.99353">
        <ele>41.9</ele>
        <time>2020-06-06T14:16:55Z</time>
      </trkpt>
      <trkpt lat="47.67126" lon="-2.99358">
        <ele>41.8</ele>
        <time>2020-06-06T14:16:56Z</time>
      </trkpt>
      <trkpt lat="47.67128" lon="-2.99363">
        <ele>41.8</ele>
        <time>2020-06-06T14:16:57Z</time>
      </trkpt>
      <trkpt lat="47.67129" lon="-2.99367">
        <ele>41.7</ele>
        <time>2020-06-06T14:16:58Z</time>
      </trkpt>
      <trkpt lat="47.67131" lon="-2.99372">
        <ele>41.7</ele>
        <time>2020-06-06T14:16:59Z</time>
      </trkpt>
      <trkpt lat="47.67132" lon="-2.99376">
        <ele>41.6</ele>
        <time>2020-06-06T14:17:00Z</time>
      </trkpt>
      <trkpt lat="47.67134" lon="-2.9938">
        <ele>41.6</ele>
        <time>2020-06-06T14:17:01Z</time>
      </trkpt>
      <trkpt lat="47.67137" lon="-2.99385">
        <ele>41.5</ele>
        <time>2020-06-06T14:17:02Z</time>
      </trkpt>
      <trkpt lat="47.67139" lon="-2.99389">
        <ele>41.5</ele>
        <time>2020-06-06T14:17:03Z</time>
      </trkpt>
      <trkpt lat="47.67141" lon="-2.99393">
        <ele>41.5</ele>
        <time>2020-06-06T14:17:04Z</time>
      </trkpt>
      <trkpt lat="47.67143" lon="-2.99397">
        <ele>41.5</ele>
        <time>2020-06-06T14:17:05Z</time>
      </trkpt>
      <trkpt lat="47.67145" lon="-2.99401">
        <ele>41.5</ele>
        <time>2020-06-06T14:17:06Z</time>
      </trkpt>
      <trkpt lat="47.67147" lon="-2.99407">
        <ele>41.5</ele>
        <time>2020-06-06T14:17:07Z</time>
      </trkpt>
      <trkpt lat="47.67148" lon="-2.99412">
        <ele>41.4</ele>
        <time>2020-06-06T14:17:08Z</time>
      </trkpt>
      <trkpt lat="47.67149" lon="-2.99417">
        <ele>41.3</ele>
        <time>2020-06-06T14:17:09Z</time>
      </trkpt>
      <trkpt lat="47.67151" lon="-2.99423">
        <ele>41.3</ele>
        <time>2020-06-06T14:17:10Z</time>
      </trkpt>
      <trkpt lat="47.67152" lon="-2.99428">
        <ele>41.3</ele>
        <time>2020-06-06T14:17:11Z</time>
      </trkpt>
      <trkpt lat="47.67154" lon="-2.99433">
        <ele>41.2</ele>
        <time>2020-06-06T14:17:12Z</time>
      </trkpt>
      <trkpt lat="47.67156" lon="-2.99437">
        <ele>41.2</ele>
        <time>2020-06-06T14:17:13Z</time>
      </trkpt>
      <trkpt lat="47.67159" lon="-2.99443">
        <ele>41.1</ele>
        <time>2020-06-06T14:17:14Z</time>
      </trkpt>
      <trkpt lat="47.67161" lon="-2.99449">
        <ele>41.1</ele>
        <time>2020-06-06T14:17:15Z</time>
      </trkpt>
      <trkpt lat="47.67162" lon="-2.99453">
        <ele>41.1</ele>
        <time>2020-06-06T14:17:16Z</time>
      </trkpt>
      <trkpt lat="47.67164" lon="-2.99459">
        <ele>41</ele>
        <time>2020-06-06T14:17:17Z</time>
      </trkpt>
      <trkpt lat="47.67166" lon="-2.99463">
        <ele>41</ele>
        <time>2020-06-06T14:17:18Z</time>
      </trkpt>
      <trkpt lat="47.67167" lon="-2.99468">
        <ele>41</ele>
        <time>2020-06-06T14:17:19Z</time>
      </trkpt>
      <trkpt lat="47.67169" lon="-2.99473">
        <ele>41</ele>
        <time>2020-06-06T14:17:20Z</time>
      </trkpt>
      <trkpt lat="47.67171" lon="-2.99478">
        <ele>40.9</ele>
        <time>2020-06-06T14:17:21Z</time>
      </trkpt>
      <trkpt lat="47.67172" lon="-2.99482">
        <ele>40.9</ele>
        <time>2020-06-06T14:17:22Z</time>
      </trkpt>
      <trkpt lat="47.67174" lon="-2.99487">
        <ele>40.9</ele>
        <time>2020-06-06T14:17:23Z</time>
      </trkpt>
      <trkpt lat="47.67174" lon="-2.99491">
        <ele>40.9</ele>
        <time>2020-06-06T14:17:24Z</time>
      </trkpt>
      <trkpt lat="47.67175" lon="-2.99496">
        <ele>40.8</ele>
        <time>2020-06-06T14:17:25Z</time>
      </trkpt>
      <trkpt lat="47.67176" lon="-2.995">
        <ele>40.8</ele>
        <time>2020-06-06T14:17:26Z</time>
      </trkpt>
      <trkpt lat="47.67177" lon="-2.99502">
        <ele>40.8</ele>
        <time>2020-06-06T14:17:27Z</time>
      </trkpt>
      <trkpt lat="47.67179" lon="-2.99507">
        <ele>40.7</ele>
        <time>2020-06-06T14:17:28Z</time>
      </trkpt>
      <trkpt lat="47.6718" lon="-2.99508">
        <ele>40.7</ele>
        <time>2020-06-06T14:17:29Z</time>
      </trkpt>
      <trkpt lat="47.67182" lon="-2.99512">
        <ele>40.7</ele>
        <time>2020-06-06T14:17:30Z</time>
      </trkpt>
      <trkpt lat="47.67182" lon="-2.99513">
        <ele>40.6</ele>
        <time>2020-06-06T14:17:31Z</time>
      </trkpt>
      <trkpt lat="47.67183" lon="-2.99515">
        <ele>40.6</ele>
        <time>2020-06-06T14:17:32Z</time>
      </trkpt>
      <trkpt lat="47.67184" lon="-2.99518">
        <ele>40.6</ele>
        <time>2020-06-06T14:17:33Z</time>
      </trkpt>
      <trkpt lat="47.67185" lon="-2.99522">
        <ele>40.5</ele>
        <time>2020-06-06T14:17:34Z</time>
      </trkpt>
      <trkpt lat="47.67186" lon="-2.99523">
        <ele>40.5</ele>
        <time>2020-06-06T14:17:35Z</time>
      </trkpt>
      <trkpt lat="47.67186" lon="-2.99526">
        <ele>40.5</ele>
        <time>2020-06-06T14:17:36Z</time>
      </trkpt>
      <trkpt lat="47.67187" lon="-2.99528">
        <ele>40.4</ele>
        <time>2020-06-06T14:17:37Z</time>
      </trkpt>
      <trkpt lat="47.67189" lon="-2.9953">
        <ele>40.4</ele>
        <time>2020-06-06T14:17:38Z</time>
      </trkpt>
      <trkpt lat="47.67189" lon="-2.99532">
        <ele>40.4</ele>
        <time>2020-06-06T14:17:39Z</time>
      </trkpt>
      <trkpt lat="47.6719" lon="-2.99535">
        <ele>40.4</ele>
        <time>2020-06-06T14:17:40Z</time>
      </trkpt>
      <trkpt lat="47.67191" lon="-2.99537">
        <ele>40.3</ele>
        <time>2020-06-06T14:17:41Z</time>
      </trkpt>
      <trkpt lat="47.67192" lon="-2.9954">
        <ele>40.3</ele>
        <time>2020-06-06T14:17:42Z</time>
      </trkpt>
      <trkpt lat="47.67194" lon="-2.99544">
        <ele>40.2</ele>
        <time>2020-06-06T14:17:43Z</time>
      </trkpt>
      <trkpt lat="47.67195" lon="-2.99547">
        <ele>40.2</ele>
        <time>2020-06-06T14:17:44Z</time>
      </trkpt>
      <trkpt lat="47.67197" lon="-2.99552">
        <ele>40.1</ele>
        <time>2020-06-06T14:17:45Z</time>
      </trkpt>
      <trkpt lat="47.67198" lon="-2.99556">
        <ele>40</ele>
        <time>2020-06-06T14:17:46Z</time>
      </trkpt>
      <trkpt lat="47.67201" lon="-2.99562">
        <ele>39.9</ele>
        <time>2020-06-06T14:17:47Z</time>
      </trkpt>
      <trkpt lat="47.67202" lon="-2.99568">
        <ele>39.8</ele>
        <time>2020-06-06T14:17:48Z</time>
      </trkpt>
      <trkpt lat="47.67204" lon="-2.99572">
        <ele>39.8</ele>
        <time>2020-06-06T14:17:49Z</time>
      </trkpt>
      <trkpt lat="47.67204" lon="-2.99577">
        <ele>39.7</ele>
        <time>2020-06-06T14:17:50Z</time>
      </trkpt>
      <trkpt lat="47.67206" lon="-2.99582">
        <ele>39.6</ele>
        <time>2020-06-06T14:17:51Z</time>
      </trkpt>
      <trkpt lat="47.67207" lon="-2.99587">
        <ele>39.5</ele>
        <time>2020-06-06T14:17:52Z</time>
      </trkpt>
      <trkpt lat="47.67208" lon="-2.99592">
        <ele>39.4</ele>
        <time>2020-06-06T14:17:53Z</time>
      </trkpt>
      <trkpt lat="47.6721" lon="-2.99597">
        <ele>39.2</ele>
        <time>2020-06-06T14:17:54Z</time>
      </trkpt>
      <trkpt lat="47.67212" lon="-2.99602">
        <ele>39.1</ele>
        <time>2020-06-06T14:17:55Z</time>
      </trkpt>
      <trkpt lat="47.67214" lon="-2.99607">
        <ele>39</ele>
        <time>2020-06-06T14:17:56Z</time>
      </trkpt>
      <trkpt lat="47.67215" lon="-2.99614">
        <ele>38.9</ele>
        <time>2020-06-06T14:17:57Z</time>
      </trkpt>
      <trkpt lat="47.67217" lon="-2.9962">
        <ele>38.7</ele>
        <time>2020-06-06T14:17:58Z</time>
      </trkpt>
      <trkpt lat="47.67219" lon="-2.99626">
        <ele>38.6</ele>
        <time>2020-06-06T14:17:59Z</time>
      </trkpt>
      <trkpt lat="47.67221" lon="-2.99632">
        <ele>38.3</ele>
        <time>2020-06-06T14:18:00Z</time>
      </trkpt>
      <trkpt lat="47.67222" lon="-2.99638">
        <ele>38.1</ele>
        <time>2020-06-06T14:18:01Z</time>
      </trkpt>
      <trkpt lat="47.67224" lon="-2.99644">
        <ele>37.9</ele>
        <time>2020-06-06T14:18:02Z</time>
      </trkpt>
      <trkpt lat="47.67226" lon="-2.99649">
        <ele>37.8</ele>
        <time>2020-06-06T14:18:03Z</time>
      </trkpt>
      <trkpt lat="47.67227" lon="-2.99653">
        <ele>37.7</ele>
        <time>2020-06-06T14:18:04Z</time>
      </trkpt>
      <trkpt lat="47.67229" lon="-2.99659">
        <ele>37.6</ele>
        <time>2020-06-06T14:18:05Z</time>
      </trkpt>
      <trkpt lat="47.67231" lon="-2.99665">
        <ele>37.5</ele>
        <time>2020-06-06T14:18:06Z</time>
      </trkpt>
      <trkpt lat="47.67234" lon="-2.99671">
        <ele>37.3</ele>
        <time>2020-06-06T14:18:07Z</time>
      </trkpt>
      <trkpt lat="47.67236" lon="-2.99677">
        <ele>37.2</ele>
        <time>2020-06-06T14:18:08Z</time>
      </trkpt>
      <trkpt lat="47.67238" lon="-2.99685">
        <ele>37.1</ele>
        <time>2020-06-06T14:18:09Z</time>
      </trkpt>
      <trkpt lat="47.67241" lon="-2.9969">
        <ele>37</ele>
        <time>2020-06-06T14:18:10Z</time>
      </trkpt>
      <trkpt lat="47.67243" lon="-2.99695">
        <ele>36.9</ele>
        <time>2020-06-06T14:18:11Z</time>
      </trkpt>
      <trkpt lat="47.67245" lon="-2.99701">
        <ele>36.7</ele>
        <time>2020-06-06T14:18:12Z</time>
      </trkpt>
      <trkpt lat="47.67247" lon="-2.99707">
        <ele>36.6</ele>
        <time>2020-06-06T14:18:13Z</time>
      </trkpt>
      <trkpt lat="47.67249" lon="-2.99714">
        <ele>36.5</ele>
        <time>2020-06-06T14:18:14Z</time>
      </trkpt>
      <trkpt lat="47.67251" lon="-2.9972">
        <ele>36.3</ele>
        <time>2020-06-06T14:18:15Z</time>
      </trkpt>
      <trkpt lat="47.67253" lon="-2.99725">
        <ele>36.2</ele>
        <time>2020-06-06T14:18:16Z</time>
      </trkpt>
      <trkpt lat="47.67256" lon="-2.9973">
        <ele>36.2</ele>
        <time>2020-06-06T14:18:17Z</time>
      </trkpt>
      <trkpt lat="47.67258" lon="-2.99736">
        <ele>36.2</ele>
        <time>2020-06-06T14:18:18Z</time>
      </trkpt>
      <trkpt lat="47.67259" lon="-2.99744">
        <ele>36</ele>
        <time>2020-06-06T14:18:19Z</time>
      </trkpt>
      <trkpt lat="47.67259" lon="-2.99752">
        <ele>35.7</ele>
        <time>2020-06-06T14:18:20Z</time>
      </trkpt>
      <trkpt lat="47.6726" lon="-2.9976">
        <ele>35.4</ele>
        <time>2020-06-06T14:18:21Z</time>
      </trkpt>
      <trkpt lat="47.67263" lon="-2.99767">
        <ele>35.2</ele>
        <time>2020-06-06T14:18:22Z</time>
      </trkpt>
      <trkpt lat="47.67265" lon="-2.99774">
        <ele>34.9</ele>
        <time>2020-06-06T14:18:23Z</time>
      </trkpt>
      <trkpt lat="47.67268" lon="-2.99782">
        <ele>34.6</ele>
        <time>2020-06-06T14:18:24Z</time>
      </trkpt>
      <trkpt lat="47.67271" lon="-2.9979">
        <ele>34.3</ele>
        <time>2020-06-06T14:18:25Z</time>
      </trkpt>
      <trkpt lat="47.67274" lon="-2.99797">
        <ele>34</ele>
        <time>2020-06-06T14:18:26Z</time>
      </trkpt>
      <trkpt lat="47.67278" lon="-2.99804">
        <ele>33.8</ele>
        <time>2020-06-06T14:18:27Z</time>
      </trkpt>
      <trkpt lat="47.67282" lon="-2.9981">
        <ele>33.5</ele>
        <time>2020-06-06T14:18:28Z</time>
      </trkpt>
      <trkpt lat="47.67285" lon="-2.99817">
        <ele>33.3</ele>
        <time>2020-06-06T14:18:29Z</time>
      </trkpt>
      <trkpt lat="47.67287" lon="-2.99824">
        <ele>33</ele>
        <time>2020-06-06T14:18:30Z</time>
      </trkpt>
      <trkpt lat="47.6729" lon="-2.9983">
        <ele>32.8</ele>
        <time>2020-06-06T14:18:31Z</time>
      </trkpt>
      <trkpt lat="47.67293" lon="-2.99838">
        <ele>32.5</ele>
        <time>2020-06-06T14:18:32Z</time>
      </trkpt>
      <trkpt lat="47.67295" lon="-2.99845">
        <ele>32.2</ele>
        <time>2020-06-06T14:18:33Z</time>
      </trkpt>
      <trkpt lat="47.67297" lon="-2.99852">
        <ele>31.9</ele>
        <time>2020-06-06T14:18:34Z</time>
      </trkpt>
      <trkpt lat="47.673" lon="-2.9986">
        <ele>31.7</ele>
        <time>2020-06-06T14:18:35Z</time>
      </trkpt>
      <trkpt lat="47.67302" lon="-2.99867">
        <ele>31.4</ele>
        <time>2020-06-06T14:18:36Z</time>
      </trkpt>
      <trkpt lat="47.67305" lon="-2.99874">
        <ele>31.1</ele>
        <time>2020-06-06T14:18:37Z</time>
      </trkpt>
      <trkpt lat="47.67308" lon="-2.99881">
        <ele>30.8</ele>
        <time>2020-06-06T14:18:38Z</time>
      </trkpt>
      <trkpt lat="47.67311" lon="-2.99888">
        <ele>30.6</ele>
        <time>2020-06-06T14:18:39Z</time>
      </trkpt>
      <trkpt lat="47.67314" lon="-2.99896">
        <ele>30.5</ele>
        <time>2020-06-06T14:18:40Z</time>
      </trkpt>
      <trkpt lat="47.67317" lon="-2.99904">
        <ele>30.3</ele>
        <time>2020-06-06T14:18:41Z</time>
      </trkpt>
      <trkpt lat="47.6732" lon="-2.99912">
        <ele>30.1</ele>
        <time>2020-06-06T14:18:42Z</time>
      </trkpt>
      <trkpt lat="47.67324" lon="-2.99919">
        <ele>30</ele>
        <time>2020-06-06T14:18:43Z</time>
      </trkpt>
      <trkpt lat="47.67327" lon="-2.99926">
        <ele>29.9</ele>
        <time>2020-06-06T14:18:44Z</time>
      </trkpt>
      <trkpt lat="47.67331" lon="-2.99934">
        <ele>29.8</ele>
        <time>2020-06-06T14:18:45Z</time>
      </trkpt>
      <trkpt lat="47.67334" lon="-2.99942">
        <ele>29.7</ele>
        <time>2020-06-06T14:18:46Z</time>
      </trkpt>
      <trkpt lat="47.67336" lon="-2.9995">
        <ele>29.6</ele>
        <time>2020-06-06T14:18:47Z</time>
      </trkpt>
      <trkpt lat="47.67341" lon="-2.99958">
        <ele>29.4</ele>
        <time>2020-06-06T14:18:48Z</time>
      </trkpt>
      <trkpt lat="47.67344" lon="-2.99965">
        <ele>29.3</ele>
        <time>2020-06-06T14:18:49Z</time>
      </trkpt>
      <trkpt lat="47.67348" lon="-2.99971">
        <ele>29.3</ele>
        <time>2020-06-06T14:18:50Z</time>
      </trkpt>
      <trkpt lat="47.67351" lon="-2.99978">
        <ele>29.2</ele>
        <time>2020-06-06T14:18:51Z</time>
      </trkpt>
      <trkpt lat="47.67354" lon="-2.99986">
        <ele>29.2</ele>
        <time>2020-06-06T14:18:52Z</time>
      </trkpt>
      <trkpt lat="47.67358" lon="-2.99993">
        <ele>29.1</ele>
        <time>2020-06-06T14:18:53Z</time>
      </trkpt>
      <trkpt lat="47.67362" lon="-3">
        <ele>29.1</ele>
        <time>2020-06-06T14:18:54Z</time>
      </trkpt>
      <trkpt lat="47.67365" lon="-3.00007">
        <ele>29.1</ele>
        <time>2020-06-06T14:18:55Z</time>
      </trkpt>
      <trkpt lat="47.67368" lon="-3.00013">
        <ele>29.2</ele>
        <time>2020-06-06T14:18:56Z</time>
      </trkpt>
      <trkpt lat="47.67371" lon="-3.0002">
        <ele>29.2</ele>
        <time>2020-06-06T14:18:57Z</time>
      </trkpt>
      <trkpt lat="47.67375" lon="-3.00027">
        <ele>29.3</ele>
        <time>2020-06-06T14:18:58Z</time>
      </trkpt>
      <trkpt lat="47.67378" lon="-3.00033">
        <ele>29.4</ele>
        <time>2020-06-06T14:18:59Z</time>
      </trkpt>
      <trkpt lat="47.67381" lon="-3.00039">
        <ele>29.5</ele>
        <time>2020-06-06T14:19:00Z</time>
      </trkpt>
      <trkpt lat="47.67383" lon="-3.00043">
        <ele>29.6</ele>
        <time>2020-06-06T14:19:01Z</time>
      </trkpt>
      <trkpt lat="47.67385" lon="-3.0005">
        <ele>29.7</ele>
        <time>2020-06-06T14:19:02Z</time>
      </trkpt>
      <trkpt lat="47.67387" lon="-3.00054">
        <ele>29.8</ele>
        <time>2020-06-06T14:19:03Z</time>
      </trkpt>
      <trkpt lat="47.67389" lon="-3.00059">
        <ele>29.9</ele>
        <time>2020-06-06T14:19:04Z</time>
      </trkpt>
      <trkpt lat="47.67392" lon="-3.00065">
        <ele>30</ele>
        <time>2020-06-06T14:19:05Z</time>
      </trkpt>
      <trkpt lat="47.67394" lon="-3.0007">
        <ele>30.1</ele>
        <time>2020-06-06T14:19:06Z</time>
      </trkpt>
      <trkpt lat="47.67396" lon="-3.00074">
        <ele>30.3</ele>
        <time>2020-06-06T14:19:07Z</time>
      </trkpt>
      <trkpt lat="47.67399" lon="-3.00079">
        <ele>30.4</ele>
        <time>2020-06-06T14:19:08Z</time>
      </trkpt>
      <trkpt lat="47.67401" lon="-3.00084">
        <ele>30.5</ele>
        <time>2020-06-06T14:19:09Z</time>
      </trkpt>
      <trkpt lat="47.67404" lon="-3.00089">
        <ele>30.7</ele>
        <time>2020-06-06T14:19:10Z</time>
      </trkpt>
      <trkpt lat="47.67405" lon="-3.00093">
        <ele>30.7</ele>
        <time>2020-06-06T14:19:11Z</time>
      </trkpt>
      <trkpt lat="47.67407" lon="-3.00098">
        <ele>30.8</ele>
        <time>2020-06-06T14:19:12Z</time>
      </trkpt>
      <trkpt lat="47.6741" lon="-3.00103">
        <ele>31</ele>
        <time>2020-06-06T14:19:13Z</time>
      </trkpt>
      <trkpt lat="47.67413" lon="-3.00108">
        <ele>31.1</ele>
        <time>2020-06-06T14:19:14Z</time>
      </trkpt>
      <trkpt lat="47.67416" lon="-3.00112">
        <ele>31.2</ele>
        <time>2020-06-06T14:19:15Z</time>
      </trkpt>
      <trkpt lat="47.67418" lon="-3.00117">
        <ele>31.3</ele>
        <time>2020-06-06T14:19:16Z</time>
      </trkpt>
      <trkpt lat="47.6742" lon="-3.00123">
        <ele>31.4</ele>
        <time>2020-06-06T14:19:17Z</time>
      </trkpt>
      <trkpt lat="47.67423" lon="-3.00128">
        <ele>31.6</ele>
        <time>2020-06-06T14:19:18Z</time>
      </trkpt>
      <trkpt lat="47.67425" lon="-3.00132">
        <ele>31.7</ele>
        <time>2020-06-06T14:19:19Z</time>
      </trkpt>
      <trkpt lat="47.67428" lon="-3.00137">
        <ele>31.8</ele>
        <time>2020-06-06T14:19:20Z</time>
      </trkpt>
      <trkpt lat="47.67431" lon="-3.00142">
        <ele>32</ele>
        <time>2020-06-06T14:19:21Z</time>
      </trkpt>
      <trkpt lat="47.67433" lon="-3.00147">
        <ele>32.1</ele>
        <time>2020-06-06T14:19:22Z</time>
      </trkpt>
      <trkpt lat="47.67436" lon="-3.00152">
        <ele>32.2</ele>
        <time>2020-06-06T14:19:23Z</time>
      </trkpt>
      <trkpt lat="47.67437" lon="-3.00157">
        <ele>32.3</ele>
        <time>2020-06-06T14:19:24Z</time>
      </trkpt>
      <trkpt lat="47.6744" lon="-3.00162">
        <ele>32.5</ele>
        <time>2020-06-06T14:19:25Z</time>
      </trkpt>
      <trkpt lat="47.67442" lon="-3.00168">
        <ele>32.6</ele>
        <time>2020-06-06T14:19:26Z</time>
      </trkpt>
      <trkpt lat="47.67445" lon="-3.00173">
        <ele>32.7</ele>
        <time>2020-06-06T14:19:27Z</time>
      </trkpt>
      <trkpt lat="47.67448" lon="-3.00178">
        <ele>32.9</ele>
        <time>2020-06-06T14:19:28Z</time>
      </trkpt>
      <trkpt lat="47.67451" lon="-3.00182">
        <ele>33</ele>
        <time>2020-06-06T14:19:29Z</time>
      </trkpt>
      <trkpt lat="47.67453" lon="-3.00188">
        <ele>33.1</ele>
        <time>2020-06-06T14:19:30Z</time>
      </trkpt>
      <trkpt lat="47.67457" lon="-3.00194">
        <ele>33.3</ele>
        <time>2020-06-06T14:19:31Z</time>
      </trkpt>
      <trkpt lat="47.67459" lon="-3.00199">
        <ele>33.4</ele>
        <time>2020-06-06T14:19:32Z</time>
      </trkpt>
      <trkpt lat="47.67461" lon="-3.00204">
        <ele>33.5</ele>
        <time>2020-06-06T14:19:33Z</time>
      </trkpt>
      <trkpt lat="47.67464" lon="-3.00209">
        <ele>33.6</ele>
        <time>2020-06-06T14:19:34Z</time>
      </trkpt>
      <trkpt lat="47.67466" lon="-3.00213">
        <ele>33.7</ele>
        <time>2020-06-06T14:19:35Z</time>
      </trkpt>
      <trkpt lat="47.67469" lon="-3.00218">
        <ele>33.8</ele>
        <time>2020-06-06T14:19:36Z</time>
      </trkpt>
      <trkpt lat="47.67471" lon="-3.00223">
        <ele>33.8</ele>
        <time>2020-06-06T14:19:37Z</time>
      </trkpt>
      <trkpt lat="47.67474" lon="-3.00228">
        <ele>33.9</ele>
        <time>2020-06-06T14:19:38Z</time>
      </trkpt>
      <trkpt lat="47.67476" lon="-3.00234">
        <ele>34.2</ele>
        <time>2020-06-06T14:19:39Z</time>
      </trkpt>
      <trkpt lat="47.67478" lon="-3.00239">
        <ele>34.3</ele>
        <time>2020-06-06T14:19:40Z</time>
      </trkpt>
      <trkpt lat="47.67481" lon="-3.00246">
        <ele>34.5</ele>
        <time>2020-06-06T14:19:41Z</time>
      </trkpt>
      <trkpt lat="47.67483" lon="-3.00251">
        <ele>34.6</ele>
        <time>2020-06-06T14:19:42Z</time>
      </trkpt>
      <trkpt lat="47.67485" lon="-3.00256">
        <ele>34.7</ele>
        <time>2020-06-06T14:19:43Z</time>
      </trkpt>
      <trkpt lat="47.67488" lon="-3.00262">
        <ele>34.8</ele>
        <time>2020-06-06T14:19:44Z</time>
      </trkpt>
      <trkpt lat="47.67492" lon="-3.00268">
        <ele>34.9</ele>
        <time>2020-06-06T14:19:45Z</time>
      </trkpt>
      <trkpt lat="47.67495" lon="-3.00273">
        <ele>35</ele>
        <time>2020-06-06T14:19:46Z</time>
      </trkpt>
      <trkpt lat="47.67498" lon="-3.00279">
        <ele>35.1</ele>
        <time>2020-06-06T14:19:47Z</time>
      </trkpt>
      <trkpt lat="47.67501" lon="-3.00284">
        <ele>35.2</ele>
        <time>2020-06-06T14:19:48Z</time>
      </trkpt>
      <trkpt lat="47.67504" lon="-3.00289">
        <ele>35.3</ele>
        <time>2020-06-06T14:19:49Z</time>
      </trkpt>
      <trkpt lat="47.67507" lon="-3.00295">
        <ele>35.4</ele>
        <time>2020-06-06T14:19:50Z</time>
      </trkpt>
      <trkpt lat="47.67509" lon="-3.003">
        <ele>35.4</ele>
        <time>2020-06-06T14:19:51Z</time>
      </trkpt>
      <trkpt lat="47.67512" lon="-3.00304">
        <ele>35.5</ele>
        <time>2020-06-06T14:19:52Z</time>
      </trkpt>
      <trkpt lat="47.67515" lon="-3.0031">
        <ele>35.5</ele>
        <time>2020-06-06T14:19:53Z</time>
      </trkpt>
      <trkpt lat="47.67517" lon="-3.00315">
        <ele>35.6</ele>
        <time>2020-06-06T14:19:54Z</time>
      </trkpt>
      <trkpt lat="47.6752" lon="-3.0032">
        <ele>35.6</ele>
        <time>2020-06-06T14:19:55Z</time>
      </trkpt>
      <trkpt lat="47.67522" lon="-3.00325">
        <ele>35.6</ele>
        <time>2020-06-06T14:19:56Z</time>
      </trkpt>
      <trkpt lat="47.67524" lon="-3.0033">
        <ele>35.6</ele>
        <time>2020-06-06T14:19:57Z</time>
      </trkpt>
      <trkpt lat="47.67526" lon="-3.00336">
        <ele>35.6</ele>
        <time>2020-06-06T14:19:58Z</time>
      </trkpt>
      <trkpt lat="47.67529" lon="-3.0034">
        <ele>35.7</ele>
        <time>2020-06-06T14:19:59Z</time>
      </trkpt>
      <trkpt lat="47.67531" lon="-3.00345">
        <ele>35.7</ele>
        <time>2020-06-06T14:20:00Z</time>
      </trkpt>
      <trkpt lat="47.67533" lon="-3.0035">
        <ele>35.7</ele>
        <time>2020-06-06T14:20:01Z</time>
      </trkpt>
      <trkpt lat="47.67536" lon="-3.00356">
        <ele>35.6</ele>
        <time>2020-06-06T14:20:02Z</time>
      </trkpt>
      <trkpt lat="47.67539" lon="-3.00361">
        <ele>35.6</ele>
        <time>2020-06-06T14:20:03Z</time>
      </trkpt>
      <trkpt lat="47.67541" lon="-3.00366">
        <ele>35.6</ele>
        <time>2020-06-06T14:20:04Z</time>
      </trkpt>
      <trkpt lat="47.67544" lon="-3.00372">
        <ele>35.6</ele>
        <time>2020-06-06T14:20:05Z</time>
      </trkpt>
      <trkpt lat="47.67546" lon="-3.00377">
        <ele>35.6</ele>
        <time>2020-06-06T14:20:06Z</time>
      </trkpt>
      <trkpt lat="47.67549" lon="-3.00382">
        <ele>35.6</ele>
        <time>2020-06-06T14:20:07Z</time>
      </trkpt>
      <trkpt lat="47.67552" lon="-3.00387">
        <ele>35.6</ele>
        <time>2020-06-06T14:20:08Z</time>
      </trkpt>
      <trkpt lat="47.67554" lon="-3.00392">
        <ele>35.6</ele>
        <time>2020-06-06T14:20:09Z</time>
      </trkpt>
      <trkpt lat="47.67556" lon="-3.00396">
        <ele>35.6</ele>
        <time>2020-06-06T14:20:10Z</time>
      </trkpt>
      <trkpt lat="47.67558" lon="-3.004">
        <ele>35.6</ele>
        <time>2020-06-06T14:20:11Z</time>
      </trkpt>
      <trkpt lat="47.67561" lon="-3.00406">
        <ele>35.6</ele>
        <time>2020-06-06T14:20:12Z</time>
      </trkpt>
      <trkpt lat="47.67564" lon="-3.00412">
        <ele>35.6</ele>
        <time>2020-06-06T14:20:13Z</time>
      </trkpt>
      <trkpt lat="47.67567" lon="-3.00416">
        <ele>35.6</ele>
        <time>2020-06-06T14:20:14Z</time>
      </trkpt>
      <trkpt lat="47.67569" lon="-3.00422">
        <ele>35.6</ele>
        <time>2020-06-06T14:20:15Z</time>
      </trkpt>
      <trkpt lat="47.67572" lon="-3.00427">
        <ele>35.6</ele>
        <time>2020-06-06T14:20:16Z</time>
      </trkpt>
      <trkpt lat="47.67574" lon="-3.00433">
        <ele>35.6</ele>
        <time>2020-06-06T14:20:17Z</time>
      </trkpt>
      <trkpt lat="47.67576" lon="-3.00438">
        <ele>35.5</ele>
        <time>2020-06-06T14:20:18Z</time>
      </trkpt>
      <trkpt lat="47.67579" lon="-3.00444">
        <ele>35.5</ele>
        <time>2020-06-06T14:20:19Z</time>
      </trkpt>
      <trkpt lat="47.67581" lon="-3.00449">
        <ele>35.5</ele>
        <time>2020-06-06T14:20:20Z</time>
      </trkpt>
      <trkpt lat="47.67584" lon="-3.00455">
        <ele>35.5</ele>
        <time>2020-06-06T14:20:21Z</time>
      </trkpt>
      <trkpt lat="47.67587" lon="-3.00461">
        <ele>35.5</ele>
        <time>2020-06-06T14:20:22Z</time>
      </trkpt>
      <trkpt lat="47.6759" lon="-3.00466">
        <ele>35.4</ele>
        <time>2020-06-06T14:20:23Z</time>
      </trkpt>
      <trkpt lat="47.67593" lon="-3.00471">
        <ele>35.4</ele>
        <time>2020-06-06T14:20:24Z</time>
      </trkpt>
      <trkpt lat="47.67596" lon="-3.00476">
        <ele>35.4</ele>
        <time>2020-06-06T14:20:25Z</time>
      </trkpt>
      <trkpt lat="47.67599" lon="-3.00481">
        <ele>35.3</ele>
        <time>2020-06-06T14:20:26Z</time>
      </trkpt>
      <trkpt lat="47.67601" lon="-3.00487">
        <ele>35.3</ele>
        <time>2020-06-06T14:20:27Z</time>
      </trkpt>
      <trkpt lat="47.67604" lon="-3.00492">
        <ele>35.3</ele>
        <time>2020-06-06T14:20:28Z</time>
      </trkpt>
      <trkpt lat="47.67606" lon="-3.00497">
        <ele>35.3</ele>
        <time>2020-06-06T14:20:29Z</time>
      </trkpt>
      <trkpt lat="47.67609" lon="-3.00501">
        <ele>35.2</ele>
        <time>2020-06-06T14:20:30Z</time>
      </trkpt>
      <trkpt lat="47.67611" lon="-3.00506">
        <ele>35.2</ele>
        <time>2020-06-06T14:20:31Z</time>
      </trkpt>
      <trkpt lat="47.67614" lon="-3.00511">
        <ele>35.2</ele>
        <time>2020-06-06T14:20:32Z</time>
      </trkpt>
      <trkpt lat="47.67616" lon="-3.00517">
        <ele>35.2</ele>
        <time>2020-06-06T14:20:33Z</time>
      </trkpt>
      <trkpt lat="47.67619" lon="-3.00523">
        <ele>35.2</ele>
        <time>2020-06-06T14:20:34Z</time>
      </trkpt>
      <trkpt lat="47.67622" lon="-3.00528">
        <ele>35.2</ele>
        <time>2020-06-06T14:20:35Z</time>
      </trkpt>
      <trkpt lat="47.67624" lon="-3.00534">
        <ele>35.1</ele>
        <time>2020-06-06T14:20:36Z</time>
      </trkpt>
      <trkpt lat="47.67626" lon="-3.0054">
        <ele>35.1</ele>
        <time>2020-06-06T14:20:37Z</time>
      </trkpt>
      <trkpt lat="47.67629" lon="-3.00545">
        <ele>35.1</ele>
        <time>2020-06-06T14:20:38Z</time>
      </trkpt>
      <trkpt lat="47.67632" lon="-3.0055">
        <ele>35.1</ele>
        <time>2020-06-06T14:20:39Z</time>
      </trkpt>
      <trkpt lat="47.67635" lon="-3.00556">
        <ele>35</ele>
        <time>2020-06-06T14:20:40Z</time>
      </trkpt>
      <trkpt lat="47.67637" lon="-3.00562">
        <ele>35</ele>
        <time>2020-06-06T14:20:41Z</time>
      </trkpt>
      <trkpt lat="47.6764" lon="-3.00568">
        <ele>35</ele>
        <time>2020-06-06T14:20:42Z</time>
      </trkpt>
      <trkpt lat="47.67643" lon="-3.00573">
        <ele>34.9</ele>
        <time>2020-06-06T14:20:43Z</time>
      </trkpt>
      <trkpt lat="47.67646" lon="-3.00579">
        <ele>34.9</ele>
        <time>2020-06-06T14:20:44Z</time>
      </trkpt>
      <trkpt lat="47.67649" lon="-3.00585">
        <ele>34.8</ele>
        <time>2020-06-06T14:20:45Z</time>
      </trkpt>
      <trkpt lat="47.67652" lon="-3.0059">
        <ele>34.7</ele>
        <time>2020-06-06T14:20:46Z</time>
      </trkpt>
      <trkpt lat="47.67655" lon="-3.00595">
        <ele>34.7</ele>
        <time>2020-06-06T14:20:47Z</time>
      </trkpt>
      <trkpt lat="47.67657" lon="-3.006">
        <ele>34.6</ele>
        <time>2020-06-06T14:20:48Z</time>
      </trkpt>
      <trkpt lat="47.67659" lon="-3.00607">
        <ele>34.5</ele>
        <time>2020-06-06T14:20:49Z</time>
      </trkpt>
      <trkpt lat="47.67662" lon="-3.00612">
        <ele>34.3</ele>
        <time>2020-06-06T14:20:50Z</time>
      </trkpt>
      <trkpt lat="47.67664" lon="-3.00618">
        <ele>34.2</ele>
        <time>2020-06-06T14:20:51Z</time>
      </trkpt>
      <trkpt lat="47.67666" lon="-3.00625">
        <ele>34.1</ele>
        <time>2020-06-06T14:20:52Z</time>
      </trkpt>
      <trkpt lat="47.67669" lon="-3.00632">
        <ele>34</ele>
        <time>2020-06-06T14:20:53Z</time>
      </trkpt>
      <trkpt lat="47.67672" lon="-3.0064">
        <ele>33.9</ele>
        <time>2020-06-06T14:20:54Z</time>
      </trkpt>
      <trkpt lat="47.67674" lon="-3.00647">
        <ele>33.8</ele>
        <time>2020-06-06T14:20:55Z</time>
      </trkpt>
      <trkpt lat="47.67677" lon="-3.00654">
        <ele>33.7</ele>
        <time>2020-06-06T14:20:56Z</time>
      </trkpt>
      <trkpt lat="47.6768" lon="-3.00661">
        <ele>33.5</ele>
        <time>2020-06-06T14:20:57Z</time>
      </trkpt>
      <trkpt lat="47.67684" lon="-3.00667">
        <ele>33.3</ele>
        <time>2020-06-06T14:20:58Z</time>
      </trkpt>
      <trkpt lat="47.67687" lon="-3.00674">
        <ele>33.2</ele>
        <time>2020-06-06T14:20:59Z</time>
      </trkpt>
      <trkpt lat="47.6769" lon="-3.00681">
        <ele>33</ele>
        <time>2020-06-06T14:21:00Z</time>
      </trkpt>
      <trkpt lat="47.67694" lon="-3.00689">
        <ele>32.9</ele>
        <time>2020-06-06T14:21:01Z</time>
      </trkpt>
      <trkpt lat="47.67698" lon="-3.00695">
        <ele>32.7</ele>
        <time>2020-06-06T14:21:02Z</time>
      </trkpt>
      <trkpt lat="47.67702" lon="-3.00702">
        <ele>32.7</ele>
        <time>2020-06-06T14:21:03Z</time>
      </trkpt>
      <trkpt lat="47.67705" lon="-3.00708">
        <ele>32.7</ele>
        <time>2020-06-06T14:21:04Z</time>
      </trkpt>
      <trkpt lat="47.67708" lon="-3.00714">
        <ele>32.7</ele>
        <time>2020-06-06T14:21:05Z</time>
      </trkpt>
      <trkpt lat="47.67711" lon="-3.0072">
        <ele>32.8</ele>
        <time>2020-06-06T14:21:06Z</time>
      </trkpt>
      <trkpt lat="47.67715" lon="-3.00726">
        <ele>32.8</ele>
        <time>2020-06-06T14:21:07Z</time>
      </trkpt>
      <trkpt lat="47.67718" lon="-3.00731">
        <ele>32.9</ele>
        <time>2020-06-06T14:21:08Z</time>
      </trkpt>
      <trkpt lat="47.6772" lon="-3.00736">
        <ele>32.9</ele>
        <time>2020-06-06T14:21:09Z</time>
      </trkpt>
      <trkpt lat="47.67724" lon="-3.00742">
        <ele>32.9</ele>
        <time>2020-06-06T14:21:10Z</time>
      </trkpt>
      <trkpt lat="47.67726" lon="-3.00747">
        <ele>33</ele>
        <time>2020-06-06T14:21:11Z</time>
      </trkpt>
      <trkpt lat="47.67729" lon="-3.00752">
        <ele>33</ele>
        <time>2020-06-06T14:21:12Z</time>
      </trkpt>
      <trkpt lat="47.67732" lon="-3.00756">
        <ele>33</ele>
        <time>2020-06-06T14:21:13Z</time>
      </trkpt>
      <trkpt lat="47.67735" lon="-3.00762">
        <ele>33.1</ele>
        <time>2020-06-06T14:21:14Z</time>
      </trkpt>
      <trkpt lat="47.67739" lon="-3.00768">
        <ele>33.1</ele>
        <time>2020-06-06T14:21:15Z</time>
      </trkpt>
      <trkpt lat="47.67743" lon="-3.00775">
        <ele>33.2</ele>
        <time>2020-06-06T14:21:16Z</time>
      </trkpt>
      <trkpt lat="47.67745" lon="-3.00781">
        <ele>33.3</ele>
        <time>2020-06-06T14:21:17Z</time>
      </trkpt>
      <trkpt lat="47.67748" lon="-3.00786">
        <ele>33.4</ele>
        <time>2020-06-06T14:21:18Z</time>
      </trkpt>
      <trkpt lat="47.67751" lon="-3.00792">
        <ele>33.5</ele>
        <time>2020-06-06T14:21:19Z</time>
      </trkpt>
      <trkpt lat="47.67754" lon="-3.00797">
        <ele>33.6</ele>
        <time>2020-06-06T14:21:20Z</time>
      </trkpt>
      <trkpt lat="47.67756" lon="-3.00804">
        <ele>33.7</ele>
        <time>2020-06-06T14:21:21Z</time>
      </trkpt>
      <trkpt lat="47.67759" lon="-3.00809">
        <ele>33.8</ele>
        <time>2020-06-06T14:21:22Z</time>
      </trkpt>
      <trkpt lat="47.67761" lon="-3.00813">
        <ele>33.9</ele>
        <time>2020-06-06T14:21:23Z</time>
      </trkpt>
      <trkpt lat="47.67763" lon="-3.00818">
        <ele>34</ele>
        <time>2020-06-06T14:21:24Z</time>
      </trkpt>
      <trkpt lat="47.67765" lon="-3.00823">
        <ele>34.1</ele>
        <time>2020-06-06T14:21:25Z</time>
      </trkpt>
      <trkpt lat="47.67768" lon="-3.00827">
        <ele>34.3</ele>
        <time>2020-06-06T14:21:26Z</time>
      </trkpt>
      <trkpt lat="47.6777" lon="-3.00832">
        <ele>34.5</ele>
        <time>2020-06-06T14:21:27Z</time>
      </trkpt>
      <trkpt lat="47.67773" lon="-3.00838">
        <ele>34.6</ele>
        <time>2020-06-06T14:21:28Z</time>
      </trkpt>
      <trkpt lat="47.67775" lon="-3.00843">
        <ele>34.8</ele>
        <time>2020-06-06T14:21:29Z</time>
      </trkpt>
      <trkpt lat="47.67778" lon="-3.00848">
        <ele>35</ele>
        <time>2020-06-06T14:21:30Z</time>
      </trkpt>
      <trkpt lat="47.67779" lon="-3.00853">
        <ele>35.2</ele>
        <time>2020-06-06T14:21:31Z</time>
      </trkpt>
      <trkpt lat="47.67782" lon="-3.00858">
        <ele>35.4</ele>
        <time>2020-06-06T14:21:32Z</time>
      </trkpt>
      <trkpt lat="47.67784" lon="-3.00863">
        <ele>35.6</ele>
        <time>2020-06-06T14:21:33Z</time>
      </trkpt>
      <trkpt lat="47.67787" lon="-3.00868">
        <ele>35.8</ele>
        <time>2020-06-06T14:21:34Z</time>
      </trkpt>
      <trkpt lat="47.6779" lon="-3.00873">
        <ele>36.1</ele>
        <time>2020-06-06T14:21:35Z</time>
      </trkpt>
      <trkpt lat="47.67794" lon="-3.00877">
        <ele>36.3</ele>
        <time>2020-06-06T14:21:36Z</time>
      </trkpt>
      <trkpt lat="47.67796" lon="-3.00881">
        <ele>36.5</ele>
        <time>2020-06-06T14:21:37Z</time>
      </trkpt>
      <trkpt lat="47.67799" lon="-3.00885">
        <ele>36.7</ele>
        <time>2020-06-06T14:21:38Z</time>
      </trkpt>
      <trkpt lat="47.67801" lon="-3.00891">
        <ele>37</ele>
        <time>2020-06-06T14:21:39Z</time>
      </trkpt>
      <trkpt lat="47.67804" lon="-3.00895">
        <ele>37.1</ele>
        <time>2020-06-06T14:21:40Z</time>
      </trkpt>
      <trkpt lat="47.67807" lon="-3.00899">
        <ele>37.2</ele>
        <time>2020-06-06T14:21:41Z</time>
      </trkpt>
      <trkpt lat="47.67811" lon="-3.00901">
        <ele>37.4</ele>
        <time>2020-06-06T14:21:42Z</time>
      </trkpt>
      <trkpt lat="47.67814" lon="-3.00904">
        <ele>37.5</ele>
        <time>2020-06-06T14:21:43Z</time>
      </trkpt>
      <trkpt lat="47.67817" lon="-3.00907">
        <ele>37.5</ele>
        <time>2020-06-06T14:21:44Z</time>
      </trkpt>
      <trkpt lat="47.67818" lon="-3.00913">
        <ele>37.6</ele>
        <time>2020-06-06T14:21:45Z</time>
      </trkpt>
      <trkpt lat="47.67818" lon="-3.00916">
        <ele>37.6</ele>
        <time>2020-06-06T14:21:46Z</time>
      </trkpt>
      <trkpt lat="47.6782" lon="-3.00921">
        <ele>37.6</ele>
        <time>2020-06-06T14:21:47Z</time>
      </trkpt>
      <trkpt lat="47.67822" lon="-3.00926">
        <ele>37.7</ele>
        <time>2020-06-06T14:21:48Z</time>
      </trkpt>
      <trkpt lat="47.67824" lon="-3.0093">
        <ele>37.9</ele>
        <time>2020-06-06T14:21:49Z</time>
      </trkpt>
      <trkpt lat="47.67827" lon="-3.00936">
        <ele>38</ele>
        <time>2020-06-06T14:21:50Z</time>
      </trkpt>
      <trkpt lat="47.67829" lon="-3.00941">
        <ele>38.1</ele>
        <time>2020-06-06T14:21:51Z</time>
      </trkpt>
      <trkpt lat="47.67833" lon="-3.00946">
        <ele>38.2</ele>
        <time>2020-06-06T14:21:52Z</time>
      </trkpt>
      <trkpt lat="47.67835" lon="-3.00951">
        <ele>38.3</ele>
        <time>2020-06-06T14:21:53Z</time>
      </trkpt>
      <trkpt lat="47.67839" lon="-3.00956">
        <ele>38.4</ele>
        <time>2020-06-06T14:21:54Z</time>
      </trkpt>
      <trkpt lat="47.67841" lon="-3.00962">
        <ele>38.5</ele>
        <time>2020-06-06T14:21:55Z</time>
      </trkpt>
      <trkpt lat="47.67844" lon="-3.00967">
        <ele>38.7</ele>
        <time>2020-06-06T14:21:56Z</time>
      </trkpt>
      <trkpt lat="47.67847" lon="-3.00972">
        <ele>38.9</ele>
        <time>2020-06-06T14:21:57Z</time>
      </trkpt>
      <trkpt lat="47.67849" lon="-3.00978">
        <ele>39</ele>
        <time>2020-06-06T14:21:58Z</time>
      </trkpt>
      <trkpt lat="47.67853" lon="-3.00983">
        <ele>39.2</ele>
        <time>2020-06-06T14:21:59Z</time>
      </trkpt>
      <trkpt lat="47.67855" lon="-3.00988">
        <ele>39.3</ele>
        <time>2020-06-06T14:22:00Z</time>
      </trkpt>
      <trkpt lat="47.67858" lon="-3.00994">
        <ele>39.5</ele>
        <time>2020-06-06T14:22:01Z</time>
      </trkpt>
      <trkpt lat="47.67861" lon="-3.00999">
        <ele>39.6</ele>
        <time>2020-06-06T14:22:02Z</time>
      </trkpt>
      <trkpt lat="47.67864" lon="-3.01004">
        <ele>39.7</ele>
        <time>2020-06-06T14:22:03Z</time>
      </trkpt>
      <trkpt lat="47.67867" lon="-3.01009">
        <ele>39.9</ele>
        <time>2020-06-06T14:22:04Z</time>
      </trkpt>
      <trkpt lat="47.67868" lon="-3.01014">
        <ele>40</ele>
        <time>2020-06-06T14:22:05Z</time>
      </trkpt>
      <trkpt lat="47.67871" lon="-3.01019">
        <ele>40.1</ele>
        <time>2020-06-06T14:22:06Z</time>
      </trkpt>
      <trkpt lat="47.67872" lon="-3.01024">
        <ele>40.2</ele>
        <time>2020-06-06T14:22:07Z</time>
      </trkpt>
      <trkpt lat="47.67874" lon="-3.01029">
        <ele>40.4</ele>
        <time>2020-06-06T14:22:08Z</time>
      </trkpt>
      <trkpt lat="47.67876" lon="-3.01033">
        <ele>40.5</ele>
        <time>2020-06-06T14:22:09Z</time>
      </trkpt>
      <trkpt lat="47.67877" lon="-3.01038">
        <ele>40.6</ele>
        <time>2020-06-06T14:22:10Z</time>
      </trkpt>
      <trkpt lat="47.67879" lon="-3.01042">
        <ele>40.7</ele>
        <time>2020-06-06T14:22:11Z</time>
      </trkpt>
      <trkpt lat="47.67881" lon="-3.01048">
        <ele>40.9</ele>
        <time>2020-06-06T14:22:12Z</time>
      </trkpt>
      <trkpt lat="47.67884" lon="-3.01053">
        <ele>41</ele>
        <time>2020-06-06T14:22:13Z</time>
      </trkpt>
      <trkpt lat="47.67886" lon="-3.01057">
        <ele>41.2</ele>
        <time>2020-06-06T14:22:14Z</time>
      </trkpt>
      <trkpt lat="47.67889" lon="-3.01062">
        <ele>41.3</ele>
        <time>2020-06-06T14:22:15Z</time>
      </trkpt>
      <trkpt lat="47.67891" lon="-3.01067">
        <ele>41.5</ele>
        <time>2020-06-06T14:22:16Z</time>
      </trkpt>
      <trkpt lat="47.67893" lon="-3.01071">
        <ele>41.6</ele>
        <time>2020-06-06T14:22:17Z</time>
      </trkpt>
      <trkpt lat="47.67895" lon="-3.01076">
        <ele>41.7</ele>
        <time>2020-06-06T14:22:18Z</time>
      </trkpt>
      <trkpt lat="47.67898" lon="-3.01081">
        <ele>41.8</ele>
        <time>2020-06-06T14:22:19Z</time>
      </trkpt>
      <trkpt lat="47.679" lon="-3.01086">
        <ele>42</ele>
        <time>2020-06-06T14:22:20Z</time>
      </trkpt>
      <trkpt lat="47.67902" lon="-3.01091">
        <ele>42.1</ele>
        <time>2020-06-06T14:22:21Z</time>
      </trkpt>
      <trkpt lat="47.67905" lon="-3.01095">
        <ele>42.2</ele>
        <time>2020-06-06T14:22:22Z</time>
      </trkpt>
      <trkpt lat="47.67907" lon="-3.01101">
        <ele>42.3</ele>
        <time>2020-06-06T14:22:23Z</time>
      </trkpt>
      <trkpt lat="47.67909" lon="-3.01106">
        <ele>42.3</ele>
        <time>2020-06-06T14:22:24Z</time>
      </trkpt>
      <trkpt lat="47.67911" lon="-3.01111">
        <ele>42.4</ele>
        <time>2020-06-06T14:22:25Z</time>
      </trkpt>
      <trkpt lat="47.67913" lon="-3.01115">
        <ele>42.5</ele>
        <time>2020-06-06T14:22:26Z</time>
      </trkpt>
      <trkpt lat="47.67916" lon="-3.01121">
        <ele>42.5</ele>
        <time>2020-06-06T14:22:27Z</time>
      </trkpt>
      <trkpt lat="47.67918" lon="-3.01126">
        <ele>42.5</ele>
        <time>2020-06-06T14:22:28Z</time>
      </trkpt>
      <trkpt lat="47.6792" lon="-3.01132">
        <ele>42.6</ele>
        <time>2020-06-06T14:22:29Z</time>
      </trkpt>
      <trkpt lat="47.67923" lon="-3.01137">
        <ele>42.6</ele>
        <time>2020-06-06T14:22:30Z</time>
      </trkpt>
      <trkpt lat="47.67926" lon="-3.01143">
        <ele>42.6</ele>
        <time>2020-06-06T14:22:31Z</time>
      </trkpt>
      <trkpt lat="47.67929" lon="-3.01149">
        <ele>42.6</ele>
        <time>2020-06-06T14:22:32Z</time>
      </trkpt>
      <trkpt lat="47.67931" lon="-3.01154">
        <ele>42.6</ele>
        <time>2020-06-06T14:22:33Z</time>
      </trkpt>
      <trkpt lat="47.67935" lon="-3.0116">
        <ele>42.5</ele>
        <time>2020-06-06T14:22:34Z</time>
      </trkpt>
      <trkpt lat="47.67937" lon="-3.01165">
        <ele>42.5</ele>
        <time>2020-06-06T14:22:35Z</time>
      </trkpt>
      <trkpt lat="47.6794" lon="-3.01171">
        <ele>42.5</ele>
        <time>2020-06-06T14:22:36Z</time>
      </trkpt>
      <trkpt lat="47.67942" lon="-3.01175">
        <ele>42.5</ele>
        <time>2020-06-06T14:22:37Z</time>
      </trkpt>
      <trkpt lat="47.67944" lon="-3.01181">
        <ele>42.4</ele>
        <time>2020-06-06T14:22:38Z</time>
      </trkpt>
      <trkpt lat="47.67948" lon="-3.01188">
        <ele>42.4</ele>
        <time>2020-06-06T14:22:39Z</time>
      </trkpt>
      <trkpt lat="47.6795" lon="-3.01194">
        <ele>42.4</ele>
        <time>2020-06-06T14:22:40Z</time>
      </trkpt>
      <trkpt lat="47.67954" lon="-3.012">
        <ele>42.4</ele>
        <time>2020-06-06T14:22:41Z</time>
      </trkpt>
      <trkpt lat="47.67958" lon="-3.01206">
        <ele>42.4</ele>
        <time>2020-06-06T14:22:42Z</time>
      </trkpt>
      <trkpt lat="47.67962" lon="-3.01213">
        <ele>42.3</ele>
        <time>2020-06-06T14:22:43Z</time>
      </trkpt>
      <trkpt lat="47.67965" lon="-3.0122">
        <ele>42.3</ele>
        <time>2020-06-06T14:22:44Z</time>
      </trkpt>
      <trkpt lat="47.67968" lon="-3.01226">
        <ele>42.3</ele>
        <time>2020-06-06T14:22:45Z</time>
      </trkpt>
      <trkpt lat="47.67971" lon="-3.01232">
        <ele>42.3</ele>
        <time>2020-06-06T14:22:46Z</time>
      </trkpt>
      <trkpt lat="47.67974" lon="-3.01237">
        <ele>42.3</ele>
        <time>2020-06-06T14:22:47Z</time>
      </trkpt>
      <trkpt lat="47.67977" lon="-3.01243">
        <ele>42.2</ele>
        <time>2020-06-06T14:22:48Z</time>
      </trkpt>
      <trkpt lat="47.6798" lon="-3.0125">
        <ele>42.2</ele>
        <time>2020-06-06T14:22:49Z</time>
      </trkpt>
      <trkpt lat="47.67982" lon="-3.01256">
        <ele>42.2</ele>
        <time>2020-06-06T14:22:50Z</time>
      </trkpt>
      <trkpt lat="47.67985" lon="-3.01262">
        <ele>42.2</ele>
        <time>2020-06-06T14:22:51Z</time>
      </trkpt>
      <trkpt lat="47.67988" lon="-3.01269">
        <ele>42.2</ele>
        <time>2020-06-06T14:22:52Z</time>
      </trkpt>
      <trkpt lat="47.67992" lon="-3.01275">
        <ele>42.2</ele>
        <time>2020-06-06T14:22:53Z</time>
      </trkpt>
      <trkpt lat="47.67995" lon="-3.01282">
        <ele>42.2</ele>
        <time>2020-06-06T14:22:54Z</time>
      </trkpt>
      <trkpt lat="47.67998" lon="-3.01288">
        <ele>42.2</ele>
        <time>2020-06-06T14:22:55Z</time>
      </trkpt>
      <trkpt lat="47.68002" lon="-3.01294">
        <ele>42.2</ele>
        <time>2020-06-06T14:22:56Z</time>
      </trkpt>
      <trkpt lat="47.68005" lon="-3.01301">
        <ele>42.2</ele>
        <time>2020-06-06T14:22:57Z</time>
      </trkpt>
      <trkpt lat="47.68008" lon="-3.01309">
        <ele>42.2</ele>
        <time>2020-06-06T14:22:58Z</time>
      </trkpt>
      <trkpt lat="47.68012" lon="-3.01316">
        <ele>42.2</ele>
        <time>2020-06-06T14:22:59Z</time>
      </trkpt>
      <trkpt lat="47.68015" lon="-3.01323">
        <ele>42.2</ele>
        <time>2020-06-06T14:23:00Z</time>
      </trkpt>
      <trkpt lat="47.68019" lon="-3.01329">
        <ele>42.2</ele>
        <time>2020-06-06T14:23:01Z</time>
      </trkpt>
      <trkpt lat="47.68022" lon="-3.01335">
        <ele>42.2</ele>
        <time>2020-06-06T14:23:02Z</time>
      </trkpt>
      <trkpt lat="47.68025" lon="-3.01341">
        <ele>42.3</ele>
        <time>2020-06-06T14:23:03Z</time>
      </trkpt>
      <trkpt lat="47.68028" lon="-3.01346">
        <ele>42.3</ele>
        <time>2020-06-06T14:23:04Z</time>
      </trkpt>
      <trkpt lat="47.68031" lon="-3.01352">
        <ele>42.2</ele>
        <time>2020-06-06T14:23:05Z</time>
      </trkpt>
      <trkpt lat="47.68034" lon="-3.01359">
        <ele>42.2</ele>
        <time>2020-06-06T14:23:06Z</time>
      </trkpt>
      <trkpt lat="47.68037" lon="-3.01365">
        <ele>42.1</ele>
        <time>2020-06-06T14:23:07Z</time>
      </trkpt>
      <trkpt lat="47.68041" lon="-3.0137">
        <ele>42.1</ele>
        <time>2020-06-06T14:23:08Z</time>
      </trkpt>
      <trkpt lat="47.68045" lon="-3.01374">
        <ele>42</ele>
        <time>2020-06-06T14:23:09Z</time>
      </trkpt>
      <trkpt lat="47.68048" lon="-3.0138">
        <ele>41.9</ele>
        <time>2020-06-06T14:23:10Z</time>
      </trkpt>
      <trkpt lat="47.6805" lon="-3.01387">
        <ele>41.8</ele>
        <time>2020-06-06T14:23:11Z</time>
      </trkpt>
      <trkpt lat="47.68053" lon="-3.01395">
        <ele>41.7</ele>
        <time>2020-06-06T14:23:12Z</time>
      </trkpt>
      <trkpt lat="47.68055" lon="-3.01402">
        <ele>41.7</ele>
        <time>2020-06-06T14:23:13Z</time>
      </trkpt>
      <trkpt lat="47.68058" lon="-3.01409">
        <ele>41.6</ele>
        <time>2020-06-06T14:23:14Z</time>
      </trkpt>
      <trkpt lat="47.68061" lon="-3.01417">
        <ele>41.5</ele>
        <time>2020-06-06T14:23:15Z</time>
      </trkpt>
      <trkpt lat="47.68064" lon="-3.01424">
        <ele>41.4</ele>
        <time>2020-06-06T14:23:16Z</time>
      </trkpt>
      <trkpt lat="47.68068" lon="-3.01431">
        <ele>41.3</ele>
        <time>2020-06-06T14:23:17Z</time>
      </trkpt>
      <trkpt lat="47.68071" lon="-3.01438">
        <ele>41.2</ele>
        <time>2020-06-06T14:23:18Z</time>
      </trkpt>
      <trkpt lat="47.68074" lon="-3.01445">
        <ele>41.1</ele>
        <time>2020-06-06T14:23:19Z</time>
      </trkpt>
      <trkpt lat="47.68078" lon="-3.01452">
        <ele>40.9</ele>
        <time>2020-06-06T14:23:20Z</time>
      </trkpt>
      <trkpt lat="47.68081" lon="-3.0146">
        <ele>40.8</ele>
        <time>2020-06-06T14:23:21Z</time>
      </trkpt>
      <trkpt lat="47.68085" lon="-3.01467">
        <ele>40.6</ele>
        <time>2020-06-06T14:23:22Z</time>
      </trkpt>
      <trkpt lat="47.68089" lon="-3.01473">
        <ele>40.5</ele>
        <time>2020-06-06T14:23:23Z</time>
      </trkpt>
      <trkpt lat="47.68093" lon="-3.01481">
        <ele>40.3</ele>
        <time>2020-06-06T14:23:24Z</time>
      </trkpt>
      <trkpt lat="47.68097" lon="-3.01489">
        <ele>40.2</ele>
        <time>2020-06-06T14:23:25Z</time>
      </trkpt>
      <trkpt lat="47.68102" lon="-3.01496">
        <ele>40</ele>
        <time>2020-06-06T14:23:26Z</time>
      </trkpt>
      <trkpt lat="47.68107" lon="-3.01502">
        <ele>39.9</ele>
        <time>2020-06-06T14:23:27Z</time>
      </trkpt>
      <trkpt lat="47.68113" lon="-3.01508">
        <ele>39.7</ele>
        <time>2020-06-06T14:23:28Z</time>
      </trkpt>
      <trkpt lat="47.68118" lon="-3.01514">
        <ele>39.6</ele>
        <time>2020-06-06T14:23:29Z</time>
      </trkpt>
      <trkpt lat="47.68122" lon="-3.01521">
        <ele>39.5</ele>
        <time>2020-06-06T14:23:30Z</time>
      </trkpt>
      <trkpt lat="47.68126" lon="-3.01527">
        <ele>39.4</ele>
        <time>2020-06-06T14:23:31Z</time>
      </trkpt>
      <trkpt lat="47.6813" lon="-3.01535">
        <ele>39.3</ele>
        <time>2020-06-06T14:23:32Z</time>
      </trkpt>
      <trkpt lat="47.68134" lon="-3.01541">
        <ele>39.2</ele>
        <time>2020-06-06T14:23:33Z</time>
      </trkpt>
      <trkpt lat="47.68137" lon="-3.01546">
        <ele>39.1</ele>
        <time>2020-06-06T14:23:34Z</time>
      </trkpt>
      <trkpt lat="47.68141" lon="-3.01552">
        <ele>39.1</ele>
        <time>2020-06-06T14:23:35Z</time>
      </trkpt>
      <trkpt lat="47.68145" lon="-3.01559">
        <ele>39</ele>
        <time>2020-06-06T14:23:36Z</time>
      </trkpt>
      <trkpt lat="47.68149" lon="-3.01565">
        <ele>39</ele>
        <time>2020-06-06T14:23:37Z</time>
      </trkpt>
      <trkpt lat="47.68153" lon="-3.0157">
        <ele>38.9</ele>
        <time>2020-06-06T14:23:38Z</time>
      </trkpt>
      <trkpt lat="47.68156" lon="-3.01575">
        <ele>38.9</ele>
        <time>2020-06-06T14:23:39Z</time>
      </trkpt>
      <trkpt lat="47.6816" lon="-3.0158">
        <ele>38.9</ele>
        <time>2020-06-06T14:23:40Z</time>
      </trkpt>
      <trkpt lat="47.68164" lon="-3.01585">
        <ele>38.9</ele>
        <time>2020-06-06T14:23:41Z</time>
      </trkpt>
      <trkpt lat="47.68169" lon="-3.01589">
        <ele>38.9</ele>
        <time>2020-06-06T14:23:42Z</time>
      </trkpt>
      <trkpt lat="47.68173" lon="-3.01592">
        <ele>38.9</ele>
        <time>2020-06-06T14:23:43Z</time>
      </trkpt>
      <trkpt lat="47.68178" lon="-3.01596">
        <ele>38.8</ele>
        <time>2020-06-06T14:23:44Z</time>
      </trkpt>
      <trkpt lat="47.68181" lon="-3.01601">
        <ele>38.8</ele>
        <time>2020-06-06T14:23:45Z</time>
      </trkpt>
      <trkpt lat="47.68185" lon="-3.01609">
        <ele>38.8</ele>
        <time>2020-06-06T14:23:46Z</time>
      </trkpt>
      <trkpt lat="47.68189" lon="-3.01616">
        <ele>38.8</ele>
        <time>2020-06-06T14:23:47Z</time>
      </trkpt>
      <trkpt lat="47.68193" lon="-3.01621">
        <ele>38.7</ele>
        <time>2020-06-06T14:23:48Z</time>
      </trkpt>
      <trkpt lat="47.68197" lon="-3.01626">
        <ele>38.7</ele>
        <time>2020-06-06T14:23:49Z</time>
      </trkpt>
      <trkpt lat="47.682" lon="-3.01631">
        <ele>38.6</ele>
        <time>2020-06-06T14:23:50Z</time>
      </trkpt>
      <trkpt lat="47.68204" lon="-3.01636">
        <ele>38.6</ele>
        <time>2020-06-06T14:23:51Z</time>
      </trkpt>
      <trkpt lat="47.68207" lon="-3.01642">
        <ele>38.6</ele>
        <time>2020-06-06T14:23:52Z</time>
      </trkpt>
      <trkpt lat="47.6821" lon="-3.01647">
        <ele>38.5</ele>
        <time>2020-06-06T14:23:53Z</time>
      </trkpt>
      <trkpt lat="47.68212" lon="-3.01651">
        <ele>38.5</ele>
        <time>2020-06-06T14:23:54Z</time>
      </trkpt>
      <trkpt lat="47.68215" lon="-3.01657">
        <ele>38.5</ele>
        <time>2020-06-06T14:23:55Z</time>
      </trkpt>
      <trkpt lat="47.68219" lon="-3.01662">
        <ele>38.5</ele>
        <time>2020-06-06T14:23:56Z</time>
      </trkpt>
      <trkpt lat="47.68223" lon="-3.01665">
        <ele>38.4</ele>
        <time>2020-06-06T14:23:57Z</time>
      </trkpt>
      <trkpt lat="47.68226" lon="-3.01669">
        <ele>38.4</ele>
        <time>2020-06-06T14:23:58Z</time>
      </trkpt>
      <trkpt lat="47.6823" lon="-3.01674">
        <ele>38.3</ele>
        <time>2020-06-06T14:23:59Z</time>
      </trkpt>
      <trkpt lat="47.68233" lon="-3.01678">
        <ele>38.3</ele>
        <time>2020-06-06T14:24:00Z</time>
      </trkpt>
      <trkpt lat="47.68238" lon="-3.0168">
        <ele>38.2</ele>
        <time>2020-06-06T14:24:01Z</time>
      </trkpt>
      <trkpt lat="47.68242" lon="-3.01684">
        <ele>38.1</ele>
        <time>2020-06-06T14:24:02Z</time>
      </trkpt>
      <trkpt lat="47.68246" lon="-3.0169">
        <ele>38</ele>
        <time>2020-06-06T14:24:03Z</time>
      </trkpt>
      <trkpt lat="47.6825" lon="-3.01695">
        <ele>38</ele>
        <time>2020-06-06T14:24:04Z</time>
      </trkpt>
      <trkpt lat="47.68253" lon="-3.017">
        <ele>37.9</ele>
        <time>2020-06-06T14:24:05Z</time>
      </trkpt>
      <trkpt lat="47.68257" lon="-3.01705">
        <ele>37.8</ele>
        <time>2020-06-06T14:24:06Z</time>
      </trkpt>
      <trkpt lat="47.6826" lon="-3.0171">
        <ele>37.7</ele>
        <time>2020-06-06T14:24:07Z</time>
      </trkpt>
      <trkpt lat="47.68264" lon="-3.01716">
        <ele>37.7</ele>
        <time>2020-06-06T14:24:08Z</time>
      </trkpt>
      <trkpt lat="47.68267" lon="-3.01722">
        <ele>37.6</ele>
        <time>2020-06-06T14:24:09Z</time>
      </trkpt>
      <trkpt lat="47.6827" lon="-3.01728">
        <ele>37.5</ele>
        <time>2020-06-06T14:24:10Z</time>
      </trkpt>
      <trkpt lat="47.68274" lon="-3.01733">
        <ele>37.4</ele>
        <time>2020-06-06T14:24:11Z</time>
      </trkpt>
      <trkpt lat="47.68277" lon="-3.01739">
        <ele>37.4</ele>
        <time>2020-06-06T14:24:12Z</time>
      </trkpt>
      <trkpt lat="47.68281" lon="-3.01746">
        <ele>37.3</ele>
        <time>2020-06-06T14:24:13Z</time>
      </trkpt>
      <trkpt lat="47.68285" lon="-3.01752">
        <ele>37.2</ele>
        <time>2020-06-06T14:24:14Z</time>
      </trkpt>
      <trkpt lat="47.68289" lon="-3.01756">
        <ele>37.1</ele>
        <time>2020-06-06T14:24:15Z</time>
      </trkpt>
      <trkpt lat="47.68294" lon="-3.0176">
        <ele>37.1</ele>
        <time>2020-06-06T14:24:16Z</time>
      </trkpt>
      <trkpt lat="47.68298" lon="-3.01764">
        <ele>37</ele>
        <time>2020-06-06T14:24:17Z</time>
      </trkpt>
      <trkpt lat="47.68301" lon="-3.0177">
        <ele>36.9</ele>
        <time>2020-06-06T14:24:18Z</time>
      </trkpt>
      <trkpt lat="47.68304" lon="-3.01776">
        <ele>36.9</ele>
        <time>2020-06-06T14:24:19Z</time>
      </trkpt>
      <trkpt lat="47.68308" lon="-3.0178">
        <ele>36.8</ele>
        <time>2020-06-06T14:24:20Z</time>
      </trkpt>
      <trkpt lat="47.68312" lon="-3.01784">
        <ele>36.8</ele>
        <time>2020-06-06T14:24:21Z</time>
      </trkpt>
      <trkpt lat="47.68315" lon="-3.01787">
        <ele>36.7</ele>
        <time>2020-06-06T14:24:22Z</time>
      </trkpt>
      <trkpt lat="47.68319" lon="-3.01789">
        <ele>36.7</ele>
        <time>2020-06-06T14:24:23Z</time>
      </trkpt>
      <trkpt lat="47.68322" lon="-3.01789">
        <ele>36.6</ele>
        <time>2020-06-06T14:24:24Z</time>
      </trkpt>
      <trkpt lat="47.68326" lon="-3.01788">
        <ele>36.6</ele>
        <time>2020-06-06T14:24:25Z</time>
      </trkpt>
      <trkpt lat="47.68331" lon="-3.01787">
        <ele>36.6</ele>
        <time>2020-06-06T14:24:26Z</time>
      </trkpt>
      <trkpt lat="47.68336" lon="-3.01787">
        <ele>36.6</ele>
        <time>2020-06-06T14:24:27Z</time>
      </trkpt>
      <trkpt lat="47.6834" lon="-3.01787">
        <ele>36.6</ele>
        <time>2020-06-06T14:24:28Z</time>
      </trkpt>
      <trkpt lat="47.68345" lon="-3.01786">
        <ele>36.6</ele>
        <time>2020-06-06T14:24:29Z</time>
      </trkpt>
      <trkpt lat="47.68349" lon="-3.01786">
        <ele>36.6</ele>
        <time>2020-06-06T14:24:30Z</time>
      </trkpt>
      <trkpt lat="47.68352" lon="-3.01788">
        <ele>36.6</ele>
        <time>2020-06-06T14:24:31Z</time>
      </trkpt>
      <trkpt lat="47.68355" lon="-3.01792">
        <ele>36.6</ele>
        <time>2020-06-06T14:24:32Z</time>
      </trkpt>
      <trkpt lat="47.68358" lon="-3.01797">
        <ele>36.6</ele>
        <time>2020-06-06T14:24:33Z</time>
      </trkpt>
      <trkpt lat="47.6836" lon="-3.01801">
        <ele>36.6</ele>
        <time>2020-06-06T14:24:34Z</time>
      </trkpt>
      <trkpt lat="47.68362" lon="-3.01805">
        <ele>36.6</ele>
        <time>2020-06-06T14:24:35Z</time>
      </trkpt>
      <trkpt lat="47.68364" lon="-3.01809">
        <ele>36.7</ele>
        <time>2020-06-06T14:24:36Z</time>
      </trkpt>
      <trkpt lat="47.68367" lon="-3.01815">
        <ele>36.7</ele>
        <time>2020-06-06T14:24:37Z</time>
      </trkpt>
      <trkpt lat="47.68368" lon="-3.01819">
        <ele>36.7</ele>
        <time>2020-06-06T14:24:38Z</time>
      </trkpt>
      <trkpt lat="47.68368" lon="-3.01825">
        <ele>36.7</ele>
        <time>2020-06-06T14:24:39Z</time>
      </trkpt>
      <trkpt lat="47.68368" lon="-3.01831">
        <ele>36.9</ele>
        <time>2020-06-06T14:24:40Z</time>
      </trkpt>
      <trkpt lat="47.68369" lon="-3.01838">
        <ele>36.9</ele>
        <time>2020-06-06T14:24:41Z</time>
      </trkpt>
      <trkpt lat="47.6837" lon="-3.01845">
        <ele>36.9</ele>
        <time>2020-06-06T14:24:42Z</time>
      </trkpt>
      <trkpt lat="47.6837" lon="-3.01851">
        <ele>36.9</ele>
        <time>2020-06-06T14:24:43Z</time>
      </trkpt>
      <trkpt lat="47.68371" lon="-3.01856">
        <ele>37</ele>
        <time>2020-06-06T14:24:44Z</time>
      </trkpt>
      <trkpt lat="47.68372" lon="-3.01862">
        <ele>37</ele>
        <time>2020-06-06T14:24:45Z</time>
      </trkpt>
      <trkpt lat="47.68375" lon="-3.01866">
        <ele>37</ele>
        <time>2020-06-06T14:24:46Z</time>
      </trkpt>
      <trkpt lat="47.68377" lon="-3.0187">
        <ele>37</ele>
        <time>2020-06-06T14:24:47Z</time>
      </trkpt>
      <trkpt lat="47.6838" lon="-3.01875">
        <ele>37.1</ele>
        <time>2020-06-06T14:24:48Z</time>
      </trkpt>
      <trkpt lat="47.68382" lon="-3.0188">
        <ele>37.1</ele>
        <time>2020-06-06T14:24:49Z</time>
      </trkpt>
      <trkpt lat="47.68385" lon="-3.01885">
        <ele>37.2</ele>
        <time>2020-06-06T14:24:50Z</time>
      </trkpt>
      <trkpt lat="47.68388" lon="-3.01889">
        <ele>37.2</ele>
        <time>2020-06-06T14:24:51Z</time>
      </trkpt>
      <trkpt lat="47.68391" lon="-3.01893">
        <ele>37.2</ele>
        <time>2020-06-06T14:24:52Z</time>
      </trkpt>
      <trkpt lat="47.68395" lon="-3.01895">
        <ele>37.3</ele>
        <time>2020-06-06T14:24:53Z</time>
      </trkpt>
      <trkpt lat="47.68399" lon="-3.01899">
        <ele>37.3</ele>
        <time>2020-06-06T14:24:54Z</time>
      </trkpt>
      <trkpt lat="47.68403" lon="-3.01902">
        <ele>37.3</ele>
        <time>2020-06-06T14:24:55Z</time>
      </trkpt>
      <trkpt lat="47.68406" lon="-3.01907">
        <ele>37.6</ele>
        <time>2020-06-06T14:24:56Z</time>
      </trkpt>
      <trkpt lat="47.6841" lon="-3.01912">
        <ele>37.7</ele>
        <time>2020-06-06T14:24:57Z</time>
      </trkpt>
      <trkpt lat="47.68413" lon="-3.01917">
        <ele>37.8</ele>
        <time>2020-06-06T14:24:58Z</time>
      </trkpt>
      <trkpt lat="47.68417" lon="-3.01922">
        <ele>37.9</ele>
        <time>2020-06-06T14:24:59Z</time>
      </trkpt>
      <trkpt lat="47.68421" lon="-3.01927">
        <ele>37.9</ele>
        <time>2020-06-06T14:25:00Z</time>
      </trkpt>
      <trkpt lat="47.68425" lon="-3.01931">
        <ele>37.9</ele>
        <time>2020-06-06T14:25:01Z</time>
      </trkpt>
      <trkpt lat="47.68429" lon="-3.01936">
        <ele>38</ele>
        <time>2020-06-06T14:25:02Z</time>
      </trkpt>
      <trkpt lat="47.68432" lon="-3.01941">
        <ele>38.1</ele>
        <time>2020-06-06T14:25:03Z</time>
      </trkpt>
      <trkpt lat="47.68437" lon="-3.01945">
        <ele>38.2</ele>
        <time>2020-06-06T14:25:04Z</time>
      </trkpt>
      <trkpt lat="47.68441" lon="-3.01951">
        <ele>38.3</ele>
        <time>2020-06-06T14:25:05Z</time>
      </trkpt>
      <trkpt lat="47.68444" lon="-3.01956">
        <ele>38.4</ele>
        <time>2020-06-06T14:25:06Z</time>
      </trkpt>
      <trkpt lat="47.68447" lon="-3.0196">
        <ele>38.4</ele>
        <time>2020-06-06T14:25:07Z</time>
      </trkpt>
      <trkpt lat="47.6845" lon="-3.01965">
        <ele>38.5</ele>
        <time>2020-06-06T14:25:08Z</time>
      </trkpt>
      <trkpt lat="47.68454" lon="-3.01971">
        <ele>38.6</ele>
        <time>2020-06-06T14:25:09Z</time>
      </trkpt>
      <trkpt lat="47.68458" lon="-3.01976">
        <ele>38.7</ele>
        <time>2020-06-06T14:25:10Z</time>
      </trkpt>
      <trkpt lat="47.68462" lon="-3.01981">
        <ele>38.8</ele>
        <time>2020-06-06T14:25:11Z</time>
      </trkpt>
      <trkpt lat="47.68465" lon="-3.01986">
        <ele>38.9</ele>
        <time>2020-06-06T14:25:12Z</time>
      </trkpt>
      <trkpt lat="47.68469" lon="-3.01992">
        <ele>39.1</ele>
        <time>2020-06-06T14:25:13Z</time>
      </trkpt>
      <trkpt lat="47.68472" lon="-3.01997">
        <ele>39.2</ele>
        <time>2020-06-06T14:25:14Z</time>
      </trkpt>
      <trkpt lat="47.68476" lon="-3.02002">
        <ele>39.3</ele>
        <time>2020-06-06T14:25:15Z</time>
      </trkpt>
      <trkpt lat="47.68479" lon="-3.02007">
        <ele>39.4</ele>
        <time>2020-06-06T14:25:16Z</time>
      </trkpt>
      <trkpt lat="47.68483" lon="-3.02012">
        <ele>39.6</ele>
        <time>2020-06-06T14:25:17Z</time>
      </trkpt>
      <trkpt lat="47.68487" lon="-3.02017">
        <ele>39.6</ele>
        <time>2020-06-06T14:25:18Z</time>
      </trkpt>
      <trkpt lat="47.6849" lon="-3.02022">
        <ele>39.7</ele>
        <time>2020-06-06T14:25:19Z</time>
      </trkpt>
      <trkpt lat="47.68494" lon="-3.02028">
        <ele>39.8</ele>
        <time>2020-06-06T14:25:20Z</time>
      </trkpt>
      <trkpt lat="47.68497" lon="-3.02034">
        <ele>39.9</ele>
        <time>2020-06-06T14:25:21Z</time>
      </trkpt>
      <trkpt lat="47.685" lon="-3.02039">
        <ele>39.9</ele>
        <time>2020-06-06T14:25:22Z</time>
      </trkpt>
      <trkpt lat="47.68504" lon="-3.02045">
        <ele>40</ele>
        <time>2020-06-06T14:25:23Z</time>
      </trkpt>
      <trkpt lat="47.68507" lon="-3.0205">
        <ele>40</ele>
        <time>2020-06-06T14:25:24Z</time>
      </trkpt>
      <trkpt lat="47.68511" lon="-3.02055">
        <ele>40</ele>
        <time>2020-06-06T14:25:25Z</time>
      </trkpt>
      <trkpt lat="47.68515" lon="-3.0206">
        <ele>40.1</ele>
        <time>2020-06-06T14:25:26Z</time>
      </trkpt>
      <trkpt lat="47.68518" lon="-3.02065">
        <ele>40</ele>
        <time>2020-06-06T14:25:27Z</time>
      </trkpt>
      <trkpt lat="47.68522" lon="-3.0207">
        <ele>40.1</ele>
        <time>2020-06-06T14:25:28Z</time>
      </trkpt>
      <trkpt lat="47.68525" lon="-3.02075">
        <ele>40.1</ele>
        <time>2020-06-06T14:25:29Z</time>
      </trkpt>
      <trkpt lat="47.68529" lon="-3.0208">
        <ele>40.2</ele>
        <time>2020-06-06T14:25:30Z</time>
      </trkpt>
      <trkpt lat="47.68533" lon="-3.02084">
        <ele>40.2</ele>
        <time>2020-06-06T14:25:31Z</time>
      </trkpt>
      <trkpt lat="47.68536" lon="-3.02089">
        <ele>40.2</ele>
        <time>2020-06-06T14:25:32Z</time>
      </trkpt>
      <trkpt lat="47.6854" lon="-3.02094">
        <ele>40.2</ele>
        <time>2020-06-06T14:25:33Z</time>
      </trkpt>
      <trkpt lat="47.68543" lon="-3.021">
        <ele>40.2</ele>
        <time>2020-06-06T14:25:34Z</time>
      </trkpt>
      <trkpt lat="47.68546" lon="-3.02105">
        <ele>40.2</ele>
        <time>2020-06-06T14:25:35Z</time>
      </trkpt>
      <trkpt lat="47.6855" lon="-3.02111">
        <ele>40.3</ele>
        <time>2020-06-06T14:25:36Z</time>
      </trkpt>
      <trkpt lat="47.68554" lon="-3.02116">
        <ele>40.3</ele>
        <time>2020-06-06T14:25:37Z</time>
      </trkpt>
      <trkpt lat="47.68559" lon="-3.02121">
        <ele>40.4</ele>
        <time>2020-06-06T14:25:38Z</time>
      </trkpt>
      <trkpt lat="47.68563" lon="-3.02127">
        <ele>40.4</ele>
        <time>2020-06-06T14:25:39Z</time>
      </trkpt>
      <trkpt lat="47.68567" lon="-3.02132">
        <ele>40.4</ele>
        <time>2020-06-06T14:25:40Z</time>
      </trkpt>
      <trkpt lat="47.6857" lon="-3.02139">
        <ele>40.4</ele>
        <time>2020-06-06T14:25:41Z</time>
      </trkpt>
      <trkpt lat="47.68573" lon="-3.02145">
        <ele>40.5</ele>
        <time>2020-06-06T14:25:42Z</time>
      </trkpt>
      <trkpt lat="47.68578" lon="-3.0215">
        <ele>40.5</ele>
        <time>2020-06-06T14:25:43Z</time>
      </trkpt>
      <trkpt lat="47.68581" lon="-3.02155">
        <ele>40.5</ele>
        <time>2020-06-06T14:25:44Z</time>
      </trkpt>
      <trkpt lat="47.68585" lon="-3.0216">
        <ele>40.5</ele>
        <time>2020-06-06T14:25:45Z</time>
      </trkpt>
      <trkpt lat="47.6859" lon="-3.02164">
        <ele>40.5</ele>
        <time>2020-06-06T14:25:46Z</time>
      </trkpt>
      <trkpt lat="47.68594" lon="-3.02169">
        <ele>40.5</ele>
        <time>2020-06-06T14:25:47Z</time>
      </trkpt>
      <trkpt lat="47.68598" lon="-3.02174">
        <ele>40.5</ele>
        <time>2020-06-06T14:25:48Z</time>
      </trkpt>
      <trkpt lat="47.68603" lon="-3.0218">
        <ele>40.6</ele>
        <time>2020-06-06T14:25:49Z</time>
      </trkpt>
      <trkpt lat="47.68608" lon="-3.02186">
        <ele>40.6</ele>
        <time>2020-06-06T14:25:50Z</time>
      </trkpt>
      <trkpt lat="47.68611" lon="-3.0219">
        <ele>40.6</ele>
        <time>2020-06-06T14:25:51Z</time>
      </trkpt>
      <trkpt lat="47.68615" lon="-3.02194">
        <ele>40.7</ele>
        <time>2020-06-06T14:25:52Z</time>
      </trkpt>
      <trkpt lat="47.68618" lon="-3.022">
        <ele>40.7</ele>
        <time>2020-06-06T14:25:53Z</time>
      </trkpt>
      <trkpt lat="47.68622" lon="-3.02206">
        <ele>40.7</ele>
        <time>2020-06-06T14:25:54Z</time>
      </trkpt>
      <trkpt lat="47.68627" lon="-3.02212">
        <ele>40.8</ele>
        <time>2020-06-06T14:25:55Z</time>
      </trkpt>
      <trkpt lat="47.68631" lon="-3.02217">
        <ele>40.8</ele>
        <time>2020-06-06T14:25:56Z</time>
      </trkpt>
      <trkpt lat="47.68636" lon="-3.02223">
        <ele>40.8</ele>
        <time>2020-06-06T14:25:57Z</time>
      </trkpt>
      <trkpt lat="47.6864" lon="-3.02228">
        <ele>40.9</ele>
        <time>2020-06-06T14:25:58Z</time>
      </trkpt>
      <trkpt lat="47.68644" lon="-3.02233">
        <ele>40.9</ele>
        <time>2020-06-06T14:25:59Z</time>
      </trkpt>
      <trkpt lat="47.68648" lon="-3.02239">
        <ele>40.9</ele>
        <time>2020-06-06T14:26:00Z</time>
      </trkpt>
      <trkpt lat="47.68652" lon="-3.02244">
        <ele>41</ele>
        <time>2020-06-06T14:26:01Z</time>
      </trkpt>
      <trkpt lat="47.68655" lon="-3.02249">
        <ele>41</ele>
        <time>2020-06-06T14:26:02Z</time>
      </trkpt>
      <trkpt lat="47.68659" lon="-3.02254">
        <ele>41.1</ele>
        <time>2020-06-06T14:26:03Z</time>
      </trkpt>
      <trkpt lat="47.68663" lon="-3.02261">
        <ele>41.2</ele>
        <time>2020-06-06T14:26:04Z</time>
      </trkpt>
      <trkpt lat="47.68667" lon="-3.02266">
        <ele>41.2</ele>
        <time>2020-06-06T14:26:05Z</time>
      </trkpt>
      <trkpt lat="47.6867" lon="-3.02271">
        <ele>41.3</ele>
        <time>2020-06-06T14:26:06Z</time>
      </trkpt>
      <trkpt lat="47.68675" lon="-3.02277">
        <ele>41.3</ele>
        <time>2020-06-06T14:26:07Z</time>
      </trkpt>
      <trkpt lat="47.68679" lon="-3.02282">
        <ele>41.4</ele>
        <time>2020-06-06T14:26:08Z</time>
      </trkpt>
      <trkpt lat="47.68683" lon="-3.02288">
        <ele>41.4</ele>
        <time>2020-06-06T14:26:09Z</time>
      </trkpt>
      <trkpt lat="47.68687" lon="-3.02293">
        <ele>41.4</ele>
        <time>2020-06-06T14:26:10Z</time>
      </trkpt>
      <trkpt lat="47.68691" lon="-3.02297">
        <ele>41.4</ele>
        <time>2020-06-06T14:26:11Z</time>
      </trkpt>
      <trkpt lat="47.68696" lon="-3.02303">
        <ele>41.4</ele>
        <time>2020-06-06T14:26:12Z</time>
      </trkpt>
      <trkpt lat="47.68701" lon="-3.02307">
        <ele>41.3</ele>
        <time>2020-06-06T14:26:13Z</time>
      </trkpt>
      <trkpt lat="47.68705" lon="-3.02312">
        <ele>41.2</ele>
        <time>2020-06-06T14:26:14Z</time>
      </trkpt>
      <trkpt lat="47.68709" lon="-3.02318">
        <ele>41.2</ele>
        <time>2020-06-06T14:26:15Z</time>
      </trkpt>
      <trkpt lat="47.68712" lon="-3.02325">
        <ele>41.1</ele>
        <time>2020-06-06T14:26:16Z</time>
      </trkpt>
      <trkpt lat="47.68716" lon="-3.02331">
        <ele>41</ele>
        <time>2020-06-06T14:26:17Z</time>
      </trkpt>
      <trkpt lat="47.6872" lon="-3.02337">
        <ele>40.9</ele>
        <time>2020-06-06T14:26:18Z</time>
      </trkpt>
      <trkpt lat="47.68725" lon="-3.02344">
        <ele>40.8</ele>
        <time>2020-06-06T14:26:19Z</time>
      </trkpt>
      <trkpt lat="47.6873" lon="-3.02352">
        <ele>40.7</ele>
        <time>2020-06-06T14:26:20Z</time>
      </trkpt>
      <trkpt lat="47.68735" lon="-3.0236">
        <ele>40.5</ele>
        <time>2020-06-06T14:26:21Z</time>
      </trkpt>
      <trkpt lat="47.6874" lon="-3.02367">
        <ele>40.4</ele>
        <time>2020-06-06T14:26:22Z</time>
      </trkpt>
      <trkpt lat="47.68745" lon="-3.02374">
        <ele>40.3</ele>
        <time>2020-06-06T14:26:23Z</time>
      </trkpt>
      <trkpt lat="47.68749" lon="-3.02382">
        <ele>40.2</ele>
        <time>2020-06-06T14:26:24Z</time>
      </trkpt>
      <trkpt lat="47.68753" lon="-3.02389">
        <ele>40.2</ele>
        <time>2020-06-06T14:26:25Z</time>
      </trkpt>
      <trkpt lat="47.68757" lon="-3.02395">
        <ele>40.2</ele>
        <time>2020-06-06T14:26:26Z</time>
      </trkpt>
      <trkpt lat="47.68761" lon="-3.02402">
        <ele>40.1</ele>
        <time>2020-06-06T14:26:27Z</time>
      </trkpt>
      <trkpt lat="47.68766" lon="-3.02409">
        <ele>40.1</ele>
        <time>2020-06-06T14:26:28Z</time>
      </trkpt>
      <trkpt lat="47.68771" lon="-3.02415">
        <ele>40</ele>
        <time>2020-06-06T14:26:29Z</time>
      </trkpt>
      <trkpt lat="47.68775" lon="-3.02421">
        <ele>40</ele>
        <time>2020-06-06T14:26:30Z</time>
      </trkpt>
      <trkpt lat="47.68779" lon="-3.02426">
        <ele>39.9</ele>
        <time>2020-06-06T14:26:31Z</time>
      </trkpt>
      <trkpt lat="47.68783" lon="-3.02432">
        <ele>39.9</ele>
        <time>2020-06-06T14:26:32Z</time>
      </trkpt>
      <trkpt lat="47.68788" lon="-3.0244">
        <ele>39.9</ele>
        <time>2020-06-06T14:26:33Z</time>
      </trkpt>
      <trkpt lat="47.68793" lon="-3.02446">
        <ele>39.8</ele>
        <time>2020-06-06T14:26:34Z</time>
      </trkpt>
      <trkpt lat="47.68798" lon="-3.02452">
        <ele>39.8</ele>
        <time>2020-06-06T14:26:35Z</time>
      </trkpt>
      <trkpt lat="47.68802" lon="-3.02457">
        <ele>39.7</ele>
        <time>2020-06-06T14:26:36Z</time>
      </trkpt>
      <trkpt lat="47.68807" lon="-3.02464">
        <ele>39.7</ele>
        <time>2020-06-06T14:26:37Z</time>
      </trkpt>
      <trkpt lat="47.68814" lon="-3.0247">
        <ele>39.6</ele>
        <time>2020-06-06T14:26:38Z</time>
      </trkpt>
      <trkpt lat="47.68818" lon="-3.02476">
        <ele>39.6</ele>
        <time>2020-06-06T14:26:39Z</time>
      </trkpt>
      <trkpt lat="47.68823" lon="-3.02482">
        <ele>39.6</ele>
        <time>2020-06-06T14:26:40Z</time>
      </trkpt>
      <trkpt lat="47.68829" lon="-3.02489">
        <ele>39.6</ele>
        <time>2020-06-06T14:26:41Z</time>
      </trkpt>
      <trkpt lat="47.68835" lon="-3.02495">
        <ele>39.5</ele>
        <time>2020-06-06T14:26:42Z</time>
      </trkpt>
      <trkpt lat="47.6884" lon="-3.02501">
        <ele>39.5</ele>
        <time>2020-06-06T14:26:43Z</time>
      </trkpt>
      <trkpt lat="47.68845" lon="-3.02509">
        <ele>39.4</ele>
        <time>2020-06-06T14:26:44Z</time>
      </trkpt>
      <trkpt lat="47.6885" lon="-3.02517">
        <ele>39.4</ele>
        <time>2020-06-06T14:26:45Z</time>
      </trkpt>
      <trkpt lat="47.68856" lon="-3.02524">
        <ele>39.4</ele>
        <time>2020-06-06T14:26:46Z</time>
      </trkpt>
      <trkpt lat="47.68861" lon="-3.0253">
        <ele>39.4</ele>
        <time>2020-06-06T14:26:47Z</time>
      </trkpt>
      <trkpt lat="47.68868" lon="-3.02538">
        <ele>39.4</ele>
        <time>2020-06-06T14:26:48Z</time>
      </trkpt>
      <trkpt lat="47.68873" lon="-3.02543">
        <ele>39.4</ele>
        <time>2020-06-06T14:26:49Z</time>
      </trkpt>
      <trkpt lat="47.68876" lon="-3.0255">
        <ele>39.4</ele>
        <time>2020-06-06T14:26:50Z</time>
      </trkpt>
      <trkpt lat="47.6888" lon="-3.02556">
        <ele>39.5</ele>
        <time>2020-06-06T14:26:51Z</time>
      </trkpt>
      <trkpt lat="47.68885" lon="-3.02562">
        <ele>39.6</ele>
        <time>2020-06-06T14:26:52Z</time>
      </trkpt>
      <trkpt lat="47.6889" lon="-3.02569">
        <ele>39.7</ele>
        <time>2020-06-06T14:26:53Z</time>
      </trkpt>
      <trkpt lat="47.68895" lon="-3.02576">
        <ele>39.8</ele>
        <time>2020-06-06T14:26:54Z</time>
      </trkpt>
      <trkpt lat="47.68899" lon="-3.02582">
        <ele>39.9</ele>
        <time>2020-06-06T14:26:55Z</time>
      </trkpt>
      <trkpt lat="47.68903" lon="-3.02589">
        <ele>40</ele>
        <time>2020-06-06T14:26:56Z</time>
      </trkpt>
      <trkpt lat="47.68907" lon="-3.02594">
        <ele>40.1</ele>
        <time>2020-06-06T14:26:57Z</time>
      </trkpt>
      <trkpt lat="47.68911" lon="-3.026">
        <ele>40.2</ele>
        <time>2020-06-06T14:26:58Z</time>
      </trkpt>
      <trkpt lat="47.68914" lon="-3.02606">
        <ele>40.4</ele>
        <time>2020-06-06T14:26:59Z</time>
      </trkpt>
      <trkpt lat="47.68918" lon="-3.02611">
        <ele>40.5</ele>
        <time>2020-06-06T14:27:00Z</time>
      </trkpt>
      <trkpt lat="47.68922" lon="-3.02617">
        <ele>40.7</ele>
        <time>2020-06-06T14:27:01Z</time>
      </trkpt>
      <trkpt lat="47.68926" lon="-3.02623">
        <ele>40.8</ele>
        <time>2020-06-06T14:27:02Z</time>
      </trkpt>
      <trkpt lat="47.6893" lon="-3.02628">
        <ele>40.9</ele>
        <time>2020-06-06T14:27:03Z</time>
      </trkpt>
      <trkpt lat="47.68934" lon="-3.02633">
        <ele>40.9</ele>
        <time>2020-06-06T14:27:04Z</time>
      </trkpt>
      <trkpt lat="47.68937" lon="-3.02639">
        <ele>40.9</ele>
        <time>2020-06-06T14:27:05Z</time>
      </trkpt>
      <trkpt lat="47.68942" lon="-3.02645">
        <ele>41</ele>
        <time>2020-06-06T14:27:06Z</time>
      </trkpt>
      <trkpt lat="47.68946" lon="-3.02649">
        <ele>41.1</ele>
        <time>2020-06-06T14:27:07Z</time>
      </trkpt>
      <trkpt lat="47.6895" lon="-3.02654">
        <ele>41.1</ele>
        <time>2020-06-06T14:27:08Z</time>
      </trkpt>
      <trkpt lat="47.68954" lon="-3.02659">
        <ele>41.2</ele>
        <time>2020-06-06T14:27:09Z</time>
      </trkpt>
      <trkpt lat="47.68957" lon="-3.02664">
        <ele>41.3</ele>
        <time>2020-06-06T14:27:10Z</time>
      </trkpt>
      <trkpt lat="47.6896" lon="-3.0267">
        <ele>41.4</ele>
        <time>2020-06-06T14:27:11Z</time>
      </trkpt>
      <trkpt lat="47.68964" lon="-3.02675">
        <ele>41.5</ele>
        <time>2020-06-06T14:27:12Z</time>
      </trkpt>
      <trkpt lat="47.68968" lon="-3.02681">
        <ele>41.5</ele>
        <time>2020-06-06T14:27:13Z</time>
      </trkpt>
      <trkpt lat="47.68971" lon="-3.02684">
        <ele>41.6</ele>
        <time>2020-06-06T14:27:14Z</time>
      </trkpt>
      <trkpt lat="47.68978" lon="-3.02691">
        <ele>41.7</ele>
        <time>2020-06-06T14:27:15Z</time>
      </trkpt>
      <trkpt lat="47.68981" lon="-3.02696">
        <ele>41.7</ele>
        <time>2020-06-06T14:27:16Z</time>
      </trkpt>
      <trkpt lat="47.68985" lon="-3.02701">
        <ele>41.8</ele>
        <time>2020-06-06T14:27:17Z</time>
      </trkpt>
      <trkpt lat="47.68989" lon="-3.02707">
        <ele>41.8</ele>
        <time>2020-06-06T14:27:18Z</time>
      </trkpt>
      <trkpt lat="47.68993" lon="-3.02712">
        <ele>41.9</ele>
        <time>2020-06-06T14:27:19Z</time>
      </trkpt>
      <trkpt lat="47.68996" lon="-3.02717">
        <ele>42</ele>
        <time>2020-06-06T14:27:20Z</time>
      </trkpt>
      <trkpt lat="47.68999" lon="-3.02721">
        <ele>42</ele>
        <time>2020-06-06T14:27:21Z</time>
      </trkpt>
      <trkpt lat="47.69002" lon="-3.02725">
        <ele>42.1</ele>
        <time>2020-06-06T14:27:22Z</time>
      </trkpt>
      <trkpt lat="47.69006" lon="-3.02731">
        <ele>42.1</ele>
        <time>2020-06-06T14:27:23Z</time>
      </trkpt>
      <trkpt lat="47.69009" lon="-3.02735">
        <ele>42.2</ele>
        <time>2020-06-06T14:27:24Z</time>
      </trkpt>
      <trkpt lat="47.69013" lon="-3.02741">
        <ele>42.2</ele>
        <time>2020-06-06T14:27:25Z</time>
      </trkpt>
      <trkpt lat="47.69017" lon="-3.02747">
        <ele>42.1</ele>
        <time>2020-06-06T14:27:26Z</time>
      </trkpt>
      <trkpt lat="47.69021" lon="-3.02755">
        <ele>42.1</ele>
        <time>2020-06-06T14:27:27Z</time>
      </trkpt>
      <trkpt lat="47.69024" lon="-3.02759">
        <ele>42.1</ele>
        <time>2020-06-06T14:27:28Z</time>
      </trkpt>
      <trkpt lat="47.69026" lon="-3.02765">
        <ele>42.1</ele>
        <time>2020-06-06T14:27:29Z</time>
      </trkpt>
      <trkpt lat="47.69031" lon="-3.02771">
        <ele>42</ele>
        <time>2020-06-06T14:27:30Z</time>
      </trkpt>
      <trkpt lat="47.69036" lon="-3.02777">
        <ele>42</ele>
        <time>2020-06-06T14:27:31Z</time>
      </trkpt>
      <trkpt lat="47.6904" lon="-3.02782">
        <ele>42</ele>
        <time>2020-06-06T14:27:32Z</time>
      </trkpt>
      <trkpt lat="47.69044" lon="-3.02789">
        <ele>42</ele>
        <time>2020-06-06T14:27:33Z</time>
      </trkpt>
      <trkpt lat="47.6905" lon="-3.02793">
        <ele>41.9</ele>
        <time>2020-06-06T14:27:34Z</time>
      </trkpt>
      <trkpt lat="47.69054" lon="-3.02797">
        <ele>41.9</ele>
        <time>2020-06-06T14:27:35Z</time>
      </trkpt>
      <trkpt lat="47.69058" lon="-3.02802">
        <ele>41.8</ele>
        <time>2020-06-06T14:27:36Z</time>
      </trkpt>
      <trkpt lat="47.69063" lon="-3.02809">
        <ele>41.8</ele>
        <time>2020-06-06T14:27:37Z</time>
      </trkpt>
      <trkpt lat="47.69066" lon="-3.02813">
        <ele>41.8</ele>
        <time>2020-06-06T14:27:38Z</time>
      </trkpt>
      <trkpt lat="47.6907" lon="-3.02819">
        <ele>41.8</ele>
        <time>2020-06-06T14:27:39Z</time>
      </trkpt>
      <trkpt lat="47.69074" lon="-3.02826">
        <ele>41.8</ele>
        <time>2020-06-06T14:27:40Z</time>
      </trkpt>
      <trkpt lat="47.69079" lon="-3.02832">
        <ele>41.8</ele>
        <time>2020-06-06T14:27:41Z</time>
      </trkpt>
      <trkpt lat="47.69083" lon="-3.02837">
        <ele>41.8</ele>
        <time>2020-06-06T14:27:42Z</time>
      </trkpt>
      <trkpt lat="47.69087" lon="-3.02842">
        <ele>41.8</ele>
        <time>2020-06-06T14:27:43Z</time>
      </trkpt>
      <trkpt lat="47.69091" lon="-3.02848">
        <ele>41.8</ele>
        <time>2020-06-06T14:27:44Z</time>
      </trkpt>
      <trkpt lat="47.69094" lon="-3.02853">
        <ele>41.8</ele>
        <time>2020-06-06T14:27:45Z</time>
      </trkpt>
      <trkpt lat="47.69099" lon="-3.0286">
        <ele>41.8</ele>
        <time>2020-06-06T14:27:46Z</time>
      </trkpt>
      <trkpt lat="47.69104" lon="-3.02867">
        <ele>41.8</ele>
        <time>2020-06-06T14:27:47Z</time>
      </trkpt>
      <trkpt lat="47.69108" lon="-3.02874">
        <ele>41.8</ele>
        <time>2020-06-06T14:27:48Z</time>
      </trkpt>
      <trkpt lat="47.69113" lon="-3.0288">
        <ele>41.8</ele>
        <time>2020-06-06T14:27:49Z</time>
      </trkpt>
      <trkpt lat="47.69116" lon="-3.02885">
        <ele>41.8</ele>
        <time>2020-06-06T14:27:50Z</time>
      </trkpt>
      <trkpt lat="47.6912" lon="-3.0289">
        <ele>41.7</ele>
        <time>2020-06-06T14:27:51Z</time>
      </trkpt>
      <trkpt lat="47.69123" lon="-3.02895">
        <ele>41.7</ele>
        <time>2020-06-06T14:27:52Z</time>
      </trkpt>
      <trkpt lat="47.69127" lon="-3.02901">
        <ele>41.7</ele>
        <time>2020-06-06T14:27:53Z</time>
      </trkpt>
      <trkpt lat="47.69131" lon="-3.02906">
        <ele>41.6</ele>
        <time>2020-06-06T14:27:54Z</time>
      </trkpt>
      <trkpt lat="47.69135" lon="-3.0291">
        <ele>41.6</ele>
        <time>2020-06-06T14:27:55Z</time>
      </trkpt>
      <trkpt lat="47.69137" lon="-3.02915">
        <ele>41.6</ele>
        <time>2020-06-06T14:27:56Z</time>
      </trkpt>
      <trkpt lat="47.69141" lon="-3.02921">
        <ele>41.5</ele>
        <time>2020-06-06T14:27:57Z</time>
      </trkpt>
      <trkpt lat="47.69145" lon="-3.02926">
        <ele>41.4</ele>
        <time>2020-06-06T14:27:58Z</time>
      </trkpt>
      <trkpt lat="47.69148" lon="-3.02931">
        <ele>41.4</ele>
        <time>2020-06-06T14:27:59Z</time>
      </trkpt>
      <trkpt lat="47.69153" lon="-3.02938">
        <ele>41.3</ele>
        <time>2020-06-06T14:28:00Z</time>
      </trkpt>
      <trkpt lat="47.69157" lon="-3.02943">
        <ele>41.2</ele>
        <time>2020-06-06T14:28:01Z</time>
      </trkpt>
      <trkpt lat="47.69161" lon="-3.02949">
        <ele>41.1</ele>
        <time>2020-06-06T14:28:02Z</time>
      </trkpt>
      <trkpt lat="47.69165" lon="-3.02955">
        <ele>41.1</ele>
        <time>2020-06-06T14:28:03Z</time>
      </trkpt>
      <trkpt lat="47.69169" lon="-3.02961">
        <ele>41.1</ele>
        <time>2020-06-06T14:28:04Z</time>
      </trkpt>
      <trkpt lat="47.69173" lon="-3.02966">
        <ele>41</ele>
        <time>2020-06-06T14:28:05Z</time>
      </trkpt>
      <trkpt lat="47.69178" lon="-3.02973">
        <ele>41</ele>
        <time>2020-06-06T14:28:06Z</time>
      </trkpt>
      <trkpt lat="47.69182" lon="-3.02979">
        <ele>40.9</ele>
        <time>2020-06-06T14:28:07Z</time>
      </trkpt>
      <trkpt lat="47.69185" lon="-3.02983">
        <ele>40.9</ele>
        <time>2020-06-06T14:28:08Z</time>
      </trkpt>
      <trkpt lat="47.6919" lon="-3.02989">
        <ele>40.8</ele>
        <time>2020-06-06T14:28:09Z</time>
      </trkpt>
      <trkpt lat="47.69194" lon="-3.02994">
        <ele>40.8</ele>
        <time>2020-06-06T14:28:10Z</time>
      </trkpt>
      <trkpt lat="47.69197" lon="-3.02998">
        <ele>40.8</ele>
        <time>2020-06-06T14:28:11Z</time>
      </trkpt>
      <trkpt lat="47.692" lon="-3.03002">
        <ele>40.8</ele>
        <time>2020-06-06T14:28:12Z</time>
      </trkpt>
      <trkpt lat="47.69204" lon="-3.03007">
        <ele>40.8</ele>
        <time>2020-06-06T14:28:13Z</time>
      </trkpt>
      <trkpt lat="47.69207" lon="-3.03012">
        <ele>40.8</ele>
        <time>2020-06-06T14:28:14Z</time>
      </trkpt>
      <trkpt lat="47.6921" lon="-3.03015">
        <ele>40.8</ele>
        <time>2020-06-06T14:28:15Z</time>
      </trkpt>
      <trkpt lat="47.69212" lon="-3.03019">
        <ele>40.8</ele>
        <time>2020-06-06T14:28:16Z</time>
      </trkpt>
      <trkpt lat="47.69216" lon="-3.03023">
        <ele>40.8</ele>
        <time>2020-06-06T14:28:17Z</time>
      </trkpt>
      <trkpt lat="47.69219" lon="-3.03028">
        <ele>40.8</ele>
        <time>2020-06-06T14:28:18Z</time>
      </trkpt>
      <trkpt lat="47.69222" lon="-3.03031">
        <ele>40.8</ele>
        <time>2020-06-06T14:28:19Z</time>
      </trkpt>
      <trkpt lat="47.69225" lon="-3.03034">
        <ele>40.8</ele>
        <time>2020-06-06T14:28:20Z</time>
      </trkpt>
      <trkpt lat="47.69227" lon="-3.03036">
        <ele>40.8</ele>
        <time>2020-06-06T14:28:21Z</time>
      </trkpt>
      <trkpt lat="47.69228" lon="-3.03038">
        <ele>40.9</ele>
        <time>2020-06-06T14:28:22Z</time>
      </trkpt>
      <trkpt lat="47.69228" lon="-3.03038">
        <ele>40.9</ele>
        <time>2020-06-06T14:28:23Z</time>
      </trkpt>
      <trkpt lat="47.69228" lon="-3.03039">
        <ele>40.9</ele>
        <time>2020-06-06T14:28:24Z</time>
      </trkpt>
      <trkpt lat="47.69228" lon="-3.03039">
        <ele>40.9</ele>
        <time>2020-06-06T14:28:25Z</time>
      </trkpt>
      <trkpt lat="47.69228" lon="-3.0304">
        <ele>40.9</ele>
        <time>2020-06-06T14:28:26Z</time>
      </trkpt>
      <trkpt lat="47.69228" lon="-3.0304">
        <ele>40.9</ele>
        <time>2020-06-06T14:28:27Z</time>
      </trkpt>
      <trkpt lat="47.69228" lon="-3.03041">
        <ele>40.9</ele>
        <time>2020-06-06T14:28:28Z</time>
      </trkpt>
      <trkpt lat="47.69229" lon="-3.03041">
        <ele>40.9</ele>
        <time>2020-06-06T14:28:29Z</time>
      </trkpt>
      <trkpt lat="47.69229" lon="-3.03042">
        <ele>40.9</ele>
        <time>2020-06-06T14:28:30Z</time>
      </trkpt>
      <trkpt lat="47.69229" lon="-3.03042">
        <ele>40.9</ele>
        <time>2020-06-06T14:28:31Z</time>
      </trkpt>
      <trkpt lat="47.69229" lon="-3.03043">
        <ele>40.9</ele>
        <time>2020-06-06T14:28:32Z</time>
      </trkpt>
      <trkpt lat="47.69229" lon="-3.03043">
        <ele>40.9</ele>
        <time>2020-06-06T14:28:33Z</time>
      </trkpt>
      <trkpt lat="47.69229" lon="-3.03044">
        <ele>40.9</ele>
        <time>2020-06-06T14:28:34Z</time>
      </trkpt>
      <trkpt lat="47.69229" lon="-3.03044">
        <ele>40.9</ele>
        <time>2020-06-06T14:31:31Z</time>
      </trkpt>
      <trkpt lat="47.6923" lon="-3.03045">
        <ele>40.9</ele>
        <time>2020-06-06T14:31:32Z</time>
      </trkpt>
      <trkpt lat="47.6923" lon="-3.03046">
        <ele>40.9</ele>
        <time>2020-06-06T14:31:33Z</time>
      </trkpt>
      <trkpt lat="47.69232" lon="-3.03048">
        <ele>40.9</ele>
        <time>2020-06-06T14:31:34Z</time>
      </trkpt>
      <trkpt lat="47.69234" lon="-3.03051">
        <ele>41</ele>
        <time>2020-06-06T14:31:35Z</time>
      </trkpt>
      <trkpt lat="47.69237" lon="-3.03055">
        <ele>41</ele>
        <time>2020-06-06T14:31:36Z</time>
      </trkpt>
      <trkpt lat="47.69238" lon="-3.03057">
        <ele>41</ele>
        <time>2020-06-06T14:31:37Z</time>
      </trkpt>
      <trkpt lat="47.6924" lon="-3.0306">
        <ele>41</ele>
        <time>2020-06-06T14:31:38Z</time>
      </trkpt>
      <trkpt lat="47.69242" lon="-3.03063">
        <ele>41</ele>
        <time>2020-06-06T14:31:39Z</time>
      </trkpt>
      <trkpt lat="47.69245" lon="-3.03067">
        <ele>41.1</ele>
        <time>2020-06-06T14:31:40Z</time>
      </trkpt>
      <trkpt lat="47.69247" lon="-3.03069">
        <ele>41.1</ele>
        <time>2020-06-06T14:31:41Z</time>
      </trkpt>
      <trkpt lat="47.6925" lon="-3.03073">
        <ele>41.2</ele>
        <time>2020-06-06T14:31:42Z</time>
      </trkpt>
      <trkpt lat="47.69252" lon="-3.03076">
        <ele>41.2</ele>
        <time>2020-06-06T14:31:43Z</time>
      </trkpt>
      <trkpt lat="47.69255" lon="-3.03078">
        <ele>41.3</ele>
        <time>2020-06-06T14:31:44Z</time>
      </trkpt>
      <trkpt lat="47.69256" lon="-3.03079">
        <ele>41.3</ele>
        <time>2020-06-06T14:31:45Z</time>
      </trkpt>
      <trkpt lat="47.69258" lon="-3.03078">
        <ele>41.3</ele>
        <time>2020-06-06T14:31:46Z</time>
      </trkpt>
      <trkpt lat="47.69259" lon="-3.03078">
        <ele>41.3</ele>
        <time>2020-06-06T14:31:47Z</time>
      </trkpt>
      <trkpt lat="47.69259" lon="-3.03077">
        <ele>41.3</ele>
        <time>2020-06-06T14:31:48Z</time>
      </trkpt>
      <trkpt lat="47.6926" lon="-3.03076">
        <ele>41.3</ele>
        <time>2020-06-06T14:31:49Z</time>
      </trkpt>
      <trkpt lat="47.6926" lon="-3.03076">
        <ele>41.3</ele>
        <time>2020-06-06T14:31:50Z</time>
      </trkpt>
      <trkpt lat="47.6926" lon="-3.03077">
        <ele>41.4</ele>
        <time>2020-06-06T14:31:51Z</time>
      </trkpt>
      <trkpt lat="47.69261" lon="-3.03079">
        <ele>41.4</ele>
        <time>2020-06-06T14:31:52Z</time>
      </trkpt>
      <trkpt lat="47.69262" lon="-3.03081">
        <ele>41.4</ele>
        <time>2020-06-06T14:31:53Z</time>
      </trkpt>
      <trkpt lat="47.69262" lon="-3.03083">
        <ele>41.4</ele>
        <time>2020-06-06T14:31:54Z</time>
      </trkpt>
      <trkpt lat="47.69263" lon="-3.03084">
        <ele>41.4</ele>
        <time>2020-06-06T14:31:55Z</time>
      </trkpt>
      <trkpt lat="47.69263" lon="-3.03086">
        <ele>41.4</ele>
        <time>2020-06-06T14:31:56Z</time>
      </trkpt>
      <trkpt lat="47.69263" lon="-3.03088">
        <ele>41.4</ele>
        <time>2020-06-06T14:32:44Z</time>
      </trkpt>
      <trkpt lat="47.69264" lon="-3.03089">
        <ele>41.4</ele>
        <time>2020-06-06T14:32:45Z</time>
      </trkpt>
      <trkpt lat="47.69266" lon="-3.03093">
        <ele>41.4</ele>
        <time>2020-06-06T14:32:46Z</time>
      </trkpt>
      <trkpt lat="47.69268" lon="-3.03098">
        <ele>41.4</ele>
        <time>2020-06-06T14:32:47Z</time>
      </trkpt>
      <trkpt lat="47.69271" lon="-3.03102">
        <ele>41.4</ele>
        <time>2020-06-06T14:32:48Z</time>
      </trkpt>
      <trkpt lat="47.69272" lon="-3.03104">
        <ele>41.4</ele>
        <time>2020-06-06T14:32:49Z</time>
      </trkpt>
      <trkpt lat="47.69275" lon="-3.03108">
        <ele>41.4</ele>
        <time>2020-06-06T14:32:50Z</time>
      </trkpt>
      <trkpt lat="47.69278" lon="-3.03111">
        <ele>41.3</ele>
        <time>2020-06-06T14:32:51Z</time>
      </trkpt>
      <trkpt lat="47.69282" lon="-3.03116">
        <ele>41.3</ele>
        <time>2020-06-06T14:32:52Z</time>
      </trkpt>
      <trkpt lat="47.69284" lon="-3.03121">
        <ele>41.3</ele>
        <time>2020-06-06T14:32:53Z</time>
      </trkpt>
      <trkpt lat="47.69287" lon="-3.03126">
        <ele>41.2</ele>
        <time>2020-06-06T14:32:54Z</time>
      </trkpt>
      <trkpt lat="47.69291" lon="-3.0313">
        <ele>41.2</ele>
        <time>2020-06-06T14:32:55Z</time>
      </trkpt>
      <trkpt lat="47.69293" lon="-3.03135">
        <ele>41.2</ele>
        <time>2020-06-06T14:32:56Z</time>
      </trkpt>
      <trkpt lat="47.69296" lon="-3.0314">
        <ele>41.1</ele>
        <time>2020-06-06T14:32:57Z</time>
      </trkpt>
      <trkpt lat="47.693" lon="-3.03145">
        <ele>41.1</ele>
        <time>2020-06-06T14:32:58Z</time>
      </trkpt>
      <trkpt lat="47.69303" lon="-3.03151">
        <ele>41</ele>
        <time>2020-06-06T14:32:59Z</time>
      </trkpt>
      <trkpt lat="47.69308" lon="-3.03157">
        <ele>41</ele>
        <time>2020-06-06T14:33:00Z</time>
      </trkpt>
      <trkpt lat="47.69312" lon="-3.03163">
        <ele>40.9</ele>
        <time>2020-06-06T14:33:01Z</time>
      </trkpt>
      <trkpt lat="47.69316" lon="-3.03169">
        <ele>40.9</ele>
        <time>2020-06-06T14:33:02Z</time>
      </trkpt>
      <trkpt lat="47.6932" lon="-3.03174">
        <ele>40.9</ele>
        <time>2020-06-06T14:33:03Z</time>
      </trkpt>
      <trkpt lat="47.69324" lon="-3.03179">
        <ele>40.9</ele>
        <time>2020-06-06T14:33:04Z</time>
      </trkpt>
      <trkpt lat="47.69328" lon="-3.03184">
        <ele>40.8</ele>
        <time>2020-06-06T14:33:05Z</time>
      </trkpt>
      <trkpt lat="47.69332" lon="-3.03189">
        <ele>40.8</ele>
        <time>2020-06-06T14:33:06Z</time>
      </trkpt>
      <trkpt lat="47.69337" lon="-3.03195">
        <ele>40.8</ele>
        <time>2020-06-06T14:33:07Z</time>
      </trkpt>
      <trkpt lat="47.69341" lon="-3.03201">
        <ele>40.8</ele>
        <time>2020-06-06T14:33:08Z</time>
      </trkpt>
      <trkpt lat="47.69345" lon="-3.03207">
        <ele>40.8</ele>
        <time>2020-06-06T14:33:09Z</time>
      </trkpt>
      <trkpt lat="47.6935" lon="-3.03212">
        <ele>40.6</ele>
        <time>2020-06-06T14:33:10Z</time>
      </trkpt>
      <trkpt lat="47.69355" lon="-3.03217">
        <ele>40.5</ele>
        <time>2020-06-06T14:33:11Z</time>
      </trkpt>
      <trkpt lat="47.6936" lon="-3.03223">
        <ele>40.5</ele>
        <time>2020-06-06T14:33:12Z</time>
      </trkpt>
      <trkpt lat="47.69365" lon="-3.03229">
        <ele>40.5</ele>
        <time>2020-06-06T14:33:13Z</time>
      </trkpt>
      <trkpt lat="47.6937" lon="-3.03234">
        <ele>40.6</ele>
        <time>2020-06-06T14:33:14Z</time>
      </trkpt>
      <trkpt lat="47.69375" lon="-3.0324">
        <ele>40.7</ele>
        <time>2020-06-06T14:33:15Z</time>
      </trkpt>
      <trkpt lat="47.6938" lon="-3.03245">
        <ele>40.8</ele>
        <time>2020-06-06T14:33:16Z</time>
      </trkpt>
      <trkpt lat="47.69384" lon="-3.03249">
        <ele>40.8</ele>
        <time>2020-06-06T14:33:17Z</time>
      </trkpt>
      <trkpt lat="47.69389" lon="-3.03254">
        <ele>41</ele>
        <time>2020-06-06T14:33:18Z</time>
      </trkpt>
      <trkpt lat="47.69394" lon="-3.03259">
        <ele>41.2</ele>
        <time>2020-06-06T14:33:19Z</time>
      </trkpt>
      <trkpt lat="47.69398" lon="-3.03265">
        <ele>41.5</ele>
        <time>2020-06-06T14:33:20Z</time>
      </trkpt>
      <trkpt lat="47.69403" lon="-3.0327">
        <ele>41.9</ele>
        <time>2020-06-06T14:33:21Z</time>
      </trkpt>
      <trkpt lat="47.69408" lon="-3.03275">
        <ele>42.3</ele>
        <time>2020-06-06T14:33:22Z</time>
      </trkpt>
      <trkpt lat="47.69411" lon="-3.0328">
        <ele>42.5</ele>
        <time>2020-06-06T14:33:23Z</time>
      </trkpt>
      <trkpt lat="47.69416" lon="-3.03284">
        <ele>42.7</ele>
        <time>2020-06-06T14:33:24Z</time>
      </trkpt>
      <trkpt lat="47.6942" lon="-3.03289">
        <ele>42.9</ele>
        <time>2020-06-06T14:33:25Z</time>
      </trkpt>
      <trkpt lat="47.69424" lon="-3.03294">
        <ele>43.1</ele>
        <time>2020-06-06T14:33:26Z</time>
      </trkpt>
      <trkpt lat="47.69428" lon="-3.03299">
        <ele>43.3</ele>
        <time>2020-06-06T14:33:27Z</time>
      </trkpt>
      <trkpt lat="47.69431" lon="-3.03304">
        <ele>43.5</ele>
        <time>2020-06-06T14:33:28Z</time>
      </trkpt>
      <trkpt lat="47.69434" lon="-3.03308">
        <ele>43.6</ele>
        <time>2020-06-06T14:33:29Z</time>
      </trkpt>
      <trkpt lat="47.69437" lon="-3.03313">
        <ele>43.8</ele>
        <time>2020-06-06T14:33:30Z</time>
      </trkpt>
      <trkpt lat="47.6944" lon="-3.03316">
        <ele>44</ele>
        <time>2020-06-06T14:33:31Z</time>
      </trkpt>
      <trkpt lat="47.69442" lon="-3.03318">
        <ele>44.1</ele>
        <time>2020-06-06T14:33:32Z</time>
      </trkpt>
      <trkpt lat="47.69444" lon="-3.03321">
        <ele>44.3</ele>
        <time>2020-06-06T14:33:33Z</time>
      </trkpt>
      <trkpt lat="47.69446" lon="-3.03324">
        <ele>44.4</ele>
        <time>2020-06-06T14:33:34Z</time>
      </trkpt>
      <trkpt lat="47.69449" lon="-3.03327">
        <ele>44.5</ele>
        <time>2020-06-06T14:33:35Z</time>
      </trkpt>
      <trkpt lat="47.69452" lon="-3.0333">
        <ele>44.7</ele>
        <time>2020-06-06T14:33:36Z</time>
      </trkpt>
      <trkpt lat="47.69454" lon="-3.03333">
        <ele>44.8</ele>
        <time>2020-06-06T14:33:37Z</time>
      </trkpt>
      <trkpt lat="47.69458" lon="-3.03337">
        <ele>44.9</ele>
        <time>2020-06-06T14:33:38Z</time>
      </trkpt>
      <trkpt lat="47.6946" lon="-3.0334">
        <ele>45</ele>
        <time>2020-06-06T14:33:39Z</time>
      </trkpt>
      <trkpt lat="47.69463" lon="-3.03343">
        <ele>45.1</ele>
        <time>2020-06-06T14:33:40Z</time>
      </trkpt>
      <trkpt lat="47.69466" lon="-3.03346">
        <ele>45.1</ele>
        <time>2020-06-06T14:33:41Z</time>
      </trkpt>
      <trkpt lat="47.6947" lon="-3.03348">
        <ele>45.1</ele>
        <time>2020-06-06T14:33:42Z</time>
      </trkpt>
      <trkpt lat="47.69472" lon="-3.03349">
        <ele>45.1</ele>
        <time>2020-06-06T14:33:43Z</time>
      </trkpt>
      <trkpt lat="47.69475" lon="-3.03351">
        <ele>45.1</ele>
        <time>2020-06-06T14:33:44Z</time>
      </trkpt>
      <trkpt lat="47.69478" lon="-3.03351">
        <ele>45.2</ele>
        <time>2020-06-06T14:33:45Z</time>
      </trkpt>
      <trkpt lat="47.69481" lon="-3.03355">
        <ele>45.2</ele>
        <time>2020-06-06T14:33:46Z</time>
      </trkpt>
      <trkpt lat="47.69484" lon="-3.03356">
        <ele>45.2</ele>
        <time>2020-06-06T14:33:47Z</time>
      </trkpt>
      <trkpt lat="47.69487" lon="-3.0336">
        <ele>45.2</ele>
        <time>2020-06-06T14:33:48Z</time>
      </trkpt>
      <trkpt lat="47.69487" lon="-3.03362">
        <ele>45.3</ele>
        <time>2020-06-06T14:33:49Z</time>
      </trkpt>
      <trkpt lat="47.6949" lon="-3.03365">
        <ele>45.3</ele>
        <time>2020-06-06T14:33:50Z</time>
      </trkpt>
      <trkpt lat="47.69492" lon="-3.03368">
        <ele>45.3</ele>
        <time>2020-06-06T14:33:51Z</time>
      </trkpt>
      <trkpt lat="47.69495" lon="-3.03372">
        <ele>45.3</ele>
        <time>2020-06-06T14:33:52Z</time>
      </trkpt>
      <trkpt lat="47.69497" lon="-3.03376">
        <ele>45.3</ele>
        <time>2020-06-06T14:33:53Z</time>
      </trkpt>
      <trkpt lat="47.695" lon="-3.03381">
        <ele>45.4</ele>
        <time>2020-06-06T14:33:54Z</time>
      </trkpt>
      <trkpt lat="47.69501" lon="-3.03385">
        <ele>45.5</ele>
        <time>2020-06-06T14:33:55Z</time>
      </trkpt>
      <trkpt lat="47.69504" lon="-3.03389">
        <ele>45.6</ele>
        <time>2020-06-06T14:33:56Z</time>
      </trkpt>
      <trkpt lat="47.69507" lon="-3.03393">
        <ele>45.7</ele>
        <time>2020-06-06T14:33:57Z</time>
      </trkpt>
      <trkpt lat="47.69509" lon="-3.03397">
        <ele>45.7</ele>
        <time>2020-06-06T14:33:58Z</time>
      </trkpt>
      <trkpt lat="47.69512" lon="-3.034">
        <ele>45.8</ele>
        <time>2020-06-06T14:33:59Z</time>
      </trkpt>
      <trkpt lat="47.69516" lon="-3.03406">
        <ele>45.8</ele>
        <time>2020-06-06T14:34:00Z</time>
      </trkpt>
      <trkpt lat="47.6952" lon="-3.03408">
        <ele>45.8</ele>
        <time>2020-06-06T14:34:01Z</time>
      </trkpt>
      <trkpt lat="47.69522" lon="-3.0341">
        <ele>45.7</ele>
        <time>2020-06-06T14:34:02Z</time>
      </trkpt>
      <trkpt lat="47.69525" lon="-3.03413">
        <ele>45.7</ele>
        <time>2020-06-06T14:34:03Z</time>
      </trkpt>
      <trkpt lat="47.69528" lon="-3.03416">
        <ele>45.6</ele>
        <time>2020-06-06T14:34:04Z</time>
      </trkpt>
      <trkpt lat="47.6953" lon="-3.03418">
        <ele>45.6</ele>
        <time>2020-06-06T14:34:05Z</time>
      </trkpt>
      <trkpt lat="47.69533" lon="-3.0342">
        <ele>45.5</ele>
        <time>2020-06-06T14:34:06Z</time>
      </trkpt>
      <trkpt lat="47.69536" lon="-3.03423">
        <ele>45.4</ele>
        <time>2020-06-06T14:34:07Z</time>
      </trkpt>
      <trkpt lat="47.6954" lon="-3.03425">
        <ele>45.3</ele>
        <time>2020-06-06T14:34:08Z</time>
      </trkpt>
      <trkpt lat="47.69543" lon="-3.03428">
        <ele>45.2</ele>
        <time>2020-06-06T14:34:09Z</time>
      </trkpt>
      <trkpt lat="47.69546" lon="-3.03432">
        <ele>45.1</ele>
        <time>2020-06-06T14:34:10Z</time>
      </trkpt>
      <trkpt lat="47.69548" lon="-3.03435">
        <ele>44.9</ele>
        <time>2020-06-06T14:34:11Z</time>
      </trkpt>
      <trkpt lat="47.69551" lon="-3.03439">
        <ele>44.7</ele>
        <time>2020-06-06T14:34:12Z</time>
      </trkpt>
      <trkpt lat="47.69555" lon="-3.03445">
        <ele>44.5</ele>
        <time>2020-06-06T14:34:13Z</time>
      </trkpt>
      <trkpt lat="47.69558" lon="-3.0345">
        <ele>44.2</ele>
        <time>2020-06-06T14:34:14Z</time>
      </trkpt>
      <trkpt lat="47.69561" lon="-3.03457">
        <ele>43.9</ele>
        <time>2020-06-06T14:34:15Z</time>
      </trkpt>
      <trkpt lat="47.69566" lon="-3.0346">
        <ele>43.8</ele>
        <time>2020-06-06T14:34:16Z</time>
      </trkpt>
      <trkpt lat="47.6957" lon="-3.03466">
        <ele>43.7</ele>
        <time>2020-06-06T14:34:17Z</time>
      </trkpt>
      <trkpt lat="47.69573" lon="-3.03471">
        <ele>43.6</ele>
        <time>2020-06-06T14:34:18Z</time>
      </trkpt>
      <trkpt lat="47.69578" lon="-3.03478">
        <ele>43.5</ele>
        <time>2020-06-06T14:34:19Z</time>
      </trkpt>
      <trkpt lat="47.69582" lon="-3.03484">
        <ele>43.4</ele>
        <time>2020-06-06T14:34:20Z</time>
      </trkpt>
      <trkpt lat="47.69587" lon="-3.0349">
        <ele>43.3</ele>
        <time>2020-06-06T14:34:21Z</time>
      </trkpt>
      <trkpt lat="47.69592" lon="-3.03496">
        <ele>43.1</ele>
        <time>2020-06-06T14:34:22Z</time>
      </trkpt>
      <trkpt lat="47.69597" lon="-3.035">
        <ele>43</ele>
        <time>2020-06-06T14:34:23Z</time>
      </trkpt>
      <trkpt lat="47.69602" lon="-3.03505">
        <ele>42.8</ele>
        <time>2020-06-06T14:34:24Z</time>
      </trkpt>
      <trkpt lat="47.69607" lon="-3.03511">
        <ele>42.7</ele>
        <time>2020-06-06T14:34:25Z</time>
      </trkpt>
      <trkpt lat="47.69612" lon="-3.03515">
        <ele>42.5</ele>
        <time>2020-06-06T14:34:26Z</time>
      </trkpt>
      <trkpt lat="47.69616" lon="-3.0352">
        <ele>42.3</ele>
        <time>2020-06-06T14:34:27Z</time>
      </trkpt>
      <trkpt lat="47.6962" lon="-3.03526">
        <ele>41.9</ele>
        <time>2020-06-06T14:34:28Z</time>
      </trkpt>
      <trkpt lat="47.69625" lon="-3.03531">
        <ele>41.5</ele>
        <time>2020-06-06T14:34:29Z</time>
      </trkpt>
      <trkpt lat="47.69629" lon="-3.03537">
        <ele>41.2</ele>
        <time>2020-06-06T14:34:30Z</time>
      </trkpt>
      <trkpt lat="47.69634" lon="-3.03543">
        <ele>41</ele>
        <time>2020-06-06T14:34:31Z</time>
      </trkpt>
      <trkpt lat="47.69638" lon="-3.03547">
        <ele>41</ele>
        <time>2020-06-06T14:34:32Z</time>
      </trkpt>
      <trkpt lat="47.69642" lon="-3.03553">
        <ele>40.8</ele>
        <time>2020-06-06T14:34:33Z</time>
      </trkpt>
      <trkpt lat="47.69646" lon="-3.03557">
        <ele>40.7</ele>
        <time>2020-06-06T14:34:34Z</time>
      </trkpt>
      <trkpt lat="47.6965" lon="-3.03563">
        <ele>40.6</ele>
        <time>2020-06-06T14:34:35Z</time>
      </trkpt>
      <trkpt lat="47.69654" lon="-3.03567">
        <ele>40.4</ele>
        <time>2020-06-06T14:34:36Z</time>
      </trkpt>
      <trkpt lat="47.69658" lon="-3.03571">
        <ele>40.2</ele>
        <time>2020-06-06T14:34:37Z</time>
      </trkpt>
      <trkpt lat="47.69662" lon="-3.03575">
        <ele>40.1</ele>
        <time>2020-06-06T14:34:38Z</time>
      </trkpt>
      <trkpt lat="47.69666" lon="-3.03581">
        <ele>39.9</ele>
        <time>2020-06-06T14:34:39Z</time>
      </trkpt>
      <trkpt lat="47.69669" lon="-3.03586">
        <ele>39.7</ele>
        <time>2020-06-06T14:34:40Z</time>
      </trkpt>
      <trkpt lat="47.69674" lon="-3.03592">
        <ele>39.5</ele>
        <time>2020-06-06T14:34:41Z</time>
      </trkpt>
      <trkpt lat="47.69678" lon="-3.03597">
        <ele>39.3</ele>
        <time>2020-06-06T14:34:42Z</time>
      </trkpt>
      <trkpt lat="47.69683" lon="-3.03602">
        <ele>39</ele>
        <time>2020-06-06T14:34:43Z</time>
      </trkpt>
      <trkpt lat="47.69688" lon="-3.03607">
        <ele>38.8</ele>
        <time>2020-06-06T14:34:44Z</time>
      </trkpt>
      <trkpt lat="47.69694" lon="-3.03613">
        <ele>38.5</ele>
        <time>2020-06-06T14:34:45Z</time>
      </trkpt>
      <trkpt lat="47.69699" lon="-3.03619">
        <ele>38.2</ele>
        <time>2020-06-06T14:34:46Z</time>
      </trkpt>
      <trkpt lat="47.69704" lon="-3.03625">
        <ele>38</ele>
        <time>2020-06-06T14:34:47Z</time>
      </trkpt>
      <trkpt lat="47.69709" lon="-3.03631">
        <ele>37.8</ele>
        <time>2020-06-06T14:34:48Z</time>
      </trkpt>
      <trkpt lat="47.69715" lon="-3.03637">
        <ele>37.5</ele>
        <time>2020-06-06T14:34:49Z</time>
      </trkpt>
      <trkpt lat="47.6972" lon="-3.03644">
        <ele>37.3</ele>
        <time>2020-06-06T14:34:50Z</time>
      </trkpt>
      <trkpt lat="47.69726" lon="-3.03652">
        <ele>37</ele>
        <time>2020-06-06T14:34:51Z</time>
      </trkpt>
      <trkpt lat="47.69731" lon="-3.03657">
        <ele>36.8</ele>
        <time>2020-06-06T14:34:52Z</time>
      </trkpt>
      <trkpt lat="47.69736" lon="-3.03664">
        <ele>36.7</ele>
        <time>2020-06-06T14:34:53Z</time>
      </trkpt>
      <trkpt lat="47.69743" lon="-3.03672">
        <ele>36.4</ele>
        <time>2020-06-06T14:34:54Z</time>
      </trkpt>
      <trkpt lat="47.69748" lon="-3.03679">
        <ele>36.3</ele>
        <time>2020-06-06T14:34:55Z</time>
      </trkpt>
      <trkpt lat="47.69754" lon="-3.03686">
        <ele>36.1</ele>
        <time>2020-06-06T14:34:56Z</time>
      </trkpt>
      <trkpt lat="47.69759" lon="-3.03692">
        <ele>36</ele>
        <time>2020-06-06T14:34:57Z</time>
      </trkpt>
      <trkpt lat="47.69765" lon="-3.03699">
        <ele>36</ele>
        <time>2020-06-06T14:34:58Z</time>
      </trkpt>
      <trkpt lat="47.6977" lon="-3.03706">
        <ele>35.9</ele>
        <time>2020-06-06T14:34:59Z</time>
      </trkpt>
      <trkpt lat="47.69775" lon="-3.03712">
        <ele>35.9</ele>
        <time>2020-06-06T14:35:00Z</time>
      </trkpt>
      <trkpt lat="47.69781" lon="-3.03718">
        <ele>35.9</ele>
        <time>2020-06-06T14:35:01Z</time>
      </trkpt>
      <trkpt lat="47.69785" lon="-3.03725">
        <ele>35.9</ele>
        <time>2020-06-06T14:35:02Z</time>
      </trkpt>
      <trkpt lat="47.69791" lon="-3.03732">
        <ele>35.8</ele>
        <time>2020-06-06T14:35:03Z</time>
      </trkpt>
      <trkpt lat="47.69796" lon="-3.03737">
        <ele>35.8</ele>
        <time>2020-06-06T14:35:04Z</time>
      </trkpt>
      <trkpt lat="47.69801" lon="-3.03744">
        <ele>35.8</ele>
        <time>2020-06-06T14:35:05Z</time>
      </trkpt>
      <trkpt lat="47.69806" lon="-3.03749">
        <ele>35.8</ele>
        <time>2020-06-06T14:35:06Z</time>
      </trkpt>
      <trkpt lat="47.69811" lon="-3.03755">
        <ele>35.8</ele>
        <time>2020-06-06T14:35:07Z</time>
      </trkpt>
      <trkpt lat="47.69816" lon="-3.03761">
        <ele>35.8</ele>
        <time>2020-06-06T14:35:08Z</time>
      </trkpt>
      <trkpt lat="47.69821" lon="-3.03767">
        <ele>35.8</ele>
        <time>2020-06-06T14:35:09Z</time>
      </trkpt>
      <trkpt lat="47.69826" lon="-3.03772">
        <ele>35.7</ele>
        <time>2020-06-06T14:35:10Z</time>
      </trkpt>
      <trkpt lat="47.69831" lon="-3.03778">
        <ele>35.7</ele>
        <time>2020-06-06T14:35:11Z</time>
      </trkpt>
      <trkpt lat="47.69835" lon="-3.03783">
        <ele>35.8</ele>
        <time>2020-06-06T14:35:12Z</time>
      </trkpt>
      <trkpt lat="47.6984" lon="-3.03789">
        <ele>35.8</ele>
        <time>2020-06-06T14:35:13Z</time>
      </trkpt>
      <trkpt lat="47.69844" lon="-3.03795">
        <ele>35.8</ele>
        <time>2020-06-06T14:35:14Z</time>
      </trkpt>
      <trkpt lat="47.69849" lon="-3.03801">
        <ele>35.9</ele>
        <time>2020-06-06T14:35:15Z</time>
      </trkpt>
      <trkpt lat="47.69853" lon="-3.03807">
        <ele>36</ele>
        <time>2020-06-06T14:35:16Z</time>
      </trkpt>
      <trkpt lat="47.69858" lon="-3.03812">
        <ele>36.1</ele>
        <time>2020-06-06T14:35:17Z</time>
      </trkpt>
      <trkpt lat="47.69862" lon="-3.03818">
        <ele>36.2</ele>
        <time>2020-06-06T14:35:18Z</time>
      </trkpt>
      <trkpt lat="47.69866" lon="-3.03824">
        <ele>36.3</ele>
        <time>2020-06-06T14:35:19Z</time>
      </trkpt>
      <trkpt lat="47.6987" lon="-3.0383">
        <ele>36.4</ele>
        <time>2020-06-06T14:35:20Z</time>
      </trkpt>
      <trkpt lat="47.69875" lon="-3.03835">
        <ele>36.5</ele>
        <time>2020-06-06T14:35:21Z</time>
      </trkpt>
      <trkpt lat="47.69879" lon="-3.03841">
        <ele>36.6</ele>
        <time>2020-06-06T14:35:22Z</time>
      </trkpt>
      <trkpt lat="47.69884" lon="-3.03846">
        <ele>36.8</ele>
        <time>2020-06-06T14:35:23Z</time>
      </trkpt>
      <trkpt lat="47.69889" lon="-3.03851">
        <ele>36.9</ele>
        <time>2020-06-06T14:35:24Z</time>
      </trkpt>
      <trkpt lat="47.69894" lon="-3.03856">
        <ele>37</ele>
        <time>2020-06-06T14:35:25Z</time>
      </trkpt>
      <trkpt lat="47.69898" lon="-3.03861">
        <ele>37.1</ele>
        <time>2020-06-06T14:35:26Z</time>
      </trkpt>
      <trkpt lat="47.69903" lon="-3.03866">
        <ele>37.1</ele>
        <time>2020-06-06T14:35:27Z</time>
      </trkpt>
      <trkpt lat="47.69907" lon="-3.03871">
        <ele>37.1</ele>
        <time>2020-06-06T14:35:28Z</time>
      </trkpt>
      <trkpt lat="47.69911" lon="-3.03876">
        <ele>37.1</ele>
        <time>2020-06-06T14:35:29Z</time>
      </trkpt>
      <trkpt lat="47.69915" lon="-3.03882">
        <ele>37.1</ele>
        <time>2020-06-06T14:35:30Z</time>
      </trkpt>
      <trkpt lat="47.69918" lon="-3.03888">
        <ele>37.2</ele>
        <time>2020-06-06T14:35:31Z</time>
      </trkpt>
      <trkpt lat="47.69923" lon="-3.03892">
        <ele>37.2</ele>
        <time>2020-06-06T14:35:32Z</time>
      </trkpt>
      <trkpt lat="47.69927" lon="-3.03898">
        <ele>37.2</ele>
        <time>2020-06-06T14:35:33Z</time>
      </trkpt>
      <trkpt lat="47.69932" lon="-3.03902">
        <ele>37.3</ele>
        <time>2020-06-06T14:35:34Z</time>
      </trkpt>
      <trkpt lat="47.69936" lon="-3.03907">
        <ele>37.3</ele>
        <time>2020-06-06T14:35:35Z</time>
      </trkpt>
      <trkpt lat="47.69941" lon="-3.03912">
        <ele>37.3</ele>
        <time>2020-06-06T14:35:36Z</time>
      </trkpt>
      <trkpt lat="47.69945" lon="-3.03917">
        <ele>37.3</ele>
        <time>2020-06-06T14:35:37Z</time>
      </trkpt>
      <trkpt lat="47.69949" lon="-3.03922">
        <ele>37.3</ele>
        <time>2020-06-06T14:35:38Z</time>
      </trkpt>
      <trkpt lat="47.69954" lon="-3.03928">
        <ele>37.3</ele>
        <time>2020-06-06T14:35:39Z</time>
      </trkpt>
      <trkpt lat="47.69958" lon="-3.03934">
        <ele>37.3</ele>
        <time>2020-06-06T14:35:40Z</time>
      </trkpt>
      <trkpt lat="47.69963" lon="-3.03939">
        <ele>37.3</ele>
        <time>2020-06-06T14:35:41Z</time>
      </trkpt>
      <trkpt lat="47.69968" lon="-3.03945">
        <ele>37.3</ele>
        <time>2020-06-06T14:35:42Z</time>
      </trkpt>
      <trkpt lat="47.69973" lon="-3.03949">
        <ele>37.2</ele>
        <time>2020-06-06T14:35:43Z</time>
      </trkpt>
      <trkpt lat="47.69977" lon="-3.03954">
        <ele>37.2</ele>
        <time>2020-06-06T14:35:44Z</time>
      </trkpt>
      <trkpt lat="47.69982" lon="-3.0396">
        <ele>37.2</ele>
        <time>2020-06-06T14:35:45Z</time>
      </trkpt>
      <trkpt lat="47.69988" lon="-3.03965">
        <ele>37.2</ele>
        <time>2020-06-06T14:35:46Z</time>
      </trkpt>
      <trkpt lat="47.69993" lon="-3.03971">
        <ele>37.2</ele>
        <time>2020-06-06T14:35:47Z</time>
      </trkpt>
      <trkpt lat="47.69998" lon="-3.03977">
        <ele>37.2</ele>
        <time>2020-06-06T14:35:48Z</time>
      </trkpt>
      <trkpt lat="47.70002" lon="-3.03982">
        <ele>37.1</ele>
        <time>2020-06-06T14:35:49Z</time>
      </trkpt>
      <trkpt lat="47.70007" lon="-3.03987">
        <ele>37.1</ele>
        <time>2020-06-06T14:35:50Z</time>
      </trkpt>
      <trkpt lat="47.70011" lon="-3.03993">
        <ele>37</ele>
        <time>2020-06-06T14:35:51Z</time>
      </trkpt>
      <trkpt lat="47.70016" lon="-3.03998">
        <ele>36.9</ele>
        <time>2020-06-06T14:35:52Z</time>
      </trkpt>
      <trkpt lat="47.70021" lon="-3.04003">
        <ele>36.9</ele>
        <time>2020-06-06T14:35:53Z</time>
      </trkpt>
      <trkpt lat="47.70026" lon="-3.04009">
        <ele>36.8</ele>
        <time>2020-06-06T14:35:54Z</time>
      </trkpt>
      <trkpt lat="47.70031" lon="-3.04014">
        <ele>36.6</ele>
        <time>2020-06-06T14:35:55Z</time>
      </trkpt>
      <trkpt lat="47.70036" lon="-3.04019">
        <ele>36.5</ele>
        <time>2020-06-06T14:35:56Z</time>
      </trkpt>
      <trkpt lat="47.70041" lon="-3.04023">
        <ele>36.4</ele>
        <time>2020-06-06T14:35:57Z</time>
      </trkpt>
      <trkpt lat="47.70046" lon="-3.04027">
        <ele>36.2</ele>
        <time>2020-06-06T14:35:58Z</time>
      </trkpt>
      <trkpt lat="47.70051" lon="-3.04032">
        <ele>36.1</ele>
        <time>2020-06-06T14:35:59Z</time>
      </trkpt>
      <trkpt lat="47.70057" lon="-3.04037">
        <ele>35.9</ele>
        <time>2020-06-06T14:36:00Z</time>
      </trkpt>
      <trkpt lat="47.70062" lon="-3.04041">
        <ele>35.7</ele>
        <time>2020-06-06T14:36:01Z</time>
      </trkpt>
      <trkpt lat="47.70067" lon="-3.04046">
        <ele>35.5</ele>
        <time>2020-06-06T14:36:02Z</time>
      </trkpt>
      <trkpt lat="47.70073" lon="-3.04052">
        <ele>35.2</ele>
        <time>2020-06-06T14:36:03Z</time>
      </trkpt>
      <trkpt lat="47.70079" lon="-3.04058">
        <ele>35</ele>
        <time>2020-06-06T14:36:04Z</time>
      </trkpt>
      <trkpt lat="47.70085" lon="-3.04064">
        <ele>34.7</ele>
        <time>2020-06-06T14:36:05Z</time>
      </trkpt>
      <trkpt lat="47.70091" lon="-3.0407">
        <ele>34.4</ele>
        <time>2020-06-06T14:36:06Z</time>
      </trkpt>
      <trkpt lat="47.70098" lon="-3.04076">
        <ele>34.2</ele>
        <time>2020-06-06T14:36:07Z</time>
      </trkpt>
      <trkpt lat="47.70104" lon="-3.04082">
        <ele>34</ele>
        <time>2020-06-06T14:36:08Z</time>
      </trkpt>
      <trkpt lat="47.70109" lon="-3.04088">
        <ele>33.8</ele>
        <time>2020-06-06T14:36:09Z</time>
      </trkpt>
      <trkpt lat="47.70116" lon="-3.04094">
        <ele>33.6</ele>
        <time>2020-06-06T14:36:10Z</time>
      </trkpt>
      <trkpt lat="47.70122" lon="-3.04099">
        <ele>33.3</ele>
        <time>2020-06-06T14:36:11Z</time>
      </trkpt>
      <trkpt lat="47.70127" lon="-3.04104">
        <ele>33</ele>
        <time>2020-06-06T14:36:12Z</time>
      </trkpt>
      <trkpt lat="47.70133" lon="-3.04109">
        <ele>32.8</ele>
        <time>2020-06-06T14:36:13Z</time>
      </trkpt>
      <trkpt lat="47.70139" lon="-3.04116">
        <ele>32.5</ele>
        <time>2020-06-06T14:36:14Z</time>
      </trkpt>
      <trkpt lat="47.70145" lon="-3.04122">
        <ele>32.3</ele>
        <time>2020-06-06T14:36:15Z</time>
      </trkpt>
      <trkpt lat="47.70151" lon="-3.04129">
        <ele>32.1</ele>
        <time>2020-06-06T14:36:16Z</time>
      </trkpt>
      <trkpt lat="47.70157" lon="-3.04135">
        <ele>31.9</ele>
        <time>2020-06-06T14:36:17Z</time>
      </trkpt>
      <trkpt lat="47.70163" lon="-3.04141">
        <ele>31.7</ele>
        <time>2020-06-06T14:36:18Z</time>
      </trkpt>
      <trkpt lat="47.70169" lon="-3.04148">
        <ele>31.5</ele>
        <time>2020-06-06T14:36:19Z</time>
      </trkpt>
      <trkpt lat="47.70174" lon="-3.04155">
        <ele>31.1</ele>
        <time>2020-06-06T14:36:20Z</time>
      </trkpt>
      <trkpt lat="47.7018" lon="-3.04161">
        <ele>30.8</ele>
        <time>2020-06-06T14:36:21Z</time>
      </trkpt>
      <trkpt lat="47.70186" lon="-3.04169">
        <ele>30.5</ele>
        <time>2020-06-06T14:36:22Z</time>
      </trkpt>
      <trkpt lat="47.70192" lon="-3.04176">
        <ele>30.2</ele>
        <time>2020-06-06T14:36:23Z</time>
      </trkpt>
      <trkpt lat="47.70197" lon="-3.04183">
        <ele>29.9</ele>
        <time>2020-06-06T14:36:24Z</time>
      </trkpt>
      <trkpt lat="47.70203" lon="-3.0419">
        <ele>29.6</ele>
        <time>2020-06-06T14:36:25Z</time>
      </trkpt>
      <trkpt lat="47.7021" lon="-3.04196">
        <ele>29.3</ele>
        <time>2020-06-06T14:36:26Z</time>
      </trkpt>
      <trkpt lat="47.70216" lon="-3.04203">
        <ele>29</ele>
        <time>2020-06-06T14:36:27Z</time>
      </trkpt>
      <trkpt lat="47.70222" lon="-3.0421">
        <ele>28.7</ele>
        <time>2020-06-06T14:36:28Z</time>
      </trkpt>
      <trkpt lat="47.70228" lon="-3.04216">
        <ele>28.4</ele>
        <time>2020-06-06T14:36:29Z</time>
      </trkpt>
      <trkpt lat="47.70234" lon="-3.04223">
        <ele>28.2</ele>
        <time>2020-06-06T14:36:30Z</time>
      </trkpt>
      <trkpt lat="47.7024" lon="-3.0423">
        <ele>27.9</ele>
        <time>2020-06-06T14:36:31Z</time>
      </trkpt>
      <trkpt lat="47.70246" lon="-3.04237">
        <ele>27.7</ele>
        <time>2020-06-06T14:36:32Z</time>
      </trkpt>
      <trkpt lat="47.70252" lon="-3.04244">
        <ele>27.6</ele>
        <time>2020-06-06T14:36:33Z</time>
      </trkpt>
      <trkpt lat="47.70258" lon="-3.04251">
        <ele>27.5</ele>
        <time>2020-06-06T14:36:34Z</time>
      </trkpt>
      <trkpt lat="47.70264" lon="-3.04258">
        <ele>27.4</ele>
        <time>2020-06-06T14:36:35Z</time>
      </trkpt>
      <trkpt lat="47.70269" lon="-3.04265">
        <ele>27.3</ele>
        <time>2020-06-06T14:36:36Z</time>
      </trkpt>
      <trkpt lat="47.70275" lon="-3.04271">
        <ele>27.3</ele>
        <time>2020-06-06T14:36:37Z</time>
      </trkpt>
      <trkpt lat="47.70281" lon="-3.04278">
        <ele>27.3</ele>
        <time>2020-06-06T14:36:38Z</time>
      </trkpt>
      <trkpt lat="47.70287" lon="-3.04284">
        <ele>27.2</ele>
        <time>2020-06-06T14:36:39Z</time>
      </trkpt>
      <trkpt lat="47.70292" lon="-3.0429">
        <ele>27.2</ele>
        <time>2020-06-06T14:36:40Z</time>
      </trkpt>
      <trkpt lat="47.70297" lon="-3.04296">
        <ele>27.1</ele>
        <time>2020-06-06T14:36:41Z</time>
      </trkpt>
      <trkpt lat="47.70302" lon="-3.04302">
        <ele>27</ele>
        <time>2020-06-06T14:36:42Z</time>
      </trkpt>
      <trkpt lat="47.70307" lon="-3.04308">
        <ele>27</ele>
        <time>2020-06-06T14:36:43Z</time>
      </trkpt>
      <trkpt lat="47.70312" lon="-3.04314">
        <ele>26.9</ele>
        <time>2020-06-06T14:36:44Z</time>
      </trkpt>
      <trkpt lat="47.70317" lon="-3.04319">
        <ele>26.9</ele>
        <time>2020-06-06T14:36:45Z</time>
      </trkpt>
      <trkpt lat="47.70322" lon="-3.04324">
        <ele>26.9</ele>
        <time>2020-06-06T14:36:46Z</time>
      </trkpt>
      <trkpt lat="47.70327" lon="-3.0433">
        <ele>26.9</ele>
        <time>2020-06-06T14:36:47Z</time>
      </trkpt>
      <trkpt lat="47.70332" lon="-3.04335">
        <ele>26.8</ele>
        <time>2020-06-06T14:36:48Z</time>
      </trkpt>
      <trkpt lat="47.70337" lon="-3.04341">
        <ele>26.8</ele>
        <time>2020-06-06T14:36:49Z</time>
      </trkpt>
      <trkpt lat="47.70343" lon="-3.04347">
        <ele>26.8</ele>
        <time>2020-06-06T14:36:50Z</time>
      </trkpt>
      <trkpt lat="47.70348" lon="-3.04352">
        <ele>26.7</ele>
        <time>2020-06-06T14:36:51Z</time>
      </trkpt>
      <trkpt lat="47.70353" lon="-3.04358">
        <ele>26.6</ele>
        <time>2020-06-06T14:36:52Z</time>
      </trkpt>
      <trkpt lat="47.70358" lon="-3.04364">
        <ele>26.6</ele>
        <time>2020-06-06T14:36:53Z</time>
      </trkpt>
      <trkpt lat="47.70363" lon="-3.04369">
        <ele>26.5</ele>
        <time>2020-06-06T14:36:54Z</time>
      </trkpt>
      <trkpt lat="47.70367" lon="-3.04375">
        <ele>26.4</ele>
        <time>2020-06-06T14:36:55Z</time>
      </trkpt>
      <trkpt lat="47.70372" lon="-3.04381">
        <ele>26.4</ele>
        <time>2020-06-06T14:36:56Z</time>
      </trkpt>
      <trkpt lat="47.70377" lon="-3.04387">
        <ele>26.3</ele>
        <time>2020-06-06T14:36:57Z</time>
      </trkpt>
      <trkpt lat="47.70382" lon="-3.04393">
        <ele>26.3</ele>
        <time>2020-06-06T14:36:58Z</time>
      </trkpt>
      <trkpt lat="47.70387" lon="-3.04399">
        <ele>26.3</ele>
        <time>2020-06-06T14:36:59Z</time>
      </trkpt>
      <trkpt lat="47.70391" lon="-3.04404">
        <ele>26.2</ele>
        <time>2020-06-06T14:37:00Z</time>
      </trkpt>
      <trkpt lat="47.70397" lon="-3.0441">
        <ele>26.2</ele>
        <time>2020-06-06T14:37:01Z</time>
      </trkpt>
      <trkpt lat="47.70402" lon="-3.04416">
        <ele>26.2</ele>
        <time>2020-06-06T14:37:02Z</time>
      </trkpt>
      <trkpt lat="47.70406" lon="-3.04421">
        <ele>26.2</ele>
        <time>2020-06-06T14:37:03Z</time>
      </trkpt>
      <trkpt lat="47.70412" lon="-3.04426">
        <ele>26.2</ele>
        <time>2020-06-06T14:37:04Z</time>
      </trkpt>
      <trkpt lat="47.70417" lon="-3.04432">
        <ele>26.2</ele>
        <time>2020-06-06T14:37:05Z</time>
      </trkpt>
      <trkpt lat="47.70422" lon="-3.04437">
        <ele>26.2</ele>
        <time>2020-06-06T14:37:06Z</time>
      </trkpt>
      <trkpt lat="47.70428" lon="-3.04442">
        <ele>26.1</ele>
        <time>2020-06-06T14:37:07Z</time>
      </trkpt>
      <trkpt lat="47.70434" lon="-3.04446">
        <ele>26</ele>
        <time>2020-06-06T14:37:08Z</time>
      </trkpt>
      <trkpt lat="47.7044" lon="-3.04451">
        <ele>26</ele>
        <time>2020-06-06T14:37:09Z</time>
      </trkpt>
      <trkpt lat="47.70447" lon="-3.04455">
        <ele>26</ele>
        <time>2020-06-06T14:37:10Z</time>
      </trkpt>
      <trkpt lat="47.70453" lon="-3.04459">
        <ele>26</ele>
        <time>2020-06-06T14:37:11Z</time>
      </trkpt>
      <trkpt lat="47.7046" lon="-3.04462">
        <ele>26</ele>
        <time>2020-06-06T14:37:12Z</time>
      </trkpt>
      <trkpt lat="47.70465" lon="-3.04463">
        <ele>26</ele>
        <time>2020-06-06T14:37:13Z</time>
      </trkpt>
      <trkpt lat="47.70472" lon="-3.04465">
        <ele>26</ele>
        <time>2020-06-06T14:37:14Z</time>
      </trkpt>
      <trkpt lat="47.70478" lon="-3.04466">
        <ele>26</ele>
        <time>2020-06-06T14:37:15Z</time>
      </trkpt>
      <trkpt lat="47.70484" lon="-3.04467">
        <ele>26</ele>
        <time>2020-06-06T14:37:16Z</time>
      </trkpt>
      <trkpt lat="47.70491" lon="-3.04468">
        <ele>26.1</ele>
        <time>2020-06-06T14:37:17Z</time>
      </trkpt>
      <trkpt lat="47.70497" lon="-3.04469">
        <ele>26.1</ele>
        <time>2020-06-06T14:37:18Z</time>
      </trkpt>
      <trkpt lat="47.70503" lon="-3.0447">
        <ele>26.2</ele>
        <time>2020-06-06T14:37:19Z</time>
      </trkpt>
      <trkpt lat="47.70509" lon="-3.0447">
        <ele>26.2</ele>
        <time>2020-06-06T14:37:20Z</time>
      </trkpt>
      <trkpt lat="47.70516" lon="-3.04472">
        <ele>26.3</ele>
        <time>2020-06-06T14:37:21Z</time>
      </trkpt>
      <trkpt lat="47.70523" lon="-3.04472">
        <ele>26.4</ele>
        <time>2020-06-06T14:37:22Z</time>
      </trkpt>
      <trkpt lat="47.70528" lon="-3.04472">
        <ele>26.4</ele>
        <time>2020-06-06T14:37:23Z</time>
      </trkpt>
      <trkpt lat="47.70533" lon="-3.04471">
        <ele>26.5</ele>
        <time>2020-06-06T14:37:24Z</time>
      </trkpt>
      <trkpt lat="47.70538" lon="-3.0447">
        <ele>26.5</ele>
        <time>2020-06-06T14:37:25Z</time>
      </trkpt>
      <trkpt lat="47.70543" lon="-3.0447">
        <ele>26.6</ele>
        <time>2020-06-06T14:37:26Z</time>
      </trkpt>
      <trkpt lat="47.70549" lon="-3.0447">
        <ele>26.7</ele>
        <time>2020-06-06T14:37:27Z</time>
      </trkpt>
      <trkpt lat="47.70554" lon="-3.04471">
        <ele>26.8</ele>
        <time>2020-06-06T14:37:28Z</time>
      </trkpt>
      <trkpt lat="47.70559" lon="-3.04471">
        <ele>26.9</ele>
        <time>2020-06-06T14:37:29Z</time>
      </trkpt>
      <trkpt lat="47.70565" lon="-3.04473">
        <ele>27</ele>
        <time>2020-06-06T14:37:30Z</time>
      </trkpt>
      <trkpt lat="47.7057" lon="-3.04475">
        <ele>27.1</ele>
        <time>2020-06-06T14:37:31Z</time>
      </trkpt>
      <trkpt lat="47.70575" lon="-3.04476">
        <ele>27.3</ele>
        <time>2020-06-06T14:37:32Z</time>
      </trkpt>
      <trkpt lat="47.7058" lon="-3.04478">
        <ele>27.4</ele>
        <time>2020-06-06T14:37:33Z</time>
      </trkpt>
      <trkpt lat="47.70585" lon="-3.0448">
        <ele>27.5</ele>
        <time>2020-06-06T14:37:34Z</time>
      </trkpt>
      <trkpt lat="47.7059" lon="-3.04483">
        <ele>27.6</ele>
        <time>2020-06-06T14:37:35Z</time>
      </trkpt>
      <trkpt lat="47.70594" lon="-3.04486">
        <ele>27.7</ele>
        <time>2020-06-06T14:37:36Z</time>
      </trkpt>
      <trkpt lat="47.706" lon="-3.04489">
        <ele>27.9</ele>
        <time>2020-06-06T14:37:37Z</time>
      </trkpt>
      <trkpt lat="47.70606" lon="-3.04493">
        <ele>28.1</ele>
        <time>2020-06-06T14:37:38Z</time>
      </trkpt>
      <trkpt lat="47.7061" lon="-3.04496">
        <ele>28.2</ele>
        <time>2020-06-06T14:37:39Z</time>
      </trkpt>
      <trkpt lat="47.70614" lon="-3.045">
        <ele>28.4</ele>
        <time>2020-06-06T14:37:40Z</time>
      </trkpt>
      <trkpt lat="47.70618" lon="-3.04504">
        <ele>28.6</ele>
        <time>2020-06-06T14:37:41Z</time>
      </trkpt>
      <trkpt lat="47.70621" lon="-3.04509">
        <ele>28.9</ele>
        <time>2020-06-06T14:37:42Z</time>
      </trkpt>
      <trkpt lat="47.70624" lon="-3.04515">
        <ele>29.1</ele>
        <time>2020-06-06T14:37:43Z</time>
      </trkpt>
      <trkpt lat="47.70628" lon="-3.04522">
        <ele>29.3</ele>
        <time>2020-06-06T14:37:44Z</time>
      </trkpt>
      <trkpt lat="47.70631" lon="-3.04526">
        <ele>29.5</ele>
        <time>2020-06-06T14:37:45Z</time>
      </trkpt>
      <trkpt lat="47.70635" lon="-3.04531">
        <ele>29.7</ele>
        <time>2020-06-06T14:37:46Z</time>
      </trkpt>
      <trkpt lat="47.70638" lon="-3.04536">
        <ele>29.9</ele>
        <time>2020-06-06T14:37:47Z</time>
      </trkpt>
      <trkpt lat="47.7064" lon="-3.04541">
        <ele>30</ele>
        <time>2020-06-06T14:37:48Z</time>
      </trkpt>
      <trkpt lat="47.70642" lon="-3.04546">
        <ele>30.2</ele>
        <time>2020-06-06T14:37:49Z</time>
      </trkpt>
      <trkpt lat="47.70645" lon="-3.04552">
        <ele>30.4</ele>
        <time>2020-06-06T14:37:50Z</time>
      </trkpt>
      <trkpt lat="47.70647" lon="-3.04557">
        <ele>30.6</ele>
        <time>2020-06-06T14:37:51Z</time>
      </trkpt>
      <trkpt lat="47.7065" lon="-3.04562">
        <ele>30.7</ele>
        <time>2020-06-06T14:37:52Z</time>
      </trkpt>
      <trkpt lat="47.70652" lon="-3.04567">
        <ele>30.9</ele>
        <time>2020-06-06T14:37:53Z</time>
      </trkpt>
      <trkpt lat="47.70654" lon="-3.04572">
        <ele>31.1</ele>
        <time>2020-06-06T14:37:54Z</time>
      </trkpt>
      <trkpt lat="47.70656" lon="-3.04577">
        <ele>31.3</ele>
        <time>2020-06-06T14:37:55Z</time>
      </trkpt>
      <trkpt lat="47.70657" lon="-3.04585">
        <ele>31.6</ele>
        <time>2020-06-06T14:37:56Z</time>
      </trkpt>
      <trkpt lat="47.70658" lon="-3.04592">
        <ele>31.8</ele>
        <time>2020-06-06T14:37:57Z</time>
      </trkpt>
      <trkpt lat="47.7066" lon="-3.04598">
        <ele>32</ele>
        <time>2020-06-06T14:37:58Z</time>
      </trkpt>
      <trkpt lat="47.70661" lon="-3.04603">
        <ele>32.2</ele>
        <time>2020-06-06T14:37:59Z</time>
      </trkpt>
      <trkpt lat="47.70662" lon="-3.04608">
        <ele>32.4</ele>
        <time>2020-06-06T14:38:00Z</time>
      </trkpt>
      <trkpt lat="47.70662" lon="-3.04614">
        <ele>32.6</ele>
        <time>2020-06-06T14:38:01Z</time>
      </trkpt>
      <trkpt lat="47.70663" lon="-3.04619">
        <ele>32.8</ele>
        <time>2020-06-06T14:38:02Z</time>
      </trkpt>
      <trkpt lat="47.70664" lon="-3.04625">
        <ele>33</ele>
        <time>2020-06-06T14:38:03Z</time>
      </trkpt>
      <trkpt lat="47.70664" lon="-3.0463">
        <ele>33.1</ele>
        <time>2020-06-06T14:38:04Z</time>
      </trkpt>
      <trkpt lat="47.70665" lon="-3.04636">
        <ele>33.3</ele>
        <time>2020-06-06T14:38:05Z</time>
      </trkpt>
      <trkpt lat="47.70665" lon="-3.04643">
        <ele>33.5</ele>
        <time>2020-06-06T14:38:06Z</time>
      </trkpt>
      <trkpt lat="47.70666" lon="-3.0465">
        <ele>33.6</ele>
        <time>2020-06-06T14:38:07Z</time>
      </trkpt>
      <trkpt lat="47.70666" lon="-3.04655">
        <ele>33.8</ele>
        <time>2020-06-06T14:38:08Z</time>
      </trkpt>
      <trkpt lat="47.70666" lon="-3.04661">
        <ele>34.1</ele>
        <time>2020-06-06T14:38:09Z</time>
      </trkpt>
      <trkpt lat="47.70666" lon="-3.04668">
        <ele>34.5</ele>
        <time>2020-06-06T14:38:10Z</time>
      </trkpt>
      <trkpt lat="47.70666" lon="-3.04675">
        <ele>34.9</ele>
        <time>2020-06-06T14:38:11Z</time>
      </trkpt>
      <trkpt lat="47.70665" lon="-3.04681">
        <ele>35.2</ele>
        <time>2020-06-06T14:38:12Z</time>
      </trkpt>
      <trkpt lat="47.70664" lon="-3.04688">
        <ele>35.7</ele>
        <time>2020-06-06T14:38:13Z</time>
      </trkpt>
      <trkpt lat="47.70664" lon="-3.04696">
        <ele>35.6</ele>
        <time>2020-06-06T14:38:14Z</time>
      </trkpt>
      <trkpt lat="47.70663" lon="-3.04703">
        <ele>35.6</ele>
        <time>2020-06-06T14:38:15Z</time>
      </trkpt>
      <trkpt lat="47.70663" lon="-3.0471">
        <ele>35.6</ele>
        <time>2020-06-06T14:38:16Z</time>
      </trkpt>
      <trkpt lat="47.70662" lon="-3.04717">
        <ele>35.7</ele>
        <time>2020-06-06T14:38:17Z</time>
      </trkpt>
      <trkpt lat="47.70661" lon="-3.04724">
        <ele>35.7</ele>
        <time>2020-06-06T14:38:18Z</time>
      </trkpt>
      <trkpt lat="47.7066" lon="-3.0473">
        <ele>35.7</ele>
        <time>2020-06-06T14:38:19Z</time>
      </trkpt>
      <trkpt lat="47.70659" lon="-3.04737">
        <ele>35.7</ele>
        <time>2020-06-06T14:38:20Z</time>
      </trkpt>
      <trkpt lat="47.70657" lon="-3.04746">
        <ele>35.7</ele>
        <time>2020-06-06T14:38:21Z</time>
      </trkpt>
      <trkpt lat="47.70655" lon="-3.04752">
        <ele>35.8</ele>
        <time>2020-06-06T14:38:22Z</time>
      </trkpt>
      <trkpt lat="47.70653" lon="-3.04759">
        <ele>35.8</ele>
        <time>2020-06-06T14:38:23Z</time>
      </trkpt>
      <trkpt lat="47.70651" lon="-3.04766">
        <ele>35.8</ele>
        <time>2020-06-06T14:38:24Z</time>
      </trkpt>
      <trkpt lat="47.7065" lon="-3.04772">
        <ele>35.8</ele>
        <time>2020-06-06T14:38:25Z</time>
      </trkpt>
      <trkpt lat="47.70648" lon="-3.04778">
        <ele>35.8</ele>
        <time>2020-06-06T14:38:26Z</time>
      </trkpt>
      <trkpt lat="47.70647" lon="-3.04785">
        <ele>35.8</ele>
        <time>2020-06-06T14:38:27Z</time>
      </trkpt>
      <trkpt lat="47.70645" lon="-3.04791">
        <ele>35.8</ele>
        <time>2020-06-06T14:38:28Z</time>
      </trkpt>
      <trkpt lat="47.70643" lon="-3.04799">
        <ele>35.8</ele>
        <time>2020-06-06T14:38:29Z</time>
      </trkpt>
      <trkpt lat="47.70641" lon="-3.04804">
        <ele>35.8</ele>
        <time>2020-06-06T14:38:30Z</time>
      </trkpt>
      <trkpt lat="47.70639" lon="-3.0481">
        <ele>35.7</ele>
        <time>2020-06-06T14:38:31Z</time>
      </trkpt>
      <trkpt lat="47.70638" lon="-3.04816">
        <ele>35.7</ele>
        <time>2020-06-06T14:38:32Z</time>
      </trkpt>
      <trkpt lat="47.70636" lon="-3.04822">
        <ele>35.6</ele>
        <time>2020-06-06T14:38:33Z</time>
      </trkpt>
      <trkpt lat="47.70635" lon="-3.04828">
        <ele>35.6</ele>
        <time>2020-06-06T14:38:34Z</time>
      </trkpt>
      <trkpt lat="47.70633" lon="-3.04835">
        <ele>35.6</ele>
        <time>2020-06-06T14:38:35Z</time>
      </trkpt>
      <trkpt lat="47.70632" lon="-3.04845">
        <ele>35.5</ele>
        <time>2020-06-06T14:38:36Z</time>
      </trkpt>
      <trkpt lat="47.70631" lon="-3.04855">
        <ele>35.4</ele>
        <time>2020-06-06T14:38:37Z</time>
      </trkpt>
      <trkpt lat="47.70631" lon="-3.04863">
        <ele>35.3</ele>
        <time>2020-06-06T14:38:38Z</time>
      </trkpt>
      <trkpt lat="47.7063" lon="-3.04872">
        <ele>35.1</ele>
        <time>2020-06-06T14:38:39Z</time>
      </trkpt>
      <trkpt lat="47.70629" lon="-3.04881">
        <ele>35</ele>
        <time>2020-06-06T14:38:40Z</time>
      </trkpt>
      <trkpt lat="47.70629" lon="-3.0489">
        <ele>34.9</ele>
        <time>2020-06-06T14:38:41Z</time>
      </trkpt>
      <trkpt lat="47.7063" lon="-3.04898">
        <ele>34.8</ele>
        <time>2020-06-06T14:38:42Z</time>
      </trkpt>
      <trkpt lat="47.7063" lon="-3.04906">
        <ele>34.6</ele>
        <time>2020-06-06T14:38:43Z</time>
      </trkpt>
      <trkpt lat="47.7063" lon="-3.04915">
        <ele>34.2</ele>
        <time>2020-06-06T14:38:44Z</time>
      </trkpt>
      <trkpt lat="47.70631" lon="-3.04923">
        <ele>33.9</ele>
        <time>2020-06-06T14:38:45Z</time>
      </trkpt>
      <trkpt lat="47.70632" lon="-3.04933">
        <ele>33.6</ele>
        <time>2020-06-06T14:38:46Z</time>
      </trkpt>
      <trkpt lat="47.70633" lon="-3.04941">
        <ele>33.3</ele>
        <time>2020-06-06T14:38:47Z</time>
      </trkpt>
      <trkpt lat="47.70635" lon="-3.0495">
        <ele>32.9</ele>
        <time>2020-06-06T14:38:48Z</time>
      </trkpt>
      <trkpt lat="47.70636" lon="-3.04959">
        <ele>32.6</ele>
        <time>2020-06-06T14:38:49Z</time>
      </trkpt>
      <trkpt lat="47.70638" lon="-3.04967">
        <ele>32.3</ele>
        <time>2020-06-06T14:38:50Z</time>
      </trkpt>
      <trkpt lat="47.70641" lon="-3.04976">
        <ele>31.9</ele>
        <time>2020-06-06T14:38:51Z</time>
      </trkpt>
      <trkpt lat="47.70645" lon="-3.04985">
        <ele>31.4</ele>
        <time>2020-06-06T14:38:52Z</time>
      </trkpt>
      <trkpt lat="47.70648" lon="-3.04993">
        <ele>31.1</ele>
        <time>2020-06-06T14:38:53Z</time>
      </trkpt>
      <trkpt lat="47.70652" lon="-3.05001">
        <ele>30.7</ele>
        <time>2020-06-06T14:38:54Z</time>
      </trkpt>
      <trkpt lat="47.70657" lon="-3.05009">
        <ele>30.7</ele>
        <time>2020-06-06T14:38:55Z</time>
      </trkpt>
      <trkpt lat="47.70663" lon="-3.05017">
        <ele>30.5</ele>
        <time>2020-06-06T14:38:56Z</time>
      </trkpt>
      <trkpt lat="47.70667" lon="-3.05024">
        <ele>30.3</ele>
        <time>2020-06-06T14:38:57Z</time>
      </trkpt>
      <trkpt lat="47.70673" lon="-3.05032">
        <ele>29.9</ele>
        <time>2020-06-06T14:38:58Z</time>
      </trkpt>
      <trkpt lat="47.70678" lon="-3.05037">
        <ele>29.6</ele>
        <time>2020-06-06T14:38:59Z</time>
      </trkpt>
      <trkpt lat="47.70684" lon="-3.05042">
        <ele>29.4</ele>
        <time>2020-06-06T14:39:00Z</time>
      </trkpt>
      <trkpt lat="47.7069" lon="-3.05046">
        <ele>29.1</ele>
        <time>2020-06-06T14:39:01Z</time>
      </trkpt>
      <trkpt lat="47.70696" lon="-3.0505">
        <ele>28.9</ele>
        <time>2020-06-06T14:39:02Z</time>
      </trkpt>
      <trkpt lat="47.70702" lon="-3.05054">
        <ele>28.6</ele>
        <time>2020-06-06T14:39:03Z</time>
      </trkpt>
      <trkpt lat="47.70709" lon="-3.05057">
        <ele>28.4</ele>
        <time>2020-06-06T14:39:04Z</time>
      </trkpt>
      <trkpt lat="47.70716" lon="-3.05061">
        <ele>28.1</ele>
        <time>2020-06-06T14:39:05Z</time>
      </trkpt>
      <trkpt lat="47.70723" lon="-3.05064">
        <ele>27.9</ele>
        <time>2020-06-06T14:39:06Z</time>
      </trkpt>
      <trkpt lat="47.7073" lon="-3.05066">
        <ele>27.8</ele>
        <time>2020-06-06T14:39:07Z</time>
      </trkpt>
      <trkpt lat="47.70736" lon="-3.05067">
        <ele>27.7</ele>
        <time>2020-06-06T14:39:08Z</time>
      </trkpt>
      <trkpt lat="47.70742" lon="-3.05068">
        <ele>27.6</ele>
        <time>2020-06-06T14:39:09Z</time>
      </trkpt>
      <trkpt lat="47.70748" lon="-3.05069">
        <ele>27.5</ele>
        <time>2020-06-06T14:39:10Z</time>
      </trkpt>
      <trkpt lat="47.70754" lon="-3.0507">
        <ele>27.4</ele>
        <time>2020-06-06T14:39:11Z</time>
      </trkpt>
      <trkpt lat="47.70759" lon="-3.05069">
        <ele>27.3</ele>
        <time>2020-06-06T14:39:12Z</time>
      </trkpt>
      <trkpt lat="47.70764" lon="-3.0507">
        <ele>27.3</ele>
        <time>2020-06-06T14:39:13Z</time>
      </trkpt>
      <trkpt lat="47.70769" lon="-3.0507">
        <ele>27.2</ele>
        <time>2020-06-06T14:39:14Z</time>
      </trkpt>
      <trkpt lat="47.70775" lon="-3.0507">
        <ele>27.2</ele>
        <time>2020-06-06T14:39:15Z</time>
      </trkpt>
      <trkpt lat="47.70781" lon="-3.0507">
        <ele>27.2</ele>
        <time>2020-06-06T14:39:16Z</time>
      </trkpt>
      <trkpt lat="47.70788" lon="-3.05071">
        <ele>27.3</ele>
        <time>2020-06-06T14:39:17Z</time>
      </trkpt>
      <trkpt lat="47.70793" lon="-3.05071">
        <ele>27.3</ele>
        <time>2020-06-06T14:39:18Z</time>
      </trkpt>
      <trkpt lat="47.70797" lon="-3.05071">
        <ele>27.4</ele>
        <time>2020-06-06T14:39:19Z</time>
      </trkpt>
      <trkpt lat="47.70803" lon="-3.05072">
        <ele>27.4</ele>
        <time>2020-06-06T14:39:20Z</time>
      </trkpt>
      <trkpt lat="47.70808" lon="-3.05072">
        <ele>27.5</ele>
        <time>2020-06-06T14:39:21Z</time>
      </trkpt>
      <trkpt lat="47.70814" lon="-3.05074">
        <ele>27.5</ele>
        <time>2020-06-06T14:39:22Z</time>
      </trkpt>
      <trkpt lat="47.70819" lon="-3.05075">
        <ele>27.6</ele>
        <time>2020-06-06T14:39:23Z</time>
      </trkpt>
      <trkpt lat="47.70825" lon="-3.05076">
        <ele>27.6</ele>
        <time>2020-06-06T14:39:24Z</time>
      </trkpt>
      <trkpt lat="47.7083" lon="-3.05077">
        <ele>27.7</ele>
        <time>2020-06-06T14:39:25Z</time>
      </trkpt>
      <trkpt lat="47.70836" lon="-3.05078">
        <ele>27.7</ele>
        <time>2020-06-06T14:39:26Z</time>
      </trkpt>
      <trkpt lat="47.7084" lon="-3.0508">
        <ele>27.7</ele>
        <time>2020-06-06T14:39:27Z</time>
      </trkpt>
      <trkpt lat="47.70844" lon="-3.05082">
        <ele>27.8</ele>
        <time>2020-06-06T14:39:28Z</time>
      </trkpt>
      <trkpt lat="47.70849" lon="-3.05084">
        <ele>27.8</ele>
        <time>2020-06-06T14:39:29Z</time>
      </trkpt>
      <trkpt lat="47.70853" lon="-3.05087">
        <ele>27.8</ele>
        <time>2020-06-06T14:39:30Z</time>
      </trkpt>
      <trkpt lat="47.70858" lon="-3.05091">
        <ele>27.9</ele>
        <time>2020-06-06T14:39:31Z</time>
      </trkpt>
      <trkpt lat="47.70863" lon="-3.05094">
        <ele>27.9</ele>
        <time>2020-06-06T14:39:32Z</time>
      </trkpt>
      <trkpt lat="47.70868" lon="-3.05097">
        <ele>27.9</ele>
        <time>2020-06-06T14:39:33Z</time>
      </trkpt>
      <trkpt lat="47.70872" lon="-3.05101">
        <ele>27.9</ele>
        <time>2020-06-06T14:39:34Z</time>
      </trkpt>
      <trkpt lat="47.70877" lon="-3.05105">
        <ele>28</ele>
        <time>2020-06-06T14:39:35Z</time>
      </trkpt>
      <trkpt lat="47.70881" lon="-3.05109">
        <ele>28</ele>
        <time>2020-06-06T14:39:36Z</time>
      </trkpt>
      <trkpt lat="47.70885" lon="-3.05113">
        <ele>28</ele>
        <time>2020-06-06T14:39:37Z</time>
      </trkpt>
      <trkpt lat="47.70889" lon="-3.05118">
        <ele>28.1</ele>
        <time>2020-06-06T14:39:38Z</time>
      </trkpt>
      <trkpt lat="47.70893" lon="-3.05122">
        <ele>28.1</ele>
        <time>2020-06-06T14:39:39Z</time>
      </trkpt>
      <trkpt lat="47.70897" lon="-3.05127">
        <ele>28.2</ele>
        <time>2020-06-06T14:39:40Z</time>
      </trkpt>
      <trkpt lat="47.70901" lon="-3.05131">
        <ele>28.2</ele>
        <time>2020-06-06T14:39:41Z</time>
      </trkpt>
      <trkpt lat="47.70906" lon="-3.05136">
        <ele>28.3</ele>
        <time>2020-06-06T14:39:42Z</time>
      </trkpt>
      <trkpt lat="47.7091" lon="-3.05141">
        <ele>28.3</ele>
        <time>2020-06-06T14:39:43Z</time>
      </trkpt>
      <trkpt lat="47.70915" lon="-3.05147">
        <ele>28.4</ele>
        <time>2020-06-06T14:39:44Z</time>
      </trkpt>
      <trkpt lat="47.70919" lon="-3.05153">
        <ele>28.5</ele>
        <time>2020-06-06T14:39:45Z</time>
      </trkpt>
      <trkpt lat="47.70924" lon="-3.05159">
        <ele>28.6</ele>
        <time>2020-06-06T14:39:46Z</time>
      </trkpt>
      <trkpt lat="47.70929" lon="-3.05165">
        <ele>28.6</ele>
        <time>2020-06-06T14:39:47Z</time>
      </trkpt>
      <trkpt lat="47.70933" lon="-3.0517">
        <ele>28.7</ele>
        <time>2020-06-06T14:39:48Z</time>
      </trkpt>
      <trkpt lat="47.70938" lon="-3.05176">
        <ele>28.8</ele>
        <time>2020-06-06T14:39:49Z</time>
      </trkpt>
      <trkpt lat="47.70943" lon="-3.05182">
        <ele>29</ele>
        <time>2020-06-06T14:39:50Z</time>
      </trkpt>
      <trkpt lat="47.70947" lon="-3.05188">
        <ele>29.2</ele>
        <time>2020-06-06T14:39:51Z</time>
      </trkpt>
      <trkpt lat="47.70952" lon="-3.05193">
        <ele>29.4</ele>
        <time>2020-06-06T14:39:52Z</time>
      </trkpt>
      <trkpt lat="47.70956" lon="-3.05198">
        <ele>29.6</ele>
        <time>2020-06-06T14:39:53Z</time>
      </trkpt>
      <trkpt lat="47.70961" lon="-3.05203">
        <ele>29.7</ele>
        <time>2020-06-06T14:39:54Z</time>
      </trkpt>
      <trkpt lat="47.70965" lon="-3.05208">
        <ele>29.9</ele>
        <time>2020-06-06T14:39:55Z</time>
      </trkpt>
      <trkpt lat="47.70969" lon="-3.05215">
        <ele>30</ele>
        <time>2020-06-06T14:39:56Z</time>
      </trkpt>
      <trkpt lat="47.70973" lon="-3.0522">
        <ele>30.2</ele>
        <time>2020-06-06T14:39:57Z</time>
      </trkpt>
      <trkpt lat="47.70978" lon="-3.05226">
        <ele>30.4</ele>
        <time>2020-06-06T14:39:58Z</time>
      </trkpt>
      <trkpt lat="47.70982" lon="-3.05231">
        <ele>30.5</ele>
        <time>2020-06-06T14:39:59Z</time>
      </trkpt>
      <trkpt lat="47.70988" lon="-3.05236">
        <ele>30.7</ele>
        <time>2020-06-06T14:40:00Z</time>
      </trkpt>
      <trkpt lat="47.70992" lon="-3.05241">
        <ele>30.9</ele>
        <time>2020-06-06T14:40:01Z</time>
      </trkpt>
      <trkpt lat="47.70996" lon="-3.05246">
        <ele>31.1</ele>
        <time>2020-06-06T14:40:02Z</time>
      </trkpt>
      <trkpt lat="47.71001" lon="-3.05251">
        <ele>31.3</ele>
        <time>2020-06-06T14:40:03Z</time>
      </trkpt>
      <trkpt lat="47.71006" lon="-3.05257">
        <ele>31.4</ele>
        <time>2020-06-06T14:40:04Z</time>
      </trkpt>
      <trkpt lat="47.7101" lon="-3.05263">
        <ele>31.6</ele>
        <time>2020-06-06T14:40:05Z</time>
      </trkpt>
      <trkpt lat="47.71015" lon="-3.05269">
        <ele>31.8</ele>
        <time>2020-06-06T14:40:06Z</time>
      </trkpt>
      <trkpt lat="47.7102" lon="-3.05274">
        <ele>31.9</ele>
        <time>2020-06-06T14:40:07Z</time>
      </trkpt>
      <trkpt lat="47.71024" lon="-3.0528">
        <ele>32.1</ele>
        <time>2020-06-06T14:40:08Z</time>
      </trkpt>
      <trkpt lat="47.71029" lon="-3.05286">
        <ele>32.2</ele>
        <time>2020-06-06T14:40:09Z</time>
      </trkpt>
      <trkpt lat="47.71034" lon="-3.05292">
        <ele>32.3</ele>
        <time>2020-06-06T14:40:10Z</time>
      </trkpt>
      <trkpt lat="47.71039" lon="-3.05298">
        <ele>32.4</ele>
        <time>2020-06-06T14:40:11Z</time>
      </trkpt>
      <trkpt lat="47.71044" lon="-3.05305">
        <ele>32.5</ele>
        <time>2020-06-06T14:40:12Z</time>
      </trkpt>
      <trkpt lat="47.71048" lon="-3.05312">
        <ele>32.6</ele>
        <time>2020-06-06T14:40:13Z</time>
      </trkpt>
      <trkpt lat="47.71054" lon="-3.05317">
        <ele>32.7</ele>
        <time>2020-06-06T14:40:14Z</time>
      </trkpt>
      <trkpt lat="47.71058" lon="-3.05323">
        <ele>32.7</ele>
        <time>2020-06-06T14:40:15Z</time>
      </trkpt>
      <trkpt lat="47.71063" lon="-3.05328">
        <ele>32.8</ele>
        <time>2020-06-06T14:40:16Z</time>
      </trkpt>
      <trkpt lat="47.71068" lon="-3.05333">
        <ele>32.8</ele>
        <time>2020-06-06T14:40:17Z</time>
      </trkpt>
      <trkpt lat="47.71072" lon="-3.05338">
        <ele>32.9</ele>
        <time>2020-06-06T14:40:18Z</time>
      </trkpt>
      <trkpt lat="47.71077" lon="-3.05344">
        <ele>32.9</ele>
        <time>2020-06-06T14:40:19Z</time>
      </trkpt>
      <trkpt lat="47.71081" lon="-3.05348">
        <ele>32.9</ele>
        <time>2020-06-06T14:40:20Z</time>
      </trkpt>
      <trkpt lat="47.71085" lon="-3.05353">
        <ele>32.9</ele>
        <time>2020-06-06T14:40:21Z</time>
      </trkpt>
      <trkpt lat="47.71088" lon="-3.05356">
        <ele>32.8</ele>
        <time>2020-06-06T14:40:22Z</time>
      </trkpt>
      <trkpt lat="47.71091" lon="-3.05361">
        <ele>32.8</ele>
        <time>2020-06-06T14:40:23Z</time>
      </trkpt>
      <trkpt lat="47.71095" lon="-3.05365">
        <ele>32.8</ele>
        <time>2020-06-06T14:40:24Z</time>
      </trkpt>
      <trkpt lat="47.71098" lon="-3.05369">
        <ele>32.8</ele>
        <time>2020-06-06T14:40:25Z</time>
      </trkpt>
      <trkpt lat="47.71102" lon="-3.05374">
        <ele>32.8</ele>
        <time>2020-06-06T14:40:26Z</time>
      </trkpt>
      <trkpt lat="47.71106" lon="-3.05379">
        <ele>32.8</ele>
        <time>2020-06-06T14:40:27Z</time>
      </trkpt>
      <trkpt lat="47.71112" lon="-3.05383">
        <ele>32.8</ele>
        <time>2020-06-06T14:40:28Z</time>
      </trkpt>
      <trkpt lat="47.71117" lon="-3.05388">
        <ele>32.8</ele>
        <time>2020-06-06T14:40:29Z</time>
      </trkpt>
      <trkpt lat="47.71122" lon="-3.05394">
        <ele>32.8</ele>
        <time>2020-06-06T14:40:30Z</time>
      </trkpt>
      <trkpt lat="47.71127" lon="-3.05399">
        <ele>32.7</ele>
        <time>2020-06-06T14:40:31Z</time>
      </trkpt>
      <trkpt lat="47.71132" lon="-3.05404">
        <ele>32.7</ele>
        <time>2020-06-06T14:40:32Z</time>
      </trkpt>
      <trkpt lat="47.71136" lon="-3.05409">
        <ele>32.7</ele>
        <time>2020-06-06T14:40:33Z</time>
      </trkpt>
      <trkpt lat="47.71141" lon="-3.05414">
        <ele>32.6</ele>
        <time>2020-06-06T14:40:34Z</time>
      </trkpt>
      <trkpt lat="47.71145" lon="-3.05419">
        <ele>32.6</ele>
        <time>2020-06-06T14:40:35Z</time>
      </trkpt>
      <trkpt lat="47.7115" lon="-3.05425">
        <ele>32.6</ele>
        <time>2020-06-06T14:40:36Z</time>
      </trkpt>
      <trkpt lat="47.71154" lon="-3.05429">
        <ele>32.6</ele>
        <time>2020-06-06T14:40:37Z</time>
      </trkpt>
      <trkpt lat="47.71159" lon="-3.05434">
        <ele>32.6</ele>
        <time>2020-06-06T14:40:38Z</time>
      </trkpt>
      <trkpt lat="47.71163" lon="-3.05438">
        <ele>32.6</ele>
        <time>2020-06-06T14:40:39Z</time>
      </trkpt>
      <trkpt lat="47.71167" lon="-3.05443">
        <ele>32.6</ele>
        <time>2020-06-06T14:40:40Z</time>
      </trkpt>
      <trkpt lat="47.71173" lon="-3.05448">
        <ele>32.6</ele>
        <time>2020-06-06T14:40:41Z</time>
      </trkpt>
      <trkpt lat="47.71178" lon="-3.05452">
        <ele>32.6</ele>
        <time>2020-06-06T14:40:42Z</time>
      </trkpt>
      <trkpt lat="47.71183" lon="-3.05456">
        <ele>32.6</ele>
        <time>2020-06-06T14:40:43Z</time>
      </trkpt>
      <trkpt lat="47.71188" lon="-3.05461">
        <ele>32.6</ele>
        <time>2020-06-06T14:40:44Z</time>
      </trkpt>
      <trkpt lat="47.71193" lon="-3.05466">
        <ele>32.5</ele>
        <time>2020-06-06T14:40:45Z</time>
      </trkpt>
      <trkpt lat="47.71198" lon="-3.05471">
        <ele>32.5</ele>
        <time>2020-06-06T14:40:46Z</time>
      </trkpt>
      <trkpt lat="47.71203" lon="-3.05476">
        <ele>32.5</ele>
        <time>2020-06-06T14:40:47Z</time>
      </trkpt>
      <trkpt lat="47.71208" lon="-3.05481">
        <ele>32.5</ele>
        <time>2020-06-06T14:40:48Z</time>
      </trkpt>
      <trkpt lat="47.71214" lon="-3.05486">
        <ele>32.4</ele>
        <time>2020-06-06T14:40:49Z</time>
      </trkpt>
      <trkpt lat="47.71218" lon="-3.05491">
        <ele>32.4</ele>
        <time>2020-06-06T14:40:50Z</time>
      </trkpt>
      <trkpt lat="47.71223" lon="-3.05497">
        <ele>32.4</ele>
        <time>2020-06-06T14:40:51Z</time>
      </trkpt>
      <trkpt lat="47.71228" lon="-3.05503">
        <ele>32.3</ele>
        <time>2020-06-06T14:40:52Z</time>
      </trkpt>
      <trkpt lat="47.71234" lon="-3.05508">
        <ele>32.3</ele>
        <time>2020-06-06T14:40:53Z</time>
      </trkpt>
      <trkpt lat="47.71239" lon="-3.05513">
        <ele>32.3</ele>
        <time>2020-06-06T14:40:54Z</time>
      </trkpt>
      <trkpt lat="47.71244" lon="-3.05519">
        <ele>32.2</ele>
        <time>2020-06-06T14:40:55Z</time>
      </trkpt>
      <trkpt lat="47.71248" lon="-3.05524">
        <ele>32.2</ele>
        <time>2020-06-06T14:40:56Z</time>
      </trkpt>
      <trkpt lat="47.71252" lon="-3.0553">
        <ele>32.2</ele>
        <time>2020-06-06T14:40:57Z</time>
      </trkpt>
      <trkpt lat="47.71257" lon="-3.05535">
        <ele>32.1</ele>
        <time>2020-06-06T14:40:58Z</time>
      </trkpt>
      <trkpt lat="47.71262" lon="-3.05542">
        <ele>32.1</ele>
        <time>2020-06-06T14:40:59Z</time>
      </trkpt>
      <trkpt lat="47.71266" lon="-3.05546">
        <ele>32.1</ele>
        <time>2020-06-06T14:41:00Z</time>
      </trkpt>
      <trkpt lat="47.7127" lon="-3.05552">
        <ele>32.2</ele>
        <time>2020-06-06T14:41:01Z</time>
      </trkpt>
      <trkpt lat="47.71275" lon="-3.05557">
        <ele>32.2</ele>
        <time>2020-06-06T14:41:02Z</time>
      </trkpt>
      <trkpt lat="47.7128" lon="-3.05562">
        <ele>32.2</ele>
        <time>2020-06-06T14:41:03Z</time>
      </trkpt>
      <trkpt lat="47.71285" lon="-3.05567">
        <ele>32.1</ele>
        <time>2020-06-06T14:41:04Z</time>
      </trkpt>
      <trkpt lat="47.7129" lon="-3.05574">
        <ele>32.1</ele>
        <time>2020-06-06T14:41:05Z</time>
      </trkpt>
      <trkpt lat="47.71293" lon="-3.05578">
        <ele>32.1</ele>
        <time>2020-06-06T14:41:06Z</time>
      </trkpt>
      <trkpt lat="47.71297" lon="-3.05581">
        <ele>32</ele>
        <time>2020-06-06T14:41:07Z</time>
      </trkpt>
      <trkpt lat="47.713" lon="-3.05586">
        <ele>32</ele>
        <time>2020-06-06T14:41:08Z</time>
      </trkpt>
      <trkpt lat="47.71304" lon="-3.05589">
        <ele>31.9</ele>
        <time>2020-06-06T14:41:09Z</time>
      </trkpt>
      <trkpt lat="47.71308" lon="-3.05594">
        <ele>31.9</ele>
        <time>2020-06-06T14:41:10Z</time>
      </trkpt>
      <trkpt lat="47.71312" lon="-3.056">
        <ele>31.8</ele>
        <time>2020-06-06T14:41:11Z</time>
      </trkpt>
      <trkpt lat="47.71315" lon="-3.05603">
        <ele>31.8</ele>
        <time>2020-06-06T14:41:12Z</time>
      </trkpt>
      <trkpt lat="47.71317" lon="-3.05609">
        <ele>31.7</ele>
        <time>2020-06-06T14:41:13Z</time>
      </trkpt>
      <trkpt lat="47.71321" lon="-3.05614">
        <ele>31.7</ele>
        <time>2020-06-06T14:41:14Z</time>
      </trkpt>
      <trkpt lat="47.71325" lon="-3.05621">
        <ele>31.6</ele>
        <time>2020-06-06T14:41:15Z</time>
      </trkpt>
      <trkpt lat="47.7133" lon="-3.05627">
        <ele>31.6</ele>
        <time>2020-06-06T14:41:16Z</time>
      </trkpt>
      <trkpt lat="47.71334" lon="-3.05632">
        <ele>31.5</ele>
        <time>2020-06-06T14:41:17Z</time>
      </trkpt>
      <trkpt lat="47.71337" lon="-3.05637">
        <ele>31.5</ele>
        <time>2020-06-06T14:41:18Z</time>
      </trkpt>
      <trkpt lat="47.71341" lon="-3.05643">
        <ele>31.4</ele>
        <time>2020-06-06T14:41:19Z</time>
      </trkpt>
      <trkpt lat="47.71345" lon="-3.05649">
        <ele>31.4</ele>
        <time>2020-06-06T14:41:20Z</time>
      </trkpt>
      <trkpt lat="47.71349" lon="-3.05657">
        <ele>31.3</ele>
        <time>2020-06-06T14:41:21Z</time>
      </trkpt>
      <trkpt lat="47.71353" lon="-3.05664">
        <ele>31.3</ele>
        <time>2020-06-06T14:41:22Z</time>
      </trkpt>
      <trkpt lat="47.71358" lon="-3.05672">
        <ele>31.2</ele>
        <time>2020-06-06T14:41:23Z</time>
      </trkpt>
      <trkpt lat="47.71362" lon="-3.0568">
        <ele>31.1</ele>
        <time>2020-06-06T14:41:24Z</time>
      </trkpt>
      <trkpt lat="47.71366" lon="-3.05686">
        <ele>31.1</ele>
        <time>2020-06-06T14:41:25Z</time>
      </trkpt>
      <trkpt lat="47.71371" lon="-3.05692">
        <ele>31</ele>
        <time>2020-06-06T14:41:26Z</time>
      </trkpt>
      <trkpt lat="47.71376" lon="-3.05699">
        <ele>30.8</ele>
        <time>2020-06-06T14:41:27Z</time>
      </trkpt>
      <trkpt lat="47.7138" lon="-3.05705">
        <ele>30.8</ele>
        <time>2020-06-06T14:41:28Z</time>
      </trkpt>
      <trkpt lat="47.71385" lon="-3.05711">
        <ele>30.7</ele>
        <time>2020-06-06T14:41:29Z</time>
      </trkpt>
      <trkpt lat="47.71389" lon="-3.05717">
        <ele>30.6</ele>
        <time>2020-06-06T14:41:30Z</time>
      </trkpt>
      <trkpt lat="47.71393" lon="-3.05723">
        <ele>30.5</ele>
        <time>2020-06-06T14:41:31Z</time>
      </trkpt>
      <trkpt lat="47.71397" lon="-3.0573">
        <ele>30.4</ele>
        <time>2020-06-06T14:41:32Z</time>
      </trkpt>
      <trkpt lat="47.71402" lon="-3.05736">
        <ele>30.3</ele>
        <time>2020-06-06T14:41:33Z</time>
      </trkpt>
      <trkpt lat="47.71406" lon="-3.05741">
        <ele>30.2</ele>
        <time>2020-06-06T14:41:34Z</time>
      </trkpt>
      <trkpt lat="47.71411" lon="-3.05746">
        <ele>30.1</ele>
        <time>2020-06-06T14:41:35Z</time>
      </trkpt>
      <trkpt lat="47.71415" lon="-3.05751">
        <ele>30.1</ele>
        <time>2020-06-06T14:41:36Z</time>
      </trkpt>
      <trkpt lat="47.7142" lon="-3.05757">
        <ele>30</ele>
        <time>2020-06-06T14:41:37Z</time>
      </trkpt>
      <trkpt lat="47.71424" lon="-3.05761">
        <ele>29.9</ele>
        <time>2020-06-06T14:41:38Z</time>
      </trkpt>
      <trkpt lat="47.71429" lon="-3.05766">
        <ele>29.8</ele>
        <time>2020-06-06T14:41:39Z</time>
      </trkpt>
      <trkpt lat="47.71434" lon="-3.05772">
        <ele>29.7</ele>
        <time>2020-06-06T14:41:40Z</time>
      </trkpt>
      <trkpt lat="47.71439" lon="-3.05777">
        <ele>29.6</ele>
        <time>2020-06-06T14:41:41Z</time>
      </trkpt>
      <trkpt lat="47.71444" lon="-3.05783">
        <ele>29.5</ele>
        <time>2020-06-06T14:41:42Z</time>
      </trkpt>
      <trkpt lat="47.71449" lon="-3.05789">
        <ele>29.4</ele>
        <time>2020-06-06T14:41:43Z</time>
      </trkpt>
      <trkpt lat="47.71454" lon="-3.05795">
        <ele>29.4</ele>
        <time>2020-06-06T14:41:44Z</time>
      </trkpt>
      <trkpt lat="47.71459" lon="-3.05801">
        <ele>29.3</ele>
        <time>2020-06-06T14:41:45Z</time>
      </trkpt>
      <trkpt lat="47.71464" lon="-3.05806">
        <ele>29.2</ele>
        <time>2020-06-06T14:41:46Z</time>
      </trkpt>
      <trkpt lat="47.71469" lon="-3.05811">
        <ele>29.1</ele>
        <time>2020-06-06T14:41:47Z</time>
      </trkpt>
      <trkpt lat="47.71472" lon="-3.05816">
        <ele>29</ele>
        <time>2020-06-06T14:41:48Z</time>
      </trkpt>
      <trkpt lat="47.71476" lon="-3.0582">
        <ele>28.9</ele>
        <time>2020-06-06T14:41:49Z</time>
      </trkpt>
      <trkpt lat="47.7148" lon="-3.05824">
        <ele>28.9</ele>
        <time>2020-06-06T14:41:50Z</time>
      </trkpt>
      <trkpt lat="47.71485" lon="-3.05829">
        <ele>28.8</ele>
        <time>2020-06-06T14:41:51Z</time>
      </trkpt>
      <trkpt lat="47.71489" lon="-3.05834">
        <ele>28.7</ele>
        <time>2020-06-06T14:41:52Z</time>
      </trkpt>
      <trkpt lat="47.71494" lon="-3.0584">
        <ele>28.7</ele>
        <time>2020-06-06T14:41:53Z</time>
      </trkpt>
      <trkpt lat="47.71498" lon="-3.05846">
        <ele>28.6</ele>
        <time>2020-06-06T14:41:54Z</time>
      </trkpt>
      <trkpt lat="47.71502" lon="-3.05852">
        <ele>28.5</ele>
        <time>2020-06-06T14:41:55Z</time>
      </trkpt>
      <trkpt lat="47.71507" lon="-3.05858">
        <ele>28.4</ele>
        <time>2020-06-06T14:41:56Z</time>
      </trkpt>
      <trkpt lat="47.71512" lon="-3.05864">
        <ele>28.4</ele>
        <time>2020-06-06T14:41:57Z</time>
      </trkpt>
      <trkpt lat="47.71516" lon="-3.05869">
        <ele>28.3</ele>
        <time>2020-06-06T14:41:58Z</time>
      </trkpt>
      <trkpt lat="47.71522" lon="-3.05876">
        <ele>28.2</ele>
        <time>2020-06-06T14:41:59Z</time>
      </trkpt>
      <trkpt lat="47.71526" lon="-3.05881">
        <ele>28.1</ele>
        <time>2020-06-06T14:42:00Z</time>
      </trkpt>
      <trkpt lat="47.71532" lon="-3.05886">
        <ele>28</ele>
        <time>2020-06-06T14:42:01Z</time>
      </trkpt>
      <trkpt lat="47.71536" lon="-3.05892">
        <ele>28</ele>
        <time>2020-06-06T14:42:02Z</time>
      </trkpt>
      <trkpt lat="47.71541" lon="-3.05898">
        <ele>27.9</ele>
        <time>2020-06-06T14:42:03Z</time>
      </trkpt>
      <trkpt lat="47.71545" lon="-3.05903">
        <ele>27.8</ele>
        <time>2020-06-06T14:42:04Z</time>
      </trkpt>
      <trkpt lat="47.7155" lon="-3.0591">
        <ele>27.7</ele>
        <time>2020-06-06T14:42:05Z</time>
      </trkpt>
      <trkpt lat="47.71556" lon="-3.05915">
        <ele>27.6</ele>
        <time>2020-06-06T14:42:06Z</time>
      </trkpt>
      <trkpt lat="47.71561" lon="-3.05921">
        <ele>27.5</ele>
        <time>2020-06-06T14:42:07Z</time>
      </trkpt>
      <trkpt lat="47.71567" lon="-3.05928">
        <ele>27.5</ele>
        <time>2020-06-06T14:42:08Z</time>
      </trkpt>
      <trkpt lat="47.71572" lon="-3.05934">
        <ele>27.4</ele>
        <time>2020-06-06T14:42:09Z</time>
      </trkpt>
      <trkpt lat="47.71577" lon="-3.0594">
        <ele>27.3</ele>
        <time>2020-06-06T14:42:10Z</time>
      </trkpt>
      <trkpt lat="47.71583" lon="-3.05946">
        <ele>27.2</ele>
        <time>2020-06-06T14:42:11Z</time>
      </trkpt>
      <trkpt lat="47.71587" lon="-3.05952">
        <ele>27.1</ele>
        <time>2020-06-06T14:42:12Z</time>
      </trkpt>
      <trkpt lat="47.71593" lon="-3.05958">
        <ele>27</ele>
        <time>2020-06-06T14:42:13Z</time>
      </trkpt>
      <trkpt lat="47.71598" lon="-3.05965">
        <ele>27</ele>
        <time>2020-06-06T14:42:14Z</time>
      </trkpt>
      <trkpt lat="47.71603" lon="-3.0597">
        <ele>26.9</ele>
        <time>2020-06-06T14:42:15Z</time>
      </trkpt>
      <trkpt lat="47.71607" lon="-3.05976">
        <ele>26.8</ele>
        <time>2020-06-06T14:42:16Z</time>
      </trkpt>
      <trkpt lat="47.71612" lon="-3.05982">
        <ele>26.6</ele>
        <time>2020-06-06T14:42:17Z</time>
      </trkpt>
      <trkpt lat="47.71617" lon="-3.05988">
        <ele>26.5</ele>
        <time>2020-06-06T14:42:18Z</time>
      </trkpt>
      <trkpt lat="47.71621" lon="-3.05993">
        <ele>26.4</ele>
        <time>2020-06-06T14:42:19Z</time>
      </trkpt>
      <trkpt lat="47.71626" lon="-3.06">
        <ele>26.4</ele>
        <time>2020-06-06T14:42:20Z</time>
      </trkpt>
      <trkpt lat="47.71631" lon="-3.06006">
        <ele>26.3</ele>
        <time>2020-06-06T14:42:21Z</time>
      </trkpt>
      <trkpt lat="47.71635" lon="-3.06012">
        <ele>26.2</ele>
        <time>2020-06-06T14:42:22Z</time>
      </trkpt>
      <trkpt lat="47.71641" lon="-3.06018">
        <ele>26.1</ele>
        <time>2020-06-06T14:42:23Z</time>
      </trkpt>
      <trkpt lat="47.71645" lon="-3.06025">
        <ele>26</ele>
        <time>2020-06-06T14:42:24Z</time>
      </trkpt>
      <trkpt lat="47.71649" lon="-3.0603">
        <ele>25.9</ele>
        <time>2020-06-06T14:42:25Z</time>
      </trkpt>
      <trkpt lat="47.71653" lon="-3.06036">
        <ele>25.8</ele>
        <time>2020-06-06T14:42:26Z</time>
      </trkpt>
      <trkpt lat="47.71658" lon="-3.06042">
        <ele>25.7</ele>
        <time>2020-06-06T14:42:27Z</time>
      </trkpt>
      <trkpt lat="47.71662" lon="-3.06048">
        <ele>25.6</ele>
        <time>2020-06-06T14:42:28Z</time>
      </trkpt>
      <trkpt lat="47.71667" lon="-3.06055">
        <ele>25.5</ele>
        <time>2020-06-06T14:42:29Z</time>
      </trkpt>
      <trkpt lat="47.71672" lon="-3.06061">
        <ele>25.4</ele>
        <time>2020-06-06T14:42:30Z</time>
      </trkpt>
      <trkpt lat="47.71677" lon="-3.06068">
        <ele>25.3</ele>
        <time>2020-06-06T14:42:31Z</time>
      </trkpt>
      <trkpt lat="47.71682" lon="-3.06076">
        <ele>25.2</ele>
        <time>2020-06-06T14:42:32Z</time>
      </trkpt>
      <trkpt lat="47.71687" lon="-3.06083">
        <ele>25.2</ele>
        <time>2020-06-06T14:42:33Z</time>
      </trkpt>
      <trkpt lat="47.71691" lon="-3.0609">
        <ele>25.1</ele>
        <time>2020-06-06T14:42:34Z</time>
      </trkpt>
      <trkpt lat="47.71695" lon="-3.06096">
        <ele>25</ele>
        <time>2020-06-06T14:42:35Z</time>
      </trkpt>
      <trkpt lat="47.71699" lon="-3.06103">
        <ele>25</ele>
        <time>2020-06-06T14:42:36Z</time>
      </trkpt>
      <trkpt lat="47.71703" lon="-3.06109">
        <ele>24.9</ele>
        <time>2020-06-06T14:42:37Z</time>
      </trkpt>
      <trkpt lat="47.71708" lon="-3.06116">
        <ele>24.8</ele>
        <time>2020-06-06T14:42:38Z</time>
      </trkpt>
      <trkpt lat="47.71713" lon="-3.06122">
        <ele>24.7</ele>
        <time>2020-06-06T14:42:39Z</time>
      </trkpt>
      <trkpt lat="47.71717" lon="-3.0613">
        <ele>24.6</ele>
        <time>2020-06-06T14:42:40Z</time>
      </trkpt>
      <trkpt lat="47.71721" lon="-3.06138">
        <ele>24.5</ele>
        <time>2020-06-06T14:42:41Z</time>
      </trkpt>
      <trkpt lat="47.71725" lon="-3.06146">
        <ele>24.4</ele>
        <time>2020-06-06T14:42:42Z</time>
      </trkpt>
      <trkpt lat="47.71729" lon="-3.06154">
        <ele>24.4</ele>
        <time>2020-06-06T14:42:43Z</time>
      </trkpt>
      <trkpt lat="47.71733" lon="-3.06161">
        <ele>24.3</ele>
        <time>2020-06-06T14:42:44Z</time>
      </trkpt>
      <trkpt lat="47.71738" lon="-3.06169">
        <ele>24.2</ele>
        <time>2020-06-06T14:42:45Z</time>
      </trkpt>
      <trkpt lat="47.71742" lon="-3.06177">
        <ele>24.1</ele>
        <time>2020-06-06T14:42:46Z</time>
      </trkpt>
      <trkpt lat="47.71747" lon="-3.06184">
        <ele>24</ele>
        <time>2020-06-06T14:42:47Z</time>
      </trkpt>
      <trkpt lat="47.71751" lon="-3.06191">
        <ele>23.9</ele>
        <time>2020-06-06T14:42:48Z</time>
      </trkpt>
      <trkpt lat="47.71755" lon="-3.06198">
        <ele>23.8</ele>
        <time>2020-06-06T14:42:49Z</time>
      </trkpt>
      <trkpt lat="47.7176" lon="-3.06206">
        <ele>23.7</ele>
        <time>2020-06-06T14:42:50Z</time>
      </trkpt>
      <trkpt lat="47.71764" lon="-3.06214">
        <ele>23.7</ele>
        <time>2020-06-06T14:42:51Z</time>
      </trkpt>
      <trkpt lat="47.71768" lon="-3.06221">
        <ele>23.6</ele>
        <time>2020-06-06T14:42:52Z</time>
      </trkpt>
      <trkpt lat="47.71772" lon="-3.06228">
        <ele>23.5</ele>
        <time>2020-06-06T14:42:53Z</time>
      </trkpt>
      <trkpt lat="47.71776" lon="-3.06235">
        <ele>23.4</ele>
        <time>2020-06-06T14:42:54Z</time>
      </trkpt>
      <trkpt lat="47.7178" lon="-3.06242">
        <ele>23.3</ele>
        <time>2020-06-06T14:42:55Z</time>
      </trkpt>
      <trkpt lat="47.71783" lon="-3.0625">
        <ele>23.2</ele>
        <time>2020-06-06T14:42:56Z</time>
      </trkpt>
      <trkpt lat="47.71787" lon="-3.06257">
        <ele>23.1</ele>
        <time>2020-06-06T14:42:57Z</time>
      </trkpt>
      <trkpt lat="47.71791" lon="-3.06264">
        <ele>23</ele>
        <time>2020-06-06T14:42:58Z</time>
      </trkpt>
      <trkpt lat="47.71795" lon="-3.06271">
        <ele>22.9</ele>
        <time>2020-06-06T14:42:59Z</time>
      </trkpt>
      <trkpt lat="47.71798" lon="-3.06279">
        <ele>22.8</ele>
        <time>2020-06-06T14:43:00Z</time>
      </trkpt>
      <trkpt lat="47.71802" lon="-3.06286">
        <ele>22.7</ele>
        <time>2020-06-06T14:43:01Z</time>
      </trkpt>
      <trkpt lat="47.71806" lon="-3.06294">
        <ele>22.6</ele>
        <time>2020-06-06T14:43:02Z</time>
      </trkpt>
      <trkpt lat="47.71809" lon="-3.06302">
        <ele>22.5</ele>
        <time>2020-06-06T14:43:03Z</time>
      </trkpt>
      <trkpt lat="47.71813" lon="-3.06309">
        <ele>22.5</ele>
        <time>2020-06-06T14:43:04Z</time>
      </trkpt>
      <trkpt lat="47.71817" lon="-3.06317">
        <ele>22.5</ele>
        <time>2020-06-06T14:43:05Z</time>
      </trkpt>
      <trkpt lat="47.7182" lon="-3.06324">
        <ele>22.4</ele>
        <time>2020-06-06T14:43:06Z</time>
      </trkpt>
      <trkpt lat="47.71824" lon="-3.06331">
        <ele>22.4</ele>
        <time>2020-06-06T14:43:07Z</time>
      </trkpt>
      <trkpt lat="47.71828" lon="-3.06339">
        <ele>22.4</ele>
        <time>2020-06-06T14:43:08Z</time>
      </trkpt>
      <trkpt lat="47.71831" lon="-3.06347">
        <ele>22.4</ele>
        <time>2020-06-06T14:43:09Z</time>
      </trkpt>
      <trkpt lat="47.71835" lon="-3.06355">
        <ele>22.4</ele>
        <time>2020-06-06T14:43:10Z</time>
      </trkpt>
      <trkpt lat="47.71838" lon="-3.06363">
        <ele>22.4</ele>
        <time>2020-06-06T14:43:11Z</time>
      </trkpt>
      <trkpt lat="47.71842" lon="-3.06372">
        <ele>22.4</ele>
        <time>2020-06-06T14:43:12Z</time>
      </trkpt>
      <trkpt lat="47.71846" lon="-3.06381">
        <ele>22.4</ele>
        <time>2020-06-06T14:43:13Z</time>
      </trkpt>
      <trkpt lat="47.71849" lon="-3.0639">
        <ele>22.4</ele>
        <time>2020-06-06T14:43:14Z</time>
      </trkpt>
      <trkpt lat="47.71853" lon="-3.06398">
        <ele>22.4</ele>
        <time>2020-06-06T14:43:15Z</time>
      </trkpt>
      <trkpt lat="47.71857" lon="-3.06406">
        <ele>22.5</ele>
        <time>2020-06-06T14:43:16Z</time>
      </trkpt>
      <trkpt lat="47.7186" lon="-3.06415">
        <ele>22.5</ele>
        <time>2020-06-06T14:43:17Z</time>
      </trkpt>
      <trkpt lat="47.71864" lon="-3.06423">
        <ele>22.6</ele>
        <time>2020-06-06T14:43:18Z</time>
      </trkpt>
      <trkpt lat="47.71867" lon="-3.06432">
        <ele>22.6</ele>
        <time>2020-06-06T14:43:19Z</time>
      </trkpt>
      <trkpt lat="47.7187" lon="-3.0644">
        <ele>22.7</ele>
        <time>2020-06-06T14:43:20Z</time>
      </trkpt>
      <trkpt lat="47.71873" lon="-3.06449">
        <ele>22.7</ele>
        <time>2020-06-06T14:43:21Z</time>
      </trkpt>
      <trkpt lat="47.71876" lon="-3.06456">
        <ele>22.8</ele>
        <time>2020-06-06T14:43:22Z</time>
      </trkpt>
      <trkpt lat="47.71879" lon="-3.06465">
        <ele>22.8</ele>
        <time>2020-06-06T14:43:23Z</time>
      </trkpt>
      <trkpt lat="47.71882" lon="-3.06473">
        <ele>22.9</ele>
        <time>2020-06-06T14:43:24Z</time>
      </trkpt>
      <trkpt lat="47.71885" lon="-3.06481">
        <ele>22.9</ele>
        <time>2020-06-06T14:43:25Z</time>
      </trkpt>
      <trkpt lat="47.71887" lon="-3.0649">
        <ele>23</ele>
        <time>2020-06-06T14:43:26Z</time>
      </trkpt>
      <trkpt lat="47.7189" lon="-3.06498">
        <ele>23.1</ele>
        <time>2020-06-06T14:43:27Z</time>
      </trkpt>
      <trkpt lat="47.71894" lon="-3.06505">
        <ele>23.2</ele>
        <time>2020-06-06T14:43:28Z</time>
      </trkpt>
      <trkpt lat="47.71897" lon="-3.06512">
        <ele>23.3</ele>
        <time>2020-06-06T14:43:29Z</time>
      </trkpt>
      <trkpt lat="47.719" lon="-3.0652">
        <ele>23.3</ele>
        <time>2020-06-06T14:43:30Z</time>
      </trkpt>
      <trkpt lat="47.71903" lon="-3.06528">
        <ele>23.3</ele>
        <time>2020-06-06T14:43:31Z</time>
      </trkpt>
      <trkpt lat="47.71906" lon="-3.06536">
        <ele>23.3</ele>
        <time>2020-06-06T14:43:32Z</time>
      </trkpt>
      <trkpt lat="47.71909" lon="-3.06543">
        <ele>23.4</ele>
        <time>2020-06-06T14:43:33Z</time>
      </trkpt>
      <trkpt lat="47.71912" lon="-3.0655">
        <ele>23.4</ele>
        <time>2020-06-06T14:43:34Z</time>
      </trkpt>
      <trkpt lat="47.71915" lon="-3.06557">
        <ele>23.4</ele>
        <time>2020-06-06T14:43:35Z</time>
      </trkpt>
      <trkpt lat="47.71918" lon="-3.06565">
        <ele>23.5</ele>
        <time>2020-06-06T14:43:36Z</time>
      </trkpt>
      <trkpt lat="47.71922" lon="-3.06573">
        <ele>23.6</ele>
        <time>2020-06-06T14:43:37Z</time>
      </trkpt>
      <trkpt lat="47.71924" lon="-3.06581">
        <ele>23.8</ele>
        <time>2020-06-06T14:43:38Z</time>
      </trkpt>
      <trkpt lat="47.71927" lon="-3.06589">
        <ele>23.9</ele>
        <time>2020-06-06T14:43:39Z</time>
      </trkpt>
      <trkpt lat="47.71931" lon="-3.06596">
        <ele>24</ele>
        <time>2020-06-06T14:43:40Z</time>
      </trkpt>
      <trkpt lat="47.71934" lon="-3.06603">
        <ele>24.2</ele>
        <time>2020-06-06T14:43:41Z</time>
      </trkpt>
      <trkpt lat="47.71937" lon="-3.0661">
        <ele>24.3</ele>
        <time>2020-06-06T14:43:42Z</time>
      </trkpt>
      <trkpt lat="47.7194" lon="-3.06618">
        <ele>24.4</ele>
        <time>2020-06-06T14:43:43Z</time>
      </trkpt>
      <trkpt lat="47.71943" lon="-3.06626">
        <ele>24.6</ele>
        <time>2020-06-06T14:43:44Z</time>
      </trkpt>
      <trkpt lat="47.71946" lon="-3.06634">
        <ele>24.7</ele>
        <time>2020-06-06T14:43:45Z</time>
      </trkpt>
      <trkpt lat="47.71949" lon="-3.06641">
        <ele>24.9</ele>
        <time>2020-06-06T14:43:46Z</time>
      </trkpt>
      <trkpt lat="47.71952" lon="-3.06649">
        <ele>25</ele>
        <time>2020-06-06T14:43:47Z</time>
      </trkpt>
      <trkpt lat="47.71955" lon="-3.06656">
        <ele>25.2</ele>
        <time>2020-06-06T14:43:48Z</time>
      </trkpt>
      <trkpt lat="47.71957" lon="-3.06663">
        <ele>25.4</ele>
        <time>2020-06-06T14:43:49Z</time>
      </trkpt>
      <trkpt lat="47.71961" lon="-3.06672">
        <ele>25.6</ele>
        <time>2020-06-06T14:43:50Z</time>
      </trkpt>
      <trkpt lat="47.71963" lon="-3.06679">
        <ele>25.8</ele>
        <time>2020-06-06T14:43:51Z</time>
      </trkpt>
      <trkpt lat="47.71966" lon="-3.06687">
        <ele>26</ele>
        <time>2020-06-06T14:43:52Z</time>
      </trkpt>
      <trkpt lat="47.71968" lon="-3.06694">
        <ele>26.2</ele>
        <time>2020-06-06T14:43:53Z</time>
      </trkpt>
      <trkpt lat="47.7197" lon="-3.067">
        <ele>26.3</ele>
        <time>2020-06-06T14:43:54Z</time>
      </trkpt>
      <trkpt lat="47.71972" lon="-3.06707">
        <ele>26.4</ele>
        <time>2020-06-06T14:43:55Z</time>
      </trkpt>
      <trkpt lat="47.71975" lon="-3.06714">
        <ele>26.6</ele>
        <time>2020-06-06T14:43:56Z</time>
      </trkpt>
      <trkpt lat="47.71978" lon="-3.06721">
        <ele>26.8</ele>
        <time>2020-06-06T14:43:57Z</time>
      </trkpt>
      <trkpt lat="47.7198" lon="-3.06728">
        <ele>26.9</ele>
        <time>2020-06-06T14:43:58Z</time>
      </trkpt>
      <trkpt lat="47.71982" lon="-3.06735">
        <ele>27.1</ele>
        <time>2020-06-06T14:43:59Z</time>
      </trkpt>
      <trkpt lat="47.71985" lon="-3.06741">
        <ele>27.2</ele>
        <time>2020-06-06T14:44:00Z</time>
      </trkpt>
      <trkpt lat="47.71988" lon="-3.06746">
        <ele>27.4</ele>
        <time>2020-06-06T14:44:01Z</time>
      </trkpt>
      <trkpt lat="47.71991" lon="-3.06754">
        <ele>27.5</ele>
        <time>2020-06-06T14:44:02Z</time>
      </trkpt>
      <trkpt lat="47.71993" lon="-3.0676">
        <ele>27.6</ele>
        <time>2020-06-06T14:44:03Z</time>
      </trkpt>
      <trkpt lat="47.71996" lon="-3.06767">
        <ele>27.8</ele>
        <time>2020-06-06T14:44:04Z</time>
      </trkpt>
      <trkpt lat="47.72" lon="-3.06776">
        <ele>28</ele>
        <time>2020-06-06T14:44:05Z</time>
      </trkpt>
      <trkpt lat="47.72002" lon="-3.06781">
        <ele>28.1</ele>
        <time>2020-06-06T14:44:06Z</time>
      </trkpt>
      <trkpt lat="47.72004" lon="-3.06786">
        <ele>28.2</ele>
        <time>2020-06-06T14:44:07Z</time>
      </trkpt>
      <trkpt lat="47.72005" lon="-3.06791">
        <ele>28.3</ele>
        <time>2020-06-06T14:44:08Z</time>
      </trkpt>
      <trkpt lat="47.72008" lon="-3.06797">
        <ele>28.4</ele>
        <time>2020-06-06T14:44:09Z</time>
      </trkpt>
      <trkpt lat="47.7201" lon="-3.06802">
        <ele>28.5</ele>
        <time>2020-06-06T14:44:10Z</time>
      </trkpt>
      <trkpt lat="47.72012" lon="-3.06807">
        <ele>28.6</ele>
        <time>2020-06-06T14:44:11Z</time>
      </trkpt>
      <trkpt lat="47.72015" lon="-3.06813">
        <ele>28.7</ele>
        <time>2020-06-06T14:44:12Z</time>
      </trkpt>
      <trkpt lat="47.72017" lon="-3.06819">
        <ele>28.9</ele>
        <time>2020-06-06T14:44:13Z</time>
      </trkpt>
      <trkpt lat="47.72019" lon="-3.06824">
        <ele>29</ele>
        <time>2020-06-06T14:44:14Z</time>
      </trkpt>
      <trkpt lat="47.72021" lon="-3.06829">
        <ele>29.1</ele>
        <time>2020-06-06T14:44:15Z</time>
      </trkpt>
      <trkpt lat="47.72023" lon="-3.06834">
        <ele>29.2</ele>
        <time>2020-06-06T14:44:16Z</time>
      </trkpt>
      <trkpt lat="47.72025" lon="-3.06839">
        <ele>29.3</ele>
        <time>2020-06-06T14:44:17Z</time>
      </trkpt>
      <trkpt lat="47.72027" lon="-3.06843">
        <ele>29.4</ele>
        <time>2020-06-06T14:44:18Z</time>
      </trkpt>
      <trkpt lat="47.7203" lon="-3.06848">
        <ele>29.5</ele>
        <time>2020-06-06T14:44:19Z</time>
      </trkpt>
      <trkpt lat="47.72032" lon="-3.06854">
        <ele>29.6</ele>
        <time>2020-06-06T14:44:20Z</time>
      </trkpt>
      <trkpt lat="47.72035" lon="-3.06861">
        <ele>29.7</ele>
        <time>2020-06-06T14:44:21Z</time>
      </trkpt>
      <trkpt lat="47.72037" lon="-3.06867">
        <ele>29.8</ele>
        <time>2020-06-06T14:44:22Z</time>
      </trkpt>
      <trkpt lat="47.7204" lon="-3.06872">
        <ele>29.8</ele>
        <time>2020-06-06T14:44:23Z</time>
      </trkpt>
      <trkpt lat="47.72042" lon="-3.06877">
        <ele>29.9</ele>
        <time>2020-06-06T14:44:24Z</time>
      </trkpt>
      <trkpt lat="47.72045" lon="-3.06884">
        <ele>30</ele>
        <time>2020-06-06T14:44:25Z</time>
      </trkpt>
      <trkpt lat="47.72047" lon="-3.06887">
        <ele>30.1</ele>
        <time>2020-06-06T14:44:26Z</time>
      </trkpt>
      <trkpt lat="47.72049" lon="-3.06893">
        <ele>30.2</ele>
        <time>2020-06-06T14:44:27Z</time>
      </trkpt>
      <trkpt lat="47.72051" lon="-3.06899">
        <ele>30.2</ele>
        <time>2020-06-06T14:44:28Z</time>
      </trkpt>
      <trkpt lat="47.72053" lon="-3.06904">
        <ele>30.3</ele>
        <time>2020-06-06T14:44:29Z</time>
      </trkpt>
      <trkpt lat="47.72055" lon="-3.06909">
        <ele>30.4</ele>
        <time>2020-06-06T14:44:30Z</time>
      </trkpt>
      <trkpt lat="47.72056" lon="-3.06915">
        <ele>30.5</ele>
        <time>2020-06-06T14:44:31Z</time>
      </trkpt>
      <trkpt lat="47.72059" lon="-3.0692">
        <ele>30.5</ele>
        <time>2020-06-06T14:44:32Z</time>
      </trkpt>
      <trkpt lat="47.72061" lon="-3.06927">
        <ele>30.6</ele>
        <time>2020-06-06T14:44:33Z</time>
      </trkpt>
      <trkpt lat="47.72063" lon="-3.06933">
        <ele>30.7</ele>
        <time>2020-06-06T14:44:34Z</time>
      </trkpt>
      <trkpt lat="47.72065" lon="-3.0694">
        <ele>30.8</ele>
        <time>2020-06-06T14:44:35Z</time>
      </trkpt>
      <trkpt lat="47.72067" lon="-3.06945">
        <ele>30.8</ele>
        <time>2020-06-06T14:44:36Z</time>
      </trkpt>
      <trkpt lat="47.7207" lon="-3.06951">
        <ele>30.9</ele>
        <time>2020-06-06T14:44:37Z</time>
      </trkpt>
      <trkpt lat="47.72072" lon="-3.06957">
        <ele>30.9</ele>
        <time>2020-06-06T14:44:38Z</time>
      </trkpt>
      <trkpt lat="47.72074" lon="-3.06962">
        <ele>31</ele>
        <time>2020-06-06T14:44:39Z</time>
      </trkpt>
      <trkpt lat="47.72076" lon="-3.06967">
        <ele>31</ele>
        <time>2020-06-06T14:44:40Z</time>
      </trkpt>
      <trkpt lat="47.72078" lon="-3.06973">
        <ele>31.1</ele>
        <time>2020-06-06T14:44:41Z</time>
      </trkpt>
      <trkpt lat="47.72081" lon="-3.0698">
        <ele>31.2</ele>
        <time>2020-06-06T14:44:42Z</time>
      </trkpt>
      <trkpt lat="47.72083" lon="-3.06986">
        <ele>31.2</ele>
        <time>2020-06-06T14:44:43Z</time>
      </trkpt>
      <trkpt lat="47.72085" lon="-3.06991">
        <ele>31.3</ele>
        <time>2020-06-06T14:44:44Z</time>
      </trkpt>
      <trkpt lat="47.72086" lon="-3.06996">
        <ele>31.3</ele>
        <time>2020-06-06T14:44:45Z</time>
      </trkpt>
      <trkpt lat="47.72089" lon="-3.07002">
        <ele>31.4</ele>
        <time>2020-06-06T14:44:46Z</time>
      </trkpt>
      <trkpt lat="47.72091" lon="-3.07007">
        <ele>31.4</ele>
        <time>2020-06-06T14:44:47Z</time>
      </trkpt>
      <trkpt lat="47.72094" lon="-3.07012">
        <ele>31.4</ele>
        <time>2020-06-06T14:44:48Z</time>
      </trkpt>
      <trkpt lat="47.72097" lon="-3.07017">
        <ele>31.5</ele>
        <time>2020-06-06T14:44:49Z</time>
      </trkpt>
      <trkpt lat="47.72099" lon="-3.07023">
        <ele>31.5</ele>
        <time>2020-06-06T14:44:50Z</time>
      </trkpt>
      <trkpt lat="47.72101" lon="-3.0703">
        <ele>31.5</ele>
        <time>2020-06-06T14:44:51Z</time>
      </trkpt>
      <trkpt lat="47.72103" lon="-3.07037">
        <ele>31.6</ele>
        <time>2020-06-06T14:44:52Z</time>
      </trkpt>
      <trkpt lat="47.72105" lon="-3.07042">
        <ele>31.6</ele>
        <time>2020-06-06T14:44:53Z</time>
      </trkpt>
      <trkpt lat="47.72107" lon="-3.07048">
        <ele>31.6</ele>
        <time>2020-06-06T14:44:54Z</time>
      </trkpt>
      <trkpt lat="47.7211" lon="-3.07055">
        <ele>31.6</ele>
        <time>2020-06-06T14:44:55Z</time>
      </trkpt>
      <trkpt lat="47.72113" lon="-3.07062">
        <ele>31.7</ele>
        <time>2020-06-06T14:44:56Z</time>
      </trkpt>
      <trkpt lat="47.72116" lon="-3.07068">
        <ele>31.7</ele>
        <time>2020-06-06T14:44:57Z</time>
      </trkpt>
      <trkpt lat="47.72118" lon="-3.07075">
        <ele>31.7</ele>
        <time>2020-06-06T14:44:58Z</time>
      </trkpt>
      <trkpt lat="47.72121" lon="-3.0708">
        <ele>31.7</ele>
        <time>2020-06-06T14:44:59Z</time>
      </trkpt>
      <trkpt lat="47.72123" lon="-3.07087">
        <ele>31.7</ele>
        <time>2020-06-06T14:45:00Z</time>
      </trkpt>
      <trkpt lat="47.72125" lon="-3.07093">
        <ele>31.7</ele>
        <time>2020-06-06T14:45:01Z</time>
      </trkpt>
      <trkpt lat="47.72128" lon="-3.07099">
        <ele>31.7</ele>
        <time>2020-06-06T14:45:02Z</time>
      </trkpt>
      <trkpt lat="47.7213" lon="-3.07106">
        <ele>31.7</ele>
        <time>2020-06-06T14:45:03Z</time>
      </trkpt>
      <trkpt lat="47.72133" lon="-3.07113">
        <ele>31.7</ele>
        <time>2020-06-06T14:45:04Z</time>
      </trkpt>
      <trkpt lat="47.72135" lon="-3.07119">
        <ele>31.8</ele>
        <time>2020-06-06T14:45:05Z</time>
      </trkpt>
      <trkpt lat="47.72137" lon="-3.07125">
        <ele>31.8</ele>
        <time>2020-06-06T14:45:06Z</time>
      </trkpt>
      <trkpt lat="47.7214" lon="-3.07132">
        <ele>31.8</ele>
        <time>2020-06-06T14:45:07Z</time>
      </trkpt>
      <trkpt lat="47.72142" lon="-3.07138">
        <ele>31.8</ele>
        <time>2020-06-06T14:45:08Z</time>
      </trkpt>
      <trkpt lat="47.72144" lon="-3.07144">
        <ele>31.8</ele>
        <time>2020-06-06T14:45:09Z</time>
      </trkpt>
      <trkpt lat="47.72147" lon="-3.07151">
        <ele>31.9</ele>
        <time>2020-06-06T14:45:10Z</time>
      </trkpt>
      <trkpt lat="47.72149" lon="-3.07158">
        <ele>31.9</ele>
        <time>2020-06-06T14:45:11Z</time>
      </trkpt>
      <trkpt lat="47.72151" lon="-3.07165">
        <ele>31.9</ele>
        <time>2020-06-06T14:45:12Z</time>
      </trkpt>
      <trkpt lat="47.72155" lon="-3.07173">
        <ele>32</ele>
        <time>2020-06-06T14:45:13Z</time>
      </trkpt>
      <trkpt lat="47.72158" lon="-3.0718">
        <ele>32</ele>
        <time>2020-06-06T14:45:14Z</time>
      </trkpt>
      <trkpt lat="47.7216" lon="-3.07186">
        <ele>32</ele>
        <time>2020-06-06T14:45:15Z</time>
      </trkpt>
      <trkpt lat="47.72164" lon="-3.07192">
        <ele>32</ele>
        <time>2020-06-06T14:45:16Z</time>
      </trkpt>
      <trkpt lat="47.72166" lon="-3.07197">
        <ele>32</ele>
        <time>2020-06-06T14:45:17Z</time>
      </trkpt>
      <trkpt lat="47.72168" lon="-3.07204">
        <ele>32.1</ele>
        <time>2020-06-06T14:45:18Z</time>
      </trkpt>
      <trkpt lat="47.72171" lon="-3.0721">
        <ele>32.1</ele>
        <time>2020-06-06T14:45:19Z</time>
      </trkpt>
      <trkpt lat="47.72174" lon="-3.07217">
        <ele>32.1</ele>
        <time>2020-06-06T14:45:20Z</time>
      </trkpt>
      <trkpt lat="47.72176" lon="-3.07225">
        <ele>32.1</ele>
        <time>2020-06-06T14:45:21Z</time>
      </trkpt>
      <trkpt lat="47.72178" lon="-3.07233">
        <ele>32.2</ele>
        <time>2020-06-06T14:45:22Z</time>
      </trkpt>
      <trkpt lat="47.72181" lon="-3.07239">
        <ele>32.2</ele>
        <time>2020-06-06T14:45:23Z</time>
      </trkpt>
      <trkpt lat="47.72182" lon="-3.07245">
        <ele>32.2</ele>
        <time>2020-06-06T14:45:24Z</time>
      </trkpt>
      <trkpt lat="47.72185" lon="-3.07251">
        <ele>32.2</ele>
        <time>2020-06-06T14:45:25Z</time>
      </trkpt>
      <trkpt lat="47.72189" lon="-3.07258">
        <ele>32.2</ele>
        <time>2020-06-06T14:45:26Z</time>
      </trkpt>
      <trkpt lat="47.72191" lon="-3.07265">
        <ele>32.2</ele>
        <time>2020-06-06T14:45:27Z</time>
      </trkpt>
      <trkpt lat="47.72194" lon="-3.07272">
        <ele>32.2</ele>
        <time>2020-06-06T14:45:28Z</time>
      </trkpt>
      <trkpt lat="47.72196" lon="-3.07278">
        <ele>32.3</ele>
        <time>2020-06-06T14:45:29Z</time>
      </trkpt>
      <trkpt lat="47.72198" lon="-3.07284">
        <ele>32.3</ele>
        <time>2020-06-06T14:45:30Z</time>
      </trkpt>
      <trkpt lat="47.72203" lon="-3.07291">
        <ele>32.3</ele>
        <time>2020-06-06T14:45:31Z</time>
      </trkpt>
      <trkpt lat="47.72204" lon="-3.07297">
        <ele>32.3</ele>
        <time>2020-06-06T14:45:32Z</time>
      </trkpt>
      <trkpt lat="47.72207" lon="-3.07305">
        <ele>32.3</ele>
        <time>2020-06-06T14:45:33Z</time>
      </trkpt>
      <trkpt lat="47.7221" lon="-3.07312">
        <ele>32.3</ele>
        <time>2020-06-06T14:45:34Z</time>
      </trkpt>
      <trkpt lat="47.72213" lon="-3.07319">
        <ele>32.3</ele>
        <time>2020-06-06T14:45:35Z</time>
      </trkpt>
      <trkpt lat="47.72216" lon="-3.07325">
        <ele>32.3</ele>
        <time>2020-06-06T14:45:36Z</time>
      </trkpt>
      <trkpt lat="47.72217" lon="-3.0733">
        <ele>32.3</ele>
        <time>2020-06-06T14:45:37Z</time>
      </trkpt>
      <trkpt lat="47.7222" lon="-3.07338">
        <ele>32.4</ele>
        <time>2020-06-06T14:45:38Z</time>
      </trkpt>
      <trkpt lat="47.72222" lon="-3.07346">
        <ele>32.4</ele>
        <time>2020-06-06T14:45:39Z</time>
      </trkpt>
      <trkpt lat="47.72225" lon="-3.07353">
        <ele>32.4</ele>
        <time>2020-06-06T14:45:40Z</time>
      </trkpt>
      <trkpt lat="47.72228" lon="-3.07358">
        <ele>32.4</ele>
        <time>2020-06-06T14:45:41Z</time>
      </trkpt>
      <trkpt lat="47.7223" lon="-3.07365">
        <ele>32.5</ele>
        <time>2020-06-06T14:45:42Z</time>
      </trkpt>
      <trkpt lat="47.72234" lon="-3.07372">
        <ele>32.5</ele>
        <time>2020-06-06T14:45:43Z</time>
      </trkpt>
      <trkpt lat="47.72237" lon="-3.07379">
        <ele>32.5</ele>
        <time>2020-06-06T14:45:44Z</time>
      </trkpt>
      <trkpt lat="47.7224" lon="-3.07385">
        <ele>32.5</ele>
        <time>2020-06-06T14:45:45Z</time>
      </trkpt>
      <trkpt lat="47.72243" lon="-3.07394">
        <ele>32.5</ele>
        <time>2020-06-06T14:45:46Z</time>
      </trkpt>
      <trkpt lat="47.72246" lon="-3.07401">
        <ele>32.5</ele>
        <time>2020-06-06T14:45:47Z</time>
      </trkpt>
      <trkpt lat="47.72248" lon="-3.07407">
        <ele>32.6</ele>
        <time>2020-06-06T14:45:48Z</time>
      </trkpt>
      <trkpt lat="47.7225" lon="-3.07413">
        <ele>32.6</ele>
        <time>2020-06-06T14:45:49Z</time>
      </trkpt>
      <trkpt lat="47.72253" lon="-3.07421">
        <ele>32.6</ele>
        <time>2020-06-06T14:45:50Z</time>
      </trkpt>
      <trkpt lat="47.72255" lon="-3.07428">
        <ele>32.7</ele>
        <time>2020-06-06T14:45:51Z</time>
      </trkpt>
      <trkpt lat="47.72258" lon="-3.07435">
        <ele>32.7</ele>
        <time>2020-06-06T14:45:52Z</time>
      </trkpt>
      <trkpt lat="47.72262" lon="-3.07443">
        <ele>32.7</ele>
        <time>2020-06-06T14:45:53Z</time>
      </trkpt>
      <trkpt lat="47.72265" lon="-3.07451">
        <ele>32.7</ele>
        <time>2020-06-06T14:45:54Z</time>
      </trkpt>
      <trkpt lat="47.72267" lon="-3.07457">
        <ele>32.8</ele>
        <time>2020-06-06T14:45:55Z</time>
      </trkpt>
      <trkpt lat="47.7227" lon="-3.07464">
        <ele>32.8</ele>
        <time>2020-06-06T14:45:56Z</time>
      </trkpt>
      <trkpt lat="47.72272" lon="-3.0747">
        <ele>32.8</ele>
        <time>2020-06-06T14:45:57Z</time>
      </trkpt>
      <trkpt lat="47.72274" lon="-3.07477">
        <ele>32.8</ele>
        <time>2020-06-06T14:45:58Z</time>
      </trkpt>
      <trkpt lat="47.72276" lon="-3.07484">
        <ele>32.8</ele>
        <time>2020-06-06T14:45:59Z</time>
      </trkpt>
      <trkpt lat="47.72279" lon="-3.0749">
        <ele>32.9</ele>
        <time>2020-06-06T14:46:00Z</time>
      </trkpt>
      <trkpt lat="47.72282" lon="-3.07498">
        <ele>32.9</ele>
        <time>2020-06-06T14:46:01Z</time>
      </trkpt>
      <trkpt lat="47.72284" lon="-3.07505">
        <ele>32.9</ele>
        <time>2020-06-06T14:46:02Z</time>
      </trkpt>
      <trkpt lat="47.72287" lon="-3.07512">
        <ele>33</ele>
        <time>2020-06-06T14:46:03Z</time>
      </trkpt>
      <trkpt lat="47.7229" lon="-3.0752">
        <ele>33</ele>
        <time>2020-06-06T14:46:04Z</time>
      </trkpt>
      <trkpt lat="47.72293" lon="-3.07527">
        <ele>33</ele>
        <time>2020-06-06T14:46:05Z</time>
      </trkpt>
      <trkpt lat="47.72296" lon="-3.07536">
        <ele>33.1</ele>
        <time>2020-06-06T14:46:06Z</time>
      </trkpt>
      <trkpt lat="47.72299" lon="-3.07544">
        <ele>33.1</ele>
        <time>2020-06-06T14:46:07Z</time>
      </trkpt>
      <trkpt lat="47.72302" lon="-3.07552">
        <ele>33.2</ele>
        <time>2020-06-06T14:46:08Z</time>
      </trkpt>
      <trkpt lat="47.72305" lon="-3.07561">
        <ele>33.2</ele>
        <time>2020-06-06T14:46:09Z</time>
      </trkpt>
      <trkpt lat="47.72307" lon="-3.07569">
        <ele>33.2</ele>
        <time>2020-06-06T14:46:10Z</time>
      </trkpt>
      <trkpt lat="47.7231" lon="-3.07577">
        <ele>33.2</ele>
        <time>2020-06-06T14:46:11Z</time>
      </trkpt>
      <trkpt lat="47.72313" lon="-3.07584">
        <ele>33.2</ele>
        <time>2020-06-06T14:46:12Z</time>
      </trkpt>
      <trkpt lat="47.72316" lon="-3.07592">
        <ele>33.3</ele>
        <time>2020-06-06T14:46:13Z</time>
      </trkpt>
      <trkpt lat="47.72319" lon="-3.07602">
        <ele>33.3</ele>
        <time>2020-06-06T14:46:14Z</time>
      </trkpt>
      <trkpt lat="47.72322" lon="-3.0761">
        <ele>33.3</ele>
        <time>2020-06-06T14:46:15Z</time>
      </trkpt>
      <trkpt lat="47.72325" lon="-3.07619">
        <ele>33.3</ele>
        <time>2020-06-06T14:46:16Z</time>
      </trkpt>
      <trkpt lat="47.72328" lon="-3.07627">
        <ele>33.4</ele>
        <time>2020-06-06T14:46:17Z</time>
      </trkpt>
      <trkpt lat="47.7233" lon="-3.07636">
        <ele>33.5</ele>
        <time>2020-06-06T14:46:18Z</time>
      </trkpt>
      <trkpt lat="47.72333" lon="-3.07644">
        <ele>33.6</ele>
        <time>2020-06-06T14:46:19Z</time>
      </trkpt>
      <trkpt lat="47.72336" lon="-3.07652">
        <ele>33.7</ele>
        <time>2020-06-06T14:46:20Z</time>
      </trkpt>
      <trkpt lat="47.72339" lon="-3.0766">
        <ele>33.9</ele>
        <time>2020-06-06T14:46:21Z</time>
      </trkpt>
      <trkpt lat="47.72342" lon="-3.07668">
        <ele>33.9</ele>
        <time>2020-06-06T14:46:22Z</time>
      </trkpt>
      <trkpt lat="47.72344" lon="-3.07676">
        <ele>33.9</ele>
        <time>2020-06-06T14:46:23Z</time>
      </trkpt>
      <trkpt lat="47.72346" lon="-3.07683">
        <ele>33.8</ele>
        <time>2020-06-06T14:46:24Z</time>
      </trkpt>
      <trkpt lat="47.7235" lon="-3.0769">
        <ele>33.8</ele>
        <time>2020-06-06T14:46:25Z</time>
      </trkpt>
      <trkpt lat="47.72353" lon="-3.07698">
        <ele>33.7</ele>
        <time>2020-06-06T14:46:26Z</time>
      </trkpt>
      <trkpt lat="47.72355" lon="-3.07705">
        <ele>33.7</ele>
        <time>2020-06-06T14:46:27Z</time>
      </trkpt>
      <trkpt lat="47.72358" lon="-3.07712">
        <ele>33.7</ele>
        <time>2020-06-06T14:46:28Z</time>
      </trkpt>
      <trkpt lat="47.72361" lon="-3.07719">
        <ele>33.6</ele>
        <time>2020-06-06T14:46:29Z</time>
      </trkpt>
      <trkpt lat="47.72363" lon="-3.07726">
        <ele>33.6</ele>
        <time>2020-06-06T14:46:30Z</time>
      </trkpt>
      <trkpt lat="47.72366" lon="-3.07733">
        <ele>33.6</ele>
        <time>2020-06-06T14:46:31Z</time>
      </trkpt>
      <trkpt lat="47.72369" lon="-3.0774">
        <ele>33.7</ele>
        <time>2020-06-06T14:46:32Z</time>
      </trkpt>
      <trkpt lat="47.72372" lon="-3.07747">
        <ele>33.7</ele>
        <time>2020-06-06T14:46:33Z</time>
      </trkpt>
      <trkpt lat="47.72374" lon="-3.07754">
        <ele>33.8</ele>
        <time>2020-06-06T14:46:34Z</time>
      </trkpt>
      <trkpt lat="47.72377" lon="-3.07762">
        <ele>33.8</ele>
        <time>2020-06-06T14:46:35Z</time>
      </trkpt>
      <trkpt lat="47.7238" lon="-3.07771">
        <ele>33.9</ele>
        <time>2020-06-06T14:46:36Z</time>
      </trkpt>
      <trkpt lat="47.72384" lon="-3.07778">
        <ele>34</ele>
        <time>2020-06-06T14:46:37Z</time>
      </trkpt>
      <trkpt lat="47.72388" lon="-3.07785">
        <ele>34</ele>
        <time>2020-06-06T14:46:38Z</time>
      </trkpt>
      <trkpt lat="47.72391" lon="-3.07791">
        <ele>34</ele>
        <time>2020-06-06T14:46:39Z</time>
      </trkpt>
      <trkpt lat="47.72395" lon="-3.07798">
        <ele>34</ele>
        <time>2020-06-06T14:46:40Z</time>
      </trkpt>
      <trkpt lat="47.72398" lon="-3.07804">
        <ele>33.9</ele>
        <time>2020-06-06T14:46:41Z</time>
      </trkpt>
      <trkpt lat="47.72402" lon="-3.0781">
        <ele>33.9</ele>
        <time>2020-06-06T14:46:42Z</time>
      </trkpt>
      <trkpt lat="47.72405" lon="-3.07815">
        <ele>34</ele>
        <time>2020-06-06T14:46:43Z</time>
      </trkpt>
      <trkpt lat="47.72408" lon="-3.07821">
        <ele>34</ele>
        <time>2020-06-06T14:46:44Z</time>
      </trkpt>
      <trkpt lat="47.72409" lon="-3.07825">
        <ele>34</ele>
        <time>2020-06-06T14:46:45Z</time>
      </trkpt>
      <trkpt lat="47.72411" lon="-3.07829">
        <ele>34</ele>
        <time>2020-06-06T14:46:46Z</time>
      </trkpt>
      <trkpt lat="47.72413" lon="-3.07834">
        <ele>34</ele>
        <time>2020-06-06T14:46:47Z</time>
      </trkpt>
      <trkpt lat="47.72415" lon="-3.07839">
        <ele>34.1</ele>
        <time>2020-06-06T14:46:48Z</time>
      </trkpt>
      <trkpt lat="47.72417" lon="-3.07845">
        <ele>34.1</ele>
        <time>2020-06-06T14:46:49Z</time>
      </trkpt>
      <trkpt lat="47.72419" lon="-3.07849">
        <ele>34.1</ele>
        <time>2020-06-06T14:46:50Z</time>
      </trkpt>
      <trkpt lat="47.72421" lon="-3.07854">
        <ele>34.1</ele>
        <time>2020-06-06T14:46:51Z</time>
      </trkpt>
      <trkpt lat="47.72423" lon="-3.0786">
        <ele>34.1</ele>
        <time>2020-06-06T14:46:52Z</time>
      </trkpt>
      <trkpt lat="47.72425" lon="-3.07863">
        <ele>34.1</ele>
        <time>2020-06-06T14:46:53Z</time>
      </trkpt>
      <trkpt lat="47.72426" lon="-3.07868">
        <ele>34.1</ele>
        <time>2020-06-06T14:46:54Z</time>
      </trkpt>
      <trkpt lat="47.72428" lon="-3.07872">
        <ele>34.1</ele>
        <time>2020-06-06T14:46:55Z</time>
      </trkpt>
      <trkpt lat="47.72429" lon="-3.07877">
        <ele>34.1</ele>
        <time>2020-06-06T14:46:56Z</time>
      </trkpt>
      <trkpt lat="47.72431" lon="-3.07882">
        <ele>34.1</ele>
        <time>2020-06-06T14:46:57Z</time>
      </trkpt>
      <trkpt lat="47.72432" lon="-3.07886">
        <ele>34.1</ele>
        <time>2020-06-06T14:46:58Z</time>
      </trkpt>
      <trkpt lat="47.72434" lon="-3.07891">
        <ele>34.1</ele>
        <time>2020-06-06T14:46:59Z</time>
      </trkpt>
      <trkpt lat="47.72435" lon="-3.07894">
        <ele>34.1</ele>
        <time>2020-06-06T14:47:00Z</time>
      </trkpt>
      <trkpt lat="47.72435" lon="-3.07896">
        <ele>34.1</ele>
        <time>2020-06-06T14:47:01Z</time>
      </trkpt>
      <trkpt lat="47.72437" lon="-3.079">
        <ele>34.1</ele>
        <time>2020-06-06T14:47:02Z</time>
      </trkpt>
      <trkpt lat="47.72438" lon="-3.07904">
        <ele>34.1</ele>
        <time>2020-06-06T14:47:03Z</time>
      </trkpt>
      <trkpt lat="47.72441" lon="-3.0791">
        <ele>34</ele>
        <time>2020-06-06T14:47:04Z</time>
      </trkpt>
      <trkpt lat="47.72441" lon="-3.07912">
        <ele>34</ele>
        <time>2020-06-06T14:47:05Z</time>
      </trkpt>
      <trkpt lat="47.72443" lon="-3.07915">
        <ele>34</ele>
        <time>2020-06-06T14:47:06Z</time>
      </trkpt>
      <trkpt lat="47.72445" lon="-3.0792">
        <ele>33.9</ele>
        <time>2020-06-06T14:47:07Z</time>
      </trkpt>
      <trkpt lat="47.72446" lon="-3.07922">
        <ele>33.9</ele>
        <time>2020-06-06T14:47:08Z</time>
      </trkpt>
      <trkpt lat="47.72447" lon="-3.07925">
        <ele>33.9</ele>
        <time>2020-06-06T14:47:09Z</time>
      </trkpt>
      <trkpt lat="47.72449" lon="-3.07929">
        <ele>33.8</ele>
        <time>2020-06-06T14:47:10Z</time>
      </trkpt>
      <trkpt lat="47.7245" lon="-3.07933">
        <ele>33.8</ele>
        <time>2020-06-06T14:47:11Z</time>
      </trkpt>
      <trkpt lat="47.72452" lon="-3.07938">
        <ele>33.7</ele>
        <time>2020-06-06T14:47:12Z</time>
      </trkpt>
      <trkpt lat="47.72453" lon="-3.0794">
        <ele>33.7</ele>
        <time>2020-06-06T14:47:13Z</time>
      </trkpt>
      <trkpt lat="47.72455" lon="-3.07946">
        <ele>33.6</ele>
        <time>2020-06-06T14:47:14Z</time>
      </trkpt>
      <trkpt lat="47.72455" lon="-3.07948">
        <ele>33.6</ele>
        <time>2020-06-06T14:47:15Z</time>
      </trkpt>
      <trkpt lat="47.72457" lon="-3.07953">
        <ele>33.6</ele>
        <time>2020-06-06T14:47:16Z</time>
      </trkpt>
      <trkpt lat="47.72458" lon="-3.07957">
        <ele>33.5</ele>
        <time>2020-06-06T14:47:17Z</time>
      </trkpt>
      <trkpt lat="47.72459" lon="-3.0796">
        <ele>33.5</ele>
        <time>2020-06-06T14:47:18Z</time>
      </trkpt>
      <trkpt lat="47.7246" lon="-3.07961">
        <ele>33.5</ele>
        <time>2020-06-06T14:47:19Z</time>
      </trkpt>
      <trkpt lat="47.72461" lon="-3.07963">
        <ele>33.5</ele>
        <time>2020-06-06T14:47:20Z</time>
      </trkpt>
      <trkpt lat="47.72461" lon="-3.07964">
        <ele>33.5</ele>
        <time>2020-06-06T14:47:21Z</time>
      </trkpt>
      <trkpt lat="47.72461" lon="-3.07965">
        <ele>33.5</ele>
        <time>2020-06-06T14:47:22Z</time>
      </trkpt>
      <trkpt lat="47.72462" lon="-3.07965">
        <ele>33.5</ele>
        <time>2020-06-06T14:47:23Z</time>
      </trkpt>
      <trkpt lat="47.72462" lon="-3.07966">
        <ele>33.5</ele>
        <time>2020-06-06T14:47:24Z</time>
      </trkpt>
      <trkpt lat="47.72462" lon="-3.07965">
        <ele>33.5</ele>
        <time>2020-06-06T14:47:25Z</time>
      </trkpt>
      <trkpt lat="47.72462" lon="-3.07966">
        <ele>33.5</ele>
        <time>2020-06-06T14:47:26Z</time>
      </trkpt>
      <trkpt lat="47.72463" lon="-3.07966">
        <ele>33.4</ele>
        <time>2020-06-06T14:47:27Z</time>
      </trkpt>
      <trkpt lat="47.72463" lon="-3.07965">
        <ele>33.4</ele>
        <time>2020-06-06T14:47:28Z</time>
      </trkpt>
      <trkpt lat="47.72463" lon="-3.07966">
        <ele>33.4</ele>
        <time>2020-06-06T14:47:29Z</time>
      </trkpt>
      <trkpt lat="47.72463" lon="-3.07967">
        <ele>33.4</ele>
        <time>2020-06-06T14:47:30Z</time>
      </trkpt>
      <trkpt lat="47.72463" lon="-3.07967">
        <ele>33.4</ele>
        <time>2020-06-06T14:47:31Z</time>
      </trkpt>
      <trkpt lat="47.72464" lon="-3.07967">
        <ele>33.4</ele>
        <time>2020-06-06T14:47:32Z</time>
      </trkpt>
      <trkpt lat="47.72464" lon="-3.07967">
        <ele>33.4</ele>
        <time>2020-06-06T14:47:33Z</time>
      </trkpt>
      <trkpt lat="47.72464" lon="-3.07968">
        <ele>33.4</ele>
        <time>2020-06-06T14:47:34Z</time>
      </trkpt>
      <trkpt lat="47.72464" lon="-3.07968">
        <ele>33.4</ele>
        <time>2020-06-06T14:47:35Z</time>
      </trkpt>
      <trkpt lat="47.72464" lon="-3.07968">
        <ele>33.4</ele>
        <time>2020-06-06T14:47:36Z</time>
      </trkpt>
      <trkpt lat="47.72465" lon="-3.07968">
        <ele>33.4</ele>
        <time>2020-06-06T14:47:37Z</time>
      </trkpt>
      <trkpt lat="47.7246" lon="-3.07971">
        <ele>33.4</ele>
        <time>2020-06-06T14:49:27Z</time>
      </trkpt>
      <trkpt lat="47.72461" lon="-3.07972">
        <ele>33.3</ele>
        <time>2020-06-06T14:49:28Z</time>
      </trkpt>
      <trkpt lat="47.72461" lon="-3.07973">
        <ele>33.3</ele>
        <time>2020-06-06T14:49:29Z</time>
      </trkpt>
      <trkpt lat="47.72462" lon="-3.07976">
        <ele>33.3</ele>
        <time>2020-06-06T14:49:30Z</time>
      </trkpt>
      <trkpt lat="47.72463" lon="-3.07978">
        <ele>33.3</ele>
        <time>2020-06-06T14:49:31Z</time>
      </trkpt>
      <trkpt lat="47.72464" lon="-3.07982">
        <ele>33.2</ele>
        <time>2020-06-06T14:49:32Z</time>
      </trkpt>
      <trkpt lat="47.72465" lon="-3.07983">
        <ele>33.2</ele>
        <time>2020-06-06T14:49:33Z</time>
      </trkpt>
      <trkpt lat="47.72466" lon="-3.07988">
        <ele>33.1</ele>
        <time>2020-06-06T14:49:34Z</time>
      </trkpt>
      <trkpt lat="47.72466" lon="-3.07989">
        <ele>33.1</ele>
        <time>2020-06-06T14:49:35Z</time>
      </trkpt>
      <trkpt lat="47.72467" lon="-3.07994">
        <ele>33.1</ele>
        <time>2020-06-06T14:49:36Z</time>
      </trkpt>
      <trkpt lat="47.72467" lon="-3.07995">
        <ele>33</ele>
        <time>2020-06-06T14:49:37Z</time>
      </trkpt>
      <trkpt lat="47.72467" lon="-3.08001">
        <ele>33</ele>
        <time>2020-06-06T14:49:38Z</time>
      </trkpt>
      <trkpt lat="47.72468" lon="-3.08003">
        <ele>32.9</ele>
        <time>2020-06-06T14:49:39Z</time>
      </trkpt>
      <trkpt lat="47.72469" lon="-3.08009">
        <ele>32.9</ele>
        <time>2020-06-06T14:49:40Z</time>
      </trkpt>
      <trkpt lat="47.72469" lon="-3.08011">
        <ele>32.8</ele>
        <time>2020-06-06T14:49:41Z</time>
      </trkpt>
      <trkpt lat="47.72469" lon="-3.08016">
        <ele>32.7</ele>
        <time>2020-06-06T14:49:42Z</time>
      </trkpt>
      <trkpt lat="47.7247" lon="-3.08021">
        <ele>32.6</ele>
        <time>2020-06-06T14:49:43Z</time>
      </trkpt>
      <trkpt lat="47.72471" lon="-3.08027">
        <ele>32.5</ele>
        <time>2020-06-06T14:49:44Z</time>
      </trkpt>
      <trkpt lat="47.72472" lon="-3.08033">
        <ele>32.4</ele>
        <time>2020-06-06T14:49:45Z</time>
      </trkpt>
      <trkpt lat="47.72473" lon="-3.08039">
        <ele>32.3</ele>
        <time>2020-06-06T14:49:46Z</time>
      </trkpt>
      <trkpt lat="47.72475" lon="-3.08045">
        <ele>32.1</ele>
        <time>2020-06-06T14:49:47Z</time>
      </trkpt>
      <trkpt lat="47.72476" lon="-3.08052">
        <ele>32</ele>
        <time>2020-06-06T14:49:48Z</time>
      </trkpt>
      <trkpt lat="47.72479" lon="-3.08059">
        <ele>31.8</ele>
        <time>2020-06-06T14:49:49Z</time>
      </trkpt>
      <trkpt lat="47.72481" lon="-3.08066">
        <ele>31.6</ele>
        <time>2020-06-06T14:49:50Z</time>
      </trkpt>
      <trkpt lat="47.72483" lon="-3.08073">
        <ele>31.4</ele>
        <time>2020-06-06T14:49:51Z</time>
      </trkpt>
      <trkpt lat="47.72485" lon="-3.08081">
        <ele>31.2</ele>
        <time>2020-06-06T14:49:52Z</time>
      </trkpt>
      <trkpt lat="47.72488" lon="-3.08091">
        <ele>30.9</ele>
        <time>2020-06-06T14:49:53Z</time>
      </trkpt>
      <trkpt lat="47.72491" lon="-3.081">
        <ele>30.6</ele>
        <time>2020-06-06T14:49:54Z</time>
      </trkpt>
      <trkpt lat="47.72495" lon="-3.08107">
        <ele>30.4</ele>
        <time>2020-06-06T14:49:55Z</time>
      </trkpt>
      <trkpt lat="47.72497" lon="-3.08115">
        <ele>30.2</ele>
        <time>2020-06-06T14:49:56Z</time>
      </trkpt>
      <trkpt lat="47.725" lon="-3.08121">
        <ele>30</ele>
        <time>2020-06-06T14:49:57Z</time>
      </trkpt>
      <trkpt lat="47.72506" lon="-3.08129">
        <ele>29.6</ele>
        <time>2020-06-06T14:49:58Z</time>
      </trkpt>
      <trkpt lat="47.72509" lon="-3.08136">
        <ele>29.4</ele>
        <time>2020-06-06T14:49:59Z</time>
      </trkpt>
      <trkpt lat="47.72514" lon="-3.08144">
        <ele>29.1</ele>
        <time>2020-06-06T14:50:00Z</time>
      </trkpt>
      <trkpt lat="47.7252" lon="-3.08151">
        <ele>28.8</ele>
        <time>2020-06-06T14:50:01Z</time>
      </trkpt>
      <trkpt lat="47.72524" lon="-3.08159">
        <ele>28.4</ele>
        <time>2020-06-06T14:50:02Z</time>
      </trkpt>
      <trkpt lat="47.72527" lon="-3.08167">
        <ele>28.1</ele>
        <time>2020-06-06T14:50:03Z</time>
      </trkpt>
      <trkpt lat="47.72531" lon="-3.08174">
        <ele>27.8</ele>
        <time>2020-06-06T14:50:04Z</time>
      </trkpt>
      <trkpt lat="47.72534" lon="-3.08182">
        <ele>27.6</ele>
        <time>2020-06-06T14:50:05Z</time>
      </trkpt>
      <trkpt lat="47.72538" lon="-3.0819">
        <ele>27.3</ele>
        <time>2020-06-06T14:50:06Z</time>
      </trkpt>
      <trkpt lat="47.72541" lon="-3.08199">
        <ele>27</ele>
        <time>2020-06-06T14:50:07Z</time>
      </trkpt>
      <trkpt lat="47.72545" lon="-3.08207">
        <ele>26.7</ele>
        <time>2020-06-06T14:50:08Z</time>
      </trkpt>
      <trkpt lat="47.72549" lon="-3.08216">
        <ele>26.5</ele>
        <time>2020-06-06T14:50:09Z</time>
      </trkpt>
      <trkpt lat="47.72552" lon="-3.08224">
        <ele>26.2</ele>
        <time>2020-06-06T14:50:10Z</time>
      </trkpt>
      <trkpt lat="47.72555" lon="-3.08232">
        <ele>25.9</ele>
        <time>2020-06-06T14:50:11Z</time>
      </trkpt>
      <trkpt lat="47.72558" lon="-3.08241">
        <ele>25.6</ele>
        <time>2020-06-06T14:50:12Z</time>
      </trkpt>
      <trkpt lat="47.72561" lon="-3.0825">
        <ele>25.3</ele>
        <time>2020-06-06T14:50:13Z</time>
      </trkpt>
      <trkpt lat="47.72565" lon="-3.0826">
        <ele>25</ele>
        <time>2020-06-06T14:50:14Z</time>
      </trkpt>
      <trkpt lat="47.72569" lon="-3.08269">
        <ele>24.7</ele>
        <time>2020-06-06T14:50:15Z</time>
      </trkpt>
      <trkpt lat="47.72572" lon="-3.08277">
        <ele>24.4</ele>
        <time>2020-06-06T14:50:16Z</time>
      </trkpt>
      <trkpt lat="47.72577" lon="-3.08287">
        <ele>24.1</ele>
        <time>2020-06-06T14:50:17Z</time>
      </trkpt>
      <trkpt lat="47.72581" lon="-3.08296">
        <ele>23.8</ele>
        <time>2020-06-06T14:50:18Z</time>
      </trkpt>
      <trkpt lat="47.72584" lon="-3.08305">
        <ele>23.5</ele>
        <time>2020-06-06T14:50:19Z</time>
      </trkpt>
      <trkpt lat="47.72587" lon="-3.08315">
        <ele>23.2</ele>
        <time>2020-06-06T14:50:20Z</time>
      </trkpt>
      <trkpt lat="47.72591" lon="-3.08325">
        <ele>22.9</ele>
        <time>2020-06-06T14:50:21Z</time>
      </trkpt>
      <trkpt lat="47.72595" lon="-3.08334">
        <ele>22.7</ele>
        <time>2020-06-06T14:50:22Z</time>
      </trkpt>
      <trkpt lat="47.72598" lon="-3.08343">
        <ele>22.4</ele>
        <time>2020-06-06T14:50:23Z</time>
      </trkpt>
      <trkpt lat="47.72602" lon="-3.08351">
        <ele>22.2</ele>
        <time>2020-06-06T14:50:24Z</time>
      </trkpt>
      <trkpt lat="47.72605" lon="-3.0836">
        <ele>21.9</ele>
        <time>2020-06-06T14:50:25Z</time>
      </trkpt>
      <trkpt lat="47.72608" lon="-3.08369">
        <ele>21.6</ele>
        <time>2020-06-06T14:50:26Z</time>
      </trkpt>
      <trkpt lat="47.72612" lon="-3.08379">
        <ele>21.3</ele>
        <time>2020-06-06T14:50:27Z</time>
      </trkpt>
      <trkpt lat="47.72615" lon="-3.08388">
        <ele>21</ele>
        <time>2020-06-06T14:50:28Z</time>
      </trkpt>
      <trkpt lat="47.72619" lon="-3.08397">
        <ele>20.7</ele>
        <time>2020-06-06T14:50:29Z</time>
      </trkpt>
      <trkpt lat="47.72622" lon="-3.08407">
        <ele>20.4</ele>
        <time>2020-06-06T14:50:30Z</time>
      </trkpt>
      <trkpt lat="47.72626" lon="-3.08416">
        <ele>20.1</ele>
        <time>2020-06-06T14:50:31Z</time>
      </trkpt>
      <trkpt lat="47.72629" lon="-3.08426">
        <ele>19.8</ele>
        <time>2020-06-06T14:50:32Z</time>
      </trkpt>
      <trkpt lat="47.72633" lon="-3.08435">
        <ele>19.5</ele>
        <time>2020-06-06T14:50:33Z</time>
      </trkpt>
      <trkpt lat="47.72637" lon="-3.08445">
        <ele>19.1</ele>
        <time>2020-06-06T14:50:34Z</time>
      </trkpt>
      <trkpt lat="47.7264" lon="-3.08454">
        <ele>18.8</ele>
        <time>2020-06-06T14:50:35Z</time>
      </trkpt>
      <trkpt lat="47.72644" lon="-3.08464">
        <ele>18.4</ele>
        <time>2020-06-06T14:50:36Z</time>
      </trkpt>
      <trkpt lat="47.72647" lon="-3.08473">
        <ele>18</ele>
        <time>2020-06-06T14:50:37Z</time>
      </trkpt>
      <trkpt lat="47.72649" lon="-3.08483">
        <ele>17.8</ele>
        <time>2020-06-06T14:50:38Z</time>
      </trkpt>
      <trkpt lat="47.72651" lon="-3.08494">
        <ele>17.5</ele>
        <time>2020-06-06T14:50:39Z</time>
      </trkpt>
      <trkpt lat="47.72652" lon="-3.08504">
        <ele>17.2</ele>
        <time>2020-06-06T14:50:40Z</time>
      </trkpt>
      <trkpt lat="47.72654" lon="-3.08514">
        <ele>16.9</ele>
        <time>2020-06-06T14:50:41Z</time>
      </trkpt>
      <trkpt lat="47.72655" lon="-3.08525">
        <ele>16.7</ele>
        <time>2020-06-06T14:50:42Z</time>
      </trkpt>
      <trkpt lat="47.72655" lon="-3.08536">
        <ele>16.4</ele>
        <time>2020-06-06T14:50:43Z</time>
      </trkpt>
      <trkpt lat="47.72655" lon="-3.08547">
        <ele>16.2</ele>
        <time>2020-06-06T14:50:44Z</time>
      </trkpt>
      <trkpt lat="47.72654" lon="-3.08557">
        <ele>15.9</ele>
        <time>2020-06-06T14:50:45Z</time>
      </trkpt>
      <trkpt lat="47.72655" lon="-3.08569">
        <ele>15.6</ele>
        <time>2020-06-06T14:50:46Z</time>
      </trkpt>
      <trkpt lat="47.72654" lon="-3.08579">
        <ele>15.3</ele>
        <time>2020-06-06T14:50:47Z</time>
      </trkpt>
      <trkpt lat="47.72654" lon="-3.0859">
        <ele>15.1</ele>
        <time>2020-06-06T14:50:48Z</time>
      </trkpt>
      <trkpt lat="47.72654" lon="-3.086">
        <ele>15</ele>
        <time>2020-06-06T14:50:49Z</time>
      </trkpt>
      <trkpt lat="47.72654" lon="-3.0861">
        <ele>14.9</ele>
        <time>2020-06-06T14:50:50Z</time>
      </trkpt>
      <trkpt lat="47.72654" lon="-3.0862">
        <ele>14.8</ele>
        <time>2020-06-06T14:50:51Z</time>
      </trkpt>
      <trkpt lat="47.72654" lon="-3.08629">
        <ele>14.7</ele>
        <time>2020-06-06T14:50:52Z</time>
      </trkpt>
      <trkpt lat="47.72654" lon="-3.08639">
        <ele>14.7</ele>
        <time>2020-06-06T14:50:53Z</time>
      </trkpt>
      <trkpt lat="47.72655" lon="-3.08647">
        <ele>14.7</ele>
        <time>2020-06-06T14:50:54Z</time>
      </trkpt>
      <trkpt lat="47.72657" lon="-3.08655">
        <ele>14.7</ele>
        <time>2020-06-06T14:50:55Z</time>
      </trkpt>
      <trkpt lat="47.72658" lon="-3.08664">
        <ele>14.8</ele>
        <time>2020-06-06T14:50:56Z</time>
      </trkpt>
      <trkpt lat="47.72659" lon="-3.08673">
        <ele>14.9</ele>
        <time>2020-06-06T14:50:57Z</time>
      </trkpt>
      <trkpt lat="47.7266" lon="-3.08681">
        <ele>15</ele>
        <time>2020-06-06T14:50:58Z</time>
      </trkpt>
      <trkpt lat="47.72661" lon="-3.0869">
        <ele>15.1</ele>
        <time>2020-06-06T14:50:59Z</time>
      </trkpt>
      <trkpt lat="47.72661" lon="-3.08699">
        <ele>15.3</ele>
        <time>2020-06-06T14:51:00Z</time>
      </trkpt>
      <trkpt lat="47.72662" lon="-3.08707">
        <ele>15.4</ele>
        <time>2020-06-06T14:51:01Z</time>
      </trkpt>
      <trkpt lat="47.72664" lon="-3.08714">
        <ele>15.6</ele>
        <time>2020-06-06T14:51:02Z</time>
      </trkpt>
      <trkpt lat="47.72665" lon="-3.08722">
        <ele>15.9</ele>
        <time>2020-06-06T14:51:03Z</time>
      </trkpt>
      <trkpt lat="47.72665" lon="-3.08729">
        <ele>16.2</ele>
        <time>2020-06-06T14:51:04Z</time>
      </trkpt>
      <trkpt lat="47.72666" lon="-3.08736">
        <ele>16.4</ele>
        <time>2020-06-06T14:51:05Z</time>
      </trkpt>
      <trkpt lat="47.72667" lon="-3.08742">
        <ele>16.7</ele>
        <time>2020-06-06T14:51:06Z</time>
      </trkpt>
      <trkpt lat="47.72667" lon="-3.08747">
        <ele>17</ele>
        <time>2020-06-06T14:51:07Z</time>
      </trkpt>
      <trkpt lat="47.72669" lon="-3.08752">
        <ele>17.2</ele>
        <time>2020-06-06T14:51:08Z</time>
      </trkpt>
      <trkpt lat="47.72671" lon="-3.08756">
        <ele>17.5</ele>
        <time>2020-06-06T14:51:09Z</time>
      </trkpt>
      <trkpt lat="47.72673" lon="-3.08759">
        <ele>17.7</ele>
        <time>2020-06-06T14:51:10Z</time>
      </trkpt>
      <trkpt lat="47.72675" lon="-3.08762">
        <ele>17.9</ele>
        <time>2020-06-06T14:51:11Z</time>
      </trkpt>
      <trkpt lat="47.72676" lon="-3.08763">
        <ele>18</ele>
        <time>2020-06-06T14:51:12Z</time>
      </trkpt>
      <trkpt lat="47.72678" lon="-3.08764">
        <ele>18.1</ele>
        <time>2020-06-06T14:51:13Z</time>
      </trkpt>
      <trkpt lat="47.72679" lon="-3.08764">
        <ele>18.2</ele>
        <time>2020-06-06T14:51:14Z</time>
      </trkpt>
      <trkpt lat="47.72679" lon="-3.08763">
        <ele>18.3</ele>
        <time>2020-06-06T14:51:15Z</time>
      </trkpt>
      <trkpt lat="47.72679" lon="-3.08762">
        <ele>18.3</ele>
        <time>2020-06-06T14:51:16Z</time>
      </trkpt>
      <trkpt lat="47.72679" lon="-3.08761">
        <ele>18.4</ele>
        <time>2020-06-06T14:51:17Z</time>
      </trkpt>
      <trkpt lat="47.72679" lon="-3.08762">
        <ele>18.4</ele>
        <time>2020-06-06T14:51:18Z</time>
      </trkpt>
      <trkpt lat="47.72679" lon="-3.08762">
        <ele>18.4</ele>
        <time>2020-06-06T14:51:19Z</time>
      </trkpt>
      <trkpt lat="47.72679" lon="-3.08761">
        <ele>18.4</ele>
        <time>2020-06-06T14:51:20Z</time>
      </trkpt>
      <trkpt lat="47.7268" lon="-3.08761">
        <ele>18.5</ele>
        <time>2020-06-06T14:51:21Z</time>
      </trkpt>
      <trkpt lat="47.7268" lon="-3.08761">
        <ele>18.5</ele>
        <time>2020-06-06T14:51:22Z</time>
      </trkpt>
      <trkpt lat="47.72682" lon="-3.08762">
        <ele>18.6</ele>
        <time>2020-06-06T14:51:23Z</time>
      </trkpt>
      <trkpt lat="47.72683" lon="-3.08763">
        <ele>18.8</ele>
        <time>2020-06-06T14:51:24Z</time>
      </trkpt>
      <trkpt lat="47.72685" lon="-3.08765">
        <ele>18.9</ele>
        <time>2020-06-06T14:52:12Z</time>
      </trkpt>
      <trkpt lat="47.72686" lon="-3.08766">
        <ele>19</ele>
        <time>2020-06-06T14:52:13Z</time>
      </trkpt>
      <trkpt lat="47.72688" lon="-3.08768">
        <ele>19.2</ele>
        <time>2020-06-06T14:52:14Z</time>
      </trkpt>
      <trkpt lat="47.72687" lon="-3.08772">
        <ele>19.3</ele>
        <time>2020-06-06T14:52:15Z</time>
      </trkpt>
      <trkpt lat="47.72686" lon="-3.08777">
        <ele>19.5</ele>
        <time>2020-06-06T14:52:16Z</time>
      </trkpt>
      <trkpt lat="47.72685" lon="-3.08781">
        <ele>19.7</ele>
        <time>2020-06-06T14:52:17Z</time>
      </trkpt>
      <trkpt lat="47.72684" lon="-3.08786">
        <ele>19.9</ele>
        <time>2020-06-06T14:52:18Z</time>
      </trkpt>
      <trkpt lat="47.72682" lon="-3.0879">
        <ele>20</ele>
        <time>2020-06-06T14:52:19Z</time>
      </trkpt>
      <trkpt lat="47.7268" lon="-3.08795">
        <ele>20</ele>
        <time>2020-06-06T14:52:20Z</time>
      </trkpt>
      <trkpt lat="47.72676" lon="-3.08799">
        <ele>20.1</ele>
        <time>2020-06-06T14:52:21Z</time>
      </trkpt>
      <trkpt lat="47.72673" lon="-3.08806">
        <ele>20.1</ele>
        <time>2020-06-06T14:52:22Z</time>
      </trkpt>
      <trkpt lat="47.7267" lon="-3.08811">
        <ele>20.2</ele>
        <time>2020-06-06T14:52:23Z</time>
      </trkpt>
      <trkpt lat="47.72665" lon="-3.08816">
        <ele>20.3</ele>
        <time>2020-06-06T14:52:24Z</time>
      </trkpt>
      <trkpt lat="47.72662" lon="-3.08822">
        <ele>20.3</ele>
        <time>2020-06-06T14:52:25Z</time>
      </trkpt>
      <trkpt lat="47.72658" lon="-3.08829">
        <ele>20.4</ele>
        <time>2020-06-06T14:52:26Z</time>
      </trkpt>
      <trkpt lat="47.72655" lon="-3.08835">
        <ele>20.5</ele>
        <time>2020-06-06T14:52:27Z</time>
      </trkpt>
      <trkpt lat="47.72651" lon="-3.08841">
        <ele>20.6</ele>
        <time>2020-06-06T14:52:28Z</time>
      </trkpt>
      <trkpt lat="47.72648" lon="-3.08847">
        <ele>20.7</ele>
        <time>2020-06-06T14:52:29Z</time>
      </trkpt>
      <trkpt lat="47.72645" lon="-3.08852">
        <ele>20.8</ele>
        <time>2020-06-06T14:52:30Z</time>
      </trkpt>
      <trkpt lat="47.72642" lon="-3.08859">
        <ele>20.9</ele>
        <time>2020-06-06T14:52:31Z</time>
      </trkpt>
      <trkpt lat="47.72639" lon="-3.08864">
        <ele>21</ele>
        <time>2020-06-06T14:52:32Z</time>
      </trkpt>
      <trkpt lat="47.72637" lon="-3.08871">
        <ele>21.1</ele>
        <time>2020-06-06T14:52:33Z</time>
      </trkpt>
      <trkpt lat="47.72634" lon="-3.08878">
        <ele>21.2</ele>
        <time>2020-06-06T14:52:34Z</time>
      </trkpt>
      <trkpt lat="47.72632" lon="-3.08885">
        <ele>21.3</ele>
        <time>2020-06-06T14:52:35Z</time>
      </trkpt>
      <trkpt lat="47.7263" lon="-3.08891">
        <ele>21.4</ele>
        <time>2020-06-06T14:52:36Z</time>
      </trkpt>
      <trkpt lat="47.72627" lon="-3.08896">
        <ele>21.5</ele>
        <time>2020-06-06T14:52:37Z</time>
      </trkpt>
      <trkpt lat="47.72624" lon="-3.08901">
        <ele>21.5</ele>
        <time>2020-06-06T14:52:38Z</time>
      </trkpt>
      <trkpt lat="47.72622" lon="-3.08907">
        <ele>21.6</ele>
        <time>2020-06-06T14:52:39Z</time>
      </trkpt>
      <trkpt lat="47.7262" lon="-3.08913">
        <ele>21.7</ele>
        <time>2020-06-06T14:52:40Z</time>
      </trkpt>
      <trkpt lat="47.72618" lon="-3.08918">
        <ele>21.8</ele>
        <time>2020-06-06T14:52:41Z</time>
      </trkpt>
      <trkpt lat="47.72616" lon="-3.08923">
        <ele>21.8</ele>
        <time>2020-06-06T14:52:42Z</time>
      </trkpt>
      <trkpt lat="47.72614" lon="-3.08927">
        <ele>21.9</ele>
        <time>2020-06-06T14:52:43Z</time>
      </trkpt>
      <trkpt lat="47.72612" lon="-3.08932">
        <ele>21.9</ele>
        <time>2020-06-06T14:52:44Z</time>
      </trkpt>
      <trkpt lat="47.72611" lon="-3.08936">
        <ele>21.9</ele>
        <time>2020-06-06T14:52:45Z</time>
      </trkpt>
      <trkpt lat="47.7261" lon="-3.0894">
        <ele>21.9</ele>
        <time>2020-06-06T14:52:46Z</time>
      </trkpt>
      <trkpt lat="47.72609" lon="-3.08942">
        <ele>21.9</ele>
        <time>2020-06-06T14:52:47Z</time>
      </trkpt>
      <trkpt lat="47.72609" lon="-3.08942">
        <ele>21.9</ele>
        <time>2020-06-06T14:52:48Z</time>
      </trkpt>
      <trkpt lat="47.72608" lon="-3.08942">
        <ele>21.9</ele>
        <time>2020-06-06T14:52:49Z</time>
      </trkpt>
      <trkpt lat="47.72608" lon="-3.08942">
        <ele>21.9</ele>
        <time>2020-06-06T14:52:50Z</time>
      </trkpt>
      <trkpt lat="47.72608" lon="-3.08942">
        <ele>21.9</ele>
        <time>2020-06-06T14:52:51Z</time>
      </trkpt>
      <trkpt lat="47.72608" lon="-3.08942">
        <ele>21.9</ele>
        <time>2020-06-06T14:52:52Z</time>
      </trkpt>
      <trkpt lat="47.72607" lon="-3.08942">
        <ele>21.9</ele>
        <time>2020-06-06T14:52:53Z</time>
      </trkpt>
      <trkpt lat="47.72607" lon="-3.08942">
        <ele>21.9</ele>
        <time>2020-06-06T14:52:54Z</time>
      </trkpt>
      <trkpt lat="47.72607" lon="-3.08942">
        <ele>21.9</ele>
        <time>2020-06-06T14:52:55Z</time>
      </trkpt>
      <trkpt lat="47.72607" lon="-3.08942">
        <ele>21.9</ele>
        <time>2020-06-06T14:52:56Z</time>
      </trkpt>
      <trkpt lat="47.72606" lon="-3.08942">
        <ele>21.9</ele>
        <time>2020-06-06T14:52:57Z</time>
      </trkpt>
      <trkpt lat="47.72606" lon="-3.08942">
        <ele>21.9</ele>
        <time>2020-06-06T14:52:58Z</time>
      </trkpt>
      <trkpt lat="47.72606" lon="-3.08942">
        <ele>21.9</ele>
        <time>2020-06-06T14:52:59Z</time>
      </trkpt>
      <trkpt lat="47.72606" lon="-3.08942">
        <ele>21.9</ele>
        <time>2020-06-06T14:53:00Z</time>
      </trkpt>
      <trkpt lat="47.72604" lon="-3.08945">
        <ele>21.9</ele>
        <time>2020-06-06T14:53:01Z</time>
      </trkpt>
      <trkpt lat="47.72603" lon="-3.08947">
        <ele>21.9</ele>
        <time>2020-06-06T14:53:02Z</time>
      </trkpt>
      <trkpt lat="47.72601" lon="-3.08948">
        <ele>21.9</ele>
        <time>2020-06-06T14:53:03Z</time>
      </trkpt>
      <trkpt lat="47.72598" lon="-3.08953">
        <ele>21.9</ele>
        <time>2020-06-06T14:53:04Z</time>
      </trkpt>
      <trkpt lat="47.72597" lon="-3.08955">
        <ele>21.9</ele>
        <time>2020-06-06T14:53:05Z</time>
      </trkpt>
      <trkpt lat="47.72595" lon="-3.08959">
        <ele>21.8</ele>
        <time>2020-06-06T14:53:06Z</time>
      </trkpt>
      <trkpt lat="47.72593" lon="-3.08962">
        <ele>21.8</ele>
        <time>2020-06-06T14:53:07Z</time>
      </trkpt>
      <trkpt lat="47.72591" lon="-3.08965">
        <ele>21.8</ele>
        <time>2020-06-06T14:53:08Z</time>
      </trkpt>
      <trkpt lat="47.7259" lon="-3.08967">
        <ele>21.8</ele>
        <time>2020-06-06T14:53:09Z</time>
      </trkpt>
      <trkpt lat="47.72587" lon="-3.0897">
        <ele>21.7</ele>
        <time>2020-06-06T14:53:10Z</time>
      </trkpt>
      <trkpt lat="47.72585" lon="-3.08975">
        <ele>21.7</ele>
        <time>2020-06-06T14:53:11Z</time>
      </trkpt>
      <trkpt lat="47.72583" lon="-3.08978">
        <ele>21.7</ele>
        <time>2020-06-06T14:53:12Z</time>
      </trkpt>
      <trkpt lat="47.72581" lon="-3.08982">
        <ele>21.6</ele>
        <time>2020-06-06T14:53:13Z</time>
      </trkpt>
      <trkpt lat="47.72578" lon="-3.08987">
        <ele>21.6</ele>
        <time>2020-06-06T14:53:14Z</time>
      </trkpt>
      <trkpt lat="47.72576" lon="-3.08992">
        <ele>21.5</ele>
        <time>2020-06-06T14:53:15Z</time>
      </trkpt>
      <trkpt lat="47.72573" lon="-3.08995">
        <ele>21.5</ele>
        <time>2020-06-06T14:53:16Z</time>
      </trkpt>
      <trkpt lat="47.72571" lon="-3.09">
        <ele>21.4</ele>
        <time>2020-06-06T14:53:17Z</time>
      </trkpt>
      <trkpt lat="47.72571" lon="-3.09006">
        <ele>21.4</ele>
        <time>2020-06-06T14:53:18Z</time>
      </trkpt>
      <trkpt lat="47.72572" lon="-3.09012">
        <ele>21.1</ele>
        <time>2020-06-06T14:53:19Z</time>
      </trkpt>
      <trkpt lat="47.72573" lon="-3.09018">
        <ele>21</ele>
        <time>2020-06-06T14:53:20Z</time>
      </trkpt>
      <trkpt lat="47.72574" lon="-3.09025">
        <ele>20.9</ele>
        <time>2020-06-06T14:53:21Z</time>
      </trkpt>
      <trkpt lat="47.72576" lon="-3.09029">
        <ele>20.9</ele>
        <time>2020-06-06T14:53:22Z</time>
      </trkpt>
      <trkpt lat="47.72577" lon="-3.09035">
        <ele>20.8</ele>
        <time>2020-06-06T14:53:23Z</time>
      </trkpt>
      <trkpt lat="47.72578" lon="-3.09041">
        <ele>20.8</ele>
        <time>2020-06-06T14:53:24Z</time>
      </trkpt>
      <trkpt lat="47.7258" lon="-3.09048">
        <ele>20.9</ele>
        <time>2020-06-06T14:53:25Z</time>
      </trkpt>
      <trkpt lat="47.72581" lon="-3.09055">
        <ele>20.9</ele>
        <time>2020-06-06T14:53:26Z</time>
      </trkpt>
      <trkpt lat="47.72582" lon="-3.09063">
        <ele>21</ele>
        <time>2020-06-06T14:53:27Z</time>
      </trkpt>
      <trkpt lat="47.72584" lon="-3.09069">
        <ele>21.1</ele>
        <time>2020-06-06T14:53:28Z</time>
      </trkpt>
      <trkpt lat="47.72585" lon="-3.09074">
        <ele>21.1</ele>
        <time>2020-06-06T14:53:29Z</time>
      </trkpt>
      <trkpt lat="47.72586" lon="-3.0908">
        <ele>21.2</ele>
        <time>2020-06-06T14:53:30Z</time>
      </trkpt>
      <trkpt lat="47.72587" lon="-3.09086">
        <ele>21.3</ele>
        <time>2020-06-06T14:53:31Z</time>
      </trkpt>
      <trkpt lat="47.72588" lon="-3.09092">
        <ele>21.4</ele>
        <time>2020-06-06T14:53:32Z</time>
      </trkpt>
      <trkpt lat="47.72589" lon="-3.09098">
        <ele>21.5</ele>
        <time>2020-06-06T14:53:33Z</time>
      </trkpt>
      <trkpt lat="47.72589" lon="-3.09104">
        <ele>21.6</ele>
        <time>2020-06-06T14:53:34Z</time>
      </trkpt>
      <trkpt lat="47.72591" lon="-3.0911">
        <ele>21.7</ele>
        <time>2020-06-06T14:53:35Z</time>
      </trkpt>
      <trkpt lat="47.72591" lon="-3.09118">
        <ele>21.9</ele>
        <time>2020-06-06T14:53:36Z</time>
      </trkpt>
      <trkpt lat="47.72592" lon="-3.09125">
        <ele>22</ele>
        <time>2020-06-06T14:53:37Z</time>
      </trkpt>
      <trkpt lat="47.72593" lon="-3.09131">
        <ele>22.2</ele>
        <time>2020-06-06T14:53:38Z</time>
      </trkpt>
      <trkpt lat="47.72594" lon="-3.09137">
        <ele>22.3</ele>
        <time>2020-06-06T14:53:39Z</time>
      </trkpt>
      <trkpt lat="47.72595" lon="-3.09142">
        <ele>22.4</ele>
        <time>2020-06-06T14:53:40Z</time>
      </trkpt>
      <trkpt lat="47.72596" lon="-3.09148">
        <ele>22.5</ele>
        <time>2020-06-06T14:53:41Z</time>
      </trkpt>
      <trkpt lat="47.72597" lon="-3.09154">
        <ele>22.6</ele>
        <time>2020-06-06T14:53:42Z</time>
      </trkpt>
      <trkpt lat="47.72598" lon="-3.09161">
        <ele>22.8</ele>
        <time>2020-06-06T14:53:43Z</time>
      </trkpt>
      <trkpt lat="47.72599" lon="-3.09167">
        <ele>22.9</ele>
        <time>2020-06-06T14:53:44Z</time>
      </trkpt>
      <trkpt lat="47.726" lon="-3.09173">
        <ele>23.1</ele>
        <time>2020-06-06T14:53:45Z</time>
      </trkpt>
      <trkpt lat="47.72601" lon="-3.0918">
        <ele>23.2</ele>
        <time>2020-06-06T14:53:46Z</time>
      </trkpt>
      <trkpt lat="47.72602" lon="-3.09185">
        <ele>23.3</ele>
        <time>2020-06-06T14:53:47Z</time>
      </trkpt>
      <trkpt lat="47.72604" lon="-3.09191">
        <ele>23.4</ele>
        <time>2020-06-06T14:53:48Z</time>
      </trkpt>
      <trkpt lat="47.72605" lon="-3.09195">
        <ele>23.5</ele>
        <time>2020-06-06T14:53:49Z</time>
      </trkpt>
      <trkpt lat="47.72606" lon="-3.092">
        <ele>23.7</ele>
        <time>2020-06-06T14:53:50Z</time>
      </trkpt>
      <trkpt lat="47.72607" lon="-3.09205">
        <ele>23.8</ele>
        <time>2020-06-06T14:53:51Z</time>
      </trkpt>
      <trkpt lat="47.72609" lon="-3.0921">
        <ele>24</ele>
        <time>2020-06-06T14:53:52Z</time>
      </trkpt>
      <trkpt lat="47.7261" lon="-3.09216">
        <ele>24.2</ele>
        <time>2020-06-06T14:53:53Z</time>
      </trkpt>
      <trkpt lat="47.72611" lon="-3.09223">
        <ele>24.4</ele>
        <time>2020-06-06T14:53:54Z</time>
      </trkpt>
      <trkpt lat="47.72612" lon="-3.09228">
        <ele>24.5</ele>
        <time>2020-06-06T14:53:55Z</time>
      </trkpt>
      <trkpt lat="47.72613" lon="-3.09234">
        <ele>24.7</ele>
        <time>2020-06-06T14:53:56Z</time>
      </trkpt>
      <trkpt lat="47.72614" lon="-3.09242">
        <ele>24.9</ele>
        <time>2020-06-06T14:53:57Z</time>
      </trkpt>
      <trkpt lat="47.72614" lon="-3.09247">
        <ele>25.1</ele>
        <time>2020-06-06T14:53:58Z</time>
      </trkpt>
      <trkpt lat="47.72615" lon="-3.09252">
        <ele>25.2</ele>
        <time>2020-06-06T14:53:59Z</time>
      </trkpt>
      <trkpt lat="47.72615" lon="-3.09259">
        <ele>25.4</ele>
        <time>2020-06-06T14:54:00Z</time>
      </trkpt>
      <trkpt lat="47.72615" lon="-3.09266">
        <ele>25.7</ele>
        <time>2020-06-06T14:54:01Z</time>
      </trkpt>
      <trkpt lat="47.72616" lon="-3.09273">
        <ele>25.9</ele>
        <time>2020-06-06T14:54:02Z</time>
      </trkpt>
      <trkpt lat="47.72617" lon="-3.09279">
        <ele>26.1</ele>
        <time>2020-06-06T14:54:03Z</time>
      </trkpt>
      <trkpt lat="47.72618" lon="-3.09285">
        <ele>26.3</ele>
        <time>2020-06-06T14:54:04Z</time>
      </trkpt>
      <trkpt lat="47.72618" lon="-3.09291">
        <ele>26.5</ele>
        <time>2020-06-06T14:54:05Z</time>
      </trkpt>
      <trkpt lat="47.72619" lon="-3.09298">
        <ele>26.7</ele>
        <time>2020-06-06T14:54:06Z</time>
      </trkpt>
      <trkpt lat="47.7262" lon="-3.09305">
        <ele>26.9</ele>
        <time>2020-06-06T14:54:07Z</time>
      </trkpt>
      <trkpt lat="47.72621" lon="-3.09311">
        <ele>27.1</ele>
        <time>2020-06-06T14:54:08Z</time>
      </trkpt>
      <trkpt lat="47.72622" lon="-3.09318">
        <ele>27.3</ele>
        <time>2020-06-06T14:54:09Z</time>
      </trkpt>
      <trkpt lat="47.72623" lon="-3.09324">
        <ele>27.5</ele>
        <time>2020-06-06T14:54:10Z</time>
      </trkpt>
      <trkpt lat="47.72623" lon="-3.09329">
        <ele>27.7</ele>
        <time>2020-06-06T14:54:11Z</time>
      </trkpt>
      <trkpt lat="47.72624" lon="-3.09336">
        <ele>27.9</ele>
        <time>2020-06-06T14:54:12Z</time>
      </trkpt>
      <trkpt lat="47.72625" lon="-3.09342">
        <ele>28.2</ele>
        <time>2020-06-06T14:54:13Z</time>
      </trkpt>
      <trkpt lat="47.72625" lon="-3.0935">
        <ele>28.6</ele>
        <time>2020-06-06T14:54:14Z</time>
      </trkpt>
      <trkpt lat="47.72625" lon="-3.09358">
        <ele>28.9</ele>
        <time>2020-06-06T14:54:15Z</time>
      </trkpt>
      <trkpt lat="47.72626" lon="-3.09364">
        <ele>29.1</ele>
        <time>2020-06-06T14:54:16Z</time>
      </trkpt>
      <trkpt lat="47.72627" lon="-3.09371">
        <ele>29.4</ele>
        <time>2020-06-06T14:54:17Z</time>
      </trkpt>
      <trkpt lat="47.72628" lon="-3.09376">
        <ele>29.6</ele>
        <time>2020-06-06T14:54:18Z</time>
      </trkpt>
      <trkpt lat="47.72629" lon="-3.0938">
        <ele>29.8</ele>
        <time>2020-06-06T14:54:19Z</time>
      </trkpt>
      <trkpt lat="47.7263" lon="-3.09386">
        <ele>30</ele>
        <time>2020-06-06T14:54:20Z</time>
      </trkpt>
      <trkpt lat="47.72631" lon="-3.09392">
        <ele>30.2</ele>
        <time>2020-06-06T14:54:21Z</time>
      </trkpt>
      <trkpt lat="47.72632" lon="-3.09398">
        <ele>30.5</ele>
        <time>2020-06-06T14:54:22Z</time>
      </trkpt>
      <trkpt lat="47.72633" lon="-3.09403">
        <ele>30.6</ele>
        <time>2020-06-06T14:54:23Z</time>
      </trkpt>
      <trkpt lat="47.72634" lon="-3.09407">
        <ele>30.8</ele>
        <time>2020-06-06T14:54:24Z</time>
      </trkpt>
      <trkpt lat="47.72635" lon="-3.09413">
        <ele>31</ele>
        <time>2020-06-06T14:54:25Z</time>
      </trkpt>
      <trkpt lat="47.72636" lon="-3.09415">
        <ele>31.1</ele>
        <time>2020-06-06T14:54:26Z</time>
      </trkpt>
      <trkpt lat="47.72636" lon="-3.09421">
        <ele>31.3</ele>
        <time>2020-06-06T14:54:27Z</time>
      </trkpt>
      <trkpt lat="47.72637" lon="-3.09426">
        <ele>31.5</ele>
        <time>2020-06-06T14:54:28Z</time>
      </trkpt>
      <trkpt lat="47.72638" lon="-3.09433">
        <ele>31.7</ele>
        <time>2020-06-06T14:54:29Z</time>
      </trkpt>
      <trkpt lat="47.72639" lon="-3.09438">
        <ele>31.9</ele>
        <time>2020-06-06T14:54:30Z</time>
      </trkpt>
      <trkpt lat="47.72639" lon="-3.09445">
        <ele>32.1</ele>
        <time>2020-06-06T14:54:31Z</time>
      </trkpt>
      <trkpt lat="47.7264" lon="-3.0945">
        <ele>32.3</ele>
        <time>2020-06-06T14:54:32Z</time>
      </trkpt>
      <trkpt lat="47.72641" lon="-3.09456">
        <ele>32.5</ele>
        <time>2020-06-06T14:54:33Z</time>
      </trkpt>
      <trkpt lat="47.72642" lon="-3.09462">
        <ele>32.6</ele>
        <time>2020-06-06T14:54:34Z</time>
      </trkpt>
      <trkpt lat="47.72643" lon="-3.09467">
        <ele>32.8</ele>
        <time>2020-06-06T14:54:35Z</time>
      </trkpt>
      <trkpt lat="47.72644" lon="-3.09471">
        <ele>32.9</ele>
        <time>2020-06-06T14:54:36Z</time>
      </trkpt>
      <trkpt lat="47.72644" lon="-3.09475">
        <ele>33</ele>
        <time>2020-06-06T14:54:37Z</time>
      </trkpt>
      <trkpt lat="47.72645" lon="-3.0948">
        <ele>33.1</ele>
        <time>2020-06-06T14:54:38Z</time>
      </trkpt>
      <trkpt lat="47.72645" lon="-3.09482">
        <ele>33.2</ele>
        <time>2020-06-06T14:54:39Z</time>
      </trkpt>
      <trkpt lat="47.72646" lon="-3.09486">
        <ele>33.3</ele>
        <time>2020-06-06T14:54:40Z</time>
      </trkpt>
      <trkpt lat="47.72648" lon="-3.09491">
        <ele>33.4</ele>
        <time>2020-06-06T14:54:41Z</time>
      </trkpt>
      <trkpt lat="47.72648" lon="-3.09493">
        <ele>33.4</ele>
        <time>2020-06-06T14:54:42Z</time>
      </trkpt>
      <trkpt lat="47.72651" lon="-3.09497">
        <ele>33.6</ele>
        <time>2020-06-06T14:54:43Z</time>
      </trkpt>
      <trkpt lat="47.72652" lon="-3.09499">
        <ele>33.6</ele>
        <time>2020-06-06T14:54:44Z</time>
      </trkpt>
      <trkpt lat="47.72655" lon="-3.095">
        <ele>33.7</ele>
        <time>2020-06-06T14:54:45Z</time>
      </trkpt>
      <trkpt lat="47.72657" lon="-3.095">
        <ele>33.7</ele>
        <time>2020-06-06T14:54:46Z</time>
      </trkpt>
      <trkpt lat="47.7266" lon="-3.095">
        <ele>33.7</ele>
        <time>2020-06-06T14:54:47Z</time>
      </trkpt>
      <trkpt lat="47.72663" lon="-3.095">
        <ele>33.7</ele>
        <time>2020-06-06T14:54:48Z</time>
      </trkpt>
      <trkpt lat="47.72667" lon="-3.095">
        <ele>33.6</ele>
        <time>2020-06-06T14:54:49Z</time>
      </trkpt>
      <trkpt lat="47.72672" lon="-3.09499">
        <ele>33.6</ele>
        <time>2020-06-06T14:54:50Z</time>
      </trkpt>
      <trkpt lat="47.72675" lon="-3.095">
        <ele>33.6</ele>
        <time>2020-06-06T14:54:51Z</time>
      </trkpt>
      <trkpt lat="47.72676" lon="-3.095">
        <ele>33.5</ele>
        <time>2020-06-06T14:54:52Z</time>
      </trkpt>
      <trkpt lat="47.72679" lon="-3.095">
        <ele>33.5</ele>
        <time>2020-06-06T14:54:53Z</time>
      </trkpt>
      <trkpt lat="47.72682" lon="-3.09498">
        <ele>33.5</ele>
        <time>2020-06-06T14:54:54Z</time>
      </trkpt>
      <trkpt lat="47.72685" lon="-3.09497">
        <ele>33.4</ele>
        <time>2020-06-06T14:54:55Z</time>
      </trkpt>
      <trkpt lat="47.72686" lon="-3.09496">
        <ele>33.4</ele>
        <time>2020-06-06T14:54:56Z</time>
      </trkpt>
      <trkpt lat="47.7269" lon="-3.09495">
        <ele>33.3</ele>
        <time>2020-06-06T14:54:57Z</time>
      </trkpt>
      <trkpt lat="47.72691" lon="-3.09495">
        <ele>33.3</ele>
        <time>2020-06-06T14:54:58Z</time>
      </trkpt>
      <trkpt lat="47.72693" lon="-3.09494">
        <ele>33.3</ele>
        <time>2020-06-06T14:54:59Z</time>
      </trkpt>
      <trkpt lat="47.72695" lon="-3.09493">
        <ele>33.2</ele>
        <time>2020-06-06T14:55:00Z</time>
      </trkpt>
      <trkpt lat="47.72695" lon="-3.09492">
        <ele>33.2</ele>
        <time>2020-06-06T14:55:01Z</time>
      </trkpt>
      <trkpt lat="47.72697" lon="-3.09491">
        <ele>33.2</ele>
        <time>2020-06-06T14:55:02Z</time>
      </trkpt>
      <trkpt lat="47.727" lon="-3.0949">
        <ele>33.1</ele>
        <time>2020-06-06T14:55:03Z</time>
      </trkpt>
      <trkpt lat="47.72701" lon="-3.0949">
        <ele>33.1</ele>
        <time>2020-06-06T14:55:04Z</time>
      </trkpt>
      <trkpt lat="47.72704" lon="-3.0949">
        <ele>33</ele>
        <time>2020-06-06T14:55:05Z</time>
      </trkpt>
      <trkpt lat="47.72706" lon="-3.0949">
        <ele>32.9</ele>
        <time>2020-06-06T14:55:06Z</time>
      </trkpt>
      <trkpt lat="47.72709" lon="-3.09489">
        <ele>32.8</ele>
        <time>2020-06-06T14:55:07Z</time>
      </trkpt>
      <trkpt lat="47.7271" lon="-3.09489">
        <ele>32.8</ele>
        <time>2020-06-06T14:55:08Z</time>
      </trkpt>
      <trkpt lat="47.72711" lon="-3.09489">
        <ele>32.7</ele>
        <time>2020-06-06T14:55:09Z</time>
      </trkpt>
      <trkpt lat="47.72711" lon="-3.09488">
        <ele>32.7</ele>
        <time>2020-06-06T14:55:10Z</time>
      </trkpt>
      <trkpt lat="47.72712" lon="-3.09488">
        <ele>32.7</ele>
        <time>2020-06-06T14:55:11Z</time>
      </trkpt>
      <trkpt lat="47.72712" lon="-3.09488">
        <ele>32.7</ele>
        <time>2020-06-06T14:55:12Z</time>
      </trkpt>
      <trkpt lat="47.72713" lon="-3.09489">
        <ele>32.7</ele>
        <time>2020-06-06T14:55:13Z</time>
      </trkpt>
      <trkpt lat="47.72712" lon="-3.09488">
        <ele>32.7</ele>
        <time>2020-06-06T14:55:14Z</time>
      </trkpt>
      <trkpt lat="47.72712" lon="-3.09488">
        <ele>32.6</ele>
        <time>2020-06-06T14:55:15Z</time>
      </trkpt>
      <trkpt lat="47.72711" lon="-3.09488">
        <ele>32.6</ele>
        <time>2020-06-06T14:55:16Z</time>
      </trkpt>
      <trkpt lat="47.72712" lon="-3.09489">
        <ele>32.6</ele>
        <time>2020-06-06T14:55:17Z</time>
      </trkpt>
      <trkpt lat="47.72713" lon="-3.09488">
        <ele>32.5</ele>
        <time>2020-06-06T14:55:18Z</time>
      </trkpt>
      <trkpt lat="47.72717" lon="-3.09487">
        <ele>32.4</ele>
        <time>2020-06-06T14:55:19Z</time>
      </trkpt>
      <trkpt lat="47.72718" lon="-3.09487">
        <ele>32.3</ele>
        <time>2020-06-06T14:55:20Z</time>
      </trkpt>
      <trkpt lat="47.72721" lon="-3.09486">
        <ele>32.2</ele>
        <time>2020-06-06T14:55:21Z</time>
      </trkpt>
      <trkpt lat="47.72725" lon="-3.09485">
        <ele>32</ele>
        <time>2020-06-06T14:55:22Z</time>
      </trkpt>
      <trkpt lat="47.72726" lon="-3.09485">
        <ele>32</ele>
        <time>2020-06-06T14:55:23Z</time>
      </trkpt>
      <trkpt lat="47.7273" lon="-3.09484">
        <ele>31.8</ele>
        <time>2020-06-06T14:55:24Z</time>
      </trkpt>
      <trkpt lat="47.72732" lon="-3.09484">
        <ele>31.7</ele>
        <time>2020-06-06T14:55:25Z</time>
      </trkpt>
      <trkpt lat="47.72735" lon="-3.09484">
        <ele>31.6</ele>
        <time>2020-06-06T14:55:26Z</time>
      </trkpt>
      <trkpt lat="47.7274" lon="-3.09482">
        <ele>31.4</ele>
        <time>2020-06-06T14:55:27Z</time>
      </trkpt>
      <trkpt lat="47.72744" lon="-3.09482">
        <ele>31.2</ele>
        <time>2020-06-06T14:55:28Z</time>
      </trkpt>
      <trkpt lat="47.72748" lon="-3.09482">
        <ele>31</ele>
        <time>2020-06-06T14:55:29Z</time>
      </trkpt>
      <trkpt lat="47.72752" lon="-3.09481">
        <ele>30.8</ele>
        <time>2020-06-06T14:55:30Z</time>
      </trkpt>
      <trkpt lat="47.72758" lon="-3.0948">
        <ele>30.6</ele>
        <time>2020-06-06T14:55:31Z</time>
      </trkpt>
      <trkpt lat="47.72764" lon="-3.09479">
        <ele>30.3</ele>
        <time>2020-06-06T14:55:32Z</time>
      </trkpt>
      <trkpt lat="47.72768" lon="-3.09477">
        <ele>30</ele>
        <time>2020-06-06T14:55:33Z</time>
      </trkpt>
      <trkpt lat="47.72772" lon="-3.09476">
        <ele>29.8</ele>
        <time>2020-06-06T14:55:34Z</time>
      </trkpt>
      <trkpt lat="47.72777" lon="-3.09474">
        <ele>29.6</ele>
        <time>2020-06-06T14:55:35Z</time>
      </trkpt>
      <trkpt lat="47.72783" lon="-3.09471">
        <ele>29.2</ele>
        <time>2020-06-06T14:55:36Z</time>
      </trkpt>
      <trkpt lat="47.7279" lon="-3.09469">
        <ele>28.9</ele>
        <time>2020-06-06T14:55:37Z</time>
      </trkpt>
      <trkpt lat="47.72797" lon="-3.09468">
        <ele>28.5</ele>
        <time>2020-06-06T14:55:38Z</time>
      </trkpt>
      <trkpt lat="47.72804" lon="-3.09467">
        <ele>28.1</ele>
        <time>2020-06-06T14:55:39Z</time>
      </trkpt>
      <trkpt lat="47.72811" lon="-3.09466">
        <ele>27.7</ele>
        <time>2020-06-06T14:55:40Z</time>
      </trkpt>
      <trkpt lat="47.72818" lon="-3.09465">
        <ele>27.4</ele>
        <time>2020-06-06T14:55:41Z</time>
      </trkpt>
      <trkpt lat="47.72826" lon="-3.09463">
        <ele>27</ele>
        <time>2020-06-06T14:55:42Z</time>
      </trkpt>
      <trkpt lat="47.72834" lon="-3.09462">
        <ele>26.7</ele>
        <time>2020-06-06T14:55:43Z</time>
      </trkpt>
      <trkpt lat="47.72842" lon="-3.0946">
        <ele>26.3</ele>
        <time>2020-06-06T14:55:44Z</time>
      </trkpt>
      <trkpt lat="47.7285" lon="-3.09459">
        <ele>26</ele>
        <time>2020-06-06T14:55:45Z</time>
      </trkpt>
      <trkpt lat="47.72859" lon="-3.09456">
        <ele>25.7</ele>
        <time>2020-06-06T14:55:46Z</time>
      </trkpt>
      <trkpt lat="47.72867" lon="-3.09455">
        <ele>25.4</ele>
        <time>2020-06-06T14:55:47Z</time>
      </trkpt>
      <trkpt lat="47.72876" lon="-3.09454">
        <ele>25.1</ele>
        <time>2020-06-06T14:55:48Z</time>
      </trkpt>
      <trkpt lat="47.72884" lon="-3.09452">
        <ele>24.8</ele>
        <time>2020-06-06T14:55:49Z</time>
      </trkpt>
      <trkpt lat="47.72892" lon="-3.09448">
        <ele>24.6</ele>
        <time>2020-06-06T14:55:50Z</time>
      </trkpt>
      <trkpt lat="47.72899" lon="-3.09441">
        <ele>24.5</ele>
        <time>2020-06-06T14:55:51Z</time>
      </trkpt>
      <trkpt lat="47.72905" lon="-3.09434">
        <ele>24.5</ele>
        <time>2020-06-06T14:55:52Z</time>
      </trkpt>
      <trkpt lat="47.7291" lon="-3.09428">
        <ele>24.4</ele>
        <time>2020-06-06T14:55:53Z</time>
      </trkpt>
      <trkpt lat="47.72916" lon="-3.09424">
        <ele>24.4</ele>
        <time>2020-06-06T14:55:54Z</time>
      </trkpt>
      <trkpt lat="47.72922" lon="-3.09422">
        <ele>24.3</ele>
        <time>2020-06-06T14:55:55Z</time>
      </trkpt>
      <trkpt lat="47.72928" lon="-3.09419">
        <ele>24.3</ele>
        <time>2020-06-06T14:55:56Z</time>
      </trkpt>
      <trkpt lat="47.72934" lon="-3.09415">
        <ele>24.2</ele>
        <time>2020-06-06T14:55:57Z</time>
      </trkpt>
      <trkpt lat="47.72939" lon="-3.09411">
        <ele>24.1</ele>
        <time>2020-06-06T14:55:58Z</time>
      </trkpt>
      <trkpt lat="47.72945" lon="-3.09408">
        <ele>24</ele>
        <time>2020-06-06T14:55:59Z</time>
      </trkpt>
      <trkpt lat="47.72951" lon="-3.09405">
        <ele>24</ele>
        <time>2020-06-06T14:56:00Z</time>
      </trkpt>
      <trkpt lat="47.72956" lon="-3.09402">
        <ele>23.9</ele>
        <time>2020-06-06T14:56:01Z</time>
      </trkpt>
      <trkpt lat="47.72961" lon="-3.09398">
        <ele>23.9</ele>
        <time>2020-06-06T14:56:02Z</time>
      </trkpt>
      <trkpt lat="47.72966" lon="-3.09395">
        <ele>23.9</ele>
        <time>2020-06-06T14:56:03Z</time>
      </trkpt>
      <trkpt lat="47.72972" lon="-3.09392">
        <ele>23.9</ele>
        <time>2020-06-06T14:56:04Z</time>
      </trkpt>
      <trkpt lat="47.72977" lon="-3.09389">
        <ele>23.9</ele>
        <time>2020-06-06T14:56:05Z</time>
      </trkpt>
      <trkpt lat="47.72983" lon="-3.09387">
        <ele>23.9</ele>
        <time>2020-06-06T14:56:06Z</time>
      </trkpt>
      <trkpt lat="47.72988" lon="-3.09385">
        <ele>23.9</ele>
        <time>2020-06-06T14:56:07Z</time>
      </trkpt>
      <trkpt lat="47.72994" lon="-3.09383">
        <ele>24</ele>
        <time>2020-06-06T14:56:08Z</time>
      </trkpt>
      <trkpt lat="47.73" lon="-3.09382">
        <ele>24</ele>
        <time>2020-06-06T14:56:09Z</time>
      </trkpt>
      <trkpt lat="47.73006" lon="-3.09381">
        <ele>24.1</ele>
        <time>2020-06-06T14:56:10Z</time>
      </trkpt>
      <trkpt lat="47.73012" lon="-3.0938">
        <ele>24.2</ele>
        <time>2020-06-06T14:56:11Z</time>
      </trkpt>
      <trkpt lat="47.73018" lon="-3.09381">
        <ele>24.2</ele>
        <time>2020-06-06T14:56:12Z</time>
      </trkpt>
      <trkpt lat="47.73024" lon="-3.09382">
        <ele>24.3</ele>
        <time>2020-06-06T14:56:13Z</time>
      </trkpt>
      <trkpt lat="47.73029" lon="-3.09382">
        <ele>24.4</ele>
        <time>2020-06-06T14:56:14Z</time>
      </trkpt>
      <trkpt lat="47.73035" lon="-3.09382">
        <ele>24.4</ele>
        <time>2020-06-06T14:56:15Z</time>
      </trkpt>
      <trkpt lat="47.7304" lon="-3.09381">
        <ele>24.5</ele>
        <time>2020-06-06T14:56:16Z</time>
      </trkpt>
      <trkpt lat="47.73045" lon="-3.09381">
        <ele>24.6</ele>
        <time>2020-06-06T14:56:17Z</time>
      </trkpt>
      <trkpt lat="47.7305" lon="-3.09381">
        <ele>24.8</ele>
        <time>2020-06-06T14:56:18Z</time>
      </trkpt>
      <trkpt lat="47.73055" lon="-3.09382">
        <ele>24.9</ele>
        <time>2020-06-06T14:56:19Z</time>
      </trkpt>
      <trkpt lat="47.7306" lon="-3.09382">
        <ele>24.9</ele>
        <time>2020-06-06T14:56:20Z</time>
      </trkpt>
      <trkpt lat="47.73064" lon="-3.09382">
        <ele>25</ele>
        <time>2020-06-06T14:56:21Z</time>
      </trkpt>
      <trkpt lat="47.73068" lon="-3.09382">
        <ele>25</ele>
        <time>2020-06-06T14:56:22Z</time>
      </trkpt>
      <trkpt lat="47.73072" lon="-3.09382">
        <ele>25</ele>
        <time>2020-06-06T14:56:23Z</time>
      </trkpt>
      <trkpt lat="47.73077" lon="-3.09382">
        <ele>25</ele>
        <time>2020-06-06T14:56:24Z</time>
      </trkpt>
      <trkpt lat="47.73081" lon="-3.09381">
        <ele>25.1</ele>
        <time>2020-06-06T14:56:25Z</time>
      </trkpt>
      <trkpt lat="47.73085" lon="-3.09381">
        <ele>25.1</ele>
        <time>2020-06-06T14:56:26Z</time>
      </trkpt>
      <trkpt lat="47.7309" lon="-3.09381">
        <ele>25.2</ele>
        <time>2020-06-06T14:56:27Z</time>
      </trkpt>
      <trkpt lat="47.73094" lon="-3.0938">
        <ele>25.2</ele>
        <time>2020-06-06T14:56:28Z</time>
      </trkpt>
      <trkpt lat="47.73099" lon="-3.09379">
        <ele>25.3</ele>
        <time>2020-06-06T14:56:29Z</time>
      </trkpt>
      <trkpt lat="47.73103" lon="-3.09377">
        <ele>25.4</ele>
        <time>2020-06-06T14:56:30Z</time>
      </trkpt>
      <trkpt lat="47.73108" lon="-3.09377">
        <ele>25.4</ele>
        <time>2020-06-06T14:56:31Z</time>
      </trkpt>
      <trkpt lat="47.73113" lon="-3.09375">
        <ele>25.4</ele>
        <time>2020-06-06T14:56:32Z</time>
      </trkpt>
      <trkpt lat="47.73117" lon="-3.09375">
        <ele>25.5</ele>
        <time>2020-06-06T14:56:33Z</time>
      </trkpt>
      <trkpt lat="47.73121" lon="-3.09372">
        <ele>25.5</ele>
        <time>2020-06-06T14:56:34Z</time>
      </trkpt>
      <trkpt lat="47.73126" lon="-3.09371">
        <ele>25.6</ele>
        <time>2020-06-06T14:56:35Z</time>
      </trkpt>
      <trkpt lat="47.7313" lon="-3.0937">
        <ele>25.7</ele>
        <time>2020-06-06T14:56:36Z</time>
      </trkpt>
      <trkpt lat="47.73135" lon="-3.0937">
        <ele>25.7</ele>
        <time>2020-06-06T14:56:37Z</time>
      </trkpt>
      <trkpt lat="47.73139" lon="-3.09369">
        <ele>25.7</ele>
        <time>2020-06-06T14:56:38Z</time>
      </trkpt>
      <trkpt lat="47.73144" lon="-3.09368">
        <ele>25.8</ele>
        <time>2020-06-06T14:56:39Z</time>
      </trkpt>
      <trkpt lat="47.73148" lon="-3.09368">
        <ele>25.8</ele>
        <time>2020-06-06T14:56:40Z</time>
      </trkpt>
      <trkpt lat="47.73152" lon="-3.09366">
        <ele>25.8</ele>
        <time>2020-06-06T14:56:41Z</time>
      </trkpt>
      <trkpt lat="47.73156" lon="-3.09364">
        <ele>25.9</ele>
        <time>2020-06-06T14:56:42Z</time>
      </trkpt>
      <trkpt lat="47.73161" lon="-3.09362">
        <ele>25.9</ele>
        <time>2020-06-06T14:56:43Z</time>
      </trkpt>
      <trkpt lat="47.73165" lon="-3.09361">
        <ele>25.9</ele>
        <time>2020-06-06T14:56:44Z</time>
      </trkpt>
      <trkpt lat="47.73169" lon="-3.0936">
        <ele>25.9</ele>
        <time>2020-06-06T14:56:45Z</time>
      </trkpt>
      <trkpt lat="47.73174" lon="-3.09358">
        <ele>25.9</ele>
        <time>2020-06-06T14:56:46Z</time>
      </trkpt>
      <trkpt lat="47.73178" lon="-3.09357">
        <ele>25.9</ele>
        <time>2020-06-06T14:56:47Z</time>
      </trkpt>
      <trkpt lat="47.73182" lon="-3.09357">
        <ele>25.9</ele>
        <time>2020-06-06T14:56:48Z</time>
      </trkpt>
      <trkpt lat="47.73187" lon="-3.09356">
        <ele>25.9</ele>
        <time>2020-06-06T14:56:49Z</time>
      </trkpt>
      <trkpt lat="47.73192" lon="-3.09356">
        <ele>25.9</ele>
        <time>2020-06-06T14:56:50Z</time>
      </trkpt>
      <trkpt lat="47.73197" lon="-3.09355">
        <ele>25.9</ele>
        <time>2020-06-06T14:56:51Z</time>
      </trkpt>
      <trkpt lat="47.73202" lon="-3.09354">
        <ele>25.9</ele>
        <time>2020-06-06T14:56:52Z</time>
      </trkpt>
      <trkpt lat="47.73207" lon="-3.09354">
        <ele>25.9</ele>
        <time>2020-06-06T14:56:53Z</time>
      </trkpt>
      <trkpt lat="47.73212" lon="-3.09353">
        <ele>25.8</ele>
        <time>2020-06-06T14:56:54Z</time>
      </trkpt>
      <trkpt lat="47.73217" lon="-3.09353">
        <ele>25.7</ele>
        <time>2020-06-06T14:56:55Z</time>
      </trkpt>
      <trkpt lat="47.73222" lon="-3.09353">
        <ele>25.7</ele>
        <time>2020-06-06T14:56:56Z</time>
      </trkpt>
      <trkpt lat="47.73227" lon="-3.09353">
        <ele>25.6</ele>
        <time>2020-06-06T14:56:57Z</time>
      </trkpt>
      <trkpt lat="47.73232" lon="-3.09352">
        <ele>25.5</ele>
        <time>2020-06-06T14:56:58Z</time>
      </trkpt>
      <trkpt lat="47.73237" lon="-3.0935">
        <ele>25.4</ele>
        <time>2020-06-06T14:56:59Z</time>
      </trkpt>
      <trkpt lat="47.73242" lon="-3.09348">
        <ele>25.4</ele>
        <time>2020-06-06T14:57:00Z</time>
      </trkpt>
      <trkpt lat="47.73247" lon="-3.09347">
        <ele>25.3</ele>
        <time>2020-06-06T14:57:01Z</time>
      </trkpt>
      <trkpt lat="47.73252" lon="-3.09346">
        <ele>25.3</ele>
        <time>2020-06-06T14:57:02Z</time>
      </trkpt>
      <trkpt lat="47.73256" lon="-3.09343">
        <ele>25.3</ele>
        <time>2020-06-06T14:57:03Z</time>
      </trkpt>
      <trkpt lat="47.73261" lon="-3.09339">
        <ele>25.3</ele>
        <time>2020-06-06T14:57:04Z</time>
      </trkpt>
      <trkpt lat="47.73266" lon="-3.09337">
        <ele>25.3</ele>
        <time>2020-06-06T14:57:05Z</time>
      </trkpt>
      <trkpt lat="47.7327" lon="-3.09334">
        <ele>25.3</ele>
        <time>2020-06-06T14:57:06Z</time>
      </trkpt>
      <trkpt lat="47.73275" lon="-3.09332">
        <ele>25.3</ele>
        <time>2020-06-06T14:57:07Z</time>
      </trkpt>
      <trkpt lat="47.73279" lon="-3.09329">
        <ele>25.3</ele>
        <time>2020-06-06T14:57:08Z</time>
      </trkpt>
      <trkpt lat="47.73284" lon="-3.09326">
        <ele>25.3</ele>
        <time>2020-06-06T14:57:09Z</time>
      </trkpt>
      <trkpt lat="47.73289" lon="-3.09324">
        <ele>25.4</ele>
        <time>2020-06-06T14:57:10Z</time>
      </trkpt>
      <trkpt lat="47.73293" lon="-3.09322">
        <ele>25.4</ele>
        <time>2020-06-06T14:57:11Z</time>
      </trkpt>
      <trkpt lat="47.73298" lon="-3.09318">
        <ele>25.4</ele>
        <time>2020-06-06T14:57:12Z</time>
      </trkpt>
      <trkpt lat="47.73302" lon="-3.09314">
        <ele>25.4</ele>
        <time>2020-06-06T14:57:13Z</time>
      </trkpt>
      <trkpt lat="47.73306" lon="-3.0931">
        <ele>25.4</ele>
        <time>2020-06-06T14:57:14Z</time>
      </trkpt>
      <trkpt lat="47.7331" lon="-3.09306">
        <ele>25.4</ele>
        <time>2020-06-06T14:57:15Z</time>
      </trkpt>
      <trkpt lat="47.73313" lon="-3.09301">
        <ele>25.4</ele>
        <time>2020-06-06T14:57:16Z</time>
      </trkpt>
      <trkpt lat="47.73317" lon="-3.09297">
        <ele>25.4</ele>
        <time>2020-06-06T14:57:17Z</time>
      </trkpt>
      <trkpt lat="47.7332" lon="-3.09293">
        <ele>25.4</ele>
        <time>2020-06-06T14:57:18Z</time>
      </trkpt>
      <trkpt lat="47.73324" lon="-3.0929">
        <ele>25.4</ele>
        <time>2020-06-06T14:57:19Z</time>
      </trkpt>
      <trkpt lat="47.73327" lon="-3.09288">
        <ele>25.4</ele>
        <time>2020-06-06T14:57:20Z</time>
      </trkpt>
      <trkpt lat="47.73331" lon="-3.09286">
        <ele>25.3</ele>
        <time>2020-06-06T14:57:21Z</time>
      </trkpt>
      <trkpt lat="47.73336" lon="-3.09285">
        <ele>25.3</ele>
        <time>2020-06-06T14:57:22Z</time>
      </trkpt>
      <trkpt lat="47.7334" lon="-3.09287">
        <ele>25.3</ele>
        <time>2020-06-06T14:57:23Z</time>
      </trkpt>
      <trkpt lat="47.73344" lon="-3.0929">
        <ele>25.2</ele>
        <time>2020-06-06T14:57:24Z</time>
      </trkpt>
      <trkpt lat="47.73348" lon="-3.09292">
        <ele>25.2</ele>
        <time>2020-06-06T14:57:25Z</time>
      </trkpt>
      <trkpt lat="47.73352" lon="-3.09294">
        <ele>25.2</ele>
        <time>2020-06-06T14:57:26Z</time>
      </trkpt>
      <trkpt lat="47.73356" lon="-3.09295">
        <ele>25.1</ele>
        <time>2020-06-06T14:57:27Z</time>
      </trkpt>
      <trkpt lat="47.7336" lon="-3.09296">
        <ele>25.1</ele>
        <time>2020-06-06T14:57:28Z</time>
      </trkpt>
      <trkpt lat="47.73363" lon="-3.09299">
        <ele>25.1</ele>
        <time>2020-06-06T14:57:29Z</time>
      </trkpt>
      <trkpt lat="47.73367" lon="-3.09301">
        <ele>25.1</ele>
        <time>2020-06-06T14:57:30Z</time>
      </trkpt>
      <trkpt lat="47.7337" lon="-3.09304">
        <ele>25.2</ele>
        <time>2020-06-06T14:57:31Z</time>
      </trkpt>
      <trkpt lat="47.73373" lon="-3.09307">
        <ele>25.2</ele>
        <time>2020-06-06T14:57:32Z</time>
      </trkpt>
      <trkpt lat="47.73377" lon="-3.09311">
        <ele>25.2</ele>
        <time>2020-06-06T14:57:33Z</time>
      </trkpt>
      <trkpt lat="47.73382" lon="-3.09314">
        <ele>25.2</ele>
        <time>2020-06-06T14:57:34Z</time>
      </trkpt>
      <trkpt lat="47.73387" lon="-3.09317">
        <ele>25.2</ele>
        <time>2020-06-06T14:57:35Z</time>
      </trkpt>
      <trkpt lat="47.73392" lon="-3.09319">
        <ele>25.2</ele>
        <time>2020-06-06T14:57:36Z</time>
      </trkpt>
      <trkpt lat="47.73397" lon="-3.09322">
        <ele>25.2</ele>
        <time>2020-06-06T14:57:37Z</time>
      </trkpt>
      <trkpt lat="47.73401" lon="-3.09325">
        <ele>25.2</ele>
        <time>2020-06-06T14:57:38Z</time>
      </trkpt>
      <trkpt lat="47.73406" lon="-3.09328">
        <ele>25.2</ele>
        <time>2020-06-06T14:57:39Z</time>
      </trkpt>
      <trkpt lat="47.7341" lon="-3.09332">
        <ele>25.2</ele>
        <time>2020-06-06T14:57:40Z</time>
      </trkpt>
      <trkpt lat="47.73414" lon="-3.09336">
        <ele>25.1</ele>
        <time>2020-06-06T14:57:41Z</time>
      </trkpt>
      <trkpt lat="47.73418" lon="-3.09341">
        <ele>25.1</ele>
        <time>2020-06-06T14:57:42Z</time>
      </trkpt>
      <trkpt lat="47.73422" lon="-3.09345">
        <ele>25</ele>
        <time>2020-06-06T14:57:43Z</time>
      </trkpt>
      <trkpt lat="47.73427" lon="-3.09349">
        <ele>25</ele>
        <time>2020-06-06T14:57:44Z</time>
      </trkpt>
      <trkpt lat="47.73431" lon="-3.09353">
        <ele>24.9</ele>
        <time>2020-06-06T14:57:45Z</time>
      </trkpt>
      <trkpt lat="47.73436" lon="-3.09356">
        <ele>24.8</ele>
        <time>2020-06-06T14:57:46Z</time>
      </trkpt>
      <trkpt lat="47.7344" lon="-3.0936">
        <ele>24.8</ele>
        <time>2020-06-06T14:57:47Z</time>
      </trkpt>
      <trkpt lat="47.73445" lon="-3.09364">
        <ele>24.7</ele>
        <time>2020-06-06T14:57:48Z</time>
      </trkpt>
      <trkpt lat="47.7345" lon="-3.09368">
        <ele>24.6</ele>
        <time>2020-06-06T14:57:49Z</time>
      </trkpt>
      <trkpt lat="47.73455" lon="-3.09373">
        <ele>24.5</ele>
        <time>2020-06-06T14:57:50Z</time>
      </trkpt>
      <trkpt lat="47.73461" lon="-3.09378">
        <ele>24.4</ele>
        <time>2020-06-06T14:57:51Z</time>
      </trkpt>
      <trkpt lat="47.73467" lon="-3.09382">
        <ele>24.3</ele>
        <time>2020-06-06T14:57:52Z</time>
      </trkpt>
      <trkpt lat="47.73472" lon="-3.09387">
        <ele>24.1</ele>
        <time>2020-06-06T14:57:53Z</time>
      </trkpt>
      <trkpt lat="47.73477" lon="-3.09391">
        <ele>24</ele>
        <time>2020-06-06T14:57:54Z</time>
      </trkpt>
      <trkpt lat="47.73482" lon="-3.09394">
        <ele>23.8</ele>
        <time>2020-06-06T14:57:55Z</time>
      </trkpt>
      <trkpt lat="47.73487" lon="-3.09398">
        <ele>23.7</ele>
        <time>2020-06-06T14:57:56Z</time>
      </trkpt>
      <trkpt lat="47.73492" lon="-3.09401">
        <ele>23.6</ele>
        <time>2020-06-06T14:57:57Z</time>
      </trkpt>
      <trkpt lat="47.73497" lon="-3.09406">
        <ele>23.5</ele>
        <time>2020-06-06T14:57:58Z</time>
      </trkpt>
      <trkpt lat="47.73501" lon="-3.09409">
        <ele>23.4</ele>
        <time>2020-06-06T14:57:59Z</time>
      </trkpt>
      <trkpt lat="47.73507" lon="-3.09415">
        <ele>23.2</ele>
        <time>2020-06-06T14:58:00Z</time>
      </trkpt>
      <trkpt lat="47.73512" lon="-3.09421">
        <ele>23</ele>
        <time>2020-06-06T14:58:01Z</time>
      </trkpt>
      <trkpt lat="47.73517" lon="-3.09427">
        <ele>22.9</ele>
        <time>2020-06-06T14:58:02Z</time>
      </trkpt>
      <trkpt lat="47.73522" lon="-3.09431">
        <ele>22.7</ele>
        <time>2020-06-06T14:58:03Z</time>
      </trkpt>
      <trkpt lat="47.73527" lon="-3.09436">
        <ele>22.5</ele>
        <time>2020-06-06T14:58:04Z</time>
      </trkpt>
      <trkpt lat="47.73533" lon="-3.09441">
        <ele>22.4</ele>
        <time>2020-06-06T14:58:05Z</time>
      </trkpt>
      <trkpt lat="47.73538" lon="-3.09446">
        <ele>22.2</ele>
        <time>2020-06-06T14:58:06Z</time>
      </trkpt>
      <trkpt lat="47.73544" lon="-3.0945">
        <ele>22.1</ele>
        <time>2020-06-06T14:58:07Z</time>
      </trkpt>
      <trkpt lat="47.73549" lon="-3.09455">
        <ele>21.9</ele>
        <time>2020-06-06T14:58:08Z</time>
      </trkpt>
      <trkpt lat="47.73554" lon="-3.0946">
        <ele>21.8</ele>
        <time>2020-06-06T14:58:09Z</time>
      </trkpt>
      <trkpt lat="47.73559" lon="-3.09465">
        <ele>21.6</ele>
        <time>2020-06-06T14:58:10Z</time>
      </trkpt>
      <trkpt lat="47.73565" lon="-3.09468">
        <ele>21.4</ele>
        <time>2020-06-06T14:58:11Z</time>
      </trkpt>
      <trkpt lat="47.73571" lon="-3.09473">
        <ele>21.3</ele>
        <time>2020-06-06T14:58:12Z</time>
      </trkpt>
      <trkpt lat="47.73576" lon="-3.09477">
        <ele>21.2</ele>
        <time>2020-06-06T14:58:13Z</time>
      </trkpt>
      <trkpt lat="47.73582" lon="-3.09481">
        <ele>21</ele>
        <time>2020-06-06T14:58:14Z</time>
      </trkpt>
      <trkpt lat="47.73586" lon="-3.09485">
        <ele>20.9</ele>
        <time>2020-06-06T14:58:15Z</time>
      </trkpt>
      <trkpt lat="47.73592" lon="-3.09489">
        <ele>20.8</ele>
        <time>2020-06-06T14:58:16Z</time>
      </trkpt>
      <trkpt lat="47.73596" lon="-3.09494">
        <ele>20.8</ele>
        <time>2020-06-06T14:58:17Z</time>
      </trkpt>
      <trkpt lat="47.73602" lon="-3.09498">
        <ele>20.7</ele>
        <time>2020-06-06T14:58:18Z</time>
      </trkpt>
      <trkpt lat="47.73607" lon="-3.09503">
        <ele>20.6</ele>
        <time>2020-06-06T14:58:19Z</time>
      </trkpt>
      <trkpt lat="47.73611" lon="-3.09507">
        <ele>20.5</ele>
        <time>2020-06-06T14:58:20Z</time>
      </trkpt>
      <trkpt lat="47.73616" lon="-3.09513">
        <ele>20.5</ele>
        <time>2020-06-06T14:58:21Z</time>
      </trkpt>
      <trkpt lat="47.7362" lon="-3.09517">
        <ele>20.4</ele>
        <time>2020-06-06T14:58:22Z</time>
      </trkpt>
      <trkpt lat="47.73624" lon="-3.09523">
        <ele>20.3</ele>
        <time>2020-06-06T14:58:23Z</time>
      </trkpt>
      <trkpt lat="47.73629" lon="-3.09531">
        <ele>20.2</ele>
        <time>2020-06-06T14:58:24Z</time>
      </trkpt>
      <trkpt lat="47.73633" lon="-3.09538">
        <ele>20.1</ele>
        <time>2020-06-06T14:58:25Z</time>
      </trkpt>
      <trkpt lat="47.73636" lon="-3.09545">
        <ele>20</ele>
        <time>2020-06-06T14:58:26Z</time>
      </trkpt>
      <trkpt lat="47.73639" lon="-3.09551">
        <ele>19.9</ele>
        <time>2020-06-06T14:58:27Z</time>
      </trkpt>
      <trkpt lat="47.73643" lon="-3.09557">
        <ele>19.8</ele>
        <time>2020-06-06T14:58:28Z</time>
      </trkpt>
      <trkpt lat="47.73648" lon="-3.09562">
        <ele>19.7</ele>
        <time>2020-06-06T14:58:29Z</time>
      </trkpt>
      <trkpt lat="47.73654" lon="-3.09565">
        <ele>19.6</ele>
        <time>2020-06-06T14:58:30Z</time>
      </trkpt>
      <trkpt lat="47.7366" lon="-3.09568">
        <ele>19.5</ele>
        <time>2020-06-06T14:58:31Z</time>
      </trkpt>
      <trkpt lat="47.73667" lon="-3.0957">
        <ele>19.5</ele>
        <time>2020-06-06T14:58:32Z</time>
      </trkpt>
      <trkpt lat="47.73673" lon="-3.09571">
        <ele>19.5</ele>
        <time>2020-06-06T14:58:33Z</time>
      </trkpt>
      <trkpt lat="47.73679" lon="-3.09572">
        <ele>19.4</ele>
        <time>2020-06-06T14:58:34Z</time>
      </trkpt>
      <trkpt lat="47.73685" lon="-3.09574">
        <ele>19.4</ele>
        <time>2020-06-06T14:58:35Z</time>
      </trkpt>
      <trkpt lat="47.7369" lon="-3.09577">
        <ele>19.4</ele>
        <time>2020-06-06T14:58:36Z</time>
      </trkpt>
      <trkpt lat="47.73695" lon="-3.0958">
        <ele>19.3</ele>
        <time>2020-06-06T14:58:37Z</time>
      </trkpt>
      <trkpt lat="47.73701" lon="-3.09582">
        <ele>19.3</ele>
        <time>2020-06-06T14:58:38Z</time>
      </trkpt>
      <trkpt lat="47.73706" lon="-3.09586">
        <ele>19.4</ele>
        <time>2020-06-06T14:58:39Z</time>
      </trkpt>
      <trkpt lat="47.73711" lon="-3.0959">
        <ele>19.4</ele>
        <time>2020-06-06T14:58:40Z</time>
      </trkpt>
      <trkpt lat="47.73717" lon="-3.09593">
        <ele>19.4</ele>
        <time>2020-06-06T14:58:41Z</time>
      </trkpt>
      <trkpt lat="47.73722" lon="-3.09597">
        <ele>19.4</ele>
        <time>2020-06-06T14:58:42Z</time>
      </trkpt>
      <trkpt lat="47.73726" lon="-3.096">
        <ele>19.4</ele>
        <time>2020-06-06T14:58:43Z</time>
      </trkpt>
      <trkpt lat="47.73731" lon="-3.09604">
        <ele>19.4</ele>
        <time>2020-06-06T14:58:44Z</time>
      </trkpt>
      <trkpt lat="47.73736" lon="-3.09607">
        <ele>19.4</ele>
        <time>2020-06-06T14:58:45Z</time>
      </trkpt>
      <trkpt lat="47.73741" lon="-3.09611">
        <ele>19.5</ele>
        <time>2020-06-06T14:58:46Z</time>
      </trkpt>
      <trkpt lat="47.73745" lon="-3.09614">
        <ele>19.5</ele>
        <time>2020-06-06T14:58:47Z</time>
      </trkpt>
      <trkpt lat="47.7375" lon="-3.09618">
        <ele>19.5</ele>
        <time>2020-06-06T14:58:48Z</time>
      </trkpt>
      <trkpt lat="47.73754" lon="-3.09622">
        <ele>19.6</ele>
        <time>2020-06-06T14:58:49Z</time>
      </trkpt>
      <trkpt lat="47.73759" lon="-3.09627">
        <ele>19.6</ele>
        <time>2020-06-06T14:58:50Z</time>
      </trkpt>
      <trkpt lat="47.73764" lon="-3.0963">
        <ele>19.6</ele>
        <time>2020-06-06T14:58:51Z</time>
      </trkpt>
      <trkpt lat="47.73768" lon="-3.09634">
        <ele>19.7</ele>
        <time>2020-06-06T14:58:52Z</time>
      </trkpt>
      <trkpt lat="47.73774" lon="-3.09638">
        <ele>19.7</ele>
        <time>2020-06-06T14:58:53Z</time>
      </trkpt>
      <trkpt lat="47.73777" lon="-3.09643">
        <ele>19.8</ele>
        <time>2020-06-06T14:58:54Z</time>
      </trkpt>
      <trkpt lat="47.73782" lon="-3.09647">
        <ele>19.8</ele>
        <time>2020-06-06T14:58:55Z</time>
      </trkpt>
      <trkpt lat="47.73786" lon="-3.0965">
        <ele>19.9</ele>
        <time>2020-06-06T14:58:56Z</time>
      </trkpt>
      <trkpt lat="47.73791" lon="-3.09655">
        <ele>19.9</ele>
        <time>2020-06-06T14:58:57Z</time>
      </trkpt>
      <trkpt lat="47.73795" lon="-3.09657">
        <ele>19.8</ele>
        <time>2020-06-06T14:58:58Z</time>
      </trkpt>
      <trkpt lat="47.73799" lon="-3.0966">
        <ele>19.8</ele>
        <time>2020-06-06T14:58:59Z</time>
      </trkpt>
      <trkpt lat="47.73804" lon="-3.09664">
        <ele>19.8</ele>
        <time>2020-06-06T14:59:00Z</time>
      </trkpt>
      <trkpt lat="47.73808" lon="-3.09668">
        <ele>19.7</ele>
        <time>2020-06-06T14:59:01Z</time>
      </trkpt>
      <trkpt lat="47.73813" lon="-3.09672">
        <ele>19.7</ele>
        <time>2020-06-06T14:59:02Z</time>
      </trkpt>
      <trkpt lat="47.73818" lon="-3.09676">
        <ele>19.7</ele>
        <time>2020-06-06T14:59:03Z</time>
      </trkpt>
      <trkpt lat="47.73823" lon="-3.0968">
        <ele>19.7</ele>
        <time>2020-06-06T14:59:04Z</time>
      </trkpt>
      <trkpt lat="47.73828" lon="-3.09684">
        <ele>19.7</ele>
        <time>2020-06-06T14:59:05Z</time>
      </trkpt>
      <trkpt lat="47.73834" lon="-3.09687">
        <ele>19.8</ele>
        <time>2020-06-06T14:59:06Z</time>
      </trkpt>
      <trkpt lat="47.73839" lon="-3.09691">
        <ele>19.8</ele>
        <time>2020-06-06T14:59:07Z</time>
      </trkpt>
      <trkpt lat="47.73842" lon="-3.09695">
        <ele>19.9</ele>
        <time>2020-06-06T14:59:08Z</time>
      </trkpt>
      <trkpt lat="47.73847" lon="-3.097">
        <ele>20.1</ele>
        <time>2020-06-06T14:59:09Z</time>
      </trkpt>
      <trkpt lat="47.73853" lon="-3.09704">
        <ele>20.1</ele>
        <time>2020-06-06T14:59:10Z</time>
      </trkpt>
      <trkpt lat="47.73858" lon="-3.09708">
        <ele>20.1</ele>
        <time>2020-06-06T14:59:11Z</time>
      </trkpt>
      <trkpt lat="47.73863" lon="-3.09713">
        <ele>20.1</ele>
        <time>2020-06-06T14:59:12Z</time>
      </trkpt>
      <trkpt lat="47.73867" lon="-3.09717">
        <ele>20.1</ele>
        <time>2020-06-06T14:59:13Z</time>
      </trkpt>
      <trkpt lat="47.73871" lon="-3.0972">
        <ele>20.1</ele>
        <time>2020-06-06T14:59:14Z</time>
      </trkpt>
      <trkpt lat="47.73875" lon="-3.09724">
        <ele>20.1</ele>
        <time>2020-06-06T14:59:15Z</time>
      </trkpt>
      <trkpt lat="47.73881" lon="-3.09729">
        <ele>20.1</ele>
        <time>2020-06-06T14:59:16Z</time>
      </trkpt>
      <trkpt lat="47.73887" lon="-3.09734">
        <ele>20.2</ele>
        <time>2020-06-06T14:59:17Z</time>
      </trkpt>
      <trkpt lat="47.73893" lon="-3.0974">
        <ele>20.2</ele>
        <time>2020-06-06T14:59:18Z</time>
      </trkpt>
      <trkpt lat="47.73898" lon="-3.09745">
        <ele>20.2</ele>
        <time>2020-06-06T14:59:19Z</time>
      </trkpt>
      <trkpt lat="47.73903" lon="-3.09749">
        <ele>20.2</ele>
        <time>2020-06-06T14:59:20Z</time>
      </trkpt>
      <trkpt lat="47.73909" lon="-3.09753">
        <ele>20.2</ele>
        <time>2020-06-06T14:59:21Z</time>
      </trkpt>
      <trkpt lat="47.73914" lon="-3.09756">
        <ele>20.3</ele>
        <time>2020-06-06T14:59:22Z</time>
      </trkpt>
      <trkpt lat="47.73919" lon="-3.09761">
        <ele>20.3</ele>
        <time>2020-06-06T14:59:23Z</time>
      </trkpt>
      <trkpt lat="47.73924" lon="-3.09765">
        <ele>20.3</ele>
        <time>2020-06-06T14:59:24Z</time>
      </trkpt>
      <trkpt lat="47.73928" lon="-3.09769">
        <ele>20.3</ele>
        <time>2020-06-06T14:59:25Z</time>
      </trkpt>
      <trkpt lat="47.73933" lon="-3.09773">
        <ele>20.3</ele>
        <time>2020-06-06T14:59:26Z</time>
      </trkpt>
      <trkpt lat="47.73938" lon="-3.09777">
        <ele>20.2</ele>
        <time>2020-06-06T14:59:27Z</time>
      </trkpt>
      <trkpt lat="47.73943" lon="-3.09781">
        <ele>20.2</ele>
        <time>2020-06-06T14:59:28Z</time>
      </trkpt>
      <trkpt lat="47.73947" lon="-3.09785">
        <ele>20.2</ele>
        <time>2020-06-06T14:59:29Z</time>
      </trkpt>
      <trkpt lat="47.73952" lon="-3.09789">
        <ele>20.2</ele>
        <time>2020-06-06T14:59:30Z</time>
      </trkpt>
      <trkpt lat="47.73957" lon="-3.09793">
        <ele>20.2</ele>
        <time>2020-06-06T14:59:31Z</time>
      </trkpt>
      <trkpt lat="47.73963" lon="-3.09797">
        <ele>20.2</ele>
        <time>2020-06-06T14:59:32Z</time>
      </trkpt>
      <trkpt lat="47.73969" lon="-3.09802">
        <ele>20.2</ele>
        <time>2020-06-06T14:59:33Z</time>
      </trkpt>
      <trkpt lat="47.73974" lon="-3.09807">
        <ele>20.3</ele>
        <time>2020-06-06T14:59:34Z</time>
      </trkpt>
      <trkpt lat="47.73979" lon="-3.09811">
        <ele>20.4</ele>
        <time>2020-06-06T14:59:35Z</time>
      </trkpt>
      <trkpt lat="47.73984" lon="-3.09814">
        <ele>20.4</ele>
        <time>2020-06-06T14:59:36Z</time>
      </trkpt>
      <trkpt lat="47.73988" lon="-3.09818">
        <ele>20.5</ele>
        <time>2020-06-06T14:59:37Z</time>
      </trkpt>
      <trkpt lat="47.73994" lon="-3.09821">
        <ele>20.5</ele>
        <time>2020-06-06T14:59:38Z</time>
      </trkpt>
      <trkpt lat="47.73998" lon="-3.09824">
        <ele>20.6</ele>
        <time>2020-06-06T14:59:39Z</time>
      </trkpt>
      <trkpt lat="47.74003" lon="-3.09828">
        <ele>20.6</ele>
        <time>2020-06-06T14:59:40Z</time>
      </trkpt>
      <trkpt lat="47.74008" lon="-3.09833">
        <ele>20.6</ele>
        <time>2020-06-06T14:59:41Z</time>
      </trkpt>
      <trkpt lat="47.74013" lon="-3.09837">
        <ele>20.7</ele>
        <time>2020-06-06T14:59:42Z</time>
      </trkpt>
      <trkpt lat="47.74017" lon="-3.09842">
        <ele>20.7</ele>
        <time>2020-06-06T14:59:43Z</time>
      </trkpt>
      <trkpt lat="47.74022" lon="-3.09846">
        <ele>20.7</ele>
        <time>2020-06-06T14:59:44Z</time>
      </trkpt>
      <trkpt lat="47.74026" lon="-3.09849">
        <ele>20.7</ele>
        <time>2020-06-06T14:59:45Z</time>
      </trkpt>
      <trkpt lat="47.7403" lon="-3.09851">
        <ele>20.7</ele>
        <time>2020-06-06T14:59:46Z</time>
      </trkpt>
      <trkpt lat="47.74034" lon="-3.09854">
        <ele>20.8</ele>
        <time>2020-06-06T14:59:47Z</time>
      </trkpt>
      <trkpt lat="47.74038" lon="-3.09857">
        <ele>20.8</ele>
        <time>2020-06-06T14:59:48Z</time>
      </trkpt>
      <trkpt lat="47.74041" lon="-3.0986">
        <ele>20.8</ele>
        <time>2020-06-06T14:59:49Z</time>
      </trkpt>
      <trkpt lat="47.74045" lon="-3.09863">
        <ele>20.8</ele>
        <time>2020-06-06T14:59:50Z</time>
      </trkpt>
      <trkpt lat="47.74051" lon="-3.09868">
        <ele>20.9</ele>
        <time>2020-06-06T14:59:51Z</time>
      </trkpt>
      <trkpt lat="47.74056" lon="-3.09871">
        <ele>20.9</ele>
        <time>2020-06-06T14:59:52Z</time>
      </trkpt>
      <trkpt lat="47.74062" lon="-3.09875">
        <ele>20.9</ele>
        <time>2020-06-06T14:59:53Z</time>
      </trkpt>
      <trkpt lat="47.74068" lon="-3.0988">
        <ele>20.9</ele>
        <time>2020-06-06T14:59:54Z</time>
      </trkpt>
      <trkpt lat="47.74072" lon="-3.09884">
        <ele>21</ele>
        <time>2020-06-06T14:59:55Z</time>
      </trkpt>
      <trkpt lat="47.74077" lon="-3.09889">
        <ele>21</ele>
        <time>2020-06-06T14:59:56Z</time>
      </trkpt>
      <trkpt lat="47.74081" lon="-3.09893">
        <ele>21</ele>
        <time>2020-06-06T14:59:57Z</time>
      </trkpt>
      <trkpt lat="47.74087" lon="-3.09897">
        <ele>21.1</ele>
        <time>2020-06-06T14:59:58Z</time>
      </trkpt>
      <trkpt lat="47.74092" lon="-3.09901">
        <ele>21.2</ele>
        <time>2020-06-06T14:59:59Z</time>
      </trkpt>
      <trkpt lat="47.74096" lon="-3.09905">
        <ele>21.2</ele>
        <time>2020-06-06T15:00:00Z</time>
      </trkpt>
      <trkpt lat="47.74101" lon="-3.09908">
        <ele>21.3</ele>
        <time>2020-06-06T15:00:01Z</time>
      </trkpt>
      <trkpt lat="47.74106" lon="-3.09912">
        <ele>21.3</ele>
        <time>2020-06-06T15:00:02Z</time>
      </trkpt>
      <trkpt lat="47.7411" lon="-3.09916">
        <ele>21.4</ele>
        <time>2020-06-06T15:00:03Z</time>
      </trkpt>
      <trkpt lat="47.74116" lon="-3.0992">
        <ele>21.4</ele>
        <time>2020-06-06T15:00:04Z</time>
      </trkpt>
      <trkpt lat="47.7412" lon="-3.09923">
        <ele>21.5</ele>
        <time>2020-06-06T15:00:05Z</time>
      </trkpt>
      <trkpt lat="47.74124" lon="-3.09927">
        <ele>21.5</ele>
        <time>2020-06-06T15:00:06Z</time>
      </trkpt>
      <trkpt lat="47.74128" lon="-3.09931">
        <ele>21.6</ele>
        <time>2020-06-06T15:00:07Z</time>
      </trkpt>
      <trkpt lat="47.74133" lon="-3.09935">
        <ele>21.6</ele>
        <time>2020-06-06T15:00:08Z</time>
      </trkpt>
      <trkpt lat="47.7414" lon="-3.09938">
        <ele>21.7</ele>
        <time>2020-06-06T15:00:09Z</time>
      </trkpt>
      <trkpt lat="47.74146" lon="-3.09942">
        <ele>21.8</ele>
        <time>2020-06-06T15:00:10Z</time>
      </trkpt>
      <trkpt lat="47.74152" lon="-3.09945">
        <ele>21.9</ele>
        <time>2020-06-06T15:00:11Z</time>
      </trkpt>
      <trkpt lat="47.74157" lon="-3.09948">
        <ele>22</ele>
        <time>2020-06-06T15:00:12Z</time>
      </trkpt>
      <trkpt lat="47.74162" lon="-3.09952">
        <ele>22</ele>
        <time>2020-06-06T15:00:13Z</time>
      </trkpt>
      <trkpt lat="47.74166" lon="-3.09955">
        <ele>22.1</ele>
        <time>2020-06-06T15:00:14Z</time>
      </trkpt>
      <trkpt lat="47.7417" lon="-3.09959">
        <ele>22.1</ele>
        <time>2020-06-06T15:00:15Z</time>
      </trkpt>
      <trkpt lat="47.74174" lon="-3.09963">
        <ele>22.2</ele>
        <time>2020-06-06T15:00:16Z</time>
      </trkpt>
      <trkpt lat="47.74177" lon="-3.09967">
        <ele>22.2</ele>
        <time>2020-06-06T15:00:17Z</time>
      </trkpt>
      <trkpt lat="47.74182" lon="-3.0997">
        <ele>22.3</ele>
        <time>2020-06-06T15:00:18Z</time>
      </trkpt>
      <trkpt lat="47.74184" lon="-3.09972">
        <ele>22.4</ele>
        <time>2020-06-06T15:00:19Z</time>
      </trkpt>
      <trkpt lat="47.74188" lon="-3.09975">
        <ele>22.4</ele>
        <time>2020-06-06T15:00:20Z</time>
      </trkpt>
      <trkpt lat="47.74192" lon="-3.09978">
        <ele>22.5</ele>
        <time>2020-06-06T15:00:21Z</time>
      </trkpt>
      <trkpt lat="47.74196" lon="-3.09982">
        <ele>22.6</ele>
        <time>2020-06-06T15:00:22Z</time>
      </trkpt>
      <trkpt lat="47.74199" lon="-3.09986">
        <ele>22.7</ele>
        <time>2020-06-06T15:00:23Z</time>
      </trkpt>
      <trkpt lat="47.74203" lon="-3.0999">
        <ele>22.8</ele>
        <time>2020-06-06T15:00:24Z</time>
      </trkpt>
      <trkpt lat="47.74208" lon="-3.09994">
        <ele>23</ele>
        <time>2020-06-06T15:00:25Z</time>
      </trkpt>
      <trkpt lat="47.74213" lon="-3.09998">
        <ele>23</ele>
        <time>2020-06-06T15:00:26Z</time>
      </trkpt>
      <trkpt lat="47.74218" lon="-3.10001">
        <ele>23</ele>
        <time>2020-06-06T15:00:27Z</time>
      </trkpt>
      <trkpt lat="47.74221" lon="-3.10005">
        <ele>23</ele>
        <time>2020-06-06T15:00:28Z</time>
      </trkpt>
      <trkpt lat="47.74225" lon="-3.10008">
        <ele>23</ele>
        <time>2020-06-06T15:00:29Z</time>
      </trkpt>
      <trkpt lat="47.7423" lon="-3.10012">
        <ele>22.9</ele>
        <time>2020-06-06T15:00:30Z</time>
      </trkpt>
      <trkpt lat="47.74235" lon="-3.10016">
        <ele>22.9</ele>
        <time>2020-06-06T15:00:31Z</time>
      </trkpt>
      <trkpt lat="47.7424" lon="-3.10022">
        <ele>22.9</ele>
        <time>2020-06-06T15:00:32Z</time>
      </trkpt>
      <trkpt lat="47.74246" lon="-3.10027">
        <ele>22.9</ele>
        <time>2020-06-06T15:00:33Z</time>
      </trkpt>
      <trkpt lat="47.7425" lon="-3.10032">
        <ele>22.8</ele>
        <time>2020-06-06T15:00:34Z</time>
      </trkpt>
      <trkpt lat="47.74254" lon="-3.10037">
        <ele>22.8</ele>
        <time>2020-06-06T15:00:35Z</time>
      </trkpt>
      <trkpt lat="47.74258" lon="-3.10041">
        <ele>22.8</ele>
        <time>2020-06-06T15:00:36Z</time>
      </trkpt>
      <trkpt lat="47.74262" lon="-3.10044">
        <ele>22.8</ele>
        <time>2020-06-06T15:00:37Z</time>
      </trkpt>
      <trkpt lat="47.74267" lon="-3.10049">
        <ele>22.8</ele>
        <time>2020-06-06T15:00:38Z</time>
      </trkpt>
      <trkpt lat="47.74272" lon="-3.10053">
        <ele>22.8</ele>
        <time>2020-06-06T15:00:39Z</time>
      </trkpt>
      <trkpt lat="47.74277" lon="-3.10057">
        <ele>22.7</ele>
        <time>2020-06-06T15:00:40Z</time>
      </trkpt>
      <trkpt lat="47.74282" lon="-3.10061">
        <ele>22.7</ele>
        <time>2020-06-06T15:00:41Z</time>
      </trkpt>
      <trkpt lat="47.74287" lon="-3.10065">
        <ele>22.7</ele>
        <time>2020-06-06T15:00:42Z</time>
      </trkpt>
      <trkpt lat="47.74292" lon="-3.10068">
        <ele>22.7</ele>
        <time>2020-06-06T15:00:43Z</time>
      </trkpt>
      <trkpt lat="47.74297" lon="-3.10071">
        <ele>22.6</ele>
        <time>2020-06-06T15:00:44Z</time>
      </trkpt>
      <trkpt lat="47.74301" lon="-3.10075">
        <ele>22.6</ele>
        <time>2020-06-06T15:00:45Z</time>
      </trkpt>
      <trkpt lat="47.74305" lon="-3.10079">
        <ele>22.6</ele>
        <time>2020-06-06T15:00:46Z</time>
      </trkpt>
      <trkpt lat="47.74309" lon="-3.10083">
        <ele>22.6</ele>
        <time>2020-06-06T15:00:47Z</time>
      </trkpt>
      <trkpt lat="47.74313" lon="-3.10086">
        <ele>22.6</ele>
        <time>2020-06-06T15:00:48Z</time>
      </trkpt>
      <trkpt lat="47.74317" lon="-3.10089">
        <ele>22.5</ele>
        <time>2020-06-06T15:00:49Z</time>
      </trkpt>
      <trkpt lat="47.74322" lon="-3.10093">
        <ele>22.5</ele>
        <time>2020-06-06T15:00:50Z</time>
      </trkpt>
      <trkpt lat="47.74326" lon="-3.10096">
        <ele>22.5</ele>
        <time>2020-06-06T15:00:51Z</time>
      </trkpt>
      <trkpt lat="47.7433" lon="-3.10099">
        <ele>22.5</ele>
        <time>2020-06-06T15:00:52Z</time>
      </trkpt>
      <trkpt lat="47.74333" lon="-3.10101">
        <ele>22.5</ele>
        <time>2020-06-06T15:00:53Z</time>
      </trkpt>
      <trkpt lat="47.74337" lon="-3.10104">
        <ele>22.5</ele>
        <time>2020-06-06T15:00:54Z</time>
      </trkpt>
      <trkpt lat="47.74341" lon="-3.10108">
        <ele>22.5</ele>
        <time>2020-06-06T15:00:55Z</time>
      </trkpt>
      <trkpt lat="47.74345" lon="-3.1011">
        <ele>22.5</ele>
        <time>2020-06-06T15:00:56Z</time>
      </trkpt>
      <trkpt lat="47.7435" lon="-3.10115">
        <ele>22.4</ele>
        <time>2020-06-06T15:00:57Z</time>
      </trkpt>
      <trkpt lat="47.74355" lon="-3.10119">
        <ele>22.4</ele>
        <time>2020-06-06T15:00:58Z</time>
      </trkpt>
      <trkpt lat="47.74361" lon="-3.10123">
        <ele>22.4</ele>
        <time>2020-06-06T15:00:59Z</time>
      </trkpt>
      <trkpt lat="47.74365" lon="-3.10127">
        <ele>22.3</ele>
        <time>2020-06-06T15:01:00Z</time>
      </trkpt>
      <trkpt lat="47.7437" lon="-3.1013">
        <ele>22.2</ele>
        <time>2020-06-06T15:01:01Z</time>
      </trkpt>
      <trkpt lat="47.74373" lon="-3.10133">
        <ele>22.2</ele>
        <time>2020-06-06T15:01:02Z</time>
      </trkpt>
      <trkpt lat="47.74378" lon="-3.10136">
        <ele>22.1</ele>
        <time>2020-06-06T15:01:03Z</time>
      </trkpt>
      <trkpt lat="47.74381" lon="-3.10139">
        <ele>22.1</ele>
        <time>2020-06-06T15:01:04Z</time>
      </trkpt>
      <trkpt lat="47.74385" lon="-3.10142">
        <ele>22.1</ele>
        <time>2020-06-06T15:01:05Z</time>
      </trkpt>
      <trkpt lat="47.74389" lon="-3.10145">
        <ele>22</ele>
        <time>2020-06-06T15:01:06Z</time>
      </trkpt>
      <trkpt lat="47.74393" lon="-3.10148">
        <ele>22</ele>
        <time>2020-06-06T15:01:07Z</time>
      </trkpt>
      <trkpt lat="47.74397" lon="-3.10151">
        <ele>22</ele>
        <time>2020-06-06T15:01:08Z</time>
      </trkpt>
      <trkpt lat="47.74402" lon="-3.10155">
        <ele>22</ele>
        <time>2020-06-06T15:01:09Z</time>
      </trkpt>
      <trkpt lat="47.74405" lon="-3.10159">
        <ele>22</ele>
        <time>2020-06-06T15:01:10Z</time>
      </trkpt>
      <trkpt lat="47.7441" lon="-3.10163">
        <ele>22</ele>
        <time>2020-06-06T15:01:11Z</time>
      </trkpt>
      <trkpt lat="47.74414" lon="-3.10166">
        <ele>22.1</ele>
        <time>2020-06-06T15:01:12Z</time>
      </trkpt>
      <trkpt lat="47.74418" lon="-3.10171">
        <ele>22.1</ele>
        <time>2020-06-06T15:01:13Z</time>
      </trkpt>
      <trkpt lat="47.74422" lon="-3.10175">
        <ele>22.4</ele>
        <time>2020-06-06T15:01:14Z</time>
      </trkpt>
      <trkpt lat="47.74426" lon="-3.10178">
        <ele>22.5</ele>
        <time>2020-06-06T15:01:15Z</time>
      </trkpt>
      <trkpt lat="47.74431" lon="-3.10182">
        <ele>22.4</ele>
        <time>2020-06-06T15:01:16Z</time>
      </trkpt>
      <trkpt lat="47.74435" lon="-3.10185">
        <ele>22.3</ele>
        <time>2020-06-06T15:01:17Z</time>
      </trkpt>
      <trkpt lat="47.7444" lon="-3.10188">
        <ele>22.2</ele>
        <time>2020-06-06T15:01:18Z</time>
      </trkpt>
      <trkpt lat="47.74443" lon="-3.10191">
        <ele>22</ele>
        <time>2020-06-06T15:01:19Z</time>
      </trkpt>
      <trkpt lat="47.74449" lon="-3.10197">
        <ele>21.8</ele>
        <time>2020-06-06T15:01:20Z</time>
      </trkpt>
      <trkpt lat="47.74453" lon="-3.10202">
        <ele>21.5</ele>
        <time>2020-06-06T15:01:21Z</time>
      </trkpt>
      <trkpt lat="47.74458" lon="-3.10208">
        <ele>21.3</ele>
        <time>2020-06-06T15:01:22Z</time>
      </trkpt>
      <trkpt lat="47.74463" lon="-3.10214">
        <ele>21.1</ele>
        <time>2020-06-06T15:01:23Z</time>
      </trkpt>
      <trkpt lat="47.74468" lon="-3.1022">
        <ele>21</ele>
        <time>2020-06-06T15:01:24Z</time>
      </trkpt>
      <trkpt lat="47.74473" lon="-3.10226">
        <ele>20.8</ele>
        <time>2020-06-06T15:01:25Z</time>
      </trkpt>
      <trkpt lat="47.74477" lon="-3.10231">
        <ele>20.7</ele>
        <time>2020-06-06T15:01:26Z</time>
      </trkpt>
      <trkpt lat="47.74482" lon="-3.10235">
        <ele>20.7</ele>
        <time>2020-06-06T15:01:27Z</time>
      </trkpt>
      <trkpt lat="47.74487" lon="-3.1024">
        <ele>20.6</ele>
        <time>2020-06-06T15:01:28Z</time>
      </trkpt>
      <trkpt lat="47.74492" lon="-3.10243">
        <ele>20.6</ele>
        <time>2020-06-06T15:01:29Z</time>
      </trkpt>
      <trkpt lat="47.74496" lon="-3.10246">
        <ele>20.6</ele>
        <time>2020-06-06T15:01:30Z</time>
      </trkpt>
      <trkpt lat="47.745" lon="-3.10249">
        <ele>20.6</ele>
        <time>2020-06-06T15:01:31Z</time>
      </trkpt>
      <trkpt lat="47.74504" lon="-3.10252">
        <ele>20.6</ele>
        <time>2020-06-06T15:01:32Z</time>
      </trkpt>
      <trkpt lat="47.74508" lon="-3.10255">
        <ele>20.6</ele>
        <time>2020-06-06T15:01:33Z</time>
      </trkpt>
      <trkpt lat="47.74513" lon="-3.10259">
        <ele>20.6</ele>
        <time>2020-06-06T15:01:34Z</time>
      </trkpt>
      <trkpt lat="47.74517" lon="-3.10263">
        <ele>20.6</ele>
        <time>2020-06-06T15:01:35Z</time>
      </trkpt>
      <trkpt lat="47.74521" lon="-3.10267">
        <ele>20.6</ele>
        <time>2020-06-06T15:01:36Z</time>
      </trkpt>
      <trkpt lat="47.74524" lon="-3.10269">
        <ele>20.6</ele>
        <time>2020-06-06T15:01:37Z</time>
      </trkpt>
      <trkpt lat="47.74528" lon="-3.10272">
        <ele>20.6</ele>
        <time>2020-06-06T15:01:38Z</time>
      </trkpt>
      <trkpt lat="47.74531" lon="-3.10275">
        <ele>20.6</ele>
        <time>2020-06-06T15:01:39Z</time>
      </trkpt>
      <trkpt lat="47.74535" lon="-3.10278">
        <ele>20.6</ele>
        <time>2020-06-06T15:01:40Z</time>
      </trkpt>
      <trkpt lat="47.74539" lon="-3.10282">
        <ele>20.6</ele>
        <time>2020-06-06T15:01:41Z</time>
      </trkpt>
      <trkpt lat="47.74543" lon="-3.10286">
        <ele>20.6</ele>
        <time>2020-06-06T15:01:42Z</time>
      </trkpt>
      <trkpt lat="47.74547" lon="-3.1029">
        <ele>20.6</ele>
        <time>2020-06-06T15:01:43Z</time>
      </trkpt>
      <trkpt lat="47.74552" lon="-3.10294">
        <ele>20.5</ele>
        <time>2020-06-06T15:01:44Z</time>
      </trkpt>
      <trkpt lat="47.74556" lon="-3.10297">
        <ele>20.5</ele>
        <time>2020-06-06T15:01:45Z</time>
      </trkpt>
      <trkpt lat="47.7456" lon="-3.103">
        <ele>20.5</ele>
        <time>2020-06-06T15:01:46Z</time>
      </trkpt>
      <trkpt lat="47.74566" lon="-3.10305">
        <ele>20.5</ele>
        <time>2020-06-06T15:01:47Z</time>
      </trkpt>
      <trkpt lat="47.7457" lon="-3.1031">
        <ele>20.5</ele>
        <time>2020-06-06T15:01:48Z</time>
      </trkpt>
      <trkpt lat="47.74574" lon="-3.10314">
        <ele>20.5</ele>
        <time>2020-06-06T15:01:49Z</time>
      </trkpt>
      <trkpt lat="47.74578" lon="-3.10317">
        <ele>20.5</ele>
        <time>2020-06-06T15:01:50Z</time>
      </trkpt>
      <trkpt lat="47.74583" lon="-3.10322">
        <ele>20.5</ele>
        <time>2020-06-06T15:01:51Z</time>
      </trkpt>
      <trkpt lat="47.74587" lon="-3.10325">
        <ele>20.6</ele>
        <time>2020-06-06T15:01:52Z</time>
      </trkpt>
      <trkpt lat="47.74591" lon="-3.10329">
        <ele>20.6</ele>
        <time>2020-06-06T15:01:53Z</time>
      </trkpt>
      <trkpt lat="47.74597" lon="-3.10334">
        <ele>20.7</ele>
        <time>2020-06-06T15:01:54Z</time>
      </trkpt>
      <trkpt lat="47.74601" lon="-3.10337">
        <ele>20.7</ele>
        <time>2020-06-06T15:01:55Z</time>
      </trkpt>
      <trkpt lat="47.74606" lon="-3.10341">
        <ele>20.8</ele>
        <time>2020-06-06T15:01:56Z</time>
      </trkpt>
      <trkpt lat="47.7461" lon="-3.10345">
        <ele>20.8</ele>
        <time>2020-06-06T15:01:57Z</time>
      </trkpt>
      <trkpt lat="47.74615" lon="-3.10348">
        <ele>20.9</ele>
        <time>2020-06-06T15:01:58Z</time>
      </trkpt>
      <trkpt lat="47.7462" lon="-3.10352">
        <ele>21</ele>
        <time>2020-06-06T15:01:59Z</time>
      </trkpt>
      <trkpt lat="47.74624" lon="-3.10356">
        <ele>21</ele>
        <time>2020-06-06T15:02:00Z</time>
      </trkpt>
      <trkpt lat="47.74627" lon="-3.1036">
        <ele>21.1</ele>
        <time>2020-06-06T15:02:01Z</time>
      </trkpt>
      <trkpt lat="47.74631" lon="-3.10364">
        <ele>21.2</ele>
        <time>2020-06-06T15:02:02Z</time>
      </trkpt>
      <trkpt lat="47.74634" lon="-3.10369">
        <ele>21.2</ele>
        <time>2020-06-06T15:02:03Z</time>
      </trkpt>
      <trkpt lat="47.74636" lon="-3.10373">
        <ele>21.3</ele>
        <time>2020-06-06T15:02:04Z</time>
      </trkpt>
      <trkpt lat="47.74638" lon="-3.10377">
        <ele>21.4</ele>
        <time>2020-06-06T15:02:05Z</time>
      </trkpt>
      <trkpt lat="47.7464" lon="-3.10382">
        <ele>21.4</ele>
        <time>2020-06-06T15:02:06Z</time>
      </trkpt>
      <trkpt lat="47.74642" lon="-3.10386">
        <ele>21.5</ele>
        <time>2020-06-06T15:02:07Z</time>
      </trkpt>
      <trkpt lat="47.74644" lon="-3.10391">
        <ele>21.6</ele>
        <time>2020-06-06T15:02:08Z</time>
      </trkpt>
      <trkpt lat="47.74646" lon="-3.10397">
        <ele>21.7</ele>
        <time>2020-06-06T15:02:09Z</time>
      </trkpt>
      <trkpt lat="47.74648" lon="-3.10403">
        <ele>21.8</ele>
        <time>2020-06-06T15:02:10Z</time>
      </trkpt>
      <trkpt lat="47.74651" lon="-3.1041">
        <ele>21.9</ele>
        <time>2020-06-06T15:02:11Z</time>
      </trkpt>
      <trkpt lat="47.74653" lon="-3.10417">
        <ele>22.1</ele>
        <time>2020-06-06T15:02:12Z</time>
      </trkpt>
      <trkpt lat="47.74655" lon="-3.10425">
        <ele>22.2</ele>
        <time>2020-06-06T15:02:13Z</time>
      </trkpt>
      <trkpt lat="47.74658" lon="-3.10432">
        <ele>22.3</ele>
        <time>2020-06-06T15:02:14Z</time>
      </trkpt>
      <trkpt lat="47.74662" lon="-3.10439">
        <ele>22.5</ele>
        <time>2020-06-06T15:02:15Z</time>
      </trkpt>
      <trkpt lat="47.74665" lon="-3.10444">
        <ele>22.6</ele>
        <time>2020-06-06T15:02:16Z</time>
      </trkpt>
      <trkpt lat="47.74669" lon="-3.10449">
        <ele>22.7</ele>
        <time>2020-06-06T15:02:17Z</time>
      </trkpt>
      <trkpt lat="47.74672" lon="-3.10452">
        <ele>22.8</ele>
        <time>2020-06-06T15:02:18Z</time>
      </trkpt>
      <trkpt lat="47.74677" lon="-3.10454">
        <ele>23</ele>
        <time>2020-06-06T15:02:19Z</time>
      </trkpt>
      <trkpt lat="47.74682" lon="-3.10455">
        <ele>23.1</ele>
        <time>2020-06-06T15:02:20Z</time>
      </trkpt>
      <trkpt lat="47.74686" lon="-3.10456">
        <ele>23.2</ele>
        <time>2020-06-06T15:02:21Z</time>
      </trkpt>
      <trkpt lat="47.74691" lon="-3.10457">
        <ele>23.3</ele>
        <time>2020-06-06T15:02:22Z</time>
      </trkpt>
      <trkpt lat="47.74695" lon="-3.10458">
        <ele>23.5</ele>
        <time>2020-06-06T15:02:23Z</time>
      </trkpt>
      <trkpt lat="47.74699" lon="-3.1046">
        <ele>23.6</ele>
        <time>2020-06-06T15:02:24Z</time>
      </trkpt>
      <trkpt lat="47.74703" lon="-3.10461">
        <ele>23.8</ele>
        <time>2020-06-06T15:02:25Z</time>
      </trkpt>
      <trkpt lat="47.74707" lon="-3.10463">
        <ele>24</ele>
        <time>2020-06-06T15:02:26Z</time>
      </trkpt>
      <trkpt lat="47.7471" lon="-3.10468">
        <ele>24.2</ele>
        <time>2020-06-06T15:02:27Z</time>
      </trkpt>
      <trkpt lat="47.74714" lon="-3.10474">
        <ele>24.4</ele>
        <time>2020-06-06T15:02:28Z</time>
      </trkpt>
      <trkpt lat="47.74717" lon="-3.1048">
        <ele>24.6</ele>
        <time>2020-06-06T15:02:29Z</time>
      </trkpt>
      <trkpt lat="47.74719" lon="-3.10485">
        <ele>24.8</ele>
        <time>2020-06-06T15:02:30Z</time>
      </trkpt>
      <trkpt lat="47.74723" lon="-3.1049">
        <ele>25</ele>
        <time>2020-06-06T15:02:31Z</time>
      </trkpt>
      <trkpt lat="47.74725" lon="-3.10494">
        <ele>25.1</ele>
        <time>2020-06-06T15:02:32Z</time>
      </trkpt>
      <trkpt lat="47.74728" lon="-3.10498">
        <ele>25.3</ele>
        <time>2020-06-06T15:02:33Z</time>
      </trkpt>
      <trkpt lat="47.74731" lon="-3.10502">
        <ele>25.5</ele>
        <time>2020-06-06T15:02:34Z</time>
      </trkpt>
      <trkpt lat="47.74735" lon="-3.10504">
        <ele>25.6</ele>
        <time>2020-06-06T15:02:35Z</time>
      </trkpt>
      <trkpt lat="47.74739" lon="-3.10506">
        <ele>25.8</ele>
        <time>2020-06-06T15:02:36Z</time>
      </trkpt>
      <trkpt lat="47.74743" lon="-3.10507">
        <ele>26</ele>
        <time>2020-06-06T15:02:37Z</time>
      </trkpt>
      <trkpt lat="47.74747" lon="-3.10508">
        <ele>26.1</ele>
        <time>2020-06-06T15:02:38Z</time>
      </trkpt>
      <trkpt lat="47.74751" lon="-3.1051">
        <ele>26.3</ele>
        <time>2020-06-06T15:02:39Z</time>
      </trkpt>
      <trkpt lat="47.74754" lon="-3.10511">
        <ele>26.4</ele>
        <time>2020-06-06T15:02:40Z</time>
      </trkpt>
      <trkpt lat="47.74758" lon="-3.10512">
        <ele>26.6</ele>
        <time>2020-06-06T15:02:41Z</time>
      </trkpt>
      <trkpt lat="47.74761" lon="-3.10513">
        <ele>26.7</ele>
        <time>2020-06-06T15:02:42Z</time>
      </trkpt>
      <trkpt lat="47.74765" lon="-3.10512">
        <ele>26.8</ele>
        <time>2020-06-06T15:02:43Z</time>
      </trkpt>
      <trkpt lat="47.7477" lon="-3.10511">
        <ele>27</ele>
        <time>2020-06-06T15:02:44Z</time>
      </trkpt>
      <trkpt lat="47.74773" lon="-3.1051">
        <ele>27.1</ele>
        <time>2020-06-06T15:02:45Z</time>
      </trkpt>
      <trkpt lat="47.74776" lon="-3.10507">
        <ele>27.1</ele>
        <time>2020-06-06T15:02:46Z</time>
      </trkpt>
      <trkpt lat="47.74779" lon="-3.10506">
        <ele>27.1</ele>
        <time>2020-06-06T15:02:47Z</time>
      </trkpt>
      <trkpt lat="47.74782" lon="-3.10504">
        <ele>27.2</ele>
        <time>2020-06-06T15:02:48Z</time>
      </trkpt>
      <trkpt lat="47.74786" lon="-3.10502">
        <ele>27.2</ele>
        <time>2020-06-06T15:02:49Z</time>
      </trkpt>
      <trkpt lat="47.7479" lon="-3.10501">
        <ele>27.2</ele>
        <time>2020-06-06T15:02:50Z</time>
      </trkpt>
      <trkpt lat="47.74793" lon="-3.105">
        <ele>27.3</ele>
        <time>2020-06-06T15:02:51Z</time>
      </trkpt>
      <trkpt lat="47.74796" lon="-3.10498">
        <ele>27.3</ele>
        <time>2020-06-06T15:02:52Z</time>
      </trkpt>
      <trkpt lat="47.74799" lon="-3.10496">
        <ele>27.3</ele>
        <time>2020-06-06T15:02:53Z</time>
      </trkpt>
      <trkpt lat="47.748" lon="-3.10495">
        <ele>27.3</ele>
        <time>2020-06-06T15:02:54Z</time>
      </trkpt>
      <trkpt lat="47.74803" lon="-3.10493">
        <ele>27.4</ele>
        <time>2020-06-06T15:02:55Z</time>
      </trkpt>
      <trkpt lat="47.74804" lon="-3.10492">
        <ele>27.4</ele>
        <time>2020-06-06T15:02:56Z</time>
      </trkpt>
      <trkpt lat="47.74805" lon="-3.10491">
        <ele>27.4</ele>
        <time>2020-06-06T15:02:57Z</time>
      </trkpt>
      <trkpt lat="47.74806" lon="-3.10489">
        <ele>27.4</ele>
        <time>2020-06-06T15:02:58Z</time>
      </trkpt>
      <trkpt lat="47.74807" lon="-3.10489">
        <ele>27.4</ele>
        <time>2020-06-06T15:02:59Z</time>
      </trkpt>
      <trkpt lat="47.74805" lon="-3.10489">
        <ele>27.4</ele>
        <time>2020-06-06T15:03:00Z</time>
      </trkpt>
      <trkpt lat="47.74806" lon="-3.1049">
        <ele>27.4</ele>
        <time>2020-06-06T15:03:01Z</time>
      </trkpt>
      <trkpt lat="47.74806" lon="-3.1049">
        <ele>27.4</ele>
        <time>2020-06-06T15:03:02Z</time>
      </trkpt>
      <trkpt lat="47.74805" lon="-3.1049">
        <ele>27.4</ele>
        <time>2020-06-06T15:03:03Z</time>
      </trkpt>
      <trkpt lat="47.74805" lon="-3.10489">
        <ele>27.5</ele>
        <time>2020-06-06T15:03:04Z</time>
      </trkpt>
      <trkpt lat="47.74805" lon="-3.10489">
        <ele>27.5</ele>
        <time>2020-06-06T15:03:05Z</time>
      </trkpt>
      <trkpt lat="47.74805" lon="-3.10488">
        <ele>27.5</ele>
        <time>2020-06-06T15:03:06Z</time>
      </trkpt>
      <trkpt lat="47.74805" lon="-3.10488">
        <ele>27.5</ele>
        <time>2020-06-06T15:03:07Z</time>
      </trkpt>
      <trkpt lat="47.74805" lon="-3.10488">
        <ele>27.5</ele>
        <time>2020-06-06T15:03:08Z</time>
      </trkpt>
      <trkpt lat="47.74805" lon="-3.10488">
        <ele>27.5</ele>
        <time>2020-06-06T15:03:09Z</time>
      </trkpt>
      <trkpt lat="47.74805" lon="-3.10488">
        <ele>27.5</ele>
        <time>2020-06-06T15:03:10Z</time>
      </trkpt>
      <trkpt lat="47.74815" lon="-3.10482">
        <ele>27.6</ele>
        <time>2020-06-06T15:08:13Z</time>
      </trkpt>
      <trkpt lat="47.74817" lon="-3.1048">
        <ele>27.6</ele>
        <time>2020-06-06T15:08:14Z</time>
      </trkpt>
      <trkpt lat="47.74818" lon="-3.1048">
        <ele>27.6</ele>
        <time>2020-06-06T15:08:15Z</time>
      </trkpt>
      <trkpt lat="47.7482" lon="-3.10478">
        <ele>27.6</ele>
        <time>2020-06-06T15:08:16Z</time>
      </trkpt>
      <trkpt lat="47.74822" lon="-3.10475">
        <ele>27.6</ele>
        <time>2020-06-06T15:08:17Z</time>
      </trkpt>
      <trkpt lat="47.74823" lon="-3.10474">
        <ele>27.6</ele>
        <time>2020-06-06T15:08:18Z</time>
      </trkpt>
      <trkpt lat="47.74826" lon="-3.10472">
        <ele>27.5</ele>
        <time>2020-06-06T15:08:19Z</time>
      </trkpt>
      <trkpt lat="47.74827" lon="-3.10471">
        <ele>27.5</ele>
        <time>2020-06-06T15:08:20Z</time>
      </trkpt>
      <trkpt lat="47.7483" lon="-3.10469">
        <ele>27.5</ele>
        <time>2020-06-06T15:08:21Z</time>
      </trkpt>
      <trkpt lat="47.74832" lon="-3.10468">
        <ele>27.5</ele>
        <time>2020-06-06T15:08:22Z</time>
      </trkpt>
      <trkpt lat="47.74835" lon="-3.10467">
        <ele>27.4</ele>
        <time>2020-06-06T15:08:23Z</time>
      </trkpt>
      <trkpt lat="47.74836" lon="-3.10466">
        <ele>27.4</ele>
        <time>2020-06-06T15:08:24Z</time>
      </trkpt>
      <trkpt lat="47.74839" lon="-3.10467">
        <ele>27.3</ele>
        <time>2020-06-06T15:08:25Z</time>
      </trkpt>
      <trkpt lat="47.7484" lon="-3.10468">
        <ele>27.2</ele>
        <time>2020-06-06T15:08:26Z</time>
      </trkpt>
      <trkpt lat="47.74843" lon="-3.10471">
        <ele>27.2</ele>
        <time>2020-06-06T15:08:27Z</time>
      </trkpt>
      <trkpt lat="47.74847" lon="-3.10475">
        <ele>27.1</ele>
        <time>2020-06-06T15:08:28Z</time>
      </trkpt>
      <trkpt lat="47.7485" lon="-3.10478">
        <ele>26.9</ele>
        <time>2020-06-06T15:08:29Z</time>
      </trkpt>
      <trkpt lat="47.74854" lon="-3.10482">
        <ele>26.8</ele>
        <time>2020-06-06T15:08:30Z</time>
      </trkpt>
      <trkpt lat="47.74858" lon="-3.10485">
        <ele>26.7</ele>
        <time>2020-06-06T15:08:31Z</time>
      </trkpt>
      <trkpt lat="47.74863" lon="-3.10488">
        <ele>26.5</ele>
        <time>2020-06-06T15:08:32Z</time>
      </trkpt>
      <trkpt lat="47.74868" lon="-3.10491">
        <ele>26.4</ele>
        <time>2020-06-06T15:08:33Z</time>
      </trkpt>
      <trkpt lat="47.74874" lon="-3.10494">
        <ele>26.2</ele>
        <time>2020-06-06T15:08:34Z</time>
      </trkpt>
      <trkpt lat="47.7488" lon="-3.10498">
        <ele>26</ele>
        <time>2020-06-06T15:08:35Z</time>
      </trkpt>
      <trkpt lat="47.74884" lon="-3.10502">
        <ele>25.8</ele>
        <time>2020-06-06T15:08:36Z</time>
      </trkpt>
      <trkpt lat="47.74888" lon="-3.10506">
        <ele>25.6</ele>
        <time>2020-06-06T15:08:37Z</time>
      </trkpt>
      <trkpt lat="47.74892" lon="-3.1051">
        <ele>25.5</ele>
        <time>2020-06-06T15:08:38Z</time>
      </trkpt>
      <trkpt lat="47.74896" lon="-3.10513">
        <ele>25.3</ele>
        <time>2020-06-06T15:08:39Z</time>
      </trkpt>
      <trkpt lat="47.74901" lon="-3.10515">
        <ele>25.1</ele>
        <time>2020-06-06T15:08:40Z</time>
      </trkpt>
      <trkpt lat="47.74906" lon="-3.10519">
        <ele>24.9</ele>
        <time>2020-06-06T15:08:41Z</time>
      </trkpt>
      <trkpt lat="47.74912" lon="-3.10524">
        <ele>24.6</ele>
        <time>2020-06-06T15:08:42Z</time>
      </trkpt>
      <trkpt lat="47.74917" lon="-3.10528">
        <ele>24.4</ele>
        <time>2020-06-06T15:08:43Z</time>
      </trkpt>
      <trkpt lat="47.74922" lon="-3.10535">
        <ele>24.1</ele>
        <time>2020-06-06T15:08:44Z</time>
      </trkpt>
      <trkpt lat="47.74928" lon="-3.1054">
        <ele>23.8</ele>
        <time>2020-06-06T15:08:45Z</time>
      </trkpt>
      <trkpt lat="47.74935" lon="-3.10545">
        <ele>23.4</ele>
        <time>2020-06-06T15:08:46Z</time>
      </trkpt>
      <trkpt lat="47.74942" lon="-3.10549">
        <ele>23.1</ele>
        <time>2020-06-06T15:08:47Z</time>
      </trkpt>
      <trkpt lat="47.74947" lon="-3.10554">
        <ele>22.9</ele>
        <time>2020-06-06T15:08:48Z</time>
      </trkpt>
      <trkpt lat="47.74955" lon="-3.1056">
        <ele>22.5</ele>
        <time>2020-06-06T15:08:49Z</time>
      </trkpt>
      <trkpt lat="47.74961" lon="-3.10565">
        <ele>22.2</ele>
        <time>2020-06-06T15:08:50Z</time>
      </trkpt>
      <trkpt lat="47.74968" lon="-3.10571">
        <ele>21.9</ele>
        <time>2020-06-06T15:08:51Z</time>
      </trkpt>
      <trkpt lat="47.74974" lon="-3.10577">
        <ele>21.6</ele>
        <time>2020-06-06T15:08:52Z</time>
      </trkpt>
      <trkpt lat="47.74981" lon="-3.10582">
        <ele>21.3</ele>
        <time>2020-06-06T15:08:53Z</time>
      </trkpt>
      <trkpt lat="47.74987" lon="-3.10587">
        <ele>21</ele>
        <time>2020-06-06T15:08:54Z</time>
      </trkpt>
      <trkpt lat="47.74994" lon="-3.10593">
        <ele>20.7</ele>
        <time>2020-06-06T15:08:55Z</time>
      </trkpt>
      <trkpt lat="47.75" lon="-3.10598">
        <ele>20.4</ele>
        <time>2020-06-06T15:08:56Z</time>
      </trkpt>
      <trkpt lat="47.75007" lon="-3.10605">
        <ele>20</ele>
        <time>2020-06-06T15:08:57Z</time>
      </trkpt>
      <trkpt lat="47.75014" lon="-3.10611">
        <ele>19.6</ele>
        <time>2020-06-06T15:08:58Z</time>
      </trkpt>
      <trkpt lat="47.7502" lon="-3.10616">
        <ele>19.3</ele>
        <time>2020-06-06T15:08:59Z</time>
      </trkpt>
      <trkpt lat="47.75027" lon="-3.1062">
        <ele>18.9</ele>
        <time>2020-06-06T15:09:00Z</time>
      </trkpt>
      <trkpt lat="47.75033" lon="-3.10626">
        <ele>18.5</ele>
        <time>2020-06-06T15:09:01Z</time>
      </trkpt>
      <trkpt lat="47.75039" lon="-3.10631">
        <ele>18.2</ele>
        <time>2020-06-06T15:09:02Z</time>
      </trkpt>
      <trkpt lat="47.75045" lon="-3.10637">
        <ele>17.8</ele>
        <time>2020-06-06T15:09:03Z</time>
      </trkpt>
      <trkpt lat="47.75052" lon="-3.10642">
        <ele>17.4</ele>
        <time>2020-06-06T15:09:04Z</time>
      </trkpt>
      <trkpt lat="47.75058" lon="-3.10648">
        <ele>17</ele>
        <time>2020-06-06T15:09:05Z</time>
      </trkpt>
      <trkpt lat="47.75064" lon="-3.10653">
        <ele>16.5</ele>
        <time>2020-06-06T15:09:06Z</time>
      </trkpt>
      <trkpt lat="47.75071" lon="-3.10658">
        <ele>16.1</ele>
        <time>2020-06-06T15:09:07Z</time>
      </trkpt>
      <trkpt lat="47.75078" lon="-3.10665">
        <ele>15.7</ele>
        <time>2020-06-06T15:09:08Z</time>
      </trkpt>
      <trkpt lat="47.75085" lon="-3.10671">
        <ele>15.3</ele>
        <time>2020-06-06T15:09:09Z</time>
      </trkpt>
      <trkpt lat="47.75092" lon="-3.10678">
        <ele>15</ele>
        <time>2020-06-06T15:09:10Z</time>
      </trkpt>
      <trkpt lat="47.751" lon="-3.10684">
        <ele>14.7</ele>
        <time>2020-06-06T15:09:11Z</time>
      </trkpt>
      <trkpt lat="47.75107" lon="-3.1069">
        <ele>14.3</ele>
        <time>2020-06-06T15:09:12Z</time>
      </trkpt>
      <trkpt lat="47.75114" lon="-3.10696">
        <ele>14.1</ele>
        <time>2020-06-06T15:09:13Z</time>
      </trkpt>
      <trkpt lat="47.75121" lon="-3.10703">
        <ele>13.8</ele>
        <time>2020-06-06T15:09:14Z</time>
      </trkpt>
      <trkpt lat="47.75128" lon="-3.1071">
        <ele>13.6</ele>
        <time>2020-06-06T15:09:15Z</time>
      </trkpt>
      <trkpt lat="47.75135" lon="-3.10717">
        <ele>13.4</ele>
        <time>2020-06-06T15:09:16Z</time>
      </trkpt>
      <trkpt lat="47.75142" lon="-3.10723">
        <ele>13.2</ele>
        <time>2020-06-06T15:09:17Z</time>
      </trkpt>
      <trkpt lat="47.75149" lon="-3.10729">
        <ele>12.9</ele>
        <time>2020-06-06T15:09:18Z</time>
      </trkpt>
      <trkpt lat="47.75156" lon="-3.10735">
        <ele>12.8</ele>
        <time>2020-06-06T15:09:19Z</time>
      </trkpt>
      <trkpt lat="47.75162" lon="-3.1074">
        <ele>12.6</ele>
        <time>2020-06-06T15:09:20Z</time>
      </trkpt>
      <trkpt lat="47.75169" lon="-3.10745">
        <ele>12.5</ele>
        <time>2020-06-06T15:09:21Z</time>
      </trkpt>
      <trkpt lat="47.75175" lon="-3.10751">
        <ele>12.5</ele>
        <time>2020-06-06T15:09:22Z</time>
      </trkpt>
      <trkpt lat="47.75182" lon="-3.10756">
        <ele>12.4</ele>
        <time>2020-06-06T15:09:23Z</time>
      </trkpt>
      <trkpt lat="47.75189" lon="-3.1076">
        <ele>12.3</ele>
        <time>2020-06-06T15:09:24Z</time>
      </trkpt>
      <trkpt lat="47.75195" lon="-3.10765">
        <ele>12.2</ele>
        <time>2020-06-06T15:09:25Z</time>
      </trkpt>
      <trkpt lat="47.75201" lon="-3.1077">
        <ele>12</ele>
        <time>2020-06-06T15:09:26Z</time>
      </trkpt>
      <trkpt lat="47.75207" lon="-3.10775">
        <ele>11.8</ele>
        <time>2020-06-06T15:09:27Z</time>
      </trkpt>
      <trkpt lat="47.75213" lon="-3.1078">
        <ele>11.7</ele>
        <time>2020-06-06T15:09:28Z</time>
      </trkpt>
      <trkpt lat="47.7522" lon="-3.10785">
        <ele>11.5</ele>
        <time>2020-06-06T15:09:29Z</time>
      </trkpt>
      <trkpt lat="47.75226" lon="-3.1079">
        <ele>11.3</ele>
        <time>2020-06-06T15:09:30Z</time>
      </trkpt>
      <trkpt lat="47.75232" lon="-3.10796">
        <ele>11.1</ele>
        <time>2020-06-06T15:09:31Z</time>
      </trkpt>
      <trkpt lat="47.75238" lon="-3.10801">
        <ele>11</ele>
        <time>2020-06-06T15:09:32Z</time>
      </trkpt>
      <trkpt lat="47.75244" lon="-3.10806">
        <ele>10.9</ele>
        <time>2020-06-06T15:09:33Z</time>
      </trkpt>
      <trkpt lat="47.7525" lon="-3.10812">
        <ele>10.7</ele>
        <time>2020-06-06T15:09:34Z</time>
      </trkpt>
      <trkpt lat="47.75255" lon="-3.10818">
        <ele>10.5</ele>
        <time>2020-06-06T15:09:35Z</time>
      </trkpt>
      <trkpt lat="47.75261" lon="-3.10824">
        <ele>10.4</ele>
        <time>2020-06-06T15:09:36Z</time>
      </trkpt>
      <trkpt lat="47.75267" lon="-3.10828">
        <ele>10.2</ele>
        <time>2020-06-06T15:09:37Z</time>
      </trkpt>
      <trkpt lat="47.75273" lon="-3.10833">
        <ele>10.2</ele>
        <time>2020-06-06T15:09:38Z</time>
      </trkpt>
      <trkpt lat="47.75279" lon="-3.10839">
        <ele>10.1</ele>
        <time>2020-06-06T15:09:39Z</time>
      </trkpt>
      <trkpt lat="47.75286" lon="-3.10845">
        <ele>10</ele>
        <time>2020-06-06T15:09:40Z</time>
      </trkpt>
      <trkpt lat="47.75292" lon="-3.10849">
        <ele>9.8</ele>
        <time>2020-06-06T15:09:41Z</time>
      </trkpt>
      <trkpt lat="47.75299" lon="-3.10855">
        <ele>9.7</ele>
        <time>2020-06-06T15:09:42Z</time>
      </trkpt>
      <trkpt lat="47.75305" lon="-3.1086">
        <ele>9.6</ele>
        <time>2020-06-06T15:09:43Z</time>
      </trkpt>
      <trkpt lat="47.75312" lon="-3.10866">
        <ele>9.4</ele>
        <time>2020-06-06T15:09:44Z</time>
      </trkpt>
      <trkpt lat="47.75318" lon="-3.10872">
        <ele>9.3</ele>
        <time>2020-06-06T15:09:45Z</time>
      </trkpt>
      <trkpt lat="47.75324" lon="-3.10877">
        <ele>9.2</ele>
        <time>2020-06-06T15:09:46Z</time>
      </trkpt>
      <trkpt lat="47.75331" lon="-3.10883">
        <ele>9.1</ele>
        <time>2020-06-06T15:09:47Z</time>
      </trkpt>
      <trkpt lat="47.75337" lon="-3.10888">
        <ele>9.1</ele>
        <time>2020-06-06T15:09:48Z</time>
      </trkpt>
      <trkpt lat="47.75343" lon="-3.10893">
        <ele>9.1</ele>
        <time>2020-06-06T15:09:49Z</time>
      </trkpt>
      <trkpt lat="47.75349" lon="-3.10898">
        <ele>9.1</ele>
        <time>2020-06-06T15:09:50Z</time>
      </trkpt>
      <trkpt lat="47.75355" lon="-3.10903">
        <ele>9</ele>
        <time>2020-06-06T15:09:51Z</time>
      </trkpt>
      <trkpt lat="47.75361" lon="-3.10909">
        <ele>9</ele>
        <time>2020-06-06T15:09:52Z</time>
      </trkpt>
      <trkpt lat="47.75367" lon="-3.10914">
        <ele>9.1</ele>
        <time>2020-06-06T15:09:53Z</time>
      </trkpt>
      <trkpt lat="47.75373" lon="-3.10919">
        <ele>9</ele>
        <time>2020-06-06T15:09:54Z</time>
      </trkpt>
      <trkpt lat="47.75379" lon="-3.10925">
        <ele>8.8</ele>
        <time>2020-06-06T15:09:55Z</time>
      </trkpt>
      <trkpt lat="47.75385" lon="-3.1093">
        <ele>8.7</ele>
        <time>2020-06-06T15:09:56Z</time>
      </trkpt>
      <trkpt lat="47.75392" lon="-3.10935">
        <ele>8.5</ele>
        <time>2020-06-06T15:09:57Z</time>
      </trkpt>
      <trkpt lat="47.75398" lon="-3.1094">
        <ele>8.3</ele>
        <time>2020-06-06T15:09:58Z</time>
      </trkpt>
      <trkpt lat="47.75404" lon="-3.10946">
        <ele>8.1</ele>
        <time>2020-06-06T15:09:59Z</time>
      </trkpt>
      <trkpt lat="47.75411" lon="-3.10952">
        <ele>8</ele>
        <time>2020-06-06T15:10:00Z</time>
      </trkpt>
      <trkpt lat="47.75417" lon="-3.10958">
        <ele>7.9</ele>
        <time>2020-06-06T15:10:01Z</time>
      </trkpt>
      <trkpt lat="47.75424" lon="-3.10963">
        <ele>7.7</ele>
        <time>2020-06-06T15:10:02Z</time>
      </trkpt>
      <trkpt lat="47.7543" lon="-3.10968">
        <ele>7.6</ele>
        <time>2020-06-06T15:10:03Z</time>
      </trkpt>
      <trkpt lat="47.75436" lon="-3.10974">
        <ele>7.7</ele>
        <time>2020-06-06T15:10:04Z</time>
      </trkpt>
      <trkpt lat="47.75443" lon="-3.10979">
        <ele>7.8</ele>
        <time>2020-06-06T15:10:05Z</time>
      </trkpt>
      <trkpt lat="47.75449" lon="-3.10985">
        <ele>7.7</ele>
        <time>2020-06-06T15:10:06Z</time>
      </trkpt>
      <trkpt lat="47.75456" lon="-3.1099">
        <ele>7.6</ele>
        <time>2020-06-06T15:10:07Z</time>
      </trkpt>
      <trkpt lat="47.75462" lon="-3.10995">
        <ele>7.5</ele>
        <time>2020-06-06T15:10:08Z</time>
      </trkpt>
      <trkpt lat="47.75468" lon="-3.11001">
        <ele>7.4</ele>
        <time>2020-06-06T15:10:09Z</time>
      </trkpt>
      <trkpt lat="47.75475" lon="-3.11006">
        <ele>7.4</ele>
        <time>2020-06-06T15:10:10Z</time>
      </trkpt>
      <trkpt lat="47.75482" lon="-3.11012">
        <ele>7.3</ele>
        <time>2020-06-06T15:10:11Z</time>
      </trkpt>
      <trkpt lat="47.75488" lon="-3.11017">
        <ele>7.3</ele>
        <time>2020-06-06T15:10:12Z</time>
      </trkpt>
      <trkpt lat="47.75494" lon="-3.11023">
        <ele>7.3</ele>
        <time>2020-06-06T15:10:13Z</time>
      </trkpt>
      <trkpt lat="47.755" lon="-3.11029">
        <ele>7.3</ele>
        <time>2020-06-06T15:10:14Z</time>
      </trkpt>
      <trkpt lat="47.75506" lon="-3.11034">
        <ele>7.4</ele>
        <time>2020-06-06T15:10:15Z</time>
      </trkpt>
      <trkpt lat="47.75512" lon="-3.11038">
        <ele>7.4</ele>
        <time>2020-06-06T15:10:16Z</time>
      </trkpt>
      <trkpt lat="47.75518" lon="-3.11044">
        <ele>7.4</ele>
        <time>2020-06-06T15:10:17Z</time>
      </trkpt>
      <trkpt lat="47.75524" lon="-3.11048">
        <ele>7.5</ele>
        <time>2020-06-06T15:10:18Z</time>
      </trkpt>
      <trkpt lat="47.7553" lon="-3.11054">
        <ele>7.5</ele>
        <time>2020-06-06T15:10:19Z</time>
      </trkpt>
      <trkpt lat="47.75536" lon="-3.11059">
        <ele>7.6</ele>
        <time>2020-06-06T15:10:20Z</time>
      </trkpt>
      <trkpt lat="47.75542" lon="-3.11063">
        <ele>7.6</ele>
        <time>2020-06-06T15:10:21Z</time>
      </trkpt>
      <trkpt lat="47.75548" lon="-3.11069">
        <ele>7.7</ele>
        <time>2020-06-06T15:10:22Z</time>
      </trkpt>
      <trkpt lat="47.75555" lon="-3.11074">
        <ele>7.7</ele>
        <time>2020-06-06T15:10:23Z</time>
      </trkpt>
      <trkpt lat="47.75561" lon="-3.11078">
        <ele>7.8</ele>
        <time>2020-06-06T15:10:24Z</time>
      </trkpt>
      <trkpt lat="47.75567" lon="-3.11083">
        <ele>7.8</ele>
        <time>2020-06-06T15:10:25Z</time>
      </trkpt>
      <trkpt lat="47.75573" lon="-3.11088">
        <ele>7.9</ele>
        <time>2020-06-06T15:10:26Z</time>
      </trkpt>
      <trkpt lat="47.75579" lon="-3.11092">
        <ele>7.9</ele>
        <time>2020-06-06T15:10:27Z</time>
      </trkpt>
      <trkpt lat="47.75584" lon="-3.11097">
        <ele>8</ele>
        <time>2020-06-06T15:10:28Z</time>
      </trkpt>
      <trkpt lat="47.75589" lon="-3.11103">
        <ele>8</ele>
        <time>2020-06-06T15:10:29Z</time>
      </trkpt>
      <trkpt lat="47.75594" lon="-3.11108">
        <ele>8</ele>
        <time>2020-06-06T15:10:30Z</time>
      </trkpt>
      <trkpt lat="47.75599" lon="-3.11113">
        <ele>8</ele>
        <time>2020-06-06T15:10:31Z</time>
      </trkpt>
      <trkpt lat="47.75604" lon="-3.11119">
        <ele>8.1</ele>
        <time>2020-06-06T15:10:32Z</time>
      </trkpt>
      <trkpt lat="47.75608" lon="-3.11126">
        <ele>8.1</ele>
        <time>2020-06-06T15:10:33Z</time>
      </trkpt>
      <trkpt lat="47.75612" lon="-3.11132">
        <ele>8.2</ele>
        <time>2020-06-06T15:10:34Z</time>
      </trkpt>
      <trkpt lat="47.75616" lon="-3.11138">
        <ele>8.3</ele>
        <time>2020-06-06T15:10:35Z</time>
      </trkpt>
      <trkpt lat="47.7562" lon="-3.11145">
        <ele>8.3</ele>
        <time>2020-06-06T15:10:36Z</time>
      </trkpt>
      <trkpt lat="47.75624" lon="-3.11151">
        <ele>8.4</ele>
        <time>2020-06-06T15:10:37Z</time>
      </trkpt>
      <trkpt lat="47.75627" lon="-3.11159">
        <ele>8.4</ele>
        <time>2020-06-06T15:10:38Z</time>
      </trkpt>
      <trkpt lat="47.7563" lon="-3.11166">
        <ele>8.5</ele>
        <time>2020-06-06T15:10:39Z</time>
      </trkpt>
      <trkpt lat="47.75633" lon="-3.11173">
        <ele>8.6</ele>
        <time>2020-06-06T15:10:40Z</time>
      </trkpt>
      <trkpt lat="47.75637" lon="-3.1118">
        <ele>8.6</ele>
        <time>2020-06-06T15:10:41Z</time>
      </trkpt>
      <trkpt lat="47.75639" lon="-3.11188">
        <ele>8.7</ele>
        <time>2020-06-06T15:10:42Z</time>
      </trkpt>
      <trkpt lat="47.75642" lon="-3.11196">
        <ele>8.8</ele>
        <time>2020-06-06T15:10:43Z</time>
      </trkpt>
      <trkpt lat="47.75644" lon="-3.11203">
        <ele>8.8</ele>
        <time>2020-06-06T15:10:44Z</time>
      </trkpt>
      <trkpt lat="47.75646" lon="-3.1121">
        <ele>8.8</ele>
        <time>2020-06-06T15:10:45Z</time>
      </trkpt>
      <trkpt lat="47.75648" lon="-3.11218">
        <ele>8.8</ele>
        <time>2020-06-06T15:10:46Z</time>
      </trkpt>
      <trkpt lat="47.7565" lon="-3.11226">
        <ele>8.9</ele>
        <time>2020-06-06T15:10:47Z</time>
      </trkpt>
      <trkpt lat="47.75652" lon="-3.11234">
        <ele>8.9</ele>
        <time>2020-06-06T15:10:48Z</time>
      </trkpt>
      <trkpt lat="47.75655" lon="-3.11242">
        <ele>8.9</ele>
        <time>2020-06-06T15:10:49Z</time>
      </trkpt>
      <trkpt lat="47.75658" lon="-3.1125">
        <ele>8.9</ele>
        <time>2020-06-06T15:10:50Z</time>
      </trkpt>
      <trkpt lat="47.75659" lon="-3.11258">
        <ele>8.9</ele>
        <time>2020-06-06T15:10:51Z</time>
      </trkpt>
      <trkpt lat="47.75662" lon="-3.11266">
        <ele>8.9</ele>
        <time>2020-06-06T15:10:52Z</time>
      </trkpt>
      <trkpt lat="47.75665" lon="-3.11273">
        <ele>8.9</ele>
        <time>2020-06-06T15:10:53Z</time>
      </trkpt>
      <trkpt lat="47.75667" lon="-3.1128">
        <ele>8.9</ele>
        <time>2020-06-06T15:10:54Z</time>
      </trkpt>
      <trkpt lat="47.75669" lon="-3.11288">
        <ele>8.9</ele>
        <time>2020-06-06T15:10:55Z</time>
      </trkpt>
      <trkpt lat="47.75672" lon="-3.11295">
        <ele>8.9</ele>
        <time>2020-06-06T15:10:56Z</time>
      </trkpt>
      <trkpt lat="47.75674" lon="-3.113">
        <ele>9</ele>
        <time>2020-06-06T15:10:57Z</time>
      </trkpt>
      <trkpt lat="47.75676" lon="-3.11306">
        <ele>9</ele>
        <time>2020-06-06T15:10:58Z</time>
      </trkpt>
      <trkpt lat="47.75677" lon="-3.11311">
        <ele>9</ele>
        <time>2020-06-06T15:10:59Z</time>
      </trkpt>
      <trkpt lat="47.7568" lon="-3.11318">
        <ele>9.1</ele>
        <time>2020-06-06T15:11:00Z</time>
      </trkpt>
      <trkpt lat="47.75682" lon="-3.11324">
        <ele>9.1</ele>
        <time>2020-06-06T15:11:01Z</time>
      </trkpt>
      <trkpt lat="47.75684" lon="-3.11331">
        <ele>9</ele>
        <time>2020-06-06T15:11:02Z</time>
      </trkpt>
      <trkpt lat="47.75685" lon="-3.11337">
        <ele>9</ele>
        <time>2020-06-06T15:11:03Z</time>
      </trkpt>
      <trkpt lat="47.75687" lon="-3.11344">
        <ele>8.9</ele>
        <time>2020-06-06T15:11:04Z</time>
      </trkpt>
      <trkpt lat="47.75689" lon="-3.11351">
        <ele>8.9</ele>
        <time>2020-06-06T15:11:05Z</time>
      </trkpt>
      <trkpt lat="47.75692" lon="-3.11357">
        <ele>8.9</ele>
        <time>2020-06-06T15:11:06Z</time>
      </trkpt>
      <trkpt lat="47.75694" lon="-3.11364">
        <ele>8.9</ele>
        <time>2020-06-06T15:11:07Z</time>
      </trkpt>
      <trkpt lat="47.75696" lon="-3.11371">
        <ele>8.9</ele>
        <time>2020-06-06T15:11:08Z</time>
      </trkpt>
      <trkpt lat="47.75697" lon="-3.11377">
        <ele>9</ele>
        <time>2020-06-06T15:11:09Z</time>
      </trkpt>
      <trkpt lat="47.75699" lon="-3.11383">
        <ele>9.1</ele>
        <time>2020-06-06T15:11:10Z</time>
      </trkpt>
      <trkpt lat="47.75701" lon="-3.11389">
        <ele>9.1</ele>
        <time>2020-06-06T15:11:11Z</time>
      </trkpt>
      <trkpt lat="47.75702" lon="-3.11392">
        <ele>9.2</ele>
        <time>2020-06-06T15:11:12Z</time>
      </trkpt>
      <trkpt lat="47.75704" lon="-3.11397">
        <ele>9.2</ele>
        <time>2020-06-06T15:11:13Z</time>
      </trkpt>
      <trkpt lat="47.75706" lon="-3.11403">
        <ele>9.3</ele>
        <time>2020-06-06T15:11:14Z</time>
      </trkpt>
      <trkpt lat="47.75707" lon="-3.11408">
        <ele>9.4</ele>
        <time>2020-06-06T15:11:15Z</time>
      </trkpt>
      <trkpt lat="47.75709" lon="-3.11414">
        <ele>9.4</ele>
        <time>2020-06-06T15:11:16Z</time>
      </trkpt>
      <trkpt lat="47.75711" lon="-3.1142">
        <ele>9.5</ele>
        <time>2020-06-06T15:11:17Z</time>
      </trkpt>
      <trkpt lat="47.75712" lon="-3.11425">
        <ele>9.5</ele>
        <time>2020-06-06T15:11:18Z</time>
      </trkpt>
      <trkpt lat="47.75715" lon="-3.11431">
        <ele>9.6</ele>
        <time>2020-06-06T15:11:19Z</time>
      </trkpt>
      <trkpt lat="47.75717" lon="-3.11438">
        <ele>9.6</ele>
        <time>2020-06-06T15:11:20Z</time>
      </trkpt>
      <trkpt lat="47.75719" lon="-3.11444">
        <ele>9.7</ele>
        <time>2020-06-06T15:11:21Z</time>
      </trkpt>
      <trkpt lat="47.75721" lon="-3.1145">
        <ele>9.8</ele>
        <time>2020-06-06T15:11:22Z</time>
      </trkpt>
      <trkpt lat="47.75723" lon="-3.11456">
        <ele>9.9</ele>
        <time>2020-06-06T15:11:23Z</time>
      </trkpt>
      <trkpt lat="47.75724" lon="-3.11462">
        <ele>9.9</ele>
        <time>2020-06-06T15:11:24Z</time>
      </trkpt>
      <trkpt lat="47.75726" lon="-3.11468">
        <ele>10</ele>
        <time>2020-06-06T15:11:25Z</time>
      </trkpt>
      <trkpt lat="47.75729" lon="-3.11475">
        <ele>10.1</ele>
        <time>2020-06-06T15:11:26Z</time>
      </trkpt>
      <trkpt lat="47.75731" lon="-3.11481">
        <ele>10.1</ele>
        <time>2020-06-06T15:11:27Z</time>
      </trkpt>
      <trkpt lat="47.75733" lon="-3.11488">
        <ele>10.2</ele>
        <time>2020-06-06T15:11:28Z</time>
      </trkpt>
      <trkpt lat="47.75735" lon="-3.11495">
        <ele>10.3</ele>
        <time>2020-06-06T15:11:29Z</time>
      </trkpt>
      <trkpt lat="47.75736" lon="-3.115">
        <ele>10.3</ele>
        <time>2020-06-06T15:11:30Z</time>
      </trkpt>
      <trkpt lat="47.75737" lon="-3.11504">
        <ele>10.3</ele>
        <time>2020-06-06T15:11:31Z</time>
      </trkpt>
      <trkpt lat="47.75738" lon="-3.11509">
        <ele>10.3</ele>
        <time>2020-06-06T15:11:32Z</time>
      </trkpt>
      <trkpt lat="47.75739" lon="-3.11514">
        <ele>10.4</ele>
        <time>2020-06-06T15:11:33Z</time>
      </trkpt>
      <trkpt lat="47.75741" lon="-3.11519">
        <ele>10.4</ele>
        <time>2020-06-06T15:11:34Z</time>
      </trkpt>
      <trkpt lat="47.75743" lon="-3.11525">
        <ele>10.4</ele>
        <time>2020-06-06T15:11:35Z</time>
      </trkpt>
      <trkpt lat="47.75746" lon="-3.11531">
        <ele>10.4</ele>
        <time>2020-06-06T15:11:36Z</time>
      </trkpt>
      <trkpt lat="47.75748" lon="-3.11538">
        <ele>10.4</ele>
        <time>2020-06-06T15:11:37Z</time>
      </trkpt>
      <trkpt lat="47.7575" lon="-3.11545">
        <ele>10.5</ele>
        <time>2020-06-06T15:11:38Z</time>
      </trkpt>
      <trkpt lat="47.75752" lon="-3.11553">
        <ele>10.5</ele>
        <time>2020-06-06T15:11:39Z</time>
      </trkpt>
      <trkpt lat="47.75754" lon="-3.1156">
        <ele>10.5</ele>
        <time>2020-06-06T15:11:40Z</time>
      </trkpt>
      <trkpt lat="47.75757" lon="-3.11568">
        <ele>10.5</ele>
        <time>2020-06-06T15:11:41Z</time>
      </trkpt>
      <trkpt lat="47.75759" lon="-3.11577">
        <ele>10.5</ele>
        <time>2020-06-06T15:11:42Z</time>
      </trkpt>
      <trkpt lat="47.7576" lon="-3.11584">
        <ele>10.5</ele>
        <time>2020-06-06T15:11:43Z</time>
      </trkpt>
      <trkpt lat="47.75762" lon="-3.11592">
        <ele>10.5</ele>
        <time>2020-06-06T15:11:44Z</time>
      </trkpt>
      <trkpt lat="47.75763" lon="-3.116">
        <ele>10.4</ele>
        <time>2020-06-06T15:11:45Z</time>
      </trkpt>
      <trkpt lat="47.75765" lon="-3.11607">
        <ele>10.3</ele>
        <time>2020-06-06T15:11:46Z</time>
      </trkpt>
      <trkpt lat="47.75767" lon="-3.11616">
        <ele>10.3</ele>
        <time>2020-06-06T15:11:47Z</time>
      </trkpt>
      <trkpt lat="47.75768" lon="-3.11625">
        <ele>10.2</ele>
        <time>2020-06-06T15:11:48Z</time>
      </trkpt>
      <trkpt lat="47.7577" lon="-3.11634">
        <ele>10.1</ele>
        <time>2020-06-06T15:11:49Z</time>
      </trkpt>
      <trkpt lat="47.75772" lon="-3.11643">
        <ele>10</ele>
        <time>2020-06-06T15:11:50Z</time>
      </trkpt>
      <trkpt lat="47.75773" lon="-3.11653">
        <ele>10</ele>
        <time>2020-06-06T15:11:51Z</time>
      </trkpt>
      <trkpt lat="47.75775" lon="-3.11661">
        <ele>9.9</ele>
        <time>2020-06-06T15:11:52Z</time>
      </trkpt>
      <trkpt lat="47.75777" lon="-3.11671">
        <ele>9.9</ele>
        <time>2020-06-06T15:11:53Z</time>
      </trkpt>
      <trkpt lat="47.75778" lon="-3.1168">
        <ele>9.8</ele>
        <time>2020-06-06T15:11:54Z</time>
      </trkpt>
      <trkpt lat="47.75779" lon="-3.11689">
        <ele>9.7</ele>
        <time>2020-06-06T15:11:55Z</time>
      </trkpt>
      <trkpt lat="47.7578" lon="-3.11696">
        <ele>9.7</ele>
        <time>2020-06-06T15:11:56Z</time>
      </trkpt>
      <trkpt lat="47.75781" lon="-3.11704">
        <ele>9.6</ele>
        <time>2020-06-06T15:11:57Z</time>
      </trkpt>
      <trkpt lat="47.75782" lon="-3.11713">
        <ele>9.6</ele>
        <time>2020-06-06T15:11:58Z</time>
      </trkpt>
      <trkpt lat="47.75783" lon="-3.11721">
        <ele>9.6</ele>
        <time>2020-06-06T15:11:59Z</time>
      </trkpt>
      <trkpt lat="47.75784" lon="-3.11727">
        <ele>9.6</ele>
        <time>2020-06-06T15:12:00Z</time>
      </trkpt>
      <trkpt lat="47.75785" lon="-3.11734">
        <ele>9.5</ele>
        <time>2020-06-06T15:12:01Z</time>
      </trkpt>
      <trkpt lat="47.75787" lon="-3.11739">
        <ele>9.5</ele>
        <time>2020-06-06T15:12:02Z</time>
      </trkpt>
      <trkpt lat="47.75788" lon="-3.11746">
        <ele>9.5</ele>
        <time>2020-06-06T15:12:03Z</time>
      </trkpt>
      <trkpt lat="47.7579" lon="-3.11752">
        <ele>9.5</ele>
        <time>2020-06-06T15:12:04Z</time>
      </trkpt>
      <trkpt lat="47.75791" lon="-3.1176">
        <ele>9.5</ele>
        <time>2020-06-06T15:12:05Z</time>
      </trkpt>
      <trkpt lat="47.75793" lon="-3.11768">
        <ele>9.4</ele>
        <time>2020-06-06T15:12:06Z</time>
      </trkpt>
      <trkpt lat="47.75795" lon="-3.11777">
        <ele>9.4</ele>
        <time>2020-06-06T15:12:07Z</time>
      </trkpt>
      <trkpt lat="47.75797" lon="-3.11786">
        <ele>9.4</ele>
        <time>2020-06-06T15:12:08Z</time>
      </trkpt>
      <trkpt lat="47.75798" lon="-3.11794">
        <ele>9.3</ele>
        <time>2020-06-06T15:12:09Z</time>
      </trkpt>
      <trkpt lat="47.75799" lon="-3.11803">
        <ele>9.2</ele>
        <time>2020-06-06T15:12:10Z</time>
      </trkpt>
      <trkpt lat="47.758" lon="-3.11812">
        <ele>9.1</ele>
        <time>2020-06-06T15:12:11Z</time>
      </trkpt>
      <trkpt lat="47.75801" lon="-3.1182">
        <ele>9.1</ele>
        <time>2020-06-06T15:12:12Z</time>
      </trkpt>
      <trkpt lat="47.75802" lon="-3.11829">
        <ele>9</ele>
        <time>2020-06-06T15:12:13Z</time>
      </trkpt>
      <trkpt lat="47.75803" lon="-3.11839">
        <ele>8.9</ele>
        <time>2020-06-06T15:12:14Z</time>
      </trkpt>
      <trkpt lat="47.75803" lon="-3.11848">
        <ele>8.8</ele>
        <time>2020-06-06T15:12:15Z</time>
      </trkpt>
      <trkpt lat="47.75803" lon="-3.11857">
        <ele>8.7</ele>
        <time>2020-06-06T15:12:16Z</time>
      </trkpt>
      <trkpt lat="47.75802" lon="-3.11865">
        <ele>8.6</ele>
        <time>2020-06-06T15:12:17Z</time>
      </trkpt>
      <trkpt lat="47.75801" lon="-3.11873">
        <ele>8.6</ele>
        <time>2020-06-06T15:12:18Z</time>
      </trkpt>
      <trkpt lat="47.758" lon="-3.11882">
        <ele>8.5</ele>
        <time>2020-06-06T15:12:19Z</time>
      </trkpt>
      <trkpt lat="47.75798" lon="-3.11889">
        <ele>8.4</ele>
        <time>2020-06-06T15:12:20Z</time>
      </trkpt>
      <trkpt lat="47.75796" lon="-3.11897">
        <ele>8.3</ele>
        <time>2020-06-06T15:12:21Z</time>
      </trkpt>
      <trkpt lat="47.75794" lon="-3.11906">
        <ele>8.2</ele>
        <time>2020-06-06T15:12:22Z</time>
      </trkpt>
      <trkpt lat="47.75791" lon="-3.11914">
        <ele>8.1</ele>
        <time>2020-06-06T15:12:23Z</time>
      </trkpt>
      <trkpt lat="47.75788" lon="-3.11921">
        <ele>8</ele>
        <time>2020-06-06T15:12:24Z</time>
      </trkpt>
      <trkpt lat="47.75785" lon="-3.11929">
        <ele>7.9</ele>
        <time>2020-06-06T15:12:25Z</time>
      </trkpt>
      <trkpt lat="47.75781" lon="-3.11937">
        <ele>7.8</ele>
        <time>2020-06-06T15:12:26Z</time>
      </trkpt>
      <trkpt lat="47.75777" lon="-3.11944">
        <ele>7.7</ele>
        <time>2020-06-06T15:12:27Z</time>
      </trkpt>
      <trkpt lat="47.75772" lon="-3.11953">
        <ele>7.6</ele>
        <time>2020-06-06T15:12:28Z</time>
      </trkpt>
      <trkpt lat="47.75768" lon="-3.11961">
        <ele>7.5</ele>
        <time>2020-06-06T15:12:29Z</time>
      </trkpt>
      <trkpt lat="47.75763" lon="-3.1197">
        <ele>7.4</ele>
        <time>2020-06-06T15:12:30Z</time>
      </trkpt>
      <trkpt lat="47.75759" lon="-3.11978">
        <ele>7.3</ele>
        <time>2020-06-06T15:12:31Z</time>
      </trkpt>
      <trkpt lat="47.75754" lon="-3.11987">
        <ele>7.3</ele>
        <time>2020-06-06T15:12:32Z</time>
      </trkpt>
      <trkpt lat="47.75749" lon="-3.11996">
        <ele>7.3</ele>
        <time>2020-06-06T15:12:33Z</time>
      </trkpt>
      <trkpt lat="47.75745" lon="-3.12005">
        <ele>7.3</ele>
        <time>2020-06-06T15:12:34Z</time>
      </trkpt>
      <trkpt lat="47.7574" lon="-3.12014">
        <ele>7.3</ele>
        <time>2020-06-06T15:12:35Z</time>
      </trkpt>
      <trkpt lat="47.75736" lon="-3.12022">
        <ele>7.3</ele>
        <time>2020-06-06T15:12:36Z</time>
      </trkpt>
      <trkpt lat="47.75732" lon="-3.12031">
        <ele>7.4</ele>
        <time>2020-06-06T15:12:37Z</time>
      </trkpt>
      <trkpt lat="47.75729" lon="-3.12039">
        <ele>7.5</ele>
        <time>2020-06-06T15:12:38Z</time>
      </trkpt>
      <trkpt lat="47.75727" lon="-3.12047">
        <ele>7.6</ele>
        <time>2020-06-06T15:12:39Z</time>
      </trkpt>
      <trkpt lat="47.75726" lon="-3.12057">
        <ele>7.7</ele>
        <time>2020-06-06T15:12:40Z</time>
      </trkpt>
      <trkpt lat="47.75724" lon="-3.12065">
        <ele>7.8</ele>
        <time>2020-06-06T15:12:41Z</time>
      </trkpt>
      <trkpt lat="47.75723" lon="-3.12074">
        <ele>7.9</ele>
        <time>2020-06-06T15:12:42Z</time>
      </trkpt>
      <trkpt lat="47.75723" lon="-3.12084">
        <ele>8</ele>
        <time>2020-06-06T15:12:43Z</time>
      </trkpt>
      <trkpt lat="47.75723" lon="-3.12093">
        <ele>8.1</ele>
        <time>2020-06-06T15:12:44Z</time>
      </trkpt>
      <trkpt lat="47.75723" lon="-3.12102">
        <ele>8.3</ele>
        <time>2020-06-06T15:12:45Z</time>
      </trkpt>
      <trkpt lat="47.75724" lon="-3.12109">
        <ele>8.4</ele>
        <time>2020-06-06T15:12:46Z</time>
      </trkpt>
      <trkpt lat="47.75727" lon="-3.12116">
        <ele>8.5</ele>
        <time>2020-06-06T15:12:47Z</time>
      </trkpt>
      <trkpt lat="47.75728" lon="-3.12122">
        <ele>8.6</ele>
        <time>2020-06-06T15:12:48Z</time>
      </trkpt>
      <trkpt lat="47.7573" lon="-3.12129">
        <ele>8.7</ele>
        <time>2020-06-06T15:12:49Z</time>
      </trkpt>
      <trkpt lat="47.75732" lon="-3.12134">
        <ele>8.8</ele>
        <time>2020-06-06T15:12:50Z</time>
      </trkpt>
      <trkpt lat="47.75736" lon="-3.12137">
        <ele>8.9</ele>
        <time>2020-06-06T15:12:51Z</time>
      </trkpt>
      <trkpt lat="47.7574" lon="-3.12139">
        <ele>9.1</ele>
        <time>2020-06-06T15:12:52Z</time>
      </trkpt>
      <trkpt lat="47.75745" lon="-3.12141">
        <ele>9.2</ele>
        <time>2020-06-06T15:12:53Z</time>
      </trkpt>
      <trkpt lat="47.7575" lon="-3.12142">
        <ele>9.3</ele>
        <time>2020-06-06T15:12:54Z</time>
      </trkpt>
      <trkpt lat="47.75755" lon="-3.12143">
        <ele>9.6</ele>
        <time>2020-06-06T15:12:55Z</time>
      </trkpt>
      <trkpt lat="47.75759" lon="-3.12143">
        <ele>9.8</ele>
        <time>2020-06-06T15:12:56Z</time>
      </trkpt>
      <trkpt lat="47.75765" lon="-3.12143">
        <ele>10</ele>
        <time>2020-06-06T15:12:57Z</time>
      </trkpt>
      <trkpt lat="47.7577" lon="-3.12141">
        <ele>10.2</ele>
        <time>2020-06-06T15:12:58Z</time>
      </trkpt>
      <trkpt lat="47.75775" lon="-3.12137">
        <ele>10.5</ele>
        <time>2020-06-06T15:12:59Z</time>
      </trkpt>
      <trkpt lat="47.7578" lon="-3.12133">
        <ele>10.8</ele>
        <time>2020-06-06T15:13:00Z</time>
      </trkpt>
      <trkpt lat="47.75784" lon="-3.12131">
        <ele>11</ele>
        <time>2020-06-06T15:13:01Z</time>
      </trkpt>
      <trkpt lat="47.75788" lon="-3.12128">
        <ele>11.2</ele>
        <time>2020-06-06T15:13:02Z</time>
      </trkpt>
      <trkpt lat="47.75792" lon="-3.12126">
        <ele>11.5</ele>
        <time>2020-06-06T15:13:03Z</time>
      </trkpt>
      <trkpt lat="47.75797" lon="-3.12123">
        <ele>11.8</ele>
        <time>2020-06-06T15:13:04Z</time>
      </trkpt>
      <trkpt lat="47.75802" lon="-3.12121">
        <ele>12.2</ele>
        <time>2020-06-06T15:13:05Z</time>
      </trkpt>
      <trkpt lat="47.75806" lon="-3.12118">
        <ele>12.4</ele>
        <time>2020-06-06T15:13:06Z</time>
      </trkpt>
      <trkpt lat="47.7581" lon="-3.12115">
        <ele>12.7</ele>
        <time>2020-06-06T15:13:07Z</time>
      </trkpt>
      <trkpt lat="47.75814" lon="-3.12111">
        <ele>13.1</ele>
        <time>2020-06-06T15:13:08Z</time>
      </trkpt>
      <trkpt lat="47.75818" lon="-3.12107">
        <ele>13.4</ele>
        <time>2020-06-06T15:13:09Z</time>
      </trkpt>
      <trkpt lat="47.75822" lon="-3.12104">
        <ele>13.7</ele>
        <time>2020-06-06T15:13:10Z</time>
      </trkpt>
      <trkpt lat="47.75826" lon="-3.12101">
        <ele>14</ele>
        <time>2020-06-06T15:13:11Z</time>
      </trkpt>
      <trkpt lat="47.7583" lon="-3.12098">
        <ele>14.3</ele>
        <time>2020-06-06T15:13:12Z</time>
      </trkpt>
      <trkpt lat="47.75833" lon="-3.12096">
        <ele>14.5</ele>
        <time>2020-06-06T15:13:13Z</time>
      </trkpt>
      <trkpt lat="47.75838" lon="-3.12094">
        <ele>14.8</ele>
        <time>2020-06-06T15:13:14Z</time>
      </trkpt>
      <trkpt lat="47.75841" lon="-3.12093">
        <ele>14.9</ele>
        <time>2020-06-06T15:13:15Z</time>
      </trkpt>
      <trkpt lat="47.75844" lon="-3.12091">
        <ele>15.1</ele>
        <time>2020-06-06T15:13:16Z</time>
      </trkpt>
      <trkpt lat="47.75847" lon="-3.1209">
        <ele>15.2</ele>
        <time>2020-06-06T15:13:17Z</time>
      </trkpt>
      <trkpt lat="47.7585" lon="-3.12089">
        <ele>15.3</ele>
        <time>2020-06-06T15:13:18Z</time>
      </trkpt>
      <trkpt lat="47.75853" lon="-3.12087">
        <ele>15.5</ele>
        <time>2020-06-06T15:13:19Z</time>
      </trkpt>
      <trkpt lat="47.75857" lon="-3.12085">
        <ele>15.6</ele>
        <time>2020-06-06T15:13:20Z</time>
      </trkpt>
      <trkpt lat="47.75861" lon="-3.12083">
        <ele>15.6</ele>
        <time>2020-06-06T15:13:21Z</time>
      </trkpt>
      <trkpt lat="47.75864" lon="-3.12081">
        <ele>15.6</ele>
        <time>2020-06-06T15:13:22Z</time>
      </trkpt>
      <trkpt lat="47.75866" lon="-3.12079">
        <ele>15.6</ele>
        <time>2020-06-06T15:13:23Z</time>
      </trkpt>
      <trkpt lat="47.75869" lon="-3.12076">
        <ele>15.6</ele>
        <time>2020-06-06T15:13:24Z</time>
      </trkpt>
      <trkpt lat="47.75872" lon="-3.12074">
        <ele>15.6</ele>
        <time>2020-06-06T15:13:25Z</time>
      </trkpt>
      <trkpt lat="47.75875" lon="-3.12073">
        <ele>15.6</ele>
        <time>2020-06-06T15:13:26Z</time>
      </trkpt>
      <trkpt lat="47.75878" lon="-3.12071">
        <ele>15.5</ele>
        <time>2020-06-06T15:13:27Z</time>
      </trkpt>
      <trkpt lat="47.75881" lon="-3.12069">
        <ele>15.4</ele>
        <time>2020-06-06T15:13:28Z</time>
      </trkpt>
      <trkpt lat="47.75884" lon="-3.12067">
        <ele>15.3</ele>
        <time>2020-06-06T15:13:29Z</time>
      </trkpt>
      <trkpt lat="47.75888" lon="-3.12064">
        <ele>15.2</ele>
        <time>2020-06-06T15:13:30Z</time>
      </trkpt>
      <trkpt lat="47.75893" lon="-3.12062">
        <ele>14.9</ele>
        <time>2020-06-06T15:13:31Z</time>
      </trkpt>
      <trkpt lat="47.75898" lon="-3.12058">
        <ele>14.7</ele>
        <time>2020-06-06T15:13:32Z</time>
      </trkpt>
      <trkpt lat="47.75903" lon="-3.12054">
        <ele>14.4</ele>
        <time>2020-06-06T15:13:33Z</time>
      </trkpt>
      <trkpt lat="47.75908" lon="-3.1205">
        <ele>14.1</ele>
        <time>2020-06-06T15:13:34Z</time>
      </trkpt>
      <trkpt lat="47.75914" lon="-3.12046">
        <ele>13.8</ele>
        <time>2020-06-06T15:13:35Z</time>
      </trkpt>
      <trkpt lat="47.7592" lon="-3.12042">
        <ele>13.4</ele>
        <time>2020-06-06T15:13:36Z</time>
      </trkpt>
      <trkpt lat="47.75927" lon="-3.12037">
        <ele>13</ele>
        <time>2020-06-06T15:13:37Z</time>
      </trkpt>
      <trkpt lat="47.75934" lon="-3.12032">
        <ele>12.7</ele>
        <time>2020-06-06T15:13:38Z</time>
      </trkpt>
      <trkpt lat="47.75941" lon="-3.12023">
        <ele>12.4</ele>
        <time>2020-06-06T15:13:39Z</time>
      </trkpt>
      <trkpt lat="47.75947" lon="-3.12013">
        <ele>12.3</ele>
        <time>2020-06-06T15:13:40Z</time>
      </trkpt>
      <trkpt lat="47.75952" lon="-3.12004">
        <ele>12.1</ele>
        <time>2020-06-06T15:13:41Z</time>
      </trkpt>
      <trkpt lat="47.75958" lon="-3.11997">
        <ele>12</ele>
        <time>2020-06-06T15:13:42Z</time>
      </trkpt>
      <trkpt lat="47.75965" lon="-3.11992">
        <ele>11.9</ele>
        <time>2020-06-06T15:13:43Z</time>
      </trkpt>
      <trkpt lat="47.75972" lon="-3.11988">
        <ele>11.7</ele>
        <time>2020-06-06T15:13:44Z</time>
      </trkpt>
      <trkpt lat="47.7598" lon="-3.11983">
        <ele>11.4</ele>
        <time>2020-06-06T15:13:45Z</time>
      </trkpt>
      <trkpt lat="47.75987" lon="-3.11974">
        <ele>11.1</ele>
        <time>2020-06-06T15:13:46Z</time>
      </trkpt>
      <trkpt lat="47.75994" lon="-3.11966">
        <ele>10.9</ele>
        <time>2020-06-06T15:13:47Z</time>
      </trkpt>
      <trkpt lat="47.76001" lon="-3.11958">
        <ele>10.8</ele>
        <time>2020-06-06T15:13:48Z</time>
      </trkpt>
      <trkpt lat="47.76007" lon="-3.11951">
        <ele>10.8</ele>
        <time>2020-06-06T15:13:49Z</time>
      </trkpt>
      <trkpt lat="47.76013" lon="-3.11943">
        <ele>10.8</ele>
        <time>2020-06-06T15:13:50Z</time>
      </trkpt>
      <trkpt lat="47.7602" lon="-3.11936">
        <ele>10.8</ele>
        <time>2020-06-06T15:13:51Z</time>
      </trkpt>
      <trkpt lat="47.76026" lon="-3.11928">
        <ele>10.9</ele>
        <time>2020-06-06T15:13:52Z</time>
      </trkpt>
      <trkpt lat="47.76032" lon="-3.1192">
        <ele>11.1</ele>
        <time>2020-06-06T15:13:53Z</time>
      </trkpt>
      <trkpt lat="47.76039" lon="-3.11913">
        <ele>11.3</ele>
        <time>2020-06-06T15:13:54Z</time>
      </trkpt>
      <trkpt lat="47.76045" lon="-3.11905">
        <ele>11.5</ele>
        <time>2020-06-06T15:13:55Z</time>
      </trkpt>
      <trkpt lat="47.76051" lon="-3.11898">
        <ele>11.8</ele>
        <time>2020-06-06T15:13:56Z</time>
      </trkpt>
      <trkpt lat="47.76058" lon="-3.11891">
        <ele>12</ele>
        <time>2020-06-06T15:13:57Z</time>
      </trkpt>
      <trkpt lat="47.76064" lon="-3.11885">
        <ele>12.3</ele>
        <time>2020-06-06T15:13:58Z</time>
      </trkpt>
      <trkpt lat="47.76069" lon="-3.11878">
        <ele>12.4</ele>
        <time>2020-06-06T15:13:59Z</time>
      </trkpt>
      <trkpt lat="47.76074" lon="-3.11872">
        <ele>12.5</ele>
        <time>2020-06-06T15:14:00Z</time>
      </trkpt>
      <trkpt lat="47.76079" lon="-3.11866">
        <ele>12.7</ele>
        <time>2020-06-06T15:14:01Z</time>
      </trkpt>
      <trkpt lat="47.76084" lon="-3.11861">
        <ele>12.8</ele>
        <time>2020-06-06T15:14:02Z</time>
      </trkpt>
      <trkpt lat="47.76088" lon="-3.11857">
        <ele>13</ele>
        <time>2020-06-06T15:14:03Z</time>
      </trkpt>
      <trkpt lat="47.76093" lon="-3.11851">
        <ele>13.1</ele>
        <time>2020-06-06T15:14:04Z</time>
      </trkpt>
      <trkpt lat="47.76097" lon="-3.11847">
        <ele>13.2</ele>
        <time>2020-06-06T15:14:05Z</time>
      </trkpt>
      <trkpt lat="47.761" lon="-3.11842">
        <ele>13.3</ele>
        <time>2020-06-06T15:14:06Z</time>
      </trkpt>
      <trkpt lat="47.76104" lon="-3.11838">
        <ele>13.5</ele>
        <time>2020-06-06T15:14:07Z</time>
      </trkpt>
      <trkpt lat="47.76107" lon="-3.11833">
        <ele>13.5</ele>
        <time>2020-06-06T15:14:08Z</time>
      </trkpt>
      <trkpt lat="47.76111" lon="-3.1183">
        <ele>14</ele>
        <time>2020-06-06T15:14:09Z</time>
      </trkpt>
      <trkpt lat="47.76115" lon="-3.11828">
        <ele>14.2</ele>
        <time>2020-06-06T15:14:10Z</time>
      </trkpt>
      <trkpt lat="47.76119" lon="-3.1183">
        <ele>14.3</ele>
        <time>2020-06-06T15:14:11Z</time>
      </trkpt>
      <trkpt lat="47.76122" lon="-3.11833">
        <ele>14.5</ele>
        <time>2020-06-06T15:14:12Z</time>
      </trkpt>
      <trkpt lat="47.76124" lon="-3.11838">
        <ele>14.6</ele>
        <time>2020-06-06T15:14:13Z</time>
      </trkpt>
      <trkpt lat="47.76126" lon="-3.11843">
        <ele>14.7</ele>
        <time>2020-06-06T15:14:14Z</time>
      </trkpt>
      <trkpt lat="47.76128" lon="-3.11849">
        <ele>14.8</ele>
        <time>2020-06-06T15:14:15Z</time>
      </trkpt>
      <trkpt lat="47.7613" lon="-3.11855">
        <ele>15</ele>
        <time>2020-06-06T15:14:16Z</time>
      </trkpt>
      <trkpt lat="47.76132" lon="-3.11861">
        <ele>15.1</ele>
        <time>2020-06-06T15:14:17Z</time>
      </trkpt>
      <trkpt lat="47.76133" lon="-3.11867">
        <ele>15.2</ele>
        <time>2020-06-06T15:14:18Z</time>
      </trkpt>
      <trkpt lat="47.76135" lon="-3.11874">
        <ele>15.4</ele>
        <time>2020-06-06T15:14:19Z</time>
      </trkpt>
      <trkpt lat="47.76136" lon="-3.11881">
        <ele>15.6</ele>
        <time>2020-06-06T15:14:20Z</time>
      </trkpt>
      <trkpt lat="47.76138" lon="-3.11887">
        <ele>15.8</ele>
        <time>2020-06-06T15:14:21Z</time>
      </trkpt>
      <trkpt lat="47.76139" lon="-3.11894">
        <ele>16</ele>
        <time>2020-06-06T15:14:22Z</time>
      </trkpt>
      <trkpt lat="47.7614" lon="-3.11901">
        <ele>16.2</ele>
        <time>2020-06-06T15:14:23Z</time>
      </trkpt>
      <trkpt lat="47.76143" lon="-3.11907">
        <ele>16.4</ele>
        <time>2020-06-06T15:14:24Z</time>
      </trkpt>
      <trkpt lat="47.76145" lon="-3.11912">
        <ele>16.6</ele>
        <time>2020-06-06T15:14:25Z</time>
      </trkpt>
      <trkpt lat="47.76148" lon="-3.11919">
        <ele>16.8</ele>
        <time>2020-06-06T15:14:26Z</time>
      </trkpt>
      <trkpt lat="47.76149" lon="-3.11925">
        <ele>17</ele>
        <time>2020-06-06T15:14:27Z</time>
      </trkpt>
      <trkpt lat="47.76151" lon="-3.11932">
        <ele>17.2</ele>
        <time>2020-06-06T15:14:28Z</time>
      </trkpt>
      <trkpt lat="47.76153" lon="-3.11938">
        <ele>17.3</ele>
        <time>2020-06-06T15:14:29Z</time>
      </trkpt>
      <trkpt lat="47.76154" lon="-3.11944">
        <ele>17.5</ele>
        <time>2020-06-06T15:14:30Z</time>
      </trkpt>
      <trkpt lat="47.76158" lon="-3.1195">
        <ele>17.7</ele>
        <time>2020-06-06T15:14:31Z</time>
      </trkpt>
      <trkpt lat="47.76162" lon="-3.11956">
        <ele>17.9</ele>
        <time>2020-06-06T15:14:32Z</time>
      </trkpt>
      <trkpt lat="47.76165" lon="-3.11962">
        <ele>18</ele>
        <time>2020-06-06T15:14:33Z</time>
      </trkpt>
      <trkpt lat="47.76167" lon="-3.11967">
        <ele>18.1</ele>
        <time>2020-06-06T15:14:34Z</time>
      </trkpt>
      <trkpt lat="47.7617" lon="-3.11973">
        <ele>18.2</ele>
        <time>2020-06-06T15:14:35Z</time>
      </trkpt>
      <trkpt lat="47.76173" lon="-3.11979">
        <ele>18.3</ele>
        <time>2020-06-06T15:14:36Z</time>
      </trkpt>
      <trkpt lat="47.76177" lon="-3.11985">
        <ele>18.4</ele>
        <time>2020-06-06T15:14:37Z</time>
      </trkpt>
      <trkpt lat="47.76181" lon="-3.11989">
        <ele>18.7</ele>
        <time>2020-06-06T15:14:38Z</time>
      </trkpt>
      <trkpt lat="47.76185" lon="-3.11993">
        <ele>18.9</ele>
        <time>2020-06-06T15:14:39Z</time>
      </trkpt>
      <trkpt lat="47.76189" lon="-3.11997">
        <ele>19.1</ele>
        <time>2020-06-06T15:14:40Z</time>
      </trkpt>
      <trkpt lat="47.76191" lon="-3.12">
        <ele>19.3</ele>
        <time>2020-06-06T15:14:41Z</time>
      </trkpt>
      <trkpt lat="47.76194" lon="-3.12004">
        <ele>19.5</ele>
        <time>2020-06-06T15:14:42Z</time>
      </trkpt>
      <trkpt lat="47.76198" lon="-3.12007">
        <ele>19.7</ele>
        <time>2020-06-06T15:14:43Z</time>
      </trkpt>
      <trkpt lat="47.762" lon="-3.1201">
        <ele>19.9</ele>
        <time>2020-06-06T15:14:44Z</time>
      </trkpt>
      <trkpt lat="47.76203" lon="-3.12014">
        <ele>20</ele>
        <time>2020-06-06T15:14:45Z</time>
      </trkpt>
      <trkpt lat="47.76204" lon="-3.12018">
        <ele>20</ele>
        <time>2020-06-06T15:14:46Z</time>
      </trkpt>
      <trkpt lat="47.76207" lon="-3.12021">
        <ele>20.1</ele>
        <time>2020-06-06T15:14:47Z</time>
      </trkpt>
      <trkpt lat="47.76209" lon="-3.12026">
        <ele>20.2</ele>
        <time>2020-06-06T15:14:48Z</time>
      </trkpt>
      <trkpt lat="47.7621" lon="-3.1203">
        <ele>20.3</ele>
        <time>2020-06-06T15:14:49Z</time>
      </trkpt>
      <trkpt lat="47.76212" lon="-3.12039">
        <ele>20.4</ele>
        <time>2020-06-06T15:14:50Z</time>
      </trkpt>
      <trkpt lat="47.76213" lon="-3.12045">
        <ele>20.5</ele>
        <time>2020-06-06T15:14:51Z</time>
      </trkpt>
      <trkpt lat="47.76213" lon="-3.12048">
        <ele>20.5</ele>
        <time>2020-06-06T15:14:52Z</time>
      </trkpt>
      <trkpt lat="47.76213" lon="-3.1205">
        <ele>20.5</ele>
        <time>2020-06-06T15:14:53Z</time>
      </trkpt>
      <trkpt lat="47.76213" lon="-3.12052">
        <ele>20.5</ele>
        <time>2020-06-06T15:14:54Z</time>
      </trkpt>
      <trkpt lat="47.76212" lon="-3.12052">
        <ele>20.5</ele>
        <time>2020-06-06T15:14:55Z</time>
      </trkpt>
      <trkpt lat="47.76212" lon="-3.12055">
        <ele>20.6</ele>
        <time>2020-06-06T15:14:56Z</time>
      </trkpt>
      <trkpt lat="47.76213" lon="-3.12058">
        <ele>20.6</ele>
        <time>2020-06-06T15:14:57Z</time>
      </trkpt>
      <trkpt lat="47.76213" lon="-3.12062">
        <ele>20.6</ele>
        <time>2020-06-06T15:14:58Z</time>
      </trkpt>
      <trkpt lat="47.76214" lon="-3.12067">
        <ele>20.6</ele>
        <time>2020-06-06T15:14:59Z</time>
      </trkpt>
      <trkpt lat="47.76215" lon="-3.12071">
        <ele>20.6</ele>
        <time>2020-06-06T15:15:00Z</time>
      </trkpt>
      <trkpt lat="47.76216" lon="-3.12076">
        <ele>20.5</ele>
        <time>2020-06-06T15:15:01Z</time>
      </trkpt>
      <trkpt lat="47.76217" lon="-3.1208">
        <ele>20.5</ele>
        <time>2020-06-06T15:15:02Z</time>
      </trkpt>
      <trkpt lat="47.76221" lon="-3.12081">
        <ele>20.5</ele>
        <time>2020-06-06T15:15:03Z</time>
      </trkpt>
      <trkpt lat="47.76224" lon="-3.12082">
        <ele>20.8</ele>
        <time>2020-06-06T15:15:04Z</time>
      </trkpt>
      <trkpt lat="47.76228" lon="-3.12079">
        <ele>20.8</ele>
        <time>2020-06-06T15:15:05Z</time>
      </trkpt>
      <trkpt lat="47.7623" lon="-3.12077">
        <ele>20.9</ele>
        <time>2020-06-06T15:15:06Z</time>
      </trkpt>
      <trkpt lat="47.76231" lon="-3.12076">
        <ele>20.9</ele>
        <time>2020-06-06T15:15:07Z</time>
      </trkpt>
      <trkpt lat="47.76234" lon="-3.12073">
        <ele>21</ele>
        <time>2020-06-06T15:15:08Z</time>
      </trkpt>
      <trkpt lat="47.76237" lon="-3.12069">
        <ele>21.1</ele>
        <time>2020-06-06T15:15:09Z</time>
      </trkpt>
      <trkpt lat="47.76241" lon="-3.12066">
        <ele>21.2</ele>
        <time>2020-06-06T15:15:10Z</time>
      </trkpt>
      <trkpt lat="47.76242" lon="-3.12065">
        <ele>21.2</ele>
        <time>2020-06-06T15:15:11Z</time>
      </trkpt>
      <trkpt lat="47.76244" lon="-3.12062">
        <ele>21.3</ele>
        <time>2020-06-06T15:15:12Z</time>
      </trkpt>
      <trkpt lat="47.76245" lon="-3.1206">
        <ele>21.3</ele>
        <time>2020-06-06T15:15:13Z</time>
      </trkpt>
      <trkpt lat="47.76247" lon="-3.12058">
        <ele>21.3</ele>
        <time>2020-06-06T15:15:14Z</time>
      </trkpt>
      <trkpt lat="47.76248" lon="-3.12056">
        <ele>21.4</ele>
        <time>2020-06-06T15:15:15Z</time>
      </trkpt>
      <trkpt lat="47.76249" lon="-3.12052">
        <ele>21.4</ele>
        <time>2020-06-06T15:15:16Z</time>
      </trkpt>
      <trkpt lat="47.76249" lon="-3.1205">
        <ele>21.5</ele>
        <time>2020-06-06T15:15:17Z</time>
      </trkpt>
      <trkpt lat="47.76248" lon="-3.12046">
        <ele>21.5</ele>
        <time>2020-06-06T15:15:18Z</time>
      </trkpt>
      <trkpt lat="47.76247" lon="-3.12045">
        <ele>21.5</ele>
        <time>2020-06-06T15:15:19Z</time>
      </trkpt>
      <trkpt lat="47.76248" lon="-3.12044">
        <ele>21.6</ele>
        <time>2020-06-06T15:15:20Z</time>
      </trkpt>
      <trkpt lat="47.76247" lon="-3.12044">
        <ele>21.6</ele>
        <time>2020-06-06T15:15:21Z</time>
      </trkpt>
      <trkpt lat="47.76248" lon="-3.12044">
        <ele>21.6</ele>
        <time>2020-06-06T15:15:22Z</time>
      </trkpt>
      <trkpt lat="47.76248" lon="-3.12045">
        <ele>21.6</ele>
        <time>2020-06-06T15:15:23Z</time>
      </trkpt>
      <trkpt lat="47.76248" lon="-3.12044">
        <ele>21.6</ele>
        <time>2020-06-06T15:15:24Z</time>
      </trkpt>
      <trkpt lat="47.76248" lon="-3.12043">
        <ele>21.6</ele>
        <time>2020-06-06T15:15:25Z</time>
      </trkpt>
      <trkpt lat="47.76248" lon="-3.12042">
        <ele>21.6</ele>
        <time>2020-06-06T15:15:26Z</time>
      </trkpt>
      <trkpt lat="47.76248" lon="-3.12042">
        <ele>21.7</ele>
        <time>2020-06-06T15:15:27Z</time>
      </trkpt>
      <trkpt lat="47.76248" lon="-3.12042">
        <ele>21.7</ele>
        <time>2020-06-06T15:15:28Z</time>
      </trkpt>
      <trkpt lat="47.76248" lon="-3.12042">
        <ele>21.7</ele>
        <time>2020-06-06T15:15:29Z</time>
      </trkpt>
      <trkpt lat="47.76248" lon="-3.12041">
        <ele>21.7</ele>
        <time>2020-06-06T15:15:30Z</time>
      </trkpt>
      <trkpt lat="47.76249" lon="-3.12042">
        <ele>21.7</ele>
        <time>2020-06-06T15:15:31Z</time>
      </trkpt>
      <trkpt lat="47.76249" lon="-3.12042">
        <ele>21.7</ele>
        <time>2020-06-06T15:15:32Z</time>
      </trkpt>
      <trkpt lat="47.76249" lon="-3.12042">
        <ele>21.7</ele>
        <time>2020-06-06T15:15:33Z</time>
      </trkpt>
      <trkpt lat="47.76239" lon="-3.1206">
        <ele>21.5</ele>
        <time>2020-06-06T16:11:06Z</time>
      </trkpt>
      <trkpt lat="47.76239" lon="-3.1206">
        <ele>21.5</ele>
        <time>2020-06-06T16:11:07Z</time>
      </trkpt>
      <trkpt lat="47.76239" lon="-3.1206">
        <ele>21.5</ele>
        <time>2020-06-06T16:11:08Z</time>
      </trkpt>
      <trkpt lat="47.76239" lon="-3.1206">
        <ele>21.5</ele>
        <time>2020-06-06T16:11:09Z</time>
      </trkpt>
      <trkpt lat="47.76239" lon="-3.1206">
        <ele>21.5</ele>
        <time>2020-06-06T16:11:10Z</time>
      </trkpt>
      <trkpt lat="47.76239" lon="-3.1206">
        <ele>21.5</ele>
        <time>2020-06-06T16:11:11Z</time>
      </trkpt>
      <trkpt lat="47.76239" lon="-3.1206">
        <ele>21.5</ele>
        <time>2020-06-06T16:11:12Z</time>
      </trkpt>
      <trkpt lat="47.76239" lon="-3.1206">
        <ele>21.5</ele>
        <time>2020-06-06T16:11:13Z</time>
      </trkpt>
      <trkpt lat="47.76239" lon="-3.1206">
        <ele>21.5</ele>
        <time>2020-06-06T16:11:14Z</time>
      </trkpt>
      <trkpt lat="47.76239" lon="-3.1206">
        <ele>21.4</ele>
        <time>2020-06-06T16:11:15Z</time>
      </trkpt>
      <trkpt lat="47.76239" lon="-3.12061">
        <ele>21.4</ele>
        <time>2020-06-06T16:11:16Z</time>
      </trkpt>
      <trkpt lat="47.76239" lon="-3.12063">
        <ele>21.4</ele>
        <time>2020-06-06T16:11:17Z</time>
      </trkpt>
      <trkpt lat="47.76238" lon="-3.12065">
        <ele>21.3</ele>
        <time>2020-06-06T16:11:18Z</time>
      </trkpt>
      <trkpt lat="47.76238" lon="-3.12067">
        <ele>21.3</ele>
        <time>2020-06-06T16:11:19Z</time>
      </trkpt>
      <trkpt lat="47.76238" lon="-3.12069">
        <ele>21.2</ele>
        <time>2020-06-06T16:11:20Z</time>
      </trkpt>
      <trkpt lat="47.76235" lon="-3.12071">
        <ele>21.1</ele>
        <time>2020-06-06T16:11:21Z</time>
      </trkpt>
      <trkpt lat="47.76234" lon="-3.12071">
        <ele>21.1</ele>
        <time>2020-06-06T16:11:22Z</time>
      </trkpt>
      <trkpt lat="47.7623" lon="-3.12074">
        <ele>21</ele>
        <time>2020-06-06T16:11:23Z</time>
      </trkpt>
      <trkpt lat="47.76229" lon="-3.12075">
        <ele>21</ele>
        <time>2020-06-06T16:11:24Z</time>
      </trkpt>
      <trkpt lat="47.76227" lon="-3.12077">
        <ele>20.9</ele>
        <time>2020-06-06T16:11:25Z</time>
      </trkpt>
      <trkpt lat="47.76224" lon="-3.12077">
        <ele>20.8</ele>
        <time>2020-06-06T16:11:26Z</time>
      </trkpt>
      <trkpt lat="47.7622" lon="-3.12077">
        <ele>20.7</ele>
        <time>2020-06-06T16:11:27Z</time>
      </trkpt>
      <trkpt lat="47.76217" lon="-3.1208">
        <ele>20.6</ele>
        <time>2020-06-06T16:11:28Z</time>
      </trkpt>
      <trkpt lat="47.76216" lon="-3.12083">
        <ele>20.5</ele>
        <time>2020-06-06T16:11:29Z</time>
      </trkpt>
      <trkpt lat="47.76214" lon="-3.12083">
        <ele>20.5</ele>
        <time>2020-06-06T16:11:30Z</time>
      </trkpt>
      <trkpt lat="47.76213" lon="-3.12084">
        <ele>20.5</ele>
        <time>2020-06-06T16:11:31Z</time>
      </trkpt>
      <trkpt lat="47.76212" lon="-3.12082">
        <ele>20.5</ele>
        <time>2020-06-06T16:11:32Z</time>
      </trkpt>
      <trkpt lat="47.76212" lon="-3.12081">
        <ele>20.5</ele>
        <time>2020-06-06T16:11:33Z</time>
      </trkpt>
      <trkpt lat="47.76212" lon="-3.1208">
        <ele>20.5</ele>
        <time>2020-06-06T16:11:34Z</time>
      </trkpt>
      <trkpt lat="47.76213" lon="-3.12078">
        <ele>20.5</ele>
        <time>2020-06-06T16:11:35Z</time>
      </trkpt>
      <trkpt lat="47.76213" lon="-3.12077">
        <ele>20.6</ele>
        <time>2020-06-06T16:11:36Z</time>
      </trkpt>
      <trkpt lat="47.76213" lon="-3.12072">
        <ele>20.6</ele>
        <time>2020-06-06T16:11:37Z</time>
      </trkpt>
      <trkpt lat="47.76212" lon="-3.12071">
        <ele>20.6</ele>
        <time>2020-06-06T16:11:38Z</time>
      </trkpt>
      <trkpt lat="47.76212" lon="-3.12066">
        <ele>20.6</ele>
        <time>2020-06-06T16:11:39Z</time>
      </trkpt>
      <trkpt lat="47.76211" lon="-3.1206">
        <ele>20.6</ele>
        <time>2020-06-06T16:11:40Z</time>
      </trkpt>
      <trkpt lat="47.76211" lon="-3.12058">
        <ele>20.6</ele>
        <time>2020-06-06T16:11:41Z</time>
      </trkpt>
      <trkpt lat="47.7621" lon="-3.12055">
        <ele>20.5</ele>
        <time>2020-06-06T16:11:42Z</time>
      </trkpt>
      <trkpt lat="47.76209" lon="-3.12051">
        <ele>20.5</ele>
        <time>2020-06-06T16:11:43Z</time>
      </trkpt>
      <trkpt lat="47.76208" lon="-3.12045">
        <ele>20.5</ele>
        <time>2020-06-06T16:11:44Z</time>
      </trkpt>
      <trkpt lat="47.76206" lon="-3.1204">
        <ele>20.4</ele>
        <time>2020-06-06T16:11:45Z</time>
      </trkpt>
      <trkpt lat="47.76206" lon="-3.12034">
        <ele>20.3</ele>
        <time>2020-06-06T16:11:46Z</time>
      </trkpt>
      <trkpt lat="47.76204" lon="-3.12028">
        <ele>20.2</ele>
        <time>2020-06-06T16:11:47Z</time>
      </trkpt>
      <trkpt lat="47.76202" lon="-3.12023">
        <ele>20.1</ele>
        <time>2020-06-06T16:11:48Z</time>
      </trkpt>
      <trkpt lat="47.76201" lon="-3.12018">
        <ele>19.9</ele>
        <time>2020-06-06T16:11:49Z</time>
      </trkpt>
      <trkpt lat="47.76199" lon="-3.12014">
        <ele>19.9</ele>
        <time>2020-06-06T16:11:50Z</time>
      </trkpt>
      <trkpt lat="47.76197" lon="-3.12009">
        <ele>19.7</ele>
        <time>2020-06-06T16:11:51Z</time>
      </trkpt>
      <trkpt lat="47.76193" lon="-3.12004">
        <ele>19.5</ele>
        <time>2020-06-06T16:11:52Z</time>
      </trkpt>
      <trkpt lat="47.76188" lon="-3.12">
        <ele>19.2</ele>
        <time>2020-06-06T16:11:53Z</time>
      </trkpt>
      <trkpt lat="47.76184" lon="-3.11995">
        <ele>18.9</ele>
        <time>2020-06-06T16:11:54Z</time>
      </trkpt>
      <trkpt lat="47.7618" lon="-3.11989">
        <ele>18.6</ele>
        <time>2020-06-06T16:11:55Z</time>
      </trkpt>
      <trkpt lat="47.76175" lon="-3.11984">
        <ele>18.4</ele>
        <time>2020-06-06T16:11:56Z</time>
      </trkpt>
      <trkpt lat="47.7617" lon="-3.11979">
        <ele>18.3</ele>
        <time>2020-06-06T16:11:57Z</time>
      </trkpt>
      <trkpt lat="47.76166" lon="-3.11974">
        <ele>18.1</ele>
        <time>2020-06-06T16:11:58Z</time>
      </trkpt>
      <trkpt lat="47.76162" lon="-3.11966">
        <ele>18</ele>
        <time>2020-06-06T16:11:59Z</time>
      </trkpt>
      <trkpt lat="47.76159" lon="-3.11957">
        <ele>17.8</ele>
        <time>2020-06-06T16:12:00Z</time>
      </trkpt>
      <trkpt lat="47.76156" lon="-3.11949">
        <ele>17.5</ele>
        <time>2020-06-06T16:12:01Z</time>
      </trkpt>
      <trkpt lat="47.76153" lon="-3.11941">
        <ele>17.3</ele>
        <time>2020-06-06T16:12:02Z</time>
      </trkpt>
      <trkpt lat="47.76149" lon="-3.11935">
        <ele>17</ele>
        <time>2020-06-06T16:12:03Z</time>
      </trkpt>
      <trkpt lat="47.76147" lon="-3.11927">
        <ele>16.8</ele>
        <time>2020-06-06T16:12:04Z</time>
      </trkpt>
      <trkpt lat="47.76144" lon="-3.11919">
        <ele>16.5</ele>
        <time>2020-06-06T16:12:05Z</time>
      </trkpt>
      <trkpt lat="47.76141" lon="-3.1191">
        <ele>16.2</ele>
        <time>2020-06-06T16:12:06Z</time>
      </trkpt>
      <trkpt lat="47.76137" lon="-3.11902">
        <ele>15.9</ele>
        <time>2020-06-06T16:12:07Z</time>
      </trkpt>
      <trkpt lat="47.76134" lon="-3.11893">
        <ele>15.6</ele>
        <time>2020-06-06T16:12:08Z</time>
      </trkpt>
      <trkpt lat="47.76132" lon="-3.11881">
        <ele>15.3</ele>
        <time>2020-06-06T16:12:09Z</time>
      </trkpt>
      <trkpt lat="47.7613" lon="-3.11871">
        <ele>15</ele>
        <time>2020-06-06T16:12:10Z</time>
      </trkpt>
      <trkpt lat="47.76128" lon="-3.11863">
        <ele>14.8</ele>
        <time>2020-06-06T16:12:11Z</time>
      </trkpt>
      <trkpt lat="47.76126" lon="-3.11855">
        <ele>14.7</ele>
        <time>2020-06-06T16:12:12Z</time>
      </trkpt>
      <trkpt lat="47.76125" lon="-3.11848">
        <ele>14.5</ele>
        <time>2020-06-06T16:12:13Z</time>
      </trkpt>
      <trkpt lat="47.76123" lon="-3.11842">
        <ele>14.4</ele>
        <time>2020-06-06T16:12:14Z</time>
      </trkpt>
      <trkpt lat="47.76122" lon="-3.11837">
        <ele>14</ele>
        <time>2020-06-06T16:12:15Z</time>
      </trkpt>
      <trkpt lat="47.7612" lon="-3.11834">
        <ele>14</ele>
        <time>2020-06-06T16:12:16Z</time>
      </trkpt>
      <trkpt lat="47.76116" lon="-3.11834">
        <ele>13.9</ele>
        <time>2020-06-06T16:12:17Z</time>
      </trkpt>
      <trkpt lat="47.76112" lon="-3.11837">
        <ele>13.8</ele>
        <time>2020-06-06T16:12:18Z</time>
      </trkpt>
      <trkpt lat="47.76108" lon="-3.11839">
        <ele>13.5</ele>
        <time>2020-06-06T16:12:19Z</time>
      </trkpt>
      <trkpt lat="47.76104" lon="-3.11843">
        <ele>13.4</ele>
        <time>2020-06-06T16:12:20Z</time>
      </trkpt>
      <trkpt lat="47.761" lon="-3.11848">
        <ele>13.3</ele>
        <time>2020-06-06T16:12:21Z</time>
      </trkpt>
      <trkpt lat="47.76096" lon="-3.11854">
        <ele>13.1</ele>
        <time>2020-06-06T16:12:22Z</time>
      </trkpt>
      <trkpt lat="47.76092" lon="-3.1186">
        <ele>13</ele>
        <time>2020-06-06T16:12:23Z</time>
      </trkpt>
      <trkpt lat="47.76088" lon="-3.11865">
        <ele>12.9</ele>
        <time>2020-06-06T16:12:24Z</time>
      </trkpt>
      <trkpt lat="47.76084" lon="-3.11871">
        <ele>12.7</ele>
        <time>2020-06-06T16:12:25Z</time>
      </trkpt>
      <trkpt lat="47.7608" lon="-3.11876">
        <ele>12.6</ele>
        <time>2020-06-06T16:12:26Z</time>
      </trkpt>
      <trkpt lat="47.76075" lon="-3.11881">
        <ele>12.5</ele>
        <time>2020-06-06T16:12:27Z</time>
      </trkpt>
      <trkpt lat="47.7607" lon="-3.11887">
        <ele>12.4</ele>
        <time>2020-06-06T16:12:28Z</time>
      </trkpt>
      <trkpt lat="47.76066" lon="-3.11892">
        <ele>12.3</ele>
        <time>2020-06-06T16:12:29Z</time>
      </trkpt>
      <trkpt lat="47.76062" lon="-3.11898">
        <ele>12.2</ele>
        <time>2020-06-06T16:12:30Z</time>
      </trkpt>
      <trkpt lat="47.76057" lon="-3.11905">
        <ele>12.1</ele>
        <time>2020-06-06T16:12:31Z</time>
      </trkpt>
      <trkpt lat="47.76052" lon="-3.11911">
        <ele>12</ele>
        <time>2020-06-06T16:12:32Z</time>
      </trkpt>
      <trkpt lat="47.76047" lon="-3.11915">
        <ele>12</ele>
        <time>2020-06-06T16:12:33Z</time>
      </trkpt>
      <trkpt lat="47.76042" lon="-3.11921">
        <ele>11.9</ele>
        <time>2020-06-06T16:12:34Z</time>
      </trkpt>
      <trkpt lat="47.76037" lon="-3.11926">
        <ele>11.8</ele>
        <time>2020-06-06T16:12:35Z</time>
      </trkpt>
      <trkpt lat="47.76032" lon="-3.11932">
        <ele>11.7</ele>
        <time>2020-06-06T16:12:36Z</time>
      </trkpt>
      <trkpt lat="47.76027" lon="-3.11938">
        <ele>11.6</ele>
        <time>2020-06-06T16:12:37Z</time>
      </trkpt>
      <trkpt lat="47.76022" lon="-3.11944">
        <ele>11.5</ele>
        <time>2020-06-06T16:12:38Z</time>
      </trkpt>
      <trkpt lat="47.76018" lon="-3.11951">
        <ele>11.4</ele>
        <time>2020-06-06T16:12:39Z</time>
      </trkpt>
      <trkpt lat="47.76012" lon="-3.11957">
        <ele>11.3</ele>
        <time>2020-06-06T16:12:40Z</time>
      </trkpt>
      <trkpt lat="47.76007" lon="-3.11963">
        <ele>11.3</ele>
        <time>2020-06-06T16:12:41Z</time>
      </trkpt>
      <trkpt lat="47.76002" lon="-3.11968">
        <ele>11.2</ele>
        <time>2020-06-06T16:12:42Z</time>
      </trkpt>
      <trkpt lat="47.75998" lon="-3.11974">
        <ele>11.2</ele>
        <time>2020-06-06T16:12:43Z</time>
      </trkpt>
      <trkpt lat="47.75993" lon="-3.1198">
        <ele>11.2</ele>
        <time>2020-06-06T16:12:44Z</time>
      </trkpt>
      <trkpt lat="47.75989" lon="-3.11987">
        <ele>11.2</ele>
        <time>2020-06-06T16:12:45Z</time>
      </trkpt>
      <trkpt lat="47.75985" lon="-3.11992">
        <ele>11.3</ele>
        <time>2020-06-06T16:12:46Z</time>
      </trkpt>
      <trkpt lat="47.75981" lon="-3.11999">
        <ele>11.4</ele>
        <time>2020-06-06T16:12:47Z</time>
      </trkpt>
      <trkpt lat="47.75978" lon="-3.12007">
        <ele>11.4</ele>
        <time>2020-06-06T16:12:48Z</time>
      </trkpt>
      <trkpt lat="47.75974" lon="-3.12013">
        <ele>11.5</ele>
        <time>2020-06-06T16:12:49Z</time>
      </trkpt>
      <trkpt lat="47.75971" lon="-3.1202">
        <ele>11.7</ele>
        <time>2020-06-06T16:12:50Z</time>
      </trkpt>
      <trkpt lat="47.75968" lon="-3.12026">
        <ele>11.8</ele>
        <time>2020-06-06T16:12:51Z</time>
      </trkpt>
      <trkpt lat="47.75964" lon="-3.12031">
        <ele>11.9</ele>
        <time>2020-06-06T16:12:52Z</time>
      </trkpt>
      <trkpt lat="47.75959" lon="-3.12034">
        <ele>12.4</ele>
        <time>2020-06-06T16:12:53Z</time>
      </trkpt>
      <trkpt lat="47.75954" lon="-3.12035">
        <ele>12.3</ele>
        <time>2020-06-06T16:12:54Z</time>
      </trkpt>
      <trkpt lat="47.75949" lon="-3.12034">
        <ele>12.3</ele>
        <time>2020-06-06T16:12:55Z</time>
      </trkpt>
      <trkpt lat="47.75944" lon="-3.12034">
        <ele>12.3</ele>
        <time>2020-06-06T16:12:56Z</time>
      </trkpt>
      <trkpt lat="47.75939" lon="-3.12033">
        <ele>12.5</ele>
        <time>2020-06-06T16:12:57Z</time>
      </trkpt>
      <trkpt lat="47.75933" lon="-3.12033">
        <ele>12.6</ele>
        <time>2020-06-06T16:12:58Z</time>
      </trkpt>
      <trkpt lat="47.75929" lon="-3.12036">
        <ele>12.9</ele>
        <time>2020-06-06T16:12:59Z</time>
      </trkpt>
      <trkpt lat="47.75924" lon="-3.12038">
        <ele>13.1</ele>
        <time>2020-06-06T16:13:00Z</time>
      </trkpt>
      <trkpt lat="47.7592" lon="-3.1204">
        <ele>13.3</ele>
        <time>2020-06-06T16:13:01Z</time>
      </trkpt>
      <trkpt lat="47.75916" lon="-3.12042">
        <ele>13.5</ele>
        <time>2020-06-06T16:13:02Z</time>
      </trkpt>
      <trkpt lat="47.75912" lon="-3.12044">
        <ele>13.7</ele>
        <time>2020-06-06T16:13:03Z</time>
      </trkpt>
      <trkpt lat="47.75909" lon="-3.12047">
        <ele>13.9</ele>
        <time>2020-06-06T16:13:04Z</time>
      </trkpt>
      <trkpt lat="47.75905" lon="-3.12049">
        <ele>14.1</ele>
        <time>2020-06-06T16:13:05Z</time>
      </trkpt>
      <trkpt lat="47.75902" lon="-3.1205">
        <ele>14.3</ele>
        <time>2020-06-06T16:13:06Z</time>
      </trkpt>
      <trkpt lat="47.75898" lon="-3.12053">
        <ele>14.6</ele>
        <time>2020-06-06T16:13:07Z</time>
      </trkpt>
      <trkpt lat="47.75895" lon="-3.12054">
        <ele>14.7</ele>
        <time>2020-06-06T16:13:08Z</time>
      </trkpt>
      <trkpt lat="47.75891" lon="-3.12057">
        <ele>14.9</ele>
        <time>2020-06-06T16:13:09Z</time>
      </trkpt>
      <trkpt lat="47.75887" lon="-3.1206">
        <ele>15.1</ele>
        <time>2020-06-06T16:13:10Z</time>
      </trkpt>
      <trkpt lat="47.75886" lon="-3.12061">
        <ele>15.2</ele>
        <time>2020-06-06T16:13:11Z</time>
      </trkpt>
      <trkpt lat="47.75883" lon="-3.12063">
        <ele>15.3</ele>
        <time>2020-06-06T16:13:12Z</time>
      </trkpt>
      <trkpt lat="47.75882" lon="-3.12064">
        <ele>15.3</ele>
        <time>2020-06-06T16:13:13Z</time>
      </trkpt>
      <trkpt lat="47.75881" lon="-3.12065">
        <ele>15.4</ele>
        <time>2020-06-06T16:13:14Z</time>
      </trkpt>
      <trkpt lat="47.75879" lon="-3.12067">
        <ele>15.5</ele>
        <time>2020-06-06T16:13:15Z</time>
      </trkpt>
      <trkpt lat="47.75878" lon="-3.12068">
        <ele>15.5</ele>
        <time>2020-06-06T16:13:16Z</time>
      </trkpt>
      <trkpt lat="47.75873" lon="-3.12072">
        <ele>15.6</ele>
        <time>2020-06-06T16:13:17Z</time>
      </trkpt>
      <trkpt lat="47.7587" lon="-3.12074">
        <ele>15.6</ele>
        <time>2020-06-06T16:13:18Z</time>
      </trkpt>
      <trkpt lat="47.75868" lon="-3.12076">
        <ele>15.6</ele>
        <time>2020-06-06T16:13:19Z</time>
      </trkpt>
      <trkpt lat="47.75867" lon="-3.12076">
        <ele>15.6</ele>
        <time>2020-06-06T16:13:20Z</time>
      </trkpt>
      <trkpt lat="47.75863" lon="-3.1208">
        <ele>15.6</ele>
        <time>2020-06-06T16:13:21Z</time>
      </trkpt>
      <trkpt lat="47.75862" lon="-3.12081">
        <ele>15.6</ele>
        <time>2020-06-06T16:13:22Z</time>
      </trkpt>
      <trkpt lat="47.75862" lon="-3.12081">
        <ele>15.6</ele>
        <time>2020-06-06T16:13:23Z</time>
      </trkpt>
      <trkpt lat="47.75861" lon="-3.1208">
        <ele>15.6</ele>
        <time>2020-06-06T16:13:24Z</time>
      </trkpt>
      <trkpt lat="47.7586" lon="-3.1208">
        <ele>15.6</ele>
        <time>2020-06-06T16:13:25Z</time>
      </trkpt>
      <trkpt lat="47.7586" lon="-3.12079">
        <ele>15.6</ele>
        <time>2020-06-06T16:13:26Z</time>
      </trkpt>
      <trkpt lat="47.75862" lon="-3.12078">
        <ele>15.6</ele>
        <time>2020-06-06T16:13:27Z</time>
      </trkpt>
      <trkpt lat="47.75861" lon="-3.12078">
        <ele>15.6</ele>
        <time>2020-06-06T16:13:28Z</time>
      </trkpt>
      <trkpt lat="47.75861" lon="-3.12078">
        <ele>15.6</ele>
        <time>2020-06-06T16:13:29Z</time>
      </trkpt>
      <trkpt lat="47.75861" lon="-3.12078">
        <ele>15.6</ele>
        <time>2020-06-06T16:13:30Z</time>
      </trkpt>
      <trkpt lat="47.7586" lon="-3.12078">
        <ele>15.6</ele>
        <time>2020-06-06T16:13:31Z</time>
      </trkpt>
      <trkpt lat="47.7586" lon="-3.12079">
        <ele>15.6</ele>
        <time>2020-06-06T16:13:32Z</time>
      </trkpt>
      <trkpt lat="47.7586" lon="-3.12079">
        <ele>15.6</ele>
        <time>2020-06-06T16:13:33Z</time>
      </trkpt>
      <trkpt lat="47.75859" lon="-3.1208">
        <ele>15.6</ele>
        <time>2020-06-06T16:13:34Z</time>
      </trkpt>
      <trkpt lat="47.75859" lon="-3.1208">
        <ele>15.6</ele>
        <time>2020-06-06T16:13:35Z</time>
      </trkpt>
      <trkpt lat="47.75859" lon="-3.1208">
        <ele>15.6</ele>
        <time>2020-06-06T16:13:36Z</time>
      </trkpt>
      <trkpt lat="47.75859" lon="-3.1208">
        <ele>15.6</ele>
        <time>2020-06-06T16:13:37Z</time>
      </trkpt>
      <trkpt lat="47.75859" lon="-3.12081">
        <ele>15.6</ele>
        <time>2020-06-06T16:13:38Z</time>
      </trkpt>
      <trkpt lat="47.75858" lon="-3.12082">
        <ele>15.6</ele>
        <time>2020-06-06T16:13:39Z</time>
      </trkpt>
      <trkpt lat="47.75858" lon="-3.12082">
        <ele>15.6</ele>
        <time>2020-06-06T16:13:40Z</time>
      </trkpt>
      <trkpt lat="47.75858" lon="-3.12082">
        <ele>15.6</ele>
        <time>2020-06-06T16:13:41Z</time>
      </trkpt>
      <trkpt lat="47.75857" lon="-3.12083">
        <ele>15.6</ele>
        <time>2020-06-06T16:13:42Z</time>
      </trkpt>
      <trkpt lat="47.75857" lon="-3.12084">
        <ele>15.6</ele>
        <time>2020-06-06T16:13:43Z</time>
      </trkpt>
      <trkpt lat="47.75857" lon="-3.12085">
        <ele>15.6</ele>
        <time>2020-06-06T16:13:44Z</time>
      </trkpt>
      <trkpt lat="47.75857" lon="-3.12086">
        <ele>15.5</ele>
        <time>2020-06-06T16:14:50Z</time>
      </trkpt>
      <trkpt lat="47.75857" lon="-3.12087">
        <ele>15.5</ele>
        <time>2020-06-06T16:14:51Z</time>
      </trkpt>
      <trkpt lat="47.75854" lon="-3.12089">
        <ele>15.4</ele>
        <time>2020-06-06T16:14:52Z</time>
      </trkpt>
      <trkpt lat="47.75851" lon="-3.12091">
        <ele>15.3</ele>
        <time>2020-06-06T16:14:53Z</time>
      </trkpt>
      <trkpt lat="47.75847" lon="-3.12094">
        <ele>15.1</ele>
        <time>2020-06-06T16:14:54Z</time>
      </trkpt>
      <trkpt lat="47.75842" lon="-3.12096">
        <ele>14.9</ele>
        <time>2020-06-06T16:14:55Z</time>
      </trkpt>
      <trkpt lat="47.75837" lon="-3.121">
        <ele>14.6</ele>
        <time>2020-06-06T16:14:56Z</time>
      </trkpt>
      <trkpt lat="47.75833" lon="-3.12103">
        <ele>14.3</ele>
        <time>2020-06-06T16:14:57Z</time>
      </trkpt>
      <trkpt lat="47.75827" lon="-3.12107">
        <ele>13.9</ele>
        <time>2020-06-06T16:14:58Z</time>
      </trkpt>
      <trkpt lat="47.75822" lon="-3.1211">
        <ele>13.5</ele>
        <time>2020-06-06T16:14:59Z</time>
      </trkpt>
      <trkpt lat="47.75816" lon="-3.12115">
        <ele>13.1</ele>
        <time>2020-06-06T16:15:00Z</time>
      </trkpt>
      <trkpt lat="47.75809" lon="-3.12119">
        <ele>12.6</ele>
        <time>2020-06-06T16:15:01Z</time>
      </trkpt>
      <trkpt lat="47.75803" lon="-3.12123">
        <ele>12.1</ele>
        <time>2020-06-06T16:15:02Z</time>
      </trkpt>
      <trkpt lat="47.75795" lon="-3.12127">
        <ele>11.6</ele>
        <time>2020-06-06T16:15:03Z</time>
      </trkpt>
      <trkpt lat="47.75788" lon="-3.12131">
        <ele>11.2</ele>
        <time>2020-06-06T16:15:04Z</time>
      </trkpt>
      <trkpt lat="47.75781" lon="-3.12136">
        <ele>10.7</ele>
        <time>2020-06-06T16:15:05Z</time>
      </trkpt>
      <trkpt lat="47.75775" lon="-3.12141">
        <ele>10.4</ele>
        <time>2020-06-06T16:15:06Z</time>
      </trkpt>
      <trkpt lat="47.7577" lon="-3.12144">
        <ele>10.1</ele>
        <time>2020-06-06T16:15:07Z</time>
      </trkpt>
      <trkpt lat="47.75768" lon="-3.12146">
        <ele>10</ele>
        <time>2020-06-06T16:15:08Z</time>
      </trkpt>
      <trkpt lat="47.75765" lon="-3.12148">
        <ele>9.9</ele>
        <time>2020-06-06T16:15:09Z</time>
      </trkpt>
      <trkpt lat="47.75764" lon="-3.12149">
        <ele>9.9</ele>
        <time>2020-06-06T16:15:10Z</time>
      </trkpt>
      <trkpt lat="47.7576" lon="-3.1215">
        <ele>9.7</ele>
        <time>2020-06-06T16:15:11Z</time>
      </trkpt>
      <trkpt lat="47.75759" lon="-3.12151">
        <ele>9.7</ele>
        <time>2020-06-06T16:15:12Z</time>
      </trkpt>
      <trkpt lat="47.75755" lon="-3.12157">
        <ele>9.5</ele>
        <time>2020-06-06T16:15:13Z</time>
      </trkpt>
      <trkpt lat="47.75753" lon="-3.12162">
        <ele>9.5</ele>
        <time>2020-06-06T16:15:14Z</time>
      </trkpt>
      <trkpt lat="47.75751" lon="-3.12167">
        <ele>9.6</ele>
        <time>2020-06-06T16:15:15Z</time>
      </trkpt>
      <trkpt lat="47.75748" lon="-3.12174">
        <ele>9.6</ele>
        <time>2020-06-06T16:15:16Z</time>
      </trkpt>
      <trkpt lat="47.75745" lon="-3.12177">
        <ele>9.6</ele>
        <time>2020-06-06T16:15:17Z</time>
      </trkpt>
      <trkpt lat="47.75743" lon="-3.12182">
        <ele>9.6</ele>
        <time>2020-06-06T16:15:18Z</time>
      </trkpt>
      <trkpt lat="47.75738" lon="-3.12186">
        <ele>9.6</ele>
        <time>2020-06-06T16:15:19Z</time>
      </trkpt>
      <trkpt lat="47.75736" lon="-3.12188">
        <ele>9.6</ele>
        <time>2020-06-06T16:15:20Z</time>
      </trkpt>
      <trkpt lat="47.75731" lon="-3.12192">
        <ele>9.6</ele>
        <time>2020-06-06T16:15:21Z</time>
      </trkpt>
      <trkpt lat="47.80209" lon="-3.58061">
        <ele>65.7</ele>
        <time>2020-06-06T18:59:53Z</time>
      </trkpt>
      <trkpt lat="47.80208" lon="-3.58061">
        <ele>65.7</ele>
        <time>2020-06-06T18:59:54Z</time>
      </trkpt>
      <trkpt lat="47.80182" lon="-3.58009">
        <ele>65.8</ele>
        <time>2020-06-06T18:59:56Z</time>
      </trkpt>
      <trkpt lat="47.80191" lon="-3.58014">
        <ele>65.8</ele>
        <time>2020-06-06T18:59:57Z</time>
      </trkpt>
      <trkpt lat="47.80193" lon="-3.58016">
        <ele>65.8</ele>
        <time>2020-06-06T18:59:58Z</time>
      </trkpt>
      <trkpt lat="47.80193" lon="-3.58016">
        <ele>65.8</ele>
        <time>2020-06-06T18:59:59Z</time>
      </trkpt>
      <trkpt lat="47.80193" lon="-3.5802">
        <ele>65.8</ele>
        <time>2020-06-06T19:00:00Z</time>
      </trkpt>
      <trkpt lat="47.80191" lon="-3.58026">
        <ele>65.8</ele>
        <time>2020-06-06T19:00:01Z</time>
      </trkpt>
      <trkpt lat="47.80191" lon="-3.58025">
        <ele>65.8</ele>
        <time>2020-06-06T19:00:02Z</time>
      </trkpt>
      <trkpt lat="47.80191" lon="-3.58023">
        <ele>65.8</ele>
        <time>2020-06-06T19:00:04Z</time>
      </trkpt>
      <trkpt lat="47.80189" lon="-3.58019">
        <ele>65.8</ele>
        <time>2020-06-06T19:00:13Z</time>
      </trkpt>
      <trkpt lat="47.8019" lon="-3.58019">
        <ele>65.8</ele>
        <time>2020-06-06T19:00:14Z</time>
      </trkpt>
      <trkpt lat="47.8019" lon="-3.58019">
        <ele>65.8</ele>
        <time>2020-06-06T19:00:15Z</time>
      </trkpt>
    </trkseg>
  </trk>
  <trk>
    <name><![CDATA[Jour 1 - Poitiers / Saint Maixent]]></name>
    <trkseg>
      <trkpt lat="46.56812" lon="0.3553">
        <ele>117.3</ele>
        <time>2020-05-30T16:05:25Z</time>
      </trkpt>
      <trkpt lat="46.56816" lon="0.3553">
        <ele>117.3</ele>
        <time>2020-05-30T16:05:26Z</time>
      </trkpt>
      <trkpt lat="46.56816" lon="0.35531">
        <ele>117.3</ele>
        <time>2020-05-30T16:05:27Z</time>
      </trkpt>
      <trkpt lat="46.56815" lon="0.35529">
        <ele>117.3</ele>
        <time>2020-05-30T16:05:28Z</time>
      </trkpt>
      <trkpt lat="46.56815" lon="0.3553">
        <ele>117.3</ele>
        <time>2020-05-30T16:05:29Z</time>
      </trkpt>
      <trkpt lat="46.56815" lon="0.3553">
        <ele>117.3</ele>
        <time>2020-05-30T16:05:30Z</time>
      </trkpt>
      <trkpt lat="46.56816" lon="0.3553">
        <ele>117.3</ele>
        <time>2020-05-30T16:05:31Z</time>
      </trkpt>
      <trkpt lat="46.56817" lon="0.35531">
        <ele>117.3</ele>
        <time>2020-05-30T16:05:32Z</time>
      </trkpt>
      <trkpt lat="46.56816" lon="0.35531">
        <ele>117.3</ele>
        <time>2020-05-30T16:05:33Z</time>
      </trkpt>
      <trkpt lat="46.56816" lon="0.35531">
        <ele>117.3</ele>
        <time>2020-05-30T16:05:34Z</time>
      </trkpt>
      <trkpt lat="46.56815" lon="0.3553">
        <ele>117.3</ele>
        <time>2020-05-30T16:05:35Z</time>
      </trkpt>
      <trkpt lat="46.56815" lon="0.3553">
        <ele>117.3</ele>
        <time>2020-05-30T16:05:37Z</time>
      </trkpt>
      <trkpt lat="46.56814" lon="0.3553">
        <ele>117.3</ele>
        <time>2020-05-30T16:05:38Z</time>
      </trkpt>
      <trkpt lat="46.56814" lon="0.35531">
        <ele>117.3</ele>
        <time>2020-05-30T16:05:39Z</time>
      </trkpt>
      <trkpt lat="46.56814" lon="0.35531">
        <ele>117.3</ele>
        <time>2020-05-30T16:05:40Z</time>
      </trkpt>
      <trkpt lat="46.56813" lon="0.35531">
        <ele>117.3</ele>
        <time>2020-05-30T16:05:41Z</time>
      </trkpt>
      <trkpt lat="46.56813" lon="0.35531">
        <ele>117.3</ele>
        <time>2020-05-30T16:05:42Z</time>
      </trkpt>
      <trkpt lat="46.56812" lon="0.3553">
        <ele>117.3</ele>
        <time>2020-05-30T16:05:43Z</time>
      </trkpt>
      <trkpt lat="46.56813" lon="0.35531">
        <ele>117.3</ele>
        <time>2020-05-30T16:05:44Z</time>
      </trkpt>
      <trkpt lat="46.56813" lon="0.35529">
        <ele>117.3</ele>
        <time>2020-05-30T16:05:45Z</time>
      </trkpt>
      <trkpt lat="46.56814" lon="0.35527">
        <ele>117.3</ele>
        <time>2020-05-30T16:05:46Z</time>
      </trkpt>
      <trkpt lat="46.56814" lon="0.35523">
        <ele>117.3</ele>
        <time>2020-05-30T16:05:47Z</time>
      </trkpt>
      <trkpt lat="46.56817" lon="0.35522">
        <ele>117.3</ele>
        <time>2020-05-30T16:05:48Z</time>
      </trkpt>
      <trkpt lat="46.56818" lon="0.35523">
        <ele>117.3</ele>
        <time>2020-05-30T16:05:49Z</time>
      </trkpt>
      <trkpt lat="46.56821" lon="0.35522">
        <ele>117.3</ele>
        <time>2020-05-30T16:05:50Z</time>
      </trkpt>
      <trkpt lat="46.56823" lon="0.35521">
        <ele>117.3</ele>
        <time>2020-05-30T16:05:51Z</time>
      </trkpt>
      <trkpt lat="46.56824" lon="0.35516">
        <ele>117.3</ele>
        <time>2020-05-30T16:05:52Z</time>
      </trkpt>
      <trkpt lat="46.56827" lon="0.35512">
        <ele>117.3</ele>
        <time>2020-05-30T16:05:53Z</time>
      </trkpt>
      <trkpt lat="46.56829" lon="0.35505">
        <ele>117.3</ele>
        <time>2020-05-30T16:05:54Z</time>
      </trkpt>
      <trkpt lat="46.56832" lon="0.35498">
        <ele>117.2</ele>
        <time>2020-05-30T16:05:55Z</time>
      </trkpt>
      <trkpt lat="46.56836" lon="0.35491">
        <ele>117.2</ele>
        <time>2020-05-30T16:05:56Z</time>
      </trkpt>
      <trkpt lat="46.5684" lon="0.35485">
        <ele>117.2</ele>
        <time>2020-05-30T16:05:57Z</time>
      </trkpt>
      <trkpt lat="46.56845" lon="0.35477">
        <ele>117.1</ele>
        <time>2020-05-30T16:05:58Z</time>
      </trkpt>
      <trkpt lat="46.5685" lon="0.35471">
        <ele>117.1</ele>
        <time>2020-05-30T16:05:59Z</time>
      </trkpt>
      <trkpt lat="46.56854" lon="0.35464">
        <ele>117</ele>
        <time>2020-05-30T16:06:00Z</time>
      </trkpt>
      <trkpt lat="46.56858" lon="0.35456">
        <ele>117</ele>
        <time>2020-05-30T16:06:01Z</time>
      </trkpt>
      <trkpt lat="46.56862" lon="0.35449">
        <ele>116.9</ele>
        <time>2020-05-30T16:06:02Z</time>
      </trkpt>
      <trkpt lat="46.56866" lon="0.35442">
        <ele>116.9</ele>
        <time>2020-05-30T16:06:03Z</time>
      </trkpt>
      <trkpt lat="46.56871" lon="0.35435">
        <ele>116.8</ele>
        <time>2020-05-30T16:06:04Z</time>
      </trkpt>
      <trkpt lat="46.56876" lon="0.35429">
        <ele>116.8</ele>
        <time>2020-05-30T16:06:05Z</time>
      </trkpt>
      <trkpt lat="46.5688" lon="0.35425">
        <ele>116.8</ele>
        <time>2020-05-30T16:06:06Z</time>
      </trkpt>
      <trkpt lat="46.56884" lon="0.3542">
        <ele>116.7</ele>
        <time>2020-05-30T16:06:07Z</time>
      </trkpt>
      <trkpt lat="46.56888" lon="0.35415">
        <ele>116.7</ele>
        <time>2020-05-30T16:06:08Z</time>
      </trkpt>
      <trkpt lat="46.56893" lon="0.3541">
        <ele>116.7</ele>
        <time>2020-05-30T16:06:09Z</time>
      </trkpt>
      <trkpt lat="46.56896" lon="0.35405">
        <ele>116.7</ele>
        <time>2020-05-30T16:06:10Z</time>
      </trkpt>
      <trkpt lat="46.56902" lon="0.35402">
        <ele>116.7</ele>
        <time>2020-05-30T16:06:11Z</time>
      </trkpt>
      <trkpt lat="46.56906" lon="0.35397">
        <ele>116.7</ele>
        <time>2020-05-30T16:06:12Z</time>
      </trkpt>
      <trkpt lat="46.5691" lon="0.35391">
        <ele>116.7</ele>
        <time>2020-05-30T16:06:13Z</time>
      </trkpt>
      <trkpt lat="46.56912" lon="0.35385">
        <ele>116.7</ele>
        <time>2020-05-30T16:06:14Z</time>
      </trkpt>
      <trkpt lat="46.56916" lon="0.35378">
        <ele>116.7</ele>
        <time>2020-05-30T16:06:15Z</time>
      </trkpt>
      <trkpt lat="46.56919" lon="0.35372">
        <ele>116.8</ele>
        <time>2020-05-30T16:06:16Z</time>
      </trkpt>
      <trkpt lat="46.56922" lon="0.35365">
        <ele>116.8</ele>
        <time>2020-05-30T16:06:17Z</time>
      </trkpt>
      <trkpt lat="46.56925" lon="0.35359">
        <ele>116.8</ele>
        <time>2020-05-30T16:06:18Z</time>
      </trkpt>
      <trkpt lat="46.56929" lon="0.35352">
        <ele>116.8</ele>
        <time>2020-05-30T16:06:19Z</time>
      </trkpt>
      <trkpt lat="46.56932" lon="0.35345">
        <ele>116.8</ele>
        <time>2020-05-30T16:06:20Z</time>
      </trkpt>
      <trkpt lat="46.56938" lon="0.3533">
        <ele>116.9</ele>
        <time>2020-05-30T16:06:21Z</time>
      </trkpt>
      <trkpt lat="46.56942" lon="0.35324">
        <ele>116.9</ele>
        <time>2020-05-30T16:06:22Z</time>
      </trkpt>
      <trkpt lat="46.56945" lon="0.35316">
        <ele>117</ele>
        <time>2020-05-30T16:06:23Z</time>
      </trkpt>
      <trkpt lat="46.5695" lon="0.35309">
        <ele>117</ele>
        <time>2020-05-30T16:06:24Z</time>
      </trkpt>
      <trkpt lat="46.56954" lon="0.35302">
        <ele>117</ele>
        <time>2020-05-30T16:06:25Z</time>
      </trkpt>
      <trkpt lat="46.56957" lon="0.35295">
        <ele>117</ele>
        <time>2020-05-30T16:06:26Z</time>
      </trkpt>
      <trkpt lat="46.56961" lon="0.35287">
        <ele>117.1</ele>
        <time>2020-05-30T16:06:27Z</time>
      </trkpt>
      <trkpt lat="46.56965" lon="0.35281">
        <ele>117.1</ele>
        <time>2020-05-30T16:06:28Z</time>
      </trkpt>
      <trkpt lat="46.56968" lon="0.35274">
        <ele>117.1</ele>
        <time>2020-05-30T16:06:29Z</time>
      </trkpt>
      <trkpt lat="46.56972" lon="0.35268">
        <ele>117.2</ele>
        <time>2020-05-30T16:06:30Z</time>
      </trkpt>
      <trkpt lat="46.56975" lon="0.35262">
        <ele>117.2</ele>
        <time>2020-05-30T16:06:31Z</time>
      </trkpt>
      <trkpt lat="46.56978" lon="0.35255">
        <ele>117.2</ele>
        <time>2020-05-30T16:06:32Z</time>
      </trkpt>
      <trkpt lat="46.56982" lon="0.35249">
        <ele>117.3</ele>
        <time>2020-05-30T16:06:33Z</time>
      </trkpt>
      <trkpt lat="46.56985" lon="0.35242">
        <ele>117.3</ele>
        <time>2020-05-30T16:06:34Z</time>
      </trkpt>
      <trkpt lat="46.56988" lon="0.35236">
        <ele>117.4</ele>
        <time>2020-05-30T16:06:35Z</time>
      </trkpt>
      <trkpt lat="46.56992" lon="0.35229">
        <ele>117.4</ele>
        <time>2020-05-30T16:06:36Z</time>
      </trkpt>
      <trkpt lat="46.56995" lon="0.35222">
        <ele>117.4</ele>
        <time>2020-05-30T16:06:37Z</time>
      </trkpt>
      <trkpt lat="46.56998" lon="0.35215">
        <ele>117.4</ele>
        <time>2020-05-30T16:06:38Z</time>
      </trkpt>
      <trkpt lat="46.57001" lon="0.3521">
        <ele>117.4</ele>
        <time>2020-05-30T16:06:39Z</time>
      </trkpt>
      <trkpt lat="46.57005" lon="0.35207">
        <ele>117.4</ele>
        <time>2020-05-30T16:06:40Z</time>
      </trkpt>
      <trkpt lat="46.57008" lon="0.352">
        <ele>117.5</ele>
        <time>2020-05-30T16:06:41Z</time>
      </trkpt>
      <trkpt lat="46.57011" lon="0.35195">
        <ele>117.5</ele>
        <time>2020-05-30T16:06:42Z</time>
      </trkpt>
      <trkpt lat="46.57014" lon="0.35189">
        <ele>117.5</ele>
        <time>2020-05-30T16:06:43Z</time>
      </trkpt>
      <trkpt lat="46.57017" lon="0.35184">
        <ele>117.5</ele>
        <time>2020-05-30T16:06:44Z</time>
      </trkpt>
      <trkpt lat="46.57022" lon="0.35177">
        <ele>117.6</ele>
        <time>2020-05-30T16:06:45Z</time>
      </trkpt>
      <trkpt lat="46.57026" lon="0.35171">
        <ele>117.6</ele>
        <time>2020-05-30T16:06:46Z</time>
      </trkpt>
      <trkpt lat="46.5703" lon="0.35164">
        <ele>117.6</ele>
        <time>2020-05-30T16:06:47Z</time>
      </trkpt>
      <trkpt lat="46.57033" lon="0.35157">
        <ele>117.6</ele>
        <time>2020-05-30T16:06:48Z</time>
      </trkpt>
      <trkpt lat="46.57037" lon="0.35153">
        <ele>117.6</ele>
        <time>2020-05-30T16:06:49Z</time>
      </trkpt>
      <trkpt lat="46.5704" lon="0.35146">
        <ele>117.6</ele>
        <time>2020-05-30T16:06:50Z</time>
      </trkpt>
      <trkpt lat="46.57043" lon="0.3514">
        <ele>117.6</ele>
        <time>2020-05-30T16:06:51Z</time>
      </trkpt>
      <trkpt lat="46.57046" lon="0.35133">
        <ele>117.6</ele>
        <time>2020-05-30T16:06:52Z</time>
      </trkpt>
      <trkpt lat="46.57049" lon="0.35125">
        <ele>117.6</ele>
        <time>2020-05-30T16:06:53Z</time>
      </trkpt>
      <trkpt lat="46.57051" lon="0.35119">
        <ele>117.7</ele>
        <time>2020-05-30T16:06:54Z</time>
      </trkpt>
      <trkpt lat="46.57054" lon="0.35113">
        <ele>117.7</ele>
        <time>2020-05-30T16:06:55Z</time>
      </trkpt>
      <trkpt lat="46.57057" lon="0.35107">
        <ele>117.7</ele>
        <time>2020-05-30T16:06:56Z</time>
      </trkpt>
      <trkpt lat="46.5706" lon="0.351">
        <ele>117.7</ele>
        <time>2020-05-30T16:06:57Z</time>
      </trkpt>
      <trkpt lat="46.57065" lon="0.35094">
        <ele>117.7</ele>
        <time>2020-05-30T16:06:58Z</time>
      </trkpt>
      <trkpt lat="46.57069" lon="0.35089">
        <ele>117.7</ele>
        <time>2020-05-30T16:06:59Z</time>
      </trkpt>
      <trkpt lat="46.57073" lon="0.35083">
        <ele>117.7</ele>
        <time>2020-05-30T16:07:00Z</time>
      </trkpt>
      <trkpt lat="46.57076" lon="0.35075">
        <ele>117.8</ele>
        <time>2020-05-30T16:07:01Z</time>
      </trkpt>
      <trkpt lat="46.57079" lon="0.35069">
        <ele>117.8</ele>
        <time>2020-05-30T16:07:02Z</time>
      </trkpt>
      <trkpt lat="46.5708" lon="0.35062">
        <ele>117.8</ele>
        <time>2020-05-30T16:07:03Z</time>
      </trkpt>
      <trkpt lat="46.57082" lon="0.35054">
        <ele>117.8</ele>
        <time>2020-05-30T16:07:04Z</time>
      </trkpt>
      <trkpt lat="46.57082" lon="0.35046">
        <ele>117.9</ele>
        <time>2020-05-30T16:07:05Z</time>
      </trkpt>
      <trkpt lat="46.57083" lon="0.35039">
        <ele>117.9</ele>
        <time>2020-05-30T16:07:06Z</time>
      </trkpt>
      <trkpt lat="46.57084" lon="0.35031">
        <ele>117.9</ele>
        <time>2020-05-30T16:07:07Z</time>
      </trkpt>
      <trkpt lat="46.57085" lon="0.35025">
        <ele>117.9</ele>
        <time>2020-05-30T16:07:08Z</time>
      </trkpt>
      <trkpt lat="46.57085" lon="0.35017">
        <ele>117.9</ele>
        <time>2020-05-30T16:07:09Z</time>
      </trkpt>
      <trkpt lat="46.57084" lon="0.3501">
        <ele>117.9</ele>
        <time>2020-05-30T16:07:10Z</time>
      </trkpt>
      <trkpt lat="46.57084" lon="0.35003">
        <ele>117.9</ele>
        <time>2020-05-30T16:07:11Z</time>
      </trkpt>
      <trkpt lat="46.57083" lon="0.34995">
        <ele>118</ele>
        <time>2020-05-30T16:07:12Z</time>
      </trkpt>
      <trkpt lat="46.57083" lon="0.34989">
        <ele>118</ele>
        <time>2020-05-30T16:07:13Z</time>
      </trkpt>
      <trkpt lat="46.57079" lon="0.34984">
        <ele>118</ele>
        <time>2020-05-30T16:07:14Z</time>
      </trkpt>
      <trkpt lat="46.57078" lon="0.34977">
        <ele>118</ele>
        <time>2020-05-30T16:07:15Z</time>
      </trkpt>
      <trkpt lat="46.57078" lon="0.3497">
        <ele>117.9</ele>
        <time>2020-05-30T16:07:16Z</time>
      </trkpt>
      <trkpt lat="46.5708" lon="0.34963">
        <ele>117.9</ele>
        <time>2020-05-30T16:07:17Z</time>
      </trkpt>
      <trkpt lat="46.57081" lon="0.34956">
        <ele>117.8</ele>
        <time>2020-05-30T16:07:18Z</time>
      </trkpt>
      <trkpt lat="46.57085" lon="0.34953">
        <ele>117.7</ele>
        <time>2020-05-30T16:07:19Z</time>
      </trkpt>
      <trkpt lat="46.57089" lon="0.3495">
        <ele>117.6</ele>
        <time>2020-05-30T16:07:20Z</time>
      </trkpt>
      <trkpt lat="46.57095" lon="0.34945">
        <ele>117.5</ele>
        <time>2020-05-30T16:07:21Z</time>
      </trkpt>
      <trkpt lat="46.57099" lon="0.34941">
        <ele>117.3</ele>
        <time>2020-05-30T16:07:22Z</time>
      </trkpt>
      <trkpt lat="46.57103" lon="0.34936">
        <ele>117.2</ele>
        <time>2020-05-30T16:07:23Z</time>
      </trkpt>
      <trkpt lat="46.57107" lon="0.34933">
        <ele>117.1</ele>
        <time>2020-05-30T16:07:24Z</time>
      </trkpt>
      <trkpt lat="46.57112" lon="0.34928">
        <ele>117</ele>
        <time>2020-05-30T16:07:25Z</time>
      </trkpt>
      <trkpt lat="46.57117" lon="0.34925">
        <ele>116.9</ele>
        <time>2020-05-30T16:07:26Z</time>
      </trkpt>
      <trkpt lat="46.57121" lon="0.34922">
        <ele>116.8</ele>
        <time>2020-05-30T16:07:27Z</time>
      </trkpt>
      <trkpt lat="46.57125" lon="0.34919">
        <ele>116.7</ele>
        <time>2020-05-30T16:07:28Z</time>
      </trkpt>
      <trkpt lat="46.5713" lon="0.34914">
        <ele>116.6</ele>
        <time>2020-05-30T16:07:29Z</time>
      </trkpt>
      <trkpt lat="46.57134" lon="0.34911">
        <ele>116.6</ele>
        <time>2020-05-30T16:07:30Z</time>
      </trkpt>
      <trkpt lat="46.57138" lon="0.34907">
        <ele>116.6</ele>
        <time>2020-05-30T16:07:31Z</time>
      </trkpt>
      <trkpt lat="46.57142" lon="0.34903">
        <ele>116.6</ele>
        <time>2020-05-30T16:07:32Z</time>
      </trkpt>
      <trkpt lat="46.57146" lon="0.34898">
        <ele>116.6</ele>
        <time>2020-05-30T16:07:33Z</time>
      </trkpt>
      <trkpt lat="46.57149" lon="0.34893">
        <ele>116.5</ele>
        <time>2020-05-30T16:07:34Z</time>
      </trkpt>
      <trkpt lat="46.57155" lon="0.34892">
        <ele>116.4</ele>
        <time>2020-05-30T16:07:35Z</time>
      </trkpt>
      <trkpt lat="46.5716" lon="0.34891">
        <ele>116.2</ele>
        <time>2020-05-30T16:07:36Z</time>
      </trkpt>
      <trkpt lat="46.57166" lon="0.3489">
        <ele>116</ele>
        <time>2020-05-30T16:07:37Z</time>
      </trkpt>
      <trkpt lat="46.57172" lon="0.34888">
        <ele>115.8</ele>
        <time>2020-05-30T16:07:38Z</time>
      </trkpt>
      <trkpt lat="46.57179" lon="0.34886">
        <ele>115.6</ele>
        <time>2020-05-30T16:07:39Z</time>
      </trkpt>
      <trkpt lat="46.57185" lon="0.34881">
        <ele>115.3</ele>
        <time>2020-05-30T16:07:40Z</time>
      </trkpt>
      <trkpt lat="46.5719" lon="0.34877">
        <ele>115.1</ele>
        <time>2020-05-30T16:07:41Z</time>
      </trkpt>
      <trkpt lat="46.57196" lon="0.34873">
        <ele>114.9</ele>
        <time>2020-05-30T16:07:42Z</time>
      </trkpt>
      <trkpt lat="46.57201" lon="0.34869">
        <ele>114.7</ele>
        <time>2020-05-30T16:07:43Z</time>
      </trkpt>
      <trkpt lat="46.57206" lon="0.34863">
        <ele>114.4</ele>
        <time>2020-05-30T16:07:44Z</time>
      </trkpt>
      <trkpt lat="46.57212" lon="0.34857">
        <ele>114.1</ele>
        <time>2020-05-30T16:07:45Z</time>
      </trkpt>
      <trkpt lat="46.57217" lon="0.34852">
        <ele>113.8</ele>
        <time>2020-05-30T16:07:46Z</time>
      </trkpt>
      <trkpt lat="46.57221" lon="0.34846">
        <ele>113.5</ele>
        <time>2020-05-30T16:07:47Z</time>
      </trkpt>
      <trkpt lat="46.57228" lon="0.34838">
        <ele>113.1</ele>
        <time>2020-05-30T16:07:48Z</time>
      </trkpt>
      <trkpt lat="46.57233" lon="0.34831">
        <ele>112.7</ele>
        <time>2020-05-30T16:07:49Z</time>
      </trkpt>
      <trkpt lat="46.57238" lon="0.34825">
        <ele>112.4</ele>
        <time>2020-05-30T16:07:50Z</time>
      </trkpt>
      <trkpt lat="46.57244" lon="0.3482">
        <ele>112</ele>
        <time>2020-05-30T16:07:51Z</time>
      </trkpt>
      <trkpt lat="46.57249" lon="0.34816">
        <ele>111.5</ele>
        <time>2020-05-30T16:07:52Z</time>
      </trkpt>
      <trkpt lat="46.57254" lon="0.34811">
        <ele>110.9</ele>
        <time>2020-05-30T16:07:53Z</time>
      </trkpt>
      <trkpt lat="46.57258" lon="0.34808">
        <ele>110.5</ele>
        <time>2020-05-30T16:07:54Z</time>
      </trkpt>
      <trkpt lat="46.57264" lon="0.34805">
        <ele>110</ele>
        <time>2020-05-30T16:07:55Z</time>
      </trkpt>
      <trkpt lat="46.5727" lon="0.34802">
        <ele>109.5</ele>
        <time>2020-05-30T16:07:56Z</time>
      </trkpt>
      <trkpt lat="46.57275" lon="0.34798">
        <ele>108.7</ele>
        <time>2020-05-30T16:07:57Z</time>
      </trkpt>
      <trkpt lat="46.57281" lon="0.34795">
        <ele>108</ele>
        <time>2020-05-30T16:07:58Z</time>
      </trkpt>
      <trkpt lat="46.57286" lon="0.3479">
        <ele>107.2</ele>
        <time>2020-05-30T16:07:59Z</time>
      </trkpt>
      <trkpt lat="46.5729" lon="0.34785">
        <ele>106.4</ele>
        <time>2020-05-30T16:08:00Z</time>
      </trkpt>
      <trkpt lat="46.57294" lon="0.34781">
        <ele>105.6</ele>
        <time>2020-05-30T16:08:01Z</time>
      </trkpt>
      <trkpt lat="46.57298" lon="0.34777">
        <ele>104.7</ele>
        <time>2020-05-30T16:08:02Z</time>
      </trkpt>
      <trkpt lat="46.57302" lon="0.34773">
        <ele>103.8</ele>
        <time>2020-05-30T16:08:03Z</time>
      </trkpt>
      <trkpt lat="46.57306" lon="0.3477">
        <ele>103</ele>
        <time>2020-05-30T16:08:04Z</time>
      </trkpt>
      <trkpt lat="46.57311" lon="0.34765">
        <ele>102</ele>
        <time>2020-05-30T16:08:05Z</time>
      </trkpt>
      <trkpt lat="46.57315" lon="0.34758">
        <ele>100.8</ele>
        <time>2020-05-30T16:08:06Z</time>
      </trkpt>
      <trkpt lat="46.57317" lon="0.34752">
        <ele>99.8</ele>
        <time>2020-05-30T16:08:07Z</time>
      </trkpt>
      <trkpt lat="46.57318" lon="0.34744">
        <ele>98.9</ele>
        <time>2020-05-30T16:08:08Z</time>
      </trkpt>
      <trkpt lat="46.57318" lon="0.34738">
        <ele>98.1</ele>
        <time>2020-05-30T16:08:09Z</time>
      </trkpt>
      <trkpt lat="46.57318" lon="0.34731">
        <ele>97.2</ele>
        <time>2020-05-30T16:08:10Z</time>
      </trkpt>
      <trkpt lat="46.57317" lon="0.34724">
        <ele>96.3</ele>
        <time>2020-05-30T16:08:11Z</time>
      </trkpt>
      <trkpt lat="46.57316" lon="0.34717">
        <ele>95.5</ele>
        <time>2020-05-30T16:08:12Z</time>
      </trkpt>
      <trkpt lat="46.57315" lon="0.3471">
        <ele>94.8</ele>
        <time>2020-05-30T16:08:13Z</time>
      </trkpt>
      <trkpt lat="46.57314" lon="0.34705">
        <ele>94.1</ele>
        <time>2020-05-30T16:08:14Z</time>
      </trkpt>
      <trkpt lat="46.57314" lon="0.34699">
        <ele>93.5</ele>
        <time>2020-05-30T16:08:15Z</time>
      </trkpt>
      <trkpt lat="46.57313" lon="0.3469">
        <ele>92.4</ele>
        <time>2020-05-30T16:08:16Z</time>
      </trkpt>
      <trkpt lat="46.57311" lon="0.34683">
        <ele>91.6</ele>
        <time>2020-05-30T16:08:17Z</time>
      </trkpt>
      <trkpt lat="46.5731" lon="0.34678">
        <ele>90.9</ele>
        <time>2020-05-30T16:08:18Z</time>
      </trkpt>
      <trkpt lat="46.57309" lon="0.34672">
        <ele>90.1</ele>
        <time>2020-05-30T16:08:19Z</time>
      </trkpt>
      <trkpt lat="46.57308" lon="0.34664">
        <ele>89.3</ele>
        <time>2020-05-30T16:08:20Z</time>
      </trkpt>
      <trkpt lat="46.57308" lon="0.3466">
        <ele>88.8</ele>
        <time>2020-05-30T16:08:21Z</time>
      </trkpt>
      <trkpt lat="46.57309" lon="0.34655">
        <ele>88.4</ele>
        <time>2020-05-30T16:08:22Z</time>
      </trkpt>
      <trkpt lat="46.57309" lon="0.34651">
        <ele>88</ele>
        <time>2020-05-30T16:08:23Z</time>
      </trkpt>
      <trkpt lat="46.5731" lon="0.34645">
        <ele>87.6</ele>
        <time>2020-05-30T16:08:24Z</time>
      </trkpt>
      <trkpt lat="46.57312" lon="0.34641">
        <ele>87.3</ele>
        <time>2020-05-30T16:08:25Z</time>
      </trkpt>
      <trkpt lat="46.57315" lon="0.3464">
        <ele>87</ele>
        <time>2020-05-30T16:08:26Z</time>
      </trkpt>
      <trkpt lat="46.57321" lon="0.34638">
        <ele>86.5</ele>
        <time>2020-05-30T16:08:27Z</time>
      </trkpt>
      <trkpt lat="46.57328" lon="0.34635">
        <ele>85.9</ele>
        <time>2020-05-30T16:08:28Z</time>
      </trkpt>
      <trkpt lat="46.57337" lon="0.34632">
        <ele>85</ele>
        <time>2020-05-30T16:08:29Z</time>
      </trkpt>
      <trkpt lat="46.57345" lon="0.34628">
        <ele>84.3</ele>
        <time>2020-05-30T16:08:30Z</time>
      </trkpt>
      <trkpt lat="46.57351" lon="0.34623">
        <ele>83.7</ele>
        <time>2020-05-30T16:08:31Z</time>
      </trkpt>
      <trkpt lat="46.57361" lon="0.34623">
        <ele>82.8</ele>
        <time>2020-05-30T16:08:32Z</time>
      </trkpt>
      <trkpt lat="46.57368" lon="0.34623">
        <ele>82.2</ele>
        <time>2020-05-30T16:08:33Z</time>
      </trkpt>
      <trkpt lat="46.57374" lon="0.34625">
        <ele>81.7</ele>
        <time>2020-05-30T16:08:34Z</time>
      </trkpt>
      <trkpt lat="46.57382" lon="0.34631">
        <ele>80.9</ele>
        <time>2020-05-30T16:08:35Z</time>
      </trkpt>
      <trkpt lat="46.57388" lon="0.34638">
        <ele>80.4</ele>
        <time>2020-05-30T16:08:36Z</time>
      </trkpt>
      <trkpt lat="46.57397" lon="0.34647">
        <ele>79.8</ele>
        <time>2020-05-30T16:08:37Z</time>
      </trkpt>
      <trkpt lat="46.57406" lon="0.34656">
        <ele>79.3</ele>
        <time>2020-05-30T16:08:38Z</time>
      </trkpt>
      <trkpt lat="46.57413" lon="0.34663">
        <ele>78.9</ele>
        <time>2020-05-30T16:08:39Z</time>
      </trkpt>
      <trkpt lat="46.57421" lon="0.34663">
        <ele>78.6</ele>
        <time>2020-05-30T16:08:40Z</time>
      </trkpt>
      <trkpt lat="46.57427" lon="0.34661">
        <ele>78.2</ele>
        <time>2020-05-30T16:08:41Z</time>
      </trkpt>
      <trkpt lat="46.57433" lon="0.34659">
        <ele>77.9</ele>
        <time>2020-05-30T16:08:42Z</time>
      </trkpt>
      <trkpt lat="46.57438" lon="0.34657">
        <ele>77.6</ele>
        <time>2020-05-30T16:08:43Z</time>
      </trkpt>
      <trkpt lat="46.57444" lon="0.34656">
        <ele>77.3</ele>
        <time>2020-05-30T16:08:44Z</time>
      </trkpt>
      <trkpt lat="46.57449" lon="0.34652">
        <ele>77</ele>
        <time>2020-05-30T16:08:45Z</time>
      </trkpt>
      <trkpt lat="46.57454" lon="0.34649">
        <ele>76.8</ele>
        <time>2020-05-30T16:08:46Z</time>
      </trkpt>
      <trkpt lat="46.5746" lon="0.34643">
        <ele>76.5</ele>
        <time>2020-05-30T16:08:47Z</time>
      </trkpt>
      <trkpt lat="46.57465" lon="0.34639">
        <ele>76.4</ele>
        <time>2020-05-30T16:08:48Z</time>
      </trkpt>
      <trkpt lat="46.57471" lon="0.34635">
        <ele>76.4</ele>
        <time>2020-05-30T16:08:49Z</time>
      </trkpt>
      <trkpt lat="46.57477" lon="0.34631">
        <ele>76.4</ele>
        <time>2020-05-30T16:08:50Z</time>
      </trkpt>
      <trkpt lat="46.57482" lon="0.34626">
        <ele>76.3</ele>
        <time>2020-05-30T16:08:51Z</time>
      </trkpt>
      <trkpt lat="46.57487" lon="0.34622">
        <ele>76.1</ele>
        <time>2020-05-30T16:08:52Z</time>
      </trkpt>
      <trkpt lat="46.57494" lon="0.34619">
        <ele>76</ele>
        <time>2020-05-30T16:08:53Z</time>
      </trkpt>
      <trkpt lat="46.575" lon="0.34615">
        <ele>75.8</ele>
        <time>2020-05-30T16:08:54Z</time>
      </trkpt>
      <trkpt lat="46.57505" lon="0.3461">
        <ele>75.7</ele>
        <time>2020-05-30T16:08:55Z</time>
      </trkpt>
      <trkpt lat="46.57511" lon="0.34605">
        <ele>75.7</ele>
        <time>2020-05-30T16:08:56Z</time>
      </trkpt>
      <trkpt lat="46.57516" lon="0.346">
        <ele>75.7</ele>
        <time>2020-05-30T16:08:57Z</time>
      </trkpt>
      <trkpt lat="46.57522" lon="0.34597">
        <ele>75.7</ele>
        <time>2020-05-30T16:08:58Z</time>
      </trkpt>
      <trkpt lat="46.57528" lon="0.34594">
        <ele>75.7</ele>
        <time>2020-05-30T16:08:59Z</time>
      </trkpt>
      <trkpt lat="46.57534" lon="0.3459">
        <ele>75.7</ele>
        <time>2020-05-30T16:09:00Z</time>
      </trkpt>
      <trkpt lat="46.5754" lon="0.34585">
        <ele>75.7</ele>
        <time>2020-05-30T16:09:01Z</time>
      </trkpt>
      <trkpt lat="46.57546" lon="0.34581">
        <ele>75.7</ele>
        <time>2020-05-30T16:09:02Z</time>
      </trkpt>
      <trkpt lat="46.57551" lon="0.34576">
        <ele>75.7</ele>
        <time>2020-05-30T16:09:03Z</time>
      </trkpt>
      <trkpt lat="46.57557" lon="0.34572">
        <ele>75.8</ele>
        <time>2020-05-30T16:09:04Z</time>
      </trkpt>
      <trkpt lat="46.57564" lon="0.34569">
        <ele>75.8</ele>
        <time>2020-05-30T16:09:05Z</time>
      </trkpt>
      <trkpt lat="46.5757" lon="0.34566">
        <ele>75.9</ele>
        <time>2020-05-30T16:09:06Z</time>
      </trkpt>
      <trkpt lat="46.57576" lon="0.34562">
        <ele>76</ele>
        <time>2020-05-30T16:09:07Z</time>
      </trkpt>
      <trkpt lat="46.57582" lon="0.34559">
        <ele>76</ele>
        <time>2020-05-30T16:09:08Z</time>
      </trkpt>
      <trkpt lat="46.57588" lon="0.34555">
        <ele>76.1</ele>
        <time>2020-05-30T16:09:09Z</time>
      </trkpt>
      <trkpt lat="46.57594" lon="0.34552">
        <ele>76.1</ele>
        <time>2020-05-30T16:09:10Z</time>
      </trkpt>
      <trkpt lat="46.576" lon="0.34549">
        <ele>76</ele>
        <time>2020-05-30T16:09:11Z</time>
      </trkpt>
      <trkpt lat="46.57606" lon="0.34547">
        <ele>76</ele>
        <time>2020-05-30T16:09:12Z</time>
      </trkpt>
      <trkpt lat="46.57611" lon="0.34544">
        <ele>75.9</ele>
        <time>2020-05-30T16:09:13Z</time>
      </trkpt>
      <trkpt lat="46.57616" lon="0.34541">
        <ele>76</ele>
        <time>2020-05-30T16:09:14Z</time>
      </trkpt>
      <trkpt lat="46.57621" lon="0.3454">
        <ele>76</ele>
        <time>2020-05-30T16:09:15Z</time>
      </trkpt>
      <trkpt lat="46.57625" lon="0.34539">
        <ele>76.1</ele>
        <time>2020-05-30T16:09:16Z</time>
      </trkpt>
      <trkpt lat="46.57629" lon="0.34536">
        <ele>76.1</ele>
        <time>2020-05-30T16:09:17Z</time>
      </trkpt>
      <trkpt lat="46.57632" lon="0.34535">
        <ele>76.2</ele>
        <time>2020-05-30T16:09:18Z</time>
      </trkpt>
      <trkpt lat="46.57636" lon="0.34534">
        <ele>76.2</ele>
        <time>2020-05-30T16:09:19Z</time>
      </trkpt>
      <trkpt lat="46.57639" lon="0.34532">
        <ele>76.3</ele>
        <time>2020-05-30T16:09:20Z</time>
      </trkpt>
      <trkpt lat="46.5764" lon="0.34531">
        <ele>76.3</ele>
        <time>2020-05-30T16:09:21Z</time>
      </trkpt>
      <trkpt lat="46.57641" lon="0.3453">
        <ele>76.3</ele>
        <time>2020-05-30T16:09:22Z</time>
      </trkpt>
      <trkpt lat="46.57642" lon="0.34528">
        <ele>76.3</ele>
        <time>2020-05-30T16:09:23Z</time>
      </trkpt>
      <trkpt lat="46.57643" lon="0.34527">
        <ele>76.3</ele>
        <time>2020-05-30T16:09:24Z</time>
      </trkpt>
      <trkpt lat="46.57643" lon="0.34529">
        <ele>76.3</ele>
        <time>2020-05-30T16:09:25Z</time>
      </trkpt>
      <trkpt lat="46.57643" lon="0.34529">
        <ele>76.3</ele>
        <time>2020-05-30T16:09:26Z</time>
      </trkpt>
      <trkpt lat="46.57643" lon="0.34529">
        <ele>76.3</ele>
        <time>2020-05-30T16:09:27Z</time>
      </trkpt>
      <trkpt lat="46.57643" lon="0.34529">
        <ele>76.3</ele>
        <time>2020-05-30T16:09:28Z</time>
      </trkpt>
      <trkpt lat="46.57644" lon="0.3453">
        <ele>76.4</ele>
        <time>2020-05-30T16:09:29Z</time>
      </trkpt>
      <trkpt lat="46.57644" lon="0.34531">
        <ele>76.4</ele>
        <time>2020-05-30T16:09:30Z</time>
      </trkpt>
      <trkpt lat="46.57645" lon="0.34531">
        <ele>76.4</ele>
        <time>2020-05-30T16:09:31Z</time>
      </trkpt>
      <trkpt lat="46.57645" lon="0.34531">
        <ele>76.4</ele>
        <time>2020-05-30T16:09:32Z</time>
      </trkpt>
      <trkpt lat="46.57645" lon="0.3453">
        <ele>76.4</ele>
        <time>2020-05-30T16:09:33Z</time>
      </trkpt>
      <trkpt lat="46.57645" lon="0.3453">
        <ele>76.4</ele>
        <time>2020-05-30T16:09:34Z</time>
      </trkpt>
      <trkpt lat="46.57645" lon="0.3453">
        <ele>76.4</ele>
        <time>2020-05-30T16:09:35Z</time>
      </trkpt>
      <trkpt lat="46.57645" lon="0.34529">
        <ele>76.4</ele>
        <time>2020-05-30T16:09:36Z</time>
      </trkpt>
      <trkpt lat="46.57645" lon="0.34529">
        <ele>76.4</ele>
        <time>2020-05-30T16:09:37Z</time>
      </trkpt>
      <trkpt lat="46.57645" lon="0.34528">
        <ele>76.4</ele>
        <time>2020-05-30T16:09:38Z</time>
      </trkpt>
      <trkpt lat="46.57645" lon="0.34528">
        <ele>76.4</ele>
        <time>2020-05-30T16:09:39Z</time>
      </trkpt>
      <trkpt lat="46.57645" lon="0.34527">
        <ele>76.4</ele>
        <time>2020-05-30T16:09:40Z</time>
      </trkpt>
      <trkpt lat="46.57645" lon="0.34527">
        <ele>76.4</ele>
        <time>2020-05-30T16:09:41Z</time>
      </trkpt>
      <trkpt lat="46.57645" lon="0.34528">
        <ele>76.4</ele>
        <time>2020-05-30T16:09:42Z</time>
      </trkpt>
      <trkpt lat="46.57645" lon="0.34528">
        <ele>76.4</ele>
        <time>2020-05-30T16:09:43Z</time>
      </trkpt>
      <trkpt lat="46.57645" lon="0.34528">
        <ele>76.4</ele>
        <time>2020-05-30T16:09:44Z</time>
      </trkpt>
      <trkpt lat="46.57646" lon="0.34528">
        <ele>76.4</ele>
        <time>2020-05-30T16:09:45Z</time>
      </trkpt>
      <trkpt lat="46.57646" lon="0.34528">
        <ele>76.4</ele>
        <time>2020-05-30T16:09:46Z</time>
      </trkpt>
      <trkpt lat="46.57646" lon="0.34528">
        <ele>76.4</ele>
        <time>2020-05-30T16:09:47Z</time>
      </trkpt>
      <trkpt lat="46.57646" lon="0.34528">
        <ele>76.4</ele>
        <time>2020-05-30T16:09:48Z</time>
      </trkpt>
      <trkpt lat="46.57646" lon="0.34527">
        <ele>76.4</ele>
        <time>2020-05-30T16:09:49Z</time>
      </trkpt>
      <trkpt lat="46.57646" lon="0.34527">
        <ele>76.4</ele>
        <time>2020-05-30T16:09:50Z</time>
      </trkpt>
      <trkpt lat="46.57649" lon="0.34524">
        <ele>76.5</ele>
        <time>2020-05-30T16:09:51Z</time>
      </trkpt>
      <trkpt lat="46.5765" lon="0.34524">
        <ele>76.5</ele>
        <time>2020-05-30T16:09:52Z</time>
      </trkpt>
      <trkpt lat="46.57653" lon="0.34522">
        <ele>76.5</ele>
        <time>2020-05-30T16:09:53Z</time>
      </trkpt>
      <trkpt lat="46.57655" lon="0.34518">
        <ele>76.6</ele>
        <time>2020-05-30T16:09:54Z</time>
      </trkpt>
      <trkpt lat="46.57658" lon="0.34514">
        <ele>77.1</ele>
        <time>2020-05-30T16:09:55Z</time>
      </trkpt>
      <trkpt lat="46.57659" lon="0.34508">
        <ele>77.2</ele>
        <time>2020-05-30T16:09:56Z</time>
      </trkpt>
      <trkpt lat="46.5766" lon="0.34503">
        <ele>77.2</ele>
        <time>2020-05-30T16:09:57Z</time>
      </trkpt>
      <trkpt lat="46.57658" lon="0.34497">
        <ele>77.3</ele>
        <time>2020-05-30T16:09:58Z</time>
      </trkpt>
      <trkpt lat="46.57657" lon="0.34491">
        <ele>77.4</ele>
        <time>2020-05-30T16:09:59Z</time>
      </trkpt>
      <trkpt lat="46.57658" lon="0.34484">
        <ele>77.5</ele>
        <time>2020-05-30T16:10:00Z</time>
      </trkpt>
      <trkpt lat="46.57658" lon="0.34476">
        <ele>77.6</ele>
        <time>2020-05-30T16:10:01Z</time>
      </trkpt>
      <trkpt lat="46.57659" lon="0.34469">
        <ele>77.7</ele>
        <time>2020-05-30T16:10:02Z</time>
      </trkpt>
      <trkpt lat="46.5766" lon="0.34461">
        <ele>77.8</ele>
        <time>2020-05-30T16:10:03Z</time>
      </trkpt>
      <trkpt lat="46.57661" lon="0.34453">
        <ele>77.8</ele>
        <time>2020-05-30T16:10:04Z</time>
      </trkpt>
      <trkpt lat="46.57658" lon="0.34444">
        <ele>77.9</ele>
        <time>2020-05-30T16:10:05Z</time>
      </trkpt>
      <trkpt lat="46.57658" lon="0.34436">
        <ele>78</ele>
        <time>2020-05-30T16:10:06Z</time>
      </trkpt>
      <trkpt lat="46.57659" lon="0.34428">
        <ele>78</ele>
        <time>2020-05-30T16:10:07Z</time>
      </trkpt>
      <trkpt lat="46.57661" lon="0.3442">
        <ele>78.1</ele>
        <time>2020-05-30T16:10:08Z</time>
      </trkpt>
      <trkpt lat="46.57662" lon="0.34412">
        <ele>78.3</ele>
        <time>2020-05-30T16:10:09Z</time>
      </trkpt>
      <trkpt lat="46.57663" lon="0.34404">
        <ele>78.4</ele>
        <time>2020-05-30T16:10:10Z</time>
      </trkpt>
      <trkpt lat="46.57664" lon="0.34396">
        <ele>78.5</ele>
        <time>2020-05-30T16:10:11Z</time>
      </trkpt>
      <trkpt lat="46.57665" lon="0.34388">
        <ele>78.6</ele>
        <time>2020-05-30T16:10:12Z</time>
      </trkpt>
      <trkpt lat="46.57665" lon="0.3438">
        <ele>78.7</ele>
        <time>2020-05-30T16:10:13Z</time>
      </trkpt>
      <trkpt lat="46.57666" lon="0.34373">
        <ele>78.8</ele>
        <time>2020-05-30T16:10:14Z</time>
      </trkpt>
      <trkpt lat="46.57667" lon="0.34365">
        <ele>78.8</ele>
        <time>2020-05-30T16:10:15Z</time>
      </trkpt>
      <trkpt lat="46.57666" lon="0.34358">
        <ele>78.9</ele>
        <time>2020-05-30T16:10:16Z</time>
      </trkpt>
      <trkpt lat="46.57665" lon="0.34351">
        <ele>79</ele>
        <time>2020-05-30T16:10:17Z</time>
      </trkpt>
      <trkpt lat="46.57664" lon="0.34343">
        <ele>79.1</ele>
        <time>2020-05-30T16:10:18Z</time>
      </trkpt>
      <trkpt lat="46.57662" lon="0.34335">
        <ele>79.1</ele>
        <time>2020-05-30T16:10:19Z</time>
      </trkpt>
      <trkpt lat="46.57661" lon="0.34327">
        <ele>79.2</ele>
        <time>2020-05-30T16:10:20Z</time>
      </trkpt>
      <trkpt lat="46.57661" lon="0.34318">
        <ele>79.1</ele>
        <time>2020-05-30T16:10:21Z</time>
      </trkpt>
      <trkpt lat="46.57661" lon="0.3431">
        <ele>79.1</ele>
        <time>2020-05-30T16:10:22Z</time>
      </trkpt>
      <trkpt lat="46.57657" lon="0.34302">
        <ele>79.2</ele>
        <time>2020-05-30T16:10:23Z</time>
      </trkpt>
      <trkpt lat="46.57656" lon="0.34293">
        <ele>79.3</ele>
        <time>2020-05-30T16:10:24Z</time>
      </trkpt>
      <trkpt lat="46.57654" lon="0.34285">
        <ele>79.4</ele>
        <time>2020-05-30T16:10:25Z</time>
      </trkpt>
      <trkpt lat="46.57653" lon="0.34276">
        <ele>79.5</ele>
        <time>2020-05-30T16:10:26Z</time>
      </trkpt>
      <trkpt lat="46.57652" lon="0.34268">
        <ele>79.6</ele>
        <time>2020-05-30T16:10:27Z</time>
      </trkpt>
      <trkpt lat="46.57651" lon="0.34259">
        <ele>79.7</ele>
        <time>2020-05-30T16:10:28Z</time>
      </trkpt>
      <trkpt lat="46.5765" lon="0.3425">
        <ele>79.8</ele>
        <time>2020-05-30T16:10:29Z</time>
      </trkpt>
      <trkpt lat="46.57648" lon="0.34241">
        <ele>79.8</ele>
        <time>2020-05-30T16:10:30Z</time>
      </trkpt>
      <trkpt lat="46.57647" lon="0.34233">
        <ele>80.1</ele>
        <time>2020-05-30T16:10:31Z</time>
      </trkpt>
      <trkpt lat="46.57646" lon="0.34224">
        <ele>80.2</ele>
        <time>2020-05-30T16:10:32Z</time>
      </trkpt>
      <trkpt lat="46.57645" lon="0.34215">
        <ele>80.5</ele>
        <time>2020-05-30T16:10:33Z</time>
      </trkpt>
      <trkpt lat="46.57643" lon="0.34207">
        <ele>80.7</ele>
        <time>2020-05-30T16:10:34Z</time>
      </trkpt>
      <trkpt lat="46.57641" lon="0.34199">
        <ele>80.9</ele>
        <time>2020-05-30T16:10:35Z</time>
      </trkpt>
      <trkpt lat="46.57639" lon="0.34191">
        <ele>81.2</ele>
        <time>2020-05-30T16:10:36Z</time>
      </trkpt>
      <trkpt lat="46.57637" lon="0.34183">
        <ele>81.4</ele>
        <time>2020-05-30T16:10:37Z</time>
      </trkpt>
      <trkpt lat="46.57634" lon="0.34175">
        <ele>81.5</ele>
        <time>2020-05-30T16:10:38Z</time>
      </trkpt>
      <trkpt lat="46.57631" lon="0.34168">
        <ele>81.7</ele>
        <time>2020-05-30T16:10:39Z</time>
      </trkpt>
      <trkpt lat="46.57628" lon="0.34161">
        <ele>81.9</ele>
        <time>2020-05-30T16:10:40Z</time>
      </trkpt>
      <trkpt lat="46.57626" lon="0.34153">
        <ele>82</ele>
        <time>2020-05-30T16:10:41Z</time>
      </trkpt>
      <trkpt lat="46.57624" lon="0.34146">
        <ele>82.2</ele>
        <time>2020-05-30T16:10:42Z</time>
      </trkpt>
      <trkpt lat="46.57621" lon="0.34139">
        <ele>82.4</ele>
        <time>2020-05-30T16:10:43Z</time>
      </trkpt>
      <trkpt lat="46.5762" lon="0.34131">
        <ele>82.7</ele>
        <time>2020-05-30T16:10:44Z</time>
      </trkpt>
      <trkpt lat="46.57617" lon="0.34123">
        <ele>83</ele>
        <time>2020-05-30T16:10:45Z</time>
      </trkpt>
      <trkpt lat="46.57613" lon="0.34116">
        <ele>83.4</ele>
        <time>2020-05-30T16:10:46Z</time>
      </trkpt>
      <trkpt lat="46.57611" lon="0.34108">
        <ele>83.7</ele>
        <time>2020-05-30T16:10:47Z</time>
      </trkpt>
      <trkpt lat="46.5761" lon="0.34101">
        <ele>84.1</ele>
        <time>2020-05-30T16:10:48Z</time>
      </trkpt>
      <trkpt lat="46.57608" lon="0.34093">
        <ele>84.5</ele>
        <time>2020-05-30T16:10:49Z</time>
      </trkpt>
      <trkpt lat="46.57606" lon="0.34087">
        <ele>84.8</ele>
        <time>2020-05-30T16:10:50Z</time>
      </trkpt>
      <trkpt lat="46.57604" lon="0.3408">
        <ele>85.2</ele>
        <time>2020-05-30T16:10:51Z</time>
      </trkpt>
      <trkpt lat="46.57601" lon="0.34072">
        <ele>85.6</ele>
        <time>2020-05-30T16:10:52Z</time>
      </trkpt>
      <trkpt lat="46.57599" lon="0.34065">
        <ele>86</ele>
        <time>2020-05-30T16:10:53Z</time>
      </trkpt>
      <trkpt lat="46.57596" lon="0.34058">
        <ele>86.4</ele>
        <time>2020-05-30T16:10:54Z</time>
      </trkpt>
      <trkpt lat="46.57594" lon="0.34051">
        <ele>86.7</ele>
        <time>2020-05-30T16:10:55Z</time>
      </trkpt>
      <trkpt lat="46.57593" lon="0.34043">
        <ele>87.1</ele>
        <time>2020-05-30T16:10:56Z</time>
      </trkpt>
      <trkpt lat="46.57591" lon="0.34035">
        <ele>87.5</ele>
        <time>2020-05-30T16:10:57Z</time>
      </trkpt>
      <trkpt lat="46.5759" lon="0.34029">
        <ele>87.7</ele>
        <time>2020-05-30T16:10:58Z</time>
      </trkpt>
      <trkpt lat="46.57589" lon="0.34024">
        <ele>88</ele>
        <time>2020-05-30T16:10:59Z</time>
      </trkpt>
      <trkpt lat="46.57587" lon="0.34015">
        <ele>88.2</ele>
        <time>2020-05-30T16:11:00Z</time>
      </trkpt>
      <trkpt lat="46.57585" lon="0.34009">
        <ele>88.5</ele>
        <time>2020-05-30T16:11:01Z</time>
      </trkpt>
      <trkpt lat="46.57583" lon="0.34002">
        <ele>88.8</ele>
        <time>2020-05-30T16:11:02Z</time>
      </trkpt>
      <trkpt lat="46.57581" lon="0.33996">
        <ele>89.1</ele>
        <time>2020-05-30T16:11:03Z</time>
      </trkpt>
      <trkpt lat="46.57579" lon="0.33992">
        <ele>89.3</ele>
        <time>2020-05-30T16:11:04Z</time>
      </trkpt>
      <trkpt lat="46.57578" lon="0.33988">
        <ele>89.5</ele>
        <time>2020-05-30T16:11:05Z</time>
      </trkpt>
      <trkpt lat="46.57577" lon="0.33983">
        <ele>89.7</ele>
        <time>2020-05-30T16:11:06Z</time>
      </trkpt>
      <trkpt lat="46.57577" lon="0.33978">
        <ele>90.1</ele>
        <time>2020-05-30T16:11:07Z</time>
      </trkpt>
      <trkpt lat="46.57576" lon="0.33974">
        <ele>90.2</ele>
        <time>2020-05-30T16:11:08Z</time>
      </trkpt>
      <trkpt lat="46.57576" lon="0.33969">
        <ele>90.3</ele>
        <time>2020-05-30T16:11:09Z</time>
      </trkpt>
      <trkpt lat="46.57574" lon="0.33965">
        <ele>91.5</ele>
        <time>2020-05-30T16:11:10Z</time>
      </trkpt>
      <trkpt lat="46.57574" lon="0.33959">
        <ele>91.7</ele>
        <time>2020-05-30T16:11:11Z</time>
      </trkpt>
      <trkpt lat="46.57573" lon="0.33957">
        <ele>91.8</ele>
        <time>2020-05-30T16:11:12Z</time>
      </trkpt>
      <trkpt lat="46.57572" lon="0.33953">
        <ele>91.9</ele>
        <time>2020-05-30T16:11:13Z</time>
      </trkpt>
      <trkpt lat="46.5757" lon="0.33948">
        <ele>92.5</ele>
        <time>2020-05-30T16:11:14Z</time>
      </trkpt>
      <trkpt lat="46.57569" lon="0.33944">
        <ele>92.7</ele>
        <time>2020-05-30T16:11:15Z</time>
      </trkpt>
      <trkpt lat="46.57568" lon="0.33938">
        <ele>92.8</ele>
        <time>2020-05-30T16:11:16Z</time>
      </trkpt>
      <trkpt lat="46.57568" lon="0.33936">
        <ele>92.9</ele>
        <time>2020-05-30T16:11:17Z</time>
      </trkpt>
      <trkpt lat="46.57566" lon="0.33931">
        <ele>93.1</ele>
        <time>2020-05-30T16:11:18Z</time>
      </trkpt>
      <trkpt lat="46.57565" lon="0.33927">
        <ele>93.2</ele>
        <time>2020-05-30T16:11:19Z</time>
      </trkpt>
      <trkpt lat="46.57563" lon="0.33922">
        <ele>93.4</ele>
        <time>2020-05-30T16:11:20Z</time>
      </trkpt>
      <trkpt lat="46.57562" lon="0.33917">
        <ele>93.6</ele>
        <time>2020-05-30T16:11:21Z</time>
      </trkpt>
      <trkpt lat="46.5756" lon="0.33912">
        <ele>93.9</ele>
        <time>2020-05-30T16:11:22Z</time>
      </trkpt>
      <trkpt lat="46.57558" lon="0.33906">
        <ele>94.1</ele>
        <time>2020-05-30T16:11:23Z</time>
      </trkpt>
      <trkpt lat="46.57556" lon="0.33901">
        <ele>94.3</ele>
        <time>2020-05-30T16:11:24Z</time>
      </trkpt>
      <trkpt lat="46.57555" lon="0.33896">
        <ele>94.5</ele>
        <time>2020-05-30T16:11:25Z</time>
      </trkpt>
      <trkpt lat="46.57553" lon="0.3389">
        <ele>94.7</ele>
        <time>2020-05-30T16:11:26Z</time>
      </trkpt>
      <trkpt lat="46.57552" lon="0.33885">
        <ele>94.9</ele>
        <time>2020-05-30T16:11:27Z</time>
      </trkpt>
      <trkpt lat="46.57551" lon="0.33881">
        <ele>95.1</ele>
        <time>2020-05-30T16:11:28Z</time>
      </trkpt>
      <trkpt lat="46.57549" lon="0.33876">
        <ele>95.4</ele>
        <time>2020-05-30T16:11:29Z</time>
      </trkpt>
      <trkpt lat="46.57549" lon="0.33874">
        <ele>95.5</ele>
        <time>2020-05-30T16:11:30Z</time>
      </trkpt>
      <trkpt lat="46.57548" lon="0.33868">
        <ele>95.7</ele>
        <time>2020-05-30T16:11:31Z</time>
      </trkpt>
      <trkpt lat="46.57547" lon="0.33866">
        <ele>95.8</ele>
        <time>2020-05-30T16:11:32Z</time>
      </trkpt>
      <trkpt lat="46.57545" lon="0.33861">
        <ele>96.1</ele>
        <time>2020-05-30T16:11:33Z</time>
      </trkpt>
      <trkpt lat="46.57544" lon="0.33857">
        <ele>96.4</ele>
        <time>2020-05-30T16:11:34Z</time>
      </trkpt>
      <trkpt lat="46.57542" lon="0.33853">
        <ele>96.7</ele>
        <time>2020-05-30T16:11:35Z</time>
      </trkpt>
      <trkpt lat="46.5754" lon="0.3385">
        <ele>97</ele>
        <time>2020-05-30T16:11:36Z</time>
      </trkpt>
      <trkpt lat="46.57539" lon="0.33848">
        <ele>97.1</ele>
        <time>2020-05-30T16:11:37Z</time>
      </trkpt>
      <trkpt lat="46.57538" lon="0.33844">
        <ele>97.5</ele>
        <time>2020-05-30T16:11:38Z</time>
      </trkpt>
      <trkpt lat="46.57537" lon="0.33839">
        <ele>97.9</ele>
        <time>2020-05-30T16:11:39Z</time>
      </trkpt>
      <trkpt lat="46.57536" lon="0.33837">
        <ele>98</ele>
        <time>2020-05-30T16:11:40Z</time>
      </trkpt>
      <trkpt lat="46.57534" lon="0.33834">
        <ele>98.4</ele>
        <time>2020-05-30T16:11:41Z</time>
      </trkpt>
      <trkpt lat="46.57532" lon="0.33829">
        <ele>98.9</ele>
        <time>2020-05-30T16:11:42Z</time>
      </trkpt>
      <trkpt lat="46.5753" lon="0.33825">
        <ele>99.2</ele>
        <time>2020-05-30T16:11:43Z</time>
      </trkpt>
      <trkpt lat="46.57529" lon="0.3382">
        <ele>99.6</ele>
        <time>2020-05-30T16:11:44Z</time>
      </trkpt>
      <trkpt lat="46.57528" lon="0.33816">
        <ele>100</ele>
        <time>2020-05-30T16:11:45Z</time>
      </trkpt>
      <trkpt lat="46.57526" lon="0.33812">
        <ele>100.3</ele>
        <time>2020-05-30T16:11:46Z</time>
      </trkpt>
      <trkpt lat="46.57524" lon="0.33808">
        <ele>100.6</ele>
        <time>2020-05-30T16:11:47Z</time>
      </trkpt>
      <trkpt lat="46.57523" lon="0.33803">
        <ele>101</ele>
        <time>2020-05-30T16:11:48Z</time>
      </trkpt>
      <trkpt lat="46.5752" lon="0.33798">
        <ele>101.3</ele>
        <time>2020-05-30T16:11:49Z</time>
      </trkpt>
      <trkpt lat="46.57518" lon="0.33794">
        <ele>101.7</ele>
        <time>2020-05-30T16:11:50Z</time>
      </trkpt>
      <trkpt lat="46.57516" lon="0.3379">
        <ele>102</ele>
        <time>2020-05-30T16:11:51Z</time>
      </trkpt>
      <trkpt lat="46.57514" lon="0.33785">
        <ele>102.3</ele>
        <time>2020-05-30T16:11:52Z</time>
      </trkpt>
      <trkpt lat="46.57511" lon="0.3378">
        <ele>102.6</ele>
        <time>2020-05-30T16:11:53Z</time>
      </trkpt>
      <trkpt lat="46.5751" lon="0.33776">
        <ele>102.6</ele>
        <time>2020-05-30T16:11:54Z</time>
      </trkpt>
      <trkpt lat="46.57508" lon="0.33772">
        <ele>102.6</ele>
        <time>2020-05-30T16:11:55Z</time>
      </trkpt>
      <trkpt lat="46.57507" lon="0.33766">
        <ele>102.7</ele>
        <time>2020-05-30T16:11:56Z</time>
      </trkpt>
      <trkpt lat="46.57506" lon="0.33761">
        <ele>102.8</ele>
        <time>2020-05-30T16:11:57Z</time>
      </trkpt>
      <trkpt lat="46.57505" lon="0.33756">
        <ele>103</ele>
        <time>2020-05-30T16:11:58Z</time>
      </trkpt>
      <trkpt lat="46.57504" lon="0.33754">
        <ele>103</ele>
        <time>2020-05-30T16:11:59Z</time>
      </trkpt>
      <trkpt lat="46.57504" lon="0.33748">
        <ele>103.2</ele>
        <time>2020-05-30T16:12:00Z</time>
      </trkpt>
      <trkpt lat="46.57503" lon="0.33747">
        <ele>103.3</ele>
        <time>2020-05-30T16:12:01Z</time>
      </trkpt>
      <trkpt lat="46.57502" lon="0.33741">
        <ele>103.5</ele>
        <time>2020-05-30T16:12:02Z</time>
      </trkpt>
      <trkpt lat="46.575" lon="0.33735">
        <ele>103.7</ele>
        <time>2020-05-30T16:12:03Z</time>
      </trkpt>
      <trkpt lat="46.57499" lon="0.3373">
        <ele>103.9</ele>
        <time>2020-05-30T16:12:04Z</time>
      </trkpt>
      <trkpt lat="46.57497" lon="0.33727">
        <ele>104.1</ele>
        <time>2020-05-30T16:12:05Z</time>
      </trkpt>
      <trkpt lat="46.57496" lon="0.33722">
        <ele>104.2</ele>
        <time>2020-05-30T16:12:06Z</time>
      </trkpt>
      <trkpt lat="46.57495" lon="0.33717">
        <ele>104.4</ele>
        <time>2020-05-30T16:12:07Z</time>
      </trkpt>
      <trkpt lat="46.57495" lon="0.33715">
        <ele>104.5</ele>
        <time>2020-05-30T16:12:08Z</time>
      </trkpt>
      <trkpt lat="46.57494" lon="0.3371">
        <ele>104.6</ele>
        <time>2020-05-30T16:12:09Z</time>
      </trkpt>
      <trkpt lat="46.57494" lon="0.33706">
        <ele>104.8</ele>
        <time>2020-05-30T16:12:10Z</time>
      </trkpt>
      <trkpt lat="46.57493" lon="0.33701">
        <ele>104.9</ele>
        <time>2020-05-30T16:12:11Z</time>
      </trkpt>
      <trkpt lat="46.57493" lon="0.33695">
        <ele>105</ele>
        <time>2020-05-30T16:12:12Z</time>
      </trkpt>
      <trkpt lat="46.57492" lon="0.33689">
        <ele>105.2</ele>
        <time>2020-05-30T16:12:13Z</time>
      </trkpt>
      <trkpt lat="46.57491" lon="0.33684">
        <ele>105.5</ele>
        <time>2020-05-30T16:12:14Z</time>
      </trkpt>
      <trkpt lat="46.5749" lon="0.33679">
        <ele>105.7</ele>
        <time>2020-05-30T16:12:15Z</time>
      </trkpt>
      <trkpt lat="46.57489" lon="0.33677">
        <ele>105.8</ele>
        <time>2020-05-30T16:12:16Z</time>
      </trkpt>
      <trkpt lat="46.57489" lon="0.33672">
        <ele>105.9</ele>
        <time>2020-05-30T16:12:17Z</time>
      </trkpt>
      <trkpt lat="46.57488" lon="0.33665">
        <ele>106.1</ele>
        <time>2020-05-30T16:12:18Z</time>
      </trkpt>
      <trkpt lat="46.57488" lon="0.33659">
        <ele>106.2</ele>
        <time>2020-05-30T16:12:19Z</time>
      </trkpt>
      <trkpt lat="46.57487" lon="0.33653">
        <ele>106.5</ele>
        <time>2020-05-30T16:12:20Z</time>
      </trkpt>
      <trkpt lat="46.57488" lon="0.33648">
        <ele>106.7</ele>
        <time>2020-05-30T16:12:21Z</time>
      </trkpt>
      <trkpt lat="46.57488" lon="0.33644">
        <ele>107</ele>
        <time>2020-05-30T16:12:22Z</time>
      </trkpt>
      <trkpt lat="46.57489" lon="0.33638">
        <ele>107.3</ele>
        <time>2020-05-30T16:12:23Z</time>
      </trkpt>
      <trkpt lat="46.5749" lon="0.33634">
        <ele>107.4</ele>
        <time>2020-05-30T16:12:24Z</time>
      </trkpt>
      <trkpt lat="46.5749" lon="0.33628">
        <ele>107.5</ele>
        <time>2020-05-30T16:12:25Z</time>
      </trkpt>
      <trkpt lat="46.5749" lon="0.33626">
        <ele>107.5</ele>
        <time>2020-05-30T16:12:26Z</time>
      </trkpt>
      <trkpt lat="46.57489" lon="0.3362">
        <ele>107.6</ele>
        <time>2020-05-30T16:12:27Z</time>
      </trkpt>
      <trkpt lat="46.57489" lon="0.33618">
        <ele>107.6</ele>
        <time>2020-05-30T16:12:28Z</time>
      </trkpt>
      <trkpt lat="46.57488" lon="0.33614">
        <ele>107.7</ele>
        <time>2020-05-30T16:12:29Z</time>
      </trkpt>
      <trkpt lat="46.57487" lon="0.3361">
        <ele>107.8</ele>
        <time>2020-05-30T16:12:30Z</time>
      </trkpt>
      <trkpt lat="46.57484" lon="0.33608">
        <ele>107.8</ele>
        <time>2020-05-30T16:12:31Z</time>
      </trkpt>
      <trkpt lat="46.57478" lon="0.33606">
        <ele>107.5</ele>
        <time>2020-05-30T16:12:32Z</time>
      </trkpt>
      <trkpt lat="46.57472" lon="0.33605">
        <ele>107.2</ele>
        <time>2020-05-30T16:12:33Z</time>
      </trkpt>
      <trkpt lat="46.57467" lon="0.33599">
        <ele>106.9</ele>
        <time>2020-05-30T16:12:34Z</time>
      </trkpt>
      <trkpt lat="46.57461" lon="0.33592">
        <ele>106.5</ele>
        <time>2020-05-30T16:12:35Z</time>
      </trkpt>
      <trkpt lat="46.57455" lon="0.33584">
        <ele>106.1</ele>
        <time>2020-05-30T16:12:36Z</time>
      </trkpt>
      <trkpt lat="46.57451" lon="0.33575">
        <ele>105.7</ele>
        <time>2020-05-30T16:12:37Z</time>
      </trkpt>
      <trkpt lat="46.57446" lon="0.33565">
        <ele>105.3</ele>
        <time>2020-05-30T16:12:38Z</time>
      </trkpt>
      <trkpt lat="46.57442" lon="0.33554">
        <ele>104.9</ele>
        <time>2020-05-30T16:12:39Z</time>
      </trkpt>
      <trkpt lat="46.57438" lon="0.33542">
        <ele>104.8</ele>
        <time>2020-05-30T16:12:40Z</time>
      </trkpt>
      <trkpt lat="46.57434" lon="0.3353">
        <ele>104.7</ele>
        <time>2020-05-30T16:12:41Z</time>
      </trkpt>
      <trkpt lat="46.57431" lon="0.33518">
        <ele>104.6</ele>
        <time>2020-05-30T16:12:42Z</time>
      </trkpt>
      <trkpt lat="46.57427" lon="0.33506">
        <ele>104.6</ele>
        <time>2020-05-30T16:12:43Z</time>
      </trkpt>
      <trkpt lat="46.57423" lon="0.33495">
        <ele>104.5</ele>
        <time>2020-05-30T16:12:44Z</time>
      </trkpt>
      <trkpt lat="46.57419" lon="0.33484">
        <ele>104.5</ele>
        <time>2020-05-30T16:12:45Z</time>
      </trkpt>
      <trkpt lat="46.57415" lon="0.33472">
        <ele>104.4</ele>
        <time>2020-05-30T16:12:46Z</time>
      </trkpt>
      <trkpt lat="46.57411" lon="0.33461">
        <ele>104.4</ele>
        <time>2020-05-30T16:12:47Z</time>
      </trkpt>
      <trkpt lat="46.57407" lon="0.3345">
        <ele>104.4</ele>
        <time>2020-05-30T16:12:48Z</time>
      </trkpt>
      <trkpt lat="46.57404" lon="0.33439">
        <ele>104.4</ele>
        <time>2020-05-30T16:12:49Z</time>
      </trkpt>
      <trkpt lat="46.574" lon="0.33429">
        <ele>104.4</ele>
        <time>2020-05-30T16:12:50Z</time>
      </trkpt>
      <trkpt lat="46.57397" lon="0.33418">
        <ele>104.4</ele>
        <time>2020-05-30T16:12:51Z</time>
      </trkpt>
      <trkpt lat="46.57393" lon="0.33407">
        <ele>104.5</ele>
        <time>2020-05-30T16:12:52Z</time>
      </trkpt>
      <trkpt lat="46.5739" lon="0.33397">
        <ele>104.4</ele>
        <time>2020-05-30T16:12:53Z</time>
      </trkpt>
      <trkpt lat="46.57387" lon="0.33386">
        <ele>104.4</ele>
        <time>2020-05-30T16:12:54Z</time>
      </trkpt>
      <trkpt lat="46.57385" lon="0.33375">
        <ele>104.5</ele>
        <time>2020-05-30T16:12:55Z</time>
      </trkpt>
      <trkpt lat="46.57381" lon="0.33366">
        <ele>104.5</ele>
        <time>2020-05-30T16:12:56Z</time>
      </trkpt>
      <trkpt lat="46.57378" lon="0.33356">
        <ele>104.6</ele>
        <time>2020-05-30T16:12:57Z</time>
      </trkpt>
      <trkpt lat="46.57374" lon="0.33346">
        <ele>104.7</ele>
        <time>2020-05-30T16:12:58Z</time>
      </trkpt>
      <trkpt lat="46.57371" lon="0.33336">
        <ele>104.8</ele>
        <time>2020-05-30T16:12:59Z</time>
      </trkpt>
      <trkpt lat="46.57368" lon="0.33326">
        <ele>105</ele>
        <time>2020-05-30T16:13:00Z</time>
      </trkpt>
      <trkpt lat="46.57364" lon="0.33316">
        <ele>105.1</ele>
        <time>2020-05-30T16:13:01Z</time>
      </trkpt>
      <trkpt lat="46.57361" lon="0.33306">
        <ele>105.2</ele>
        <time>2020-05-30T16:13:02Z</time>
      </trkpt>
      <trkpt lat="46.57358" lon="0.33296">
        <ele>105.2</ele>
        <time>2020-05-30T16:13:03Z</time>
      </trkpt>
      <trkpt lat="46.57356" lon="0.33285">
        <ele>105.2</ele>
        <time>2020-05-30T16:13:04Z</time>
      </trkpt>
      <trkpt lat="46.57351" lon="0.33276">
        <ele>105.2</ele>
        <time>2020-05-30T16:13:05Z</time>
      </trkpt>
      <trkpt lat="46.57347" lon="0.33267">
        <ele>105.2</ele>
        <time>2020-05-30T16:13:06Z</time>
      </trkpt>
      <trkpt lat="46.57345" lon="0.33256">
        <ele>105.2</ele>
        <time>2020-05-30T16:13:07Z</time>
      </trkpt>
      <trkpt lat="46.57341" lon="0.33246">
        <ele>105.1</ele>
        <time>2020-05-30T16:13:08Z</time>
      </trkpt>
      <trkpt lat="46.57338" lon="0.33236">
        <ele>105</ele>
        <time>2020-05-30T16:13:09Z</time>
      </trkpt>
      <trkpt lat="46.57335" lon="0.33225">
        <ele>104.9</ele>
        <time>2020-05-30T16:13:10Z</time>
      </trkpt>
      <trkpt lat="46.57331" lon="0.33214">
        <ele>104.8</ele>
        <time>2020-05-30T16:13:11Z</time>
      </trkpt>
      <trkpt lat="46.57328" lon="0.33203">
        <ele>104.7</ele>
        <time>2020-05-30T16:13:12Z</time>
      </trkpt>
      <trkpt lat="46.57324" lon="0.33192">
        <ele>104.5</ele>
        <time>2020-05-30T16:13:13Z</time>
      </trkpt>
      <trkpt lat="46.57319" lon="0.33181">
        <ele>104.4</ele>
        <time>2020-05-30T16:13:14Z</time>
      </trkpt>
      <trkpt lat="46.57314" lon="0.3317">
        <ele>104.2</ele>
        <time>2020-05-30T16:13:15Z</time>
      </trkpt>
      <trkpt lat="46.57309" lon="0.33159">
        <ele>104</ele>
        <time>2020-05-30T16:13:16Z</time>
      </trkpt>
      <trkpt lat="46.57304" lon="0.33148">
        <ele>103.9</ele>
        <time>2020-05-30T16:13:17Z</time>
      </trkpt>
      <trkpt lat="46.57299" lon="0.33136">
        <ele>103.8</ele>
        <time>2020-05-30T16:13:18Z</time>
      </trkpt>
      <trkpt lat="46.57293" lon="0.33125">
        <ele>103.7</ele>
        <time>2020-05-30T16:13:19Z</time>
      </trkpt>
      <trkpt lat="46.57288" lon="0.33114">
        <ele>103.6</ele>
        <time>2020-05-30T16:13:20Z</time>
      </trkpt>
      <trkpt lat="46.57282" lon="0.33102">
        <ele>103.7</ele>
        <time>2020-05-30T16:13:21Z</time>
      </trkpt>
      <trkpt lat="46.57276" lon="0.33091">
        <ele>103.8</ele>
        <time>2020-05-30T16:13:22Z</time>
      </trkpt>
      <trkpt lat="46.57271" lon="0.3308">
        <ele>103.8</ele>
        <time>2020-05-30T16:13:23Z</time>
      </trkpt>
      <trkpt lat="46.57266" lon="0.33069">
        <ele>104</ele>
        <time>2020-05-30T16:13:24Z</time>
      </trkpt>
      <trkpt lat="46.57261" lon="0.33058">
        <ele>104.1</ele>
        <time>2020-05-30T16:13:25Z</time>
      </trkpt>
      <trkpt lat="46.57257" lon="0.33047">
        <ele>104.3</ele>
        <time>2020-05-30T16:13:26Z</time>
      </trkpt>
      <trkpt lat="46.57252" lon="0.33037">
        <ele>104.5</ele>
        <time>2020-05-30T16:13:27Z</time>
      </trkpt>
      <trkpt lat="46.5725" lon="0.33025">
        <ele>104.7</ele>
        <time>2020-05-30T16:13:28Z</time>
      </trkpt>
      <trkpt lat="46.5725" lon="0.33014">
        <ele>104.9</ele>
        <time>2020-05-30T16:13:29Z</time>
      </trkpt>
      <trkpt lat="46.57252" lon="0.33004">
        <ele>105</ele>
        <time>2020-05-30T16:13:30Z</time>
      </trkpt>
      <trkpt lat="46.57257" lon="0.32996">
        <ele>105.1</ele>
        <time>2020-05-30T16:13:31Z</time>
      </trkpt>
      <trkpt lat="46.57262" lon="0.32991">
        <ele>105.2</ele>
        <time>2020-05-30T16:13:32Z</time>
      </trkpt>
      <trkpt lat="46.57268" lon="0.32988">
        <ele>105.2</ele>
        <time>2020-05-30T16:13:33Z</time>
      </trkpt>
      <trkpt lat="46.57273" lon="0.32985">
        <ele>105.3</ele>
        <time>2020-05-30T16:13:34Z</time>
      </trkpt>
      <trkpt lat="46.57278" lon="0.32981">
        <ele>105.3</ele>
        <time>2020-05-30T16:13:35Z</time>
      </trkpt>
      <trkpt lat="46.57284" lon="0.32978">
        <ele>105.7</ele>
        <time>2020-05-30T16:13:36Z</time>
      </trkpt>
      <trkpt lat="46.57289" lon="0.32974">
        <ele>106.1</ele>
        <time>2020-05-30T16:13:37Z</time>
      </trkpt>
      <trkpt lat="46.57294" lon="0.32971">
        <ele>106.5</ele>
        <time>2020-05-30T16:13:38Z</time>
      </trkpt>
      <trkpt lat="46.57298" lon="0.32967">
        <ele>106.9</ele>
        <time>2020-05-30T16:13:39Z</time>
      </trkpt>
      <trkpt lat="46.57303" lon="0.32965">
        <ele>107.2</ele>
        <time>2020-05-30T16:13:40Z</time>
      </trkpt>
      <trkpt lat="46.57307" lon="0.32962">
        <ele>107.6</ele>
        <time>2020-05-30T16:13:41Z</time>
      </trkpt>
      <trkpt lat="46.57311" lon="0.3296">
        <ele>107.9</ele>
        <time>2020-05-30T16:13:42Z</time>
      </trkpt>
      <trkpt lat="46.57314" lon="0.32956">
        <ele>108.3</ele>
        <time>2020-05-30T16:13:43Z</time>
      </trkpt>
      <trkpt lat="46.57317" lon="0.32952">
        <ele>108.6</ele>
        <time>2020-05-30T16:13:44Z</time>
      </trkpt>
      <trkpt lat="46.57321" lon="0.32952">
        <ele>108.9</ele>
        <time>2020-05-30T16:13:45Z</time>
      </trkpt>
      <trkpt lat="46.57326" lon="0.32948">
        <ele>109.3</ele>
        <time>2020-05-30T16:13:46Z</time>
      </trkpt>
      <trkpt lat="46.57332" lon="0.32945">
        <ele>109.8</ele>
        <time>2020-05-30T16:13:47Z</time>
      </trkpt>
      <trkpt lat="46.57337" lon="0.3294">
        <ele>110.1</ele>
        <time>2020-05-30T16:13:48Z</time>
      </trkpt>
      <trkpt lat="46.57342" lon="0.32935">
        <ele>110.5</ele>
        <time>2020-05-30T16:13:49Z</time>
      </trkpt>
      <trkpt lat="46.57346" lon="0.32931">
        <ele>110.5</ele>
        <time>2020-05-30T16:13:50Z</time>
      </trkpt>
      <trkpt lat="46.57349" lon="0.32927">
        <ele>110.6</ele>
        <time>2020-05-30T16:13:51Z</time>
      </trkpt>
      <trkpt lat="46.57352" lon="0.32922">
        <ele>110.6</ele>
        <time>2020-05-30T16:13:52Z</time>
      </trkpt>
      <trkpt lat="46.57354" lon="0.32919">
        <ele>110.7</ele>
        <time>2020-05-30T16:13:53Z</time>
      </trkpt>
      <trkpt lat="46.57359" lon="0.32913">
        <ele>110.7</ele>
        <time>2020-05-30T16:13:54Z</time>
      </trkpt>
      <trkpt lat="46.57363" lon="0.32907">
        <ele>110.7</ele>
        <time>2020-05-30T16:13:55Z</time>
      </trkpt>
      <trkpt lat="46.57366" lon="0.32901">
        <ele>110.7</ele>
        <time>2020-05-30T16:13:56Z</time>
      </trkpt>
      <trkpt lat="46.57368" lon="0.32896">
        <ele>110.7</ele>
        <time>2020-05-30T16:13:57Z</time>
      </trkpt>
      <trkpt lat="46.57366" lon="0.3289">
        <ele>110.7</ele>
        <time>2020-05-30T16:13:58Z</time>
      </trkpt>
      <trkpt lat="46.57363" lon="0.32883">
        <ele>110.7</ele>
        <time>2020-05-30T16:13:59Z</time>
      </trkpt>
      <trkpt lat="46.57361" lon="0.32877">
        <ele>110.7</ele>
        <time>2020-05-30T16:14:00Z</time>
      </trkpt>
      <trkpt lat="46.57357" lon="0.32873">
        <ele>110.7</ele>
        <time>2020-05-30T16:14:01Z</time>
      </trkpt>
      <trkpt lat="46.57354" lon="0.32869">
        <ele>110.7</ele>
        <time>2020-05-30T16:14:02Z</time>
      </trkpt>
      <trkpt lat="46.5735" lon="0.32864">
        <ele>110.7</ele>
        <time>2020-05-30T16:14:03Z</time>
      </trkpt>
      <trkpt lat="46.57348" lon="0.3286">
        <ele>110.7</ele>
        <time>2020-05-30T16:14:04Z</time>
      </trkpt>
      <trkpt lat="46.57345" lon="0.32856">
        <ele>110.7</ele>
        <time>2020-05-30T16:14:05Z</time>
      </trkpt>
      <trkpt lat="46.57344" lon="0.32855">
        <ele>110.7</ele>
        <time>2020-05-30T16:14:06Z</time>
      </trkpt>
      <trkpt lat="46.57344" lon="0.32854">
        <ele>110.7</ele>
        <time>2020-05-30T16:14:07Z</time>
      </trkpt>
      <trkpt lat="46.57344" lon="0.32853">
        <ele>110.7</ele>
        <time>2020-05-30T16:14:08Z</time>
      </trkpt>
      <trkpt lat="46.57344" lon="0.32854">
        <ele>110.7</ele>
        <time>2020-05-30T16:14:09Z</time>
      </trkpt>
      <trkpt lat="46.57344" lon="0.32855">
        <ele>110.7</ele>
        <time>2020-05-30T16:14:10Z</time>
      </trkpt>
      <trkpt lat="46.57344" lon="0.32854">
        <ele>110.7</ele>
        <time>2020-05-30T16:14:11Z</time>
      </trkpt>
      <trkpt lat="46.57344" lon="0.32854">
        <ele>110.7</ele>
        <time>2020-05-30T16:14:12Z</time>
      </trkpt>
      <trkpt lat="46.57345" lon="0.32855">
        <ele>110.7</ele>
        <time>2020-05-30T16:14:13Z</time>
      </trkpt>
      <trkpt lat="46.57344" lon="0.32856">
        <ele>110.7</ele>
        <time>2020-05-30T16:14:14Z</time>
      </trkpt>
      <trkpt lat="46.57344" lon="0.32856">
        <ele>110.7</ele>
        <time>2020-05-30T16:14:15Z</time>
      </trkpt>
      <trkpt lat="46.57344" lon="0.32856">
        <ele>110.7</ele>
        <time>2020-05-30T16:14:16Z</time>
      </trkpt>
      <trkpt lat="46.57344" lon="0.32857">
        <ele>110.7</ele>
        <time>2020-05-30T16:14:17Z</time>
      </trkpt>
      <trkpt lat="46.57344" lon="0.32857">
        <ele>110.7</ele>
        <time>2020-05-30T16:14:18Z</time>
      </trkpt>
      <trkpt lat="46.57344" lon="0.32857">
        <ele>110.7</ele>
        <time>2020-05-30T16:14:19Z</time>
      </trkpt>
      <trkpt lat="46.57344" lon="0.32857">
        <ele>110.7</ele>
        <time>2020-05-30T16:14:20Z</time>
      </trkpt>
      <trkpt lat="46.57343" lon="0.32857">
        <ele>110.7</ele>
        <time>2020-05-30T16:14:21Z</time>
      </trkpt>
      <trkpt lat="46.57343" lon="0.32859">
        <ele>110.7</ele>
        <time>2020-05-30T16:14:22Z</time>
      </trkpt>
      <trkpt lat="46.57343" lon="0.32857">
        <ele>110.8</ele>
        <time>2020-05-30T16:14:23Z</time>
      </trkpt>
      <trkpt lat="46.57342" lon="0.32856">
        <ele>110.8</ele>
        <time>2020-05-30T16:14:24Z</time>
      </trkpt>
      <trkpt lat="46.57342" lon="0.32854">
        <ele>110.8</ele>
        <time>2020-05-30T16:14:25Z</time>
      </trkpt>
      <trkpt lat="46.57342" lon="0.32852">
        <ele>110.8</ele>
        <time>2020-05-30T16:14:26Z</time>
      </trkpt>
      <trkpt lat="46.57342" lon="0.32853">
        <ele>110.8</ele>
        <time>2020-05-30T16:14:27Z</time>
      </trkpt>
      <trkpt lat="46.57342" lon="0.32853">
        <ele>110.8</ele>
        <time>2020-05-30T16:14:28Z</time>
      </trkpt>
      <trkpt lat="46.57341" lon="0.32852">
        <ele>110.8</ele>
        <time>2020-05-30T16:14:29Z</time>
      </trkpt>
      <trkpt lat="46.5734" lon="0.3285">
        <ele>110.8</ele>
        <time>2020-05-30T16:14:30Z</time>
      </trkpt>
      <trkpt lat="46.57339" lon="0.32849">
        <ele>110.8</ele>
        <time>2020-05-30T16:14:31Z</time>
      </trkpt>
      <trkpt lat="46.57336" lon="0.32842">
        <ele>110.8</ele>
        <time>2020-05-30T16:14:32Z</time>
      </trkpt>
      <trkpt lat="46.57334" lon="0.32838">
        <ele>110.8</ele>
        <time>2020-05-30T16:14:33Z</time>
      </trkpt>
      <trkpt lat="46.57333" lon="0.32836">
        <ele>110.8</ele>
        <time>2020-05-30T16:14:34Z</time>
      </trkpt>
      <trkpt lat="46.57331" lon="0.3283">
        <ele>110.8</ele>
        <time>2020-05-30T16:14:35Z</time>
      </trkpt>
      <trkpt lat="46.57328" lon="0.32825">
        <ele>110.8</ele>
        <time>2020-05-30T16:14:36Z</time>
      </trkpt>
      <trkpt lat="46.57325" lon="0.3282">
        <ele>110.8</ele>
        <time>2020-05-30T16:14:37Z</time>
      </trkpt>
      <trkpt lat="46.57324" lon="0.32819">
        <ele>110.8</ele>
        <time>2020-05-30T16:14:38Z</time>
      </trkpt>
      <trkpt lat="46.57322" lon="0.32816">
        <ele>110.8</ele>
        <time>2020-05-30T16:14:39Z</time>
      </trkpt>
      <trkpt lat="46.57322" lon="0.32813">
        <ele>110.8</ele>
        <time>2020-05-30T16:14:40Z</time>
      </trkpt>
      <trkpt lat="46.57321" lon="0.32812">
        <ele>110.8</ele>
        <time>2020-05-30T16:14:41Z</time>
      </trkpt>
      <trkpt lat="46.57318" lon="0.32808">
        <ele>110.8</ele>
        <time>2020-05-30T16:14:42Z</time>
      </trkpt>
      <trkpt lat="46.57317" lon="0.32808">
        <ele>110.8</ele>
        <time>2020-05-30T16:14:43Z</time>
      </trkpt>
      <trkpt lat="46.57315" lon="0.32805">
        <ele>110.8</ele>
        <time>2020-05-30T16:14:44Z</time>
      </trkpt>
      <trkpt lat="46.57315" lon="0.32806">
        <ele>110.8</ele>
        <time>2020-05-30T16:14:45Z</time>
      </trkpt>
      <trkpt lat="46.57314" lon="0.32807">
        <ele>110.8</ele>
        <time>2020-05-30T16:14:46Z</time>
      </trkpt>
      <trkpt lat="46.57314" lon="0.32806">
        <ele>110.8</ele>
        <time>2020-05-30T16:14:47Z</time>
      </trkpt>
      <trkpt lat="46.57314" lon="0.32807">
        <ele>110.8</ele>
        <time>2020-05-30T16:14:48Z</time>
      </trkpt>
      <trkpt lat="46.57315" lon="0.32808">
        <ele>110.8</ele>
        <time>2020-05-30T16:14:49Z</time>
      </trkpt>
      <trkpt lat="46.57314" lon="0.32806">
        <ele>110.8</ele>
        <time>2020-05-30T16:14:50Z</time>
      </trkpt>
      <trkpt lat="46.57314" lon="0.32807">
        <ele>110.8</ele>
        <time>2020-05-30T16:14:51Z</time>
      </trkpt>
      <trkpt lat="46.57314" lon="0.32807">
        <ele>110.8</ele>
        <time>2020-05-30T16:14:52Z</time>
      </trkpt>
      <trkpt lat="46.57314" lon="0.32806">
        <ele>110.8</ele>
        <time>2020-05-30T16:14:53Z</time>
      </trkpt>
      <trkpt lat="46.57313" lon="0.32806">
        <ele>110.8</ele>
        <time>2020-05-30T16:14:54Z</time>
      </trkpt>
      <trkpt lat="46.57313" lon="0.32807">
        <ele>110.8</ele>
        <time>2020-05-30T16:14:55Z</time>
      </trkpt>
      <trkpt lat="46.57312" lon="0.32806">
        <ele>110.8</ele>
        <time>2020-05-30T16:14:56Z</time>
      </trkpt>
      <trkpt lat="46.57311" lon="0.32806">
        <ele>110.8</ele>
        <time>2020-05-30T16:14:57Z</time>
      </trkpt>
      <trkpt lat="46.57311" lon="0.32805">
        <ele>110.8</ele>
        <time>2020-05-30T16:14:58Z</time>
      </trkpt>
      <trkpt lat="46.57311" lon="0.32804">
        <ele>110.8</ele>
        <time>2020-05-30T16:14:59Z</time>
      </trkpt>
      <trkpt lat="46.5731" lon="0.32804">
        <ele>110.8</ele>
        <time>2020-05-30T16:15:00Z</time>
      </trkpt>
      <trkpt lat="46.57311" lon="0.32804">
        <ele>110.8</ele>
        <time>2020-05-30T16:15:01Z</time>
      </trkpt>
      <trkpt lat="46.57311" lon="0.32804">
        <ele>110.8</ele>
        <time>2020-05-30T16:15:02Z</time>
      </trkpt>
      <trkpt lat="46.57311" lon="0.32805">
        <ele>110.8</ele>
        <time>2020-05-30T16:15:03Z</time>
      </trkpt>
      <trkpt lat="46.57311" lon="0.32806">
        <ele>110.8</ele>
        <time>2020-05-30T16:15:04Z</time>
      </trkpt>
      <trkpt lat="46.57312" lon="0.32806">
        <ele>110.8</ele>
        <time>2020-05-30T16:15:05Z</time>
      </trkpt>
      <trkpt lat="46.57312" lon="0.32807">
        <ele>110.8</ele>
        <time>2020-05-30T16:15:06Z</time>
      </trkpt>
      <trkpt lat="46.57312" lon="0.32807">
        <ele>110.8</ele>
        <time>2020-05-30T16:15:07Z</time>
      </trkpt>
      <trkpt lat="46.57312" lon="0.32808">
        <ele>110.8</ele>
        <time>2020-05-30T16:15:08Z</time>
      </trkpt>
      <trkpt lat="46.57311" lon="0.32809">
        <ele>110.9</ele>
        <time>2020-05-30T16:15:09Z</time>
      </trkpt>
      <trkpt lat="46.57311" lon="0.32808">
        <ele>110.9</ele>
        <time>2020-05-30T16:15:10Z</time>
      </trkpt>
      <trkpt lat="46.57312" lon="0.32809">
        <ele>110.9</ele>
        <time>2020-05-30T16:15:11Z</time>
      </trkpt>
      <trkpt lat="46.57311" lon="0.32808">
        <ele>110.9</ele>
        <time>2020-05-30T16:15:12Z</time>
      </trkpt>
      <trkpt lat="46.57311" lon="0.32808">
        <ele>110.9</ele>
        <time>2020-05-30T16:15:13Z</time>
      </trkpt>
      <trkpt lat="46.57311" lon="0.32808">
        <ele>110.9</ele>
        <time>2020-05-30T16:15:14Z</time>
      </trkpt>
      <trkpt lat="46.57312" lon="0.32808">
        <ele>110.9</ele>
        <time>2020-05-30T16:15:15Z</time>
      </trkpt>
      <trkpt lat="46.57312" lon="0.32808">
        <ele>110.9</ele>
        <time>2020-05-30T16:15:16Z</time>
      </trkpt>
      <trkpt lat="46.57312" lon="0.32807">
        <ele>110.9</ele>
        <time>2020-05-30T16:15:17Z</time>
      </trkpt>
      <trkpt lat="46.57313" lon="0.32807">
        <ele>110.9</ele>
        <time>2020-05-30T16:15:18Z</time>
      </trkpt>
      <trkpt lat="46.57313" lon="0.32808">
        <ele>110.9</ele>
        <time>2020-05-30T16:15:19Z</time>
      </trkpt>
      <trkpt lat="46.57313" lon="0.32807">
        <ele>110.9</ele>
        <time>2020-05-30T16:15:20Z</time>
      </trkpt>
      <trkpt lat="46.57314" lon="0.32807">
        <ele>110.9</ele>
        <time>2020-05-30T16:15:21Z</time>
      </trkpt>
      <trkpt lat="46.57314" lon="0.32807">
        <ele>110.9</ele>
        <time>2020-05-30T16:15:22Z</time>
      </trkpt>
      <trkpt lat="46.57315" lon="0.32807">
        <ele>110.9</ele>
        <time>2020-05-30T16:15:23Z</time>
      </trkpt>
      <trkpt lat="46.57315" lon="0.32807">
        <ele>110.9</ele>
        <time>2020-05-30T16:15:24Z</time>
      </trkpt>
      <trkpt lat="46.57313" lon="0.32804">
        <ele>110.9</ele>
        <time>2020-05-30T16:15:25Z</time>
      </trkpt>
      <trkpt lat="46.5731" lon="0.328">
        <ele>110.9</ele>
        <time>2020-05-30T16:15:26Z</time>
      </trkpt>
      <trkpt lat="46.57308" lon="0.32798">
        <ele>110.9</ele>
        <time>2020-05-30T16:15:27Z</time>
      </trkpt>
      <trkpt lat="46.57306" lon="0.32795">
        <ele>110.9</ele>
        <time>2020-05-30T16:15:28Z</time>
      </trkpt>
      <trkpt lat="46.57303" lon="0.32791">
        <ele>110.9</ele>
        <time>2020-05-30T16:15:29Z</time>
      </trkpt>
      <trkpt lat="46.57301" lon="0.32788">
        <ele>110.9</ele>
        <time>2020-05-30T16:15:30Z</time>
      </trkpt>
      <trkpt lat="46.57298" lon="0.32784">
        <ele>110.9</ele>
        <time>2020-05-30T16:15:31Z</time>
      </trkpt>
      <trkpt lat="46.57294" lon="0.32779">
        <ele>110.9</ele>
        <time>2020-05-30T16:15:32Z</time>
      </trkpt>
      <trkpt lat="46.57292" lon="0.32776">
        <ele>110.9</ele>
        <time>2020-05-30T16:15:33Z</time>
      </trkpt>
      <trkpt lat="46.57289" lon="0.32769">
        <ele>110.9</ele>
        <time>2020-05-30T16:15:34Z</time>
      </trkpt>
      <trkpt lat="46.57285" lon="0.32762">
        <ele>111</ele>
        <time>2020-05-30T16:15:35Z</time>
      </trkpt>
      <trkpt lat="46.57281" lon="0.32757">
        <ele>111</ele>
        <time>2020-05-30T16:15:36Z</time>
      </trkpt>
      <trkpt lat="46.57278" lon="0.3275">
        <ele>111</ele>
        <time>2020-05-30T16:15:37Z</time>
      </trkpt>
      <trkpt lat="46.57275" lon="0.32744">
        <ele>111</ele>
        <time>2020-05-30T16:15:38Z</time>
      </trkpt>
      <trkpt lat="46.57271" lon="0.32738">
        <ele>111.1</ele>
        <time>2020-05-30T16:15:39Z</time>
      </trkpt>
      <trkpt lat="46.57268" lon="0.32731">
        <ele>111.2</ele>
        <time>2020-05-30T16:15:40Z</time>
      </trkpt>
      <trkpt lat="46.57265" lon="0.32726">
        <ele>111.1</ele>
        <time>2020-05-30T16:15:41Z</time>
      </trkpt>
      <trkpt lat="46.57259" lon="0.32721">
        <ele>111.1</ele>
        <time>2020-05-30T16:15:42Z</time>
      </trkpt>
      <trkpt lat="46.57256" lon="0.32716">
        <ele>111.1</ele>
        <time>2020-05-30T16:15:43Z</time>
      </trkpt>
      <trkpt lat="46.57252" lon="0.32708">
        <ele>111.1</ele>
        <time>2020-05-30T16:15:44Z</time>
      </trkpt>
      <trkpt lat="46.57247" lon="0.327">
        <ele>111.2</ele>
        <time>2020-05-30T16:15:45Z</time>
      </trkpt>
      <trkpt lat="46.57244" lon="0.32695">
        <ele>111.2</ele>
        <time>2020-05-30T16:15:46Z</time>
      </trkpt>
      <trkpt lat="46.5724" lon="0.32689">
        <ele>111.2</ele>
        <time>2020-05-30T16:15:47Z</time>
      </trkpt>
      <trkpt lat="46.57236" lon="0.32683">
        <ele>111.3</ele>
        <time>2020-05-30T16:15:48Z</time>
      </trkpt>
      <trkpt lat="46.57231" lon="0.32677">
        <ele>111.4</ele>
        <time>2020-05-30T16:15:49Z</time>
      </trkpt>
      <trkpt lat="46.57227" lon="0.32669">
        <ele>111.5</ele>
        <time>2020-05-30T16:15:50Z</time>
      </trkpt>
      <trkpt lat="46.57222" lon="0.32663">
        <ele>111.5</ele>
        <time>2020-05-30T16:15:51Z</time>
      </trkpt>
      <trkpt lat="46.57218" lon="0.32657">
        <ele>111.5</ele>
        <time>2020-05-30T16:15:52Z</time>
      </trkpt>
      <trkpt lat="46.57214" lon="0.32651">
        <ele>111.5</ele>
        <time>2020-05-30T16:15:53Z</time>
      </trkpt>
      <trkpt lat="46.5721" lon="0.32645">
        <ele>111.5</ele>
        <time>2020-05-30T16:15:54Z</time>
      </trkpt>
      <trkpt lat="46.57205" lon="0.32639">
        <ele>111.5</ele>
        <time>2020-05-30T16:15:55Z</time>
      </trkpt>
      <trkpt lat="46.57201" lon="0.32631">
        <ele>111.5</ele>
        <time>2020-05-30T16:15:56Z</time>
      </trkpt>
      <trkpt lat="46.57197" lon="0.32624">
        <ele>111.5</ele>
        <time>2020-05-30T16:15:57Z</time>
      </trkpt>
      <trkpt lat="46.57192" lon="0.32618">
        <ele>111.5</ele>
        <time>2020-05-30T16:15:58Z</time>
      </trkpt>
      <trkpt lat="46.57188" lon="0.32611">
        <ele>111.4</ele>
        <time>2020-05-30T16:15:59Z</time>
      </trkpt>
      <trkpt lat="46.57182" lon="0.32603">
        <ele>111.4</ele>
        <time>2020-05-30T16:16:00Z</time>
      </trkpt>
      <trkpt lat="46.57179" lon="0.32598">
        <ele>111.4</ele>
        <time>2020-05-30T16:16:01Z</time>
      </trkpt>
      <trkpt lat="46.57172" lon="0.32589">
        <ele>111.3</ele>
        <time>2020-05-30T16:16:02Z</time>
      </trkpt>
      <trkpt lat="46.57167" lon="0.32584">
        <ele>111.2</ele>
        <time>2020-05-30T16:16:03Z</time>
      </trkpt>
      <trkpt lat="46.57161" lon="0.32577">
        <ele>111.2</ele>
        <time>2020-05-30T16:16:04Z</time>
      </trkpt>
      <trkpt lat="46.57157" lon="0.32569">
        <ele>111.1</ele>
        <time>2020-05-30T16:16:05Z</time>
      </trkpt>
      <trkpt lat="46.57151" lon="0.32564">
        <ele>111</ele>
        <time>2020-05-30T16:16:06Z</time>
      </trkpt>
      <trkpt lat="46.57146" lon="0.32557">
        <ele>110.9</ele>
        <time>2020-05-30T16:16:07Z</time>
      </trkpt>
      <trkpt lat="46.5714" lon="0.32551">
        <ele>110.8</ele>
        <time>2020-05-30T16:16:08Z</time>
      </trkpt>
      <trkpt lat="46.57134" lon="0.32546">
        <ele>110.6</ele>
        <time>2020-05-30T16:16:09Z</time>
      </trkpt>
      <trkpt lat="46.57129" lon="0.32539">
        <ele>110.5</ele>
        <time>2020-05-30T16:16:10Z</time>
      </trkpt>
      <trkpt lat="46.57124" lon="0.32533">
        <ele>110.4</ele>
        <time>2020-05-30T16:16:11Z</time>
      </trkpt>
      <trkpt lat="46.57118" lon="0.32528">
        <ele>110.3</ele>
        <time>2020-05-30T16:16:12Z</time>
      </trkpt>
      <trkpt lat="46.57113" lon="0.32522">
        <ele>110.3</ele>
        <time>2020-05-30T16:16:13Z</time>
      </trkpt>
      <trkpt lat="46.57108" lon="0.32517">
        <ele>110.2</ele>
        <time>2020-05-30T16:16:14Z</time>
      </trkpt>
      <trkpt lat="46.57104" lon="0.32512">
        <ele>110.2</ele>
        <time>2020-05-30T16:16:15Z</time>
      </trkpt>
      <trkpt lat="46.57101" lon="0.32506">
        <ele>110.2</ele>
        <time>2020-05-30T16:16:16Z</time>
      </trkpt>
      <trkpt lat="46.57098" lon="0.325">
        <ele>110.3</ele>
        <time>2020-05-30T16:16:17Z</time>
      </trkpt>
      <trkpt lat="46.57094" lon="0.32495">
        <ele>110.5</ele>
        <time>2020-05-30T16:16:18Z</time>
      </trkpt>
      <trkpt lat="46.5709" lon="0.32491">
        <ele>110.6</ele>
        <time>2020-05-30T16:16:19Z</time>
      </trkpt>
      <trkpt lat="46.57086" lon="0.32486">
        <ele>110.7</ele>
        <time>2020-05-30T16:16:20Z</time>
      </trkpt>
      <trkpt lat="46.57081" lon="0.32481">
        <ele>110.8</ele>
        <time>2020-05-30T16:16:21Z</time>
      </trkpt>
      <trkpt lat="46.57077" lon="0.32475">
        <ele>110.9</ele>
        <time>2020-05-30T16:16:22Z</time>
      </trkpt>
      <trkpt lat="46.57073" lon="0.32469">
        <ele>111</ele>
        <time>2020-05-30T16:16:23Z</time>
      </trkpt>
      <trkpt lat="46.57068" lon="0.32463">
        <ele>111.2</ele>
        <time>2020-05-30T16:16:24Z</time>
      </trkpt>
      <trkpt lat="46.57064" lon="0.32457">
        <ele>111.4</ele>
        <time>2020-05-30T16:16:25Z</time>
      </trkpt>
      <trkpt lat="46.57059" lon="0.3245">
        <ele>111.6</ele>
        <time>2020-05-30T16:16:26Z</time>
      </trkpt>
      <trkpt lat="46.57055" lon="0.32444">
        <ele>111.8</ele>
        <time>2020-05-30T16:16:27Z</time>
      </trkpt>
      <trkpt lat="46.5705" lon="0.32438">
        <ele>112</ele>
        <time>2020-05-30T16:16:28Z</time>
      </trkpt>
      <trkpt lat="46.57045" lon="0.32432">
        <ele>112.2</ele>
        <time>2020-05-30T16:16:29Z</time>
      </trkpt>
      <trkpt lat="46.57041" lon="0.32425">
        <ele>112.3</ele>
        <time>2020-05-30T16:16:30Z</time>
      </trkpt>
      <trkpt lat="46.57036" lon="0.32419">
        <ele>112.5</ele>
        <time>2020-05-30T16:16:31Z</time>
      </trkpt>
      <trkpt lat="46.57031" lon="0.32412">
        <ele>112.7</ele>
        <time>2020-05-30T16:16:32Z</time>
      </trkpt>
      <trkpt lat="46.57027" lon="0.32404">
        <ele>113</ele>
        <time>2020-05-30T16:16:33Z</time>
      </trkpt>
      <trkpt lat="46.57023" lon="0.32395">
        <ele>113.2</ele>
        <time>2020-05-30T16:16:34Z</time>
      </trkpt>
      <trkpt lat="46.57019" lon="0.32387">
        <ele>113.5</ele>
        <time>2020-05-30T16:16:35Z</time>
      </trkpt>
      <trkpt lat="46.57015" lon="0.32378">
        <ele>113.7</ele>
        <time>2020-05-30T16:16:36Z</time>
      </trkpt>
      <trkpt lat="46.5701" lon="0.3237">
        <ele>114</ele>
        <time>2020-05-30T16:16:37Z</time>
      </trkpt>
      <trkpt lat="46.57005" lon="0.32364">
        <ele>114.2</ele>
        <time>2020-05-30T16:16:38Z</time>
      </trkpt>
      <trkpt lat="46.57" lon="0.32356">
        <ele>114.4</ele>
        <time>2020-05-30T16:16:39Z</time>
      </trkpt>
      <trkpt lat="46.56996" lon="0.3235">
        <ele>114.6</ele>
        <time>2020-05-30T16:16:40Z</time>
      </trkpt>
      <trkpt lat="46.56991" lon="0.32341">
        <ele>114.8</ele>
        <time>2020-05-30T16:16:41Z</time>
      </trkpt>
      <trkpt lat="46.56985" lon="0.32333">
        <ele>115</ele>
        <time>2020-05-30T16:16:42Z</time>
      </trkpt>
      <trkpt lat="46.5698" lon="0.32326">
        <ele>115.2</ele>
        <time>2020-05-30T16:16:43Z</time>
      </trkpt>
      <trkpt lat="46.56974" lon="0.32319">
        <ele>115.4</ele>
        <time>2020-05-30T16:16:44Z</time>
      </trkpt>
      <trkpt lat="46.56971" lon="0.3231">
        <ele>115.6</ele>
        <time>2020-05-30T16:16:45Z</time>
      </trkpt>
      <trkpt lat="46.56966" lon="0.32303">
        <ele>115.8</ele>
        <time>2020-05-30T16:16:46Z</time>
      </trkpt>
      <trkpt lat="46.56961" lon="0.32297">
        <ele>115.9</ele>
        <time>2020-05-30T16:16:47Z</time>
      </trkpt>
      <trkpt lat="46.56957" lon="0.32291">
        <ele>116.1</ele>
        <time>2020-05-30T16:16:48Z</time>
      </trkpt>
      <trkpt lat="46.56952" lon="0.32285">
        <ele>116.2</ele>
        <time>2020-05-30T16:16:49Z</time>
      </trkpt>
      <trkpt lat="46.56947" lon="0.32278">
        <ele>116.4</ele>
        <time>2020-05-30T16:16:50Z</time>
      </trkpt>
      <trkpt lat="46.56943" lon="0.3227">
        <ele>116.5</ele>
        <time>2020-05-30T16:16:51Z</time>
      </trkpt>
      <trkpt lat="46.56939" lon="0.32262">
        <ele>116.7</ele>
        <time>2020-05-30T16:16:52Z</time>
      </trkpt>
      <trkpt lat="46.56935" lon="0.32255">
        <ele>116.8</ele>
        <time>2020-05-30T16:16:53Z</time>
      </trkpt>
      <trkpt lat="46.5693" lon="0.32248">
        <ele>116.8</ele>
        <time>2020-05-30T16:16:54Z</time>
      </trkpt>
      <trkpt lat="46.56926" lon="0.32241">
        <ele>116.9</ele>
        <time>2020-05-30T16:16:55Z</time>
      </trkpt>
      <trkpt lat="46.56921" lon="0.32233">
        <ele>117</ele>
        <time>2020-05-30T16:16:56Z</time>
      </trkpt>
      <trkpt lat="46.56917" lon="0.32225">
        <ele>117</ele>
        <time>2020-05-30T16:16:57Z</time>
      </trkpt>
      <trkpt lat="46.56913" lon="0.32217">
        <ele>117</ele>
        <time>2020-05-30T16:16:58Z</time>
      </trkpt>
      <trkpt lat="46.56908" lon="0.32211">
        <ele>117.1</ele>
        <time>2020-05-30T16:16:59Z</time>
      </trkpt>
      <trkpt lat="46.56904" lon="0.32205">
        <ele>117.1</ele>
        <time>2020-05-30T16:17:00Z</time>
      </trkpt>
      <trkpt lat="46.56899" lon="0.32198">
        <ele>117.1</ele>
        <time>2020-05-30T16:17:01Z</time>
      </trkpt>
      <trkpt lat="46.56895" lon="0.32191">
        <ele>117.1</ele>
        <time>2020-05-30T16:17:02Z</time>
      </trkpt>
      <trkpt lat="46.5689" lon="0.32184">
        <ele>117.1</ele>
        <time>2020-05-30T16:17:03Z</time>
      </trkpt>
      <trkpt lat="46.56885" lon="0.32177">
        <ele>117.2</ele>
        <time>2020-05-30T16:17:04Z</time>
      </trkpt>
      <trkpt lat="46.56881" lon="0.3217">
        <ele>117.2</ele>
        <time>2020-05-30T16:17:05Z</time>
      </trkpt>
      <trkpt lat="46.56876" lon="0.32164">
        <ele>117.3</ele>
        <time>2020-05-30T16:17:06Z</time>
      </trkpt>
      <trkpt lat="46.56871" lon="0.32157">
        <ele>117.4</ele>
        <time>2020-05-30T16:17:07Z</time>
      </trkpt>
      <trkpt lat="46.56866" lon="0.3215">
        <ele>117.4</ele>
        <time>2020-05-30T16:17:08Z</time>
      </trkpt>
      <trkpt lat="46.56862" lon="0.32143">
        <ele>117.5</ele>
        <time>2020-05-30T16:17:09Z</time>
      </trkpt>
      <trkpt lat="46.56857" lon="0.32135">
        <ele>117.6</ele>
        <time>2020-05-30T16:17:10Z</time>
      </trkpt>
      <trkpt lat="46.56852" lon="0.32128">
        <ele>117.7</ele>
        <time>2020-05-30T16:17:11Z</time>
      </trkpt>
      <trkpt lat="46.56846" lon="0.32123">
        <ele>117.7</ele>
        <time>2020-05-30T16:17:12Z</time>
      </trkpt>
      <trkpt lat="46.56842" lon="0.32116">
        <ele>117.8</ele>
        <time>2020-05-30T16:17:13Z</time>
      </trkpt>
      <trkpt lat="46.56837" lon="0.32108">
        <ele>117.8</ele>
        <time>2020-05-30T16:17:14Z</time>
      </trkpt>
      <trkpt lat="46.56832" lon="0.32101">
        <ele>117.9</ele>
        <time>2020-05-30T16:17:15Z</time>
      </trkpt>
      <trkpt lat="46.56828" lon="0.32093">
        <ele>117.9</ele>
        <time>2020-05-30T16:17:16Z</time>
      </trkpt>
      <trkpt lat="46.56824" lon="0.32085">
        <ele>118</ele>
        <time>2020-05-30T16:17:17Z</time>
      </trkpt>
      <trkpt lat="46.5682" lon="0.32078">
        <ele>118</ele>
        <time>2020-05-30T16:17:18Z</time>
      </trkpt>
      <trkpt lat="46.56816" lon="0.3207">
        <ele>118</ele>
        <time>2020-05-30T16:17:19Z</time>
      </trkpt>
      <trkpt lat="46.56812" lon="0.32062">
        <ele>118.1</ele>
        <time>2020-05-30T16:17:20Z</time>
      </trkpt>
      <trkpt lat="46.56808" lon="0.32056">
        <ele>118.1</ele>
        <time>2020-05-30T16:17:21Z</time>
      </trkpt>
      <trkpt lat="46.56804" lon="0.32051">
        <ele>118.1</ele>
        <time>2020-05-30T16:17:22Z</time>
      </trkpt>
      <trkpt lat="46.568" lon="0.32046">
        <ele>118.2</ele>
        <time>2020-05-30T16:17:23Z</time>
      </trkpt>
      <trkpt lat="46.56796" lon="0.32042">
        <ele>118.2</ele>
        <time>2020-05-30T16:17:24Z</time>
      </trkpt>
      <trkpt lat="46.56792" lon="0.32038">
        <ele>118.2</ele>
        <time>2020-05-30T16:17:25Z</time>
      </trkpt>
      <trkpt lat="46.5679" lon="0.32034">
        <ele>118.2</ele>
        <time>2020-05-30T16:17:26Z</time>
      </trkpt>
      <trkpt lat="46.56786" lon="0.32032">
        <ele>118.2</ele>
        <time>2020-05-30T16:17:27Z</time>
      </trkpt>
      <trkpt lat="46.56784" lon="0.32029">
        <ele>118.2</ele>
        <time>2020-05-30T16:17:28Z</time>
      </trkpt>
      <trkpt lat="46.56782" lon="0.32028">
        <ele>118.2</ele>
        <time>2020-05-30T16:17:29Z</time>
      </trkpt>
      <trkpt lat="46.5678" lon="0.32028">
        <ele>118.2</ele>
        <time>2020-05-30T16:17:30Z</time>
      </trkpt>
      <trkpt lat="46.56779" lon="0.32028">
        <ele>118.2</ele>
        <time>2020-05-30T16:17:31Z</time>
      </trkpt>
      <trkpt lat="46.56778" lon="0.32026">
        <ele>118.2</ele>
        <time>2020-05-30T16:17:32Z</time>
      </trkpt>
      <trkpt lat="46.56777" lon="0.32025">
        <ele>118.2</ele>
        <time>2020-05-30T16:17:33Z</time>
      </trkpt>
      <trkpt lat="46.56775" lon="0.32021">
        <ele>118.2</ele>
        <time>2020-05-30T16:17:34Z</time>
      </trkpt>
      <trkpt lat="46.56774" lon="0.32019">
        <ele>118.2</ele>
        <time>2020-05-30T16:17:35Z</time>
      </trkpt>
      <trkpt lat="46.56773" lon="0.32015">
        <ele>118.2</ele>
        <time>2020-05-30T16:17:36Z</time>
      </trkpt>
      <trkpt lat="46.56771" lon="0.32011">
        <ele>118.3</ele>
        <time>2020-05-30T16:17:37Z</time>
      </trkpt>
      <trkpt lat="46.56769" lon="0.32007">
        <ele>118.2</ele>
        <time>2020-05-30T16:17:38Z</time>
      </trkpt>
      <trkpt lat="46.56766" lon="0.32004">
        <ele>118.2</ele>
        <time>2020-05-30T16:17:39Z</time>
      </trkpt>
      <trkpt lat="46.56763" lon="0.32001">
        <ele>118.2</ele>
        <time>2020-05-30T16:17:40Z</time>
      </trkpt>
      <trkpt lat="46.56759" lon="0.31997">
        <ele>118.2</ele>
        <time>2020-05-30T16:17:41Z</time>
      </trkpt>
      <trkpt lat="46.56755" lon="0.31994">
        <ele>118.2</ele>
        <time>2020-05-30T16:17:42Z</time>
      </trkpt>
      <trkpt lat="46.56753" lon="0.31988">
        <ele>118.2</ele>
        <time>2020-05-30T16:17:43Z</time>
      </trkpt>
      <trkpt lat="46.56749" lon="0.31983">
        <ele>118.2</ele>
        <time>2020-05-30T16:17:44Z</time>
      </trkpt>
      <trkpt lat="46.56744" lon="0.31979">
        <ele>118.2</ele>
        <time>2020-05-30T16:17:45Z</time>
      </trkpt>
      <trkpt lat="46.5674" lon="0.31975">
        <ele>118.2</ele>
        <time>2020-05-30T16:17:46Z</time>
      </trkpt>
      <trkpt lat="46.56736" lon="0.3197">
        <ele>118.2</ele>
        <time>2020-05-30T16:17:47Z</time>
      </trkpt>
      <trkpt lat="46.5673" lon="0.31967">
        <ele>118.3</ele>
        <time>2020-05-30T16:17:48Z</time>
      </trkpt>
      <trkpt lat="46.56725" lon="0.31963">
        <ele>118.3</ele>
        <time>2020-05-30T16:17:49Z</time>
      </trkpt>
      <trkpt lat="46.5672" lon="0.31958">
        <ele>118.3</ele>
        <time>2020-05-30T16:17:50Z</time>
      </trkpt>
      <trkpt lat="46.56714" lon="0.31954">
        <ele>118.4</ele>
        <time>2020-05-30T16:17:51Z</time>
      </trkpt>
      <trkpt lat="46.56708" lon="0.3195">
        <ele>118.4</ele>
        <time>2020-05-30T16:17:52Z</time>
      </trkpt>
      <trkpt lat="46.56703" lon="0.31945">
        <ele>118.4</ele>
        <time>2020-05-30T16:17:53Z</time>
      </trkpt>
      <trkpt lat="46.56696" lon="0.3194">
        <ele>118.4</ele>
        <time>2020-05-30T16:17:54Z</time>
      </trkpt>
      <trkpt lat="46.5669" lon="0.31935">
        <ele>118.4</ele>
        <time>2020-05-30T16:17:55Z</time>
      </trkpt>
      <trkpt lat="46.56683" lon="0.31932">
        <ele>118.4</ele>
        <time>2020-05-30T16:17:56Z</time>
      </trkpt>
      <trkpt lat="46.56676" lon="0.31927">
        <ele>118.4</ele>
        <time>2020-05-30T16:17:57Z</time>
      </trkpt>
      <trkpt lat="46.5667" lon="0.31923">
        <ele>118.4</ele>
        <time>2020-05-30T16:17:58Z</time>
      </trkpt>
      <trkpt lat="46.56663" lon="0.31917">
        <ele>118.4</ele>
        <time>2020-05-30T16:17:59Z</time>
      </trkpt>
      <trkpt lat="46.56657" lon="0.31912">
        <ele>118.4</ele>
        <time>2020-05-30T16:18:00Z</time>
      </trkpt>
      <trkpt lat="46.5665" lon="0.31907">
        <ele>118.5</ele>
        <time>2020-05-30T16:18:01Z</time>
      </trkpt>
      <trkpt lat="46.56643" lon="0.31901">
        <ele>118.5</ele>
        <time>2020-05-30T16:18:02Z</time>
      </trkpt>
      <trkpt lat="46.56636" lon="0.31897">
        <ele>118.5</ele>
        <time>2020-05-30T16:18:03Z</time>
      </trkpt>
      <trkpt lat="46.5663" lon="0.31891">
        <ele>118.5</ele>
        <time>2020-05-30T16:18:04Z</time>
      </trkpt>
      <trkpt lat="46.56623" lon="0.31886">
        <ele>118.5</ele>
        <time>2020-05-30T16:18:05Z</time>
      </trkpt>
      <trkpt lat="46.56616" lon="0.3188">
        <ele>118.4</ele>
        <time>2020-05-30T16:18:06Z</time>
      </trkpt>
      <trkpt lat="46.56609" lon="0.31874">
        <ele>118.4</ele>
        <time>2020-05-30T16:18:07Z</time>
      </trkpt>
      <trkpt lat="46.56602" lon="0.31869">
        <ele>118.4</ele>
        <time>2020-05-30T16:18:08Z</time>
      </trkpt>
      <trkpt lat="46.56595" lon="0.31863">
        <ele>118.3</ele>
        <time>2020-05-30T16:18:09Z</time>
      </trkpt>
      <trkpt lat="46.56588" lon="0.31859">
        <ele>118.3</ele>
        <time>2020-05-30T16:18:10Z</time>
      </trkpt>
      <trkpt lat="46.56581" lon="0.31854">
        <ele>118.3</ele>
        <time>2020-05-30T16:18:11Z</time>
      </trkpt>
      <trkpt lat="46.56574" lon="0.3185">
        <ele>118.2</ele>
        <time>2020-05-30T16:18:12Z</time>
      </trkpt>
      <trkpt lat="46.56567" lon="0.31845">
        <ele>118.1</ele>
        <time>2020-05-30T16:18:13Z</time>
      </trkpt>
      <trkpt lat="46.5656" lon="0.3184">
        <ele>118.1</ele>
        <time>2020-05-30T16:18:14Z</time>
      </trkpt>
      <trkpt lat="46.56552" lon="0.31834">
        <ele>118</ele>
        <time>2020-05-30T16:18:15Z</time>
      </trkpt>
      <trkpt lat="46.56545" lon="0.31829">
        <ele>117.9</ele>
        <time>2020-05-30T16:18:16Z</time>
      </trkpt>
      <trkpt lat="46.56538" lon="0.31824">
        <ele>117.8</ele>
        <time>2020-05-30T16:18:17Z</time>
      </trkpt>
      <trkpt lat="46.56531" lon="0.31819">
        <ele>117.8</ele>
        <time>2020-05-30T16:18:18Z</time>
      </trkpt>
      <trkpt lat="46.56524" lon="0.31814">
        <ele>117.7</ele>
        <time>2020-05-30T16:18:19Z</time>
      </trkpt>
      <trkpt lat="46.56517" lon="0.31809">
        <ele>117.7</ele>
        <time>2020-05-30T16:18:20Z</time>
      </trkpt>
      <trkpt lat="46.5651" lon="0.31805">
        <ele>117.6</ele>
        <time>2020-05-30T16:18:21Z</time>
      </trkpt>
      <trkpt lat="46.56503" lon="0.318">
        <ele>117.6</ele>
        <time>2020-05-30T16:18:22Z</time>
      </trkpt>
      <trkpt lat="46.56496" lon="0.31795">
        <ele>117.6</ele>
        <time>2020-05-30T16:18:23Z</time>
      </trkpt>
      <trkpt lat="46.56489" lon="0.3179">
        <ele>117.6</ele>
        <time>2020-05-30T16:18:24Z</time>
      </trkpt>
      <trkpt lat="46.56482" lon="0.31785">
        <ele>117.7</ele>
        <time>2020-05-30T16:18:25Z</time>
      </trkpt>
      <trkpt lat="46.56475" lon="0.31781">
        <ele>117.7</ele>
        <time>2020-05-30T16:18:26Z</time>
      </trkpt>
      <trkpt lat="46.56468" lon="0.31776">
        <ele>117.7</ele>
        <time>2020-05-30T16:18:27Z</time>
      </trkpt>
      <trkpt lat="46.56461" lon="0.31771">
        <ele>117.7</ele>
        <time>2020-05-30T16:18:28Z</time>
      </trkpt>
      <trkpt lat="46.56455" lon="0.31766">
        <ele>117.6</ele>
        <time>2020-05-30T16:18:29Z</time>
      </trkpt>
      <trkpt lat="46.56448" lon="0.3176">
        <ele>117.6</ele>
        <time>2020-05-30T16:18:30Z</time>
      </trkpt>
      <trkpt lat="46.56442" lon="0.31755">
        <ele>117.6</ele>
        <time>2020-05-30T16:18:31Z</time>
      </trkpt>
      <trkpt lat="46.56435" lon="0.3175">
        <ele>117.6</ele>
        <time>2020-05-30T16:18:32Z</time>
      </trkpt>
      <trkpt lat="46.56429" lon="0.31744">
        <ele>117.7</ele>
        <time>2020-05-30T16:18:33Z</time>
      </trkpt>
      <trkpt lat="46.56422" lon="0.3174">
        <ele>117.7</ele>
        <time>2020-05-30T16:18:34Z</time>
      </trkpt>
      <trkpt lat="46.56416" lon="0.31736">
        <ele>117.7</ele>
        <time>2020-05-30T16:18:35Z</time>
      </trkpt>
      <trkpt lat="46.5641" lon="0.31732">
        <ele>117.7</ele>
        <time>2020-05-30T16:18:36Z</time>
      </trkpt>
      <trkpt lat="46.56404" lon="0.31726">
        <ele>117.7</ele>
        <time>2020-05-30T16:18:37Z</time>
      </trkpt>
      <trkpt lat="46.56398" lon="0.31721">
        <ele>117.7</ele>
        <time>2020-05-30T16:18:38Z</time>
      </trkpt>
      <trkpt lat="46.56392" lon="0.31717">
        <ele>117.7</ele>
        <time>2020-05-30T16:18:39Z</time>
      </trkpt>
      <trkpt lat="46.56385" lon="0.31712">
        <ele>117.7</ele>
        <time>2020-05-30T16:18:40Z</time>
      </trkpt>
      <trkpt lat="46.56379" lon="0.31708">
        <ele>117.7</ele>
        <time>2020-05-30T16:18:41Z</time>
      </trkpt>
      <trkpt lat="46.56373" lon="0.31704">
        <ele>117.7</ele>
        <time>2020-05-30T16:18:42Z</time>
      </trkpt>
      <trkpt lat="46.56367" lon="0.317">
        <ele>117.7</ele>
        <time>2020-05-30T16:18:43Z</time>
      </trkpt>
      <trkpt lat="46.56361" lon="0.31695">
        <ele>117.7</ele>
        <time>2020-05-30T16:18:44Z</time>
      </trkpt>
      <trkpt lat="46.56355" lon="0.31691">
        <ele>117.7</ele>
        <time>2020-05-30T16:18:45Z</time>
      </trkpt>
      <trkpt lat="46.56349" lon="0.31688">
        <ele>117.7</ele>
        <time>2020-05-30T16:18:46Z</time>
      </trkpt>
      <trkpt lat="46.56343" lon="0.31683">
        <ele>117.7</ele>
        <time>2020-05-30T16:18:47Z</time>
      </trkpt>
      <trkpt lat="46.56336" lon="0.31679">
        <ele>117.7</ele>
        <time>2020-05-30T16:18:48Z</time>
      </trkpt>
      <trkpt lat="46.5633" lon="0.31674">
        <ele>117.8</ele>
        <time>2020-05-30T16:18:49Z</time>
      </trkpt>
      <trkpt lat="46.56324" lon="0.31669">
        <ele>117.8</ele>
        <time>2020-05-30T16:18:50Z</time>
      </trkpt>
      <trkpt lat="46.56317" lon="0.31665">
        <ele>117.9</ele>
        <time>2020-05-30T16:18:51Z</time>
      </trkpt>
      <trkpt lat="46.56311" lon="0.3166">
        <ele>117.9</ele>
        <time>2020-05-30T16:18:52Z</time>
      </trkpt>
      <trkpt lat="46.56305" lon="0.31654">
        <ele>117.9</ele>
        <time>2020-05-30T16:18:53Z</time>
      </trkpt>
      <trkpt lat="46.56299" lon="0.31648">
        <ele>117.9</ele>
        <time>2020-05-30T16:18:54Z</time>
      </trkpt>
      <trkpt lat="46.56293" lon="0.31642">
        <ele>117.9</ele>
        <time>2020-05-30T16:18:55Z</time>
      </trkpt>
      <trkpt lat="46.56286" lon="0.31636">
        <ele>117.9</ele>
        <time>2020-05-30T16:18:56Z</time>
      </trkpt>
      <trkpt lat="46.5628" lon="0.3163">
        <ele>117.8</ele>
        <time>2020-05-30T16:18:57Z</time>
      </trkpt>
      <trkpt lat="46.56274" lon="0.31623">
        <ele>117.8</ele>
        <time>2020-05-30T16:18:58Z</time>
      </trkpt>
      <trkpt lat="46.56267" lon="0.31616">
        <ele>117.8</ele>
        <time>2020-05-30T16:18:59Z</time>
      </trkpt>
      <trkpt lat="46.56261" lon="0.3161">
        <ele>117.8</ele>
        <time>2020-05-30T16:19:00Z</time>
      </trkpt>
      <trkpt lat="46.56255" lon="0.31602">
        <ele>117.7</ele>
        <time>2020-05-30T16:19:01Z</time>
      </trkpt>
      <trkpt lat="46.56249" lon="0.31595">
        <ele>117.5</ele>
        <time>2020-05-30T16:19:02Z</time>
      </trkpt>
      <trkpt lat="46.56242" lon="0.31587">
        <ele>117.4</ele>
        <time>2020-05-30T16:19:03Z</time>
      </trkpt>
      <trkpt lat="46.56236" lon="0.3158">
        <ele>117.2</ele>
        <time>2020-05-30T16:19:04Z</time>
      </trkpt>
      <trkpt lat="46.56228" lon="0.31574">
        <ele>117</ele>
        <time>2020-05-30T16:19:05Z</time>
      </trkpt>
      <trkpt lat="46.56222" lon="0.31568">
        <ele>116.9</ele>
        <time>2020-05-30T16:19:06Z</time>
      </trkpt>
      <trkpt lat="46.56215" lon="0.31561">
        <ele>116.8</ele>
        <time>2020-05-30T16:19:07Z</time>
      </trkpt>
      <trkpt lat="46.56209" lon="0.31553">
        <ele>116.8</ele>
        <time>2020-05-30T16:19:08Z</time>
      </trkpt>
      <trkpt lat="46.56202" lon="0.31546">
        <ele>116.7</ele>
        <time>2020-05-30T16:19:09Z</time>
      </trkpt>
      <trkpt lat="46.56196" lon="0.31538">
        <ele>116.6</ele>
        <time>2020-05-30T16:19:10Z</time>
      </trkpt>
      <trkpt lat="46.56189" lon="0.31531">
        <ele>116.5</ele>
        <time>2020-05-30T16:19:11Z</time>
      </trkpt>
      <trkpt lat="46.56183" lon="0.31522">
        <ele>116.3</ele>
        <time>2020-05-30T16:19:12Z</time>
      </trkpt>
      <trkpt lat="46.56177" lon="0.31515">
        <ele>116.2</ele>
        <time>2020-05-30T16:19:13Z</time>
      </trkpt>
      <trkpt lat="46.5617" lon="0.31508">
        <ele>116.2</ele>
        <time>2020-05-30T16:19:14Z</time>
      </trkpt>
      <trkpt lat="46.56164" lon="0.31501">
        <ele>116.1</ele>
        <time>2020-05-30T16:19:15Z</time>
      </trkpt>
      <trkpt lat="46.56157" lon="0.31495">
        <ele>116</ele>
        <time>2020-05-30T16:19:16Z</time>
      </trkpt>
      <trkpt lat="46.5615" lon="0.31488">
        <ele>116</ele>
        <time>2020-05-30T16:19:17Z</time>
      </trkpt>
      <trkpt lat="46.56144" lon="0.31481">
        <ele>115.9</ele>
        <time>2020-05-30T16:19:18Z</time>
      </trkpt>
      <trkpt lat="46.56138" lon="0.31473">
        <ele>115.9</ele>
        <time>2020-05-30T16:19:19Z</time>
      </trkpt>
      <trkpt lat="46.56132" lon="0.31466">
        <ele>115.9</ele>
        <time>2020-05-30T16:19:20Z</time>
      </trkpt>
      <trkpt lat="46.56126" lon="0.31459">
        <ele>115.9</ele>
        <time>2020-05-30T16:19:21Z</time>
      </trkpt>
      <trkpt lat="46.56119" lon="0.31452">
        <ele>115.8</ele>
        <time>2020-05-30T16:19:22Z</time>
      </trkpt>
      <trkpt lat="46.56113" lon="0.31446">
        <ele>115.8</ele>
        <time>2020-05-30T16:19:23Z</time>
      </trkpt>
      <trkpt lat="46.56107" lon="0.31438">
        <ele>115.7</ele>
        <time>2020-05-30T16:19:24Z</time>
      </trkpt>
      <trkpt lat="46.56102" lon="0.31431">
        <ele>115.6</ele>
        <time>2020-05-30T16:19:25Z</time>
      </trkpt>
      <trkpt lat="46.56096" lon="0.31425">
        <ele>115.6</ele>
        <time>2020-05-30T16:19:26Z</time>
      </trkpt>
      <trkpt lat="46.56089" lon="0.31419">
        <ele>115.7</ele>
        <time>2020-05-30T16:19:27Z</time>
      </trkpt>
      <trkpt lat="46.56084" lon="0.31412">
        <ele>115.8</ele>
        <time>2020-05-30T16:19:28Z</time>
      </trkpt>
      <trkpt lat="46.56079" lon="0.31405">
        <ele>116</ele>
        <time>2020-05-30T16:19:29Z</time>
      </trkpt>
      <trkpt lat="46.56073" lon="0.31398">
        <ele>116.1</ele>
        <time>2020-05-30T16:19:30Z</time>
      </trkpt>
      <trkpt lat="46.56068" lon="0.31391">
        <ele>116.3</ele>
        <time>2020-05-30T16:19:31Z</time>
      </trkpt>
      <trkpt lat="46.56063" lon="0.31385">
        <ele>116.4</ele>
        <time>2020-05-30T16:19:32Z</time>
      </trkpt>
      <trkpt lat="46.56057" lon="0.3138">
        <ele>116.6</ele>
        <time>2020-05-30T16:19:33Z</time>
      </trkpt>
      <trkpt lat="46.56051" lon="0.31375">
        <ele>116.7</ele>
        <time>2020-05-30T16:19:34Z</time>
      </trkpt>
      <trkpt lat="46.56046" lon="0.3137">
        <ele>116.9</ele>
        <time>2020-05-30T16:19:35Z</time>
      </trkpt>
      <trkpt lat="46.5604" lon="0.31365">
        <ele>117.1</ele>
        <time>2020-05-30T16:19:36Z</time>
      </trkpt>
      <trkpt lat="46.56035" lon="0.31358">
        <ele>117.1</ele>
        <time>2020-05-30T16:19:37Z</time>
      </trkpt>
      <trkpt lat="46.5603" lon="0.31352">
        <ele>117.1</ele>
        <time>2020-05-30T16:19:38Z</time>
      </trkpt>
      <trkpt lat="46.56025" lon="0.31346">
        <ele>117.1</ele>
        <time>2020-05-30T16:19:39Z</time>
      </trkpt>
      <trkpt lat="46.5602" lon="0.3134">
        <ele>117.2</ele>
        <time>2020-05-30T16:19:40Z</time>
      </trkpt>
      <trkpt lat="46.56015" lon="0.31333">
        <ele>117.4</ele>
        <time>2020-05-30T16:19:41Z</time>
      </trkpt>
      <trkpt lat="46.5601" lon="0.31327">
        <ele>117.5</ele>
        <time>2020-05-30T16:19:42Z</time>
      </trkpt>
      <trkpt lat="46.56005" lon="0.3132">
        <ele>117.7</ele>
        <time>2020-05-30T16:19:43Z</time>
      </trkpt>
      <trkpt lat="46.55999" lon="0.31314">
        <ele>117.9</ele>
        <time>2020-05-30T16:19:44Z</time>
      </trkpt>
      <trkpt lat="46.55994" lon="0.31308">
        <ele>118</ele>
        <time>2020-05-30T16:19:45Z</time>
      </trkpt>
      <trkpt lat="46.55989" lon="0.31302">
        <ele>118.1</ele>
        <time>2020-05-30T16:19:46Z</time>
      </trkpt>
      <trkpt lat="46.55984" lon="0.31296">
        <ele>118.3</ele>
        <time>2020-05-30T16:19:47Z</time>
      </trkpt>
      <trkpt lat="46.55979" lon="0.31291">
        <ele>118.4</ele>
        <time>2020-05-30T16:19:48Z</time>
      </trkpt>
      <trkpt lat="46.55974" lon="0.31285">
        <ele>118.5</ele>
        <time>2020-05-30T16:19:49Z</time>
      </trkpt>
      <trkpt lat="46.55969" lon="0.31278">
        <ele>118.7</ele>
        <time>2020-05-30T16:19:50Z</time>
      </trkpt>
      <trkpt lat="46.55964" lon="0.31272">
        <ele>118.9</ele>
        <time>2020-05-30T16:19:51Z</time>
      </trkpt>
      <trkpt lat="46.55959" lon="0.31266">
        <ele>119</ele>
        <time>2020-05-30T16:19:52Z</time>
      </trkpt>
      <trkpt lat="46.55954" lon="0.3126">
        <ele>119.2</ele>
        <time>2020-05-30T16:19:53Z</time>
      </trkpt>
      <trkpt lat="46.55949" lon="0.31255">
        <ele>119.3</ele>
        <time>2020-05-30T16:19:54Z</time>
      </trkpt>
      <trkpt lat="46.55943" lon="0.31249">
        <ele>119.5</ele>
        <time>2020-05-30T16:19:55Z</time>
      </trkpt>
      <trkpt lat="46.55938" lon="0.31243">
        <ele>119.6</ele>
        <time>2020-05-30T16:19:56Z</time>
      </trkpt>
      <trkpt lat="46.55932" lon="0.31237">
        <ele>119.7</ele>
        <time>2020-05-30T16:19:57Z</time>
      </trkpt>
      <trkpt lat="46.55928" lon="0.31231">
        <ele>119.9</ele>
        <time>2020-05-30T16:19:58Z</time>
      </trkpt>
      <trkpt lat="46.55923" lon="0.31225">
        <ele>120</ele>
        <time>2020-05-30T16:19:59Z</time>
      </trkpt>
      <trkpt lat="46.55918" lon="0.31219">
        <ele>120</ele>
        <time>2020-05-30T16:20:00Z</time>
      </trkpt>
      <trkpt lat="46.55913" lon="0.31213">
        <ele>120.1</ele>
        <time>2020-05-30T16:20:01Z</time>
      </trkpt>
      <trkpt lat="46.55908" lon="0.31209">
        <ele>120.2</ele>
        <time>2020-05-30T16:20:02Z</time>
      </trkpt>
      <trkpt lat="46.55902" lon="0.31205">
        <ele>120.4</ele>
        <time>2020-05-30T16:20:03Z</time>
      </trkpt>
      <trkpt lat="46.55897" lon="0.31201">
        <ele>120.4</ele>
        <time>2020-05-30T16:20:04Z</time>
      </trkpt>
      <trkpt lat="46.55892" lon="0.31197">
        <ele>120.5</ele>
        <time>2020-05-30T16:20:05Z</time>
      </trkpt>
      <trkpt lat="46.55888" lon="0.31192">
        <ele>120.7</ele>
        <time>2020-05-30T16:20:06Z</time>
      </trkpt>
      <trkpt lat="46.55884" lon="0.31186">
        <ele>120.8</ele>
        <time>2020-05-30T16:20:07Z</time>
      </trkpt>
      <trkpt lat="46.55878" lon="0.31182">
        <ele>121</ele>
        <time>2020-05-30T16:20:08Z</time>
      </trkpt>
      <trkpt lat="46.55873" lon="0.31177">
        <ele>121.1</ele>
        <time>2020-05-30T16:20:09Z</time>
      </trkpt>
      <trkpt lat="46.55869" lon="0.31171">
        <ele>121.2</ele>
        <time>2020-05-30T16:20:10Z</time>
      </trkpt>
      <trkpt lat="46.55866" lon="0.31163">
        <ele>121.3</ele>
        <time>2020-05-30T16:20:11Z</time>
      </trkpt>
      <trkpt lat="46.55862" lon="0.31155">
        <ele>121.4</ele>
        <time>2020-05-30T16:20:12Z</time>
      </trkpt>
      <trkpt lat="46.55857" lon="0.31149">
        <ele>121.7</ele>
        <time>2020-05-30T16:20:13Z</time>
      </trkpt>
      <trkpt lat="46.55852" lon="0.31144">
        <ele>121.8</ele>
        <time>2020-05-30T16:20:14Z</time>
      </trkpt>
      <trkpt lat="46.55847" lon="0.31138">
        <ele>121.9</ele>
        <time>2020-05-30T16:20:15Z</time>
      </trkpt>
      <trkpt lat="46.55842" lon="0.31131">
        <ele>122</ele>
        <time>2020-05-30T16:20:16Z</time>
      </trkpt>
      <trkpt lat="46.55837" lon="0.31127">
        <ele>122.2</ele>
        <time>2020-05-30T16:20:17Z</time>
      </trkpt>
      <trkpt lat="46.55832" lon="0.31121">
        <ele>122.3</ele>
        <time>2020-05-30T16:20:18Z</time>
      </trkpt>
      <trkpt lat="46.55827" lon="0.31116">
        <ele>122.4</ele>
        <time>2020-05-30T16:20:19Z</time>
      </trkpt>
      <trkpt lat="46.55823" lon="0.31112">
        <ele>122.5</ele>
        <time>2020-05-30T16:20:20Z</time>
      </trkpt>
      <trkpt lat="46.55818" lon="0.31106">
        <ele>122.6</ele>
        <time>2020-05-30T16:20:21Z</time>
      </trkpt>
      <trkpt lat="46.55814" lon="0.31101">
        <ele>122.7</ele>
        <time>2020-05-30T16:20:22Z</time>
      </trkpt>
      <trkpt lat="46.5581" lon="0.31096">
        <ele>122.8</ele>
        <time>2020-05-30T16:20:23Z</time>
      </trkpt>
      <trkpt lat="46.55805" lon="0.31091">
        <ele>123</ele>
        <time>2020-05-30T16:20:24Z</time>
      </trkpt>
      <trkpt lat="46.55801" lon="0.31085">
        <ele>123.1</ele>
        <time>2020-05-30T16:20:25Z</time>
      </trkpt>
      <trkpt lat="46.55796" lon="0.31079">
        <ele>123.2</ele>
        <time>2020-05-30T16:20:26Z</time>
      </trkpt>
      <trkpt lat="46.55792" lon="0.31074">
        <ele>123.3</ele>
        <time>2020-05-30T16:20:27Z</time>
      </trkpt>
      <trkpt lat="46.55787" lon="0.31068">
        <ele>123.4</ele>
        <time>2020-05-30T16:20:28Z</time>
      </trkpt>
      <trkpt lat="46.55783" lon="0.31063">
        <ele>123.5</ele>
        <time>2020-05-30T16:20:29Z</time>
      </trkpt>
      <trkpt lat="46.55778" lon="0.31057">
        <ele>123.5</ele>
        <time>2020-05-30T16:20:30Z</time>
      </trkpt>
      <trkpt lat="46.55773" lon="0.31052">
        <ele>123.6</ele>
        <time>2020-05-30T16:20:31Z</time>
      </trkpt>
      <trkpt lat="46.55769" lon="0.31046">
        <ele>123.7</ele>
        <time>2020-05-30T16:20:32Z</time>
      </trkpt>
      <trkpt lat="46.55764" lon="0.31041">
        <ele>123.7</ele>
        <time>2020-05-30T16:20:33Z</time>
      </trkpt>
      <trkpt lat="46.55759" lon="0.31036">
        <ele>123.8</ele>
        <time>2020-05-30T16:20:34Z</time>
      </trkpt>
      <trkpt lat="46.55755" lon="0.3103">
        <ele>123.9</ele>
        <time>2020-05-30T16:20:35Z</time>
      </trkpt>
      <trkpt lat="46.5575" lon="0.31024">
        <ele>124</ele>
        <time>2020-05-30T16:20:36Z</time>
      </trkpt>
      <trkpt lat="46.55745" lon="0.31019">
        <ele>124</ele>
        <time>2020-05-30T16:20:37Z</time>
      </trkpt>
      <trkpt lat="46.55741" lon="0.31012">
        <ele>124.2</ele>
        <time>2020-05-30T16:20:38Z</time>
      </trkpt>
      <trkpt lat="46.55736" lon="0.31006">
        <ele>124.4</ele>
        <time>2020-05-30T16:20:39Z</time>
      </trkpt>
      <trkpt lat="46.55731" lon="0.31001">
        <ele>124.5</ele>
        <time>2020-05-30T16:20:40Z</time>
      </trkpt>
      <trkpt lat="46.55725" lon="0.30996">
        <ele>124.6</ele>
        <time>2020-05-30T16:20:41Z</time>
      </trkpt>
      <trkpt lat="46.5572" lon="0.3099">
        <ele>124.8</ele>
        <time>2020-05-30T16:20:42Z</time>
      </trkpt>
      <trkpt lat="46.55715" lon="0.30985">
        <ele>125</ele>
        <time>2020-05-30T16:20:43Z</time>
      </trkpt>
      <trkpt lat="46.5571" lon="0.30979">
        <ele>125.1</ele>
        <time>2020-05-30T16:20:44Z</time>
      </trkpt>
      <trkpt lat="46.55705" lon="0.30973">
        <ele>125.2</ele>
        <time>2020-05-30T16:20:45Z</time>
      </trkpt>
      <trkpt lat="46.557" lon="0.30966">
        <ele>125.4</ele>
        <time>2020-05-30T16:20:46Z</time>
      </trkpt>
      <trkpt lat="46.55695" lon="0.3096">
        <ele>125.5</ele>
        <time>2020-05-30T16:20:47Z</time>
      </trkpt>
      <trkpt lat="46.55689" lon="0.30954">
        <ele>125.8</ele>
        <time>2020-05-30T16:20:48Z</time>
      </trkpt>
      <trkpt lat="46.55684" lon="0.30948">
        <ele>126</ele>
        <time>2020-05-30T16:20:49Z</time>
      </trkpt>
      <trkpt lat="46.55679" lon="0.30942">
        <ele>126.1</ele>
        <time>2020-05-30T16:20:50Z</time>
      </trkpt>
      <trkpt lat="46.55674" lon="0.30935">
        <ele>126.3</ele>
        <time>2020-05-30T16:20:51Z</time>
      </trkpt>
      <trkpt lat="46.5567" lon="0.30929">
        <ele>126.4</ele>
        <time>2020-05-30T16:20:52Z</time>
      </trkpt>
      <trkpt lat="46.55665" lon="0.30923">
        <ele>126.5</ele>
        <time>2020-05-30T16:20:53Z</time>
      </trkpt>
      <trkpt lat="46.5566" lon="0.30915">
        <ele>126.6</ele>
        <time>2020-05-30T16:20:54Z</time>
      </trkpt>
      <trkpt lat="46.55656" lon="0.30908">
        <ele>126.8</ele>
        <time>2020-05-30T16:20:55Z</time>
      </trkpt>
      <trkpt lat="46.55652" lon="0.30904">
        <ele>126.9</ele>
        <time>2020-05-30T16:20:56Z</time>
      </trkpt>
      <trkpt lat="46.55648" lon="0.30901">
        <ele>127</ele>
        <time>2020-05-30T16:20:57Z</time>
      </trkpt>
      <trkpt lat="46.55644" lon="0.30897">
        <ele>127</ele>
        <time>2020-05-30T16:20:58Z</time>
      </trkpt>
      <trkpt lat="46.55639" lon="0.30892">
        <ele>127.1</ele>
        <time>2020-05-30T16:20:59Z</time>
      </trkpt>
      <trkpt lat="46.55636" lon="0.30888">
        <ele>127.2</ele>
        <time>2020-05-30T16:21:00Z</time>
      </trkpt>
      <trkpt lat="46.55632" lon="0.30884">
        <ele>127.2</ele>
        <time>2020-05-30T16:21:01Z</time>
      </trkpt>
      <trkpt lat="46.5563" lon="0.30881">
        <ele>127.3</ele>
        <time>2020-05-30T16:21:02Z</time>
      </trkpt>
      <trkpt lat="46.55629" lon="0.3088">
        <ele>127.3</ele>
        <time>2020-05-30T16:21:03Z</time>
      </trkpt>
      <trkpt lat="46.55627" lon="0.30877">
        <ele>127.3</ele>
        <time>2020-05-30T16:21:04Z</time>
      </trkpt>
      <trkpt lat="46.55624" lon="0.30873">
        <ele>127.4</ele>
        <time>2020-05-30T16:21:05Z</time>
      </trkpt>
      <trkpt lat="46.55623" lon="0.30871">
        <ele>127.4</ele>
        <time>2020-05-30T16:21:06Z</time>
      </trkpt>
      <trkpt lat="46.55619" lon="0.30868">
        <ele>127.5</ele>
        <time>2020-05-30T16:21:07Z</time>
      </trkpt>
      <trkpt lat="46.55616" lon="0.30866">
        <ele>127.5</ele>
        <time>2020-05-30T16:21:08Z</time>
      </trkpt>
      <trkpt lat="46.55613" lon="0.30862">
        <ele>127.6</ele>
        <time>2020-05-30T16:21:09Z</time>
      </trkpt>
      <trkpt lat="46.5561" lon="0.3086">
        <ele>127.6</ele>
        <time>2020-05-30T16:21:10Z</time>
      </trkpt>
      <trkpt lat="46.55607" lon="0.30856">
        <ele>127.6</ele>
        <time>2020-05-30T16:21:11Z</time>
      </trkpt>
      <trkpt lat="46.55602" lon="0.30852">
        <ele>127.7</ele>
        <time>2020-05-30T16:21:12Z</time>
      </trkpt>
      <trkpt lat="46.55598" lon="0.30848">
        <ele>127.7</ele>
        <time>2020-05-30T16:21:13Z</time>
      </trkpt>
      <trkpt lat="46.55594" lon="0.30843">
        <ele>127.7</ele>
        <time>2020-05-30T16:21:14Z</time>
      </trkpt>
      <trkpt lat="46.5559" lon="0.30838">
        <ele>127.8</ele>
        <time>2020-05-30T16:21:15Z</time>
      </trkpt>
      <trkpt lat="46.55585" lon="0.30832">
        <ele>127.8</ele>
        <time>2020-05-30T16:21:16Z</time>
      </trkpt>
      <trkpt lat="46.55581" lon="0.30828">
        <ele>127.8</ele>
        <time>2020-05-30T16:21:17Z</time>
      </trkpt>
      <trkpt lat="46.55576" lon="0.30822">
        <ele>127.9</ele>
        <time>2020-05-30T16:21:18Z</time>
      </trkpt>
      <trkpt lat="46.55571" lon="0.30813">
        <ele>128</ele>
        <time>2020-05-30T16:21:19Z</time>
      </trkpt>
      <trkpt lat="46.55568" lon="0.30809">
        <ele>128.1</ele>
        <time>2020-05-30T16:21:20Z</time>
      </trkpt>
      <trkpt lat="46.55565" lon="0.30804">
        <ele>128.1</ele>
        <time>2020-05-30T16:21:21Z</time>
      </trkpt>
      <trkpt lat="46.55561" lon="0.308">
        <ele>128.2</ele>
        <time>2020-05-30T16:21:22Z</time>
      </trkpt>
      <trkpt lat="46.55557" lon="0.30796">
        <ele>128.2</ele>
        <time>2020-05-30T16:21:23Z</time>
      </trkpt>
      <trkpt lat="46.55551" lon="0.30791">
        <ele>128.2</ele>
        <time>2020-05-30T16:21:24Z</time>
      </trkpt>
      <trkpt lat="46.55547" lon="0.30786">
        <ele>128.2</ele>
        <time>2020-05-30T16:21:25Z</time>
      </trkpt>
      <trkpt lat="46.55541" lon="0.3078">
        <ele>128.3</ele>
        <time>2020-05-30T16:21:26Z</time>
      </trkpt>
      <trkpt lat="46.55536" lon="0.30773">
        <ele>128.4</ele>
        <time>2020-05-30T16:21:27Z</time>
      </trkpt>
      <trkpt lat="46.55532" lon="0.30768">
        <ele>128.5</ele>
        <time>2020-05-30T16:21:28Z</time>
      </trkpt>
      <trkpt lat="46.55528" lon="0.30763">
        <ele>128.6</ele>
        <time>2020-05-30T16:21:29Z</time>
      </trkpt>
      <trkpt lat="46.55522" lon="0.30759">
        <ele>128.7</ele>
        <time>2020-05-30T16:21:30Z</time>
      </trkpt>
      <trkpt lat="46.55517" lon="0.30755">
        <ele>128.8</ele>
        <time>2020-05-30T16:21:31Z</time>
      </trkpt>
      <trkpt lat="46.55514" lon="0.30753">
        <ele>128.8</ele>
        <time>2020-05-30T16:21:32Z</time>
      </trkpt>
      <trkpt lat="46.55508" lon="0.30748">
        <ele>128.9</ele>
        <time>2020-05-30T16:21:33Z</time>
      </trkpt>
      <trkpt lat="46.55503" lon="0.30743">
        <ele>129</ele>
        <time>2020-05-30T16:21:34Z</time>
      </trkpt>
      <trkpt lat="46.55499" lon="0.30737">
        <ele>129</ele>
        <time>2020-05-30T16:21:35Z</time>
      </trkpt>
      <trkpt lat="46.55494" lon="0.30732">
        <ele>129.5</ele>
        <time>2020-05-30T16:21:36Z</time>
      </trkpt>
      <trkpt lat="46.55491" lon="0.30728">
        <ele>129.6</ele>
        <time>2020-05-30T16:21:37Z</time>
      </trkpt>
      <trkpt lat="46.55487" lon="0.30724">
        <ele>129.7</ele>
        <time>2020-05-30T16:21:38Z</time>
      </trkpt>
      <trkpt lat="46.55483" lon="0.30721">
        <ele>129.8</ele>
        <time>2020-05-30T16:21:39Z</time>
      </trkpt>
      <trkpt lat="46.5548" lon="0.30717">
        <ele>130</ele>
        <time>2020-05-30T16:21:40Z</time>
      </trkpt>
      <trkpt lat="46.55477" lon="0.30712">
        <ele>130.2</ele>
        <time>2020-05-30T16:21:41Z</time>
      </trkpt>
      <trkpt lat="46.55473" lon="0.30706">
        <ele>130.4</ele>
        <time>2020-05-30T16:21:42Z</time>
      </trkpt>
      <trkpt lat="46.55469" lon="0.30701">
        <ele>130.7</ele>
        <time>2020-05-30T16:21:43Z</time>
      </trkpt>
      <trkpt lat="46.55465" lon="0.30695">
        <ele>130.9</ele>
        <time>2020-05-30T16:21:44Z</time>
      </trkpt>
      <trkpt lat="46.5546" lon="0.3069">
        <ele>131</ele>
        <time>2020-05-30T16:21:45Z</time>
      </trkpt>
      <trkpt lat="46.55456" lon="0.30685">
        <ele>131</ele>
        <time>2020-05-30T16:21:46Z</time>
      </trkpt>
      <trkpt lat="46.55451" lon="0.3068">
        <ele>131.1</ele>
        <time>2020-05-30T16:21:47Z</time>
      </trkpt>
      <trkpt lat="46.55446" lon="0.30674">
        <ele>131.2</ele>
        <time>2020-05-30T16:21:48Z</time>
      </trkpt>
      <trkpt lat="46.55441" lon="0.3067">
        <ele>131.2</ele>
        <time>2020-05-30T16:21:49Z</time>
      </trkpt>
      <trkpt lat="46.55437" lon="0.30666">
        <ele>131.3</ele>
        <time>2020-05-30T16:21:50Z</time>
      </trkpt>
      <trkpt lat="46.55433" lon="0.3066">
        <ele>131.3</ele>
        <time>2020-05-30T16:21:51Z</time>
      </trkpt>
      <trkpt lat="46.55429" lon="0.30654">
        <ele>131.4</ele>
        <time>2020-05-30T16:21:52Z</time>
      </trkpt>
      <trkpt lat="46.55424" lon="0.30648">
        <ele>131.5</ele>
        <time>2020-05-30T16:21:53Z</time>
      </trkpt>
      <trkpt lat="46.55421" lon="0.30642">
        <ele>131.6</ele>
        <time>2020-05-30T16:21:54Z</time>
      </trkpt>
      <trkpt lat="46.55415" lon="0.30636">
        <ele>131.7</ele>
        <time>2020-05-30T16:21:55Z</time>
      </trkpt>
      <trkpt lat="46.55411" lon="0.30631">
        <ele>131.7</ele>
        <time>2020-05-30T16:21:56Z</time>
      </trkpt>
      <trkpt lat="46.55406" lon="0.30624">
        <ele>131.9</ele>
        <time>2020-05-30T16:21:57Z</time>
      </trkpt>
      <trkpt lat="46.55401" lon="0.30619">
        <ele>131.9</ele>
        <time>2020-05-30T16:21:58Z</time>
      </trkpt>
      <trkpt lat="46.55396" lon="0.30613">
        <ele>132</ele>
        <time>2020-05-30T16:21:59Z</time>
      </trkpt>
      <trkpt lat="46.5539" lon="0.30608">
        <ele>132.1</ele>
        <time>2020-05-30T16:22:00Z</time>
      </trkpt>
      <trkpt lat="46.55385" lon="0.30601">
        <ele>132.2</ele>
        <time>2020-05-30T16:22:01Z</time>
      </trkpt>
      <trkpt lat="46.55379" lon="0.30595">
        <ele>132.3</ele>
        <time>2020-05-30T16:22:02Z</time>
      </trkpt>
      <trkpt lat="46.55374" lon="0.30589">
        <ele>132.4</ele>
        <time>2020-05-30T16:22:03Z</time>
      </trkpt>
      <trkpt lat="46.55368" lon="0.30582">
        <ele>132.5</ele>
        <time>2020-05-30T16:22:04Z</time>
      </trkpt>
      <trkpt lat="46.55363" lon="0.30576">
        <ele>132.6</ele>
        <time>2020-05-30T16:22:05Z</time>
      </trkpt>
      <trkpt lat="46.55358" lon="0.3057">
        <ele>132.7</ele>
        <time>2020-05-30T16:22:06Z</time>
      </trkpt>
      <trkpt lat="46.55353" lon="0.30564">
        <ele>132.9</ele>
        <time>2020-05-30T16:22:07Z</time>
      </trkpt>
      <trkpt lat="46.55347" lon="0.30558">
        <ele>133.1</ele>
        <time>2020-05-30T16:22:08Z</time>
      </trkpt>
      <trkpt lat="46.55342" lon="0.30551">
        <ele>133.3</ele>
        <time>2020-05-30T16:22:09Z</time>
      </trkpt>
      <trkpt lat="46.55336" lon="0.30545">
        <ele>133.5</ele>
        <time>2020-05-30T16:22:10Z</time>
      </trkpt>
      <trkpt lat="46.55331" lon="0.30539">
        <ele>133.6</ele>
        <time>2020-05-30T16:22:11Z</time>
      </trkpt>
      <trkpt lat="46.55326" lon="0.30533">
        <ele>133.8</ele>
        <time>2020-05-30T16:22:12Z</time>
      </trkpt>
      <trkpt lat="46.55321" lon="0.30528">
        <ele>133.9</ele>
        <time>2020-05-30T16:22:13Z</time>
      </trkpt>
      <trkpt lat="46.55315" lon="0.30521">
        <ele>134</ele>
        <time>2020-05-30T16:22:14Z</time>
      </trkpt>
      <trkpt lat="46.5531" lon="0.30515">
        <ele>134.1</ele>
        <time>2020-05-30T16:22:15Z</time>
      </trkpt>
      <trkpt lat="46.55304" lon="0.3051">
        <ele>134.1</ele>
        <time>2020-05-30T16:22:16Z</time>
      </trkpt>
      <trkpt lat="46.55299" lon="0.30502">
        <ele>134.2</ele>
        <time>2020-05-30T16:22:17Z</time>
      </trkpt>
      <trkpt lat="46.55294" lon="0.30495">
        <ele>134.3</ele>
        <time>2020-05-30T16:22:18Z</time>
      </trkpt>
      <trkpt lat="46.55289" lon="0.30489">
        <ele>134.3</ele>
        <time>2020-05-30T16:22:19Z</time>
      </trkpt>
      <trkpt lat="46.55284" lon="0.30483">
        <ele>134.4</ele>
        <time>2020-05-30T16:22:20Z</time>
      </trkpt>
      <trkpt lat="46.55278" lon="0.30477">
        <ele>134.5</ele>
        <time>2020-05-30T16:22:21Z</time>
      </trkpt>
      <trkpt lat="46.55273" lon="0.30471">
        <ele>134.5</ele>
        <time>2020-05-30T16:22:22Z</time>
      </trkpt>
      <trkpt lat="46.55267" lon="0.30465">
        <ele>134.6</ele>
        <time>2020-05-30T16:22:23Z</time>
      </trkpt>
      <trkpt lat="46.55262" lon="0.30459">
        <ele>134.7</ele>
        <time>2020-05-30T16:22:24Z</time>
      </trkpt>
      <trkpt lat="46.55256" lon="0.30454">
        <ele>134.7</ele>
        <time>2020-05-30T16:22:25Z</time>
      </trkpt>
      <trkpt lat="46.55251" lon="0.30447">
        <ele>134.8</ele>
        <time>2020-05-30T16:22:26Z</time>
      </trkpt>
      <trkpt lat="46.55245" lon="0.3044">
        <ele>134.8</ele>
        <time>2020-05-30T16:22:27Z</time>
      </trkpt>
      <trkpt lat="46.5524" lon="0.30433">
        <ele>134.9</ele>
        <time>2020-05-30T16:22:28Z</time>
      </trkpt>
      <trkpt lat="46.55235" lon="0.30426">
        <ele>135</ele>
        <time>2020-05-30T16:22:29Z</time>
      </trkpt>
      <trkpt lat="46.55229" lon="0.3042">
        <ele>135</ele>
        <time>2020-05-30T16:22:30Z</time>
      </trkpt>
      <trkpt lat="46.55224" lon="0.30414">
        <ele>135</ele>
        <time>2020-05-30T16:22:31Z</time>
      </trkpt>
      <trkpt lat="46.55219" lon="0.30407">
        <ele>135.1</ele>
        <time>2020-05-30T16:22:32Z</time>
      </trkpt>
      <trkpt lat="46.55213" lon="0.304">
        <ele>135.1</ele>
        <time>2020-05-30T16:22:33Z</time>
      </trkpt>
      <trkpt lat="46.55208" lon="0.30395">
        <ele>135.2</ele>
        <time>2020-05-30T16:22:34Z</time>
      </trkpt>
      <trkpt lat="46.55202" lon="0.30388">
        <ele>135.3</ele>
        <time>2020-05-30T16:22:35Z</time>
      </trkpt>
      <trkpt lat="46.55197" lon="0.30382">
        <ele>135.5</ele>
        <time>2020-05-30T16:22:36Z</time>
      </trkpt>
      <trkpt lat="46.55191" lon="0.30377">
        <ele>135.6</ele>
        <time>2020-05-30T16:22:37Z</time>
      </trkpt>
      <trkpt lat="46.55186" lon="0.30371">
        <ele>135.6</ele>
        <time>2020-05-30T16:22:38Z</time>
      </trkpt>
      <trkpt lat="46.55181" lon="0.30366">
        <ele>135.7</ele>
        <time>2020-05-30T16:22:39Z</time>
      </trkpt>
      <trkpt lat="46.55177" lon="0.30359">
        <ele>135.7</ele>
        <time>2020-05-30T16:22:40Z</time>
      </trkpt>
      <trkpt lat="46.55172" lon="0.30354">
        <ele>135.8</ele>
        <time>2020-05-30T16:22:41Z</time>
      </trkpt>
      <trkpt lat="46.55168" lon="0.3035">
        <ele>136</ele>
        <time>2020-05-30T16:22:42Z</time>
      </trkpt>
      <trkpt lat="46.55165" lon="0.30344">
        <ele>136.1</ele>
        <time>2020-05-30T16:22:43Z</time>
      </trkpt>
      <trkpt lat="46.55163" lon="0.30338">
        <ele>136.3</ele>
        <time>2020-05-30T16:22:44Z</time>
      </trkpt>
      <trkpt lat="46.55162" lon="0.30331">
        <ele>136.4</ele>
        <time>2020-05-30T16:22:45Z</time>
      </trkpt>
      <trkpt lat="46.55163" lon="0.30324">
        <ele>136.5</ele>
        <time>2020-05-30T16:22:46Z</time>
      </trkpt>
      <trkpt lat="46.55166" lon="0.30317">
        <ele>136.6</ele>
        <time>2020-05-30T16:22:47Z</time>
      </trkpt>
      <trkpt lat="46.55169" lon="0.30311">
        <ele>136.6</ele>
        <time>2020-05-30T16:22:48Z</time>
      </trkpt>
      <trkpt lat="46.55173" lon="0.30306">
        <ele>136.6</ele>
        <time>2020-05-30T16:22:49Z</time>
      </trkpt>
      <trkpt lat="46.55178" lon="0.30301">
        <ele>136.5</ele>
        <time>2020-05-30T16:22:50Z</time>
      </trkpt>
      <trkpt lat="46.55182" lon="0.30296">
        <ele>136.5</ele>
        <time>2020-05-30T16:22:51Z</time>
      </trkpt>
      <trkpt lat="46.55188" lon="0.30291">
        <ele>136.4</ele>
        <time>2020-05-30T16:22:52Z</time>
      </trkpt>
      <trkpt lat="46.55192" lon="0.30286">
        <ele>136.3</ele>
        <time>2020-05-30T16:22:53Z</time>
      </trkpt>
      <trkpt lat="46.55197" lon="0.3028">
        <ele>136.3</ele>
        <time>2020-05-30T16:22:54Z</time>
      </trkpt>
      <trkpt lat="46.55202" lon="0.30275">
        <ele>136.2</ele>
        <time>2020-05-30T16:22:55Z</time>
      </trkpt>
      <trkpt lat="46.55207" lon="0.30271">
        <ele>136.1</ele>
        <time>2020-05-30T16:22:56Z</time>
      </trkpt>
      <trkpt lat="46.55212" lon="0.30267">
        <ele>136</ele>
        <time>2020-05-30T16:22:57Z</time>
      </trkpt>
      <trkpt lat="46.55218" lon="0.30266">
        <ele>135.9</ele>
        <time>2020-05-30T16:22:58Z</time>
      </trkpt>
      <trkpt lat="46.55224" lon="0.30265">
        <ele>135.9</ele>
        <time>2020-05-30T16:22:59Z</time>
      </trkpt>
      <trkpt lat="46.5523" lon="0.30262">
        <ele>135.8</ele>
        <time>2020-05-30T16:23:00Z</time>
      </trkpt>
      <trkpt lat="46.55235" lon="0.30256">
        <ele>135.7</ele>
        <time>2020-05-30T16:23:01Z</time>
      </trkpt>
      <trkpt lat="46.55237" lon="0.30248">
        <ele>135.7</ele>
        <time>2020-05-30T16:23:02Z</time>
      </trkpt>
      <trkpt lat="46.55236" lon="0.30239">
        <ele>135.5</ele>
        <time>2020-05-30T16:23:03Z</time>
      </trkpt>
      <trkpt lat="46.55233" lon="0.30233">
        <ele>135.5</ele>
        <time>2020-05-30T16:23:04Z</time>
      </trkpt>
      <trkpt lat="46.55229" lon="0.30228">
        <ele>135.4</ele>
        <time>2020-05-30T16:23:05Z</time>
      </trkpt>
      <trkpt lat="46.55224" lon="0.30224">
        <ele>135</ele>
        <time>2020-05-30T16:23:06Z</time>
      </trkpt>
      <trkpt lat="46.5522" lon="0.3022">
        <ele>134.6</ele>
        <time>2020-05-30T16:23:07Z</time>
      </trkpt>
      <trkpt lat="46.55216" lon="0.30215">
        <ele>134.1</ele>
        <time>2020-05-30T16:23:08Z</time>
      </trkpt>
      <trkpt lat="46.55212" lon="0.30211">
        <ele>133.7</ele>
        <time>2020-05-30T16:23:09Z</time>
      </trkpt>
      <trkpt lat="46.55208" lon="0.30207">
        <ele>133.3</ele>
        <time>2020-05-30T16:23:10Z</time>
      </trkpt>
      <trkpt lat="46.55205" lon="0.30202">
        <ele>133</ele>
        <time>2020-05-30T16:23:11Z</time>
      </trkpt>
      <trkpt lat="46.55201" lon="0.30198">
        <ele>132.7</ele>
        <time>2020-05-30T16:23:12Z</time>
      </trkpt>
      <trkpt lat="46.55199" lon="0.30194">
        <ele>132.3</ele>
        <time>2020-05-30T16:23:13Z</time>
      </trkpt>
      <trkpt lat="46.55196" lon="0.3019">
        <ele>132</ele>
        <time>2020-05-30T16:23:14Z</time>
      </trkpt>
      <trkpt lat="46.55194" lon="0.30186">
        <ele>132</ele>
        <time>2020-05-30T16:23:15Z</time>
      </trkpt>
      <trkpt lat="46.55194" lon="0.30181">
        <ele>132</ele>
        <time>2020-05-30T16:23:16Z</time>
      </trkpt>
      <trkpt lat="46.55196" lon="0.30176">
        <ele>132</ele>
        <time>2020-05-30T16:23:17Z</time>
      </trkpt>
      <trkpt lat="46.55197" lon="0.30171">
        <ele>132.1</ele>
        <time>2020-05-30T16:23:18Z</time>
      </trkpt>
      <trkpt lat="46.55197" lon="0.30166">
        <ele>132.2</ele>
        <time>2020-05-30T16:23:19Z</time>
      </trkpt>
      <trkpt lat="46.55197" lon="0.30161">
        <ele>132.2</ele>
        <time>2020-05-30T16:23:20Z</time>
      </trkpt>
      <trkpt lat="46.55197" lon="0.30156">
        <ele>132.2</ele>
        <time>2020-05-30T16:23:21Z</time>
      </trkpt>
      <trkpt lat="46.55196" lon="0.30151">
        <ele>132.3</ele>
        <time>2020-05-30T16:23:22Z</time>
      </trkpt>
      <trkpt lat="46.55194" lon="0.30146">
        <ele>132.3</ele>
        <time>2020-05-30T16:23:23Z</time>
      </trkpt>
      <trkpt lat="46.55194" lon="0.30142">
        <ele>132.5</ele>
        <time>2020-05-30T16:23:24Z</time>
      </trkpt>
      <trkpt lat="46.55193" lon="0.30137">
        <ele>132.5</ele>
        <time>2020-05-30T16:23:25Z</time>
      </trkpt>
      <trkpt lat="46.55192" lon="0.30133">
        <ele>132.6</ele>
        <time>2020-05-30T16:23:26Z</time>
      </trkpt>
      <trkpt lat="46.55193" lon="0.3013">
        <ele>132.7</ele>
        <time>2020-05-30T16:23:27Z</time>
      </trkpt>
      <trkpt lat="46.55195" lon="0.30124">
        <ele>132.8</ele>
        <time>2020-05-30T16:23:28Z</time>
      </trkpt>
      <trkpt lat="46.55196" lon="0.30121">
        <ele>132.8</ele>
        <time>2020-05-30T16:23:29Z</time>
      </trkpt>
      <trkpt lat="46.55197" lon="0.30118">
        <ele>132.8</ele>
        <time>2020-05-30T16:23:30Z</time>
      </trkpt>
      <trkpt lat="46.55198" lon="0.30113">
        <ele>133</ele>
        <time>2020-05-30T16:23:31Z</time>
      </trkpt>
      <trkpt lat="46.55199" lon="0.30112">
        <ele>133</ele>
        <time>2020-05-30T16:23:32Z</time>
      </trkpt>
      <trkpt lat="46.55201" lon="0.30108">
        <ele>133.1</ele>
        <time>2020-05-30T16:23:33Z</time>
      </trkpt>
      <trkpt lat="46.55201" lon="0.30107">
        <ele>133.1</ele>
        <time>2020-05-30T16:23:34Z</time>
      </trkpt>
      <trkpt lat="46.55201" lon="0.30105">
        <ele>133.1</ele>
        <time>2020-05-30T16:23:35Z</time>
      </trkpt>
      <trkpt lat="46.55201" lon="0.30106">
        <ele>133.1</ele>
        <time>2020-05-30T16:23:36Z</time>
      </trkpt>
      <trkpt lat="46.55201" lon="0.30106">
        <ele>133.1</ele>
        <time>2020-05-30T16:23:37Z</time>
      </trkpt>
      <trkpt lat="46.55202" lon="0.30106">
        <ele>133.2</ele>
        <time>2020-05-30T16:23:38Z</time>
      </trkpt>
      <trkpt lat="46.55203" lon="0.30106">
        <ele>133.2</ele>
        <time>2020-05-30T16:23:39Z</time>
      </trkpt>
      <trkpt lat="46.55202" lon="0.30106">
        <ele>133.2</ele>
        <time>2020-05-30T16:23:40Z</time>
      </trkpt>
      <trkpt lat="46.55203" lon="0.30106">
        <ele>133.2</ele>
        <time>2020-05-30T16:23:41Z</time>
      </trkpt>
      <trkpt lat="46.55199" lon="0.30093">
        <ele>133.4</ele>
        <time>2020-05-30T16:32:46Z</time>
      </trkpt>
      <trkpt lat="46.55208" lon="0.30102">
        <ele>133.2</ele>
        <time>2020-05-30T16:32:47Z</time>
      </trkpt>
      <trkpt lat="46.55213" lon="0.30107">
        <ele>133.2</ele>
        <time>2020-05-30T16:32:48Z</time>
      </trkpt>
      <trkpt lat="46.5521" lon="0.30106">
        <ele>133.2</ele>
        <time>2020-05-30T16:32:49Z</time>
      </trkpt>
      <trkpt lat="46.55208" lon="0.30101">
        <ele>133.1</ele>
        <time>2020-05-30T16:32:50Z</time>
      </trkpt>
      <trkpt lat="46.55209" lon="0.30101">
        <ele>133.1</ele>
        <time>2020-05-30T16:32:52Z</time>
      </trkpt>
      <trkpt lat="46.55209" lon="0.30101">
        <ele>133.1</ele>
        <time>2020-05-30T16:32:53Z</time>
      </trkpt>
      <trkpt lat="46.5521" lon="0.30102">
        <ele>133.1</ele>
        <time>2020-05-30T16:32:54Z</time>
      </trkpt>
      <trkpt lat="46.55212" lon="0.30105">
        <ele>133.1</ele>
        <time>2020-05-30T16:32:55Z</time>
      </trkpt>
      <trkpt lat="46.55214" lon="0.30108">
        <ele>133</ele>
        <time>2020-05-30T16:32:57Z</time>
      </trkpt>
      <trkpt lat="46.55216" lon="0.30111">
        <ele>133</ele>
        <time>2020-05-30T16:32:58Z</time>
      </trkpt>
      <trkpt lat="46.55223" lon="0.30121">
        <ele>132.9</ele>
        <time>2020-05-30T16:32:59Z</time>
      </trkpt>
      <trkpt lat="46.55226" lon="0.30127">
        <ele>132.9</ele>
        <time>2020-05-30T16:33:00Z</time>
      </trkpt>
      <trkpt lat="46.55229" lon="0.30131">
        <ele>132.8</ele>
        <time>2020-05-30T16:33:02Z</time>
      </trkpt>
      <trkpt lat="46.55232" lon="0.30136">
        <ele>132.8</ele>
        <time>2020-05-30T16:33:03Z</time>
      </trkpt>
      <trkpt lat="46.55236" lon="0.3014">
        <ele>132.8</ele>
        <time>2020-05-30T16:33:04Z</time>
      </trkpt>
      <trkpt lat="46.55238" lon="0.30143">
        <ele>132.7</ele>
        <time>2020-05-30T16:33:05Z</time>
      </trkpt>
      <trkpt lat="46.55241" lon="0.30148">
        <ele>132.7</ele>
        <time>2020-05-30T16:33:06Z</time>
      </trkpt>
      <trkpt lat="46.55245" lon="0.30153">
        <ele>132.6</ele>
        <time>2020-05-30T16:33:07Z</time>
      </trkpt>
      <trkpt lat="46.55249" lon="0.30158">
        <ele>132.6</ele>
        <time>2020-05-30T16:33:08Z</time>
      </trkpt>
      <trkpt lat="46.55253" lon="0.30163">
        <ele>132.5</ele>
        <time>2020-05-30T16:33:09Z</time>
      </trkpt>
      <trkpt lat="46.55257" lon="0.30168">
        <ele>132.5</ele>
        <time>2020-05-30T16:33:10Z</time>
      </trkpt>
      <trkpt lat="46.5526" lon="0.30172">
        <ele>132.4</ele>
        <time>2020-05-30T16:33:11Z</time>
      </trkpt>
      <trkpt lat="46.55264" lon="0.30178">
        <ele>132.4</ele>
        <time>2020-05-30T16:33:12Z</time>
      </trkpt>
      <trkpt lat="46.55269" lon="0.30183">
        <ele>132.3</ele>
        <time>2020-05-30T16:33:13Z</time>
      </trkpt>
      <trkpt lat="46.55273" lon="0.30186">
        <ele>132.3</ele>
        <time>2020-05-30T16:33:14Z</time>
      </trkpt>
      <trkpt lat="46.55278" lon="0.30185">
        <ele>132.2</ele>
        <time>2020-05-30T16:33:15Z</time>
      </trkpt>
      <trkpt lat="46.55282" lon="0.30182">
        <ele>132.5</ele>
        <time>2020-05-30T16:33:16Z</time>
      </trkpt>
      <trkpt lat="46.55287" lon="0.30177">
        <ele>132.6</ele>
        <time>2020-05-30T16:33:17Z</time>
      </trkpt>
      <trkpt lat="46.55289" lon="0.30171">
        <ele>133.1</ele>
        <time>2020-05-30T16:33:18Z</time>
      </trkpt>
      <trkpt lat="46.55291" lon="0.30164">
        <ele>133.1</ele>
        <time>2020-05-30T16:33:19Z</time>
      </trkpt>
      <trkpt lat="46.55294" lon="0.30158">
        <ele>133.1</ele>
        <time>2020-05-30T16:33:20Z</time>
      </trkpt>
      <trkpt lat="46.55298" lon="0.30152">
        <ele>133.1</ele>
        <time>2020-05-30T16:33:21Z</time>
      </trkpt>
      <trkpt lat="46.55301" lon="0.30147">
        <ele>133.1</ele>
        <time>2020-05-30T16:33:22Z</time>
      </trkpt>
      <trkpt lat="46.55304" lon="0.3014">
        <ele>133.2</ele>
        <time>2020-05-30T16:33:23Z</time>
      </trkpt>
      <trkpt lat="46.55307" lon="0.30134">
        <ele>133.3</ele>
        <time>2020-05-30T16:33:24Z</time>
      </trkpt>
      <trkpt lat="46.55309" lon="0.30127">
        <ele>133.3</ele>
        <time>2020-05-30T16:33:25Z</time>
      </trkpt>
      <trkpt lat="46.5531" lon="0.3012">
        <ele>133.5</ele>
        <time>2020-05-30T16:33:26Z</time>
      </trkpt>
      <trkpt lat="46.55313" lon="0.30113">
        <ele>133.5</ele>
        <time>2020-05-30T16:33:27Z</time>
      </trkpt>
      <trkpt lat="46.55315" lon="0.30107">
        <ele>133.6</ele>
        <time>2020-05-30T16:33:28Z</time>
      </trkpt>
      <trkpt lat="46.55317" lon="0.30101">
        <ele>133.6</ele>
        <time>2020-05-30T16:33:29Z</time>
      </trkpt>
      <trkpt lat="46.55318" lon="0.30095">
        <ele>133.6</ele>
        <time>2020-05-30T16:33:30Z</time>
      </trkpt>
      <trkpt lat="46.55318" lon="0.30088">
        <ele>133.7</ele>
        <time>2020-05-30T16:33:31Z</time>
      </trkpt>
      <trkpt lat="46.55319" lon="0.30082">
        <ele>133.7</ele>
        <time>2020-05-30T16:33:32Z</time>
      </trkpt>
      <trkpt lat="46.55319" lon="0.30077">
        <ele>133.7</ele>
        <time>2020-05-30T16:33:33Z</time>
      </trkpt>
      <trkpt lat="46.5532" lon="0.30071">
        <ele>133.8</ele>
        <time>2020-05-30T16:33:34Z</time>
      </trkpt>
      <trkpt lat="46.5532" lon="0.30065">
        <ele>133.8</ele>
        <time>2020-05-30T16:33:35Z</time>
      </trkpt>
      <trkpt lat="46.5532" lon="0.3006">
        <ele>133.8</ele>
        <time>2020-05-30T16:33:36Z</time>
      </trkpt>
      <trkpt lat="46.5532" lon="0.30055">
        <ele>134</ele>
        <time>2020-05-30T16:33:37Z</time>
      </trkpt>
      <trkpt lat="46.55319" lon="0.30049">
        <ele>134.1</ele>
        <time>2020-05-30T16:33:38Z</time>
      </trkpt>
      <trkpt lat="46.55319" lon="0.30045">
        <ele>134.2</ele>
        <time>2020-05-30T16:33:39Z</time>
      </trkpt>
      <trkpt lat="46.55318" lon="0.3004">
        <ele>134.3</ele>
        <time>2020-05-30T16:33:40Z</time>
      </trkpt>
      <trkpt lat="46.55319" lon="0.30034">
        <ele>134.4</ele>
        <time>2020-05-30T16:33:41Z</time>
      </trkpt>
      <trkpt lat="46.5532" lon="0.3003">
        <ele>134.5</ele>
        <time>2020-05-30T16:33:42Z</time>
      </trkpt>
      <trkpt lat="46.55325" lon="0.30026">
        <ele>134.7</ele>
        <time>2020-05-30T16:33:43Z</time>
      </trkpt>
      <trkpt lat="46.55335" lon="0.30029">
        <ele>135</ele>
        <time>2020-05-30T16:33:44Z</time>
      </trkpt>
      <trkpt lat="46.55342" lon="0.30031">
        <ele>134.9</ele>
        <time>2020-05-30T16:33:45Z</time>
      </trkpt>
      <trkpt lat="46.55348" lon="0.30032">
        <ele>134.7</ele>
        <time>2020-05-30T16:33:46Z</time>
      </trkpt>
      <trkpt lat="46.55354" lon="0.30034">
        <ele>134.7</ele>
        <time>2020-05-30T16:33:47Z</time>
      </trkpt>
      <trkpt lat="46.5536" lon="0.30038">
        <ele>134.7</ele>
        <time>2020-05-30T16:33:48Z</time>
      </trkpt>
      <trkpt lat="46.55367" lon="0.30043">
        <ele>134.7</ele>
        <time>2020-05-30T16:33:49Z</time>
      </trkpt>
      <trkpt lat="46.55372" lon="0.3005">
        <ele>134.7</ele>
        <time>2020-05-30T16:33:50Z</time>
      </trkpt>
      <trkpt lat="46.55377" lon="0.30056">
        <ele>134.6</ele>
        <time>2020-05-30T16:33:51Z</time>
      </trkpt>
      <trkpt lat="46.55381" lon="0.30063">
        <ele>134.7</ele>
        <time>2020-05-30T16:33:52Z</time>
      </trkpt>
      <trkpt lat="46.55387" lon="0.30069">
        <ele>134.7</ele>
        <time>2020-05-30T16:33:53Z</time>
      </trkpt>
      <trkpt lat="46.55391" lon="0.30075">
        <ele>134.8</ele>
        <time>2020-05-30T16:33:54Z</time>
      </trkpt>
      <trkpt lat="46.55395" lon="0.3008">
        <ele>134.9</ele>
        <time>2020-05-30T16:33:55Z</time>
      </trkpt>
      <trkpt lat="46.55399" lon="0.30086">
        <ele>134.9</ele>
        <time>2020-05-30T16:33:56Z</time>
      </trkpt>
      <trkpt lat="46.55403" lon="0.30092">
        <ele>135</ele>
        <time>2020-05-30T16:33:57Z</time>
      </trkpt>
      <trkpt lat="46.55407" lon="0.30097">
        <ele>135.1</ele>
        <time>2020-05-30T16:33:58Z</time>
      </trkpt>
      <trkpt lat="46.5541" lon="0.30102">
        <ele>135.2</ele>
        <time>2020-05-30T16:33:59Z</time>
      </trkpt>
      <trkpt lat="46.55413" lon="0.30108">
        <ele>135.3</ele>
        <time>2020-05-30T16:34:00Z</time>
      </trkpt>
      <trkpt lat="46.55418" lon="0.30114">
        <ele>135.4</ele>
        <time>2020-05-30T16:34:01Z</time>
      </trkpt>
      <trkpt lat="46.55423" lon="0.3012">
        <ele>135.5</ele>
        <time>2020-05-30T16:34:02Z</time>
      </trkpt>
      <trkpt lat="46.55427" lon="0.30126">
        <ele>135.6</ele>
        <time>2020-05-30T16:34:03Z</time>
      </trkpt>
      <trkpt lat="46.55431" lon="0.30131">
        <ele>135.7</ele>
        <time>2020-05-30T16:34:04Z</time>
      </trkpt>
      <trkpt lat="46.55437" lon="0.30137">
        <ele>135.8</ele>
        <time>2020-05-30T16:34:05Z</time>
      </trkpt>
      <trkpt lat="46.5544" lon="0.30141">
        <ele>135.9</ele>
        <time>2020-05-30T16:34:06Z</time>
      </trkpt>
      <trkpt lat="46.55444" lon="0.30147">
        <ele>135.9</ele>
        <time>2020-05-30T16:34:07Z</time>
      </trkpt>
      <trkpt lat="46.55448" lon="0.30152">
        <ele>136</ele>
        <time>2020-05-30T16:34:08Z</time>
      </trkpt>
      <trkpt lat="46.55453" lon="0.30156">
        <ele>136.1</ele>
        <time>2020-05-30T16:34:09Z</time>
      </trkpt>
      <trkpt lat="46.55456" lon="0.30161">
        <ele>136.1</ele>
        <time>2020-05-30T16:34:10Z</time>
      </trkpt>
      <trkpt lat="46.55459" lon="0.30167">
        <ele>136.2</ele>
        <time>2020-05-30T16:34:11Z</time>
      </trkpt>
      <trkpt lat="46.55463" lon="0.30173">
        <ele>136.2</ele>
        <time>2020-05-30T16:34:12Z</time>
      </trkpt>
      <trkpt lat="46.55468" lon="0.3018">
        <ele>136.3</ele>
        <time>2020-05-30T16:34:13Z</time>
      </trkpt>
      <trkpt lat="46.55472" lon="0.30185">
        <ele>136.4</ele>
        <time>2020-05-30T16:34:14Z</time>
      </trkpt>
      <trkpt lat="46.55476" lon="0.30191">
        <ele>136.5</ele>
        <time>2020-05-30T16:34:15Z</time>
      </trkpt>
      <trkpt lat="46.55481" lon="0.30197">
        <ele>136.6</ele>
        <time>2020-05-30T16:34:16Z</time>
      </trkpt>
      <trkpt lat="46.55485" lon="0.30201">
        <ele>136.7</ele>
        <time>2020-05-30T16:34:17Z</time>
      </trkpt>
      <trkpt lat="46.55489" lon="0.30206">
        <ele>136.7</ele>
        <time>2020-05-30T16:34:18Z</time>
      </trkpt>
      <trkpt lat="46.55493" lon="0.30212">
        <ele>136.8</ele>
        <time>2020-05-30T16:34:19Z</time>
      </trkpt>
      <trkpt lat="46.55498" lon="0.30218">
        <ele>136.9</ele>
        <time>2020-05-30T16:34:20Z</time>
      </trkpt>
      <trkpt lat="46.55502" lon="0.30224">
        <ele>136.9</ele>
        <time>2020-05-30T16:34:21Z</time>
      </trkpt>
      <trkpt lat="46.55507" lon="0.30232">
        <ele>136.9</ele>
        <time>2020-05-30T16:34:22Z</time>
      </trkpt>
      <trkpt lat="46.55511" lon="0.30237">
        <ele>136.9</ele>
        <time>2020-05-30T16:34:23Z</time>
      </trkpt>
      <trkpt lat="46.55516" lon="0.30243">
        <ele>136.9</ele>
        <time>2020-05-30T16:34:24Z</time>
      </trkpt>
      <trkpt lat="46.5552" lon="0.30248">
        <ele>136.9</ele>
        <time>2020-05-30T16:34:25Z</time>
      </trkpt>
      <trkpt lat="46.55525" lon="0.30252">
        <ele>136.9</ele>
        <time>2020-05-30T16:34:26Z</time>
      </trkpt>
      <trkpt lat="46.55529" lon="0.30258">
        <ele>136.9</ele>
        <time>2020-05-30T16:34:27Z</time>
      </trkpt>
      <trkpt lat="46.55533" lon="0.30265">
        <ele>136.9</ele>
        <time>2020-05-30T16:34:28Z</time>
      </trkpt>
      <trkpt lat="46.55537" lon="0.30271">
        <ele>136.9</ele>
        <time>2020-05-30T16:34:29Z</time>
      </trkpt>
      <trkpt lat="46.55542" lon="0.30278">
        <ele>136.9</ele>
        <time>2020-05-30T16:34:30Z</time>
      </trkpt>
      <trkpt lat="46.55546" lon="0.30283">
        <ele>136.9</ele>
        <time>2020-05-30T16:34:31Z</time>
      </trkpt>
      <trkpt lat="46.55551" lon="0.3029">
        <ele>136.8</ele>
        <time>2020-05-30T16:34:32Z</time>
      </trkpt>
      <trkpt lat="46.55556" lon="0.30296">
        <ele>136.8</ele>
        <time>2020-05-30T16:34:33Z</time>
      </trkpt>
      <trkpt lat="46.55561" lon="0.30302">
        <ele>136.7</ele>
        <time>2020-05-30T16:34:34Z</time>
      </trkpt>
      <trkpt lat="46.55566" lon="0.30309">
        <ele>136.6</ele>
        <time>2020-05-30T16:34:35Z</time>
      </trkpt>
      <trkpt lat="46.5557" lon="0.30315">
        <ele>136.5</ele>
        <time>2020-05-30T16:34:36Z</time>
      </trkpt>
      <trkpt lat="46.55575" lon="0.3032">
        <ele>136.3</ele>
        <time>2020-05-30T16:34:37Z</time>
      </trkpt>
      <trkpt lat="46.55579" lon="0.30326">
        <ele>136.2</ele>
        <time>2020-05-30T16:34:38Z</time>
      </trkpt>
      <trkpt lat="46.55583" lon="0.30331">
        <ele>136.1</ele>
        <time>2020-05-30T16:34:39Z</time>
      </trkpt>
      <trkpt lat="46.55587" lon="0.30339">
        <ele>135.9</ele>
        <time>2020-05-30T16:34:40Z</time>
      </trkpt>
      <trkpt lat="46.5559" lon="0.30346">
        <ele>135.8</ele>
        <time>2020-05-30T16:34:41Z</time>
      </trkpt>
      <trkpt lat="46.55594" lon="0.30351">
        <ele>135.6</ele>
        <time>2020-05-30T16:34:42Z</time>
      </trkpt>
      <trkpt lat="46.55599" lon="0.30358">
        <ele>135.5</ele>
        <time>2020-05-30T16:34:43Z</time>
      </trkpt>
      <trkpt lat="46.55604" lon="0.30363">
        <ele>135.3</ele>
        <time>2020-05-30T16:34:44Z</time>
      </trkpt>
      <trkpt lat="46.55608" lon="0.30369">
        <ele>135.1</ele>
        <time>2020-05-30T16:34:45Z</time>
      </trkpt>
      <trkpt lat="46.55612" lon="0.30378">
        <ele>134.9</ele>
        <time>2020-05-30T16:34:46Z</time>
      </trkpt>
      <trkpt lat="46.55616" lon="0.30385">
        <ele>134.7</ele>
        <time>2020-05-30T16:34:47Z</time>
      </trkpt>
      <trkpt lat="46.55621" lon="0.30391">
        <ele>134.5</ele>
        <time>2020-05-30T16:34:48Z</time>
      </trkpt>
      <trkpt lat="46.55625" lon="0.30396">
        <ele>134.3</ele>
        <time>2020-05-30T16:34:49Z</time>
      </trkpt>
      <trkpt lat="46.55628" lon="0.30401">
        <ele>134.2</ele>
        <time>2020-05-30T16:34:50Z</time>
      </trkpt>
      <trkpt lat="46.55631" lon="0.30406">
        <ele>134.1</ele>
        <time>2020-05-30T16:34:51Z</time>
      </trkpt>
      <trkpt lat="46.55633" lon="0.30409">
        <ele>134.1</ele>
        <time>2020-05-30T16:34:52Z</time>
      </trkpt>
      <trkpt lat="46.55634" lon="0.3041">
        <ele>134</ele>
        <time>2020-05-30T16:34:53Z</time>
      </trkpt>
      <trkpt lat="46.55634" lon="0.30411">
        <ele>134</ele>
        <time>2020-05-30T16:34:54Z</time>
      </trkpt>
      <trkpt lat="46.55635" lon="0.30411">
        <ele>134</ele>
        <time>2020-05-30T16:34:55Z</time>
      </trkpt>
      <trkpt lat="46.55635" lon="0.30411">
        <ele>134</ele>
        <time>2020-05-30T16:34:56Z</time>
      </trkpt>
      <trkpt lat="46.55635" lon="0.30411">
        <ele>134</ele>
        <time>2020-05-30T16:34:57Z</time>
      </trkpt>
      <trkpt lat="46.55635" lon="0.30411">
        <ele>134</ele>
        <time>2020-05-30T16:34:58Z</time>
      </trkpt>
      <trkpt lat="46.55635" lon="0.30411">
        <ele>134</ele>
        <time>2020-05-30T16:34:59Z</time>
      </trkpt>
      <trkpt lat="46.55635" lon="0.30411">
        <ele>134</ele>
        <time>2020-05-30T16:35:00Z</time>
      </trkpt>
      <trkpt lat="46.55635" lon="0.30411">
        <ele>134</ele>
        <time>2020-05-30T16:35:01Z</time>
      </trkpt>
      <trkpt lat="46.55635" lon="0.30411">
        <ele>134</ele>
        <time>2020-05-30T16:35:02Z</time>
      </trkpt>
      <trkpt lat="46.55635" lon="0.30411">
        <ele>134</ele>
        <time>2020-05-30T16:35:03Z</time>
      </trkpt>
      <trkpt lat="46.55635" lon="0.30411">
        <ele>134</ele>
        <time>2020-05-30T16:35:04Z</time>
      </trkpt>
      <trkpt lat="46.55635" lon="0.30411">
        <ele>134</ele>
        <time>2020-05-30T16:35:05Z</time>
      </trkpt>
      <trkpt lat="46.55636" lon="0.30412">
        <ele>134</ele>
        <time>2020-05-30T16:35:06Z</time>
      </trkpt>
      <trkpt lat="46.55636" lon="0.30412">
        <ele>134</ele>
        <time>2020-05-30T16:35:07Z</time>
      </trkpt>
      <trkpt lat="46.55636" lon="0.30412">
        <ele>134</ele>
        <time>2020-05-30T16:35:08Z</time>
      </trkpt>
      <trkpt lat="46.55636" lon="0.30412">
        <ele>134</ele>
        <time>2020-05-30T16:35:09Z</time>
      </trkpt>
      <trkpt lat="46.55636" lon="0.30412">
        <ele>134</ele>
        <time>2020-05-30T16:35:10Z</time>
      </trkpt>
      <trkpt lat="46.55636" lon="0.30412">
        <ele>134</ele>
        <time>2020-05-30T16:35:11Z</time>
      </trkpt>
      <trkpt lat="46.55636" lon="0.30412">
        <ele>134</ele>
        <time>2020-05-30T16:35:12Z</time>
      </trkpt>
      <trkpt lat="46.55636" lon="0.30412">
        <ele>134</ele>
        <time>2020-05-30T16:35:13Z</time>
      </trkpt>
      <trkpt lat="46.55636" lon="0.30412">
        <ele>134</ele>
        <time>2020-05-30T16:35:14Z</time>
      </trkpt>
      <trkpt lat="46.55636" lon="0.30412">
        <ele>134</ele>
        <time>2020-05-30T16:35:15Z</time>
      </trkpt>
      <trkpt lat="46.55637" lon="0.30412">
        <ele>134</ele>
        <time>2020-05-30T16:35:16Z</time>
      </trkpt>
      <trkpt lat="46.55637" lon="0.30412">
        <ele>134</ele>
        <time>2020-05-30T16:35:17Z</time>
      </trkpt>
      <trkpt lat="46.55637" lon="0.30412">
        <ele>134</ele>
        <time>2020-05-30T16:35:18Z</time>
      </trkpt>
      <trkpt lat="46.55637" lon="0.30412">
        <ele>134</ele>
        <time>2020-05-30T16:35:19Z</time>
      </trkpt>
      <trkpt lat="46.55637" lon="0.30412">
        <ele>134</ele>
        <time>2020-05-30T16:35:20Z</time>
      </trkpt>
      <trkpt lat="46.55637" lon="0.30413">
        <ele>134</ele>
        <time>2020-05-30T16:35:21Z</time>
      </trkpt>
      <trkpt lat="46.55637" lon="0.30413">
        <ele>134</ele>
        <time>2020-05-30T16:35:22Z</time>
      </trkpt>
      <trkpt lat="46.55637" lon="0.30413">
        <ele>134</ele>
        <time>2020-05-30T16:35:23Z</time>
      </trkpt>
      <trkpt lat="46.55637" lon="0.30413">
        <ele>134</ele>
        <time>2020-05-30T16:35:24Z</time>
      </trkpt>
      <trkpt lat="46.55637" lon="0.30413">
        <ele>134</ele>
        <time>2020-05-30T16:35:25Z</time>
      </trkpt>
      <trkpt lat="46.55637" lon="0.30413">
        <ele>134</ele>
        <time>2020-05-30T16:35:26Z</time>
      </trkpt>
      <trkpt lat="46.55638" lon="0.30413">
        <ele>134</ele>
        <time>2020-05-30T16:35:27Z</time>
      </trkpt>
      <trkpt lat="46.55638" lon="0.30413">
        <ele>134</ele>
        <time>2020-05-30T16:35:28Z</time>
      </trkpt>
      <trkpt lat="46.55638" lon="0.30413">
        <ele>134</ele>
        <time>2020-05-30T16:35:29Z</time>
      </trkpt>
      <trkpt lat="46.55638" lon="0.30413">
        <ele>134</ele>
        <time>2020-05-30T16:35:30Z</time>
      </trkpt>
      <trkpt lat="46.5564" lon="0.30416">
        <ele>133.9</ele>
        <time>2020-05-30T16:35:31Z</time>
      </trkpt>
      <trkpt lat="46.55642" lon="0.30421">
        <ele>133.8</ele>
        <time>2020-05-30T16:35:32Z</time>
      </trkpt>
      <trkpt lat="46.55645" lon="0.30426">
        <ele>133.8</ele>
        <time>2020-05-30T16:35:33Z</time>
      </trkpt>
      <trkpt lat="46.55649" lon="0.3043">
        <ele>133.7</ele>
        <time>2020-05-30T16:35:34Z</time>
      </trkpt>
      <trkpt lat="46.55656" lon="0.30429">
        <ele>133.6</ele>
        <time>2020-05-30T16:35:35Z</time>
      </trkpt>
      <trkpt lat="46.55661" lon="0.30429">
        <ele>133.2</ele>
        <time>2020-05-30T16:35:36Z</time>
      </trkpt>
      <trkpt lat="46.55667" lon="0.30425">
        <ele>132.8</ele>
        <time>2020-05-30T16:35:37Z</time>
      </trkpt>
      <trkpt lat="46.55672" lon="0.30421">
        <ele>132.5</ele>
        <time>2020-05-30T16:35:38Z</time>
      </trkpt>
      <trkpt lat="46.55678" lon="0.30416">
        <ele>132.2</ele>
        <time>2020-05-30T16:35:39Z</time>
      </trkpt>
      <trkpt lat="46.55683" lon="0.30412">
        <ele>131.9</ele>
        <time>2020-05-30T16:35:40Z</time>
      </trkpt>
      <trkpt lat="46.55688" lon="0.30408">
        <ele>131.6</ele>
        <time>2020-05-30T16:35:41Z</time>
      </trkpt>
      <trkpt lat="46.55694" lon="0.30403">
        <ele>131.2</ele>
        <time>2020-05-30T16:35:42Z</time>
      </trkpt>
      <trkpt lat="46.557" lon="0.30399">
        <ele>130.9</ele>
        <time>2020-05-30T16:35:43Z</time>
      </trkpt>
      <trkpt lat="46.55706" lon="0.30395">
        <ele>130.5</ele>
        <time>2020-05-30T16:35:44Z</time>
      </trkpt>
      <trkpt lat="46.55712" lon="0.3039">
        <ele>130.3</ele>
        <time>2020-05-30T16:35:45Z</time>
      </trkpt>
      <trkpt lat="46.55718" lon="0.30386">
        <ele>130.2</ele>
        <time>2020-05-30T16:35:46Z</time>
      </trkpt>
      <trkpt lat="46.55724" lon="0.30381">
        <ele>130</ele>
        <time>2020-05-30T16:35:47Z</time>
      </trkpt>
      <trkpt lat="46.55731" lon="0.30377">
        <ele>129.8</ele>
        <time>2020-05-30T16:35:48Z</time>
      </trkpt>
      <trkpt lat="46.55737" lon="0.30372">
        <ele>129.7</ele>
        <time>2020-05-30T16:35:49Z</time>
      </trkpt>
      <trkpt lat="46.55744" lon="0.30368">
        <ele>129.5</ele>
        <time>2020-05-30T16:35:50Z</time>
      </trkpt>
      <trkpt lat="46.5575" lon="0.30363">
        <ele>129.3</ele>
        <time>2020-05-30T16:35:51Z</time>
      </trkpt>
      <trkpt lat="46.55756" lon="0.30359">
        <ele>129.1</ele>
        <time>2020-05-30T16:35:52Z</time>
      </trkpt>
      <trkpt lat="46.55763" lon="0.30355">
        <ele>128.9</ele>
        <time>2020-05-30T16:35:53Z</time>
      </trkpt>
      <trkpt lat="46.5577" lon="0.30351">
        <ele>128.7</ele>
        <time>2020-05-30T16:35:54Z</time>
      </trkpt>
      <trkpt lat="46.55777" lon="0.30347">
        <ele>128.5</ele>
        <time>2020-05-30T16:35:55Z</time>
      </trkpt>
      <trkpt lat="46.55784" lon="0.30343">
        <ele>128.4</ele>
        <time>2020-05-30T16:35:56Z</time>
      </trkpt>
      <trkpt lat="46.55791" lon="0.30339">
        <ele>128.2</ele>
        <time>2020-05-30T16:35:57Z</time>
      </trkpt>
      <trkpt lat="46.55798" lon="0.30335">
        <ele>128</ele>
        <time>2020-05-30T16:35:58Z</time>
      </trkpt>
      <trkpt lat="46.55804" lon="0.30331">
        <ele>127.7</ele>
        <time>2020-05-30T16:35:59Z</time>
      </trkpt>
      <trkpt lat="46.55812" lon="0.30327">
        <ele>127.4</ele>
        <time>2020-05-30T16:36:00Z</time>
      </trkpt>
      <trkpt lat="46.55819" lon="0.30324">
        <ele>127.1</ele>
        <time>2020-05-30T16:36:01Z</time>
      </trkpt>
      <trkpt lat="46.55827" lon="0.30321">
        <ele>126.9</ele>
        <time>2020-05-30T16:36:02Z</time>
      </trkpt>
      <trkpt lat="46.55835" lon="0.30318">
        <ele>126.7</ele>
        <time>2020-05-30T16:36:03Z</time>
      </trkpt>
      <trkpt lat="46.55842" lon="0.30315">
        <ele>126.4</ele>
        <time>2020-05-30T16:36:04Z</time>
      </trkpt>
      <trkpt lat="46.5585" lon="0.30312">
        <ele>126.2</ele>
        <time>2020-05-30T16:36:05Z</time>
      </trkpt>
      <trkpt lat="46.55858" lon="0.30309">
        <ele>126</ele>
        <time>2020-05-30T16:36:06Z</time>
      </trkpt>
      <trkpt lat="46.55867" lon="0.30306">
        <ele>125.8</ele>
        <time>2020-05-30T16:36:07Z</time>
      </trkpt>
      <trkpt lat="46.55875" lon="0.30302">
        <ele>125.5</ele>
        <time>2020-05-30T16:36:08Z</time>
      </trkpt>
      <trkpt lat="46.55883" lon="0.303">
        <ele>125.2</ele>
        <time>2020-05-30T16:36:09Z</time>
      </trkpt>
      <trkpt lat="46.55892" lon="0.30297">
        <ele>124.8</ele>
        <time>2020-05-30T16:36:10Z</time>
      </trkpt>
      <trkpt lat="46.55901" lon="0.30295">
        <ele>124.5</ele>
        <time>2020-05-30T16:36:11Z</time>
      </trkpt>
      <trkpt lat="46.5591" lon="0.30291">
        <ele>124.1</ele>
        <time>2020-05-30T16:36:12Z</time>
      </trkpt>
      <trkpt lat="46.55919" lon="0.30289">
        <ele>123.8</ele>
        <time>2020-05-30T16:36:13Z</time>
      </trkpt>
      <trkpt lat="46.55928" lon="0.30286">
        <ele>123.4</ele>
        <time>2020-05-30T16:36:14Z</time>
      </trkpt>
      <trkpt lat="46.55937" lon="0.30285">
        <ele>122.9</ele>
        <time>2020-05-30T16:36:15Z</time>
      </trkpt>
      <trkpt lat="46.55946" lon="0.30283">
        <ele>122.5</ele>
        <time>2020-05-30T16:36:16Z</time>
      </trkpt>
      <trkpt lat="46.55955" lon="0.30281">
        <ele>122</ele>
        <time>2020-05-30T16:36:17Z</time>
      </trkpt>
      <trkpt lat="46.55964" lon="0.30279">
        <ele>121.6</ele>
        <time>2020-05-30T16:36:18Z</time>
      </trkpt>
      <trkpt lat="46.55974" lon="0.30277">
        <ele>121.2</ele>
        <time>2020-05-30T16:36:19Z</time>
      </trkpt>
      <trkpt lat="46.55983" lon="0.30276">
        <ele>120.8</ele>
        <time>2020-05-30T16:36:20Z</time>
      </trkpt>
      <trkpt lat="46.55992" lon="0.30274">
        <ele>120.4</ele>
        <time>2020-05-30T16:36:21Z</time>
      </trkpt>
      <trkpt lat="46.56002" lon="0.30273">
        <ele>120</ele>
        <time>2020-05-30T16:36:22Z</time>
      </trkpt>
      <trkpt lat="46.56011" lon="0.30273">
        <ele>120.1</ele>
        <time>2020-05-30T16:36:23Z</time>
      </trkpt>
      <trkpt lat="46.56021" lon="0.30273">
        <ele>120.5</ele>
        <time>2020-05-30T16:36:24Z</time>
      </trkpt>
      <trkpt lat="46.56031" lon="0.30274">
        <ele>120.8</ele>
        <time>2020-05-30T16:36:25Z</time>
      </trkpt>
      <trkpt lat="46.56042" lon="0.30273">
        <ele>121.1</ele>
        <time>2020-05-30T16:36:26Z</time>
      </trkpt>
      <trkpt lat="46.56052" lon="0.30273">
        <ele>121.5</ele>
        <time>2020-05-30T16:36:27Z</time>
      </trkpt>
      <trkpt lat="46.56062" lon="0.30273">
        <ele>121.8</ele>
        <time>2020-05-30T16:36:28Z</time>
      </trkpt>
      <trkpt lat="46.56073" lon="0.30274">
        <ele>122.2</ele>
        <time>2020-05-30T16:36:29Z</time>
      </trkpt>
      <trkpt lat="46.56084" lon="0.30275">
        <ele>122.6</ele>
        <time>2020-05-30T16:36:30Z</time>
      </trkpt>
      <trkpt lat="46.56095" lon="0.30275">
        <ele>122.8</ele>
        <time>2020-05-30T16:36:31Z</time>
      </trkpt>
      <trkpt lat="46.56105" lon="0.30276">
        <ele>123.1</ele>
        <time>2020-05-30T16:36:32Z</time>
      </trkpt>
      <trkpt lat="46.56116" lon="0.30278">
        <ele>123.4</ele>
        <time>2020-05-30T16:36:33Z</time>
      </trkpt>
      <trkpt lat="46.56127" lon="0.30283">
        <ele>123.7</ele>
        <time>2020-05-30T16:36:34Z</time>
      </trkpt>
      <trkpt lat="46.56136" lon="0.3029">
        <ele>124</ele>
        <time>2020-05-30T16:36:35Z</time>
      </trkpt>
      <trkpt lat="46.56146" lon="0.30296">
        <ele>124.3</ele>
        <time>2020-05-30T16:36:36Z</time>
      </trkpt>
      <trkpt lat="46.56155" lon="0.30304">
        <ele>124.6</ele>
        <time>2020-05-30T16:36:37Z</time>
      </trkpt>
      <trkpt lat="46.56164" lon="0.30312">
        <ele>124.9</ele>
        <time>2020-05-30T16:36:38Z</time>
      </trkpt>
      <trkpt lat="46.56172" lon="0.30319">
        <ele>125.2</ele>
        <time>2020-05-30T16:36:39Z</time>
      </trkpt>
      <trkpt lat="46.5618" lon="0.30327">
        <ele>125.5</ele>
        <time>2020-05-30T16:36:40Z</time>
      </trkpt>
      <trkpt lat="46.56187" lon="0.30334">
        <ele>125.8</ele>
        <time>2020-05-30T16:36:41Z</time>
      </trkpt>
      <trkpt lat="46.56194" lon="0.30342">
        <ele>126.1</ele>
        <time>2020-05-30T16:36:42Z</time>
      </trkpt>
      <trkpt lat="46.562" lon="0.30348">
        <ele>126.4</ele>
        <time>2020-05-30T16:36:43Z</time>
      </trkpt>
      <trkpt lat="46.56206" lon="0.30354">
        <ele>126.7</ele>
        <time>2020-05-30T16:36:44Z</time>
      </trkpt>
      <trkpt lat="46.5621" lon="0.30361">
        <ele>127</ele>
        <time>2020-05-30T16:36:45Z</time>
      </trkpt>
      <trkpt lat="46.56214" lon="0.30368">
        <ele>127.2</ele>
        <time>2020-05-30T16:36:46Z</time>
      </trkpt>
      <trkpt lat="46.56218" lon="0.30375">
        <ele>127.5</ele>
        <time>2020-05-30T16:36:47Z</time>
      </trkpt>
      <trkpt lat="46.56222" lon="0.30381">
        <ele>125.6</ele>
        <time>2020-05-30T16:36:48Z</time>
      </trkpt>
      <trkpt lat="46.56226" lon="0.30385">
        <ele>124.2</ele>
        <time>2020-05-30T16:36:49Z</time>
      </trkpt>
      <trkpt lat="46.56231" lon="0.30384">
        <ele>124.2</ele>
        <time>2020-05-30T16:36:50Z</time>
      </trkpt>
      <trkpt lat="46.56236" lon="0.3038">
        <ele>124.5</ele>
        <time>2020-05-30T16:36:51Z</time>
      </trkpt>
      <trkpt lat="46.56238" lon="0.30374">
        <ele>124.8</ele>
        <time>2020-05-30T16:36:52Z</time>
      </trkpt>
      <trkpt lat="46.56239" lon="0.30368">
        <ele>125.1</ele>
        <time>2020-05-30T16:36:53Z</time>
      </trkpt>
      <trkpt lat="46.56238" lon="0.30362">
        <ele>125.7</ele>
        <time>2020-05-30T16:36:54Z</time>
      </trkpt>
      <trkpt lat="46.56237" lon="0.30356">
        <ele>126</ele>
        <time>2020-05-30T16:36:55Z</time>
      </trkpt>
      <trkpt lat="46.56235" lon="0.3035">
        <ele>126.3</ele>
        <time>2020-05-30T16:36:56Z</time>
      </trkpt>
      <trkpt lat="46.56234" lon="0.30344">
        <ele>126.6</ele>
        <time>2020-05-30T16:36:57Z</time>
      </trkpt>
      <trkpt lat="46.56235" lon="0.30337">
        <ele>126.9</ele>
        <time>2020-05-30T16:36:58Z</time>
      </trkpt>
      <trkpt lat="46.56237" lon="0.30331">
        <ele>127.2</ele>
        <time>2020-05-30T16:36:59Z</time>
      </trkpt>
      <trkpt lat="46.56236" lon="0.30323">
        <ele>127.6</ele>
        <time>2020-05-30T16:37:00Z</time>
      </trkpt>
      <trkpt lat="46.56236" lon="0.30316">
        <ele>127.9</ele>
        <time>2020-05-30T16:37:01Z</time>
      </trkpt>
      <trkpt lat="46.56236" lon="0.3031">
        <ele>128.3</ele>
        <time>2020-05-30T16:37:02Z</time>
      </trkpt>
      <trkpt lat="46.56236" lon="0.30303">
        <ele>128.4</ele>
        <time>2020-05-30T16:37:03Z</time>
      </trkpt>
      <trkpt lat="46.56238" lon="0.30296">
        <ele>128.5</ele>
        <time>2020-05-30T16:37:04Z</time>
      </trkpt>
      <trkpt lat="46.56239" lon="0.30289">
        <ele>128.6</ele>
        <time>2020-05-30T16:37:05Z</time>
      </trkpt>
      <trkpt lat="46.56239" lon="0.30282">
        <ele>128.9</ele>
        <time>2020-05-30T16:37:06Z</time>
      </trkpt>
      <trkpt lat="46.5624" lon="0.30275">
        <ele>129.1</ele>
        <time>2020-05-30T16:37:07Z</time>
      </trkpt>
      <trkpt lat="46.5624" lon="0.30267">
        <ele>129.2</ele>
        <time>2020-05-30T16:37:08Z</time>
      </trkpt>
      <trkpt lat="46.56241" lon="0.3026">
        <ele>129.4</ele>
        <time>2020-05-30T16:37:09Z</time>
      </trkpt>
      <trkpt lat="46.56241" lon="0.30252">
        <ele>129.6</ele>
        <time>2020-05-30T16:37:10Z</time>
      </trkpt>
      <trkpt lat="46.56242" lon="0.30244">
        <ele>129.7</ele>
        <time>2020-05-30T16:37:11Z</time>
      </trkpt>
      <trkpt lat="46.56244" lon="0.30237">
        <ele>129.9</ele>
        <time>2020-05-30T16:37:12Z</time>
      </trkpt>
      <trkpt lat="46.56245" lon="0.3023">
        <ele>129.9</ele>
        <time>2020-05-30T16:37:13Z</time>
      </trkpt>
      <trkpt lat="46.56246" lon="0.30222">
        <ele>129.9</ele>
        <time>2020-05-30T16:37:14Z</time>
      </trkpt>
      <trkpt lat="46.56247" lon="0.30215">
        <ele>129.9</ele>
        <time>2020-05-30T16:37:15Z</time>
      </trkpt>
      <trkpt lat="46.56248" lon="0.30207">
        <ele>130</ele>
        <time>2020-05-30T16:37:16Z</time>
      </trkpt>
      <trkpt lat="46.56248" lon="0.30199">
        <ele>130.1</ele>
        <time>2020-05-30T16:37:17Z</time>
      </trkpt>
      <trkpt lat="46.56249" lon="0.30191">
        <ele>130.2</ele>
        <time>2020-05-30T16:37:18Z</time>
      </trkpt>
      <trkpt lat="46.5625" lon="0.30184">
        <ele>130.3</ele>
        <time>2020-05-30T16:37:19Z</time>
      </trkpt>
      <trkpt lat="46.56252" lon="0.30177">
        <ele>130.4</ele>
        <time>2020-05-30T16:37:20Z</time>
      </trkpt>
      <trkpt lat="46.56254" lon="0.3017">
        <ele>130.6</ele>
        <time>2020-05-30T16:37:21Z</time>
      </trkpt>
      <trkpt lat="46.56258" lon="0.30165">
        <ele>130.6</ele>
        <time>2020-05-30T16:37:22Z</time>
      </trkpt>
      <trkpt lat="46.56261" lon="0.30159">
        <ele>130.7</ele>
        <time>2020-05-30T16:37:23Z</time>
      </trkpt>
      <trkpt lat="46.56262" lon="0.30152">
        <ele>130.8</ele>
        <time>2020-05-30T16:37:24Z</time>
      </trkpt>
      <trkpt lat="46.56262" lon="0.30144">
        <ele>130.8</ele>
        <time>2020-05-30T16:37:25Z</time>
      </trkpt>
      <trkpt lat="46.56261" lon="0.30138">
        <ele>130.8</ele>
        <time>2020-05-30T16:37:26Z</time>
      </trkpt>
      <trkpt lat="46.56259" lon="0.30131">
        <ele>130.9</ele>
        <time>2020-05-30T16:37:27Z</time>
      </trkpt>
      <trkpt lat="46.56257" lon="0.30124">
        <ele>131</ele>
        <time>2020-05-30T16:37:28Z</time>
      </trkpt>
      <trkpt lat="46.56254" lon="0.30119">
        <ele>131.1</ele>
        <time>2020-05-30T16:37:29Z</time>
      </trkpt>
      <trkpt lat="46.56253" lon="0.30114">
        <ele>131.1</ele>
        <time>2020-05-30T16:37:30Z</time>
      </trkpt>
      <trkpt lat="46.56253" lon="0.30109">
        <ele>131.1</ele>
        <time>2020-05-30T16:37:31Z</time>
      </trkpt>
      <trkpt lat="46.56254" lon="0.30103">
        <ele>131.2</ele>
        <time>2020-05-30T16:37:32Z</time>
      </trkpt>
      <trkpt lat="46.56253" lon="0.30095">
        <ele>131.2</ele>
        <time>2020-05-30T16:37:33Z</time>
      </trkpt>
      <trkpt lat="46.56252" lon="0.30087">
        <ele>131.3</ele>
        <time>2020-05-30T16:37:34Z</time>
      </trkpt>
      <trkpt lat="46.5625" lon="0.3008">
        <ele>131.3</ele>
        <time>2020-05-30T16:37:35Z</time>
      </trkpt>
      <trkpt lat="46.5625" lon="0.30077">
        <ele>131.4</ele>
        <time>2020-05-30T16:37:36Z</time>
      </trkpt>
      <trkpt lat="46.56249" lon="0.30072">
        <ele>131.4</ele>
        <time>2020-05-30T16:37:37Z</time>
      </trkpt>
      <trkpt lat="46.56248" lon="0.30067">
        <ele>131.4</ele>
        <time>2020-05-30T16:37:38Z</time>
      </trkpt>
      <trkpt lat="46.56248" lon="0.30062">
        <ele>131.4</ele>
        <time>2020-05-30T16:37:39Z</time>
      </trkpt>
      <trkpt lat="46.56248" lon="0.30057">
        <ele>131.4</ele>
        <time>2020-05-30T16:37:40Z</time>
      </trkpt>
      <trkpt lat="46.56248" lon="0.30053">
        <ele>131.5</ele>
        <time>2020-05-30T16:37:41Z</time>
      </trkpt>
      <trkpt lat="46.56247" lon="0.30047">
        <ele>131.5</ele>
        <time>2020-05-30T16:37:42Z</time>
      </trkpt>
      <trkpt lat="46.56245" lon="0.30039">
        <ele>131.5</ele>
        <time>2020-05-30T16:37:43Z</time>
      </trkpt>
      <trkpt lat="46.56244" lon="0.30033">
        <ele>131.5</ele>
        <time>2020-05-30T16:37:44Z</time>
      </trkpt>
      <trkpt lat="46.56244" lon="0.30028">
        <ele>131.5</ele>
        <time>2020-05-30T16:37:45Z</time>
      </trkpt>
      <trkpt lat="46.56245" lon="0.30025">
        <ele>131.5</ele>
        <time>2020-05-30T16:37:46Z</time>
      </trkpt>
      <trkpt lat="46.56245" lon="0.30018">
        <ele>131.5</ele>
        <time>2020-05-30T16:37:47Z</time>
      </trkpt>
      <trkpt lat="46.56244" lon="0.30012">
        <ele>131.5</ele>
        <time>2020-05-30T16:37:48Z</time>
      </trkpt>
      <trkpt lat="46.56243" lon="0.30006">
        <ele>131.6</ele>
        <time>2020-05-30T16:37:49Z</time>
      </trkpt>
      <trkpt lat="46.56242" lon="0.3">
        <ele>131.6</ele>
        <time>2020-05-30T16:37:50Z</time>
      </trkpt>
      <trkpt lat="46.56242" lon="0.29994">
        <ele>131.6</ele>
        <time>2020-05-30T16:37:51Z</time>
      </trkpt>
      <trkpt lat="46.56241" lon="0.29988">
        <ele>131.6</ele>
        <time>2020-05-30T16:37:52Z</time>
      </trkpt>
      <trkpt lat="46.56241" lon="0.29982">
        <ele>131.5</ele>
        <time>2020-05-30T16:37:53Z</time>
      </trkpt>
      <trkpt lat="46.56239" lon="0.29974">
        <ele>131.5</ele>
        <time>2020-05-30T16:37:54Z</time>
      </trkpt>
      <trkpt lat="46.56238" lon="0.29967">
        <ele>131.5</ele>
        <time>2020-05-30T16:37:55Z</time>
      </trkpt>
      <trkpt lat="46.56237" lon="0.29961">
        <ele>131.5</ele>
        <time>2020-05-30T16:37:56Z</time>
      </trkpt>
      <trkpt lat="46.56235" lon="0.29953">
        <ele>131.5</ele>
        <time>2020-05-30T16:37:57Z</time>
      </trkpt>
      <trkpt lat="46.56234" lon="0.29946">
        <ele>131.4</ele>
        <time>2020-05-30T16:37:58Z</time>
      </trkpt>
      <trkpt lat="46.56234" lon="0.2994">
        <ele>131.4</ele>
        <time>2020-05-30T16:37:59Z</time>
      </trkpt>
      <trkpt lat="46.56233" lon="0.29932">
        <ele>131.4</ele>
        <time>2020-05-30T16:38:00Z</time>
      </trkpt>
      <trkpt lat="46.56232" lon="0.29923">
        <ele>131.3</ele>
        <time>2020-05-30T16:38:01Z</time>
      </trkpt>
      <trkpt lat="46.56231" lon="0.29917">
        <ele>131.3</ele>
        <time>2020-05-30T16:38:02Z</time>
      </trkpt>
      <trkpt lat="46.56229" lon="0.2991">
        <ele>131.3</ele>
        <time>2020-05-30T16:38:03Z</time>
      </trkpt>
      <trkpt lat="46.56228" lon="0.29902">
        <ele>131.2</ele>
        <time>2020-05-30T16:38:04Z</time>
      </trkpt>
      <trkpt lat="46.56228" lon="0.29897">
        <ele>131.2</ele>
        <time>2020-05-30T16:38:05Z</time>
      </trkpt>
      <trkpt lat="46.56227" lon="0.29888">
        <ele>131.1</ele>
        <time>2020-05-30T16:38:06Z</time>
      </trkpt>
      <trkpt lat="46.56227" lon="0.29881">
        <ele>131.1</ele>
        <time>2020-05-30T16:38:07Z</time>
      </trkpt>
      <trkpt lat="46.56226" lon="0.29872">
        <ele>131</ele>
        <time>2020-05-30T16:38:08Z</time>
      </trkpt>
      <trkpt lat="46.56225" lon="0.29866">
        <ele>131</ele>
        <time>2020-05-30T16:38:09Z</time>
      </trkpt>
      <trkpt lat="46.56225" lon="0.2986">
        <ele>130.9</ele>
        <time>2020-05-30T16:38:10Z</time>
      </trkpt>
      <trkpt lat="46.56224" lon="0.29853">
        <ele>130.8</ele>
        <time>2020-05-30T16:38:11Z</time>
      </trkpt>
      <trkpt lat="46.56223" lon="0.29845">
        <ele>130.7</ele>
        <time>2020-05-30T16:38:12Z</time>
      </trkpt>
      <trkpt lat="46.56222" lon="0.29838">
        <ele>130.6</ele>
        <time>2020-05-30T16:38:13Z</time>
      </trkpt>
      <trkpt lat="46.56221" lon="0.2983">
        <ele>130.5</ele>
        <time>2020-05-30T16:38:14Z</time>
      </trkpt>
      <trkpt lat="46.56219" lon="0.29822">
        <ele>130.3</ele>
        <time>2020-05-30T16:38:15Z</time>
      </trkpt>
      <trkpt lat="46.56219" lon="0.29812">
        <ele>130.2</ele>
        <time>2020-05-30T16:38:16Z</time>
      </trkpt>
      <trkpt lat="46.56219" lon="0.29805">
        <ele>130</ele>
        <time>2020-05-30T16:38:17Z</time>
      </trkpt>
      <trkpt lat="46.56217" lon="0.29797">
        <ele>129.9</ele>
        <time>2020-05-30T16:38:18Z</time>
      </trkpt>
      <trkpt lat="46.56216" lon="0.29788">
        <ele>129.7</ele>
        <time>2020-05-30T16:38:19Z</time>
      </trkpt>
      <trkpt lat="46.56215" lon="0.29779">
        <ele>129.6</ele>
        <time>2020-05-30T16:38:20Z</time>
      </trkpt>
      <trkpt lat="46.56215" lon="0.2977">
        <ele>129.4</ele>
        <time>2020-05-30T16:38:21Z</time>
      </trkpt>
      <trkpt lat="46.56213" lon="0.29759">
        <ele>129.2</ele>
        <time>2020-05-30T16:38:22Z</time>
      </trkpt>
      <trkpt lat="46.56213" lon="0.2975">
        <ele>129.1</ele>
        <time>2020-05-30T16:38:23Z</time>
      </trkpt>
      <trkpt lat="46.5621" lon="0.29741">
        <ele>128.9</ele>
        <time>2020-05-30T16:38:24Z</time>
      </trkpt>
      <trkpt lat="46.5621" lon="0.29731">
        <ele>128.8</ele>
        <time>2020-05-30T16:38:25Z</time>
      </trkpt>
      <trkpt lat="46.56209" lon="0.2972">
        <ele>128.7</ele>
        <time>2020-05-30T16:38:26Z</time>
      </trkpt>
      <trkpt lat="46.56209" lon="0.29709">
        <ele>128.4</ele>
        <time>2020-05-30T16:38:27Z</time>
      </trkpt>
      <trkpt lat="46.56208" lon="0.29697">
        <ele>128.2</ele>
        <time>2020-05-30T16:38:28Z</time>
      </trkpt>
      <trkpt lat="46.56207" lon="0.29687">
        <ele>128.1</ele>
        <time>2020-05-30T16:38:29Z</time>
      </trkpt>
      <trkpt lat="46.56206" lon="0.29676">
        <ele>128</ele>
        <time>2020-05-30T16:38:30Z</time>
      </trkpt>
      <trkpt lat="46.56204" lon="0.29665">
        <ele>127.9</ele>
        <time>2020-05-30T16:38:31Z</time>
      </trkpt>
      <trkpt lat="46.56202" lon="0.29652">
        <ele>127.7</ele>
        <time>2020-05-30T16:38:32Z</time>
      </trkpt>
      <trkpt lat="46.56201" lon="0.2964">
        <ele>127.5</ele>
        <time>2020-05-30T16:38:33Z</time>
      </trkpt>
      <trkpt lat="46.56199" lon="0.29627">
        <ele>127.3</ele>
        <time>2020-05-30T16:38:34Z</time>
      </trkpt>
      <trkpt lat="46.56198" lon="0.29614">
        <ele>127</ele>
        <time>2020-05-30T16:38:35Z</time>
      </trkpt>
      <trkpt lat="46.56196" lon="0.296">
        <ele>126.5</ele>
        <time>2020-05-30T16:38:36Z</time>
      </trkpt>
      <trkpt lat="46.56195" lon="0.29587">
        <ele>126</ele>
        <time>2020-05-30T16:38:37Z</time>
      </trkpt>
      <trkpt lat="46.56193" lon="0.29573">
        <ele>125.5</ele>
        <time>2020-05-30T16:38:38Z</time>
      </trkpt>
      <trkpt lat="46.56191" lon="0.29559">
        <ele>125.1</ele>
        <time>2020-05-30T16:38:39Z</time>
      </trkpt>
      <trkpt lat="46.5619" lon="0.29545">
        <ele>124.8</ele>
        <time>2020-05-30T16:38:40Z</time>
      </trkpt>
      <trkpt lat="46.56188" lon="0.29531">
        <ele>124.6</ele>
        <time>2020-05-30T16:38:41Z</time>
      </trkpt>
      <trkpt lat="46.56186" lon="0.29517">
        <ele>124.5</ele>
        <time>2020-05-30T16:38:42Z</time>
      </trkpt>
      <trkpt lat="46.56184" lon="0.29503">
        <ele>124.5</ele>
        <time>2020-05-30T16:38:43Z</time>
      </trkpt>
      <trkpt lat="46.56182" lon="0.29488">
        <ele>124.5</ele>
        <time>2020-05-30T16:38:44Z</time>
      </trkpt>
      <trkpt lat="46.56181" lon="0.29474">
        <ele>124.5</ele>
        <time>2020-05-30T16:38:45Z</time>
      </trkpt>
      <trkpt lat="46.5618" lon="0.29459">
        <ele>124.5</ele>
        <time>2020-05-30T16:38:46Z</time>
      </trkpt>
      <trkpt lat="46.56179" lon="0.29444">
        <ele>124.5</ele>
        <time>2020-05-30T16:38:47Z</time>
      </trkpt>
      <trkpt lat="46.56177" lon="0.2943">
        <ele>124.5</ele>
        <time>2020-05-30T16:38:48Z</time>
      </trkpt>
      <trkpt lat="46.56176" lon="0.29415">
        <ele>124.4</ele>
        <time>2020-05-30T16:38:49Z</time>
      </trkpt>
      <trkpt lat="46.56176" lon="0.29401">
        <ele>124.4</ele>
        <time>2020-05-30T16:38:50Z</time>
      </trkpt>
      <trkpt lat="46.56175" lon="0.29386">
        <ele>124.4</ele>
        <time>2020-05-30T16:38:51Z</time>
      </trkpt>
      <trkpt lat="46.56175" lon="0.29372">
        <ele>124.4</ele>
        <time>2020-05-30T16:38:52Z</time>
      </trkpt>
      <trkpt lat="46.56175" lon="0.29358">
        <ele>124.4</ele>
        <time>2020-05-30T16:38:53Z</time>
      </trkpt>
      <trkpt lat="46.56175" lon="0.29344">
        <ele>124.5</ele>
        <time>2020-05-30T16:38:54Z</time>
      </trkpt>
      <trkpt lat="46.56174" lon="0.2933">
        <ele>124.6</ele>
        <time>2020-05-30T16:38:55Z</time>
      </trkpt>
      <trkpt lat="46.56173" lon="0.29316">
        <ele>124.8</ele>
        <time>2020-05-30T16:38:56Z</time>
      </trkpt>
      <trkpt lat="46.56174" lon="0.29302">
        <ele>125</ele>
        <time>2020-05-30T16:38:57Z</time>
      </trkpt>
      <trkpt lat="46.56174" lon="0.29289">
        <ele>125.3</ele>
        <time>2020-05-30T16:38:58Z</time>
      </trkpt>
      <trkpt lat="46.56173" lon="0.29275">
        <ele>125.5</ele>
        <time>2020-05-30T16:38:59Z</time>
      </trkpt>
      <trkpt lat="46.56173" lon="0.29262">
        <ele>125.8</ele>
        <time>2020-05-30T16:39:00Z</time>
      </trkpt>
      <trkpt lat="46.56172" lon="0.2925">
        <ele>126.1</ele>
        <time>2020-05-30T16:39:01Z</time>
      </trkpt>
      <trkpt lat="46.56172" lon="0.29238">
        <ele>126.3</ele>
        <time>2020-05-30T16:39:02Z</time>
      </trkpt>
      <trkpt lat="46.56172" lon="0.29226">
        <ele>126.5</ele>
        <time>2020-05-30T16:39:03Z</time>
      </trkpt>
      <trkpt lat="46.56173" lon="0.29215">
        <ele>126.7</ele>
        <time>2020-05-30T16:39:04Z</time>
      </trkpt>
      <trkpt lat="46.56174" lon="0.29204">
        <ele>127</ele>
        <time>2020-05-30T16:39:05Z</time>
      </trkpt>
      <trkpt lat="46.56174" lon="0.29194">
        <ele>127.3</ele>
        <time>2020-05-30T16:39:06Z</time>
      </trkpt>
      <trkpt lat="46.56172" lon="0.29183">
        <ele>127.7</ele>
        <time>2020-05-30T16:39:07Z</time>
      </trkpt>
      <trkpt lat="46.56171" lon="0.29173">
        <ele>128.2</ele>
        <time>2020-05-30T16:39:08Z</time>
      </trkpt>
      <trkpt lat="46.5617" lon="0.29163">
        <ele>128.6</ele>
        <time>2020-05-30T16:39:09Z</time>
      </trkpt>
      <trkpt lat="46.5617" lon="0.29153">
        <ele>129</ele>
        <time>2020-05-30T16:39:10Z</time>
      </trkpt>
      <trkpt lat="46.56169" lon="0.29144">
        <ele>129.4</ele>
        <time>2020-05-30T16:39:11Z</time>
      </trkpt>
      <trkpt lat="46.56168" lon="0.29135">
        <ele>129.8</ele>
        <time>2020-05-30T16:39:12Z</time>
      </trkpt>
      <trkpt lat="46.56168" lon="0.29126">
        <ele>129.9</ele>
        <time>2020-05-30T16:39:13Z</time>
      </trkpt>
      <trkpt lat="46.56167" lon="0.29117">
        <ele>130</ele>
        <time>2020-05-30T16:39:14Z</time>
      </trkpt>
      <trkpt lat="46.56166" lon="0.29108">
        <ele>130.2</ele>
        <time>2020-05-30T16:39:15Z</time>
      </trkpt>
      <trkpt lat="46.56166" lon="0.29099">
        <ele>130.3</ele>
        <time>2020-05-30T16:39:16Z</time>
      </trkpt>
      <trkpt lat="46.56165" lon="0.2909">
        <ele>130.5</ele>
        <time>2020-05-30T16:39:17Z</time>
      </trkpt>
      <trkpt lat="46.56164" lon="0.29081">
        <ele>130.7</ele>
        <time>2020-05-30T16:39:18Z</time>
      </trkpt>
      <trkpt lat="46.56164" lon="0.29073">
        <ele>130.9</ele>
        <time>2020-05-30T16:39:19Z</time>
      </trkpt>
      <trkpt lat="46.56162" lon="0.29064">
        <ele>131</ele>
        <time>2020-05-30T16:39:20Z</time>
      </trkpt>
      <trkpt lat="46.56161" lon="0.29056">
        <ele>131</ele>
        <time>2020-05-30T16:39:21Z</time>
      </trkpt>
      <trkpt lat="46.56158" lon="0.29048">
        <ele>131.1</ele>
        <time>2020-05-30T16:39:22Z</time>
      </trkpt>
      <trkpt lat="46.56157" lon="0.29039">
        <ele>131.2</ele>
        <time>2020-05-30T16:39:23Z</time>
      </trkpt>
      <trkpt lat="46.56156" lon="0.29031">
        <ele>131.2</ele>
        <time>2020-05-30T16:39:24Z</time>
      </trkpt>
      <trkpt lat="46.56155" lon="0.29022">
        <ele>131.3</ele>
        <time>2020-05-30T16:39:25Z</time>
      </trkpt>
      <trkpt lat="46.56154" lon="0.29014">
        <ele>131.3</ele>
        <time>2020-05-30T16:39:26Z</time>
      </trkpt>
      <trkpt lat="46.56153" lon="0.29005">
        <ele>131.3</ele>
        <time>2020-05-30T16:39:27Z</time>
      </trkpt>
      <trkpt lat="46.56153" lon="0.28996">
        <ele>131.3</ele>
        <time>2020-05-30T16:39:28Z</time>
      </trkpt>
      <trkpt lat="46.56151" lon="0.28988">
        <ele>131.3</ele>
        <time>2020-05-30T16:39:29Z</time>
      </trkpt>
      <trkpt lat="46.5615" lon="0.28979">
        <ele>131.3</ele>
        <time>2020-05-30T16:39:30Z</time>
      </trkpt>
      <trkpt lat="46.56149" lon="0.2897">
        <ele>131.3</ele>
        <time>2020-05-30T16:39:31Z</time>
      </trkpt>
      <trkpt lat="46.56149" lon="0.28962">
        <ele>131.2</ele>
        <time>2020-05-30T16:39:32Z</time>
      </trkpt>
      <trkpt lat="46.56148" lon="0.28953">
        <ele>131.2</ele>
        <time>2020-05-30T16:39:33Z</time>
      </trkpt>
      <trkpt lat="46.56147" lon="0.28944">
        <ele>131.2</ele>
        <time>2020-05-30T16:39:34Z</time>
      </trkpt>
      <trkpt lat="46.56144" lon="0.28935">
        <ele>131.2</ele>
        <time>2020-05-30T16:39:35Z</time>
      </trkpt>
      <trkpt lat="46.56142" lon="0.28926">
        <ele>131.1</ele>
        <time>2020-05-30T16:39:36Z</time>
      </trkpt>
      <trkpt lat="46.56141" lon="0.28917">
        <ele>131.1</ele>
        <time>2020-05-30T16:39:37Z</time>
      </trkpt>
      <trkpt lat="46.56141" lon="0.28909">
        <ele>131</ele>
        <time>2020-05-30T16:39:38Z</time>
      </trkpt>
      <trkpt lat="46.5614" lon="0.28901">
        <ele>131</ele>
        <time>2020-05-30T16:39:39Z</time>
      </trkpt>
      <trkpt lat="46.56138" lon="0.28894">
        <ele>131</ele>
        <time>2020-05-30T16:39:40Z</time>
      </trkpt>
      <trkpt lat="46.56138" lon="0.28887">
        <ele>130.9</ele>
        <time>2020-05-30T16:39:41Z</time>
      </trkpt>
      <trkpt lat="46.56137" lon="0.28881">
        <ele>130.9</ele>
        <time>2020-05-30T16:39:42Z</time>
      </trkpt>
      <trkpt lat="46.56139" lon="0.28875">
        <ele>130.9</ele>
        <time>2020-05-30T16:39:43Z</time>
      </trkpt>
      <trkpt lat="46.56139" lon="0.2887">
        <ele>130.9</ele>
        <time>2020-05-30T16:39:44Z</time>
      </trkpt>
      <trkpt lat="46.56137" lon="0.28865">
        <ele>130.9</ele>
        <time>2020-05-30T16:39:45Z</time>
      </trkpt>
      <trkpt lat="46.56136" lon="0.2886">
        <ele>130.8</ele>
        <time>2020-05-30T16:39:46Z</time>
      </trkpt>
      <trkpt lat="46.56135" lon="0.28855">
        <ele>130.8</ele>
        <time>2020-05-30T16:39:47Z</time>
      </trkpt>
      <trkpt lat="46.56134" lon="0.28849">
        <ele>130.8</ele>
        <time>2020-05-30T16:39:48Z</time>
      </trkpt>
      <trkpt lat="46.56134" lon="0.28842">
        <ele>130.7</ele>
        <time>2020-05-30T16:39:49Z</time>
      </trkpt>
      <trkpt lat="46.56133" lon="0.28834">
        <ele>130.7</ele>
        <time>2020-05-30T16:39:50Z</time>
      </trkpt>
      <trkpt lat="46.56132" lon="0.28827">
        <ele>130.7</ele>
        <time>2020-05-30T16:39:51Z</time>
      </trkpt>
      <trkpt lat="46.56132" lon="0.28819">
        <ele>130.6</ele>
        <time>2020-05-30T16:39:52Z</time>
      </trkpt>
      <trkpt lat="46.56129" lon="0.28811">
        <ele>130.6</ele>
        <time>2020-05-30T16:39:53Z</time>
      </trkpt>
      <trkpt lat="46.56128" lon="0.28803">
        <ele>130.6</ele>
        <time>2020-05-30T16:39:54Z</time>
      </trkpt>
      <trkpt lat="46.56126" lon="0.28794">
        <ele>130.5</ele>
        <time>2020-05-30T16:39:55Z</time>
      </trkpt>
      <trkpt lat="46.56125" lon="0.28785">
        <ele>130.5</ele>
        <time>2020-05-30T16:39:56Z</time>
      </trkpt>
      <trkpt lat="46.56124" lon="0.28776">
        <ele>130.5</ele>
        <time>2020-05-30T16:39:57Z</time>
      </trkpt>
      <trkpt lat="46.56122" lon="0.28767">
        <ele>130.4</ele>
        <time>2020-05-30T16:39:58Z</time>
      </trkpt>
      <trkpt lat="46.5612" lon="0.28758">
        <ele>130.4</ele>
        <time>2020-05-30T16:39:59Z</time>
      </trkpt>
      <trkpt lat="46.56119" lon="0.28749">
        <ele>130.4</ele>
        <time>2020-05-30T16:40:00Z</time>
      </trkpt>
      <trkpt lat="46.5612" lon="0.28739">
        <ele>130.3</ele>
        <time>2020-05-30T16:40:01Z</time>
      </trkpt>
      <trkpt lat="46.56119" lon="0.2873">
        <ele>130.3</ele>
        <time>2020-05-30T16:40:02Z</time>
      </trkpt>
      <trkpt lat="46.56118" lon="0.28721">
        <ele>130.2</ele>
        <time>2020-05-30T16:40:03Z</time>
      </trkpt>
      <trkpt lat="46.56116" lon="0.28711">
        <ele>130.2</ele>
        <time>2020-05-30T16:40:04Z</time>
      </trkpt>
      <trkpt lat="46.56114" lon="0.28702">
        <ele>130.2</ele>
        <time>2020-05-30T16:40:05Z</time>
      </trkpt>
      <trkpt lat="46.56114" lon="0.28692">
        <ele>130.1</ele>
        <time>2020-05-30T16:40:06Z</time>
      </trkpt>
      <trkpt lat="46.56113" lon="0.28683">
        <ele>130.1</ele>
        <time>2020-05-30T16:40:07Z</time>
      </trkpt>
      <trkpt lat="46.56111" lon="0.28673">
        <ele>130.1</ele>
        <time>2020-05-30T16:40:08Z</time>
      </trkpt>
      <trkpt lat="46.5611" lon="0.28664">
        <ele>130.1</ele>
        <time>2020-05-30T16:40:09Z</time>
      </trkpt>
      <trkpt lat="46.56109" lon="0.28655">
        <ele>130</ele>
        <time>2020-05-30T16:40:10Z</time>
      </trkpt>
      <trkpt lat="46.56108" lon="0.28646">
        <ele>130</ele>
        <time>2020-05-30T16:40:11Z</time>
      </trkpt>
      <trkpt lat="46.56107" lon="0.28637">
        <ele>130</ele>
        <time>2020-05-30T16:40:12Z</time>
      </trkpt>
      <trkpt lat="46.56106" lon="0.28628">
        <ele>129.9</ele>
        <time>2020-05-30T16:40:13Z</time>
      </trkpt>
      <trkpt lat="46.56104" lon="0.28619">
        <ele>129.9</ele>
        <time>2020-05-30T16:40:14Z</time>
      </trkpt>
      <trkpt lat="46.56103" lon="0.2861">
        <ele>129.9</ele>
        <time>2020-05-30T16:40:15Z</time>
      </trkpt>
      <trkpt lat="46.56101" lon="0.28601">
        <ele>129.9</ele>
        <time>2020-05-30T16:40:16Z</time>
      </trkpt>
      <trkpt lat="46.561" lon="0.28592">
        <ele>129.8</ele>
        <time>2020-05-30T16:40:17Z</time>
      </trkpt>
      <trkpt lat="46.56099" lon="0.28583">
        <ele>129.8</ele>
        <time>2020-05-30T16:40:18Z</time>
      </trkpt>
      <trkpt lat="46.56097" lon="0.28574">
        <ele>129.8</ele>
        <time>2020-05-30T16:40:19Z</time>
      </trkpt>
      <trkpt lat="46.56096" lon="0.28566">
        <ele>129.8</ele>
        <time>2020-05-30T16:40:20Z</time>
      </trkpt>
      <trkpt lat="46.56093" lon="0.28557">
        <ele>129.7</ele>
        <time>2020-05-30T16:40:21Z</time>
      </trkpt>
      <trkpt lat="46.56092" lon="0.28549">
        <ele>129.7</ele>
        <time>2020-05-30T16:40:22Z</time>
      </trkpt>
      <trkpt lat="46.5609" lon="0.2854">
        <ele>129.7</ele>
        <time>2020-05-30T16:40:23Z</time>
      </trkpt>
      <trkpt lat="46.56088" lon="0.28532">
        <ele>129.6</ele>
        <time>2020-05-30T16:40:24Z</time>
      </trkpt>
      <trkpt lat="46.56087" lon="0.28523">
        <ele>129.6</ele>
        <time>2020-05-30T16:40:25Z</time>
      </trkpt>
      <trkpt lat="46.56087" lon="0.28514">
        <ele>129.6</ele>
        <time>2020-05-30T16:40:26Z</time>
      </trkpt>
      <trkpt lat="46.56086" lon="0.28505">
        <ele>129.6</ele>
        <time>2020-05-30T16:40:27Z</time>
      </trkpt>
      <trkpt lat="46.56085" lon="0.28497">
        <ele>129.6</ele>
        <time>2020-05-30T16:40:28Z</time>
      </trkpt>
      <trkpt lat="46.56084" lon="0.28489">
        <ele>129.6</ele>
        <time>2020-05-30T16:40:29Z</time>
      </trkpt>
      <trkpt lat="46.56083" lon="0.28481">
        <ele>129.6</ele>
        <time>2020-05-30T16:40:30Z</time>
      </trkpt>
      <trkpt lat="46.56082" lon="0.28474">
        <ele>129.5</ele>
        <time>2020-05-30T16:40:31Z</time>
      </trkpt>
      <trkpt lat="46.56081" lon="0.28466">
        <ele>129.5</ele>
        <time>2020-05-30T16:40:32Z</time>
      </trkpt>
      <trkpt lat="46.56081" lon="0.28458">
        <ele>129.5</ele>
        <time>2020-05-30T16:40:33Z</time>
      </trkpt>
      <trkpt lat="46.56079" lon="0.28451">
        <ele>129.5</ele>
        <time>2020-05-30T16:40:34Z</time>
      </trkpt>
      <trkpt lat="46.56078" lon="0.28444">
        <ele>129.5</ele>
        <time>2020-05-30T16:40:35Z</time>
      </trkpt>
      <trkpt lat="46.56077" lon="0.28438">
        <ele>129.5</ele>
        <time>2020-05-30T16:40:36Z</time>
      </trkpt>
      <trkpt lat="46.56076" lon="0.28431">
        <ele>129.5</ele>
        <time>2020-05-30T16:40:37Z</time>
      </trkpt>
      <trkpt lat="46.56074" lon="0.28424">
        <ele>129.5</ele>
        <time>2020-05-30T16:40:38Z</time>
      </trkpt>
      <trkpt lat="46.56074" lon="0.28417">
        <ele>129.5</ele>
        <time>2020-05-30T16:40:39Z</time>
      </trkpt>
      <trkpt lat="46.56072" lon="0.2841">
        <ele>129.5</ele>
        <time>2020-05-30T16:40:40Z</time>
      </trkpt>
      <trkpt lat="46.56072" lon="0.28403">
        <ele>129.4</ele>
        <time>2020-05-30T16:40:41Z</time>
      </trkpt>
      <trkpt lat="46.56071" lon="0.28395">
        <ele>129.4</ele>
        <time>2020-05-30T16:40:42Z</time>
      </trkpt>
      <trkpt lat="46.5607" lon="0.28387">
        <ele>129.4</ele>
        <time>2020-05-30T16:40:43Z</time>
      </trkpt>
      <trkpt lat="46.56069" lon="0.28379">
        <ele>129.4</ele>
        <time>2020-05-30T16:40:44Z</time>
      </trkpt>
      <trkpt lat="46.56068" lon="0.28371">
        <ele>129.3</ele>
        <time>2020-05-30T16:40:45Z</time>
      </trkpt>
      <trkpt lat="46.56067" lon="0.28362">
        <ele>129.3</ele>
        <time>2020-05-30T16:40:46Z</time>
      </trkpt>
      <trkpt lat="46.56066" lon="0.28353">
        <ele>129.3</ele>
        <time>2020-05-30T16:40:47Z</time>
      </trkpt>
      <trkpt lat="46.56066" lon="0.28344">
        <ele>129.3</ele>
        <time>2020-05-30T16:40:48Z</time>
      </trkpt>
      <trkpt lat="46.56066" lon="0.28335">
        <ele>129.3</ele>
        <time>2020-05-30T16:40:49Z</time>
      </trkpt>
      <trkpt lat="46.56066" lon="0.28325">
        <ele>129.3</ele>
        <time>2020-05-30T16:40:50Z</time>
      </trkpt>
      <trkpt lat="46.56066" lon="0.28316">
        <ele>129.2</ele>
        <time>2020-05-30T16:40:51Z</time>
      </trkpt>
      <trkpt lat="46.56065" lon="0.28306">
        <ele>129.2</ele>
        <time>2020-05-30T16:40:52Z</time>
      </trkpt>
      <trkpt lat="46.56065" lon="0.28296">
        <ele>129.1</ele>
        <time>2020-05-30T16:40:53Z</time>
      </trkpt>
      <trkpt lat="46.56066" lon="0.28286">
        <ele>129.1</ele>
        <time>2020-05-30T16:40:54Z</time>
      </trkpt>
      <trkpt lat="46.56068" lon="0.28276">
        <ele>129</ele>
        <time>2020-05-30T16:40:55Z</time>
      </trkpt>
      <trkpt lat="46.56071" lon="0.28267">
        <ele>128.9</ele>
        <time>2020-05-30T16:40:56Z</time>
      </trkpt>
      <trkpt lat="46.56071" lon="0.28256">
        <ele>128.8</ele>
        <time>2020-05-30T16:40:57Z</time>
      </trkpt>
      <trkpt lat="46.56072" lon="0.28246">
        <ele>128.8</ele>
        <time>2020-05-30T16:40:58Z</time>
      </trkpt>
      <trkpt lat="46.56073" lon="0.28236">
        <ele>128.8</ele>
        <time>2020-05-30T16:40:59Z</time>
      </trkpt>
      <trkpt lat="46.56075" lon="0.28227">
        <ele>128.7</ele>
        <time>2020-05-30T16:41:00Z</time>
      </trkpt>
      <trkpt lat="46.56076" lon="0.28219">
        <ele>128.7</ele>
        <time>2020-05-30T16:41:01Z</time>
      </trkpt>
      <trkpt lat="46.56078" lon="0.28212">
        <ele>128.6</ele>
        <time>2020-05-30T16:41:02Z</time>
      </trkpt>
      <trkpt lat="46.56081" lon="0.28207">
        <ele>128.6</ele>
        <time>2020-05-30T16:41:03Z</time>
      </trkpt>
      <trkpt lat="46.56085" lon="0.28204">
        <ele>128.6</ele>
        <time>2020-05-30T16:41:04Z</time>
      </trkpt>
      <trkpt lat="46.56089" lon="0.28202">
        <ele>128.5</ele>
        <time>2020-05-30T16:41:05Z</time>
      </trkpt>
      <trkpt lat="46.56092" lon="0.28198">
        <ele>128.5</ele>
        <time>2020-05-30T16:41:06Z</time>
      </trkpt>
      <trkpt lat="46.56091" lon="0.28193">
        <ele>128.5</ele>
        <time>2020-05-30T16:41:07Z</time>
      </trkpt>
      <trkpt lat="46.5609" lon="0.28188">
        <ele>128.5</ele>
        <time>2020-05-30T16:41:08Z</time>
      </trkpt>
      <trkpt lat="46.56088" lon="0.28183">
        <ele>128.4</ele>
        <time>2020-05-30T16:41:09Z</time>
      </trkpt>
      <trkpt lat="46.56088" lon="0.28177">
        <ele>128.4</ele>
        <time>2020-05-30T16:41:10Z</time>
      </trkpt>
      <trkpt lat="46.56088" lon="0.28171">
        <ele>128.3</ele>
        <time>2020-05-30T16:41:11Z</time>
      </trkpt>
      <trkpt lat="46.56089" lon="0.28165">
        <ele>128.3</ele>
        <time>2020-05-30T16:41:12Z</time>
      </trkpt>
      <trkpt lat="46.5609" lon="0.28159">
        <ele>128.2</ele>
        <time>2020-05-30T16:41:13Z</time>
      </trkpt>
      <trkpt lat="46.56091" lon="0.28151">
        <ele>128.1</ele>
        <time>2020-05-30T16:41:14Z</time>
      </trkpt>
      <trkpt lat="46.56094" lon="0.28143">
        <ele>127.9</ele>
        <time>2020-05-30T16:41:15Z</time>
      </trkpt>
      <trkpt lat="46.56095" lon="0.28135">
        <ele>127.8</ele>
        <time>2020-05-30T16:41:16Z</time>
      </trkpt>
      <trkpt lat="46.56098" lon="0.28127">
        <ele>127.7</ele>
        <time>2020-05-30T16:41:17Z</time>
      </trkpt>
      <trkpt lat="46.56102" lon="0.2812">
        <ele>127.6</ele>
        <time>2020-05-30T16:41:18Z</time>
      </trkpt>
      <trkpt lat="46.56106" lon="0.28113">
        <ele>127.5</ele>
        <time>2020-05-30T16:41:19Z</time>
      </trkpt>
      <trkpt lat="46.56109" lon="0.28105">
        <ele>127.2</ele>
        <time>2020-05-30T16:41:20Z</time>
      </trkpt>
      <trkpt lat="46.56111" lon="0.28096">
        <ele>126.8</ele>
        <time>2020-05-30T16:41:21Z</time>
      </trkpt>
      <trkpt lat="46.56113" lon="0.28087">
        <ele>126.4</ele>
        <time>2020-05-30T16:41:22Z</time>
      </trkpt>
      <trkpt lat="46.56116" lon="0.28078">
        <ele>126</ele>
        <time>2020-05-30T16:41:23Z</time>
      </trkpt>
      <trkpt lat="46.56117" lon="0.28068">
        <ele>125.5</ele>
        <time>2020-05-30T16:41:24Z</time>
      </trkpt>
      <trkpt lat="46.56119" lon="0.2806">
        <ele>125.1</ele>
        <time>2020-05-30T16:41:25Z</time>
      </trkpt>
      <trkpt lat="46.56122" lon="0.28053">
        <ele>124.6</ele>
        <time>2020-05-30T16:41:26Z</time>
      </trkpt>
      <trkpt lat="46.56126" lon="0.28046">
        <ele>124.2</ele>
        <time>2020-05-30T16:41:27Z</time>
      </trkpt>
      <trkpt lat="46.56128" lon="0.28039">
        <ele>123.8</ele>
        <time>2020-05-30T16:41:28Z</time>
      </trkpt>
      <trkpt lat="46.56131" lon="0.28032">
        <ele>123.5</ele>
        <time>2020-05-30T16:41:29Z</time>
      </trkpt>
      <trkpt lat="46.56134" lon="0.28028">
        <ele>123.4</ele>
        <time>2020-05-30T16:41:30Z</time>
      </trkpt>
      <trkpt lat="46.56137" lon="0.28025">
        <ele>123.2</ele>
        <time>2020-05-30T16:41:31Z</time>
      </trkpt>
      <trkpt lat="46.56139" lon="0.28019">
        <ele>123</ele>
        <time>2020-05-30T16:41:32Z</time>
      </trkpt>
      <trkpt lat="46.56142" lon="0.28012">
        <ele>122.9</ele>
        <time>2020-05-30T16:41:33Z</time>
      </trkpt>
      <trkpt lat="46.56143" lon="0.28007">
        <ele>122.9</ele>
        <time>2020-05-30T16:41:34Z</time>
      </trkpt>
      <trkpt lat="46.56143" lon="0.28001">
        <ele>122.8</ele>
        <time>2020-05-30T16:41:35Z</time>
      </trkpt>
      <trkpt lat="46.56145" lon="0.27995">
        <ele>122.8</ele>
        <time>2020-05-30T16:41:36Z</time>
      </trkpt>
      <trkpt lat="46.56147" lon="0.27989">
        <ele>122.6</ele>
        <time>2020-05-30T16:41:37Z</time>
      </trkpt>
      <trkpt lat="46.56149" lon="0.27982">
        <ele>122.4</ele>
        <time>2020-05-30T16:41:38Z</time>
      </trkpt>
      <trkpt lat="46.56152" lon="0.27975">
        <ele>122.1</ele>
        <time>2020-05-30T16:41:39Z</time>
      </trkpt>
      <trkpt lat="46.56154" lon="0.27967">
        <ele>121.8</ele>
        <time>2020-05-30T16:41:40Z</time>
      </trkpt>
      <trkpt lat="46.56157" lon="0.27958">
        <ele>121.4</ele>
        <time>2020-05-30T16:41:41Z</time>
      </trkpt>
      <trkpt lat="46.5616" lon="0.2795">
        <ele>121</ele>
        <time>2020-05-30T16:41:42Z</time>
      </trkpt>
      <trkpt lat="46.56163" lon="0.27941">
        <ele>120.5</ele>
        <time>2020-05-30T16:41:43Z</time>
      </trkpt>
      <trkpt lat="46.56166" lon="0.27932">
        <ele>120</ele>
        <time>2020-05-30T16:41:44Z</time>
      </trkpt>
      <trkpt lat="46.56164" lon="0.2792">
        <ele>119.5</ele>
        <time>2020-05-30T16:41:45Z</time>
      </trkpt>
      <trkpt lat="46.56167" lon="0.2791">
        <ele>119</ele>
        <time>2020-05-30T16:41:46Z</time>
      </trkpt>
      <trkpt lat="46.56169" lon="0.279">
        <ele>118.6</ele>
        <time>2020-05-30T16:41:47Z</time>
      </trkpt>
      <trkpt lat="46.5617" lon="0.27888">
        <ele>118.1</ele>
        <time>2020-05-30T16:41:48Z</time>
      </trkpt>
      <trkpt lat="46.56172" lon="0.27876">
        <ele>117.7</ele>
        <time>2020-05-30T16:41:49Z</time>
      </trkpt>
      <trkpt lat="46.56174" lon="0.27865">
        <ele>117.2</ele>
        <time>2020-05-30T16:41:50Z</time>
      </trkpt>
      <trkpt lat="46.56176" lon="0.27853">
        <ele>116.7</ele>
        <time>2020-05-30T16:41:51Z</time>
      </trkpt>
      <trkpt lat="46.56179" lon="0.27841">
        <ele>116.2</ele>
        <time>2020-05-30T16:41:52Z</time>
      </trkpt>
      <trkpt lat="46.5618" lon="0.27827">
        <ele>115.7</ele>
        <time>2020-05-30T16:41:53Z</time>
      </trkpt>
      <trkpt lat="46.56181" lon="0.27814">
        <ele>115.3</ele>
        <time>2020-05-30T16:41:54Z</time>
      </trkpt>
      <trkpt lat="46.56183" lon="0.278">
        <ele>114.9</ele>
        <time>2020-05-30T16:41:55Z</time>
      </trkpt>
      <trkpt lat="46.56185" lon="0.27786">
        <ele>114.6</ele>
        <time>2020-05-30T16:41:56Z</time>
      </trkpt>
      <trkpt lat="46.56187" lon="0.27771">
        <ele>114.3</ele>
        <time>2020-05-30T16:41:57Z</time>
      </trkpt>
      <trkpt lat="46.56188" lon="0.27756">
        <ele>114.1</ele>
        <time>2020-05-30T16:41:58Z</time>
      </trkpt>
      <trkpt lat="46.5619" lon="0.27742">
        <ele>114.1</ele>
        <time>2020-05-30T16:41:59Z</time>
      </trkpt>
      <trkpt lat="46.56195" lon="0.2773">
        <ele>114.1</ele>
        <time>2020-05-30T16:42:00Z</time>
      </trkpt>
      <trkpt lat="46.56199" lon="0.27718">
        <ele>114.1</ele>
        <time>2020-05-30T16:42:01Z</time>
      </trkpt>
      <trkpt lat="46.56201" lon="0.27705">
        <ele>114.2</ele>
        <time>2020-05-30T16:42:02Z</time>
      </trkpt>
      <trkpt lat="46.56205" lon="0.27694">
        <ele>114.3</ele>
        <time>2020-05-30T16:42:03Z</time>
      </trkpt>
      <trkpt lat="46.56209" lon="0.27682">
        <ele>114.5</ele>
        <time>2020-05-30T16:42:04Z</time>
      </trkpt>
      <trkpt lat="46.56212" lon="0.27671">
        <ele>114.8</ele>
        <time>2020-05-30T16:42:05Z</time>
      </trkpt>
      <trkpt lat="46.56216" lon="0.2766">
        <ele>115.1</ele>
        <time>2020-05-30T16:42:06Z</time>
      </trkpt>
      <trkpt lat="46.56221" lon="0.2765">
        <ele>115.5</ele>
        <time>2020-05-30T16:42:07Z</time>
      </trkpt>
      <trkpt lat="46.56224" lon="0.2764">
        <ele>115.9</ele>
        <time>2020-05-30T16:42:08Z</time>
      </trkpt>
      <trkpt lat="46.56226" lon="0.2763">
        <ele>116.3</ele>
        <time>2020-05-30T16:42:09Z</time>
      </trkpt>
      <trkpt lat="46.56229" lon="0.27621">
        <ele>116.7</ele>
        <time>2020-05-30T16:42:10Z</time>
      </trkpt>
      <trkpt lat="46.56232" lon="0.27612">
        <ele>117.2</ele>
        <time>2020-05-30T16:42:11Z</time>
      </trkpt>
      <trkpt lat="46.56234" lon="0.27604">
        <ele>117.6</ele>
        <time>2020-05-30T16:42:12Z</time>
      </trkpt>
      <trkpt lat="46.56237" lon="0.27596">
        <ele>118.1</ele>
        <time>2020-05-30T16:42:13Z</time>
      </trkpt>
      <trkpt lat="46.56239" lon="0.27588">
        <ele>118.5</ele>
        <time>2020-05-30T16:42:14Z</time>
      </trkpt>
      <trkpt lat="46.56241" lon="0.2758">
        <ele>118.9</ele>
        <time>2020-05-30T16:42:15Z</time>
      </trkpt>
      <trkpt lat="46.56243" lon="0.27573">
        <ele>119.3</ele>
        <time>2020-05-30T16:42:16Z</time>
      </trkpt>
      <trkpt lat="46.56245" lon="0.27566">
        <ele>119.7</ele>
        <time>2020-05-30T16:42:17Z</time>
      </trkpt>
      <trkpt lat="46.56245" lon="0.27559">
        <ele>120</ele>
        <time>2020-05-30T16:42:18Z</time>
      </trkpt>
      <trkpt lat="46.56246" lon="0.27552">
        <ele>120.4</ele>
        <time>2020-05-30T16:42:19Z</time>
      </trkpt>
      <trkpt lat="46.56247" lon="0.27546">
        <ele>120.7</ele>
        <time>2020-05-30T16:42:20Z</time>
      </trkpt>
      <trkpt lat="46.56247" lon="0.27539">
        <ele>121</ele>
        <time>2020-05-30T16:42:21Z</time>
      </trkpt>
      <trkpt lat="46.56247" lon="0.27533">
        <ele>121.3</ele>
        <time>2020-05-30T16:42:22Z</time>
      </trkpt>
      <trkpt lat="46.56249" lon="0.27527">
        <ele>121.6</ele>
        <time>2020-05-30T16:42:23Z</time>
      </trkpt>
      <trkpt lat="46.5625" lon="0.27521">
        <ele>121.9</ele>
        <time>2020-05-30T16:42:24Z</time>
      </trkpt>
      <trkpt lat="46.56251" lon="0.27515">
        <ele>122.2</ele>
        <time>2020-05-30T16:42:25Z</time>
      </trkpt>
      <trkpt lat="46.56251" lon="0.27509">
        <ele>122.5</ele>
        <time>2020-05-30T16:42:26Z</time>
      </trkpt>
      <trkpt lat="46.56251" lon="0.27504">
        <ele>122.7</ele>
        <time>2020-05-30T16:42:27Z</time>
      </trkpt>
      <trkpt lat="46.56251" lon="0.27498">
        <ele>123</ele>
        <time>2020-05-30T16:42:28Z</time>
      </trkpt>
      <trkpt lat="46.56251" lon="0.27492">
        <ele>123.2</ele>
        <time>2020-05-30T16:42:29Z</time>
      </trkpt>
      <trkpt lat="46.56251" lon="0.27486">
        <ele>123.4</ele>
        <time>2020-05-30T16:42:30Z</time>
      </trkpt>
      <trkpt lat="46.56251" lon="0.2748">
        <ele>123.5</ele>
        <time>2020-05-30T16:42:31Z</time>
      </trkpt>
      <trkpt lat="46.56251" lon="0.27471">
        <ele>123.7</ele>
        <time>2020-05-30T16:42:32Z</time>
      </trkpt>
      <trkpt lat="46.56251" lon="0.27467">
        <ele>123.8</ele>
        <time>2020-05-30T16:42:33Z</time>
      </trkpt>
      <trkpt lat="46.56251" lon="0.2746">
        <ele>123.8</ele>
        <time>2020-05-30T16:42:34Z</time>
      </trkpt>
      <trkpt lat="46.5625" lon="0.27457">
        <ele>123.8</ele>
        <time>2020-05-30T16:42:35Z</time>
      </trkpt>
      <trkpt lat="46.56252" lon="0.27452">
        <ele>123.9</ele>
        <time>2020-05-30T16:42:36Z</time>
      </trkpt>
      <trkpt lat="46.56252" lon="0.27446">
        <ele>124.1</ele>
        <time>2020-05-30T16:42:37Z</time>
      </trkpt>
      <trkpt lat="46.56252" lon="0.2744">
        <ele>124.3</ele>
        <time>2020-05-30T16:42:38Z</time>
      </trkpt>
      <trkpt lat="46.56252" lon="0.27435">
        <ele>124.5</ele>
        <time>2020-05-30T16:42:39Z</time>
      </trkpt>
      <trkpt lat="46.56251" lon="0.27429">
        <ele>124.8</ele>
        <time>2020-05-30T16:42:40Z</time>
      </trkpt>
      <trkpt lat="46.56251" lon="0.27426">
        <ele>124.9</ele>
        <time>2020-05-30T16:42:41Z</time>
      </trkpt>
      <trkpt lat="46.56252" lon="0.27423">
        <ele>125.1</ele>
        <time>2020-05-30T16:42:42Z</time>
      </trkpt>
      <trkpt lat="46.56252" lon="0.27418">
        <ele>125.3</ele>
        <time>2020-05-30T16:42:43Z</time>
      </trkpt>
      <trkpt lat="46.56252" lon="0.27412">
        <ele>125.5</ele>
        <time>2020-05-30T16:42:44Z</time>
      </trkpt>
      <trkpt lat="46.56252" lon="0.27407">
        <ele>125.8</ele>
        <time>2020-05-30T16:42:45Z</time>
      </trkpt>
      <trkpt lat="46.56252" lon="0.27402">
        <ele>126</ele>
        <time>2020-05-30T16:42:46Z</time>
      </trkpt>
      <trkpt lat="46.56252" lon="0.27397">
        <ele>126.2</ele>
        <time>2020-05-30T16:42:47Z</time>
      </trkpt>
      <trkpt lat="46.56252" lon="0.27392">
        <ele>126.4</ele>
        <time>2020-05-30T16:42:48Z</time>
      </trkpt>
      <trkpt lat="46.56252" lon="0.27385">
        <ele>126.7</ele>
        <time>2020-05-30T16:42:49Z</time>
      </trkpt>
      <trkpt lat="46.56251" lon="0.27381">
        <ele>126.9</ele>
        <time>2020-05-30T16:42:50Z</time>
      </trkpt>
      <trkpt lat="46.56252" lon="0.27374">
        <ele>127.2</ele>
        <time>2020-05-30T16:42:51Z</time>
      </trkpt>
      <trkpt lat="46.56253" lon="0.27368">
        <ele>127.4</ele>
        <time>2020-05-30T16:42:52Z</time>
      </trkpt>
      <trkpt lat="46.56252" lon="0.27361">
        <ele>127.7</ele>
        <time>2020-05-30T16:42:53Z</time>
      </trkpt>
      <trkpt lat="46.56252" lon="0.27354">
        <ele>128</ele>
        <time>2020-05-30T16:42:54Z</time>
      </trkpt>
      <trkpt lat="46.56252" lon="0.27349">
        <ele>128.1</ele>
        <time>2020-05-30T16:42:55Z</time>
      </trkpt>
      <trkpt lat="46.56252" lon="0.27342">
        <ele>128.4</ele>
        <time>2020-05-30T16:42:56Z</time>
      </trkpt>
      <trkpt lat="46.56251" lon="0.27338">
        <ele>128.5</ele>
        <time>2020-05-30T16:42:57Z</time>
      </trkpt>
      <trkpt lat="46.56251" lon="0.27332">
        <ele>128.7</ele>
        <time>2020-05-30T16:42:58Z</time>
      </trkpt>
      <trkpt lat="46.56251" lon="0.27325">
        <ele>128.9</ele>
        <time>2020-05-30T16:42:59Z</time>
      </trkpt>
      <trkpt lat="46.56251" lon="0.27318">
        <ele>129.1</ele>
        <time>2020-05-30T16:43:00Z</time>
      </trkpt>
      <trkpt lat="46.56251" lon="0.27312">
        <ele>129.3</ele>
        <time>2020-05-30T16:43:01Z</time>
      </trkpt>
      <trkpt lat="46.56251" lon="0.27306">
        <ele>129.5</ele>
        <time>2020-05-30T16:43:02Z</time>
      </trkpt>
      <trkpt lat="46.56251" lon="0.27299">
        <ele>129.6</ele>
        <time>2020-05-30T16:43:03Z</time>
      </trkpt>
      <trkpt lat="46.56251" lon="0.27293">
        <ele>129.7</ele>
        <time>2020-05-30T16:43:04Z</time>
      </trkpt>
      <trkpt lat="46.56251" lon="0.27285">
        <ele>129.9</ele>
        <time>2020-05-30T16:43:05Z</time>
      </trkpt>
      <trkpt lat="46.5625" lon="0.2728">
        <ele>129.9</ele>
        <time>2020-05-30T16:43:06Z</time>
      </trkpt>
      <trkpt lat="46.5625" lon="0.27273">
        <ele>129.9</ele>
        <time>2020-05-30T16:43:07Z</time>
      </trkpt>
      <trkpt lat="46.5625" lon="0.27267">
        <ele>130</ele>
        <time>2020-05-30T16:43:08Z</time>
      </trkpt>
      <trkpt lat="46.5625" lon="0.27262">
        <ele>130</ele>
        <time>2020-05-30T16:43:09Z</time>
      </trkpt>
      <trkpt lat="46.5625" lon="0.27256">
        <ele>130</ele>
        <time>2020-05-30T16:43:10Z</time>
      </trkpt>
      <trkpt lat="46.56251" lon="0.27247">
        <ele>130.1</ele>
        <time>2020-05-30T16:43:11Z</time>
      </trkpt>
      <trkpt lat="46.5625" lon="0.27243">
        <ele>130.1</ele>
        <time>2020-05-30T16:43:12Z</time>
      </trkpt>
      <trkpt lat="46.5625" lon="0.27236">
        <ele>130.1</ele>
        <time>2020-05-30T16:43:13Z</time>
      </trkpt>
      <trkpt lat="46.56251" lon="0.27231">
        <ele>130.1</ele>
        <time>2020-05-30T16:43:14Z</time>
      </trkpt>
      <trkpt lat="46.5625" lon="0.27221">
        <ele>130.2</ele>
        <time>2020-05-30T16:43:15Z</time>
      </trkpt>
      <trkpt lat="46.56249" lon="0.27216">
        <ele>130.2</ele>
        <time>2020-05-30T16:43:16Z</time>
      </trkpt>
      <trkpt lat="46.56249" lon="0.27211">
        <ele>130.3</ele>
        <time>2020-05-30T16:43:17Z</time>
      </trkpt>
      <trkpt lat="46.56249" lon="0.272">
        <ele>130.3</ele>
        <time>2020-05-30T16:43:18Z</time>
      </trkpt>
      <trkpt lat="46.56249" lon="0.27195">
        <ele>130.3</ele>
        <time>2020-05-30T16:43:19Z</time>
      </trkpt>
      <trkpt lat="46.5625" lon="0.27188">
        <ele>130.3</ele>
        <time>2020-05-30T16:43:20Z</time>
      </trkpt>
      <trkpt lat="46.5625" lon="0.27179">
        <ele>130.3</ele>
        <time>2020-05-30T16:43:21Z</time>
      </trkpt>
      <trkpt lat="46.5625" lon="0.27174">
        <ele>130.3</ele>
        <time>2020-05-30T16:43:22Z</time>
      </trkpt>
      <trkpt lat="46.5625" lon="0.27165">
        <ele>130.4</ele>
        <time>2020-05-30T16:43:23Z</time>
      </trkpt>
      <trkpt lat="46.5625" lon="0.27157">
        <ele>130.4</ele>
        <time>2020-05-30T16:43:24Z</time>
      </trkpt>
      <trkpt lat="46.56251" lon="0.27148">
        <ele>130.4</ele>
        <time>2020-05-30T16:43:25Z</time>
      </trkpt>
      <trkpt lat="46.5625" lon="0.27142">
        <ele>130.4</ele>
        <time>2020-05-30T16:43:26Z</time>
      </trkpt>
      <trkpt lat="46.5625" lon="0.27134">
        <ele>130.4</ele>
        <time>2020-05-30T16:43:27Z</time>
      </trkpt>
      <trkpt lat="46.56249" lon="0.27127">
        <ele>130.4</ele>
        <time>2020-05-30T16:43:28Z</time>
      </trkpt>
      <trkpt lat="46.56249" lon="0.2712">
        <ele>130.4</ele>
        <time>2020-05-30T16:43:29Z</time>
      </trkpt>
      <trkpt lat="46.56249" lon="0.2711">
        <ele>130.4</ele>
        <time>2020-05-30T16:43:30Z</time>
      </trkpt>
      <trkpt lat="46.56248" lon="0.27104">
        <ele>130.4</ele>
        <time>2020-05-30T16:43:31Z</time>
      </trkpt>
      <trkpt lat="46.56247" lon="0.27095">
        <ele>130.4</ele>
        <time>2020-05-30T16:43:32Z</time>
      </trkpt>
      <trkpt lat="46.56245" lon="0.27085">
        <ele>130.5</ele>
        <time>2020-05-30T16:43:33Z</time>
      </trkpt>
      <trkpt lat="46.56244" lon="0.27076">
        <ele>130.5</ele>
        <time>2020-05-30T16:43:34Z</time>
      </trkpt>
      <trkpt lat="46.56243" lon="0.27066">
        <ele>130.5</ele>
        <time>2020-05-30T16:43:35Z</time>
      </trkpt>
      <trkpt lat="46.5624" lon="0.27057">
        <ele>130.5</ele>
        <time>2020-05-30T16:43:36Z</time>
      </trkpt>
      <trkpt lat="46.56237" lon="0.27047">
        <ele>130.5</ele>
        <time>2020-05-30T16:43:37Z</time>
      </trkpt>
      <trkpt lat="46.56234" lon="0.27036">
        <ele>130.4</ele>
        <time>2020-05-30T16:43:38Z</time>
      </trkpt>
      <trkpt lat="46.56231" lon="0.27026">
        <ele>130.4</ele>
        <time>2020-05-30T16:43:39Z</time>
      </trkpt>
      <trkpt lat="46.56228" lon="0.27016">
        <ele>130.3</ele>
        <time>2020-05-30T16:43:40Z</time>
      </trkpt>
      <trkpt lat="46.56224" lon="0.27006">
        <ele>130.2</ele>
        <time>2020-05-30T16:43:41Z</time>
      </trkpt>
      <trkpt lat="46.56221" lon="0.26996">
        <ele>130.1</ele>
        <time>2020-05-30T16:43:42Z</time>
      </trkpt>
      <trkpt lat="46.56217" lon="0.26986">
        <ele>130</ele>
        <time>2020-05-30T16:43:43Z</time>
      </trkpt>
      <trkpt lat="46.56212" lon="0.26977">
        <ele>130</ele>
        <time>2020-05-30T16:43:44Z</time>
      </trkpt>
      <trkpt lat="46.56208" lon="0.26967">
        <ele>129.9</ele>
        <time>2020-05-30T16:43:45Z</time>
      </trkpt>
      <trkpt lat="46.56203" lon="0.26958">
        <ele>129.9</ele>
        <time>2020-05-30T16:43:46Z</time>
      </trkpt>
      <trkpt lat="46.56198" lon="0.26949">
        <ele>129.9</ele>
        <time>2020-05-30T16:43:47Z</time>
      </trkpt>
      <trkpt lat="46.56192" lon="0.2694">
        <ele>130</ele>
        <time>2020-05-30T16:43:48Z</time>
      </trkpt>
      <trkpt lat="46.56187" lon="0.26931">
        <ele>130</ele>
        <time>2020-05-30T16:43:49Z</time>
      </trkpt>
      <trkpt lat="46.56182" lon="0.26922">
        <ele>130.1</ele>
        <time>2020-05-30T16:43:50Z</time>
      </trkpt>
      <trkpt lat="46.56176" lon="0.26914">
        <ele>130.2</ele>
        <time>2020-05-30T16:43:51Z</time>
      </trkpt>
      <trkpt lat="46.56171" lon="0.26905">
        <ele>130.3</ele>
        <time>2020-05-30T16:43:52Z</time>
      </trkpt>
      <trkpt lat="46.56166" lon="0.26897">
        <ele>130.4</ele>
        <time>2020-05-30T16:43:53Z</time>
      </trkpt>
      <trkpt lat="46.5616" lon="0.26888">
        <ele>130.5</ele>
        <time>2020-05-30T16:43:54Z</time>
      </trkpt>
      <trkpt lat="46.56154" lon="0.26881">
        <ele>130.7</ele>
        <time>2020-05-30T16:43:55Z</time>
      </trkpt>
      <trkpt lat="46.56149" lon="0.26873">
        <ele>130.9</ele>
        <time>2020-05-30T16:43:56Z</time>
      </trkpt>
      <trkpt lat="46.56144" lon="0.26865">
        <ele>131.1</ele>
        <time>2020-05-30T16:43:57Z</time>
      </trkpt>
      <trkpt lat="46.56139" lon="0.26858">
        <ele>131.3</ele>
        <time>2020-05-30T16:43:58Z</time>
      </trkpt>
      <trkpt lat="46.56134" lon="0.26851">
        <ele>131.5</ele>
        <time>2020-05-30T16:43:59Z</time>
      </trkpt>
      <trkpt lat="46.5613" lon="0.26843">
        <ele>131.8</ele>
        <time>2020-05-30T16:44:00Z</time>
      </trkpt>
      <trkpt lat="46.56125" lon="0.26836">
        <ele>132.1</ele>
        <time>2020-05-30T16:44:01Z</time>
      </trkpt>
      <trkpt lat="46.5612" lon="0.26828">
        <ele>132.3</ele>
        <time>2020-05-30T16:44:02Z</time>
      </trkpt>
      <trkpt lat="46.56116" lon="0.26821">
        <ele>132.5</ele>
        <time>2020-05-30T16:44:03Z</time>
      </trkpt>
      <trkpt lat="46.56112" lon="0.26814">
        <ele>132.7</ele>
        <time>2020-05-30T16:44:04Z</time>
      </trkpt>
      <trkpt lat="46.56108" lon="0.26807">
        <ele>132.9</ele>
        <time>2020-05-30T16:44:05Z</time>
      </trkpt>
      <trkpt lat="46.56104" lon="0.268">
        <ele>133.1</ele>
        <time>2020-05-30T16:44:06Z</time>
      </trkpt>
      <trkpt lat="46.56101" lon="0.26792">
        <ele>133.3</ele>
        <time>2020-05-30T16:44:07Z</time>
      </trkpt>
      <trkpt lat="46.56098" lon="0.26785">
        <ele>133.4</ele>
        <time>2020-05-30T16:44:08Z</time>
      </trkpt>
      <trkpt lat="46.56095" lon="0.26778">
        <ele>133.6</ele>
        <time>2020-05-30T16:44:09Z</time>
      </trkpt>
      <trkpt lat="46.56092" lon="0.2677">
        <ele>133.7</ele>
        <time>2020-05-30T16:44:10Z</time>
      </trkpt>
      <trkpt lat="46.56089" lon="0.26763">
        <ele>133.8</ele>
        <time>2020-05-30T16:44:11Z</time>
      </trkpt>
      <trkpt lat="46.56086" lon="0.26756">
        <ele>133.9</ele>
        <time>2020-05-30T16:44:12Z</time>
      </trkpt>
      <trkpt lat="46.56084" lon="0.26748">
        <ele>134</ele>
        <time>2020-05-30T16:44:13Z</time>
      </trkpt>
      <trkpt lat="46.56081" lon="0.26741">
        <ele>134.1</ele>
        <time>2020-05-30T16:44:14Z</time>
      </trkpt>
      <trkpt lat="46.56078" lon="0.26733">
        <ele>134.1</ele>
        <time>2020-05-30T16:44:15Z</time>
      </trkpt>
      <trkpt lat="46.56075" lon="0.26726">
        <ele>134.2</ele>
        <time>2020-05-30T16:44:16Z</time>
      </trkpt>
      <trkpt lat="46.56072" lon="0.26719">
        <ele>134.3</ele>
        <time>2020-05-30T16:44:17Z</time>
      </trkpt>
      <trkpt lat="46.56069" lon="0.26711">
        <ele>134.3</ele>
        <time>2020-05-30T16:44:18Z</time>
      </trkpt>
      <trkpt lat="46.56067" lon="0.26704">
        <ele>134.3</ele>
        <time>2020-05-30T16:44:19Z</time>
      </trkpt>
      <trkpt lat="46.56065" lon="0.26696">
        <ele>134.3</ele>
        <time>2020-05-30T16:44:20Z</time>
      </trkpt>
      <trkpt lat="46.56063" lon="0.26688">
        <ele>134.3</ele>
        <time>2020-05-30T16:44:21Z</time>
      </trkpt>
      <trkpt lat="46.56061" lon="0.26681">
        <ele>134.3</ele>
        <time>2020-05-30T16:44:22Z</time>
      </trkpt>
      <trkpt lat="46.56057" lon="0.26674">
        <ele>134.3</ele>
        <time>2020-05-30T16:44:23Z</time>
      </trkpt>
      <trkpt lat="46.56054" lon="0.26667">
        <ele>134.2</ele>
        <time>2020-05-30T16:44:24Z</time>
      </trkpt>
      <trkpt lat="46.56051" lon="0.2666">
        <ele>134.2</ele>
        <time>2020-05-30T16:44:25Z</time>
      </trkpt>
      <trkpt lat="46.56048" lon="0.26653">
        <ele>134.2</ele>
        <time>2020-05-30T16:44:26Z</time>
      </trkpt>
      <trkpt lat="46.56045" lon="0.26645">
        <ele>134.2</ele>
        <time>2020-05-30T16:44:27Z</time>
      </trkpt>
      <trkpt lat="46.56042" lon="0.26636">
        <ele>134.2</ele>
        <time>2020-05-30T16:44:28Z</time>
      </trkpt>
      <trkpt lat="46.56038" lon="0.26628">
        <ele>134.2</ele>
        <time>2020-05-30T16:44:29Z</time>
      </trkpt>
      <trkpt lat="46.56035" lon="0.2662">
        <ele>134.1</ele>
        <time>2020-05-30T16:44:30Z</time>
      </trkpt>
      <trkpt lat="46.56031" lon="0.26612">
        <ele>134.1</ele>
        <time>2020-05-30T16:44:31Z</time>
      </trkpt>
      <trkpt lat="46.56028" lon="0.26605">
        <ele>134.1</ele>
        <time>2020-05-30T16:44:32Z</time>
      </trkpt>
      <trkpt lat="46.56025" lon="0.26598">
        <ele>134.1</ele>
        <time>2020-05-30T16:44:33Z</time>
      </trkpt>
      <trkpt lat="46.56023" lon="0.26589">
        <ele>134.1</ele>
        <time>2020-05-30T16:44:34Z</time>
      </trkpt>
      <trkpt lat="46.5602" lon="0.26582">
        <ele>134.1</ele>
        <time>2020-05-30T16:44:35Z</time>
      </trkpt>
      <trkpt lat="46.56017" lon="0.26574">
        <ele>134.1</ele>
        <time>2020-05-30T16:44:36Z</time>
      </trkpt>
      <trkpt lat="46.56015" lon="0.26566">
        <ele>134.1</ele>
        <time>2020-05-30T16:44:37Z</time>
      </trkpt>
      <trkpt lat="46.56012" lon="0.26559">
        <ele>134</ele>
        <time>2020-05-30T16:44:38Z</time>
      </trkpt>
      <trkpt lat="46.5601" lon="0.26551">
        <ele>134</ele>
        <time>2020-05-30T16:44:39Z</time>
      </trkpt>
      <trkpt lat="46.56006" lon="0.26545">
        <ele>134</ele>
        <time>2020-05-30T16:44:40Z</time>
      </trkpt>
      <trkpt lat="46.56003" lon="0.26538">
        <ele>134</ele>
        <time>2020-05-30T16:44:41Z</time>
      </trkpt>
      <trkpt lat="46.56001" lon="0.2653">
        <ele>134</ele>
        <time>2020-05-30T16:44:42Z</time>
      </trkpt>
      <trkpt lat="46.55998" lon="0.26523">
        <ele>134</ele>
        <time>2020-05-30T16:44:43Z</time>
      </trkpt>
      <trkpt lat="46.55995" lon="0.26516">
        <ele>134</ele>
        <time>2020-05-30T16:44:44Z</time>
      </trkpt>
      <trkpt lat="46.55993" lon="0.26508">
        <ele>134</ele>
        <time>2020-05-30T16:44:45Z</time>
      </trkpt>
      <trkpt lat="46.55991" lon="0.26499">
        <ele>134</ele>
        <time>2020-05-30T16:44:46Z</time>
      </trkpt>
      <trkpt lat="46.55986" lon="0.26493">
        <ele>133.9</ele>
        <time>2020-05-30T16:44:47Z</time>
      </trkpt>
      <trkpt lat="46.55983" lon="0.26486">
        <ele>133.9</ele>
        <time>2020-05-30T16:44:48Z</time>
      </trkpt>
      <trkpt lat="46.5598" lon="0.26478">
        <ele>133.9</ele>
        <time>2020-05-30T16:44:49Z</time>
      </trkpt>
      <trkpt lat="46.55978" lon="0.2647">
        <ele>133.9</ele>
        <time>2020-05-30T16:44:50Z</time>
      </trkpt>
      <trkpt lat="46.55974" lon="0.26463">
        <ele>133.9</ele>
        <time>2020-05-30T16:44:51Z</time>
      </trkpt>
      <trkpt lat="46.55972" lon="0.26455">
        <ele>133.8</ele>
        <time>2020-05-30T16:44:52Z</time>
      </trkpt>
      <trkpt lat="46.55969" lon="0.26448">
        <ele>133.8</ele>
        <time>2020-05-30T16:44:53Z</time>
      </trkpt>
      <trkpt lat="46.55966" lon="0.2644">
        <ele>133.8</ele>
        <time>2020-05-30T16:44:54Z</time>
      </trkpt>
      <trkpt lat="46.55963" lon="0.26433">
        <ele>133.8</ele>
        <time>2020-05-30T16:44:55Z</time>
      </trkpt>
      <trkpt lat="46.5596" lon="0.26427">
        <ele>133.8</ele>
        <time>2020-05-30T16:44:56Z</time>
      </trkpt>
      <trkpt lat="46.55957" lon="0.2642">
        <ele>133.8</ele>
        <time>2020-05-30T16:44:57Z</time>
      </trkpt>
      <trkpt lat="46.55954" lon="0.26412">
        <ele>133.8</ele>
        <time>2020-05-30T16:44:58Z</time>
      </trkpt>
      <trkpt lat="46.55952" lon="0.26404">
        <ele>133.7</ele>
        <time>2020-05-30T16:44:59Z</time>
      </trkpt>
      <trkpt lat="46.55949" lon="0.26397">
        <ele>133.7</ele>
        <time>2020-05-30T16:45:00Z</time>
      </trkpt>
      <trkpt lat="46.55945" lon="0.2639">
        <ele>133.7</ele>
        <time>2020-05-30T16:45:01Z</time>
      </trkpt>
      <trkpt lat="46.55942" lon="0.26382">
        <ele>133.7</ele>
        <time>2020-05-30T16:45:02Z</time>
      </trkpt>
      <trkpt lat="46.55939" lon="0.26374">
        <ele>133.7</ele>
        <time>2020-05-30T16:45:03Z</time>
      </trkpt>
      <trkpt lat="46.55936" lon="0.26367">
        <ele>133.7</ele>
        <time>2020-05-30T16:45:04Z</time>
      </trkpt>
      <trkpt lat="46.55933" lon="0.2636">
        <ele>133.7</ele>
        <time>2020-05-30T16:45:05Z</time>
      </trkpt>
      <trkpt lat="46.5593" lon="0.26352">
        <ele>133.7</ele>
        <time>2020-05-30T16:45:06Z</time>
      </trkpt>
      <trkpt lat="46.55926" lon="0.26345">
        <ele>133.7</ele>
        <time>2020-05-30T16:45:07Z</time>
      </trkpt>
      <trkpt lat="46.55923" lon="0.26338">
        <ele>133.7</ele>
        <time>2020-05-30T16:45:08Z</time>
      </trkpt>
      <trkpt lat="46.55919" lon="0.26331">
        <ele>133.7</ele>
        <time>2020-05-30T16:45:09Z</time>
      </trkpt>
      <trkpt lat="46.55916" lon="0.26323">
        <ele>133.7</ele>
        <time>2020-05-30T16:45:10Z</time>
      </trkpt>
      <trkpt lat="46.55912" lon="0.26316">
        <ele>133.7</ele>
        <time>2020-05-30T16:45:11Z</time>
      </trkpt>
      <trkpt lat="46.55909" lon="0.26309">
        <ele>133.6</ele>
        <time>2020-05-30T16:45:12Z</time>
      </trkpt>
      <trkpt lat="46.55906" lon="0.263">
        <ele>133.6</ele>
        <time>2020-05-30T16:45:13Z</time>
      </trkpt>
      <trkpt lat="46.55903" lon="0.26292">
        <ele>133.6</ele>
        <time>2020-05-30T16:45:14Z</time>
      </trkpt>
      <trkpt lat="46.559" lon="0.26284">
        <ele>133.6</ele>
        <time>2020-05-30T16:45:15Z</time>
      </trkpt>
      <trkpt lat="46.55897" lon="0.26276">
        <ele>133.6</ele>
        <time>2020-05-30T16:45:16Z</time>
      </trkpt>
      <trkpt lat="46.55894" lon="0.26269">
        <ele>133.6</ele>
        <time>2020-05-30T16:45:17Z</time>
      </trkpt>
      <trkpt lat="46.5589" lon="0.26261">
        <ele>133.6</ele>
        <time>2020-05-30T16:45:18Z</time>
      </trkpt>
      <trkpt lat="46.55887" lon="0.26254">
        <ele>133.7</ele>
        <time>2020-05-30T16:45:19Z</time>
      </trkpt>
      <trkpt lat="46.55884" lon="0.26246">
        <ele>133.7</ele>
        <time>2020-05-30T16:45:20Z</time>
      </trkpt>
      <trkpt lat="46.5588" lon="0.26238">
        <ele>133.7</ele>
        <time>2020-05-30T16:45:21Z</time>
      </trkpt>
      <trkpt lat="46.55877" lon="0.26231">
        <ele>133.8</ele>
        <time>2020-05-30T16:45:22Z</time>
      </trkpt>
      <trkpt lat="46.55874" lon="0.26223">
        <ele>133.8</ele>
        <time>2020-05-30T16:45:23Z</time>
      </trkpt>
      <trkpt lat="46.55871" lon="0.26215">
        <ele>133.8</ele>
        <time>2020-05-30T16:45:24Z</time>
      </trkpt>
      <trkpt lat="46.55868" lon="0.26208">
        <ele>133.9</ele>
        <time>2020-05-30T16:45:25Z</time>
      </trkpt>
      <trkpt lat="46.55866" lon="0.262">
        <ele>133.9</ele>
        <time>2020-05-30T16:45:26Z</time>
      </trkpt>
      <trkpt lat="46.55863" lon="0.26192">
        <ele>134</ele>
        <time>2020-05-30T16:45:27Z</time>
      </trkpt>
      <trkpt lat="46.5586" lon="0.26184">
        <ele>134.1</ele>
        <time>2020-05-30T16:45:28Z</time>
      </trkpt>
      <trkpt lat="46.55857" lon="0.26176">
        <ele>134.2</ele>
        <time>2020-05-30T16:45:29Z</time>
      </trkpt>
      <trkpt lat="46.55854" lon="0.26168">
        <ele>134.3</ele>
        <time>2020-05-30T16:45:30Z</time>
      </trkpt>
      <trkpt lat="46.55852" lon="0.2616">
        <ele>134.4</ele>
        <time>2020-05-30T16:45:31Z</time>
      </trkpt>
      <trkpt lat="46.5585" lon="0.26152">
        <ele>134.5</ele>
        <time>2020-05-30T16:45:32Z</time>
      </trkpt>
      <trkpt lat="46.55848" lon="0.26144">
        <ele>134.6</ele>
        <time>2020-05-30T16:45:33Z</time>
      </trkpt>
      <trkpt lat="46.55846" lon="0.26135">
        <ele>134.6</ele>
        <time>2020-05-30T16:45:34Z</time>
      </trkpt>
      <trkpt lat="46.55842" lon="0.26128">
        <ele>134.7</ele>
        <time>2020-05-30T16:45:35Z</time>
      </trkpt>
      <trkpt lat="46.55841" lon="0.2612">
        <ele>134.8</ele>
        <time>2020-05-30T16:45:36Z</time>
      </trkpt>
      <trkpt lat="46.5584" lon="0.26112">
        <ele>134.9</ele>
        <time>2020-05-30T16:45:37Z</time>
      </trkpt>
      <trkpt lat="46.55837" lon="0.26104">
        <ele>135</ele>
        <time>2020-05-30T16:45:38Z</time>
      </trkpt>
      <trkpt lat="46.55835" lon="0.26096">
        <ele>135.1</ele>
        <time>2020-05-30T16:45:39Z</time>
      </trkpt>
      <trkpt lat="46.55833" lon="0.26088">
        <ele>135.2</ele>
        <time>2020-05-30T16:45:40Z</time>
      </trkpt>
      <trkpt lat="46.55831" lon="0.26081">
        <ele>135.3</ele>
        <time>2020-05-30T16:45:41Z</time>
      </trkpt>
      <trkpt lat="46.55829" lon="0.26073">
        <ele>135.4</ele>
        <time>2020-05-30T16:45:42Z</time>
      </trkpt>
      <trkpt lat="46.55828" lon="0.26065">
        <ele>135.5</ele>
        <time>2020-05-30T16:45:43Z</time>
      </trkpt>
      <trkpt lat="46.55824" lon="0.26059">
        <ele>135.6</ele>
        <time>2020-05-30T16:45:44Z</time>
      </trkpt>
      <trkpt lat="46.55822" lon="0.26052">
        <ele>135.7</ele>
        <time>2020-05-30T16:45:45Z</time>
      </trkpt>
      <trkpt lat="46.5582" lon="0.26044">
        <ele>135.8</ele>
        <time>2020-05-30T16:45:46Z</time>
      </trkpt>
      <trkpt lat="46.55818" lon="0.26037">
        <ele>135.9</ele>
        <time>2020-05-30T16:45:47Z</time>
      </trkpt>
      <trkpt lat="46.55817" lon="0.2603">
        <ele>135.9</ele>
        <time>2020-05-30T16:45:48Z</time>
      </trkpt>
      <trkpt lat="46.55815" lon="0.26023">
        <ele>136</ele>
        <time>2020-05-30T16:45:49Z</time>
      </trkpt>
      <trkpt lat="46.55813" lon="0.26016">
        <ele>136.1</ele>
        <time>2020-05-30T16:45:50Z</time>
      </trkpt>
      <trkpt lat="46.55811" lon="0.26009">
        <ele>136.2</ele>
        <time>2020-05-30T16:45:51Z</time>
      </trkpt>
      <trkpt lat="46.55809" lon="0.26001">
        <ele>136.2</ele>
        <time>2020-05-30T16:45:52Z</time>
      </trkpt>
      <trkpt lat="46.55806" lon="0.25994">
        <ele>136.3</ele>
        <time>2020-05-30T16:45:53Z</time>
      </trkpt>
      <trkpt lat="46.55805" lon="0.25986">
        <ele>136.4</ele>
        <time>2020-05-30T16:45:54Z</time>
      </trkpt>
      <trkpt lat="46.55803" lon="0.25979">
        <ele>136.5</ele>
        <time>2020-05-30T16:45:55Z</time>
      </trkpt>
      <trkpt lat="46.55801" lon="0.25972">
        <ele>136.6</ele>
        <time>2020-05-30T16:45:56Z</time>
      </trkpt>
      <trkpt lat="46.55799" lon="0.25965">
        <ele>136.7</ele>
        <time>2020-05-30T16:45:57Z</time>
      </trkpt>
      <trkpt lat="46.55797" lon="0.25958">
        <ele>136.9</ele>
        <time>2020-05-30T16:45:58Z</time>
      </trkpt>
      <trkpt lat="46.55793" lon="0.25951">
        <ele>137</ele>
        <time>2020-05-30T16:45:59Z</time>
      </trkpt>
      <trkpt lat="46.55791" lon="0.25944">
        <ele>137.2</ele>
        <time>2020-05-30T16:46:00Z</time>
      </trkpt>
      <trkpt lat="46.55789" lon="0.25937">
        <ele>137.3</ele>
        <time>2020-05-30T16:46:01Z</time>
      </trkpt>
      <trkpt lat="46.55785" lon="0.2593">
        <ele>137.4</ele>
        <time>2020-05-30T16:46:02Z</time>
      </trkpt>
      <trkpt lat="46.55782" lon="0.25924">
        <ele>137.5</ele>
        <time>2020-05-30T16:46:03Z</time>
      </trkpt>
      <trkpt lat="46.55779" lon="0.25917">
        <ele>137.5</ele>
        <time>2020-05-30T16:46:04Z</time>
      </trkpt>
      <trkpt lat="46.55776" lon="0.25911">
        <ele>137.6</ele>
        <time>2020-05-30T16:46:05Z</time>
      </trkpt>
      <trkpt lat="46.55773" lon="0.25904">
        <ele>137.7</ele>
        <time>2020-05-30T16:46:06Z</time>
      </trkpt>
      <trkpt lat="46.5577" lon="0.25897">
        <ele>137.8</ele>
        <time>2020-05-30T16:46:07Z</time>
      </trkpt>
      <trkpt lat="46.55767" lon="0.25891">
        <ele>137.9</ele>
        <time>2020-05-30T16:46:08Z</time>
      </trkpt>
      <trkpt lat="46.55763" lon="0.25885">
        <ele>138</ele>
        <time>2020-05-30T16:46:09Z</time>
      </trkpt>
      <trkpt lat="46.5576" lon="0.25878">
        <ele>138.1</ele>
        <time>2020-05-30T16:46:10Z</time>
      </trkpt>
      <trkpt lat="46.55757" lon="0.25872">
        <ele>138.2</ele>
        <time>2020-05-30T16:46:11Z</time>
      </trkpt>
      <trkpt lat="46.55753" lon="0.25866">
        <ele>138.3</ele>
        <time>2020-05-30T16:46:12Z</time>
      </trkpt>
      <trkpt lat="46.55749" lon="0.25861">
        <ele>138.4</ele>
        <time>2020-05-30T16:46:13Z</time>
      </trkpt>
      <trkpt lat="46.55746" lon="0.25854">
        <ele>138.4</ele>
        <time>2020-05-30T16:46:14Z</time>
      </trkpt>
      <trkpt lat="46.55743" lon="0.25847">
        <ele>138.5</ele>
        <time>2020-05-30T16:46:15Z</time>
      </trkpt>
      <trkpt lat="46.55739" lon="0.25841">
        <ele>138.5</ele>
        <time>2020-05-30T16:46:16Z</time>
      </trkpt>
      <trkpt lat="46.55736" lon="0.25835">
        <ele>138.6</ele>
        <time>2020-05-30T16:46:17Z</time>
      </trkpt>
      <trkpt lat="46.55732" lon="0.25829">
        <ele>138.7</ele>
        <time>2020-05-30T16:46:18Z</time>
      </trkpt>
      <trkpt lat="46.55729" lon="0.25823">
        <ele>138.8</ele>
        <time>2020-05-30T16:46:19Z</time>
      </trkpt>
      <trkpt lat="46.55725" lon="0.25817">
        <ele>138.9</ele>
        <time>2020-05-30T16:46:20Z</time>
      </trkpt>
      <trkpt lat="46.55722" lon="0.25812">
        <ele>139</ele>
        <time>2020-05-30T16:46:21Z</time>
      </trkpt>
      <trkpt lat="46.55719" lon="0.25806">
        <ele>139.1</ele>
        <time>2020-05-30T16:46:22Z</time>
      </trkpt>
      <trkpt lat="46.55716" lon="0.258">
        <ele>139.2</ele>
        <time>2020-05-30T16:46:23Z</time>
      </trkpt>
      <trkpt lat="46.55713" lon="0.25794">
        <ele>139.3</ele>
        <time>2020-05-30T16:46:24Z</time>
      </trkpt>
      <trkpt lat="46.5571" lon="0.25788">
        <ele>139.4</ele>
        <time>2020-05-30T16:46:25Z</time>
      </trkpt>
      <trkpt lat="46.55706" lon="0.25782">
        <ele>139.5</ele>
        <time>2020-05-30T16:46:26Z</time>
      </trkpt>
      <trkpt lat="46.55703" lon="0.25776">
        <ele>139.6</ele>
        <time>2020-05-30T16:46:27Z</time>
      </trkpt>
      <trkpt lat="46.557" lon="0.2577">
        <ele>139.7</ele>
        <time>2020-05-30T16:46:28Z</time>
      </trkpt>
      <trkpt lat="46.55696" lon="0.25763">
        <ele>139.8</ele>
        <time>2020-05-30T16:46:29Z</time>
      </trkpt>
      <trkpt lat="46.55693" lon="0.25757">
        <ele>139.9</ele>
        <time>2020-05-30T16:46:30Z</time>
      </trkpt>
      <trkpt lat="46.5569" lon="0.25751">
        <ele>140</ele>
        <time>2020-05-30T16:46:31Z</time>
      </trkpt>
      <trkpt lat="46.55687" lon="0.25744">
        <ele>140</ele>
        <time>2020-05-30T16:46:32Z</time>
      </trkpt>
      <trkpt lat="46.55683" lon="0.25738">
        <ele>140.1</ele>
        <time>2020-05-30T16:46:33Z</time>
      </trkpt>
      <trkpt lat="46.5568" lon="0.25732">
        <ele>140.2</ele>
        <time>2020-05-30T16:46:34Z</time>
      </trkpt>
      <trkpt lat="46.55676" lon="0.25726">
        <ele>140.2</ele>
        <time>2020-05-30T16:46:35Z</time>
      </trkpt>
      <trkpt lat="46.55673" lon="0.2572">
        <ele>140.3</ele>
        <time>2020-05-30T16:46:36Z</time>
      </trkpt>
      <trkpt lat="46.5567" lon="0.25714">
        <ele>140.4</ele>
        <time>2020-05-30T16:46:37Z</time>
      </trkpt>
      <trkpt lat="46.55667" lon="0.25707">
        <ele>140.4</ele>
        <time>2020-05-30T16:46:38Z</time>
      </trkpt>
      <trkpt lat="46.55663" lon="0.25701">
        <ele>140.5</ele>
        <time>2020-05-30T16:46:39Z</time>
      </trkpt>
      <trkpt lat="46.5566" lon="0.25695">
        <ele>140.6</ele>
        <time>2020-05-30T16:46:40Z</time>
      </trkpt>
      <trkpt lat="46.55657" lon="0.25689">
        <ele>140.6</ele>
        <time>2020-05-30T16:46:41Z</time>
      </trkpt>
      <trkpt lat="46.55653" lon="0.25684">
        <ele>140.7</ele>
        <time>2020-05-30T16:46:42Z</time>
      </trkpt>
      <trkpt lat="46.55649" lon="0.25678">
        <ele>140.8</ele>
        <time>2020-05-30T16:46:43Z</time>
      </trkpt>
      <trkpt lat="46.55646" lon="0.25672">
        <ele>140.9</ele>
        <time>2020-05-30T16:46:44Z</time>
      </trkpt>
      <trkpt lat="46.55643" lon="0.25666">
        <ele>141</ele>
        <time>2020-05-30T16:46:45Z</time>
      </trkpt>
      <trkpt lat="46.55639" lon="0.2566">
        <ele>141</ele>
        <time>2020-05-30T16:46:46Z</time>
      </trkpt>
      <trkpt lat="46.55637" lon="0.25652">
        <ele>141.1</ele>
        <time>2020-05-30T16:46:47Z</time>
      </trkpt>
      <trkpt lat="46.55634" lon="0.25646">
        <ele>141.2</ele>
        <time>2020-05-30T16:46:48Z</time>
      </trkpt>
      <trkpt lat="46.55631" lon="0.2564">
        <ele>141.3</ele>
        <time>2020-05-30T16:46:49Z</time>
      </trkpt>
      <trkpt lat="46.55627" lon="0.25635">
        <ele>141.3</ele>
        <time>2020-05-30T16:46:50Z</time>
      </trkpt>
      <trkpt lat="46.55624" lon="0.25629">
        <ele>141.4</ele>
        <time>2020-05-30T16:46:51Z</time>
      </trkpt>
      <trkpt lat="46.55621" lon="0.25622">
        <ele>141.5</ele>
        <time>2020-05-30T16:46:52Z</time>
      </trkpt>
      <trkpt lat="46.55616" lon="0.25618">
        <ele>141.6</ele>
        <time>2020-05-30T16:46:53Z</time>
      </trkpt>
      <trkpt lat="46.55613" lon="0.25612">
        <ele>141.7</ele>
        <time>2020-05-30T16:46:54Z</time>
      </trkpt>
      <trkpt lat="46.55611" lon="0.25605">
        <ele>141.7</ele>
        <time>2020-05-30T16:46:55Z</time>
      </trkpt>
      <trkpt lat="46.55608" lon="0.25599">
        <ele>141.8</ele>
        <time>2020-05-30T16:46:56Z</time>
      </trkpt>
      <trkpt lat="46.55604" lon="0.25593">
        <ele>141.9</ele>
        <time>2020-05-30T16:46:57Z</time>
      </trkpt>
      <trkpt lat="46.55601" lon="0.25588">
        <ele>142</ele>
        <time>2020-05-30T16:46:58Z</time>
      </trkpt>
      <trkpt lat="46.55598" lon="0.25581">
        <ele>142</ele>
        <time>2020-05-30T16:46:59Z</time>
      </trkpt>
      <trkpt lat="46.55595" lon="0.25575">
        <ele>142.1</ele>
        <time>2020-05-30T16:47:00Z</time>
      </trkpt>
      <trkpt lat="46.55592" lon="0.25569">
        <ele>142.2</ele>
        <time>2020-05-30T16:47:01Z</time>
      </trkpt>
      <trkpt lat="46.55589" lon="0.25562">
        <ele>142.2</ele>
        <time>2020-05-30T16:47:02Z</time>
      </trkpt>
      <trkpt lat="46.55588" lon="0.25554">
        <ele>142.3</ele>
        <time>2020-05-30T16:47:03Z</time>
      </trkpt>
      <trkpt lat="46.55584" lon="0.25548">
        <ele>142.4</ele>
        <time>2020-05-30T16:47:04Z</time>
      </trkpt>
      <trkpt lat="46.55582" lon="0.2554">
        <ele>142.4</ele>
        <time>2020-05-30T16:47:05Z</time>
      </trkpt>
      <trkpt lat="46.5558" lon="0.25532">
        <ele>142.4</ele>
        <time>2020-05-30T16:47:06Z</time>
      </trkpt>
      <trkpt lat="46.55578" lon="0.25525">
        <ele>142.5</ele>
        <time>2020-05-30T16:47:07Z</time>
      </trkpt>
      <trkpt lat="46.55576" lon="0.25517">
        <ele>142.5</ele>
        <time>2020-05-30T16:47:08Z</time>
      </trkpt>
      <trkpt lat="46.55574" lon="0.25509">
        <ele>142.5</ele>
        <time>2020-05-30T16:47:09Z</time>
      </trkpt>
      <trkpt lat="46.55571" lon="0.25501">
        <ele>142.5</ele>
        <time>2020-05-30T16:47:10Z</time>
      </trkpt>
      <trkpt lat="46.55568" lon="0.25494">
        <ele>142.5</ele>
        <time>2020-05-30T16:47:11Z</time>
      </trkpt>
      <trkpt lat="46.55566" lon="0.25486">
        <ele>142.5</ele>
        <time>2020-05-30T16:47:12Z</time>
      </trkpt>
      <trkpt lat="46.55564" lon="0.25478">
        <ele>142.5</ele>
        <time>2020-05-30T16:47:13Z</time>
      </trkpt>
      <trkpt lat="46.55562" lon="0.2547">
        <ele>142.5</ele>
        <time>2020-05-30T16:47:14Z</time>
      </trkpt>
      <trkpt lat="46.55561" lon="0.25462">
        <ele>142.6</ele>
        <time>2020-05-30T16:47:15Z</time>
      </trkpt>
      <trkpt lat="46.55558" lon="0.25454">
        <ele>142.6</ele>
        <time>2020-05-30T16:47:16Z</time>
      </trkpt>
      <trkpt lat="46.55555" lon="0.25446">
        <ele>142.6</ele>
        <time>2020-05-30T16:47:17Z</time>
      </trkpt>
      <trkpt lat="46.55552" lon="0.25439">
        <ele>142.6</ele>
        <time>2020-05-30T16:47:18Z</time>
      </trkpt>
      <trkpt lat="46.5555" lon="0.2543">
        <ele>142.6</ele>
        <time>2020-05-30T16:47:19Z</time>
      </trkpt>
      <trkpt lat="46.55548" lon="0.25423">
        <ele>142.6</ele>
        <time>2020-05-30T16:47:20Z</time>
      </trkpt>
      <trkpt lat="46.55544" lon="0.25416">
        <ele>142.6</ele>
        <time>2020-05-30T16:47:21Z</time>
      </trkpt>
      <trkpt lat="46.55543" lon="0.25408">
        <ele>142.7</ele>
        <time>2020-05-30T16:47:22Z</time>
      </trkpt>
      <trkpt lat="46.55541" lon="0.254">
        <ele>142.7</ele>
        <time>2020-05-30T16:47:23Z</time>
      </trkpt>
      <trkpt lat="46.5554" lon="0.25391">
        <ele>142.7</ele>
        <time>2020-05-30T16:47:24Z</time>
      </trkpt>
      <trkpt lat="46.55538" lon="0.25383">
        <ele>142.7</ele>
        <time>2020-05-30T16:47:25Z</time>
      </trkpt>
      <trkpt lat="46.55536" lon="0.25376">
        <ele>142.7</ele>
        <time>2020-05-30T16:47:26Z</time>
      </trkpt>
      <trkpt lat="46.55534" lon="0.25368">
        <ele>142.7</ele>
        <time>2020-05-30T16:47:27Z</time>
      </trkpt>
      <trkpt lat="46.55533" lon="0.2536">
        <ele>142.7</ele>
        <time>2020-05-30T16:47:28Z</time>
      </trkpt>
      <trkpt lat="46.55531" lon="0.25353">
        <ele>142.7</ele>
        <time>2020-05-30T16:47:29Z</time>
      </trkpt>
      <trkpt lat="46.55526" lon="0.25347">
        <ele>142.7</ele>
        <time>2020-05-30T16:47:30Z</time>
      </trkpt>
      <trkpt lat="46.55524" lon="0.25339">
        <ele>142.7</ele>
        <time>2020-05-30T16:47:31Z</time>
      </trkpt>
      <trkpt lat="46.55522" lon="0.25332">
        <ele>142.7</ele>
        <time>2020-05-30T16:47:32Z</time>
      </trkpt>
      <trkpt lat="46.55521" lon="0.25323">
        <ele>142.7</ele>
        <time>2020-05-30T16:47:33Z</time>
      </trkpt>
      <trkpt lat="46.55519" lon="0.25315">
        <ele>142.7</ele>
        <time>2020-05-30T16:47:34Z</time>
      </trkpt>
      <trkpt lat="46.55517" lon="0.25307">
        <ele>142.7</ele>
        <time>2020-05-30T16:47:35Z</time>
      </trkpt>
      <trkpt lat="46.55515" lon="0.25299">
        <ele>142.7</ele>
        <time>2020-05-30T16:47:36Z</time>
      </trkpt>
      <trkpt lat="46.55513" lon="0.25291">
        <ele>142.7</ele>
        <time>2020-05-30T16:47:37Z</time>
      </trkpt>
      <trkpt lat="46.55512" lon="0.25282">
        <ele>142.7</ele>
        <time>2020-05-30T16:47:38Z</time>
      </trkpt>
      <trkpt lat="46.55509" lon="0.25274">
        <ele>142.7</ele>
        <time>2020-05-30T16:47:39Z</time>
      </trkpt>
      <trkpt lat="46.55507" lon="0.25267">
        <ele>142.8</ele>
        <time>2020-05-30T16:47:40Z</time>
      </trkpt>
      <trkpt lat="46.55505" lon="0.25259">
        <ele>142.8</ele>
        <time>2020-05-30T16:47:41Z</time>
      </trkpt>
      <trkpt lat="46.55503" lon="0.25251">
        <ele>142.8</ele>
        <time>2020-05-30T16:47:42Z</time>
      </trkpt>
      <trkpt lat="46.55501" lon="0.25243">
        <ele>142.8</ele>
        <time>2020-05-30T16:47:43Z</time>
      </trkpt>
      <trkpt lat="46.55499" lon="0.25236">
        <ele>142.8</ele>
        <time>2020-05-30T16:47:44Z</time>
      </trkpt>
      <trkpt lat="46.55497" lon="0.25229">
        <ele>142.9</ele>
        <time>2020-05-30T16:47:45Z</time>
      </trkpt>
      <trkpt lat="46.55495" lon="0.25222">
        <ele>142.9</ele>
        <time>2020-05-30T16:47:46Z</time>
      </trkpt>
      <trkpt lat="46.55494" lon="0.25215">
        <ele>142.9</ele>
        <time>2020-05-30T16:47:47Z</time>
      </trkpt>
      <trkpt lat="46.55493" lon="0.25208">
        <ele>143</ele>
        <time>2020-05-30T16:47:48Z</time>
      </trkpt>
      <trkpt lat="46.55492" lon="0.25201">
        <ele>143</ele>
        <time>2020-05-30T16:47:49Z</time>
      </trkpt>
      <trkpt lat="46.5549" lon="0.25194">
        <ele>143</ele>
        <time>2020-05-30T16:47:50Z</time>
      </trkpt>
      <trkpt lat="46.55487" lon="0.25189">
        <ele>143</ele>
        <time>2020-05-30T16:47:51Z</time>
      </trkpt>
      <trkpt lat="46.55485" lon="0.25182">
        <ele>143</ele>
        <time>2020-05-30T16:47:52Z</time>
      </trkpt>
      <trkpt lat="46.55483" lon="0.25176">
        <ele>143</ele>
        <time>2020-05-30T16:47:53Z</time>
      </trkpt>
      <trkpt lat="46.55482" lon="0.25169">
        <ele>143</ele>
        <time>2020-05-30T16:47:54Z</time>
      </trkpt>
      <trkpt lat="46.55479" lon="0.25163">
        <ele>143</ele>
        <time>2020-05-30T16:47:55Z</time>
      </trkpt>
      <trkpt lat="46.55478" lon="0.25157">
        <ele>143</ele>
        <time>2020-05-30T16:47:56Z</time>
      </trkpt>
      <trkpt lat="46.55476" lon="0.25151">
        <ele>143</ele>
        <time>2020-05-30T16:47:57Z</time>
      </trkpt>
      <trkpt lat="46.55474" lon="0.25145">
        <ele>143.1</ele>
        <time>2020-05-30T16:47:58Z</time>
      </trkpt>
      <trkpt lat="46.55473" lon="0.25139">
        <ele>143.1</ele>
        <time>2020-05-30T16:47:59Z</time>
      </trkpt>
      <trkpt lat="46.55471" lon="0.25133">
        <ele>143.1</ele>
        <time>2020-05-30T16:48:00Z</time>
      </trkpt>
      <trkpt lat="46.55468" lon="0.25128">
        <ele>143.1</ele>
        <time>2020-05-30T16:48:01Z</time>
      </trkpt>
      <trkpt lat="46.55467" lon="0.25122">
        <ele>143.1</ele>
        <time>2020-05-30T16:48:02Z</time>
      </trkpt>
      <trkpt lat="46.55465" lon="0.25115">
        <ele>143.2</ele>
        <time>2020-05-30T16:48:03Z</time>
      </trkpt>
      <trkpt lat="46.55464" lon="0.25109">
        <ele>143.2</ele>
        <time>2020-05-30T16:48:04Z</time>
      </trkpt>
      <trkpt lat="46.55463" lon="0.25102">
        <ele>143.2</ele>
        <time>2020-05-30T16:48:05Z</time>
      </trkpt>
      <trkpt lat="46.55461" lon="0.25095">
        <ele>143.2</ele>
        <time>2020-05-30T16:48:06Z</time>
      </trkpt>
      <trkpt lat="46.55459" lon="0.25087">
        <ele>143.2</ele>
        <time>2020-05-30T16:48:07Z</time>
      </trkpt>
      <trkpt lat="46.55457" lon="0.2508">
        <ele>143.2</ele>
        <time>2020-05-30T16:48:08Z</time>
      </trkpt>
      <trkpt lat="46.55456" lon="0.25073">
        <ele>143.2</ele>
        <time>2020-05-30T16:48:09Z</time>
      </trkpt>
      <trkpt lat="46.55454" lon="0.25066">
        <ele>143.2</ele>
        <time>2020-05-30T16:48:10Z</time>
      </trkpt>
      <trkpt lat="46.55452" lon="0.25059">
        <ele>143.2</ele>
        <time>2020-05-30T16:48:11Z</time>
      </trkpt>
      <trkpt lat="46.55449" lon="0.25053">
        <ele>143.2</ele>
        <time>2020-05-30T16:48:12Z</time>
      </trkpt>
      <trkpt lat="46.55447" lon="0.25046">
        <ele>143.2</ele>
        <time>2020-05-30T16:48:13Z</time>
      </trkpt>
      <trkpt lat="46.55445" lon="0.2504">
        <ele>143.2</ele>
        <time>2020-05-30T16:48:14Z</time>
      </trkpt>
      <trkpt lat="46.55443" lon="0.25034">
        <ele>143.3</ele>
        <time>2020-05-30T16:48:15Z</time>
      </trkpt>
      <trkpt lat="46.55441" lon="0.25028">
        <ele>143.3</ele>
        <time>2020-05-30T16:48:16Z</time>
      </trkpt>
      <trkpt lat="46.55439" lon="0.25022">
        <ele>143.3</ele>
        <time>2020-05-30T16:48:17Z</time>
      </trkpt>
      <trkpt lat="46.55437" lon="0.25016">
        <ele>143.3</ele>
        <time>2020-05-30T16:48:18Z</time>
      </trkpt>
      <trkpt lat="46.55435" lon="0.2501">
        <ele>143.3</ele>
        <time>2020-05-30T16:48:19Z</time>
      </trkpt>
      <trkpt lat="46.55434" lon="0.25003">
        <ele>143.4</ele>
        <time>2020-05-30T16:48:20Z</time>
      </trkpt>
      <trkpt lat="46.55432" lon="0.24996">
        <ele>143.4</ele>
        <time>2020-05-30T16:48:21Z</time>
      </trkpt>
      <trkpt lat="46.55431" lon="0.24989">
        <ele>143.4</ele>
        <time>2020-05-30T16:48:22Z</time>
      </trkpt>
      <trkpt lat="46.55429" lon="0.24983">
        <ele>143.4</ele>
        <time>2020-05-30T16:48:23Z</time>
      </trkpt>
      <trkpt lat="46.55428" lon="0.24976">
        <ele>143.4</ele>
        <time>2020-05-30T16:48:24Z</time>
      </trkpt>
      <trkpt lat="46.55425" lon="0.2497">
        <ele>143.5</ele>
        <time>2020-05-30T16:48:25Z</time>
      </trkpt>
      <trkpt lat="46.55424" lon="0.24964">
        <ele>143.5</ele>
        <time>2020-05-30T16:48:26Z</time>
      </trkpt>
      <trkpt lat="46.55422" lon="0.24959">
        <ele>143.5</ele>
        <time>2020-05-30T16:48:27Z</time>
      </trkpt>
      <trkpt lat="46.5542" lon="0.24953">
        <ele>143.5</ele>
        <time>2020-05-30T16:48:28Z</time>
      </trkpt>
      <trkpt lat="46.55418" lon="0.24947">
        <ele>143.6</ele>
        <time>2020-05-30T16:48:29Z</time>
      </trkpt>
      <trkpt lat="46.55417" lon="0.2494">
        <ele>143.6</ele>
        <time>2020-05-30T16:48:30Z</time>
      </trkpt>
      <trkpt lat="46.55415" lon="0.24933">
        <ele>143.7</ele>
        <time>2020-05-30T16:48:31Z</time>
      </trkpt>
      <trkpt lat="46.55414" lon="0.24926">
        <ele>143.7</ele>
        <time>2020-05-30T16:48:32Z</time>
      </trkpt>
      <trkpt lat="46.55413" lon="0.24919">
        <ele>143.8</ele>
        <time>2020-05-30T16:48:33Z</time>
      </trkpt>
      <trkpt lat="46.55411" lon="0.24912">
        <ele>143.9</ele>
        <time>2020-05-30T16:48:34Z</time>
      </trkpt>
      <trkpt lat="46.55409" lon="0.24905">
        <ele>144</ele>
        <time>2020-05-30T16:48:35Z</time>
      </trkpt>
      <trkpt lat="46.55408" lon="0.24898">
        <ele>144</ele>
        <time>2020-05-30T16:48:36Z</time>
      </trkpt>
      <trkpt lat="46.55405" lon="0.24892">
        <ele>144.1</ele>
        <time>2020-05-30T16:48:37Z</time>
      </trkpt>
      <trkpt lat="46.55403" lon="0.24885">
        <ele>144.1</ele>
        <time>2020-05-30T16:48:38Z</time>
      </trkpt>
      <trkpt lat="46.554" lon="0.24878">
        <ele>144.2</ele>
        <time>2020-05-30T16:48:39Z</time>
      </trkpt>
      <trkpt lat="46.55399" lon="0.24871">
        <ele>144.2</ele>
        <time>2020-05-30T16:48:40Z</time>
      </trkpt>
      <trkpt lat="46.55397" lon="0.24864">
        <ele>144.3</ele>
        <time>2020-05-30T16:48:41Z</time>
      </trkpt>
      <trkpt lat="46.55395" lon="0.24858">
        <ele>144.3</ele>
        <time>2020-05-30T16:48:42Z</time>
      </trkpt>
      <trkpt lat="46.55393" lon="0.24852">
        <ele>144.4</ele>
        <time>2020-05-30T16:48:43Z</time>
      </trkpt>
      <trkpt lat="46.55391" lon="0.24845">
        <ele>144.5</ele>
        <time>2020-05-30T16:48:44Z</time>
      </trkpt>
      <trkpt lat="46.55388" lon="0.24839">
        <ele>144.7</ele>
        <time>2020-05-30T16:48:45Z</time>
      </trkpt>
      <trkpt lat="46.55386" lon="0.24833">
        <ele>144.8</ele>
        <time>2020-05-30T16:48:46Z</time>
      </trkpt>
      <trkpt lat="46.55384" lon="0.24826">
        <ele>144.9</ele>
        <time>2020-05-30T16:48:47Z</time>
      </trkpt>
      <trkpt lat="46.55382" lon="0.24819">
        <ele>145</ele>
        <time>2020-05-30T16:48:48Z</time>
      </trkpt>
      <trkpt lat="46.55381" lon="0.24812">
        <ele>145</ele>
        <time>2020-05-30T16:48:49Z</time>
      </trkpt>
      <trkpt lat="46.5538" lon="0.24805">
        <ele>145.1</ele>
        <time>2020-05-30T16:48:50Z</time>
      </trkpt>
      <trkpt lat="46.55378" lon="0.24799">
        <ele>145.1</ele>
        <time>2020-05-30T16:48:51Z</time>
      </trkpt>
      <trkpt lat="46.55377" lon="0.24792">
        <ele>145.1</ele>
        <time>2020-05-30T16:48:52Z</time>
      </trkpt>
      <trkpt lat="46.55375" lon="0.24785">
        <ele>145.1</ele>
        <time>2020-05-30T16:48:53Z</time>
      </trkpt>
      <trkpt lat="46.55373" lon="0.24779">
        <ele>145.2</ele>
        <time>2020-05-30T16:48:54Z</time>
      </trkpt>
      <trkpt lat="46.55371" lon="0.24773">
        <ele>145.2</ele>
        <time>2020-05-30T16:48:55Z</time>
      </trkpt>
      <trkpt lat="46.5537" lon="0.24767">
        <ele>145.3</ele>
        <time>2020-05-30T16:48:56Z</time>
      </trkpt>
      <trkpt lat="46.55368" lon="0.2476">
        <ele>145.3</ele>
        <time>2020-05-30T16:48:57Z</time>
      </trkpt>
      <trkpt lat="46.55366" lon="0.24753">
        <ele>145.4</ele>
        <time>2020-05-30T16:48:58Z</time>
      </trkpt>
      <trkpt lat="46.55365" lon="0.24747">
        <ele>145.5</ele>
        <time>2020-05-30T16:48:59Z</time>
      </trkpt>
      <trkpt lat="46.55363" lon="0.24741">
        <ele>145.5</ele>
        <time>2020-05-30T16:49:00Z</time>
      </trkpt>
      <trkpt lat="46.55362" lon="0.24734">
        <ele>145.6</ele>
        <time>2020-05-30T16:49:01Z</time>
      </trkpt>
      <trkpt lat="46.5536" lon="0.24728">
        <ele>145.7</ele>
        <time>2020-05-30T16:49:02Z</time>
      </trkpt>
      <trkpt lat="46.5536" lon="0.24721">
        <ele>145.7</ele>
        <time>2020-05-30T16:49:03Z</time>
      </trkpt>
      <trkpt lat="46.55359" lon="0.24715">
        <ele>145.8</ele>
        <time>2020-05-30T16:49:04Z</time>
      </trkpt>
      <trkpt lat="46.55357" lon="0.24709">
        <ele>145.8</ele>
        <time>2020-05-30T16:49:05Z</time>
      </trkpt>
      <trkpt lat="46.55356" lon="0.24703">
        <ele>145.9</ele>
        <time>2020-05-30T16:49:06Z</time>
      </trkpt>
      <trkpt lat="46.55354" lon="0.24697">
        <ele>146</ele>
        <time>2020-05-30T16:49:07Z</time>
      </trkpt>
      <trkpt lat="46.55353" lon="0.24691">
        <ele>146</ele>
        <time>2020-05-30T16:49:08Z</time>
      </trkpt>
      <trkpt lat="46.55352" lon="0.24685">
        <ele>146.1</ele>
        <time>2020-05-30T16:49:09Z</time>
      </trkpt>
      <trkpt lat="46.5535" lon="0.24678">
        <ele>146.1</ele>
        <time>2020-05-30T16:49:10Z</time>
      </trkpt>
      <trkpt lat="46.5535" lon="0.24672">
        <ele>146.2</ele>
        <time>2020-05-30T16:49:11Z</time>
      </trkpt>
      <trkpt lat="46.55348" lon="0.24666">
        <ele>146.2</ele>
        <time>2020-05-30T16:49:12Z</time>
      </trkpt>
      <trkpt lat="46.55346" lon="0.2466">
        <ele>146.3</ele>
        <time>2020-05-30T16:49:13Z</time>
      </trkpt>
      <trkpt lat="46.55344" lon="0.24653">
        <ele>146.3</ele>
        <time>2020-05-30T16:49:14Z</time>
      </trkpt>
      <trkpt lat="46.55343" lon="0.24646">
        <ele>146.3</ele>
        <time>2020-05-30T16:49:15Z</time>
      </trkpt>
      <trkpt lat="46.55343" lon="0.2464">
        <ele>146.4</ele>
        <time>2020-05-30T16:49:16Z</time>
      </trkpt>
      <trkpt lat="46.55342" lon="0.24633">
        <ele>146.4</ele>
        <time>2020-05-30T16:49:17Z</time>
      </trkpt>
      <trkpt lat="46.55341" lon="0.24627">
        <ele>146.5</ele>
        <time>2020-05-30T16:49:18Z</time>
      </trkpt>
      <trkpt lat="46.55339" lon="0.24622">
        <ele>146.5</ele>
        <time>2020-05-30T16:49:19Z</time>
      </trkpt>
      <trkpt lat="46.55339" lon="0.24616">
        <ele>146.6</ele>
        <time>2020-05-30T16:49:20Z</time>
      </trkpt>
      <trkpt lat="46.55338" lon="0.2461">
        <ele>146.6</ele>
        <time>2020-05-30T16:49:21Z</time>
      </trkpt>
      <trkpt lat="46.55337" lon="0.24604">
        <ele>146.7</ele>
        <time>2020-05-30T16:49:22Z</time>
      </trkpt>
      <trkpt lat="46.55337" lon="0.24598">
        <ele>146.7</ele>
        <time>2020-05-30T16:49:23Z</time>
      </trkpt>
      <trkpt lat="46.55335" lon="0.24593">
        <ele>146.8</ele>
        <time>2020-05-30T16:49:24Z</time>
      </trkpt>
      <trkpt lat="46.55334" lon="0.24587">
        <ele>146.8</ele>
        <time>2020-05-30T16:49:25Z</time>
      </trkpt>
      <trkpt lat="46.55332" lon="0.24582">
        <ele>146.9</ele>
        <time>2020-05-30T16:49:26Z</time>
      </trkpt>
      <trkpt lat="46.55331" lon="0.24576">
        <ele>146.9</ele>
        <time>2020-05-30T16:49:27Z</time>
      </trkpt>
      <trkpt lat="46.5533" lon="0.24571">
        <ele>147</ele>
        <time>2020-05-30T16:49:28Z</time>
      </trkpt>
      <trkpt lat="46.55329" lon="0.24565">
        <ele>147</ele>
        <time>2020-05-30T16:49:29Z</time>
      </trkpt>
      <trkpt lat="46.55329" lon="0.24559">
        <ele>147</ele>
        <time>2020-05-30T16:49:30Z</time>
      </trkpt>
      <trkpt lat="46.55328" lon="0.24554">
        <ele>147.1</ele>
        <time>2020-05-30T16:49:31Z</time>
      </trkpt>
      <trkpt lat="46.55327" lon="0.24548">
        <ele>147.1</ele>
        <time>2020-05-30T16:49:32Z</time>
      </trkpt>
      <trkpt lat="46.55327" lon="0.24542">
        <ele>147.1</ele>
        <time>2020-05-30T16:49:33Z</time>
      </trkpt>
      <trkpt lat="46.55325" lon="0.24537">
        <ele>147.2</ele>
        <time>2020-05-30T16:49:34Z</time>
      </trkpt>
      <trkpt lat="46.55324" lon="0.24531">
        <ele>147.2</ele>
        <time>2020-05-30T16:49:35Z</time>
      </trkpt>
      <trkpt lat="46.55322" lon="0.24525">
        <ele>147.2</ele>
        <time>2020-05-30T16:49:36Z</time>
      </trkpt>
      <trkpt lat="46.5532" lon="0.2452">
        <ele>147.2</ele>
        <time>2020-05-30T16:49:37Z</time>
      </trkpt>
      <trkpt lat="46.55319" lon="0.24513">
        <ele>147.3</ele>
        <time>2020-05-30T16:49:38Z</time>
      </trkpt>
      <trkpt lat="46.55318" lon="0.24508">
        <ele>147.3</ele>
        <time>2020-05-30T16:49:39Z</time>
      </trkpt>
      <trkpt lat="46.55317" lon="0.24501">
        <ele>147.3</ele>
        <time>2020-05-30T16:49:40Z</time>
      </trkpt>
      <trkpt lat="46.55315" lon="0.24496">
        <ele>147.4</ele>
        <time>2020-05-30T16:49:41Z</time>
      </trkpt>
      <trkpt lat="46.55314" lon="0.2449">
        <ele>147.4</ele>
        <time>2020-05-30T16:49:42Z</time>
      </trkpt>
      <trkpt lat="46.55313" lon="0.24483">
        <ele>147.5</ele>
        <time>2020-05-30T16:49:43Z</time>
      </trkpt>
      <trkpt lat="46.55312" lon="0.24478">
        <ele>147.5</ele>
        <time>2020-05-30T16:49:44Z</time>
      </trkpt>
      <trkpt lat="46.55311" lon="0.24472">
        <ele>147.6</ele>
        <time>2020-05-30T16:49:45Z</time>
      </trkpt>
      <trkpt lat="46.55311" lon="0.24466">
        <ele>147.7</ele>
        <time>2020-05-30T16:49:46Z</time>
      </trkpt>
      <trkpt lat="46.5531" lon="0.2446">
        <ele>147.7</ele>
        <time>2020-05-30T16:49:47Z</time>
      </trkpt>
      <trkpt lat="46.55309" lon="0.24455">
        <ele>147.8</ele>
        <time>2020-05-30T16:49:48Z</time>
      </trkpt>
      <trkpt lat="46.5531" lon="0.24449">
        <ele>147.8</ele>
        <time>2020-05-30T16:49:49Z</time>
      </trkpt>
      <trkpt lat="46.55308" lon="0.24443">
        <ele>147.8</ele>
        <time>2020-05-30T16:49:50Z</time>
      </trkpt>
      <trkpt lat="46.55307" lon="0.24437">
        <ele>147.9</ele>
        <time>2020-05-30T16:49:51Z</time>
      </trkpt>
      <trkpt lat="46.55307" lon="0.24432">
        <ele>147.9</ele>
        <time>2020-05-30T16:49:52Z</time>
      </trkpt>
      <trkpt lat="46.55306" lon="0.24426">
        <ele>147.9</ele>
        <time>2020-05-30T16:49:53Z</time>
      </trkpt>
      <trkpt lat="46.55305" lon="0.2442">
        <ele>147.9</ele>
        <time>2020-05-30T16:49:54Z</time>
      </trkpt>
      <trkpt lat="46.55303" lon="0.24415">
        <ele>148</ele>
        <time>2020-05-30T16:49:55Z</time>
      </trkpt>
      <trkpt lat="46.55302" lon="0.2441">
        <ele>148</ele>
        <time>2020-05-30T16:49:56Z</time>
      </trkpt>
      <trkpt lat="46.55302" lon="0.24404">
        <ele>148</ele>
        <time>2020-05-30T16:49:57Z</time>
      </trkpt>
      <trkpt lat="46.55302" lon="0.24399">
        <ele>148</ele>
        <time>2020-05-30T16:49:58Z</time>
      </trkpt>
      <trkpt lat="46.55301" lon="0.24393">
        <ele>148.1</ele>
        <time>2020-05-30T16:49:59Z</time>
      </trkpt>
      <trkpt lat="46.55301" lon="0.24386">
        <ele>148.1</ele>
        <time>2020-05-30T16:50:00Z</time>
      </trkpt>
      <trkpt lat="46.553" lon="0.24381">
        <ele>148.1</ele>
        <time>2020-05-30T16:50:01Z</time>
      </trkpt>
      <trkpt lat="46.55299" lon="0.24375">
        <ele>148.2</ele>
        <time>2020-05-30T16:50:02Z</time>
      </trkpt>
      <trkpt lat="46.55297" lon="0.24369">
        <ele>148.2</ele>
        <time>2020-05-30T16:50:03Z</time>
      </trkpt>
      <trkpt lat="46.55296" lon="0.24363">
        <ele>148.3</ele>
        <time>2020-05-30T16:50:04Z</time>
      </trkpt>
      <trkpt lat="46.55296" lon="0.24357">
        <ele>148.3</ele>
        <time>2020-05-30T16:50:05Z</time>
      </trkpt>
      <trkpt lat="46.55295" lon="0.24351">
        <ele>148.4</ele>
        <time>2020-05-30T16:50:06Z</time>
      </trkpt>
      <trkpt lat="46.55295" lon="0.24344">
        <ele>148.4</ele>
        <time>2020-05-30T16:50:07Z</time>
      </trkpt>
      <trkpt lat="46.55295" lon="0.24338">
        <ele>148.4</ele>
        <time>2020-05-30T16:50:08Z</time>
      </trkpt>
      <trkpt lat="46.55295" lon="0.24332">
        <ele>148.5</ele>
        <time>2020-05-30T16:50:09Z</time>
      </trkpt>
      <trkpt lat="46.55294" lon="0.24325">
        <ele>148.5</ele>
        <time>2020-05-30T16:50:10Z</time>
      </trkpt>
      <trkpt lat="46.55294" lon="0.24319">
        <ele>148.6</ele>
        <time>2020-05-30T16:50:11Z</time>
      </trkpt>
      <trkpt lat="46.55294" lon="0.24312">
        <ele>148.6</ele>
        <time>2020-05-30T16:50:12Z</time>
      </trkpt>
      <trkpt lat="46.55293" lon="0.24305">
        <ele>148.7</ele>
        <time>2020-05-30T16:50:13Z</time>
      </trkpt>
      <trkpt lat="46.55292" lon="0.24298">
        <ele>148.7</ele>
        <time>2020-05-30T16:50:14Z</time>
      </trkpt>
      <trkpt lat="46.55291" lon="0.24291">
        <ele>148.7</ele>
        <time>2020-05-30T16:50:15Z</time>
      </trkpt>
      <trkpt lat="46.55289" lon="0.24284">
        <ele>148.8</ele>
        <time>2020-05-30T16:50:16Z</time>
      </trkpt>
      <trkpt lat="46.55289" lon="0.24276">
        <ele>148.8</ele>
        <time>2020-05-30T16:50:17Z</time>
      </trkpt>
      <trkpt lat="46.55288" lon="0.24269">
        <ele>148.8</ele>
        <time>2020-05-30T16:50:18Z</time>
      </trkpt>
      <trkpt lat="46.55286" lon="0.24262">
        <ele>148.9</ele>
        <time>2020-05-30T16:50:19Z</time>
      </trkpt>
      <trkpt lat="46.55285" lon="0.24255">
        <ele>148.9</ele>
        <time>2020-05-30T16:50:20Z</time>
      </trkpt>
      <trkpt lat="46.55284" lon="0.24248">
        <ele>148.9</ele>
        <time>2020-05-30T16:50:21Z</time>
      </trkpt>
      <trkpt lat="46.55283" lon="0.24241">
        <ele>148.9</ele>
        <time>2020-05-30T16:50:22Z</time>
      </trkpt>
      <trkpt lat="46.55282" lon="0.24233">
        <ele>148.9</ele>
        <time>2020-05-30T16:50:23Z</time>
      </trkpt>
      <trkpt lat="46.55281" lon="0.24226">
        <ele>148.9</ele>
        <time>2020-05-30T16:50:24Z</time>
      </trkpt>
      <trkpt lat="46.5528" lon="0.24218">
        <ele>148.9</ele>
        <time>2020-05-30T16:50:25Z</time>
      </trkpt>
      <trkpt lat="46.55279" lon="0.24211">
        <ele>148.9</ele>
        <time>2020-05-30T16:50:26Z</time>
      </trkpt>
      <trkpt lat="46.55279" lon="0.24203">
        <ele>148.9</ele>
        <time>2020-05-30T16:50:27Z</time>
      </trkpt>
      <trkpt lat="46.55278" lon="0.24196">
        <ele>148.9</ele>
        <time>2020-05-30T16:50:28Z</time>
      </trkpt>
      <trkpt lat="46.55277" lon="0.24188">
        <ele>148.9</ele>
        <time>2020-05-30T16:50:29Z</time>
      </trkpt>
      <trkpt lat="46.55276" lon="0.2418">
        <ele>148.9</ele>
        <time>2020-05-30T16:50:30Z</time>
      </trkpt>
      <trkpt lat="46.55275" lon="0.24172">
        <ele>148.9</ele>
        <time>2020-05-30T16:50:31Z</time>
      </trkpt>
      <trkpt lat="46.55275" lon="0.24164">
        <ele>148.9</ele>
        <time>2020-05-30T16:50:32Z</time>
      </trkpt>
      <trkpt lat="46.55274" lon="0.24156">
        <ele>148.9</ele>
        <time>2020-05-30T16:50:33Z</time>
      </trkpt>
      <trkpt lat="46.55273" lon="0.24148">
        <ele>148.9</ele>
        <time>2020-05-30T16:50:34Z</time>
      </trkpt>
      <trkpt lat="46.55272" lon="0.2414">
        <ele>148.9</ele>
        <time>2020-05-30T16:50:35Z</time>
      </trkpt>
      <trkpt lat="46.55271" lon="0.24132">
        <ele>148.9</ele>
        <time>2020-05-30T16:50:36Z</time>
      </trkpt>
      <trkpt lat="46.55271" lon="0.24124">
        <ele>149</ele>
        <time>2020-05-30T16:50:37Z</time>
      </trkpt>
      <trkpt lat="46.5527" lon="0.24116">
        <ele>149</ele>
        <time>2020-05-30T16:50:38Z</time>
      </trkpt>
      <trkpt lat="46.5527" lon="0.24108">
        <ele>149.1</ele>
        <time>2020-05-30T16:50:39Z</time>
      </trkpt>
      <trkpt lat="46.5527" lon="0.241">
        <ele>149.1</ele>
        <time>2020-05-30T16:50:40Z</time>
      </trkpt>
      <trkpt lat="46.55267" lon="0.24092">
        <ele>149.2</ele>
        <time>2020-05-30T16:50:41Z</time>
      </trkpt>
      <trkpt lat="46.55265" lon="0.24084">
        <ele>149.2</ele>
        <time>2020-05-30T16:50:42Z</time>
      </trkpt>
      <trkpt lat="46.55263" lon="0.24076">
        <ele>149.3</ele>
        <time>2020-05-30T16:50:43Z</time>
      </trkpt>
      <trkpt lat="46.55262" lon="0.24069">
        <ele>149.3</ele>
        <time>2020-05-30T16:50:44Z</time>
      </trkpt>
      <trkpt lat="46.55262" lon="0.2406">
        <ele>149.4</ele>
        <time>2020-05-30T16:50:45Z</time>
      </trkpt>
      <trkpt lat="46.55262" lon="0.24052">
        <ele>149.5</ele>
        <time>2020-05-30T16:50:46Z</time>
      </trkpt>
      <trkpt lat="46.55262" lon="0.24045">
        <ele>149.5</ele>
        <time>2020-05-30T16:50:47Z</time>
      </trkpt>
      <trkpt lat="46.55261" lon="0.24037">
        <ele>149.6</ele>
        <time>2020-05-30T16:50:48Z</time>
      </trkpt>
      <trkpt lat="46.55261" lon="0.24029">
        <ele>149.7</ele>
        <time>2020-05-30T16:50:49Z</time>
      </trkpt>
      <trkpt lat="46.5526" lon="0.24022">
        <ele>149.8</ele>
        <time>2020-05-30T16:50:50Z</time>
      </trkpt>
      <trkpt lat="46.55259" lon="0.24015">
        <ele>149.8</ele>
        <time>2020-05-30T16:50:51Z</time>
      </trkpt>
      <trkpt lat="46.55258" lon="0.24007">
        <ele>149.9</ele>
        <time>2020-05-30T16:50:52Z</time>
      </trkpt>
      <trkpt lat="46.55257" lon="0.23999">
        <ele>149.9</ele>
        <time>2020-05-30T16:50:53Z</time>
      </trkpt>
      <trkpt lat="46.55255" lon="0.23992">
        <ele>150</ele>
        <time>2020-05-30T16:50:54Z</time>
      </trkpt>
      <trkpt lat="46.55254" lon="0.23984">
        <ele>150</ele>
        <time>2020-05-30T16:50:55Z</time>
      </trkpt>
      <trkpt lat="46.55254" lon="0.23977">
        <ele>150</ele>
        <time>2020-05-30T16:50:56Z</time>
      </trkpt>
      <trkpt lat="46.55253" lon="0.23969">
        <ele>150</ele>
        <time>2020-05-30T16:50:57Z</time>
      </trkpt>
      <trkpt lat="46.55251" lon="0.23962">
        <ele>150</ele>
        <time>2020-05-30T16:50:58Z</time>
      </trkpt>
      <trkpt lat="46.55249" lon="0.23954">
        <ele>150</ele>
        <time>2020-05-30T16:50:59Z</time>
      </trkpt>
      <trkpt lat="46.55248" lon="0.23946">
        <ele>150</ele>
        <time>2020-05-30T16:51:00Z</time>
      </trkpt>
      <trkpt lat="46.55246" lon="0.23939">
        <ele>150</ele>
        <time>2020-05-30T16:51:01Z</time>
      </trkpt>
      <trkpt lat="46.55244" lon="0.23931">
        <ele>150</ele>
        <time>2020-05-30T16:51:02Z</time>
      </trkpt>
      <trkpt lat="46.55243" lon="0.23923">
        <ele>150</ele>
        <time>2020-05-30T16:51:03Z</time>
      </trkpt>
      <trkpt lat="46.55242" lon="0.23915">
        <ele>150</ele>
        <time>2020-05-30T16:51:04Z</time>
      </trkpt>
      <trkpt lat="46.55241" lon="0.23907">
        <ele>150</ele>
        <time>2020-05-30T16:51:05Z</time>
      </trkpt>
      <trkpt lat="46.5524" lon="0.23898">
        <ele>150</ele>
        <time>2020-05-30T16:51:06Z</time>
      </trkpt>
      <trkpt lat="46.55238" lon="0.2389">
        <ele>150</ele>
        <time>2020-05-30T16:51:07Z</time>
      </trkpt>
      <trkpt lat="46.55236" lon="0.23881">
        <ele>150</ele>
        <time>2020-05-30T16:51:08Z</time>
      </trkpt>
      <trkpt lat="46.55235" lon="0.23873">
        <ele>150</ele>
        <time>2020-05-30T16:51:09Z</time>
      </trkpt>
      <trkpt lat="46.55234" lon="0.23864">
        <ele>150</ele>
        <time>2020-05-30T16:51:10Z</time>
      </trkpt>
      <trkpt lat="46.55232" lon="0.23855">
        <ele>150</ele>
        <time>2020-05-30T16:51:11Z</time>
      </trkpt>
      <trkpt lat="46.55232" lon="0.23846">
        <ele>150</ele>
        <time>2020-05-30T16:51:12Z</time>
      </trkpt>
      <trkpt lat="46.55232" lon="0.23838">
        <ele>150</ele>
        <time>2020-05-30T16:51:13Z</time>
      </trkpt>
      <trkpt lat="46.55233" lon="0.23829">
        <ele>150</ele>
        <time>2020-05-30T16:51:14Z</time>
      </trkpt>
      <trkpt lat="46.55233" lon="0.2382">
        <ele>150</ele>
        <time>2020-05-30T16:51:15Z</time>
      </trkpt>
      <trkpt lat="46.55233" lon="0.23812">
        <ele>149.9</ele>
        <time>2020-05-30T16:51:16Z</time>
      </trkpt>
      <trkpt lat="46.55234" lon="0.23803">
        <ele>149.9</ele>
        <time>2020-05-30T16:51:17Z</time>
      </trkpt>
      <trkpt lat="46.55233" lon="0.23794">
        <ele>149.9</ele>
        <time>2020-05-30T16:51:18Z</time>
      </trkpt>
      <trkpt lat="46.55233" lon="0.23785">
        <ele>149.8</ele>
        <time>2020-05-30T16:51:19Z</time>
      </trkpt>
      <trkpt lat="46.55233" lon="0.23776">
        <ele>149.8</ele>
        <time>2020-05-30T16:51:20Z</time>
      </trkpt>
      <trkpt lat="46.55232" lon="0.23767">
        <ele>149.8</ele>
        <time>2020-05-30T16:51:21Z</time>
      </trkpt>
      <trkpt lat="46.55232" lon="0.23758">
        <ele>149.7</ele>
        <time>2020-05-30T16:51:22Z</time>
      </trkpt>
      <trkpt lat="46.55232" lon="0.23748">
        <ele>149.7</ele>
        <time>2020-05-30T16:51:23Z</time>
      </trkpt>
      <trkpt lat="46.55233" lon="0.23739">
        <ele>149.7</ele>
        <time>2020-05-30T16:51:24Z</time>
      </trkpt>
      <trkpt lat="46.55233" lon="0.23731">
        <ele>149.7</ele>
        <time>2020-05-30T16:51:25Z</time>
      </trkpt>
      <trkpt lat="46.55232" lon="0.23722">
        <ele>149.7</ele>
        <time>2020-05-30T16:51:26Z</time>
      </trkpt>
      <trkpt lat="46.55231" lon="0.23714">
        <ele>149.7</ele>
        <time>2020-05-30T16:51:27Z</time>
      </trkpt>
      <trkpt lat="46.5523" lon="0.23705">
        <ele>149.7</ele>
        <time>2020-05-30T16:51:28Z</time>
      </trkpt>
      <trkpt lat="46.55229" lon="0.23695">
        <ele>149.7</ele>
        <time>2020-05-30T16:51:29Z</time>
      </trkpt>
      <trkpt lat="46.55228" lon="0.23686">
        <ele>149.7</ele>
        <time>2020-05-30T16:51:30Z</time>
      </trkpt>
      <trkpt lat="46.55227" lon="0.23678">
        <ele>149.7</ele>
        <time>2020-05-30T16:51:31Z</time>
      </trkpt>
      <trkpt lat="46.55226" lon="0.23669">
        <ele>149.7</ele>
        <time>2020-05-30T16:51:32Z</time>
      </trkpt>
      <trkpt lat="46.55225" lon="0.2366">
        <ele>149.8</ele>
        <time>2020-05-30T16:51:33Z</time>
      </trkpt>
      <trkpt lat="46.55224" lon="0.23651">
        <ele>149.8</ele>
        <time>2020-05-30T16:51:34Z</time>
      </trkpt>
      <trkpt lat="46.55222" lon="0.23642">
        <ele>149.8</ele>
        <time>2020-05-30T16:51:35Z</time>
      </trkpt>
      <trkpt lat="46.55222" lon="0.23633">
        <ele>149.8</ele>
        <time>2020-05-30T16:51:36Z</time>
      </trkpt>
      <trkpt lat="46.5522" lon="0.23625">
        <ele>149.9</ele>
        <time>2020-05-30T16:51:37Z</time>
      </trkpt>
      <trkpt lat="46.55219" lon="0.23616">
        <ele>149.9</ele>
        <time>2020-05-30T16:51:38Z</time>
      </trkpt>
      <trkpt lat="46.55218" lon="0.23607">
        <ele>149.9</ele>
        <time>2020-05-30T16:51:39Z</time>
      </trkpt>
      <trkpt lat="46.55216" lon="0.23598">
        <ele>149.9</ele>
        <time>2020-05-30T16:51:40Z</time>
      </trkpt>
      <trkpt lat="46.55215" lon="0.23589">
        <ele>149.9</ele>
        <time>2020-05-30T16:51:41Z</time>
      </trkpt>
      <trkpt lat="46.55214" lon="0.2358">
        <ele>149.9</ele>
        <time>2020-05-30T16:51:42Z</time>
      </trkpt>
      <trkpt lat="46.55214" lon="0.2357">
        <ele>149.9</ele>
        <time>2020-05-30T16:51:43Z</time>
      </trkpt>
      <trkpt lat="46.55212" lon="0.23561">
        <ele>149.9</ele>
        <time>2020-05-30T16:51:44Z</time>
      </trkpt>
      <trkpt lat="46.55212" lon="0.23552">
        <ele>149.9</ele>
        <time>2020-05-30T16:51:45Z</time>
      </trkpt>
      <trkpt lat="46.55211" lon="0.23543">
        <ele>149.9</ele>
        <time>2020-05-30T16:51:46Z</time>
      </trkpt>
      <trkpt lat="46.55209" lon="0.23534">
        <ele>149.9</ele>
        <time>2020-05-30T16:51:47Z</time>
      </trkpt>
      <trkpt lat="46.55208" lon="0.23524">
        <ele>149.9</ele>
        <time>2020-05-30T16:51:48Z</time>
      </trkpt>
      <trkpt lat="46.55206" lon="0.23515">
        <ele>149.9</ele>
        <time>2020-05-30T16:51:49Z</time>
      </trkpt>
      <trkpt lat="46.55205" lon="0.23506">
        <ele>149.9</ele>
        <time>2020-05-30T16:51:50Z</time>
      </trkpt>
      <trkpt lat="46.55204" lon="0.23497">
        <ele>149.9</ele>
        <time>2020-05-30T16:51:51Z</time>
      </trkpt>
      <trkpt lat="46.55203" lon="0.23488">
        <ele>149.9</ele>
        <time>2020-05-30T16:51:52Z</time>
      </trkpt>
      <trkpt lat="46.55202" lon="0.23479">
        <ele>149.9</ele>
        <time>2020-05-30T16:51:53Z</time>
      </trkpt>
      <trkpt lat="46.552" lon="0.2347">
        <ele>149.9</ele>
        <time>2020-05-30T16:51:54Z</time>
      </trkpt>
      <trkpt lat="46.55199" lon="0.23461">
        <ele>149.9</ele>
        <time>2020-05-30T16:51:55Z</time>
      </trkpt>
      <trkpt lat="46.55198" lon="0.23452">
        <ele>149.9</ele>
        <time>2020-05-30T16:51:56Z</time>
      </trkpt>
      <trkpt lat="46.55196" lon="0.23443">
        <ele>150</ele>
        <time>2020-05-30T16:51:57Z</time>
      </trkpt>
      <trkpt lat="46.55194" lon="0.23434">
        <ele>150</ele>
        <time>2020-05-30T16:51:58Z</time>
      </trkpt>
      <trkpt lat="46.55191" lon="0.23425">
        <ele>150</ele>
        <time>2020-05-30T16:51:59Z</time>
      </trkpt>
      <trkpt lat="46.55189" lon="0.23416">
        <ele>150</ele>
        <time>2020-05-30T16:52:00Z</time>
      </trkpt>
      <trkpt lat="46.55187" lon="0.23407">
        <ele>150</ele>
        <time>2020-05-30T16:52:01Z</time>
      </trkpt>
      <trkpt lat="46.55185" lon="0.23398">
        <ele>150</ele>
        <time>2020-05-30T16:52:02Z</time>
      </trkpt>
      <trkpt lat="46.55182" lon="0.23389">
        <ele>150</ele>
        <time>2020-05-30T16:52:03Z</time>
      </trkpt>
      <trkpt lat="46.55179" lon="0.2338">
        <ele>150</ele>
        <time>2020-05-30T16:52:04Z</time>
      </trkpt>
      <trkpt lat="46.55177" lon="0.23371">
        <ele>150</ele>
        <time>2020-05-30T16:52:05Z</time>
      </trkpt>
      <trkpt lat="46.55174" lon="0.23362">
        <ele>150.1</ele>
        <time>2020-05-30T16:52:06Z</time>
      </trkpt>
      <trkpt lat="46.55172" lon="0.23353">
        <ele>150.1</ele>
        <time>2020-05-30T16:52:07Z</time>
      </trkpt>
      <trkpt lat="46.5517" lon="0.23343">
        <ele>150.1</ele>
        <time>2020-05-30T16:52:08Z</time>
      </trkpt>
      <trkpt lat="46.55167" lon="0.23335">
        <ele>150.1</ele>
        <time>2020-05-30T16:52:09Z</time>
      </trkpt>
      <trkpt lat="46.55164" lon="0.23326">
        <ele>150.1</ele>
        <time>2020-05-30T16:52:10Z</time>
      </trkpt>
      <trkpt lat="46.55163" lon="0.23317">
        <ele>150.1</ele>
        <time>2020-05-30T16:52:11Z</time>
      </trkpt>
      <trkpt lat="46.55161" lon="0.23308">
        <ele>150.2</ele>
        <time>2020-05-30T16:52:12Z</time>
      </trkpt>
      <trkpt lat="46.5516" lon="0.23299">
        <ele>150.2</ele>
        <time>2020-05-30T16:52:13Z</time>
      </trkpt>
      <trkpt lat="46.55159" lon="0.23289">
        <ele>150.2</ele>
        <time>2020-05-30T16:52:14Z</time>
      </trkpt>
      <trkpt lat="46.55157" lon="0.2328">
        <ele>150.2</ele>
        <time>2020-05-30T16:52:15Z</time>
      </trkpt>
      <trkpt lat="46.55155" lon="0.23271">
        <ele>150.2</ele>
        <time>2020-05-30T16:52:16Z</time>
      </trkpt>
      <trkpt lat="46.55153" lon="0.23262">
        <ele>150.3</ele>
        <time>2020-05-30T16:52:17Z</time>
      </trkpt>
      <trkpt lat="46.55151" lon="0.23253">
        <ele>150.3</ele>
        <time>2020-05-30T16:52:18Z</time>
      </trkpt>
      <trkpt lat="46.5515" lon="0.23244">
        <ele>150.3</ele>
        <time>2020-05-30T16:52:19Z</time>
      </trkpt>
      <trkpt lat="46.55149" lon="0.23235">
        <ele>150.3</ele>
        <time>2020-05-30T16:52:20Z</time>
      </trkpt>
      <trkpt lat="46.55147" lon="0.23226">
        <ele>150.3</ele>
        <time>2020-05-30T16:52:21Z</time>
      </trkpt>
      <trkpt lat="46.55147" lon="0.23216">
        <ele>150.3</ele>
        <time>2020-05-30T16:52:22Z</time>
      </trkpt>
      <trkpt lat="46.55145" lon="0.23207">
        <ele>150.3</ele>
        <time>2020-05-30T16:52:23Z</time>
      </trkpt>
      <trkpt lat="46.55144" lon="0.23198">
        <ele>150.3</ele>
        <time>2020-05-30T16:52:24Z</time>
      </trkpt>
      <trkpt lat="46.55142" lon="0.23189">
        <ele>150.3</ele>
        <time>2020-05-30T16:52:25Z</time>
      </trkpt>
      <trkpt lat="46.55141" lon="0.2318">
        <ele>150.3</ele>
        <time>2020-05-30T16:52:26Z</time>
      </trkpt>
      <trkpt lat="46.55139" lon="0.23171">
        <ele>150.3</ele>
        <time>2020-05-30T16:52:27Z</time>
      </trkpt>
      <trkpt lat="46.55138" lon="0.23162">
        <ele>150.4</ele>
        <time>2020-05-30T16:52:28Z</time>
      </trkpt>
      <trkpt lat="46.55136" lon="0.23153">
        <ele>150.4</ele>
        <time>2020-05-30T16:52:29Z</time>
      </trkpt>
      <trkpt lat="46.55135" lon="0.23144">
        <ele>150.4</ele>
        <time>2020-05-30T16:52:30Z</time>
      </trkpt>
      <trkpt lat="46.55134" lon="0.23135">
        <ele>150.4</ele>
        <time>2020-05-30T16:52:31Z</time>
      </trkpt>
      <trkpt lat="46.55132" lon="0.23126">
        <ele>150.4</ele>
        <time>2020-05-30T16:52:32Z</time>
      </trkpt>
      <trkpt lat="46.55132" lon="0.23116">
        <ele>150.3</ele>
        <time>2020-05-30T16:52:33Z</time>
      </trkpt>
      <trkpt lat="46.55132" lon="0.23106">
        <ele>150.3</ele>
        <time>2020-05-30T16:52:34Z</time>
      </trkpt>
      <trkpt lat="46.55131" lon="0.23097">
        <ele>150.3</ele>
        <time>2020-05-30T16:52:35Z</time>
      </trkpt>
      <trkpt lat="46.55131" lon="0.23087">
        <ele>150.3</ele>
        <time>2020-05-30T16:52:36Z</time>
      </trkpt>
      <trkpt lat="46.5513" lon="0.23077">
        <ele>150.3</ele>
        <time>2020-05-30T16:52:37Z</time>
      </trkpt>
      <trkpt lat="46.55129" lon="0.23068">
        <ele>150.2</ele>
        <time>2020-05-30T16:52:38Z</time>
      </trkpt>
      <trkpt lat="46.55127" lon="0.23058">
        <ele>150.2</ele>
        <time>2020-05-30T16:52:39Z</time>
      </trkpt>
      <trkpt lat="46.55127" lon="0.23048">
        <ele>150.2</ele>
        <time>2020-05-30T16:52:40Z</time>
      </trkpt>
      <trkpt lat="46.55128" lon="0.23038">
        <ele>150.1</ele>
        <time>2020-05-30T16:52:41Z</time>
      </trkpt>
      <trkpt lat="46.55126" lon="0.23028">
        <ele>150</ele>
        <time>2020-05-30T16:52:42Z</time>
      </trkpt>
      <trkpt lat="46.55127" lon="0.23018">
        <ele>150</ele>
        <time>2020-05-30T16:52:43Z</time>
      </trkpt>
      <trkpt lat="46.55126" lon="0.23008">
        <ele>149.9</ele>
        <time>2020-05-30T16:52:44Z</time>
      </trkpt>
      <trkpt lat="46.55126" lon="0.22998">
        <ele>149.9</ele>
        <time>2020-05-30T16:52:45Z</time>
      </trkpt>
      <trkpt lat="46.55125" lon="0.22988">
        <ele>149.8</ele>
        <time>2020-05-30T16:52:46Z</time>
      </trkpt>
      <trkpt lat="46.55125" lon="0.22978">
        <ele>149.8</ele>
        <time>2020-05-30T16:52:47Z</time>
      </trkpt>
      <trkpt lat="46.55126" lon="0.22968">
        <ele>149.8</ele>
        <time>2020-05-30T16:52:48Z</time>
      </trkpt>
      <trkpt lat="46.55125" lon="0.22958">
        <ele>149.7</ele>
        <time>2020-05-30T16:52:49Z</time>
      </trkpt>
      <trkpt lat="46.55125" lon="0.22948">
        <ele>149.7</ele>
        <time>2020-05-30T16:52:50Z</time>
      </trkpt>
      <trkpt lat="46.55125" lon="0.22938">
        <ele>149.7</ele>
        <time>2020-05-30T16:52:51Z</time>
      </trkpt>
      <trkpt lat="46.55125" lon="0.22928">
        <ele>149.6</ele>
        <time>2020-05-30T16:52:52Z</time>
      </trkpt>
      <trkpt lat="46.55124" lon="0.22919">
        <ele>149.6</ele>
        <time>2020-05-30T16:52:53Z</time>
      </trkpt>
      <trkpt lat="46.55124" lon="0.22909">
        <ele>149.6</ele>
        <time>2020-05-30T16:52:54Z</time>
      </trkpt>
      <trkpt lat="46.55125" lon="0.22899">
        <ele>149.5</ele>
        <time>2020-05-30T16:52:55Z</time>
      </trkpt>
      <trkpt lat="46.55125" lon="0.22889">
        <ele>149.5</ele>
        <time>2020-05-30T16:52:56Z</time>
      </trkpt>
      <trkpt lat="46.55125" lon="0.22878">
        <ele>149.4</ele>
        <time>2020-05-30T16:52:57Z</time>
      </trkpt>
      <trkpt lat="46.55124" lon="0.22868">
        <ele>149.3</ele>
        <time>2020-05-30T16:52:58Z</time>
      </trkpt>
      <trkpt lat="46.55124" lon="0.22858">
        <ele>149.2</ele>
        <time>2020-05-30T16:52:59Z</time>
      </trkpt>
      <trkpt lat="46.55124" lon="0.22847">
        <ele>149.1</ele>
        <time>2020-05-30T16:53:00Z</time>
      </trkpt>
      <trkpt lat="46.55124" lon="0.22837">
        <ele>149</ele>
        <time>2020-05-30T16:53:01Z</time>
      </trkpt>
      <trkpt lat="46.55124" lon="0.22826">
        <ele>148.9</ele>
        <time>2020-05-30T16:53:02Z</time>
      </trkpt>
      <trkpt lat="46.55124" lon="0.22816">
        <ele>148.9</ele>
        <time>2020-05-30T16:53:03Z</time>
      </trkpt>
      <trkpt lat="46.55124" lon="0.22805">
        <ele>148.8</ele>
        <time>2020-05-30T16:53:04Z</time>
      </trkpt>
      <trkpt lat="46.55124" lon="0.22795">
        <ele>148.8</ele>
        <time>2020-05-30T16:53:05Z</time>
      </trkpt>
      <trkpt lat="46.55124" lon="0.22785">
        <ele>148.7</ele>
        <time>2020-05-30T16:53:06Z</time>
      </trkpt>
      <trkpt lat="46.55124" lon="0.22775">
        <ele>148.7</ele>
        <time>2020-05-30T16:53:07Z</time>
      </trkpt>
      <trkpt lat="46.55124" lon="0.22765">
        <ele>148.7</ele>
        <time>2020-05-30T16:53:08Z</time>
      </trkpt>
      <trkpt lat="46.55124" lon="0.22755">
        <ele>148.7</ele>
        <time>2020-05-30T16:53:09Z</time>
      </trkpt>
      <trkpt lat="46.55124" lon="0.22745">
        <ele>148.6</ele>
        <time>2020-05-30T16:53:10Z</time>
      </trkpt>
      <trkpt lat="46.55124" lon="0.22735">
        <ele>148.6</ele>
        <time>2020-05-30T16:53:11Z</time>
      </trkpt>
      <trkpt lat="46.55124" lon="0.22726">
        <ele>148.6</ele>
        <time>2020-05-30T16:53:12Z</time>
      </trkpt>
      <trkpt lat="46.55124" lon="0.22716">
        <ele>148.6</ele>
        <time>2020-05-30T16:53:13Z</time>
      </trkpt>
      <trkpt lat="46.55124" lon="0.22706">
        <ele>148.5</ele>
        <time>2020-05-30T16:53:14Z</time>
      </trkpt>
      <trkpt lat="46.55123" lon="0.22696">
        <ele>148.5</ele>
        <time>2020-05-30T16:53:15Z</time>
      </trkpt>
      <trkpt lat="46.55122" lon="0.22686">
        <ele>148.4</ele>
        <time>2020-05-30T16:53:16Z</time>
      </trkpt>
      <trkpt lat="46.55122" lon="0.22676">
        <ele>148.2</ele>
        <time>2020-05-30T16:53:17Z</time>
      </trkpt>
      <trkpt lat="46.55122" lon="0.22666">
        <ele>148.1</ele>
        <time>2020-05-30T16:53:18Z</time>
      </trkpt>
      <trkpt lat="46.55122" lon="0.22656">
        <ele>148</ele>
        <time>2020-05-30T16:53:19Z</time>
      </trkpt>
      <trkpt lat="46.55124" lon="0.22646">
        <ele>147.9</ele>
        <time>2020-05-30T16:53:20Z</time>
      </trkpt>
      <trkpt lat="46.55123" lon="0.22636">
        <ele>147.8</ele>
        <time>2020-05-30T16:53:21Z</time>
      </trkpt>
      <trkpt lat="46.55123" lon="0.22627">
        <ele>147.8</ele>
        <time>2020-05-30T16:53:22Z</time>
      </trkpt>
      <trkpt lat="46.55122" lon="0.22617">
        <ele>147.7</ele>
        <time>2020-05-30T16:53:23Z</time>
      </trkpt>
      <trkpt lat="46.55123" lon="0.22608">
        <ele>147.7</ele>
        <time>2020-05-30T16:53:24Z</time>
      </trkpt>
      <trkpt lat="46.55123" lon="0.22598">
        <ele>147.7</ele>
        <time>2020-05-30T16:53:25Z</time>
      </trkpt>
      <trkpt lat="46.55123" lon="0.22588">
        <ele>147.7</ele>
        <time>2020-05-30T16:53:26Z</time>
      </trkpt>
      <trkpt lat="46.55123" lon="0.22578">
        <ele>147.7</ele>
        <time>2020-05-30T16:53:27Z</time>
      </trkpt>
      <trkpt lat="46.55123" lon="0.22568">
        <ele>147.7</ele>
        <time>2020-05-30T16:53:28Z</time>
      </trkpt>
      <trkpt lat="46.55123" lon="0.22559">
        <ele>147.7</ele>
        <time>2020-05-30T16:53:29Z</time>
      </trkpt>
      <trkpt lat="46.55123" lon="0.22549">
        <ele>147.7</ele>
        <time>2020-05-30T16:53:30Z</time>
      </trkpt>
      <trkpt lat="46.55122" lon="0.22539">
        <ele>147.7</ele>
        <time>2020-05-30T16:53:31Z</time>
      </trkpt>
      <trkpt lat="46.55122" lon="0.2253">
        <ele>147.7</ele>
        <time>2020-05-30T16:53:32Z</time>
      </trkpt>
      <trkpt lat="46.55122" lon="0.2252">
        <ele>147.7</ele>
        <time>2020-05-30T16:53:33Z</time>
      </trkpt>
      <trkpt lat="46.55122" lon="0.22511">
        <ele>147.7</ele>
        <time>2020-05-30T16:53:34Z</time>
      </trkpt>
      <trkpt lat="46.55121" lon="0.22501">
        <ele>147.7</ele>
        <time>2020-05-30T16:53:35Z</time>
      </trkpt>
      <trkpt lat="46.55122" lon="0.22492">
        <ele>147.6</ele>
        <time>2020-05-30T16:53:36Z</time>
      </trkpt>
      <trkpt lat="46.55122" lon="0.22483">
        <ele>147.6</ele>
        <time>2020-05-30T16:53:37Z</time>
      </trkpt>
      <trkpt lat="46.55123" lon="0.22473">
        <ele>147.6</ele>
        <time>2020-05-30T16:53:38Z</time>
      </trkpt>
      <trkpt lat="46.55123" lon="0.22463">
        <ele>147.6</ele>
        <time>2020-05-30T16:53:39Z</time>
      </trkpt>
      <trkpt lat="46.55123" lon="0.22454">
        <ele>147.5</ele>
        <time>2020-05-30T16:53:40Z</time>
      </trkpt>
      <trkpt lat="46.55123" lon="0.22444">
        <ele>147.5</ele>
        <time>2020-05-30T16:53:41Z</time>
      </trkpt>
      <trkpt lat="46.55124" lon="0.22434">
        <ele>147.5</ele>
        <time>2020-05-30T16:53:42Z</time>
      </trkpt>
      <trkpt lat="46.55125" lon="0.22423">
        <ele>147.5</ele>
        <time>2020-05-30T16:53:43Z</time>
      </trkpt>
      <trkpt lat="46.55125" lon="0.22412">
        <ele>147.5</ele>
        <time>2020-05-30T16:53:44Z</time>
      </trkpt>
      <trkpt lat="46.55126" lon="0.22401">
        <ele>147.4</ele>
        <time>2020-05-30T16:53:45Z</time>
      </trkpt>
      <trkpt lat="46.55126" lon="0.2239">
        <ele>147.4</ele>
        <time>2020-05-30T16:53:46Z</time>
      </trkpt>
      <trkpt lat="46.55127" lon="0.2238">
        <ele>147.3</ele>
        <time>2020-05-30T16:53:47Z</time>
      </trkpt>
      <trkpt lat="46.55127" lon="0.2237">
        <ele>147.3</ele>
        <time>2020-05-30T16:53:48Z</time>
      </trkpt>
      <trkpt lat="46.55129" lon="0.2236">
        <ele>147.2</ele>
        <time>2020-05-30T16:53:49Z</time>
      </trkpt>
      <trkpt lat="46.55129" lon="0.2235">
        <ele>147.2</ele>
        <time>2020-05-30T16:53:50Z</time>
      </trkpt>
      <trkpt lat="46.5513" lon="0.2234">
        <ele>147.1</ele>
        <time>2020-05-30T16:53:51Z</time>
      </trkpt>
      <trkpt lat="46.55129" lon="0.2233">
        <ele>147.1</ele>
        <time>2020-05-30T16:53:52Z</time>
      </trkpt>
      <trkpt lat="46.55129" lon="0.2232">
        <ele>147.1</ele>
        <time>2020-05-30T16:53:53Z</time>
      </trkpt>
      <trkpt lat="46.55129" lon="0.22311">
        <ele>147</ele>
        <time>2020-05-30T16:53:54Z</time>
      </trkpt>
      <trkpt lat="46.55129" lon="0.22301">
        <ele>147</ele>
        <time>2020-05-30T16:53:55Z</time>
      </trkpt>
      <trkpt lat="46.5513" lon="0.22292">
        <ele>147</ele>
        <time>2020-05-30T16:53:56Z</time>
      </trkpt>
      <trkpt lat="46.55129" lon="0.22282">
        <ele>147</ele>
        <time>2020-05-30T16:53:57Z</time>
      </trkpt>
      <trkpt lat="46.55129" lon="0.22273">
        <ele>147</ele>
        <time>2020-05-30T16:53:58Z</time>
      </trkpt>
      <trkpt lat="46.55129" lon="0.22263">
        <ele>147</ele>
        <time>2020-05-30T16:53:59Z</time>
      </trkpt>
      <trkpt lat="46.55128" lon="0.22254">
        <ele>147</ele>
        <time>2020-05-30T16:54:00Z</time>
      </trkpt>
      <trkpt lat="46.55128" lon="0.22245">
        <ele>146.9</ele>
        <time>2020-05-30T16:54:01Z</time>
      </trkpt>
      <trkpt lat="46.55129" lon="0.22235">
        <ele>146.9</ele>
        <time>2020-05-30T16:54:02Z</time>
      </trkpt>
      <trkpt lat="46.55129" lon="0.22225">
        <ele>146.9</ele>
        <time>2020-05-30T16:54:03Z</time>
      </trkpt>
      <trkpt lat="46.5513" lon="0.22216">
        <ele>146.8</ele>
        <time>2020-05-30T16:54:04Z</time>
      </trkpt>
      <trkpt lat="46.55129" lon="0.22207">
        <ele>146.8</ele>
        <time>2020-05-30T16:54:05Z</time>
      </trkpt>
      <trkpt lat="46.5513" lon="0.22198">
        <ele>146.8</ele>
        <time>2020-05-30T16:54:06Z</time>
      </trkpt>
      <trkpt lat="46.5513" lon="0.22188">
        <ele>146.8</ele>
        <time>2020-05-30T16:54:07Z</time>
      </trkpt>
      <trkpt lat="46.5513" lon="0.22178">
        <ele>146.8</ele>
        <time>2020-05-30T16:54:08Z</time>
      </trkpt>
      <trkpt lat="46.5513" lon="0.22169">
        <ele>146.7</ele>
        <time>2020-05-30T16:54:09Z</time>
      </trkpt>
      <trkpt lat="46.55131" lon="0.22159">
        <ele>146.7</ele>
        <time>2020-05-30T16:54:10Z</time>
      </trkpt>
      <trkpt lat="46.55132" lon="0.22149">
        <ele>146.7</ele>
        <time>2020-05-30T16:54:11Z</time>
      </trkpt>
      <trkpt lat="46.55133" lon="0.2214">
        <ele>146.7</ele>
        <time>2020-05-30T16:54:12Z</time>
      </trkpt>
      <trkpt lat="46.55133" lon="0.2213">
        <ele>146.7</ele>
        <time>2020-05-30T16:54:13Z</time>
      </trkpt>
      <trkpt lat="46.55133" lon="0.2212">
        <ele>146.7</ele>
        <time>2020-05-30T16:54:14Z</time>
      </trkpt>
      <trkpt lat="46.55134" lon="0.2211">
        <ele>146.6</ele>
        <time>2020-05-30T16:54:15Z</time>
      </trkpt>
      <trkpt lat="46.55134" lon="0.221">
        <ele>146.6</ele>
        <time>2020-05-30T16:54:16Z</time>
      </trkpt>
      <trkpt lat="46.55135" lon="0.2209">
        <ele>146.5</ele>
        <time>2020-05-30T16:54:17Z</time>
      </trkpt>
      <trkpt lat="46.55135" lon="0.2208">
        <ele>146.5</ele>
        <time>2020-05-30T16:54:18Z</time>
      </trkpt>
      <trkpt lat="46.55135" lon="0.2207">
        <ele>146.4</ele>
        <time>2020-05-30T16:54:19Z</time>
      </trkpt>
      <trkpt lat="46.55135" lon="0.2206">
        <ele>146.3</ele>
        <time>2020-05-30T16:54:20Z</time>
      </trkpt>
      <trkpt lat="46.55134" lon="0.22051">
        <ele>146.1</ele>
        <time>2020-05-30T16:54:21Z</time>
      </trkpt>
      <trkpt lat="46.55134" lon="0.22041">
        <ele>146.1</ele>
        <time>2020-05-30T16:54:22Z</time>
      </trkpt>
      <trkpt lat="46.55133" lon="0.22031">
        <ele>146</ele>
        <time>2020-05-30T16:54:23Z</time>
      </trkpt>
      <trkpt lat="46.55133" lon="0.22021">
        <ele>145.9</ele>
        <time>2020-05-30T16:54:24Z</time>
      </trkpt>
      <trkpt lat="46.55132" lon="0.22011">
        <ele>145.9</ele>
        <time>2020-05-30T16:54:25Z</time>
      </trkpt>
      <trkpt lat="46.55132" lon="0.22">
        <ele>145.9</ele>
        <time>2020-05-30T16:54:26Z</time>
      </trkpt>
      <trkpt lat="46.5513" lon="0.2199">
        <ele>145.9</ele>
        <time>2020-05-30T16:54:27Z</time>
      </trkpt>
      <trkpt lat="46.55129" lon="0.21979">
        <ele>145.9</ele>
        <time>2020-05-30T16:54:28Z</time>
      </trkpt>
      <trkpt lat="46.55128" lon="0.21969">
        <ele>145.9</ele>
        <time>2020-05-30T16:54:29Z</time>
      </trkpt>
      <trkpt lat="46.55126" lon="0.21958">
        <ele>145.9</ele>
        <time>2020-05-30T16:54:30Z</time>
      </trkpt>
      <trkpt lat="46.55124" lon="0.21947">
        <ele>145.9</ele>
        <time>2020-05-30T16:54:31Z</time>
      </trkpt>
      <trkpt lat="46.55122" lon="0.21936">
        <ele>145.9</ele>
        <time>2020-05-30T16:54:32Z</time>
      </trkpt>
      <trkpt lat="46.5512" lon="0.21925">
        <ele>145.9</ele>
        <time>2020-05-30T16:54:33Z</time>
      </trkpt>
      <trkpt lat="46.55118" lon="0.21914">
        <ele>145.9</ele>
        <time>2020-05-30T16:54:34Z</time>
      </trkpt>
      <trkpt lat="46.55116" lon="0.21903">
        <ele>145.9</ele>
        <time>2020-05-30T16:54:35Z</time>
      </trkpt>
      <trkpt lat="46.55113" lon="0.21892">
        <ele>145.8</ele>
        <time>2020-05-30T16:54:36Z</time>
      </trkpt>
      <trkpt lat="46.55111" lon="0.21881">
        <ele>145.8</ele>
        <time>2020-05-30T16:54:37Z</time>
      </trkpt>
      <trkpt lat="46.55109" lon="0.21869">
        <ele>145.6</ele>
        <time>2020-05-30T16:54:38Z</time>
      </trkpt>
      <trkpt lat="46.55106" lon="0.21858">
        <ele>145.5</ele>
        <time>2020-05-30T16:54:39Z</time>
      </trkpt>
      <trkpt lat="46.55104" lon="0.21846">
        <ele>145.3</ele>
        <time>2020-05-30T16:54:40Z</time>
      </trkpt>
      <trkpt lat="46.55102" lon="0.21833">
        <ele>145.1</ele>
        <time>2020-05-30T16:54:41Z</time>
      </trkpt>
      <trkpt lat="46.551" lon="0.21821">
        <ele>145</ele>
        <time>2020-05-30T16:54:42Z</time>
      </trkpt>
      <trkpt lat="46.55098" lon="0.21809">
        <ele>144.8</ele>
        <time>2020-05-30T16:54:43Z</time>
      </trkpt>
      <trkpt lat="46.55096" lon="0.21797">
        <ele>144.7</ele>
        <time>2020-05-30T16:54:44Z</time>
      </trkpt>
      <trkpt lat="46.55093" lon="0.21786">
        <ele>144.5</ele>
        <time>2020-05-30T16:54:45Z</time>
      </trkpt>
      <trkpt lat="46.5509" lon="0.21774">
        <ele>144.3</ele>
        <time>2020-05-30T16:54:46Z</time>
      </trkpt>
      <trkpt lat="46.55086" lon="0.21764">
        <ele>144.1</ele>
        <time>2020-05-30T16:54:47Z</time>
      </trkpt>
      <trkpt lat="46.55082" lon="0.21754">
        <ele>143.9</ele>
        <time>2020-05-30T16:54:48Z</time>
      </trkpt>
      <trkpt lat="46.55078" lon="0.21743">
        <ele>143.7</ele>
        <time>2020-05-30T16:54:49Z</time>
      </trkpt>
      <trkpt lat="46.55073" lon="0.21732">
        <ele>143.4</ele>
        <time>2020-05-30T16:54:50Z</time>
      </trkpt>
      <trkpt lat="46.55066" lon="0.21723">
        <ele>143.1</ele>
        <time>2020-05-30T16:54:51Z</time>
      </trkpt>
      <trkpt lat="46.5506" lon="0.21713">
        <ele>142.7</ele>
        <time>2020-05-30T16:54:52Z</time>
      </trkpt>
      <trkpt lat="46.55054" lon="0.21703">
        <ele>142.2</ele>
        <time>2020-05-30T16:54:53Z</time>
      </trkpt>
      <trkpt lat="46.55048" lon="0.21693">
        <ele>141.7</ele>
        <time>2020-05-30T16:54:54Z</time>
      </trkpt>
      <trkpt lat="46.55041" lon="0.21683">
        <ele>141.1</ele>
        <time>2020-05-30T16:54:55Z</time>
      </trkpt>
      <trkpt lat="46.55035" lon="0.21673">
        <ele>140.4</ele>
        <time>2020-05-30T16:54:56Z</time>
      </trkpt>
      <trkpt lat="46.55029" lon="0.21663">
        <ele>139.8</ele>
        <time>2020-05-30T16:54:57Z</time>
      </trkpt>
      <trkpt lat="46.55022" lon="0.21652">
        <ele>139.2</ele>
        <time>2020-05-30T16:54:58Z</time>
      </trkpt>
      <trkpt lat="46.55016" lon="0.21641">
        <ele>138.6</ele>
        <time>2020-05-30T16:54:59Z</time>
      </trkpt>
      <trkpt lat="46.55011" lon="0.21629">
        <ele>138</ele>
        <time>2020-05-30T16:55:00Z</time>
      </trkpt>
      <trkpt lat="46.55007" lon="0.21615">
        <ele>137.6</ele>
        <time>2020-05-30T16:55:01Z</time>
      </trkpt>
      <trkpt lat="46.55005" lon="0.216">
        <ele>137.1</ele>
        <time>2020-05-30T16:55:02Z</time>
      </trkpt>
      <trkpt lat="46.55006" lon="0.21584">
        <ele>136.4</ele>
        <time>2020-05-30T16:55:03Z</time>
      </trkpt>
      <trkpt lat="46.55006" lon="0.21567">
        <ele>135.4</ele>
        <time>2020-05-30T16:55:04Z</time>
      </trkpt>
      <trkpt lat="46.55007" lon="0.21549">
        <ele>134.3</ele>
        <time>2020-05-30T16:55:05Z</time>
      </trkpt>
      <trkpt lat="46.55009" lon="0.21531">
        <ele>133.3</ele>
        <time>2020-05-30T16:55:06Z</time>
      </trkpt>
      <trkpt lat="46.55012" lon="0.21513">
        <ele>132.3</ele>
        <time>2020-05-30T16:55:07Z</time>
      </trkpt>
      <trkpt lat="46.55014" lon="0.21495">
        <ele>131.7</ele>
        <time>2020-05-30T16:55:08Z</time>
      </trkpt>
      <trkpt lat="46.55014" lon="0.21475">
        <ele>131.3</ele>
        <time>2020-05-30T16:55:09Z</time>
      </trkpt>
      <trkpt lat="46.55014" lon="0.21455">
        <ele>130.5</ele>
        <time>2020-05-30T16:55:10Z</time>
      </trkpt>
      <trkpt lat="46.55012" lon="0.21435">
        <ele>129.3</ele>
        <time>2020-05-30T16:55:11Z</time>
      </trkpt>
      <trkpt lat="46.5501" lon="0.21415">
        <ele>128.1</ele>
        <time>2020-05-30T16:55:12Z</time>
      </trkpt>
      <trkpt lat="46.55008" lon="0.21394">
        <ele>127</ele>
        <time>2020-05-30T16:55:13Z</time>
      </trkpt>
      <trkpt lat="46.55005" lon="0.21373">
        <ele>126</ele>
        <time>2020-05-30T16:55:14Z</time>
      </trkpt>
      <trkpt lat="46.55002" lon="0.21353">
        <ele>125.1</ele>
        <time>2020-05-30T16:55:15Z</time>
      </trkpt>
      <trkpt lat="46.54997" lon="0.21333">
        <ele>124.2</ele>
        <time>2020-05-30T16:55:16Z</time>
      </trkpt>
      <trkpt lat="46.54994" lon="0.21312">
        <ele>123.6</ele>
        <time>2020-05-30T16:55:17Z</time>
      </trkpt>
      <trkpt lat="46.54989" lon="0.21292">
        <ele>123</ele>
        <time>2020-05-30T16:55:18Z</time>
      </trkpt>
      <trkpt lat="46.54985" lon="0.21272">
        <ele>122.6</ele>
        <time>2020-05-30T16:55:19Z</time>
      </trkpt>
      <trkpt lat="46.5498" lon="0.21253">
        <ele>122.3</ele>
        <time>2020-05-30T16:55:20Z</time>
      </trkpt>
      <trkpt lat="46.54975" lon="0.21233">
        <ele>122</ele>
        <time>2020-05-30T16:55:21Z</time>
      </trkpt>
      <trkpt lat="46.5497" lon="0.21214">
        <ele>121.9</ele>
        <time>2020-05-30T16:55:22Z</time>
      </trkpt>
      <trkpt lat="46.54966" lon="0.21196">
        <ele>121.7</ele>
        <time>2020-05-30T16:55:23Z</time>
      </trkpt>
      <trkpt lat="46.54962" lon="0.21178">
        <ele>121.6</ele>
        <time>2020-05-30T16:55:24Z</time>
      </trkpt>
      <trkpt lat="46.54959" lon="0.2116">
        <ele>121.7</ele>
        <time>2020-05-30T16:55:25Z</time>
      </trkpt>
      <trkpt lat="46.54956" lon="0.21143">
        <ele>121.8</ele>
        <time>2020-05-30T16:55:26Z</time>
      </trkpt>
      <trkpt lat="46.54954" lon="0.21125">
        <ele>121.9</ele>
        <time>2020-05-30T16:55:27Z</time>
      </trkpt>
      <trkpt lat="46.54954" lon="0.21108">
        <ele>122.1</ele>
        <time>2020-05-30T16:55:28Z</time>
      </trkpt>
      <trkpt lat="46.54955" lon="0.21091">
        <ele>122.4</ele>
        <time>2020-05-30T16:55:29Z</time>
      </trkpt>
      <trkpt lat="46.54957" lon="0.21075">
        <ele>122.7</ele>
        <time>2020-05-30T16:55:30Z</time>
      </trkpt>
      <trkpt lat="46.54958" lon="0.21059">
        <ele>123</ele>
        <time>2020-05-30T16:55:31Z</time>
      </trkpt>
      <trkpt lat="46.54958" lon="0.21044">
        <ele>123.4</ele>
        <time>2020-05-30T16:55:32Z</time>
      </trkpt>
      <trkpt lat="46.54958" lon="0.21029">
        <ele>123.8</ele>
        <time>2020-05-30T16:55:33Z</time>
      </trkpt>
      <trkpt lat="46.54956" lon="0.21015">
        <ele>124.2</ele>
        <time>2020-05-30T16:55:34Z</time>
      </trkpt>
      <trkpt lat="46.54954" lon="0.21003">
        <ele>124.5</ele>
        <time>2020-05-30T16:55:35Z</time>
      </trkpt>
      <trkpt lat="46.54952" lon="0.2099">
        <ele>124.7</ele>
        <time>2020-05-30T16:55:36Z</time>
      </trkpt>
      <trkpt lat="46.5495" lon="0.20978">
        <ele>124.7</ele>
        <time>2020-05-30T16:55:37Z</time>
      </trkpt>
      <trkpt lat="46.54948" lon="0.20967">
        <ele>124.9</ele>
        <time>2020-05-30T16:55:38Z</time>
      </trkpt>
      <trkpt lat="46.54944" lon="0.20957">
        <ele>125.2</ele>
        <time>2020-05-30T16:55:39Z</time>
      </trkpt>
      <trkpt lat="46.54941" lon="0.20948">
        <ele>125.5</ele>
        <time>2020-05-30T16:55:40Z</time>
      </trkpt>
      <trkpt lat="46.54939" lon="0.20941">
        <ele>125.8</ele>
        <time>2020-05-30T16:55:41Z</time>
      </trkpt>
      <trkpt lat="46.54937" lon="0.20933">
        <ele>126.1</ele>
        <time>2020-05-30T16:55:42Z</time>
      </trkpt>
      <trkpt lat="46.54935" lon="0.20926">
        <ele>126.4</ele>
        <time>2020-05-30T16:55:43Z</time>
      </trkpt>
      <trkpt lat="46.54934" lon="0.2092">
        <ele>126.6</ele>
        <time>2020-05-30T16:55:44Z</time>
      </trkpt>
      <trkpt lat="46.54931" lon="0.20914">
        <ele>126.9</ele>
        <time>2020-05-30T16:55:45Z</time>
      </trkpt>
      <trkpt lat="46.54929" lon="0.2091">
        <ele>127.1</ele>
        <time>2020-05-30T16:55:46Z</time>
      </trkpt>
      <trkpt lat="46.54928" lon="0.20904">
        <ele>127.3</ele>
        <time>2020-05-30T16:55:47Z</time>
      </trkpt>
      <trkpt lat="46.54928" lon="0.20898">
        <ele>127.5</ele>
        <time>2020-05-30T16:55:48Z</time>
      </trkpt>
      <trkpt lat="46.54927" lon="0.20893">
        <ele>127.7</ele>
        <time>2020-05-30T16:55:49Z</time>
      </trkpt>
      <trkpt lat="46.54925" lon="0.20889">
        <ele>127.9</ele>
        <time>2020-05-30T16:55:50Z</time>
      </trkpt>
      <trkpt lat="46.54923" lon="0.20885">
        <ele>128.1</ele>
        <time>2020-05-30T16:55:51Z</time>
      </trkpt>
      <trkpt lat="46.54923" lon="0.20881">
        <ele>128.2</ele>
        <time>2020-05-30T16:55:52Z</time>
      </trkpt>
      <trkpt lat="46.54922" lon="0.20876">
        <ele>128.4</ele>
        <time>2020-05-30T16:55:53Z</time>
      </trkpt>
      <trkpt lat="46.54921" lon="0.20872">
        <ele>128.5</ele>
        <time>2020-05-30T16:55:54Z</time>
      </trkpt>
      <trkpt lat="46.5492" lon="0.20868">
        <ele>128.6</ele>
        <time>2020-05-30T16:55:55Z</time>
      </trkpt>
      <trkpt lat="46.54918" lon="0.20865">
        <ele>128.7</ele>
        <time>2020-05-30T16:55:56Z</time>
      </trkpt>
      <trkpt lat="46.54917" lon="0.20861">
        <ele>128.9</ele>
        <time>2020-05-30T16:55:57Z</time>
      </trkpt>
      <trkpt lat="46.54917" lon="0.20857">
        <ele>129</ele>
        <time>2020-05-30T16:55:58Z</time>
      </trkpt>
      <trkpt lat="46.54916" lon="0.20853">
        <ele>129.1</ele>
        <time>2020-05-30T16:55:59Z</time>
      </trkpt>
      <trkpt lat="46.54915" lon="0.20849">
        <ele>129.2</ele>
        <time>2020-05-30T16:56:00Z</time>
      </trkpt>
      <trkpt lat="46.54914" lon="0.20845">
        <ele>129.4</ele>
        <time>2020-05-30T16:56:01Z</time>
      </trkpt>
      <trkpt lat="46.54914" lon="0.20841">
        <ele>129.5</ele>
        <time>2020-05-30T16:56:02Z</time>
      </trkpt>
      <trkpt lat="46.54913" lon="0.20836">
        <ele>129.6</ele>
        <time>2020-05-30T16:56:03Z</time>
      </trkpt>
      <trkpt lat="46.54912" lon="0.20832">
        <ele>129.8</ele>
        <time>2020-05-30T16:56:04Z</time>
      </trkpt>
      <trkpt lat="46.54911" lon="0.20828">
        <ele>130</ele>
        <time>2020-05-30T16:56:05Z</time>
      </trkpt>
      <trkpt lat="46.5491" lon="0.20823">
        <ele>130.1</ele>
        <time>2020-05-30T16:56:06Z</time>
      </trkpt>
      <trkpt lat="46.54909" lon="0.20819">
        <ele>130.3</ele>
        <time>2020-05-30T16:56:07Z</time>
      </trkpt>
      <trkpt lat="46.54908" lon="0.20814">
        <ele>130.4</ele>
        <time>2020-05-30T16:56:08Z</time>
      </trkpt>
      <trkpt lat="46.54906" lon="0.2081">
        <ele>130.6</ele>
        <time>2020-05-30T16:56:09Z</time>
      </trkpt>
      <trkpt lat="46.54906" lon="0.20805">
        <ele>130.8</ele>
        <time>2020-05-30T16:56:10Z</time>
      </trkpt>
      <trkpt lat="46.54905" lon="0.208">
        <ele>131</ele>
        <time>2020-05-30T16:56:11Z</time>
      </trkpt>
      <trkpt lat="46.54903" lon="0.20795">
        <ele>131.2</ele>
        <time>2020-05-30T16:56:12Z</time>
      </trkpt>
      <trkpt lat="46.54901" lon="0.2079">
        <ele>131.4</ele>
        <time>2020-05-30T16:56:13Z</time>
      </trkpt>
      <trkpt lat="46.549" lon="0.20785">
        <ele>131.6</ele>
        <time>2020-05-30T16:56:14Z</time>
      </trkpt>
      <trkpt lat="46.54899" lon="0.2078">
        <ele>131.8</ele>
        <time>2020-05-30T16:56:15Z</time>
      </trkpt>
      <trkpt lat="46.54899" lon="0.20775">
        <ele>131.9</ele>
        <time>2020-05-30T16:56:16Z</time>
      </trkpt>
      <trkpt lat="46.54898" lon="0.2077">
        <ele>132.1</ele>
        <time>2020-05-30T16:56:17Z</time>
      </trkpt>
      <trkpt lat="46.54898" lon="0.20765">
        <ele>132.3</ele>
        <time>2020-05-30T16:56:18Z</time>
      </trkpt>
      <trkpt lat="46.54898" lon="0.2076">
        <ele>132.4</ele>
        <time>2020-05-30T16:56:19Z</time>
      </trkpt>
      <trkpt lat="46.54896" lon="0.20755">
        <ele>132.6</ele>
        <time>2020-05-30T16:56:20Z</time>
      </trkpt>
      <trkpt lat="46.54895" lon="0.2075">
        <ele>132.8</ele>
        <time>2020-05-30T16:56:21Z</time>
      </trkpt>
      <trkpt lat="46.54894" lon="0.20745">
        <ele>132.9</ele>
        <time>2020-05-30T16:56:22Z</time>
      </trkpt>
      <trkpt lat="46.54894" lon="0.20741">
        <ele>133.1</ele>
        <time>2020-05-30T16:56:23Z</time>
      </trkpt>
      <trkpt lat="46.54893" lon="0.20736">
        <ele>133.2</ele>
        <time>2020-05-30T16:56:24Z</time>
      </trkpt>
      <trkpt lat="46.54893" lon="0.20731">
        <ele>133.4</ele>
        <time>2020-05-30T16:56:25Z</time>
      </trkpt>
      <trkpt lat="46.54892" lon="0.20726">
        <ele>133.5</ele>
        <time>2020-05-30T16:56:26Z</time>
      </trkpt>
      <trkpt lat="46.54892" lon="0.20721">
        <ele>133.7</ele>
        <time>2020-05-30T16:56:27Z</time>
      </trkpt>
      <trkpt lat="46.54892" lon="0.20716">
        <ele>133.9</ele>
        <time>2020-05-30T16:56:28Z</time>
      </trkpt>
      <trkpt lat="46.54891" lon="0.20713">
        <ele>134.1</ele>
        <time>2020-05-30T16:56:29Z</time>
      </trkpt>
      <trkpt lat="46.54889" lon="0.20708">
        <ele>134.3</ele>
        <time>2020-05-30T16:56:30Z</time>
      </trkpt>
      <trkpt lat="46.54889" lon="0.20706">
        <ele>134.3</ele>
        <time>2020-05-30T16:56:31Z</time>
      </trkpt>
      <trkpt lat="46.54889" lon="0.20702">
        <ele>134.5</ele>
        <time>2020-05-30T16:56:32Z</time>
      </trkpt>
      <trkpt lat="46.54888" lon="0.20698">
        <ele>134.7</ele>
        <time>2020-05-30T16:56:33Z</time>
      </trkpt>
      <trkpt lat="46.54888" lon="0.20691">
        <ele>135</ele>
        <time>2020-05-30T16:56:34Z</time>
      </trkpt>
      <trkpt lat="46.54888" lon="0.20686">
        <ele>135.2</ele>
        <time>2020-05-30T16:56:35Z</time>
      </trkpt>
      <trkpt lat="46.54888" lon="0.2068">
        <ele>135.4</ele>
        <time>2020-05-30T16:56:36Z</time>
      </trkpt>
      <trkpt lat="46.54888" lon="0.20674">
        <ele>135.6</ele>
        <time>2020-05-30T16:56:37Z</time>
      </trkpt>
      <trkpt lat="46.54889" lon="0.20669">
        <ele>135.8</ele>
        <time>2020-05-30T16:56:38Z</time>
      </trkpt>
      <trkpt lat="46.54888" lon="0.20663">
        <ele>136</ele>
        <time>2020-05-30T16:56:39Z</time>
      </trkpt>
      <trkpt lat="46.54887" lon="0.20659">
        <ele>136.1</ele>
        <time>2020-05-30T16:56:40Z</time>
      </trkpt>
      <trkpt lat="46.54886" lon="0.20655">
        <ele>136.3</ele>
        <time>2020-05-30T16:56:41Z</time>
      </trkpt>
      <trkpt lat="46.54885" lon="0.2065">
        <ele>136.4</ele>
        <time>2020-05-30T16:56:42Z</time>
      </trkpt>
      <trkpt lat="46.54885" lon="0.20645">
        <ele>136.6</ele>
        <time>2020-05-30T16:56:43Z</time>
      </trkpt>
      <trkpt lat="46.54885" lon="0.20639">
        <ele>136.8</ele>
        <time>2020-05-30T16:56:44Z</time>
      </trkpt>
      <trkpt lat="46.54884" lon="0.20634">
        <ele>137</ele>
        <time>2020-05-30T16:56:45Z</time>
      </trkpt>
      <trkpt lat="46.54883" lon="0.20629">
        <ele>137.1</ele>
        <time>2020-05-30T16:56:46Z</time>
      </trkpt>
      <trkpt lat="46.54883" lon="0.20625">
        <ele>137.3</ele>
        <time>2020-05-30T16:56:47Z</time>
      </trkpt>
      <trkpt lat="46.54883" lon="0.2062">
        <ele>137.4</ele>
        <time>2020-05-30T16:56:48Z</time>
      </trkpt>
      <trkpt lat="46.54883" lon="0.20613">
        <ele>137.6</ele>
        <time>2020-05-30T16:56:49Z</time>
      </trkpt>
      <trkpt lat="46.54882" lon="0.20607">
        <ele>137.8</ele>
        <time>2020-05-30T16:56:50Z</time>
      </trkpt>
      <trkpt lat="46.54882" lon="0.20604">
        <ele>137.9</ele>
        <time>2020-05-30T16:56:51Z</time>
      </trkpt>
      <trkpt lat="46.54881" lon="0.206">
        <ele>138.1</ele>
        <time>2020-05-30T16:56:52Z</time>
      </trkpt>
      <trkpt lat="46.54881" lon="0.20596">
        <ele>138.2</ele>
        <time>2020-05-30T16:56:53Z</time>
      </trkpt>
      <trkpt lat="46.5488" lon="0.2059">
        <ele>138.4</ele>
        <time>2020-05-30T16:56:54Z</time>
      </trkpt>
      <trkpt lat="46.5488" lon="0.20585">
        <ele>138.6</ele>
        <time>2020-05-30T16:56:55Z</time>
      </trkpt>
      <trkpt lat="46.5488" lon="0.2058">
        <ele>138.7</ele>
        <time>2020-05-30T16:56:56Z</time>
      </trkpt>
      <trkpt lat="46.54879" lon="0.20576">
        <ele>138.9</ele>
        <time>2020-05-30T16:56:57Z</time>
      </trkpt>
      <trkpt lat="46.54879" lon="0.20571">
        <ele>139.1</ele>
        <time>2020-05-30T16:56:58Z</time>
      </trkpt>
      <trkpt lat="46.54878" lon="0.20565">
        <ele>139.3</ele>
        <time>2020-05-30T16:56:59Z</time>
      </trkpt>
      <trkpt lat="46.54877" lon="0.2056">
        <ele>139.4</ele>
        <time>2020-05-30T16:57:00Z</time>
      </trkpt>
      <trkpt lat="46.54876" lon="0.20555">
        <ele>139.5</ele>
        <time>2020-05-30T16:57:01Z</time>
      </trkpt>
      <trkpt lat="46.54875" lon="0.2055">
        <ele>139.7</ele>
        <time>2020-05-30T16:57:02Z</time>
      </trkpt>
      <trkpt lat="46.54874" lon="0.20543">
        <ele>139.8</ele>
        <time>2020-05-30T16:57:03Z</time>
      </trkpt>
      <trkpt lat="46.54874" lon="0.20538">
        <ele>140</ele>
        <time>2020-05-30T16:57:04Z</time>
      </trkpt>
      <trkpt lat="46.54874" lon="0.20533">
        <ele>140.1</ele>
        <time>2020-05-30T16:57:05Z</time>
      </trkpt>
      <trkpt lat="46.54873" lon="0.20527">
        <ele>140.2</ele>
        <time>2020-05-30T16:57:06Z</time>
      </trkpt>
      <trkpt lat="46.54873" lon="0.20522">
        <ele>140.3</ele>
        <time>2020-05-30T16:57:07Z</time>
      </trkpt>
      <trkpt lat="46.54872" lon="0.20516">
        <ele>140.3</ele>
        <time>2020-05-30T16:57:08Z</time>
      </trkpt>
      <trkpt lat="46.54871" lon="0.20513">
        <ele>140.4</ele>
        <time>2020-05-30T16:57:09Z</time>
      </trkpt>
      <trkpt lat="46.54871" lon="0.20507">
        <ele>140.4</ele>
        <time>2020-05-30T16:57:10Z</time>
      </trkpt>
      <trkpt lat="46.54871" lon="0.20502">
        <ele>140.5</ele>
        <time>2020-05-30T16:57:11Z</time>
      </trkpt>
      <trkpt lat="46.5487" lon="0.20498">
        <ele>140.6</ele>
        <time>2020-05-30T16:57:12Z</time>
      </trkpt>
      <trkpt lat="46.54869" lon="0.20492">
        <ele>140.7</ele>
        <time>2020-05-30T16:57:13Z</time>
      </trkpt>
      <trkpt lat="46.54868" lon="0.20484">
        <ele>140.8</ele>
        <time>2020-05-30T16:57:14Z</time>
      </trkpt>
      <trkpt lat="46.54868" lon="0.20479">
        <ele>140.9</ele>
        <time>2020-05-30T16:57:15Z</time>
      </trkpt>
      <trkpt lat="46.54868" lon="0.20473">
        <ele>140.9</ele>
        <time>2020-05-30T16:57:16Z</time>
      </trkpt>
      <trkpt lat="46.54868" lon="0.20469">
        <ele>141</ele>
        <time>2020-05-30T16:57:17Z</time>
      </trkpt>
      <trkpt lat="46.54867" lon="0.20463">
        <ele>141.1</ele>
        <time>2020-05-30T16:57:18Z</time>
      </trkpt>
      <trkpt lat="46.54867" lon="0.20457">
        <ele>141.1</ele>
        <time>2020-05-30T16:57:19Z</time>
      </trkpt>
      <trkpt lat="46.54868" lon="0.20451">
        <ele>141.2</ele>
        <time>2020-05-30T16:57:20Z</time>
      </trkpt>
      <trkpt lat="46.54867" lon="0.20445">
        <ele>141.3</ele>
        <time>2020-05-30T16:57:21Z</time>
      </trkpt>
      <trkpt lat="46.54866" lon="0.20439">
        <ele>141.3</ele>
        <time>2020-05-30T16:57:22Z</time>
      </trkpt>
      <trkpt lat="46.54865" lon="0.20434">
        <ele>141.4</ele>
        <time>2020-05-30T16:57:23Z</time>
      </trkpt>
      <trkpt lat="46.54864" lon="0.20429">
        <ele>141.4</ele>
        <time>2020-05-30T16:57:24Z</time>
      </trkpt>
      <trkpt lat="46.54863" lon="0.20424">
        <ele>141.4</ele>
        <time>2020-05-30T16:57:25Z</time>
      </trkpt>
      <trkpt lat="46.54863" lon="0.20418">
        <ele>141.4</ele>
        <time>2020-05-30T16:57:26Z</time>
      </trkpt>
      <trkpt lat="46.54864" lon="0.20413">
        <ele>141.5</ele>
        <time>2020-05-30T16:57:27Z</time>
      </trkpt>
      <trkpt lat="46.54863" lon="0.20406">
        <ele>141.5</ele>
        <time>2020-05-30T16:57:28Z</time>
      </trkpt>
      <trkpt lat="46.54862" lon="0.20399">
        <ele>141.5</ele>
        <time>2020-05-30T16:57:29Z</time>
      </trkpt>
      <trkpt lat="46.54861" lon="0.20394">
        <ele>141.5</ele>
        <time>2020-05-30T16:57:30Z</time>
      </trkpt>
      <trkpt lat="46.54861" lon="0.20389">
        <ele>141.6</ele>
        <time>2020-05-30T16:57:31Z</time>
      </trkpt>
      <trkpt lat="46.54861" lon="0.20383">
        <ele>141.6</ele>
        <time>2020-05-30T16:57:32Z</time>
      </trkpt>
      <trkpt lat="46.5486" lon="0.20378">
        <ele>141.6</ele>
        <time>2020-05-30T16:57:33Z</time>
      </trkpt>
      <trkpt lat="46.5486" lon="0.20371">
        <ele>141.7</ele>
        <time>2020-05-30T16:57:34Z</time>
      </trkpt>
      <trkpt lat="46.5486" lon="0.20363">
        <ele>141.7</ele>
        <time>2020-05-30T16:57:35Z</time>
      </trkpt>
      <trkpt lat="46.54859" lon="0.20356">
        <ele>141.7</ele>
        <time>2020-05-30T16:57:36Z</time>
      </trkpt>
      <trkpt lat="46.54857" lon="0.20349">
        <ele>141.8</ele>
        <time>2020-05-30T16:57:37Z</time>
      </trkpt>
      <trkpt lat="46.54856" lon="0.20341">
        <ele>141.8</ele>
        <time>2020-05-30T16:57:38Z</time>
      </trkpt>
      <trkpt lat="46.54855" lon="0.20334">
        <ele>141.8</ele>
        <time>2020-05-30T16:57:39Z</time>
      </trkpt>
      <trkpt lat="46.54854" lon="0.20327">
        <ele>141.9</ele>
        <time>2020-05-30T16:57:40Z</time>
      </trkpt>
      <trkpt lat="46.54853" lon="0.2032">
        <ele>141.9</ele>
        <time>2020-05-30T16:57:41Z</time>
      </trkpt>
      <trkpt lat="46.54852" lon="0.20312">
        <ele>141.9</ele>
        <time>2020-05-30T16:57:42Z</time>
      </trkpt>
      <trkpt lat="46.54851" lon="0.20303">
        <ele>141.9</ele>
        <time>2020-05-30T16:57:43Z</time>
      </trkpt>
      <trkpt lat="46.54851" lon="0.20296">
        <ele>141.9</ele>
        <time>2020-05-30T16:57:44Z</time>
      </trkpt>
      <trkpt lat="46.5485" lon="0.20287">
        <ele>142</ele>
        <time>2020-05-30T16:57:45Z</time>
      </trkpt>
      <trkpt lat="46.54849" lon="0.20277">
        <ele>142</ele>
        <time>2020-05-30T16:57:46Z</time>
      </trkpt>
      <trkpt lat="46.5485" lon="0.2027">
        <ele>142</ele>
        <time>2020-05-30T16:57:47Z</time>
      </trkpt>
      <trkpt lat="46.54849" lon="0.2026">
        <ele>142</ele>
        <time>2020-05-30T16:57:48Z</time>
      </trkpt>
      <trkpt lat="46.54848" lon="0.20252">
        <ele>142.1</ele>
        <time>2020-05-30T16:57:49Z</time>
      </trkpt>
      <trkpt lat="46.54848" lon="0.20244">
        <ele>142.1</ele>
        <time>2020-05-30T16:57:50Z</time>
      </trkpt>
      <trkpt lat="46.54847" lon="0.20235">
        <ele>142.1</ele>
        <time>2020-05-30T16:57:51Z</time>
      </trkpt>
      <trkpt lat="46.54847" lon="0.20227">
        <ele>142.1</ele>
        <time>2020-05-30T16:57:52Z</time>
      </trkpt>
      <trkpt lat="46.54848" lon="0.20218">
        <ele>142.2</ele>
        <time>2020-05-30T16:57:53Z</time>
      </trkpt>
      <trkpt lat="46.54848" lon="0.20212">
        <ele>142.2</ele>
        <time>2020-05-30T16:57:54Z</time>
      </trkpt>
      <trkpt lat="46.54847" lon="0.20202">
        <ele>142.2</ele>
        <time>2020-05-30T16:57:55Z</time>
      </trkpt>
      <trkpt lat="46.54847" lon="0.20193">
        <ele>142.2</ele>
        <time>2020-05-30T16:57:56Z</time>
      </trkpt>
      <trkpt lat="46.54847" lon="0.20182">
        <ele>142.3</ele>
        <time>2020-05-30T16:57:57Z</time>
      </trkpt>
      <trkpt lat="46.54846" lon="0.20173">
        <ele>142.3</ele>
        <time>2020-05-30T16:57:58Z</time>
      </trkpt>
      <trkpt lat="46.54846" lon="0.20163">
        <ele>142.3</ele>
        <time>2020-05-30T16:57:59Z</time>
      </trkpt>
      <trkpt lat="46.54846" lon="0.20156">
        <ele>142.3</ele>
        <time>2020-05-30T16:58:00Z</time>
      </trkpt>
      <trkpt lat="46.54847" lon="0.20146">
        <ele>142.3</ele>
        <time>2020-05-30T16:58:01Z</time>
      </trkpt>
      <trkpt lat="46.54847" lon="0.20137">
        <ele>142.4</ele>
        <time>2020-05-30T16:58:02Z</time>
      </trkpt>
      <trkpt lat="46.54846" lon="0.20128">
        <ele>142.4</ele>
        <time>2020-05-30T16:58:03Z</time>
      </trkpt>
      <trkpt lat="46.54846" lon="0.2012">
        <ele>142.4</ele>
        <time>2020-05-30T16:58:04Z</time>
      </trkpt>
      <trkpt lat="46.54846" lon="0.2011">
        <ele>142.4</ele>
        <time>2020-05-30T16:58:05Z</time>
      </trkpt>
      <trkpt lat="46.54846" lon="0.201">
        <ele>142.5</ele>
        <time>2020-05-30T16:58:06Z</time>
      </trkpt>
      <trkpt lat="46.54845" lon="0.2009">
        <ele>142.5</ele>
        <time>2020-05-30T16:58:07Z</time>
      </trkpt>
      <trkpt lat="46.54845" lon="0.20082">
        <ele>142.5</ele>
        <time>2020-05-30T16:58:08Z</time>
      </trkpt>
      <trkpt lat="46.54845" lon="0.20073">
        <ele>142.5</ele>
        <time>2020-05-30T16:58:09Z</time>
      </trkpt>
      <trkpt lat="46.54844" lon="0.20064">
        <ele>142.5</ele>
        <time>2020-05-30T16:58:10Z</time>
      </trkpt>
      <trkpt lat="46.54843" lon="0.20054">
        <ele>142.6</ele>
        <time>2020-05-30T16:58:11Z</time>
      </trkpt>
      <trkpt lat="46.54843" lon="0.20045">
        <ele>142.6</ele>
        <time>2020-05-30T16:58:12Z</time>
      </trkpt>
      <trkpt lat="46.54842" lon="0.20037">
        <ele>142.6</ele>
        <time>2020-05-30T16:58:13Z</time>
      </trkpt>
      <trkpt lat="46.54842" lon="0.20028">
        <ele>142.6</ele>
        <time>2020-05-30T16:58:14Z</time>
      </trkpt>
      <trkpt lat="46.54841" lon="0.20018">
        <ele>142.6</ele>
        <time>2020-05-30T16:58:15Z</time>
      </trkpt>
      <trkpt lat="46.5484" lon="0.20007">
        <ele>142.6</ele>
        <time>2020-05-30T16:58:16Z</time>
      </trkpt>
      <trkpt lat="46.54838" lon="0.19997">
        <ele>142.6</ele>
        <time>2020-05-30T16:58:17Z</time>
      </trkpt>
      <trkpt lat="46.54838" lon="0.19988">
        <ele>142.7</ele>
        <time>2020-05-30T16:58:18Z</time>
      </trkpt>
      <trkpt lat="46.54837" lon="0.19979">
        <ele>142.7</ele>
        <time>2020-05-30T16:58:19Z</time>
      </trkpt>
      <trkpt lat="46.54836" lon="0.19969">
        <ele>142.7</ele>
        <time>2020-05-30T16:58:20Z</time>
      </trkpt>
      <trkpt lat="46.54835" lon="0.1996">
        <ele>142.7</ele>
        <time>2020-05-30T16:58:21Z</time>
      </trkpt>
      <trkpt lat="46.54835" lon="0.1995">
        <ele>142.8</ele>
        <time>2020-05-30T16:58:22Z</time>
      </trkpt>
      <trkpt lat="46.54833" lon="0.19941">
        <ele>142.8</ele>
        <time>2020-05-30T16:58:23Z</time>
      </trkpt>
      <trkpt lat="46.54833" lon="0.19932">
        <ele>142.8</ele>
        <time>2020-05-30T16:58:24Z</time>
      </trkpt>
      <trkpt lat="46.54832" lon="0.19922">
        <ele>142.9</ele>
        <time>2020-05-30T16:58:25Z</time>
      </trkpt>
      <trkpt lat="46.54831" lon="0.19912">
        <ele>142.9</ele>
        <time>2020-05-30T16:58:26Z</time>
      </trkpt>
      <trkpt lat="46.54829" lon="0.19903">
        <ele>142.9</ele>
        <time>2020-05-30T16:58:27Z</time>
      </trkpt>
      <trkpt lat="46.54829" lon="0.19893">
        <ele>143</ele>
        <time>2020-05-30T16:58:28Z</time>
      </trkpt>
      <trkpt lat="46.54828" lon="0.19883">
        <ele>143</ele>
        <time>2020-05-30T16:58:29Z</time>
      </trkpt>
      <trkpt lat="46.54827" lon="0.19873">
        <ele>143</ele>
        <time>2020-05-30T16:58:30Z</time>
      </trkpt>
      <trkpt lat="46.54826" lon="0.19863">
        <ele>143</ele>
        <time>2020-05-30T16:58:31Z</time>
      </trkpt>
      <trkpt lat="46.54825" lon="0.19854">
        <ele>143.1</ele>
        <time>2020-05-30T16:58:32Z</time>
      </trkpt>
      <trkpt lat="46.54825" lon="0.19844">
        <ele>143.1</ele>
        <time>2020-05-30T16:58:33Z</time>
      </trkpt>
      <trkpt lat="46.54823" lon="0.19835">
        <ele>143.1</ele>
        <time>2020-05-30T16:58:34Z</time>
      </trkpt>
      <trkpt lat="46.54823" lon="0.19825">
        <ele>143.2</ele>
        <time>2020-05-30T16:58:35Z</time>
      </trkpt>
      <trkpt lat="46.54821" lon="0.19816">
        <ele>143.2</ele>
        <time>2020-05-30T16:58:36Z</time>
      </trkpt>
      <trkpt lat="46.5482" lon="0.19806">
        <ele>143.2</ele>
        <time>2020-05-30T16:58:37Z</time>
      </trkpt>
      <trkpt lat="46.54819" lon="0.19796">
        <ele>143.3</ele>
        <time>2020-05-30T16:58:38Z</time>
      </trkpt>
      <trkpt lat="46.54818" lon="0.19786">
        <ele>143.3</ele>
        <time>2020-05-30T16:58:39Z</time>
      </trkpt>
      <trkpt lat="46.54819" lon="0.19776">
        <ele>143.4</ele>
        <time>2020-05-30T16:58:40Z</time>
      </trkpt>
      <trkpt lat="46.54818" lon="0.19767">
        <ele>143.4</ele>
        <time>2020-05-30T16:58:41Z</time>
      </trkpt>
      <trkpt lat="46.54818" lon="0.19757">
        <ele>143.5</ele>
        <time>2020-05-30T16:58:42Z</time>
      </trkpt>
      <trkpt lat="46.54817" lon="0.19748">
        <ele>143.7</ele>
        <time>2020-05-30T16:58:43Z</time>
      </trkpt>
      <trkpt lat="46.54816" lon="0.19739">
        <ele>143.8</ele>
        <time>2020-05-30T16:58:44Z</time>
      </trkpt>
      <trkpt lat="46.54816" lon="0.19729">
        <ele>143.9</ele>
        <time>2020-05-30T16:58:45Z</time>
      </trkpt>
      <trkpt lat="46.54815" lon="0.1972">
        <ele>144</ele>
        <time>2020-05-30T16:58:46Z</time>
      </trkpt>
      <trkpt lat="46.54815" lon="0.19711">
        <ele>144.1</ele>
        <time>2020-05-30T16:58:47Z</time>
      </trkpt>
      <trkpt lat="46.54814" lon="0.19703">
        <ele>144.2</ele>
        <time>2020-05-30T16:58:48Z</time>
      </trkpt>
      <trkpt lat="46.54813" lon="0.19694">
        <ele>144.3</ele>
        <time>2020-05-30T16:58:49Z</time>
      </trkpt>
      <trkpt lat="46.54812" lon="0.19686">
        <ele>144.4</ele>
        <time>2020-05-30T16:58:50Z</time>
      </trkpt>
      <trkpt lat="46.54811" lon="0.19679">
        <ele>144.5</ele>
        <time>2020-05-30T16:58:51Z</time>
      </trkpt>
      <trkpt lat="46.5481" lon="0.1967">
        <ele>144.6</ele>
        <time>2020-05-30T16:58:52Z</time>
      </trkpt>
      <trkpt lat="46.54809" lon="0.19662">
        <ele>144.7</ele>
        <time>2020-05-30T16:58:53Z</time>
      </trkpt>
      <trkpt lat="46.54807" lon="0.19654">
        <ele>144.8</ele>
        <time>2020-05-30T16:58:54Z</time>
      </trkpt>
      <trkpt lat="46.54805" lon="0.19645">
        <ele>144.9</ele>
        <time>2020-05-30T16:58:55Z</time>
      </trkpt>
      <trkpt lat="46.54804" lon="0.19637">
        <ele>145</ele>
        <time>2020-05-30T16:58:56Z</time>
      </trkpt>
      <trkpt lat="46.54803" lon="0.19629">
        <ele>145.1</ele>
        <time>2020-05-30T16:58:57Z</time>
      </trkpt>
      <trkpt lat="46.54802" lon="0.19622">
        <ele>145.2</ele>
        <time>2020-05-30T16:58:58Z</time>
      </trkpt>
      <trkpt lat="46.54801" lon="0.19614">
        <ele>145.3</ele>
        <time>2020-05-30T16:58:59Z</time>
      </trkpt>
      <trkpt lat="46.548" lon="0.19605">
        <ele>145.4</ele>
        <time>2020-05-30T16:59:00Z</time>
      </trkpt>
      <trkpt lat="46.54799" lon="0.19596">
        <ele>145.6</ele>
        <time>2020-05-30T16:59:01Z</time>
      </trkpt>
      <trkpt lat="46.54796" lon="0.19587">
        <ele>145.7</ele>
        <time>2020-05-30T16:59:02Z</time>
      </trkpt>
      <trkpt lat="46.54795" lon="0.1958">
        <ele>145.8</ele>
        <time>2020-05-30T16:59:03Z</time>
      </trkpt>
      <trkpt lat="46.54793" lon="0.1957">
        <ele>145.9</ele>
        <time>2020-05-30T16:59:04Z</time>
      </trkpt>
      <trkpt lat="46.54791" lon="0.19561">
        <ele>146</ele>
        <time>2020-05-30T16:59:05Z</time>
      </trkpt>
      <trkpt lat="46.5479" lon="0.19552">
        <ele>146.1</ele>
        <time>2020-05-30T16:59:06Z</time>
      </trkpt>
      <trkpt lat="46.54789" lon="0.19545">
        <ele>146.2</ele>
        <time>2020-05-30T16:59:07Z</time>
      </trkpt>
      <trkpt lat="46.54788" lon="0.19538">
        <ele>146.3</ele>
        <time>2020-05-30T16:59:08Z</time>
      </trkpt>
      <trkpt lat="46.54786" lon="0.19529">
        <ele>146.3</ele>
        <time>2020-05-30T16:59:09Z</time>
      </trkpt>
      <trkpt lat="46.54784" lon="0.19521">
        <ele>146.4</ele>
        <time>2020-05-30T16:59:10Z</time>
      </trkpt>
      <trkpt lat="46.54783" lon="0.19515">
        <ele>146.5</ele>
        <time>2020-05-30T16:59:11Z</time>
      </trkpt>
      <trkpt lat="46.54782" lon="0.19507">
        <ele>146.6</ele>
        <time>2020-05-30T16:59:12Z</time>
      </trkpt>
      <trkpt lat="46.54781" lon="0.19499">
        <ele>146.7</ele>
        <time>2020-05-30T16:59:13Z</time>
      </trkpt>
      <trkpt lat="46.54779" lon="0.1949">
        <ele>146.9</ele>
        <time>2020-05-30T16:59:14Z</time>
      </trkpt>
      <trkpt lat="46.54777" lon="0.1948">
        <ele>147</ele>
        <time>2020-05-30T16:59:15Z</time>
      </trkpt>
      <trkpt lat="46.54776" lon="0.19474">
        <ele>147.1</ele>
        <time>2020-05-30T16:59:16Z</time>
      </trkpt>
      <trkpt lat="46.54774" lon="0.19468">
        <ele>147.1</ele>
        <time>2020-05-30T16:59:17Z</time>
      </trkpt>
      <trkpt lat="46.54772" lon="0.1946">
        <ele>147.2</ele>
        <time>2020-05-30T16:59:18Z</time>
      </trkpt>
      <trkpt lat="46.54771" lon="0.19451">
        <ele>147.2</ele>
        <time>2020-05-30T16:59:19Z</time>
      </trkpt>
      <trkpt lat="46.54769" lon="0.19443">
        <ele>147.2</ele>
        <time>2020-05-30T16:59:20Z</time>
      </trkpt>
      <trkpt lat="46.54767" lon="0.19433">
        <ele>147.2</ele>
        <time>2020-05-30T16:59:21Z</time>
      </trkpt>
      <trkpt lat="46.54766" lon="0.19425">
        <ele>147.3</ele>
        <time>2020-05-30T16:59:22Z</time>
      </trkpt>
      <trkpt lat="46.54765" lon="0.19416">
        <ele>147.4</ele>
        <time>2020-05-30T16:59:23Z</time>
      </trkpt>
      <trkpt lat="46.54763" lon="0.19406">
        <ele>147.5</ele>
        <time>2020-05-30T16:59:24Z</time>
      </trkpt>
      <trkpt lat="46.54762" lon="0.19399">
        <ele>147.5</ele>
        <time>2020-05-30T16:59:25Z</time>
      </trkpt>
      <trkpt lat="46.5476" lon="0.19391">
        <ele>147.6</ele>
        <time>2020-05-30T16:59:26Z</time>
      </trkpt>
      <trkpt lat="46.54759" lon="0.19383">
        <ele>147.6</ele>
        <time>2020-05-30T16:59:27Z</time>
      </trkpt>
      <trkpt lat="46.54758" lon="0.19376">
        <ele>147.6</ele>
        <time>2020-05-30T16:59:28Z</time>
      </trkpt>
      <trkpt lat="46.54756" lon="0.19369">
        <ele>147.6</ele>
        <time>2020-05-30T16:59:29Z</time>
      </trkpt>
      <trkpt lat="46.54753" lon="0.1936">
        <ele>147.7</ele>
        <time>2020-05-30T16:59:30Z</time>
      </trkpt>
      <trkpt lat="46.54751" lon="0.19352">
        <ele>147.7</ele>
        <time>2020-05-30T16:59:31Z</time>
      </trkpt>
      <trkpt lat="46.54749" lon="0.19343">
        <ele>147.7</ele>
        <time>2020-05-30T16:59:32Z</time>
      </trkpt>
      <trkpt lat="46.54748" lon="0.19335">
        <ele>147.8</ele>
        <time>2020-05-30T16:59:33Z</time>
      </trkpt>
      <trkpt lat="46.54747" lon="0.19328">
        <ele>147.8</ele>
        <time>2020-05-30T16:59:34Z</time>
      </trkpt>
      <trkpt lat="46.54745" lon="0.19318">
        <ele>147.8</ele>
        <time>2020-05-30T16:59:35Z</time>
      </trkpt>
      <trkpt lat="46.54744" lon="0.19307">
        <ele>147.9</ele>
        <time>2020-05-30T16:59:36Z</time>
      </trkpt>
      <trkpt lat="46.54742" lon="0.19299">
        <ele>147.9</ele>
        <time>2020-05-30T16:59:37Z</time>
      </trkpt>
      <trkpt lat="46.54741" lon="0.19291">
        <ele>147.9</ele>
        <time>2020-05-30T16:59:38Z</time>
      </trkpt>
      <trkpt lat="46.5474" lon="0.19285">
        <ele>147.9</ele>
        <time>2020-05-30T16:59:39Z</time>
      </trkpt>
      <trkpt lat="46.54738" lon="0.19277">
        <ele>148</ele>
        <time>2020-05-30T16:59:40Z</time>
      </trkpt>
      <trkpt lat="46.54737" lon="0.19268">
        <ele>148</ele>
        <time>2020-05-30T16:59:41Z</time>
      </trkpt>
      <trkpt lat="46.54735" lon="0.1926">
        <ele>148.1</ele>
        <time>2020-05-30T16:59:42Z</time>
      </trkpt>
      <trkpt lat="46.54733" lon="0.19251">
        <ele>148.1</ele>
        <time>2020-05-30T16:59:43Z</time>
      </trkpt>
      <trkpt lat="46.54731" lon="0.19243">
        <ele>148.2</ele>
        <time>2020-05-30T16:59:44Z</time>
      </trkpt>
      <trkpt lat="46.54729" lon="0.19234">
        <ele>148.2</ele>
        <time>2020-05-30T16:59:45Z</time>
      </trkpt>
      <trkpt lat="46.54728" lon="0.19225">
        <ele>148.3</ele>
        <time>2020-05-30T16:59:46Z</time>
      </trkpt>
      <trkpt lat="46.54727" lon="0.19217">
        <ele>148.3</ele>
        <time>2020-05-30T16:59:47Z</time>
      </trkpt>
      <trkpt lat="46.54726" lon="0.1921">
        <ele>148.4</ele>
        <time>2020-05-30T16:59:48Z</time>
      </trkpt>
      <trkpt lat="46.54724" lon="0.19201">
        <ele>148.4</ele>
        <time>2020-05-30T16:59:49Z</time>
      </trkpt>
      <trkpt lat="46.54722" lon="0.19193">
        <ele>148.5</ele>
        <time>2020-05-30T16:59:50Z</time>
      </trkpt>
      <trkpt lat="46.5472" lon="0.19185">
        <ele>148.5</ele>
        <time>2020-05-30T16:59:51Z</time>
      </trkpt>
      <trkpt lat="46.54719" lon="0.19178">
        <ele>148.5</ele>
        <time>2020-05-30T16:59:52Z</time>
      </trkpt>
      <trkpt lat="46.54717" lon="0.19169">
        <ele>148.6</ele>
        <time>2020-05-30T16:59:53Z</time>
      </trkpt>
      <trkpt lat="46.54715" lon="0.1916">
        <ele>148.6</ele>
        <time>2020-05-30T16:59:54Z</time>
      </trkpt>
      <trkpt lat="46.54713" lon="0.19151">
        <ele>148.7</ele>
        <time>2020-05-30T16:59:55Z</time>
      </trkpt>
      <trkpt lat="46.54712" lon="0.19142">
        <ele>148.7</ele>
        <time>2020-05-30T16:59:56Z</time>
      </trkpt>
      <trkpt lat="46.5471" lon="0.19134">
        <ele>148.8</ele>
        <time>2020-05-30T16:59:57Z</time>
      </trkpt>
      <trkpt lat="46.54709" lon="0.19126">
        <ele>148.8</ele>
        <time>2020-05-30T16:59:58Z</time>
      </trkpt>
      <trkpt lat="46.54708" lon="0.19119">
        <ele>148.9</ele>
        <time>2020-05-30T16:59:59Z</time>
      </trkpt>
      <trkpt lat="46.54707" lon="0.19112">
        <ele>148.9</ele>
        <time>2020-05-30T17:00:00Z</time>
      </trkpt>
      <trkpt lat="46.54705" lon="0.19103">
        <ele>149</ele>
        <time>2020-05-30T17:00:01Z</time>
      </trkpt>
      <trkpt lat="46.54703" lon="0.19094">
        <ele>149</ele>
        <time>2020-05-30T17:00:02Z</time>
      </trkpt>
      <trkpt lat="46.54701" lon="0.19086">
        <ele>149</ele>
        <time>2020-05-30T17:00:03Z</time>
      </trkpt>
      <trkpt lat="46.54698" lon="0.19079">
        <ele>149.1</ele>
        <time>2020-05-30T17:00:04Z</time>
      </trkpt>
      <trkpt lat="46.54696" lon="0.1907">
        <ele>149.2</ele>
        <time>2020-05-30T17:00:05Z</time>
      </trkpt>
      <trkpt lat="46.54694" lon="0.19062">
        <ele>149.3</ele>
        <time>2020-05-30T17:00:06Z</time>
      </trkpt>
      <trkpt lat="46.54693" lon="0.19054">
        <ele>149.4</ele>
        <time>2020-05-30T17:00:07Z</time>
      </trkpt>
      <trkpt lat="46.54692" lon="0.19044">
        <ele>149.6</ele>
        <time>2020-05-30T17:00:08Z</time>
      </trkpt>
      <trkpt lat="46.5469" lon="0.19035">
        <ele>149.8</ele>
        <time>2020-05-30T17:00:09Z</time>
      </trkpt>
      <trkpt lat="46.54688" lon="0.19026">
        <ele>150</ele>
        <time>2020-05-30T17:00:10Z</time>
      </trkpt>
      <trkpt lat="46.54687" lon="0.19018">
        <ele>150</ele>
        <time>2020-05-30T17:00:11Z</time>
      </trkpt>
      <trkpt lat="46.54686" lon="0.1901">
        <ele>150</ele>
        <time>2020-05-30T17:00:12Z</time>
      </trkpt>
      <trkpt lat="46.54684" lon="0.19002">
        <ele>150.1</ele>
        <time>2020-05-30T17:00:13Z</time>
      </trkpt>
      <trkpt lat="46.54682" lon="0.18993">
        <ele>150.1</ele>
        <time>2020-05-30T17:00:14Z</time>
      </trkpt>
      <trkpt lat="46.54681" lon="0.18985">
        <ele>150.1</ele>
        <time>2020-05-30T17:00:15Z</time>
      </trkpt>
      <trkpt lat="46.5468" lon="0.18976">
        <ele>150.1</ele>
        <time>2020-05-30T17:00:16Z</time>
      </trkpt>
      <trkpt lat="46.5468" lon="0.18969">
        <ele>150.1</ele>
        <time>2020-05-30T17:00:17Z</time>
      </trkpt>
      <trkpt lat="46.54678" lon="0.1896">
        <ele>150.1</ele>
        <time>2020-05-30T17:00:18Z</time>
      </trkpt>
      <trkpt lat="46.54676" lon="0.18955">
        <ele>150.1</ele>
        <time>2020-05-30T17:00:19Z</time>
      </trkpt>
      <trkpt lat="46.54676" lon="0.18946">
        <ele>150.1</ele>
        <time>2020-05-30T17:00:20Z</time>
      </trkpt>
      <trkpt lat="46.54676" lon="0.1894">
        <ele>150.1</ele>
        <time>2020-05-30T17:00:21Z</time>
      </trkpt>
      <trkpt lat="46.54675" lon="0.18931">
        <ele>150.1</ele>
        <time>2020-05-30T17:00:22Z</time>
      </trkpt>
      <trkpt lat="46.54673" lon="0.18922">
        <ele>150.1</ele>
        <time>2020-05-30T17:00:23Z</time>
      </trkpt>
      <trkpt lat="46.54672" lon="0.18916">
        <ele>150.1</ele>
        <time>2020-05-30T17:00:24Z</time>
      </trkpt>
      <trkpt lat="46.54671" lon="0.18909">
        <ele>150.1</ele>
        <time>2020-05-30T17:00:25Z</time>
      </trkpt>
      <trkpt lat="46.5467" lon="0.18901">
        <ele>150.1</ele>
        <time>2020-05-30T17:00:26Z</time>
      </trkpt>
      <trkpt lat="46.54669" lon="0.18892">
        <ele>150.1</ele>
        <time>2020-05-30T17:00:27Z</time>
      </trkpt>
      <trkpt lat="46.54666" lon="0.18884">
        <ele>150.2</ele>
        <time>2020-05-30T17:00:28Z</time>
      </trkpt>
      <trkpt lat="46.54665" lon="0.18875">
        <ele>150.2</ele>
        <time>2020-05-30T17:00:29Z</time>
      </trkpt>
      <trkpt lat="46.54663" lon="0.18866">
        <ele>150.1</ele>
        <time>2020-05-30T17:00:30Z</time>
      </trkpt>
      <trkpt lat="46.54662" lon="0.18857">
        <ele>150.1</ele>
        <time>2020-05-30T17:00:31Z</time>
      </trkpt>
      <trkpt lat="46.5466" lon="0.18849">
        <ele>150.1</ele>
        <time>2020-05-30T17:00:32Z</time>
      </trkpt>
      <trkpt lat="46.54658" lon="0.18842">
        <ele>150.1</ele>
        <time>2020-05-30T17:00:33Z</time>
      </trkpt>
      <trkpt lat="46.54657" lon="0.18833">
        <ele>150.1</ele>
        <time>2020-05-30T17:00:34Z</time>
      </trkpt>
      <trkpt lat="46.54657" lon="0.18825">
        <ele>150</ele>
        <time>2020-05-30T17:00:35Z</time>
      </trkpt>
      <trkpt lat="46.54655" lon="0.18817">
        <ele>150</ele>
        <time>2020-05-30T17:00:36Z</time>
      </trkpt>
      <trkpt lat="46.54654" lon="0.18808">
        <ele>150</ele>
        <time>2020-05-30T17:00:37Z</time>
      </trkpt>
      <trkpt lat="46.54654" lon="0.18801">
        <ele>150</ele>
        <time>2020-05-30T17:00:38Z</time>
      </trkpt>
      <trkpt lat="46.54651" lon="0.18792">
        <ele>150</ele>
        <time>2020-05-30T17:00:39Z</time>
      </trkpt>
      <trkpt lat="46.5465" lon="0.18784">
        <ele>150</ele>
        <time>2020-05-30T17:00:40Z</time>
      </trkpt>
      <trkpt lat="46.54648" lon="0.18775">
        <ele>150</ele>
        <time>2020-05-30T17:00:41Z</time>
      </trkpt>
      <trkpt lat="46.54646" lon="0.18766">
        <ele>150.1</ele>
        <time>2020-05-30T17:00:42Z</time>
      </trkpt>
      <trkpt lat="46.54644" lon="0.18758">
        <ele>150.1</ele>
        <time>2020-05-30T17:00:43Z</time>
      </trkpt>
      <trkpt lat="46.54642" lon="0.18748">
        <ele>150.1</ele>
        <time>2020-05-30T17:00:44Z</time>
      </trkpt>
      <trkpt lat="46.54641" lon="0.18741">
        <ele>150.1</ele>
        <time>2020-05-30T17:00:45Z</time>
      </trkpt>
      <trkpt lat="46.54639" lon="0.18734">
        <ele>150.1</ele>
        <time>2020-05-30T17:00:46Z</time>
      </trkpt>
      <trkpt lat="46.54637" lon="0.18725">
        <ele>150.1</ele>
        <time>2020-05-30T17:00:47Z</time>
      </trkpt>
      <trkpt lat="46.54636" lon="0.18718">
        <ele>150.1</ele>
        <time>2020-05-30T17:00:48Z</time>
      </trkpt>
      <trkpt lat="46.54633" lon="0.18708">
        <ele>150.1</ele>
        <time>2020-05-30T17:00:49Z</time>
      </trkpt>
      <trkpt lat="46.54631" lon="0.18699">
        <ele>150.1</ele>
        <time>2020-05-30T17:00:50Z</time>
      </trkpt>
      <trkpt lat="46.54628" lon="0.18691">
        <ele>150.1</ele>
        <time>2020-05-30T17:00:51Z</time>
      </trkpt>
      <trkpt lat="46.54624" lon="0.18681">
        <ele>150.1</ele>
        <time>2020-05-30T17:00:52Z</time>
      </trkpt>
      <trkpt lat="46.54621" lon="0.18671">
        <ele>150.1</ele>
        <time>2020-05-30T17:00:53Z</time>
      </trkpt>
      <trkpt lat="46.54619" lon="0.18663">
        <ele>150.1</ele>
        <time>2020-05-30T17:00:54Z</time>
      </trkpt>
      <trkpt lat="46.54615" lon="0.18655">
        <ele>150.1</ele>
        <time>2020-05-30T17:00:55Z</time>
      </trkpt>
      <trkpt lat="46.54612" lon="0.18647">
        <ele>150.1</ele>
        <time>2020-05-30T17:00:56Z</time>
      </trkpt>
      <trkpt lat="46.54608" lon="0.1864">
        <ele>150.1</ele>
        <time>2020-05-30T17:00:57Z</time>
      </trkpt>
      <trkpt lat="46.54604" lon="0.18632">
        <ele>150.1</ele>
        <time>2020-05-30T17:00:58Z</time>
      </trkpt>
      <trkpt lat="46.54599" lon="0.18623">
        <ele>150.1</ele>
        <time>2020-05-30T17:00:59Z</time>
      </trkpt>
      <trkpt lat="46.54594" lon="0.18616">
        <ele>150.1</ele>
        <time>2020-05-30T17:01:00Z</time>
      </trkpt>
      <trkpt lat="46.5459" lon="0.18609">
        <ele>150.1</ele>
        <time>2020-05-30T17:01:01Z</time>
      </trkpt>
      <trkpt lat="46.54584" lon="0.18602">
        <ele>150.1</ele>
        <time>2020-05-30T17:01:02Z</time>
      </trkpt>
      <trkpt lat="46.54579" lon="0.18595">
        <ele>150</ele>
        <time>2020-05-30T17:01:03Z</time>
      </trkpt>
      <trkpt lat="46.54575" lon="0.18588">
        <ele>150</ele>
        <time>2020-05-30T17:01:04Z</time>
      </trkpt>
      <trkpt lat="46.54571" lon="0.18581">
        <ele>150</ele>
        <time>2020-05-30T17:01:05Z</time>
      </trkpt>
      <trkpt lat="46.54566" lon="0.18575">
        <ele>150</ele>
        <time>2020-05-30T17:01:06Z</time>
      </trkpt>
      <trkpt lat="46.54562" lon="0.18568">
        <ele>149.9</ele>
        <time>2020-05-30T17:01:07Z</time>
      </trkpt>
      <trkpt lat="46.54557" lon="0.18562">
        <ele>149.9</ele>
        <time>2020-05-30T17:01:08Z</time>
      </trkpt>
      <trkpt lat="46.54553" lon="0.18556">
        <ele>149.9</ele>
        <time>2020-05-30T17:01:09Z</time>
      </trkpt>
      <trkpt lat="46.54547" lon="0.1855">
        <ele>149.9</ele>
        <time>2020-05-30T17:01:10Z</time>
      </trkpt>
      <trkpt lat="46.54542" lon="0.18545">
        <ele>149.9</ele>
        <time>2020-05-30T17:01:11Z</time>
      </trkpt>
      <trkpt lat="46.54537" lon="0.1854">
        <ele>149.9</ele>
        <time>2020-05-30T17:01:12Z</time>
      </trkpt>
      <trkpt lat="46.54532" lon="0.18534">
        <ele>149.9</ele>
        <time>2020-05-30T17:01:13Z</time>
      </trkpt>
      <trkpt lat="46.54527" lon="0.18529">
        <ele>149.9</ele>
        <time>2020-05-30T17:01:14Z</time>
      </trkpt>
      <trkpt lat="46.54523" lon="0.18523">
        <ele>149.9</ele>
        <time>2020-05-30T17:01:15Z</time>
      </trkpt>
      <trkpt lat="46.54518" lon="0.18518">
        <ele>149.9</ele>
        <time>2020-05-30T17:01:16Z</time>
      </trkpt>
      <trkpt lat="46.54513" lon="0.18513">
        <ele>149.9</ele>
        <time>2020-05-30T17:01:17Z</time>
      </trkpt>
      <trkpt lat="46.54509" lon="0.18507">
        <ele>149.9</ele>
        <time>2020-05-30T17:01:18Z</time>
      </trkpt>
      <trkpt lat="46.54506" lon="0.18501">
        <ele>149.9</ele>
        <time>2020-05-30T17:01:19Z</time>
      </trkpt>
      <trkpt lat="46.54502" lon="0.18496">
        <ele>149.9</ele>
        <time>2020-05-30T17:01:20Z</time>
      </trkpt>
      <trkpt lat="46.54499" lon="0.1849">
        <ele>149.9</ele>
        <time>2020-05-30T17:01:21Z</time>
      </trkpt>
      <trkpt lat="46.54495" lon="0.18485">
        <ele>150</ele>
        <time>2020-05-30T17:01:22Z</time>
      </trkpt>
      <trkpt lat="46.54491" lon="0.18482">
        <ele>150</ele>
        <time>2020-05-30T17:01:23Z</time>
      </trkpt>
      <trkpt lat="46.54487" lon="0.18477">
        <ele>150</ele>
        <time>2020-05-30T17:01:24Z</time>
      </trkpt>
      <trkpt lat="46.54483" lon="0.18472">
        <ele>150</ele>
        <time>2020-05-30T17:01:25Z</time>
      </trkpt>
      <trkpt lat="46.54479" lon="0.18468">
        <ele>150.1</ele>
        <time>2020-05-30T17:01:26Z</time>
      </trkpt>
      <trkpt lat="46.54475" lon="0.18464">
        <ele>150.1</ele>
        <time>2020-05-30T17:01:27Z</time>
      </trkpt>
      <trkpt lat="46.54471" lon="0.1846">
        <ele>150.1</ele>
        <time>2020-05-30T17:01:28Z</time>
      </trkpt>
      <trkpt lat="46.54467" lon="0.18455">
        <ele>150.1</ele>
        <time>2020-05-30T17:01:29Z</time>
      </trkpt>
      <trkpt lat="46.54464" lon="0.1845">
        <ele>150.2</ele>
        <time>2020-05-30T17:01:30Z</time>
      </trkpt>
      <trkpt lat="46.54461" lon="0.18446">
        <ele>150.2</ele>
        <time>2020-05-30T17:01:31Z</time>
      </trkpt>
      <trkpt lat="46.54457" lon="0.18441">
        <ele>150.2</ele>
        <time>2020-05-30T17:01:32Z</time>
      </trkpt>
      <trkpt lat="46.54454" lon="0.18436">
        <ele>150.2</ele>
        <time>2020-05-30T17:01:33Z</time>
      </trkpt>
      <trkpt lat="46.54451" lon="0.18431">
        <ele>150.3</ele>
        <time>2020-05-30T17:01:34Z</time>
      </trkpt>
      <trkpt lat="46.54448" lon="0.18425">
        <ele>150.3</ele>
        <time>2020-05-30T17:01:35Z</time>
      </trkpt>
      <trkpt lat="46.54444" lon="0.1842">
        <ele>150.3</ele>
        <time>2020-05-30T17:01:36Z</time>
      </trkpt>
      <trkpt lat="46.5444" lon="0.18415">
        <ele>150.4</ele>
        <time>2020-05-30T17:01:37Z</time>
      </trkpt>
      <trkpt lat="46.54436" lon="0.1841">
        <ele>150.4</ele>
        <time>2020-05-30T17:01:38Z</time>
      </trkpt>
      <trkpt lat="46.54431" lon="0.18405">
        <ele>150.5</ele>
        <time>2020-05-30T17:01:39Z</time>
      </trkpt>
      <trkpt lat="46.54427" lon="0.18399">
        <ele>150.5</ele>
        <time>2020-05-30T17:01:40Z</time>
      </trkpt>
      <trkpt lat="46.54423" lon="0.18393">
        <ele>150.5</ele>
        <time>2020-05-30T17:01:41Z</time>
      </trkpt>
      <trkpt lat="46.5442" lon="0.18387">
        <ele>150.5</ele>
        <time>2020-05-30T17:01:42Z</time>
      </trkpt>
      <trkpt lat="46.54415" lon="0.18381">
        <ele>150.6</ele>
        <time>2020-05-30T17:01:43Z</time>
      </trkpt>
      <trkpt lat="46.54411" lon="0.18377">
        <ele>150.6</ele>
        <time>2020-05-30T17:01:44Z</time>
      </trkpt>
      <trkpt lat="46.54407" lon="0.18372">
        <ele>150.6</ele>
        <time>2020-05-30T17:01:45Z</time>
      </trkpt>
      <trkpt lat="46.54403" lon="0.18367">
        <ele>150.6</ele>
        <time>2020-05-30T17:01:46Z</time>
      </trkpt>
      <trkpt lat="46.54398" lon="0.18363">
        <ele>150.6</ele>
        <time>2020-05-30T17:01:47Z</time>
      </trkpt>
      <trkpt lat="46.54395" lon="0.18357">
        <ele>150.6</ele>
        <time>2020-05-30T17:01:48Z</time>
      </trkpt>
      <trkpt lat="46.54391" lon="0.18353">
        <ele>150.7</ele>
        <time>2020-05-30T17:01:49Z</time>
      </trkpt>
      <trkpt lat="46.54387" lon="0.18347">
        <ele>150.7</ele>
        <time>2020-05-30T17:01:50Z</time>
      </trkpt>
      <trkpt lat="46.54382" lon="0.18339">
        <ele>150.7</ele>
        <time>2020-05-30T17:01:51Z</time>
      </trkpt>
      <trkpt lat="46.54377" lon="0.18331">
        <ele>150.7</ele>
        <time>2020-05-30T17:01:52Z</time>
      </trkpt>
      <trkpt lat="46.54374" lon="0.18326">
        <ele>150.7</ele>
        <time>2020-05-30T17:01:53Z</time>
      </trkpt>
      <trkpt lat="46.54369" lon="0.1832">
        <ele>150.7</ele>
        <time>2020-05-30T17:01:54Z</time>
      </trkpt>
      <trkpt lat="46.54365" lon="0.18314">
        <ele>150.7</ele>
        <time>2020-05-30T17:01:55Z</time>
      </trkpt>
      <trkpt lat="46.5436" lon="0.18307">
        <ele>150.7</ele>
        <time>2020-05-30T17:01:56Z</time>
      </trkpt>
      <trkpt lat="46.54355" lon="0.183">
        <ele>150.8</ele>
        <time>2020-05-30T17:01:57Z</time>
      </trkpt>
      <trkpt lat="46.54352" lon="0.18296">
        <ele>150.8</ele>
        <time>2020-05-30T17:01:58Z</time>
      </trkpt>
      <trkpt lat="46.54347" lon="0.18288">
        <ele>150.8</ele>
        <time>2020-05-30T17:01:59Z</time>
      </trkpt>
      <trkpt lat="46.54344" lon="0.18283">
        <ele>150.8</ele>
        <time>2020-05-30T17:02:00Z</time>
      </trkpt>
      <trkpt lat="46.54339" lon="0.18277">
        <ele>150.8</ele>
        <time>2020-05-30T17:02:01Z</time>
      </trkpt>
      <trkpt lat="46.54335" lon="0.18271">
        <ele>150.8</ele>
        <time>2020-05-30T17:02:02Z</time>
      </trkpt>
      <trkpt lat="46.54331" lon="0.18265">
        <ele>150.8</ele>
        <time>2020-05-30T17:02:03Z</time>
      </trkpt>
      <trkpt lat="46.54327" lon="0.18259">
        <ele>150.8</ele>
        <time>2020-05-30T17:02:04Z</time>
      </trkpt>
      <trkpt lat="46.54323" lon="0.18251">
        <ele>150.8</ele>
        <time>2020-05-30T17:02:05Z</time>
      </trkpt>
      <trkpt lat="46.54319" lon="0.18244">
        <ele>150.8</ele>
        <time>2020-05-30T17:02:06Z</time>
      </trkpt>
      <trkpt lat="46.54315" lon="0.18238">
        <ele>150.8</ele>
        <time>2020-05-30T17:02:07Z</time>
      </trkpt>
      <trkpt lat="46.54311" lon="0.18231">
        <ele>150.8</ele>
        <time>2020-05-30T17:02:08Z</time>
      </trkpt>
      <trkpt lat="46.54308" lon="0.18225">
        <ele>150.8</ele>
        <time>2020-05-30T17:02:09Z</time>
      </trkpt>
      <trkpt lat="46.54303" lon="0.18218">
        <ele>150.8</ele>
        <time>2020-05-30T17:02:10Z</time>
      </trkpt>
      <trkpt lat="46.54299" lon="0.18211">
        <ele>150.8</ele>
        <time>2020-05-30T17:02:11Z</time>
      </trkpt>
      <trkpt lat="46.54295" lon="0.18204">
        <ele>150.8</ele>
        <time>2020-05-30T17:02:12Z</time>
      </trkpt>
      <trkpt lat="46.5429" lon="0.18197">
        <ele>150.8</ele>
        <time>2020-05-30T17:02:13Z</time>
      </trkpt>
      <trkpt lat="46.54287" lon="0.18191">
        <ele>150.8</ele>
        <time>2020-05-30T17:02:14Z</time>
      </trkpt>
      <trkpt lat="46.54283" lon="0.18183">
        <ele>150.7</ele>
        <time>2020-05-30T17:02:15Z</time>
      </trkpt>
      <trkpt lat="46.54279" lon="0.18178">
        <ele>150.7</ele>
        <time>2020-05-30T17:02:16Z</time>
      </trkpt>
      <trkpt lat="46.54276" lon="0.18171">
        <ele>150.7</ele>
        <time>2020-05-30T17:02:17Z</time>
      </trkpt>
      <trkpt lat="46.54272" lon="0.18165">
        <ele>150.7</ele>
        <time>2020-05-30T17:02:18Z</time>
      </trkpt>
      <trkpt lat="46.54269" lon="0.1816">
        <ele>150.7</ele>
        <time>2020-05-30T17:02:19Z</time>
      </trkpt>
      <trkpt lat="46.54265" lon="0.18153">
        <ele>150.6</ele>
        <time>2020-05-30T17:02:20Z</time>
      </trkpt>
      <trkpt lat="46.54261" lon="0.18147">
        <ele>150.6</ele>
        <time>2020-05-30T17:02:21Z</time>
      </trkpt>
      <trkpt lat="46.54257" lon="0.1814">
        <ele>150.6</ele>
        <time>2020-05-30T17:02:22Z</time>
      </trkpt>
      <trkpt lat="46.54252" lon="0.18133">
        <ele>150.6</ele>
        <time>2020-05-30T17:02:23Z</time>
      </trkpt>
      <trkpt lat="46.54247" lon="0.18127">
        <ele>150.5</ele>
        <time>2020-05-30T17:02:24Z</time>
      </trkpt>
      <trkpt lat="46.54243" lon="0.1812">
        <ele>150.5</ele>
        <time>2020-05-30T17:02:25Z</time>
      </trkpt>
      <trkpt lat="46.54239" lon="0.18111">
        <ele>150.5</ele>
        <time>2020-05-30T17:02:26Z</time>
      </trkpt>
      <trkpt lat="46.54234" lon="0.18103">
        <ele>150.4</ele>
        <time>2020-05-30T17:02:27Z</time>
      </trkpt>
      <trkpt lat="46.5423" lon="0.18095">
        <ele>150.3</ele>
        <time>2020-05-30T17:02:28Z</time>
      </trkpt>
      <trkpt lat="46.54226" lon="0.18088">
        <ele>150.3</ele>
        <time>2020-05-30T17:02:29Z</time>
      </trkpt>
      <trkpt lat="46.54222" lon="0.18081">
        <ele>150.2</ele>
        <time>2020-05-30T17:02:30Z</time>
      </trkpt>
      <trkpt lat="46.54218" lon="0.18073">
        <ele>150.1</ele>
        <time>2020-05-30T17:02:31Z</time>
      </trkpt>
      <trkpt lat="46.54214" lon="0.18065">
        <ele>150.1</ele>
        <time>2020-05-30T17:02:32Z</time>
      </trkpt>
      <trkpt lat="46.54209" lon="0.18057">
        <ele>150</ele>
        <time>2020-05-30T17:02:33Z</time>
      </trkpt>
      <trkpt lat="46.54205" lon="0.18051">
        <ele>150</ele>
        <time>2020-05-30T17:02:34Z</time>
      </trkpt>
      <trkpt lat="46.54201" lon="0.18044">
        <ele>149.9</ele>
        <time>2020-05-30T17:02:35Z</time>
      </trkpt>
      <trkpt lat="46.54197" lon="0.18038">
        <ele>149.9</ele>
        <time>2020-05-30T17:02:36Z</time>
      </trkpt>
      <trkpt lat="46.54193" lon="0.18031">
        <ele>149.9</ele>
        <time>2020-05-30T17:02:37Z</time>
      </trkpt>
      <trkpt lat="46.5419" lon="0.18026">
        <ele>149.8</ele>
        <time>2020-05-30T17:02:38Z</time>
      </trkpt>
      <trkpt lat="46.54186" lon="0.1802">
        <ele>149.8</ele>
        <time>2020-05-30T17:02:39Z</time>
      </trkpt>
      <trkpt lat="46.54182" lon="0.18015">
        <ele>149.8</ele>
        <time>2020-05-30T17:02:40Z</time>
      </trkpt>
      <trkpt lat="46.54178" lon="0.18009">
        <ele>149.8</ele>
        <time>2020-05-30T17:02:41Z</time>
      </trkpt>
      <trkpt lat="46.54175" lon="0.18001">
        <ele>149.8</ele>
        <time>2020-05-30T17:02:42Z</time>
      </trkpt>
      <trkpt lat="46.54171" lon="0.17996">
        <ele>149.8</ele>
        <time>2020-05-30T17:02:43Z</time>
      </trkpt>
      <trkpt lat="46.54166" lon="0.1799">
        <ele>149.8</ele>
        <time>2020-05-30T17:02:44Z</time>
      </trkpt>
      <trkpt lat="46.54162" lon="0.17983">
        <ele>149.8</ele>
        <time>2020-05-30T17:02:45Z</time>
      </trkpt>
      <trkpt lat="46.54158" lon="0.17978">
        <ele>149.8</ele>
        <time>2020-05-30T17:02:46Z</time>
      </trkpt>
      <trkpt lat="46.54154" lon="0.17972">
        <ele>149.8</ele>
        <time>2020-05-30T17:02:47Z</time>
      </trkpt>
      <trkpt lat="46.54151" lon="0.17966">
        <ele>149.8</ele>
        <time>2020-05-30T17:02:48Z</time>
      </trkpt>
      <trkpt lat="46.54147" lon="0.1796">
        <ele>149.8</ele>
        <time>2020-05-30T17:02:49Z</time>
      </trkpt>
      <trkpt lat="46.54144" lon="0.17955">
        <ele>149.8</ele>
        <time>2020-05-30T17:02:50Z</time>
      </trkpt>
      <trkpt lat="46.54141" lon="0.17947">
        <ele>149.8</ele>
        <time>2020-05-30T17:02:51Z</time>
      </trkpt>
      <trkpt lat="46.54137" lon="0.17941">
        <ele>149.8</ele>
        <time>2020-05-30T17:02:52Z</time>
      </trkpt>
      <trkpt lat="46.54133" lon="0.17935">
        <ele>149.8</ele>
        <time>2020-05-30T17:02:53Z</time>
      </trkpt>
      <trkpt lat="46.54129" lon="0.17928">
        <ele>149.8</ele>
        <time>2020-05-30T17:02:54Z</time>
      </trkpt>
      <trkpt lat="46.54125" lon="0.17921">
        <ele>149.8</ele>
        <time>2020-05-30T17:02:55Z</time>
      </trkpt>
      <trkpt lat="46.54121" lon="0.17914">
        <ele>149.8</ele>
        <time>2020-05-30T17:02:56Z</time>
      </trkpt>
      <trkpt lat="46.54117" lon="0.17906">
        <ele>149.8</ele>
        <time>2020-05-30T17:02:57Z</time>
      </trkpt>
      <trkpt lat="46.54112" lon="0.17899">
        <ele>149.8</ele>
        <time>2020-05-30T17:02:58Z</time>
      </trkpt>
      <trkpt lat="46.54108" lon="0.17892">
        <ele>149.8</ele>
        <time>2020-05-30T17:02:59Z</time>
      </trkpt>
      <trkpt lat="46.54104" lon="0.17885">
        <ele>149.8</ele>
        <time>2020-05-30T17:03:00Z</time>
      </trkpt>
      <trkpt lat="46.54099" lon="0.17879">
        <ele>149.8</ele>
        <time>2020-05-30T17:03:01Z</time>
      </trkpt>
      <trkpt lat="46.54095" lon="0.17871">
        <ele>149.8</ele>
        <time>2020-05-30T17:03:02Z</time>
      </trkpt>
      <trkpt lat="46.54092" lon="0.17864">
        <ele>149.8</ele>
        <time>2020-05-30T17:03:03Z</time>
      </trkpt>
      <trkpt lat="46.54088" lon="0.17857">
        <ele>149.8</ele>
        <time>2020-05-30T17:03:04Z</time>
      </trkpt>
      <trkpt lat="46.54083" lon="0.1785">
        <ele>149.8</ele>
        <time>2020-05-30T17:03:05Z</time>
      </trkpt>
      <trkpt lat="46.54079" lon="0.17843">
        <ele>149.8</ele>
        <time>2020-05-30T17:03:06Z</time>
      </trkpt>
      <trkpt lat="46.54076" lon="0.17836">
        <ele>149.8</ele>
        <time>2020-05-30T17:03:07Z</time>
      </trkpt>
      <trkpt lat="46.54072" lon="0.17829">
        <ele>149.8</ele>
        <time>2020-05-30T17:03:08Z</time>
      </trkpt>
      <trkpt lat="46.54067" lon="0.17823">
        <ele>149.8</ele>
        <time>2020-05-30T17:03:09Z</time>
      </trkpt>
      <trkpt lat="46.54064" lon="0.17816">
        <ele>149.8</ele>
        <time>2020-05-30T17:03:10Z</time>
      </trkpt>
      <trkpt lat="46.54061" lon="0.1781">
        <ele>149.8</ele>
        <time>2020-05-30T17:03:11Z</time>
      </trkpt>
      <trkpt lat="46.54057" lon="0.17804">
        <ele>149.8</ele>
        <time>2020-05-30T17:03:12Z</time>
      </trkpt>
      <trkpt lat="46.54053" lon="0.17799">
        <ele>149.8</ele>
        <time>2020-05-30T17:03:13Z</time>
      </trkpt>
      <trkpt lat="46.54048" lon="0.17795">
        <ele>149.8</ele>
        <time>2020-05-30T17:03:14Z</time>
      </trkpt>
      <trkpt lat="46.54043" lon="0.17789">
        <ele>149.8</ele>
        <time>2020-05-30T17:03:15Z</time>
      </trkpt>
      <trkpt lat="46.54038" lon="0.17784">
        <ele>149.7</ele>
        <time>2020-05-30T17:03:16Z</time>
      </trkpt>
      <trkpt lat="46.54034" lon="0.17779">
        <ele>149.7</ele>
        <time>2020-05-30T17:03:17Z</time>
      </trkpt>
      <trkpt lat="46.5403" lon="0.17774">
        <ele>149.7</ele>
        <time>2020-05-30T17:03:18Z</time>
      </trkpt>
      <trkpt lat="46.54025" lon="0.1777">
        <ele>149.7</ele>
        <time>2020-05-30T17:03:19Z</time>
      </trkpt>
      <trkpt lat="46.54019" lon="0.17767">
        <ele>149.7</ele>
        <time>2020-05-30T17:03:20Z</time>
      </trkpt>
      <trkpt lat="46.54015" lon="0.17762">
        <ele>149.7</ele>
        <time>2020-05-30T17:03:21Z</time>
      </trkpt>
      <trkpt lat="46.5401" lon="0.17757">
        <ele>149.7</ele>
        <time>2020-05-30T17:03:22Z</time>
      </trkpt>
      <trkpt lat="46.54006" lon="0.17753">
        <ele>149.8</ele>
        <time>2020-05-30T17:03:23Z</time>
      </trkpt>
      <trkpt lat="46.54002" lon="0.17749">
        <ele>149.8</ele>
        <time>2020-05-30T17:03:24Z</time>
      </trkpt>
      <trkpt lat="46.53996" lon="0.17746">
        <ele>149.8</ele>
        <time>2020-05-30T17:03:25Z</time>
      </trkpt>
      <trkpt lat="46.53991" lon="0.17741">
        <ele>149.8</ele>
        <time>2020-05-30T17:03:26Z</time>
      </trkpt>
      <trkpt lat="46.53987" lon="0.17736">
        <ele>149.8</ele>
        <time>2020-05-30T17:03:27Z</time>
      </trkpt>
      <trkpt lat="46.53982" lon="0.17731">
        <ele>149.9</ele>
        <time>2020-05-30T17:03:28Z</time>
      </trkpt>
      <trkpt lat="46.53977" lon="0.17726">
        <ele>149.9</ele>
        <time>2020-05-30T17:03:29Z</time>
      </trkpt>
      <trkpt lat="46.53972" lon="0.17722">
        <ele>149.9</ele>
        <time>2020-05-30T17:03:30Z</time>
      </trkpt>
      <trkpt lat="46.53967" lon="0.17718">
        <ele>149.9</ele>
        <time>2020-05-30T17:03:31Z</time>
      </trkpt>
      <trkpt lat="46.53962" lon="0.17714">
        <ele>149.9</ele>
        <time>2020-05-30T17:03:32Z</time>
      </trkpt>
      <trkpt lat="46.53957" lon="0.1771">
        <ele>150</ele>
        <time>2020-05-30T17:03:33Z</time>
      </trkpt>
      <trkpt lat="46.53952" lon="0.17705">
        <ele>150</ele>
        <time>2020-05-30T17:03:34Z</time>
      </trkpt>
      <trkpt lat="46.53947" lon="0.177">
        <ele>150</ele>
        <time>2020-05-30T17:03:35Z</time>
      </trkpt>
      <trkpt lat="46.53943" lon="0.17695">
        <ele>150.1</ele>
        <time>2020-05-30T17:03:36Z</time>
      </trkpt>
      <trkpt lat="46.53938" lon="0.17691">
        <ele>150.1</ele>
        <time>2020-05-30T17:03:37Z</time>
      </trkpt>
      <trkpt lat="46.53933" lon="0.17687">
        <ele>150.1</ele>
        <time>2020-05-30T17:03:38Z</time>
      </trkpt>
      <trkpt lat="46.53927" lon="0.17684">
        <ele>150.1</ele>
        <time>2020-05-30T17:03:39Z</time>
      </trkpt>
      <trkpt lat="46.53922" lon="0.1768">
        <ele>150.1</ele>
        <time>2020-05-30T17:03:40Z</time>
      </trkpt>
      <trkpt lat="46.53917" lon="0.17676">
        <ele>150.1</ele>
        <time>2020-05-30T17:03:41Z</time>
      </trkpt>
      <trkpt lat="46.53911" lon="0.17674">
        <ele>150.2</ele>
        <time>2020-05-30T17:03:42Z</time>
      </trkpt>
      <trkpt lat="46.53906" lon="0.1767">
        <ele>150.2</ele>
        <time>2020-05-30T17:03:43Z</time>
      </trkpt>
      <trkpt lat="46.53901" lon="0.17665">
        <ele>150.2</ele>
        <time>2020-05-30T17:03:44Z</time>
      </trkpt>
      <trkpt lat="46.53896" lon="0.17661">
        <ele>150.2</ele>
        <time>2020-05-30T17:03:45Z</time>
      </trkpt>
      <trkpt lat="46.53891" lon="0.17657">
        <ele>150.3</ele>
        <time>2020-05-30T17:03:46Z</time>
      </trkpt>
      <trkpt lat="46.53886" lon="0.17652">
        <ele>150.3</ele>
        <time>2020-05-30T17:03:47Z</time>
      </trkpt>
      <trkpt lat="46.53881" lon="0.17647">
        <ele>150.3</ele>
        <time>2020-05-30T17:03:48Z</time>
      </trkpt>
      <trkpt lat="46.53877" lon="0.17641">
        <ele>150.4</ele>
        <time>2020-05-30T17:03:49Z</time>
      </trkpt>
      <trkpt lat="46.53871" lon="0.17636">
        <ele>150.4</ele>
        <time>2020-05-30T17:03:50Z</time>
      </trkpt>
      <trkpt lat="46.53866" lon="0.17631">
        <ele>150.4</ele>
        <time>2020-05-30T17:03:51Z</time>
      </trkpt>
      <trkpt lat="46.53861" lon="0.17626">
        <ele>150.4</ele>
        <time>2020-05-30T17:03:52Z</time>
      </trkpt>
      <trkpt lat="46.53855" lon="0.17623">
        <ele>150.4</ele>
        <time>2020-05-30T17:03:53Z</time>
      </trkpt>
      <trkpt lat="46.5385" lon="0.17619">
        <ele>150.5</ele>
        <time>2020-05-30T17:03:54Z</time>
      </trkpt>
      <trkpt lat="46.53845" lon="0.17615">
        <ele>150.5</ele>
        <time>2020-05-30T17:03:55Z</time>
      </trkpt>
      <trkpt lat="46.5384" lon="0.17612">
        <ele>150.5</ele>
        <time>2020-05-30T17:03:56Z</time>
      </trkpt>
      <trkpt lat="46.53835" lon="0.17608">
        <ele>150.5</ele>
        <time>2020-05-30T17:03:57Z</time>
      </trkpt>
      <trkpt lat="46.5383" lon="0.17605">
        <ele>150.5</ele>
        <time>2020-05-30T17:03:58Z</time>
      </trkpt>
      <trkpt lat="46.53824" lon="0.17602">
        <ele>150.6</ele>
        <time>2020-05-30T17:03:59Z</time>
      </trkpt>
      <trkpt lat="46.53819" lon="0.17598">
        <ele>150.6</ele>
        <time>2020-05-30T17:04:00Z</time>
      </trkpt>
      <trkpt lat="46.53813" lon="0.17594">
        <ele>150.6</ele>
        <time>2020-05-30T17:04:01Z</time>
      </trkpt>
      <trkpt lat="46.53808" lon="0.1759">
        <ele>150.6</ele>
        <time>2020-05-30T17:04:02Z</time>
      </trkpt>
      <trkpt lat="46.53802" lon="0.17587">
        <ele>150.6</ele>
        <time>2020-05-30T17:04:03Z</time>
      </trkpt>
      <trkpt lat="46.53796" lon="0.17584">
        <ele>150.7</ele>
        <time>2020-05-30T17:04:04Z</time>
      </trkpt>
      <trkpt lat="46.5379" lon="0.17581">
        <ele>150.7</ele>
        <time>2020-05-30T17:04:05Z</time>
      </trkpt>
      <trkpt lat="46.53783" lon="0.17578">
        <ele>150.7</ele>
        <time>2020-05-30T17:04:06Z</time>
      </trkpt>
      <trkpt lat="46.53777" lon="0.17574">
        <ele>150.7</ele>
        <time>2020-05-30T17:04:07Z</time>
      </trkpt>
      <trkpt lat="46.53771" lon="0.1757">
        <ele>150.8</ele>
        <time>2020-05-30T17:04:08Z</time>
      </trkpt>
      <trkpt lat="46.53764" lon="0.17567">
        <ele>150.8</ele>
        <time>2020-05-30T17:04:09Z</time>
      </trkpt>
      <trkpt lat="46.53758" lon="0.17564">
        <ele>150.8</ele>
        <time>2020-05-30T17:04:10Z</time>
      </trkpt>
      <trkpt lat="46.53752" lon="0.1756">
        <ele>150.9</ele>
        <time>2020-05-30T17:04:11Z</time>
      </trkpt>
      <trkpt lat="46.53745" lon="0.17556">
        <ele>150.9</ele>
        <time>2020-05-30T17:04:12Z</time>
      </trkpt>
      <trkpt lat="46.53739" lon="0.17553">
        <ele>150.9</ele>
        <time>2020-05-30T17:04:13Z</time>
      </trkpt>
      <trkpt lat="46.53733" lon="0.17549">
        <ele>150.9</ele>
        <time>2020-05-30T17:04:14Z</time>
      </trkpt>
      <trkpt lat="46.53726" lon="0.17545">
        <ele>150.9</ele>
        <time>2020-05-30T17:04:15Z</time>
      </trkpt>
      <trkpt lat="46.5372" lon="0.17543">
        <ele>150.9</ele>
        <time>2020-05-30T17:04:16Z</time>
      </trkpt>
      <trkpt lat="46.53713" lon="0.1754">
        <ele>150.9</ele>
        <time>2020-05-30T17:04:17Z</time>
      </trkpt>
      <trkpt lat="46.53707" lon="0.17536">
        <ele>150.9</ele>
        <time>2020-05-30T17:04:18Z</time>
      </trkpt>
      <trkpt lat="46.53701" lon="0.17534">
        <ele>150.9</ele>
        <time>2020-05-30T17:04:19Z</time>
      </trkpt>
      <trkpt lat="46.53695" lon="0.17533">
        <ele>150.9</ele>
        <time>2020-05-30T17:04:20Z</time>
      </trkpt>
      <trkpt lat="46.53689" lon="0.17531">
        <ele>150.9</ele>
        <time>2020-05-30T17:04:21Z</time>
      </trkpt>
      <trkpt lat="46.53683" lon="0.1753">
        <ele>151</ele>
        <time>2020-05-30T17:04:22Z</time>
      </trkpt>
      <trkpt lat="46.53677" lon="0.17529">
        <ele>151</ele>
        <time>2020-05-30T17:04:23Z</time>
      </trkpt>
      <trkpt lat="46.53671" lon="0.17528">
        <ele>151</ele>
        <time>2020-05-30T17:04:24Z</time>
      </trkpt>
      <trkpt lat="46.53665" lon="0.17525">
        <ele>150.9</ele>
        <time>2020-05-30T17:04:25Z</time>
      </trkpt>
      <trkpt lat="46.53659" lon="0.17523">
        <ele>150.9</ele>
        <time>2020-05-30T17:04:26Z</time>
      </trkpt>
      <trkpt lat="46.53653" lon="0.1752">
        <ele>150.8</ele>
        <time>2020-05-30T17:04:27Z</time>
      </trkpt>
      <trkpt lat="46.53646" lon="0.17517">
        <ele>150.8</ele>
        <time>2020-05-30T17:04:28Z</time>
      </trkpt>
      <trkpt lat="46.53639" lon="0.17513">
        <ele>150.7</ele>
        <time>2020-05-30T17:04:29Z</time>
      </trkpt>
      <trkpt lat="46.53633" lon="0.1751">
        <ele>150.7</ele>
        <time>2020-05-30T17:04:30Z</time>
      </trkpt>
      <trkpt lat="46.53626" lon="0.17508">
        <ele>150.6</ele>
        <time>2020-05-30T17:04:31Z</time>
      </trkpt>
      <trkpt lat="46.53619" lon="0.17505">
        <ele>150.6</ele>
        <time>2020-05-30T17:04:32Z</time>
      </trkpt>
      <trkpt lat="46.53613" lon="0.17501">
        <ele>150.6</ele>
        <time>2020-05-30T17:04:33Z</time>
      </trkpt>
      <trkpt lat="46.53606" lon="0.17496">
        <ele>150.6</ele>
        <time>2020-05-30T17:04:34Z</time>
      </trkpt>
      <trkpt lat="46.536" lon="0.17492">
        <ele>150.5</ele>
        <time>2020-05-30T17:04:35Z</time>
      </trkpt>
      <trkpt lat="46.53594" lon="0.17489">
        <ele>150.5</ele>
        <time>2020-05-30T17:04:36Z</time>
      </trkpt>
      <trkpt lat="46.53588" lon="0.17485">
        <ele>150.4</ele>
        <time>2020-05-30T17:04:37Z</time>
      </trkpt>
      <trkpt lat="46.53581" lon="0.17481">
        <ele>150.3</ele>
        <time>2020-05-30T17:04:38Z</time>
      </trkpt>
      <trkpt lat="46.53575" lon="0.17477">
        <ele>150.3</ele>
        <time>2020-05-30T17:04:39Z</time>
      </trkpt>
      <trkpt lat="46.53569" lon="0.17473">
        <ele>150.3</ele>
        <time>2020-05-30T17:04:40Z</time>
      </trkpt>
      <trkpt lat="46.53564" lon="0.17469">
        <ele>150.3</ele>
        <time>2020-05-30T17:04:41Z</time>
      </trkpt>
      <trkpt lat="46.53558" lon="0.17466">
        <ele>150.3</ele>
        <time>2020-05-30T17:04:42Z</time>
      </trkpt>
      <trkpt lat="46.53552" lon="0.17464">
        <ele>150.2</ele>
        <time>2020-05-30T17:04:43Z</time>
      </trkpt>
      <trkpt lat="46.53546" lon="0.17461">
        <ele>150.2</ele>
        <time>2020-05-30T17:04:44Z</time>
      </trkpt>
      <trkpt lat="46.5354" lon="0.17458">
        <ele>150.2</ele>
        <time>2020-05-30T17:04:45Z</time>
      </trkpt>
      <trkpt lat="46.53535" lon="0.17453">
        <ele>150.2</ele>
        <time>2020-05-30T17:04:46Z</time>
      </trkpt>
      <trkpt lat="46.5353" lon="0.17449">
        <ele>150.2</ele>
        <time>2020-05-30T17:04:47Z</time>
      </trkpt>
      <trkpt lat="46.53524" lon="0.17446">
        <ele>150.1</ele>
        <time>2020-05-30T17:04:48Z</time>
      </trkpt>
      <trkpt lat="46.53518" lon="0.17442">
        <ele>150</ele>
        <time>2020-05-30T17:04:49Z</time>
      </trkpt>
      <trkpt lat="46.53512" lon="0.17439">
        <ele>149.9</ele>
        <time>2020-05-30T17:04:50Z</time>
      </trkpt>
      <trkpt lat="46.53505" lon="0.17435">
        <ele>149.7</ele>
        <time>2020-05-30T17:04:51Z</time>
      </trkpt>
      <trkpt lat="46.53499" lon="0.17431">
        <ele>149.6</ele>
        <time>2020-05-30T17:04:52Z</time>
      </trkpt>
      <trkpt lat="46.53493" lon="0.17427">
        <ele>149.4</ele>
        <time>2020-05-30T17:04:53Z</time>
      </trkpt>
      <trkpt lat="46.53487" lon="0.17423">
        <ele>149.3</ele>
        <time>2020-05-30T17:04:54Z</time>
      </trkpt>
      <trkpt lat="46.5348" lon="0.17418">
        <ele>149.3</ele>
        <time>2020-05-30T17:04:55Z</time>
      </trkpt>
      <trkpt lat="46.53474" lon="0.17414">
        <ele>149.2</ele>
        <time>2020-05-30T17:04:56Z</time>
      </trkpt>
      <trkpt lat="46.53467" lon="0.1741">
        <ele>149.2</ele>
        <time>2020-05-30T17:04:57Z</time>
      </trkpt>
      <trkpt lat="46.5346" lon="0.17407">
        <ele>149.2</ele>
        <time>2020-05-30T17:04:58Z</time>
      </trkpt>
      <trkpt lat="46.53454" lon="0.17403">
        <ele>149.2</ele>
        <time>2020-05-30T17:04:59Z</time>
      </trkpt>
      <trkpt lat="46.53447" lon="0.17401">
        <ele>149.2</ele>
        <time>2020-05-30T17:05:00Z</time>
      </trkpt>
      <trkpt lat="46.53441" lon="0.17396">
        <ele>149.2</ele>
        <time>2020-05-30T17:05:01Z</time>
      </trkpt>
      <trkpt lat="46.53434" lon="0.17393">
        <ele>149.2</ele>
        <time>2020-05-30T17:05:02Z</time>
      </trkpt>
      <trkpt lat="46.53428" lon="0.17389">
        <ele>149.1</ele>
        <time>2020-05-30T17:05:03Z</time>
      </trkpt>
      <trkpt lat="46.53422" lon="0.17385">
        <ele>149.1</ele>
        <time>2020-05-30T17:05:04Z</time>
      </trkpt>
      <trkpt lat="46.53416" lon="0.17381">
        <ele>149</ele>
        <time>2020-05-30T17:05:05Z</time>
      </trkpt>
      <trkpt lat="46.5341" lon="0.17376">
        <ele>149</ele>
        <time>2020-05-30T17:05:06Z</time>
      </trkpt>
      <trkpt lat="46.53404" lon="0.17372">
        <ele>148.9</ele>
        <time>2020-05-30T17:05:07Z</time>
      </trkpt>
      <trkpt lat="46.53398" lon="0.17369">
        <ele>148.9</ele>
        <time>2020-05-30T17:05:08Z</time>
      </trkpt>
      <trkpt lat="46.53393" lon="0.17363">
        <ele>148.8</ele>
        <time>2020-05-30T17:05:09Z</time>
      </trkpt>
      <trkpt lat="46.53386" lon="0.17359">
        <ele>148.7</ele>
        <time>2020-05-30T17:05:10Z</time>
      </trkpt>
      <trkpt lat="46.5338" lon="0.17355">
        <ele>148.6</ele>
        <time>2020-05-30T17:05:11Z</time>
      </trkpt>
      <trkpt lat="46.53374" lon="0.17349">
        <ele>148.5</ele>
        <time>2020-05-30T17:05:12Z</time>
      </trkpt>
      <trkpt lat="46.53369" lon="0.17342">
        <ele>148.4</ele>
        <time>2020-05-30T17:05:13Z</time>
      </trkpt>
      <trkpt lat="46.53364" lon="0.17335">
        <ele>148.2</ele>
        <time>2020-05-30T17:05:14Z</time>
      </trkpt>
      <trkpt lat="46.53358" lon="0.17328">
        <ele>148</ele>
        <time>2020-05-30T17:05:15Z</time>
      </trkpt>
      <trkpt lat="46.53353" lon="0.17321">
        <ele>147.8</ele>
        <time>2020-05-30T17:05:16Z</time>
      </trkpt>
      <trkpt lat="46.53348" lon="0.17313">
        <ele>147.5</ele>
        <time>2020-05-30T17:05:17Z</time>
      </trkpt>
      <trkpt lat="46.53343" lon="0.17304">
        <ele>147.3</ele>
        <time>2020-05-30T17:05:18Z</time>
      </trkpt>
      <trkpt lat="46.53338" lon="0.17295">
        <ele>147.1</ele>
        <time>2020-05-30T17:05:19Z</time>
      </trkpt>
      <trkpt lat="46.53333" lon="0.17286">
        <ele>146.8</ele>
        <time>2020-05-30T17:05:20Z</time>
      </trkpt>
      <trkpt lat="46.53328" lon="0.17277">
        <ele>146.6</ele>
        <time>2020-05-30T17:05:21Z</time>
      </trkpt>
      <trkpt lat="46.53324" lon="0.17266">
        <ele>146.3</ele>
        <time>2020-05-30T17:05:22Z</time>
      </trkpt>
      <trkpt lat="46.53319" lon="0.17256">
        <ele>146.1</ele>
        <time>2020-05-30T17:05:23Z</time>
      </trkpt>
      <trkpt lat="46.53314" lon="0.17246">
        <ele>145.9</ele>
        <time>2020-05-30T17:05:24Z</time>
      </trkpt>
      <trkpt lat="46.53309" lon="0.17236">
        <ele>145.6</ele>
        <time>2020-05-30T17:05:25Z</time>
      </trkpt>
      <trkpt lat="46.53304" lon="0.17226">
        <ele>145.3</ele>
        <time>2020-05-30T17:05:26Z</time>
      </trkpt>
      <trkpt lat="46.53299" lon="0.17216">
        <ele>145.1</ele>
        <time>2020-05-30T17:05:27Z</time>
      </trkpt>
      <trkpt lat="46.53294" lon="0.17206">
        <ele>144.9</ele>
        <time>2020-05-30T17:05:28Z</time>
      </trkpt>
      <trkpt lat="46.53289" lon="0.17196">
        <ele>144.7</ele>
        <time>2020-05-30T17:05:29Z</time>
      </trkpt>
      <trkpt lat="46.53284" lon="0.17186">
        <ele>144.6</ele>
        <time>2020-05-30T17:05:30Z</time>
      </trkpt>
      <trkpt lat="46.53279" lon="0.17175">
        <ele>144.4</ele>
        <time>2020-05-30T17:05:31Z</time>
      </trkpt>
      <trkpt lat="46.53273" lon="0.17166">
        <ele>144.3</ele>
        <time>2020-05-30T17:05:32Z</time>
      </trkpt>
      <trkpt lat="46.53268" lon="0.17156">
        <ele>144.3</ele>
        <time>2020-05-30T17:05:33Z</time>
      </trkpt>
      <trkpt lat="46.53263" lon="0.17146">
        <ele>144.2</ele>
        <time>2020-05-30T17:05:34Z</time>
      </trkpt>
      <trkpt lat="46.53259" lon="0.17136">
        <ele>144.2</ele>
        <time>2020-05-30T17:05:35Z</time>
      </trkpt>
      <trkpt lat="46.53254" lon="0.17126">
        <ele>144.2</ele>
        <time>2020-05-30T17:05:36Z</time>
      </trkpt>
      <trkpt lat="46.53249" lon="0.17117">
        <ele>144.2</ele>
        <time>2020-05-30T17:05:37Z</time>
      </trkpt>
      <trkpt lat="46.53246" lon="0.17107">
        <ele>144.2</ele>
        <time>2020-05-30T17:05:38Z</time>
      </trkpt>
      <trkpt lat="46.53241" lon="0.17098">
        <ele>144.1</ele>
        <time>2020-05-30T17:05:39Z</time>
      </trkpt>
      <trkpt lat="46.53236" lon="0.1709">
        <ele>144.1</ele>
        <time>2020-05-30T17:05:40Z</time>
      </trkpt>
      <trkpt lat="46.53231" lon="0.17081">
        <ele>144.1</ele>
        <time>2020-05-30T17:05:41Z</time>
      </trkpt>
      <trkpt lat="46.53227" lon="0.17071">
        <ele>144.1</ele>
        <time>2020-05-30T17:05:42Z</time>
      </trkpt>
      <trkpt lat="46.53223" lon="0.17061">
        <ele>144.1</ele>
        <time>2020-05-30T17:05:43Z</time>
      </trkpt>
      <trkpt lat="46.53219" lon="0.17052">
        <ele>144.1</ele>
        <time>2020-05-30T17:05:44Z</time>
      </trkpt>
      <trkpt lat="46.53214" lon="0.17042">
        <ele>144.1</ele>
        <time>2020-05-30T17:05:45Z</time>
      </trkpt>
      <trkpt lat="46.5321" lon="0.17033">
        <ele>144.1</ele>
        <time>2020-05-30T17:05:46Z</time>
      </trkpt>
      <trkpt lat="46.53207" lon="0.17023">
        <ele>144.1</ele>
        <time>2020-05-30T17:05:47Z</time>
      </trkpt>
      <trkpt lat="46.53204" lon="0.17012">
        <ele>144.1</ele>
        <time>2020-05-30T17:05:48Z</time>
      </trkpt>
      <trkpt lat="46.53201" lon="0.17002">
        <ele>144.1</ele>
        <time>2020-05-30T17:05:49Z</time>
      </trkpt>
      <trkpt lat="46.53198" lon="0.16992">
        <ele>144.1</ele>
        <time>2020-05-30T17:05:50Z</time>
      </trkpt>
      <trkpt lat="46.53195" lon="0.16983">
        <ele>144.1</ele>
        <time>2020-05-30T17:05:51Z</time>
      </trkpt>
      <trkpt lat="46.53191" lon="0.16973">
        <ele>144.1</ele>
        <time>2020-05-30T17:05:52Z</time>
      </trkpt>
      <trkpt lat="46.53189" lon="0.16963">
        <ele>144.1</ele>
        <time>2020-05-30T17:05:53Z</time>
      </trkpt>
      <trkpt lat="46.53185" lon="0.16954">
        <ele>144.1</ele>
        <time>2020-05-30T17:05:54Z</time>
      </trkpt>
      <trkpt lat="46.53181" lon="0.16945">
        <ele>144.1</ele>
        <time>2020-05-30T17:05:55Z</time>
      </trkpt>
      <trkpt lat="46.53178" lon="0.16935">
        <ele>144.1</ele>
        <time>2020-05-30T17:05:56Z</time>
      </trkpt>
      <trkpt lat="46.53175" lon="0.16927">
        <ele>144.2</ele>
        <time>2020-05-30T17:05:57Z</time>
      </trkpt>
      <trkpt lat="46.53172" lon="0.16918">
        <ele>144.3</ele>
        <time>2020-05-30T17:05:58Z</time>
      </trkpt>
      <trkpt lat="46.53169" lon="0.16909">
        <ele>144.4</ele>
        <time>2020-05-30T17:05:59Z</time>
      </trkpt>
      <trkpt lat="46.53166" lon="0.16901">
        <ele>144.5</ele>
        <time>2020-05-30T17:06:00Z</time>
      </trkpt>
      <trkpt lat="46.53163" lon="0.16892">
        <ele>144.6</ele>
        <time>2020-05-30T17:06:01Z</time>
      </trkpt>
      <trkpt lat="46.5316" lon="0.16884">
        <ele>144.7</ele>
        <time>2020-05-30T17:06:02Z</time>
      </trkpt>
      <trkpt lat="46.53157" lon="0.16875">
        <ele>144.8</ele>
        <time>2020-05-30T17:06:03Z</time>
      </trkpt>
      <trkpt lat="46.53154" lon="0.16866">
        <ele>144.9</ele>
        <time>2020-05-30T17:06:04Z</time>
      </trkpt>
      <trkpt lat="46.53152" lon="0.16858">
        <ele>145</ele>
        <time>2020-05-30T17:06:05Z</time>
      </trkpt>
      <trkpt lat="46.53149" lon="0.16849">
        <ele>145.1</ele>
        <time>2020-05-30T17:06:06Z</time>
      </trkpt>
      <trkpt lat="46.53146" lon="0.16841">
        <ele>145.2</ele>
        <time>2020-05-30T17:06:07Z</time>
      </trkpt>
      <trkpt lat="46.53144" lon="0.16832">
        <ele>145.4</ele>
        <time>2020-05-30T17:06:08Z</time>
      </trkpt>
      <trkpt lat="46.53141" lon="0.16824">
        <ele>145.5</ele>
        <time>2020-05-30T17:06:09Z</time>
      </trkpt>
      <trkpt lat="46.53138" lon="0.16816">
        <ele>145.6</ele>
        <time>2020-05-30T17:06:10Z</time>
      </trkpt>
      <trkpt lat="46.53135" lon="0.16807">
        <ele>145.7</ele>
        <time>2020-05-30T17:06:11Z</time>
      </trkpt>
      <trkpt lat="46.53132" lon="0.168">
        <ele>145.8</ele>
        <time>2020-05-30T17:06:12Z</time>
      </trkpt>
      <trkpt lat="46.53128" lon="0.16792">
        <ele>145.9</ele>
        <time>2020-05-30T17:06:13Z</time>
      </trkpt>
      <trkpt lat="46.53124" lon="0.16785">
        <ele>146</ele>
        <time>2020-05-30T17:06:14Z</time>
      </trkpt>
      <trkpt lat="46.53121" lon="0.16777">
        <ele>146</ele>
        <time>2020-05-30T17:06:15Z</time>
      </trkpt>
      <trkpt lat="46.53118" lon="0.16769">
        <ele>146.1</ele>
        <time>2020-05-30T17:06:16Z</time>
      </trkpt>
      <trkpt lat="46.53114" lon="0.16762">
        <ele>146.2</ele>
        <time>2020-05-30T17:06:17Z</time>
      </trkpt>
      <trkpt lat="46.5311" lon="0.16756">
        <ele>146.3</ele>
        <time>2020-05-30T17:06:18Z</time>
      </trkpt>
      <trkpt lat="46.53105" lon="0.16749">
        <ele>146.4</ele>
        <time>2020-05-30T17:06:19Z</time>
      </trkpt>
      <trkpt lat="46.53101" lon="0.16743">
        <ele>146.5</ele>
        <time>2020-05-30T17:06:20Z</time>
      </trkpt>
      <trkpt lat="46.53097" lon="0.16737">
        <ele>146.5</ele>
        <time>2020-05-30T17:06:21Z</time>
      </trkpt>
      <trkpt lat="46.53092" lon="0.16732">
        <ele>146.6</ele>
        <time>2020-05-30T17:06:22Z</time>
      </trkpt>
      <trkpt lat="46.53088" lon="0.16726">
        <ele>146.7</ele>
        <time>2020-05-30T17:06:23Z</time>
      </trkpt>
      <trkpt lat="46.53083" lon="0.16721">
        <ele>146.7</ele>
        <time>2020-05-30T17:06:24Z</time>
      </trkpt>
      <trkpt lat="46.53078" lon="0.16715">
        <ele>146.8</ele>
        <time>2020-05-30T17:06:25Z</time>
      </trkpt>
      <trkpt lat="46.53073" lon="0.1671">
        <ele>146.8</ele>
        <time>2020-05-30T17:06:26Z</time>
      </trkpt>
      <trkpt lat="46.53069" lon="0.16703">
        <ele>146.9</ele>
        <time>2020-05-30T17:06:27Z</time>
      </trkpt>
      <trkpt lat="46.53064" lon="0.16697">
        <ele>146.9</ele>
        <time>2020-05-30T17:06:28Z</time>
      </trkpt>
      <trkpt lat="46.5306" lon="0.1669">
        <ele>147</ele>
        <time>2020-05-30T17:06:29Z</time>
      </trkpt>
      <trkpt lat="46.53055" lon="0.16685">
        <ele>147</ele>
        <time>2020-05-30T17:06:30Z</time>
      </trkpt>
      <trkpt lat="46.5305" lon="0.16679">
        <ele>147.1</ele>
        <time>2020-05-30T17:06:31Z</time>
      </trkpt>
      <trkpt lat="46.53046" lon="0.16671">
        <ele>147.1</ele>
        <time>2020-05-30T17:06:32Z</time>
      </trkpt>
      <trkpt lat="46.53042" lon="0.16665">
        <ele>147.2</ele>
        <time>2020-05-30T17:06:33Z</time>
      </trkpt>
      <trkpt lat="46.53037" lon="0.16659">
        <ele>147.2</ele>
        <time>2020-05-30T17:06:34Z</time>
      </trkpt>
      <trkpt lat="46.53033" lon="0.16653">
        <ele>147.2</ele>
        <time>2020-05-30T17:06:35Z</time>
      </trkpt>
      <trkpt lat="46.53028" lon="0.16647">
        <ele>147.3</ele>
        <time>2020-05-30T17:06:36Z</time>
      </trkpt>
      <trkpt lat="46.53024" lon="0.16642">
        <ele>147.3</ele>
        <time>2020-05-30T17:06:37Z</time>
      </trkpt>
      <trkpt lat="46.53019" lon="0.16635">
        <ele>147.4</ele>
        <time>2020-05-30T17:06:38Z</time>
      </trkpt>
      <trkpt lat="46.53015" lon="0.16629">
        <ele>147.4</ele>
        <time>2020-05-30T17:06:39Z</time>
      </trkpt>
      <trkpt lat="46.5301" lon="0.16622">
        <ele>147.5</ele>
        <time>2020-05-30T17:06:40Z</time>
      </trkpt>
      <trkpt lat="46.53006" lon="0.16616">
        <ele>147.5</ele>
        <time>2020-05-30T17:06:41Z</time>
      </trkpt>
      <trkpt lat="46.53001" lon="0.1661">
        <ele>147.5</ele>
        <time>2020-05-30T17:06:42Z</time>
      </trkpt>
      <trkpt lat="46.52997" lon="0.16603">
        <ele>147.6</ele>
        <time>2020-05-30T17:06:43Z</time>
      </trkpt>
      <trkpt lat="46.52992" lon="0.16597">
        <ele>147.6</ele>
        <time>2020-05-30T17:06:44Z</time>
      </trkpt>
      <trkpt lat="46.52987" lon="0.16591">
        <ele>147.6</ele>
        <time>2020-05-30T17:06:45Z</time>
      </trkpt>
      <trkpt lat="46.52983" lon="0.16584">
        <ele>147.6</ele>
        <time>2020-05-30T17:06:46Z</time>
      </trkpt>
      <trkpt lat="46.52979" lon="0.16578">
        <ele>147.7</ele>
        <time>2020-05-30T17:06:47Z</time>
      </trkpt>
      <trkpt lat="46.52975" lon="0.1657">
        <ele>147.7</ele>
        <time>2020-05-30T17:06:48Z</time>
      </trkpt>
      <trkpt lat="46.52971" lon="0.16564">
        <ele>147.8</ele>
        <time>2020-05-30T17:06:49Z</time>
      </trkpt>
      <trkpt lat="46.52967" lon="0.16557">
        <ele>147.8</ele>
        <time>2020-05-30T17:06:50Z</time>
      </trkpt>
      <trkpt lat="46.52963" lon="0.16549">
        <ele>147.9</ele>
        <time>2020-05-30T17:06:51Z</time>
      </trkpt>
      <trkpt lat="46.52959" lon="0.16542">
        <ele>148</ele>
        <time>2020-05-30T17:06:52Z</time>
      </trkpt>
      <trkpt lat="46.52956" lon="0.16534">
        <ele>148</ele>
        <time>2020-05-30T17:06:53Z</time>
      </trkpt>
      <trkpt lat="46.52953" lon="0.16527">
        <ele>148</ele>
        <time>2020-05-30T17:06:54Z</time>
      </trkpt>
      <trkpt lat="46.52949" lon="0.16519">
        <ele>148</ele>
        <time>2020-05-30T17:06:55Z</time>
      </trkpt>
      <trkpt lat="46.52946" lon="0.16511">
        <ele>148</ele>
        <time>2020-05-30T17:06:56Z</time>
      </trkpt>
      <trkpt lat="46.52941" lon="0.16505">
        <ele>148</ele>
        <time>2020-05-30T17:06:57Z</time>
      </trkpt>
      <trkpt lat="46.52938" lon="0.16496">
        <ele>148</ele>
        <time>2020-05-30T17:06:58Z</time>
      </trkpt>
      <trkpt lat="46.52935" lon="0.16489">
        <ele>148</ele>
        <time>2020-05-30T17:06:59Z</time>
      </trkpt>
      <trkpt lat="46.52931" lon="0.16481">
        <ele>148</ele>
        <time>2020-05-30T17:07:00Z</time>
      </trkpt>
      <trkpt lat="46.52927" lon="0.16473">
        <ele>148</ele>
        <time>2020-05-30T17:07:01Z</time>
      </trkpt>
      <trkpt lat="46.52924" lon="0.16466">
        <ele>148</ele>
        <time>2020-05-30T17:07:02Z</time>
      </trkpt>
      <trkpt lat="46.5292" lon="0.16458">
        <ele>148</ele>
        <time>2020-05-30T17:07:03Z</time>
      </trkpt>
      <trkpt lat="46.52916" lon="0.1645">
        <ele>148</ele>
        <time>2020-05-30T17:07:04Z</time>
      </trkpt>
      <trkpt lat="46.52912" lon="0.16442">
        <ele>148</ele>
        <time>2020-05-30T17:07:05Z</time>
      </trkpt>
      <trkpt lat="46.52908" lon="0.16434">
        <ele>148</ele>
        <time>2020-05-30T17:07:06Z</time>
      </trkpt>
      <trkpt lat="46.52904" lon="0.16426">
        <ele>148</ele>
        <time>2020-05-30T17:07:07Z</time>
      </trkpt>
      <trkpt lat="46.52901" lon="0.16418">
        <ele>148</ele>
        <time>2020-05-30T17:07:08Z</time>
      </trkpt>
      <trkpt lat="46.52898" lon="0.16409">
        <ele>148</ele>
        <time>2020-05-30T17:07:09Z</time>
      </trkpt>
      <trkpt lat="46.52894" lon="0.16402">
        <ele>148</ele>
        <time>2020-05-30T17:07:10Z</time>
      </trkpt>
      <trkpt lat="46.52889" lon="0.16394">
        <ele>148</ele>
        <time>2020-05-30T17:07:11Z</time>
      </trkpt>
      <trkpt lat="46.52886" lon="0.16386">
        <ele>148</ele>
        <time>2020-05-30T17:07:12Z</time>
      </trkpt>
      <trkpt lat="46.52882" lon="0.16379">
        <ele>148</ele>
        <time>2020-05-30T17:07:13Z</time>
      </trkpt>
      <trkpt lat="46.52879" lon="0.16371">
        <ele>148</ele>
        <time>2020-05-30T17:07:14Z</time>
      </trkpt>
      <trkpt lat="46.52875" lon="0.16363">
        <ele>148</ele>
        <time>2020-05-30T17:07:15Z</time>
      </trkpt>
      <trkpt lat="46.52872" lon="0.16356">
        <ele>148</ele>
        <time>2020-05-30T17:07:16Z</time>
      </trkpt>
      <trkpt lat="46.52868" lon="0.16348">
        <ele>148</ele>
        <time>2020-05-30T17:07:17Z</time>
      </trkpt>
      <trkpt lat="46.52864" lon="0.1634">
        <ele>148</ele>
        <time>2020-05-30T17:07:18Z</time>
      </trkpt>
      <trkpt lat="46.5286" lon="0.16332">
        <ele>148</ele>
        <time>2020-05-30T17:07:19Z</time>
      </trkpt>
      <trkpt lat="46.52857" lon="0.16324">
        <ele>148</ele>
        <time>2020-05-30T17:07:20Z</time>
      </trkpt>
      <trkpt lat="46.52854" lon="0.16316">
        <ele>148.1</ele>
        <time>2020-05-30T17:07:21Z</time>
      </trkpt>
      <trkpt lat="46.52851" lon="0.16308">
        <ele>148.1</ele>
        <time>2020-05-30T17:07:22Z</time>
      </trkpt>
      <trkpt lat="46.52848" lon="0.16299">
        <ele>148.1</ele>
        <time>2020-05-30T17:07:23Z</time>
      </trkpt>
      <trkpt lat="46.52845" lon="0.16291">
        <ele>148.1</ele>
        <time>2020-05-30T17:07:24Z</time>
      </trkpt>
      <trkpt lat="46.52843" lon="0.16282">
        <ele>148.2</ele>
        <time>2020-05-30T17:07:25Z</time>
      </trkpt>
      <trkpt lat="46.52842" lon="0.16272">
        <ele>148.2</ele>
        <time>2020-05-30T17:07:26Z</time>
      </trkpt>
      <trkpt lat="46.5284" lon="0.16263">
        <ele>148.2</ele>
        <time>2020-05-30T17:07:27Z</time>
      </trkpt>
      <trkpt lat="46.52837" lon="0.16254">
        <ele>148.3</ele>
        <time>2020-05-30T17:07:28Z</time>
      </trkpt>
      <trkpt lat="46.52835" lon="0.16245">
        <ele>148.3</ele>
        <time>2020-05-30T17:07:29Z</time>
      </trkpt>
      <trkpt lat="46.52833" lon="0.16236">
        <ele>148.4</ele>
        <time>2020-05-30T17:07:30Z</time>
      </trkpt>
      <trkpt lat="46.52831" lon="0.16226">
        <ele>148.4</ele>
        <time>2020-05-30T17:07:31Z</time>
      </trkpt>
      <trkpt lat="46.52829" lon="0.16217">
        <ele>148.4</ele>
        <time>2020-05-30T17:07:32Z</time>
      </trkpt>
      <trkpt lat="46.52826" lon="0.16208">
        <ele>148.4</ele>
        <time>2020-05-30T17:07:33Z</time>
      </trkpt>
      <trkpt lat="46.52824" lon="0.16199">
        <ele>148.4</ele>
        <time>2020-05-30T17:07:34Z</time>
      </trkpt>
      <trkpt lat="46.52821" lon="0.1619">
        <ele>148.4</ele>
        <time>2020-05-30T17:07:35Z</time>
      </trkpt>
      <trkpt lat="46.52818" lon="0.16182">
        <ele>148.4</ele>
        <time>2020-05-30T17:07:36Z</time>
      </trkpt>
      <trkpt lat="46.52816" lon="0.16172">
        <ele>148.4</ele>
        <time>2020-05-30T17:07:37Z</time>
      </trkpt>
      <trkpt lat="46.52814" lon="0.16163">
        <ele>148.4</ele>
        <time>2020-05-30T17:07:38Z</time>
      </trkpt>
      <trkpt lat="46.52811" lon="0.16153">
        <ele>148.4</ele>
        <time>2020-05-30T17:07:39Z</time>
      </trkpt>
      <trkpt lat="46.52809" lon="0.16144">
        <ele>148.4</ele>
        <time>2020-05-30T17:07:40Z</time>
      </trkpt>
      <trkpt lat="46.52806" lon="0.16134">
        <ele>148.4</ele>
        <time>2020-05-30T17:07:41Z</time>
      </trkpt>
      <trkpt lat="46.52804" lon="0.16125">
        <ele>148.3</ele>
        <time>2020-05-30T17:07:42Z</time>
      </trkpt>
      <trkpt lat="46.52801" lon="0.16115">
        <ele>148.3</ele>
        <time>2020-05-30T17:07:43Z</time>
      </trkpt>
      <trkpt lat="46.52799" lon="0.16106">
        <ele>148.2</ele>
        <time>2020-05-30T17:07:44Z</time>
      </trkpt>
      <trkpt lat="46.52796" lon="0.16096">
        <ele>148.2</ele>
        <time>2020-05-30T17:07:45Z</time>
      </trkpt>
      <trkpt lat="46.52793" lon="0.16087">
        <ele>148.1</ele>
        <time>2020-05-30T17:07:46Z</time>
      </trkpt>
      <trkpt lat="46.52789" lon="0.16078">
        <ele>148.1</ele>
        <time>2020-05-30T17:07:47Z</time>
      </trkpt>
      <trkpt lat="46.52787" lon="0.16069">
        <ele>148.1</ele>
        <time>2020-05-30T17:07:48Z</time>
      </trkpt>
      <trkpt lat="46.52785" lon="0.16059">
        <ele>148</ele>
        <time>2020-05-30T17:07:49Z</time>
      </trkpt>
      <trkpt lat="46.52782" lon="0.1605">
        <ele>148</ele>
        <time>2020-05-30T17:07:50Z</time>
      </trkpt>
      <trkpt lat="46.5278" lon="0.1604">
        <ele>148</ele>
        <time>2020-05-30T17:07:51Z</time>
      </trkpt>
      <trkpt lat="46.52777" lon="0.16031">
        <ele>148</ele>
        <time>2020-05-30T17:07:52Z</time>
      </trkpt>
      <trkpt lat="46.52775" lon="0.16021">
        <ele>147.9</ele>
        <time>2020-05-30T17:07:53Z</time>
      </trkpt>
      <trkpt lat="46.52773" lon="0.16011">
        <ele>148</ele>
        <time>2020-05-30T17:07:54Z</time>
      </trkpt>
      <trkpt lat="46.5277" lon="0.16003">
        <ele>148</ele>
        <time>2020-05-30T17:07:55Z</time>
      </trkpt>
      <trkpt lat="46.52766" lon="0.15994">
        <ele>148</ele>
        <time>2020-05-30T17:07:56Z</time>
      </trkpt>
      <trkpt lat="46.52764" lon="0.15986">
        <ele>148</ele>
        <time>2020-05-30T17:07:57Z</time>
      </trkpt>
      <trkpt lat="46.52761" lon="0.15977">
        <ele>147.9</ele>
        <time>2020-05-30T17:07:58Z</time>
      </trkpt>
      <trkpt lat="46.52759" lon="0.15969">
        <ele>147.8</ele>
        <time>2020-05-30T17:07:59Z</time>
      </trkpt>
      <trkpt lat="46.52756" lon="0.15961">
        <ele>147.7</ele>
        <time>2020-05-30T17:08:00Z</time>
      </trkpt>
      <trkpt lat="46.52754" lon="0.15952">
        <ele>147.6</ele>
        <time>2020-05-30T17:08:01Z</time>
      </trkpt>
      <trkpt lat="46.52752" lon="0.15944">
        <ele>147.5</ele>
        <time>2020-05-30T17:08:02Z</time>
      </trkpt>
      <trkpt lat="46.5275" lon="0.15935">
        <ele>147.4</ele>
        <time>2020-05-30T17:08:03Z</time>
      </trkpt>
      <trkpt lat="46.52748" lon="0.15927">
        <ele>147.3</ele>
        <time>2020-05-30T17:08:04Z</time>
      </trkpt>
      <trkpt lat="46.52745" lon="0.15918">
        <ele>147.3</ele>
        <time>2020-05-30T17:08:05Z</time>
      </trkpt>
      <trkpt lat="46.52743" lon="0.1591">
        <ele>147.4</ele>
        <time>2020-05-30T17:08:06Z</time>
      </trkpt>
      <trkpt lat="46.5274" lon="0.15901">
        <ele>147.4</ele>
        <time>2020-05-30T17:08:07Z</time>
      </trkpt>
      <trkpt lat="46.52737" lon="0.15892">
        <ele>147.4</ele>
        <time>2020-05-30T17:08:08Z</time>
      </trkpt>
      <trkpt lat="46.52734" lon="0.15883">
        <ele>147.4</ele>
        <time>2020-05-30T17:08:09Z</time>
      </trkpt>
      <trkpt lat="46.52731" lon="0.15875">
        <ele>147.4</ele>
        <time>2020-05-30T17:08:10Z</time>
      </trkpt>
      <trkpt lat="46.52729" lon="0.15865">
        <ele>147.5</ele>
        <time>2020-05-30T17:08:11Z</time>
      </trkpt>
      <trkpt lat="46.52726" lon="0.15856">
        <ele>147.4</ele>
        <time>2020-05-30T17:08:12Z</time>
      </trkpt>
      <trkpt lat="46.52723" lon="0.15847">
        <ele>147.3</ele>
        <time>2020-05-30T17:08:13Z</time>
      </trkpt>
      <trkpt lat="46.5272" lon="0.15838">
        <ele>147.2</ele>
        <time>2020-05-30T17:08:14Z</time>
      </trkpt>
      <trkpt lat="46.52718" lon="0.15829">
        <ele>147.2</ele>
        <time>2020-05-30T17:08:15Z</time>
      </trkpt>
      <trkpt lat="46.52716" lon="0.15819">
        <ele>147.2</ele>
        <time>2020-05-30T17:08:16Z</time>
      </trkpt>
      <trkpt lat="46.52713" lon="0.1581">
        <ele>147.1</ele>
        <time>2020-05-30T17:08:17Z</time>
      </trkpt>
      <trkpt lat="46.5271" lon="0.15802">
        <ele>147.1</ele>
        <time>2020-05-30T17:08:18Z</time>
      </trkpt>
      <trkpt lat="46.52707" lon="0.15792">
        <ele>147</ele>
        <time>2020-05-30T17:08:19Z</time>
      </trkpt>
      <trkpt lat="46.52704" lon="0.15783">
        <ele>147</ele>
        <time>2020-05-30T17:08:20Z</time>
      </trkpt>
      <trkpt lat="46.52702" lon="0.15774">
        <ele>147</ele>
        <time>2020-05-30T17:08:21Z</time>
      </trkpt>
      <trkpt lat="46.52699" lon="0.15765">
        <ele>147</ele>
        <time>2020-05-30T17:08:22Z</time>
      </trkpt>
      <trkpt lat="46.52695" lon="0.15757">
        <ele>147</ele>
        <time>2020-05-30T17:08:23Z</time>
      </trkpt>
      <trkpt lat="46.52692" lon="0.15749">
        <ele>147</ele>
        <time>2020-05-30T17:08:24Z</time>
      </trkpt>
      <trkpt lat="46.52689" lon="0.1574">
        <ele>147</ele>
        <time>2020-05-30T17:08:25Z</time>
      </trkpt>
      <trkpt lat="46.52687" lon="0.15732">
        <ele>147</ele>
        <time>2020-05-30T17:08:26Z</time>
      </trkpt>
      <trkpt lat="46.52684" lon="0.15724">
        <ele>147</ele>
        <time>2020-05-30T17:08:27Z</time>
      </trkpt>
      <trkpt lat="46.52682" lon="0.15716">
        <ele>147</ele>
        <time>2020-05-30T17:08:28Z</time>
      </trkpt>
      <trkpt lat="46.52679" lon="0.15708">
        <ele>147</ele>
        <time>2020-05-30T17:08:29Z</time>
      </trkpt>
      <trkpt lat="46.52676" lon="0.157">
        <ele>147</ele>
        <time>2020-05-30T17:08:30Z</time>
      </trkpt>
      <trkpt lat="46.52673" lon="0.15691">
        <ele>147.1</ele>
        <time>2020-05-30T17:08:31Z</time>
      </trkpt>
      <trkpt lat="46.52671" lon="0.15683">
        <ele>147.1</ele>
        <time>2020-05-30T17:08:32Z</time>
      </trkpt>
      <trkpt lat="46.52668" lon="0.15674">
        <ele>147.1</ele>
        <time>2020-05-30T17:08:33Z</time>
      </trkpt>
      <trkpt lat="46.52666" lon="0.15665">
        <ele>147.1</ele>
        <time>2020-05-30T17:08:34Z</time>
      </trkpt>
      <trkpt lat="46.52663" lon="0.15657">
        <ele>147.1</ele>
        <time>2020-05-30T17:08:35Z</time>
      </trkpt>
      <trkpt lat="46.52659" lon="0.15648">
        <ele>147.1</ele>
        <time>2020-05-30T17:08:36Z</time>
      </trkpt>
      <trkpt lat="46.52657" lon="0.15639">
        <ele>147.1</ele>
        <time>2020-05-30T17:08:37Z</time>
      </trkpt>
      <trkpt lat="46.52654" lon="0.15631">
        <ele>147.2</ele>
        <time>2020-05-30T17:08:38Z</time>
      </trkpt>
      <trkpt lat="46.52651" lon="0.15622">
        <ele>147.2</ele>
        <time>2020-05-30T17:08:39Z</time>
      </trkpt>
      <trkpt lat="46.52648" lon="0.15613">
        <ele>147.2</ele>
        <time>2020-05-30T17:08:40Z</time>
      </trkpt>
      <trkpt lat="46.52646" lon="0.15604">
        <ele>147.2</ele>
        <time>2020-05-30T17:08:41Z</time>
      </trkpt>
      <trkpt lat="46.52643" lon="0.15595">
        <ele>147.3</ele>
        <time>2020-05-30T17:08:42Z</time>
      </trkpt>
      <trkpt lat="46.5264" lon="0.15585">
        <ele>147.3</ele>
        <time>2020-05-30T17:08:43Z</time>
      </trkpt>
      <trkpt lat="46.52637" lon="0.15576">
        <ele>147.4</ele>
        <time>2020-05-30T17:08:44Z</time>
      </trkpt>
      <trkpt lat="46.52633" lon="0.15568">
        <ele>147.4</ele>
        <time>2020-05-30T17:08:45Z</time>
      </trkpt>
      <trkpt lat="46.5263" lon="0.15558">
        <ele>147.5</ele>
        <time>2020-05-30T17:08:46Z</time>
      </trkpt>
      <trkpt lat="46.52627" lon="0.15549">
        <ele>147.5</ele>
        <time>2020-05-30T17:08:47Z</time>
      </trkpt>
      <trkpt lat="46.52623" lon="0.1554">
        <ele>147.6</ele>
        <time>2020-05-30T17:08:48Z</time>
      </trkpt>
      <trkpt lat="46.52621" lon="0.1553">
        <ele>147.6</ele>
        <time>2020-05-30T17:08:49Z</time>
      </trkpt>
      <trkpt lat="46.52617" lon="0.15521">
        <ele>147.6</ele>
        <time>2020-05-30T17:08:50Z</time>
      </trkpt>
      <trkpt lat="46.52615" lon="0.15511">
        <ele>147.6</ele>
        <time>2020-05-30T17:08:51Z</time>
      </trkpt>
      <trkpt lat="46.52612" lon="0.15501">
        <ele>147.6</ele>
        <time>2020-05-30T17:08:52Z</time>
      </trkpt>
      <trkpt lat="46.52609" lon="0.15492">
        <ele>147.6</ele>
        <time>2020-05-30T17:08:53Z</time>
      </trkpt>
      <trkpt lat="46.52606" lon="0.15483">
        <ele>147.6</ele>
        <time>2020-05-30T17:08:54Z</time>
      </trkpt>
      <trkpt lat="46.52603" lon="0.15473">
        <ele>147.7</ele>
        <time>2020-05-30T17:08:55Z</time>
      </trkpt>
      <trkpt lat="46.52601" lon="0.15463">
        <ele>147.7</ele>
        <time>2020-05-30T17:08:56Z</time>
      </trkpt>
      <trkpt lat="46.52598" lon="0.15454">
        <ele>147.7</ele>
        <time>2020-05-30T17:08:57Z</time>
      </trkpt>
      <trkpt lat="46.52595" lon="0.15445">
        <ele>147.7</ele>
        <time>2020-05-30T17:08:58Z</time>
      </trkpt>
      <trkpt lat="46.52592" lon="0.15436">
        <ele>147.7</ele>
        <time>2020-05-30T17:08:59Z</time>
      </trkpt>
      <trkpt lat="46.52589" lon="0.15428">
        <ele>147.8</ele>
        <time>2020-05-30T17:09:00Z</time>
      </trkpt>
      <trkpt lat="46.52585" lon="0.1542">
        <ele>147.8</ele>
        <time>2020-05-30T17:09:01Z</time>
      </trkpt>
      <trkpt lat="46.52581" lon="0.15412">
        <ele>147.9</ele>
        <time>2020-05-30T17:09:02Z</time>
      </trkpt>
      <trkpt lat="46.52577" lon="0.15404">
        <ele>147.9</ele>
        <time>2020-05-30T17:09:03Z</time>
      </trkpt>
      <trkpt lat="46.52572" lon="0.15396">
        <ele>147.9</ele>
        <time>2020-05-30T17:09:04Z</time>
      </trkpt>
      <trkpt lat="46.52568" lon="0.15389">
        <ele>147.9</ele>
        <time>2020-05-30T17:09:05Z</time>
      </trkpt>
      <trkpt lat="46.52563" lon="0.15382">
        <ele>147.9</ele>
        <time>2020-05-30T17:09:06Z</time>
      </trkpt>
      <trkpt lat="46.52558" lon="0.15375">
        <ele>147.9</ele>
        <time>2020-05-30T17:09:07Z</time>
      </trkpt>
      <trkpt lat="46.52553" lon="0.15368">
        <ele>147.9</ele>
        <time>2020-05-30T17:09:08Z</time>
      </trkpt>
      <trkpt lat="46.52549" lon="0.1536">
        <ele>147.9</ele>
        <time>2020-05-30T17:09:09Z</time>
      </trkpt>
      <trkpt lat="46.52544" lon="0.15353">
        <ele>147.9</ele>
        <time>2020-05-30T17:09:10Z</time>
      </trkpt>
      <trkpt lat="46.5254" lon="0.15346">
        <ele>148</ele>
        <time>2020-05-30T17:09:11Z</time>
      </trkpt>
      <trkpt lat="46.52535" lon="0.15338">
        <ele>148.1</ele>
        <time>2020-05-30T17:09:12Z</time>
      </trkpt>
      <trkpt lat="46.52531" lon="0.1533">
        <ele>148.2</ele>
        <time>2020-05-30T17:09:13Z</time>
      </trkpt>
      <trkpt lat="46.52527" lon="0.15322">
        <ele>148.3</ele>
        <time>2020-05-30T17:09:14Z</time>
      </trkpt>
      <trkpt lat="46.52522" lon="0.15315">
        <ele>148.4</ele>
        <time>2020-05-30T17:09:15Z</time>
      </trkpt>
      <trkpt lat="46.52518" lon="0.15307">
        <ele>148.5</ele>
        <time>2020-05-30T17:09:16Z</time>
      </trkpt>
      <trkpt lat="46.52514" lon="0.15299">
        <ele>148.6</ele>
        <time>2020-05-30T17:09:17Z</time>
      </trkpt>
      <trkpt lat="46.52509" lon="0.15291">
        <ele>148.7</ele>
        <time>2020-05-30T17:09:18Z</time>
      </trkpt>
      <trkpt lat="46.52505" lon="0.15283">
        <ele>148.7</ele>
        <time>2020-05-30T17:09:19Z</time>
      </trkpt>
      <trkpt lat="46.52501" lon="0.15275">
        <ele>148.7</ele>
        <time>2020-05-30T17:09:20Z</time>
      </trkpt>
      <trkpt lat="46.52498" lon="0.15266">
        <ele>148.7</ele>
        <time>2020-05-30T17:09:21Z</time>
      </trkpt>
      <trkpt lat="46.52494" lon="0.15257">
        <ele>148.7</ele>
        <time>2020-05-30T17:09:22Z</time>
      </trkpt>
      <trkpt lat="46.52491" lon="0.15248">
        <ele>148.7</ele>
        <time>2020-05-30T17:09:23Z</time>
      </trkpt>
      <trkpt lat="46.52487" lon="0.15239">
        <ele>148.6</ele>
        <time>2020-05-30T17:09:24Z</time>
      </trkpt>
      <trkpt lat="46.52484" lon="0.1523">
        <ele>148.6</ele>
        <time>2020-05-30T17:09:25Z</time>
      </trkpt>
      <trkpt lat="46.52481" lon="0.15221">
        <ele>148.6</ele>
        <time>2020-05-30T17:09:26Z</time>
      </trkpt>
      <trkpt lat="46.52477" lon="0.15212">
        <ele>148.6</ele>
        <time>2020-05-30T17:09:27Z</time>
      </trkpt>
      <trkpt lat="46.52474" lon="0.15202">
        <ele>148.6</ele>
        <time>2020-05-30T17:09:28Z</time>
      </trkpt>
      <trkpt lat="46.52471" lon="0.15193">
        <ele>148.6</ele>
        <time>2020-05-30T17:09:29Z</time>
      </trkpt>
      <trkpt lat="46.52467" lon="0.15184">
        <ele>148.6</ele>
        <time>2020-05-30T17:09:30Z</time>
      </trkpt>
      <trkpt lat="46.52464" lon="0.15175">
        <ele>148.6</ele>
        <time>2020-05-30T17:09:31Z</time>
      </trkpt>
      <trkpt lat="46.5246" lon="0.15166">
        <ele>148.6</ele>
        <time>2020-05-30T17:09:32Z</time>
      </trkpt>
      <trkpt lat="46.52457" lon="0.15157">
        <ele>148.6</ele>
        <time>2020-05-30T17:09:33Z</time>
      </trkpt>
      <trkpt lat="46.52453" lon="0.15149">
        <ele>148.6</ele>
        <time>2020-05-30T17:09:34Z</time>
      </trkpt>
      <trkpt lat="46.5245" lon="0.1514">
        <ele>148.6</ele>
        <time>2020-05-30T17:09:35Z</time>
      </trkpt>
      <trkpt lat="46.52447" lon="0.15132">
        <ele>148.6</ele>
        <time>2020-05-30T17:09:36Z</time>
      </trkpt>
      <trkpt lat="46.52444" lon="0.15123">
        <ele>148.6</ele>
        <time>2020-05-30T17:09:37Z</time>
      </trkpt>
      <trkpt lat="46.5244" lon="0.15115">
        <ele>148.7</ele>
        <time>2020-05-30T17:09:38Z</time>
      </trkpt>
      <trkpt lat="46.52437" lon="0.15107">
        <ele>148.7</ele>
        <time>2020-05-30T17:09:39Z</time>
      </trkpt>
      <trkpt lat="46.52433" lon="0.15099">
        <ele>148.7</ele>
        <time>2020-05-30T17:09:40Z</time>
      </trkpt>
      <trkpt lat="46.5243" lon="0.15091">
        <ele>148.7</ele>
        <time>2020-05-30T17:09:41Z</time>
      </trkpt>
      <trkpt lat="46.52428" lon="0.15083">
        <ele>148.7</ele>
        <time>2020-05-30T17:09:42Z</time>
      </trkpt>
      <trkpt lat="46.52425" lon="0.15075">
        <ele>148.7</ele>
        <time>2020-05-30T17:09:43Z</time>
      </trkpt>
      <trkpt lat="46.52422" lon="0.15067">
        <ele>148.7</ele>
        <time>2020-05-30T17:09:44Z</time>
      </trkpt>
      <trkpt lat="46.52419" lon="0.1506">
        <ele>148.7</ele>
        <time>2020-05-30T17:09:45Z</time>
      </trkpt>
      <trkpt lat="46.52416" lon="0.15052">
        <ele>148.8</ele>
        <time>2020-05-30T17:09:46Z</time>
      </trkpt>
      <trkpt lat="46.52412" lon="0.15046">
        <ele>148.8</ele>
        <time>2020-05-30T17:09:47Z</time>
      </trkpt>
      <trkpt lat="46.52409" lon="0.15039">
        <ele>148.7</ele>
        <time>2020-05-30T17:09:48Z</time>
      </trkpt>
      <trkpt lat="46.52407" lon="0.15031">
        <ele>148.7</ele>
        <time>2020-05-30T17:09:49Z</time>
      </trkpt>
      <trkpt lat="46.52404" lon="0.15023">
        <ele>148.7</ele>
        <time>2020-05-30T17:09:50Z</time>
      </trkpt>
      <trkpt lat="46.52401" lon="0.15016">
        <ele>148.7</ele>
        <time>2020-05-30T17:09:51Z</time>
      </trkpt>
      <trkpt lat="46.52398" lon="0.15009">
        <ele>148.7</ele>
        <time>2020-05-30T17:09:52Z</time>
      </trkpt>
      <trkpt lat="46.52396" lon="0.15001">
        <ele>148.7</ele>
        <time>2020-05-30T17:09:53Z</time>
      </trkpt>
      <trkpt lat="46.52394" lon="0.14993">
        <ele>148.6</ele>
        <time>2020-05-30T17:09:54Z</time>
      </trkpt>
      <trkpt lat="46.5239" lon="0.14986">
        <ele>148.5</ele>
        <time>2020-05-30T17:09:55Z</time>
      </trkpt>
      <trkpt lat="46.52388" lon="0.14978">
        <ele>148.4</ele>
        <time>2020-05-30T17:09:56Z</time>
      </trkpt>
      <trkpt lat="46.52386" lon="0.14971">
        <ele>148.3</ele>
        <time>2020-05-30T17:09:57Z</time>
      </trkpt>
      <trkpt lat="46.52384" lon="0.14963">
        <ele>148.2</ele>
        <time>2020-05-30T17:09:58Z</time>
      </trkpt>
      <trkpt lat="46.52381" lon="0.14956">
        <ele>148.1</ele>
        <time>2020-05-30T17:09:59Z</time>
      </trkpt>
      <trkpt lat="46.5238" lon="0.14948">
        <ele>148</ele>
        <time>2020-05-30T17:10:00Z</time>
      </trkpt>
      <trkpt lat="46.52376" lon="0.14942">
        <ele>147.9</ele>
        <time>2020-05-30T17:10:01Z</time>
      </trkpt>
      <trkpt lat="46.52374" lon="0.14934">
        <ele>147.8</ele>
        <time>2020-05-30T17:10:02Z</time>
      </trkpt>
      <trkpt lat="46.52374" lon="0.14925">
        <ele>147.8</ele>
        <time>2020-05-30T17:10:03Z</time>
      </trkpt>
      <trkpt lat="46.52374" lon="0.14916">
        <ele>147.8</ele>
        <time>2020-05-30T17:10:04Z</time>
      </trkpt>
      <trkpt lat="46.52374" lon="0.14907">
        <ele>147.8</ele>
        <time>2020-05-30T17:10:05Z</time>
      </trkpt>
      <trkpt lat="46.52373" lon="0.14898">
        <ele>147.8</ele>
        <time>2020-05-30T17:10:06Z</time>
      </trkpt>
      <trkpt lat="46.52372" lon="0.1489">
        <ele>147.8</ele>
        <time>2020-05-30T17:10:07Z</time>
      </trkpt>
      <trkpt lat="46.5237" lon="0.14881">
        <ele>147.8</ele>
        <time>2020-05-30T17:10:08Z</time>
      </trkpt>
      <trkpt lat="46.52371" lon="0.14873">
        <ele>147.9</ele>
        <time>2020-05-30T17:10:09Z</time>
      </trkpt>
      <trkpt lat="46.52371" lon="0.14864">
        <ele>147.9</ele>
        <time>2020-05-30T17:10:10Z</time>
      </trkpt>
      <trkpt lat="46.5237" lon="0.14856">
        <ele>147.9</ele>
        <time>2020-05-30T17:10:11Z</time>
      </trkpt>
      <trkpt lat="46.5237" lon="0.14847">
        <ele>147.8</ele>
        <time>2020-05-30T17:10:12Z</time>
      </trkpt>
      <trkpt lat="46.5237" lon="0.14839">
        <ele>147.8</ele>
        <time>2020-05-30T17:10:13Z</time>
      </trkpt>
      <trkpt lat="46.5237" lon="0.1483">
        <ele>147.7</ele>
        <time>2020-05-30T17:10:14Z</time>
      </trkpt>
      <trkpt lat="46.52369" lon="0.14821">
        <ele>147.7</ele>
        <time>2020-05-30T17:10:15Z</time>
      </trkpt>
      <trkpt lat="46.52368" lon="0.14812">
        <ele>147.6</ele>
        <time>2020-05-30T17:10:16Z</time>
      </trkpt>
      <trkpt lat="46.52368" lon="0.14802">
        <ele>147.5</ele>
        <time>2020-05-30T17:10:17Z</time>
      </trkpt>
      <trkpt lat="46.52366" lon="0.14794">
        <ele>147.5</ele>
        <time>2020-05-30T17:10:18Z</time>
      </trkpt>
      <trkpt lat="46.52366" lon="0.14785">
        <ele>147.4</ele>
        <time>2020-05-30T17:10:19Z</time>
      </trkpt>
      <trkpt lat="46.52366" lon="0.14776">
        <ele>147.4</ele>
        <time>2020-05-30T17:10:20Z</time>
      </trkpt>
      <trkpt lat="46.52366" lon="0.14768">
        <ele>147.3</ele>
        <time>2020-05-30T17:10:21Z</time>
      </trkpt>
      <trkpt lat="46.52365" lon="0.1476">
        <ele>147.3</ele>
        <time>2020-05-30T17:10:22Z</time>
      </trkpt>
      <trkpt lat="46.52364" lon="0.14751">
        <ele>147.3</ele>
        <time>2020-05-30T17:10:23Z</time>
      </trkpt>
      <trkpt lat="46.52363" lon="0.14743">
        <ele>147.2</ele>
        <time>2020-05-30T17:10:24Z</time>
      </trkpt>
      <trkpt lat="46.52363" lon="0.14735">
        <ele>147.1</ele>
        <time>2020-05-30T17:10:25Z</time>
      </trkpt>
      <trkpt lat="46.52362" lon="0.14726">
        <ele>147.1</ele>
        <time>2020-05-30T17:10:26Z</time>
      </trkpt>
      <trkpt lat="46.52361" lon="0.14718">
        <ele>147</ele>
        <time>2020-05-30T17:10:27Z</time>
      </trkpt>
      <trkpt lat="46.52361" lon="0.1471">
        <ele>147</ele>
        <time>2020-05-30T17:10:28Z</time>
      </trkpt>
      <trkpt lat="46.52361" lon="0.14702">
        <ele>146.9</ele>
        <time>2020-05-30T17:10:29Z</time>
      </trkpt>
      <trkpt lat="46.52361" lon="0.14694">
        <ele>146.9</ele>
        <time>2020-05-30T17:10:30Z</time>
      </trkpt>
      <trkpt lat="46.5236" lon="0.14687">
        <ele>146.8</ele>
        <time>2020-05-30T17:10:31Z</time>
      </trkpt>
      <trkpt lat="46.5236" lon="0.14679">
        <ele>146.8</ele>
        <time>2020-05-30T17:10:32Z</time>
      </trkpt>
      <trkpt lat="46.52361" lon="0.14671">
        <ele>146.8</ele>
        <time>2020-05-30T17:10:33Z</time>
      </trkpt>
      <trkpt lat="46.52361" lon="0.14663">
        <ele>146.8</ele>
        <time>2020-05-30T17:10:34Z</time>
      </trkpt>
      <trkpt lat="46.5236" lon="0.14655">
        <ele>146.8</ele>
        <time>2020-05-30T17:10:35Z</time>
      </trkpt>
      <trkpt lat="46.52359" lon="0.14646">
        <ele>146.8</ele>
        <time>2020-05-30T17:10:36Z</time>
      </trkpt>
      <trkpt lat="46.52358" lon="0.14636">
        <ele>146.7</ele>
        <time>2020-05-30T17:10:37Z</time>
      </trkpt>
      <trkpt lat="46.52357" lon="0.14627">
        <ele>146.7</ele>
        <time>2020-05-30T17:10:38Z</time>
      </trkpt>
      <trkpt lat="46.52356" lon="0.14617">
        <ele>146.6</ele>
        <time>2020-05-30T17:10:39Z</time>
      </trkpt>
      <trkpt lat="46.52356" lon="0.14607">
        <ele>146.6</ele>
        <time>2020-05-30T17:10:40Z</time>
      </trkpt>
      <trkpt lat="46.52355" lon="0.14597">
        <ele>146.5</ele>
        <time>2020-05-30T17:10:41Z</time>
      </trkpt>
      <trkpt lat="46.52355" lon="0.14588">
        <ele>146.4</ele>
        <time>2020-05-30T17:10:42Z</time>
      </trkpt>
      <trkpt lat="46.52354" lon="0.14578">
        <ele>146.4</ele>
        <time>2020-05-30T17:10:43Z</time>
      </trkpt>
      <trkpt lat="46.52354" lon="0.14569">
        <ele>146.3</ele>
        <time>2020-05-30T17:10:44Z</time>
      </trkpt>
      <trkpt lat="46.52353" lon="0.14559">
        <ele>146.2</ele>
        <time>2020-05-30T17:10:45Z</time>
      </trkpt>
      <trkpt lat="46.52355" lon="0.1455">
        <ele>146.2</ele>
        <time>2020-05-30T17:10:46Z</time>
      </trkpt>
      <trkpt lat="46.52354" lon="0.1454">
        <ele>146.1</ele>
        <time>2020-05-30T17:10:47Z</time>
      </trkpt>
      <trkpt lat="46.52353" lon="0.14531">
        <ele>146.1</ele>
        <time>2020-05-30T17:10:48Z</time>
      </trkpt>
      <trkpt lat="46.52352" lon="0.14521">
        <ele>146</ele>
        <time>2020-05-30T17:10:49Z</time>
      </trkpt>
      <trkpt lat="46.52351" lon="0.14512">
        <ele>146</ele>
        <time>2020-05-30T17:10:50Z</time>
      </trkpt>
      <trkpt lat="46.5235" lon="0.14502">
        <ele>146</ele>
        <time>2020-05-30T17:10:51Z</time>
      </trkpt>
      <trkpt lat="46.5235" lon="0.14492">
        <ele>146</ele>
        <time>2020-05-30T17:10:52Z</time>
      </trkpt>
      <trkpt lat="46.5235" lon="0.14481">
        <ele>146</ele>
        <time>2020-05-30T17:10:53Z</time>
      </trkpt>
      <trkpt lat="46.52349" lon="0.14471">
        <ele>146</ele>
        <time>2020-05-30T17:10:54Z</time>
      </trkpt>
      <trkpt lat="46.52349" lon="0.1446">
        <ele>146</ele>
        <time>2020-05-30T17:10:55Z</time>
      </trkpt>
      <trkpt lat="46.52349" lon="0.14449">
        <ele>146</ele>
        <time>2020-05-30T17:10:56Z</time>
      </trkpt>
      <trkpt lat="46.52348" lon="0.14439">
        <ele>146</ele>
        <time>2020-05-30T17:10:57Z</time>
      </trkpt>
      <trkpt lat="46.52347" lon="0.14428">
        <ele>146</ele>
        <time>2020-05-30T17:10:58Z</time>
      </trkpt>
      <trkpt lat="46.52346" lon="0.14417">
        <ele>146</ele>
        <time>2020-05-30T17:10:59Z</time>
      </trkpt>
      <trkpt lat="46.52345" lon="0.14407">
        <ele>146</ele>
        <time>2020-05-30T17:11:00Z</time>
      </trkpt>
      <trkpt lat="46.52344" lon="0.14397">
        <ele>146.1</ele>
        <time>2020-05-30T17:11:01Z</time>
      </trkpt>
      <trkpt lat="46.52343" lon="0.14387">
        <ele>146.1</ele>
        <time>2020-05-30T17:11:02Z</time>
      </trkpt>
      <trkpt lat="46.52343" lon="0.14377">
        <ele>146.1</ele>
        <time>2020-05-30T17:11:03Z</time>
      </trkpt>
      <trkpt lat="46.52342" lon="0.14367">
        <ele>146.1</ele>
        <time>2020-05-30T17:11:04Z</time>
      </trkpt>
      <trkpt lat="46.52341" lon="0.14357">
        <ele>146.2</ele>
        <time>2020-05-30T17:11:05Z</time>
      </trkpt>
      <trkpt lat="46.52341" lon="0.14347">
        <ele>146.2</ele>
        <time>2020-05-30T17:11:06Z</time>
      </trkpt>
      <trkpt lat="46.5234" lon="0.14338">
        <ele>146.3</ele>
        <time>2020-05-30T17:11:07Z</time>
      </trkpt>
      <trkpt lat="46.52339" lon="0.14328">
        <ele>146.3</ele>
        <time>2020-05-30T17:11:08Z</time>
      </trkpt>
      <trkpt lat="46.52339" lon="0.14318">
        <ele>146.4</ele>
        <time>2020-05-30T17:11:09Z</time>
      </trkpt>
      <trkpt lat="46.52339" lon="0.14309">
        <ele>146.5</ele>
        <time>2020-05-30T17:11:10Z</time>
      </trkpt>
      <trkpt lat="46.52338" lon="0.14299">
        <ele>146.5</ele>
        <time>2020-05-30T17:11:11Z</time>
      </trkpt>
      <trkpt lat="46.52337" lon="0.14289">
        <ele>146.6</ele>
        <time>2020-05-30T17:11:12Z</time>
      </trkpt>
      <trkpt lat="46.52336" lon="0.14279">
        <ele>146.6</ele>
        <time>2020-05-30T17:11:13Z</time>
      </trkpt>
      <trkpt lat="46.52336" lon="0.1427">
        <ele>146.7</ele>
        <time>2020-05-30T17:11:14Z</time>
      </trkpt>
      <trkpt lat="46.52335" lon="0.1426">
        <ele>146.8</ele>
        <time>2020-05-30T17:11:15Z</time>
      </trkpt>
      <trkpt lat="46.52334" lon="0.1425">
        <ele>146.9</ele>
        <time>2020-05-30T17:11:16Z</time>
      </trkpt>
      <trkpt lat="46.52333" lon="0.14241">
        <ele>146.9</ele>
        <time>2020-05-30T17:11:17Z</time>
      </trkpt>
      <trkpt lat="46.52332" lon="0.14231">
        <ele>147</ele>
        <time>2020-05-30T17:11:18Z</time>
      </trkpt>
      <trkpt lat="46.52332" lon="0.14222">
        <ele>147.1</ele>
        <time>2020-05-30T17:11:19Z</time>
      </trkpt>
      <trkpt lat="46.52331" lon="0.14213">
        <ele>147.2</ele>
        <time>2020-05-30T17:11:20Z</time>
      </trkpt>
      <trkpt lat="46.5233" lon="0.14203">
        <ele>147.3</ele>
        <time>2020-05-30T17:11:21Z</time>
      </trkpt>
      <trkpt lat="46.5233" lon="0.14194">
        <ele>147.4</ele>
        <time>2020-05-30T17:11:22Z</time>
      </trkpt>
      <trkpt lat="46.52331" lon="0.14185">
        <ele>147.5</ele>
        <time>2020-05-30T17:11:23Z</time>
      </trkpt>
      <trkpt lat="46.5233" lon="0.14176">
        <ele>147.6</ele>
        <time>2020-05-30T17:11:24Z</time>
      </trkpt>
      <trkpt lat="46.52329" lon="0.14167">
        <ele>147.7</ele>
        <time>2020-05-30T17:11:25Z</time>
      </trkpt>
      <trkpt lat="46.52329" lon="0.14158">
        <ele>147.8</ele>
        <time>2020-05-30T17:11:26Z</time>
      </trkpt>
      <trkpt lat="46.52327" lon="0.14149">
        <ele>147.9</ele>
        <time>2020-05-30T17:11:27Z</time>
      </trkpt>
      <trkpt lat="46.52327" lon="0.14141">
        <ele>148</ele>
        <time>2020-05-30T17:11:28Z</time>
      </trkpt>
      <trkpt lat="46.52327" lon="0.14132">
        <ele>148.1</ele>
        <time>2020-05-30T17:11:29Z</time>
      </trkpt>
      <trkpt lat="46.52327" lon="0.14123">
        <ele>148.2</ele>
        <time>2020-05-30T17:11:30Z</time>
      </trkpt>
      <trkpt lat="46.52327" lon="0.14114">
        <ele>148.3</ele>
        <time>2020-05-30T17:11:31Z</time>
      </trkpt>
      <trkpt lat="46.52326" lon="0.14105">
        <ele>148.4</ele>
        <time>2020-05-30T17:11:32Z</time>
      </trkpt>
      <trkpt lat="46.52326" lon="0.14096">
        <ele>148.5</ele>
        <time>2020-05-30T17:11:33Z</time>
      </trkpt>
      <trkpt lat="46.52327" lon="0.14087">
        <ele>148.6</ele>
        <time>2020-05-30T17:11:34Z</time>
      </trkpt>
      <trkpt lat="46.52327" lon="0.14079">
        <ele>148.7</ele>
        <time>2020-05-30T17:11:35Z</time>
      </trkpt>
      <trkpt lat="46.52327" lon="0.1407">
        <ele>148.7</ele>
        <time>2020-05-30T17:11:36Z</time>
      </trkpt>
      <trkpt lat="46.52328" lon="0.14061">
        <ele>148.8</ele>
        <time>2020-05-30T17:11:37Z</time>
      </trkpt>
      <trkpt lat="46.52329" lon="0.14053">
        <ele>148.8</ele>
        <time>2020-05-30T17:11:38Z</time>
      </trkpt>
      <trkpt lat="46.5233" lon="0.14044">
        <ele>148.8</ele>
        <time>2020-05-30T17:11:39Z</time>
      </trkpt>
      <trkpt lat="46.5233" lon="0.14035">
        <ele>148.8</ele>
        <time>2020-05-30T17:11:40Z</time>
      </trkpt>
      <trkpt lat="46.52331" lon="0.14027">
        <ele>148.8</ele>
        <time>2020-05-30T17:11:41Z</time>
      </trkpt>
      <trkpt lat="46.52332" lon="0.14018">
        <ele>148.7</ele>
        <time>2020-05-30T17:11:42Z</time>
      </trkpt>
      <trkpt lat="46.5233" lon="0.14009">
        <ele>148.7</ele>
        <time>2020-05-30T17:11:43Z</time>
      </trkpt>
      <trkpt lat="46.5233" lon="0.14001">
        <ele>148.7</ele>
        <time>2020-05-30T17:11:44Z</time>
      </trkpt>
      <trkpt lat="46.52331" lon="0.13993">
        <ele>148.7</ele>
        <time>2020-05-30T17:11:45Z</time>
      </trkpt>
      <trkpt lat="46.52331" lon="0.13984">
        <ele>148.7</ele>
        <time>2020-05-30T17:11:46Z</time>
      </trkpt>
      <trkpt lat="46.52331" lon="0.13976">
        <ele>148.7</ele>
        <time>2020-05-30T17:11:47Z</time>
      </trkpt>
      <trkpt lat="46.5233" lon="0.13966">
        <ele>148.7</ele>
        <time>2020-05-30T17:11:48Z</time>
      </trkpt>
      <trkpt lat="46.52331" lon="0.13957">
        <ele>148.7</ele>
        <time>2020-05-30T17:11:49Z</time>
      </trkpt>
      <trkpt lat="46.52331" lon="0.13947">
        <ele>148.7</ele>
        <time>2020-05-30T17:11:50Z</time>
      </trkpt>
      <trkpt lat="46.52331" lon="0.13938">
        <ele>148.8</ele>
        <time>2020-05-30T17:11:51Z</time>
      </trkpt>
      <trkpt lat="46.52331" lon="0.13927">
        <ele>148.7</ele>
        <time>2020-05-30T17:11:52Z</time>
      </trkpt>
      <trkpt lat="46.52331" lon="0.13921">
        <ele>148.7</ele>
        <time>2020-05-30T17:11:53Z</time>
      </trkpt>
      <trkpt lat="46.52329" lon="0.13911">
        <ele>148.7</ele>
        <time>2020-05-30T17:11:54Z</time>
      </trkpt>
      <trkpt lat="46.52328" lon="0.13902">
        <ele>148.7</ele>
        <time>2020-05-30T17:11:55Z</time>
      </trkpt>
      <trkpt lat="46.52325" lon="0.13894">
        <ele>148.7</ele>
        <time>2020-05-30T17:11:56Z</time>
      </trkpt>
      <trkpt lat="46.52322" lon="0.13886">
        <ele>148.7</ele>
        <time>2020-05-30T17:11:57Z</time>
      </trkpt>
      <trkpt lat="46.52319" lon="0.13878">
        <ele>148.7</ele>
        <time>2020-05-30T17:11:58Z</time>
      </trkpt>
      <trkpt lat="46.52316" lon="0.13869">
        <ele>148.6</ele>
        <time>2020-05-30T17:11:59Z</time>
      </trkpt>
      <trkpt lat="46.52313" lon="0.1386">
        <ele>148.6</ele>
        <time>2020-05-30T17:12:00Z</time>
      </trkpt>
      <trkpt lat="46.5231" lon="0.13853">
        <ele>148.6</ele>
        <time>2020-05-30T17:12:01Z</time>
      </trkpt>
      <trkpt lat="46.52307" lon="0.13845">
        <ele>148.6</ele>
        <time>2020-05-30T17:12:02Z</time>
      </trkpt>
      <trkpt lat="46.52304" lon="0.13837">
        <ele>148.6</ele>
        <time>2020-05-30T17:12:03Z</time>
      </trkpt>
      <trkpt lat="46.52301" lon="0.13828">
        <ele>148.6</ele>
        <time>2020-05-30T17:12:04Z</time>
      </trkpt>
      <trkpt lat="46.52297" lon="0.13819">
        <ele>148.6</ele>
        <time>2020-05-30T17:12:05Z</time>
      </trkpt>
      <trkpt lat="46.52295" lon="0.13812">
        <ele>148.6</ele>
        <time>2020-05-30T17:12:06Z</time>
      </trkpt>
      <trkpt lat="46.52291" lon="0.13804">
        <ele>148.6</ele>
        <time>2020-05-30T17:12:07Z</time>
      </trkpt>
      <trkpt lat="46.52288" lon="0.13795">
        <ele>148.6</ele>
        <time>2020-05-30T17:12:08Z</time>
      </trkpt>
      <trkpt lat="46.52284" lon="0.13786">
        <ele>148.6</ele>
        <time>2020-05-30T17:12:09Z</time>
      </trkpt>
      <trkpt lat="46.52281" lon="0.13777">
        <ele>148.6</ele>
        <time>2020-05-30T17:12:10Z</time>
      </trkpt>
      <trkpt lat="46.52278" lon="0.13769">
        <ele>148.6</ele>
        <time>2020-05-30T17:12:11Z</time>
      </trkpt>
      <trkpt lat="46.52275" lon="0.13762">
        <ele>148.6</ele>
        <time>2020-05-30T17:12:12Z</time>
      </trkpt>
      <trkpt lat="46.52272" lon="0.13755">
        <ele>148.6</ele>
        <time>2020-05-30T17:12:13Z</time>
      </trkpt>
      <trkpt lat="46.52269" lon="0.13747">
        <ele>148.6</ele>
        <time>2020-05-30T17:12:14Z</time>
      </trkpt>
      <trkpt lat="46.52266" lon="0.1374">
        <ele>148.6</ele>
        <time>2020-05-30T17:12:15Z</time>
      </trkpt>
      <trkpt lat="46.52263" lon="0.13733">
        <ele>148.6</ele>
        <time>2020-05-30T17:12:16Z</time>
      </trkpt>
      <trkpt lat="46.5226" lon="0.13726">
        <ele>148.6</ele>
        <time>2020-05-30T17:12:17Z</time>
      </trkpt>
      <trkpt lat="46.52258" lon="0.13718">
        <ele>148.6</ele>
        <time>2020-05-30T17:12:18Z</time>
      </trkpt>
      <trkpt lat="46.52255" lon="0.13711">
        <ele>148.6</ele>
        <time>2020-05-30T17:12:19Z</time>
      </trkpt>
      <trkpt lat="46.52252" lon="0.13704">
        <ele>148.6</ele>
        <time>2020-05-30T17:12:20Z</time>
      </trkpt>
      <trkpt lat="46.52249" lon="0.13696">
        <ele>148.6</ele>
        <time>2020-05-30T17:12:21Z</time>
      </trkpt>
      <trkpt lat="46.52247" lon="0.13689">
        <ele>148.6</ele>
        <time>2020-05-30T17:12:22Z</time>
      </trkpt>
      <trkpt lat="46.52244" lon="0.13681">
        <ele>148.6</ele>
        <time>2020-05-30T17:12:23Z</time>
      </trkpt>
      <trkpt lat="46.52242" lon="0.13673">
        <ele>148.6</ele>
        <time>2020-05-30T17:12:24Z</time>
      </trkpt>
      <trkpt lat="46.52239" lon="0.13666">
        <ele>148.7</ele>
        <time>2020-05-30T17:12:25Z</time>
      </trkpt>
      <trkpt lat="46.52237" lon="0.13658">
        <ele>148.7</ele>
        <time>2020-05-30T17:12:26Z</time>
      </trkpt>
      <trkpt lat="46.52233" lon="0.13651">
        <ele>148.7</ele>
        <time>2020-05-30T17:12:27Z</time>
      </trkpt>
      <trkpt lat="46.5223" lon="0.13643">
        <ele>148.7</ele>
        <time>2020-05-30T17:12:28Z</time>
      </trkpt>
      <trkpt lat="46.52228" lon="0.13635">
        <ele>148.7</ele>
        <time>2020-05-30T17:12:29Z</time>
      </trkpt>
      <trkpt lat="46.52224" lon="0.13628">
        <ele>148.7</ele>
        <time>2020-05-30T17:12:30Z</time>
      </trkpt>
      <trkpt lat="46.5222" lon="0.13621">
        <ele>148.7</ele>
        <time>2020-05-30T17:12:31Z</time>
      </trkpt>
      <trkpt lat="46.52217" lon="0.13613">
        <ele>148.7</ele>
        <time>2020-05-30T17:12:32Z</time>
      </trkpt>
      <trkpt lat="46.52214" lon="0.13606">
        <ele>148.7</ele>
        <time>2020-05-30T17:12:33Z</time>
      </trkpt>
      <trkpt lat="46.5221" lon="0.13599">
        <ele>148.7</ele>
        <time>2020-05-30T17:12:34Z</time>
      </trkpt>
      <trkpt lat="46.52207" lon="0.13591">
        <ele>148.7</ele>
        <time>2020-05-30T17:12:35Z</time>
      </trkpt>
      <trkpt lat="46.52204" lon="0.13583">
        <ele>148.8</ele>
        <time>2020-05-30T17:12:36Z</time>
      </trkpt>
      <trkpt lat="46.52202" lon="0.13576">
        <ele>148.8</ele>
        <time>2020-05-30T17:12:37Z</time>
      </trkpt>
      <trkpt lat="46.522" lon="0.13567">
        <ele>148.8</ele>
        <time>2020-05-30T17:12:38Z</time>
      </trkpt>
      <trkpt lat="46.52197" lon="0.13559">
        <ele>148.8</ele>
        <time>2020-05-30T17:12:39Z</time>
      </trkpt>
      <trkpt lat="46.52194" lon="0.13551">
        <ele>148.8</ele>
        <time>2020-05-30T17:12:40Z</time>
      </trkpt>
      <trkpt lat="46.52191" lon="0.13543">
        <ele>148.9</ele>
        <time>2020-05-30T17:12:41Z</time>
      </trkpt>
      <trkpt lat="46.52188" lon="0.13535">
        <ele>148.9</ele>
        <time>2020-05-30T17:12:42Z</time>
      </trkpt>
      <trkpt lat="46.52184" lon="0.13527">
        <ele>148.9</ele>
        <time>2020-05-30T17:12:43Z</time>
      </trkpt>
      <trkpt lat="46.52181" lon="0.13519">
        <ele>148.9</ele>
        <time>2020-05-30T17:12:44Z</time>
      </trkpt>
      <trkpt lat="46.52178" lon="0.1351">
        <ele>148.9</ele>
        <time>2020-05-30T17:12:45Z</time>
      </trkpt>
      <trkpt lat="46.52175" lon="0.13502">
        <ele>148.9</ele>
        <time>2020-05-30T17:12:46Z</time>
      </trkpt>
      <trkpt lat="46.52171" lon="0.13494">
        <ele>149</ele>
        <time>2020-05-30T17:12:47Z</time>
      </trkpt>
      <trkpt lat="46.52168" lon="0.13486">
        <ele>149</ele>
        <time>2020-05-30T17:12:48Z</time>
      </trkpt>
      <trkpt lat="46.52165" lon="0.13478">
        <ele>149</ele>
        <time>2020-05-30T17:12:49Z</time>
      </trkpt>
      <trkpt lat="46.52161" lon="0.1347">
        <ele>149</ele>
        <time>2020-05-30T17:12:50Z</time>
      </trkpt>
      <trkpt lat="46.52158" lon="0.13461">
        <ele>149</ele>
        <time>2020-05-30T17:12:51Z</time>
      </trkpt>
      <trkpt lat="46.52155" lon="0.13453">
        <ele>149.1</ele>
        <time>2020-05-30T17:12:52Z</time>
      </trkpt>
      <trkpt lat="46.52152" lon="0.13444">
        <ele>149.1</ele>
        <time>2020-05-30T17:12:53Z</time>
      </trkpt>
      <trkpt lat="46.52149" lon="0.13436">
        <ele>149.2</ele>
        <time>2020-05-30T17:12:54Z</time>
      </trkpt>
      <trkpt lat="46.52146" lon="0.13427">
        <ele>149.2</ele>
        <time>2020-05-30T17:12:55Z</time>
      </trkpt>
      <trkpt lat="46.52143" lon="0.13419">
        <ele>149.2</ele>
        <time>2020-05-30T17:12:56Z</time>
      </trkpt>
      <trkpt lat="46.5214" lon="0.1341">
        <ele>149.3</ele>
        <time>2020-05-30T17:12:57Z</time>
      </trkpt>
      <trkpt lat="46.52137" lon="0.13402">
        <ele>149.3</ele>
        <time>2020-05-30T17:12:58Z</time>
      </trkpt>
      <trkpt lat="46.52134" lon="0.13393">
        <ele>149.3</ele>
        <time>2020-05-30T17:12:59Z</time>
      </trkpt>
      <trkpt lat="46.52131" lon="0.13385">
        <ele>149.3</ele>
        <time>2020-05-30T17:13:00Z</time>
      </trkpt>
      <trkpt lat="46.52127" lon="0.13377">
        <ele>149.3</ele>
        <time>2020-05-30T17:13:01Z</time>
      </trkpt>
      <trkpt lat="46.52124" lon="0.13368">
        <ele>149.3</ele>
        <time>2020-05-30T17:13:02Z</time>
      </trkpt>
      <trkpt lat="46.5212" lon="0.1336">
        <ele>149.3</ele>
        <time>2020-05-30T17:13:03Z</time>
      </trkpt>
      <trkpt lat="46.52117" lon="0.13351">
        <ele>149.3</ele>
        <time>2020-05-30T17:13:04Z</time>
      </trkpt>
      <trkpt lat="46.52114" lon="0.13343">
        <ele>149.3</ele>
        <time>2020-05-30T17:13:05Z</time>
      </trkpt>
      <trkpt lat="46.52111" lon="0.13334">
        <ele>149.3</ele>
        <time>2020-05-30T17:13:06Z</time>
      </trkpt>
      <trkpt lat="46.52108" lon="0.13325">
        <ele>149.3</ele>
        <time>2020-05-30T17:13:07Z</time>
      </trkpt>
      <trkpt lat="46.52105" lon="0.13317">
        <ele>149.2</ele>
        <time>2020-05-30T17:13:08Z</time>
      </trkpt>
      <trkpt lat="46.52102" lon="0.13308">
        <ele>149.2</ele>
        <time>2020-05-30T17:13:09Z</time>
      </trkpt>
      <trkpt lat="46.52099" lon="0.13299">
        <ele>149.1</ele>
        <time>2020-05-30T17:13:10Z</time>
      </trkpt>
      <trkpt lat="46.52097" lon="0.1329">
        <ele>149.1</ele>
        <time>2020-05-30T17:13:11Z</time>
      </trkpt>
      <trkpt lat="46.52095" lon="0.13281">
        <ele>149.1</ele>
        <time>2020-05-30T17:13:12Z</time>
      </trkpt>
      <trkpt lat="46.52093" lon="0.13271">
        <ele>149</ele>
        <time>2020-05-30T17:13:13Z</time>
      </trkpt>
      <trkpt lat="46.52093" lon="0.13261">
        <ele>149</ele>
        <time>2020-05-30T17:13:14Z</time>
      </trkpt>
      <trkpt lat="46.52092" lon="0.13252">
        <ele>149</ele>
        <time>2020-05-30T17:13:15Z</time>
      </trkpt>
      <trkpt lat="46.52092" lon="0.13242">
        <ele>148.9</ele>
        <time>2020-05-30T17:13:16Z</time>
      </trkpt>
      <trkpt lat="46.52091" lon="0.13232">
        <ele>148.9</ele>
        <time>2020-05-30T17:13:17Z</time>
      </trkpt>
      <trkpt lat="46.52091" lon="0.13222">
        <ele>148.9</ele>
        <time>2020-05-30T17:13:18Z</time>
      </trkpt>
      <trkpt lat="46.52091" lon="0.13211">
        <ele>148.8</ele>
        <time>2020-05-30T17:13:19Z</time>
      </trkpt>
      <trkpt lat="46.5209" lon="0.13201">
        <ele>148.8</ele>
        <time>2020-05-30T17:13:20Z</time>
      </trkpt>
      <trkpt lat="46.5209" lon="0.13191">
        <ele>148.7</ele>
        <time>2020-05-30T17:13:21Z</time>
      </trkpt>
      <trkpt lat="46.52089" lon="0.13182">
        <ele>148.6</ele>
        <time>2020-05-30T17:13:22Z</time>
      </trkpt>
      <trkpt lat="46.52087" lon="0.13172">
        <ele>148.5</ele>
        <time>2020-05-30T17:13:23Z</time>
      </trkpt>
      <trkpt lat="46.52086" lon="0.13162">
        <ele>148.5</ele>
        <time>2020-05-30T17:13:24Z</time>
      </trkpt>
      <trkpt lat="46.52085" lon="0.13151">
        <ele>148.4</ele>
        <time>2020-05-30T17:13:25Z</time>
      </trkpt>
      <trkpt lat="46.52084" lon="0.13141">
        <ele>148.2</ele>
        <time>2020-05-30T17:13:26Z</time>
      </trkpt>
      <trkpt lat="46.52084" lon="0.13131">
        <ele>148.1</ele>
        <time>2020-05-30T17:13:27Z</time>
      </trkpt>
      <trkpt lat="46.52083" lon="0.1312">
        <ele>147.9</ele>
        <time>2020-05-30T17:13:28Z</time>
      </trkpt>
      <trkpt lat="46.52082" lon="0.1311">
        <ele>147.7</ele>
        <time>2020-05-30T17:13:29Z</time>
      </trkpt>
      <trkpt lat="46.52081" lon="0.131">
        <ele>147.6</ele>
        <time>2020-05-30T17:13:30Z</time>
      </trkpt>
      <trkpt lat="46.5208" lon="0.13089">
        <ele>147.5</ele>
        <time>2020-05-30T17:13:31Z</time>
      </trkpt>
      <trkpt lat="46.52079" lon="0.13079">
        <ele>147.5</ele>
        <time>2020-05-30T17:13:32Z</time>
      </trkpt>
      <trkpt lat="46.52078" lon="0.13068">
        <ele>147.5</ele>
        <time>2020-05-30T17:13:33Z</time>
      </trkpt>
      <trkpt lat="46.52077" lon="0.13058">
        <ele>147.3</ele>
        <time>2020-05-30T17:13:34Z</time>
      </trkpt>
      <trkpt lat="46.52076" lon="0.13048">
        <ele>147.2</ele>
        <time>2020-05-30T17:13:35Z</time>
      </trkpt>
      <trkpt lat="46.52075" lon="0.13037">
        <ele>147</ele>
        <time>2020-05-30T17:13:36Z</time>
      </trkpt>
      <trkpt lat="46.52073" lon="0.13027">
        <ele>146.9</ele>
        <time>2020-05-30T17:13:37Z</time>
      </trkpt>
      <trkpt lat="46.52071" lon="0.13016">
        <ele>146.8</ele>
        <time>2020-05-30T17:13:38Z</time>
      </trkpt>
      <trkpt lat="46.52069" lon="0.13006">
        <ele>146.6</ele>
        <time>2020-05-30T17:13:39Z</time>
      </trkpt>
      <trkpt lat="46.52066" lon="0.12996">
        <ele>146.5</ele>
        <time>2020-05-30T17:13:40Z</time>
      </trkpt>
      <trkpt lat="46.52064" lon="0.12986">
        <ele>146.3</ele>
        <time>2020-05-30T17:13:41Z</time>
      </trkpt>
      <trkpt lat="46.5206" lon="0.12975">
        <ele>146</ele>
        <time>2020-05-30T17:13:42Z</time>
      </trkpt>
      <trkpt lat="46.52057" lon="0.12965">
        <ele>145.8</ele>
        <time>2020-05-30T17:13:43Z</time>
      </trkpt>
      <trkpt lat="46.52053" lon="0.12956">
        <ele>145.6</ele>
        <time>2020-05-30T17:13:44Z</time>
      </trkpt>
      <trkpt lat="46.52048" lon="0.12947">
        <ele>145.4</ele>
        <time>2020-05-30T17:13:45Z</time>
      </trkpt>
      <trkpt lat="46.52043" lon="0.12938">
        <ele>145.1</ele>
        <time>2020-05-30T17:13:46Z</time>
      </trkpt>
      <trkpt lat="46.52038" lon="0.12929">
        <ele>145</ele>
        <time>2020-05-30T17:13:47Z</time>
      </trkpt>
      <trkpt lat="46.52032" lon="0.1292">
        <ele>144.8</ele>
        <time>2020-05-30T17:13:48Z</time>
      </trkpt>
      <trkpt lat="46.52027" lon="0.12912">
        <ele>144.6</ele>
        <time>2020-05-30T17:13:49Z</time>
      </trkpt>
      <trkpt lat="46.52022" lon="0.12902">
        <ele>144.4</ele>
        <time>2020-05-30T17:13:50Z</time>
      </trkpt>
      <trkpt lat="46.52016" lon="0.12894">
        <ele>144.2</ele>
        <time>2020-05-30T17:13:51Z</time>
      </trkpt>
      <trkpt lat="46.52011" lon="0.12885">
        <ele>144.1</ele>
        <time>2020-05-30T17:13:52Z</time>
      </trkpt>
      <trkpt lat="46.52005" lon="0.12875">
        <ele>143.9</ele>
        <time>2020-05-30T17:13:53Z</time>
      </trkpt>
      <trkpt lat="46.52001" lon="0.12865">
        <ele>143.8</ele>
        <time>2020-05-30T17:13:54Z</time>
      </trkpt>
      <trkpt lat="46.51995" lon="0.12855">
        <ele>143.6</ele>
        <time>2020-05-30T17:13:55Z</time>
      </trkpt>
      <trkpt lat="46.5199" lon="0.12845">
        <ele>143.5</ele>
        <time>2020-05-30T17:13:56Z</time>
      </trkpt>
      <trkpt lat="46.51985" lon="0.12834">
        <ele>143.4</ele>
        <time>2020-05-30T17:13:57Z</time>
      </trkpt>
      <trkpt lat="46.51981" lon="0.12824">
        <ele>143.3</ele>
        <time>2020-05-30T17:13:58Z</time>
      </trkpt>
      <trkpt lat="46.51977" lon="0.12813">
        <ele>143.2</ele>
        <time>2020-05-30T17:13:59Z</time>
      </trkpt>
      <trkpt lat="46.51973" lon="0.12802">
        <ele>143.1</ele>
        <time>2020-05-30T17:14:00Z</time>
      </trkpt>
      <trkpt lat="46.51971" lon="0.12792">
        <ele>143</ele>
        <time>2020-05-30T17:14:01Z</time>
      </trkpt>
      <trkpt lat="46.51968" lon="0.12781">
        <ele>142.9</ele>
        <time>2020-05-30T17:14:02Z</time>
      </trkpt>
      <trkpt lat="46.51967" lon="0.12769">
        <ele>142.9</ele>
        <time>2020-05-30T17:14:03Z</time>
      </trkpt>
      <trkpt lat="46.51965" lon="0.12758">
        <ele>142.9</ele>
        <time>2020-05-30T17:14:04Z</time>
      </trkpt>
      <trkpt lat="46.51963" lon="0.12747">
        <ele>142.9</ele>
        <time>2020-05-30T17:14:05Z</time>
      </trkpt>
      <trkpt lat="46.51961" lon="0.12736">
        <ele>142.9</ele>
        <time>2020-05-30T17:14:06Z</time>
      </trkpt>
      <trkpt lat="46.5196" lon="0.12726">
        <ele>142.9</ele>
        <time>2020-05-30T17:14:07Z</time>
      </trkpt>
      <trkpt lat="46.51959" lon="0.12715">
        <ele>143</ele>
        <time>2020-05-30T17:14:08Z</time>
      </trkpt>
      <trkpt lat="46.51957" lon="0.12705">
        <ele>143</ele>
        <time>2020-05-30T17:14:09Z</time>
      </trkpt>
      <trkpt lat="46.51956" lon="0.12694">
        <ele>143.1</ele>
        <time>2020-05-30T17:14:10Z</time>
      </trkpt>
      <trkpt lat="46.51955" lon="0.12684">
        <ele>143.1</ele>
        <time>2020-05-30T17:14:11Z</time>
      </trkpt>
      <trkpt lat="46.51953" lon="0.12675">
        <ele>143.2</ele>
        <time>2020-05-30T17:14:12Z</time>
      </trkpt>
      <trkpt lat="46.51951" lon="0.12666">
        <ele>143.2</ele>
        <time>2020-05-30T17:14:13Z</time>
      </trkpt>
      <trkpt lat="46.5195" lon="0.12657">
        <ele>143.2</ele>
        <time>2020-05-30T17:14:14Z</time>
      </trkpt>
      <trkpt lat="46.51949" lon="0.12649">
        <ele>143.2</ele>
        <time>2020-05-30T17:14:15Z</time>
      </trkpt>
      <trkpt lat="46.51947" lon="0.12641">
        <ele>143.2</ele>
        <time>2020-05-30T17:14:16Z</time>
      </trkpt>
      <trkpt lat="46.51947" lon="0.12634">
        <ele>143.2</ele>
        <time>2020-05-30T17:14:17Z</time>
      </trkpt>
      <trkpt lat="46.51946" lon="0.12626">
        <ele>143.3</ele>
        <time>2020-05-30T17:14:18Z</time>
      </trkpt>
      <trkpt lat="46.51946" lon="0.12617">
        <ele>143.3</ele>
        <time>2020-05-30T17:14:19Z</time>
      </trkpt>
      <trkpt lat="46.51944" lon="0.1261">
        <ele>143.3</ele>
        <time>2020-05-30T17:14:20Z</time>
      </trkpt>
      <trkpt lat="46.51943" lon="0.12602">
        <ele>143.4</ele>
        <time>2020-05-30T17:14:21Z</time>
      </trkpt>
      <trkpt lat="46.51941" lon="0.12595">
        <ele>143.4</ele>
        <time>2020-05-30T17:14:22Z</time>
      </trkpt>
      <trkpt lat="46.5194" lon="0.12587">
        <ele>143.5</ele>
        <time>2020-05-30T17:14:23Z</time>
      </trkpt>
      <trkpt lat="46.51939" lon="0.12579">
        <ele>143.6</ele>
        <time>2020-05-30T17:14:24Z</time>
      </trkpt>
      <trkpt lat="46.51939" lon="0.1257">
        <ele>143.7</ele>
        <time>2020-05-30T17:14:25Z</time>
      </trkpt>
      <trkpt lat="46.51938" lon="0.12563">
        <ele>143.8</ele>
        <time>2020-05-30T17:14:26Z</time>
      </trkpt>
      <trkpt lat="46.51936" lon="0.12555">
        <ele>143.8</ele>
        <time>2020-05-30T17:14:27Z</time>
      </trkpt>
      <trkpt lat="46.51935" lon="0.12547">
        <ele>143.9</ele>
        <time>2020-05-30T17:14:28Z</time>
      </trkpt>
      <trkpt lat="46.51935" lon="0.12539">
        <ele>144</ele>
        <time>2020-05-30T17:14:29Z</time>
      </trkpt>
      <trkpt lat="46.51933" lon="0.1253">
        <ele>144.1</ele>
        <time>2020-05-30T17:14:30Z</time>
      </trkpt>
      <trkpt lat="46.51931" lon="0.12522">
        <ele>144.2</ele>
        <time>2020-05-30T17:14:31Z</time>
      </trkpt>
      <trkpt lat="46.51929" lon="0.12514">
        <ele>144.3</ele>
        <time>2020-05-30T17:14:32Z</time>
      </trkpt>
      <trkpt lat="46.51929" lon="0.12504">
        <ele>144.4</ele>
        <time>2020-05-30T17:14:33Z</time>
      </trkpt>
      <trkpt lat="46.51927" lon="0.12496">
        <ele>144.5</ele>
        <time>2020-05-30T17:14:34Z</time>
      </trkpt>
      <trkpt lat="46.51926" lon="0.12486">
        <ele>144.6</ele>
        <time>2020-05-30T17:14:35Z</time>
      </trkpt>
      <trkpt lat="46.51925" lon="0.12477">
        <ele>144.7</ele>
        <time>2020-05-30T17:14:36Z</time>
      </trkpt>
      <trkpt lat="46.51924" lon="0.12468">
        <ele>144.8</ele>
        <time>2020-05-30T17:14:37Z</time>
      </trkpt>
      <trkpt lat="46.51923" lon="0.12459">
        <ele>144.9</ele>
        <time>2020-05-30T17:14:38Z</time>
      </trkpt>
      <trkpt lat="46.5192" lon="0.12451">
        <ele>145</ele>
        <time>2020-05-30T17:14:39Z</time>
      </trkpt>
      <trkpt lat="46.51918" lon="0.12443">
        <ele>145.2</ele>
        <time>2020-05-30T17:14:40Z</time>
      </trkpt>
      <trkpt lat="46.51914" lon="0.12435">
        <ele>145.3</ele>
        <time>2020-05-30T17:14:41Z</time>
      </trkpt>
      <trkpt lat="46.5191" lon="0.12428">
        <ele>145.4</ele>
        <time>2020-05-30T17:14:42Z</time>
      </trkpt>
      <trkpt lat="46.51906" lon="0.12421">
        <ele>145.5</ele>
        <time>2020-05-30T17:14:43Z</time>
      </trkpt>
      <trkpt lat="46.51903" lon="0.12414">
        <ele>145.6</ele>
        <time>2020-05-30T17:14:44Z</time>
      </trkpt>
      <trkpt lat="46.51898" lon="0.12407">
        <ele>145.7</ele>
        <time>2020-05-30T17:14:45Z</time>
      </trkpt>
      <trkpt lat="46.51894" lon="0.12401">
        <ele>145.8</ele>
        <time>2020-05-30T17:14:46Z</time>
      </trkpt>
      <trkpt lat="46.51889" lon="0.12395">
        <ele>145.9</ele>
        <time>2020-05-30T17:14:47Z</time>
      </trkpt>
      <trkpt lat="46.51885" lon="0.1239">
        <ele>146</ele>
        <time>2020-05-30T17:14:48Z</time>
      </trkpt>
      <trkpt lat="46.5188" lon="0.12384">
        <ele>146.1</ele>
        <time>2020-05-30T17:14:49Z</time>
      </trkpt>
      <trkpt lat="46.51875" lon="0.1238">
        <ele>146.1</ele>
        <time>2020-05-30T17:14:50Z</time>
      </trkpt>
      <trkpt lat="46.51871" lon="0.12376">
        <ele>146.2</ele>
        <time>2020-05-30T17:14:51Z</time>
      </trkpt>
      <trkpt lat="46.51866" lon="0.12374">
        <ele>146.3</ele>
        <time>2020-05-30T17:14:52Z</time>
      </trkpt>
      <trkpt lat="46.51863" lon="0.1237">
        <ele>146.4</ele>
        <time>2020-05-30T17:14:53Z</time>
      </trkpt>
      <trkpt lat="46.5186" lon="0.12365">
        <ele>146.5</ele>
        <time>2020-05-30T17:14:54Z</time>
      </trkpt>
      <trkpt lat="46.51857" lon="0.12361">
        <ele>146.5</ele>
        <time>2020-05-30T17:14:55Z</time>
      </trkpt>
      <trkpt lat="46.51855" lon="0.12357">
        <ele>146.6</ele>
        <time>2020-05-30T17:14:56Z</time>
      </trkpt>
      <trkpt lat="46.51852" lon="0.12352">
        <ele>146.6</ele>
        <time>2020-05-30T17:14:57Z</time>
      </trkpt>
      <trkpt lat="46.51849" lon="0.12348">
        <ele>146.7</ele>
        <time>2020-05-30T17:14:58Z</time>
      </trkpt>
      <trkpt lat="46.51845" lon="0.12343">
        <ele>146.7</ele>
        <time>2020-05-30T17:14:59Z</time>
      </trkpt>
      <trkpt lat="46.51842" lon="0.12338">
        <ele>146.8</ele>
        <time>2020-05-30T17:15:00Z</time>
      </trkpt>
      <trkpt lat="46.51838" lon="0.12334">
        <ele>146.8</ele>
        <time>2020-05-30T17:15:01Z</time>
      </trkpt>
      <trkpt lat="46.51835" lon="0.12329">
        <ele>146.8</ele>
        <time>2020-05-30T17:15:02Z</time>
      </trkpt>
      <trkpt lat="46.51832" lon="0.12323">
        <ele>146.9</ele>
        <time>2020-05-30T17:15:03Z</time>
      </trkpt>
      <trkpt lat="46.51828" lon="0.12319">
        <ele>146.9</ele>
        <time>2020-05-30T17:15:04Z</time>
      </trkpt>
      <trkpt lat="46.51825" lon="0.12314">
        <ele>147</ele>
        <time>2020-05-30T17:15:05Z</time>
      </trkpt>
      <trkpt lat="46.51821" lon="0.12309">
        <ele>147</ele>
        <time>2020-05-30T17:15:06Z</time>
      </trkpt>
      <trkpt lat="46.51818" lon="0.12305">
        <ele>147.1</ele>
        <time>2020-05-30T17:15:07Z</time>
      </trkpt>
      <trkpt lat="46.51813" lon="0.12302">
        <ele>147.2</ele>
        <time>2020-05-30T17:15:08Z</time>
      </trkpt>
      <trkpt lat="46.51809" lon="0.12297">
        <ele>147.3</ele>
        <time>2020-05-30T17:15:09Z</time>
      </trkpt>
      <trkpt lat="46.51806" lon="0.12292">
        <ele>147.4</ele>
        <time>2020-05-30T17:15:10Z</time>
      </trkpt>
      <trkpt lat="46.51802" lon="0.12288">
        <ele>147.4</ele>
        <time>2020-05-30T17:15:11Z</time>
      </trkpt>
      <trkpt lat="46.51797" lon="0.12284">
        <ele>147.5</ele>
        <time>2020-05-30T17:15:12Z</time>
      </trkpt>
      <trkpt lat="46.51794" lon="0.12279">
        <ele>147.5</ele>
        <time>2020-05-30T17:15:13Z</time>
      </trkpt>
      <trkpt lat="46.5179" lon="0.12274">
        <ele>147.6</ele>
        <time>2020-05-30T17:15:14Z</time>
      </trkpt>
      <trkpt lat="46.51786" lon="0.12269">
        <ele>147.6</ele>
        <time>2020-05-30T17:15:15Z</time>
      </trkpt>
      <trkpt lat="46.51782" lon="0.12264">
        <ele>147.6</ele>
        <time>2020-05-30T17:15:16Z</time>
      </trkpt>
      <trkpt lat="46.51778" lon="0.1226">
        <ele>147.7</ele>
        <time>2020-05-30T17:15:17Z</time>
      </trkpt>
      <trkpt lat="46.51773" lon="0.12256">
        <ele>147.7</ele>
        <time>2020-05-30T17:15:18Z</time>
      </trkpt>
      <trkpt lat="46.51769" lon="0.12251">
        <ele>147.7</ele>
        <time>2020-05-30T17:15:19Z</time>
      </trkpt>
      <trkpt lat="46.51766" lon="0.12245">
        <ele>147.8</ele>
        <time>2020-05-30T17:15:20Z</time>
      </trkpt>
      <trkpt lat="46.51763" lon="0.12238">
        <ele>147.8</ele>
        <time>2020-05-30T17:15:21Z</time>
      </trkpt>
      <trkpt lat="46.51759" lon="0.12232">
        <ele>147.9</ele>
        <time>2020-05-30T17:15:22Z</time>
      </trkpt>
      <trkpt lat="46.51755" lon="0.12227">
        <ele>148</ele>
        <time>2020-05-30T17:15:23Z</time>
      </trkpt>
      <trkpt lat="46.5175" lon="0.12223">
        <ele>148.1</ele>
        <time>2020-05-30T17:15:24Z</time>
      </trkpt>
      <trkpt lat="46.51746" lon="0.12218">
        <ele>148.3</ele>
        <time>2020-05-30T17:15:25Z</time>
      </trkpt>
      <trkpt lat="46.51742" lon="0.12213">
        <ele>148.4</ele>
        <time>2020-05-30T17:15:26Z</time>
      </trkpt>
      <trkpt lat="46.51738" lon="0.12208">
        <ele>148.5</ele>
        <time>2020-05-30T17:15:27Z</time>
      </trkpt>
      <trkpt lat="46.51733" lon="0.12203">
        <ele>148.5</ele>
        <time>2020-05-30T17:15:28Z</time>
      </trkpt>
      <trkpt lat="46.51729" lon="0.12199">
        <ele>148.5</ele>
        <time>2020-05-30T17:15:29Z</time>
      </trkpt>
      <trkpt lat="46.51725" lon="0.12193">
        <ele>148.6</ele>
        <time>2020-05-30T17:15:30Z</time>
      </trkpt>
      <trkpt lat="46.51721" lon="0.12188">
        <ele>148.6</ele>
        <time>2020-05-30T17:15:31Z</time>
      </trkpt>
      <trkpt lat="46.51717" lon="0.12183">
        <ele>148.6</ele>
        <time>2020-05-30T17:15:32Z</time>
      </trkpt>
      <trkpt lat="46.51712" lon="0.12179">
        <ele>148.6</ele>
        <time>2020-05-30T17:15:33Z</time>
      </trkpt>
      <trkpt lat="46.51708" lon="0.12173">
        <ele>148.6</ele>
        <time>2020-05-30T17:15:34Z</time>
      </trkpt>
      <trkpt lat="46.51705" lon="0.12167">
        <ele>148.7</ele>
        <time>2020-05-30T17:15:35Z</time>
      </trkpt>
      <trkpt lat="46.51701" lon="0.12162">
        <ele>148.7</ele>
        <time>2020-05-30T17:15:36Z</time>
      </trkpt>
      <trkpt lat="46.51696" lon="0.12158">
        <ele>148.8</ele>
        <time>2020-05-30T17:15:37Z</time>
      </trkpt>
      <trkpt lat="46.51692" lon="0.12153">
        <ele>148.8</ele>
        <time>2020-05-30T17:15:38Z</time>
      </trkpt>
      <trkpt lat="46.51689" lon="0.12147">
        <ele>148.9</ele>
        <time>2020-05-30T17:15:39Z</time>
      </trkpt>
      <trkpt lat="46.51685" lon="0.12141">
        <ele>149</ele>
        <time>2020-05-30T17:15:40Z</time>
      </trkpt>
      <trkpt lat="46.51682" lon="0.12134">
        <ele>149.1</ele>
        <time>2020-05-30T17:15:41Z</time>
      </trkpt>
      <trkpt lat="46.51677" lon="0.12131">
        <ele>149.2</ele>
        <time>2020-05-30T17:15:42Z</time>
      </trkpt>
      <trkpt lat="46.51674" lon="0.12126">
        <ele>149.3</ele>
        <time>2020-05-30T17:15:43Z</time>
      </trkpt>
      <trkpt lat="46.51671" lon="0.1212">
        <ele>149.3</ele>
        <time>2020-05-30T17:15:44Z</time>
      </trkpt>
      <trkpt lat="46.51667" lon="0.12114">
        <ele>149.4</ele>
        <time>2020-05-30T17:15:45Z</time>
      </trkpt>
      <trkpt lat="46.51666" lon="0.12107">
        <ele>149.5</ele>
        <time>2020-05-30T17:15:46Z</time>
      </trkpt>
      <trkpt lat="46.51663" lon="0.12101">
        <ele>149.5</ele>
        <time>2020-05-30T17:15:47Z</time>
      </trkpt>
      <trkpt lat="46.51661" lon="0.12094">
        <ele>149.5</ele>
        <time>2020-05-30T17:15:48Z</time>
      </trkpt>
      <trkpt lat="46.51659" lon="0.12087">
        <ele>149.6</ele>
        <time>2020-05-30T17:15:49Z</time>
      </trkpt>
      <trkpt lat="46.51659" lon="0.12079">
        <ele>149.6</ele>
        <time>2020-05-30T17:15:50Z</time>
      </trkpt>
      <trkpt lat="46.51658" lon="0.12072">
        <ele>149.6</ele>
        <time>2020-05-30T17:15:51Z</time>
      </trkpt>
      <trkpt lat="46.51658" lon="0.12064">
        <ele>149.7</ele>
        <time>2020-05-30T17:15:52Z</time>
      </trkpt>
      <trkpt lat="46.51658" lon="0.12057">
        <ele>149.7</ele>
        <time>2020-05-30T17:15:53Z</time>
      </trkpt>
      <trkpt lat="46.51657" lon="0.1205">
        <ele>149.8</ele>
        <time>2020-05-30T17:15:54Z</time>
      </trkpt>
      <trkpt lat="46.51659" lon="0.12043">
        <ele>149.8</ele>
        <time>2020-05-30T17:15:55Z</time>
      </trkpt>
      <trkpt lat="46.51659" lon="0.12036">
        <ele>149.8</ele>
        <time>2020-05-30T17:15:56Z</time>
      </trkpt>
      <trkpt lat="46.51661" lon="0.12029">
        <ele>149.9</ele>
        <time>2020-05-30T17:15:57Z</time>
      </trkpt>
      <trkpt lat="46.51662" lon="0.12021">
        <ele>150</ele>
        <time>2020-05-30T17:15:58Z</time>
      </trkpt>
      <trkpt lat="46.51663" lon="0.12014">
        <ele>150.1</ele>
        <time>2020-05-30T17:15:59Z</time>
      </trkpt>
      <trkpt lat="46.51665" lon="0.12007">
        <ele>150.2</ele>
        <time>2020-05-30T17:16:00Z</time>
      </trkpt>
      <trkpt lat="46.51668" lon="0.12001">
        <ele>150.2</ele>
        <time>2020-05-30T17:16:01Z</time>
      </trkpt>
      <trkpt lat="46.51671" lon="0.11996">
        <ele>150.3</ele>
        <time>2020-05-30T17:16:02Z</time>
      </trkpt>
      <trkpt lat="46.51674" lon="0.1199">
        <ele>150.4</ele>
        <time>2020-05-30T17:16:03Z</time>
      </trkpt>
      <trkpt lat="46.51676" lon="0.11983">
        <ele>150.4</ele>
        <time>2020-05-30T17:16:04Z</time>
      </trkpt>
      <trkpt lat="46.51679" lon="0.11977">
        <ele>150.5</ele>
        <time>2020-05-30T17:16:05Z</time>
      </trkpt>
      <trkpt lat="46.51682" lon="0.11971">
        <ele>150.6</ele>
        <time>2020-05-30T17:16:06Z</time>
      </trkpt>
      <trkpt lat="46.51685" lon="0.11965">
        <ele>150.6</ele>
        <time>2020-05-30T17:16:07Z</time>
      </trkpt>
      <trkpt lat="46.51688" lon="0.11959">
        <ele>150.7</ele>
        <time>2020-05-30T17:16:08Z</time>
      </trkpt>
      <trkpt lat="46.51691" lon="0.11953">
        <ele>150.8</ele>
        <time>2020-05-30T17:16:09Z</time>
      </trkpt>
      <trkpt lat="46.51694" lon="0.11947">
        <ele>150.8</ele>
        <time>2020-05-30T17:16:10Z</time>
      </trkpt>
      <trkpt lat="46.51697" lon="0.1194">
        <ele>150.9</ele>
        <time>2020-05-30T17:16:11Z</time>
      </trkpt>
      <trkpt lat="46.517" lon="0.11934">
        <ele>151</ele>
        <time>2020-05-30T17:16:12Z</time>
      </trkpt>
      <trkpt lat="46.51702" lon="0.11928">
        <ele>151</ele>
        <time>2020-05-30T17:16:13Z</time>
      </trkpt>
      <trkpt lat="46.51705" lon="0.11922">
        <ele>151.1</ele>
        <time>2020-05-30T17:16:14Z</time>
      </trkpt>
      <trkpt lat="46.51708" lon="0.11915">
        <ele>151.1</ele>
        <time>2020-05-30T17:16:15Z</time>
      </trkpt>
      <trkpt lat="46.51711" lon="0.11909">
        <ele>151.2</ele>
        <time>2020-05-30T17:16:16Z</time>
      </trkpt>
      <trkpt lat="46.51714" lon="0.11904">
        <ele>151.2</ele>
        <time>2020-05-30T17:16:17Z</time>
      </trkpt>
      <trkpt lat="46.51716" lon="0.11898">
        <ele>151.3</ele>
        <time>2020-05-30T17:16:18Z</time>
      </trkpt>
      <trkpt lat="46.51719" lon="0.11892">
        <ele>151.3</ele>
        <time>2020-05-30T17:16:19Z</time>
      </trkpt>
      <trkpt lat="46.51721" lon="0.11885">
        <ele>151.4</ele>
        <time>2020-05-30T17:16:20Z</time>
      </trkpt>
      <trkpt lat="46.51724" lon="0.11879">
        <ele>151.4</ele>
        <time>2020-05-30T17:16:21Z</time>
      </trkpt>
      <trkpt lat="46.51727" lon="0.11872">
        <ele>151.4</ele>
        <time>2020-05-30T17:16:22Z</time>
      </trkpt>
      <trkpt lat="46.5173" lon="0.11866">
        <ele>151.5</ele>
        <time>2020-05-30T17:16:23Z</time>
      </trkpt>
      <trkpt lat="46.51733" lon="0.1186">
        <ele>151.5</ele>
        <time>2020-05-30T17:16:24Z</time>
      </trkpt>
      <trkpt lat="46.51735" lon="0.11854">
        <ele>151.5</ele>
        <time>2020-05-30T17:16:25Z</time>
      </trkpt>
      <trkpt lat="46.51737" lon="0.11847">
        <ele>151.6</ele>
        <time>2020-05-30T17:16:26Z</time>
      </trkpt>
      <trkpt lat="46.5174" lon="0.11842">
        <ele>151.6</ele>
        <time>2020-05-30T17:16:27Z</time>
      </trkpt>
      <trkpt lat="46.51742" lon="0.11836">
        <ele>151.7</ele>
        <time>2020-05-30T17:16:28Z</time>
      </trkpt>
      <trkpt lat="46.51746" lon="0.11831">
        <ele>151.7</ele>
        <time>2020-05-30T17:16:29Z</time>
      </trkpt>
      <trkpt lat="46.51749" lon="0.11826">
        <ele>151.8</ele>
        <time>2020-05-30T17:16:30Z</time>
      </trkpt>
      <trkpt lat="46.51751" lon="0.1182">
        <ele>151.8</ele>
        <time>2020-05-30T17:16:31Z</time>
      </trkpt>
      <trkpt lat="46.51754" lon="0.11814">
        <ele>151.9</ele>
        <time>2020-05-30T17:16:32Z</time>
      </trkpt>
      <trkpt lat="46.51757" lon="0.11808">
        <ele>151.9</ele>
        <time>2020-05-30T17:16:33Z</time>
      </trkpt>
      <trkpt lat="46.5176" lon="0.11802">
        <ele>151.9</ele>
        <time>2020-05-30T17:16:34Z</time>
      </trkpt>
      <trkpt lat="46.51762" lon="0.11795">
        <ele>151.9</ele>
        <time>2020-05-30T17:16:35Z</time>
      </trkpt>
      <trkpt lat="46.51764" lon="0.11788">
        <ele>151.9</ele>
        <time>2020-05-30T17:16:36Z</time>
      </trkpt>
      <trkpt lat="46.51766" lon="0.11781">
        <ele>151.9</ele>
        <time>2020-05-30T17:16:37Z</time>
      </trkpt>
      <trkpt lat="46.51768" lon="0.11774">
        <ele>151.9</ele>
        <time>2020-05-30T17:16:38Z</time>
      </trkpt>
      <trkpt lat="46.5177" lon="0.11767">
        <ele>151.8</ele>
        <time>2020-05-30T17:16:39Z</time>
      </trkpt>
      <trkpt lat="46.51772" lon="0.1176">
        <ele>151.8</ele>
        <time>2020-05-30T17:16:40Z</time>
      </trkpt>
      <trkpt lat="46.51774" lon="0.11752">
        <ele>151.7</ele>
        <time>2020-05-30T17:16:41Z</time>
      </trkpt>
      <trkpt lat="46.51776" lon="0.11745">
        <ele>151.6</ele>
        <time>2020-05-30T17:16:42Z</time>
      </trkpt>
      <trkpt lat="46.51776" lon="0.11737">
        <ele>151.6</ele>
        <time>2020-05-30T17:16:43Z</time>
      </trkpt>
      <trkpt lat="46.51778" lon="0.11729">
        <ele>151.5</ele>
        <time>2020-05-30T17:16:44Z</time>
      </trkpt>
      <trkpt lat="46.51778" lon="0.11721">
        <ele>151.4</ele>
        <time>2020-05-30T17:16:45Z</time>
      </trkpt>
      <trkpt lat="46.51779" lon="0.11713">
        <ele>151.3</ele>
        <time>2020-05-30T17:16:46Z</time>
      </trkpt>
      <trkpt lat="46.51781" lon="0.11705">
        <ele>151.3</ele>
        <time>2020-05-30T17:16:47Z</time>
      </trkpt>
      <trkpt lat="46.51782" lon="0.11698">
        <ele>151.2</ele>
        <time>2020-05-30T17:16:48Z</time>
      </trkpt>
      <trkpt lat="46.51784" lon="0.1169">
        <ele>151.1</ele>
        <time>2020-05-30T17:16:49Z</time>
      </trkpt>
      <trkpt lat="46.51785" lon="0.11683">
        <ele>151</ele>
        <time>2020-05-30T17:16:50Z</time>
      </trkpt>
      <trkpt lat="46.51786" lon="0.11675">
        <ele>150.9</ele>
        <time>2020-05-30T17:16:51Z</time>
      </trkpt>
      <trkpt lat="46.51787" lon="0.11667">
        <ele>150.8</ele>
        <time>2020-05-30T17:16:52Z</time>
      </trkpt>
      <trkpt lat="46.51789" lon="0.11659">
        <ele>150.8</ele>
        <time>2020-05-30T17:16:53Z</time>
      </trkpt>
      <trkpt lat="46.51789" lon="0.11651">
        <ele>150.7</ele>
        <time>2020-05-30T17:16:54Z</time>
      </trkpt>
      <trkpt lat="46.5179" lon="0.11644">
        <ele>150.6</ele>
        <time>2020-05-30T17:16:55Z</time>
      </trkpt>
      <trkpt lat="46.51791" lon="0.11636">
        <ele>150.5</ele>
        <time>2020-05-30T17:16:56Z</time>
      </trkpt>
      <trkpt lat="46.51792" lon="0.11627">
        <ele>150.4</ele>
        <time>2020-05-30T17:16:57Z</time>
      </trkpt>
      <trkpt lat="46.51793" lon="0.11619">
        <ele>150.4</ele>
        <time>2020-05-30T17:16:58Z</time>
      </trkpt>
      <trkpt lat="46.51794" lon="0.11611">
        <ele>150.2</ele>
        <time>2020-05-30T17:16:59Z</time>
      </trkpt>
      <trkpt lat="46.51795" lon="0.11602">
        <ele>150.1</ele>
        <time>2020-05-30T17:17:00Z</time>
      </trkpt>
      <trkpt lat="46.51798" lon="0.11594">
        <ele>150</ele>
        <time>2020-05-30T17:17:01Z</time>
      </trkpt>
      <trkpt lat="46.51798" lon="0.11586">
        <ele>149.8</ele>
        <time>2020-05-30T17:17:02Z</time>
      </trkpt>
      <trkpt lat="46.51799" lon="0.11577">
        <ele>149.8</ele>
        <time>2020-05-30T17:17:03Z</time>
      </trkpt>
      <trkpt lat="46.51799" lon="0.1157">
        <ele>149.7</ele>
        <time>2020-05-30T17:17:04Z</time>
      </trkpt>
      <trkpt lat="46.51801" lon="0.11563">
        <ele>149.7</ele>
        <time>2020-05-30T17:17:05Z</time>
      </trkpt>
      <trkpt lat="46.51803" lon="0.11555">
        <ele>149.7</ele>
        <time>2020-05-30T17:17:06Z</time>
      </trkpt>
      <trkpt lat="46.51804" lon="0.11548">
        <ele>149.6</ele>
        <time>2020-05-30T17:17:07Z</time>
      </trkpt>
      <trkpt lat="46.51805" lon="0.1154">
        <ele>149.6</ele>
        <time>2020-05-30T17:17:08Z</time>
      </trkpt>
      <trkpt lat="46.51807" lon="0.11532">
        <ele>149.6</ele>
        <time>2020-05-30T17:17:09Z</time>
      </trkpt>
      <trkpt lat="46.51806" lon="0.11524">
        <ele>149.6</ele>
        <time>2020-05-30T17:17:10Z</time>
      </trkpt>
      <trkpt lat="46.51806" lon="0.11517">
        <ele>149.6</ele>
        <time>2020-05-30T17:17:11Z</time>
      </trkpt>
      <trkpt lat="46.51807" lon="0.1151">
        <ele>149.6</ele>
        <time>2020-05-30T17:17:12Z</time>
      </trkpt>
      <trkpt lat="46.51808" lon="0.11502">
        <ele>149.6</ele>
        <time>2020-05-30T17:17:13Z</time>
      </trkpt>
      <trkpt lat="46.51809" lon="0.11494">
        <ele>149.6</ele>
        <time>2020-05-30T17:17:14Z</time>
      </trkpt>
      <trkpt lat="46.51811" lon="0.11486">
        <ele>149.6</ele>
        <time>2020-05-30T17:17:15Z</time>
      </trkpt>
      <trkpt lat="46.51813" lon="0.11478">
        <ele>149.6</ele>
        <time>2020-05-30T17:17:16Z</time>
      </trkpt>
      <trkpt lat="46.51814" lon="0.1147">
        <ele>149.5</ele>
        <time>2020-05-30T17:17:17Z</time>
      </trkpt>
      <trkpt lat="46.51814" lon="0.11461">
        <ele>149.5</ele>
        <time>2020-05-30T17:17:18Z</time>
      </trkpt>
      <trkpt lat="46.51816" lon="0.11453">
        <ele>149.5</ele>
        <time>2020-05-30T17:17:19Z</time>
      </trkpt>
      <trkpt lat="46.51819" lon="0.11446">
        <ele>149.5</ele>
        <time>2020-05-30T17:17:20Z</time>
      </trkpt>
      <trkpt lat="46.5182" lon="0.11438">
        <ele>149.5</ele>
        <time>2020-05-30T17:17:21Z</time>
      </trkpt>
      <trkpt lat="46.51823" lon="0.11431">
        <ele>149.5</ele>
        <time>2020-05-30T17:17:22Z</time>
      </trkpt>
      <trkpt lat="46.51825" lon="0.11424">
        <ele>149.5</ele>
        <time>2020-05-30T17:17:23Z</time>
      </trkpt>
      <trkpt lat="46.51827" lon="0.11416">
        <ele>149.5</ele>
        <time>2020-05-30T17:17:24Z</time>
      </trkpt>
      <trkpt lat="46.5183" lon="0.11408">
        <ele>149.5</ele>
        <time>2020-05-30T17:17:25Z</time>
      </trkpt>
      <trkpt lat="46.51833" lon="0.114">
        <ele>149.5</ele>
        <time>2020-05-30T17:17:26Z</time>
      </trkpt>
      <trkpt lat="46.51835" lon="0.11393">
        <ele>149.5</ele>
        <time>2020-05-30T17:17:27Z</time>
      </trkpt>
      <trkpt lat="46.51837" lon="0.11385">
        <ele>149.6</ele>
        <time>2020-05-30T17:17:28Z</time>
      </trkpt>
      <trkpt lat="46.5184" lon="0.11377">
        <ele>149.6</ele>
        <time>2020-05-30T17:17:29Z</time>
      </trkpt>
      <trkpt lat="46.51843" lon="0.11369">
        <ele>149.6</ele>
        <time>2020-05-30T17:17:30Z</time>
      </trkpt>
      <trkpt lat="46.51845" lon="0.11361">
        <ele>149.6</ele>
        <time>2020-05-30T17:17:31Z</time>
      </trkpt>
      <trkpt lat="46.51848" lon="0.11353">
        <ele>149.6</ele>
        <time>2020-05-30T17:17:32Z</time>
      </trkpt>
      <trkpt lat="46.5185" lon="0.11345">
        <ele>149.7</ele>
        <time>2020-05-30T17:17:33Z</time>
      </trkpt>
      <trkpt lat="46.51853" lon="0.11337">
        <ele>149.7</ele>
        <time>2020-05-30T17:17:34Z</time>
      </trkpt>
      <trkpt lat="46.51855" lon="0.11328">
        <ele>149.7</ele>
        <time>2020-05-30T17:17:35Z</time>
      </trkpt>
      <trkpt lat="46.51857" lon="0.11321">
        <ele>149.7</ele>
        <time>2020-05-30T17:17:36Z</time>
      </trkpt>
      <trkpt lat="46.51859" lon="0.11313">
        <ele>149.8</ele>
        <time>2020-05-30T17:17:37Z</time>
      </trkpt>
      <trkpt lat="46.5186" lon="0.11305">
        <ele>149.8</ele>
        <time>2020-05-30T17:17:38Z</time>
      </trkpt>
      <trkpt lat="46.51862" lon="0.11297">
        <ele>149.8</ele>
        <time>2020-05-30T17:17:39Z</time>
      </trkpt>
      <trkpt lat="46.51863" lon="0.1129">
        <ele>149.9</ele>
        <time>2020-05-30T17:17:40Z</time>
      </trkpt>
      <trkpt lat="46.51865" lon="0.11282">
        <ele>149.9</ele>
        <time>2020-05-30T17:17:41Z</time>
      </trkpt>
      <trkpt lat="46.51866" lon="0.11273">
        <ele>149.9</ele>
        <time>2020-05-30T17:17:42Z</time>
      </trkpt>
      <trkpt lat="46.51868" lon="0.11264">
        <ele>149.9</ele>
        <time>2020-05-30T17:17:43Z</time>
      </trkpt>
      <trkpt lat="46.51869" lon="0.11255">
        <ele>149.9</ele>
        <time>2020-05-30T17:17:44Z</time>
      </trkpt>
      <trkpt lat="46.5187" lon="0.11247">
        <ele>149.9</ele>
        <time>2020-05-30T17:17:45Z</time>
      </trkpt>
      <trkpt lat="46.51871" lon="0.11238">
        <ele>149.9</ele>
        <time>2020-05-30T17:17:46Z</time>
      </trkpt>
      <trkpt lat="46.51872" lon="0.1123">
        <ele>149.9</ele>
        <time>2020-05-30T17:17:47Z</time>
      </trkpt>
      <trkpt lat="46.51874" lon="0.11222">
        <ele>149.9</ele>
        <time>2020-05-30T17:17:48Z</time>
      </trkpt>
      <trkpt lat="46.51875" lon="0.11214">
        <ele>149.9</ele>
        <time>2020-05-30T17:17:49Z</time>
      </trkpt>
      <trkpt lat="46.51876" lon="0.11206">
        <ele>150</ele>
        <time>2020-05-30T17:17:50Z</time>
      </trkpt>
      <trkpt lat="46.51877" lon="0.11198">
        <ele>150</ele>
        <time>2020-05-30T17:17:51Z</time>
      </trkpt>
      <trkpt lat="46.51878" lon="0.1119">
        <ele>150</ele>
        <time>2020-05-30T17:17:52Z</time>
      </trkpt>
      <trkpt lat="46.51879" lon="0.11181">
        <ele>150</ele>
        <time>2020-05-30T17:17:53Z</time>
      </trkpt>
      <trkpt lat="46.51881" lon="0.11173">
        <ele>150</ele>
        <time>2020-05-30T17:17:54Z</time>
      </trkpt>
      <trkpt lat="46.51882" lon="0.11164">
        <ele>150</ele>
        <time>2020-05-30T17:17:55Z</time>
      </trkpt>
      <trkpt lat="46.51884" lon="0.11156">
        <ele>150</ele>
        <time>2020-05-30T17:17:56Z</time>
      </trkpt>
      <trkpt lat="46.51886" lon="0.11148">
        <ele>150</ele>
        <time>2020-05-30T17:17:57Z</time>
      </trkpt>
      <trkpt lat="46.51888" lon="0.11139">
        <ele>150</ele>
        <time>2020-05-30T17:17:58Z</time>
      </trkpt>
      <trkpt lat="46.5189" lon="0.11131">
        <ele>150</ele>
        <time>2020-05-30T17:17:59Z</time>
      </trkpt>
      <trkpt lat="46.51892" lon="0.11123">
        <ele>150</ele>
        <time>2020-05-30T17:18:00Z</time>
      </trkpt>
      <trkpt lat="46.51895" lon="0.11115">
        <ele>150</ele>
        <time>2020-05-30T17:18:01Z</time>
      </trkpt>
      <trkpt lat="46.51898" lon="0.11108">
        <ele>149.9</ele>
        <time>2020-05-30T17:18:02Z</time>
      </trkpt>
      <trkpt lat="46.51901" lon="0.111">
        <ele>149.9</ele>
        <time>2020-05-30T17:18:03Z</time>
      </trkpt>
      <trkpt lat="46.51904" lon="0.11092">
        <ele>149.9</ele>
        <time>2020-05-30T17:18:04Z</time>
      </trkpt>
      <trkpt lat="46.51906" lon="0.11084">
        <ele>149.9</ele>
        <time>2020-05-30T17:18:05Z</time>
      </trkpt>
      <trkpt lat="46.51909" lon="0.11076">
        <ele>149.9</ele>
        <time>2020-05-30T17:18:06Z</time>
      </trkpt>
      <trkpt lat="46.51913" lon="0.11069">
        <ele>149.9</ele>
        <time>2020-05-30T17:18:07Z</time>
      </trkpt>
      <trkpt lat="46.51916" lon="0.11061">
        <ele>149.9</ele>
        <time>2020-05-30T17:18:08Z</time>
      </trkpt>
      <trkpt lat="46.5192" lon="0.11053">
        <ele>149.9</ele>
        <time>2020-05-30T17:18:09Z</time>
      </trkpt>
      <trkpt lat="46.51923" lon="0.11045">
        <ele>149.9</ele>
        <time>2020-05-30T17:18:10Z</time>
      </trkpt>
      <trkpt lat="46.51926" lon="0.11037">
        <ele>149.9</ele>
        <time>2020-05-30T17:18:11Z</time>
      </trkpt>
      <trkpt lat="46.51929" lon="0.11028">
        <ele>149.9</ele>
        <time>2020-05-30T17:18:12Z</time>
      </trkpt>
      <trkpt lat="46.51933" lon="0.1102">
        <ele>149.9</ele>
        <time>2020-05-30T17:18:13Z</time>
      </trkpt>
      <trkpt lat="46.51936" lon="0.11011">
        <ele>149.9</ele>
        <time>2020-05-30T17:18:14Z</time>
      </trkpt>
      <trkpt lat="46.51938" lon="0.11004">
        <ele>149.9</ele>
        <time>2020-05-30T17:18:15Z</time>
      </trkpt>
      <trkpt lat="46.51941" lon="0.10996">
        <ele>149.9</ele>
        <time>2020-05-30T17:18:16Z</time>
      </trkpt>
      <trkpt lat="46.51943" lon="0.10987">
        <ele>149.9</ele>
        <time>2020-05-30T17:18:17Z</time>
      </trkpt>
      <trkpt lat="46.51946" lon="0.10981">
        <ele>149.9</ele>
        <time>2020-05-30T17:18:18Z</time>
      </trkpt>
      <trkpt lat="46.51948" lon="0.10976">
        <ele>149.8</ele>
        <time>2020-05-30T17:18:19Z</time>
      </trkpt>
      <trkpt lat="46.51951" lon="0.10969">
        <ele>149.8</ele>
        <time>2020-05-30T17:18:20Z</time>
      </trkpt>
      <trkpt lat="46.51954" lon="0.10961">
        <ele>149.8</ele>
        <time>2020-05-30T17:18:21Z</time>
      </trkpt>
      <trkpt lat="46.51957" lon="0.10954">
        <ele>149.8</ele>
        <time>2020-05-30T17:18:22Z</time>
      </trkpt>
      <trkpt lat="46.51959" lon="0.10948">
        <ele>149.8</ele>
        <time>2020-05-30T17:18:23Z</time>
      </trkpt>
      <trkpt lat="46.51962" lon="0.10941">
        <ele>149.8</ele>
        <time>2020-05-30T17:18:24Z</time>
      </trkpt>
      <trkpt lat="46.51965" lon="0.10935">
        <ele>149.8</ele>
        <time>2020-05-30T17:18:25Z</time>
      </trkpt>
      <trkpt lat="46.51967" lon="0.10929">
        <ele>149.8</ele>
        <time>2020-05-30T17:18:26Z</time>
      </trkpt>
      <trkpt lat="46.5197" lon="0.10922">
        <ele>149.8</ele>
        <time>2020-05-30T17:18:27Z</time>
      </trkpt>
      <trkpt lat="46.51973" lon="0.10915">
        <ele>149.8</ele>
        <time>2020-05-30T17:18:28Z</time>
      </trkpt>
      <trkpt lat="46.51975" lon="0.10911">
        <ele>149.8</ele>
        <time>2020-05-30T17:18:29Z</time>
      </trkpt>
      <trkpt lat="46.51977" lon="0.10905">
        <ele>149.8</ele>
        <time>2020-05-30T17:18:30Z</time>
      </trkpt>
      <trkpt lat="46.5198" lon="0.10899">
        <ele>149.8</ele>
        <time>2020-05-30T17:18:31Z</time>
      </trkpt>
      <trkpt lat="46.51983" lon="0.10893">
        <ele>149.8</ele>
        <time>2020-05-30T17:18:32Z</time>
      </trkpt>
      <trkpt lat="46.51986" lon="0.10886">
        <ele>149.9</ele>
        <time>2020-05-30T17:18:33Z</time>
      </trkpt>
      <trkpt lat="46.5199" lon="0.1088">
        <ele>149.9</ele>
        <time>2020-05-30T17:18:34Z</time>
      </trkpt>
      <trkpt lat="46.51993" lon="0.10873">
        <ele>149.9</ele>
        <time>2020-05-30T17:18:35Z</time>
      </trkpt>
      <trkpt lat="46.51996" lon="0.10867">
        <ele>150</ele>
        <time>2020-05-30T17:18:36Z</time>
      </trkpt>
      <trkpt lat="46.51999" lon="0.10861">
        <ele>150</ele>
        <time>2020-05-30T17:18:37Z</time>
      </trkpt>
      <trkpt lat="46.52002" lon="0.10854">
        <ele>150</ele>
        <time>2020-05-30T17:18:38Z</time>
      </trkpt>
      <trkpt lat="46.52004" lon="0.10848">
        <ele>150</ele>
        <time>2020-05-30T17:18:39Z</time>
      </trkpt>
      <trkpt lat="46.52008" lon="0.10842">
        <ele>150</ele>
        <time>2020-05-30T17:18:40Z</time>
      </trkpt>
      <trkpt lat="46.5201" lon="0.10836">
        <ele>150.1</ele>
        <time>2020-05-30T17:18:41Z</time>
      </trkpt>
      <trkpt lat="46.52013" lon="0.10831">
        <ele>150.1</ele>
        <time>2020-05-30T17:18:42Z</time>
      </trkpt>
      <trkpt lat="46.52016" lon="0.10824">
        <ele>150.1</ele>
        <time>2020-05-30T17:18:43Z</time>
      </trkpt>
      <trkpt lat="46.52019" lon="0.10819">
        <ele>150.1</ele>
        <time>2020-05-30T17:18:44Z</time>
      </trkpt>
      <trkpt lat="46.52023" lon="0.1081">
        <ele>150.1</ele>
        <time>2020-05-30T17:18:45Z</time>
      </trkpt>
      <trkpt lat="46.52025" lon="0.10804">
        <ele>150.1</ele>
        <time>2020-05-30T17:18:46Z</time>
      </trkpt>
      <trkpt lat="46.52028" lon="0.10798">
        <ele>150.1</ele>
        <time>2020-05-30T17:18:47Z</time>
      </trkpt>
      <trkpt lat="46.52032" lon="0.10792">
        <ele>150.1</ele>
        <time>2020-05-30T17:18:48Z</time>
      </trkpt>
      <trkpt lat="46.52035" lon="0.10785">
        <ele>150.1</ele>
        <time>2020-05-30T17:18:49Z</time>
      </trkpt>
      <trkpt lat="46.52037" lon="0.10779">
        <ele>150.1</ele>
        <time>2020-05-30T17:18:50Z</time>
      </trkpt>
      <trkpt lat="46.52041" lon="0.10772">
        <ele>150.1</ele>
        <time>2020-05-30T17:18:51Z</time>
      </trkpt>
      <trkpt lat="46.52044" lon="0.10766">
        <ele>150.1</ele>
        <time>2020-05-30T17:18:52Z</time>
      </trkpt>
      <trkpt lat="46.52048" lon="0.10757">
        <ele>150.1</ele>
        <time>2020-05-30T17:18:53Z</time>
      </trkpt>
      <trkpt lat="46.52052" lon="0.1075">
        <ele>150.1</ele>
        <time>2020-05-30T17:18:54Z</time>
      </trkpt>
      <trkpt lat="46.52054" lon="0.10743">
        <ele>150</ele>
        <time>2020-05-30T17:18:55Z</time>
      </trkpt>
      <trkpt lat="46.52058" lon="0.10738">
        <ele>149.9</ele>
        <time>2020-05-30T17:18:56Z</time>
      </trkpt>
      <trkpt lat="46.52061" lon="0.1073">
        <ele>149.8</ele>
        <time>2020-05-30T17:18:57Z</time>
      </trkpt>
      <trkpt lat="46.52064" lon="0.10723">
        <ele>149.7</ele>
        <time>2020-05-30T17:18:58Z</time>
      </trkpt>
      <trkpt lat="46.52067" lon="0.10716">
        <ele>149.6</ele>
        <time>2020-05-30T17:18:59Z</time>
      </trkpt>
      <trkpt lat="46.52071" lon="0.10709">
        <ele>149.5</ele>
        <time>2020-05-30T17:19:00Z</time>
      </trkpt>
      <trkpt lat="46.52073" lon="0.10703">
        <ele>149.5</ele>
        <time>2020-05-30T17:19:01Z</time>
      </trkpt>
      <trkpt lat="46.52075" lon="0.10696">
        <ele>149.4</ele>
        <time>2020-05-30T17:19:02Z</time>
      </trkpt>
      <trkpt lat="46.52077" lon="0.10689">
        <ele>149.4</ele>
        <time>2020-05-30T17:19:03Z</time>
      </trkpt>
      <trkpt lat="46.5208" lon="0.10679">
        <ele>149.4</ele>
        <time>2020-05-30T17:19:04Z</time>
      </trkpt>
      <trkpt lat="46.52081" lon="0.1067">
        <ele>149.4</ele>
        <time>2020-05-30T17:19:05Z</time>
      </trkpt>
      <trkpt lat="46.52082" lon="0.1066">
        <ele>149.5</ele>
        <time>2020-05-30T17:19:06Z</time>
      </trkpt>
      <trkpt lat="46.52083" lon="0.10653">
        <ele>149.5</ele>
        <time>2020-05-30T17:19:07Z</time>
      </trkpt>
      <trkpt lat="46.52084" lon="0.10646">
        <ele>149.5</ele>
        <time>2020-05-30T17:19:08Z</time>
      </trkpt>
      <trkpt lat="46.52085" lon="0.10639">
        <ele>149.4</ele>
        <time>2020-05-30T17:19:09Z</time>
      </trkpt>
      <trkpt lat="46.52086" lon="0.1063">
        <ele>149.3</ele>
        <time>2020-05-30T17:19:10Z</time>
      </trkpt>
      <trkpt lat="46.52087" lon="0.10622">
        <ele>149.2</ele>
        <time>2020-05-30T17:19:11Z</time>
      </trkpt>
      <trkpt lat="46.52089" lon="0.10612">
        <ele>149.1</ele>
        <time>2020-05-30T17:19:12Z</time>
      </trkpt>
      <trkpt lat="46.5209" lon="0.10607">
        <ele>149</ele>
        <time>2020-05-30T17:19:13Z</time>
      </trkpt>
      <trkpt lat="46.52092" lon="0.10599">
        <ele>148.9</ele>
        <time>2020-05-30T17:19:14Z</time>
      </trkpt>
      <trkpt lat="46.52093" lon="0.10589">
        <ele>148.8</ele>
        <time>2020-05-30T17:19:15Z</time>
      </trkpt>
      <trkpt lat="46.52094" lon="0.10581">
        <ele>148.7</ele>
        <time>2020-05-30T17:19:16Z</time>
      </trkpt>
      <trkpt lat="46.52095" lon="0.10573">
        <ele>148.6</ele>
        <time>2020-05-30T17:19:17Z</time>
      </trkpt>
      <trkpt lat="46.52097" lon="0.10566">
        <ele>148.5</ele>
        <time>2020-05-30T17:19:18Z</time>
      </trkpt>
      <trkpt lat="46.52098" lon="0.10559">
        <ele>148.4</ele>
        <time>2020-05-30T17:19:19Z</time>
      </trkpt>
      <trkpt lat="46.52098" lon="0.1055">
        <ele>148.2</ele>
        <time>2020-05-30T17:19:20Z</time>
      </trkpt>
      <trkpt lat="46.52099" lon="0.10542">
        <ele>148.1</ele>
        <time>2020-05-30T17:19:21Z</time>
      </trkpt>
      <trkpt lat="46.521" lon="0.10534">
        <ele>147.9</ele>
        <time>2020-05-30T17:19:22Z</time>
      </trkpt>
      <trkpt lat="46.52102" lon="0.10525">
        <ele>147.7</ele>
        <time>2020-05-30T17:19:23Z</time>
      </trkpt>
      <trkpt lat="46.52104" lon="0.10516">
        <ele>147.5</ele>
        <time>2020-05-30T17:19:24Z</time>
      </trkpt>
      <trkpt lat="46.52105" lon="0.10508">
        <ele>147.4</ele>
        <time>2020-05-30T17:19:25Z</time>
      </trkpt>
      <trkpt lat="46.52107" lon="0.10498">
        <ele>147.2</ele>
        <time>2020-05-30T17:19:26Z</time>
      </trkpt>
      <trkpt lat="46.52108" lon="0.10489">
        <ele>147</ele>
        <time>2020-05-30T17:19:27Z</time>
      </trkpt>
      <trkpt lat="46.5211" lon="0.10479">
        <ele>146.8</ele>
        <time>2020-05-30T17:19:28Z</time>
      </trkpt>
      <trkpt lat="46.52112" lon="0.10469">
        <ele>146.6</ele>
        <time>2020-05-30T17:19:29Z</time>
      </trkpt>
      <trkpt lat="46.52114" lon="0.1046">
        <ele>146.4</ele>
        <time>2020-05-30T17:19:30Z</time>
      </trkpt>
      <trkpt lat="46.52115" lon="0.10449">
        <ele>146.2</ele>
        <time>2020-05-30T17:19:31Z</time>
      </trkpt>
      <trkpt lat="46.52117" lon="0.10438">
        <ele>146</ele>
        <time>2020-05-30T17:19:32Z</time>
      </trkpt>
      <trkpt lat="46.52117" lon="0.10426">
        <ele>145.8</ele>
        <time>2020-05-30T17:19:33Z</time>
      </trkpt>
      <trkpt lat="46.52116" lon="0.10415">
        <ele>145.7</ele>
        <time>2020-05-30T17:19:34Z</time>
      </trkpt>
      <trkpt lat="46.52115" lon="0.10403">
        <ele>145.5</ele>
        <time>2020-05-30T17:19:35Z</time>
      </trkpt>
      <trkpt lat="46.52113" lon="0.10393">
        <ele>145.4</ele>
        <time>2020-05-30T17:19:36Z</time>
      </trkpt>
      <trkpt lat="46.52111" lon="0.10381">
        <ele>145.2</ele>
        <time>2020-05-30T17:19:37Z</time>
      </trkpt>
      <trkpt lat="46.52108" lon="0.1037">
        <ele>145.1</ele>
        <time>2020-05-30T17:19:38Z</time>
      </trkpt>
      <trkpt lat="46.52107" lon="0.10358">
        <ele>145</ele>
        <time>2020-05-30T17:19:39Z</time>
      </trkpt>
      <trkpt lat="46.52106" lon="0.10347">
        <ele>145</ele>
        <time>2020-05-30T17:19:40Z</time>
      </trkpt>
      <trkpt lat="46.52104" lon="0.10336">
        <ele>145</ele>
        <time>2020-05-30T17:19:41Z</time>
      </trkpt>
      <trkpt lat="46.52103" lon="0.10326">
        <ele>145</ele>
        <time>2020-05-30T17:19:42Z</time>
      </trkpt>
      <trkpt lat="46.52101" lon="0.10316">
        <ele>145</ele>
        <time>2020-05-30T17:19:43Z</time>
      </trkpt>
      <trkpt lat="46.521" lon="0.10307">
        <ele>145</ele>
        <time>2020-05-30T17:19:44Z</time>
      </trkpt>
      <trkpt lat="46.52099" lon="0.10299">
        <ele>145</ele>
        <time>2020-05-30T17:19:45Z</time>
      </trkpt>
      <trkpt lat="46.52098" lon="0.10291">
        <ele>145.1</ele>
        <time>2020-05-30T17:19:46Z</time>
      </trkpt>
      <trkpt lat="46.52096" lon="0.10282">
        <ele>145.2</ele>
        <time>2020-05-30T17:19:47Z</time>
      </trkpt>
      <trkpt lat="46.52094" lon="0.10274">
        <ele>145.3</ele>
        <time>2020-05-30T17:19:48Z</time>
      </trkpt>
      <trkpt lat="46.52092" lon="0.10266">
        <ele>145.4</ele>
        <time>2020-05-30T17:19:49Z</time>
      </trkpt>
      <trkpt lat="46.5209" lon="0.10258">
        <ele>145.5</ele>
        <time>2020-05-30T17:19:50Z</time>
      </trkpt>
      <trkpt lat="46.52089" lon="0.10249">
        <ele>145.7</ele>
        <time>2020-05-30T17:19:51Z</time>
      </trkpt>
      <trkpt lat="46.52088" lon="0.1024">
        <ele>145.8</ele>
        <time>2020-05-30T17:19:52Z</time>
      </trkpt>
      <trkpt lat="46.52087" lon="0.10232">
        <ele>145.9</ele>
        <time>2020-05-30T17:19:53Z</time>
      </trkpt>
      <trkpt lat="46.52086" lon="0.10223">
        <ele>146</ele>
        <time>2020-05-30T17:19:54Z</time>
      </trkpt>
      <trkpt lat="46.52085" lon="0.10214">
        <ele>146.1</ele>
        <time>2020-05-30T17:19:55Z</time>
      </trkpt>
      <trkpt lat="46.52083" lon="0.10206">
        <ele>146.2</ele>
        <time>2020-05-30T17:19:56Z</time>
      </trkpt>
      <trkpt lat="46.52083" lon="0.10197">
        <ele>146.4</ele>
        <time>2020-05-30T17:19:57Z</time>
      </trkpt>
      <trkpt lat="46.52082" lon="0.10189">
        <ele>146.5</ele>
        <time>2020-05-30T17:19:58Z</time>
      </trkpt>
      <trkpt lat="46.52079" lon="0.10181">
        <ele>146.7</ele>
        <time>2020-05-30T17:19:59Z</time>
      </trkpt>
      <trkpt lat="46.52078" lon="0.10172">
        <ele>146.9</ele>
        <time>2020-05-30T17:20:00Z</time>
      </trkpt>
      <trkpt lat="46.52078" lon="0.10164">
        <ele>147</ele>
        <time>2020-05-30T17:20:01Z</time>
      </trkpt>
      <trkpt lat="46.52076" lon="0.10155">
        <ele>147.2</ele>
        <time>2020-05-30T17:20:02Z</time>
      </trkpt>
      <trkpt lat="46.52075" lon="0.10146">
        <ele>147.3</ele>
        <time>2020-05-30T17:20:03Z</time>
      </trkpt>
      <trkpt lat="46.52074" lon="0.10138">
        <ele>147.5</ele>
        <time>2020-05-30T17:20:04Z</time>
      </trkpt>
      <trkpt lat="46.52072" lon="0.1013">
        <ele>147.6</ele>
        <time>2020-05-30T17:20:05Z</time>
      </trkpt>
      <trkpt lat="46.5207" lon="0.10121">
        <ele>147.7</ele>
        <time>2020-05-30T17:20:06Z</time>
      </trkpt>
      <trkpt lat="46.52069" lon="0.10113">
        <ele>147.8</ele>
        <time>2020-05-30T17:20:07Z</time>
      </trkpt>
      <trkpt lat="46.52068" lon="0.10103">
        <ele>148</ele>
        <time>2020-05-30T17:20:08Z</time>
      </trkpt>
      <trkpt lat="46.52066" lon="0.10093">
        <ele>148.1</ele>
        <time>2020-05-30T17:20:09Z</time>
      </trkpt>
      <trkpt lat="46.52065" lon="0.10083">
        <ele>148.3</ele>
        <time>2020-05-30T17:20:10Z</time>
      </trkpt>
      <trkpt lat="46.52064" lon="0.10074">
        <ele>148.4</ele>
        <time>2020-05-30T17:20:11Z</time>
      </trkpt>
      <trkpt lat="46.52063" lon="0.10066">
        <ele>148.5</ele>
        <time>2020-05-30T17:20:12Z</time>
      </trkpt>
      <trkpt lat="46.52062" lon="0.10058">
        <ele>148.5</ele>
        <time>2020-05-30T17:20:13Z</time>
      </trkpt>
      <trkpt lat="46.5206" lon="0.10051">
        <ele>148.6</ele>
        <time>2020-05-30T17:20:14Z</time>
      </trkpt>
      <trkpt lat="46.52059" lon="0.10043">
        <ele>148.6</ele>
        <time>2020-05-30T17:20:15Z</time>
      </trkpt>
      <trkpt lat="46.52057" lon="0.10034">
        <ele>148.7</ele>
        <time>2020-05-30T17:20:16Z</time>
      </trkpt>
      <trkpt lat="46.52056" lon="0.10025">
        <ele>148.8</ele>
        <time>2020-05-30T17:20:17Z</time>
      </trkpt>
      <trkpt lat="46.52055" lon="0.10016">
        <ele>148.9</ele>
        <time>2020-05-30T17:20:18Z</time>
      </trkpt>
      <trkpt lat="46.52054" lon="0.10008">
        <ele>149.1</ele>
        <time>2020-05-30T17:20:19Z</time>
      </trkpt>
      <trkpt lat="46.52052" lon="0.1">
        <ele>149.2</ele>
        <time>2020-05-30T17:20:20Z</time>
      </trkpt>
      <trkpt lat="46.52051" lon="0.09992">
        <ele>149.3</ele>
        <time>2020-05-30T17:20:21Z</time>
      </trkpt>
      <trkpt lat="46.5205" lon="0.09983">
        <ele>149.4</ele>
        <time>2020-05-30T17:20:22Z</time>
      </trkpt>
      <trkpt lat="46.52049" lon="0.09976">
        <ele>149.5</ele>
        <time>2020-05-30T17:20:23Z</time>
      </trkpt>
      <trkpt lat="46.52048" lon="0.09968">
        <ele>149.5</ele>
        <time>2020-05-30T17:20:24Z</time>
      </trkpt>
      <trkpt lat="46.52047" lon="0.0996">
        <ele>149.5</ele>
        <time>2020-05-30T17:20:25Z</time>
      </trkpt>
      <trkpt lat="46.52046" lon="0.09952">
        <ele>149.5</ele>
        <time>2020-05-30T17:20:26Z</time>
      </trkpt>
      <trkpt lat="46.52044" lon="0.09944">
        <ele>149.5</ele>
        <time>2020-05-30T17:20:27Z</time>
      </trkpt>
      <trkpt lat="46.52043" lon="0.09935">
        <ele>149.5</ele>
        <time>2020-05-30T17:20:28Z</time>
      </trkpt>
      <trkpt lat="46.52043" lon="0.09927">
        <ele>149.5</ele>
        <time>2020-05-30T17:20:29Z</time>
      </trkpt>
      <trkpt lat="46.52042" lon="0.0992">
        <ele>149.5</ele>
        <time>2020-05-30T17:20:30Z</time>
      </trkpt>
      <trkpt lat="46.52041" lon="0.09912">
        <ele>149.5</ele>
        <time>2020-05-30T17:20:31Z</time>
      </trkpt>
      <trkpt lat="46.5204" lon="0.09904">
        <ele>149.5</ele>
        <time>2020-05-30T17:20:32Z</time>
      </trkpt>
      <trkpt lat="46.52038" lon="0.09895">
        <ele>149.5</ele>
        <time>2020-05-30T17:20:33Z</time>
      </trkpt>
      <trkpt lat="46.52037" lon="0.09888">
        <ele>149.5</ele>
        <time>2020-05-30T17:20:34Z</time>
      </trkpt>
      <trkpt lat="46.52035" lon="0.0988">
        <ele>149.5</ele>
        <time>2020-05-30T17:20:35Z</time>
      </trkpt>
      <trkpt lat="46.52034" lon="0.09871">
        <ele>149.5</ele>
        <time>2020-05-30T17:20:36Z</time>
      </trkpt>
      <trkpt lat="46.52032" lon="0.09863">
        <ele>149.5</ele>
        <time>2020-05-30T17:20:37Z</time>
      </trkpt>
      <trkpt lat="46.52032" lon="0.09854">
        <ele>149.5</ele>
        <time>2020-05-30T17:20:38Z</time>
      </trkpt>
      <trkpt lat="46.52031" lon="0.09846">
        <ele>149.5</ele>
        <time>2020-05-30T17:20:39Z</time>
      </trkpt>
      <trkpt lat="46.5203" lon="0.09837">
        <ele>149.5</ele>
        <time>2020-05-30T17:20:40Z</time>
      </trkpt>
      <trkpt lat="46.52029" lon="0.0983">
        <ele>149.5</ele>
        <time>2020-05-30T17:20:41Z</time>
      </trkpt>
      <trkpt lat="46.52029" lon="0.09821">
        <ele>149.5</ele>
        <time>2020-05-30T17:20:42Z</time>
      </trkpt>
      <trkpt lat="46.52028" lon="0.09812">
        <ele>149.5</ele>
        <time>2020-05-30T17:20:43Z</time>
      </trkpt>
      <trkpt lat="46.52028" lon="0.09803">
        <ele>149.5</ele>
        <time>2020-05-30T17:20:44Z</time>
      </trkpt>
      <trkpt lat="46.52028" lon="0.09795">
        <ele>149.5</ele>
        <time>2020-05-30T17:20:45Z</time>
      </trkpt>
      <trkpt lat="46.52028" lon="0.09787">
        <ele>149.5</ele>
        <time>2020-05-30T17:20:46Z</time>
      </trkpt>
      <trkpt lat="46.52028" lon="0.0978">
        <ele>149.5</ele>
        <time>2020-05-30T17:20:47Z</time>
      </trkpt>
      <trkpt lat="46.52029" lon="0.0977">
        <ele>149.4</ele>
        <time>2020-05-30T17:20:48Z</time>
      </trkpt>
      <trkpt lat="46.5203" lon="0.09761">
        <ele>149.3</ele>
        <time>2020-05-30T17:20:49Z</time>
      </trkpt>
      <trkpt lat="46.52031" lon="0.09752">
        <ele>149.2</ele>
        <time>2020-05-30T17:20:50Z</time>
      </trkpt>
      <trkpt lat="46.52032" lon="0.09744">
        <ele>149.1</ele>
        <time>2020-05-30T17:20:51Z</time>
      </trkpt>
      <trkpt lat="46.52032" lon="0.09732">
        <ele>149</ele>
        <time>2020-05-30T17:20:52Z</time>
      </trkpt>
      <trkpt lat="46.52033" lon="0.09721">
        <ele>148.8</ele>
        <time>2020-05-30T17:20:53Z</time>
      </trkpt>
      <trkpt lat="46.52034" lon="0.09712">
        <ele>148.7</ele>
        <time>2020-05-30T17:20:54Z</time>
      </trkpt>
      <trkpt lat="46.52034" lon="0.09702">
        <ele>148.6</ele>
        <time>2020-05-30T17:20:55Z</time>
      </trkpt>
      <trkpt lat="46.52035" lon="0.09692">
        <ele>148.4</ele>
        <time>2020-05-30T17:20:56Z</time>
      </trkpt>
      <trkpt lat="46.52035" lon="0.09682">
        <ele>148.3</ele>
        <time>2020-05-30T17:20:57Z</time>
      </trkpt>
      <trkpt lat="46.52036" lon="0.09672">
        <ele>148.2</ele>
        <time>2020-05-30T17:20:58Z</time>
      </trkpt>
      <trkpt lat="46.52037" lon="0.09662">
        <ele>148</ele>
        <time>2020-05-30T17:20:59Z</time>
      </trkpt>
      <trkpt lat="46.52038" lon="0.09651">
        <ele>147.9</ele>
        <time>2020-05-30T17:21:00Z</time>
      </trkpt>
      <trkpt lat="46.52039" lon="0.09641">
        <ele>147.8</ele>
        <time>2020-05-30T17:21:01Z</time>
      </trkpt>
      <trkpt lat="46.52039" lon="0.09631">
        <ele>147.6</ele>
        <time>2020-05-30T17:21:02Z</time>
      </trkpt>
      <trkpt lat="46.5204" lon="0.09621">
        <ele>147.5</ele>
        <time>2020-05-30T17:21:03Z</time>
      </trkpt>
      <trkpt lat="46.5204" lon="0.09612">
        <ele>147.5</ele>
        <time>2020-05-30T17:21:04Z</time>
      </trkpt>
      <trkpt lat="46.52042" lon="0.09602">
        <ele>147.4</ele>
        <time>2020-05-30T17:21:05Z</time>
      </trkpt>
      <trkpt lat="46.52042" lon="0.09593">
        <ele>147.3</ele>
        <time>2020-05-30T17:21:06Z</time>
      </trkpt>
      <trkpt lat="46.52042" lon="0.09585">
        <ele>147.3</ele>
        <time>2020-05-30T17:21:07Z</time>
      </trkpt>
      <trkpt lat="46.52043" lon="0.09576">
        <ele>147.3</ele>
        <time>2020-05-30T17:21:08Z</time>
      </trkpt>
      <trkpt lat="46.52043" lon="0.09567">
        <ele>147.3</ele>
        <time>2020-05-30T17:21:09Z</time>
      </trkpt>
      <trkpt lat="46.52044" lon="0.09558">
        <ele>147.3</ele>
        <time>2020-05-30T17:21:10Z</time>
      </trkpt>
      <trkpt lat="46.52044" lon="0.0955">
        <ele>147.3</ele>
        <time>2020-05-30T17:21:11Z</time>
      </trkpt>
      <trkpt lat="46.52045" lon="0.09541">
        <ele>147.4</ele>
        <time>2020-05-30T17:21:12Z</time>
      </trkpt>
      <trkpt lat="46.52045" lon="0.09532">
        <ele>147.4</ele>
        <time>2020-05-30T17:21:13Z</time>
      </trkpt>
      <trkpt lat="46.52044" lon="0.09523">
        <ele>147.4</ele>
        <time>2020-05-30T17:21:14Z</time>
      </trkpt>
      <trkpt lat="46.52045" lon="0.09515">
        <ele>147.5</ele>
        <time>2020-05-30T17:21:15Z</time>
      </trkpt>
      <trkpt lat="46.52046" lon="0.09507">
        <ele>147.5</ele>
        <time>2020-05-30T17:21:16Z</time>
      </trkpt>
      <trkpt lat="46.52047" lon="0.09499">
        <ele>147.5</ele>
        <time>2020-05-30T17:21:17Z</time>
      </trkpt>
      <trkpt lat="46.52048" lon="0.09491">
        <ele>147.6</ele>
        <time>2020-05-30T17:21:18Z</time>
      </trkpt>
      <trkpt lat="46.52049" lon="0.09483">
        <ele>147.6</ele>
        <time>2020-05-30T17:21:19Z</time>
      </trkpt>
      <trkpt lat="46.5205" lon="0.09476">
        <ele>147.7</ele>
        <time>2020-05-30T17:21:20Z</time>
      </trkpt>
      <trkpt lat="46.52049" lon="0.09468">
        <ele>147.8</ele>
        <time>2020-05-30T17:21:21Z</time>
      </trkpt>
      <trkpt lat="46.52049" lon="0.0946">
        <ele>147.8</ele>
        <time>2020-05-30T17:21:22Z</time>
      </trkpt>
      <trkpt lat="46.52049" lon="0.09453">
        <ele>147.9</ele>
        <time>2020-05-30T17:21:23Z</time>
      </trkpt>
      <trkpt lat="46.5205" lon="0.09445">
        <ele>148</ele>
        <time>2020-05-30T17:21:24Z</time>
      </trkpt>
      <trkpt lat="46.5205" lon="0.09438">
        <ele>148</ele>
        <time>2020-05-30T17:21:25Z</time>
      </trkpt>
      <trkpt lat="46.5205" lon="0.0943">
        <ele>148.1</ele>
        <time>2020-05-30T17:21:26Z</time>
      </trkpt>
      <trkpt lat="46.52052" lon="0.09422">
        <ele>148.2</ele>
        <time>2020-05-30T17:21:27Z</time>
      </trkpt>
      <trkpt lat="46.52054" lon="0.09414">
        <ele>148.2</ele>
        <time>2020-05-30T17:21:28Z</time>
      </trkpt>
      <trkpt lat="46.52054" lon="0.09407">
        <ele>148.3</ele>
        <time>2020-05-30T17:21:29Z</time>
      </trkpt>
      <trkpt lat="46.52056" lon="0.09399">
        <ele>148.4</ele>
        <time>2020-05-30T17:21:30Z</time>
      </trkpt>
      <trkpt lat="46.52057" lon="0.09392">
        <ele>148.5</ele>
        <time>2020-05-30T17:21:31Z</time>
      </trkpt>
      <trkpt lat="46.52058" lon="0.09384">
        <ele>148.5</ele>
        <time>2020-05-30T17:21:32Z</time>
      </trkpt>
      <trkpt lat="46.5206" lon="0.09377">
        <ele>148.6</ele>
        <time>2020-05-30T17:21:33Z</time>
      </trkpt>
      <trkpt lat="46.52061" lon="0.0937">
        <ele>148.6</ele>
        <time>2020-05-30T17:21:34Z</time>
      </trkpt>
      <trkpt lat="46.52063" lon="0.09363">
        <ele>148.7</ele>
        <time>2020-05-30T17:21:35Z</time>
      </trkpt>
      <trkpt lat="46.52064" lon="0.09356">
        <ele>148.7</ele>
        <time>2020-05-30T17:21:36Z</time>
      </trkpt>
      <trkpt lat="46.52065" lon="0.09348">
        <ele>148.8</ele>
        <time>2020-05-30T17:21:37Z</time>
      </trkpt>
      <trkpt lat="46.52067" lon="0.09341">
        <ele>148.9</ele>
        <time>2020-05-30T17:21:38Z</time>
      </trkpt>
      <trkpt lat="46.52069" lon="0.09334">
        <ele>148.9</ele>
        <time>2020-05-30T17:21:39Z</time>
      </trkpt>
      <trkpt lat="46.5207" lon="0.09327">
        <ele>149</ele>
        <time>2020-05-30T17:21:40Z</time>
      </trkpt>
      <trkpt lat="46.52073" lon="0.09321">
        <ele>149</ele>
        <time>2020-05-30T17:21:41Z</time>
      </trkpt>
      <trkpt lat="46.52075" lon="0.09314">
        <ele>149.1</ele>
        <time>2020-05-30T17:21:42Z</time>
      </trkpt>
      <trkpt lat="46.52077" lon="0.09306">
        <ele>149.1</ele>
        <time>2020-05-30T17:21:43Z</time>
      </trkpt>
      <trkpt lat="46.52078" lon="0.09298">
        <ele>149.2</ele>
        <time>2020-05-30T17:21:44Z</time>
      </trkpt>
      <trkpt lat="46.5208" lon="0.0929">
        <ele>149.2</ele>
        <time>2020-05-30T17:21:45Z</time>
      </trkpt>
      <trkpt lat="46.52082" lon="0.09283">
        <ele>149.3</ele>
        <time>2020-05-30T17:21:46Z</time>
      </trkpt>
      <trkpt lat="46.52083" lon="0.09275">
        <ele>149.3</ele>
        <time>2020-05-30T17:21:47Z</time>
      </trkpt>
      <trkpt lat="46.52084" lon="0.09268">
        <ele>149.3</ele>
        <time>2020-05-30T17:21:48Z</time>
      </trkpt>
      <trkpt lat="46.52086" lon="0.09262">
        <ele>149.3</ele>
        <time>2020-05-30T17:21:49Z</time>
      </trkpt>
      <trkpt lat="46.52088" lon="0.09255">
        <ele>149.3</ele>
        <time>2020-05-30T17:21:50Z</time>
      </trkpt>
      <trkpt lat="46.5209" lon="0.09248">
        <ele>149.3</ele>
        <time>2020-05-30T17:21:51Z</time>
      </trkpt>
      <trkpt lat="46.52091" lon="0.09241">
        <ele>149.3</ele>
        <time>2020-05-30T17:21:52Z</time>
      </trkpt>
      <trkpt lat="46.52093" lon="0.09233">
        <ele>149.3</ele>
        <time>2020-05-30T17:21:53Z</time>
      </trkpt>
      <trkpt lat="46.52095" lon="0.09225">
        <ele>149.3</ele>
        <time>2020-05-30T17:21:54Z</time>
      </trkpt>
      <trkpt lat="46.52097" lon="0.09217">
        <ele>149.2</ele>
        <time>2020-05-30T17:21:55Z</time>
      </trkpt>
      <trkpt lat="46.521" lon="0.0921">
        <ele>149.2</ele>
        <time>2020-05-30T17:21:56Z</time>
      </trkpt>
      <trkpt lat="46.52101" lon="0.09202">
        <ele>149.2</ele>
        <time>2020-05-30T17:21:57Z</time>
      </trkpt>
      <trkpt lat="46.52103" lon="0.09194">
        <ele>149.1</ele>
        <time>2020-05-30T17:21:58Z</time>
      </trkpt>
      <trkpt lat="46.52105" lon="0.09186">
        <ele>149.1</ele>
        <time>2020-05-30T17:21:59Z</time>
      </trkpt>
      <trkpt lat="46.52107" lon="0.09178">
        <ele>149</ele>
        <time>2020-05-30T17:22:00Z</time>
      </trkpt>
      <trkpt lat="46.52109" lon="0.0917">
        <ele>148.9</ele>
        <time>2020-05-30T17:22:01Z</time>
      </trkpt>
      <trkpt lat="46.52111" lon="0.09161">
        <ele>148.9</ele>
        <time>2020-05-30T17:22:02Z</time>
      </trkpt>
      <trkpt lat="46.52112" lon="0.09153">
        <ele>148.9</ele>
        <time>2020-05-30T17:22:03Z</time>
      </trkpt>
      <trkpt lat="46.52115" lon="0.09145">
        <ele>148.8</ele>
        <time>2020-05-30T17:22:04Z</time>
      </trkpt>
      <trkpt lat="46.52118" lon="0.09137">
        <ele>148.8</ele>
        <time>2020-05-30T17:22:05Z</time>
      </trkpt>
      <trkpt lat="46.5212" lon="0.09129">
        <ele>148.7</ele>
        <time>2020-05-30T17:22:06Z</time>
      </trkpt>
      <trkpt lat="46.52122" lon="0.0912">
        <ele>148.7</ele>
        <time>2020-05-30T17:22:07Z</time>
      </trkpt>
      <trkpt lat="46.52132" lon="0.09116">
        <ele>148.5</ele>
        <time>2020-05-30T17:22:08Z</time>
      </trkpt>
      <trkpt lat="46.52132" lon="0.09107">
        <ele>148.4</ele>
        <time>2020-05-30T17:22:09Z</time>
      </trkpt>
      <trkpt lat="46.52134" lon="0.09099">
        <ele>148.4</ele>
        <time>2020-05-30T17:22:10Z</time>
      </trkpt>
      <trkpt lat="46.52136" lon="0.09091">
        <ele>148.3</ele>
        <time>2020-05-30T17:22:11Z</time>
      </trkpt>
      <trkpt lat="46.52138" lon="0.09083">
        <ele>148.2</ele>
        <time>2020-05-30T17:22:12Z</time>
      </trkpt>
      <trkpt lat="46.52139" lon="0.09075">
        <ele>148.2</ele>
        <time>2020-05-30T17:22:13Z</time>
      </trkpt>
      <trkpt lat="46.52141" lon="0.09068">
        <ele>148.2</ele>
        <time>2020-05-30T17:22:14Z</time>
      </trkpt>
      <trkpt lat="46.52142" lon="0.0906">
        <ele>148.1</ele>
        <time>2020-05-30T17:22:15Z</time>
      </trkpt>
      <trkpt lat="46.52142" lon="0.09053">
        <ele>148.1</ele>
        <time>2020-05-30T17:22:16Z</time>
      </trkpt>
      <trkpt lat="46.5214" lon="0.09045">
        <ele>148.1</ele>
        <time>2020-05-30T17:22:17Z</time>
      </trkpt>
      <trkpt lat="46.52142" lon="0.09037">
        <ele>148</ele>
        <time>2020-05-30T17:22:18Z</time>
      </trkpt>
      <trkpt lat="46.52142" lon="0.09028">
        <ele>148</ele>
        <time>2020-05-30T17:22:19Z</time>
      </trkpt>
      <trkpt lat="46.52143" lon="0.0902">
        <ele>147.9</ele>
        <time>2020-05-30T17:22:20Z</time>
      </trkpt>
      <trkpt lat="46.52142" lon="0.09012">
        <ele>147.9</ele>
        <time>2020-05-30T17:22:21Z</time>
      </trkpt>
      <trkpt lat="46.52142" lon="0.09004">
        <ele>147.8</ele>
        <time>2020-05-30T17:22:22Z</time>
      </trkpt>
      <trkpt lat="46.52142" lon="0.08997">
        <ele>147.8</ele>
        <time>2020-05-30T17:22:23Z</time>
      </trkpt>
      <trkpt lat="46.52141" lon="0.0899">
        <ele>147.8</ele>
        <time>2020-05-30T17:22:24Z</time>
      </trkpt>
      <trkpt lat="46.5214" lon="0.08983">
        <ele>147.8</ele>
        <time>2020-05-30T17:22:25Z</time>
      </trkpt>
      <trkpt lat="46.52139" lon="0.08976">
        <ele>147.8</ele>
        <time>2020-05-30T17:22:26Z</time>
      </trkpt>
      <trkpt lat="46.52139" lon="0.08968">
        <ele>147.8</ele>
        <time>2020-05-30T17:22:27Z</time>
      </trkpt>
      <trkpt lat="46.52139" lon="0.0896">
        <ele>147.8</ele>
        <time>2020-05-30T17:22:28Z</time>
      </trkpt>
      <trkpt lat="46.52139" lon="0.08952">
        <ele>147.8</ele>
        <time>2020-05-30T17:22:29Z</time>
      </trkpt>
      <trkpt lat="46.52138" lon="0.08945">
        <ele>147.8</ele>
        <time>2020-05-30T17:22:30Z</time>
      </trkpt>
      <trkpt lat="46.52138" lon="0.08937">
        <ele>147.8</ele>
        <time>2020-05-30T17:22:31Z</time>
      </trkpt>
      <trkpt lat="46.52138" lon="0.08929">
        <ele>147.8</ele>
        <time>2020-05-30T17:22:32Z</time>
      </trkpt>
      <trkpt lat="46.52137" lon="0.08921">
        <ele>147.8</ele>
        <time>2020-05-30T17:22:33Z</time>
      </trkpt>
      <trkpt lat="46.52137" lon="0.08913">
        <ele>147.8</ele>
        <time>2020-05-30T17:22:34Z</time>
      </trkpt>
      <trkpt lat="46.52137" lon="0.08904">
        <ele>147.8</ele>
        <time>2020-05-30T17:22:35Z</time>
      </trkpt>
      <trkpt lat="46.52136" lon="0.08895">
        <ele>147.8</ele>
        <time>2020-05-30T17:22:36Z</time>
      </trkpt>
      <trkpt lat="46.52136" lon="0.08886">
        <ele>147.9</ele>
        <time>2020-05-30T17:22:37Z</time>
      </trkpt>
      <trkpt lat="46.52136" lon="0.08878">
        <ele>147.9</ele>
        <time>2020-05-30T17:22:38Z</time>
      </trkpt>
      <trkpt lat="46.52135" lon="0.08869">
        <ele>147.9</ele>
        <time>2020-05-30T17:22:39Z</time>
      </trkpt>
      <trkpt lat="46.52135" lon="0.08861">
        <ele>147.9</ele>
        <time>2020-05-30T17:22:40Z</time>
      </trkpt>
      <trkpt lat="46.52134" lon="0.08852">
        <ele>147.9</ele>
        <time>2020-05-30T17:22:41Z</time>
      </trkpt>
      <trkpt lat="46.52134" lon="0.08843">
        <ele>147.9</ele>
        <time>2020-05-30T17:22:42Z</time>
      </trkpt>
      <trkpt lat="46.52134" lon="0.08835">
        <ele>147.9</ele>
        <time>2020-05-30T17:22:43Z</time>
      </trkpt>
      <trkpt lat="46.52133" lon="0.08826">
        <ele>148</ele>
        <time>2020-05-30T17:22:44Z</time>
      </trkpt>
      <trkpt lat="46.52133" lon="0.08817">
        <ele>148</ele>
        <time>2020-05-30T17:22:45Z</time>
      </trkpt>
      <trkpt lat="46.52133" lon="0.08809">
        <ele>148.1</ele>
        <time>2020-05-30T17:22:46Z</time>
      </trkpt>
      <trkpt lat="46.52132" lon="0.08801">
        <ele>148.1</ele>
        <time>2020-05-30T17:22:47Z</time>
      </trkpt>
      <trkpt lat="46.52132" lon="0.08793">
        <ele>148.3</ele>
        <time>2020-05-30T17:22:48Z</time>
      </trkpt>
      <trkpt lat="46.52132" lon="0.08784">
        <ele>148.4</ele>
        <time>2020-05-30T17:22:49Z</time>
      </trkpt>
      <trkpt lat="46.52131" lon="0.08777">
        <ele>148.5</ele>
        <time>2020-05-30T17:22:50Z</time>
      </trkpt>
      <trkpt lat="46.52131" lon="0.08768">
        <ele>148.6</ele>
        <time>2020-05-30T17:22:51Z</time>
      </trkpt>
      <trkpt lat="46.52131" lon="0.0876">
        <ele>148.7</ele>
        <time>2020-05-30T17:22:52Z</time>
      </trkpt>
      <trkpt lat="46.5213" lon="0.08752">
        <ele>148.8</ele>
        <time>2020-05-30T17:22:53Z</time>
      </trkpt>
      <trkpt lat="46.5213" lon="0.08743">
        <ele>148.9</ele>
        <time>2020-05-30T17:22:54Z</time>
      </trkpt>
      <trkpt lat="46.52129" lon="0.08735">
        <ele>149</ele>
        <time>2020-05-30T17:22:55Z</time>
      </trkpt>
      <trkpt lat="46.52129" lon="0.08727">
        <ele>149</ele>
        <time>2020-05-30T17:22:56Z</time>
      </trkpt>
      <trkpt lat="46.52129" lon="0.08719">
        <ele>149.1</ele>
        <time>2020-05-30T17:22:57Z</time>
      </trkpt>
      <trkpt lat="46.52129" lon="0.08711">
        <ele>149.1</ele>
        <time>2020-05-30T17:22:58Z</time>
      </trkpt>
      <trkpt lat="46.52128" lon="0.08702">
        <ele>149.2</ele>
        <time>2020-05-30T17:22:59Z</time>
      </trkpt>
      <trkpt lat="46.52128" lon="0.08694">
        <ele>149.2</ele>
        <time>2020-05-30T17:23:00Z</time>
      </trkpt>
      <trkpt lat="46.52128" lon="0.08687">
        <ele>149.3</ele>
        <time>2020-05-30T17:23:01Z</time>
      </trkpt>
      <trkpt lat="46.52127" lon="0.08679">
        <ele>149.3</ele>
        <time>2020-05-30T17:23:02Z</time>
      </trkpt>
      <trkpt lat="46.52127" lon="0.08671">
        <ele>149.3</ele>
        <time>2020-05-30T17:23:03Z</time>
      </trkpt>
      <trkpt lat="46.52126" lon="0.08663">
        <ele>149.4</ele>
        <time>2020-05-30T17:23:04Z</time>
      </trkpt>
      <trkpt lat="46.52126" lon="0.08655">
        <ele>149.4</ele>
        <time>2020-05-30T17:23:05Z</time>
      </trkpt>
      <trkpt lat="46.52126" lon="0.08647">
        <ele>149.4</ele>
        <time>2020-05-30T17:23:06Z</time>
      </trkpt>
      <trkpt lat="46.52126" lon="0.08639">
        <ele>149.5</ele>
        <time>2020-05-30T17:23:07Z</time>
      </trkpt>
      <trkpt lat="46.52125" lon="0.08632">
        <ele>149.5</ele>
        <time>2020-05-30T17:23:08Z</time>
      </trkpt>
      <trkpt lat="46.52125" lon="0.08624">
        <ele>149.6</ele>
        <time>2020-05-30T17:23:09Z</time>
      </trkpt>
      <trkpt lat="46.52125" lon="0.08615">
        <ele>149.6</ele>
        <time>2020-05-30T17:23:10Z</time>
      </trkpt>
      <trkpt lat="46.52124" lon="0.08607">
        <ele>149.7</ele>
        <time>2020-05-30T17:23:11Z</time>
      </trkpt>
      <trkpt lat="46.52124" lon="0.08599">
        <ele>149.7</ele>
        <time>2020-05-30T17:23:12Z</time>
      </trkpt>
      <trkpt lat="46.52124" lon="0.08591">
        <ele>149.8</ele>
        <time>2020-05-30T17:23:13Z</time>
      </trkpt>
      <trkpt lat="46.52124" lon="0.08583">
        <ele>149.8</ele>
        <time>2020-05-30T17:23:14Z</time>
      </trkpt>
      <trkpt lat="46.52124" lon="0.08576">
        <ele>149.9</ele>
        <time>2020-05-30T17:23:15Z</time>
      </trkpt>
      <trkpt lat="46.52123" lon="0.08568">
        <ele>149.9</ele>
        <time>2020-05-30T17:23:16Z</time>
      </trkpt>
      <trkpt lat="46.52123" lon="0.08561">
        <ele>149.9</ele>
        <time>2020-05-30T17:23:17Z</time>
      </trkpt>
      <trkpt lat="46.52123" lon="0.08553">
        <ele>150</ele>
        <time>2020-05-30T17:23:18Z</time>
      </trkpt>
      <trkpt lat="46.52122" lon="0.08546">
        <ele>150</ele>
        <time>2020-05-30T17:23:19Z</time>
      </trkpt>
      <trkpt lat="46.52123" lon="0.08538">
        <ele>150.1</ele>
        <time>2020-05-30T17:23:20Z</time>
      </trkpt>
      <trkpt lat="46.52123" lon="0.08531">
        <ele>150.1</ele>
        <time>2020-05-30T17:23:21Z</time>
      </trkpt>
      <trkpt lat="46.52122" lon="0.08523">
        <ele>150.2</ele>
        <time>2020-05-30T17:23:22Z</time>
      </trkpt>
      <trkpt lat="46.52122" lon="0.08515">
        <ele>150.2</ele>
        <time>2020-05-30T17:23:23Z</time>
      </trkpt>
      <trkpt lat="46.52122" lon="0.08508">
        <ele>150.3</ele>
        <time>2020-05-30T17:23:24Z</time>
      </trkpt>
      <trkpt lat="46.52121" lon="0.085">
        <ele>150.3</ele>
        <time>2020-05-30T17:23:25Z</time>
      </trkpt>
      <trkpt lat="46.5212" lon="0.08493">
        <ele>150.4</ele>
        <time>2020-05-30T17:23:26Z</time>
      </trkpt>
      <trkpt lat="46.5212" lon="0.08485">
        <ele>150.5</ele>
        <time>2020-05-30T17:23:27Z</time>
      </trkpt>
      <trkpt lat="46.5212" lon="0.08478">
        <ele>150.5</ele>
        <time>2020-05-30T17:23:28Z</time>
      </trkpt>
      <trkpt lat="46.52119" lon="0.0847">
        <ele>150.6</ele>
        <time>2020-05-30T17:23:29Z</time>
      </trkpt>
      <trkpt lat="46.52119" lon="0.08463">
        <ele>150.7</ele>
        <time>2020-05-30T17:23:30Z</time>
      </trkpt>
      <trkpt lat="46.52118" lon="0.08456">
        <ele>150.7</ele>
        <time>2020-05-30T17:23:31Z</time>
      </trkpt>
      <trkpt lat="46.52117" lon="0.08449">
        <ele>150.8</ele>
        <time>2020-05-30T17:23:32Z</time>
      </trkpt>
      <trkpt lat="46.52116" lon="0.08442">
        <ele>150.9</ele>
        <time>2020-05-30T17:23:33Z</time>
      </trkpt>
      <trkpt lat="46.52116" lon="0.08434">
        <ele>151</ele>
        <time>2020-05-30T17:23:34Z</time>
      </trkpt>
      <trkpt lat="46.52115" lon="0.08427">
        <ele>151</ele>
        <time>2020-05-30T17:23:35Z</time>
      </trkpt>
      <trkpt lat="46.52114" lon="0.08419">
        <ele>151.1</ele>
        <time>2020-05-30T17:23:36Z</time>
      </trkpt>
      <trkpt lat="46.52113" lon="0.08412">
        <ele>151.1</ele>
        <time>2020-05-30T17:23:37Z</time>
      </trkpt>
      <trkpt lat="46.52112" lon="0.08404">
        <ele>151.2</ele>
        <time>2020-05-30T17:23:38Z</time>
      </trkpt>
      <trkpt lat="46.52111" lon="0.08396">
        <ele>151.2</ele>
        <time>2020-05-30T17:23:39Z</time>
      </trkpt>
      <trkpt lat="46.52111" lon="0.08388">
        <ele>151.2</ele>
        <time>2020-05-30T17:23:40Z</time>
      </trkpt>
      <trkpt lat="46.5211" lon="0.0838">
        <ele>151.2</ele>
        <time>2020-05-30T17:23:41Z</time>
      </trkpt>
      <trkpt lat="46.5211" lon="0.0837">
        <ele>151.2</ele>
        <time>2020-05-30T17:23:42Z</time>
      </trkpt>
      <trkpt lat="46.5211" lon="0.0836">
        <ele>151.2</ele>
        <time>2020-05-30T17:23:43Z</time>
      </trkpt>
      <trkpt lat="46.52112" lon="0.08352">
        <ele>151.3</ele>
        <time>2020-05-30T17:23:44Z</time>
      </trkpt>
      <trkpt lat="46.52112" lon="0.08343">
        <ele>151.4</ele>
        <time>2020-05-30T17:23:45Z</time>
      </trkpt>
      <trkpt lat="46.52112" lon="0.08333">
        <ele>151.5</ele>
        <time>2020-05-30T17:23:46Z</time>
      </trkpt>
      <trkpt lat="46.52112" lon="0.08325">
        <ele>151.6</ele>
        <time>2020-05-30T17:23:47Z</time>
      </trkpt>
      <trkpt lat="46.52111" lon="0.08317">
        <ele>151.7</ele>
        <time>2020-05-30T17:23:48Z</time>
      </trkpt>
      <trkpt lat="46.5211" lon="0.08309">
        <ele>151.8</ele>
        <time>2020-05-30T17:23:49Z</time>
      </trkpt>
      <trkpt lat="46.5211" lon="0.08301">
        <ele>151.9</ele>
        <time>2020-05-30T17:23:50Z</time>
      </trkpt>
      <trkpt lat="46.5211" lon="0.08294">
        <ele>152</ele>
        <time>2020-05-30T17:23:51Z</time>
      </trkpt>
      <trkpt lat="46.52108" lon="0.08284">
        <ele>152</ele>
        <time>2020-05-30T17:23:52Z</time>
      </trkpt>
      <trkpt lat="46.52108" lon="0.08276">
        <ele>152.1</ele>
        <time>2020-05-30T17:23:53Z</time>
      </trkpt>
      <trkpt lat="46.52108" lon="0.0827">
        <ele>152.1</ele>
        <time>2020-05-30T17:23:54Z</time>
      </trkpt>
      <trkpt lat="46.52107" lon="0.08263">
        <ele>152.1</ele>
        <time>2020-05-30T17:23:55Z</time>
      </trkpt>
      <trkpt lat="46.52106" lon="0.08255">
        <ele>152.2</ele>
        <time>2020-05-30T17:23:56Z</time>
      </trkpt>
      <trkpt lat="46.52106" lon="0.08247">
        <ele>152.2</ele>
        <time>2020-05-30T17:23:57Z</time>
      </trkpt>
      <trkpt lat="46.52105" lon="0.08239">
        <ele>152.3</ele>
        <time>2020-05-30T17:23:58Z</time>
      </trkpt>
      <trkpt lat="46.52104" lon="0.08231">
        <ele>152.3</ele>
        <time>2020-05-30T17:23:59Z</time>
      </trkpt>
      <trkpt lat="46.52103" lon="0.08222">
        <ele>152.4</ele>
        <time>2020-05-30T17:24:00Z</time>
      </trkpt>
      <trkpt lat="46.52103" lon="0.08214">
        <ele>152.5</ele>
        <time>2020-05-30T17:24:01Z</time>
      </trkpt>
      <trkpt lat="46.52102" lon="0.08206">
        <ele>152.5</ele>
        <time>2020-05-30T17:24:02Z</time>
      </trkpt>
      <trkpt lat="46.52102" lon="0.08197">
        <ele>152.6</ele>
        <time>2020-05-30T17:24:03Z</time>
      </trkpt>
      <trkpt lat="46.52102" lon="0.08189">
        <ele>152.7</ele>
        <time>2020-05-30T17:24:04Z</time>
      </trkpt>
      <trkpt lat="46.52101" lon="0.08181">
        <ele>152.8</ele>
        <time>2020-05-30T17:24:05Z</time>
      </trkpt>
      <trkpt lat="46.52099" lon="0.08174">
        <ele>152.8</ele>
        <time>2020-05-30T17:24:06Z</time>
      </trkpt>
      <trkpt lat="46.52098" lon="0.08166">
        <ele>152.9</ele>
        <time>2020-05-30T17:24:07Z</time>
      </trkpt>
      <trkpt lat="46.52096" lon="0.08157">
        <ele>152.9</ele>
        <time>2020-05-30T17:24:08Z</time>
      </trkpt>
      <trkpt lat="46.52096" lon="0.08152">
        <ele>152.9</ele>
        <time>2020-05-30T17:24:09Z</time>
      </trkpt>
      <trkpt lat="46.52096" lon="0.08144">
        <ele>153</ele>
        <time>2020-05-30T17:24:10Z</time>
      </trkpt>
      <trkpt lat="46.52096" lon="0.08136">
        <ele>153</ele>
        <time>2020-05-30T17:24:11Z</time>
      </trkpt>
      <trkpt lat="46.52095" lon="0.08129">
        <ele>153.1</ele>
        <time>2020-05-30T17:24:12Z</time>
      </trkpt>
      <trkpt lat="46.52095" lon="0.08122">
        <ele>153.2</ele>
        <time>2020-05-30T17:24:13Z</time>
      </trkpt>
      <trkpt lat="46.52094" lon="0.08114">
        <ele>153.2</ele>
        <time>2020-05-30T17:24:14Z</time>
      </trkpt>
      <trkpt lat="46.52093" lon="0.08105">
        <ele>153.3</ele>
        <time>2020-05-30T17:24:15Z</time>
      </trkpt>
      <trkpt lat="46.52093" lon="0.08099">
        <ele>153.4</ele>
        <time>2020-05-30T17:24:16Z</time>
      </trkpt>
      <trkpt lat="46.52092" lon="0.08092">
        <ele>153.4</ele>
        <time>2020-05-30T17:24:17Z</time>
      </trkpt>
      <trkpt lat="46.52092" lon="0.08083">
        <ele>153.5</ele>
        <time>2020-05-30T17:24:18Z</time>
      </trkpt>
      <trkpt lat="46.52092" lon="0.08076">
        <ele>153.5</ele>
        <time>2020-05-30T17:24:19Z</time>
      </trkpt>
      <trkpt lat="46.52091" lon="0.08068">
        <ele>153.5</ele>
        <time>2020-05-30T17:24:20Z</time>
      </trkpt>
      <trkpt lat="46.5209" lon="0.0806">
        <ele>153.6</ele>
        <time>2020-05-30T17:24:21Z</time>
      </trkpt>
      <trkpt lat="46.52089" lon="0.0805">
        <ele>153.6</ele>
        <time>2020-05-30T17:24:22Z</time>
      </trkpt>
      <trkpt lat="46.52088" lon="0.08045">
        <ele>153.6</ele>
        <time>2020-05-30T17:24:23Z</time>
      </trkpt>
      <trkpt lat="46.52087" lon="0.08037">
        <ele>153.6</ele>
        <time>2020-05-30T17:24:24Z</time>
      </trkpt>
      <trkpt lat="46.52086" lon="0.08031">
        <ele>153.6</ele>
        <time>2020-05-30T17:24:25Z</time>
      </trkpt>
      <trkpt lat="46.52086" lon="0.08022">
        <ele>153.7</ele>
        <time>2020-05-30T17:24:26Z</time>
      </trkpt>
      <trkpt lat="46.52086" lon="0.08015">
        <ele>153.7</ele>
        <time>2020-05-30T17:24:27Z</time>
      </trkpt>
      <trkpt lat="46.52084" lon="0.08007">
        <ele>153.8</ele>
        <time>2020-05-30T17:24:28Z</time>
      </trkpt>
      <trkpt lat="46.52083" lon="0.08">
        <ele>153.8</ele>
        <time>2020-05-30T17:24:29Z</time>
      </trkpt>
      <trkpt lat="46.52082" lon="0.07991">
        <ele>153.9</ele>
        <time>2020-05-30T17:24:30Z</time>
      </trkpt>
      <trkpt lat="46.52082" lon="0.07984">
        <ele>153.9</ele>
        <time>2020-05-30T17:24:31Z</time>
      </trkpt>
      <trkpt lat="46.52081" lon="0.07975">
        <ele>154</ele>
        <time>2020-05-30T17:24:32Z</time>
      </trkpt>
      <trkpt lat="46.52081" lon="0.07967">
        <ele>154</ele>
        <time>2020-05-30T17:24:33Z</time>
      </trkpt>
      <trkpt lat="46.52081" lon="0.07959">
        <ele>154.1</ele>
        <time>2020-05-30T17:24:34Z</time>
      </trkpt>
      <trkpt lat="46.5208" lon="0.07951">
        <ele>154.1</ele>
        <time>2020-05-30T17:24:35Z</time>
      </trkpt>
      <trkpt lat="46.5208" lon="0.07945">
        <ele>154.1</ele>
        <time>2020-05-30T17:24:36Z</time>
      </trkpt>
      <trkpt lat="46.52079" lon="0.07936">
        <ele>154.1</ele>
        <time>2020-05-30T17:24:37Z</time>
      </trkpt>
      <trkpt lat="46.52079" lon="0.07929">
        <ele>154.1</ele>
        <time>2020-05-30T17:24:38Z</time>
      </trkpt>
      <trkpt lat="46.52079" lon="0.07922">
        <ele>154.1</ele>
        <time>2020-05-30T17:24:39Z</time>
      </trkpt>
      <trkpt lat="46.52077" lon="0.07912">
        <ele>154.1</ele>
        <time>2020-05-30T17:24:40Z</time>
      </trkpt>
      <trkpt lat="46.52077" lon="0.07904">
        <ele>154.1</ele>
        <time>2020-05-30T17:24:41Z</time>
      </trkpt>
      <trkpt lat="46.52076" lon="0.07895">
        <ele>154.1</ele>
        <time>2020-05-30T17:24:42Z</time>
      </trkpt>
      <trkpt lat="46.52075" lon="0.07888">
        <ele>154.2</ele>
        <time>2020-05-30T17:24:43Z</time>
      </trkpt>
      <trkpt lat="46.52074" lon="0.0788">
        <ele>154.2</ele>
        <time>2020-05-30T17:24:44Z</time>
      </trkpt>
      <trkpt lat="46.52074" lon="0.07874">
        <ele>154.2</ele>
        <time>2020-05-30T17:24:45Z</time>
      </trkpt>
      <trkpt lat="46.52073" lon="0.07866">
        <ele>154.2</ele>
        <time>2020-05-30T17:24:46Z</time>
      </trkpt>
      <trkpt lat="46.52071" lon="0.07857">
        <ele>154.2</ele>
        <time>2020-05-30T17:24:47Z</time>
      </trkpt>
      <trkpt lat="46.52069" lon="0.07848">
        <ele>154.2</ele>
        <time>2020-05-30T17:24:48Z</time>
      </trkpt>
      <trkpt lat="46.52067" lon="0.07839">
        <ele>154.2</ele>
        <time>2020-05-30T17:24:49Z</time>
      </trkpt>
      <trkpt lat="46.52066" lon="0.07831">
        <ele>154.2</ele>
        <time>2020-05-30T17:24:50Z</time>
      </trkpt>
      <trkpt lat="46.52065" lon="0.07822">
        <ele>154.2</ele>
        <time>2020-05-30T17:24:51Z</time>
      </trkpt>
      <trkpt lat="46.52064" lon="0.07813">
        <ele>154.2</ele>
        <time>2020-05-30T17:24:52Z</time>
      </trkpt>
      <trkpt lat="46.52063" lon="0.07806">
        <ele>154.1</ele>
        <time>2020-05-30T17:24:53Z</time>
      </trkpt>
      <trkpt lat="46.52062" lon="0.07798">
        <ele>154.1</ele>
        <time>2020-05-30T17:24:54Z</time>
      </trkpt>
      <trkpt lat="46.5206" lon="0.07791">
        <ele>154</ele>
        <time>2020-05-30T17:24:55Z</time>
      </trkpt>
      <trkpt lat="46.52059" lon="0.07783">
        <ele>154</ele>
        <time>2020-05-30T17:24:56Z</time>
      </trkpt>
      <trkpt lat="46.52057" lon="0.07776">
        <ele>154</ele>
        <time>2020-05-30T17:24:57Z</time>
      </trkpt>
      <trkpt lat="46.52056" lon="0.07768">
        <ele>153.9</ele>
        <time>2020-05-30T17:24:58Z</time>
      </trkpt>
      <trkpt lat="46.52055" lon="0.0776">
        <ele>153.9</ele>
        <time>2020-05-30T17:24:59Z</time>
      </trkpt>
      <trkpt lat="46.52053" lon="0.07751">
        <ele>153.9</ele>
        <time>2020-05-30T17:25:00Z</time>
      </trkpt>
      <trkpt lat="46.5205" lon="0.07743">
        <ele>153.9</ele>
        <time>2020-05-30T17:25:01Z</time>
      </trkpt>
      <trkpt lat="46.52047" lon="0.07735">
        <ele>153.9</ele>
        <time>2020-05-30T17:25:02Z</time>
      </trkpt>
      <trkpt lat="46.52045" lon="0.07728">
        <ele>153.9</ele>
        <time>2020-05-30T17:25:03Z</time>
      </trkpt>
      <trkpt lat="46.52043" lon="0.07719">
        <ele>153.9</ele>
        <time>2020-05-30T17:25:04Z</time>
      </trkpt>
      <trkpt lat="46.52041" lon="0.07711">
        <ele>153.9</ele>
        <time>2020-05-30T17:25:05Z</time>
      </trkpt>
      <trkpt lat="46.52039" lon="0.07703">
        <ele>153.9</ele>
        <time>2020-05-30T17:25:06Z</time>
      </trkpt>
      <trkpt lat="46.52037" lon="0.07696">
        <ele>153.9</ele>
        <time>2020-05-30T17:25:07Z</time>
      </trkpt>
      <trkpt lat="46.52035" lon="0.07691">
        <ele>153.8</ele>
        <time>2020-05-30T17:25:08Z</time>
      </trkpt>
      <trkpt lat="46.52032" lon="0.07684">
        <ele>153.8</ele>
        <time>2020-05-30T17:25:09Z</time>
      </trkpt>
      <trkpt lat="46.5203" lon="0.07678">
        <ele>153.7</ele>
        <time>2020-05-30T17:25:10Z</time>
      </trkpt>
      <trkpt lat="46.52028" lon="0.07673">
        <ele>153.7</ele>
        <time>2020-05-30T17:25:11Z</time>
      </trkpt>
      <trkpt lat="46.52026" lon="0.07665">
        <ele>153.6</ele>
        <time>2020-05-30T17:25:12Z</time>
      </trkpt>
      <trkpt lat="46.52025" lon="0.0766">
        <ele>153.6</ele>
        <time>2020-05-30T17:25:13Z</time>
      </trkpt>
      <trkpt lat="46.52023" lon="0.07651">
        <ele>153.5</ele>
        <time>2020-05-30T17:25:14Z</time>
      </trkpt>
      <trkpt lat="46.52022" lon="0.07643">
        <ele>153.5</ele>
        <time>2020-05-30T17:25:15Z</time>
      </trkpt>
      <trkpt lat="46.52019" lon="0.07634">
        <ele>153.4</ele>
        <time>2020-05-30T17:25:16Z</time>
      </trkpt>
      <trkpt lat="46.52017" lon="0.07625">
        <ele>153.3</ele>
        <time>2020-05-30T17:25:17Z</time>
      </trkpt>
      <trkpt lat="46.52015" lon="0.07618">
        <ele>153.3</ele>
        <time>2020-05-30T17:25:18Z</time>
      </trkpt>
      <trkpt lat="46.52013" lon="0.07607">
        <ele>153.3</ele>
        <time>2020-05-30T17:25:19Z</time>
      </trkpt>
      <trkpt lat="46.52011" lon="0.07598">
        <ele>153.2</ele>
        <time>2020-05-30T17:25:20Z</time>
      </trkpt>
      <trkpt lat="46.52008" lon="0.0759">
        <ele>153.2</ele>
        <time>2020-05-30T17:25:21Z</time>
      </trkpt>
      <trkpt lat="46.52006" lon="0.07583">
        <ele>153.1</ele>
        <time>2020-05-30T17:25:22Z</time>
      </trkpt>
      <trkpt lat="46.52004" lon="0.07575">
        <ele>153.1</ele>
        <time>2020-05-30T17:25:23Z</time>
      </trkpt>
      <trkpt lat="46.52002" lon="0.07567">
        <ele>153.1</ele>
        <time>2020-05-30T17:25:24Z</time>
      </trkpt>
      <trkpt lat="46.52001" lon="0.07559">
        <ele>153.1</ele>
        <time>2020-05-30T17:25:25Z</time>
      </trkpt>
      <trkpt lat="46.51999" lon="0.07551">
        <ele>153.1</ele>
        <time>2020-05-30T17:25:26Z</time>
      </trkpt>
      <trkpt lat="46.51997" lon="0.07542">
        <ele>153</ele>
        <time>2020-05-30T17:25:27Z</time>
      </trkpt>
      <trkpt lat="46.51995" lon="0.07532">
        <ele>153.1</ele>
        <time>2020-05-30T17:25:28Z</time>
      </trkpt>
      <trkpt lat="46.51992" lon="0.07524">
        <ele>153.1</ele>
        <time>2020-05-30T17:25:29Z</time>
      </trkpt>
      <trkpt lat="46.5199" lon="0.07516">
        <ele>153.1</ele>
        <time>2020-05-30T17:25:30Z</time>
      </trkpt>
      <trkpt lat="46.51988" lon="0.07507">
        <ele>153.1</ele>
        <time>2020-05-30T17:25:31Z</time>
      </trkpt>
      <trkpt lat="46.51985" lon="0.07497">
        <ele>153.1</ele>
        <time>2020-05-30T17:25:32Z</time>
      </trkpt>
      <trkpt lat="46.51982" lon="0.07493">
        <ele>153.1</ele>
        <time>2020-05-30T17:25:33Z</time>
      </trkpt>
      <trkpt lat="46.51979" lon="0.07486">
        <ele>153.1</ele>
        <time>2020-05-30T17:25:34Z</time>
      </trkpt>
      <trkpt lat="46.51976" lon="0.07479">
        <ele>153</ele>
        <time>2020-05-30T17:25:35Z</time>
      </trkpt>
      <trkpt lat="46.51973" lon="0.07473">
        <ele>153</ele>
        <time>2020-05-30T17:25:36Z</time>
      </trkpt>
      <trkpt lat="46.5197" lon="0.07466">
        <ele>153</ele>
        <time>2020-05-30T17:25:37Z</time>
      </trkpt>
      <trkpt lat="46.51968" lon="0.07459">
        <ele>152.9</ele>
        <time>2020-05-30T17:25:38Z</time>
      </trkpt>
      <trkpt lat="46.51966" lon="0.07454">
        <ele>152.9</ele>
        <time>2020-05-30T17:25:39Z</time>
      </trkpt>
      <trkpt lat="46.51963" lon="0.07448">
        <ele>152.8</ele>
        <time>2020-05-30T17:25:40Z</time>
      </trkpt>
      <trkpt lat="46.51961" lon="0.07441">
        <ele>152.7</ele>
        <time>2020-05-30T17:25:41Z</time>
      </trkpt>
      <trkpt lat="46.51958" lon="0.07434">
        <ele>152.6</ele>
        <time>2020-05-30T17:25:42Z</time>
      </trkpt>
      <trkpt lat="46.51956" lon="0.07425">
        <ele>152.4</ele>
        <time>2020-05-30T17:25:43Z</time>
      </trkpt>
      <trkpt lat="46.51953" lon="0.07419">
        <ele>152.3</ele>
        <time>2020-05-30T17:25:44Z</time>
      </trkpt>
      <trkpt lat="46.5195" lon="0.07412">
        <ele>152.3</ele>
        <time>2020-05-30T17:25:45Z</time>
      </trkpt>
      <trkpt lat="46.51947" lon="0.07404">
        <ele>152.2</ele>
        <time>2020-05-30T17:25:46Z</time>
      </trkpt>
      <trkpt lat="46.51945" lon="0.07396">
        <ele>152.2</ele>
        <time>2020-05-30T17:25:47Z</time>
      </trkpt>
      <trkpt lat="46.51941" lon="0.07388">
        <ele>152.2</ele>
        <time>2020-05-30T17:25:48Z</time>
      </trkpt>
      <trkpt lat="46.51939" lon="0.0738">
        <ele>152.2</ele>
        <time>2020-05-30T17:25:49Z</time>
      </trkpt>
      <trkpt lat="46.51935" lon="0.07373">
        <ele>152.2</ele>
        <time>2020-05-30T17:25:50Z</time>
      </trkpt>
      <trkpt lat="46.51933" lon="0.07365">
        <ele>152.2</ele>
        <time>2020-05-30T17:25:51Z</time>
      </trkpt>
      <trkpt lat="46.51931" lon="0.0736">
        <ele>152.2</ele>
        <time>2020-05-30T17:25:52Z</time>
      </trkpt>
      <trkpt lat="46.51928" lon="0.07354">
        <ele>152.1</ele>
        <time>2020-05-30T17:25:53Z</time>
      </trkpt>
      <trkpt lat="46.51926" lon="0.07347">
        <ele>152.1</ele>
        <time>2020-05-30T17:25:54Z</time>
      </trkpt>
      <trkpt lat="46.51923" lon="0.07338">
        <ele>152.1</ele>
        <time>2020-05-30T17:25:55Z</time>
      </trkpt>
      <trkpt lat="46.5192" lon="0.0733">
        <ele>152.1</ele>
        <time>2020-05-30T17:25:56Z</time>
      </trkpt>
      <trkpt lat="46.51917" lon="0.07322">
        <ele>152.1</ele>
        <time>2020-05-30T17:25:57Z</time>
      </trkpt>
      <trkpt lat="46.51914" lon="0.07315">
        <ele>152.1</ele>
        <time>2020-05-30T17:25:58Z</time>
      </trkpt>
      <trkpt lat="46.51912" lon="0.07306">
        <ele>152.1</ele>
        <time>2020-05-30T17:25:59Z</time>
      </trkpt>
      <trkpt lat="46.51909" lon="0.07299">
        <ele>152.1</ele>
        <time>2020-05-30T17:26:00Z</time>
      </trkpt>
      <trkpt lat="46.51906" lon="0.07295">
        <ele>152.1</ele>
        <time>2020-05-30T17:26:01Z</time>
      </trkpt>
      <trkpt lat="46.51904" lon="0.07288">
        <ele>152.1</ele>
        <time>2020-05-30T17:26:02Z</time>
      </trkpt>
      <trkpt lat="46.51901" lon="0.07281">
        <ele>152.1</ele>
        <time>2020-05-30T17:26:03Z</time>
      </trkpt>
      <trkpt lat="46.51897" lon="0.07273">
        <ele>152.1</ele>
        <time>2020-05-30T17:26:04Z</time>
      </trkpt>
      <trkpt lat="46.51893" lon="0.07265">
        <ele>152.1</ele>
        <time>2020-05-30T17:26:05Z</time>
      </trkpt>
      <trkpt lat="46.5189" lon="0.07258">
        <ele>152.1</ele>
        <time>2020-05-30T17:26:06Z</time>
      </trkpt>
      <trkpt lat="46.51887" lon="0.07251">
        <ele>152.2</ele>
        <time>2020-05-30T17:26:07Z</time>
      </trkpt>
      <trkpt lat="46.51884" lon="0.07242">
        <ele>152.2</ele>
        <time>2020-05-30T17:26:08Z</time>
      </trkpt>
      <trkpt lat="46.51882" lon="0.07236">
        <ele>152.2</ele>
        <time>2020-05-30T17:26:09Z</time>
      </trkpt>
      <trkpt lat="46.51879" lon="0.07228">
        <ele>152.3</ele>
        <time>2020-05-30T17:26:10Z</time>
      </trkpt>
      <trkpt lat="46.51877" lon="0.07221">
        <ele>152.3</ele>
        <time>2020-05-30T17:26:11Z</time>
      </trkpt>
      <trkpt lat="46.51873" lon="0.07215">
        <ele>152.3</ele>
        <time>2020-05-30T17:26:12Z</time>
      </trkpt>
      <trkpt lat="46.5187" lon="0.07208">
        <ele>152.4</ele>
        <time>2020-05-30T17:26:13Z</time>
      </trkpt>
      <trkpt lat="46.51868" lon="0.07202">
        <ele>152.4</ele>
        <time>2020-05-30T17:26:14Z</time>
      </trkpt>
      <trkpt lat="46.51865" lon="0.07195">
        <ele>152.5</ele>
        <time>2020-05-30T17:26:15Z</time>
      </trkpt>
      <trkpt lat="46.51862" lon="0.07187">
        <ele>152.5</ele>
        <time>2020-05-30T17:26:16Z</time>
      </trkpt>
      <trkpt lat="46.51859" lon="0.07181">
        <ele>152.5</ele>
        <time>2020-05-30T17:26:17Z</time>
      </trkpt>
      <trkpt lat="46.51858" lon="0.07174">
        <ele>152.5</ele>
        <time>2020-05-30T17:26:18Z</time>
      </trkpt>
      <trkpt lat="46.51856" lon="0.07168">
        <ele>152.6</ele>
        <time>2020-05-30T17:26:19Z</time>
      </trkpt>
      <trkpt lat="46.51853" lon="0.07162">
        <ele>152.6</ele>
        <time>2020-05-30T17:26:20Z</time>
      </trkpt>
      <trkpt lat="46.51851" lon="0.07154">
        <ele>152.6</ele>
        <time>2020-05-30T17:26:21Z</time>
      </trkpt>
      <trkpt lat="46.51848" lon="0.07147">
        <ele>152.7</ele>
        <time>2020-05-30T17:26:22Z</time>
      </trkpt>
      <trkpt lat="46.51846" lon="0.07142">
        <ele>152.7</ele>
        <time>2020-05-30T17:26:23Z</time>
      </trkpt>
      <trkpt lat="46.51843" lon="0.07135">
        <ele>152.7</ele>
        <time>2020-05-30T17:26:24Z</time>
      </trkpt>
      <trkpt lat="46.51839" lon="0.07127">
        <ele>152.8</ele>
        <time>2020-05-30T17:26:25Z</time>
      </trkpt>
      <trkpt lat="46.51836" lon="0.07118">
        <ele>152.8</ele>
        <time>2020-05-30T17:26:26Z</time>
      </trkpt>
      <trkpt lat="46.51833" lon="0.07111">
        <ele>152.8</ele>
        <time>2020-05-30T17:26:27Z</time>
      </trkpt>
      <trkpt lat="46.5183" lon="0.07103">
        <ele>152.9</ele>
        <time>2020-05-30T17:26:28Z</time>
      </trkpt>
      <trkpt lat="46.51827" lon="0.07096">
        <ele>152.9</ele>
        <time>2020-05-30T17:26:29Z</time>
      </trkpt>
      <trkpt lat="46.51824" lon="0.07089">
        <ele>152.9</ele>
        <time>2020-05-30T17:26:30Z</time>
      </trkpt>
      <trkpt lat="46.51822" lon="0.07081">
        <ele>152.9</ele>
        <time>2020-05-30T17:26:31Z</time>
      </trkpt>
      <trkpt lat="46.5182" lon="0.07073">
        <ele>152.9</ele>
        <time>2020-05-30T17:26:32Z</time>
      </trkpt>
      <trkpt lat="46.51817" lon="0.07065">
        <ele>152.9</ele>
        <time>2020-05-30T17:26:33Z</time>
      </trkpt>
      <trkpt lat="46.51814" lon="0.07058">
        <ele>152.9</ele>
        <time>2020-05-30T17:26:34Z</time>
      </trkpt>
      <trkpt lat="46.51812" lon="0.07049">
        <ele>152.9</ele>
        <time>2020-05-30T17:26:35Z</time>
      </trkpt>
      <trkpt lat="46.51809" lon="0.07042">
        <ele>152.9</ele>
        <time>2020-05-30T17:26:36Z</time>
      </trkpt>
      <trkpt lat="46.51806" lon="0.07033">
        <ele>152.9</ele>
        <time>2020-05-30T17:26:37Z</time>
      </trkpt>
      <trkpt lat="46.51804" lon="0.07027">
        <ele>152.9</ele>
        <time>2020-05-30T17:26:38Z</time>
      </trkpt>
      <trkpt lat="46.518" lon="0.07017">
        <ele>152.8</ele>
        <time>2020-05-30T17:26:39Z</time>
      </trkpt>
      <trkpt lat="46.51798" lon="0.0701">
        <ele>152.8</ele>
        <time>2020-05-30T17:26:40Z</time>
      </trkpt>
      <trkpt lat="46.51796" lon="0.07001">
        <ele>152.7</ele>
        <time>2020-05-30T17:26:41Z</time>
      </trkpt>
      <trkpt lat="46.51794" lon="0.06993">
        <ele>152.7</ele>
        <time>2020-05-30T17:26:42Z</time>
      </trkpt>
      <trkpt lat="46.51792" lon="0.06984">
        <ele>152.6</ele>
        <time>2020-05-30T17:26:43Z</time>
      </trkpt>
      <trkpt lat="46.5179" lon="0.06976">
        <ele>152.6</ele>
        <time>2020-05-30T17:26:44Z</time>
      </trkpt>
      <trkpt lat="46.51788" lon="0.06969">
        <ele>152.6</ele>
        <time>2020-05-30T17:26:45Z</time>
      </trkpt>
      <trkpt lat="46.51787" lon="0.06962">
        <ele>152.6</ele>
        <time>2020-05-30T17:26:46Z</time>
      </trkpt>
      <trkpt lat="46.51786" lon="0.06954">
        <ele>152.5</ele>
        <time>2020-05-30T17:26:47Z</time>
      </trkpt>
      <trkpt lat="46.51784" lon="0.06947">
        <ele>152.5</ele>
        <time>2020-05-30T17:26:48Z</time>
      </trkpt>
      <trkpt lat="46.51782" lon="0.06939">
        <ele>152.5</ele>
        <time>2020-05-30T17:26:49Z</time>
      </trkpt>
      <trkpt lat="46.51779" lon="0.0693">
        <ele>152.5</ele>
        <time>2020-05-30T17:26:50Z</time>
      </trkpt>
      <trkpt lat="46.51776" lon="0.0692">
        <ele>152.5</ele>
        <time>2020-05-30T17:26:51Z</time>
      </trkpt>
      <trkpt lat="46.51774" lon="0.06913">
        <ele>152.4</ele>
        <time>2020-05-30T17:26:52Z</time>
      </trkpt>
      <trkpt lat="46.51773" lon="0.06905">
        <ele>152.4</ele>
        <time>2020-05-30T17:26:53Z</time>
      </trkpt>
      <trkpt lat="46.51771" lon="0.06898">
        <ele>152.4</ele>
        <time>2020-05-30T17:26:54Z</time>
      </trkpt>
      <trkpt lat="46.5177" lon="0.06891">
        <ele>152.3</ele>
        <time>2020-05-30T17:26:55Z</time>
      </trkpt>
      <trkpt lat="46.51769" lon="0.06884">
        <ele>152.3</ele>
        <time>2020-05-30T17:26:56Z</time>
      </trkpt>
      <trkpt lat="46.51768" lon="0.06878">
        <ele>152.3</ele>
        <time>2020-05-30T17:26:57Z</time>
      </trkpt>
      <trkpt lat="46.51765" lon="0.06871">
        <ele>152.3</ele>
        <time>2020-05-30T17:26:58Z</time>
      </trkpt>
      <trkpt lat="46.51764" lon="0.06864">
        <ele>152.3</ele>
        <time>2020-05-30T17:26:59Z</time>
      </trkpt>
      <trkpt lat="46.51763" lon="0.06856">
        <ele>152.2</ele>
        <time>2020-05-30T17:27:00Z</time>
      </trkpt>
      <trkpt lat="46.51762" lon="0.06849">
        <ele>152.2</ele>
        <time>2020-05-30T17:27:01Z</time>
      </trkpt>
      <trkpt lat="46.51759" lon="0.06841">
        <ele>152.2</ele>
        <time>2020-05-30T17:27:02Z</time>
      </trkpt>
      <trkpt lat="46.51758" lon="0.06833">
        <ele>152.2</ele>
        <time>2020-05-30T17:27:03Z</time>
      </trkpt>
      <trkpt lat="46.51756" lon="0.06826">
        <ele>152.2</ele>
        <time>2020-05-30T17:27:04Z</time>
      </trkpt>
      <trkpt lat="46.51755" lon="0.06819">
        <ele>152.3</ele>
        <time>2020-05-30T17:27:05Z</time>
      </trkpt>
      <trkpt lat="46.51754" lon="0.06813">
        <ele>152.3</ele>
        <time>2020-05-30T17:27:06Z</time>
      </trkpt>
      <trkpt lat="46.51752" lon="0.06806">
        <ele>152.3</ele>
        <time>2020-05-30T17:27:07Z</time>
      </trkpt>
      <trkpt lat="46.5175" lon="0.06799">
        <ele>152.4</ele>
        <time>2020-05-30T17:27:08Z</time>
      </trkpt>
      <trkpt lat="46.51747" lon="0.0679">
        <ele>152.4</ele>
        <time>2020-05-30T17:27:09Z</time>
      </trkpt>
      <trkpt lat="46.51746" lon="0.06782">
        <ele>152.5</ele>
        <time>2020-05-30T17:27:10Z</time>
      </trkpt>
      <trkpt lat="46.51744" lon="0.06774">
        <ele>152.5</ele>
        <time>2020-05-30T17:27:11Z</time>
      </trkpt>
      <trkpt lat="46.51742" lon="0.06767">
        <ele>152.6</ele>
        <time>2020-05-30T17:27:12Z</time>
      </trkpt>
      <trkpt lat="46.51742" lon="0.06763">
        <ele>152.6</ele>
        <time>2020-05-30T17:27:13Z</time>
      </trkpt>
      <trkpt lat="46.5174" lon="0.06755">
        <ele>152.7</ele>
        <time>2020-05-30T17:27:14Z</time>
      </trkpt>
      <trkpt lat="46.51738" lon="0.06748">
        <ele>152.7</ele>
        <time>2020-05-30T17:27:15Z</time>
      </trkpt>
      <trkpt lat="46.51737" lon="0.06741">
        <ele>152.8</ele>
        <time>2020-05-30T17:27:16Z</time>
      </trkpt>
      <trkpt lat="46.51735" lon="0.06735">
        <ele>152.8</ele>
        <time>2020-05-30T17:27:17Z</time>
      </trkpt>
      <trkpt lat="46.51733" lon="0.06727">
        <ele>152.8</ele>
        <time>2020-05-30T17:27:18Z</time>
      </trkpt>
      <trkpt lat="46.51731" lon="0.06718">
        <ele>152.9</ele>
        <time>2020-05-30T17:27:19Z</time>
      </trkpt>
      <trkpt lat="46.51729" lon="0.06711">
        <ele>152.9</ele>
        <time>2020-05-30T17:27:20Z</time>
      </trkpt>
      <trkpt lat="46.51727" lon="0.06703">
        <ele>153</ele>
        <time>2020-05-30T17:27:21Z</time>
      </trkpt>
      <trkpt lat="46.51726" lon="0.06696">
        <ele>153</ele>
        <time>2020-05-30T17:27:22Z</time>
      </trkpt>
      <trkpt lat="46.51725" lon="0.0669">
        <ele>153</ele>
        <time>2020-05-30T17:27:23Z</time>
      </trkpt>
      <trkpt lat="46.51723" lon="0.06684">
        <ele>153.1</ele>
        <time>2020-05-30T17:27:24Z</time>
      </trkpt>
      <trkpt lat="46.51721" lon="0.06676">
        <ele>153.1</ele>
        <time>2020-05-30T17:27:25Z</time>
      </trkpt>
      <trkpt lat="46.51719" lon="0.06667">
        <ele>153.2</ele>
        <time>2020-05-30T17:27:26Z</time>
      </trkpt>
      <trkpt lat="46.51719" lon="0.06661">
        <ele>153.2</ele>
        <time>2020-05-30T17:27:27Z</time>
      </trkpt>
      <trkpt lat="46.51717" lon="0.06655">
        <ele>153.2</ele>
        <time>2020-05-30T17:27:28Z</time>
      </trkpt>
      <trkpt lat="46.51716" lon="0.06648">
        <ele>153.3</ele>
        <time>2020-05-30T17:27:29Z</time>
      </trkpt>
      <trkpt lat="46.51713" lon="0.0664">
        <ele>153.3</ele>
        <time>2020-05-30T17:27:30Z</time>
      </trkpt>
      <trkpt lat="46.51712" lon="0.06633">
        <ele>153.3</ele>
        <time>2020-05-30T17:27:31Z</time>
      </trkpt>
      <trkpt lat="46.5171" lon="0.06625">
        <ele>153.4</ele>
        <time>2020-05-30T17:27:32Z</time>
      </trkpt>
      <trkpt lat="46.51709" lon="0.06619">
        <ele>153.4</ele>
        <time>2020-05-30T17:27:33Z</time>
      </trkpt>
      <trkpt lat="46.51707" lon="0.06613">
        <ele>153.5</ele>
        <time>2020-05-30T17:27:34Z</time>
      </trkpt>
      <trkpt lat="46.51705" lon="0.06607">
        <ele>153.5</ele>
        <time>2020-05-30T17:27:35Z</time>
      </trkpt>
      <trkpt lat="46.51704" lon="0.06599">
        <ele>153.6</ele>
        <time>2020-05-30T17:27:36Z</time>
      </trkpt>
      <trkpt lat="46.51702" lon="0.06592">
        <ele>153.7</ele>
        <time>2020-05-30T17:27:37Z</time>
      </trkpt>
      <trkpt lat="46.517" lon="0.06585">
        <ele>153.7</ele>
        <time>2020-05-30T17:27:38Z</time>
      </trkpt>
      <trkpt lat="46.51699" lon="0.06579">
        <ele>153.8</ele>
        <time>2020-05-30T17:27:39Z</time>
      </trkpt>
      <trkpt lat="46.51698" lon="0.06573">
        <ele>153.8</ele>
        <time>2020-05-30T17:27:40Z</time>
      </trkpt>
      <trkpt lat="46.51696" lon="0.06565">
        <ele>153.9</ele>
        <time>2020-05-30T17:27:41Z</time>
      </trkpt>
      <trkpt lat="46.51694" lon="0.06559">
        <ele>153.9</ele>
        <time>2020-05-30T17:27:42Z</time>
      </trkpt>
      <trkpt lat="46.51692" lon="0.06553">
        <ele>154</ele>
        <time>2020-05-30T17:27:43Z</time>
      </trkpt>
      <trkpt lat="46.51691" lon="0.06545">
        <ele>154</ele>
        <time>2020-05-30T17:27:44Z</time>
      </trkpt>
      <trkpt lat="46.5169" lon="0.06538">
        <ele>154</ele>
        <time>2020-05-30T17:27:45Z</time>
      </trkpt>
      <trkpt lat="46.51688" lon="0.0653">
        <ele>154.1</ele>
        <time>2020-05-30T17:27:46Z</time>
      </trkpt>
      <trkpt lat="46.51687" lon="0.06523">
        <ele>154.1</ele>
        <time>2020-05-30T17:27:47Z</time>
      </trkpt>
      <trkpt lat="46.51685" lon="0.06516">
        <ele>154.1</ele>
        <time>2020-05-30T17:27:48Z</time>
      </trkpt>
      <trkpt lat="46.51684" lon="0.06511">
        <ele>154.2</ele>
        <time>2020-05-30T17:27:49Z</time>
      </trkpt>
      <trkpt lat="46.51683" lon="0.06505">
        <ele>154.2</ele>
        <time>2020-05-30T17:27:50Z</time>
      </trkpt>
      <trkpt lat="46.51682" lon="0.06498">
        <ele>154.2</ele>
        <time>2020-05-30T17:27:51Z</time>
      </trkpt>
      <trkpt lat="46.51681" lon="0.06492">
        <ele>154.2</ele>
        <time>2020-05-30T17:27:52Z</time>
      </trkpt>
      <trkpt lat="46.51679" lon="0.06485">
        <ele>154.2</ele>
        <time>2020-05-30T17:27:53Z</time>
      </trkpt>
      <trkpt lat="46.51677" lon="0.06478">
        <ele>154.2</ele>
        <time>2020-05-30T17:27:54Z</time>
      </trkpt>
      <trkpt lat="46.51675" lon="0.06471">
        <ele>154.2</ele>
        <time>2020-05-30T17:27:55Z</time>
      </trkpt>
      <trkpt lat="46.51674" lon="0.06464">
        <ele>154.3</ele>
        <time>2020-05-30T17:27:56Z</time>
      </trkpt>
      <trkpt lat="46.51673" lon="0.06457">
        <ele>154.3</ele>
        <time>2020-05-30T17:27:57Z</time>
      </trkpt>
      <trkpt lat="46.51671" lon="0.06449">
        <ele>154.3</ele>
        <time>2020-05-30T17:27:58Z</time>
      </trkpt>
      <trkpt lat="46.5167" lon="0.06441">
        <ele>154.4</ele>
        <time>2020-05-30T17:27:59Z</time>
      </trkpt>
      <trkpt lat="46.51668" lon="0.06432">
        <ele>154.5</ele>
        <time>2020-05-30T17:28:00Z</time>
      </trkpt>
      <trkpt lat="46.51667" lon="0.06424">
        <ele>154.5</ele>
        <time>2020-05-30T17:28:01Z</time>
      </trkpt>
      <trkpt lat="46.51666" lon="0.06415">
        <ele>154.6</ele>
        <time>2020-05-30T17:28:02Z</time>
      </trkpt>
      <trkpt lat="46.51664" lon="0.06406">
        <ele>154.6</ele>
        <time>2020-05-30T17:28:03Z</time>
      </trkpt>
      <trkpt lat="46.51663" lon="0.06398">
        <ele>154.6</ele>
        <time>2020-05-30T17:28:04Z</time>
      </trkpt>
      <trkpt lat="46.51662" lon="0.06391">
        <ele>154.7</ele>
        <time>2020-05-30T17:28:05Z</time>
      </trkpt>
      <trkpt lat="46.51662" lon="0.06384">
        <ele>154.7</ele>
        <time>2020-05-30T17:28:06Z</time>
      </trkpt>
      <trkpt lat="46.51661" lon="0.06377">
        <ele>154.7</ele>
        <time>2020-05-30T17:28:07Z</time>
      </trkpt>
      <trkpt lat="46.5166" lon="0.06369">
        <ele>154.7</ele>
        <time>2020-05-30T17:28:08Z</time>
      </trkpt>
      <trkpt lat="46.51658" lon="0.0636">
        <ele>154.7</ele>
        <time>2020-05-30T17:28:09Z</time>
      </trkpt>
      <trkpt lat="46.51657" lon="0.06352">
        <ele>154.6</ele>
        <time>2020-05-30T17:28:10Z</time>
      </trkpt>
      <trkpt lat="46.51655" lon="0.06344">
        <ele>154.6</ele>
        <time>2020-05-30T17:28:11Z</time>
      </trkpt>
      <trkpt lat="46.51654" lon="0.06339">
        <ele>154.6</ele>
        <time>2020-05-30T17:28:12Z</time>
      </trkpt>
      <trkpt lat="46.51652" lon="0.0633">
        <ele>154.6</ele>
        <time>2020-05-30T17:28:13Z</time>
      </trkpt>
      <trkpt lat="46.51651" lon="0.06324">
        <ele>154.6</ele>
        <time>2020-05-30T17:28:14Z</time>
      </trkpt>
      <trkpt lat="46.51649" lon="0.06316">
        <ele>154.6</ele>
        <time>2020-05-30T17:28:15Z</time>
      </trkpt>
      <trkpt lat="46.51648" lon="0.06309">
        <ele>154.5</ele>
        <time>2020-05-30T17:28:16Z</time>
      </trkpt>
      <trkpt lat="46.51646" lon="0.06299">
        <ele>154.5</ele>
        <time>2020-05-30T17:28:17Z</time>
      </trkpt>
      <trkpt lat="46.51645" lon="0.06292">
        <ele>154.5</ele>
        <time>2020-05-30T17:28:18Z</time>
      </trkpt>
      <trkpt lat="46.51642" lon="0.06284">
        <ele>154.5</ele>
        <time>2020-05-30T17:28:19Z</time>
      </trkpt>
      <trkpt lat="46.51641" lon="0.06278">
        <ele>154.5</ele>
        <time>2020-05-30T17:28:20Z</time>
      </trkpt>
      <trkpt lat="46.51641" lon="0.06272">
        <ele>154.4</ele>
        <time>2020-05-30T17:28:21Z</time>
      </trkpt>
      <trkpt lat="46.5164" lon="0.06266">
        <ele>154.4</ele>
        <time>2020-05-30T17:28:22Z</time>
      </trkpt>
      <trkpt lat="46.5164" lon="0.06261">
        <ele>154.4</ele>
        <time>2020-05-30T17:28:23Z</time>
      </trkpt>
      <trkpt lat="46.51641" lon="0.0626">
        <ele>154.4</ele>
        <time>2020-05-30T17:28:24Z</time>
      </trkpt>
      <trkpt lat="46.51642" lon="0.06258">
        <ele>154.4</ele>
        <time>2020-05-30T17:28:25Z</time>
      </trkpt>
      <trkpt lat="46.51643" lon="0.06256">
        <ele>154.4</ele>
        <time>2020-05-30T17:28:26Z</time>
      </trkpt>
      <trkpt lat="46.51643" lon="0.06256">
        <ele>154.4</ele>
        <time>2020-05-30T17:28:27Z</time>
      </trkpt>
      <trkpt lat="46.51643" lon="0.06257">
        <ele>154.4</ele>
        <time>2020-05-30T17:28:28Z</time>
      </trkpt>
      <trkpt lat="46.51643" lon="0.06258">
        <ele>154.4</ele>
        <time>2020-05-30T17:28:29Z</time>
      </trkpt>
      <trkpt lat="46.51643" lon="0.06258">
        <ele>154.4</ele>
        <time>2020-05-30T17:28:30Z</time>
      </trkpt>
      <trkpt lat="46.51643" lon="0.0626">
        <ele>154.4</ele>
        <time>2020-05-30T17:28:31Z</time>
      </trkpt>
      <trkpt lat="46.51644" lon="0.0626">
        <ele>154.4</ele>
        <time>2020-05-30T17:28:32Z</time>
      </trkpt>
      <trkpt lat="46.51644" lon="0.06262">
        <ele>154.3</ele>
        <time>2020-05-30T17:28:33Z</time>
      </trkpt>
      <trkpt lat="46.51644" lon="0.06262">
        <ele>154.3</ele>
        <time>2020-05-30T17:28:34Z</time>
      </trkpt>
      <trkpt lat="46.51644" lon="0.06263">
        <ele>154.3</ele>
        <time>2020-05-30T17:28:35Z</time>
      </trkpt>
      <trkpt lat="46.51645" lon="0.06263">
        <ele>154.3</ele>
        <time>2020-05-30T17:28:36Z</time>
      </trkpt>
      <trkpt lat="46.51645" lon="0.06263">
        <ele>154.3</ele>
        <time>2020-05-30T17:28:37Z</time>
      </trkpt>
      <trkpt lat="46.51645" lon="0.06263">
        <ele>154.3</ele>
        <time>2020-05-30T17:28:38Z</time>
      </trkpt>
      <trkpt lat="46.51645" lon="0.06263">
        <ele>154.3</ele>
        <time>2020-05-30T17:28:39Z</time>
      </trkpt>
      <trkpt lat="46.51645" lon="0.06264">
        <ele>154.3</ele>
        <time>2020-05-30T17:28:40Z</time>
      </trkpt>
      <trkpt lat="46.51645" lon="0.06263">
        <ele>154.3</ele>
        <time>2020-05-30T17:28:41Z</time>
      </trkpt>
      <trkpt lat="46.51645" lon="0.06262">
        <ele>154.3</ele>
        <time>2020-05-30T17:28:42Z</time>
      </trkpt>
      <trkpt lat="46.51645" lon="0.06262">
        <ele>154.3</ele>
        <time>2020-05-30T17:28:43Z</time>
      </trkpt>
      <trkpt lat="46.51645" lon="0.06262">
        <ele>154.3</ele>
        <time>2020-05-30T17:28:44Z</time>
      </trkpt>
      <trkpt lat="46.51645" lon="0.06262">
        <ele>154.3</ele>
        <time>2020-05-30T17:28:45Z</time>
      </trkpt>
      <trkpt lat="46.51645" lon="0.06262">
        <ele>154.3</ele>
        <time>2020-05-30T17:28:46Z</time>
      </trkpt>
      <trkpt lat="46.51645" lon="0.06263">
        <ele>154.3</ele>
        <time>2020-05-30T17:28:47Z</time>
      </trkpt>
      <trkpt lat="46.51645" lon="0.06263">
        <ele>154.3</ele>
        <time>2020-05-30T17:28:48Z</time>
      </trkpt>
      <trkpt lat="46.51645" lon="0.06263">
        <ele>154.3</ele>
        <time>2020-05-30T17:28:49Z</time>
      </trkpt>
      <trkpt lat="46.51645" lon="0.06264">
        <ele>154.3</ele>
        <time>2020-05-30T17:28:50Z</time>
      </trkpt>
      <trkpt lat="46.51645" lon="0.06265">
        <ele>154.3</ele>
        <time>2020-05-30T17:28:51Z</time>
      </trkpt>
      <trkpt lat="46.51645" lon="0.06266">
        <ele>154.3</ele>
        <time>2020-05-30T17:28:52Z</time>
      </trkpt>
      <trkpt lat="46.51645" lon="0.06264">
        <ele>154.3</ele>
        <time>2020-05-30T17:28:53Z</time>
      </trkpt>
      <trkpt lat="46.51646" lon="0.06264">
        <ele>154.3</ele>
        <time>2020-05-30T17:28:54Z</time>
      </trkpt>
      <trkpt lat="46.51646" lon="0.06264">
        <ele>154.3</ele>
        <time>2020-05-30T17:28:55Z</time>
      </trkpt>
      <trkpt lat="46.51646" lon="0.06264">
        <ele>154.3</ele>
        <time>2020-05-30T17:28:56Z</time>
      </trkpt>
      <trkpt lat="46.51646" lon="0.06263">
        <ele>154.3</ele>
        <time>2020-05-30T17:28:57Z</time>
      </trkpt>
      <trkpt lat="46.51646" lon="0.06263">
        <ele>154.3</ele>
        <time>2020-05-30T17:28:58Z</time>
      </trkpt>
      <trkpt lat="46.51646" lon="0.06262">
        <ele>154.3</ele>
        <time>2020-05-30T17:28:59Z</time>
      </trkpt>
      <trkpt lat="46.51646" lon="0.06261">
        <ele>154.3</ele>
        <time>2020-05-30T17:29:00Z</time>
      </trkpt>
      <trkpt lat="46.51646" lon="0.06262">
        <ele>154.3</ele>
        <time>2020-05-30T17:29:01Z</time>
      </trkpt>
      <trkpt lat="46.51645" lon="0.06262">
        <ele>154.3</ele>
        <time>2020-05-30T17:29:02Z</time>
      </trkpt>
      <trkpt lat="46.51646" lon="0.06261">
        <ele>154.3</ele>
        <time>2020-05-30T17:29:03Z</time>
      </trkpt>
      <trkpt lat="46.51646" lon="0.0626">
        <ele>154.3</ele>
        <time>2020-05-30T17:29:04Z</time>
      </trkpt>
      <trkpt lat="46.51646" lon="0.0626">
        <ele>154.3</ele>
        <time>2020-05-30T17:29:05Z</time>
      </trkpt>
      <trkpt lat="46.51646" lon="0.06261">
        <ele>154.3</ele>
        <time>2020-05-30T17:29:06Z</time>
      </trkpt>
      <trkpt lat="46.51647" lon="0.06261">
        <ele>154.3</ele>
        <time>2020-05-30T17:29:07Z</time>
      </trkpt>
      <trkpt lat="46.51647" lon="0.06262">
        <ele>154.3</ele>
        <time>2020-05-30T17:29:08Z</time>
      </trkpt>
      <trkpt lat="46.51647" lon="0.06261">
        <ele>154.3</ele>
        <time>2020-05-30T17:29:09Z</time>
      </trkpt>
      <trkpt lat="46.51647" lon="0.06261">
        <ele>154.3</ele>
        <time>2020-05-30T17:29:10Z</time>
      </trkpt>
      <trkpt lat="46.51646" lon="0.0626">
        <ele>154.3</ele>
        <time>2020-05-30T17:29:11Z</time>
      </trkpt>
      <trkpt lat="46.51646" lon="0.06261">
        <ele>154.2</ele>
        <time>2020-05-30T17:29:12Z</time>
      </trkpt>
      <trkpt lat="46.51646" lon="0.0626">
        <ele>154.2</ele>
        <time>2020-05-30T17:29:13Z</time>
      </trkpt>
      <trkpt lat="46.51646" lon="0.0626">
        <ele>154.2</ele>
        <time>2020-05-30T17:29:14Z</time>
      </trkpt>
      <trkpt lat="46.51646" lon="0.0626">
        <ele>154.2</ele>
        <time>2020-05-30T17:29:15Z</time>
      </trkpt>
      <trkpt lat="46.51646" lon="0.0626">
        <ele>154.2</ele>
        <time>2020-05-30T17:29:16Z</time>
      </trkpt>
      <trkpt lat="46.51646" lon="0.0626">
        <ele>154.2</ele>
        <time>2020-05-30T17:29:17Z</time>
      </trkpt>
      <trkpt lat="46.51645" lon="0.0626">
        <ele>154.2</ele>
        <time>2020-05-30T17:29:18Z</time>
      </trkpt>
      <trkpt lat="46.51645" lon="0.06261">
        <ele>154.2</ele>
        <time>2020-05-30T17:29:19Z</time>
      </trkpt>
      <trkpt lat="46.51645" lon="0.06262">
        <ele>154.2</ele>
        <time>2020-05-30T17:29:20Z</time>
      </trkpt>
      <trkpt lat="46.51645" lon="0.06262">
        <ele>154.2</ele>
        <time>2020-05-30T17:29:21Z</time>
      </trkpt>
      <trkpt lat="46.51644" lon="0.0626">
        <ele>154.2</ele>
        <time>2020-05-30T17:29:22Z</time>
      </trkpt>
      <trkpt lat="46.51644" lon="0.06261">
        <ele>154.2</ele>
        <time>2020-05-30T17:29:23Z</time>
      </trkpt>
      <trkpt lat="46.51643" lon="0.06261">
        <ele>154.2</ele>
        <time>2020-05-30T17:29:24Z</time>
      </trkpt>
      <trkpt lat="46.51643" lon="0.0626">
        <ele>154.2</ele>
        <time>2020-05-30T17:29:25Z</time>
      </trkpt>
      <trkpt lat="46.51643" lon="0.06261">
        <ele>154.2</ele>
        <time>2020-05-30T17:29:26Z</time>
      </trkpt>
      <trkpt lat="46.51643" lon="0.06261">
        <ele>154.2</ele>
        <time>2020-05-30T17:29:27Z</time>
      </trkpt>
      <trkpt lat="46.51643" lon="0.06261">
        <ele>154.2</ele>
        <time>2020-05-30T17:29:28Z</time>
      </trkpt>
      <trkpt lat="46.51642" lon="0.06261">
        <ele>154.2</ele>
        <time>2020-05-30T17:29:29Z</time>
      </trkpt>
      <trkpt lat="46.51642" lon="0.06262">
        <ele>154.2</ele>
        <time>2020-05-30T17:29:30Z</time>
      </trkpt>
      <trkpt lat="46.51642" lon="0.06261">
        <ele>154.2</ele>
        <time>2020-05-30T17:29:31Z</time>
      </trkpt>
      <trkpt lat="46.51642" lon="0.06261">
        <ele>154.2</ele>
        <time>2020-05-30T17:29:32Z</time>
      </trkpt>
      <trkpt lat="46.51642" lon="0.0626">
        <ele>154.2</ele>
        <time>2020-05-30T17:29:33Z</time>
      </trkpt>
      <trkpt lat="46.51642" lon="0.0626">
        <ele>154.2</ele>
        <time>2020-05-30T17:29:34Z</time>
      </trkpt>
      <trkpt lat="46.51642" lon="0.0626">
        <ele>154.2</ele>
        <time>2020-05-30T17:29:35Z</time>
      </trkpt>
      <trkpt lat="46.51642" lon="0.06261">
        <ele>154.2</ele>
        <time>2020-05-30T17:29:36Z</time>
      </trkpt>
      <trkpt lat="46.51642" lon="0.06261">
        <ele>154.2</ele>
        <time>2020-05-30T17:29:37Z</time>
      </trkpt>
      <trkpt lat="46.51642" lon="0.0626">
        <ele>154.2</ele>
        <time>2020-05-30T17:29:38Z</time>
      </trkpt>
      <trkpt lat="46.51642" lon="0.06261">
        <ele>154.2</ele>
        <time>2020-05-30T17:29:39Z</time>
      </trkpt>
      <trkpt lat="46.51642" lon="0.06261">
        <ele>154.2</ele>
        <time>2020-05-30T17:29:40Z</time>
      </trkpt>
      <trkpt lat="46.51642" lon="0.0626">
        <ele>154.2</ele>
        <time>2020-05-30T17:29:41Z</time>
      </trkpt>
      <trkpt lat="46.51642" lon="0.06261">
        <ele>154.2</ele>
        <time>2020-05-30T17:29:42Z</time>
      </trkpt>
      <trkpt lat="46.51642" lon="0.06262">
        <ele>154.1</ele>
        <time>2020-05-30T17:29:43Z</time>
      </trkpt>
      <trkpt lat="46.51642" lon="0.06261">
        <ele>154.1</ele>
        <time>2020-05-30T17:29:44Z</time>
      </trkpt>
      <trkpt lat="46.51642" lon="0.0626">
        <ele>154.1</ele>
        <time>2020-05-30T17:29:45Z</time>
      </trkpt>
      <trkpt lat="46.51641" lon="0.0626">
        <ele>154.1</ele>
        <time>2020-05-30T17:29:46Z</time>
      </trkpt>
      <trkpt lat="46.51642" lon="0.06259">
        <ele>154.1</ele>
        <time>2020-05-30T17:29:47Z</time>
      </trkpt>
      <trkpt lat="46.51642" lon="0.06259">
        <ele>154.1</ele>
        <time>2020-05-30T17:29:48Z</time>
      </trkpt>
      <trkpt lat="46.51642" lon="0.06257">
        <ele>154.1</ele>
        <time>2020-05-30T17:29:49Z</time>
      </trkpt>
      <trkpt lat="46.51642" lon="0.06257">
        <ele>154.1</ele>
        <time>2020-05-30T17:29:50Z</time>
      </trkpt>
      <trkpt lat="46.51641" lon="0.06256">
        <ele>154.1</ele>
        <time>2020-05-30T17:29:51Z</time>
      </trkpt>
      <trkpt lat="46.51641" lon="0.06256">
        <ele>154.1</ele>
        <time>2020-05-30T17:29:52Z</time>
      </trkpt>
      <trkpt lat="46.51641" lon="0.06257">
        <ele>154.1</ele>
        <time>2020-05-30T17:29:53Z</time>
      </trkpt>
      <trkpt lat="46.51641" lon="0.06257">
        <ele>154.1</ele>
        <time>2020-05-30T17:29:54Z</time>
      </trkpt>
      <trkpt lat="46.51641" lon="0.06257">
        <ele>154.1</ele>
        <time>2020-05-30T17:29:55Z</time>
      </trkpt>
      <trkpt lat="46.51641" lon="0.06256">
        <ele>154.1</ele>
        <time>2020-05-30T17:29:56Z</time>
      </trkpt>
      <trkpt lat="46.51641" lon="0.06258">
        <ele>154.1</ele>
        <time>2020-05-30T17:29:57Z</time>
      </trkpt>
      <trkpt lat="46.51641" lon="0.06258">
        <ele>154.1</ele>
        <time>2020-05-30T17:29:58Z</time>
      </trkpt>
      <trkpt lat="46.51641" lon="0.06258">
        <ele>154.1</ele>
        <time>2020-05-30T17:29:59Z</time>
      </trkpt>
      <trkpt lat="46.51641" lon="0.06257">
        <ele>154.1</ele>
        <time>2020-05-30T17:30:00Z</time>
      </trkpt>
      <trkpt lat="46.51641" lon="0.06258">
        <ele>154.1</ele>
        <time>2020-05-30T17:30:01Z</time>
      </trkpt>
      <trkpt lat="46.51641" lon="0.06258">
        <ele>154.1</ele>
        <time>2020-05-30T17:30:02Z</time>
      </trkpt>
      <trkpt lat="46.51642" lon="0.06256">
        <ele>154.1</ele>
        <time>2020-05-30T17:30:03Z</time>
      </trkpt>
      <trkpt lat="46.51642" lon="0.06255">
        <ele>154.1</ele>
        <time>2020-05-30T17:30:04Z</time>
      </trkpt>
      <trkpt lat="46.51641" lon="0.06255">
        <ele>154.1</ele>
        <time>2020-05-30T17:30:05Z</time>
      </trkpt>
      <trkpt lat="46.51642" lon="0.06255">
        <ele>154.1</ele>
        <time>2020-05-30T17:30:06Z</time>
      </trkpt>
      <trkpt lat="46.51641" lon="0.06254">
        <ele>154.1</ele>
        <time>2020-05-30T17:30:07Z</time>
      </trkpt>
      <trkpt lat="46.51641" lon="0.06254">
        <ele>154.1</ele>
        <time>2020-05-30T17:30:08Z</time>
      </trkpt>
      <trkpt lat="46.51641" lon="0.06254">
        <ele>154.1</ele>
        <time>2020-05-30T17:30:09Z</time>
      </trkpt>
      <trkpt lat="46.51642" lon="0.06254">
        <ele>154.1</ele>
        <time>2020-05-30T17:30:10Z</time>
      </trkpt>
      <trkpt lat="46.51642" lon="0.06255">
        <ele>154.1</ele>
        <time>2020-05-30T17:30:11Z</time>
      </trkpt>
      <trkpt lat="46.51642" lon="0.06255">
        <ele>154.1</ele>
        <time>2020-05-30T17:30:12Z</time>
      </trkpt>
      <trkpt lat="46.51642" lon="0.06256">
        <ele>154.1</ele>
        <time>2020-05-30T17:30:13Z</time>
      </trkpt>
      <trkpt lat="46.51643" lon="0.06256">
        <ele>154.1</ele>
        <time>2020-05-30T17:30:14Z</time>
      </trkpt>
      <trkpt lat="46.51643" lon="0.06256">
        <ele>154.1</ele>
        <time>2020-05-30T17:30:15Z</time>
      </trkpt>
      <trkpt lat="46.51642" lon="0.06256">
        <ele>154</ele>
        <time>2020-05-30T17:30:16Z</time>
      </trkpt>
      <trkpt lat="46.51643" lon="0.06256">
        <ele>154</ele>
        <time>2020-05-30T17:30:17Z</time>
      </trkpt>
      <trkpt lat="46.51643" lon="0.06256">
        <ele>154</ele>
        <time>2020-05-30T17:30:18Z</time>
      </trkpt>
      <trkpt lat="46.51643" lon="0.06255">
        <ele>154</ele>
        <time>2020-05-30T17:30:19Z</time>
      </trkpt>
      <trkpt lat="46.51643" lon="0.06255">
        <ele>154</ele>
        <time>2020-05-30T17:30:20Z</time>
      </trkpt>
      <trkpt lat="46.51643" lon="0.06254">
        <ele>154</ele>
        <time>2020-05-30T17:30:21Z</time>
      </trkpt>
      <trkpt lat="46.51643" lon="0.06255">
        <ele>154</ele>
        <time>2020-05-30T17:30:22Z</time>
      </trkpt>
      <trkpt lat="46.51644" lon="0.06256">
        <ele>154</ele>
        <time>2020-05-30T17:30:23Z</time>
      </trkpt>
      <trkpt lat="46.51643" lon="0.06257">
        <ele>154</ele>
        <time>2020-05-30T17:30:24Z</time>
      </trkpt>
      <trkpt lat="46.51643" lon="0.06256">
        <ele>154</ele>
        <time>2020-05-30T17:30:25Z</time>
      </trkpt>
      <trkpt lat="46.51643" lon="0.06255">
        <ele>154</ele>
        <time>2020-05-30T17:30:26Z</time>
      </trkpt>
      <trkpt lat="46.51643" lon="0.06255">
        <ele>154</ele>
        <time>2020-05-30T17:30:27Z</time>
      </trkpt>
      <trkpt lat="46.51643" lon="0.06255">
        <ele>154</ele>
        <time>2020-05-30T17:30:28Z</time>
      </trkpt>
      <trkpt lat="46.51643" lon="0.06255">
        <ele>154</ele>
        <time>2020-05-30T17:30:29Z</time>
      </trkpt>
      <trkpt lat="46.51643" lon="0.06255">
        <ele>154</ele>
        <time>2020-05-30T17:30:30Z</time>
      </trkpt>
      <trkpt lat="46.51643" lon="0.06255">
        <ele>154</ele>
        <time>2020-05-30T17:30:31Z</time>
      </trkpt>
      <trkpt lat="46.51643" lon="0.06256">
        <ele>154</ele>
        <time>2020-05-30T17:30:32Z</time>
      </trkpt>
      <trkpt lat="46.51643" lon="0.06256">
        <ele>154</ele>
        <time>2020-05-30T17:30:33Z</time>
      </trkpt>
      <trkpt lat="46.51643" lon="0.06256">
        <ele>154</ele>
        <time>2020-05-30T17:30:34Z</time>
      </trkpt>
      <trkpt lat="46.51643" lon="0.06256">
        <ele>154</ele>
        <time>2020-05-30T17:30:35Z</time>
      </trkpt>
      <trkpt lat="46.51642" lon="0.06256">
        <ele>154</ele>
        <time>2020-05-30T17:30:36Z</time>
      </trkpt>
      <trkpt lat="46.51642" lon="0.06257">
        <ele>154</ele>
        <time>2020-05-30T17:30:37Z</time>
      </trkpt>
      <trkpt lat="46.51642" lon="0.06257">
        <ele>154</ele>
        <time>2020-05-30T17:30:38Z</time>
      </trkpt>
      <trkpt lat="46.51642" lon="0.06257">
        <ele>154</ele>
        <time>2020-05-30T17:30:39Z</time>
      </trkpt>
      <trkpt lat="46.51642" lon="0.06258">
        <ele>154</ele>
        <time>2020-05-30T17:30:40Z</time>
      </trkpt>
      <trkpt lat="46.51642" lon="0.06258">
        <ele>154</ele>
        <time>2020-05-30T17:30:41Z</time>
      </trkpt>
      <trkpt lat="46.51642" lon="0.06257">
        <ele>154</ele>
        <time>2020-05-30T17:30:42Z</time>
      </trkpt>
      <trkpt lat="46.51643" lon="0.06257">
        <ele>154</ele>
        <time>2020-05-30T17:30:43Z</time>
      </trkpt>
      <trkpt lat="46.51643" lon="0.06256">
        <ele>154</ele>
        <time>2020-05-30T17:30:44Z</time>
      </trkpt>
      <trkpt lat="46.51643" lon="0.06256">
        <ele>154</ele>
        <time>2020-05-30T17:30:45Z</time>
      </trkpt>
      <trkpt lat="46.51643" lon="0.06256">
        <ele>154</ele>
        <time>2020-05-30T17:30:46Z</time>
      </trkpt>
      <trkpt lat="46.51643" lon="0.06256">
        <ele>154</ele>
        <time>2020-05-30T17:30:47Z</time>
      </trkpt>
      <trkpt lat="46.51644" lon="0.06257">
        <ele>154</ele>
        <time>2020-05-30T17:30:48Z</time>
      </trkpt>
      <trkpt lat="46.51644" lon="0.06258">
        <ele>154</ele>
        <time>2020-05-30T17:30:49Z</time>
      </trkpt>
      <trkpt lat="46.51644" lon="0.06259">
        <ele>154</ele>
        <time>2020-05-30T17:30:50Z</time>
      </trkpt>
      <trkpt lat="46.51644" lon="0.0626">
        <ele>154</ele>
        <time>2020-05-30T17:30:51Z</time>
      </trkpt>
      <trkpt lat="46.51643" lon="0.06259">
        <ele>153.9</ele>
        <time>2020-05-30T17:30:52Z</time>
      </trkpt>
      <trkpt lat="46.51643" lon="0.0626">
        <ele>153.9</ele>
        <time>2020-05-30T17:30:53Z</time>
      </trkpt>
      <trkpt lat="46.51644" lon="0.06261">
        <ele>153.9</ele>
        <time>2020-05-30T17:30:54Z</time>
      </trkpt>
      <trkpt lat="46.51644" lon="0.06261">
        <ele>153.9</ele>
        <time>2020-05-30T17:30:55Z</time>
      </trkpt>
      <trkpt lat="46.51643" lon="0.06259">
        <ele>153.9</ele>
        <time>2020-05-30T17:30:56Z</time>
      </trkpt>
      <trkpt lat="46.51643" lon="0.06259">
        <ele>153.9</ele>
        <time>2020-05-30T17:30:57Z</time>
      </trkpt>
      <trkpt lat="46.51643" lon="0.06259">
        <ele>153.9</ele>
        <time>2020-05-30T17:30:58Z</time>
      </trkpt>
      <trkpt lat="46.51643" lon="0.0626">
        <ele>153.9</ele>
        <time>2020-05-30T17:30:59Z</time>
      </trkpt>
      <trkpt lat="46.51643" lon="0.06261">
        <ele>153.9</ele>
        <time>2020-05-30T17:31:00Z</time>
      </trkpt>
      <trkpt lat="46.51643" lon="0.06261">
        <ele>153.9</ele>
        <time>2020-05-30T17:31:01Z</time>
      </trkpt>
      <trkpt lat="46.51643" lon="0.06261">
        <ele>153.9</ele>
        <time>2020-05-30T17:31:02Z</time>
      </trkpt>
      <trkpt lat="46.51643" lon="0.06262">
        <ele>153.9</ele>
        <time>2020-05-30T17:31:03Z</time>
      </trkpt>
      <trkpt lat="46.51642" lon="0.06262">
        <ele>153.9</ele>
        <time>2020-05-30T17:31:04Z</time>
      </trkpt>
      <trkpt lat="46.51642" lon="0.06262">
        <ele>153.9</ele>
        <time>2020-05-30T17:31:05Z</time>
      </trkpt>
      <trkpt lat="46.51642" lon="0.06262">
        <ele>153.9</ele>
        <time>2020-05-30T17:31:06Z</time>
      </trkpt>
      <trkpt lat="46.51642" lon="0.06263">
        <ele>153.9</ele>
        <time>2020-05-30T17:31:07Z</time>
      </trkpt>
      <trkpt lat="46.51642" lon="0.06264">
        <ele>153.9</ele>
        <time>2020-05-30T17:31:08Z</time>
      </trkpt>
      <trkpt lat="46.51642" lon="0.06265">
        <ele>153.9</ele>
        <time>2020-05-30T17:31:09Z</time>
      </trkpt>
      <trkpt lat="46.51642" lon="0.06264">
        <ele>153.9</ele>
        <time>2020-05-30T17:31:10Z</time>
      </trkpt>
      <trkpt lat="46.51642" lon="0.06264">
        <ele>153.9</ele>
        <time>2020-05-30T17:31:11Z</time>
      </trkpt>
      <trkpt lat="46.51642" lon="0.06262">
        <ele>153.9</ele>
        <time>2020-05-30T17:31:12Z</time>
      </trkpt>
      <trkpt lat="46.51642" lon="0.06262">
        <ele>153.9</ele>
        <time>2020-05-30T17:31:13Z</time>
      </trkpt>
      <trkpt lat="46.51641" lon="0.06262">
        <ele>153.9</ele>
        <time>2020-05-30T17:31:14Z</time>
      </trkpt>
      <trkpt lat="46.51641" lon="0.06262">
        <ele>153.9</ele>
        <time>2020-05-30T17:31:15Z</time>
      </trkpt>
      <trkpt lat="46.51641" lon="0.06263">
        <ele>153.9</ele>
        <time>2020-05-30T17:31:16Z</time>
      </trkpt>
      <trkpt lat="46.51641" lon="0.06263">
        <ele>153.9</ele>
        <time>2020-05-30T17:31:17Z</time>
      </trkpt>
      <trkpt lat="46.51641" lon="0.06264">
        <ele>153.8</ele>
        <time>2020-05-30T17:31:18Z</time>
      </trkpt>
      <trkpt lat="46.51641" lon="0.06264">
        <ele>153.8</ele>
        <time>2020-05-30T17:31:19Z</time>
      </trkpt>
      <trkpt lat="46.51642" lon="0.06264">
        <ele>153.8</ele>
        <time>2020-05-30T17:31:20Z</time>
      </trkpt>
      <trkpt lat="46.51641" lon="0.06264">
        <ele>153.8</ele>
        <time>2020-05-30T17:31:21Z</time>
      </trkpt>
      <trkpt lat="46.51641" lon="0.06263">
        <ele>153.8</ele>
        <time>2020-05-30T17:31:22Z</time>
      </trkpt>
      <trkpt lat="46.51642" lon="0.06265">
        <ele>153.8</ele>
        <time>2020-05-30T17:31:23Z</time>
      </trkpt>
      <trkpt lat="46.51642" lon="0.06266">
        <ele>153.8</ele>
        <time>2020-05-30T17:31:24Z</time>
      </trkpt>
      <trkpt lat="46.51643" lon="0.06268">
        <ele>153.8</ele>
        <time>2020-05-30T17:31:25Z</time>
      </trkpt>
      <trkpt lat="46.51643" lon="0.06267">
        <ele>153.8</ele>
        <time>2020-05-30T17:31:26Z</time>
      </trkpt>
      <trkpt lat="46.51643" lon="0.06267">
        <ele>153.8</ele>
        <time>2020-05-30T17:31:27Z</time>
      </trkpt>
      <trkpt lat="46.51643" lon="0.06267">
        <ele>153.8</ele>
        <time>2020-05-30T17:31:28Z</time>
      </trkpt>
      <trkpt lat="46.51643" lon="0.06267">
        <ele>153.8</ele>
        <time>2020-05-30T17:31:29Z</time>
      </trkpt>
      <trkpt lat="46.51643" lon="0.06267">
        <ele>153.8</ele>
        <time>2020-05-30T17:31:30Z</time>
      </trkpt>
      <trkpt lat="46.51643" lon="0.06268">
        <ele>153.8</ele>
        <time>2020-05-30T17:31:31Z</time>
      </trkpt>
      <trkpt lat="46.51643" lon="0.06268">
        <ele>153.8</ele>
        <time>2020-05-30T17:31:32Z</time>
      </trkpt>
      <trkpt lat="46.51643" lon="0.06267">
        <ele>153.8</ele>
        <time>2020-05-30T17:31:33Z</time>
      </trkpt>
      <trkpt lat="46.51643" lon="0.06267">
        <ele>153.8</ele>
        <time>2020-05-30T17:31:34Z</time>
      </trkpt>
      <trkpt lat="46.51644" lon="0.06266">
        <ele>153.8</ele>
        <time>2020-05-30T17:31:35Z</time>
      </trkpt>
      <trkpt lat="46.51644" lon="0.06265">
        <ele>153.8</ele>
        <time>2020-05-30T17:31:36Z</time>
      </trkpt>
      <trkpt lat="46.51644" lon="0.06264">
        <ele>153.8</ele>
        <time>2020-05-30T17:31:37Z</time>
      </trkpt>
      <trkpt lat="46.51644" lon="0.06264">
        <ele>153.8</ele>
        <time>2020-05-30T17:31:38Z</time>
      </trkpt>
      <trkpt lat="46.51644" lon="0.06264">
        <ele>153.8</ele>
        <time>2020-05-30T17:31:39Z</time>
      </trkpt>
      <trkpt lat="46.51643" lon="0.06264">
        <ele>153.8</ele>
        <time>2020-05-30T17:31:40Z</time>
      </trkpt>
      <trkpt lat="46.51643" lon="0.06264">
        <ele>153.8</ele>
        <time>2020-05-30T17:31:41Z</time>
      </trkpt>
      <trkpt lat="46.51643" lon="0.06264">
        <ele>153.8</ele>
        <time>2020-05-30T17:31:42Z</time>
      </trkpt>
      <trkpt lat="46.51643" lon="0.06264">
        <ele>153.8</ele>
        <time>2020-05-30T17:31:43Z</time>
      </trkpt>
      <trkpt lat="46.51643" lon="0.06263">
        <ele>153.8</ele>
        <time>2020-05-30T17:31:44Z</time>
      </trkpt>
      <trkpt lat="46.51643" lon="0.06263">
        <ele>153.8</ele>
        <time>2020-05-30T17:31:45Z</time>
      </trkpt>
      <trkpt lat="46.51643" lon="0.06263">
        <ele>153.8</ele>
        <time>2020-05-30T17:31:46Z</time>
      </trkpt>
      <trkpt lat="46.51643" lon="0.06263">
        <ele>153.8</ele>
        <time>2020-05-30T17:31:47Z</time>
      </trkpt>
      <trkpt lat="46.51643" lon="0.06263">
        <ele>153.8</ele>
        <time>2020-05-30T17:31:48Z</time>
      </trkpt>
      <trkpt lat="46.51643" lon="0.06263">
        <ele>153.8</ele>
        <time>2020-05-30T17:31:49Z</time>
      </trkpt>
      <trkpt lat="46.51643" lon="0.06263">
        <ele>153.8</ele>
        <time>2020-05-30T17:31:50Z</time>
      </trkpt>
      <trkpt lat="46.51643" lon="0.06263">
        <ele>153.8</ele>
        <time>2020-05-30T17:31:51Z</time>
      </trkpt>
      <trkpt lat="46.51643" lon="0.06263">
        <ele>153.8</ele>
        <time>2020-05-30T17:31:52Z</time>
      </trkpt>
      <trkpt lat="46.51643" lon="0.06263">
        <ele>153.8</ele>
        <time>2020-05-30T17:31:53Z</time>
      </trkpt>
      <trkpt lat="46.51643" lon="0.06263">
        <ele>153.8</ele>
        <time>2020-05-30T17:31:54Z</time>
      </trkpt>
      <trkpt lat="46.51643" lon="0.06263">
        <ele>153.8</ele>
        <time>2020-05-30T17:31:55Z</time>
      </trkpt>
      <trkpt lat="46.51643" lon="0.06263">
        <ele>153.8</ele>
        <time>2020-05-30T17:31:56Z</time>
      </trkpt>
      <trkpt lat="46.51643" lon="0.06263">
        <ele>153.8</ele>
        <time>2020-05-30T17:31:57Z</time>
      </trkpt>
      <trkpt lat="46.51643" lon="0.06263">
        <ele>153.8</ele>
        <time>2020-05-30T17:31:58Z</time>
      </trkpt>
      <trkpt lat="46.51643" lon="0.06262">
        <ele>153.8</ele>
        <time>2020-05-30T17:31:59Z</time>
      </trkpt>
      <trkpt lat="46.51643" lon="0.06262">
        <ele>153.8</ele>
        <time>2020-05-30T17:32:00Z</time>
      </trkpt>
      <trkpt lat="46.51643" lon="0.06262">
        <ele>153.8</ele>
        <time>2020-05-30T17:32:01Z</time>
      </trkpt>
      <trkpt lat="46.51643" lon="0.06262">
        <ele>153.8</ele>
        <time>2020-05-30T17:32:02Z</time>
      </trkpt>
      <trkpt lat="46.51643" lon="0.06262">
        <ele>153.8</ele>
        <time>2020-05-30T17:32:03Z</time>
      </trkpt>
      <trkpt lat="46.51643" lon="0.06262">
        <ele>153.8</ele>
        <time>2020-05-30T17:32:04Z</time>
      </trkpt>
      <trkpt lat="46.51643" lon="0.06262">
        <ele>153.8</ele>
        <time>2020-05-30T17:32:05Z</time>
      </trkpt>
      <trkpt lat="46.51643" lon="0.06262">
        <ele>153.8</ele>
        <time>2020-05-30T17:32:06Z</time>
      </trkpt>
      <trkpt lat="46.51643" lon="0.06262">
        <ele>153.8</ele>
        <time>2020-05-30T17:32:07Z</time>
      </trkpt>
      <trkpt lat="46.51643" lon="0.06262">
        <ele>153.8</ele>
        <time>2020-05-30T17:32:08Z</time>
      </trkpt>
      <trkpt lat="46.51643" lon="0.06262">
        <ele>153.8</ele>
        <time>2020-05-30T17:32:09Z</time>
      </trkpt>
      <trkpt lat="46.51643" lon="0.06262">
        <ele>153.8</ele>
        <time>2020-05-30T17:32:10Z</time>
      </trkpt>
      <trkpt lat="46.51643" lon="0.06262">
        <ele>153.8</ele>
        <time>2020-05-30T17:32:11Z</time>
      </trkpt>
      <trkpt lat="46.51643" lon="0.06262">
        <ele>153.8</ele>
        <time>2020-05-30T17:32:12Z</time>
      </trkpt>
      <trkpt lat="46.51643" lon="0.06263">
        <ele>153.8</ele>
        <time>2020-05-30T17:32:13Z</time>
      </trkpt>
      <trkpt lat="46.51643" lon="0.06262">
        <ele>153.8</ele>
        <time>2020-05-30T17:32:14Z</time>
      </trkpt>
      <trkpt lat="46.51643" lon="0.06262">
        <ele>153.8</ele>
        <time>2020-05-30T17:32:15Z</time>
      </trkpt>
      <trkpt lat="46.51643" lon="0.06262">
        <ele>153.8</ele>
        <time>2020-05-30T17:32:16Z</time>
      </trkpt>
      <trkpt lat="46.51643" lon="0.06262">
        <ele>153.8</ele>
        <time>2020-05-30T17:32:17Z</time>
      </trkpt>
      <trkpt lat="46.51643" lon="0.06262">
        <ele>153.8</ele>
        <time>2020-05-30T17:32:18Z</time>
      </trkpt>
      <trkpt lat="46.51644" lon="0.06262">
        <ele>153.8</ele>
        <time>2020-05-30T17:32:19Z</time>
      </trkpt>
      <trkpt lat="46.51644" lon="0.06262">
        <ele>153.8</ele>
        <time>2020-05-30T17:32:20Z</time>
      </trkpt>
      <trkpt lat="46.51644" lon="0.06262">
        <ele>153.8</ele>
        <time>2020-05-30T17:32:21Z</time>
      </trkpt>
      <trkpt lat="46.51644" lon="0.06262">
        <ele>153.8</ele>
        <time>2020-05-30T17:32:22Z</time>
      </trkpt>
      <trkpt lat="46.51644" lon="0.06262">
        <ele>153.8</ele>
        <time>2020-05-30T17:32:23Z</time>
      </trkpt>
      <trkpt lat="46.51644" lon="0.06261">
        <ele>153.8</ele>
        <time>2020-05-30T17:32:24Z</time>
      </trkpt>
      <trkpt lat="46.51644" lon="0.06261">
        <ele>153.8</ele>
        <time>2020-05-30T17:32:25Z</time>
      </trkpt>
      <trkpt lat="46.51644" lon="0.06261">
        <ele>153.8</ele>
        <time>2020-05-30T17:32:26Z</time>
      </trkpt>
      <trkpt lat="46.51644" lon="0.06261">
        <ele>153.8</ele>
        <time>2020-05-30T17:32:27Z</time>
      </trkpt>
      <trkpt lat="46.51644" lon="0.06261">
        <ele>153.8</ele>
        <time>2020-05-30T17:32:28Z</time>
      </trkpt>
      <trkpt lat="46.51644" lon="0.06261">
        <ele>153.8</ele>
        <time>2020-05-30T17:32:29Z</time>
      </trkpt>
      <trkpt lat="46.51644" lon="0.06261">
        <ele>153.8</ele>
        <time>2020-05-30T17:32:30Z</time>
      </trkpt>
      <trkpt lat="46.51644" lon="0.06261">
        <ele>153.8</ele>
        <time>2020-05-30T17:32:31Z</time>
      </trkpt>
      <trkpt lat="46.51644" lon="0.06261">
        <ele>153.7</ele>
        <time>2020-05-30T17:32:32Z</time>
      </trkpt>
      <trkpt lat="46.51643" lon="0.06261">
        <ele>153.7</ele>
        <time>2020-05-30T17:32:33Z</time>
      </trkpt>
      <trkpt lat="46.51642" lon="0.06262">
        <ele>153.7</ele>
        <time>2020-05-30T17:32:34Z</time>
      </trkpt>
      <trkpt lat="46.51642" lon="0.06261">
        <ele>153.7</ele>
        <time>2020-05-30T17:32:35Z</time>
      </trkpt>
      <trkpt lat="46.51642" lon="0.06261">
        <ele>153.7</ele>
        <time>2020-05-30T17:32:36Z</time>
      </trkpt>
      <trkpt lat="46.51642" lon="0.06261">
        <ele>153.7</ele>
        <time>2020-05-30T17:32:37Z</time>
      </trkpt>
      <trkpt lat="46.51642" lon="0.06261">
        <ele>153.7</ele>
        <time>2020-05-30T17:32:38Z</time>
      </trkpt>
      <trkpt lat="46.51642" lon="0.06261">
        <ele>153.7</ele>
        <time>2020-05-30T17:32:39Z</time>
      </trkpt>
      <trkpt lat="46.51642" lon="0.06261">
        <ele>153.7</ele>
        <time>2020-05-30T17:32:40Z</time>
      </trkpt>
      <trkpt lat="46.51642" lon="0.06261">
        <ele>153.7</ele>
        <time>2020-05-30T17:32:41Z</time>
      </trkpt>
      <trkpt lat="46.51642" lon="0.06261">
        <ele>153.7</ele>
        <time>2020-05-30T17:32:42Z</time>
      </trkpt>
      <trkpt lat="46.51642" lon="0.06261">
        <ele>153.7</ele>
        <time>2020-05-30T17:32:43Z</time>
      </trkpt>
      <trkpt lat="46.51642" lon="0.06261">
        <ele>153.7</ele>
        <time>2020-05-30T17:32:44Z</time>
      </trkpt>
      <trkpt lat="46.51642" lon="0.06261">
        <ele>153.7</ele>
        <time>2020-05-30T17:32:45Z</time>
      </trkpt>
      <trkpt lat="46.51642" lon="0.06261">
        <ele>153.7</ele>
        <time>2020-05-30T17:32:46Z</time>
      </trkpt>
      <trkpt lat="46.51642" lon="0.06261">
        <ele>153.7</ele>
        <time>2020-05-30T17:32:47Z</time>
      </trkpt>
      <trkpt lat="46.51642" lon="0.06261">
        <ele>153.7</ele>
        <time>2020-05-30T17:32:48Z</time>
      </trkpt>
      <trkpt lat="46.51642" lon="0.06261">
        <ele>153.7</ele>
        <time>2020-05-30T17:32:49Z</time>
      </trkpt>
      <trkpt lat="46.51642" lon="0.06261">
        <ele>153.7</ele>
        <time>2020-05-30T17:32:50Z</time>
      </trkpt>
      <trkpt lat="46.51642" lon="0.06261">
        <ele>153.7</ele>
        <time>2020-05-30T17:32:51Z</time>
      </trkpt>
      <trkpt lat="46.51642" lon="0.06261">
        <ele>153.7</ele>
        <time>2020-05-30T17:32:52Z</time>
      </trkpt>
      <trkpt lat="46.51642" lon="0.06261">
        <ele>153.7</ele>
        <time>2020-05-30T17:32:53Z</time>
      </trkpt>
      <trkpt lat="46.51642" lon="0.06261">
        <ele>153.7</ele>
        <time>2020-05-30T17:32:54Z</time>
      </trkpt>
      <trkpt lat="46.51642" lon="0.06261">
        <ele>153.7</ele>
        <time>2020-05-30T17:32:55Z</time>
      </trkpt>
      <trkpt lat="46.51643" lon="0.06261">
        <ele>153.7</ele>
        <time>2020-05-30T17:32:56Z</time>
      </trkpt>
      <trkpt lat="46.51642" lon="0.06261">
        <ele>153.7</ele>
        <time>2020-05-30T17:32:57Z</time>
      </trkpt>
      <trkpt lat="46.51642" lon="0.0626">
        <ele>153.7</ele>
        <time>2020-05-30T17:32:58Z</time>
      </trkpt>
      <trkpt lat="46.51642" lon="0.0626">
        <ele>153.7</ele>
        <time>2020-05-30T17:32:59Z</time>
      </trkpt>
      <trkpt lat="46.51642" lon="0.0626">
        <ele>153.7</ele>
        <time>2020-05-30T17:33:00Z</time>
      </trkpt>
      <trkpt lat="46.51643" lon="0.0626">
        <ele>153.7</ele>
        <time>2020-05-30T17:33:01Z</time>
      </trkpt>
      <trkpt lat="46.51643" lon="0.0626">
        <ele>153.7</ele>
        <time>2020-05-30T17:33:02Z</time>
      </trkpt>
      <trkpt lat="46.51643" lon="0.0626">
        <ele>153.7</ele>
        <time>2020-05-30T17:33:03Z</time>
      </trkpt>
      <trkpt lat="46.51643" lon="0.0626">
        <ele>153.7</ele>
        <time>2020-05-30T17:33:04Z</time>
      </trkpt>
      <trkpt lat="46.51643" lon="0.0626">
        <ele>153.7</ele>
        <time>2020-05-30T17:33:05Z</time>
      </trkpt>
      <trkpt lat="46.51643" lon="0.0626">
        <ele>153.7</ele>
        <time>2020-05-30T17:33:06Z</time>
      </trkpt>
      <trkpt lat="46.51643" lon="0.0626">
        <ele>153.7</ele>
        <time>2020-05-30T17:33:07Z</time>
      </trkpt>
      <trkpt lat="46.51643" lon="0.06259">
        <ele>153.7</ele>
        <time>2020-05-30T17:33:08Z</time>
      </trkpt>
      <trkpt lat="46.51643" lon="0.06259">
        <ele>153.7</ele>
        <time>2020-05-30T17:33:09Z</time>
      </trkpt>
      <trkpt lat="46.51643" lon="0.06259">
        <ele>153.7</ele>
        <time>2020-05-30T17:33:10Z</time>
      </trkpt>
      <trkpt lat="46.51643" lon="0.06259">
        <ele>153.7</ele>
        <time>2020-05-30T17:33:11Z</time>
      </trkpt>
      <trkpt lat="46.51643" lon="0.06259">
        <ele>153.7</ele>
        <time>2020-05-30T17:33:12Z</time>
      </trkpt>
      <trkpt lat="46.51643" lon="0.06259">
        <ele>153.7</ele>
        <time>2020-05-30T17:33:13Z</time>
      </trkpt>
      <trkpt lat="46.51644" lon="0.06259">
        <ele>153.7</ele>
        <time>2020-05-30T17:33:14Z</time>
      </trkpt>
      <trkpt lat="46.51644" lon="0.06259">
        <ele>153.7</ele>
        <time>2020-05-30T17:33:15Z</time>
      </trkpt>
      <trkpt lat="46.51644" lon="0.06259">
        <ele>153.7</ele>
        <time>2020-05-30T17:33:16Z</time>
      </trkpt>
      <trkpt lat="46.51644" lon="0.06259">
        <ele>153.7</ele>
        <time>2020-05-30T17:33:17Z</time>
      </trkpt>
      <trkpt lat="46.51644" lon="0.06259">
        <ele>153.7</ele>
        <time>2020-05-30T17:33:18Z</time>
      </trkpt>
      <trkpt lat="46.51644" lon="0.06258">
        <ele>153.7</ele>
        <time>2020-05-30T17:33:19Z</time>
      </trkpt>
      <trkpt lat="46.51644" lon="0.06258">
        <ele>153.7</ele>
        <time>2020-05-30T17:33:20Z</time>
      </trkpt>
      <trkpt lat="46.51644" lon="0.06258">
        <ele>153.7</ele>
        <time>2020-05-30T17:33:21Z</time>
      </trkpt>
      <trkpt lat="46.51644" lon="0.06258">
        <ele>153.7</ele>
        <time>2020-05-30T17:33:22Z</time>
      </trkpt>
      <trkpt lat="46.51644" lon="0.06258">
        <ele>153.7</ele>
        <time>2020-05-30T17:33:23Z</time>
      </trkpt>
      <trkpt lat="46.51644" lon="0.06258">
        <ele>153.7</ele>
        <time>2020-05-30T17:33:24Z</time>
      </trkpt>
      <trkpt lat="46.51644" lon="0.06258">
        <ele>153.7</ele>
        <time>2020-05-30T17:33:25Z</time>
      </trkpt>
      <trkpt lat="46.51644" lon="0.06258">
        <ele>153.7</ele>
        <time>2020-05-30T17:33:26Z</time>
      </trkpt>
      <trkpt lat="46.51644" lon="0.06258">
        <ele>153.7</ele>
        <time>2020-05-30T17:33:27Z</time>
      </trkpt>
      <trkpt lat="46.51645" lon="0.06258">
        <ele>153.7</ele>
        <time>2020-05-30T17:33:28Z</time>
      </trkpt>
      <trkpt lat="46.51645" lon="0.06257">
        <ele>153.7</ele>
        <time>2020-05-30T17:33:29Z</time>
      </trkpt>
      <trkpt lat="46.51645" lon="0.06257">
        <ele>153.7</ele>
        <time>2020-05-30T17:33:30Z</time>
      </trkpt>
      <trkpt lat="46.51645" lon="0.06257">
        <ele>153.7</ele>
        <time>2020-05-30T17:33:31Z</time>
      </trkpt>
      <trkpt lat="46.51645" lon="0.06257">
        <ele>153.7</ele>
        <time>2020-05-30T17:33:32Z</time>
      </trkpt>
      <trkpt lat="46.51645" lon="0.06257">
        <ele>153.7</ele>
        <time>2020-05-30T17:33:33Z</time>
      </trkpt>
      <trkpt lat="46.51645" lon="0.06257">
        <ele>153.7</ele>
        <time>2020-05-30T17:33:34Z</time>
      </trkpt>
      <trkpt lat="46.51645" lon="0.06257">
        <ele>153.7</ele>
        <time>2020-05-30T17:33:35Z</time>
      </trkpt>
      <trkpt lat="46.51645" lon="0.06257">
        <ele>153.7</ele>
        <time>2020-05-30T17:33:36Z</time>
      </trkpt>
      <trkpt lat="46.51645" lon="0.06257">
        <ele>153.7</ele>
        <time>2020-05-30T17:33:37Z</time>
      </trkpt>
      <trkpt lat="46.51645" lon="0.06257">
        <ele>153.7</ele>
        <time>2020-05-30T17:33:38Z</time>
      </trkpt>
      <trkpt lat="46.51645" lon="0.06257">
        <ele>153.7</ele>
        <time>2020-05-30T17:33:39Z</time>
      </trkpt>
      <trkpt lat="46.51645" lon="0.06257">
        <ele>153.7</ele>
        <time>2020-05-30T17:33:40Z</time>
      </trkpt>
      <trkpt lat="46.51645" lon="0.06257">
        <ele>153.7</ele>
        <time>2020-05-30T17:33:41Z</time>
      </trkpt>
      <trkpt lat="46.51645" lon="0.06257">
        <ele>153.7</ele>
        <time>2020-05-30T17:33:42Z</time>
      </trkpt>
      <trkpt lat="46.51645" lon="0.06257">
        <ele>153.7</ele>
        <time>2020-05-30T17:33:43Z</time>
      </trkpt>
      <trkpt lat="46.51645" lon="0.06256">
        <ele>153.7</ele>
        <time>2020-05-30T17:33:44Z</time>
      </trkpt>
      <trkpt lat="46.51645" lon="0.06256">
        <ele>153.7</ele>
        <time>2020-05-30T17:33:45Z</time>
      </trkpt>
      <trkpt lat="46.51645" lon="0.06256">
        <ele>153.7</ele>
        <time>2020-05-30T17:33:46Z</time>
      </trkpt>
      <trkpt lat="46.51645" lon="0.06256">
        <ele>153.7</ele>
        <time>2020-05-30T17:33:47Z</time>
      </trkpt>
      <trkpt lat="46.51645" lon="0.06256">
        <ele>153.7</ele>
        <time>2020-05-30T17:33:48Z</time>
      </trkpt>
      <trkpt lat="46.51645" lon="0.06256">
        <ele>153.7</ele>
        <time>2020-05-30T17:33:49Z</time>
      </trkpt>
      <trkpt lat="46.51645" lon="0.06255">
        <ele>153.7</ele>
        <time>2020-05-30T17:33:50Z</time>
      </trkpt>
      <trkpt lat="46.51645" lon="0.06255">
        <ele>153.7</ele>
        <time>2020-05-30T17:33:51Z</time>
      </trkpt>
      <trkpt lat="46.51645" lon="0.06255">
        <ele>153.7</ele>
        <time>2020-05-30T17:33:52Z</time>
      </trkpt>
      <trkpt lat="46.51645" lon="0.06255">
        <ele>153.7</ele>
        <time>2020-05-30T17:33:53Z</time>
      </trkpt>
      <trkpt lat="46.51645" lon="0.06255">
        <ele>153.7</ele>
        <time>2020-05-30T17:33:54Z</time>
      </trkpt>
      <trkpt lat="46.51645" lon="0.06255">
        <ele>153.7</ele>
        <time>2020-05-30T17:33:55Z</time>
      </trkpt>
      <trkpt lat="46.51645" lon="0.06255">
        <ele>153.7</ele>
        <time>2020-05-30T17:33:56Z</time>
      </trkpt>
      <trkpt lat="46.51645" lon="0.06255">
        <ele>153.7</ele>
        <time>2020-05-30T17:33:57Z</time>
      </trkpt>
      <trkpt lat="46.51645" lon="0.06255">
        <ele>153.7</ele>
        <time>2020-05-30T17:33:58Z</time>
      </trkpt>
      <trkpt lat="46.51646" lon="0.06255">
        <ele>153.7</ele>
        <time>2020-05-30T17:33:59Z</time>
      </trkpt>
      <trkpt lat="46.51646" lon="0.06256">
        <ele>153.7</ele>
        <time>2020-05-30T17:34:00Z</time>
      </trkpt>
      <trkpt lat="46.51646" lon="0.06256">
        <ele>153.7</ele>
        <time>2020-05-30T17:34:01Z</time>
      </trkpt>
      <trkpt lat="46.51646" lon="0.06255">
        <ele>153.7</ele>
        <time>2020-05-30T17:34:02Z</time>
      </trkpt>
      <trkpt lat="46.51646" lon="0.06255">
        <ele>153.7</ele>
        <time>2020-05-30T17:34:03Z</time>
      </trkpt>
      <trkpt lat="46.51646" lon="0.06255">
        <ele>153.7</ele>
        <time>2020-05-30T17:34:04Z</time>
      </trkpt>
      <trkpt lat="46.51646" lon="0.06255">
        <ele>153.7</ele>
        <time>2020-05-30T17:34:05Z</time>
      </trkpt>
      <trkpt lat="46.51646" lon="0.06255">
        <ele>153.7</ele>
        <time>2020-05-30T17:34:06Z</time>
      </trkpt>
      <trkpt lat="46.51646" lon="0.06255">
        <ele>153.7</ele>
        <time>2020-05-30T17:34:07Z</time>
      </trkpt>
      <trkpt lat="46.51646" lon="0.06255">
        <ele>153.7</ele>
        <time>2020-05-30T17:34:08Z</time>
      </trkpt>
      <trkpt lat="46.51644" lon="0.06257">
        <ele>153.7</ele>
        <time>2020-05-30T17:34:09Z</time>
      </trkpt>
      <trkpt lat="46.51643" lon="0.06257">
        <ele>153.7</ele>
        <time>2020-05-30T17:34:10Z</time>
      </trkpt>
      <trkpt lat="46.51643" lon="0.06257">
        <ele>153.7</ele>
        <time>2020-05-30T17:34:11Z</time>
      </trkpt>
      <trkpt lat="46.51643" lon="0.06257">
        <ele>153.7</ele>
        <time>2020-05-30T17:34:12Z</time>
      </trkpt>
      <trkpt lat="46.51643" lon="0.06257">
        <ele>153.7</ele>
        <time>2020-05-30T17:34:13Z</time>
      </trkpt>
      <trkpt lat="46.51643" lon="0.06257">
        <ele>153.7</ele>
        <time>2020-05-30T17:34:14Z</time>
      </trkpt>
      <trkpt lat="46.51643" lon="0.06257">
        <ele>153.7</ele>
        <time>2020-05-30T17:34:15Z</time>
      </trkpt>
      <trkpt lat="46.51643" lon="0.06257">
        <ele>153.7</ele>
        <time>2020-05-30T17:34:16Z</time>
      </trkpt>
      <trkpt lat="46.51643" lon="0.06257">
        <ele>153.7</ele>
        <time>2020-05-30T17:34:17Z</time>
      </trkpt>
      <trkpt lat="46.51643" lon="0.06257">
        <ele>153.7</ele>
        <time>2020-05-30T17:34:18Z</time>
      </trkpt>
      <trkpt lat="46.51643" lon="0.06257">
        <ele>153.7</ele>
        <time>2020-05-30T17:34:19Z</time>
      </trkpt>
      <trkpt lat="46.51643" lon="0.06257">
        <ele>153.7</ele>
        <time>2020-05-30T17:34:20Z</time>
      </trkpt>
      <trkpt lat="46.51643" lon="0.06257">
        <ele>153.7</ele>
        <time>2020-05-30T17:34:21Z</time>
      </trkpt>
      <trkpt lat="46.51643" lon="0.06256">
        <ele>153.6</ele>
        <time>2020-05-30T17:34:22Z</time>
      </trkpt>
      <trkpt lat="46.51643" lon="0.06256">
        <ele>153.6</ele>
        <time>2020-05-30T17:34:23Z</time>
      </trkpt>
      <trkpt lat="46.51643" lon="0.06256">
        <ele>153.6</ele>
        <time>2020-05-30T17:34:24Z</time>
      </trkpt>
      <trkpt lat="46.51643" lon="0.06256">
        <ele>153.6</ele>
        <time>2020-05-30T17:34:25Z</time>
      </trkpt>
      <trkpt lat="46.51642" lon="0.06256">
        <ele>153.6</ele>
        <time>2020-05-30T17:34:26Z</time>
      </trkpt>
      <trkpt lat="46.51643" lon="0.06256">
        <ele>153.6</ele>
        <time>2020-05-30T17:34:27Z</time>
      </trkpt>
      <trkpt lat="46.51643" lon="0.06256">
        <ele>153.6</ele>
        <time>2020-05-30T17:34:28Z</time>
      </trkpt>
      <trkpt lat="46.51643" lon="0.06256">
        <ele>153.6</ele>
        <time>2020-05-30T17:34:29Z</time>
      </trkpt>
      <trkpt lat="46.51643" lon="0.06256">
        <ele>153.6</ele>
        <time>2020-05-30T17:34:30Z</time>
      </trkpt>
      <trkpt lat="46.51643" lon="0.06256">
        <ele>153.6</ele>
        <time>2020-05-30T17:34:31Z</time>
      </trkpt>
      <trkpt lat="46.51643" lon="0.06257">
        <ele>153.6</ele>
        <time>2020-05-30T17:34:32Z</time>
      </trkpt>
      <trkpt lat="46.51643" lon="0.06257">
        <ele>153.6</ele>
        <time>2020-05-30T17:34:33Z</time>
      </trkpt>
      <trkpt lat="46.51643" lon="0.06257">
        <ele>153.6</ele>
        <time>2020-05-30T17:34:34Z</time>
      </trkpt>
      <trkpt lat="46.51643" lon="0.06257">
        <ele>153.6</ele>
        <time>2020-05-30T17:34:35Z</time>
      </trkpt>
      <trkpt lat="46.51643" lon="0.06257">
        <ele>153.6</ele>
        <time>2020-05-30T17:34:36Z</time>
      </trkpt>
      <trkpt lat="46.51643" lon="0.06257">
        <ele>153.6</ele>
        <time>2020-05-30T17:34:37Z</time>
      </trkpt>
      <trkpt lat="46.51644" lon="0.06257">
        <ele>153.6</ele>
        <time>2020-05-30T17:34:38Z</time>
      </trkpt>
      <trkpt lat="46.51644" lon="0.06257">
        <ele>153.6</ele>
        <time>2020-05-30T17:34:39Z</time>
      </trkpt>
      <trkpt lat="46.51644" lon="0.06257">
        <ele>153.6</ele>
        <time>2020-05-30T17:34:40Z</time>
      </trkpt>
      <trkpt lat="46.51644" lon="0.06257">
        <ele>153.6</ele>
        <time>2020-05-30T17:34:41Z</time>
      </trkpt>
      <trkpt lat="46.51644" lon="0.06257">
        <ele>153.6</ele>
        <time>2020-05-30T17:34:42Z</time>
      </trkpt>
      <trkpt lat="46.51644" lon="0.06257">
        <ele>153.6</ele>
        <time>2020-05-30T17:34:43Z</time>
      </trkpt>
      <trkpt lat="46.51644" lon="0.06257">
        <ele>153.6</ele>
        <time>2020-05-30T17:34:44Z</time>
      </trkpt>
      <trkpt lat="46.51644" lon="0.06257">
        <ele>153.6</ele>
        <time>2020-05-30T17:34:45Z</time>
      </trkpt>
      <trkpt lat="46.51644" lon="0.06257">
        <ele>153.6</ele>
        <time>2020-05-30T17:34:46Z</time>
      </trkpt>
      <trkpt lat="46.51644" lon="0.06257">
        <ele>153.6</ele>
        <time>2020-05-30T17:34:47Z</time>
      </trkpt>
      <trkpt lat="46.51644" lon="0.06257">
        <ele>153.6</ele>
        <time>2020-05-30T17:34:48Z</time>
      </trkpt>
      <trkpt lat="46.51644" lon="0.06257">
        <ele>153.6</ele>
        <time>2020-05-30T17:34:49Z</time>
      </trkpt>
      <trkpt lat="46.51644" lon="0.06257">
        <ele>153.6</ele>
        <time>2020-05-30T17:34:50Z</time>
      </trkpt>
      <trkpt lat="46.51644" lon="0.06257">
        <ele>153.6</ele>
        <time>2020-05-30T17:34:51Z</time>
      </trkpt>
      <trkpt lat="46.51644" lon="0.06257">
        <ele>153.6</ele>
        <time>2020-05-30T17:34:52Z</time>
      </trkpt>
      <trkpt lat="46.51644" lon="0.06257">
        <ele>153.6</ele>
        <time>2020-05-30T17:34:53Z</time>
      </trkpt>
      <trkpt lat="46.51644" lon="0.06257">
        <ele>153.6</ele>
        <time>2020-05-30T17:34:54Z</time>
      </trkpt>
      <trkpt lat="46.51644" lon="0.06257">
        <ele>153.6</ele>
        <time>2020-05-30T17:34:55Z</time>
      </trkpt>
      <trkpt lat="46.51644" lon="0.06257">
        <ele>153.6</ele>
        <time>2020-05-30T17:34:56Z</time>
      </trkpt>
      <trkpt lat="46.51644" lon="0.06257">
        <ele>153.6</ele>
        <time>2020-05-30T17:34:57Z</time>
      </trkpt>
      <trkpt lat="46.51644" lon="0.06256">
        <ele>153.6</ele>
        <time>2020-05-30T17:34:58Z</time>
      </trkpt>
      <trkpt lat="46.51644" lon="0.06256">
        <ele>153.6</ele>
        <time>2020-05-30T17:34:59Z</time>
      </trkpt>
      <trkpt lat="46.51644" lon="0.06256">
        <ele>153.6</ele>
        <time>2020-05-30T17:35:00Z</time>
      </trkpt>
      <trkpt lat="46.51644" lon="0.06256">
        <ele>153.6</ele>
        <time>2020-05-30T17:35:01Z</time>
      </trkpt>
      <trkpt lat="46.51644" lon="0.06256">
        <ele>153.6</ele>
        <time>2020-05-30T17:35:02Z</time>
      </trkpt>
      <trkpt lat="46.51644" lon="0.06256">
        <ele>153.6</ele>
        <time>2020-05-30T17:35:03Z</time>
      </trkpt>
      <trkpt lat="46.51644" lon="0.06256">
        <ele>153.6</ele>
        <time>2020-05-30T17:35:04Z</time>
      </trkpt>
      <trkpt lat="46.51644" lon="0.06256">
        <ele>153.6</ele>
        <time>2020-05-30T17:35:05Z</time>
      </trkpt>
      <trkpt lat="46.51644" lon="0.06256">
        <ele>153.6</ele>
        <time>2020-05-30T17:35:06Z</time>
      </trkpt>
      <trkpt lat="46.51644" lon="0.06256">
        <ele>153.6</ele>
        <time>2020-05-30T17:35:07Z</time>
      </trkpt>
      <trkpt lat="46.51644" lon="0.06256">
        <ele>153.6</ele>
        <time>2020-05-30T17:35:08Z</time>
      </trkpt>
      <trkpt lat="46.51644" lon="0.06256">
        <ele>153.6</ele>
        <time>2020-05-30T17:35:09Z</time>
      </trkpt>
      <trkpt lat="46.51645" lon="0.06257">
        <ele>153.6</ele>
        <time>2020-05-30T17:35:10Z</time>
      </trkpt>
      <trkpt lat="46.51645" lon="0.06257">
        <ele>153.6</ele>
        <time>2020-05-30T17:35:11Z</time>
      </trkpt>
      <trkpt lat="46.51646" lon="0.06256">
        <ele>153.6</ele>
        <time>2020-05-30T17:35:12Z</time>
      </trkpt>
      <trkpt lat="46.51646" lon="0.06256">
        <ele>153.6</ele>
        <time>2020-05-30T17:35:13Z</time>
      </trkpt>
      <trkpt lat="46.51646" lon="0.06256">
        <ele>153.6</ele>
        <time>2020-05-30T17:35:14Z</time>
      </trkpt>
      <trkpt lat="46.51646" lon="0.06256">
        <ele>153.6</ele>
        <time>2020-05-30T17:35:15Z</time>
      </trkpt>
      <trkpt lat="46.51646" lon="0.06256">
        <ele>153.6</ele>
        <time>2020-05-30T17:35:16Z</time>
      </trkpt>
      <trkpt lat="46.51646" lon="0.06256">
        <ele>153.6</ele>
        <time>2020-05-30T17:35:17Z</time>
      </trkpt>
      <trkpt lat="46.51646" lon="0.06256">
        <ele>153.6</ele>
        <time>2020-05-30T17:35:18Z</time>
      </trkpt>
      <trkpt lat="46.51646" lon="0.06256">
        <ele>153.6</ele>
        <time>2020-05-30T17:35:19Z</time>
      </trkpt>
      <trkpt lat="46.51646" lon="0.06255">
        <ele>153.6</ele>
        <time>2020-05-30T17:35:20Z</time>
      </trkpt>
      <trkpt lat="46.51647" lon="0.06255">
        <ele>153.6</ele>
        <time>2020-05-30T17:35:21Z</time>
      </trkpt>
      <trkpt lat="46.51647" lon="0.06255">
        <ele>153.6</ele>
        <time>2020-05-30T17:35:22Z</time>
      </trkpt>
      <trkpt lat="46.51647" lon="0.06255">
        <ele>153.6</ele>
        <time>2020-05-30T17:35:23Z</time>
      </trkpt>
      <trkpt lat="46.51648" lon="0.06255">
        <ele>153.6</ele>
        <time>2020-05-30T17:35:24Z</time>
      </trkpt>
      <trkpt lat="46.51648" lon="0.06255">
        <ele>153.6</ele>
        <time>2020-05-30T17:35:25Z</time>
      </trkpt>
      <trkpt lat="46.51648" lon="0.06255">
        <ele>153.6</ele>
        <time>2020-05-30T17:35:26Z</time>
      </trkpt>
      <trkpt lat="46.51648" lon="0.06255">
        <ele>153.6</ele>
        <time>2020-05-30T17:35:27Z</time>
      </trkpt>
      <trkpt lat="46.51647" lon="0.06255">
        <ele>153.6</ele>
        <time>2020-05-30T17:35:28Z</time>
      </trkpt>
      <trkpt lat="46.51647" lon="0.06255">
        <ele>153.6</ele>
        <time>2020-05-30T17:35:29Z</time>
      </trkpt>
      <trkpt lat="46.51647" lon="0.06255">
        <ele>153.6</ele>
        <time>2020-05-30T17:35:30Z</time>
      </trkpt>
      <trkpt lat="46.51647" lon="0.06255">
        <ele>153.6</ele>
        <time>2020-05-30T17:35:31Z</time>
      </trkpt>
      <trkpt lat="46.51647" lon="0.06255">
        <ele>153.6</ele>
        <time>2020-05-30T17:35:32Z</time>
      </trkpt>
      <trkpt lat="46.51647" lon="0.06255">
        <ele>153.6</ele>
        <time>2020-05-30T17:35:33Z</time>
      </trkpt>
      <trkpt lat="46.51647" lon="0.06255">
        <ele>153.6</ele>
        <time>2020-05-30T17:35:34Z</time>
      </trkpt>
      <trkpt lat="46.51647" lon="0.06255">
        <ele>153.6</ele>
        <time>2020-05-30T17:35:35Z</time>
      </trkpt>
      <trkpt lat="46.51647" lon="0.06255">
        <ele>153.6</ele>
        <time>2020-05-30T17:35:36Z</time>
      </trkpt>
      <trkpt lat="46.51647" lon="0.06255">
        <ele>153.6</ele>
        <time>2020-05-30T17:35:37Z</time>
      </trkpt>
      <trkpt lat="46.51647" lon="0.06255">
        <ele>153.6</ele>
        <time>2020-05-30T17:35:38Z</time>
      </trkpt>
      <trkpt lat="46.51647" lon="0.06255">
        <ele>153.6</ele>
        <time>2020-05-30T17:35:39Z</time>
      </trkpt>
      <trkpt lat="46.51647" lon="0.06255">
        <ele>153.6</ele>
        <time>2020-05-30T17:35:40Z</time>
      </trkpt>
      <trkpt lat="46.51647" lon="0.06255">
        <ele>153.6</ele>
        <time>2020-05-30T17:35:41Z</time>
      </trkpt>
      <trkpt lat="46.51647" lon="0.06255">
        <ele>153.6</ele>
        <time>2020-05-30T17:35:42Z</time>
      </trkpt>
      <trkpt lat="46.51647" lon="0.06254">
        <ele>153.6</ele>
        <time>2020-05-30T17:35:43Z</time>
      </trkpt>
      <trkpt lat="46.51648" lon="0.06254">
        <ele>153.6</ele>
        <time>2020-05-30T17:35:44Z</time>
      </trkpt>
      <trkpt lat="46.51648" lon="0.06254">
        <ele>153.6</ele>
        <time>2020-05-30T17:35:45Z</time>
      </trkpt>
      <trkpt lat="46.51648" lon="0.06254">
        <ele>153.6</ele>
        <time>2020-05-30T17:35:46Z</time>
      </trkpt>
      <trkpt lat="46.51648" lon="0.06254">
        <ele>153.6</ele>
        <time>2020-05-30T17:35:47Z</time>
      </trkpt>
      <trkpt lat="46.51648" lon="0.06254">
        <ele>153.6</ele>
        <time>2020-05-30T17:35:48Z</time>
      </trkpt>
      <trkpt lat="46.51648" lon="0.06254">
        <ele>153.6</ele>
        <time>2020-05-30T17:35:49Z</time>
      </trkpt>
      <trkpt lat="46.51648" lon="0.06254">
        <ele>153.6</ele>
        <time>2020-05-30T17:35:50Z</time>
      </trkpt>
      <trkpt lat="46.51648" lon="0.06254">
        <ele>153.6</ele>
        <time>2020-05-30T17:35:51Z</time>
      </trkpt>
      <trkpt lat="46.51648" lon="0.06254">
        <ele>153.6</ele>
        <time>2020-05-30T17:35:52Z</time>
      </trkpt>
      <trkpt lat="46.51648" lon="0.06254">
        <ele>153.6</ele>
        <time>2020-05-30T17:35:53Z</time>
      </trkpt>
      <trkpt lat="46.51648" lon="0.06254">
        <ele>153.6</ele>
        <time>2020-05-30T17:35:54Z</time>
      </trkpt>
      <trkpt lat="46.51648" lon="0.06254">
        <ele>153.6</ele>
        <time>2020-05-30T17:35:55Z</time>
      </trkpt>
      <trkpt lat="46.51648" lon="0.06254">
        <ele>153.6</ele>
        <time>2020-05-30T17:35:56Z</time>
      </trkpt>
      <trkpt lat="46.51648" lon="0.06254">
        <ele>153.6</ele>
        <time>2020-05-30T17:35:57Z</time>
      </trkpt>
      <trkpt lat="46.51648" lon="0.06254">
        <ele>153.6</ele>
        <time>2020-05-30T17:35:58Z</time>
      </trkpt>
      <trkpt lat="46.51648" lon="0.06254">
        <ele>153.6</ele>
        <time>2020-05-30T17:35:59Z</time>
      </trkpt>
      <trkpt lat="46.51648" lon="0.06254">
        <ele>153.6</ele>
        <time>2020-05-30T17:36:00Z</time>
      </trkpt>
      <trkpt lat="46.51648" lon="0.06254">
        <ele>153.6</ele>
        <time>2020-05-30T17:36:01Z</time>
      </trkpt>
      <trkpt lat="46.51648" lon="0.06254">
        <ele>153.6</ele>
        <time>2020-05-30T17:36:02Z</time>
      </trkpt>
      <trkpt lat="46.51648" lon="0.06254">
        <ele>153.6</ele>
        <time>2020-05-30T17:36:03Z</time>
      </trkpt>
      <trkpt lat="46.51648" lon="0.06254">
        <ele>153.6</ele>
        <time>2020-05-30T17:36:04Z</time>
      </trkpt>
      <trkpt lat="46.51648" lon="0.06254">
        <ele>153.6</ele>
        <time>2020-05-30T17:36:05Z</time>
      </trkpt>
      <trkpt lat="46.51648" lon="0.06254">
        <ele>153.6</ele>
        <time>2020-05-30T17:36:06Z</time>
      </trkpt>
      <trkpt lat="46.51648" lon="0.06254">
        <ele>153.6</ele>
        <time>2020-05-30T17:36:07Z</time>
      </trkpt>
      <trkpt lat="46.51648" lon="0.06253">
        <ele>153.6</ele>
        <time>2020-05-30T17:36:08Z</time>
      </trkpt>
      <trkpt lat="46.51648" lon="0.06254">
        <ele>153.6</ele>
        <time>2020-05-30T17:36:09Z</time>
      </trkpt>
      <trkpt lat="46.51648" lon="0.06254">
        <ele>153.6</ele>
        <time>2020-05-30T17:36:10Z</time>
      </trkpt>
      <trkpt lat="46.51648" lon="0.06254">
        <ele>153.6</ele>
        <time>2020-05-30T17:36:11Z</time>
      </trkpt>
      <trkpt lat="46.51648" lon="0.06254">
        <ele>153.6</ele>
        <time>2020-05-30T17:36:12Z</time>
      </trkpt>
      <trkpt lat="46.51648" lon="0.06254">
        <ele>153.6</ele>
        <time>2020-05-30T17:36:13Z</time>
      </trkpt>
      <trkpt lat="46.51648" lon="0.06254">
        <ele>153.6</ele>
        <time>2020-05-30T17:36:14Z</time>
      </trkpt>
      <trkpt lat="46.51648" lon="0.06254">
        <ele>153.6</ele>
        <time>2020-05-30T17:36:15Z</time>
      </trkpt>
      <trkpt lat="46.51648" lon="0.06254">
        <ele>153.6</ele>
        <time>2020-05-30T17:36:16Z</time>
      </trkpt>
      <trkpt lat="46.51648" lon="0.06254">
        <ele>153.6</ele>
        <time>2020-05-30T17:36:17Z</time>
      </trkpt>
      <trkpt lat="46.51648" lon="0.06254">
        <ele>153.6</ele>
        <time>2020-05-30T17:36:18Z</time>
      </trkpt>
      <trkpt lat="46.51648" lon="0.06254">
        <ele>153.6</ele>
        <time>2020-05-30T17:36:19Z</time>
      </trkpt>
      <trkpt lat="46.51648" lon="0.06254">
        <ele>153.6</ele>
        <time>2020-05-30T17:36:20Z</time>
      </trkpt>
      <trkpt lat="46.51648" lon="0.06254">
        <ele>153.6</ele>
        <time>2020-05-30T17:36:21Z</time>
      </trkpt>
      <trkpt lat="46.51648" lon="0.06254">
        <ele>153.6</ele>
        <time>2020-05-30T17:36:22Z</time>
      </trkpt>
      <trkpt lat="46.51648" lon="0.06254">
        <ele>153.6</ele>
        <time>2020-05-30T17:36:23Z</time>
      </trkpt>
      <trkpt lat="46.51648" lon="0.06254">
        <ele>153.6</ele>
        <time>2020-05-30T17:36:24Z</time>
      </trkpt>
      <trkpt lat="46.51648" lon="0.06254">
        <ele>153.6</ele>
        <time>2020-05-30T17:36:25Z</time>
      </trkpt>
      <trkpt lat="46.51648" lon="0.06254">
        <ele>153.5</ele>
        <time>2020-05-30T17:36:26Z</time>
      </trkpt>
      <trkpt lat="46.51648" lon="0.06254">
        <ele>153.5</ele>
        <time>2020-05-30T17:36:27Z</time>
      </trkpt>
      <trkpt lat="46.51648" lon="0.06254">
        <ele>153.5</ele>
        <time>2020-05-30T17:36:28Z</time>
      </trkpt>
      <trkpt lat="46.51648" lon="0.06254">
        <ele>153.5</ele>
        <time>2020-05-30T17:36:29Z</time>
      </trkpt>
      <trkpt lat="46.51648" lon="0.06255">
        <ele>153.5</ele>
        <time>2020-05-30T17:36:30Z</time>
      </trkpt>
      <trkpt lat="46.51648" lon="0.06255">
        <ele>153.5</ele>
        <time>2020-05-30T17:36:31Z</time>
      </trkpt>
      <trkpt lat="46.51648" lon="0.06255">
        <ele>153.5</ele>
        <time>2020-05-30T17:36:32Z</time>
      </trkpt>
      <trkpt lat="46.51648" lon="0.06255">
        <ele>153.5</ele>
        <time>2020-05-30T17:36:33Z</time>
      </trkpt>
      <trkpt lat="46.51648" lon="0.06255">
        <ele>153.5</ele>
        <time>2020-05-30T17:36:34Z</time>
      </trkpt>
      <trkpt lat="46.51648" lon="0.06255">
        <ele>153.5</ele>
        <time>2020-05-30T17:36:35Z</time>
      </trkpt>
      <trkpt lat="46.51648" lon="0.06254">
        <ele>153.5</ele>
        <time>2020-05-30T17:36:36Z</time>
      </trkpt>
      <trkpt lat="46.51648" lon="0.06254">
        <ele>153.5</ele>
        <time>2020-05-30T17:36:37Z</time>
      </trkpt>
      <trkpt lat="46.51648" lon="0.06254">
        <ele>153.5</ele>
        <time>2020-05-30T17:36:38Z</time>
      </trkpt>
      <trkpt lat="46.51648" lon="0.06254">
        <ele>153.5</ele>
        <time>2020-05-30T17:36:39Z</time>
      </trkpt>
      <trkpt lat="46.51648" lon="0.06254">
        <ele>153.5</ele>
        <time>2020-05-30T17:36:40Z</time>
      </trkpt>
      <trkpt lat="46.51648" lon="0.06254">
        <ele>153.4</ele>
        <time>2020-05-30T17:36:41Z</time>
      </trkpt>
      <trkpt lat="46.51648" lon="0.06255">
        <ele>153.4</ele>
        <time>2020-05-30T17:36:42Z</time>
      </trkpt>
      <trkpt lat="46.51648" lon="0.06255">
        <ele>153.4</ele>
        <time>2020-05-30T17:36:43Z</time>
      </trkpt>
      <trkpt lat="46.51648" lon="0.06255">
        <ele>153.4</ele>
        <time>2020-05-30T17:36:44Z</time>
      </trkpt>
      <trkpt lat="46.51648" lon="0.06255">
        <ele>153.4</ele>
        <time>2020-05-30T17:36:45Z</time>
      </trkpt>
      <trkpt lat="46.51648" lon="0.06255">
        <ele>153.4</ele>
        <time>2020-05-30T17:36:46Z</time>
      </trkpt>
      <trkpt lat="46.51648" lon="0.06255">
        <ele>153.4</ele>
        <time>2020-05-30T17:36:47Z</time>
      </trkpt>
      <trkpt lat="46.51648" lon="0.06255">
        <ele>153.4</ele>
        <time>2020-05-30T17:36:48Z</time>
      </trkpt>
      <trkpt lat="46.51647" lon="0.06255">
        <ele>153.4</ele>
        <time>2020-05-30T17:36:49Z</time>
      </trkpt>
      <trkpt lat="46.51647" lon="0.06255">
        <ele>153.4</ele>
        <time>2020-05-30T17:36:50Z</time>
      </trkpt>
      <trkpt lat="46.51647" lon="0.06255">
        <ele>153.4</ele>
        <time>2020-05-30T17:36:51Z</time>
      </trkpt>
      <trkpt lat="46.51647" lon="0.06255">
        <ele>153.4</ele>
        <time>2020-05-30T17:36:52Z</time>
      </trkpt>
      <trkpt lat="46.51648" lon="0.06254">
        <ele>153.3</ele>
        <time>2020-05-30T17:36:53Z</time>
      </trkpt>
      <trkpt lat="46.51647" lon="0.06254">
        <ele>153.3</ele>
        <time>2020-05-30T17:36:54Z</time>
      </trkpt>
      <trkpt lat="46.51647" lon="0.06254">
        <ele>153.3</ele>
        <time>2020-05-30T17:36:55Z</time>
      </trkpt>
      <trkpt lat="46.51647" lon="0.06254">
        <ele>153.3</ele>
        <time>2020-05-30T17:36:56Z</time>
      </trkpt>
      <trkpt lat="46.51647" lon="0.06254">
        <ele>153.3</ele>
        <time>2020-05-30T17:36:57Z</time>
      </trkpt>
      <trkpt lat="46.51647" lon="0.06254">
        <ele>153.3</ele>
        <time>2020-05-30T17:36:58Z</time>
      </trkpt>
      <trkpt lat="46.51647" lon="0.06254">
        <ele>153.2</ele>
        <time>2020-05-30T17:36:59Z</time>
      </trkpt>
      <trkpt lat="46.51647" lon="0.06254">
        <ele>153.2</ele>
        <time>2020-05-30T17:37:00Z</time>
      </trkpt>
      <trkpt lat="46.51647" lon="0.06254">
        <ele>153.2</ele>
        <time>2020-05-30T17:37:01Z</time>
      </trkpt>
      <trkpt lat="46.51647" lon="0.06254">
        <ele>153.2</ele>
        <time>2020-05-30T17:37:02Z</time>
      </trkpt>
      <trkpt lat="46.51647" lon="0.06254">
        <ele>153.2</ele>
        <time>2020-05-30T17:37:03Z</time>
      </trkpt>
      <trkpt lat="46.51647" lon="0.06254">
        <ele>153.2</ele>
        <time>2020-05-30T17:37:04Z</time>
      </trkpt>
      <trkpt lat="46.51647" lon="0.06254">
        <ele>153.2</ele>
        <time>2020-05-30T17:37:05Z</time>
      </trkpt>
      <trkpt lat="46.51647" lon="0.06254">
        <ele>153.2</ele>
        <time>2020-05-30T17:37:06Z</time>
      </trkpt>
      <trkpt lat="46.51647" lon="0.06254">
        <ele>153.2</ele>
        <time>2020-05-30T17:37:07Z</time>
      </trkpt>
      <trkpt lat="46.51647" lon="0.06254">
        <ele>153.2</ele>
        <time>2020-05-30T17:37:08Z</time>
      </trkpt>
      <trkpt lat="46.51647" lon="0.06254">
        <ele>153.2</ele>
        <time>2020-05-30T17:37:09Z</time>
      </trkpt>
      <trkpt lat="46.51647" lon="0.06254">
        <ele>153.2</ele>
        <time>2020-05-30T17:37:10Z</time>
      </trkpt>
      <trkpt lat="46.51647" lon="0.06254">
        <ele>153.2</ele>
        <time>2020-05-30T17:37:11Z</time>
      </trkpt>
      <trkpt lat="46.51647" lon="0.06254">
        <ele>153.2</ele>
        <time>2020-05-30T17:37:12Z</time>
      </trkpt>
      <trkpt lat="46.51647" lon="0.06254">
        <ele>153.2</ele>
        <time>2020-05-30T17:37:13Z</time>
      </trkpt>
      <trkpt lat="46.51647" lon="0.06254">
        <ele>153.2</ele>
        <time>2020-05-30T17:37:14Z</time>
      </trkpt>
      <trkpt lat="46.51647" lon="0.06254">
        <ele>153.2</ele>
        <time>2020-05-30T17:37:15Z</time>
      </trkpt>
      <trkpt lat="46.51647" lon="0.06254">
        <ele>153.1</ele>
        <time>2020-05-30T17:37:16Z</time>
      </trkpt>
      <trkpt lat="46.51647" lon="0.06254">
        <ele>153.1</ele>
        <time>2020-05-30T17:37:17Z</time>
      </trkpt>
      <trkpt lat="46.51647" lon="0.06254">
        <ele>153.1</ele>
        <time>2020-05-30T17:37:18Z</time>
      </trkpt>
      <trkpt lat="46.51647" lon="0.06254">
        <ele>153.1</ele>
        <time>2020-05-30T17:37:19Z</time>
      </trkpt>
      <trkpt lat="46.51647" lon="0.06254">
        <ele>153.1</ele>
        <time>2020-05-30T17:37:20Z</time>
      </trkpt>
      <trkpt lat="46.51647" lon="0.06254">
        <ele>153.1</ele>
        <time>2020-05-30T17:37:21Z</time>
      </trkpt>
      <trkpt lat="46.51647" lon="0.06254">
        <ele>153.1</ele>
        <time>2020-05-30T17:37:22Z</time>
      </trkpt>
      <trkpt lat="46.51647" lon="0.06254">
        <ele>153.1</ele>
        <time>2020-05-30T17:37:23Z</time>
      </trkpt>
      <trkpt lat="46.51647" lon="0.06254">
        <ele>153.1</ele>
        <time>2020-05-30T17:37:24Z</time>
      </trkpt>
      <trkpt lat="46.51647" lon="0.06254">
        <ele>153.1</ele>
        <time>2020-05-30T17:37:25Z</time>
      </trkpt>
      <trkpt lat="46.51647" lon="0.06254">
        <ele>153.1</ele>
        <time>2020-05-30T17:37:26Z</time>
      </trkpt>
      <trkpt lat="46.51647" lon="0.06254">
        <ele>153</ele>
        <time>2020-05-30T17:37:27Z</time>
      </trkpt>
      <trkpt lat="46.51647" lon="0.06254">
        <ele>153</ele>
        <time>2020-05-30T17:37:28Z</time>
      </trkpt>
      <trkpt lat="46.51647" lon="0.06254">
        <ele>153</ele>
        <time>2020-05-30T17:37:29Z</time>
      </trkpt>
      <trkpt lat="46.51647" lon="0.06255">
        <ele>153</ele>
        <time>2020-05-30T17:37:30Z</time>
      </trkpt>
      <trkpt lat="46.51647" lon="0.06254">
        <ele>153</ele>
        <time>2020-05-30T17:37:31Z</time>
      </trkpt>
      <trkpt lat="46.51647" lon="0.06254">
        <ele>153</ele>
        <time>2020-05-30T17:37:32Z</time>
      </trkpt>
      <trkpt lat="46.51647" lon="0.06254">
        <ele>153</ele>
        <time>2020-05-30T17:37:33Z</time>
      </trkpt>
      <trkpt lat="46.51647" lon="0.06255">
        <ele>153</ele>
        <time>2020-05-30T17:37:34Z</time>
      </trkpt>
      <trkpt lat="46.51647" lon="0.06255">
        <ele>153</ele>
        <time>2020-05-30T17:37:35Z</time>
      </trkpt>
      <trkpt lat="46.51647" lon="0.06255">
        <ele>152.9</ele>
        <time>2020-05-30T17:37:36Z</time>
      </trkpt>
      <trkpt lat="46.51647" lon="0.06255">
        <ele>152.9</ele>
        <time>2020-05-30T17:37:37Z</time>
      </trkpt>
      <trkpt lat="46.51647" lon="0.06255">
        <ele>152.9</ele>
        <time>2020-05-30T17:37:38Z</time>
      </trkpt>
      <trkpt lat="46.51647" lon="0.06255">
        <ele>152.9</ele>
        <time>2020-05-30T17:37:39Z</time>
      </trkpt>
      <trkpt lat="46.51647" lon="0.06255">
        <ele>152.9</ele>
        <time>2020-05-30T17:37:40Z</time>
      </trkpt>
      <trkpt lat="46.51647" lon="0.06255">
        <ele>152.9</ele>
        <time>2020-05-30T17:37:41Z</time>
      </trkpt>
      <trkpt lat="46.51647" lon="0.06255">
        <ele>152.9</ele>
        <time>2020-05-30T17:37:42Z</time>
      </trkpt>
      <trkpt lat="46.51647" lon="0.06254">
        <ele>152.9</ele>
        <time>2020-05-30T17:37:43Z</time>
      </trkpt>
      <trkpt lat="46.51647" lon="0.06254">
        <ele>152.9</ele>
        <time>2020-05-30T17:37:44Z</time>
      </trkpt>
      <trkpt lat="46.51647" lon="0.06254">
        <ele>152.9</ele>
        <time>2020-05-30T17:37:45Z</time>
      </trkpt>
      <trkpt lat="46.51647" lon="0.06254">
        <ele>152.9</ele>
        <time>2020-05-30T17:37:46Z</time>
      </trkpt>
      <trkpt lat="46.51647" lon="0.06254">
        <ele>152.9</ele>
        <time>2020-05-30T17:37:47Z</time>
      </trkpt>
      <trkpt lat="46.51647" lon="0.06254">
        <ele>152.9</ele>
        <time>2020-05-30T17:37:48Z</time>
      </trkpt>
      <trkpt lat="46.51647" lon="0.06254">
        <ele>152.9</ele>
        <time>2020-05-30T17:37:49Z</time>
      </trkpt>
      <trkpt lat="46.51647" lon="0.06254">
        <ele>152.8</ele>
        <time>2020-05-30T17:37:50Z</time>
      </trkpt>
      <trkpt lat="46.51647" lon="0.06254">
        <ele>152.8</ele>
        <time>2020-05-30T17:37:51Z</time>
      </trkpt>
      <trkpt lat="46.51647" lon="0.06254">
        <ele>152.8</ele>
        <time>2020-05-30T17:37:52Z</time>
      </trkpt>
      <trkpt lat="46.51647" lon="0.06254">
        <ele>152.8</ele>
        <time>2020-05-30T17:37:53Z</time>
      </trkpt>
      <trkpt lat="46.51647" lon="0.06254">
        <ele>152.8</ele>
        <time>2020-05-30T17:37:54Z</time>
      </trkpt>
      <trkpt lat="46.51647" lon="0.06255">
        <ele>152.8</ele>
        <time>2020-05-30T17:37:55Z</time>
      </trkpt>
      <trkpt lat="46.51647" lon="0.06255">
        <ele>152.8</ele>
        <time>2020-05-30T17:37:56Z</time>
      </trkpt>
      <trkpt lat="46.51647" lon="0.06255">
        <ele>152.8</ele>
        <time>2020-05-30T17:37:57Z</time>
      </trkpt>
      <trkpt lat="46.51647" lon="0.06255">
        <ele>152.8</ele>
        <time>2020-05-30T17:37:58Z</time>
      </trkpt>
      <trkpt lat="46.51647" lon="0.06256">
        <ele>152.8</ele>
        <time>2020-05-30T17:37:59Z</time>
      </trkpt>
      <trkpt lat="46.51647" lon="0.06256">
        <ele>152.8</ele>
        <time>2020-05-30T17:38:00Z</time>
      </trkpt>
      <trkpt lat="46.51647" lon="0.06256">
        <ele>152.8</ele>
        <time>2020-05-30T17:38:01Z</time>
      </trkpt>
      <trkpt lat="46.51647" lon="0.06256">
        <ele>152.8</ele>
        <time>2020-05-30T17:38:02Z</time>
      </trkpt>
      <trkpt lat="46.51647" lon="0.06256">
        <ele>152.8</ele>
        <time>2020-05-30T17:38:03Z</time>
      </trkpt>
      <trkpt lat="46.51647" lon="0.06256">
        <ele>152.8</ele>
        <time>2020-05-30T17:38:04Z</time>
      </trkpt>
      <trkpt lat="46.51647" lon="0.06256">
        <ele>152.8</ele>
        <time>2020-05-30T17:38:05Z</time>
      </trkpt>
      <trkpt lat="46.51647" lon="0.06256">
        <ele>152.8</ele>
        <time>2020-05-30T17:38:06Z</time>
      </trkpt>
      <trkpt lat="46.51647" lon="0.06255">
        <ele>152.8</ele>
        <time>2020-05-30T17:38:07Z</time>
      </trkpt>
      <trkpt lat="46.51647" lon="0.06255">
        <ele>152.8</ele>
        <time>2020-05-30T17:38:08Z</time>
      </trkpt>
      <trkpt lat="46.51647" lon="0.06255">
        <ele>152.8</ele>
        <time>2020-05-30T17:38:09Z</time>
      </trkpt>
      <trkpt lat="46.51647" lon="0.06255">
        <ele>152.8</ele>
        <time>2020-05-30T17:38:10Z</time>
      </trkpt>
      <trkpt lat="46.51647" lon="0.06255">
        <ele>152.8</ele>
        <time>2020-05-30T17:38:11Z</time>
      </trkpt>
      <trkpt lat="46.51647" lon="0.06255">
        <ele>152.7</ele>
        <time>2020-05-30T17:38:12Z</time>
      </trkpt>
      <trkpt lat="46.51647" lon="0.06255">
        <ele>152.7</ele>
        <time>2020-05-30T17:38:13Z</time>
      </trkpt>
      <trkpt lat="46.51647" lon="0.06255">
        <ele>152.7</ele>
        <time>2020-05-30T17:38:14Z</time>
      </trkpt>
      <trkpt lat="46.51647" lon="0.06255">
        <ele>152.7</ele>
        <time>2020-05-30T17:38:15Z</time>
      </trkpt>
      <trkpt lat="46.51647" lon="0.06255">
        <ele>152.7</ele>
        <time>2020-05-30T17:38:16Z</time>
      </trkpt>
      <trkpt lat="46.51647" lon="0.06255">
        <ele>152.7</ele>
        <time>2020-05-30T17:38:17Z</time>
      </trkpt>
      <trkpt lat="46.51647" lon="0.06255">
        <ele>152.7</ele>
        <time>2020-05-30T17:38:18Z</time>
      </trkpt>
      <trkpt lat="46.51647" lon="0.06255">
        <ele>152.7</ele>
        <time>2020-05-30T17:38:19Z</time>
      </trkpt>
      <trkpt lat="46.51647" lon="0.06255">
        <ele>152.7</ele>
        <time>2020-05-30T17:38:20Z</time>
      </trkpt>
      <trkpt lat="46.51646" lon="0.06255">
        <ele>152.7</ele>
        <time>2020-05-30T17:38:21Z</time>
      </trkpt>
      <trkpt lat="46.51646" lon="0.06255">
        <ele>152.7</ele>
        <time>2020-05-30T17:38:22Z</time>
      </trkpt>
      <trkpt lat="46.51646" lon="0.06255">
        <ele>152.7</ele>
        <time>2020-05-30T17:38:23Z</time>
      </trkpt>
      <trkpt lat="46.51646" lon="0.06255">
        <ele>152.7</ele>
        <time>2020-05-30T17:38:24Z</time>
      </trkpt>
      <trkpt lat="46.51646" lon="0.06254">
        <ele>152.7</ele>
        <time>2020-05-30T17:38:25Z</time>
      </trkpt>
      <trkpt lat="46.51646" lon="0.06254">
        <ele>152.7</ele>
        <time>2020-05-30T17:38:26Z</time>
      </trkpt>
      <trkpt lat="46.51646" lon="0.06255">
        <ele>152.7</ele>
        <time>2020-05-30T17:38:27Z</time>
      </trkpt>
      <trkpt lat="46.51646" lon="0.06255">
        <ele>152.7</ele>
        <time>2020-05-30T17:38:28Z</time>
      </trkpt>
      <trkpt lat="46.51646" lon="0.06255">
        <ele>152.7</ele>
        <time>2020-05-30T17:38:29Z</time>
      </trkpt>
      <trkpt lat="46.51646" lon="0.06255">
        <ele>152.7</ele>
        <time>2020-05-30T17:38:30Z</time>
      </trkpt>
      <trkpt lat="46.51646" lon="0.06255">
        <ele>152.7</ele>
        <time>2020-05-30T17:38:31Z</time>
      </trkpt>
      <trkpt lat="46.51646" lon="0.06255">
        <ele>152.7</ele>
        <time>2020-05-30T17:38:32Z</time>
      </trkpt>
      <trkpt lat="46.51646" lon="0.06255">
        <ele>152.7</ele>
        <time>2020-05-30T17:38:33Z</time>
      </trkpt>
      <trkpt lat="46.51646" lon="0.06255">
        <ele>152.7</ele>
        <time>2020-05-30T17:38:34Z</time>
      </trkpt>
      <trkpt lat="46.51646" lon="0.06255">
        <ele>152.7</ele>
        <time>2020-05-30T17:38:35Z</time>
      </trkpt>
      <trkpt lat="46.51647" lon="0.06255">
        <ele>152.7</ele>
        <time>2020-05-30T17:38:36Z</time>
      </trkpt>
      <trkpt lat="46.51647" lon="0.06255">
        <ele>152.7</ele>
        <time>2020-05-30T17:38:37Z</time>
      </trkpt>
      <trkpt lat="46.51647" lon="0.06254">
        <ele>152.7</ele>
        <time>2020-05-30T17:38:38Z</time>
      </trkpt>
      <trkpt lat="46.51647" lon="0.06254">
        <ele>152.7</ele>
        <time>2020-05-30T17:38:39Z</time>
      </trkpt>
      <trkpt lat="46.51647" lon="0.06254">
        <ele>152.7</ele>
        <time>2020-05-30T17:38:40Z</time>
      </trkpt>
      <trkpt lat="46.51646" lon="0.06254">
        <ele>152.7</ele>
        <time>2020-05-30T17:38:41Z</time>
      </trkpt>
      <trkpt lat="46.51646" lon="0.06254">
        <ele>152.7</ele>
        <time>2020-05-30T17:38:42Z</time>
      </trkpt>
      <trkpt lat="46.51647" lon="0.06254">
        <ele>152.7</ele>
        <time>2020-05-30T17:38:43Z</time>
      </trkpt>
      <trkpt lat="46.51647" lon="0.06254">
        <ele>152.7</ele>
        <time>2020-05-30T17:38:44Z</time>
      </trkpt>
      <trkpt lat="46.51646" lon="0.06254">
        <ele>152.7</ele>
        <time>2020-05-30T17:38:45Z</time>
      </trkpt>
      <trkpt lat="46.51646" lon="0.06254">
        <ele>152.7</ele>
        <time>2020-05-30T17:38:46Z</time>
      </trkpt>
      <trkpt lat="46.51646" lon="0.06254">
        <ele>152.7</ele>
        <time>2020-05-30T17:38:47Z</time>
      </trkpt>
      <trkpt lat="46.51646" lon="0.06254">
        <ele>152.7</ele>
        <time>2020-05-30T17:38:48Z</time>
      </trkpt>
      <trkpt lat="46.51646" lon="0.06254">
        <ele>152.7</ele>
        <time>2020-05-30T17:38:49Z</time>
      </trkpt>
      <trkpt lat="46.51646" lon="0.06254">
        <ele>152.7</ele>
        <time>2020-05-30T17:38:50Z</time>
      </trkpt>
      <trkpt lat="46.51646" lon="0.06254">
        <ele>152.7</ele>
        <time>2020-05-30T17:38:51Z</time>
      </trkpt>
      <trkpt lat="46.51646" lon="0.06253">
        <ele>152.7</ele>
        <time>2020-05-30T17:38:52Z</time>
      </trkpt>
      <trkpt lat="46.51646" lon="0.06254">
        <ele>152.7</ele>
        <time>2020-05-30T17:38:53Z</time>
      </trkpt>
      <trkpt lat="46.51646" lon="0.06254">
        <ele>152.7</ele>
        <time>2020-05-30T17:38:54Z</time>
      </trkpt>
      <trkpt lat="46.51646" lon="0.06254">
        <ele>152.7</ele>
        <time>2020-05-30T17:38:55Z</time>
      </trkpt>
      <trkpt lat="46.51646" lon="0.06254">
        <ele>152.7</ele>
        <time>2020-05-30T17:38:56Z</time>
      </trkpt>
      <trkpt lat="46.51646" lon="0.06254">
        <ele>152.7</ele>
        <time>2020-05-30T17:38:57Z</time>
      </trkpt>
      <trkpt lat="46.51646" lon="0.06254">
        <ele>152.7</ele>
        <time>2020-05-30T17:38:58Z</time>
      </trkpt>
      <trkpt lat="46.51646" lon="0.06254">
        <ele>152.7</ele>
        <time>2020-05-30T17:38:59Z</time>
      </trkpt>
      <trkpt lat="46.51646" lon="0.06254">
        <ele>152.7</ele>
        <time>2020-05-30T17:39:00Z</time>
      </trkpt>
      <trkpt lat="46.51646" lon="0.06255">
        <ele>152.7</ele>
        <time>2020-05-30T17:39:01Z</time>
      </trkpt>
      <trkpt lat="46.51646" lon="0.06255">
        <ele>152.7</ele>
        <time>2020-05-30T17:39:02Z</time>
      </trkpt>
      <trkpt lat="46.51646" lon="0.06255">
        <ele>152.7</ele>
        <time>2020-05-30T17:39:03Z</time>
      </trkpt>
      <trkpt lat="46.51646" lon="0.06255">
        <ele>152.7</ele>
        <time>2020-05-30T17:39:04Z</time>
      </trkpt>
      <trkpt lat="46.51646" lon="0.06255">
        <ele>152.7</ele>
        <time>2020-05-30T17:39:05Z</time>
      </trkpt>
      <trkpt lat="46.51646" lon="0.06255">
        <ele>152.7</ele>
        <time>2020-05-30T17:39:06Z</time>
      </trkpt>
      <trkpt lat="46.51646" lon="0.06255">
        <ele>152.7</ele>
        <time>2020-05-30T17:39:07Z</time>
      </trkpt>
      <trkpt lat="46.51646" lon="0.06255">
        <ele>152.7</ele>
        <time>2020-05-30T17:39:08Z</time>
      </trkpt>
      <trkpt lat="46.51646" lon="0.06255">
        <ele>152.7</ele>
        <time>2020-05-30T17:39:09Z</time>
      </trkpt>
      <trkpt lat="46.51646" lon="0.06255">
        <ele>152.7</ele>
        <time>2020-05-30T17:39:10Z</time>
      </trkpt>
      <trkpt lat="46.51646" lon="0.06255">
        <ele>152.7</ele>
        <time>2020-05-30T17:39:11Z</time>
      </trkpt>
      <trkpt lat="46.51646" lon="0.06255">
        <ele>152.6</ele>
        <time>2020-05-30T17:39:12Z</time>
      </trkpt>
      <trkpt lat="46.51646" lon="0.06255">
        <ele>152.6</ele>
        <time>2020-05-30T17:39:13Z</time>
      </trkpt>
      <trkpt lat="46.51646" lon="0.06255">
        <ele>152.6</ele>
        <time>2020-05-30T17:39:14Z</time>
      </trkpt>
      <trkpt lat="46.51646" lon="0.06255">
        <ele>152.6</ele>
        <time>2020-05-30T17:39:15Z</time>
      </trkpt>
      <trkpt lat="46.51646" lon="0.06255">
        <ele>152.6</ele>
        <time>2020-05-30T17:39:16Z</time>
      </trkpt>
      <trkpt lat="46.51646" lon="0.06255">
        <ele>152.6</ele>
        <time>2020-05-30T17:39:17Z</time>
      </trkpt>
      <trkpt lat="46.51647" lon="0.06255">
        <ele>152.6</ele>
        <time>2020-05-30T17:39:18Z</time>
      </trkpt>
      <trkpt lat="46.51647" lon="0.06255">
        <ele>152.6</ele>
        <time>2020-05-30T17:39:19Z</time>
      </trkpt>
      <trkpt lat="46.51646" lon="0.06255">
        <ele>152.6</ele>
        <time>2020-05-30T17:39:20Z</time>
      </trkpt>
      <trkpt lat="46.51646" lon="0.06255">
        <ele>152.6</ele>
        <time>2020-05-30T17:39:21Z</time>
      </trkpt>
      <trkpt lat="46.51646" lon="0.06255">
        <ele>152.6</ele>
        <time>2020-05-30T17:39:22Z</time>
      </trkpt>
      <trkpt lat="46.51646" lon="0.06255">
        <ele>152.6</ele>
        <time>2020-05-30T17:39:23Z</time>
      </trkpt>
      <trkpt lat="46.51646" lon="0.06255">
        <ele>152.6</ele>
        <time>2020-05-30T17:39:24Z</time>
      </trkpt>
      <trkpt lat="46.51646" lon="0.06255">
        <ele>152.6</ele>
        <time>2020-05-30T17:39:25Z</time>
      </trkpt>
      <trkpt lat="46.51646" lon="0.06255">
        <ele>152.6</ele>
        <time>2020-05-30T17:39:26Z</time>
      </trkpt>
      <trkpt lat="46.51646" lon="0.06255">
        <ele>152.6</ele>
        <time>2020-05-30T17:39:27Z</time>
      </trkpt>
      <trkpt lat="46.51646" lon="0.06255">
        <ele>152.6</ele>
        <time>2020-05-30T17:39:28Z</time>
      </trkpt>
      <trkpt lat="46.51646" lon="0.06255">
        <ele>152.6</ele>
        <time>2020-05-30T17:39:29Z</time>
      </trkpt>
      <trkpt lat="46.51646" lon="0.06255">
        <ele>152.6</ele>
        <time>2020-05-30T17:39:30Z</time>
      </trkpt>
      <trkpt lat="46.51646" lon="0.06255">
        <ele>152.6</ele>
        <time>2020-05-30T17:39:31Z</time>
      </trkpt>
      <trkpt lat="46.51646" lon="0.06255">
        <ele>152.6</ele>
        <time>2020-05-30T17:39:32Z</time>
      </trkpt>
      <trkpt lat="46.51646" lon="0.06255">
        <ele>152.6</ele>
        <time>2020-05-30T17:39:33Z</time>
      </trkpt>
      <trkpt lat="46.51646" lon="0.06255">
        <ele>152.6</ele>
        <time>2020-05-30T17:39:34Z</time>
      </trkpt>
      <trkpt lat="46.51646" lon="0.06255">
        <ele>152.6</ele>
        <time>2020-05-30T17:39:35Z</time>
      </trkpt>
      <trkpt lat="46.51646" lon="0.06255">
        <ele>152.6</ele>
        <time>2020-05-30T17:39:36Z</time>
      </trkpt>
      <trkpt lat="46.51646" lon="0.06255">
        <ele>152.6</ele>
        <time>2020-05-30T17:39:37Z</time>
      </trkpt>
      <trkpt lat="46.51646" lon="0.06255">
        <ele>152.6</ele>
        <time>2020-05-30T17:39:38Z</time>
      </trkpt>
      <trkpt lat="46.51646" lon="0.06255">
        <ele>152.6</ele>
        <time>2020-05-30T17:39:39Z</time>
      </trkpt>
      <trkpt lat="46.51646" lon="0.06255">
        <ele>152.6</ele>
        <time>2020-05-30T17:39:40Z</time>
      </trkpt>
      <trkpt lat="46.51646" lon="0.06255">
        <ele>152.6</ele>
        <time>2020-05-30T17:39:41Z</time>
      </trkpt>
      <trkpt lat="46.51646" lon="0.06255">
        <ele>152.6</ele>
        <time>2020-05-30T17:39:42Z</time>
      </trkpt>
      <trkpt lat="46.51646" lon="0.06255">
        <ele>152.6</ele>
        <time>2020-05-30T17:39:43Z</time>
      </trkpt>
      <trkpt lat="46.51646" lon="0.06255">
        <ele>152.6</ele>
        <time>2020-05-30T17:39:44Z</time>
      </trkpt>
      <trkpt lat="46.51646" lon="0.06255">
        <ele>152.6</ele>
        <time>2020-05-30T17:39:45Z</time>
      </trkpt>
      <trkpt lat="46.51645" lon="0.06255">
        <ele>152.6</ele>
        <time>2020-05-30T17:39:46Z</time>
      </trkpt>
      <trkpt lat="46.51645" lon="0.06255">
        <ele>152.6</ele>
        <time>2020-05-30T17:39:47Z</time>
      </trkpt>
      <trkpt lat="46.51645" lon="0.06255">
        <ele>152.6</ele>
        <time>2020-05-30T17:39:48Z</time>
      </trkpt>
      <trkpt lat="46.51645" lon="0.06255">
        <ele>152.6</ele>
        <time>2020-05-30T17:39:49Z</time>
      </trkpt>
      <trkpt lat="46.51645" lon="0.06255">
        <ele>152.6</ele>
        <time>2020-05-30T17:39:50Z</time>
      </trkpt>
      <trkpt lat="46.51645" lon="0.06254">
        <ele>152.6</ele>
        <time>2020-05-30T17:39:51Z</time>
      </trkpt>
      <trkpt lat="46.51645" lon="0.06254">
        <ele>152.6</ele>
        <time>2020-05-30T17:39:52Z</time>
      </trkpt>
      <trkpt lat="46.51645" lon="0.06255">
        <ele>152.6</ele>
        <time>2020-05-30T17:39:53Z</time>
      </trkpt>
      <trkpt lat="46.51645" lon="0.06255">
        <ele>152.6</ele>
        <time>2020-05-30T17:39:54Z</time>
      </trkpt>
      <trkpt lat="46.51645" lon="0.06255">
        <ele>152.6</ele>
        <time>2020-05-30T17:39:55Z</time>
      </trkpt>
      <trkpt lat="46.51645" lon="0.06255">
        <ele>152.6</ele>
        <time>2020-05-30T17:39:56Z</time>
      </trkpt>
      <trkpt lat="46.51645" lon="0.06255">
        <ele>152.6</ele>
        <time>2020-05-30T17:39:57Z</time>
      </trkpt>
      <trkpt lat="46.51645" lon="0.06255">
        <ele>152.6</ele>
        <time>2020-05-30T17:39:58Z</time>
      </trkpt>
      <trkpt lat="46.51645" lon="0.06255">
        <ele>152.6</ele>
        <time>2020-05-30T17:39:59Z</time>
      </trkpt>
      <trkpt lat="46.51645" lon="0.06255">
        <ele>152.6</ele>
        <time>2020-05-30T17:40:00Z</time>
      </trkpt>
      <trkpt lat="46.51645" lon="0.06255">
        <ele>152.6</ele>
        <time>2020-05-30T17:40:01Z</time>
      </trkpt>
      <trkpt lat="46.51645" lon="0.06255">
        <ele>152.6</ele>
        <time>2020-05-30T17:40:02Z</time>
      </trkpt>
      <trkpt lat="46.51645" lon="0.06255">
        <ele>152.6</ele>
        <time>2020-05-30T17:40:03Z</time>
      </trkpt>
      <trkpt lat="46.51645" lon="0.06255">
        <ele>152.6</ele>
        <time>2020-05-30T17:40:04Z</time>
      </trkpt>
      <trkpt lat="46.51645" lon="0.06255">
        <ele>152.6</ele>
        <time>2020-05-30T17:40:05Z</time>
      </trkpt>
      <trkpt lat="46.51645" lon="0.06255">
        <ele>152.6</ele>
        <time>2020-05-30T17:40:06Z</time>
      </trkpt>
      <trkpt lat="46.51645" lon="0.06255">
        <ele>152.6</ele>
        <time>2020-05-30T17:40:07Z</time>
      </trkpt>
      <trkpt lat="46.51645" lon="0.06255">
        <ele>152.6</ele>
        <time>2020-05-30T17:40:08Z</time>
      </trkpt>
      <trkpt lat="46.51645" lon="0.06255">
        <ele>152.6</ele>
        <time>2020-05-30T17:40:09Z</time>
      </trkpt>
      <trkpt lat="46.51645" lon="0.06255">
        <ele>152.6</ele>
        <time>2020-05-30T17:40:10Z</time>
      </trkpt>
      <trkpt lat="46.51644" lon="0.06255">
        <ele>152.6</ele>
        <time>2020-05-30T17:40:11Z</time>
      </trkpt>
      <trkpt lat="46.51644" lon="0.06255">
        <ele>152.6</ele>
        <time>2020-05-30T17:40:12Z</time>
      </trkpt>
      <trkpt lat="46.51644" lon="0.06255">
        <ele>152.6</ele>
        <time>2020-05-30T17:40:13Z</time>
      </trkpt>
      <trkpt lat="46.51644" lon="0.06255">
        <ele>152.6</ele>
        <time>2020-05-30T17:40:14Z</time>
      </trkpt>
      <trkpt lat="46.51644" lon="0.06255">
        <ele>152.6</ele>
        <time>2020-05-30T17:40:15Z</time>
      </trkpt>
      <trkpt lat="46.51644" lon="0.06255">
        <ele>152.6</ele>
        <time>2020-05-30T17:40:16Z</time>
      </trkpt>
      <trkpt lat="46.51644" lon="0.06255">
        <ele>152.6</ele>
        <time>2020-05-30T17:40:17Z</time>
      </trkpt>
      <trkpt lat="46.51644" lon="0.06255">
        <ele>152.6</ele>
        <time>2020-05-30T17:40:18Z</time>
      </trkpt>
      <trkpt lat="46.51644" lon="0.06254">
        <ele>152.6</ele>
        <time>2020-05-30T17:40:19Z</time>
      </trkpt>
      <trkpt lat="46.51644" lon="0.06254">
        <ele>152.6</ele>
        <time>2020-05-30T17:40:20Z</time>
      </trkpt>
      <trkpt lat="46.51644" lon="0.06254">
        <ele>152.6</ele>
        <time>2020-05-30T17:40:21Z</time>
      </trkpt>
      <trkpt lat="46.51644" lon="0.06254">
        <ele>152.6</ele>
        <time>2020-05-30T17:40:22Z</time>
      </trkpt>
      <trkpt lat="46.51644" lon="0.06254">
        <ele>152.6</ele>
        <time>2020-05-30T17:40:23Z</time>
      </trkpt>
      <trkpt lat="46.51644" lon="0.06254">
        <ele>152.6</ele>
        <time>2020-05-30T17:40:24Z</time>
      </trkpt>
      <trkpt lat="46.51644" lon="0.06254">
        <ele>152.6</ele>
        <time>2020-05-30T17:40:25Z</time>
      </trkpt>
      <trkpt lat="46.51644" lon="0.06254">
        <ele>152.6</ele>
        <time>2020-05-30T17:40:26Z</time>
      </trkpt>
      <trkpt lat="46.51644" lon="0.06254">
        <ele>152.5</ele>
        <time>2020-05-30T17:40:27Z</time>
      </trkpt>
      <trkpt lat="46.51643" lon="0.06254">
        <ele>152.5</ele>
        <time>2020-05-30T17:40:28Z</time>
      </trkpt>
      <trkpt lat="46.51643" lon="0.06254">
        <ele>152.5</ele>
        <time>2020-05-30T17:40:29Z</time>
      </trkpt>
      <trkpt lat="46.51643" lon="0.06254">
        <ele>152.5</ele>
        <time>2020-05-30T17:40:30Z</time>
      </trkpt>
      <trkpt lat="46.51644" lon="0.06254">
        <ele>152.5</ele>
        <time>2020-05-30T17:40:31Z</time>
      </trkpt>
      <trkpt lat="46.51643" lon="0.06254">
        <ele>152.5</ele>
        <time>2020-05-30T17:40:32Z</time>
      </trkpt>
      <trkpt lat="46.51643" lon="0.06254">
        <ele>152.5</ele>
        <time>2020-05-30T17:40:33Z</time>
      </trkpt>
      <trkpt lat="46.51643" lon="0.06255">
        <ele>152.5</ele>
        <time>2020-05-30T17:40:34Z</time>
      </trkpt>
      <trkpt lat="46.51643" lon="0.06254">
        <ele>152.5</ele>
        <time>2020-05-30T17:40:35Z</time>
      </trkpt>
      <trkpt lat="46.51643" lon="0.06254">
        <ele>152.5</ele>
        <time>2020-05-30T17:40:36Z</time>
      </trkpt>
      <trkpt lat="46.51643" lon="0.06254">
        <ele>152.5</ele>
        <time>2020-05-30T17:40:37Z</time>
      </trkpt>
      <trkpt lat="46.51643" lon="0.06254">
        <ele>152.5</ele>
        <time>2020-05-30T17:40:38Z</time>
      </trkpt>
      <trkpt lat="46.51642" lon="0.06253">
        <ele>152.5</ele>
        <time>2020-05-30T17:40:39Z</time>
      </trkpt>
      <trkpt lat="46.51641" lon="0.06253">
        <ele>152.5</ele>
        <time>2020-05-30T17:40:40Z</time>
      </trkpt>
      <trkpt lat="46.5164" lon="0.06253">
        <ele>152.5</ele>
        <time>2020-05-30T17:40:41Z</time>
      </trkpt>
      <trkpt lat="46.51639" lon="0.06251">
        <ele>152.5</ele>
        <time>2020-05-30T17:40:42Z</time>
      </trkpt>
      <trkpt lat="46.51639" lon="0.0625">
        <ele>152.4</ele>
        <time>2020-05-30T17:40:43Z</time>
      </trkpt>
      <trkpt lat="46.5164" lon="0.06247">
        <ele>152.4</ele>
        <time>2020-05-30T17:40:44Z</time>
      </trkpt>
      <trkpt lat="46.51639" lon="0.06242">
        <ele>152.4</ele>
        <time>2020-05-30T17:40:45Z</time>
      </trkpt>
      <trkpt lat="46.51639" lon="0.06241">
        <ele>152.4</ele>
        <time>2020-05-30T17:40:46Z</time>
      </trkpt>
      <trkpt lat="46.51637" lon="0.06235">
        <ele>152.3</ele>
        <time>2020-05-30T17:40:47Z</time>
      </trkpt>
      <trkpt lat="46.51636" lon="0.06233">
        <ele>152.3</ele>
        <time>2020-05-30T17:40:48Z</time>
      </trkpt>
      <trkpt lat="46.51635" lon="0.0623">
        <ele>152.3</ele>
        <time>2020-05-30T17:40:49Z</time>
      </trkpt>
      <trkpt lat="46.51635" lon="0.06228">
        <ele>152.3</ele>
        <time>2020-05-30T17:40:50Z</time>
      </trkpt>
      <trkpt lat="46.51634" lon="0.06224">
        <ele>152.2</ele>
        <time>2020-05-30T17:40:51Z</time>
      </trkpt>
      <trkpt lat="46.51632" lon="0.06218">
        <ele>152.2</ele>
        <time>2020-05-30T17:40:52Z</time>
      </trkpt>
      <trkpt lat="46.51632" lon="0.06217">
        <ele>152.2</ele>
        <time>2020-05-30T17:40:53Z</time>
      </trkpt>
      <trkpt lat="46.5163" lon="0.06209">
        <ele>152.2</ele>
        <time>2020-05-30T17:40:54Z</time>
      </trkpt>
      <trkpt lat="46.51629" lon="0.06204">
        <ele>152.2</ele>
        <time>2020-05-30T17:40:55Z</time>
      </trkpt>
      <trkpt lat="46.51628" lon="0.06196">
        <ele>152.1</ele>
        <time>2020-05-30T17:40:56Z</time>
      </trkpt>
      <trkpt lat="46.51626" lon="0.06189">
        <ele>152.1</ele>
        <time>2020-05-30T17:40:57Z</time>
      </trkpt>
      <trkpt lat="46.51624" lon="0.0618">
        <ele>152.1</ele>
        <time>2020-05-30T17:40:58Z</time>
      </trkpt>
      <trkpt lat="46.51623" lon="0.06171">
        <ele>152.1</ele>
        <time>2020-05-30T17:40:59Z</time>
      </trkpt>
      <trkpt lat="46.5162" lon="0.0616">
        <ele>152</ele>
        <time>2020-05-30T17:41:00Z</time>
      </trkpt>
      <trkpt lat="46.51617" lon="0.06151">
        <ele>152</ele>
        <time>2020-05-30T17:41:01Z</time>
      </trkpt>
      <trkpt lat="46.51616" lon="0.06142">
        <ele>152</ele>
        <time>2020-05-30T17:41:02Z</time>
      </trkpt>
      <trkpt lat="46.51614" lon="0.06132">
        <ele>151.9</ele>
        <time>2020-05-30T17:41:03Z</time>
      </trkpt>
      <trkpt lat="46.51612" lon="0.06124">
        <ele>151.9</ele>
        <time>2020-05-30T17:41:04Z</time>
      </trkpt>
      <trkpt lat="46.51611" lon="0.06114">
        <ele>151.8</ele>
        <time>2020-05-30T17:41:05Z</time>
      </trkpt>
      <trkpt lat="46.5161" lon="0.06105">
        <ele>151.8</ele>
        <time>2020-05-30T17:41:06Z</time>
      </trkpt>
      <trkpt lat="46.51609" lon="0.06097">
        <ele>151.8</ele>
        <time>2020-05-30T17:41:07Z</time>
      </trkpt>
      <trkpt lat="46.51608" lon="0.06088">
        <ele>151.8</ele>
        <time>2020-05-30T17:41:08Z</time>
      </trkpt>
      <trkpt lat="46.51607" lon="0.06081">
        <ele>151.8</ele>
        <time>2020-05-30T17:41:09Z</time>
      </trkpt>
      <trkpt lat="46.51606" lon="0.06073">
        <ele>151.7</ele>
        <time>2020-05-30T17:41:10Z</time>
      </trkpt>
      <trkpt lat="46.51606" lon="0.06063">
        <ele>151.7</ele>
        <time>2020-05-30T17:41:11Z</time>
      </trkpt>
      <trkpt lat="46.51605" lon="0.06056">
        <ele>151.7</ele>
        <time>2020-05-30T17:41:12Z</time>
      </trkpt>
      <trkpt lat="46.51604" lon="0.06048">
        <ele>151.7</ele>
        <time>2020-05-30T17:41:13Z</time>
      </trkpt>
      <trkpt lat="46.51603" lon="0.06039">
        <ele>151.7</ele>
        <time>2020-05-30T17:41:14Z</time>
      </trkpt>
      <trkpt lat="46.51601" lon="0.06031">
        <ele>151.7</ele>
        <time>2020-05-30T17:41:15Z</time>
      </trkpt>
      <trkpt lat="46.516" lon="0.06023">
        <ele>151.7</ele>
        <time>2020-05-30T17:41:16Z</time>
      </trkpt>
      <trkpt lat="46.51598" lon="0.06014">
        <ele>151.7</ele>
        <time>2020-05-30T17:41:17Z</time>
      </trkpt>
      <trkpt lat="46.51597" lon="0.06005">
        <ele>151.7</ele>
        <time>2020-05-30T17:41:18Z</time>
      </trkpt>
      <trkpt lat="46.51595" lon="0.05998">
        <ele>151.7</ele>
        <time>2020-05-30T17:41:19Z</time>
      </trkpt>
      <trkpt lat="46.51593" lon="0.05989">
        <ele>151.8</ele>
        <time>2020-05-30T17:41:20Z</time>
      </trkpt>
      <trkpt lat="46.51592" lon="0.0598">
        <ele>151.8</ele>
        <time>2020-05-30T17:41:21Z</time>
      </trkpt>
      <trkpt lat="46.5159" lon="0.05971">
        <ele>151.9</ele>
        <time>2020-05-30T17:41:22Z</time>
      </trkpt>
      <trkpt lat="46.51589" lon="0.05964">
        <ele>151.9</ele>
        <time>2020-05-30T17:41:23Z</time>
      </trkpt>
      <trkpt lat="46.51587" lon="0.05955">
        <ele>151.9</ele>
        <time>2020-05-30T17:41:24Z</time>
      </trkpt>
      <trkpt lat="46.51586" lon="0.05946">
        <ele>152</ele>
        <time>2020-05-30T17:41:25Z</time>
      </trkpt>
      <trkpt lat="46.51585" lon="0.05938">
        <ele>152</ele>
        <time>2020-05-30T17:41:26Z</time>
      </trkpt>
      <trkpt lat="46.51584" lon="0.05929">
        <ele>152.1</ele>
        <time>2020-05-30T17:41:27Z</time>
      </trkpt>
      <trkpt lat="46.51582" lon="0.05922">
        <ele>152.2</ele>
        <time>2020-05-30T17:41:28Z</time>
      </trkpt>
      <trkpt lat="46.51581" lon="0.05915">
        <ele>152.2</ele>
        <time>2020-05-30T17:41:29Z</time>
      </trkpt>
      <trkpt lat="46.5158" lon="0.05909">
        <ele>152.3</ele>
        <time>2020-05-30T17:41:30Z</time>
      </trkpt>
      <trkpt lat="46.51579" lon="0.059">
        <ele>152.4</ele>
        <time>2020-05-30T17:41:31Z</time>
      </trkpt>
      <trkpt lat="46.51578" lon="0.05893">
        <ele>152.5</ele>
        <time>2020-05-30T17:41:32Z</time>
      </trkpt>
      <trkpt lat="46.51577" lon="0.05884">
        <ele>152.6</ele>
        <time>2020-05-30T17:41:33Z</time>
      </trkpt>
      <trkpt lat="46.51576" lon="0.05876">
        <ele>152.6</ele>
        <time>2020-05-30T17:41:34Z</time>
      </trkpt>
      <trkpt lat="46.51575" lon="0.05868">
        <ele>152.6</ele>
        <time>2020-05-30T17:41:35Z</time>
      </trkpt>
      <trkpt lat="46.51574" lon="0.05861">
        <ele>152.7</ele>
        <time>2020-05-30T17:41:36Z</time>
      </trkpt>
      <trkpt lat="46.51573" lon="0.05854">
        <ele>152.7</ele>
        <time>2020-05-30T17:41:37Z</time>
      </trkpt>
      <trkpt lat="46.51571" lon="0.05848">
        <ele>152.7</ele>
        <time>2020-05-30T17:41:38Z</time>
      </trkpt>
      <trkpt lat="46.5157" lon="0.0584">
        <ele>152.7</ele>
        <time>2020-05-30T17:41:39Z</time>
      </trkpt>
      <trkpt lat="46.5157" lon="0.05832">
        <ele>152.8</ele>
        <time>2020-05-30T17:41:40Z</time>
      </trkpt>
      <trkpt lat="46.51568" lon="0.05823">
        <ele>152.8</ele>
        <time>2020-05-30T17:41:41Z</time>
      </trkpt>
      <trkpt lat="46.51567" lon="0.05815">
        <ele>152.8</ele>
        <time>2020-05-30T17:41:42Z</time>
      </trkpt>
      <trkpt lat="46.51565" lon="0.05808">
        <ele>152.9</ele>
        <time>2020-05-30T17:41:43Z</time>
      </trkpt>
      <trkpt lat="46.51564" lon="0.058">
        <ele>152.9</ele>
        <time>2020-05-30T17:41:44Z</time>
      </trkpt>
      <trkpt lat="46.51563" lon="0.05791">
        <ele>153</ele>
        <time>2020-05-30T17:41:45Z</time>
      </trkpt>
      <trkpt lat="46.51561" lon="0.05784">
        <ele>153</ele>
        <time>2020-05-30T17:41:46Z</time>
      </trkpt>
      <trkpt lat="46.51559" lon="0.05776">
        <ele>153</ele>
        <time>2020-05-30T17:41:47Z</time>
      </trkpt>
      <trkpt lat="46.51558" lon="0.05769">
        <ele>153.1</ele>
        <time>2020-05-30T17:41:48Z</time>
      </trkpt>
      <trkpt lat="46.51556" lon="0.05761">
        <ele>153.1</ele>
        <time>2020-05-30T17:41:49Z</time>
      </trkpt>
      <trkpt lat="46.51554" lon="0.05754">
        <ele>153.1</ele>
        <time>2020-05-30T17:41:50Z</time>
      </trkpt>
      <trkpt lat="46.51553" lon="0.05746">
        <ele>153.1</ele>
        <time>2020-05-30T17:41:51Z</time>
      </trkpt>
      <trkpt lat="46.51552" lon="0.05739">
        <ele>153.2</ele>
        <time>2020-05-30T17:41:52Z</time>
      </trkpt>
      <trkpt lat="46.51551" lon="0.0573">
        <ele>153.3</ele>
        <time>2020-05-30T17:41:53Z</time>
      </trkpt>
      <trkpt lat="46.5155" lon="0.05721">
        <ele>153.3</ele>
        <time>2020-05-30T17:41:54Z</time>
      </trkpt>
      <trkpt lat="46.51549" lon="0.05712">
        <ele>153.4</ele>
        <time>2020-05-30T17:41:55Z</time>
      </trkpt>
      <trkpt lat="46.51548" lon="0.05704">
        <ele>153.5</ele>
        <time>2020-05-30T17:41:56Z</time>
      </trkpt>
      <trkpt lat="46.51547" lon="0.05696">
        <ele>153.5</ele>
        <time>2020-05-30T17:41:57Z</time>
      </trkpt>
      <trkpt lat="46.51545" lon="0.05688">
        <ele>153.6</ele>
        <time>2020-05-30T17:41:58Z</time>
      </trkpt>
      <trkpt lat="46.51545" lon="0.05681">
        <ele>153.6</ele>
        <time>2020-05-30T17:41:59Z</time>
      </trkpt>
      <trkpt lat="46.51544" lon="0.05674">
        <ele>153.6</ele>
        <time>2020-05-30T17:42:00Z</time>
      </trkpt>
      <trkpt lat="46.51543" lon="0.05666">
        <ele>153.7</ele>
        <time>2020-05-30T17:42:01Z</time>
      </trkpt>
      <trkpt lat="46.51542" lon="0.05658">
        <ele>153.7</ele>
        <time>2020-05-30T17:42:02Z</time>
      </trkpt>
      <trkpt lat="46.51541" lon="0.0565">
        <ele>153.8</ele>
        <time>2020-05-30T17:42:03Z</time>
      </trkpt>
      <trkpt lat="46.5154" lon="0.05642">
        <ele>153.8</ele>
        <time>2020-05-30T17:42:04Z</time>
      </trkpt>
      <trkpt lat="46.51539" lon="0.05634">
        <ele>153.8</ele>
        <time>2020-05-30T17:42:05Z</time>
      </trkpt>
      <trkpt lat="46.51538" lon="0.05626">
        <ele>153.9</ele>
        <time>2020-05-30T17:42:06Z</time>
      </trkpt>
      <trkpt lat="46.51538" lon="0.05619">
        <ele>153.9</ele>
        <time>2020-05-30T17:42:07Z</time>
      </trkpt>
      <trkpt lat="46.51538" lon="0.0561">
        <ele>154</ele>
        <time>2020-05-30T17:42:08Z</time>
      </trkpt>
      <trkpt lat="46.51537" lon="0.05601">
        <ele>154</ele>
        <time>2020-05-30T17:42:09Z</time>
      </trkpt>
      <trkpt lat="46.51536" lon="0.05592">
        <ele>154.1</ele>
        <time>2020-05-30T17:42:10Z</time>
      </trkpt>
      <trkpt lat="46.51534" lon="0.05585">
        <ele>154.1</ele>
        <time>2020-05-30T17:42:11Z</time>
      </trkpt>
      <trkpt lat="46.51533" lon="0.05577">
        <ele>154.2</ele>
        <time>2020-05-30T17:42:12Z</time>
      </trkpt>
      <trkpt lat="46.51532" lon="0.05569">
        <ele>154.2</ele>
        <time>2020-05-30T17:42:13Z</time>
      </trkpt>
      <trkpt lat="46.51532" lon="0.05562">
        <ele>154.2</ele>
        <time>2020-05-30T17:42:14Z</time>
      </trkpt>
      <trkpt lat="46.51532" lon="0.05554">
        <ele>154.3</ele>
        <time>2020-05-30T17:42:15Z</time>
      </trkpt>
      <trkpt lat="46.51531" lon="0.05545">
        <ele>154.3</ele>
        <time>2020-05-30T17:42:16Z</time>
      </trkpt>
      <trkpt lat="46.51529" lon="0.05536">
        <ele>154.3</ele>
        <time>2020-05-30T17:42:17Z</time>
      </trkpt>
      <trkpt lat="46.5153" lon="0.05527">
        <ele>154.3</ele>
        <time>2020-05-30T17:42:18Z</time>
      </trkpt>
      <trkpt lat="46.51531" lon="0.05518">
        <ele>154.3</ele>
        <time>2020-05-30T17:42:19Z</time>
      </trkpt>
      <trkpt lat="46.51532" lon="0.05509">
        <ele>154.3</ele>
        <time>2020-05-30T17:42:20Z</time>
      </trkpt>
      <trkpt lat="46.51532" lon="0.055">
        <ele>154.3</ele>
        <time>2020-05-30T17:42:21Z</time>
      </trkpt>
      <trkpt lat="46.51533" lon="0.05492">
        <ele>154.3</ele>
        <time>2020-05-30T17:42:22Z</time>
      </trkpt>
      <trkpt lat="46.51533" lon="0.05483">
        <ele>154.3</ele>
        <time>2020-05-30T17:42:23Z</time>
      </trkpt>
      <trkpt lat="46.51533" lon="0.05475">
        <ele>154.3</ele>
        <time>2020-05-30T17:42:24Z</time>
      </trkpt>
      <trkpt lat="46.51534" lon="0.05466">
        <ele>154.3</ele>
        <time>2020-05-30T17:42:25Z</time>
      </trkpt>
      <trkpt lat="46.51536" lon="0.05459">
        <ele>154.3</ele>
        <time>2020-05-30T17:42:26Z</time>
      </trkpt>
      <trkpt lat="46.51536" lon="0.05447">
        <ele>154.4</ele>
        <time>2020-05-30T17:42:27Z</time>
      </trkpt>
      <trkpt lat="46.51537" lon="0.05439">
        <ele>154.4</ele>
        <time>2020-05-30T17:42:28Z</time>
      </trkpt>
      <trkpt lat="46.51538" lon="0.0543">
        <ele>154.5</ele>
        <time>2020-05-30T17:42:29Z</time>
      </trkpt>
      <trkpt lat="46.51539" lon="0.05422">
        <ele>154.6</ele>
        <time>2020-05-30T17:42:30Z</time>
      </trkpt>
      <trkpt lat="46.51539" lon="0.05413">
        <ele>154.7</ele>
        <time>2020-05-30T17:42:31Z</time>
      </trkpt>
      <trkpt lat="46.51539" lon="0.05405">
        <ele>154.8</ele>
        <time>2020-05-30T17:42:32Z</time>
      </trkpt>
      <trkpt lat="46.51539" lon="0.05396">
        <ele>154.8</ele>
        <time>2020-05-30T17:42:33Z</time>
      </trkpt>
      <trkpt lat="46.51539" lon="0.05388">
        <ele>154.9</ele>
        <time>2020-05-30T17:42:34Z</time>
      </trkpt>
      <trkpt lat="46.5154" lon="0.05379">
        <ele>154.9</ele>
        <time>2020-05-30T17:42:35Z</time>
      </trkpt>
      <trkpt lat="46.51541" lon="0.0537">
        <ele>154.9</ele>
        <time>2020-05-30T17:42:36Z</time>
      </trkpt>
      <trkpt lat="46.51542" lon="0.05362">
        <ele>154.9</ele>
        <time>2020-05-30T17:42:37Z</time>
      </trkpt>
      <trkpt lat="46.51543" lon="0.05354">
        <ele>154.9</ele>
        <time>2020-05-30T17:42:38Z</time>
      </trkpt>
      <trkpt lat="46.51544" lon="0.05346">
        <ele>154.9</ele>
        <time>2020-05-30T17:42:39Z</time>
      </trkpt>
      <trkpt lat="46.51544" lon="0.05337">
        <ele>154.8</ele>
        <time>2020-05-30T17:42:40Z</time>
      </trkpt>
      <trkpt lat="46.51545" lon="0.05327">
        <ele>154.8</ele>
        <time>2020-05-30T17:42:41Z</time>
      </trkpt>
      <trkpt lat="46.51545" lon="0.05318">
        <ele>154.9</ele>
        <time>2020-05-30T17:42:42Z</time>
      </trkpt>
      <trkpt lat="46.51545" lon="0.05309">
        <ele>154.9</ele>
        <time>2020-05-30T17:42:43Z</time>
      </trkpt>
      <trkpt lat="46.51546" lon="0.053">
        <ele>154.9</ele>
        <time>2020-05-30T17:42:44Z</time>
      </trkpt>
      <trkpt lat="46.51546" lon="0.05293">
        <ele>155</ele>
        <time>2020-05-30T17:42:45Z</time>
      </trkpt>
      <trkpt lat="46.51547" lon="0.05286">
        <ele>155</ele>
        <time>2020-05-30T17:42:46Z</time>
      </trkpt>
      <trkpt lat="46.51547" lon="0.05279">
        <ele>155</ele>
        <time>2020-05-30T17:42:47Z</time>
      </trkpt>
      <trkpt lat="46.51548" lon="0.05272">
        <ele>155</ele>
        <time>2020-05-30T17:42:48Z</time>
      </trkpt>
      <trkpt lat="46.5155" lon="0.05262">
        <ele>155.1</ele>
        <time>2020-05-30T17:42:49Z</time>
      </trkpt>
      <trkpt lat="46.5155" lon="0.05255">
        <ele>155.1</ele>
        <time>2020-05-30T17:42:50Z</time>
      </trkpt>
      <trkpt lat="46.51551" lon="0.05245">
        <ele>155.2</ele>
        <time>2020-05-30T17:42:51Z</time>
      </trkpt>
      <trkpt lat="46.51552" lon="0.05236">
        <ele>155.3</ele>
        <time>2020-05-30T17:42:52Z</time>
      </trkpt>
      <trkpt lat="46.51552" lon="0.05229">
        <ele>155.3</ele>
        <time>2020-05-30T17:42:53Z</time>
      </trkpt>
      <trkpt lat="46.51553" lon="0.05219">
        <ele>155.4</ele>
        <time>2020-05-30T17:42:54Z</time>
      </trkpt>
      <trkpt lat="46.51554" lon="0.05211">
        <ele>155.5</ele>
        <time>2020-05-30T17:42:55Z</time>
      </trkpt>
      <trkpt lat="46.51555" lon="0.05204">
        <ele>155.5</ele>
        <time>2020-05-30T17:42:56Z</time>
      </trkpt>
      <trkpt lat="46.51556" lon="0.05194">
        <ele>155.5</ele>
        <time>2020-05-30T17:42:57Z</time>
      </trkpt>
      <trkpt lat="46.51556" lon="0.05185">
        <ele>155.6</ele>
        <time>2020-05-30T17:42:58Z</time>
      </trkpt>
      <trkpt lat="46.51556" lon="0.05176">
        <ele>155.6</ele>
        <time>2020-05-30T17:42:59Z</time>
      </trkpt>
      <trkpt lat="46.51557" lon="0.05169">
        <ele>155.6</ele>
        <time>2020-05-30T17:43:00Z</time>
      </trkpt>
      <trkpt lat="46.51559" lon="0.0516">
        <ele>155.6</ele>
        <time>2020-05-30T17:43:01Z</time>
      </trkpt>
      <trkpt lat="46.51559" lon="0.05153">
        <ele>155.7</ele>
        <time>2020-05-30T17:43:02Z</time>
      </trkpt>
      <trkpt lat="46.5156" lon="0.05144">
        <ele>155.7</ele>
        <time>2020-05-30T17:43:03Z</time>
      </trkpt>
      <trkpt lat="46.51561" lon="0.05135">
        <ele>155.7</ele>
        <time>2020-05-30T17:43:04Z</time>
      </trkpt>
      <trkpt lat="46.51561" lon="0.05127">
        <ele>155.7</ele>
        <time>2020-05-30T17:43:05Z</time>
      </trkpt>
      <trkpt lat="46.51561" lon="0.05118">
        <ele>155.7</ele>
        <time>2020-05-30T17:43:06Z</time>
      </trkpt>
      <trkpt lat="46.51562" lon="0.05109">
        <ele>155.7</ele>
        <time>2020-05-30T17:43:07Z</time>
      </trkpt>
      <trkpt lat="46.51562" lon="0.05102">
        <ele>155.7</ele>
        <time>2020-05-30T17:43:08Z</time>
      </trkpt>
      <trkpt lat="46.51563" lon="0.05092">
        <ele>155.7</ele>
        <time>2020-05-30T17:43:09Z</time>
      </trkpt>
      <trkpt lat="46.51563" lon="0.05084">
        <ele>155.7</ele>
        <time>2020-05-30T17:43:10Z</time>
      </trkpt>
      <trkpt lat="46.51563" lon="0.05075">
        <ele>155.6</ele>
        <time>2020-05-30T17:43:11Z</time>
      </trkpt>
      <trkpt lat="46.51563" lon="0.05067">
        <ele>155.6</ele>
        <time>2020-05-30T17:43:12Z</time>
      </trkpt>
      <trkpt lat="46.51564" lon="0.05058">
        <ele>155.6</ele>
        <time>2020-05-30T17:43:13Z</time>
      </trkpt>
      <trkpt lat="46.51564" lon="0.0505">
        <ele>155.6</ele>
        <time>2020-05-30T17:43:14Z</time>
      </trkpt>
      <trkpt lat="46.51565" lon="0.05041">
        <ele>155.6</ele>
        <time>2020-05-30T17:43:15Z</time>
      </trkpt>
      <trkpt lat="46.51565" lon="0.05032">
        <ele>155.5</ele>
        <time>2020-05-30T17:43:16Z</time>
      </trkpt>
      <trkpt lat="46.51565" lon="0.05026">
        <ele>155.5</ele>
        <time>2020-05-30T17:43:17Z</time>
      </trkpt>
      <trkpt lat="46.51567" lon="0.05016">
        <ele>155.5</ele>
        <time>2020-05-30T17:43:18Z</time>
      </trkpt>
      <trkpt lat="46.51568" lon="0.05008">
        <ele>155.5</ele>
        <time>2020-05-30T17:43:19Z</time>
      </trkpt>
      <trkpt lat="46.51568" lon="0.05">
        <ele>155.4</ele>
        <time>2020-05-30T17:43:20Z</time>
      </trkpt>
      <trkpt lat="46.51569" lon="0.04992">
        <ele>155.4</ele>
        <time>2020-05-30T17:43:21Z</time>
      </trkpt>
      <trkpt lat="46.51569" lon="0.04983">
        <ele>155.4</ele>
        <time>2020-05-30T17:43:22Z</time>
      </trkpt>
      <trkpt lat="46.5157" lon="0.04974">
        <ele>155.4</ele>
        <time>2020-05-30T17:43:23Z</time>
      </trkpt>
      <trkpt lat="46.5157" lon="0.04966">
        <ele>155.3</ele>
        <time>2020-05-30T17:43:24Z</time>
      </trkpt>
      <trkpt lat="46.5157" lon="0.04958">
        <ele>155.3</ele>
        <time>2020-05-30T17:43:25Z</time>
      </trkpt>
      <trkpt lat="46.51569" lon="0.0495">
        <ele>155.3</ele>
        <time>2020-05-30T17:43:26Z</time>
      </trkpt>
      <trkpt lat="46.51568" lon="0.04941">
        <ele>155.3</ele>
        <time>2020-05-30T17:43:27Z</time>
      </trkpt>
      <trkpt lat="46.51568" lon="0.04933">
        <ele>155.3</ele>
        <time>2020-05-30T17:43:28Z</time>
      </trkpt>
      <trkpt lat="46.51567" lon="0.04923">
        <ele>155.3</ele>
        <time>2020-05-30T17:43:29Z</time>
      </trkpt>
      <trkpt lat="46.51567" lon="0.04916">
        <ele>155.3</ele>
        <time>2020-05-30T17:43:30Z</time>
      </trkpt>
      <trkpt lat="46.51566" lon="0.04907">
        <ele>155.2</ele>
        <time>2020-05-30T17:43:31Z</time>
      </trkpt>
      <trkpt lat="46.51565" lon="0.04899">
        <ele>155.2</ele>
        <time>2020-05-30T17:43:32Z</time>
      </trkpt>
      <trkpt lat="46.51563" lon="0.04888">
        <ele>155.2</ele>
        <time>2020-05-30T17:43:33Z</time>
      </trkpt>
      <trkpt lat="46.51562" lon="0.0488">
        <ele>155.2</ele>
        <time>2020-05-30T17:43:34Z</time>
      </trkpt>
      <trkpt lat="46.5156" lon="0.04871">
        <ele>155.2</ele>
        <time>2020-05-30T17:43:35Z</time>
      </trkpt>
      <trkpt lat="46.51558" lon="0.04863">
        <ele>155.2</ele>
        <time>2020-05-30T17:43:36Z</time>
      </trkpt>
      <trkpt lat="46.51556" lon="0.04854">
        <ele>155.1</ele>
        <time>2020-05-30T17:43:37Z</time>
      </trkpt>
      <trkpt lat="46.51554" lon="0.04844">
        <ele>155.1</ele>
        <time>2020-05-30T17:43:38Z</time>
      </trkpt>
      <trkpt lat="46.51551" lon="0.04835">
        <ele>155</ele>
        <time>2020-05-30T17:43:39Z</time>
      </trkpt>
      <trkpt lat="46.51549" lon="0.04826">
        <ele>154.8</ele>
        <time>2020-05-30T17:43:40Z</time>
      </trkpt>
      <trkpt lat="46.51545" lon="0.04818">
        <ele>154.7</ele>
        <time>2020-05-30T17:43:41Z</time>
      </trkpt>
      <trkpt lat="46.51542" lon="0.04811">
        <ele>154.6</ele>
        <time>2020-05-30T17:43:42Z</time>
      </trkpt>
      <trkpt lat="46.51538" lon="0.04803">
        <ele>154.5</ele>
        <time>2020-05-30T17:43:43Z</time>
      </trkpt>
      <trkpt lat="46.51534" lon="0.04795">
        <ele>154.3</ele>
        <time>2020-05-30T17:43:44Z</time>
      </trkpt>
      <trkpt lat="46.51529" lon="0.04787">
        <ele>154.2</ele>
        <time>2020-05-30T17:43:45Z</time>
      </trkpt>
      <trkpt lat="46.51525" lon="0.0478">
        <ele>154.1</ele>
        <time>2020-05-30T17:43:46Z</time>
      </trkpt>
      <trkpt lat="46.5152" lon="0.04773">
        <ele>154</ele>
        <time>2020-05-30T17:43:47Z</time>
      </trkpt>
      <trkpt lat="46.51516" lon="0.04765">
        <ele>154</ele>
        <time>2020-05-30T17:43:48Z</time>
      </trkpt>
      <trkpt lat="46.51512" lon="0.04757">
        <ele>153.9</ele>
        <time>2020-05-30T17:43:49Z</time>
      </trkpt>
      <trkpt lat="46.51507" lon="0.0475">
        <ele>153.8</ele>
        <time>2020-05-30T17:43:50Z</time>
      </trkpt>
      <trkpt lat="46.51503" lon="0.04743">
        <ele>153.7</ele>
        <time>2020-05-30T17:43:51Z</time>
      </trkpt>
      <trkpt lat="46.51499" lon="0.04736">
        <ele>153.7</ele>
        <time>2020-05-30T17:43:52Z</time>
      </trkpt>
      <trkpt lat="46.51494" lon="0.04729">
        <ele>153.6</ele>
        <time>2020-05-30T17:43:53Z</time>
      </trkpt>
      <trkpt lat="46.5149" lon="0.04722">
        <ele>153.6</ele>
        <time>2020-05-30T17:43:54Z</time>
      </trkpt>
      <trkpt lat="46.51486" lon="0.04716">
        <ele>153.6</ele>
        <time>2020-05-30T17:43:55Z</time>
      </trkpt>
      <trkpt lat="46.51481" lon="0.04709">
        <ele>153.6</ele>
        <time>2020-05-30T17:43:56Z</time>
      </trkpt>
      <trkpt lat="46.51477" lon="0.04702">
        <ele>153.5</ele>
        <time>2020-05-30T17:43:57Z</time>
      </trkpt>
      <trkpt lat="46.51473" lon="0.04695">
        <ele>153.5</ele>
        <time>2020-05-30T17:43:58Z</time>
      </trkpt>
      <trkpt lat="46.51469" lon="0.04689">
        <ele>153.5</ele>
        <time>2020-05-30T17:43:59Z</time>
      </trkpt>
      <trkpt lat="46.51465" lon="0.04682">
        <ele>153.5</ele>
        <time>2020-05-30T17:44:00Z</time>
      </trkpt>
      <trkpt lat="46.51461" lon="0.04675">
        <ele>153.5</ele>
        <time>2020-05-30T17:44:01Z</time>
      </trkpt>
      <trkpt lat="46.51456" lon="0.04668">
        <ele>153.5</ele>
        <time>2020-05-30T17:44:02Z</time>
      </trkpt>
      <trkpt lat="46.51452" lon="0.04661">
        <ele>153.4</ele>
        <time>2020-05-30T17:44:03Z</time>
      </trkpt>
      <trkpt lat="46.51448" lon="0.04655">
        <ele>153.4</ele>
        <time>2020-05-30T17:44:04Z</time>
      </trkpt>
      <trkpt lat="46.51443" lon="0.04648">
        <ele>153.4</ele>
        <time>2020-05-30T17:44:05Z</time>
      </trkpt>
      <trkpt lat="46.51439" lon="0.04641">
        <ele>153.4</ele>
        <time>2020-05-30T17:44:06Z</time>
      </trkpt>
      <trkpt lat="46.51435" lon="0.04634">
        <ele>153.4</ele>
        <time>2020-05-30T17:44:07Z</time>
      </trkpt>
      <trkpt lat="46.51431" lon="0.04627">
        <ele>153.4</ele>
        <time>2020-05-30T17:44:08Z</time>
      </trkpt>
      <trkpt lat="46.51427" lon="0.0462">
        <ele>153.4</ele>
        <time>2020-05-30T17:44:09Z</time>
      </trkpt>
      <trkpt lat="46.51423" lon="0.04614">
        <ele>153.4</ele>
        <time>2020-05-30T17:44:10Z</time>
      </trkpt>
      <trkpt lat="46.51419" lon="0.04607">
        <ele>153.5</ele>
        <time>2020-05-30T17:44:11Z</time>
      </trkpt>
      <trkpt lat="46.51414" lon="0.046">
        <ele>153.6</ele>
        <time>2020-05-30T17:44:12Z</time>
      </trkpt>
      <trkpt lat="46.5141" lon="0.04593">
        <ele>153.7</ele>
        <time>2020-05-30T17:44:13Z</time>
      </trkpt>
      <trkpt lat="46.51406" lon="0.04587">
        <ele>153.7</ele>
        <time>2020-05-30T17:44:14Z</time>
      </trkpt>
      <trkpt lat="46.51401" lon="0.0458">
        <ele>153.8</ele>
        <time>2020-05-30T17:44:15Z</time>
      </trkpt>
      <trkpt lat="46.51398" lon="0.04574">
        <ele>153.9</ele>
        <time>2020-05-30T17:44:16Z</time>
      </trkpt>
      <trkpt lat="46.51393" lon="0.04567">
        <ele>153.9</ele>
        <time>2020-05-30T17:44:17Z</time>
      </trkpt>
      <trkpt lat="46.51389" lon="0.04561">
        <ele>153.9</ele>
        <time>2020-05-30T17:44:18Z</time>
      </trkpt>
      <trkpt lat="46.51385" lon="0.04555">
        <ele>154</ele>
        <time>2020-05-30T17:44:19Z</time>
      </trkpt>
      <trkpt lat="46.51381" lon="0.04549">
        <ele>154</ele>
        <time>2020-05-30T17:44:20Z</time>
      </trkpt>
      <trkpt lat="46.51377" lon="0.04543">
        <ele>154.1</ele>
        <time>2020-05-30T17:44:21Z</time>
      </trkpt>
      <trkpt lat="46.51373" lon="0.04536">
        <ele>154.1</ele>
        <time>2020-05-30T17:44:22Z</time>
      </trkpt>
      <trkpt lat="46.51369" lon="0.0453">
        <ele>154.2</ele>
        <time>2020-05-30T17:44:23Z</time>
      </trkpt>
      <trkpt lat="46.51365" lon="0.04523">
        <ele>154.3</ele>
        <time>2020-05-30T17:44:24Z</time>
      </trkpt>
      <trkpt lat="46.51361" lon="0.04518">
        <ele>154.3</ele>
        <time>2020-05-30T17:44:25Z</time>
      </trkpt>
      <trkpt lat="46.51357" lon="0.04511">
        <ele>154.4</ele>
        <time>2020-05-30T17:44:26Z</time>
      </trkpt>
      <trkpt lat="46.51353" lon="0.04505">
        <ele>154.4</ele>
        <time>2020-05-30T17:44:27Z</time>
      </trkpt>
      <trkpt lat="46.51349" lon="0.04498">
        <ele>154.5</ele>
        <time>2020-05-30T17:44:28Z</time>
      </trkpt>
      <trkpt lat="46.51345" lon="0.04492">
        <ele>154.5</ele>
        <time>2020-05-30T17:44:29Z</time>
      </trkpt>
      <trkpt lat="46.51341" lon="0.04485">
        <ele>154.6</ele>
        <time>2020-05-30T17:44:30Z</time>
      </trkpt>
      <trkpt lat="46.51337" lon="0.04479">
        <ele>154.6</ele>
        <time>2020-05-30T17:44:31Z</time>
      </trkpt>
      <trkpt lat="46.51333" lon="0.04472">
        <ele>154.7</ele>
        <time>2020-05-30T17:44:32Z</time>
      </trkpt>
      <trkpt lat="46.51329" lon="0.04465">
        <ele>154.7</ele>
        <time>2020-05-30T17:44:33Z</time>
      </trkpt>
      <trkpt lat="46.51324" lon="0.04458">
        <ele>154.7</ele>
        <time>2020-05-30T17:44:34Z</time>
      </trkpt>
      <trkpt lat="46.5132" lon="0.04452">
        <ele>154.7</ele>
        <time>2020-05-30T17:44:35Z</time>
      </trkpt>
      <trkpt lat="46.51316" lon="0.04445">
        <ele>154.8</ele>
        <time>2020-05-30T17:44:36Z</time>
      </trkpt>
      <trkpt lat="46.51312" lon="0.04438">
        <ele>154.8</ele>
        <time>2020-05-30T17:44:37Z</time>
      </trkpt>
      <trkpt lat="46.51308" lon="0.04432">
        <ele>154.8</ele>
        <time>2020-05-30T17:44:38Z</time>
      </trkpt>
      <trkpt lat="46.51304" lon="0.04426">
        <ele>154.8</ele>
        <time>2020-05-30T17:44:39Z</time>
      </trkpt>
      <trkpt lat="46.513" lon="0.04419">
        <ele>154.9</ele>
        <time>2020-05-30T17:44:40Z</time>
      </trkpt>
      <trkpt lat="46.51296" lon="0.04412">
        <ele>154.9</ele>
        <time>2020-05-30T17:44:41Z</time>
      </trkpt>
      <trkpt lat="46.51292" lon="0.04406">
        <ele>154.9</ele>
        <time>2020-05-30T17:44:42Z</time>
      </trkpt>
      <trkpt lat="46.51288" lon="0.04399">
        <ele>154.9</ele>
        <time>2020-05-30T17:44:43Z</time>
      </trkpt>
      <trkpt lat="46.51284" lon="0.04392">
        <ele>154.9</ele>
        <time>2020-05-30T17:44:44Z</time>
      </trkpt>
      <trkpt lat="46.5128" lon="0.04385">
        <ele>154.9</ele>
        <time>2020-05-30T17:44:45Z</time>
      </trkpt>
      <trkpt lat="46.51276" lon="0.04379">
        <ele>155</ele>
        <time>2020-05-30T17:44:46Z</time>
      </trkpt>
      <trkpt lat="46.51271" lon="0.04372">
        <ele>155</ele>
        <time>2020-05-30T17:44:47Z</time>
      </trkpt>
      <trkpt lat="46.51268" lon="0.04365">
        <ele>155</ele>
        <time>2020-05-30T17:44:48Z</time>
      </trkpt>
      <trkpt lat="46.51264" lon="0.04358">
        <ele>155</ele>
        <time>2020-05-30T17:44:49Z</time>
      </trkpt>
      <trkpt lat="46.5126" lon="0.04351">
        <ele>155</ele>
        <time>2020-05-30T17:44:50Z</time>
      </trkpt>
      <trkpt lat="46.51255" lon="0.04345">
        <ele>155</ele>
        <time>2020-05-30T17:44:51Z</time>
      </trkpt>
      <trkpt lat="46.51251" lon="0.04338">
        <ele>155</ele>
        <time>2020-05-30T17:44:52Z</time>
      </trkpt>
      <trkpt lat="46.51247" lon="0.04331">
        <ele>155.1</ele>
        <time>2020-05-30T17:44:53Z</time>
      </trkpt>
      <trkpt lat="46.51243" lon="0.04325">
        <ele>155.1</ele>
        <time>2020-05-30T17:44:54Z</time>
      </trkpt>
      <trkpt lat="46.51238" lon="0.04318">
        <ele>155.1</ele>
        <time>2020-05-30T17:44:55Z</time>
      </trkpt>
      <trkpt lat="46.51234" lon="0.04312">
        <ele>155.1</ele>
        <time>2020-05-30T17:44:56Z</time>
      </trkpt>
      <trkpt lat="46.5123" lon="0.04305">
        <ele>155.1</ele>
        <time>2020-05-30T17:44:57Z</time>
      </trkpt>
      <trkpt lat="46.51226" lon="0.04297">
        <ele>155.1</ele>
        <time>2020-05-30T17:44:58Z</time>
      </trkpt>
      <trkpt lat="46.51221" lon="0.04291">
        <ele>155.1</ele>
        <time>2020-05-30T17:44:59Z</time>
      </trkpt>
      <trkpt lat="46.51217" lon="0.04283">
        <ele>155.1</ele>
        <time>2020-05-30T17:45:00Z</time>
      </trkpt>
      <trkpt lat="46.51212" lon="0.04276">
        <ele>155.1</ele>
        <time>2020-05-30T17:45:01Z</time>
      </trkpt>
      <trkpt lat="46.51208" lon="0.04269">
        <ele>155.2</ele>
        <time>2020-05-30T17:45:02Z</time>
      </trkpt>
      <trkpt lat="46.51204" lon="0.04262">
        <ele>155.2</ele>
        <time>2020-05-30T17:45:03Z</time>
      </trkpt>
      <trkpt lat="46.51201" lon="0.04254">
        <ele>155.2</ele>
        <time>2020-05-30T17:45:04Z</time>
      </trkpt>
      <trkpt lat="46.51197" lon="0.04246">
        <ele>155.3</ele>
        <time>2020-05-30T17:45:05Z</time>
      </trkpt>
      <trkpt lat="46.51193" lon="0.04239">
        <ele>155.4</ele>
        <time>2020-05-30T17:45:06Z</time>
      </trkpt>
      <trkpt lat="46.51189" lon="0.04231">
        <ele>155.5</ele>
        <time>2020-05-30T17:45:07Z</time>
      </trkpt>
      <trkpt lat="46.51186" lon="0.04223">
        <ele>155.7</ele>
        <time>2020-05-30T17:45:08Z</time>
      </trkpt>
      <trkpt lat="46.51182" lon="0.04215">
        <ele>155.8</ele>
        <time>2020-05-30T17:45:09Z</time>
      </trkpt>
      <trkpt lat="46.51179" lon="0.04207">
        <ele>156</ele>
        <time>2020-05-30T17:45:10Z</time>
      </trkpt>
      <trkpt lat="46.51176" lon="0.04199">
        <ele>156.1</ele>
        <time>2020-05-30T17:45:11Z</time>
      </trkpt>
      <trkpt lat="46.51173" lon="0.04192">
        <ele>156.2</ele>
        <time>2020-05-30T17:45:12Z</time>
      </trkpt>
      <trkpt lat="46.5117" lon="0.04184">
        <ele>156.3</ele>
        <time>2020-05-30T17:45:13Z</time>
      </trkpt>
      <trkpt lat="46.51167" lon="0.04176">
        <ele>156.4</ele>
        <time>2020-05-30T17:45:14Z</time>
      </trkpt>
      <trkpt lat="46.51164" lon="0.04168">
        <ele>156.5</ele>
        <time>2020-05-30T17:45:15Z</time>
      </trkpt>
      <trkpt lat="46.51161" lon="0.04161">
        <ele>156.6</ele>
        <time>2020-05-30T17:45:16Z</time>
      </trkpt>
      <trkpt lat="46.51158" lon="0.04153">
        <ele>156.6</ele>
        <time>2020-05-30T17:45:17Z</time>
      </trkpt>
      <trkpt lat="46.51155" lon="0.04146">
        <ele>156.7</ele>
        <time>2020-05-30T17:45:18Z</time>
      </trkpt>
      <trkpt lat="46.51152" lon="0.04138">
        <ele>156.7</ele>
        <time>2020-05-30T17:45:19Z</time>
      </trkpt>
      <trkpt lat="46.51149" lon="0.04131">
        <ele>156.8</ele>
        <time>2020-05-30T17:45:20Z</time>
      </trkpt>
      <trkpt lat="46.51146" lon="0.04123">
        <ele>156.8</ele>
        <time>2020-05-30T17:45:21Z</time>
      </trkpt>
      <trkpt lat="46.51143" lon="0.04115">
        <ele>156.8</ele>
        <time>2020-05-30T17:45:22Z</time>
      </trkpt>
      <trkpt lat="46.5114" lon="0.04108">
        <ele>156.9</ele>
        <time>2020-05-30T17:45:23Z</time>
      </trkpt>
      <trkpt lat="46.51138" lon="0.041">
        <ele>156.9</ele>
        <time>2020-05-30T17:45:24Z</time>
      </trkpt>
      <trkpt lat="46.51135" lon="0.04092">
        <ele>156.9</ele>
        <time>2020-05-30T17:45:25Z</time>
      </trkpt>
      <trkpt lat="46.51132" lon="0.04085">
        <ele>156.9</ele>
        <time>2020-05-30T17:45:26Z</time>
      </trkpt>
      <trkpt lat="46.51129" lon="0.04077">
        <ele>156.9</ele>
        <time>2020-05-30T17:45:27Z</time>
      </trkpt>
      <trkpt lat="46.51126" lon="0.04069">
        <ele>156.9</ele>
        <time>2020-05-30T17:45:28Z</time>
      </trkpt>
      <trkpt lat="46.51124" lon="0.04061">
        <ele>156.9</ele>
        <time>2020-05-30T17:45:29Z</time>
      </trkpt>
      <trkpt lat="46.51122" lon="0.04052">
        <ele>156.8</ele>
        <time>2020-05-30T17:45:30Z</time>
      </trkpt>
      <trkpt lat="46.5112" lon="0.04044">
        <ele>156.8</ele>
        <time>2020-05-30T17:45:31Z</time>
      </trkpt>
      <trkpt lat="46.51118" lon="0.04035">
        <ele>156.8</ele>
        <time>2020-05-30T17:45:32Z</time>
      </trkpt>
      <trkpt lat="46.51117" lon="0.04026">
        <ele>156.7</ele>
        <time>2020-05-30T17:45:33Z</time>
      </trkpt>
      <trkpt lat="46.51115" lon="0.04018">
        <ele>156.7</ele>
        <time>2020-05-30T17:45:34Z</time>
      </trkpt>
      <trkpt lat="46.51113" lon="0.04009">
        <ele>156.7</ele>
        <time>2020-05-30T17:45:35Z</time>
      </trkpt>
      <trkpt lat="46.51111" lon="0.04">
        <ele>156.7</ele>
        <time>2020-05-30T17:45:36Z</time>
      </trkpt>
      <trkpt lat="46.51109" lon="0.03991">
        <ele>156.6</ele>
        <time>2020-05-30T17:45:37Z</time>
      </trkpt>
      <trkpt lat="46.51108" lon="0.03982">
        <ele>156.6</ele>
        <time>2020-05-30T17:45:38Z</time>
      </trkpt>
      <trkpt lat="46.51106" lon="0.03972">
        <ele>156.6</ele>
        <time>2020-05-30T17:45:39Z</time>
      </trkpt>
      <trkpt lat="46.51104" lon="0.03963">
        <ele>156.6</ele>
        <time>2020-05-30T17:45:40Z</time>
      </trkpt>
      <trkpt lat="46.51102" lon="0.03954">
        <ele>156.6</ele>
        <time>2020-05-30T17:45:41Z</time>
      </trkpt>
      <trkpt lat="46.511" lon="0.03945">
        <ele>156.6</ele>
        <time>2020-05-30T17:45:42Z</time>
      </trkpt>
      <trkpt lat="46.51099" lon="0.03936">
        <ele>156.5</ele>
        <time>2020-05-30T17:45:43Z</time>
      </trkpt>
      <trkpt lat="46.51097" lon="0.03927">
        <ele>156.5</ele>
        <time>2020-05-30T17:45:44Z</time>
      </trkpt>
      <trkpt lat="46.51095" lon="0.03918">
        <ele>156.5</ele>
        <time>2020-05-30T17:45:45Z</time>
      </trkpt>
      <trkpt lat="46.51093" lon="0.03908">
        <ele>156.4</ele>
        <time>2020-05-30T17:45:46Z</time>
      </trkpt>
      <trkpt lat="46.51091" lon="0.03899">
        <ele>156.4</ele>
        <time>2020-05-30T17:45:47Z</time>
      </trkpt>
      <trkpt lat="46.5109" lon="0.0389">
        <ele>156.4</ele>
        <time>2020-05-30T17:45:48Z</time>
      </trkpt>
      <trkpt lat="46.51088" lon="0.0388">
        <ele>156.3</ele>
        <time>2020-05-30T17:45:49Z</time>
      </trkpt>
      <trkpt lat="46.51086" lon="0.03871">
        <ele>156.3</ele>
        <time>2020-05-30T17:45:50Z</time>
      </trkpt>
      <trkpt lat="46.51084" lon="0.03862">
        <ele>156.3</ele>
        <time>2020-05-30T17:45:51Z</time>
      </trkpt>
      <trkpt lat="46.51082" lon="0.03852">
        <ele>156.3</ele>
        <time>2020-05-30T17:45:52Z</time>
      </trkpt>
      <trkpt lat="46.51081" lon="0.03843">
        <ele>156.4</ele>
        <time>2020-05-30T17:45:53Z</time>
      </trkpt>
      <trkpt lat="46.51079" lon="0.03834">
        <ele>156.4</ele>
        <time>2020-05-30T17:45:54Z</time>
      </trkpt>
      <trkpt lat="46.51077" lon="0.03825">
        <ele>156.5</ele>
        <time>2020-05-30T17:45:55Z</time>
      </trkpt>
      <trkpt lat="46.51075" lon="0.03815">
        <ele>156.5</ele>
        <time>2020-05-30T17:45:56Z</time>
      </trkpt>
      <trkpt lat="46.51073" lon="0.03806">
        <ele>156.6</ele>
        <time>2020-05-30T17:45:57Z</time>
      </trkpt>
      <trkpt lat="46.51071" lon="0.03797">
        <ele>156.6</ele>
        <time>2020-05-30T17:45:58Z</time>
      </trkpt>
      <trkpt lat="46.5107" lon="0.03788">
        <ele>156.7</ele>
        <time>2020-05-30T17:45:59Z</time>
      </trkpt>
      <trkpt lat="46.51068" lon="0.03779">
        <ele>156.7</ele>
        <time>2020-05-30T17:46:00Z</time>
      </trkpt>
      <trkpt lat="46.51066" lon="0.0377">
        <ele>156.7</ele>
        <time>2020-05-30T17:46:01Z</time>
      </trkpt>
      <trkpt lat="46.51064" lon="0.03762">
        <ele>156.8</ele>
        <time>2020-05-30T17:46:02Z</time>
      </trkpt>
      <trkpt lat="46.51061" lon="0.03753">
        <ele>156.8</ele>
        <time>2020-05-30T17:46:03Z</time>
      </trkpt>
      <trkpt lat="46.51059" lon="0.03744">
        <ele>156.9</ele>
        <time>2020-05-30T17:46:04Z</time>
      </trkpt>
      <trkpt lat="46.51056" lon="0.03736">
        <ele>156.9</ele>
        <time>2020-05-30T17:46:05Z</time>
      </trkpt>
      <trkpt lat="46.51054" lon="0.03727">
        <ele>157</ele>
        <time>2020-05-30T17:46:06Z</time>
      </trkpt>
      <trkpt lat="46.51051" lon="0.03718">
        <ele>157</ele>
        <time>2020-05-30T17:46:07Z</time>
      </trkpt>
      <trkpt lat="46.51049" lon="0.0371">
        <ele>157.1</ele>
        <time>2020-05-30T17:46:08Z</time>
      </trkpt>
      <trkpt lat="46.51047" lon="0.03701">
        <ele>157.1</ele>
        <time>2020-05-30T17:46:09Z</time>
      </trkpt>
      <trkpt lat="46.51045" lon="0.03692">
        <ele>157.2</ele>
        <time>2020-05-30T17:46:10Z</time>
      </trkpt>
      <trkpt lat="46.51042" lon="0.03683">
        <ele>157.3</ele>
        <time>2020-05-30T17:46:11Z</time>
      </trkpt>
      <trkpt lat="46.51039" lon="0.03674">
        <ele>157.3</ele>
        <time>2020-05-30T17:46:12Z</time>
      </trkpt>
      <trkpt lat="46.51037" lon="0.03666">
        <ele>157.4</ele>
        <time>2020-05-30T17:46:13Z</time>
      </trkpt>
      <trkpt lat="46.51035" lon="0.03657">
        <ele>157.5</ele>
        <time>2020-05-30T17:46:14Z</time>
      </trkpt>
      <trkpt lat="46.51032" lon="0.03649">
        <ele>157.6</ele>
        <time>2020-05-30T17:46:15Z</time>
      </trkpt>
      <trkpt lat="46.5103" lon="0.0364">
        <ele>157.6</ele>
        <time>2020-05-30T17:46:16Z</time>
      </trkpt>
      <trkpt lat="46.51028" lon="0.03632">
        <ele>157.7</ele>
        <time>2020-05-30T17:46:17Z</time>
      </trkpt>
      <trkpt lat="46.51025" lon="0.03624">
        <ele>157.8</ele>
        <time>2020-05-30T17:46:18Z</time>
      </trkpt>
      <trkpt lat="46.51023" lon="0.03616">
        <ele>157.9</ele>
        <time>2020-05-30T17:46:19Z</time>
      </trkpt>
      <trkpt lat="46.5102" lon="0.03608">
        <ele>157.9</ele>
        <time>2020-05-30T17:46:20Z</time>
      </trkpt>
      <trkpt lat="46.51017" lon="0.03599">
        <ele>157.9</ele>
        <time>2020-05-30T17:46:21Z</time>
      </trkpt>
      <trkpt lat="46.51015" lon="0.03591">
        <ele>157.9</ele>
        <time>2020-05-30T17:46:22Z</time>
      </trkpt>
      <trkpt lat="46.51012" lon="0.03584">
        <ele>157.9</ele>
        <time>2020-05-30T17:46:23Z</time>
      </trkpt>
      <trkpt lat="46.51009" lon="0.03577">
        <ele>157.9</ele>
        <time>2020-05-30T17:46:24Z</time>
      </trkpt>
      <trkpt lat="46.51005" lon="0.03571">
        <ele>157.8</ele>
        <time>2020-05-30T17:46:25Z</time>
      </trkpt>
      <trkpt lat="46.51001" lon="0.03565">
        <ele>157.8</ele>
        <time>2020-05-30T17:46:26Z</time>
      </trkpt>
      <trkpt lat="46.50997" lon="0.03559">
        <ele>157.7</ele>
        <time>2020-05-30T17:46:27Z</time>
      </trkpt>
      <trkpt lat="46.50991" lon="0.03554">
        <ele>157.6</ele>
        <time>2020-05-30T17:46:28Z</time>
      </trkpt>
      <trkpt lat="46.50985" lon="0.03553">
        <ele>157.4</ele>
        <time>2020-05-30T17:46:29Z</time>
      </trkpt>
      <trkpt lat="46.50979" lon="0.03553">
        <ele>157.2</ele>
        <time>2020-05-30T17:46:30Z</time>
      </trkpt>
      <trkpt lat="46.50972" lon="0.03553">
        <ele>157</ele>
        <time>2020-05-30T17:46:31Z</time>
      </trkpt>
      <trkpt lat="46.50965" lon="0.03554">
        <ele>156.7</ele>
        <time>2020-05-30T17:46:32Z</time>
      </trkpt>
      <trkpt lat="46.50958" lon="0.03555">
        <ele>156.4</ele>
        <time>2020-05-30T17:46:33Z</time>
      </trkpt>
      <trkpt lat="46.5095" lon="0.03556">
        <ele>156</ele>
        <time>2020-05-30T17:46:34Z</time>
      </trkpt>
      <trkpt lat="46.50943" lon="0.03557">
        <ele>155.6</ele>
        <time>2020-05-30T17:46:35Z</time>
      </trkpt>
      <trkpt lat="46.50935" lon="0.03558">
        <ele>155.2</ele>
        <time>2020-05-30T17:46:36Z</time>
      </trkpt>
      <trkpt lat="46.50926" lon="0.03559">
        <ele>154.7</ele>
        <time>2020-05-30T17:46:37Z</time>
      </trkpt>
      <trkpt lat="46.50918" lon="0.03559">
        <ele>154.1</ele>
        <time>2020-05-30T17:46:38Z</time>
      </trkpt>
      <trkpt lat="46.50909" lon="0.0356">
        <ele>153.6</ele>
        <time>2020-05-30T17:46:39Z</time>
      </trkpt>
      <trkpt lat="46.509" lon="0.03561">
        <ele>153.1</ele>
        <time>2020-05-30T17:46:40Z</time>
      </trkpt>
      <trkpt lat="46.5089" lon="0.03559">
        <ele>152.6</ele>
        <time>2020-05-30T17:46:41Z</time>
      </trkpt>
      <trkpt lat="46.50881" lon="0.03557">
        <ele>152.5</ele>
        <time>2020-05-30T17:46:42Z</time>
      </trkpt>
      <trkpt lat="46.50873" lon="0.03551">
        <ele>152.4</ele>
        <time>2020-05-30T17:46:43Z</time>
      </trkpt>
      <trkpt lat="46.50865" lon="0.03542">
        <ele>152</ele>
        <time>2020-05-30T17:46:44Z</time>
      </trkpt>
      <trkpt lat="46.5086" lon="0.0353">
        <ele>151.4</ele>
        <time>2020-05-30T17:46:45Z</time>
      </trkpt>
      <trkpt lat="46.50857" lon="0.03515">
        <ele>150.7</ele>
        <time>2020-05-30T17:46:46Z</time>
      </trkpt>
      <trkpt lat="46.50858" lon="0.035">
        <ele>150</ele>
        <time>2020-05-30T17:46:47Z</time>
      </trkpt>
      <trkpt lat="46.5086" lon="0.03486">
        <ele>149.3</ele>
        <time>2020-05-30T17:46:48Z</time>
      </trkpt>
      <trkpt lat="46.50863" lon="0.03471">
        <ele>148.6</ele>
        <time>2020-05-30T17:46:49Z</time>
      </trkpt>
      <trkpt lat="46.50867" lon="0.03458">
        <ele>148</ele>
        <time>2020-05-30T17:46:50Z</time>
      </trkpt>
      <trkpt lat="46.50872" lon="0.03444">
        <ele>147.3</ele>
        <time>2020-05-30T17:46:51Z</time>
      </trkpt>
      <trkpt lat="46.50877" lon="0.0343">
        <ele>146.5</ele>
        <time>2020-05-30T17:46:52Z</time>
      </trkpt>
      <trkpt lat="46.50883" lon="0.03417">
        <ele>145.8</ele>
        <time>2020-05-30T17:46:53Z</time>
      </trkpt>
      <trkpt lat="46.5089" lon="0.03404">
        <ele>145</ele>
        <time>2020-05-30T17:46:54Z</time>
      </trkpt>
      <trkpt lat="46.50896" lon="0.0339">
        <ele>144.4</ele>
        <time>2020-05-30T17:46:55Z</time>
      </trkpt>
      <trkpt lat="46.50902" lon="0.03377">
        <ele>143.7</ele>
        <time>2020-05-30T17:46:56Z</time>
      </trkpt>
      <trkpt lat="46.50908" lon="0.03363">
        <ele>142.9</ele>
        <time>2020-05-30T17:46:57Z</time>
      </trkpt>
      <trkpt lat="46.50915" lon="0.03349">
        <ele>142.2</ele>
        <time>2020-05-30T17:46:58Z</time>
      </trkpt>
      <trkpt lat="46.50921" lon="0.03336">
        <ele>141.5</ele>
        <time>2020-05-30T17:46:59Z</time>
      </trkpt>
      <trkpt lat="46.50926" lon="0.03322">
        <ele>140.9</ele>
        <time>2020-05-30T17:47:00Z</time>
      </trkpt>
      <trkpt lat="46.50932" lon="0.03309">
        <ele>140.3</ele>
        <time>2020-05-30T17:47:01Z</time>
      </trkpt>
      <trkpt lat="46.50935" lon="0.03296">
        <ele>139.8</ele>
        <time>2020-05-30T17:47:02Z</time>
      </trkpt>
      <trkpt lat="46.50936" lon="0.03283">
        <ele>139.2</ele>
        <time>2020-05-30T17:47:03Z</time>
      </trkpt>
      <trkpt lat="46.50935" lon="0.03268">
        <ele>138.7</ele>
        <time>2020-05-30T17:47:04Z</time>
      </trkpt>
      <trkpt lat="46.50933" lon="0.03252">
        <ele>138.2</ele>
        <time>2020-05-30T17:47:05Z</time>
      </trkpt>
      <trkpt lat="46.50929" lon="0.03236">
        <ele>137.7</ele>
        <time>2020-05-30T17:47:06Z</time>
      </trkpt>
      <trkpt lat="46.50925" lon="0.03219">
        <ele>137.3</ele>
        <time>2020-05-30T17:47:07Z</time>
      </trkpt>
      <trkpt lat="46.50922" lon="0.03203">
        <ele>136.9</ele>
        <time>2020-05-30T17:47:08Z</time>
      </trkpt>
      <trkpt lat="46.50918" lon="0.03187">
        <ele>136.6</ele>
        <time>2020-05-30T17:47:09Z</time>
      </trkpt>
      <trkpt lat="46.50914" lon="0.03171">
        <ele>136.3</ele>
        <time>2020-05-30T17:47:10Z</time>
      </trkpt>
      <trkpt lat="46.5091" lon="0.03155">
        <ele>136.1</ele>
        <time>2020-05-30T17:47:11Z</time>
      </trkpt>
      <trkpt lat="46.50906" lon="0.0314">
        <ele>136</ele>
        <time>2020-05-30T17:47:12Z</time>
      </trkpt>
      <trkpt lat="46.50902" lon="0.03125">
        <ele>136</ele>
        <time>2020-05-30T17:47:13Z</time>
      </trkpt>
      <trkpt lat="46.50899" lon="0.0311">
        <ele>136</ele>
        <time>2020-05-30T17:47:14Z</time>
      </trkpt>
      <trkpt lat="46.50895" lon="0.03095">
        <ele>136</ele>
        <time>2020-05-30T17:47:15Z</time>
      </trkpt>
      <trkpt lat="46.50892" lon="0.03081">
        <ele>136.2</ele>
        <time>2020-05-30T17:47:16Z</time>
      </trkpt>
      <trkpt lat="46.50888" lon="0.03068">
        <ele>136.3</ele>
        <time>2020-05-30T17:47:17Z</time>
      </trkpt>
      <trkpt lat="46.50885" lon="0.03054">
        <ele>136.6</ele>
        <time>2020-05-30T17:47:18Z</time>
      </trkpt>
      <trkpt lat="46.50882" lon="0.03041">
        <ele>136.8</ele>
        <time>2020-05-30T17:47:19Z</time>
      </trkpt>
      <trkpt lat="46.50879" lon="0.03028">
        <ele>137</ele>
        <time>2020-05-30T17:47:20Z</time>
      </trkpt>
      <trkpt lat="46.50876" lon="0.03015">
        <ele>137.3</ele>
        <time>2020-05-30T17:47:21Z</time>
      </trkpt>
      <trkpt lat="46.50873" lon="0.03003">
        <ele>137.7</ele>
        <time>2020-05-30T17:47:22Z</time>
      </trkpt>
      <trkpt lat="46.5087" lon="0.0299">
        <ele>138</ele>
        <time>2020-05-30T17:47:23Z</time>
      </trkpt>
      <trkpt lat="46.50868" lon="0.02978">
        <ele>138.3</ele>
        <time>2020-05-30T17:47:24Z</time>
      </trkpt>
      <trkpt lat="46.50865" lon="0.02966">
        <ele>138.6</ele>
        <time>2020-05-30T17:47:25Z</time>
      </trkpt>
      <trkpt lat="46.50862" lon="0.02954">
        <ele>138.9</ele>
        <time>2020-05-30T17:47:26Z</time>
      </trkpt>
      <trkpt lat="46.50859" lon="0.02943">
        <ele>139.2</ele>
        <time>2020-05-30T17:47:27Z</time>
      </trkpt>
      <trkpt lat="46.50857" lon="0.02931">
        <ele>139.5</ele>
        <time>2020-05-30T17:47:28Z</time>
      </trkpt>
      <trkpt lat="46.50854" lon="0.0292">
        <ele>139.7</ele>
        <time>2020-05-30T17:47:29Z</time>
      </trkpt>
      <trkpt lat="46.50852" lon="0.02908">
        <ele>139.9</ele>
        <time>2020-05-30T17:47:30Z</time>
      </trkpt>
      <trkpt lat="46.5085" lon="0.02897">
        <ele>140.2</ele>
        <time>2020-05-30T17:47:31Z</time>
      </trkpt>
      <trkpt lat="46.50847" lon="0.02887">
        <ele>140.4</ele>
        <time>2020-05-30T17:47:32Z</time>
      </trkpt>
      <trkpt lat="46.50844" lon="0.02877">
        <ele>140.6</ele>
        <time>2020-05-30T17:47:33Z</time>
      </trkpt>
      <trkpt lat="46.50842" lon="0.02868">
        <ele>140.8</ele>
        <time>2020-05-30T17:47:34Z</time>
      </trkpt>
      <trkpt lat="46.5084" lon="0.02858">
        <ele>141</ele>
        <time>2020-05-30T17:47:35Z</time>
      </trkpt>
      <trkpt lat="46.50838" lon="0.02849">
        <ele>141.2</ele>
        <time>2020-05-30T17:47:36Z</time>
      </trkpt>
      <trkpt lat="46.50835" lon="0.0284">
        <ele>141.3</ele>
        <time>2020-05-30T17:47:37Z</time>
      </trkpt>
      <trkpt lat="46.50834" lon="0.0283">
        <ele>141.5</ele>
        <time>2020-05-30T17:47:38Z</time>
      </trkpt>
      <trkpt lat="46.50832" lon="0.02821">
        <ele>141.7</ele>
        <time>2020-05-30T17:47:39Z</time>
      </trkpt>
      <trkpt lat="46.5083" lon="0.02811">
        <ele>141.8</ele>
        <time>2020-05-30T17:47:40Z</time>
      </trkpt>
      <trkpt lat="46.50828" lon="0.02802">
        <ele>142</ele>
        <time>2020-05-30T17:47:41Z</time>
      </trkpt>
      <trkpt lat="46.50826" lon="0.02794">
        <ele>142.1</ele>
        <time>2020-05-30T17:47:42Z</time>
      </trkpt>
      <trkpt lat="46.50824" lon="0.02785">
        <ele>142.3</ele>
        <time>2020-05-30T17:47:43Z</time>
      </trkpt>
      <trkpt lat="46.50822" lon="0.02777">
        <ele>142.4</ele>
        <time>2020-05-30T17:47:44Z</time>
      </trkpt>
      <trkpt lat="46.5082" lon="0.02769">
        <ele>142.5</ele>
        <time>2020-05-30T17:47:45Z</time>
      </trkpt>
      <trkpt lat="46.50818" lon="0.0276">
        <ele>142.6</ele>
        <time>2020-05-30T17:47:46Z</time>
      </trkpt>
      <trkpt lat="46.50816" lon="0.02752">
        <ele>142.7</ele>
        <time>2020-05-30T17:47:47Z</time>
      </trkpt>
      <trkpt lat="46.50814" lon="0.02744">
        <ele>142.8</ele>
        <time>2020-05-30T17:47:48Z</time>
      </trkpt>
      <trkpt lat="46.50812" lon="0.02737">
        <ele>143</ele>
        <time>2020-05-30T17:47:49Z</time>
      </trkpt>
      <trkpt lat="46.5081" lon="0.02729">
        <ele>143</ele>
        <time>2020-05-30T17:47:50Z</time>
      </trkpt>
      <trkpt lat="46.50808" lon="0.02722">
        <ele>143.1</ele>
        <time>2020-05-30T17:47:51Z</time>
      </trkpt>
      <trkpt lat="46.50806" lon="0.02715">
        <ele>143.2</ele>
        <time>2020-05-30T17:47:52Z</time>
      </trkpt>
      <trkpt lat="46.50804" lon="0.02708">
        <ele>143.3</ele>
        <time>2020-05-30T17:47:53Z</time>
      </trkpt>
      <trkpt lat="46.50802" lon="0.02701">
        <ele>143.4</ele>
        <time>2020-05-30T17:47:54Z</time>
      </trkpt>
      <trkpt lat="46.50801" lon="0.02695">
        <ele>143.6</ele>
        <time>2020-05-30T17:47:55Z</time>
      </trkpt>
      <trkpt lat="46.50799" lon="0.02688">
        <ele>143.7</ele>
        <time>2020-05-30T17:47:56Z</time>
      </trkpt>
      <trkpt lat="46.50798" lon="0.02682">
        <ele>143.8</ele>
        <time>2020-05-30T17:47:57Z</time>
      </trkpt>
      <trkpt lat="46.50797" lon="0.02678">
        <ele>143.8</ele>
        <time>2020-05-30T17:47:58Z</time>
      </trkpt>
      <trkpt lat="46.50796" lon="0.02672">
        <ele>143.9</ele>
        <time>2020-05-30T17:47:59Z</time>
      </trkpt>
      <trkpt lat="46.50795" lon="0.02668">
        <ele>143.9</ele>
        <time>2020-05-30T17:48:00Z</time>
      </trkpt>
      <trkpt lat="46.50794" lon="0.02661">
        <ele>144</ele>
        <time>2020-05-30T17:48:01Z</time>
      </trkpt>
      <trkpt lat="46.50793" lon="0.02656">
        <ele>144</ele>
        <time>2020-05-30T17:48:02Z</time>
      </trkpt>
      <trkpt lat="46.50792" lon="0.02651">
        <ele>144</ele>
        <time>2020-05-30T17:48:03Z</time>
      </trkpt>
      <trkpt lat="46.5079" lon="0.02646">
        <ele>144.1</ele>
        <time>2020-05-30T17:48:04Z</time>
      </trkpt>
      <trkpt lat="46.50789" lon="0.02641">
        <ele>144.1</ele>
        <time>2020-05-30T17:48:05Z</time>
      </trkpt>
      <trkpt lat="46.50788" lon="0.02636">
        <ele>144.2</ele>
        <time>2020-05-30T17:48:06Z</time>
      </trkpt>
      <trkpt lat="46.50788" lon="0.02634">
        <ele>144.2</ele>
        <time>2020-05-30T17:48:07Z</time>
      </trkpt>
      <trkpt lat="46.50787" lon="0.02629">
        <ele>144.3</ele>
        <time>2020-05-30T17:48:08Z</time>
      </trkpt>
      <trkpt lat="46.50787" lon="0.02623">
        <ele>144.4</ele>
        <time>2020-05-30T17:48:09Z</time>
      </trkpt>
      <trkpt lat="46.50787" lon="0.02622">
        <ele>144.4</ele>
        <time>2020-05-30T17:48:10Z</time>
      </trkpt>
      <trkpt lat="46.50786" lon="0.02618">
        <ele>144.4</ele>
        <time>2020-05-30T17:48:11Z</time>
      </trkpt>
      <trkpt lat="46.50785" lon="0.02616">
        <ele>144.4</ele>
        <time>2020-05-30T17:48:12Z</time>
      </trkpt>
      <trkpt lat="46.50784" lon="0.02614">
        <ele>144.5</ele>
        <time>2020-05-30T17:48:13Z</time>
      </trkpt>
      <trkpt lat="46.50783" lon="0.0261">
        <ele>144.5</ele>
        <time>2020-05-30T17:48:14Z</time>
      </trkpt>
      <trkpt lat="46.50782" lon="0.02608">
        <ele>144.6</ele>
        <time>2020-05-30T17:48:15Z</time>
      </trkpt>
      <trkpt lat="46.50781" lon="0.02603">
        <ele>144.6</ele>
        <time>2020-05-30T17:48:16Z</time>
      </trkpt>
      <trkpt lat="46.50781" lon="0.02602">
        <ele>144.6</ele>
        <time>2020-05-30T17:48:17Z</time>
      </trkpt>
      <trkpt lat="46.50781" lon="0.02599">
        <ele>144.7</ele>
        <time>2020-05-30T17:48:18Z</time>
      </trkpt>
      <trkpt lat="46.50781" lon="0.02597">
        <ele>144.7</ele>
        <time>2020-05-30T17:48:19Z</time>
      </trkpt>
      <trkpt lat="46.50778" lon="0.02593">
        <ele>144.7</ele>
        <time>2020-05-30T17:48:20Z</time>
      </trkpt>
      <trkpt lat="46.50777" lon="0.02592">
        <ele>144.7</ele>
        <time>2020-05-30T17:48:21Z</time>
      </trkpt>
      <trkpt lat="46.50777" lon="0.02587">
        <ele>144.8</ele>
        <time>2020-05-30T17:48:22Z</time>
      </trkpt>
      <trkpt lat="46.50777" lon="0.02583">
        <ele>144.8</ele>
        <time>2020-05-30T17:48:23Z</time>
      </trkpt>
      <trkpt lat="46.50776" lon="0.02576">
        <ele>144.9</ele>
        <time>2020-05-30T17:48:24Z</time>
      </trkpt>
      <trkpt lat="46.50776" lon="0.02573">
        <ele>144.9</ele>
        <time>2020-05-30T17:48:25Z</time>
      </trkpt>
      <trkpt lat="46.50775" lon="0.02568">
        <ele>145</ele>
        <time>2020-05-30T17:48:26Z</time>
      </trkpt>
      <trkpt lat="46.50774" lon="0.02562">
        <ele>145</ele>
        <time>2020-05-30T17:48:27Z</time>
      </trkpt>
      <trkpt lat="46.50773" lon="0.02557">
        <ele>145.1</ele>
        <time>2020-05-30T17:48:28Z</time>
      </trkpt>
      <trkpt lat="46.50772" lon="0.02551">
        <ele>145.1</ele>
        <time>2020-05-30T17:48:29Z</time>
      </trkpt>
      <trkpt lat="46.50771" lon="0.02547">
        <ele>145.2</ele>
        <time>2020-05-30T17:48:30Z</time>
      </trkpt>
      <trkpt lat="46.5077" lon="0.02543">
        <ele>145.2</ele>
        <time>2020-05-30T17:48:31Z</time>
      </trkpt>
      <trkpt lat="46.5077" lon="0.02538">
        <ele>145.3</ele>
        <time>2020-05-30T17:48:32Z</time>
      </trkpt>
      <trkpt lat="46.50768" lon="0.02531">
        <ele>145.4</ele>
        <time>2020-05-30T17:48:33Z</time>
      </trkpt>
      <trkpt lat="46.50768" lon="0.02526">
        <ele>145.5</ele>
        <time>2020-05-30T17:48:34Z</time>
      </trkpt>
      <trkpt lat="46.50767" lon="0.02522">
        <ele>145.5</ele>
        <time>2020-05-30T17:48:35Z</time>
      </trkpt>
      <trkpt lat="46.50766" lon="0.02516">
        <ele>145.6</ele>
        <time>2020-05-30T17:48:36Z</time>
      </trkpt>
      <trkpt lat="46.50766" lon="0.02511">
        <ele>145.7</ele>
        <time>2020-05-30T17:48:37Z</time>
      </trkpt>
      <trkpt lat="46.50765" lon="0.02508">
        <ele>145.8</ele>
        <time>2020-05-30T17:48:38Z</time>
      </trkpt>
      <trkpt lat="46.50764" lon="0.02504">
        <ele>145.8</ele>
        <time>2020-05-30T17:48:39Z</time>
      </trkpt>
      <trkpt lat="46.50764" lon="0.02499">
        <ele>145.9</ele>
        <time>2020-05-30T17:48:40Z</time>
      </trkpt>
      <trkpt lat="46.50763" lon="0.02495">
        <ele>146</ele>
        <time>2020-05-30T17:48:41Z</time>
      </trkpt>
      <trkpt lat="46.50763" lon="0.02491">
        <ele>146</ele>
        <time>2020-05-30T17:48:42Z</time>
      </trkpt>
      <trkpt lat="46.50762" lon="0.02486">
        <ele>146.1</ele>
        <time>2020-05-30T17:48:43Z</time>
      </trkpt>
      <trkpt lat="46.50762" lon="0.02481">
        <ele>146.2</ele>
        <time>2020-05-30T17:48:44Z</time>
      </trkpt>
      <trkpt lat="46.50761" lon="0.02476">
        <ele>146.3</ele>
        <time>2020-05-30T17:48:45Z</time>
      </trkpt>
      <trkpt lat="46.5076" lon="0.02473">
        <ele>146.3</ele>
        <time>2020-05-30T17:48:46Z</time>
      </trkpt>
      <trkpt lat="46.50759" lon="0.02468">
        <ele>146.4</ele>
        <time>2020-05-30T17:48:47Z</time>
      </trkpt>
      <trkpt lat="46.50759" lon="0.02466">
        <ele>146.4</ele>
        <time>2020-05-30T17:48:48Z</time>
      </trkpt>
      <trkpt lat="46.50759" lon="0.02461">
        <ele>146.5</ele>
        <time>2020-05-30T17:48:49Z</time>
      </trkpt>
      <trkpt lat="46.50759" lon="0.02457">
        <ele>146.5</ele>
        <time>2020-05-30T17:48:50Z</time>
      </trkpt>
      <trkpt lat="46.50759" lon="0.02455">
        <ele>146.5</ele>
        <time>2020-05-30T17:48:51Z</time>
      </trkpt>
      <trkpt lat="46.50758" lon="0.0245">
        <ele>146.6</ele>
        <time>2020-05-30T17:48:52Z</time>
      </trkpt>
      <trkpt lat="46.50758" lon="0.02445">
        <ele>146.7</ele>
        <time>2020-05-30T17:48:53Z</time>
      </trkpt>
      <trkpt lat="46.50757" lon="0.0244">
        <ele>146.7</ele>
        <time>2020-05-30T17:48:54Z</time>
      </trkpt>
      <trkpt lat="46.50757" lon="0.02436">
        <ele>146.8</ele>
        <time>2020-05-30T17:48:55Z</time>
      </trkpt>
      <trkpt lat="46.50756" lon="0.02431">
        <ele>146.8</ele>
        <time>2020-05-30T17:48:56Z</time>
      </trkpt>
      <trkpt lat="46.50756" lon="0.02426">
        <ele>146.9</ele>
        <time>2020-05-30T17:48:57Z</time>
      </trkpt>
      <trkpt lat="46.50755" lon="0.02422">
        <ele>147</ele>
        <time>2020-05-30T17:48:58Z</time>
      </trkpt>
      <trkpt lat="46.50755" lon="0.02417">
        <ele>147</ele>
        <time>2020-05-30T17:48:59Z</time>
      </trkpt>
      <trkpt lat="46.50754" lon="0.02411">
        <ele>147.1</ele>
        <time>2020-05-30T17:49:00Z</time>
      </trkpt>
      <trkpt lat="46.50753" lon="0.02405">
        <ele>147.2</ele>
        <time>2020-05-30T17:49:01Z</time>
      </trkpt>
      <trkpt lat="46.50752" lon="0.024">
        <ele>147.2</ele>
        <time>2020-05-30T17:49:02Z</time>
      </trkpt>
      <trkpt lat="46.50752" lon="0.02394">
        <ele>147.3</ele>
        <time>2020-05-30T17:49:03Z</time>
      </trkpt>
      <trkpt lat="46.50751" lon="0.02389">
        <ele>147.4</ele>
        <time>2020-05-30T17:49:04Z</time>
      </trkpt>
      <trkpt lat="46.5075" lon="0.02384">
        <ele>147.4</ele>
        <time>2020-05-30T17:49:05Z</time>
      </trkpt>
      <trkpt lat="46.50749" lon="0.02378">
        <ele>147.5</ele>
        <time>2020-05-30T17:49:06Z</time>
      </trkpt>
      <trkpt lat="46.50748" lon="0.02372">
        <ele>147.6</ele>
        <time>2020-05-30T17:49:07Z</time>
      </trkpt>
      <trkpt lat="46.50747" lon="0.02365">
        <ele>147.7</ele>
        <time>2020-05-30T17:49:08Z</time>
      </trkpt>
      <trkpt lat="46.50746" lon="0.02359">
        <ele>147.7</ele>
        <time>2020-05-30T17:49:09Z</time>
      </trkpt>
      <trkpt lat="46.50745" lon="0.0235">
        <ele>147.8</ele>
        <time>2020-05-30T17:49:10Z</time>
      </trkpt>
      <trkpt lat="46.50744" lon="0.02345">
        <ele>147.9</ele>
        <time>2020-05-30T17:49:11Z</time>
      </trkpt>
      <trkpt lat="46.50744" lon="0.02339">
        <ele>148</ele>
        <time>2020-05-30T17:49:12Z</time>
      </trkpt>
      <trkpt lat="46.50743" lon="0.02334">
        <ele>148</ele>
        <time>2020-05-30T17:49:13Z</time>
      </trkpt>
      <trkpt lat="46.50742" lon="0.02327">
        <ele>148.1</ele>
        <time>2020-05-30T17:49:14Z</time>
      </trkpt>
      <trkpt lat="46.50742" lon="0.02322">
        <ele>148.1</ele>
        <time>2020-05-30T17:49:15Z</time>
      </trkpt>
      <trkpt lat="46.5074" lon="0.02315">
        <ele>148.2</ele>
        <time>2020-05-30T17:49:16Z</time>
      </trkpt>
      <trkpt lat="46.50739" lon="0.02309">
        <ele>148.2</ele>
        <time>2020-05-30T17:49:17Z</time>
      </trkpt>
      <trkpt lat="46.50738" lon="0.02301">
        <ele>148.3</ele>
        <time>2020-05-30T17:49:18Z</time>
      </trkpt>
      <trkpt lat="46.50737" lon="0.02296">
        <ele>148.3</ele>
        <time>2020-05-30T17:49:19Z</time>
      </trkpt>
      <trkpt lat="46.50736" lon="0.0229">
        <ele>148.4</ele>
        <time>2020-05-30T17:49:20Z</time>
      </trkpt>
      <trkpt lat="46.50735" lon="0.02285">
        <ele>148.5</ele>
        <time>2020-05-30T17:49:21Z</time>
      </trkpt>
      <trkpt lat="46.50734" lon="0.0228">
        <ele>148.5</ele>
        <time>2020-05-30T17:49:22Z</time>
      </trkpt>
      <trkpt lat="46.50733" lon="0.02276">
        <ele>148.6</ele>
        <time>2020-05-30T17:49:23Z</time>
      </trkpt>
      <trkpt lat="46.50731" lon="0.0227">
        <ele>148.7</ele>
        <time>2020-05-30T17:49:24Z</time>
      </trkpt>
      <trkpt lat="46.50729" lon="0.02263">
        <ele>148.8</ele>
        <time>2020-05-30T17:49:25Z</time>
      </trkpt>
      <trkpt lat="46.50727" lon="0.02257">
        <ele>148.8</ele>
        <time>2020-05-30T17:49:26Z</time>
      </trkpt>
      <trkpt lat="46.50726" lon="0.02253">
        <ele>148.9</ele>
        <time>2020-05-30T17:49:27Z</time>
      </trkpt>
      <trkpt lat="46.50725" lon="0.02249">
        <ele>148.9</ele>
        <time>2020-05-30T17:49:28Z</time>
      </trkpt>
      <trkpt lat="46.50723" lon="0.02242">
        <ele>149</ele>
        <time>2020-05-30T17:49:29Z</time>
      </trkpt>
      <trkpt lat="46.50721" lon="0.02237">
        <ele>149</ele>
        <time>2020-05-30T17:49:30Z</time>
      </trkpt>
      <trkpt lat="46.50719" lon="0.02232">
        <ele>149</ele>
        <time>2020-05-30T17:49:31Z</time>
      </trkpt>
      <trkpt lat="46.50717" lon="0.02227">
        <ele>149</ele>
        <time>2020-05-30T17:49:32Z</time>
      </trkpt>
      <trkpt lat="46.50714" lon="0.02222">
        <ele>149</ele>
        <time>2020-05-30T17:49:33Z</time>
      </trkpt>
      <trkpt lat="46.50712" lon="0.02218">
        <ele>149</ele>
        <time>2020-05-30T17:49:34Z</time>
      </trkpt>
      <trkpt lat="46.5071" lon="0.02213">
        <ele>149</ele>
        <time>2020-05-30T17:49:35Z</time>
      </trkpt>
      <trkpt lat="46.50709" lon="0.02208">
        <ele>149</ele>
        <time>2020-05-30T17:49:36Z</time>
      </trkpt>
      <trkpt lat="46.50708" lon="0.02204">
        <ele>149</ele>
        <time>2020-05-30T17:49:37Z</time>
      </trkpt>
      <trkpt lat="46.50706" lon="0.02198">
        <ele>148.9</ele>
        <time>2020-05-30T17:49:38Z</time>
      </trkpt>
      <trkpt lat="46.50704" lon="0.02193">
        <ele>148.9</ele>
        <time>2020-05-30T17:49:39Z</time>
      </trkpt>
      <trkpt lat="46.50703" lon="0.02186">
        <ele>148.9</ele>
        <time>2020-05-30T17:49:40Z</time>
      </trkpt>
      <trkpt lat="46.50702" lon="0.02182">
        <ele>148.8</ele>
        <time>2020-05-30T17:49:41Z</time>
      </trkpt>
      <trkpt lat="46.507" lon="0.02177">
        <ele>148.8</ele>
        <time>2020-05-30T17:49:42Z</time>
      </trkpt>
      <trkpt lat="46.50699" lon="0.0217">
        <ele>148.8</ele>
        <time>2020-05-30T17:49:43Z</time>
      </trkpt>
      <trkpt lat="46.50697" lon="0.02166">
        <ele>148.8</ele>
        <time>2020-05-30T17:49:44Z</time>
      </trkpt>
      <trkpt lat="46.50695" lon="0.0216">
        <ele>148.7</ele>
        <time>2020-05-30T17:49:45Z</time>
      </trkpt>
      <trkpt lat="46.50693" lon="0.02153">
        <ele>148.7</ele>
        <time>2020-05-30T17:49:46Z</time>
      </trkpt>
      <trkpt lat="46.50691" lon="0.02146">
        <ele>148.6</ele>
        <time>2020-05-30T17:49:47Z</time>
      </trkpt>
      <trkpt lat="46.50687" lon="0.02138">
        <ele>148.5</ele>
        <time>2020-05-30T17:49:48Z</time>
      </trkpt>
      <trkpt lat="46.50685" lon="0.02132">
        <ele>148.5</ele>
        <time>2020-05-30T17:49:49Z</time>
      </trkpt>
      <trkpt lat="46.50682" lon="0.02124">
        <ele>148.4</ele>
        <time>2020-05-30T17:49:50Z</time>
      </trkpt>
      <trkpt lat="46.5068" lon="0.02118">
        <ele>148.3</ele>
        <time>2020-05-30T17:49:51Z</time>
      </trkpt>
      <trkpt lat="46.50678" lon="0.02112">
        <ele>148.2</ele>
        <time>2020-05-30T17:49:52Z</time>
      </trkpt>
      <trkpt lat="46.50676" lon="0.02104">
        <ele>148.2</ele>
        <time>2020-05-30T17:49:53Z</time>
      </trkpt>
      <trkpt lat="46.50674" lon="0.02098">
        <ele>148.1</ele>
        <time>2020-05-30T17:49:54Z</time>
      </trkpt>
      <trkpt lat="46.50673" lon="0.02091">
        <ele>148.1</ele>
        <time>2020-05-30T17:49:55Z</time>
      </trkpt>
      <trkpt lat="46.50671" lon="0.02084">
        <ele>148.1</ele>
        <time>2020-05-30T17:49:56Z</time>
      </trkpt>
      <trkpt lat="46.50669" lon="0.02077">
        <ele>148</ele>
        <time>2020-05-30T17:49:57Z</time>
      </trkpt>
      <trkpt lat="46.50666" lon="0.0207">
        <ele>148</ele>
        <time>2020-05-30T17:49:58Z</time>
      </trkpt>
      <trkpt lat="46.50663" lon="0.02063">
        <ele>148</ele>
        <time>2020-05-30T17:49:59Z</time>
      </trkpt>
      <trkpt lat="46.50661" lon="0.02057">
        <ele>147.9</ele>
        <time>2020-05-30T17:50:00Z</time>
      </trkpt>
      <trkpt lat="46.50659" lon="0.0205">
        <ele>147.9</ele>
        <time>2020-05-30T17:50:01Z</time>
      </trkpt>
      <trkpt lat="46.50656" lon="0.02043">
        <ele>147.8</ele>
        <time>2020-05-30T17:50:02Z</time>
      </trkpt>
      <trkpt lat="46.50654" lon="0.02036">
        <ele>147.8</ele>
        <time>2020-05-30T17:50:03Z</time>
      </trkpt>
      <trkpt lat="46.50651" lon="0.02028">
        <ele>147.7</ele>
        <time>2020-05-30T17:50:04Z</time>
      </trkpt>
      <trkpt lat="46.50649" lon="0.02023">
        <ele>147.7</ele>
        <time>2020-05-30T17:50:05Z</time>
      </trkpt>
      <trkpt lat="46.50647" lon="0.02017">
        <ele>147.6</ele>
        <time>2020-05-30T17:50:06Z</time>
      </trkpt>
      <trkpt lat="46.50645" lon="0.0201">
        <ele>147.6</ele>
        <time>2020-05-30T17:50:07Z</time>
      </trkpt>
      <trkpt lat="46.50643" lon="0.02003">
        <ele>147.6</ele>
        <time>2020-05-30T17:50:08Z</time>
      </trkpt>
      <trkpt lat="46.50641" lon="0.01997">
        <ele>147.5</ele>
        <time>2020-05-30T17:50:09Z</time>
      </trkpt>
      <trkpt lat="46.50638" lon="0.0199">
        <ele>147.5</ele>
        <time>2020-05-30T17:50:10Z</time>
      </trkpt>
      <trkpt lat="46.50636" lon="0.01983">
        <ele>147.4</ele>
        <time>2020-05-30T17:50:11Z</time>
      </trkpt>
      <trkpt lat="46.50634" lon="0.01976">
        <ele>147.4</ele>
        <time>2020-05-30T17:50:12Z</time>
      </trkpt>
      <trkpt lat="46.50632" lon="0.01969">
        <ele>147.3</ele>
        <time>2020-05-30T17:50:13Z</time>
      </trkpt>
      <trkpt lat="46.50629" lon="0.0196">
        <ele>147.3</ele>
        <time>2020-05-30T17:50:14Z</time>
      </trkpt>
      <trkpt lat="46.50628" lon="0.01955">
        <ele>147.2</ele>
        <time>2020-05-30T17:50:15Z</time>
      </trkpt>
      <trkpt lat="46.50625" lon="0.01948">
        <ele>147.2</ele>
        <time>2020-05-30T17:50:16Z</time>
      </trkpt>
      <trkpt lat="46.50623" lon="0.01943">
        <ele>147.1</ele>
        <time>2020-05-30T17:50:17Z</time>
      </trkpt>
      <trkpt lat="46.50621" lon="0.01936">
        <ele>147.1</ele>
        <time>2020-05-30T17:50:18Z</time>
      </trkpt>
      <trkpt lat="46.50619" lon="0.01931">
        <ele>147</ele>
        <time>2020-05-30T17:50:19Z</time>
      </trkpt>
      <trkpt lat="46.50616" lon="0.01922">
        <ele>147</ele>
        <time>2020-05-30T17:50:20Z</time>
      </trkpt>
      <trkpt lat="46.50614" lon="0.01916">
        <ele>146.9</ele>
        <time>2020-05-30T17:50:21Z</time>
      </trkpt>
      <trkpt lat="46.50612" lon="0.01909">
        <ele>146.9</ele>
        <time>2020-05-30T17:50:22Z</time>
      </trkpt>
      <trkpt lat="46.5061" lon="0.01903">
        <ele>146.9</ele>
        <time>2020-05-30T17:50:23Z</time>
      </trkpt>
      <trkpt lat="46.50607" lon="0.01896">
        <ele>146.8</ele>
        <time>2020-05-30T17:50:24Z</time>
      </trkpt>
      <trkpt lat="46.50605" lon="0.01888">
        <ele>146.8</ele>
        <time>2020-05-30T17:50:25Z</time>
      </trkpt>
      <trkpt lat="46.50603" lon="0.01882">
        <ele>146.8</ele>
        <time>2020-05-30T17:50:26Z</time>
      </trkpt>
      <trkpt lat="46.50601" lon="0.01874">
        <ele>146.7</ele>
        <time>2020-05-30T17:50:27Z</time>
      </trkpt>
      <trkpt lat="46.50598" lon="0.01866">
        <ele>146.7</ele>
        <time>2020-05-30T17:50:28Z</time>
      </trkpt>
      <trkpt lat="46.50596" lon="0.01859">
        <ele>146.7</ele>
        <time>2020-05-30T17:50:29Z</time>
      </trkpt>
      <trkpt lat="46.50594" lon="0.01851">
        <ele>146.6</ele>
        <time>2020-05-30T17:50:30Z</time>
      </trkpt>
      <trkpt lat="46.50593" lon="0.01843">
        <ele>146.6</ele>
        <time>2020-05-30T17:50:31Z</time>
      </trkpt>
      <trkpt lat="46.50591" lon="0.01834">
        <ele>146.6</ele>
        <time>2020-05-30T17:50:32Z</time>
      </trkpt>
      <trkpt lat="46.5059" lon="0.01827">
        <ele>146.6</ele>
        <time>2020-05-30T17:50:33Z</time>
      </trkpt>
      <trkpt lat="46.5059" lon="0.01819">
        <ele>146.6</ele>
        <time>2020-05-30T17:50:34Z</time>
      </trkpt>
      <trkpt lat="46.50589" lon="0.01811">
        <ele>146.6</ele>
        <time>2020-05-30T17:50:35Z</time>
      </trkpt>
      <trkpt lat="46.50589" lon="0.01803">
        <ele>146.6</ele>
        <time>2020-05-30T17:50:36Z</time>
      </trkpt>
      <trkpt lat="46.50589" lon="0.01793">
        <ele>146.6</ele>
        <time>2020-05-30T17:50:37Z</time>
      </trkpt>
      <trkpt lat="46.5059" lon="0.01784">
        <ele>146.6</ele>
        <time>2020-05-30T17:50:38Z</time>
      </trkpt>
      <trkpt lat="46.50592" lon="0.01775">
        <ele>146.6</ele>
        <time>2020-05-30T17:50:39Z</time>
      </trkpt>
      <trkpt lat="46.50593" lon="0.01767">
        <ele>146.6</ele>
        <time>2020-05-30T17:50:40Z</time>
      </trkpt>
      <trkpt lat="46.50595" lon="0.01761">
        <ele>146.6</ele>
        <time>2020-05-30T17:50:41Z</time>
      </trkpt>
      <trkpt lat="46.50598" lon="0.01753">
        <ele>146.6</ele>
        <time>2020-05-30T17:50:42Z</time>
      </trkpt>
      <trkpt lat="46.506" lon="0.01746">
        <ele>146.6</ele>
        <time>2020-05-30T17:50:43Z</time>
      </trkpt>
      <trkpt lat="46.50603" lon="0.01738">
        <ele>146.6</ele>
        <time>2020-05-30T17:50:44Z</time>
      </trkpt>
      <trkpt lat="46.50605" lon="0.01731">
        <ele>146.6</ele>
        <time>2020-05-30T17:50:45Z</time>
      </trkpt>
      <trkpt lat="46.50608" lon="0.01723">
        <ele>146.6</ele>
        <time>2020-05-30T17:50:46Z</time>
      </trkpt>
      <trkpt lat="46.5061" lon="0.01717">
        <ele>146.6</ele>
        <time>2020-05-30T17:50:47Z</time>
      </trkpt>
      <trkpt lat="46.50613" lon="0.0171">
        <ele>146.6</ele>
        <time>2020-05-30T17:50:48Z</time>
      </trkpt>
      <trkpt lat="46.50616" lon="0.01702">
        <ele>146.6</ele>
        <time>2020-05-30T17:50:49Z</time>
      </trkpt>
      <trkpt lat="46.50618" lon="0.01695">
        <ele>146.7</ele>
        <time>2020-05-30T17:50:50Z</time>
      </trkpt>
      <trkpt lat="46.50621" lon="0.01688">
        <ele>146.7</ele>
        <time>2020-05-30T17:50:51Z</time>
      </trkpt>
      <trkpt lat="46.50624" lon="0.01681">
        <ele>146.7</ele>
        <time>2020-05-30T17:50:52Z</time>
      </trkpt>
      <trkpt lat="46.50626" lon="0.01673">
        <ele>146.8</ele>
        <time>2020-05-30T17:50:53Z</time>
      </trkpt>
      <trkpt lat="46.50628" lon="0.01668">
        <ele>146.8</ele>
        <time>2020-05-30T17:50:54Z</time>
      </trkpt>
      <trkpt lat="46.50631" lon="0.01661">
        <ele>146.8</ele>
        <time>2020-05-30T17:50:55Z</time>
      </trkpt>
      <trkpt lat="46.50633" lon="0.01654">
        <ele>146.9</ele>
        <time>2020-05-30T17:50:56Z</time>
      </trkpt>
      <trkpt lat="46.50635" lon="0.01646">
        <ele>146.9</ele>
        <time>2020-05-30T17:50:57Z</time>
      </trkpt>
      <trkpt lat="46.50637" lon="0.01639">
        <ele>147</ele>
        <time>2020-05-30T17:50:58Z</time>
      </trkpt>
      <trkpt lat="46.50639" lon="0.01632">
        <ele>147</ele>
        <time>2020-05-30T17:50:59Z</time>
      </trkpt>
      <trkpt lat="46.50641" lon="0.01628">
        <ele>147.1</ele>
        <time>2020-05-30T17:51:00Z</time>
      </trkpt>
      <trkpt lat="46.50643" lon="0.01621">
        <ele>147.1</ele>
        <time>2020-05-30T17:51:01Z</time>
      </trkpt>
      <trkpt lat="46.50645" lon="0.01615">
        <ele>147.2</ele>
        <time>2020-05-30T17:51:02Z</time>
      </trkpt>
      <trkpt lat="46.50648" lon="0.01607">
        <ele>147.3</ele>
        <time>2020-05-30T17:51:03Z</time>
      </trkpt>
      <trkpt lat="46.5065" lon="0.016">
        <ele>147.4</ele>
        <time>2020-05-30T17:51:04Z</time>
      </trkpt>
      <trkpt lat="46.50652" lon="0.01593">
        <ele>147.5</ele>
        <time>2020-05-30T17:51:05Z</time>
      </trkpt>
      <trkpt lat="46.50653" lon="0.01587">
        <ele>147.5</ele>
        <time>2020-05-30T17:51:06Z</time>
      </trkpt>
      <trkpt lat="46.50654" lon="0.0158">
        <ele>147.6</ele>
        <time>2020-05-30T17:51:07Z</time>
      </trkpt>
      <trkpt lat="46.50656" lon="0.01572">
        <ele>147.7</ele>
        <time>2020-05-30T17:51:08Z</time>
      </trkpt>
      <trkpt lat="46.50657" lon="0.01566">
        <ele>147.8</ele>
        <time>2020-05-30T17:51:09Z</time>
      </trkpt>
      <trkpt lat="46.50658" lon="0.01559">
        <ele>147.8</ele>
        <time>2020-05-30T17:51:10Z</time>
      </trkpt>
      <trkpt lat="46.50659" lon="0.01553">
        <ele>147.9</ele>
        <time>2020-05-30T17:51:11Z</time>
      </trkpt>
      <trkpt lat="46.50659" lon="0.01547">
        <ele>147.9</ele>
        <time>2020-05-30T17:51:12Z</time>
      </trkpt>
      <trkpt lat="46.5066" lon="0.01541">
        <ele>148</ele>
        <time>2020-05-30T17:51:13Z</time>
      </trkpt>
      <trkpt lat="46.5066" lon="0.01536">
        <ele>148</ele>
        <time>2020-05-30T17:51:14Z</time>
      </trkpt>
      <trkpt lat="46.5066" lon="0.01529">
        <ele>148.1</ele>
        <time>2020-05-30T17:51:15Z</time>
      </trkpt>
      <trkpt lat="46.5066" lon="0.01523">
        <ele>148.1</ele>
        <time>2020-05-30T17:51:16Z</time>
      </trkpt>
      <trkpt lat="46.5066" lon="0.01515">
        <ele>148.2</ele>
        <time>2020-05-30T17:51:17Z</time>
      </trkpt>
      <trkpt lat="46.5066" lon="0.01507">
        <ele>148.3</ele>
        <time>2020-05-30T17:51:18Z</time>
      </trkpt>
      <trkpt lat="46.5066" lon="0.01501">
        <ele>148.4</ele>
        <time>2020-05-30T17:51:19Z</time>
      </trkpt>
      <trkpt lat="46.5066" lon="0.01493">
        <ele>148.4</ele>
        <time>2020-05-30T17:51:20Z</time>
      </trkpt>
      <trkpt lat="46.5066" lon="0.01487">
        <ele>148.5</ele>
        <time>2020-05-30T17:51:21Z</time>
      </trkpt>
      <trkpt lat="46.5066" lon="0.01478">
        <ele>148.5</ele>
        <time>2020-05-30T17:51:22Z</time>
      </trkpt>
      <trkpt lat="46.5066" lon="0.01473">
        <ele>148.6</ele>
        <time>2020-05-30T17:51:23Z</time>
      </trkpt>
      <trkpt lat="46.50659" lon="0.01466">
        <ele>148.6</ele>
        <time>2020-05-30T17:51:24Z</time>
      </trkpt>
      <trkpt lat="46.50658" lon="0.01459">
        <ele>148.6</ele>
        <time>2020-05-30T17:51:25Z</time>
      </trkpt>
      <trkpt lat="46.50657" lon="0.01452">
        <ele>148.7</ele>
        <time>2020-05-30T17:51:26Z</time>
      </trkpt>
      <trkpt lat="46.50655" lon="0.01445">
        <ele>148.8</ele>
        <time>2020-05-30T17:51:27Z</time>
      </trkpt>
      <trkpt lat="46.50654" lon="0.01438">
        <ele>148.8</ele>
        <time>2020-05-30T17:51:28Z</time>
      </trkpt>
      <trkpt lat="46.50653" lon="0.01433">
        <ele>148.9</ele>
        <time>2020-05-30T17:51:29Z</time>
      </trkpt>
      <trkpt lat="46.50651" lon="0.01424">
        <ele>149</ele>
        <time>2020-05-30T17:51:30Z</time>
      </trkpt>
      <trkpt lat="46.50649" lon="0.01419">
        <ele>149</ele>
        <time>2020-05-30T17:51:31Z</time>
      </trkpt>
      <trkpt lat="46.50647" lon="0.01413">
        <ele>149.1</ele>
        <time>2020-05-30T17:51:32Z</time>
      </trkpt>
      <trkpt lat="46.50645" lon="0.01405">
        <ele>149.2</ele>
        <time>2020-05-30T17:51:33Z</time>
      </trkpt>
      <trkpt lat="46.50643" lon="0.01401">
        <ele>149.3</ele>
        <time>2020-05-30T17:51:34Z</time>
      </trkpt>
      <trkpt lat="46.50641" lon="0.01395">
        <ele>149.3</ele>
        <time>2020-05-30T17:51:35Z</time>
      </trkpt>
      <trkpt lat="46.50638" lon="0.0139">
        <ele>149.4</ele>
        <time>2020-05-30T17:51:36Z</time>
      </trkpt>
      <trkpt lat="46.50636" lon="0.01384">
        <ele>149.5</ele>
        <time>2020-05-30T17:51:37Z</time>
      </trkpt>
      <trkpt lat="46.50634" lon="0.01378">
        <ele>149.5</ele>
        <time>2020-05-30T17:51:38Z</time>
      </trkpt>
      <trkpt lat="46.50632" lon="0.01373">
        <ele>149.6</ele>
        <time>2020-05-30T17:51:39Z</time>
      </trkpt>
      <trkpt lat="46.5063" lon="0.01368">
        <ele>149.6</ele>
        <time>2020-05-30T17:51:40Z</time>
      </trkpt>
      <trkpt lat="46.50628" lon="0.01362">
        <ele>149.7</ele>
        <time>2020-05-30T17:51:41Z</time>
      </trkpt>
      <trkpt lat="46.50625" lon="0.01356">
        <ele>149.8</ele>
        <time>2020-05-30T17:51:42Z</time>
      </trkpt>
      <trkpt lat="46.50622" lon="0.01351">
        <ele>149.9</ele>
        <time>2020-05-30T17:51:43Z</time>
      </trkpt>
      <trkpt lat="46.50619" lon="0.01346">
        <ele>150</ele>
        <time>2020-05-30T17:51:44Z</time>
      </trkpt>
      <trkpt lat="46.50616" lon="0.01341">
        <ele>150.1</ele>
        <time>2020-05-30T17:51:45Z</time>
      </trkpt>
      <trkpt lat="46.50614" lon="0.01336">
        <ele>150.2</ele>
        <time>2020-05-30T17:51:46Z</time>
      </trkpt>
      <trkpt lat="46.5061" lon="0.0133">
        <ele>150.2</ele>
        <time>2020-05-30T17:51:47Z</time>
      </trkpt>
      <trkpt lat="46.50608" lon="0.01325">
        <ele>150.3</ele>
        <time>2020-05-30T17:51:48Z</time>
      </trkpt>
      <trkpt lat="46.50605" lon="0.0132">
        <ele>150.4</ele>
        <time>2020-05-30T17:51:49Z</time>
      </trkpt>
      <trkpt lat="46.50602" lon="0.01315">
        <ele>150.4</ele>
        <time>2020-05-30T17:51:50Z</time>
      </trkpt>
      <trkpt lat="46.506" lon="0.01309">
        <ele>150.5</ele>
        <time>2020-05-30T17:51:51Z</time>
      </trkpt>
      <trkpt lat="46.50597" lon="0.01306">
        <ele>150.5</ele>
        <time>2020-05-30T17:51:52Z</time>
      </trkpt>
      <trkpt lat="46.50595" lon="0.01301">
        <ele>150.6</ele>
        <time>2020-05-30T17:51:53Z</time>
      </trkpt>
      <trkpt lat="46.50592" lon="0.01295">
        <ele>150.6</ele>
        <time>2020-05-30T17:51:54Z</time>
      </trkpt>
      <trkpt lat="46.50589" lon="0.01289">
        <ele>150.7</ele>
        <time>2020-05-30T17:51:55Z</time>
      </trkpt>
      <trkpt lat="46.50586" lon="0.01284">
        <ele>150.8</ele>
        <time>2020-05-30T17:51:56Z</time>
      </trkpt>
      <trkpt lat="46.50585" lon="0.01281">
        <ele>150.8</ele>
        <time>2020-05-30T17:51:57Z</time>
      </trkpt>
      <trkpt lat="46.50582" lon="0.01275">
        <ele>150.9</ele>
        <time>2020-05-30T17:51:58Z</time>
      </trkpt>
      <trkpt lat="46.50579" lon="0.0127">
        <ele>150.9</ele>
        <time>2020-05-30T17:51:59Z</time>
      </trkpt>
      <trkpt lat="46.50576" lon="0.01263">
        <ele>150.9</ele>
        <time>2020-05-30T17:52:00Z</time>
      </trkpt>
      <trkpt lat="46.50574" lon="0.01259">
        <ele>150.9</ele>
        <time>2020-05-30T17:52:01Z</time>
      </trkpt>
      <trkpt lat="46.50571" lon="0.01254">
        <ele>150.9</ele>
        <time>2020-05-30T17:52:02Z</time>
      </trkpt>
      <trkpt lat="46.50568" lon="0.01247">
        <ele>150.9</ele>
        <time>2020-05-30T17:52:03Z</time>
      </trkpt>
      <trkpt lat="46.50565" lon="0.01241">
        <ele>150.8</ele>
        <time>2020-05-30T17:52:04Z</time>
      </trkpt>
      <trkpt lat="46.50562" lon="0.01236">
        <ele>150.8</ele>
        <time>2020-05-30T17:52:05Z</time>
      </trkpt>
      <trkpt lat="46.50558" lon="0.01229">
        <ele>150.7</ele>
        <time>2020-05-30T17:52:06Z</time>
      </trkpt>
      <trkpt lat="46.50554" lon="0.01223">
        <ele>150.6</ele>
        <time>2020-05-30T17:52:07Z</time>
      </trkpt>
      <trkpt lat="46.50552" lon="0.01217">
        <ele>150.5</ele>
        <time>2020-05-30T17:52:08Z</time>
      </trkpt>
      <trkpt lat="46.50548" lon="0.0121">
        <ele>150.4</ele>
        <time>2020-05-30T17:52:09Z</time>
      </trkpt>
      <trkpt lat="46.50545" lon="0.01203">
        <ele>150.3</ele>
        <time>2020-05-30T17:52:10Z</time>
      </trkpt>
      <trkpt lat="46.50541" lon="0.01197">
        <ele>150.2</ele>
        <time>2020-05-30T17:52:11Z</time>
      </trkpt>
      <trkpt lat="46.50539" lon="0.01191">
        <ele>150.1</ele>
        <time>2020-05-30T17:52:12Z</time>
      </trkpt>
      <trkpt lat="46.50536" lon="0.01186">
        <ele>150.1</ele>
        <time>2020-05-30T17:52:13Z</time>
      </trkpt>
      <trkpt lat="46.50533" lon="0.0118">
        <ele>150</ele>
        <time>2020-05-30T17:52:14Z</time>
      </trkpt>
      <trkpt lat="46.5053" lon="0.01174">
        <ele>149.9</ele>
        <time>2020-05-30T17:52:15Z</time>
      </trkpt>
      <trkpt lat="46.50527" lon="0.01167">
        <ele>149.8</ele>
        <time>2020-05-30T17:52:16Z</time>
      </trkpt>
      <trkpt lat="46.50524" lon="0.01161">
        <ele>149.6</ele>
        <time>2020-05-30T17:52:17Z</time>
      </trkpt>
      <trkpt lat="46.50521" lon="0.01154">
        <ele>149.5</ele>
        <time>2020-05-30T17:52:18Z</time>
      </trkpt>
      <trkpt lat="46.50517" lon="0.01147">
        <ele>149.3</ele>
        <time>2020-05-30T17:52:19Z</time>
      </trkpt>
      <trkpt lat="46.50513" lon="0.0114">
        <ele>149.1</ele>
        <time>2020-05-30T17:52:20Z</time>
      </trkpt>
      <trkpt lat="46.50509" lon="0.01132">
        <ele>148.9</ele>
        <time>2020-05-30T17:52:21Z</time>
      </trkpt>
      <trkpt lat="46.50506" lon="0.01125">
        <ele>148.6</ele>
        <time>2020-05-30T17:52:22Z</time>
      </trkpt>
      <trkpt lat="46.50502" lon="0.01118">
        <ele>148.3</ele>
        <time>2020-05-30T17:52:23Z</time>
      </trkpt>
      <trkpt lat="46.50498" lon="0.0111">
        <ele>148</ele>
        <time>2020-05-30T17:52:24Z</time>
      </trkpt>
      <trkpt lat="46.50494" lon="0.01102">
        <ele>147.7</ele>
        <time>2020-05-30T17:52:25Z</time>
      </trkpt>
      <trkpt lat="46.5049" lon="0.01094">
        <ele>147.4</ele>
        <time>2020-05-30T17:52:26Z</time>
      </trkpt>
      <trkpt lat="46.50486" lon="0.01086">
        <ele>147.1</ele>
        <time>2020-05-30T17:52:27Z</time>
      </trkpt>
      <trkpt lat="46.50482" lon="0.01078">
        <ele>146.8</ele>
        <time>2020-05-30T17:52:28Z</time>
      </trkpt>
      <trkpt lat="46.50478" lon="0.0107">
        <ele>146.5</ele>
        <time>2020-05-30T17:52:29Z</time>
      </trkpt>
      <trkpt lat="46.50474" lon="0.01062">
        <ele>146.2</ele>
        <time>2020-05-30T17:52:30Z</time>
      </trkpt>
      <trkpt lat="46.50469" lon="0.01054">
        <ele>145.9</ele>
        <time>2020-05-30T17:52:31Z</time>
      </trkpt>
      <trkpt lat="46.50465" lon="0.01046">
        <ele>145.5</ele>
        <time>2020-05-30T17:52:32Z</time>
      </trkpt>
      <trkpt lat="46.50461" lon="0.01037">
        <ele>145.1</ele>
        <time>2020-05-30T17:52:33Z</time>
      </trkpt>
      <trkpt lat="46.50457" lon="0.01028">
        <ele>144.8</ele>
        <time>2020-05-30T17:52:34Z</time>
      </trkpt>
      <trkpt lat="46.50452" lon="0.01019">
        <ele>144.4</ele>
        <time>2020-05-30T17:52:35Z</time>
      </trkpt>
      <trkpt lat="46.50448" lon="0.0101">
        <ele>144</ele>
        <time>2020-05-30T17:52:36Z</time>
      </trkpt>
      <trkpt lat="46.50443" lon="0.01001">
        <ele>143.7</ele>
        <time>2020-05-30T17:52:37Z</time>
      </trkpt>
      <trkpt lat="46.50439" lon="0.00991">
        <ele>143.3</ele>
        <time>2020-05-30T17:52:38Z</time>
      </trkpt>
      <trkpt lat="46.50434" lon="0.00982">
        <ele>142.9</ele>
        <time>2020-05-30T17:52:39Z</time>
      </trkpt>
      <trkpt lat="46.50429" lon="0.00972">
        <ele>142.4</ele>
        <time>2020-05-30T17:52:40Z</time>
      </trkpt>
      <trkpt lat="46.50424" lon="0.00962">
        <ele>142.1</ele>
        <time>2020-05-30T17:52:41Z</time>
      </trkpt>
      <trkpt lat="46.50419" lon="0.00952">
        <ele>141.8</ele>
        <time>2020-05-30T17:52:42Z</time>
      </trkpt>
      <trkpt lat="46.50415" lon="0.00942">
        <ele>141.6</ele>
        <time>2020-05-30T17:52:43Z</time>
      </trkpt>
      <trkpt lat="46.5041" lon="0.00931">
        <ele>141.5</ele>
        <time>2020-05-30T17:52:44Z</time>
      </trkpt>
      <trkpt lat="46.50405" lon="0.00921">
        <ele>141.2</ele>
        <time>2020-05-30T17:52:45Z</time>
      </trkpt>
      <trkpt lat="46.50399" lon="0.0091">
        <ele>140.9</ele>
        <time>2020-05-30T17:52:46Z</time>
      </trkpt>
      <trkpt lat="46.50394" lon="0.00899">
        <ele>140.5</ele>
        <time>2020-05-30T17:52:47Z</time>
      </trkpt>
      <trkpt lat="46.50388" lon="0.00888">
        <ele>140.1</ele>
        <time>2020-05-30T17:52:48Z</time>
      </trkpt>
      <trkpt lat="46.50383" lon="0.00876">
        <ele>139.7</ele>
        <time>2020-05-30T17:52:49Z</time>
      </trkpt>
      <trkpt lat="46.50378" lon="0.00865">
        <ele>139.3</ele>
        <time>2020-05-30T17:52:50Z</time>
      </trkpt>
      <trkpt lat="46.50372" lon="0.00854">
        <ele>138.9</ele>
        <time>2020-05-30T17:52:51Z</time>
      </trkpt>
      <trkpt lat="46.50367" lon="0.00842">
        <ele>138.5</ele>
        <time>2020-05-30T17:52:52Z</time>
      </trkpt>
      <trkpt lat="46.50362" lon="0.00831">
        <ele>138.3</ele>
        <time>2020-05-30T17:52:53Z</time>
      </trkpt>
      <trkpt lat="46.50356" lon="0.00819">
        <ele>138.1</ele>
        <time>2020-05-30T17:52:54Z</time>
      </trkpt>
      <trkpt lat="46.5035" lon="0.00807">
        <ele>138</ele>
        <time>2020-05-30T17:52:55Z</time>
      </trkpt>
      <trkpt lat="46.50344" lon="0.00795">
        <ele>138</ele>
        <time>2020-05-30T17:52:56Z</time>
      </trkpt>
      <trkpt lat="46.50339" lon="0.00784">
        <ele>138.2</ele>
        <time>2020-05-30T17:52:57Z</time>
      </trkpt>
      <trkpt lat="46.50333" lon="0.00773">
        <ele>138.3</ele>
        <time>2020-05-30T17:52:58Z</time>
      </trkpt>
      <trkpt lat="46.50328" lon="0.00763">
        <ele>138.5</ele>
        <time>2020-05-30T17:52:59Z</time>
      </trkpt>
      <trkpt lat="46.50324" lon="0.00753">
        <ele>138.7</ele>
        <time>2020-05-30T17:53:00Z</time>
      </trkpt>
      <trkpt lat="46.50319" lon="0.00745">
        <ele>138.9</ele>
        <time>2020-05-30T17:53:01Z</time>
      </trkpt>
      <trkpt lat="46.50315" lon="0.00737">
        <ele>139.2</ele>
        <time>2020-05-30T17:53:02Z</time>
      </trkpt>
      <trkpt lat="46.50312" lon="0.00729">
        <ele>139.5</ele>
        <time>2020-05-30T17:53:03Z</time>
      </trkpt>
      <trkpt lat="46.50308" lon="0.00722">
        <ele>139.8</ele>
        <time>2020-05-30T17:53:04Z</time>
      </trkpt>
      <trkpt lat="46.50305" lon="0.00716">
        <ele>140</ele>
        <time>2020-05-30T17:53:05Z</time>
      </trkpt>
      <trkpt lat="46.50302" lon="0.0071">
        <ele>140.2</ele>
        <time>2020-05-30T17:53:06Z</time>
      </trkpt>
      <trkpt lat="46.503" lon="0.00705">
        <ele>140.4</ele>
        <time>2020-05-30T17:53:07Z</time>
      </trkpt>
      <trkpt lat="46.50296" lon="0.007">
        <ele>140.6</ele>
        <time>2020-05-30T17:53:08Z</time>
      </trkpt>
      <trkpt lat="46.50294" lon="0.00695">
        <ele>140.8</ele>
        <time>2020-05-30T17:53:09Z</time>
      </trkpt>
      <trkpt lat="46.50293" lon="0.00689">
        <ele>140.8</ele>
        <time>2020-05-30T17:53:10Z</time>
      </trkpt>
      <trkpt lat="46.50291" lon="0.00683">
        <ele>140.8</ele>
        <time>2020-05-30T17:53:11Z</time>
      </trkpt>
      <trkpt lat="46.5029" lon="0.00678">
        <ele>140.8</ele>
        <time>2020-05-30T17:53:12Z</time>
      </trkpt>
      <trkpt lat="46.50288" lon="0.00672">
        <ele>141.2</ele>
        <time>2020-05-30T17:53:13Z</time>
      </trkpt>
      <trkpt lat="46.50286" lon="0.00667">
        <ele>141.2</ele>
        <time>2020-05-30T17:53:14Z</time>
      </trkpt>
      <trkpt lat="46.50285" lon="0.00663">
        <ele>141.3</ele>
        <time>2020-05-30T17:53:15Z</time>
      </trkpt>
      <trkpt lat="46.50284" lon="0.00658">
        <ele>141.3</ele>
        <time>2020-05-30T17:53:16Z</time>
      </trkpt>
      <trkpt lat="46.50284" lon="0.00657">
        <ele>141.3</ele>
        <time>2020-05-30T17:53:17Z</time>
      </trkpt>
      <trkpt lat="46.50285" lon="0.00656">
        <ele>141.4</ele>
        <time>2020-05-30T17:53:18Z</time>
      </trkpt>
      <trkpt lat="46.50286" lon="0.00655">
        <ele>141.4</ele>
        <time>2020-05-30T17:53:19Z</time>
      </trkpt>
      <trkpt lat="46.50288" lon="0.00655">
        <ele>141.4</ele>
        <time>2020-05-30T17:53:20Z</time>
      </trkpt>
      <trkpt lat="46.50289" lon="0.00656">
        <ele>141.4</ele>
        <time>2020-05-30T17:53:21Z</time>
      </trkpt>
      <trkpt lat="46.50289" lon="0.00656">
        <ele>141.4</ele>
        <time>2020-05-30T17:53:22Z</time>
      </trkpt>
      <trkpt lat="46.50289" lon="0.00657">
        <ele>141.4</ele>
        <time>2020-05-30T17:53:23Z</time>
      </trkpt>
      <trkpt lat="46.5029" lon="0.00657">
        <ele>141.4</ele>
        <time>2020-05-30T17:53:24Z</time>
      </trkpt>
      <trkpt lat="46.5029" lon="0.00658">
        <ele>141.5</ele>
        <time>2020-05-30T17:53:25Z</time>
      </trkpt>
      <trkpt lat="46.50291" lon="0.00658">
        <ele>141.5</ele>
        <time>2020-05-30T17:53:26Z</time>
      </trkpt>
      <trkpt lat="46.50291" lon="0.00659">
        <ele>141.5</ele>
        <time>2020-05-30T17:53:27Z</time>
      </trkpt>
      <trkpt lat="46.50291" lon="0.00659">
        <ele>141.5</ele>
        <time>2020-05-30T17:53:28Z</time>
      </trkpt>
      <trkpt lat="46.50291" lon="0.00659">
        <ele>141.5</ele>
        <time>2020-05-30T17:53:29Z</time>
      </trkpt>
      <trkpt lat="46.50291" lon="0.00658">
        <ele>141.5</ele>
        <time>2020-05-30T17:53:30Z</time>
      </trkpt>
      <trkpt lat="46.50291" lon="0.00658">
        <ele>141.5</ele>
        <time>2020-05-30T17:53:31Z</time>
      </trkpt>
      <trkpt lat="46.50291" lon="0.00658">
        <ele>141.5</ele>
        <time>2020-05-30T17:53:32Z</time>
      </trkpt>
      <trkpt lat="46.50291" lon="0.00657">
        <ele>141.5</ele>
        <time>2020-05-30T17:53:33Z</time>
      </trkpt>
      <trkpt lat="46.50291" lon="0.00657">
        <ele>141.5</ele>
        <time>2020-05-30T17:53:34Z</time>
      </trkpt>
      <trkpt lat="46.50292" lon="0.00659">
        <ele>141.5</ele>
        <time>2020-05-30T17:53:35Z</time>
      </trkpt>
      <trkpt lat="46.50293" lon="0.00659">
        <ele>141.5</ele>
        <time>2020-05-30T17:53:36Z</time>
      </trkpt>
      <trkpt lat="46.50293" lon="0.00659">
        <ele>141.5</ele>
        <time>2020-05-30T17:53:37Z</time>
      </trkpt>
      <trkpt lat="46.50292" lon="0.00658">
        <ele>141.6</ele>
        <time>2020-05-30T17:53:38Z</time>
      </trkpt>
      <trkpt lat="46.50293" lon="0.00658">
        <ele>141.6</ele>
        <time>2020-05-30T17:53:39Z</time>
      </trkpt>
      <trkpt lat="46.50292" lon="0.00657">
        <ele>141.6</ele>
        <time>2020-05-30T17:53:40Z</time>
      </trkpt>
      <trkpt lat="46.50292" lon="0.00657">
        <ele>141.6</ele>
        <time>2020-05-30T17:53:41Z</time>
      </trkpt>
      <trkpt lat="46.50292" lon="0.00656">
        <ele>141.6</ele>
        <time>2020-05-30T17:53:42Z</time>
      </trkpt>
      <trkpt lat="46.50292" lon="0.00656">
        <ele>141.6</ele>
        <time>2020-05-30T17:53:43Z</time>
      </trkpt>
      <trkpt lat="46.50293" lon="0.00657">
        <ele>141.6</ele>
        <time>2020-05-30T17:53:44Z</time>
      </trkpt>
      <trkpt lat="46.50293" lon="0.00655">
        <ele>141.6</ele>
        <time>2020-05-30T17:53:45Z</time>
      </trkpt>
      <trkpt lat="46.50293" lon="0.00655">
        <ele>141.6</ele>
        <time>2020-05-30T17:53:46Z</time>
      </trkpt>
      <trkpt lat="46.50293" lon="0.00655">
        <ele>141.7</ele>
        <time>2020-05-30T17:53:47Z</time>
      </trkpt>
      <trkpt lat="46.50293" lon="0.00655">
        <ele>141.7</ele>
        <time>2020-05-30T17:53:48Z</time>
      </trkpt>
      <trkpt lat="46.50293" lon="0.00655">
        <ele>141.7</ele>
        <time>2020-05-30T17:53:49Z</time>
      </trkpt>
      <trkpt lat="46.50292" lon="0.00653">
        <ele>141.7</ele>
        <time>2020-05-30T17:53:50Z</time>
      </trkpt>
      <trkpt lat="46.50292" lon="0.00653">
        <ele>141.7</ele>
        <time>2020-05-30T17:53:51Z</time>
      </trkpt>
      <trkpt lat="46.50292" lon="0.00652">
        <ele>141.7</ele>
        <time>2020-05-30T17:53:52Z</time>
      </trkpt>
      <trkpt lat="46.50292" lon="0.00652">
        <ele>141.7</ele>
        <time>2020-05-30T17:53:53Z</time>
      </trkpt>
      <trkpt lat="46.50291" lon="0.0065">
        <ele>141.7</ele>
        <time>2020-05-30T17:53:54Z</time>
      </trkpt>
      <trkpt lat="46.50291" lon="0.00649">
        <ele>141.7</ele>
        <time>2020-05-30T17:53:55Z</time>
      </trkpt>
      <trkpt lat="46.50291" lon="0.00649">
        <ele>141.7</ele>
        <time>2020-05-30T17:53:56Z</time>
      </trkpt>
      <trkpt lat="46.50291" lon="0.00649">
        <ele>141.7</ele>
        <time>2020-05-30T17:53:57Z</time>
      </trkpt>
      <trkpt lat="46.50291" lon="0.00649">
        <ele>141.8</ele>
        <time>2020-05-30T17:53:58Z</time>
      </trkpt>
      <trkpt lat="46.50292" lon="0.0065">
        <ele>141.8</ele>
        <time>2020-05-30T17:53:59Z</time>
      </trkpt>
      <trkpt lat="46.50292" lon="0.00651">
        <ele>141.8</ele>
        <time>2020-05-30T17:54:00Z</time>
      </trkpt>
      <trkpt lat="46.50292" lon="0.00651">
        <ele>141.8</ele>
        <time>2020-05-30T17:54:01Z</time>
      </trkpt>
      <trkpt lat="46.50293" lon="0.00652">
        <ele>141.8</ele>
        <time>2020-05-30T17:54:02Z</time>
      </trkpt>
      <trkpt lat="46.50293" lon="0.00653">
        <ele>141.8</ele>
        <time>2020-05-30T17:54:03Z</time>
      </trkpt>
      <trkpt lat="46.50294" lon="0.00654">
        <ele>141.8</ele>
        <time>2020-05-30T17:54:04Z</time>
      </trkpt>
      <trkpt lat="46.50295" lon="0.00655">
        <ele>141.8</ele>
        <time>2020-05-30T17:54:05Z</time>
      </trkpt>
      <trkpt lat="46.50295" lon="0.00656">
        <ele>141.9</ele>
        <time>2020-05-30T17:54:06Z</time>
      </trkpt>
      <trkpt lat="46.50296" lon="0.00657">
        <ele>141.9</ele>
        <time>2020-05-30T17:54:07Z</time>
      </trkpt>
      <trkpt lat="46.50296" lon="0.00658">
        <ele>141.9</ele>
        <time>2020-05-30T17:54:08Z</time>
      </trkpt>
      <trkpt lat="46.50297" lon="0.00659">
        <ele>141.9</ele>
        <time>2020-05-30T17:54:09Z</time>
      </trkpt>
      <trkpt lat="46.50297" lon="0.00659">
        <ele>141.9</ele>
        <time>2020-05-30T17:54:10Z</time>
      </trkpt>
      <trkpt lat="46.50297" lon="0.0066">
        <ele>141.9</ele>
        <time>2020-05-30T17:54:11Z</time>
      </trkpt>
      <trkpt lat="46.50297" lon="0.00659">
        <ele>141.9</ele>
        <time>2020-05-30T17:54:12Z</time>
      </trkpt>
      <trkpt lat="46.50296" lon="0.00659">
        <ele>141.9</ele>
        <time>2020-05-30T17:54:13Z</time>
      </trkpt>
      <trkpt lat="46.50296" lon="0.00657">
        <ele>141.9</ele>
        <time>2020-05-30T17:54:14Z</time>
      </trkpt>
      <trkpt lat="46.50295" lon="0.00655">
        <ele>142</ele>
        <time>2020-05-30T17:54:15Z</time>
      </trkpt>
      <trkpt lat="46.50295" lon="0.00655">
        <ele>142</ele>
        <time>2020-05-30T17:54:16Z</time>
      </trkpt>
      <trkpt lat="46.50295" lon="0.00655">
        <ele>142</ele>
        <time>2020-05-30T17:54:17Z</time>
      </trkpt>
      <trkpt lat="46.50294" lon="0.00654">
        <ele>142</ele>
        <time>2020-05-30T17:54:18Z</time>
      </trkpt>
      <trkpt lat="46.50295" lon="0.00655">
        <ele>142</ele>
        <time>2020-05-30T17:54:19Z</time>
      </trkpt>
      <trkpt lat="46.50294" lon="0.00653">
        <ele>142</ele>
        <time>2020-05-30T17:54:20Z</time>
      </trkpt>
      <trkpt lat="46.50294" lon="0.00653">
        <ele>142</ele>
        <time>2020-05-30T17:54:21Z</time>
      </trkpt>
      <trkpt lat="46.50295" lon="0.00653">
        <ele>142</ele>
        <time>2020-05-30T17:54:22Z</time>
      </trkpt>
      <trkpt lat="46.50295" lon="0.00653">
        <ele>142</ele>
        <time>2020-05-30T17:54:23Z</time>
      </trkpt>
      <trkpt lat="46.50295" lon="0.00653">
        <ele>142</ele>
        <time>2020-05-30T17:54:24Z</time>
      </trkpt>
      <trkpt lat="46.50296" lon="0.00654">
        <ele>142.1</ele>
        <time>2020-05-30T17:54:25Z</time>
      </trkpt>
      <trkpt lat="46.50295" lon="0.00653">
        <ele>142.1</ele>
        <time>2020-05-30T17:54:26Z</time>
      </trkpt>
      <trkpt lat="46.50295" lon="0.00652">
        <ele>142.1</ele>
        <time>2020-05-30T17:54:27Z</time>
      </trkpt>
      <trkpt lat="46.50295" lon="0.0065">
        <ele>142.1</ele>
        <time>2020-05-30T17:54:28Z</time>
      </trkpt>
      <trkpt lat="46.50294" lon="0.00649">
        <ele>142.1</ele>
        <time>2020-05-30T17:54:29Z</time>
      </trkpt>
      <trkpt lat="46.50294" lon="0.00648">
        <ele>142.1</ele>
        <time>2020-05-30T17:54:30Z</time>
      </trkpt>
      <trkpt lat="46.50293" lon="0.00647">
        <ele>142.2</ele>
        <time>2020-05-30T17:54:31Z</time>
      </trkpt>
      <trkpt lat="46.50293" lon="0.00646">
        <ele>142</ele>
        <time>2020-05-30T17:54:32Z</time>
      </trkpt>
      <trkpt lat="46.50293" lon="0.00645">
        <ele>142</ele>
        <time>2020-05-30T17:54:33Z</time>
      </trkpt>
      <trkpt lat="46.50293" lon="0.00646">
        <ele>142</ele>
        <time>2020-05-30T17:54:34Z</time>
      </trkpt>
      <trkpt lat="46.50294" lon="0.00647">
        <ele>142.1</ele>
        <time>2020-05-30T17:54:35Z</time>
      </trkpt>
      <trkpt lat="46.50294" lon="0.00648">
        <ele>142.1</ele>
        <time>2020-05-30T17:54:36Z</time>
      </trkpt>
      <trkpt lat="46.50294" lon="0.00648">
        <ele>142.1</ele>
        <time>2020-05-30T17:54:37Z</time>
      </trkpt>
      <trkpt lat="46.50295" lon="0.00649">
        <ele>142.1</ele>
        <time>2020-05-30T17:54:38Z</time>
      </trkpt>
      <trkpt lat="46.50295" lon="0.0065">
        <ele>142.1</ele>
        <time>2020-05-30T17:54:39Z</time>
      </trkpt>
      <trkpt lat="46.50296" lon="0.00651">
        <ele>142.1</ele>
        <time>2020-05-30T17:54:40Z</time>
      </trkpt>
      <trkpt lat="46.50295" lon="0.00651">
        <ele>142.1</ele>
        <time>2020-05-30T17:54:41Z</time>
      </trkpt>
      <trkpt lat="46.50295" lon="0.0065">
        <ele>142.1</ele>
        <time>2020-05-30T17:54:42Z</time>
      </trkpt>
      <trkpt lat="46.50295" lon="0.00649">
        <ele>142.1</ele>
        <time>2020-05-30T17:54:43Z</time>
      </trkpt>
      <trkpt lat="46.50296" lon="0.0065">
        <ele>142.1</ele>
        <time>2020-05-30T17:54:44Z</time>
      </trkpt>
      <trkpt lat="46.50296" lon="0.0065">
        <ele>142.1</ele>
        <time>2020-05-30T17:54:45Z</time>
      </trkpt>
      <trkpt lat="46.50296" lon="0.0065">
        <ele>142.1</ele>
        <time>2020-05-30T17:54:46Z</time>
      </trkpt>
      <trkpt lat="46.50296" lon="0.0065">
        <ele>142.1</ele>
        <time>2020-05-30T17:54:47Z</time>
      </trkpt>
      <trkpt lat="46.50296" lon="0.0065">
        <ele>142.1</ele>
        <time>2020-05-30T17:54:48Z</time>
      </trkpt>
      <trkpt lat="46.50296" lon="0.00649">
        <ele>142.1</ele>
        <time>2020-05-30T17:54:49Z</time>
      </trkpt>
      <trkpt lat="46.50296" lon="0.00648">
        <ele>142.1</ele>
        <time>2020-05-30T17:54:50Z</time>
      </trkpt>
      <trkpt lat="46.50296" lon="0.00651">
        <ele>142.1</ele>
        <time>2020-05-30T17:54:51Z</time>
      </trkpt>
      <trkpt lat="46.50297" lon="0.00652">
        <ele>142.1</ele>
        <time>2020-05-30T17:54:52Z</time>
      </trkpt>
      <trkpt lat="46.50297" lon="0.00652">
        <ele>142.1</ele>
        <time>2020-05-30T17:54:53Z</time>
      </trkpt>
      <trkpt lat="46.50296" lon="0.00651">
        <ele>142.1</ele>
        <time>2020-05-30T17:54:54Z</time>
      </trkpt>
      <trkpt lat="46.50296" lon="0.00651">
        <ele>142.1</ele>
        <time>2020-05-30T17:54:55Z</time>
      </trkpt>
      <trkpt lat="46.50296" lon="0.00651">
        <ele>142.1</ele>
        <time>2020-05-30T17:54:56Z</time>
      </trkpt>
      <trkpt lat="46.50296" lon="0.0065">
        <ele>142.1</ele>
        <time>2020-05-30T17:54:57Z</time>
      </trkpt>
      <trkpt lat="46.50296" lon="0.0065">
        <ele>142.1</ele>
        <time>2020-05-30T17:54:58Z</time>
      </trkpt>
      <trkpt lat="46.50296" lon="0.00649">
        <ele>142.1</ele>
        <time>2020-05-30T17:54:59Z</time>
      </trkpt>
      <trkpt lat="46.50295" lon="0.00649">
        <ele>142.1</ele>
        <time>2020-05-30T17:55:00Z</time>
      </trkpt>
      <trkpt lat="46.50295" lon="0.00648">
        <ele>142.1</ele>
        <time>2020-05-30T17:55:01Z</time>
      </trkpt>
      <trkpt lat="46.50295" lon="0.00648">
        <ele>142.1</ele>
        <time>2020-05-30T17:55:02Z</time>
      </trkpt>
      <trkpt lat="46.50295" lon="0.00648">
        <ele>142.1</ele>
        <time>2020-05-30T17:55:03Z</time>
      </trkpt>
      <trkpt lat="46.50295" lon="0.00647">
        <ele>142.1</ele>
        <time>2020-05-30T17:55:04Z</time>
      </trkpt>
      <trkpt lat="46.50292" lon="0.00648">
        <ele>142.1</ele>
        <time>2020-05-30T17:55:05Z</time>
      </trkpt>
      <trkpt lat="46.50288" lon="0.00646">
        <ele>142</ele>
        <time>2020-05-30T17:55:06Z</time>
      </trkpt>
      <trkpt lat="46.50283" lon="0.00645">
        <ele>141.9</ele>
        <time>2020-05-30T17:55:07Z</time>
      </trkpt>
      <trkpt lat="46.50278" lon="0.00642">
        <ele>141.7</ele>
        <time>2020-05-30T17:55:08Z</time>
      </trkpt>
      <trkpt lat="46.50273" lon="0.0064">
        <ele>141.6</ele>
        <time>2020-05-30T17:55:09Z</time>
      </trkpt>
      <trkpt lat="46.50268" lon="0.00638">
        <ele>141.5</ele>
        <time>2020-05-30T17:55:10Z</time>
      </trkpt>
      <trkpt lat="46.50262" lon="0.00638">
        <ele>141.4</ele>
        <time>2020-05-30T17:55:11Z</time>
      </trkpt>
      <trkpt lat="46.50257" lon="0.00636">
        <ele>141.3</ele>
        <time>2020-05-30T17:55:12Z</time>
      </trkpt>
      <trkpt lat="46.50251" lon="0.00634">
        <ele>141.1</ele>
        <time>2020-05-30T17:55:13Z</time>
      </trkpt>
      <trkpt lat="46.50244" lon="0.00633">
        <ele>141</ele>
        <time>2020-05-30T17:55:14Z</time>
      </trkpt>
      <trkpt lat="46.50238" lon="0.0063">
        <ele>140.8</ele>
        <time>2020-05-30T17:55:15Z</time>
      </trkpt>
      <trkpt lat="46.50231" lon="0.00627">
        <ele>140.4</ele>
        <time>2020-05-30T17:55:16Z</time>
      </trkpt>
      <trkpt lat="46.50224" lon="0.00623">
        <ele>140.1</ele>
        <time>2020-05-30T17:55:17Z</time>
      </trkpt>
      <trkpt lat="46.50216" lon="0.00624">
        <ele>139.6</ele>
        <time>2020-05-30T17:55:18Z</time>
      </trkpt>
      <trkpt lat="46.50208" lon="0.0062">
        <ele>139.2</ele>
        <time>2020-05-30T17:55:19Z</time>
      </trkpt>
      <trkpt lat="46.502" lon="0.00616">
        <ele>138.8</ele>
        <time>2020-05-30T17:55:20Z</time>
      </trkpt>
      <trkpt lat="46.50191" lon="0.00611">
        <ele>138.3</ele>
        <time>2020-05-30T17:55:21Z</time>
      </trkpt>
      <trkpt lat="46.50182" lon="0.00605">
        <ele>137.9</ele>
        <time>2020-05-30T17:55:22Z</time>
      </trkpt>
      <trkpt lat="46.50173" lon="0.006">
        <ele>137.4</ele>
        <time>2020-05-30T17:55:23Z</time>
      </trkpt>
      <trkpt lat="46.50164" lon="0.00595">
        <ele>136.9</ele>
        <time>2020-05-30T17:55:24Z</time>
      </trkpt>
      <trkpt lat="46.50155" lon="0.00589">
        <ele>136.4</ele>
        <time>2020-05-30T17:55:25Z</time>
      </trkpt>
      <trkpt lat="46.50146" lon="0.00584">
        <ele>135.9</ele>
        <time>2020-05-30T17:55:26Z</time>
      </trkpt>
      <trkpt lat="46.50137" lon="0.00578">
        <ele>135.5</ele>
        <time>2020-05-30T17:55:27Z</time>
      </trkpt>
      <trkpt lat="46.50128" lon="0.00572">
        <ele>135</ele>
        <time>2020-05-30T17:55:28Z</time>
      </trkpt>
      <trkpt lat="46.50119" lon="0.00566">
        <ele>134.6</ele>
        <time>2020-05-30T17:55:29Z</time>
      </trkpt>
      <trkpt lat="46.5011" lon="0.00561">
        <ele>134.1</ele>
        <time>2020-05-30T17:55:30Z</time>
      </trkpt>
      <trkpt lat="46.501" lon="0.00555">
        <ele>133.5</ele>
        <time>2020-05-30T17:55:31Z</time>
      </trkpt>
      <trkpt lat="46.50091" lon="0.00548">
        <ele>133</ele>
        <time>2020-05-30T17:55:32Z</time>
      </trkpt>
      <trkpt lat="46.50081" lon="0.00542">
        <ele>132.5</ele>
        <time>2020-05-30T17:55:33Z</time>
      </trkpt>
      <trkpt lat="46.50071" lon="0.00535">
        <ele>131.9</ele>
        <time>2020-05-30T17:55:34Z</time>
      </trkpt>
      <trkpt lat="46.5006" lon="0.00529">
        <ele>131.3</ele>
        <time>2020-05-30T17:55:35Z</time>
      </trkpt>
      <trkpt lat="46.50049" lon="0.00524">
        <ele>130.6</ele>
        <time>2020-05-30T17:55:36Z</time>
      </trkpt>
      <trkpt lat="46.50039" lon="0.00512">
        <ele>129.9</ele>
        <time>2020-05-30T17:55:37Z</time>
      </trkpt>
      <trkpt lat="46.5003" lon="0.005">
        <ele>129.2</ele>
        <time>2020-05-30T17:55:38Z</time>
      </trkpt>
      <trkpt lat="46.50023" lon="0.00486">
        <ele>128.4</ele>
        <time>2020-05-30T17:55:39Z</time>
      </trkpt>
      <trkpt lat="46.50014" lon="0.00472">
        <ele>127.7</ele>
        <time>2020-05-30T17:55:40Z</time>
      </trkpt>
      <trkpt lat="46.50007" lon="0.00456">
        <ele>127</ele>
        <time>2020-05-30T17:55:41Z</time>
      </trkpt>
      <trkpt lat="46.49999" lon="0.00441">
        <ele>126.3</ele>
        <time>2020-05-30T17:55:42Z</time>
      </trkpt>
      <trkpt lat="46.49991" lon="0.00424">
        <ele>125.8</ele>
        <time>2020-05-30T17:55:43Z</time>
      </trkpt>
      <trkpt lat="46.49984" lon="0.00408">
        <ele>125.3</ele>
        <time>2020-05-30T17:55:44Z</time>
      </trkpt>
      <trkpt lat="46.49975" lon="0.00392">
        <ele>124.8</ele>
        <time>2020-05-30T17:55:45Z</time>
      </trkpt>
      <trkpt lat="46.49967" lon="0.00375">
        <ele>124.4</ele>
        <time>2020-05-30T17:55:46Z</time>
      </trkpt>
      <trkpt lat="46.49959" lon="0.00359">
        <ele>124</ele>
        <time>2020-05-30T17:55:47Z</time>
      </trkpt>
      <trkpt lat="46.49951" lon="0.00342">
        <ele>123.8</ele>
        <time>2020-05-30T17:55:48Z</time>
      </trkpt>
      <trkpt lat="46.49943" lon="0.00327">
        <ele>123.7</ele>
        <time>2020-05-30T17:55:49Z</time>
      </trkpt>
      <trkpt lat="46.49935" lon="0.00311">
        <ele>123.7</ele>
        <time>2020-05-30T17:55:50Z</time>
      </trkpt>
      <trkpt lat="46.49927" lon="0.00296">
        <ele>123.7</ele>
        <time>2020-05-30T17:55:51Z</time>
      </trkpt>
      <trkpt lat="46.49919" lon="0.00281">
        <ele>123.8</ele>
        <time>2020-05-30T17:55:52Z</time>
      </trkpt>
      <trkpt lat="46.49912" lon="0.00267">
        <ele>124</ele>
        <time>2020-05-30T17:55:53Z</time>
      </trkpt>
      <trkpt lat="46.49905" lon="0.00253">
        <ele>124.1</ele>
        <time>2020-05-30T17:55:54Z</time>
      </trkpt>
      <trkpt lat="46.49897" lon="0.00238">
        <ele>124.3</ele>
        <time>2020-05-30T17:55:55Z</time>
      </trkpt>
      <trkpt lat="46.49892" lon="0.00223">
        <ele>124.5</ele>
        <time>2020-05-30T17:55:56Z</time>
      </trkpt>
      <trkpt lat="46.49886" lon="0.00209">
        <ele>124.7</ele>
        <time>2020-05-30T17:55:57Z</time>
      </trkpt>
      <trkpt lat="46.4988" lon="0.00195">
        <ele>124.8</ele>
        <time>2020-05-30T17:55:58Z</time>
      </trkpt>
      <trkpt lat="46.49874" lon="0.00182">
        <ele>124.9</ele>
        <time>2020-05-30T17:55:59Z</time>
      </trkpt>
      <trkpt lat="46.49869" lon="0.0017">
        <ele>125.1</ele>
        <time>2020-05-30T17:56:00Z</time>
      </trkpt>
      <trkpt lat="46.49864" lon="0.00157">
        <ele>125.5</ele>
        <time>2020-05-30T17:56:01Z</time>
      </trkpt>
      <trkpt lat="46.49859" lon="0.00145">
        <ele>126</ele>
        <time>2020-05-30T17:56:02Z</time>
      </trkpt>
      <trkpt lat="46.49854" lon="0.00133">
        <ele>126.4</ele>
        <time>2020-05-30T17:56:03Z</time>
      </trkpt>
      <trkpt lat="46.49849" lon="0.00123">
        <ele>126.8</ele>
        <time>2020-05-30T17:56:04Z</time>
      </trkpt>
      <trkpt lat="46.49844" lon="0.00113">
        <ele>127.2</ele>
        <time>2020-05-30T17:56:05Z</time>
      </trkpt>
      <trkpt lat="46.49839" lon="0.00102">
        <ele>127.6</ele>
        <time>2020-05-30T17:56:06Z</time>
      </trkpt>
      <trkpt lat="46.49835" lon="0.00093">
        <ele>127.9</ele>
        <time>2020-05-30T17:56:07Z</time>
      </trkpt>
      <trkpt lat="46.49831" lon="0.00083">
        <ele>128.3</ele>
        <time>2020-05-30T17:56:08Z</time>
      </trkpt>
      <trkpt lat="46.49826" lon="0.00075">
        <ele>128.6</ele>
        <time>2020-05-30T17:56:09Z</time>
      </trkpt>
      <trkpt lat="46.49822" lon="0.00066">
        <ele>128.9</ele>
        <time>2020-05-30T17:56:10Z</time>
      </trkpt>
      <trkpt lat="46.49817" lon="0.00058">
        <ele>129.1</ele>
        <time>2020-05-30T17:56:11Z</time>
      </trkpt>
      <trkpt lat="46.49813" lon="0.0005">
        <ele>129.4</ele>
        <time>2020-05-30T17:56:12Z</time>
      </trkpt>
      <trkpt lat="46.4981" lon="0.00042">
        <ele>129.6</ele>
        <time>2020-05-30T17:56:13Z</time>
      </trkpt>
      <trkpt lat="46.49806" lon="0.00034">
        <ele>129.8</ele>
        <time>2020-05-30T17:56:14Z</time>
      </trkpt>
      <trkpt lat="46.49803" lon="0.00027">
        <ele>130</ele>
        <time>2020-05-30T17:56:15Z</time>
      </trkpt>
      <trkpt lat="46.498" lon="0.00019">
        <ele>130.1</ele>
        <time>2020-05-30T17:56:16Z</time>
      </trkpt>
      <trkpt lat="46.49796" lon="0.00013">
        <ele>130.3</ele>
        <time>2020-05-30T17:56:17Z</time>
      </trkpt>
      <trkpt lat="46.49794" lon="5.0E-5">
        <ele>130.4</ele>
        <time>2020-05-30T17:56:18Z</time>
      </trkpt>
      <trkpt lat="46.49791" lon="-1.0E-5">
        <ele>130.6</ele>
        <time>2020-05-30T17:56:19Z</time>
      </trkpt>
      <trkpt lat="46.49788" lon="-8.0E-5">
        <ele>130.6</ele>
        <time>2020-05-30T17:56:20Z</time>
      </trkpt>
      <trkpt lat="46.49785" lon="-0.00014">
        <ele>130.7</ele>
        <time>2020-05-30T17:56:21Z</time>
      </trkpt>
      <trkpt lat="46.49783" lon="-0.0002">
        <ele>130.7</ele>
        <time>2020-05-30T17:56:22Z</time>
      </trkpt>
      <trkpt lat="46.4978" lon="-0.00026">
        <ele>130.8</ele>
        <time>2020-05-30T17:56:23Z</time>
      </trkpt>
      <trkpt lat="46.49778" lon="-0.00032">
        <ele>130.8</ele>
        <time>2020-05-30T17:56:24Z</time>
      </trkpt>
      <trkpt lat="46.49775" lon="-0.00037">
        <ele>130.7</ele>
        <time>2020-05-30T17:56:25Z</time>
      </trkpt>
      <trkpt lat="46.49772" lon="-0.00043">
        <ele>130.7</ele>
        <time>2020-05-30T17:56:26Z</time>
      </trkpt>
      <trkpt lat="46.49768" lon="-0.00051">
        <ele>130.7</ele>
        <time>2020-05-30T17:56:27Z</time>
      </trkpt>
      <trkpt lat="46.49765" lon="-0.00059">
        <ele>130.6</ele>
        <time>2020-05-30T17:56:28Z</time>
      </trkpt>
      <trkpt lat="46.49761" lon="-0.00067">
        <ele>130.5</ele>
        <time>2020-05-30T17:56:29Z</time>
      </trkpt>
      <trkpt lat="46.49757" lon="-0.00074">
        <ele>130.4</ele>
        <time>2020-05-30T17:56:30Z</time>
      </trkpt>
      <trkpt lat="46.49753" lon="-0.00081">
        <ele>130.3</ele>
        <time>2020-05-30T17:56:31Z</time>
      </trkpt>
      <trkpt lat="46.49748" lon="-0.00089">
        <ele>130.1</ele>
        <time>2020-05-30T17:56:32Z</time>
      </trkpt>
      <trkpt lat="46.49743" lon="-0.00096">
        <ele>129.9</ele>
        <time>2020-05-30T17:56:33Z</time>
      </trkpt>
      <trkpt lat="46.4974" lon="-0.001">
        <ele>129.8</ele>
        <time>2020-05-30T17:56:34Z</time>
      </trkpt>
      <trkpt lat="46.49733" lon="-0.0011">
        <ele>129.6</ele>
        <time>2020-05-30T17:56:35Z</time>
      </trkpt>
      <trkpt lat="46.4973" lon="-0.00116">
        <ele>129.5</ele>
        <time>2020-05-30T17:56:36Z</time>
      </trkpt>
      <trkpt lat="46.49725" lon="-0.00125">
        <ele>129.3</ele>
        <time>2020-05-30T17:56:37Z</time>
      </trkpt>
      <trkpt lat="46.49719" lon="-0.00134">
        <ele>129.1</ele>
        <time>2020-05-30T17:56:38Z</time>
      </trkpt>
      <trkpt lat="46.49713" lon="-0.00144">
        <ele>128.8</ele>
        <time>2020-05-30T17:56:39Z</time>
      </trkpt>
      <trkpt lat="46.49708" lon="-0.00153">
        <ele>128.6</ele>
        <time>2020-05-30T17:56:40Z</time>
      </trkpt>
      <trkpt lat="46.49702" lon="-0.00162">
        <ele>128.4</ele>
        <time>2020-05-30T17:56:41Z</time>
      </trkpt>
      <trkpt lat="46.49697" lon="-0.00171">
        <ele>128.2</ele>
        <time>2020-05-30T17:56:42Z</time>
      </trkpt>
      <trkpt lat="46.49692" lon="-0.0018">
        <ele>128</ele>
        <time>2020-05-30T17:56:43Z</time>
      </trkpt>
      <trkpt lat="46.49687" lon="-0.0019">
        <ele>127.8</ele>
        <time>2020-05-30T17:56:44Z</time>
      </trkpt>
      <trkpt lat="46.49682" lon="-0.002">
        <ele>127.7</ele>
        <time>2020-05-30T17:56:45Z</time>
      </trkpt>
      <trkpt lat="46.49676" lon="-0.00209">
        <ele>127.5</ele>
        <time>2020-05-30T17:56:46Z</time>
      </trkpt>
      <trkpt lat="46.49671" lon="-0.00219">
        <ele>127.4</ele>
        <time>2020-05-30T17:56:47Z</time>
      </trkpt>
      <trkpt lat="46.49665" lon="-0.00229">
        <ele>127.3</ele>
        <time>2020-05-30T17:56:48Z</time>
      </trkpt>
      <trkpt lat="46.4966" lon="-0.00239">
        <ele>127.3</ele>
        <time>2020-05-30T17:56:49Z</time>
      </trkpt>
      <trkpt lat="46.49655" lon="-0.00249">
        <ele>127.3</ele>
        <time>2020-05-30T17:56:50Z</time>
      </trkpt>
      <trkpt lat="46.49649" lon="-0.00258">
        <ele>127.3</ele>
        <time>2020-05-30T17:56:51Z</time>
      </trkpt>
      <trkpt lat="46.49643" lon="-0.00267">
        <ele>127.4</ele>
        <time>2020-05-30T17:56:52Z</time>
      </trkpt>
      <trkpt lat="46.49637" lon="-0.00277">
        <ele>127.5</ele>
        <time>2020-05-30T17:56:53Z</time>
      </trkpt>
      <trkpt lat="46.49632" lon="-0.00286">
        <ele>127.6</ele>
        <time>2020-05-30T17:56:54Z</time>
      </trkpt>
      <trkpt lat="46.49627" lon="-0.00296">
        <ele>127.8</ele>
        <time>2020-05-30T17:56:55Z</time>
      </trkpt>
      <trkpt lat="46.49621" lon="-0.00305">
        <ele>127.9</ele>
        <time>2020-05-30T17:56:56Z</time>
      </trkpt>
      <trkpt lat="46.49616" lon="-0.00314">
        <ele>128</ele>
        <time>2020-05-30T17:56:57Z</time>
      </trkpt>
      <trkpt lat="46.4961" lon="-0.00323">
        <ele>128.2</ele>
        <time>2020-05-30T17:56:58Z</time>
      </trkpt>
      <trkpt lat="46.49606" lon="-0.00331">
        <ele>128.3</ele>
        <time>2020-05-30T17:56:59Z</time>
      </trkpt>
      <trkpt lat="46.49601" lon="-0.0034">
        <ele>128.5</ele>
        <time>2020-05-30T17:57:00Z</time>
      </trkpt>
      <trkpt lat="46.49596" lon="-0.00347">
        <ele>128.7</ele>
        <time>2020-05-30T17:57:01Z</time>
      </trkpt>
      <trkpt lat="46.49591" lon="-0.00355">
        <ele>128.8</ele>
        <time>2020-05-30T17:57:02Z</time>
      </trkpt>
      <trkpt lat="46.49586" lon="-0.00362">
        <ele>128.9</ele>
        <time>2020-05-30T17:57:03Z</time>
      </trkpt>
      <trkpt lat="46.49582" lon="-0.00369">
        <ele>129.1</ele>
        <time>2020-05-30T17:57:04Z</time>
      </trkpt>
      <trkpt lat="46.49577" lon="-0.00376">
        <ele>129.2</ele>
        <time>2020-05-30T17:57:05Z</time>
      </trkpt>
      <trkpt lat="46.49573" lon="-0.00383">
        <ele>129.3</ele>
        <time>2020-05-30T17:57:06Z</time>
      </trkpt>
      <trkpt lat="46.49569" lon="-0.0039">
        <ele>129.5</ele>
        <time>2020-05-30T17:57:07Z</time>
      </trkpt>
      <trkpt lat="46.49566" lon="-0.00396">
        <ele>129.6</ele>
        <time>2020-05-30T17:57:08Z</time>
      </trkpt>
      <trkpt lat="46.49563" lon="-0.00403">
        <ele>129.8</ele>
        <time>2020-05-30T17:57:09Z</time>
      </trkpt>
      <trkpt lat="46.4956" lon="-0.00409">
        <ele>129.9</ele>
        <time>2020-05-30T17:57:10Z</time>
      </trkpt>
      <trkpt lat="46.49558" lon="-0.00418">
        <ele>130</ele>
        <time>2020-05-30T17:57:11Z</time>
      </trkpt>
      <trkpt lat="46.49555" lon="-0.00425">
        <ele>130.1</ele>
        <time>2020-05-30T17:57:12Z</time>
      </trkpt>
      <trkpt lat="46.49551" lon="-0.00431">
        <ele>130.2</ele>
        <time>2020-05-30T17:57:13Z</time>
      </trkpt>
      <trkpt lat="46.49548" lon="-0.00438">
        <ele>130.2</ele>
        <time>2020-05-30T17:57:14Z</time>
      </trkpt>
      <trkpt lat="46.49543" lon="-0.00443">
        <ele>130.3</ele>
        <time>2020-05-30T17:57:15Z</time>
      </trkpt>
      <trkpt lat="46.49539" lon="-0.00449">
        <ele>130.4</ele>
        <time>2020-05-30T17:57:16Z</time>
      </trkpt>
      <trkpt lat="46.49536" lon="-0.00455">
        <ele>130.5</ele>
        <time>2020-05-30T17:57:17Z</time>
      </trkpt>
      <trkpt lat="46.49533" lon="-0.00462">
        <ele>130.5</ele>
        <time>2020-05-30T17:57:18Z</time>
      </trkpt>
      <trkpt lat="46.49529" lon="-0.00468">
        <ele>130.6</ele>
        <time>2020-05-30T17:57:19Z</time>
      </trkpt>
      <trkpt lat="46.49526" lon="-0.00474">
        <ele>130.7</ele>
        <time>2020-05-30T17:57:20Z</time>
      </trkpt>
      <trkpt lat="46.49523" lon="-0.00481">
        <ele>130.7</ele>
        <time>2020-05-30T17:57:21Z</time>
      </trkpt>
      <trkpt lat="46.4952" lon="-0.00487">
        <ele>130.8</ele>
        <time>2020-05-30T17:57:22Z</time>
      </trkpt>
      <trkpt lat="46.49516" lon="-0.00494">
        <ele>130.8</ele>
        <time>2020-05-30T17:57:23Z</time>
      </trkpt>
      <trkpt lat="46.49514" lon="-0.00501">
        <ele>130.9</ele>
        <time>2020-05-30T17:57:24Z</time>
      </trkpt>
      <trkpt lat="46.49511" lon="-0.00509">
        <ele>130.9</ele>
        <time>2020-05-30T17:57:25Z</time>
      </trkpt>
      <trkpt lat="46.49509" lon="-0.00516">
        <ele>130.9</ele>
        <time>2020-05-30T17:57:26Z</time>
      </trkpt>
      <trkpt lat="46.49506" lon="-0.00523">
        <ele>131</ele>
        <time>2020-05-30T17:57:27Z</time>
      </trkpt>
      <trkpt lat="46.49504" lon="-0.00531">
        <ele>131</ele>
        <time>2020-05-30T17:57:28Z</time>
      </trkpt>
      <trkpt lat="46.49501" lon="-0.00537">
        <ele>131</ele>
        <time>2020-05-30T17:57:29Z</time>
      </trkpt>
      <trkpt lat="46.49497" lon="-0.00542">
        <ele>130.9</ele>
        <time>2020-05-30T17:57:30Z</time>
      </trkpt>
      <trkpt lat="46.49495" lon="-0.00549">
        <ele>130.9</ele>
        <time>2020-05-30T17:57:31Z</time>
      </trkpt>
      <trkpt lat="46.49492" lon="-0.00555">
        <ele>130.9</ele>
        <time>2020-05-30T17:57:32Z</time>
      </trkpt>
      <trkpt lat="46.4949" lon="-0.00563">
        <ele>130.9</ele>
        <time>2020-05-30T17:57:33Z</time>
      </trkpt>
      <trkpt lat="46.49487" lon="-0.0057">
        <ele>130.8</ele>
        <time>2020-05-30T17:57:34Z</time>
      </trkpt>
      <trkpt lat="46.49484" lon="-0.00576">
        <ele>130.8</ele>
        <time>2020-05-30T17:57:35Z</time>
      </trkpt>
      <trkpt lat="46.4948" lon="-0.00585">
        <ele>130.7</ele>
        <time>2020-05-30T17:57:36Z</time>
      </trkpt>
      <trkpt lat="46.49476" lon="-0.00592">
        <ele>130.6</ele>
        <time>2020-05-30T17:57:37Z</time>
      </trkpt>
      <trkpt lat="46.49471" lon="-0.00599">
        <ele>130.5</ele>
        <time>2020-05-30T17:57:38Z</time>
      </trkpt>
      <trkpt lat="46.49466" lon="-0.00606">
        <ele>130.4</ele>
        <time>2020-05-30T17:57:39Z</time>
      </trkpt>
      <trkpt lat="46.49462" lon="-0.00612">
        <ele>130.3</ele>
        <time>2020-05-30T17:57:40Z</time>
      </trkpt>
      <trkpt lat="46.49457" lon="-0.00619">
        <ele>130.1</ele>
        <time>2020-05-30T17:57:41Z</time>
      </trkpt>
      <trkpt lat="46.49453" lon="-0.00626">
        <ele>130</ele>
        <time>2020-05-30T17:57:42Z</time>
      </trkpt>
      <trkpt lat="46.49448" lon="-0.00633">
        <ele>129.9</ele>
        <time>2020-05-30T17:57:43Z</time>
      </trkpt>
      <trkpt lat="46.49444" lon="-0.00641">
        <ele>129.7</ele>
        <time>2020-05-30T17:57:44Z</time>
      </trkpt>
      <trkpt lat="46.4944" lon="-0.0065">
        <ele>129.5</ele>
        <time>2020-05-30T17:57:45Z</time>
      </trkpt>
      <trkpt lat="46.49437" lon="-0.00659">
        <ele>129.3</ele>
        <time>2020-05-30T17:57:46Z</time>
      </trkpt>
      <trkpt lat="46.49435" lon="-0.00667">
        <ele>129.2</ele>
        <time>2020-05-30T17:57:47Z</time>
      </trkpt>
      <trkpt lat="46.49431" lon="-0.00675">
        <ele>129.1</ele>
        <time>2020-05-30T17:57:48Z</time>
      </trkpt>
      <trkpt lat="46.49428" lon="-0.00682">
        <ele>129.1</ele>
        <time>2020-05-30T17:57:49Z</time>
      </trkpt>
      <trkpt lat="46.49427" lon="-0.00688">
        <ele>129</ele>
        <time>2020-05-30T17:57:50Z</time>
      </trkpt>
      <trkpt lat="46.49428" lon="-0.00694">
        <ele>128.9</ele>
        <time>2020-05-30T17:57:51Z</time>
      </trkpt>
      <trkpt lat="46.49428" lon="-0.00698">
        <ele>128.9</ele>
        <time>2020-05-30T17:57:52Z</time>
      </trkpt>
      <trkpt lat="46.49428" lon="-0.00701">
        <ele>128.9</ele>
        <time>2020-05-30T17:57:53Z</time>
      </trkpt>
      <trkpt lat="46.49428" lon="-0.00703">
        <ele>128.8</ele>
        <time>2020-05-30T17:57:54Z</time>
      </trkpt>
      <trkpt lat="46.49428" lon="-0.00703">
        <ele>128.8</ele>
        <time>2020-05-30T17:57:55Z</time>
      </trkpt>
      <trkpt lat="46.49428" lon="-0.00703">
        <ele>128.8</ele>
        <time>2020-05-30T17:57:56Z</time>
      </trkpt>
      <trkpt lat="46.49427" lon="-0.00703">
        <ele>128.8</ele>
        <time>2020-05-30T17:57:57Z</time>
      </trkpt>
      <trkpt lat="46.49426" lon="-0.00703">
        <ele>128.8</ele>
        <time>2020-05-30T17:57:58Z</time>
      </trkpt>
      <trkpt lat="46.49427" lon="-0.00703">
        <ele>128.8</ele>
        <time>2020-05-30T17:57:59Z</time>
      </trkpt>
      <trkpt lat="46.49427" lon="-0.00703">
        <ele>128.8</ele>
        <time>2020-05-30T17:58:00Z</time>
      </trkpt>
      <trkpt lat="46.49427" lon="-0.00703">
        <ele>128.8</ele>
        <time>2020-05-30T17:58:01Z</time>
      </trkpt>
      <trkpt lat="46.49427" lon="-0.00703">
        <ele>128.8</ele>
        <time>2020-05-30T17:58:02Z</time>
      </trkpt>
      <trkpt lat="46.49427" lon="-0.00703">
        <ele>128.8</ele>
        <time>2020-05-30T17:58:03Z</time>
      </trkpt>
      <trkpt lat="46.49427" lon="-0.00703">
        <ele>128.8</ele>
        <time>2020-05-30T17:58:04Z</time>
      </trkpt>
      <trkpt lat="46.49427" lon="-0.00703">
        <ele>128.8</ele>
        <time>2020-05-30T17:58:05Z</time>
      </trkpt>
      <trkpt lat="46.49427" lon="-0.00703">
        <ele>128.8</ele>
        <time>2020-05-30T17:58:06Z</time>
      </trkpt>
      <trkpt lat="46.49427" lon="-0.00703">
        <ele>128.8</ele>
        <time>2020-05-30T17:58:07Z</time>
      </trkpt>
      <trkpt lat="46.49428" lon="-0.00704">
        <ele>128.8</ele>
        <time>2020-05-30T17:58:08Z</time>
      </trkpt>
      <trkpt lat="46.49428" lon="-0.00704">
        <ele>128.8</ele>
        <time>2020-05-30T17:58:09Z</time>
      </trkpt>
      <trkpt lat="46.49428" lon="-0.00704">
        <ele>128.8</ele>
        <time>2020-05-30T17:58:10Z</time>
      </trkpt>
      <trkpt lat="46.49428" lon="-0.00704">
        <ele>128.8</ele>
        <time>2020-05-30T17:58:11Z</time>
      </trkpt>
      <trkpt lat="46.49428" lon="-0.00704">
        <ele>128.8</ele>
        <time>2020-05-30T17:58:12Z</time>
      </trkpt>
      <trkpt lat="46.49428" lon="-0.00704">
        <ele>128.8</ele>
        <time>2020-05-30T17:58:13Z</time>
      </trkpt>
      <trkpt lat="46.4943" lon="-0.00704">
        <ele>128.7</ele>
        <time>2020-05-30T17:58:14Z</time>
      </trkpt>
      <trkpt lat="46.49429" lon="-0.00704">
        <ele>128.7</ele>
        <time>2020-05-30T17:58:15Z</time>
      </trkpt>
      <trkpt lat="46.49429" lon="-0.00704">
        <ele>128.7</ele>
        <time>2020-05-30T17:58:16Z</time>
      </trkpt>
      <trkpt lat="46.49428" lon="-0.00704">
        <ele>128.7</ele>
        <time>2020-05-30T17:58:17Z</time>
      </trkpt>
      <trkpt lat="46.49428" lon="-0.00704">
        <ele>128.7</ele>
        <time>2020-05-30T17:58:18Z</time>
      </trkpt>
      <trkpt lat="46.49427" lon="-0.00704">
        <ele>128.7</ele>
        <time>2020-05-30T17:58:19Z</time>
      </trkpt>
      <trkpt lat="46.49427" lon="-0.00705">
        <ele>128.7</ele>
        <time>2020-05-30T17:58:20Z</time>
      </trkpt>
      <trkpt lat="46.49427" lon="-0.00705">
        <ele>128.7</ele>
        <time>2020-05-30T17:58:21Z</time>
      </trkpt>
      <trkpt lat="46.49427" lon="-0.00705">
        <ele>128.7</ele>
        <time>2020-05-30T17:58:22Z</time>
      </trkpt>
      <trkpt lat="46.49427" lon="-0.00705">
        <ele>128.7</ele>
        <time>2020-05-30T17:58:23Z</time>
      </trkpt>
      <trkpt lat="46.49427" lon="-0.00705">
        <ele>128.7</ele>
        <time>2020-05-30T17:58:24Z</time>
      </trkpt>
      <trkpt lat="46.49427" lon="-0.00705">
        <ele>128.7</ele>
        <time>2020-05-30T17:58:25Z</time>
      </trkpt>
      <trkpt lat="46.49427" lon="-0.00705">
        <ele>128.7</ele>
        <time>2020-05-30T17:58:26Z</time>
      </trkpt>
      <trkpt lat="46.49427" lon="-0.00705">
        <ele>128.7</ele>
        <time>2020-05-30T17:58:27Z</time>
      </trkpt>
      <trkpt lat="46.49428" lon="-0.00705">
        <ele>128.7</ele>
        <time>2020-05-30T17:58:28Z</time>
      </trkpt>
      <trkpt lat="46.49429" lon="-0.00705">
        <ele>128.6</ele>
        <time>2020-05-30T17:58:29Z</time>
      </trkpt>
      <trkpt lat="46.49429" lon="-0.00704">
        <ele>128.6</ele>
        <time>2020-05-30T17:58:30Z</time>
      </trkpt>
      <trkpt lat="46.49429" lon="-0.00704">
        <ele>128.6</ele>
        <time>2020-05-30T17:58:31Z</time>
      </trkpt>
      <trkpt lat="46.49428" lon="-0.00704">
        <ele>128.6</ele>
        <time>2020-05-30T17:58:32Z</time>
      </trkpt>
      <trkpt lat="46.49428" lon="-0.00704">
        <ele>128.6</ele>
        <time>2020-05-30T17:58:33Z</time>
      </trkpt>
      <trkpt lat="46.49428" lon="-0.00704">
        <ele>128.6</ele>
        <time>2020-05-30T17:58:34Z</time>
      </trkpt>
      <trkpt lat="46.49429" lon="-0.00703">
        <ele>128.6</ele>
        <time>2020-05-30T17:58:35Z</time>
      </trkpt>
      <trkpt lat="46.4943" lon="-0.00703">
        <ele>128.6</ele>
        <time>2020-05-30T17:58:36Z</time>
      </trkpt>
      <trkpt lat="46.4943" lon="-0.00703">
        <ele>128.6</ele>
        <time>2020-05-30T17:58:37Z</time>
      </trkpt>
      <trkpt lat="46.49431" lon="-0.00702">
        <ele>128.6</ele>
        <time>2020-05-30T17:58:38Z</time>
      </trkpt>
      <trkpt lat="46.4943" lon="-0.00702">
        <ele>128.6</ele>
        <time>2020-05-30T17:58:39Z</time>
      </trkpt>
      <trkpt lat="46.49431" lon="-0.00702">
        <ele>128.6</ele>
        <time>2020-05-30T17:58:40Z</time>
      </trkpt>
      <trkpt lat="46.49431" lon="-0.00702">
        <ele>128.6</ele>
        <time>2020-05-30T17:58:41Z</time>
      </trkpt>
      <trkpt lat="46.4943" lon="-0.00703">
        <ele>128.6</ele>
        <time>2020-05-30T17:58:42Z</time>
      </trkpt>
      <trkpt lat="46.49429" lon="-0.00703">
        <ele>128.6</ele>
        <time>2020-05-30T17:58:43Z</time>
      </trkpt>
      <trkpt lat="46.49429" lon="-0.00703">
        <ele>128.6</ele>
        <time>2020-05-30T17:58:44Z</time>
      </trkpt>
      <trkpt lat="46.4943" lon="-0.00703">
        <ele>128.5</ele>
        <time>2020-05-30T17:58:45Z</time>
      </trkpt>
      <trkpt lat="46.4943" lon="-0.00703">
        <ele>128.5</ele>
        <time>2020-05-30T17:58:46Z</time>
      </trkpt>
      <trkpt lat="46.49429" lon="-0.00703">
        <ele>128.5</ele>
        <time>2020-05-30T17:58:47Z</time>
      </trkpt>
      <trkpt lat="46.49429" lon="-0.00703">
        <ele>128.5</ele>
        <time>2020-05-30T17:58:48Z</time>
      </trkpt>
      <trkpt lat="46.4943" lon="-0.00703">
        <ele>128.5</ele>
        <time>2020-05-30T17:58:49Z</time>
      </trkpt>
      <trkpt lat="46.4943" lon="-0.00703">
        <ele>128.5</ele>
        <time>2020-05-30T17:58:50Z</time>
      </trkpt>
      <trkpt lat="46.4943" lon="-0.00704">
        <ele>128.5</ele>
        <time>2020-05-30T17:58:51Z</time>
      </trkpt>
      <trkpt lat="46.4943" lon="-0.00704">
        <ele>128.5</ele>
        <time>2020-05-30T17:58:52Z</time>
      </trkpt>
      <trkpt lat="46.49431" lon="-0.00704">
        <ele>128.5</ele>
        <time>2020-05-30T17:58:53Z</time>
      </trkpt>
      <trkpt lat="46.49431" lon="-0.00704">
        <ele>128.5</ele>
        <time>2020-05-30T17:58:54Z</time>
      </trkpt>
      <trkpt lat="46.49431" lon="-0.00704">
        <ele>128.5</ele>
        <time>2020-05-30T17:58:55Z</time>
      </trkpt>
      <trkpt lat="46.49431" lon="-0.00704">
        <ele>128.5</ele>
        <time>2020-05-30T17:58:56Z</time>
      </trkpt>
      <trkpt lat="46.49431" lon="-0.00704">
        <ele>128.5</ele>
        <time>2020-05-30T17:58:57Z</time>
      </trkpt>
      <trkpt lat="46.49431" lon="-0.00704">
        <ele>128.5</ele>
        <time>2020-05-30T17:58:58Z</time>
      </trkpt>
      <trkpt lat="46.49431" lon="-0.00704">
        <ele>128.5</ele>
        <time>2020-05-30T17:58:59Z</time>
      </trkpt>
      <trkpt lat="46.49432" lon="-0.00703">
        <ele>128.5</ele>
        <time>2020-05-30T17:59:00Z</time>
      </trkpt>
      <trkpt lat="46.49433" lon="-0.00703">
        <ele>128.5</ele>
        <time>2020-05-30T17:59:01Z</time>
      </trkpt>
      <trkpt lat="46.49433" lon="-0.00703">
        <ele>128.5</ele>
        <time>2020-05-30T17:59:02Z</time>
      </trkpt>
      <trkpt lat="46.49433" lon="-0.00703">
        <ele>128.4</ele>
        <time>2020-05-30T17:59:03Z</time>
      </trkpt>
      <trkpt lat="46.49433" lon="-0.00703">
        <ele>128.4</ele>
        <time>2020-05-30T17:59:04Z</time>
      </trkpt>
      <trkpt lat="46.49433" lon="-0.00703">
        <ele>128.4</ele>
        <time>2020-05-30T17:59:05Z</time>
      </trkpt>
      <trkpt lat="46.49433" lon="-0.00703">
        <ele>128.4</ele>
        <time>2020-05-30T17:59:06Z</time>
      </trkpt>
      <trkpt lat="46.49433" lon="-0.00703">
        <ele>128.4</ele>
        <time>2020-05-30T17:59:07Z</time>
      </trkpt>
      <trkpt lat="46.49433" lon="-0.00703">
        <ele>128.4</ele>
        <time>2020-05-30T17:59:08Z</time>
      </trkpt>
      <trkpt lat="46.49433" lon="-0.00703">
        <ele>128.4</ele>
        <time>2020-05-30T17:59:09Z</time>
      </trkpt>
      <trkpt lat="46.49433" lon="-0.00703">
        <ele>128.4</ele>
        <time>2020-05-30T17:59:10Z</time>
      </trkpt>
      <trkpt lat="46.49434" lon="-0.00702">
        <ele>128.4</ele>
        <time>2020-05-30T17:59:11Z</time>
      </trkpt>
      <trkpt lat="46.49434" lon="-0.00702">
        <ele>128.4</ele>
        <time>2020-05-30T17:59:12Z</time>
      </trkpt>
      <trkpt lat="46.49435" lon="-0.00702">
        <ele>128.4</ele>
        <time>2020-05-30T17:59:13Z</time>
      </trkpt>
      <trkpt lat="46.49435" lon="-0.00701">
        <ele>128.4</ele>
        <time>2020-05-30T17:59:14Z</time>
      </trkpt>
      <trkpt lat="46.49435" lon="-0.00702">
        <ele>128.4</ele>
        <time>2020-05-30T17:59:15Z</time>
      </trkpt>
      <trkpt lat="46.49435" lon="-0.00702">
        <ele>128.4</ele>
        <time>2020-05-30T17:59:16Z</time>
      </trkpt>
      <trkpt lat="46.49435" lon="-0.00702">
        <ele>128.4</ele>
        <time>2020-05-30T17:59:17Z</time>
      </trkpt>
      <trkpt lat="46.49435" lon="-0.00702">
        <ele>128.4</ele>
        <time>2020-05-30T17:59:18Z</time>
      </trkpt>
      <trkpt lat="46.49435" lon="-0.00702">
        <ele>128.4</ele>
        <time>2020-05-30T17:59:19Z</time>
      </trkpt>
      <trkpt lat="46.49434" lon="-0.00703">
        <ele>128.4</ele>
        <time>2020-05-30T17:59:20Z</time>
      </trkpt>
      <trkpt lat="46.49435" lon="-0.00703">
        <ele>128.4</ele>
        <time>2020-05-30T17:59:21Z</time>
      </trkpt>
      <trkpt lat="46.49434" lon="-0.00703">
        <ele>128.3</ele>
        <time>2020-05-30T17:59:22Z</time>
      </trkpt>
      <trkpt lat="46.49434" lon="-0.00704">
        <ele>128.3</ele>
        <time>2020-05-30T17:59:23Z</time>
      </trkpt>
      <trkpt lat="46.49433" lon="-0.00704">
        <ele>128.3</ele>
        <time>2020-05-30T17:59:24Z</time>
      </trkpt>
      <trkpt lat="46.49433" lon="-0.00705">
        <ele>128.3</ele>
        <time>2020-05-30T17:59:25Z</time>
      </trkpt>
      <trkpt lat="46.49432" lon="-0.00705">
        <ele>128.3</ele>
        <time>2020-05-30T17:59:26Z</time>
      </trkpt>
      <trkpt lat="46.49431" lon="-0.00706">
        <ele>128.3</ele>
        <time>2020-05-30T17:59:27Z</time>
      </trkpt>
      <trkpt lat="46.4943" lon="-0.00707">
        <ele>128.3</ele>
        <time>2020-05-30T17:59:28Z</time>
      </trkpt>
      <trkpt lat="46.4943" lon="-0.00707">
        <ele>128.3</ele>
        <time>2020-05-30T17:59:29Z</time>
      </trkpt>
      <trkpt lat="46.4943" lon="-0.00706">
        <ele>128.3</ele>
        <time>2020-05-30T17:59:30Z</time>
      </trkpt>
      <trkpt lat="46.4943" lon="-0.00707">
        <ele>128.2</ele>
        <time>2020-05-30T17:59:31Z</time>
      </trkpt>
      <trkpt lat="46.49429" lon="-0.00707">
        <ele>128.2</ele>
        <time>2020-05-30T17:59:32Z</time>
      </trkpt>
      <trkpt lat="46.4943" lon="-0.00707">
        <ele>128.2</ele>
        <time>2020-05-30T17:59:33Z</time>
      </trkpt>
      <trkpt lat="46.49431" lon="-0.00705">
        <ele>128.2</ele>
        <time>2020-05-30T17:59:34Z</time>
      </trkpt>
      <trkpt lat="46.49431" lon="-0.00705">
        <ele>128.2</ele>
        <time>2020-05-30T17:59:35Z</time>
      </trkpt>
      <trkpt lat="46.4943" lon="-0.00705">
        <ele>128.2</ele>
        <time>2020-05-30T17:59:36Z</time>
      </trkpt>
      <trkpt lat="46.4943" lon="-0.00706">
        <ele>128.2</ele>
        <time>2020-05-30T17:59:37Z</time>
      </trkpt>
      <trkpt lat="46.4943" lon="-0.00705">
        <ele>128.2</ele>
        <time>2020-05-30T17:59:38Z</time>
      </trkpt>
      <trkpt lat="46.4943" lon="-0.00705">
        <ele>128.2</ele>
        <time>2020-05-30T17:59:39Z</time>
      </trkpt>
      <trkpt lat="46.4943" lon="-0.00703">
        <ele>128.1</ele>
        <time>2020-05-30T17:59:40Z</time>
      </trkpt>
      <trkpt lat="46.4943" lon="-0.00703">
        <ele>128.1</ele>
        <time>2020-05-30T17:59:41Z</time>
      </trkpt>
      <trkpt lat="46.49431" lon="-0.00703">
        <ele>128.1</ele>
        <time>2020-05-30T17:59:42Z</time>
      </trkpt>
      <trkpt lat="46.4943" lon="-0.00704">
        <ele>128.1</ele>
        <time>2020-05-30T17:59:43Z</time>
      </trkpt>
      <trkpt lat="46.49429" lon="-0.00704">
        <ele>128.1</ele>
        <time>2020-05-30T17:59:44Z</time>
      </trkpt>
      <trkpt lat="46.49428" lon="-0.00705">
        <ele>128.1</ele>
        <time>2020-05-30T17:59:45Z</time>
      </trkpt>
      <trkpt lat="46.49428" lon="-0.00706">
        <ele>128.1</ele>
        <time>2020-05-30T17:59:46Z</time>
      </trkpt>
      <trkpt lat="46.49427" lon="-0.00707">
        <ele>128</ele>
        <time>2020-05-30T17:59:47Z</time>
      </trkpt>
      <trkpt lat="46.49426" lon="-0.00708">
        <ele>128</ele>
        <time>2020-05-30T17:59:48Z</time>
      </trkpt>
      <trkpt lat="46.49425" lon="-0.00709">
        <ele>128</ele>
        <time>2020-05-30T17:59:49Z</time>
      </trkpt>
      <trkpt lat="46.49425" lon="-0.0071">
        <ele>128</ele>
        <time>2020-05-30T17:59:50Z</time>
      </trkpt>
      <trkpt lat="46.49426" lon="-0.00709">
        <ele>128</ele>
        <time>2020-05-30T17:59:51Z</time>
      </trkpt>
      <trkpt lat="46.49426" lon="-0.0071">
        <ele>128</ele>
        <time>2020-05-30T17:59:52Z</time>
      </trkpt>
      <trkpt lat="46.49426" lon="-0.00711">
        <ele>128</ele>
        <time>2020-05-30T17:59:53Z</time>
      </trkpt>
      <trkpt lat="46.49426" lon="-0.00713">
        <ele>127.9</ele>
        <time>2020-05-30T17:59:54Z</time>
      </trkpt>
      <trkpt lat="46.49426" lon="-0.00714">
        <ele>127.9</ele>
        <time>2020-05-30T17:59:55Z</time>
      </trkpt>
      <trkpt lat="46.49424" lon="-0.00715">
        <ele>127.9</ele>
        <time>2020-05-30T17:59:56Z</time>
      </trkpt>
      <trkpt lat="46.49423" lon="-0.00715">
        <ele>127.9</ele>
        <time>2020-05-30T17:59:57Z</time>
      </trkpt>
      <trkpt lat="46.49422" lon="-0.00715">
        <ele>127.8</ele>
        <time>2020-05-30T17:59:58Z</time>
      </trkpt>
      <trkpt lat="46.49419" lon="-0.00715">
        <ele>127.6</ele>
        <time>2020-05-30T17:59:59Z</time>
      </trkpt>
      <trkpt lat="46.49416" lon="-0.00717">
        <ele>127.5</ele>
        <time>2020-05-30T18:00:00Z</time>
      </trkpt>
      <trkpt lat="46.49413" lon="-0.00718">
        <ele>127.5</ele>
        <time>2020-05-30T18:00:01Z</time>
      </trkpt>
      <trkpt lat="46.4941" lon="-0.0072">
        <ele>127.4</ele>
        <time>2020-05-30T18:00:02Z</time>
      </trkpt>
      <trkpt lat="46.49407" lon="-0.00723">
        <ele>127.3</ele>
        <time>2020-05-30T18:00:03Z</time>
      </trkpt>
      <trkpt lat="46.49403" lon="-0.00725">
        <ele>127.2</ele>
        <time>2020-05-30T18:00:04Z</time>
      </trkpt>
      <trkpt lat="46.49399" lon="-0.00729">
        <ele>127.1</ele>
        <time>2020-05-30T18:00:05Z</time>
      </trkpt>
      <trkpt lat="46.49394" lon="-0.00733">
        <ele>127</ele>
        <time>2020-05-30T18:00:06Z</time>
      </trkpt>
      <trkpt lat="46.4939" lon="-0.00737">
        <ele>126.8</ele>
        <time>2020-05-30T18:00:07Z</time>
      </trkpt>
      <trkpt lat="46.49386" lon="-0.00742">
        <ele>126.6</ele>
        <time>2020-05-30T18:00:08Z</time>
      </trkpt>
      <trkpt lat="46.49382" lon="-0.00746">
        <ele>126.4</ele>
        <time>2020-05-30T18:00:09Z</time>
      </trkpt>
      <trkpt lat="46.49378" lon="-0.00751">
        <ele>126.2</ele>
        <time>2020-05-30T18:00:10Z</time>
      </trkpt>
      <trkpt lat="46.49374" lon="-0.00757">
        <ele>126</ele>
        <time>2020-05-30T18:00:11Z</time>
      </trkpt>
      <trkpt lat="46.49371" lon="-0.00759">
        <ele>125.9</ele>
        <time>2020-05-30T18:00:12Z</time>
      </trkpt>
      <trkpt lat="46.49368" lon="-0.00762">
        <ele>125.5</ele>
        <time>2020-05-30T18:00:13Z</time>
      </trkpt>
      <trkpt lat="46.49366" lon="-0.00761">
        <ele>125.4</ele>
        <time>2020-05-30T18:00:14Z</time>
      </trkpt>
      <trkpt lat="46.49365" lon="-0.00762">
        <ele>125.3</ele>
        <time>2020-05-30T18:00:15Z</time>
      </trkpt>
      <trkpt lat="46.49366" lon="-0.00761">
        <ele>125.3</ele>
        <time>2020-05-30T18:00:16Z</time>
      </trkpt>
      <trkpt lat="46.49366" lon="-0.00761">
        <ele>125.3</ele>
        <time>2020-05-30T18:00:17Z</time>
      </trkpt>
      <trkpt lat="46.49366" lon="-0.00762">
        <ele>125.3</ele>
        <time>2020-05-30T18:00:18Z</time>
      </trkpt>
      <trkpt lat="46.49366" lon="-0.00762">
        <ele>125.3</ele>
        <time>2020-05-30T18:00:19Z</time>
      </trkpt>
      <trkpt lat="46.49366" lon="-0.00763">
        <ele>125.2</ele>
        <time>2020-05-30T18:00:20Z</time>
      </trkpt>
      <trkpt lat="46.49367" lon="-0.00764">
        <ele>125.2</ele>
        <time>2020-05-30T18:00:21Z</time>
      </trkpt>
      <trkpt lat="46.49367" lon="-0.00764">
        <ele>125.2</ele>
        <time>2020-05-30T18:00:22Z</time>
      </trkpt>
      <trkpt lat="46.49367" lon="-0.00765">
        <ele>125.2</ele>
        <time>2020-05-30T18:00:23Z</time>
      </trkpt>
      <trkpt lat="46.49367" lon="-0.00767">
        <ele>125.1</ele>
        <time>2020-05-30T18:00:24Z</time>
      </trkpt>
      <trkpt lat="46.49367" lon="-0.00768">
        <ele>125.1</ele>
        <time>2020-05-30T18:00:25Z</time>
      </trkpt>
      <trkpt lat="46.49367" lon="-0.00768">
        <ele>125.1</ele>
        <time>2020-05-30T18:00:26Z</time>
      </trkpt>
      <trkpt lat="46.49367" lon="-0.00769">
        <ele>125.1</ele>
        <time>2020-05-30T18:00:27Z</time>
      </trkpt>
      <trkpt lat="46.49367" lon="-0.00769">
        <ele>125.1</ele>
        <time>2020-05-30T18:00:28Z</time>
      </trkpt>
      <trkpt lat="46.49367" lon="-0.0077">
        <ele>125.1</ele>
        <time>2020-05-30T18:00:29Z</time>
      </trkpt>
      <trkpt lat="46.49367" lon="-0.00771">
        <ele>125.1</ele>
        <time>2020-05-30T18:00:30Z</time>
      </trkpt>
      <trkpt lat="46.4937" lon="-0.00775">
        <ele>124.9</ele>
        <time>2020-05-30T18:00:31Z</time>
      </trkpt>
      <trkpt lat="46.49372" lon="-0.00783">
        <ele>124.8</ele>
        <time>2020-05-30T18:00:32Z</time>
      </trkpt>
      <trkpt lat="46.49375" lon="-0.0079">
        <ele>124.6</ele>
        <time>2020-05-30T18:00:33Z</time>
      </trkpt>
      <trkpt lat="46.49377" lon="-0.00799">
        <ele>124.4</ele>
        <time>2020-05-30T18:00:34Z</time>
      </trkpt>
      <trkpt lat="46.49378" lon="-0.00809">
        <ele>124.2</ele>
        <time>2020-05-30T18:00:35Z</time>
      </trkpt>
      <trkpt lat="46.4938" lon="-0.00818">
        <ele>124.1</ele>
        <time>2020-05-30T18:00:36Z</time>
      </trkpt>
      <trkpt lat="46.49382" lon="-0.00827">
        <ele>124</ele>
        <time>2020-05-30T18:00:37Z</time>
      </trkpt>
      <trkpt lat="46.49384" lon="-0.00835">
        <ele>123.8</ele>
        <time>2020-05-30T18:00:38Z</time>
      </trkpt>
      <trkpt lat="46.49388" lon="-0.00843">
        <ele>123.7</ele>
        <time>2020-05-30T18:00:39Z</time>
      </trkpt>
      <trkpt lat="46.49391" lon="-0.0085">
        <ele>123.6</ele>
        <time>2020-05-30T18:00:40Z</time>
      </trkpt>
      <trkpt lat="46.49393" lon="-0.00856">
        <ele>123.5</ele>
        <time>2020-05-30T18:00:41Z</time>
      </trkpt>
      <trkpt lat="46.49396" lon="-0.00862">
        <ele>123.4</ele>
        <time>2020-05-30T18:00:42Z</time>
      </trkpt>
      <trkpt lat="46.49398" lon="-0.00869">
        <ele>123.3</ele>
        <time>2020-05-30T18:00:43Z</time>
      </trkpt>
      <trkpt lat="46.49402" lon="-0.00875">
        <ele>123.1</ele>
        <time>2020-05-30T18:00:44Z</time>
      </trkpt>
      <trkpt lat="46.49404" lon="-0.00882">
        <ele>123</ele>
        <time>2020-05-30T18:00:45Z</time>
      </trkpt>
      <trkpt lat="46.49406" lon="-0.0089">
        <ele>122.8</ele>
        <time>2020-05-30T18:00:46Z</time>
      </trkpt>
      <trkpt lat="46.49408" lon="-0.00897">
        <ele>122.7</ele>
        <time>2020-05-30T18:00:47Z</time>
      </trkpt>
      <trkpt lat="46.4941" lon="-0.00905">
        <ele>122.6</ele>
        <time>2020-05-30T18:00:48Z</time>
      </trkpt>
      <trkpt lat="46.49412" lon="-0.00912">
        <ele>122.5</ele>
        <time>2020-05-30T18:00:49Z</time>
      </trkpt>
      <trkpt lat="46.49414" lon="-0.0092">
        <ele>122.5</ele>
        <time>2020-05-30T18:00:50Z</time>
      </trkpt>
      <trkpt lat="46.49416" lon="-0.00928">
        <ele>122.5</ele>
        <time>2020-05-30T18:00:51Z</time>
      </trkpt>
      <trkpt lat="46.49418" lon="-0.00936">
        <ele>122.5</ele>
        <time>2020-05-30T18:00:52Z</time>
      </trkpt>
      <trkpt lat="46.4942" lon="-0.00944">
        <ele>122.5</ele>
        <time>2020-05-30T18:00:53Z</time>
      </trkpt>
      <trkpt lat="46.49423" lon="-0.00953">
        <ele>122.5</ele>
        <time>2020-05-30T18:00:54Z</time>
      </trkpt>
      <trkpt lat="46.49425" lon="-0.00962">
        <ele>122.5</ele>
        <time>2020-05-30T18:00:55Z</time>
      </trkpt>
      <trkpt lat="46.49427" lon="-0.0097">
        <ele>122.6</ele>
        <time>2020-05-30T18:00:56Z</time>
      </trkpt>
      <trkpt lat="46.49428" lon="-0.00978">
        <ele>122.6</ele>
        <time>2020-05-30T18:00:57Z</time>
      </trkpt>
      <trkpt lat="46.49429" lon="-0.00985">
        <ele>122.6</ele>
        <time>2020-05-30T18:00:58Z</time>
      </trkpt>
      <trkpt lat="46.49431" lon="-0.00991">
        <ele>122.7</ele>
        <time>2020-05-30T18:00:59Z</time>
      </trkpt>
      <trkpt lat="46.49432" lon="-0.00997">
        <ele>122.7</ele>
        <time>2020-05-30T18:01:00Z</time>
      </trkpt>
      <trkpt lat="46.49433" lon="-0.01003">
        <ele>122.7</ele>
        <time>2020-05-30T18:01:01Z</time>
      </trkpt>
      <trkpt lat="46.49433" lon="-0.01008">
        <ele>122.7</ele>
        <time>2020-05-30T18:01:02Z</time>
      </trkpt>
      <trkpt lat="46.4943" lon="-0.01012">
        <ele>122.8</ele>
        <time>2020-05-30T18:01:03Z</time>
      </trkpt>
      <trkpt lat="46.49429" lon="-0.01013">
        <ele>122.8</ele>
        <time>2020-05-30T18:01:04Z</time>
      </trkpt>
      <trkpt lat="46.49427" lon="-0.01017">
        <ele>122.8</ele>
        <time>2020-05-30T18:01:05Z</time>
      </trkpt>
      <trkpt lat="46.49426" lon="-0.01019">
        <ele>122.8</ele>
        <time>2020-05-30T18:01:06Z</time>
      </trkpt>
      <trkpt lat="46.49427" lon="-0.01023">
        <ele>122.8</ele>
        <time>2020-05-30T18:01:07Z</time>
      </trkpt>
      <trkpt lat="46.49428" lon="-0.01025">
        <ele>122.8</ele>
        <time>2020-05-30T18:01:08Z</time>
      </trkpt>
      <trkpt lat="46.49431" lon="-0.01026">
        <ele>122.8</ele>
        <time>2020-05-30T18:01:09Z</time>
      </trkpt>
      <trkpt lat="46.49432" lon="-0.01025">
        <ele>122.8</ele>
        <time>2020-05-30T18:01:10Z</time>
      </trkpt>
      <trkpt lat="46.49434" lon="-0.01019">
        <ele>122.9</ele>
        <time>2020-05-30T18:01:11Z</time>
      </trkpt>
      <trkpt lat="46.49434" lon="-0.01017">
        <ele>122.9</ele>
        <time>2020-05-30T18:01:12Z</time>
      </trkpt>
      <trkpt lat="46.49434" lon="-0.01012">
        <ele>122.8</ele>
        <time>2020-05-30T18:01:13Z</time>
      </trkpt>
      <trkpt lat="46.49434" lon="-0.01007">
        <ele>122.8</ele>
        <time>2020-05-30T18:01:14Z</time>
      </trkpt>
      <trkpt lat="46.49433" lon="-0.01001">
        <ele>122.8</ele>
        <time>2020-05-30T18:01:15Z</time>
      </trkpt>
      <trkpt lat="46.49433" lon="-0.00995">
        <ele>122.8</ele>
        <time>2020-05-30T18:01:16Z</time>
      </trkpt>
      <trkpt lat="46.49432" lon="-0.00989">
        <ele>122.7</ele>
        <time>2020-05-30T18:01:17Z</time>
      </trkpt>
      <trkpt lat="46.49432" lon="-0.00981">
        <ele>122.7</ele>
        <time>2020-05-30T18:01:18Z</time>
      </trkpt>
      <trkpt lat="46.49431" lon="-0.00975">
        <ele>122.7</ele>
        <time>2020-05-30T18:01:19Z</time>
      </trkpt>
      <trkpt lat="46.4943" lon="-0.00968">
        <ele>122.6</ele>
        <time>2020-05-30T18:01:20Z</time>
      </trkpt>
      <trkpt lat="46.4943" lon="-0.00961">
        <ele>122.6</ele>
        <time>2020-05-30T18:01:21Z</time>
      </trkpt>
      <trkpt lat="46.49429" lon="-0.00954">
        <ele>122.6</ele>
        <time>2020-05-30T18:01:22Z</time>
      </trkpt>
      <trkpt lat="46.49427" lon="-0.00947">
        <ele>122.5</ele>
        <time>2020-05-30T18:01:23Z</time>
      </trkpt>
      <trkpt lat="46.49426" lon="-0.0094">
        <ele>122.5</ele>
        <time>2020-05-30T18:01:24Z</time>
      </trkpt>
      <trkpt lat="46.49424" lon="-0.00933">
        <ele>122.5</ele>
        <time>2020-05-30T18:01:25Z</time>
      </trkpt>
      <trkpt lat="46.49422" lon="-0.00927">
        <ele>122.5</ele>
        <time>2020-05-30T18:01:26Z</time>
      </trkpt>
      <trkpt lat="46.49419" lon="-0.00921">
        <ele>122.5</ele>
        <time>2020-05-30T18:01:27Z</time>
      </trkpt>
      <trkpt lat="46.49417" lon="-0.00915">
        <ele>122.5</ele>
        <time>2020-05-30T18:01:28Z</time>
      </trkpt>
      <trkpt lat="46.49415" lon="-0.00908">
        <ele>122.5</ele>
        <time>2020-05-30T18:01:29Z</time>
      </trkpt>
      <trkpt lat="46.49412" lon="-0.00902">
        <ele>122.6</ele>
        <time>2020-05-30T18:01:30Z</time>
      </trkpt>
      <trkpt lat="46.49411" lon="-0.00894">
        <ele>122.7</ele>
        <time>2020-05-30T18:01:31Z</time>
      </trkpt>
      <trkpt lat="46.49409" lon="-0.00888">
        <ele>122.8</ele>
        <time>2020-05-30T18:01:32Z</time>
      </trkpt>
      <trkpt lat="46.49407" lon="-0.00883">
        <ele>122.9</ele>
        <time>2020-05-30T18:01:33Z</time>
      </trkpt>
      <trkpt lat="46.49406" lon="-0.00878">
        <ele>123</ele>
        <time>2020-05-30T18:01:34Z</time>
      </trkpt>
      <trkpt lat="46.49404" lon="-0.00874">
        <ele>123</ele>
        <time>2020-05-30T18:01:35Z</time>
      </trkpt>
      <trkpt lat="46.49403" lon="-0.00873">
        <ele>123</ele>
        <time>2020-05-30T18:01:36Z</time>
      </trkpt>
      <trkpt lat="46.49402" lon="-0.00872">
        <ele>122.9</ele>
        <time>2020-05-30T18:01:37Z</time>
      </trkpt>
      <trkpt lat="46.49402" lon="-0.00871">
        <ele>122.9</ele>
        <time>2020-05-30T18:01:38Z</time>
      </trkpt>
      <trkpt lat="46.49402" lon="-0.00871">
        <ele>122.9</ele>
        <time>2020-05-30T18:01:39Z</time>
      </trkpt>
      <trkpt lat="46.49402" lon="-0.0087">
        <ele>122.9</ele>
        <time>2020-05-30T18:01:40Z</time>
      </trkpt>
      <trkpt lat="46.49402" lon="-0.00872">
        <ele>122.9</ele>
        <time>2020-05-30T18:01:41Z</time>
      </trkpt>
      <trkpt lat="46.49402" lon="-0.00872">
        <ele>122.9</ele>
        <time>2020-05-30T18:01:42Z</time>
      </trkpt>
      <trkpt lat="46.49401" lon="-0.00872">
        <ele>122.9</ele>
        <time>2020-05-30T18:01:43Z</time>
      </trkpt>
      <trkpt lat="46.49401" lon="-0.00873">
        <ele>122.9</ele>
        <time>2020-05-30T18:01:44Z</time>
      </trkpt>
      <trkpt lat="46.49402" lon="-0.00872">
        <ele>122.9</ele>
        <time>2020-05-30T18:01:45Z</time>
      </trkpt>
      <trkpt lat="46.49402" lon="-0.00872">
        <ele>122.9</ele>
        <time>2020-05-30T18:01:46Z</time>
      </trkpt>
      <trkpt lat="46.49402" lon="-0.00874">
        <ele>122.9</ele>
        <time>2020-05-30T18:01:47Z</time>
      </trkpt>
      <trkpt lat="46.49401" lon="-0.00873">
        <ele>122.9</ele>
        <time>2020-05-30T18:01:48Z</time>
      </trkpt>
      <trkpt lat="46.49401" lon="-0.00875">
        <ele>122.9</ele>
        <time>2020-05-30T18:01:49Z</time>
      </trkpt>
      <trkpt lat="46.49402" lon="-0.00873">
        <ele>122.9</ele>
        <time>2020-05-30T18:01:50Z</time>
      </trkpt>
      <trkpt lat="46.49402" lon="-0.00874">
        <ele>122.9</ele>
        <time>2020-05-30T18:01:51Z</time>
      </trkpt>
      <trkpt lat="46.49403" lon="-0.00874">
        <ele>122.9</ele>
        <time>2020-05-30T18:01:52Z</time>
      </trkpt>
      <trkpt lat="46.49403" lon="-0.00874">
        <ele>122.9</ele>
        <time>2020-05-30T18:01:53Z</time>
      </trkpt>
      <trkpt lat="46.49403" lon="-0.00874">
        <ele>122.9</ele>
        <time>2020-05-30T18:01:54Z</time>
      </trkpt>
      <trkpt lat="46.49403" lon="-0.00874">
        <ele>122.9</ele>
        <time>2020-05-30T18:01:55Z</time>
      </trkpt>
      <trkpt lat="46.49403" lon="-0.00874">
        <ele>122.9</ele>
        <time>2020-05-30T18:01:56Z</time>
      </trkpt>
      <trkpt lat="46.49403" lon="-0.00874">
        <ele>122.9</ele>
        <time>2020-05-30T18:01:57Z</time>
      </trkpt>
      <trkpt lat="46.49403" lon="-0.00874">
        <ele>122.9</ele>
        <time>2020-05-30T18:01:58Z</time>
      </trkpt>
      <trkpt lat="46.49403" lon="-0.00874">
        <ele>122.9</ele>
        <time>2020-05-30T18:01:59Z</time>
      </trkpt>
      <trkpt lat="46.49403" lon="-0.00874">
        <ele>122.9</ele>
        <time>2020-05-30T18:02:00Z</time>
      </trkpt>
      <trkpt lat="46.49403" lon="-0.00874">
        <ele>122.9</ele>
        <time>2020-05-30T18:02:01Z</time>
      </trkpt>
      <trkpt lat="46.49403" lon="-0.00874">
        <ele>122.9</ele>
        <time>2020-05-30T18:02:02Z</time>
      </trkpt>
      <trkpt lat="46.49403" lon="-0.00874">
        <ele>122.9</ele>
        <time>2020-05-30T18:02:03Z</time>
      </trkpt>
      <trkpt lat="46.49403" lon="-0.00874">
        <ele>122.9</ele>
        <time>2020-05-30T18:02:04Z</time>
      </trkpt>
      <trkpt lat="46.49403" lon="-0.00874">
        <ele>122.9</ele>
        <time>2020-05-30T18:02:05Z</time>
      </trkpt>
      <trkpt lat="46.49403" lon="-0.00874">
        <ele>122.9</ele>
        <time>2020-05-30T18:02:06Z</time>
      </trkpt>
      <trkpt lat="46.49403" lon="-0.00874">
        <ele>122.9</ele>
        <time>2020-05-30T18:02:07Z</time>
      </trkpt>
      <trkpt lat="46.49403" lon="-0.00874">
        <ele>122.9</ele>
        <time>2020-05-30T18:02:08Z</time>
      </trkpt>
      <trkpt lat="46.49403" lon="-0.00874">
        <ele>122.9</ele>
        <time>2020-05-30T18:02:09Z</time>
      </trkpt>
      <trkpt lat="46.49403" lon="-0.00874">
        <ele>122.9</ele>
        <time>2020-05-30T18:02:10Z</time>
      </trkpt>
      <trkpt lat="46.49403" lon="-0.00874">
        <ele>122.9</ele>
        <time>2020-05-30T18:02:11Z</time>
      </trkpt>
      <trkpt lat="46.49403" lon="-0.00874">
        <ele>122.9</ele>
        <time>2020-05-30T18:02:12Z</time>
      </trkpt>
      <trkpt lat="46.49403" lon="-0.00874">
        <ele>122.9</ele>
        <time>2020-05-30T18:02:13Z</time>
      </trkpt>
      <trkpt lat="46.49403" lon="-0.00874">
        <ele>122.9</ele>
        <time>2020-05-30T18:02:14Z</time>
      </trkpt>
      <trkpt lat="46.49403" lon="-0.00874">
        <ele>122.9</ele>
        <time>2020-05-30T18:02:15Z</time>
      </trkpt>
      <trkpt lat="46.49403" lon="-0.00874">
        <ele>122.9</ele>
        <time>2020-05-30T18:02:16Z</time>
      </trkpt>
      <trkpt lat="46.49403" lon="-0.00874">
        <ele>122.9</ele>
        <time>2020-05-30T18:02:17Z</time>
      </trkpt>
      <trkpt lat="46.49403" lon="-0.00874">
        <ele>122.9</ele>
        <time>2020-05-30T18:02:18Z</time>
      </trkpt>
      <trkpt lat="46.49403" lon="-0.00874">
        <ele>122.9</ele>
        <time>2020-05-30T18:02:19Z</time>
      </trkpt>
      <trkpt lat="46.49403" lon="-0.00874">
        <ele>122.9</ele>
        <time>2020-05-30T18:02:20Z</time>
      </trkpt>
      <trkpt lat="46.49403" lon="-0.00874">
        <ele>122.9</ele>
        <time>2020-05-30T18:02:21Z</time>
      </trkpt>
      <trkpt lat="46.49403" lon="-0.00874">
        <ele>122.9</ele>
        <time>2020-05-30T18:02:22Z</time>
      </trkpt>
      <trkpt lat="46.49403" lon="-0.00874">
        <ele>122.9</ele>
        <time>2020-05-30T18:02:23Z</time>
      </trkpt>
      <trkpt lat="46.49403" lon="-0.00874">
        <ele>122.9</ele>
        <time>2020-05-30T18:02:24Z</time>
      </trkpt>
      <trkpt lat="46.49403" lon="-0.00874">
        <ele>122.9</ele>
        <time>2020-05-30T18:02:25Z</time>
      </trkpt>
      <trkpt lat="46.49403" lon="-0.00874">
        <ele>122.9</ele>
        <time>2020-05-30T18:02:26Z</time>
      </trkpt>
      <trkpt lat="46.49403" lon="-0.00874">
        <ele>122.9</ele>
        <time>2020-05-30T18:02:27Z</time>
      </trkpt>
      <trkpt lat="46.49403" lon="-0.00874">
        <ele>122.9</ele>
        <time>2020-05-30T18:02:28Z</time>
      </trkpt>
      <trkpt lat="46.49403" lon="-0.00874">
        <ele>122.9</ele>
        <time>2020-05-30T18:02:29Z</time>
      </trkpt>
      <trkpt lat="46.49403" lon="-0.00874">
        <ele>122.9</ele>
        <time>2020-05-30T18:02:30Z</time>
      </trkpt>
      <trkpt lat="46.49403" lon="-0.00874">
        <ele>122.9</ele>
        <time>2020-05-30T18:02:31Z</time>
      </trkpt>
      <trkpt lat="46.49403" lon="-0.00874">
        <ele>122.9</ele>
        <time>2020-05-30T18:02:32Z</time>
      </trkpt>
      <trkpt lat="46.49403" lon="-0.00874">
        <ele>122.9</ele>
        <time>2020-05-30T18:02:33Z</time>
      </trkpt>
      <trkpt lat="46.49403" lon="-0.00874">
        <ele>122.9</ele>
        <time>2020-05-30T18:02:34Z</time>
      </trkpt>
      <trkpt lat="46.49403" lon="-0.00874">
        <ele>122.9</ele>
        <time>2020-05-30T18:02:35Z</time>
      </trkpt>
      <trkpt lat="46.49403" lon="-0.00874">
        <ele>122.9</ele>
        <time>2020-05-30T18:02:36Z</time>
      </trkpt>
      <trkpt lat="46.49403" lon="-0.00874">
        <ele>122.9</ele>
        <time>2020-05-30T18:02:37Z</time>
      </trkpt>
      <trkpt lat="46.49403" lon="-0.00874">
        <ele>122.9</ele>
        <time>2020-05-30T18:02:38Z</time>
      </trkpt>
      <trkpt lat="46.49403" lon="-0.00874">
        <ele>122.9</ele>
        <time>2020-05-30T18:02:39Z</time>
      </trkpt>
      <trkpt lat="46.49403" lon="-0.00874">
        <ele>122.9</ele>
        <time>2020-05-30T18:02:40Z</time>
      </trkpt>
      <trkpt lat="46.49403" lon="-0.00874">
        <ele>122.9</ele>
        <time>2020-05-30T18:02:41Z</time>
      </trkpt>
      <trkpt lat="46.49402" lon="-0.00872">
        <ele>122.9</ele>
        <time>2020-05-30T18:02:42Z</time>
      </trkpt>
      <trkpt lat="46.49402" lon="-0.00872">
        <ele>122.9</ele>
        <time>2020-05-30T18:02:43Z</time>
      </trkpt>
      <trkpt lat="46.49402" lon="-0.00871">
        <ele>122.9</ele>
        <time>2020-05-30T18:02:44Z</time>
      </trkpt>
      <trkpt lat="46.49402" lon="-0.00871">
        <ele>122.9</ele>
        <time>2020-05-30T18:02:45Z</time>
      </trkpt>
      <trkpt lat="46.49402" lon="-0.00872">
        <ele>122.9</ele>
        <time>2020-05-30T18:02:46Z</time>
      </trkpt>
      <trkpt lat="46.49402" lon="-0.00871">
        <ele>122.8</ele>
        <time>2020-05-30T18:02:47Z</time>
      </trkpt>
      <trkpt lat="46.49402" lon="-0.00871">
        <ele>122.8</ele>
        <time>2020-05-30T18:02:48Z</time>
      </trkpt>
      <trkpt lat="46.49401" lon="-0.00871">
        <ele>122.8</ele>
        <time>2020-05-30T18:02:49Z</time>
      </trkpt>
      <trkpt lat="46.49402" lon="-0.00871">
        <ele>122.8</ele>
        <time>2020-05-30T18:02:50Z</time>
      </trkpt>
      <trkpt lat="46.494" lon="-0.00874">
        <ele>122.8</ele>
        <time>2020-05-30T18:02:51Z</time>
      </trkpt>
      <trkpt lat="46.49401" lon="-0.00876">
        <ele>122.8</ele>
        <time>2020-05-30T18:02:52Z</time>
      </trkpt>
      <trkpt lat="46.49401" lon="-0.00877">
        <ele>122.8</ele>
        <time>2020-05-30T18:02:53Z</time>
      </trkpt>
      <trkpt lat="46.49401" lon="-0.00879">
        <ele>122.8</ele>
        <time>2020-05-30T18:02:54Z</time>
      </trkpt>
      <trkpt lat="46.49401" lon="-0.00883">
        <ele>122.8</ele>
        <time>2020-05-30T18:02:55Z</time>
      </trkpt>
      <trkpt lat="46.49401" lon="-0.00883">
        <ele>122.8</ele>
        <time>2020-05-30T18:02:56Z</time>
      </trkpt>
      <trkpt lat="46.49401" lon="-0.00882">
        <ele>122.8</ele>
        <time>2020-05-30T18:02:57Z</time>
      </trkpt>
      <trkpt lat="46.49402" lon="-0.00879">
        <ele>122.8</ele>
        <time>2020-05-30T18:02:58Z</time>
      </trkpt>
      <trkpt lat="46.49401" lon="-0.00879">
        <ele>122.8</ele>
        <time>2020-05-30T18:02:59Z</time>
      </trkpt>
      <trkpt lat="46.49402" lon="-0.00879">
        <ele>122.8</ele>
        <time>2020-05-30T18:03:00Z</time>
      </trkpt>
      <trkpt lat="46.49401" lon="-0.0088">
        <ele>122.8</ele>
        <time>2020-05-30T18:03:01Z</time>
      </trkpt>
      <trkpt lat="46.49401" lon="-0.0088">
        <ele>122.7</ele>
        <time>2020-05-30T18:03:02Z</time>
      </trkpt>
      <trkpt lat="46.49401" lon="-0.00881">
        <ele>122.7</ele>
        <time>2020-05-30T18:03:03Z</time>
      </trkpt>
      <trkpt lat="46.49401" lon="-0.00879">
        <ele>122.7</ele>
        <time>2020-05-30T18:03:04Z</time>
      </trkpt>
      <trkpt lat="46.49401" lon="-0.0088">
        <ele>122.7</ele>
        <time>2020-05-30T18:03:05Z</time>
      </trkpt>
      <trkpt lat="46.49401" lon="-0.0088">
        <ele>122.7</ele>
        <time>2020-05-30T18:03:06Z</time>
      </trkpt>
      <trkpt lat="46.49401" lon="-0.00879">
        <ele>122.7</ele>
        <time>2020-05-30T18:03:07Z</time>
      </trkpt>
      <trkpt lat="46.49401" lon="-0.00878">
        <ele>122.7</ele>
        <time>2020-05-30T18:03:08Z</time>
      </trkpt>
      <trkpt lat="46.49401" lon="-0.00878">
        <ele>122.7</ele>
        <time>2020-05-30T18:03:09Z</time>
      </trkpt>
      <trkpt lat="46.49401" lon="-0.00878">
        <ele>122.7</ele>
        <time>2020-05-30T18:03:10Z</time>
      </trkpt>
      <trkpt lat="46.49401" lon="-0.00878">
        <ele>122.7</ele>
        <time>2020-05-30T18:03:11Z</time>
      </trkpt>
      <trkpt lat="46.49401" lon="-0.00879">
        <ele>122.7</ele>
        <time>2020-05-30T18:03:12Z</time>
      </trkpt>
      <trkpt lat="46.49402" lon="-0.0088">
        <ele>122.7</ele>
        <time>2020-05-30T18:03:13Z</time>
      </trkpt>
      <trkpt lat="46.49402" lon="-0.0088">
        <ele>122.7</ele>
        <time>2020-05-30T18:03:14Z</time>
      </trkpt>
      <trkpt lat="46.49402" lon="-0.00884">
        <ele>122.7</ele>
        <time>2020-05-30T18:03:15Z</time>
      </trkpt>
      <trkpt lat="46.49403" lon="-0.00886">
        <ele>122.7</ele>
        <time>2020-05-30T18:03:16Z</time>
      </trkpt>
      <trkpt lat="46.49402" lon="-0.00887">
        <ele>122.7</ele>
        <time>2020-05-30T18:03:17Z</time>
      </trkpt>
      <trkpt lat="46.49403" lon="-0.00888">
        <ele>122.7</ele>
        <time>2020-05-30T18:03:18Z</time>
      </trkpt>
      <trkpt lat="46.49404" lon="-0.00892">
        <ele>122.7</ele>
        <time>2020-05-30T18:03:19Z</time>
      </trkpt>
      <trkpt lat="46.49404" lon="-0.00894">
        <ele>122.6</ele>
        <time>2020-05-30T18:03:20Z</time>
      </trkpt>
      <trkpt lat="46.49406" lon="-0.00899">
        <ele>122.6</ele>
        <time>2020-05-30T18:03:21Z</time>
      </trkpt>
      <trkpt lat="46.49406" lon="-0.00902">
        <ele>122.6</ele>
        <time>2020-05-30T18:03:22Z</time>
      </trkpt>
      <trkpt lat="46.49407" lon="-0.00906">
        <ele>122.6</ele>
        <time>2020-05-30T18:03:23Z</time>
      </trkpt>
      <trkpt lat="46.49409" lon="-0.00912">
        <ele>122.5</ele>
        <time>2020-05-30T18:03:24Z</time>
      </trkpt>
      <trkpt lat="46.49411" lon="-0.00916">
        <ele>122.5</ele>
        <time>2020-05-30T18:03:25Z</time>
      </trkpt>
      <trkpt lat="46.49413" lon="-0.00921">
        <ele>122.5</ele>
        <time>2020-05-30T18:03:26Z</time>
      </trkpt>
      <trkpt lat="46.49414" lon="-0.00927">
        <ele>122.5</ele>
        <time>2020-05-30T18:03:27Z</time>
      </trkpt>
      <trkpt lat="46.49415" lon="-0.00931">
        <ele>122.5</ele>
        <time>2020-05-30T18:03:28Z</time>
      </trkpt>
      <trkpt lat="46.49418" lon="-0.00939">
        <ele>122.5</ele>
        <time>2020-05-30T18:03:29Z</time>
      </trkpt>
      <trkpt lat="46.4942" lon="-0.00945">
        <ele>122.5</ele>
        <time>2020-05-30T18:03:30Z</time>
      </trkpt>
      <trkpt lat="46.49422" lon="-0.00951">
        <ele>122.5</ele>
        <time>2020-05-30T18:03:31Z</time>
      </trkpt>
      <trkpt lat="46.49424" lon="-0.00957">
        <ele>122.6</ele>
        <time>2020-05-30T18:03:32Z</time>
      </trkpt>
      <trkpt lat="46.49426" lon="-0.00963">
        <ele>122.6</ele>
        <time>2020-05-30T18:03:33Z</time>
      </trkpt>
      <trkpt lat="46.49427" lon="-0.0097">
        <ele>122.6</ele>
        <time>2020-05-30T18:03:34Z</time>
      </trkpt>
      <trkpt lat="46.49428" lon="-0.00977">
        <ele>122.7</ele>
        <time>2020-05-30T18:03:35Z</time>
      </trkpt>
      <trkpt lat="46.49429" lon="-0.00984">
        <ele>122.7</ele>
        <time>2020-05-30T18:03:36Z</time>
      </trkpt>
      <trkpt lat="46.49429" lon="-0.00991">
        <ele>122.8</ele>
        <time>2020-05-30T18:03:37Z</time>
      </trkpt>
      <trkpt lat="46.4943" lon="-0.00996">
        <ele>122.8</ele>
        <time>2020-05-30T18:03:38Z</time>
      </trkpt>
      <trkpt lat="46.49431" lon="-0.01">
        <ele>122.8</ele>
        <time>2020-05-30T18:03:39Z</time>
      </trkpt>
      <trkpt lat="46.49432" lon="-0.01008">
        <ele>122.8</ele>
        <time>2020-05-30T18:03:40Z</time>
      </trkpt>
      <trkpt lat="46.49432" lon="-0.01015">
        <ele>122.9</ele>
        <time>2020-05-30T18:03:41Z</time>
      </trkpt>
      <trkpt lat="46.49432" lon="-0.01023">
        <ele>122.9</ele>
        <time>2020-05-30T18:03:42Z</time>
      </trkpt>
      <trkpt lat="46.49433" lon="-0.0103">
        <ele>122.9</ele>
        <time>2020-05-30T18:03:43Z</time>
      </trkpt>
      <trkpt lat="46.49433" lon="-0.01039">
        <ele>122.9</ele>
        <time>2020-05-30T18:03:44Z</time>
      </trkpt>
      <trkpt lat="46.49433" lon="-0.01046">
        <ele>123</ele>
        <time>2020-05-30T18:03:45Z</time>
      </trkpt>
      <trkpt lat="46.49433" lon="-0.01055">
        <ele>123</ele>
        <time>2020-05-30T18:03:46Z</time>
      </trkpt>
      <trkpt lat="46.49433" lon="-0.01063">
        <ele>123.1</ele>
        <time>2020-05-30T18:03:47Z</time>
      </trkpt>
      <trkpt lat="46.49435" lon="-0.0107">
        <ele>123.2</ele>
        <time>2020-05-30T18:03:48Z</time>
      </trkpt>
      <trkpt lat="46.49436" lon="-0.01076">
        <ele>123.2</ele>
        <time>2020-05-30T18:03:49Z</time>
      </trkpt>
      <trkpt lat="46.49438" lon="-0.01084">
        <ele>123.4</ele>
        <time>2020-05-30T18:03:50Z</time>
      </trkpt>
      <trkpt lat="46.4944" lon="-0.0109">
        <ele>123.5</ele>
        <time>2020-05-30T18:03:51Z</time>
      </trkpt>
      <trkpt lat="46.4944" lon="-0.01095">
        <ele>123.5</ele>
        <time>2020-05-30T18:03:52Z</time>
      </trkpt>
      <trkpt lat="46.49442" lon="-0.01101">
        <ele>123.7</ele>
        <time>2020-05-30T18:03:53Z</time>
      </trkpt>
      <trkpt lat="46.49444" lon="-0.01107">
        <ele>123.8</ele>
        <time>2020-05-30T18:03:54Z</time>
      </trkpt>
      <trkpt lat="46.49446" lon="-0.01112">
        <ele>123.9</ele>
        <time>2020-05-30T18:03:55Z</time>
      </trkpt>
      <trkpt lat="46.49447" lon="-0.01119">
        <ele>124</ele>
        <time>2020-05-30T18:03:56Z</time>
      </trkpt>
      <trkpt lat="46.49448" lon="-0.01125">
        <ele>124.1</ele>
        <time>2020-05-30T18:03:57Z</time>
      </trkpt>
      <trkpt lat="46.4945" lon="-0.01132">
        <ele>124.2</ele>
        <time>2020-05-30T18:03:58Z</time>
      </trkpt>
      <trkpt lat="46.49451" lon="-0.01135">
        <ele>124.3</ele>
        <time>2020-05-30T18:03:59Z</time>
      </trkpt>
      <trkpt lat="46.49453" lon="-0.0114">
        <ele>124.3</ele>
        <time>2020-05-30T18:04:00Z</time>
      </trkpt>
      <trkpt lat="46.49455" lon="-0.01145">
        <ele>124.4</ele>
        <time>2020-05-30T18:04:01Z</time>
      </trkpt>
      <trkpt lat="46.49456" lon="-0.0115">
        <ele>124.5</ele>
        <time>2020-05-30T18:04:02Z</time>
      </trkpt>
      <trkpt lat="46.49457" lon="-0.01156">
        <ele>124.6</ele>
        <time>2020-05-30T18:04:03Z</time>
      </trkpt>
      <trkpt lat="46.49458" lon="-0.01164">
        <ele>124.6</ele>
        <time>2020-05-30T18:04:04Z</time>
      </trkpt>
      <trkpt lat="46.49458" lon="-0.01168">
        <ele>124.7</ele>
        <time>2020-05-30T18:04:05Z</time>
      </trkpt>
      <trkpt lat="46.4946" lon="-0.01174">
        <ele>124.7</ele>
        <time>2020-05-30T18:04:06Z</time>
      </trkpt>
      <trkpt lat="46.49461" lon="-0.0118">
        <ele>124.8</ele>
        <time>2020-05-30T18:04:07Z</time>
      </trkpt>
      <trkpt lat="46.49462" lon="-0.01186">
        <ele>124.8</ele>
        <time>2020-05-30T18:04:08Z</time>
      </trkpt>
      <trkpt lat="46.49464" lon="-0.01191">
        <ele>124.8</ele>
        <time>2020-05-30T18:04:09Z</time>
      </trkpt>
      <trkpt lat="46.49463" lon="-0.01196">
        <ele>124.8</ele>
        <time>2020-05-30T18:04:10Z</time>
      </trkpt>
      <trkpt lat="46.49461" lon="-0.012">
        <ele>124.8</ele>
        <time>2020-05-30T18:04:11Z</time>
      </trkpt>
      <trkpt lat="46.4946" lon="-0.01205">
        <ele>124.8</ele>
        <time>2020-05-30T18:04:12Z</time>
      </trkpt>
      <trkpt lat="46.4946" lon="-0.01212">
        <ele>124.8</ele>
        <time>2020-05-30T18:04:13Z</time>
      </trkpt>
      <trkpt lat="46.49459" lon="-0.01219">
        <ele>124.8</ele>
        <time>2020-05-30T18:04:14Z</time>
      </trkpt>
      <trkpt lat="46.49457" lon="-0.01225">
        <ele>124.8</ele>
        <time>2020-05-30T18:04:15Z</time>
      </trkpt>
      <trkpt lat="46.49457" lon="-0.01232">
        <ele>124.8</ele>
        <time>2020-05-30T18:04:16Z</time>
      </trkpt>
      <trkpt lat="46.49458" lon="-0.01236">
        <ele>124.8</ele>
        <time>2020-05-30T18:04:17Z</time>
      </trkpt>
      <trkpt lat="46.49458" lon="-0.01241">
        <ele>124.8</ele>
        <time>2020-05-30T18:04:18Z</time>
      </trkpt>
      <trkpt lat="46.49457" lon="-0.01246">
        <ele>124.8</ele>
        <time>2020-05-30T18:04:19Z</time>
      </trkpt>
      <trkpt lat="46.49457" lon="-0.01252">
        <ele>124.8</ele>
        <time>2020-05-30T18:04:20Z</time>
      </trkpt>
      <trkpt lat="46.49457" lon="-0.01258">
        <ele>124.8</ele>
        <time>2020-05-30T18:04:21Z</time>
      </trkpt>
      <trkpt lat="46.49458" lon="-0.01264">
        <ele>124.8</ele>
        <time>2020-05-30T18:04:22Z</time>
      </trkpt>
      <trkpt lat="46.49458" lon="-0.0127">
        <ele>124.8</ele>
        <time>2020-05-30T18:04:23Z</time>
      </trkpt>
      <trkpt lat="46.49459" lon="-0.01276">
        <ele>124.8</ele>
        <time>2020-05-30T18:04:24Z</time>
      </trkpt>
      <trkpt lat="46.4946" lon="-0.01281">
        <ele>124.8</ele>
        <time>2020-05-30T18:04:25Z</time>
      </trkpt>
      <trkpt lat="46.4946" lon="-0.01288">
        <ele>124.8</ele>
        <time>2020-05-30T18:04:26Z</time>
      </trkpt>
      <trkpt lat="46.4946" lon="-0.01295">
        <ele>124.8</ele>
        <time>2020-05-30T18:04:27Z</time>
      </trkpt>
      <trkpt lat="46.49461" lon="-0.01301">
        <ele>124.9</ele>
        <time>2020-05-30T18:04:28Z</time>
      </trkpt>
      <trkpt lat="46.49461" lon="-0.01307">
        <ele>124.9</ele>
        <time>2020-05-30T18:04:29Z</time>
      </trkpt>
      <trkpt lat="46.49462" lon="-0.01312">
        <ele>124.9</ele>
        <time>2020-05-30T18:04:30Z</time>
      </trkpt>
      <trkpt lat="46.49461" lon="-0.01318">
        <ele>124.9</ele>
        <time>2020-05-30T18:04:31Z</time>
      </trkpt>
      <trkpt lat="46.49461" lon="-0.01324">
        <ele>125</ele>
        <time>2020-05-30T18:04:32Z</time>
      </trkpt>
      <trkpt lat="46.49464" lon="-0.0133">
        <ele>125</ele>
        <time>2020-05-30T18:04:33Z</time>
      </trkpt>
      <trkpt lat="46.49464" lon="-0.01337">
        <ele>125.1</ele>
        <time>2020-05-30T18:04:34Z</time>
      </trkpt>
      <trkpt lat="46.49464" lon="-0.01345">
        <ele>125.1</ele>
        <time>2020-05-30T18:04:35Z</time>
      </trkpt>
      <trkpt lat="46.49465" lon="-0.01351">
        <ele>125.2</ele>
        <time>2020-05-30T18:04:36Z</time>
      </trkpt>
      <trkpt lat="46.49465" lon="-0.01358">
        <ele>125.2</ele>
        <time>2020-05-30T18:04:37Z</time>
      </trkpt>
      <trkpt lat="46.49467" lon="-0.01364">
        <ele>125.3</ele>
        <time>2020-05-30T18:04:38Z</time>
      </trkpt>
      <trkpt lat="46.49466" lon="-0.01371">
        <ele>125.3</ele>
        <time>2020-05-30T18:04:39Z</time>
      </trkpt>
      <trkpt lat="46.49467" lon="-0.01377">
        <ele>125.4</ele>
        <time>2020-05-30T18:04:40Z</time>
      </trkpt>
      <trkpt lat="46.49467" lon="-0.01381">
        <ele>125.4</ele>
        <time>2020-05-30T18:04:41Z</time>
      </trkpt>
      <trkpt lat="46.49468" lon="-0.01386">
        <ele>125.4</ele>
        <time>2020-05-30T18:04:42Z</time>
      </trkpt>
      <trkpt lat="46.49468" lon="-0.01392">
        <ele>125.5</ele>
        <time>2020-05-30T18:04:43Z</time>
      </trkpt>
      <trkpt lat="46.49468" lon="-0.01399">
        <ele>125.5</ele>
        <time>2020-05-30T18:04:44Z</time>
      </trkpt>
      <trkpt lat="46.49469" lon="-0.01404">
        <ele>125.5</ele>
        <time>2020-05-30T18:04:45Z</time>
      </trkpt>
      <trkpt lat="46.4947" lon="-0.0141">
        <ele>125.6</ele>
        <time>2020-05-30T18:04:46Z</time>
      </trkpt>
      <trkpt lat="46.49472" lon="-0.01416">
        <ele>125.6</ele>
        <time>2020-05-30T18:04:47Z</time>
      </trkpt>
      <trkpt lat="46.49473" lon="-0.01423">
        <ele>125.6</ele>
        <time>2020-05-30T18:04:48Z</time>
      </trkpt>
      <trkpt lat="46.49473" lon="-0.01431">
        <ele>125.7</ele>
        <time>2020-05-30T18:04:49Z</time>
      </trkpt>
      <trkpt lat="46.49473" lon="-0.01438">
        <ele>125.7</ele>
        <time>2020-05-30T18:04:50Z</time>
      </trkpt>
      <trkpt lat="46.49474" lon="-0.01443">
        <ele>125.8</ele>
        <time>2020-05-30T18:04:51Z</time>
      </trkpt>
      <trkpt lat="46.49475" lon="-0.0145">
        <ele>125.8</ele>
        <time>2020-05-30T18:04:52Z</time>
      </trkpt>
      <trkpt lat="46.49478" lon="-0.01456">
        <ele>125.8</ele>
        <time>2020-05-30T18:04:53Z</time>
      </trkpt>
      <trkpt lat="46.4948" lon="-0.01461">
        <ele>125.8</ele>
        <time>2020-05-30T18:04:54Z</time>
      </trkpt>
      <trkpt lat="46.49481" lon="-0.01467">
        <ele>125.9</ele>
        <time>2020-05-30T18:04:55Z</time>
      </trkpt>
      <trkpt lat="46.49483" lon="-0.01473">
        <ele>125.9</ele>
        <time>2020-05-30T18:04:56Z</time>
      </trkpt>
      <trkpt lat="46.49485" lon="-0.01479">
        <ele>125.9</ele>
        <time>2020-05-30T18:04:57Z</time>
      </trkpt>
      <trkpt lat="46.49486" lon="-0.01487">
        <ele>126</ele>
        <time>2020-05-30T18:04:58Z</time>
      </trkpt>
      <trkpt lat="46.49487" lon="-0.01494">
        <ele>126.1</ele>
        <time>2020-05-30T18:04:59Z</time>
      </trkpt>
      <trkpt lat="46.49489" lon="-0.01499">
        <ele>126.1</ele>
        <time>2020-05-30T18:05:00Z</time>
      </trkpt>
      <trkpt lat="46.4949" lon="-0.01505">
        <ele>126.2</ele>
        <time>2020-05-30T18:05:01Z</time>
      </trkpt>
      <trkpt lat="46.49491" lon="-0.01511">
        <ele>126.3</ele>
        <time>2020-05-30T18:05:02Z</time>
      </trkpt>
      <trkpt lat="46.49493" lon="-0.01517">
        <ele>126.3</ele>
        <time>2020-05-30T18:05:03Z</time>
      </trkpt>
      <trkpt lat="46.49494" lon="-0.01523">
        <ele>126.3</ele>
        <time>2020-05-30T18:05:04Z</time>
      </trkpt>
      <trkpt lat="46.49496" lon="-0.01528">
        <ele>126.4</ele>
        <time>2020-05-30T18:05:05Z</time>
      </trkpt>
      <trkpt lat="46.49498" lon="-0.01533">
        <ele>126.4</ele>
        <time>2020-05-30T18:05:06Z</time>
      </trkpt>
      <trkpt lat="46.49499" lon="-0.01539">
        <ele>126.4</ele>
        <time>2020-05-30T18:05:07Z</time>
      </trkpt>
      <trkpt lat="46.49501" lon="-0.01545">
        <ele>126.5</ele>
        <time>2020-05-30T18:05:08Z</time>
      </trkpt>
      <trkpt lat="46.49502" lon="-0.01553">
        <ele>126.5</ele>
        <time>2020-05-30T18:05:09Z</time>
      </trkpt>
      <trkpt lat="46.49502" lon="-0.0156">
        <ele>126.6</ele>
        <time>2020-05-30T18:05:10Z</time>
      </trkpt>
      <trkpt lat="46.49503" lon="-0.01567">
        <ele>126.6</ele>
        <time>2020-05-30T18:05:11Z</time>
      </trkpt>
      <trkpt lat="46.49505" lon="-0.01574">
        <ele>126.7</ele>
        <time>2020-05-30T18:05:12Z</time>
      </trkpt>
      <trkpt lat="46.49505" lon="-0.01581">
        <ele>126.8</ele>
        <time>2020-05-30T18:05:13Z</time>
      </trkpt>
      <trkpt lat="46.49505" lon="-0.01588">
        <ele>126.8</ele>
        <time>2020-05-30T18:05:14Z</time>
      </trkpt>
      <trkpt lat="46.49506" lon="-0.01595">
        <ele>126.9</ele>
        <time>2020-05-30T18:05:15Z</time>
      </trkpt>
      <trkpt lat="46.49506" lon="-0.01603">
        <ele>127</ele>
        <time>2020-05-30T18:05:16Z</time>
      </trkpt>
      <trkpt lat="46.49507" lon="-0.0161">
        <ele>127.2</ele>
        <time>2020-05-30T18:05:17Z</time>
      </trkpt>
      <trkpt lat="46.49508" lon="-0.01617">
        <ele>127.3</ele>
        <time>2020-05-30T18:05:18Z</time>
      </trkpt>
      <trkpt lat="46.49508" lon="-0.01624">
        <ele>127.4</ele>
        <time>2020-05-30T18:05:19Z</time>
      </trkpt>
      <trkpt lat="46.49508" lon="-0.01631">
        <ele>127.6</ele>
        <time>2020-05-30T18:05:20Z</time>
      </trkpt>
      <trkpt lat="46.49508" lon="-0.01639">
        <ele>127.7</ele>
        <time>2020-05-30T18:05:21Z</time>
      </trkpt>
      <trkpt lat="46.49507" lon="-0.01646">
        <ele>127.9</ele>
        <time>2020-05-30T18:05:22Z</time>
      </trkpt>
      <trkpt lat="46.49507" lon="-0.01653">
        <ele>128</ele>
        <time>2020-05-30T18:05:23Z</time>
      </trkpt>
      <trkpt lat="46.49507" lon="-0.01661">
        <ele>128.1</ele>
        <time>2020-05-30T18:05:24Z</time>
      </trkpt>
      <trkpt lat="46.49507" lon="-0.01669">
        <ele>128.2</ele>
        <time>2020-05-30T18:05:25Z</time>
      </trkpt>
      <trkpt lat="46.49506" lon="-0.01675">
        <ele>128.3</ele>
        <time>2020-05-30T18:05:26Z</time>
      </trkpt>
      <trkpt lat="46.49505" lon="-0.01683">
        <ele>128.4</ele>
        <time>2020-05-30T18:05:27Z</time>
      </trkpt>
      <trkpt lat="46.49504" lon="-0.0169">
        <ele>128.6</ele>
        <time>2020-05-30T18:05:28Z</time>
      </trkpt>
      <trkpt lat="46.49502" lon="-0.01697">
        <ele>128.7</ele>
        <time>2020-05-30T18:05:29Z</time>
      </trkpt>
      <trkpt lat="46.49501" lon="-0.01705">
        <ele>128.8</ele>
        <time>2020-05-30T18:05:30Z</time>
      </trkpt>
      <trkpt lat="46.495" lon="-0.0171">
        <ele>128.9</ele>
        <time>2020-05-30T18:05:31Z</time>
      </trkpt>
      <trkpt lat="46.49499" lon="-0.01717">
        <ele>129.1</ele>
        <time>2020-05-30T18:05:32Z</time>
      </trkpt>
      <trkpt lat="46.49497" lon="-0.01725">
        <ele>129.3</ele>
        <time>2020-05-30T18:05:33Z</time>
      </trkpt>
      <trkpt lat="46.49495" lon="-0.01732">
        <ele>129.4</ele>
        <time>2020-05-30T18:05:34Z</time>
      </trkpt>
      <trkpt lat="46.49493" lon="-0.0174">
        <ele>129.6</ele>
        <time>2020-05-30T18:05:35Z</time>
      </trkpt>
      <trkpt lat="46.4949" lon="-0.01745">
        <ele>129.8</ele>
        <time>2020-05-30T18:05:36Z</time>
      </trkpt>
      <trkpt lat="46.49487" lon="-0.0175">
        <ele>130</ele>
        <time>2020-05-30T18:05:37Z</time>
      </trkpt>
      <trkpt lat="46.49485" lon="-0.01754">
        <ele>130.1</ele>
        <time>2020-05-30T18:05:38Z</time>
      </trkpt>
      <trkpt lat="46.49483" lon="-0.01759">
        <ele>130.3</ele>
        <time>2020-05-30T18:05:39Z</time>
      </trkpt>
      <trkpt lat="46.49482" lon="-0.01765">
        <ele>130.5</ele>
        <time>2020-05-30T18:05:40Z</time>
      </trkpt>
      <trkpt lat="46.4948" lon="-0.0177">
        <ele>130.7</ele>
        <time>2020-05-30T18:05:41Z</time>
      </trkpt>
      <trkpt lat="46.49478" lon="-0.01775">
        <ele>130.9</ele>
        <time>2020-05-30T18:05:42Z</time>
      </trkpt>
      <trkpt lat="46.49476" lon="-0.01781">
        <ele>131.1</ele>
        <time>2020-05-30T18:05:43Z</time>
      </trkpt>
      <trkpt lat="46.49473" lon="-0.01786">
        <ele>131.3</ele>
        <time>2020-05-30T18:05:44Z</time>
      </trkpt>
      <trkpt lat="46.4947" lon="-0.01791">
        <ele>131.5</ele>
        <time>2020-05-30T18:05:45Z</time>
      </trkpt>
      <trkpt lat="46.49469" lon="-0.01797">
        <ele>131.7</ele>
        <time>2020-05-30T18:05:46Z</time>
      </trkpt>
      <trkpt lat="46.49468" lon="-0.01803">
        <ele>131.9</ele>
        <time>2020-05-30T18:05:47Z</time>
      </trkpt>
      <trkpt lat="46.49466" lon="-0.01809">
        <ele>132.2</ele>
        <time>2020-05-30T18:05:48Z</time>
      </trkpt>
      <trkpt lat="46.49465" lon="-0.01816">
        <ele>132.5</ele>
        <time>2020-05-30T18:05:49Z</time>
      </trkpt>
      <trkpt lat="46.49463" lon="-0.01822">
        <ele>132.7</ele>
        <time>2020-05-30T18:05:50Z</time>
      </trkpt>
      <trkpt lat="46.4946" lon="-0.01831">
        <ele>133.1</ele>
        <time>2020-05-30T18:05:51Z</time>
      </trkpt>
      <trkpt lat="46.49457" lon="-0.0184">
        <ele>133.5</ele>
        <time>2020-05-30T18:05:52Z</time>
      </trkpt>
      <trkpt lat="46.49455" lon="-0.01848">
        <ele>133.9</ele>
        <time>2020-05-30T18:05:53Z</time>
      </trkpt>
      <trkpt lat="46.49453" lon="-0.01856">
        <ele>134.3</ele>
        <time>2020-05-30T18:05:54Z</time>
      </trkpt>
      <trkpt lat="46.49451" lon="-0.01863">
        <ele>134.6</ele>
        <time>2020-05-30T18:05:55Z</time>
      </trkpt>
      <trkpt lat="46.49448" lon="-0.01873">
        <ele>135</ele>
        <time>2020-05-30T18:05:56Z</time>
      </trkpt>
      <trkpt lat="46.49448" lon="-0.01881">
        <ele>135.4</ele>
        <time>2020-05-30T18:05:57Z</time>
      </trkpt>
      <trkpt lat="46.49447" lon="-0.01889">
        <ele>135.7</ele>
        <time>2020-05-30T18:05:58Z</time>
      </trkpt>
      <trkpt lat="46.49445" lon="-0.01897">
        <ele>135.9</ele>
        <time>2020-05-30T18:05:59Z</time>
      </trkpt>
      <trkpt lat="46.49443" lon="-0.01904">
        <ele>136.2</ele>
        <time>2020-05-30T18:06:00Z</time>
      </trkpt>
      <trkpt lat="46.49441" lon="-0.0191">
        <ele>136.3</ele>
        <time>2020-05-30T18:06:01Z</time>
      </trkpt>
      <trkpt lat="46.49439" lon="-0.01917">
        <ele>136.5</ele>
        <time>2020-05-30T18:06:02Z</time>
      </trkpt>
      <trkpt lat="46.49438" lon="-0.01923">
        <ele>136.6</ele>
        <time>2020-05-30T18:06:03Z</time>
      </trkpt>
      <trkpt lat="46.49437" lon="-0.01928">
        <ele>136.7</ele>
        <time>2020-05-30T18:06:04Z</time>
      </trkpt>
      <trkpt lat="46.49436" lon="-0.01934">
        <ele>136.8</ele>
        <time>2020-05-30T18:06:05Z</time>
      </trkpt>
      <trkpt lat="46.49435" lon="-0.0194">
        <ele>136.9</ele>
        <time>2020-05-30T18:06:06Z</time>
      </trkpt>
      <trkpt lat="46.49433" lon="-0.01945">
        <ele>137.1</ele>
        <time>2020-05-30T18:06:07Z</time>
      </trkpt>
      <trkpt lat="46.49432" lon="-0.01951">
        <ele>137.2</ele>
        <time>2020-05-30T18:06:08Z</time>
      </trkpt>
      <trkpt lat="46.4943" lon="-0.01955">
        <ele>137.3</ele>
        <time>2020-05-30T18:06:09Z</time>
      </trkpt>
      <trkpt lat="46.49428" lon="-0.01959">
        <ele>137.5</ele>
        <time>2020-05-30T18:06:10Z</time>
      </trkpt>
      <trkpt lat="46.49426" lon="-0.01963">
        <ele>137.6</ele>
        <time>2020-05-30T18:06:11Z</time>
      </trkpt>
      <trkpt lat="46.49424" lon="-0.01968">
        <ele>137.7</ele>
        <time>2020-05-30T18:06:12Z</time>
      </trkpt>
      <trkpt lat="46.49422" lon="-0.01972">
        <ele>137.8</ele>
        <time>2020-05-30T18:06:13Z</time>
      </trkpt>
      <trkpt lat="46.49422" lon="-0.01976">
        <ele>137.9</ele>
        <time>2020-05-30T18:06:14Z</time>
      </trkpt>
      <trkpt lat="46.49421" lon="-0.01982">
        <ele>138.1</ele>
        <time>2020-05-30T18:06:15Z</time>
      </trkpt>
      <trkpt lat="46.4942" lon="-0.01986">
        <ele>138.2</ele>
        <time>2020-05-30T18:06:16Z</time>
      </trkpt>
      <trkpt lat="46.49418" lon="-0.01992">
        <ele>138.3</ele>
        <time>2020-05-30T18:06:17Z</time>
      </trkpt>
      <trkpt lat="46.49417" lon="-0.01997">
        <ele>138.4</ele>
        <time>2020-05-30T18:06:18Z</time>
      </trkpt>
      <trkpt lat="46.49415" lon="-0.02003">
        <ele>138.5</ele>
        <time>2020-05-30T18:06:19Z</time>
      </trkpt>
      <trkpt lat="46.49414" lon="-0.02008">
        <ele>138.6</ele>
        <time>2020-05-30T18:06:20Z</time>
      </trkpt>
      <trkpt lat="46.49412" lon="-0.02012">
        <ele>138.7</ele>
        <time>2020-05-30T18:06:21Z</time>
      </trkpt>
      <trkpt lat="46.49411" lon="-0.02017">
        <ele>138.8</ele>
        <time>2020-05-30T18:06:22Z</time>
      </trkpt>
      <trkpt lat="46.49411" lon="-0.02019">
        <ele>138.8</ele>
        <time>2020-05-30T18:06:23Z</time>
      </trkpt>
      <trkpt lat="46.49409" lon="-0.02023">
        <ele>138.9</ele>
        <time>2020-05-30T18:06:24Z</time>
      </trkpt>
      <trkpt lat="46.49407" lon="-0.02028">
        <ele>139</ele>
        <time>2020-05-30T18:06:25Z</time>
      </trkpt>
      <trkpt lat="46.49406" lon="-0.02033">
        <ele>139.1</ele>
        <time>2020-05-30T18:06:26Z</time>
      </trkpt>
      <trkpt lat="46.49404" lon="-0.02039">
        <ele>139.2</ele>
        <time>2020-05-30T18:06:27Z</time>
      </trkpt>
      <trkpt lat="46.49402" lon="-0.02045">
        <ele>139.3</ele>
        <time>2020-05-30T18:06:28Z</time>
      </trkpt>
      <trkpt lat="46.49402" lon="-0.02047">
        <ele>139.4</ele>
        <time>2020-05-30T18:06:29Z</time>
      </trkpt>
      <trkpt lat="46.494" lon="-0.02054">
        <ele>139.5</ele>
        <time>2020-05-30T18:06:30Z</time>
      </trkpt>
      <trkpt lat="46.49399" lon="-0.02059">
        <ele>139.6</ele>
        <time>2020-05-30T18:06:31Z</time>
      </trkpt>
      <trkpt lat="46.49397" lon="-0.02065">
        <ele>139.7</ele>
        <time>2020-05-30T18:06:32Z</time>
      </trkpt>
      <trkpt lat="46.49396" lon="-0.0207">
        <ele>139.8</ele>
        <time>2020-05-30T18:06:33Z</time>
      </trkpt>
      <trkpt lat="46.49394" lon="-0.02076">
        <ele>139.9</ele>
        <time>2020-05-30T18:06:34Z</time>
      </trkpt>
      <trkpt lat="46.49392" lon="-0.02081">
        <ele>140</ele>
        <time>2020-05-30T18:06:35Z</time>
      </trkpt>
      <trkpt lat="46.49389" lon="-0.02087">
        <ele>140.2</ele>
        <time>2020-05-30T18:06:36Z</time>
      </trkpt>
      <trkpt lat="46.49387" lon="-0.02093">
        <ele>140.3</ele>
        <time>2020-05-30T18:06:37Z</time>
      </trkpt>
      <trkpt lat="46.49385" lon="-0.02098">
        <ele>140.4</ele>
        <time>2020-05-30T18:06:38Z</time>
      </trkpt>
      <trkpt lat="46.49383" lon="-0.02105">
        <ele>140.6</ele>
        <time>2020-05-30T18:06:39Z</time>
      </trkpt>
      <trkpt lat="46.4938" lon="-0.02111">
        <ele>140.7</ele>
        <time>2020-05-30T18:06:40Z</time>
      </trkpt>
      <trkpt lat="46.49379" lon="-0.02118">
        <ele>140.8</ele>
        <time>2020-05-30T18:06:41Z</time>
      </trkpt>
      <trkpt lat="46.49377" lon="-0.02125">
        <ele>140.9</ele>
        <time>2020-05-30T18:06:42Z</time>
      </trkpt>
      <trkpt lat="46.49375" lon="-0.02133">
        <ele>141</ele>
        <time>2020-05-30T18:06:43Z</time>
      </trkpt>
      <trkpt lat="46.49374" lon="-0.0214">
        <ele>141.1</ele>
        <time>2020-05-30T18:06:44Z</time>
      </trkpt>
      <trkpt lat="46.49372" lon="-0.02148">
        <ele>141.1</ele>
        <time>2020-05-30T18:06:45Z</time>
      </trkpt>
      <trkpt lat="46.4937" lon="-0.02156">
        <ele>141.2</ele>
        <time>2020-05-30T18:06:46Z</time>
      </trkpt>
      <trkpt lat="46.49367" lon="-0.02163">
        <ele>141.3</ele>
        <time>2020-05-30T18:06:47Z</time>
      </trkpt>
      <trkpt lat="46.49366" lon="-0.0217">
        <ele>141.4</ele>
        <time>2020-05-30T18:06:48Z</time>
      </trkpt>
      <trkpt lat="46.49364" lon="-0.02177">
        <ele>141.4</ele>
        <time>2020-05-30T18:06:49Z</time>
      </trkpt>
      <trkpt lat="46.49362" lon="-0.02184">
        <ele>141.5</ele>
        <time>2020-05-30T18:06:50Z</time>
      </trkpt>
      <trkpt lat="46.49361" lon="-0.02191">
        <ele>141.5</ele>
        <time>2020-05-30T18:06:51Z</time>
      </trkpt>
      <trkpt lat="46.49359" lon="-0.02196">
        <ele>141.5</ele>
        <time>2020-05-30T18:06:52Z</time>
      </trkpt>
      <trkpt lat="46.49357" lon="-0.022">
        <ele>141.5</ele>
        <time>2020-05-30T18:06:53Z</time>
      </trkpt>
      <trkpt lat="46.49355" lon="-0.02207">
        <ele>141.4</ele>
        <time>2020-05-30T18:06:54Z</time>
      </trkpt>
      <trkpt lat="46.49354" lon="-0.02213">
        <ele>141.4</ele>
        <time>2020-05-30T18:06:55Z</time>
      </trkpt>
      <trkpt lat="46.49353" lon="-0.02219">
        <ele>141.3</ele>
        <time>2020-05-30T18:06:56Z</time>
      </trkpt>
      <trkpt lat="46.49352" lon="-0.02224">
        <ele>141.3</ele>
        <time>2020-05-30T18:06:57Z</time>
      </trkpt>
      <trkpt lat="46.49351" lon="-0.0223">
        <ele>141.3</ele>
        <time>2020-05-30T18:06:58Z</time>
      </trkpt>
      <trkpt lat="46.49349" lon="-0.02235">
        <ele>141.3</ele>
        <time>2020-05-30T18:06:59Z</time>
      </trkpt>
      <trkpt lat="46.49348" lon="-0.0224">
        <ele>141.2</ele>
        <time>2020-05-30T18:07:00Z</time>
      </trkpt>
      <trkpt lat="46.49346" lon="-0.02246">
        <ele>141.2</ele>
        <time>2020-05-30T18:07:01Z</time>
      </trkpt>
      <trkpt lat="46.49344" lon="-0.02251">
        <ele>141.3</ele>
        <time>2020-05-30T18:07:02Z</time>
      </trkpt>
      <trkpt lat="46.49342" lon="-0.02255">
        <ele>141.4</ele>
        <time>2020-05-30T18:07:03Z</time>
      </trkpt>
      <trkpt lat="46.4934" lon="-0.02258">
        <ele>141.5</ele>
        <time>2020-05-30T18:07:04Z</time>
      </trkpt>
      <trkpt lat="46.49338" lon="-0.02258">
        <ele>141.5</ele>
        <time>2020-05-30T18:07:05Z</time>
      </trkpt>
      <trkpt lat="46.49338" lon="-0.02258">
        <ele>141.5</ele>
        <time>2020-05-30T18:07:06Z</time>
      </trkpt>
      <trkpt lat="46.49338" lon="-0.02258">
        <ele>141.5</ele>
        <time>2020-05-30T18:07:07Z</time>
      </trkpt>
      <trkpt lat="46.49337" lon="-0.02258">
        <ele>141.5</ele>
        <time>2020-05-30T18:07:08Z</time>
      </trkpt>
      <trkpt lat="46.49338" lon="-0.02258">
        <ele>141.6</ele>
        <time>2020-05-30T18:07:09Z</time>
      </trkpt>
      <trkpt lat="46.49337" lon="-0.02259">
        <ele>141.6</ele>
        <time>2020-05-30T18:07:10Z</time>
      </trkpt>
      <trkpt lat="46.49337" lon="-0.0226">
        <ele>141.6</ele>
        <time>2020-05-30T18:07:11Z</time>
      </trkpt>
      <trkpt lat="46.49337" lon="-0.0226">
        <ele>141.6</ele>
        <time>2020-05-30T18:07:12Z</time>
      </trkpt>
      <trkpt lat="46.49336" lon="-0.0226">
        <ele>141.6</ele>
        <time>2020-05-30T18:07:13Z</time>
      </trkpt>
      <trkpt lat="46.49336" lon="-0.0226">
        <ele>141.6</ele>
        <time>2020-05-30T18:07:14Z</time>
      </trkpt>
      <trkpt lat="46.49336" lon="-0.0226">
        <ele>141.6</ele>
        <time>2020-05-30T18:07:15Z</time>
      </trkpt>
      <trkpt lat="46.49336" lon="-0.0226">
        <ele>141.6</ele>
        <time>2020-05-30T18:07:16Z</time>
      </trkpt>
      <trkpt lat="46.49336" lon="-0.0226">
        <ele>141.6</ele>
        <time>2020-05-30T18:07:17Z</time>
      </trkpt>
      <trkpt lat="46.49336" lon="-0.02259">
        <ele>141.6</ele>
        <time>2020-05-30T18:07:18Z</time>
      </trkpt>
      <trkpt lat="46.49336" lon="-0.02259">
        <ele>141.6</ele>
        <time>2020-05-30T18:07:19Z</time>
      </trkpt>
      <trkpt lat="46.49336" lon="-0.02259">
        <ele>141.6</ele>
        <time>2020-05-30T18:07:20Z</time>
      </trkpt>
      <trkpt lat="46.49336" lon="-0.02259">
        <ele>141.6</ele>
        <time>2020-05-30T18:07:21Z</time>
      </trkpt>
      <trkpt lat="46.49336" lon="-0.02259">
        <ele>141.6</ele>
        <time>2020-05-30T18:07:22Z</time>
      </trkpt>
      <trkpt lat="46.49336" lon="-0.02259">
        <ele>141.6</ele>
        <time>2020-05-30T18:07:23Z</time>
      </trkpt>
      <trkpt lat="46.49336" lon="-0.02259">
        <ele>141.6</ele>
        <time>2020-05-30T18:07:24Z</time>
      </trkpt>
      <trkpt lat="46.49336" lon="-0.02259">
        <ele>141.6</ele>
        <time>2020-05-30T18:07:25Z</time>
      </trkpt>
      <trkpt lat="46.49336" lon="-0.02259">
        <ele>141.6</ele>
        <time>2020-05-30T18:07:26Z</time>
      </trkpt>
      <trkpt lat="46.49336" lon="-0.02258">
        <ele>141.7</ele>
        <time>2020-05-30T18:07:27Z</time>
      </trkpt>
      <trkpt lat="46.49337" lon="-0.02256">
        <ele>141.7</ele>
        <time>2020-05-30T18:07:28Z</time>
      </trkpt>
      <trkpt lat="46.49337" lon="-0.02255">
        <ele>141.7</ele>
        <time>2020-05-30T18:07:29Z</time>
      </trkpt>
      <trkpt lat="46.49337" lon="-0.02255">
        <ele>141.7</ele>
        <time>2020-05-30T18:07:30Z</time>
      </trkpt>
      <trkpt lat="46.49337" lon="-0.02255">
        <ele>141.7</ele>
        <time>2020-05-30T18:07:31Z</time>
      </trkpt>
      <trkpt lat="46.49337" lon="-0.02255">
        <ele>141.7</ele>
        <time>2020-05-30T18:07:32Z</time>
      </trkpt>
      <trkpt lat="46.49337" lon="-0.02255">
        <ele>141.7</ele>
        <time>2020-05-30T18:07:33Z</time>
      </trkpt>
      <trkpt lat="46.49337" lon="-0.02255">
        <ele>141.7</ele>
        <time>2020-05-30T18:07:34Z</time>
      </trkpt>
      <trkpt lat="46.49337" lon="-0.02255">
        <ele>141.7</ele>
        <time>2020-05-30T18:07:35Z</time>
      </trkpt>
      <trkpt lat="46.49337" lon="-0.02255">
        <ele>141.7</ele>
        <time>2020-05-30T18:07:36Z</time>
      </trkpt>
      <trkpt lat="46.49337" lon="-0.02255">
        <ele>141.7</ele>
        <time>2020-05-30T18:07:37Z</time>
      </trkpt>
      <trkpt lat="46.49337" lon="-0.02255">
        <ele>141.8</ele>
        <time>2020-05-30T18:07:38Z</time>
      </trkpt>
      <trkpt lat="46.49337" lon="-0.02255">
        <ele>141.8</ele>
        <time>2020-05-30T18:07:39Z</time>
      </trkpt>
      <trkpt lat="46.49337" lon="-0.02255">
        <ele>141.8</ele>
        <time>2020-05-30T18:07:40Z</time>
      </trkpt>
      <trkpt lat="46.49337" lon="-0.02255">
        <ele>141.8</ele>
        <time>2020-05-30T18:07:41Z</time>
      </trkpt>
      <trkpt lat="46.49337" lon="-0.02255">
        <ele>141.8</ele>
        <time>2020-05-30T18:07:42Z</time>
      </trkpt>
      <trkpt lat="46.49337" lon="-0.02255">
        <ele>141.8</ele>
        <time>2020-05-30T18:07:43Z</time>
      </trkpt>
      <trkpt lat="46.49335" lon="-0.02257">
        <ele>141.8</ele>
        <time>2020-05-30T18:07:44Z</time>
      </trkpt>
      <trkpt lat="46.49334" lon="-0.02259">
        <ele>141.9</ele>
        <time>2020-05-30T18:07:45Z</time>
      </trkpt>
      <trkpt lat="46.49332" lon="-0.02263">
        <ele>142</ele>
        <time>2020-05-30T18:07:46Z</time>
      </trkpt>
      <trkpt lat="46.49329" lon="-0.02268">
        <ele>142.1</ele>
        <time>2020-05-30T18:07:47Z</time>
      </trkpt>
      <trkpt lat="46.49326" lon="-0.02272">
        <ele>142.2</ele>
        <time>2020-05-30T18:07:48Z</time>
      </trkpt>
      <trkpt lat="46.49323" lon="-0.02277">
        <ele>142.4</ele>
        <time>2020-05-30T18:07:49Z</time>
      </trkpt>
      <trkpt lat="46.4932" lon="-0.02281">
        <ele>142.5</ele>
        <time>2020-05-30T18:07:50Z</time>
      </trkpt>
      <trkpt lat="46.49317" lon="-0.02286">
        <ele>142.7</ele>
        <time>2020-05-30T18:07:51Z</time>
      </trkpt>
      <trkpt lat="46.49314" lon="-0.02292">
        <ele>142.8</ele>
        <time>2020-05-30T18:07:52Z</time>
      </trkpt>
      <trkpt lat="46.4931" lon="-0.02297">
        <ele>142.9</ele>
        <time>2020-05-30T18:07:53Z</time>
      </trkpt>
      <trkpt lat="46.49307" lon="-0.02302">
        <ele>143</ele>
        <time>2020-05-30T18:07:54Z</time>
      </trkpt>
      <trkpt lat="46.49304" lon="-0.02307">
        <ele>143.1</ele>
        <time>2020-05-30T18:07:55Z</time>
      </trkpt>
      <trkpt lat="46.49301" lon="-0.0231">
        <ele>143.2</ele>
        <time>2020-05-30T18:07:56Z</time>
      </trkpt>
      <trkpt lat="46.49297" lon="-0.02313">
        <ele>143.4</ele>
        <time>2020-05-30T18:07:57Z</time>
      </trkpt>
      <trkpt lat="46.49291" lon="-0.02316">
        <ele>143.6</ele>
        <time>2020-05-30T18:07:58Z</time>
      </trkpt>
      <trkpt lat="46.49286" lon="-0.02319">
        <ele>143.8</ele>
        <time>2020-05-30T18:07:59Z</time>
      </trkpt>
      <trkpt lat="46.49281" lon="-0.02321">
        <ele>144</ele>
        <time>2020-05-30T18:08:00Z</time>
      </trkpt>
      <trkpt lat="46.49276" lon="-0.02324">
        <ele>144.2</ele>
        <time>2020-05-30T18:08:01Z</time>
      </trkpt>
      <trkpt lat="46.49271" lon="-0.02327">
        <ele>144.4</ele>
        <time>2020-05-30T18:08:02Z</time>
      </trkpt>
      <trkpt lat="46.49267" lon="-0.0233">
        <ele>144.5</ele>
        <time>2020-05-30T18:08:03Z</time>
      </trkpt>
      <trkpt lat="46.49263" lon="-0.02333">
        <ele>144.7</ele>
        <time>2020-05-30T18:08:04Z</time>
      </trkpt>
      <trkpt lat="46.49259" lon="-0.02336">
        <ele>144.9</ele>
        <time>2020-05-30T18:08:05Z</time>
      </trkpt>
      <trkpt lat="46.49256" lon="-0.0234">
        <ele>145.1</ele>
        <time>2020-05-30T18:08:06Z</time>
      </trkpt>
      <trkpt lat="46.49252" lon="-0.02343">
        <ele>145.3</ele>
        <time>2020-05-30T18:08:07Z</time>
      </trkpt>
      <trkpt lat="46.49249" lon="-0.02349">
        <ele>145.5</ele>
        <time>2020-05-30T18:08:08Z</time>
      </trkpt>
      <trkpt lat="46.49245" lon="-0.02354">
        <ele>145.7</ele>
        <time>2020-05-30T18:08:09Z</time>
      </trkpt>
      <trkpt lat="46.49241" lon="-0.02359">
        <ele>145.9</ele>
        <time>2020-05-30T18:08:10Z</time>
      </trkpt>
      <trkpt lat="46.49238" lon="-0.02364">
        <ele>146.1</ele>
        <time>2020-05-30T18:08:11Z</time>
      </trkpt>
      <trkpt lat="46.49235" lon="-0.02368">
        <ele>146.2</ele>
        <time>2020-05-30T18:08:12Z</time>
      </trkpt>
      <trkpt lat="46.49233" lon="-0.02372">
        <ele>146.4</ele>
        <time>2020-05-30T18:08:13Z</time>
      </trkpt>
      <trkpt lat="46.4923" lon="-0.02377">
        <ele>146.5</ele>
        <time>2020-05-30T18:08:14Z</time>
      </trkpt>
      <trkpt lat="46.49228" lon="-0.02382">
        <ele>146.6</ele>
        <time>2020-05-30T18:08:15Z</time>
      </trkpt>
      <trkpt lat="46.49226" lon="-0.02386">
        <ele>146.7</ele>
        <time>2020-05-30T18:08:16Z</time>
      </trkpt>
      <trkpt lat="46.49224" lon="-0.02391">
        <ele>146.7</ele>
        <time>2020-05-30T18:08:17Z</time>
      </trkpt>
      <trkpt lat="46.49222" lon="-0.02396">
        <ele>146.8</ele>
        <time>2020-05-30T18:08:18Z</time>
      </trkpt>
      <trkpt lat="46.4922" lon="-0.02401">
        <ele>146.9</ele>
        <time>2020-05-30T18:08:19Z</time>
      </trkpt>
      <trkpt lat="46.49218" lon="-0.02407">
        <ele>147</ele>
        <time>2020-05-30T18:08:20Z</time>
      </trkpt>
      <trkpt lat="46.49216" lon="-0.02412">
        <ele>147.1</ele>
        <time>2020-05-30T18:08:21Z</time>
      </trkpt>
      <trkpt lat="46.49214" lon="-0.02418">
        <ele>147.3</ele>
        <time>2020-05-30T18:08:22Z</time>
      </trkpt>
      <trkpt lat="46.49212" lon="-0.02424">
        <ele>147.4</ele>
        <time>2020-05-30T18:08:23Z</time>
      </trkpt>
      <trkpt lat="46.4921" lon="-0.02429">
        <ele>147.6</ele>
        <time>2020-05-30T18:08:24Z</time>
      </trkpt>
      <trkpt lat="46.49207" lon="-0.02435">
        <ele>147.7</ele>
        <time>2020-05-30T18:08:25Z</time>
      </trkpt>
      <trkpt lat="46.49205" lon="-0.02439">
        <ele>147.8</ele>
        <time>2020-05-30T18:08:26Z</time>
      </trkpt>
      <trkpt lat="46.49203" lon="-0.02443">
        <ele>147.9</ele>
        <time>2020-05-30T18:08:27Z</time>
      </trkpt>
      <trkpt lat="46.492" lon="-0.02448">
        <ele>148</ele>
        <time>2020-05-30T18:08:28Z</time>
      </trkpt>
      <trkpt lat="46.49197" lon="-0.02452">
        <ele>148.1</ele>
        <time>2020-05-30T18:08:29Z</time>
      </trkpt>
      <trkpt lat="46.49194" lon="-0.02455">
        <ele>148.2</ele>
        <time>2020-05-30T18:08:30Z</time>
      </trkpt>
      <trkpt lat="46.4919" lon="-0.02461">
        <ele>148.3</ele>
        <time>2020-05-30T18:08:31Z</time>
      </trkpt>
      <trkpt lat="46.49186" lon="-0.02465">
        <ele>148.4</ele>
        <time>2020-05-30T18:08:32Z</time>
      </trkpt>
      <trkpt lat="46.49183" lon="-0.02469">
        <ele>148.5</ele>
        <time>2020-05-30T18:08:33Z</time>
      </trkpt>
      <trkpt lat="46.4918" lon="-0.02474">
        <ele>148.6</ele>
        <time>2020-05-30T18:08:34Z</time>
      </trkpt>
      <trkpt lat="46.49177" lon="-0.02478">
        <ele>148.8</ele>
        <time>2020-05-30T18:08:35Z</time>
      </trkpt>
      <trkpt lat="46.49174" lon="-0.02482">
        <ele>149</ele>
        <time>2020-05-30T18:08:36Z</time>
      </trkpt>
      <trkpt lat="46.49171" lon="-0.02487">
        <ele>149.1</ele>
        <time>2020-05-30T18:08:37Z</time>
      </trkpt>
      <trkpt lat="46.49169" lon="-0.02492">
        <ele>149.2</ele>
        <time>2020-05-30T18:08:38Z</time>
      </trkpt>
      <trkpt lat="46.49166" lon="-0.02496">
        <ele>149.3</ele>
        <time>2020-05-30T18:08:39Z</time>
      </trkpt>
      <trkpt lat="46.49163" lon="-0.025">
        <ele>149.4</ele>
        <time>2020-05-30T18:08:40Z</time>
      </trkpt>
      <trkpt lat="46.49159" lon="-0.02503">
        <ele>149.5</ele>
        <time>2020-05-30T18:08:41Z</time>
      </trkpt>
      <trkpt lat="46.49156" lon="-0.02507">
        <ele>149.6</ele>
        <time>2020-05-30T18:08:42Z</time>
      </trkpt>
      <trkpt lat="46.49154" lon="-0.02514">
        <ele>149.7</ele>
        <time>2020-05-30T18:08:43Z</time>
      </trkpt>
      <trkpt lat="46.4915" lon="-0.02517">
        <ele>149.7</ele>
        <time>2020-05-30T18:08:44Z</time>
      </trkpt>
      <trkpt lat="46.49147" lon="-0.02522">
        <ele>149.8</ele>
        <time>2020-05-30T18:08:45Z</time>
      </trkpt>
      <trkpt lat="46.49146" lon="-0.02528">
        <ele>149.8</ele>
        <time>2020-05-30T18:08:46Z</time>
      </trkpt>
      <trkpt lat="46.49143" lon="-0.02532">
        <ele>149.9</ele>
        <time>2020-05-30T18:08:47Z</time>
      </trkpt>
      <trkpt lat="46.4914" lon="-0.02536">
        <ele>149.9</ele>
        <time>2020-05-30T18:08:48Z</time>
      </trkpt>
      <trkpt lat="46.49138" lon="-0.02541">
        <ele>150</ele>
        <time>2020-05-30T18:08:49Z</time>
      </trkpt>
      <trkpt lat="46.49134" lon="-0.02545">
        <ele>150</ele>
        <time>2020-05-30T18:08:50Z</time>
      </trkpt>
      <trkpt lat="46.49132" lon="-0.02549">
        <ele>150.1</ele>
        <time>2020-05-30T18:08:51Z</time>
      </trkpt>
      <trkpt lat="46.49129" lon="-0.02554">
        <ele>150.1</ele>
        <time>2020-05-30T18:08:52Z</time>
      </trkpt>
      <trkpt lat="46.49126" lon="-0.02559">
        <ele>150.1</ele>
        <time>2020-05-30T18:08:53Z</time>
      </trkpt>
      <trkpt lat="46.49124" lon="-0.02564">
        <ele>150.2</ele>
        <time>2020-05-30T18:08:54Z</time>
      </trkpt>
      <trkpt lat="46.49121" lon="-0.02568">
        <ele>150.2</ele>
        <time>2020-05-30T18:08:55Z</time>
      </trkpt>
      <trkpt lat="46.49118" lon="-0.02574">
        <ele>150.3</ele>
        <time>2020-05-30T18:08:56Z</time>
      </trkpt>
      <trkpt lat="46.49115" lon="-0.0258">
        <ele>150.3</ele>
        <time>2020-05-30T18:08:57Z</time>
      </trkpt>
      <trkpt lat="46.49111" lon="-0.02585">
        <ele>150.4</ele>
        <time>2020-05-30T18:08:58Z</time>
      </trkpt>
      <trkpt lat="46.49108" lon="-0.02591">
        <ele>150.5</ele>
        <time>2020-05-30T18:08:59Z</time>
      </trkpt>
      <trkpt lat="46.49105" lon="-0.02596">
        <ele>150.6</ele>
        <time>2020-05-30T18:09:00Z</time>
      </trkpt>
      <trkpt lat="46.49102" lon="-0.02602">
        <ele>150.7</ele>
        <time>2020-05-30T18:09:01Z</time>
      </trkpt>
      <trkpt lat="46.49099" lon="-0.02608">
        <ele>150.8</ele>
        <time>2020-05-30T18:09:02Z</time>
      </trkpt>
      <trkpt lat="46.49096" lon="-0.02614">
        <ele>150.9</ele>
        <time>2020-05-30T18:09:03Z</time>
      </trkpt>
      <trkpt lat="46.49093" lon="-0.02619">
        <ele>151</ele>
        <time>2020-05-30T18:09:04Z</time>
      </trkpt>
      <trkpt lat="46.4909" lon="-0.02626">
        <ele>151.1</ele>
        <time>2020-05-30T18:09:05Z</time>
      </trkpt>
      <trkpt lat="46.49088" lon="-0.0263">
        <ele>151.1</ele>
        <time>2020-05-30T18:09:06Z</time>
      </trkpt>
      <trkpt lat="46.49085" lon="-0.02635">
        <ele>151.2</ele>
        <time>2020-05-30T18:09:07Z</time>
      </trkpt>
      <trkpt lat="46.49082" lon="-0.02642">
        <ele>151.4</ele>
        <time>2020-05-30T18:09:08Z</time>
      </trkpt>
      <trkpt lat="46.4908" lon="-0.02647">
        <ele>151.5</ele>
        <time>2020-05-30T18:09:09Z</time>
      </trkpt>
      <trkpt lat="46.49077" lon="-0.02654">
        <ele>151.7</ele>
        <time>2020-05-30T18:09:10Z</time>
      </trkpt>
      <trkpt lat="46.49074" lon="-0.0266">
        <ele>151.9</ele>
        <time>2020-05-30T18:09:11Z</time>
      </trkpt>
      <trkpt lat="46.49071" lon="-0.02667">
        <ele>152</ele>
        <time>2020-05-30T18:09:12Z</time>
      </trkpt>
      <trkpt lat="46.49069" lon="-0.02674">
        <ele>152.1</ele>
        <time>2020-05-30T18:09:13Z</time>
      </trkpt>
      <trkpt lat="46.49065" lon="-0.02681">
        <ele>152.2</ele>
        <time>2020-05-30T18:09:14Z</time>
      </trkpt>
      <trkpt lat="46.49063" lon="-0.02687">
        <ele>152.3</ele>
        <time>2020-05-30T18:09:15Z</time>
      </trkpt>
      <trkpt lat="46.4906" lon="-0.02693">
        <ele>152.4</ele>
        <time>2020-05-30T18:09:16Z</time>
      </trkpt>
      <trkpt lat="46.49058" lon="-0.027">
        <ele>152.6</ele>
        <time>2020-05-30T18:09:17Z</time>
      </trkpt>
      <trkpt lat="46.49056" lon="-0.02705">
        <ele>152.7</ele>
        <time>2020-05-30T18:09:18Z</time>
      </trkpt>
      <trkpt lat="46.49054" lon="-0.02711">
        <ele>152.9</ele>
        <time>2020-05-30T18:09:19Z</time>
      </trkpt>
      <trkpt lat="46.49051" lon="-0.02718">
        <ele>153.1</ele>
        <time>2020-05-30T18:09:20Z</time>
      </trkpt>
      <trkpt lat="46.49049" lon="-0.02724">
        <ele>153.3</ele>
        <time>2020-05-30T18:09:21Z</time>
      </trkpt>
      <trkpt lat="46.49048" lon="-0.0273">
        <ele>153.5</ele>
        <time>2020-05-30T18:09:22Z</time>
      </trkpt>
      <trkpt lat="46.49045" lon="-0.02736">
        <ele>153.6</ele>
        <time>2020-05-30T18:09:23Z</time>
      </trkpt>
      <trkpt lat="46.49043" lon="-0.02741">
        <ele>153.7</ele>
        <time>2020-05-30T18:09:24Z</time>
      </trkpt>
      <trkpt lat="46.49041" lon="-0.02748">
        <ele>153.9</ele>
        <time>2020-05-30T18:09:25Z</time>
      </trkpt>
      <trkpt lat="46.4904" lon="-0.02755">
        <ele>154</ele>
        <time>2020-05-30T18:09:26Z</time>
      </trkpt>
      <trkpt lat="46.49038" lon="-0.02761">
        <ele>154.2</ele>
        <time>2020-05-30T18:09:27Z</time>
      </trkpt>
      <trkpt lat="46.49037" lon="-0.02768">
        <ele>154.3</ele>
        <time>2020-05-30T18:09:28Z</time>
      </trkpt>
      <trkpt lat="46.49036" lon="-0.02775">
        <ele>154.5</ele>
        <time>2020-05-30T18:09:29Z</time>
      </trkpt>
      <trkpt lat="46.49036" lon="-0.02781">
        <ele>154.6</ele>
        <time>2020-05-30T18:09:30Z</time>
      </trkpt>
      <trkpt lat="46.49034" lon="-0.02787">
        <ele>154.7</ele>
        <time>2020-05-30T18:09:31Z</time>
      </trkpt>
      <trkpt lat="46.49033" lon="-0.02795">
        <ele>154.8</ele>
        <time>2020-05-30T18:09:32Z</time>
      </trkpt>
      <trkpt lat="46.49032" lon="-0.02801">
        <ele>154.8</ele>
        <time>2020-05-30T18:09:33Z</time>
      </trkpt>
      <trkpt lat="46.49032" lon="-0.02809">
        <ele>154.8</ele>
        <time>2020-05-30T18:09:34Z</time>
      </trkpt>
      <trkpt lat="46.49031" lon="-0.02815">
        <ele>154.8</ele>
        <time>2020-05-30T18:09:35Z</time>
      </trkpt>
      <trkpt lat="46.49029" lon="-0.02823">
        <ele>154.8</ele>
        <time>2020-05-30T18:09:36Z</time>
      </trkpt>
      <trkpt lat="46.49029" lon="-0.02829">
        <ele>154.8</ele>
        <time>2020-05-30T18:09:37Z</time>
      </trkpt>
      <trkpt lat="46.49028" lon="-0.02835">
        <ele>154.8</ele>
        <time>2020-05-30T18:09:38Z</time>
      </trkpt>
      <trkpt lat="46.49027" lon="-0.02842">
        <ele>154.7</ele>
        <time>2020-05-30T18:09:39Z</time>
      </trkpt>
      <trkpt lat="46.49026" lon="-0.0285">
        <ele>154.7</ele>
        <time>2020-05-30T18:09:40Z</time>
      </trkpt>
      <trkpt lat="46.49025" lon="-0.02857">
        <ele>154.7</ele>
        <time>2020-05-30T18:09:41Z</time>
      </trkpt>
      <trkpt lat="46.49024" lon="-0.02863">
        <ele>154.7</ele>
        <time>2020-05-30T18:09:42Z</time>
      </trkpt>
      <trkpt lat="46.49023" lon="-0.02869">
        <ele>154.8</ele>
        <time>2020-05-30T18:09:43Z</time>
      </trkpt>
      <trkpt lat="46.49023" lon="-0.02876">
        <ele>154.8</ele>
        <time>2020-05-30T18:09:44Z</time>
      </trkpt>
      <trkpt lat="46.49022" lon="-0.02883">
        <ele>154.9</ele>
        <time>2020-05-30T18:09:45Z</time>
      </trkpt>
      <trkpt lat="46.49022" lon="-0.02891">
        <ele>155</ele>
        <time>2020-05-30T18:09:46Z</time>
      </trkpt>
      <trkpt lat="46.49022" lon="-0.02897">
        <ele>155.1</ele>
        <time>2020-05-30T18:09:47Z</time>
      </trkpt>
      <trkpt lat="46.49024" lon="-0.02907">
        <ele>155.2</ele>
        <time>2020-05-30T18:09:48Z</time>
      </trkpt>
      <trkpt lat="46.49024" lon="-0.02915">
        <ele>155.2</ele>
        <time>2020-05-30T18:09:49Z</time>
      </trkpt>
      <trkpt lat="46.49023" lon="-0.02922">
        <ele>155.3</ele>
        <time>2020-05-30T18:09:50Z</time>
      </trkpt>
      <trkpt lat="46.49023" lon="-0.02929">
        <ele>155.3</ele>
        <time>2020-05-30T18:09:51Z</time>
      </trkpt>
      <trkpt lat="46.49023" lon="-0.02936">
        <ele>155.3</ele>
        <time>2020-05-30T18:09:52Z</time>
      </trkpt>
      <trkpt lat="46.49023" lon="-0.02944">
        <ele>155.3</ele>
        <time>2020-05-30T18:09:53Z</time>
      </trkpt>
      <trkpt lat="46.49021" lon="-0.02952">
        <ele>155.3</ele>
        <time>2020-05-30T18:09:54Z</time>
      </trkpt>
      <trkpt lat="46.4902" lon="-0.02959">
        <ele>155.3</ele>
        <time>2020-05-30T18:09:55Z</time>
      </trkpt>
      <trkpt lat="46.49019" lon="-0.02967">
        <ele>155.3</ele>
        <time>2020-05-30T18:09:56Z</time>
      </trkpt>
      <trkpt lat="46.49018" lon="-0.02974">
        <ele>155.3</ele>
        <time>2020-05-30T18:09:57Z</time>
      </trkpt>
      <trkpt lat="46.49016" lon="-0.02981">
        <ele>155.3</ele>
        <time>2020-05-30T18:09:58Z</time>
      </trkpt>
      <trkpt lat="46.49014" lon="-0.0299">
        <ele>155.4</ele>
        <time>2020-05-30T18:09:59Z</time>
      </trkpt>
      <trkpt lat="46.49012" lon="-0.02997">
        <ele>155.4</ele>
        <time>2020-05-30T18:10:00Z</time>
      </trkpt>
      <trkpt lat="46.49011" lon="-0.03005">
        <ele>155.4</ele>
        <time>2020-05-30T18:10:01Z</time>
      </trkpt>
      <trkpt lat="46.49009" lon="-0.03013">
        <ele>155.4</ele>
        <time>2020-05-30T18:10:02Z</time>
      </trkpt>
      <trkpt lat="46.49009" lon="-0.0302">
        <ele>155.5</ele>
        <time>2020-05-30T18:10:03Z</time>
      </trkpt>
      <trkpt lat="46.49007" lon="-0.03027">
        <ele>155.5</ele>
        <time>2020-05-30T18:10:04Z</time>
      </trkpt>
      <trkpt lat="46.49006" lon="-0.03033">
        <ele>155.5</ele>
        <time>2020-05-30T18:10:05Z</time>
      </trkpt>
      <trkpt lat="46.49004" lon="-0.0304">
        <ele>155.5</ele>
        <time>2020-05-30T18:10:06Z</time>
      </trkpt>
      <trkpt lat="46.49003" lon="-0.03045">
        <ele>155.6</ele>
        <time>2020-05-30T18:10:07Z</time>
      </trkpt>
      <trkpt lat="46.49002" lon="-0.03052">
        <ele>155.6</ele>
        <time>2020-05-30T18:10:08Z</time>
      </trkpt>
      <trkpt lat="46.48999" lon="-0.03057">
        <ele>155.5</ele>
        <time>2020-05-30T18:10:09Z</time>
      </trkpt>
      <trkpt lat="46.48997" lon="-0.03065">
        <ele>155.5</ele>
        <time>2020-05-30T18:10:10Z</time>
      </trkpt>
      <trkpt lat="46.48994" lon="-0.03072">
        <ele>155.4</ele>
        <time>2020-05-30T18:10:11Z</time>
      </trkpt>
      <trkpt lat="46.48991" lon="-0.03078">
        <ele>155.3</ele>
        <time>2020-05-30T18:10:12Z</time>
      </trkpt>
      <trkpt lat="46.48989" lon="-0.03085">
        <ele>155.2</ele>
        <time>2020-05-30T18:10:13Z</time>
      </trkpt>
      <trkpt lat="46.48986" lon="-0.03093">
        <ele>155.1</ele>
        <time>2020-05-30T18:10:14Z</time>
      </trkpt>
      <trkpt lat="46.48984" lon="-0.03099">
        <ele>155</ele>
        <time>2020-05-30T18:10:15Z</time>
      </trkpt>
      <trkpt lat="46.48982" lon="-0.03106">
        <ele>155</ele>
        <time>2020-05-30T18:10:16Z</time>
      </trkpt>
      <trkpt lat="46.4898" lon="-0.03113">
        <ele>155</ele>
        <time>2020-05-30T18:10:17Z</time>
      </trkpt>
      <trkpt lat="46.48977" lon="-0.03119">
        <ele>155</ele>
        <time>2020-05-30T18:10:18Z</time>
      </trkpt>
      <trkpt lat="46.48974" lon="-0.03126">
        <ele>155</ele>
        <time>2020-05-30T18:10:19Z</time>
      </trkpt>
      <trkpt lat="46.48971" lon="-0.03132">
        <ele>155</ele>
        <time>2020-05-30T18:10:20Z</time>
      </trkpt>
      <trkpt lat="46.48969" lon="-0.03138">
        <ele>155.1</ele>
        <time>2020-05-30T18:10:21Z</time>
      </trkpt>
      <trkpt lat="46.48968" lon="-0.03144">
        <ele>155.1</ele>
        <time>2020-05-30T18:10:22Z</time>
      </trkpt>
      <trkpt lat="46.48966" lon="-0.0315">
        <ele>155.1</ele>
        <time>2020-05-30T18:10:23Z</time>
      </trkpt>
      <trkpt lat="46.48964" lon="-0.03157">
        <ele>155.1</ele>
        <time>2020-05-30T18:10:24Z</time>
      </trkpt>
      <trkpt lat="46.48963" lon="-0.03166">
        <ele>155.1</ele>
        <time>2020-05-30T18:10:25Z</time>
      </trkpt>
      <trkpt lat="46.48962" lon="-0.03172">
        <ele>155.1</ele>
        <time>2020-05-30T18:10:26Z</time>
      </trkpt>
      <trkpt lat="46.4896" lon="-0.03178">
        <ele>155.1</ele>
        <time>2020-05-30T18:10:27Z</time>
      </trkpt>
      <trkpt lat="46.48959" lon="-0.03182">
        <ele>155.1</ele>
        <time>2020-05-30T18:10:28Z</time>
      </trkpt>
      <trkpt lat="46.48957" lon="-0.03187">
        <ele>155.1</ele>
        <time>2020-05-30T18:10:29Z</time>
      </trkpt>
      <trkpt lat="46.48955" lon="-0.03191">
        <ele>155.1</ele>
        <time>2020-05-30T18:10:30Z</time>
      </trkpt>
      <trkpt lat="46.48953" lon="-0.03196">
        <ele>155.2</ele>
        <time>2020-05-30T18:10:31Z</time>
      </trkpt>
      <trkpt lat="46.4895" lon="-0.03201">
        <ele>155.3</ele>
        <time>2020-05-30T18:10:32Z</time>
      </trkpt>
      <trkpt lat="46.48947" lon="-0.03205">
        <ele>155.4</ele>
        <time>2020-05-30T18:10:33Z</time>
      </trkpt>
      <trkpt lat="46.48945" lon="-0.0321">
        <ele>155.6</ele>
        <time>2020-05-30T18:10:34Z</time>
      </trkpt>
      <trkpt lat="46.48942" lon="-0.03216">
        <ele>155.7</ele>
        <time>2020-05-30T18:10:35Z</time>
      </trkpt>
      <trkpt lat="46.48939" lon="-0.0322">
        <ele>155.8</ele>
        <time>2020-05-30T18:10:36Z</time>
      </trkpt>
      <trkpt lat="46.48938" lon="-0.03225">
        <ele>155.9</ele>
        <time>2020-05-30T18:10:37Z</time>
      </trkpt>
      <trkpt lat="46.48935" lon="-0.0323">
        <ele>156</ele>
        <time>2020-05-30T18:10:38Z</time>
      </trkpt>
      <trkpt lat="46.48932" lon="-0.03235">
        <ele>156</ele>
        <time>2020-05-30T18:10:39Z</time>
      </trkpt>
      <trkpt lat="46.4893" lon="-0.03239">
        <ele>156</ele>
        <time>2020-05-30T18:10:40Z</time>
      </trkpt>
      <trkpt lat="46.48927" lon="-0.03243">
        <ele>156</ele>
        <time>2020-05-30T18:10:41Z</time>
      </trkpt>
      <trkpt lat="46.48925" lon="-0.03248">
        <ele>156</ele>
        <time>2020-05-30T18:10:42Z</time>
      </trkpt>
      <trkpt lat="46.48923" lon="-0.03253">
        <ele>156</ele>
        <time>2020-05-30T18:10:43Z</time>
      </trkpt>
      <trkpt lat="46.4892" lon="-0.03259">
        <ele>156</ele>
        <time>2020-05-30T18:10:44Z</time>
      </trkpt>
      <trkpt lat="46.48917" lon="-0.03265">
        <ele>156</ele>
        <time>2020-05-30T18:10:45Z</time>
      </trkpt>
      <trkpt lat="46.48915" lon="-0.03271">
        <ele>156.1</ele>
        <time>2020-05-30T18:10:46Z</time>
      </trkpt>
      <trkpt lat="46.48913" lon="-0.03278">
        <ele>156.1</ele>
        <time>2020-05-30T18:10:47Z</time>
      </trkpt>
      <trkpt lat="46.4891" lon="-0.03285">
        <ele>156.2</ele>
        <time>2020-05-30T18:10:48Z</time>
      </trkpt>
      <trkpt lat="46.48907" lon="-0.03292">
        <ele>156.4</ele>
        <time>2020-05-30T18:10:49Z</time>
      </trkpt>
      <trkpt lat="46.48905" lon="-0.03297">
        <ele>156.6</ele>
        <time>2020-05-30T18:10:50Z</time>
      </trkpt>
      <trkpt lat="46.48902" lon="-0.03302">
        <ele>156.7</ele>
        <time>2020-05-30T18:10:51Z</time>
      </trkpt>
      <trkpt lat="46.489" lon="-0.03307">
        <ele>156.8</ele>
        <time>2020-05-30T18:10:52Z</time>
      </trkpt>
      <trkpt lat="46.48898" lon="-0.03312">
        <ele>156.9</ele>
        <time>2020-05-30T18:10:53Z</time>
      </trkpt>
      <trkpt lat="46.48896" lon="-0.03317">
        <ele>156.9</ele>
        <time>2020-05-30T18:10:54Z</time>
      </trkpt>
      <trkpt lat="46.48894" lon="-0.03322">
        <ele>157</ele>
        <time>2020-05-30T18:10:55Z</time>
      </trkpt>
      <trkpt lat="46.48892" lon="-0.03328">
        <ele>157</ele>
        <time>2020-05-30T18:10:56Z</time>
      </trkpt>
      <trkpt lat="46.4889" lon="-0.03333">
        <ele>157</ele>
        <time>2020-05-30T18:10:57Z</time>
      </trkpt>
      <trkpt lat="46.48888" lon="-0.03337">
        <ele>157</ele>
        <time>2020-05-30T18:10:58Z</time>
      </trkpt>
      <trkpt lat="46.48886" lon="-0.03342">
        <ele>157</ele>
        <time>2020-05-30T18:10:59Z</time>
      </trkpt>
      <trkpt lat="46.48884" lon="-0.03347">
        <ele>157</ele>
        <time>2020-05-30T18:11:00Z</time>
      </trkpt>
      <trkpt lat="46.48882" lon="-0.03352">
        <ele>157</ele>
        <time>2020-05-30T18:11:01Z</time>
      </trkpt>
      <trkpt lat="46.48879" lon="-0.03357">
        <ele>157</ele>
        <time>2020-05-30T18:11:02Z</time>
      </trkpt>
      <trkpt lat="46.48877" lon="-0.03362">
        <ele>157</ele>
        <time>2020-05-30T18:11:03Z</time>
      </trkpt>
      <trkpt lat="46.48874" lon="-0.03365">
        <ele>157</ele>
        <time>2020-05-30T18:11:04Z</time>
      </trkpt>
      <trkpt lat="46.48872" lon="-0.03369">
        <ele>157</ele>
        <time>2020-05-30T18:11:05Z</time>
      </trkpt>
      <trkpt lat="46.48869" lon="-0.03374">
        <ele>157</ele>
        <time>2020-05-30T18:11:06Z</time>
      </trkpt>
      <trkpt lat="46.48867" lon="-0.03377">
        <ele>157</ele>
        <time>2020-05-30T18:11:07Z</time>
      </trkpt>
      <trkpt lat="46.48864" lon="-0.0338">
        <ele>157</ele>
        <time>2020-05-30T18:11:08Z</time>
      </trkpt>
      <trkpt lat="46.48861" lon="-0.03384">
        <ele>156.9</ele>
        <time>2020-05-30T18:11:09Z</time>
      </trkpt>
      <trkpt lat="46.48859" lon="-0.03387">
        <ele>156.9</ele>
        <time>2020-05-30T18:11:10Z</time>
      </trkpt>
      <trkpt lat="46.48857" lon="-0.03392">
        <ele>156.9</ele>
        <time>2020-05-30T18:11:11Z</time>
      </trkpt>
      <trkpt lat="46.48854" lon="-0.03396">
        <ele>156.9</ele>
        <time>2020-05-30T18:11:12Z</time>
      </trkpt>
      <trkpt lat="46.48852" lon="-0.03401">
        <ele>156.9</ele>
        <time>2020-05-30T18:11:13Z</time>
      </trkpt>
      <trkpt lat="46.48849" lon="-0.03406">
        <ele>156.9</ele>
        <time>2020-05-30T18:11:14Z</time>
      </trkpt>
      <trkpt lat="46.48847" lon="-0.03411">
        <ele>157</ele>
        <time>2020-05-30T18:11:15Z</time>
      </trkpt>
      <trkpt lat="46.48843" lon="-0.03417">
        <ele>157</ele>
        <time>2020-05-30T18:11:16Z</time>
      </trkpt>
      <trkpt lat="46.4884" lon="-0.03421">
        <ele>157.1</ele>
        <time>2020-05-30T18:11:17Z</time>
      </trkpt>
      <trkpt lat="46.48838" lon="-0.03424">
        <ele>157.1</ele>
        <time>2020-05-30T18:11:18Z</time>
      </trkpt>
      <trkpt lat="46.48836" lon="-0.03428">
        <ele>157.2</ele>
        <time>2020-05-30T18:11:19Z</time>
      </trkpt>
      <trkpt lat="46.48833" lon="-0.03431">
        <ele>157.3</ele>
        <time>2020-05-30T18:11:20Z</time>
      </trkpt>
      <trkpt lat="46.4883" lon="-0.03436">
        <ele>157.4</ele>
        <time>2020-05-30T18:11:21Z</time>
      </trkpt>
      <trkpt lat="46.48828" lon="-0.03437">
        <ele>157.5</ele>
        <time>2020-05-30T18:11:22Z</time>
      </trkpt>
      <trkpt lat="46.48826" lon="-0.0344">
        <ele>157.5</ele>
        <time>2020-05-30T18:11:23Z</time>
      </trkpt>
      <trkpt lat="46.48824" lon="-0.03443">
        <ele>157.6</ele>
        <time>2020-05-30T18:11:24Z</time>
      </trkpt>
      <trkpt lat="46.48823" lon="-0.03448">
        <ele>157.7</ele>
        <time>2020-05-30T18:11:25Z</time>
      </trkpt>
      <trkpt lat="46.4882" lon="-0.03452">
        <ele>157.8</ele>
        <time>2020-05-30T18:11:26Z</time>
      </trkpt>
      <trkpt lat="46.4882" lon="-0.03454">
        <ele>157.9</ele>
        <time>2020-05-30T18:11:27Z</time>
      </trkpt>
      <trkpt lat="46.48819" lon="-0.03457">
        <ele>157.9</ele>
        <time>2020-05-30T18:11:28Z</time>
      </trkpt>
      <trkpt lat="46.48818" lon="-0.03459">
        <ele>157.9</ele>
        <time>2020-05-30T18:11:29Z</time>
      </trkpt>
      <trkpt lat="46.48817" lon="-0.03461">
        <ele>158</ele>
        <time>2020-05-30T18:11:30Z</time>
      </trkpt>
      <trkpt lat="46.48815" lon="-0.03464">
        <ele>158</ele>
        <time>2020-05-30T18:11:31Z</time>
      </trkpt>
      <trkpt lat="46.48813" lon="-0.03467">
        <ele>158.1</ele>
        <time>2020-05-30T18:11:32Z</time>
      </trkpt>
      <trkpt lat="46.48812" lon="-0.03473">
        <ele>158.2</ele>
        <time>2020-05-30T18:11:33Z</time>
      </trkpt>
      <trkpt lat="46.48812" lon="-0.03474">
        <ele>158.2</ele>
        <time>2020-05-30T18:11:34Z</time>
      </trkpt>
      <trkpt lat="46.4881" lon="-0.03478">
        <ele>158.3</ele>
        <time>2020-05-30T18:11:35Z</time>
      </trkpt>
      <trkpt lat="46.48808" lon="-0.03482">
        <ele>158.4</ele>
        <time>2020-05-30T18:11:36Z</time>
      </trkpt>
      <trkpt lat="46.48806" lon="-0.03486">
        <ele>158.6</ele>
        <time>2020-05-30T18:11:37Z</time>
      </trkpt>
      <trkpt lat="46.48803" lon="-0.03491">
        <ele>158.7</ele>
        <time>2020-05-30T18:11:38Z</time>
      </trkpt>
      <trkpt lat="46.48801" lon="-0.03495">
        <ele>158.7</ele>
        <time>2020-05-30T18:11:39Z</time>
      </trkpt>
      <trkpt lat="46.48798" lon="-0.03501">
        <ele>158.8</ele>
        <time>2020-05-30T18:11:40Z</time>
      </trkpt>
      <trkpt lat="46.48796" lon="-0.03505">
        <ele>158.8</ele>
        <time>2020-05-30T18:11:41Z</time>
      </trkpt>
      <trkpt lat="46.48793" lon="-0.0351">
        <ele>158.9</ele>
        <time>2020-05-30T18:11:42Z</time>
      </trkpt>
      <trkpt lat="46.48791" lon="-0.03515">
        <ele>158.9</ele>
        <time>2020-05-30T18:11:43Z</time>
      </trkpt>
      <trkpt lat="46.48789" lon="-0.0352">
        <ele>158.9</ele>
        <time>2020-05-30T18:11:44Z</time>
      </trkpt>
      <trkpt lat="46.48787" lon="-0.03524">
        <ele>158.9</ele>
        <time>2020-05-30T18:11:45Z</time>
      </trkpt>
      <trkpt lat="46.48784" lon="-0.03528">
        <ele>158.9</ele>
        <time>2020-05-30T18:11:46Z</time>
      </trkpt>
      <trkpt lat="46.48781" lon="-0.03532">
        <ele>158.9</ele>
        <time>2020-05-30T18:11:47Z</time>
      </trkpt>
      <trkpt lat="46.48779" lon="-0.03537">
        <ele>158.9</ele>
        <time>2020-05-30T18:11:48Z</time>
      </trkpt>
      <trkpt lat="46.48776" lon="-0.03541">
        <ele>158.9</ele>
        <time>2020-05-30T18:11:49Z</time>
      </trkpt>
      <trkpt lat="46.48775" lon="-0.03545">
        <ele>158.9</ele>
        <time>2020-05-30T18:11:50Z</time>
      </trkpt>
      <trkpt lat="46.48772" lon="-0.0355">
        <ele>158.9</ele>
        <time>2020-05-30T18:11:51Z</time>
      </trkpt>
      <trkpt lat="46.48771" lon="-0.03554">
        <ele>158.9</ele>
        <time>2020-05-30T18:11:52Z</time>
      </trkpt>
      <trkpt lat="46.48769" lon="-0.03559">
        <ele>158.9</ele>
        <time>2020-05-30T18:11:53Z</time>
      </trkpt>
      <trkpt lat="46.48766" lon="-0.03562">
        <ele>158.9</ele>
        <time>2020-05-30T18:11:54Z</time>
      </trkpt>
      <trkpt lat="46.48763" lon="-0.03567">
        <ele>159</ele>
        <time>2020-05-30T18:11:55Z</time>
      </trkpt>
      <trkpt lat="46.48761" lon="-0.03571">
        <ele>159</ele>
        <time>2020-05-30T18:11:56Z</time>
      </trkpt>
      <trkpt lat="46.48759" lon="-0.03575">
        <ele>159</ele>
        <time>2020-05-30T18:11:57Z</time>
      </trkpt>
      <trkpt lat="46.48757" lon="-0.0358">
        <ele>159.1</ele>
        <time>2020-05-30T18:11:58Z</time>
      </trkpt>
      <trkpt lat="46.48754" lon="-0.03584">
        <ele>159.1</ele>
        <time>2020-05-30T18:11:59Z</time>
      </trkpt>
      <trkpt lat="46.48751" lon="-0.03589">
        <ele>159.1</ele>
        <time>2020-05-30T18:12:00Z</time>
      </trkpt>
      <trkpt lat="46.48748" lon="-0.03593">
        <ele>159.1</ele>
        <time>2020-05-30T18:12:01Z</time>
      </trkpt>
      <trkpt lat="46.48745" lon="-0.03597">
        <ele>159.1</ele>
        <time>2020-05-30T18:12:02Z</time>
      </trkpt>
      <trkpt lat="46.48743" lon="-0.03602">
        <ele>159.1</ele>
        <time>2020-05-30T18:12:03Z</time>
      </trkpt>
      <trkpt lat="46.4874" lon="-0.03606">
        <ele>159.1</ele>
        <time>2020-05-30T18:12:04Z</time>
      </trkpt>
      <trkpt lat="46.48738" lon="-0.03612">
        <ele>159.2</ele>
        <time>2020-05-30T18:12:05Z</time>
      </trkpt>
      <trkpt lat="46.48736" lon="-0.03616">
        <ele>159.2</ele>
        <time>2020-05-30T18:12:06Z</time>
      </trkpt>
      <trkpt lat="46.48732" lon="-0.03619">
        <ele>159.3</ele>
        <time>2020-05-30T18:12:07Z</time>
      </trkpt>
      <trkpt lat="46.4873" lon="-0.03623">
        <ele>159.4</ele>
        <time>2020-05-30T18:12:08Z</time>
      </trkpt>
      <trkpt lat="46.48727" lon="-0.03626">
        <ele>159.5</ele>
        <time>2020-05-30T18:12:09Z</time>
      </trkpt>
      <trkpt lat="46.48725" lon="-0.0363">
        <ele>159.6</ele>
        <time>2020-05-30T18:12:10Z</time>
      </trkpt>
      <trkpt lat="46.48723" lon="-0.03634">
        <ele>159.7</ele>
        <time>2020-05-30T18:12:11Z</time>
      </trkpt>
      <trkpt lat="46.48721" lon="-0.03637">
        <ele>159.7</ele>
        <time>2020-05-30T18:12:12Z</time>
      </trkpt>
      <trkpt lat="46.48719" lon="-0.03641">
        <ele>159.8</ele>
        <time>2020-05-30T18:12:13Z</time>
      </trkpt>
      <trkpt lat="46.48716" lon="-0.03645">
        <ele>159.8</ele>
        <time>2020-05-30T18:12:14Z</time>
      </trkpt>
      <trkpt lat="46.48714" lon="-0.0365">
        <ele>159.8</ele>
        <time>2020-05-30T18:12:15Z</time>
      </trkpt>
      <trkpt lat="46.48712" lon="-0.03655">
        <ele>159.8</ele>
        <time>2020-05-30T18:12:16Z</time>
      </trkpt>
      <trkpt lat="46.48711" lon="-0.03659">
        <ele>159.8</ele>
        <time>2020-05-30T18:12:17Z</time>
      </trkpt>
      <trkpt lat="46.48709" lon="-0.03664">
        <ele>159.8</ele>
        <time>2020-05-30T18:12:18Z</time>
      </trkpt>
      <trkpt lat="46.48707" lon="-0.03668">
        <ele>159.8</ele>
        <time>2020-05-30T18:12:19Z</time>
      </trkpt>
      <trkpt lat="46.48704" lon="-0.03672">
        <ele>159.8</ele>
        <time>2020-05-30T18:12:20Z</time>
      </trkpt>
      <trkpt lat="46.48702" lon="-0.03676">
        <ele>159.8</ele>
        <time>2020-05-30T18:12:21Z</time>
      </trkpt>
      <trkpt lat="46.487" lon="-0.03681">
        <ele>159.8</ele>
        <time>2020-05-30T18:12:22Z</time>
      </trkpt>
      <trkpt lat="46.48697" lon="-0.03685">
        <ele>159.8</ele>
        <time>2020-05-30T18:12:23Z</time>
      </trkpt>
      <trkpt lat="46.48696" lon="-0.03689">
        <ele>159.8</ele>
        <time>2020-05-30T18:12:24Z</time>
      </trkpt>
      <trkpt lat="46.48694" lon="-0.03693">
        <ele>159.8</ele>
        <time>2020-05-30T18:12:25Z</time>
      </trkpt>
      <trkpt lat="46.48692" lon="-0.03698">
        <ele>159.8</ele>
        <time>2020-05-30T18:12:26Z</time>
      </trkpt>
      <trkpt lat="46.4869" lon="-0.03702">
        <ele>159.8</ele>
        <time>2020-05-30T18:12:27Z</time>
      </trkpt>
      <trkpt lat="46.48687" lon="-0.03706">
        <ele>159.8</ele>
        <time>2020-05-30T18:12:28Z</time>
      </trkpt>
      <trkpt lat="46.48685" lon="-0.03711">
        <ele>159.8</ele>
        <time>2020-05-30T18:12:29Z</time>
      </trkpt>
      <trkpt lat="46.48683" lon="-0.03715">
        <ele>159.8</ele>
        <time>2020-05-30T18:12:30Z</time>
      </trkpt>
      <trkpt lat="46.48681" lon="-0.03719">
        <ele>159.8</ele>
        <time>2020-05-30T18:12:31Z</time>
      </trkpt>
      <trkpt lat="46.48678" lon="-0.03723">
        <ele>159.8</ele>
        <time>2020-05-30T18:12:32Z</time>
      </trkpt>
      <trkpt lat="46.48676" lon="-0.03728">
        <ele>159.8</ele>
        <time>2020-05-30T18:12:33Z</time>
      </trkpt>
      <trkpt lat="46.48673" lon="-0.03732">
        <ele>159.8</ele>
        <time>2020-05-30T18:12:34Z</time>
      </trkpt>
      <trkpt lat="46.48671" lon="-0.03737">
        <ele>159.8</ele>
        <time>2020-05-30T18:12:35Z</time>
      </trkpt>
      <trkpt lat="46.4867" lon="-0.0374">
        <ele>159.8</ele>
        <time>2020-05-30T18:12:36Z</time>
      </trkpt>
      <trkpt lat="46.48668" lon="-0.03744">
        <ele>159.8</ele>
        <time>2020-05-30T18:12:37Z</time>
      </trkpt>
      <trkpt lat="46.48666" lon="-0.03749">
        <ele>159.9</ele>
        <time>2020-05-30T18:12:38Z</time>
      </trkpt>
      <trkpt lat="46.48663" lon="-0.03753">
        <ele>159.9</ele>
        <time>2020-05-30T18:12:39Z</time>
      </trkpt>
      <trkpt lat="46.48661" lon="-0.03758">
        <ele>160</ele>
        <time>2020-05-30T18:12:40Z</time>
      </trkpt>
      <trkpt lat="46.48659" lon="-0.03761">
        <ele>160.1</ele>
        <time>2020-05-30T18:12:41Z</time>
      </trkpt>
      <trkpt lat="46.48657" lon="-0.03765">
        <ele>160.2</ele>
        <time>2020-05-30T18:12:42Z</time>
      </trkpt>
      <trkpt lat="46.48655" lon="-0.03769">
        <ele>160.3</ele>
        <time>2020-05-30T18:12:43Z</time>
      </trkpt>
      <trkpt lat="46.48653" lon="-0.03772">
        <ele>160.4</ele>
        <time>2020-05-30T18:12:44Z</time>
      </trkpt>
      <trkpt lat="46.48651" lon="-0.03778">
        <ele>160.5</ele>
        <time>2020-05-30T18:12:45Z</time>
      </trkpt>
      <trkpt lat="46.48649" lon="-0.03781">
        <ele>160.6</ele>
        <time>2020-05-30T18:12:46Z</time>
      </trkpt>
      <trkpt lat="46.48647" lon="-0.03785">
        <ele>160.6</ele>
        <time>2020-05-30T18:12:47Z</time>
      </trkpt>
      <trkpt lat="46.48645" lon="-0.03789">
        <ele>160.7</ele>
        <time>2020-05-30T18:12:48Z</time>
      </trkpt>
      <trkpt lat="46.48644" lon="-0.03793">
        <ele>160.7</ele>
        <time>2020-05-30T18:12:49Z</time>
      </trkpt>
      <trkpt lat="46.48641" lon="-0.03797">
        <ele>160.7</ele>
        <time>2020-05-30T18:12:50Z</time>
      </trkpt>
      <trkpt lat="46.4864" lon="-0.038">
        <ele>160.7</ele>
        <time>2020-05-30T18:12:51Z</time>
      </trkpt>
      <trkpt lat="46.48637" lon="-0.03805">
        <ele>160.7</ele>
        <time>2020-05-30T18:12:52Z</time>
      </trkpt>
      <trkpt lat="46.48636" lon="-0.0381">
        <ele>160.7</ele>
        <time>2020-05-30T18:12:53Z</time>
      </trkpt>
      <trkpt lat="46.48633" lon="-0.03814">
        <ele>160.7</ele>
        <time>2020-05-30T18:12:54Z</time>
      </trkpt>
      <trkpt lat="46.4863" lon="-0.0382">
        <ele>160.7</ele>
        <time>2020-05-30T18:12:55Z</time>
      </trkpt>
      <trkpt lat="46.48629" lon="-0.03824">
        <ele>160.7</ele>
        <time>2020-05-30T18:12:56Z</time>
      </trkpt>
      <trkpt lat="46.48627" lon="-0.03829">
        <ele>160.7</ele>
        <time>2020-05-30T18:12:57Z</time>
      </trkpt>
      <trkpt lat="46.48625" lon="-0.03835">
        <ele>160.7</ele>
        <time>2020-05-30T18:12:58Z</time>
      </trkpt>
      <trkpt lat="46.48623" lon="-0.03839">
        <ele>160.7</ele>
        <time>2020-05-30T18:12:59Z</time>
      </trkpt>
      <trkpt lat="46.4862" lon="-0.03843">
        <ele>160.7</ele>
        <time>2020-05-30T18:13:00Z</time>
      </trkpt>
      <trkpt lat="46.48618" lon="-0.03847">
        <ele>160.7</ele>
        <time>2020-05-30T18:13:01Z</time>
      </trkpt>
      <trkpt lat="46.48616" lon="-0.03851">
        <ele>160.7</ele>
        <time>2020-05-30T18:13:02Z</time>
      </trkpt>
      <trkpt lat="46.48615" lon="-0.03856">
        <ele>160.7</ele>
        <time>2020-05-30T18:13:03Z</time>
      </trkpt>
      <trkpt lat="46.48613" lon="-0.03861">
        <ele>160.7</ele>
        <time>2020-05-30T18:13:04Z</time>
      </trkpt>
      <trkpt lat="46.48611" lon="-0.03865">
        <ele>160.7</ele>
        <time>2020-05-30T18:13:05Z</time>
      </trkpt>
      <trkpt lat="46.48609" lon="-0.0387">
        <ele>160.7</ele>
        <time>2020-05-30T18:13:06Z</time>
      </trkpt>
      <trkpt lat="46.48608" lon="-0.03872">
        <ele>160.7</ele>
        <time>2020-05-30T18:13:07Z</time>
      </trkpt>
      <trkpt lat="46.48606" lon="-0.03877">
        <ele>160.8</ele>
        <time>2020-05-30T18:13:08Z</time>
      </trkpt>
      <trkpt lat="46.48603" lon="-0.03881">
        <ele>160.8</ele>
        <time>2020-05-30T18:13:09Z</time>
      </trkpt>
      <trkpt lat="46.48601" lon="-0.03886">
        <ele>160.8</ele>
        <time>2020-05-30T18:13:10Z</time>
      </trkpt>
      <trkpt lat="46.48599" lon="-0.0389">
        <ele>160.8</ele>
        <time>2020-05-30T18:13:11Z</time>
      </trkpt>
      <trkpt lat="46.48596" lon="-0.03895">
        <ele>160.8</ele>
        <time>2020-05-30T18:13:12Z</time>
      </trkpt>
      <trkpt lat="46.48594" lon="-0.039">
        <ele>160.8</ele>
        <time>2020-05-30T18:13:13Z</time>
      </trkpt>
      <trkpt lat="46.48592" lon="-0.03904">
        <ele>160.8</ele>
        <time>2020-05-30T18:13:14Z</time>
      </trkpt>
      <trkpt lat="46.4859" lon="-0.03909">
        <ele>160.8</ele>
        <time>2020-05-30T18:13:15Z</time>
      </trkpt>
      <trkpt lat="46.48589" lon="-0.03913">
        <ele>160.8</ele>
        <time>2020-05-30T18:13:16Z</time>
      </trkpt>
      <trkpt lat="46.48588" lon="-0.03917">
        <ele>160.8</ele>
        <time>2020-05-30T18:13:17Z</time>
      </trkpt>
      <trkpt lat="46.48586" lon="-0.03923">
        <ele>160.8</ele>
        <time>2020-05-30T18:13:18Z</time>
      </trkpt>
      <trkpt lat="46.48584" lon="-0.03927">
        <ele>160.8</ele>
        <time>2020-05-30T18:13:19Z</time>
      </trkpt>
      <trkpt lat="46.48581" lon="-0.03931">
        <ele>160.9</ele>
        <time>2020-05-30T18:13:20Z</time>
      </trkpt>
      <trkpt lat="46.48579" lon="-0.03936">
        <ele>160.9</ele>
        <time>2020-05-30T18:13:21Z</time>
      </trkpt>
      <trkpt lat="46.48577" lon="-0.0394">
        <ele>160.9</ele>
        <time>2020-05-30T18:13:22Z</time>
      </trkpt>
      <trkpt lat="46.48575" lon="-0.03945">
        <ele>161</ele>
        <time>2020-05-30T18:13:23Z</time>
      </trkpt>
      <trkpt lat="46.48574" lon="-0.03951">
        <ele>161</ele>
        <time>2020-05-30T18:13:24Z</time>
      </trkpt>
      <trkpt lat="46.48572" lon="-0.03955">
        <ele>161.1</ele>
        <time>2020-05-30T18:13:25Z</time>
      </trkpt>
      <trkpt lat="46.4857" lon="-0.03959">
        <ele>161.2</ele>
        <time>2020-05-30T18:13:26Z</time>
      </trkpt>
      <trkpt lat="46.48568" lon="-0.03963">
        <ele>161.3</ele>
        <time>2020-05-30T18:13:27Z</time>
      </trkpt>
      <trkpt lat="46.48566" lon="-0.03967">
        <ele>161.4</ele>
        <time>2020-05-30T18:13:28Z</time>
      </trkpt>
      <trkpt lat="46.48563" lon="-0.03972">
        <ele>161.6</ele>
        <time>2020-05-30T18:13:29Z</time>
      </trkpt>
      <trkpt lat="46.4856" lon="-0.03976">
        <ele>161.7</ele>
        <time>2020-05-30T18:13:30Z</time>
      </trkpt>
      <trkpt lat="46.48559" lon="-0.0398">
        <ele>161.8</ele>
        <time>2020-05-30T18:13:31Z</time>
      </trkpt>
      <trkpt lat="46.48556" lon="-0.03984">
        <ele>161.8</ele>
        <time>2020-05-30T18:13:32Z</time>
      </trkpt>
      <trkpt lat="46.48554" lon="-0.03987">
        <ele>161.9</ele>
        <time>2020-05-30T18:13:33Z</time>
      </trkpt>
      <trkpt lat="46.48552" lon="-0.03991">
        <ele>161.9</ele>
        <time>2020-05-30T18:13:34Z</time>
      </trkpt>
      <trkpt lat="46.4855" lon="-0.03994">
        <ele>161.9</ele>
        <time>2020-05-30T18:13:35Z</time>
      </trkpt>
      <trkpt lat="46.48548" lon="-0.03998">
        <ele>161.9</ele>
        <time>2020-05-30T18:13:36Z</time>
      </trkpt>
      <trkpt lat="46.48545" lon="-0.04001">
        <ele>161.9</ele>
        <time>2020-05-30T18:13:37Z</time>
      </trkpt>
      <trkpt lat="46.48542" lon="-0.04006">
        <ele>162</ele>
        <time>2020-05-30T18:13:38Z</time>
      </trkpt>
      <trkpt lat="46.4854" lon="-0.0401">
        <ele>162</ele>
        <time>2020-05-30T18:13:39Z</time>
      </trkpt>
      <trkpt lat="46.48537" lon="-0.04014">
        <ele>162</ele>
        <time>2020-05-30T18:13:40Z</time>
      </trkpt>
      <trkpt lat="46.48534" lon="-0.04018">
        <ele>162</ele>
        <time>2020-05-30T18:13:41Z</time>
      </trkpt>
      <trkpt lat="46.48531" lon="-0.04022">
        <ele>162</ele>
        <time>2020-05-30T18:13:42Z</time>
      </trkpt>
      <trkpt lat="46.48528" lon="-0.04026">
        <ele>162.1</ele>
        <time>2020-05-30T18:13:43Z</time>
      </trkpt>
      <trkpt lat="46.48525" lon="-0.0403">
        <ele>162.1</ele>
        <time>2020-05-30T18:13:44Z</time>
      </trkpt>
      <trkpt lat="46.48523" lon="-0.04034">
        <ele>162.2</ele>
        <time>2020-05-30T18:13:45Z</time>
      </trkpt>
      <trkpt lat="46.48519" lon="-0.04038">
        <ele>162.3</ele>
        <time>2020-05-30T18:13:46Z</time>
      </trkpt>
      <trkpt lat="46.48517" lon="-0.04041">
        <ele>162.5</ele>
        <time>2020-05-30T18:13:47Z</time>
      </trkpt>
      <trkpt lat="46.48514" lon="-0.04044">
        <ele>162.6</ele>
        <time>2020-05-30T18:13:48Z</time>
      </trkpt>
      <trkpt lat="46.48511" lon="-0.04047">
        <ele>162.7</ele>
        <time>2020-05-30T18:13:49Z</time>
      </trkpt>
      <trkpt lat="46.48509" lon="-0.0405">
        <ele>162.8</ele>
        <time>2020-05-30T18:13:50Z</time>
      </trkpt>
      <trkpt lat="46.48507" lon="-0.04054">
        <ele>162.9</ele>
        <time>2020-05-30T18:13:51Z</time>
      </trkpt>
      <trkpt lat="46.48504" lon="-0.04058">
        <ele>163</ele>
        <time>2020-05-30T18:13:52Z</time>
      </trkpt>
      <trkpt lat="46.48503" lon="-0.0406">
        <ele>163</ele>
        <time>2020-05-30T18:13:53Z</time>
      </trkpt>
      <trkpt lat="46.48501" lon="-0.04063">
        <ele>163</ele>
        <time>2020-05-30T18:13:54Z</time>
      </trkpt>
      <trkpt lat="46.48499" lon="-0.04067">
        <ele>163.1</ele>
        <time>2020-05-30T18:13:55Z</time>
      </trkpt>
      <trkpt lat="46.48497" lon="-0.04071">
        <ele>163.1</ele>
        <time>2020-05-30T18:13:56Z</time>
      </trkpt>
      <trkpt lat="46.48495" lon="-0.04075">
        <ele>163.1</ele>
        <time>2020-05-30T18:13:57Z</time>
      </trkpt>
      <trkpt lat="46.48493" lon="-0.04079">
        <ele>163.2</ele>
        <time>2020-05-30T18:13:58Z</time>
      </trkpt>
      <trkpt lat="46.48491" lon="-0.04081">
        <ele>163.2</ele>
        <time>2020-05-30T18:13:59Z</time>
      </trkpt>
      <trkpt lat="46.48488" lon="-0.04085">
        <ele>163.3</ele>
        <time>2020-05-30T18:14:00Z</time>
      </trkpt>
      <trkpt lat="46.48486" lon="-0.04089">
        <ele>163.4</ele>
        <time>2020-05-30T18:14:01Z</time>
      </trkpt>
      <trkpt lat="46.48483" lon="-0.04092">
        <ele>163.5</ele>
        <time>2020-05-30T18:14:02Z</time>
      </trkpt>
      <trkpt lat="46.4848" lon="-0.04096">
        <ele>163.7</ele>
        <time>2020-05-30T18:14:03Z</time>
      </trkpt>
      <trkpt lat="46.48478" lon="-0.04099">
        <ele>163.8</ele>
        <time>2020-05-30T18:14:04Z</time>
      </trkpt>
      <trkpt lat="46.48476" lon="-0.04102">
        <ele>164</ele>
        <time>2020-05-30T18:14:05Z</time>
      </trkpt>
      <trkpt lat="46.48473" lon="-0.04106">
        <ele>164.1</ele>
        <time>2020-05-30T18:14:06Z</time>
      </trkpt>
      <trkpt lat="46.48471" lon="-0.0411">
        <ele>164.3</ele>
        <time>2020-05-30T18:14:07Z</time>
      </trkpt>
      <trkpt lat="46.48469" lon="-0.04114">
        <ele>164.4</ele>
        <time>2020-05-30T18:14:08Z</time>
      </trkpt>
      <trkpt lat="46.48467" lon="-0.0412">
        <ele>164.6</ele>
        <time>2020-05-30T18:14:09Z</time>
      </trkpt>
      <trkpt lat="46.48466" lon="-0.04122">
        <ele>164.6</ele>
        <time>2020-05-30T18:14:10Z</time>
      </trkpt>
      <trkpt lat="46.48465" lon="-0.04127">
        <ele>164.8</ele>
        <time>2020-05-30T18:14:11Z</time>
      </trkpt>
      <trkpt lat="46.48463" lon="-0.04132">
        <ele>164.9</ele>
        <time>2020-05-30T18:14:12Z</time>
      </trkpt>
      <trkpt lat="46.48462" lon="-0.04134">
        <ele>165</ele>
        <time>2020-05-30T18:14:13Z</time>
      </trkpt>
      <trkpt lat="46.4846" lon="-0.04137">
        <ele>165.1</ele>
        <time>2020-05-30T18:14:14Z</time>
      </trkpt>
      <trkpt lat="46.48459" lon="-0.04141">
        <ele>165.2</ele>
        <time>2020-05-30T18:14:15Z</time>
      </trkpt>
      <trkpt lat="46.48457" lon="-0.04146">
        <ele>165.3</ele>
        <time>2020-05-30T18:14:16Z</time>
      </trkpt>
      <trkpt lat="46.48456" lon="-0.04147">
        <ele>165.3</ele>
        <time>2020-05-30T18:14:17Z</time>
      </trkpt>
      <trkpt lat="46.48454" lon="-0.0415">
        <ele>165.4</ele>
        <time>2020-05-30T18:14:18Z</time>
      </trkpt>
      <trkpt lat="46.48452" lon="-0.04154">
        <ele>165.5</ele>
        <time>2020-05-30T18:14:19Z</time>
      </trkpt>
      <trkpt lat="46.48451" lon="-0.04156">
        <ele>165.6</ele>
        <time>2020-05-30T18:14:20Z</time>
      </trkpt>
      <trkpt lat="46.4845" lon="-0.04161">
        <ele>165.7</ele>
        <time>2020-05-30T18:14:21Z</time>
      </trkpt>
      <trkpt lat="46.48449" lon="-0.04164">
        <ele>165.8</ele>
        <time>2020-05-30T18:14:22Z</time>
      </trkpt>
      <trkpt lat="46.48447" lon="-0.04169">
        <ele>166</ele>
        <time>2020-05-30T18:14:23Z</time>
      </trkpt>
      <trkpt lat="46.48445" lon="-0.04173">
        <ele>166.2</ele>
        <time>2020-05-30T18:14:24Z</time>
      </trkpt>
      <trkpt lat="46.48443" lon="-0.04177">
        <ele>166.3</ele>
        <time>2020-05-30T18:14:25Z</time>
      </trkpt>
      <trkpt lat="46.48442" lon="-0.04181">
        <ele>166.5</ele>
        <time>2020-05-30T18:14:26Z</time>
      </trkpt>
      <trkpt lat="46.48442" lon="-0.04183">
        <ele>166.5</ele>
        <time>2020-05-30T18:14:27Z</time>
      </trkpt>
      <trkpt lat="46.48439" lon="-0.04188">
        <ele>166.8</ele>
        <time>2020-05-30T18:14:28Z</time>
      </trkpt>
      <trkpt lat="46.48438" lon="-0.04191">
        <ele>166.9</ele>
        <time>2020-05-30T18:14:29Z</time>
      </trkpt>
      <trkpt lat="46.48436" lon="-0.04195">
        <ele>167</ele>
        <time>2020-05-30T18:14:30Z</time>
      </trkpt>
      <trkpt lat="46.48435" lon="-0.04199">
        <ele>167.2</ele>
        <time>2020-05-30T18:14:31Z</time>
      </trkpt>
      <trkpt lat="46.48433" lon="-0.04203">
        <ele>167.4</ele>
        <time>2020-05-30T18:14:32Z</time>
      </trkpt>
      <trkpt lat="46.48432" lon="-0.04209">
        <ele>167.6</ele>
        <time>2020-05-30T18:14:33Z</time>
      </trkpt>
      <trkpt lat="46.48431" lon="-0.04211">
        <ele>167.7</ele>
        <time>2020-05-30T18:14:34Z</time>
      </trkpt>
      <trkpt lat="46.4843" lon="-0.04216">
        <ele>167.8</ele>
        <time>2020-05-30T18:14:35Z</time>
      </trkpt>
      <trkpt lat="46.48429" lon="-0.04218">
        <ele>167.9</ele>
        <time>2020-05-30T18:14:36Z</time>
      </trkpt>
      <trkpt lat="46.48427" lon="-0.04223">
        <ele>168</ele>
        <time>2020-05-30T18:14:37Z</time>
      </trkpt>
      <trkpt lat="46.48426" lon="-0.04225">
        <ele>168.1</ele>
        <time>2020-05-30T18:14:38Z</time>
      </trkpt>
      <trkpt lat="46.48423" lon="-0.04228">
        <ele>168.2</ele>
        <time>2020-05-30T18:14:39Z</time>
      </trkpt>
      <trkpt lat="46.48421" lon="-0.04233">
        <ele>168.2</ele>
        <time>2020-05-30T18:14:40Z</time>
      </trkpt>
      <trkpt lat="46.48421" lon="-0.04234">
        <ele>168.2</ele>
        <time>2020-05-30T18:14:41Z</time>
      </trkpt>
      <trkpt lat="46.48419" lon="-0.04238">
        <ele>168.3</ele>
        <time>2020-05-30T18:14:42Z</time>
      </trkpt>
      <trkpt lat="46.48417" lon="-0.04242">
        <ele>168.3</ele>
        <time>2020-05-30T18:14:43Z</time>
      </trkpt>
      <trkpt lat="46.48415" lon="-0.04246">
        <ele>168.3</ele>
        <time>2020-05-30T18:14:44Z</time>
      </trkpt>
      <trkpt lat="46.48413" lon="-0.0425">
        <ele>168.3</ele>
        <time>2020-05-30T18:14:45Z</time>
      </trkpt>
      <trkpt lat="46.48411" lon="-0.04255">
        <ele>168.4</ele>
        <time>2020-05-30T18:14:46Z</time>
      </trkpt>
      <trkpt lat="46.4841" lon="-0.0426">
        <ele>168.4</ele>
        <time>2020-05-30T18:14:47Z</time>
      </trkpt>
      <trkpt lat="46.48408" lon="-0.04264">
        <ele>168.4</ele>
        <time>2020-05-30T18:14:48Z</time>
      </trkpt>
      <trkpt lat="46.48406" lon="-0.04269">
        <ele>168.4</ele>
        <time>2020-05-30T18:14:49Z</time>
      </trkpt>
      <trkpt lat="46.48405" lon="-0.04272">
        <ele>168.4</ele>
        <time>2020-05-30T18:14:50Z</time>
      </trkpt>
      <trkpt lat="46.48403" lon="-0.04278">
        <ele>168.4</ele>
        <time>2020-05-30T18:14:51Z</time>
      </trkpt>
      <trkpt lat="46.48401" lon="-0.04282">
        <ele>168.4</ele>
        <time>2020-05-30T18:14:52Z</time>
      </trkpt>
      <trkpt lat="46.48399" lon="-0.04286">
        <ele>168.4</ele>
        <time>2020-05-30T18:14:53Z</time>
      </trkpt>
      <trkpt lat="46.48398" lon="-0.04291">
        <ele>168.3</ele>
        <time>2020-05-30T18:14:54Z</time>
      </trkpt>
      <trkpt lat="46.48396" lon="-0.04295">
        <ele>168.3</ele>
        <time>2020-05-30T18:14:55Z</time>
      </trkpt>
      <trkpt lat="46.48395" lon="-0.043">
        <ele>168.2</ele>
        <time>2020-05-30T18:14:56Z</time>
      </trkpt>
      <trkpt lat="46.48393" lon="-0.04305">
        <ele>168.1</ele>
        <time>2020-05-30T18:14:57Z</time>
      </trkpt>
      <trkpt lat="46.48392" lon="-0.04311">
        <ele>168</ele>
        <time>2020-05-30T18:14:58Z</time>
      </trkpt>
      <trkpt lat="46.4839" lon="-0.04316">
        <ele>167.9</ele>
        <time>2020-05-30T18:14:59Z</time>
      </trkpt>
      <trkpt lat="46.4839" lon="-0.04321">
        <ele>167.8</ele>
        <time>2020-05-30T18:15:00Z</time>
      </trkpt>
      <trkpt lat="46.48389" lon="-0.04324">
        <ele>167.7</ele>
        <time>2020-05-30T18:15:01Z</time>
      </trkpt>
      <trkpt lat="46.48389" lon="-0.0433">
        <ele>167.6</ele>
        <time>2020-05-30T18:15:02Z</time>
      </trkpt>
      <trkpt lat="46.48388" lon="-0.04335">
        <ele>167.6</ele>
        <time>2020-05-30T18:15:03Z</time>
      </trkpt>
      <trkpt lat="46.48388" lon="-0.04339">
        <ele>167.5</ele>
        <time>2020-05-30T18:15:04Z</time>
      </trkpt>
      <trkpt lat="46.48387" lon="-0.04347">
        <ele>167.5</ele>
        <time>2020-05-30T18:15:05Z</time>
      </trkpt>
      <trkpt lat="46.48385" lon="-0.04354">
        <ele>167.5</ele>
        <time>2020-05-30T18:15:06Z</time>
      </trkpt>
      <trkpt lat="46.48384" lon="-0.04361">
        <ele>167.5</ele>
        <time>2020-05-30T18:15:07Z</time>
      </trkpt>
      <trkpt lat="46.48382" lon="-0.04365">
        <ele>167.5</ele>
        <time>2020-05-30T18:15:08Z</time>
      </trkpt>
      <trkpt lat="46.48381" lon="-0.04372">
        <ele>167.4</ele>
        <time>2020-05-30T18:15:09Z</time>
      </trkpt>
      <trkpt lat="46.4838" lon="-0.0438">
        <ele>167.4</ele>
        <time>2020-05-30T18:15:10Z</time>
      </trkpt>
      <trkpt lat="46.48379" lon="-0.04387">
        <ele>167.3</ele>
        <time>2020-05-30T18:15:11Z</time>
      </trkpt>
      <trkpt lat="46.48378" lon="-0.04393">
        <ele>167.2</ele>
        <time>2020-05-30T18:15:12Z</time>
      </trkpt>
      <trkpt lat="46.48377" lon="-0.044">
        <ele>167</ele>
        <time>2020-05-30T18:15:13Z</time>
      </trkpt>
      <trkpt lat="46.48375" lon="-0.04407">
        <ele>166.9</ele>
        <time>2020-05-30T18:15:14Z</time>
      </trkpt>
      <trkpt lat="46.48375" lon="-0.04415">
        <ele>166.8</ele>
        <time>2020-05-30T18:15:15Z</time>
      </trkpt>
      <trkpt lat="46.48375" lon="-0.04422">
        <ele>166.7</ele>
        <time>2020-05-30T18:15:16Z</time>
      </trkpt>
      <trkpt lat="46.48374" lon="-0.04429">
        <ele>166.6</ele>
        <time>2020-05-30T18:15:17Z</time>
      </trkpt>
      <trkpt lat="46.48373" lon="-0.04436">
        <ele>166.6</ele>
        <time>2020-05-30T18:15:18Z</time>
      </trkpt>
      <trkpt lat="46.48372" lon="-0.04442">
        <ele>166.5</ele>
        <time>2020-05-30T18:15:19Z</time>
      </trkpt>
      <trkpt lat="46.4837" lon="-0.04448">
        <ele>166.4</ele>
        <time>2020-05-30T18:15:20Z</time>
      </trkpt>
      <trkpt lat="46.48369" lon="-0.04455">
        <ele>166.3</ele>
        <time>2020-05-30T18:15:21Z</time>
      </trkpt>
      <trkpt lat="46.48368" lon="-0.04462">
        <ele>166.1</ele>
        <time>2020-05-30T18:15:22Z</time>
      </trkpt>
      <trkpt lat="46.48367" lon="-0.04468">
        <ele>166</ele>
        <time>2020-05-30T18:15:23Z</time>
      </trkpt>
      <trkpt lat="46.48367" lon="-0.04475">
        <ele>165.9</ele>
        <time>2020-05-30T18:15:24Z</time>
      </trkpt>
      <trkpt lat="46.48365" lon="-0.04482">
        <ele>165.8</ele>
        <time>2020-05-30T18:15:25Z</time>
      </trkpt>
      <trkpt lat="46.48364" lon="-0.04489">
        <ele>165.7</ele>
        <time>2020-05-30T18:15:26Z</time>
      </trkpt>
      <trkpt lat="46.48363" lon="-0.04495">
        <ele>165.7</ele>
        <time>2020-05-30T18:15:27Z</time>
      </trkpt>
      <trkpt lat="46.48362" lon="-0.04503">
        <ele>165.7</ele>
        <time>2020-05-30T18:15:28Z</time>
      </trkpt>
      <trkpt lat="46.48361" lon="-0.04509">
        <ele>165.7</ele>
        <time>2020-05-30T18:15:29Z</time>
      </trkpt>
      <trkpt lat="46.48359" lon="-0.04515">
        <ele>165.7</ele>
        <time>2020-05-30T18:15:30Z</time>
      </trkpt>
      <trkpt lat="46.48358" lon="-0.04522">
        <ele>165.8</ele>
        <time>2020-05-30T18:15:31Z</time>
      </trkpt>
      <trkpt lat="46.48355" lon="-0.04527">
        <ele>165.8</ele>
        <time>2020-05-30T18:15:32Z</time>
      </trkpt>
      <trkpt lat="46.48354" lon="-0.04533">
        <ele>165.9</ele>
        <time>2020-05-30T18:15:33Z</time>
      </trkpt>
      <trkpt lat="46.48352" lon="-0.0454">
        <ele>166</ele>
        <time>2020-05-30T18:15:34Z</time>
      </trkpt>
      <trkpt lat="46.4835" lon="-0.04548">
        <ele>166.2</ele>
        <time>2020-05-30T18:15:35Z</time>
      </trkpt>
      <trkpt lat="46.48348" lon="-0.04554">
        <ele>166.3</ele>
        <time>2020-05-30T18:15:36Z</time>
      </trkpt>
      <trkpt lat="46.48347" lon="-0.0456">
        <ele>166.4</ele>
        <time>2020-05-30T18:15:37Z</time>
      </trkpt>
      <trkpt lat="46.48345" lon="-0.04566">
        <ele>166.6</ele>
        <time>2020-05-30T18:15:38Z</time>
      </trkpt>
      <trkpt lat="46.48344" lon="-0.04574">
        <ele>166.7</ele>
        <time>2020-05-30T18:15:39Z</time>
      </trkpt>
      <trkpt lat="46.48342" lon="-0.0458">
        <ele>166.7</ele>
        <time>2020-05-30T18:15:40Z</time>
      </trkpt>
      <trkpt lat="46.4834" lon="-0.04586">
        <ele>166.8</ele>
        <time>2020-05-30T18:15:41Z</time>
      </trkpt>
      <trkpt lat="46.48338" lon="-0.04591">
        <ele>166.8</ele>
        <time>2020-05-30T18:15:42Z</time>
      </trkpt>
      <trkpt lat="46.48336" lon="-0.04597">
        <ele>166.8</ele>
        <time>2020-05-30T18:15:43Z</time>
      </trkpt>
      <trkpt lat="46.48334" lon="-0.04603">
        <ele>166.8</ele>
        <time>2020-05-30T18:15:44Z</time>
      </trkpt>
      <trkpt lat="46.48332" lon="-0.0461">
        <ele>166.9</ele>
        <time>2020-05-30T18:15:45Z</time>
      </trkpt>
      <trkpt lat="46.4833" lon="-0.04617">
        <ele>166.9</ele>
        <time>2020-05-30T18:15:46Z</time>
      </trkpt>
      <trkpt lat="46.48327" lon="-0.04625">
        <ele>167</ele>
        <time>2020-05-30T18:15:47Z</time>
      </trkpt>
      <trkpt lat="46.48325" lon="-0.04633">
        <ele>167.1</ele>
        <time>2020-05-30T18:15:48Z</time>
      </trkpt>
      <trkpt lat="46.48325" lon="-0.0464">
        <ele>167.2</ele>
        <time>2020-05-30T18:15:49Z</time>
      </trkpt>
      <trkpt lat="46.48323" lon="-0.04647">
        <ele>167.4</ele>
        <time>2020-05-30T18:15:50Z</time>
      </trkpt>
      <trkpt lat="46.48321" lon="-0.04652">
        <ele>167.5</ele>
        <time>2020-05-30T18:15:51Z</time>
      </trkpt>
      <trkpt lat="46.48319" lon="-0.04659">
        <ele>167.6</ele>
        <time>2020-05-30T18:15:52Z</time>
      </trkpt>
      <trkpt lat="46.48317" lon="-0.04665">
        <ele>167.7</ele>
        <time>2020-05-30T18:15:53Z</time>
      </trkpt>
      <trkpt lat="46.48315" lon="-0.04672">
        <ele>167.7</ele>
        <time>2020-05-30T18:15:54Z</time>
      </trkpt>
      <trkpt lat="46.48315" lon="-0.04677">
        <ele>167.7</ele>
        <time>2020-05-30T18:15:55Z</time>
      </trkpt>
      <trkpt lat="46.48315" lon="-0.04683">
        <ele>167.6</ele>
        <time>2020-05-30T18:15:56Z</time>
      </trkpt>
      <trkpt lat="46.48314" lon="-0.04689">
        <ele>167.4</ele>
        <time>2020-05-30T18:15:57Z</time>
      </trkpt>
      <trkpt lat="46.48312" lon="-0.04696">
        <ele>167.2</ele>
        <time>2020-05-30T18:15:58Z</time>
      </trkpt>
      <trkpt lat="46.48312" lon="-0.04702">
        <ele>167</ele>
        <time>2020-05-30T18:15:59Z</time>
      </trkpt>
      <trkpt lat="46.48311" lon="-0.04707">
        <ele>167.1</ele>
        <time>2020-05-30T18:16:00Z</time>
      </trkpt>
      <trkpt lat="46.48311" lon="-0.04712">
        <ele>167.1</ele>
        <time>2020-05-30T18:16:01Z</time>
      </trkpt>
      <trkpt lat="46.48311" lon="-0.04714">
        <ele>167.1</ele>
        <time>2020-05-30T18:16:02Z</time>
      </trkpt>
      <trkpt lat="46.48311" lon="-0.0472">
        <ele>167.1</ele>
        <time>2020-05-30T18:16:03Z</time>
      </trkpt>
      <trkpt lat="46.48311" lon="-0.04723">
        <ele>167.2</ele>
        <time>2020-05-30T18:16:04Z</time>
      </trkpt>
      <trkpt lat="46.48312" lon="-0.04726">
        <ele>167.2</ele>
        <time>2020-05-30T18:16:05Z</time>
      </trkpt>
      <trkpt lat="46.48311" lon="-0.04726">
        <ele>167.2</ele>
        <time>2020-05-30T18:16:06Z</time>
      </trkpt>
      <trkpt lat="46.4831" lon="-0.04727">
        <ele>167.2</ele>
        <time>2020-05-30T18:16:07Z</time>
      </trkpt>
      <trkpt lat="46.4831" lon="-0.04727">
        <ele>167.2</ele>
        <time>2020-05-30T18:16:08Z</time>
      </trkpt>
      <trkpt lat="46.4831" lon="-0.04728">
        <ele>167.2</ele>
        <time>2020-05-30T18:16:09Z</time>
      </trkpt>
      <trkpt lat="46.48311" lon="-0.04727">
        <ele>167.2</ele>
        <time>2020-05-30T18:16:10Z</time>
      </trkpt>
      <trkpt lat="46.48311" lon="-0.04725">
        <ele>167.2</ele>
        <time>2020-05-30T18:16:11Z</time>
      </trkpt>
      <trkpt lat="46.48311" lon="-0.04724">
        <ele>167.2</ele>
        <time>2020-05-30T18:16:12Z</time>
      </trkpt>
      <trkpt lat="46.48311" lon="-0.04724">
        <ele>167.2</ele>
        <time>2020-05-30T18:16:13Z</time>
      </trkpt>
      <trkpt lat="46.4831" lon="-0.04724">
        <ele>167.2</ele>
        <time>2020-05-30T18:16:14Z</time>
      </trkpt>
      <trkpt lat="46.48311" lon="-0.04726">
        <ele>167.2</ele>
        <time>2020-05-30T18:16:15Z</time>
      </trkpt>
      <trkpt lat="46.4831" lon="-0.04727">
        <ele>167.1</ele>
        <time>2020-05-30T18:16:16Z</time>
      </trkpt>
      <trkpt lat="46.48309" lon="-0.04727">
        <ele>167.1</ele>
        <time>2020-05-30T18:16:17Z</time>
      </trkpt>
      <trkpt lat="46.48309" lon="-0.04729">
        <ele>167.1</ele>
        <time>2020-05-30T18:16:18Z</time>
      </trkpt>
      <trkpt lat="46.48309" lon="-0.04728">
        <ele>167.1</ele>
        <time>2020-05-30T18:16:19Z</time>
      </trkpt>
      <trkpt lat="46.48309" lon="-0.04728">
        <ele>167.1</ele>
        <time>2020-05-30T18:16:20Z</time>
      </trkpt>
      <trkpt lat="46.48309" lon="-0.04728">
        <ele>167.1</ele>
        <time>2020-05-30T18:16:21Z</time>
      </trkpt>
      <trkpt lat="46.48309" lon="-0.04728">
        <ele>167.1</ele>
        <time>2020-05-30T18:16:22Z</time>
      </trkpt>
      <trkpt lat="46.4831" lon="-0.04728">
        <ele>167.1</ele>
        <time>2020-05-30T18:16:23Z</time>
      </trkpt>
      <trkpt lat="46.4831" lon="-0.04728">
        <ele>167.1</ele>
        <time>2020-05-30T18:16:24Z</time>
      </trkpt>
      <trkpt lat="46.4831" lon="-0.04728">
        <ele>167.1</ele>
        <time>2020-05-30T18:16:25Z</time>
      </trkpt>
      <trkpt lat="46.4831" lon="-0.04728">
        <ele>167.1</ele>
        <time>2020-05-30T18:16:26Z</time>
      </trkpt>
      <trkpt lat="46.4831" lon="-0.04728">
        <ele>167.1</ele>
        <time>2020-05-30T18:16:27Z</time>
      </trkpt>
      <trkpt lat="46.4831" lon="-0.04728">
        <ele>167.1</ele>
        <time>2020-05-30T18:16:28Z</time>
      </trkpt>
      <trkpt lat="46.4831" lon="-0.04728">
        <ele>167.1</ele>
        <time>2020-05-30T18:16:29Z</time>
      </trkpt>
      <trkpt lat="46.48308" lon="-0.0473">
        <ele>167.1</ele>
        <time>2020-05-30T18:16:30Z</time>
      </trkpt>
      <trkpt lat="46.48309" lon="-0.04735">
        <ele>167.1</ele>
        <time>2020-05-30T18:16:31Z</time>
      </trkpt>
      <trkpt lat="46.48309" lon="-0.04737">
        <ele>167.1</ele>
        <time>2020-05-30T18:16:32Z</time>
      </trkpt>
      <trkpt lat="46.48312" lon="-0.04742">
        <ele>167.2</ele>
        <time>2020-05-30T18:16:33Z</time>
      </trkpt>
      <trkpt lat="46.48313" lon="-0.04748">
        <ele>167.2</ele>
        <time>2020-05-30T18:16:34Z</time>
      </trkpt>
      <trkpt lat="46.48315" lon="-0.04753">
        <ele>167.3</ele>
        <time>2020-05-30T18:16:35Z</time>
      </trkpt>
      <trkpt lat="46.48316" lon="-0.04756">
        <ele>167.4</ele>
        <time>2020-05-30T18:16:36Z</time>
      </trkpt>
      <trkpt lat="46.48317" lon="-0.04762">
        <ele>167.5</ele>
        <time>2020-05-30T18:16:37Z</time>
      </trkpt>
      <trkpt lat="46.48318" lon="-0.04766">
        <ele>167.6</ele>
        <time>2020-05-30T18:16:38Z</time>
      </trkpt>
      <trkpt lat="46.4832" lon="-0.04772">
        <ele>167.7</ele>
        <time>2020-05-30T18:16:39Z</time>
      </trkpt>
      <trkpt lat="46.48322" lon="-0.04777">
        <ele>167.8</ele>
        <time>2020-05-30T18:16:40Z</time>
      </trkpt>
      <trkpt lat="46.48323" lon="-0.04782">
        <ele>167.9</ele>
        <time>2020-05-30T18:16:41Z</time>
      </trkpt>
      <trkpt lat="46.48324" lon="-0.04788">
        <ele>168</ele>
        <time>2020-05-30T18:16:42Z</time>
      </trkpt>
      <trkpt lat="46.48324" lon="-0.04796">
        <ele>168.1</ele>
        <time>2020-05-30T18:16:43Z</time>
      </trkpt>
      <trkpt lat="46.48324" lon="-0.04801">
        <ele>168.2</ele>
        <time>2020-05-30T18:16:44Z</time>
      </trkpt>
      <trkpt lat="46.48323" lon="-0.04807">
        <ele>168.3</ele>
        <time>2020-05-30T18:16:45Z</time>
      </trkpt>
      <trkpt lat="46.48324" lon="-0.04813">
        <ele>168.3</ele>
        <time>2020-05-30T18:16:46Z</time>
      </trkpt>
      <trkpt lat="46.48323" lon="-0.0482">
        <ele>168.4</ele>
        <time>2020-05-30T18:16:47Z</time>
      </trkpt>
      <trkpt lat="46.48324" lon="-0.04826">
        <ele>168.4</ele>
        <time>2020-05-30T18:16:48Z</time>
      </trkpt>
      <trkpt lat="46.48324" lon="-0.04833">
        <ele>168.5</ele>
        <time>2020-05-30T18:16:49Z</time>
      </trkpt>
      <trkpt lat="46.48323" lon="-0.0484">
        <ele>168.5</ele>
        <time>2020-05-30T18:16:50Z</time>
      </trkpt>
      <trkpt lat="46.48323" lon="-0.04846">
        <ele>168.5</ele>
        <time>2020-05-30T18:16:51Z</time>
      </trkpt>
      <trkpt lat="46.48324" lon="-0.04851">
        <ele>168.5</ele>
        <time>2020-05-30T18:16:52Z</time>
      </trkpt>
      <trkpt lat="46.48324" lon="-0.04858">
        <ele>168.5</ele>
        <time>2020-05-30T18:16:53Z</time>
      </trkpt>
      <trkpt lat="46.48323" lon="-0.04864">
        <ele>168.5</ele>
        <time>2020-05-30T18:16:54Z</time>
      </trkpt>
      <trkpt lat="46.48324" lon="-0.04869">
        <ele>168.5</ele>
        <time>2020-05-30T18:16:55Z</time>
      </trkpt>
      <trkpt lat="46.48323" lon="-0.04875">
        <ele>168.5</ele>
        <time>2020-05-30T18:16:56Z</time>
      </trkpt>
      <trkpt lat="46.48323" lon="-0.04881">
        <ele>168.5</ele>
        <time>2020-05-30T18:16:57Z</time>
      </trkpt>
      <trkpt lat="46.48323" lon="-0.04889">
        <ele>168.5</ele>
        <time>2020-05-30T18:16:58Z</time>
      </trkpt>
      <trkpt lat="46.48323" lon="-0.04894">
        <ele>168.5</ele>
        <time>2020-05-30T18:16:59Z</time>
      </trkpt>
      <trkpt lat="46.48324" lon="-0.049">
        <ele>168.5</ele>
        <time>2020-05-30T18:17:00Z</time>
      </trkpt>
      <trkpt lat="46.48324" lon="-0.04906">
        <ele>168.5</ele>
        <time>2020-05-30T18:17:01Z</time>
      </trkpt>
      <trkpt lat="46.48323" lon="-0.04912">
        <ele>168.5</ele>
        <time>2020-05-30T18:17:02Z</time>
      </trkpt>
      <trkpt lat="46.48324" lon="-0.04918">
        <ele>168.5</ele>
        <time>2020-05-30T18:17:03Z</time>
      </trkpt>
      <trkpt lat="46.48324" lon="-0.04926">
        <ele>168.6</ele>
        <time>2020-05-30T18:17:04Z</time>
      </trkpt>
      <trkpt lat="46.48325" lon="-0.04933">
        <ele>168.6</ele>
        <time>2020-05-30T18:17:05Z</time>
      </trkpt>
      <trkpt lat="46.48324" lon="-0.0494">
        <ele>168.6</ele>
        <time>2020-05-30T18:17:06Z</time>
      </trkpt>
      <trkpt lat="46.48325" lon="-0.04946">
        <ele>168.7</ele>
        <time>2020-05-30T18:17:07Z</time>
      </trkpt>
      <trkpt lat="46.48325" lon="-0.04953">
        <ele>168.7</ele>
        <time>2020-05-30T18:17:08Z</time>
      </trkpt>
      <trkpt lat="46.48325" lon="-0.0496">
        <ele>168.7</ele>
        <time>2020-05-30T18:17:09Z</time>
      </trkpt>
      <trkpt lat="46.48325" lon="-0.04967">
        <ele>168.7</ele>
        <time>2020-05-30T18:17:10Z</time>
      </trkpt>
      <trkpt lat="46.48325" lon="-0.04974">
        <ele>168.8</ele>
        <time>2020-05-30T18:17:11Z</time>
      </trkpt>
      <trkpt lat="46.48325" lon="-0.04981">
        <ele>168.8</ele>
        <time>2020-05-30T18:17:12Z</time>
      </trkpt>
      <trkpt lat="46.48326" lon="-0.04989">
        <ele>168.8</ele>
        <time>2020-05-30T18:17:13Z</time>
      </trkpt>
      <trkpt lat="46.48327" lon="-0.04995">
        <ele>168.8</ele>
        <time>2020-05-30T18:17:14Z</time>
      </trkpt>
      <trkpt lat="46.48328" lon="-0.05001">
        <ele>168.8</ele>
        <time>2020-05-30T18:17:15Z</time>
      </trkpt>
      <trkpt lat="46.48329" lon="-0.05009">
        <ele>168.8</ele>
        <time>2020-05-30T18:17:16Z</time>
      </trkpt>
      <trkpt lat="46.48331" lon="-0.05016">
        <ele>168.8</ele>
        <time>2020-05-30T18:17:17Z</time>
      </trkpt>
      <trkpt lat="46.48335" lon="-0.05022">
        <ele>168.8</ele>
        <time>2020-05-30T18:17:18Z</time>
      </trkpt>
      <trkpt lat="46.48338" lon="-0.05028">
        <ele>168.7</ele>
        <time>2020-05-30T18:17:19Z</time>
      </trkpt>
      <trkpt lat="46.48341" lon="-0.05036">
        <ele>168.7</ele>
        <time>2020-05-30T18:17:20Z</time>
      </trkpt>
      <trkpt lat="46.48343" lon="-0.05042">
        <ele>168.7</ele>
        <time>2020-05-30T18:17:21Z</time>
      </trkpt>
      <trkpt lat="46.48346" lon="-0.05048">
        <ele>168.7</ele>
        <time>2020-05-30T18:17:22Z</time>
      </trkpt>
      <trkpt lat="46.48348" lon="-0.05054">
        <ele>168.7</ele>
        <time>2020-05-30T18:17:23Z</time>
      </trkpt>
      <trkpt lat="46.48352" lon="-0.05061">
        <ele>168.7</ele>
        <time>2020-05-30T18:17:24Z</time>
      </trkpt>
      <trkpt lat="46.48355" lon="-0.05066">
        <ele>168.7</ele>
        <time>2020-05-30T18:17:25Z</time>
      </trkpt>
      <trkpt lat="46.48359" lon="-0.05071">
        <ele>168.7</ele>
        <time>2020-05-30T18:17:26Z</time>
      </trkpt>
      <trkpt lat="46.48363" lon="-0.05077">
        <ele>168.7</ele>
        <time>2020-05-30T18:17:27Z</time>
      </trkpt>
      <trkpt lat="46.48367" lon="-0.05082">
        <ele>168.7</ele>
        <time>2020-05-30T18:17:28Z</time>
      </trkpt>
      <trkpt lat="46.4837" lon="-0.05088">
        <ele>168.7</ele>
        <time>2020-05-30T18:17:29Z</time>
      </trkpt>
      <trkpt lat="46.48374" lon="-0.05095">
        <ele>168.8</ele>
        <time>2020-05-30T18:17:30Z</time>
      </trkpt>
      <trkpt lat="46.48378" lon="-0.05101">
        <ele>168.8</ele>
        <time>2020-05-30T18:17:31Z</time>
      </trkpt>
      <trkpt lat="46.48381" lon="-0.05108">
        <ele>168.8</ele>
        <time>2020-05-30T18:17:32Z</time>
      </trkpt>
      <trkpt lat="46.48385" lon="-0.05114">
        <ele>168.8</ele>
        <time>2020-05-30T18:17:33Z</time>
      </trkpt>
      <trkpt lat="46.48387" lon="-0.05119">
        <ele>168.8</ele>
        <time>2020-05-30T18:17:34Z</time>
      </trkpt>
      <trkpt lat="46.48391" lon="-0.05125">
        <ele>168.8</ele>
        <time>2020-05-30T18:17:35Z</time>
      </trkpt>
      <trkpt lat="46.48394" lon="-0.0513">
        <ele>168.8</ele>
        <time>2020-05-30T18:17:36Z</time>
      </trkpt>
      <trkpt lat="46.48397" lon="-0.05135">
        <ele>168.7</ele>
        <time>2020-05-30T18:17:37Z</time>
      </trkpt>
      <trkpt lat="46.48401" lon="-0.0514">
        <ele>168.7</ele>
        <time>2020-05-30T18:17:38Z</time>
      </trkpt>
      <trkpt lat="46.48404" lon="-0.05146">
        <ele>168.6</ele>
        <time>2020-05-30T18:17:39Z</time>
      </trkpt>
      <trkpt lat="46.48408" lon="-0.05152">
        <ele>168.5</ele>
        <time>2020-05-30T18:17:40Z</time>
      </trkpt>
      <trkpt lat="46.48412" lon="-0.05158">
        <ele>168.5</ele>
        <time>2020-05-30T18:17:41Z</time>
      </trkpt>
      <trkpt lat="46.48416" lon="-0.05165">
        <ele>168.4</ele>
        <time>2020-05-30T18:17:42Z</time>
      </trkpt>
      <trkpt lat="46.4842" lon="-0.05172">
        <ele>168.3</ele>
        <time>2020-05-30T18:17:43Z</time>
      </trkpt>
      <trkpt lat="46.48423" lon="-0.05177">
        <ele>168.3</ele>
        <time>2020-05-30T18:17:44Z</time>
      </trkpt>
      <trkpt lat="46.48426" lon="-0.05184">
        <ele>168.2</ele>
        <time>2020-05-30T18:17:45Z</time>
      </trkpt>
      <trkpt lat="46.4843" lon="-0.0519">
        <ele>168.2</ele>
        <time>2020-05-30T18:17:46Z</time>
      </trkpt>
      <trkpt lat="46.48433" lon="-0.05197">
        <ele>168.2</ele>
        <time>2020-05-30T18:17:47Z</time>
      </trkpt>
      <trkpt lat="46.48435" lon="-0.05204">
        <ele>168.1</ele>
        <time>2020-05-30T18:17:48Z</time>
      </trkpt>
      <trkpt lat="46.48438" lon="-0.05211">
        <ele>168.1</ele>
        <time>2020-05-30T18:17:49Z</time>
      </trkpt>
      <trkpt lat="46.48439" lon="-0.05217">
        <ele>168.1</ele>
        <time>2020-05-30T18:17:50Z</time>
      </trkpt>
      <trkpt lat="46.48441" lon="-0.05223">
        <ele>168</ele>
        <time>2020-05-30T18:17:51Z</time>
      </trkpt>
      <trkpt lat="46.48444" lon="-0.05229">
        <ele>168</ele>
        <time>2020-05-30T18:17:52Z</time>
      </trkpt>
      <trkpt lat="46.48447" lon="-0.05235">
        <ele>168</ele>
        <time>2020-05-30T18:17:53Z</time>
      </trkpt>
      <trkpt lat="46.4845" lon="-0.05242">
        <ele>168</ele>
        <time>2020-05-30T18:17:54Z</time>
      </trkpt>
      <trkpt lat="46.48453" lon="-0.05249">
        <ele>167.9</ele>
        <time>2020-05-30T18:17:55Z</time>
      </trkpt>
      <trkpt lat="46.48456" lon="-0.05256">
        <ele>167.9</ele>
        <time>2020-05-30T18:17:56Z</time>
      </trkpt>
      <trkpt lat="46.48458" lon="-0.05264">
        <ele>167.9</ele>
        <time>2020-05-30T18:17:57Z</time>
      </trkpt>
      <trkpt lat="46.48461" lon="-0.0527">
        <ele>167.9</ele>
        <time>2020-05-30T18:17:58Z</time>
      </trkpt>
      <trkpt lat="46.48464" lon="-0.05277">
        <ele>167.9</ele>
        <time>2020-05-30T18:17:59Z</time>
      </trkpt>
      <trkpt lat="46.48467" lon="-0.05284">
        <ele>167.8</ele>
        <time>2020-05-30T18:18:00Z</time>
      </trkpt>
      <trkpt lat="46.4847" lon="-0.05291">
        <ele>167.8</ele>
        <time>2020-05-30T18:18:01Z</time>
      </trkpt>
      <trkpt lat="46.48473" lon="-0.05299">
        <ele>167.8</ele>
        <time>2020-05-30T18:18:02Z</time>
      </trkpt>
      <trkpt lat="46.48476" lon="-0.05306">
        <ele>167.8</ele>
        <time>2020-05-30T18:18:03Z</time>
      </trkpt>
      <trkpt lat="46.48479" lon="-0.05314">
        <ele>167.8</ele>
        <time>2020-05-30T18:18:04Z</time>
      </trkpt>
      <trkpt lat="46.48482" lon="-0.05322">
        <ele>167.8</ele>
        <time>2020-05-30T18:18:05Z</time>
      </trkpt>
      <trkpt lat="46.48485" lon="-0.05329">
        <ele>167.8</ele>
        <time>2020-05-30T18:18:06Z</time>
      </trkpt>
      <trkpt lat="46.48488" lon="-0.05336">
        <ele>167.7</ele>
        <time>2020-05-30T18:18:07Z</time>
      </trkpt>
      <trkpt lat="46.48492" lon="-0.05343">
        <ele>167.7</ele>
        <time>2020-05-30T18:18:08Z</time>
      </trkpt>
      <trkpt lat="46.48495" lon="-0.0535">
        <ele>167.7</ele>
        <time>2020-05-30T18:18:09Z</time>
      </trkpt>
      <trkpt lat="46.48497" lon="-0.05357">
        <ele>167.6</ele>
        <time>2020-05-30T18:18:10Z</time>
      </trkpt>
      <trkpt lat="46.48499" lon="-0.05364">
        <ele>167.6</ele>
        <time>2020-05-30T18:18:11Z</time>
      </trkpt>
      <trkpt lat="46.48502" lon="-0.0537">
        <ele>167.5</ele>
        <time>2020-05-30T18:18:12Z</time>
      </trkpt>
      <trkpt lat="46.48506" lon="-0.05377">
        <ele>167.4</ele>
        <time>2020-05-30T18:18:13Z</time>
      </trkpt>
      <trkpt lat="46.48509" lon="-0.05382">
        <ele>167.3</ele>
        <time>2020-05-30T18:18:14Z</time>
      </trkpt>
      <trkpt lat="46.48512" lon="-0.05387">
        <ele>167.2</ele>
        <time>2020-05-30T18:18:15Z</time>
      </trkpt>
      <trkpt lat="46.48514" lon="-0.05394">
        <ele>167.1</ele>
        <time>2020-05-30T18:18:16Z</time>
      </trkpt>
      <trkpt lat="46.48517" lon="-0.054">
        <ele>167</ele>
        <time>2020-05-30T18:18:17Z</time>
      </trkpt>
      <trkpt lat="46.4852" lon="-0.05406">
        <ele>166.8</ele>
        <time>2020-05-30T18:18:18Z</time>
      </trkpt>
      <trkpt lat="46.48522" lon="-0.05413">
        <ele>166.7</ele>
        <time>2020-05-30T18:18:19Z</time>
      </trkpt>
      <trkpt lat="46.48525" lon="-0.05419">
        <ele>166.5</ele>
        <time>2020-05-30T18:18:20Z</time>
      </trkpt>
      <trkpt lat="46.48528" lon="-0.05427">
        <ele>166.2</ele>
        <time>2020-05-30T18:18:21Z</time>
      </trkpt>
      <trkpt lat="46.48531" lon="-0.05434">
        <ele>166</ele>
        <time>2020-05-30T18:18:22Z</time>
      </trkpt>
      <trkpt lat="46.48534" lon="-0.05443">
        <ele>165.6</ele>
        <time>2020-05-30T18:18:23Z</time>
      </trkpt>
      <trkpt lat="46.48539" lon="-0.05451">
        <ele>165.3</ele>
        <time>2020-05-30T18:18:24Z</time>
      </trkpt>
      <trkpt lat="46.48543" lon="-0.05458">
        <ele>164.9</ele>
        <time>2020-05-30T18:18:25Z</time>
      </trkpt>
      <trkpt lat="46.48547" lon="-0.05465">
        <ele>164.6</ele>
        <time>2020-05-30T18:18:26Z</time>
      </trkpt>
      <trkpt lat="46.48551" lon="-0.05473">
        <ele>164.3</ele>
        <time>2020-05-30T18:18:27Z</time>
      </trkpt>
      <trkpt lat="46.48557" lon="-0.0548">
        <ele>163.8</ele>
        <time>2020-05-30T18:18:28Z</time>
      </trkpt>
      <trkpt lat="46.48564" lon="-0.05489">
        <ele>163.3</ele>
        <time>2020-05-30T18:18:29Z</time>
      </trkpt>
      <trkpt lat="46.48571" lon="-0.05497">
        <ele>162.8</ele>
        <time>2020-05-30T18:18:30Z</time>
      </trkpt>
      <trkpt lat="46.48577" lon="-0.05504">
        <ele>162.4</ele>
        <time>2020-05-30T18:18:31Z</time>
      </trkpt>
      <trkpt lat="46.4858" lon="-0.05509">
        <ele>162</ele>
        <time>2020-05-30T18:18:32Z</time>
      </trkpt>
      <trkpt lat="46.48587" lon="-0.05517">
        <ele>161.4</ele>
        <time>2020-05-30T18:18:33Z</time>
      </trkpt>
      <trkpt lat="46.48594" lon="-0.05525">
        <ele>160.8</ele>
        <time>2020-05-30T18:18:34Z</time>
      </trkpt>
      <trkpt lat="46.48601" lon="-0.05534">
        <ele>160.1</ele>
        <time>2020-05-30T18:18:35Z</time>
      </trkpt>
      <trkpt lat="46.48609" lon="-0.05543">
        <ele>159.5</ele>
        <time>2020-05-30T18:18:36Z</time>
      </trkpt>
      <trkpt lat="46.48616" lon="-0.05552">
        <ele>159</ele>
        <time>2020-05-30T18:18:37Z</time>
      </trkpt>
      <trkpt lat="46.48624" lon="-0.05559">
        <ele>158.8</ele>
        <time>2020-05-30T18:18:38Z</time>
      </trkpt>
      <trkpt lat="46.48632" lon="-0.05568">
        <ele>158.3</ele>
        <time>2020-05-30T18:18:39Z</time>
      </trkpt>
      <trkpt lat="46.48641" lon="-0.05576">
        <ele>157.8</ele>
        <time>2020-05-30T18:18:40Z</time>
      </trkpt>
      <trkpt lat="46.48649" lon="-0.05584">
        <ele>157.2</ele>
        <time>2020-05-30T18:18:41Z</time>
      </trkpt>
      <trkpt lat="46.48657" lon="-0.05592">
        <ele>156.7</ele>
        <time>2020-05-30T18:18:42Z</time>
      </trkpt>
      <trkpt lat="46.48665" lon="-0.056">
        <ele>156.1</ele>
        <time>2020-05-30T18:18:43Z</time>
      </trkpt>
      <trkpt lat="46.48673" lon="-0.05609">
        <ele>155.5</ele>
        <time>2020-05-30T18:18:44Z</time>
      </trkpt>
      <trkpt lat="46.48681" lon="-0.05618">
        <ele>154.9</ele>
        <time>2020-05-30T18:18:45Z</time>
      </trkpt>
      <trkpt lat="46.48688" lon="-0.05628">
        <ele>154.4</ele>
        <time>2020-05-30T18:18:46Z</time>
      </trkpt>
      <trkpt lat="46.48695" lon="-0.05638">
        <ele>153.9</ele>
        <time>2020-05-30T18:18:47Z</time>
      </trkpt>
      <trkpt lat="46.48702" lon="-0.05648">
        <ele>153.4</ele>
        <time>2020-05-30T18:18:48Z</time>
      </trkpt>
      <trkpt lat="46.4871" lon="-0.05658">
        <ele>153</ele>
        <time>2020-05-30T18:18:49Z</time>
      </trkpt>
      <trkpt lat="46.48716" lon="-0.05669">
        <ele>152.5</ele>
        <time>2020-05-30T18:18:50Z</time>
      </trkpt>
      <trkpt lat="46.48723" lon="-0.0568">
        <ele>152.2</ele>
        <time>2020-05-30T18:18:51Z</time>
      </trkpt>
      <trkpt lat="46.48729" lon="-0.05691">
        <ele>151.8</ele>
        <time>2020-05-30T18:18:52Z</time>
      </trkpt>
      <trkpt lat="46.48735" lon="-0.05701">
        <ele>151.4</ele>
        <time>2020-05-30T18:18:53Z</time>
      </trkpt>
      <trkpt lat="46.48741" lon="-0.05712">
        <ele>151</ele>
        <time>2020-05-30T18:18:54Z</time>
      </trkpt>
      <trkpt lat="46.48747" lon="-0.05723">
        <ele>150.6</ele>
        <time>2020-05-30T18:18:55Z</time>
      </trkpt>
      <trkpt lat="46.48752" lon="-0.05734">
        <ele>150.2</ele>
        <time>2020-05-30T18:18:56Z</time>
      </trkpt>
      <trkpt lat="46.48758" lon="-0.05745">
        <ele>149.9</ele>
        <time>2020-05-30T18:18:57Z</time>
      </trkpt>
      <trkpt lat="46.48764" lon="-0.05755">
        <ele>149.6</ele>
        <time>2020-05-30T18:18:58Z</time>
      </trkpt>
      <trkpt lat="46.4877" lon="-0.05766">
        <ele>149.2</ele>
        <time>2020-05-30T18:18:59Z</time>
      </trkpt>
      <trkpt lat="46.48776" lon="-0.05776">
        <ele>148.8</ele>
        <time>2020-05-30T18:19:00Z</time>
      </trkpt>
      <trkpt lat="46.48782" lon="-0.05786">
        <ele>148.4</ele>
        <time>2020-05-30T18:19:01Z</time>
      </trkpt>
      <trkpt lat="46.48788" lon="-0.05796">
        <ele>148.1</ele>
        <time>2020-05-30T18:19:02Z</time>
      </trkpt>
      <trkpt lat="46.48794" lon="-0.05807">
        <ele>147.7</ele>
        <time>2020-05-30T18:19:03Z</time>
      </trkpt>
      <trkpt lat="46.488" lon="-0.05816">
        <ele>147.2</ele>
        <time>2020-05-30T18:19:04Z</time>
      </trkpt>
      <trkpt lat="46.48806" lon="-0.05826">
        <ele>146.8</ele>
        <time>2020-05-30T18:19:05Z</time>
      </trkpt>
      <trkpt lat="46.48813" lon="-0.05835">
        <ele>146.4</ele>
        <time>2020-05-30T18:19:06Z</time>
      </trkpt>
      <trkpt lat="46.4882" lon="-0.05845">
        <ele>146</ele>
        <time>2020-05-30T18:19:07Z</time>
      </trkpt>
      <trkpt lat="46.48826" lon="-0.05855">
        <ele>145.5</ele>
        <time>2020-05-30T18:19:08Z</time>
      </trkpt>
      <trkpt lat="46.48832" lon="-0.05864">
        <ele>145.1</ele>
        <time>2020-05-30T18:19:09Z</time>
      </trkpt>
      <trkpt lat="46.48839" lon="-0.05875">
        <ele>144.6</ele>
        <time>2020-05-30T18:19:10Z</time>
      </trkpt>
      <trkpt lat="46.48846" lon="-0.05885">
        <ele>144.2</ele>
        <time>2020-05-30T18:19:11Z</time>
      </trkpt>
      <trkpt lat="46.48852" lon="-0.05895">
        <ele>143.9</ele>
        <time>2020-05-30T18:19:12Z</time>
      </trkpt>
      <trkpt lat="46.48859" lon="-0.05905">
        <ele>143.6</ele>
        <time>2020-05-30T18:19:13Z</time>
      </trkpt>
      <trkpt lat="46.48866" lon="-0.05916">
        <ele>143.4</ele>
        <time>2020-05-30T18:19:14Z</time>
      </trkpt>
      <trkpt lat="46.48873" lon="-0.05926">
        <ele>143.2</ele>
        <time>2020-05-30T18:19:15Z</time>
      </trkpt>
      <trkpt lat="46.48881" lon="-0.05935">
        <ele>143.1</ele>
        <time>2020-05-30T18:19:16Z</time>
      </trkpt>
      <trkpt lat="46.48889" lon="-0.05942">
        <ele>142.9</ele>
        <time>2020-05-30T18:19:17Z</time>
      </trkpt>
      <trkpt lat="46.48898" lon="-0.05944">
        <ele>142.8</ele>
        <time>2020-05-30T18:19:18Z</time>
      </trkpt>
      <trkpt lat="46.48908" lon="-0.05945">
        <ele>142.6</ele>
        <time>2020-05-30T18:19:19Z</time>
      </trkpt>
      <trkpt lat="46.48917" lon="-0.05944">
        <ele>142.2</ele>
        <time>2020-05-30T18:19:20Z</time>
      </trkpt>
      <trkpt lat="46.48925" lon="-0.05941">
        <ele>141.7</ele>
        <time>2020-05-30T18:19:21Z</time>
      </trkpt>
      <trkpt lat="46.48934" lon="-0.05938">
        <ele>141.2</ele>
        <time>2020-05-30T18:19:22Z</time>
      </trkpt>
      <trkpt lat="46.48942" lon="-0.05934">
        <ele>140.7</ele>
        <time>2020-05-30T18:19:23Z</time>
      </trkpt>
      <trkpt lat="46.48949" lon="-0.0593">
        <ele>140.1</ele>
        <time>2020-05-30T18:19:24Z</time>
      </trkpt>
      <trkpt lat="46.48957" lon="-0.05927">
        <ele>139.6</ele>
        <time>2020-05-30T18:19:25Z</time>
      </trkpt>
      <trkpt lat="46.48964" lon="-0.05923">
        <ele>139</ele>
        <time>2020-05-30T18:19:26Z</time>
      </trkpt>
      <trkpt lat="46.48972" lon="-0.05921">
        <ele>138.5</ele>
        <time>2020-05-30T18:19:27Z</time>
      </trkpt>
      <trkpt lat="46.48979" lon="-0.05917">
        <ele>137.9</ele>
        <time>2020-05-30T18:19:28Z</time>
      </trkpt>
      <trkpt lat="46.48986" lon="-0.05914">
        <ele>137.3</ele>
        <time>2020-05-30T18:19:29Z</time>
      </trkpt>
      <trkpt lat="46.48993" lon="-0.05911">
        <ele>136.7</ele>
        <time>2020-05-30T18:19:30Z</time>
      </trkpt>
      <trkpt lat="46.48999" lon="-0.05908">
        <ele>136.1</ele>
        <time>2020-05-30T18:19:31Z</time>
      </trkpt>
      <trkpt lat="46.49005" lon="-0.05904">
        <ele>135.6</ele>
        <time>2020-05-30T18:19:32Z</time>
      </trkpt>
      <trkpt lat="46.49011" lon="-0.05901">
        <ele>135.4</ele>
        <time>2020-05-30T18:19:33Z</time>
      </trkpt>
      <trkpt lat="46.49017" lon="-0.05899">
        <ele>135.6</ele>
        <time>2020-05-30T18:19:34Z</time>
      </trkpt>
      <trkpt lat="46.49023" lon="-0.059">
        <ele>135.8</ele>
        <time>2020-05-30T18:19:35Z</time>
      </trkpt>
      <trkpt lat="46.49028" lon="-0.05903">
        <ele>136.1</ele>
        <time>2020-05-30T18:19:36Z</time>
      </trkpt>
      <trkpt lat="46.49033" lon="-0.05906">
        <ele>136.4</ele>
        <time>2020-05-30T18:19:37Z</time>
      </trkpt>
      <trkpt lat="46.49037" lon="-0.0591">
        <ele>136.7</ele>
        <time>2020-05-30T18:19:38Z</time>
      </trkpt>
      <trkpt lat="46.4904" lon="-0.05914">
        <ele>136.9</ele>
        <time>2020-05-30T18:19:39Z</time>
      </trkpt>
      <trkpt lat="46.49044" lon="-0.05919">
        <ele>137.2</ele>
        <time>2020-05-30T18:19:40Z</time>
      </trkpt>
      <trkpt lat="46.49047" lon="-0.05923">
        <ele>137.4</ele>
        <time>2020-05-30T18:19:41Z</time>
      </trkpt>
      <trkpt lat="46.49048" lon="-0.05929">
        <ele>137.7</ele>
        <time>2020-05-30T18:19:42Z</time>
      </trkpt>
      <trkpt lat="46.49051" lon="-0.05933">
        <ele>138</ele>
        <time>2020-05-30T18:19:43Z</time>
      </trkpt>
      <trkpt lat="46.49052" lon="-0.05939">
        <ele>138.2</ele>
        <time>2020-05-30T18:19:44Z</time>
      </trkpt>
      <trkpt lat="46.49053" lon="-0.05943">
        <ele>138.4</ele>
        <time>2020-05-30T18:19:45Z</time>
      </trkpt>
      <trkpt lat="46.49055" lon="-0.05948">
        <ele>138.7</ele>
        <time>2020-05-30T18:19:46Z</time>
      </trkpt>
      <trkpt lat="46.49056" lon="-0.05952">
        <ele>138.9</ele>
        <time>2020-05-30T18:19:47Z</time>
      </trkpt>
      <trkpt lat="46.49056" lon="-0.05956">
        <ele>139.1</ele>
        <time>2020-05-30T18:19:48Z</time>
      </trkpt>
      <trkpt lat="46.49057" lon="-0.05961">
        <ele>139.3</ele>
        <time>2020-05-30T18:19:49Z</time>
      </trkpt>
      <trkpt lat="46.49057" lon="-0.05965">
        <ele>139.5</ele>
        <time>2020-05-30T18:19:50Z</time>
      </trkpt>
      <trkpt lat="46.49057" lon="-0.05969">
        <ele>139.7</ele>
        <time>2020-05-30T18:19:51Z</time>
      </trkpt>
      <trkpt lat="46.49056" lon="-0.05973">
        <ele>139.9</ele>
        <time>2020-05-30T18:19:52Z</time>
      </trkpt>
      <trkpt lat="46.49056" lon="-0.05979">
        <ele>140.2</ele>
        <time>2020-05-30T18:19:53Z</time>
      </trkpt>
      <trkpt lat="46.49055" lon="-0.05981">
        <ele>140.3</ele>
        <time>2020-05-30T18:19:54Z</time>
      </trkpt>
      <trkpt lat="46.49055" lon="-0.05986">
        <ele>140.5</ele>
        <time>2020-05-30T18:19:55Z</time>
      </trkpt>
      <trkpt lat="46.49055" lon="-0.05989">
        <ele>140.7</ele>
        <time>2020-05-30T18:19:56Z</time>
      </trkpt>
      <trkpt lat="46.49055" lon="-0.05995">
        <ele>141</ele>
        <time>2020-05-30T18:19:57Z</time>
      </trkpt>
      <trkpt lat="46.49055" lon="-0.05997">
        <ele>141.1</ele>
        <time>2020-05-30T18:19:58Z</time>
      </trkpt>
      <trkpt lat="46.49055" lon="-0.06002">
        <ele>141.4</ele>
        <time>2020-05-30T18:19:59Z</time>
      </trkpt>
      <trkpt lat="46.49054" lon="-0.06004">
        <ele>141.5</ele>
        <time>2020-05-30T18:20:00Z</time>
      </trkpt>
      <trkpt lat="46.49053" lon="-0.06009">
        <ele>141.7</ele>
        <time>2020-05-30T18:20:01Z</time>
      </trkpt>
      <trkpt lat="46.49053" lon="-0.06011">
        <ele>141.8</ele>
        <time>2020-05-30T18:20:02Z</time>
      </trkpt>
      <trkpt lat="46.49051" lon="-0.06015">
        <ele>142</ele>
        <time>2020-05-30T18:20:03Z</time>
      </trkpt>
      <trkpt lat="46.4905" lon="-0.06019">
        <ele>142.2</ele>
        <time>2020-05-30T18:20:04Z</time>
      </trkpt>
      <trkpt lat="46.4905" lon="-0.06023">
        <ele>142.4</ele>
        <time>2020-05-30T18:20:05Z</time>
      </trkpt>
      <trkpt lat="46.49048" lon="-0.06027">
        <ele>142.6</ele>
        <time>2020-05-30T18:20:06Z</time>
      </trkpt>
      <trkpt lat="46.49046" lon="-0.06031">
        <ele>142.9</ele>
        <time>2020-05-30T18:20:07Z</time>
      </trkpt>
      <trkpt lat="46.49043" lon="-0.06035">
        <ele>143.1</ele>
        <time>2020-05-30T18:20:08Z</time>
      </trkpt>
      <trkpt lat="46.49041" lon="-0.0604">
        <ele>143.4</ele>
        <time>2020-05-30T18:20:09Z</time>
      </trkpt>
      <trkpt lat="46.49039" lon="-0.06044">
        <ele>143.6</ele>
        <time>2020-05-30T18:20:10Z</time>
      </trkpt>
      <trkpt lat="46.49036" lon="-0.06048">
        <ele>143.9</ele>
        <time>2020-05-30T18:20:11Z</time>
      </trkpt>
      <trkpt lat="46.49033" lon="-0.06053">
        <ele>144.2</ele>
        <time>2020-05-30T18:20:12Z</time>
      </trkpt>
      <trkpt lat="46.4903" lon="-0.06058">
        <ele>144.4</ele>
        <time>2020-05-30T18:20:13Z</time>
      </trkpt>
      <trkpt lat="46.49026" lon="-0.06063">
        <ele>144.8</ele>
        <time>2020-05-30T18:20:14Z</time>
      </trkpt>
      <trkpt lat="46.49021" lon="-0.06069">
        <ele>145.1</ele>
        <time>2020-05-30T18:20:15Z</time>
      </trkpt>
      <trkpt lat="46.49019" lon="-0.06074">
        <ele>145.3</ele>
        <time>2020-05-30T18:20:16Z</time>
      </trkpt>
      <trkpt lat="46.49015" lon="-0.06081">
        <ele>145.6</ele>
        <time>2020-05-30T18:20:17Z</time>
      </trkpt>
      <trkpt lat="46.49011" lon="-0.0609">
        <ele>146</ele>
        <time>2020-05-30T18:20:18Z</time>
      </trkpt>
      <trkpt lat="46.49007" lon="-0.06095">
        <ele>146</ele>
        <time>2020-05-30T18:20:19Z</time>
      </trkpt>
      <trkpt lat="46.49002" lon="-0.06102">
        <ele>146.2</ele>
        <time>2020-05-30T18:20:20Z</time>
      </trkpt>
      <trkpt lat="46.48998" lon="-0.06108">
        <ele>146.3</ele>
        <time>2020-05-30T18:20:21Z</time>
      </trkpt>
      <trkpt lat="46.48993" lon="-0.06113">
        <ele>146.6</ele>
        <time>2020-05-30T18:20:22Z</time>
      </trkpt>
      <trkpt lat="46.48989" lon="-0.06118">
        <ele>146.9</ele>
        <time>2020-05-30T18:20:23Z</time>
      </trkpt>
      <trkpt lat="46.48985" lon="-0.06124">
        <ele>147.2</ele>
        <time>2020-05-30T18:20:24Z</time>
      </trkpt>
      <trkpt lat="46.48981" lon="-0.06129">
        <ele>147.5</ele>
        <time>2020-05-30T18:20:25Z</time>
      </trkpt>
      <trkpt lat="46.48977" lon="-0.06133">
        <ele>147.8</ele>
        <time>2020-05-30T18:20:26Z</time>
      </trkpt>
      <trkpt lat="46.48974" lon="-0.06137">
        <ele>148.1</ele>
        <time>2020-05-30T18:20:27Z</time>
      </trkpt>
      <trkpt lat="46.48971" lon="-0.06141">
        <ele>148.4</ele>
        <time>2020-05-30T18:20:28Z</time>
      </trkpt>
      <trkpt lat="46.48968" lon="-0.06144">
        <ele>148.6</ele>
        <time>2020-05-30T18:20:29Z</time>
      </trkpt>
      <trkpt lat="46.48966" lon="-0.06146">
        <ele>148.8</ele>
        <time>2020-05-30T18:20:30Z</time>
      </trkpt>
      <trkpt lat="46.48963" lon="-0.0615">
        <ele>149</ele>
        <time>2020-05-30T18:20:31Z</time>
      </trkpt>
      <trkpt lat="46.4896" lon="-0.06154">
        <ele>149.3</ele>
        <time>2020-05-30T18:20:32Z</time>
      </trkpt>
      <trkpt lat="46.48959" lon="-0.06156">
        <ele>149.4</ele>
        <time>2020-05-30T18:20:33Z</time>
      </trkpt>
      <trkpt lat="46.48957" lon="-0.06159">
        <ele>149.5</ele>
        <time>2020-05-30T18:20:34Z</time>
      </trkpt>
      <trkpt lat="46.48956" lon="-0.0616">
        <ele>149.6</ele>
        <time>2020-05-30T18:20:35Z</time>
      </trkpt>
      <trkpt lat="46.48954" lon="-0.06161">
        <ele>149.7</ele>
        <time>2020-05-30T18:20:36Z</time>
      </trkpt>
      <trkpt lat="46.48952" lon="-0.06164">
        <ele>149.9</ele>
        <time>2020-05-30T18:20:37Z</time>
      </trkpt>
      <trkpt lat="46.4895" lon="-0.06168">
        <ele>150.1</ele>
        <time>2020-05-30T18:20:38Z</time>
      </trkpt>
      <trkpt lat="46.48947" lon="-0.06171">
        <ele>150.3</ele>
        <time>2020-05-30T18:20:39Z</time>
      </trkpt>
      <trkpt lat="46.48946" lon="-0.06175">
        <ele>150.5</ele>
        <time>2020-05-30T18:20:40Z</time>
      </trkpt>
      <trkpt lat="46.48946" lon="-0.06177">
        <ele>150.5</ele>
        <time>2020-05-30T18:20:41Z</time>
      </trkpt>
      <trkpt lat="46.48944" lon="-0.0618">
        <ele>150.7</ele>
        <time>2020-05-30T18:20:42Z</time>
      </trkpt>
      <trkpt lat="46.48943" lon="-0.06181">
        <ele>150.8</ele>
        <time>2020-05-30T18:20:43Z</time>
      </trkpt>
      <trkpt lat="46.4894" lon="-0.06185">
        <ele>151</ele>
        <time>2020-05-30T18:20:44Z</time>
      </trkpt>
      <trkpt lat="46.48938" lon="-0.06187">
        <ele>151.1</ele>
        <time>2020-05-30T18:20:45Z</time>
      </trkpt>
      <trkpt lat="46.48936" lon="-0.06192">
        <ele>151.3</ele>
        <time>2020-05-30T18:20:46Z</time>
      </trkpt>
      <trkpt lat="46.48933" lon="-0.06196">
        <ele>151.5</ele>
        <time>2020-05-30T18:20:47Z</time>
      </trkpt>
      <trkpt lat="46.48931" lon="-0.06197">
        <ele>151.6</ele>
        <time>2020-05-30T18:20:48Z</time>
      </trkpt>
      <trkpt lat="46.48929" lon="-0.062">
        <ele>151.7</ele>
        <time>2020-05-30T18:20:49Z</time>
      </trkpt>
      <trkpt lat="46.48926" lon="-0.06204">
        <ele>151.9</ele>
        <time>2020-05-30T18:20:50Z</time>
      </trkpt>
      <trkpt lat="46.48923" lon="-0.06207">
        <ele>152</ele>
        <time>2020-05-30T18:20:51Z</time>
      </trkpt>
      <trkpt lat="46.48921" lon="-0.06212">
        <ele>152.2</ele>
        <time>2020-05-30T18:20:52Z</time>
      </trkpt>
      <trkpt lat="46.48919" lon="-0.06218">
        <ele>152.4</ele>
        <time>2020-05-30T18:20:53Z</time>
      </trkpt>
      <trkpt lat="46.48918" lon="-0.06221">
        <ele>152.5</ele>
        <time>2020-05-30T18:20:54Z</time>
      </trkpt>
      <trkpt lat="46.48916" lon="-0.06224">
        <ele>152.6</ele>
        <time>2020-05-30T18:20:55Z</time>
      </trkpt>
      <trkpt lat="46.48913" lon="-0.06228">
        <ele>152.8</ele>
        <time>2020-05-30T18:20:56Z</time>
      </trkpt>
      <trkpt lat="46.4891" lon="-0.06231">
        <ele>152.9</ele>
        <time>2020-05-30T18:20:57Z</time>
      </trkpt>
      <trkpt lat="46.48907" lon="-0.06235">
        <ele>153.1</ele>
        <time>2020-05-30T18:20:58Z</time>
      </trkpt>
      <trkpt lat="46.48905" lon="-0.06239">
        <ele>153.2</ele>
        <time>2020-05-30T18:20:59Z</time>
      </trkpt>
      <trkpt lat="46.48904" lon="-0.06241">
        <ele>153.3</ele>
        <time>2020-05-30T18:21:00Z</time>
      </trkpt>
      <trkpt lat="46.48901" lon="-0.06247">
        <ele>153.5</ele>
        <time>2020-05-30T18:21:01Z</time>
      </trkpt>
      <trkpt lat="46.48898" lon="-0.06251">
        <ele>153.7</ele>
        <time>2020-05-30T18:21:02Z</time>
      </trkpt>
      <trkpt lat="46.48896" lon="-0.06255">
        <ele>153.8</ele>
        <time>2020-05-30T18:21:03Z</time>
      </trkpt>
      <trkpt lat="46.48893" lon="-0.06258">
        <ele>153.9</ele>
        <time>2020-05-30T18:21:04Z</time>
      </trkpt>
      <trkpt lat="46.48891" lon="-0.06262">
        <ele>154</ele>
        <time>2020-05-30T18:21:05Z</time>
      </trkpt>
      <trkpt lat="46.48888" lon="-0.06266">
        <ele>154.2</ele>
        <time>2020-05-30T18:21:06Z</time>
      </trkpt>
      <trkpt lat="46.48886" lon="-0.06269">
        <ele>154.3</ele>
        <time>2020-05-30T18:21:07Z</time>
      </trkpt>
      <trkpt lat="46.48882" lon="-0.06273">
        <ele>154.5</ele>
        <time>2020-05-30T18:21:08Z</time>
      </trkpt>
      <trkpt lat="46.4888" lon="-0.06276">
        <ele>154.6</ele>
        <time>2020-05-30T18:21:09Z</time>
      </trkpt>
      <trkpt lat="46.48877" lon="-0.06279">
        <ele>154.7</ele>
        <time>2020-05-30T18:21:10Z</time>
      </trkpt>
      <trkpt lat="46.48876" lon="-0.06281">
        <ele>154.8</ele>
        <time>2020-05-30T18:21:11Z</time>
      </trkpt>
      <trkpt lat="46.48874" lon="-0.06285">
        <ele>154.9</ele>
        <time>2020-05-30T18:21:12Z</time>
      </trkpt>
      <trkpt lat="46.4887" lon="-0.06289">
        <ele>155.1</ele>
        <time>2020-05-30T18:21:13Z</time>
      </trkpt>
      <trkpt lat="46.48868" lon="-0.06291">
        <ele>155.2</ele>
        <time>2020-05-30T18:21:14Z</time>
      </trkpt>
      <trkpt lat="46.48864" lon="-0.06296">
        <ele>155.4</ele>
        <time>2020-05-30T18:21:15Z</time>
      </trkpt>
      <trkpt lat="46.48861" lon="-0.06298">
        <ele>155.5</ele>
        <time>2020-05-30T18:21:16Z</time>
      </trkpt>
      <trkpt lat="46.48857" lon="-0.06301">
        <ele>155.6</ele>
        <time>2020-05-30T18:21:17Z</time>
      </trkpt>
      <trkpt lat="46.48855" lon="-0.06304">
        <ele>155.7</ele>
        <time>2020-05-30T18:21:18Z</time>
      </trkpt>
      <trkpt lat="46.48852" lon="-0.06306">
        <ele>155.8</ele>
        <time>2020-05-30T18:21:19Z</time>
      </trkpt>
      <trkpt lat="46.48849" lon="-0.06309">
        <ele>155.9</ele>
        <time>2020-05-30T18:21:20Z</time>
      </trkpt>
      <trkpt lat="46.48845" lon="-0.06312">
        <ele>156.1</ele>
        <time>2020-05-30T18:21:21Z</time>
      </trkpt>
      <trkpt lat="46.48842" lon="-0.06314">
        <ele>156.2</ele>
        <time>2020-05-30T18:21:22Z</time>
      </trkpt>
      <trkpt lat="46.48838" lon="-0.06316">
        <ele>156.3</ele>
        <time>2020-05-30T18:21:23Z</time>
      </trkpt>
      <trkpt lat="46.48835" lon="-0.06318">
        <ele>156.4</ele>
        <time>2020-05-30T18:21:24Z</time>
      </trkpt>
      <trkpt lat="46.48832" lon="-0.0632">
        <ele>156.6</ele>
        <time>2020-05-30T18:21:25Z</time>
      </trkpt>
      <trkpt lat="46.48828" lon="-0.06322">
        <ele>156.7</ele>
        <time>2020-05-30T18:21:26Z</time>
      </trkpt>
      <trkpt lat="46.48824" lon="-0.06324">
        <ele>156.8</ele>
        <time>2020-05-30T18:21:27Z</time>
      </trkpt>
      <trkpt lat="46.48821" lon="-0.06325">
        <ele>156.9</ele>
        <time>2020-05-30T18:21:28Z</time>
      </trkpt>
      <trkpt lat="46.48818" lon="-0.06327">
        <ele>157</ele>
        <time>2020-05-30T18:21:29Z</time>
      </trkpt>
      <trkpt lat="46.48815" lon="-0.06328">
        <ele>157.1</ele>
        <time>2020-05-30T18:21:30Z</time>
      </trkpt>
      <trkpt lat="46.48812" lon="-0.06331">
        <ele>157.2</ele>
        <time>2020-05-30T18:21:31Z</time>
      </trkpt>
      <trkpt lat="46.48808" lon="-0.06333">
        <ele>157.3</ele>
        <time>2020-05-30T18:21:32Z</time>
      </trkpt>
      <trkpt lat="46.48804" lon="-0.06335">
        <ele>157.4</ele>
        <time>2020-05-30T18:21:33Z</time>
      </trkpt>
      <trkpt lat="46.488" lon="-0.06337">
        <ele>157.5</ele>
        <time>2020-05-30T18:21:34Z</time>
      </trkpt>
      <trkpt lat="46.48796" lon="-0.06339">
        <ele>157.6</ele>
        <time>2020-05-30T18:21:35Z</time>
      </trkpt>
      <trkpt lat="46.48792" lon="-0.06342">
        <ele>157.8</ele>
        <time>2020-05-30T18:21:36Z</time>
      </trkpt>
      <trkpt lat="46.48788" lon="-0.06343">
        <ele>157.9</ele>
        <time>2020-05-30T18:21:37Z</time>
      </trkpt>
      <trkpt lat="46.48784" lon="-0.06345">
        <ele>158</ele>
        <time>2020-05-30T18:21:38Z</time>
      </trkpt>
      <trkpt lat="46.48783" lon="-0.06345">
        <ele>158</ele>
        <time>2020-05-30T18:21:39Z</time>
      </trkpt>
      <trkpt lat="46.48779" lon="-0.06348">
        <ele>158.2</ele>
        <time>2020-05-30T18:21:40Z</time>
      </trkpt>
      <trkpt lat="46.48775" lon="-0.06352">
        <ele>158.3</ele>
        <time>2020-05-30T18:21:41Z</time>
      </trkpt>
      <trkpt lat="46.48773" lon="-0.06353">
        <ele>158.4</ele>
        <time>2020-05-30T18:21:42Z</time>
      </trkpt>
      <trkpt lat="46.48772" lon="-0.06353">
        <ele>158.4</ele>
        <time>2020-05-30T18:21:43Z</time>
      </trkpt>
      <trkpt lat="46.48769" lon="-0.06354">
        <ele>158.5</ele>
        <time>2020-05-30T18:21:44Z</time>
      </trkpt>
      <trkpt lat="46.48766" lon="-0.06357">
        <ele>158.6</ele>
        <time>2020-05-30T18:21:45Z</time>
      </trkpt>
      <trkpt lat="46.48762" lon="-0.0636">
        <ele>158.7</ele>
        <time>2020-05-30T18:21:46Z</time>
      </trkpt>
      <trkpt lat="46.48759" lon="-0.06362">
        <ele>158.8</ele>
        <time>2020-05-30T18:21:47Z</time>
      </trkpt>
      <trkpt lat="46.48756" lon="-0.06364">
        <ele>159</ele>
        <time>2020-05-30T18:21:48Z</time>
      </trkpt>
      <trkpt lat="46.48754" lon="-0.06365">
        <ele>159</ele>
        <time>2020-05-30T18:21:49Z</time>
      </trkpt>
      <trkpt lat="46.48751" lon="-0.06367">
        <ele>159.1</ele>
        <time>2020-05-30T18:21:50Z</time>
      </trkpt>
      <trkpt lat="46.48747" lon="-0.0637">
        <ele>159.2</ele>
        <time>2020-05-30T18:21:51Z</time>
      </trkpt>
      <trkpt lat="46.48743" lon="-0.06372">
        <ele>159.3</ele>
        <time>2020-05-30T18:21:52Z</time>
      </trkpt>
      <trkpt lat="46.48738" lon="-0.06375">
        <ele>159.4</ele>
        <time>2020-05-30T18:21:53Z</time>
      </trkpt>
      <trkpt lat="46.48734" lon="-0.06378">
        <ele>159.5</ele>
        <time>2020-05-30T18:21:54Z</time>
      </trkpt>
      <trkpt lat="46.4873" lon="-0.06379">
        <ele>159.6</ele>
        <time>2020-05-30T18:21:55Z</time>
      </trkpt>
      <trkpt lat="46.48728" lon="-0.06382">
        <ele>159.6</ele>
        <time>2020-05-30T18:21:56Z</time>
      </trkpt>
      <trkpt lat="46.48725" lon="-0.06384">
        <ele>159.7</ele>
        <time>2020-05-30T18:21:57Z</time>
      </trkpt>
      <trkpt lat="46.48721" lon="-0.06386">
        <ele>159.8</ele>
        <time>2020-05-30T18:21:58Z</time>
      </trkpt>
      <trkpt lat="46.48718" lon="-0.06388">
        <ele>159.8</ele>
        <time>2020-05-30T18:21:59Z</time>
      </trkpt>
      <trkpt lat="46.48713" lon="-0.0639">
        <ele>159.9</ele>
        <time>2020-05-30T18:22:00Z</time>
      </trkpt>
      <trkpt lat="46.4871" lon="-0.06392">
        <ele>159.9</ele>
        <time>2020-05-30T18:22:01Z</time>
      </trkpt>
      <trkpt lat="46.48707" lon="-0.06394">
        <ele>160</ele>
        <time>2020-05-30T18:22:02Z</time>
      </trkpt>
      <trkpt lat="46.48703" lon="-0.06397">
        <ele>160.1</ele>
        <time>2020-05-30T18:22:03Z</time>
      </trkpt>
      <trkpt lat="46.48697" lon="-0.06399">
        <ele>160.1</ele>
        <time>2020-05-30T18:22:04Z</time>
      </trkpt>
      <trkpt lat="46.48693" lon="-0.06401">
        <ele>160.2</ele>
        <time>2020-05-30T18:22:05Z</time>
      </trkpt>
      <trkpt lat="46.48688" lon="-0.06403">
        <ele>160.3</ele>
        <time>2020-05-30T18:22:06Z</time>
      </trkpt>
      <trkpt lat="46.48685" lon="-0.06407">
        <ele>160.3</ele>
        <time>2020-05-30T18:22:07Z</time>
      </trkpt>
      <trkpt lat="46.48681" lon="-0.06409">
        <ele>160.4</ele>
        <time>2020-05-30T18:22:08Z</time>
      </trkpt>
      <trkpt lat="46.48678" lon="-0.0641">
        <ele>160.5</ele>
        <time>2020-05-30T18:22:09Z</time>
      </trkpt>
      <trkpt lat="46.48672" lon="-0.06415">
        <ele>160.6</ele>
        <time>2020-05-30T18:22:10Z</time>
      </trkpt>
      <trkpt lat="46.48668" lon="-0.06417">
        <ele>160.7</ele>
        <time>2020-05-30T18:22:11Z</time>
      </trkpt>
      <trkpt lat="46.48663" lon="-0.0642">
        <ele>160.7</ele>
        <time>2020-05-30T18:22:12Z</time>
      </trkpt>
      <trkpt lat="46.48659" lon="-0.06422">
        <ele>160.8</ele>
        <time>2020-05-30T18:22:13Z</time>
      </trkpt>
      <trkpt lat="46.48654" lon="-0.06425">
        <ele>160.9</ele>
        <time>2020-05-30T18:22:14Z</time>
      </trkpt>
      <trkpt lat="46.4865" lon="-0.06428">
        <ele>161</ele>
        <time>2020-05-30T18:22:15Z</time>
      </trkpt>
      <trkpt lat="46.48647" lon="-0.06431">
        <ele>161.1</ele>
        <time>2020-05-30T18:22:16Z</time>
      </trkpt>
      <trkpt lat="46.48643" lon="-0.06435">
        <ele>161.2</ele>
        <time>2020-05-30T18:22:17Z</time>
      </trkpt>
      <trkpt lat="46.48639" lon="-0.06439">
        <ele>161.3</ele>
        <time>2020-05-30T18:22:18Z</time>
      </trkpt>
      <trkpt lat="46.48635" lon="-0.06443">
        <ele>161.4</ele>
        <time>2020-05-30T18:22:19Z</time>
      </trkpt>
      <trkpt lat="46.48632" lon="-0.06447">
        <ele>161.4</ele>
        <time>2020-05-30T18:22:20Z</time>
      </trkpt>
      <trkpt lat="46.48628" lon="-0.06451">
        <ele>161.5</ele>
        <time>2020-05-30T18:22:21Z</time>
      </trkpt>
      <trkpt lat="46.48625" lon="-0.06455">
        <ele>161.6</ele>
        <time>2020-05-30T18:22:22Z</time>
      </trkpt>
      <trkpt lat="46.48622" lon="-0.06459">
        <ele>161.7</ele>
        <time>2020-05-30T18:22:23Z</time>
      </trkpt>
      <trkpt lat="46.48619" lon="-0.06462">
        <ele>161.7</ele>
        <time>2020-05-30T18:22:24Z</time>
      </trkpt>
      <trkpt lat="46.48616" lon="-0.06467">
        <ele>161.8</ele>
        <time>2020-05-30T18:22:25Z</time>
      </trkpt>
      <trkpt lat="46.48612" lon="-0.06471">
        <ele>161.9</ele>
        <time>2020-05-30T18:22:26Z</time>
      </trkpt>
      <trkpt lat="46.48608" lon="-0.06476">
        <ele>162</ele>
        <time>2020-05-30T18:22:27Z</time>
      </trkpt>
      <trkpt lat="46.48604" lon="-0.06481">
        <ele>162.1</ele>
        <time>2020-05-30T18:22:28Z</time>
      </trkpt>
      <trkpt lat="46.486" lon="-0.06486">
        <ele>162.3</ele>
        <time>2020-05-30T18:22:29Z</time>
      </trkpt>
      <trkpt lat="46.48596" lon="-0.06492">
        <ele>162.5</ele>
        <time>2020-05-30T18:22:30Z</time>
      </trkpt>
      <trkpt lat="46.48594" lon="-0.06498">
        <ele>162.7</ele>
        <time>2020-05-30T18:22:31Z</time>
      </trkpt>
      <trkpt lat="46.4859" lon="-0.06503">
        <ele>162.9</ele>
        <time>2020-05-30T18:22:32Z</time>
      </trkpt>
      <trkpt lat="46.48588" lon="-0.06509">
        <ele>163.1</ele>
        <time>2020-05-30T18:22:33Z</time>
      </trkpt>
      <trkpt lat="46.48586" lon="-0.06514">
        <ele>163.3</ele>
        <time>2020-05-30T18:22:34Z</time>
      </trkpt>
      <trkpt lat="46.48584" lon="-0.06519">
        <ele>163.4</ele>
        <time>2020-05-30T18:22:35Z</time>
      </trkpt>
      <trkpt lat="46.48582" lon="-0.06524">
        <ele>163.6</ele>
        <time>2020-05-30T18:22:36Z</time>
      </trkpt>
      <trkpt lat="46.4858" lon="-0.06528">
        <ele>163.7</ele>
        <time>2020-05-30T18:22:37Z</time>
      </trkpt>
      <trkpt lat="46.48578" lon="-0.06532">
        <ele>163.9</ele>
        <time>2020-05-30T18:22:38Z</time>
      </trkpt>
      <trkpt lat="46.48576" lon="-0.06539">
        <ele>164.1</ele>
        <time>2020-05-30T18:22:39Z</time>
      </trkpt>
      <trkpt lat="46.48573" lon="-0.06542">
        <ele>164.2</ele>
        <time>2020-05-30T18:22:40Z</time>
      </trkpt>
      <trkpt lat="46.48572" lon="-0.06546">
        <ele>164.4</ele>
        <time>2020-05-30T18:22:41Z</time>
      </trkpt>
      <trkpt lat="46.4857" lon="-0.06551">
        <ele>164.5</ele>
        <time>2020-05-30T18:22:42Z</time>
      </trkpt>
      <trkpt lat="46.48569" lon="-0.06555">
        <ele>164.7</ele>
        <time>2020-05-30T18:22:43Z</time>
      </trkpt>
      <trkpt lat="46.48568" lon="-0.06559">
        <ele>164.8</ele>
        <time>2020-05-30T18:22:44Z</time>
      </trkpt>
      <trkpt lat="46.48566" lon="-0.06563">
        <ele>164.9</ele>
        <time>2020-05-30T18:22:45Z</time>
      </trkpt>
      <trkpt lat="46.48565" lon="-0.06567">
        <ele>165.1</ele>
        <time>2020-05-30T18:22:46Z</time>
      </trkpt>
      <trkpt lat="46.48565" lon="-0.06569">
        <ele>165.1</ele>
        <time>2020-05-30T18:22:47Z</time>
      </trkpt>
      <trkpt lat="46.48563" lon="-0.06573">
        <ele>165.3</ele>
        <time>2020-05-30T18:22:48Z</time>
      </trkpt>
      <trkpt lat="46.48561" lon="-0.06577">
        <ele>165.4</ele>
        <time>2020-05-30T18:22:49Z</time>
      </trkpt>
      <trkpt lat="46.48559" lon="-0.0658">
        <ele>165.5</ele>
        <time>2020-05-30T18:22:50Z</time>
      </trkpt>
      <trkpt lat="46.48558" lon="-0.06585">
        <ele>165.7</ele>
        <time>2020-05-30T18:22:51Z</time>
      </trkpt>
      <trkpt lat="46.48557" lon="-0.0659">
        <ele>165.8</ele>
        <time>2020-05-30T18:22:52Z</time>
      </trkpt>
      <trkpt lat="46.48556" lon="-0.06594">
        <ele>165.9</ele>
        <time>2020-05-30T18:22:53Z</time>
      </trkpt>
      <trkpt lat="46.48554" lon="-0.06599">
        <ele>166.1</ele>
        <time>2020-05-30T18:22:54Z</time>
      </trkpt>
      <trkpt lat="46.48554" lon="-0.06601">
        <ele>166.1</ele>
        <time>2020-05-30T18:22:55Z</time>
      </trkpt>
      <trkpt lat="46.48553" lon="-0.06606">
        <ele>166.2</ele>
        <time>2020-05-30T18:22:56Z</time>
      </trkpt>
      <trkpt lat="46.48552" lon="-0.06611">
        <ele>166.4</ele>
        <time>2020-05-30T18:22:57Z</time>
      </trkpt>
      <trkpt lat="46.48551" lon="-0.06616">
        <ele>166.5</ele>
        <time>2020-05-30T18:22:58Z</time>
      </trkpt>
      <trkpt lat="46.4855" lon="-0.0662">
        <ele>166.6</ele>
        <time>2020-05-30T18:22:59Z</time>
      </trkpt>
      <trkpt lat="46.48549" lon="-0.06625">
        <ele>166.8</ele>
        <time>2020-05-30T18:23:00Z</time>
      </trkpt>
      <trkpt lat="46.48549" lon="-0.06629">
        <ele>166.9</ele>
        <time>2020-05-30T18:23:01Z</time>
      </trkpt>
      <trkpt lat="46.48547" lon="-0.06633">
        <ele>167</ele>
        <time>2020-05-30T18:23:02Z</time>
      </trkpt>
      <trkpt lat="46.48547" lon="-0.06635">
        <ele>167</ele>
        <time>2020-05-30T18:23:03Z</time>
      </trkpt>
      <trkpt lat="46.48547" lon="-0.0664">
        <ele>167.2</ele>
        <time>2020-05-30T18:23:04Z</time>
      </trkpt>
      <trkpt lat="46.48547" lon="-0.06642">
        <ele>167.2</ele>
        <time>2020-05-30T18:23:05Z</time>
      </trkpt>
      <trkpt lat="46.48547" lon="-0.06646">
        <ele>167.3</ele>
        <time>2020-05-30T18:23:06Z</time>
      </trkpt>
      <trkpt lat="46.48546" lon="-0.06651">
        <ele>167.4</ele>
        <time>2020-05-30T18:23:07Z</time>
      </trkpt>
      <trkpt lat="46.48544" lon="-0.06655">
        <ele>167.6</ele>
        <time>2020-05-30T18:23:08Z</time>
      </trkpt>
      <trkpt lat="46.48545" lon="-0.0666">
        <ele>167.7</ele>
        <time>2020-05-30T18:23:09Z</time>
      </trkpt>
      <trkpt lat="46.48545" lon="-0.06664">
        <ele>167.8</ele>
        <time>2020-05-30T18:23:10Z</time>
      </trkpt>
      <trkpt lat="46.48545" lon="-0.06672">
        <ele>168</ele>
        <time>2020-05-30T18:23:11Z</time>
      </trkpt>
      <trkpt lat="46.48545" lon="-0.06676">
        <ele>168.1</ele>
        <time>2020-05-30T18:23:12Z</time>
      </trkpt>
      <trkpt lat="46.48545" lon="-0.0668">
        <ele>168.2</ele>
        <time>2020-05-30T18:23:13Z</time>
      </trkpt>
      <trkpt lat="46.48545" lon="-0.06682">
        <ele>168.2</ele>
        <time>2020-05-30T18:23:14Z</time>
      </trkpt>
      <trkpt lat="46.48545" lon="-0.06685">
        <ele>168.3</ele>
        <time>2020-05-30T18:23:15Z</time>
      </trkpt>
      <trkpt lat="46.48545" lon="-0.06692">
        <ele>168.5</ele>
        <time>2020-05-30T18:23:16Z</time>
      </trkpt>
      <trkpt lat="46.48544" lon="-0.06697">
        <ele>168.6</ele>
        <time>2020-05-30T18:23:17Z</time>
      </trkpt>
      <trkpt lat="46.48543" lon="-0.06703">
        <ele>168.7</ele>
        <time>2020-05-30T18:23:18Z</time>
      </trkpt>
      <trkpt lat="46.48543" lon="-0.06705">
        <ele>168.8</ele>
        <time>2020-05-30T18:23:19Z</time>
      </trkpt>
      <trkpt lat="46.48544" lon="-0.0671">
        <ele>168.9</ele>
        <time>2020-05-30T18:23:20Z</time>
      </trkpt>
      <trkpt lat="46.48545" lon="-0.06715">
        <ele>169</ele>
        <time>2020-05-30T18:23:21Z</time>
      </trkpt>
      <trkpt lat="46.48545" lon="-0.06721">
        <ele>169.1</ele>
        <time>2020-05-30T18:23:22Z</time>
      </trkpt>
      <trkpt lat="46.48545" lon="-0.06729">
        <ele>169.3</ele>
        <time>2020-05-30T18:23:23Z</time>
      </trkpt>
      <trkpt lat="46.48545" lon="-0.06733">
        <ele>169.4</ele>
        <time>2020-05-30T18:23:24Z</time>
      </trkpt>
      <trkpt lat="46.48545" lon="-0.06737">
        <ele>169.5</ele>
        <time>2020-05-30T18:23:25Z</time>
      </trkpt>
      <trkpt lat="46.48544" lon="-0.06741">
        <ele>169.6</ele>
        <time>2020-05-30T18:23:26Z</time>
      </trkpt>
      <trkpt lat="46.48545" lon="-0.06746">
        <ele>169.7</ele>
        <time>2020-05-30T18:23:27Z</time>
      </trkpt>
      <trkpt lat="46.48545" lon="-0.0675">
        <ele>169.8</ele>
        <time>2020-05-30T18:23:28Z</time>
      </trkpt>
      <trkpt lat="46.48545" lon="-0.06757">
        <ele>169.9</ele>
        <time>2020-05-30T18:23:29Z</time>
      </trkpt>
      <trkpt lat="46.48545" lon="-0.06764">
        <ele>170</ele>
        <time>2020-05-30T18:23:30Z</time>
      </trkpt>
      <trkpt lat="46.48546" lon="-0.06769">
        <ele>170.1</ele>
        <time>2020-05-30T18:23:31Z</time>
      </trkpt>
      <trkpt lat="46.48546" lon="-0.06773">
        <ele>170.2</ele>
        <time>2020-05-30T18:23:32Z</time>
      </trkpt>
      <trkpt lat="46.48546" lon="-0.06778">
        <ele>170.3</ele>
        <time>2020-05-30T18:23:33Z</time>
      </trkpt>
      <trkpt lat="46.48546" lon="-0.06784">
        <ele>170.4</ele>
        <time>2020-05-30T18:23:34Z</time>
      </trkpt>
      <trkpt lat="46.48547" lon="-0.06791">
        <ele>170.4</ele>
        <time>2020-05-30T18:23:35Z</time>
      </trkpt>
      <trkpt lat="46.48546" lon="-0.06797">
        <ele>170.5</ele>
        <time>2020-05-30T18:23:36Z</time>
      </trkpt>
      <trkpt lat="46.48547" lon="-0.06799">
        <ele>170.6</ele>
        <time>2020-05-30T18:23:37Z</time>
      </trkpt>
      <trkpt lat="46.48547" lon="-0.06806">
        <ele>170.6</ele>
        <time>2020-05-30T18:23:38Z</time>
      </trkpt>
      <trkpt lat="46.48548" lon="-0.06811">
        <ele>170.7</ele>
        <time>2020-05-30T18:23:39Z</time>
      </trkpt>
      <trkpt lat="46.48548" lon="-0.06817">
        <ele>170.8</ele>
        <time>2020-05-30T18:23:40Z</time>
      </trkpt>
      <trkpt lat="46.48549" lon="-0.06822">
        <ele>170.8</ele>
        <time>2020-05-30T18:23:41Z</time>
      </trkpt>
      <trkpt lat="46.48548" lon="-0.0683">
        <ele>170.9</ele>
        <time>2020-05-30T18:23:42Z</time>
      </trkpt>
      <trkpt lat="46.48549" lon="-0.06834">
        <ele>171</ele>
        <time>2020-05-30T18:23:43Z</time>
      </trkpt>
      <trkpt lat="46.48548" lon="-0.0684">
        <ele>171</ele>
        <time>2020-05-30T18:23:44Z</time>
      </trkpt>
      <trkpt lat="46.48548" lon="-0.06846">
        <ele>171.1</ele>
        <time>2020-05-30T18:23:45Z</time>
      </trkpt>
      <trkpt lat="46.48548" lon="-0.06851">
        <ele>171.1</ele>
        <time>2020-05-30T18:23:46Z</time>
      </trkpt>
      <trkpt lat="46.48549" lon="-0.06857">
        <ele>171.2</ele>
        <time>2020-05-30T18:23:47Z</time>
      </trkpt>
      <trkpt lat="46.48549" lon="-0.06864">
        <ele>171.2</ele>
        <time>2020-05-30T18:23:48Z</time>
      </trkpt>
      <trkpt lat="46.48549" lon="-0.0687">
        <ele>171.2</ele>
        <time>2020-05-30T18:23:49Z</time>
      </trkpt>
      <trkpt lat="46.48549" lon="-0.06876">
        <ele>171.2</ele>
        <time>2020-05-30T18:23:50Z</time>
      </trkpt>
      <trkpt lat="46.48549" lon="-0.06883">
        <ele>171.2</ele>
        <time>2020-05-30T18:23:51Z</time>
      </trkpt>
      <trkpt lat="46.48549" lon="-0.06889">
        <ele>171.2</ele>
        <time>2020-05-30T18:23:52Z</time>
      </trkpt>
      <trkpt lat="46.48549" lon="-0.06895">
        <ele>171.3</ele>
        <time>2020-05-30T18:23:53Z</time>
      </trkpt>
      <trkpt lat="46.48549" lon="-0.06901">
        <ele>171.3</ele>
        <time>2020-05-30T18:23:54Z</time>
      </trkpt>
      <trkpt lat="46.48549" lon="-0.06908">
        <ele>171.3</ele>
        <time>2020-05-30T18:23:55Z</time>
      </trkpt>
      <trkpt lat="46.4855" lon="-0.06914">
        <ele>171.3</ele>
        <time>2020-05-30T18:23:56Z</time>
      </trkpt>
      <trkpt lat="46.4855" lon="-0.06921">
        <ele>171.3</ele>
        <time>2020-05-30T18:23:57Z</time>
      </trkpt>
      <trkpt lat="46.48551" lon="-0.06927">
        <ele>171.3</ele>
        <time>2020-05-30T18:23:58Z</time>
      </trkpt>
      <trkpt lat="46.48553" lon="-0.06934">
        <ele>171.2</ele>
        <time>2020-05-30T18:23:59Z</time>
      </trkpt>
      <trkpt lat="46.48553" lon="-0.06942">
        <ele>171.2</ele>
        <time>2020-05-30T18:24:00Z</time>
      </trkpt>
      <trkpt lat="46.48553" lon="-0.06948">
        <ele>171.2</ele>
        <time>2020-05-30T18:24:01Z</time>
      </trkpt>
      <trkpt lat="46.48553" lon="-0.06953">
        <ele>171.2</ele>
        <time>2020-05-30T18:24:02Z</time>
      </trkpt>
      <trkpt lat="46.48552" lon="-0.06959">
        <ele>171.1</ele>
        <time>2020-05-30T18:24:03Z</time>
      </trkpt>
      <trkpt lat="46.48552" lon="-0.06966">
        <ele>171.1</ele>
        <time>2020-05-30T18:24:04Z</time>
      </trkpt>
      <trkpt lat="46.48552" lon="-0.06968">
        <ele>171.1</ele>
        <time>2020-05-30T18:24:05Z</time>
      </trkpt>
      <trkpt lat="46.48552" lon="-0.06974">
        <ele>171</ele>
        <time>2020-05-30T18:24:06Z</time>
      </trkpt>
      <trkpt lat="46.48552" lon="-0.0698">
        <ele>171</ele>
        <time>2020-05-30T18:24:07Z</time>
      </trkpt>
      <trkpt lat="46.48553" lon="-0.06986">
        <ele>170.9</ele>
        <time>2020-05-30T18:24:08Z</time>
      </trkpt>
      <trkpt lat="46.48554" lon="-0.06994">
        <ele>170.9</ele>
        <time>2020-05-30T18:24:09Z</time>
      </trkpt>
      <trkpt lat="46.48554" lon="-0.07">
        <ele>170.8</ele>
        <time>2020-05-30T18:24:10Z</time>
      </trkpt>
      <trkpt lat="46.48554" lon="-0.07006">
        <ele>170.8</ele>
        <time>2020-05-30T18:24:11Z</time>
      </trkpt>
      <trkpt lat="46.48554" lon="-0.07013">
        <ele>170.8</ele>
        <time>2020-05-30T18:24:12Z</time>
      </trkpt>
      <trkpt lat="46.48555" lon="-0.07018">
        <ele>170.7</ele>
        <time>2020-05-30T18:24:13Z</time>
      </trkpt>
      <trkpt lat="46.48554" lon="-0.07026">
        <ele>170.7</ele>
        <time>2020-05-30T18:24:14Z</time>
      </trkpt>
      <trkpt lat="46.48553" lon="-0.07034">
        <ele>170.6</ele>
        <time>2020-05-30T18:24:15Z</time>
      </trkpt>
      <trkpt lat="46.48551" lon="-0.07041">
        <ele>170.6</ele>
        <time>2020-05-30T18:24:16Z</time>
      </trkpt>
      <trkpt lat="46.4855" lon="-0.07047">
        <ele>170.6</ele>
        <time>2020-05-30T18:24:17Z</time>
      </trkpt>
      <trkpt lat="46.48549" lon="-0.07053">
        <ele>170.6</ele>
        <time>2020-05-30T18:24:18Z</time>
      </trkpt>
      <trkpt lat="46.48548" lon="-0.0706">
        <ele>170.5</ele>
        <time>2020-05-30T18:24:19Z</time>
      </trkpt>
      <trkpt lat="46.48547" lon="-0.07067">
        <ele>170.4</ele>
        <time>2020-05-30T18:24:20Z</time>
      </trkpt>
      <trkpt lat="46.48546" lon="-0.07075">
        <ele>170.3</ele>
        <time>2020-05-30T18:24:21Z</time>
      </trkpt>
      <trkpt lat="46.48543" lon="-0.07086">
        <ele>170</ele>
        <time>2020-05-30T18:24:22Z</time>
      </trkpt>
      <trkpt lat="46.4854" lon="-0.07095">
        <ele>169.8</ele>
        <time>2020-05-30T18:24:23Z</time>
      </trkpt>
      <trkpt lat="46.4854" lon="-0.07102">
        <ele>169.6</ele>
        <time>2020-05-30T18:24:24Z</time>
      </trkpt>
      <trkpt lat="46.48538" lon="-0.07113">
        <ele>169.3</ele>
        <time>2020-05-30T18:24:25Z</time>
      </trkpt>
      <trkpt lat="46.48537" lon="-0.07124">
        <ele>169</ele>
        <time>2020-05-30T18:24:26Z</time>
      </trkpt>
      <trkpt lat="46.48536" lon="-0.07133">
        <ele>168.7</ele>
        <time>2020-05-30T18:24:27Z</time>
      </trkpt>
      <trkpt lat="46.48534" lon="-0.07142">
        <ele>168.4</ele>
        <time>2020-05-30T18:24:28Z</time>
      </trkpt>
      <trkpt lat="46.48532" lon="-0.07154">
        <ele>168</ele>
        <time>2020-05-30T18:24:29Z</time>
      </trkpt>
      <trkpt lat="46.4853" lon="-0.07166">
        <ele>167.6</ele>
        <time>2020-05-30T18:24:30Z</time>
      </trkpt>
      <trkpt lat="46.48528" lon="-0.07178">
        <ele>167.2</ele>
        <time>2020-05-30T18:24:31Z</time>
      </trkpt>
      <trkpt lat="46.48526" lon="-0.07189">
        <ele>166.7</ele>
        <time>2020-05-30T18:24:32Z</time>
      </trkpt>
      <trkpt lat="46.48524" lon="-0.07202">
        <ele>166.3</ele>
        <time>2020-05-30T18:24:33Z</time>
      </trkpt>
      <trkpt lat="46.48522" lon="-0.07214">
        <ele>166</ele>
        <time>2020-05-30T18:24:34Z</time>
      </trkpt>
      <trkpt lat="46.4852" lon="-0.07226">
        <ele>165.7</ele>
        <time>2020-05-30T18:24:35Z</time>
      </trkpt>
      <trkpt lat="46.48518" lon="-0.07239">
        <ele>165.3</ele>
        <time>2020-05-30T18:24:36Z</time>
      </trkpt>
      <trkpt lat="46.48516" lon="-0.07251">
        <ele>165</ele>
        <time>2020-05-30T18:24:37Z</time>
      </trkpt>
      <trkpt lat="46.48514" lon="-0.07264">
        <ele>164.6</ele>
        <time>2020-05-30T18:24:38Z</time>
      </trkpt>
      <trkpt lat="46.48511" lon="-0.07277">
        <ele>164.3</ele>
        <time>2020-05-30T18:24:39Z</time>
      </trkpt>
      <trkpt lat="46.48509" lon="-0.07289">
        <ele>163.9</ele>
        <time>2020-05-30T18:24:40Z</time>
      </trkpt>
      <trkpt lat="46.48507" lon="-0.07302">
        <ele>163.6</ele>
        <time>2020-05-30T18:24:41Z</time>
      </trkpt>
      <trkpt lat="46.48504" lon="-0.07315">
        <ele>163.2</ele>
        <time>2020-05-30T18:24:42Z</time>
      </trkpt>
      <trkpt lat="46.48502" lon="-0.07328">
        <ele>162.9</ele>
        <time>2020-05-30T18:24:43Z</time>
      </trkpt>
      <trkpt lat="46.48499" lon="-0.0734">
        <ele>162.5</ele>
        <time>2020-05-30T18:24:44Z</time>
      </trkpt>
      <trkpt lat="46.48497" lon="-0.07355">
        <ele>162.1</ele>
        <time>2020-05-30T18:24:45Z</time>
      </trkpt>
      <trkpt lat="46.48494" lon="-0.07368">
        <ele>161.9</ele>
        <time>2020-05-30T18:24:46Z</time>
      </trkpt>
      <trkpt lat="46.48491" lon="-0.07382">
        <ele>161.7</ele>
        <time>2020-05-30T18:24:47Z</time>
      </trkpt>
      <trkpt lat="46.48488" lon="-0.07396">
        <ele>161.7</ele>
        <time>2020-05-30T18:24:48Z</time>
      </trkpt>
      <trkpt lat="46.48486" lon="-0.07409">
        <ele>161.5</ele>
        <time>2020-05-30T18:24:49Z</time>
      </trkpt>
      <trkpt lat="46.48484" lon="-0.07423">
        <ele>161.1</ele>
        <time>2020-05-30T18:24:50Z</time>
      </trkpt>
      <trkpt lat="46.48481" lon="-0.07436">
        <ele>160.7</ele>
        <time>2020-05-30T18:24:51Z</time>
      </trkpt>
      <trkpt lat="46.48479" lon="-0.0745">
        <ele>160.3</ele>
        <time>2020-05-30T18:24:52Z</time>
      </trkpt>
      <trkpt lat="46.48477" lon="-0.07464">
        <ele>159.9</ele>
        <time>2020-05-30T18:24:53Z</time>
      </trkpt>
      <trkpt lat="46.48475" lon="-0.07477">
        <ele>159.5</ele>
        <time>2020-05-30T18:24:54Z</time>
      </trkpt>
      <trkpt lat="46.48472" lon="-0.07491">
        <ele>159.1</ele>
        <time>2020-05-30T18:24:55Z</time>
      </trkpt>
      <trkpt lat="46.4847" lon="-0.07505">
        <ele>158.6</ele>
        <time>2020-05-30T18:24:56Z</time>
      </trkpt>
      <trkpt lat="46.48468" lon="-0.07518">
        <ele>158.2</ele>
        <time>2020-05-30T18:24:57Z</time>
      </trkpt>
      <trkpt lat="46.48466" lon="-0.07532">
        <ele>157.8</ele>
        <time>2020-05-30T18:24:58Z</time>
      </trkpt>
      <trkpt lat="46.48465" lon="-0.07546">
        <ele>157.3</ele>
        <time>2020-05-30T18:24:59Z</time>
      </trkpt>
      <trkpt lat="46.48464" lon="-0.0756">
        <ele>156.9</ele>
        <time>2020-05-30T18:25:00Z</time>
      </trkpt>
      <trkpt lat="46.48464" lon="-0.07574">
        <ele>156.3</ele>
        <time>2020-05-30T18:25:01Z</time>
      </trkpt>
      <trkpt lat="46.48463" lon="-0.07589">
        <ele>155.8</ele>
        <time>2020-05-30T18:25:02Z</time>
      </trkpt>
      <trkpt lat="46.48463" lon="-0.07603">
        <ele>155.4</ele>
        <time>2020-05-30T18:25:03Z</time>
      </trkpt>
      <trkpt lat="46.48464" lon="-0.07618">
        <ele>155</ele>
        <time>2020-05-30T18:25:04Z</time>
      </trkpt>
      <trkpt lat="46.48465" lon="-0.07633">
        <ele>154.5</ele>
        <time>2020-05-30T18:25:05Z</time>
      </trkpt>
      <trkpt lat="46.48467" lon="-0.07648">
        <ele>154.1</ele>
        <time>2020-05-30T18:25:06Z</time>
      </trkpt>
      <trkpt lat="46.48469" lon="-0.07663">
        <ele>153.7</ele>
        <time>2020-05-30T18:25:07Z</time>
      </trkpt>
      <trkpt lat="46.48471" lon="-0.07679">
        <ele>153.4</ele>
        <time>2020-05-30T18:25:08Z</time>
      </trkpt>
      <trkpt lat="46.48473" lon="-0.07694">
        <ele>153.3</ele>
        <time>2020-05-30T18:25:09Z</time>
      </trkpt>
      <trkpt lat="46.48476" lon="-0.07709">
        <ele>153</ele>
        <time>2020-05-30T18:25:10Z</time>
      </trkpt>
      <trkpt lat="46.48477" lon="-0.07724">
        <ele>152.6</ele>
        <time>2020-05-30T18:25:11Z</time>
      </trkpt>
      <trkpt lat="46.48479" lon="-0.07738">
        <ele>152.2</ele>
        <time>2020-05-30T18:25:12Z</time>
      </trkpt>
      <trkpt lat="46.4848" lon="-0.07752">
        <ele>152</ele>
        <time>2020-05-30T18:25:13Z</time>
      </trkpt>
      <trkpt lat="46.4848" lon="-0.07766">
        <ele>151.9</ele>
        <time>2020-05-30T18:25:14Z</time>
      </trkpt>
      <trkpt lat="46.48482" lon="-0.0778">
        <ele>151.7</ele>
        <time>2020-05-30T18:25:15Z</time>
      </trkpt>
      <trkpt lat="46.48484" lon="-0.07794">
        <ele>151.6</ele>
        <time>2020-05-30T18:25:16Z</time>
      </trkpt>
      <trkpt lat="46.48486" lon="-0.07807">
        <ele>151.4</ele>
        <time>2020-05-30T18:25:17Z</time>
      </trkpt>
      <trkpt lat="46.48487" lon="-0.0782">
        <ele>151.3</ele>
        <time>2020-05-30T18:25:18Z</time>
      </trkpt>
      <trkpt lat="46.48488" lon="-0.07833">
        <ele>151.2</ele>
        <time>2020-05-30T18:25:19Z</time>
      </trkpt>
      <trkpt lat="46.48489" lon="-0.07845">
        <ele>151.2</ele>
        <time>2020-05-30T18:25:20Z</time>
      </trkpt>
      <trkpt lat="46.48491" lon="-0.07857">
        <ele>151.1</ele>
        <time>2020-05-30T18:25:21Z</time>
      </trkpt>
      <trkpt lat="46.48492" lon="-0.07869">
        <ele>151</ele>
        <time>2020-05-30T18:25:22Z</time>
      </trkpt>
      <trkpt lat="46.48495" lon="-0.0788">
        <ele>151</ele>
        <time>2020-05-30T18:25:23Z</time>
      </trkpt>
      <trkpt lat="46.48496" lon="-0.07891">
        <ele>151</ele>
        <time>2020-05-30T18:25:24Z</time>
      </trkpt>
      <trkpt lat="46.48498" lon="-0.079">
        <ele>151</ele>
        <time>2020-05-30T18:25:25Z</time>
      </trkpt>
      <trkpt lat="46.48498" lon="-0.0791">
        <ele>151</ele>
        <time>2020-05-30T18:25:26Z</time>
      </trkpt>
      <trkpt lat="46.48499" lon="-0.07919">
        <ele>151.1</ele>
        <time>2020-05-30T18:25:27Z</time>
      </trkpt>
      <trkpt lat="46.485" lon="-0.07928">
        <ele>151.2</ele>
        <time>2020-05-30T18:25:28Z</time>
      </trkpt>
      <trkpt lat="46.48501" lon="-0.07936">
        <ele>151.3</ele>
        <time>2020-05-30T18:25:29Z</time>
      </trkpt>
      <trkpt lat="46.48502" lon="-0.07943">
        <ele>151.4</ele>
        <time>2020-05-30T18:25:30Z</time>
      </trkpt>
      <trkpt lat="46.48504" lon="-0.07951">
        <ele>151.6</ele>
        <time>2020-05-30T18:25:31Z</time>
      </trkpt>
      <trkpt lat="46.48505" lon="-0.07959">
        <ele>151.8</ele>
        <time>2020-05-30T18:25:32Z</time>
      </trkpt>
      <trkpt lat="46.48507" lon="-0.07966">
        <ele>151.9</ele>
        <time>2020-05-30T18:25:33Z</time>
      </trkpt>
      <trkpt lat="46.48506" lon="-0.07973">
        <ele>152.1</ele>
        <time>2020-05-30T18:25:34Z</time>
      </trkpt>
      <trkpt lat="46.48506" lon="-0.0798">
        <ele>152.3</ele>
        <time>2020-05-30T18:25:35Z</time>
      </trkpt>
      <trkpt lat="46.48506" lon="-0.07986">
        <ele>152.4</ele>
        <time>2020-05-30T18:25:36Z</time>
      </trkpt>
      <trkpt lat="46.48505" lon="-0.07993">
        <ele>152.6</ele>
        <time>2020-05-30T18:25:37Z</time>
      </trkpt>
      <trkpt lat="46.48504" lon="-0.07999">
        <ele>152.7</ele>
        <time>2020-05-30T18:25:38Z</time>
      </trkpt>
      <trkpt lat="46.48504" lon="-0.08006">
        <ele>152.9</ele>
        <time>2020-05-30T18:25:39Z</time>
      </trkpt>
      <trkpt lat="46.48504" lon="-0.08012">
        <ele>153</ele>
        <time>2020-05-30T18:25:40Z</time>
      </trkpt>
      <trkpt lat="46.48504" lon="-0.08019">
        <ele>153.2</ele>
        <time>2020-05-30T18:25:41Z</time>
      </trkpt>
      <trkpt lat="46.48504" lon="-0.08025">
        <ele>153.3</ele>
        <time>2020-05-30T18:25:42Z</time>
      </trkpt>
      <trkpt lat="46.48502" lon="-0.08031">
        <ele>153.5</ele>
        <time>2020-05-30T18:25:43Z</time>
      </trkpt>
      <trkpt lat="46.48501" lon="-0.08037">
        <ele>153.6</ele>
        <time>2020-05-30T18:25:44Z</time>
      </trkpt>
      <trkpt lat="46.485" lon="-0.08043">
        <ele>153.8</ele>
        <time>2020-05-30T18:25:45Z</time>
      </trkpt>
      <trkpt lat="46.48499" lon="-0.08049">
        <ele>153.9</ele>
        <time>2020-05-30T18:25:46Z</time>
      </trkpt>
      <trkpt lat="46.48498" lon="-0.08055">
        <ele>154</ele>
        <time>2020-05-30T18:25:47Z</time>
      </trkpt>
      <trkpt lat="46.48499" lon="-0.08062">
        <ele>154.2</ele>
        <time>2020-05-30T18:25:48Z</time>
      </trkpt>
      <trkpt lat="46.48498" lon="-0.08068">
        <ele>154.3</ele>
        <time>2020-05-30T18:25:49Z</time>
      </trkpt>
      <trkpt lat="46.48499" lon="-0.08074">
        <ele>154.5</ele>
        <time>2020-05-30T18:25:50Z</time>
      </trkpt>
      <trkpt lat="46.48498" lon="-0.08081">
        <ele>154.6</ele>
        <time>2020-05-30T18:25:51Z</time>
      </trkpt>
      <trkpt lat="46.48497" lon="-0.08087">
        <ele>154.7</ele>
        <time>2020-05-30T18:25:52Z</time>
      </trkpt>
      <trkpt lat="46.48496" lon="-0.08094">
        <ele>154.8</ele>
        <time>2020-05-30T18:25:53Z</time>
      </trkpt>
      <trkpt lat="46.48495" lon="-0.08099">
        <ele>154.9</ele>
        <time>2020-05-30T18:25:54Z</time>
      </trkpt>
      <trkpt lat="46.48494" lon="-0.08105">
        <ele>155</ele>
        <time>2020-05-30T18:25:55Z</time>
      </trkpt>
      <trkpt lat="46.48493" lon="-0.08112">
        <ele>155.1</ele>
        <time>2020-05-30T18:25:56Z</time>
      </trkpt>
      <trkpt lat="46.48493" lon="-0.0812">
        <ele>155.2</ele>
        <time>2020-05-30T18:25:57Z</time>
      </trkpt>
      <trkpt lat="46.48493" lon="-0.08127">
        <ele>155.3</ele>
        <time>2020-05-30T18:25:58Z</time>
      </trkpt>
      <trkpt lat="46.48492" lon="-0.08135">
        <ele>155.4</ele>
        <time>2020-05-30T18:25:59Z</time>
      </trkpt>
      <trkpt lat="46.48492" lon="-0.08141">
        <ele>155.4</ele>
        <time>2020-05-30T18:26:00Z</time>
      </trkpt>
      <trkpt lat="46.48491" lon="-0.08147">
        <ele>155.5</ele>
        <time>2020-05-30T18:26:01Z</time>
      </trkpt>
      <trkpt lat="46.48491" lon="-0.08152">
        <ele>155.6</ele>
        <time>2020-05-30T18:26:02Z</time>
      </trkpt>
      <trkpt lat="46.4849" lon="-0.08158">
        <ele>155.6</ele>
        <time>2020-05-30T18:26:03Z</time>
      </trkpt>
      <trkpt lat="46.48489" lon="-0.08164">
        <ele>155.7</ele>
        <time>2020-05-30T18:26:04Z</time>
      </trkpt>
      <trkpt lat="46.48488" lon="-0.08173">
        <ele>155.9</ele>
        <time>2020-05-30T18:26:05Z</time>
      </trkpt>
      <trkpt lat="46.48487" lon="-0.08179">
        <ele>156</ele>
        <time>2020-05-30T18:26:06Z</time>
      </trkpt>
      <trkpt lat="46.48486" lon="-0.08185">
        <ele>156.1</ele>
        <time>2020-05-30T18:26:07Z</time>
      </trkpt>
      <trkpt lat="46.48486" lon="-0.0819">
        <ele>156.2</ele>
        <time>2020-05-30T18:26:08Z</time>
      </trkpt>
      <trkpt lat="46.48485" lon="-0.08196">
        <ele>156.3</ele>
        <time>2020-05-30T18:26:09Z</time>
      </trkpt>
      <trkpt lat="46.48484" lon="-0.08204">
        <ele>156.5</ele>
        <time>2020-05-30T18:26:10Z</time>
      </trkpt>
      <trkpt lat="46.48484" lon="-0.08208">
        <ele>156.6</ele>
        <time>2020-05-30T18:26:11Z</time>
      </trkpt>
      <trkpt lat="46.48484" lon="-0.08214">
        <ele>156.7</ele>
        <time>2020-05-30T18:26:12Z</time>
      </trkpt>
      <trkpt lat="46.48483" lon="-0.08219">
        <ele>156.8</ele>
        <time>2020-05-30T18:26:13Z</time>
      </trkpt>
      <trkpt lat="46.48483" lon="-0.08225">
        <ele>157</ele>
        <time>2020-05-30T18:26:14Z</time>
      </trkpt>
      <trkpt lat="46.48483" lon="-0.08232">
        <ele>157.1</ele>
        <time>2020-05-30T18:26:15Z</time>
      </trkpt>
      <trkpt lat="46.48483" lon="-0.08237">
        <ele>157.3</ele>
        <time>2020-05-30T18:26:16Z</time>
      </trkpt>
      <trkpt lat="46.48484" lon="-0.08241">
        <ele>157.4</ele>
        <time>2020-05-30T18:26:17Z</time>
      </trkpt>
      <trkpt lat="46.48484" lon="-0.08247">
        <ele>157.6</ele>
        <time>2020-05-30T18:26:18Z</time>
      </trkpt>
      <trkpt lat="46.48484" lon="-0.08252">
        <ele>157.7</ele>
        <time>2020-05-30T18:26:19Z</time>
      </trkpt>
      <trkpt lat="46.48485" lon="-0.08256">
        <ele>157.8</ele>
        <time>2020-05-30T18:26:20Z</time>
      </trkpt>
      <trkpt lat="46.48484" lon="-0.08262">
        <ele>158</ele>
        <time>2020-05-30T18:26:21Z</time>
      </trkpt>
      <trkpt lat="46.48485" lon="-0.08267">
        <ele>158.1</ele>
        <time>2020-05-30T18:26:22Z</time>
      </trkpt>
      <trkpt lat="46.48485" lon="-0.08272">
        <ele>158.3</ele>
        <time>2020-05-30T18:26:23Z</time>
      </trkpt>
      <trkpt lat="46.48485" lon="-0.0828">
        <ele>158.5</ele>
        <time>2020-05-30T18:26:24Z</time>
      </trkpt>
      <trkpt lat="46.48485" lon="-0.08285">
        <ele>158.6</ele>
        <time>2020-05-30T18:26:25Z</time>
      </trkpt>
      <trkpt lat="46.48485" lon="-0.08291">
        <ele>158.8</ele>
        <time>2020-05-30T18:26:26Z</time>
      </trkpt>
      <trkpt lat="46.48486" lon="-0.08295">
        <ele>158.9</ele>
        <time>2020-05-30T18:26:27Z</time>
      </trkpt>
      <trkpt lat="46.48486" lon="-0.083">
        <ele>159</ele>
        <time>2020-05-30T18:26:28Z</time>
      </trkpt>
      <trkpt lat="46.48486" lon="-0.08306">
        <ele>159.2</ele>
        <time>2020-05-30T18:26:29Z</time>
      </trkpt>
      <trkpt lat="46.48486" lon="-0.08313">
        <ele>159.4</ele>
        <time>2020-05-30T18:26:30Z</time>
      </trkpt>
      <trkpt lat="46.48486" lon="-0.08319">
        <ele>159.6</ele>
        <time>2020-05-30T18:26:31Z</time>
      </trkpt>
      <trkpt lat="46.48486" lon="-0.08324">
        <ele>159.7</ele>
        <time>2020-05-30T18:26:32Z</time>
      </trkpt>
      <trkpt lat="46.48486" lon="-0.08329">
        <ele>159.8</ele>
        <time>2020-05-30T18:26:33Z</time>
      </trkpt>
      <trkpt lat="46.48487" lon="-0.08336">
        <ele>160</ele>
        <time>2020-05-30T18:26:34Z</time>
      </trkpt>
      <trkpt lat="46.48486" lon="-0.08342">
        <ele>160.2</ele>
        <time>2020-05-30T18:26:35Z</time>
      </trkpt>
      <trkpt lat="46.48486" lon="-0.08348">
        <ele>160.4</ele>
        <time>2020-05-30T18:26:36Z</time>
      </trkpt>
      <trkpt lat="46.48486" lon="-0.08353">
        <ele>160.6</ele>
        <time>2020-05-30T18:26:37Z</time>
      </trkpt>
      <trkpt lat="46.48487" lon="-0.08357">
        <ele>160.7</ele>
        <time>2020-05-30T18:26:38Z</time>
      </trkpt>
      <trkpt lat="46.48489" lon="-0.08364">
        <ele>160.9</ele>
        <time>2020-05-30T18:26:39Z</time>
      </trkpt>
      <trkpt lat="46.48489" lon="-0.08369">
        <ele>161.1</ele>
        <time>2020-05-30T18:26:40Z</time>
      </trkpt>
      <trkpt lat="46.4849" lon="-0.08374">
        <ele>161.3</ele>
        <time>2020-05-30T18:26:41Z</time>
      </trkpt>
      <trkpt lat="46.4849" lon="-0.0838">
        <ele>161.4</ele>
        <time>2020-05-30T18:26:42Z</time>
      </trkpt>
      <trkpt lat="46.48491" lon="-0.08384">
        <ele>161.6</ele>
        <time>2020-05-30T18:26:43Z</time>
      </trkpt>
      <trkpt lat="46.48492" lon="-0.08391">
        <ele>161.8</ele>
        <time>2020-05-30T18:26:44Z</time>
      </trkpt>
      <trkpt lat="46.48493" lon="-0.08397">
        <ele>162</ele>
        <time>2020-05-30T18:26:45Z</time>
      </trkpt>
      <trkpt lat="46.48495" lon="-0.08403">
        <ele>162.2</ele>
        <time>2020-05-30T18:26:46Z</time>
      </trkpt>
      <trkpt lat="46.48496" lon="-0.0841">
        <ele>162.4</ele>
        <time>2020-05-30T18:26:47Z</time>
      </trkpt>
      <trkpt lat="46.48498" lon="-0.08416">
        <ele>162.6</ele>
        <time>2020-05-30T18:26:48Z</time>
      </trkpt>
      <trkpt lat="46.485" lon="-0.08421">
        <ele>162.8</ele>
        <time>2020-05-30T18:26:49Z</time>
      </trkpt>
      <trkpt lat="46.48502" lon="-0.08428">
        <ele>163</ele>
        <time>2020-05-30T18:26:50Z</time>
      </trkpt>
      <trkpt lat="46.48504" lon="-0.08434">
        <ele>163.1</ele>
        <time>2020-05-30T18:26:51Z</time>
      </trkpt>
      <trkpt lat="46.48505" lon="-0.08439">
        <ele>163.2</ele>
        <time>2020-05-30T18:26:52Z</time>
      </trkpt>
      <trkpt lat="46.48507" lon="-0.08445">
        <ele>163.4</ele>
        <time>2020-05-30T18:26:53Z</time>
      </trkpt>
      <trkpt lat="46.48507" lon="-0.08451">
        <ele>163.5</ele>
        <time>2020-05-30T18:26:54Z</time>
      </trkpt>
      <trkpt lat="46.48508" lon="-0.08457">
        <ele>163.6</ele>
        <time>2020-05-30T18:26:55Z</time>
      </trkpt>
      <trkpt lat="46.48508" lon="-0.08464">
        <ele>163.7</ele>
        <time>2020-05-30T18:26:56Z</time>
      </trkpt>
      <trkpt lat="46.48509" lon="-0.08471">
        <ele>163.8</ele>
        <time>2020-05-30T18:26:57Z</time>
      </trkpt>
      <trkpt lat="46.48512" lon="-0.08478">
        <ele>164</ele>
        <time>2020-05-30T18:26:58Z</time>
      </trkpt>
      <trkpt lat="46.48513" lon="-0.08484">
        <ele>164.1</ele>
        <time>2020-05-30T18:26:59Z</time>
      </trkpt>
      <trkpt lat="46.48515" lon="-0.08488">
        <ele>164.1</ele>
        <time>2020-05-30T18:27:00Z</time>
      </trkpt>
      <trkpt lat="46.48517" lon="-0.08493">
        <ele>164.2</ele>
        <time>2020-05-30T18:27:01Z</time>
      </trkpt>
      <trkpt lat="46.48518" lon="-0.08498">
        <ele>164.3</ele>
        <time>2020-05-30T18:27:02Z</time>
      </trkpt>
      <trkpt lat="46.4852" lon="-0.08505">
        <ele>164.4</ele>
        <time>2020-05-30T18:27:03Z</time>
      </trkpt>
      <trkpt lat="46.48522" lon="-0.08512">
        <ele>164.6</ele>
        <time>2020-05-30T18:27:04Z</time>
      </trkpt>
      <trkpt lat="46.48523" lon="-0.0852">
        <ele>164.6</ele>
        <time>2020-05-30T18:27:05Z</time>
      </trkpt>
      <trkpt lat="46.48525" lon="-0.08526">
        <ele>164.7</ele>
        <time>2020-05-30T18:27:06Z</time>
      </trkpt>
      <trkpt lat="46.48526" lon="-0.08532">
        <ele>164.7</ele>
        <time>2020-05-30T18:27:07Z</time>
      </trkpt>
      <trkpt lat="46.48526" lon="-0.08539">
        <ele>164.8</ele>
        <time>2020-05-30T18:27:08Z</time>
      </trkpt>
      <trkpt lat="46.48526" lon="-0.08545">
        <ele>164.8</ele>
        <time>2020-05-30T18:27:09Z</time>
      </trkpt>
      <trkpt lat="46.48527" lon="-0.08551">
        <ele>164.8</ele>
        <time>2020-05-30T18:27:10Z</time>
      </trkpt>
      <trkpt lat="46.48527" lon="-0.08559">
        <ele>164.8</ele>
        <time>2020-05-30T18:27:11Z</time>
      </trkpt>
      <trkpt lat="46.48526" lon="-0.08565">
        <ele>164.9</ele>
        <time>2020-05-30T18:27:12Z</time>
      </trkpt>
      <trkpt lat="46.48525" lon="-0.08572">
        <ele>164.9</ele>
        <time>2020-05-30T18:27:13Z</time>
      </trkpt>
      <trkpt lat="46.48523" lon="-0.08579">
        <ele>164.9</ele>
        <time>2020-05-30T18:27:14Z</time>
      </trkpt>
      <trkpt lat="46.4852" lon="-0.08585">
        <ele>164.9</ele>
        <time>2020-05-30T18:27:15Z</time>
      </trkpt>
      <trkpt lat="46.48519" lon="-0.08592">
        <ele>164.9</ele>
        <time>2020-05-30T18:27:16Z</time>
      </trkpt>
      <trkpt lat="46.48516" lon="-0.08598">
        <ele>164.9</ele>
        <time>2020-05-30T18:27:17Z</time>
      </trkpt>
      <trkpt lat="46.48513" lon="-0.08606">
        <ele>164.9</ele>
        <time>2020-05-30T18:27:18Z</time>
      </trkpt>
      <trkpt lat="46.48511" lon="-0.08613">
        <ele>164.9</ele>
        <time>2020-05-30T18:27:19Z</time>
      </trkpt>
      <trkpt lat="46.48508" lon="-0.08616">
        <ele>164.9</ele>
        <time>2020-05-30T18:27:20Z</time>
      </trkpt>
      <trkpt lat="46.48506" lon="-0.08624">
        <ele>164.9</ele>
        <time>2020-05-30T18:27:21Z</time>
      </trkpt>
      <trkpt lat="46.48504" lon="-0.08629">
        <ele>164.9</ele>
        <time>2020-05-30T18:27:22Z</time>
      </trkpt>
      <trkpt lat="46.48502" lon="-0.08634">
        <ele>164.9</ele>
        <time>2020-05-30T18:27:23Z</time>
      </trkpt>
      <trkpt lat="46.48502" lon="-0.08638">
        <ele>164.9</ele>
        <time>2020-05-30T18:27:24Z</time>
      </trkpt>
      <trkpt lat="46.48502" lon="-0.08644">
        <ele>164.9</ele>
        <time>2020-05-30T18:27:25Z</time>
      </trkpt>
      <trkpt lat="46.48502" lon="-0.08646">
        <ele>164.9</ele>
        <time>2020-05-30T18:27:26Z</time>
      </trkpt>
      <trkpt lat="46.48502" lon="-0.08647">
        <ele>164.9</ele>
        <time>2020-05-30T18:27:27Z</time>
      </trkpt>
      <trkpt lat="46.48502" lon="-0.08649">
        <ele>164.9</ele>
        <time>2020-05-30T18:27:28Z</time>
      </trkpt>
      <trkpt lat="46.48503" lon="-0.08651">
        <ele>164.9</ele>
        <time>2020-05-30T18:27:29Z</time>
      </trkpt>
      <trkpt lat="46.48503" lon="-0.0865">
        <ele>164.9</ele>
        <time>2020-05-30T18:27:30Z</time>
      </trkpt>
      <trkpt lat="46.48503" lon="-0.0865">
        <ele>164.9</ele>
        <time>2020-05-30T18:27:31Z</time>
      </trkpt>
      <trkpt lat="46.48504" lon="-0.08648">
        <ele>164.9</ele>
        <time>2020-05-30T18:27:32Z</time>
      </trkpt>
      <trkpt lat="46.48504" lon="-0.08648">
        <ele>164.9</ele>
        <time>2020-05-30T18:27:33Z</time>
      </trkpt>
      <trkpt lat="46.48505" lon="-0.08647">
        <ele>164.9</ele>
        <time>2020-05-30T18:27:34Z</time>
      </trkpt>
      <trkpt lat="46.48506" lon="-0.08647">
        <ele>164.9</ele>
        <time>2020-05-30T18:27:35Z</time>
      </trkpt>
      <trkpt lat="46.48506" lon="-0.08646">
        <ele>164.9</ele>
        <time>2020-05-30T18:27:36Z</time>
      </trkpt>
      <trkpt lat="46.48506" lon="-0.08645">
        <ele>164.9</ele>
        <time>2020-05-30T18:27:37Z</time>
      </trkpt>
      <trkpt lat="46.48506" lon="-0.08645">
        <ele>164.9</ele>
        <time>2020-05-30T18:27:38Z</time>
      </trkpt>
      <trkpt lat="46.48506" lon="-0.08646">
        <ele>164.9</ele>
        <time>2020-05-30T18:27:39Z</time>
      </trkpt>
      <trkpt lat="46.48506" lon="-0.08644">
        <ele>164.9</ele>
        <time>2020-05-30T18:27:40Z</time>
      </trkpt>
      <trkpt lat="46.48505" lon="-0.08644">
        <ele>164.9</ele>
        <time>2020-05-30T18:27:41Z</time>
      </trkpt>
      <trkpt lat="46.48505" lon="-0.08645">
        <ele>164.9</ele>
        <time>2020-05-30T18:27:42Z</time>
      </trkpt>
      <trkpt lat="46.48505" lon="-0.08645">
        <ele>164.9</ele>
        <time>2020-05-30T18:27:43Z</time>
      </trkpt>
      <trkpt lat="46.48505" lon="-0.08644">
        <ele>164.9</ele>
        <time>2020-05-30T18:27:44Z</time>
      </trkpt>
      <trkpt lat="46.48505" lon="-0.08643">
        <ele>164.9</ele>
        <time>2020-05-30T18:27:45Z</time>
      </trkpt>
      <trkpt lat="46.48504" lon="-0.08644">
        <ele>164.9</ele>
        <time>2020-05-30T18:27:46Z</time>
      </trkpt>
      <trkpt lat="46.48504" lon="-0.08645">
        <ele>164.9</ele>
        <time>2020-05-30T18:27:47Z</time>
      </trkpt>
      <trkpt lat="46.48505" lon="-0.08643">
        <ele>164.9</ele>
        <time>2020-05-30T18:27:48Z</time>
      </trkpt>
      <trkpt lat="46.48505" lon="-0.08644">
        <ele>164.9</ele>
        <time>2020-05-30T18:27:49Z</time>
      </trkpt>
      <trkpt lat="46.48505" lon="-0.08644">
        <ele>164.9</ele>
        <time>2020-05-30T18:27:50Z</time>
      </trkpt>
      <trkpt lat="46.48505" lon="-0.08644">
        <ele>164.9</ele>
        <time>2020-05-30T18:27:51Z</time>
      </trkpt>
      <trkpt lat="46.48505" lon="-0.08644">
        <ele>164.9</ele>
        <time>2020-05-30T18:27:52Z</time>
      </trkpt>
      <trkpt lat="46.48505" lon="-0.08644">
        <ele>164.9</ele>
        <time>2020-05-30T18:27:53Z</time>
      </trkpt>
      <trkpt lat="46.48505" lon="-0.08644">
        <ele>164.9</ele>
        <time>2020-05-30T18:27:54Z</time>
      </trkpt>
      <trkpt lat="46.48505" lon="-0.08644">
        <ele>164.9</ele>
        <time>2020-05-30T18:27:55Z</time>
      </trkpt>
      <trkpt lat="46.48505" lon="-0.08645">
        <ele>164.9</ele>
        <time>2020-05-30T18:27:56Z</time>
      </trkpt>
      <trkpt lat="46.48505" lon="-0.08645">
        <ele>164.9</ele>
        <time>2020-05-30T18:27:57Z</time>
      </trkpt>
      <trkpt lat="46.48505" lon="-0.08645">
        <ele>164.9</ele>
        <time>2020-05-30T18:27:58Z</time>
      </trkpt>
      <trkpt lat="46.48504" lon="-0.08645">
        <ele>164.9</ele>
        <time>2020-05-30T18:27:59Z</time>
      </trkpt>
      <trkpt lat="46.48504" lon="-0.08647">
        <ele>164.9</ele>
        <time>2020-05-30T18:28:00Z</time>
      </trkpt>
      <trkpt lat="46.48504" lon="-0.08648">
        <ele>164.9</ele>
        <time>2020-05-30T18:28:01Z</time>
      </trkpt>
      <trkpt lat="46.48504" lon="-0.08648">
        <ele>164.9</ele>
        <time>2020-05-30T18:28:02Z</time>
      </trkpt>
      <trkpt lat="46.48504" lon="-0.08649">
        <ele>164.9</ele>
        <time>2020-05-30T18:28:03Z</time>
      </trkpt>
      <trkpt lat="46.48504" lon="-0.0865">
        <ele>164.9</ele>
        <time>2020-05-30T18:28:04Z</time>
      </trkpt>
      <trkpt lat="46.48505" lon="-0.08649">
        <ele>164.9</ele>
        <time>2020-05-30T18:28:05Z</time>
      </trkpt>
      <trkpt lat="46.48505" lon="-0.08648">
        <ele>164.9</ele>
        <time>2020-05-30T18:28:06Z</time>
      </trkpt>
      <trkpt lat="46.48505" lon="-0.08647">
        <ele>164.9</ele>
        <time>2020-05-30T18:28:07Z</time>
      </trkpt>
      <trkpt lat="46.48505" lon="-0.08646">
        <ele>164.9</ele>
        <time>2020-05-30T18:28:08Z</time>
      </trkpt>
      <trkpt lat="46.48505" lon="-0.08646">
        <ele>164.9</ele>
        <time>2020-05-30T18:28:09Z</time>
      </trkpt>
      <trkpt lat="46.48505" lon="-0.08646">
        <ele>164.9</ele>
        <time>2020-05-30T18:28:10Z</time>
      </trkpt>
      <trkpt lat="46.48505" lon="-0.08646">
        <ele>164.9</ele>
        <time>2020-05-30T18:28:11Z</time>
      </trkpt>
      <trkpt lat="46.48505" lon="-0.08645">
        <ele>164.9</ele>
        <time>2020-05-30T18:28:12Z</time>
      </trkpt>
      <trkpt lat="46.48505" lon="-0.08645">
        <ele>164.9</ele>
        <time>2020-05-30T18:28:13Z</time>
      </trkpt>
      <trkpt lat="46.48505" lon="-0.08645">
        <ele>164.9</ele>
        <time>2020-05-30T18:28:14Z</time>
      </trkpt>
      <trkpt lat="46.48505" lon="-0.08645">
        <ele>164.9</ele>
        <time>2020-05-30T18:28:15Z</time>
      </trkpt>
      <trkpt lat="46.48505" lon="-0.08646">
        <ele>164.9</ele>
        <time>2020-05-30T18:28:16Z</time>
      </trkpt>
      <trkpt lat="46.48505" lon="-0.08646">
        <ele>164.9</ele>
        <time>2020-05-30T18:28:17Z</time>
      </trkpt>
      <trkpt lat="46.48505" lon="-0.08646">
        <ele>164.9</ele>
        <time>2020-05-30T18:28:18Z</time>
      </trkpt>
      <trkpt lat="46.48504" lon="-0.08646">
        <ele>164.9</ele>
        <time>2020-05-30T18:28:19Z</time>
      </trkpt>
      <trkpt lat="46.48504" lon="-0.08646">
        <ele>164.9</ele>
        <time>2020-05-30T18:28:20Z</time>
      </trkpt>
      <trkpt lat="46.48504" lon="-0.08645">
        <ele>164.9</ele>
        <time>2020-05-30T18:28:21Z</time>
      </trkpt>
      <trkpt lat="46.48504" lon="-0.08645">
        <ele>164.9</ele>
        <time>2020-05-30T18:28:22Z</time>
      </trkpt>
      <trkpt lat="46.48504" lon="-0.08645">
        <ele>164.9</ele>
        <time>2020-05-30T18:28:23Z</time>
      </trkpt>
      <trkpt lat="46.48504" lon="-0.08644">
        <ele>164.9</ele>
        <time>2020-05-30T18:28:24Z</time>
      </trkpt>
      <trkpt lat="46.48505" lon="-0.08644">
        <ele>164.9</ele>
        <time>2020-05-30T18:28:25Z</time>
      </trkpt>
      <trkpt lat="46.48504" lon="-0.08645">
        <ele>164.9</ele>
        <time>2020-05-30T18:28:26Z</time>
      </trkpt>
      <trkpt lat="46.48504" lon="-0.08645">
        <ele>164.9</ele>
        <time>2020-05-30T18:28:27Z</time>
      </trkpt>
      <trkpt lat="46.48503" lon="-0.08646">
        <ele>164.9</ele>
        <time>2020-05-30T18:28:28Z</time>
      </trkpt>
      <trkpt lat="46.48504" lon="-0.08646">
        <ele>164.9</ele>
        <time>2020-05-30T18:28:29Z</time>
      </trkpt>
      <trkpt lat="46.48504" lon="-0.08646">
        <ele>164.9</ele>
        <time>2020-05-30T18:28:30Z</time>
      </trkpt>
      <trkpt lat="46.48504" lon="-0.08646">
        <ele>164.9</ele>
        <time>2020-05-30T18:28:31Z</time>
      </trkpt>
      <trkpt lat="46.48503" lon="-0.08646">
        <ele>164.9</ele>
        <time>2020-05-30T18:28:32Z</time>
      </trkpt>
      <trkpt lat="46.48503" lon="-0.08647">
        <ele>164.9</ele>
        <time>2020-05-30T18:28:33Z</time>
      </trkpt>
      <trkpt lat="46.48503" lon="-0.08647">
        <ele>164.9</ele>
        <time>2020-05-30T18:28:34Z</time>
      </trkpt>
      <trkpt lat="46.48503" lon="-0.08647">
        <ele>165.5</ele>
        <time>2020-05-30T18:28:35Z</time>
      </trkpt>
      <trkpt lat="46.48503" lon="-0.08647">
        <ele>165.5</ele>
        <time>2020-05-30T18:28:36Z</time>
      </trkpt>
      <trkpt lat="46.48503" lon="-0.08647">
        <ele>165.5</ele>
        <time>2020-05-30T18:28:37Z</time>
      </trkpt>
      <trkpt lat="46.48503" lon="-0.08647">
        <ele>165.5</ele>
        <time>2020-05-30T18:28:38Z</time>
      </trkpt>
      <trkpt lat="46.48503" lon="-0.08647">
        <ele>165.5</ele>
        <time>2020-05-30T18:28:39Z</time>
      </trkpt>
      <trkpt lat="46.48503" lon="-0.08647">
        <ele>165.5</ele>
        <time>2020-05-30T18:28:40Z</time>
      </trkpt>
      <trkpt lat="46.48503" lon="-0.08646">
        <ele>164.9</ele>
        <time>2020-05-30T18:28:41Z</time>
      </trkpt>
      <trkpt lat="46.48503" lon="-0.08646">
        <ele>164.9</ele>
        <time>2020-05-30T18:28:42Z</time>
      </trkpt>
      <trkpt lat="46.48502" lon="-0.08648">
        <ele>164.9</ele>
        <time>2020-05-30T18:28:43Z</time>
      </trkpt>
      <trkpt lat="46.48502" lon="-0.08647">
        <ele>164.9</ele>
        <time>2020-05-30T18:28:44Z</time>
      </trkpt>
      <trkpt lat="46.48502" lon="-0.08647">
        <ele>164.9</ele>
        <time>2020-05-30T18:28:45Z</time>
      </trkpt>
      <trkpt lat="46.48502" lon="-0.08647">
        <ele>164.9</ele>
        <time>2020-05-30T18:28:46Z</time>
      </trkpt>
      <trkpt lat="46.48503" lon="-0.08646">
        <ele>164.9</ele>
        <time>2020-05-30T18:28:47Z</time>
      </trkpt>
      <trkpt lat="46.48503" lon="-0.08645">
        <ele>164.9</ele>
        <time>2020-05-30T18:28:48Z</time>
      </trkpt>
      <trkpt lat="46.48504" lon="-0.08644">
        <ele>164.9</ele>
        <time>2020-05-30T18:28:49Z</time>
      </trkpt>
      <trkpt lat="46.48503" lon="-0.08644">
        <ele>164.9</ele>
        <time>2020-05-30T18:28:50Z</time>
      </trkpt>
      <trkpt lat="46.48503" lon="-0.08644">
        <ele>164.9</ele>
        <time>2020-05-30T18:28:51Z</time>
      </trkpt>
      <trkpt lat="46.48503" lon="-0.08644">
        <ele>164.9</ele>
        <time>2020-05-30T18:28:52Z</time>
      </trkpt>
      <trkpt lat="46.48504" lon="-0.08644">
        <ele>164.9</ele>
        <time>2020-05-30T18:28:53Z</time>
      </trkpt>
      <trkpt lat="46.48503" lon="-0.08644">
        <ele>164.9</ele>
        <time>2020-05-30T18:28:54Z</time>
      </trkpt>
      <trkpt lat="46.48503" lon="-0.08644">
        <ele>164.9</ele>
        <time>2020-05-30T18:28:55Z</time>
      </trkpt>
      <trkpt lat="46.48503" lon="-0.08645">
        <ele>164.9</ele>
        <time>2020-05-30T18:28:56Z</time>
      </trkpt>
      <trkpt lat="46.48503" lon="-0.08644">
        <ele>164.9</ele>
        <time>2020-05-30T18:28:57Z</time>
      </trkpt>
      <trkpt lat="46.48503" lon="-0.08645">
        <ele>164.9</ele>
        <time>2020-05-30T18:28:58Z</time>
      </trkpt>
      <trkpt lat="46.48503" lon="-0.08643">
        <ele>164.9</ele>
        <time>2020-05-30T18:28:59Z</time>
      </trkpt>
      <trkpt lat="46.48503" lon="-0.08643">
        <ele>164.9</ele>
        <time>2020-05-30T18:29:00Z</time>
      </trkpt>
      <trkpt lat="46.48503" lon="-0.08643">
        <ele>164.9</ele>
        <time>2020-05-30T18:29:01Z</time>
      </trkpt>
      <trkpt lat="46.48503" lon="-0.08643">
        <ele>164.9</ele>
        <time>2020-05-30T18:29:02Z</time>
      </trkpt>
      <trkpt lat="46.48503" lon="-0.08643">
        <ele>164.9</ele>
        <time>2020-05-30T18:29:03Z</time>
      </trkpt>
      <trkpt lat="46.48503" lon="-0.08644">
        <ele>164.9</ele>
        <time>2020-05-30T18:29:04Z</time>
      </trkpt>
      <trkpt lat="46.48503" lon="-0.08643">
        <ele>164.9</ele>
        <time>2020-05-30T18:29:05Z</time>
      </trkpt>
      <trkpt lat="46.48503" lon="-0.08644">
        <ele>164.9</ele>
        <time>2020-05-30T18:29:06Z</time>
      </trkpt>
      <trkpt lat="46.48503" lon="-0.08644">
        <ele>164.9</ele>
        <time>2020-05-30T18:29:07Z</time>
      </trkpt>
      <trkpt lat="46.48503" lon="-0.08644">
        <ele>164.9</ele>
        <time>2020-05-30T18:29:08Z</time>
      </trkpt>
      <trkpt lat="46.48503" lon="-0.08644">
        <ele>164.9</ele>
        <time>2020-05-30T18:29:09Z</time>
      </trkpt>
      <trkpt lat="46.48503" lon="-0.08644">
        <ele>164.9</ele>
        <time>2020-05-30T18:29:10Z</time>
      </trkpt>
      <trkpt lat="46.48502" lon="-0.08645">
        <ele>164.9</ele>
        <time>2020-05-30T18:29:11Z</time>
      </trkpt>
      <trkpt lat="46.48502" lon="-0.08645">
        <ele>164.9</ele>
        <time>2020-05-30T18:29:12Z</time>
      </trkpt>
      <trkpt lat="46.48502" lon="-0.08646">
        <ele>164.9</ele>
        <time>2020-05-30T18:29:13Z</time>
      </trkpt>
      <trkpt lat="46.48502" lon="-0.08647">
        <ele>164.9</ele>
        <time>2020-05-30T18:29:14Z</time>
      </trkpt>
      <trkpt lat="46.48502" lon="-0.08647">
        <ele>164.9</ele>
        <time>2020-05-30T18:29:15Z</time>
      </trkpt>
      <trkpt lat="46.48502" lon="-0.08647">
        <ele>164.9</ele>
        <time>2020-05-30T18:29:16Z</time>
      </trkpt>
      <trkpt lat="46.48502" lon="-0.08647">
        <ele>164.9</ele>
        <time>2020-05-30T18:29:17Z</time>
      </trkpt>
      <trkpt lat="46.48502" lon="-0.08646">
        <ele>164.9</ele>
        <time>2020-05-30T18:29:18Z</time>
      </trkpt>
      <trkpt lat="46.48502" lon="-0.08646">
        <ele>164.9</ele>
        <time>2020-05-30T18:29:19Z</time>
      </trkpt>
      <trkpt lat="46.48501" lon="-0.08646">
        <ele>164.9</ele>
        <time>2020-05-30T18:29:20Z</time>
      </trkpt>
      <trkpt lat="46.48501" lon="-0.08646">
        <ele>164.9</ele>
        <time>2020-05-30T18:29:21Z</time>
      </trkpt>
      <trkpt lat="46.48502" lon="-0.08646">
        <ele>164.9</ele>
        <time>2020-05-30T18:29:22Z</time>
      </trkpt>
      <trkpt lat="46.48502" lon="-0.08646">
        <ele>164.9</ele>
        <time>2020-05-30T18:29:23Z</time>
      </trkpt>
      <trkpt lat="46.48502" lon="-0.08646">
        <ele>164.9</ele>
        <time>2020-05-30T18:29:24Z</time>
      </trkpt>
      <trkpt lat="46.48502" lon="-0.08646">
        <ele>164.9</ele>
        <time>2020-05-30T18:29:25Z</time>
      </trkpt>
      <trkpt lat="46.48501" lon="-0.08647">
        <ele>164.9</ele>
        <time>2020-05-30T18:29:26Z</time>
      </trkpt>
      <trkpt lat="46.48501" lon="-0.08647">
        <ele>164.9</ele>
        <time>2020-05-30T18:29:27Z</time>
      </trkpt>
      <trkpt lat="46.48501" lon="-0.08647">
        <ele>164.9</ele>
        <time>2020-05-30T18:29:28Z</time>
      </trkpt>
      <trkpt lat="46.485" lon="-0.08648">
        <ele>164.9</ele>
        <time>2020-05-30T18:29:29Z</time>
      </trkpt>
      <trkpt lat="46.485" lon="-0.08648">
        <ele>164.9</ele>
        <time>2020-05-30T18:29:30Z</time>
      </trkpt>
      <trkpt lat="46.485" lon="-0.08648">
        <ele>164.9</ele>
        <time>2020-05-30T18:29:31Z</time>
      </trkpt>
      <trkpt lat="46.48499" lon="-0.08649">
        <ele>164.9</ele>
        <time>2020-05-30T18:29:32Z</time>
      </trkpt>
      <trkpt lat="46.48499" lon="-0.08649">
        <ele>164.9</ele>
        <time>2020-05-30T18:29:33Z</time>
      </trkpt>
      <trkpt lat="46.48499" lon="-0.08649">
        <ele>164.9</ele>
        <time>2020-05-30T18:29:34Z</time>
      </trkpt>
      <trkpt lat="46.48499" lon="-0.08649">
        <ele>164.9</ele>
        <time>2020-05-30T18:29:35Z</time>
      </trkpt>
      <trkpt lat="46.48499" lon="-0.08649">
        <ele>164.9</ele>
        <time>2020-05-30T18:29:36Z</time>
      </trkpt>
      <trkpt lat="46.485" lon="-0.08648">
        <ele>164.9</ele>
        <time>2020-05-30T18:29:37Z</time>
      </trkpt>
      <trkpt lat="46.48499" lon="-0.08648">
        <ele>164.9</ele>
        <time>2020-05-30T18:29:38Z</time>
      </trkpt>
      <trkpt lat="46.48499" lon="-0.08648">
        <ele>164.9</ele>
        <time>2020-05-30T18:29:39Z</time>
      </trkpt>
      <trkpt lat="46.485" lon="-0.08648">
        <ele>164.9</ele>
        <time>2020-05-30T18:29:40Z</time>
      </trkpt>
      <trkpt lat="46.485" lon="-0.08648">
        <ele>164.9</ele>
        <time>2020-05-30T18:29:41Z</time>
      </trkpt>
      <trkpt lat="46.48501" lon="-0.08649">
        <ele>164.9</ele>
        <time>2020-05-30T18:29:42Z</time>
      </trkpt>
      <trkpt lat="46.48502" lon="-0.08649">
        <ele>164.9</ele>
        <time>2020-05-30T18:29:43Z</time>
      </trkpt>
      <trkpt lat="46.48502" lon="-0.08648">
        <ele>164.9</ele>
        <time>2020-05-30T18:29:44Z</time>
      </trkpt>
      <trkpt lat="46.48502" lon="-0.08648">
        <ele>164.9</ele>
        <time>2020-05-30T18:29:45Z</time>
      </trkpt>
      <trkpt lat="46.48503" lon="-0.08648">
        <ele>164.9</ele>
        <time>2020-05-30T18:29:46Z</time>
      </trkpt>
      <trkpt lat="46.48503" lon="-0.08648">
        <ele>164.9</ele>
        <time>2020-05-30T18:29:47Z</time>
      </trkpt>
      <trkpt lat="46.48505" lon="-0.08647">
        <ele>164.9</ele>
        <time>2020-05-30T18:29:48Z</time>
      </trkpt>
      <trkpt lat="46.48505" lon="-0.08646">
        <ele>164.9</ele>
        <time>2020-05-30T18:29:49Z</time>
      </trkpt>
      <trkpt lat="46.48506" lon="-0.08645">
        <ele>164.9</ele>
        <time>2020-05-30T18:29:50Z</time>
      </trkpt>
      <trkpt lat="46.48506" lon="-0.08645">
        <ele>164.9</ele>
        <time>2020-05-30T18:29:51Z</time>
      </trkpt>
      <trkpt lat="46.48507" lon="-0.08645">
        <ele>164.9</ele>
        <time>2020-05-30T18:29:52Z</time>
      </trkpt>
      <trkpt lat="46.48508" lon="-0.08644">
        <ele>164.9</ele>
        <time>2020-05-30T18:29:53Z</time>
      </trkpt>
      <trkpt lat="46.48508" lon="-0.08643">
        <ele>164.9</ele>
        <time>2020-05-30T18:29:54Z</time>
      </trkpt>
      <trkpt lat="46.48508" lon="-0.08643">
        <ele>164.9</ele>
        <time>2020-05-30T18:29:55Z</time>
      </trkpt>
      <trkpt lat="46.48508" lon="-0.08643">
        <ele>164.9</ele>
        <time>2020-05-30T18:29:56Z</time>
      </trkpt>
      <trkpt lat="46.48508" lon="-0.08642">
        <ele>164.9</ele>
        <time>2020-05-30T18:29:57Z</time>
      </trkpt>
      <trkpt lat="46.48508" lon="-0.08642">
        <ele>164.9</ele>
        <time>2020-05-30T18:29:58Z</time>
      </trkpt>
      <trkpt lat="46.48508" lon="-0.08641">
        <ele>164.9</ele>
        <time>2020-05-30T18:29:59Z</time>
      </trkpt>
      <trkpt lat="46.48508" lon="-0.08641">
        <ele>164.9</ele>
        <time>2020-05-30T18:30:00Z</time>
      </trkpt>
      <trkpt lat="46.48509" lon="-0.08641">
        <ele>164.9</ele>
        <time>2020-05-30T18:30:01Z</time>
      </trkpt>
      <trkpt lat="46.48509" lon="-0.08641">
        <ele>164.9</ele>
        <time>2020-05-30T18:30:02Z</time>
      </trkpt>
      <trkpt lat="46.48509" lon="-0.08641">
        <ele>164.9</ele>
        <time>2020-05-30T18:30:03Z</time>
      </trkpt>
      <trkpt lat="46.48509" lon="-0.08641">
        <ele>164.9</ele>
        <time>2020-05-30T18:30:04Z</time>
      </trkpt>
      <trkpt lat="46.48507" lon="-0.08642">
        <ele>164.9</ele>
        <time>2020-05-30T18:30:05Z</time>
      </trkpt>
      <trkpt lat="46.48507" lon="-0.08643">
        <ele>164.9</ele>
        <time>2020-05-30T18:30:06Z</time>
      </trkpt>
      <trkpt lat="46.48507" lon="-0.08644">
        <ele>164.9</ele>
        <time>2020-05-30T18:30:07Z</time>
      </trkpt>
      <trkpt lat="46.48506" lon="-0.08645">
        <ele>164.9</ele>
        <time>2020-05-30T18:30:08Z</time>
      </trkpt>
      <trkpt lat="46.48505" lon="-0.08645">
        <ele>164.9</ele>
        <time>2020-05-30T18:30:09Z</time>
      </trkpt>
      <trkpt lat="46.48504" lon="-0.08649">
        <ele>164.9</ele>
        <time>2020-05-30T18:30:10Z</time>
      </trkpt>
      <trkpt lat="46.48503" lon="-0.08651">
        <ele>164.9</ele>
        <time>2020-05-30T18:30:11Z</time>
      </trkpt>
      <trkpt lat="46.48502" lon="-0.08655">
        <ele>164.9</ele>
        <time>2020-05-30T18:30:12Z</time>
      </trkpt>
      <trkpt lat="46.485" lon="-0.0866">
        <ele>164.9</ele>
        <time>2020-05-30T18:30:13Z</time>
      </trkpt>
      <trkpt lat="46.48499" lon="-0.08665">
        <ele>164.9</ele>
        <time>2020-05-30T18:30:14Z</time>
      </trkpt>
      <trkpt lat="46.48497" lon="-0.0867">
        <ele>164.9</ele>
        <time>2020-05-30T18:30:15Z</time>
      </trkpt>
      <trkpt lat="46.48496" lon="-0.08672">
        <ele>164.9</ele>
        <time>2020-05-30T18:30:16Z</time>
      </trkpt>
      <trkpt lat="46.48494" lon="-0.08677">
        <ele>164.9</ele>
        <time>2020-05-30T18:30:17Z</time>
      </trkpt>
      <trkpt lat="46.48492" lon="-0.08684">
        <ele>164.9</ele>
        <time>2020-05-30T18:30:18Z</time>
      </trkpt>
      <trkpt lat="46.48489" lon="-0.08688">
        <ele>164.9</ele>
        <time>2020-05-30T18:30:19Z</time>
      </trkpt>
      <trkpt lat="46.48487" lon="-0.08694">
        <ele>164.9</ele>
        <time>2020-05-30T18:30:20Z</time>
      </trkpt>
      <trkpt lat="46.48485" lon="-0.08699">
        <ele>164.9</ele>
        <time>2020-05-30T18:30:21Z</time>
      </trkpt>
      <trkpt lat="46.48483" lon="-0.08705">
        <ele>164.9</ele>
        <time>2020-05-30T18:30:22Z</time>
      </trkpt>
      <trkpt lat="46.48481" lon="-0.08711">
        <ele>164.9</ele>
        <time>2020-05-30T18:30:23Z</time>
      </trkpt>
      <trkpt lat="46.48479" lon="-0.08717">
        <ele>164.9</ele>
        <time>2020-05-30T18:30:24Z</time>
      </trkpt>
      <trkpt lat="46.48477" lon="-0.08723">
        <ele>164.9</ele>
        <time>2020-05-30T18:30:25Z</time>
      </trkpt>
      <trkpt lat="46.48476" lon="-0.08729">
        <ele>164.9</ele>
        <time>2020-05-30T18:30:26Z</time>
      </trkpt>
      <trkpt lat="46.48475" lon="-0.08736">
        <ele>164.9</ele>
        <time>2020-05-30T18:30:27Z</time>
      </trkpt>
      <trkpt lat="46.48473" lon="-0.08742">
        <ele>164.9</ele>
        <time>2020-05-30T18:30:28Z</time>
      </trkpt>
      <trkpt lat="46.48472" lon="-0.08748">
        <ele>164.9</ele>
        <time>2020-05-30T18:30:29Z</time>
      </trkpt>
      <trkpt lat="46.4847" lon="-0.08753">
        <ele>164.9</ele>
        <time>2020-05-30T18:30:30Z</time>
      </trkpt>
      <trkpt lat="46.48468" lon="-0.08759">
        <ele>164.9</ele>
        <time>2020-05-30T18:30:31Z</time>
      </trkpt>
      <trkpt lat="46.48466" lon="-0.08766">
        <ele>164.9</ele>
        <time>2020-05-30T18:30:32Z</time>
      </trkpt>
      <trkpt lat="46.48464" lon="-0.08773">
        <ele>164.9</ele>
        <time>2020-05-30T18:30:33Z</time>
      </trkpt>
      <trkpt lat="46.48462" lon="-0.08779">
        <ele>164.9</ele>
        <time>2020-05-30T18:30:34Z</time>
      </trkpt>
      <trkpt lat="46.48461" lon="-0.08786">
        <ele>164.9</ele>
        <time>2020-05-30T18:30:35Z</time>
      </trkpt>
      <trkpt lat="46.48459" lon="-0.08792">
        <ele>164.9</ele>
        <time>2020-05-30T18:30:36Z</time>
      </trkpt>
      <trkpt lat="46.48457" lon="-0.08798">
        <ele>164.9</ele>
        <time>2020-05-30T18:30:37Z</time>
      </trkpt>
      <trkpt lat="46.48455" lon="-0.08805">
        <ele>164.9</ele>
        <time>2020-05-30T18:30:38Z</time>
      </trkpt>
      <trkpt lat="46.48453" lon="-0.08809">
        <ele>164.9</ele>
        <time>2020-05-30T18:30:39Z</time>
      </trkpt>
      <trkpt lat="46.4845" lon="-0.08816">
        <ele>164.9</ele>
        <time>2020-05-30T18:30:40Z</time>
      </trkpt>
      <trkpt lat="46.48448" lon="-0.08822">
        <ele>164.9</ele>
        <time>2020-05-30T18:30:41Z</time>
      </trkpt>
      <trkpt lat="46.48446" lon="-0.0883">
        <ele>164.9</ele>
        <time>2020-05-30T18:30:42Z</time>
      </trkpt>
      <trkpt lat="46.48444" lon="-0.08838">
        <ele>164.9</ele>
        <time>2020-05-30T18:30:43Z</time>
      </trkpt>
      <trkpt lat="46.48442" lon="-0.08846">
        <ele>164.9</ele>
        <time>2020-05-30T18:30:44Z</time>
      </trkpt>
      <trkpt lat="46.4844" lon="-0.08853">
        <ele>164.9</ele>
        <time>2020-05-30T18:30:45Z</time>
      </trkpt>
      <trkpt lat="46.48437" lon="-0.0886">
        <ele>164.9</ele>
        <time>2020-05-30T18:30:46Z</time>
      </trkpt>
      <trkpt lat="46.48435" lon="-0.08868">
        <ele>164.9</ele>
        <time>2020-05-30T18:30:47Z</time>
      </trkpt>
      <trkpt lat="46.48432" lon="-0.08875">
        <ele>165</ele>
        <time>2020-05-30T18:30:48Z</time>
      </trkpt>
      <trkpt lat="46.4843" lon="-0.08882">
        <ele>165</ele>
        <time>2020-05-30T18:30:49Z</time>
      </trkpt>
      <trkpt lat="46.48427" lon="-0.08889">
        <ele>165</ele>
        <time>2020-05-30T18:30:50Z</time>
      </trkpt>
      <trkpt lat="46.48425" lon="-0.08896">
        <ele>165</ele>
        <time>2020-05-30T18:30:51Z</time>
      </trkpt>
      <trkpt lat="46.48422" lon="-0.08903">
        <ele>165</ele>
        <time>2020-05-30T18:30:52Z</time>
      </trkpt>
      <trkpt lat="46.4842" lon="-0.08911">
        <ele>165.1</ele>
        <time>2020-05-30T18:30:53Z</time>
      </trkpt>
      <trkpt lat="46.48419" lon="-0.08919">
        <ele>165.1</ele>
        <time>2020-05-30T18:30:54Z</time>
      </trkpt>
      <trkpt lat="46.48417" lon="-0.08925">
        <ele>165.1</ele>
        <time>2020-05-30T18:30:55Z</time>
      </trkpt>
      <trkpt lat="46.48414" lon="-0.08933">
        <ele>165.2</ele>
        <time>2020-05-30T18:30:56Z</time>
      </trkpt>
      <trkpt lat="46.48411" lon="-0.08941">
        <ele>165.2</ele>
        <time>2020-05-30T18:30:57Z</time>
      </trkpt>
      <trkpt lat="46.48408" lon="-0.08948">
        <ele>165.3</ele>
        <time>2020-05-30T18:30:58Z</time>
      </trkpt>
      <trkpt lat="46.48406" lon="-0.08955">
        <ele>165.3</ele>
        <time>2020-05-30T18:30:59Z</time>
      </trkpt>
      <trkpt lat="46.48403" lon="-0.08962">
        <ele>165.3</ele>
        <time>2020-05-30T18:31:00Z</time>
      </trkpt>
      <trkpt lat="46.48401" lon="-0.08971">
        <ele>165.3</ele>
        <time>2020-05-30T18:31:01Z</time>
      </trkpt>
      <trkpt lat="46.48399" lon="-0.08978">
        <ele>165.4</ele>
        <time>2020-05-30T18:31:02Z</time>
      </trkpt>
      <trkpt lat="46.48397" lon="-0.08986">
        <ele>165.4</ele>
        <time>2020-05-30T18:31:03Z</time>
      </trkpt>
      <trkpt lat="46.48395" lon="-0.08994">
        <ele>165.4</ele>
        <time>2020-05-30T18:31:04Z</time>
      </trkpt>
      <trkpt lat="46.48393" lon="-0.09001">
        <ele>165.4</ele>
        <time>2020-05-30T18:31:05Z</time>
      </trkpt>
      <trkpt lat="46.48391" lon="-0.09009">
        <ele>165.4</ele>
        <time>2020-05-30T18:31:06Z</time>
      </trkpt>
      <trkpt lat="46.48389" lon="-0.09016">
        <ele>165.4</ele>
        <time>2020-05-30T18:31:07Z</time>
      </trkpt>
      <trkpt lat="46.48386" lon="-0.09024">
        <ele>165.4</ele>
        <time>2020-05-30T18:31:08Z</time>
      </trkpt>
      <trkpt lat="46.48383" lon="-0.09031">
        <ele>165.4</ele>
        <time>2020-05-30T18:31:09Z</time>
      </trkpt>
      <trkpt lat="46.48381" lon="-0.09038">
        <ele>165.4</ele>
        <time>2020-05-30T18:31:10Z</time>
      </trkpt>
      <trkpt lat="46.48379" lon="-0.09045">
        <ele>165.5</ele>
        <time>2020-05-30T18:31:11Z</time>
      </trkpt>
      <trkpt lat="46.48377" lon="-0.09052">
        <ele>165.5</ele>
        <time>2020-05-30T18:31:12Z</time>
      </trkpt>
      <trkpt lat="46.48374" lon="-0.0906">
        <ele>165.5</ele>
        <time>2020-05-30T18:31:13Z</time>
      </trkpt>
      <trkpt lat="46.48373" lon="-0.09066">
        <ele>165.5</ele>
        <time>2020-05-30T18:31:14Z</time>
      </trkpt>
      <trkpt lat="46.48371" lon="-0.09073">
        <ele>165.5</ele>
        <time>2020-05-30T18:31:15Z</time>
      </trkpt>
      <trkpt lat="46.48369" lon="-0.09081">
        <ele>165.5</ele>
        <time>2020-05-30T18:31:16Z</time>
      </trkpt>
      <trkpt lat="46.48367" lon="-0.09088">
        <ele>165.5</ele>
        <time>2020-05-30T18:31:17Z</time>
      </trkpt>
      <trkpt lat="46.48365" lon="-0.09095">
        <ele>165.5</ele>
        <time>2020-05-30T18:31:18Z</time>
      </trkpt>
      <trkpt lat="46.48363" lon="-0.09103">
        <ele>165.5</ele>
        <time>2020-05-30T18:31:19Z</time>
      </trkpt>
      <trkpt lat="46.48361" lon="-0.0911">
        <ele>165.5</ele>
        <time>2020-05-30T18:31:20Z</time>
      </trkpt>
      <trkpt lat="46.48358" lon="-0.09118">
        <ele>165.5</ele>
        <time>2020-05-30T18:31:21Z</time>
      </trkpt>
      <trkpt lat="46.48356" lon="-0.09125">
        <ele>165.5</ele>
        <time>2020-05-30T18:31:22Z</time>
      </trkpt>
      <trkpt lat="46.48353" lon="-0.09132">
        <ele>165.5</ele>
        <time>2020-05-30T18:31:23Z</time>
      </trkpt>
      <trkpt lat="46.48352" lon="-0.0914">
        <ele>165.5</ele>
        <time>2020-05-30T18:31:24Z</time>
      </trkpt>
      <trkpt lat="46.4835" lon="-0.09148">
        <ele>165.5</ele>
        <time>2020-05-30T18:31:25Z</time>
      </trkpt>
      <trkpt lat="46.48348" lon="-0.09157">
        <ele>165.5</ele>
        <time>2020-05-30T18:31:26Z</time>
      </trkpt>
      <trkpt lat="46.48345" lon="-0.09163">
        <ele>165.6</ele>
        <time>2020-05-30T18:31:27Z</time>
      </trkpt>
      <trkpt lat="46.48343" lon="-0.09171">
        <ele>165.6</ele>
        <time>2020-05-30T18:31:28Z</time>
      </trkpt>
      <trkpt lat="46.48341" lon="-0.09177">
        <ele>165.7</ele>
        <time>2020-05-30T18:31:29Z</time>
      </trkpt>
      <trkpt lat="46.48339" lon="-0.09185">
        <ele>165.8</ele>
        <time>2020-05-30T18:31:30Z</time>
      </trkpt>
      <trkpt lat="46.48337" lon="-0.09192">
        <ele>165.9</ele>
        <time>2020-05-30T18:31:31Z</time>
      </trkpt>
      <trkpt lat="46.48335" lon="-0.09198">
        <ele>166</ele>
        <time>2020-05-30T18:31:32Z</time>
      </trkpt>
      <trkpt lat="46.48332" lon="-0.09205">
        <ele>166.1</ele>
        <time>2020-05-30T18:31:33Z</time>
      </trkpt>
      <trkpt lat="46.4833" lon="-0.09212">
        <ele>166.2</ele>
        <time>2020-05-30T18:31:34Z</time>
      </trkpt>
      <trkpt lat="46.48327" lon="-0.0922">
        <ele>166.3</ele>
        <time>2020-05-30T18:31:35Z</time>
      </trkpt>
      <trkpt lat="46.48325" lon="-0.09228">
        <ele>166.3</ele>
        <time>2020-05-30T18:31:36Z</time>
      </trkpt>
      <trkpt lat="46.48323" lon="-0.09236">
        <ele>166.4</ele>
        <time>2020-05-30T18:31:37Z</time>
      </trkpt>
      <trkpt lat="46.4832" lon="-0.09243">
        <ele>166.4</ele>
        <time>2020-05-30T18:31:38Z</time>
      </trkpt>
      <trkpt lat="46.48318" lon="-0.0925">
        <ele>166.4</ele>
        <time>2020-05-30T18:31:39Z</time>
      </trkpt>
      <trkpt lat="46.48315" lon="-0.09257">
        <ele>166.4</ele>
        <time>2020-05-30T18:31:40Z</time>
      </trkpt>
      <trkpt lat="46.48313" lon="-0.09263">
        <ele>166.4</ele>
        <time>2020-05-30T18:31:41Z</time>
      </trkpt>
      <trkpt lat="46.48311" lon="-0.0927">
        <ele>166.5</ele>
        <time>2020-05-30T18:31:42Z</time>
      </trkpt>
      <trkpt lat="46.48308" lon="-0.09278">
        <ele>166.5</ele>
        <time>2020-05-30T18:31:43Z</time>
      </trkpt>
      <trkpt lat="46.48306" lon="-0.09286">
        <ele>166.5</ele>
        <time>2020-05-30T18:31:44Z</time>
      </trkpt>
      <trkpt lat="46.48304" lon="-0.09293">
        <ele>166.6</ele>
        <time>2020-05-30T18:31:45Z</time>
      </trkpt>
      <trkpt lat="46.48303" lon="-0.09301">
        <ele>166.6</ele>
        <time>2020-05-30T18:31:46Z</time>
      </trkpt>
      <trkpt lat="46.483" lon="-0.09308">
        <ele>166.6</ele>
        <time>2020-05-30T18:31:47Z</time>
      </trkpt>
      <trkpt lat="46.48297" lon="-0.09317">
        <ele>166.7</ele>
        <time>2020-05-30T18:31:48Z</time>
      </trkpt>
      <trkpt lat="46.48295" lon="-0.09324">
        <ele>166.7</ele>
        <time>2020-05-30T18:31:49Z</time>
      </trkpt>
      <trkpt lat="46.48293" lon="-0.09331">
        <ele>166.8</ele>
        <time>2020-05-30T18:31:50Z</time>
      </trkpt>
      <trkpt lat="46.48291" lon="-0.09339">
        <ele>166.9</ele>
        <time>2020-05-30T18:31:51Z</time>
      </trkpt>
      <trkpt lat="46.48289" lon="-0.09347">
        <ele>167</ele>
        <time>2020-05-30T18:31:52Z</time>
      </trkpt>
      <trkpt lat="46.48287" lon="-0.09356">
        <ele>167.1</ele>
        <time>2020-05-30T18:31:53Z</time>
      </trkpt>
      <trkpt lat="46.48285" lon="-0.09364">
        <ele>167.2</ele>
        <time>2020-05-30T18:31:54Z</time>
      </trkpt>
      <trkpt lat="46.48283" lon="-0.09372">
        <ele>167.3</ele>
        <time>2020-05-30T18:31:55Z</time>
      </trkpt>
      <trkpt lat="46.48281" lon="-0.0938">
        <ele>167.3</ele>
        <time>2020-05-30T18:31:56Z</time>
      </trkpt>
      <trkpt lat="46.48279" lon="-0.09386">
        <ele>167.4</ele>
        <time>2020-05-30T18:31:57Z</time>
      </trkpt>
      <trkpt lat="46.48278" lon="-0.09393">
        <ele>167.4</ele>
        <time>2020-05-30T18:31:58Z</time>
      </trkpt>
      <trkpt lat="46.48277" lon="-0.094">
        <ele>167.5</ele>
        <time>2020-05-30T18:31:59Z</time>
      </trkpt>
      <trkpt lat="46.48276" lon="-0.09407">
        <ele>167.5</ele>
        <time>2020-05-30T18:32:00Z</time>
      </trkpt>
      <trkpt lat="46.48274" lon="-0.09415">
        <ele>167.6</ele>
        <time>2020-05-30T18:32:01Z</time>
      </trkpt>
      <trkpt lat="46.48272" lon="-0.09424">
        <ele>167.6</ele>
        <time>2020-05-30T18:32:02Z</time>
      </trkpt>
      <trkpt lat="46.48271" lon="-0.09432">
        <ele>167.7</ele>
        <time>2020-05-30T18:32:03Z</time>
      </trkpt>
      <trkpt lat="46.48269" lon="-0.0944">
        <ele>167.7</ele>
        <time>2020-05-30T18:32:04Z</time>
      </trkpt>
      <trkpt lat="46.48268" lon="-0.09447">
        <ele>167.7</ele>
        <time>2020-05-30T18:32:05Z</time>
      </trkpt>
      <trkpt lat="46.48267" lon="-0.09455">
        <ele>167.7</ele>
        <time>2020-05-30T18:32:06Z</time>
      </trkpt>
      <trkpt lat="46.48266" lon="-0.09464">
        <ele>167.7</ele>
        <time>2020-05-30T18:32:07Z</time>
      </trkpt>
      <trkpt lat="46.48265" lon="-0.09472">
        <ele>167.8</ele>
        <time>2020-05-30T18:32:08Z</time>
      </trkpt>
      <trkpt lat="46.48264" lon="-0.0948">
        <ele>167.8</ele>
        <time>2020-05-30T18:32:09Z</time>
      </trkpt>
      <trkpt lat="46.48264" lon="-0.09489">
        <ele>167.9</ele>
        <time>2020-05-30T18:32:10Z</time>
      </trkpt>
      <trkpt lat="46.48264" lon="-0.09497">
        <ele>168.1</ele>
        <time>2020-05-30T18:32:11Z</time>
      </trkpt>
      <trkpt lat="46.48263" lon="-0.09506">
        <ele>168.3</ele>
        <time>2020-05-30T18:32:12Z</time>
      </trkpt>
      <trkpt lat="46.48263" lon="-0.09514">
        <ele>168.4</ele>
        <time>2020-05-30T18:32:13Z</time>
      </trkpt>
      <trkpt lat="46.48264" lon="-0.09521">
        <ele>168.5</ele>
        <time>2020-05-30T18:32:14Z</time>
      </trkpt>
      <trkpt lat="46.48264" lon="-0.09529">
        <ele>168.6</ele>
        <time>2020-05-30T18:32:15Z</time>
      </trkpt>
      <trkpt lat="46.48263" lon="-0.09537">
        <ele>168.7</ele>
        <time>2020-05-30T18:32:16Z</time>
      </trkpt>
      <trkpt lat="46.48263" lon="-0.09546">
        <ele>168.7</ele>
        <time>2020-05-30T18:32:17Z</time>
      </trkpt>
      <trkpt lat="46.48263" lon="-0.09554">
        <ele>168.8</ele>
        <time>2020-05-30T18:32:18Z</time>
      </trkpt>
      <trkpt lat="46.48263" lon="-0.09562">
        <ele>168.8</ele>
        <time>2020-05-30T18:32:19Z</time>
      </trkpt>
      <trkpt lat="46.48262" lon="-0.09571">
        <ele>168.8</ele>
        <time>2020-05-30T18:32:20Z</time>
      </trkpt>
      <trkpt lat="46.48261" lon="-0.09579">
        <ele>168.9</ele>
        <time>2020-05-30T18:32:21Z</time>
      </trkpt>
      <trkpt lat="46.48261" lon="-0.09586">
        <ele>168.9</ele>
        <time>2020-05-30T18:32:22Z</time>
      </trkpt>
      <trkpt lat="46.4826" lon="-0.09594">
        <ele>169</ele>
        <time>2020-05-30T18:32:23Z</time>
      </trkpt>
      <trkpt lat="46.4826" lon="-0.09603">
        <ele>169.1</ele>
        <time>2020-05-30T18:32:24Z</time>
      </trkpt>
      <trkpt lat="46.4826" lon="-0.0961">
        <ele>169.2</ele>
        <time>2020-05-30T18:32:25Z</time>
      </trkpt>
      <trkpt lat="46.48259" lon="-0.09619">
        <ele>169.3</ele>
        <time>2020-05-30T18:32:26Z</time>
      </trkpt>
      <trkpt lat="46.48258" lon="-0.09627">
        <ele>169.4</ele>
        <time>2020-05-30T18:32:27Z</time>
      </trkpt>
      <trkpt lat="46.48258" lon="-0.09636">
        <ele>169.5</ele>
        <time>2020-05-30T18:32:28Z</time>
      </trkpt>
      <trkpt lat="46.48256" lon="-0.09643">
        <ele>169.6</ele>
        <time>2020-05-30T18:32:29Z</time>
      </trkpt>
      <trkpt lat="46.48256" lon="-0.09653">
        <ele>169.7</ele>
        <time>2020-05-30T18:32:30Z</time>
      </trkpt>
      <trkpt lat="46.48255" lon="-0.09661">
        <ele>169.8</ele>
        <time>2020-05-30T18:32:31Z</time>
      </trkpt>
      <trkpt lat="46.48255" lon="-0.09669">
        <ele>169.8</ele>
        <time>2020-05-30T18:32:32Z</time>
      </trkpt>
      <trkpt lat="46.48254" lon="-0.09676">
        <ele>169.9</ele>
        <time>2020-05-30T18:32:33Z</time>
      </trkpt>
      <trkpt lat="46.48254" lon="-0.09683">
        <ele>169.9</ele>
        <time>2020-05-30T18:32:34Z</time>
      </trkpt>
      <trkpt lat="46.48255" lon="-0.0969">
        <ele>170</ele>
        <time>2020-05-30T18:32:35Z</time>
      </trkpt>
      <trkpt lat="46.48255" lon="-0.09699">
        <ele>170</ele>
        <time>2020-05-30T18:32:36Z</time>
      </trkpt>
      <trkpt lat="46.48253" lon="-0.09707">
        <ele>170.1</ele>
        <time>2020-05-30T18:32:37Z</time>
      </trkpt>
      <trkpt lat="46.48253" lon="-0.09714">
        <ele>170.2</ele>
        <time>2020-05-30T18:32:38Z</time>
      </trkpt>
      <trkpt lat="46.48253" lon="-0.09724">
        <ele>170.3</ele>
        <time>2020-05-30T18:32:39Z</time>
      </trkpt>
      <trkpt lat="46.48253" lon="-0.09732">
        <ele>170.4</ele>
        <time>2020-05-30T18:32:40Z</time>
      </trkpt>
      <trkpt lat="46.48253" lon="-0.09738">
        <ele>170.5</ele>
        <time>2020-05-30T18:32:41Z</time>
      </trkpt>
      <trkpt lat="46.48252" lon="-0.09747">
        <ele>170.7</ele>
        <time>2020-05-30T18:32:42Z</time>
      </trkpt>
      <trkpt lat="46.48251" lon="-0.09755">
        <ele>170.7</ele>
        <time>2020-05-30T18:32:43Z</time>
      </trkpt>
      <trkpt lat="46.48251" lon="-0.09762">
        <ele>170.8</ele>
        <time>2020-05-30T18:32:44Z</time>
      </trkpt>
      <trkpt lat="46.48251" lon="-0.09771">
        <ele>170.8</ele>
        <time>2020-05-30T18:32:45Z</time>
      </trkpt>
      <trkpt lat="46.48251" lon="-0.09779">
        <ele>170.9</ele>
        <time>2020-05-30T18:32:46Z</time>
      </trkpt>
      <trkpt lat="46.48251" lon="-0.09787">
        <ele>170.9</ele>
        <time>2020-05-30T18:32:47Z</time>
      </trkpt>
      <trkpt lat="46.4825" lon="-0.09796">
        <ele>170.9</ele>
        <time>2020-05-30T18:32:48Z</time>
      </trkpt>
      <trkpt lat="46.4825" lon="-0.09804">
        <ele>171</ele>
        <time>2020-05-30T18:32:49Z</time>
      </trkpt>
      <trkpt lat="46.4825" lon="-0.09812">
        <ele>171</ele>
        <time>2020-05-30T18:32:50Z</time>
      </trkpt>
      <trkpt lat="46.4825" lon="-0.0982">
        <ele>171</ele>
        <time>2020-05-30T18:32:51Z</time>
      </trkpt>
      <trkpt lat="46.48249" lon="-0.09828">
        <ele>171.1</ele>
        <time>2020-05-30T18:32:52Z</time>
      </trkpt>
      <trkpt lat="46.48249" lon="-0.09835">
        <ele>171.1</ele>
        <time>2020-05-30T18:32:53Z</time>
      </trkpt>
      <trkpt lat="46.48249" lon="-0.09844">
        <ele>171.1</ele>
        <time>2020-05-30T18:32:54Z</time>
      </trkpt>
      <trkpt lat="46.48249" lon="-0.09851">
        <ele>171.2</ele>
        <time>2020-05-30T18:32:55Z</time>
      </trkpt>
      <trkpt lat="46.48249" lon="-0.09859">
        <ele>171.2</ele>
        <time>2020-05-30T18:32:56Z</time>
      </trkpt>
      <trkpt lat="46.48249" lon="-0.09867">
        <ele>171.3</ele>
        <time>2020-05-30T18:32:57Z</time>
      </trkpt>
      <trkpt lat="46.48248" lon="-0.09875">
        <ele>171.4</ele>
        <time>2020-05-30T18:32:58Z</time>
      </trkpt>
      <trkpt lat="46.48248" lon="-0.09881">
        <ele>171.5</ele>
        <time>2020-05-30T18:32:59Z</time>
      </trkpt>
      <trkpt lat="46.48247" lon="-0.0989">
        <ele>171.6</ele>
        <time>2020-05-30T18:33:00Z</time>
      </trkpt>
      <trkpt lat="46.48245" lon="-0.09898">
        <ele>171.7</ele>
        <time>2020-05-30T18:33:01Z</time>
      </trkpt>
      <trkpt lat="46.48244" lon="-0.09906">
        <ele>171.9</ele>
        <time>2020-05-30T18:33:02Z</time>
      </trkpt>
      <trkpt lat="46.48243" lon="-0.09914">
        <ele>172</ele>
        <time>2020-05-30T18:33:03Z</time>
      </trkpt>
      <trkpt lat="46.48241" lon="-0.09921">
        <ele>172.1</ele>
        <time>2020-05-30T18:33:04Z</time>
      </trkpt>
      <trkpt lat="46.48241" lon="-0.09926">
        <ele>172.1</ele>
        <time>2020-05-30T18:33:05Z</time>
      </trkpt>
      <trkpt lat="46.4824" lon="-0.09934">
        <ele>172.2</ele>
        <time>2020-05-30T18:33:06Z</time>
      </trkpt>
      <trkpt lat="46.48238" lon="-0.09942">
        <ele>172.3</ele>
        <time>2020-05-30T18:33:07Z</time>
      </trkpt>
      <trkpt lat="46.48236" lon="-0.0995">
        <ele>172.4</ele>
        <time>2020-05-30T18:33:08Z</time>
      </trkpt>
      <trkpt lat="46.48234" lon="-0.09958">
        <ele>172.5</ele>
        <time>2020-05-30T18:33:09Z</time>
      </trkpt>
      <trkpt lat="46.48233" lon="-0.09966">
        <ele>172.7</ele>
        <time>2020-05-30T18:33:10Z</time>
      </trkpt>
      <trkpt lat="46.48231" lon="-0.09973">
        <ele>172.8</ele>
        <time>2020-05-30T18:33:11Z</time>
      </trkpt>
      <trkpt lat="46.48229" lon="-0.09979">
        <ele>172.9</ele>
        <time>2020-05-30T18:33:12Z</time>
      </trkpt>
      <trkpt lat="46.48226" lon="-0.09986">
        <ele>173</ele>
        <time>2020-05-30T18:33:13Z</time>
      </trkpt>
      <trkpt lat="46.48224" lon="-0.09992">
        <ele>173.1</ele>
        <time>2020-05-30T18:33:14Z</time>
      </trkpt>
      <trkpt lat="46.48221" lon="-0.09998">
        <ele>173.2</ele>
        <time>2020-05-30T18:33:15Z</time>
      </trkpt>
      <trkpt lat="46.48219" lon="-0.10004">
        <ele>173.2</ele>
        <time>2020-05-30T18:33:16Z</time>
      </trkpt>
      <trkpt lat="46.48217" lon="-0.1001">
        <ele>173.4</ele>
        <time>2020-05-30T18:33:17Z</time>
      </trkpt>
      <trkpt lat="46.48215" lon="-0.10016">
        <ele>173.5</ele>
        <time>2020-05-30T18:33:18Z</time>
      </trkpt>
      <trkpt lat="46.48212" lon="-0.10022">
        <ele>173.6</ele>
        <time>2020-05-30T18:33:19Z</time>
      </trkpt>
      <trkpt lat="46.48211" lon="-0.10028">
        <ele>173.7</ele>
        <time>2020-05-30T18:33:20Z</time>
      </trkpt>
      <trkpt lat="46.48209" lon="-0.10034">
        <ele>173.8</ele>
        <time>2020-05-30T18:33:21Z</time>
      </trkpt>
      <trkpt lat="46.48206" lon="-0.1004">
        <ele>173.9</ele>
        <time>2020-05-30T18:33:22Z</time>
      </trkpt>
      <trkpt lat="46.48204" lon="-0.10046">
        <ele>174</ele>
        <time>2020-05-30T18:33:23Z</time>
      </trkpt>
      <trkpt lat="46.48201" lon="-0.10052">
        <ele>174.1</ele>
        <time>2020-05-30T18:33:24Z</time>
      </trkpt>
      <trkpt lat="46.48198" lon="-0.10058">
        <ele>174.2</ele>
        <time>2020-05-30T18:33:25Z</time>
      </trkpt>
      <trkpt lat="46.48195" lon="-0.10066">
        <ele>174.4</ele>
        <time>2020-05-30T18:33:26Z</time>
      </trkpt>
      <trkpt lat="46.48192" lon="-0.10071">
        <ele>174.5</ele>
        <time>2020-05-30T18:33:27Z</time>
      </trkpt>
      <trkpt lat="46.48189" lon="-0.10078">
        <ele>174.6</ele>
        <time>2020-05-30T18:33:28Z</time>
      </trkpt>
      <trkpt lat="46.48186" lon="-0.10084">
        <ele>174.7</ele>
        <time>2020-05-30T18:33:29Z</time>
      </trkpt>
      <trkpt lat="46.48183" lon="-0.10089">
        <ele>174.8</ele>
        <time>2020-05-30T18:33:30Z</time>
      </trkpt>
      <trkpt lat="46.48181" lon="-0.10096">
        <ele>175</ele>
        <time>2020-05-30T18:33:31Z</time>
      </trkpt>
      <trkpt lat="46.48179" lon="-0.10103">
        <ele>175.1</ele>
        <time>2020-05-30T18:33:32Z</time>
      </trkpt>
      <trkpt lat="46.48176" lon="-0.1011">
        <ele>175.3</ele>
        <time>2020-05-30T18:33:33Z</time>
      </trkpt>
      <trkpt lat="46.48174" lon="-0.10117">
        <ele>175.4</ele>
        <time>2020-05-30T18:33:34Z</time>
      </trkpt>
      <trkpt lat="46.48172" lon="-0.10124">
        <ele>175.5</ele>
        <time>2020-05-30T18:33:35Z</time>
      </trkpt>
      <trkpt lat="46.48169" lon="-0.1013">
        <ele>175.6</ele>
        <time>2020-05-30T18:33:36Z</time>
      </trkpt>
      <trkpt lat="46.48166" lon="-0.10136">
        <ele>175.7</ele>
        <time>2020-05-30T18:33:37Z</time>
      </trkpt>
      <trkpt lat="46.48163" lon="-0.10142">
        <ele>175.8</ele>
        <time>2020-05-30T18:33:38Z</time>
      </trkpt>
      <trkpt lat="46.4816" lon="-0.10147">
        <ele>175.9</ele>
        <time>2020-05-30T18:33:39Z</time>
      </trkpt>
      <trkpt lat="46.48157" lon="-0.10153">
        <ele>176</ele>
        <time>2020-05-30T18:33:40Z</time>
      </trkpt>
      <trkpt lat="46.48155" lon="-0.10159">
        <ele>176.1</ele>
        <time>2020-05-30T18:33:41Z</time>
      </trkpt>
      <trkpt lat="46.48152" lon="-0.10165">
        <ele>176.2</ele>
        <time>2020-05-30T18:33:42Z</time>
      </trkpt>
      <trkpt lat="46.4815" lon="-0.10171">
        <ele>176.3</ele>
        <time>2020-05-30T18:33:43Z</time>
      </trkpt>
      <trkpt lat="46.48148" lon="-0.10176">
        <ele>176.4</ele>
        <time>2020-05-30T18:33:44Z</time>
      </trkpt>
      <trkpt lat="46.48146" lon="-0.10182">
        <ele>176.5</ele>
        <time>2020-05-30T18:33:45Z</time>
      </trkpt>
      <trkpt lat="46.48143" lon="-0.10189">
        <ele>176.6</ele>
        <time>2020-05-30T18:33:46Z</time>
      </trkpt>
      <trkpt lat="46.4814" lon="-0.10196">
        <ele>176.7</ele>
        <time>2020-05-30T18:33:47Z</time>
      </trkpt>
      <trkpt lat="46.48137" lon="-0.10202">
        <ele>176.8</ele>
        <time>2020-05-30T18:33:48Z</time>
      </trkpt>
      <trkpt lat="46.48133" lon="-0.10208">
        <ele>176.9</ele>
        <time>2020-05-30T18:33:49Z</time>
      </trkpt>
      <trkpt lat="46.48131" lon="-0.10214">
        <ele>177</ele>
        <time>2020-05-30T18:33:50Z</time>
      </trkpt>
      <trkpt lat="46.48129" lon="-0.1022">
        <ele>177.1</ele>
        <time>2020-05-30T18:33:51Z</time>
      </trkpt>
      <trkpt lat="46.48126" lon="-0.10225">
        <ele>177.2</ele>
        <time>2020-05-30T18:33:52Z</time>
      </trkpt>
      <trkpt lat="46.48124" lon="-0.1023">
        <ele>177.3</ele>
        <time>2020-05-30T18:33:53Z</time>
      </trkpt>
      <trkpt lat="46.48121" lon="-0.10235">
        <ele>177.4</ele>
        <time>2020-05-30T18:33:54Z</time>
      </trkpt>
      <trkpt lat="46.48119" lon="-0.10239">
        <ele>177.5</ele>
        <time>2020-05-30T18:33:55Z</time>
      </trkpt>
      <trkpt lat="46.48117" lon="-0.10244">
        <ele>177.6</ele>
        <time>2020-05-30T18:33:56Z</time>
      </trkpt>
      <trkpt lat="46.48115" lon="-0.1025">
        <ele>177.7</ele>
        <time>2020-05-30T18:33:57Z</time>
      </trkpt>
      <trkpt lat="46.48113" lon="-0.10254">
        <ele>177.8</ele>
        <time>2020-05-30T18:33:58Z</time>
      </trkpt>
      <trkpt lat="46.48111" lon="-0.1026">
        <ele>177.9</ele>
        <time>2020-05-30T18:33:59Z</time>
      </trkpt>
      <trkpt lat="46.48109" lon="-0.10265">
        <ele>178</ele>
        <time>2020-05-30T18:34:00Z</time>
      </trkpt>
      <trkpt lat="46.48107" lon="-0.10269">
        <ele>178.1</ele>
        <time>2020-05-30T18:34:01Z</time>
      </trkpt>
      <trkpt lat="46.48105" lon="-0.10274">
        <ele>178.2</ele>
        <time>2020-05-30T18:34:02Z</time>
      </trkpt>
      <trkpt lat="46.48103" lon="-0.10279">
        <ele>178.3</ele>
        <time>2020-05-30T18:34:03Z</time>
      </trkpt>
      <trkpt lat="46.48101" lon="-0.10285">
        <ele>178.4</ele>
        <time>2020-05-30T18:34:04Z</time>
      </trkpt>
      <trkpt lat="46.48099" lon="-0.1029">
        <ele>178.4</ele>
        <time>2020-05-30T18:34:05Z</time>
      </trkpt>
      <trkpt lat="46.48097" lon="-0.10295">
        <ele>178.5</ele>
        <time>2020-05-30T18:34:06Z</time>
      </trkpt>
      <trkpt lat="46.48095" lon="-0.10299">
        <ele>178.6</ele>
        <time>2020-05-30T18:34:07Z</time>
      </trkpt>
      <trkpt lat="46.48094" lon="-0.10304">
        <ele>178.7</ele>
        <time>2020-05-30T18:34:08Z</time>
      </trkpt>
      <trkpt lat="46.48092" lon="-0.10309">
        <ele>178.8</ele>
        <time>2020-05-30T18:34:09Z</time>
      </trkpt>
      <trkpt lat="46.48089" lon="-0.10314">
        <ele>178.9</ele>
        <time>2020-05-30T18:34:10Z</time>
      </trkpt>
      <trkpt lat="46.48087" lon="-0.10319">
        <ele>179</ele>
        <time>2020-05-30T18:34:11Z</time>
      </trkpt>
      <trkpt lat="46.48085" lon="-0.10324">
        <ele>179.1</ele>
        <time>2020-05-30T18:34:12Z</time>
      </trkpt>
      <trkpt lat="46.48083" lon="-0.10329">
        <ele>179.2</ele>
        <time>2020-05-30T18:34:13Z</time>
      </trkpt>
      <trkpt lat="46.48081" lon="-0.10334">
        <ele>179.4</ele>
        <time>2020-05-30T18:34:14Z</time>
      </trkpt>
      <trkpt lat="46.48078" lon="-0.10337">
        <ele>179.4</ele>
        <time>2020-05-30T18:34:15Z</time>
      </trkpt>
      <trkpt lat="46.48076" lon="-0.10341">
        <ele>179.5</ele>
        <time>2020-05-30T18:34:16Z</time>
      </trkpt>
      <trkpt lat="46.48074" lon="-0.10344">
        <ele>179.6</ele>
        <time>2020-05-30T18:34:17Z</time>
      </trkpt>
      <trkpt lat="46.48072" lon="-0.10349">
        <ele>179.8</ele>
        <time>2020-05-30T18:34:18Z</time>
      </trkpt>
      <trkpt lat="46.48069" lon="-0.10353">
        <ele>179.9</ele>
        <time>2020-05-30T18:34:19Z</time>
      </trkpt>
      <trkpt lat="46.48068" lon="-0.10358">
        <ele>180</ele>
        <time>2020-05-30T18:34:20Z</time>
      </trkpt>
      <trkpt lat="46.48064" lon="-0.10363">
        <ele>180.1</ele>
        <time>2020-05-30T18:34:21Z</time>
      </trkpt>
      <trkpt lat="46.48062" lon="-0.10367">
        <ele>180.3</ele>
        <time>2020-05-30T18:34:22Z</time>
      </trkpt>
      <trkpt lat="46.4806" lon="-0.10371">
        <ele>180.4</ele>
        <time>2020-05-30T18:34:23Z</time>
      </trkpt>
      <trkpt lat="46.48056" lon="-0.10375">
        <ele>180.6</ele>
        <time>2020-05-30T18:34:24Z</time>
      </trkpt>
      <trkpt lat="46.48053" lon="-0.1038">
        <ele>180.7</ele>
        <time>2020-05-30T18:34:25Z</time>
      </trkpt>
      <trkpt lat="46.48051" lon="-0.10383">
        <ele>180.8</ele>
        <time>2020-05-30T18:34:26Z</time>
      </trkpt>
      <trkpt lat="46.48048" lon="-0.10387">
        <ele>181</ele>
        <time>2020-05-30T18:34:27Z</time>
      </trkpt>
      <trkpt lat="46.48045" lon="-0.10392">
        <ele>181.1</ele>
        <time>2020-05-30T18:34:28Z</time>
      </trkpt>
      <trkpt lat="46.48043" lon="-0.10395">
        <ele>181.2</ele>
        <time>2020-05-30T18:34:29Z</time>
      </trkpt>
      <trkpt lat="46.4804" lon="-0.10397">
        <ele>181.3</ele>
        <time>2020-05-30T18:34:30Z</time>
      </trkpt>
      <trkpt lat="46.48037" lon="-0.10399">
        <ele>181.4</ele>
        <time>2020-05-30T18:34:31Z</time>
      </trkpt>
      <trkpt lat="46.48035" lon="-0.10401">
        <ele>181.4</ele>
        <time>2020-05-30T18:34:32Z</time>
      </trkpt>
      <trkpt lat="46.48031" lon="-0.10404">
        <ele>181.5</ele>
        <time>2020-05-30T18:34:33Z</time>
      </trkpt>
      <trkpt lat="46.4803" lon="-0.10405">
        <ele>181.6</ele>
        <time>2020-05-30T18:34:34Z</time>
      </trkpt>
      <trkpt lat="46.48026" lon="-0.10406">
        <ele>181.7</ele>
        <time>2020-05-30T18:34:35Z</time>
      </trkpt>
      <trkpt lat="46.48023" lon="-0.10408">
        <ele>181.7</ele>
        <time>2020-05-30T18:34:36Z</time>
      </trkpt>
      <trkpt lat="46.48021" lon="-0.10411">
        <ele>181.8</ele>
        <time>2020-05-30T18:34:37Z</time>
      </trkpt>
      <trkpt lat="46.48017" lon="-0.10412">
        <ele>181.8</ele>
        <time>2020-05-30T18:34:38Z</time>
      </trkpt>
      <trkpt lat="46.48015" lon="-0.10413">
        <ele>181.9</ele>
        <time>2020-05-30T18:34:39Z</time>
      </trkpt>
      <trkpt lat="46.48011" lon="-0.10415">
        <ele>182</ele>
        <time>2020-05-30T18:34:40Z</time>
      </trkpt>
      <trkpt lat="46.4801" lon="-0.10416">
        <ele>182</ele>
        <time>2020-05-30T18:34:41Z</time>
      </trkpt>
      <trkpt lat="46.48006" lon="-0.10418">
        <ele>182.2</ele>
        <time>2020-05-30T18:34:42Z</time>
      </trkpt>
      <trkpt lat="46.48003" lon="-0.10421">
        <ele>182.3</ele>
        <time>2020-05-30T18:34:43Z</time>
      </trkpt>
      <trkpt lat="46.48" lon="-0.10423">
        <ele>182.4</ele>
        <time>2020-05-30T18:34:44Z</time>
      </trkpt>
      <trkpt lat="46.47996" lon="-0.10424">
        <ele>182.5</ele>
        <time>2020-05-30T18:34:45Z</time>
      </trkpt>
      <trkpt lat="46.47993" lon="-0.10426">
        <ele>182.7</ele>
        <time>2020-05-30T18:34:46Z</time>
      </trkpt>
      <trkpt lat="46.4799" lon="-0.10429">
        <ele>182.8</ele>
        <time>2020-05-30T18:34:47Z</time>
      </trkpt>
      <trkpt lat="46.47986" lon="-0.10431">
        <ele>182.9</ele>
        <time>2020-05-30T18:34:48Z</time>
      </trkpt>
      <trkpt lat="46.47983" lon="-0.10433">
        <ele>183.1</ele>
        <time>2020-05-30T18:34:49Z</time>
      </trkpt>
      <trkpt lat="46.4798" lon="-0.10435">
        <ele>183.2</ele>
        <time>2020-05-30T18:34:50Z</time>
      </trkpt>
      <trkpt lat="46.47976" lon="-0.10438">
        <ele>183.3</ele>
        <time>2020-05-30T18:34:51Z</time>
      </trkpt>
      <trkpt lat="46.47972" lon="-0.10441">
        <ele>183.4</ele>
        <time>2020-05-30T18:34:52Z</time>
      </trkpt>
      <trkpt lat="46.47969" lon="-0.10442">
        <ele>183.5</ele>
        <time>2020-05-30T18:34:53Z</time>
      </trkpt>
      <trkpt lat="46.47965" lon="-0.10443">
        <ele>183.6</ele>
        <time>2020-05-30T18:34:54Z</time>
      </trkpt>
      <trkpt lat="46.47961" lon="-0.10445">
        <ele>183.7</ele>
        <time>2020-05-30T18:34:55Z</time>
      </trkpt>
      <trkpt lat="46.47958" lon="-0.10448">
        <ele>183.8</ele>
        <time>2020-05-30T18:34:56Z</time>
      </trkpt>
      <trkpt lat="46.47954" lon="-0.10451">
        <ele>183.8</ele>
        <time>2020-05-30T18:34:57Z</time>
      </trkpt>
      <trkpt lat="46.47949" lon="-0.10454">
        <ele>183.9</ele>
        <time>2020-05-30T18:34:58Z</time>
      </trkpt>
      <trkpt lat="46.47945" lon="-0.10456">
        <ele>184</ele>
        <time>2020-05-30T18:34:59Z</time>
      </trkpt>
      <trkpt lat="46.47941" lon="-0.10459">
        <ele>184</ele>
        <time>2020-05-30T18:35:00Z</time>
      </trkpt>
      <trkpt lat="46.47938" lon="-0.10462">
        <ele>184.1</ele>
        <time>2020-05-30T18:35:01Z</time>
      </trkpt>
      <trkpt lat="46.47935" lon="-0.10464">
        <ele>184.1</ele>
        <time>2020-05-30T18:35:02Z</time>
      </trkpt>
      <trkpt lat="46.47932" lon="-0.10467">
        <ele>184.1</ele>
        <time>2020-05-30T18:35:03Z</time>
      </trkpt>
      <trkpt lat="46.47929" lon="-0.10469">
        <ele>184.1</ele>
        <time>2020-05-30T18:35:04Z</time>
      </trkpt>
      <trkpt lat="46.47926" lon="-0.10472">
        <ele>184.1</ele>
        <time>2020-05-30T18:35:05Z</time>
      </trkpt>
      <trkpt lat="46.47921" lon="-0.10474">
        <ele>184.1</ele>
        <time>2020-05-30T18:35:06Z</time>
      </trkpt>
      <trkpt lat="46.47916" lon="-0.10476">
        <ele>184.1</ele>
        <time>2020-05-30T18:35:07Z</time>
      </trkpt>
      <trkpt lat="46.47912" lon="-0.10479">
        <ele>184</ele>
        <time>2020-05-30T18:35:08Z</time>
      </trkpt>
      <trkpt lat="46.47908" lon="-0.10483">
        <ele>184</ele>
        <time>2020-05-30T18:35:09Z</time>
      </trkpt>
      <trkpt lat="46.47904" lon="-0.10487">
        <ele>184</ele>
        <time>2020-05-30T18:35:10Z</time>
      </trkpt>
      <trkpt lat="46.479" lon="-0.10492">
        <ele>184</ele>
        <time>2020-05-30T18:35:11Z</time>
      </trkpt>
      <trkpt lat="46.47897" lon="-0.10495">
        <ele>184</ele>
        <time>2020-05-30T18:35:12Z</time>
      </trkpt>
      <trkpt lat="46.47893" lon="-0.105">
        <ele>184</ele>
        <time>2020-05-30T18:35:13Z</time>
      </trkpt>
      <trkpt lat="46.47889" lon="-0.10503">
        <ele>184</ele>
        <time>2020-05-30T18:35:14Z</time>
      </trkpt>
      <trkpt lat="46.47885" lon="-0.10508">
        <ele>184</ele>
        <time>2020-05-30T18:35:15Z</time>
      </trkpt>
      <trkpt lat="46.47881" lon="-0.10513">
        <ele>184</ele>
        <time>2020-05-30T18:35:16Z</time>
      </trkpt>
      <trkpt lat="46.47878" lon="-0.10518">
        <ele>184</ele>
        <time>2020-05-30T18:35:17Z</time>
      </trkpt>
      <trkpt lat="46.47874" lon="-0.10523">
        <ele>183.9</ele>
        <time>2020-05-30T18:35:18Z</time>
      </trkpt>
      <trkpt lat="46.47871" lon="-0.10531">
        <ele>183.9</ele>
        <time>2020-05-30T18:35:19Z</time>
      </trkpt>
      <trkpt lat="46.47868" lon="-0.10537">
        <ele>183.8</ele>
        <time>2020-05-30T18:35:20Z</time>
      </trkpt>
      <trkpt lat="46.47865" lon="-0.10544">
        <ele>183.8</ele>
        <time>2020-05-30T18:35:21Z</time>
      </trkpt>
      <trkpt lat="46.47862" lon="-0.10551">
        <ele>183.8</ele>
        <time>2020-05-30T18:35:22Z</time>
      </trkpt>
      <trkpt lat="46.47859" lon="-0.10558">
        <ele>183.8</ele>
        <time>2020-05-30T18:35:23Z</time>
      </trkpt>
      <trkpt lat="46.47856" lon="-0.10564">
        <ele>183.8</ele>
        <time>2020-05-30T18:35:24Z</time>
      </trkpt>
      <trkpt lat="46.47854" lon="-0.10572">
        <ele>183.8</ele>
        <time>2020-05-30T18:35:25Z</time>
      </trkpt>
      <trkpt lat="46.47851" lon="-0.10578">
        <ele>183.8</ele>
        <time>2020-05-30T18:35:26Z</time>
      </trkpt>
      <trkpt lat="46.47848" lon="-0.10585">
        <ele>183.8</ele>
        <time>2020-05-30T18:35:27Z</time>
      </trkpt>
      <trkpt lat="46.47845" lon="-0.10592">
        <ele>183.7</ele>
        <time>2020-05-30T18:35:28Z</time>
      </trkpt>
      <trkpt lat="46.47843" lon="-0.10599">
        <ele>183.6</ele>
        <time>2020-05-30T18:35:29Z</time>
      </trkpt>
      <trkpt lat="46.4784" lon="-0.10606">
        <ele>183.6</ele>
        <time>2020-05-30T18:35:30Z</time>
      </trkpt>
      <trkpt lat="46.47837" lon="-0.10614">
        <ele>183.5</ele>
        <time>2020-05-30T18:35:31Z</time>
      </trkpt>
      <trkpt lat="46.47836" lon="-0.10623">
        <ele>183.4</ele>
        <time>2020-05-30T18:35:32Z</time>
      </trkpt>
      <trkpt lat="46.47834" lon="-0.1063">
        <ele>183.3</ele>
        <time>2020-05-30T18:35:33Z</time>
      </trkpt>
      <trkpt lat="46.47832" lon="-0.10638">
        <ele>183.2</ele>
        <time>2020-05-30T18:35:34Z</time>
      </trkpt>
      <trkpt lat="46.4783" lon="-0.10645">
        <ele>183.1</ele>
        <time>2020-05-30T18:35:35Z</time>
      </trkpt>
      <trkpt lat="46.47828" lon="-0.10652">
        <ele>183</ele>
        <time>2020-05-30T18:35:36Z</time>
      </trkpt>
      <trkpt lat="46.47825" lon="-0.1066">
        <ele>183</ele>
        <time>2020-05-30T18:35:37Z</time>
      </trkpt>
      <trkpt lat="46.47822" lon="-0.10668">
        <ele>182.9</ele>
        <time>2020-05-30T18:35:38Z</time>
      </trkpt>
      <trkpt lat="46.4782" lon="-0.10676">
        <ele>182.9</ele>
        <time>2020-05-30T18:35:39Z</time>
      </trkpt>
      <trkpt lat="46.47817" lon="-0.10685">
        <ele>182.9</ele>
        <time>2020-05-30T18:35:40Z</time>
      </trkpt>
      <trkpt lat="46.47814" lon="-0.10692">
        <ele>182.7</ele>
        <time>2020-05-30T18:35:41Z</time>
      </trkpt>
      <trkpt lat="46.47812" lon="-0.10699">
        <ele>182.6</ele>
        <time>2020-05-30T18:35:42Z</time>
      </trkpt>
      <trkpt lat="46.47809" lon="-0.10707">
        <ele>182.4</ele>
        <time>2020-05-30T18:35:43Z</time>
      </trkpt>
      <trkpt lat="46.47806" lon="-0.10715">
        <ele>182.2</ele>
        <time>2020-05-30T18:35:44Z</time>
      </trkpt>
      <trkpt lat="46.47803" lon="-0.10724">
        <ele>181.9</ele>
        <time>2020-05-30T18:35:45Z</time>
      </trkpt>
      <trkpt lat="46.478" lon="-0.10732">
        <ele>181.7</ele>
        <time>2020-05-30T18:35:46Z</time>
      </trkpt>
      <trkpt lat="46.47798" lon="-0.10739">
        <ele>181.5</ele>
        <time>2020-05-30T18:35:47Z</time>
      </trkpt>
      <trkpt lat="46.47795" lon="-0.10748">
        <ele>181.3</ele>
        <time>2020-05-30T18:35:48Z</time>
      </trkpt>
      <trkpt lat="46.4779" lon="-0.10757">
        <ele>181</ele>
        <time>2020-05-30T18:35:49Z</time>
      </trkpt>
      <trkpt lat="46.47787" lon="-0.10763">
        <ele>180.8</ele>
        <time>2020-05-30T18:35:50Z</time>
      </trkpt>
      <trkpt lat="46.47783" lon="-0.1077">
        <ele>180.6</ele>
        <time>2020-05-30T18:35:51Z</time>
      </trkpt>
      <trkpt lat="46.47779" lon="-0.10777">
        <ele>180.3</ele>
        <time>2020-05-30T18:35:52Z</time>
      </trkpt>
      <trkpt lat="46.47775" lon="-0.10783">
        <ele>180.1</ele>
        <time>2020-05-30T18:35:53Z</time>
      </trkpt>
      <trkpt lat="46.47769" lon="-0.10789">
        <ele>179.8</ele>
        <time>2020-05-30T18:35:54Z</time>
      </trkpt>
      <trkpt lat="46.47764" lon="-0.10796">
        <ele>179.5</ele>
        <time>2020-05-30T18:35:55Z</time>
      </trkpt>
      <trkpt lat="46.47758" lon="-0.10801">
        <ele>179.3</ele>
        <time>2020-05-30T18:35:56Z</time>
      </trkpt>
      <trkpt lat="46.47752" lon="-0.10805">
        <ele>179</ele>
        <time>2020-05-30T18:35:57Z</time>
      </trkpt>
      <trkpt lat="46.47748" lon="-0.10809">
        <ele>178.8</ele>
        <time>2020-05-30T18:35:58Z</time>
      </trkpt>
      <trkpt lat="46.47742" lon="-0.10813">
        <ele>178.5</ele>
        <time>2020-05-30T18:35:59Z</time>
      </trkpt>
      <trkpt lat="46.47736" lon="-0.10817">
        <ele>178.2</ele>
        <time>2020-05-30T18:36:00Z</time>
      </trkpt>
      <trkpt lat="46.4773" lon="-0.10821">
        <ele>178</ele>
        <time>2020-05-30T18:36:01Z</time>
      </trkpt>
      <trkpt lat="46.47723" lon="-0.10824">
        <ele>177.8</ele>
        <time>2020-05-30T18:36:02Z</time>
      </trkpt>
      <trkpt lat="46.47717" lon="-0.10826">
        <ele>177.5</ele>
        <time>2020-05-30T18:36:03Z</time>
      </trkpt>
      <trkpt lat="46.47711" lon="-0.10828">
        <ele>177.2</ele>
        <time>2020-05-30T18:36:04Z</time>
      </trkpt>
      <trkpt lat="46.47705" lon="-0.1083">
        <ele>176.8</ele>
        <time>2020-05-30T18:36:05Z</time>
      </trkpt>
      <trkpt lat="46.47699" lon="-0.10832">
        <ele>176.5</ele>
        <time>2020-05-30T18:36:06Z</time>
      </trkpt>
      <trkpt lat="46.47692" lon="-0.10833">
        <ele>176.2</ele>
        <time>2020-05-30T18:36:07Z</time>
      </trkpt>
      <trkpt lat="46.47685" lon="-0.10834">
        <ele>175.9</ele>
        <time>2020-05-30T18:36:08Z</time>
      </trkpt>
      <trkpt lat="46.47679" lon="-0.10835">
        <ele>175.7</ele>
        <time>2020-05-30T18:36:09Z</time>
      </trkpt>
      <trkpt lat="46.47672" lon="-0.10836">
        <ele>175.6</ele>
        <time>2020-05-30T18:36:10Z</time>
      </trkpt>
      <trkpt lat="46.47665" lon="-0.10837">
        <ele>175.4</ele>
        <time>2020-05-30T18:36:11Z</time>
      </trkpt>
      <trkpt lat="46.47658" lon="-0.10838">
        <ele>175.3</ele>
        <time>2020-05-30T18:36:12Z</time>
      </trkpt>
      <trkpt lat="46.47651" lon="-0.1084">
        <ele>175.1</ele>
        <time>2020-05-30T18:36:13Z</time>
      </trkpt>
      <trkpt lat="46.47644" lon="-0.10841">
        <ele>175</ele>
        <time>2020-05-30T18:36:14Z</time>
      </trkpt>
      <trkpt lat="46.47637" lon="-0.10843">
        <ele>174.8</ele>
        <time>2020-05-30T18:36:15Z</time>
      </trkpt>
      <trkpt lat="46.47629" lon="-0.10843">
        <ele>174.6</ele>
        <time>2020-05-30T18:36:16Z</time>
      </trkpt>
      <trkpt lat="46.47622" lon="-0.10843">
        <ele>174.4</ele>
        <time>2020-05-30T18:36:17Z</time>
      </trkpt>
      <trkpt lat="46.47616" lon="-0.10845">
        <ele>174.3</ele>
        <time>2020-05-30T18:36:18Z</time>
      </trkpt>
      <trkpt lat="46.47608" lon="-0.10847">
        <ele>174.1</ele>
        <time>2020-05-30T18:36:19Z</time>
      </trkpt>
      <trkpt lat="46.47601" lon="-0.10847">
        <ele>173.9</ele>
        <time>2020-05-30T18:36:20Z</time>
      </trkpt>
      <trkpt lat="46.47595" lon="-0.10851">
        <ele>173.8</ele>
        <time>2020-05-30T18:36:21Z</time>
      </trkpt>
      <trkpt lat="46.4759" lon="-0.10852">
        <ele>173.7</ele>
        <time>2020-05-30T18:36:22Z</time>
      </trkpt>
      <trkpt lat="46.47586" lon="-0.10853">
        <ele>173.6</ele>
        <time>2020-05-30T18:36:23Z</time>
      </trkpt>
      <trkpt lat="46.47583" lon="-0.10854">
        <ele>173.6</ele>
        <time>2020-05-30T18:36:24Z</time>
      </trkpt>
      <trkpt lat="46.4758" lon="-0.10856">
        <ele>173.7</ele>
        <time>2020-05-30T18:36:25Z</time>
      </trkpt>
      <trkpt lat="46.47579" lon="-0.10857">
        <ele>173.7</ele>
        <time>2020-05-30T18:36:26Z</time>
      </trkpt>
      <trkpt lat="46.4758" lon="-0.10858">
        <ele>173.7</ele>
        <time>2020-05-30T18:36:27Z</time>
      </trkpt>
      <trkpt lat="46.47581" lon="-0.1086">
        <ele>173.7</ele>
        <time>2020-05-30T18:36:28Z</time>
      </trkpt>
      <trkpt lat="46.47582" lon="-0.10862">
        <ele>173.7</ele>
        <time>2020-05-30T18:36:29Z</time>
      </trkpt>
      <trkpt lat="46.47582" lon="-0.10863">
        <ele>173.7</ele>
        <time>2020-05-30T18:36:30Z</time>
      </trkpt>
      <trkpt lat="46.47582" lon="-0.10863">
        <ele>173.7</ele>
        <time>2020-05-30T18:36:31Z</time>
      </trkpt>
      <trkpt lat="46.47581" lon="-0.10863">
        <ele>173.8</ele>
        <time>2020-05-30T18:36:32Z</time>
      </trkpt>
      <trkpt lat="46.47581" lon="-0.10864">
        <ele>173.8</ele>
        <time>2020-05-30T18:36:33Z</time>
      </trkpt>
      <trkpt lat="46.47581" lon="-0.10864">
        <ele>173.8</ele>
        <time>2020-05-30T18:36:34Z</time>
      </trkpt>
      <trkpt lat="46.4758" lon="-0.10864">
        <ele>173.8</ele>
        <time>2020-05-30T18:36:35Z</time>
      </trkpt>
      <trkpt lat="46.4758" lon="-0.10865">
        <ele>173.8</ele>
        <time>2020-05-30T18:36:36Z</time>
      </trkpt>
      <trkpt lat="46.4758" lon="-0.10865">
        <ele>173.8</ele>
        <time>2020-05-30T18:36:37Z</time>
      </trkpt>
      <trkpt lat="46.47579" lon="-0.10865">
        <ele>173.8</ele>
        <time>2020-05-30T18:36:38Z</time>
      </trkpt>
      <trkpt lat="46.47579" lon="-0.10866">
        <ele>173.8</ele>
        <time>2020-05-30T18:36:39Z</time>
      </trkpt>
      <trkpt lat="46.47578" lon="-0.10866">
        <ele>173.8</ele>
        <time>2020-05-30T18:36:40Z</time>
      </trkpt>
      <trkpt lat="46.47578" lon="-0.10866">
        <ele>173.8</ele>
        <time>2020-05-30T18:36:41Z</time>
      </trkpt>
      <trkpt lat="46.47578" lon="-0.10867">
        <ele>173.8</ele>
        <time>2020-05-30T18:36:42Z</time>
      </trkpt>
      <trkpt lat="46.47574" lon="-0.1087">
        <ele>173.9</ele>
        <time>2020-05-30T18:36:43Z</time>
      </trkpt>
      <trkpt lat="46.47571" lon="-0.10872">
        <ele>173.9</ele>
        <time>2020-05-30T18:36:44Z</time>
      </trkpt>
      <trkpt lat="46.47568" lon="-0.10876">
        <ele>173.9</ele>
        <time>2020-05-30T18:36:45Z</time>
      </trkpt>
      <trkpt lat="46.47565" lon="-0.1088">
        <ele>174</ele>
        <time>2020-05-30T18:36:46Z</time>
      </trkpt>
      <trkpt lat="46.47562" lon="-0.10886">
        <ele>174</ele>
        <time>2020-05-30T18:36:47Z</time>
      </trkpt>
      <trkpt lat="46.4756" lon="-0.10892">
        <ele>174.1</ele>
        <time>2020-05-30T18:36:48Z</time>
      </trkpt>
      <trkpt lat="46.47558" lon="-0.10897">
        <ele>174.1</ele>
        <time>2020-05-30T18:36:49Z</time>
      </trkpt>
      <trkpt lat="46.47555" lon="-0.10904">
        <ele>174.2</ele>
        <time>2020-05-30T18:36:50Z</time>
      </trkpt>
      <trkpt lat="46.47553" lon="-0.10911">
        <ele>174.2</ele>
        <time>2020-05-30T18:36:51Z</time>
      </trkpt>
      <trkpt lat="46.4755" lon="-0.10918">
        <ele>174.3</ele>
        <time>2020-05-30T18:36:52Z</time>
      </trkpt>
      <trkpt lat="46.47548" lon="-0.10926">
        <ele>174.3</ele>
        <time>2020-05-30T18:36:53Z</time>
      </trkpt>
      <trkpt lat="46.47544" lon="-0.10933">
        <ele>174.4</ele>
        <time>2020-05-30T18:36:54Z</time>
      </trkpt>
      <trkpt lat="46.47541" lon="-0.10941">
        <ele>174.5</ele>
        <time>2020-05-30T18:36:55Z</time>
      </trkpt>
      <trkpt lat="46.47538" lon="-0.10949">
        <ele>174.5</ele>
        <time>2020-05-30T18:36:56Z</time>
      </trkpt>
      <trkpt lat="46.47536" lon="-0.10957">
        <ele>174.7</ele>
        <time>2020-05-30T18:36:57Z</time>
      </trkpt>
      <trkpt lat="46.47533" lon="-0.10964">
        <ele>174.8</ele>
        <time>2020-05-30T18:36:58Z</time>
      </trkpt>
      <trkpt lat="46.47531" lon="-0.10971">
        <ele>174.9</ele>
        <time>2020-05-30T18:36:59Z</time>
      </trkpt>
      <trkpt lat="46.47529" lon="-0.10976">
        <ele>174.9</ele>
        <time>2020-05-30T18:37:00Z</time>
      </trkpt>
      <trkpt lat="46.47528" lon="-0.10982">
        <ele>175</ele>
        <time>2020-05-30T18:37:01Z</time>
      </trkpt>
      <trkpt lat="46.47525" lon="-0.10987">
        <ele>175.1</ele>
        <time>2020-05-30T18:37:02Z</time>
      </trkpt>
      <trkpt lat="46.47523" lon="-0.10991">
        <ele>175.1</ele>
        <time>2020-05-30T18:37:03Z</time>
      </trkpt>
      <trkpt lat="46.47521" lon="-0.10997">
        <ele>175.1</ele>
        <time>2020-05-30T18:37:04Z</time>
      </trkpt>
      <trkpt lat="46.47521" lon="-0.11">
        <ele>175.2</ele>
        <time>2020-05-30T18:37:05Z</time>
      </trkpt>
      <trkpt lat="46.4752" lon="-0.11006">
        <ele>175.2</ele>
        <time>2020-05-30T18:37:06Z</time>
      </trkpt>
      <trkpt lat="46.4752" lon="-0.1101">
        <ele>175.2</ele>
        <time>2020-05-30T18:37:07Z</time>
      </trkpt>
      <trkpt lat="46.47519" lon="-0.11014">
        <ele>175.2</ele>
        <time>2020-05-30T18:37:08Z</time>
      </trkpt>
      <trkpt lat="46.47519" lon="-0.11019">
        <ele>175.2</ele>
        <time>2020-05-30T18:37:09Z</time>
      </trkpt>
      <trkpt lat="46.47519" lon="-0.11025">
        <ele>175.2</ele>
        <time>2020-05-30T18:37:10Z</time>
      </trkpt>
      <trkpt lat="46.47518" lon="-0.11027">
        <ele>175.3</ele>
        <time>2020-05-30T18:37:11Z</time>
      </trkpt>
      <trkpt lat="46.47518" lon="-0.11029">
        <ele>175.3</ele>
        <time>2020-05-30T18:37:12Z</time>
      </trkpt>
      <trkpt lat="46.47518" lon="-0.11032">
        <ele>175.3</ele>
        <time>2020-05-30T18:37:13Z</time>
      </trkpt>
      <trkpt lat="46.47518" lon="-0.11038">
        <ele>175.3</ele>
        <time>2020-05-30T18:37:14Z</time>
      </trkpt>
      <trkpt lat="46.47517" lon="-0.1104">
        <ele>175.3</ele>
        <time>2020-05-30T18:37:15Z</time>
      </trkpt>
      <trkpt lat="46.47517" lon="-0.11046">
        <ele>175.3</ele>
        <time>2020-05-30T18:37:16Z</time>
      </trkpt>
      <trkpt lat="46.47517" lon="-0.1105">
        <ele>175.3</ele>
        <time>2020-05-30T18:37:17Z</time>
      </trkpt>
      <trkpt lat="46.47516" lon="-0.11057">
        <ele>175.3</ele>
        <time>2020-05-30T18:37:18Z</time>
      </trkpt>
      <trkpt lat="46.47516" lon="-0.11063">
        <ele>175.4</ele>
        <time>2020-05-30T18:37:19Z</time>
      </trkpt>
      <trkpt lat="46.47516" lon="-0.11068">
        <ele>175.4</ele>
        <time>2020-05-30T18:37:20Z</time>
      </trkpt>
      <trkpt lat="46.47515" lon="-0.11072">
        <ele>175.4</ele>
        <time>2020-05-30T18:37:21Z</time>
      </trkpt>
      <trkpt lat="46.47514" lon="-0.11077">
        <ele>175.4</ele>
        <time>2020-05-30T18:37:22Z</time>
      </trkpt>
      <trkpt lat="46.47513" lon="-0.11082">
        <ele>175.4</ele>
        <time>2020-05-30T18:37:23Z</time>
      </trkpt>
      <trkpt lat="46.47512" lon="-0.11086">
        <ele>175.4</ele>
        <time>2020-05-30T18:37:24Z</time>
      </trkpt>
      <trkpt lat="46.47511" lon="-0.11092">
        <ele>175.5</ele>
        <time>2020-05-30T18:37:25Z</time>
      </trkpt>
      <trkpt lat="46.4751" lon="-0.11097">
        <ele>175.5</ele>
        <time>2020-05-30T18:37:26Z</time>
      </trkpt>
      <trkpt lat="46.47509" lon="-0.11102">
        <ele>175.5</ele>
        <time>2020-05-30T18:37:27Z</time>
      </trkpt>
      <trkpt lat="46.47508" lon="-0.11109">
        <ele>175.6</ele>
        <time>2020-05-30T18:37:28Z</time>
      </trkpt>
      <trkpt lat="46.47507" lon="-0.11114">
        <ele>175.6</ele>
        <time>2020-05-30T18:37:29Z</time>
      </trkpt>
      <trkpt lat="46.47507" lon="-0.11118">
        <ele>175.6</ele>
        <time>2020-05-30T18:37:30Z</time>
      </trkpt>
      <trkpt lat="46.47505" lon="-0.11123">
        <ele>175.7</ele>
        <time>2020-05-30T18:37:31Z</time>
      </trkpt>
      <trkpt lat="46.47504" lon="-0.11127">
        <ele>175.7</ele>
        <time>2020-05-30T18:37:32Z</time>
      </trkpt>
      <trkpt lat="46.47504" lon="-0.11133">
        <ele>175.7</ele>
        <time>2020-05-30T18:37:33Z</time>
      </trkpt>
      <trkpt lat="46.47502" lon="-0.11137">
        <ele>175.8</ele>
        <time>2020-05-30T18:37:34Z</time>
      </trkpt>
      <trkpt lat="46.47501" lon="-0.11142">
        <ele>175.8</ele>
        <time>2020-05-30T18:37:35Z</time>
      </trkpt>
      <trkpt lat="46.47501" lon="-0.11146">
        <ele>175.9</ele>
        <time>2020-05-30T18:37:36Z</time>
      </trkpt>
      <trkpt lat="46.47499" lon="-0.11154">
        <ele>175.9</ele>
        <time>2020-05-30T18:37:37Z</time>
      </trkpt>
      <trkpt lat="46.47499" lon="-0.11158">
        <ele>175.9</ele>
        <time>2020-05-30T18:37:38Z</time>
      </trkpt>
      <trkpt lat="46.47497" lon="-0.11162">
        <ele>176</ele>
        <time>2020-05-30T18:37:39Z</time>
      </trkpt>
      <trkpt lat="46.47497" lon="-0.11167">
        <ele>176</ele>
        <time>2020-05-30T18:37:40Z</time>
      </trkpt>
      <trkpt lat="46.47496" lon="-0.11173">
        <ele>176.1</ele>
        <time>2020-05-30T18:37:41Z</time>
      </trkpt>
      <trkpt lat="46.47495" lon="-0.11178">
        <ele>176.1</ele>
        <time>2020-05-30T18:37:42Z</time>
      </trkpt>
      <trkpt lat="46.47494" lon="-0.11183">
        <ele>176.1</ele>
        <time>2020-05-30T18:37:43Z</time>
      </trkpt>
      <trkpt lat="46.47494" lon="-0.11187">
        <ele>176.1</ele>
        <time>2020-05-30T18:37:44Z</time>
      </trkpt>
      <trkpt lat="46.47492" lon="-0.11192">
        <ele>176.2</ele>
        <time>2020-05-30T18:37:45Z</time>
      </trkpt>
      <trkpt lat="46.47492" lon="-0.11196">
        <ele>176.2</ele>
        <time>2020-05-30T18:37:46Z</time>
      </trkpt>
      <trkpt lat="46.47491" lon="-0.112">
        <ele>176.2</ele>
        <time>2020-05-30T18:37:47Z</time>
      </trkpt>
      <trkpt lat="46.47489" lon="-0.11207">
        <ele>176.2</ele>
        <time>2020-05-30T18:37:48Z</time>
      </trkpt>
      <trkpt lat="46.47488" lon="-0.11213">
        <ele>176.3</ele>
        <time>2020-05-30T18:37:49Z</time>
      </trkpt>
      <trkpt lat="46.47487" lon="-0.11221">
        <ele>176.3</ele>
        <time>2020-05-30T18:37:50Z</time>
      </trkpt>
      <trkpt lat="46.47486" lon="-0.11227">
        <ele>176.3</ele>
        <time>2020-05-30T18:37:51Z</time>
      </trkpt>
      <trkpt lat="46.47485" lon="-0.11232">
        <ele>176.4</ele>
        <time>2020-05-30T18:37:52Z</time>
      </trkpt>
      <trkpt lat="46.47484" lon="-0.11236">
        <ele>176.4</ele>
        <time>2020-05-30T18:37:53Z</time>
      </trkpt>
      <trkpt lat="46.47482" lon="-0.11242">
        <ele>176.4</ele>
        <time>2020-05-30T18:37:54Z</time>
      </trkpt>
      <trkpt lat="46.47481" lon="-0.11247">
        <ele>176.4</ele>
        <time>2020-05-30T18:37:55Z</time>
      </trkpt>
      <trkpt lat="46.4748" lon="-0.11253">
        <ele>176.4</ele>
        <time>2020-05-30T18:37:56Z</time>
      </trkpt>
      <trkpt lat="46.47479" lon="-0.11258">
        <ele>176.5</ele>
        <time>2020-05-30T18:37:57Z</time>
      </trkpt>
      <trkpt lat="46.47478" lon="-0.11263">
        <ele>176.5</ele>
        <time>2020-05-30T18:37:58Z</time>
      </trkpt>
      <trkpt lat="46.47476" lon="-0.11268">
        <ele>176.5</ele>
        <time>2020-05-30T18:37:59Z</time>
      </trkpt>
      <trkpt lat="46.47475" lon="-0.11274">
        <ele>176.5</ele>
        <time>2020-05-30T18:38:00Z</time>
      </trkpt>
      <trkpt lat="46.47473" lon="-0.1128">
        <ele>176.5</ele>
        <time>2020-05-30T18:38:01Z</time>
      </trkpt>
      <trkpt lat="46.47472" lon="-0.11283">
        <ele>176.6</ele>
        <time>2020-05-30T18:38:02Z</time>
      </trkpt>
      <trkpt lat="46.47471" lon="-0.11288">
        <ele>176.6</ele>
        <time>2020-05-30T18:38:03Z</time>
      </trkpt>
      <trkpt lat="46.47471" lon="-0.11293">
        <ele>176.6</ele>
        <time>2020-05-30T18:38:04Z</time>
      </trkpt>
      <trkpt lat="46.4747" lon="-0.11298">
        <ele>176.6</ele>
        <time>2020-05-30T18:38:05Z</time>
      </trkpt>
      <trkpt lat="46.47469" lon="-0.11303">
        <ele>176.6</ele>
        <time>2020-05-30T18:38:06Z</time>
      </trkpt>
      <trkpt lat="46.47467" lon="-0.11307">
        <ele>176.6</ele>
        <time>2020-05-30T18:38:07Z</time>
      </trkpt>
      <trkpt lat="46.47465" lon="-0.11312">
        <ele>176.6</ele>
        <time>2020-05-30T18:38:08Z</time>
      </trkpt>
      <trkpt lat="46.47464" lon="-0.11318">
        <ele>176.6</ele>
        <time>2020-05-30T18:38:09Z</time>
      </trkpt>
      <trkpt lat="46.47463" lon="-0.11322">
        <ele>176.6</ele>
        <time>2020-05-30T18:38:10Z</time>
      </trkpt>
      <trkpt lat="46.47461" lon="-0.11328">
        <ele>176.6</ele>
        <time>2020-05-30T18:38:11Z</time>
      </trkpt>
      <trkpt lat="46.47459" lon="-0.11333">
        <ele>176.6</ele>
        <time>2020-05-30T18:38:12Z</time>
      </trkpt>
      <trkpt lat="46.47458" lon="-0.11339">
        <ele>176.6</ele>
        <time>2020-05-30T18:38:13Z</time>
      </trkpt>
      <trkpt lat="46.47456" lon="-0.11344">
        <ele>176.6</ele>
        <time>2020-05-30T18:38:14Z</time>
      </trkpt>
      <trkpt lat="46.47455" lon="-0.1135">
        <ele>176.7</ele>
        <time>2020-05-30T18:38:15Z</time>
      </trkpt>
      <trkpt lat="46.47454" lon="-0.11356">
        <ele>176.7</ele>
        <time>2020-05-30T18:38:16Z</time>
      </trkpt>
      <trkpt lat="46.47453" lon="-0.11361">
        <ele>176.7</ele>
        <time>2020-05-30T18:38:17Z</time>
      </trkpt>
      <trkpt lat="46.47452" lon="-0.11366">
        <ele>176.7</ele>
        <time>2020-05-30T18:38:18Z</time>
      </trkpt>
      <trkpt lat="46.47451" lon="-0.1137">
        <ele>176.7</ele>
        <time>2020-05-30T18:38:19Z</time>
      </trkpt>
      <trkpt lat="46.4745" lon="-0.11374">
        <ele>176.8</ele>
        <time>2020-05-30T18:38:20Z</time>
      </trkpt>
      <trkpt lat="46.47449" lon="-0.1138">
        <ele>176.8</ele>
        <time>2020-05-30T18:38:21Z</time>
      </trkpt>
      <trkpt lat="46.47447" lon="-0.11386">
        <ele>176.9</ele>
        <time>2020-05-30T18:38:22Z</time>
      </trkpt>
      <trkpt lat="46.47446" lon="-0.11392">
        <ele>177</ele>
        <time>2020-05-30T18:38:23Z</time>
      </trkpt>
      <trkpt lat="46.47445" lon="-0.11397">
        <ele>177.1</ele>
        <time>2020-05-30T18:38:24Z</time>
      </trkpt>
      <trkpt lat="46.47443" lon="-0.11403">
        <ele>177.2</ele>
        <time>2020-05-30T18:38:25Z</time>
      </trkpt>
      <trkpt lat="46.47442" lon="-0.11408">
        <ele>177.3</ele>
        <time>2020-05-30T18:38:26Z</time>
      </trkpt>
      <trkpt lat="46.4744" lon="-0.11414">
        <ele>177.4</ele>
        <time>2020-05-30T18:38:27Z</time>
      </trkpt>
      <trkpt lat="46.47439" lon="-0.11418">
        <ele>177.4</ele>
        <time>2020-05-30T18:38:28Z</time>
      </trkpt>
      <trkpt lat="46.47436" lon="-0.11424">
        <ele>177.5</ele>
        <time>2020-05-30T18:38:29Z</time>
      </trkpt>
      <trkpt lat="46.47435" lon="-0.11429">
        <ele>177.5</ele>
        <time>2020-05-30T18:38:30Z</time>
      </trkpt>
      <trkpt lat="46.47434" lon="-0.11434">
        <ele>177.6</ele>
        <time>2020-05-30T18:38:31Z</time>
      </trkpt>
      <trkpt lat="46.47433" lon="-0.1144">
        <ele>177.6</ele>
        <time>2020-05-30T18:38:32Z</time>
      </trkpt>
      <trkpt lat="46.47432" lon="-0.11446">
        <ele>177.6</ele>
        <time>2020-05-30T18:38:33Z</time>
      </trkpt>
      <trkpt lat="46.47431" lon="-0.11452">
        <ele>177.6</ele>
        <time>2020-05-30T18:38:34Z</time>
      </trkpt>
      <trkpt lat="46.47429" lon="-0.11458">
        <ele>177.7</ele>
        <time>2020-05-30T18:38:35Z</time>
      </trkpt>
      <trkpt lat="46.47428" lon="-0.11465">
        <ele>177.7</ele>
        <time>2020-05-30T18:38:36Z</time>
      </trkpt>
      <trkpt lat="46.47427" lon="-0.1147">
        <ele>177.7</ele>
        <time>2020-05-30T18:38:37Z</time>
      </trkpt>
      <trkpt lat="46.47425" lon="-0.11479">
        <ele>177.8</ele>
        <time>2020-05-30T18:38:38Z</time>
      </trkpt>
      <trkpt lat="46.47424" lon="-0.11485">
        <ele>177.8</ele>
        <time>2020-05-30T18:38:39Z</time>
      </trkpt>
      <trkpt lat="46.47423" lon="-0.1149">
        <ele>177.9</ele>
        <time>2020-05-30T18:38:40Z</time>
      </trkpt>
      <trkpt lat="46.47422" lon="-0.11497">
        <ele>177.9</ele>
        <time>2020-05-30T18:38:41Z</time>
      </trkpt>
      <trkpt lat="46.47421" lon="-0.11502">
        <ele>178</ele>
        <time>2020-05-30T18:38:42Z</time>
      </trkpt>
      <trkpt lat="46.47419" lon="-0.11507">
        <ele>178</ele>
        <time>2020-05-30T18:38:43Z</time>
      </trkpt>
      <trkpt lat="46.47418" lon="-0.11512">
        <ele>178</ele>
        <time>2020-05-30T18:38:44Z</time>
      </trkpt>
      <trkpt lat="46.47416" lon="-0.11517">
        <ele>178.1</ele>
        <time>2020-05-30T18:38:45Z</time>
      </trkpt>
      <trkpt lat="46.47415" lon="-0.11521">
        <ele>178.1</ele>
        <time>2020-05-30T18:38:46Z</time>
      </trkpt>
      <trkpt lat="46.47415" lon="-0.11527">
        <ele>178.1</ele>
        <time>2020-05-30T18:38:47Z</time>
      </trkpt>
      <trkpt lat="46.47414" lon="-0.11532">
        <ele>178.2</ele>
        <time>2020-05-30T18:38:48Z</time>
      </trkpt>
      <trkpt lat="46.47413" lon="-0.11539">
        <ele>178.2</ele>
        <time>2020-05-30T18:38:49Z</time>
      </trkpt>
      <trkpt lat="46.47411" lon="-0.11544">
        <ele>178.2</ele>
        <time>2020-05-30T18:38:50Z</time>
      </trkpt>
      <trkpt lat="46.4741" lon="-0.1155">
        <ele>178.3</ele>
        <time>2020-05-30T18:38:51Z</time>
      </trkpt>
      <trkpt lat="46.47408" lon="-0.11555">
        <ele>178.3</ele>
        <time>2020-05-30T18:38:52Z</time>
      </trkpt>
      <trkpt lat="46.47407" lon="-0.1156">
        <ele>178.4</ele>
        <time>2020-05-30T18:38:53Z</time>
      </trkpt>
      <trkpt lat="46.47405" lon="-0.11566">
        <ele>178.4</ele>
        <time>2020-05-30T18:38:54Z</time>
      </trkpt>
      <trkpt lat="46.47404" lon="-0.11571">
        <ele>178.5</ele>
        <time>2020-05-30T18:38:55Z</time>
      </trkpt>
      <trkpt lat="46.47403" lon="-0.11578">
        <ele>178.6</ele>
        <time>2020-05-30T18:38:56Z</time>
      </trkpt>
      <trkpt lat="46.47401" lon="-0.11584">
        <ele>178.7</ele>
        <time>2020-05-30T18:38:57Z</time>
      </trkpt>
      <trkpt lat="46.474" lon="-0.11589">
        <ele>178.8</ele>
        <time>2020-05-30T18:38:58Z</time>
      </trkpt>
      <trkpt lat="46.47398" lon="-0.11595">
        <ele>178.8</ele>
        <time>2020-05-30T18:38:59Z</time>
      </trkpt>
      <trkpt lat="46.47398" lon="-0.11601">
        <ele>178.9</ele>
        <time>2020-05-30T18:39:00Z</time>
      </trkpt>
      <trkpt lat="46.47397" lon="-0.11605">
        <ele>179</ele>
        <time>2020-05-30T18:39:01Z</time>
      </trkpt>
      <trkpt lat="46.47397" lon="-0.11611">
        <ele>179</ele>
        <time>2020-05-30T18:39:02Z</time>
      </trkpt>
      <trkpt lat="46.47396" lon="-0.11617">
        <ele>179.1</ele>
        <time>2020-05-30T18:39:03Z</time>
      </trkpt>
      <trkpt lat="46.47396" lon="-0.11623">
        <ele>179.1</ele>
        <time>2020-05-30T18:39:04Z</time>
      </trkpt>
      <trkpt lat="46.47395" lon="-0.11627">
        <ele>179.2</ele>
        <time>2020-05-30T18:39:05Z</time>
      </trkpt>
      <trkpt lat="46.47394" lon="-0.11632">
        <ele>179.2</ele>
        <time>2020-05-30T18:39:06Z</time>
      </trkpt>
      <trkpt lat="46.47393" lon="-0.11639">
        <ele>179.3</ele>
        <time>2020-05-30T18:39:07Z</time>
      </trkpt>
      <trkpt lat="46.47393" lon="-0.11645">
        <ele>179.4</ele>
        <time>2020-05-30T18:39:08Z</time>
      </trkpt>
      <trkpt lat="46.47392" lon="-0.11651">
        <ele>179.4</ele>
        <time>2020-05-30T18:39:09Z</time>
      </trkpt>
      <trkpt lat="46.47392" lon="-0.11655">
        <ele>179.5</ele>
        <time>2020-05-30T18:39:10Z</time>
      </trkpt>
      <trkpt lat="46.47392" lon="-0.1166">
        <ele>179.5</ele>
        <time>2020-05-30T18:39:11Z</time>
      </trkpt>
      <trkpt lat="46.47392" lon="-0.11666">
        <ele>179.6</ele>
        <time>2020-05-30T18:39:12Z</time>
      </trkpt>
      <trkpt lat="46.47391" lon="-0.11674">
        <ele>179.7</ele>
        <time>2020-05-30T18:39:13Z</time>
      </trkpt>
      <trkpt lat="46.47392" lon="-0.1168">
        <ele>179.8</ele>
        <time>2020-05-30T18:39:14Z</time>
      </trkpt>
      <trkpt lat="46.47392" lon="-0.11686">
        <ele>179.9</ele>
        <time>2020-05-30T18:39:15Z</time>
      </trkpt>
      <trkpt lat="46.47393" lon="-0.11691">
        <ele>179.9</ele>
        <time>2020-05-30T18:39:16Z</time>
      </trkpt>
      <trkpt lat="46.47393" lon="-0.11698">
        <ele>180</ele>
        <time>2020-05-30T18:39:17Z</time>
      </trkpt>
      <trkpt lat="46.47393" lon="-0.11704">
        <ele>180.1</ele>
        <time>2020-05-30T18:39:18Z</time>
      </trkpt>
      <trkpt lat="46.47394" lon="-0.1171">
        <ele>180.2</ele>
        <time>2020-05-30T18:39:19Z</time>
      </trkpt>
      <trkpt lat="46.47393" lon="-0.11716">
        <ele>180.2</ele>
        <time>2020-05-30T18:39:20Z</time>
      </trkpt>
      <trkpt lat="46.47394" lon="-0.11722">
        <ele>180.3</ele>
        <time>2020-05-30T18:39:21Z</time>
      </trkpt>
      <trkpt lat="46.47394" lon="-0.11728">
        <ele>180.4</ele>
        <time>2020-05-30T18:39:22Z</time>
      </trkpt>
      <trkpt lat="46.47393" lon="-0.11735">
        <ele>180.4</ele>
        <time>2020-05-30T18:39:23Z</time>
      </trkpt>
      <trkpt lat="46.47393" lon="-0.11739">
        <ele>180.5</ele>
        <time>2020-05-30T18:39:24Z</time>
      </trkpt>
      <trkpt lat="46.47394" lon="-0.11744">
        <ele>180.6</ele>
        <time>2020-05-30T18:39:25Z</time>
      </trkpt>
      <trkpt lat="46.47393" lon="-0.11751">
        <ele>180.7</ele>
        <time>2020-05-30T18:39:26Z</time>
      </trkpt>
      <trkpt lat="46.47393" lon="-0.11757">
        <ele>180.8</ele>
        <time>2020-05-30T18:39:27Z</time>
      </trkpt>
      <trkpt lat="46.47393" lon="-0.11763">
        <ele>180.8</ele>
        <time>2020-05-30T18:39:28Z</time>
      </trkpt>
      <trkpt lat="46.47394" lon="-0.11768">
        <ele>180.9</ele>
        <time>2020-05-30T18:39:29Z</time>
      </trkpt>
      <trkpt lat="46.47394" lon="-0.11774">
        <ele>181</ele>
        <time>2020-05-30T18:39:30Z</time>
      </trkpt>
      <trkpt lat="46.47393" lon="-0.11781">
        <ele>181.1</ele>
        <time>2020-05-30T18:39:31Z</time>
      </trkpt>
      <trkpt lat="46.47394" lon="-0.11786">
        <ele>181.1</ele>
        <time>2020-05-30T18:39:32Z</time>
      </trkpt>
      <trkpt lat="46.47394" lon="-0.11792">
        <ele>181.2</ele>
        <time>2020-05-30T18:39:33Z</time>
      </trkpt>
      <trkpt lat="46.47395" lon="-0.11799">
        <ele>181.2</ele>
        <time>2020-05-30T18:39:34Z</time>
      </trkpt>
      <trkpt lat="46.47395" lon="-0.11803">
        <ele>181.2</ele>
        <time>2020-05-30T18:39:35Z</time>
      </trkpt>
      <trkpt lat="46.47394" lon="-0.1181">
        <ele>181.3</ele>
        <time>2020-05-30T18:39:36Z</time>
      </trkpt>
      <trkpt lat="46.47394" lon="-0.11816">
        <ele>181.4</ele>
        <time>2020-05-30T18:39:37Z</time>
      </trkpt>
      <trkpt lat="46.47394" lon="-0.11822">
        <ele>181.4</ele>
        <time>2020-05-30T18:39:38Z</time>
      </trkpt>
      <trkpt lat="46.47395" lon="-0.1183">
        <ele>181.5</ele>
        <time>2020-05-30T18:39:39Z</time>
      </trkpt>
      <trkpt lat="46.47395" lon="-0.11836">
        <ele>181.6</ele>
        <time>2020-05-30T18:39:40Z</time>
      </trkpt>
      <trkpt lat="46.47395" lon="-0.11842">
        <ele>181.7</ele>
        <time>2020-05-30T18:39:41Z</time>
      </trkpt>
      <trkpt lat="46.47395" lon="-0.1185">
        <ele>181.8</ele>
        <time>2020-05-30T18:39:42Z</time>
      </trkpt>
      <trkpt lat="46.47395" lon="-0.11854">
        <ele>181.8</ele>
        <time>2020-05-30T18:39:43Z</time>
      </trkpt>
      <trkpt lat="46.47395" lon="-0.1186">
        <ele>181.9</ele>
        <time>2020-05-30T18:39:44Z</time>
      </trkpt>
      <trkpt lat="46.47395" lon="-0.11864">
        <ele>181.9</ele>
        <time>2020-05-30T18:39:45Z</time>
      </trkpt>
      <trkpt lat="46.47394" lon="-0.11868">
        <ele>182</ele>
        <time>2020-05-30T18:39:46Z</time>
      </trkpt>
      <trkpt lat="46.47394" lon="-0.11875">
        <ele>182.1</ele>
        <time>2020-05-30T18:39:47Z</time>
      </trkpt>
      <trkpt lat="46.47394" lon="-0.1188">
        <ele>182.1</ele>
        <time>2020-05-30T18:39:48Z</time>
      </trkpt>
      <trkpt lat="46.47395" lon="-0.11885">
        <ele>182.2</ele>
        <time>2020-05-30T18:39:49Z</time>
      </trkpt>
      <trkpt lat="46.47395" lon="-0.11887">
        <ele>182.2</ele>
        <time>2020-05-30T18:39:50Z</time>
      </trkpt>
      <trkpt lat="46.47395" lon="-0.11892">
        <ele>182.3</ele>
        <time>2020-05-30T18:39:51Z</time>
      </trkpt>
      <trkpt lat="46.47395" lon="-0.11897">
        <ele>182.3</ele>
        <time>2020-05-30T18:39:52Z</time>
      </trkpt>
      <trkpt lat="46.47395" lon="-0.11903">
        <ele>182.4</ele>
        <time>2020-05-30T18:39:53Z</time>
      </trkpt>
      <trkpt lat="46.47395" lon="-0.11909">
        <ele>182.5</ele>
        <time>2020-05-30T18:39:54Z</time>
      </trkpt>
      <trkpt lat="46.47394" lon="-0.11916">
        <ele>182.6</ele>
        <time>2020-05-30T18:39:55Z</time>
      </trkpt>
      <trkpt lat="46.47395" lon="-0.1192">
        <ele>182.6</ele>
        <time>2020-05-30T18:39:56Z</time>
      </trkpt>
      <trkpt lat="46.47395" lon="-0.11926">
        <ele>182.7</ele>
        <time>2020-05-30T18:39:57Z</time>
      </trkpt>
      <trkpt lat="46.47396" lon="-0.11931">
        <ele>182.8</ele>
        <time>2020-05-30T18:39:58Z</time>
      </trkpt>
      <trkpt lat="46.47397" lon="-0.11937">
        <ele>182.8</ele>
        <time>2020-05-30T18:39:59Z</time>
      </trkpt>
      <trkpt lat="46.47397" lon="-0.11944">
        <ele>182.9</ele>
        <time>2020-05-30T18:40:00Z</time>
      </trkpt>
      <trkpt lat="46.47396" lon="-0.11952">
        <ele>183</ele>
        <time>2020-05-30T18:40:01Z</time>
      </trkpt>
      <trkpt lat="46.47396" lon="-0.11958">
        <ele>183</ele>
        <time>2020-05-30T18:40:02Z</time>
      </trkpt>
      <trkpt lat="46.47397" lon="-0.11963">
        <ele>183.1</ele>
        <time>2020-05-30T18:40:03Z</time>
      </trkpt>
      <trkpt lat="46.47396" lon="-0.11968">
        <ele>183.1</ele>
        <time>2020-05-30T18:40:04Z</time>
      </trkpt>
      <trkpt lat="46.47396" lon="-0.11974">
        <ele>183.2</ele>
        <time>2020-05-30T18:40:05Z</time>
      </trkpt>
      <trkpt lat="46.47396" lon="-0.1198">
        <ele>183.2</ele>
        <time>2020-05-30T18:40:06Z</time>
      </trkpt>
      <trkpt lat="46.47396" lon="-0.11985">
        <ele>183.2</ele>
        <time>2020-05-30T18:40:07Z</time>
      </trkpt>
      <trkpt lat="46.47396" lon="-0.11991">
        <ele>183.3</ele>
        <time>2020-05-30T18:40:08Z</time>
      </trkpt>
      <trkpt lat="46.47396" lon="-0.11996">
        <ele>183.3</ele>
        <time>2020-05-30T18:40:09Z</time>
      </trkpt>
      <trkpt lat="46.47396" lon="-0.12002">
        <ele>183.4</ele>
        <time>2020-05-30T18:40:10Z</time>
      </trkpt>
      <trkpt lat="46.47396" lon="-0.12011">
        <ele>183.4</ele>
        <time>2020-05-30T18:40:11Z</time>
      </trkpt>
      <trkpt lat="46.47396" lon="-0.12016">
        <ele>183.5</ele>
        <time>2020-05-30T18:40:12Z</time>
      </trkpt>
      <trkpt lat="46.47397" lon="-0.12022">
        <ele>183.5</ele>
        <time>2020-05-30T18:40:13Z</time>
      </trkpt>
      <trkpt lat="46.47398" lon="-0.12026">
        <ele>183.5</ele>
        <time>2020-05-30T18:40:14Z</time>
      </trkpt>
      <trkpt lat="46.47398" lon="-0.1203">
        <ele>183.5</ele>
        <time>2020-05-30T18:40:15Z</time>
      </trkpt>
      <trkpt lat="46.47398" lon="-0.12037">
        <ele>183.6</ele>
        <time>2020-05-30T18:40:16Z</time>
      </trkpt>
      <trkpt lat="46.47398" lon="-0.12043">
        <ele>183.6</ele>
        <time>2020-05-30T18:40:17Z</time>
      </trkpt>
      <trkpt lat="46.47398" lon="-0.12048">
        <ele>183.6</ele>
        <time>2020-05-30T18:40:18Z</time>
      </trkpt>
      <trkpt lat="46.47397" lon="-0.12055">
        <ele>183.6</ele>
        <time>2020-05-30T18:40:19Z</time>
      </trkpt>
      <trkpt lat="46.47397" lon="-0.12059">
        <ele>183.6</ele>
        <time>2020-05-30T18:40:20Z</time>
      </trkpt>
      <trkpt lat="46.47397" lon="-0.12064">
        <ele>183.6</ele>
        <time>2020-05-30T18:40:21Z</time>
      </trkpt>
      <trkpt lat="46.47397" lon="-0.12072">
        <ele>183.6</ele>
        <time>2020-05-30T18:40:22Z</time>
      </trkpt>
      <trkpt lat="46.47398" lon="-0.12079">
        <ele>183.6</ele>
        <time>2020-05-30T18:40:23Z</time>
      </trkpt>
      <trkpt lat="46.47397" lon="-0.12086">
        <ele>183.6</ele>
        <time>2020-05-30T18:40:24Z</time>
      </trkpt>
      <trkpt lat="46.47396" lon="-0.12092">
        <ele>183.6</ele>
        <time>2020-05-30T18:40:25Z</time>
      </trkpt>
      <trkpt lat="46.47396" lon="-0.12097">
        <ele>183.6</ele>
        <time>2020-05-30T18:40:26Z</time>
      </trkpt>
      <trkpt lat="46.47396" lon="-0.12102">
        <ele>183.6</ele>
        <time>2020-05-30T18:40:27Z</time>
      </trkpt>
      <trkpt lat="46.47396" lon="-0.12108">
        <ele>183.6</ele>
        <time>2020-05-30T18:40:28Z</time>
      </trkpt>
      <trkpt lat="46.47396" lon="-0.12114">
        <ele>183.6</ele>
        <time>2020-05-30T18:40:29Z</time>
      </trkpt>
      <trkpt lat="46.47396" lon="-0.1212">
        <ele>183.6</ele>
        <time>2020-05-30T18:40:30Z</time>
      </trkpt>
      <trkpt lat="46.47397" lon="-0.12125">
        <ele>183.6</ele>
        <time>2020-05-30T18:40:31Z</time>
      </trkpt>
      <trkpt lat="46.47397" lon="-0.1213">
        <ele>183.6</ele>
        <time>2020-05-30T18:40:32Z</time>
      </trkpt>
      <trkpt lat="46.47396" lon="-0.12137">
        <ele>183.6</ele>
        <time>2020-05-30T18:40:33Z</time>
      </trkpt>
      <trkpt lat="46.47397" lon="-0.12144">
        <ele>183.6</ele>
        <time>2020-05-30T18:40:34Z</time>
      </trkpt>
      <trkpt lat="46.47396" lon="-0.1215">
        <ele>183.6</ele>
        <time>2020-05-30T18:40:35Z</time>
      </trkpt>
      <trkpt lat="46.47395" lon="-0.12156">
        <ele>183.6</ele>
        <time>2020-05-30T18:40:36Z</time>
      </trkpt>
      <trkpt lat="46.47396" lon="-0.12165">
        <ele>183.6</ele>
        <time>2020-05-30T18:40:37Z</time>
      </trkpt>
      <trkpt lat="46.47396" lon="-0.12173">
        <ele>183.7</ele>
        <time>2020-05-30T18:40:38Z</time>
      </trkpt>
      <trkpt lat="46.47396" lon="-0.12179">
        <ele>183.7</ele>
        <time>2020-05-30T18:40:39Z</time>
      </trkpt>
      <trkpt lat="46.47396" lon="-0.12186">
        <ele>183.7</ele>
        <time>2020-05-30T18:40:40Z</time>
      </trkpt>
      <trkpt lat="46.47397" lon="-0.12192">
        <ele>183.7</ele>
        <time>2020-05-30T18:40:41Z</time>
      </trkpt>
      <trkpt lat="46.47397" lon="-0.12198">
        <ele>183.7</ele>
        <time>2020-05-30T18:40:42Z</time>
      </trkpt>
      <trkpt lat="46.47398" lon="-0.12206">
        <ele>183.7</ele>
        <time>2020-05-30T18:40:43Z</time>
      </trkpt>
      <trkpt lat="46.47398" lon="-0.12213">
        <ele>183.7</ele>
        <time>2020-05-30T18:40:44Z</time>
      </trkpt>
      <trkpt lat="46.47399" lon="-0.12219">
        <ele>183.7</ele>
        <time>2020-05-30T18:40:45Z</time>
      </trkpt>
      <trkpt lat="46.47399" lon="-0.12228">
        <ele>183.7</ele>
        <time>2020-05-30T18:40:46Z</time>
      </trkpt>
      <trkpt lat="46.47399" lon="-0.12234">
        <ele>183.7</ele>
        <time>2020-05-30T18:40:47Z</time>
      </trkpt>
      <trkpt lat="46.47399" lon="-0.12241">
        <ele>183.7</ele>
        <time>2020-05-30T18:40:48Z</time>
      </trkpt>
      <trkpt lat="46.47399" lon="-0.12248">
        <ele>183.7</ele>
        <time>2020-05-30T18:40:49Z</time>
      </trkpt>
      <trkpt lat="46.47398" lon="-0.12255">
        <ele>183.7</ele>
        <time>2020-05-30T18:40:50Z</time>
      </trkpt>
      <trkpt lat="46.474" lon="-0.12261">
        <ele>183.7</ele>
        <time>2020-05-30T18:40:51Z</time>
      </trkpt>
      <trkpt lat="46.47399" lon="-0.12268">
        <ele>183.7</ele>
        <time>2020-05-30T18:40:52Z</time>
      </trkpt>
      <trkpt lat="46.47399" lon="-0.12275">
        <ele>183.7</ele>
        <time>2020-05-30T18:40:53Z</time>
      </trkpt>
      <trkpt lat="46.47399" lon="-0.12281">
        <ele>183.7</ele>
        <time>2020-05-30T18:40:54Z</time>
      </trkpt>
      <trkpt lat="46.47399" lon="-0.12289">
        <ele>183.6</ele>
        <time>2020-05-30T18:40:55Z</time>
      </trkpt>
      <trkpt lat="46.47399" lon="-0.12296">
        <ele>183.6</ele>
        <time>2020-05-30T18:40:56Z</time>
      </trkpt>
      <trkpt lat="46.47398" lon="-0.12304">
        <ele>183.6</ele>
        <time>2020-05-30T18:40:57Z</time>
      </trkpt>
      <trkpt lat="46.47398" lon="-0.12311">
        <ele>183.5</ele>
        <time>2020-05-30T18:40:58Z</time>
      </trkpt>
      <trkpt lat="46.47399" lon="-0.12318">
        <ele>183.5</ele>
        <time>2020-05-30T18:40:59Z</time>
      </trkpt>
      <trkpt lat="46.47399" lon="-0.12325">
        <ele>183.5</ele>
        <time>2020-05-30T18:41:00Z</time>
      </trkpt>
      <trkpt lat="46.47399" lon="-0.12331">
        <ele>183.4</ele>
        <time>2020-05-30T18:41:01Z</time>
      </trkpt>
      <trkpt lat="46.47399" lon="-0.12337">
        <ele>183.4</ele>
        <time>2020-05-30T18:41:02Z</time>
      </trkpt>
      <trkpt lat="46.47398" lon="-0.12344">
        <ele>183.3</ele>
        <time>2020-05-30T18:41:03Z</time>
      </trkpt>
      <trkpt lat="46.47398" lon="-0.12351">
        <ele>183.2</ele>
        <time>2020-05-30T18:41:04Z</time>
      </trkpt>
      <trkpt lat="46.47398" lon="-0.12357">
        <ele>183.2</ele>
        <time>2020-05-30T18:41:05Z</time>
      </trkpt>
      <trkpt lat="46.47399" lon="-0.12363">
        <ele>183.1</ele>
        <time>2020-05-30T18:41:06Z</time>
      </trkpt>
      <trkpt lat="46.47399" lon="-0.12369">
        <ele>183</ele>
        <time>2020-05-30T18:41:07Z</time>
      </trkpt>
      <trkpt lat="46.47399" lon="-0.12376">
        <ele>183</ele>
        <time>2020-05-30T18:41:08Z</time>
      </trkpt>
      <trkpt lat="46.474" lon="-0.12382">
        <ele>182.9</ele>
        <time>2020-05-30T18:41:09Z</time>
      </trkpt>
      <trkpt lat="46.474" lon="-0.12388">
        <ele>182.8</ele>
        <time>2020-05-30T18:41:10Z</time>
      </trkpt>
      <trkpt lat="46.47399" lon="-0.12393">
        <ele>182.8</ele>
        <time>2020-05-30T18:41:11Z</time>
      </trkpt>
      <trkpt lat="46.474" lon="-0.12402">
        <ele>182.7</ele>
        <time>2020-05-30T18:41:12Z</time>
      </trkpt>
      <trkpt lat="46.474" lon="-0.12407">
        <ele>182.7</ele>
        <time>2020-05-30T18:41:13Z</time>
      </trkpt>
      <trkpt lat="46.47399" lon="-0.12413">
        <ele>182.7</ele>
        <time>2020-05-30T18:41:14Z</time>
      </trkpt>
      <trkpt lat="46.474" lon="-0.12421">
        <ele>182.6</ele>
        <time>2020-05-30T18:41:15Z</time>
      </trkpt>
      <trkpt lat="46.474" lon="-0.12428">
        <ele>182.6</ele>
        <time>2020-05-30T18:41:16Z</time>
      </trkpt>
      <trkpt lat="46.47401" lon="-0.12436">
        <ele>182.6</ele>
        <time>2020-05-30T18:41:17Z</time>
      </trkpt>
      <trkpt lat="46.47401" lon="-0.12445">
        <ele>182.5</ele>
        <time>2020-05-30T18:41:18Z</time>
      </trkpt>
      <trkpt lat="46.474" lon="-0.1245">
        <ele>182.5</ele>
        <time>2020-05-30T18:41:19Z</time>
      </trkpt>
      <trkpt lat="46.47399" lon="-0.12458">
        <ele>182.4</ele>
        <time>2020-05-30T18:41:20Z</time>
      </trkpt>
      <trkpt lat="46.47398" lon="-0.12464">
        <ele>182.3</ele>
        <time>2020-05-30T18:41:21Z</time>
      </trkpt>
      <trkpt lat="46.47396" lon="-0.12471">
        <ele>182.2</ele>
        <time>2020-05-30T18:41:22Z</time>
      </trkpt>
      <trkpt lat="46.47394" lon="-0.12477">
        <ele>182.1</ele>
        <time>2020-05-30T18:41:23Z</time>
      </trkpt>
      <trkpt lat="46.47393" lon="-0.12482">
        <ele>182.1</ele>
        <time>2020-05-30T18:41:24Z</time>
      </trkpt>
      <trkpt lat="46.47391" lon="-0.12489">
        <ele>181.9</ele>
        <time>2020-05-30T18:41:25Z</time>
      </trkpt>
      <trkpt lat="46.47388" lon="-0.12495">
        <ele>181.9</ele>
        <time>2020-05-30T18:41:26Z</time>
      </trkpt>
      <trkpt lat="46.47386" lon="-0.12501">
        <ele>181.8</ele>
        <time>2020-05-30T18:41:27Z</time>
      </trkpt>
      <trkpt lat="46.47384" lon="-0.12507">
        <ele>181.7</ele>
        <time>2020-05-30T18:41:28Z</time>
      </trkpt>
      <trkpt lat="46.47382" lon="-0.12514">
        <ele>181.7</ele>
        <time>2020-05-30T18:41:29Z</time>
      </trkpt>
      <trkpt lat="46.47379" lon="-0.12521">
        <ele>181.6</ele>
        <time>2020-05-30T18:41:30Z</time>
      </trkpt>
      <trkpt lat="46.47376" lon="-0.12527">
        <ele>181.6</ele>
        <time>2020-05-30T18:41:31Z</time>
      </trkpt>
      <trkpt lat="46.47373" lon="-0.12533">
        <ele>181.6</ele>
        <time>2020-05-30T18:41:32Z</time>
      </trkpt>
      <trkpt lat="46.47369" lon="-0.12539">
        <ele>181.5</ele>
        <time>2020-05-30T18:41:33Z</time>
      </trkpt>
      <trkpt lat="46.47366" lon="-0.12544">
        <ele>181.5</ele>
        <time>2020-05-30T18:41:34Z</time>
      </trkpt>
      <trkpt lat="46.47362" lon="-0.1255">
        <ele>181.4</ele>
        <time>2020-05-30T18:41:35Z</time>
      </trkpt>
      <trkpt lat="46.47358" lon="-0.12555">
        <ele>181.2</ele>
        <time>2020-05-30T18:41:36Z</time>
      </trkpt>
      <trkpt lat="46.47354" lon="-0.12559">
        <ele>181.1</ele>
        <time>2020-05-30T18:41:37Z</time>
      </trkpt>
      <trkpt lat="46.47349" lon="-0.12562">
        <ele>180.9</ele>
        <time>2020-05-30T18:41:38Z</time>
      </trkpt>
      <trkpt lat="46.47345" lon="-0.12568">
        <ele>180.8</ele>
        <time>2020-05-30T18:41:39Z</time>
      </trkpt>
      <trkpt lat="46.4734" lon="-0.12572">
        <ele>180.7</ele>
        <time>2020-05-30T18:41:40Z</time>
      </trkpt>
      <trkpt lat="46.47335" lon="-0.12575">
        <ele>180.6</ele>
        <time>2020-05-30T18:41:41Z</time>
      </trkpt>
      <trkpt lat="46.4733" lon="-0.12578">
        <ele>180.5</ele>
        <time>2020-05-30T18:41:42Z</time>
      </trkpt>
      <trkpt lat="46.47325" lon="-0.12582">
        <ele>180.5</ele>
        <time>2020-05-30T18:41:43Z</time>
      </trkpt>
      <trkpt lat="46.47321" lon="-0.12584">
        <ele>180.4</ele>
        <time>2020-05-30T18:41:44Z</time>
      </trkpt>
      <trkpt lat="46.47316" lon="-0.12587">
        <ele>180.4</ele>
        <time>2020-05-30T18:41:45Z</time>
      </trkpt>
      <trkpt lat="46.47311" lon="-0.12589">
        <ele>180.3</ele>
        <time>2020-05-30T18:41:46Z</time>
      </trkpt>
      <trkpt lat="46.47307" lon="-0.12594">
        <ele>180.2</ele>
        <time>2020-05-30T18:41:47Z</time>
      </trkpt>
      <trkpt lat="46.47302" lon="-0.12597">
        <ele>180.2</ele>
        <time>2020-05-30T18:41:48Z</time>
      </trkpt>
      <trkpt lat="46.47298" lon="-0.126">
        <ele>180.1</ele>
        <time>2020-05-30T18:41:49Z</time>
      </trkpt>
      <trkpt lat="46.47293" lon="-0.12602">
        <ele>180.1</ele>
        <time>2020-05-30T18:41:50Z</time>
      </trkpt>
      <trkpt lat="46.47288" lon="-0.12605">
        <ele>180</ele>
        <time>2020-05-30T18:41:51Z</time>
      </trkpt>
      <trkpt lat="46.47283" lon="-0.12608">
        <ele>180</ele>
        <time>2020-05-30T18:41:52Z</time>
      </trkpt>
      <trkpt lat="46.47278" lon="-0.12611">
        <ele>180</ele>
        <time>2020-05-30T18:41:53Z</time>
      </trkpt>
      <trkpt lat="46.47273" lon="-0.12614">
        <ele>180</ele>
        <time>2020-05-30T18:41:54Z</time>
      </trkpt>
      <trkpt lat="46.47268" lon="-0.12618">
        <ele>179.9</ele>
        <time>2020-05-30T18:41:55Z</time>
      </trkpt>
      <trkpt lat="46.47262" lon="-0.12622">
        <ele>180</ele>
        <time>2020-05-30T18:41:56Z</time>
      </trkpt>
      <trkpt lat="46.47257" lon="-0.12626">
        <ele>180</ele>
        <time>2020-05-30T18:41:57Z</time>
      </trkpt>
      <trkpt lat="46.47252" lon="-0.1263">
        <ele>180</ele>
        <time>2020-05-30T18:41:58Z</time>
      </trkpt>
      <trkpt lat="46.47247" lon="-0.12634">
        <ele>180</ele>
        <time>2020-05-30T18:41:59Z</time>
      </trkpt>
      <trkpt lat="46.47242" lon="-0.12637">
        <ele>180</ele>
        <time>2020-05-30T18:42:00Z</time>
      </trkpt>
      <trkpt lat="46.47238" lon="-0.12642">
        <ele>179.9</ele>
        <time>2020-05-30T18:42:01Z</time>
      </trkpt>
      <trkpt lat="46.47233" lon="-0.12644">
        <ele>179.9</ele>
        <time>2020-05-30T18:42:02Z</time>
      </trkpt>
      <trkpt lat="46.47228" lon="-0.12647">
        <ele>179.8</ele>
        <time>2020-05-30T18:42:03Z</time>
      </trkpt>
      <trkpt lat="46.47224" lon="-0.12649">
        <ele>179.7</ele>
        <time>2020-05-30T18:42:04Z</time>
      </trkpt>
      <trkpt lat="46.47219" lon="-0.12652">
        <ele>179.5</ele>
        <time>2020-05-30T18:42:05Z</time>
      </trkpt>
      <trkpt lat="46.47215" lon="-0.12655">
        <ele>179.4</ele>
        <time>2020-05-30T18:42:06Z</time>
      </trkpt>
      <trkpt lat="46.47211" lon="-0.12658">
        <ele>179.3</ele>
        <time>2020-05-30T18:42:07Z</time>
      </trkpt>
      <trkpt lat="46.47207" lon="-0.12662">
        <ele>179.2</ele>
        <time>2020-05-30T18:42:08Z</time>
      </trkpt>
      <trkpt lat="46.47203" lon="-0.12666">
        <ele>179.2</ele>
        <time>2020-05-30T18:42:09Z</time>
      </trkpt>
      <trkpt lat="46.47199" lon="-0.12669">
        <ele>179.1</ele>
        <time>2020-05-30T18:42:10Z</time>
      </trkpt>
      <trkpt lat="46.47193" lon="-0.12672">
        <ele>179.1</ele>
        <time>2020-05-30T18:42:11Z</time>
      </trkpt>
      <trkpt lat="46.4719" lon="-0.12676">
        <ele>179</ele>
        <time>2020-05-30T18:42:12Z</time>
      </trkpt>
      <trkpt lat="46.47186" lon="-0.12678">
        <ele>179</ele>
        <time>2020-05-30T18:42:13Z</time>
      </trkpt>
      <trkpt lat="46.47182" lon="-0.1268">
        <ele>178.9</ele>
        <time>2020-05-30T18:42:14Z</time>
      </trkpt>
      <trkpt lat="46.47178" lon="-0.12684">
        <ele>178.9</ele>
        <time>2020-05-30T18:42:15Z</time>
      </trkpt>
      <trkpt lat="46.47174" lon="-0.12687">
        <ele>178.8</ele>
        <time>2020-05-30T18:42:16Z</time>
      </trkpt>
      <trkpt lat="46.47169" lon="-0.12692">
        <ele>178.7</ele>
        <time>2020-05-30T18:42:17Z</time>
      </trkpt>
      <trkpt lat="46.47165" lon="-0.12696">
        <ele>178.7</ele>
        <time>2020-05-30T18:42:18Z</time>
      </trkpt>
      <trkpt lat="46.4716" lon="-0.12698">
        <ele>178.6</ele>
        <time>2020-05-30T18:42:19Z</time>
      </trkpt>
      <trkpt lat="46.47155" lon="-0.12702">
        <ele>178.5</ele>
        <time>2020-05-30T18:42:20Z</time>
      </trkpt>
      <trkpt lat="46.47151" lon="-0.12705">
        <ele>178.4</ele>
        <time>2020-05-30T18:42:21Z</time>
      </trkpt>
      <trkpt lat="46.47147" lon="-0.12708">
        <ele>178.3</ele>
        <time>2020-05-30T18:42:22Z</time>
      </trkpt>
      <trkpt lat="46.47143" lon="-0.12712">
        <ele>178.3</ele>
        <time>2020-05-30T18:42:23Z</time>
      </trkpt>
      <trkpt lat="46.4714" lon="-0.12715">
        <ele>178.3</ele>
        <time>2020-05-30T18:42:24Z</time>
      </trkpt>
      <trkpt lat="46.47136" lon="-0.12719">
        <ele>178.2</ele>
        <time>2020-05-30T18:42:25Z</time>
      </trkpt>
      <trkpt lat="46.47132" lon="-0.12723">
        <ele>178.2</ele>
        <time>2020-05-30T18:42:26Z</time>
      </trkpt>
      <trkpt lat="46.47128" lon="-0.12726">
        <ele>178.1</ele>
        <time>2020-05-30T18:42:27Z</time>
      </trkpt>
      <trkpt lat="46.47125" lon="-0.12729">
        <ele>178.1</ele>
        <time>2020-05-30T18:42:28Z</time>
      </trkpt>
      <trkpt lat="46.47122" lon="-0.12731">
        <ele>178.1</ele>
        <time>2020-05-30T18:42:29Z</time>
      </trkpt>
      <trkpt lat="46.47119" lon="-0.12733">
        <ele>178.1</ele>
        <time>2020-05-30T18:42:30Z</time>
      </trkpt>
      <trkpt lat="46.47115" lon="-0.12736">
        <ele>178</ele>
        <time>2020-05-30T18:42:31Z</time>
      </trkpt>
      <trkpt lat="46.47111" lon="-0.12738">
        <ele>178</ele>
        <time>2020-05-30T18:42:32Z</time>
      </trkpt>
      <trkpt lat="46.47106" lon="-0.1274">
        <ele>178</ele>
        <time>2020-05-30T18:42:33Z</time>
      </trkpt>
      <trkpt lat="46.47102" lon="-0.12743">
        <ele>178</ele>
        <time>2020-05-30T18:42:34Z</time>
      </trkpt>
      <trkpt lat="46.47099" lon="-0.12746">
        <ele>177.9</ele>
        <time>2020-05-30T18:42:35Z</time>
      </trkpt>
      <trkpt lat="46.47095" lon="-0.12748">
        <ele>177.9</ele>
        <time>2020-05-30T18:42:36Z</time>
      </trkpt>
      <trkpt lat="46.47092" lon="-0.1275">
        <ele>177.9</ele>
        <time>2020-05-30T18:42:37Z</time>
      </trkpt>
      <trkpt lat="46.47088" lon="-0.12752">
        <ele>177.9</ele>
        <time>2020-05-30T18:42:38Z</time>
      </trkpt>
      <trkpt lat="46.47084" lon="-0.12755">
        <ele>177.9</ele>
        <time>2020-05-30T18:42:39Z</time>
      </trkpt>
      <trkpt lat="46.4708" lon="-0.1276">
        <ele>177.9</ele>
        <time>2020-05-30T18:42:40Z</time>
      </trkpt>
      <trkpt lat="46.47077" lon="-0.12763">
        <ele>178</ele>
        <time>2020-05-30T18:42:41Z</time>
      </trkpt>
      <trkpt lat="46.47073" lon="-0.12765">
        <ele>178</ele>
        <time>2020-05-30T18:42:42Z</time>
      </trkpt>
      <trkpt lat="46.4707" lon="-0.12767">
        <ele>178</ele>
        <time>2020-05-30T18:42:43Z</time>
      </trkpt>
      <trkpt lat="46.47067" lon="-0.12769">
        <ele>178.1</ele>
        <time>2020-05-30T18:42:44Z</time>
      </trkpt>
      <trkpt lat="46.47063" lon="-0.12771">
        <ele>178.1</ele>
        <time>2020-05-30T18:42:45Z</time>
      </trkpt>
      <trkpt lat="46.4706" lon="-0.12774">
        <ele>178.1</ele>
        <time>2020-05-30T18:42:46Z</time>
      </trkpt>
      <trkpt lat="46.47058" lon="-0.12777">
        <ele>178.2</ele>
        <time>2020-05-30T18:42:47Z</time>
      </trkpt>
      <trkpt lat="46.47054" lon="-0.12779">
        <ele>178.2</ele>
        <time>2020-05-30T18:42:48Z</time>
      </trkpt>
      <trkpt lat="46.47052" lon="-0.1278">
        <ele>178.2</ele>
        <time>2020-05-30T18:42:49Z</time>
      </trkpt>
      <trkpt lat="46.47049" lon="-0.12783">
        <ele>178.2</ele>
        <time>2020-05-30T18:42:50Z</time>
      </trkpt>
      <trkpt lat="46.47047" lon="-0.12788">
        <ele>178.3</ele>
        <time>2020-05-30T18:42:51Z</time>
      </trkpt>
      <trkpt lat="46.47045" lon="-0.12789">
        <ele>178.3</ele>
        <time>2020-05-30T18:42:52Z</time>
      </trkpt>
      <trkpt lat="46.47042" lon="-0.1279">
        <ele>178.3</ele>
        <time>2020-05-30T18:42:53Z</time>
      </trkpt>
      <trkpt lat="46.47039" lon="-0.12793">
        <ele>178.3</ele>
        <time>2020-05-30T18:42:54Z</time>
      </trkpt>
      <trkpt lat="46.47036" lon="-0.12794">
        <ele>178.3</ele>
        <time>2020-05-30T18:42:55Z</time>
      </trkpt>
      <trkpt lat="46.47033" lon="-0.12798">
        <ele>178.3</ele>
        <time>2020-05-30T18:42:56Z</time>
      </trkpt>
      <trkpt lat="46.4703" lon="-0.12799">
        <ele>178.3</ele>
        <time>2020-05-30T18:42:57Z</time>
      </trkpt>
      <trkpt lat="46.47027" lon="-0.12801">
        <ele>178.3</ele>
        <time>2020-05-30T18:42:58Z</time>
      </trkpt>
      <trkpt lat="46.47025" lon="-0.12804">
        <ele>178.3</ele>
        <time>2020-05-30T18:42:59Z</time>
      </trkpt>
      <trkpt lat="46.47021" lon="-0.12808">
        <ele>178.3</ele>
        <time>2020-05-30T18:43:00Z</time>
      </trkpt>
      <trkpt lat="46.47019" lon="-0.1281">
        <ele>178.3</ele>
        <time>2020-05-30T18:43:01Z</time>
      </trkpt>
      <trkpt lat="46.47015" lon="-0.12812">
        <ele>178.3</ele>
        <time>2020-05-30T18:43:02Z</time>
      </trkpt>
      <trkpt lat="46.47011" lon="-0.12816">
        <ele>178.4</ele>
        <time>2020-05-30T18:43:03Z</time>
      </trkpt>
      <trkpt lat="46.47008" lon="-0.12818">
        <ele>178.4</ele>
        <time>2020-05-30T18:43:04Z</time>
      </trkpt>
      <trkpt lat="46.47005" lon="-0.1282">
        <ele>178.4</ele>
        <time>2020-05-30T18:43:05Z</time>
      </trkpt>
      <trkpt lat="46.47002" lon="-0.12821">
        <ele>178.5</ele>
        <time>2020-05-30T18:43:06Z</time>
      </trkpt>
      <trkpt lat="46.46999" lon="-0.12824">
        <ele>178.5</ele>
        <time>2020-05-30T18:43:07Z</time>
      </trkpt>
      <trkpt lat="46.46997" lon="-0.12827">
        <ele>178.5</ele>
        <time>2020-05-30T18:43:08Z</time>
      </trkpt>
      <trkpt lat="46.46994" lon="-0.12829">
        <ele>178.6</ele>
        <time>2020-05-30T18:43:09Z</time>
      </trkpt>
      <trkpt lat="46.46991" lon="-0.12832">
        <ele>178.6</ele>
        <time>2020-05-30T18:43:10Z</time>
      </trkpt>
      <trkpt lat="46.46988" lon="-0.12835">
        <ele>178.7</ele>
        <time>2020-05-30T18:43:11Z</time>
      </trkpt>
      <trkpt lat="46.46985" lon="-0.12837">
        <ele>178.7</ele>
        <time>2020-05-30T18:43:12Z</time>
      </trkpt>
      <trkpt lat="46.46983" lon="-0.12839">
        <ele>178.7</ele>
        <time>2020-05-30T18:43:13Z</time>
      </trkpt>
      <trkpt lat="46.4698" lon="-0.12841">
        <ele>178.8</ele>
        <time>2020-05-30T18:43:14Z</time>
      </trkpt>
      <trkpt lat="46.46977" lon="-0.12844">
        <ele>178.8</ele>
        <time>2020-05-30T18:43:15Z</time>
      </trkpt>
      <trkpt lat="46.46973" lon="-0.12847">
        <ele>178.8</ele>
        <time>2020-05-30T18:43:16Z</time>
      </trkpt>
      <trkpt lat="46.4697" lon="-0.1285">
        <ele>178.9</ele>
        <time>2020-05-30T18:43:17Z</time>
      </trkpt>
      <trkpt lat="46.46966" lon="-0.12854">
        <ele>178.9</ele>
        <time>2020-05-30T18:43:18Z</time>
      </trkpt>
      <trkpt lat="46.46963" lon="-0.12858">
        <ele>178.9</ele>
        <time>2020-05-30T18:43:19Z</time>
      </trkpt>
      <trkpt lat="46.4696" lon="-0.12861">
        <ele>178.9</ele>
        <time>2020-05-30T18:43:20Z</time>
      </trkpt>
      <trkpt lat="46.46956" lon="-0.12864">
        <ele>178.9</ele>
        <time>2020-05-30T18:43:21Z</time>
      </trkpt>
      <trkpt lat="46.46953" lon="-0.12867">
        <ele>179</ele>
        <time>2020-05-30T18:43:22Z</time>
      </trkpt>
      <trkpt lat="46.46949" lon="-0.1287">
        <ele>178.9</ele>
        <time>2020-05-30T18:43:23Z</time>
      </trkpt>
      <trkpt lat="46.46946" lon="-0.12873">
        <ele>178.9</ele>
        <time>2020-05-30T18:43:24Z</time>
      </trkpt>
      <trkpt lat="46.46943" lon="-0.12875">
        <ele>178.9</ele>
        <time>2020-05-30T18:43:25Z</time>
      </trkpt>
      <trkpt lat="46.4694" lon="-0.12879">
        <ele>178.9</ele>
        <time>2020-05-30T18:43:26Z</time>
      </trkpt>
      <trkpt lat="46.46937" lon="-0.12882">
        <ele>178.9</ele>
        <time>2020-05-30T18:43:27Z</time>
      </trkpt>
      <trkpt lat="46.46934" lon="-0.12885">
        <ele>179</ele>
        <time>2020-05-30T18:43:28Z</time>
      </trkpt>
      <trkpt lat="46.46931" lon="-0.12888">
        <ele>179</ele>
        <time>2020-05-30T18:43:29Z</time>
      </trkpt>
      <trkpt lat="46.46928" lon="-0.12891">
        <ele>179</ele>
        <time>2020-05-30T18:43:30Z</time>
      </trkpt>
      <trkpt lat="46.46924" lon="-0.12893">
        <ele>179</ele>
        <time>2020-05-30T18:43:31Z</time>
      </trkpt>
      <trkpt lat="46.4692" lon="-0.12895">
        <ele>179</ele>
        <time>2020-05-30T18:43:32Z</time>
      </trkpt>
      <trkpt lat="46.46917" lon="-0.12898">
        <ele>179</ele>
        <time>2020-05-30T18:43:33Z</time>
      </trkpt>
      <trkpt lat="46.46915" lon="-0.12899">
        <ele>179</ele>
        <time>2020-05-30T18:43:34Z</time>
      </trkpt>
      <trkpt lat="46.46911" lon="-0.12903">
        <ele>179.1</ele>
        <time>2020-05-30T18:43:35Z</time>
      </trkpt>
      <trkpt lat="46.46908" lon="-0.12905">
        <ele>179.1</ele>
        <time>2020-05-30T18:43:36Z</time>
      </trkpt>
      <trkpt lat="46.46905" lon="-0.12907">
        <ele>179.1</ele>
        <time>2020-05-30T18:43:37Z</time>
      </trkpt>
      <trkpt lat="46.46902" lon="-0.12912">
        <ele>179</ele>
        <time>2020-05-30T18:43:38Z</time>
      </trkpt>
      <trkpt lat="46.46898" lon="-0.12914">
        <ele>179</ele>
        <time>2020-05-30T18:43:39Z</time>
      </trkpt>
      <trkpt lat="46.46894" lon="-0.12919">
        <ele>179</ele>
        <time>2020-05-30T18:43:40Z</time>
      </trkpt>
      <trkpt lat="46.4689" lon="-0.12923">
        <ele>179</ele>
        <time>2020-05-30T18:43:41Z</time>
      </trkpt>
      <trkpt lat="46.46887" lon="-0.12927">
        <ele>179</ele>
        <time>2020-05-30T18:43:42Z</time>
      </trkpt>
      <trkpt lat="46.46883" lon="-0.1293">
        <ele>179</ele>
        <time>2020-05-30T18:43:43Z</time>
      </trkpt>
      <trkpt lat="46.46879" lon="-0.12934">
        <ele>178.9</ele>
        <time>2020-05-30T18:43:44Z</time>
      </trkpt>
      <trkpt lat="46.46875" lon="-0.12937">
        <ele>178.9</ele>
        <time>2020-05-30T18:43:45Z</time>
      </trkpt>
      <trkpt lat="46.46872" lon="-0.12939">
        <ele>178.9</ele>
        <time>2020-05-30T18:43:46Z</time>
      </trkpt>
      <trkpt lat="46.46868" lon="-0.12942">
        <ele>178.8</ele>
        <time>2020-05-30T18:43:47Z</time>
      </trkpt>
      <trkpt lat="46.46865" lon="-0.12945">
        <ele>178.8</ele>
        <time>2020-05-30T18:43:48Z</time>
      </trkpt>
      <trkpt lat="46.46862" lon="-0.12949">
        <ele>178.7</ele>
        <time>2020-05-30T18:43:49Z</time>
      </trkpt>
      <trkpt lat="46.46858" lon="-0.12952">
        <ele>178.6</ele>
        <time>2020-05-30T18:43:50Z</time>
      </trkpt>
      <trkpt lat="46.46854" lon="-0.12955">
        <ele>178.5</ele>
        <time>2020-05-30T18:43:51Z</time>
      </trkpt>
      <trkpt lat="46.46851" lon="-0.12959">
        <ele>178.4</ele>
        <time>2020-05-30T18:43:52Z</time>
      </trkpt>
      <trkpt lat="46.46847" lon="-0.12961">
        <ele>178.2</ele>
        <time>2020-05-30T18:43:53Z</time>
      </trkpt>
      <trkpt lat="46.46843" lon="-0.12965">
        <ele>178.1</ele>
        <time>2020-05-30T18:43:54Z</time>
      </trkpt>
      <trkpt lat="46.4684" lon="-0.12968">
        <ele>178</ele>
        <time>2020-05-30T18:43:55Z</time>
      </trkpt>
      <trkpt lat="46.46836" lon="-0.12972">
        <ele>177.8</ele>
        <time>2020-05-30T18:43:56Z</time>
      </trkpt>
      <trkpt lat="46.46831" lon="-0.12976">
        <ele>177.6</ele>
        <time>2020-05-30T18:43:57Z</time>
      </trkpt>
      <trkpt lat="46.46827" lon="-0.1298">
        <ele>177.5</ele>
        <time>2020-05-30T18:43:58Z</time>
      </trkpt>
      <trkpt lat="46.46823" lon="-0.12984">
        <ele>177.3</ele>
        <time>2020-05-30T18:43:59Z</time>
      </trkpt>
      <trkpt lat="46.46818" lon="-0.12988">
        <ele>177.1</ele>
        <time>2020-05-30T18:44:00Z</time>
      </trkpt>
      <trkpt lat="46.46814" lon="-0.12992">
        <ele>176.9</ele>
        <time>2020-05-30T18:44:01Z</time>
      </trkpt>
      <trkpt lat="46.46809" lon="-0.12996">
        <ele>176.7</ele>
        <time>2020-05-30T18:44:02Z</time>
      </trkpt>
      <trkpt lat="46.46803" lon="-0.12999">
        <ele>176.5</ele>
        <time>2020-05-30T18:44:03Z</time>
      </trkpt>
      <trkpt lat="46.468" lon="-0.13004">
        <ele>176.3</ele>
        <time>2020-05-30T18:44:04Z</time>
      </trkpt>
      <trkpt lat="46.46796" lon="-0.13008">
        <ele>176.1</ele>
        <time>2020-05-30T18:44:05Z</time>
      </trkpt>
      <trkpt lat="46.46791" lon="-0.13011">
        <ele>176</ele>
        <time>2020-05-30T18:44:06Z</time>
      </trkpt>
      <trkpt lat="46.46787" lon="-0.13014">
        <ele>175.8</ele>
        <time>2020-05-30T18:44:07Z</time>
      </trkpt>
      <trkpt lat="46.46782" lon="-0.13018">
        <ele>175.7</ele>
        <time>2020-05-30T18:44:08Z</time>
      </trkpt>
      <trkpt lat="46.46777" lon="-0.13023">
        <ele>175.5</ele>
        <time>2020-05-30T18:44:09Z</time>
      </trkpt>
      <trkpt lat="46.46772" lon="-0.13029">
        <ele>175.3</ele>
        <time>2020-05-30T18:44:10Z</time>
      </trkpt>
      <trkpt lat="46.46766" lon="-0.13034">
        <ele>175.2</ele>
        <time>2020-05-30T18:44:11Z</time>
      </trkpt>
      <trkpt lat="46.46762" lon="-0.1304">
        <ele>175</ele>
        <time>2020-05-30T18:44:12Z</time>
      </trkpt>
      <trkpt lat="46.46756" lon="-0.13044">
        <ele>174.9</ele>
        <time>2020-05-30T18:44:13Z</time>
      </trkpt>
      <trkpt lat="46.46751" lon="-0.13049">
        <ele>174.8</ele>
        <time>2020-05-30T18:44:14Z</time>
      </trkpt>
      <trkpt lat="46.46746" lon="-0.13053">
        <ele>174.7</ele>
        <time>2020-05-30T18:44:15Z</time>
      </trkpt>
      <trkpt lat="46.4674" lon="-0.13056">
        <ele>174.6</ele>
        <time>2020-05-30T18:44:16Z</time>
      </trkpt>
      <trkpt lat="46.46735" lon="-0.13061">
        <ele>174.5</ele>
        <time>2020-05-30T18:44:17Z</time>
      </trkpt>
      <trkpt lat="46.4673" lon="-0.13066">
        <ele>174.4</ele>
        <time>2020-05-30T18:44:18Z</time>
      </trkpt>
      <trkpt lat="46.46725" lon="-0.13071">
        <ele>174.3</ele>
        <time>2020-05-30T18:44:19Z</time>
      </trkpt>
      <trkpt lat="46.4672" lon="-0.13075">
        <ele>174.3</ele>
        <time>2020-05-30T18:44:20Z</time>
      </trkpt>
      <trkpt lat="46.46715" lon="-0.1308">
        <ele>174.2</ele>
        <time>2020-05-30T18:44:21Z</time>
      </trkpt>
      <trkpt lat="46.4671" lon="-0.13083">
        <ele>174.1</ele>
        <time>2020-05-30T18:44:22Z</time>
      </trkpt>
      <trkpt lat="46.46705" lon="-0.13087">
        <ele>174.1</ele>
        <time>2020-05-30T18:44:23Z</time>
      </trkpt>
      <trkpt lat="46.46699" lon="-0.13092">
        <ele>174</ele>
        <time>2020-05-30T18:44:24Z</time>
      </trkpt>
      <trkpt lat="46.46693" lon="-0.13096">
        <ele>174</ele>
        <time>2020-05-30T18:44:25Z</time>
      </trkpt>
      <trkpt lat="46.46688" lon="-0.13099">
        <ele>174</ele>
        <time>2020-05-30T18:44:26Z</time>
      </trkpt>
      <trkpt lat="46.46684" lon="-0.13102">
        <ele>174</ele>
        <time>2020-05-30T18:44:27Z</time>
      </trkpt>
      <trkpt lat="46.46679" lon="-0.13104">
        <ele>174</ele>
        <time>2020-05-30T18:44:28Z</time>
      </trkpt>
      <trkpt lat="46.46673" lon="-0.13107">
        <ele>174</ele>
        <time>2020-05-30T18:44:29Z</time>
      </trkpt>
      <trkpt lat="46.46667" lon="-0.13109">
        <ele>174</ele>
        <time>2020-05-30T18:44:30Z</time>
      </trkpt>
      <trkpt lat="46.46662" lon="-0.13112">
        <ele>174.1</ele>
        <time>2020-05-30T18:44:31Z</time>
      </trkpt>
      <trkpt lat="46.46658" lon="-0.13114">
        <ele>174.1</ele>
        <time>2020-05-30T18:44:32Z</time>
      </trkpt>
      <trkpt lat="46.46653" lon="-0.13116">
        <ele>174.2</ele>
        <time>2020-05-30T18:44:33Z</time>
      </trkpt>
      <trkpt lat="46.46649" lon="-0.13119">
        <ele>174.3</ele>
        <time>2020-05-30T18:44:34Z</time>
      </trkpt>
      <trkpt lat="46.46644" lon="-0.13122">
        <ele>174.4</ele>
        <time>2020-05-30T18:44:35Z</time>
      </trkpt>
      <trkpt lat="46.46639" lon="-0.13125">
        <ele>174.4</ele>
        <time>2020-05-30T18:44:36Z</time>
      </trkpt>
      <trkpt lat="46.46635" lon="-0.13126">
        <ele>174.5</ele>
        <time>2020-05-30T18:44:37Z</time>
      </trkpt>
      <trkpt lat="46.46632" lon="-0.1313">
        <ele>174.6</ele>
        <time>2020-05-30T18:44:38Z</time>
      </trkpt>
      <trkpt lat="46.46627" lon="-0.13135">
        <ele>174.7</ele>
        <time>2020-05-30T18:44:39Z</time>
      </trkpt>
      <trkpt lat="46.46622" lon="-0.13139">
        <ele>174.8</ele>
        <time>2020-05-30T18:44:40Z</time>
      </trkpt>
      <trkpt lat="46.46616" lon="-0.13142">
        <ele>174.9</ele>
        <time>2020-05-30T18:44:41Z</time>
      </trkpt>
      <trkpt lat="46.46613" lon="-0.13145">
        <ele>174.9</ele>
        <time>2020-05-30T18:44:42Z</time>
      </trkpt>
      <trkpt lat="46.46609" lon="-0.13147">
        <ele>175</ele>
        <time>2020-05-30T18:44:43Z</time>
      </trkpt>
      <trkpt lat="46.46606" lon="-0.1315">
        <ele>175</ele>
        <time>2020-05-30T18:44:44Z</time>
      </trkpt>
      <trkpt lat="46.46602" lon="-0.13154">
        <ele>175.1</ele>
        <time>2020-05-30T18:44:45Z</time>
      </trkpt>
      <trkpt lat="46.46598" lon="-0.13157">
        <ele>175.1</ele>
        <time>2020-05-30T18:44:46Z</time>
      </trkpt>
      <trkpt lat="46.46594" lon="-0.1316">
        <ele>175.2</ele>
        <time>2020-05-30T18:44:47Z</time>
      </trkpt>
      <trkpt lat="46.4659" lon="-0.13164">
        <ele>175.3</ele>
        <time>2020-05-30T18:44:48Z</time>
      </trkpt>
      <trkpt lat="46.46587" lon="-0.13167">
        <ele>175.3</ele>
        <time>2020-05-30T18:44:49Z</time>
      </trkpt>
      <trkpt lat="46.46583" lon="-0.13171">
        <ele>175.4</ele>
        <time>2020-05-30T18:44:50Z</time>
      </trkpt>
      <trkpt lat="46.46578" lon="-0.13174">
        <ele>175.5</ele>
        <time>2020-05-30T18:44:51Z</time>
      </trkpt>
      <trkpt lat="46.46575" lon="-0.13176">
        <ele>175.6</ele>
        <time>2020-05-30T18:44:52Z</time>
      </trkpt>
      <trkpt lat="46.46572" lon="-0.1318">
        <ele>175.6</ele>
        <time>2020-05-30T18:44:53Z</time>
      </trkpt>
      <trkpt lat="46.46568" lon="-0.13183">
        <ele>175.7</ele>
        <time>2020-05-30T18:44:54Z</time>
      </trkpt>
      <trkpt lat="46.46565" lon="-0.13187">
        <ele>175.8</ele>
        <time>2020-05-30T18:44:55Z</time>
      </trkpt>
      <trkpt lat="46.46561" lon="-0.13191">
        <ele>175.9</ele>
        <time>2020-05-30T18:44:56Z</time>
      </trkpt>
      <trkpt lat="46.46558" lon="-0.13194">
        <ele>176</ele>
        <time>2020-05-30T18:44:57Z</time>
      </trkpt>
      <trkpt lat="46.46555" lon="-0.13199">
        <ele>176.1</ele>
        <time>2020-05-30T18:44:58Z</time>
      </trkpt>
      <trkpt lat="46.46553" lon="-0.13203">
        <ele>176.2</ele>
        <time>2020-05-30T18:44:59Z</time>
      </trkpt>
      <trkpt lat="46.4655" lon="-0.13205">
        <ele>176.3</ele>
        <time>2020-05-30T18:45:00Z</time>
      </trkpt>
      <trkpt lat="46.46546" lon="-0.13208">
        <ele>176.4</ele>
        <time>2020-05-30T18:45:01Z</time>
      </trkpt>
      <trkpt lat="46.46541" lon="-0.13215">
        <ele>176.5</ele>
        <time>2020-05-30T18:45:02Z</time>
      </trkpt>
      <trkpt lat="46.46539" lon="-0.13218">
        <ele>176.6</ele>
        <time>2020-05-30T18:45:03Z</time>
      </trkpt>
      <trkpt lat="46.46536" lon="-0.13222">
        <ele>176.6</ele>
        <time>2020-05-30T18:45:04Z</time>
      </trkpt>
      <trkpt lat="46.46534" lon="-0.13225">
        <ele>176.7</ele>
        <time>2020-05-30T18:45:05Z</time>
      </trkpt>
      <trkpt lat="46.46531" lon="-0.13228">
        <ele>176.7</ele>
        <time>2020-05-30T18:45:06Z</time>
      </trkpt>
      <trkpt lat="46.46527" lon="-0.13231">
        <ele>176.8</ele>
        <time>2020-05-30T18:45:07Z</time>
      </trkpt>
      <trkpt lat="46.46524" lon="-0.13234">
        <ele>176.9</ele>
        <time>2020-05-30T18:45:08Z</time>
      </trkpt>
      <trkpt lat="46.4652" lon="-0.13238">
        <ele>176.9</ele>
        <time>2020-05-30T18:45:09Z</time>
      </trkpt>
      <trkpt lat="46.46518" lon="-0.13242">
        <ele>177</ele>
        <time>2020-05-30T18:45:10Z</time>
      </trkpt>
      <trkpt lat="46.46515" lon="-0.13245">
        <ele>177</ele>
        <time>2020-05-30T18:45:11Z</time>
      </trkpt>
      <trkpt lat="46.46513" lon="-0.1325">
        <ele>177.1</ele>
        <time>2020-05-30T18:45:12Z</time>
      </trkpt>
      <trkpt lat="46.4651" lon="-0.13253">
        <ele>177.1</ele>
        <time>2020-05-30T18:45:13Z</time>
      </trkpt>
      <trkpt lat="46.46507" lon="-0.13257">
        <ele>177.2</ele>
        <time>2020-05-30T18:45:14Z</time>
      </trkpt>
      <trkpt lat="46.46504" lon="-0.13261">
        <ele>177.3</ele>
        <time>2020-05-30T18:45:15Z</time>
      </trkpt>
      <trkpt lat="46.46502" lon="-0.13266">
        <ele>177.3</ele>
        <time>2020-05-30T18:45:16Z</time>
      </trkpt>
      <trkpt lat="46.46498" lon="-0.1327">
        <ele>177.4</ele>
        <time>2020-05-30T18:45:17Z</time>
      </trkpt>
      <trkpt lat="46.46495" lon="-0.13274">
        <ele>177.5</ele>
        <time>2020-05-30T18:45:18Z</time>
      </trkpt>
      <trkpt lat="46.46492" lon="-0.13279">
        <ele>177.6</ele>
        <time>2020-05-30T18:45:19Z</time>
      </trkpt>
      <trkpt lat="46.46489" lon="-0.13284">
        <ele>177.7</ele>
        <time>2020-05-30T18:45:20Z</time>
      </trkpt>
      <trkpt lat="46.46486" lon="-0.13288">
        <ele>177.7</ele>
        <time>2020-05-30T18:45:21Z</time>
      </trkpt>
      <trkpt lat="46.46483" lon="-0.13292">
        <ele>177.8</ele>
        <time>2020-05-30T18:45:22Z</time>
      </trkpt>
      <trkpt lat="46.46481" lon="-0.13297">
        <ele>177.9</ele>
        <time>2020-05-30T18:45:23Z</time>
      </trkpt>
      <trkpt lat="46.46478" lon="-0.13301">
        <ele>178</ele>
        <time>2020-05-30T18:45:24Z</time>
      </trkpt>
      <trkpt lat="46.46476" lon="-0.13305">
        <ele>178.1</ele>
        <time>2020-05-30T18:45:25Z</time>
      </trkpt>
      <trkpt lat="46.46472" lon="-0.13311">
        <ele>178.2</ele>
        <time>2020-05-30T18:45:26Z</time>
      </trkpt>
      <trkpt lat="46.4647" lon="-0.13315">
        <ele>178.2</ele>
        <time>2020-05-30T18:45:27Z</time>
      </trkpt>
      <trkpt lat="46.46467" lon="-0.13319">
        <ele>178.3</ele>
        <time>2020-05-30T18:45:28Z</time>
      </trkpt>
      <trkpt lat="46.46465" lon="-0.13325">
        <ele>178.4</ele>
        <time>2020-05-30T18:45:29Z</time>
      </trkpt>
      <trkpt lat="46.46462" lon="-0.13329">
        <ele>178.5</ele>
        <time>2020-05-30T18:45:30Z</time>
      </trkpt>
      <trkpt lat="46.4646" lon="-0.13336">
        <ele>178.6</ele>
        <time>2020-05-30T18:45:31Z</time>
      </trkpt>
      <trkpt lat="46.46458" lon="-0.13341">
        <ele>178.6</ele>
        <time>2020-05-30T18:45:32Z</time>
      </trkpt>
      <trkpt lat="46.46455" lon="-0.13346">
        <ele>178.7</ele>
        <time>2020-05-30T18:45:33Z</time>
      </trkpt>
      <trkpt lat="46.46454" lon="-0.13351">
        <ele>178.8</ele>
        <time>2020-05-30T18:45:34Z</time>
      </trkpt>
      <trkpt lat="46.46451" lon="-0.13356">
        <ele>178.8</ele>
        <time>2020-05-30T18:45:35Z</time>
      </trkpt>
      <trkpt lat="46.46449" lon="-0.13361">
        <ele>178.9</ele>
        <time>2020-05-30T18:45:36Z</time>
      </trkpt>
      <trkpt lat="46.46447" lon="-0.13364">
        <ele>178.9</ele>
        <time>2020-05-30T18:45:37Z</time>
      </trkpt>
      <trkpt lat="46.46444" lon="-0.13369">
        <ele>179</ele>
        <time>2020-05-30T18:45:38Z</time>
      </trkpt>
      <trkpt lat="46.46443" lon="-0.13371">
        <ele>179</ele>
        <time>2020-05-30T18:45:39Z</time>
      </trkpt>
      <trkpt lat="46.46441" lon="-0.13375">
        <ele>179.1</ele>
        <time>2020-05-30T18:45:40Z</time>
      </trkpt>
      <trkpt lat="46.46439" lon="-0.13379">
        <ele>179.2</ele>
        <time>2020-05-30T18:45:41Z</time>
      </trkpt>
      <trkpt lat="46.46437" lon="-0.13382">
        <ele>179.2</ele>
        <time>2020-05-30T18:45:42Z</time>
      </trkpt>
      <trkpt lat="46.46436" lon="-0.13385">
        <ele>179.3</ele>
        <time>2020-05-30T18:45:43Z</time>
      </trkpt>
      <trkpt lat="46.46435" lon="-0.1339">
        <ele>179.3</ele>
        <time>2020-05-30T18:45:44Z</time>
      </trkpt>
      <trkpt lat="46.46433" lon="-0.13394">
        <ele>179.4</ele>
        <time>2020-05-30T18:45:45Z</time>
      </trkpt>
      <trkpt lat="46.46431" lon="-0.13398">
        <ele>179.4</ele>
        <time>2020-05-30T18:45:46Z</time>
      </trkpt>
      <trkpt lat="46.46429" lon="-0.13401">
        <ele>179.5</ele>
        <time>2020-05-30T18:45:47Z</time>
      </trkpt>
      <trkpt lat="46.46428" lon="-0.13403">
        <ele>179.5</ele>
        <time>2020-05-30T18:45:48Z</time>
      </trkpt>
      <trkpt lat="46.46426" lon="-0.13406">
        <ele>179.6</ele>
        <time>2020-05-30T18:45:49Z</time>
      </trkpt>
      <trkpt lat="46.46424" lon="-0.1341">
        <ele>179.6</ele>
        <time>2020-05-30T18:45:50Z</time>
      </trkpt>
      <trkpt lat="46.46423" lon="-0.13414">
        <ele>179.6</ele>
        <time>2020-05-30T18:45:51Z</time>
      </trkpt>
      <trkpt lat="46.46421" lon="-0.13417">
        <ele>179.7</ele>
        <time>2020-05-30T18:45:52Z</time>
      </trkpt>
      <trkpt lat="46.46419" lon="-0.13421">
        <ele>179.7</ele>
        <time>2020-05-30T18:45:53Z</time>
      </trkpt>
      <trkpt lat="46.46416" lon="-0.13425">
        <ele>179.8</ele>
        <time>2020-05-30T18:45:54Z</time>
      </trkpt>
      <trkpt lat="46.46415" lon="-0.13427">
        <ele>179.8</ele>
        <time>2020-05-30T18:45:55Z</time>
      </trkpt>
      <trkpt lat="46.46413" lon="-0.1343">
        <ele>179.8</ele>
        <time>2020-05-30T18:45:56Z</time>
      </trkpt>
      <trkpt lat="46.46411" lon="-0.13436">
        <ele>179.8</ele>
        <time>2020-05-30T18:45:57Z</time>
      </trkpt>
      <trkpt lat="46.4641" lon="-0.1344">
        <ele>179.9</ele>
        <time>2020-05-30T18:45:58Z</time>
      </trkpt>
      <trkpt lat="46.46407" lon="-0.13446">
        <ele>179.9</ele>
        <time>2020-05-30T18:45:59Z</time>
      </trkpt>
      <trkpt lat="46.46406" lon="-0.13451">
        <ele>179.9</ele>
        <time>2020-05-30T18:46:00Z</time>
      </trkpt>
      <trkpt lat="46.46405" lon="-0.13456">
        <ele>180</ele>
        <time>2020-05-30T18:46:01Z</time>
      </trkpt>
      <trkpt lat="46.46404" lon="-0.13461">
        <ele>180</ele>
        <time>2020-05-30T18:46:02Z</time>
      </trkpt>
      <trkpt lat="46.46402" lon="-0.13465">
        <ele>180</ele>
        <time>2020-05-30T18:46:03Z</time>
      </trkpt>
      <trkpt lat="46.46401" lon="-0.1347">
        <ele>180</ele>
        <time>2020-05-30T18:46:04Z</time>
      </trkpt>
      <trkpt lat="46.464" lon="-0.13474">
        <ele>180.1</ele>
        <time>2020-05-30T18:46:05Z</time>
      </trkpt>
      <trkpt lat="46.46399" lon="-0.13478">
        <ele>180.1</ele>
        <time>2020-05-30T18:46:06Z</time>
      </trkpt>
      <trkpt lat="46.46398" lon="-0.13485">
        <ele>180.1</ele>
        <time>2020-05-30T18:46:07Z</time>
      </trkpt>
      <trkpt lat="46.46397" lon="-0.13488">
        <ele>180.1</ele>
        <time>2020-05-30T18:46:08Z</time>
      </trkpt>
      <trkpt lat="46.46396" lon="-0.13493">
        <ele>180.1</ele>
        <time>2020-05-30T18:46:09Z</time>
      </trkpt>
      <trkpt lat="46.46395" lon="-0.13497">
        <ele>180.1</ele>
        <time>2020-05-30T18:46:10Z</time>
      </trkpt>
      <trkpt lat="46.46395" lon="-0.13502">
        <ele>180.2</ele>
        <time>2020-05-30T18:46:11Z</time>
      </trkpt>
      <trkpt lat="46.46394" lon="-0.13503">
        <ele>180.2</ele>
        <time>2020-05-30T18:46:12Z</time>
      </trkpt>
      <trkpt lat="46.46395" lon="-0.13505">
        <ele>180.2</ele>
        <time>2020-05-30T18:46:13Z</time>
      </trkpt>
      <trkpt lat="46.46396" lon="-0.13506">
        <ele>180.2</ele>
        <time>2020-05-30T18:46:14Z</time>
      </trkpt>
      <trkpt lat="46.46396" lon="-0.13506">
        <ele>180.2</ele>
        <time>2020-05-30T18:46:15Z</time>
      </trkpt>
      <trkpt lat="46.46396" lon="-0.13507">
        <ele>180.2</ele>
        <time>2020-05-30T18:46:16Z</time>
      </trkpt>
      <trkpt lat="46.46395" lon="-0.13505">
        <ele>180.2</ele>
        <time>2020-05-30T18:46:17Z</time>
      </trkpt>
      <trkpt lat="46.46395" lon="-0.13506">
        <ele>180.2</ele>
        <time>2020-05-30T18:46:18Z</time>
      </trkpt>
      <trkpt lat="46.46395" lon="-0.13506">
        <ele>180.2</ele>
        <time>2020-05-30T18:46:19Z</time>
      </trkpt>
      <trkpt lat="46.46395" lon="-0.13506">
        <ele>180.2</ele>
        <time>2020-05-30T18:46:20Z</time>
      </trkpt>
      <trkpt lat="46.46395" lon="-0.13506">
        <ele>180.2</ele>
        <time>2020-05-30T18:46:21Z</time>
      </trkpt>
      <trkpt lat="46.46395" lon="-0.13506">
        <ele>180.2</ele>
        <time>2020-05-30T18:46:22Z</time>
      </trkpt>
      <trkpt lat="46.46395" lon="-0.13506">
        <ele>180.2</ele>
        <time>2020-05-30T18:46:23Z</time>
      </trkpt>
      <trkpt lat="46.46395" lon="-0.13506">
        <ele>180.2</ele>
        <time>2020-05-30T18:46:24Z</time>
      </trkpt>
      <trkpt lat="46.46395" lon="-0.13506">
        <ele>180.2</ele>
        <time>2020-05-30T18:46:25Z</time>
      </trkpt>
      <trkpt lat="46.46395" lon="-0.13507">
        <ele>180.2</ele>
        <time>2020-05-30T18:46:26Z</time>
      </trkpt>
      <trkpt lat="46.46395" lon="-0.13507">
        <ele>180.2</ele>
        <time>2020-05-30T18:46:27Z</time>
      </trkpt>
      <trkpt lat="46.46395" lon="-0.13507">
        <ele>180.2</ele>
        <time>2020-05-30T18:46:28Z</time>
      </trkpt>
      <trkpt lat="46.46395" lon="-0.13507">
        <ele>180.2</ele>
        <time>2020-05-30T18:46:29Z</time>
      </trkpt>
      <trkpt lat="46.46395" lon="-0.13507">
        <ele>180.2</ele>
        <time>2020-05-30T18:46:30Z</time>
      </trkpt>
      <trkpt lat="46.46395" lon="-0.13507">
        <ele>180.2</ele>
        <time>2020-05-30T18:46:31Z</time>
      </trkpt>
      <trkpt lat="46.46395" lon="-0.13507">
        <ele>180.2</ele>
        <time>2020-05-30T18:46:32Z</time>
      </trkpt>
      <trkpt lat="46.46395" lon="-0.13507">
        <ele>180.2</ele>
        <time>2020-05-30T18:46:33Z</time>
      </trkpt>
      <trkpt lat="46.46396" lon="-0.13508">
        <ele>180.2</ele>
        <time>2020-05-30T18:46:34Z</time>
      </trkpt>
      <trkpt lat="46.46396" lon="-0.13508">
        <ele>180.2</ele>
        <time>2020-05-30T18:46:35Z</time>
      </trkpt>
      <trkpt lat="46.46396" lon="-0.13508">
        <ele>180.2</ele>
        <time>2020-05-30T18:46:36Z</time>
      </trkpt>
      <trkpt lat="46.46396" lon="-0.13508">
        <ele>180.2</ele>
        <time>2020-05-30T18:46:37Z</time>
      </trkpt>
      <trkpt lat="46.46396" lon="-0.13508">
        <ele>180.2</ele>
        <time>2020-05-30T18:46:38Z</time>
      </trkpt>
      <trkpt lat="46.46396" lon="-0.13508">
        <ele>180.2</ele>
        <time>2020-05-30T18:46:39Z</time>
      </trkpt>
      <trkpt lat="46.46396" lon="-0.13508">
        <ele>180.2</ele>
        <time>2020-05-30T18:46:40Z</time>
      </trkpt>
      <trkpt lat="46.46396" lon="-0.13509">
        <ele>180.2</ele>
        <time>2020-05-30T18:46:41Z</time>
      </trkpt>
      <trkpt lat="46.46396" lon="-0.13509">
        <ele>180.2</ele>
        <time>2020-05-30T18:46:42Z</time>
      </trkpt>
      <trkpt lat="46.46396" lon="-0.13509">
        <ele>180.2</ele>
        <time>2020-05-30T18:46:43Z</time>
      </trkpt>
      <trkpt lat="46.46396" lon="-0.13509">
        <ele>180.2</ele>
        <time>2020-05-30T18:46:44Z</time>
      </trkpt>
      <trkpt lat="46.46396" lon="-0.13509">
        <ele>180.2</ele>
        <time>2020-05-30T18:46:45Z</time>
      </trkpt>
      <trkpt lat="46.46396" lon="-0.13509">
        <ele>180.2</ele>
        <time>2020-05-30T18:46:46Z</time>
      </trkpt>
      <trkpt lat="46.46396" lon="-0.13509">
        <ele>180.2</ele>
        <time>2020-05-30T18:46:47Z</time>
      </trkpt>
      <trkpt lat="46.46396" lon="-0.13509">
        <ele>180.2</ele>
        <time>2020-05-30T18:46:48Z</time>
      </trkpt>
      <trkpt lat="46.46396" lon="-0.1351">
        <ele>180.2</ele>
        <time>2020-05-30T18:46:49Z</time>
      </trkpt>
      <trkpt lat="46.46396" lon="-0.1351">
        <ele>180.2</ele>
        <time>2020-05-30T18:46:50Z</time>
      </trkpt>
      <trkpt lat="46.46396" lon="-0.1351">
        <ele>180.2</ele>
        <time>2020-05-30T18:46:51Z</time>
      </trkpt>
      <trkpt lat="46.46396" lon="-0.1351">
        <ele>180.2</ele>
        <time>2020-05-30T18:46:52Z</time>
      </trkpt>
      <trkpt lat="46.46396" lon="-0.1351">
        <ele>180.2</ele>
        <time>2020-05-30T18:46:53Z</time>
      </trkpt>
      <trkpt lat="46.46396" lon="-0.1351">
        <ele>180.2</ele>
        <time>2020-05-30T18:46:54Z</time>
      </trkpt>
      <trkpt lat="46.46396" lon="-0.1351">
        <ele>180.2</ele>
        <time>2020-05-30T18:46:55Z</time>
      </trkpt>
      <trkpt lat="46.46396" lon="-0.1351">
        <ele>180.2</ele>
        <time>2020-05-30T18:46:56Z</time>
      </trkpt>
      <trkpt lat="46.46396" lon="-0.13511">
        <ele>180.2</ele>
        <time>2020-05-30T18:46:57Z</time>
      </trkpt>
      <trkpt lat="46.46396" lon="-0.13511">
        <ele>180.2</ele>
        <time>2020-05-30T18:46:58Z</time>
      </trkpt>
      <trkpt lat="46.46396" lon="-0.13511">
        <ele>180.2</ele>
        <time>2020-05-30T18:46:59Z</time>
      </trkpt>
      <trkpt lat="46.46396" lon="-0.13511">
        <ele>180.2</ele>
        <time>2020-05-30T18:47:00Z</time>
      </trkpt>
      <trkpt lat="46.46396" lon="-0.13511">
        <ele>180.2</ele>
        <time>2020-05-30T18:47:01Z</time>
      </trkpt>
      <trkpt lat="46.46396" lon="-0.13511">
        <ele>180.2</ele>
        <time>2020-05-30T18:47:02Z</time>
      </trkpt>
      <trkpt lat="46.46396" lon="-0.13511">
        <ele>180.2</ele>
        <time>2020-05-30T18:47:03Z</time>
      </trkpt>
      <trkpt lat="46.46396" lon="-0.13511">
        <ele>180.2</ele>
        <time>2020-05-30T18:47:04Z</time>
      </trkpt>
      <trkpt lat="46.46396" lon="-0.13512">
        <ele>180.2</ele>
        <time>2020-05-30T18:47:05Z</time>
      </trkpt>
      <trkpt lat="46.46396" lon="-0.13512">
        <ele>180.2</ele>
        <time>2020-05-30T18:47:06Z</time>
      </trkpt>
      <trkpt lat="46.46396" lon="-0.13512">
        <ele>180.2</ele>
        <time>2020-05-30T18:47:07Z</time>
      </trkpt>
      <trkpt lat="46.46396" lon="-0.13512">
        <ele>180.2</ele>
        <time>2020-05-30T18:47:08Z</time>
      </trkpt>
      <trkpt lat="46.46396" lon="-0.13512">
        <ele>180.2</ele>
        <time>2020-05-30T18:47:09Z</time>
      </trkpt>
      <trkpt lat="46.46396" lon="-0.13512">
        <ele>180.2</ele>
        <time>2020-05-30T18:47:10Z</time>
      </trkpt>
      <trkpt lat="46.46396" lon="-0.13512">
        <ele>180.2</ele>
        <time>2020-05-30T18:47:11Z</time>
      </trkpt>
      <trkpt lat="46.46396" lon="-0.13512">
        <ele>180.2</ele>
        <time>2020-05-30T18:47:12Z</time>
      </trkpt>
      <trkpt lat="46.46396" lon="-0.13513">
        <ele>180.2</ele>
        <time>2020-05-30T18:47:13Z</time>
      </trkpt>
      <trkpt lat="46.46396" lon="-0.13513">
        <ele>180.2</ele>
        <time>2020-05-30T18:47:14Z</time>
      </trkpt>
      <trkpt lat="46.46396" lon="-0.13513">
        <ele>180.2</ele>
        <time>2020-05-30T18:47:15Z</time>
      </trkpt>
      <trkpt lat="46.46396" lon="-0.13513">
        <ele>180.2</ele>
        <time>2020-05-30T18:47:16Z</time>
      </trkpt>
      <trkpt lat="46.46396" lon="-0.13513">
        <ele>180.2</ele>
        <time>2020-05-30T18:47:17Z</time>
      </trkpt>
      <trkpt lat="46.46396" lon="-0.13513">
        <ele>180.2</ele>
        <time>2020-05-30T18:47:18Z</time>
      </trkpt>
      <trkpt lat="46.46396" lon="-0.13513">
        <ele>180.2</ele>
        <time>2020-05-30T18:47:19Z</time>
      </trkpt>
      <trkpt lat="46.46396" lon="-0.13513">
        <ele>180.2</ele>
        <time>2020-05-30T18:47:20Z</time>
      </trkpt>
      <trkpt lat="46.46396" lon="-0.13514">
        <ele>180.2</ele>
        <time>2020-05-30T18:47:21Z</time>
      </trkpt>
      <trkpt lat="46.46396" lon="-0.13514">
        <ele>180.2</ele>
        <time>2020-05-30T18:47:22Z</time>
      </trkpt>
      <trkpt lat="46.46396" lon="-0.13514">
        <ele>180.2</ele>
        <time>2020-05-30T18:47:23Z</time>
      </trkpt>
      <trkpt lat="46.46396" lon="-0.13514">
        <ele>180.2</ele>
        <time>2020-05-30T18:47:24Z</time>
      </trkpt>
      <trkpt lat="46.46396" lon="-0.13514">
        <ele>180.2</ele>
        <time>2020-05-30T18:47:25Z</time>
      </trkpt>
      <trkpt lat="46.46393" lon="-0.13519">
        <ele>180.2</ele>
        <time>2020-05-30T18:47:26Z</time>
      </trkpt>
      <trkpt lat="46.46392" lon="-0.13524">
        <ele>180.2</ele>
        <time>2020-05-30T18:47:27Z</time>
      </trkpt>
      <trkpt lat="46.4639" lon="-0.13529">
        <ele>180.2</ele>
        <time>2020-05-30T18:47:28Z</time>
      </trkpt>
      <trkpt lat="46.46389" lon="-0.13536">
        <ele>180.3</ele>
        <time>2020-05-30T18:47:29Z</time>
      </trkpt>
      <trkpt lat="46.46388" lon="-0.13542">
        <ele>180.3</ele>
        <time>2020-05-30T18:47:30Z</time>
      </trkpt>
      <trkpt lat="46.46387" lon="-0.13548">
        <ele>180.3</ele>
        <time>2020-05-30T18:47:31Z</time>
      </trkpt>
      <trkpt lat="46.46385" lon="-0.13555">
        <ele>180.3</ele>
        <time>2020-05-30T18:47:32Z</time>
      </trkpt>
      <trkpt lat="46.46383" lon="-0.1356">
        <ele>180.3</ele>
        <time>2020-05-30T18:47:33Z</time>
      </trkpt>
      <trkpt lat="46.46382" lon="-0.13568">
        <ele>180.3</ele>
        <time>2020-05-30T18:47:34Z</time>
      </trkpt>
      <trkpt lat="46.4638" lon="-0.13573">
        <ele>180.4</ele>
        <time>2020-05-30T18:47:35Z</time>
      </trkpt>
      <trkpt lat="46.46378" lon="-0.13579">
        <ele>180.4</ele>
        <time>2020-05-30T18:47:36Z</time>
      </trkpt>
      <trkpt lat="46.46377" lon="-0.13584">
        <ele>180.4</ele>
        <time>2020-05-30T18:47:37Z</time>
      </trkpt>
      <trkpt lat="46.46375" lon="-0.13591">
        <ele>180.5</ele>
        <time>2020-05-30T18:47:38Z</time>
      </trkpt>
      <trkpt lat="46.46373" lon="-0.13596">
        <ele>180.5</ele>
        <time>2020-05-30T18:47:39Z</time>
      </trkpt>
      <trkpt lat="46.4637" lon="-0.13603">
        <ele>180.6</ele>
        <time>2020-05-30T18:47:40Z</time>
      </trkpt>
      <trkpt lat="46.46368" lon="-0.13609">
        <ele>180.7</ele>
        <time>2020-05-30T18:47:41Z</time>
      </trkpt>
      <trkpt lat="46.46365" lon="-0.13614">
        <ele>180.6</ele>
        <time>2020-05-30T18:47:42Z</time>
      </trkpt>
      <trkpt lat="46.46362" lon="-0.1362">
        <ele>180.6</ele>
        <time>2020-05-30T18:47:43Z</time>
      </trkpt>
      <trkpt lat="46.4636" lon="-0.13624">
        <ele>180.6</ele>
        <time>2020-05-30T18:47:44Z</time>
      </trkpt>
      <trkpt lat="46.46358" lon="-0.13627">
        <ele>180.6</ele>
        <time>2020-05-30T18:47:45Z</time>
      </trkpt>
      <trkpt lat="46.46355" lon="-0.1363">
        <ele>180.6</ele>
        <time>2020-05-30T18:47:46Z</time>
      </trkpt>
      <trkpt lat="46.46353" lon="-0.13634">
        <ele>180.6</ele>
        <time>2020-05-30T18:47:47Z</time>
      </trkpt>
      <trkpt lat="46.4635" lon="-0.13637">
        <ele>180.6</ele>
        <time>2020-05-30T18:47:48Z</time>
      </trkpt>
      <trkpt lat="46.46348" lon="-0.13642">
        <ele>180.6</ele>
        <time>2020-05-30T18:47:49Z</time>
      </trkpt>
      <trkpt lat="46.46345" lon="-0.13645">
        <ele>180.6</ele>
        <time>2020-05-30T18:47:50Z</time>
      </trkpt>
      <trkpt lat="46.46341" lon="-0.13647">
        <ele>180.6</ele>
        <time>2020-05-30T18:47:51Z</time>
      </trkpt>
      <trkpt lat="46.46338" lon="-0.1365">
        <ele>180.6</ele>
        <time>2020-05-30T18:47:52Z</time>
      </trkpt>
      <trkpt lat="46.46335" lon="-0.13654">
        <ele>180.6</ele>
        <time>2020-05-30T18:47:53Z</time>
      </trkpt>
      <trkpt lat="46.46333" lon="-0.13662">
        <ele>180.5</ele>
        <time>2020-05-30T18:47:54Z</time>
      </trkpt>
      <trkpt lat="46.4633" lon="-0.13665">
        <ele>180.5</ele>
        <time>2020-05-30T18:47:55Z</time>
      </trkpt>
      <trkpt lat="46.46327" lon="-0.13668">
        <ele>180.5</ele>
        <time>2020-05-30T18:47:56Z</time>
      </trkpt>
      <trkpt lat="46.46325" lon="-0.13671">
        <ele>180.5</ele>
        <time>2020-05-30T18:47:57Z</time>
      </trkpt>
      <trkpt lat="46.46322" lon="-0.13675">
        <ele>180.5</ele>
        <time>2020-05-30T18:47:58Z</time>
      </trkpt>
      <trkpt lat="46.46319" lon="-0.1368">
        <ele>180.5</ele>
        <time>2020-05-30T18:47:59Z</time>
      </trkpt>
      <trkpt lat="46.46316" lon="-0.13684">
        <ele>180.5</ele>
        <time>2020-05-30T18:48:00Z</time>
      </trkpt>
      <trkpt lat="46.46312" lon="-0.13688">
        <ele>180.5</ele>
        <time>2020-05-30T18:48:01Z</time>
      </trkpt>
      <trkpt lat="46.4631" lon="-0.13691">
        <ele>180.5</ele>
        <time>2020-05-30T18:48:02Z</time>
      </trkpt>
      <trkpt lat="46.46307" lon="-0.13695">
        <ele>180.5</ele>
        <time>2020-05-30T18:48:03Z</time>
      </trkpt>
      <trkpt lat="46.46304" lon="-0.13699">
        <ele>180.5</ele>
        <time>2020-05-30T18:48:04Z</time>
      </trkpt>
      <trkpt lat="46.463" lon="-0.13703">
        <ele>180.5</ele>
        <time>2020-05-30T18:48:05Z</time>
      </trkpt>
      <trkpt lat="46.46296" lon="-0.13708">
        <ele>180.4</ele>
        <time>2020-05-30T18:48:06Z</time>
      </trkpt>
      <trkpt lat="46.46294" lon="-0.13712">
        <ele>180.4</ele>
        <time>2020-05-30T18:48:07Z</time>
      </trkpt>
      <trkpt lat="46.46291" lon="-0.13716">
        <ele>180.4</ele>
        <time>2020-05-30T18:48:08Z</time>
      </trkpt>
      <trkpt lat="46.46288" lon="-0.1372">
        <ele>180.4</ele>
        <time>2020-05-30T18:48:09Z</time>
      </trkpt>
      <trkpt lat="46.46284" lon="-0.13724">
        <ele>180.4</ele>
        <time>2020-05-30T18:48:10Z</time>
      </trkpt>
      <trkpt lat="46.46281" lon="-0.13728">
        <ele>180.3</ele>
        <time>2020-05-30T18:48:11Z</time>
      </trkpt>
      <trkpt lat="46.46277" lon="-0.13732">
        <ele>180.3</ele>
        <time>2020-05-30T18:48:12Z</time>
      </trkpt>
      <trkpt lat="46.46274" lon="-0.13736">
        <ele>180.2</ele>
        <time>2020-05-30T18:48:13Z</time>
      </trkpt>
      <trkpt lat="46.46271" lon="-0.13739">
        <ele>180.2</ele>
        <time>2020-05-30T18:48:14Z</time>
      </trkpt>
      <trkpt lat="46.46268" lon="-0.13743">
        <ele>180.1</ele>
        <time>2020-05-30T18:48:15Z</time>
      </trkpt>
      <trkpt lat="46.46265" lon="-0.13747">
        <ele>180.1</ele>
        <time>2020-05-30T18:48:16Z</time>
      </trkpt>
      <trkpt lat="46.46262" lon="-0.13751">
        <ele>180.1</ele>
        <time>2020-05-30T18:48:17Z</time>
      </trkpt>
      <trkpt lat="46.46259" lon="-0.13755">
        <ele>180</ele>
        <time>2020-05-30T18:48:18Z</time>
      </trkpt>
      <trkpt lat="46.46256" lon="-0.13759">
        <ele>180</ele>
        <time>2020-05-30T18:48:19Z</time>
      </trkpt>
      <trkpt lat="46.46252" lon="-0.13763">
        <ele>179.9</ele>
        <time>2020-05-30T18:48:20Z</time>
      </trkpt>
      <trkpt lat="46.46249" lon="-0.13766">
        <ele>179.9</ele>
        <time>2020-05-30T18:48:21Z</time>
      </trkpt>
      <trkpt lat="46.46246" lon="-0.13769">
        <ele>179.8</ele>
        <time>2020-05-30T18:48:22Z</time>
      </trkpt>
      <trkpt lat="46.46243" lon="-0.13772">
        <ele>179.8</ele>
        <time>2020-05-30T18:48:23Z</time>
      </trkpt>
      <trkpt lat="46.4624" lon="-0.13775">
        <ele>179.7</ele>
        <time>2020-05-30T18:48:24Z</time>
      </trkpt>
      <trkpt lat="46.46236" lon="-0.13778">
        <ele>179.6</ele>
        <time>2020-05-30T18:48:25Z</time>
      </trkpt>
      <trkpt lat="46.46233" lon="-0.13781">
        <ele>179.6</ele>
        <time>2020-05-30T18:48:26Z</time>
      </trkpt>
      <trkpt lat="46.46231" lon="-0.13785">
        <ele>179.6</ele>
        <time>2020-05-30T18:48:27Z</time>
      </trkpt>
      <trkpt lat="46.46228" lon="-0.13787">
        <ele>179.5</ele>
        <time>2020-05-30T18:48:28Z</time>
      </trkpt>
      <trkpt lat="46.46225" lon="-0.13792">
        <ele>179.4</ele>
        <time>2020-05-30T18:48:29Z</time>
      </trkpt>
      <trkpt lat="46.46222" lon="-0.13796">
        <ele>179.4</ele>
        <time>2020-05-30T18:48:30Z</time>
      </trkpt>
      <trkpt lat="46.46218" lon="-0.13799">
        <ele>179.3</ele>
        <time>2020-05-30T18:48:31Z</time>
      </trkpt>
      <trkpt lat="46.46214" lon="-0.13802">
        <ele>179.3</ele>
        <time>2020-05-30T18:48:32Z</time>
      </trkpt>
      <trkpt lat="46.46211" lon="-0.13806">
        <ele>179.2</ele>
        <time>2020-05-30T18:48:33Z</time>
      </trkpt>
      <trkpt lat="46.46208" lon="-0.1381">
        <ele>179.2</ele>
        <time>2020-05-30T18:48:34Z</time>
      </trkpt>
      <trkpt lat="46.46205" lon="-0.13814">
        <ele>179</ele>
        <time>2020-05-30T18:48:35Z</time>
      </trkpt>
      <trkpt lat="46.46202" lon="-0.13818">
        <ele>178.9</ele>
        <time>2020-05-30T18:48:36Z</time>
      </trkpt>
      <trkpt lat="46.46199" lon="-0.13822">
        <ele>178.8</ele>
        <time>2020-05-30T18:48:37Z</time>
      </trkpt>
      <trkpt lat="46.46197" lon="-0.13826">
        <ele>178.6</ele>
        <time>2020-05-30T18:48:38Z</time>
      </trkpt>
      <trkpt lat="46.46194" lon="-0.13831">
        <ele>178.4</ele>
        <time>2020-05-30T18:48:39Z</time>
      </trkpt>
      <trkpt lat="46.4619" lon="-0.13834">
        <ele>178.2</ele>
        <time>2020-05-30T18:48:40Z</time>
      </trkpt>
      <trkpt lat="46.46186" lon="-0.13839">
        <ele>178</ele>
        <time>2020-05-30T18:48:41Z</time>
      </trkpt>
      <trkpt lat="46.46183" lon="-0.13846">
        <ele>177.8</ele>
        <time>2020-05-30T18:48:42Z</time>
      </trkpt>
      <trkpt lat="46.46179" lon="-0.13851">
        <ele>177.7</ele>
        <time>2020-05-30T18:48:43Z</time>
      </trkpt>
      <trkpt lat="46.46175" lon="-0.13856">
        <ele>177.5</ele>
        <time>2020-05-30T18:48:44Z</time>
      </trkpt>
      <trkpt lat="46.46171" lon="-0.13863">
        <ele>177.3</ele>
        <time>2020-05-30T18:48:45Z</time>
      </trkpt>
      <trkpt lat="46.46168" lon="-0.13869">
        <ele>177.2</ele>
        <time>2020-05-30T18:48:46Z</time>
      </trkpt>
      <trkpt lat="46.46164" lon="-0.13876">
        <ele>177</ele>
        <time>2020-05-30T18:48:47Z</time>
      </trkpt>
      <trkpt lat="46.4616" lon="-0.13884">
        <ele>176.7</ele>
        <time>2020-05-30T18:48:48Z</time>
      </trkpt>
      <trkpt lat="46.46156" lon="-0.13891">
        <ele>176.5</ele>
        <time>2020-05-30T18:48:49Z</time>
      </trkpt>
      <trkpt lat="46.46153" lon="-0.139">
        <ele>176.2</ele>
        <time>2020-05-30T18:48:50Z</time>
      </trkpt>
      <trkpt lat="46.46149" lon="-0.1391">
        <ele>176</ele>
        <time>2020-05-30T18:48:51Z</time>
      </trkpt>
      <trkpt lat="46.46145" lon="-0.13919">
        <ele>175.9</ele>
        <time>2020-05-30T18:48:52Z</time>
      </trkpt>
      <trkpt lat="46.46141" lon="-0.13929">
        <ele>175.7</ele>
        <time>2020-05-30T18:48:53Z</time>
      </trkpt>
      <trkpt lat="46.46138" lon="-0.13938">
        <ele>175.6</ele>
        <time>2020-05-30T18:48:54Z</time>
      </trkpt>
      <trkpt lat="46.46135" lon="-0.13946">
        <ele>175.4</ele>
        <time>2020-05-30T18:48:55Z</time>
      </trkpt>
      <trkpt lat="46.4613" lon="-0.13955">
        <ele>175.2</ele>
        <time>2020-05-30T18:48:56Z</time>
      </trkpt>
      <trkpt lat="46.46126" lon="-0.13962">
        <ele>175</ele>
        <time>2020-05-30T18:48:57Z</time>
      </trkpt>
      <trkpt lat="46.46123" lon="-0.1397">
        <ele>174.9</ele>
        <time>2020-05-30T18:48:58Z</time>
      </trkpt>
      <trkpt lat="46.4612" lon="-0.13977">
        <ele>174.8</ele>
        <time>2020-05-30T18:48:59Z</time>
      </trkpt>
      <trkpt lat="46.46116" lon="-0.13984">
        <ele>174.7</ele>
        <time>2020-05-30T18:49:00Z</time>
      </trkpt>
      <trkpt lat="46.46113" lon="-0.13992">
        <ele>174.6</ele>
        <time>2020-05-30T18:49:01Z</time>
      </trkpt>
      <trkpt lat="46.46108" lon="-0.14">
        <ele>174.4</ele>
        <time>2020-05-30T18:49:02Z</time>
      </trkpt>
      <trkpt lat="46.46104" lon="-0.14008">
        <ele>174.4</ele>
        <time>2020-05-30T18:49:03Z</time>
      </trkpt>
      <trkpt lat="46.461" lon="-0.14016">
        <ele>174.3</ele>
        <time>2020-05-30T18:49:04Z</time>
      </trkpt>
      <trkpt lat="46.46097" lon="-0.14024">
        <ele>174.2</ele>
        <time>2020-05-30T18:49:05Z</time>
      </trkpt>
      <trkpt lat="46.46094" lon="-0.14033">
        <ele>174.2</ele>
        <time>2020-05-30T18:49:06Z</time>
      </trkpt>
      <trkpt lat="46.46089" lon="-0.14041">
        <ele>174.1</ele>
        <time>2020-05-30T18:49:07Z</time>
      </trkpt>
      <trkpt lat="46.46085" lon="-0.14049">
        <ele>174.1</ele>
        <time>2020-05-30T18:49:08Z</time>
      </trkpt>
      <trkpt lat="46.46082" lon="-0.14056">
        <ele>174.1</ele>
        <time>2020-05-30T18:49:09Z</time>
      </trkpt>
      <trkpt lat="46.46078" lon="-0.14063">
        <ele>174.1</ele>
        <time>2020-05-30T18:49:10Z</time>
      </trkpt>
      <trkpt lat="46.46075" lon="-0.14071">
        <ele>174.1</ele>
        <time>2020-05-30T18:49:11Z</time>
      </trkpt>
      <trkpt lat="46.46071" lon="-0.14079">
        <ele>174.1</ele>
        <time>2020-05-30T18:49:12Z</time>
      </trkpt>
      <trkpt lat="46.46068" lon="-0.14087">
        <ele>174</ele>
        <time>2020-05-30T18:49:13Z</time>
      </trkpt>
      <trkpt lat="46.46065" lon="-0.14095">
        <ele>174</ele>
        <time>2020-05-30T18:49:14Z</time>
      </trkpt>
      <trkpt lat="46.46061" lon="-0.14103">
        <ele>174</ele>
        <time>2020-05-30T18:49:15Z</time>
      </trkpt>
      <trkpt lat="46.46058" lon="-0.14111">
        <ele>174.1</ele>
        <time>2020-05-30T18:49:16Z</time>
      </trkpt>
      <trkpt lat="46.46055" lon="-0.14119">
        <ele>174.1</ele>
        <time>2020-05-30T18:49:17Z</time>
      </trkpt>
      <trkpt lat="46.46051" lon="-0.14126">
        <ele>174.1</ele>
        <time>2020-05-30T18:49:18Z</time>
      </trkpt>
      <trkpt lat="46.46048" lon="-0.14133">
        <ele>174.1</ele>
        <time>2020-05-30T18:49:19Z</time>
      </trkpt>
      <trkpt lat="46.46045" lon="-0.1414">
        <ele>174.2</ele>
        <time>2020-05-30T18:49:20Z</time>
      </trkpt>
      <trkpt lat="46.46043" lon="-0.14148">
        <ele>174.3</ele>
        <time>2020-05-30T18:49:21Z</time>
      </trkpt>
      <trkpt lat="46.4604" lon="-0.14155">
        <ele>174.4</ele>
        <time>2020-05-30T18:49:22Z</time>
      </trkpt>
      <trkpt lat="46.46037" lon="-0.14162">
        <ele>174.5</ele>
        <time>2020-05-30T18:49:23Z</time>
      </trkpt>
      <trkpt lat="46.46033" lon="-0.14169">
        <ele>174.6</ele>
        <time>2020-05-30T18:49:24Z</time>
      </trkpt>
      <trkpt lat="46.4603" lon="-0.14176">
        <ele>174.7</ele>
        <time>2020-05-30T18:49:25Z</time>
      </trkpt>
      <trkpt lat="46.46027" lon="-0.14184">
        <ele>174.8</ele>
        <time>2020-05-30T18:49:26Z</time>
      </trkpt>
      <trkpt lat="46.46024" lon="-0.14191">
        <ele>174.9</ele>
        <time>2020-05-30T18:49:27Z</time>
      </trkpt>
      <trkpt lat="46.46021" lon="-0.14197">
        <ele>175</ele>
        <time>2020-05-30T18:49:28Z</time>
      </trkpt>
      <trkpt lat="46.46018" lon="-0.14203">
        <ele>175.1</ele>
        <time>2020-05-30T18:49:29Z</time>
      </trkpt>
      <trkpt lat="46.46015" lon="-0.14207">
        <ele>175.2</ele>
        <time>2020-05-30T18:49:30Z</time>
      </trkpt>
      <trkpt lat="46.46013" lon="-0.14212">
        <ele>175.3</ele>
        <time>2020-05-30T18:49:31Z</time>
      </trkpt>
      <trkpt lat="46.46011" lon="-0.14217">
        <ele>175.4</ele>
        <time>2020-05-30T18:49:32Z</time>
      </trkpt>
      <trkpt lat="46.46009" lon="-0.14223">
        <ele>175.5</ele>
        <time>2020-05-30T18:49:33Z</time>
      </trkpt>
      <trkpt lat="46.46006" lon="-0.14228">
        <ele>175.6</ele>
        <time>2020-05-30T18:49:34Z</time>
      </trkpt>
      <trkpt lat="46.46004" lon="-0.14235">
        <ele>175.8</ele>
        <time>2020-05-30T18:49:35Z</time>
      </trkpt>
      <trkpt lat="46.46002" lon="-0.14241">
        <ele>175.9</ele>
        <time>2020-05-30T18:49:36Z</time>
      </trkpt>
      <trkpt lat="46.45999" lon="-0.14248">
        <ele>176.1</ele>
        <time>2020-05-30T18:49:37Z</time>
      </trkpt>
      <trkpt lat="46.45996" lon="-0.14253">
        <ele>176.2</ele>
        <time>2020-05-30T18:49:38Z</time>
      </trkpt>
      <trkpt lat="46.45994" lon="-0.14257">
        <ele>176.3</ele>
        <time>2020-05-30T18:49:39Z</time>
      </trkpt>
      <trkpt lat="46.45991" lon="-0.14262">
        <ele>176.5</ele>
        <time>2020-05-30T18:49:40Z</time>
      </trkpt>
      <trkpt lat="46.45989" lon="-0.14267">
        <ele>176.6</ele>
        <time>2020-05-30T18:49:41Z</time>
      </trkpt>
      <trkpt lat="46.45986" lon="-0.14273">
        <ele>176.8</ele>
        <time>2020-05-30T18:49:42Z</time>
      </trkpt>
      <trkpt lat="46.45985" lon="-0.14279">
        <ele>177</ele>
        <time>2020-05-30T18:49:43Z</time>
      </trkpt>
      <trkpt lat="46.45982" lon="-0.14286">
        <ele>177.2</ele>
        <time>2020-05-30T18:49:44Z</time>
      </trkpt>
      <trkpt lat="46.45979" lon="-0.14292">
        <ele>177.4</ele>
        <time>2020-05-30T18:49:45Z</time>
      </trkpt>
      <trkpt lat="46.45976" lon="-0.14298">
        <ele>177.6</ele>
        <time>2020-05-30T18:49:46Z</time>
      </trkpt>
      <trkpt lat="46.45974" lon="-0.14303">
        <ele>177.7</ele>
        <time>2020-05-30T18:49:47Z</time>
      </trkpt>
      <trkpt lat="46.45972" lon="-0.14309">
        <ele>177.9</ele>
        <time>2020-05-30T18:49:48Z</time>
      </trkpt>
      <trkpt lat="46.4597" lon="-0.14315">
        <ele>178.1</ele>
        <time>2020-05-30T18:49:49Z</time>
      </trkpt>
      <trkpt lat="46.45968" lon="-0.14322">
        <ele>178.2</ele>
        <time>2020-05-30T18:49:50Z</time>
      </trkpt>
      <trkpt lat="46.45965" lon="-0.1433">
        <ele>178.5</ele>
        <time>2020-05-30T18:49:51Z</time>
      </trkpt>
      <trkpt lat="46.45962" lon="-0.14337">
        <ele>178.7</ele>
        <time>2020-05-30T18:49:52Z</time>
      </trkpt>
      <trkpt lat="46.45959" lon="-0.14346">
        <ele>178.9</ele>
        <time>2020-05-30T18:49:53Z</time>
      </trkpt>
      <trkpt lat="46.45958" lon="-0.14355">
        <ele>179.1</ele>
        <time>2020-05-30T18:49:54Z</time>
      </trkpt>
      <trkpt lat="46.45955" lon="-0.14364">
        <ele>179.3</ele>
        <time>2020-05-30T18:49:55Z</time>
      </trkpt>
      <trkpt lat="46.45951" lon="-0.14377">
        <ele>179.6</ele>
        <time>2020-05-30T18:49:56Z</time>
      </trkpt>
      <trkpt lat="46.45948" lon="-0.14389">
        <ele>179.8</ele>
        <time>2020-05-30T18:49:57Z</time>
      </trkpt>
      <trkpt lat="46.45945" lon="-0.14401">
        <ele>180</ele>
        <time>2020-05-30T18:49:58Z</time>
      </trkpt>
      <trkpt lat="46.45941" lon="-0.14417">
        <ele>180.3</ele>
        <time>2020-05-30T18:49:59Z</time>
      </trkpt>
      <trkpt lat="46.45937" lon="-0.14432">
        <ele>180.5</ele>
        <time>2020-05-30T18:50:00Z</time>
      </trkpt>
      <trkpt lat="46.45934" lon="-0.14445">
        <ele>180.7</ele>
        <time>2020-05-30T18:50:01Z</time>
      </trkpt>
      <trkpt lat="46.45932" lon="-0.14456">
        <ele>180.8</ele>
        <time>2020-05-30T18:50:02Z</time>
      </trkpt>
      <trkpt lat="46.45929" lon="-0.14465">
        <ele>180.8</ele>
        <time>2020-05-30T18:50:03Z</time>
      </trkpt>
      <trkpt lat="46.45927" lon="-0.14474">
        <ele>180.8</ele>
        <time>2020-05-30T18:50:04Z</time>
      </trkpt>
      <trkpt lat="46.45925" lon="-0.14481">
        <ele>180.8</ele>
        <time>2020-05-30T18:50:05Z</time>
      </trkpt>
      <trkpt lat="46.45924" lon="-0.14489">
        <ele>180.8</ele>
        <time>2020-05-30T18:50:06Z</time>
      </trkpt>
      <trkpt lat="46.45922" lon="-0.14496">
        <ele>180.8</ele>
        <time>2020-05-30T18:50:07Z</time>
      </trkpt>
      <trkpt lat="46.4592" lon="-0.14504">
        <ele>180.8</ele>
        <time>2020-05-30T18:50:08Z</time>
      </trkpt>
      <trkpt lat="46.45917" lon="-0.14512">
        <ele>180.7</ele>
        <time>2020-05-30T18:50:09Z</time>
      </trkpt>
      <trkpt lat="46.45915" lon="-0.1452">
        <ele>180.7</ele>
        <time>2020-05-30T18:50:10Z</time>
      </trkpt>
      <trkpt lat="46.45913" lon="-0.14528">
        <ele>180.6</ele>
        <time>2020-05-30T18:50:11Z</time>
      </trkpt>
      <trkpt lat="46.45911" lon="-0.14536">
        <ele>180.6</ele>
        <time>2020-05-30T18:50:12Z</time>
      </trkpt>
      <trkpt lat="46.4591" lon="-0.14544">
        <ele>180.5</ele>
        <time>2020-05-30T18:50:13Z</time>
      </trkpt>
      <trkpt lat="46.45908" lon="-0.14552">
        <ele>180.5</ele>
        <time>2020-05-30T18:50:14Z</time>
      </trkpt>
      <trkpt lat="46.45906" lon="-0.14561">
        <ele>180.5</ele>
        <time>2020-05-30T18:50:15Z</time>
      </trkpt>
      <trkpt lat="46.45904" lon="-0.1457">
        <ele>180.5</ele>
        <time>2020-05-30T18:50:16Z</time>
      </trkpt>
      <trkpt lat="46.45902" lon="-0.14578">
        <ele>180.5</ele>
        <time>2020-05-30T18:50:17Z</time>
      </trkpt>
      <trkpt lat="46.45902" lon="-0.14587">
        <ele>180.4</ele>
        <time>2020-05-30T18:50:18Z</time>
      </trkpt>
      <trkpt lat="46.45902" lon="-0.14598">
        <ele>180.4</ele>
        <time>2020-05-30T18:50:19Z</time>
      </trkpt>
      <trkpt lat="46.45903" lon="-0.14608">
        <ele>180.4</ele>
        <time>2020-05-30T18:50:20Z</time>
      </trkpt>
      <trkpt lat="46.45903" lon="-0.14614">
        <ele>180.4</ele>
        <time>2020-05-30T18:50:21Z</time>
      </trkpt>
      <trkpt lat="46.45903" lon="-0.14621">
        <ele>180.4</ele>
        <time>2020-05-30T18:50:22Z</time>
      </trkpt>
      <trkpt lat="46.45905" lon="-0.14629">
        <ele>180.4</ele>
        <time>2020-05-30T18:50:23Z</time>
      </trkpt>
      <trkpt lat="46.45906" lon="-0.14637">
        <ele>180.4</ele>
        <time>2020-05-30T18:50:24Z</time>
      </trkpt>
      <trkpt lat="46.45907" lon="-0.14644">
        <ele>180.4</ele>
        <time>2020-05-30T18:50:25Z</time>
      </trkpt>
      <trkpt lat="46.45909" lon="-0.14652">
        <ele>180.4</ele>
        <time>2020-05-30T18:50:26Z</time>
      </trkpt>
      <trkpt lat="46.4591" lon="-0.14659">
        <ele>180.4</ele>
        <time>2020-05-30T18:50:27Z</time>
      </trkpt>
      <trkpt lat="46.45914" lon="-0.14667">
        <ele>180.4</ele>
        <time>2020-05-30T18:50:28Z</time>
      </trkpt>
      <trkpt lat="46.45916" lon="-0.14674">
        <ele>180.4</ele>
        <time>2020-05-30T18:50:29Z</time>
      </trkpt>
      <trkpt lat="46.45918" lon="-0.14681">
        <ele>180.4</ele>
        <time>2020-05-30T18:50:30Z</time>
      </trkpt>
      <trkpt lat="46.4592" lon="-0.14689">
        <ele>180.4</ele>
        <time>2020-05-30T18:50:31Z</time>
      </trkpt>
      <trkpt lat="46.45921" lon="-0.14695">
        <ele>180.5</ele>
        <time>2020-05-30T18:50:32Z</time>
      </trkpt>
      <trkpt lat="46.45923" lon="-0.14703">
        <ele>180.5</ele>
        <time>2020-05-30T18:50:33Z</time>
      </trkpt>
      <trkpt lat="46.45925" lon="-0.14707">
        <ele>180.4</ele>
        <time>2020-05-30T18:50:34Z</time>
      </trkpt>
      <trkpt lat="46.45927" lon="-0.14711">
        <ele>180.4</ele>
        <time>2020-05-30T18:50:35Z</time>
      </trkpt>
      <trkpt lat="46.45928" lon="-0.14717">
        <ele>180.4</ele>
        <time>2020-05-30T18:50:36Z</time>
      </trkpt>
      <trkpt lat="46.45929" lon="-0.14724">
        <ele>180.4</ele>
        <time>2020-05-30T18:50:37Z</time>
      </trkpt>
      <trkpt lat="46.45929" lon="-0.14729">
        <ele>180.4</ele>
        <time>2020-05-30T18:50:38Z</time>
      </trkpt>
      <trkpt lat="46.45928" lon="-0.14736">
        <ele>180.3</ele>
        <time>2020-05-30T18:50:39Z</time>
      </trkpt>
      <trkpt lat="46.45927" lon="-0.14742">
        <ele>180.3</ele>
        <time>2020-05-30T18:50:40Z</time>
      </trkpt>
      <trkpt lat="46.45924" lon="-0.14748">
        <ele>180.2</ele>
        <time>2020-05-30T18:50:41Z</time>
      </trkpt>
      <trkpt lat="46.45921" lon="-0.14755">
        <ele>180.1</ele>
        <time>2020-05-30T18:50:42Z</time>
      </trkpt>
      <trkpt lat="46.45918" lon="-0.14759">
        <ele>180.1</ele>
        <time>2020-05-30T18:50:43Z</time>
      </trkpt>
      <trkpt lat="46.45915" lon="-0.14764">
        <ele>180</ele>
        <time>2020-05-30T18:50:44Z</time>
      </trkpt>
      <trkpt lat="46.45912" lon="-0.14767">
        <ele>179.9</ele>
        <time>2020-05-30T18:50:45Z</time>
      </trkpt>
      <trkpt lat="46.45909" lon="-0.14772">
        <ele>179.8</ele>
        <time>2020-05-30T18:50:46Z</time>
      </trkpt>
      <trkpt lat="46.45905" lon="-0.14777">
        <ele>179.7</ele>
        <time>2020-05-30T18:50:47Z</time>
      </trkpt>
      <trkpt lat="46.45902" lon="-0.14781">
        <ele>179.5</ele>
        <time>2020-05-30T18:50:48Z</time>
      </trkpt>
      <trkpt lat="46.45899" lon="-0.14786">
        <ele>179.4</ele>
        <time>2020-05-30T18:50:49Z</time>
      </trkpt>
      <trkpt lat="46.45897" lon="-0.14792">
        <ele>179.3</ele>
        <time>2020-05-30T18:50:50Z</time>
      </trkpt>
      <trkpt lat="46.45894" lon="-0.14797">
        <ele>179.2</ele>
        <time>2020-05-30T18:50:51Z</time>
      </trkpt>
      <trkpt lat="46.4589" lon="-0.14801">
        <ele>179</ele>
        <time>2020-05-30T18:50:52Z</time>
      </trkpt>
      <trkpt lat="46.45887" lon="-0.14804">
        <ele>178.9</ele>
        <time>2020-05-30T18:50:53Z</time>
      </trkpt>
      <trkpt lat="46.45883" lon="-0.14809">
        <ele>178.7</ele>
        <time>2020-05-30T18:50:54Z</time>
      </trkpt>
      <trkpt lat="46.45881" lon="-0.14814">
        <ele>178.6</ele>
        <time>2020-05-30T18:50:55Z</time>
      </trkpt>
      <trkpt lat="46.4588" lon="-0.14818">
        <ele>178.5</ele>
        <time>2020-05-30T18:50:56Z</time>
      </trkpt>
      <trkpt lat="46.45878" lon="-0.14822">
        <ele>178.4</ele>
        <time>2020-05-30T18:50:57Z</time>
      </trkpt>
      <trkpt lat="46.45875" lon="-0.14829">
        <ele>178.2</ele>
        <time>2020-05-30T18:50:58Z</time>
      </trkpt>
      <trkpt lat="46.45873" lon="-0.14833">
        <ele>178.1</ele>
        <time>2020-05-30T18:50:59Z</time>
      </trkpt>
      <trkpt lat="46.4587" lon="-0.14837">
        <ele>178</ele>
        <time>2020-05-30T18:51:00Z</time>
      </trkpt>
      <trkpt lat="46.45867" lon="-0.14842">
        <ele>177.8</ele>
        <time>2020-05-30T18:51:01Z</time>
      </trkpt>
      <trkpt lat="46.45865" lon="-0.14846">
        <ele>177.7</ele>
        <time>2020-05-30T18:51:02Z</time>
      </trkpt>
      <trkpt lat="46.45862" lon="-0.14851">
        <ele>177.5</ele>
        <time>2020-05-30T18:51:03Z</time>
      </trkpt>
      <trkpt lat="46.4586" lon="-0.14856">
        <ele>177.4</ele>
        <time>2020-05-30T18:51:04Z</time>
      </trkpt>
      <trkpt lat="46.45858" lon="-0.1486">
        <ele>177.2</ele>
        <time>2020-05-30T18:51:05Z</time>
      </trkpt>
      <trkpt lat="46.45855" lon="-0.14866">
        <ele>177.1</ele>
        <time>2020-05-30T18:51:06Z</time>
      </trkpt>
      <trkpt lat="46.45852" lon="-0.14871">
        <ele>176.9</ele>
        <time>2020-05-30T18:51:07Z</time>
      </trkpt>
      <trkpt lat="46.45849" lon="-0.14877">
        <ele>176.7</ele>
        <time>2020-05-30T18:51:08Z</time>
      </trkpt>
      <trkpt lat="46.45846" lon="-0.14883">
        <ele>176.5</ele>
        <time>2020-05-30T18:51:09Z</time>
      </trkpt>
      <trkpt lat="46.45843" lon="-0.14888">
        <ele>176.3</ele>
        <time>2020-05-30T18:51:10Z</time>
      </trkpt>
      <trkpt lat="46.45841" lon="-0.14893">
        <ele>176.1</ele>
        <time>2020-05-30T18:51:11Z</time>
      </trkpt>
      <trkpt lat="46.45839" lon="-0.149">
        <ele>175.9</ele>
        <time>2020-05-30T18:51:12Z</time>
      </trkpt>
      <trkpt lat="46.45836" lon="-0.14906">
        <ele>175.7</ele>
        <time>2020-05-30T18:51:13Z</time>
      </trkpt>
      <trkpt lat="46.45833" lon="-0.14913">
        <ele>175.5</ele>
        <time>2020-05-30T18:51:14Z</time>
      </trkpt>
      <trkpt lat="46.4583" lon="-0.1492">
        <ele>175.2</ele>
        <time>2020-05-30T18:51:15Z</time>
      </trkpt>
      <trkpt lat="46.45825" lon="-0.14929">
        <ele>174.9</ele>
        <time>2020-05-30T18:51:16Z</time>
      </trkpt>
      <trkpt lat="46.45822" lon="-0.14935">
        <ele>174.7</ele>
        <time>2020-05-30T18:51:17Z</time>
      </trkpt>
      <trkpt lat="46.45819" lon="-0.14942">
        <ele>174.5</ele>
        <time>2020-05-30T18:51:18Z</time>
      </trkpt>
      <trkpt lat="46.45816" lon="-0.14949">
        <ele>174.3</ele>
        <time>2020-05-30T18:51:19Z</time>
      </trkpt>
      <trkpt lat="46.45813" lon="-0.14956">
        <ele>174.1</ele>
        <time>2020-05-30T18:51:20Z</time>
      </trkpt>
      <trkpt lat="46.45809" lon="-0.14963">
        <ele>173.9</ele>
        <time>2020-05-30T18:51:21Z</time>
      </trkpt>
      <trkpt lat="46.45805" lon="-0.14971">
        <ele>173.6</ele>
        <time>2020-05-30T18:51:22Z</time>
      </trkpt>
      <trkpt lat="46.45801" lon="-0.1498">
        <ele>173.4</ele>
        <time>2020-05-30T18:51:23Z</time>
      </trkpt>
      <trkpt lat="46.45798" lon="-0.14987">
        <ele>173.3</ele>
        <time>2020-05-30T18:51:24Z</time>
      </trkpt>
      <trkpt lat="46.45794" lon="-0.14995">
        <ele>173.1</ele>
        <time>2020-05-30T18:51:25Z</time>
      </trkpt>
      <trkpt lat="46.45789" lon="-0.15003">
        <ele>172.8</ele>
        <time>2020-05-30T18:51:26Z</time>
      </trkpt>
      <trkpt lat="46.45786" lon="-0.15012">
        <ele>172.6</ele>
        <time>2020-05-30T18:51:27Z</time>
      </trkpt>
      <trkpt lat="46.45782" lon="-0.15021">
        <ele>172.3</ele>
        <time>2020-05-30T18:51:28Z</time>
      </trkpt>
      <trkpt lat="46.45778" lon="-0.15029">
        <ele>172.1</ele>
        <time>2020-05-30T18:51:29Z</time>
      </trkpt>
      <trkpt lat="46.45774" lon="-0.15038">
        <ele>171.8</ele>
        <time>2020-05-30T18:51:30Z</time>
      </trkpt>
      <trkpt lat="46.4577" lon="-0.15046">
        <ele>171.5</ele>
        <time>2020-05-30T18:51:31Z</time>
      </trkpt>
      <trkpt lat="46.45766" lon="-0.15055">
        <ele>171.3</ele>
        <time>2020-05-30T18:51:32Z</time>
      </trkpt>
      <trkpt lat="46.45762" lon="-0.15063">
        <ele>171</ele>
        <time>2020-05-30T18:51:33Z</time>
      </trkpt>
      <trkpt lat="46.45758" lon="-0.15071">
        <ele>170.7</ele>
        <time>2020-05-30T18:51:34Z</time>
      </trkpt>
      <trkpt lat="46.45754" lon="-0.15079">
        <ele>170.5</ele>
        <time>2020-05-30T18:51:35Z</time>
      </trkpt>
      <trkpt lat="46.4575" lon="-0.15087">
        <ele>170.2</ele>
        <time>2020-05-30T18:51:36Z</time>
      </trkpt>
      <trkpt lat="46.45746" lon="-0.15094">
        <ele>170</ele>
        <time>2020-05-30T18:51:37Z</time>
      </trkpt>
      <trkpt lat="46.45743" lon="-0.15103">
        <ele>169.8</ele>
        <time>2020-05-30T18:51:38Z</time>
      </trkpt>
      <trkpt lat="46.45739" lon="-0.15112">
        <ele>169.5</ele>
        <time>2020-05-30T18:51:39Z</time>
      </trkpt>
      <trkpt lat="46.45735" lon="-0.15121">
        <ele>169.4</ele>
        <time>2020-05-30T18:51:40Z</time>
      </trkpt>
      <trkpt lat="46.45731" lon="-0.15129">
        <ele>169.2</ele>
        <time>2020-05-30T18:51:41Z</time>
      </trkpt>
      <trkpt lat="46.45727" lon="-0.15138">
        <ele>169</ele>
        <time>2020-05-30T18:51:42Z</time>
      </trkpt>
      <trkpt lat="46.45723" lon="-0.15148">
        <ele>168.7</ele>
        <time>2020-05-30T18:51:43Z</time>
      </trkpt>
      <trkpt lat="46.45718" lon="-0.15157">
        <ele>168.5</ele>
        <time>2020-05-30T18:51:44Z</time>
      </trkpt>
      <trkpt lat="46.45714" lon="-0.15167">
        <ele>168.3</ele>
        <time>2020-05-30T18:51:45Z</time>
      </trkpt>
      <trkpt lat="46.45709" lon="-0.15176">
        <ele>168.2</ele>
        <time>2020-05-30T18:51:46Z</time>
      </trkpt>
      <trkpt lat="46.45705" lon="-0.15186">
        <ele>168</ele>
        <time>2020-05-30T18:51:47Z</time>
      </trkpt>
      <trkpt lat="46.45701" lon="-0.15195">
        <ele>167.8</ele>
        <time>2020-05-30T18:51:48Z</time>
      </trkpt>
      <trkpt lat="46.45697" lon="-0.15204">
        <ele>167.7</ele>
        <time>2020-05-30T18:51:49Z</time>
      </trkpt>
      <trkpt lat="46.45693" lon="-0.15214">
        <ele>167.5</ele>
        <time>2020-05-30T18:51:50Z</time>
      </trkpt>
      <trkpt lat="46.45688" lon="-0.15223">
        <ele>167.4</ele>
        <time>2020-05-30T18:51:51Z</time>
      </trkpt>
      <trkpt lat="46.45683" lon="-0.15232">
        <ele>167.2</ele>
        <time>2020-05-30T18:51:52Z</time>
      </trkpt>
      <trkpt lat="46.45679" lon="-0.15242">
        <ele>167</ele>
        <time>2020-05-30T18:51:53Z</time>
      </trkpt>
      <trkpt lat="46.45675" lon="-0.15252">
        <ele>166.9</ele>
        <time>2020-05-30T18:51:54Z</time>
      </trkpt>
      <trkpt lat="46.45671" lon="-0.15262">
        <ele>166.9</ele>
        <time>2020-05-30T18:51:55Z</time>
      </trkpt>
      <trkpt lat="46.45666" lon="-0.15272">
        <ele>166.8</ele>
        <time>2020-05-30T18:51:56Z</time>
      </trkpt>
      <trkpt lat="46.45662" lon="-0.15282">
        <ele>166.7</ele>
        <time>2020-05-30T18:51:57Z</time>
      </trkpt>
      <trkpt lat="46.45657" lon="-0.15292">
        <ele>166.6</ele>
        <time>2020-05-30T18:51:58Z</time>
      </trkpt>
      <trkpt lat="46.45653" lon="-0.15303">
        <ele>166.5</ele>
        <time>2020-05-30T18:51:59Z</time>
      </trkpt>
      <trkpt lat="46.45649" lon="-0.15313">
        <ele>166.4</ele>
        <time>2020-05-30T18:52:00Z</time>
      </trkpt>
      <trkpt lat="46.45645" lon="-0.15321">
        <ele>166.4</ele>
        <time>2020-05-30T18:52:01Z</time>
      </trkpt>
      <trkpt lat="46.4564" lon="-0.1533">
        <ele>166.3</ele>
        <time>2020-05-30T18:52:02Z</time>
      </trkpt>
      <trkpt lat="46.45634" lon="-0.15339">
        <ele>166.2</ele>
        <time>2020-05-30T18:52:03Z</time>
      </trkpt>
      <trkpt lat="46.45628" lon="-0.15345">
        <ele>166.2</ele>
        <time>2020-05-30T18:52:04Z</time>
      </trkpt>
      <trkpt lat="46.45622" lon="-0.15352">
        <ele>166.2</ele>
        <time>2020-05-30T18:52:05Z</time>
      </trkpt>
      <trkpt lat="46.45616" lon="-0.15358">
        <ele>166.2</ele>
        <time>2020-05-30T18:52:06Z</time>
      </trkpt>
      <trkpt lat="46.45609" lon="-0.15363">
        <ele>166.2</ele>
        <time>2020-05-30T18:52:07Z</time>
      </trkpt>
      <trkpt lat="46.45603" lon="-0.15369">
        <ele>166.2</ele>
        <time>2020-05-30T18:52:08Z</time>
      </trkpt>
      <trkpt lat="46.45597" lon="-0.15375">
        <ele>166.2</ele>
        <time>2020-05-30T18:52:09Z</time>
      </trkpt>
      <trkpt lat="46.45591" lon="-0.1538">
        <ele>166.2</ele>
        <time>2020-05-30T18:52:10Z</time>
      </trkpt>
      <trkpt lat="46.45586" lon="-0.15386">
        <ele>166.2</ele>
        <time>2020-05-30T18:52:11Z</time>
      </trkpt>
      <trkpt lat="46.4558" lon="-0.1539">
        <ele>166.2</ele>
        <time>2020-05-30T18:52:12Z</time>
      </trkpt>
      <trkpt lat="46.45575" lon="-0.15396">
        <ele>166.2</ele>
        <time>2020-05-30T18:52:13Z</time>
      </trkpt>
      <trkpt lat="46.45571" lon="-0.15401">
        <ele>166.2</ele>
        <time>2020-05-30T18:52:14Z</time>
      </trkpt>
      <trkpt lat="46.45565" lon="-0.15406">
        <ele>166.2</ele>
        <time>2020-05-30T18:52:15Z</time>
      </trkpt>
      <trkpt lat="46.45561" lon="-0.15412">
        <ele>166.1</ele>
        <time>2020-05-30T18:52:16Z</time>
      </trkpt>
      <trkpt lat="46.45556" lon="-0.15417">
        <ele>166.1</ele>
        <time>2020-05-30T18:52:17Z</time>
      </trkpt>
      <trkpt lat="46.45552" lon="-0.15423">
        <ele>166.1</ele>
        <time>2020-05-30T18:52:18Z</time>
      </trkpt>
      <trkpt lat="46.45547" lon="-0.15427">
        <ele>166.1</ele>
        <time>2020-05-30T18:52:19Z</time>
      </trkpt>
      <trkpt lat="46.45542" lon="-0.15432">
        <ele>166.1</ele>
        <time>2020-05-30T18:52:20Z</time>
      </trkpt>
      <trkpt lat="46.45537" lon="-0.15437">
        <ele>166.1</ele>
        <time>2020-05-30T18:52:21Z</time>
      </trkpt>
      <trkpt lat="46.45533" lon="-0.15442">
        <ele>166.1</ele>
        <time>2020-05-30T18:52:22Z</time>
      </trkpt>
      <trkpt lat="46.45528" lon="-0.15447">
        <ele>166.1</ele>
        <time>2020-05-30T18:52:23Z</time>
      </trkpt>
      <trkpt lat="46.45523" lon="-0.15452">
        <ele>166</ele>
        <time>2020-05-30T18:52:24Z</time>
      </trkpt>
      <trkpt lat="46.45518" lon="-0.15458">
        <ele>166</ele>
        <time>2020-05-30T18:52:25Z</time>
      </trkpt>
      <trkpt lat="46.45514" lon="-0.15463">
        <ele>166</ele>
        <time>2020-05-30T18:52:26Z</time>
      </trkpt>
      <trkpt lat="46.45509" lon="-0.15468">
        <ele>165.9</ele>
        <time>2020-05-30T18:52:27Z</time>
      </trkpt>
      <trkpt lat="46.45504" lon="-0.15472">
        <ele>165.8</ele>
        <time>2020-05-30T18:52:28Z</time>
      </trkpt>
      <trkpt lat="46.455" lon="-0.15477">
        <ele>165.8</ele>
        <time>2020-05-30T18:52:29Z</time>
      </trkpt>
      <trkpt lat="46.45495" lon="-0.15481">
        <ele>165.7</ele>
        <time>2020-05-30T18:52:30Z</time>
      </trkpt>
      <trkpt lat="46.4549" lon="-0.15486">
        <ele>165.7</ele>
        <time>2020-05-30T18:52:31Z</time>
      </trkpt>
      <trkpt lat="46.45485" lon="-0.1549">
        <ele>165.6</ele>
        <time>2020-05-30T18:52:32Z</time>
      </trkpt>
      <trkpt lat="46.4548" lon="-0.15494">
        <ele>165.5</ele>
        <time>2020-05-30T18:52:33Z</time>
      </trkpt>
      <trkpt lat="46.45475" lon="-0.15498">
        <ele>165.5</ele>
        <time>2020-05-30T18:52:34Z</time>
      </trkpt>
      <trkpt lat="46.45469" lon="-0.15502">
        <ele>165.5</ele>
        <time>2020-05-30T18:52:35Z</time>
      </trkpt>
      <trkpt lat="46.45464" lon="-0.15505">
        <ele>165.5</ele>
        <time>2020-05-30T18:52:36Z</time>
      </trkpt>
      <trkpt lat="46.45459" lon="-0.15509">
        <ele>165.5</ele>
        <time>2020-05-30T18:52:37Z</time>
      </trkpt>
      <trkpt lat="46.45455" lon="-0.15512">
        <ele>165.5</ele>
        <time>2020-05-30T18:52:38Z</time>
      </trkpt>
      <trkpt lat="46.4545" lon="-0.15517">
        <ele>165.4</ele>
        <time>2020-05-30T18:52:39Z</time>
      </trkpt>
      <trkpt lat="46.45445" lon="-0.1552">
        <ele>165.4</ele>
        <time>2020-05-30T18:52:40Z</time>
      </trkpt>
      <trkpt lat="46.4544" lon="-0.15524">
        <ele>165.4</ele>
        <time>2020-05-30T18:52:41Z</time>
      </trkpt>
      <trkpt lat="46.45436" lon="-0.15527">
        <ele>165.4</ele>
        <time>2020-05-30T18:52:42Z</time>
      </trkpt>
      <trkpt lat="46.45431" lon="-0.1553">
        <ele>165.4</ele>
        <time>2020-05-30T18:52:43Z</time>
      </trkpt>
      <trkpt lat="46.45426" lon="-0.15534">
        <ele>165.4</ele>
        <time>2020-05-30T18:52:44Z</time>
      </trkpt>
      <trkpt lat="46.45422" lon="-0.15537">
        <ele>165.4</ele>
        <time>2020-05-30T18:52:45Z</time>
      </trkpt>
      <trkpt lat="46.45418" lon="-0.15541">
        <ele>165.4</ele>
        <time>2020-05-30T18:52:46Z</time>
      </trkpt>
      <trkpt lat="46.45414" lon="-0.15544">
        <ele>165.3</ele>
        <time>2020-05-30T18:52:47Z</time>
      </trkpt>
      <trkpt lat="46.4541" lon="-0.15548">
        <ele>165.3</ele>
        <time>2020-05-30T18:52:48Z</time>
      </trkpt>
      <trkpt lat="46.45406" lon="-0.15551">
        <ele>165.3</ele>
        <time>2020-05-30T18:52:49Z</time>
      </trkpt>
      <trkpt lat="46.45403" lon="-0.15554">
        <ele>165.3</ele>
        <time>2020-05-30T18:52:50Z</time>
      </trkpt>
      <trkpt lat="46.45399" lon="-0.15556">
        <ele>165.2</ele>
        <time>2020-05-30T18:52:51Z</time>
      </trkpt>
      <trkpt lat="46.45396" lon="-0.1556">
        <ele>165.2</ele>
        <time>2020-05-30T18:52:52Z</time>
      </trkpt>
      <trkpt lat="46.45392" lon="-0.15562">
        <ele>165.2</ele>
        <time>2020-05-30T18:52:53Z</time>
      </trkpt>
      <trkpt lat="46.45389" lon="-0.15565">
        <ele>165.1</ele>
        <time>2020-05-30T18:52:54Z</time>
      </trkpt>
      <trkpt lat="46.45385" lon="-0.15568">
        <ele>165.1</ele>
        <time>2020-05-30T18:52:55Z</time>
      </trkpt>
      <trkpt lat="46.45382" lon="-0.15571">
        <ele>165.1</ele>
        <time>2020-05-30T18:52:56Z</time>
      </trkpt>
      <trkpt lat="46.45378" lon="-0.15574">
        <ele>165</ele>
        <time>2020-05-30T18:52:57Z</time>
      </trkpt>
      <trkpt lat="46.45375" lon="-0.15577">
        <ele>165</ele>
        <time>2020-05-30T18:52:58Z</time>
      </trkpt>
      <trkpt lat="46.45371" lon="-0.15579">
        <ele>165</ele>
        <time>2020-05-30T18:52:59Z</time>
      </trkpt>
      <trkpt lat="46.45368" lon="-0.15582">
        <ele>164.9</ele>
        <time>2020-05-30T18:53:00Z</time>
      </trkpt>
      <trkpt lat="46.45365" lon="-0.15584">
        <ele>164.9</ele>
        <time>2020-05-30T18:53:01Z</time>
      </trkpt>
      <trkpt lat="46.45362" lon="-0.15586">
        <ele>164.9</ele>
        <time>2020-05-30T18:53:02Z</time>
      </trkpt>
      <trkpt lat="46.45359" lon="-0.15589">
        <ele>164.9</ele>
        <time>2020-05-30T18:53:03Z</time>
      </trkpt>
      <trkpt lat="46.45355" lon="-0.15589">
        <ele>164.8</ele>
        <time>2020-05-30T18:53:04Z</time>
      </trkpt>
      <trkpt lat="46.45352" lon="-0.15592">
        <ele>164.8</ele>
        <time>2020-05-30T18:53:05Z</time>
      </trkpt>
      <trkpt lat="46.45349" lon="-0.15594">
        <ele>164.8</ele>
        <time>2020-05-30T18:53:06Z</time>
      </trkpt>
      <trkpt lat="46.45346" lon="-0.15596">
        <ele>164.8</ele>
        <time>2020-05-30T18:53:07Z</time>
      </trkpt>
      <trkpt lat="46.45343" lon="-0.15599">
        <ele>164.8</ele>
        <time>2020-05-30T18:53:08Z</time>
      </trkpt>
      <trkpt lat="46.4534" lon="-0.15601">
        <ele>164.7</ele>
        <time>2020-05-30T18:53:09Z</time>
      </trkpt>
      <trkpt lat="46.45337" lon="-0.15603">
        <ele>164.7</ele>
        <time>2020-05-30T18:53:10Z</time>
      </trkpt>
      <trkpt lat="46.45334" lon="-0.15606">
        <ele>164.7</ele>
        <time>2020-05-30T18:53:11Z</time>
      </trkpt>
      <trkpt lat="46.4533" lon="-0.15607">
        <ele>164.7</ele>
        <time>2020-05-30T18:53:12Z</time>
      </trkpt>
      <trkpt lat="46.45327" lon="-0.15609">
        <ele>164.7</ele>
        <time>2020-05-30T18:53:13Z</time>
      </trkpt>
      <trkpt lat="46.45323" lon="-0.15611">
        <ele>164.7</ele>
        <time>2020-05-30T18:53:14Z</time>
      </trkpt>
      <trkpt lat="46.45319" lon="-0.15614">
        <ele>164.6</ele>
        <time>2020-05-30T18:53:15Z</time>
      </trkpt>
      <trkpt lat="46.45315" lon="-0.15616">
        <ele>164.6</ele>
        <time>2020-05-30T18:53:16Z</time>
      </trkpt>
      <trkpt lat="46.45311" lon="-0.15618">
        <ele>164.6</ele>
        <time>2020-05-30T18:53:17Z</time>
      </trkpt>
      <trkpt lat="46.45307" lon="-0.15621">
        <ele>164.6</ele>
        <time>2020-05-30T18:53:18Z</time>
      </trkpt>
      <trkpt lat="46.45303" lon="-0.15623">
        <ele>164.5</ele>
        <time>2020-05-30T18:53:19Z</time>
      </trkpt>
      <trkpt lat="46.45299" lon="-0.15625">
        <ele>164.5</ele>
        <time>2020-05-30T18:53:20Z</time>
      </trkpt>
      <trkpt lat="46.45295" lon="-0.15628">
        <ele>164.5</ele>
        <time>2020-05-30T18:53:21Z</time>
      </trkpt>
      <trkpt lat="46.45291" lon="-0.15628">
        <ele>164.4</ele>
        <time>2020-05-30T18:53:22Z</time>
      </trkpt>
      <trkpt lat="46.45286" lon="-0.15629">
        <ele>164.4</ele>
        <time>2020-05-30T18:53:23Z</time>
      </trkpt>
      <trkpt lat="46.45282" lon="-0.15632">
        <ele>164.3</ele>
        <time>2020-05-30T18:53:24Z</time>
      </trkpt>
      <trkpt lat="46.45278" lon="-0.15634">
        <ele>164.3</ele>
        <time>2020-05-30T18:53:25Z</time>
      </trkpt>
      <trkpt lat="46.45273" lon="-0.15634">
        <ele>164.3</ele>
        <time>2020-05-30T18:53:26Z</time>
      </trkpt>
      <trkpt lat="46.45269" lon="-0.15636">
        <ele>164.3</ele>
        <time>2020-05-30T18:53:27Z</time>
      </trkpt>
      <trkpt lat="46.45264" lon="-0.15637">
        <ele>164.3</ele>
        <time>2020-05-30T18:53:28Z</time>
      </trkpt>
      <trkpt lat="46.45259" lon="-0.15639">
        <ele>164.3</ele>
        <time>2020-05-30T18:53:29Z</time>
      </trkpt>
      <trkpt lat="46.45255" lon="-0.15641">
        <ele>164.4</ele>
        <time>2020-05-30T18:53:30Z</time>
      </trkpt>
      <trkpt lat="46.4525" lon="-0.15643">
        <ele>164.4</ele>
        <time>2020-05-30T18:53:31Z</time>
      </trkpt>
      <trkpt lat="46.45246" lon="-0.15645">
        <ele>164.4</ele>
        <time>2020-05-30T18:53:32Z</time>
      </trkpt>
      <trkpt lat="46.45241" lon="-0.15647">
        <ele>164.5</ele>
        <time>2020-05-30T18:53:33Z</time>
      </trkpt>
      <trkpt lat="46.45236" lon="-0.15649">
        <ele>164.5</ele>
        <time>2020-05-30T18:53:34Z</time>
      </trkpt>
      <trkpt lat="46.45232" lon="-0.15651">
        <ele>164.5</ele>
        <time>2020-05-30T18:53:35Z</time>
      </trkpt>
      <trkpt lat="46.45227" lon="-0.15653">
        <ele>164.5</ele>
        <time>2020-05-30T18:53:36Z</time>
      </trkpt>
      <trkpt lat="46.45223" lon="-0.15654">
        <ele>164.5</ele>
        <time>2020-05-30T18:53:37Z</time>
      </trkpt>
      <trkpt lat="46.45218" lon="-0.15656">
        <ele>164.4</ele>
        <time>2020-05-30T18:53:38Z</time>
      </trkpt>
      <trkpt lat="46.45214" lon="-0.15657">
        <ele>164.4</ele>
        <time>2020-05-30T18:53:39Z</time>
      </trkpt>
      <trkpt lat="46.45209" lon="-0.15659">
        <ele>164.3</ele>
        <time>2020-05-30T18:53:40Z</time>
      </trkpt>
      <trkpt lat="46.45205" lon="-0.15661">
        <ele>164.2</ele>
        <time>2020-05-30T18:53:41Z</time>
      </trkpt>
      <trkpt lat="46.45201" lon="-0.15663">
        <ele>164.2</ele>
        <time>2020-05-30T18:53:42Z</time>
      </trkpt>
      <trkpt lat="46.45196" lon="-0.15662">
        <ele>164.1</ele>
        <time>2020-05-30T18:53:43Z</time>
      </trkpt>
      <trkpt lat="46.45192" lon="-0.15664">
        <ele>164.1</ele>
        <time>2020-05-30T18:53:44Z</time>
      </trkpt>
      <trkpt lat="46.45188" lon="-0.15666">
        <ele>164</ele>
        <time>2020-05-30T18:53:45Z</time>
      </trkpt>
      <trkpt lat="46.45185" lon="-0.15669">
        <ele>164</ele>
        <time>2020-05-30T18:53:46Z</time>
      </trkpt>
      <trkpt lat="46.45183" lon="-0.15673">
        <ele>164</ele>
        <time>2020-05-30T18:53:47Z</time>
      </trkpt>
      <trkpt lat="46.45178" lon="-0.15674">
        <ele>164</ele>
        <time>2020-05-30T18:53:48Z</time>
      </trkpt>
      <trkpt lat="46.45175" lon="-0.15677">
        <ele>163.9</ele>
        <time>2020-05-30T18:53:49Z</time>
      </trkpt>
      <trkpt lat="46.45171" lon="-0.15679">
        <ele>163.9</ele>
        <time>2020-05-30T18:53:50Z</time>
      </trkpt>
      <trkpt lat="46.45167" lon="-0.15681">
        <ele>163.9</ele>
        <time>2020-05-30T18:53:51Z</time>
      </trkpt>
      <trkpt lat="46.45163" lon="-0.15684">
        <ele>163.9</ele>
        <time>2020-05-30T18:53:52Z</time>
      </trkpt>
      <trkpt lat="46.45158" lon="-0.15686">
        <ele>163.8</ele>
        <time>2020-05-30T18:53:53Z</time>
      </trkpt>
      <trkpt lat="46.45154" lon="-0.15689">
        <ele>163.8</ele>
        <time>2020-05-30T18:53:54Z</time>
      </trkpt>
      <trkpt lat="46.4515" lon="-0.15693">
        <ele>163.8</ele>
        <time>2020-05-30T18:53:55Z</time>
      </trkpt>
      <trkpt lat="46.45146" lon="-0.15696">
        <ele>163.8</ele>
        <time>2020-05-30T18:53:56Z</time>
      </trkpt>
      <trkpt lat="46.45142" lon="-0.15699">
        <ele>163.8</ele>
        <time>2020-05-30T18:53:57Z</time>
      </trkpt>
      <trkpt lat="46.45137" lon="-0.15702">
        <ele>163.7</ele>
        <time>2020-05-30T18:53:58Z</time>
      </trkpt>
      <trkpt lat="46.45133" lon="-0.15704">
        <ele>163.7</ele>
        <time>2020-05-30T18:53:59Z</time>
      </trkpt>
      <trkpt lat="46.45129" lon="-0.15706">
        <ele>163.7</ele>
        <time>2020-05-30T18:54:00Z</time>
      </trkpt>
      <trkpt lat="46.45125" lon="-0.15708">
        <ele>163.7</ele>
        <time>2020-05-30T18:54:01Z</time>
      </trkpt>
      <trkpt lat="46.45121" lon="-0.1571">
        <ele>163.7</ele>
        <time>2020-05-30T18:54:02Z</time>
      </trkpt>
      <trkpt lat="46.45117" lon="-0.15713">
        <ele>163.7</ele>
        <time>2020-05-30T18:54:03Z</time>
      </trkpt>
      <trkpt lat="46.45114" lon="-0.15717">
        <ele>163.8</ele>
        <time>2020-05-30T18:54:04Z</time>
      </trkpt>
      <trkpt lat="46.45111" lon="-0.15721">
        <ele>163.8</ele>
        <time>2020-05-30T18:54:05Z</time>
      </trkpt>
      <trkpt lat="46.45108" lon="-0.15725">
        <ele>163.8</ele>
        <time>2020-05-30T18:54:06Z</time>
      </trkpt>
      <trkpt lat="46.45104" lon="-0.15729">
        <ele>163.8</ele>
        <time>2020-05-30T18:54:07Z</time>
      </trkpt>
      <trkpt lat="46.45101" lon="-0.15732">
        <ele>163.9</ele>
        <time>2020-05-30T18:54:08Z</time>
      </trkpt>
      <trkpt lat="46.45098" lon="-0.15736">
        <ele>163.9</ele>
        <time>2020-05-30T18:54:09Z</time>
      </trkpt>
      <trkpt lat="46.45095" lon="-0.15738">
        <ele>163.9</ele>
        <time>2020-05-30T18:54:10Z</time>
      </trkpt>
      <trkpt lat="46.45092" lon="-0.1574">
        <ele>164</ele>
        <time>2020-05-30T18:54:11Z</time>
      </trkpt>
      <trkpt lat="46.45089" lon="-0.15743">
        <ele>164</ele>
        <time>2020-05-30T18:54:12Z</time>
      </trkpt>
      <trkpt lat="46.45086" lon="-0.15746">
        <ele>164</ele>
        <time>2020-05-30T18:54:13Z</time>
      </trkpt>
      <trkpt lat="46.45082" lon="-0.15749">
        <ele>164.1</ele>
        <time>2020-05-30T18:54:14Z</time>
      </trkpt>
      <trkpt lat="46.45079" lon="-0.15753">
        <ele>164.2</ele>
        <time>2020-05-30T18:54:15Z</time>
      </trkpt>
      <trkpt lat="46.45076" lon="-0.15758">
        <ele>164.2</ele>
        <time>2020-05-30T18:54:16Z</time>
      </trkpt>
      <trkpt lat="46.45073" lon="-0.15762">
        <ele>164.3</ele>
        <time>2020-05-30T18:54:17Z</time>
      </trkpt>
      <trkpt lat="46.45069" lon="-0.15767">
        <ele>164.4</ele>
        <time>2020-05-30T18:54:18Z</time>
      </trkpt>
      <trkpt lat="46.45066" lon="-0.15772">
        <ele>164.5</ele>
        <time>2020-05-30T18:54:19Z</time>
      </trkpt>
      <trkpt lat="46.45063" lon="-0.15777">
        <ele>164.6</ele>
        <time>2020-05-30T18:54:20Z</time>
      </trkpt>
      <trkpt lat="46.4506" lon="-0.15783">
        <ele>164.7</ele>
        <time>2020-05-30T18:54:21Z</time>
      </trkpt>
      <trkpt lat="46.45057" lon="-0.15789">
        <ele>164.8</ele>
        <time>2020-05-30T18:54:22Z</time>
      </trkpt>
      <trkpt lat="46.45054" lon="-0.15796">
        <ele>164.9</ele>
        <time>2020-05-30T18:54:23Z</time>
      </trkpt>
      <trkpt lat="46.45052" lon="-0.15803">
        <ele>165.1</ele>
        <time>2020-05-30T18:54:24Z</time>
      </trkpt>
      <trkpt lat="46.4505" lon="-0.1581">
        <ele>165.2</ele>
        <time>2020-05-30T18:54:25Z</time>
      </trkpt>
      <trkpt lat="46.45049" lon="-0.15817">
        <ele>165.4</ele>
        <time>2020-05-30T18:54:26Z</time>
      </trkpt>
      <trkpt lat="46.45048" lon="-0.15824">
        <ele>165.5</ele>
        <time>2020-05-30T18:54:27Z</time>
      </trkpt>
      <trkpt lat="46.45047" lon="-0.1583">
        <ele>165.7</ele>
        <time>2020-05-30T18:54:28Z</time>
      </trkpt>
      <trkpt lat="46.45046" lon="-0.15836">
        <ele>165.8</ele>
        <time>2020-05-30T18:54:29Z</time>
      </trkpt>
      <trkpt lat="46.45045" lon="-0.15843">
        <ele>165.9</ele>
        <time>2020-05-30T18:54:30Z</time>
      </trkpt>
      <trkpt lat="46.45044" lon="-0.15849">
        <ele>166.1</ele>
        <time>2020-05-30T18:54:31Z</time>
      </trkpt>
      <trkpt lat="46.45042" lon="-0.15855">
        <ele>166.2</ele>
        <time>2020-05-30T18:54:32Z</time>
      </trkpt>
      <trkpt lat="46.45041" lon="-0.15861">
        <ele>166.3</ele>
        <time>2020-05-30T18:54:33Z</time>
      </trkpt>
      <trkpt lat="46.45041" lon="-0.15867">
        <ele>166.5</ele>
        <time>2020-05-30T18:54:34Z</time>
      </trkpt>
      <trkpt lat="46.4504" lon="-0.15874">
        <ele>166.6</ele>
        <time>2020-05-30T18:54:35Z</time>
      </trkpt>
      <trkpt lat="46.45039" lon="-0.15881">
        <ele>166.8</ele>
        <time>2020-05-30T18:54:36Z</time>
      </trkpt>
      <trkpt lat="46.45038" lon="-0.15887">
        <ele>167</ele>
        <time>2020-05-30T18:54:37Z</time>
      </trkpt>
      <trkpt lat="46.45035" lon="-0.15893">
        <ele>167.2</ele>
        <time>2020-05-30T18:54:38Z</time>
      </trkpt>
      <trkpt lat="46.45034" lon="-0.15899">
        <ele>167.3</ele>
        <time>2020-05-30T18:54:39Z</time>
      </trkpt>
      <trkpt lat="46.45033" lon="-0.15905">
        <ele>167.5</ele>
        <time>2020-05-30T18:54:40Z</time>
      </trkpt>
      <trkpt lat="46.45034" lon="-0.15911">
        <ele>167.6</ele>
        <time>2020-05-30T18:54:41Z</time>
      </trkpt>
      <trkpt lat="46.45034" lon="-0.15916">
        <ele>167.8</ele>
        <time>2020-05-30T18:54:42Z</time>
      </trkpt>
      <trkpt lat="46.45033" lon="-0.15922">
        <ele>167.9</ele>
        <time>2020-05-30T18:54:43Z</time>
      </trkpt>
      <trkpt lat="46.45032" lon="-0.15928">
        <ele>168</ele>
        <time>2020-05-30T18:54:44Z</time>
      </trkpt>
      <trkpt lat="46.45031" lon="-0.15934">
        <ele>168.2</ele>
        <time>2020-05-30T18:54:45Z</time>
      </trkpt>
      <trkpt lat="46.45031" lon="-0.15941">
        <ele>168.3</ele>
        <time>2020-05-30T18:54:46Z</time>
      </trkpt>
      <trkpt lat="46.4503" lon="-0.15947">
        <ele>168.4</ele>
        <time>2020-05-30T18:54:47Z</time>
      </trkpt>
      <trkpt lat="46.4503" lon="-0.15953">
        <ele>168.6</ele>
        <time>2020-05-30T18:54:48Z</time>
      </trkpt>
      <trkpt lat="46.4503" lon="-0.1596">
        <ele>168.8</ele>
        <time>2020-05-30T18:54:49Z</time>
      </trkpt>
      <trkpt lat="46.45029" lon="-0.15967">
        <ele>168.9</ele>
        <time>2020-05-30T18:54:50Z</time>
      </trkpt>
      <trkpt lat="46.45028" lon="-0.15973">
        <ele>169</ele>
        <time>2020-05-30T18:54:51Z</time>
      </trkpt>
      <trkpt lat="46.45027" lon="-0.15978">
        <ele>169.1</ele>
        <time>2020-05-30T18:54:52Z</time>
      </trkpt>
      <trkpt lat="46.45025" lon="-0.15981">
        <ele>169.2</ele>
        <time>2020-05-30T18:54:53Z</time>
      </trkpt>
      <trkpt lat="46.45022" lon="-0.15986">
        <ele>169.3</ele>
        <time>2020-05-30T18:54:54Z</time>
      </trkpt>
      <trkpt lat="46.45019" lon="-0.15991">
        <ele>169.4</ele>
        <time>2020-05-30T18:54:55Z</time>
      </trkpt>
      <trkpt lat="46.45017" lon="-0.15996">
        <ele>169.5</ele>
        <time>2020-05-30T18:54:56Z</time>
      </trkpt>
      <trkpt lat="46.45013" lon="-0.16001">
        <ele>169.6</ele>
        <time>2020-05-30T18:54:57Z</time>
      </trkpt>
      <trkpt lat="46.45009" lon="-0.16006">
        <ele>169.8</ele>
        <time>2020-05-30T18:54:58Z</time>
      </trkpt>
      <trkpt lat="46.45006" lon="-0.16009">
        <ele>169.9</ele>
        <time>2020-05-30T18:54:59Z</time>
      </trkpt>
      <trkpt lat="46.45003" lon="-0.16013">
        <ele>170</ele>
        <time>2020-05-30T18:55:00Z</time>
      </trkpt>
      <trkpt lat="46.45" lon="-0.16017">
        <ele>170.1</ele>
        <time>2020-05-30T18:55:01Z</time>
      </trkpt>
      <trkpt lat="46.44997" lon="-0.16019">
        <ele>170.2</ele>
        <time>2020-05-30T18:55:02Z</time>
      </trkpt>
      <trkpt lat="46.44995" lon="-0.16022">
        <ele>170.3</ele>
        <time>2020-05-30T18:55:03Z</time>
      </trkpt>
      <trkpt lat="46.4499" lon="-0.16024">
        <ele>170.4</ele>
        <time>2020-05-30T18:55:04Z</time>
      </trkpt>
      <trkpt lat="46.44989" lon="-0.16024">
        <ele>170.4</ele>
        <time>2020-05-30T18:55:05Z</time>
      </trkpt>
      <trkpt lat="46.44985" lon="-0.16027">
        <ele>170.5</ele>
        <time>2020-05-30T18:55:06Z</time>
      </trkpt>
      <trkpt lat="46.44981" lon="-0.1603">
        <ele>170.7</ele>
        <time>2020-05-30T18:55:07Z</time>
      </trkpt>
      <trkpt lat="46.44977" lon="-0.16033">
        <ele>170.8</ele>
        <time>2020-05-30T18:55:08Z</time>
      </trkpt>
      <trkpt lat="46.44974" lon="-0.16035">
        <ele>170.9</ele>
        <time>2020-05-30T18:55:09Z</time>
      </trkpt>
      <trkpt lat="46.4497" lon="-0.16038">
        <ele>171</ele>
        <time>2020-05-30T18:55:10Z</time>
      </trkpt>
      <trkpt lat="46.44967" lon="-0.16041">
        <ele>171.1</ele>
        <time>2020-05-30T18:55:11Z</time>
      </trkpt>
      <trkpt lat="46.44966" lon="-0.16042">
        <ele>171.1</ele>
        <time>2020-05-30T18:55:12Z</time>
      </trkpt>
      <trkpt lat="46.44963" lon="-0.16043">
        <ele>171.2</ele>
        <time>2020-05-30T18:55:13Z</time>
      </trkpt>
      <trkpt lat="46.4496" lon="-0.16045">
        <ele>171.3</ele>
        <time>2020-05-30T18:55:14Z</time>
      </trkpt>
      <trkpt lat="46.44957" lon="-0.16049">
        <ele>171.4</ele>
        <time>2020-05-30T18:55:15Z</time>
      </trkpt>
      <trkpt lat="46.44955" lon="-0.1605">
        <ele>171.5</ele>
        <time>2020-05-30T18:55:16Z</time>
      </trkpt>
      <trkpt lat="46.44952" lon="-0.16052">
        <ele>171.6</ele>
        <time>2020-05-30T18:55:17Z</time>
      </trkpt>
      <trkpt lat="46.44949" lon="-0.16054">
        <ele>171.7</ele>
        <time>2020-05-30T18:55:18Z</time>
      </trkpt>
      <trkpt lat="46.44945" lon="-0.16057">
        <ele>171.8</ele>
        <time>2020-05-30T18:55:19Z</time>
      </trkpt>
      <trkpt lat="46.44941" lon="-0.16059">
        <ele>171.9</ele>
        <time>2020-05-30T18:55:20Z</time>
      </trkpt>
      <trkpt lat="46.44937" lon="-0.16062">
        <ele>172</ele>
        <time>2020-05-30T18:55:21Z</time>
      </trkpt>
      <trkpt lat="46.44934" lon="-0.16064">
        <ele>172.1</ele>
        <time>2020-05-30T18:55:22Z</time>
      </trkpt>
      <trkpt lat="46.44931" lon="-0.16067">
        <ele>172.2</ele>
        <time>2020-05-30T18:55:23Z</time>
      </trkpt>
      <trkpt lat="46.44927" lon="-0.16069">
        <ele>172.3</ele>
        <time>2020-05-30T18:55:24Z</time>
      </trkpt>
      <trkpt lat="46.44924" lon="-0.16071">
        <ele>172.4</ele>
        <time>2020-05-30T18:55:25Z</time>
      </trkpt>
      <trkpt lat="46.44921" lon="-0.16074">
        <ele>172.5</ele>
        <time>2020-05-30T18:55:26Z</time>
      </trkpt>
      <trkpt lat="46.44915" lon="-0.16077">
        <ele>172.6</ele>
        <time>2020-05-30T18:55:27Z</time>
      </trkpt>
      <trkpt lat="46.44911" lon="-0.16081">
        <ele>172.8</ele>
        <time>2020-05-30T18:55:28Z</time>
      </trkpt>
      <trkpt lat="46.44907" lon="-0.16084">
        <ele>172.9</ele>
        <time>2020-05-30T18:55:29Z</time>
      </trkpt>
      <trkpt lat="46.44903" lon="-0.16086">
        <ele>173</ele>
        <time>2020-05-30T18:55:30Z</time>
      </trkpt>
      <trkpt lat="46.449" lon="-0.16088">
        <ele>173.1</ele>
        <time>2020-05-30T18:55:31Z</time>
      </trkpt>
      <trkpt lat="46.44897" lon="-0.16091">
        <ele>173.2</ele>
        <time>2020-05-30T18:55:32Z</time>
      </trkpt>
      <trkpt lat="46.44893" lon="-0.16094">
        <ele>173.2</ele>
        <time>2020-05-30T18:55:33Z</time>
      </trkpt>
      <trkpt lat="46.44892" lon="-0.16095">
        <ele>173.3</ele>
        <time>2020-05-30T18:55:34Z</time>
      </trkpt>
      <trkpt lat="46.44888" lon="-0.16097">
        <ele>173.3</ele>
        <time>2020-05-30T18:55:35Z</time>
      </trkpt>
      <trkpt lat="46.44887" lon="-0.16098">
        <ele>173.4</ele>
        <time>2020-05-30T18:55:36Z</time>
      </trkpt>
      <trkpt lat="46.44884" lon="-0.16101">
        <ele>173.5</ele>
        <time>2020-05-30T18:55:37Z</time>
      </trkpt>
      <trkpt lat="46.44881" lon="-0.16102">
        <ele>173.5</ele>
        <time>2020-05-30T18:55:38Z</time>
      </trkpt>
      <trkpt lat="46.44878" lon="-0.16104">
        <ele>173.6</ele>
        <time>2020-05-30T18:55:39Z</time>
      </trkpt>
      <trkpt lat="46.44873" lon="-0.16106">
        <ele>173.7</ele>
        <time>2020-05-30T18:55:40Z</time>
      </trkpt>
      <trkpt lat="46.44869" lon="-0.16109">
        <ele>173.7</ele>
        <time>2020-05-30T18:55:41Z</time>
      </trkpt>
      <trkpt lat="46.44864" lon="-0.16113">
        <ele>173.8</ele>
        <time>2020-05-30T18:55:42Z</time>
      </trkpt>
      <trkpt lat="46.4486" lon="-0.16116">
        <ele>173.8</ele>
        <time>2020-05-30T18:55:43Z</time>
      </trkpt>
      <trkpt lat="46.44857" lon="-0.16118">
        <ele>173.8</ele>
        <time>2020-05-30T18:55:44Z</time>
      </trkpt>
      <trkpt lat="46.44854" lon="-0.16122">
        <ele>173.9</ele>
        <time>2020-05-30T18:55:45Z</time>
      </trkpt>
      <trkpt lat="46.4485" lon="-0.16125">
        <ele>173.9</ele>
        <time>2020-05-30T18:55:46Z</time>
      </trkpt>
      <trkpt lat="46.44847" lon="-0.16129">
        <ele>174</ele>
        <time>2020-05-30T18:55:47Z</time>
      </trkpt>
      <trkpt lat="46.44843" lon="-0.16133">
        <ele>174</ele>
        <time>2020-05-30T18:55:48Z</time>
      </trkpt>
      <trkpt lat="46.4484" lon="-0.16137">
        <ele>174.1</ele>
        <time>2020-05-30T18:55:49Z</time>
      </trkpt>
      <trkpt lat="46.44836" lon="-0.1614">
        <ele>174.2</ele>
        <time>2020-05-30T18:55:50Z</time>
      </trkpt>
      <trkpt lat="46.44832" lon="-0.16143">
        <ele>174.2</ele>
        <time>2020-05-30T18:55:51Z</time>
      </trkpt>
      <trkpt lat="46.44829" lon="-0.16146">
        <ele>174.3</ele>
        <time>2020-05-30T18:55:52Z</time>
      </trkpt>
      <trkpt lat="46.44826" lon="-0.16147">
        <ele>174.4</ele>
        <time>2020-05-30T18:55:53Z</time>
      </trkpt>
      <trkpt lat="46.44823" lon="-0.1615">
        <ele>174.5</ele>
        <time>2020-05-30T18:55:54Z</time>
      </trkpt>
      <trkpt lat="46.4482" lon="-0.16154">
        <ele>174.6</ele>
        <time>2020-05-30T18:55:55Z</time>
      </trkpt>
      <trkpt lat="46.44817" lon="-0.16156">
        <ele>174.7</ele>
        <time>2020-05-30T18:55:56Z</time>
      </trkpt>
      <trkpt lat="46.44814" lon="-0.1616">
        <ele>174.8</ele>
        <time>2020-05-30T18:55:57Z</time>
      </trkpt>
      <trkpt lat="46.44811" lon="-0.16163">
        <ele>174.9</ele>
        <time>2020-05-30T18:55:58Z</time>
      </trkpt>
      <trkpt lat="46.44809" lon="-0.16166">
        <ele>174.9</ele>
        <time>2020-05-30T18:55:59Z</time>
      </trkpt>
      <trkpt lat="46.44806" lon="-0.16168">
        <ele>175</ele>
        <time>2020-05-30T18:56:00Z</time>
      </trkpt>
      <trkpt lat="46.44803" lon="-0.1617">
        <ele>175.1</ele>
        <time>2020-05-30T18:56:01Z</time>
      </trkpt>
      <trkpt lat="46.44799" lon="-0.16172">
        <ele>175.1</ele>
        <time>2020-05-30T18:56:02Z</time>
      </trkpt>
      <trkpt lat="46.44796" lon="-0.16174">
        <ele>175.2</ele>
        <time>2020-05-30T18:56:03Z</time>
      </trkpt>
      <trkpt lat="46.44795" lon="-0.16178">
        <ele>175.2</ele>
        <time>2020-05-30T18:56:04Z</time>
      </trkpt>
      <trkpt lat="46.44792" lon="-0.16181">
        <ele>175.3</ele>
        <time>2020-05-30T18:56:05Z</time>
      </trkpt>
      <trkpt lat="46.4479" lon="-0.16182">
        <ele>175.3</ele>
        <time>2020-05-30T18:56:06Z</time>
      </trkpt>
      <trkpt lat="46.44787" lon="-0.16185">
        <ele>175.4</ele>
        <time>2020-05-30T18:56:07Z</time>
      </trkpt>
      <trkpt lat="46.44785" lon="-0.16188">
        <ele>175.4</ele>
        <time>2020-05-30T18:56:08Z</time>
      </trkpt>
      <trkpt lat="46.44781" lon="-0.16191">
        <ele>175.5</ele>
        <time>2020-05-30T18:56:09Z</time>
      </trkpt>
      <trkpt lat="46.44778" lon="-0.16194">
        <ele>175.5</ele>
        <time>2020-05-30T18:56:10Z</time>
      </trkpt>
      <trkpt lat="46.44775" lon="-0.16196">
        <ele>175.6</ele>
        <time>2020-05-30T18:56:11Z</time>
      </trkpt>
      <trkpt lat="46.44771" lon="-0.16199">
        <ele>175.7</ele>
        <time>2020-05-30T18:56:12Z</time>
      </trkpt>
      <trkpt lat="46.44767" lon="-0.16203">
        <ele>175.7</ele>
        <time>2020-05-30T18:56:13Z</time>
      </trkpt>
      <trkpt lat="46.44763" lon="-0.16205">
        <ele>175.8</ele>
        <time>2020-05-30T18:56:14Z</time>
      </trkpt>
      <trkpt lat="46.4476" lon="-0.16209">
        <ele>175.9</ele>
        <time>2020-05-30T18:56:15Z</time>
      </trkpt>
      <trkpt lat="46.44756" lon="-0.16212">
        <ele>176</ele>
        <time>2020-05-30T18:56:16Z</time>
      </trkpt>
      <trkpt lat="46.44752" lon="-0.16216">
        <ele>176</ele>
        <time>2020-05-30T18:56:17Z</time>
      </trkpt>
      <trkpt lat="46.44748" lon="-0.1622">
        <ele>176.1</ele>
        <time>2020-05-30T18:56:18Z</time>
      </trkpt>
      <trkpt lat="46.44744" lon="-0.16223">
        <ele>176.2</ele>
        <time>2020-05-30T18:56:19Z</time>
      </trkpt>
      <trkpt lat="46.4474" lon="-0.16226">
        <ele>176.2</ele>
        <time>2020-05-30T18:56:20Z</time>
      </trkpt>
      <trkpt lat="46.44736" lon="-0.16229">
        <ele>176.3</ele>
        <time>2020-05-30T18:56:21Z</time>
      </trkpt>
      <trkpt lat="46.44733" lon="-0.16233">
        <ele>176.3</ele>
        <time>2020-05-30T18:56:22Z</time>
      </trkpt>
      <trkpt lat="46.44729" lon="-0.16236">
        <ele>176.4</ele>
        <time>2020-05-30T18:56:23Z</time>
      </trkpt>
      <trkpt lat="46.44726" lon="-0.16241">
        <ele>176.5</ele>
        <time>2020-05-30T18:56:24Z</time>
      </trkpt>
      <trkpt lat="46.44722" lon="-0.16245">
        <ele>176.5</ele>
        <time>2020-05-30T18:56:25Z</time>
      </trkpt>
      <trkpt lat="46.44719" lon="-0.1625">
        <ele>176.6</ele>
        <time>2020-05-30T18:56:26Z</time>
      </trkpt>
      <trkpt lat="46.44716" lon="-0.16253">
        <ele>176.7</ele>
        <time>2020-05-30T18:56:27Z</time>
      </trkpt>
      <trkpt lat="46.44712" lon="-0.16258">
        <ele>176.7</ele>
        <time>2020-05-30T18:56:28Z</time>
      </trkpt>
      <trkpt lat="46.44709" lon="-0.16263">
        <ele>176.8</ele>
        <time>2020-05-30T18:56:29Z</time>
      </trkpt>
      <trkpt lat="46.44707" lon="-0.16267">
        <ele>176.8</ele>
        <time>2020-05-30T18:56:30Z</time>
      </trkpt>
      <trkpt lat="46.44703" lon="-0.16271">
        <ele>176.9</ele>
        <time>2020-05-30T18:56:31Z</time>
      </trkpt>
      <trkpt lat="46.447" lon="-0.16276">
        <ele>177</ele>
        <time>2020-05-30T18:56:32Z</time>
      </trkpt>
      <trkpt lat="46.44697" lon="-0.16281">
        <ele>177</ele>
        <time>2020-05-30T18:56:33Z</time>
      </trkpt>
      <trkpt lat="46.44695" lon="-0.16285">
        <ele>177.1</ele>
        <time>2020-05-30T18:56:34Z</time>
      </trkpt>
      <trkpt lat="46.44692" lon="-0.1629">
        <ele>177.1</ele>
        <time>2020-05-30T18:56:35Z</time>
      </trkpt>
      <trkpt lat="46.4469" lon="-0.16294">
        <ele>177.2</ele>
        <time>2020-05-30T18:56:36Z</time>
      </trkpt>
      <trkpt lat="46.44688" lon="-0.163">
        <ele>177.2</ele>
        <time>2020-05-30T18:56:37Z</time>
      </trkpt>
      <trkpt lat="46.44684" lon="-0.16307">
        <ele>177.2</ele>
        <time>2020-05-30T18:56:38Z</time>
      </trkpt>
      <trkpt lat="46.44681" lon="-0.16312">
        <ele>177.2</ele>
        <time>2020-05-30T18:56:39Z</time>
      </trkpt>
      <trkpt lat="46.44678" lon="-0.16316">
        <ele>177.3</ele>
        <time>2020-05-30T18:56:40Z</time>
      </trkpt>
      <trkpt lat="46.44674" lon="-0.1632">
        <ele>177.3</ele>
        <time>2020-05-30T18:56:41Z</time>
      </trkpt>
      <trkpt lat="46.44671" lon="-0.16325">
        <ele>177.3</ele>
        <time>2020-05-30T18:56:42Z</time>
      </trkpt>
      <trkpt lat="46.44669" lon="-0.1633">
        <ele>177.3</ele>
        <time>2020-05-30T18:56:43Z</time>
      </trkpt>
      <trkpt lat="46.44666" lon="-0.16335">
        <ele>177.3</ele>
        <time>2020-05-30T18:56:44Z</time>
      </trkpt>
      <trkpt lat="46.44664" lon="-0.16339">
        <ele>177.2</ele>
        <time>2020-05-30T18:56:45Z</time>
      </trkpt>
      <trkpt lat="46.44662" lon="-0.16344">
        <ele>177.2</ele>
        <time>2020-05-30T18:56:46Z</time>
      </trkpt>
      <trkpt lat="46.44661" lon="-0.16349">
        <ele>177.2</ele>
        <time>2020-05-30T18:56:47Z</time>
      </trkpt>
      <trkpt lat="46.44659" lon="-0.16355">
        <ele>177.2</ele>
        <time>2020-05-30T18:56:48Z</time>
      </trkpt>
      <trkpt lat="46.44657" lon="-0.16361">
        <ele>177.2</ele>
        <time>2020-05-30T18:56:49Z</time>
      </trkpt>
      <trkpt lat="46.44655" lon="-0.16366">
        <ele>177.1</ele>
        <time>2020-05-30T18:56:50Z</time>
      </trkpt>
      <trkpt lat="46.44653" lon="-0.16372">
        <ele>177.1</ele>
        <time>2020-05-30T18:56:51Z</time>
      </trkpt>
      <trkpt lat="46.44651" lon="-0.16376">
        <ele>177.1</ele>
        <time>2020-05-30T18:56:52Z</time>
      </trkpt>
      <trkpt lat="46.44649" lon="-0.16381">
        <ele>177.1</ele>
        <time>2020-05-30T18:56:53Z</time>
      </trkpt>
      <trkpt lat="46.44646" lon="-0.16385">
        <ele>177.1</ele>
        <time>2020-05-30T18:56:54Z</time>
      </trkpt>
      <trkpt lat="46.44644" lon="-0.1639">
        <ele>177</ele>
        <time>2020-05-30T18:56:55Z</time>
      </trkpt>
      <trkpt lat="46.44643" lon="-0.16394">
        <ele>177</ele>
        <time>2020-05-30T18:56:56Z</time>
      </trkpt>
      <trkpt lat="46.44641" lon="-0.16398">
        <ele>176.9</ele>
        <time>2020-05-30T18:56:57Z</time>
      </trkpt>
      <trkpt lat="46.44639" lon="-0.164">
        <ele>176.9</ele>
        <time>2020-05-30T18:56:58Z</time>
      </trkpt>
      <trkpt lat="46.44639" lon="-0.16402">
        <ele>176.8</ele>
        <time>2020-05-30T18:56:59Z</time>
      </trkpt>
      <trkpt lat="46.4464" lon="-0.16402">
        <ele>176.8</ele>
        <time>2020-05-30T18:57:00Z</time>
      </trkpt>
      <trkpt lat="46.4464" lon="-0.16401">
        <ele>176.8</ele>
        <time>2020-05-30T18:57:01Z</time>
      </trkpt>
      <trkpt lat="46.44641" lon="-0.164">
        <ele>176.8</ele>
        <time>2020-05-30T18:57:02Z</time>
      </trkpt>
      <trkpt lat="46.44641" lon="-0.164">
        <ele>176.7</ele>
        <time>2020-05-30T18:57:03Z</time>
      </trkpt>
      <trkpt lat="46.4464" lon="-0.16401">
        <ele>176.7</ele>
        <time>2020-05-30T18:57:04Z</time>
      </trkpt>
      <trkpt lat="46.4464" lon="-0.16402">
        <ele>176.7</ele>
        <time>2020-05-30T18:57:05Z</time>
      </trkpt>
      <trkpt lat="46.4464" lon="-0.16402">
        <ele>176.7</ele>
        <time>2020-05-30T18:57:06Z</time>
      </trkpt>
      <trkpt lat="46.4464" lon="-0.16402">
        <ele>176.7</ele>
        <time>2020-05-30T18:57:07Z</time>
      </trkpt>
      <trkpt lat="46.4464" lon="-0.16403">
        <ele>176.7</ele>
        <time>2020-05-30T18:57:08Z</time>
      </trkpt>
      <trkpt lat="46.4464" lon="-0.16403">
        <ele>176.7</ele>
        <time>2020-05-30T18:57:09Z</time>
      </trkpt>
      <trkpt lat="46.44639" lon="-0.16403">
        <ele>176.7</ele>
        <time>2020-05-30T18:57:10Z</time>
      </trkpt>
      <trkpt lat="46.44639" lon="-0.16404">
        <ele>176.7</ele>
        <time>2020-05-30T18:57:11Z</time>
      </trkpt>
      <trkpt lat="46.44639" lon="-0.16404">
        <ele>176.6</ele>
        <time>2020-05-30T18:57:12Z</time>
      </trkpt>
      <trkpt lat="46.44639" lon="-0.16404">
        <ele>176.6</ele>
        <time>2020-05-30T18:57:13Z</time>
      </trkpt>
      <trkpt lat="46.44639" lon="-0.16404">
        <ele>176.6</ele>
        <time>2020-05-30T18:57:14Z</time>
      </trkpt>
      <trkpt lat="46.44636" lon="-0.1641">
        <ele>176.5</ele>
        <time>2020-05-30T18:57:15Z</time>
      </trkpt>
      <trkpt lat="46.44635" lon="-0.16413">
        <ele>176.4</ele>
        <time>2020-05-30T18:57:16Z</time>
      </trkpt>
      <trkpt lat="46.44632" lon="-0.16417">
        <ele>176.2</ele>
        <time>2020-05-30T18:57:17Z</time>
      </trkpt>
      <trkpt lat="46.44628" lon="-0.16423">
        <ele>176</ele>
        <time>2020-05-30T18:57:18Z</time>
      </trkpt>
      <trkpt lat="46.44624" lon="-0.16431">
        <ele>175.7</ele>
        <time>2020-05-30T18:57:19Z</time>
      </trkpt>
      <trkpt lat="46.4462" lon="-0.16437">
        <ele>175.4</ele>
        <time>2020-05-30T18:57:20Z</time>
      </trkpt>
      <trkpt lat="46.44617" lon="-0.16443">
        <ele>175.2</ele>
        <time>2020-05-30T18:57:21Z</time>
      </trkpt>
      <trkpt lat="46.44614" lon="-0.16449">
        <ele>174.9</ele>
        <time>2020-05-30T18:57:22Z</time>
      </trkpt>
      <trkpt lat="46.44612" lon="-0.16455">
        <ele>174.6</ele>
        <time>2020-05-30T18:57:23Z</time>
      </trkpt>
      <trkpt lat="46.44609" lon="-0.16461">
        <ele>174.4</ele>
        <time>2020-05-30T18:57:24Z</time>
      </trkpt>
      <trkpt lat="46.44606" lon="-0.16469">
        <ele>174</ele>
        <time>2020-05-30T18:57:25Z</time>
      </trkpt>
      <trkpt lat="46.44603" lon="-0.16477">
        <ele>173.6</ele>
        <time>2020-05-30T18:57:26Z</time>
      </trkpt>
      <trkpt lat="46.44601" lon="-0.16484">
        <ele>173.3</ele>
        <time>2020-05-30T18:57:27Z</time>
      </trkpt>
      <trkpt lat="46.44599" lon="-0.16492">
        <ele>172.9</ele>
        <time>2020-05-30T18:57:28Z</time>
      </trkpt>
      <trkpt lat="46.44596" lon="-0.16499">
        <ele>172.5</ele>
        <time>2020-05-30T18:57:29Z</time>
      </trkpt>
      <trkpt lat="46.44594" lon="-0.16507">
        <ele>172</ele>
        <time>2020-05-30T18:57:30Z</time>
      </trkpt>
      <trkpt lat="46.44591" lon="-0.16515">
        <ele>171.6</ele>
        <time>2020-05-30T18:57:31Z</time>
      </trkpt>
      <trkpt lat="46.44588" lon="-0.16523">
        <ele>171.1</ele>
        <time>2020-05-30T18:57:32Z</time>
      </trkpt>
      <trkpt lat="46.44586" lon="-0.16531">
        <ele>170.6</ele>
        <time>2020-05-30T18:57:33Z</time>
      </trkpt>
      <trkpt lat="46.44583" lon="-0.16538">
        <ele>170.1</ele>
        <time>2020-05-30T18:57:34Z</time>
      </trkpt>
      <trkpt lat="46.44581" lon="-0.16546">
        <ele>169.6</ele>
        <time>2020-05-30T18:57:35Z</time>
      </trkpt>
      <trkpt lat="46.44578" lon="-0.16555">
        <ele>169</ele>
        <time>2020-05-30T18:57:36Z</time>
      </trkpt>
      <trkpt lat="46.44575" lon="-0.16563">
        <ele>168.4</ele>
        <time>2020-05-30T18:57:37Z</time>
      </trkpt>
      <trkpt lat="46.44573" lon="-0.16572">
        <ele>167.8</ele>
        <time>2020-05-30T18:57:38Z</time>
      </trkpt>
      <trkpt lat="46.4457" lon="-0.16582">
        <ele>167.2</ele>
        <time>2020-05-30T18:57:39Z</time>
      </trkpt>
      <trkpt lat="46.44567" lon="-0.16591">
        <ele>166.4</ele>
        <time>2020-05-30T18:57:40Z</time>
      </trkpt>
      <trkpt lat="46.44565" lon="-0.16601">
        <ele>165.7</ele>
        <time>2020-05-30T18:57:41Z</time>
      </trkpt>
      <trkpt lat="46.44561" lon="-0.16614">
        <ele>164.7</ele>
        <time>2020-05-30T18:57:42Z</time>
      </trkpt>
      <trkpt lat="46.44557" lon="-0.16626">
        <ele>163.8</ele>
        <time>2020-05-30T18:57:43Z</time>
      </trkpt>
      <trkpt lat="46.44551" lon="-0.16639">
        <ele>162.7</ele>
        <time>2020-05-30T18:57:44Z</time>
      </trkpt>
      <trkpt lat="46.44545" lon="-0.16652">
        <ele>161.9</ele>
        <time>2020-05-30T18:57:45Z</time>
      </trkpt>
      <trkpt lat="46.44538" lon="-0.16666">
        <ele>161.2</ele>
        <time>2020-05-30T18:57:46Z</time>
      </trkpt>
      <trkpt lat="46.44531" lon="-0.16679">
        <ele>160.7</ele>
        <time>2020-05-30T18:57:47Z</time>
      </trkpt>
      <trkpt lat="46.44522" lon="-0.16692">
        <ele>160.2</ele>
        <time>2020-05-30T18:57:48Z</time>
      </trkpt>
      <trkpt lat="46.44514" lon="-0.16705">
        <ele>159.8</ele>
        <time>2020-05-30T18:57:49Z</time>
      </trkpt>
      <trkpt lat="46.44507" lon="-0.16719">
        <ele>159.5</ele>
        <time>2020-05-30T18:57:50Z</time>
      </trkpt>
      <trkpt lat="46.445" lon="-0.16731">
        <ele>159.4</ele>
        <time>2020-05-30T18:57:51Z</time>
      </trkpt>
      <trkpt lat="46.44492" lon="-0.16745">
        <ele>159.3</ele>
        <time>2020-05-30T18:57:52Z</time>
      </trkpt>
      <trkpt lat="46.44485" lon="-0.16757">
        <ele>159.3</ele>
        <time>2020-05-30T18:57:53Z</time>
      </trkpt>
      <trkpt lat="46.44478" lon="-0.16769">
        <ele>159.4</ele>
        <time>2020-05-30T18:57:54Z</time>
      </trkpt>
      <trkpt lat="46.4447" lon="-0.16781">
        <ele>159.6</ele>
        <time>2020-05-30T18:57:55Z</time>
      </trkpt>
      <trkpt lat="46.44463" lon="-0.16792">
        <ele>159.8</ele>
        <time>2020-05-30T18:57:56Z</time>
      </trkpt>
      <trkpt lat="46.44455" lon="-0.16802">
        <ele>160.1</ele>
        <time>2020-05-30T18:57:57Z</time>
      </trkpt>
      <trkpt lat="46.44448" lon="-0.16812">
        <ele>160.5</ele>
        <time>2020-05-30T18:57:58Z</time>
      </trkpt>
      <trkpt lat="46.4444" lon="-0.16822">
        <ele>160.9</ele>
        <time>2020-05-30T18:57:59Z</time>
      </trkpt>
      <trkpt lat="46.44434" lon="-0.16831">
        <ele>161.3</ele>
        <time>2020-05-30T18:58:00Z</time>
      </trkpt>
      <trkpt lat="46.44427" lon="-0.16839">
        <ele>161.6</ele>
        <time>2020-05-30T18:58:01Z</time>
      </trkpt>
      <trkpt lat="46.44421" lon="-0.16849">
        <ele>162</ele>
        <time>2020-05-30T18:58:02Z</time>
      </trkpt>
      <trkpt lat="46.44415" lon="-0.16857">
        <ele>162.3</ele>
        <time>2020-05-30T18:58:03Z</time>
      </trkpt>
      <trkpt lat="46.44409" lon="-0.16866">
        <ele>162.7</ele>
        <time>2020-05-30T18:58:04Z</time>
      </trkpt>
      <trkpt lat="46.44404" lon="-0.16872">
        <ele>163</ele>
        <time>2020-05-30T18:58:05Z</time>
      </trkpt>
      <trkpt lat="46.444" lon="-0.16879">
        <ele>163.3</ele>
        <time>2020-05-30T18:58:06Z</time>
      </trkpt>
      <trkpt lat="46.44396" lon="-0.16885">
        <ele>163.6</ele>
        <time>2020-05-30T18:58:07Z</time>
      </trkpt>
      <trkpt lat="46.44392" lon="-0.1689">
        <ele>163.9</ele>
        <time>2020-05-30T18:58:08Z</time>
      </trkpt>
      <trkpt lat="46.44388" lon="-0.16893">
        <ele>164.2</ele>
        <time>2020-05-30T18:58:09Z</time>
      </trkpt>
      <trkpt lat="46.44384" lon="-0.16895">
        <ele>164.4</ele>
        <time>2020-05-30T18:58:10Z</time>
      </trkpt>
      <trkpt lat="46.44381" lon="-0.16899">
        <ele>164.6</ele>
        <time>2020-05-30T18:58:11Z</time>
      </trkpt>
      <trkpt lat="46.44377" lon="-0.16903">
        <ele>164.8</ele>
        <time>2020-05-30T18:58:12Z</time>
      </trkpt>
      <trkpt lat="46.44374" lon="-0.16907">
        <ele>165</ele>
        <time>2020-05-30T18:58:13Z</time>
      </trkpt>
      <trkpt lat="46.4437" lon="-0.16911">
        <ele>165.2</ele>
        <time>2020-05-30T18:58:14Z</time>
      </trkpt>
      <trkpt lat="46.44366" lon="-0.16914">
        <ele>165.4</ele>
        <time>2020-05-30T18:58:15Z</time>
      </trkpt>
      <trkpt lat="46.44364" lon="-0.16917">
        <ele>165.6</ele>
        <time>2020-05-30T18:58:16Z</time>
      </trkpt>
      <trkpt lat="46.44363" lon="-0.1692">
        <ele>165.7</ele>
        <time>2020-05-30T18:58:17Z</time>
      </trkpt>
      <trkpt lat="46.44361" lon="-0.16925">
        <ele>165.9</ele>
        <time>2020-05-30T18:58:18Z</time>
      </trkpt>
      <trkpt lat="46.44357" lon="-0.16929">
        <ele>166.1</ele>
        <time>2020-05-30T18:58:19Z</time>
      </trkpt>
      <trkpt lat="46.44355" lon="-0.16934">
        <ele>166.3</ele>
        <time>2020-05-30T18:58:20Z</time>
      </trkpt>
      <trkpt lat="46.44352" lon="-0.16939">
        <ele>166.4</ele>
        <time>2020-05-30T18:58:21Z</time>
      </trkpt>
      <trkpt lat="46.44348" lon="-0.16943">
        <ele>166.6</ele>
        <time>2020-05-30T18:58:22Z</time>
      </trkpt>
      <trkpt lat="46.44345" lon="-0.16948">
        <ele>166.8</ele>
        <time>2020-05-30T18:58:23Z</time>
      </trkpt>
      <trkpt lat="46.44342" lon="-0.16954">
        <ele>167</ele>
        <time>2020-05-30T18:58:24Z</time>
      </trkpt>
      <trkpt lat="46.44339" lon="-0.16959">
        <ele>167.1</ele>
        <time>2020-05-30T18:58:25Z</time>
      </trkpt>
      <trkpt lat="46.44335" lon="-0.16964">
        <ele>167.2</ele>
        <time>2020-05-30T18:58:26Z</time>
      </trkpt>
      <trkpt lat="46.44331" lon="-0.16969">
        <ele>167.3</ele>
        <time>2020-05-30T18:58:27Z</time>
      </trkpt>
      <trkpt lat="46.44328" lon="-0.16975">
        <ele>167.4</ele>
        <time>2020-05-30T18:58:28Z</time>
      </trkpt>
      <trkpt lat="46.44326" lon="-0.16982">
        <ele>167.5</ele>
        <time>2020-05-30T18:58:29Z</time>
      </trkpt>
      <trkpt lat="46.44322" lon="-0.16989">
        <ele>167.6</ele>
        <time>2020-05-30T18:58:30Z</time>
      </trkpt>
      <trkpt lat="46.4432" lon="-0.16994">
        <ele>167.6</ele>
        <time>2020-05-30T18:58:31Z</time>
      </trkpt>
      <trkpt lat="46.44318" lon="-0.17">
        <ele>167.6</ele>
        <time>2020-05-30T18:58:32Z</time>
      </trkpt>
      <trkpt lat="46.44315" lon="-0.17006">
        <ele>167.7</ele>
        <time>2020-05-30T18:58:33Z</time>
      </trkpt>
      <trkpt lat="46.44312" lon="-0.17011">
        <ele>167.7</ele>
        <time>2020-05-30T18:58:34Z</time>
      </trkpt>
      <trkpt lat="46.44309" lon="-0.17018">
        <ele>167.7</ele>
        <time>2020-05-30T18:58:35Z</time>
      </trkpt>
      <trkpt lat="46.44306" lon="-0.17023">
        <ele>167.7</ele>
        <time>2020-05-30T18:58:36Z</time>
      </trkpt>
      <trkpt lat="46.44303" lon="-0.17029">
        <ele>167.7</ele>
        <time>2020-05-30T18:58:37Z</time>
      </trkpt>
      <trkpt lat="46.443" lon="-0.17038">
        <ele>167.7</ele>
        <time>2020-05-30T18:58:38Z</time>
      </trkpt>
      <trkpt lat="46.44297" lon="-0.17045">
        <ele>167.7</ele>
        <time>2020-05-30T18:58:39Z</time>
      </trkpt>
      <trkpt lat="46.44294" lon="-0.17051">
        <ele>167.7</ele>
        <time>2020-05-30T18:58:40Z</time>
      </trkpt>
      <trkpt lat="46.44291" lon="-0.17058">
        <ele>167.7</ele>
        <time>2020-05-30T18:58:41Z</time>
      </trkpt>
      <trkpt lat="46.4429" lon="-0.17062">
        <ele>167.7</ele>
        <time>2020-05-30T18:58:42Z</time>
      </trkpt>
      <trkpt lat="46.44287" lon="-0.17067">
        <ele>167.7</ele>
        <time>2020-05-30T18:58:43Z</time>
      </trkpt>
      <trkpt lat="46.44284" lon="-0.17074">
        <ele>167.7</ele>
        <time>2020-05-30T18:58:44Z</time>
      </trkpt>
      <trkpt lat="46.44282" lon="-0.17081">
        <ele>167.7</ele>
        <time>2020-05-30T18:58:45Z</time>
      </trkpt>
      <trkpt lat="46.4428" lon="-0.17087">
        <ele>167.7</ele>
        <time>2020-05-30T18:58:46Z</time>
      </trkpt>
      <trkpt lat="46.44277" lon="-0.17093">
        <ele>167.7</ele>
        <time>2020-05-30T18:58:47Z</time>
      </trkpt>
      <trkpt lat="46.44275" lon="-0.17097">
        <ele>167.7</ele>
        <time>2020-05-30T18:58:48Z</time>
      </trkpt>
      <trkpt lat="46.44273" lon="-0.17102">
        <ele>167.7</ele>
        <time>2020-05-30T18:58:49Z</time>
      </trkpt>
      <trkpt lat="46.44271" lon="-0.17106">
        <ele>167.7</ele>
        <time>2020-05-30T18:58:50Z</time>
      </trkpt>
      <trkpt lat="46.44268" lon="-0.17112">
        <ele>167.7</ele>
        <time>2020-05-30T18:58:51Z</time>
      </trkpt>
      <trkpt lat="46.44266" lon="-0.17119">
        <ele>167.7</ele>
        <time>2020-05-30T18:58:52Z</time>
      </trkpt>
      <trkpt lat="46.44264" lon="-0.17123">
        <ele>167.6</ele>
        <time>2020-05-30T18:58:53Z</time>
      </trkpt>
      <trkpt lat="46.44261" lon="-0.1713">
        <ele>167.6</ele>
        <time>2020-05-30T18:58:54Z</time>
      </trkpt>
      <trkpt lat="46.4426" lon="-0.17135">
        <ele>167.5</ele>
        <time>2020-05-30T18:58:55Z</time>
      </trkpt>
      <trkpt lat="46.44257" lon="-0.1714">
        <ele>167.4</ele>
        <time>2020-05-30T18:58:56Z</time>
      </trkpt>
      <trkpt lat="46.44255" lon="-0.17145">
        <ele>167.4</ele>
        <time>2020-05-30T18:58:57Z</time>
      </trkpt>
      <trkpt lat="46.44253" lon="-0.1715">
        <ele>167.3</ele>
        <time>2020-05-30T18:58:58Z</time>
      </trkpt>
      <trkpt lat="46.44251" lon="-0.17154">
        <ele>167.2</ele>
        <time>2020-05-30T18:58:59Z</time>
      </trkpt>
      <trkpt lat="46.44249" lon="-0.17158">
        <ele>167.1</ele>
        <time>2020-05-30T18:59:00Z</time>
      </trkpt>
      <trkpt lat="46.44247" lon="-0.17164">
        <ele>167</ele>
        <time>2020-05-30T18:59:01Z</time>
      </trkpt>
      <trkpt lat="46.44245" lon="-0.17169">
        <ele>166.9</ele>
        <time>2020-05-30T18:59:02Z</time>
      </trkpt>
      <trkpt lat="46.44243" lon="-0.17176">
        <ele>166.9</ele>
        <time>2020-05-30T18:59:03Z</time>
      </trkpt>
      <trkpt lat="46.44241" lon="-0.17182">
        <ele>166.8</ele>
        <time>2020-05-30T18:59:04Z</time>
      </trkpt>
      <trkpt lat="46.4424" lon="-0.17187">
        <ele>166.7</ele>
        <time>2020-05-30T18:59:05Z</time>
      </trkpt>
      <trkpt lat="46.44238" lon="-0.17192">
        <ele>166.7</ele>
        <time>2020-05-30T18:59:06Z</time>
      </trkpt>
      <trkpt lat="46.44235" lon="-0.17199">
        <ele>166.6</ele>
        <time>2020-05-30T18:59:07Z</time>
      </trkpt>
      <trkpt lat="46.44233" lon="-0.17205">
        <ele>166.5</ele>
        <time>2020-05-30T18:59:08Z</time>
      </trkpt>
      <trkpt lat="46.44231" lon="-0.1721">
        <ele>166.4</ele>
        <time>2020-05-30T18:59:09Z</time>
      </trkpt>
      <trkpt lat="46.44229" lon="-0.17214">
        <ele>166.4</ele>
        <time>2020-05-30T18:59:10Z</time>
      </trkpt>
      <trkpt lat="46.44227" lon="-0.17218">
        <ele>166.3</ele>
        <time>2020-05-30T18:59:11Z</time>
      </trkpt>
      <trkpt lat="46.44226" lon="-0.1722">
        <ele>166.3</ele>
        <time>2020-05-30T18:59:12Z</time>
      </trkpt>
      <trkpt lat="46.44225" lon="-0.17222">
        <ele>166.2</ele>
        <time>2020-05-30T18:59:13Z</time>
      </trkpt>
      <trkpt lat="46.44223" lon="-0.17226">
        <ele>166.2</ele>
        <time>2020-05-30T18:59:14Z</time>
      </trkpt>
      <trkpt lat="46.44222" lon="-0.17228">
        <ele>166.1</ele>
        <time>2020-05-30T18:59:15Z</time>
      </trkpt>
      <trkpt lat="46.44221" lon="-0.17232">
        <ele>166.1</ele>
        <time>2020-05-30T18:59:16Z</time>
      </trkpt>
      <trkpt lat="46.44221" lon="-0.17234">
        <ele>166</ele>
        <time>2020-05-30T18:59:17Z</time>
      </trkpt>
      <trkpt lat="46.44219" lon="-0.17238">
        <ele>165.9</ele>
        <time>2020-05-30T18:59:18Z</time>
      </trkpt>
      <trkpt lat="46.44219" lon="-0.17239">
        <ele>165.9</ele>
        <time>2020-05-30T18:59:19Z</time>
      </trkpt>
      <trkpt lat="46.44217" lon="-0.17243">
        <ele>165.8</ele>
        <time>2020-05-30T18:59:20Z</time>
      </trkpt>
      <trkpt lat="46.44216" lon="-0.17245">
        <ele>165.8</ele>
        <time>2020-05-30T18:59:21Z</time>
      </trkpt>
      <trkpt lat="46.44214" lon="-0.17248">
        <ele>165.7</ele>
        <time>2020-05-30T18:59:22Z</time>
      </trkpt>
      <trkpt lat="46.44212" lon="-0.17255">
        <ele>165.6</ele>
        <time>2020-05-30T18:59:23Z</time>
      </trkpt>
      <trkpt lat="46.4421" lon="-0.1726">
        <ele>165.4</ele>
        <time>2020-05-30T18:59:24Z</time>
      </trkpt>
      <trkpt lat="46.44208" lon="-0.17264">
        <ele>165.3</ele>
        <time>2020-05-30T18:59:25Z</time>
      </trkpt>
      <trkpt lat="46.44206" lon="-0.17268">
        <ele>165.3</ele>
        <time>2020-05-30T18:59:26Z</time>
      </trkpt>
      <trkpt lat="46.44204" lon="-0.17272">
        <ele>165.2</ele>
        <time>2020-05-30T18:59:27Z</time>
      </trkpt>
      <trkpt lat="46.44203" lon="-0.17275">
        <ele>165.1</ele>
        <time>2020-05-30T18:59:28Z</time>
      </trkpt>
      <trkpt lat="46.44201" lon="-0.1728">
        <ele>165.1</ele>
        <time>2020-05-30T18:59:29Z</time>
      </trkpt>
      <trkpt lat="46.44199" lon="-0.17284">
        <ele>165</ele>
        <time>2020-05-30T18:59:30Z</time>
      </trkpt>
      <trkpt lat="46.44198" lon="-0.17287">
        <ele>164.9</ele>
        <time>2020-05-30T18:59:31Z</time>
      </trkpt>
      <trkpt lat="46.44196" lon="-0.17293">
        <ele>164.8</ele>
        <time>2020-05-30T18:59:32Z</time>
      </trkpt>
      <trkpt lat="46.44194" lon="-0.17299">
        <ele>164.7</ele>
        <time>2020-05-30T18:59:33Z</time>
      </trkpt>
      <trkpt lat="46.44193" lon="-0.17304">
        <ele>164.6</ele>
        <time>2020-05-30T18:59:34Z</time>
      </trkpt>
      <trkpt lat="46.4419" lon="-0.17309">
        <ele>164.5</ele>
        <time>2020-05-30T18:59:35Z</time>
      </trkpt>
      <trkpt lat="46.44189" lon="-0.17313">
        <ele>164.4</ele>
        <time>2020-05-30T18:59:36Z</time>
      </trkpt>
      <trkpt lat="46.44187" lon="-0.17318">
        <ele>164.3</ele>
        <time>2020-05-30T18:59:37Z</time>
      </trkpt>
      <trkpt lat="46.44185" lon="-0.17323">
        <ele>164.2</ele>
        <time>2020-05-30T18:59:38Z</time>
      </trkpt>
      <trkpt lat="46.44183" lon="-0.17328">
        <ele>164</ele>
        <time>2020-05-30T18:59:39Z</time>
      </trkpt>
      <trkpt lat="46.44182" lon="-0.17333">
        <ele>163.9</ele>
        <time>2020-05-30T18:59:40Z</time>
      </trkpt>
      <trkpt lat="46.44181" lon="-0.17338">
        <ele>163.7</ele>
        <time>2020-05-30T18:59:41Z</time>
      </trkpt>
      <trkpt lat="46.4418" lon="-0.17342">
        <ele>163.6</ele>
        <time>2020-05-30T18:59:42Z</time>
      </trkpt>
      <trkpt lat="46.44179" lon="-0.17347">
        <ele>163.5</ele>
        <time>2020-05-30T18:59:43Z</time>
      </trkpt>
      <trkpt lat="46.44177" lon="-0.17351">
        <ele>163.4</ele>
        <time>2020-05-30T18:59:44Z</time>
      </trkpt>
      <trkpt lat="46.44174" lon="-0.17357">
        <ele>163.2</ele>
        <time>2020-05-30T18:59:45Z</time>
      </trkpt>
      <trkpt lat="46.44172" lon="-0.17362">
        <ele>163.1</ele>
        <time>2020-05-30T18:59:46Z</time>
      </trkpt>
      <trkpt lat="46.4417" lon="-0.17368">
        <ele>162.9</ele>
        <time>2020-05-30T18:59:47Z</time>
      </trkpt>
      <trkpt lat="46.44169" lon="-0.17373">
        <ele>162.8</ele>
        <time>2020-05-30T18:59:48Z</time>
      </trkpt>
      <trkpt lat="46.44167" lon="-0.17378">
        <ele>162.7</ele>
        <time>2020-05-30T18:59:49Z</time>
      </trkpt>
      <trkpt lat="46.44165" lon="-0.17384">
        <ele>162.6</ele>
        <time>2020-05-30T18:59:50Z</time>
      </trkpt>
      <trkpt lat="46.44163" lon="-0.17389">
        <ele>162.6</ele>
        <time>2020-05-30T18:59:51Z</time>
      </trkpt>
      <trkpt lat="46.44162" lon="-0.17393">
        <ele>162.5</ele>
        <time>2020-05-30T18:59:52Z</time>
      </trkpt>
      <trkpt lat="46.44159" lon="-0.17398">
        <ele>162.4</ele>
        <time>2020-05-30T18:59:53Z</time>
      </trkpt>
      <trkpt lat="46.44157" lon="-0.17404">
        <ele>162.3</ele>
        <time>2020-05-30T18:59:54Z</time>
      </trkpt>
      <trkpt lat="46.44155" lon="-0.17411">
        <ele>162.3</ele>
        <time>2020-05-30T18:59:55Z</time>
      </trkpt>
      <trkpt lat="46.44153" lon="-0.17418">
        <ele>162.2</ele>
        <time>2020-05-30T18:59:56Z</time>
      </trkpt>
      <trkpt lat="46.44151" lon="-0.17425">
        <ele>162.1</ele>
        <time>2020-05-30T18:59:57Z</time>
      </trkpt>
      <trkpt lat="46.44148" lon="-0.17431">
        <ele>162</ele>
        <time>2020-05-30T18:59:58Z</time>
      </trkpt>
      <trkpt lat="46.44145" lon="-0.17436">
        <ele>161.9</ele>
        <time>2020-05-30T18:59:59Z</time>
      </trkpt>
      <trkpt lat="46.44143" lon="-0.17442">
        <ele>161.8</ele>
        <time>2020-05-30T19:00:00Z</time>
      </trkpt>
      <trkpt lat="46.4414" lon="-0.17449">
        <ele>161.7</ele>
        <time>2020-05-30T19:00:01Z</time>
      </trkpt>
      <trkpt lat="46.44138" lon="-0.17456">
        <ele>161.7</ele>
        <time>2020-05-30T19:00:02Z</time>
      </trkpt>
      <trkpt lat="46.44136" lon="-0.17463">
        <ele>161.6</ele>
        <time>2020-05-30T19:00:03Z</time>
      </trkpt>
      <trkpt lat="46.44133" lon="-0.17469">
        <ele>161.5</ele>
        <time>2020-05-30T19:00:04Z</time>
      </trkpt>
      <trkpt lat="46.4413" lon="-0.17475">
        <ele>161.5</ele>
        <time>2020-05-30T19:00:05Z</time>
      </trkpt>
      <trkpt lat="46.44127" lon="-0.17482">
        <ele>161.4</ele>
        <time>2020-05-30T19:00:06Z</time>
      </trkpt>
      <trkpt lat="46.44125" lon="-0.17489">
        <ele>161.4</ele>
        <time>2020-05-30T19:00:07Z</time>
      </trkpt>
      <trkpt lat="46.44122" lon="-0.17495">
        <ele>161.4</ele>
        <time>2020-05-30T19:00:08Z</time>
      </trkpt>
      <trkpt lat="46.4412" lon="-0.175">
        <ele>161.4</ele>
        <time>2020-05-30T19:00:09Z</time>
      </trkpt>
      <trkpt lat="46.44117" lon="-0.17506">
        <ele>161.4</ele>
        <time>2020-05-30T19:00:10Z</time>
      </trkpt>
      <trkpt lat="46.44113" lon="-0.17511">
        <ele>161.4</ele>
        <time>2020-05-30T19:00:11Z</time>
      </trkpt>
      <trkpt lat="46.44108" lon="-0.17518">
        <ele>161.4</ele>
        <time>2020-05-30T19:00:12Z</time>
      </trkpt>
      <trkpt lat="46.44103" lon="-0.17524">
        <ele>161.4</ele>
        <time>2020-05-30T19:00:13Z</time>
      </trkpt>
      <trkpt lat="46.441" lon="-0.1753">
        <ele>161.3</ele>
        <time>2020-05-30T19:00:14Z</time>
      </trkpt>
      <trkpt lat="46.44096" lon="-0.17534">
        <ele>161.3</ele>
        <time>2020-05-30T19:00:15Z</time>
      </trkpt>
      <trkpt lat="46.44092" lon="-0.17539">
        <ele>161.3</ele>
        <time>2020-05-30T19:00:16Z</time>
      </trkpt>
      <trkpt lat="46.44088" lon="-0.17544">
        <ele>161.3</ele>
        <time>2020-05-30T19:00:17Z</time>
      </trkpt>
      <trkpt lat="46.44085" lon="-0.1755">
        <ele>161.3</ele>
        <time>2020-05-30T19:00:18Z</time>
      </trkpt>
      <trkpt lat="46.44082" lon="-0.17555">
        <ele>161.3</ele>
        <time>2020-05-30T19:00:19Z</time>
      </trkpt>
      <trkpt lat="46.44077" lon="-0.17561">
        <ele>161.3</ele>
        <time>2020-05-30T19:00:20Z</time>
      </trkpt>
      <trkpt lat="46.44073" lon="-0.17566">
        <ele>161.3</ele>
        <time>2020-05-30T19:00:21Z</time>
      </trkpt>
      <trkpt lat="46.44068" lon="-0.17571">
        <ele>161.3</ele>
        <time>2020-05-30T19:00:22Z</time>
      </trkpt>
      <trkpt lat="46.44064" lon="-0.17575">
        <ele>161.3</ele>
        <time>2020-05-30T19:00:23Z</time>
      </trkpt>
      <trkpt lat="46.44059" lon="-0.17578">
        <ele>161.3</ele>
        <time>2020-05-30T19:00:24Z</time>
      </trkpt>
      <trkpt lat="46.44052" lon="-0.17579">
        <ele>161.2</ele>
        <time>2020-05-30T19:00:25Z</time>
      </trkpt>
      <trkpt lat="46.44046" lon="-0.17581">
        <ele>161</ele>
        <time>2020-05-30T19:00:26Z</time>
      </trkpt>
      <trkpt lat="46.4404" lon="-0.17582">
        <ele>160.9</ele>
        <time>2020-05-30T19:00:27Z</time>
      </trkpt>
      <trkpt lat="46.44036" lon="-0.17584">
        <ele>160.8</ele>
        <time>2020-05-30T19:00:28Z</time>
      </trkpt>
      <trkpt lat="46.44029" lon="-0.17587">
        <ele>160.6</ele>
        <time>2020-05-30T19:00:29Z</time>
      </trkpt>
      <trkpt lat="46.44024" lon="-0.1759">
        <ele>160.5</ele>
        <time>2020-05-30T19:00:30Z</time>
      </trkpt>
      <trkpt lat="46.44019" lon="-0.17593">
        <ele>160.4</ele>
        <time>2020-05-30T19:00:31Z</time>
      </trkpt>
      <trkpt lat="46.44013" lon="-0.17597">
        <ele>160.2</ele>
        <time>2020-05-30T19:00:32Z</time>
      </trkpt>
      <trkpt lat="46.44008" lon="-0.17599">
        <ele>160.1</ele>
        <time>2020-05-30T19:00:33Z</time>
      </trkpt>
      <trkpt lat="46.44003" lon="-0.17603">
        <ele>160</ele>
        <time>2020-05-30T19:00:34Z</time>
      </trkpt>
      <trkpt lat="46.43997" lon="-0.17607">
        <ele>159.9</ele>
        <time>2020-05-30T19:00:35Z</time>
      </trkpt>
      <trkpt lat="46.43992" lon="-0.1761">
        <ele>159.8</ele>
        <time>2020-05-30T19:00:36Z</time>
      </trkpt>
      <trkpt lat="46.43986" lon="-0.17613">
        <ele>159.7</ele>
        <time>2020-05-30T19:00:37Z</time>
      </trkpt>
      <trkpt lat="46.4398" lon="-0.17615">
        <ele>159.6</ele>
        <time>2020-05-30T19:00:38Z</time>
      </trkpt>
      <trkpt lat="46.43974" lon="-0.17618">
        <ele>159.4</ele>
        <time>2020-05-30T19:00:39Z</time>
      </trkpt>
      <trkpt lat="46.43969" lon="-0.17618">
        <ele>159.3</ele>
        <time>2020-05-30T19:00:40Z</time>
      </trkpt>
      <trkpt lat="46.43963" lon="-0.17619">
        <ele>159.2</ele>
        <time>2020-05-30T19:00:41Z</time>
      </trkpt>
      <trkpt lat="46.43956" lon="-0.1762">
        <ele>159.1</ele>
        <time>2020-05-30T19:00:42Z</time>
      </trkpt>
      <trkpt lat="46.4395" lon="-0.17618">
        <ele>158.9</ele>
        <time>2020-05-30T19:00:43Z</time>
      </trkpt>
      <trkpt lat="46.43945" lon="-0.17618">
        <ele>158.8</ele>
        <time>2020-05-30T19:00:44Z</time>
      </trkpt>
      <trkpt lat="46.43938" lon="-0.17617">
        <ele>158.6</ele>
        <time>2020-05-30T19:00:45Z</time>
      </trkpt>
      <trkpt lat="46.43931" lon="-0.17616">
        <ele>158.5</ele>
        <time>2020-05-30T19:00:46Z</time>
      </trkpt>
      <trkpt lat="46.43925" lon="-0.17615">
        <ele>158.3</ele>
        <time>2020-05-30T19:00:47Z</time>
      </trkpt>
      <trkpt lat="46.43918" lon="-0.17614">
        <ele>158.2</ele>
        <time>2020-05-30T19:00:48Z</time>
      </trkpt>
      <trkpt lat="46.4391" lon="-0.17614">
        <ele>158</ele>
        <time>2020-05-30T19:00:49Z</time>
      </trkpt>
      <trkpt lat="46.43904" lon="-0.17614">
        <ele>157.9</ele>
        <time>2020-05-30T19:00:50Z</time>
      </trkpt>
      <trkpt lat="46.43896" lon="-0.17612">
        <ele>157.7</ele>
        <time>2020-05-30T19:00:51Z</time>
      </trkpt>
      <trkpt lat="46.43889" lon="-0.17613">
        <ele>157.6</ele>
        <time>2020-05-30T19:00:52Z</time>
      </trkpt>
      <trkpt lat="46.43882" lon="-0.17613">
        <ele>157.5</ele>
        <time>2020-05-30T19:00:53Z</time>
      </trkpt>
      <trkpt lat="46.43876" lon="-0.17613">
        <ele>157.4</ele>
        <time>2020-05-30T19:00:54Z</time>
      </trkpt>
      <trkpt lat="46.4387" lon="-0.17613">
        <ele>157.3</ele>
        <time>2020-05-30T19:00:55Z</time>
      </trkpt>
      <trkpt lat="46.43864" lon="-0.17612">
        <ele>157.2</ele>
        <time>2020-05-30T19:00:56Z</time>
      </trkpt>
      <trkpt lat="46.43858" lon="-0.17612">
        <ele>157.2</ele>
        <time>2020-05-30T19:00:57Z</time>
      </trkpt>
      <trkpt lat="46.43852" lon="-0.17611">
        <ele>157.1</ele>
        <time>2020-05-30T19:00:58Z</time>
      </trkpt>
      <trkpt lat="46.43846" lon="-0.17609">
        <ele>157</ele>
        <time>2020-05-30T19:00:59Z</time>
      </trkpt>
      <trkpt lat="46.43841" lon="-0.17607">
        <ele>157</ele>
        <time>2020-05-30T19:01:00Z</time>
      </trkpt>
      <trkpt lat="46.43836" lon="-0.17604">
        <ele>157</ele>
        <time>2020-05-30T19:01:01Z</time>
      </trkpt>
      <trkpt lat="46.43831" lon="-0.17599">
        <ele>156.9</ele>
        <time>2020-05-30T19:01:02Z</time>
      </trkpt>
      <trkpt lat="46.43828" lon="-0.17592">
        <ele>156.9</ele>
        <time>2020-05-30T19:01:03Z</time>
      </trkpt>
      <trkpt lat="46.43826" lon="-0.17586">
        <ele>156.9</ele>
        <time>2020-05-30T19:01:04Z</time>
      </trkpt>
      <trkpt lat="46.43822" lon="-0.1758">
        <ele>156.8</ele>
        <time>2020-05-30T19:01:05Z</time>
      </trkpt>
      <trkpt lat="46.43819" lon="-0.17574">
        <ele>156.8</ele>
        <time>2020-05-30T19:01:06Z</time>
      </trkpt>
      <trkpt lat="46.43814" lon="-0.17566">
        <ele>156.7</ele>
        <time>2020-05-30T19:01:07Z</time>
      </trkpt>
      <trkpt lat="46.43809" lon="-0.1756">
        <ele>156.6</ele>
        <time>2020-05-30T19:01:08Z</time>
      </trkpt>
      <trkpt lat="46.43804" lon="-0.17557">
        <ele>156.5</ele>
        <time>2020-05-30T19:01:09Z</time>
      </trkpt>
      <trkpt lat="46.43798" lon="-0.17555">
        <ele>156.4</ele>
        <time>2020-05-30T19:01:10Z</time>
      </trkpt>
      <trkpt lat="46.43792" lon="-0.17551">
        <ele>156.3</ele>
        <time>2020-05-30T19:01:11Z</time>
      </trkpt>
      <trkpt lat="46.43786" lon="-0.17547">
        <ele>156.1</ele>
        <time>2020-05-30T19:01:12Z</time>
      </trkpt>
      <trkpt lat="46.43781" lon="-0.17543">
        <ele>156</ele>
        <time>2020-05-30T19:01:13Z</time>
      </trkpt>
      <trkpt lat="46.43777" lon="-0.17541">
        <ele>155.9</ele>
        <time>2020-05-30T19:01:14Z</time>
      </trkpt>
      <trkpt lat="46.43771" lon="-0.17538">
        <ele>155.8</ele>
        <time>2020-05-30T19:01:15Z</time>
      </trkpt>
      <trkpt lat="46.43766" lon="-0.17537">
        <ele>155.7</ele>
        <time>2020-05-30T19:01:16Z</time>
      </trkpt>
      <trkpt lat="46.4376" lon="-0.17534">
        <ele>155.6</ele>
        <time>2020-05-30T19:01:17Z</time>
      </trkpt>
      <trkpt lat="46.43755" lon="-0.17532">
        <ele>155.6</ele>
        <time>2020-05-30T19:01:18Z</time>
      </trkpt>
      <trkpt lat="46.43749" lon="-0.1753">
        <ele>155.6</ele>
        <time>2020-05-30T19:01:19Z</time>
      </trkpt>
      <trkpt lat="46.43744" lon="-0.17528">
        <ele>155.6</ele>
        <time>2020-05-30T19:01:20Z</time>
      </trkpt>
      <trkpt lat="46.43738" lon="-0.17525">
        <ele>155.6</ele>
        <time>2020-05-30T19:01:21Z</time>
      </trkpt>
      <trkpt lat="46.43732" lon="-0.17523">
        <ele>155.6</ele>
        <time>2020-05-30T19:01:22Z</time>
      </trkpt>
      <trkpt lat="46.43724" lon="-0.17521">
        <ele>155.5</ele>
        <time>2020-05-30T19:01:23Z</time>
      </trkpt>
      <trkpt lat="46.43719" lon="-0.17519">
        <ele>155.5</ele>
        <time>2020-05-30T19:01:24Z</time>
      </trkpt>
      <trkpt lat="46.43714" lon="-0.17517">
        <ele>155.5</ele>
        <time>2020-05-30T19:01:25Z</time>
      </trkpt>
      <trkpt lat="46.43708" lon="-0.17517">
        <ele>155.5</ele>
        <time>2020-05-30T19:01:26Z</time>
      </trkpt>
      <trkpt lat="46.43703" lon="-0.17517">
        <ele>155.5</ele>
        <time>2020-05-30T19:01:27Z</time>
      </trkpt>
      <trkpt lat="46.43697" lon="-0.17517">
        <ele>155.5</ele>
        <time>2020-05-30T19:01:28Z</time>
      </trkpt>
      <trkpt lat="46.43691" lon="-0.17517">
        <ele>155.6</ele>
        <time>2020-05-30T19:01:29Z</time>
      </trkpt>
      <trkpt lat="46.43687" lon="-0.17516">
        <ele>155.7</ele>
        <time>2020-05-30T19:01:30Z</time>
      </trkpt>
      <trkpt lat="46.4368" lon="-0.17518">
        <ele>155.7</ele>
        <time>2020-05-30T19:01:31Z</time>
      </trkpt>
      <trkpt lat="46.43674" lon="-0.17521">
        <ele>155.8</ele>
        <time>2020-05-30T19:01:32Z</time>
      </trkpt>
      <trkpt lat="46.4367" lon="-0.17523">
        <ele>155.8</ele>
        <time>2020-05-30T19:01:33Z</time>
      </trkpt>
      <trkpt lat="46.43666" lon="-0.17526">
        <ele>155.8</ele>
        <time>2020-05-30T19:01:34Z</time>
      </trkpt>
      <trkpt lat="46.43662" lon="-0.17529">
        <ele>155.8</ele>
        <time>2020-05-30T19:01:35Z</time>
      </trkpt>
      <trkpt lat="46.43655" lon="-0.17533">
        <ele>155.8</ele>
        <time>2020-05-30T19:01:36Z</time>
      </trkpt>
      <trkpt lat="46.43651" lon="-0.17536">
        <ele>155.8</ele>
        <time>2020-05-30T19:01:37Z</time>
      </trkpt>
      <trkpt lat="46.43646" lon="-0.1754">
        <ele>155.8</ele>
        <time>2020-05-30T19:01:38Z</time>
      </trkpt>
      <trkpt lat="46.43642" lon="-0.17544">
        <ele>155.8</ele>
        <time>2020-05-30T19:01:39Z</time>
      </trkpt>
      <trkpt lat="46.43637" lon="-0.17547">
        <ele>155.9</ele>
        <time>2020-05-30T19:01:40Z</time>
      </trkpt>
      <trkpt lat="46.43633" lon="-0.17552">
        <ele>155.9</ele>
        <time>2020-05-30T19:01:41Z</time>
      </trkpt>
      <trkpt lat="46.43629" lon="-0.17555">
        <ele>155.9</ele>
        <time>2020-05-30T19:01:42Z</time>
      </trkpt>
      <trkpt lat="46.43625" lon="-0.17559">
        <ele>155.9</ele>
        <time>2020-05-30T19:01:43Z</time>
      </trkpt>
      <trkpt lat="46.43621" lon="-0.17562">
        <ele>155.9</ele>
        <time>2020-05-30T19:01:44Z</time>
      </trkpt>
      <trkpt lat="46.43617" lon="-0.17565">
        <ele>155.9</ele>
        <time>2020-05-30T19:01:45Z</time>
      </trkpt>
      <trkpt lat="46.43613" lon="-0.17569">
        <ele>155.9</ele>
        <time>2020-05-30T19:01:46Z</time>
      </trkpt>
      <trkpt lat="46.4361" lon="-0.17572">
        <ele>155.9</ele>
        <time>2020-05-30T19:01:47Z</time>
      </trkpt>
      <trkpt lat="46.43607" lon="-0.17576">
        <ele>155.9</ele>
        <time>2020-05-30T19:01:48Z</time>
      </trkpt>
      <trkpt lat="46.43603" lon="-0.1758">
        <ele>155.9</ele>
        <time>2020-05-30T19:01:49Z</time>
      </trkpt>
      <trkpt lat="46.43599" lon="-0.17582">
        <ele>155.9</ele>
        <time>2020-05-30T19:01:50Z</time>
      </trkpt>
      <trkpt lat="46.43594" lon="-0.17586">
        <ele>155.9</ele>
        <time>2020-05-30T19:01:51Z</time>
      </trkpt>
      <trkpt lat="46.4359" lon="-0.17589">
        <ele>155.8</ele>
        <time>2020-05-30T19:01:52Z</time>
      </trkpt>
      <trkpt lat="46.43585" lon="-0.17592">
        <ele>155.8</ele>
        <time>2020-05-30T19:01:53Z</time>
      </trkpt>
      <trkpt lat="46.43581" lon="-0.17596">
        <ele>155.8</ele>
        <time>2020-05-30T19:01:54Z</time>
      </trkpt>
      <trkpt lat="46.43576" lon="-0.17598">
        <ele>155.8</ele>
        <time>2020-05-30T19:01:55Z</time>
      </trkpt>
      <trkpt lat="46.43571" lon="-0.17602">
        <ele>155.7</ele>
        <time>2020-05-30T19:01:56Z</time>
      </trkpt>
      <trkpt lat="46.43568" lon="-0.17605">
        <ele>155.7</ele>
        <time>2020-05-30T19:01:57Z</time>
      </trkpt>
      <trkpt lat="46.43563" lon="-0.17609">
        <ele>155.7</ele>
        <time>2020-05-30T19:01:58Z</time>
      </trkpt>
      <trkpt lat="46.43558" lon="-0.17612">
        <ele>155.6</ele>
        <time>2020-05-30T19:01:59Z</time>
      </trkpt>
      <trkpt lat="46.43554" lon="-0.17616">
        <ele>155.6</ele>
        <time>2020-05-30T19:02:00Z</time>
      </trkpt>
      <trkpt lat="46.43549" lon="-0.17619">
        <ele>155.6</ele>
        <time>2020-05-30T19:02:01Z</time>
      </trkpt>
      <trkpt lat="46.43545" lon="-0.17623">
        <ele>155.5</ele>
        <time>2020-05-30T19:02:02Z</time>
      </trkpt>
      <trkpt lat="46.4354" lon="-0.17627">
        <ele>155.5</ele>
        <time>2020-05-30T19:02:03Z</time>
      </trkpt>
      <trkpt lat="46.43536" lon="-0.1763">
        <ele>155.5</ele>
        <time>2020-05-30T19:02:04Z</time>
      </trkpt>
      <trkpt lat="46.43531" lon="-0.17633">
        <ele>155.5</ele>
        <time>2020-05-30T19:02:05Z</time>
      </trkpt>
      <trkpt lat="46.43526" lon="-0.17635">
        <ele>155.5</ele>
        <time>2020-05-30T19:02:06Z</time>
      </trkpt>
      <trkpt lat="46.43522" lon="-0.17639">
        <ele>155.5</ele>
        <time>2020-05-30T19:02:07Z</time>
      </trkpt>
      <trkpt lat="46.43517" lon="-0.17642">
        <ele>155.5</ele>
        <time>2020-05-30T19:02:08Z</time>
      </trkpt>
      <trkpt lat="46.43513" lon="-0.17647">
        <ele>155.5</ele>
        <time>2020-05-30T19:02:09Z</time>
      </trkpt>
      <trkpt lat="46.43507" lon="-0.17651">
        <ele>155.5</ele>
        <time>2020-05-30T19:02:10Z</time>
      </trkpt>
      <trkpt lat="46.43502" lon="-0.17654">
        <ele>155.5</ele>
        <time>2020-05-30T19:02:11Z</time>
      </trkpt>
      <trkpt lat="46.43497" lon="-0.17657">
        <ele>155.6</ele>
        <time>2020-05-30T19:02:12Z</time>
      </trkpt>
      <trkpt lat="46.43494" lon="-0.1766">
        <ele>155.6</ele>
        <time>2020-05-30T19:02:13Z</time>
      </trkpt>
      <trkpt lat="46.43489" lon="-0.17664">
        <ele>155.6</ele>
        <time>2020-05-30T19:02:14Z</time>
      </trkpt>
      <trkpt lat="46.43484" lon="-0.17667">
        <ele>155.7</ele>
        <time>2020-05-30T19:02:15Z</time>
      </trkpt>
      <trkpt lat="46.43481" lon="-0.17671">
        <ele>155.7</ele>
        <time>2020-05-30T19:02:16Z</time>
      </trkpt>
      <trkpt lat="46.43477" lon="-0.17675">
        <ele>155.7</ele>
        <time>2020-05-30T19:02:17Z</time>
      </trkpt>
      <trkpt lat="46.43474" lon="-0.17678">
        <ele>155.8</ele>
        <time>2020-05-30T19:02:18Z</time>
      </trkpt>
      <trkpt lat="46.4347" lon="-0.17681">
        <ele>155.9</ele>
        <time>2020-05-30T19:02:19Z</time>
      </trkpt>
      <trkpt lat="46.43466" lon="-0.17684">
        <ele>155.9</ele>
        <time>2020-05-30T19:02:20Z</time>
      </trkpt>
      <trkpt lat="46.43461" lon="-0.17687">
        <ele>156</ele>
        <time>2020-05-30T19:02:21Z</time>
      </trkpt>
      <trkpt lat="46.43457" lon="-0.17689">
        <ele>156.1</ele>
        <time>2020-05-30T19:02:22Z</time>
      </trkpt>
      <trkpt lat="46.43453" lon="-0.17691">
        <ele>156.2</ele>
        <time>2020-05-30T19:02:23Z</time>
      </trkpt>
      <trkpt lat="46.43448" lon="-0.17692">
        <ele>156.2</ele>
        <time>2020-05-30T19:02:24Z</time>
      </trkpt>
      <trkpt lat="46.43444" lon="-0.17694">
        <ele>156.3</ele>
        <time>2020-05-30T19:02:25Z</time>
      </trkpt>
      <trkpt lat="46.43439" lon="-0.17697">
        <ele>156.4</ele>
        <time>2020-05-30T19:02:26Z</time>
      </trkpt>
      <trkpt lat="46.43435" lon="-0.17699">
        <ele>156.4</ele>
        <time>2020-05-30T19:02:27Z</time>
      </trkpt>
      <trkpt lat="46.43431" lon="-0.17702">
        <ele>156.5</ele>
        <time>2020-05-30T19:02:28Z</time>
      </trkpt>
      <trkpt lat="46.43426" lon="-0.17705">
        <ele>156.5</ele>
        <time>2020-05-30T19:02:29Z</time>
      </trkpt>
      <trkpt lat="46.43422" lon="-0.17707">
        <ele>156.6</ele>
        <time>2020-05-30T19:02:30Z</time>
      </trkpt>
      <trkpt lat="46.43418" lon="-0.17711">
        <ele>156.6</ele>
        <time>2020-05-30T19:02:31Z</time>
      </trkpt>
      <trkpt lat="46.43414" lon="-0.17714">
        <ele>156.7</ele>
        <time>2020-05-30T19:02:32Z</time>
      </trkpt>
      <trkpt lat="46.4341" lon="-0.17717">
        <ele>156.7</ele>
        <time>2020-05-30T19:02:33Z</time>
      </trkpt>
      <trkpt lat="46.43407" lon="-0.1772">
        <ele>156.7</ele>
        <time>2020-05-30T19:02:34Z</time>
      </trkpt>
      <trkpt lat="46.43403" lon="-0.17723">
        <ele>156.8</ele>
        <time>2020-05-30T19:02:35Z</time>
      </trkpt>
      <trkpt lat="46.43399" lon="-0.17726">
        <ele>156.8</ele>
        <time>2020-05-30T19:02:36Z</time>
      </trkpt>
      <trkpt lat="46.43395" lon="-0.1773">
        <ele>156.9</ele>
        <time>2020-05-30T19:02:37Z</time>
      </trkpt>
      <trkpt lat="46.43391" lon="-0.17733">
        <ele>156.9</ele>
        <time>2020-05-30T19:02:38Z</time>
      </trkpt>
      <trkpt lat="46.43388" lon="-0.17735">
        <ele>156.9</ele>
        <time>2020-05-30T19:02:39Z</time>
      </trkpt>
      <trkpt lat="46.43384" lon="-0.17738">
        <ele>157</ele>
        <time>2020-05-30T19:02:40Z</time>
      </trkpt>
      <trkpt lat="46.4338" lon="-0.17742">
        <ele>157</ele>
        <time>2020-05-30T19:02:41Z</time>
      </trkpt>
      <trkpt lat="46.43376" lon="-0.17745">
        <ele>157.1</ele>
        <time>2020-05-30T19:02:42Z</time>
      </trkpt>
      <trkpt lat="46.43372" lon="-0.17749">
        <ele>157.1</ele>
        <time>2020-05-30T19:02:43Z</time>
      </trkpt>
      <trkpt lat="46.43368" lon="-0.17753">
        <ele>157.1</ele>
        <time>2020-05-30T19:02:44Z</time>
      </trkpt>
      <trkpt lat="46.43364" lon="-0.17755">
        <ele>157.1</ele>
        <time>2020-05-30T19:02:45Z</time>
      </trkpt>
      <trkpt lat="46.4336" lon="-0.17759">
        <ele>157.2</ele>
        <time>2020-05-30T19:02:46Z</time>
      </trkpt>
      <trkpt lat="46.43356" lon="-0.17762">
        <ele>157.2</ele>
        <time>2020-05-30T19:02:47Z</time>
      </trkpt>
      <trkpt lat="46.43352" lon="-0.17766">
        <ele>157.2</ele>
        <time>2020-05-30T19:02:48Z</time>
      </trkpt>
      <trkpt lat="46.43348" lon="-0.17769">
        <ele>157.1</ele>
        <time>2020-05-30T19:02:49Z</time>
      </trkpt>
      <trkpt lat="46.43344" lon="-0.17771">
        <ele>157.1</ele>
        <time>2020-05-30T19:02:50Z</time>
      </trkpt>
      <trkpt lat="46.4334" lon="-0.17775">
        <ele>157.1</ele>
        <time>2020-05-30T19:02:51Z</time>
      </trkpt>
      <trkpt lat="46.43336" lon="-0.17778">
        <ele>157.1</ele>
        <time>2020-05-30T19:02:52Z</time>
      </trkpt>
      <trkpt lat="46.43332" lon="-0.17783">
        <ele>157.1</ele>
        <time>2020-05-30T19:02:53Z</time>
      </trkpt>
      <trkpt lat="46.43328" lon="-0.17787">
        <ele>157</ele>
        <time>2020-05-30T19:02:54Z</time>
      </trkpt>
      <trkpt lat="46.43324" lon="-0.1779">
        <ele>157</ele>
        <time>2020-05-30T19:02:55Z</time>
      </trkpt>
      <trkpt lat="46.43319" lon="-0.17794">
        <ele>156.9</ele>
        <time>2020-05-30T19:02:56Z</time>
      </trkpt>
      <trkpt lat="46.43315" lon="-0.17798">
        <ele>156.9</ele>
        <time>2020-05-30T19:02:57Z</time>
      </trkpt>
      <trkpt lat="46.43309" lon="-0.17802">
        <ele>156.8</ele>
        <time>2020-05-30T19:02:58Z</time>
      </trkpt>
      <trkpt lat="46.43304" lon="-0.17807">
        <ele>156.8</ele>
        <time>2020-05-30T19:02:59Z</time>
      </trkpt>
      <trkpt lat="46.433" lon="-0.17813">
        <ele>156.7</ele>
        <time>2020-05-30T19:03:00Z</time>
      </trkpt>
      <trkpt lat="46.43297" lon="-0.1782">
        <ele>156.7</ele>
        <time>2020-05-30T19:03:01Z</time>
      </trkpt>
      <trkpt lat="46.43293" lon="-0.17826">
        <ele>156.7</ele>
        <time>2020-05-30T19:03:02Z</time>
      </trkpt>
      <trkpt lat="46.4329" lon="-0.17833">
        <ele>156.6</ele>
        <time>2020-05-30T19:03:03Z</time>
      </trkpt>
      <trkpt lat="46.43286" lon="-0.1784">
        <ele>156.6</ele>
        <time>2020-05-30T19:03:04Z</time>
      </trkpt>
      <trkpt lat="46.43282" lon="-0.17847">
        <ele>156.5</ele>
        <time>2020-05-30T19:03:05Z</time>
      </trkpt>
      <trkpt lat="46.43279" lon="-0.17853">
        <ele>156.5</ele>
        <time>2020-05-30T19:03:06Z</time>
      </trkpt>
      <trkpt lat="46.43276" lon="-0.17858">
        <ele>156.4</ele>
        <time>2020-05-30T19:03:07Z</time>
      </trkpt>
      <trkpt lat="46.43273" lon="-0.17863">
        <ele>156.4</ele>
        <time>2020-05-30T19:03:08Z</time>
      </trkpt>
      <trkpt lat="46.4327" lon="-0.17868">
        <ele>156.3</ele>
        <time>2020-05-30T19:03:09Z</time>
      </trkpt>
      <trkpt lat="46.43266" lon="-0.17874">
        <ele>156.2</ele>
        <time>2020-05-30T19:03:10Z</time>
      </trkpt>
      <trkpt lat="46.43263" lon="-0.17879">
        <ele>156.2</ele>
        <time>2020-05-30T19:03:11Z</time>
      </trkpt>
      <trkpt lat="46.43261" lon="-0.17884">
        <ele>156.1</ele>
        <time>2020-05-30T19:03:12Z</time>
      </trkpt>
      <trkpt lat="46.43258" lon="-0.17888">
        <ele>156.1</ele>
        <time>2020-05-30T19:03:13Z</time>
      </trkpt>
      <trkpt lat="46.43254" lon="-0.17892">
        <ele>156</ele>
        <time>2020-05-30T19:03:14Z</time>
      </trkpt>
      <trkpt lat="46.43252" lon="-0.17897">
        <ele>155.9</ele>
        <time>2020-05-30T19:03:15Z</time>
      </trkpt>
      <trkpt lat="46.43248" lon="-0.17902">
        <ele>155.9</ele>
        <time>2020-05-30T19:03:16Z</time>
      </trkpt>
      <trkpt lat="46.43246" lon="-0.17907">
        <ele>155.8</ele>
        <time>2020-05-30T19:03:17Z</time>
      </trkpt>
      <trkpt lat="46.43243" lon="-0.1791">
        <ele>155.7</ele>
        <time>2020-05-30T19:03:18Z</time>
      </trkpt>
      <trkpt lat="46.43241" lon="-0.17914">
        <ele>155.6</ele>
        <time>2020-05-30T19:03:19Z</time>
      </trkpt>
      <trkpt lat="46.43239" lon="-0.17917">
        <ele>155.6</ele>
        <time>2020-05-30T19:03:20Z</time>
      </trkpt>
      <trkpt lat="46.43236" lon="-0.17921">
        <ele>155.5</ele>
        <time>2020-05-30T19:03:21Z</time>
      </trkpt>
      <trkpt lat="46.43234" lon="-0.17925">
        <ele>155.4</ele>
        <time>2020-05-30T19:03:22Z</time>
      </trkpt>
      <trkpt lat="46.43231" lon="-0.1793">
        <ele>155.3</ele>
        <time>2020-05-30T19:03:23Z</time>
      </trkpt>
      <trkpt lat="46.43229" lon="-0.17935">
        <ele>155.1</ele>
        <time>2020-05-30T19:03:24Z</time>
      </trkpt>
      <trkpt lat="46.43225" lon="-0.1794">
        <ele>155</ele>
        <time>2020-05-30T19:03:25Z</time>
      </trkpt>
      <trkpt lat="46.43221" lon="-0.17945">
        <ele>154.9</ele>
        <time>2020-05-30T19:03:26Z</time>
      </trkpt>
      <trkpt lat="46.43218" lon="-0.1795">
        <ele>154.8</ele>
        <time>2020-05-30T19:03:27Z</time>
      </trkpt>
      <trkpt lat="46.43215" lon="-0.17955">
        <ele>154.7</ele>
        <time>2020-05-30T19:03:28Z</time>
      </trkpt>
      <trkpt lat="46.43211" lon="-0.17961">
        <ele>154.5</ele>
        <time>2020-05-30T19:03:29Z</time>
      </trkpt>
      <trkpt lat="46.43209" lon="-0.17966">
        <ele>154.4</ele>
        <time>2020-05-30T19:03:30Z</time>
      </trkpt>
      <trkpt lat="46.43206" lon="-0.17972">
        <ele>154.3</ele>
        <time>2020-05-30T19:03:31Z</time>
      </trkpt>
      <trkpt lat="46.43204" lon="-0.17978">
        <ele>154.1</ele>
        <time>2020-05-30T19:03:32Z</time>
      </trkpt>
      <trkpt lat="46.43201" lon="-0.17983">
        <ele>154</ele>
        <time>2020-05-30T19:03:33Z</time>
      </trkpt>
      <trkpt lat="46.43199" lon="-0.17987">
        <ele>153.9</ele>
        <time>2020-05-30T19:03:34Z</time>
      </trkpt>
      <trkpt lat="46.43196" lon="-0.17993">
        <ele>153.7</ele>
        <time>2020-05-30T19:03:35Z</time>
      </trkpt>
      <trkpt lat="46.43193" lon="-0.17998">
        <ele>153.6</ele>
        <time>2020-05-30T19:03:36Z</time>
      </trkpt>
      <trkpt lat="46.4319" lon="-0.18003">
        <ele>153.4</ele>
        <time>2020-05-30T19:03:37Z</time>
      </trkpt>
      <trkpt lat="46.43186" lon="-0.18007">
        <ele>153.2</ele>
        <time>2020-05-30T19:03:38Z</time>
      </trkpt>
      <trkpt lat="46.43183" lon="-0.18013">
        <ele>153.1</ele>
        <time>2020-05-30T19:03:39Z</time>
      </trkpt>
      <trkpt lat="46.4318" lon="-0.18018">
        <ele>152.9</ele>
        <time>2020-05-30T19:03:40Z</time>
      </trkpt>
      <trkpt lat="46.43178" lon="-0.18023">
        <ele>152.8</ele>
        <time>2020-05-30T19:03:41Z</time>
      </trkpt>
      <trkpt lat="46.43175" lon="-0.18028">
        <ele>152.6</ele>
        <time>2020-05-30T19:03:42Z</time>
      </trkpt>
      <trkpt lat="46.43172" lon="-0.18032">
        <ele>152.5</ele>
        <time>2020-05-30T19:03:43Z</time>
      </trkpt>
      <trkpt lat="46.43168" lon="-0.18038">
        <ele>152.3</ele>
        <time>2020-05-30T19:03:44Z</time>
      </trkpt>
      <trkpt lat="46.43165" lon="-0.18043">
        <ele>152.2</ele>
        <time>2020-05-30T19:03:45Z</time>
      </trkpt>
      <trkpt lat="46.43163" lon="-0.18049">
        <ele>152</ele>
        <time>2020-05-30T19:03:46Z</time>
      </trkpt>
      <trkpt lat="46.43161" lon="-0.18053">
        <ele>151.9</ele>
        <time>2020-05-30T19:03:47Z</time>
      </trkpt>
      <trkpt lat="46.43158" lon="-0.18058">
        <ele>151.7</ele>
        <time>2020-05-30T19:03:48Z</time>
      </trkpt>
      <trkpt lat="46.43156" lon="-0.18063">
        <ele>151.6</ele>
        <time>2020-05-30T19:03:49Z</time>
      </trkpt>
      <trkpt lat="46.43152" lon="-0.18069">
        <ele>151.3</ele>
        <time>2020-05-30T19:03:50Z</time>
      </trkpt>
      <trkpt lat="46.43149" lon="-0.18075">
        <ele>151.1</ele>
        <time>2020-05-30T19:03:51Z</time>
      </trkpt>
      <trkpt lat="46.43146" lon="-0.1808">
        <ele>150.9</ele>
        <time>2020-05-30T19:03:52Z</time>
      </trkpt>
      <trkpt lat="46.43143" lon="-0.18084">
        <ele>150.7</ele>
        <time>2020-05-30T19:03:53Z</time>
      </trkpt>
      <trkpt lat="46.4314" lon="-0.18089">
        <ele>150.4</ele>
        <time>2020-05-30T19:03:54Z</time>
      </trkpt>
      <trkpt lat="46.43137" lon="-0.18094">
        <ele>150.1</ele>
        <time>2020-05-30T19:03:55Z</time>
      </trkpt>
      <trkpt lat="46.43134" lon="-0.18098">
        <ele>149.8</ele>
        <time>2020-05-30T19:03:56Z</time>
      </trkpt>
      <trkpt lat="46.4313" lon="-0.18103">
        <ele>149.5</ele>
        <time>2020-05-30T19:03:57Z</time>
      </trkpt>
      <trkpt lat="46.43126" lon="-0.18109">
        <ele>149</ele>
        <time>2020-05-30T19:03:58Z</time>
      </trkpt>
      <trkpt lat="46.43123" lon="-0.18115">
        <ele>148.7</ele>
        <time>2020-05-30T19:03:59Z</time>
      </trkpt>
      <trkpt lat="46.43122" lon="-0.18122">
        <ele>148.2</ele>
        <time>2020-05-30T19:04:00Z</time>
      </trkpt>
      <trkpt lat="46.4312" lon="-0.18126">
        <ele>148</ele>
        <time>2020-05-30T19:04:01Z</time>
      </trkpt>
      <trkpt lat="46.43118" lon="-0.1813">
        <ele>147.7</ele>
        <time>2020-05-30T19:04:02Z</time>
      </trkpt>
      <trkpt lat="46.43115" lon="-0.18134">
        <ele>147.3</ele>
        <time>2020-05-30T19:04:03Z</time>
      </trkpt>
      <trkpt lat="46.43112" lon="-0.18138">
        <ele>146.9</ele>
        <time>2020-05-30T19:04:04Z</time>
      </trkpt>
      <trkpt lat="46.4311" lon="-0.18141">
        <ele>146.6</ele>
        <time>2020-05-30T19:04:05Z</time>
      </trkpt>
      <trkpt lat="46.43108" lon="-0.18144">
        <ele>146.3</ele>
        <time>2020-05-30T19:04:06Z</time>
      </trkpt>
      <trkpt lat="46.43104" lon="-0.18148">
        <ele>145.9</ele>
        <time>2020-05-30T19:04:07Z</time>
      </trkpt>
      <trkpt lat="46.43102" lon="-0.18151">
        <ele>145.6</ele>
        <time>2020-05-30T19:04:08Z</time>
      </trkpt>
      <trkpt lat="46.43099" lon="-0.18155">
        <ele>145.2</ele>
        <time>2020-05-30T19:04:09Z</time>
      </trkpt>
      <trkpt lat="46.43096" lon="-0.18159">
        <ele>144.8</ele>
        <time>2020-05-30T19:04:10Z</time>
      </trkpt>
      <trkpt lat="46.43093" lon="-0.18163">
        <ele>144.3</ele>
        <time>2020-05-30T19:04:11Z</time>
      </trkpt>
      <trkpt lat="46.4309" lon="-0.18167">
        <ele>144</ele>
        <time>2020-05-30T19:04:12Z</time>
      </trkpt>
      <trkpt lat="46.43088" lon="-0.18171">
        <ele>143.6</ele>
        <time>2020-05-30T19:04:13Z</time>
      </trkpt>
      <trkpt lat="46.43086" lon="-0.18176">
        <ele>143.3</ele>
        <time>2020-05-30T19:04:14Z</time>
      </trkpt>
      <trkpt lat="46.43084" lon="-0.1818">
        <ele>142.9</ele>
        <time>2020-05-30T19:04:15Z</time>
      </trkpt>
      <trkpt lat="46.43082" lon="-0.18183">
        <ele>142.7</ele>
        <time>2020-05-30T19:04:16Z</time>
      </trkpt>
      <trkpt lat="46.43079" lon="-0.18186">
        <ele>142.4</ele>
        <time>2020-05-30T19:04:17Z</time>
      </trkpt>
      <trkpt lat="46.43078" lon="-0.18187">
        <ele>142.3</ele>
        <time>2020-05-30T19:04:18Z</time>
      </trkpt>
      <trkpt lat="46.43076" lon="-0.18191">
        <ele>141.9</ele>
        <time>2020-05-30T19:04:19Z</time>
      </trkpt>
      <trkpt lat="46.43075" lon="-0.18193">
        <ele>141.8</ele>
        <time>2020-05-30T19:04:20Z</time>
      </trkpt>
      <trkpt lat="46.43073" lon="-0.18197">
        <ele>141.5</ele>
        <time>2020-05-30T19:04:21Z</time>
      </trkpt>
      <trkpt lat="46.43072" lon="-0.18198">
        <ele>141.3</ele>
        <time>2020-05-30T19:04:22Z</time>
      </trkpt>
      <trkpt lat="46.43071" lon="-0.18202">
        <ele>141.1</ele>
        <time>2020-05-30T19:04:23Z</time>
      </trkpt>
      <trkpt lat="46.43069" lon="-0.18205">
        <ele>140.8</ele>
        <time>2020-05-30T19:04:24Z</time>
      </trkpt>
      <trkpt lat="46.43067" lon="-0.18208">
        <ele>140.5</ele>
        <time>2020-05-30T19:04:25Z</time>
      </trkpt>
      <trkpt lat="46.43065" lon="-0.18211">
        <ele>140.2</ele>
        <time>2020-05-30T19:04:26Z</time>
      </trkpt>
      <trkpt lat="46.43062" lon="-0.18216">
        <ele>139.7</ele>
        <time>2020-05-30T19:04:27Z</time>
      </trkpt>
      <trkpt lat="46.43061" lon="-0.18218">
        <ele>139.5</ele>
        <time>2020-05-30T19:04:28Z</time>
      </trkpt>
      <trkpt lat="46.43059" lon="-0.18222">
        <ele>139.2</ele>
        <time>2020-05-30T19:04:29Z</time>
      </trkpt>
      <trkpt lat="46.43057" lon="-0.18225">
        <ele>138.8</ele>
        <time>2020-05-30T19:04:30Z</time>
      </trkpt>
      <trkpt lat="46.43055" lon="-0.18229">
        <ele>138.4</ele>
        <time>2020-05-30T19:04:31Z</time>
      </trkpt>
      <trkpt lat="46.43053" lon="-0.18233">
        <ele>138</ele>
        <time>2020-05-30T19:04:32Z</time>
      </trkpt>
      <trkpt lat="46.43052" lon="-0.18238">
        <ele>137.6</ele>
        <time>2020-05-30T19:04:33Z</time>
      </trkpt>
      <trkpt lat="46.43051" lon="-0.18239">
        <ele>137.5</ele>
        <time>2020-05-30T19:04:34Z</time>
      </trkpt>
      <trkpt lat="46.43048" lon="-0.18242">
        <ele>137.1</ele>
        <time>2020-05-30T19:04:35Z</time>
      </trkpt>
      <trkpt lat="46.43045" lon="-0.18246">
        <ele>136.6</ele>
        <time>2020-05-30T19:04:36Z</time>
      </trkpt>
      <trkpt lat="46.43044" lon="-0.18248">
        <ele>136.5</ele>
        <time>2020-05-30T19:04:37Z</time>
      </trkpt>
      <trkpt lat="46.43042" lon="-0.18251">
        <ele>136</ele>
        <time>2020-05-30T19:04:38Z</time>
      </trkpt>
      <trkpt lat="46.4304" lon="-0.18255">
        <ele>135.7</ele>
        <time>2020-05-30T19:04:39Z</time>
      </trkpt>
      <trkpt lat="46.43038" lon="-0.18259">
        <ele>135.4</ele>
        <time>2020-05-30T19:04:40Z</time>
      </trkpt>
      <trkpt lat="46.43036" lon="-0.18263">
        <ele>135.1</ele>
        <time>2020-05-30T19:04:41Z</time>
      </trkpt>
      <trkpt lat="46.43035" lon="-0.18263">
        <ele>135</ele>
        <time>2020-05-30T19:04:42Z</time>
      </trkpt>
      <trkpt lat="46.43033" lon="-0.18267">
        <ele>134.8</ele>
        <time>2020-05-30T19:04:43Z</time>
      </trkpt>
      <trkpt lat="46.43033" lon="-0.18268">
        <ele>134.7</ele>
        <time>2020-05-30T19:04:44Z</time>
      </trkpt>
      <trkpt lat="46.43032" lon="-0.18269">
        <ele>134.6</ele>
        <time>2020-05-30T19:04:45Z</time>
      </trkpt>
      <trkpt lat="46.43031" lon="-0.1827">
        <ele>134.5</ele>
        <time>2020-05-30T19:04:46Z</time>
      </trkpt>
      <trkpt lat="46.4303" lon="-0.18272">
        <ele>134.4</ele>
        <time>2020-05-30T19:04:47Z</time>
      </trkpt>
      <trkpt lat="46.43029" lon="-0.18274">
        <ele>134.3</ele>
        <time>2020-05-30T19:04:48Z</time>
      </trkpt>
      <trkpt lat="46.43029" lon="-0.18277">
        <ele>134.1</ele>
        <time>2020-05-30T19:04:49Z</time>
      </trkpt>
      <trkpt lat="46.43029" lon="-0.18278">
        <ele>134.1</ele>
        <time>2020-05-30T19:04:50Z</time>
      </trkpt>
      <trkpt lat="46.43029" lon="-0.18279">
        <ele>133.9</ele>
        <time>2020-05-30T19:04:51Z</time>
      </trkpt>
      <trkpt lat="46.43028" lon="-0.1828">
        <ele>133.8</ele>
        <time>2020-05-30T19:04:52Z</time>
      </trkpt>
      <trkpt lat="46.43027" lon="-0.1828">
        <ele>133.8</ele>
        <time>2020-05-30T19:04:53Z</time>
      </trkpt>
      <trkpt lat="46.43027" lon="-0.18281">
        <ele>133.8</ele>
        <time>2020-05-30T19:04:54Z</time>
      </trkpt>
      <trkpt lat="46.43027" lon="-0.18282">
        <ele>133.8</ele>
        <time>2020-05-30T19:04:55Z</time>
      </trkpt>
      <trkpt lat="46.43027" lon="-0.18283">
        <ele>133.8</ele>
        <time>2020-05-30T19:04:56Z</time>
      </trkpt>
      <trkpt lat="46.43027" lon="-0.18283">
        <ele>133.8</ele>
        <time>2020-05-30T19:04:57Z</time>
      </trkpt>
      <trkpt lat="46.43027" lon="-0.18283">
        <ele>133.8</ele>
        <time>2020-05-30T19:04:58Z</time>
      </trkpt>
      <trkpt lat="46.43026" lon="-0.18283">
        <ele>133.8</ele>
        <time>2020-05-30T19:04:59Z</time>
      </trkpt>
      <trkpt lat="46.43026" lon="-0.18283">
        <ele>133.8</ele>
        <time>2020-05-30T19:05:00Z</time>
      </trkpt>
      <trkpt lat="46.43026" lon="-0.18283">
        <ele>133.8</ele>
        <time>2020-05-30T19:05:01Z</time>
      </trkpt>
      <trkpt lat="46.43027" lon="-0.18283">
        <ele>133.8</ele>
        <time>2020-05-30T19:05:02Z</time>
      </trkpt>
      <trkpt lat="46.43027" lon="-0.18283">
        <ele>133.7</ele>
        <time>2020-05-30T19:05:03Z</time>
      </trkpt>
      <trkpt lat="46.43027" lon="-0.18283">
        <ele>133.7</ele>
        <time>2020-05-30T19:05:04Z</time>
      </trkpt>
      <trkpt lat="46.43027" lon="-0.18283">
        <ele>133.7</ele>
        <time>2020-05-30T19:05:05Z</time>
      </trkpt>
      <trkpt lat="46.43027" lon="-0.18283">
        <ele>133.7</ele>
        <time>2020-05-30T19:05:06Z</time>
      </trkpt>
      <trkpt lat="46.43027" lon="-0.18283">
        <ele>133.7</ele>
        <time>2020-05-30T19:05:07Z</time>
      </trkpt>
      <trkpt lat="46.43027" lon="-0.18283">
        <ele>133.7</ele>
        <time>2020-05-30T19:05:08Z</time>
      </trkpt>
      <trkpt lat="46.43026" lon="-0.18283">
        <ele>133.7</ele>
        <time>2020-05-30T19:05:09Z</time>
      </trkpt>
      <trkpt lat="46.43026" lon="-0.18283">
        <ele>133.7</ele>
        <time>2020-05-30T19:05:10Z</time>
      </trkpt>
      <trkpt lat="46.43026" lon="-0.18283">
        <ele>133.7</ele>
        <time>2020-05-30T19:05:11Z</time>
      </trkpt>
      <trkpt lat="46.43026" lon="-0.18283">
        <ele>133.7</ele>
        <time>2020-05-30T19:05:12Z</time>
      </trkpt>
      <trkpt lat="46.43026" lon="-0.18283">
        <ele>133.7</ele>
        <time>2020-05-30T19:05:13Z</time>
      </trkpt>
      <trkpt lat="46.43026" lon="-0.18283">
        <ele>133.7</ele>
        <time>2020-05-30T19:05:14Z</time>
      </trkpt>
      <trkpt lat="46.43027" lon="-0.18282">
        <ele>133.7</ele>
        <time>2020-05-30T19:05:15Z</time>
      </trkpt>
      <trkpt lat="46.43026" lon="-0.18282">
        <ele>133.7</ele>
        <time>2020-05-30T19:05:16Z</time>
      </trkpt>
      <trkpt lat="46.43027" lon="-0.18282">
        <ele>133.7</ele>
        <time>2020-05-30T19:05:17Z</time>
      </trkpt>
      <trkpt lat="46.43027" lon="-0.18283">
        <ele>133.7</ele>
        <time>2020-05-30T19:05:18Z</time>
      </trkpt>
      <trkpt lat="46.43027" lon="-0.18283">
        <ele>133.7</ele>
        <time>2020-05-30T19:05:19Z</time>
      </trkpt>
      <trkpt lat="46.43026" lon="-0.18283">
        <ele>133.7</ele>
        <time>2020-05-30T19:05:20Z</time>
      </trkpt>
      <trkpt lat="46.43026" lon="-0.18283">
        <ele>133.7</ele>
        <time>2020-05-30T19:05:21Z</time>
      </trkpt>
      <trkpt lat="46.43026" lon="-0.18283">
        <ele>133.7</ele>
        <time>2020-05-30T19:05:22Z</time>
      </trkpt>
      <trkpt lat="46.43026" lon="-0.18283">
        <ele>133.7</ele>
        <time>2020-05-30T19:05:23Z</time>
      </trkpt>
      <trkpt lat="46.43026" lon="-0.18283">
        <ele>133.7</ele>
        <time>2020-05-30T19:05:24Z</time>
      </trkpt>
      <trkpt lat="46.43026" lon="-0.18283">
        <ele>133.7</ele>
        <time>2020-05-30T19:05:25Z</time>
      </trkpt>
      <trkpt lat="46.43027" lon="-0.18283">
        <ele>133.7</ele>
        <time>2020-05-30T19:05:26Z</time>
      </trkpt>
      <trkpt lat="46.43027" lon="-0.18283">
        <ele>133.7</ele>
        <time>2020-05-30T19:05:27Z</time>
      </trkpt>
      <trkpt lat="46.43027" lon="-0.18283">
        <ele>133.7</ele>
        <time>2020-05-30T19:05:28Z</time>
      </trkpt>
      <trkpt lat="46.43027" lon="-0.18283">
        <ele>133.7</ele>
        <time>2020-05-30T19:05:29Z</time>
      </trkpt>
      <trkpt lat="46.43027" lon="-0.18283">
        <ele>133.7</ele>
        <time>2020-05-30T19:05:30Z</time>
      </trkpt>
      <trkpt lat="46.43027" lon="-0.18283">
        <ele>133.7</ele>
        <time>2020-05-30T19:05:31Z</time>
      </trkpt>
      <trkpt lat="46.43027" lon="-0.18283">
        <ele>133.7</ele>
        <time>2020-05-30T19:05:32Z</time>
      </trkpt>
      <trkpt lat="46.43027" lon="-0.18283">
        <ele>133.7</ele>
        <time>2020-05-30T19:05:33Z</time>
      </trkpt>
      <trkpt lat="46.43027" lon="-0.18283">
        <ele>133.7</ele>
        <time>2020-05-30T19:05:34Z</time>
      </trkpt>
      <trkpt lat="46.43027" lon="-0.18283">
        <ele>133.7</ele>
        <time>2020-05-30T19:05:35Z</time>
      </trkpt>
      <trkpt lat="46.43027" lon="-0.18283">
        <ele>133.7</ele>
        <time>2020-05-30T19:05:36Z</time>
      </trkpt>
      <trkpt lat="46.43027" lon="-0.18283">
        <ele>133.7</ele>
        <time>2020-05-30T19:05:37Z</time>
      </trkpt>
      <trkpt lat="46.43027" lon="-0.18283">
        <ele>133.7</ele>
        <time>2020-05-30T19:05:38Z</time>
      </trkpt>
      <trkpt lat="46.43027" lon="-0.18283">
        <ele>133.7</ele>
        <time>2020-05-30T19:05:39Z</time>
      </trkpt>
      <trkpt lat="46.43027" lon="-0.18283">
        <ele>133.7</ele>
        <time>2020-05-30T19:05:40Z</time>
      </trkpt>
      <trkpt lat="46.43027" lon="-0.18283">
        <ele>133.7</ele>
        <time>2020-05-30T19:05:41Z</time>
      </trkpt>
      <trkpt lat="46.43027" lon="-0.18283">
        <ele>133.7</ele>
        <time>2020-05-30T19:05:42Z</time>
      </trkpt>
      <trkpt lat="46.43027" lon="-0.18283">
        <ele>133.6</ele>
        <time>2020-05-30T19:05:43Z</time>
      </trkpt>
      <trkpt lat="46.43027" lon="-0.18283">
        <ele>133.6</ele>
        <time>2020-05-30T19:05:44Z</time>
      </trkpt>
      <trkpt lat="46.43027" lon="-0.18283">
        <ele>133.6</ele>
        <time>2020-05-30T19:05:45Z</time>
      </trkpt>
      <trkpt lat="46.43027" lon="-0.18283">
        <ele>133.6</ele>
        <time>2020-05-30T19:05:46Z</time>
      </trkpt>
      <trkpt lat="46.43027" lon="-0.18283">
        <ele>133.6</ele>
        <time>2020-05-30T19:05:47Z</time>
      </trkpt>
      <trkpt lat="46.43026" lon="-0.18283">
        <ele>133.6</ele>
        <time>2020-05-30T19:05:48Z</time>
      </trkpt>
      <trkpt lat="46.43026" lon="-0.18283">
        <ele>133.6</ele>
        <time>2020-05-30T19:05:49Z</time>
      </trkpt>
      <trkpt lat="46.43026" lon="-0.18283">
        <ele>133.6</ele>
        <time>2020-05-30T19:05:50Z</time>
      </trkpt>
      <trkpt lat="46.43026" lon="-0.18284">
        <ele>133.6</ele>
        <time>2020-05-30T19:05:51Z</time>
      </trkpt>
      <trkpt lat="46.43026" lon="-0.18284">
        <ele>133.6</ele>
        <time>2020-05-30T19:05:52Z</time>
      </trkpt>
      <trkpt lat="46.43026" lon="-0.18284">
        <ele>133.6</ele>
        <time>2020-05-30T19:05:53Z</time>
      </trkpt>
      <trkpt lat="46.43026" lon="-0.18284">
        <ele>133.6</ele>
        <time>2020-05-30T19:05:54Z</time>
      </trkpt>
      <trkpt lat="46.43026" lon="-0.18284">
        <ele>133.6</ele>
        <time>2020-05-30T19:05:55Z</time>
      </trkpt>
      <trkpt lat="46.43026" lon="-0.18284">
        <ele>133.6</ele>
        <time>2020-05-30T19:05:56Z</time>
      </trkpt>
      <trkpt lat="46.43026" lon="-0.18284">
        <ele>133.6</ele>
        <time>2020-05-30T19:05:57Z</time>
      </trkpt>
      <trkpt lat="46.43026" lon="-0.18284">
        <ele>133.6</ele>
        <time>2020-05-30T19:05:58Z</time>
      </trkpt>
      <trkpt lat="46.43026" lon="-0.18285">
        <ele>133.6</ele>
        <time>2020-05-30T19:05:59Z</time>
      </trkpt>
      <trkpt lat="46.43025" lon="-0.18285">
        <ele>133.6</ele>
        <time>2020-05-30T19:06:00Z</time>
      </trkpt>
      <trkpt lat="46.43025" lon="-0.18285">
        <ele>133.5</ele>
        <time>2020-05-30T19:06:01Z</time>
      </trkpt>
      <trkpt lat="46.43024" lon="-0.18285">
        <ele>133.5</ele>
        <time>2020-05-30T19:06:02Z</time>
      </trkpt>
      <trkpt lat="46.43025" lon="-0.18284">
        <ele>133.5</ele>
        <time>2020-05-30T19:06:03Z</time>
      </trkpt>
      <trkpt lat="46.43026" lon="-0.18285">
        <ele>133.5</ele>
        <time>2020-05-30T19:06:04Z</time>
      </trkpt>
      <trkpt lat="46.43025" lon="-0.18286">
        <ele>133.4</ele>
        <time>2020-05-30T19:06:05Z</time>
      </trkpt>
      <trkpt lat="46.43025" lon="-0.18286">
        <ele>133.4</ele>
        <time>2020-05-30T19:06:06Z</time>
      </trkpt>
      <trkpt lat="46.43025" lon="-0.18285">
        <ele>133.4</ele>
        <time>2020-05-30T19:06:07Z</time>
      </trkpt>
      <trkpt lat="46.43026" lon="-0.18288">
        <ele>133.3</ele>
        <time>2020-05-30T19:06:08Z</time>
      </trkpt>
      <trkpt lat="46.43025" lon="-0.18288">
        <ele>133.3</ele>
        <time>2020-05-30T19:06:09Z</time>
      </trkpt>
      <trkpt lat="46.43025" lon="-0.18289">
        <ele>133.3</ele>
        <time>2020-05-30T19:06:10Z</time>
      </trkpt>
      <trkpt lat="46.43025" lon="-0.18291">
        <ele>133.2</ele>
        <time>2020-05-30T19:06:11Z</time>
      </trkpt>
      <trkpt lat="46.43024" lon="-0.18292">
        <ele>133.2</ele>
        <time>2020-05-30T19:06:12Z</time>
      </trkpt>
      <trkpt lat="46.43024" lon="-0.18293">
        <ele>133.2</ele>
        <time>2020-05-30T19:06:13Z</time>
      </trkpt>
      <trkpt lat="46.43024" lon="-0.18294">
        <ele>133.1</ele>
        <time>2020-05-30T19:06:14Z</time>
      </trkpt>
      <trkpt lat="46.43024" lon="-0.18294">
        <ele>133.1</ele>
        <time>2020-05-30T19:06:15Z</time>
      </trkpt>
      <trkpt lat="46.43024" lon="-0.18296">
        <ele>133</ele>
        <time>2020-05-30T19:06:16Z</time>
      </trkpt>
      <trkpt lat="46.43023" lon="-0.18297">
        <ele>133</ele>
        <time>2020-05-30T19:06:17Z</time>
      </trkpt>
      <trkpt lat="46.43023" lon="-0.18299">
        <ele>132.9</ele>
        <time>2020-05-30T19:06:18Z</time>
      </trkpt>
      <trkpt lat="46.43022" lon="-0.18301">
        <ele>132.8</ele>
        <time>2020-05-30T19:06:19Z</time>
      </trkpt>
      <trkpt lat="46.43022" lon="-0.18302">
        <ele>132.8</ele>
        <time>2020-05-30T19:06:20Z</time>
      </trkpt>
      <trkpt lat="46.43021" lon="-0.18303">
        <ele>132.7</ele>
        <time>2020-05-30T19:06:21Z</time>
      </trkpt>
      <trkpt lat="46.4302" lon="-0.18304">
        <ele>132.7</ele>
        <time>2020-05-30T19:06:22Z</time>
      </trkpt>
      <trkpt lat="46.4302" lon="-0.18305">
        <ele>132.6</ele>
        <time>2020-05-30T19:06:23Z</time>
      </trkpt>
      <trkpt lat="46.4302" lon="-0.18306">
        <ele>132.6</ele>
        <time>2020-05-30T19:06:24Z</time>
      </trkpt>
      <trkpt lat="46.43019" lon="-0.18306">
        <ele>132.5</ele>
        <time>2020-05-30T19:06:25Z</time>
      </trkpt>
      <trkpt lat="46.43019" lon="-0.18307">
        <ele>132.4</ele>
        <time>2020-05-30T19:06:26Z</time>
      </trkpt>
      <trkpt lat="46.43018" lon="-0.18308">
        <ele>132.4</ele>
        <time>2020-05-30T19:06:27Z</time>
      </trkpt>
      <trkpt lat="46.43017" lon="-0.18308">
        <ele>132.3</ele>
        <time>2020-05-30T19:06:28Z</time>
      </trkpt>
      <trkpt lat="46.43017" lon="-0.18308">
        <ele>132.3</ele>
        <time>2020-05-30T19:06:29Z</time>
      </trkpt>
      <trkpt lat="46.43017" lon="-0.18308">
        <ele>132.3</ele>
        <time>2020-05-30T19:06:30Z</time>
      </trkpt>
      <trkpt lat="46.43017" lon="-0.18308">
        <ele>132.3</ele>
        <time>2020-05-30T19:06:31Z</time>
      </trkpt>
      <trkpt lat="46.43017" lon="-0.18309">
        <ele>132.3</ele>
        <time>2020-05-30T19:06:32Z</time>
      </trkpt>
      <trkpt lat="46.43017" lon="-0.18308">
        <ele>132.3</ele>
        <time>2020-05-30T19:06:33Z</time>
      </trkpt>
      <trkpt lat="46.43017" lon="-0.18309">
        <ele>132.3</ele>
        <time>2020-05-30T19:06:34Z</time>
      </trkpt>
      <trkpt lat="46.43017" lon="-0.1831">
        <ele>132.2</ele>
        <time>2020-05-30T19:06:35Z</time>
      </trkpt>
      <trkpt lat="46.43016" lon="-0.18311">
        <ele>132.2</ele>
        <time>2020-05-30T19:06:36Z</time>
      </trkpt>
      <trkpt lat="46.43016" lon="-0.18312">
        <ele>132.1</ele>
        <time>2020-05-30T19:06:37Z</time>
      </trkpt>
      <trkpt lat="46.43016" lon="-0.18315">
        <ele>132</ele>
        <time>2020-05-30T19:06:38Z</time>
      </trkpt>
      <trkpt lat="46.43016" lon="-0.18318">
        <ele>131.8</ele>
        <time>2020-05-30T19:06:39Z</time>
      </trkpt>
      <trkpt lat="46.43016" lon="-0.1832">
        <ele>131.8</ele>
        <time>2020-05-30T19:06:40Z</time>
      </trkpt>
      <trkpt lat="46.43015" lon="-0.18322">
        <ele>131.7</ele>
        <time>2020-05-30T19:06:41Z</time>
      </trkpt>
      <trkpt lat="46.43015" lon="-0.18323">
        <ele>131.6</ele>
        <time>2020-05-30T19:06:42Z</time>
      </trkpt>
      <trkpt lat="46.43015" lon="-0.18324">
        <ele>131.6</ele>
        <time>2020-05-30T19:06:43Z</time>
      </trkpt>
      <trkpt lat="46.43014" lon="-0.18325">
        <ele>131.5</ele>
        <time>2020-05-30T19:06:44Z</time>
      </trkpt>
      <trkpt lat="46.43013" lon="-0.18327">
        <ele>131.4</ele>
        <time>2020-05-30T19:06:45Z</time>
      </trkpt>
      <trkpt lat="46.43013" lon="-0.18329">
        <ele>131.3</ele>
        <time>2020-05-30T19:06:46Z</time>
      </trkpt>
      <trkpt lat="46.43013" lon="-0.1833">
        <ele>131.2</ele>
        <time>2020-05-30T19:06:47Z</time>
      </trkpt>
      <trkpt lat="46.43012" lon="-0.18331">
        <ele>131.2</ele>
        <time>2020-05-30T19:06:48Z</time>
      </trkpt>
      <trkpt lat="46.43012" lon="-0.18332">
        <ele>131.1</ele>
        <time>2020-05-30T19:06:49Z</time>
      </trkpt>
      <trkpt lat="46.43012" lon="-0.18332">
        <ele>131.1</ele>
        <time>2020-05-30T19:06:50Z</time>
      </trkpt>
      <trkpt lat="46.43012" lon="-0.18331">
        <ele>131.1</ele>
        <time>2020-05-30T19:06:51Z</time>
      </trkpt>
      <trkpt lat="46.43012" lon="-0.18331">
        <ele>131.1</ele>
        <time>2020-05-30T19:06:52Z</time>
      </trkpt>
      <trkpt lat="46.43012" lon="-0.18331">
        <ele>131.1</ele>
        <time>2020-05-30T19:06:53Z</time>
      </trkpt>
      <trkpt lat="46.43012" lon="-0.18331">
        <ele>131</ele>
        <time>2020-05-30T19:06:54Z</time>
      </trkpt>
      <trkpt lat="46.43012" lon="-0.18331">
        <ele>131</ele>
        <time>2020-05-30T19:06:55Z</time>
      </trkpt>
      <trkpt lat="46.43012" lon="-0.18331">
        <ele>131</ele>
        <time>2020-05-30T19:06:56Z</time>
      </trkpt>
      <trkpt lat="46.43012" lon="-0.18331">
        <ele>131</ele>
        <time>2020-05-30T19:06:57Z</time>
      </trkpt>
      <trkpt lat="46.43012" lon="-0.18331">
        <ele>131</ele>
        <time>2020-05-30T19:06:58Z</time>
      </trkpt>
      <trkpt lat="46.43011" lon="-0.18331">
        <ele>131</ele>
        <time>2020-05-30T19:06:59Z</time>
      </trkpt>
      <trkpt lat="46.43011" lon="-0.18331">
        <ele>131</ele>
        <time>2020-05-30T19:07:00Z</time>
      </trkpt>
      <trkpt lat="46.43012" lon="-0.18333">
        <ele>130.9</ele>
        <time>2020-05-30T19:07:01Z</time>
      </trkpt>
      <trkpt lat="46.43011" lon="-0.18332">
        <ele>130.9</ele>
        <time>2020-05-30T19:07:02Z</time>
      </trkpt>
      <trkpt lat="46.4301" lon="-0.18333">
        <ele>130.8</ele>
        <time>2020-05-30T19:07:03Z</time>
      </trkpt>
      <trkpt lat="46.4301" lon="-0.18333">
        <ele>130.8</ele>
        <time>2020-05-30T19:07:04Z</time>
      </trkpt>
      <trkpt lat="46.43009" lon="-0.18335">
        <ele>130.7</ele>
        <time>2020-05-30T19:07:05Z</time>
      </trkpt>
      <trkpt lat="46.43009" lon="-0.18336">
        <ele>130.6</ele>
        <time>2020-05-30T19:07:06Z</time>
      </trkpt>
      <trkpt lat="46.43008" lon="-0.18335">
        <ele>130.6</ele>
        <time>2020-05-30T19:07:07Z</time>
      </trkpt>
      <trkpt lat="46.43009" lon="-0.18336">
        <ele>130.6</ele>
        <time>2020-05-30T19:07:08Z</time>
      </trkpt>
      <trkpt lat="46.43007" lon="-0.18337">
        <ele>130.4</ele>
        <time>2020-05-30T19:07:09Z</time>
      </trkpt>
      <trkpt lat="46.43007" lon="-0.18337">
        <ele>130.4</ele>
        <time>2020-05-30T19:07:10Z</time>
      </trkpt>
      <trkpt lat="46.43007" lon="-0.18339">
        <ele>130.2</ele>
        <time>2020-05-30T19:07:11Z</time>
      </trkpt>
      <trkpt lat="46.43007" lon="-0.18341">
        <ele>130.3</ele>
        <time>2020-05-30T19:07:12Z</time>
      </trkpt>
      <trkpt lat="46.43006" lon="-0.18342">
        <ele>130.3</ele>
        <time>2020-05-30T19:07:13Z</time>
      </trkpt>
      <trkpt lat="46.43006" lon="-0.18343">
        <ele>130.4</ele>
        <time>2020-05-30T19:07:14Z</time>
      </trkpt>
      <trkpt lat="46.43006" lon="-0.18344">
        <ele>130.4</ele>
        <time>2020-05-30T19:07:15Z</time>
      </trkpt>
      <trkpt lat="46.43006" lon="-0.18346">
        <ele>130.5</ele>
        <time>2020-05-30T19:07:16Z</time>
      </trkpt>
      <trkpt lat="46.43005" lon="-0.18347">
        <ele>130.6</ele>
        <time>2020-05-30T19:07:17Z</time>
      </trkpt>
      <trkpt lat="46.43005" lon="-0.18348">
        <ele>130.6</ele>
        <time>2020-05-30T19:07:18Z</time>
      </trkpt>
      <trkpt lat="46.43004" lon="-0.18347">
        <ele>130.7</ele>
        <time>2020-05-30T19:07:19Z</time>
      </trkpt>
      <trkpt lat="46.43004" lon="-0.18346">
        <ele>130.7</ele>
        <time>2020-05-30T19:07:20Z</time>
      </trkpt>
      <trkpt lat="46.43003" lon="-0.18346">
        <ele>130.7</ele>
        <time>2020-05-30T19:07:21Z</time>
      </trkpt>
      <trkpt lat="46.43003" lon="-0.18346">
        <ele>130.8</ele>
        <time>2020-05-30T19:07:22Z</time>
      </trkpt>
      <trkpt lat="46.43003" lon="-0.18345">
        <ele>130.8</ele>
        <time>2020-05-30T19:07:23Z</time>
      </trkpt>
      <trkpt lat="46.43003" lon="-0.18345">
        <ele>130.8</ele>
        <time>2020-05-30T19:07:24Z</time>
      </trkpt>
      <trkpt lat="46.43003" lon="-0.18345">
        <ele>130.8</ele>
        <time>2020-05-30T19:07:25Z</time>
      </trkpt>
      <trkpt lat="46.43003" lon="-0.18344">
        <ele>130.8</ele>
        <time>2020-05-30T19:07:26Z</time>
      </trkpt>
      <trkpt lat="46.43002" lon="-0.18344">
        <ele>130.8</ele>
        <time>2020-05-30T19:07:27Z</time>
      </trkpt>
      <trkpt lat="46.43002" lon="-0.18344">
        <ele>130.9</ele>
        <time>2020-05-30T19:07:28Z</time>
      </trkpt>
      <trkpt lat="46.43002" lon="-0.18343">
        <ele>130.9</ele>
        <time>2020-05-30T19:07:29Z</time>
      </trkpt>
      <trkpt lat="46.43002" lon="-0.18343">
        <ele>130.9</ele>
        <time>2020-05-30T19:07:30Z</time>
      </trkpt>
      <trkpt lat="46.43002" lon="-0.18343">
        <ele>130.9</ele>
        <time>2020-05-30T19:07:31Z</time>
      </trkpt>
      <trkpt lat="46.43" lon="-0.18341">
        <ele>131</ele>
        <time>2020-05-30T19:07:32Z</time>
      </trkpt>
      <trkpt lat="46.42999" lon="-0.1834">
        <ele>131.1</ele>
        <time>2020-05-30T19:07:33Z</time>
      </trkpt>
      <trkpt lat="46.43" lon="-0.1834">
        <ele>131.1</ele>
        <time>2020-05-30T19:07:34Z</time>
      </trkpt>
      <trkpt lat="46.43001" lon="-0.1834">
        <ele>131.2</ele>
        <time>2020-05-30T19:07:35Z</time>
      </trkpt>
      <trkpt lat="46.43001" lon="-0.18338">
        <ele>131.3</ele>
        <time>2020-05-30T19:07:36Z</time>
      </trkpt>
      <trkpt lat="46.43002" lon="-0.18338">
        <ele>131.3</ele>
        <time>2020-05-30T19:07:37Z</time>
      </trkpt>
      <trkpt lat="46.43002" lon="-0.18337">
        <ele>131.4</ele>
        <time>2020-05-30T19:07:38Z</time>
      </trkpt>
      <trkpt lat="46.43003" lon="-0.18336">
        <ele>131.4</ele>
        <time>2020-05-30T19:07:39Z</time>
      </trkpt>
      <trkpt lat="46.43004" lon="-0.18335">
        <ele>131.5</ele>
        <time>2020-05-30T19:07:40Z</time>
      </trkpt>
      <trkpt lat="46.43005" lon="-0.18334">
        <ele>131.6</ele>
        <time>2020-05-30T19:07:41Z</time>
      </trkpt>
      <trkpt lat="46.43005" lon="-0.18334">
        <ele>131.6</ele>
        <time>2020-05-30T19:07:42Z</time>
      </trkpt>
      <trkpt lat="46.43004" lon="-0.18333">
        <ele>131.6</ele>
        <time>2020-05-30T19:07:43Z</time>
      </trkpt>
      <trkpt lat="46.43004" lon="-0.18333">
        <ele>131.6</ele>
        <time>2020-05-30T19:07:44Z</time>
      </trkpt>
      <trkpt lat="46.43005" lon="-0.18332">
        <ele>131.7</ele>
        <time>2020-05-30T19:07:45Z</time>
      </trkpt>
      <trkpt lat="46.43005" lon="-0.18332">
        <ele>131.7</ele>
        <time>2020-05-30T19:07:46Z</time>
      </trkpt>
      <trkpt lat="46.43005" lon="-0.18331">
        <ele>131.7</ele>
        <time>2020-05-30T19:07:47Z</time>
      </trkpt>
      <trkpt lat="46.43006" lon="-0.18331">
        <ele>131.7</ele>
        <time>2020-05-30T19:07:48Z</time>
      </trkpt>
      <trkpt lat="46.43007" lon="-0.18331">
        <ele>131.8</ele>
        <time>2020-05-30T19:07:49Z</time>
      </trkpt>
      <trkpt lat="46.43008" lon="-0.1833">
        <ele>131.9</ele>
        <time>2020-05-30T19:07:50Z</time>
      </trkpt>
      <trkpt lat="46.43009" lon="-0.1833">
        <ele>131.9</ele>
        <time>2020-05-30T19:07:51Z</time>
      </trkpt>
      <trkpt lat="46.4301" lon="-0.18328">
        <ele>132</ele>
        <time>2020-05-30T19:07:52Z</time>
      </trkpt>
      <trkpt lat="46.4301" lon="-0.18327">
        <ele>132.1</ele>
        <time>2020-05-30T19:07:53Z</time>
      </trkpt>
      <trkpt lat="46.43011" lon="-0.18326">
        <ele>132.1</ele>
        <time>2020-05-30T19:07:54Z</time>
      </trkpt>
      <trkpt lat="46.43012" lon="-0.18324">
        <ele>132.2</ele>
        <time>2020-05-30T19:07:55Z</time>
      </trkpt>
      <trkpt lat="46.43012" lon="-0.18322">
        <ele>132.3</ele>
        <time>2020-05-30T19:07:56Z</time>
      </trkpt>
      <trkpt lat="46.43013" lon="-0.18321">
        <ele>132.3</ele>
        <time>2020-05-30T19:07:57Z</time>
      </trkpt>
      <trkpt lat="46.43014" lon="-0.1832">
        <ele>132.4</ele>
        <time>2020-05-30T19:07:58Z</time>
      </trkpt>
      <trkpt lat="46.43015" lon="-0.1832">
        <ele>132.4</ele>
        <time>2020-05-30T19:07:59Z</time>
      </trkpt>
      <trkpt lat="46.43015" lon="-0.18319">
        <ele>132.4</ele>
        <time>2020-05-30T19:08:00Z</time>
      </trkpt>
      <trkpt lat="46.43015" lon="-0.18317">
        <ele>132.5</ele>
        <time>2020-05-30T19:08:01Z</time>
      </trkpt>
      <trkpt lat="46.43016" lon="-0.18316">
        <ele>132.6</ele>
        <time>2020-05-30T19:08:02Z</time>
      </trkpt>
      <trkpt lat="46.43017" lon="-0.18314">
        <ele>132.7</ele>
        <time>2020-05-30T19:08:03Z</time>
      </trkpt>
      <trkpt lat="46.43018" lon="-0.18312">
        <ele>132.7</ele>
        <time>2020-05-30T19:08:04Z</time>
      </trkpt>
      <trkpt lat="46.43017" lon="-0.18311">
        <ele>132.8</ele>
        <time>2020-05-30T19:08:05Z</time>
      </trkpt>
      <trkpt lat="46.43017" lon="-0.1831">
        <ele>132.8</ele>
        <time>2020-05-30T19:08:06Z</time>
      </trkpt>
      <trkpt lat="46.43017" lon="-0.1831">
        <ele>132.9</ele>
        <time>2020-05-30T19:08:07Z</time>
      </trkpt>
      <trkpt lat="46.43017" lon="-0.18308">
        <ele>132.9</ele>
        <time>2020-05-30T19:08:08Z</time>
      </trkpt>
      <trkpt lat="46.43017" lon="-0.18307">
        <ele>132.9</ele>
        <time>2020-05-30T19:08:09Z</time>
      </trkpt>
      <trkpt lat="46.43018" lon="-0.18306">
        <ele>133</ele>
        <time>2020-05-30T19:08:10Z</time>
      </trkpt>
      <trkpt lat="46.43018" lon="-0.18306">
        <ele>133</ele>
        <time>2020-05-30T19:08:11Z</time>
      </trkpt>
      <trkpt lat="46.43018" lon="-0.18305">
        <ele>133</ele>
        <time>2020-05-30T19:08:12Z</time>
      </trkpt>
      <trkpt lat="46.43018" lon="-0.18305">
        <ele>133</ele>
        <time>2020-05-30T19:08:13Z</time>
      </trkpt>
      <trkpt lat="46.43019" lon="-0.18304">
        <ele>133</ele>
        <time>2020-05-30T19:08:14Z</time>
      </trkpt>
      <trkpt lat="46.43019" lon="-0.18304">
        <ele>133</ele>
        <time>2020-05-30T19:08:15Z</time>
      </trkpt>
      <trkpt lat="46.43019" lon="-0.18304">
        <ele>133.1</ele>
        <time>2020-05-30T19:08:16Z</time>
      </trkpt>
      <trkpt lat="46.43019" lon="-0.18303">
        <ele>133.1</ele>
        <time>2020-05-30T19:08:17Z</time>
      </trkpt>
      <trkpt lat="46.4302" lon="-0.18303">
        <ele>133.1</ele>
        <time>2020-05-30T19:08:18Z</time>
      </trkpt>
      <trkpt lat="46.4302" lon="-0.18302">
        <ele>133.1</ele>
        <time>2020-05-30T19:08:19Z</time>
      </trkpt>
      <trkpt lat="46.4302" lon="-0.18302">
        <ele>133.1</ele>
        <time>2020-05-30T19:08:20Z</time>
      </trkpt>
      <trkpt lat="46.4302" lon="-0.18302">
        <ele>133.1</ele>
        <time>2020-05-30T19:08:21Z</time>
      </trkpt>
      <trkpt lat="46.4302" lon="-0.18301">
        <ele>133.2</ele>
        <time>2020-05-30T19:08:22Z</time>
      </trkpt>
      <trkpt lat="46.43022" lon="-0.18297">
        <ele>133.3</ele>
        <time>2020-05-30T19:08:23Z</time>
      </trkpt>
      <trkpt lat="46.43022" lon="-0.18295">
        <ele>133.3</ele>
        <time>2020-05-30T19:08:24Z</time>
      </trkpt>
      <trkpt lat="46.43023" lon="-0.18292">
        <ele>133.4</ele>
        <time>2020-05-30T19:08:25Z</time>
      </trkpt>
      <trkpt lat="46.43023" lon="-0.18291">
        <ele>133.5</ele>
        <time>2020-05-30T19:08:26Z</time>
      </trkpt>
      <trkpt lat="46.43024" lon="-0.1829">
        <ele>133.5</ele>
        <time>2020-05-30T19:08:27Z</time>
      </trkpt>
      <trkpt lat="46.43025" lon="-0.18289">
        <ele>133.5</ele>
        <time>2020-05-30T19:08:28Z</time>
      </trkpt>
      <trkpt lat="46.43026" lon="-0.18288">
        <ele>133.6</ele>
        <time>2020-05-30T19:08:29Z</time>
      </trkpt>
      <trkpt lat="46.43026" lon="-0.18285">
        <ele>133.6</ele>
        <time>2020-05-30T19:08:30Z</time>
      </trkpt>
      <trkpt lat="46.43026" lon="-0.18283">
        <ele>133.7</ele>
        <time>2020-05-30T19:08:31Z</time>
      </trkpt>
      <trkpt lat="46.43027" lon="-0.18281">
        <ele>133.7</ele>
        <time>2020-05-30T19:08:32Z</time>
      </trkpt>
      <trkpt lat="46.43028" lon="-0.1828">
        <ele>133.8</ele>
        <time>2020-05-30T19:08:33Z</time>
      </trkpt>
      <trkpt lat="46.43028" lon="-0.18277">
        <ele>133.8</ele>
        <time>2020-05-30T19:08:34Z</time>
      </trkpt>
      <trkpt lat="46.43029" lon="-0.18276">
        <ele>133.9</ele>
        <time>2020-05-30T19:08:35Z</time>
      </trkpt>
      <trkpt lat="46.4303" lon="-0.18275">
        <ele>133.9</ele>
        <time>2020-05-30T19:08:36Z</time>
      </trkpt>
      <trkpt lat="46.4303" lon="-0.18274">
        <ele>133.9</ele>
        <time>2020-05-30T19:08:37Z</time>
      </trkpt>
      <trkpt lat="46.4303" lon="-0.18273">
        <ele>133.9</ele>
        <time>2020-05-30T19:08:38Z</time>
      </trkpt>
      <trkpt lat="46.43031" lon="-0.18273">
        <ele>133.9</ele>
        <time>2020-05-30T19:08:39Z</time>
      </trkpt>
      <trkpt lat="46.43031" lon="-0.18274">
        <ele>134</ele>
        <time>2020-05-30T19:08:40Z</time>
      </trkpt>
      <trkpt lat="46.43031" lon="-0.18274">
        <ele>134</ele>
        <time>2020-05-30T19:08:41Z</time>
      </trkpt>
      <trkpt lat="46.43031" lon="-0.18274">
        <ele>134</ele>
        <time>2020-05-30T19:08:42Z</time>
      </trkpt>
      <trkpt lat="46.43031" lon="-0.18274">
        <ele>134</ele>
        <time>2020-05-30T19:08:43Z</time>
      </trkpt>
      <trkpt lat="46.43031" lon="-0.18273">
        <ele>134</ele>
        <time>2020-05-30T19:08:44Z</time>
      </trkpt>
      <trkpt lat="46.43031" lon="-0.18273">
        <ele>134</ele>
        <time>2020-05-30T19:08:45Z</time>
      </trkpt>
      <trkpt lat="46.43031" lon="-0.18273">
        <ele>134</ele>
        <time>2020-05-30T19:08:46Z</time>
      </trkpt>
      <trkpt lat="46.43031" lon="-0.18273">
        <ele>134</ele>
        <time>2020-05-30T19:08:47Z</time>
      </trkpt>
      <trkpt lat="46.43031" lon="-0.18273">
        <ele>134</ele>
        <time>2020-05-30T19:08:48Z</time>
      </trkpt>
      <trkpt lat="46.43031" lon="-0.18273">
        <ele>134</ele>
        <time>2020-05-30T19:08:49Z</time>
      </trkpt>
      <trkpt lat="46.43031" lon="-0.18273">
        <ele>134</ele>
        <time>2020-05-30T19:08:50Z</time>
      </trkpt>
      <trkpt lat="46.43031" lon="-0.18273">
        <ele>134</ele>
        <time>2020-05-30T19:08:51Z</time>
      </trkpt>
      <trkpt lat="46.43032" lon="-0.18273">
        <ele>134</ele>
        <time>2020-05-30T19:08:52Z</time>
      </trkpt>
      <trkpt lat="46.43032" lon="-0.18271">
        <ele>134</ele>
        <time>2020-05-30T19:08:53Z</time>
      </trkpt>
      <trkpt lat="46.43033" lon="-0.18272">
        <ele>134</ele>
        <time>2020-05-30T19:08:54Z</time>
      </trkpt>
      <trkpt lat="46.43034" lon="-0.1827">
        <ele>134.3</ele>
        <time>2020-05-30T19:08:55Z</time>
      </trkpt>
      <trkpt lat="46.43034" lon="-0.18268">
        <ele>134.4</ele>
        <time>2020-05-30T19:08:56Z</time>
      </trkpt>
      <trkpt lat="46.43034" lon="-0.18266">
        <ele>134.5</ele>
        <time>2020-05-30T19:08:57Z</time>
      </trkpt>
      <trkpt lat="46.43035" lon="-0.18265">
        <ele>134.6</ele>
        <time>2020-05-30T19:08:58Z</time>
      </trkpt>
      <trkpt lat="46.43035" lon="-0.18263">
        <ele>134.7</ele>
        <time>2020-05-30T19:08:59Z</time>
      </trkpt>
      <trkpt lat="46.43035" lon="-0.18262">
        <ele>134.7</ele>
        <time>2020-05-30T19:09:00Z</time>
      </trkpt>
      <trkpt lat="46.43036" lon="-0.1826">
        <ele>134.8</ele>
        <time>2020-05-30T19:09:01Z</time>
      </trkpt>
      <trkpt lat="46.43036" lon="-0.1826">
        <ele>134.8</ele>
        <time>2020-05-30T19:09:02Z</time>
      </trkpt>
      <trkpt lat="46.43037" lon="-0.18259">
        <ele>134.9</ele>
        <time>2020-05-30T19:09:03Z</time>
      </trkpt>
      <trkpt lat="46.43037" lon="-0.18258">
        <ele>135</ele>
        <time>2020-05-30T19:09:04Z</time>
      </trkpt>
      <trkpt lat="46.43038" lon="-0.18258">
        <ele>135</ele>
        <time>2020-05-30T19:09:05Z</time>
      </trkpt>
      <trkpt lat="46.43037" lon="-0.18258">
        <ele>135</ele>
        <time>2020-05-30T19:09:06Z</time>
      </trkpt>
      <trkpt lat="46.43038" lon="-0.18257">
        <ele>135</ele>
        <time>2020-05-30T19:09:07Z</time>
      </trkpt>
      <trkpt lat="46.43039" lon="-0.18256">
        <ele>135.2</ele>
        <time>2020-05-30T19:09:08Z</time>
      </trkpt>
      <trkpt lat="46.4304" lon="-0.18255">
        <ele>135.3</ele>
        <time>2020-05-30T19:09:09Z</time>
      </trkpt>
      <trkpt lat="46.4304" lon="-0.18254">
        <ele>135.3</ele>
        <time>2020-05-30T19:09:10Z</time>
      </trkpt>
      <trkpt lat="46.43041" lon="-0.18253">
        <ele>135.4</ele>
        <time>2020-05-30T19:09:11Z</time>
      </trkpt>
      <trkpt lat="46.43042" lon="-0.18251">
        <ele>135.5</ele>
        <time>2020-05-30T19:09:12Z</time>
      </trkpt>
      <trkpt lat="46.43042" lon="-0.18249">
        <ele>135.6</ele>
        <time>2020-05-30T19:09:13Z</time>
      </trkpt>
      <trkpt lat="46.43044" lon="-0.18248">
        <ele>135.8</ele>
        <time>2020-05-30T19:09:14Z</time>
      </trkpt>
      <trkpt lat="46.43045" lon="-0.18247">
        <ele>135.9</ele>
        <time>2020-05-30T19:09:15Z</time>
      </trkpt>
      <trkpt lat="46.43046" lon="-0.18246">
        <ele>136</ele>
        <time>2020-05-30T19:09:16Z</time>
      </trkpt>
      <trkpt lat="46.43047" lon="-0.18245">
        <ele>136.2</ele>
        <time>2020-05-30T19:09:17Z</time>
      </trkpt>
      <trkpt lat="46.43047" lon="-0.18244">
        <ele>136.3</ele>
        <time>2020-05-30T19:09:18Z</time>
      </trkpt>
      <trkpt lat="46.43047" lon="-0.18242">
        <ele>136.3</ele>
        <time>2020-05-30T19:09:19Z</time>
      </trkpt>
      <trkpt lat="46.43048" lon="-0.18241">
        <ele>136.5</ele>
        <time>2020-05-30T19:09:20Z</time>
      </trkpt>
      <trkpt lat="46.43049" lon="-0.18239">
        <ele>136.6</ele>
        <time>2020-05-30T19:09:21Z</time>
      </trkpt>
      <trkpt lat="46.43049" lon="-0.18238">
        <ele>136.7</ele>
        <time>2020-05-30T19:09:22Z</time>
      </trkpt>
      <trkpt lat="46.43049" lon="-0.18236">
        <ele>136.8</ele>
        <time>2020-05-30T19:09:23Z</time>
      </trkpt>
      <trkpt lat="46.4305" lon="-0.18236">
        <ele>136.9</ele>
        <time>2020-05-30T19:09:24Z</time>
      </trkpt>
      <trkpt lat="46.4305" lon="-0.18235">
        <ele>137</ele>
        <time>2020-05-30T19:09:25Z</time>
      </trkpt>
      <trkpt lat="46.4305" lon="-0.18233">
        <ele>137.1</ele>
        <time>2020-05-30T19:09:26Z</time>
      </trkpt>
      <trkpt lat="46.43051" lon="-0.18231">
        <ele>137.3</ele>
        <time>2020-05-30T19:09:27Z</time>
      </trkpt>
      <trkpt lat="46.43051" lon="-0.1823">
        <ele>137.3</ele>
        <time>2020-05-30T19:09:28Z</time>
      </trkpt>
      <trkpt lat="46.43051" lon="-0.18229">
        <ele>137.4</ele>
        <time>2020-05-30T19:09:29Z</time>
      </trkpt>
      <trkpt lat="46.43052" lon="-0.18228">
        <ele>137.5</ele>
        <time>2020-05-30T19:09:30Z</time>
      </trkpt>
      <trkpt lat="46.43052" lon="-0.18228">
        <ele>137.5</ele>
        <time>2020-05-30T19:09:31Z</time>
      </trkpt>
      <trkpt lat="46.43052" lon="-0.18228">
        <ele>137.6</ele>
        <time>2020-05-30T19:09:32Z</time>
      </trkpt>
      <trkpt lat="46.43054" lon="-0.18227">
        <ele>137.7</ele>
        <time>2020-05-30T19:09:33Z</time>
      </trkpt>
      <trkpt lat="46.43054" lon="-0.18226">
        <ele>137.8</ele>
        <time>2020-05-30T19:09:34Z</time>
      </trkpt>
      <trkpt lat="46.43055" lon="-0.18225">
        <ele>137.9</ele>
        <time>2020-05-30T19:09:35Z</time>
      </trkpt>
      <trkpt lat="46.43056" lon="-0.18225">
        <ele>138</ele>
        <time>2020-05-30T19:09:36Z</time>
      </trkpt>
      <trkpt lat="46.43056" lon="-0.18224">
        <ele>138.1</ele>
        <time>2020-05-30T19:09:37Z</time>
      </trkpt>
      <trkpt lat="46.43056" lon="-0.18223">
        <ele>138.2</ele>
        <time>2020-05-30T19:09:38Z</time>
      </trkpt>
      <trkpt lat="46.43056" lon="-0.18223">
        <ele>138.2</ele>
        <time>2020-05-30T19:09:39Z</time>
      </trkpt>
      <trkpt lat="46.43058" lon="-0.18219">
        <ele>138.5</ele>
        <time>2020-05-30T19:09:40Z</time>
      </trkpt>
      <trkpt lat="46.43058" lon="-0.18219">
        <ele>138.6</ele>
        <time>2020-05-30T19:09:41Z</time>
      </trkpt>
      <trkpt lat="46.43058" lon="-0.18218">
        <ele>138.6</ele>
        <time>2020-05-30T19:09:42Z</time>
      </trkpt>
      <trkpt lat="46.43058" lon="-0.18218">
        <ele>138.6</ele>
        <time>2020-05-30T19:09:43Z</time>
      </trkpt>
      <trkpt lat="46.43058" lon="-0.18218">
        <ele>138.6</ele>
        <time>2020-05-30T19:09:44Z</time>
      </trkpt>
      <trkpt lat="46.43058" lon="-0.18218">
        <ele>138.6</ele>
        <time>2020-05-30T19:09:45Z</time>
      </trkpt>
      <trkpt lat="46.43059" lon="-0.18217">
        <ele>138.8</ele>
        <time>2020-05-30T19:09:46Z</time>
      </trkpt>
      <trkpt lat="46.4306" lon="-0.18217">
        <ele>138.8</ele>
        <time>2020-05-30T19:09:47Z</time>
      </trkpt>
      <trkpt lat="46.4306" lon="-0.18216">
        <ele>138.9</ele>
        <time>2020-05-30T19:09:48Z</time>
      </trkpt>
      <trkpt lat="46.43061" lon="-0.18214">
        <ele>139.1</ele>
        <time>2020-05-30T19:09:49Z</time>
      </trkpt>
      <trkpt lat="46.43062" lon="-0.18213">
        <ele>139.2</ele>
        <time>2020-05-30T19:09:50Z</time>
      </trkpt>
      <trkpt lat="46.43063" lon="-0.18212">
        <ele>139.4</ele>
        <time>2020-05-30T19:09:51Z</time>
      </trkpt>
      <trkpt lat="46.43064" lon="-0.18211">
        <ele>139.4</ele>
        <time>2020-05-30T19:09:52Z</time>
      </trkpt>
      <trkpt lat="46.43065" lon="-0.18211">
        <ele>139.5</ele>
        <time>2020-05-30T19:09:53Z</time>
      </trkpt>
      <trkpt lat="46.43065" lon="-0.1821">
        <ele>139.6</ele>
        <time>2020-05-30T19:09:54Z</time>
      </trkpt>
      <trkpt lat="46.43065" lon="-0.1821">
        <ele>139.6</ele>
        <time>2020-05-30T19:09:55Z</time>
      </trkpt>
      <trkpt lat="46.43066" lon="-0.18209">
        <ele>139.7</ele>
        <time>2020-05-30T19:09:56Z</time>
      </trkpt>
      <trkpt lat="46.43067" lon="-0.18208">
        <ele>139.8</ele>
        <time>2020-05-30T19:09:57Z</time>
      </trkpt>
      <trkpt lat="46.43068" lon="-0.18206">
        <ele>140</ele>
        <time>2020-05-30T19:09:58Z</time>
      </trkpt>
      <trkpt lat="46.43069" lon="-0.18203">
        <ele>140.2</ele>
        <time>2020-05-30T19:09:59Z</time>
      </trkpt>
      <trkpt lat="46.43069" lon="-0.18202">
        <ele>140.3</ele>
        <time>2020-05-30T19:10:00Z</time>
      </trkpt>
      <trkpt lat="46.43069" lon="-0.18201">
        <ele>140.3</ele>
        <time>2020-05-30T19:10:01Z</time>
      </trkpt>
      <trkpt lat="46.43071" lon="-0.182">
        <ele>140.5</ele>
        <time>2020-05-30T19:10:02Z</time>
      </trkpt>
      <trkpt lat="46.43071" lon="-0.18199">
        <ele>140.5</ele>
        <time>2020-05-30T19:10:03Z</time>
      </trkpt>
      <trkpt lat="46.43071" lon="-0.18198">
        <ele>140.6</ele>
        <time>2020-05-30T19:10:04Z</time>
      </trkpt>
      <trkpt lat="46.43072" lon="-0.18198">
        <ele>140.7</ele>
        <time>2020-05-30T19:10:05Z</time>
      </trkpt>
      <trkpt lat="46.43072" lon="-0.18197">
        <ele>140.7</ele>
        <time>2020-05-30T19:10:06Z</time>
      </trkpt>
      <trkpt lat="46.43073" lon="-0.18196">
        <ele>140.8</ele>
        <time>2020-05-30T19:10:07Z</time>
      </trkpt>
      <trkpt lat="46.43073" lon="-0.18195">
        <ele>140.9</ele>
        <time>2020-05-30T19:10:08Z</time>
      </trkpt>
      <trkpt lat="46.43074" lon="-0.18194">
        <ele>141</ele>
        <time>2020-05-30T19:10:09Z</time>
      </trkpt>
      <trkpt lat="46.43074" lon="-0.18192">
        <ele>141.1</ele>
        <time>2020-05-30T19:10:10Z</time>
      </trkpt>
      <trkpt lat="46.43075" lon="-0.18191">
        <ele>141.2</ele>
        <time>2020-05-30T19:10:11Z</time>
      </trkpt>
      <trkpt lat="46.43076" lon="-0.1819">
        <ele>141.3</ele>
        <time>2020-05-30T19:10:12Z</time>
      </trkpt>
      <trkpt lat="46.43078" lon="-0.18189">
        <ele>141.5</ele>
        <time>2020-05-30T19:10:13Z</time>
      </trkpt>
      <trkpt lat="46.43079" lon="-0.18186">
        <ele>141.7</ele>
        <time>2020-05-30T19:10:14Z</time>
      </trkpt>
      <trkpt lat="46.43079" lon="-0.18185">
        <ele>141.8</ele>
        <time>2020-05-30T19:10:15Z</time>
      </trkpt>
      <trkpt lat="46.4308" lon="-0.18184">
        <ele>141.8</ele>
        <time>2020-05-30T19:10:16Z</time>
      </trkpt>
      <trkpt lat="46.4308" lon="-0.18184">
        <ele>141.9</ele>
        <time>2020-05-30T19:10:17Z</time>
      </trkpt>
      <trkpt lat="46.4308" lon="-0.18183">
        <ele>141.9</ele>
        <time>2020-05-30T19:10:18Z</time>
      </trkpt>
      <trkpt lat="46.43082" lon="-0.18182">
        <ele>142.1</ele>
        <time>2020-05-30T19:10:19Z</time>
      </trkpt>
      <trkpt lat="46.43083" lon="-0.18181">
        <ele>142.2</ele>
        <time>2020-05-30T19:10:20Z</time>
      </trkpt>
      <trkpt lat="46.43083" lon="-0.1818">
        <ele>142.3</ele>
        <time>2020-05-30T19:10:21Z</time>
      </trkpt>
      <trkpt lat="46.43083" lon="-0.18178">
        <ele>142.3</ele>
        <time>2020-05-30T19:10:22Z</time>
      </trkpt>
      <trkpt lat="46.43083" lon="-0.18179">
        <ele>142.4</ele>
        <time>2020-05-30T19:10:23Z</time>
      </trkpt>
      <trkpt lat="46.43083" lon="-0.18178">
        <ele>142.4</ele>
        <time>2020-05-30T19:10:24Z</time>
      </trkpt>
      <trkpt lat="46.43083" lon="-0.18178">
        <ele>142.4</ele>
        <time>2020-05-30T19:10:25Z</time>
      </trkpt>
      <trkpt lat="46.43083" lon="-0.18178">
        <ele>142.4</ele>
        <time>2020-05-30T19:10:26Z</time>
      </trkpt>
      <trkpt lat="46.43083" lon="-0.18177">
        <ele>142.4</ele>
        <time>2020-05-30T19:10:27Z</time>
      </trkpt>
      <trkpt lat="46.43083" lon="-0.18177">
        <ele>142.4</ele>
        <time>2020-05-30T19:10:28Z</time>
      </trkpt>
      <trkpt lat="46.43083" lon="-0.18177">
        <ele>142.4</ele>
        <time>2020-05-30T19:10:29Z</time>
      </trkpt>
      <trkpt lat="46.43083" lon="-0.18177">
        <ele>142.5</ele>
        <time>2020-05-30T19:10:30Z</time>
      </trkpt>
      <trkpt lat="46.43083" lon="-0.18177">
        <ele>142.5</ele>
        <time>2020-05-30T19:10:31Z</time>
      </trkpt>
      <trkpt lat="46.43083" lon="-0.18177">
        <ele>142.5</ele>
        <time>2020-05-30T19:10:32Z</time>
      </trkpt>
      <trkpt lat="46.43083" lon="-0.18177">
        <ele>142.5</ele>
        <time>2020-05-30T19:10:33Z</time>
      </trkpt>
      <trkpt lat="46.43083" lon="-0.18177">
        <ele>142.5</ele>
        <time>2020-05-30T19:10:34Z</time>
      </trkpt>
      <trkpt lat="46.43083" lon="-0.18177">
        <ele>142.5</ele>
        <time>2020-05-30T19:10:35Z</time>
      </trkpt>
      <trkpt lat="46.43083" lon="-0.18177">
        <ele>142.5</ele>
        <time>2020-05-30T19:10:36Z</time>
      </trkpt>
      <trkpt lat="46.43083" lon="-0.18178">
        <ele>142.5</ele>
        <time>2020-05-30T19:10:37Z</time>
      </trkpt>
      <trkpt lat="46.43083" lon="-0.18178">
        <ele>142.5</ele>
        <time>2020-05-30T19:10:38Z</time>
      </trkpt>
      <trkpt lat="46.43083" lon="-0.18178">
        <ele>142.5</ele>
        <time>2020-05-30T19:10:39Z</time>
      </trkpt>
      <trkpt lat="46.43083" lon="-0.18178">
        <ele>142.6</ele>
        <time>2020-05-30T19:10:40Z</time>
      </trkpt>
      <trkpt lat="46.43083" lon="-0.18178">
        <ele>142.6</ele>
        <time>2020-05-30T19:10:41Z</time>
      </trkpt>
      <trkpt lat="46.43083" lon="-0.18178">
        <ele>142.6</ele>
        <time>2020-05-30T19:10:42Z</time>
      </trkpt>
      <trkpt lat="46.43084" lon="-0.18178">
        <ele>142.6</ele>
        <time>2020-05-30T19:10:43Z</time>
      </trkpt>
      <trkpt lat="46.43084" lon="-0.18178">
        <ele>142.6</ele>
        <time>2020-05-30T19:10:44Z</time>
      </trkpt>
      <trkpt lat="46.43084" lon="-0.18178">
        <ele>142.6</ele>
        <time>2020-05-30T19:10:45Z</time>
      </trkpt>
      <trkpt lat="46.43084" lon="-0.18178">
        <ele>142.6</ele>
        <time>2020-05-30T19:10:46Z</time>
      </trkpt>
      <trkpt lat="46.43084" lon="-0.18178">
        <ele>142.6</ele>
        <time>2020-05-30T19:10:47Z</time>
      </trkpt>
      <trkpt lat="46.43084" lon="-0.18178">
        <ele>142.6</ele>
        <time>2020-05-30T19:10:48Z</time>
      </trkpt>
      <trkpt lat="46.43083" lon="-0.18177">
        <ele>142.7</ele>
        <time>2020-05-30T19:10:49Z</time>
      </trkpt>
      <trkpt lat="46.43083" lon="-0.18178">
        <ele>142.8</ele>
        <time>2020-05-30T19:10:50Z</time>
      </trkpt>
      <trkpt lat="46.43082" lon="-0.18178">
        <ele>142.8</ele>
        <time>2020-05-30T19:10:51Z</time>
      </trkpt>
      <trkpt lat="46.43082" lon="-0.18178">
        <ele>142.8</ele>
        <time>2020-05-30T19:10:52Z</time>
      </trkpt>
      <trkpt lat="46.43082" lon="-0.18178">
        <ele>142.8</ele>
        <time>2020-05-30T19:10:53Z</time>
      </trkpt>
      <trkpt lat="46.43082" lon="-0.18178">
        <ele>142.8</ele>
        <time>2020-05-30T19:10:54Z</time>
      </trkpt>
      <trkpt lat="46.43083" lon="-0.18178">
        <ele>142.8</ele>
        <time>2020-05-30T19:10:55Z</time>
      </trkpt>
      <trkpt lat="46.43083" lon="-0.18177">
        <ele>142.9</ele>
        <time>2020-05-30T19:10:56Z</time>
      </trkpt>
      <trkpt lat="46.43083" lon="-0.18177">
        <ele>142.9</ele>
        <time>2020-05-30T19:10:57Z</time>
      </trkpt>
      <trkpt lat="46.43084" lon="-0.18176">
        <ele>143</ele>
        <time>2020-05-30T19:10:58Z</time>
      </trkpt>
      <trkpt lat="46.43083" lon="-0.18176">
        <ele>143</ele>
        <time>2020-05-30T19:10:59Z</time>
      </trkpt>
      <trkpt lat="46.43083" lon="-0.18176">
        <ele>143</ele>
        <time>2020-05-30T19:11:00Z</time>
      </trkpt>
      <trkpt lat="46.43083" lon="-0.18176">
        <ele>143</ele>
        <time>2020-05-30T19:11:01Z</time>
      </trkpt>
      <trkpt lat="46.43083" lon="-0.18176">
        <ele>143</ele>
        <time>2020-05-30T19:11:02Z</time>
      </trkpt>
      <trkpt lat="46.43083" lon="-0.18176">
        <ele>143</ele>
        <time>2020-05-30T19:11:03Z</time>
      </trkpt>
      <trkpt lat="46.43083" lon="-0.18176">
        <ele>143</ele>
        <time>2020-05-30T19:11:04Z</time>
      </trkpt>
      <trkpt lat="46.43083" lon="-0.18176">
        <ele>143</ele>
        <time>2020-05-30T19:11:05Z</time>
      </trkpt>
      <trkpt lat="46.43083" lon="-0.18176">
        <ele>143</ele>
        <time>2020-05-30T19:11:06Z</time>
      </trkpt>
      <trkpt lat="46.43083" lon="-0.18176">
        <ele>143</ele>
        <time>2020-05-30T19:11:07Z</time>
      </trkpt>
      <trkpt lat="46.43083" lon="-0.18176">
        <ele>143</ele>
        <time>2020-05-30T19:11:08Z</time>
      </trkpt>
      <trkpt lat="46.43084" lon="-0.18175">
        <ele>143.1</ele>
        <time>2020-05-30T19:11:09Z</time>
      </trkpt>
      <trkpt lat="46.43084" lon="-0.18175">
        <ele>143.1</ele>
        <time>2020-05-30T19:11:10Z</time>
      </trkpt>
      <trkpt lat="46.43084" lon="-0.18175">
        <ele>143.1</ele>
        <time>2020-05-30T19:11:11Z</time>
      </trkpt>
      <trkpt lat="46.43083" lon="-0.18174">
        <ele>143.1</ele>
        <time>2020-05-30T19:11:12Z</time>
      </trkpt>
      <trkpt lat="46.43084" lon="-0.18174">
        <ele>143.2</ele>
        <time>2020-05-30T19:11:13Z</time>
      </trkpt>
      <trkpt lat="46.43084" lon="-0.18174">
        <ele>143.2</ele>
        <time>2020-05-30T19:11:14Z</time>
      </trkpt>
      <trkpt lat="46.43084" lon="-0.18174">
        <ele>143.2</ele>
        <time>2020-05-30T19:11:15Z</time>
      </trkpt>
      <trkpt lat="46.43084" lon="-0.18174">
        <ele>143.2</ele>
        <time>2020-05-30T19:11:16Z</time>
      </trkpt>
      <trkpt lat="46.43084" lon="-0.18174">
        <ele>143.2</ele>
        <time>2020-05-30T19:11:17Z</time>
      </trkpt>
      <trkpt lat="46.43084" lon="-0.18174">
        <ele>143.2</ele>
        <time>2020-05-30T19:11:18Z</time>
      </trkpt>
      <trkpt lat="46.43084" lon="-0.18174">
        <ele>143.2</ele>
        <time>2020-05-30T19:11:19Z</time>
      </trkpt>
      <trkpt lat="46.43084" lon="-0.18174">
        <ele>143.2</ele>
        <time>2020-05-30T19:11:20Z</time>
      </trkpt>
      <trkpt lat="46.43084" lon="-0.18174">
        <ele>143.2</ele>
        <time>2020-05-30T19:11:21Z</time>
      </trkpt>
      <trkpt lat="46.43084" lon="-0.18174">
        <ele>143.2</ele>
        <time>2020-05-30T19:11:22Z</time>
      </trkpt>
      <trkpt lat="46.43084" lon="-0.18174">
        <ele>143.3</ele>
        <time>2020-05-30T19:11:23Z</time>
      </trkpt>
      <trkpt lat="46.43084" lon="-0.18174">
        <ele>143.3</ele>
        <time>2020-05-30T19:11:24Z</time>
      </trkpt>
      <trkpt lat="46.43083" lon="-0.18175">
        <ele>143.3</ele>
        <time>2020-05-30T19:11:25Z</time>
      </trkpt>
      <trkpt lat="46.43084" lon="-0.18176">
        <ele>143.4</ele>
        <time>2020-05-30T19:11:26Z</time>
      </trkpt>
      <trkpt lat="46.43084" lon="-0.18176">
        <ele>143.4</ele>
        <time>2020-05-30T19:11:27Z</time>
      </trkpt>
      <trkpt lat="46.43084" lon="-0.18176">
        <ele>143.4</ele>
        <time>2020-05-30T19:11:28Z</time>
      </trkpt>
      <trkpt lat="46.43084" lon="-0.18176">
        <ele>143.4</ele>
        <time>2020-05-30T19:11:29Z</time>
      </trkpt>
      <trkpt lat="46.43084" lon="-0.18176">
        <ele>143.4</ele>
        <time>2020-05-30T19:11:30Z</time>
      </trkpt>
      <trkpt lat="46.43084" lon="-0.18176">
        <ele>143.4</ele>
        <time>2020-05-30T19:11:31Z</time>
      </trkpt>
      <trkpt lat="46.43084" lon="-0.18176">
        <ele>143.4</ele>
        <time>2020-05-30T19:11:32Z</time>
      </trkpt>
      <trkpt lat="46.43084" lon="-0.18176">
        <ele>143.4</ele>
        <time>2020-05-30T19:11:33Z</time>
      </trkpt>
      <trkpt lat="46.43084" lon="-0.18176">
        <ele>143.4</ele>
        <time>2020-05-30T19:11:34Z</time>
      </trkpt>
      <trkpt lat="46.43084" lon="-0.18176">
        <ele>143.4</ele>
        <time>2020-05-30T19:11:35Z</time>
      </trkpt>
      <trkpt lat="46.43084" lon="-0.18176">
        <ele>143.4</ele>
        <time>2020-05-30T19:11:36Z</time>
      </trkpt>
      <trkpt lat="46.43084" lon="-0.18176">
        <ele>143.4</ele>
        <time>2020-05-30T19:11:37Z</time>
      </trkpt>
      <trkpt lat="46.43084" lon="-0.18176">
        <ele>143.4</ele>
        <time>2020-05-30T19:11:38Z</time>
      </trkpt>
      <trkpt lat="46.43084" lon="-0.18176">
        <ele>143.4</ele>
        <time>2020-05-30T19:11:39Z</time>
      </trkpt>
      <trkpt lat="46.43084" lon="-0.18176">
        <ele>143.4</ele>
        <time>2020-05-30T19:11:40Z</time>
      </trkpt>
      <trkpt lat="46.43084" lon="-0.18176">
        <ele>143.4</ele>
        <time>2020-05-30T19:11:41Z</time>
      </trkpt>
      <trkpt lat="46.43084" lon="-0.18176">
        <ele>143.4</ele>
        <time>2020-05-30T19:11:42Z</time>
      </trkpt>
      <trkpt lat="46.43084" lon="-0.18176">
        <ele>143.4</ele>
        <time>2020-05-30T19:11:43Z</time>
      </trkpt>
      <trkpt lat="46.43084" lon="-0.18176">
        <ele>143.4</ele>
        <time>2020-05-30T19:11:44Z</time>
      </trkpt>
      <trkpt lat="46.43084" lon="-0.18176">
        <ele>143.4</ele>
        <time>2020-05-30T19:11:45Z</time>
      </trkpt>
      <trkpt lat="46.43084" lon="-0.18176">
        <ele>143.4</ele>
        <time>2020-05-30T19:11:46Z</time>
      </trkpt>
      <trkpt lat="46.43084" lon="-0.18176">
        <ele>143.4</ele>
        <time>2020-05-30T19:11:47Z</time>
      </trkpt>
      <trkpt lat="46.43084" lon="-0.18176">
        <ele>143.4</ele>
        <time>2020-05-30T19:11:48Z</time>
      </trkpt>
      <trkpt lat="46.43084" lon="-0.18176">
        <ele>143.4</ele>
        <time>2020-05-30T19:11:49Z</time>
      </trkpt>
      <trkpt lat="46.43084" lon="-0.18176">
        <ele>143.4</ele>
        <time>2020-05-30T19:11:50Z</time>
      </trkpt>
      <trkpt lat="46.43084" lon="-0.18176">
        <ele>143.4</ele>
        <time>2020-05-30T19:11:51Z</time>
      </trkpt>
      <trkpt lat="46.43084" lon="-0.18176">
        <ele>143.4</ele>
        <time>2020-05-30T19:11:52Z</time>
      </trkpt>
      <trkpt lat="46.43084" lon="-0.18176">
        <ele>143.4</ele>
        <time>2020-05-30T19:11:53Z</time>
      </trkpt>
      <trkpt lat="46.43084" lon="-0.18176">
        <ele>143.4</ele>
        <time>2020-05-30T19:11:54Z</time>
      </trkpt>
      <trkpt lat="46.43084" lon="-0.18176">
        <ele>143.4</ele>
        <time>2020-05-30T19:11:55Z</time>
      </trkpt>
      <trkpt lat="46.43084" lon="-0.18176">
        <ele>143.4</ele>
        <time>2020-05-30T19:11:56Z</time>
      </trkpt>
      <trkpt lat="46.43084" lon="-0.18176">
        <ele>143.4</ele>
        <time>2020-05-30T19:11:57Z</time>
      </trkpt>
      <trkpt lat="46.43084" lon="-0.18176">
        <ele>143.4</ele>
        <time>2020-05-30T19:11:58Z</time>
      </trkpt>
      <trkpt lat="46.43084" lon="-0.18176">
        <ele>143.4</ele>
        <time>2020-05-30T19:11:59Z</time>
      </trkpt>
      <trkpt lat="46.43084" lon="-0.18176">
        <ele>143.4</ele>
        <time>2020-05-30T19:12:00Z</time>
      </trkpt>
      <trkpt lat="46.43084" lon="-0.18176">
        <ele>143.5</ele>
        <time>2020-05-30T19:12:01Z</time>
      </trkpt>
      <trkpt lat="46.43084" lon="-0.18176">
        <ele>143.5</ele>
        <time>2020-05-30T19:12:02Z</time>
      </trkpt>
      <trkpt lat="46.43085" lon="-0.18176">
        <ele>143.5</ele>
        <time>2020-05-30T19:12:03Z</time>
      </trkpt>
      <trkpt lat="46.43085" lon="-0.18176">
        <ele>143.5</ele>
        <time>2020-05-30T19:12:04Z</time>
      </trkpt>
      <trkpt lat="46.43084" lon="-0.18176">
        <ele>143.5</ele>
        <time>2020-05-30T19:12:05Z</time>
      </trkpt>
      <trkpt lat="46.43084" lon="-0.18176">
        <ele>143.5</ele>
        <time>2020-05-30T19:12:06Z</time>
      </trkpt>
      <trkpt lat="46.43084" lon="-0.18176">
        <ele>143.5</ele>
        <time>2020-05-30T19:12:07Z</time>
      </trkpt>
      <trkpt lat="46.43084" lon="-0.18176">
        <ele>143.5</ele>
        <time>2020-05-30T19:12:08Z</time>
      </trkpt>
      <trkpt lat="46.43085" lon="-0.18176">
        <ele>143.5</ele>
        <time>2020-05-30T19:12:09Z</time>
      </trkpt>
      <trkpt lat="46.43085" lon="-0.18176">
        <ele>143.5</ele>
        <time>2020-05-30T19:12:10Z</time>
      </trkpt>
      <trkpt lat="46.43084" lon="-0.18176">
        <ele>143.5</ele>
        <time>2020-05-30T19:12:11Z</time>
      </trkpt>
      <trkpt lat="46.43085" lon="-0.18176">
        <ele>143.5</ele>
        <time>2020-05-30T19:12:12Z</time>
      </trkpt>
      <trkpt lat="46.43085" lon="-0.18176">
        <ele>143.5</ele>
        <time>2020-05-30T19:12:13Z</time>
      </trkpt>
      <trkpt lat="46.43084" lon="-0.18176">
        <ele>143.6</ele>
        <time>2020-05-30T19:12:14Z</time>
      </trkpt>
      <trkpt lat="46.43085" lon="-0.18176">
        <ele>143.6</ele>
        <time>2020-05-30T19:12:15Z</time>
      </trkpt>
      <trkpt lat="46.43085" lon="-0.18176">
        <ele>143.6</ele>
        <time>2020-05-30T19:12:16Z</time>
      </trkpt>
      <trkpt lat="46.43085" lon="-0.18176">
        <ele>143.6</ele>
        <time>2020-05-30T19:12:17Z</time>
      </trkpt>
      <trkpt lat="46.43085" lon="-0.18176">
        <ele>143.6</ele>
        <time>2020-05-30T19:12:18Z</time>
      </trkpt>
      <trkpt lat="46.43085" lon="-0.18176">
        <ele>143.6</ele>
        <time>2020-05-30T19:12:19Z</time>
      </trkpt>
      <trkpt lat="46.43085" lon="-0.18176">
        <ele>143.6</ele>
        <time>2020-05-30T19:12:20Z</time>
      </trkpt>
      <trkpt lat="46.43085" lon="-0.18176">
        <ele>143.6</ele>
        <time>2020-05-30T19:12:21Z</time>
      </trkpt>
      <trkpt lat="46.43085" lon="-0.18176">
        <ele>143.6</ele>
        <time>2020-05-30T19:12:22Z</time>
      </trkpt>
      <trkpt lat="46.43085" lon="-0.18176">
        <ele>143.6</ele>
        <time>2020-05-30T19:12:23Z</time>
      </trkpt>
      <trkpt lat="46.43085" lon="-0.18176">
        <ele>143.6</ele>
        <time>2020-05-30T19:12:24Z</time>
      </trkpt>
      <trkpt lat="46.43085" lon="-0.18176">
        <ele>143.6</ele>
        <time>2020-05-30T19:12:25Z</time>
      </trkpt>
      <trkpt lat="46.43085" lon="-0.18176">
        <ele>143.6</ele>
        <time>2020-05-30T19:12:26Z</time>
      </trkpt>
      <trkpt lat="46.43085" lon="-0.18177">
        <ele>143.6</ele>
        <time>2020-05-30T19:12:27Z</time>
      </trkpt>
      <trkpt lat="46.43085" lon="-0.18177">
        <ele>143.6</ele>
        <time>2020-05-30T19:12:28Z</time>
      </trkpt>
      <trkpt lat="46.43085" lon="-0.18177">
        <ele>143.6</ele>
        <time>2020-05-30T19:12:29Z</time>
      </trkpt>
      <trkpt lat="46.43085" lon="-0.18177">
        <ele>143.6</ele>
        <time>2020-05-30T19:12:30Z</time>
      </trkpt>
      <trkpt lat="46.43085" lon="-0.18177">
        <ele>143.6</ele>
        <time>2020-05-30T19:12:31Z</time>
      </trkpt>
      <trkpt lat="46.43085" lon="-0.18177">
        <ele>143.6</ele>
        <time>2020-05-30T19:12:32Z</time>
      </trkpt>
      <trkpt lat="46.43085" lon="-0.18177">
        <ele>143.6</ele>
        <time>2020-05-30T19:12:33Z</time>
      </trkpt>
      <trkpt lat="46.43085" lon="-0.18177">
        <ele>143.6</ele>
        <time>2020-05-30T19:12:34Z</time>
      </trkpt>
      <trkpt lat="46.43085" lon="-0.18177">
        <ele>143.6</ele>
        <time>2020-05-30T19:12:35Z</time>
      </trkpt>
      <trkpt lat="46.43085" lon="-0.18177">
        <ele>143.6</ele>
        <time>2020-05-30T19:12:36Z</time>
      </trkpt>
      <trkpt lat="46.43085" lon="-0.18177">
        <ele>143.6</ele>
        <time>2020-05-30T19:12:37Z</time>
      </trkpt>
      <trkpt lat="46.43085" lon="-0.18177">
        <ele>143.6</ele>
        <time>2020-05-30T19:12:38Z</time>
      </trkpt>
      <trkpt lat="46.43085" lon="-0.18177">
        <ele>143.6</ele>
        <time>2020-05-30T19:12:39Z</time>
      </trkpt>
      <trkpt lat="46.43085" lon="-0.18177">
        <ele>143.6</ele>
        <time>2020-05-30T19:12:40Z</time>
      </trkpt>
      <trkpt lat="46.43084" lon="-0.18177">
        <ele>143.6</ele>
        <time>2020-05-30T19:12:41Z</time>
      </trkpt>
      <trkpt lat="46.43084" lon="-0.18177">
        <ele>143.7</ele>
        <time>2020-05-30T19:12:42Z</time>
      </trkpt>
      <trkpt lat="46.43084" lon="-0.18177">
        <ele>143.7</ele>
        <time>2020-05-30T19:12:43Z</time>
      </trkpt>
      <trkpt lat="46.43084" lon="-0.18177">
        <ele>143.7</ele>
        <time>2020-05-30T19:12:44Z</time>
      </trkpt>
      <trkpt lat="46.43085" lon="-0.18177">
        <ele>143.7</ele>
        <time>2020-05-30T19:12:45Z</time>
      </trkpt>
      <trkpt lat="46.43085" lon="-0.18177">
        <ele>143.7</ele>
        <time>2020-05-30T19:12:46Z</time>
      </trkpt>
      <trkpt lat="46.43085" lon="-0.18177">
        <ele>143.7</ele>
        <time>2020-05-30T19:12:47Z</time>
      </trkpt>
      <trkpt lat="46.43085" lon="-0.18177">
        <ele>143.7</ele>
        <time>2020-05-30T19:12:48Z</time>
      </trkpt>
      <trkpt lat="46.43085" lon="-0.18177">
        <ele>143.7</ele>
        <time>2020-05-30T19:12:49Z</time>
      </trkpt>
      <trkpt lat="46.43085" lon="-0.18177">
        <ele>143.7</ele>
        <time>2020-05-30T19:12:50Z</time>
      </trkpt>
      <trkpt lat="46.43085" lon="-0.18177">
        <ele>143.7</ele>
        <time>2020-05-30T19:12:51Z</time>
      </trkpt>
      <trkpt lat="46.43085" lon="-0.18177">
        <ele>143.7</ele>
        <time>2020-05-30T19:12:52Z</time>
      </trkpt>
      <trkpt lat="46.43085" lon="-0.18177">
        <ele>143.7</ele>
        <time>2020-05-30T19:12:53Z</time>
      </trkpt>
      <trkpt lat="46.43085" lon="-0.18177">
        <ele>143.7</ele>
        <time>2020-05-30T19:12:54Z</time>
      </trkpt>
      <trkpt lat="46.43085" lon="-0.18177">
        <ele>143.7</ele>
        <time>2020-05-30T19:12:55Z</time>
      </trkpt>
      <trkpt lat="46.43085" lon="-0.18177">
        <ele>143.7</ele>
        <time>2020-05-30T19:12:56Z</time>
      </trkpt>
      <trkpt lat="46.43085" lon="-0.18177">
        <ele>143.7</ele>
        <time>2020-05-30T19:12:57Z</time>
      </trkpt>
      <trkpt lat="46.43085" lon="-0.18177">
        <ele>143.7</ele>
        <time>2020-05-30T19:12:58Z</time>
      </trkpt>
      <trkpt lat="46.43085" lon="-0.18177">
        <ele>143.8</ele>
        <time>2020-05-30T19:12:59Z</time>
      </trkpt>
      <trkpt lat="46.43085" lon="-0.18177">
        <ele>143.8</ele>
        <time>2020-05-30T19:13:00Z</time>
      </trkpt>
      <trkpt lat="46.43085" lon="-0.18177">
        <ele>143.8</ele>
        <time>2020-05-30T19:13:01Z</time>
      </trkpt>
      <trkpt lat="46.43085" lon="-0.18177">
        <ele>143.8</ele>
        <time>2020-05-30T19:13:02Z</time>
      </trkpt>
      <trkpt lat="46.43085" lon="-0.18177">
        <ele>143.8</ele>
        <time>2020-05-30T19:13:03Z</time>
      </trkpt>
      <trkpt lat="46.43085" lon="-0.18177">
        <ele>143.8</ele>
        <time>2020-05-30T19:13:04Z</time>
      </trkpt>
      <trkpt lat="46.43085" lon="-0.18177">
        <ele>143.8</ele>
        <time>2020-05-30T19:13:05Z</time>
      </trkpt>
      <trkpt lat="46.43085" lon="-0.18177">
        <ele>143.8</ele>
        <time>2020-05-30T19:13:06Z</time>
      </trkpt>
      <trkpt lat="46.43085" lon="-0.18177">
        <ele>143.8</ele>
        <time>2020-05-30T19:13:07Z</time>
      </trkpt>
      <trkpt lat="46.43085" lon="-0.18177">
        <ele>143.8</ele>
        <time>2020-05-30T19:13:08Z</time>
      </trkpt>
      <trkpt lat="46.43085" lon="-0.18177">
        <ele>143.8</ele>
        <time>2020-05-30T19:13:09Z</time>
      </trkpt>
      <trkpt lat="46.43085" lon="-0.18177">
        <ele>143.8</ele>
        <time>2020-05-30T19:13:10Z</time>
      </trkpt>
      <trkpt lat="46.43085" lon="-0.18177">
        <ele>143.8</ele>
        <time>2020-05-30T19:13:11Z</time>
      </trkpt>
      <trkpt lat="46.43085" lon="-0.18177">
        <ele>143.8</ele>
        <time>2020-05-30T19:13:12Z</time>
      </trkpt>
      <trkpt lat="46.43085" lon="-0.18177">
        <ele>143.8</ele>
        <time>2020-05-30T19:13:13Z</time>
      </trkpt>
      <trkpt lat="46.43085" lon="-0.18177">
        <ele>143.8</ele>
        <time>2020-05-30T19:13:14Z</time>
      </trkpt>
      <trkpt lat="46.43085" lon="-0.18177">
        <ele>143.8</ele>
        <time>2020-05-30T19:13:15Z</time>
      </trkpt>
      <trkpt lat="46.43085" lon="-0.18177">
        <ele>143.8</ele>
        <time>2020-05-30T19:13:16Z</time>
      </trkpt>
      <trkpt lat="46.43085" lon="-0.18177">
        <ele>143.8</ele>
        <time>2020-05-30T19:13:17Z</time>
      </trkpt>
      <trkpt lat="46.43085" lon="-0.18177">
        <ele>143.8</ele>
        <time>2020-05-30T19:13:18Z</time>
      </trkpt>
      <trkpt lat="46.43085" lon="-0.18177">
        <ele>143.9</ele>
        <time>2020-05-30T19:13:19Z</time>
      </trkpt>
      <trkpt lat="46.43086" lon="-0.18178">
        <ele>143.9</ele>
        <time>2020-05-30T19:13:20Z</time>
      </trkpt>
      <trkpt lat="46.43086" lon="-0.18178">
        <ele>143.9</ele>
        <time>2020-05-30T19:13:21Z</time>
      </trkpt>
      <trkpt lat="46.43085" lon="-0.18178">
        <ele>143.9</ele>
        <time>2020-05-30T19:13:22Z</time>
      </trkpt>
      <trkpt lat="46.43086" lon="-0.18177">
        <ele>143.9</ele>
        <time>2020-05-30T19:13:23Z</time>
      </trkpt>
      <trkpt lat="46.43086" lon="-0.18178">
        <ele>144</ele>
        <time>2020-05-30T19:13:24Z</time>
      </trkpt>
      <trkpt lat="46.43086" lon="-0.18178">
        <ele>144</ele>
        <time>2020-05-30T19:13:25Z</time>
      </trkpt>
      <trkpt lat="46.43086" lon="-0.18178">
        <ele>144</ele>
        <time>2020-05-30T19:13:26Z</time>
      </trkpt>
      <trkpt lat="46.43086" lon="-0.18178">
        <ele>144</ele>
        <time>2020-05-30T19:13:27Z</time>
      </trkpt>
      <trkpt lat="46.43086" lon="-0.18178">
        <ele>144</ele>
        <time>2020-05-30T19:13:28Z</time>
      </trkpt>
      <trkpt lat="46.43086" lon="-0.18177">
        <ele>144.1</ele>
        <time>2020-05-30T19:13:29Z</time>
      </trkpt>
      <trkpt lat="46.43086" lon="-0.18177">
        <ele>144.1</ele>
        <time>2020-05-30T19:13:30Z</time>
      </trkpt>
      <trkpt lat="46.43086" lon="-0.18177">
        <ele>144.1</ele>
        <time>2020-05-30T19:13:31Z</time>
      </trkpt>
      <trkpt lat="46.43086" lon="-0.18177">
        <ele>144.1</ele>
        <time>2020-05-30T19:13:32Z</time>
      </trkpt>
      <trkpt lat="46.43086" lon="-0.18177">
        <ele>144.1</ele>
        <time>2020-05-30T19:13:33Z</time>
      </trkpt>
      <trkpt lat="46.43086" lon="-0.18177">
        <ele>144.1</ele>
        <time>2020-05-30T19:13:34Z</time>
      </trkpt>
      <trkpt lat="46.43086" lon="-0.18177">
        <ele>144.1</ele>
        <time>2020-05-30T19:13:35Z</time>
      </trkpt>
      <trkpt lat="46.43086" lon="-0.18177">
        <ele>144.1</ele>
        <time>2020-05-30T19:13:36Z</time>
      </trkpt>
      <trkpt lat="46.43086" lon="-0.18177">
        <ele>144.1</ele>
        <time>2020-05-30T19:13:37Z</time>
      </trkpt>
      <trkpt lat="46.43086" lon="-0.18177">
        <ele>144.1</ele>
        <time>2020-05-30T19:13:38Z</time>
      </trkpt>
      <trkpt lat="46.43086" lon="-0.18177">
        <ele>144.1</ele>
        <time>2020-05-30T19:13:39Z</time>
      </trkpt>
      <trkpt lat="46.43087" lon="-0.18176">
        <ele>144.2</ele>
        <time>2020-05-30T19:13:40Z</time>
      </trkpt>
      <trkpt lat="46.43087" lon="-0.18175">
        <ele>144.3</ele>
        <time>2020-05-30T19:13:41Z</time>
      </trkpt>
      <trkpt lat="46.43087" lon="-0.18173">
        <ele>144.4</ele>
        <time>2020-05-30T19:13:42Z</time>
      </trkpt>
      <trkpt lat="46.43087" lon="-0.18172">
        <ele>144.5</ele>
        <time>2020-05-30T19:13:43Z</time>
      </trkpt>
      <trkpt lat="46.43088" lon="-0.18172">
        <ele>144.5</ele>
        <time>2020-05-30T19:13:44Z</time>
      </trkpt>
      <trkpt lat="46.43088" lon="-0.18171">
        <ele>144.6</ele>
        <time>2020-05-30T19:13:45Z</time>
      </trkpt>
      <trkpt lat="46.43088" lon="-0.1817">
        <ele>144.7</ele>
        <time>2020-05-30T19:13:46Z</time>
      </trkpt>
      <trkpt lat="46.43089" lon="-0.18169">
        <ele>144.7</ele>
        <time>2020-05-30T19:13:47Z</time>
      </trkpt>
      <trkpt lat="46.4309" lon="-0.18169">
        <ele>144.9</ele>
        <time>2020-05-30T19:13:48Z</time>
      </trkpt>
      <trkpt lat="46.43091" lon="-0.18167">
        <ele>145</ele>
        <time>2020-05-30T19:13:49Z</time>
      </trkpt>
      <trkpt lat="46.43091" lon="-0.18166">
        <ele>145.1</ele>
        <time>2020-05-30T19:13:50Z</time>
      </trkpt>
      <trkpt lat="46.43092" lon="-0.18164">
        <ele>145.2</ele>
        <time>2020-05-30T19:13:51Z</time>
      </trkpt>
      <trkpt lat="46.43091" lon="-0.18163">
        <ele>145.3</ele>
        <time>2020-05-30T19:13:52Z</time>
      </trkpt>
      <trkpt lat="46.43092" lon="-0.18163">
        <ele>145.4</ele>
        <time>2020-05-30T19:13:53Z</time>
      </trkpt>
      <trkpt lat="46.43093" lon="-0.18161">
        <ele>145.5</ele>
        <time>2020-05-30T19:13:54Z</time>
      </trkpt>
      <trkpt lat="46.43092" lon="-0.1816">
        <ele>145.6</ele>
        <time>2020-05-30T19:13:55Z</time>
      </trkpt>
      <trkpt lat="46.43092" lon="-0.18159">
        <ele>145.7</ele>
        <time>2020-05-30T19:13:56Z</time>
      </trkpt>
      <trkpt lat="46.43093" lon="-0.18158">
        <ele>145.8</ele>
        <time>2020-05-30T19:13:57Z</time>
      </trkpt>
      <trkpt lat="46.43095" lon="-0.18157">
        <ele>146</ele>
        <time>2020-05-30T19:13:58Z</time>
      </trkpt>
      <trkpt lat="46.43098" lon="-0.18156">
        <ele>146.2</ele>
        <time>2020-05-30T19:13:59Z</time>
      </trkpt>
      <trkpt lat="46.43099" lon="-0.18154">
        <ele>146.4</ele>
        <time>2020-05-30T19:14:00Z</time>
      </trkpt>
      <trkpt lat="46.431" lon="-0.18152">
        <ele>146.5</ele>
        <time>2020-05-30T19:14:01Z</time>
      </trkpt>
      <trkpt lat="46.431" lon="-0.18151">
        <ele>146.6</ele>
        <time>2020-05-30T19:14:02Z</time>
      </trkpt>
      <trkpt lat="46.43101" lon="-0.1815">
        <ele>146.6</ele>
        <time>2020-05-30T19:14:03Z</time>
      </trkpt>
      <trkpt lat="46.43102" lon="-0.18149">
        <ele>146.7</ele>
        <time>2020-05-30T19:14:04Z</time>
      </trkpt>
      <trkpt lat="46.43103" lon="-0.18149">
        <ele>146.8</ele>
        <time>2020-05-30T19:14:05Z</time>
      </trkpt>
      <trkpt lat="46.43104" lon="-0.18148">
        <ele>146.9</ele>
        <time>2020-05-30T19:14:06Z</time>
      </trkpt>
      <trkpt lat="46.43104" lon="-0.18148">
        <ele>147</ele>
        <time>2020-05-30T19:14:07Z</time>
      </trkpt>
      <trkpt lat="46.43105" lon="-0.18146">
        <ele>147.1</ele>
        <time>2020-05-30T19:14:08Z</time>
      </trkpt>
      <trkpt lat="46.43106" lon="-0.18145">
        <ele>147.2</ele>
        <time>2020-05-30T19:14:09Z</time>
      </trkpt>
      <trkpt lat="46.43107" lon="-0.18144">
        <ele>147.3</ele>
        <time>2020-05-30T19:14:10Z</time>
      </trkpt>
      <trkpt lat="46.43108" lon="-0.18142">
        <ele>147.5</ele>
        <time>2020-05-30T19:14:11Z</time>
      </trkpt>
      <trkpt lat="46.43109" lon="-0.1814">
        <ele>147.6</ele>
        <time>2020-05-30T19:14:12Z</time>
      </trkpt>
      <trkpt lat="46.4311" lon="-0.18138">
        <ele>147.7</ele>
        <time>2020-05-30T19:14:13Z</time>
      </trkpt>
      <trkpt lat="46.43111" lon="-0.18137">
        <ele>147.8</ele>
        <time>2020-05-30T19:14:14Z</time>
      </trkpt>
      <trkpt lat="46.43112" lon="-0.18136">
        <ele>147.9</ele>
        <time>2020-05-30T19:14:15Z</time>
      </trkpt>
      <trkpt lat="46.43113" lon="-0.18136">
        <ele>148</ele>
        <time>2020-05-30T19:14:16Z</time>
      </trkpt>
      <trkpt lat="46.43113" lon="-0.18135">
        <ele>148</ele>
        <time>2020-05-30T19:14:17Z</time>
      </trkpt>
      <trkpt lat="46.43114" lon="-0.18134">
        <ele>148.1</ele>
        <time>2020-05-30T19:14:18Z</time>
      </trkpt>
      <trkpt lat="46.43115" lon="-0.18133">
        <ele>148.2</ele>
        <time>2020-05-30T19:14:19Z</time>
      </trkpt>
      <trkpt lat="46.43115" lon="-0.18132">
        <ele>148.3</ele>
        <time>2020-05-30T19:14:20Z</time>
      </trkpt>
      <trkpt lat="46.43116" lon="-0.18131">
        <ele>148.3</ele>
        <time>2020-05-30T19:14:21Z</time>
      </trkpt>
      <trkpt lat="46.43117" lon="-0.1813">
        <ele>148.4</ele>
        <time>2020-05-30T19:14:22Z</time>
      </trkpt>
      <trkpt lat="46.43118" lon="-0.18125">
        <ele>148.7</ele>
        <time>2020-05-30T19:14:23Z</time>
      </trkpt>
      <trkpt lat="46.43119" lon="-0.18124">
        <ele>148.7</ele>
        <time>2020-05-30T19:14:24Z</time>
      </trkpt>
      <trkpt lat="46.43119" lon="-0.18123">
        <ele>148.8</ele>
        <time>2020-05-30T19:14:25Z</time>
      </trkpt>
      <trkpt lat="46.43119" lon="-0.18122">
        <ele>148.8</ele>
        <time>2020-05-30T19:14:26Z</time>
      </trkpt>
      <trkpt lat="46.4312" lon="-0.1812">
        <ele>148.9</ele>
        <time>2020-05-30T19:14:27Z</time>
      </trkpt>
      <trkpt lat="46.4312" lon="-0.18119">
        <ele>149</ele>
        <time>2020-05-30T19:14:28Z</time>
      </trkpt>
      <trkpt lat="46.4312" lon="-0.18117">
        <ele>149.1</ele>
        <time>2020-05-30T19:14:29Z</time>
      </trkpt>
      <trkpt lat="46.4312" lon="-0.18116">
        <ele>149.1</ele>
        <time>2020-05-30T19:14:30Z</time>
      </trkpt>
      <trkpt lat="46.43121" lon="-0.18115">
        <ele>149.2</ele>
        <time>2020-05-30T19:14:31Z</time>
      </trkpt>
      <trkpt lat="46.43121" lon="-0.18114">
        <ele>149.3</ele>
        <time>2020-05-30T19:14:32Z</time>
      </trkpt>
      <trkpt lat="46.43121" lon="-0.18112">
        <ele>149.3</ele>
        <time>2020-05-30T19:14:33Z</time>
      </trkpt>
      <trkpt lat="46.43122" lon="-0.18111">
        <ele>149.4</ele>
        <time>2020-05-30T19:14:34Z</time>
      </trkpt>
      <trkpt lat="46.43123" lon="-0.1811">
        <ele>149.5</ele>
        <time>2020-05-30T19:14:35Z</time>
      </trkpt>
      <trkpt lat="46.43123" lon="-0.18108">
        <ele>149.6</ele>
        <time>2020-05-30T19:14:36Z</time>
      </trkpt>
      <trkpt lat="46.43124" lon="-0.18108">
        <ele>149.6</ele>
        <time>2020-05-30T19:14:37Z</time>
      </trkpt>
      <trkpt lat="46.43125" lon="-0.18107">
        <ele>149.7</ele>
        <time>2020-05-30T19:14:38Z</time>
      </trkpt>
      <trkpt lat="46.43126" lon="-0.18106">
        <ele>149.7</ele>
        <time>2020-05-30T19:14:39Z</time>
      </trkpt>
      <trkpt lat="46.43127" lon="-0.18104">
        <ele>149.9</ele>
        <time>2020-05-30T19:14:40Z</time>
      </trkpt>
      <trkpt lat="46.43127" lon="-0.18103">
        <ele>149.9</ele>
        <time>2020-05-30T19:14:41Z</time>
      </trkpt>
      <trkpt lat="46.43128" lon="-0.18103">
        <ele>149.9</ele>
        <time>2020-05-30T19:14:42Z</time>
      </trkpt>
      <trkpt lat="46.43128" lon="-0.18102">
        <ele>150</ele>
        <time>2020-05-30T19:14:43Z</time>
      </trkpt>
      <trkpt lat="46.43129" lon="-0.18102">
        <ele>150</ele>
        <time>2020-05-30T19:14:44Z</time>
      </trkpt>
      <trkpt lat="46.43129" lon="-0.18101">
        <ele>150.1</ele>
        <time>2020-05-30T19:14:45Z</time>
      </trkpt>
      <trkpt lat="46.4313" lon="-0.18101">
        <ele>150.1</ele>
        <time>2020-05-30T19:14:46Z</time>
      </trkpt>
      <trkpt lat="46.4313" lon="-0.18099">
        <ele>150.2</ele>
        <time>2020-05-30T19:14:47Z</time>
      </trkpt>
      <trkpt lat="46.43131" lon="-0.18097">
        <ele>150.2</ele>
        <time>2020-05-30T19:14:48Z</time>
      </trkpt>
      <trkpt lat="46.43133" lon="-0.18095">
        <ele>150.4</ele>
        <time>2020-05-30T19:14:49Z</time>
      </trkpt>
      <trkpt lat="46.43134" lon="-0.18094">
        <ele>150.4</ele>
        <time>2020-05-30T19:14:50Z</time>
      </trkpt>
      <trkpt lat="46.43135" lon="-0.18093">
        <ele>150.5</ele>
        <time>2020-05-30T19:14:51Z</time>
      </trkpt>
      <trkpt lat="46.43136" lon="-0.18093">
        <ele>150.5</ele>
        <time>2020-05-30T19:14:52Z</time>
      </trkpt>
      <trkpt lat="46.43138" lon="-0.18091">
        <ele>150.7</ele>
        <time>2020-05-30T19:14:53Z</time>
      </trkpt>
      <trkpt lat="46.43139" lon="-0.1809">
        <ele>150.7</ele>
        <time>2020-05-30T19:14:54Z</time>
      </trkpt>
      <trkpt lat="46.4314" lon="-0.1809">
        <ele>150.8</ele>
        <time>2020-05-30T19:14:55Z</time>
      </trkpt>
      <trkpt lat="46.4314" lon="-0.18089">
        <ele>150.8</ele>
        <time>2020-05-30T19:14:56Z</time>
      </trkpt>
      <trkpt lat="46.4314" lon="-0.18089">
        <ele>150.8</ele>
        <time>2020-05-30T19:14:57Z</time>
      </trkpt>
      <trkpt lat="46.4314" lon="-0.18089">
        <ele>150.9</ele>
        <time>2020-05-30T19:14:58Z</time>
      </trkpt>
      <trkpt lat="46.43141" lon="-0.18089">
        <ele>150.9</ele>
        <time>2020-05-30T19:14:59Z</time>
      </trkpt>
      <trkpt lat="46.43142" lon="-0.18088">
        <ele>150.9</ele>
        <time>2020-05-30T19:15:00Z</time>
      </trkpt>
      <trkpt lat="46.43142" lon="-0.18086">
        <ele>151</ele>
        <time>2020-05-30T19:15:01Z</time>
      </trkpt>
      <trkpt lat="46.43143" lon="-0.18085">
        <ele>151</ele>
        <time>2020-05-30T19:15:02Z</time>
      </trkpt>
      <trkpt lat="46.43144" lon="-0.18083">
        <ele>151.1</ele>
        <time>2020-05-30T19:15:03Z</time>
      </trkpt>
      <trkpt lat="46.43146" lon="-0.1808">
        <ele>151.2</ele>
        <time>2020-05-30T19:15:04Z</time>
      </trkpt>
      <trkpt lat="46.43147" lon="-0.18079">
        <ele>151.3</ele>
        <time>2020-05-30T19:15:05Z</time>
      </trkpt>
      <trkpt lat="46.43147" lon="-0.18077">
        <ele>151.3</ele>
        <time>2020-05-30T19:15:06Z</time>
      </trkpt>
      <trkpt lat="46.43148" lon="-0.18076">
        <ele>151.4</ele>
        <time>2020-05-30T19:15:07Z</time>
      </trkpt>
      <trkpt lat="46.43149" lon="-0.18075">
        <ele>151.4</ele>
        <time>2020-05-30T19:15:08Z</time>
      </trkpt>
      <trkpt lat="46.43149" lon="-0.18073">
        <ele>151.5</ele>
        <time>2020-05-30T19:15:09Z</time>
      </trkpt>
      <trkpt lat="46.4315" lon="-0.18072">
        <ele>151.5</ele>
        <time>2020-05-30T19:15:10Z</time>
      </trkpt>
      <trkpt lat="46.43152" lon="-0.18069">
        <ele>151.6</ele>
        <time>2020-05-30T19:15:11Z</time>
      </trkpt>
      <trkpt lat="46.43153" lon="-0.18068">
        <ele>151.7</ele>
        <time>2020-05-30T19:15:12Z</time>
      </trkpt>
      <trkpt lat="46.43153" lon="-0.18066">
        <ele>151.7</ele>
        <time>2020-05-30T19:15:13Z</time>
      </trkpt>
      <trkpt lat="46.43154" lon="-0.18064">
        <ele>151.8</ele>
        <time>2020-05-30T19:15:14Z</time>
      </trkpt>
      <trkpt lat="46.43155" lon="-0.18063">
        <ele>151.8</ele>
        <time>2020-05-30T19:15:15Z</time>
      </trkpt>
      <trkpt lat="46.43156" lon="-0.18062">
        <ele>151.8</ele>
        <time>2020-05-30T19:15:16Z</time>
      </trkpt>
      <trkpt lat="46.43156" lon="-0.1806">
        <ele>151.9</ele>
        <time>2020-05-30T19:15:17Z</time>
      </trkpt>
      <trkpt lat="46.43158" lon="-0.18057">
        <ele>151.9</ele>
        <time>2020-05-30T19:15:18Z</time>
      </trkpt>
      <trkpt lat="46.43159" lon="-0.18055">
        <ele>152</ele>
        <time>2020-05-30T19:15:19Z</time>
      </trkpt>
      <trkpt lat="46.4316" lon="-0.18054">
        <ele>152</ele>
        <time>2020-05-30T19:15:20Z</time>
      </trkpt>
      <trkpt lat="46.43161" lon="-0.18053">
        <ele>152.1</ele>
        <time>2020-05-30T19:15:21Z</time>
      </trkpt>
      <trkpt lat="46.43161" lon="-0.18053">
        <ele>152.1</ele>
        <time>2020-05-30T19:15:22Z</time>
      </trkpt>
      <trkpt lat="46.43162" lon="-0.18052">
        <ele>152.1</ele>
        <time>2020-05-30T19:15:23Z</time>
      </trkpt>
      <trkpt lat="46.4316" lon="-0.18051">
        <ele>152.2</ele>
        <time>2020-05-30T19:15:24Z</time>
      </trkpt>
      <trkpt lat="46.4316" lon="-0.18049">
        <ele>152.2</ele>
        <time>2020-05-30T19:15:25Z</time>
      </trkpt>
      <trkpt lat="46.4316" lon="-0.18049">
        <ele>152.2</ele>
        <time>2020-05-30T19:15:26Z</time>
      </trkpt>
      <trkpt lat="46.4316" lon="-0.18048">
        <ele>152.2</ele>
        <time>2020-05-30T19:15:27Z</time>
      </trkpt>
      <trkpt lat="46.4316" lon="-0.18047">
        <ele>152.2</ele>
        <time>2020-05-30T19:15:28Z</time>
      </trkpt>
      <trkpt lat="46.43161" lon="-0.18046">
        <ele>152.3</ele>
        <time>2020-05-30T19:15:29Z</time>
      </trkpt>
      <trkpt lat="46.43164" lon="-0.18044">
        <ele>152.4</ele>
        <time>2020-05-30T19:15:30Z</time>
      </trkpt>
      <trkpt lat="46.43164" lon="-0.18043">
        <ele>152.4</ele>
        <time>2020-05-30T19:15:31Z</time>
      </trkpt>
      <trkpt lat="46.43165" lon="-0.18041">
        <ele>152.4</ele>
        <time>2020-05-30T19:15:32Z</time>
      </trkpt>
      <trkpt lat="46.43166" lon="-0.18039">
        <ele>152.5</ele>
        <time>2020-05-30T19:15:33Z</time>
      </trkpt>
      <trkpt lat="46.43166" lon="-0.18036">
        <ele>152.5</ele>
        <time>2020-05-30T19:15:34Z</time>
      </trkpt>
      <trkpt lat="46.43167" lon="-0.18036">
        <ele>152.6</ele>
        <time>2020-05-30T19:15:35Z</time>
      </trkpt>
      <trkpt lat="46.43168" lon="-0.18035">
        <ele>152.6</ele>
        <time>2020-05-30T19:15:36Z</time>
      </trkpt>
      <trkpt lat="46.43169" lon="-0.18035">
        <ele>152.6</ele>
        <time>2020-05-30T19:15:37Z</time>
      </trkpt>
      <trkpt lat="46.4317" lon="-0.18034">
        <ele>152.7</ele>
        <time>2020-05-30T19:15:38Z</time>
      </trkpt>
      <trkpt lat="46.4317" lon="-0.18033">
        <ele>152.7</ele>
        <time>2020-05-30T19:15:39Z</time>
      </trkpt>
      <trkpt lat="46.43172" lon="-0.18031">
        <ele>152.8</ele>
        <time>2020-05-30T19:15:40Z</time>
      </trkpt>
      <trkpt lat="46.43172" lon="-0.1803">
        <ele>152.8</ele>
        <time>2020-05-30T19:15:41Z</time>
      </trkpt>
      <trkpt lat="46.43173" lon="-0.18029">
        <ele>152.8</ele>
        <time>2020-05-30T19:15:42Z</time>
      </trkpt>
      <trkpt lat="46.43174" lon="-0.18027">
        <ele>152.9</ele>
        <time>2020-05-30T19:15:43Z</time>
      </trkpt>
      <trkpt lat="46.43175" lon="-0.18025">
        <ele>152.9</ele>
        <time>2020-05-30T19:15:44Z</time>
      </trkpt>
      <trkpt lat="46.43176" lon="-0.18024">
        <ele>153</ele>
        <time>2020-05-30T19:15:45Z</time>
      </trkpt>
      <trkpt lat="46.43177" lon="-0.18021">
        <ele>153</ele>
        <time>2020-05-30T19:15:46Z</time>
      </trkpt>
      <trkpt lat="46.43178" lon="-0.1802">
        <ele>153.1</ele>
        <time>2020-05-30T19:15:47Z</time>
      </trkpt>
      <trkpt lat="46.43179" lon="-0.18018">
        <ele>153.1</ele>
        <time>2020-05-30T19:15:48Z</time>
      </trkpt>
      <trkpt lat="46.43179" lon="-0.18016">
        <ele>153.2</ele>
        <time>2020-05-30T19:15:49Z</time>
      </trkpt>
      <trkpt lat="46.4318" lon="-0.18014">
        <ele>153.2</ele>
        <time>2020-05-30T19:15:50Z</time>
      </trkpt>
      <trkpt lat="46.43181" lon="-0.18012">
        <ele>153.3</ele>
        <time>2020-05-30T19:15:51Z</time>
      </trkpt>
      <trkpt lat="46.43182" lon="-0.1801">
        <ele>153.3</ele>
        <time>2020-05-30T19:15:52Z</time>
      </trkpt>
      <trkpt lat="46.43184" lon="-0.18007">
        <ele>153.4</ele>
        <time>2020-05-30T19:15:53Z</time>
      </trkpt>
      <trkpt lat="46.43184" lon="-0.18006">
        <ele>153.4</ele>
        <time>2020-05-30T19:15:54Z</time>
      </trkpt>
      <trkpt lat="46.43186" lon="-0.18004">
        <ele>153.5</ele>
        <time>2020-05-30T19:15:55Z</time>
      </trkpt>
      <trkpt lat="46.43187" lon="-0.18003">
        <ele>153.5</ele>
        <time>2020-05-30T19:15:56Z</time>
      </trkpt>
      <trkpt lat="46.43188" lon="-0.18003">
        <ele>153.6</ele>
        <time>2020-05-30T19:15:57Z</time>
      </trkpt>
      <trkpt lat="46.43189" lon="-0.18001">
        <ele>153.6</ele>
        <time>2020-05-30T19:15:58Z</time>
      </trkpt>
      <trkpt lat="46.43189" lon="-0.18">
        <ele>153.6</ele>
        <time>2020-05-30T19:15:59Z</time>
      </trkpt>
      <trkpt lat="46.4319" lon="-0.17999">
        <ele>153.7</ele>
        <time>2020-05-30T19:16:00Z</time>
      </trkpt>
      <trkpt lat="46.4319" lon="-0.17998">
        <ele>153.7</ele>
        <time>2020-05-30T19:16:01Z</time>
      </trkpt>
      <trkpt lat="46.4319" lon="-0.17997">
        <ele>153.7</ele>
        <time>2020-05-30T19:16:02Z</time>
      </trkpt>
      <trkpt lat="46.4319" lon="-0.17998">
        <ele>153.7</ele>
        <time>2020-05-30T19:16:03Z</time>
      </trkpt>
      <trkpt lat="46.4319" lon="-0.17997">
        <ele>153.7</ele>
        <time>2020-05-30T19:16:04Z</time>
      </trkpt>
      <trkpt lat="46.4319" lon="-0.17996">
        <ele>153.8</ele>
        <time>2020-05-30T19:16:05Z</time>
      </trkpt>
      <trkpt lat="46.43191" lon="-0.17996">
        <ele>153.8</ele>
        <time>2020-05-30T19:16:06Z</time>
      </trkpt>
      <trkpt lat="46.43192" lon="-0.17994">
        <ele>153.8</ele>
        <time>2020-05-30T19:16:07Z</time>
      </trkpt>
      <trkpt lat="46.43193" lon="-0.17992">
        <ele>153.9</ele>
        <time>2020-05-30T19:16:08Z</time>
      </trkpt>
      <trkpt lat="46.43194" lon="-0.17989">
        <ele>153.9</ele>
        <time>2020-05-30T19:16:09Z</time>
      </trkpt>
      <trkpt lat="46.43194" lon="-0.17987">
        <ele>154</ele>
        <time>2020-05-30T19:16:10Z</time>
      </trkpt>
      <trkpt lat="46.43195" lon="-0.17986">
        <ele>154</ele>
        <time>2020-05-30T19:16:11Z</time>
      </trkpt>
      <trkpt lat="46.43196" lon="-0.17985">
        <ele>154</ele>
        <time>2020-05-30T19:16:12Z</time>
      </trkpt>
      <trkpt lat="46.43196" lon="-0.17984">
        <ele>154.1</ele>
        <time>2020-05-30T19:16:13Z</time>
      </trkpt>
      <trkpt lat="46.43197" lon="-0.17983">
        <ele>154.1</ele>
        <time>2020-05-30T19:16:14Z</time>
      </trkpt>
      <trkpt lat="46.43198" lon="-0.1798">
        <ele>154.2</ele>
        <time>2020-05-30T19:16:15Z</time>
      </trkpt>
      <trkpt lat="46.43199" lon="-0.17979">
        <ele>154.2</ele>
        <time>2020-05-30T19:16:16Z</time>
      </trkpt>
      <trkpt lat="46.43201" lon="-0.17976">
        <ele>154.3</ele>
        <time>2020-05-30T19:16:17Z</time>
      </trkpt>
      <trkpt lat="46.43202" lon="-0.17975">
        <ele>154.3</ele>
        <time>2020-05-30T19:16:18Z</time>
      </trkpt>
      <trkpt lat="46.43203" lon="-0.17974">
        <ele>154.3</ele>
        <time>2020-05-30T19:16:19Z</time>
      </trkpt>
      <trkpt lat="46.43204" lon="-0.17974">
        <ele>154.4</ele>
        <time>2020-05-30T19:16:20Z</time>
      </trkpt>
      <trkpt lat="46.43205" lon="-0.17972">
        <ele>154.4</ele>
        <time>2020-05-30T19:16:21Z</time>
      </trkpt>
      <trkpt lat="46.43205" lon="-0.1797">
        <ele>154.4</ele>
        <time>2020-05-30T19:16:22Z</time>
      </trkpt>
      <trkpt lat="46.43207" lon="-0.17968">
        <ele>154.5</ele>
        <time>2020-05-30T19:16:23Z</time>
      </trkpt>
      <trkpt lat="46.43208" lon="-0.17966">
        <ele>154.5</ele>
        <time>2020-05-30T19:16:24Z</time>
      </trkpt>
      <trkpt lat="46.43209" lon="-0.17964">
        <ele>154.6</ele>
        <time>2020-05-30T19:16:25Z</time>
      </trkpt>
      <trkpt lat="46.4321" lon="-0.17964">
        <ele>154.6</ele>
        <time>2020-05-30T19:16:26Z</time>
      </trkpt>
      <trkpt lat="46.4321" lon="-0.17962">
        <ele>154.6</ele>
        <time>2020-05-30T19:16:27Z</time>
      </trkpt>
      <trkpt lat="46.43211" lon="-0.17962">
        <ele>154.6</ele>
        <time>2020-05-30T19:16:28Z</time>
      </trkpt>
      <trkpt lat="46.43213" lon="-0.17959">
        <ele>154.7</ele>
        <time>2020-05-30T19:16:29Z</time>
      </trkpt>
      <trkpt lat="46.43213" lon="-0.17958">
        <ele>154.7</ele>
        <time>2020-05-30T19:16:30Z</time>
      </trkpt>
      <trkpt lat="46.43213" lon="-0.17957">
        <ele>154.7</ele>
        <time>2020-05-30T19:16:31Z</time>
      </trkpt>
      <trkpt lat="46.43214" lon="-0.17956">
        <ele>154.7</ele>
        <time>2020-05-30T19:16:32Z</time>
      </trkpt>
      <trkpt lat="46.43215" lon="-0.17954">
        <ele>154.8</ele>
        <time>2020-05-30T19:16:33Z</time>
      </trkpt>
      <trkpt lat="46.43216" lon="-0.17952">
        <ele>154.8</ele>
        <time>2020-05-30T19:16:34Z</time>
      </trkpt>
      <trkpt lat="46.43217" lon="-0.1795">
        <ele>154.8</ele>
        <time>2020-05-30T19:16:35Z</time>
      </trkpt>
      <trkpt lat="46.43217" lon="-0.17948">
        <ele>154.9</ele>
        <time>2020-05-30T19:16:36Z</time>
      </trkpt>
      <trkpt lat="46.43218" lon="-0.17946">
        <ele>154.9</ele>
        <time>2020-05-30T19:16:37Z</time>
      </trkpt>
      <trkpt lat="46.43219" lon="-0.17945">
        <ele>154.9</ele>
        <time>2020-05-30T19:16:38Z</time>
      </trkpt>
      <trkpt lat="46.4322" lon="-0.17944">
        <ele>155</ele>
        <time>2020-05-30T19:16:39Z</time>
      </trkpt>
      <trkpt lat="46.43221" lon="-0.17944">
        <ele>155</ele>
        <time>2020-05-30T19:16:40Z</time>
      </trkpt>
      <trkpt lat="46.43221" lon="-0.17942">
        <ele>155</ele>
        <time>2020-05-30T19:16:41Z</time>
      </trkpt>
      <trkpt lat="46.43223" lon="-0.1794">
        <ele>155.1</ele>
        <time>2020-05-30T19:16:42Z</time>
      </trkpt>
      <trkpt lat="46.43225" lon="-0.17938">
        <ele>155.1</ele>
        <time>2020-05-30T19:16:43Z</time>
      </trkpt>
      <trkpt lat="46.43225" lon="-0.17938">
        <ele>155.1</ele>
        <time>2020-05-30T19:16:44Z</time>
      </trkpt>
      <trkpt lat="46.43226" lon="-0.17937">
        <ele>155.1</ele>
        <time>2020-05-30T19:16:45Z</time>
      </trkpt>
      <trkpt lat="46.43227" lon="-0.17935">
        <ele>155.2</ele>
        <time>2020-05-30T19:16:46Z</time>
      </trkpt>
      <trkpt lat="46.43227" lon="-0.17933">
        <ele>155.2</ele>
        <time>2020-05-30T19:16:47Z</time>
      </trkpt>
      <trkpt lat="46.43228" lon="-0.17932">
        <ele>155.2</ele>
        <time>2020-05-30T19:16:48Z</time>
      </trkpt>
      <trkpt lat="46.43229" lon="-0.17931">
        <ele>155.3</ele>
        <time>2020-05-30T19:16:49Z</time>
      </trkpt>
      <trkpt lat="46.4323" lon="-0.1793">
        <ele>155.3</ele>
        <time>2020-05-30T19:16:50Z</time>
      </trkpt>
      <trkpt lat="46.4323" lon="-0.17929">
        <ele>155.3</ele>
        <time>2020-05-30T19:16:51Z</time>
      </trkpt>
      <trkpt lat="46.43231" lon="-0.17928">
        <ele>155.3</ele>
        <time>2020-05-30T19:16:52Z</time>
      </trkpt>
      <trkpt lat="46.43232" lon="-0.17927">
        <ele>155.4</ele>
        <time>2020-05-30T19:16:53Z</time>
      </trkpt>
      <trkpt lat="46.43233" lon="-0.17926">
        <ele>155.4</ele>
        <time>2020-05-30T19:16:54Z</time>
      </trkpt>
      <trkpt lat="46.43233" lon="-0.17925">
        <ele>155.4</ele>
        <time>2020-05-30T19:16:55Z</time>
      </trkpt>
      <trkpt lat="46.43234" lon="-0.17924">
        <ele>155.4</ele>
        <time>2020-05-30T19:16:56Z</time>
      </trkpt>
      <trkpt lat="46.43235" lon="-0.17924">
        <ele>155.5</ele>
        <time>2020-05-30T19:16:57Z</time>
      </trkpt>
      <trkpt lat="46.43236" lon="-0.17922">
        <ele>155.5</ele>
        <time>2020-05-30T19:16:58Z</time>
      </trkpt>
      <trkpt lat="46.43237" lon="-0.17922">
        <ele>155.5</ele>
        <time>2020-05-30T19:16:59Z</time>
      </trkpt>
      <trkpt lat="46.43239" lon="-0.17918">
        <ele>155.6</ele>
        <time>2020-05-30T19:17:00Z</time>
      </trkpt>
      <trkpt lat="46.43239" lon="-0.17918">
        <ele>155.6</ele>
        <time>2020-05-30T19:17:01Z</time>
      </trkpt>
      <trkpt lat="46.4324" lon="-0.17917">
        <ele>155.6</ele>
        <time>2020-05-30T19:17:02Z</time>
      </trkpt>
      <trkpt lat="46.43241" lon="-0.17915">
        <ele>155.6</ele>
        <time>2020-05-30T19:17:03Z</time>
      </trkpt>
      <trkpt lat="46.43241" lon="-0.17914">
        <ele>155.6</ele>
        <time>2020-05-30T19:17:04Z</time>
      </trkpt>
      <trkpt lat="46.43241" lon="-0.17913">
        <ele>155.7</ele>
        <time>2020-05-30T19:17:05Z</time>
      </trkpt>
      <trkpt lat="46.43242" lon="-0.17913">
        <ele>155.7</ele>
        <time>2020-05-30T19:17:06Z</time>
      </trkpt>
      <trkpt lat="46.43243" lon="-0.17912">
        <ele>155.7</ele>
        <time>2020-05-30T19:17:07Z</time>
      </trkpt>
      <trkpt lat="46.43244" lon="-0.17911">
        <ele>155.7</ele>
        <time>2020-05-30T19:17:08Z</time>
      </trkpt>
      <trkpt lat="46.43245" lon="-0.17909">
        <ele>155.7</ele>
        <time>2020-05-30T19:17:09Z</time>
      </trkpt>
      <trkpt lat="46.43245" lon="-0.17909">
        <ele>155.8</ele>
        <time>2020-05-30T19:17:10Z</time>
      </trkpt>
      <trkpt lat="46.43246" lon="-0.17908">
        <ele>155.8</ele>
        <time>2020-05-30T19:17:11Z</time>
      </trkpt>
      <trkpt lat="46.43247" lon="-0.17904">
        <ele>155.8</ele>
        <time>2020-05-30T19:17:12Z</time>
      </trkpt>
      <trkpt lat="46.43247" lon="-0.17903">
        <ele>155.9</ele>
        <time>2020-05-30T19:17:13Z</time>
      </trkpt>
      <trkpt lat="46.43248" lon="-0.179">
        <ele>155.9</ele>
        <time>2020-05-30T19:17:14Z</time>
      </trkpt>
      <trkpt lat="46.43249" lon="-0.17899">
        <ele>155.9</ele>
        <time>2020-05-30T19:17:15Z</time>
      </trkpt>
      <trkpt lat="46.4325" lon="-0.17898">
        <ele>155.9</ele>
        <time>2020-05-30T19:17:16Z</time>
      </trkpt>
      <trkpt lat="46.43251" lon="-0.17897">
        <ele>155.9</ele>
        <time>2020-05-30T19:17:17Z</time>
      </trkpt>
      <trkpt lat="46.43251" lon="-0.17896">
        <ele>155.9</ele>
        <time>2020-05-30T19:17:18Z</time>
      </trkpt>
      <trkpt lat="46.43252" lon="-0.17895">
        <ele>156</ele>
        <time>2020-05-30T19:17:19Z</time>
      </trkpt>
      <trkpt lat="46.43253" lon="-0.17894">
        <ele>156</ele>
        <time>2020-05-30T19:17:20Z</time>
      </trkpt>
      <trkpt lat="46.43254" lon="-0.17893">
        <ele>156</ele>
        <time>2020-05-30T19:17:21Z</time>
      </trkpt>
      <trkpt lat="46.43253" lon="-0.17892">
        <ele>156</ele>
        <time>2020-05-30T19:17:22Z</time>
      </trkpt>
      <trkpt lat="46.43254" lon="-0.17891">
        <ele>156</ele>
        <time>2020-05-30T19:17:23Z</time>
      </trkpt>
      <trkpt lat="46.43253" lon="-0.17891">
        <ele>156</ele>
        <time>2020-05-30T19:17:24Z</time>
      </trkpt>
      <trkpt lat="46.43254" lon="-0.1789">
        <ele>156</ele>
        <time>2020-05-30T19:17:25Z</time>
      </trkpt>
      <trkpt lat="46.43255" lon="-0.17888">
        <ele>156.1</ele>
        <time>2020-05-30T19:17:26Z</time>
      </trkpt>
      <trkpt lat="46.43256" lon="-0.17887">
        <ele>156.1</ele>
        <time>2020-05-30T19:17:27Z</time>
      </trkpt>
      <trkpt lat="46.43257" lon="-0.17886">
        <ele>156.1</ele>
        <time>2020-05-30T19:17:28Z</time>
      </trkpt>
      <trkpt lat="46.43258" lon="-0.17885">
        <ele>156.1</ele>
        <time>2020-05-30T19:17:29Z</time>
      </trkpt>
      <trkpt lat="46.43259" lon="-0.17884">
        <ele>156.1</ele>
        <time>2020-05-30T19:17:30Z</time>
      </trkpt>
      <trkpt lat="46.4326" lon="-0.17883">
        <ele>156.1</ele>
        <time>2020-05-30T19:17:31Z</time>
      </trkpt>
      <trkpt lat="46.43261" lon="-0.17882">
        <ele>156.1</ele>
        <time>2020-05-30T19:17:32Z</time>
      </trkpt>
      <trkpt lat="46.43261" lon="-0.1788">
        <ele>156.2</ele>
        <time>2020-05-30T19:17:33Z</time>
      </trkpt>
      <trkpt lat="46.43262" lon="-0.17879">
        <ele>156.2</ele>
        <time>2020-05-30T19:17:34Z</time>
      </trkpt>
      <trkpt lat="46.43263" lon="-0.17878">
        <ele>156.2</ele>
        <time>2020-05-30T19:17:35Z</time>
      </trkpt>
      <trkpt lat="46.43263" lon="-0.17877">
        <ele>156.2</ele>
        <time>2020-05-30T19:17:36Z</time>
      </trkpt>
      <trkpt lat="46.43265" lon="-0.17874">
        <ele>156.2</ele>
        <time>2020-05-30T19:17:37Z</time>
      </trkpt>
      <trkpt lat="46.43266" lon="-0.17873">
        <ele>156.2</ele>
        <time>2020-05-30T19:17:38Z</time>
      </trkpt>
      <trkpt lat="46.43267" lon="-0.17871">
        <ele>156.3</ele>
        <time>2020-05-30T19:17:39Z</time>
      </trkpt>
      <trkpt lat="46.4327" lon="-0.17867">
        <ele>156.3</ele>
        <time>2020-05-30T19:17:40Z</time>
      </trkpt>
      <trkpt lat="46.43271" lon="-0.17866">
        <ele>156.3</ele>
        <time>2020-05-30T19:17:41Z</time>
      </trkpt>
      <trkpt lat="46.43272" lon="-0.17864">
        <ele>156.3</ele>
        <time>2020-05-30T19:17:42Z</time>
      </trkpt>
      <trkpt lat="46.43273" lon="-0.17861">
        <ele>156.4</ele>
        <time>2020-05-30T19:17:43Z</time>
      </trkpt>
      <trkpt lat="46.43274" lon="-0.17859">
        <ele>156.4</ele>
        <time>2020-05-30T19:17:44Z</time>
      </trkpt>
      <trkpt lat="46.43275" lon="-0.17859">
        <ele>156.4</ele>
        <time>2020-05-30T19:17:45Z</time>
      </trkpt>
      <trkpt lat="46.43276" lon="-0.17858">
        <ele>156.4</ele>
        <time>2020-05-30T19:17:46Z</time>
      </trkpt>
      <trkpt lat="46.43278" lon="-0.17856">
        <ele>156.4</ele>
        <time>2020-05-30T19:17:47Z</time>
      </trkpt>
      <trkpt lat="46.43278" lon="-0.17855">
        <ele>156.4</ele>
        <time>2020-05-30T19:17:48Z</time>
      </trkpt>
      <trkpt lat="46.43279" lon="-0.17853">
        <ele>156.5</ele>
        <time>2020-05-30T19:17:49Z</time>
      </trkpt>
      <trkpt lat="46.43281" lon="-0.17851">
        <ele>156.5</ele>
        <time>2020-05-30T19:17:50Z</time>
      </trkpt>
      <trkpt lat="46.43282" lon="-0.17851">
        <ele>156.5</ele>
        <time>2020-05-30T19:17:51Z</time>
      </trkpt>
      <trkpt lat="46.43282" lon="-0.1785">
        <ele>156.5</ele>
        <time>2020-05-30T19:17:52Z</time>
      </trkpt>
      <trkpt lat="46.43283" lon="-0.17851">
        <ele>156.5</ele>
        <time>2020-05-30T19:17:53Z</time>
      </trkpt>
      <trkpt lat="46.43284" lon="-0.1785">
        <ele>156.5</ele>
        <time>2020-05-30T19:17:54Z</time>
      </trkpt>
      <trkpt lat="46.43284" lon="-0.1785">
        <ele>156.5</ele>
        <time>2020-05-30T19:17:55Z</time>
      </trkpt>
      <trkpt lat="46.43284" lon="-0.17849">
        <ele>156.5</ele>
        <time>2020-05-30T19:17:56Z</time>
      </trkpt>
      <trkpt lat="46.43285" lon="-0.17849">
        <ele>156.5</ele>
        <time>2020-05-30T19:17:57Z</time>
      </trkpt>
      <trkpt lat="46.43285" lon="-0.17848">
        <ele>156.5</ele>
        <time>2020-05-30T19:17:58Z</time>
      </trkpt>
      <trkpt lat="46.43285" lon="-0.17847">
        <ele>156.5</ele>
        <time>2020-05-30T19:17:59Z</time>
      </trkpt>
      <trkpt lat="46.43287" lon="-0.17844">
        <ele>156.6</ele>
        <time>2020-05-30T19:18:00Z</time>
      </trkpt>
      <trkpt lat="46.43287" lon="-0.17843">
        <ele>156.6</ele>
        <time>2020-05-30T19:18:01Z</time>
      </trkpt>
      <trkpt lat="46.43287" lon="-0.17842">
        <ele>156.6</ele>
        <time>2020-05-30T19:18:02Z</time>
      </trkpt>
      <trkpt lat="46.43288" lon="-0.17841">
        <ele>156.6</ele>
        <time>2020-05-30T19:18:03Z</time>
      </trkpt>
      <trkpt lat="46.43289" lon="-0.17839">
        <ele>156.6</ele>
        <time>2020-05-30T19:18:04Z</time>
      </trkpt>
      <trkpt lat="46.4329" lon="-0.17839">
        <ele>156.6</ele>
        <time>2020-05-30T19:18:05Z</time>
      </trkpt>
      <trkpt lat="46.43291" lon="-0.17835">
        <ele>156.6</ele>
        <time>2020-05-30T19:18:06Z</time>
      </trkpt>
      <trkpt lat="46.43292" lon="-0.17834">
        <ele>156.6</ele>
        <time>2020-05-30T19:18:07Z</time>
      </trkpt>
      <trkpt lat="46.43293" lon="-0.17831">
        <ele>156.6</ele>
        <time>2020-05-30T19:18:08Z</time>
      </trkpt>
      <trkpt lat="46.43294" lon="-0.17829">
        <ele>156.6</ele>
        <time>2020-05-30T19:18:09Z</time>
      </trkpt>
      <trkpt lat="46.43296" lon="-0.17826">
        <ele>156.7</ele>
        <time>2020-05-30T19:18:10Z</time>
      </trkpt>
      <trkpt lat="46.43297" lon="-0.17826">
        <ele>156.7</ele>
        <time>2020-05-30T19:18:11Z</time>
      </trkpt>
      <trkpt lat="46.43299" lon="-0.17823">
        <ele>156.7</ele>
        <time>2020-05-30T19:18:12Z</time>
      </trkpt>
      <trkpt lat="46.43301" lon="-0.17817">
        <ele>156.7</ele>
        <time>2020-05-30T19:18:13Z</time>
      </trkpt>
      <trkpt lat="46.43303" lon="-0.17814">
        <ele>156.8</ele>
        <time>2020-05-30T19:18:14Z</time>
      </trkpt>
      <trkpt lat="46.43306" lon="-0.1781">
        <ele>156.8</ele>
        <time>2020-05-30T19:18:15Z</time>
      </trkpt>
      <trkpt lat="46.43308" lon="-0.17806">
        <ele>156.8</ele>
        <time>2020-05-30T19:18:16Z</time>
      </trkpt>
      <trkpt lat="46.43311" lon="-0.17803">
        <ele>156.8</ele>
        <time>2020-05-30T19:18:17Z</time>
      </trkpt>
      <trkpt lat="46.43314" lon="-0.17798">
        <ele>156.9</ele>
        <time>2020-05-30T19:18:18Z</time>
      </trkpt>
      <trkpt lat="46.43317" lon="-0.17794">
        <ele>156.9</ele>
        <time>2020-05-30T19:18:19Z</time>
      </trkpt>
      <trkpt lat="46.43321" lon="-0.1779">
        <ele>157</ele>
        <time>2020-05-30T19:18:20Z</time>
      </trkpt>
      <trkpt lat="46.43322" lon="-0.17789">
        <ele>157</ele>
        <time>2020-05-30T19:18:21Z</time>
      </trkpt>
      <trkpt lat="46.43325" lon="-0.17786">
        <ele>157</ele>
        <time>2020-05-30T19:18:22Z</time>
      </trkpt>
      <trkpt lat="46.43328" lon="-0.17784">
        <ele>157</ele>
        <time>2020-05-30T19:18:23Z</time>
      </trkpt>
      <trkpt lat="46.43331" lon="-0.17782">
        <ele>157.1</ele>
        <time>2020-05-30T19:18:24Z</time>
      </trkpt>
      <trkpt lat="46.43334" lon="-0.17779">
        <ele>157.1</ele>
        <time>2020-05-30T19:18:25Z</time>
      </trkpt>
      <trkpt lat="46.43338" lon="-0.17776">
        <ele>157.1</ele>
        <time>2020-05-30T19:18:26Z</time>
      </trkpt>
      <trkpt lat="46.43342" lon="-0.17773">
        <ele>157.1</ele>
        <time>2020-05-30T19:18:27Z</time>
      </trkpt>
      <trkpt lat="46.43345" lon="-0.1777">
        <ele>157.1</ele>
        <time>2020-05-30T19:18:28Z</time>
      </trkpt>
      <trkpt lat="46.43347" lon="-0.17769">
        <ele>157.1</ele>
        <time>2020-05-30T19:18:29Z</time>
      </trkpt>
      <trkpt lat="46.43349" lon="-0.17766">
        <ele>157.1</ele>
        <time>2020-05-30T19:18:30Z</time>
      </trkpt>
      <trkpt lat="46.43353" lon="-0.17762">
        <ele>157.2</ele>
        <time>2020-05-30T19:18:31Z</time>
      </trkpt>
      <trkpt lat="46.43355" lon="-0.17761">
        <ele>157.2</ele>
        <time>2020-05-30T19:18:32Z</time>
      </trkpt>
      <trkpt lat="46.43359" lon="-0.17759">
        <ele>157.2</ele>
        <time>2020-05-30T19:18:33Z</time>
      </trkpt>
      <trkpt lat="46.43362" lon="-0.17758">
        <ele>157.2</ele>
        <time>2020-05-30T19:18:34Z</time>
      </trkpt>
      <trkpt lat="46.43365" lon="-0.17755">
        <ele>157.1</ele>
        <time>2020-05-30T19:18:35Z</time>
      </trkpt>
      <trkpt lat="46.43368" lon="-0.17752">
        <ele>157.1</ele>
        <time>2020-05-30T19:18:36Z</time>
      </trkpt>
      <trkpt lat="46.43372" lon="-0.17749">
        <ele>157.1</ele>
        <time>2020-05-30T19:18:37Z</time>
      </trkpt>
      <trkpt lat="46.43375" lon="-0.17745">
        <ele>157.1</ele>
        <time>2020-05-30T19:18:38Z</time>
      </trkpt>
      <trkpt lat="46.43378" lon="-0.17742">
        <ele>157.1</ele>
        <time>2020-05-30T19:18:39Z</time>
      </trkpt>
      <trkpt lat="46.43381" lon="-0.17739">
        <ele>157</ele>
        <time>2020-05-30T19:18:40Z</time>
      </trkpt>
      <trkpt lat="46.43384" lon="-0.17737">
        <ele>157</ele>
        <time>2020-05-30T19:18:41Z</time>
      </trkpt>
      <trkpt lat="46.43387" lon="-0.17734">
        <ele>157</ele>
        <time>2020-05-30T19:18:42Z</time>
      </trkpt>
      <trkpt lat="46.43389" lon="-0.1773">
        <ele>156.9</ele>
        <time>2020-05-30T19:18:43Z</time>
      </trkpt>
      <trkpt lat="46.43394" lon="-0.17729">
        <ele>156.9</ele>
        <time>2020-05-30T19:18:44Z</time>
      </trkpt>
      <trkpt lat="46.43398" lon="-0.17727">
        <ele>156.8</ele>
        <time>2020-05-30T19:18:45Z</time>
      </trkpt>
      <trkpt lat="46.43402" lon="-0.17723">
        <ele>156.8</ele>
        <time>2020-05-30T19:18:46Z</time>
      </trkpt>
      <trkpt lat="46.43405" lon="-0.17719">
        <ele>156.7</ele>
        <time>2020-05-30T19:18:47Z</time>
      </trkpt>
      <trkpt lat="46.43409" lon="-0.17718">
        <ele>156.7</ele>
        <time>2020-05-30T19:18:48Z</time>
      </trkpt>
      <trkpt lat="46.43412" lon="-0.17715">
        <ele>156.7</ele>
        <time>2020-05-30T19:18:49Z</time>
      </trkpt>
      <trkpt lat="46.43415" lon="-0.17713">
        <ele>156.6</ele>
        <time>2020-05-30T19:18:50Z</time>
      </trkpt>
      <trkpt lat="46.43418" lon="-0.17712">
        <ele>156.6</ele>
        <time>2020-05-30T19:18:51Z</time>
      </trkpt>
      <trkpt lat="46.43422" lon="-0.1771">
        <ele>156.6</ele>
        <time>2020-05-30T19:18:52Z</time>
      </trkpt>
      <trkpt lat="46.43425" lon="-0.17707">
        <ele>156.5</ele>
        <time>2020-05-30T19:18:53Z</time>
      </trkpt>
      <trkpt lat="46.43428" lon="-0.17705">
        <ele>156.5</ele>
        <time>2020-05-30T19:18:54Z</time>
      </trkpt>
      <trkpt lat="46.43431" lon="-0.17703">
        <ele>156.5</ele>
        <time>2020-05-30T19:18:55Z</time>
      </trkpt>
      <trkpt lat="46.43435" lon="-0.17701">
        <ele>156.4</ele>
        <time>2020-05-30T19:18:56Z</time>
      </trkpt>
      <trkpt lat="46.43438" lon="-0.17699">
        <ele>156.4</ele>
        <time>2020-05-30T19:18:57Z</time>
      </trkpt>
      <trkpt lat="46.43441" lon="-0.17697">
        <ele>156.3</ele>
        <time>2020-05-30T19:18:58Z</time>
      </trkpt>
      <trkpt lat="46.43445" lon="-0.17695">
        <ele>156.3</ele>
        <time>2020-05-30T19:18:59Z</time>
      </trkpt>
      <trkpt lat="46.43447" lon="-0.17692">
        <ele>156.2</ele>
        <time>2020-05-30T19:19:00Z</time>
      </trkpt>
      <trkpt lat="46.4345" lon="-0.1769">
        <ele>156.2</ele>
        <time>2020-05-30T19:19:01Z</time>
      </trkpt>
      <trkpt lat="46.43453" lon="-0.17689">
        <ele>156.1</ele>
        <time>2020-05-30T19:19:02Z</time>
      </trkpt>
      <trkpt lat="46.43456" lon="-0.17689">
        <ele>156.1</ele>
        <time>2020-05-30T19:19:03Z</time>
      </trkpt>
      <trkpt lat="46.43459" lon="-0.17688">
        <ele>156.1</ele>
        <time>2020-05-30T19:19:04Z</time>
      </trkpt>
      <trkpt lat="46.43463" lon="-0.17686">
        <ele>156</ele>
        <time>2020-05-30T19:19:05Z</time>
      </trkpt>
      <trkpt lat="46.43465" lon="-0.17685">
        <ele>155.9</ele>
        <time>2020-05-30T19:19:06Z</time>
      </trkpt>
      <trkpt lat="46.43468" lon="-0.17684">
        <ele>156</ele>
        <time>2020-05-30T19:19:07Z</time>
      </trkpt>
      <trkpt lat="46.43469" lon="-0.17685">
        <ele>156</ele>
        <time>2020-05-30T19:19:08Z</time>
      </trkpt>
      <trkpt lat="46.4347" lon="-0.17684">
        <ele>156</ele>
        <time>2020-05-30T19:19:09Z</time>
      </trkpt>
      <trkpt lat="46.4347" lon="-0.17684">
        <ele>156</ele>
        <time>2020-05-30T19:19:10Z</time>
      </trkpt>
      <trkpt lat="46.43469" lon="-0.17684">
        <ele>156</ele>
        <time>2020-05-30T19:19:11Z</time>
      </trkpt>
      <trkpt lat="46.43469" lon="-0.17683">
        <ele>156</ele>
        <time>2020-05-30T19:19:12Z</time>
      </trkpt>
      <trkpt lat="46.43469" lon="-0.17683">
        <ele>156</ele>
        <time>2020-05-30T19:19:13Z</time>
      </trkpt>
      <trkpt lat="46.43469" lon="-0.17683">
        <ele>156</ele>
        <time>2020-05-30T19:19:14Z</time>
      </trkpt>
      <trkpt lat="46.43469" lon="-0.17683">
        <ele>156</ele>
        <time>2020-05-30T19:19:15Z</time>
      </trkpt>
      <trkpt lat="46.43469" lon="-0.17684">
        <ele>156</ele>
        <time>2020-05-30T19:19:16Z</time>
      </trkpt>
      <trkpt lat="46.43469" lon="-0.17684">
        <ele>156</ele>
        <time>2020-05-30T19:19:17Z</time>
      </trkpt>
      <trkpt lat="46.43469" lon="-0.17684">
        <ele>156</ele>
        <time>2020-05-30T19:19:18Z</time>
      </trkpt>
      <trkpt lat="46.43469" lon="-0.17684">
        <ele>156</ele>
        <time>2020-05-30T19:19:19Z</time>
      </trkpt>
      <trkpt lat="46.43469" lon="-0.17684">
        <ele>156</ele>
        <time>2020-05-30T19:19:20Z</time>
      </trkpt>
      <trkpt lat="46.43469" lon="-0.17684">
        <ele>156</ele>
        <time>2020-05-30T19:19:21Z</time>
      </trkpt>
      <trkpt lat="46.43468" lon="-0.17685">
        <ele>156</ele>
        <time>2020-05-30T19:19:22Z</time>
      </trkpt>
      <trkpt lat="46.43468" lon="-0.17685">
        <ele>156.1</ele>
        <time>2020-05-30T19:19:23Z</time>
      </trkpt>
      <trkpt lat="46.43468" lon="-0.17685">
        <ele>156.1</ele>
        <time>2020-05-30T19:19:24Z</time>
      </trkpt>
      <trkpt lat="46.43468" lon="-0.17685">
        <ele>156.1</ele>
        <time>2020-05-30T19:19:25Z</time>
      </trkpt>
      <trkpt lat="46.43469" lon="-0.17685">
        <ele>156.1</ele>
        <time>2020-05-30T19:19:26Z</time>
      </trkpt>
      <trkpt lat="46.43469" lon="-0.17685">
        <ele>156.1</ele>
        <time>2020-05-30T19:19:27Z</time>
      </trkpt>
      <trkpt lat="46.43469" lon="-0.17685">
        <ele>156.1</ele>
        <time>2020-05-30T19:19:28Z</time>
      </trkpt>
      <trkpt lat="46.43469" lon="-0.17685">
        <ele>156.1</ele>
        <time>2020-05-30T19:19:29Z</time>
      </trkpt>
      <trkpt lat="46.43469" lon="-0.17685">
        <ele>156.1</ele>
        <time>2020-05-30T19:19:30Z</time>
      </trkpt>
      <trkpt lat="46.43469" lon="-0.17685">
        <ele>156.1</ele>
        <time>2020-05-30T19:19:31Z</time>
      </trkpt>
      <trkpt lat="46.43469" lon="-0.17685">
        <ele>156.1</ele>
        <time>2020-05-30T19:19:32Z</time>
      </trkpt>
      <trkpt lat="46.43469" lon="-0.17685">
        <ele>156.1</ele>
        <time>2020-05-30T19:19:33Z</time>
      </trkpt>
      <trkpt lat="46.43469" lon="-0.17685">
        <ele>156.1</ele>
        <time>2020-05-30T19:19:34Z</time>
      </trkpt>
      <trkpt lat="46.43469" lon="-0.17685">
        <ele>156.1</ele>
        <time>2020-05-30T19:19:35Z</time>
      </trkpt>
      <trkpt lat="46.43469" lon="-0.17685">
        <ele>156.1</ele>
        <time>2020-05-30T19:19:36Z</time>
      </trkpt>
      <trkpt lat="46.43469" lon="-0.17685">
        <ele>156.1</ele>
        <time>2020-05-30T19:19:37Z</time>
      </trkpt>
      <trkpt lat="46.43469" lon="-0.17685">
        <ele>156.1</ele>
        <time>2020-05-30T19:19:38Z</time>
      </trkpt>
      <trkpt lat="46.43469" lon="-0.17685">
        <ele>156.1</ele>
        <time>2020-05-30T19:19:39Z</time>
      </trkpt>
      <trkpt lat="46.43469" lon="-0.17685">
        <ele>156.1</ele>
        <time>2020-05-30T19:19:40Z</time>
      </trkpt>
      <trkpt lat="46.43469" lon="-0.17685">
        <ele>156.1</ele>
        <time>2020-05-30T19:19:41Z</time>
      </trkpt>
      <trkpt lat="46.43469" lon="-0.17685">
        <ele>156.1</ele>
        <time>2020-05-30T19:19:42Z</time>
      </trkpt>
      <trkpt lat="46.43469" lon="-0.17685">
        <ele>156.1</ele>
        <time>2020-05-30T19:19:43Z</time>
      </trkpt>
      <trkpt lat="46.43469" lon="-0.17685">
        <ele>156.1</ele>
        <time>2020-05-30T19:19:44Z</time>
      </trkpt>
      <trkpt lat="46.43469" lon="-0.17685">
        <ele>156.1</ele>
        <time>2020-05-30T19:19:45Z</time>
      </trkpt>
      <trkpt lat="46.43469" lon="-0.17685">
        <ele>156.1</ele>
        <time>2020-05-30T19:19:46Z</time>
      </trkpt>
      <trkpt lat="46.43469" lon="-0.17685">
        <ele>156.1</ele>
        <time>2020-05-30T19:19:47Z</time>
      </trkpt>
      <trkpt lat="46.43469" lon="-0.17685">
        <ele>156.1</ele>
        <time>2020-05-30T19:19:48Z</time>
      </trkpt>
      <trkpt lat="46.43469" lon="-0.17685">
        <ele>156.1</ele>
        <time>2020-05-30T19:19:49Z</time>
      </trkpt>
      <trkpt lat="46.43469" lon="-0.17685">
        <ele>156.1</ele>
        <time>2020-05-30T19:19:50Z</time>
      </trkpt>
      <trkpt lat="46.43469" lon="-0.17685">
        <ele>156.1</ele>
        <time>2020-05-30T19:19:51Z</time>
      </trkpt>
      <trkpt lat="46.43469" lon="-0.17685">
        <ele>156.1</ele>
        <time>2020-05-30T19:19:52Z</time>
      </trkpt>
      <trkpt lat="46.43469" lon="-0.17685">
        <ele>156.1</ele>
        <time>2020-05-30T19:19:53Z</time>
      </trkpt>
      <trkpt lat="46.43469" lon="-0.17685">
        <ele>156.1</ele>
        <time>2020-05-30T19:19:54Z</time>
      </trkpt>
      <trkpt lat="46.43469" lon="-0.17685">
        <ele>156.1</ele>
        <time>2020-05-30T19:19:55Z</time>
      </trkpt>
      <trkpt lat="46.4347" lon="-0.17685">
        <ele>156.1</ele>
        <time>2020-05-30T19:19:56Z</time>
      </trkpt>
      <trkpt lat="46.4347" lon="-0.17685">
        <ele>156.1</ele>
        <time>2020-05-30T19:19:57Z</time>
      </trkpt>
      <trkpt lat="46.4347" lon="-0.17685">
        <ele>156.1</ele>
        <time>2020-05-30T19:19:58Z</time>
      </trkpt>
      <trkpt lat="46.4347" lon="-0.17686">
        <ele>156.1</ele>
        <time>2020-05-30T19:19:59Z</time>
      </trkpt>
      <trkpt lat="46.4347" lon="-0.17686">
        <ele>156.1</ele>
        <time>2020-05-30T19:20:00Z</time>
      </trkpt>
      <trkpt lat="46.4347" lon="-0.17686">
        <ele>156.1</ele>
        <time>2020-05-30T19:20:01Z</time>
      </trkpt>
      <trkpt lat="46.4347" lon="-0.17686">
        <ele>156.1</ele>
        <time>2020-05-30T19:20:02Z</time>
      </trkpt>
      <trkpt lat="46.4347" lon="-0.17686">
        <ele>156.1</ele>
        <time>2020-05-30T19:20:03Z</time>
      </trkpt>
      <trkpt lat="46.4347" lon="-0.17686">
        <ele>156.1</ele>
        <time>2020-05-30T19:20:04Z</time>
      </trkpt>
      <trkpt lat="46.4347" lon="-0.17686">
        <ele>156.1</ele>
        <time>2020-05-30T19:20:05Z</time>
      </trkpt>
      <trkpt lat="46.4347" lon="-0.17686">
        <ele>156.1</ele>
        <time>2020-05-30T19:20:06Z</time>
      </trkpt>
      <trkpt lat="46.4347" lon="-0.17685">
        <ele>156.1</ele>
        <time>2020-05-30T19:20:07Z</time>
      </trkpt>
      <trkpt lat="46.4347" lon="-0.17685">
        <ele>156.1</ele>
        <time>2020-05-30T19:20:08Z</time>
      </trkpt>
      <trkpt lat="46.43471" lon="-0.17686">
        <ele>156.1</ele>
        <time>2020-05-30T19:20:09Z</time>
      </trkpt>
      <trkpt lat="46.43471" lon="-0.17686">
        <ele>156.1</ele>
        <time>2020-05-30T19:20:10Z</time>
      </trkpt>
      <trkpt lat="46.43472" lon="-0.17689">
        <ele>156.2</ele>
        <time>2020-05-30T19:20:11Z</time>
      </trkpt>
      <trkpt lat="46.43473" lon="-0.17691">
        <ele>156.2</ele>
        <time>2020-05-30T19:20:12Z</time>
      </trkpt>
      <trkpt lat="46.43475" lon="-0.17694">
        <ele>156.3</ele>
        <time>2020-05-30T19:20:13Z</time>
      </trkpt>
      <trkpt lat="46.43475" lon="-0.17699">
        <ele>156.3</ele>
        <time>2020-05-30T19:20:14Z</time>
      </trkpt>
      <trkpt lat="46.43476" lon="-0.17704">
        <ele>156.4</ele>
        <time>2020-05-30T19:20:15Z</time>
      </trkpt>
      <trkpt lat="46.43476" lon="-0.17708">
        <ele>156.5</ele>
        <time>2020-05-30T19:20:16Z</time>
      </trkpt>
      <trkpt lat="46.43477" lon="-0.17712">
        <ele>156.5</ele>
        <time>2020-05-30T19:20:17Z</time>
      </trkpt>
      <trkpt lat="46.43479" lon="-0.17717">
        <ele>156.6</ele>
        <time>2020-05-30T19:20:18Z</time>
      </trkpt>
      <trkpt lat="46.43479" lon="-0.17718">
        <ele>156.6</ele>
        <time>2020-05-30T19:20:19Z</time>
      </trkpt>
      <trkpt lat="46.43481" lon="-0.17722">
        <ele>156.7</ele>
        <time>2020-05-30T19:20:20Z</time>
      </trkpt>
      <trkpt lat="46.43482" lon="-0.17723">
        <ele>156.7</ele>
        <time>2020-05-30T19:20:21Z</time>
      </trkpt>
      <trkpt lat="46.43484" lon="-0.17728">
        <ele>156.8</ele>
        <time>2020-05-30T19:20:22Z</time>
      </trkpt>
      <trkpt lat="46.43486" lon="-0.17733">
        <ele>156.8</ele>
        <time>2020-05-30T19:20:23Z</time>
      </trkpt>
      <trkpt lat="46.43488" lon="-0.17736">
        <ele>156.9</ele>
        <time>2020-05-30T19:20:24Z</time>
      </trkpt>
      <trkpt lat="46.4349" lon="-0.17741">
        <ele>156.9</ele>
        <time>2020-05-30T19:20:25Z</time>
      </trkpt>
      <trkpt lat="46.4349" lon="-0.17743">
        <ele>156.9</ele>
        <time>2020-05-30T19:20:26Z</time>
      </trkpt>
      <trkpt lat="46.43491" lon="-0.17746">
        <ele>157</ele>
        <time>2020-05-30T19:20:27Z</time>
      </trkpt>
      <trkpt lat="46.43493" lon="-0.17751">
        <ele>157</ele>
        <time>2020-05-30T19:20:28Z</time>
      </trkpt>
      <trkpt lat="46.43495" lon="-0.17756">
        <ele>157</ele>
        <time>2020-05-30T19:20:29Z</time>
      </trkpt>
      <trkpt lat="46.43497" lon="-0.1776">
        <ele>157.1</ele>
        <time>2020-05-30T19:20:30Z</time>
      </trkpt>
      <trkpt lat="46.43499" lon="-0.17765">
        <ele>157.1</ele>
        <time>2020-05-30T19:20:31Z</time>
      </trkpt>
      <trkpt lat="46.43502" lon="-0.1777">
        <ele>157.2</ele>
        <time>2020-05-30T19:20:32Z</time>
      </trkpt>
      <trkpt lat="46.43504" lon="-0.17774">
        <ele>157.2</ele>
        <time>2020-05-30T19:20:33Z</time>
      </trkpt>
      <trkpt lat="46.43506" lon="-0.17779">
        <ele>157.3</ele>
        <time>2020-05-30T19:20:34Z</time>
      </trkpt>
      <trkpt lat="46.43507" lon="-0.17784">
        <ele>157.3</ele>
        <time>2020-05-30T19:20:35Z</time>
      </trkpt>
      <trkpt lat="46.43508" lon="-0.17788">
        <ele>157.4</ele>
        <time>2020-05-30T19:20:36Z</time>
      </trkpt>
      <trkpt lat="46.4351" lon="-0.17793">
        <ele>157.4</ele>
        <time>2020-05-30T19:20:37Z</time>
      </trkpt>
      <trkpt lat="46.43511" lon="-0.17797">
        <ele>157.5</ele>
        <time>2020-05-30T19:20:38Z</time>
      </trkpt>
      <trkpt lat="46.43513" lon="-0.17802">
        <ele>157.5</ele>
        <time>2020-05-30T19:20:39Z</time>
      </trkpt>
      <trkpt lat="46.43515" lon="-0.17807">
        <ele>157.6</ele>
        <time>2020-05-30T19:20:40Z</time>
      </trkpt>
      <trkpt lat="46.43517" lon="-0.17812">
        <ele>157.6</ele>
        <time>2020-05-30T19:20:41Z</time>
      </trkpt>
      <trkpt lat="46.43518" lon="-0.17816">
        <ele>157.7</ele>
        <time>2020-05-30T19:20:42Z</time>
      </trkpt>
      <trkpt lat="46.43519" lon="-0.1782">
        <ele>157.7</ele>
        <time>2020-05-30T19:20:43Z</time>
      </trkpt>
      <trkpt lat="46.43521" lon="-0.17825">
        <ele>157.7</ele>
        <time>2020-05-30T19:20:44Z</time>
      </trkpt>
      <trkpt lat="46.43522" lon="-0.1783">
        <ele>157.8</ele>
        <time>2020-05-30T19:20:45Z</time>
      </trkpt>
      <trkpt lat="46.43525" lon="-0.17834">
        <ele>157.9</ele>
        <time>2020-05-30T19:20:46Z</time>
      </trkpt>
      <trkpt lat="46.43527" lon="-0.17838">
        <ele>157.9</ele>
        <time>2020-05-30T19:20:47Z</time>
      </trkpt>
      <trkpt lat="46.43529" lon="-0.17843">
        <ele>158</ele>
        <time>2020-05-30T19:20:48Z</time>
      </trkpt>
      <trkpt lat="46.43532" lon="-0.17846">
        <ele>158.1</ele>
        <time>2020-05-30T19:20:49Z</time>
      </trkpt>
      <trkpt lat="46.43532" lon="-0.1785">
        <ele>158.1</ele>
        <time>2020-05-30T19:20:50Z</time>
      </trkpt>
      <trkpt lat="46.43534" lon="-0.17856">
        <ele>158.2</ele>
        <time>2020-05-30T19:20:51Z</time>
      </trkpt>
      <trkpt lat="46.43536" lon="-0.1786">
        <ele>158.2</ele>
        <time>2020-05-30T19:20:52Z</time>
      </trkpt>
      <trkpt lat="46.43537" lon="-0.17865">
        <ele>158.3</ele>
        <time>2020-05-30T19:20:53Z</time>
      </trkpt>
      <trkpt lat="46.43538" lon="-0.1787">
        <ele>158.3</ele>
        <time>2020-05-30T19:20:54Z</time>
      </trkpt>
      <trkpt lat="46.43538" lon="-0.17875">
        <ele>158.4</ele>
        <time>2020-05-30T19:20:55Z</time>
      </trkpt>
      <trkpt lat="46.43539" lon="-0.1788">
        <ele>158.4</ele>
        <time>2020-05-30T19:20:56Z</time>
      </trkpt>
      <trkpt lat="46.4354" lon="-0.17885">
        <ele>158.5</ele>
        <time>2020-05-30T19:20:57Z</time>
      </trkpt>
      <trkpt lat="46.43541" lon="-0.1789">
        <ele>158.5</ele>
        <time>2020-05-30T19:20:58Z</time>
      </trkpt>
      <trkpt lat="46.43541" lon="-0.17895">
        <ele>158.5</ele>
        <time>2020-05-30T19:20:59Z</time>
      </trkpt>
      <trkpt lat="46.43542" lon="-0.17901">
        <ele>158.6</ele>
        <time>2020-05-30T19:21:00Z</time>
      </trkpt>
      <trkpt lat="46.43541" lon="-0.17907">
        <ele>158.6</ele>
        <time>2020-05-30T19:21:01Z</time>
      </trkpt>
      <trkpt lat="46.43541" lon="-0.17913">
        <ele>158.6</ele>
        <time>2020-05-30T19:21:02Z</time>
      </trkpt>
      <trkpt lat="46.43541" lon="-0.17919">
        <ele>158.7</ele>
        <time>2020-05-30T19:21:03Z</time>
      </trkpt>
      <trkpt lat="46.43539" lon="-0.17926">
        <ele>158.7</ele>
        <time>2020-05-30T19:21:04Z</time>
      </trkpt>
      <trkpt lat="46.43539" lon="-0.17932">
        <ele>158.7</ele>
        <time>2020-05-30T19:21:05Z</time>
      </trkpt>
      <trkpt lat="46.43539" lon="-0.17938">
        <ele>158.7</ele>
        <time>2020-05-30T19:21:06Z</time>
      </trkpt>
      <trkpt lat="46.43541" lon="-0.17943">
        <ele>158.7</ele>
        <time>2020-05-30T19:21:07Z</time>
      </trkpt>
      <trkpt lat="46.43541" lon="-0.17948">
        <ele>158.7</ele>
        <time>2020-05-30T19:21:08Z</time>
      </trkpt>
      <trkpt lat="46.43542" lon="-0.17953">
        <ele>158.7</ele>
        <time>2020-05-30T19:21:09Z</time>
      </trkpt>
      <trkpt lat="46.43543" lon="-0.17959">
        <ele>158.7</ele>
        <time>2020-05-30T19:21:10Z</time>
      </trkpt>
      <trkpt lat="46.43543" lon="-0.17965">
        <ele>158.7</ele>
        <time>2020-05-30T19:21:11Z</time>
      </trkpt>
      <trkpt lat="46.43543" lon="-0.17971">
        <ele>158.7</ele>
        <time>2020-05-30T19:21:12Z</time>
      </trkpt>
      <trkpt lat="46.43544" lon="-0.17978">
        <ele>158.6</ele>
        <time>2020-05-30T19:21:13Z</time>
      </trkpt>
      <trkpt lat="46.43544" lon="-0.17984">
        <ele>158.6</ele>
        <time>2020-05-30T19:21:14Z</time>
      </trkpt>
      <trkpt lat="46.43543" lon="-0.17992">
        <ele>158.6</ele>
        <time>2020-05-30T19:21:15Z</time>
      </trkpt>
      <trkpt lat="46.43545" lon="-0.17999">
        <ele>158.5</ele>
        <time>2020-05-30T19:21:16Z</time>
      </trkpt>
      <trkpt lat="46.43545" lon="-0.18008">
        <ele>158.5</ele>
        <time>2020-05-30T19:21:17Z</time>
      </trkpt>
      <trkpt lat="46.43546" lon="-0.18013">
        <ele>158.4</ele>
        <time>2020-05-30T19:21:18Z</time>
      </trkpt>
      <trkpt lat="46.43547" lon="-0.18018">
        <ele>158.4</ele>
        <time>2020-05-30T19:21:19Z</time>
      </trkpt>
      <trkpt lat="46.43547" lon="-0.18025">
        <ele>158.4</ele>
        <time>2020-05-30T19:21:20Z</time>
      </trkpt>
      <trkpt lat="46.43547" lon="-0.18031">
        <ele>158.4</ele>
        <time>2020-05-30T19:21:21Z</time>
      </trkpt>
      <trkpt lat="46.43549" lon="-0.18035">
        <ele>158.4</ele>
        <time>2020-05-30T19:21:22Z</time>
      </trkpt>
      <trkpt lat="46.43551" lon="-0.1804">
        <ele>158.3</ele>
        <time>2020-05-30T19:21:23Z</time>
      </trkpt>
      <trkpt lat="46.43552" lon="-0.18046">
        <ele>158.3</ele>
        <time>2020-05-30T19:21:24Z</time>
      </trkpt>
      <trkpt lat="46.43553" lon="-0.18052">
        <ele>158.2</ele>
        <time>2020-05-30T19:21:25Z</time>
      </trkpt>
      <trkpt lat="46.43555" lon="-0.18057">
        <ele>158.2</ele>
        <time>2020-05-30T19:21:26Z</time>
      </trkpt>
      <trkpt lat="46.43555" lon="-0.18063">
        <ele>158.1</ele>
        <time>2020-05-30T19:21:27Z</time>
      </trkpt>
      <trkpt lat="46.43556" lon="-0.18069">
        <ele>158</ele>
        <time>2020-05-30T19:21:28Z</time>
      </trkpt>
      <trkpt lat="46.43557" lon="-0.18075">
        <ele>157.9</ele>
        <time>2020-05-30T19:21:29Z</time>
      </trkpt>
      <trkpt lat="46.43558" lon="-0.18081">
        <ele>157.9</ele>
        <time>2020-05-30T19:21:30Z</time>
      </trkpt>
      <trkpt lat="46.43559" lon="-0.18088">
        <ele>157.8</ele>
        <time>2020-05-30T19:21:31Z</time>
      </trkpt>
      <trkpt lat="46.4356" lon="-0.18095">
        <ele>157.7</ele>
        <time>2020-05-30T19:21:32Z</time>
      </trkpt>
      <trkpt lat="46.4356" lon="-0.18102">
        <ele>157.6</ele>
        <time>2020-05-30T19:21:33Z</time>
      </trkpt>
      <trkpt lat="46.43559" lon="-0.18109">
        <ele>157.5</ele>
        <time>2020-05-30T19:21:34Z</time>
      </trkpt>
      <trkpt lat="46.43559" lon="-0.18116">
        <ele>157.4</ele>
        <time>2020-05-30T19:21:35Z</time>
      </trkpt>
      <trkpt lat="46.43557" lon="-0.18124">
        <ele>157.2</ele>
        <time>2020-05-30T19:21:36Z</time>
      </trkpt>
      <trkpt lat="46.43556" lon="-0.18132">
        <ele>157.1</ele>
        <time>2020-05-30T19:21:37Z</time>
      </trkpt>
      <trkpt lat="46.43553" lon="-0.18139">
        <ele>156.9</ele>
        <time>2020-05-30T19:21:38Z</time>
      </trkpt>
      <trkpt lat="46.4355" lon="-0.18146">
        <ele>156.6</ele>
        <time>2020-05-30T19:21:39Z</time>
      </trkpt>
      <trkpt lat="46.43544" lon="-0.18151">
        <ele>156.3</ele>
        <time>2020-05-30T19:21:40Z</time>
      </trkpt>
      <trkpt lat="46.43539" lon="-0.18158">
        <ele>155.9</ele>
        <time>2020-05-30T19:21:41Z</time>
      </trkpt>
      <trkpt lat="46.43532" lon="-0.18165">
        <ele>155.4</ele>
        <time>2020-05-30T19:21:42Z</time>
      </trkpt>
      <trkpt lat="46.43525" lon="-0.1817">
        <ele>155</ele>
        <time>2020-05-30T19:21:43Z</time>
      </trkpt>
      <trkpt lat="46.43519" lon="-0.18174">
        <ele>154.6</ele>
        <time>2020-05-30T19:21:44Z</time>
      </trkpt>
      <trkpt lat="46.43512" lon="-0.18179">
        <ele>154.2</ele>
        <time>2020-05-30T19:21:45Z</time>
      </trkpt>
      <trkpt lat="46.43507" lon="-0.18186">
        <ele>153.8</ele>
        <time>2020-05-30T19:21:46Z</time>
      </trkpt>
      <trkpt lat="46.43503" lon="-0.18196">
        <ele>153.4</ele>
        <time>2020-05-30T19:21:47Z</time>
      </trkpt>
      <trkpt lat="46.43501" lon="-0.18205">
        <ele>153.1</ele>
        <time>2020-05-30T19:21:48Z</time>
      </trkpt>
      <trkpt lat="46.43499" lon="-0.18216">
        <ele>152.7</ele>
        <time>2020-05-30T19:21:49Z</time>
      </trkpt>
      <trkpt lat="46.43499" lon="-0.18226">
        <ele>152.3</ele>
        <time>2020-05-30T19:21:50Z</time>
      </trkpt>
      <trkpt lat="46.43499" lon="-0.18234">
        <ele>151.9</ele>
        <time>2020-05-30T19:21:51Z</time>
      </trkpt>
      <trkpt lat="46.435" lon="-0.18244">
        <ele>151.5</ele>
        <time>2020-05-30T19:21:52Z</time>
      </trkpt>
      <trkpt lat="46.435" lon="-0.18254">
        <ele>151</ele>
        <time>2020-05-30T19:21:53Z</time>
      </trkpt>
      <trkpt lat="46.43501" lon="-0.18264">
        <ele>150.5</ele>
        <time>2020-05-30T19:21:54Z</time>
      </trkpt>
      <trkpt lat="46.43501" lon="-0.18272">
        <ele>150.2</ele>
        <time>2020-05-30T19:21:55Z</time>
      </trkpt>
      <trkpt lat="46.43501" lon="-0.1828">
        <ele>149.8</ele>
        <time>2020-05-30T19:21:56Z</time>
      </trkpt>
      <trkpt lat="46.43503" lon="-0.18287">
        <ele>149.5</ele>
        <time>2020-05-30T19:21:57Z</time>
      </trkpt>
      <trkpt lat="46.43503" lon="-0.18294">
        <ele>149.2</ele>
        <time>2020-05-30T19:21:58Z</time>
      </trkpt>
      <trkpt lat="46.43504" lon="-0.18301">
        <ele>148.9</ele>
        <time>2020-05-30T19:21:59Z</time>
      </trkpt>
      <trkpt lat="46.43504" lon="-0.18308">
        <ele>148.6</ele>
        <time>2020-05-30T19:22:00Z</time>
      </trkpt>
      <trkpt lat="46.43505" lon="-0.18315">
        <ele>148.3</ele>
        <time>2020-05-30T19:22:01Z</time>
      </trkpt>
      <trkpt lat="46.43507" lon="-0.18322">
        <ele>148.1</ele>
        <time>2020-05-30T19:22:02Z</time>
      </trkpt>
      <trkpt lat="46.43509" lon="-0.18327">
        <ele>147.8</ele>
        <time>2020-05-30T19:22:03Z</time>
      </trkpt>
      <trkpt lat="46.43511" lon="-0.18333">
        <ele>147.6</ele>
        <time>2020-05-30T19:22:04Z</time>
      </trkpt>
      <trkpt lat="46.43511" lon="-0.18339">
        <ele>147.5</ele>
        <time>2020-05-30T19:22:05Z</time>
      </trkpt>
      <trkpt lat="46.43511" lon="-0.18345">
        <ele>147.3</ele>
        <time>2020-05-30T19:22:06Z</time>
      </trkpt>
      <trkpt lat="46.43512" lon="-0.18353">
        <ele>147</ele>
        <time>2020-05-30T19:22:07Z</time>
      </trkpt>
      <trkpt lat="46.43513" lon="-0.1836">
        <ele>146.8</ele>
        <time>2020-05-30T19:22:08Z</time>
      </trkpt>
      <trkpt lat="46.43515" lon="-0.18369">
        <ele>146.7</ele>
        <time>2020-05-30T19:22:09Z</time>
      </trkpt>
      <trkpt lat="46.43518" lon="-0.18377">
        <ele>146.5</ele>
        <time>2020-05-30T19:22:10Z</time>
      </trkpt>
      <trkpt lat="46.43522" lon="-0.18386">
        <ele>145.9</ele>
        <time>2020-05-30T19:22:11Z</time>
      </trkpt>
      <trkpt lat="46.43526" lon="-0.18394">
        <ele>145.4</ele>
        <time>2020-05-30T19:22:12Z</time>
      </trkpt>
      <trkpt lat="46.43529" lon="-0.18402">
        <ele>144.9</ele>
        <time>2020-05-30T19:22:13Z</time>
      </trkpt>
      <trkpt lat="46.43533" lon="-0.18411">
        <ele>144.3</ele>
        <time>2020-05-30T19:22:14Z</time>
      </trkpt>
      <trkpt lat="46.43537" lon="-0.1842">
        <ele>143.7</ele>
        <time>2020-05-30T19:22:15Z</time>
      </trkpt>
      <trkpt lat="46.4354" lon="-0.18429">
        <ele>143.1</ele>
        <time>2020-05-30T19:22:16Z</time>
      </trkpt>
      <trkpt lat="46.43544" lon="-0.18439">
        <ele>142.5</ele>
        <time>2020-05-30T19:22:17Z</time>
      </trkpt>
      <trkpt lat="46.43548" lon="-0.18449">
        <ele>141.9</ele>
        <time>2020-05-30T19:22:18Z</time>
      </trkpt>
      <trkpt lat="46.43551" lon="-0.18459">
        <ele>141.3</ele>
        <time>2020-05-30T19:22:19Z</time>
      </trkpt>
      <trkpt lat="46.43555" lon="-0.1847">
        <ele>140.7</ele>
        <time>2020-05-30T19:22:20Z</time>
      </trkpt>
      <trkpt lat="46.43559" lon="-0.1848">
        <ele>140.1</ele>
        <time>2020-05-30T19:22:21Z</time>
      </trkpt>
      <trkpt lat="46.43563" lon="-0.1849">
        <ele>139.5</ele>
        <time>2020-05-30T19:22:22Z</time>
      </trkpt>
      <trkpt lat="46.43566" lon="-0.185">
        <ele>138.8</ele>
        <time>2020-05-30T19:22:23Z</time>
      </trkpt>
      <trkpt lat="46.43569" lon="-0.18509">
        <ele>138.2</ele>
        <time>2020-05-30T19:22:24Z</time>
      </trkpt>
      <trkpt lat="46.43573" lon="-0.18517">
        <ele>137.6</ele>
        <time>2020-05-30T19:22:25Z</time>
      </trkpt>
      <trkpt lat="46.43575" lon="-0.18524">
        <ele>137.1</ele>
        <time>2020-05-30T19:22:26Z</time>
      </trkpt>
      <trkpt lat="46.43577" lon="-0.18532">
        <ele>136.6</ele>
        <time>2020-05-30T19:22:27Z</time>
      </trkpt>
      <trkpt lat="46.4358" lon="-0.18539">
        <ele>136.2</ele>
        <time>2020-05-30T19:22:28Z</time>
      </trkpt>
      <trkpt lat="46.43581" lon="-0.18546">
        <ele>135.8</ele>
        <time>2020-05-30T19:22:29Z</time>
      </trkpt>
      <trkpt lat="46.43584" lon="-0.18553">
        <ele>135.4</ele>
        <time>2020-05-30T19:22:30Z</time>
      </trkpt>
      <trkpt lat="46.43586" lon="-0.18559">
        <ele>135.4</ele>
        <time>2020-05-30T19:22:31Z</time>
      </trkpt>
      <trkpt lat="46.43588" lon="-0.18565">
        <ele>135.3</ele>
        <time>2020-05-30T19:22:32Z</time>
      </trkpt>
      <trkpt lat="46.43589" lon="-0.18571">
        <ele>134.5</ele>
        <time>2020-05-30T19:22:33Z</time>
      </trkpt>
      <trkpt lat="46.43591" lon="-0.18576">
        <ele>133.8</ele>
        <time>2020-05-30T19:22:34Z</time>
      </trkpt>
      <trkpt lat="46.43591" lon="-0.1858">
        <ele>133.2</ele>
        <time>2020-05-30T19:22:35Z</time>
      </trkpt>
      <trkpt lat="46.43593" lon="-0.18582">
        <ele>132.7</ele>
        <time>2020-05-30T19:22:36Z</time>
      </trkpt>
      <trkpt lat="46.43592" lon="-0.18585">
        <ele>132.3</ele>
        <time>2020-05-30T19:22:37Z</time>
      </trkpt>
      <trkpt lat="46.43592" lon="-0.18587">
        <ele>132</ele>
        <time>2020-05-30T19:22:38Z</time>
      </trkpt>
      <trkpt lat="46.43593" lon="-0.18589">
        <ele>131.7</ele>
        <time>2020-05-30T19:22:39Z</time>
      </trkpt>
      <trkpt lat="46.43592" lon="-0.18594">
        <ele>130.8</ele>
        <time>2020-05-30T19:22:40Z</time>
      </trkpt>
      <trkpt lat="46.43591" lon="-0.18596">
        <ele>130.8</ele>
        <time>2020-05-30T19:22:41Z</time>
      </trkpt>
      <trkpt lat="46.43588" lon="-0.18598">
        <ele>130.7</ele>
        <time>2020-05-30T19:22:42Z</time>
      </trkpt>
      <trkpt lat="46.43585" lon="-0.18599">
        <ele>130.6</ele>
        <time>2020-05-30T19:22:43Z</time>
      </trkpt>
      <trkpt lat="46.43581" lon="-0.18602">
        <ele>130.4</ele>
        <time>2020-05-30T19:22:44Z</time>
      </trkpt>
      <trkpt lat="46.43576" lon="-0.18603">
        <ele>130.1</ele>
        <time>2020-05-30T19:22:45Z</time>
      </trkpt>
      <trkpt lat="46.43571" lon="-0.18603">
        <ele>129.7</ele>
        <time>2020-05-30T19:22:46Z</time>
      </trkpt>
      <trkpt lat="46.43566" lon="-0.18605">
        <ele>129.3</ele>
        <time>2020-05-30T19:22:47Z</time>
      </trkpt>
      <trkpt lat="46.4356" lon="-0.18607">
        <ele>128.9</ele>
        <time>2020-05-30T19:22:48Z</time>
      </trkpt>
      <trkpt lat="46.43553" lon="-0.1861">
        <ele>128.4</ele>
        <time>2020-05-30T19:22:49Z</time>
      </trkpt>
      <trkpt lat="46.43545" lon="-0.18613">
        <ele>127.8</ele>
        <time>2020-05-30T19:22:50Z</time>
      </trkpt>
      <trkpt lat="46.43537" lon="-0.18617">
        <ele>127.3</ele>
        <time>2020-05-30T19:22:51Z</time>
      </trkpt>
      <trkpt lat="46.43528" lon="-0.18619">
        <ele>126.7</ele>
        <time>2020-05-30T19:22:52Z</time>
      </trkpt>
      <trkpt lat="46.43519" lon="-0.18622">
        <ele>126.2</ele>
        <time>2020-05-30T19:22:53Z</time>
      </trkpt>
      <trkpt lat="46.4351" lon="-0.18627">
        <ele>125.8</ele>
        <time>2020-05-30T19:22:54Z</time>
      </trkpt>
      <trkpt lat="46.43502" lon="-0.18633">
        <ele>125.5</ele>
        <time>2020-05-30T19:22:55Z</time>
      </trkpt>
      <trkpt lat="46.43493" lon="-0.18636">
        <ele>125.3</ele>
        <time>2020-05-30T19:22:56Z</time>
      </trkpt>
      <trkpt lat="46.43485" lon="-0.18637">
        <ele>125</ele>
        <time>2020-05-30T19:22:57Z</time>
      </trkpt>
      <trkpt lat="46.43476" lon="-0.18639">
        <ele>124.8</ele>
        <time>2020-05-30T19:22:58Z</time>
      </trkpt>
      <trkpt lat="46.43467" lon="-0.18641">
        <ele>124.7</ele>
        <time>2020-05-30T19:22:59Z</time>
      </trkpt>
      <trkpt lat="46.43458" lon="-0.18641">
        <ele>124.6</ele>
        <time>2020-05-30T19:23:00Z</time>
      </trkpt>
      <trkpt lat="46.43449" lon="-0.18642">
        <ele>124.5</ele>
        <time>2020-05-30T19:23:01Z</time>
      </trkpt>
      <trkpt lat="46.4344" lon="-0.18642">
        <ele>124.4</ele>
        <time>2020-05-30T19:23:02Z</time>
      </trkpt>
      <trkpt lat="46.43431" lon="-0.18645">
        <ele>124.4</ele>
        <time>2020-05-30T19:23:03Z</time>
      </trkpt>
      <trkpt lat="46.43422" lon="-0.18646">
        <ele>124.4</ele>
        <time>2020-05-30T19:23:04Z</time>
      </trkpt>
      <trkpt lat="46.43414" lon="-0.18645">
        <ele>124.5</ele>
        <time>2020-05-30T19:23:05Z</time>
      </trkpt>
      <trkpt lat="46.43406" lon="-0.18645">
        <ele>124.6</ele>
        <time>2020-05-30T19:23:06Z</time>
      </trkpt>
      <trkpt lat="46.43398" lon="-0.18645">
        <ele>124.8</ele>
        <time>2020-05-30T19:23:07Z</time>
      </trkpt>
      <trkpt lat="46.4339" lon="-0.18645">
        <ele>125</ele>
        <time>2020-05-30T19:23:08Z</time>
      </trkpt>
      <trkpt lat="46.43382" lon="-0.18645">
        <ele>125.2</ele>
        <time>2020-05-30T19:23:09Z</time>
      </trkpt>
      <trkpt lat="46.43375" lon="-0.18646">
        <ele>125.3</ele>
        <time>2020-05-30T19:23:10Z</time>
      </trkpt>
      <trkpt lat="46.43368" lon="-0.18648">
        <ele>125.5</ele>
        <time>2020-05-30T19:23:11Z</time>
      </trkpt>
      <trkpt lat="46.43362" lon="-0.18648">
        <ele>125.7</ele>
        <time>2020-05-30T19:23:12Z</time>
      </trkpt>
      <trkpt lat="46.43356" lon="-0.1865">
        <ele>125.8</ele>
        <time>2020-05-30T19:23:13Z</time>
      </trkpt>
      <trkpt lat="46.43351" lon="-0.18652">
        <ele>126</ele>
        <time>2020-05-30T19:23:14Z</time>
      </trkpt>
      <trkpt lat="46.43345" lon="-0.18655">
        <ele>126.2</ele>
        <time>2020-05-30T19:23:15Z</time>
      </trkpt>
      <trkpt lat="46.4334" lon="-0.18658">
        <ele>126.3</ele>
        <time>2020-05-30T19:23:16Z</time>
      </trkpt>
      <trkpt lat="46.43335" lon="-0.18661">
        <ele>126.5</ele>
        <time>2020-05-30T19:23:17Z</time>
      </trkpt>
      <trkpt lat="46.43329" lon="-0.18664">
        <ele>126.6</ele>
        <time>2020-05-30T19:23:18Z</time>
      </trkpt>
      <trkpt lat="46.43324" lon="-0.18667">
        <ele>126.7</ele>
        <time>2020-05-30T19:23:19Z</time>
      </trkpt>
      <trkpt lat="46.43319" lon="-0.1867">
        <ele>126.8</ele>
        <time>2020-05-30T19:23:20Z</time>
      </trkpt>
      <trkpt lat="46.43315" lon="-0.18671">
        <ele>126.9</ele>
        <time>2020-05-30T19:23:21Z</time>
      </trkpt>
      <trkpt lat="46.4331" lon="-0.18673">
        <ele>127</ele>
        <time>2020-05-30T19:23:22Z</time>
      </trkpt>
      <trkpt lat="46.43306" lon="-0.18677">
        <ele>127.1</ele>
        <time>2020-05-30T19:23:23Z</time>
      </trkpt>
      <trkpt lat="46.43302" lon="-0.18679">
        <ele>127.2</ele>
        <time>2020-05-30T19:23:24Z</time>
      </trkpt>
      <trkpt lat="46.43298" lon="-0.18682">
        <ele>127.2</ele>
        <time>2020-05-30T19:23:25Z</time>
      </trkpt>
      <trkpt lat="46.43294" lon="-0.18685">
        <ele>127.3</ele>
        <time>2020-05-30T19:23:26Z</time>
      </trkpt>
      <trkpt lat="46.4329" lon="-0.18686">
        <ele>127.4</ele>
        <time>2020-05-30T19:23:27Z</time>
      </trkpt>
      <trkpt lat="46.43286" lon="-0.18692">
        <ele>127.4</ele>
        <time>2020-05-30T19:23:28Z</time>
      </trkpt>
      <trkpt lat="46.43282" lon="-0.18695">
        <ele>127.4</ele>
        <time>2020-05-30T19:23:29Z</time>
      </trkpt>
      <trkpt lat="46.43278" lon="-0.18699">
        <ele>127.4</ele>
        <time>2020-05-30T19:23:30Z</time>
      </trkpt>
      <trkpt lat="46.43274" lon="-0.187">
        <ele>127.4</ele>
        <time>2020-05-30T19:23:31Z</time>
      </trkpt>
      <trkpt lat="46.4327" lon="-0.18702">
        <ele>127.4</ele>
        <time>2020-05-30T19:23:32Z</time>
      </trkpt>
      <trkpt lat="46.43265" lon="-0.18702">
        <ele>127.4</ele>
        <time>2020-05-30T19:23:33Z</time>
      </trkpt>
      <trkpt lat="46.4326" lon="-0.18703">
        <ele>127.4</ele>
        <time>2020-05-30T19:23:34Z</time>
      </trkpt>
      <trkpt lat="46.43256" lon="-0.18705">
        <ele>127.4</ele>
        <time>2020-05-30T19:23:35Z</time>
      </trkpt>
      <trkpt lat="46.43251" lon="-0.18708">
        <ele>127.4</ele>
        <time>2020-05-30T19:23:36Z</time>
      </trkpt>
      <trkpt lat="46.43247" lon="-0.18711">
        <ele>127.3</ele>
        <time>2020-05-30T19:23:37Z</time>
      </trkpt>
      <trkpt lat="46.43242" lon="-0.18713">
        <ele>127.3</ele>
        <time>2020-05-30T19:23:38Z</time>
      </trkpt>
      <trkpt lat="46.43237" lon="-0.18714">
        <ele>127.3</ele>
        <time>2020-05-30T19:23:39Z</time>
      </trkpt>
      <trkpt lat="46.43233" lon="-0.18719">
        <ele>127.3</ele>
        <time>2020-05-30T19:23:40Z</time>
      </trkpt>
      <trkpt lat="46.43228" lon="-0.18722">
        <ele>127.3</ele>
        <time>2020-05-30T19:23:41Z</time>
      </trkpt>
      <trkpt lat="46.43223" lon="-0.18724">
        <ele>127.3</ele>
        <time>2020-05-30T19:23:42Z</time>
      </trkpt>
      <trkpt lat="46.43218" lon="-0.18725">
        <ele>127.3</ele>
        <time>2020-05-30T19:23:43Z</time>
      </trkpt>
      <trkpt lat="46.43212" lon="-0.18726">
        <ele>127.3</ele>
        <time>2020-05-30T19:23:44Z</time>
      </trkpt>
      <trkpt lat="46.43207" lon="-0.18725">
        <ele>127.2</ele>
        <time>2020-05-30T19:23:45Z</time>
      </trkpt>
      <trkpt lat="46.43203" lon="-0.18722">
        <ele>127.2</ele>
        <time>2020-05-30T19:23:46Z</time>
      </trkpt>
      <trkpt lat="46.43199" lon="-0.18719">
        <ele>127.1</ele>
        <time>2020-05-30T19:23:47Z</time>
      </trkpt>
      <trkpt lat="46.43196" lon="-0.18716">
        <ele>127</ele>
        <time>2020-05-30T19:23:48Z</time>
      </trkpt>
      <trkpt lat="46.43193" lon="-0.18712">
        <ele>126.9</ele>
        <time>2020-05-30T19:23:49Z</time>
      </trkpt>
      <trkpt lat="46.4319" lon="-0.18707">
        <ele>126.9</ele>
        <time>2020-05-30T19:23:50Z</time>
      </trkpt>
      <trkpt lat="46.43187" lon="-0.18703">
        <ele>126.8</ele>
        <time>2020-05-30T19:23:51Z</time>
      </trkpt>
      <trkpt lat="46.43183" lon="-0.187">
        <ele>126.7</ele>
        <time>2020-05-30T19:23:52Z</time>
      </trkpt>
      <trkpt lat="46.43179" lon="-0.18698">
        <ele>126.7</ele>
        <time>2020-05-30T19:23:53Z</time>
      </trkpt>
      <trkpt lat="46.43175" lon="-0.18696">
        <ele>126.6</ele>
        <time>2020-05-30T19:23:54Z</time>
      </trkpt>
      <trkpt lat="46.4317" lon="-0.18694">
        <ele>126.5</ele>
        <time>2020-05-30T19:23:55Z</time>
      </trkpt>
      <trkpt lat="46.43166" lon="-0.18691">
        <ele>126.4</ele>
        <time>2020-05-30T19:23:56Z</time>
      </trkpt>
      <trkpt lat="46.43162" lon="-0.18687">
        <ele>126.3</ele>
        <time>2020-05-30T19:23:57Z</time>
      </trkpt>
      <trkpt lat="46.43157" lon="-0.18685">
        <ele>126.2</ele>
        <time>2020-05-30T19:23:58Z</time>
      </trkpt>
      <trkpt lat="46.43154" lon="-0.18682">
        <ele>126.1</ele>
        <time>2020-05-30T19:23:59Z</time>
      </trkpt>
      <trkpt lat="46.43151" lon="-0.18677">
        <ele>126</ele>
        <time>2020-05-30T19:24:00Z</time>
      </trkpt>
      <trkpt lat="46.43148" lon="-0.18675">
        <ele>126</ele>
        <time>2020-05-30T19:24:01Z</time>
      </trkpt>
      <trkpt lat="46.43144" lon="-0.18674">
        <ele>125.9</ele>
        <time>2020-05-30T19:24:02Z</time>
      </trkpt>
      <trkpt lat="46.43141" lon="-0.18671">
        <ele>125.8</ele>
        <time>2020-05-30T19:24:03Z</time>
      </trkpt>
      <trkpt lat="46.43137" lon="-0.18668">
        <ele>125.7</ele>
        <time>2020-05-30T19:24:04Z</time>
      </trkpt>
      <trkpt lat="46.43133" lon="-0.18666">
        <ele>125.6</ele>
        <time>2020-05-30T19:24:05Z</time>
      </trkpt>
      <trkpt lat="46.43129" lon="-0.18662">
        <ele>125.5</ele>
        <time>2020-05-30T19:24:06Z</time>
      </trkpt>
      <trkpt lat="46.43125" lon="-0.18659">
        <ele>125.3</ele>
        <time>2020-05-30T19:24:07Z</time>
      </trkpt>
      <trkpt lat="46.43121" lon="-0.18657">
        <ele>125.2</ele>
        <time>2020-05-30T19:24:08Z</time>
      </trkpt>
      <trkpt lat="46.43117" lon="-0.18656">
        <ele>125.1</ele>
        <time>2020-05-30T19:24:09Z</time>
      </trkpt>
      <trkpt lat="46.43113" lon="-0.18654">
        <ele>125</ele>
        <time>2020-05-30T19:24:10Z</time>
      </trkpt>
      <trkpt lat="46.4311" lon="-0.18652">
        <ele>124.9</ele>
        <time>2020-05-30T19:24:11Z</time>
      </trkpt>
      <trkpt lat="46.43107" lon="-0.18649">
        <ele>124.8</ele>
        <time>2020-05-30T19:24:12Z</time>
      </trkpt>
      <trkpt lat="46.43103" lon="-0.18649">
        <ele>124.7</ele>
        <time>2020-05-30T19:24:13Z</time>
      </trkpt>
      <trkpt lat="46.43099" lon="-0.18646">
        <ele>124.6</ele>
        <time>2020-05-30T19:24:14Z</time>
      </trkpt>
      <trkpt lat="46.43096" lon="-0.18645">
        <ele>124.5</ele>
        <time>2020-05-30T19:24:15Z</time>
      </trkpt>
      <trkpt lat="46.43093" lon="-0.18642">
        <ele>124.4</ele>
        <time>2020-05-30T19:24:16Z</time>
      </trkpt>
      <trkpt lat="46.4309" lon="-0.1864">
        <ele>124.3</ele>
        <time>2020-05-30T19:24:17Z</time>
      </trkpt>
      <trkpt lat="46.43087" lon="-0.18639">
        <ele>124.3</ele>
        <time>2020-05-30T19:24:18Z</time>
      </trkpt>
      <trkpt lat="46.43084" lon="-0.18636">
        <ele>124.2</ele>
        <time>2020-05-30T19:24:19Z</time>
      </trkpt>
      <trkpt lat="46.43081" lon="-0.18632">
        <ele>124.2</ele>
        <time>2020-05-30T19:24:20Z</time>
      </trkpt>
      <trkpt lat="46.43078" lon="-0.18631">
        <ele>124.1</ele>
        <time>2020-05-30T19:24:21Z</time>
      </trkpt>
      <trkpt lat="46.43074" lon="-0.1863">
        <ele>124.1</ele>
        <time>2020-05-30T19:24:22Z</time>
      </trkpt>
      <trkpt lat="46.43071" lon="-0.18629">
        <ele>124</ele>
        <time>2020-05-30T19:24:23Z</time>
      </trkpt>
      <trkpt lat="46.43068" lon="-0.18629">
        <ele>124</ele>
        <time>2020-05-30T19:24:24Z</time>
      </trkpt>
      <trkpt lat="46.43064" lon="-0.1863">
        <ele>123.9</ele>
        <time>2020-05-30T19:24:25Z</time>
      </trkpt>
      <trkpt lat="46.4306" lon="-0.18629">
        <ele>123.9</ele>
        <time>2020-05-30T19:24:26Z</time>
      </trkpt>
      <trkpt lat="46.43056" lon="-0.18629">
        <ele>123.9</ele>
        <time>2020-05-30T19:24:27Z</time>
      </trkpt>
      <trkpt lat="46.43052" lon="-0.18629">
        <ele>123.9</ele>
        <time>2020-05-30T19:24:28Z</time>
      </trkpt>
      <trkpt lat="46.43049" lon="-0.18629">
        <ele>123.8</ele>
        <time>2020-05-30T19:24:29Z</time>
      </trkpt>
      <trkpt lat="46.43046" lon="-0.18628">
        <ele>123.8</ele>
        <time>2020-05-30T19:24:30Z</time>
      </trkpt>
      <trkpt lat="46.43043" lon="-0.18628">
        <ele>123.8</ele>
        <time>2020-05-30T19:24:31Z</time>
      </trkpt>
      <trkpt lat="46.4304" lon="-0.18626">
        <ele>123.8</ele>
        <time>2020-05-30T19:24:32Z</time>
      </trkpt>
      <trkpt lat="46.43037" lon="-0.18624">
        <ele>123.7</ele>
        <time>2020-05-30T19:24:33Z</time>
      </trkpt>
      <trkpt lat="46.43034" lon="-0.18623">
        <ele>123.7</ele>
        <time>2020-05-30T19:24:34Z</time>
      </trkpt>
      <trkpt lat="46.4303" lon="-0.18622">
        <ele>123.6</ele>
        <time>2020-05-30T19:24:35Z</time>
      </trkpt>
      <trkpt lat="46.43026" lon="-0.1862">
        <ele>123.6</ele>
        <time>2020-05-30T19:24:36Z</time>
      </trkpt>
      <trkpt lat="46.43022" lon="-0.18619">
        <ele>123.6</ele>
        <time>2020-05-30T19:24:37Z</time>
      </trkpt>
      <trkpt lat="46.43018" lon="-0.1862">
        <ele>123.5</ele>
        <time>2020-05-30T19:24:38Z</time>
      </trkpt>
      <trkpt lat="46.43014" lon="-0.18619">
        <ele>123.5</ele>
        <time>2020-05-30T19:24:39Z</time>
      </trkpt>
      <trkpt lat="46.4301" lon="-0.18616">
        <ele>123.4</ele>
        <time>2020-05-30T19:24:40Z</time>
      </trkpt>
      <trkpt lat="46.43006" lon="-0.18614">
        <ele>123.4</ele>
        <time>2020-05-30T19:24:41Z</time>
      </trkpt>
      <trkpt lat="46.43003" lon="-0.18612">
        <ele>123.3</ele>
        <time>2020-05-30T19:24:42Z</time>
      </trkpt>
      <trkpt lat="46.42998" lon="-0.18612">
        <ele>123.3</ele>
        <time>2020-05-30T19:24:43Z</time>
      </trkpt>
      <trkpt lat="46.42995" lon="-0.18611">
        <ele>123.2</ele>
        <time>2020-05-30T19:24:44Z</time>
      </trkpt>
      <trkpt lat="46.42992" lon="-0.1861">
        <ele>123.1</ele>
        <time>2020-05-30T19:24:45Z</time>
      </trkpt>
      <trkpt lat="46.42989" lon="-0.18609">
        <ele>123.1</ele>
        <time>2020-05-30T19:24:46Z</time>
      </trkpt>
      <trkpt lat="46.42986" lon="-0.18607">
        <ele>123</ele>
        <time>2020-05-30T19:24:47Z</time>
      </trkpt>
      <trkpt lat="46.42983" lon="-0.18607">
        <ele>122.9</ele>
        <time>2020-05-30T19:24:48Z</time>
      </trkpt>
      <trkpt lat="46.4298" lon="-0.18606">
        <ele>122.8</ele>
        <time>2020-05-30T19:24:49Z</time>
      </trkpt>
      <trkpt lat="46.42976" lon="-0.18605">
        <ele>122.7</ele>
        <time>2020-05-30T19:24:50Z</time>
      </trkpt>
      <trkpt lat="46.42972" lon="-0.18605">
        <ele>122.6</ele>
        <time>2020-05-30T19:24:51Z</time>
      </trkpt>
      <trkpt lat="46.42969" lon="-0.18604">
        <ele>122.5</ele>
        <time>2020-05-30T19:24:52Z</time>
      </trkpt>
      <trkpt lat="46.42965" lon="-0.18602">
        <ele>122.4</ele>
        <time>2020-05-30T19:24:53Z</time>
      </trkpt>
      <trkpt lat="46.42962" lon="-0.18602">
        <ele>122.3</ele>
        <time>2020-05-30T19:24:54Z</time>
      </trkpt>
      <trkpt lat="46.42958" lon="-0.18601">
        <ele>122.1</ele>
        <time>2020-05-30T19:24:55Z</time>
      </trkpt>
      <trkpt lat="46.42953" lon="-0.186">
        <ele>122</ele>
        <time>2020-05-30T19:24:56Z</time>
      </trkpt>
      <trkpt lat="46.42949" lon="-0.18599">
        <ele>121.9</ele>
        <time>2020-05-30T19:24:57Z</time>
      </trkpt>
      <trkpt lat="46.42944" lon="-0.18598">
        <ele>121.8</ele>
        <time>2020-05-30T19:24:58Z</time>
      </trkpt>
      <trkpt lat="46.42939" lon="-0.18597">
        <ele>121.8</ele>
        <time>2020-05-30T19:24:59Z</time>
      </trkpt>
      <trkpt lat="46.42933" lon="-0.18595">
        <ele>121.8</ele>
        <time>2020-05-30T19:25:00Z</time>
      </trkpt>
      <trkpt lat="46.42928" lon="-0.18593">
        <ele>121.7</ele>
        <time>2020-05-30T19:25:01Z</time>
      </trkpt>
      <trkpt lat="46.42922" lon="-0.18589">
        <ele>121.7</ele>
        <time>2020-05-30T19:25:02Z</time>
      </trkpt>
      <trkpt lat="46.42916" lon="-0.18587">
        <ele>121.6</ele>
        <time>2020-05-30T19:25:03Z</time>
      </trkpt>
      <trkpt lat="46.42911" lon="-0.18585">
        <ele>121.6</ele>
        <time>2020-05-30T19:25:04Z</time>
      </trkpt>
      <trkpt lat="46.42905" lon="-0.18583">
        <ele>121.5</ele>
        <time>2020-05-30T19:25:05Z</time>
      </trkpt>
      <trkpt lat="46.42899" lon="-0.18587">
        <ele>121.5</ele>
        <time>2020-05-30T19:25:06Z</time>
      </trkpt>
      <trkpt lat="46.42893" lon="-0.18586">
        <ele>121.4</ele>
        <time>2020-05-30T19:25:07Z</time>
      </trkpt>
      <trkpt lat="46.42888" lon="-0.1859">
        <ele>121.4</ele>
        <time>2020-05-30T19:25:08Z</time>
      </trkpt>
      <trkpt lat="46.42882" lon="-0.18593">
        <ele>121.3</ele>
        <time>2020-05-30T19:25:09Z</time>
      </trkpt>
      <trkpt lat="46.42877" lon="-0.18594">
        <ele>121.2</ele>
        <time>2020-05-30T19:25:10Z</time>
      </trkpt>
      <trkpt lat="46.42871" lon="-0.18596">
        <ele>121.2</ele>
        <time>2020-05-30T19:25:11Z</time>
      </trkpt>
      <trkpt lat="46.42865" lon="-0.18597">
        <ele>121.1</ele>
        <time>2020-05-30T19:25:12Z</time>
      </trkpt>
      <trkpt lat="46.42863" lon="-0.18594">
        <ele>121.1</ele>
        <time>2020-05-30T19:25:13Z</time>
      </trkpt>
      <trkpt lat="46.42863" lon="-0.18589">
        <ele>121.1</ele>
        <time>2020-05-30T19:25:14Z</time>
      </trkpt>
      <trkpt lat="46.42863" lon="-0.18588">
        <ele>121</ele>
        <time>2020-05-30T19:25:15Z</time>
      </trkpt>
      <trkpt lat="46.42862" lon="-0.18588">
        <ele>121</ele>
        <time>2020-05-30T19:25:16Z</time>
      </trkpt>
      <trkpt lat="46.42862" lon="-0.18587">
        <ele>121</ele>
        <time>2020-05-30T19:25:17Z</time>
      </trkpt>
      <trkpt lat="46.42861" lon="-0.18587">
        <ele>121</ele>
        <time>2020-05-30T19:25:18Z</time>
      </trkpt>
      <trkpt lat="46.4286" lon="-0.18587">
        <ele>121</ele>
        <time>2020-05-30T19:25:19Z</time>
      </trkpt>
      <trkpt lat="46.42861" lon="-0.18586">
        <ele>121</ele>
        <time>2020-05-30T19:25:20Z</time>
      </trkpt>
      <trkpt lat="46.42861" lon="-0.18586">
        <ele>121</ele>
        <time>2020-05-30T19:25:21Z</time>
      </trkpt>
      <trkpt lat="46.42863" lon="-0.18584">
        <ele>121</ele>
        <time>2020-05-30T19:25:22Z</time>
      </trkpt>
      <trkpt lat="46.42864" lon="-0.18583">
        <ele>121</ele>
        <time>2020-05-30T19:25:23Z</time>
      </trkpt>
      <trkpt lat="46.42864" lon="-0.18583">
        <ele>121</ele>
        <time>2020-05-30T19:25:24Z</time>
      </trkpt>
      <trkpt lat="46.42864" lon="-0.18582">
        <ele>120.9</ele>
        <time>2020-05-30T19:25:25Z</time>
      </trkpt>
      <trkpt lat="46.42863" lon="-0.18582">
        <ele>120.9</ele>
        <time>2020-05-30T19:25:26Z</time>
      </trkpt>
      <trkpt lat="46.42864" lon="-0.18581">
        <ele>120.9</ele>
        <time>2020-05-30T19:25:27Z</time>
      </trkpt>
      <trkpt lat="46.42864" lon="-0.18581">
        <ele>120.9</ele>
        <time>2020-05-30T19:25:28Z</time>
      </trkpt>
      <trkpt lat="46.42865" lon="-0.1858">
        <ele>120.9</ele>
        <time>2020-05-30T19:25:29Z</time>
      </trkpt>
      <trkpt lat="46.42865" lon="-0.18579">
        <ele>120.9</ele>
        <time>2020-05-30T19:25:30Z</time>
      </trkpt>
      <trkpt lat="46.42866" lon="-0.18579">
        <ele>120.9</ele>
        <time>2020-05-30T19:25:31Z</time>
      </trkpt>
      <trkpt lat="46.42866" lon="-0.18579">
        <ele>120.9</ele>
        <time>2020-05-30T19:25:32Z</time>
      </trkpt>
      <trkpt lat="46.42866" lon="-0.18579">
        <ele>120.9</ele>
        <time>2020-05-30T19:25:33Z</time>
      </trkpt>
      <trkpt lat="46.42866" lon="-0.18579">
        <ele>120.9</ele>
        <time>2020-05-30T19:25:34Z</time>
      </trkpt>
      <trkpt lat="46.42866" lon="-0.18578">
        <ele>120.9</ele>
        <time>2020-05-30T19:25:35Z</time>
      </trkpt>
      <trkpt lat="46.42866" lon="-0.18577">
        <ele>120.9</ele>
        <time>2020-05-30T19:25:36Z</time>
      </trkpt>
      <trkpt lat="46.42866" lon="-0.18577">
        <ele>120.9</ele>
        <time>2020-05-30T19:25:37Z</time>
      </trkpt>
      <trkpt lat="46.42866" lon="-0.18577">
        <ele>120.9</ele>
        <time>2020-05-30T19:25:38Z</time>
      </trkpt>
      <trkpt lat="46.42867" lon="-0.18577">
        <ele>120.9</ele>
        <time>2020-05-30T19:25:39Z</time>
      </trkpt>
      <trkpt lat="46.42868" lon="-0.18578">
        <ele>120.8</ele>
        <time>2020-05-30T19:25:40Z</time>
      </trkpt>
      <trkpt lat="46.42868" lon="-0.18578">
        <ele>120.8</ele>
        <time>2020-05-30T19:25:41Z</time>
      </trkpt>
      <trkpt lat="46.42868" lon="-0.18578">
        <ele>120.8</ele>
        <time>2020-05-30T19:25:42Z</time>
      </trkpt>
      <trkpt lat="46.42868" lon="-0.18578">
        <ele>120.8</ele>
        <time>2020-05-30T19:25:43Z</time>
      </trkpt>
      <trkpt lat="46.42868" lon="-0.18578">
        <ele>120.8</ele>
        <time>2020-05-30T19:25:44Z</time>
      </trkpt>
      <trkpt lat="46.42868" lon="-0.18578">
        <ele>120.8</ele>
        <time>2020-05-30T19:25:45Z</time>
      </trkpt>
      <trkpt lat="46.42868" lon="-0.18578">
        <ele>120.8</ele>
        <time>2020-05-30T19:25:46Z</time>
      </trkpt>
      <trkpt lat="46.42868" lon="-0.18577">
        <ele>120.8</ele>
        <time>2020-05-30T19:25:47Z</time>
      </trkpt>
      <trkpt lat="46.42868" lon="-0.18575">
        <ele>120.8</ele>
        <time>2020-05-30T19:25:48Z</time>
      </trkpt>
      <trkpt lat="46.42868" lon="-0.18575">
        <ele>120.8</ele>
        <time>2020-05-30T19:25:49Z</time>
      </trkpt>
      <trkpt lat="46.42868" lon="-0.18575">
        <ele>120.8</ele>
        <time>2020-05-30T19:25:50Z</time>
      </trkpt>
      <trkpt lat="46.42867" lon="-0.18575">
        <ele>120.8</ele>
        <time>2020-05-30T19:25:51Z</time>
      </trkpt>
      <trkpt lat="46.42867" lon="-0.18575">
        <ele>120.8</ele>
        <time>2020-05-30T19:25:52Z</time>
      </trkpt>
      <trkpt lat="46.42867" lon="-0.18574">
        <ele>120.8</ele>
        <time>2020-05-30T19:25:53Z</time>
      </trkpt>
      <trkpt lat="46.42867" lon="-0.18574">
        <ele>120.8</ele>
        <time>2020-05-30T19:25:54Z</time>
      </trkpt>
      <trkpt lat="46.42867" lon="-0.18573">
        <ele>120.8</ele>
        <time>2020-05-30T19:25:55Z</time>
      </trkpt>
      <trkpt lat="46.42867" lon="-0.18573">
        <ele>120.8</ele>
        <time>2020-05-30T19:25:56Z</time>
      </trkpt>
      <trkpt lat="46.42867" lon="-0.18574">
        <ele>120.8</ele>
        <time>2020-05-30T19:25:57Z</time>
      </trkpt>
      <trkpt lat="46.42868" lon="-0.18572">
        <ele>120.8</ele>
        <time>2020-05-30T19:25:58Z</time>
      </trkpt>
      <trkpt lat="46.42867" lon="-0.18574">
        <ele>120.7</ele>
        <time>2020-05-30T19:25:59Z</time>
      </trkpt>
      <trkpt lat="46.42867" lon="-0.18574">
        <ele>120.7</ele>
        <time>2020-05-30T19:26:00Z</time>
      </trkpt>
      <trkpt lat="46.42867" lon="-0.18574">
        <ele>120.7</ele>
        <time>2020-05-30T19:26:01Z</time>
      </trkpt>
      <trkpt lat="46.42867" lon="-0.18574">
        <ele>120.7</ele>
        <time>2020-05-30T19:26:02Z</time>
      </trkpt>
      <trkpt lat="46.42866" lon="-0.18575">
        <ele>120.7</ele>
        <time>2020-05-30T19:26:03Z</time>
      </trkpt>
      <trkpt lat="46.42866" lon="-0.18574">
        <ele>120.7</ele>
        <time>2020-05-30T19:26:04Z</time>
      </trkpt>
      <trkpt lat="46.42867" lon="-0.18573">
        <ele>120.7</ele>
        <time>2020-05-30T19:26:05Z</time>
      </trkpt>
      <trkpt lat="46.42867" lon="-0.18573">
        <ele>120.7</ele>
        <time>2020-05-30T19:26:06Z</time>
      </trkpt>
      <trkpt lat="46.42868" lon="-0.18572">
        <ele>120.7</ele>
        <time>2020-05-30T19:26:07Z</time>
      </trkpt>
      <trkpt lat="46.42867" lon="-0.18573">
        <ele>120.7</ele>
        <time>2020-05-30T19:26:08Z</time>
      </trkpt>
      <trkpt lat="46.42867" lon="-0.18573">
        <ele>120.7</ele>
        <time>2020-05-30T19:26:09Z</time>
      </trkpt>
      <trkpt lat="46.42867" lon="-0.18573">
        <ele>120.7</ele>
        <time>2020-05-30T19:26:10Z</time>
      </trkpt>
      <trkpt lat="46.42867" lon="-0.18573">
        <ele>120.7</ele>
        <time>2020-05-30T19:26:11Z</time>
      </trkpt>
      <trkpt lat="46.42866" lon="-0.18574">
        <ele>120.6</ele>
        <time>2020-05-30T19:26:12Z</time>
      </trkpt>
      <trkpt lat="46.42866" lon="-0.18575">
        <ele>120.6</ele>
        <time>2020-05-30T19:26:13Z</time>
      </trkpt>
      <trkpt lat="46.42865" lon="-0.18576">
        <ele>120.6</ele>
        <time>2020-05-30T19:26:14Z</time>
      </trkpt>
      <trkpt lat="46.42865" lon="-0.18577">
        <ele>120.6</ele>
        <time>2020-05-30T19:26:15Z</time>
      </trkpt>
      <trkpt lat="46.42865" lon="-0.18577">
        <ele>120.6</ele>
        <time>2020-05-30T19:26:16Z</time>
      </trkpt>
      <trkpt lat="46.42865" lon="-0.18576">
        <ele>120.6</ele>
        <time>2020-05-30T19:26:17Z</time>
      </trkpt>
      <trkpt lat="46.42865" lon="-0.18576">
        <ele>120.6</ele>
        <time>2020-05-30T19:26:18Z</time>
      </trkpt>
      <trkpt lat="46.42865" lon="-0.18575">
        <ele>120.6</ele>
        <time>2020-05-30T19:26:19Z</time>
      </trkpt>
      <trkpt lat="46.42866" lon="-0.18574">
        <ele>120.6</ele>
        <time>2020-05-30T19:26:20Z</time>
      </trkpt>
      <trkpt lat="46.42866" lon="-0.18574">
        <ele>120.6</ele>
        <time>2020-05-30T19:26:21Z</time>
      </trkpt>
      <trkpt lat="46.42867" lon="-0.18572">
        <ele>120.5</ele>
        <time>2020-05-30T19:26:22Z</time>
      </trkpt>
      <trkpt lat="46.42867" lon="-0.18572">
        <ele>120.5</ele>
        <time>2020-05-30T19:26:23Z</time>
      </trkpt>
      <trkpt lat="46.42868" lon="-0.18571">
        <ele>120.5</ele>
        <time>2020-05-30T19:26:24Z</time>
      </trkpt>
      <trkpt lat="46.42867" lon="-0.18571">
        <ele>120.5</ele>
        <time>2020-05-30T19:26:25Z</time>
      </trkpt>
      <trkpt lat="46.42867" lon="-0.18573">
        <ele>120.5</ele>
        <time>2020-05-30T19:26:26Z</time>
      </trkpt>
      <trkpt lat="46.42866" lon="-0.18573">
        <ele>120.5</ele>
        <time>2020-05-30T19:26:27Z</time>
      </trkpt>
      <trkpt lat="46.42866" lon="-0.18573">
        <ele>120.5</ele>
        <time>2020-05-30T19:26:28Z</time>
      </trkpt>
      <trkpt lat="46.42866" lon="-0.18573">
        <ele>120.5</ele>
        <time>2020-05-30T19:26:29Z</time>
      </trkpt>
      <trkpt lat="46.42867" lon="-0.18573">
        <ele>120.5</ele>
        <time>2020-05-30T19:26:30Z</time>
      </trkpt>
      <trkpt lat="46.42867" lon="-0.18573">
        <ele>120.5</ele>
        <time>2020-05-30T19:26:31Z</time>
      </trkpt>
      <trkpt lat="46.42867" lon="-0.18573">
        <ele>120.5</ele>
        <time>2020-05-30T19:26:32Z</time>
      </trkpt>
      <trkpt lat="46.42867" lon="-0.18573">
        <ele>120.5</ele>
        <time>2020-05-30T19:26:33Z</time>
      </trkpt>
      <trkpt lat="46.42866" lon="-0.18574">
        <ele>120.4</ele>
        <time>2020-05-30T19:26:34Z</time>
      </trkpt>
      <trkpt lat="46.42867" lon="-0.18574">
        <ele>120.4</ele>
        <time>2020-05-30T19:26:35Z</time>
      </trkpt>
      <trkpt lat="46.42867" lon="-0.18573">
        <ele>120.4</ele>
        <time>2020-05-30T19:26:36Z</time>
      </trkpt>
      <trkpt lat="46.42867" lon="-0.18574">
        <ele>120.4</ele>
        <time>2020-05-30T19:26:37Z</time>
      </trkpt>
      <trkpt lat="46.42867" lon="-0.18573">
        <ele>120.4</ele>
        <time>2020-05-30T19:26:38Z</time>
      </trkpt>
      <trkpt lat="46.42867" lon="-0.18573">
        <ele>120.4</ele>
        <time>2020-05-30T19:26:39Z</time>
      </trkpt>
      <trkpt lat="46.42866" lon="-0.18574">
        <ele>120.4</ele>
        <time>2020-05-30T19:26:40Z</time>
      </trkpt>
      <trkpt lat="46.42866" lon="-0.18574">
        <ele>120.4</ele>
        <time>2020-05-30T19:26:41Z</time>
      </trkpt>
      <trkpt lat="46.42866" lon="-0.18574">
        <ele>120.4</ele>
        <time>2020-05-30T19:26:42Z</time>
      </trkpt>
      <trkpt lat="46.42866" lon="-0.18574">
        <ele>120.4</ele>
        <time>2020-05-30T19:26:43Z</time>
      </trkpt>
      <trkpt lat="46.42866" lon="-0.18574">
        <ele>120.4</ele>
        <time>2020-05-30T19:26:44Z</time>
      </trkpt>
      <trkpt lat="46.42866" lon="-0.18574">
        <ele>120.4</ele>
        <time>2020-05-30T19:26:45Z</time>
      </trkpt>
      <trkpt lat="46.42866" lon="-0.18574">
        <ele>120.4</ele>
        <time>2020-05-30T19:26:46Z</time>
      </trkpt>
      <trkpt lat="46.42866" lon="-0.18574">
        <ele>120.4</ele>
        <time>2020-05-30T19:26:47Z</time>
      </trkpt>
      <trkpt lat="46.42866" lon="-0.18575">
        <ele>120.4</ele>
        <time>2020-05-30T19:26:48Z</time>
      </trkpt>
      <trkpt lat="46.42865" lon="-0.18576">
        <ele>120.4</ele>
        <time>2020-05-30T19:26:49Z</time>
      </trkpt>
      <trkpt lat="46.42865" lon="-0.18576">
        <ele>120.4</ele>
        <time>2020-05-30T19:26:50Z</time>
      </trkpt>
      <trkpt lat="46.42865" lon="-0.18576">
        <ele>120.4</ele>
        <time>2020-05-30T19:26:51Z</time>
      </trkpt>
      <trkpt lat="46.42865" lon="-0.18576">
        <ele>120.4</ele>
        <time>2020-05-30T19:26:52Z</time>
      </trkpt>
      <trkpt lat="46.42865" lon="-0.18577">
        <ele>120.3</ele>
        <time>2020-05-30T19:26:53Z</time>
      </trkpt>
      <trkpt lat="46.42866" lon="-0.18573">
        <ele>120.3</ele>
        <time>2020-05-30T19:26:54Z</time>
      </trkpt>
      <trkpt lat="46.42866" lon="-0.18573">
        <ele>120.3</ele>
        <time>2020-05-30T19:26:55Z</time>
      </trkpt>
      <trkpt lat="46.42866" lon="-0.18573">
        <ele>120.3</ele>
        <time>2020-05-30T19:26:56Z</time>
      </trkpt>
      <trkpt lat="46.42866" lon="-0.18573">
        <ele>120.3</ele>
        <time>2020-05-30T19:26:57Z</time>
      </trkpt>
      <trkpt lat="46.42866" lon="-0.18573">
        <ele>120.3</ele>
        <time>2020-05-30T19:26:58Z</time>
      </trkpt>
      <trkpt lat="46.42866" lon="-0.18573">
        <ele>120.3</ele>
        <time>2020-05-30T19:26:59Z</time>
      </trkpt>
      <trkpt lat="46.42866" lon="-0.18573">
        <ele>120.3</ele>
        <time>2020-05-30T19:27:00Z</time>
      </trkpt>
      <trkpt lat="46.42866" lon="-0.18573">
        <ele>120.3</ele>
        <time>2020-05-30T19:27:01Z</time>
      </trkpt>
      <trkpt lat="46.42866" lon="-0.18573">
        <ele>120.3</ele>
        <time>2020-05-30T19:27:02Z</time>
      </trkpt>
      <trkpt lat="46.42866" lon="-0.18573">
        <ele>120.3</ele>
        <time>2020-05-30T19:27:03Z</time>
      </trkpt>
      <trkpt lat="46.42866" lon="-0.18573">
        <ele>120.3</ele>
        <time>2020-05-30T19:27:04Z</time>
      </trkpt>
      <trkpt lat="46.42866" lon="-0.18573">
        <ele>120.3</ele>
        <time>2020-05-30T19:27:05Z</time>
      </trkpt>
      <trkpt lat="46.42866" lon="-0.18573">
        <ele>120.3</ele>
        <time>2020-05-30T19:27:06Z</time>
      </trkpt>
      <trkpt lat="46.42866" lon="-0.18573">
        <ele>120.3</ele>
        <time>2020-05-30T19:27:07Z</time>
      </trkpt>
      <trkpt lat="46.42866" lon="-0.18573">
        <ele>120.3</ele>
        <time>2020-05-30T19:27:08Z</time>
      </trkpt>
      <trkpt lat="46.42866" lon="-0.18573">
        <ele>120.3</ele>
        <time>2020-05-30T19:27:09Z</time>
      </trkpt>
      <trkpt lat="46.42866" lon="-0.18573">
        <ele>120.3</ele>
        <time>2020-05-30T19:27:10Z</time>
      </trkpt>
      <trkpt lat="46.42866" lon="-0.18573">
        <ele>120.3</ele>
        <time>2020-05-30T19:27:11Z</time>
      </trkpt>
      <trkpt lat="46.42866" lon="-0.18573">
        <ele>120.3</ele>
        <time>2020-05-30T19:27:12Z</time>
      </trkpt>
      <trkpt lat="46.42866" lon="-0.18573">
        <ele>120.3</ele>
        <time>2020-05-30T19:27:13Z</time>
      </trkpt>
      <trkpt lat="46.42865" lon="-0.18575">
        <ele>120.3</ele>
        <time>2020-05-30T19:27:14Z</time>
      </trkpt>
      <trkpt lat="46.42864" lon="-0.18575">
        <ele>120.3</ele>
        <time>2020-05-30T19:27:15Z</time>
      </trkpt>
      <trkpt lat="46.42864" lon="-0.18575">
        <ele>120.3</ele>
        <time>2020-05-30T19:27:16Z</time>
      </trkpt>
      <trkpt lat="46.42864" lon="-0.18575">
        <ele>120.2</ele>
        <time>2020-05-30T19:27:17Z</time>
      </trkpt>
      <trkpt lat="46.42864" lon="-0.18575">
        <ele>120.2</ele>
        <time>2020-05-30T19:27:18Z</time>
      </trkpt>
      <trkpt lat="46.42864" lon="-0.18576">
        <ele>120.2</ele>
        <time>2020-05-30T19:27:19Z</time>
      </trkpt>
      <trkpt lat="46.42864" lon="-0.18576">
        <ele>120.2</ele>
        <time>2020-05-30T19:27:20Z</time>
      </trkpt>
      <trkpt lat="46.42864" lon="-0.18576">
        <ele>120.2</ele>
        <time>2020-05-30T19:27:21Z</time>
      </trkpt>
      <trkpt lat="46.42864" lon="-0.18575">
        <ele>120.2</ele>
        <time>2020-05-30T19:27:22Z</time>
      </trkpt>
      <trkpt lat="46.42864" lon="-0.18575">
        <ele>120.2</ele>
        <time>2020-05-30T19:27:23Z</time>
      </trkpt>
      <trkpt lat="46.42864" lon="-0.18575">
        <ele>120.2</ele>
        <time>2020-05-30T19:27:24Z</time>
      </trkpt>
      <trkpt lat="46.42864" lon="-0.18575">
        <ele>120.2</ele>
        <time>2020-05-30T19:27:25Z</time>
      </trkpt>
      <trkpt lat="46.42864" lon="-0.18575">
        <ele>120.2</ele>
        <time>2020-05-30T19:27:26Z</time>
      </trkpt>
      <trkpt lat="46.42864" lon="-0.18575">
        <ele>120.2</ele>
        <time>2020-05-30T19:27:27Z</time>
      </trkpt>
      <trkpt lat="46.42864" lon="-0.18575">
        <ele>120.2</ele>
        <time>2020-05-30T19:27:28Z</time>
      </trkpt>
      <trkpt lat="46.42864" lon="-0.18575">
        <ele>120.2</ele>
        <time>2020-05-30T19:27:29Z</time>
      </trkpt>
      <trkpt lat="46.42864" lon="-0.18575">
        <ele>120.2</ele>
        <time>2020-05-30T19:27:30Z</time>
      </trkpt>
      <trkpt lat="46.42864" lon="-0.18575">
        <ele>120.2</ele>
        <time>2020-05-30T19:27:31Z</time>
      </trkpt>
      <trkpt lat="46.42864" lon="-0.18575">
        <ele>120.2</ele>
        <time>2020-05-30T19:27:32Z</time>
      </trkpt>
      <trkpt lat="46.42864" lon="-0.18575">
        <ele>120.2</ele>
        <time>2020-05-30T19:27:33Z</time>
      </trkpt>
      <trkpt lat="46.42864" lon="-0.18575">
        <ele>120.2</ele>
        <time>2020-05-30T19:27:34Z</time>
      </trkpt>
      <trkpt lat="46.42864" lon="-0.18575">
        <ele>120.2</ele>
        <time>2020-05-30T19:27:35Z</time>
      </trkpt>
      <trkpt lat="46.42864" lon="-0.18575">
        <ele>120.2</ele>
        <time>2020-05-30T19:27:36Z</time>
      </trkpt>
      <trkpt lat="46.42864" lon="-0.18575">
        <ele>120.2</ele>
        <time>2020-05-30T19:27:37Z</time>
      </trkpt>
      <trkpt lat="46.42864" lon="-0.18575">
        <ele>120.2</ele>
        <time>2020-05-30T19:27:38Z</time>
      </trkpt>
      <trkpt lat="46.42864" lon="-0.18575">
        <ele>120.2</ele>
        <time>2020-05-30T19:27:39Z</time>
      </trkpt>
      <trkpt lat="46.42864" lon="-0.18575">
        <ele>120.2</ele>
        <time>2020-05-30T19:27:40Z</time>
      </trkpt>
      <trkpt lat="46.42864" lon="-0.18575">
        <ele>120.2</ele>
        <time>2020-05-30T19:27:41Z</time>
      </trkpt>
      <trkpt lat="46.42864" lon="-0.18575">
        <ele>120.2</ele>
        <time>2020-05-30T19:27:42Z</time>
      </trkpt>
      <trkpt lat="46.42864" lon="-0.18575">
        <ele>120.2</ele>
        <time>2020-05-30T19:27:43Z</time>
      </trkpt>
      <trkpt lat="46.42864" lon="-0.18575">
        <ele>120.2</ele>
        <time>2020-05-30T19:27:44Z</time>
      </trkpt>
      <trkpt lat="46.42864" lon="-0.18575">
        <ele>120.2</ele>
        <time>2020-05-30T19:27:45Z</time>
      </trkpt>
      <trkpt lat="46.42863" lon="-0.18575">
        <ele>120.2</ele>
        <time>2020-05-30T19:27:46Z</time>
      </trkpt>
      <trkpt lat="46.42864" lon="-0.18575">
        <ele>120.2</ele>
        <time>2020-05-30T19:27:47Z</time>
      </trkpt>
      <trkpt lat="46.42864" lon="-0.18574">
        <ele>120.2</ele>
        <time>2020-05-30T19:27:48Z</time>
      </trkpt>
      <trkpt lat="46.42863" lon="-0.18575">
        <ele>120.2</ele>
        <time>2020-05-30T19:27:49Z</time>
      </trkpt>
      <trkpt lat="46.42863" lon="-0.18575">
        <ele>120.2</ele>
        <time>2020-05-30T19:27:50Z</time>
      </trkpt>
      <trkpt lat="46.42864" lon="-0.18575">
        <ele>120.2</ele>
        <time>2020-05-30T19:27:51Z</time>
      </trkpt>
      <trkpt lat="46.42863" lon="-0.18575">
        <ele>120.2</ele>
        <time>2020-05-30T19:27:52Z</time>
      </trkpt>
      <trkpt lat="46.42864" lon="-0.18574">
        <ele>120.1</ele>
        <time>2020-05-30T19:27:53Z</time>
      </trkpt>
      <trkpt lat="46.42863" lon="-0.18575">
        <ele>120.1</ele>
        <time>2020-05-30T19:27:54Z</time>
      </trkpt>
      <trkpt lat="46.42863" lon="-0.18576">
        <ele>120.1</ele>
        <time>2020-05-30T19:27:55Z</time>
      </trkpt>
      <trkpt lat="46.42863" lon="-0.18576">
        <ele>120.1</ele>
        <time>2020-05-30T19:27:56Z</time>
      </trkpt>
      <trkpt lat="46.42863" lon="-0.18577">
        <ele>120.1</ele>
        <time>2020-05-30T19:27:57Z</time>
      </trkpt>
      <trkpt lat="46.42863" lon="-0.18577">
        <ele>120.1</ele>
        <time>2020-05-30T19:27:58Z</time>
      </trkpt>
      <trkpt lat="46.42863" lon="-0.18576">
        <ele>120.1</ele>
        <time>2020-05-30T19:27:59Z</time>
      </trkpt>
      <trkpt lat="46.42863" lon="-0.18576">
        <ele>120.1</ele>
        <time>2020-05-30T19:28:00Z</time>
      </trkpt>
      <trkpt lat="46.42862" lon="-0.18577">
        <ele>120.1</ele>
        <time>2020-05-30T19:28:01Z</time>
      </trkpt>
      <trkpt lat="46.42862" lon="-0.18578">
        <ele>120.1</ele>
        <time>2020-05-30T19:28:02Z</time>
      </trkpt>
      <trkpt lat="46.42862" lon="-0.18579">
        <ele>120.1</ele>
        <time>2020-05-30T19:28:03Z</time>
      </trkpt>
      <trkpt lat="46.42861" lon="-0.1858">
        <ele>120.1</ele>
        <time>2020-05-30T19:28:04Z</time>
      </trkpt>
      <trkpt lat="46.42861" lon="-0.1858">
        <ele>120.1</ele>
        <time>2020-05-30T19:28:05Z</time>
      </trkpt>
      <trkpt lat="46.42861" lon="-0.1858">
        <ele>120.1</ele>
        <time>2020-05-30T19:28:06Z</time>
      </trkpt>
      <trkpt lat="46.42861" lon="-0.1858">
        <ele>120.1</ele>
        <time>2020-05-30T19:28:07Z</time>
      </trkpt>
      <trkpt lat="46.42861" lon="-0.1858">
        <ele>120.1</ele>
        <time>2020-05-30T19:28:08Z</time>
      </trkpt>
      <trkpt lat="46.42861" lon="-0.1858">
        <ele>120.1</ele>
        <time>2020-05-30T19:28:09Z</time>
      </trkpt>
      <trkpt lat="46.42861" lon="-0.1858">
        <ele>120.1</ele>
        <time>2020-05-30T19:28:10Z</time>
      </trkpt>
      <trkpt lat="46.42861" lon="-0.1858">
        <ele>120.1</ele>
        <time>2020-05-30T19:28:11Z</time>
      </trkpt>
      <trkpt lat="46.42861" lon="-0.1858">
        <ele>120.1</ele>
        <time>2020-05-30T19:28:12Z</time>
      </trkpt>
      <trkpt lat="46.42861" lon="-0.1858">
        <ele>120</ele>
        <time>2020-05-30T19:28:13Z</time>
      </trkpt>
      <trkpt lat="46.42862" lon="-0.18579">
        <ele>120</ele>
        <time>2020-05-30T19:28:14Z</time>
      </trkpt>
      <trkpt lat="46.42862" lon="-0.18578">
        <ele>120</ele>
        <time>2020-05-30T19:28:15Z</time>
      </trkpt>
      <trkpt lat="46.42862" lon="-0.18577">
        <ele>120</ele>
        <time>2020-05-30T19:28:16Z</time>
      </trkpt>
      <trkpt lat="46.42863" lon="-0.18577">
        <ele>120</ele>
        <time>2020-05-30T19:28:17Z</time>
      </trkpt>
      <trkpt lat="46.42863" lon="-0.18575">
        <ele>120</ele>
        <time>2020-05-30T19:28:18Z</time>
      </trkpt>
      <trkpt lat="46.42864" lon="-0.18574">
        <ele>119.9</ele>
        <time>2020-05-30T19:28:19Z</time>
      </trkpt>
      <trkpt lat="46.42864" lon="-0.18574">
        <ele>119.9</ele>
        <time>2020-05-30T19:28:20Z</time>
      </trkpt>
      <trkpt lat="46.42864" lon="-0.18573">
        <ele>119.9</ele>
        <time>2020-05-30T19:28:21Z</time>
      </trkpt>
      <trkpt lat="46.42864" lon="-0.18574">
        <ele>119.9</ele>
        <time>2020-05-30T19:28:22Z</time>
      </trkpt>
      <trkpt lat="46.42864" lon="-0.18574">
        <ele>119.9</ele>
        <time>2020-05-30T19:28:23Z</time>
      </trkpt>
      <trkpt lat="46.42864" lon="-0.18573">
        <ele>119.9</ele>
        <time>2020-05-30T19:28:24Z</time>
      </trkpt>
      <trkpt lat="46.42864" lon="-0.18573">
        <ele>119.9</ele>
        <time>2020-05-30T19:28:25Z</time>
      </trkpt>
      <trkpt lat="46.42864" lon="-0.18572">
        <ele>119.9</ele>
        <time>2020-05-30T19:28:26Z</time>
      </trkpt>
      <trkpt lat="46.42865" lon="-0.18571">
        <ele>119.9</ele>
        <time>2020-05-30T19:28:27Z</time>
      </trkpt>
      <trkpt lat="46.42865" lon="-0.18571">
        <ele>119.9</ele>
        <time>2020-05-30T19:28:28Z</time>
      </trkpt>
      <trkpt lat="46.42865" lon="-0.1857">
        <ele>119.9</ele>
        <time>2020-05-30T19:28:29Z</time>
      </trkpt>
      <trkpt lat="46.42865" lon="-0.1857">
        <ele>119.9</ele>
        <time>2020-05-30T19:28:30Z</time>
      </trkpt>
      <trkpt lat="46.42865" lon="-0.1857">
        <ele>119.9</ele>
        <time>2020-05-30T19:28:31Z</time>
      </trkpt>
      <trkpt lat="46.42865" lon="-0.18571">
        <ele>119.9</ele>
        <time>2020-05-30T19:28:32Z</time>
      </trkpt>
      <trkpt lat="46.42865" lon="-0.18571">
        <ele>119.9</ele>
        <time>2020-05-30T19:28:33Z</time>
      </trkpt>
      <trkpt lat="46.42865" lon="-0.18571">
        <ele>119.9</ele>
        <time>2020-05-30T19:28:34Z</time>
      </trkpt>
      <trkpt lat="46.42865" lon="-0.18571">
        <ele>119.9</ele>
        <time>2020-05-30T19:28:35Z</time>
      </trkpt>
      <trkpt lat="46.42865" lon="-0.18571">
        <ele>119.9</ele>
        <time>2020-05-30T19:28:36Z</time>
      </trkpt>
      <trkpt lat="46.42864" lon="-0.18572">
        <ele>119.9</ele>
        <time>2020-05-30T19:28:37Z</time>
      </trkpt>
      <trkpt lat="46.42864" lon="-0.18571">
        <ele>119.8</ele>
        <time>2020-05-30T19:28:38Z</time>
      </trkpt>
      <trkpt lat="46.42864" lon="-0.18571">
        <ele>119.8</ele>
        <time>2020-05-30T19:28:39Z</time>
      </trkpt>
      <trkpt lat="46.42865" lon="-0.1857">
        <ele>119.8</ele>
        <time>2020-05-30T19:28:40Z</time>
      </trkpt>
      <trkpt lat="46.42865" lon="-0.1857">
        <ele>119.8</ele>
        <time>2020-05-30T19:28:41Z</time>
      </trkpt>
      <trkpt lat="46.42865" lon="-0.1857">
        <ele>119.8</ele>
        <time>2020-05-30T19:28:42Z</time>
      </trkpt>
      <trkpt lat="46.42864" lon="-0.18571">
        <ele>119.8</ele>
        <time>2020-05-30T19:28:43Z</time>
      </trkpt>
      <trkpt lat="46.42863" lon="-0.18572">
        <ele>119.8</ele>
        <time>2020-05-30T19:28:44Z</time>
      </trkpt>
      <trkpt lat="46.42863" lon="-0.18572">
        <ele>119.8</ele>
        <time>2020-05-30T19:28:45Z</time>
      </trkpt>
      <trkpt lat="46.42863" lon="-0.18573">
        <ele>119.7</ele>
        <time>2020-05-30T19:28:46Z</time>
      </trkpt>
      <trkpt lat="46.42863" lon="-0.18573">
        <ele>119.7</ele>
        <time>2020-05-30T19:28:47Z</time>
      </trkpt>
      <trkpt lat="46.42863" lon="-0.18573">
        <ele>119.7</ele>
        <time>2020-05-30T19:28:48Z</time>
      </trkpt>
      <trkpt lat="46.42863" lon="-0.18573">
        <ele>119.7</ele>
        <time>2020-05-30T19:28:49Z</time>
      </trkpt>
      <trkpt lat="46.42863" lon="-0.18572">
        <ele>119.7</ele>
        <time>2020-05-30T19:28:50Z</time>
      </trkpt>
      <trkpt lat="46.42863" lon="-0.18572">
        <ele>119.7</ele>
        <time>2020-05-30T19:28:51Z</time>
      </trkpt>
      <trkpt lat="46.42863" lon="-0.18573">
        <ele>119.7</ele>
        <time>2020-05-30T19:28:52Z</time>
      </trkpt>
      <trkpt lat="46.42863" lon="-0.18572">
        <ele>119.7</ele>
        <time>2020-05-30T19:28:53Z</time>
      </trkpt>
      <trkpt lat="46.42864" lon="-0.18572">
        <ele>119.7</ele>
        <time>2020-05-30T19:28:54Z</time>
      </trkpt>
      <trkpt lat="46.42863" lon="-0.18571">
        <ele>119.7</ele>
        <time>2020-05-30T19:28:55Z</time>
      </trkpt>
      <trkpt lat="46.42863" lon="-0.18571">
        <ele>119.7</ele>
        <time>2020-05-30T19:28:56Z</time>
      </trkpt>
      <trkpt lat="46.42864" lon="-0.18572">
        <ele>119.7</ele>
        <time>2020-05-30T19:28:57Z</time>
      </trkpt>
      <trkpt lat="46.42863" lon="-0.18572">
        <ele>119.7</ele>
        <time>2020-05-30T19:28:58Z</time>
      </trkpt>
      <trkpt lat="46.42862" lon="-0.18573">
        <ele>119.7</ele>
        <time>2020-05-30T19:28:59Z</time>
      </trkpt>
      <trkpt lat="46.42862" lon="-0.18575">
        <ele>119.6</ele>
        <time>2020-05-30T19:29:00Z</time>
      </trkpt>
      <trkpt lat="46.42862" lon="-0.18575">
        <ele>119.6</ele>
        <time>2020-05-30T19:29:01Z</time>
      </trkpt>
      <trkpt lat="46.42862" lon="-0.18576">
        <ele>119.6</ele>
        <time>2020-05-30T19:29:02Z</time>
      </trkpt>
      <trkpt lat="46.42862" lon="-0.18576">
        <ele>119.6</ele>
        <time>2020-05-30T19:29:03Z</time>
      </trkpt>
      <trkpt lat="46.42862" lon="-0.18575">
        <ele>119.6</ele>
        <time>2020-05-30T19:29:04Z</time>
      </trkpt>
      <trkpt lat="46.42863" lon="-0.18575">
        <ele>119.6</ele>
        <time>2020-05-30T19:29:05Z</time>
      </trkpt>
      <trkpt lat="46.42862" lon="-0.18575">
        <ele>119.6</ele>
        <time>2020-05-30T19:29:06Z</time>
      </trkpt>
      <trkpt lat="46.42862" lon="-0.18576">
        <ele>119.6</ele>
        <time>2020-05-30T19:29:07Z</time>
      </trkpt>
      <trkpt lat="46.42862" lon="-0.18576">
        <ele>119.6</ele>
        <time>2020-05-30T19:29:08Z</time>
      </trkpt>
      <trkpt lat="46.42863" lon="-0.18574">
        <ele>119.6</ele>
        <time>2020-05-30T19:29:09Z</time>
      </trkpt>
      <trkpt lat="46.42862" lon="-0.18575">
        <ele>119.5</ele>
        <time>2020-05-30T19:29:10Z</time>
      </trkpt>
      <trkpt lat="46.42862" lon="-0.18576">
        <ele>119.5</ele>
        <time>2020-05-30T19:29:11Z</time>
      </trkpt>
      <trkpt lat="46.42862" lon="-0.18576">
        <ele>119.5</ele>
        <time>2020-05-30T19:29:12Z</time>
      </trkpt>
      <trkpt lat="46.42862" lon="-0.18576">
        <ele>119.5</ele>
        <time>2020-05-30T19:29:13Z</time>
      </trkpt>
      <trkpt lat="46.42862" lon="-0.18576">
        <ele>119.5</ele>
        <time>2020-05-30T19:29:14Z</time>
      </trkpt>
      <trkpt lat="46.42862" lon="-0.18576">
        <ele>119.5</ele>
        <time>2020-05-30T19:29:15Z</time>
      </trkpt>
      <trkpt lat="46.42862" lon="-0.18577">
        <ele>119.5</ele>
        <time>2020-05-30T19:29:16Z</time>
      </trkpt>
      <trkpt lat="46.42863" lon="-0.18576">
        <ele>119.5</ele>
        <time>2020-05-30T19:29:17Z</time>
      </trkpt>
      <trkpt lat="46.42863" lon="-0.18576">
        <ele>119.5</ele>
        <time>2020-05-30T19:29:18Z</time>
      </trkpt>
      <trkpt lat="46.42863" lon="-0.18575">
        <ele>119.5</ele>
        <time>2020-05-30T19:29:19Z</time>
      </trkpt>
      <trkpt lat="46.42863" lon="-0.18575">
        <ele>119.5</ele>
        <time>2020-05-30T19:29:20Z</time>
      </trkpt>
      <trkpt lat="46.42863" lon="-0.18575">
        <ele>119.5</ele>
        <time>2020-05-30T19:29:21Z</time>
      </trkpt>
      <trkpt lat="46.42863" lon="-0.18575">
        <ele>119.5</ele>
        <time>2020-05-30T19:29:22Z</time>
      </trkpt>
      <trkpt lat="46.42863" lon="-0.18574">
        <ele>119.4</ele>
        <time>2020-05-30T19:29:23Z</time>
      </trkpt>
      <trkpt lat="46.42863" lon="-0.18574">
        <ele>119.4</ele>
        <time>2020-05-30T19:29:24Z</time>
      </trkpt>
      <trkpt lat="46.42863" lon="-0.18575">
        <ele>119.4</ele>
        <time>2020-05-30T19:29:25Z</time>
      </trkpt>
      <trkpt lat="46.42863" lon="-0.18575">
        <ele>119.4</ele>
        <time>2020-05-30T19:29:26Z</time>
      </trkpt>
      <trkpt lat="46.42863" lon="-0.18576">
        <ele>119.4</ele>
        <time>2020-05-30T19:29:27Z</time>
      </trkpt>
      <trkpt lat="46.42863" lon="-0.18576">
        <ele>119.4</ele>
        <time>2020-05-30T19:29:28Z</time>
      </trkpt>
      <trkpt lat="46.42864" lon="-0.18574">
        <ele>119.4</ele>
        <time>2020-05-30T19:29:29Z</time>
      </trkpt>
      <trkpt lat="46.42864" lon="-0.18574">
        <ele>119.4</ele>
        <time>2020-05-30T19:29:30Z</time>
      </trkpt>
      <trkpt lat="46.42863" lon="-0.18575">
        <ele>119.4</ele>
        <time>2020-05-30T19:29:31Z</time>
      </trkpt>
      <trkpt lat="46.42863" lon="-0.18574">
        <ele>119.4</ele>
        <time>2020-05-30T19:29:32Z</time>
      </trkpt>
      <trkpt lat="46.42863" lon="-0.18574">
        <ele>119.4</ele>
        <time>2020-05-30T19:29:33Z</time>
      </trkpt>
      <trkpt lat="46.42863" lon="-0.18575">
        <ele>119.3</ele>
        <time>2020-05-30T19:29:34Z</time>
      </trkpt>
      <trkpt lat="46.42863" lon="-0.18576">
        <ele>119.3</ele>
        <time>2020-05-30T19:29:35Z</time>
      </trkpt>
      <trkpt lat="46.42863" lon="-0.18575">
        <ele>119.3</ele>
        <time>2020-05-30T19:29:36Z</time>
      </trkpt>
      <trkpt lat="46.42863" lon="-0.18575">
        <ele>119.3</ele>
        <time>2020-05-30T19:29:37Z</time>
      </trkpt>
      <trkpt lat="46.42863" lon="-0.18575">
        <ele>119.3</ele>
        <time>2020-05-30T19:29:38Z</time>
      </trkpt>
      <trkpt lat="46.42864" lon="-0.18574">
        <ele>119.3</ele>
        <time>2020-05-30T19:29:39Z</time>
      </trkpt>
      <trkpt lat="46.42864" lon="-0.18575">
        <ele>119.3</ele>
        <time>2020-05-30T19:29:40Z</time>
      </trkpt>
      <trkpt lat="46.42863" lon="-0.18576">
        <ele>119.3</ele>
        <time>2020-05-30T19:29:41Z</time>
      </trkpt>
      <trkpt lat="46.42863" lon="-0.18576">
        <ele>119.3</ele>
        <time>2020-05-30T19:29:42Z</time>
      </trkpt>
      <trkpt lat="46.42863" lon="-0.18576">
        <ele>119.3</ele>
        <time>2020-05-30T19:29:43Z</time>
      </trkpt>
      <trkpt lat="46.42863" lon="-0.18576">
        <ele>119.3</ele>
        <time>2020-05-30T19:29:44Z</time>
      </trkpt>
      <trkpt lat="46.42863" lon="-0.18576">
        <ele>119.3</ele>
        <time>2020-05-30T19:29:45Z</time>
      </trkpt>
      <trkpt lat="46.42863" lon="-0.18576">
        <ele>119.3</ele>
        <time>2020-05-30T19:29:46Z</time>
      </trkpt>
      <trkpt lat="46.42864" lon="-0.18575">
        <ele>119.3</ele>
        <time>2020-05-30T19:29:47Z</time>
      </trkpt>
      <trkpt lat="46.42863" lon="-0.18575">
        <ele>119.3</ele>
        <time>2020-05-30T19:29:48Z</time>
      </trkpt>
      <trkpt lat="46.42864" lon="-0.18575">
        <ele>119.2</ele>
        <time>2020-05-30T19:29:49Z</time>
      </trkpt>
      <trkpt lat="46.42864" lon="-0.18575">
        <ele>119.2</ele>
        <time>2020-05-30T19:29:50Z</time>
      </trkpt>
      <trkpt lat="46.42864" lon="-0.18575">
        <ele>119.2</ele>
        <time>2020-05-30T19:29:51Z</time>
      </trkpt>
      <trkpt lat="46.42864" lon="-0.18575">
        <ele>119.2</ele>
        <time>2020-05-30T19:29:52Z</time>
      </trkpt>
      <trkpt lat="46.42864" lon="-0.18575">
        <ele>119.2</ele>
        <time>2020-05-30T19:29:53Z</time>
      </trkpt>
      <trkpt lat="46.42864" lon="-0.18575">
        <ele>119.2</ele>
        <time>2020-05-30T19:29:54Z</time>
      </trkpt>
      <trkpt lat="46.42864" lon="-0.18575">
        <ele>119.2</ele>
        <time>2020-05-30T19:29:55Z</time>
      </trkpt>
      <trkpt lat="46.42864" lon="-0.18575">
        <ele>119.2</ele>
        <time>2020-05-30T19:29:56Z</time>
      </trkpt>
      <trkpt lat="46.42864" lon="-0.18575">
        <ele>119.2</ele>
        <time>2020-05-30T19:29:57Z</time>
      </trkpt>
      <trkpt lat="46.42864" lon="-0.18575">
        <ele>119.2</ele>
        <time>2020-05-30T19:29:58Z</time>
      </trkpt>
      <trkpt lat="46.42864" lon="-0.18575">
        <ele>119.2</ele>
        <time>2020-05-30T19:29:59Z</time>
      </trkpt>
      <trkpt lat="46.42864" lon="-0.18575">
        <ele>119.2</ele>
        <time>2020-05-30T19:30:00Z</time>
      </trkpt>
      <trkpt lat="46.42864" lon="-0.18575">
        <ele>119.2</ele>
        <time>2020-05-30T19:30:01Z</time>
      </trkpt>
      <trkpt lat="46.42864" lon="-0.18575">
        <ele>119.2</ele>
        <time>2020-05-30T19:30:02Z</time>
      </trkpt>
      <trkpt lat="46.42864" lon="-0.18575">
        <ele>119.2</ele>
        <time>2020-05-30T19:30:03Z</time>
      </trkpt>
      <trkpt lat="46.42864" lon="-0.18575">
        <ele>119.2</ele>
        <time>2020-05-30T19:30:04Z</time>
      </trkpt>
      <trkpt lat="46.42864" lon="-0.18575">
        <ele>119.2</ele>
        <time>2020-05-30T19:30:05Z</time>
      </trkpt>
      <trkpt lat="46.42864" lon="-0.18575">
        <ele>119.2</ele>
        <time>2020-05-30T19:30:06Z</time>
      </trkpt>
      <trkpt lat="46.42864" lon="-0.18575">
        <ele>119.2</ele>
        <time>2020-05-30T19:30:07Z</time>
      </trkpt>
      <trkpt lat="46.42863" lon="-0.18574">
        <ele>119.2</ele>
        <time>2020-05-30T19:30:08Z</time>
      </trkpt>
      <trkpt lat="46.42863" lon="-0.18573">
        <ele>119.2</ele>
        <time>2020-05-30T19:30:09Z</time>
      </trkpt>
      <trkpt lat="46.42863" lon="-0.18574">
        <ele>119.2</ele>
        <time>2020-05-30T19:30:10Z</time>
      </trkpt>
      <trkpt lat="46.42863" lon="-0.18574">
        <ele>119.2</ele>
        <time>2020-05-30T19:30:11Z</time>
      </trkpt>
      <trkpt lat="46.42863" lon="-0.18574">
        <ele>119.2</ele>
        <time>2020-05-30T19:30:12Z</time>
      </trkpt>
      <trkpt lat="46.42863" lon="-0.18574">
        <ele>119.2</ele>
        <time>2020-05-30T19:30:13Z</time>
      </trkpt>
      <trkpt lat="46.42863" lon="-0.18574">
        <ele>119.2</ele>
        <time>2020-05-30T19:30:14Z</time>
      </trkpt>
      <trkpt lat="46.42864" lon="-0.18573">
        <ele>119.2</ele>
        <time>2020-05-30T19:30:15Z</time>
      </trkpt>
      <trkpt lat="46.42864" lon="-0.18573">
        <ele>119.2</ele>
        <time>2020-05-30T19:30:16Z</time>
      </trkpt>
      <trkpt lat="46.42864" lon="-0.18573">
        <ele>119.2</ele>
        <time>2020-05-30T19:30:17Z</time>
      </trkpt>
      <trkpt lat="46.42864" lon="-0.18572">
        <ele>119.2</ele>
        <time>2020-05-30T19:30:18Z</time>
      </trkpt>
      <trkpt lat="46.42865" lon="-0.18572">
        <ele>119.2</ele>
        <time>2020-05-30T19:30:19Z</time>
      </trkpt>
      <trkpt lat="46.42865" lon="-0.18572">
        <ele>119.2</ele>
        <time>2020-05-30T19:30:20Z</time>
      </trkpt>
      <trkpt lat="46.42865" lon="-0.18572">
        <ele>119.2</ele>
        <time>2020-05-30T19:30:21Z</time>
      </trkpt>
      <trkpt lat="46.42865" lon="-0.18571">
        <ele>119.1</ele>
        <time>2020-05-30T19:30:22Z</time>
      </trkpt>
      <trkpt lat="46.42865" lon="-0.18571">
        <ele>119.1</ele>
        <time>2020-05-30T19:30:23Z</time>
      </trkpt>
      <trkpt lat="46.42866" lon="-0.1857">
        <ele>119.1</ele>
        <time>2020-05-30T19:30:24Z</time>
      </trkpt>
      <trkpt lat="46.42865" lon="-0.1857">
        <ele>119.1</ele>
        <time>2020-05-30T19:30:25Z</time>
      </trkpt>
      <trkpt lat="46.42865" lon="-0.1857">
        <ele>119.1</ele>
        <time>2020-05-30T19:30:26Z</time>
      </trkpt>
      <trkpt lat="46.42864" lon="-0.18571">
        <ele>119.1</ele>
        <time>2020-05-30T19:30:27Z</time>
      </trkpt>
      <trkpt lat="46.42864" lon="-0.18571">
        <ele>119.1</ele>
        <time>2020-05-30T19:30:28Z</time>
      </trkpt>
      <trkpt lat="46.42864" lon="-0.18571">
        <ele>119.1</ele>
        <time>2020-05-30T19:30:29Z</time>
      </trkpt>
      <trkpt lat="46.42864" lon="-0.18571">
        <ele>119.1</ele>
        <time>2020-05-30T19:30:30Z</time>
      </trkpt>
      <trkpt lat="46.42864" lon="-0.18571">
        <ele>119.1</ele>
        <time>2020-05-30T19:30:31Z</time>
      </trkpt>
      <trkpt lat="46.42863" lon="-0.18572">
        <ele>119.1</ele>
        <time>2020-05-30T19:30:32Z</time>
      </trkpt>
      <trkpt lat="46.42863" lon="-0.18573">
        <ele>119.1</ele>
        <time>2020-05-30T19:30:33Z</time>
      </trkpt>
      <trkpt lat="46.42863" lon="-0.18573">
        <ele>119.1</ele>
        <time>2020-05-30T19:30:34Z</time>
      </trkpt>
      <trkpt lat="46.42863" lon="-0.18573">
        <ele>119.1</ele>
        <time>2020-05-30T19:30:35Z</time>
      </trkpt>
      <trkpt lat="46.42863" lon="-0.18574">
        <ele>119.1</ele>
        <time>2020-05-30T19:30:36Z</time>
      </trkpt>
      <trkpt lat="46.42863" lon="-0.18574">
        <ele>119</ele>
        <time>2020-05-30T19:30:37Z</time>
      </trkpt>
      <trkpt lat="46.42863" lon="-0.18573">
        <ele>119</ele>
        <time>2020-05-30T19:30:38Z</time>
      </trkpt>
      <trkpt lat="46.42864" lon="-0.18573">
        <ele>119</ele>
        <time>2020-05-30T19:30:39Z</time>
      </trkpt>
      <trkpt lat="46.42864" lon="-0.18573">
        <ele>119</ele>
        <time>2020-05-30T19:30:40Z</time>
      </trkpt>
      <trkpt lat="46.42863" lon="-0.18574">
        <ele>119</ele>
        <time>2020-05-30T19:30:41Z</time>
      </trkpt>
      <trkpt lat="46.42863" lon="-0.18574">
        <ele>119</ele>
        <time>2020-05-30T19:30:42Z</time>
      </trkpt>
      <trkpt lat="46.42863" lon="-0.18574">
        <ele>119</ele>
        <time>2020-05-30T19:30:43Z</time>
      </trkpt>
      <trkpt lat="46.42864" lon="-0.18574">
        <ele>119</ele>
        <time>2020-05-30T19:30:44Z</time>
      </trkpt>
      <trkpt lat="46.42863" lon="-0.18574">
        <ele>119</ele>
        <time>2020-05-30T19:30:45Z</time>
      </trkpt>
      <trkpt lat="46.42864" lon="-0.18574">
        <ele>119</ele>
        <time>2020-05-30T19:30:46Z</time>
      </trkpt>
      <trkpt lat="46.42864" lon="-0.18574">
        <ele>119</ele>
        <time>2020-05-30T19:30:47Z</time>
      </trkpt>
      <trkpt lat="46.42864" lon="-0.18574">
        <ele>119</ele>
        <time>2020-05-30T19:30:48Z</time>
      </trkpt>
      <trkpt lat="46.42864" lon="-0.18574">
        <ele>119</ele>
        <time>2020-05-30T19:30:49Z</time>
      </trkpt>
      <trkpt lat="46.42864" lon="-0.18574">
        <ele>119</ele>
        <time>2020-05-30T19:30:50Z</time>
      </trkpt>
      <trkpt lat="46.42863" lon="-0.18574">
        <ele>119</ele>
        <time>2020-05-30T19:30:51Z</time>
      </trkpt>
      <trkpt lat="46.42863" lon="-0.18574">
        <ele>119</ele>
        <time>2020-05-30T19:30:52Z</time>
      </trkpt>
      <trkpt lat="46.42863" lon="-0.18574">
        <ele>119</ele>
        <time>2020-05-30T19:30:53Z</time>
      </trkpt>
      <trkpt lat="46.42863" lon="-0.18575">
        <ele>119</ele>
        <time>2020-05-30T19:30:54Z</time>
      </trkpt>
      <trkpt lat="46.42863" lon="-0.18575">
        <ele>119</ele>
        <time>2020-05-30T19:30:55Z</time>
      </trkpt>
      <trkpt lat="46.42864" lon="-0.18573">
        <ele>118.9</ele>
        <time>2020-05-30T19:30:56Z</time>
      </trkpt>
      <trkpt lat="46.42864" lon="-0.18573">
        <ele>118.9</ele>
        <time>2020-05-30T19:30:57Z</time>
      </trkpt>
      <trkpt lat="46.42864" lon="-0.18573">
        <ele>118.9</ele>
        <time>2020-05-30T19:30:58Z</time>
      </trkpt>
      <trkpt lat="46.42864" lon="-0.18574">
        <ele>118.9</ele>
        <time>2020-05-30T19:30:59Z</time>
      </trkpt>
      <trkpt lat="46.42863" lon="-0.18576">
        <ele>118.9</ele>
        <time>2020-05-30T19:31:00Z</time>
      </trkpt>
      <trkpt lat="46.42863" lon="-0.18576">
        <ele>118.9</ele>
        <time>2020-05-30T19:31:01Z</time>
      </trkpt>
      <trkpt lat="46.42863" lon="-0.18577">
        <ele>118.9</ele>
        <time>2020-05-30T19:31:02Z</time>
      </trkpt>
      <trkpt lat="46.42862" lon="-0.18578">
        <ele>118.9</ele>
        <time>2020-05-30T19:31:03Z</time>
      </trkpt>
      <trkpt lat="46.42862" lon="-0.18578">
        <ele>118.9</ele>
        <time>2020-05-30T19:31:04Z</time>
      </trkpt>
      <trkpt lat="46.42863" lon="-0.18578">
        <ele>118.9</ele>
        <time>2020-05-30T19:31:05Z</time>
      </trkpt>
      <trkpt lat="46.42863" lon="-0.18578">
        <ele>118.9</ele>
        <time>2020-05-30T19:31:06Z</time>
      </trkpt>
      <trkpt lat="46.42863" lon="-0.18578">
        <ele>118.9</ele>
        <time>2020-05-30T19:31:07Z</time>
      </trkpt>
      <trkpt lat="46.42863" lon="-0.18578">
        <ele>118.8</ele>
        <time>2020-05-30T19:31:08Z</time>
      </trkpt>
      <trkpt lat="46.42863" lon="-0.18579">
        <ele>118.8</ele>
        <time>2020-05-30T19:31:09Z</time>
      </trkpt>
      <trkpt lat="46.42863" lon="-0.18579">
        <ele>118.8</ele>
        <time>2020-05-30T19:31:10Z</time>
      </trkpt>
      <trkpt lat="46.42863" lon="-0.18578">
        <ele>118.8</ele>
        <time>2020-05-30T19:31:11Z</time>
      </trkpt>
      <trkpt lat="46.42863" lon="-0.18579">
        <ele>118.8</ele>
        <time>2020-05-30T19:31:12Z</time>
      </trkpt>
      <trkpt lat="46.42863" lon="-0.18578">
        <ele>118.8</ele>
        <time>2020-05-30T19:31:13Z</time>
      </trkpt>
      <trkpt lat="46.42863" lon="-0.18578">
        <ele>118.8</ele>
        <time>2020-05-30T19:31:14Z</time>
      </trkpt>
      <trkpt lat="46.42864" lon="-0.18577">
        <ele>118.8</ele>
        <time>2020-05-30T19:31:15Z</time>
      </trkpt>
      <trkpt lat="46.42864" lon="-0.18577">
        <ele>118.8</ele>
        <time>2020-05-30T19:31:16Z</time>
      </trkpt>
      <trkpt lat="46.42864" lon="-0.18577">
        <ele>118.8</ele>
        <time>2020-05-30T19:31:17Z</time>
      </trkpt>
      <trkpt lat="46.42864" lon="-0.18577">
        <ele>118.8</ele>
        <time>2020-05-30T19:31:18Z</time>
      </trkpt>
      <trkpt lat="46.42864" lon="-0.18576">
        <ele>118.8</ele>
        <time>2020-05-30T19:31:19Z</time>
      </trkpt>
      <trkpt lat="46.42865" lon="-0.18574">
        <ele>118.8</ele>
        <time>2020-05-30T19:31:20Z</time>
      </trkpt>
      <trkpt lat="46.42866" lon="-0.18573">
        <ele>118.7</ele>
        <time>2020-05-30T19:31:21Z</time>
      </trkpt>
      <trkpt lat="46.42866" lon="-0.18573">
        <ele>118.7</ele>
        <time>2020-05-30T19:31:22Z</time>
      </trkpt>
      <trkpt lat="46.42866" lon="-0.18574">
        <ele>118.7</ele>
        <time>2020-05-30T19:31:23Z</time>
      </trkpt>
      <trkpt lat="46.42866" lon="-0.18574">
        <ele>118.7</ele>
        <time>2020-05-30T19:31:24Z</time>
      </trkpt>
      <trkpt lat="46.42866" lon="-0.18573">
        <ele>118.7</ele>
        <time>2020-05-30T19:31:25Z</time>
      </trkpt>
      <trkpt lat="46.42867" lon="-0.18572">
        <ele>118.7</ele>
        <time>2020-05-30T19:31:26Z</time>
      </trkpt>
      <trkpt lat="46.42866" lon="-0.18573">
        <ele>118.7</ele>
        <time>2020-05-30T19:31:27Z</time>
      </trkpt>
      <trkpt lat="46.42866" lon="-0.18573">
        <ele>118.7</ele>
        <time>2020-05-30T19:31:28Z</time>
      </trkpt>
      <trkpt lat="46.42866" lon="-0.18575">
        <ele>118.7</ele>
        <time>2020-05-30T19:31:29Z</time>
      </trkpt>
      <trkpt lat="46.42866" lon="-0.18577">
        <ele>118.7</ele>
        <time>2020-05-30T19:31:30Z</time>
      </trkpt>
      <trkpt lat="46.42864" lon="-0.18579">
        <ele>118.6</ele>
        <time>2020-05-30T19:31:31Z</time>
      </trkpt>
      <trkpt lat="46.42861" lon="-0.1858">
        <ele>118.6</ele>
        <time>2020-05-30T19:31:32Z</time>
      </trkpt>
      <trkpt lat="46.4286" lon="-0.1858">
        <ele>118.6</ele>
        <time>2020-05-30T19:31:33Z</time>
      </trkpt>
      <trkpt lat="46.42857" lon="-0.18582">
        <ele>118.6</ele>
        <time>2020-05-30T19:31:34Z</time>
      </trkpt>
      <trkpt lat="46.42854" lon="-0.18584">
        <ele>118.5</ele>
        <time>2020-05-30T19:31:35Z</time>
      </trkpt>
      <trkpt lat="46.42851" lon="-0.18586">
        <ele>118.5</ele>
        <time>2020-05-30T19:31:36Z</time>
      </trkpt>
      <trkpt lat="46.42848" lon="-0.18587">
        <ele>118.5</ele>
        <time>2020-05-30T19:31:37Z</time>
      </trkpt>
      <trkpt lat="46.42845" lon="-0.18589">
        <ele>118.4</ele>
        <time>2020-05-30T19:31:38Z</time>
      </trkpt>
      <trkpt lat="46.42842" lon="-0.1859">
        <ele>118.4</ele>
        <time>2020-05-30T19:31:39Z</time>
      </trkpt>
      <trkpt lat="46.42839" lon="-0.18593">
        <ele>118.4</ele>
        <time>2020-05-30T19:31:40Z</time>
      </trkpt>
      <trkpt lat="46.42837" lon="-0.18596">
        <ele>118.3</ele>
        <time>2020-05-30T19:31:41Z</time>
      </trkpt>
      <trkpt lat="46.42834" lon="-0.18596">
        <ele>118.2</ele>
        <time>2020-05-30T19:31:42Z</time>
      </trkpt>
      <trkpt lat="46.42832" lon="-0.18598">
        <ele>118</ele>
        <time>2020-05-30T19:31:43Z</time>
      </trkpt>
      <trkpt lat="46.42828" lon="-0.18601">
        <ele>117.8</ele>
        <time>2020-05-30T19:31:44Z</time>
      </trkpt>
      <trkpt lat="46.42827" lon="-0.18602">
        <ele>117.7</ele>
        <time>2020-05-30T19:31:45Z</time>
      </trkpt>
      <trkpt lat="46.42826" lon="-0.18606">
        <ele>117.6</ele>
        <time>2020-05-30T19:31:46Z</time>
      </trkpt>
      <trkpt lat="46.42823" lon="-0.18607">
        <ele>117.4</ele>
        <time>2020-05-30T19:31:47Z</time>
      </trkpt>
      <trkpt lat="46.42822" lon="-0.18607">
        <ele>117.4</ele>
        <time>2020-05-30T19:31:48Z</time>
      </trkpt>
      <trkpt lat="46.42821" lon="-0.18607">
        <ele>117.3</ele>
        <time>2020-05-30T19:31:49Z</time>
      </trkpt>
      <trkpt lat="46.42821" lon="-0.18608">
        <ele>117.3</ele>
        <time>2020-05-30T19:31:50Z</time>
      </trkpt>
      <trkpt lat="46.42822" lon="-0.18609">
        <ele>117.2</ele>
        <time>2020-05-30T19:31:51Z</time>
      </trkpt>
      <trkpt lat="46.42821" lon="-0.18608">
        <ele>117.2</ele>
        <time>2020-05-30T19:31:52Z</time>
      </trkpt>
      <trkpt lat="46.42821" lon="-0.18608">
        <ele>117.2</ele>
        <time>2020-05-30T19:31:53Z</time>
      </trkpt>
      <trkpt lat="46.42822" lon="-0.18608">
        <ele>117.1</ele>
        <time>2020-05-30T19:31:54Z</time>
      </trkpt>
      <trkpt lat="46.42822" lon="-0.18608">
        <ele>117.1</ele>
        <time>2020-05-30T19:31:55Z</time>
      </trkpt>
      <trkpt lat="46.42821" lon="-0.18609">
        <ele>117.1</ele>
        <time>2020-05-30T19:31:56Z</time>
      </trkpt>
      <trkpt lat="46.4282" lon="-0.1861">
        <ele>117</ele>
        <time>2020-05-30T19:31:57Z</time>
      </trkpt>
      <trkpt lat="46.4282" lon="-0.1861">
        <ele>117</ele>
        <time>2020-05-30T19:31:58Z</time>
      </trkpt>
      <trkpt lat="46.4282" lon="-0.1861">
        <ele>117</ele>
        <time>2020-05-30T19:31:59Z</time>
      </trkpt>
      <trkpt lat="46.4282" lon="-0.1861">
        <ele>117</ele>
        <time>2020-05-30T19:32:00Z</time>
      </trkpt>
      <trkpt lat="46.4282" lon="-0.18609">
        <ele>117</ele>
        <time>2020-05-30T19:32:01Z</time>
      </trkpt>
      <trkpt lat="46.42821" lon="-0.18608">
        <ele>116.9</ele>
        <time>2020-05-30T19:32:02Z</time>
      </trkpt>
      <trkpt lat="46.42821" lon="-0.18608">
        <ele>116.9</ele>
        <time>2020-05-30T19:32:03Z</time>
      </trkpt>
      <trkpt lat="46.42821" lon="-0.18608">
        <ele>116.9</ele>
        <time>2020-05-30T19:32:04Z</time>
      </trkpt>
      <trkpt lat="46.42821" lon="-0.18609">
        <ele>116.9</ele>
        <time>2020-05-30T19:32:05Z</time>
      </trkpt>
      <trkpt lat="46.42821" lon="-0.18608">
        <ele>116.8</ele>
        <time>2020-05-30T19:32:06Z</time>
      </trkpt>
      <trkpt lat="46.42821" lon="-0.18609">
        <ele>116.8</ele>
        <time>2020-05-30T19:32:07Z</time>
      </trkpt>
      <trkpt lat="46.42822" lon="-0.18609">
        <ele>116.8</ele>
        <time>2020-05-30T19:32:08Z</time>
      </trkpt>
      <trkpt lat="46.42822" lon="-0.18609">
        <ele>116.7</ele>
        <time>2020-05-30T19:32:09Z</time>
      </trkpt>
      <trkpt lat="46.42822" lon="-0.18609">
        <ele>116.7</ele>
        <time>2020-05-30T19:32:10Z</time>
      </trkpt>
      <trkpt lat="46.42822" lon="-0.18609">
        <ele>116.7</ele>
        <time>2020-05-30T19:32:11Z</time>
      </trkpt>
      <trkpt lat="46.42822" lon="-0.18609">
        <ele>116.7</ele>
        <time>2020-05-30T19:32:12Z</time>
      </trkpt>
      <trkpt lat="46.42823" lon="-0.18608">
        <ele>116.7</ele>
        <time>2020-05-30T19:32:13Z</time>
      </trkpt>
      <trkpt lat="46.42822" lon="-0.18608">
        <ele>116.6</ele>
        <time>2020-05-30T19:32:14Z</time>
      </trkpt>
      <trkpt lat="46.42822" lon="-0.18608">
        <ele>116.6</ele>
        <time>2020-05-30T19:32:15Z</time>
      </trkpt>
      <trkpt lat="46.42822" lon="-0.18608">
        <ele>116.6</ele>
        <time>2020-05-30T19:32:16Z</time>
      </trkpt>
      <trkpt lat="46.42823" lon="-0.18608">
        <ele>116.5</ele>
        <time>2020-05-30T19:32:17Z</time>
      </trkpt>
      <trkpt lat="46.42823" lon="-0.18608">
        <ele>116.5</ele>
        <time>2020-05-30T19:32:18Z</time>
      </trkpt>
      <trkpt lat="46.42823" lon="-0.18608">
        <ele>116.5</ele>
        <time>2020-05-30T19:32:19Z</time>
      </trkpt>
      <trkpt lat="46.42823" lon="-0.18608">
        <ele>116.5</ele>
        <time>2020-05-30T19:32:20Z</time>
      </trkpt>
      <trkpt lat="46.42823" lon="-0.18609">
        <ele>116.4</ele>
        <time>2020-05-30T19:32:21Z</time>
      </trkpt>
      <trkpt lat="46.42823" lon="-0.18609">
        <ele>116.4</ele>
        <time>2020-05-30T19:32:22Z</time>
      </trkpt>
      <trkpt lat="46.42823" lon="-0.18609">
        <ele>116.4</ele>
        <time>2020-05-30T19:32:23Z</time>
      </trkpt>
      <trkpt lat="46.42823" lon="-0.18608">
        <ele>116.4</ele>
        <time>2020-05-30T19:32:24Z</time>
      </trkpt>
      <trkpt lat="46.42823" lon="-0.18608">
        <ele>116.4</ele>
        <time>2020-05-30T19:32:25Z</time>
      </trkpt>
      <trkpt lat="46.42823" lon="-0.18608">
        <ele>116.4</ele>
        <time>2020-05-30T19:32:26Z</time>
      </trkpt>
      <trkpt lat="46.42824" lon="-0.18607">
        <ele>116.3</ele>
        <time>2020-05-30T19:32:27Z</time>
      </trkpt>
      <trkpt lat="46.42824" lon="-0.18607">
        <ele>116.3</ele>
        <time>2020-05-30T19:32:28Z</time>
      </trkpt>
      <trkpt lat="46.42824" lon="-0.18608">
        <ele>116.3</ele>
        <time>2020-05-30T19:32:29Z</time>
      </trkpt>
      <trkpt lat="46.42824" lon="-0.18608">
        <ele>116.2</ele>
        <time>2020-05-30T19:32:30Z</time>
      </trkpt>
      <trkpt lat="46.42824" lon="-0.18608">
        <ele>116.2</ele>
        <time>2020-05-30T19:32:31Z</time>
      </trkpt>
      <trkpt lat="46.42824" lon="-0.18607">
        <ele>116.2</ele>
        <time>2020-05-30T19:32:32Z</time>
      </trkpt>
      <trkpt lat="46.42824" lon="-0.18607">
        <ele>116.2</ele>
        <time>2020-05-30T19:32:33Z</time>
      </trkpt>
      <trkpt lat="46.42823" lon="-0.18607">
        <ele>116.2</ele>
        <time>2020-05-30T19:32:34Z</time>
      </trkpt>
      <trkpt lat="46.42824" lon="-0.18607">
        <ele>116.1</ele>
        <time>2020-05-30T19:32:35Z</time>
      </trkpt>
      <trkpt lat="46.42824" lon="-0.18607">
        <ele>116.1</ele>
        <time>2020-05-30T19:32:36Z</time>
      </trkpt>
      <trkpt lat="46.42823" lon="-0.18607">
        <ele>116</ele>
        <time>2020-05-30T19:32:37Z</time>
      </trkpt>
      <trkpt lat="46.42823" lon="-0.18607">
        <ele>116</ele>
        <time>2020-05-30T19:32:38Z</time>
      </trkpt>
      <trkpt lat="46.42823" lon="-0.18607">
        <ele>116</ele>
        <time>2020-05-30T19:32:39Z</time>
      </trkpt>
      <trkpt lat="46.42823" lon="-0.18607">
        <ele>116</ele>
        <time>2020-05-30T19:32:40Z</time>
      </trkpt>
      <trkpt lat="46.42824" lon="-0.18607">
        <ele>116</ele>
        <time>2020-05-30T19:32:41Z</time>
      </trkpt>
      <trkpt lat="46.42824" lon="-0.18607">
        <ele>116</ele>
        <time>2020-05-30T19:32:42Z</time>
      </trkpt>
      <trkpt lat="46.42824" lon="-0.18607">
        <ele>116</ele>
        <time>2020-05-30T19:32:43Z</time>
      </trkpt>
      <trkpt lat="46.42824" lon="-0.18607">
        <ele>116</ele>
        <time>2020-05-30T19:32:44Z</time>
      </trkpt>
      <trkpt lat="46.42824" lon="-0.18607">
        <ele>116</ele>
        <time>2020-05-30T19:32:45Z</time>
      </trkpt>
      <trkpt lat="46.42823" lon="-0.18607">
        <ele>115.9</ele>
        <time>2020-05-30T19:32:46Z</time>
      </trkpt>
      <trkpt lat="46.42823" lon="-0.18607">
        <ele>115.9</ele>
        <time>2020-05-30T19:32:47Z</time>
      </trkpt>
      <trkpt lat="46.42824" lon="-0.18607">
        <ele>115.9</ele>
        <time>2020-05-30T19:32:48Z</time>
      </trkpt>
      <trkpt lat="46.42824" lon="-0.18607">
        <ele>115.9</ele>
        <time>2020-05-30T19:32:49Z</time>
      </trkpt>
      <trkpt lat="46.42824" lon="-0.18607">
        <ele>115.9</ele>
        <time>2020-05-30T19:32:50Z</time>
      </trkpt>
      <trkpt lat="46.42824" lon="-0.18606">
        <ele>115.9</ele>
        <time>2020-05-30T19:32:51Z</time>
      </trkpt>
      <trkpt lat="46.42824" lon="-0.18606">
        <ele>115.9</ele>
        <time>2020-05-30T19:32:52Z</time>
      </trkpt>
      <trkpt lat="46.42824" lon="-0.18606">
        <ele>115.8</ele>
        <time>2020-05-30T19:32:53Z</time>
      </trkpt>
      <trkpt lat="46.42824" lon="-0.18606">
        <ele>115.8</ele>
        <time>2020-05-30T19:32:54Z</time>
      </trkpt>
      <trkpt lat="46.42824" lon="-0.18606">
        <ele>115.8</ele>
        <time>2020-05-30T19:32:55Z</time>
      </trkpt>
      <trkpt lat="46.42824" lon="-0.18606">
        <ele>115.8</ele>
        <time>2020-05-30T19:32:56Z</time>
      </trkpt>
      <trkpt lat="46.42824" lon="-0.18606">
        <ele>115.8</ele>
        <time>2020-05-30T19:32:57Z</time>
      </trkpt>
      <trkpt lat="46.42824" lon="-0.18605">
        <ele>115.8</ele>
        <time>2020-05-30T19:32:58Z</time>
      </trkpt>
      <trkpt lat="46.42824" lon="-0.18605">
        <ele>115.8</ele>
        <time>2020-05-30T19:32:59Z</time>
      </trkpt>
      <trkpt lat="46.42824" lon="-0.18605">
        <ele>115.7</ele>
        <time>2020-05-30T19:33:00Z</time>
      </trkpt>
      <trkpt lat="46.42823" lon="-0.18605">
        <ele>115.7</ele>
        <time>2020-05-30T19:33:01Z</time>
      </trkpt>
      <trkpt lat="46.42823" lon="-0.18603">
        <ele>115.6</ele>
        <time>2020-05-30T19:33:02Z</time>
      </trkpt>
      <trkpt lat="46.42825" lon="-0.18602">
        <ele>115.6</ele>
        <time>2020-05-30T19:33:03Z</time>
      </trkpt>
      <trkpt lat="46.42826" lon="-0.18602">
        <ele>115.6</ele>
        <time>2020-05-30T19:33:04Z</time>
      </trkpt>
      <trkpt lat="46.42827" lon="-0.18601">
        <ele>115.7</ele>
        <time>2020-05-30T19:33:05Z</time>
      </trkpt>
      <trkpt lat="46.42828" lon="-0.18601">
        <ele>115.8</ele>
        <time>2020-05-30T19:33:06Z</time>
      </trkpt>
      <trkpt lat="46.4283" lon="-0.18601">
        <ele>115.9</ele>
        <time>2020-05-30T19:33:07Z</time>
      </trkpt>
      <trkpt lat="46.42832" lon="-0.18599">
        <ele>116.1</ele>
        <time>2020-05-30T19:33:08Z</time>
      </trkpt>
      <trkpt lat="46.42833" lon="-0.18598">
        <ele>116.1</ele>
        <time>2020-05-30T19:33:09Z</time>
      </trkpt>
      <trkpt lat="46.42836" lon="-0.18595">
        <ele>116.4</ele>
        <time>2020-05-30T19:33:10Z</time>
      </trkpt>
      <trkpt lat="46.42837" lon="-0.18595">
        <ele>116.4</ele>
        <time>2020-05-30T19:33:11Z</time>
      </trkpt>
      <trkpt lat="46.42839" lon="-0.18593">
        <ele>116.6</ele>
        <time>2020-05-30T19:33:12Z</time>
      </trkpt>
      <trkpt lat="46.42841" lon="-0.18594">
        <ele>116.7</ele>
        <time>2020-05-30T19:33:13Z</time>
      </trkpt>
      <trkpt lat="46.42843" lon="-0.18592">
        <ele>116.8</ele>
        <time>2020-05-30T19:33:14Z</time>
      </trkpt>
      <trkpt lat="46.42844" lon="-0.18591">
        <ele>116.9</ele>
        <time>2020-05-30T19:33:15Z</time>
      </trkpt>
      <trkpt lat="46.42846" lon="-0.18589">
        <ele>117.1</ele>
        <time>2020-05-30T19:33:16Z</time>
      </trkpt>
      <trkpt lat="46.42849" lon="-0.18586">
        <ele>117.3</ele>
        <time>2020-05-30T19:33:17Z</time>
      </trkpt>
      <trkpt lat="46.42851" lon="-0.18583">
        <ele>117.5</ele>
        <time>2020-05-30T19:33:18Z</time>
      </trkpt>
      <trkpt lat="46.42854" lon="-0.18583">
        <ele>117.7</ele>
        <time>2020-05-30T19:33:19Z</time>
      </trkpt>
      <trkpt lat="46.42857" lon="-0.18583">
        <ele>117.8</ele>
        <time>2020-05-30T19:33:20Z</time>
      </trkpt>
      <trkpt lat="46.4286" lon="-0.18583">
        <ele>118.1</ele>
        <time>2020-05-30T19:33:21Z</time>
      </trkpt>
      <trkpt lat="46.42863" lon="-0.18583">
        <ele>118.2</ele>
        <time>2020-05-30T19:33:22Z</time>
      </trkpt>
      <trkpt lat="46.42864" lon="-0.18582">
        <ele>118.2</ele>
        <time>2020-05-30T19:33:23Z</time>
      </trkpt>
      <trkpt lat="46.42867" lon="-0.18583">
        <ele>118.3</ele>
        <time>2020-05-30T19:33:24Z</time>
      </trkpt>
      <trkpt lat="46.42868" lon="-0.18583">
        <ele>118.3</ele>
        <time>2020-05-30T19:33:25Z</time>
      </trkpt>
      <trkpt lat="46.42871" lon="-0.18582">
        <ele>118.4</ele>
        <time>2020-05-30T19:33:26Z</time>
      </trkpt>
      <trkpt lat="46.42872" lon="-0.18582">
        <ele>118.4</ele>
        <time>2020-05-30T19:33:27Z</time>
      </trkpt>
      <trkpt lat="46.42874" lon="-0.18582">
        <ele>118.4</ele>
        <time>2020-05-30T19:33:28Z</time>
      </trkpt>
      <trkpt lat="46.42876" lon="-0.18581">
        <ele>118.5</ele>
        <time>2020-05-30T19:33:29Z</time>
      </trkpt>
      <trkpt lat="46.42879" lon="-0.18582">
        <ele>118.5</ele>
        <time>2020-05-30T19:33:30Z</time>
      </trkpt>
      <trkpt lat="46.42882" lon="-0.18582">
        <ele>118.6</ele>
        <time>2020-05-30T19:33:31Z</time>
      </trkpt>
      <trkpt lat="46.42883" lon="-0.18582">
        <ele>118.6</ele>
        <time>2020-05-30T19:33:32Z</time>
      </trkpt>
      <trkpt lat="46.42886" lon="-0.18581">
        <ele>118.7</ele>
        <time>2020-05-30T19:33:33Z</time>
      </trkpt>
      <trkpt lat="46.42887" lon="-0.18581">
        <ele>118.7</ele>
        <time>2020-05-30T19:33:34Z</time>
      </trkpt>
      <trkpt lat="46.42889" lon="-0.18583">
        <ele>118.7</ele>
        <time>2020-05-30T19:33:35Z</time>
      </trkpt>
      <trkpt lat="46.42891" lon="-0.18584">
        <ele>118.8</ele>
        <time>2020-05-30T19:33:36Z</time>
      </trkpt>
      <trkpt lat="46.42895" lon="-0.18583">
        <ele>118.8</ele>
        <time>2020-05-30T19:33:37Z</time>
      </trkpt>
      <trkpt lat="46.42896" lon="-0.18583">
        <ele>118.8</ele>
        <time>2020-05-30T19:33:38Z</time>
      </trkpt>
      <trkpt lat="46.42899" lon="-0.18583">
        <ele>118.9</ele>
        <time>2020-05-30T19:33:39Z</time>
      </trkpt>
      <trkpt lat="46.42901" lon="-0.18582">
        <ele>118.9</ele>
        <time>2020-05-30T19:33:40Z</time>
      </trkpt>
      <trkpt lat="46.42902" lon="-0.18582">
        <ele>118.9</ele>
        <time>2020-05-30T19:33:41Z</time>
      </trkpt>
      <trkpt lat="46.42904" lon="-0.18582">
        <ele>118.9</ele>
        <time>2020-05-30T19:33:42Z</time>
      </trkpt>
      <trkpt lat="46.42906" lon="-0.18582">
        <ele>119</ele>
        <time>2020-05-30T19:33:43Z</time>
      </trkpt>
      <trkpt lat="46.42908" lon="-0.18581">
        <ele>119</ele>
        <time>2020-05-30T19:33:44Z</time>
      </trkpt>
      <trkpt lat="46.42909" lon="-0.1858">
        <ele>119</ele>
        <time>2020-05-30T19:33:45Z</time>
      </trkpt>
      <trkpt lat="46.42911" lon="-0.18579">
        <ele>119</ele>
        <time>2020-05-30T19:33:46Z</time>
      </trkpt>
      <trkpt lat="46.42912" lon="-0.18579">
        <ele>119</ele>
        <time>2020-05-30T19:33:47Z</time>
      </trkpt>
      <trkpt lat="46.42913" lon="-0.18578">
        <ele>119</ele>
        <time>2020-05-30T19:33:48Z</time>
      </trkpt>
      <trkpt lat="46.42914" lon="-0.18578">
        <ele>119</ele>
        <time>2020-05-30T19:33:49Z</time>
      </trkpt>
      <trkpt lat="46.42914" lon="-0.18578">
        <ele>119.1</ele>
        <time>2020-05-30T19:33:50Z</time>
      </trkpt>
      <trkpt lat="46.42914" lon="-0.18577">
        <ele>119.1</ele>
        <time>2020-05-30T19:33:51Z</time>
      </trkpt>
      <trkpt lat="46.42914" lon="-0.18577">
        <ele>119.1</ele>
        <time>2020-05-30T19:33:52Z</time>
      </trkpt>
      <trkpt lat="46.42915" lon="-0.18577">
        <ele>119.1</ele>
        <time>2020-05-30T19:33:53Z</time>
      </trkpt>
      <trkpt lat="46.42915" lon="-0.18577">
        <ele>119.1</ele>
        <time>2020-05-30T19:33:54Z</time>
      </trkpt>
      <trkpt lat="46.42915" lon="-0.18577">
        <ele>119.1</ele>
        <time>2020-05-30T19:33:55Z</time>
      </trkpt>
      <trkpt lat="46.42915" lon="-0.18577">
        <ele>119.1</ele>
        <time>2020-05-30T19:33:56Z</time>
      </trkpt>
      <trkpt lat="46.42915" lon="-0.18578">
        <ele>119.1</ele>
        <time>2020-05-30T19:33:57Z</time>
      </trkpt>
      <trkpt lat="46.42915" lon="-0.18578">
        <ele>119.1</ele>
        <time>2020-05-30T19:33:58Z</time>
      </trkpt>
      <trkpt lat="46.42915" lon="-0.18578">
        <ele>119.1</ele>
        <time>2020-05-30T19:33:59Z</time>
      </trkpt>
      <trkpt lat="46.42915" lon="-0.18578">
        <ele>119.1</ele>
        <time>2020-05-30T19:34:00Z</time>
      </trkpt>
      <trkpt lat="46.42915" lon="-0.18578">
        <ele>119.1</ele>
        <time>2020-05-30T19:34:01Z</time>
      </trkpt>
      <trkpt lat="46.42915" lon="-0.18577">
        <ele>119.1</ele>
        <time>2020-05-30T19:34:02Z</time>
      </trkpt>
      <trkpt lat="46.42915" lon="-0.18577">
        <ele>119.1</ele>
        <time>2020-05-30T19:34:03Z</time>
      </trkpt>
      <trkpt lat="46.42915" lon="-0.18577">
        <ele>119.1</ele>
        <time>2020-05-30T19:34:04Z</time>
      </trkpt>
      <trkpt lat="46.42915" lon="-0.18578">
        <ele>119.1</ele>
        <time>2020-05-30T19:34:05Z</time>
      </trkpt>
      <trkpt lat="46.42915" lon="-0.18578">
        <ele>119.1</ele>
        <time>2020-05-30T19:34:06Z</time>
      </trkpt>
      <trkpt lat="46.42915" lon="-0.18578">
        <ele>119.1</ele>
        <time>2020-05-30T19:34:07Z</time>
      </trkpt>
      <trkpt lat="46.42915" lon="-0.18578">
        <ele>119.1</ele>
        <time>2020-05-30T19:34:08Z</time>
      </trkpt>
      <trkpt lat="46.42915" lon="-0.18578">
        <ele>119.1</ele>
        <time>2020-05-30T19:34:09Z</time>
      </trkpt>
      <trkpt lat="46.42915" lon="-0.18578">
        <ele>119.1</ele>
        <time>2020-05-30T19:34:10Z</time>
      </trkpt>
      <trkpt lat="46.42915" lon="-0.18578">
        <ele>119.1</ele>
        <time>2020-05-30T19:34:11Z</time>
      </trkpt>
      <trkpt lat="46.42915" lon="-0.18578">
        <ele>119.1</ele>
        <time>2020-05-30T19:34:12Z</time>
      </trkpt>
      <trkpt lat="46.42916" lon="-0.18578">
        <ele>119.1</ele>
        <time>2020-05-30T19:34:13Z</time>
      </trkpt>
      <trkpt lat="46.42916" lon="-0.18578">
        <ele>119.1</ele>
        <time>2020-05-30T19:34:14Z</time>
      </trkpt>
      <trkpt lat="46.42916" lon="-0.18578">
        <ele>119.1</ele>
        <time>2020-05-30T19:34:15Z</time>
      </trkpt>
      <trkpt lat="46.42916" lon="-0.18577">
        <ele>119.1</ele>
        <time>2020-05-30T19:34:16Z</time>
      </trkpt>
      <trkpt lat="46.42916" lon="-0.18577">
        <ele>119.1</ele>
        <time>2020-05-30T19:34:17Z</time>
      </trkpt>
      <trkpt lat="46.42916" lon="-0.18577">
        <ele>119.1</ele>
        <time>2020-05-30T19:34:18Z</time>
      </trkpt>
      <trkpt lat="46.42916" lon="-0.18577">
        <ele>119.1</ele>
        <time>2020-05-30T19:34:19Z</time>
      </trkpt>
      <trkpt lat="46.42916" lon="-0.18577">
        <ele>119.1</ele>
        <time>2020-05-30T19:34:20Z</time>
      </trkpt>
      <trkpt lat="46.42916" lon="-0.18577">
        <ele>119.1</ele>
        <time>2020-05-30T19:34:21Z</time>
      </trkpt>
      <trkpt lat="46.42916" lon="-0.18577">
        <ele>119.1</ele>
        <time>2020-05-30T19:34:22Z</time>
      </trkpt>
      <trkpt lat="46.42915" lon="-0.18576">
        <ele>119.1</ele>
        <time>2020-05-30T19:34:23Z</time>
      </trkpt>
      <trkpt lat="46.42915" lon="-0.18577">
        <ele>119.1</ele>
        <time>2020-05-30T19:34:24Z</time>
      </trkpt>
      <trkpt lat="46.42914" lon="-0.18576">
        <ele>119.1</ele>
        <time>2020-05-30T19:34:25Z</time>
      </trkpt>
      <trkpt lat="46.42914" lon="-0.18576">
        <ele>119.1</ele>
        <time>2020-05-30T19:34:26Z</time>
      </trkpt>
      <trkpt lat="46.42914" lon="-0.18575">
        <ele>119.1</ele>
        <time>2020-05-30T19:34:27Z</time>
      </trkpt>
      <trkpt lat="46.42913" lon="-0.18575">
        <ele>119.1</ele>
        <time>2020-05-30T19:34:28Z</time>
      </trkpt>
      <trkpt lat="46.42913" lon="-0.18574">
        <ele>119.1</ele>
        <time>2020-05-30T19:34:29Z</time>
      </trkpt>
      <trkpt lat="46.42912" lon="-0.18573">
        <ele>119.1</ele>
        <time>2020-05-30T19:34:30Z</time>
      </trkpt>
      <trkpt lat="46.42912" lon="-0.18573">
        <ele>119.1</ele>
        <time>2020-05-30T19:34:31Z</time>
      </trkpt>
      <trkpt lat="46.42912" lon="-0.18572">
        <ele>119.1</ele>
        <time>2020-05-30T19:34:32Z</time>
      </trkpt>
      <trkpt lat="46.42912" lon="-0.18572">
        <ele>119.1</ele>
        <time>2020-05-30T19:34:33Z</time>
      </trkpt>
      <trkpt lat="46.42912" lon="-0.18571">
        <ele>119.1</ele>
        <time>2020-05-30T19:34:34Z</time>
      </trkpt>
      <trkpt lat="46.42912" lon="-0.18572">
        <ele>119.1</ele>
        <time>2020-05-30T19:34:35Z</time>
      </trkpt>
      <trkpt lat="46.42912" lon="-0.18572">
        <ele>119.1</ele>
        <time>2020-05-30T19:34:36Z</time>
      </trkpt>
      <trkpt lat="46.42913" lon="-0.18572">
        <ele>119.1</ele>
        <time>2020-05-30T19:34:37Z</time>
      </trkpt>
      <trkpt lat="46.42914" lon="-0.18573">
        <ele>119.1</ele>
        <time>2020-05-30T19:34:38Z</time>
      </trkpt>
      <trkpt lat="46.42914" lon="-0.18573">
        <ele>119.1</ele>
        <time>2020-05-30T19:34:39Z</time>
      </trkpt>
      <trkpt lat="46.42914" lon="-0.18574">
        <ele>119.1</ele>
        <time>2020-05-30T19:34:40Z</time>
      </trkpt>
      <trkpt lat="46.42914" lon="-0.18574">
        <ele>119.1</ele>
        <time>2020-05-30T19:34:41Z</time>
      </trkpt>
      <trkpt lat="46.42914" lon="-0.18574">
        <ele>119.1</ele>
        <time>2020-05-30T19:34:42Z</time>
      </trkpt>
      <trkpt lat="46.42914" lon="-0.18574">
        <ele>119.1</ele>
        <time>2020-05-30T19:34:43Z</time>
      </trkpt>
      <trkpt lat="46.42914" lon="-0.18573">
        <ele>119.1</ele>
        <time>2020-05-30T19:34:44Z</time>
      </trkpt>
      <trkpt lat="46.42914" lon="-0.18574">
        <ele>119.1</ele>
        <time>2020-05-30T19:34:45Z</time>
      </trkpt>
      <trkpt lat="46.42914" lon="-0.18574">
        <ele>119.1</ele>
        <time>2020-05-30T19:34:46Z</time>
      </trkpt>
      <trkpt lat="46.42914" lon="-0.18573">
        <ele>119.1</ele>
        <time>2020-05-30T19:34:47Z</time>
      </trkpt>
      <trkpt lat="46.42914" lon="-0.18572">
        <ele>119.1</ele>
        <time>2020-05-30T19:34:48Z</time>
      </trkpt>
      <trkpt lat="46.42914" lon="-0.18572">
        <ele>119.1</ele>
        <time>2020-05-30T19:34:49Z</time>
      </trkpt>
      <trkpt lat="46.42915" lon="-0.18572">
        <ele>119.1</ele>
        <time>2020-05-30T19:34:50Z</time>
      </trkpt>
      <trkpt lat="46.42916" lon="-0.18573">
        <ele>119.2</ele>
        <time>2020-05-30T19:34:51Z</time>
      </trkpt>
      <trkpt lat="46.42916" lon="-0.18573">
        <ele>119.2</ele>
        <time>2020-05-30T19:34:52Z</time>
      </trkpt>
      <trkpt lat="46.42916" lon="-0.18574">
        <ele>119.2</ele>
        <time>2020-05-30T19:34:53Z</time>
      </trkpt>
      <trkpt lat="46.42915" lon="-0.18574">
        <ele>119.2</ele>
        <time>2020-05-30T19:34:54Z</time>
      </trkpt>
      <trkpt lat="46.42915" lon="-0.18574">
        <ele>119.2</ele>
        <time>2020-05-30T19:34:55Z</time>
      </trkpt>
      <trkpt lat="46.42915" lon="-0.18575">
        <ele>119.2</ele>
        <time>2020-05-30T19:34:56Z</time>
      </trkpt>
      <trkpt lat="46.42915" lon="-0.18575">
        <ele>119.2</ele>
        <time>2020-05-30T19:34:57Z</time>
      </trkpt>
      <trkpt lat="46.42915" lon="-0.18576">
        <ele>119.2</ele>
        <time>2020-05-30T19:34:58Z</time>
      </trkpt>
      <trkpt lat="46.42915" lon="-0.18576">
        <ele>119.2</ele>
        <time>2020-05-30T19:34:59Z</time>
      </trkpt>
      <trkpt lat="46.42915" lon="-0.18576">
        <ele>119.2</ele>
        <time>2020-05-30T19:35:00Z</time>
      </trkpt>
      <trkpt lat="46.42915" lon="-0.18575">
        <ele>119.2</ele>
        <time>2020-05-30T19:35:01Z</time>
      </trkpt>
      <trkpt lat="46.42915" lon="-0.18575">
        <ele>119.2</ele>
        <time>2020-05-30T19:35:02Z</time>
      </trkpt>
      <trkpt lat="46.42915" lon="-0.18575">
        <ele>119.2</ele>
        <time>2020-05-30T19:35:03Z</time>
      </trkpt>
      <trkpt lat="46.42915" lon="-0.18576">
        <ele>119.2</ele>
        <time>2020-05-30T19:35:04Z</time>
      </trkpt>
      <trkpt lat="46.42915" lon="-0.18575">
        <ele>119.2</ele>
        <time>2020-05-30T19:35:05Z</time>
      </trkpt>
      <trkpt lat="46.42915" lon="-0.18575">
        <ele>119.2</ele>
        <time>2020-05-30T19:35:06Z</time>
      </trkpt>
      <trkpt lat="46.42915" lon="-0.18574">
        <ele>119.2</ele>
        <time>2020-05-30T19:35:07Z</time>
      </trkpt>
      <trkpt lat="46.42915" lon="-0.18574">
        <ele>119.2</ele>
        <time>2020-05-30T19:35:08Z</time>
      </trkpt>
      <trkpt lat="46.42914" lon="-0.18575">
        <ele>119.2</ele>
        <time>2020-05-30T19:35:09Z</time>
      </trkpt>
      <trkpt lat="46.42914" lon="-0.18575">
        <ele>119.2</ele>
        <time>2020-05-30T19:35:10Z</time>
      </trkpt>
      <trkpt lat="46.42914" lon="-0.18575">
        <ele>119.2</ele>
        <time>2020-05-30T19:35:11Z</time>
      </trkpt>
      <trkpt lat="46.42914" lon="-0.18574">
        <ele>119.2</ele>
        <time>2020-05-30T19:35:12Z</time>
      </trkpt>
      <trkpt lat="46.42914" lon="-0.18574">
        <ele>119.2</ele>
        <time>2020-05-30T19:35:13Z</time>
      </trkpt>
      <trkpt lat="46.42914" lon="-0.18574">
        <ele>119.2</ele>
        <time>2020-05-30T19:35:14Z</time>
      </trkpt>
      <trkpt lat="46.42913" lon="-0.18574">
        <ele>119.2</ele>
        <time>2020-05-30T19:35:15Z</time>
      </trkpt>
      <trkpt lat="46.42913" lon="-0.18573">
        <ele>119.2</ele>
        <time>2020-05-30T19:35:16Z</time>
      </trkpt>
      <trkpt lat="46.42913" lon="-0.18573">
        <ele>119.2</ele>
        <time>2020-05-30T19:35:17Z</time>
      </trkpt>
      <trkpt lat="46.42912" lon="-0.18573">
        <ele>119.2</ele>
        <time>2020-05-30T19:35:18Z</time>
      </trkpt>
      <trkpt lat="46.42912" lon="-0.18573">
        <ele>119.2</ele>
        <time>2020-05-30T19:35:19Z</time>
      </trkpt>
      <trkpt lat="46.42912" lon="-0.18573">
        <ele>119.2</ele>
        <time>2020-05-30T19:35:20Z</time>
      </trkpt>
      <trkpt lat="46.42912" lon="-0.18573">
        <ele>119.2</ele>
        <time>2020-05-30T19:35:21Z</time>
      </trkpt>
      <trkpt lat="46.42912" lon="-0.18573">
        <ele>119.2</ele>
        <time>2020-05-30T19:35:22Z</time>
      </trkpt>
      <trkpt lat="46.42911" lon="-0.18573">
        <ele>119.2</ele>
        <time>2020-05-30T19:35:23Z</time>
      </trkpt>
      <trkpt lat="46.42911" lon="-0.18573">
        <ele>119.2</ele>
        <time>2020-05-30T19:35:24Z</time>
      </trkpt>
      <trkpt lat="46.42911" lon="-0.18572">
        <ele>119.2</ele>
        <time>2020-05-30T19:35:25Z</time>
      </trkpt>
      <trkpt lat="46.42911" lon="-0.18572">
        <ele>119.2</ele>
        <time>2020-05-30T19:35:26Z</time>
      </trkpt>
      <trkpt lat="46.4291" lon="-0.18572">
        <ele>119.2</ele>
        <time>2020-05-30T19:35:27Z</time>
      </trkpt>
      <trkpt lat="46.4291" lon="-0.18572">
        <ele>119.2</ele>
        <time>2020-05-30T19:35:28Z</time>
      </trkpt>
      <trkpt lat="46.4291" lon="-0.18572">
        <ele>119.2</ele>
        <time>2020-05-30T19:35:29Z</time>
      </trkpt>
      <trkpt lat="46.42911" lon="-0.18574">
        <ele>119.2</ele>
        <time>2020-05-30T19:35:30Z</time>
      </trkpt>
      <trkpt lat="46.42911" lon="-0.18573">
        <ele>119.2</ele>
        <time>2020-05-30T19:35:31Z</time>
      </trkpt>
      <trkpt lat="46.42911" lon="-0.18574">
        <ele>119.2</ele>
        <time>2020-05-30T19:35:32Z</time>
      </trkpt>
      <trkpt lat="46.42911" lon="-0.18574">
        <ele>119.2</ele>
        <time>2020-05-30T19:35:33Z</time>
      </trkpt>
      <trkpt lat="46.42911" lon="-0.18574">
        <ele>119.2</ele>
        <time>2020-05-30T19:35:34Z</time>
      </trkpt>
      <trkpt lat="46.42911" lon="-0.18574">
        <ele>119.2</ele>
        <time>2020-05-30T19:35:35Z</time>
      </trkpt>
      <trkpt lat="46.4291" lon="-0.18574">
        <ele>119.2</ele>
        <time>2020-05-30T19:35:36Z</time>
      </trkpt>
      <trkpt lat="46.4291" lon="-0.18574">
        <ele>119.2</ele>
        <time>2020-05-30T19:35:37Z</time>
      </trkpt>
      <trkpt lat="46.4291" lon="-0.18574">
        <ele>119.2</ele>
        <time>2020-05-30T19:35:38Z</time>
      </trkpt>
      <trkpt lat="46.42911" lon="-0.18573">
        <ele>119.2</ele>
        <time>2020-05-30T19:35:39Z</time>
      </trkpt>
      <trkpt lat="46.42911" lon="-0.18573">
        <ele>119.2</ele>
        <time>2020-05-30T19:35:40Z</time>
      </trkpt>
      <trkpt lat="46.42911" lon="-0.18574">
        <ele>119.2</ele>
        <time>2020-05-30T19:35:41Z</time>
      </trkpt>
      <trkpt lat="46.42911" lon="-0.18574">
        <ele>119.2</ele>
        <time>2020-05-30T19:35:42Z</time>
      </trkpt>
      <trkpt lat="46.42912" lon="-0.18575">
        <ele>119.2</ele>
        <time>2020-05-30T19:35:43Z</time>
      </trkpt>
      <trkpt lat="46.42912" lon="-0.18575">
        <ele>119.2</ele>
        <time>2020-05-30T19:35:44Z</time>
      </trkpt>
      <trkpt lat="46.42911" lon="-0.18576">
        <ele>119.2</ele>
        <time>2020-05-30T19:35:45Z</time>
      </trkpt>
      <trkpt lat="46.42911" lon="-0.18576">
        <ele>119.2</ele>
        <time>2020-05-30T19:35:46Z</time>
      </trkpt>
      <trkpt lat="46.42911" lon="-0.18575">
        <ele>119.2</ele>
        <time>2020-05-30T19:35:47Z</time>
      </trkpt>
      <trkpt lat="46.42911" lon="-0.18576">
        <ele>119.2</ele>
        <time>2020-05-30T19:35:48Z</time>
      </trkpt>
      <trkpt lat="46.42911" lon="-0.18576">
        <ele>119.2</ele>
        <time>2020-05-30T19:35:49Z</time>
      </trkpt>
      <trkpt lat="46.42911" lon="-0.18576">
        <ele>119.2</ele>
        <time>2020-05-30T19:35:50Z</time>
      </trkpt>
      <trkpt lat="46.42911" lon="-0.18576">
        <ele>119.2</ele>
        <time>2020-05-30T19:35:51Z</time>
      </trkpt>
      <trkpt lat="46.42911" lon="-0.18576">
        <ele>119.2</ele>
        <time>2020-05-30T19:35:52Z</time>
      </trkpt>
      <trkpt lat="46.42912" lon="-0.18575">
        <ele>119.2</ele>
        <time>2020-05-30T19:35:53Z</time>
      </trkpt>
      <trkpt lat="46.42912" lon="-0.18575">
        <ele>119.2</ele>
        <time>2020-05-30T19:35:54Z</time>
      </trkpt>
      <trkpt lat="46.42912" lon="-0.18575">
        <ele>119.2</ele>
        <time>2020-05-30T19:35:55Z</time>
      </trkpt>
      <trkpt lat="46.42912" lon="-0.18575">
        <ele>119.2</ele>
        <time>2020-05-30T19:35:56Z</time>
      </trkpt>
      <trkpt lat="46.42912" lon="-0.18575">
        <ele>119.2</ele>
        <time>2020-05-30T19:35:57Z</time>
      </trkpt>
      <trkpt lat="46.42913" lon="-0.18576">
        <ele>119.2</ele>
        <time>2020-05-30T19:35:58Z</time>
      </trkpt>
      <trkpt lat="46.42913" lon="-0.18577">
        <ele>119.2</ele>
        <time>2020-05-30T19:35:59Z</time>
      </trkpt>
      <trkpt lat="46.42913" lon="-0.18577">
        <ele>119.2</ele>
        <time>2020-05-30T19:36:00Z</time>
      </trkpt>
      <trkpt lat="46.42913" lon="-0.18577">
        <ele>119.2</ele>
        <time>2020-05-30T19:36:01Z</time>
      </trkpt>
      <trkpt lat="46.42913" lon="-0.18576">
        <ele>119.2</ele>
        <time>2020-05-30T19:36:02Z</time>
      </trkpt>
      <trkpt lat="46.42913" lon="-0.18576">
        <ele>119.2</ele>
        <time>2020-05-30T19:36:03Z</time>
      </trkpt>
      <trkpt lat="46.42913" lon="-0.18576">
        <ele>119.2</ele>
        <time>2020-05-30T19:36:04Z</time>
      </trkpt>
      <trkpt lat="46.42913" lon="-0.18576">
        <ele>119.2</ele>
        <time>2020-05-30T19:36:05Z</time>
      </trkpt>
      <trkpt lat="46.42913" lon="-0.18576">
        <ele>119.2</ele>
        <time>2020-05-30T19:36:06Z</time>
      </trkpt>
      <trkpt lat="46.42912" lon="-0.18576">
        <ele>119.2</ele>
        <time>2020-05-30T19:36:07Z</time>
      </trkpt>
      <trkpt lat="46.42911" lon="-0.18576">
        <ele>119.2</ele>
        <time>2020-05-30T19:36:08Z</time>
      </trkpt>
      <trkpt lat="46.42911" lon="-0.18577">
        <ele>119.2</ele>
        <time>2020-05-30T19:36:09Z</time>
      </trkpt>
      <trkpt lat="46.42911" lon="-0.18577">
        <ele>119.2</ele>
        <time>2020-05-30T19:36:10Z</time>
      </trkpt>
      <trkpt lat="46.4291" lon="-0.18577">
        <ele>119.2</ele>
        <time>2020-05-30T19:36:11Z</time>
      </trkpt>
      <trkpt lat="46.42909" lon="-0.18576">
        <ele>119.2</ele>
        <time>2020-05-30T19:36:12Z</time>
      </trkpt>
      <trkpt lat="46.42907" lon="-0.18577">
        <ele>119.2</ele>
        <time>2020-05-30T19:36:13Z</time>
      </trkpt>
      <trkpt lat="46.42906" lon="-0.18576">
        <ele>119.2</ele>
        <time>2020-05-30T19:36:14Z</time>
      </trkpt>
      <trkpt lat="46.42905" lon="-0.18576">
        <ele>119.2</ele>
        <time>2020-05-30T19:36:15Z</time>
      </trkpt>
      <trkpt lat="46.42904" lon="-0.18576">
        <ele>119.2</ele>
        <time>2020-05-30T19:36:16Z</time>
      </trkpt>
      <trkpt lat="46.42901" lon="-0.18576">
        <ele>119.2</ele>
        <time>2020-05-30T19:36:17Z</time>
      </trkpt>
      <trkpt lat="46.42901" lon="-0.18576">
        <ele>119.2</ele>
        <time>2020-05-30T19:36:18Z</time>
      </trkpt>
      <trkpt lat="46.429" lon="-0.18576">
        <ele>119.2</ele>
        <time>2020-05-30T19:36:19Z</time>
      </trkpt>
      <trkpt lat="46.42897" lon="-0.18576">
        <ele>119.2</ele>
        <time>2020-05-30T19:36:20Z</time>
      </trkpt>
      <trkpt lat="46.42897" lon="-0.18577">
        <ele>119.2</ele>
        <time>2020-05-30T19:36:21Z</time>
      </trkpt>
      <trkpt lat="46.42895" lon="-0.18577">
        <ele>119.2</ele>
        <time>2020-05-30T19:36:22Z</time>
      </trkpt>
      <trkpt lat="46.42894" lon="-0.18576">
        <ele>119.2</ele>
        <time>2020-05-30T19:36:23Z</time>
      </trkpt>
      <trkpt lat="46.42893" lon="-0.18576">
        <ele>119.2</ele>
        <time>2020-05-30T19:36:24Z</time>
      </trkpt>
      <trkpt lat="46.42892" lon="-0.18576">
        <ele>119.2</ele>
        <time>2020-05-30T19:36:25Z</time>
      </trkpt>
      <trkpt lat="46.42892" lon="-0.18576">
        <ele>119.2</ele>
        <time>2020-05-30T19:36:26Z</time>
      </trkpt>
      <trkpt lat="46.42892" lon="-0.18576">
        <ele>119.2</ele>
        <time>2020-05-30T19:36:27Z</time>
      </trkpt>
      <trkpt lat="46.42892" lon="-0.18576">
        <ele>119.2</ele>
        <time>2020-05-30T19:36:28Z</time>
      </trkpt>
      <trkpt lat="46.42891" lon="-0.18575">
        <ele>119.2</ele>
        <time>2020-05-30T19:36:29Z</time>
      </trkpt>
      <trkpt lat="46.42889" lon="-0.18577">
        <ele>119.2</ele>
        <time>2020-05-30T19:36:30Z</time>
      </trkpt>
      <trkpt lat="46.42889" lon="-0.18577">
        <ele>119.2</ele>
        <time>2020-05-30T19:36:31Z</time>
      </trkpt>
      <trkpt lat="46.42888" lon="-0.18577">
        <ele>119.2</ele>
        <time>2020-05-30T19:36:32Z</time>
      </trkpt>
      <trkpt lat="46.42886" lon="-0.18577">
        <ele>119.1</ele>
        <time>2020-05-30T19:36:33Z</time>
      </trkpt>
      <trkpt lat="46.42885" lon="-0.18577">
        <ele>119.1</ele>
        <time>2020-05-30T19:36:34Z</time>
      </trkpt>
      <trkpt lat="46.42883" lon="-0.18578">
        <ele>119.1</ele>
        <time>2020-05-30T19:36:35Z</time>
      </trkpt>
      <trkpt lat="46.42882" lon="-0.18577">
        <ele>119.1</ele>
        <time>2020-05-30T19:36:36Z</time>
      </trkpt>
      <trkpt lat="46.42882" lon="-0.18577">
        <ele>119.1</ele>
        <time>2020-05-30T19:36:37Z</time>
      </trkpt>
      <trkpt lat="46.4288" lon="-0.18577">
        <ele>119.1</ele>
        <time>2020-05-30T19:36:38Z</time>
      </trkpt>
      <trkpt lat="46.42879" lon="-0.18577">
        <ele>119.1</ele>
        <time>2020-05-30T19:36:39Z</time>
      </trkpt>
      <trkpt lat="46.42878" lon="-0.18577">
        <ele>119.1</ele>
        <time>2020-05-30T19:36:40Z</time>
      </trkpt>
      <trkpt lat="46.42876" lon="-0.18576">
        <ele>119</ele>
        <time>2020-05-30T19:36:41Z</time>
      </trkpt>
      <trkpt lat="46.42875" lon="-0.18576">
        <ele>119</ele>
        <time>2020-05-30T19:36:42Z</time>
      </trkpt>
      <trkpt lat="46.42874" lon="-0.18576">
        <ele>119</ele>
        <time>2020-05-30T19:36:43Z</time>
      </trkpt>
      <trkpt lat="46.42873" lon="-0.18576">
        <ele>119</ele>
        <time>2020-05-30T19:36:44Z</time>
      </trkpt>
      <trkpt lat="46.42872" lon="-0.18575">
        <ele>119</ele>
        <time>2020-05-30T19:36:45Z</time>
      </trkpt>
      <trkpt lat="46.42869" lon="-0.18574">
        <ele>118.9</ele>
        <time>2020-05-30T19:36:46Z</time>
      </trkpt>
      <trkpt lat="46.42869" lon="-0.18574">
        <ele>118.9</ele>
        <time>2020-05-30T19:36:47Z</time>
      </trkpt>
      <trkpt lat="46.42868" lon="-0.18573">
        <ele>118.9</ele>
        <time>2020-05-30T19:36:48Z</time>
      </trkpt>
      <trkpt lat="46.42867" lon="-0.18572">
        <ele>118.8</ele>
        <time>2020-05-30T19:36:49Z</time>
      </trkpt>
      <trkpt lat="46.42866" lon="-0.18572">
        <ele>118.8</ele>
        <time>2020-05-30T19:36:50Z</time>
      </trkpt>
      <trkpt lat="46.42865" lon="-0.18571">
        <ele>118.8</ele>
        <time>2020-05-30T19:36:51Z</time>
      </trkpt>
      <trkpt lat="46.42864" lon="-0.18571">
        <ele>118.8</ele>
        <time>2020-05-30T19:36:52Z</time>
      </trkpt>
      <trkpt lat="46.42863" lon="-0.1857">
        <ele>118.7</ele>
        <time>2020-05-30T19:36:53Z</time>
      </trkpt>
      <trkpt lat="46.42862" lon="-0.18569">
        <ele>118.7</ele>
        <time>2020-05-30T19:36:54Z</time>
      </trkpt>
      <trkpt lat="46.42861" lon="-0.18568">
        <ele>118.6</ele>
        <time>2020-05-30T19:36:55Z</time>
      </trkpt>
      <trkpt lat="46.4286" lon="-0.18568">
        <ele>118.6</ele>
        <time>2020-05-30T19:36:56Z</time>
      </trkpt>
      <trkpt lat="46.4286" lon="-0.18566">
        <ele>118.6</ele>
        <time>2020-05-30T19:36:57Z</time>
      </trkpt>
      <trkpt lat="46.4286" lon="-0.18565">
        <ele>118.5</ele>
        <time>2020-05-30T19:36:58Z</time>
      </trkpt>
      <trkpt lat="46.42859" lon="-0.18563">
        <ele>118.5</ele>
        <time>2020-05-30T19:36:59Z</time>
      </trkpt>
      <trkpt lat="46.42858" lon="-0.18561">
        <ele>118.1</ele>
        <time>2020-05-30T19:37:00Z</time>
      </trkpt>
      <trkpt lat="46.42858" lon="-0.18561">
        <ele>118.1</ele>
        <time>2020-05-30T19:37:01Z</time>
      </trkpt>
      <trkpt lat="46.42858" lon="-0.18561">
        <ele>118.1</ele>
        <time>2020-05-30T19:37:02Z</time>
      </trkpt>
      <trkpt lat="46.42857" lon="-0.18562">
        <ele>118</ele>
        <time>2020-05-30T19:37:03Z</time>
      </trkpt>
      <trkpt lat="46.42857" lon="-0.18562">
        <ele>118</ele>
        <time>2020-05-30T19:37:04Z</time>
      </trkpt>
      <trkpt lat="46.42856" lon="-0.18561">
        <ele>117.9</ele>
        <time>2020-05-30T19:37:05Z</time>
      </trkpt>
      <trkpt lat="46.42856" lon="-0.1856">
        <ele>117.9</ele>
        <time>2020-05-30T19:37:06Z</time>
      </trkpt>
      <trkpt lat="46.42856" lon="-0.18559">
        <ele>117.8</ele>
        <time>2020-05-30T19:37:07Z</time>
      </trkpt>
      <trkpt lat="46.42855" lon="-0.18559">
        <ele>117.8</ele>
        <time>2020-05-30T19:37:08Z</time>
      </trkpt>
      <trkpt lat="46.42855" lon="-0.18559">
        <ele>117.8</ele>
        <time>2020-05-30T19:37:09Z</time>
      </trkpt>
      <trkpt lat="46.42856" lon="-0.18559">
        <ele>117.8</ele>
        <time>2020-05-30T19:37:10Z</time>
      </trkpt>
      <trkpt lat="46.42856" lon="-0.18559">
        <ele>117.7</ele>
        <time>2020-05-30T19:37:11Z</time>
      </trkpt>
      <trkpt lat="46.42856" lon="-0.18559">
        <ele>117.7</ele>
        <time>2020-05-30T19:37:12Z</time>
      </trkpt>
      <trkpt lat="46.42856" lon="-0.18559">
        <ele>117.7</ele>
        <time>2020-05-30T19:37:13Z</time>
      </trkpt>
      <trkpt lat="46.42856" lon="-0.18559">
        <ele>117.7</ele>
        <time>2020-05-30T19:37:14Z</time>
      </trkpt>
      <trkpt lat="46.42856" lon="-0.18559">
        <ele>117.7</ele>
        <time>2020-05-30T19:37:15Z</time>
      </trkpt>
      <trkpt lat="46.42856" lon="-0.18559">
        <ele>117.7</ele>
        <time>2020-05-30T19:37:16Z</time>
      </trkpt>
      <trkpt lat="46.42856" lon="-0.1856">
        <ele>117.7</ele>
        <time>2020-05-30T19:37:17Z</time>
      </trkpt>
      <trkpt lat="46.42856" lon="-0.1856">
        <ele>117.6</ele>
        <time>2020-05-30T19:37:18Z</time>
      </trkpt>
      <trkpt lat="46.42856" lon="-0.1856">
        <ele>117.6</ele>
        <time>2020-05-30T19:37:19Z</time>
      </trkpt>
      <trkpt lat="46.42857" lon="-0.18561">
        <ele>117.6</ele>
        <time>2020-05-30T19:37:20Z</time>
      </trkpt>
      <trkpt lat="46.42856" lon="-0.18561">
        <ele>117.6</ele>
        <time>2020-05-30T19:37:21Z</time>
      </trkpt>
      <trkpt lat="46.42856" lon="-0.18561">
        <ele>117.5</ele>
        <time>2020-05-30T19:37:22Z</time>
      </trkpt>
      <trkpt lat="46.42856" lon="-0.18561">
        <ele>117.5</ele>
        <time>2020-05-30T19:37:23Z</time>
      </trkpt>
      <trkpt lat="46.42855" lon="-0.18561">
        <ele>117.5</ele>
        <time>2020-05-30T19:37:24Z</time>
      </trkpt>
      <trkpt lat="46.42856" lon="-0.18562">
        <ele>117.4</ele>
        <time>2020-05-30T19:37:25Z</time>
      </trkpt>
      <trkpt lat="46.42856" lon="-0.18562">
        <ele>117.4</ele>
        <time>2020-05-30T19:37:26Z</time>
      </trkpt>
      <trkpt lat="46.42856" lon="-0.18561">
        <ele>117.3</ele>
        <time>2020-05-30T19:37:27Z</time>
      </trkpt>
      <trkpt lat="46.42856" lon="-0.18561">
        <ele>117.3</ele>
        <time>2020-05-30T19:37:28Z</time>
      </trkpt>
      <trkpt lat="46.42856" lon="-0.18561">
        <ele>117.3</ele>
        <time>2020-05-30T19:37:29Z</time>
      </trkpt>
      <trkpt lat="46.42856" lon="-0.18562">
        <ele>117.3</ele>
        <time>2020-05-30T19:37:30Z</time>
      </trkpt>
      <trkpt lat="46.42857" lon="-0.18562">
        <ele>117.2</ele>
        <time>2020-05-30T19:37:31Z</time>
      </trkpt>
      <trkpt lat="46.42856" lon="-0.18562">
        <ele>117.2</ele>
        <time>2020-05-30T19:37:32Z</time>
      </trkpt>
      <trkpt lat="46.42856" lon="-0.18563">
        <ele>117.2</ele>
        <time>2020-05-30T19:37:33Z</time>
      </trkpt>
      <trkpt lat="46.42856" lon="-0.18562">
        <ele>117.2</ele>
        <time>2020-05-30T19:37:34Z</time>
      </trkpt>
      <trkpt lat="46.42856" lon="-0.18562">
        <ele>117.1</ele>
        <time>2020-05-30T19:37:35Z</time>
      </trkpt>
      <trkpt lat="46.42856" lon="-0.18562">
        <ele>117.1</ele>
        <time>2020-05-30T19:37:36Z</time>
      </trkpt>
      <trkpt lat="46.42857" lon="-0.18562">
        <ele>117.1</ele>
        <time>2020-05-30T19:37:37Z</time>
      </trkpt>
      <trkpt lat="46.42857" lon="-0.18563">
        <ele>117</ele>
        <time>2020-05-30T19:37:38Z</time>
      </trkpt>
      <trkpt lat="46.42857" lon="-0.18563">
        <ele>117</ele>
        <time>2020-05-30T19:37:39Z</time>
      </trkpt>
      <trkpt lat="46.42857" lon="-0.18563">
        <ele>117</ele>
        <time>2020-05-30T19:37:40Z</time>
      </trkpt>
      <trkpt lat="46.42856" lon="-0.18564">
        <ele>116.9</ele>
        <time>2020-05-30T19:37:41Z</time>
      </trkpt>
      <trkpt lat="46.42856" lon="-0.18564">
        <ele>116.9</ele>
        <time>2020-05-30T19:37:42Z</time>
      </trkpt>
      <trkpt lat="46.42856" lon="-0.18564">
        <ele>116.9</ele>
        <time>2020-05-30T19:37:43Z</time>
      </trkpt>
      <trkpt lat="46.42856" lon="-0.18565">
        <ele>116.9</ele>
        <time>2020-05-30T19:37:44Z</time>
      </trkpt>
      <trkpt lat="46.42856" lon="-0.18565">
        <ele>116.8</ele>
        <time>2020-05-30T19:37:45Z</time>
      </trkpt>
      <trkpt lat="46.42856" lon="-0.18564">
        <ele>116.8</ele>
        <time>2020-05-30T19:37:46Z</time>
      </trkpt>
      <trkpt lat="46.42855" lon="-0.18564">
        <ele>116.8</ele>
        <time>2020-05-30T19:37:47Z</time>
      </trkpt>
      <trkpt lat="46.42855" lon="-0.18563">
        <ele>116.7</ele>
        <time>2020-05-30T19:37:48Z</time>
      </trkpt>
      <trkpt lat="46.42856" lon="-0.18562">
        <ele>116.6</ele>
        <time>2020-05-30T19:37:49Z</time>
      </trkpt>
      <trkpt lat="46.42856" lon="-0.18562">
        <ele>116.5</ele>
        <time>2020-05-30T19:37:50Z</time>
      </trkpt>
      <trkpt lat="46.42856" lon="-0.18561">
        <ele>116.5</ele>
        <time>2020-05-30T19:37:51Z</time>
      </trkpt>
      <trkpt lat="46.42856" lon="-0.18559">
        <ele>116.4</ele>
        <time>2020-05-30T19:37:52Z</time>
      </trkpt>
      <trkpt lat="46.42856" lon="-0.18557">
        <ele>116.2</ele>
        <time>2020-05-30T19:37:53Z</time>
      </trkpt>
      <trkpt lat="46.42855" lon="-0.18555">
        <ele>116.1</ele>
        <time>2020-05-30T19:37:54Z</time>
      </trkpt>
      <trkpt lat="46.42855" lon="-0.18553">
        <ele>115.9</ele>
        <time>2020-05-30T19:37:55Z</time>
      </trkpt>
      <trkpt lat="46.42855" lon="-0.18552">
        <ele>115.8</ele>
        <time>2020-05-30T19:37:56Z</time>
      </trkpt>
      <trkpt lat="46.42854" lon="-0.18551">
        <ele>115.8</ele>
        <time>2020-05-30T19:37:57Z</time>
      </trkpt>
      <trkpt lat="46.42854" lon="-0.1855">
        <ele>115.7</ele>
        <time>2020-05-30T19:37:58Z</time>
      </trkpt>
      <trkpt lat="46.42853" lon="-0.18549">
        <ele>115.6</ele>
        <time>2020-05-30T19:37:59Z</time>
      </trkpt>
      <trkpt lat="46.42853" lon="-0.18548">
        <ele>115.5</ele>
        <time>2020-05-30T19:38:00Z</time>
      </trkpt>
      <trkpt lat="46.42853" lon="-0.18547">
        <ele>115.4</ele>
        <time>2020-05-30T19:38:01Z</time>
      </trkpt>
      <trkpt lat="46.42853" lon="-0.18546">
        <ele>115.3</ele>
        <time>2020-05-30T19:38:02Z</time>
      </trkpt>
      <trkpt lat="46.42852" lon="-0.18545">
        <ele>115.2</ele>
        <time>2020-05-30T19:38:03Z</time>
      </trkpt>
      <trkpt lat="46.42851" lon="-0.18545">
        <ele>115.2</ele>
        <time>2020-05-30T19:38:04Z</time>
      </trkpt>
      <trkpt lat="46.42852" lon="-0.18544">
        <ele>115.1</ele>
        <time>2020-05-30T19:38:05Z</time>
      </trkpt>
      <trkpt lat="46.42853" lon="-0.18544">
        <ele>115</ele>
        <time>2020-05-30T19:38:06Z</time>
      </trkpt>
      <trkpt lat="46.42852" lon="-0.18545">
        <ele>115</ele>
        <time>2020-05-30T19:38:07Z</time>
      </trkpt>
      <trkpt lat="46.42852" lon="-0.18544">
        <ele>114.9</ele>
        <time>2020-05-30T19:38:08Z</time>
      </trkpt>
      <trkpt lat="46.42852" lon="-0.18543">
        <ele>114.8</ele>
        <time>2020-05-30T19:38:09Z</time>
      </trkpt>
      <trkpt lat="46.42852" lon="-0.18542">
        <ele>114.8</ele>
        <time>2020-05-30T19:38:10Z</time>
      </trkpt>
      <trkpt lat="46.42852" lon="-0.18542">
        <ele>114.8</ele>
        <time>2020-05-30T19:38:11Z</time>
      </trkpt>
      <trkpt lat="46.42852" lon="-0.18542">
        <ele>114.7</ele>
        <time>2020-05-30T19:38:12Z</time>
      </trkpt>
      <trkpt lat="46.42852" lon="-0.18541">
        <ele>114.7</ele>
        <time>2020-05-30T19:38:13Z</time>
      </trkpt>
      <trkpt lat="46.42852" lon="-0.1854">
        <ele>114.6</ele>
        <time>2020-05-30T19:38:14Z</time>
      </trkpt>
      <trkpt lat="46.42851" lon="-0.18539">
        <ele>114.5</ele>
        <time>2020-05-30T19:38:15Z</time>
      </trkpt>
      <trkpt lat="46.4285" lon="-0.18538">
        <ele>114.4</ele>
        <time>2020-05-30T19:38:16Z</time>
      </trkpt>
      <trkpt lat="46.4285" lon="-0.18538">
        <ele>114.4</ele>
        <time>2020-05-30T19:38:17Z</time>
      </trkpt>
      <trkpt lat="46.42849" lon="-0.18538">
        <ele>114.3</ele>
        <time>2020-05-30T19:38:18Z</time>
      </trkpt>
      <trkpt lat="46.42849" lon="-0.18538">
        <ele>114.2</ele>
        <time>2020-05-30T19:38:19Z</time>
      </trkpt>
      <trkpt lat="46.42848" lon="-0.18538">
        <ele>114.2</ele>
        <time>2020-05-30T19:38:20Z</time>
      </trkpt>
      <trkpt lat="46.42848" lon="-0.18537">
        <ele>114.1</ele>
        <time>2020-05-30T19:38:21Z</time>
      </trkpt>
      <trkpt lat="46.42848" lon="-0.18537">
        <ele>114.1</ele>
        <time>2020-05-30T19:38:22Z</time>
      </trkpt>
      <trkpt lat="46.42848" lon="-0.18537">
        <ele>114.1</ele>
        <time>2020-05-30T19:38:23Z</time>
      </trkpt>
      <trkpt lat="46.42848" lon="-0.18536">
        <ele>114</ele>
        <time>2020-05-30T19:38:24Z</time>
      </trkpt>
      <trkpt lat="46.42847" lon="-0.18535">
        <ele>113.9</ele>
        <time>2020-05-30T19:38:25Z</time>
      </trkpt>
      <trkpt lat="46.42847" lon="-0.18534">
        <ele>113.8</ele>
        <time>2020-05-30T19:38:26Z</time>
      </trkpt>
      <trkpt lat="46.42847" lon="-0.18533">
        <ele>113.7</ele>
        <time>2020-05-30T19:38:27Z</time>
      </trkpt>
      <trkpt lat="46.42847" lon="-0.18531">
        <ele>113.6</ele>
        <time>2020-05-30T19:38:28Z</time>
      </trkpt>
      <trkpt lat="46.42847" lon="-0.1853">
        <ele>113.5</ele>
        <time>2020-05-30T19:38:29Z</time>
      </trkpt>
      <trkpt lat="46.42847" lon="-0.1853">
        <ele>113.5</ele>
        <time>2020-05-30T19:38:30Z</time>
      </trkpt>
      <trkpt lat="46.42847" lon="-0.18528">
        <ele>113.4</ele>
        <time>2020-05-30T19:38:31Z</time>
      </trkpt>
      <trkpt lat="46.42847" lon="-0.18527">
        <ele>113.3</ele>
        <time>2020-05-30T19:38:32Z</time>
      </trkpt>
      <trkpt lat="46.42847" lon="-0.18526">
        <ele>113.2</ele>
        <time>2020-05-30T19:38:33Z</time>
      </trkpt>
      <trkpt lat="46.42848" lon="-0.18524">
        <ele>113.1</ele>
        <time>2020-05-30T19:38:34Z</time>
      </trkpt>
      <trkpt lat="46.42847" lon="-0.18523">
        <ele>113</ele>
        <time>2020-05-30T19:38:35Z</time>
      </trkpt>
      <trkpt lat="46.42847" lon="-0.18523">
        <ele>113</ele>
        <time>2020-05-30T19:38:36Z</time>
      </trkpt>
      <trkpt lat="46.42847" lon="-0.18523">
        <ele>112.9</ele>
        <time>2020-05-30T19:38:37Z</time>
      </trkpt>
      <trkpt lat="46.42845" lon="-0.18522">
        <ele>112.7</ele>
        <time>2020-05-30T19:38:38Z</time>
      </trkpt>
      <trkpt lat="46.42844" lon="-0.18519">
        <ele>112.5</ele>
        <time>2020-05-30T19:38:39Z</time>
      </trkpt>
      <trkpt lat="46.42844" lon="-0.18518">
        <ele>112.4</ele>
        <time>2020-05-30T19:38:40Z</time>
      </trkpt>
      <trkpt lat="46.42844" lon="-0.18515">
        <ele>112.2</ele>
        <time>2020-05-30T19:38:41Z</time>
      </trkpt>
      <trkpt lat="46.42843" lon="-0.18513">
        <ele>112.1</ele>
        <time>2020-05-30T19:38:42Z</time>
      </trkpt>
      <trkpt lat="46.42843" lon="-0.18511">
        <ele>111.9</ele>
        <time>2020-05-30T19:38:43Z</time>
      </trkpt>
      <trkpt lat="46.42842" lon="-0.18509">
        <ele>111.7</ele>
        <time>2020-05-30T19:38:44Z</time>
      </trkpt>
      <trkpt lat="46.42841" lon="-0.18506">
        <ele>111.5</ele>
        <time>2020-05-30T19:38:45Z</time>
      </trkpt>
      <trkpt lat="46.4284" lon="-0.18505">
        <ele>111.4</ele>
        <time>2020-05-30T19:38:46Z</time>
      </trkpt>
      <trkpt lat="46.4284" lon="-0.18504">
        <ele>111.3</ele>
        <time>2020-05-30T19:38:47Z</time>
      </trkpt>
      <trkpt lat="46.42837" lon="-0.185">
        <ele>110.8</ele>
        <time>2020-05-30T19:38:48Z</time>
      </trkpt>
      <trkpt lat="46.42835" lon="-0.18499">
        <ele>110.7</ele>
        <time>2020-05-30T19:38:49Z</time>
      </trkpt>
      <trkpt lat="46.42835" lon="-0.18499">
        <ele>110.6</ele>
        <time>2020-05-30T19:38:50Z</time>
      </trkpt>
      <trkpt lat="46.42834" lon="-0.18497">
        <ele>110.5</ele>
        <time>2020-05-30T19:38:51Z</time>
      </trkpt>
      <trkpt lat="46.42834" lon="-0.18495">
        <ele>110.3</ele>
        <time>2020-05-30T19:38:52Z</time>
      </trkpt>
      <trkpt lat="46.42834" lon="-0.18495">
        <ele>110.3</ele>
        <time>2020-05-30T19:38:53Z</time>
      </trkpt>
      <trkpt lat="46.42834" lon="-0.18495">
        <ele>110.3</ele>
        <time>2020-05-30T19:38:54Z</time>
      </trkpt>
      <trkpt lat="46.42834" lon="-0.18494">
        <ele>110.2</ele>
        <time>2020-05-30T19:38:55Z</time>
      </trkpt>
      <trkpt lat="46.42833" lon="-0.18494">
        <ele>110.1</ele>
        <time>2020-05-30T19:38:56Z</time>
      </trkpt>
      <trkpt lat="46.42833" lon="-0.18493">
        <ele>110.1</ele>
        <time>2020-05-30T19:38:57Z</time>
      </trkpt>
      <trkpt lat="46.42833" lon="-0.18493">
        <ele>110.1</ele>
        <time>2020-05-30T19:38:58Z</time>
      </trkpt>
      <trkpt lat="46.42833" lon="-0.18493">
        <ele>110</ele>
        <time>2020-05-30T19:38:59Z</time>
      </trkpt>
      <trkpt lat="46.42833" lon="-0.18493">
        <ele>110</ele>
        <time>2020-05-30T19:39:00Z</time>
      </trkpt>
      <trkpt lat="46.42833" lon="-0.18493">
        <ele>110</ele>
        <time>2020-05-30T19:39:01Z</time>
      </trkpt>
      <trkpt lat="46.42831" lon="-0.18492">
        <ele>109.8</ele>
        <time>2020-05-30T19:39:02Z</time>
      </trkpt>
      <trkpt lat="46.4283" lon="-0.18489">
        <ele>109.5</ele>
        <time>2020-05-30T19:39:03Z</time>
      </trkpt>
      <trkpt lat="46.42828" lon="-0.18485">
        <ele>109.1</ele>
        <time>2020-05-30T19:39:04Z</time>
      </trkpt>
      <trkpt lat="46.42827" lon="-0.18484">
        <ele>108.9</ele>
        <time>2020-05-30T19:39:05Z</time>
      </trkpt>
      <trkpt lat="46.42824" lon="-0.1848">
        <ele>108.5</ele>
        <time>2020-05-30T19:39:06Z</time>
      </trkpt>
      <trkpt lat="46.42823" lon="-0.18479">
        <ele>108.3</ele>
        <time>2020-05-30T19:39:07Z</time>
      </trkpt>
      <trkpt lat="46.42823" lon="-0.18475">
        <ele>108</ele>
        <time>2020-05-30T19:39:08Z</time>
      </trkpt>
      <trkpt lat="46.42822" lon="-0.18474">
        <ele>107.9</ele>
        <time>2020-05-30T19:39:09Z</time>
      </trkpt>
      <trkpt lat="46.42822" lon="-0.18473">
        <ele>107.7</ele>
        <time>2020-05-30T19:39:10Z</time>
      </trkpt>
      <trkpt lat="46.42822" lon="-0.18471">
        <ele>107.6</ele>
        <time>2020-05-30T19:39:11Z</time>
      </trkpt>
      <trkpt lat="46.42821" lon="-0.1847">
        <ele>107.4</ele>
        <time>2020-05-30T19:39:12Z</time>
      </trkpt>
      <trkpt lat="46.4282" lon="-0.18468">
        <ele>107.2</ele>
        <time>2020-05-30T19:39:13Z</time>
      </trkpt>
      <trkpt lat="46.42819" lon="-0.18467">
        <ele>107</ele>
        <time>2020-05-30T19:39:14Z</time>
      </trkpt>
      <trkpt lat="46.42819" lon="-0.18465">
        <ele>106.9</ele>
        <time>2020-05-30T19:39:15Z</time>
      </trkpt>
      <trkpt lat="46.42818" lon="-0.18464">
        <ele>106.7</ele>
        <time>2020-05-30T19:39:16Z</time>
      </trkpt>
      <trkpt lat="46.42818" lon="-0.18462">
        <ele>106.6</ele>
        <time>2020-05-30T19:39:17Z</time>
      </trkpt>
      <trkpt lat="46.42818" lon="-0.18463">
        <ele>106.5</ele>
        <time>2020-05-30T19:39:18Z</time>
      </trkpt>
      <trkpt lat="46.42818" lon="-0.18463">
        <ele>106.4</ele>
        <time>2020-05-30T19:39:19Z</time>
      </trkpt>
      <trkpt lat="46.42817" lon="-0.18462">
        <ele>106.3</ele>
        <time>2020-05-30T19:39:20Z</time>
      </trkpt>
      <trkpt lat="46.42817" lon="-0.18461">
        <ele>106.2</ele>
        <time>2020-05-30T19:39:21Z</time>
      </trkpt>
      <trkpt lat="46.42816" lon="-0.1846">
        <ele>106</ele>
        <time>2020-05-30T19:39:22Z</time>
      </trkpt>
      <trkpt lat="46.42815" lon="-0.18459">
        <ele>105.9</ele>
        <time>2020-05-30T19:39:23Z</time>
      </trkpt>
      <trkpt lat="46.42814" lon="-0.18458">
        <ele>105.7</ele>
        <time>2020-05-30T19:39:24Z</time>
      </trkpt>
      <trkpt lat="46.42814" lon="-0.18457">
        <ele>105.6</ele>
        <time>2020-05-30T19:39:25Z</time>
      </trkpt>
      <trkpt lat="46.42814" lon="-0.18457">
        <ele>105.5</ele>
        <time>2020-05-30T19:39:26Z</time>
      </trkpt>
      <trkpt lat="46.42813" lon="-0.18455">
        <ele>105.4</ele>
        <time>2020-05-30T19:39:27Z</time>
      </trkpt>
      <trkpt lat="46.42812" lon="-0.18454">
        <ele>105.2</ele>
        <time>2020-05-30T19:39:28Z</time>
      </trkpt>
      <trkpt lat="46.42811" lon="-0.18453">
        <ele>105</ele>
        <time>2020-05-30T19:39:29Z</time>
      </trkpt>
      <trkpt lat="46.4281" lon="-0.18451">
        <ele>104.8</ele>
        <time>2020-05-30T19:39:30Z</time>
      </trkpt>
      <trkpt lat="46.4281" lon="-0.18451">
        <ele>104.7</ele>
        <time>2020-05-30T19:39:31Z</time>
      </trkpt>
      <trkpt lat="46.4281" lon="-0.1845">
        <ele>104.6</ele>
        <time>2020-05-30T19:39:32Z</time>
      </trkpt>
      <trkpt lat="46.4281" lon="-0.18449">
        <ele>104.5</ele>
        <time>2020-05-30T19:39:33Z</time>
      </trkpt>
      <trkpt lat="46.42809" lon="-0.18448">
        <ele>104.4</ele>
        <time>2020-05-30T19:39:34Z</time>
      </trkpt>
      <trkpt lat="46.42808" lon="-0.18447">
        <ele>104.2</ele>
        <time>2020-05-30T19:39:35Z</time>
      </trkpt>
      <trkpt lat="46.42807" lon="-0.18447">
        <ele>104.2</ele>
        <time>2020-05-30T19:39:36Z</time>
      </trkpt>
      <trkpt lat="46.42807" lon="-0.18447">
        <ele>104.1</ele>
        <time>2020-05-30T19:39:37Z</time>
      </trkpt>
      <trkpt lat="46.42806" lon="-0.18447">
        <ele>103.9</ele>
        <time>2020-05-30T19:39:38Z</time>
      </trkpt>
      <trkpt lat="46.42806" lon="-0.18446">
        <ele>103.9</ele>
        <time>2020-05-30T19:39:39Z</time>
      </trkpt>
      <trkpt lat="46.42806" lon="-0.18446">
        <ele>103.8</ele>
        <time>2020-05-30T19:39:40Z</time>
      </trkpt>
      <trkpt lat="46.42806" lon="-0.18446">
        <ele>103.8</ele>
        <time>2020-05-30T19:39:41Z</time>
      </trkpt>
      <trkpt lat="46.42806" lon="-0.18444">
        <ele>103.7</ele>
        <time>2020-05-30T19:39:42Z</time>
      </trkpt>
      <trkpt lat="46.42805" lon="-0.18443">
        <ele>103.6</ele>
        <time>2020-05-30T19:39:43Z</time>
      </trkpt>
      <trkpt lat="46.42805" lon="-0.18443">
        <ele>103.5</ele>
        <time>2020-05-30T19:39:44Z</time>
      </trkpt>
      <trkpt lat="46.42804" lon="-0.18442">
        <ele>103.3</ele>
        <time>2020-05-30T19:39:45Z</time>
      </trkpt>
      <trkpt lat="46.42804" lon="-0.18442">
        <ele>103.3</ele>
        <time>2020-05-30T19:39:46Z</time>
      </trkpt>
      <trkpt lat="46.42803" lon="-0.18442">
        <ele>103.2</ele>
        <time>2020-05-30T19:39:47Z</time>
      </trkpt>
      <trkpt lat="46.42803" lon="-0.18442">
        <ele>103.2</ele>
        <time>2020-05-30T19:39:48Z</time>
      </trkpt>
      <trkpt lat="46.42803" lon="-0.18442">
        <ele>103.1</ele>
        <time>2020-05-30T19:39:49Z</time>
      </trkpt>
      <trkpt lat="46.42803" lon="-0.18441">
        <ele>103.1</ele>
        <time>2020-05-30T19:39:50Z</time>
      </trkpt>
      <trkpt lat="46.42802" lon="-0.18441">
        <ele>102.4</ele>
        <time>2020-05-30T19:39:51Z</time>
      </trkpt>
      <trkpt lat="46.42802" lon="-0.1844">
        <ele>102.5</ele>
        <time>2020-05-30T19:39:52Z</time>
      </trkpt>
      <trkpt lat="46.42801" lon="-0.18439">
        <ele>102.5</ele>
        <time>2020-05-30T19:39:53Z</time>
      </trkpt>
      <trkpt lat="46.42801" lon="-0.18438">
        <ele>102.6</ele>
        <time>2020-05-30T19:39:54Z</time>
      </trkpt>
      <trkpt lat="46.42802" lon="-0.18437">
        <ele>102.6</ele>
        <time>2020-05-30T19:39:55Z</time>
      </trkpt>
      <trkpt lat="46.42802" lon="-0.18437">
        <ele>102.7</ele>
        <time>2020-05-30T19:39:56Z</time>
      </trkpt>
      <trkpt lat="46.42802" lon="-0.18436">
        <ele>102.7</ele>
        <time>2020-05-30T19:39:57Z</time>
      </trkpt>
      <trkpt lat="46.42802" lon="-0.18436">
        <ele>102.7</ele>
        <time>2020-05-30T19:39:58Z</time>
      </trkpt>
      <trkpt lat="46.42802" lon="-0.18436">
        <ele>102.7</ele>
        <time>2020-05-30T19:39:59Z</time>
      </trkpt>
      <trkpt lat="46.42802" lon="-0.18437">
        <ele>102.8</ele>
        <time>2020-05-30T19:40:00Z</time>
      </trkpt>
      <trkpt lat="46.42801" lon="-0.18436">
        <ele>102.8</ele>
        <time>2020-05-30T19:40:01Z</time>
      </trkpt>
      <trkpt lat="46.42801" lon="-0.18435">
        <ele>102.9</ele>
        <time>2020-05-30T19:40:02Z</time>
      </trkpt>
      <trkpt lat="46.42801" lon="-0.18435">
        <ele>102.9</ele>
        <time>2020-05-30T19:40:03Z</time>
      </trkpt>
      <trkpt lat="46.428" lon="-0.18434">
        <ele>103</ele>
        <time>2020-05-30T19:40:04Z</time>
      </trkpt>
      <trkpt lat="46.42799" lon="-0.18433">
        <ele>103</ele>
        <time>2020-05-30T19:40:05Z</time>
      </trkpt>
      <trkpt lat="46.42798" lon="-0.18432">
        <ele>103</ele>
        <time>2020-05-30T19:40:06Z</time>
      </trkpt>
      <trkpt lat="46.42798" lon="-0.18432">
        <ele>103.1</ele>
        <time>2020-05-30T19:40:07Z</time>
      </trkpt>
      <trkpt lat="46.42797" lon="-0.1843">
        <ele>103.1</ele>
        <time>2020-05-30T19:40:08Z</time>
      </trkpt>
      <trkpt lat="46.42796" lon="-0.18429">
        <ele>103.1</ele>
        <time>2020-05-30T19:40:09Z</time>
      </trkpt>
      <trkpt lat="46.42796" lon="-0.18427">
        <ele>103.2</ele>
        <time>2020-05-30T19:40:10Z</time>
      </trkpt>
      <trkpt lat="46.42795" lon="-0.18427">
        <ele>103.2</ele>
        <time>2020-05-30T19:40:11Z</time>
      </trkpt>
      <trkpt lat="46.42795" lon="-0.18426">
        <ele>103.2</ele>
        <time>2020-05-30T19:40:12Z</time>
      </trkpt>
      <trkpt lat="46.42794" lon="-0.18426">
        <ele>103.2</ele>
        <time>2020-05-30T19:40:13Z</time>
      </trkpt>
      <trkpt lat="46.42793" lon="-0.18425">
        <ele>103.2</ele>
        <time>2020-05-30T19:40:14Z</time>
      </trkpt>
      <trkpt lat="46.42793" lon="-0.18423">
        <ele>103.2</ele>
        <time>2020-05-30T19:40:15Z</time>
      </trkpt>
      <trkpt lat="46.42792" lon="-0.18422">
        <ele>103.2</ele>
        <time>2020-05-30T19:40:16Z</time>
      </trkpt>
      <trkpt lat="46.42791" lon="-0.18421">
        <ele>103.1</ele>
        <time>2020-05-30T19:40:17Z</time>
      </trkpt>
      <trkpt lat="46.4279" lon="-0.1842">
        <ele>103.1</ele>
        <time>2020-05-30T19:40:18Z</time>
      </trkpt>
      <trkpt lat="46.42789" lon="-0.18419">
        <ele>103.1</ele>
        <time>2020-05-30T19:40:19Z</time>
      </trkpt>
      <trkpt lat="46.42788" lon="-0.18418">
        <ele>103</ele>
        <time>2020-05-30T19:40:20Z</time>
      </trkpt>
      <trkpt lat="46.42787" lon="-0.18417">
        <ele>103</ele>
        <time>2020-05-30T19:40:21Z</time>
      </trkpt>
      <trkpt lat="46.42786" lon="-0.18416">
        <ele>102.9</ele>
        <time>2020-05-30T19:40:22Z</time>
      </trkpt>
      <trkpt lat="46.42785" lon="-0.18416">
        <ele>102.9</ele>
        <time>2020-05-30T19:40:23Z</time>
      </trkpt>
      <trkpt lat="46.42785" lon="-0.18416">
        <ele>102.9</ele>
        <time>2020-05-30T19:40:24Z</time>
      </trkpt>
      <trkpt lat="46.42784" lon="-0.18414">
        <ele>102.8</ele>
        <time>2020-05-30T19:40:25Z</time>
      </trkpt>
      <trkpt lat="46.42784" lon="-0.18413">
        <ele>102.7</ele>
        <time>2020-05-30T19:40:26Z</time>
      </trkpt>
      <trkpt lat="46.42783" lon="-0.18413">
        <ele>102.7</ele>
        <time>2020-05-30T19:40:27Z</time>
      </trkpt>
      <trkpt lat="46.42783" lon="-0.18412">
        <ele>102.7</ele>
        <time>2020-05-30T19:40:28Z</time>
      </trkpt>
      <trkpt lat="46.42783" lon="-0.18412">
        <ele>102.7</ele>
        <time>2020-05-30T19:40:29Z</time>
      </trkpt>
      <trkpt lat="46.42783" lon="-0.18412">
        <ele>102.7</ele>
        <time>2020-05-30T19:40:30Z</time>
      </trkpt>
      <trkpt lat="46.42783" lon="-0.1841">
        <ele>102.6</ele>
        <time>2020-05-30T19:40:31Z</time>
      </trkpt>
      <trkpt lat="46.42783" lon="-0.18409">
        <ele>102.6</ele>
        <time>2020-05-30T19:40:32Z</time>
      </trkpt>
      <trkpt lat="46.42784" lon="-0.18409">
        <ele>102.5</ele>
        <time>2020-05-30T19:40:33Z</time>
      </trkpt>
      <trkpt lat="46.42783" lon="-0.18408">
        <ele>102.5</ele>
        <time>2020-05-30T19:40:34Z</time>
      </trkpt>
      <trkpt lat="46.42783" lon="-0.18408">
        <ele>102.4</ele>
        <time>2020-05-30T19:40:35Z</time>
      </trkpt>
      <trkpt lat="46.42782" lon="-0.18408">
        <ele>102.4</ele>
        <time>2020-05-30T19:40:36Z</time>
      </trkpt>
      <trkpt lat="46.42781" lon="-0.18407">
        <ele>102.3</ele>
        <time>2020-05-30T19:40:37Z</time>
      </trkpt>
      <trkpt lat="46.4278" lon="-0.18407">
        <ele>102.2</ele>
        <time>2020-05-30T19:40:38Z</time>
      </trkpt>
      <trkpt lat="46.42779" lon="-0.18407">
        <ele>102.1</ele>
        <time>2020-05-30T19:40:39Z</time>
      </trkpt>
      <trkpt lat="46.42779" lon="-0.18406">
        <ele>102.1</ele>
        <time>2020-05-30T19:40:40Z</time>
      </trkpt>
      <trkpt lat="46.42778" lon="-0.18406">
        <ele>102</ele>
        <time>2020-05-30T19:40:41Z</time>
      </trkpt>
      <trkpt lat="46.42777" lon="-0.18406">
        <ele>101.9</ele>
        <time>2020-05-30T19:40:42Z</time>
      </trkpt>
      <trkpt lat="46.42777" lon="-0.18404">
        <ele>101.8</ele>
        <time>2020-05-30T19:40:43Z</time>
      </trkpt>
      <trkpt lat="46.42776" lon="-0.18403">
        <ele>101.7</ele>
        <time>2020-05-30T19:40:44Z</time>
      </trkpt>
      <trkpt lat="46.42775" lon="-0.18402">
        <ele>101.6</ele>
        <time>2020-05-30T19:40:45Z</time>
      </trkpt>
      <trkpt lat="46.42774" lon="-0.18402">
        <ele>101.5</ele>
        <time>2020-05-30T19:40:46Z</time>
      </trkpt>
      <trkpt lat="46.42774" lon="-0.18401">
        <ele>101.4</ele>
        <time>2020-05-30T19:40:47Z</time>
      </trkpt>
      <trkpt lat="46.42773" lon="-0.18401">
        <ele>101.3</ele>
        <time>2020-05-30T19:40:48Z</time>
      </trkpt>
      <trkpt lat="46.42772" lon="-0.184">
        <ele>101.2</ele>
        <time>2020-05-30T19:40:49Z</time>
      </trkpt>
      <trkpt lat="46.42771" lon="-0.18399">
        <ele>101.2</ele>
        <time>2020-05-30T19:40:50Z</time>
      </trkpt>
      <trkpt lat="46.42771" lon="-0.18398">
        <ele>101</ele>
        <time>2020-05-30T19:40:51Z</time>
      </trkpt>
      <trkpt lat="46.42769" lon="-0.18396">
        <ele>100.9</ele>
        <time>2020-05-30T19:40:52Z</time>
      </trkpt>
      <trkpt lat="46.42769" lon="-0.18395">
        <ele>100.8</ele>
        <time>2020-05-30T19:40:53Z</time>
      </trkpt>
      <trkpt lat="46.42768" lon="-0.18394">
        <ele>100.7</ele>
        <time>2020-05-30T19:40:54Z</time>
      </trkpt>
      <trkpt lat="46.42766" lon="-0.18391">
        <ele>100.4</ele>
        <time>2020-05-30T19:40:55Z</time>
      </trkpt>
      <trkpt lat="46.42766" lon="-0.1839">
        <ele>100.3</ele>
        <time>2020-05-30T19:40:56Z</time>
      </trkpt>
      <trkpt lat="46.42765" lon="-0.18389">
        <ele>100.2</ele>
        <time>2020-05-30T19:40:57Z</time>
      </trkpt>
      <trkpt lat="46.42764" lon="-0.18388">
        <ele>100.2</ele>
        <time>2020-05-30T19:40:58Z</time>
      </trkpt>
      <trkpt lat="46.42764" lon="-0.18388">
        <ele>100.2</ele>
        <time>2020-05-30T19:40:59Z</time>
      </trkpt>
      <trkpt lat="46.42764" lon="-0.18388">
        <ele>100.1</ele>
        <time>2020-05-30T19:41:00Z</time>
      </trkpt>
      <trkpt lat="46.42763" lon="-0.18387">
        <ele>100.1</ele>
        <time>2020-05-30T19:41:01Z</time>
      </trkpt>
      <trkpt lat="46.42763" lon="-0.18386">
        <ele>100.1</ele>
        <time>2020-05-30T19:41:02Z</time>
      </trkpt>
      <trkpt lat="46.42763" lon="-0.18387">
        <ele>100.1</ele>
        <time>2020-05-30T19:41:03Z</time>
      </trkpt>
      <trkpt lat="46.42763" lon="-0.18386">
        <ele>100</ele>
        <time>2020-05-30T19:41:04Z</time>
      </trkpt>
      <trkpt lat="46.42763" lon="-0.18385">
        <ele>100</ele>
        <time>2020-05-30T19:41:05Z</time>
      </trkpt>
      <trkpt lat="46.42762" lon="-0.18384">
        <ele>99.9</ele>
        <time>2020-05-30T19:41:06Z</time>
      </trkpt>
      <trkpt lat="46.42762" lon="-0.18382">
        <ele>99.9</ele>
        <time>2020-05-30T19:41:07Z</time>
      </trkpt>
      <trkpt lat="46.42762" lon="-0.1838">
        <ele>99.9</ele>
        <time>2020-05-30T19:41:08Z</time>
      </trkpt>
      <trkpt lat="46.42761" lon="-0.18377">
        <ele>99.9</ele>
        <time>2020-05-30T19:41:09Z</time>
      </trkpt>
      <trkpt lat="46.42761" lon="-0.18376">
        <ele>99.9</ele>
        <time>2020-05-30T19:41:10Z</time>
      </trkpt>
      <trkpt lat="46.4276" lon="-0.18375">
        <ele>99.9</ele>
        <time>2020-05-30T19:41:11Z</time>
      </trkpt>
      <trkpt lat="46.4276" lon="-0.18374">
        <ele>99.9</ele>
        <time>2020-05-30T19:41:12Z</time>
      </trkpt>
      <trkpt lat="46.42759" lon="-0.18375">
        <ele>99.9</ele>
        <time>2020-05-30T19:41:13Z</time>
      </trkpt>
      <trkpt lat="46.42759" lon="-0.18374">
        <ele>99.9</ele>
        <time>2020-05-30T19:41:14Z</time>
      </trkpt>
      <trkpt lat="46.42759" lon="-0.18375">
        <ele>99.9</ele>
        <time>2020-05-30T19:41:15Z</time>
      </trkpt>
      <trkpt lat="46.42759" lon="-0.18375">
        <ele>99.9</ele>
        <time>2020-05-30T19:41:16Z</time>
      </trkpt>
      <trkpt lat="46.42758" lon="-0.18374">
        <ele>99.9</ele>
        <time>2020-05-30T19:41:17Z</time>
      </trkpt>
      <trkpt lat="46.42757" lon="-0.18372">
        <ele>100</ele>
        <time>2020-05-30T19:41:18Z</time>
      </trkpt>
      <trkpt lat="46.42758" lon="-0.1837">
        <ele>100</ele>
        <time>2020-05-30T19:41:19Z</time>
      </trkpt>
      <trkpt lat="46.42758" lon="-0.18369">
        <ele>100.1</ele>
        <time>2020-05-30T19:41:20Z</time>
      </trkpt>
      <trkpt lat="46.42757" lon="-0.18369">
        <ele>100.1</ele>
        <time>2020-05-30T19:41:21Z</time>
      </trkpt>
      <trkpt lat="46.42757" lon="-0.18369">
        <ele>100.1</ele>
        <time>2020-05-30T19:41:22Z</time>
      </trkpt>
      <trkpt lat="46.42757" lon="-0.18368">
        <ele>100.2</ele>
        <time>2020-05-30T19:41:23Z</time>
      </trkpt>
      <trkpt lat="46.42756" lon="-0.18366">
        <ele>100.2</ele>
        <time>2020-05-30T19:41:24Z</time>
      </trkpt>
      <trkpt lat="46.42756" lon="-0.18365">
        <ele>100.3</ele>
        <time>2020-05-30T19:41:25Z</time>
      </trkpt>
      <trkpt lat="46.42756" lon="-0.18363">
        <ele>100.4</ele>
        <time>2020-05-30T19:41:26Z</time>
      </trkpt>
      <trkpt lat="46.42756" lon="-0.18362">
        <ele>100.4</ele>
        <time>2020-05-30T19:41:27Z</time>
      </trkpt>
      <trkpt lat="46.42756" lon="-0.18359">
        <ele>100.4</ele>
        <time>2020-05-30T19:41:28Z</time>
      </trkpt>
      <trkpt lat="46.42755" lon="-0.18357">
        <ele>100.4</ele>
        <time>2020-05-30T19:41:29Z</time>
      </trkpt>
      <trkpt lat="46.42755" lon="-0.18356">
        <ele>100.4</ele>
        <time>2020-05-30T19:41:30Z</time>
      </trkpt>
      <trkpt lat="46.42754" lon="-0.18352">
        <ele>100.4</ele>
        <time>2020-05-30T19:41:31Z</time>
      </trkpt>
      <trkpt lat="46.42754" lon="-0.1835">
        <ele>100.7</ele>
        <time>2020-05-30T19:41:32Z</time>
      </trkpt>
      <trkpt lat="46.42754" lon="-0.18348">
        <ele>100.7</ele>
        <time>2020-05-30T19:41:33Z</time>
      </trkpt>
      <trkpt lat="46.42753" lon="-0.18345">
        <ele>100.7</ele>
        <time>2020-05-30T19:41:34Z</time>
      </trkpt>
      <trkpt lat="46.42753" lon="-0.18344">
        <ele>100.7</ele>
        <time>2020-05-30T19:41:35Z</time>
      </trkpt>
      <trkpt lat="46.42753" lon="-0.18343">
        <ele>100.7</ele>
        <time>2020-05-30T19:41:36Z</time>
      </trkpt>
      <trkpt lat="46.42752" lon="-0.18341">
        <ele>100.7</ele>
        <time>2020-05-30T19:41:37Z</time>
      </trkpt>
      <trkpt lat="46.42752" lon="-0.1834">
        <ele>100.7</ele>
        <time>2020-05-30T19:41:38Z</time>
      </trkpt>
      <trkpt lat="46.42752" lon="-0.18339">
        <ele>100.7</ele>
        <time>2020-05-30T19:41:39Z</time>
      </trkpt>
      <trkpt lat="46.42752" lon="-0.18339">
        <ele>100.7</ele>
        <time>2020-05-30T19:41:40Z</time>
      </trkpt>
      <trkpt lat="46.42752" lon="-0.18339">
        <ele>100.7</ele>
        <time>2020-05-30T19:41:41Z</time>
      </trkpt>
      <trkpt lat="46.42752" lon="-0.18337">
        <ele>100.7</ele>
        <time>2020-05-30T19:41:42Z</time>
      </trkpt>
      <trkpt lat="46.42752" lon="-0.18336">
        <ele>100.7</ele>
        <time>2020-05-30T19:41:43Z</time>
      </trkpt>
      <trkpt lat="46.42752" lon="-0.18336">
        <ele>100.7</ele>
        <time>2020-05-30T19:41:44Z</time>
      </trkpt>
      <trkpt lat="46.42752" lon="-0.18336">
        <ele>100.7</ele>
        <time>2020-05-30T19:41:45Z</time>
      </trkpt>
      <trkpt lat="46.42752" lon="-0.18336">
        <ele>100.7</ele>
        <time>2020-05-30T19:41:46Z</time>
      </trkpt>
      <trkpt lat="46.42752" lon="-0.18336">
        <ele>100.7</ele>
        <time>2020-05-30T19:41:47Z</time>
      </trkpt>
      <trkpt lat="46.42752" lon="-0.18337">
        <ele>100.7</ele>
        <time>2020-05-30T19:41:48Z</time>
      </trkpt>
      <trkpt lat="46.42753" lon="-0.18337">
        <ele>100.7</ele>
        <time>2020-05-30T19:41:49Z</time>
      </trkpt>
      <trkpt lat="46.42753" lon="-0.18337">
        <ele>100.7</ele>
        <time>2020-05-30T19:41:50Z</time>
      </trkpt>
      <trkpt lat="46.42753" lon="-0.18337">
        <ele>100.8</ele>
        <time>2020-05-30T19:41:51Z</time>
      </trkpt>
      <trkpt lat="46.42754" lon="-0.18337">
        <ele>100.8</ele>
        <time>2020-05-30T19:41:52Z</time>
      </trkpt>
      <trkpt lat="46.42754" lon="-0.18337">
        <ele>100.9</ele>
        <time>2020-05-30T19:41:53Z</time>
      </trkpt>
      <trkpt lat="46.42755" lon="-0.18338">
        <ele>100.9</ele>
        <time>2020-05-30T19:41:54Z</time>
      </trkpt>
      <trkpt lat="46.42756" lon="-0.18338">
        <ele>100.9</ele>
        <time>2020-05-30T19:41:55Z</time>
      </trkpt>
      <trkpt lat="46.42757" lon="-0.18337">
        <ele>100.9</ele>
        <time>2020-05-30T19:41:56Z</time>
      </trkpt>
      <trkpt lat="46.42757" lon="-0.18337">
        <ele>100.9</ele>
        <time>2020-05-30T19:41:57Z</time>
      </trkpt>
      <trkpt lat="46.42758" lon="-0.18337">
        <ele>100.9</ele>
        <time>2020-05-30T19:41:58Z</time>
      </trkpt>
      <trkpt lat="46.42758" lon="-0.18336">
        <ele>100.9</ele>
        <time>2020-05-30T19:41:59Z</time>
      </trkpt>
      <trkpt lat="46.42758" lon="-0.18335">
        <ele>100.9</ele>
        <time>2020-05-30T19:42:00Z</time>
      </trkpt>
      <trkpt lat="46.42758" lon="-0.18335">
        <ele>100.9</ele>
        <time>2020-05-30T19:42:01Z</time>
      </trkpt>
      <trkpt lat="46.42758" lon="-0.18335">
        <ele>100.9</ele>
        <time>2020-05-30T19:42:02Z</time>
      </trkpt>
      <trkpt lat="46.42758" lon="-0.18335">
        <ele>100.9</ele>
        <time>2020-05-30T19:42:03Z</time>
      </trkpt>
      <trkpt lat="46.42758" lon="-0.18334">
        <ele>100.9</ele>
        <time>2020-05-30T19:42:04Z</time>
      </trkpt>
      <trkpt lat="46.42758" lon="-0.18334">
        <ele>100.9</ele>
        <time>2020-05-30T19:42:05Z</time>
      </trkpt>
      <trkpt lat="46.42758" lon="-0.18333">
        <ele>100.9</ele>
        <time>2020-05-30T19:42:06Z</time>
      </trkpt>
      <trkpt lat="46.42758" lon="-0.18333">
        <ele>100.9</ele>
        <time>2020-05-30T19:42:07Z</time>
      </trkpt>
      <trkpt lat="46.42758" lon="-0.18333">
        <ele>100.9</ele>
        <time>2020-05-30T19:42:08Z</time>
      </trkpt>
      <trkpt lat="46.42759" lon="-0.18332">
        <ele>100.9</ele>
        <time>2020-05-30T19:42:09Z</time>
      </trkpt>
      <trkpt lat="46.42759" lon="-0.18331">
        <ele>100.9</ele>
        <time>2020-05-30T19:42:10Z</time>
      </trkpt>
      <trkpt lat="46.42759" lon="-0.18331">
        <ele>100.9</ele>
        <time>2020-05-30T19:42:11Z</time>
      </trkpt>
      <trkpt lat="46.4276" lon="-0.1833">
        <ele>100.9</ele>
        <time>2020-05-30T19:42:12Z</time>
      </trkpt>
      <trkpt lat="46.4276" lon="-0.18331">
        <ele>100.9</ele>
        <time>2020-05-30T19:42:13Z</time>
      </trkpt>
      <trkpt lat="46.4276" lon="-0.18331">
        <ele>100.9</ele>
        <time>2020-05-30T19:42:14Z</time>
      </trkpt>
      <trkpt lat="46.42761" lon="-0.18331">
        <ele>100.9</ele>
        <time>2020-05-30T19:42:15Z</time>
      </trkpt>
      <trkpt lat="46.42761" lon="-0.18331">
        <ele>100.9</ele>
        <time>2020-05-30T19:42:16Z</time>
      </trkpt>
      <trkpt lat="46.42761" lon="-0.18332">
        <ele>100.9</ele>
        <time>2020-05-30T19:42:17Z</time>
      </trkpt>
      <trkpt lat="46.4276" lon="-0.18332">
        <ele>100.9</ele>
        <time>2020-05-30T19:42:18Z</time>
      </trkpt>
      <trkpt lat="46.4276" lon="-0.18334">
        <ele>100.9</ele>
        <time>2020-05-30T19:42:19Z</time>
      </trkpt>
      <trkpt lat="46.42759" lon="-0.18336">
        <ele>100.9</ele>
        <time>2020-05-30T19:42:20Z</time>
      </trkpt>
      <trkpt lat="46.42759" lon="-0.18338">
        <ele>100.9</ele>
        <time>2020-05-30T19:42:21Z</time>
      </trkpt>
      <trkpt lat="46.42759" lon="-0.18339">
        <ele>100.9</ele>
        <time>2020-05-30T19:42:22Z</time>
      </trkpt>
      <trkpt lat="46.42758" lon="-0.18342">
        <ele>100.9</ele>
        <time>2020-05-30T19:42:23Z</time>
      </trkpt>
      <trkpt lat="46.42758" lon="-0.18343">
        <ele>100.9</ele>
        <time>2020-05-30T19:42:24Z</time>
      </trkpt>
      <trkpt lat="46.42758" lon="-0.18345">
        <ele>100.9</ele>
        <time>2020-05-30T19:42:25Z</time>
      </trkpt>
      <trkpt lat="46.42757" lon="-0.18345">
        <ele>100.9</ele>
        <time>2020-05-30T19:42:26Z</time>
      </trkpt>
      <trkpt lat="46.42756" lon="-0.18345">
        <ele>101</ele>
        <time>2020-05-30T19:42:27Z</time>
      </trkpt>
      <trkpt lat="46.42756" lon="-0.18346">
        <ele>101</ele>
        <time>2020-05-30T19:42:28Z</time>
      </trkpt>
      <trkpt lat="46.42756" lon="-0.18346">
        <ele>101</ele>
        <time>2020-05-30T19:42:29Z</time>
      </trkpt>
      <trkpt lat="46.42756" lon="-0.18346">
        <ele>101</ele>
        <time>2020-05-30T19:42:30Z</time>
      </trkpt>
      <trkpt lat="46.42756" lon="-0.18346">
        <ele>101</ele>
        <time>2020-05-30T19:42:31Z</time>
      </trkpt>
      <trkpt lat="46.42756" lon="-0.18345">
        <ele>101</ele>
        <time>2020-05-30T19:42:32Z</time>
      </trkpt>
      <trkpt lat="46.42756" lon="-0.18345">
        <ele>101</ele>
        <time>2020-05-30T19:42:33Z</time>
      </trkpt>
      <trkpt lat="46.42756" lon="-0.18345">
        <ele>101</ele>
        <time>2020-05-30T19:42:34Z</time>
      </trkpt>
      <trkpt lat="46.42756" lon="-0.18344">
        <ele>101</ele>
        <time>2020-05-30T19:42:35Z</time>
      </trkpt>
      <trkpt lat="46.42756" lon="-0.18343">
        <ele>101</ele>
        <time>2020-05-30T19:42:36Z</time>
      </trkpt>
      <trkpt lat="46.42756" lon="-0.18342">
        <ele>101</ele>
        <time>2020-05-30T19:42:37Z</time>
      </trkpt>
      <trkpt lat="46.42756" lon="-0.18342">
        <ele>101</ele>
        <time>2020-05-30T19:42:38Z</time>
      </trkpt>
      <trkpt lat="46.42756" lon="-0.18342">
        <ele>101</ele>
        <time>2020-05-30T19:42:39Z</time>
      </trkpt>
      <trkpt lat="46.42756" lon="-0.18341">
        <ele>101</ele>
        <time>2020-05-30T19:42:40Z</time>
      </trkpt>
      <trkpt lat="46.42757" lon="-0.18341">
        <ele>101</ele>
        <time>2020-05-30T19:42:41Z</time>
      </trkpt>
      <trkpt lat="46.42757" lon="-0.18341">
        <ele>101</ele>
        <time>2020-05-30T19:42:42Z</time>
      </trkpt>
      <trkpt lat="46.42757" lon="-0.18341">
        <ele>101</ele>
        <time>2020-05-30T19:42:43Z</time>
      </trkpt>
      <trkpt lat="46.42757" lon="-0.18341">
        <ele>101</ele>
        <time>2020-05-30T19:42:44Z</time>
      </trkpt>
      <trkpt lat="46.42756" lon="-0.18341">
        <ele>101</ele>
        <time>2020-05-30T19:42:45Z</time>
      </trkpt>
      <trkpt lat="46.42756" lon="-0.1834">
        <ele>101</ele>
        <time>2020-05-30T19:42:46Z</time>
      </trkpt>
      <trkpt lat="46.42756" lon="-0.1834">
        <ele>101</ele>
        <time>2020-05-30T19:42:47Z</time>
      </trkpt>
      <trkpt lat="46.42756" lon="-0.18339">
        <ele>101</ele>
        <time>2020-05-30T19:42:48Z</time>
      </trkpt>
      <trkpt lat="46.42757" lon="-0.18338">
        <ele>101</ele>
        <time>2020-05-30T19:42:49Z</time>
      </trkpt>
      <trkpt lat="46.42757" lon="-0.18337">
        <ele>101</ele>
        <time>2020-05-30T19:42:50Z</time>
      </trkpt>
      <trkpt lat="46.42756" lon="-0.18336">
        <ele>101</ele>
        <time>2020-05-30T19:42:51Z</time>
      </trkpt>
      <trkpt lat="46.42756" lon="-0.18334">
        <ele>101</ele>
        <time>2020-05-30T19:42:52Z</time>
      </trkpt>
      <trkpt lat="46.42756" lon="-0.18334">
        <ele>101</ele>
        <time>2020-05-30T19:42:53Z</time>
      </trkpt>
      <trkpt lat="46.42756" lon="-0.18334">
        <ele>101</ele>
        <time>2020-05-30T19:42:54Z</time>
      </trkpt>
      <trkpt lat="46.42756" lon="-0.18334">
        <ele>101</ele>
        <time>2020-05-30T19:42:55Z</time>
      </trkpt>
      <trkpt lat="46.42757" lon="-0.18332">
        <ele>101</ele>
        <time>2020-05-30T19:42:56Z</time>
      </trkpt>
      <trkpt lat="46.42758" lon="-0.1833">
        <ele>101</ele>
        <time>2020-05-30T19:42:57Z</time>
      </trkpt>
      <trkpt lat="46.42759" lon="-0.1833">
        <ele>101</ele>
        <time>2020-05-30T19:42:58Z</time>
      </trkpt>
      <trkpt lat="46.42759" lon="-0.18329">
        <ele>101</ele>
        <time>2020-05-30T19:42:59Z</time>
      </trkpt>
      <trkpt lat="46.42759" lon="-0.18329">
        <ele>101</ele>
        <time>2020-05-30T19:43:00Z</time>
      </trkpt>
      <trkpt lat="46.4276" lon="-0.18328">
        <ele>102.2</ele>
        <time>2020-05-30T19:43:01Z</time>
      </trkpt>
      <trkpt lat="46.42761" lon="-0.18327">
        <ele>102.2</ele>
        <time>2020-05-30T19:43:02Z</time>
      </trkpt>
      <trkpt lat="46.42761" lon="-0.18325">
        <ele>102.2</ele>
        <time>2020-05-30T19:43:03Z</time>
      </trkpt>
      <trkpt lat="46.42762" lon="-0.18325">
        <ele>102.2</ele>
        <time>2020-05-30T19:43:04Z</time>
      </trkpt>
      <trkpt lat="46.42762" lon="-0.18324">
        <ele>102.2</ele>
        <time>2020-05-30T19:43:05Z</time>
      </trkpt>
      <trkpt lat="46.42763" lon="-0.18323">
        <ele>102.2</ele>
        <time>2020-05-30T19:43:06Z</time>
      </trkpt>
      <trkpt lat="46.42764" lon="-0.18323">
        <ele>102.2</ele>
        <time>2020-05-30T19:43:07Z</time>
      </trkpt>
      <trkpt lat="46.42764" lon="-0.18322">
        <ele>102.2</ele>
        <time>2020-05-30T19:43:08Z</time>
      </trkpt>
      <trkpt lat="46.42764" lon="-0.18322">
        <ele>102.2</ele>
        <time>2020-05-30T19:43:09Z</time>
      </trkpt>
      <trkpt lat="46.42764" lon="-0.18321">
        <ele>102.2</ele>
        <time>2020-05-30T19:43:10Z</time>
      </trkpt>
      <trkpt lat="46.42764" lon="-0.18321">
        <ele>102.2</ele>
        <time>2020-05-30T19:43:11Z</time>
      </trkpt>
      <trkpt lat="46.42765" lon="-0.18319">
        <ele>102.5</ele>
        <time>2020-05-30T19:43:12Z</time>
      </trkpt>
      <trkpt lat="46.42766" lon="-0.18317">
        <ele>102.5</ele>
        <time>2020-05-30T19:43:13Z</time>
      </trkpt>
      <trkpt lat="46.42766" lon="-0.18315">
        <ele>102.5</ele>
        <time>2020-05-30T19:43:14Z</time>
      </trkpt>
      <trkpt lat="46.42768" lon="-0.18313">
        <ele>102.5</ele>
        <time>2020-05-30T19:43:15Z</time>
      </trkpt>
      <trkpt lat="46.42768" lon="-0.18311">
        <ele>102.5</ele>
        <time>2020-05-30T19:43:16Z</time>
      </trkpt>
      <trkpt lat="46.42769" lon="-0.1831">
        <ele>102.5</ele>
        <time>2020-05-30T19:43:17Z</time>
      </trkpt>
      <trkpt lat="46.4277" lon="-0.18308">
        <ele>102.5</ele>
        <time>2020-05-30T19:43:18Z</time>
      </trkpt>
      <trkpt lat="46.4277" lon="-0.18306">
        <ele>102.5</ele>
        <time>2020-05-30T19:43:19Z</time>
      </trkpt>
      <trkpt lat="46.4277" lon="-0.18306">
        <ele>102.5</ele>
        <time>2020-05-30T19:43:20Z</time>
      </trkpt>
      <trkpt lat="46.4277" lon="-0.18305">
        <ele>102.5</ele>
        <time>2020-05-30T19:43:21Z</time>
      </trkpt>
      <trkpt lat="46.4277" lon="-0.18305">
        <ele>102.5</ele>
        <time>2020-05-30T19:43:22Z</time>
      </trkpt>
      <trkpt lat="46.42769" lon="-0.18304">
        <ele>102.5</ele>
        <time>2020-05-30T19:43:23Z</time>
      </trkpt>
      <trkpt lat="46.42769" lon="-0.18304">
        <ele>102.5</ele>
        <time>2020-05-30T19:43:24Z</time>
      </trkpt>
      <trkpt lat="46.4277" lon="-0.18303">
        <ele>102.5</ele>
        <time>2020-05-30T19:43:25Z</time>
      </trkpt>
      <trkpt lat="46.4277" lon="-0.18303">
        <ele>102.5</ele>
        <time>2020-05-30T19:43:26Z</time>
      </trkpt>
      <trkpt lat="46.4277" lon="-0.18303">
        <ele>102.5</ele>
        <time>2020-05-30T19:43:27Z</time>
      </trkpt>
      <trkpt lat="46.4277" lon="-0.18303">
        <ele>102.5</ele>
        <time>2020-05-30T19:43:28Z</time>
      </trkpt>
      <trkpt lat="46.4277" lon="-0.18303">
        <ele>102.5</ele>
        <time>2020-05-30T19:43:29Z</time>
      </trkpt>
      <trkpt lat="46.4277" lon="-0.18303">
        <ele>102.5</ele>
        <time>2020-05-30T19:43:30Z</time>
      </trkpt>
      <trkpt lat="46.4277" lon="-0.18303">
        <ele>102.5</ele>
        <time>2020-05-30T19:43:31Z</time>
      </trkpt>
      <trkpt lat="46.4277" lon="-0.18303">
        <ele>102.5</ele>
        <time>2020-05-30T19:43:32Z</time>
      </trkpt>
      <trkpt lat="46.4277" lon="-0.18302">
        <ele>102.5</ele>
        <time>2020-05-30T19:43:33Z</time>
      </trkpt>
      <trkpt lat="46.4277" lon="-0.18301">
        <ele>102.5</ele>
        <time>2020-05-30T19:43:34Z</time>
      </trkpt>
      <trkpt lat="46.4277" lon="-0.18301">
        <ele>102.5</ele>
        <time>2020-05-30T19:43:35Z</time>
      </trkpt>
      <trkpt lat="46.4277" lon="-0.18301">
        <ele>102.5</ele>
        <time>2020-05-30T19:43:36Z</time>
      </trkpt>
      <trkpt lat="46.4277" lon="-0.18301">
        <ele>102.5</ele>
        <time>2020-05-30T19:43:37Z</time>
      </trkpt>
      <trkpt lat="46.4277" lon="-0.18301">
        <ele>102.5</ele>
        <time>2020-05-30T19:43:38Z</time>
      </trkpt>
      <trkpt lat="46.4277" lon="-0.18301">
        <ele>102.5</ele>
        <time>2020-05-30T19:43:39Z</time>
      </trkpt>
      <trkpt lat="46.4277" lon="-0.183">
        <ele>102.5</ele>
        <time>2020-05-30T19:43:40Z</time>
      </trkpt>
      <trkpt lat="46.42769" lon="-0.183">
        <ele>102.5</ele>
        <time>2020-05-30T19:43:41Z</time>
      </trkpt>
      <trkpt lat="46.42769" lon="-0.183">
        <ele>102.5</ele>
        <time>2020-05-30T19:43:42Z</time>
      </trkpt>
      <trkpt lat="46.42769" lon="-0.18299">
        <ele>102.5</ele>
        <time>2020-05-30T19:43:43Z</time>
      </trkpt>
      <trkpt lat="46.42769" lon="-0.18299">
        <ele>102.5</ele>
        <time>2020-05-30T19:43:44Z</time>
      </trkpt>
      <trkpt lat="46.42769" lon="-0.18299">
        <ele>102.5</ele>
        <time>2020-05-30T19:43:45Z</time>
      </trkpt>
      <trkpt lat="46.42769" lon="-0.18299">
        <ele>102.5</ele>
        <time>2020-05-30T19:43:46Z</time>
      </trkpt>
      <trkpt lat="46.4277" lon="-0.18299">
        <ele>102.5</ele>
        <time>2020-05-30T19:43:47Z</time>
      </trkpt>
      <trkpt lat="46.42769" lon="-0.183">
        <ele>102.5</ele>
        <time>2020-05-30T19:43:48Z</time>
      </trkpt>
      <trkpt lat="46.42769" lon="-0.18301">
        <ele>102.5</ele>
        <time>2020-05-30T19:43:49Z</time>
      </trkpt>
      <trkpt lat="46.42769" lon="-0.183">
        <ele>102.5</ele>
        <time>2020-05-30T19:43:50Z</time>
      </trkpt>
      <trkpt lat="46.42769" lon="-0.183">
        <ele>102.5</ele>
        <time>2020-05-30T19:43:51Z</time>
      </trkpt>
      <trkpt lat="46.42769" lon="-0.183">
        <ele>102.5</ele>
        <time>2020-05-30T19:43:52Z</time>
      </trkpt>
      <trkpt lat="46.42768" lon="-0.18301">
        <ele>102.5</ele>
        <time>2020-05-30T19:43:53Z</time>
      </trkpt>
      <trkpt lat="46.42769" lon="-0.18301">
        <ele>102.5</ele>
        <time>2020-05-30T19:43:54Z</time>
      </trkpt>
      <trkpt lat="46.42769" lon="-0.18301">
        <ele>102.5</ele>
        <time>2020-05-30T19:43:55Z</time>
      </trkpt>
      <trkpt lat="46.42769" lon="-0.18303">
        <ele>102.5</ele>
        <time>2020-05-30T19:43:56Z</time>
      </trkpt>
      <trkpt lat="46.42769" lon="-0.18305">
        <ele>102.5</ele>
        <time>2020-05-30T19:43:57Z</time>
      </trkpt>
      <trkpt lat="46.42769" lon="-0.18306">
        <ele>102.5</ele>
        <time>2020-05-30T19:43:58Z</time>
      </trkpt>
      <trkpt lat="46.42769" lon="-0.18307">
        <ele>102.5</ele>
        <time>2020-05-30T19:43:59Z</time>
      </trkpt>
      <trkpt lat="46.4277" lon="-0.18309">
        <ele>102.5</ele>
        <time>2020-05-30T19:44:00Z</time>
      </trkpt>
      <trkpt lat="46.4277" lon="-0.1831">
        <ele>102.5</ele>
        <time>2020-05-30T19:44:01Z</time>
      </trkpt>
      <trkpt lat="46.4277" lon="-0.1831">
        <ele>102.5</ele>
        <time>2020-05-30T19:44:02Z</time>
      </trkpt>
      <trkpt lat="46.4277" lon="-0.1831">
        <ele>102.5</ele>
        <time>2020-05-30T19:44:03Z</time>
      </trkpt>
      <trkpt lat="46.42771" lon="-0.1831">
        <ele>102.5</ele>
        <time>2020-05-30T19:44:04Z</time>
      </trkpt>
      <trkpt lat="46.42771" lon="-0.1831">
        <ele>102.5</ele>
        <time>2020-05-30T19:44:05Z</time>
      </trkpt>
      <trkpt lat="46.42772" lon="-0.1831">
        <ele>102.5</ele>
        <time>2020-05-30T19:44:06Z</time>
      </trkpt>
      <trkpt lat="46.42772" lon="-0.18311">
        <ele>102.5</ele>
        <time>2020-05-30T19:44:07Z</time>
      </trkpt>
      <trkpt lat="46.42772" lon="-0.18312">
        <ele>102.5</ele>
        <time>2020-05-30T19:44:08Z</time>
      </trkpt>
      <trkpt lat="46.42773" lon="-0.18313">
        <ele>102.5</ele>
        <time>2020-05-30T19:44:09Z</time>
      </trkpt>
      <trkpt lat="46.42773" lon="-0.18314">
        <ele>102.5</ele>
        <time>2020-05-30T19:44:10Z</time>
      </trkpt>
      <trkpt lat="46.42773" lon="-0.18315">
        <ele>102.5</ele>
        <time>2020-05-30T19:44:11Z</time>
      </trkpt>
      <trkpt lat="46.42773" lon="-0.18316">
        <ele>102.5</ele>
        <time>2020-05-30T19:44:12Z</time>
      </trkpt>
      <trkpt lat="46.42773" lon="-0.18316">
        <ele>102.5</ele>
        <time>2020-05-30T19:44:13Z</time>
      </trkpt>
      <trkpt lat="46.42773" lon="-0.18316">
        <ele>102.5</ele>
        <time>2020-05-30T19:44:14Z</time>
      </trkpt>
      <trkpt lat="46.42773" lon="-0.18316">
        <ele>102.5</ele>
        <time>2020-05-30T19:44:15Z</time>
      </trkpt>
      <trkpt lat="46.42773" lon="-0.18316">
        <ele>102.5</ele>
        <time>2020-05-30T19:44:16Z</time>
      </trkpt>
      <trkpt lat="46.42773" lon="-0.18315">
        <ele>102.5</ele>
        <time>2020-05-30T19:44:17Z</time>
      </trkpt>
      <trkpt lat="46.42773" lon="-0.18315">
        <ele>102.5</ele>
        <time>2020-05-30T19:44:18Z</time>
      </trkpt>
      <trkpt lat="46.42773" lon="-0.18315">
        <ele>102.5</ele>
        <time>2020-05-30T19:44:19Z</time>
      </trkpt>
      <trkpt lat="46.42772" lon="-0.18315">
        <ele>102.5</ele>
        <time>2020-05-30T19:44:20Z</time>
      </trkpt>
      <trkpt lat="46.42772" lon="-0.18315">
        <ele>102.5</ele>
        <time>2020-05-30T19:44:21Z</time>
      </trkpt>
      <trkpt lat="46.42772" lon="-0.18314">
        <ele>102.5</ele>
        <time>2020-05-30T19:44:22Z</time>
      </trkpt>
      <trkpt lat="46.42772" lon="-0.18315">
        <ele>102.5</ele>
        <time>2020-05-30T19:44:23Z</time>
      </trkpt>
      <trkpt lat="46.42772" lon="-0.18314">
        <ele>102.5</ele>
        <time>2020-05-30T19:44:24Z</time>
      </trkpt>
      <trkpt lat="46.42772" lon="-0.18313">
        <ele>102.5</ele>
        <time>2020-05-30T19:44:25Z</time>
      </trkpt>
      <trkpt lat="46.42772" lon="-0.18313">
        <ele>102.5</ele>
        <time>2020-05-30T19:44:26Z</time>
      </trkpt>
      <trkpt lat="46.42772" lon="-0.18313">
        <ele>102.5</ele>
        <time>2020-05-30T19:44:27Z</time>
      </trkpt>
      <trkpt lat="46.42772" lon="-0.18313">
        <ele>102.5</ele>
        <time>2020-05-30T19:44:28Z</time>
      </trkpt>
      <trkpt lat="46.42773" lon="-0.18314">
        <ele>102.5</ele>
        <time>2020-05-30T19:44:29Z</time>
      </trkpt>
      <trkpt lat="46.42773" lon="-0.18316">
        <ele>102.5</ele>
        <time>2020-05-30T19:44:30Z</time>
      </trkpt>
      <trkpt lat="46.42773" lon="-0.18317">
        <ele>102.5</ele>
        <time>2020-05-30T19:44:31Z</time>
      </trkpt>
      <trkpt lat="46.42774" lon="-0.18318">
        <ele>102.5</ele>
        <time>2020-05-30T19:44:32Z</time>
      </trkpt>
      <trkpt lat="46.42774" lon="-0.18319">
        <ele>102.5</ele>
        <time>2020-05-30T19:44:33Z</time>
      </trkpt>
      <trkpt lat="46.42775" lon="-0.1832">
        <ele>102.5</ele>
        <time>2020-05-30T19:44:34Z</time>
      </trkpt>
      <trkpt lat="46.42775" lon="-0.1832">
        <ele>102.5</ele>
        <time>2020-05-30T19:44:35Z</time>
      </trkpt>
      <trkpt lat="46.42775" lon="-0.1832">
        <ele>102.5</ele>
        <time>2020-05-30T19:44:36Z</time>
      </trkpt>
      <trkpt lat="46.42775" lon="-0.1832">
        <ele>102.5</ele>
        <time>2020-05-30T19:44:37Z</time>
      </trkpt>
      <trkpt lat="46.42775" lon="-0.1832">
        <ele>102.5</ele>
        <time>2020-05-30T19:44:38Z</time>
      </trkpt>
      <trkpt lat="46.42775" lon="-0.1832">
        <ele>102.5</ele>
        <time>2020-05-30T19:44:39Z</time>
      </trkpt>
      <trkpt lat="46.42775" lon="-0.1832">
        <ele>102.5</ele>
        <time>2020-05-30T19:44:40Z</time>
      </trkpt>
      <trkpt lat="46.42775" lon="-0.18319">
        <ele>102.5</ele>
        <time>2020-05-30T19:44:41Z</time>
      </trkpt>
      <trkpt lat="46.42775" lon="-0.18319">
        <ele>102.5</ele>
        <time>2020-05-30T19:44:42Z</time>
      </trkpt>
      <trkpt lat="46.42774" lon="-0.18318">
        <ele>102.5</ele>
        <time>2020-05-30T19:44:43Z</time>
      </trkpt>
      <trkpt lat="46.42774" lon="-0.18318">
        <ele>102.5</ele>
        <time>2020-05-30T19:44:44Z</time>
      </trkpt>
      <trkpt lat="46.42774" lon="-0.18317">
        <ele>102.5</ele>
        <time>2020-05-30T19:44:45Z</time>
      </trkpt>
      <trkpt lat="46.42774" lon="-0.18317">
        <ele>102.5</ele>
        <time>2020-05-30T19:44:46Z</time>
      </trkpt>
      <trkpt lat="46.42774" lon="-0.18317">
        <ele>102.5</ele>
        <time>2020-05-30T19:44:47Z</time>
      </trkpt>
      <trkpt lat="46.42774" lon="-0.18317">
        <ele>102.5</ele>
        <time>2020-05-30T19:44:48Z</time>
      </trkpt>
      <trkpt lat="46.42774" lon="-0.18317">
        <ele>102.5</ele>
        <time>2020-05-30T19:44:49Z</time>
      </trkpt>
      <trkpt lat="46.42774" lon="-0.18317">
        <ele>102.5</ele>
        <time>2020-05-30T19:44:50Z</time>
      </trkpt>
      <trkpt lat="46.42775" lon="-0.18318">
        <ele>102.5</ele>
        <time>2020-05-30T19:44:51Z</time>
      </trkpt>
      <trkpt lat="46.42775" lon="-0.18318">
        <ele>102.5</ele>
        <time>2020-05-30T19:44:52Z</time>
      </trkpt>
      <trkpt lat="46.42775" lon="-0.18318">
        <ele>102.5</ele>
        <time>2020-05-30T19:44:53Z</time>
      </trkpt>
      <trkpt lat="46.42775" lon="-0.18318">
        <ele>102.5</ele>
        <time>2020-05-30T19:44:54Z</time>
      </trkpt>
      <trkpt lat="46.42775" lon="-0.18318">
        <ele>102.5</ele>
        <time>2020-05-30T19:44:55Z</time>
      </trkpt>
      <trkpt lat="46.42775" lon="-0.1832">
        <ele>102.5</ele>
        <time>2020-05-30T19:44:56Z</time>
      </trkpt>
      <trkpt lat="46.42774" lon="-0.18319">
        <ele>102.5</ele>
        <time>2020-05-30T19:44:57Z</time>
      </trkpt>
      <trkpt lat="46.42774" lon="-0.18318">
        <ele>102.5</ele>
        <time>2020-05-30T19:44:58Z</time>
      </trkpt>
      <trkpt lat="46.42774" lon="-0.18318">
        <ele>102.5</ele>
        <time>2020-05-30T19:44:59Z</time>
      </trkpt>
      <trkpt lat="46.42774" lon="-0.18317">
        <ele>102.5</ele>
        <time>2020-05-30T19:45:00Z</time>
      </trkpt>
      <trkpt lat="46.42774" lon="-0.18316">
        <ele>102.5</ele>
        <time>2020-05-30T19:45:01Z</time>
      </trkpt>
      <trkpt lat="46.42774" lon="-0.18315">
        <ele>102.5</ele>
        <time>2020-05-30T19:45:02Z</time>
      </trkpt>
      <trkpt lat="46.42774" lon="-0.18316">
        <ele>102.5</ele>
        <time>2020-05-30T19:45:03Z</time>
      </trkpt>
      <trkpt lat="46.42774" lon="-0.18317">
        <ele>102.5</ele>
        <time>2020-05-30T19:45:04Z</time>
      </trkpt>
      <trkpt lat="46.42774" lon="-0.18316">
        <ele>102.5</ele>
        <time>2020-05-30T19:45:05Z</time>
      </trkpt>
      <trkpt lat="46.42774" lon="-0.18317">
        <ele>102.5</ele>
        <time>2020-05-30T19:45:06Z</time>
      </trkpt>
      <trkpt lat="46.42774" lon="-0.18317">
        <ele>102.5</ele>
        <time>2020-05-30T19:45:07Z</time>
      </trkpt>
      <trkpt lat="46.42774" lon="-0.18316">
        <ele>102.5</ele>
        <time>2020-05-30T19:45:08Z</time>
      </trkpt>
      <trkpt lat="46.42774" lon="-0.18316">
        <ele>102.5</ele>
        <time>2020-05-30T19:45:09Z</time>
      </trkpt>
      <trkpt lat="46.42774" lon="-0.18316">
        <ele>102.5</ele>
        <time>2020-05-30T19:45:10Z</time>
      </trkpt>
      <trkpt lat="46.42773" lon="-0.18314">
        <ele>102.5</ele>
        <time>2020-05-30T19:45:11Z</time>
      </trkpt>
      <trkpt lat="46.42773" lon="-0.18313">
        <ele>102.5</ele>
        <time>2020-05-30T19:45:12Z</time>
      </trkpt>
      <trkpt lat="46.42772" lon="-0.18312">
        <ele>102.5</ele>
        <time>2020-05-30T19:45:13Z</time>
      </trkpt>
      <trkpt lat="46.42772" lon="-0.18311">
        <ele>102.5</ele>
        <time>2020-05-30T19:45:14Z</time>
      </trkpt>
      <trkpt lat="46.42771" lon="-0.1831">
        <ele>102.5</ele>
        <time>2020-05-30T19:45:15Z</time>
      </trkpt>
      <trkpt lat="46.42772" lon="-0.1831">
        <ele>102.5</ele>
        <time>2020-05-30T19:45:16Z</time>
      </trkpt>
      <trkpt lat="46.42772" lon="-0.1831">
        <ele>102.5</ele>
        <time>2020-05-30T19:45:17Z</time>
      </trkpt>
      <trkpt lat="46.42772" lon="-0.1831">
        <ele>102.5</ele>
        <time>2020-05-30T19:45:18Z</time>
      </trkpt>
      <trkpt lat="46.42771" lon="-0.1831">
        <ele>102.5</ele>
        <time>2020-05-30T19:45:19Z</time>
      </trkpt>
      <trkpt lat="46.4277" lon="-0.18309">
        <ele>102.5</ele>
        <time>2020-05-30T19:45:20Z</time>
      </trkpt>
      <trkpt lat="46.4277" lon="-0.18309">
        <ele>102.5</ele>
        <time>2020-05-30T19:45:21Z</time>
      </trkpt>
      <trkpt lat="46.42768" lon="-0.18308">
        <ele>102.5</ele>
        <time>2020-05-30T19:45:22Z</time>
      </trkpt>
      <trkpt lat="46.42767" lon="-0.18308">
        <ele>102.5</ele>
        <time>2020-05-30T19:45:23Z</time>
      </trkpt>
      <trkpt lat="46.42766" lon="-0.18307">
        <ele>102.5</ele>
        <time>2020-05-30T19:45:24Z</time>
      </trkpt>
      <trkpt lat="46.42766" lon="-0.18307">
        <ele>102.5</ele>
        <time>2020-05-30T19:45:25Z</time>
      </trkpt>
      <trkpt lat="46.42766" lon="-0.18307">
        <ele>102.5</ele>
        <time>2020-05-30T19:45:26Z</time>
      </trkpt>
      <trkpt lat="46.42766" lon="-0.18306">
        <ele>102.5</ele>
        <time>2020-05-30T19:45:27Z</time>
      </trkpt>
      <trkpt lat="46.42765" lon="-0.18305">
        <ele>102.5</ele>
        <time>2020-05-30T19:45:28Z</time>
      </trkpt>
      <trkpt lat="46.42765" lon="-0.18305">
        <ele>102.5</ele>
        <time>2020-05-30T19:45:29Z</time>
      </trkpt>
      <trkpt lat="46.42765" lon="-0.18304">
        <ele>102.5</ele>
        <time>2020-05-30T19:45:30Z</time>
      </trkpt>
      <trkpt lat="46.42764" lon="-0.18303">
        <ele>102.5</ele>
        <time>2020-05-30T19:45:31Z</time>
      </trkpt>
      <trkpt lat="46.42764" lon="-0.18303">
        <ele>102.5</ele>
        <time>2020-05-30T19:45:32Z</time>
      </trkpt>
      <trkpt lat="46.42764" lon="-0.18302">
        <ele>102.5</ele>
        <time>2020-05-30T19:45:33Z</time>
      </trkpt>
      <trkpt lat="46.42763" lon="-0.18301">
        <ele>102.5</ele>
        <time>2020-05-30T19:45:34Z</time>
      </trkpt>
      <trkpt lat="46.42763" lon="-0.18301">
        <ele>102.5</ele>
        <time>2020-05-30T19:45:35Z</time>
      </trkpt>
      <trkpt lat="46.42764" lon="-0.18301">
        <ele>102.5</ele>
        <time>2020-05-30T19:45:36Z</time>
      </trkpt>
      <trkpt lat="46.42764" lon="-0.18301">
        <ele>102.5</ele>
        <time>2020-05-30T19:45:37Z</time>
      </trkpt>
      <trkpt lat="46.42765" lon="-0.18301">
        <ele>102.5</ele>
        <time>2020-05-30T19:45:38Z</time>
      </trkpt>
      <trkpt lat="46.42765" lon="-0.18301">
        <ele>102.5</ele>
        <time>2020-05-30T19:45:39Z</time>
      </trkpt>
      <trkpt lat="46.42766" lon="-0.18302">
        <ele>102.5</ele>
        <time>2020-05-30T19:45:40Z</time>
      </trkpt>
      <trkpt lat="46.42766" lon="-0.18302">
        <ele>102.5</ele>
        <time>2020-05-30T19:45:41Z</time>
      </trkpt>
      <trkpt lat="46.42766" lon="-0.18302">
        <ele>102.5</ele>
        <time>2020-05-30T19:45:42Z</time>
      </trkpt>
      <trkpt lat="46.42765" lon="-0.18301">
        <ele>102.5</ele>
        <time>2020-05-30T19:45:43Z</time>
      </trkpt>
      <trkpt lat="46.42765" lon="-0.18301">
        <ele>102.5</ele>
        <time>2020-05-30T19:45:44Z</time>
      </trkpt>
      <trkpt lat="46.42766" lon="-0.18302">
        <ele>102.5</ele>
        <time>2020-05-30T19:45:45Z</time>
      </trkpt>
      <trkpt lat="46.42766" lon="-0.18302">
        <ele>102.5</ele>
        <time>2020-05-30T19:45:46Z</time>
      </trkpt>
      <trkpt lat="46.42766" lon="-0.18302">
        <ele>102.5</ele>
        <time>2020-05-30T19:45:47Z</time>
      </trkpt>
      <trkpt lat="46.42767" lon="-0.18302">
        <ele>102.5</ele>
        <time>2020-05-30T19:45:48Z</time>
      </trkpt>
      <trkpt lat="46.42767" lon="-0.18302">
        <ele>102.5</ele>
        <time>2020-05-30T19:45:49Z</time>
      </trkpt>
      <trkpt lat="46.42767" lon="-0.18303">
        <ele>102.5</ele>
        <time>2020-05-30T19:45:50Z</time>
      </trkpt>
      <trkpt lat="46.42768" lon="-0.18304">
        <ele>102.5</ele>
        <time>2020-05-30T19:45:51Z</time>
      </trkpt>
      <trkpt lat="46.42767" lon="-0.18304">
        <ele>102.5</ele>
        <time>2020-05-30T19:45:52Z</time>
      </trkpt>
      <trkpt lat="46.42767" lon="-0.18304">
        <ele>102.5</ele>
        <time>2020-05-30T19:45:53Z</time>
      </trkpt>
      <trkpt lat="46.42767" lon="-0.18304">
        <ele>102.5</ele>
        <time>2020-05-30T19:45:54Z</time>
      </trkpt>
      <trkpt lat="46.42767" lon="-0.18304">
        <ele>102.5</ele>
        <time>2020-05-30T19:45:55Z</time>
      </trkpt>
      <trkpt lat="46.42767" lon="-0.18305">
        <ele>102.5</ele>
        <time>2020-05-30T19:45:56Z</time>
      </trkpt>
      <trkpt lat="46.42767" lon="-0.18305">
        <ele>102.5</ele>
        <time>2020-05-30T19:45:57Z</time>
      </trkpt>
      <trkpt lat="46.42767" lon="-0.18305">
        <ele>102.5</ele>
        <time>2020-05-30T19:45:58Z</time>
      </trkpt>
      <trkpt lat="46.42767" lon="-0.18305">
        <ele>102.5</ele>
        <time>2020-05-30T19:45:59Z</time>
      </trkpt>
      <trkpt lat="46.42767" lon="-0.18305">
        <ele>102.5</ele>
        <time>2020-05-30T19:46:00Z</time>
      </trkpt>
      <trkpt lat="46.42767" lon="-0.18305">
        <ele>102.5</ele>
        <time>2020-05-30T19:46:01Z</time>
      </trkpt>
      <trkpt lat="46.42767" lon="-0.18305">
        <ele>102.5</ele>
        <time>2020-05-30T19:46:02Z</time>
      </trkpt>
      <trkpt lat="46.42767" lon="-0.18305">
        <ele>102.5</ele>
        <time>2020-05-30T19:46:03Z</time>
      </trkpt>
      <trkpt lat="46.42767" lon="-0.18305">
        <ele>102.5</ele>
        <time>2020-05-30T19:46:04Z</time>
      </trkpt>
      <trkpt lat="46.42766" lon="-0.18304">
        <ele>102.5</ele>
        <time>2020-05-30T19:46:05Z</time>
      </trkpt>
      <trkpt lat="46.42766" lon="-0.18304">
        <ele>102.5</ele>
        <time>2020-05-30T19:46:06Z</time>
      </trkpt>
      <trkpt lat="46.42766" lon="-0.18303">
        <ele>102.5</ele>
        <time>2020-05-30T19:46:07Z</time>
      </trkpt>
      <trkpt lat="46.42766" lon="-0.18302">
        <ele>102.5</ele>
        <time>2020-05-30T19:46:08Z</time>
      </trkpt>
      <trkpt lat="46.42765" lon="-0.18301">
        <ele>102.5</ele>
        <time>2020-05-30T19:46:09Z</time>
      </trkpt>
      <trkpt lat="46.42765" lon="-0.183">
        <ele>102.5</ele>
        <time>2020-05-30T19:46:10Z</time>
      </trkpt>
      <trkpt lat="46.42766" lon="-0.183">
        <ele>102.5</ele>
        <time>2020-05-30T19:46:11Z</time>
      </trkpt>
      <trkpt lat="46.42766" lon="-0.183">
        <ele>102.5</ele>
        <time>2020-05-30T19:46:12Z</time>
      </trkpt>
      <trkpt lat="46.42766" lon="-0.183">
        <ele>102.5</ele>
        <time>2020-05-30T19:46:13Z</time>
      </trkpt>
      <trkpt lat="46.42766" lon="-0.183">
        <ele>102.5</ele>
        <time>2020-05-30T19:46:14Z</time>
      </trkpt>
      <trkpt lat="46.42766" lon="-0.183">
        <ele>102.5</ele>
        <time>2020-05-30T19:46:15Z</time>
      </trkpt>
      <trkpt lat="46.42766" lon="-0.18299">
        <ele>102.5</ele>
        <time>2020-05-30T19:46:16Z</time>
      </trkpt>
      <trkpt lat="46.42765" lon="-0.18299">
        <ele>102.5</ele>
        <time>2020-05-30T19:46:17Z</time>
      </trkpt>
      <trkpt lat="46.42765" lon="-0.18298">
        <ele>102.5</ele>
        <time>2020-05-30T19:46:18Z</time>
      </trkpt>
      <trkpt lat="46.42765" lon="-0.18298">
        <ele>102.5</ele>
        <time>2020-05-30T19:46:19Z</time>
      </trkpt>
      <trkpt lat="46.42765" lon="-0.18297">
        <ele>102.5</ele>
        <time>2020-05-30T19:46:20Z</time>
      </trkpt>
      <trkpt lat="46.42764" lon="-0.18297">
        <ele>102.5</ele>
        <time>2020-05-30T19:46:21Z</time>
      </trkpt>
      <trkpt lat="46.42764" lon="-0.18297">
        <ele>102.5</ele>
        <time>2020-05-30T19:46:22Z</time>
      </trkpt>
      <trkpt lat="46.42764" lon="-0.18297">
        <ele>102.5</ele>
        <time>2020-05-30T19:46:23Z</time>
      </trkpt>
      <trkpt lat="46.42764" lon="-0.18296">
        <ele>102.5</ele>
        <time>2020-05-30T19:46:24Z</time>
      </trkpt>
      <trkpt lat="46.42763" lon="-0.18296">
        <ele>102.5</ele>
        <time>2020-05-30T19:46:25Z</time>
      </trkpt>
      <trkpt lat="46.42764" lon="-0.18296">
        <ele>102.5</ele>
        <time>2020-05-30T19:46:26Z</time>
      </trkpt>
      <trkpt lat="46.42763" lon="-0.18296">
        <ele>102.5</ele>
        <time>2020-05-30T19:46:27Z</time>
      </trkpt>
      <trkpt lat="46.42763" lon="-0.18295">
        <ele>102.5</ele>
        <time>2020-05-30T19:46:28Z</time>
      </trkpt>
      <trkpt lat="46.42763" lon="-0.18295">
        <ele>102.5</ele>
        <time>2020-05-30T19:46:29Z</time>
      </trkpt>
      <trkpt lat="46.42763" lon="-0.18295">
        <ele>102.5</ele>
        <time>2020-05-30T19:46:30Z</time>
      </trkpt>
      <trkpt lat="46.42763" lon="-0.18294">
        <ele>102.5</ele>
        <time>2020-05-30T19:46:31Z</time>
      </trkpt>
      <trkpt lat="46.42762" lon="-0.18293">
        <ele>102.5</ele>
        <time>2020-05-30T19:46:32Z</time>
      </trkpt>
      <trkpt lat="46.42762" lon="-0.18293">
        <ele>102.5</ele>
        <time>2020-05-30T19:46:33Z</time>
      </trkpt>
      <trkpt lat="46.42762" lon="-0.18294">
        <ele>102.5</ele>
        <time>2020-05-30T19:46:34Z</time>
      </trkpt>
      <trkpt lat="46.42762" lon="-0.18294">
        <ele>102.5</ele>
        <time>2020-05-30T19:46:35Z</time>
      </trkpt>
      <trkpt lat="46.42761" lon="-0.18294">
        <ele>102.6</ele>
        <time>2020-05-30T19:46:36Z</time>
      </trkpt>
      <trkpt lat="46.42762" lon="-0.18295">
        <ele>102.6</ele>
        <time>2020-05-30T19:46:37Z</time>
      </trkpt>
      <trkpt lat="46.42762" lon="-0.18295">
        <ele>102.6</ele>
        <time>2020-05-30T19:46:38Z</time>
      </trkpt>
      <trkpt lat="46.42763" lon="-0.18297">
        <ele>102.6</ele>
        <time>2020-05-30T19:46:39Z</time>
      </trkpt>
      <trkpt lat="46.42764" lon="-0.18299">
        <ele>102.6</ele>
        <time>2020-05-30T19:46:40Z</time>
      </trkpt>
      <trkpt lat="46.42765" lon="-0.18299">
        <ele>102.6</ele>
        <time>2020-05-30T19:46:41Z</time>
      </trkpt>
      <trkpt lat="46.42765" lon="-0.18299">
        <ele>102.6</ele>
        <time>2020-05-30T19:46:42Z</time>
      </trkpt>
      <trkpt lat="46.42766" lon="-0.183">
        <ele>102.6</ele>
        <time>2020-05-30T19:46:43Z</time>
      </trkpt>
      <trkpt lat="46.42766" lon="-0.18299">
        <ele>102.6</ele>
        <time>2020-05-30T19:46:44Z</time>
      </trkpt>
      <trkpt lat="46.42767" lon="-0.18299">
        <ele>102.6</ele>
        <time>2020-05-30T19:46:45Z</time>
      </trkpt>
      <trkpt lat="46.42767" lon="-0.18298">
        <ele>102.6</ele>
        <time>2020-05-30T19:46:46Z</time>
      </trkpt>
      <trkpt lat="46.42767" lon="-0.18297">
        <ele>102.6</ele>
        <time>2020-05-30T19:46:47Z</time>
      </trkpt>
      <trkpt lat="46.42767" lon="-0.18297">
        <ele>102.6</ele>
        <time>2020-05-30T19:46:48Z</time>
      </trkpt>
      <trkpt lat="46.42768" lon="-0.18298">
        <ele>102.6</ele>
        <time>2020-05-30T19:46:49Z</time>
      </trkpt>
      <trkpt lat="46.42769" lon="-0.18298">
        <ele>102.6</ele>
        <time>2020-05-30T19:46:50Z</time>
      </trkpt>
      <trkpt lat="46.42769" lon="-0.18298">
        <ele>102.6</ele>
        <time>2020-05-30T19:46:51Z</time>
      </trkpt>
      <trkpt lat="46.42769" lon="-0.18298">
        <ele>102.6</ele>
        <time>2020-05-30T19:46:52Z</time>
      </trkpt>
      <trkpt lat="46.42769" lon="-0.18297">
        <ele>102.6</ele>
        <time>2020-05-30T19:46:53Z</time>
      </trkpt>
      <trkpt lat="46.4277" lon="-0.18297">
        <ele>102.6</ele>
        <time>2020-05-30T19:46:54Z</time>
      </trkpt>
      <trkpt lat="46.42771" lon="-0.18297">
        <ele>102.6</ele>
        <time>2020-05-30T19:46:55Z</time>
      </trkpt>
      <trkpt lat="46.42772" lon="-0.18297">
        <ele>102.6</ele>
        <time>2020-05-30T19:46:56Z</time>
      </trkpt>
      <trkpt lat="46.42772" lon="-0.18298">
        <ele>102.6</ele>
        <time>2020-05-30T19:46:57Z</time>
      </trkpt>
      <trkpt lat="46.42772" lon="-0.18298">
        <ele>102.6</ele>
        <time>2020-05-30T19:46:58Z</time>
      </trkpt>
      <trkpt lat="46.42773" lon="-0.18298">
        <ele>102.6</ele>
        <time>2020-05-30T19:46:59Z</time>
      </trkpt>
      <trkpt lat="46.42773" lon="-0.18299">
        <ele>102.6</ele>
        <time>2020-05-30T19:47:00Z</time>
      </trkpt>
      <trkpt lat="46.42774" lon="-0.18299">
        <ele>102.6</ele>
        <time>2020-05-30T19:47:01Z</time>
      </trkpt>
      <trkpt lat="46.42774" lon="-0.18299">
        <ele>102.6</ele>
        <time>2020-05-30T19:47:02Z</time>
      </trkpt>
      <trkpt lat="46.42774" lon="-0.18299">
        <ele>102.6</ele>
        <time>2020-05-30T19:47:03Z</time>
      </trkpt>
      <trkpt lat="46.42773" lon="-0.183">
        <ele>102.6</ele>
        <time>2020-05-30T19:47:04Z</time>
      </trkpt>
      <trkpt lat="46.42773" lon="-0.183">
        <ele>102.6</ele>
        <time>2020-05-30T19:47:05Z</time>
      </trkpt>
      <trkpt lat="46.42773" lon="-0.183">
        <ele>102.6</ele>
        <time>2020-05-30T19:47:06Z</time>
      </trkpt>
      <trkpt lat="46.42773" lon="-0.183">
        <ele>102.6</ele>
        <time>2020-05-30T19:47:07Z</time>
      </trkpt>
      <trkpt lat="46.42773" lon="-0.18301">
        <ele>102.6</ele>
        <time>2020-05-30T19:47:08Z</time>
      </trkpt>
      <trkpt lat="46.42773" lon="-0.18301">
        <ele>102.6</ele>
        <time>2020-05-30T19:47:09Z</time>
      </trkpt>
      <trkpt lat="46.42774" lon="-0.18301">
        <ele>102.6</ele>
        <time>2020-05-30T19:47:10Z</time>
      </trkpt>
      <trkpt lat="46.42775" lon="-0.18302">
        <ele>102.6</ele>
        <time>2020-05-30T19:47:11Z</time>
      </trkpt>
      <trkpt lat="46.42775" lon="-0.18303">
        <ele>102.6</ele>
        <time>2020-05-30T19:47:12Z</time>
      </trkpt>
      <trkpt lat="46.42776" lon="-0.18304">
        <ele>102.6</ele>
        <time>2020-05-30T19:47:13Z</time>
      </trkpt>
      <trkpt lat="46.42777" lon="-0.18305">
        <ele>102.6</ele>
        <time>2020-05-30T19:47:14Z</time>
      </trkpt>
      <trkpt lat="46.42778" lon="-0.18305">
        <ele>102.6</ele>
        <time>2020-05-30T19:47:15Z</time>
      </trkpt>
      <trkpt lat="46.42778" lon="-0.18306">
        <ele>102.6</ele>
        <time>2020-05-30T19:47:16Z</time>
      </trkpt>
      <trkpt lat="46.42778" lon="-0.18307">
        <ele>102.6</ele>
        <time>2020-05-30T19:47:17Z</time>
      </trkpt>
      <trkpt lat="46.42778" lon="-0.18307">
        <ele>102.6</ele>
        <time>2020-05-30T19:47:18Z</time>
      </trkpt>
      <trkpt lat="46.42779" lon="-0.18308">
        <ele>102.6</ele>
        <time>2020-05-30T19:47:19Z</time>
      </trkpt>
      <trkpt lat="46.42778" lon="-0.18308">
        <ele>102.6</ele>
        <time>2020-05-30T19:47:20Z</time>
      </trkpt>
      <trkpt lat="46.42778" lon="-0.18309">
        <ele>102.6</ele>
        <time>2020-05-30T19:47:21Z</time>
      </trkpt>
      <trkpt lat="46.42778" lon="-0.18309">
        <ele>102.6</ele>
        <time>2020-05-30T19:47:22Z</time>
      </trkpt>
      <trkpt lat="46.42778" lon="-0.1831">
        <ele>102.6</ele>
        <time>2020-05-30T19:47:23Z</time>
      </trkpt>
      <trkpt lat="46.42777" lon="-0.18311">
        <ele>102.6</ele>
        <time>2020-05-30T19:47:24Z</time>
      </trkpt>
      <trkpt lat="46.42777" lon="-0.18312">
        <ele>102.6</ele>
        <time>2020-05-30T19:47:25Z</time>
      </trkpt>
      <trkpt lat="46.42777" lon="-0.18313">
        <ele>102.6</ele>
        <time>2020-05-30T19:47:26Z</time>
      </trkpt>
      <trkpt lat="46.42777" lon="-0.18314">
        <ele>102.6</ele>
        <time>2020-05-30T19:47:27Z</time>
      </trkpt>
      <trkpt lat="46.42777" lon="-0.18315">
        <ele>102.6</ele>
        <time>2020-05-30T19:47:28Z</time>
      </trkpt>
      <trkpt lat="46.42777" lon="-0.18314">
        <ele>102.6</ele>
        <time>2020-05-30T19:47:29Z</time>
      </trkpt>
      <trkpt lat="46.42776" lon="-0.18314">
        <ele>102.6</ele>
        <time>2020-05-30T19:47:30Z</time>
      </trkpt>
      <trkpt lat="46.42775" lon="-0.18313">
        <ele>102.6</ele>
        <time>2020-05-30T19:47:31Z</time>
      </trkpt>
      <trkpt lat="46.42775" lon="-0.18313">
        <ele>102.6</ele>
        <time>2020-05-30T19:47:32Z</time>
      </trkpt>
      <trkpt lat="46.42775" lon="-0.18313">
        <ele>102.6</ele>
        <time>2020-05-30T19:47:33Z</time>
      </trkpt>
      <trkpt lat="46.42775" lon="-0.18312">
        <ele>102.6</ele>
        <time>2020-05-30T19:47:34Z</time>
      </trkpt>
      <trkpt lat="46.42776" lon="-0.18311">
        <ele>102.6</ele>
        <time>2020-05-30T19:47:35Z</time>
      </trkpt>
      <trkpt lat="46.42776" lon="-0.1831">
        <ele>102.6</ele>
        <time>2020-05-30T19:47:36Z</time>
      </trkpt>
      <trkpt lat="46.42777" lon="-0.18309">
        <ele>102.6</ele>
        <time>2020-05-30T19:47:37Z</time>
      </trkpt>
      <trkpt lat="46.42777" lon="-0.18309">
        <ele>102.6</ele>
        <time>2020-05-30T19:47:38Z</time>
      </trkpt>
      <trkpt lat="46.42777" lon="-0.18309">
        <ele>102.6</ele>
        <time>2020-05-30T19:47:39Z</time>
      </trkpt>
      <trkpt lat="46.42778" lon="-0.18308">
        <ele>102.6</ele>
        <time>2020-05-30T19:47:40Z</time>
      </trkpt>
      <trkpt lat="46.42778" lon="-0.18308">
        <ele>102.6</ele>
        <time>2020-05-30T19:47:41Z</time>
      </trkpt>
      <trkpt lat="46.42779" lon="-0.18308">
        <ele>102.6</ele>
        <time>2020-05-30T19:47:42Z</time>
      </trkpt>
      <trkpt lat="46.4278" lon="-0.18309">
        <ele>102.6</ele>
        <time>2020-05-30T19:47:43Z</time>
      </trkpt>
      <trkpt lat="46.4278" lon="-0.18309">
        <ele>102.6</ele>
        <time>2020-05-30T19:47:44Z</time>
      </trkpt>
      <trkpt lat="46.4278" lon="-0.18309">
        <ele>102.6</ele>
        <time>2020-05-30T19:47:45Z</time>
      </trkpt>
      <trkpt lat="46.42781" lon="-0.18309">
        <ele>102.6</ele>
        <time>2020-05-30T19:47:46Z</time>
      </trkpt>
      <trkpt lat="46.4278" lon="-0.18309">
        <ele>102.6</ele>
        <time>2020-05-30T19:47:47Z</time>
      </trkpt>
      <trkpt lat="46.4278" lon="-0.18309">
        <ele>102.6</ele>
        <time>2020-05-30T19:47:48Z</time>
      </trkpt>
      <trkpt lat="46.4278" lon="-0.18309">
        <ele>102.6</ele>
        <time>2020-05-30T19:47:49Z</time>
      </trkpt>
      <trkpt lat="46.4278" lon="-0.18309">
        <ele>102.6</ele>
        <time>2020-05-30T19:47:50Z</time>
      </trkpt>
      <trkpt lat="46.42779" lon="-0.18308">
        <ele>102.6</ele>
        <time>2020-05-30T19:47:51Z</time>
      </trkpt>
      <trkpt lat="46.42779" lon="-0.18307">
        <ele>102.6</ele>
        <time>2020-05-30T19:47:52Z</time>
      </trkpt>
      <trkpt lat="46.42778" lon="-0.18305">
        <ele>102.6</ele>
        <time>2020-05-30T19:47:53Z</time>
      </trkpt>
      <trkpt lat="46.42778" lon="-0.18305">
        <ele>102.6</ele>
        <time>2020-05-30T19:47:54Z</time>
      </trkpt>
      <trkpt lat="46.42778" lon="-0.18304">
        <ele>102.6</ele>
        <time>2020-05-30T19:47:55Z</time>
      </trkpt>
      <trkpt lat="46.42777" lon="-0.18304">
        <ele>102.6</ele>
        <time>2020-05-30T19:47:56Z</time>
      </trkpt>
      <trkpt lat="46.42777" lon="-0.18303">
        <ele>102.6</ele>
        <time>2020-05-30T19:47:57Z</time>
      </trkpt>
      <trkpt lat="46.42777" lon="-0.18303">
        <ele>102.6</ele>
        <time>2020-05-30T19:47:58Z</time>
      </trkpt>
      <trkpt lat="46.42777" lon="-0.18303">
        <ele>102.6</ele>
        <time>2020-05-30T19:47:59Z</time>
      </trkpt>
      <trkpt lat="46.42779" lon="-0.18303">
        <ele>102.6</ele>
        <time>2020-05-30T19:48:00Z</time>
      </trkpt>
      <trkpt lat="46.42779" lon="-0.18302">
        <ele>102.6</ele>
        <time>2020-05-30T19:48:01Z</time>
      </trkpt>
      <trkpt lat="46.4278" lon="-0.18302">
        <ele>102.6</ele>
        <time>2020-05-30T19:48:02Z</time>
      </trkpt>
      <trkpt lat="46.4278" lon="-0.18301">
        <ele>102.6</ele>
        <time>2020-05-30T19:48:03Z</time>
      </trkpt>
      <trkpt lat="46.4278" lon="-0.18299">
        <ele>102.6</ele>
        <time>2020-05-30T19:48:04Z</time>
      </trkpt>
      <trkpt lat="46.4278" lon="-0.18298">
        <ele>102.6</ele>
        <time>2020-05-30T19:48:05Z</time>
      </trkpt>
      <trkpt lat="46.42779" lon="-0.18297">
        <ele>102.6</ele>
        <time>2020-05-30T19:48:06Z</time>
      </trkpt>
      <trkpt lat="46.42778" lon="-0.18297">
        <ele>102.6</ele>
        <time>2020-05-30T19:48:07Z</time>
      </trkpt>
      <trkpt lat="46.42778" lon="-0.18298">
        <ele>102.6</ele>
        <time>2020-05-30T19:48:08Z</time>
      </trkpt>
      <trkpt lat="46.42777" lon="-0.18298">
        <ele>102.6</ele>
        <time>2020-05-30T19:48:09Z</time>
      </trkpt>
      <trkpt lat="46.42778" lon="-0.18298">
        <ele>102.6</ele>
        <time>2020-05-30T19:48:10Z</time>
      </trkpt>
      <trkpt lat="46.42777" lon="-0.18298">
        <ele>102.6</ele>
        <time>2020-05-30T19:48:11Z</time>
      </trkpt>
      <trkpt lat="46.42778" lon="-0.18298">
        <ele>102.6</ele>
        <time>2020-05-30T19:48:12Z</time>
      </trkpt>
      <trkpt lat="46.42778" lon="-0.18298">
        <ele>102.6</ele>
        <time>2020-05-30T19:48:13Z</time>
      </trkpt>
      <trkpt lat="46.42778" lon="-0.18298">
        <ele>102.6</ele>
        <time>2020-05-30T19:48:14Z</time>
      </trkpt>
      <trkpt lat="46.42778" lon="-0.18298">
        <ele>102.6</ele>
        <time>2020-05-30T19:48:15Z</time>
      </trkpt>
      <trkpt lat="46.42778" lon="-0.18298">
        <ele>102.6</ele>
        <time>2020-05-30T19:48:16Z</time>
      </trkpt>
      <trkpt lat="46.42778" lon="-0.18298">
        <ele>102.6</ele>
        <time>2020-05-30T19:48:17Z</time>
      </trkpt>
      <trkpt lat="46.42778" lon="-0.18298">
        <ele>102.6</ele>
        <time>2020-05-30T19:48:18Z</time>
      </trkpt>
      <trkpt lat="46.42778" lon="-0.18298">
        <ele>102.6</ele>
        <time>2020-05-30T19:48:19Z</time>
      </trkpt>
      <trkpt lat="46.42778" lon="-0.18298">
        <ele>102.6</ele>
        <time>2020-05-30T19:48:20Z</time>
      </trkpt>
      <trkpt lat="46.42778" lon="-0.18298">
        <ele>102.6</ele>
        <time>2020-05-30T19:48:21Z</time>
      </trkpt>
      <trkpt lat="46.42777" lon="-0.18298">
        <ele>102.6</ele>
        <time>2020-05-30T19:48:22Z</time>
      </trkpt>
      <trkpt lat="46.42777" lon="-0.18298">
        <ele>102.6</ele>
        <time>2020-05-30T19:48:23Z</time>
      </trkpt>
      <trkpt lat="46.42777" lon="-0.18298">
        <ele>102.6</ele>
        <time>2020-05-30T19:48:24Z</time>
      </trkpt>
      <trkpt lat="46.42776" lon="-0.18297">
        <ele>102.6</ele>
        <time>2020-05-30T19:48:25Z</time>
      </trkpt>
      <trkpt lat="46.42776" lon="-0.18296">
        <ele>102.6</ele>
        <time>2020-05-30T19:48:26Z</time>
      </trkpt>
      <trkpt lat="46.42776" lon="-0.18296">
        <ele>102.6</ele>
        <time>2020-05-30T19:48:27Z</time>
      </trkpt>
      <trkpt lat="46.42776" lon="-0.18296">
        <ele>102.6</ele>
        <time>2020-05-30T19:48:28Z</time>
      </trkpt>
      <trkpt lat="46.42775" lon="-0.18295">
        <ele>102.6</ele>
        <time>2020-05-30T19:48:29Z</time>
      </trkpt>
      <trkpt lat="46.42775" lon="-0.18294">
        <ele>102.6</ele>
        <time>2020-05-30T19:48:30Z</time>
      </trkpt>
      <trkpt lat="46.42775" lon="-0.18293">
        <ele>102.6</ele>
        <time>2020-05-30T19:48:31Z</time>
      </trkpt>
      <trkpt lat="46.42776" lon="-0.18292">
        <ele>102.6</ele>
        <time>2020-05-30T19:48:32Z</time>
      </trkpt>
      <trkpt lat="46.42776" lon="-0.18291">
        <ele>102.6</ele>
        <time>2020-05-30T19:48:33Z</time>
      </trkpt>
      <trkpt lat="46.42777" lon="-0.1829">
        <ele>102.6</ele>
        <time>2020-05-30T19:48:34Z</time>
      </trkpt>
      <trkpt lat="46.42777" lon="-0.18289">
        <ele>102.6</ele>
        <time>2020-05-30T19:48:35Z</time>
      </trkpt>
      <trkpt lat="46.42777" lon="-0.18289">
        <ele>102.6</ele>
        <time>2020-05-30T19:48:36Z</time>
      </trkpt>
      <trkpt lat="46.42777" lon="-0.18289">
        <ele>102.6</ele>
        <time>2020-05-30T19:48:37Z</time>
      </trkpt>
      <trkpt lat="46.42777" lon="-0.18289">
        <ele>102.6</ele>
        <time>2020-05-30T19:48:38Z</time>
      </trkpt>
      <trkpt lat="46.42777" lon="-0.18288">
        <ele>102.6</ele>
        <time>2020-05-30T19:48:39Z</time>
      </trkpt>
      <trkpt lat="46.42777" lon="-0.18288">
        <ele>102.6</ele>
        <time>2020-05-30T19:48:40Z</time>
      </trkpt>
      <trkpt lat="46.42777" lon="-0.18288">
        <ele>102.6</ele>
        <time>2020-05-30T19:48:41Z</time>
      </trkpt>
      <trkpt lat="46.42778" lon="-0.18287">
        <ele>102.6</ele>
        <time>2020-05-30T19:48:42Z</time>
      </trkpt>
      <trkpt lat="46.42777" lon="-0.18288">
        <ele>102.6</ele>
        <time>2020-05-30T19:48:43Z</time>
      </trkpt>
      <trkpt lat="46.42777" lon="-0.18288">
        <ele>102.6</ele>
        <time>2020-05-30T19:48:44Z</time>
      </trkpt>
      <trkpt lat="46.42778" lon="-0.18288">
        <ele>102.6</ele>
        <time>2020-05-30T19:48:45Z</time>
      </trkpt>
      <trkpt lat="46.42778" lon="-0.18288">
        <ele>102.6</ele>
        <time>2020-05-30T19:48:46Z</time>
      </trkpt>
      <trkpt lat="46.42778" lon="-0.18288">
        <ele>102.6</ele>
        <time>2020-05-30T19:48:47Z</time>
      </trkpt>
      <trkpt lat="46.42779" lon="-0.18288">
        <ele>102.6</ele>
        <time>2020-05-30T19:48:48Z</time>
      </trkpt>
      <trkpt lat="46.42779" lon="-0.18288">
        <ele>102.6</ele>
        <time>2020-05-30T19:48:49Z</time>
      </trkpt>
      <trkpt lat="46.42779" lon="-0.18288">
        <ele>102.6</ele>
        <time>2020-05-30T19:48:50Z</time>
      </trkpt>
      <trkpt lat="46.4278" lon="-0.18288">
        <ele>102.6</ele>
        <time>2020-05-30T19:48:51Z</time>
      </trkpt>
      <trkpt lat="46.42781" lon="-0.18288">
        <ele>102.6</ele>
        <time>2020-05-30T19:48:52Z</time>
      </trkpt>
      <trkpt lat="46.42782" lon="-0.18288">
        <ele>102.6</ele>
        <time>2020-05-30T19:48:53Z</time>
      </trkpt>
      <trkpt lat="46.42784" lon="-0.18288">
        <ele>102.6</ele>
        <time>2020-05-30T19:48:54Z</time>
      </trkpt>
      <trkpt lat="46.42785" lon="-0.18288">
        <ele>102.6</ele>
        <time>2020-05-30T19:48:55Z</time>
      </trkpt>
      <trkpt lat="46.42786" lon="-0.18287">
        <ele>102.6</ele>
        <time>2020-05-30T19:48:56Z</time>
      </trkpt>
      <trkpt lat="46.42788" lon="-0.18286">
        <ele>102.6</ele>
        <time>2020-05-30T19:48:57Z</time>
      </trkpt>
      <trkpt lat="46.42787" lon="-0.18286">
        <ele>102.6</ele>
        <time>2020-05-30T19:48:58Z</time>
      </trkpt>
      <trkpt lat="46.42787" lon="-0.18286">
        <ele>102.6</ele>
        <time>2020-05-30T19:48:59Z</time>
      </trkpt>
      <trkpt lat="46.42785" lon="-0.18286">
        <ele>102.6</ele>
        <time>2020-05-30T19:49:00Z</time>
      </trkpt>
      <trkpt lat="46.42784" lon="-0.18286">
        <ele>102.6</ele>
        <time>2020-05-30T19:49:01Z</time>
      </trkpt>
      <trkpt lat="46.42782" lon="-0.18286">
        <ele>102.6</ele>
        <time>2020-05-30T19:49:02Z</time>
      </trkpt>
      <trkpt lat="46.4278" lon="-0.18287">
        <ele>102.6</ele>
        <time>2020-05-30T19:49:03Z</time>
      </trkpt>
      <trkpt lat="46.42779" lon="-0.18287">
        <ele>102.6</ele>
        <time>2020-05-30T19:49:04Z</time>
      </trkpt>
      <trkpt lat="46.42778" lon="-0.18286">
        <ele>102.6</ele>
        <time>2020-05-30T19:49:05Z</time>
      </trkpt>
      <trkpt lat="46.42777" lon="-0.18286">
        <ele>102.6</ele>
        <time>2020-05-30T19:49:06Z</time>
      </trkpt>
      <trkpt lat="46.42776" lon="-0.18286">
        <ele>102.6</ele>
        <time>2020-05-30T19:49:07Z</time>
      </trkpt>
      <trkpt lat="46.42775" lon="-0.18287">
        <ele>102.6</ele>
        <time>2020-05-30T19:49:08Z</time>
      </trkpt>
      <trkpt lat="46.42775" lon="-0.18288">
        <ele>102.6</ele>
        <time>2020-05-30T19:49:09Z</time>
      </trkpt>
      <trkpt lat="46.42775" lon="-0.18287">
        <ele>102.6</ele>
        <time>2020-05-30T19:49:10Z</time>
      </trkpt>
      <trkpt lat="46.42775" lon="-0.18288">
        <ele>102.6</ele>
        <time>2020-05-30T19:49:11Z</time>
      </trkpt>
      <trkpt lat="46.42776" lon="-0.18288">
        <ele>102.6</ele>
        <time>2020-05-30T19:49:12Z</time>
      </trkpt>
      <trkpt lat="46.42776" lon="-0.18288">
        <ele>102.6</ele>
        <time>2020-05-30T19:49:13Z</time>
      </trkpt>
      <trkpt lat="46.42776" lon="-0.18289">
        <ele>102.6</ele>
        <time>2020-05-30T19:49:14Z</time>
      </trkpt>
      <trkpt lat="46.42777" lon="-0.18289">
        <ele>102.6</ele>
        <time>2020-05-30T19:49:15Z</time>
      </trkpt>
      <trkpt lat="46.42777" lon="-0.1829">
        <ele>102.6</ele>
        <time>2020-05-30T19:49:16Z</time>
      </trkpt>
      <trkpt lat="46.42777" lon="-0.1829">
        <ele>102.6</ele>
        <time>2020-05-30T19:49:17Z</time>
      </trkpt>
      <trkpt lat="46.42776" lon="-0.1829">
        <ele>102.6</ele>
        <time>2020-05-30T19:49:18Z</time>
      </trkpt>
      <trkpt lat="46.42777" lon="-0.1829">
        <ele>102.6</ele>
        <time>2020-05-30T19:49:19Z</time>
      </trkpt>
      <trkpt lat="46.42777" lon="-0.18291">
        <ele>102.6</ele>
        <time>2020-05-30T19:49:20Z</time>
      </trkpt>
      <trkpt lat="46.42777" lon="-0.18292">
        <ele>102.6</ele>
        <time>2020-05-30T19:49:21Z</time>
      </trkpt>
      <trkpt lat="46.42778" lon="-0.18292">
        <ele>102.6</ele>
        <time>2020-05-30T19:49:22Z</time>
      </trkpt>
      <trkpt lat="46.42778" lon="-0.18292">
        <ele>102.6</ele>
        <time>2020-05-30T19:49:23Z</time>
      </trkpt>
      <trkpt lat="46.42778" lon="-0.18292">
        <ele>102.6</ele>
        <time>2020-05-30T19:49:24Z</time>
      </trkpt>
      <trkpt lat="46.42778" lon="-0.18292">
        <ele>102.6</ele>
        <time>2020-05-30T19:49:25Z</time>
      </trkpt>
      <trkpt lat="46.42778" lon="-0.18292">
        <ele>102.6</ele>
        <time>2020-05-30T19:49:26Z</time>
      </trkpt>
      <trkpt lat="46.42779" lon="-0.18292">
        <ele>102.6</ele>
        <time>2020-05-30T19:49:27Z</time>
      </trkpt>
      <trkpt lat="46.42779" lon="-0.18291">
        <ele>102.6</ele>
        <time>2020-05-30T19:49:28Z</time>
      </trkpt>
      <trkpt lat="46.42779" lon="-0.18291">
        <ele>102.6</ele>
        <time>2020-05-30T19:49:29Z</time>
      </trkpt>
      <trkpt lat="46.42778" lon="-0.18291">
        <ele>102.6</ele>
        <time>2020-05-30T19:49:30Z</time>
      </trkpt>
      <trkpt lat="46.42778" lon="-0.18291">
        <ele>102.6</ele>
        <time>2020-05-30T19:49:31Z</time>
      </trkpt>
      <trkpt lat="46.42778" lon="-0.18292">
        <ele>102.6</ele>
        <time>2020-05-30T19:49:32Z</time>
      </trkpt>
      <trkpt lat="46.42777" lon="-0.18292">
        <ele>102.6</ele>
        <time>2020-05-30T19:49:33Z</time>
      </trkpt>
      <trkpt lat="46.42778" lon="-0.18293">
        <ele>102.6</ele>
        <time>2020-05-30T19:49:34Z</time>
      </trkpt>
      <trkpt lat="46.42778" lon="-0.18294">
        <ele>102.6</ele>
        <time>2020-05-30T19:49:35Z</time>
      </trkpt>
      <trkpt lat="46.42778" lon="-0.18295">
        <ele>102.6</ele>
        <time>2020-05-30T19:49:36Z</time>
      </trkpt>
      <trkpt lat="46.42777" lon="-0.18296">
        <ele>102.6</ele>
        <time>2020-05-30T19:49:37Z</time>
      </trkpt>
      <trkpt lat="46.42777" lon="-0.18297">
        <ele>102.6</ele>
        <time>2020-05-30T19:49:38Z</time>
      </trkpt>
      <trkpt lat="46.42777" lon="-0.18298">
        <ele>102.6</ele>
        <time>2020-05-30T19:49:39Z</time>
      </trkpt>
      <trkpt lat="46.42777" lon="-0.18299">
        <ele>102.6</ele>
        <time>2020-05-30T19:49:40Z</time>
      </trkpt>
      <trkpt lat="46.42777" lon="-0.18299">
        <ele>102.6</ele>
        <time>2020-05-30T19:49:41Z</time>
      </trkpt>
      <trkpt lat="46.42777" lon="-0.183">
        <ele>102.6</ele>
        <time>2020-05-30T19:49:42Z</time>
      </trkpt>
      <trkpt lat="46.42777" lon="-0.183">
        <ele>102.6</ele>
        <time>2020-05-30T19:49:43Z</time>
      </trkpt>
      <trkpt lat="46.42777" lon="-0.183">
        <ele>102.6</ele>
        <time>2020-05-30T19:49:44Z</time>
      </trkpt>
      <trkpt lat="46.42777" lon="-0.183">
        <ele>102.6</ele>
        <time>2020-05-30T19:49:45Z</time>
      </trkpt>
      <trkpt lat="46.42777" lon="-0.18299">
        <ele>102.6</ele>
        <time>2020-05-30T19:49:46Z</time>
      </trkpt>
      <trkpt lat="46.42777" lon="-0.18298">
        <ele>102.6</ele>
        <time>2020-05-30T19:49:47Z</time>
      </trkpt>
      <trkpt lat="46.42777" lon="-0.18299">
        <ele>102.6</ele>
        <time>2020-05-30T19:49:48Z</time>
      </trkpt>
      <trkpt lat="46.42777" lon="-0.18299">
        <ele>102.6</ele>
        <time>2020-05-30T19:49:49Z</time>
      </trkpt>
      <trkpt lat="46.42776" lon="-0.18299">
        <ele>102.6</ele>
        <time>2020-05-30T19:49:50Z</time>
      </trkpt>
      <trkpt lat="46.42776" lon="-0.18299">
        <ele>102.6</ele>
        <time>2020-05-30T19:49:51Z</time>
      </trkpt>
      <trkpt lat="46.42776" lon="-0.18299">
        <ele>102.6</ele>
        <time>2020-05-30T19:49:52Z</time>
      </trkpt>
      <trkpt lat="46.42776" lon="-0.18299">
        <ele>102.6</ele>
        <time>2020-05-30T19:49:53Z</time>
      </trkpt>
      <trkpt lat="46.42776" lon="-0.18299">
        <ele>102.6</ele>
        <time>2020-05-30T19:49:54Z</time>
      </trkpt>
      <trkpt lat="46.42776" lon="-0.183">
        <ele>102.6</ele>
        <time>2020-05-30T19:49:55Z</time>
      </trkpt>
      <trkpt lat="46.42776" lon="-0.183">
        <ele>102.6</ele>
        <time>2020-05-30T19:49:56Z</time>
      </trkpt>
      <trkpt lat="46.42776" lon="-0.183">
        <ele>102.6</ele>
        <time>2020-05-30T19:49:57Z</time>
      </trkpt>
      <trkpt lat="46.42776" lon="-0.183">
        <ele>102.6</ele>
        <time>2020-05-30T19:49:58Z</time>
      </trkpt>
      <trkpt lat="46.42776" lon="-0.183">
        <ele>102.6</ele>
        <time>2020-05-30T19:49:59Z</time>
      </trkpt>
      <trkpt lat="46.42776" lon="-0.183">
        <ele>102.6</ele>
        <time>2020-05-30T19:50:00Z</time>
      </trkpt>
      <trkpt lat="46.42776" lon="-0.18301">
        <ele>102.6</ele>
        <time>2020-05-30T19:50:01Z</time>
      </trkpt>
      <trkpt lat="46.42776" lon="-0.18301">
        <ele>102.6</ele>
        <time>2020-05-30T19:50:02Z</time>
      </trkpt>
      <trkpt lat="46.42776" lon="-0.18301">
        <ele>102.6</ele>
        <time>2020-05-30T19:50:03Z</time>
      </trkpt>
      <trkpt lat="46.42775" lon="-0.183">
        <ele>102.6</ele>
        <time>2020-05-30T19:50:04Z</time>
      </trkpt>
      <trkpt lat="46.42775" lon="-0.18301">
        <ele>102.6</ele>
        <time>2020-05-30T19:50:05Z</time>
      </trkpt>
      <trkpt lat="46.42775" lon="-0.18302">
        <ele>102.6</ele>
        <time>2020-05-30T19:50:06Z</time>
      </trkpt>
      <trkpt lat="46.42775" lon="-0.18302">
        <ele>102.6</ele>
        <time>2020-05-30T19:50:07Z</time>
      </trkpt>
      <trkpt lat="46.42775" lon="-0.18302">
        <ele>102.6</ele>
        <time>2020-05-30T19:50:08Z</time>
      </trkpt>
      <trkpt lat="46.42775" lon="-0.18303">
        <ele>102.6</ele>
        <time>2020-05-30T19:50:09Z</time>
      </trkpt>
      <trkpt lat="46.42775" lon="-0.18303">
        <ele>102.6</ele>
        <time>2020-05-30T19:50:10Z</time>
      </trkpt>
      <trkpt lat="46.42775" lon="-0.18303">
        <ele>102.6</ele>
        <time>2020-05-30T19:50:11Z</time>
      </trkpt>
      <trkpt lat="46.42775" lon="-0.18303">
        <ele>102.6</ele>
        <time>2020-05-30T19:50:12Z</time>
      </trkpt>
      <trkpt lat="46.42775" lon="-0.18304">
        <ele>102.6</ele>
        <time>2020-05-30T19:50:13Z</time>
      </trkpt>
      <trkpt lat="46.42775" lon="-0.18305">
        <ele>102.6</ele>
        <time>2020-05-30T19:50:14Z</time>
      </trkpt>
      <trkpt lat="46.42774" lon="-0.18305">
        <ele>102.6</ele>
        <time>2020-05-30T19:50:15Z</time>
      </trkpt>
      <trkpt lat="46.42775" lon="-0.18306">
        <ele>102.6</ele>
        <time>2020-05-30T19:50:16Z</time>
      </trkpt>
      <trkpt lat="46.42775" lon="-0.18306">
        <ele>102.6</ele>
        <time>2020-05-30T19:50:17Z</time>
      </trkpt>
      <trkpt lat="46.42776" lon="-0.18306">
        <ele>102.6</ele>
        <time>2020-05-30T19:50:18Z</time>
      </trkpt>
      <trkpt lat="46.42777" lon="-0.18305">
        <ele>102.6</ele>
        <time>2020-05-30T19:50:19Z</time>
      </trkpt>
      <trkpt lat="46.42777" lon="-0.18305">
        <ele>102.6</ele>
        <time>2020-05-30T19:50:20Z</time>
      </trkpt>
      <trkpt lat="46.42778" lon="-0.18305">
        <ele>102.6</ele>
        <time>2020-05-30T19:50:21Z</time>
      </trkpt>
      <trkpt lat="46.42777" lon="-0.18305">
        <ele>102.6</ele>
        <time>2020-05-30T19:50:22Z</time>
      </trkpt>
      <trkpt lat="46.42777" lon="-0.18305">
        <ele>102.6</ele>
        <time>2020-05-30T19:50:23Z</time>
      </trkpt>
      <trkpt lat="46.42776" lon="-0.18305">
        <ele>102.6</ele>
        <time>2020-05-30T19:50:24Z</time>
      </trkpt>
      <trkpt lat="46.42775" lon="-0.18305">
        <ele>102.6</ele>
        <time>2020-05-30T19:50:25Z</time>
      </trkpt>
      <trkpt lat="46.42776" lon="-0.18304">
        <ele>102.6</ele>
        <time>2020-05-30T19:50:26Z</time>
      </trkpt>
      <trkpt lat="46.42776" lon="-0.18304">
        <ele>102.6</ele>
        <time>2020-05-30T19:50:27Z</time>
      </trkpt>
      <trkpt lat="46.42776" lon="-0.18303">
        <ele>102.6</ele>
        <time>2020-05-30T19:50:28Z</time>
      </trkpt>
      <trkpt lat="46.42775" lon="-0.18301">
        <ele>102.6</ele>
        <time>2020-05-30T19:50:29Z</time>
      </trkpt>
      <trkpt lat="46.42775" lon="-0.18301">
        <ele>102.6</ele>
        <time>2020-05-30T19:50:30Z</time>
      </trkpt>
      <trkpt lat="46.42775" lon="-0.18302">
        <ele>102.6</ele>
        <time>2020-05-30T19:50:31Z</time>
      </trkpt>
      <trkpt lat="46.42774" lon="-0.18303">
        <ele>102.6</ele>
        <time>2020-05-30T19:50:32Z</time>
      </trkpt>
      <trkpt lat="46.42775" lon="-0.18304">
        <ele>102.6</ele>
        <time>2020-05-30T19:50:33Z</time>
      </trkpt>
      <trkpt lat="46.42775" lon="-0.18304">
        <ele>102.6</ele>
        <time>2020-05-30T19:50:34Z</time>
      </trkpt>
      <trkpt lat="46.42774" lon="-0.18304">
        <ele>102.6</ele>
        <time>2020-05-30T19:50:35Z</time>
      </trkpt>
      <trkpt lat="46.42774" lon="-0.18304">
        <ele>102.6</ele>
        <time>2020-05-30T19:50:36Z</time>
      </trkpt>
      <trkpt lat="46.42774" lon="-0.18304">
        <ele>102.6</ele>
        <time>2020-05-30T19:50:37Z</time>
      </trkpt>
      <trkpt lat="46.42774" lon="-0.18304">
        <ele>102.6</ele>
        <time>2020-05-30T19:50:38Z</time>
      </trkpt>
      <trkpt lat="46.42774" lon="-0.18305">
        <ele>102.6</ele>
        <time>2020-05-30T19:50:39Z</time>
      </trkpt>
      <trkpt lat="46.42774" lon="-0.18305">
        <ele>102.6</ele>
        <time>2020-05-30T19:50:40Z</time>
      </trkpt>
      <trkpt lat="46.42774" lon="-0.18305">
        <ele>102.6</ele>
        <time>2020-05-30T19:50:41Z</time>
      </trkpt>
      <trkpt lat="46.42774" lon="-0.18305">
        <ele>102.6</ele>
        <time>2020-05-30T19:50:42Z</time>
      </trkpt>
      <trkpt lat="46.42774" lon="-0.18305">
        <ele>102.6</ele>
        <time>2020-05-30T19:50:43Z</time>
      </trkpt>
      <trkpt lat="46.42774" lon="-0.18305">
        <ele>102.6</ele>
        <time>2020-05-30T19:50:44Z</time>
      </trkpt>
      <trkpt lat="46.42774" lon="-0.18304">
        <ele>102.6</ele>
        <time>2020-05-30T19:50:45Z</time>
      </trkpt>
      <trkpt lat="46.42774" lon="-0.18304">
        <ele>102.6</ele>
        <time>2020-05-30T19:50:46Z</time>
      </trkpt>
      <trkpt lat="46.42774" lon="-0.18303">
        <ele>102.6</ele>
        <time>2020-05-30T19:50:47Z</time>
      </trkpt>
      <trkpt lat="46.42773" lon="-0.18302">
        <ele>102.6</ele>
        <time>2020-05-30T19:50:48Z</time>
      </trkpt>
      <trkpt lat="46.42773" lon="-0.18303">
        <ele>102.6</ele>
        <time>2020-05-30T19:50:49Z</time>
      </trkpt>
      <trkpt lat="46.42773" lon="-0.18302">
        <ele>102.6</ele>
        <time>2020-05-30T19:50:50Z</time>
      </trkpt>
      <trkpt lat="46.42773" lon="-0.18302">
        <ele>102.6</ele>
        <time>2020-05-30T19:50:51Z</time>
      </trkpt>
      <trkpt lat="46.42773" lon="-0.18302">
        <ele>102.6</ele>
        <time>2020-05-30T19:50:52Z</time>
      </trkpt>
      <trkpt lat="46.42773" lon="-0.18303">
        <ele>102.6</ele>
        <time>2020-05-30T19:50:53Z</time>
      </trkpt>
      <trkpt lat="46.42773" lon="-0.18303">
        <ele>102.6</ele>
        <time>2020-05-30T19:50:54Z</time>
      </trkpt>
      <trkpt lat="46.42773" lon="-0.18303">
        <ele>102.6</ele>
        <time>2020-05-30T19:50:55Z</time>
      </trkpt>
      <trkpt lat="46.42773" lon="-0.18303">
        <ele>102.6</ele>
        <time>2020-05-30T19:50:56Z</time>
      </trkpt>
      <trkpt lat="46.42773" lon="-0.18303">
        <ele>102.6</ele>
        <time>2020-05-30T19:50:57Z</time>
      </trkpt>
      <trkpt lat="46.42772" lon="-0.18303">
        <ele>102.6</ele>
        <time>2020-05-30T19:50:58Z</time>
      </trkpt>
      <trkpt lat="46.42772" lon="-0.18303">
        <ele>102.6</ele>
        <time>2020-05-30T19:50:59Z</time>
      </trkpt>
      <trkpt lat="46.42772" lon="-0.18303">
        <ele>102.6</ele>
        <time>2020-05-30T19:51:00Z</time>
      </trkpt>
      <trkpt lat="46.42772" lon="-0.18303">
        <ele>102.6</ele>
        <time>2020-05-30T19:51:01Z</time>
      </trkpt>
      <trkpt lat="46.42772" lon="-0.18303">
        <ele>102.6</ele>
        <time>2020-05-30T19:51:02Z</time>
      </trkpt>
      <trkpt lat="46.42772" lon="-0.18303">
        <ele>102.6</ele>
        <time>2020-05-30T19:51:03Z</time>
      </trkpt>
      <trkpt lat="46.42772" lon="-0.18304">
        <ele>102.6</ele>
        <time>2020-05-30T19:51:04Z</time>
      </trkpt>
      <trkpt lat="46.42772" lon="-0.18304">
        <ele>102.6</ele>
        <time>2020-05-30T19:51:05Z</time>
      </trkpt>
      <trkpt lat="46.42772" lon="-0.18305">
        <ele>102.6</ele>
        <time>2020-05-30T19:51:06Z</time>
      </trkpt>
      <trkpt lat="46.42772" lon="-0.18306">
        <ele>102.6</ele>
        <time>2020-05-30T19:51:07Z</time>
      </trkpt>
      <trkpt lat="46.42772" lon="-0.18306">
        <ele>102.6</ele>
        <time>2020-05-30T19:51:08Z</time>
      </trkpt>
      <trkpt lat="46.42772" lon="-0.18306">
        <ele>102.6</ele>
        <time>2020-05-30T19:51:09Z</time>
      </trkpt>
      <trkpt lat="46.42772" lon="-0.18306">
        <ele>102.6</ele>
        <time>2020-05-30T19:51:10Z</time>
      </trkpt>
      <trkpt lat="46.42772" lon="-0.18306">
        <ele>102.6</ele>
        <time>2020-05-30T19:51:11Z</time>
      </trkpt>
      <trkpt lat="46.42772" lon="-0.18306">
        <ele>102.6</ele>
        <time>2020-05-30T19:51:12Z</time>
      </trkpt>
      <trkpt lat="46.42772" lon="-0.18306">
        <ele>102.6</ele>
        <time>2020-05-30T19:51:13Z</time>
      </trkpt>
      <trkpt lat="46.42773" lon="-0.18306">
        <ele>102.6</ele>
        <time>2020-05-30T19:51:14Z</time>
      </trkpt>
      <trkpt lat="46.42773" lon="-0.18306">
        <ele>102.6</ele>
        <time>2020-05-30T19:51:15Z</time>
      </trkpt>
      <trkpt lat="46.42773" lon="-0.18306">
        <ele>102.6</ele>
        <time>2020-05-30T19:51:16Z</time>
      </trkpt>
      <trkpt lat="46.42773" lon="-0.18306">
        <ele>102.6</ele>
        <time>2020-05-30T19:51:17Z</time>
      </trkpt>
      <trkpt lat="46.42773" lon="-0.18306">
        <ele>102.6</ele>
        <time>2020-05-30T19:51:18Z</time>
      </trkpt>
      <trkpt lat="46.42773" lon="-0.18306">
        <ele>102.6</ele>
        <time>2020-05-30T19:51:19Z</time>
      </trkpt>
      <trkpt lat="46.42773" lon="-0.18306">
        <ele>102.6</ele>
        <time>2020-05-30T19:51:20Z</time>
      </trkpt>
      <trkpt lat="46.42773" lon="-0.18306">
        <ele>102.6</ele>
        <time>2020-05-30T19:51:21Z</time>
      </trkpt>
      <trkpt lat="46.42773" lon="-0.18306">
        <ele>102.6</ele>
        <time>2020-05-30T19:51:22Z</time>
      </trkpt>
      <trkpt lat="46.42773" lon="-0.18306">
        <ele>102.6</ele>
        <time>2020-05-30T19:51:23Z</time>
      </trkpt>
      <trkpt lat="46.42773" lon="-0.18306">
        <ele>102.6</ele>
        <time>2020-05-30T19:51:24Z</time>
      </trkpt>
      <trkpt lat="46.42773" lon="-0.18306">
        <ele>102.6</ele>
        <time>2020-05-30T19:51:25Z</time>
      </trkpt>
      <trkpt lat="46.42773" lon="-0.18306">
        <ele>102.6</ele>
        <time>2020-05-30T19:51:26Z</time>
      </trkpt>
      <trkpt lat="46.42773" lon="-0.18306">
        <ele>102.6</ele>
        <time>2020-05-30T19:51:27Z</time>
      </trkpt>
      <trkpt lat="46.42773" lon="-0.18306">
        <ele>102.6</ele>
        <time>2020-05-30T19:51:28Z</time>
      </trkpt>
      <trkpt lat="46.42773" lon="-0.18306">
        <ele>102.6</ele>
        <time>2020-05-30T19:51:29Z</time>
      </trkpt>
      <trkpt lat="46.42773" lon="-0.18306">
        <ele>102.6</ele>
        <time>2020-05-30T19:51:30Z</time>
      </trkpt>
      <trkpt lat="46.42773" lon="-0.18306">
        <ele>102.6</ele>
        <time>2020-05-30T19:51:31Z</time>
      </trkpt>
      <trkpt lat="46.42773" lon="-0.18306">
        <ele>102.6</ele>
        <time>2020-05-30T19:51:32Z</time>
      </trkpt>
      <trkpt lat="46.42773" lon="-0.18306">
        <ele>102.6</ele>
        <time>2020-05-30T19:51:33Z</time>
      </trkpt>
      <trkpt lat="46.42773" lon="-0.18306">
        <ele>102.6</ele>
        <time>2020-05-30T19:51:34Z</time>
      </trkpt>
      <trkpt lat="46.42773" lon="-0.18306">
        <ele>102.6</ele>
        <time>2020-05-30T19:51:35Z</time>
      </trkpt>
      <trkpt lat="46.42773" lon="-0.18306">
        <ele>102.6</ele>
        <time>2020-05-30T19:51:36Z</time>
      </trkpt>
      <trkpt lat="46.42773" lon="-0.18306">
        <ele>102.6</ele>
        <time>2020-05-30T19:51:37Z</time>
      </trkpt>
      <trkpt lat="46.42773" lon="-0.18306">
        <ele>102.6</ele>
        <time>2020-05-30T19:51:38Z</time>
      </trkpt>
      <trkpt lat="46.42773" lon="-0.18304">
        <ele>102.6</ele>
        <time>2020-05-30T19:51:39Z</time>
      </trkpt>
      <trkpt lat="46.42773" lon="-0.18304">
        <ele>102.6</ele>
        <time>2020-05-30T19:51:40Z</time>
      </trkpt>
      <trkpt lat="46.42772" lon="-0.18304">
        <ele>102.6</ele>
        <time>2020-05-30T19:51:41Z</time>
      </trkpt>
      <trkpt lat="46.42772" lon="-0.18305">
        <ele>102.6</ele>
        <time>2020-05-30T19:51:42Z</time>
      </trkpt>
      <trkpt lat="46.42772" lon="-0.18305">
        <ele>102.6</ele>
        <time>2020-05-30T19:51:43Z</time>
      </trkpt>
      <trkpt lat="46.42772" lon="-0.18305">
        <ele>102.6</ele>
        <time>2020-05-30T19:51:44Z</time>
      </trkpt>
      <trkpt lat="46.42771" lon="-0.18305">
        <ele>102.6</ele>
        <time>2020-05-30T19:51:45Z</time>
      </trkpt>
      <trkpt lat="46.42771" lon="-0.18305">
        <ele>102.6</ele>
        <time>2020-05-30T19:51:46Z</time>
      </trkpt>
      <trkpt lat="46.42771" lon="-0.18305">
        <ele>102.6</ele>
        <time>2020-05-30T19:51:47Z</time>
      </trkpt>
      <trkpt lat="46.42771" lon="-0.18305">
        <ele>102.6</ele>
        <time>2020-05-30T19:51:48Z</time>
      </trkpt>
      <trkpt lat="46.42771" lon="-0.18305">
        <ele>102.6</ele>
        <time>2020-05-30T19:51:49Z</time>
      </trkpt>
      <trkpt lat="46.42771" lon="-0.18305">
        <ele>102.6</ele>
        <time>2020-05-30T19:51:50Z</time>
      </trkpt>
      <trkpt lat="46.42771" lon="-0.18305">
        <ele>102.6</ele>
        <time>2020-05-30T19:51:51Z</time>
      </trkpt>
      <trkpt lat="46.42772" lon="-0.18304">
        <ele>102.6</ele>
        <time>2020-05-30T19:51:52Z</time>
      </trkpt>
      <trkpt lat="46.42772" lon="-0.18305">
        <ele>102.6</ele>
        <time>2020-05-30T19:51:53Z</time>
      </trkpt>
      <trkpt lat="46.42771" lon="-0.18306">
        <ele>102.6</ele>
        <time>2020-05-30T19:51:54Z</time>
      </trkpt>
      <trkpt lat="46.42771" lon="-0.18307">
        <ele>102.6</ele>
        <time>2020-05-30T19:51:55Z</time>
      </trkpt>
      <trkpt lat="46.42771" lon="-0.18307">
        <ele>102.6</ele>
        <time>2020-05-30T19:51:56Z</time>
      </trkpt>
      <trkpt lat="46.42771" lon="-0.18306">
        <ele>102.6</ele>
        <time>2020-05-30T19:51:57Z</time>
      </trkpt>
      <trkpt lat="46.42771" lon="-0.18306">
        <ele>102.6</ele>
        <time>2020-05-30T19:51:58Z</time>
      </trkpt>
      <trkpt lat="46.42771" lon="-0.18306">
        <ele>102.6</ele>
        <time>2020-05-30T19:51:59Z</time>
      </trkpt>
      <trkpt lat="46.42771" lon="-0.18306">
        <ele>102.6</ele>
        <time>2020-05-30T19:52:00Z</time>
      </trkpt>
      <trkpt lat="46.42771" lon="-0.18306">
        <ele>102.6</ele>
        <time>2020-05-30T19:52:01Z</time>
      </trkpt>
      <trkpt lat="46.42771" lon="-0.18307">
        <ele>102.6</ele>
        <time>2020-05-30T19:52:02Z</time>
      </trkpt>
      <trkpt lat="46.42771" lon="-0.18307">
        <ele>102.6</ele>
        <time>2020-05-30T19:52:03Z</time>
      </trkpt>
      <trkpt lat="46.42771" lon="-0.18307">
        <ele>102.6</ele>
        <time>2020-05-30T19:52:04Z</time>
      </trkpt>
      <trkpt lat="46.42771" lon="-0.18307">
        <ele>102.6</ele>
        <time>2020-05-30T19:52:05Z</time>
      </trkpt>
      <trkpt lat="46.42771" lon="-0.18307">
        <ele>102.6</ele>
        <time>2020-05-30T19:52:06Z</time>
      </trkpt>
      <trkpt lat="46.42771" lon="-0.18307">
        <ele>102.6</ele>
        <time>2020-05-30T19:52:07Z</time>
      </trkpt>
      <trkpt lat="46.42771" lon="-0.18307">
        <ele>102.6</ele>
        <time>2020-05-30T19:52:08Z</time>
      </trkpt>
      <trkpt lat="46.42771" lon="-0.18307">
        <ele>102.6</ele>
        <time>2020-05-30T19:52:09Z</time>
      </trkpt>
      <trkpt lat="46.42771" lon="-0.18307">
        <ele>102.6</ele>
        <time>2020-05-30T19:52:10Z</time>
      </trkpt>
      <trkpt lat="46.42771" lon="-0.18307">
        <ele>102.6</ele>
        <time>2020-05-30T19:52:11Z</time>
      </trkpt>
      <trkpt lat="46.42771" lon="-0.18307">
        <ele>102.6</ele>
        <time>2020-05-30T19:52:12Z</time>
      </trkpt>
      <trkpt lat="46.42771" lon="-0.18307">
        <ele>102.6</ele>
        <time>2020-05-30T19:52:13Z</time>
      </trkpt>
      <trkpt lat="46.42771" lon="-0.18307">
        <ele>102.6</ele>
        <time>2020-05-30T19:52:14Z</time>
      </trkpt>
      <trkpt lat="46.42771" lon="-0.18307">
        <ele>102.6</ele>
        <time>2020-05-30T19:52:15Z</time>
      </trkpt>
      <trkpt lat="46.42771" lon="-0.18307">
        <ele>102.6</ele>
        <time>2020-05-30T19:52:16Z</time>
      </trkpt>
      <trkpt lat="46.42771" lon="-0.18307">
        <ele>102.6</ele>
        <time>2020-05-30T19:52:17Z</time>
      </trkpt>
      <trkpt lat="46.42771" lon="-0.18307">
        <ele>102.6</ele>
        <time>2020-05-30T19:52:18Z</time>
      </trkpt>
      <trkpt lat="46.42771" lon="-0.18307">
        <ele>102.6</ele>
        <time>2020-05-30T19:52:19Z</time>
      </trkpt>
      <trkpt lat="46.42771" lon="-0.18307">
        <ele>102.6</ele>
        <time>2020-05-30T19:52:20Z</time>
      </trkpt>
      <trkpt lat="46.42771" lon="-0.18307">
        <ele>102.6</ele>
        <time>2020-05-30T19:52:21Z</time>
      </trkpt>
      <trkpt lat="46.42771" lon="-0.18307">
        <ele>102.6</ele>
        <time>2020-05-30T19:52:22Z</time>
      </trkpt>
      <trkpt lat="46.42771" lon="-0.18307">
        <ele>102.6</ele>
        <time>2020-05-30T19:52:23Z</time>
      </trkpt>
      <trkpt lat="46.42771" lon="-0.18307">
        <ele>102.6</ele>
        <time>2020-05-30T19:52:24Z</time>
      </trkpt>
      <trkpt lat="46.42771" lon="-0.18307">
        <ele>102.6</ele>
        <time>2020-05-30T19:52:25Z</time>
      </trkpt>
      <trkpt lat="46.42771" lon="-0.18307">
        <ele>102.6</ele>
        <time>2020-05-30T19:52:26Z</time>
      </trkpt>
      <trkpt lat="46.42771" lon="-0.18307">
        <ele>102.6</ele>
        <time>2020-05-30T19:52:27Z</time>
      </trkpt>
      <trkpt lat="46.42771" lon="-0.18307">
        <ele>102.6</ele>
        <time>2020-05-30T19:52:28Z</time>
      </trkpt>
      <trkpt lat="46.42771" lon="-0.18307">
        <ele>102.6</ele>
        <time>2020-05-30T19:52:29Z</time>
      </trkpt>
      <trkpt lat="46.42771" lon="-0.18307">
        <ele>102.6</ele>
        <time>2020-05-30T19:52:30Z</time>
      </trkpt>
      <trkpt lat="46.42771" lon="-0.18307">
        <ele>102.6</ele>
        <time>2020-05-30T19:52:31Z</time>
      </trkpt>
      <trkpt lat="46.42771" lon="-0.18307">
        <ele>102.6</ele>
        <time>2020-05-30T19:52:32Z</time>
      </trkpt>
      <trkpt lat="46.42771" lon="-0.18307">
        <ele>102.6</ele>
        <time>2020-05-30T19:52:33Z</time>
      </trkpt>
      <trkpt lat="46.42771" lon="-0.18307">
        <ele>102.6</ele>
        <time>2020-05-30T19:52:34Z</time>
      </trkpt>
      <trkpt lat="46.42771" lon="-0.18307">
        <ele>102.6</ele>
        <time>2020-05-30T19:52:35Z</time>
      </trkpt>
      <trkpt lat="46.42771" lon="-0.18307">
        <ele>102.6</ele>
        <time>2020-05-30T19:52:36Z</time>
      </trkpt>
      <trkpt lat="46.42771" lon="-0.18307">
        <ele>102.6</ele>
        <time>2020-05-30T19:52:37Z</time>
      </trkpt>
      <trkpt lat="46.42771" lon="-0.18307">
        <ele>102.6</ele>
        <time>2020-05-30T19:52:38Z</time>
      </trkpt>
      <trkpt lat="46.4277" lon="-0.18307">
        <ele>102.7</ele>
        <time>2020-05-30T19:52:39Z</time>
      </trkpt>
      <trkpt lat="46.42769" lon="-0.18307">
        <ele>102.7</ele>
        <time>2020-05-30T19:52:40Z</time>
      </trkpt>
      <trkpt lat="46.42769" lon="-0.18307">
        <ele>102.7</ele>
        <time>2020-05-30T19:52:41Z</time>
      </trkpt>
      <trkpt lat="46.42769" lon="-0.18307">
        <ele>102.7</ele>
        <time>2020-05-30T19:52:42Z</time>
      </trkpt>
      <trkpt lat="46.42769" lon="-0.18307">
        <ele>102.7</ele>
        <time>2020-05-30T19:52:43Z</time>
      </trkpt>
      <trkpt lat="46.42769" lon="-0.18307">
        <ele>102.7</ele>
        <time>2020-05-30T19:52:44Z</time>
      </trkpt>
      <trkpt lat="46.42769" lon="-0.18307">
        <ele>102.7</ele>
        <time>2020-05-30T19:52:45Z</time>
      </trkpt>
      <trkpt lat="46.42769" lon="-0.18307">
        <ele>102.7</ele>
        <time>2020-05-30T19:52:46Z</time>
      </trkpt>
      <trkpt lat="46.42769" lon="-0.18308">
        <ele>102.7</ele>
        <time>2020-05-30T19:52:47Z</time>
      </trkpt>
      <trkpt lat="46.42769" lon="-0.18308">
        <ele>102.7</ele>
        <time>2020-05-30T19:52:48Z</time>
      </trkpt>
      <trkpt lat="46.42769" lon="-0.18308">
        <ele>102.7</ele>
        <time>2020-05-30T19:52:49Z</time>
      </trkpt>
      <trkpt lat="46.42769" lon="-0.18308">
        <ele>102.7</ele>
        <time>2020-05-30T19:52:50Z</time>
      </trkpt>
      <trkpt lat="46.42769" lon="-0.18308">
        <ele>102.7</ele>
        <time>2020-05-30T19:52:51Z</time>
      </trkpt>
      <trkpt lat="46.42769" lon="-0.18308">
        <ele>102.7</ele>
        <time>2020-05-30T19:52:52Z</time>
      </trkpt>
      <trkpt lat="46.42769" lon="-0.18308">
        <ele>102.7</ele>
        <time>2020-05-30T19:52:53Z</time>
      </trkpt>
      <trkpt lat="46.42769" lon="-0.18308">
        <ele>102.7</ele>
        <time>2020-05-30T19:52:54Z</time>
      </trkpt>
      <trkpt lat="46.42769" lon="-0.18308">
        <ele>102.7</ele>
        <time>2020-05-30T19:52:55Z</time>
      </trkpt>
      <trkpt lat="46.4277" lon="-0.18308">
        <ele>102.7</ele>
        <time>2020-05-30T19:52:56Z</time>
      </trkpt>
      <trkpt lat="46.4277" lon="-0.18308">
        <ele>102.7</ele>
        <time>2020-05-30T19:52:57Z</time>
      </trkpt>
      <trkpt lat="46.4277" lon="-0.18308">
        <ele>102.7</ele>
        <time>2020-05-30T19:52:58Z</time>
      </trkpt>
      <trkpt lat="46.4277" lon="-0.18308">
        <ele>102.7</ele>
        <time>2020-05-30T19:52:59Z</time>
      </trkpt>
      <trkpt lat="46.4277" lon="-0.18309">
        <ele>102.7</ele>
        <time>2020-05-30T19:53:00Z</time>
      </trkpt>
      <trkpt lat="46.42771" lon="-0.18308">
        <ele>102.7</ele>
        <time>2020-05-30T19:53:01Z</time>
      </trkpt>
      <trkpt lat="46.42771" lon="-0.18308">
        <ele>102.7</ele>
        <time>2020-05-30T19:53:02Z</time>
      </trkpt>
      <trkpt lat="46.42772" lon="-0.18308">
        <ele>102.7</ele>
        <time>2020-05-30T19:53:03Z</time>
      </trkpt>
      <trkpt lat="46.42772" lon="-0.18307">
        <ele>102.7</ele>
        <time>2020-05-30T19:53:04Z</time>
      </trkpt>
      <trkpt lat="46.42772" lon="-0.18307">
        <ele>102.7</ele>
        <time>2020-05-30T19:53:05Z</time>
      </trkpt>
      <trkpt lat="46.42772" lon="-0.18307">
        <ele>102.7</ele>
        <time>2020-05-30T19:53:06Z</time>
      </trkpt>
      <trkpt lat="46.42772" lon="-0.18307">
        <ele>102.7</ele>
        <time>2020-05-30T19:53:07Z</time>
      </trkpt>
      <trkpt lat="46.42772" lon="-0.18307">
        <ele>102.7</ele>
        <time>2020-05-30T19:53:08Z</time>
      </trkpt>
      <trkpt lat="46.42773" lon="-0.18307">
        <ele>102.7</ele>
        <time>2020-05-30T19:53:09Z</time>
      </trkpt>
      <trkpt lat="46.42773" lon="-0.18307">
        <ele>102.7</ele>
        <time>2020-05-30T19:53:10Z</time>
      </trkpt>
      <trkpt lat="46.42773" lon="-0.18307">
        <ele>102.7</ele>
        <time>2020-05-30T19:53:11Z</time>
      </trkpt>
      <trkpt lat="46.42774" lon="-0.18308">
        <ele>102.7</ele>
        <time>2020-05-30T19:53:12Z</time>
      </trkpt>
      <trkpt lat="46.42774" lon="-0.18308">
        <ele>102.7</ele>
        <time>2020-05-30T19:53:13Z</time>
      </trkpt>
      <trkpt lat="46.42774" lon="-0.18308">
        <ele>102.7</ele>
        <time>2020-05-30T19:53:14Z</time>
      </trkpt>
      <trkpt lat="46.42774" lon="-0.18308">
        <ele>102.7</ele>
        <time>2020-05-30T19:53:15Z</time>
      </trkpt>
      <trkpt lat="46.42774" lon="-0.18308">
        <ele>102.7</ele>
        <time>2020-05-30T19:53:16Z</time>
      </trkpt>
      <trkpt lat="46.42774" lon="-0.18307">
        <ele>102.7</ele>
        <time>2020-05-30T19:53:17Z</time>
      </trkpt>
      <trkpt lat="46.42774" lon="-0.18307">
        <ele>102.7</ele>
        <time>2020-05-30T19:53:18Z</time>
      </trkpt>
      <trkpt lat="46.42774" lon="-0.18307">
        <ele>102.7</ele>
        <time>2020-05-30T19:53:19Z</time>
      </trkpt>
      <trkpt lat="46.42774" lon="-0.18308">
        <ele>102.7</ele>
        <time>2020-05-30T19:53:20Z</time>
      </trkpt>
      <trkpt lat="46.42774" lon="-0.18308">
        <ele>102.7</ele>
        <time>2020-05-30T19:53:21Z</time>
      </trkpt>
      <trkpt lat="46.42774" lon="-0.18309">
        <ele>102.7</ele>
        <time>2020-05-30T19:53:22Z</time>
      </trkpt>
      <trkpt lat="46.42774" lon="-0.18309">
        <ele>102.7</ele>
        <time>2020-05-30T19:53:23Z</time>
      </trkpt>
      <trkpt lat="46.42774" lon="-0.18309">
        <ele>102.7</ele>
        <time>2020-05-30T19:53:24Z</time>
      </trkpt>
      <trkpt lat="46.42774" lon="-0.18309">
        <ele>102.7</ele>
        <time>2020-05-30T19:53:25Z</time>
      </trkpt>
      <trkpt lat="46.42774" lon="-0.18308">
        <ele>102.7</ele>
        <time>2020-05-30T19:53:26Z</time>
      </trkpt>
      <trkpt lat="46.42773" lon="-0.18308">
        <ele>102.7</ele>
        <time>2020-05-30T19:53:27Z</time>
      </trkpt>
      <trkpt lat="46.42773" lon="-0.18308">
        <ele>102.7</ele>
        <time>2020-05-30T19:53:28Z</time>
      </trkpt>
      <trkpt lat="46.42773" lon="-0.18308">
        <ele>102.7</ele>
        <time>2020-05-30T19:53:29Z</time>
      </trkpt>
      <trkpt lat="46.42773" lon="-0.18308">
        <ele>102.7</ele>
        <time>2020-05-30T19:53:30Z</time>
      </trkpt>
      <trkpt lat="46.42773" lon="-0.18309">
        <ele>102.7</ele>
        <time>2020-05-30T19:53:31Z</time>
      </trkpt>
      <trkpt lat="46.42773" lon="-0.1831">
        <ele>102.7</ele>
        <time>2020-05-30T19:53:32Z</time>
      </trkpt>
      <trkpt lat="46.42773" lon="-0.1831">
        <ele>102.7</ele>
        <time>2020-05-30T19:53:33Z</time>
      </trkpt>
      <trkpt lat="46.42773" lon="-0.18309">
        <ele>102.7</ele>
        <time>2020-05-30T19:53:34Z</time>
      </trkpt>
      <trkpt lat="46.42773" lon="-0.18309">
        <ele>102.7</ele>
        <time>2020-05-30T19:53:35Z</time>
      </trkpt>
      <trkpt lat="46.42773" lon="-0.18309">
        <ele>102.7</ele>
        <time>2020-05-30T19:53:36Z</time>
      </trkpt>
      <trkpt lat="46.42773" lon="-0.18309">
        <ele>102.7</ele>
        <time>2020-05-30T19:53:37Z</time>
      </trkpt>
      <trkpt lat="46.42773" lon="-0.18309">
        <ele>102.7</ele>
        <time>2020-05-30T19:53:38Z</time>
      </trkpt>
      <trkpt lat="46.42773" lon="-0.18309">
        <ele>102.7</ele>
        <time>2020-05-30T19:53:39Z</time>
      </trkpt>
      <trkpt lat="46.42773" lon="-0.18309">
        <ele>102.7</ele>
        <time>2020-05-30T19:53:40Z</time>
      </trkpt>
      <trkpt lat="46.42773" lon="-0.18309">
        <ele>102.7</ele>
        <time>2020-05-30T19:53:41Z</time>
      </trkpt>
      <trkpt lat="46.42773" lon="-0.18309">
        <ele>102.7</ele>
        <time>2020-05-30T19:53:42Z</time>
      </trkpt>
      <trkpt lat="46.42773" lon="-0.18309">
        <ele>102.7</ele>
        <time>2020-05-30T19:53:43Z</time>
      </trkpt>
      <trkpt lat="46.42773" lon="-0.18309">
        <ele>102.7</ele>
        <time>2020-05-30T19:53:44Z</time>
      </trkpt>
      <trkpt lat="46.42773" lon="-0.18309">
        <ele>102.7</ele>
        <time>2020-05-30T19:53:45Z</time>
      </trkpt>
      <trkpt lat="46.42773" lon="-0.18309">
        <ele>102.7</ele>
        <time>2020-05-30T19:53:46Z</time>
      </trkpt>
      <trkpt lat="46.42773" lon="-0.18309">
        <ele>102.7</ele>
        <time>2020-05-30T19:53:47Z</time>
      </trkpt>
      <trkpt lat="46.42773" lon="-0.18309">
        <ele>102.7</ele>
        <time>2020-05-30T19:53:48Z</time>
      </trkpt>
      <trkpt lat="46.42773" lon="-0.18309">
        <ele>102.7</ele>
        <time>2020-05-30T19:53:49Z</time>
      </trkpt>
      <trkpt lat="46.42773" lon="-0.18309">
        <ele>102.7</ele>
        <time>2020-05-30T19:53:50Z</time>
      </trkpt>
      <trkpt lat="46.42773" lon="-0.18309">
        <ele>102.7</ele>
        <time>2020-05-30T19:53:51Z</time>
      </trkpt>
      <trkpt lat="46.42773" lon="-0.18309">
        <ele>102.7</ele>
        <time>2020-05-30T19:53:52Z</time>
      </trkpt>
      <trkpt lat="46.42773" lon="-0.18309">
        <ele>102.7</ele>
        <time>2020-05-30T19:53:53Z</time>
      </trkpt>
      <trkpt lat="46.42773" lon="-0.18309">
        <ele>102.7</ele>
        <time>2020-05-30T19:53:54Z</time>
      </trkpt>
      <trkpt lat="46.42773" lon="-0.18309">
        <ele>102.7</ele>
        <time>2020-05-30T19:53:55Z</time>
      </trkpt>
      <trkpt lat="46.42773" lon="-0.18309">
        <ele>102.7</ele>
        <time>2020-05-30T19:53:56Z</time>
      </trkpt>
      <trkpt lat="46.42773" lon="-0.18309">
        <ele>102.7</ele>
        <time>2020-05-30T19:53:57Z</time>
      </trkpt>
      <trkpt lat="46.42773" lon="-0.18309">
        <ele>102.7</ele>
        <time>2020-05-30T19:53:58Z</time>
      </trkpt>
      <trkpt lat="46.42773" lon="-0.18309">
        <ele>102.7</ele>
        <time>2020-05-30T19:53:59Z</time>
      </trkpt>
      <trkpt lat="46.42773" lon="-0.18309">
        <ele>102.7</ele>
        <time>2020-05-30T19:54:00Z</time>
      </trkpt>
      <trkpt lat="46.42773" lon="-0.18309">
        <ele>102.7</ele>
        <time>2020-05-30T19:54:01Z</time>
      </trkpt>
      <trkpt lat="46.42773" lon="-0.18309">
        <ele>102.7</ele>
        <time>2020-05-30T19:54:02Z</time>
      </trkpt>
      <trkpt lat="46.42773" lon="-0.18309">
        <ele>102.7</ele>
        <time>2020-05-30T19:54:03Z</time>
      </trkpt>
      <trkpt lat="46.42773" lon="-0.18309">
        <ele>102.7</ele>
        <time>2020-05-30T19:54:04Z</time>
      </trkpt>
      <trkpt lat="46.42773" lon="-0.18309">
        <ele>102.7</ele>
        <time>2020-05-30T19:54:05Z</time>
      </trkpt>
      <trkpt lat="46.42773" lon="-0.18309">
        <ele>102.7</ele>
        <time>2020-05-30T19:54:06Z</time>
      </trkpt>
      <trkpt lat="46.42773" lon="-0.18309">
        <ele>102.7</ele>
        <time>2020-05-30T19:54:07Z</time>
      </trkpt>
      <trkpt lat="46.42773" lon="-0.18309">
        <ele>102.7</ele>
        <time>2020-05-30T19:54:08Z</time>
      </trkpt>
      <trkpt lat="46.42773" lon="-0.18309">
        <ele>102.7</ele>
        <time>2020-05-30T19:54:09Z</time>
      </trkpt>
      <trkpt lat="46.42773" lon="-0.18309">
        <ele>102.7</ele>
        <time>2020-05-30T19:54:10Z</time>
      </trkpt>
      <trkpt lat="46.42773" lon="-0.18309">
        <ele>102.7</ele>
        <time>2020-05-30T19:54:11Z</time>
      </trkpt>
      <trkpt lat="46.42773" lon="-0.18309">
        <ele>102.7</ele>
        <time>2020-05-30T19:54:12Z</time>
      </trkpt>
      <trkpt lat="46.42773" lon="-0.18309">
        <ele>102.7</ele>
        <time>2020-05-30T19:54:13Z</time>
      </trkpt>
      <trkpt lat="46.42773" lon="-0.18309">
        <ele>102.7</ele>
        <time>2020-05-30T19:54:14Z</time>
      </trkpt>
      <trkpt lat="46.42773" lon="-0.18309">
        <ele>102.7</ele>
        <time>2020-05-30T19:54:15Z</time>
      </trkpt>
      <trkpt lat="46.42773" lon="-0.18309">
        <ele>102.7</ele>
        <time>2020-05-30T19:54:16Z</time>
      </trkpt>
      <trkpt lat="46.42773" lon="-0.18309">
        <ele>102.7</ele>
        <time>2020-05-30T19:54:17Z</time>
      </trkpt>
      <trkpt lat="46.42773" lon="-0.18309">
        <ele>102.7</ele>
        <time>2020-05-30T19:54:18Z</time>
      </trkpt>
      <trkpt lat="46.42773" lon="-0.18309">
        <ele>102.7</ele>
        <time>2020-05-30T19:54:19Z</time>
      </trkpt>
      <trkpt lat="46.42773" lon="-0.18309">
        <ele>102.7</ele>
        <time>2020-05-30T19:54:20Z</time>
      </trkpt>
      <trkpt lat="46.42773" lon="-0.18309">
        <ele>102.7</ele>
        <time>2020-05-30T19:54:21Z</time>
      </trkpt>
      <trkpt lat="46.42773" lon="-0.18309">
        <ele>102.7</ele>
        <time>2020-05-30T19:54:22Z</time>
      </trkpt>
      <trkpt lat="46.42773" lon="-0.18309">
        <ele>102.7</ele>
        <time>2020-05-30T19:54:23Z</time>
      </trkpt>
      <trkpt lat="46.42773" lon="-0.18309">
        <ele>102.7</ele>
        <time>2020-05-30T19:54:24Z</time>
      </trkpt>
      <trkpt lat="46.42773" lon="-0.18309">
        <ele>102.7</ele>
        <time>2020-05-30T19:54:25Z</time>
      </trkpt>
      <trkpt lat="46.42773" lon="-0.18309">
        <ele>102.7</ele>
        <time>2020-05-30T19:54:26Z</time>
      </trkpt>
      <trkpt lat="46.42773" lon="-0.18309">
        <ele>102.7</ele>
        <time>2020-05-30T19:54:27Z</time>
      </trkpt>
      <trkpt lat="46.42773" lon="-0.18309">
        <ele>102.7</ele>
        <time>2020-05-30T19:54:28Z</time>
      </trkpt>
      <trkpt lat="46.42773" lon="-0.18309">
        <ele>102.7</ele>
        <time>2020-05-30T19:54:29Z</time>
      </trkpt>
      <trkpt lat="46.42773" lon="-0.18309">
        <ele>102.7</ele>
        <time>2020-05-30T19:54:30Z</time>
      </trkpt>
      <trkpt lat="46.42773" lon="-0.18309">
        <ele>102.7</ele>
        <time>2020-05-30T19:54:31Z</time>
      </trkpt>
      <trkpt lat="46.42773" lon="-0.18309">
        <ele>102.7</ele>
        <time>2020-05-30T19:54:32Z</time>
      </trkpt>
      <trkpt lat="46.42773" lon="-0.18309">
        <ele>102.7</ele>
        <time>2020-05-30T19:54:33Z</time>
      </trkpt>
      <trkpt lat="46.42773" lon="-0.18309">
        <ele>102.7</ele>
        <time>2020-05-30T19:54:34Z</time>
      </trkpt>
      <trkpt lat="46.42773" lon="-0.18309">
        <ele>102.7</ele>
        <time>2020-05-30T19:54:35Z</time>
      </trkpt>
      <trkpt lat="46.42773" lon="-0.18309">
        <ele>102.7</ele>
        <time>2020-05-30T19:54:36Z</time>
      </trkpt>
      <trkpt lat="46.42773" lon="-0.18309">
        <ele>102.7</ele>
        <time>2020-05-30T19:54:37Z</time>
      </trkpt>
      <trkpt lat="46.42773" lon="-0.18309">
        <ele>102.7</ele>
        <time>2020-05-30T19:54:38Z</time>
      </trkpt>
      <trkpt lat="46.42773" lon="-0.18309">
        <ele>102.7</ele>
        <time>2020-05-30T19:54:39Z</time>
      </trkpt>
      <trkpt lat="46.42773" lon="-0.18309">
        <ele>102.7</ele>
        <time>2020-05-30T19:54:40Z</time>
      </trkpt>
      <trkpt lat="46.42773" lon="-0.18309">
        <ele>102.7</ele>
        <time>2020-05-30T19:54:41Z</time>
      </trkpt>
      <trkpt lat="46.42773" lon="-0.18309">
        <ele>102.7</ele>
        <time>2020-05-30T19:54:42Z</time>
      </trkpt>
      <trkpt lat="46.42773" lon="-0.18309">
        <ele>102.7</ele>
        <time>2020-05-30T19:54:43Z</time>
      </trkpt>
      <trkpt lat="46.42773" lon="-0.18309">
        <ele>102.7</ele>
        <time>2020-05-30T19:54:44Z</time>
      </trkpt>
      <trkpt lat="46.42773" lon="-0.18309">
        <ele>102.7</ele>
        <time>2020-05-30T19:54:45Z</time>
      </trkpt>
      <trkpt lat="46.42773" lon="-0.18309">
        <ele>102.7</ele>
        <time>2020-05-30T19:54:46Z</time>
      </trkpt>
      <trkpt lat="46.42773" lon="-0.18309">
        <ele>102.7</ele>
        <time>2020-05-30T19:54:47Z</time>
      </trkpt>
      <trkpt lat="46.42773" lon="-0.18309">
        <ele>102.7</ele>
        <time>2020-05-30T19:54:48Z</time>
      </trkpt>
      <trkpt lat="46.42773" lon="-0.18309">
        <ele>102.7</ele>
        <time>2020-05-30T19:54:49Z</time>
      </trkpt>
      <trkpt lat="46.42773" lon="-0.18309">
        <ele>102.7</ele>
        <time>2020-05-30T19:54:50Z</time>
      </trkpt>
      <trkpt lat="46.42773" lon="-0.18309">
        <ele>102.7</ele>
        <time>2020-05-30T19:54:51Z</time>
      </trkpt>
      <trkpt lat="46.42773" lon="-0.18309">
        <ele>102.7</ele>
        <time>2020-05-30T19:54:52Z</time>
      </trkpt>
      <trkpt lat="46.42773" lon="-0.18309">
        <ele>102.7</ele>
        <time>2020-05-30T19:54:53Z</time>
      </trkpt>
      <trkpt lat="46.42773" lon="-0.18309">
        <ele>102.7</ele>
        <time>2020-05-30T19:54:54Z</time>
      </trkpt>
      <trkpt lat="46.42773" lon="-0.18309">
        <ele>102.7</ele>
        <time>2020-05-30T19:54:55Z</time>
      </trkpt>
      <trkpt lat="46.42773" lon="-0.18309">
        <ele>102.7</ele>
        <time>2020-05-30T19:54:56Z</time>
      </trkpt>
      <trkpt lat="46.42773" lon="-0.18309">
        <ele>102.7</ele>
        <time>2020-05-30T19:54:57Z</time>
      </trkpt>
      <trkpt lat="46.42773" lon="-0.18309">
        <ele>102.7</ele>
        <time>2020-05-30T19:54:58Z</time>
      </trkpt>
      <trkpt lat="46.42773" lon="-0.18309">
        <ele>102.7</ele>
        <time>2020-05-30T19:54:59Z</time>
      </trkpt>
      <trkpt lat="46.42773" lon="-0.18309">
        <ele>102.7</ele>
        <time>2020-05-30T19:55:00Z</time>
      </trkpt>
      <trkpt lat="46.42773" lon="-0.18309">
        <ele>102.7</ele>
        <time>2020-05-30T19:55:01Z</time>
      </trkpt>
      <trkpt lat="46.42773" lon="-0.18309">
        <ele>102.7</ele>
        <time>2020-05-30T19:55:02Z</time>
      </trkpt>
      <trkpt lat="46.42773" lon="-0.18309">
        <ele>102.7</ele>
        <time>2020-05-30T19:55:03Z</time>
      </trkpt>
      <trkpt lat="46.42773" lon="-0.18309">
        <ele>102.7</ele>
        <time>2020-05-30T19:55:04Z</time>
      </trkpt>
      <trkpt lat="46.42773" lon="-0.18309">
        <ele>102.7</ele>
        <time>2020-05-30T19:55:05Z</time>
      </trkpt>
      <trkpt lat="46.42773" lon="-0.18309">
        <ele>102.7</ele>
        <time>2020-05-30T19:55:06Z</time>
      </trkpt>
      <trkpt lat="46.42773" lon="-0.18309">
        <ele>102.7</ele>
        <time>2020-05-30T19:55:07Z</time>
      </trkpt>
      <trkpt lat="46.42773" lon="-0.18309">
        <ele>102.7</ele>
        <time>2020-05-30T19:55:08Z</time>
      </trkpt>
      <trkpt lat="46.42773" lon="-0.18309">
        <ele>102.7</ele>
        <time>2020-05-30T19:55:09Z</time>
      </trkpt>
      <trkpt lat="46.42773" lon="-0.18309">
        <ele>102.7</ele>
        <time>2020-05-30T19:55:10Z</time>
      </trkpt>
      <trkpt lat="46.42773" lon="-0.18309">
        <ele>102.7</ele>
        <time>2020-05-30T19:55:11Z</time>
      </trkpt>
      <trkpt lat="46.42773" lon="-0.18309">
        <ele>102.7</ele>
        <time>2020-05-30T19:55:12Z</time>
      </trkpt>
      <trkpt lat="46.42773" lon="-0.18309">
        <ele>102.7</ele>
        <time>2020-05-30T19:55:13Z</time>
      </trkpt>
      <trkpt lat="46.42773" lon="-0.18309">
        <ele>102.7</ele>
        <time>2020-05-30T19:55:14Z</time>
      </trkpt>
      <trkpt lat="46.42773" lon="-0.18309">
        <ele>102.7</ele>
        <time>2020-05-30T19:55:15Z</time>
      </trkpt>
      <trkpt lat="46.42773" lon="-0.18309">
        <ele>102.7</ele>
        <time>2020-05-30T19:55:16Z</time>
      </trkpt>
      <trkpt lat="46.42773" lon="-0.18309">
        <ele>102.7</ele>
        <time>2020-05-30T19:55:17Z</time>
      </trkpt>
      <trkpt lat="46.42773" lon="-0.18309">
        <ele>102.7</ele>
        <time>2020-05-30T19:55:18Z</time>
      </trkpt>
      <trkpt lat="46.42773" lon="-0.18309">
        <ele>102.7</ele>
        <time>2020-05-30T19:55:19Z</time>
      </trkpt>
      <trkpt lat="46.42773" lon="-0.18309">
        <ele>102.7</ele>
        <time>2020-05-30T19:55:20Z</time>
      </trkpt>
      <trkpt lat="46.42773" lon="-0.18309">
        <ele>102.7</ele>
        <time>2020-05-30T19:55:21Z</time>
      </trkpt>
      <trkpt lat="46.42773" lon="-0.18309">
        <ele>102.7</ele>
        <time>2020-05-30T19:55:22Z</time>
      </trkpt>
      <trkpt lat="46.42773" lon="-0.18309">
        <ele>102.7</ele>
        <time>2020-05-30T19:55:23Z</time>
      </trkpt>
      <trkpt lat="46.42773" lon="-0.18309">
        <ele>102.7</ele>
        <time>2020-05-30T19:55:24Z</time>
      </trkpt>
      <trkpt lat="46.42773" lon="-0.18309">
        <ele>102.7</ele>
        <time>2020-05-30T19:55:25Z</time>
      </trkpt>
      <trkpt lat="46.42773" lon="-0.18309">
        <ele>102.7</ele>
        <time>2020-05-30T19:55:26Z</time>
      </trkpt>
      <trkpt lat="46.42773" lon="-0.18309">
        <ele>102.7</ele>
        <time>2020-05-30T19:55:27Z</time>
      </trkpt>
      <trkpt lat="46.42773" lon="-0.18309">
        <ele>102.7</ele>
        <time>2020-05-30T19:55:28Z</time>
      </trkpt>
      <trkpt lat="46.42773" lon="-0.18309">
        <ele>102.7</ele>
        <time>2020-05-30T19:55:29Z</time>
      </trkpt>
      <trkpt lat="46.42773" lon="-0.18309">
        <ele>102.7</ele>
        <time>2020-05-30T19:55:30Z</time>
      </trkpt>
      <trkpt lat="46.42773" lon="-0.18309">
        <ele>102.7</ele>
        <time>2020-05-30T19:55:31Z</time>
      </trkpt>
      <trkpt lat="46.42773" lon="-0.18309">
        <ele>102.7</ele>
        <time>2020-05-30T19:55:32Z</time>
      </trkpt>
      <trkpt lat="46.42773" lon="-0.18309">
        <ele>102.7</ele>
        <time>2020-05-30T19:55:33Z</time>
      </trkpt>
      <trkpt lat="46.42773" lon="-0.18309">
        <ele>102.7</ele>
        <time>2020-05-30T19:55:34Z</time>
      </trkpt>
      <trkpt lat="46.42773" lon="-0.18309">
        <ele>102.7</ele>
        <time>2020-05-30T19:55:35Z</time>
      </trkpt>
      <trkpt lat="46.42773" lon="-0.18309">
        <ele>102.7</ele>
        <time>2020-05-30T19:55:36Z</time>
      </trkpt>
      <trkpt lat="46.42773" lon="-0.18309">
        <ele>102.7</ele>
        <time>2020-05-30T19:55:37Z</time>
      </trkpt>
      <trkpt lat="46.42773" lon="-0.18309">
        <ele>102.7</ele>
        <time>2020-05-30T19:55:38Z</time>
      </trkpt>
      <trkpt lat="46.42773" lon="-0.18309">
        <ele>102.7</ele>
        <time>2020-05-30T19:55:39Z</time>
      </trkpt>
      <trkpt lat="46.42773" lon="-0.18309">
        <ele>102.7</ele>
        <time>2020-05-30T19:55:40Z</time>
      </trkpt>
      <trkpt lat="46.42773" lon="-0.18309">
        <ele>102.7</ele>
        <time>2020-05-30T19:55:41Z</time>
      </trkpt>
      <trkpt lat="46.42773" lon="-0.18309">
        <ele>102.7</ele>
        <time>2020-05-30T19:55:42Z</time>
      </trkpt>
      <trkpt lat="46.42773" lon="-0.18309">
        <ele>102.7</ele>
        <time>2020-05-30T19:55:43Z</time>
      </trkpt>
      <trkpt lat="46.42773" lon="-0.18309">
        <ele>102.7</ele>
        <time>2020-05-30T19:55:44Z</time>
      </trkpt>
      <trkpt lat="46.42773" lon="-0.18309">
        <ele>102.7</ele>
        <time>2020-05-30T19:55:45Z</time>
      </trkpt>
      <trkpt lat="46.42773" lon="-0.18309">
        <ele>102.7</ele>
        <time>2020-05-30T19:55:46Z</time>
      </trkpt>
      <trkpt lat="46.42773" lon="-0.18309">
        <ele>102.7</ele>
        <time>2020-05-30T19:55:47Z</time>
      </trkpt>
      <trkpt lat="46.42773" lon="-0.18309">
        <ele>102.7</ele>
        <time>2020-05-30T19:55:48Z</time>
      </trkpt>
      <trkpt lat="46.42773" lon="-0.18309">
        <ele>102.7</ele>
        <time>2020-05-30T19:55:49Z</time>
      </trkpt>
      <trkpt lat="46.42773" lon="-0.18309">
        <ele>102.7</ele>
        <time>2020-05-30T19:55:50Z</time>
      </trkpt>
      <trkpt lat="46.42773" lon="-0.18309">
        <ele>102.7</ele>
        <time>2020-05-30T19:55:51Z</time>
      </trkpt>
      <trkpt lat="46.42773" lon="-0.18309">
        <ele>102.7</ele>
        <time>2020-05-30T19:55:52Z</time>
      </trkpt>
      <trkpt lat="46.42773" lon="-0.18309">
        <ele>102.7</ele>
        <time>2020-05-30T19:55:53Z</time>
      </trkpt>
      <trkpt lat="46.42773" lon="-0.18309">
        <ele>102.7</ele>
        <time>2020-05-30T19:55:54Z</time>
      </trkpt>
      <trkpt lat="46.42773" lon="-0.18309">
        <ele>102.7</ele>
        <time>2020-05-30T19:55:55Z</time>
      </trkpt>
      <trkpt lat="46.42773" lon="-0.18309">
        <ele>102.7</ele>
        <time>2020-05-30T19:55:56Z</time>
      </trkpt>
      <trkpt lat="46.42773" lon="-0.18309">
        <ele>102.7</ele>
        <time>2020-05-30T19:55:57Z</time>
      </trkpt>
      <trkpt lat="46.42773" lon="-0.18309">
        <ele>102.7</ele>
        <time>2020-05-30T19:55:58Z</time>
      </trkpt>
      <trkpt lat="46.42773" lon="-0.18309">
        <ele>102.7</ele>
        <time>2020-05-30T19:55:59Z</time>
      </trkpt>
      <trkpt lat="46.42773" lon="-0.18309">
        <ele>102.7</ele>
        <time>2020-05-30T19:56:00Z</time>
      </trkpt>
      <trkpt lat="46.42773" lon="-0.18309">
        <ele>102.7</ele>
        <time>2020-05-30T19:56:01Z</time>
      </trkpt>
      <trkpt lat="46.42773" lon="-0.18309">
        <ele>102.7</ele>
        <time>2020-05-30T19:56:02Z</time>
      </trkpt>
      <trkpt lat="46.42773" lon="-0.18309">
        <ele>102.7</ele>
        <time>2020-05-30T19:56:03Z</time>
      </trkpt>
      <trkpt lat="46.42773" lon="-0.18309">
        <ele>102.7</ele>
        <time>2020-05-30T19:56:04Z</time>
      </trkpt>
      <trkpt lat="46.42773" lon="-0.18309">
        <ele>102.7</ele>
        <time>2020-05-30T19:56:05Z</time>
      </trkpt>
      <trkpt lat="46.42773" lon="-0.18309">
        <ele>102.7</ele>
        <time>2020-05-30T19:56:06Z</time>
      </trkpt>
      <trkpt lat="46.42773" lon="-0.18309">
        <ele>102.7</ele>
        <time>2020-05-30T19:56:07Z</time>
      </trkpt>
      <trkpt lat="46.42773" lon="-0.18309">
        <ele>102.7</ele>
        <time>2020-05-30T19:56:08Z</time>
      </trkpt>
      <trkpt lat="46.42773" lon="-0.18309">
        <ele>102.7</ele>
        <time>2020-05-30T19:56:09Z</time>
      </trkpt>
      <trkpt lat="46.42773" lon="-0.18309">
        <ele>102.7</ele>
        <time>2020-05-30T19:56:10Z</time>
      </trkpt>
      <trkpt lat="46.42773" lon="-0.18309">
        <ele>102.7</ele>
        <time>2020-05-30T19:56:11Z</time>
      </trkpt>
      <trkpt lat="46.42773" lon="-0.18309">
        <ele>102.7</ele>
        <time>2020-05-30T19:56:12Z</time>
      </trkpt>
      <trkpt lat="46.42773" lon="-0.18309">
        <ele>102.7</ele>
        <time>2020-05-30T19:56:13Z</time>
      </trkpt>
      <trkpt lat="46.42773" lon="-0.18309">
        <ele>102.7</ele>
        <time>2020-05-30T19:56:14Z</time>
      </trkpt>
      <trkpt lat="46.42773" lon="-0.18309">
        <ele>102.7</ele>
        <time>2020-05-30T19:56:15Z</time>
      </trkpt>
      <trkpt lat="46.42773" lon="-0.18309">
        <ele>102.7</ele>
        <time>2020-05-30T19:56:16Z</time>
      </trkpt>
      <trkpt lat="46.42773" lon="-0.18309">
        <ele>102.7</ele>
        <time>2020-05-30T19:56:17Z</time>
      </trkpt>
      <trkpt lat="46.42773" lon="-0.18309">
        <ele>102.7</ele>
        <time>2020-05-30T19:56:18Z</time>
      </trkpt>
      <trkpt lat="46.42773" lon="-0.18309">
        <ele>102.7</ele>
        <time>2020-05-30T19:56:19Z</time>
      </trkpt>
      <trkpt lat="46.42773" lon="-0.18309">
        <ele>102.7</ele>
        <time>2020-05-30T19:56:20Z</time>
      </trkpt>
      <trkpt lat="46.42773" lon="-0.18309">
        <ele>102.7</ele>
        <time>2020-05-30T19:56:21Z</time>
      </trkpt>
      <trkpt lat="46.42773" lon="-0.18309">
        <ele>102.7</ele>
        <time>2020-05-30T19:56:22Z</time>
      </trkpt>
      <trkpt lat="46.42773" lon="-0.18309">
        <ele>102.7</ele>
        <time>2020-05-30T19:56:23Z</time>
      </trkpt>
      <trkpt lat="46.42773" lon="-0.18309">
        <ele>102.7</ele>
        <time>2020-05-30T19:56:24Z</time>
      </trkpt>
      <trkpt lat="46.42773" lon="-0.18309">
        <ele>102.7</ele>
        <time>2020-05-30T19:56:25Z</time>
      </trkpt>
      <trkpt lat="46.42773" lon="-0.18309">
        <ele>102.7</ele>
        <time>2020-05-30T19:56:26Z</time>
      </trkpt>
      <trkpt lat="46.42773" lon="-0.18309">
        <ele>102.7</ele>
        <time>2020-05-30T19:56:27Z</time>
      </trkpt>
      <trkpt lat="46.42773" lon="-0.18309">
        <ele>102.7</ele>
        <time>2020-05-30T19:56:28Z</time>
      </trkpt>
      <trkpt lat="46.42773" lon="-0.18309">
        <ele>102.7</ele>
        <time>2020-05-30T19:56:29Z</time>
      </trkpt>
      <trkpt lat="46.42773" lon="-0.18309">
        <ele>102.7</ele>
        <time>2020-05-30T19:56:30Z</time>
      </trkpt>
      <trkpt lat="46.42773" lon="-0.18309">
        <ele>102.7</ele>
        <time>2020-05-30T19:56:31Z</time>
      </trkpt>
      <trkpt lat="46.42773" lon="-0.18309">
        <ele>102.7</ele>
        <time>2020-05-30T19:56:32Z</time>
      </trkpt>
      <trkpt lat="46.42773" lon="-0.18309">
        <ele>102.7</ele>
        <time>2020-05-30T19:56:33Z</time>
      </trkpt>
      <trkpt lat="46.42773" lon="-0.18309">
        <ele>102.7</ele>
        <time>2020-05-30T19:56:34Z</time>
      </trkpt>
      <trkpt lat="46.42773" lon="-0.18309">
        <ele>102.7</ele>
        <time>2020-05-30T19:56:35Z</time>
      </trkpt>
      <trkpt lat="46.42773" lon="-0.18309">
        <ele>102.7</ele>
        <time>2020-05-30T19:56:36Z</time>
      </trkpt>
      <trkpt lat="46.42773" lon="-0.18309">
        <ele>102.7</ele>
        <time>2020-05-30T19:56:37Z</time>
      </trkpt>
      <trkpt lat="46.42773" lon="-0.18309">
        <ele>102.7</ele>
        <time>2020-05-30T19:56:38Z</time>
      </trkpt>
      <trkpt lat="46.42773" lon="-0.18309">
        <ele>102.7</ele>
        <time>2020-05-30T19:56:39Z</time>
      </trkpt>
      <trkpt lat="46.42773" lon="-0.18309">
        <ele>102.7</ele>
        <time>2020-05-30T19:56:40Z</time>
      </trkpt>
      <trkpt lat="46.42773" lon="-0.18309">
        <ele>102.7</ele>
        <time>2020-05-30T19:56:41Z</time>
      </trkpt>
      <trkpt lat="46.42773" lon="-0.18309">
        <ele>102.7</ele>
        <time>2020-05-30T19:56:42Z</time>
      </trkpt>
      <trkpt lat="46.42773" lon="-0.18309">
        <ele>102.7</ele>
        <time>2020-05-30T19:56:43Z</time>
      </trkpt>
      <trkpt lat="46.42773" lon="-0.18309">
        <ele>102.7</ele>
        <time>2020-05-30T19:56:44Z</time>
      </trkpt>
      <trkpt lat="46.42773" lon="-0.18309">
        <ele>102.7</ele>
        <time>2020-05-30T19:56:45Z</time>
      </trkpt>
      <trkpt lat="46.42773" lon="-0.18309">
        <ele>102.7</ele>
        <time>2020-05-30T19:56:46Z</time>
      </trkpt>
      <trkpt lat="46.42773" lon="-0.18309">
        <ele>102.7</ele>
        <time>2020-05-30T19:56:47Z</time>
      </trkpt>
      <trkpt lat="46.42773" lon="-0.18309">
        <ele>102.7</ele>
        <time>2020-05-30T19:56:48Z</time>
      </trkpt>
      <trkpt lat="46.42773" lon="-0.18309">
        <ele>102.7</ele>
        <time>2020-05-30T19:56:49Z</time>
      </trkpt>
      <trkpt lat="46.42773" lon="-0.18309">
        <ele>102.7</ele>
        <time>2020-05-30T19:56:50Z</time>
      </trkpt>
      <trkpt lat="46.42773" lon="-0.18309">
        <ele>102.7</ele>
        <time>2020-05-30T19:56:51Z</time>
      </trkpt>
      <trkpt lat="46.42773" lon="-0.18309">
        <ele>102.7</ele>
        <time>2020-05-30T19:56:52Z</time>
      </trkpt>
      <trkpt lat="46.42773" lon="-0.18309">
        <ele>102.7</ele>
        <time>2020-05-30T19:56:53Z</time>
      </trkpt>
      <trkpt lat="46.42773" lon="-0.18309">
        <ele>102.7</ele>
        <time>2020-05-30T19:56:54Z</time>
      </trkpt>
      <trkpt lat="46.42773" lon="-0.18309">
        <ele>102.7</ele>
        <time>2020-05-30T19:56:55Z</time>
      </trkpt>
      <trkpt lat="46.42773" lon="-0.18309">
        <ele>102.7</ele>
        <time>2020-05-30T19:56:56Z</time>
      </trkpt>
      <trkpt lat="46.42773" lon="-0.18309">
        <ele>102.7</ele>
        <time>2020-05-30T19:56:57Z</time>
      </trkpt>
      <trkpt lat="46.42773" lon="-0.18309">
        <ele>102.7</ele>
        <time>2020-05-30T19:56:58Z</time>
      </trkpt>
      <trkpt lat="46.42773" lon="-0.18309">
        <ele>102.7</ele>
        <time>2020-05-30T19:56:59Z</time>
      </trkpt>
      <trkpt lat="46.42773" lon="-0.18309">
        <ele>102.7</ele>
        <time>2020-05-30T19:57:00Z</time>
      </trkpt>
      <trkpt lat="46.42773" lon="-0.18309">
        <ele>102.7</ele>
        <time>2020-05-30T19:57:01Z</time>
      </trkpt>
      <trkpt lat="46.42773" lon="-0.18309">
        <ele>102.7</ele>
        <time>2020-05-30T19:57:02Z</time>
      </trkpt>
      <trkpt lat="46.42773" lon="-0.18309">
        <ele>102.7</ele>
        <time>2020-05-30T19:57:03Z</time>
      </trkpt>
      <trkpt lat="46.42773" lon="-0.18309">
        <ele>102.7</ele>
        <time>2020-05-30T19:57:04Z</time>
      </trkpt>
      <trkpt lat="46.42773" lon="-0.18309">
        <ele>102.7</ele>
        <time>2020-05-30T19:57:05Z</time>
      </trkpt>
      <trkpt lat="46.42773" lon="-0.18309">
        <ele>102.7</ele>
        <time>2020-05-30T19:57:06Z</time>
      </trkpt>
      <trkpt lat="46.42773" lon="-0.18309">
        <ele>102.7</ele>
        <time>2020-05-30T19:57:07Z</time>
      </trkpt>
      <trkpt lat="46.42773" lon="-0.18309">
        <ele>102.7</ele>
        <time>2020-05-30T19:57:08Z</time>
      </trkpt>
      <trkpt lat="46.42773" lon="-0.18309">
        <ele>102.7</ele>
        <time>2020-05-30T19:57:09Z</time>
      </trkpt>
      <trkpt lat="46.42773" lon="-0.18309">
        <ele>102.7</ele>
        <time>2020-05-30T19:57:10Z</time>
      </trkpt>
      <trkpt lat="46.42773" lon="-0.18309">
        <ele>102.7</ele>
        <time>2020-05-30T19:57:11Z</time>
      </trkpt>
      <trkpt lat="46.42773" lon="-0.18309">
        <ele>102.7</ele>
        <time>2020-05-30T19:57:12Z</time>
      </trkpt>
      <trkpt lat="46.42773" lon="-0.18309">
        <ele>102.7</ele>
        <time>2020-05-30T19:57:13Z</time>
      </trkpt>
      <trkpt lat="46.42773" lon="-0.18309">
        <ele>102.7</ele>
        <time>2020-05-30T19:57:14Z</time>
      </trkpt>
      <trkpt lat="46.42773" lon="-0.18309">
        <ele>102.7</ele>
        <time>2020-05-30T19:57:15Z</time>
      </trkpt>
      <trkpt lat="46.42773" lon="-0.18309">
        <ele>102.7</ele>
        <time>2020-05-30T19:57:16Z</time>
      </trkpt>
      <trkpt lat="46.42773" lon="-0.18309">
        <ele>102.7</ele>
        <time>2020-05-30T19:57:17Z</time>
      </trkpt>
      <trkpt lat="46.42773" lon="-0.18309">
        <ele>102.7</ele>
        <time>2020-05-30T19:57:18Z</time>
      </trkpt>
      <trkpt lat="46.42773" lon="-0.18309">
        <ele>102.7</ele>
        <time>2020-05-30T19:57:19Z</time>
      </trkpt>
      <trkpt lat="46.42773" lon="-0.18309">
        <ele>102.7</ele>
        <time>2020-05-30T19:57:20Z</time>
      </trkpt>
      <trkpt lat="46.42773" lon="-0.18309">
        <ele>102.7</ele>
        <time>2020-05-30T19:57:21Z</time>
      </trkpt>
      <trkpt lat="46.42773" lon="-0.18309">
        <ele>102.7</ele>
        <time>2020-05-30T19:57:22Z</time>
      </trkpt>
      <trkpt lat="46.42773" lon="-0.18309">
        <ele>102.7</ele>
        <time>2020-05-30T19:57:23Z</time>
      </trkpt>
      <trkpt lat="46.42773" lon="-0.18309">
        <ele>102.7</ele>
        <time>2020-05-30T19:57:24Z</time>
      </trkpt>
      <trkpt lat="46.42773" lon="-0.18309">
        <ele>102.7</ele>
        <time>2020-05-30T19:57:25Z</time>
      </trkpt>
      <trkpt lat="46.42773" lon="-0.18309">
        <ele>102.7</ele>
        <time>2020-05-30T19:57:26Z</time>
      </trkpt>
      <trkpt lat="46.42773" lon="-0.18309">
        <ele>102.7</ele>
        <time>2020-05-30T19:57:27Z</time>
      </trkpt>
      <trkpt lat="46.42773" lon="-0.18309">
        <ele>102.7</ele>
        <time>2020-05-30T19:57:28Z</time>
      </trkpt>
      <trkpt lat="46.42773" lon="-0.18309">
        <ele>102.7</ele>
        <time>2020-05-30T19:57:29Z</time>
      </trkpt>
      <trkpt lat="46.42773" lon="-0.18309">
        <ele>102.7</ele>
        <time>2020-05-30T19:57:30Z</time>
      </trkpt>
      <trkpt lat="46.42773" lon="-0.18309">
        <ele>102.7</ele>
        <time>2020-05-30T19:57:31Z</time>
      </trkpt>
      <trkpt lat="46.42773" lon="-0.18309">
        <ele>102.7</ele>
        <time>2020-05-30T19:57:32Z</time>
      </trkpt>
      <trkpt lat="46.42773" lon="-0.18309">
        <ele>102.7</ele>
        <time>2020-05-30T19:57:33Z</time>
      </trkpt>
      <trkpt lat="46.42773" lon="-0.18309">
        <ele>102.7</ele>
        <time>2020-05-30T19:57:34Z</time>
      </trkpt>
      <trkpt lat="46.42773" lon="-0.18309">
        <ele>102.7</ele>
        <time>2020-05-30T19:57:35Z</time>
      </trkpt>
      <trkpt lat="46.42773" lon="-0.18309">
        <ele>102.7</ele>
        <time>2020-05-30T19:57:36Z</time>
      </trkpt>
      <trkpt lat="46.42773" lon="-0.18309">
        <ele>102.7</ele>
        <time>2020-05-30T19:57:37Z</time>
      </trkpt>
      <trkpt lat="46.42773" lon="-0.18309">
        <ele>102.7</ele>
        <time>2020-05-30T19:57:38Z</time>
      </trkpt>
      <trkpt lat="46.42773" lon="-0.18309">
        <ele>102.7</ele>
        <time>2020-05-30T19:57:39Z</time>
      </trkpt>
      <trkpt lat="46.42773" lon="-0.18309">
        <ele>102.7</ele>
        <time>2020-05-30T19:57:40Z</time>
      </trkpt>
      <trkpt lat="46.42773" lon="-0.18309">
        <ele>102.7</ele>
        <time>2020-05-30T19:57:41Z</time>
      </trkpt>
      <trkpt lat="46.42773" lon="-0.18309">
        <ele>102.7</ele>
        <time>2020-05-30T19:57:42Z</time>
      </trkpt>
      <trkpt lat="46.42773" lon="-0.18309">
        <ele>102.7</ele>
        <time>2020-05-30T19:57:43Z</time>
      </trkpt>
      <trkpt lat="46.42773" lon="-0.18309">
        <ele>102.7</ele>
        <time>2020-05-30T19:57:44Z</time>
      </trkpt>
      <trkpt lat="46.42773" lon="-0.18309">
        <ele>102.7</ele>
        <time>2020-05-30T19:57:45Z</time>
      </trkpt>
      <trkpt lat="46.42773" lon="-0.18309">
        <ele>102.7</ele>
        <time>2020-05-30T19:57:46Z</time>
      </trkpt>
      <trkpt lat="46.42773" lon="-0.18309">
        <ele>102.7</ele>
        <time>2020-05-30T19:57:47Z</time>
      </trkpt>
      <trkpt lat="46.42773" lon="-0.18309">
        <ele>102.7</ele>
        <time>2020-05-30T19:57:48Z</time>
      </trkpt>
      <trkpt lat="46.42773" lon="-0.18309">
        <ele>102.7</ele>
        <time>2020-05-30T19:57:49Z</time>
      </trkpt>
      <trkpt lat="46.4277" lon="-0.18309">
        <ele>102.7</ele>
        <time>2020-05-30T19:57:50Z</time>
      </trkpt>
      <trkpt lat="46.4277" lon="-0.18309">
        <ele>102.7</ele>
        <time>2020-05-30T19:57:51Z</time>
      </trkpt>
      <trkpt lat="46.42771" lon="-0.18309">
        <ele>102.7</ele>
        <time>2020-05-30T19:57:52Z</time>
      </trkpt>
      <trkpt lat="46.4277" lon="-0.18309">
        <ele>102.7</ele>
        <time>2020-05-30T19:57:53Z</time>
      </trkpt>
      <trkpt lat="46.4277" lon="-0.18308">
        <ele>102.7</ele>
        <time>2020-05-30T19:57:54Z</time>
      </trkpt>
      <trkpt lat="46.4277" lon="-0.18308">
        <ele>102.7</ele>
        <time>2020-05-30T19:57:55Z</time>
      </trkpt>
      <trkpt lat="46.42771" lon="-0.18307">
        <ele>102.7</ele>
        <time>2020-05-30T19:57:56Z</time>
      </trkpt>
      <trkpt lat="46.42771" lon="-0.18307">
        <ele>102.7</ele>
        <time>2020-05-30T19:57:57Z</time>
      </trkpt>
      <trkpt lat="46.42771" lon="-0.18307">
        <ele>102.7</ele>
        <time>2020-05-30T19:57:58Z</time>
      </trkpt>
      <trkpt lat="46.42771" lon="-0.18308">
        <ele>102.7</ele>
        <time>2020-05-30T19:57:59Z</time>
      </trkpt>
      <trkpt lat="46.42771" lon="-0.18308">
        <ele>102.7</ele>
        <time>2020-05-30T19:58:00Z</time>
      </trkpt>
      <trkpt lat="46.42771" lon="-0.18308">
        <ele>102.7</ele>
        <time>2020-05-30T19:58:01Z</time>
      </trkpt>
      <trkpt lat="46.42771" lon="-0.18309">
        <ele>102.7</ele>
        <time>2020-05-30T19:58:02Z</time>
      </trkpt>
      <trkpt lat="46.42771" lon="-0.18309">
        <ele>102.7</ele>
        <time>2020-05-30T19:58:03Z</time>
      </trkpt>
      <trkpt lat="46.42771" lon="-0.18309">
        <ele>102.7</ele>
        <time>2020-05-30T19:58:04Z</time>
      </trkpt>
      <trkpt lat="46.42771" lon="-0.18309">
        <ele>102.7</ele>
        <time>2020-05-30T19:58:05Z</time>
      </trkpt>
      <trkpt lat="46.42771" lon="-0.18309">
        <ele>102.7</ele>
        <time>2020-05-30T19:58:06Z</time>
      </trkpt>
      <trkpt lat="46.42771" lon="-0.18308">
        <ele>102.7</ele>
        <time>2020-05-30T19:58:07Z</time>
      </trkpt>
      <trkpt lat="46.42771" lon="-0.18308">
        <ele>102.7</ele>
        <time>2020-05-30T19:58:08Z</time>
      </trkpt>
      <trkpt lat="46.42771" lon="-0.18308">
        <ele>102.7</ele>
        <time>2020-05-30T19:58:09Z</time>
      </trkpt>
      <trkpt lat="46.42771" lon="-0.1831">
        <ele>102.7</ele>
        <time>2020-05-30T19:58:10Z</time>
      </trkpt>
      <trkpt lat="46.4277" lon="-0.18311">
        <ele>102.7</ele>
        <time>2020-05-30T19:58:11Z</time>
      </trkpt>
      <trkpt lat="46.4277" lon="-0.18311">
        <ele>102.7</ele>
        <time>2020-05-30T19:58:12Z</time>
      </trkpt>
      <trkpt lat="46.4277" lon="-0.18312">
        <ele>102.7</ele>
        <time>2020-05-30T19:58:13Z</time>
      </trkpt>
      <trkpt lat="46.4277" lon="-0.18313">
        <ele>102.7</ele>
        <time>2020-05-30T19:58:14Z</time>
      </trkpt>
      <trkpt lat="46.4277" lon="-0.18313">
        <ele>102.7</ele>
        <time>2020-05-30T19:58:15Z</time>
      </trkpt>
      <trkpt lat="46.4277" lon="-0.18312">
        <ele>102.7</ele>
        <time>2020-05-30T19:58:16Z</time>
      </trkpt>
      <trkpt lat="46.4277" lon="-0.18312">
        <ele>102.7</ele>
        <time>2020-05-30T19:58:17Z</time>
      </trkpt>
      <trkpt lat="46.4277" lon="-0.18312">
        <ele>102.7</ele>
        <time>2020-05-30T19:58:18Z</time>
      </trkpt>
      <trkpt lat="46.4277" lon="-0.18312">
        <ele>102.7</ele>
        <time>2020-05-30T19:58:19Z</time>
      </trkpt>
      <trkpt lat="46.4277" lon="-0.18312">
        <ele>102.7</ele>
        <time>2020-05-30T19:58:20Z</time>
      </trkpt>
      <trkpt lat="46.4277" lon="-0.18311">
        <ele>102.7</ele>
        <time>2020-05-30T19:58:21Z</time>
      </trkpt>
      <trkpt lat="46.4277" lon="-0.18311">
        <ele>102.7</ele>
        <time>2020-05-30T19:58:22Z</time>
      </trkpt>
      <trkpt lat="46.4277" lon="-0.18311">
        <ele>102.7</ele>
        <time>2020-05-30T19:58:23Z</time>
      </trkpt>
      <trkpt lat="46.42769" lon="-0.18311">
        <ele>102.7</ele>
        <time>2020-05-30T19:58:24Z</time>
      </trkpt>
      <trkpt lat="46.4277" lon="-0.18311">
        <ele>102.7</ele>
        <time>2020-05-30T19:58:25Z</time>
      </trkpt>
      <trkpt lat="46.42769" lon="-0.18311">
        <ele>102.7</ele>
        <time>2020-05-30T19:58:26Z</time>
      </trkpt>
      <trkpt lat="46.4277" lon="-0.18311">
        <ele>102.7</ele>
        <time>2020-05-30T19:58:27Z</time>
      </trkpt>
      <trkpt lat="46.4277" lon="-0.18311">
        <ele>102.7</ele>
        <time>2020-05-30T19:58:28Z</time>
      </trkpt>
      <trkpt lat="46.4277" lon="-0.18311">
        <ele>102.7</ele>
        <time>2020-05-30T19:58:29Z</time>
      </trkpt>
      <trkpt lat="46.4277" lon="-0.18311">
        <ele>102.7</ele>
        <time>2020-05-30T19:58:30Z</time>
      </trkpt>
      <trkpt lat="46.4277" lon="-0.18311">
        <ele>102.7</ele>
        <time>2020-05-30T19:58:31Z</time>
      </trkpt>
      <trkpt lat="46.4277" lon="-0.18311">
        <ele>102.7</ele>
        <time>2020-05-30T19:58:32Z</time>
      </trkpt>
      <trkpt lat="46.4277" lon="-0.18311">
        <ele>102.7</ele>
        <time>2020-05-30T19:58:33Z</time>
      </trkpt>
      <trkpt lat="46.4277" lon="-0.18311">
        <ele>102.7</ele>
        <time>2020-05-30T19:58:34Z</time>
      </trkpt>
      <trkpt lat="46.4277" lon="-0.1831">
        <ele>102.7</ele>
        <time>2020-05-30T19:58:35Z</time>
      </trkpt>
      <trkpt lat="46.42769" lon="-0.1831">
        <ele>102.7</ele>
        <time>2020-05-30T19:58:36Z</time>
      </trkpt>
      <trkpt lat="46.42769" lon="-0.1831">
        <ele>102.7</ele>
        <time>2020-05-30T19:58:37Z</time>
      </trkpt>
      <trkpt lat="46.42769" lon="-0.1831">
        <ele>102.7</ele>
        <time>2020-05-30T19:58:38Z</time>
      </trkpt>
      <trkpt lat="46.42769" lon="-0.1831">
        <ele>102.7</ele>
        <time>2020-05-30T19:58:39Z</time>
      </trkpt>
      <trkpt lat="46.42769" lon="-0.1831">
        <ele>102.7</ele>
        <time>2020-05-30T19:58:40Z</time>
      </trkpt>
      <trkpt lat="46.42769" lon="-0.1831">
        <ele>102.7</ele>
        <time>2020-05-30T19:58:41Z</time>
      </trkpt>
      <trkpt lat="46.42769" lon="-0.1831">
        <ele>102.7</ele>
        <time>2020-05-30T19:58:42Z</time>
      </trkpt>
      <trkpt lat="46.42769" lon="-0.1831">
        <ele>102.7</ele>
        <time>2020-05-30T19:58:43Z</time>
      </trkpt>
      <trkpt lat="46.4277" lon="-0.1831">
        <ele>102.7</ele>
        <time>2020-05-30T19:58:44Z</time>
      </trkpt>
      <trkpt lat="46.4277" lon="-0.1831">
        <ele>102.7</ele>
        <time>2020-05-30T19:58:45Z</time>
      </trkpt>
      <trkpt lat="46.4277" lon="-0.1831">
        <ele>102.7</ele>
        <time>2020-05-30T19:58:46Z</time>
      </trkpt>
      <trkpt lat="46.4277" lon="-0.1831">
        <ele>102.7</ele>
        <time>2020-05-30T19:58:47Z</time>
      </trkpt>
      <trkpt lat="46.4277" lon="-0.1831">
        <ele>102.7</ele>
        <time>2020-05-30T19:58:48Z</time>
      </trkpt>
      <trkpt lat="46.42771" lon="-0.1831">
        <ele>102.7</ele>
        <time>2020-05-30T19:58:49Z</time>
      </trkpt>
      <trkpt lat="46.4277" lon="-0.18309">
        <ele>102.7</ele>
        <time>2020-05-30T19:58:50Z</time>
      </trkpt>
      <trkpt lat="46.4277" lon="-0.18309">
        <ele>102.7</ele>
        <time>2020-05-30T19:58:51Z</time>
      </trkpt>
      <trkpt lat="46.4277" lon="-0.18309">
        <ele>102.7</ele>
        <time>2020-05-30T19:58:52Z</time>
      </trkpt>
      <trkpt lat="46.4277" lon="-0.18309">
        <ele>102.7</ele>
        <time>2020-05-30T19:58:53Z</time>
      </trkpt>
      <trkpt lat="46.4277" lon="-0.18309">
        <ele>102.7</ele>
        <time>2020-05-30T19:58:54Z</time>
      </trkpt>
      <trkpt lat="46.4277" lon="-0.18309">
        <ele>102.7</ele>
        <time>2020-05-30T19:58:55Z</time>
      </trkpt>
      <trkpt lat="46.42769" lon="-0.18308">
        <ele>102.7</ele>
        <time>2020-05-30T19:58:56Z</time>
      </trkpt>
      <trkpt lat="46.42769" lon="-0.18308">
        <ele>102.7</ele>
        <time>2020-05-30T19:58:57Z</time>
      </trkpt>
      <trkpt lat="46.42769" lon="-0.18308">
        <ele>102.7</ele>
        <time>2020-05-30T19:58:58Z</time>
      </trkpt>
      <trkpt lat="46.4277" lon="-0.18307">
        <ele>102.7</ele>
        <time>2020-05-30T19:58:59Z</time>
      </trkpt>
      <trkpt lat="46.4277" lon="-0.18307">
        <ele>102.7</ele>
        <time>2020-05-30T19:59:00Z</time>
      </trkpt>
      <trkpt lat="46.42771" lon="-0.18308">
        <ele>102.7</ele>
        <time>2020-05-30T19:59:01Z</time>
      </trkpt>
      <trkpt lat="46.42771" lon="-0.18308">
        <ele>102.7</ele>
        <time>2020-05-30T19:59:02Z</time>
      </trkpt>
      <trkpt lat="46.42772" lon="-0.18308">
        <ele>102.7</ele>
        <time>2020-05-30T19:59:03Z</time>
      </trkpt>
      <trkpt lat="46.42772" lon="-0.18308">
        <ele>102.7</ele>
        <time>2020-05-30T19:59:04Z</time>
      </trkpt>
      <trkpt lat="46.42772" lon="-0.18308">
        <ele>102.7</ele>
        <time>2020-05-30T19:59:05Z</time>
      </trkpt>
      <trkpt lat="46.42772" lon="-0.18308">
        <ele>102.7</ele>
        <time>2020-05-30T19:59:06Z</time>
      </trkpt>
      <trkpt lat="46.42772" lon="-0.18308">
        <ele>102.7</ele>
        <time>2020-05-30T19:59:07Z</time>
      </trkpt>
      <trkpt lat="46.42772" lon="-0.18308">
        <ele>102.7</ele>
        <time>2020-05-30T19:59:08Z</time>
      </trkpt>
      <trkpt lat="46.42772" lon="-0.18308">
        <ele>102.7</ele>
        <time>2020-05-30T19:59:09Z</time>
      </trkpt>
      <trkpt lat="46.42772" lon="-0.18308">
        <ele>102.7</ele>
        <time>2020-05-30T19:59:10Z</time>
      </trkpt>
      <trkpt lat="46.42771" lon="-0.18309">
        <ele>102.7</ele>
        <time>2020-05-30T19:59:11Z</time>
      </trkpt>
      <trkpt lat="46.42771" lon="-0.1831">
        <ele>102.7</ele>
        <time>2020-05-30T19:59:12Z</time>
      </trkpt>
      <trkpt lat="46.42771" lon="-0.18311">
        <ele>102.7</ele>
        <time>2020-05-30T19:59:13Z</time>
      </trkpt>
      <trkpt lat="46.42771" lon="-0.18311">
        <ele>102.7</ele>
        <time>2020-05-30T19:59:14Z</time>
      </trkpt>
      <trkpt lat="46.42771" lon="-0.18312">
        <ele>102.7</ele>
        <time>2020-05-30T19:59:15Z</time>
      </trkpt>
      <trkpt lat="46.42771" lon="-0.18312">
        <ele>102.7</ele>
        <time>2020-05-30T19:59:16Z</time>
      </trkpt>
      <trkpt lat="46.42771" lon="-0.18312">
        <ele>102.7</ele>
        <time>2020-05-30T19:59:17Z</time>
      </trkpt>
      <trkpt lat="46.42771" lon="-0.18311">
        <ele>102.7</ele>
        <time>2020-05-30T19:59:18Z</time>
      </trkpt>
      <trkpt lat="46.42771" lon="-0.18311">
        <ele>102.7</ele>
        <time>2020-05-30T19:59:19Z</time>
      </trkpt>
      <trkpt lat="46.42771" lon="-0.18311">
        <ele>102.7</ele>
        <time>2020-05-30T19:59:20Z</time>
      </trkpt>
      <trkpt lat="46.42771" lon="-0.18311">
        <ele>102.7</ele>
        <time>2020-05-30T19:59:21Z</time>
      </trkpt>
      <trkpt lat="46.42771" lon="-0.18311">
        <ele>102.7</ele>
        <time>2020-05-30T19:59:22Z</time>
      </trkpt>
      <trkpt lat="46.42771" lon="-0.18311">
        <ele>102.7</ele>
        <time>2020-05-30T19:59:23Z</time>
      </trkpt>
      <trkpt lat="46.42771" lon="-0.18311">
        <ele>102.7</ele>
        <time>2020-05-30T19:59:24Z</time>
      </trkpt>
      <trkpt lat="46.42771" lon="-0.18311">
        <ele>102.7</ele>
        <time>2020-05-30T19:59:25Z</time>
      </trkpt>
      <trkpt lat="46.42771" lon="-0.18311">
        <ele>102.7</ele>
        <time>2020-05-30T19:59:26Z</time>
      </trkpt>
      <trkpt lat="46.42771" lon="-0.18311">
        <ele>102.7</ele>
        <time>2020-05-30T19:59:27Z</time>
      </trkpt>
      <trkpt lat="46.42771" lon="-0.18311">
        <ele>102.7</ele>
        <time>2020-05-30T19:59:28Z</time>
      </trkpt>
      <trkpt lat="46.42771" lon="-0.18311">
        <ele>102.7</ele>
        <time>2020-05-30T19:59:29Z</time>
      </trkpt>
      <trkpt lat="46.42771" lon="-0.18311">
        <ele>102.7</ele>
        <time>2020-05-30T19:59:30Z</time>
      </trkpt>
      <trkpt lat="46.42771" lon="-0.18311">
        <ele>102.7</ele>
        <time>2020-05-30T19:59:31Z</time>
      </trkpt>
      <trkpt lat="46.42771" lon="-0.18311">
        <ele>102.7</ele>
        <time>2020-05-30T19:59:32Z</time>
      </trkpt>
      <trkpt lat="46.42771" lon="-0.18311">
        <ele>102.7</ele>
        <time>2020-05-30T19:59:33Z</time>
      </trkpt>
      <trkpt lat="46.42771" lon="-0.18311">
        <ele>102.7</ele>
        <time>2020-05-30T19:59:34Z</time>
      </trkpt>
      <trkpt lat="46.42771" lon="-0.18311">
        <ele>102.7</ele>
        <time>2020-05-30T19:59:35Z</time>
      </trkpt>
      <trkpt lat="46.42771" lon="-0.1831">
        <ele>102.7</ele>
        <time>2020-05-30T19:59:36Z</time>
      </trkpt>
      <trkpt lat="46.42771" lon="-0.18311">
        <ele>102.7</ele>
        <time>2020-05-30T19:59:37Z</time>
      </trkpt>
      <trkpt lat="46.42771" lon="-0.18312">
        <ele>102.7</ele>
        <time>2020-05-30T19:59:38Z</time>
      </trkpt>
      <trkpt lat="46.42771" lon="-0.18312">
        <ele>102.7</ele>
        <time>2020-05-30T19:59:39Z</time>
      </trkpt>
      <trkpt lat="46.42771" lon="-0.18312">
        <ele>102.7</ele>
        <time>2020-05-30T19:59:40Z</time>
      </trkpt>
      <trkpt lat="46.42771" lon="-0.18312">
        <ele>102.7</ele>
        <time>2020-05-30T19:59:41Z</time>
      </trkpt>
      <trkpt lat="46.42771" lon="-0.18312">
        <ele>102.7</ele>
        <time>2020-05-30T19:59:42Z</time>
      </trkpt>
      <trkpt lat="46.42771" lon="-0.18312">
        <ele>102.7</ele>
        <time>2020-05-30T19:59:43Z</time>
      </trkpt>
      <trkpt lat="46.42771" lon="-0.18312">
        <ele>102.7</ele>
        <time>2020-05-30T19:59:44Z</time>
      </trkpt>
      <trkpt lat="46.42771" lon="-0.18312">
        <ele>102.7</ele>
        <time>2020-05-30T19:59:45Z</time>
      </trkpt>
      <trkpt lat="46.42771" lon="-0.18312">
        <ele>102.7</ele>
        <time>2020-05-30T19:59:46Z</time>
      </trkpt>
      <trkpt lat="46.42771" lon="-0.18312">
        <ele>102.7</ele>
        <time>2020-05-30T19:59:47Z</time>
      </trkpt>
      <trkpt lat="46.42771" lon="-0.18312">
        <ele>102.7</ele>
        <time>2020-05-30T19:59:48Z</time>
      </trkpt>
      <trkpt lat="46.42771" lon="-0.18312">
        <ele>102.7</ele>
        <time>2020-05-30T19:59:49Z</time>
      </trkpt>
      <trkpt lat="46.42771" lon="-0.18312">
        <ele>102.7</ele>
        <time>2020-05-30T19:59:50Z</time>
      </trkpt>
      <trkpt lat="46.42771" lon="-0.18312">
        <ele>102.7</ele>
        <time>2020-05-30T19:59:51Z</time>
      </trkpt>
      <trkpt lat="46.42771" lon="-0.18312">
        <ele>102.7</ele>
        <time>2020-05-30T19:59:52Z</time>
      </trkpt>
      <trkpt lat="46.42771" lon="-0.18312">
        <ele>102.7</ele>
        <time>2020-05-30T19:59:53Z</time>
      </trkpt>
      <trkpt lat="46.42771" lon="-0.18312">
        <ele>102.7</ele>
        <time>2020-05-30T19:59:54Z</time>
      </trkpt>
      <trkpt lat="46.42771" lon="-0.18312">
        <ele>102.7</ele>
        <time>2020-05-30T19:59:55Z</time>
      </trkpt>
      <trkpt lat="46.42771" lon="-0.18312">
        <ele>102.7</ele>
        <time>2020-05-30T19:59:56Z</time>
      </trkpt>
      <trkpt lat="46.42771" lon="-0.18312">
        <ele>102.7</ele>
        <time>2020-05-30T19:59:57Z</time>
      </trkpt>
      <trkpt lat="46.42771" lon="-0.18312">
        <ele>102.7</ele>
        <time>2020-05-30T19:59:58Z</time>
      </trkpt>
      <trkpt lat="46.42771" lon="-0.18312">
        <ele>102.7</ele>
        <time>2020-05-30T19:59:59Z</time>
      </trkpt>
      <trkpt lat="46.42771" lon="-0.18312">
        <ele>102.7</ele>
        <time>2020-05-30T20:00:00Z</time>
      </trkpt>
      <trkpt lat="46.42771" lon="-0.18312">
        <ele>102.7</ele>
        <time>2020-05-30T20:00:01Z</time>
      </trkpt>
      <trkpt lat="46.42771" lon="-0.18312">
        <ele>102.7</ele>
        <time>2020-05-30T20:00:02Z</time>
      </trkpt>
      <trkpt lat="46.42771" lon="-0.18312">
        <ele>102.7</ele>
        <time>2020-05-30T20:00:03Z</time>
      </trkpt>
      <trkpt lat="46.42771" lon="-0.18312">
        <ele>102.7</ele>
        <time>2020-05-30T20:00:04Z</time>
      </trkpt>
      <trkpt lat="46.42771" lon="-0.18312">
        <ele>102.7</ele>
        <time>2020-05-30T20:00:05Z</time>
      </trkpt>
      <trkpt lat="46.42771" lon="-0.18312">
        <ele>102.7</ele>
        <time>2020-05-30T20:00:06Z</time>
      </trkpt>
      <trkpt lat="46.42771" lon="-0.18312">
        <ele>102.7</ele>
        <time>2020-05-30T20:00:07Z</time>
      </trkpt>
      <trkpt lat="46.42771" lon="-0.18312">
        <ele>102.7</ele>
        <time>2020-05-30T20:00:08Z</time>
      </trkpt>
      <trkpt lat="46.42771" lon="-0.18312">
        <ele>102.7</ele>
        <time>2020-05-30T20:00:09Z</time>
      </trkpt>
      <trkpt lat="46.42771" lon="-0.18312">
        <ele>102.7</ele>
        <time>2020-05-30T20:00:10Z</time>
      </trkpt>
      <trkpt lat="46.42771" lon="-0.18312">
        <ele>102.7</ele>
        <time>2020-05-30T20:00:11Z</time>
      </trkpt>
      <trkpt lat="46.42771" lon="-0.18312">
        <ele>102.7</ele>
        <time>2020-05-30T20:00:12Z</time>
      </trkpt>
      <trkpt lat="46.42771" lon="-0.18312">
        <ele>102.7</ele>
        <time>2020-05-30T20:00:13Z</time>
      </trkpt>
      <trkpt lat="46.42771" lon="-0.18312">
        <ele>102.7</ele>
        <time>2020-05-30T20:00:14Z</time>
      </trkpt>
      <trkpt lat="46.42771" lon="-0.18312">
        <ele>102.7</ele>
        <time>2020-05-30T20:00:15Z</time>
      </trkpt>
      <trkpt lat="46.42771" lon="-0.18312">
        <ele>102.7</ele>
        <time>2020-05-30T20:00:16Z</time>
      </trkpt>
      <trkpt lat="46.42771" lon="-0.18312">
        <ele>102.7</ele>
        <time>2020-05-30T20:00:17Z</time>
      </trkpt>
      <trkpt lat="46.42771" lon="-0.18312">
        <ele>102.7</ele>
        <time>2020-05-30T20:00:18Z</time>
      </trkpt>
      <trkpt lat="46.42771" lon="-0.18312">
        <ele>102.7</ele>
        <time>2020-05-30T20:00:19Z</time>
      </trkpt>
      <trkpt lat="46.42771" lon="-0.18312">
        <ele>102.7</ele>
        <time>2020-05-30T20:00:20Z</time>
      </trkpt>
      <trkpt lat="46.42771" lon="-0.18312">
        <ele>102.7</ele>
        <time>2020-05-30T20:00:21Z</time>
      </trkpt>
      <trkpt lat="46.42771" lon="-0.18312">
        <ele>102.7</ele>
        <time>2020-05-30T20:00:22Z</time>
      </trkpt>
      <trkpt lat="46.42771" lon="-0.18312">
        <ele>102.7</ele>
        <time>2020-05-30T20:00:23Z</time>
      </trkpt>
      <trkpt lat="46.42771" lon="-0.18312">
        <ele>102.7</ele>
        <time>2020-05-30T20:00:24Z</time>
      </trkpt>
      <trkpt lat="46.42771" lon="-0.18312">
        <ele>102.7</ele>
        <time>2020-05-30T20:00:25Z</time>
      </trkpt>
      <trkpt lat="46.42771" lon="-0.18312">
        <ele>102.7</ele>
        <time>2020-05-30T20:00:26Z</time>
      </trkpt>
      <trkpt lat="46.42771" lon="-0.18312">
        <ele>102.7</ele>
        <time>2020-05-30T20:00:27Z</time>
      </trkpt>
      <trkpt lat="46.42771" lon="-0.18312">
        <ele>102.7</ele>
        <time>2020-05-30T20:00:28Z</time>
      </trkpt>
      <trkpt lat="46.42771" lon="-0.18312">
        <ele>102.7</ele>
        <time>2020-05-30T20:00:29Z</time>
      </trkpt>
      <trkpt lat="46.42771" lon="-0.18312">
        <ele>102.7</ele>
        <time>2020-05-30T20:00:30Z</time>
      </trkpt>
      <trkpt lat="46.42771" lon="-0.18312">
        <ele>102.7</ele>
        <time>2020-05-30T20:00:31Z</time>
      </trkpt>
      <trkpt lat="46.42771" lon="-0.18312">
        <ele>102.7</ele>
        <time>2020-05-30T20:00:32Z</time>
      </trkpt>
      <trkpt lat="46.42771" lon="-0.18312">
        <ele>102.7</ele>
        <time>2020-05-30T20:00:33Z</time>
      </trkpt>
      <trkpt lat="46.42771" lon="-0.18312">
        <ele>102.7</ele>
        <time>2020-05-30T20:00:34Z</time>
      </trkpt>
      <trkpt lat="46.42771" lon="-0.18312">
        <ele>102.7</ele>
        <time>2020-05-30T20:00:35Z</time>
      </trkpt>
      <trkpt lat="46.42771" lon="-0.18312">
        <ele>102.7</ele>
        <time>2020-05-30T20:00:36Z</time>
      </trkpt>
      <trkpt lat="46.42771" lon="-0.18312">
        <ele>102.7</ele>
        <time>2020-05-30T20:00:37Z</time>
      </trkpt>
      <trkpt lat="46.42771" lon="-0.18312">
        <ele>102.7</ele>
        <time>2020-05-30T20:00:38Z</time>
      </trkpt>
      <trkpt lat="46.42771" lon="-0.18312">
        <ele>102.7</ele>
        <time>2020-05-30T20:00:39Z</time>
      </trkpt>
      <trkpt lat="46.42771" lon="-0.18312">
        <ele>102.7</ele>
        <time>2020-05-30T20:00:40Z</time>
      </trkpt>
      <trkpt lat="46.42771" lon="-0.18312">
        <ele>102.7</ele>
        <time>2020-05-30T20:00:41Z</time>
      </trkpt>
      <trkpt lat="46.42771" lon="-0.18312">
        <ele>102.7</ele>
        <time>2020-05-30T20:00:42Z</time>
      </trkpt>
      <trkpt lat="46.42771" lon="-0.18312">
        <ele>102.7</ele>
        <time>2020-05-30T20:00:43Z</time>
      </trkpt>
      <trkpt lat="46.42771" lon="-0.18312">
        <ele>102.7</ele>
        <time>2020-05-30T20:00:44Z</time>
      </trkpt>
      <trkpt lat="46.42771" lon="-0.18312">
        <ele>102.7</ele>
        <time>2020-05-30T20:00:45Z</time>
      </trkpt>
      <trkpt lat="46.42771" lon="-0.18312">
        <ele>102.7</ele>
        <time>2020-05-30T20:00:46Z</time>
      </trkpt>
      <trkpt lat="46.42771" lon="-0.18312">
        <ele>102.7</ele>
        <time>2020-05-30T20:00:47Z</time>
      </trkpt>
      <trkpt lat="46.42771" lon="-0.18312">
        <ele>102.7</ele>
        <time>2020-05-30T20:00:48Z</time>
      </trkpt>
      <trkpt lat="46.42771" lon="-0.18312">
        <ele>102.7</ele>
        <time>2020-05-30T20:00:49Z</time>
      </trkpt>
      <trkpt lat="46.42771" lon="-0.18312">
        <ele>102.7</ele>
        <time>2020-05-30T20:00:50Z</time>
      </trkpt>
      <trkpt lat="46.42771" lon="-0.18312">
        <ele>102.7</ele>
        <time>2020-05-30T20:00:51Z</time>
      </trkpt>
      <trkpt lat="46.42771" lon="-0.18312">
        <ele>102.7</ele>
        <time>2020-05-30T20:00:52Z</time>
      </trkpt>
      <trkpt lat="46.42771" lon="-0.18312">
        <ele>102.7</ele>
        <time>2020-05-30T20:00:53Z</time>
      </trkpt>
      <trkpt lat="46.42771" lon="-0.18312">
        <ele>102.7</ele>
        <time>2020-05-30T20:00:54Z</time>
      </trkpt>
      <trkpt lat="46.42771" lon="-0.18312">
        <ele>102.7</ele>
        <time>2020-05-30T20:00:55Z</time>
      </trkpt>
      <trkpt lat="46.42771" lon="-0.18312">
        <ele>102.7</ele>
        <time>2020-05-30T20:00:56Z</time>
      </trkpt>
      <trkpt lat="46.42771" lon="-0.18312">
        <ele>102.7</ele>
        <time>2020-05-30T20:00:57Z</time>
      </trkpt>
      <trkpt lat="46.42771" lon="-0.18312">
        <ele>102.7</ele>
        <time>2020-05-30T20:00:58Z</time>
      </trkpt>
      <trkpt lat="46.42771" lon="-0.18312">
        <ele>102.7</ele>
        <time>2020-05-30T20:00:59Z</time>
      </trkpt>
      <trkpt lat="46.42771" lon="-0.18312">
        <ele>102.7</ele>
        <time>2020-05-30T20:01:00Z</time>
      </trkpt>
      <trkpt lat="46.42771" lon="-0.18312">
        <ele>102.7</ele>
        <time>2020-05-30T20:01:01Z</time>
      </trkpt>
      <trkpt lat="46.42771" lon="-0.18312">
        <ele>102.7</ele>
        <time>2020-05-30T20:01:02Z</time>
      </trkpt>
      <trkpt lat="46.42771" lon="-0.18312">
        <ele>102.7</ele>
        <time>2020-05-30T20:01:03Z</time>
      </trkpt>
      <trkpt lat="46.42771" lon="-0.18312">
        <ele>102.7</ele>
        <time>2020-05-30T20:01:04Z</time>
      </trkpt>
      <trkpt lat="46.42771" lon="-0.18312">
        <ele>102.7</ele>
        <time>2020-05-30T20:01:05Z</time>
      </trkpt>
      <trkpt lat="46.42771" lon="-0.18312">
        <ele>102.7</ele>
        <time>2020-05-30T20:01:06Z</time>
      </trkpt>
      <trkpt lat="46.42771" lon="-0.18312">
        <ele>102.7</ele>
        <time>2020-05-30T20:01:07Z</time>
      </trkpt>
      <trkpt lat="46.42771" lon="-0.18312">
        <ele>102.7</ele>
        <time>2020-05-30T20:01:08Z</time>
      </trkpt>
      <trkpt lat="46.42771" lon="-0.18312">
        <ele>102.7</ele>
        <time>2020-05-30T20:01:09Z</time>
      </trkpt>
      <trkpt lat="46.42771" lon="-0.18312">
        <ele>102.7</ele>
        <time>2020-05-30T20:01:10Z</time>
      </trkpt>
      <trkpt lat="46.42771" lon="-0.18312">
        <ele>102.7</ele>
        <time>2020-05-30T20:01:11Z</time>
      </trkpt>
      <trkpt lat="46.42771" lon="-0.18312">
        <ele>102.7</ele>
        <time>2020-05-30T20:01:12Z</time>
      </trkpt>
      <trkpt lat="46.42771" lon="-0.18312">
        <ele>102.7</ele>
        <time>2020-05-30T20:01:13Z</time>
      </trkpt>
      <trkpt lat="46.42771" lon="-0.18312">
        <ele>102.7</ele>
        <time>2020-05-30T20:01:14Z</time>
      </trkpt>
      <trkpt lat="46.42771" lon="-0.18312">
        <ele>102.7</ele>
        <time>2020-05-30T20:01:15Z</time>
      </trkpt>
      <trkpt lat="46.42771" lon="-0.18312">
        <ele>102.7</ele>
        <time>2020-05-30T20:01:16Z</time>
      </trkpt>
      <trkpt lat="46.42771" lon="-0.18312">
        <ele>102.7</ele>
        <time>2020-05-30T20:01:17Z</time>
      </trkpt>
      <trkpt lat="46.42771" lon="-0.18312">
        <ele>102.7</ele>
        <time>2020-05-30T20:01:18Z</time>
      </trkpt>
      <trkpt lat="46.42771" lon="-0.18312">
        <ele>102.7</ele>
        <time>2020-05-30T20:01:19Z</time>
      </trkpt>
      <trkpt lat="46.42771" lon="-0.18312">
        <ele>102.7</ele>
        <time>2020-05-30T20:01:20Z</time>
      </trkpt>
      <trkpt lat="46.42771" lon="-0.18312">
        <ele>102.7</ele>
        <time>2020-05-30T20:01:21Z</time>
      </trkpt>
      <trkpt lat="46.42771" lon="-0.18312">
        <ele>102.7</ele>
        <time>2020-05-30T20:01:22Z</time>
      </trkpt>
      <trkpt lat="46.42771" lon="-0.18312">
        <ele>102.7</ele>
        <time>2020-05-30T20:01:23Z</time>
      </trkpt>
      <trkpt lat="46.42771" lon="-0.18312">
        <ele>102.7</ele>
        <time>2020-05-30T20:01:24Z</time>
      </trkpt>
      <trkpt lat="46.42771" lon="-0.18312">
        <ele>102.7</ele>
        <time>2020-05-30T20:01:25Z</time>
      </trkpt>
      <trkpt lat="46.42771" lon="-0.18312">
        <ele>102.7</ele>
        <time>2020-05-30T20:01:26Z</time>
      </trkpt>
      <trkpt lat="46.42771" lon="-0.18312">
        <ele>102.7</ele>
        <time>2020-05-30T20:01:27Z</time>
      </trkpt>
      <trkpt lat="46.42771" lon="-0.18312">
        <ele>102.7</ele>
        <time>2020-05-30T20:01:28Z</time>
      </trkpt>
      <trkpt lat="46.42771" lon="-0.18312">
        <ele>102.7</ele>
        <time>2020-05-30T20:01:29Z</time>
      </trkpt>
      <trkpt lat="46.42771" lon="-0.18312">
        <ele>102.7</ele>
        <time>2020-05-30T20:01:30Z</time>
      </trkpt>
      <trkpt lat="46.42771" lon="-0.18312">
        <ele>102.7</ele>
        <time>2020-05-30T20:01:31Z</time>
      </trkpt>
      <trkpt lat="46.42771" lon="-0.18312">
        <ele>102.7</ele>
        <time>2020-05-30T20:01:32Z</time>
      </trkpt>
      <trkpt lat="46.42771" lon="-0.18312">
        <ele>102.7</ele>
        <time>2020-05-30T20:01:33Z</time>
      </trkpt>
      <trkpt lat="46.42771" lon="-0.18312">
        <ele>102.7</ele>
        <time>2020-05-30T20:01:34Z</time>
      </trkpt>
      <trkpt lat="46.42771" lon="-0.18312">
        <ele>102.7</ele>
        <time>2020-05-30T20:01:35Z</time>
      </trkpt>
      <trkpt lat="46.42771" lon="-0.18312">
        <ele>102.7</ele>
        <time>2020-05-30T20:01:36Z</time>
      </trkpt>
      <trkpt lat="46.42771" lon="-0.18312">
        <ele>102.7</ele>
        <time>2020-05-30T20:01:37Z</time>
      </trkpt>
      <trkpt lat="46.42771" lon="-0.18312">
        <ele>102.7</ele>
        <time>2020-05-30T20:01:38Z</time>
      </trkpt>
      <trkpt lat="46.42771" lon="-0.18312">
        <ele>102.7</ele>
        <time>2020-05-30T20:01:39Z</time>
      </trkpt>
      <trkpt lat="46.42771" lon="-0.18312">
        <ele>102.7</ele>
        <time>2020-05-30T20:01:40Z</time>
      </trkpt>
      <trkpt lat="46.42771" lon="-0.18312">
        <ele>102.7</ele>
        <time>2020-05-30T20:01:41Z</time>
      </trkpt>
      <trkpt lat="46.42771" lon="-0.18312">
        <ele>102.7</ele>
        <time>2020-05-30T20:01:42Z</time>
      </trkpt>
      <trkpt lat="46.42771" lon="-0.18312">
        <ele>102.7</ele>
        <time>2020-05-30T20:01:43Z</time>
      </trkpt>
      <trkpt lat="46.42771" lon="-0.18312">
        <ele>102.7</ele>
        <time>2020-05-30T20:01:44Z</time>
      </trkpt>
      <trkpt lat="46.42771" lon="-0.18312">
        <ele>102.7</ele>
        <time>2020-05-30T20:01:45Z</time>
      </trkpt>
      <trkpt lat="46.42771" lon="-0.18312">
        <ele>102.7</ele>
        <time>2020-05-30T20:01:46Z</time>
      </trkpt>
      <trkpt lat="46.42771" lon="-0.18312">
        <ele>102.7</ele>
        <time>2020-05-30T20:01:47Z</time>
      </trkpt>
      <trkpt lat="46.42771" lon="-0.18312">
        <ele>102.7</ele>
        <time>2020-05-30T20:01:48Z</time>
      </trkpt>
      <trkpt lat="46.42771" lon="-0.18312">
        <ele>102.7</ele>
        <time>2020-05-30T20:01:49Z</time>
      </trkpt>
      <trkpt lat="46.42771" lon="-0.18312">
        <ele>102.7</ele>
        <time>2020-05-30T20:01:50Z</time>
      </trkpt>
      <trkpt lat="46.42771" lon="-0.18312">
        <ele>102.7</ele>
        <time>2020-05-30T20:01:51Z</time>
      </trkpt>
      <trkpt lat="46.42771" lon="-0.18312">
        <ele>102.7</ele>
        <time>2020-05-30T20:01:52Z</time>
      </trkpt>
      <trkpt lat="46.42771" lon="-0.18312">
        <ele>102.7</ele>
        <time>2020-05-30T20:01:53Z</time>
      </trkpt>
      <trkpt lat="46.42771" lon="-0.18312">
        <ele>102.7</ele>
        <time>2020-05-30T20:01:54Z</time>
      </trkpt>
      <trkpt lat="46.42771" lon="-0.18312">
        <ele>102.7</ele>
        <time>2020-05-30T20:01:55Z</time>
      </trkpt>
      <trkpt lat="46.42771" lon="-0.18312">
        <ele>102.7</ele>
        <time>2020-05-30T20:01:56Z</time>
      </trkpt>
      <trkpt lat="46.42771" lon="-0.18312">
        <ele>102.7</ele>
        <time>2020-05-30T20:01:57Z</time>
      </trkpt>
      <trkpt lat="46.42771" lon="-0.18312">
        <ele>102.7</ele>
        <time>2020-05-30T20:01:58Z</time>
      </trkpt>
      <trkpt lat="46.42771" lon="-0.18312">
        <ele>102.7</ele>
        <time>2020-05-30T20:01:59Z</time>
      </trkpt>
      <trkpt lat="46.42771" lon="-0.18312">
        <ele>102.7</ele>
        <time>2020-05-30T20:02:00Z</time>
      </trkpt>
      <trkpt lat="46.42771" lon="-0.18312">
        <ele>102.7</ele>
        <time>2020-05-30T20:02:01Z</time>
      </trkpt>
      <trkpt lat="46.42771" lon="-0.18312">
        <ele>102.7</ele>
        <time>2020-05-30T20:02:02Z</time>
      </trkpt>
      <trkpt lat="46.42771" lon="-0.18312">
        <ele>102.7</ele>
        <time>2020-05-30T20:02:03Z</time>
      </trkpt>
      <trkpt lat="46.42771" lon="-0.18312">
        <ele>102.7</ele>
        <time>2020-05-30T20:02:04Z</time>
      </trkpt>
      <trkpt lat="46.42771" lon="-0.18312">
        <ele>102.7</ele>
        <time>2020-05-30T20:02:05Z</time>
      </trkpt>
      <trkpt lat="46.42771" lon="-0.18312">
        <ele>102.7</ele>
        <time>2020-05-30T20:02:06Z</time>
      </trkpt>
      <trkpt lat="46.42771" lon="-0.18312">
        <ele>102.7</ele>
        <time>2020-05-30T20:02:07Z</time>
      </trkpt>
      <trkpt lat="46.42771" lon="-0.18312">
        <ele>102.7</ele>
        <time>2020-05-30T20:02:08Z</time>
      </trkpt>
      <trkpt lat="46.42771" lon="-0.18312">
        <ele>102.7</ele>
        <time>2020-05-30T20:02:09Z</time>
      </trkpt>
      <trkpt lat="46.42771" lon="-0.18312">
        <ele>102.7</ele>
        <time>2020-05-30T20:02:10Z</time>
      </trkpt>
      <trkpt lat="46.42771" lon="-0.18312">
        <ele>102.7</ele>
        <time>2020-05-30T20:02:11Z</time>
      </trkpt>
      <trkpt lat="46.42771" lon="-0.18312">
        <ele>102.7</ele>
        <time>2020-05-30T20:02:12Z</time>
      </trkpt>
      <trkpt lat="46.42771" lon="-0.18312">
        <ele>102.7</ele>
        <time>2020-05-30T20:02:13Z</time>
      </trkpt>
      <trkpt lat="46.42771" lon="-0.18312">
        <ele>102.7</ele>
        <time>2020-05-30T20:02:14Z</time>
      </trkpt>
      <trkpt lat="46.42771" lon="-0.18312">
        <ele>102.7</ele>
        <time>2020-05-30T20:02:15Z</time>
      </trkpt>
      <trkpt lat="46.42771" lon="-0.18312">
        <ele>102.7</ele>
        <time>2020-05-30T20:02:16Z</time>
      </trkpt>
      <trkpt lat="46.42771" lon="-0.18312">
        <ele>102.7</ele>
        <time>2020-05-30T20:02:17Z</time>
      </trkpt>
      <trkpt lat="46.42771" lon="-0.18312">
        <ele>102.7</ele>
        <time>2020-05-30T20:02:18Z</time>
      </trkpt>
      <trkpt lat="46.42771" lon="-0.18312">
        <ele>102.7</ele>
        <time>2020-05-30T20:02:19Z</time>
      </trkpt>
      <trkpt lat="46.42771" lon="-0.18312">
        <ele>102.7</ele>
        <time>2020-05-30T20:02:20Z</time>
      </trkpt>
      <trkpt lat="46.42771" lon="-0.18312">
        <ele>102.7</ele>
        <time>2020-05-30T20:02:21Z</time>
      </trkpt>
      <trkpt lat="46.42771" lon="-0.18312">
        <ele>102.7</ele>
        <time>2020-05-30T20:02:22Z</time>
      </trkpt>
      <trkpt lat="46.42771" lon="-0.18312">
        <ele>102.7</ele>
        <time>2020-05-30T20:02:23Z</time>
      </trkpt>
      <trkpt lat="46.42771" lon="-0.18312">
        <ele>102.7</ele>
        <time>2020-05-30T20:02:24Z</time>
      </trkpt>
      <trkpt lat="46.42771" lon="-0.18312">
        <ele>102.7</ele>
        <time>2020-05-30T20:02:25Z</time>
      </trkpt>
      <trkpt lat="46.42771" lon="-0.18312">
        <ele>102.7</ele>
        <time>2020-05-30T20:02:26Z</time>
      </trkpt>
      <trkpt lat="46.42771" lon="-0.18312">
        <ele>102.7</ele>
        <time>2020-05-30T20:02:27Z</time>
      </trkpt>
      <trkpt lat="46.42771" lon="-0.18312">
        <ele>102.7</ele>
        <time>2020-05-30T20:02:28Z</time>
      </trkpt>
      <trkpt lat="46.42771" lon="-0.18312">
        <ele>102.7</ele>
        <time>2020-05-30T20:02:29Z</time>
      </trkpt>
      <trkpt lat="46.42771" lon="-0.18312">
        <ele>102.7</ele>
        <time>2020-05-30T20:02:30Z</time>
      </trkpt>
      <trkpt lat="46.42771" lon="-0.18312">
        <ele>102.7</ele>
        <time>2020-05-30T20:02:31Z</time>
      </trkpt>
      <trkpt lat="46.42771" lon="-0.18312">
        <ele>102.7</ele>
        <time>2020-05-30T20:02:32Z</time>
      </trkpt>
      <trkpt lat="46.42771" lon="-0.18312">
        <ele>102.7</ele>
        <time>2020-05-30T20:02:33Z</time>
      </trkpt>
      <trkpt lat="46.42771" lon="-0.18312">
        <ele>102.7</ele>
        <time>2020-05-30T20:02:34Z</time>
      </trkpt>
      <trkpt lat="46.42771" lon="-0.18312">
        <ele>102.7</ele>
        <time>2020-05-30T20:02:35Z</time>
      </trkpt>
      <trkpt lat="46.42771" lon="-0.18312">
        <ele>102.7</ele>
        <time>2020-05-30T20:02:36Z</time>
      </trkpt>
      <trkpt lat="46.42771" lon="-0.18312">
        <ele>102.7</ele>
        <time>2020-05-30T20:02:37Z</time>
      </trkpt>
      <trkpt lat="46.42771" lon="-0.18312">
        <ele>102.7</ele>
        <time>2020-05-30T20:02:38Z</time>
      </trkpt>
      <trkpt lat="46.42771" lon="-0.18312">
        <ele>102.7</ele>
        <time>2020-05-30T20:02:39Z</time>
      </trkpt>
      <trkpt lat="46.42771" lon="-0.18312">
        <ele>102.7</ele>
        <time>2020-05-30T20:02:40Z</time>
      </trkpt>
      <trkpt lat="46.42771" lon="-0.18312">
        <ele>102.7</ele>
        <time>2020-05-30T20:02:41Z</time>
      </trkpt>
      <trkpt lat="46.42771" lon="-0.18312">
        <ele>102.7</ele>
        <time>2020-05-30T20:02:42Z</time>
      </trkpt>
      <trkpt lat="46.42771" lon="-0.18312">
        <ele>102.7</ele>
        <time>2020-05-30T20:02:43Z</time>
      </trkpt>
      <trkpt lat="46.42771" lon="-0.18312">
        <ele>102.7</ele>
        <time>2020-05-30T20:02:44Z</time>
      </trkpt>
      <trkpt lat="46.42771" lon="-0.18312">
        <ele>102.7</ele>
        <time>2020-05-30T20:02:45Z</time>
      </trkpt>
      <trkpt lat="46.42771" lon="-0.18312">
        <ele>102.7</ele>
        <time>2020-05-30T20:02:46Z</time>
      </trkpt>
      <trkpt lat="46.42771" lon="-0.18312">
        <ele>102.7</ele>
        <time>2020-05-30T20:02:47Z</time>
      </trkpt>
      <trkpt lat="46.42771" lon="-0.18312">
        <ele>102.7</ele>
        <time>2020-05-30T20:02:48Z</time>
      </trkpt>
      <trkpt lat="46.42771" lon="-0.18312">
        <ele>102.7</ele>
        <time>2020-05-30T20:02:49Z</time>
      </trkpt>
      <trkpt lat="46.42771" lon="-0.18312">
        <ele>102.7</ele>
        <time>2020-05-30T20:02:50Z</time>
      </trkpt>
      <trkpt lat="46.42771" lon="-0.18312">
        <ele>102.7</ele>
        <time>2020-05-30T20:02:51Z</time>
      </trkpt>
      <trkpt lat="46.42771" lon="-0.18312">
        <ele>102.7</ele>
        <time>2020-05-30T20:02:52Z</time>
      </trkpt>
      <trkpt lat="46.42771" lon="-0.18312">
        <ele>102.7</ele>
        <time>2020-05-30T20:02:53Z</time>
      </trkpt>
      <trkpt lat="46.42771" lon="-0.18312">
        <ele>102.7</ele>
        <time>2020-05-30T20:02:54Z</time>
      </trkpt>
      <trkpt lat="46.42771" lon="-0.18312">
        <ele>102.7</ele>
        <time>2020-05-30T20:02:55Z</time>
      </trkpt>
      <trkpt lat="46.42771" lon="-0.18312">
        <ele>102.7</ele>
        <time>2020-05-30T20:02:56Z</time>
      </trkpt>
      <trkpt lat="46.42771" lon="-0.18312">
        <ele>102.7</ele>
        <time>2020-05-30T20:02:57Z</time>
      </trkpt>
      <trkpt lat="46.42771" lon="-0.18312">
        <ele>102.7</ele>
        <time>2020-05-30T20:02:58Z</time>
      </trkpt>
      <trkpt lat="46.42771" lon="-0.18312">
        <ele>102.7</ele>
        <time>2020-05-30T20:02:59Z</time>
      </trkpt>
      <trkpt lat="46.42771" lon="-0.18312">
        <ele>102.7</ele>
        <time>2020-05-30T20:03:00Z</time>
      </trkpt>
      <trkpt lat="46.42771" lon="-0.18312">
        <ele>102.7</ele>
        <time>2020-05-30T20:03:01Z</time>
      </trkpt>
      <trkpt lat="46.42771" lon="-0.18312">
        <ele>102.7</ele>
        <time>2020-05-30T20:03:02Z</time>
      </trkpt>
      <trkpt lat="46.42771" lon="-0.18312">
        <ele>102.7</ele>
        <time>2020-05-30T20:03:03Z</time>
      </trkpt>
      <trkpt lat="46.42771" lon="-0.18312">
        <ele>102.7</ele>
        <time>2020-05-30T20:03:04Z</time>
      </trkpt>
      <trkpt lat="46.42771" lon="-0.18312">
        <ele>102.7</ele>
        <time>2020-05-30T20:03:05Z</time>
      </trkpt>
      <trkpt lat="46.42771" lon="-0.18312">
        <ele>102.7</ele>
        <time>2020-05-30T20:03:06Z</time>
      </trkpt>
      <trkpt lat="46.42771" lon="-0.18312">
        <ele>102.7</ele>
        <time>2020-05-30T20:03:07Z</time>
      </trkpt>
      <trkpt lat="46.42771" lon="-0.18312">
        <ele>102.7</ele>
        <time>2020-05-30T20:03:08Z</time>
      </trkpt>
      <trkpt lat="46.42771" lon="-0.18312">
        <ele>102.7</ele>
        <time>2020-05-30T20:03:09Z</time>
      </trkpt>
      <trkpt lat="46.42771" lon="-0.18312">
        <ele>102.7</ele>
        <time>2020-05-30T20:03:10Z</time>
      </trkpt>
      <trkpt lat="46.42771" lon="-0.18312">
        <ele>102.7</ele>
        <time>2020-05-30T20:03:11Z</time>
      </trkpt>
      <trkpt lat="46.42771" lon="-0.18312">
        <ele>102.7</ele>
        <time>2020-05-30T20:03:12Z</time>
      </trkpt>
      <trkpt lat="46.42771" lon="-0.18312">
        <ele>102.7</ele>
        <time>2020-05-30T20:03:13Z</time>
      </trkpt>
      <trkpt lat="46.42771" lon="-0.18312">
        <ele>102.7</ele>
        <time>2020-05-30T20:03:14Z</time>
      </trkpt>
      <trkpt lat="46.42771" lon="-0.18312">
        <ele>102.7</ele>
        <time>2020-05-30T20:03:15Z</time>
      </trkpt>
      <trkpt lat="46.42771" lon="-0.18312">
        <ele>102.7</ele>
        <time>2020-05-30T20:03:16Z</time>
      </trkpt>
      <trkpt lat="46.42771" lon="-0.18312">
        <ele>102.7</ele>
        <time>2020-05-30T20:03:17Z</time>
      </trkpt>
      <trkpt lat="46.42771" lon="-0.18312">
        <ele>102.7</ele>
        <time>2020-05-30T20:03:18Z</time>
      </trkpt>
      <trkpt lat="46.42771" lon="-0.18312">
        <ele>102.7</ele>
        <time>2020-05-30T20:03:19Z</time>
      </trkpt>
      <trkpt lat="46.42771" lon="-0.18312">
        <ele>102.7</ele>
        <time>2020-05-30T20:03:20Z</time>
      </trkpt>
      <trkpt lat="46.42771" lon="-0.18312">
        <ele>102.7</ele>
        <time>2020-05-30T20:03:21Z</time>
      </trkpt>
      <trkpt lat="46.42771" lon="-0.18312">
        <ele>102.7</ele>
        <time>2020-05-30T20:03:22Z</time>
      </trkpt>
      <trkpt lat="46.42771" lon="-0.18312">
        <ele>102.7</ele>
        <time>2020-05-30T20:03:23Z</time>
      </trkpt>
      <trkpt lat="46.42771" lon="-0.18312">
        <ele>102.7</ele>
        <time>2020-05-30T20:03:24Z</time>
      </trkpt>
      <trkpt lat="46.42771" lon="-0.18312">
        <ele>102.7</ele>
        <time>2020-05-30T20:03:25Z</time>
      </trkpt>
      <trkpt lat="46.42771" lon="-0.18312">
        <ele>102.7</ele>
        <time>2020-05-30T20:03:26Z</time>
      </trkpt>
      <trkpt lat="46.42771" lon="-0.18312">
        <ele>102.7</ele>
        <time>2020-05-30T20:03:27Z</time>
      </trkpt>
      <trkpt lat="46.42771" lon="-0.18312">
        <ele>102.7</ele>
        <time>2020-05-30T20:03:28Z</time>
      </trkpt>
      <trkpt lat="46.42771" lon="-0.18312">
        <ele>102.7</ele>
        <time>2020-05-30T20:03:29Z</time>
      </trkpt>
      <trkpt lat="46.42771" lon="-0.18312">
        <ele>102.7</ele>
        <time>2020-05-30T20:03:30Z</time>
      </trkpt>
      <trkpt lat="46.42771" lon="-0.18312">
        <ele>102.7</ele>
        <time>2020-05-30T20:03:31Z</time>
      </trkpt>
      <trkpt lat="46.42771" lon="-0.18312">
        <ele>102.7</ele>
        <time>2020-05-30T20:03:32Z</time>
      </trkpt>
      <trkpt lat="46.42771" lon="-0.18312">
        <ele>102.7</ele>
        <time>2020-05-30T20:03:33Z</time>
      </trkpt>
      <trkpt lat="46.42771" lon="-0.18312">
        <ele>102.7</ele>
        <time>2020-05-30T20:03:34Z</time>
      </trkpt>
      <trkpt lat="46.42771" lon="-0.18312">
        <ele>102.7</ele>
        <time>2020-05-30T20:03:35Z</time>
      </trkpt>
      <trkpt lat="46.42771" lon="-0.18312">
        <ele>102.7</ele>
        <time>2020-05-30T20:03:36Z</time>
      </trkpt>
      <trkpt lat="46.42771" lon="-0.18312">
        <ele>102.7</ele>
        <time>2020-05-30T20:03:37Z</time>
      </trkpt>
      <trkpt lat="46.42771" lon="-0.18312">
        <ele>102.7</ele>
        <time>2020-05-30T20:03:38Z</time>
      </trkpt>
      <trkpt lat="46.42771" lon="-0.18312">
        <ele>102.7</ele>
        <time>2020-05-30T20:03:39Z</time>
      </trkpt>
      <trkpt lat="46.42771" lon="-0.18312">
        <ele>102.7</ele>
        <time>2020-05-30T20:03:40Z</time>
      </trkpt>
      <trkpt lat="46.42771" lon="-0.18312">
        <ele>102.7</ele>
        <time>2020-05-30T20:03:41Z</time>
      </trkpt>
      <trkpt lat="46.42771" lon="-0.18312">
        <ele>102.7</ele>
        <time>2020-05-30T20:03:42Z</time>
      </trkpt>
      <trkpt lat="46.42771" lon="-0.18312">
        <ele>102.7</ele>
        <time>2020-05-30T20:03:43Z</time>
      </trkpt>
      <trkpt lat="46.42771" lon="-0.18312">
        <ele>102.7</ele>
        <time>2020-05-30T20:03:44Z</time>
      </trkpt>
      <trkpt lat="46.42771" lon="-0.18312">
        <ele>102.7</ele>
        <time>2020-05-30T20:03:45Z</time>
      </trkpt>
      <trkpt lat="46.42771" lon="-0.18312">
        <ele>102.7</ele>
        <time>2020-05-30T20:03:46Z</time>
      </trkpt>
      <trkpt lat="46.42771" lon="-0.18312">
        <ele>102.7</ele>
        <time>2020-05-30T20:03:47Z</time>
      </trkpt>
      <trkpt lat="46.42771" lon="-0.18312">
        <ele>102.7</ele>
        <time>2020-05-30T20:03:48Z</time>
      </trkpt>
      <trkpt lat="46.42771" lon="-0.18312">
        <ele>102.7</ele>
        <time>2020-05-30T20:03:49Z</time>
      </trkpt>
      <trkpt lat="46.42771" lon="-0.18312">
        <ele>102.7</ele>
        <time>2020-05-30T20:03:50Z</time>
      </trkpt>
      <trkpt lat="46.42771" lon="-0.18312">
        <ele>102.7</ele>
        <time>2020-05-30T20:03:51Z</time>
      </trkpt>
      <trkpt lat="46.42771" lon="-0.18312">
        <ele>102.7</ele>
        <time>2020-05-30T20:03:52Z</time>
      </trkpt>
      <trkpt lat="46.42771" lon="-0.18312">
        <ele>102.7</ele>
        <time>2020-05-30T20:03:53Z</time>
      </trkpt>
      <trkpt lat="46.42771" lon="-0.18312">
        <ele>102.7</ele>
        <time>2020-05-30T20:03:54Z</time>
      </trkpt>
      <trkpt lat="46.42771" lon="-0.18312">
        <ele>102.7</ele>
        <time>2020-05-30T20:03:55Z</time>
      </trkpt>
      <trkpt lat="46.42771" lon="-0.18312">
        <ele>102.7</ele>
        <time>2020-05-30T20:03:56Z</time>
      </trkpt>
      <trkpt lat="46.42771" lon="-0.18312">
        <ele>102.7</ele>
        <time>2020-05-30T20:03:57Z</time>
      </trkpt>
      <trkpt lat="46.42771" lon="-0.18312">
        <ele>102.7</ele>
        <time>2020-05-30T20:03:58Z</time>
      </trkpt>
      <trkpt lat="46.42771" lon="-0.18312">
        <ele>102.7</ele>
        <time>2020-05-30T20:03:59Z</time>
      </trkpt>
      <trkpt lat="46.42771" lon="-0.18312">
        <ele>102.7</ele>
        <time>2020-05-30T20:04:00Z</time>
      </trkpt>
      <trkpt lat="46.42771" lon="-0.18312">
        <ele>102.7</ele>
        <time>2020-05-30T20:04:01Z</time>
      </trkpt>
      <trkpt lat="46.42771" lon="-0.18312">
        <ele>102.7</ele>
        <time>2020-05-30T20:04:02Z</time>
      </trkpt>
      <trkpt lat="46.42771" lon="-0.18312">
        <ele>102.7</ele>
        <time>2020-05-30T20:04:03Z</time>
      </trkpt>
      <trkpt lat="46.42771" lon="-0.18312">
        <ele>102.7</ele>
        <time>2020-05-30T20:04:04Z</time>
      </trkpt>
      <trkpt lat="46.42771" lon="-0.18312">
        <ele>102.7</ele>
        <time>2020-05-30T20:04:05Z</time>
      </trkpt>
      <trkpt lat="46.42771" lon="-0.18312">
        <ele>102.7</ele>
        <time>2020-05-30T20:04:06Z</time>
      </trkpt>
      <trkpt lat="46.42771" lon="-0.18312">
        <ele>102.7</ele>
        <time>2020-05-30T20:04:07Z</time>
      </trkpt>
      <trkpt lat="46.42771" lon="-0.18312">
        <ele>102.7</ele>
        <time>2020-05-30T20:04:08Z</time>
      </trkpt>
      <trkpt lat="46.42771" lon="-0.18312">
        <ele>102.7</ele>
        <time>2020-05-30T20:04:09Z</time>
      </trkpt>
      <trkpt lat="46.42771" lon="-0.18312">
        <ele>102.7</ele>
        <time>2020-05-30T20:04:10Z</time>
      </trkpt>
      <trkpt lat="46.42771" lon="-0.18312">
        <ele>102.7</ele>
        <time>2020-05-30T20:04:11Z</time>
      </trkpt>
      <trkpt lat="46.42771" lon="-0.18312">
        <ele>102.7</ele>
        <time>2020-05-30T20:04:12Z</time>
      </trkpt>
      <trkpt lat="46.42771" lon="-0.18312">
        <ele>102.7</ele>
        <time>2020-05-30T20:04:13Z</time>
      </trkpt>
      <trkpt lat="46.42771" lon="-0.18312">
        <ele>102.7</ele>
        <time>2020-05-30T20:04:14Z</time>
      </trkpt>
      <trkpt lat="46.42771" lon="-0.18312">
        <ele>102.7</ele>
        <time>2020-05-30T20:04:15Z</time>
      </trkpt>
      <trkpt lat="46.42771" lon="-0.18312">
        <ele>102.7</ele>
        <time>2020-05-30T20:04:16Z</time>
      </trkpt>
      <trkpt lat="46.42771" lon="-0.18312">
        <ele>102.7</ele>
        <time>2020-05-30T20:04:17Z</time>
      </trkpt>
      <trkpt lat="46.42771" lon="-0.18312">
        <ele>102.7</ele>
        <time>2020-05-30T20:04:18Z</time>
      </trkpt>
      <trkpt lat="46.42771" lon="-0.18312">
        <ele>102.7</ele>
        <time>2020-05-30T20:04:19Z</time>
      </trkpt>
      <trkpt lat="46.42771" lon="-0.18312">
        <ele>102.7</ele>
        <time>2020-05-30T20:04:20Z</time>
      </trkpt>
      <trkpt lat="46.42771" lon="-0.18312">
        <ele>102.7</ele>
        <time>2020-05-30T20:04:21Z</time>
      </trkpt>
      <trkpt lat="46.42771" lon="-0.18312">
        <ele>102.7</ele>
        <time>2020-05-30T20:04:22Z</time>
      </trkpt>
      <trkpt lat="46.42771" lon="-0.18312">
        <ele>102.7</ele>
        <time>2020-05-30T20:04:23Z</time>
      </trkpt>
      <trkpt lat="46.42771" lon="-0.18312">
        <ele>102.7</ele>
        <time>2020-05-30T20:04:24Z</time>
      </trkpt>
      <trkpt lat="46.42771" lon="-0.18312">
        <ele>102.7</ele>
        <time>2020-05-30T20:04:25Z</time>
      </trkpt>
      <trkpt lat="46.42771" lon="-0.18312">
        <ele>102.7</ele>
        <time>2020-05-30T20:04:26Z</time>
      </trkpt>
      <trkpt lat="46.42771" lon="-0.18312">
        <ele>102.7</ele>
        <time>2020-05-30T20:04:27Z</time>
      </trkpt>
      <trkpt lat="46.42771" lon="-0.18312">
        <ele>102.7</ele>
        <time>2020-05-30T20:04:28Z</time>
      </trkpt>
      <trkpt lat="46.42771" lon="-0.18312">
        <ele>102.7</ele>
        <time>2020-05-30T20:04:29Z</time>
      </trkpt>
      <trkpt lat="46.42771" lon="-0.18312">
        <ele>102.7</ele>
        <time>2020-05-30T20:04:30Z</time>
      </trkpt>
      <trkpt lat="46.42771" lon="-0.18312">
        <ele>102.7</ele>
        <time>2020-05-30T20:04:31Z</time>
      </trkpt>
      <trkpt lat="46.42771" lon="-0.18312">
        <ele>102.7</ele>
        <time>2020-05-30T20:04:32Z</time>
      </trkpt>
      <trkpt lat="46.42771" lon="-0.18312">
        <ele>102.7</ele>
        <time>2020-05-30T20:04:33Z</time>
      </trkpt>
      <trkpt lat="46.42771" lon="-0.18312">
        <ele>102.7</ele>
        <time>2020-05-30T20:04:34Z</time>
      </trkpt>
      <trkpt lat="46.42771" lon="-0.18312">
        <ele>102.7</ele>
        <time>2020-05-30T20:04:35Z</time>
      </trkpt>
      <trkpt lat="46.42771" lon="-0.18312">
        <ele>102.7</ele>
        <time>2020-05-30T20:04:36Z</time>
      </trkpt>
      <trkpt lat="46.42771" lon="-0.18312">
        <ele>102.7</ele>
        <time>2020-05-30T20:04:37Z</time>
      </trkpt>
      <trkpt lat="46.42771" lon="-0.18312">
        <ele>102.7</ele>
        <time>2020-05-30T20:04:38Z</time>
      </trkpt>
      <trkpt lat="46.42771" lon="-0.18312">
        <ele>102.7</ele>
        <time>2020-05-30T20:04:39Z</time>
      </trkpt>
      <trkpt lat="46.42771" lon="-0.18312">
        <ele>102.7</ele>
        <time>2020-05-30T20:04:40Z</time>
      </trkpt>
      <trkpt lat="46.42771" lon="-0.18312">
        <ele>102.7</ele>
        <time>2020-05-30T20:04:41Z</time>
      </trkpt>
      <trkpt lat="46.42771" lon="-0.18312">
        <ele>102.7</ele>
        <time>2020-05-30T20:04:42Z</time>
      </trkpt>
      <trkpt lat="46.42771" lon="-0.18312">
        <ele>102.7</ele>
        <time>2020-05-30T20:04:43Z</time>
      </trkpt>
      <trkpt lat="46.42771" lon="-0.18312">
        <ele>102.7</ele>
        <time>2020-05-30T20:04:44Z</time>
      </trkpt>
      <trkpt lat="46.42771" lon="-0.18312">
        <ele>102.7</ele>
        <time>2020-05-30T20:04:45Z</time>
      </trkpt>
      <trkpt lat="46.42771" lon="-0.18312">
        <ele>102.7</ele>
        <time>2020-05-30T20:04:46Z</time>
      </trkpt>
      <trkpt lat="46.42771" lon="-0.18312">
        <ele>102.7</ele>
        <time>2020-05-30T20:04:47Z</time>
      </trkpt>
      <trkpt lat="46.42771" lon="-0.18312">
        <ele>102.7</ele>
        <time>2020-05-30T20:04:48Z</time>
      </trkpt>
      <trkpt lat="46.42771" lon="-0.18312">
        <ele>102.7</ele>
        <time>2020-05-30T20:04:49Z</time>
      </trkpt>
      <trkpt lat="46.42771" lon="-0.18312">
        <ele>102.7</ele>
        <time>2020-05-30T20:04:50Z</time>
      </trkpt>
      <trkpt lat="46.42771" lon="-0.18312">
        <ele>102.7</ele>
        <time>2020-05-30T20:04:51Z</time>
      </trkpt>
      <trkpt lat="46.42771" lon="-0.18312">
        <ele>102.7</ele>
        <time>2020-05-30T20:04:52Z</time>
      </trkpt>
      <trkpt lat="46.42771" lon="-0.18312">
        <ele>102.7</ele>
        <time>2020-05-30T20:04:53Z</time>
      </trkpt>
      <trkpt lat="46.42771" lon="-0.18312">
        <ele>102.7</ele>
        <time>2020-05-30T20:04:54Z</time>
      </trkpt>
      <trkpt lat="46.42771" lon="-0.18312">
        <ele>102.7</ele>
        <time>2020-05-30T20:04:55Z</time>
      </trkpt>
      <trkpt lat="46.42771" lon="-0.18312">
        <ele>102.7</ele>
        <time>2020-05-30T20:04:56Z</time>
      </trkpt>
      <trkpt lat="46.42771" lon="-0.18312">
        <ele>102.7</ele>
        <time>2020-05-30T20:04:57Z</time>
      </trkpt>
      <trkpt lat="46.42771" lon="-0.18312">
        <ele>102.7</ele>
        <time>2020-05-30T20:04:58Z</time>
      </trkpt>
      <trkpt lat="46.42771" lon="-0.18312">
        <ele>102.7</ele>
        <time>2020-05-30T20:04:59Z</time>
      </trkpt>
      <trkpt lat="46.42771" lon="-0.18312">
        <ele>102.7</ele>
        <time>2020-05-30T20:05:00Z</time>
      </trkpt>
      <trkpt lat="46.42771" lon="-0.18312">
        <ele>102.7</ele>
        <time>2020-05-30T20:05:01Z</time>
      </trkpt>
      <trkpt lat="46.42771" lon="-0.18312">
        <ele>102.7</ele>
        <time>2020-05-30T20:05:02Z</time>
      </trkpt>
      <trkpt lat="46.42771" lon="-0.18312">
        <ele>102.7</ele>
        <time>2020-05-30T20:05:03Z</time>
      </trkpt>
      <trkpt lat="46.42771" lon="-0.18312">
        <ele>102.7</ele>
        <time>2020-05-30T20:05:04Z</time>
      </trkpt>
      <trkpt lat="46.42771" lon="-0.18312">
        <ele>102.7</ele>
        <time>2020-05-30T20:05:05Z</time>
      </trkpt>
      <trkpt lat="46.42771" lon="-0.18312">
        <ele>102.7</ele>
        <time>2020-05-30T20:05:06Z</time>
      </trkpt>
      <trkpt lat="46.42771" lon="-0.18312">
        <ele>102.7</ele>
        <time>2020-05-30T20:05:07Z</time>
      </trkpt>
      <trkpt lat="46.42771" lon="-0.18312">
        <ele>102.7</ele>
        <time>2020-05-30T20:05:08Z</time>
      </trkpt>
      <trkpt lat="46.42771" lon="-0.18312">
        <ele>102.7</ele>
        <time>2020-05-30T20:05:09Z</time>
      </trkpt>
      <trkpt lat="46.42771" lon="-0.18312">
        <ele>102.7</ele>
        <time>2020-05-30T20:05:10Z</time>
      </trkpt>
      <trkpt lat="46.42771" lon="-0.18312">
        <ele>102.7</ele>
        <time>2020-05-30T20:05:11Z</time>
      </trkpt>
      <trkpt lat="46.42771" lon="-0.18312">
        <ele>102.7</ele>
        <time>2020-05-30T20:05:12Z</time>
      </trkpt>
      <trkpt lat="46.42771" lon="-0.18312">
        <ele>102.7</ele>
        <time>2020-05-30T20:05:13Z</time>
      </trkpt>
      <trkpt lat="46.42771" lon="-0.18312">
        <ele>102.7</ele>
        <time>2020-05-30T20:05:14Z</time>
      </trkpt>
      <trkpt lat="46.42771" lon="-0.18312">
        <ele>102.7</ele>
        <time>2020-05-30T20:05:15Z</time>
      </trkpt>
      <trkpt lat="46.42771" lon="-0.18312">
        <ele>102.7</ele>
        <time>2020-05-30T20:05:16Z</time>
      </trkpt>
      <trkpt lat="46.42771" lon="-0.18312">
        <ele>102.7</ele>
        <time>2020-05-30T20:05:17Z</time>
      </trkpt>
      <trkpt lat="46.42771" lon="-0.18312">
        <ele>102.7</ele>
        <time>2020-05-30T20:05:18Z</time>
      </trkpt>
      <trkpt lat="46.42771" lon="-0.18312">
        <ele>102.7</ele>
        <time>2020-05-30T20:05:19Z</time>
      </trkpt>
      <trkpt lat="46.42771" lon="-0.18312">
        <ele>102.7</ele>
        <time>2020-05-30T20:05:20Z</time>
      </trkpt>
      <trkpt lat="46.42771" lon="-0.18312">
        <ele>102.7</ele>
        <time>2020-05-30T20:05:21Z</time>
      </trkpt>
      <trkpt lat="46.42771" lon="-0.18312">
        <ele>102.7</ele>
        <time>2020-05-30T20:05:22Z</time>
      </trkpt>
      <trkpt lat="46.42771" lon="-0.18312">
        <ele>102.7</ele>
        <time>2020-05-30T20:05:23Z</time>
      </trkpt>
      <trkpt lat="46.42771" lon="-0.18312">
        <ele>102.7</ele>
        <time>2020-05-30T20:05:24Z</time>
      </trkpt>
      <trkpt lat="46.42771" lon="-0.18312">
        <ele>102.7</ele>
        <time>2020-05-30T20:05:25Z</time>
      </trkpt>
      <trkpt lat="46.42771" lon="-0.18312">
        <ele>102.7</ele>
        <time>2020-05-30T20:05:26Z</time>
      </trkpt>
      <trkpt lat="46.42771" lon="-0.18312">
        <ele>102.7</ele>
        <time>2020-05-30T20:05:27Z</time>
      </trkpt>
      <trkpt lat="46.42771" lon="-0.18312">
        <ele>102.7</ele>
        <time>2020-05-30T20:05:28Z</time>
      </trkpt>
      <trkpt lat="46.42771" lon="-0.18312">
        <ele>102.7</ele>
        <time>2020-05-30T20:05:29Z</time>
      </trkpt>
      <trkpt lat="46.42771" lon="-0.18312">
        <ele>102.7</ele>
        <time>2020-05-30T20:05:30Z</time>
      </trkpt>
      <trkpt lat="46.42771" lon="-0.18312">
        <ele>102.7</ele>
        <time>2020-05-30T20:05:31Z</time>
      </trkpt>
      <trkpt lat="46.42771" lon="-0.18312">
        <ele>102.7</ele>
        <time>2020-05-30T20:05:32Z</time>
      </trkpt>
      <trkpt lat="46.42771" lon="-0.18312">
        <ele>102.7</ele>
        <time>2020-05-30T20:05:33Z</time>
      </trkpt>
      <trkpt lat="46.42771" lon="-0.18312">
        <ele>102.7</ele>
        <time>2020-05-30T20:05:34Z</time>
      </trkpt>
      <trkpt lat="46.42771" lon="-0.18312">
        <ele>102.7</ele>
        <time>2020-05-30T20:05:35Z</time>
      </trkpt>
      <trkpt lat="46.42771" lon="-0.18312">
        <ele>102.7</ele>
        <time>2020-05-30T20:05:36Z</time>
      </trkpt>
      <trkpt lat="46.42771" lon="-0.18312">
        <ele>102.7</ele>
        <time>2020-05-30T20:05:37Z</time>
      </trkpt>
      <trkpt lat="46.42769" lon="-0.18312">
        <ele>102.7</ele>
        <time>2020-05-30T20:05:38Z</time>
      </trkpt>
      <trkpt lat="46.42769" lon="-0.18312">
        <ele>102.7</ele>
        <time>2020-05-30T20:05:39Z</time>
      </trkpt>
      <trkpt lat="46.42768" lon="-0.18311">
        <ele>102.7</ele>
        <time>2020-05-30T20:05:40Z</time>
      </trkpt>
      <trkpt lat="46.42768" lon="-0.1831">
        <ele>102.7</ele>
        <time>2020-05-30T20:05:41Z</time>
      </trkpt>
      <trkpt lat="46.42768" lon="-0.18308">
        <ele>102.7</ele>
        <time>2020-05-30T20:05:42Z</time>
      </trkpt>
      <trkpt lat="46.42769" lon="-0.18308">
        <ele>102.7</ele>
        <time>2020-05-30T20:05:43Z</time>
      </trkpt>
      <trkpt lat="46.42768" lon="-0.18308">
        <ele>102.7</ele>
        <time>2020-05-30T20:05:44Z</time>
      </trkpt>
      <trkpt lat="46.42768" lon="-0.18308">
        <ele>102.7</ele>
        <time>2020-05-30T20:05:45Z</time>
      </trkpt>
      <trkpt lat="46.42768" lon="-0.18308">
        <ele>102.7</ele>
        <time>2020-05-30T20:05:46Z</time>
      </trkpt>
      <trkpt lat="46.42768" lon="-0.18308">
        <ele>102.7</ele>
        <time>2020-05-30T20:05:47Z</time>
      </trkpt>
      <trkpt lat="46.42768" lon="-0.18308">
        <ele>102.7</ele>
        <time>2020-05-30T20:05:48Z</time>
      </trkpt>
      <trkpt lat="46.42769" lon="-0.18308">
        <ele>102.6</ele>
        <time>2020-05-30T20:05:49Z</time>
      </trkpt>
      <trkpt lat="46.42769" lon="-0.18308">
        <ele>102.6</ele>
        <time>2020-05-30T20:05:50Z</time>
      </trkpt>
      <trkpt lat="46.42769" lon="-0.18308">
        <ele>102.6</ele>
        <time>2020-05-30T20:05:51Z</time>
      </trkpt>
      <trkpt lat="46.42768" lon="-0.18307">
        <ele>102.6</ele>
        <time>2020-05-30T20:05:52Z</time>
      </trkpt>
      <trkpt lat="46.42768" lon="-0.18307">
        <ele>102.6</ele>
        <time>2020-05-30T20:05:53Z</time>
      </trkpt>
      <trkpt lat="46.42769" lon="-0.18307">
        <ele>102.6</ele>
        <time>2020-05-30T20:05:54Z</time>
      </trkpt>
      <trkpt lat="46.42769" lon="-0.18307">
        <ele>102.6</ele>
        <time>2020-05-30T20:05:55Z</time>
      </trkpt>
      <trkpt lat="46.42769" lon="-0.18307">
        <ele>102.6</ele>
        <time>2020-05-30T20:05:56Z</time>
      </trkpt>
      <trkpt lat="46.42769" lon="-0.18307">
        <ele>102.6</ele>
        <time>2020-05-30T20:05:57Z</time>
      </trkpt>
      <trkpt lat="46.42769" lon="-0.18307">
        <ele>102.6</ele>
        <time>2020-05-30T20:05:58Z</time>
      </trkpt>
      <trkpt lat="46.42769" lon="-0.18307">
        <ele>102.6</ele>
        <time>2020-05-30T20:05:59Z</time>
      </trkpt>
      <trkpt lat="46.42768" lon="-0.18306">
        <ele>102.6</ele>
        <time>2020-05-30T20:06:00Z</time>
      </trkpt>
      <trkpt lat="46.42768" lon="-0.18305">
        <ele>102.6</ele>
        <time>2020-05-30T20:06:01Z</time>
      </trkpt>
      <trkpt lat="46.42768" lon="-0.18305">
        <ele>102.6</ele>
        <time>2020-05-30T20:06:02Z</time>
      </trkpt>
      <trkpt lat="46.42768" lon="-0.18304">
        <ele>102.6</ele>
        <time>2020-05-30T20:06:03Z</time>
      </trkpt>
      <trkpt lat="46.42768" lon="-0.18303">
        <ele>102.6</ele>
        <time>2020-05-30T20:06:04Z</time>
      </trkpt>
      <trkpt lat="46.42768" lon="-0.18303">
        <ele>102.6</ele>
        <time>2020-05-30T20:06:05Z</time>
      </trkpt>
      <trkpt lat="46.42768" lon="-0.18303">
        <ele>102.6</ele>
        <time>2020-05-30T20:06:06Z</time>
      </trkpt>
      <trkpt lat="46.42768" lon="-0.18303">
        <ele>102.6</ele>
        <time>2020-05-30T20:06:07Z</time>
      </trkpt>
      <trkpt lat="46.42768" lon="-0.18303">
        <ele>102.6</ele>
        <time>2020-05-30T20:06:08Z</time>
      </trkpt>
      <trkpt lat="46.42768" lon="-0.18303">
        <ele>102.6</ele>
        <time>2020-05-30T20:06:09Z</time>
      </trkpt>
      <trkpt lat="46.42767" lon="-0.18302">
        <ele>102.6</ele>
        <time>2020-05-30T20:06:10Z</time>
      </trkpt>
      <trkpt lat="46.42766" lon="-0.18302">
        <ele>102.6</ele>
        <time>2020-05-30T20:06:11Z</time>
      </trkpt>
      <trkpt lat="46.42766" lon="-0.18301">
        <ele>102.6</ele>
        <time>2020-05-30T20:06:12Z</time>
      </trkpt>
      <trkpt lat="46.42766" lon="-0.18301">
        <ele>102.6</ele>
        <time>2020-05-30T20:06:13Z</time>
      </trkpt>
      <trkpt lat="46.42766" lon="-0.18301">
        <ele>102.6</ele>
        <time>2020-05-30T20:06:14Z</time>
      </trkpt>
      <trkpt lat="46.42766" lon="-0.18301">
        <ele>102.6</ele>
        <time>2020-05-30T20:06:15Z</time>
      </trkpt>
      <trkpt lat="46.42765" lon="-0.183">
        <ele>102.6</ele>
        <time>2020-05-30T20:06:16Z</time>
      </trkpt>
      <trkpt lat="46.42764" lon="-0.183">
        <ele>102.6</ele>
        <time>2020-05-30T20:06:17Z</time>
      </trkpt>
      <trkpt lat="46.42764" lon="-0.183">
        <ele>102.6</ele>
        <time>2020-05-30T20:06:18Z</time>
      </trkpt>
      <trkpt lat="46.42764" lon="-0.183">
        <ele>102.6</ele>
        <time>2020-05-30T20:06:19Z</time>
      </trkpt>
      <trkpt lat="46.42764" lon="-0.183">
        <ele>102.6</ele>
        <time>2020-05-30T20:06:20Z</time>
      </trkpt>
      <trkpt lat="46.42764" lon="-0.183">
        <ele>102.6</ele>
        <time>2020-05-30T20:06:21Z</time>
      </trkpt>
      <trkpt lat="46.42764" lon="-0.183">
        <ele>102.6</ele>
        <time>2020-05-30T20:06:22Z</time>
      </trkpt>
      <trkpt lat="46.42764" lon="-0.18301">
        <ele>102.6</ele>
        <time>2020-05-30T20:06:23Z</time>
      </trkpt>
      <trkpt lat="46.42765" lon="-0.18301">
        <ele>102.6</ele>
        <time>2020-05-30T20:06:24Z</time>
      </trkpt>
      <trkpt lat="46.42765" lon="-0.18301">
        <ele>102.6</ele>
        <time>2020-05-30T20:06:25Z</time>
      </trkpt>
      <trkpt lat="46.42765" lon="-0.18301">
        <ele>102.6</ele>
        <time>2020-05-30T20:06:26Z</time>
      </trkpt>
      <trkpt lat="46.42765" lon="-0.18301">
        <ele>102.6</ele>
        <time>2020-05-30T20:06:27Z</time>
      </trkpt>
      <trkpt lat="46.42765" lon="-0.18302">
        <ele>102.6</ele>
        <time>2020-05-30T20:06:28Z</time>
      </trkpt>
      <trkpt lat="46.42765" lon="-0.18302">
        <ele>102.6</ele>
        <time>2020-05-30T20:06:29Z</time>
      </trkpt>
      <trkpt lat="46.42765" lon="-0.18302">
        <ele>102.6</ele>
        <time>2020-05-30T20:06:30Z</time>
      </trkpt>
      <trkpt lat="46.42765" lon="-0.18302">
        <ele>102.6</ele>
        <time>2020-05-30T20:06:31Z</time>
      </trkpt>
      <trkpt lat="46.42766" lon="-0.18303">
        <ele>102.6</ele>
        <time>2020-05-30T20:06:32Z</time>
      </trkpt>
      <trkpt lat="46.42767" lon="-0.18303">
        <ele>102.6</ele>
        <time>2020-05-30T20:06:33Z</time>
      </trkpt>
      <trkpt lat="46.42767" lon="-0.18304">
        <ele>102.6</ele>
        <time>2020-05-30T20:06:34Z</time>
      </trkpt>
      <trkpt lat="46.42767" lon="-0.18304">
        <ele>102.6</ele>
        <time>2020-05-30T20:06:35Z</time>
      </trkpt>
      <trkpt lat="46.42767" lon="-0.18304">
        <ele>102.6</ele>
        <time>2020-05-30T20:06:36Z</time>
      </trkpt>
      <trkpt lat="46.42767" lon="-0.18304">
        <ele>102.6</ele>
        <time>2020-05-30T20:06:37Z</time>
      </trkpt>
      <trkpt lat="46.42767" lon="-0.18304">
        <ele>102.6</ele>
        <time>2020-05-30T20:06:38Z</time>
      </trkpt>
      <trkpt lat="46.42768" lon="-0.18304">
        <ele>102.6</ele>
        <time>2020-05-30T20:06:39Z</time>
      </trkpt>
      <trkpt lat="46.42767" lon="-0.18304">
        <ele>102.6</ele>
        <time>2020-05-30T20:06:40Z</time>
      </trkpt>
      <trkpt lat="46.42767" lon="-0.18305">
        <ele>102.6</ele>
        <time>2020-05-30T20:06:41Z</time>
      </trkpt>
      <trkpt lat="46.42767" lon="-0.18305">
        <ele>102.6</ele>
        <time>2020-05-30T20:06:42Z</time>
      </trkpt>
      <trkpt lat="46.42767" lon="-0.18305">
        <ele>102.6</ele>
        <time>2020-05-30T20:06:43Z</time>
      </trkpt>
      <trkpt lat="46.42767" lon="-0.18305">
        <ele>102.6</ele>
        <time>2020-05-30T20:06:44Z</time>
      </trkpt>
      <trkpt lat="46.42767" lon="-0.18305">
        <ele>102.6</ele>
        <time>2020-05-30T20:06:45Z</time>
      </trkpt>
      <trkpt lat="46.42767" lon="-0.18305">
        <ele>102.6</ele>
        <time>2020-05-30T20:06:46Z</time>
      </trkpt>
      <trkpt lat="46.42767" lon="-0.18305">
        <ele>102.6</ele>
        <time>2020-05-30T20:06:47Z</time>
      </trkpt>
      <trkpt lat="46.42767" lon="-0.18306">
        <ele>102.6</ele>
        <time>2020-05-30T20:06:48Z</time>
      </trkpt>
      <trkpt lat="46.42766" lon="-0.18306">
        <ele>102.6</ele>
        <time>2020-05-30T20:06:49Z</time>
      </trkpt>
      <trkpt lat="46.42766" lon="-0.18306">
        <ele>102.6</ele>
        <time>2020-05-30T20:06:50Z</time>
      </trkpt>
      <trkpt lat="46.42765" lon="-0.18306">
        <ele>102.6</ele>
        <time>2020-05-30T20:06:51Z</time>
      </trkpt>
      <trkpt lat="46.42765" lon="-0.18306">
        <ele>102.6</ele>
        <time>2020-05-30T20:06:52Z</time>
      </trkpt>
      <trkpt lat="46.42765" lon="-0.18306">
        <ele>102.6</ele>
        <time>2020-05-30T20:06:53Z</time>
      </trkpt>
      <trkpt lat="46.42765" lon="-0.18306">
        <ele>102.6</ele>
        <time>2020-05-30T20:06:54Z</time>
      </trkpt>
      <trkpt lat="46.42765" lon="-0.18306">
        <ele>102.6</ele>
        <time>2020-05-30T20:06:55Z</time>
      </trkpt>
      <trkpt lat="46.42765" lon="-0.18306">
        <ele>102.6</ele>
        <time>2020-05-30T20:06:56Z</time>
      </trkpt>
      <trkpt lat="46.42765" lon="-0.18306">
        <ele>102.6</ele>
        <time>2020-05-30T20:06:57Z</time>
      </trkpt>
      <trkpt lat="46.42765" lon="-0.18306">
        <ele>102.6</ele>
        <time>2020-05-30T20:06:58Z</time>
      </trkpt>
      <trkpt lat="46.42765" lon="-0.18306">
        <ele>102.6</ele>
        <time>2020-05-30T20:06:59Z</time>
      </trkpt>
      <trkpt lat="46.42765" lon="-0.18306">
        <ele>102.6</ele>
        <time>2020-05-30T20:07:00Z</time>
      </trkpt>
      <trkpt lat="46.42765" lon="-0.18306">
        <ele>102.6</ele>
        <time>2020-05-30T20:07:01Z</time>
      </trkpt>
      <trkpt lat="46.42765" lon="-0.18306">
        <ele>102.6</ele>
        <time>2020-05-30T20:07:02Z</time>
      </trkpt>
      <trkpt lat="46.42765" lon="-0.18306">
        <ele>102.6</ele>
        <time>2020-05-30T20:07:03Z</time>
      </trkpt>
      <trkpt lat="46.42765" lon="-0.18306">
        <ele>102.6</ele>
        <time>2020-05-30T20:07:04Z</time>
      </trkpt>
      <trkpt lat="46.42765" lon="-0.18307">
        <ele>102.6</ele>
        <time>2020-05-30T20:07:05Z</time>
      </trkpt>
      <trkpt lat="46.42765" lon="-0.18307">
        <ele>102.6</ele>
        <time>2020-05-30T20:07:06Z</time>
      </trkpt>
      <trkpt lat="46.42765" lon="-0.18307">
        <ele>102.6</ele>
        <time>2020-05-30T20:07:07Z</time>
      </trkpt>
      <trkpt lat="46.42765" lon="-0.18307">
        <ele>102.6</ele>
        <time>2020-05-30T20:07:08Z</time>
      </trkpt>
      <trkpt lat="46.42765" lon="-0.18308">
        <ele>102.6</ele>
        <time>2020-05-30T20:07:09Z</time>
      </trkpt>
      <trkpt lat="46.42765" lon="-0.18308">
        <ele>102.6</ele>
        <time>2020-05-30T20:07:10Z</time>
      </trkpt>
      <trkpt lat="46.42765" lon="-0.18308">
        <ele>102.6</ele>
        <time>2020-05-30T20:07:11Z</time>
      </trkpt>
      <trkpt lat="46.42766" lon="-0.18308">
        <ele>102.6</ele>
        <time>2020-05-30T20:07:12Z</time>
      </trkpt>
      <trkpt lat="46.42766" lon="-0.18308">
        <ele>102.6</ele>
        <time>2020-05-30T20:07:13Z</time>
      </trkpt>
      <trkpt lat="46.42766" lon="-0.18308">
        <ele>102.6</ele>
        <time>2020-05-30T20:07:14Z</time>
      </trkpt>
      <trkpt lat="46.42766" lon="-0.18308">
        <ele>102.6</ele>
        <time>2020-05-30T20:07:15Z</time>
      </trkpt>
      <trkpt lat="46.42766" lon="-0.18308">
        <ele>102.6</ele>
        <time>2020-05-30T20:07:16Z</time>
      </trkpt>
      <trkpt lat="46.42766" lon="-0.18308">
        <ele>102.6</ele>
        <time>2020-05-30T20:07:17Z</time>
      </trkpt>
      <trkpt lat="46.42766" lon="-0.18309">
        <ele>102.6</ele>
        <time>2020-05-30T20:07:18Z</time>
      </trkpt>
      <trkpt lat="46.42766" lon="-0.18309">
        <ele>102.6</ele>
        <time>2020-05-30T20:07:19Z</time>
      </trkpt>
      <trkpt lat="46.42766" lon="-0.18309">
        <ele>102.6</ele>
        <time>2020-05-30T20:07:20Z</time>
      </trkpt>
      <trkpt lat="46.42766" lon="-0.18309">
        <ele>102.6</ele>
        <time>2020-05-30T20:07:21Z</time>
      </trkpt>
      <trkpt lat="46.42766" lon="-0.18308">
        <ele>102.6</ele>
        <time>2020-05-30T20:07:22Z</time>
      </trkpt>
      <trkpt lat="46.42766" lon="-0.18308">
        <ele>102.6</ele>
        <time>2020-05-30T20:07:23Z</time>
      </trkpt>
      <trkpt lat="46.42766" lon="-0.18308">
        <ele>102.6</ele>
        <time>2020-05-30T20:07:24Z</time>
      </trkpt>
      <trkpt lat="46.42766" lon="-0.18308">
        <ele>102.6</ele>
        <time>2020-05-30T20:07:25Z</time>
      </trkpt>
      <trkpt lat="46.42766" lon="-0.18308">
        <ele>102.6</ele>
        <time>2020-05-30T20:07:26Z</time>
      </trkpt>
      <trkpt lat="46.42766" lon="-0.18308">
        <ele>102.6</ele>
        <time>2020-05-30T20:07:27Z</time>
      </trkpt>
      <trkpt lat="46.42766" lon="-0.18307">
        <ele>102.6</ele>
        <time>2020-05-30T20:07:28Z</time>
      </trkpt>
      <trkpt lat="46.42766" lon="-0.18307">
        <ele>102.6</ele>
        <time>2020-05-30T20:07:29Z</time>
      </trkpt>
      <trkpt lat="46.42766" lon="-0.18307">
        <ele>102.6</ele>
        <time>2020-05-30T20:07:30Z</time>
      </trkpt>
      <trkpt lat="46.42766" lon="-0.18307">
        <ele>102.6</ele>
        <time>2020-05-30T20:07:31Z</time>
      </trkpt>
      <trkpt lat="46.42765" lon="-0.18307">
        <ele>102.6</ele>
        <time>2020-05-30T20:07:32Z</time>
      </trkpt>
      <trkpt lat="46.42765" lon="-0.18307">
        <ele>102.6</ele>
        <time>2020-05-30T20:07:33Z</time>
      </trkpt>
      <trkpt lat="46.42765" lon="-0.18308">
        <ele>102.6</ele>
        <time>2020-05-30T20:07:34Z</time>
      </trkpt>
      <trkpt lat="46.42766" lon="-0.18308">
        <ele>102.6</ele>
        <time>2020-05-30T20:07:35Z</time>
      </trkpt>
      <trkpt lat="46.42767" lon="-0.1831">
        <ele>102.6</ele>
        <time>2020-05-30T20:07:36Z</time>
      </trkpt>
      <trkpt lat="46.42767" lon="-0.1831">
        <ele>102.6</ele>
        <time>2020-05-30T20:07:37Z</time>
      </trkpt>
      <trkpt lat="46.42767" lon="-0.1831">
        <ele>102.6</ele>
        <time>2020-05-30T20:07:38Z</time>
      </trkpt>
      <trkpt lat="46.42767" lon="-0.1831">
        <ele>102.6</ele>
        <time>2020-05-30T20:07:39Z</time>
      </trkpt>
      <trkpt lat="46.42767" lon="-0.18309">
        <ele>102.6</ele>
        <time>2020-05-30T20:07:40Z</time>
      </trkpt>
      <trkpt lat="46.42767" lon="-0.18309">
        <ele>102.6</ele>
        <time>2020-05-30T20:07:41Z</time>
      </trkpt>
      <trkpt lat="46.42767" lon="-0.18309">
        <ele>102.6</ele>
        <time>2020-05-30T20:07:42Z</time>
      </trkpt>
      <trkpt lat="46.42767" lon="-0.18309">
        <ele>102.6</ele>
        <time>2020-05-30T20:07:43Z</time>
      </trkpt>
      <trkpt lat="46.42767" lon="-0.18309">
        <ele>102.6</ele>
        <time>2020-05-30T20:07:44Z</time>
      </trkpt>
      <trkpt lat="46.42767" lon="-0.18309">
        <ele>102.6</ele>
        <time>2020-05-30T20:07:45Z</time>
      </trkpt>
      <trkpt lat="46.42768" lon="-0.18309">
        <ele>102.6</ele>
        <time>2020-05-30T20:07:46Z</time>
      </trkpt>
      <trkpt lat="46.42768" lon="-0.18309">
        <ele>102.6</ele>
        <time>2020-05-30T20:07:47Z</time>
      </trkpt>
      <trkpt lat="46.42769" lon="-0.18308">
        <ele>102.6</ele>
        <time>2020-05-30T20:07:48Z</time>
      </trkpt>
      <trkpt lat="46.4277" lon="-0.18307">
        <ele>102.6</ele>
        <time>2020-05-30T20:07:49Z</time>
      </trkpt>
      <trkpt lat="46.4277" lon="-0.18307">
        <ele>102.6</ele>
        <time>2020-05-30T20:07:50Z</time>
      </trkpt>
      <trkpt lat="46.4277" lon="-0.18307">
        <ele>102.6</ele>
        <time>2020-05-30T20:07:51Z</time>
      </trkpt>
      <trkpt lat="46.4277" lon="-0.18307">
        <ele>102.6</ele>
        <time>2020-05-30T20:07:52Z</time>
      </trkpt>
      <trkpt lat="46.4277" lon="-0.18307">
        <ele>102.6</ele>
        <time>2020-05-30T20:07:53Z</time>
      </trkpt>
      <trkpt lat="46.4277" lon="-0.18307">
        <ele>102.6</ele>
        <time>2020-05-30T20:07:54Z</time>
      </trkpt>
      <trkpt lat="46.4277" lon="-0.18307">
        <ele>102.6</ele>
        <time>2020-05-30T20:07:55Z</time>
      </trkpt>
      <trkpt lat="46.4277" lon="-0.18308">
        <ele>102.6</ele>
        <time>2020-05-30T20:07:56Z</time>
      </trkpt>
      <trkpt lat="46.4277" lon="-0.18308">
        <ele>102.6</ele>
        <time>2020-05-30T20:07:57Z</time>
      </trkpt>
      <trkpt lat="46.4277" lon="-0.18308">
        <ele>102.6</ele>
        <time>2020-05-30T20:07:58Z</time>
      </trkpt>
      <trkpt lat="46.4277" lon="-0.18307">
        <ele>102.6</ele>
        <time>2020-05-30T20:07:59Z</time>
      </trkpt>
      <trkpt lat="46.4277" lon="-0.18307">
        <ele>102.6</ele>
        <time>2020-05-30T20:08:00Z</time>
      </trkpt>
      <trkpt lat="46.42771" lon="-0.18306">
        <ele>102.6</ele>
        <time>2020-05-30T20:08:01Z</time>
      </trkpt>
      <trkpt lat="46.42771" lon="-0.18306">
        <ele>102.6</ele>
        <time>2020-05-30T20:08:02Z</time>
      </trkpt>
      <trkpt lat="46.42771" lon="-0.18306">
        <ele>102.6</ele>
        <time>2020-05-30T20:08:03Z</time>
      </trkpt>
      <trkpt lat="46.42771" lon="-0.18306">
        <ele>102.6</ele>
        <time>2020-05-30T20:08:04Z</time>
      </trkpt>
      <trkpt lat="46.42771" lon="-0.18306">
        <ele>102.6</ele>
        <time>2020-05-30T20:08:05Z</time>
      </trkpt>
      <trkpt lat="46.42771" lon="-0.18306">
        <ele>102.6</ele>
        <time>2020-05-30T20:08:06Z</time>
      </trkpt>
      <trkpt lat="46.42771" lon="-0.18306">
        <ele>102.6</ele>
        <time>2020-05-30T20:08:07Z</time>
      </trkpt>
      <trkpt lat="46.4277" lon="-0.18307">
        <ele>102.6</ele>
        <time>2020-05-30T20:08:08Z</time>
      </trkpt>
      <trkpt lat="46.4277" lon="-0.18306">
        <ele>102.6</ele>
        <time>2020-05-30T20:08:09Z</time>
      </trkpt>
      <trkpt lat="46.42769" lon="-0.18306">
        <ele>102.6</ele>
        <time>2020-05-30T20:08:10Z</time>
      </trkpt>
      <trkpt lat="46.42769" lon="-0.18306">
        <ele>102.6</ele>
        <time>2020-05-30T20:08:11Z</time>
      </trkpt>
      <trkpt lat="46.4277" lon="-0.18306">
        <ele>102.6</ele>
        <time>2020-05-30T20:08:12Z</time>
      </trkpt>
      <trkpt lat="46.4277" lon="-0.18306">
        <ele>102.6</ele>
        <time>2020-05-30T20:08:13Z</time>
      </trkpt>
      <trkpt lat="46.4277" lon="-0.18306">
        <ele>102.6</ele>
        <time>2020-05-30T20:08:14Z</time>
      </trkpt>
      <trkpt lat="46.42769" lon="-0.18306">
        <ele>102.6</ele>
        <time>2020-05-30T20:08:15Z</time>
      </trkpt>
      <trkpt lat="46.42769" lon="-0.18306">
        <ele>102.6</ele>
        <time>2020-05-30T20:08:16Z</time>
      </trkpt>
      <trkpt lat="46.42769" lon="-0.18306">
        <ele>102.6</ele>
        <time>2020-05-30T20:08:17Z</time>
      </trkpt>
      <trkpt lat="46.42769" lon="-0.18306">
        <ele>102.6</ele>
        <time>2020-05-30T20:08:18Z</time>
      </trkpt>
      <trkpt lat="46.42769" lon="-0.18306">
        <ele>102.6</ele>
        <time>2020-05-30T20:08:19Z</time>
      </trkpt>
      <trkpt lat="46.42769" lon="-0.18306">
        <ele>102.6</ele>
        <time>2020-05-30T20:08:20Z</time>
      </trkpt>
      <trkpt lat="46.42769" lon="-0.18306">
        <ele>102.6</ele>
        <time>2020-05-30T20:08:21Z</time>
      </trkpt>
      <trkpt lat="46.42769" lon="-0.18306">
        <ele>102.6</ele>
        <time>2020-05-30T20:08:22Z</time>
      </trkpt>
      <trkpt lat="46.42769" lon="-0.18306">
        <ele>102.6</ele>
        <time>2020-05-30T20:08:23Z</time>
      </trkpt>
      <trkpt lat="46.42769" lon="-0.18306">
        <ele>102.6</ele>
        <time>2020-05-30T20:08:24Z</time>
      </trkpt>
      <trkpt lat="46.42769" lon="-0.18306">
        <ele>102.6</ele>
        <time>2020-05-30T20:08:25Z</time>
      </trkpt>
      <trkpt lat="46.42769" lon="-0.18306">
        <ele>102.6</ele>
        <time>2020-05-30T20:08:26Z</time>
      </trkpt>
      <trkpt lat="46.42769" lon="-0.18306">
        <ele>102.6</ele>
        <time>2020-05-30T20:08:27Z</time>
      </trkpt>
      <trkpt lat="46.4277" lon="-0.18305">
        <ele>102.6</ele>
        <time>2020-05-30T20:08:28Z</time>
      </trkpt>
      <trkpt lat="46.4277" lon="-0.18305">
        <ele>102.6</ele>
        <time>2020-05-30T20:08:29Z</time>
      </trkpt>
      <trkpt lat="46.42771" lon="-0.18305">
        <ele>102.6</ele>
        <time>2020-05-30T20:08:30Z</time>
      </trkpt>
      <trkpt lat="46.42772" lon="-0.18304">
        <ele>102.6</ele>
        <time>2020-05-30T20:08:31Z</time>
      </trkpt>
      <trkpt lat="46.42772" lon="-0.18304">
        <ele>102.6</ele>
        <time>2020-05-30T20:08:32Z</time>
      </trkpt>
      <trkpt lat="46.42772" lon="-0.18304">
        <ele>102.6</ele>
        <time>2020-05-30T20:08:33Z</time>
      </trkpt>
      <trkpt lat="46.42772" lon="-0.18304">
        <ele>102.6</ele>
        <time>2020-05-30T20:08:34Z</time>
      </trkpt>
      <trkpt lat="46.42772" lon="-0.18304">
        <ele>102.6</ele>
        <time>2020-05-30T20:08:35Z</time>
      </trkpt>
      <trkpt lat="46.42771" lon="-0.18305">
        <ele>102.6</ele>
        <time>2020-05-30T20:08:36Z</time>
      </trkpt>
      <trkpt lat="46.42771" lon="-0.18305">
        <ele>102.6</ele>
        <time>2020-05-30T20:08:37Z</time>
      </trkpt>
      <trkpt lat="46.42772" lon="-0.18305">
        <ele>102.6</ele>
        <time>2020-05-30T20:08:38Z</time>
      </trkpt>
      <trkpt lat="46.42772" lon="-0.18305">
        <ele>102.6</ele>
        <time>2020-05-30T20:08:39Z</time>
      </trkpt>
      <trkpt lat="46.42772" lon="-0.18306">
        <ele>102.6</ele>
        <time>2020-05-30T20:08:40Z</time>
      </trkpt>
      <trkpt lat="46.42772" lon="-0.18305">
        <ele>102.6</ele>
        <time>2020-05-30T20:08:41Z</time>
      </trkpt>
      <trkpt lat="46.42772" lon="-0.18304">
        <ele>102.6</ele>
        <time>2020-05-30T20:08:42Z</time>
      </trkpt>
      <trkpt lat="46.42772" lon="-0.18303">
        <ele>102.6</ele>
        <time>2020-05-30T20:08:43Z</time>
      </trkpt>
      <trkpt lat="46.42772" lon="-0.18303">
        <ele>102.6</ele>
        <time>2020-05-30T20:08:44Z</time>
      </trkpt>
      <trkpt lat="46.42772" lon="-0.18303">
        <ele>102.6</ele>
        <time>2020-05-30T20:08:45Z</time>
      </trkpt>
      <trkpt lat="46.42773" lon="-0.18303">
        <ele>102.6</ele>
        <time>2020-05-30T20:08:46Z</time>
      </trkpt>
      <trkpt lat="46.42773" lon="-0.18303">
        <ele>102.6</ele>
        <time>2020-05-30T20:08:47Z</time>
      </trkpt>
      <trkpt lat="46.42773" lon="-0.18303">
        <ele>102.6</ele>
        <time>2020-05-30T20:08:48Z</time>
      </trkpt>
      <trkpt lat="46.42773" lon="-0.18303">
        <ele>102.6</ele>
        <time>2020-05-30T20:08:49Z</time>
      </trkpt>
      <trkpt lat="46.42772" lon="-0.18303">
        <ele>102.6</ele>
        <time>2020-05-30T20:08:50Z</time>
      </trkpt>
      <trkpt lat="46.42772" lon="-0.18302">
        <ele>102.5</ele>
        <time>2020-05-30T20:08:51Z</time>
      </trkpt>
      <trkpt lat="46.42772" lon="-0.18302">
        <ele>102.5</ele>
        <time>2020-05-30T20:08:52Z</time>
      </trkpt>
      <trkpt lat="46.42771" lon="-0.18301">
        <ele>102.5</ele>
        <time>2020-05-30T20:08:53Z</time>
      </trkpt>
      <trkpt lat="46.42771" lon="-0.18301">
        <ele>102.5</ele>
        <time>2020-05-30T20:08:54Z</time>
      </trkpt>
      <trkpt lat="46.42771" lon="-0.18301">
        <ele>102.5</ele>
        <time>2020-05-30T20:08:55Z</time>
      </trkpt>
      <trkpt lat="46.42771" lon="-0.18301">
        <ele>102.5</ele>
        <time>2020-05-30T20:08:56Z</time>
      </trkpt>
      <trkpt lat="46.42771" lon="-0.183">
        <ele>102.5</ele>
        <time>2020-05-30T20:08:57Z</time>
      </trkpt>
      <trkpt lat="46.42771" lon="-0.18301">
        <ele>102.5</ele>
        <time>2020-05-30T20:08:58Z</time>
      </trkpt>
      <trkpt lat="46.42771" lon="-0.18301">
        <ele>102.5</ele>
        <time>2020-05-30T20:08:59Z</time>
      </trkpt>
      <trkpt lat="46.42771" lon="-0.18301">
        <ele>102.5</ele>
        <time>2020-05-30T20:09:00Z</time>
      </trkpt>
      <trkpt lat="46.42771" lon="-0.18302">
        <ele>102.5</ele>
        <time>2020-05-30T20:09:01Z</time>
      </trkpt>
      <trkpt lat="46.42771" lon="-0.18302">
        <ele>102.5</ele>
        <time>2020-05-30T20:09:02Z</time>
      </trkpt>
      <trkpt lat="46.42771" lon="-0.18302">
        <ele>102.5</ele>
        <time>2020-05-30T20:09:03Z</time>
      </trkpt>
      <trkpt lat="46.4277" lon="-0.18303">
        <ele>102.5</ele>
        <time>2020-05-30T20:09:04Z</time>
      </trkpt>
      <trkpt lat="46.4277" lon="-0.18303">
        <ele>102.5</ele>
        <time>2020-05-30T20:09:05Z</time>
      </trkpt>
      <trkpt lat="46.4277" lon="-0.18303">
        <ele>102.5</ele>
        <time>2020-05-30T20:09:06Z</time>
      </trkpt>
      <trkpt lat="46.42769" lon="-0.18303">
        <ele>102.5</ele>
        <time>2020-05-30T20:09:07Z</time>
      </trkpt>
      <trkpt lat="46.42769" lon="-0.18303">
        <ele>102.5</ele>
        <time>2020-05-30T20:09:08Z</time>
      </trkpt>
      <trkpt lat="46.42769" lon="-0.18303">
        <ele>102.5</ele>
        <time>2020-05-30T20:09:09Z</time>
      </trkpt>
      <trkpt lat="46.42769" lon="-0.18303">
        <ele>102.5</ele>
        <time>2020-05-30T20:09:10Z</time>
      </trkpt>
      <trkpt lat="46.42769" lon="-0.18303">
        <ele>102.5</ele>
        <time>2020-05-30T20:09:11Z</time>
      </trkpt>
      <trkpt lat="46.42769" lon="-0.18303">
        <ele>102.5</ele>
        <time>2020-05-30T20:09:12Z</time>
      </trkpt>
      <trkpt lat="46.42769" lon="-0.18305">
        <ele>102.5</ele>
        <time>2020-05-30T20:09:13Z</time>
      </trkpt>
      <trkpt lat="46.42768" lon="-0.18306">
        <ele>102.5</ele>
        <time>2020-05-30T20:09:14Z</time>
      </trkpt>
      <trkpt lat="46.42768" lon="-0.18306">
        <ele>102.5</ele>
        <time>2020-05-30T20:09:15Z</time>
      </trkpt>
      <trkpt lat="46.42768" lon="-0.18307">
        <ele>102.5</ele>
        <time>2020-05-30T20:09:16Z</time>
      </trkpt>
      <trkpt lat="46.42768" lon="-0.18307">
        <ele>102.5</ele>
        <time>2020-05-30T20:09:17Z</time>
      </trkpt>
      <trkpt lat="46.42768" lon="-0.18307">
        <ele>102.5</ele>
        <time>2020-05-30T20:09:18Z</time>
      </trkpt>
      <trkpt lat="46.42768" lon="-0.18307">
        <ele>102.5</ele>
        <time>2020-05-30T20:09:19Z</time>
      </trkpt>
      <trkpt lat="46.42767" lon="-0.18306">
        <ele>102.5</ele>
        <time>2020-05-30T20:09:20Z</time>
      </trkpt>
      <trkpt lat="46.42767" lon="-0.18305">
        <ele>102.5</ele>
        <time>2020-05-30T20:09:21Z</time>
      </trkpt>
      <trkpt lat="46.42766" lon="-0.18306">
        <ele>102.5</ele>
        <time>2020-05-30T20:09:22Z</time>
      </trkpt>
      <trkpt lat="46.42766" lon="-0.18306">
        <ele>102.5</ele>
        <time>2020-05-30T20:09:23Z</time>
      </trkpt>
      <trkpt lat="46.42766" lon="-0.18305">
        <ele>102.5</ele>
        <time>2020-05-30T20:09:24Z</time>
      </trkpt>
      <trkpt lat="46.42766" lon="-0.18305">
        <ele>102.5</ele>
        <time>2020-05-30T20:09:25Z</time>
      </trkpt>
      <trkpt lat="46.42767" lon="-0.18305">
        <ele>102.5</ele>
        <time>2020-05-30T20:09:26Z</time>
      </trkpt>
      <trkpt lat="46.42767" lon="-0.18305">
        <ele>102.5</ele>
        <time>2020-05-30T20:09:27Z</time>
      </trkpt>
      <trkpt lat="46.42767" lon="-0.18305">
        <ele>102.5</ele>
        <time>2020-05-30T20:09:28Z</time>
      </trkpt>
      <trkpt lat="46.42768" lon="-0.18305">
        <ele>102.5</ele>
        <time>2020-05-30T20:09:29Z</time>
      </trkpt>
      <trkpt lat="46.42768" lon="-0.18306">
        <ele>102.5</ele>
        <time>2020-05-30T20:09:30Z</time>
      </trkpt>
      <trkpt lat="46.42768" lon="-0.18306">
        <ele>102.5</ele>
        <time>2020-05-30T20:09:31Z</time>
      </trkpt>
      <trkpt lat="46.42768" lon="-0.18307">
        <ele>102.5</ele>
        <time>2020-05-30T20:09:32Z</time>
      </trkpt>
      <trkpt lat="46.42767" lon="-0.18307">
        <ele>102.5</ele>
        <time>2020-05-30T20:09:33Z</time>
      </trkpt>
      <trkpt lat="46.42767" lon="-0.18308">
        <ele>102.5</ele>
        <time>2020-05-30T20:09:34Z</time>
      </trkpt>
      <trkpt lat="46.42767" lon="-0.18309">
        <ele>102.5</ele>
        <time>2020-05-30T20:09:35Z</time>
      </trkpt>
      <trkpt lat="46.42767" lon="-0.1831">
        <ele>102.5</ele>
        <time>2020-05-30T20:09:36Z</time>
      </trkpt>
      <trkpt lat="46.42766" lon="-0.1831">
        <ele>102.5</ele>
        <time>2020-05-30T20:09:37Z</time>
      </trkpt>
      <trkpt lat="46.42766" lon="-0.1831">
        <ele>102.5</ele>
        <time>2020-05-30T20:09:38Z</time>
      </trkpt>
      <trkpt lat="46.42766" lon="-0.1831">
        <ele>102.5</ele>
        <time>2020-05-30T20:09:39Z</time>
      </trkpt>
      <trkpt lat="46.42766" lon="-0.1831">
        <ele>102.5</ele>
        <time>2020-05-30T20:09:40Z</time>
      </trkpt>
      <trkpt lat="46.42766" lon="-0.1831">
        <ele>102.5</ele>
        <time>2020-05-30T20:09:41Z</time>
      </trkpt>
      <trkpt lat="46.42767" lon="-0.1831">
        <ele>102.5</ele>
        <time>2020-05-30T20:09:42Z</time>
      </trkpt>
      <trkpt lat="46.42767" lon="-0.1831">
        <ele>102.5</ele>
        <time>2020-05-30T20:09:43Z</time>
      </trkpt>
      <trkpt lat="46.42768" lon="-0.18309">
        <ele>102.5</ele>
        <time>2020-05-30T20:09:44Z</time>
      </trkpt>
      <trkpt lat="46.42768" lon="-0.18308">
        <ele>102.5</ele>
        <time>2020-05-30T20:09:45Z</time>
      </trkpt>
      <trkpt lat="46.42768" lon="-0.18309">
        <ele>102.5</ele>
        <time>2020-05-30T20:09:46Z</time>
      </trkpt>
      <trkpt lat="46.42768" lon="-0.18309">
        <ele>102.5</ele>
        <time>2020-05-30T20:09:47Z</time>
      </trkpt>
      <trkpt lat="46.42768" lon="-0.18311">
        <ele>102.5</ele>
        <time>2020-05-30T20:09:48Z</time>
      </trkpt>
      <trkpt lat="46.42768" lon="-0.18312">
        <ele>102.5</ele>
        <time>2020-05-30T20:09:49Z</time>
      </trkpt>
      <trkpt lat="46.42768" lon="-0.18312">
        <ele>102.5</ele>
        <time>2020-05-30T20:09:50Z</time>
      </trkpt>
      <trkpt lat="46.42768" lon="-0.18313">
        <ele>102.5</ele>
        <time>2020-05-30T20:09:51Z</time>
      </trkpt>
      <trkpt lat="46.42768" lon="-0.18314">
        <ele>102.5</ele>
        <time>2020-05-30T20:09:52Z</time>
      </trkpt>
      <trkpt lat="46.42767" lon="-0.18314">
        <ele>102.5</ele>
        <time>2020-05-30T20:09:53Z</time>
      </trkpt>
      <trkpt lat="46.42767" lon="-0.18315">
        <ele>102.5</ele>
        <time>2020-05-30T20:09:54Z</time>
      </trkpt>
      <trkpt lat="46.42767" lon="-0.18317">
        <ele>102.5</ele>
        <time>2020-05-30T20:09:55Z</time>
      </trkpt>
      <trkpt lat="46.42767" lon="-0.18319">
        <ele>102.5</ele>
        <time>2020-05-30T20:09:56Z</time>
      </trkpt>
      <trkpt lat="46.42767" lon="-0.1832">
        <ele>102.5</ele>
        <time>2020-05-30T20:09:57Z</time>
      </trkpt>
      <trkpt lat="46.42767" lon="-0.18321">
        <ele>102.5</ele>
        <time>2020-05-30T20:09:58Z</time>
      </trkpt>
      <trkpt lat="46.42767" lon="-0.18323">
        <ele>102.2</ele>
        <time>2020-05-30T20:09:59Z</time>
      </trkpt>
      <trkpt lat="46.42767" lon="-0.18326">
        <ele>102.2</ele>
        <time>2020-05-30T20:10:00Z</time>
      </trkpt>
      <trkpt lat="46.42768" lon="-0.18328">
        <ele>102.2</ele>
        <time>2020-05-30T20:10:01Z</time>
      </trkpt>
      <trkpt lat="46.42768" lon="-0.18329">
        <ele>102.1</ele>
        <time>2020-05-30T20:10:02Z</time>
      </trkpt>
      <trkpt lat="46.42769" lon="-0.18332">
        <ele>102.1</ele>
        <time>2020-05-30T20:10:03Z</time>
      </trkpt>
      <trkpt lat="46.4277" lon="-0.18333">
        <ele>102.1</ele>
        <time>2020-05-30T20:10:04Z</time>
      </trkpt>
      <trkpt lat="46.4277" lon="-0.18334">
        <ele>102.1</ele>
        <time>2020-05-30T20:10:05Z</time>
      </trkpt>
      <trkpt lat="46.4277" lon="-0.18336">
        <ele>102.1</ele>
        <time>2020-05-30T20:10:06Z</time>
      </trkpt>
      <trkpt lat="46.4277" lon="-0.18337">
        <ele>102</ele>
        <time>2020-05-30T20:10:07Z</time>
      </trkpt>
      <trkpt lat="46.4277" lon="-0.18338">
        <ele>102</ele>
        <time>2020-05-30T20:10:08Z</time>
      </trkpt>
      <trkpt lat="46.42771" lon="-0.18339">
        <ele>102</ele>
        <time>2020-05-30T20:10:09Z</time>
      </trkpt>
      <trkpt lat="46.42771" lon="-0.18341">
        <ele>102</ele>
        <time>2020-05-30T20:10:10Z</time>
      </trkpt>
      <trkpt lat="46.42771" lon="-0.18343">
        <ele>102</ele>
        <time>2020-05-30T20:10:11Z</time>
      </trkpt>
      <trkpt lat="46.42771" lon="-0.18344">
        <ele>102</ele>
        <time>2020-05-30T20:10:12Z</time>
      </trkpt>
      <trkpt lat="46.42771" lon="-0.18344">
        <ele>102</ele>
        <time>2020-05-30T20:10:13Z</time>
      </trkpt>
      <trkpt lat="46.42771" lon="-0.18345">
        <ele>101.9</ele>
        <time>2020-05-30T20:10:14Z</time>
      </trkpt>
      <trkpt lat="46.42771" lon="-0.18346">
        <ele>101.9</ele>
        <time>2020-05-30T20:10:15Z</time>
      </trkpt>
      <trkpt lat="46.42771" lon="-0.18345">
        <ele>101.9</ele>
        <time>2020-05-30T20:10:16Z</time>
      </trkpt>
      <trkpt lat="46.42771" lon="-0.18346">
        <ele>101.9</ele>
        <time>2020-05-30T20:10:17Z</time>
      </trkpt>
      <trkpt lat="46.42771" lon="-0.18346">
        <ele>101.9</ele>
        <time>2020-05-30T20:10:18Z</time>
      </trkpt>
      <trkpt lat="46.42772" lon="-0.18346">
        <ele>101.9</ele>
        <time>2020-05-30T20:10:19Z</time>
      </trkpt>
      <trkpt lat="46.42772" lon="-0.18347">
        <ele>101.9</ele>
        <time>2020-05-30T20:10:20Z</time>
      </trkpt>
      <trkpt lat="46.42772" lon="-0.18348">
        <ele>101.9</ele>
        <time>2020-05-30T20:10:21Z</time>
      </trkpt>
      <trkpt lat="46.42772" lon="-0.18349">
        <ele>101.9</ele>
        <time>2020-05-30T20:10:22Z</time>
      </trkpt>
      <trkpt lat="46.42772" lon="-0.18349">
        <ele>101.9</ele>
        <time>2020-05-30T20:10:23Z</time>
      </trkpt>
      <trkpt lat="46.42772" lon="-0.18348">
        <ele>101.9</ele>
        <time>2020-05-30T20:10:24Z</time>
      </trkpt>
      <trkpt lat="46.42772" lon="-0.18348">
        <ele>101.9</ele>
        <time>2020-05-30T20:10:25Z</time>
      </trkpt>
      <trkpt lat="46.42772" lon="-0.18348">
        <ele>101.9</ele>
        <time>2020-05-30T20:10:26Z</time>
      </trkpt>
      <trkpt lat="46.42772" lon="-0.18349">
        <ele>101.9</ele>
        <time>2020-05-30T20:10:27Z</time>
      </trkpt>
      <trkpt lat="46.42772" lon="-0.18349">
        <ele>101.8</ele>
        <time>2020-05-30T20:10:28Z</time>
      </trkpt>
      <trkpt lat="46.42772" lon="-0.1835">
        <ele>101.8</ele>
        <time>2020-05-30T20:10:29Z</time>
      </trkpt>
      <trkpt lat="46.42772" lon="-0.18351">
        <ele>101.8</ele>
        <time>2020-05-30T20:10:30Z</time>
      </trkpt>
      <trkpt lat="46.42772" lon="-0.18351">
        <ele>101.8</ele>
        <time>2020-05-30T20:10:31Z</time>
      </trkpt>
      <trkpt lat="46.42772" lon="-0.18351">
        <ele>101.8</ele>
        <time>2020-05-30T20:10:32Z</time>
      </trkpt>
      <trkpt lat="46.42772" lon="-0.18351">
        <ele>101.8</ele>
        <time>2020-05-30T20:10:33Z</time>
      </trkpt>
      <trkpt lat="46.42772" lon="-0.18352">
        <ele>101.8</ele>
        <time>2020-05-30T20:10:34Z</time>
      </trkpt>
      <trkpt lat="46.42772" lon="-0.18352">
        <ele>101.8</ele>
        <time>2020-05-30T20:10:35Z</time>
      </trkpt>
      <trkpt lat="46.42772" lon="-0.18353">
        <ele>101.7</ele>
        <time>2020-05-30T20:10:36Z</time>
      </trkpt>
      <trkpt lat="46.42773" lon="-0.18355">
        <ele>101.7</ele>
        <time>2020-05-30T20:10:37Z</time>
      </trkpt>
      <trkpt lat="46.42773" lon="-0.18356">
        <ele>101.7</ele>
        <time>2020-05-30T20:10:38Z</time>
      </trkpt>
      <trkpt lat="46.42773" lon="-0.18357">
        <ele>101.7</ele>
        <time>2020-05-30T20:10:39Z</time>
      </trkpt>
      <trkpt lat="46.42773" lon="-0.18358">
        <ele>101.7</ele>
        <time>2020-05-30T20:10:40Z</time>
      </trkpt>
      <trkpt lat="46.42773" lon="-0.18358">
        <ele>101.7</ele>
        <time>2020-05-30T20:10:41Z</time>
      </trkpt>
      <trkpt lat="46.42773" lon="-0.18359">
        <ele>101.7</ele>
        <time>2020-05-30T20:10:42Z</time>
      </trkpt>
      <trkpt lat="46.42773" lon="-0.1836">
        <ele>101.7</ele>
        <time>2020-05-30T20:10:43Z</time>
      </trkpt>
      <trkpt lat="46.42773" lon="-0.1836">
        <ele>101.7</ele>
        <time>2020-05-30T20:10:44Z</time>
      </trkpt>
      <trkpt lat="46.42773" lon="-0.18362">
        <ele>101.7</ele>
        <time>2020-05-30T20:10:45Z</time>
      </trkpt>
      <trkpt lat="46.42773" lon="-0.18362">
        <ele>101.6</ele>
        <time>2020-05-30T20:10:46Z</time>
      </trkpt>
      <trkpt lat="46.42774" lon="-0.18364">
        <ele>101.6</ele>
        <time>2020-05-30T20:10:47Z</time>
      </trkpt>
      <trkpt lat="46.42774" lon="-0.18365">
        <ele>101.6</ele>
        <time>2020-05-30T20:10:48Z</time>
      </trkpt>
      <trkpt lat="46.42775" lon="-0.18367">
        <ele>101.6</ele>
        <time>2020-05-30T20:10:49Z</time>
      </trkpt>
      <trkpt lat="46.42774" lon="-0.18368">
        <ele>101.6</ele>
        <time>2020-05-30T20:10:50Z</time>
      </trkpt>
      <trkpt lat="46.42774" lon="-0.18369">
        <ele>101.6</ele>
        <time>2020-05-30T20:10:51Z</time>
      </trkpt>
      <trkpt lat="46.42774" lon="-0.18369">
        <ele>101.6</ele>
        <time>2020-05-30T20:10:52Z</time>
      </trkpt>
      <trkpt lat="46.42774" lon="-0.1837">
        <ele>101.6</ele>
        <time>2020-05-30T20:10:53Z</time>
      </trkpt>
      <trkpt lat="46.42774" lon="-0.1837">
        <ele>101.6</ele>
        <time>2020-05-30T20:10:54Z</time>
      </trkpt>
      <trkpt lat="46.42774" lon="-0.1837">
        <ele>101.6</ele>
        <time>2020-05-30T20:10:55Z</time>
      </trkpt>
      <trkpt lat="46.42774" lon="-0.1837">
        <ele>101.6</ele>
        <time>2020-05-30T20:10:56Z</time>
      </trkpt>
      <trkpt lat="46.42774" lon="-0.1837">
        <ele>101.1</ele>
        <time>2020-05-30T20:10:57Z</time>
      </trkpt>
      <trkpt lat="46.42774" lon="-0.18371">
        <ele>101.1</ele>
        <time>2020-05-30T20:10:58Z</time>
      </trkpt>
      <trkpt lat="46.42774" lon="-0.18372">
        <ele>101.1</ele>
        <time>2020-05-30T20:10:59Z</time>
      </trkpt>
      <trkpt lat="46.42774" lon="-0.18372">
        <ele>101.1</ele>
        <time>2020-05-30T20:11:00Z</time>
      </trkpt>
      <trkpt lat="46.42773" lon="-0.18372">
        <ele>101.1</ele>
        <time>2020-05-30T20:11:01Z</time>
      </trkpt>
      <trkpt lat="46.42773" lon="-0.18372">
        <ele>101.1</ele>
        <time>2020-05-30T20:11:02Z</time>
      </trkpt>
      <trkpt lat="46.42773" lon="-0.18373">
        <ele>101</ele>
        <time>2020-05-30T20:11:03Z</time>
      </trkpt>
      <trkpt lat="46.42774" lon="-0.18374">
        <ele>101</ele>
        <time>2020-05-30T20:11:04Z</time>
      </trkpt>
      <trkpt lat="46.42773" lon="-0.18375">
        <ele>101</ele>
        <time>2020-05-30T20:11:05Z</time>
      </trkpt>
      <trkpt lat="46.42772" lon="-0.18375">
        <ele>100.9</ele>
        <time>2020-05-30T20:11:06Z</time>
      </trkpt>
      <trkpt lat="46.42773" lon="-0.18375">
        <ele>100.9</ele>
        <time>2020-05-30T20:11:07Z</time>
      </trkpt>
      <trkpt lat="46.42772" lon="-0.18375">
        <ele>100.9</ele>
        <time>2020-05-30T20:11:08Z</time>
      </trkpt>
      <trkpt lat="46.42772" lon="-0.18375">
        <ele>100.9</ele>
        <time>2020-05-30T20:11:09Z</time>
      </trkpt>
      <trkpt lat="46.42771" lon="-0.18374">
        <ele>100.9</ele>
        <time>2020-05-30T20:11:10Z</time>
      </trkpt>
      <trkpt lat="46.42771" lon="-0.18374">
        <ele>100.9</ele>
        <time>2020-05-30T20:11:11Z</time>
      </trkpt>
      <trkpt lat="46.4277" lon="-0.18374">
        <ele>100.8</ele>
        <time>2020-05-30T20:11:12Z</time>
      </trkpt>
      <trkpt lat="46.4277" lon="-0.18374">
        <ele>100.8</ele>
        <time>2020-05-30T20:11:13Z</time>
      </trkpt>
      <trkpt lat="46.4277" lon="-0.18375">
        <ele>100.8</ele>
        <time>2020-05-30T20:11:14Z</time>
      </trkpt>
      <trkpt lat="46.42768" lon="-0.18375">
        <ele>100.8</ele>
        <time>2020-05-30T20:11:15Z</time>
      </trkpt>
      <trkpt lat="46.42768" lon="-0.18376">
        <ele>100.7</ele>
        <time>2020-05-30T20:11:16Z</time>
      </trkpt>
      <trkpt lat="46.42767" lon="-0.18377">
        <ele>100.7</ele>
        <time>2020-05-30T20:11:17Z</time>
      </trkpt>
      <trkpt lat="46.42766" lon="-0.18377">
        <ele>100.7</ele>
        <time>2020-05-30T20:11:18Z</time>
      </trkpt>
      <trkpt lat="46.42765" lon="-0.18377">
        <ele>100.6</ele>
        <time>2020-05-30T20:11:19Z</time>
      </trkpt>
      <trkpt lat="46.42764" lon="-0.18377">
        <ele>100.6</ele>
        <time>2020-05-30T20:11:20Z</time>
      </trkpt>
      <trkpt lat="46.42763" lon="-0.18376">
        <ele>100.6</ele>
        <time>2020-05-30T20:11:21Z</time>
      </trkpt>
      <trkpt lat="46.42762" lon="-0.18376">
        <ele>100.6</ele>
        <time>2020-05-30T20:11:22Z</time>
      </trkpt>
      <trkpt lat="46.42761" lon="-0.18377">
        <ele>100.6</ele>
        <time>2020-05-30T20:11:23Z</time>
      </trkpt>
      <trkpt lat="46.42761" lon="-0.18377">
        <ele>100.6</ele>
        <time>2020-05-30T20:11:24Z</time>
      </trkpt>
      <trkpt lat="46.4276" lon="-0.18377">
        <ele>100.3</ele>
        <time>2020-05-30T20:11:25Z</time>
      </trkpt>
      <trkpt lat="46.42759" lon="-0.18377">
        <ele>100.3</ele>
        <time>2020-05-30T20:11:26Z</time>
      </trkpt>
      <trkpt lat="46.42758" lon="-0.18377">
        <ele>100.3</ele>
        <time>2020-05-30T20:11:27Z</time>
      </trkpt>
      <trkpt lat="46.42758" lon="-0.18376">
        <ele>100.3</ele>
        <time>2020-05-30T20:11:28Z</time>
      </trkpt>
      <trkpt lat="46.42758" lon="-0.18376">
        <ele>100.3</ele>
        <time>2020-05-30T20:11:29Z</time>
      </trkpt>
      <trkpt lat="46.42758" lon="-0.18376">
        <ele>100.3</ele>
        <time>2020-05-30T20:11:30Z</time>
      </trkpt>
      <trkpt lat="46.42758" lon="-0.18377">
        <ele>100.3</ele>
        <time>2020-05-30T20:11:31Z</time>
      </trkpt>
      <trkpt lat="46.42758" lon="-0.18377">
        <ele>100.3</ele>
        <time>2020-05-30T20:11:32Z</time>
      </trkpt>
      <trkpt lat="46.42758" lon="-0.18377">
        <ele>100.3</ele>
        <time>2020-05-30T20:11:33Z</time>
      </trkpt>
      <trkpt lat="46.42758" lon="-0.18377">
        <ele>100.3</ele>
        <time>2020-05-30T20:11:34Z</time>
      </trkpt>
      <trkpt lat="46.42759" lon="-0.18377">
        <ele>100.3</ele>
        <time>2020-05-30T20:11:35Z</time>
      </trkpt>
      <trkpt lat="46.42759" lon="-0.18378">
        <ele>100.3</ele>
        <time>2020-05-30T20:11:36Z</time>
      </trkpt>
      <trkpt lat="46.42759" lon="-0.18378">
        <ele>100.3</ele>
        <time>2020-05-30T20:11:37Z</time>
      </trkpt>
      <trkpt lat="46.4276" lon="-0.18378">
        <ele>100.3</ele>
        <time>2020-05-30T20:11:38Z</time>
      </trkpt>
      <trkpt lat="46.42759" lon="-0.18378">
        <ele>100.3</ele>
        <time>2020-05-30T20:11:39Z</time>
      </trkpt>
      <trkpt lat="46.4276" lon="-0.18378">
        <ele>100.3</ele>
        <time>2020-05-30T20:11:40Z</time>
      </trkpt>
      <trkpt lat="46.42761" lon="-0.18378">
        <ele>100.3</ele>
        <time>2020-05-30T20:11:41Z</time>
      </trkpt>
      <trkpt lat="46.42761" lon="-0.18379">
        <ele>100.3</ele>
        <time>2020-05-30T20:11:42Z</time>
      </trkpt>
      <trkpt lat="46.42761" lon="-0.1838">
        <ele>100.3</ele>
        <time>2020-05-30T20:11:43Z</time>
      </trkpt>
      <trkpt lat="46.42761" lon="-0.1838">
        <ele>100.3</ele>
        <time>2020-05-30T20:11:44Z</time>
      </trkpt>
      <trkpt lat="46.42762" lon="-0.18381">
        <ele>100.3</ele>
        <time>2020-05-30T20:11:45Z</time>
      </trkpt>
      <trkpt lat="46.42762" lon="-0.18382">
        <ele>100.3</ele>
        <time>2020-05-30T20:11:46Z</time>
      </trkpt>
      <trkpt lat="46.42763" lon="-0.18383">
        <ele>100.3</ele>
        <time>2020-05-30T20:11:47Z</time>
      </trkpt>
      <trkpt lat="46.42763" lon="-0.18384">
        <ele>100.3</ele>
        <time>2020-05-30T20:11:48Z</time>
      </trkpt>
      <trkpt lat="46.42764" lon="-0.18387">
        <ele>100.3</ele>
        <time>2020-05-30T20:11:49Z</time>
      </trkpt>
      <trkpt lat="46.42764" lon="-0.18388">
        <ele>100.3</ele>
        <time>2020-05-30T20:11:50Z</time>
      </trkpt>
      <trkpt lat="46.42765" lon="-0.1839">
        <ele>100.3</ele>
        <time>2020-05-30T20:11:51Z</time>
      </trkpt>
      <trkpt lat="46.42765" lon="-0.18391">
        <ele>100.3</ele>
        <time>2020-05-30T20:11:52Z</time>
      </trkpt>
      <trkpt lat="46.42766" lon="-0.18392">
        <ele>100.1</ele>
        <time>2020-05-30T20:11:53Z</time>
      </trkpt>
      <trkpt lat="46.42766" lon="-0.18393">
        <ele>100.2</ele>
        <time>2020-05-30T20:11:54Z</time>
      </trkpt>
      <trkpt lat="46.42767" lon="-0.18394">
        <ele>100.2</ele>
        <time>2020-05-30T20:11:55Z</time>
      </trkpt>
      <trkpt lat="46.42767" lon="-0.18394">
        <ele>100.2</ele>
        <time>2020-05-30T20:11:56Z</time>
      </trkpt>
      <trkpt lat="46.42767" lon="-0.18395">
        <ele>100.3</ele>
        <time>2020-05-30T20:11:57Z</time>
      </trkpt>
      <trkpt lat="46.42767" lon="-0.18395">
        <ele>100.3</ele>
        <time>2020-05-30T20:11:58Z</time>
      </trkpt>
      <trkpt lat="46.42767" lon="-0.18395">
        <ele>100.4</ele>
        <time>2020-05-30T20:11:59Z</time>
      </trkpt>
      <trkpt lat="46.42767" lon="-0.18396">
        <ele>100.4</ele>
        <time>2020-05-30T20:12:00Z</time>
      </trkpt>
      <trkpt lat="46.42767" lon="-0.18397">
        <ele>100.4</ele>
        <time>2020-05-30T20:12:01Z</time>
      </trkpt>
      <trkpt lat="46.42767" lon="-0.18397">
        <ele>100.5</ele>
        <time>2020-05-30T20:12:02Z</time>
      </trkpt>
      <trkpt lat="46.42767" lon="-0.18398">
        <ele>100.5</ele>
        <time>2020-05-30T20:12:03Z</time>
      </trkpt>
      <trkpt lat="46.42767" lon="-0.18398">
        <ele>100.6</ele>
        <time>2020-05-30T20:12:04Z</time>
      </trkpt>
      <trkpt lat="46.42768" lon="-0.184">
        <ele>100.7</ele>
        <time>2020-05-30T20:12:05Z</time>
      </trkpt>
      <trkpt lat="46.42768" lon="-0.18402">
        <ele>100.8</ele>
        <time>2020-05-30T20:12:06Z</time>
      </trkpt>
      <trkpt lat="46.42768" lon="-0.18403">
        <ele>100.9</ele>
        <time>2020-05-30T20:12:07Z</time>
      </trkpt>
      <trkpt lat="46.42768" lon="-0.18405">
        <ele>101</ele>
        <time>2020-05-30T20:12:08Z</time>
      </trkpt>
      <trkpt lat="46.42768" lon="-0.18406">
        <ele>101.1</ele>
        <time>2020-05-30T20:12:09Z</time>
      </trkpt>
      <trkpt lat="46.42768" lon="-0.18406">
        <ele>101.2</ele>
        <time>2020-05-30T20:12:10Z</time>
      </trkpt>
      <trkpt lat="46.42768" lon="-0.18407">
        <ele>101.2</ele>
        <time>2020-05-30T20:12:11Z</time>
      </trkpt>
      <trkpt lat="46.42768" lon="-0.18408">
        <ele>101.3</ele>
        <time>2020-05-30T20:12:12Z</time>
      </trkpt>
      <trkpt lat="46.42768" lon="-0.18409">
        <ele>101.4</ele>
        <time>2020-05-30T20:12:13Z</time>
      </trkpt>
      <trkpt lat="46.42768" lon="-0.18409">
        <ele>101.4</ele>
        <time>2020-05-30T20:12:14Z</time>
      </trkpt>
      <trkpt lat="46.42768" lon="-0.1841">
        <ele>101.5</ele>
        <time>2020-05-30T20:12:15Z</time>
      </trkpt>
      <trkpt lat="46.42768" lon="-0.18411">
        <ele>101.5</ele>
        <time>2020-05-30T20:12:16Z</time>
      </trkpt>
      <trkpt lat="46.42768" lon="-0.18413">
        <ele>101.6</ele>
        <time>2020-05-30T20:12:17Z</time>
      </trkpt>
      <trkpt lat="46.42768" lon="-0.18414">
        <ele>101.8</ele>
        <time>2020-05-30T20:12:18Z</time>
      </trkpt>
      <trkpt lat="46.42769" lon="-0.18415">
        <ele>101.9</ele>
        <time>2020-05-30T20:12:19Z</time>
      </trkpt>
      <trkpt lat="46.42769" lon="-0.18417">
        <ele>101.9</ele>
        <time>2020-05-30T20:12:20Z</time>
      </trkpt>
      <trkpt lat="46.42769" lon="-0.18417">
        <ele>102</ele>
        <time>2020-05-30T20:12:21Z</time>
      </trkpt>
      <trkpt lat="46.42769" lon="-0.18417">
        <ele>102</ele>
        <time>2020-05-30T20:12:22Z</time>
      </trkpt>
      <trkpt lat="46.42769" lon="-0.18418">
        <ele>102</ele>
        <time>2020-05-30T20:12:23Z</time>
      </trkpt>
      <trkpt lat="46.4277" lon="-0.18418">
        <ele>102.1</ele>
        <time>2020-05-30T20:12:24Z</time>
      </trkpt>
      <trkpt lat="46.4277" lon="-0.18419">
        <ele>102.1</ele>
        <time>2020-05-30T20:12:25Z</time>
      </trkpt>
      <trkpt lat="46.4277" lon="-0.18419">
        <ele>102.2</ele>
        <time>2020-05-30T20:12:26Z</time>
      </trkpt>
      <trkpt lat="46.4277" lon="-0.18419">
        <ele>102.2</ele>
        <time>2020-05-30T20:12:27Z</time>
      </trkpt>
      <trkpt lat="46.4277" lon="-0.1842">
        <ele>102.2</ele>
        <time>2020-05-30T20:12:28Z</time>
      </trkpt>
      <trkpt lat="46.42771" lon="-0.1842">
        <ele>102.3</ele>
        <time>2020-05-30T20:12:29Z</time>
      </trkpt>
      <trkpt lat="46.42771" lon="-0.18421">
        <ele>102.3</ele>
        <time>2020-05-30T20:12:30Z</time>
      </trkpt>
      <trkpt lat="46.42771" lon="-0.18421">
        <ele>102.3</ele>
        <time>2020-05-30T20:12:31Z</time>
      </trkpt>
      <trkpt lat="46.42771" lon="-0.18423">
        <ele>102.4</ele>
        <time>2020-05-30T20:12:32Z</time>
      </trkpt>
      <trkpt lat="46.42772" lon="-0.18423">
        <ele>102.5</ele>
        <time>2020-05-30T20:12:33Z</time>
      </trkpt>
      <trkpt lat="46.42772" lon="-0.18424">
        <ele>102.5</ele>
        <time>2020-05-30T20:12:34Z</time>
      </trkpt>
      <trkpt lat="46.42773" lon="-0.18425">
        <ele>102.6</ele>
        <time>2020-05-30T20:12:35Z</time>
      </trkpt>
      <trkpt lat="46.42773" lon="-0.18427">
        <ele>102.7</ele>
        <time>2020-05-30T20:12:36Z</time>
      </trkpt>
      <trkpt lat="46.42774" lon="-0.18427">
        <ele>102.7</ele>
        <time>2020-05-30T20:12:37Z</time>
      </trkpt>
      <trkpt lat="46.42775" lon="-0.18428">
        <ele>102.8</ele>
        <time>2020-05-30T20:12:38Z</time>
      </trkpt>
      <trkpt lat="46.42775" lon="-0.18429">
        <ele>102.8</ele>
        <time>2020-05-30T20:12:39Z</time>
      </trkpt>
      <trkpt lat="46.42775" lon="-0.18429">
        <ele>102.9</ele>
        <time>2020-05-30T20:12:40Z</time>
      </trkpt>
      <trkpt lat="46.42776" lon="-0.1843">
        <ele>102.9</ele>
        <time>2020-05-30T20:12:41Z</time>
      </trkpt>
      <trkpt lat="46.42776" lon="-0.1843">
        <ele>102.9</ele>
        <time>2020-05-30T20:12:42Z</time>
      </trkpt>
      <trkpt lat="46.42777" lon="-0.1843">
        <ele>102.9</ele>
        <time>2020-05-30T20:12:43Z</time>
      </trkpt>
      <trkpt lat="46.42777" lon="-0.1843">
        <ele>103</ele>
        <time>2020-05-30T20:12:44Z</time>
      </trkpt>
      <trkpt lat="46.42777" lon="-0.1843">
        <ele>103</ele>
        <time>2020-05-30T20:12:45Z</time>
      </trkpt>
      <trkpt lat="46.42777" lon="-0.1843">
        <ele>103</ele>
        <time>2020-05-30T20:12:46Z</time>
      </trkpt>
      <trkpt lat="46.42777" lon="-0.1843">
        <ele>103</ele>
        <time>2020-05-30T20:12:47Z</time>
      </trkpt>
      <trkpt lat="46.42777" lon="-0.1843">
        <ele>103</ele>
        <time>2020-05-30T20:12:48Z</time>
      </trkpt>
      <trkpt lat="46.42778" lon="-0.1843">
        <ele>103</ele>
        <time>2020-05-30T20:12:49Z</time>
      </trkpt>
      <trkpt lat="46.42778" lon="-0.1843">
        <ele>103</ele>
        <time>2020-05-30T20:12:50Z</time>
      </trkpt>
      <trkpt lat="46.42778" lon="-0.1843">
        <ele>103</ele>
        <time>2020-05-30T20:12:51Z</time>
      </trkpt>
      <trkpt lat="46.42778" lon="-0.18431">
        <ele>103</ele>
        <time>2020-05-30T20:12:52Z</time>
      </trkpt>
      <trkpt lat="46.42779" lon="-0.18432">
        <ele>103.1</ele>
        <time>2020-05-30T20:12:53Z</time>
      </trkpt>
      <trkpt lat="46.4278" lon="-0.18432">
        <ele>103.1</ele>
        <time>2020-05-30T20:12:54Z</time>
      </trkpt>
      <trkpt lat="46.42781" lon="-0.18433">
        <ele>103.1</ele>
        <time>2020-05-30T20:12:55Z</time>
      </trkpt>
      <trkpt lat="46.42781" lon="-0.18433">
        <ele>103.1</ele>
        <time>2020-05-30T20:12:56Z</time>
      </trkpt>
      <trkpt lat="46.42781" lon="-0.18433">
        <ele>103.1</ele>
        <time>2020-05-30T20:12:57Z</time>
      </trkpt>
      <trkpt lat="46.42781" lon="-0.18433">
        <ele>103.1</ele>
        <time>2020-05-30T20:12:58Z</time>
      </trkpt>
      <trkpt lat="46.42781" lon="-0.18434">
        <ele>103.2</ele>
        <time>2020-05-30T20:12:59Z</time>
      </trkpt>
      <trkpt lat="46.42782" lon="-0.18435">
        <ele>103.2</ele>
        <time>2020-05-30T20:13:00Z</time>
      </trkpt>
      <trkpt lat="46.42782" lon="-0.18436">
        <ele>103.2</ele>
        <time>2020-05-30T20:13:01Z</time>
      </trkpt>
      <trkpt lat="46.42782" lon="-0.18436">
        <ele>103.2</ele>
        <time>2020-05-30T20:13:02Z</time>
      </trkpt>
      <trkpt lat="46.42783" lon="-0.18436">
        <ele>103.2</ele>
        <time>2020-05-30T20:13:03Z</time>
      </trkpt>
      <trkpt lat="46.42783" lon="-0.18437">
        <ele>103.2</ele>
        <time>2020-05-30T20:13:04Z</time>
      </trkpt>
      <trkpt lat="46.42784" lon="-0.18437">
        <ele>103.2</ele>
        <time>2020-05-30T20:13:05Z</time>
      </trkpt>
      <trkpt lat="46.42784" lon="-0.18437">
        <ele>103.2</ele>
        <time>2020-05-30T20:13:06Z</time>
      </trkpt>
      <trkpt lat="46.42784" lon="-0.18437">
        <ele>103.2</ele>
        <time>2020-05-30T20:13:07Z</time>
      </trkpt>
      <trkpt lat="46.42784" lon="-0.18438">
        <ele>103.2</ele>
        <time>2020-05-30T20:13:08Z</time>
      </trkpt>
      <trkpt lat="46.42785" lon="-0.18439">
        <ele>103.2</ele>
        <time>2020-05-30T20:13:09Z</time>
      </trkpt>
      <trkpt lat="46.42785" lon="-0.18439">
        <ele>103.2</ele>
        <time>2020-05-30T20:13:10Z</time>
      </trkpt>
      <trkpt lat="46.42786" lon="-0.1844">
        <ele>103.1</ele>
        <time>2020-05-30T20:13:11Z</time>
      </trkpt>
      <trkpt lat="46.42787" lon="-0.18441">
        <ele>103.1</ele>
        <time>2020-05-30T20:13:12Z</time>
      </trkpt>
      <trkpt lat="46.42788" lon="-0.18442">
        <ele>103.1</ele>
        <time>2020-05-30T20:13:13Z</time>
      </trkpt>
      <trkpt lat="46.42788" lon="-0.18443">
        <ele>103.1</ele>
        <time>2020-05-30T20:13:14Z</time>
      </trkpt>
      <trkpt lat="46.42788" lon="-0.18443">
        <ele>103.1</ele>
        <time>2020-05-30T20:13:15Z</time>
      </trkpt>
      <trkpt lat="46.42789" lon="-0.18443">
        <ele>103</ele>
        <time>2020-05-30T20:13:16Z</time>
      </trkpt>
      <trkpt lat="46.4279" lon="-0.18445">
        <ele>102.9</ele>
        <time>2020-05-30T20:13:17Z</time>
      </trkpt>
      <trkpt lat="46.42791" lon="-0.18446">
        <ele>102.9</ele>
        <time>2020-05-30T20:13:18Z</time>
      </trkpt>
      <trkpt lat="46.42792" lon="-0.18448">
        <ele>102.7</ele>
        <time>2020-05-30T20:13:19Z</time>
      </trkpt>
      <trkpt lat="46.42793" lon="-0.1845">
        <ele>103.6</ele>
        <time>2020-05-30T20:13:20Z</time>
      </trkpt>
      <trkpt lat="46.42794" lon="-0.18452">
        <ele>103.8</ele>
        <time>2020-05-30T20:13:21Z</time>
      </trkpt>
      <trkpt lat="46.42795" lon="-0.18453">
        <ele>104</ele>
        <time>2020-05-30T20:13:22Z</time>
      </trkpt>
      <trkpt lat="46.42795" lon="-0.18454">
        <ele>104.2</ele>
        <time>2020-05-30T20:13:23Z</time>
      </trkpt>
      <trkpt lat="46.42796" lon="-0.18455">
        <ele>104.3</ele>
        <time>2020-05-30T20:13:24Z</time>
      </trkpt>
      <trkpt lat="46.42796" lon="-0.18455">
        <ele>104.4</ele>
        <time>2020-05-30T20:13:25Z</time>
      </trkpt>
      <trkpt lat="46.42797" lon="-0.18456">
        <ele>104.6</ele>
        <time>2020-05-30T20:13:26Z</time>
      </trkpt>
      <trkpt lat="46.42798" lon="-0.18456">
        <ele>104.8</ele>
        <time>2020-05-30T20:13:27Z</time>
      </trkpt>
      <trkpt lat="46.42799" lon="-0.18456">
        <ele>105</ele>
        <time>2020-05-30T20:13:28Z</time>
      </trkpt>
      <trkpt lat="46.42801" lon="-0.18457">
        <ele>105.3</ele>
        <time>2020-05-30T20:13:29Z</time>
      </trkpt>
      <trkpt lat="46.42802" lon="-0.18459">
        <ele>105.5</ele>
        <time>2020-05-30T20:13:30Z</time>
      </trkpt>
      <trkpt lat="46.42803" lon="-0.1846">
        <ele>105.9</ele>
        <time>2020-05-30T20:13:31Z</time>
      </trkpt>
      <trkpt lat="46.42804" lon="-0.18461">
        <ele>106.1</ele>
        <time>2020-05-30T20:13:32Z</time>
      </trkpt>
      <trkpt lat="46.42805" lon="-0.18463">
        <ele>106.3</ele>
        <time>2020-05-30T20:13:33Z</time>
      </trkpt>
      <trkpt lat="46.42807" lon="-0.18464">
        <ele>106.6</ele>
        <time>2020-05-30T20:13:34Z</time>
      </trkpt>
      <trkpt lat="46.42808" lon="-0.18465">
        <ele>106.9</ele>
        <time>2020-05-30T20:13:35Z</time>
      </trkpt>
      <trkpt lat="46.42809" lon="-0.18466">
        <ele>107.1</ele>
        <time>2020-05-30T20:13:36Z</time>
      </trkpt>
      <trkpt lat="46.4281" lon="-0.18467">
        <ele>107.3</ele>
        <time>2020-05-30T20:13:37Z</time>
      </trkpt>
      <trkpt lat="46.42811" lon="-0.18468">
        <ele>107.5</ele>
        <time>2020-05-30T20:13:38Z</time>
      </trkpt>
      <trkpt lat="46.42812" lon="-0.18469">
        <ele>107.6</ele>
        <time>2020-05-30T20:13:39Z</time>
      </trkpt>
      <trkpt lat="46.42813" lon="-0.18471">
        <ele>108</ele>
        <time>2020-05-30T20:13:40Z</time>
      </trkpt>
      <trkpt lat="46.42814" lon="-0.18472">
        <ele>108.1</ele>
        <time>2020-05-30T20:13:41Z</time>
      </trkpt>
      <trkpt lat="46.42814" lon="-0.18473">
        <ele>108.3</ele>
        <time>2020-05-30T20:13:42Z</time>
      </trkpt>
      <trkpt lat="46.42815" lon="-0.18474">
        <ele>108.4</ele>
        <time>2020-05-30T20:13:43Z</time>
      </trkpt>
      <trkpt lat="46.42815" lon="-0.18475">
        <ele>108.6</ele>
        <time>2020-05-30T20:13:44Z</time>
      </trkpt>
      <trkpt lat="46.42816" lon="-0.18476">
        <ele>108.7</ele>
        <time>2020-05-30T20:13:45Z</time>
      </trkpt>
      <trkpt lat="46.42816" lon="-0.18477">
        <ele>108.8</ele>
        <time>2020-05-30T20:13:46Z</time>
      </trkpt>
      <trkpt lat="46.42817" lon="-0.18478">
        <ele>109</ele>
        <time>2020-05-30T20:13:47Z</time>
      </trkpt>
      <trkpt lat="46.42818" lon="-0.1848">
        <ele>109.1</ele>
        <time>2020-05-30T20:13:48Z</time>
      </trkpt>
      <trkpt lat="46.42818" lon="-0.1848">
        <ele>109.2</ele>
        <time>2020-05-30T20:13:49Z</time>
      </trkpt>
      <trkpt lat="46.42818" lon="-0.18481">
        <ele>109.3</ele>
        <time>2020-05-30T20:13:50Z</time>
      </trkpt>
      <trkpt lat="46.42819" lon="-0.18482">
        <ele>109.5</ele>
        <time>2020-05-30T20:13:51Z</time>
      </trkpt>
      <trkpt lat="46.42819" lon="-0.18482">
        <ele>109.5</ele>
        <time>2020-05-30T20:13:52Z</time>
      </trkpt>
      <trkpt lat="46.42819" lon="-0.18482">
        <ele>109.5</ele>
        <time>2020-05-30T20:13:53Z</time>
      </trkpt>
      <trkpt lat="46.4282" lon="-0.18483">
        <ele>109.7</ele>
        <time>2020-05-30T20:13:54Z</time>
      </trkpt>
      <trkpt lat="46.42821" lon="-0.18484">
        <ele>109.8</ele>
        <time>2020-05-30T20:13:55Z</time>
      </trkpt>
      <trkpt lat="46.42824" lon="-0.18486">
        <ele>110.3</ele>
        <time>2020-05-30T20:13:56Z</time>
      </trkpt>
      <trkpt lat="46.42825" lon="-0.18487">
        <ele>110.4</ele>
        <time>2020-05-30T20:13:57Z</time>
      </trkpt>
      <trkpt lat="46.42827" lon="-0.1849">
        <ele>110.8</ele>
        <time>2020-05-30T20:13:58Z</time>
      </trkpt>
      <trkpt lat="46.42827" lon="-0.18491">
        <ele>110.9</ele>
        <time>2020-05-30T20:13:59Z</time>
      </trkpt>
      <trkpt lat="46.42828" lon="-0.18492">
        <ele>111.1</ele>
        <time>2020-05-30T20:14:00Z</time>
      </trkpt>
      <trkpt lat="46.42829" lon="-0.18493">
        <ele>111.3</ele>
        <time>2020-05-30T20:14:01Z</time>
      </trkpt>
      <trkpt lat="46.4283" lon="-0.18495">
        <ele>111.5</ele>
        <time>2020-05-30T20:14:02Z</time>
      </trkpt>
      <trkpt lat="46.42831" lon="-0.18497">
        <ele>111.7</ele>
        <time>2020-05-30T20:14:03Z</time>
      </trkpt>
      <trkpt lat="46.42832" lon="-0.18498">
        <ele>111.9</ele>
        <time>2020-05-30T20:14:04Z</time>
      </trkpt>
      <trkpt lat="46.42833" lon="-0.18499">
        <ele>112</ele>
        <time>2020-05-30T20:14:05Z</time>
      </trkpt>
      <trkpt lat="46.42834" lon="-0.18501">
        <ele>112.2</ele>
        <time>2020-05-30T20:14:06Z</time>
      </trkpt>
      <trkpt lat="46.42835" lon="-0.18503">
        <ele>112.4</ele>
        <time>2020-05-30T20:14:07Z</time>
      </trkpt>
      <trkpt lat="46.42835" lon="-0.18504">
        <ele>112.6</ele>
        <time>2020-05-30T20:14:08Z</time>
      </trkpt>
      <trkpt lat="46.42837" lon="-0.18506">
        <ele>112.8</ele>
        <time>2020-05-30T20:14:09Z</time>
      </trkpt>
      <trkpt lat="46.42837" lon="-0.18507">
        <ele>113</ele>
        <time>2020-05-30T20:14:10Z</time>
      </trkpt>
      <trkpt lat="46.42838" lon="-0.18508">
        <ele>113.1</ele>
        <time>2020-05-30T20:14:11Z</time>
      </trkpt>
      <trkpt lat="46.42839" lon="-0.1851">
        <ele>113.3</ele>
        <time>2020-05-30T20:14:12Z</time>
      </trkpt>
      <trkpt lat="46.4284" lon="-0.18512">
        <ele>113.5</ele>
        <time>2020-05-30T20:14:13Z</time>
      </trkpt>
      <trkpt lat="46.42841" lon="-0.18514">
        <ele>113.7</ele>
        <time>2020-05-30T20:14:14Z</time>
      </trkpt>
      <trkpt lat="46.42842" lon="-0.18515">
        <ele>113.8</ele>
        <time>2020-05-30T20:14:15Z</time>
      </trkpt>
      <trkpt lat="46.42842" lon="-0.18515">
        <ele>113.9</ele>
        <time>2020-05-30T20:14:16Z</time>
      </trkpt>
      <trkpt lat="46.42843" lon="-0.18516">
        <ele>114</ele>
        <time>2020-05-30T20:14:17Z</time>
      </trkpt>
      <trkpt lat="46.42844" lon="-0.18517">
        <ele>114.1</ele>
        <time>2020-05-30T20:14:18Z</time>
      </trkpt>
      <trkpt lat="46.42844" lon="-0.18518">
        <ele>114.3</ele>
        <time>2020-05-30T20:14:19Z</time>
      </trkpt>
      <trkpt lat="46.42845" lon="-0.1852">
        <ele>114.5</ele>
        <time>2020-05-30T20:14:20Z</time>
      </trkpt>
      <trkpt lat="46.42846" lon="-0.18521">
        <ele>114.6</ele>
        <time>2020-05-30T20:14:21Z</time>
      </trkpt>
      <trkpt lat="46.42847" lon="-0.18522">
        <ele>114.8</ele>
        <time>2020-05-30T20:14:22Z</time>
      </trkpt>
      <trkpt lat="46.42848" lon="-0.18524">
        <ele>115</ele>
        <time>2020-05-30T20:14:23Z</time>
      </trkpt>
      <trkpt lat="46.42848" lon="-0.18526">
        <ele>115.1</ele>
        <time>2020-05-30T20:14:24Z</time>
      </trkpt>
      <trkpt lat="46.42849" lon="-0.18527">
        <ele>115.2</ele>
        <time>2020-05-30T20:14:25Z</time>
      </trkpt>
      <trkpt lat="46.4285" lon="-0.18529">
        <ele>115.5</ele>
        <time>2020-05-30T20:14:26Z</time>
      </trkpt>
      <trkpt lat="46.4285" lon="-0.1853">
        <ele>115.6</ele>
        <time>2020-05-30T20:14:27Z</time>
      </trkpt>
      <trkpt lat="46.42851" lon="-0.18531">
        <ele>115.7</ele>
        <time>2020-05-30T20:14:28Z</time>
      </trkpt>
      <trkpt lat="46.42851" lon="-0.18532">
        <ele>115.8</ele>
        <time>2020-05-30T20:14:29Z</time>
      </trkpt>
      <trkpt lat="46.42851" lon="-0.18534">
        <ele>116</ele>
        <time>2020-05-30T20:14:30Z</time>
      </trkpt>
      <trkpt lat="46.42852" lon="-0.18535">
        <ele>116.1</ele>
        <time>2020-05-30T20:14:31Z</time>
      </trkpt>
      <trkpt lat="46.42852" lon="-0.18536">
        <ele>116.2</ele>
        <time>2020-05-30T20:14:32Z</time>
      </trkpt>
      <trkpt lat="46.42852" lon="-0.18536">
        <ele>116.2</ele>
        <time>2020-05-30T20:14:33Z</time>
      </trkpt>
      <trkpt lat="46.42852" lon="-0.18537">
        <ele>116.3</ele>
        <time>2020-05-30T20:14:34Z</time>
      </trkpt>
      <trkpt lat="46.42852" lon="-0.18537">
        <ele>116.3</ele>
        <time>2020-05-30T20:14:35Z</time>
      </trkpt>
      <trkpt lat="46.42853" lon="-0.18538">
        <ele>116.4</ele>
        <time>2020-05-30T20:14:36Z</time>
      </trkpt>
      <trkpt lat="46.42852" lon="-0.18538">
        <ele>116.4</ele>
        <time>2020-05-30T20:14:37Z</time>
      </trkpt>
      <trkpt lat="46.42852" lon="-0.18539">
        <ele>116.5</ele>
        <time>2020-05-30T20:14:38Z</time>
      </trkpt>
      <trkpt lat="46.42853" lon="-0.1854">
        <ele>116.5</ele>
        <time>2020-05-30T20:14:39Z</time>
      </trkpt>
      <trkpt lat="46.42853" lon="-0.18541">
        <ele>116.7</ele>
        <time>2020-05-30T20:14:40Z</time>
      </trkpt>
      <trkpt lat="46.42853" lon="-0.18543">
        <ele>116.8</ele>
        <time>2020-05-30T20:14:41Z</time>
      </trkpt>
      <trkpt lat="46.42853" lon="-0.18545">
        <ele>116.9</ele>
        <time>2020-05-30T20:14:42Z</time>
      </trkpt>
      <trkpt lat="46.42853" lon="-0.18546">
        <ele>117</ele>
        <time>2020-05-30T20:14:43Z</time>
      </trkpt>
      <trkpt lat="46.42852" lon="-0.18547">
        <ele>117.1</ele>
        <time>2020-05-30T20:14:44Z</time>
      </trkpt>
      <trkpt lat="46.42852" lon="-0.18548">
        <ele>117.2</ele>
        <time>2020-05-30T20:14:45Z</time>
      </trkpt>
      <trkpt lat="46.42852" lon="-0.18549">
        <ele>117.3</ele>
        <time>2020-05-30T20:14:46Z</time>
      </trkpt>
      <trkpt lat="46.42852" lon="-0.1855">
        <ele>117.3</ele>
        <time>2020-05-30T20:14:47Z</time>
      </trkpt>
      <trkpt lat="46.42852" lon="-0.18551">
        <ele>117.4</ele>
        <time>2020-05-30T20:14:48Z</time>
      </trkpt>
      <trkpt lat="46.42852" lon="-0.18552">
        <ele>117.5</ele>
        <time>2020-05-30T20:14:49Z</time>
      </trkpt>
      <trkpt lat="46.42851" lon="-0.18553">
        <ele>117.6</ele>
        <time>2020-05-30T20:14:50Z</time>
      </trkpt>
      <trkpt lat="46.42849" lon="-0.18556">
        <ele>117.8</ele>
        <time>2020-05-30T20:14:51Z</time>
      </trkpt>
      <trkpt lat="46.42849" lon="-0.18557">
        <ele>118.1</ele>
        <time>2020-05-30T20:14:52Z</time>
      </trkpt>
      <trkpt lat="46.42848" lon="-0.18558">
        <ele>118</ele>
        <time>2020-05-30T20:14:53Z</time>
      </trkpt>
      <trkpt lat="46.42846" lon="-0.18562">
        <ele>117.8</ele>
        <time>2020-05-30T20:14:54Z</time>
      </trkpt>
      <trkpt lat="46.42846" lon="-0.18563">
        <ele>117.8</ele>
        <time>2020-05-30T20:14:55Z</time>
      </trkpt>
      <trkpt lat="46.42845" lon="-0.18565">
        <ele>117.7</ele>
        <time>2020-05-30T20:14:56Z</time>
      </trkpt>
      <trkpt lat="46.42845" lon="-0.18566">
        <ele>117.7</ele>
        <time>2020-05-30T20:14:57Z</time>
      </trkpt>
      <trkpt lat="46.42845" lon="-0.18566">
        <ele>117.6</ele>
        <time>2020-05-30T20:14:58Z</time>
      </trkpt>
      <trkpt lat="46.42844" lon="-0.18567">
        <ele>117.6</ele>
        <time>2020-05-30T20:14:59Z</time>
      </trkpt>
      <trkpt lat="46.42843" lon="-0.18569">
        <ele>117.5</ele>
        <time>2020-05-30T20:15:00Z</time>
      </trkpt>
      <trkpt lat="46.42843" lon="-0.1857">
        <ele>117.5</ele>
        <time>2020-05-30T20:15:01Z</time>
      </trkpt>
      <trkpt lat="46.42842" lon="-0.18571">
        <ele>117.4</ele>
        <time>2020-05-30T20:15:02Z</time>
      </trkpt>
      <trkpt lat="46.42841" lon="-0.18573">
        <ele>117.3</ele>
        <time>2020-05-30T20:15:03Z</time>
      </trkpt>
      <trkpt lat="46.4284" lon="-0.18573">
        <ele>117.2</ele>
        <time>2020-05-30T20:15:04Z</time>
      </trkpt>
      <trkpt lat="46.42839" lon="-0.18574">
        <ele>117.2</ele>
        <time>2020-05-30T20:15:05Z</time>
      </trkpt>
      <trkpt lat="46.42838" lon="-0.18575">
        <ele>117.1</ele>
        <time>2020-05-30T20:15:06Z</time>
      </trkpt>
      <trkpt lat="46.42838" lon="-0.18576">
        <ele>117</ele>
        <time>2020-05-30T20:15:07Z</time>
      </trkpt>
      <trkpt lat="46.42837" lon="-0.18578">
        <ele>116.9</ele>
        <time>2020-05-30T20:15:08Z</time>
      </trkpt>
      <trkpt lat="46.42836" lon="-0.18579">
        <ele>116.8</ele>
        <time>2020-05-30T20:15:09Z</time>
      </trkpt>
      <trkpt lat="46.42834" lon="-0.1858">
        <ele>116.7</ele>
        <time>2020-05-30T20:15:10Z</time>
      </trkpt>
      <trkpt lat="46.42833" lon="-0.18581">
        <ele>116.6</ele>
        <time>2020-05-30T20:15:11Z</time>
      </trkpt>
      <trkpt lat="46.42832" lon="-0.18581">
        <ele>116.6</ele>
        <time>2020-05-30T20:15:12Z</time>
      </trkpt>
      <trkpt lat="46.4283" lon="-0.18582">
        <ele>116.4</ele>
        <time>2020-05-30T20:15:13Z</time>
      </trkpt>
      <trkpt lat="46.42829" lon="-0.18583">
        <ele>116.3</ele>
        <time>2020-05-30T20:15:14Z</time>
      </trkpt>
      <trkpt lat="46.42828" lon="-0.18584">
        <ele>116.3</ele>
        <time>2020-05-30T20:15:15Z</time>
      </trkpt>
      <trkpt lat="46.42826" lon="-0.18585">
        <ele>116.2</ele>
        <time>2020-05-30T20:15:16Z</time>
      </trkpt>
      <trkpt lat="46.42825" lon="-0.18587">
        <ele>116.1</ele>
        <time>2020-05-30T20:15:17Z</time>
      </trkpt>
      <trkpt lat="46.42824" lon="-0.18588">
        <ele>116</ele>
        <time>2020-05-30T20:15:18Z</time>
      </trkpt>
      <trkpt lat="46.42823" lon="-0.18589">
        <ele>115.8</ele>
        <time>2020-05-30T20:15:19Z</time>
      </trkpt>
      <trkpt lat="46.42821" lon="-0.1859">
        <ele>115.7</ele>
        <time>2020-05-30T20:15:20Z</time>
      </trkpt>
      <trkpt lat="46.42819" lon="-0.18591">
        <ele>115.6</ele>
        <time>2020-05-30T20:15:21Z</time>
      </trkpt>
      <trkpt lat="46.42818" lon="-0.18592">
        <ele>115.5</ele>
        <time>2020-05-30T20:15:22Z</time>
      </trkpt>
      <trkpt lat="46.42816" lon="-0.18592">
        <ele>115.4</ele>
        <time>2020-05-30T20:15:23Z</time>
      </trkpt>
      <trkpt lat="46.42814" lon="-0.18593">
        <ele>115.3</ele>
        <time>2020-05-30T20:15:24Z</time>
      </trkpt>
      <trkpt lat="46.42813" lon="-0.18593">
        <ele>115.2</ele>
        <time>2020-05-30T20:15:25Z</time>
      </trkpt>
      <trkpt lat="46.42812" lon="-0.18594">
        <ele>115.1</ele>
        <time>2020-05-30T20:15:26Z</time>
      </trkpt>
      <trkpt lat="46.4281" lon="-0.18594">
        <ele>114.7</ele>
        <time>2020-05-30T20:15:27Z</time>
      </trkpt>
      <trkpt lat="46.42809" lon="-0.18594">
        <ele>114.8</ele>
        <time>2020-05-30T20:15:28Z</time>
      </trkpt>
      <trkpt lat="46.42808" lon="-0.18594">
        <ele>114.9</ele>
        <time>2020-05-30T20:15:29Z</time>
      </trkpt>
      <trkpt lat="46.42809" lon="-0.18595">
        <ele>114.9</ele>
        <time>2020-05-30T20:15:30Z</time>
      </trkpt>
      <trkpt lat="46.42808" lon="-0.18595">
        <ele>114.9</ele>
        <time>2020-05-30T20:15:31Z</time>
      </trkpt>
      <trkpt lat="46.42808" lon="-0.18595">
        <ele>114.9</ele>
        <time>2020-05-30T20:15:32Z</time>
      </trkpt>
      <trkpt lat="46.42808" lon="-0.18595">
        <ele>114.9</ele>
        <time>2020-05-30T20:15:33Z</time>
      </trkpt>
      <trkpt lat="46.42808" lon="-0.18597">
        <ele>115.1</ele>
        <time>2020-05-30T20:15:34Z</time>
      </trkpt>
      <trkpt lat="46.42809" lon="-0.18599">
        <ele>115.2</ele>
        <time>2020-05-30T20:15:35Z</time>
      </trkpt>
      <trkpt lat="46.4281" lon="-0.18601">
        <ele>115.3</ele>
        <time>2020-05-30T20:15:36Z</time>
      </trkpt>
      <trkpt lat="46.42811" lon="-0.18602">
        <ele>115.4</ele>
        <time>2020-05-30T20:15:37Z</time>
      </trkpt>
      <trkpt lat="46.42811" lon="-0.18602">
        <ele>115.4</ele>
        <time>2020-05-30T20:15:38Z</time>
      </trkpt>
      <trkpt lat="46.42811" lon="-0.18603">
        <ele>115.5</ele>
        <time>2020-05-30T20:15:39Z</time>
      </trkpt>
      <trkpt lat="46.42812" lon="-0.18605">
        <ele>115.6</ele>
        <time>2020-05-30T20:15:40Z</time>
      </trkpt>
      <trkpt lat="46.42813" lon="-0.18607">
        <ele>115.8</ele>
        <time>2020-05-30T20:15:41Z</time>
      </trkpt>
      <trkpt lat="46.42814" lon="-0.18607">
        <ele>115.8</ele>
        <time>2020-05-30T20:15:42Z</time>
      </trkpt>
      <trkpt lat="46.42814" lon="-0.18608">
        <ele>115.9</ele>
        <time>2020-05-30T20:15:43Z</time>
      </trkpt>
      <trkpt lat="46.42815" lon="-0.18608">
        <ele>115.9</ele>
        <time>2020-05-30T20:15:44Z</time>
      </trkpt>
      <trkpt lat="46.42815" lon="-0.18609">
        <ele>116</ele>
        <time>2020-05-30T20:15:45Z</time>
      </trkpt>
      <trkpt lat="46.42816" lon="-0.1861">
        <ele>116.1</ele>
        <time>2020-05-30T20:15:46Z</time>
      </trkpt>
      <trkpt lat="46.42816" lon="-0.18611">
        <ele>116.1</ele>
        <time>2020-05-30T20:15:47Z</time>
      </trkpt>
      <trkpt lat="46.42817" lon="-0.18612">
        <ele>116.3</ele>
        <time>2020-05-30T20:15:48Z</time>
      </trkpt>
      <trkpt lat="46.42818" lon="-0.18613">
        <ele>116.3</ele>
        <time>2020-05-30T20:15:49Z</time>
      </trkpt>
      <trkpt lat="46.42819" lon="-0.18613">
        <ele>116.4</ele>
        <time>2020-05-30T20:15:50Z</time>
      </trkpt>
      <trkpt lat="46.4282" lon="-0.18613">
        <ele>116.5</ele>
        <time>2020-05-30T20:15:51Z</time>
      </trkpt>
      <trkpt lat="46.42821" lon="-0.18613">
        <ele>116.6</ele>
        <time>2020-05-30T20:15:52Z</time>
      </trkpt>
      <trkpt lat="46.42822" lon="-0.18613">
        <ele>116.7</ele>
        <time>2020-05-30T20:15:53Z</time>
      </trkpt>
      <trkpt lat="46.42823" lon="-0.18613">
        <ele>116.7</ele>
        <time>2020-05-30T20:15:54Z</time>
      </trkpt>
      <trkpt lat="46.42824" lon="-0.18613">
        <ele>116.8</ele>
        <time>2020-05-30T20:15:55Z</time>
      </trkpt>
      <trkpt lat="46.42825" lon="-0.18613">
        <ele>116.9</ele>
        <time>2020-05-30T20:15:56Z</time>
      </trkpt>
      <trkpt lat="46.42826" lon="-0.18613">
        <ele>117</ele>
        <time>2020-05-30T20:15:57Z</time>
      </trkpt>
      <trkpt lat="46.42827" lon="-0.18613">
        <ele>117.1</ele>
        <time>2020-05-30T20:15:58Z</time>
      </trkpt>
      <trkpt lat="46.42828" lon="-0.18613">
        <ele>117.1</ele>
        <time>2020-05-30T20:15:59Z</time>
      </trkpt>
      <trkpt lat="46.42828" lon="-0.18613">
        <ele>117.1</ele>
        <time>2020-05-30T20:16:00Z</time>
      </trkpt>
      <trkpt lat="46.42828" lon="-0.18613">
        <ele>117.2</ele>
        <time>2020-05-30T20:16:01Z</time>
      </trkpt>
      <trkpt lat="46.42829" lon="-0.18613">
        <ele>117.3</ele>
        <time>2020-05-30T20:16:02Z</time>
      </trkpt>
      <trkpt lat="46.4283" lon="-0.18612">
        <ele>117.3</ele>
        <time>2020-05-30T20:16:03Z</time>
      </trkpt>
      <trkpt lat="46.42831" lon="-0.18612">
        <ele>117.4</ele>
        <time>2020-05-30T20:16:04Z</time>
      </trkpt>
      <trkpt lat="46.42831" lon="-0.18612">
        <ele>117.4</ele>
        <time>2020-05-30T20:16:05Z</time>
      </trkpt>
      <trkpt lat="46.42831" lon="-0.18612">
        <ele>117.4</ele>
        <time>2020-05-30T20:16:06Z</time>
      </trkpt>
      <trkpt lat="46.42831" lon="-0.18611">
        <ele>117.4</ele>
        <time>2020-05-30T20:16:07Z</time>
      </trkpt>
      <trkpt lat="46.42832" lon="-0.1861">
        <ele>117.5</ele>
        <time>2020-05-30T20:16:08Z</time>
      </trkpt>
      <trkpt lat="46.42832" lon="-0.18609">
        <ele>117.6</ele>
        <time>2020-05-30T20:16:09Z</time>
      </trkpt>
      <trkpt lat="46.42833" lon="-0.18608">
        <ele>117.7</ele>
        <time>2020-05-30T20:16:10Z</time>
      </trkpt>
      <trkpt lat="46.42834" lon="-0.18606">
        <ele>117.8</ele>
        <time>2020-05-30T20:16:11Z</time>
      </trkpt>
      <trkpt lat="46.42835" lon="-0.18604">
        <ele>117.9</ele>
        <time>2020-05-30T20:16:12Z</time>
      </trkpt>
      <trkpt lat="46.42836" lon="-0.18602">
        <ele>118</ele>
        <time>2020-05-30T20:16:13Z</time>
      </trkpt>
      <trkpt lat="46.42837" lon="-0.186">
        <ele>118.1</ele>
        <time>2020-05-30T20:16:14Z</time>
      </trkpt>
      <trkpt lat="46.42838" lon="-0.18599">
        <ele>118.2</ele>
        <time>2020-05-30T20:16:15Z</time>
      </trkpt>
      <trkpt lat="46.42839" lon="-0.18597">
        <ele>118.3</ele>
        <time>2020-05-30T20:16:16Z</time>
      </trkpt>
      <trkpt lat="46.4284" lon="-0.18596">
        <ele>118.4</ele>
        <time>2020-05-30T20:16:17Z</time>
      </trkpt>
      <trkpt lat="46.42841" lon="-0.18596">
        <ele>118.4</ele>
        <time>2020-05-30T20:16:18Z</time>
      </trkpt>
      <trkpt lat="46.42842" lon="-0.18595">
        <ele>118.4</ele>
        <time>2020-05-30T20:16:19Z</time>
      </trkpt>
      <trkpt lat="46.42842" lon="-0.18595">
        <ele>118.4</ele>
        <time>2020-05-30T20:16:20Z</time>
      </trkpt>
      <trkpt lat="46.42842" lon="-0.18595">
        <ele>118.4</ele>
        <time>2020-05-30T20:16:21Z</time>
      </trkpt>
      <trkpt lat="46.42842" lon="-0.18595">
        <ele>118.4</ele>
        <time>2020-05-30T20:16:22Z</time>
      </trkpt>
      <trkpt lat="46.42842" lon="-0.18595">
        <ele>118.4</ele>
        <time>2020-05-30T20:16:23Z</time>
      </trkpt>
      <trkpt lat="46.42843" lon="-0.18593">
        <ele>118.5</ele>
        <time>2020-05-30T20:16:24Z</time>
      </trkpt>
      <trkpt lat="46.42845" lon="-0.1859">
        <ele>118.5</ele>
        <time>2020-05-30T20:16:25Z</time>
      </trkpt>
      <trkpt lat="46.42846" lon="-0.18589">
        <ele>118.5</ele>
        <time>2020-05-30T20:16:26Z</time>
      </trkpt>
      <trkpt lat="46.42847" lon="-0.18587">
        <ele>118.6</ele>
        <time>2020-05-30T20:16:27Z</time>
      </trkpt>
      <trkpt lat="46.42847" lon="-0.18585">
        <ele>118.6</ele>
        <time>2020-05-30T20:16:28Z</time>
      </trkpt>
      <trkpt lat="46.42849" lon="-0.18583">
        <ele>118.7</ele>
        <time>2020-05-30T20:16:29Z</time>
      </trkpt>
      <trkpt lat="46.4285" lon="-0.18582">
        <ele>118.7</ele>
        <time>2020-05-30T20:16:30Z</time>
      </trkpt>
      <trkpt lat="46.42851" lon="-0.18581">
        <ele>118.7</ele>
        <time>2020-05-30T20:16:31Z</time>
      </trkpt>
      <trkpt lat="46.42852" lon="-0.18581">
        <ele>118.8</ele>
        <time>2020-05-30T20:16:32Z</time>
      </trkpt>
      <trkpt lat="46.42853" lon="-0.1858">
        <ele>118.8</ele>
        <time>2020-05-30T20:16:33Z</time>
      </trkpt>
      <trkpt lat="46.42853" lon="-0.18579">
        <ele>118.8</ele>
        <time>2020-05-30T20:16:34Z</time>
      </trkpt>
      <trkpt lat="46.42855" lon="-0.18577">
        <ele>118.9</ele>
        <time>2020-05-30T20:16:35Z</time>
      </trkpt>
      <trkpt lat="46.42855" lon="-0.18577">
        <ele>118.9</ele>
        <time>2020-05-30T20:16:36Z</time>
      </trkpt>
      <trkpt lat="46.42856" lon="-0.18576">
        <ele>118.9</ele>
        <time>2020-05-30T20:16:37Z</time>
      </trkpt>
      <trkpt lat="46.42856" lon="-0.18575">
        <ele>119</ele>
        <time>2020-05-30T20:16:38Z</time>
      </trkpt>
      <trkpt lat="46.42858" lon="-0.18573">
        <ele>119</ele>
        <time>2020-05-30T20:16:39Z</time>
      </trkpt>
      <trkpt lat="46.4286" lon="-0.18572">
        <ele>119.1</ele>
        <time>2020-05-30T20:16:40Z</time>
      </trkpt>
      <trkpt lat="46.42861" lon="-0.18572">
        <ele>119.2</ele>
        <time>2020-05-30T20:16:41Z</time>
      </trkpt>
      <trkpt lat="46.42862" lon="-0.18572">
        <ele>119.2</ele>
        <time>2020-05-30T20:16:42Z</time>
      </trkpt>
      <trkpt lat="46.42863" lon="-0.18572">
        <ele>119.2</ele>
        <time>2020-05-30T20:16:43Z</time>
      </trkpt>
      <trkpt lat="46.42863" lon="-0.18572">
        <ele>119.3</ele>
        <time>2020-05-30T20:16:44Z</time>
      </trkpt>
      <trkpt lat="46.42863" lon="-0.18572">
        <ele>119.3</ele>
        <time>2020-05-30T20:16:45Z</time>
      </trkpt>
      <trkpt lat="46.42863" lon="-0.18572">
        <ele>119.3</ele>
        <time>2020-05-30T20:16:46Z</time>
      </trkpt>
      <trkpt lat="46.42863" lon="-0.18572">
        <ele>119.3</ele>
        <time>2020-05-30T20:16:47Z</time>
      </trkpt>
      <trkpt lat="46.42864" lon="-0.18573">
        <ele>119.3</ele>
        <time>2020-05-30T20:16:48Z</time>
      </trkpt>
      <trkpt lat="46.42865" lon="-0.18573">
        <ele>119.3</ele>
        <time>2020-05-30T20:16:49Z</time>
      </trkpt>
      <trkpt lat="46.42865" lon="-0.18574">
        <ele>119.3</ele>
        <time>2020-05-30T20:16:50Z</time>
      </trkpt>
      <trkpt lat="46.42866" lon="-0.18574">
        <ele>119.4</ele>
        <time>2020-05-30T20:16:51Z</time>
      </trkpt>
      <trkpt lat="46.42866" lon="-0.18574">
        <ele>119.4</ele>
        <time>2020-05-30T20:16:52Z</time>
      </trkpt>
      <trkpt lat="46.42867" lon="-0.18575">
        <ele>119.4</ele>
        <time>2020-05-30T20:16:53Z</time>
      </trkpt>
      <trkpt lat="46.42867" lon="-0.18575">
        <ele>119.4</ele>
        <time>2020-05-30T20:16:54Z</time>
      </trkpt>
      <trkpt lat="46.42868" lon="-0.18575">
        <ele>119.5</ele>
        <time>2020-05-30T20:16:55Z</time>
      </trkpt>
      <trkpt lat="46.42869" lon="-0.18576">
        <ele>119.5</ele>
        <time>2020-05-30T20:16:56Z</time>
      </trkpt>
      <trkpt lat="46.4287" lon="-0.18576">
        <ele>119.5</ele>
        <time>2020-05-30T20:16:57Z</time>
      </trkpt>
      <trkpt lat="46.4287" lon="-0.18576">
        <ele>119.6</ele>
        <time>2020-05-30T20:16:58Z</time>
      </trkpt>
      <trkpt lat="46.42871" lon="-0.18576">
        <ele>119.6</ele>
        <time>2020-05-30T20:16:59Z</time>
      </trkpt>
      <trkpt lat="46.42872" lon="-0.18576">
        <ele>119.6</ele>
        <time>2020-05-30T20:17:00Z</time>
      </trkpt>
      <trkpt lat="46.42873" lon="-0.18577">
        <ele>119.7</ele>
        <time>2020-05-30T20:17:01Z</time>
      </trkpt>
      <trkpt lat="46.42873" lon="-0.18578">
        <ele>119.7</ele>
        <time>2020-05-30T20:17:02Z</time>
      </trkpt>
      <trkpt lat="46.42874" lon="-0.18578">
        <ele>119.7</ele>
        <time>2020-05-30T20:17:03Z</time>
      </trkpt>
      <trkpt lat="46.42874" lon="-0.18578">
        <ele>119.7</ele>
        <time>2020-05-30T20:17:04Z</time>
      </trkpt>
      <trkpt lat="46.42874" lon="-0.18579">
        <ele>119.7</ele>
        <time>2020-05-30T20:17:05Z</time>
      </trkpt>
      <trkpt lat="46.42874" lon="-0.18579">
        <ele>119.7</ele>
        <time>2020-05-30T20:17:06Z</time>
      </trkpt>
      <trkpt lat="46.42875" lon="-0.18579">
        <ele>119.8</ele>
        <time>2020-05-30T20:17:07Z</time>
      </trkpt>
      <trkpt lat="46.42876" lon="-0.18579">
        <ele>119.8</ele>
        <time>2020-05-30T20:17:08Z</time>
      </trkpt>
      <trkpt lat="46.42877" lon="-0.1858">
        <ele>119.9</ele>
        <time>2020-05-30T20:17:09Z</time>
      </trkpt>
      <trkpt lat="46.42878" lon="-0.18581">
        <ele>119.9</ele>
        <time>2020-05-30T20:17:10Z</time>
      </trkpt>
      <trkpt lat="46.42879" lon="-0.18582">
        <ele>119.9</ele>
        <time>2020-05-30T20:17:11Z</time>
      </trkpt>
      <trkpt lat="46.42879" lon="-0.18582">
        <ele>119.9</ele>
        <time>2020-05-30T20:17:12Z</time>
      </trkpt>
      <trkpt lat="46.42881" lon="-0.18581">
        <ele>120</ele>
        <time>2020-05-30T20:17:13Z</time>
      </trkpt>
      <trkpt lat="46.42882" lon="-0.1858">
        <ele>120.1</ele>
        <time>2020-05-30T20:17:14Z</time>
      </trkpt>
      <trkpt lat="46.42883" lon="-0.1858">
        <ele>120.1</ele>
        <time>2020-05-30T20:17:15Z</time>
      </trkpt>
      <trkpt lat="46.42885" lon="-0.18579">
        <ele>120.2</ele>
        <time>2020-05-30T20:17:16Z</time>
      </trkpt>
      <trkpt lat="46.42886" lon="-0.18578">
        <ele>120.2</ele>
        <time>2020-05-30T20:17:17Z</time>
      </trkpt>
      <trkpt lat="46.42888" lon="-0.18577">
        <ele>120.3</ele>
        <time>2020-05-30T20:17:18Z</time>
      </trkpt>
      <trkpt lat="46.42889" lon="-0.18577">
        <ele>120.3</ele>
        <time>2020-05-30T20:17:19Z</time>
      </trkpt>
      <trkpt lat="46.4289" lon="-0.18576">
        <ele>120.4</ele>
        <time>2020-05-30T20:17:20Z</time>
      </trkpt>
      <trkpt lat="46.42891" lon="-0.18576">
        <ele>120.4</ele>
        <time>2020-05-30T20:17:21Z</time>
      </trkpt>
      <trkpt lat="46.42892" lon="-0.18576">
        <ele>120.4</ele>
        <time>2020-05-30T20:17:22Z</time>
      </trkpt>
      <trkpt lat="46.42893" lon="-0.18575">
        <ele>120.5</ele>
        <time>2020-05-30T20:17:23Z</time>
      </trkpt>
      <trkpt lat="46.42894" lon="-0.18575">
        <ele>120.5</ele>
        <time>2020-05-30T20:17:24Z</time>
      </trkpt>
      <trkpt lat="46.42896" lon="-0.18575">
        <ele>120.6</ele>
        <time>2020-05-30T20:17:25Z</time>
      </trkpt>
      <trkpt lat="46.42899" lon="-0.18575">
        <ele>120.7</ele>
        <time>2020-05-30T20:17:26Z</time>
      </trkpt>
      <trkpt lat="46.429" lon="-0.18575">
        <ele>120.7</ele>
        <time>2020-05-30T20:17:27Z</time>
      </trkpt>
      <trkpt lat="46.42902" lon="-0.18575">
        <ele>120.8</ele>
        <time>2020-05-30T20:17:28Z</time>
      </trkpt>
      <trkpt lat="46.42903" lon="-0.18575">
        <ele>120.8</ele>
        <time>2020-05-30T20:17:29Z</time>
      </trkpt>
      <trkpt lat="46.42904" lon="-0.18575">
        <ele>120.8</ele>
        <time>2020-05-30T20:17:30Z</time>
      </trkpt>
      <trkpt lat="46.42904" lon="-0.18576">
        <ele>120.8</ele>
        <time>2020-05-30T20:17:31Z</time>
      </trkpt>
      <trkpt lat="46.42905" lon="-0.18576">
        <ele>120.8</ele>
        <time>2020-05-30T20:17:32Z</time>
      </trkpt>
      <trkpt lat="46.42906" lon="-0.18575">
        <ele>120.8</ele>
        <time>2020-05-30T20:17:33Z</time>
      </trkpt>
      <trkpt lat="46.42907" lon="-0.18575">
        <ele>120.8</ele>
        <time>2020-05-30T20:17:34Z</time>
      </trkpt>
      <trkpt lat="46.42908" lon="-0.18574">
        <ele>120.7</ele>
        <time>2020-05-30T20:17:35Z</time>
      </trkpt>
      <trkpt lat="46.42909" lon="-0.18575">
        <ele>120.7</ele>
        <time>2020-05-30T20:17:36Z</time>
      </trkpt>
      <trkpt lat="46.4291" lon="-0.18575">
        <ele>120.7</ele>
        <time>2020-05-30T20:17:37Z</time>
      </trkpt>
      <trkpt lat="46.42912" lon="-0.18574">
        <ele>120.6</ele>
        <time>2020-05-30T20:17:38Z</time>
      </trkpt>
      <trkpt lat="46.42912" lon="-0.18574">
        <ele>120.6</ele>
        <time>2020-05-30T20:17:39Z</time>
      </trkpt>
      <trkpt lat="46.42912" lon="-0.18574">
        <ele>120.6</ele>
        <time>2020-05-30T20:17:40Z</time>
      </trkpt>
      <trkpt lat="46.42913" lon="-0.18575">
        <ele>120.6</ele>
        <time>2020-05-30T20:17:41Z</time>
      </trkpt>
      <trkpt lat="46.42913" lon="-0.18576">
        <ele>120.6</ele>
        <time>2020-05-30T20:17:42Z</time>
      </trkpt>
      <trkpt lat="46.42914" lon="-0.18577">
        <ele>120.6</ele>
        <time>2020-05-30T20:17:43Z</time>
      </trkpt>
      <trkpt lat="46.42914" lon="-0.18578">
        <ele>120.5</ele>
        <time>2020-05-30T20:17:44Z</time>
      </trkpt>
      <trkpt lat="46.42915" lon="-0.18578">
        <ele>120.5</ele>
        <time>2020-05-30T20:17:45Z</time>
      </trkpt>
      <trkpt lat="46.42915" lon="-0.18578">
        <ele>120.5</ele>
        <time>2020-05-30T20:17:46Z</time>
      </trkpt>
      <trkpt lat="46.42915" lon="-0.18578">
        <ele>120.5</ele>
        <time>2020-05-30T20:17:47Z</time>
      </trkpt>
      <trkpt lat="46.42915" lon="-0.18578">
        <ele>120.5</ele>
        <time>2020-05-30T20:17:48Z</time>
      </trkpt>
      <trkpt lat="46.42915" lon="-0.18577">
        <ele>120.5</ele>
        <time>2020-05-30T20:17:49Z</time>
      </trkpt>
      <trkpt lat="46.42915" lon="-0.18577">
        <ele>120.5</ele>
        <time>2020-05-30T20:17:50Z</time>
      </trkpt>
      <trkpt lat="46.42915" lon="-0.18578">
        <ele>120.5</ele>
        <time>2020-05-30T20:17:51Z</time>
      </trkpt>
      <trkpt lat="46.42915" lon="-0.18579">
        <ele>120.4</ele>
        <time>2020-05-30T20:17:52Z</time>
      </trkpt>
      <trkpt lat="46.42915" lon="-0.1858">
        <ele>120.4</ele>
        <time>2020-05-30T20:17:53Z</time>
      </trkpt>
      <trkpt lat="46.42914" lon="-0.18581">
        <ele>120.4</ele>
        <time>2020-05-30T20:17:54Z</time>
      </trkpt>
      <trkpt lat="46.42914" lon="-0.18582">
        <ele>120.4</ele>
        <time>2020-05-30T20:17:55Z</time>
      </trkpt>
      <trkpt lat="46.42914" lon="-0.18581">
        <ele>120.4</ele>
        <time>2020-05-30T20:17:56Z</time>
      </trkpt>
      <trkpt lat="46.42913" lon="-0.18581">
        <ele>120.4</ele>
        <time>2020-05-30T20:17:57Z</time>
      </trkpt>
      <trkpt lat="46.42912" lon="-0.18581">
        <ele>120.3</ele>
        <time>2020-05-30T20:17:58Z</time>
      </trkpt>
      <trkpt lat="46.42911" lon="-0.18581">
        <ele>120.3</ele>
        <time>2020-05-30T20:17:59Z</time>
      </trkpt>
      <trkpt lat="46.42911" lon="-0.18581">
        <ele>120.3</ele>
        <time>2020-05-30T20:18:00Z</time>
      </trkpt>
      <trkpt lat="46.42911" lon="-0.18581">
        <ele>120.3</ele>
        <time>2020-05-30T20:18:01Z</time>
      </trkpt>
      <trkpt lat="46.4291" lon="-0.1858">
        <ele>120.3</ele>
        <time>2020-05-30T20:18:02Z</time>
      </trkpt>
      <trkpt lat="46.42909" lon="-0.18579">
        <ele>120.2</ele>
        <time>2020-05-30T20:18:03Z</time>
      </trkpt>
      <trkpt lat="46.42909" lon="-0.18579">
        <ele>120.2</ele>
        <time>2020-05-30T20:18:04Z</time>
      </trkpt>
      <trkpt lat="46.42909" lon="-0.18579">
        <ele>120.2</ele>
        <time>2020-05-30T20:18:05Z</time>
      </trkpt>
      <trkpt lat="46.42909" lon="-0.18578">
        <ele>120.2</ele>
        <time>2020-05-30T20:18:06Z</time>
      </trkpt>
      <trkpt lat="46.42908" lon="-0.18578">
        <ele>120.2</ele>
        <time>2020-05-30T20:18:07Z</time>
      </trkpt>
      <trkpt lat="46.42907" lon="-0.18578">
        <ele>120.1</ele>
        <time>2020-05-30T20:18:08Z</time>
      </trkpt>
      <trkpt lat="46.42905" lon="-0.18578">
        <ele>120.1</ele>
        <time>2020-05-30T20:18:09Z</time>
      </trkpt>
      <trkpt lat="46.42903" lon="-0.18579">
        <ele>120</ele>
        <time>2020-05-30T20:18:10Z</time>
      </trkpt>
      <trkpt lat="46.42902" lon="-0.18579">
        <ele>120</ele>
        <time>2020-05-30T20:18:11Z</time>
      </trkpt>
      <trkpt lat="46.42902" lon="-0.18579">
        <ele>120</ele>
        <time>2020-05-30T20:18:12Z</time>
      </trkpt>
      <trkpt lat="46.42901" lon="-0.18579">
        <ele>120</ele>
        <time>2020-05-30T20:18:13Z</time>
      </trkpt>
      <trkpt lat="46.429" lon="-0.18579">
        <ele>119.9</ele>
        <time>2020-05-30T20:18:14Z</time>
      </trkpt>
      <trkpt lat="46.42899" lon="-0.1858">
        <ele>119.9</ele>
        <time>2020-05-30T20:18:15Z</time>
      </trkpt>
      <trkpt lat="46.42898" lon="-0.18581">
        <ele>119.9</ele>
        <time>2020-05-30T20:18:16Z</time>
      </trkpt>
      <trkpt lat="46.42897" lon="-0.18582">
        <ele>119.8</ele>
        <time>2020-05-30T20:18:17Z</time>
      </trkpt>
      <trkpt lat="46.42896" lon="-0.18582">
        <ele>119.8</ele>
        <time>2020-05-30T20:18:18Z</time>
      </trkpt>
      <trkpt lat="46.42894" lon="-0.18582">
        <ele>119.8</ele>
        <time>2020-05-30T20:18:19Z</time>
      </trkpt>
      <trkpt lat="46.42893" lon="-0.18581">
        <ele>119.7</ele>
        <time>2020-05-30T20:18:20Z</time>
      </trkpt>
      <trkpt lat="46.42891" lon="-0.18581">
        <ele>119.7</ele>
        <time>2020-05-30T20:18:21Z</time>
      </trkpt>
      <trkpt lat="46.4289" lon="-0.18581">
        <ele>119.6</ele>
        <time>2020-05-30T20:18:22Z</time>
      </trkpt>
      <trkpt lat="46.42888" lon="-0.18581">
        <ele>119.6</ele>
        <time>2020-05-30T20:18:23Z</time>
      </trkpt>
      <trkpt lat="46.42887" lon="-0.18581">
        <ele>119.5</ele>
        <time>2020-05-30T20:18:24Z</time>
      </trkpt>
      <trkpt lat="46.42884" lon="-0.18582">
        <ele>119.5</ele>
        <time>2020-05-30T20:18:25Z</time>
      </trkpt>
      <trkpt lat="46.42883" lon="-0.18582">
        <ele>119.4</ele>
        <time>2020-05-30T20:18:26Z</time>
      </trkpt>
      <trkpt lat="46.42879" lon="-0.18584">
        <ele>119.3</ele>
        <time>2020-05-30T20:18:27Z</time>
      </trkpt>
      <trkpt lat="46.42878" lon="-0.18584">
        <ele>119.3</ele>
        <time>2020-05-30T20:18:28Z</time>
      </trkpt>
      <trkpt lat="46.42876" lon="-0.18585">
        <ele>119.2</ele>
        <time>2020-05-30T20:18:29Z</time>
      </trkpt>
      <trkpt lat="46.42875" lon="-0.18585">
        <ele>119.2</ele>
        <time>2020-05-30T20:18:30Z</time>
      </trkpt>
      <trkpt lat="46.42871" lon="-0.18584">
        <ele>119.1</ele>
        <time>2020-05-30T20:18:31Z</time>
      </trkpt>
      <trkpt lat="46.4287" lon="-0.18584">
        <ele>119</ele>
        <time>2020-05-30T20:18:32Z</time>
      </trkpt>
      <trkpt lat="46.42867" lon="-0.18585">
        <ele>118.9</ele>
        <time>2020-05-30T20:18:33Z</time>
      </trkpt>
      <trkpt lat="46.42866" lon="-0.18585">
        <ele>118.9</ele>
        <time>2020-05-30T20:18:34Z</time>
      </trkpt>
      <trkpt lat="46.42863" lon="-0.18585">
        <ele>118.8</ele>
        <time>2020-05-30T20:18:35Z</time>
      </trkpt>
      <trkpt lat="46.42861" lon="-0.18587">
        <ele>118.8</ele>
        <time>2020-05-30T20:18:36Z</time>
      </trkpt>
      <trkpt lat="46.4286" lon="-0.18587">
        <ele>118.7</ele>
        <time>2020-05-30T20:18:37Z</time>
      </trkpt>
      <trkpt lat="46.42856" lon="-0.18588">
        <ele>118.7</ele>
        <time>2020-05-30T20:18:38Z</time>
      </trkpt>
      <trkpt lat="46.42855" lon="-0.18588">
        <ele>118.6</ele>
        <time>2020-05-30T20:18:39Z</time>
      </trkpt>
      <trkpt lat="46.42852" lon="-0.18589">
        <ele>118.6</ele>
        <time>2020-05-30T20:18:40Z</time>
      </trkpt>
      <trkpt lat="46.42852" lon="-0.18589">
        <ele>118.6</ele>
        <time>2020-05-30T20:18:41Z</time>
      </trkpt>
      <trkpt lat="46.42849" lon="-0.1859">
        <ele>118.5</ele>
        <time>2020-05-30T20:18:42Z</time>
      </trkpt>
      <trkpt lat="46.42848" lon="-0.1859">
        <ele>118.5</ele>
        <time>2020-05-30T20:18:43Z</time>
      </trkpt>
      <trkpt lat="46.42846" lon="-0.18591">
        <ele>118.5</ele>
        <time>2020-05-30T20:18:44Z</time>
      </trkpt>
      <trkpt lat="46.42845" lon="-0.18593">
        <ele>118.5</ele>
        <time>2020-05-30T20:18:45Z</time>
      </trkpt>
      <trkpt lat="46.42843" lon="-0.18593">
        <ele>118.4</ele>
        <time>2020-05-30T20:18:46Z</time>
      </trkpt>
      <trkpt lat="46.42842" lon="-0.18594">
        <ele>118.4</ele>
        <time>2020-05-30T20:18:47Z</time>
      </trkpt>
      <trkpt lat="46.42842" lon="-0.18595">
        <ele>118.4</ele>
        <time>2020-05-30T20:18:48Z</time>
      </trkpt>
      <trkpt lat="46.42841" lon="-0.18596">
        <ele>118.4</ele>
        <time>2020-05-30T20:18:49Z</time>
      </trkpt>
      <trkpt lat="46.4284" lon="-0.18597">
        <ele>118.4</ele>
        <time>2020-05-30T20:18:50Z</time>
      </trkpt>
      <trkpt lat="46.42839" lon="-0.18597">
        <ele>118.3</ele>
        <time>2020-05-30T20:18:51Z</time>
      </trkpt>
      <trkpt lat="46.42837" lon="-0.18599">
        <ele>118.2</ele>
        <time>2020-05-30T20:18:52Z</time>
      </trkpt>
      <trkpt lat="46.42836" lon="-0.18601">
        <ele>118.1</ele>
        <time>2020-05-30T20:18:53Z</time>
      </trkpt>
      <trkpt lat="46.42835" lon="-0.18603">
        <ele>118</ele>
        <time>2020-05-30T20:18:54Z</time>
      </trkpt>
      <trkpt lat="46.42835" lon="-0.18605">
        <ele>118</ele>
        <time>2020-05-30T20:18:55Z</time>
      </trkpt>
      <trkpt lat="46.42835" lon="-0.18607">
        <ele>117.9</ele>
        <time>2020-05-30T20:18:56Z</time>
      </trkpt>
      <trkpt lat="46.42835" lon="-0.18609">
        <ele>117.8</ele>
        <time>2020-05-30T20:18:57Z</time>
      </trkpt>
      <trkpt lat="46.42835" lon="-0.1861">
        <ele>117.8</ele>
        <time>2020-05-30T20:18:58Z</time>
      </trkpt>
      <trkpt lat="46.42834" lon="-0.18612">
        <ele>117.7</ele>
        <time>2020-05-30T20:18:59Z</time>
      </trkpt>
      <trkpt lat="46.42834" lon="-0.18613">
        <ele>117.6</ele>
        <time>2020-05-30T20:19:00Z</time>
      </trkpt>
      <trkpt lat="46.42833" lon="-0.18614">
        <ele>117.6</ele>
        <time>2020-05-30T20:19:01Z</time>
      </trkpt>
      <trkpt lat="46.42833" lon="-0.18614">
        <ele>117.5</ele>
        <time>2020-05-30T20:19:02Z</time>
      </trkpt>
      <trkpt lat="46.42833" lon="-0.18615">
        <ele>117.5</ele>
        <time>2020-05-30T20:19:03Z</time>
      </trkpt>
      <trkpt lat="46.42832" lon="-0.18616">
        <ele>117.5</ele>
        <time>2020-05-30T20:19:04Z</time>
      </trkpt>
      <trkpt lat="46.42831" lon="-0.18617">
        <ele>117.4</ele>
        <time>2020-05-30T20:19:05Z</time>
      </trkpt>
      <trkpt lat="46.4283" lon="-0.18618">
        <ele>117.3</ele>
        <time>2020-05-30T20:19:06Z</time>
      </trkpt>
      <trkpt lat="46.42829" lon="-0.18619">
        <ele>117.3</ele>
        <time>2020-05-30T20:19:07Z</time>
      </trkpt>
      <trkpt lat="46.42828" lon="-0.18619">
        <ele>117.2</ele>
        <time>2020-05-30T20:19:08Z</time>
      </trkpt>
      <trkpt lat="46.42827" lon="-0.1862">
        <ele>117.1</ele>
        <time>2020-05-30T20:19:09Z</time>
      </trkpt>
      <trkpt lat="46.42826" lon="-0.18621">
        <ele>117.1</ele>
        <time>2020-05-30T20:19:10Z</time>
      </trkpt>
      <trkpt lat="46.42825" lon="-0.18622">
        <ele>117</ele>
        <time>2020-05-30T20:19:11Z</time>
      </trkpt>
      <trkpt lat="46.42824" lon="-0.18622">
        <ele>116.9</ele>
        <time>2020-05-30T20:19:12Z</time>
      </trkpt>
      <trkpt lat="46.42823" lon="-0.18622">
        <ele>116.9</ele>
        <time>2020-05-30T20:19:13Z</time>
      </trkpt>
      <trkpt lat="46.42822" lon="-0.18622">
        <ele>116.8</ele>
        <time>2020-05-30T20:19:14Z</time>
      </trkpt>
      <trkpt lat="46.4282" lon="-0.18621">
        <ele>116.7</ele>
        <time>2020-05-30T20:19:15Z</time>
      </trkpt>
      <trkpt lat="46.42819" lon="-0.1862">
        <ele>116.6</ele>
        <time>2020-05-30T20:19:16Z</time>
      </trkpt>
      <trkpt lat="46.42818" lon="-0.18619">
        <ele>116.5</ele>
        <time>2020-05-30T20:19:17Z</time>
      </trkpt>
      <trkpt lat="46.42816" lon="-0.18618">
        <ele>116.3</ele>
        <time>2020-05-30T20:19:18Z</time>
      </trkpt>
      <trkpt lat="46.42814" lon="-0.18617">
        <ele>116.2</ele>
        <time>2020-05-30T20:19:19Z</time>
      </trkpt>
      <trkpt lat="46.42812" lon="-0.18615">
        <ele>116</ele>
        <time>2020-05-30T20:19:20Z</time>
      </trkpt>
      <trkpt lat="46.42811" lon="-0.18615">
        <ele>116</ele>
        <time>2020-05-30T20:19:21Z</time>
      </trkpt>
      <trkpt lat="46.4281" lon="-0.18614">
        <ele>115.9</ele>
        <time>2020-05-30T20:19:22Z</time>
      </trkpt>
      <trkpt lat="46.42809" lon="-0.18615">
        <ele>115.8</ele>
        <time>2020-05-30T20:19:23Z</time>
      </trkpt>
      <trkpt lat="46.42809" lon="-0.18615">
        <ele>115.8</ele>
        <time>2020-05-30T20:19:24Z</time>
      </trkpt>
      <trkpt lat="46.42809" lon="-0.18614">
        <ele>115.8</ele>
        <time>2020-05-30T20:19:25Z</time>
      </trkpt>
      <trkpt lat="46.42808" lon="-0.18613">
        <ele>115.8</ele>
        <time>2020-05-30T20:19:26Z</time>
      </trkpt>
      <trkpt lat="46.42808" lon="-0.18612">
        <ele>115.7</ele>
        <time>2020-05-30T20:19:27Z</time>
      </trkpt>
      <trkpt lat="46.42808" lon="-0.18612">
        <ele>115.7</ele>
        <time>2020-05-30T20:19:28Z</time>
      </trkpt>
      <trkpt lat="46.42808" lon="-0.18612">
        <ele>115.7</ele>
        <time>2020-05-30T20:19:29Z</time>
      </trkpt>
      <trkpt lat="46.42808" lon="-0.18612">
        <ele>115.7</ele>
        <time>2020-05-30T20:19:30Z</time>
      </trkpt>
      <trkpt lat="46.42808" lon="-0.18612">
        <ele>115.7</ele>
        <time>2020-05-30T20:19:31Z</time>
      </trkpt>
      <trkpt lat="46.42807" lon="-0.18611">
        <ele>115.6</ele>
        <time>2020-05-30T20:19:32Z</time>
      </trkpt>
      <trkpt lat="46.42805" lon="-0.1861">
        <ele>115.5</ele>
        <time>2020-05-30T20:19:33Z</time>
      </trkpt>
      <trkpt lat="46.42804" lon="-0.18609">
        <ele>115.4</ele>
        <time>2020-05-30T20:19:34Z</time>
      </trkpt>
      <trkpt lat="46.42803" lon="-0.18609">
        <ele>115.3</ele>
        <time>2020-05-30T20:19:35Z</time>
      </trkpt>
      <trkpt lat="46.42803" lon="-0.18608">
        <ele>115.3</ele>
        <time>2020-05-30T20:19:36Z</time>
      </trkpt>
      <trkpt lat="46.42802" lon="-0.18608">
        <ele>115.3</ele>
        <time>2020-05-30T20:19:37Z</time>
      </trkpt>
      <trkpt lat="46.42802" lon="-0.18607">
        <ele>115.2</ele>
        <time>2020-05-30T20:19:38Z</time>
      </trkpt>
      <trkpt lat="46.42802" lon="-0.18607">
        <ele>115.2</ele>
        <time>2020-05-30T20:19:39Z</time>
      </trkpt>
      <trkpt lat="46.42803" lon="-0.18606">
        <ele>115.2</ele>
        <time>2020-05-30T20:19:40Z</time>
      </trkpt>
      <trkpt lat="46.42804" lon="-0.18605">
        <ele>115.1</ele>
        <time>2020-05-30T20:19:41Z</time>
      </trkpt>
      <trkpt lat="46.42805" lon="-0.18604">
        <ele>115</ele>
        <time>2020-05-30T20:19:42Z</time>
      </trkpt>
      <trkpt lat="46.42806" lon="-0.18602">
        <ele>114.9</ele>
        <time>2020-05-30T20:19:43Z</time>
      </trkpt>
      <trkpt lat="46.42807" lon="-0.186">
        <ele>114.8</ele>
        <time>2020-05-30T20:19:44Z</time>
      </trkpt>
      <trkpt lat="46.42807" lon="-0.18599">
        <ele>114.7</ele>
        <time>2020-05-30T20:19:45Z</time>
      </trkpt>
      <trkpt lat="46.42808" lon="-0.18598">
        <ele>114.8</ele>
        <time>2020-05-30T20:19:46Z</time>
      </trkpt>
      <trkpt lat="46.4281" lon="-0.18597">
        <ele>114.9</ele>
        <time>2020-05-30T20:19:47Z</time>
      </trkpt>
      <trkpt lat="46.42812" lon="-0.18594">
        <ele>114.9</ele>
        <time>2020-05-30T20:19:48Z</time>
      </trkpt>
      <trkpt lat="46.42813" lon="-0.18594">
        <ele>114.9</ele>
        <time>2020-05-30T20:19:49Z</time>
      </trkpt>
      <trkpt lat="46.42814" lon="-0.18593">
        <ele>114.9</ele>
        <time>2020-05-30T20:19:50Z</time>
      </trkpt>
      <trkpt lat="46.42814" lon="-0.18593">
        <ele>114.9</ele>
        <time>2020-05-30T20:19:51Z</time>
      </trkpt>
      <trkpt lat="46.42814" lon="-0.18592">
        <ele>115</ele>
        <time>2020-05-30T20:19:52Z</time>
      </trkpt>
      <trkpt lat="46.42814" lon="-0.18591">
        <ele>115</ele>
        <time>2020-05-30T20:19:53Z</time>
      </trkpt>
      <trkpt lat="46.42814" lon="-0.1859">
        <ele>115</ele>
        <time>2020-05-30T20:19:54Z</time>
      </trkpt>
      <trkpt lat="46.42814" lon="-0.18589">
        <ele>115</ele>
        <time>2020-05-30T20:19:55Z</time>
      </trkpt>
      <trkpt lat="46.42813" lon="-0.18589">
        <ele>115</ele>
        <time>2020-05-30T20:19:56Z</time>
      </trkpt>
      <trkpt lat="46.42813" lon="-0.18588">
        <ele>115</ele>
        <time>2020-05-30T20:19:57Z</time>
      </trkpt>
      <trkpt lat="46.42813" lon="-0.18588">
        <ele>115</ele>
        <time>2020-05-30T20:19:58Z</time>
      </trkpt>
      <trkpt lat="46.42813" lon="-0.18588">
        <ele>115</ele>
        <time>2020-05-30T20:19:59Z</time>
      </trkpt>
      <trkpt lat="46.42813" lon="-0.18587">
        <ele>115</ele>
        <time>2020-05-30T20:20:00Z</time>
      </trkpt>
      <trkpt lat="46.42812" lon="-0.18587">
        <ele>115</ele>
        <time>2020-05-30T20:20:01Z</time>
      </trkpt>
      <trkpt lat="46.42812" lon="-0.18587">
        <ele>115</ele>
        <time>2020-05-30T20:20:02Z</time>
      </trkpt>
      <trkpt lat="46.42812" lon="-0.18586">
        <ele>115</ele>
        <time>2020-05-30T20:20:03Z</time>
      </trkpt>
      <trkpt lat="46.42812" lon="-0.18586">
        <ele>115</ele>
        <time>2020-05-30T20:20:04Z</time>
      </trkpt>
      <trkpt lat="46.42812" lon="-0.18586">
        <ele>115</ele>
        <time>2020-05-30T20:20:05Z</time>
      </trkpt>
      <trkpt lat="46.42811" lon="-0.18586">
        <ele>115</ele>
        <time>2020-05-30T20:20:06Z</time>
      </trkpt>
      <trkpt lat="46.42811" lon="-0.18585">
        <ele>115</ele>
        <time>2020-05-30T20:20:07Z</time>
      </trkpt>
      <trkpt lat="46.42811" lon="-0.18585">
        <ele>115</ele>
        <time>2020-05-30T20:20:08Z</time>
      </trkpt>
      <trkpt lat="46.42811" lon="-0.18585">
        <ele>115</ele>
        <time>2020-05-30T20:20:09Z</time>
      </trkpt>
      <trkpt lat="46.42811" lon="-0.18585">
        <ele>115</ele>
        <time>2020-05-30T20:20:10Z</time>
      </trkpt>
      <trkpt lat="46.42811" lon="-0.18585">
        <ele>115</ele>
        <time>2020-05-30T20:20:11Z</time>
      </trkpt>
      <trkpt lat="46.42811" lon="-0.18585">
        <ele>115</ele>
        <time>2020-05-30T20:20:12Z</time>
      </trkpt>
      <trkpt lat="46.42811" lon="-0.18584">
        <ele>115</ele>
        <time>2020-05-30T20:20:13Z</time>
      </trkpt>
      <trkpt lat="46.42811" lon="-0.18584">
        <ele>115</ele>
        <time>2020-05-30T20:20:14Z</time>
      </trkpt>
      <trkpt lat="46.42811" lon="-0.18584">
        <ele>115</ele>
        <time>2020-05-30T20:20:15Z</time>
      </trkpt>
      <trkpt lat="46.42811" lon="-0.18583">
        <ele>115</ele>
        <time>2020-05-30T20:20:16Z</time>
      </trkpt>
      <trkpt lat="46.42811" lon="-0.18583">
        <ele>115</ele>
        <time>2020-05-30T20:20:17Z</time>
      </trkpt>
      <trkpt lat="46.42812" lon="-0.18582">
        <ele>115</ele>
        <time>2020-05-30T20:20:18Z</time>
      </trkpt>
      <trkpt lat="46.42812" lon="-0.18582">
        <ele>115</ele>
        <time>2020-05-30T20:20:19Z</time>
      </trkpt>
      <trkpt lat="46.42812" lon="-0.18583">
        <ele>115</ele>
        <time>2020-05-30T20:20:20Z</time>
      </trkpt>
      <trkpt lat="46.42813" lon="-0.18583">
        <ele>115</ele>
        <time>2020-05-30T20:20:21Z</time>
      </trkpt>
      <trkpt lat="46.42813" lon="-0.18583">
        <ele>115</ele>
        <time>2020-05-30T20:20:22Z</time>
      </trkpt>
      <trkpt lat="46.42813" lon="-0.18583">
        <ele>115</ele>
        <time>2020-05-30T20:20:23Z</time>
      </trkpt>
      <trkpt lat="46.42813" lon="-0.18584">
        <ele>115</ele>
        <time>2020-05-30T20:20:24Z</time>
      </trkpt>
      <trkpt lat="46.42814" lon="-0.18584">
        <ele>115</ele>
        <time>2020-05-30T20:20:25Z</time>
      </trkpt>
      <trkpt lat="46.42814" lon="-0.18584">
        <ele>115</ele>
        <time>2020-05-30T20:20:26Z</time>
      </trkpt>
      <trkpt lat="46.42814" lon="-0.18584">
        <ele>115</ele>
        <time>2020-05-30T20:20:27Z</time>
      </trkpt>
      <trkpt lat="46.42814" lon="-0.18584">
        <ele>115</ele>
        <time>2020-05-30T20:20:28Z</time>
      </trkpt>
      <trkpt lat="46.42814" lon="-0.18584">
        <ele>115</ele>
        <time>2020-05-30T20:20:29Z</time>
      </trkpt>
      <trkpt lat="46.42814" lon="-0.18584">
        <ele>115</ele>
        <time>2020-05-30T20:20:30Z</time>
      </trkpt>
      <trkpt lat="46.42814" lon="-0.18583">
        <ele>115</ele>
        <time>2020-05-30T20:20:31Z</time>
      </trkpt>
      <trkpt lat="46.42814" lon="-0.18583">
        <ele>115</ele>
        <time>2020-05-30T20:20:32Z</time>
      </trkpt>
      <trkpt lat="46.42814" lon="-0.18582">
        <ele>115</ele>
        <time>2020-05-30T20:20:33Z</time>
      </trkpt>
      <trkpt lat="46.42814" lon="-0.18581">
        <ele>115.1</ele>
        <time>2020-05-30T20:20:34Z</time>
      </trkpt>
      <trkpt lat="46.42814" lon="-0.1858">
        <ele>115.1</ele>
        <time>2020-05-30T20:20:35Z</time>
      </trkpt>
      <trkpt lat="46.42814" lon="-0.18579">
        <ele>115</ele>
        <time>2020-05-30T20:20:36Z</time>
      </trkpt>
      <trkpt lat="46.42814" lon="-0.18578">
        <ele>115</ele>
        <time>2020-05-30T20:20:37Z</time>
      </trkpt>
      <trkpt lat="46.42814" lon="-0.18577">
        <ele>115</ele>
        <time>2020-05-30T20:20:38Z</time>
      </trkpt>
      <trkpt lat="46.42814" lon="-0.18576">
        <ele>115</ele>
        <time>2020-05-30T20:20:39Z</time>
      </trkpt>
      <trkpt lat="46.42815" lon="-0.18576">
        <ele>115</ele>
        <time>2020-05-30T20:20:40Z</time>
      </trkpt>
      <trkpt lat="46.42817" lon="-0.18576">
        <ele>115</ele>
        <time>2020-05-30T20:20:41Z</time>
      </trkpt>
      <trkpt lat="46.42817" lon="-0.18576">
        <ele>115</ele>
        <time>2020-05-30T20:20:42Z</time>
      </trkpt>
      <trkpt lat="46.42817" lon="-0.18576">
        <ele>115</ele>
        <time>2020-05-30T20:20:43Z</time>
      </trkpt>
      <trkpt lat="46.42817" lon="-0.18576">
        <ele>115</ele>
        <time>2020-05-30T20:20:44Z</time>
      </trkpt>
      <trkpt lat="46.42817" lon="-0.18576">
        <ele>115.1</ele>
        <time>2020-05-30T20:20:45Z</time>
      </trkpt>
      <trkpt lat="46.42817" lon="-0.18575">
        <ele>115.1</ele>
        <time>2020-05-30T20:20:46Z</time>
      </trkpt>
      <trkpt lat="46.42816" lon="-0.18575">
        <ele>115.1</ele>
        <time>2020-05-30T20:20:47Z</time>
      </trkpt>
      <trkpt lat="46.42816" lon="-0.18574">
        <ele>115</ele>
        <time>2020-05-30T20:20:48Z</time>
      </trkpt>
      <trkpt lat="46.42816" lon="-0.18573">
        <ele>115</ele>
        <time>2020-05-30T20:20:49Z</time>
      </trkpt>
      <trkpt lat="46.42816" lon="-0.18573">
        <ele>115</ele>
        <time>2020-05-30T20:20:50Z</time>
      </trkpt>
      <trkpt lat="46.42816" lon="-0.18574">
        <ele>115</ele>
        <time>2020-05-30T20:20:51Z</time>
      </trkpt>
      <trkpt lat="46.42816" lon="-0.18573">
        <ele>115</ele>
        <time>2020-05-30T20:20:52Z</time>
      </trkpt>
      <trkpt lat="46.42816" lon="-0.18573">
        <ele>115</ele>
        <time>2020-05-30T20:20:53Z</time>
      </trkpt>
      <trkpt lat="46.42817" lon="-0.18574">
        <ele>115</ele>
        <time>2020-05-30T20:20:54Z</time>
      </trkpt>
      <trkpt lat="46.42817" lon="-0.18574">
        <ele>115</ele>
        <time>2020-05-30T20:20:55Z</time>
      </trkpt>
      <trkpt lat="46.42817" lon="-0.18575">
        <ele>115</ele>
        <time>2020-05-30T20:20:56Z</time>
      </trkpt>
      <trkpt lat="46.42817" lon="-0.18575">
        <ele>115</ele>
        <time>2020-05-30T20:20:57Z</time>
      </trkpt>
      <trkpt lat="46.42817" lon="-0.18575">
        <ele>115</ele>
        <time>2020-05-30T20:20:58Z</time>
      </trkpt>
      <trkpt lat="46.42818" lon="-0.18575">
        <ele>115</ele>
        <time>2020-05-30T20:20:59Z</time>
      </trkpt>
      <trkpt lat="46.42818" lon="-0.18575">
        <ele>115</ele>
        <time>2020-05-30T20:21:00Z</time>
      </trkpt>
      <trkpt lat="46.42818" lon="-0.18575">
        <ele>115</ele>
        <time>2020-05-30T20:21:01Z</time>
      </trkpt>
      <trkpt lat="46.42818" lon="-0.18575">
        <ele>115</ele>
        <time>2020-05-30T20:21:02Z</time>
      </trkpt>
      <trkpt lat="46.42819" lon="-0.18575">
        <ele>115</ele>
        <time>2020-05-30T20:21:03Z</time>
      </trkpt>
      <trkpt lat="46.42819" lon="-0.18575">
        <ele>115</ele>
        <time>2020-05-30T20:21:04Z</time>
      </trkpt>
      <trkpt lat="46.42819" lon="-0.18575">
        <ele>115</ele>
        <time>2020-05-30T20:21:05Z</time>
      </trkpt>
      <trkpt lat="46.42819" lon="-0.18575">
        <ele>115.1</ele>
        <time>2020-05-30T20:21:06Z</time>
      </trkpt>
      <trkpt lat="46.42819" lon="-0.18575">
        <ele>115.1</ele>
        <time>2020-05-30T20:21:07Z</time>
      </trkpt>
      <trkpt lat="46.42819" lon="-0.18575">
        <ele>115.1</ele>
        <time>2020-05-30T20:21:08Z</time>
      </trkpt>
      <trkpt lat="46.42819" lon="-0.18575">
        <ele>115.1</ele>
        <time>2020-05-30T20:21:09Z</time>
      </trkpt>
      <trkpt lat="46.42819" lon="-0.18574">
        <ele>115.1</ele>
        <time>2020-05-30T20:21:10Z</time>
      </trkpt>
      <trkpt lat="46.4282" lon="-0.18574">
        <ele>115.1</ele>
        <time>2020-05-30T20:21:11Z</time>
      </trkpt>
      <trkpt lat="46.4282" lon="-0.18573">
        <ele>115.1</ele>
        <time>2020-05-30T20:21:12Z</time>
      </trkpt>
      <trkpt lat="46.4282" lon="-0.18573">
        <ele>115</ele>
        <time>2020-05-30T20:21:13Z</time>
      </trkpt>
      <trkpt lat="46.4282" lon="-0.18573">
        <ele>115</ele>
        <time>2020-05-30T20:21:14Z</time>
      </trkpt>
      <trkpt lat="46.4282" lon="-0.18573">
        <ele>115</ele>
        <time>2020-05-30T20:21:15Z</time>
      </trkpt>
      <trkpt lat="46.4282" lon="-0.18573">
        <ele>115</ele>
        <time>2020-05-30T20:21:16Z</time>
      </trkpt>
      <trkpt lat="46.4282" lon="-0.18573">
        <ele>115</ele>
        <time>2020-05-30T20:21:17Z</time>
      </trkpt>
      <trkpt lat="46.4282" lon="-0.18573">
        <ele>115</ele>
        <time>2020-05-30T20:21:18Z</time>
      </trkpt>
      <trkpt lat="46.4282" lon="-0.18573">
        <ele>115</ele>
        <time>2020-05-30T20:21:19Z</time>
      </trkpt>
      <trkpt lat="46.4282" lon="-0.18573">
        <ele>115</ele>
        <time>2020-05-30T20:21:20Z</time>
      </trkpt>
      <trkpt lat="46.4282" lon="-0.18573">
        <ele>115</ele>
        <time>2020-05-30T20:21:21Z</time>
      </trkpt>
      <trkpt lat="46.4282" lon="-0.18573">
        <ele>115</ele>
        <time>2020-05-30T20:21:22Z</time>
      </trkpt>
      <trkpt lat="46.4282" lon="-0.18572">
        <ele>115</ele>
        <time>2020-05-30T20:21:23Z</time>
      </trkpt>
      <trkpt lat="46.4282" lon="-0.18572">
        <ele>115</ele>
        <time>2020-05-30T20:21:24Z</time>
      </trkpt>
      <trkpt lat="46.4282" lon="-0.18573">
        <ele>115</ele>
        <time>2020-05-30T20:21:25Z</time>
      </trkpt>
      <trkpt lat="46.4282" lon="-0.18574">
        <ele>115</ele>
        <time>2020-05-30T20:21:26Z</time>
      </trkpt>
      <trkpt lat="46.4282" lon="-0.18574">
        <ele>115</ele>
        <time>2020-05-30T20:21:27Z</time>
      </trkpt>
      <trkpt lat="46.4282" lon="-0.18574">
        <ele>115</ele>
        <time>2020-05-30T20:21:28Z</time>
      </trkpt>
      <trkpt lat="46.4282" lon="-0.18574">
        <ele>115</ele>
        <time>2020-05-30T20:21:29Z</time>
      </trkpt>
      <trkpt lat="46.4282" lon="-0.18574">
        <ele>115</ele>
        <time>2020-05-30T20:21:30Z</time>
      </trkpt>
      <trkpt lat="46.4282" lon="-0.18574">
        <ele>115</ele>
        <time>2020-05-30T20:21:31Z</time>
      </trkpt>
      <trkpt lat="46.4282" lon="-0.18574">
        <ele>115</ele>
        <time>2020-05-30T20:21:32Z</time>
      </trkpt>
      <trkpt lat="46.4282" lon="-0.18574">
        <ele>115</ele>
        <time>2020-05-30T20:21:33Z</time>
      </trkpt>
      <trkpt lat="46.4282" lon="-0.18574">
        <ele>115</ele>
        <time>2020-05-30T20:21:34Z</time>
      </trkpt>
      <trkpt lat="46.4282" lon="-0.18574">
        <ele>115</ele>
        <time>2020-05-30T20:21:35Z</time>
      </trkpt>
      <trkpt lat="46.4282" lon="-0.18574">
        <ele>115</ele>
        <time>2020-05-30T20:21:36Z</time>
      </trkpt>
      <trkpt lat="46.4282" lon="-0.18574">
        <ele>115</ele>
        <time>2020-05-30T20:21:37Z</time>
      </trkpt>
      <trkpt lat="46.4282" lon="-0.18574">
        <ele>115</ele>
        <time>2020-05-30T20:21:38Z</time>
      </trkpt>
      <trkpt lat="46.4282" lon="-0.18574">
        <ele>115</ele>
        <time>2020-05-30T20:21:39Z</time>
      </trkpt>
      <trkpt lat="46.4282" lon="-0.18574">
        <ele>115</ele>
        <time>2020-05-30T20:21:40Z</time>
      </trkpt>
      <trkpt lat="46.4282" lon="-0.18574">
        <ele>115</ele>
        <time>2020-05-30T20:21:41Z</time>
      </trkpt>
      <trkpt lat="46.4282" lon="-0.18573">
        <ele>115</ele>
        <time>2020-05-30T20:21:42Z</time>
      </trkpt>
      <trkpt lat="46.4282" lon="-0.18573">
        <ele>115</ele>
        <time>2020-05-30T20:21:43Z</time>
      </trkpt>
      <trkpt lat="46.42819" lon="-0.18573">
        <ele>115</ele>
        <time>2020-05-30T20:21:44Z</time>
      </trkpt>
      <trkpt lat="46.42819" lon="-0.18573">
        <ele>115</ele>
        <time>2020-05-30T20:21:45Z</time>
      </trkpt>
      <trkpt lat="46.42819" lon="-0.18573">
        <ele>115</ele>
        <time>2020-05-30T20:21:46Z</time>
      </trkpt>
      <trkpt lat="46.42819" lon="-0.18573">
        <ele>115</ele>
        <time>2020-05-30T20:21:47Z</time>
      </trkpt>
      <trkpt lat="46.42819" lon="-0.18573">
        <ele>115</ele>
        <time>2020-05-30T20:21:48Z</time>
      </trkpt>
      <trkpt lat="46.42818" lon="-0.18572">
        <ele>115</ele>
        <time>2020-05-30T20:21:49Z</time>
      </trkpt>
      <trkpt lat="46.42819" lon="-0.18572">
        <ele>115</ele>
        <time>2020-05-30T20:21:50Z</time>
      </trkpt>
      <trkpt lat="46.42819" lon="-0.18572">
        <ele>115</ele>
        <time>2020-05-30T20:21:51Z</time>
      </trkpt>
      <trkpt lat="46.42819" lon="-0.18573">
        <ele>115</ele>
        <time>2020-05-30T20:21:52Z</time>
      </trkpt>
      <trkpt lat="46.42819" lon="-0.18572">
        <ele>115</ele>
        <time>2020-05-30T20:21:53Z</time>
      </trkpt>
      <trkpt lat="46.42819" lon="-0.18573">
        <ele>115</ele>
        <time>2020-05-30T20:21:54Z</time>
      </trkpt>
      <trkpt lat="46.4282" lon="-0.18573">
        <ele>115</ele>
        <time>2020-05-30T20:21:55Z</time>
      </trkpt>
      <trkpt lat="46.4282" lon="-0.18574">
        <ele>115</ele>
        <time>2020-05-30T20:21:56Z</time>
      </trkpt>
      <trkpt lat="46.4282" lon="-0.18574">
        <ele>115</ele>
        <time>2020-05-30T20:21:57Z</time>
      </trkpt>
      <trkpt lat="46.4282" lon="-0.18575">
        <ele>115</ele>
        <time>2020-05-30T20:21:58Z</time>
      </trkpt>
      <trkpt lat="46.4282" lon="-0.18575">
        <ele>115</ele>
        <time>2020-05-30T20:21:59Z</time>
      </trkpt>
      <trkpt lat="46.4282" lon="-0.18575">
        <ele>115</ele>
        <time>2020-05-30T20:22:00Z</time>
      </trkpt>
      <trkpt lat="46.4282" lon="-0.18575">
        <ele>115</ele>
        <time>2020-05-30T20:22:01Z</time>
      </trkpt>
      <trkpt lat="46.4282" lon="-0.18575">
        <ele>115</ele>
        <time>2020-05-30T20:22:02Z</time>
      </trkpt>
      <trkpt lat="46.4282" lon="-0.18575">
        <ele>115</ele>
        <time>2020-05-30T20:22:03Z</time>
      </trkpt>
      <trkpt lat="46.4282" lon="-0.18575">
        <ele>115</ele>
        <time>2020-05-30T20:22:04Z</time>
      </trkpt>
      <trkpt lat="46.4282" lon="-0.18574">
        <ele>115</ele>
        <time>2020-05-30T20:22:05Z</time>
      </trkpt>
      <trkpt lat="46.4282" lon="-0.18573">
        <ele>115</ele>
        <time>2020-05-30T20:22:06Z</time>
      </trkpt>
      <trkpt lat="46.4282" lon="-0.18572">
        <ele>115</ele>
        <time>2020-05-30T20:22:07Z</time>
      </trkpt>
      <trkpt lat="46.4282" lon="-0.18572">
        <ele>115</ele>
        <time>2020-05-30T20:22:08Z</time>
      </trkpt>
      <trkpt lat="46.4282" lon="-0.18572">
        <ele>115</ele>
        <time>2020-05-30T20:22:09Z</time>
      </trkpt>
      <trkpt lat="46.4282" lon="-0.18572">
        <ele>115</ele>
        <time>2020-05-30T20:22:10Z</time>
      </trkpt>
      <trkpt lat="46.4282" lon="-0.18571">
        <ele>115</ele>
        <time>2020-05-30T20:22:11Z</time>
      </trkpt>
      <trkpt lat="46.4282" lon="-0.18571">
        <ele>115</ele>
        <time>2020-05-30T20:22:12Z</time>
      </trkpt>
      <trkpt lat="46.42819" lon="-0.18571">
        <ele>115</ele>
        <time>2020-05-30T20:22:13Z</time>
      </trkpt>
      <trkpt lat="46.42819" lon="-0.18571">
        <ele>115</ele>
        <time>2020-05-30T20:22:14Z</time>
      </trkpt>
      <trkpt lat="46.42819" lon="-0.18571">
        <ele>115</ele>
        <time>2020-05-30T20:22:15Z</time>
      </trkpt>
      <trkpt lat="46.42819" lon="-0.1857">
        <ele>115</ele>
        <time>2020-05-30T20:22:16Z</time>
      </trkpt>
      <trkpt lat="46.42819" lon="-0.1857">
        <ele>115</ele>
        <time>2020-05-30T20:22:17Z</time>
      </trkpt>
      <trkpt lat="46.42819" lon="-0.1857">
        <ele>115</ele>
        <time>2020-05-30T20:22:18Z</time>
      </trkpt>
      <trkpt lat="46.42818" lon="-0.18571">
        <ele>115</ele>
        <time>2020-05-30T20:22:19Z</time>
      </trkpt>
      <trkpt lat="46.42818" lon="-0.1857">
        <ele>115</ele>
        <time>2020-05-30T20:22:20Z</time>
      </trkpt>
      <trkpt lat="46.42818" lon="-0.18571">
        <ele>115</ele>
        <time>2020-05-30T20:22:21Z</time>
      </trkpt>
      <trkpt lat="46.42818" lon="-0.18571">
        <ele>115</ele>
        <time>2020-05-30T20:22:22Z</time>
      </trkpt>
      <trkpt lat="46.42818" lon="-0.18571">
        <ele>115</ele>
        <time>2020-05-30T20:22:23Z</time>
      </trkpt>
      <trkpt lat="46.42818" lon="-0.18571">
        <ele>115</ele>
        <time>2020-05-30T20:22:24Z</time>
      </trkpt>
      <trkpt lat="46.42818" lon="-0.18571">
        <ele>115</ele>
        <time>2020-05-30T20:22:25Z</time>
      </trkpt>
      <trkpt lat="46.42817" lon="-0.18571">
        <ele>115</ele>
        <time>2020-05-30T20:22:26Z</time>
      </trkpt>
      <trkpt lat="46.42817" lon="-0.18571">
        <ele>115</ele>
        <time>2020-05-30T20:22:27Z</time>
      </trkpt>
      <trkpt lat="46.42817" lon="-0.18571">
        <ele>115</ele>
        <time>2020-05-30T20:22:28Z</time>
      </trkpt>
      <trkpt lat="46.42817" lon="-0.18571">
        <ele>115</ele>
        <time>2020-05-30T20:22:29Z</time>
      </trkpt>
      <trkpt lat="46.42817" lon="-0.18571">
        <ele>115</ele>
        <time>2020-05-30T20:22:30Z</time>
      </trkpt>
      <trkpt lat="46.42818" lon="-0.18571">
        <ele>115</ele>
        <time>2020-05-30T20:22:31Z</time>
      </trkpt>
      <trkpt lat="46.42818" lon="-0.18571">
        <ele>115</ele>
        <time>2020-05-30T20:22:32Z</time>
      </trkpt>
      <trkpt lat="46.42818" lon="-0.18571">
        <ele>115</ele>
        <time>2020-05-30T20:22:33Z</time>
      </trkpt>
      <trkpt lat="46.42817" lon="-0.18571">
        <ele>115</ele>
        <time>2020-05-30T20:22:34Z</time>
      </trkpt>
      <trkpt lat="46.42817" lon="-0.18571">
        <ele>115</ele>
        <time>2020-05-30T20:22:35Z</time>
      </trkpt>
      <trkpt lat="46.42817" lon="-0.18572">
        <ele>115</ele>
        <time>2020-05-30T20:22:36Z</time>
      </trkpt>
      <trkpt lat="46.42816" lon="-0.18573">
        <ele>115</ele>
        <time>2020-05-30T20:22:37Z</time>
      </trkpt>
      <trkpt lat="46.42816" lon="-0.18575">
        <ele>115</ele>
        <time>2020-05-30T20:22:38Z</time>
      </trkpt>
      <trkpt lat="46.42815" lon="-0.18575">
        <ele>115</ele>
        <time>2020-05-30T20:22:39Z</time>
      </trkpt>
      <trkpt lat="46.42814" lon="-0.18576">
        <ele>115</ele>
        <time>2020-05-30T20:22:40Z</time>
      </trkpt>
      <trkpt lat="46.42814" lon="-0.18576">
        <ele>115</ele>
        <time>2020-05-30T20:22:41Z</time>
      </trkpt>
      <trkpt lat="46.42814" lon="-0.18577">
        <ele>115</ele>
        <time>2020-05-30T20:22:42Z</time>
      </trkpt>
      <trkpt lat="46.42814" lon="-0.18577">
        <ele>115</ele>
        <time>2020-05-30T20:22:43Z</time>
      </trkpt>
      <trkpt lat="46.42814" lon="-0.18578">
        <ele>115</ele>
        <time>2020-05-30T20:22:44Z</time>
      </trkpt>
      <trkpt lat="46.42814" lon="-0.18578">
        <ele>115</ele>
        <time>2020-05-30T20:22:45Z</time>
      </trkpt>
      <trkpt lat="46.42814" lon="-0.18578">
        <ele>115</ele>
        <time>2020-05-30T20:22:46Z</time>
      </trkpt>
      <trkpt lat="46.42814" lon="-0.18578">
        <ele>115</ele>
        <time>2020-05-30T20:22:47Z</time>
      </trkpt>
      <trkpt lat="46.42813" lon="-0.18577">
        <ele>115</ele>
        <time>2020-05-30T20:22:48Z</time>
      </trkpt>
      <trkpt lat="46.42813" lon="-0.18577">
        <ele>115</ele>
        <time>2020-05-30T20:22:49Z</time>
      </trkpt>
      <trkpt lat="46.42813" lon="-0.18577">
        <ele>115</ele>
        <time>2020-05-30T20:22:50Z</time>
      </trkpt>
      <trkpt lat="46.42813" lon="-0.18576">
        <ele>115</ele>
        <time>2020-05-30T20:22:51Z</time>
      </trkpt>
      <trkpt lat="46.42813" lon="-0.18577">
        <ele>115</ele>
        <time>2020-05-30T20:22:52Z</time>
      </trkpt>
      <trkpt lat="46.42813" lon="-0.18577">
        <ele>115</ele>
        <time>2020-05-30T20:22:53Z</time>
      </trkpt>
      <trkpt lat="46.42813" lon="-0.18576">
        <ele>115</ele>
        <time>2020-05-30T20:22:54Z</time>
      </trkpt>
      <trkpt lat="46.42812" lon="-0.18576">
        <ele>115</ele>
        <time>2020-05-30T20:22:55Z</time>
      </trkpt>
      <trkpt lat="46.42812" lon="-0.18576">
        <ele>115</ele>
        <time>2020-05-30T20:22:56Z</time>
      </trkpt>
      <trkpt lat="46.42813" lon="-0.18576">
        <ele>115</ele>
        <time>2020-05-30T20:22:57Z</time>
      </trkpt>
      <trkpt lat="46.42813" lon="-0.18576">
        <ele>115</ele>
        <time>2020-05-30T20:22:58Z</time>
      </trkpt>
      <trkpt lat="46.42813" lon="-0.18576">
        <ele>115</ele>
        <time>2020-05-30T20:22:59Z</time>
      </trkpt>
      <trkpt lat="46.42813" lon="-0.18576">
        <ele>115</ele>
        <time>2020-05-30T20:23:00Z</time>
      </trkpt>
      <trkpt lat="46.42813" lon="-0.18575">
        <ele>115</ele>
        <time>2020-05-30T20:23:01Z</time>
      </trkpt>
      <trkpt lat="46.42813" lon="-0.18574">
        <ele>115</ele>
        <time>2020-05-30T20:23:02Z</time>
      </trkpt>
      <trkpt lat="46.42814" lon="-0.18574">
        <ele>115</ele>
        <time>2020-05-30T20:23:03Z</time>
      </trkpt>
      <trkpt lat="46.42813" lon="-0.18573">
        <ele>115</ele>
        <time>2020-05-30T20:23:04Z</time>
      </trkpt>
      <trkpt lat="46.42813" lon="-0.18572">
        <ele>115</ele>
        <time>2020-05-30T20:23:05Z</time>
      </trkpt>
      <trkpt lat="46.42813" lon="-0.1857">
        <ele>115</ele>
        <time>2020-05-30T20:23:06Z</time>
      </trkpt>
      <trkpt lat="46.42813" lon="-0.18568">
        <ele>115.1</ele>
        <time>2020-05-30T20:23:07Z</time>
      </trkpt>
      <trkpt lat="46.42813" lon="-0.18568">
        <ele>115.1</ele>
        <time>2020-05-30T20:23:08Z</time>
      </trkpt>
      <trkpt lat="46.42813" lon="-0.18567">
        <ele>115.1</ele>
        <time>2020-05-30T20:23:09Z</time>
      </trkpt>
      <trkpt lat="46.42814" lon="-0.18568">
        <ele>115.1</ele>
        <time>2020-05-30T20:23:10Z</time>
      </trkpt>
      <trkpt lat="46.42814" lon="-0.18568">
        <ele>115.1</ele>
        <time>2020-05-30T20:23:11Z</time>
      </trkpt>
      <trkpt lat="46.42815" lon="-0.18567">
        <ele>115.1</ele>
        <time>2020-05-30T20:23:12Z</time>
      </trkpt>
      <trkpt lat="46.42815" lon="-0.18567">
        <ele>115.1</ele>
        <time>2020-05-30T20:23:13Z</time>
      </trkpt>
      <trkpt lat="46.42815" lon="-0.18567">
        <ele>115.1</ele>
        <time>2020-05-30T20:23:14Z</time>
      </trkpt>
      <trkpt lat="46.42815" lon="-0.18567">
        <ele>115.1</ele>
        <time>2020-05-30T20:23:15Z</time>
      </trkpt>
      <trkpt lat="46.42815" lon="-0.18568">
        <ele>115.1</ele>
        <time>2020-05-30T20:23:16Z</time>
      </trkpt>
      <trkpt lat="46.42815" lon="-0.18569">
        <ele>115.1</ele>
        <time>2020-05-30T20:23:17Z</time>
      </trkpt>
      <trkpt lat="46.42815" lon="-0.18569">
        <ele>115.1</ele>
        <time>2020-05-30T20:23:18Z</time>
      </trkpt>
      <trkpt lat="46.42815" lon="-0.18569">
        <ele>115.1</ele>
        <time>2020-05-30T20:23:19Z</time>
      </trkpt>
      <trkpt lat="46.42815" lon="-0.18569">
        <ele>115.1</ele>
        <time>2020-05-30T20:23:20Z</time>
      </trkpt>
      <trkpt lat="46.42816" lon="-0.18568">
        <ele>115.1</ele>
        <time>2020-05-30T20:23:21Z</time>
      </trkpt>
      <trkpt lat="46.42815" lon="-0.18568">
        <ele>115.1</ele>
        <time>2020-05-30T20:23:22Z</time>
      </trkpt>
      <trkpt lat="46.42815" lon="-0.18568">
        <ele>115.1</ele>
        <time>2020-05-30T20:23:23Z</time>
      </trkpt>
      <trkpt lat="46.42815" lon="-0.18567">
        <ele>115.1</ele>
        <time>2020-05-30T20:23:24Z</time>
      </trkpt>
      <trkpt lat="46.42815" lon="-0.18567">
        <ele>115.1</ele>
        <time>2020-05-30T20:23:25Z</time>
      </trkpt>
      <trkpt lat="46.42815" lon="-0.18567">
        <ele>115.1</ele>
        <time>2020-05-30T20:23:26Z</time>
      </trkpt>
      <trkpt lat="46.42815" lon="-0.18567">
        <ele>115.1</ele>
        <time>2020-05-30T20:23:27Z</time>
      </trkpt>
      <trkpt lat="46.42815" lon="-0.18567">
        <ele>115.1</ele>
        <time>2020-05-30T20:23:28Z</time>
      </trkpt>
      <trkpt lat="46.42815" lon="-0.18567">
        <ele>115.1</ele>
        <time>2020-05-30T20:23:29Z</time>
      </trkpt>
      <trkpt lat="46.42815" lon="-0.18566">
        <ele>115.1</ele>
        <time>2020-05-30T20:23:30Z</time>
      </trkpt>
      <trkpt lat="46.42815" lon="-0.18566">
        <ele>115.1</ele>
        <time>2020-05-30T20:23:31Z</time>
      </trkpt>
      <trkpt lat="46.42815" lon="-0.18566">
        <ele>115.1</ele>
        <time>2020-05-30T20:23:32Z</time>
      </trkpt>
      <trkpt lat="46.42814" lon="-0.18566">
        <ele>115.1</ele>
        <time>2020-05-30T20:23:33Z</time>
      </trkpt>
      <trkpt lat="46.42814" lon="-0.18566">
        <ele>115.1</ele>
        <time>2020-05-30T20:23:34Z</time>
      </trkpt>
      <trkpt lat="46.42814" lon="-0.18566">
        <ele>115.1</ele>
        <time>2020-05-30T20:23:35Z</time>
      </trkpt>
      <trkpt lat="46.42814" lon="-0.18566">
        <ele>115.1</ele>
        <time>2020-05-30T20:23:36Z</time>
      </trkpt>
      <trkpt lat="46.42814" lon="-0.18566">
        <ele>115.1</ele>
        <time>2020-05-30T20:23:37Z</time>
      </trkpt>
      <trkpt lat="46.42814" lon="-0.18566">
        <ele>115.1</ele>
        <time>2020-05-30T20:23:38Z</time>
      </trkpt>
      <trkpt lat="46.42814" lon="-0.18566">
        <ele>115.1</ele>
        <time>2020-05-30T20:23:39Z</time>
      </trkpt>
      <trkpt lat="46.42815" lon="-0.18566">
        <ele>115.1</ele>
        <time>2020-05-30T20:23:40Z</time>
      </trkpt>
      <trkpt lat="46.42815" lon="-0.18566">
        <ele>115.1</ele>
        <time>2020-05-30T20:23:41Z</time>
      </trkpt>
      <trkpt lat="46.42815" lon="-0.18566">
        <ele>115.1</ele>
        <time>2020-05-30T20:23:42Z</time>
      </trkpt>
      <trkpt lat="46.42815" lon="-0.18566">
        <ele>115.1</ele>
        <time>2020-05-30T20:23:43Z</time>
      </trkpt>
      <trkpt lat="46.42815" lon="-0.18566">
        <ele>115.1</ele>
        <time>2020-05-30T20:23:44Z</time>
      </trkpt>
      <trkpt lat="46.42815" lon="-0.18566">
        <ele>115.1</ele>
        <time>2020-05-30T20:23:45Z</time>
      </trkpt>
      <trkpt lat="46.42815" lon="-0.18565">
        <ele>115.1</ele>
        <time>2020-05-30T20:23:46Z</time>
      </trkpt>
      <trkpt lat="46.42815" lon="-0.18566">
        <ele>115.1</ele>
        <time>2020-05-30T20:23:47Z</time>
      </trkpt>
      <trkpt lat="46.42815" lon="-0.18566">
        <ele>115.1</ele>
        <time>2020-05-30T20:23:48Z</time>
      </trkpt>
      <trkpt lat="46.42815" lon="-0.18566">
        <ele>115.1</ele>
        <time>2020-05-30T20:23:49Z</time>
      </trkpt>
      <trkpt lat="46.42815" lon="-0.18566">
        <ele>115.1</ele>
        <time>2020-05-30T20:23:50Z</time>
      </trkpt>
      <trkpt lat="46.42815" lon="-0.18566">
        <ele>115.1</ele>
        <time>2020-05-30T20:23:51Z</time>
      </trkpt>
      <trkpt lat="46.42815" lon="-0.18566">
        <ele>115.1</ele>
        <time>2020-05-30T20:23:52Z</time>
      </trkpt>
      <trkpt lat="46.42815" lon="-0.18566">
        <ele>115.1</ele>
        <time>2020-05-30T20:23:53Z</time>
      </trkpt>
      <trkpt lat="46.42815" lon="-0.18566">
        <ele>115.1</ele>
        <time>2020-05-30T20:23:54Z</time>
      </trkpt>
      <trkpt lat="46.42815" lon="-0.18566">
        <ele>115.1</ele>
        <time>2020-05-30T20:23:55Z</time>
      </trkpt>
      <trkpt lat="46.42815" lon="-0.18566">
        <ele>115.1</ele>
        <time>2020-05-30T20:23:56Z</time>
      </trkpt>
      <trkpt lat="46.42815" lon="-0.18566">
        <ele>115.1</ele>
        <time>2020-05-30T20:23:57Z</time>
      </trkpt>
      <trkpt lat="46.42815" lon="-0.18566">
        <ele>115.1</ele>
        <time>2020-05-30T20:23:58Z</time>
      </trkpt>
      <trkpt lat="46.42815" lon="-0.18566">
        <ele>115.1</ele>
        <time>2020-05-30T20:23:59Z</time>
      </trkpt>
      <trkpt lat="46.42815" lon="-0.18566">
        <ele>115.1</ele>
        <time>2020-05-30T20:24:00Z</time>
      </trkpt>
      <trkpt lat="46.42815" lon="-0.18566">
        <ele>115.1</ele>
        <time>2020-05-30T20:24:01Z</time>
      </trkpt>
      <trkpt lat="46.42815" lon="-0.18566">
        <ele>115.1</ele>
        <time>2020-05-30T20:24:02Z</time>
      </trkpt>
      <trkpt lat="46.42814" lon="-0.18566">
        <ele>115.1</ele>
        <time>2020-05-30T20:24:03Z</time>
      </trkpt>
      <trkpt lat="46.42814" lon="-0.18566">
        <ele>115.1</ele>
        <time>2020-05-30T20:24:04Z</time>
      </trkpt>
      <trkpt lat="46.42814" lon="-0.18566">
        <ele>115.1</ele>
        <time>2020-05-30T20:24:05Z</time>
      </trkpt>
      <trkpt lat="46.42814" lon="-0.18566">
        <ele>115.1</ele>
        <time>2020-05-30T20:24:06Z</time>
      </trkpt>
      <trkpt lat="46.42814" lon="-0.18566">
        <ele>115.1</ele>
        <time>2020-05-30T20:24:07Z</time>
      </trkpt>
      <trkpt lat="46.42813" lon="-0.18567">
        <ele>115.1</ele>
        <time>2020-05-30T20:24:08Z</time>
      </trkpt>
      <trkpt lat="46.42813" lon="-0.18567">
        <ele>115.1</ele>
        <time>2020-05-30T20:24:09Z</time>
      </trkpt>
      <trkpt lat="46.42813" lon="-0.18567">
        <ele>115.1</ele>
        <time>2020-05-30T20:24:10Z</time>
      </trkpt>
      <trkpt lat="46.42813" lon="-0.18568">
        <ele>115.1</ele>
        <time>2020-05-30T20:24:11Z</time>
      </trkpt>
      <trkpt lat="46.42812" lon="-0.18568">
        <ele>115.1</ele>
        <time>2020-05-30T20:24:12Z</time>
      </trkpt>
      <trkpt lat="46.42812" lon="-0.18568">
        <ele>115.1</ele>
        <time>2020-05-30T20:24:13Z</time>
      </trkpt>
      <trkpt lat="46.42812" lon="-0.18568">
        <ele>115.1</ele>
        <time>2020-05-30T20:24:14Z</time>
      </trkpt>
      <trkpt lat="46.42812" lon="-0.18568">
        <ele>115.1</ele>
        <time>2020-05-30T20:24:15Z</time>
      </trkpt>
      <trkpt lat="46.42812" lon="-0.18568">
        <ele>115.1</ele>
        <time>2020-05-30T20:24:16Z</time>
      </trkpt>
      <trkpt lat="46.42812" lon="-0.18568">
        <ele>115.1</ele>
        <time>2020-05-30T20:24:17Z</time>
      </trkpt>
      <trkpt lat="46.42812" lon="-0.18567">
        <ele>115.1</ele>
        <time>2020-05-30T20:24:18Z</time>
      </trkpt>
      <trkpt lat="46.42811" lon="-0.18567">
        <ele>115.1</ele>
        <time>2020-05-30T20:24:19Z</time>
      </trkpt>
      <trkpt lat="46.42811" lon="-0.18567">
        <ele>115.1</ele>
        <time>2020-05-30T20:24:20Z</time>
      </trkpt>
      <trkpt lat="46.42811" lon="-0.18567">
        <ele>115.1</ele>
        <time>2020-05-30T20:24:21Z</time>
      </trkpt>
      <trkpt lat="46.42811" lon="-0.18567">
        <ele>115.1</ele>
        <time>2020-05-30T20:24:22Z</time>
      </trkpt>
      <trkpt lat="46.42812" lon="-0.18567">
        <ele>115.1</ele>
        <time>2020-05-30T20:24:23Z</time>
      </trkpt>
      <trkpt lat="46.42812" lon="-0.18567">
        <ele>115.1</ele>
        <time>2020-05-30T20:24:24Z</time>
      </trkpt>
      <trkpt lat="46.42812" lon="-0.18567">
        <ele>115.1</ele>
        <time>2020-05-30T20:24:25Z</time>
      </trkpt>
      <trkpt lat="46.42812" lon="-0.18567">
        <ele>115.1</ele>
        <time>2020-05-30T20:24:26Z</time>
      </trkpt>
      <trkpt lat="46.42812" lon="-0.18567">
        <ele>115.1</ele>
        <time>2020-05-30T20:24:27Z</time>
      </trkpt>
      <trkpt lat="46.42812" lon="-0.18567">
        <ele>115.1</ele>
        <time>2020-05-30T20:24:28Z</time>
      </trkpt>
      <trkpt lat="46.42812" lon="-0.18567">
        <ele>115.1</ele>
        <time>2020-05-30T20:24:29Z</time>
      </trkpt>
      <trkpt lat="46.42812" lon="-0.18567">
        <ele>115.1</ele>
        <time>2020-05-30T20:24:30Z</time>
      </trkpt>
      <trkpt lat="46.42812" lon="-0.18567">
        <ele>115.1</ele>
        <time>2020-05-30T20:24:31Z</time>
      </trkpt>
      <trkpt lat="46.42812" lon="-0.18567">
        <ele>115.1</ele>
        <time>2020-05-30T20:24:32Z</time>
      </trkpt>
      <trkpt lat="46.42811" lon="-0.18568">
        <ele>115.1</ele>
        <time>2020-05-30T20:24:33Z</time>
      </trkpt>
      <trkpt lat="46.42811" lon="-0.18568">
        <ele>115.1</ele>
        <time>2020-05-30T20:24:34Z</time>
      </trkpt>
      <trkpt lat="46.42811" lon="-0.18568">
        <ele>115.1</ele>
        <time>2020-05-30T20:24:35Z</time>
      </trkpt>
      <trkpt lat="46.42811" lon="-0.18568">
        <ele>115.1</ele>
        <time>2020-05-30T20:24:36Z</time>
      </trkpt>
      <trkpt lat="46.42811" lon="-0.18568">
        <ele>115.1</ele>
        <time>2020-05-30T20:24:37Z</time>
      </trkpt>
      <trkpt lat="46.42811" lon="-0.18568">
        <ele>115.1</ele>
        <time>2020-05-30T20:24:38Z</time>
      </trkpt>
      <trkpt lat="46.42811" lon="-0.18568">
        <ele>115.1</ele>
        <time>2020-05-30T20:24:39Z</time>
      </trkpt>
      <trkpt lat="46.42812" lon="-0.18567">
        <ele>115.1</ele>
        <time>2020-05-30T20:24:40Z</time>
      </trkpt>
      <trkpt lat="46.42812" lon="-0.18567">
        <ele>115.1</ele>
        <time>2020-05-30T20:24:41Z</time>
      </trkpt>
      <trkpt lat="46.42811" lon="-0.18567">
        <ele>115.1</ele>
        <time>2020-05-30T20:24:42Z</time>
      </trkpt>
      <trkpt lat="46.42811" lon="-0.18568">
        <ele>115.1</ele>
        <time>2020-05-30T20:24:43Z</time>
      </trkpt>
      <trkpt lat="46.42811" lon="-0.18567">
        <ele>115.1</ele>
        <time>2020-05-30T20:24:44Z</time>
      </trkpt>
      <trkpt lat="46.42811" lon="-0.18567">
        <ele>115.1</ele>
        <time>2020-05-30T20:24:45Z</time>
      </trkpt>
      <trkpt lat="46.42812" lon="-0.18567">
        <ele>115.1</ele>
        <time>2020-05-30T20:24:46Z</time>
      </trkpt>
      <trkpt lat="46.42812" lon="-0.18567">
        <ele>115.1</ele>
        <time>2020-05-30T20:24:47Z</time>
      </trkpt>
      <trkpt lat="46.42812" lon="-0.18566">
        <ele>115.1</ele>
        <time>2020-05-30T20:24:48Z</time>
      </trkpt>
      <trkpt lat="46.42812" lon="-0.18566">
        <ele>115.1</ele>
        <time>2020-05-30T20:24:49Z</time>
      </trkpt>
      <trkpt lat="46.42812" lon="-0.18566">
        <ele>115.1</ele>
        <time>2020-05-30T20:24:50Z</time>
      </trkpt>
      <trkpt lat="46.42812" lon="-0.18566">
        <ele>115.1</ele>
        <time>2020-05-30T20:24:51Z</time>
      </trkpt>
      <trkpt lat="46.42812" lon="-0.18567">
        <ele>115.1</ele>
        <time>2020-05-30T20:24:52Z</time>
      </trkpt>
      <trkpt lat="46.42811" lon="-0.18567">
        <ele>115.1</ele>
        <time>2020-05-30T20:24:53Z</time>
      </trkpt>
      <trkpt lat="46.42811" lon="-0.18567">
        <ele>115.1</ele>
        <time>2020-05-30T20:24:54Z</time>
      </trkpt>
      <trkpt lat="46.42811" lon="-0.18567">
        <ele>115.1</ele>
        <time>2020-05-30T20:24:55Z</time>
      </trkpt>
      <trkpt lat="46.42811" lon="-0.18567">
        <ele>115.1</ele>
        <time>2020-05-30T20:24:56Z</time>
      </trkpt>
      <trkpt lat="46.42811" lon="-0.18567">
        <ele>115.1</ele>
        <time>2020-05-30T20:24:57Z</time>
      </trkpt>
      <trkpt lat="46.42811" lon="-0.18567">
        <ele>115.1</ele>
        <time>2020-05-30T20:24:58Z</time>
      </trkpt>
      <trkpt lat="46.42811" lon="-0.18566">
        <ele>115.1</ele>
        <time>2020-05-30T20:24:59Z</time>
      </trkpt>
      <trkpt lat="46.42811" lon="-0.18565">
        <ele>115.1</ele>
        <time>2020-05-30T20:25:00Z</time>
      </trkpt>
      <trkpt lat="46.42811" lon="-0.18565">
        <ele>115.1</ele>
        <time>2020-05-30T20:25:01Z</time>
      </trkpt>
      <trkpt lat="46.42811" lon="-0.18565">
        <ele>115.1</ele>
        <time>2020-05-30T20:25:02Z</time>
      </trkpt>
      <trkpt lat="46.4281" lon="-0.18564">
        <ele>115.1</ele>
        <time>2020-05-30T20:25:03Z</time>
      </trkpt>
      <trkpt lat="46.4281" lon="-0.18565">
        <ele>115.1</ele>
        <time>2020-05-30T20:25:04Z</time>
      </trkpt>
      <trkpt lat="46.4281" lon="-0.18565">
        <ele>115.1</ele>
        <time>2020-05-30T20:25:05Z</time>
      </trkpt>
      <trkpt lat="46.4281" lon="-0.18566">
        <ele>115.1</ele>
        <time>2020-05-30T20:25:06Z</time>
      </trkpt>
      <trkpt lat="46.4281" lon="-0.18566">
        <ele>115.1</ele>
        <time>2020-05-30T20:25:07Z</time>
      </trkpt>
      <trkpt lat="46.4281" lon="-0.18566">
        <ele>115.1</ele>
        <time>2020-05-30T20:25:08Z</time>
      </trkpt>
      <trkpt lat="46.4281" lon="-0.18566">
        <ele>115.1</ele>
        <time>2020-05-30T20:25:09Z</time>
      </trkpt>
      <trkpt lat="46.4281" lon="-0.18567">
        <ele>115.1</ele>
        <time>2020-05-30T20:25:10Z</time>
      </trkpt>
      <trkpt lat="46.42811" lon="-0.18566">
        <ele>115.1</ele>
        <time>2020-05-30T20:25:11Z</time>
      </trkpt>
      <trkpt lat="46.42811" lon="-0.18566">
        <ele>115.1</ele>
        <time>2020-05-30T20:25:12Z</time>
      </trkpt>
      <trkpt lat="46.42811" lon="-0.18567">
        <ele>115.1</ele>
        <time>2020-05-30T20:25:13Z</time>
      </trkpt>
      <trkpt lat="46.42811" lon="-0.18568">
        <ele>115.1</ele>
        <time>2020-05-30T20:25:14Z</time>
      </trkpt>
      <trkpt lat="46.42811" lon="-0.18568">
        <ele>115.1</ele>
        <time>2020-05-30T20:25:15Z</time>
      </trkpt>
      <trkpt lat="46.42811" lon="-0.18568">
        <ele>115.1</ele>
        <time>2020-05-30T20:25:16Z</time>
      </trkpt>
      <trkpt lat="46.4281" lon="-0.18568">
        <ele>115.1</ele>
        <time>2020-05-30T20:25:17Z</time>
      </trkpt>
      <trkpt lat="46.4281" lon="-0.18568">
        <ele>115.1</ele>
        <time>2020-05-30T20:25:18Z</time>
      </trkpt>
      <trkpt lat="46.4281" lon="-0.18568">
        <ele>115.1</ele>
        <time>2020-05-30T20:25:19Z</time>
      </trkpt>
      <trkpt lat="46.4281" lon="-0.18568">
        <ele>115.1</ele>
        <time>2020-05-30T20:25:20Z</time>
      </trkpt>
      <trkpt lat="46.4281" lon="-0.18568">
        <ele>115.1</ele>
        <time>2020-05-30T20:25:21Z</time>
      </trkpt>
      <trkpt lat="46.4281" lon="-0.18568">
        <ele>115.1</ele>
        <time>2020-05-30T20:25:22Z</time>
      </trkpt>
      <trkpt lat="46.4281" lon="-0.18568">
        <ele>115.1</ele>
        <time>2020-05-30T20:25:23Z</time>
      </trkpt>
      <trkpt lat="46.4281" lon="-0.18568">
        <ele>115.1</ele>
        <time>2020-05-30T20:25:24Z</time>
      </trkpt>
      <trkpt lat="46.4281" lon="-0.18568">
        <ele>115.1</ele>
        <time>2020-05-30T20:25:25Z</time>
      </trkpt>
      <trkpt lat="46.4281" lon="-0.18568">
        <ele>115.1</ele>
        <time>2020-05-30T20:25:26Z</time>
      </trkpt>
      <trkpt lat="46.4281" lon="-0.18568">
        <ele>115.1</ele>
        <time>2020-05-30T20:25:27Z</time>
      </trkpt>
      <trkpt lat="46.4281" lon="-0.18568">
        <ele>115.1</ele>
        <time>2020-05-30T20:25:28Z</time>
      </trkpt>
      <trkpt lat="46.4281" lon="-0.18569">
        <ele>115.1</ele>
        <time>2020-05-30T20:25:29Z</time>
      </trkpt>
      <trkpt lat="46.4281" lon="-0.18569">
        <ele>115.1</ele>
        <time>2020-05-30T20:25:30Z</time>
      </trkpt>
      <trkpt lat="46.4281" lon="-0.18569">
        <ele>115.1</ele>
        <time>2020-05-30T20:25:31Z</time>
      </trkpt>
      <trkpt lat="46.4281" lon="-0.18569">
        <ele>115.1</ele>
        <time>2020-05-30T20:25:32Z</time>
      </trkpt>
      <trkpt lat="46.4281" lon="-0.18569">
        <ele>115.1</ele>
        <time>2020-05-30T20:25:33Z</time>
      </trkpt>
      <trkpt lat="46.4281" lon="-0.18569">
        <ele>115.1</ele>
        <time>2020-05-30T20:25:34Z</time>
      </trkpt>
      <trkpt lat="46.4281" lon="-0.18569">
        <ele>115.1</ele>
        <time>2020-05-30T20:25:35Z</time>
      </trkpt>
      <trkpt lat="46.4281" lon="-0.18569">
        <ele>115.1</ele>
        <time>2020-05-30T20:25:36Z</time>
      </trkpt>
      <trkpt lat="46.4281" lon="-0.18569">
        <ele>115.1</ele>
        <time>2020-05-30T20:25:37Z</time>
      </trkpt>
      <trkpt lat="46.4281" lon="-0.18569">
        <ele>115.1</ele>
        <time>2020-05-30T20:25:38Z</time>
      </trkpt>
      <trkpt lat="46.4281" lon="-0.18569">
        <ele>115.1</ele>
        <time>2020-05-30T20:25:39Z</time>
      </trkpt>
      <trkpt lat="46.4281" lon="-0.18569">
        <ele>115.1</ele>
        <time>2020-05-30T20:25:40Z</time>
      </trkpt>
      <trkpt lat="46.4281" lon="-0.18569">
        <ele>115.1</ele>
        <time>2020-05-30T20:25:41Z</time>
      </trkpt>
      <trkpt lat="46.4281" lon="-0.18569">
        <ele>115.1</ele>
        <time>2020-05-30T20:25:42Z</time>
      </trkpt>
      <trkpt lat="46.4281" lon="-0.18569">
        <ele>115.1</ele>
        <time>2020-05-30T20:25:43Z</time>
      </trkpt>
      <trkpt lat="46.4281" lon="-0.18569">
        <ele>115.1</ele>
        <time>2020-05-30T20:25:44Z</time>
      </trkpt>
      <trkpt lat="46.4281" lon="-0.18569">
        <ele>115.1</ele>
        <time>2020-05-30T20:25:45Z</time>
      </trkpt>
      <trkpt lat="46.4281" lon="-0.18569">
        <ele>115.1</ele>
        <time>2020-05-30T20:25:46Z</time>
      </trkpt>
      <trkpt lat="46.4281" lon="-0.18569">
        <ele>115.1</ele>
        <time>2020-05-30T20:25:47Z</time>
      </trkpt>
      <trkpt lat="46.4281" lon="-0.18569">
        <ele>115.1</ele>
        <time>2020-05-30T20:25:48Z</time>
      </trkpt>
      <trkpt lat="46.4281" lon="-0.18569">
        <ele>115.1</ele>
        <time>2020-05-30T20:25:49Z</time>
      </trkpt>
      <trkpt lat="46.4281" lon="-0.18569">
        <ele>115.1</ele>
        <time>2020-05-30T20:25:50Z</time>
      </trkpt>
      <trkpt lat="46.4281" lon="-0.18569">
        <ele>115.1</ele>
        <time>2020-05-30T20:25:51Z</time>
      </trkpt>
      <trkpt lat="46.4281" lon="-0.18569">
        <ele>115.1</ele>
        <time>2020-05-30T20:25:52Z</time>
      </trkpt>
      <trkpt lat="46.4281" lon="-0.18569">
        <ele>115.1</ele>
        <time>2020-05-30T20:25:53Z</time>
      </trkpt>
      <trkpt lat="46.4281" lon="-0.18569">
        <ele>115.1</ele>
        <time>2020-05-30T20:25:54Z</time>
      </trkpt>
      <trkpt lat="46.4281" lon="-0.18569">
        <ele>115.1</ele>
        <time>2020-05-30T20:25:55Z</time>
      </trkpt>
      <trkpt lat="46.42811" lon="-0.18569">
        <ele>115.1</ele>
        <time>2020-05-30T20:25:56Z</time>
      </trkpt>
      <trkpt lat="46.42812" lon="-0.18569">
        <ele>115.1</ele>
        <time>2020-05-30T20:25:57Z</time>
      </trkpt>
      <trkpt lat="46.42812" lon="-0.18569">
        <ele>115.1</ele>
        <time>2020-05-30T20:25:58Z</time>
      </trkpt>
      <trkpt lat="46.42812" lon="-0.18569">
        <ele>115.1</ele>
        <time>2020-05-30T20:25:59Z</time>
      </trkpt>
      <trkpt lat="46.42812" lon="-0.1857">
        <ele>115.1</ele>
        <time>2020-05-30T20:26:00Z</time>
      </trkpt>
      <trkpt lat="46.42812" lon="-0.1857">
        <ele>115.1</ele>
        <time>2020-05-30T20:26:01Z</time>
      </trkpt>
      <trkpt lat="46.42812" lon="-0.1857">
        <ele>115.1</ele>
        <time>2020-05-30T20:26:02Z</time>
      </trkpt>
      <trkpt lat="46.42812" lon="-0.1857">
        <ele>115.1</ele>
        <time>2020-05-30T20:26:03Z</time>
      </trkpt>
      <trkpt lat="46.42812" lon="-0.1857">
        <ele>115.1</ele>
        <time>2020-05-30T20:26:04Z</time>
      </trkpt>
      <trkpt lat="46.42812" lon="-0.1857">
        <ele>115.1</ele>
        <time>2020-05-30T20:26:05Z</time>
      </trkpt>
      <trkpt lat="46.42812" lon="-0.1857">
        <ele>115.1</ele>
        <time>2020-05-30T20:26:06Z</time>
      </trkpt>
      <trkpt lat="46.42812" lon="-0.1857">
        <ele>115.1</ele>
        <time>2020-05-30T20:26:07Z</time>
      </trkpt>
      <trkpt lat="46.42812" lon="-0.1857">
        <ele>115.1</ele>
        <time>2020-05-30T20:26:08Z</time>
      </trkpt>
      <trkpt lat="46.42812" lon="-0.1857">
        <ele>115.1</ele>
        <time>2020-05-30T20:26:09Z</time>
      </trkpt>
      <trkpt lat="46.42812" lon="-0.1857">
        <ele>115.1</ele>
        <time>2020-05-30T20:26:10Z</time>
      </trkpt>
      <trkpt lat="46.42812" lon="-0.1857">
        <ele>115.1</ele>
        <time>2020-05-30T20:26:11Z</time>
      </trkpt>
      <trkpt lat="46.42812" lon="-0.18571">
        <ele>115.1</ele>
        <time>2020-05-30T20:26:12Z</time>
      </trkpt>
      <trkpt lat="46.42812" lon="-0.18571">
        <ele>115.1</ele>
        <time>2020-05-30T20:26:13Z</time>
      </trkpt>
      <trkpt lat="46.42812" lon="-0.18571">
        <ele>115.1</ele>
        <time>2020-05-30T20:26:14Z</time>
      </trkpt>
      <trkpt lat="46.42812" lon="-0.18572">
        <ele>115.1</ele>
        <time>2020-05-30T20:26:15Z</time>
      </trkpt>
      <trkpt lat="46.42812" lon="-0.18572">
        <ele>115.1</ele>
        <time>2020-05-30T20:26:16Z</time>
      </trkpt>
      <trkpt lat="46.42812" lon="-0.18572">
        <ele>115.1</ele>
        <time>2020-05-30T20:26:17Z</time>
      </trkpt>
      <trkpt lat="46.42812" lon="-0.18572">
        <ele>115.1</ele>
        <time>2020-05-30T20:26:18Z</time>
      </trkpt>
      <trkpt lat="46.42812" lon="-0.18572">
        <ele>115.1</ele>
        <time>2020-05-30T20:26:19Z</time>
      </trkpt>
      <trkpt lat="46.42812" lon="-0.18572">
        <ele>115.1</ele>
        <time>2020-05-30T20:26:20Z</time>
      </trkpt>
      <trkpt lat="46.42811" lon="-0.18572">
        <ele>115.1</ele>
        <time>2020-05-30T20:26:21Z</time>
      </trkpt>
      <trkpt lat="46.42811" lon="-0.18572">
        <ele>115.2</ele>
        <time>2020-05-30T20:26:22Z</time>
      </trkpt>
      <trkpt lat="46.42811" lon="-0.18572">
        <ele>115.2</ele>
        <time>2020-05-30T20:26:23Z</time>
      </trkpt>
      <trkpt lat="46.42811" lon="-0.18571">
        <ele>115.2</ele>
        <time>2020-05-30T20:26:24Z</time>
      </trkpt>
      <trkpt lat="46.42811" lon="-0.18571">
        <ele>115.2</ele>
        <time>2020-05-30T20:26:25Z</time>
      </trkpt>
      <trkpt lat="46.42811" lon="-0.18572">
        <ele>115.2</ele>
        <time>2020-05-30T20:26:26Z</time>
      </trkpt>
      <trkpt lat="46.42811" lon="-0.18572">
        <ele>115.2</ele>
        <time>2020-05-30T20:26:27Z</time>
      </trkpt>
      <trkpt lat="46.42811" lon="-0.18572">
        <ele>115.2</ele>
        <time>2020-05-30T20:26:28Z</time>
      </trkpt>
      <trkpt lat="46.42811" lon="-0.18572">
        <ele>115.2</ele>
        <time>2020-05-30T20:26:29Z</time>
      </trkpt>
      <trkpt lat="46.42812" lon="-0.18572">
        <ele>115.2</ele>
        <time>2020-05-30T20:26:30Z</time>
      </trkpt>
      <trkpt lat="46.42812" lon="-0.18572">
        <ele>115.2</ele>
        <time>2020-05-30T20:26:31Z</time>
      </trkpt>
      <trkpt lat="46.42812" lon="-0.18572">
        <ele>115.2</ele>
        <time>2020-05-30T20:26:32Z</time>
      </trkpt>
      <trkpt lat="46.42812" lon="-0.18572">
        <ele>115.2</ele>
        <time>2020-05-30T20:26:33Z</time>
      </trkpt>
      <trkpt lat="46.42812" lon="-0.18572">
        <ele>115.2</ele>
        <time>2020-05-30T20:26:34Z</time>
      </trkpt>
      <trkpt lat="46.42812" lon="-0.18572">
        <ele>115.2</ele>
        <time>2020-05-30T20:26:35Z</time>
      </trkpt>
      <trkpt lat="46.42812" lon="-0.18572">
        <ele>115.2</ele>
        <time>2020-05-30T20:26:36Z</time>
      </trkpt>
      <trkpt lat="46.42811" lon="-0.18572">
        <ele>115.2</ele>
        <time>2020-05-30T20:26:37Z</time>
      </trkpt>
      <trkpt lat="46.42811" lon="-0.18572">
        <ele>115.2</ele>
        <time>2020-05-30T20:26:38Z</time>
      </trkpt>
      <trkpt lat="46.42812" lon="-0.18572">
        <ele>115.2</ele>
        <time>2020-05-30T20:26:39Z</time>
      </trkpt>
      <trkpt lat="46.42812" lon="-0.18572">
        <ele>115.2</ele>
        <time>2020-05-30T20:26:40Z</time>
      </trkpt>
      <trkpt lat="46.42812" lon="-0.18572">
        <ele>115.2</ele>
        <time>2020-05-30T20:26:41Z</time>
      </trkpt>
      <trkpt lat="46.42812" lon="-0.18572">
        <ele>115.2</ele>
        <time>2020-05-30T20:26:42Z</time>
      </trkpt>
      <trkpt lat="46.42812" lon="-0.18571">
        <ele>115.2</ele>
        <time>2020-05-30T20:26:43Z</time>
      </trkpt>
      <trkpt lat="46.42813" lon="-0.18571">
        <ele>115.2</ele>
        <time>2020-05-30T20:26:44Z</time>
      </trkpt>
      <trkpt lat="46.42813" lon="-0.18571">
        <ele>115.2</ele>
        <time>2020-05-30T20:26:45Z</time>
      </trkpt>
      <trkpt lat="46.42813" lon="-0.18571">
        <ele>115.2</ele>
        <time>2020-05-30T20:26:46Z</time>
      </trkpt>
      <trkpt lat="46.42813" lon="-0.18571">
        <ele>115.2</ele>
        <time>2020-05-30T20:26:47Z</time>
      </trkpt>
      <trkpt lat="46.42813" lon="-0.18571">
        <ele>115.2</ele>
        <time>2020-05-30T20:26:48Z</time>
      </trkpt>
      <trkpt lat="46.42813" lon="-0.18571">
        <ele>115.2</ele>
        <time>2020-05-30T20:26:49Z</time>
      </trkpt>
      <trkpt lat="46.42813" lon="-0.18571">
        <ele>115.2</ele>
        <time>2020-05-30T20:26:50Z</time>
      </trkpt>
      <trkpt lat="46.42813" lon="-0.18571">
        <ele>115.2</ele>
        <time>2020-05-30T20:26:51Z</time>
      </trkpt>
      <trkpt lat="46.42813" lon="-0.18571">
        <ele>115.2</ele>
        <time>2020-05-30T20:26:52Z</time>
      </trkpt>
      <trkpt lat="46.42813" lon="-0.18571">
        <ele>115.2</ele>
        <time>2020-05-30T20:26:53Z</time>
      </trkpt>
      <trkpt lat="46.42813" lon="-0.18572">
        <ele>115.2</ele>
        <time>2020-05-30T20:26:54Z</time>
      </trkpt>
      <trkpt lat="46.42814" lon="-0.18572">
        <ele>115.2</ele>
        <time>2020-05-30T20:26:55Z</time>
      </trkpt>
      <trkpt lat="46.42814" lon="-0.18572">
        <ele>115.2</ele>
        <time>2020-05-30T20:26:56Z</time>
      </trkpt>
      <trkpt lat="46.42814" lon="-0.18572">
        <ele>115.2</ele>
        <time>2020-05-30T20:26:57Z</time>
      </trkpt>
      <trkpt lat="46.42814" lon="-0.18572">
        <ele>115.2</ele>
        <time>2020-05-30T20:26:58Z</time>
      </trkpt>
      <trkpt lat="46.42814" lon="-0.18571">
        <ele>115.2</ele>
        <time>2020-05-30T20:26:59Z</time>
      </trkpt>
      <trkpt lat="46.42814" lon="-0.1857">
        <ele>115.2</ele>
        <time>2020-05-30T20:27:00Z</time>
      </trkpt>
      <trkpt lat="46.42814" lon="-0.18569">
        <ele>115.2</ele>
        <time>2020-05-30T20:27:01Z</time>
      </trkpt>
      <trkpt lat="46.42814" lon="-0.18569">
        <ele>115.2</ele>
        <time>2020-05-30T20:27:02Z</time>
      </trkpt>
      <trkpt lat="46.42814" lon="-0.18569">
        <ele>115.2</ele>
        <time>2020-05-30T20:27:03Z</time>
      </trkpt>
      <trkpt lat="46.42814" lon="-0.18569">
        <ele>115.2</ele>
        <time>2020-05-30T20:27:04Z</time>
      </trkpt>
      <trkpt lat="46.42814" lon="-0.18569">
        <ele>115.2</ele>
        <time>2020-05-30T20:27:05Z</time>
      </trkpt>
      <trkpt lat="46.42814" lon="-0.18569">
        <ele>115.2</ele>
        <time>2020-05-30T20:27:06Z</time>
      </trkpt>
      <trkpt lat="46.42815" lon="-0.18569">
        <ele>115.2</ele>
        <time>2020-05-30T20:27:07Z</time>
      </trkpt>
      <trkpt lat="46.42815" lon="-0.18569">
        <ele>115.2</ele>
        <time>2020-05-30T20:27:08Z</time>
      </trkpt>
      <trkpt lat="46.42815" lon="-0.18569">
        <ele>115.2</ele>
        <time>2020-05-30T20:27:09Z</time>
      </trkpt>
      <trkpt lat="46.42815" lon="-0.18569">
        <ele>115.2</ele>
        <time>2020-05-30T20:27:10Z</time>
      </trkpt>
      <trkpt lat="46.42815" lon="-0.18569">
        <ele>115.2</ele>
        <time>2020-05-30T20:27:11Z</time>
      </trkpt>
      <trkpt lat="46.42815" lon="-0.18569">
        <ele>115.2</ele>
        <time>2020-05-30T20:27:12Z</time>
      </trkpt>
      <trkpt lat="46.42814" lon="-0.18569">
        <ele>115.2</ele>
        <time>2020-05-30T20:27:13Z</time>
      </trkpt>
      <trkpt lat="46.42814" lon="-0.18569">
        <ele>115.2</ele>
        <time>2020-05-30T20:27:14Z</time>
      </trkpt>
      <trkpt lat="46.42814" lon="-0.18569">
        <ele>115.2</ele>
        <time>2020-05-30T20:27:15Z</time>
      </trkpt>
      <trkpt lat="46.42814" lon="-0.18569">
        <ele>115.2</ele>
        <time>2020-05-30T20:27:16Z</time>
      </trkpt>
      <trkpt lat="46.42815" lon="-0.18569">
        <ele>115.2</ele>
        <time>2020-05-30T20:27:17Z</time>
      </trkpt>
      <trkpt lat="46.42815" lon="-0.18569">
        <ele>115.2</ele>
        <time>2020-05-30T20:27:18Z</time>
      </trkpt>
      <trkpt lat="46.42816" lon="-0.18568">
        <ele>115.2</ele>
        <time>2020-05-30T20:27:19Z</time>
      </trkpt>
      <trkpt lat="46.42816" lon="-0.18568">
        <ele>115.2</ele>
        <time>2020-05-30T20:27:20Z</time>
      </trkpt>
      <trkpt lat="46.42815" lon="-0.18568">
        <ele>115.2</ele>
        <time>2020-05-30T20:27:21Z</time>
      </trkpt>
      <trkpt lat="46.42815" lon="-0.18569">
        <ele>115.2</ele>
        <time>2020-05-30T20:27:22Z</time>
      </trkpt>
      <trkpt lat="46.42815" lon="-0.18569">
        <ele>115.2</ele>
        <time>2020-05-30T20:27:23Z</time>
      </trkpt>
      <trkpt lat="46.42814" lon="-0.18569">
        <ele>115.2</ele>
        <time>2020-05-30T20:27:24Z</time>
      </trkpt>
      <trkpt lat="46.42814" lon="-0.18569">
        <ele>115.2</ele>
        <time>2020-05-30T20:27:25Z</time>
      </trkpt>
      <trkpt lat="46.42814" lon="-0.18569">
        <ele>115.2</ele>
        <time>2020-05-30T20:27:26Z</time>
      </trkpt>
      <trkpt lat="46.42814" lon="-0.18568">
        <ele>115.2</ele>
        <time>2020-05-30T20:27:27Z</time>
      </trkpt>
      <trkpt lat="46.42814" lon="-0.18568">
        <ele>115.2</ele>
        <time>2020-05-30T20:27:28Z</time>
      </trkpt>
      <trkpt lat="46.42814" lon="-0.18568">
        <ele>115.2</ele>
        <time>2020-05-30T20:27:29Z</time>
      </trkpt>
      <trkpt lat="46.42815" lon="-0.18568">
        <ele>115.2</ele>
        <time>2020-05-30T20:27:30Z</time>
      </trkpt>
      <trkpt lat="46.42815" lon="-0.18567">
        <ele>115.2</ele>
        <time>2020-05-30T20:27:31Z</time>
      </trkpt>
      <trkpt lat="46.42815" lon="-0.18567">
        <ele>115.2</ele>
        <time>2020-05-30T20:27:32Z</time>
      </trkpt>
      <trkpt lat="46.42814" lon="-0.18566">
        <ele>115.2</ele>
        <time>2020-05-30T20:27:33Z</time>
      </trkpt>
      <trkpt lat="46.42814" lon="-0.18566">
        <ele>115.2</ele>
        <time>2020-05-30T20:27:34Z</time>
      </trkpt>
      <trkpt lat="46.42814" lon="-0.18567">
        <ele>115.2</ele>
        <time>2020-05-30T20:27:35Z</time>
      </trkpt>
      <trkpt lat="46.42813" lon="-0.18567">
        <ele>115.2</ele>
        <time>2020-05-30T20:27:36Z</time>
      </trkpt>
      <trkpt lat="46.42813" lon="-0.18567">
        <ele>115.2</ele>
        <time>2020-05-30T20:27:37Z</time>
      </trkpt>
      <trkpt lat="46.42813" lon="-0.18566">
        <ele>115.2</ele>
        <time>2020-05-30T20:27:38Z</time>
      </trkpt>
      <trkpt lat="46.42813" lon="-0.18566">
        <ele>115.2</ele>
        <time>2020-05-30T20:27:39Z</time>
      </trkpt>
      <trkpt lat="46.42814" lon="-0.18566">
        <ele>115.2</ele>
        <time>2020-05-30T20:27:40Z</time>
      </trkpt>
      <trkpt lat="46.42814" lon="-0.18566">
        <ele>115.2</ele>
        <time>2020-05-30T20:27:41Z</time>
      </trkpt>
      <trkpt lat="46.42814" lon="-0.18565">
        <ele>115.2</ele>
        <time>2020-05-30T20:27:42Z</time>
      </trkpt>
      <trkpt lat="46.42814" lon="-0.18565">
        <ele>115.2</ele>
        <time>2020-05-30T20:27:43Z</time>
      </trkpt>
      <trkpt lat="46.42814" lon="-0.18565">
        <ele>115.2</ele>
        <time>2020-05-30T20:27:44Z</time>
      </trkpt>
      <trkpt lat="46.42814" lon="-0.18565">
        <ele>115.2</ele>
        <time>2020-05-30T20:27:45Z</time>
      </trkpt>
      <trkpt lat="46.42814" lon="-0.18566">
        <ele>115.2</ele>
        <time>2020-05-30T20:27:46Z</time>
      </trkpt>
      <trkpt lat="46.42814" lon="-0.18565">
        <ele>115.2</ele>
        <time>2020-05-30T20:27:47Z</time>
      </trkpt>
      <trkpt lat="46.42814" lon="-0.18565">
        <ele>115.2</ele>
        <time>2020-05-30T20:27:48Z</time>
      </trkpt>
      <trkpt lat="46.42814" lon="-0.18565">
        <ele>115.2</ele>
        <time>2020-05-30T20:27:49Z</time>
      </trkpt>
      <trkpt lat="46.42814" lon="-0.18565">
        <ele>115.2</ele>
        <time>2020-05-30T20:27:50Z</time>
      </trkpt>
      <trkpt lat="46.42814" lon="-0.18565">
        <ele>115.2</ele>
        <time>2020-05-30T20:27:51Z</time>
      </trkpt>
      <trkpt lat="46.42814" lon="-0.18565">
        <ele>115.2</ele>
        <time>2020-05-30T20:27:52Z</time>
      </trkpt>
      <trkpt lat="46.42814" lon="-0.18565">
        <ele>115.2</ele>
        <time>2020-05-30T20:27:53Z</time>
      </trkpt>
      <trkpt lat="46.42814" lon="-0.18564">
        <ele>115.2</ele>
        <time>2020-05-30T20:27:54Z</time>
      </trkpt>
      <trkpt lat="46.42814" lon="-0.18563">
        <ele>115.2</ele>
        <time>2020-05-30T20:27:55Z</time>
      </trkpt>
      <trkpt lat="46.42814" lon="-0.18563">
        <ele>115.2</ele>
        <time>2020-05-30T20:27:56Z</time>
      </trkpt>
      <trkpt lat="46.42814" lon="-0.18562">
        <ele>115.2</ele>
        <time>2020-05-30T20:27:57Z</time>
      </trkpt>
      <trkpt lat="46.42813" lon="-0.18563">
        <ele>115.2</ele>
        <time>2020-05-30T20:27:58Z</time>
      </trkpt>
      <trkpt lat="46.42813" lon="-0.18563">
        <ele>115.2</ele>
        <time>2020-05-30T20:27:59Z</time>
      </trkpt>
      <trkpt lat="46.42813" lon="-0.18563">
        <ele>115.2</ele>
        <time>2020-05-30T20:28:00Z</time>
      </trkpt>
      <trkpt lat="46.42813" lon="-0.18564">
        <ele>115.2</ele>
        <time>2020-05-30T20:28:01Z</time>
      </trkpt>
      <trkpt lat="46.42814" lon="-0.18564">
        <ele>115.2</ele>
        <time>2020-05-30T20:28:02Z</time>
      </trkpt>
      <trkpt lat="46.42814" lon="-0.18564">
        <ele>115.2</ele>
        <time>2020-05-30T20:28:03Z</time>
      </trkpt>
      <trkpt lat="46.42815" lon="-0.18565">
        <ele>115.2</ele>
        <time>2020-05-30T20:28:04Z</time>
      </trkpt>
      <trkpt lat="46.42815" lon="-0.18565">
        <ele>115.2</ele>
        <time>2020-05-30T20:28:05Z</time>
      </trkpt>
      <trkpt lat="46.42815" lon="-0.18566">
        <ele>115.2</ele>
        <time>2020-05-30T20:28:06Z</time>
      </trkpt>
      <trkpt lat="46.42816" lon="-0.18566">
        <ele>115.2</ele>
        <time>2020-05-30T20:28:07Z</time>
      </trkpt>
      <trkpt lat="46.42816" lon="-0.18566">
        <ele>115.2</ele>
        <time>2020-05-30T20:28:08Z</time>
      </trkpt>
      <trkpt lat="46.42816" lon="-0.18566">
        <ele>115.2</ele>
        <time>2020-05-30T20:28:09Z</time>
      </trkpt>
      <trkpt lat="46.42816" lon="-0.18566">
        <ele>115.2</ele>
        <time>2020-05-30T20:28:10Z</time>
      </trkpt>
      <trkpt lat="46.42816" lon="-0.18566">
        <ele>115.2</ele>
        <time>2020-05-30T20:28:11Z</time>
      </trkpt>
      <trkpt lat="46.42816" lon="-0.18566">
        <ele>115.2</ele>
        <time>2020-05-30T20:28:12Z</time>
      </trkpt>
      <trkpt lat="46.42817" lon="-0.18567">
        <ele>115.2</ele>
        <time>2020-05-30T20:28:13Z</time>
      </trkpt>
      <trkpt lat="46.42817" lon="-0.18567">
        <ele>115.2</ele>
        <time>2020-05-30T20:28:14Z</time>
      </trkpt>
      <trkpt lat="46.42817" lon="-0.18567">
        <ele>115.2</ele>
        <time>2020-05-30T20:28:15Z</time>
      </trkpt>
      <trkpt lat="46.42816" lon="-0.18567">
        <ele>115.2</ele>
        <time>2020-05-30T20:28:16Z</time>
      </trkpt>
      <trkpt lat="46.42816" lon="-0.18567">
        <ele>115.2</ele>
        <time>2020-05-30T20:28:17Z</time>
      </trkpt>
      <trkpt lat="46.42817" lon="-0.18567">
        <ele>115.2</ele>
        <time>2020-05-30T20:28:18Z</time>
      </trkpt>
      <trkpt lat="46.42817" lon="-0.18567">
        <ele>115.2</ele>
        <time>2020-05-30T20:28:19Z</time>
      </trkpt>
      <trkpt lat="46.42817" lon="-0.18566">
        <ele>115.2</ele>
        <time>2020-05-30T20:28:20Z</time>
      </trkpt>
      <trkpt lat="46.42817" lon="-0.18567">
        <ele>115.2</ele>
        <time>2020-05-30T20:28:21Z</time>
      </trkpt>
      <trkpt lat="46.42817" lon="-0.18567">
        <ele>115.2</ele>
        <time>2020-05-30T20:28:22Z</time>
      </trkpt>
      <trkpt lat="46.42817" lon="-0.18568">
        <ele>115.2</ele>
        <time>2020-05-30T20:28:23Z</time>
      </trkpt>
      <trkpt lat="46.42817" lon="-0.18568">
        <ele>115.2</ele>
        <time>2020-05-30T20:28:24Z</time>
      </trkpt>
      <trkpt lat="46.42817" lon="-0.18568">
        <ele>115.2</ele>
        <time>2020-05-30T20:28:25Z</time>
      </trkpt>
      <trkpt lat="46.42817" lon="-0.18568">
        <ele>115.2</ele>
        <time>2020-05-30T20:28:26Z</time>
      </trkpt>
      <trkpt lat="46.42817" lon="-0.18567">
        <ele>115.2</ele>
        <time>2020-05-30T20:28:27Z</time>
      </trkpt>
      <trkpt lat="46.42817" lon="-0.18567">
        <ele>115.2</ele>
        <time>2020-05-30T20:28:28Z</time>
      </trkpt>
      <trkpt lat="46.42817" lon="-0.18567">
        <ele>115.2</ele>
        <time>2020-05-30T20:28:29Z</time>
      </trkpt>
      <trkpt lat="46.42817" lon="-0.18567">
        <ele>115.2</ele>
        <time>2020-05-30T20:28:30Z</time>
      </trkpt>
      <trkpt lat="46.42817" lon="-0.18567">
        <ele>115.2</ele>
        <time>2020-05-30T20:28:31Z</time>
      </trkpt>
      <trkpt lat="46.42816" lon="-0.18568">
        <ele>115.2</ele>
        <time>2020-05-30T20:28:32Z</time>
      </trkpt>
      <trkpt lat="46.42816" lon="-0.18569">
        <ele>115.2</ele>
        <time>2020-05-30T20:28:33Z</time>
      </trkpt>
      <trkpt lat="46.42816" lon="-0.1857">
        <ele>115.2</ele>
        <time>2020-05-30T20:28:34Z</time>
      </trkpt>
      <trkpt lat="46.42816" lon="-0.1857">
        <ele>115.2</ele>
        <time>2020-05-30T20:28:35Z</time>
      </trkpt>
      <trkpt lat="46.42816" lon="-0.18571">
        <ele>115.3</ele>
        <time>2020-05-30T20:28:36Z</time>
      </trkpt>
      <trkpt lat="46.42816" lon="-0.18571">
        <ele>115.3</ele>
        <time>2020-05-30T20:28:37Z</time>
      </trkpt>
      <trkpt lat="46.42816" lon="-0.18571">
        <ele>115.3</ele>
        <time>2020-05-30T20:28:38Z</time>
      </trkpt>
      <trkpt lat="46.42817" lon="-0.18572">
        <ele>115.3</ele>
        <time>2020-05-30T20:28:39Z</time>
      </trkpt>
      <trkpt lat="46.42817" lon="-0.18572">
        <ele>115.3</ele>
        <time>2020-05-30T20:28:40Z</time>
      </trkpt>
      <trkpt lat="46.42817" lon="-0.18572">
        <ele>115.3</ele>
        <time>2020-05-30T20:28:41Z</time>
      </trkpt>
      <trkpt lat="46.42817" lon="-0.18572">
        <ele>115.3</ele>
        <time>2020-05-30T20:28:42Z</time>
      </trkpt>
      <trkpt lat="46.42817" lon="-0.18572">
        <ele>115.3</ele>
        <time>2020-05-30T20:28:43Z</time>
      </trkpt>
      <trkpt lat="46.42817" lon="-0.18572">
        <ele>115.3</ele>
        <time>2020-05-30T20:28:44Z</time>
      </trkpt>
      <trkpt lat="46.42818" lon="-0.18572">
        <ele>115.3</ele>
        <time>2020-05-30T20:28:45Z</time>
      </trkpt>
      <trkpt lat="46.42818" lon="-0.18572">
        <ele>115.3</ele>
        <time>2020-05-30T20:28:46Z</time>
      </trkpt>
      <trkpt lat="46.42818" lon="-0.18573">
        <ele>115.3</ele>
        <time>2020-05-30T20:28:47Z</time>
      </trkpt>
      <trkpt lat="46.42818" lon="-0.18573">
        <ele>115.3</ele>
        <time>2020-05-30T20:28:48Z</time>
      </trkpt>
      <trkpt lat="46.42818" lon="-0.18572">
        <ele>115.3</ele>
        <time>2020-05-30T20:28:49Z</time>
      </trkpt>
      <trkpt lat="46.42818" lon="-0.18572">
        <ele>115.3</ele>
        <time>2020-05-30T20:28:50Z</time>
      </trkpt>
      <trkpt lat="46.42818" lon="-0.18572">
        <ele>115.3</ele>
        <time>2020-05-30T20:28:51Z</time>
      </trkpt>
      <trkpt lat="46.42818" lon="-0.18572">
        <ele>115.3</ele>
        <time>2020-05-30T20:28:52Z</time>
      </trkpt>
      <trkpt lat="46.42818" lon="-0.18572">
        <ele>115.3</ele>
        <time>2020-05-30T20:28:53Z</time>
      </trkpt>
      <trkpt lat="46.42818" lon="-0.18572">
        <ele>115.3</ele>
        <time>2020-05-30T20:28:54Z</time>
      </trkpt>
      <trkpt lat="46.42818" lon="-0.18572">
        <ele>115.3</ele>
        <time>2020-05-30T20:28:55Z</time>
      </trkpt>
      <trkpt lat="46.42817" lon="-0.18571">
        <ele>115.3</ele>
        <time>2020-05-30T20:28:56Z</time>
      </trkpt>
      <trkpt lat="46.42817" lon="-0.18571">
        <ele>115.3</ele>
        <time>2020-05-30T20:28:57Z</time>
      </trkpt>
      <trkpt lat="46.42817" lon="-0.18571">
        <ele>115.3</ele>
        <time>2020-05-30T20:28:58Z</time>
      </trkpt>
      <trkpt lat="46.42817" lon="-0.18571">
        <ele>115.3</ele>
        <time>2020-05-30T20:28:59Z</time>
      </trkpt>
      <trkpt lat="46.42817" lon="-0.18571">
        <ele>115.3</ele>
        <time>2020-05-30T20:29:00Z</time>
      </trkpt>
      <trkpt lat="46.42817" lon="-0.18571">
        <ele>115.3</ele>
        <time>2020-05-30T20:29:01Z</time>
      </trkpt>
      <trkpt lat="46.42817" lon="-0.18571">
        <ele>115.3</ele>
        <time>2020-05-30T20:29:02Z</time>
      </trkpt>
      <trkpt lat="46.42817" lon="-0.18571">
        <ele>115.3</ele>
        <time>2020-05-30T20:29:03Z</time>
      </trkpt>
      <trkpt lat="46.42817" lon="-0.18571">
        <ele>115.3</ele>
        <time>2020-05-30T20:29:04Z</time>
      </trkpt>
      <trkpt lat="46.42817" lon="-0.1857">
        <ele>115.3</ele>
        <time>2020-05-30T20:29:05Z</time>
      </trkpt>
      <trkpt lat="46.42816" lon="-0.1857">
        <ele>115.3</ele>
        <time>2020-05-30T20:29:06Z</time>
      </trkpt>
      <trkpt lat="46.42816" lon="-0.1857">
        <ele>115.3</ele>
        <time>2020-05-30T20:29:07Z</time>
      </trkpt>
      <trkpt lat="46.42816" lon="-0.1857">
        <ele>115.3</ele>
        <time>2020-05-30T20:29:08Z</time>
      </trkpt>
      <trkpt lat="46.42816" lon="-0.18571">
        <ele>115.3</ele>
        <time>2020-05-30T20:29:09Z</time>
      </trkpt>
      <trkpt lat="46.42815" lon="-0.1857">
        <ele>115.3</ele>
        <time>2020-05-30T20:29:10Z</time>
      </trkpt>
      <trkpt lat="46.42816" lon="-0.18571">
        <ele>115.3</ele>
        <time>2020-05-30T20:29:11Z</time>
      </trkpt>
      <trkpt lat="46.42816" lon="-0.18571">
        <ele>115.3</ele>
        <time>2020-05-30T20:29:12Z</time>
      </trkpt>
      <trkpt lat="46.42816" lon="-0.18571">
        <ele>115.3</ele>
        <time>2020-05-30T20:29:13Z</time>
      </trkpt>
      <trkpt lat="46.42816" lon="-0.18571">
        <ele>115.3</ele>
        <time>2020-05-30T20:29:14Z</time>
      </trkpt>
      <trkpt lat="46.42816" lon="-0.1857">
        <ele>115.3</ele>
        <time>2020-05-30T20:29:15Z</time>
      </trkpt>
      <trkpt lat="46.42816" lon="-0.1857">
        <ele>115.3</ele>
        <time>2020-05-30T20:29:16Z</time>
      </trkpt>
      <trkpt lat="46.42816" lon="-0.1857">
        <ele>115.3</ele>
        <time>2020-05-30T20:29:17Z</time>
      </trkpt>
      <trkpt lat="46.42816" lon="-0.1857">
        <ele>115.3</ele>
        <time>2020-05-30T20:29:18Z</time>
      </trkpt>
      <trkpt lat="46.42816" lon="-0.1857">
        <ele>115.3</ele>
        <time>2020-05-30T20:29:19Z</time>
      </trkpt>
      <trkpt lat="46.42816" lon="-0.1857">
        <ele>115.3</ele>
        <time>2020-05-30T20:29:20Z</time>
      </trkpt>
      <trkpt lat="46.42816" lon="-0.1857">
        <ele>115.3</ele>
        <time>2020-05-30T20:29:21Z</time>
      </trkpt>
      <trkpt lat="46.42816" lon="-0.1857">
        <ele>115.3</ele>
        <time>2020-05-30T20:29:22Z</time>
      </trkpt>
      <trkpt lat="46.42816" lon="-0.1857">
        <ele>115.3</ele>
        <time>2020-05-30T20:29:23Z</time>
      </trkpt>
      <trkpt lat="46.42816" lon="-0.1857">
        <ele>115.3</ele>
        <time>2020-05-30T20:29:24Z</time>
      </trkpt>
      <trkpt lat="46.42816" lon="-0.1857">
        <ele>115.3</ele>
        <time>2020-05-30T20:29:25Z</time>
      </trkpt>
      <trkpt lat="46.42816" lon="-0.1857">
        <ele>115.3</ele>
        <time>2020-05-30T20:29:26Z</time>
      </trkpt>
      <trkpt lat="46.42816" lon="-0.1857">
        <ele>115.3</ele>
        <time>2020-05-30T20:29:27Z</time>
      </trkpt>
      <trkpt lat="46.42816" lon="-0.1857">
        <ele>115.3</ele>
        <time>2020-05-30T20:29:28Z</time>
      </trkpt>
      <trkpt lat="46.42816" lon="-0.1857">
        <ele>115.3</ele>
        <time>2020-05-30T20:29:29Z</time>
      </trkpt>
      <trkpt lat="46.42816" lon="-0.18571">
        <ele>115.3</ele>
        <time>2020-05-30T20:29:30Z</time>
      </trkpt>
      <trkpt lat="46.42816" lon="-0.18571">
        <ele>115.3</ele>
        <time>2020-05-30T20:29:31Z</time>
      </trkpt>
      <trkpt lat="46.42815" lon="-0.18571">
        <ele>115.3</ele>
        <time>2020-05-30T20:29:32Z</time>
      </trkpt>
      <trkpt lat="46.42815" lon="-0.18571">
        <ele>115.3</ele>
        <time>2020-05-30T20:29:33Z</time>
      </trkpt>
      <trkpt lat="46.42815" lon="-0.1857">
        <ele>115.3</ele>
        <time>2020-05-30T20:29:34Z</time>
      </trkpt>
      <trkpt lat="46.42816" lon="-0.1857">
        <ele>115.3</ele>
        <time>2020-05-30T20:29:35Z</time>
      </trkpt>
      <trkpt lat="46.42816" lon="-0.18569">
        <ele>115.3</ele>
        <time>2020-05-30T20:29:36Z</time>
      </trkpt>
      <trkpt lat="46.42816" lon="-0.18569">
        <ele>115.3</ele>
        <time>2020-05-30T20:29:37Z</time>
      </trkpt>
      <trkpt lat="46.42816" lon="-0.18568">
        <ele>115.3</ele>
        <time>2020-05-30T20:29:38Z</time>
      </trkpt>
      <trkpt lat="46.42816" lon="-0.18569">
        <ele>115.3</ele>
        <time>2020-05-30T20:29:39Z</time>
      </trkpt>
      <trkpt lat="46.42816" lon="-0.18569">
        <ele>115.3</ele>
        <time>2020-05-30T20:29:40Z</time>
      </trkpt>
      <trkpt lat="46.42816" lon="-0.18569">
        <ele>115.3</ele>
        <time>2020-05-30T20:29:41Z</time>
      </trkpt>
      <trkpt lat="46.42816" lon="-0.18569">
        <ele>115.3</ele>
        <time>2020-05-30T20:29:42Z</time>
      </trkpt>
      <trkpt lat="46.42816" lon="-0.18569">
        <ele>115.3</ele>
        <time>2020-05-30T20:29:43Z</time>
      </trkpt>
      <trkpt lat="46.42816" lon="-0.18569">
        <ele>115.3</ele>
        <time>2020-05-30T20:29:44Z</time>
      </trkpt>
      <trkpt lat="46.42817" lon="-0.18569">
        <ele>115.3</ele>
        <time>2020-05-30T20:29:45Z</time>
      </trkpt>
      <trkpt lat="46.42817" lon="-0.1857">
        <ele>115.3</ele>
        <time>2020-05-30T20:29:46Z</time>
      </trkpt>
      <trkpt lat="46.42817" lon="-0.18569">
        <ele>115.3</ele>
        <time>2020-05-30T20:29:47Z</time>
      </trkpt>
      <trkpt lat="46.42817" lon="-0.18569">
        <ele>115.3</ele>
        <time>2020-05-30T20:29:48Z</time>
      </trkpt>
      <trkpt lat="46.42817" lon="-0.18569">
        <ele>115.3</ele>
        <time>2020-05-30T20:29:49Z</time>
      </trkpt>
      <trkpt lat="46.42817" lon="-0.18569">
        <ele>115.3</ele>
        <time>2020-05-30T20:29:50Z</time>
      </trkpt>
      <trkpt lat="46.42817" lon="-0.1857">
        <ele>115.3</ele>
        <time>2020-05-30T20:29:51Z</time>
      </trkpt>
      <trkpt lat="46.42817" lon="-0.1857">
        <ele>115.3</ele>
        <time>2020-05-30T20:29:52Z</time>
      </trkpt>
      <trkpt lat="46.42817" lon="-0.1857">
        <ele>115.3</ele>
        <time>2020-05-30T20:29:53Z</time>
      </trkpt>
      <trkpt lat="46.42817" lon="-0.1857">
        <ele>115.3</ele>
        <time>2020-05-30T20:29:54Z</time>
      </trkpt>
      <trkpt lat="46.42817" lon="-0.1857">
        <ele>115.3</ele>
        <time>2020-05-30T20:29:55Z</time>
      </trkpt>
      <trkpt lat="46.42817" lon="-0.1857">
        <ele>115.3</ele>
        <time>2020-05-30T20:29:56Z</time>
      </trkpt>
      <trkpt lat="46.42817" lon="-0.1857">
        <ele>115.3</ele>
        <time>2020-05-30T20:29:57Z</time>
      </trkpt>
      <trkpt lat="46.42817" lon="-0.1857">
        <ele>115.3</ele>
        <time>2020-05-30T20:29:58Z</time>
      </trkpt>
      <trkpt lat="46.42817" lon="-0.18568">
        <ele>115.3</ele>
        <time>2020-05-30T20:29:59Z</time>
      </trkpt>
      <trkpt lat="46.42816" lon="-0.18568">
        <ele>115.3</ele>
        <time>2020-05-30T20:30:00Z</time>
      </trkpt>
      <trkpt lat="46.42816" lon="-0.18568">
        <ele>115.3</ele>
        <time>2020-05-30T20:30:01Z</time>
      </trkpt>
      <trkpt lat="46.42816" lon="-0.18568">
        <ele>115.3</ele>
        <time>2020-05-30T20:30:02Z</time>
      </trkpt>
      <trkpt lat="46.42816" lon="-0.18568">
        <ele>115.3</ele>
        <time>2020-05-30T20:30:03Z</time>
      </trkpt>
      <trkpt lat="46.42816" lon="-0.18567">
        <ele>115.3</ele>
        <time>2020-05-30T20:30:04Z</time>
      </trkpt>
      <trkpt lat="46.42815" lon="-0.18567">
        <ele>115.3</ele>
        <time>2020-05-30T20:30:05Z</time>
      </trkpt>
      <trkpt lat="46.42815" lon="-0.18567">
        <ele>115.3</ele>
        <time>2020-05-30T20:30:06Z</time>
      </trkpt>
      <trkpt lat="46.42815" lon="-0.18566">
        <ele>115.3</ele>
        <time>2020-05-30T20:30:07Z</time>
      </trkpt>
      <trkpt lat="46.42815" lon="-0.18566">
        <ele>115.3</ele>
        <time>2020-05-30T20:30:08Z</time>
      </trkpt>
      <trkpt lat="46.42815" lon="-0.18566">
        <ele>115.3</ele>
        <time>2020-05-30T20:30:09Z</time>
      </trkpt>
      <trkpt lat="46.42815" lon="-0.18566">
        <ele>115.3</ele>
        <time>2020-05-30T20:30:10Z</time>
      </trkpt>
      <trkpt lat="46.42815" lon="-0.18566">
        <ele>115.3</ele>
        <time>2020-05-30T20:30:11Z</time>
      </trkpt>
      <trkpt lat="46.42815" lon="-0.18566">
        <ele>115.3</ele>
        <time>2020-05-30T20:30:12Z</time>
      </trkpt>
      <trkpt lat="46.42815" lon="-0.18566">
        <ele>115.3</ele>
        <time>2020-05-30T20:30:13Z</time>
      </trkpt>
      <trkpt lat="46.42815" lon="-0.18566">
        <ele>115.3</ele>
        <time>2020-05-30T20:30:14Z</time>
      </trkpt>
      <trkpt lat="46.42815" lon="-0.18566">
        <ele>115.3</ele>
        <time>2020-05-30T20:30:15Z</time>
      </trkpt>
      <trkpt lat="46.42815" lon="-0.18565">
        <ele>115.3</ele>
        <time>2020-05-30T20:30:16Z</time>
      </trkpt>
      <trkpt lat="46.42815" lon="-0.18565">
        <ele>115.3</ele>
        <time>2020-05-30T20:30:17Z</time>
      </trkpt>
      <trkpt lat="46.42815" lon="-0.18565">
        <ele>115.3</ele>
        <time>2020-05-30T20:30:18Z</time>
      </trkpt>
      <trkpt lat="46.42816" lon="-0.18565">
        <ele>115.3</ele>
        <time>2020-05-30T20:30:19Z</time>
      </trkpt>
      <trkpt lat="46.42816" lon="-0.18565">
        <ele>115.3</ele>
        <time>2020-05-30T20:30:20Z</time>
      </trkpt>
      <trkpt lat="46.42816" lon="-0.18565">
        <ele>115.3</ele>
        <time>2020-05-30T20:30:21Z</time>
      </trkpt>
      <trkpt lat="46.42816" lon="-0.18565">
        <ele>115.3</ele>
        <time>2020-05-30T20:30:22Z</time>
      </trkpt>
      <trkpt lat="46.42817" lon="-0.18565">
        <ele>115.3</ele>
        <time>2020-05-30T20:30:23Z</time>
      </trkpt>
      <trkpt lat="46.42817" lon="-0.18566">
        <ele>115.3</ele>
        <time>2020-05-30T20:30:24Z</time>
      </trkpt>
      <trkpt lat="46.42817" lon="-0.18565">
        <ele>115.3</ele>
        <time>2020-05-30T20:30:25Z</time>
      </trkpt>
      <trkpt lat="46.42817" lon="-0.18565">
        <ele>115.3</ele>
        <time>2020-05-30T20:30:26Z</time>
      </trkpt>
      <trkpt lat="46.42817" lon="-0.18565">
        <ele>115.3</ele>
        <time>2020-05-30T20:30:27Z</time>
      </trkpt>
      <trkpt lat="46.42817" lon="-0.18566">
        <ele>115.3</ele>
        <time>2020-05-30T20:30:28Z</time>
      </trkpt>
      <trkpt lat="46.42817" lon="-0.18566">
        <ele>115.3</ele>
        <time>2020-05-30T20:30:29Z</time>
      </trkpt>
      <trkpt lat="46.42817" lon="-0.18567">
        <ele>115.3</ele>
        <time>2020-05-30T20:30:30Z</time>
      </trkpt>
      <trkpt lat="46.42817" lon="-0.18567">
        <ele>115.3</ele>
        <time>2020-05-30T20:30:31Z</time>
      </trkpt>
      <trkpt lat="46.42817" lon="-0.18567">
        <ele>115.3</ele>
        <time>2020-05-30T20:30:32Z</time>
      </trkpt>
      <trkpt lat="46.42817" lon="-0.18568">
        <ele>115.3</ele>
        <time>2020-05-30T20:30:33Z</time>
      </trkpt>
      <trkpt lat="46.42817" lon="-0.18568">
        <ele>115.3</ele>
        <time>2020-05-30T20:30:34Z</time>
      </trkpt>
      <trkpt lat="46.42817" lon="-0.18567">
        <ele>115.3</ele>
        <time>2020-05-30T20:30:35Z</time>
      </trkpt>
      <trkpt lat="46.42817" lon="-0.18568">
        <ele>115.3</ele>
        <time>2020-05-30T20:30:36Z</time>
      </trkpt>
      <trkpt lat="46.42816" lon="-0.18569">
        <ele>115.3</ele>
        <time>2020-05-30T20:30:37Z</time>
      </trkpt>
      <trkpt lat="46.42817" lon="-0.1857">
        <ele>115.3</ele>
        <time>2020-05-30T20:30:38Z</time>
      </trkpt>
      <trkpt lat="46.42817" lon="-0.1857">
        <ele>115.3</ele>
        <time>2020-05-30T20:30:39Z</time>
      </trkpt>
      <trkpt lat="46.42817" lon="-0.1857">
        <ele>115.3</ele>
        <time>2020-05-30T20:30:40Z</time>
      </trkpt>
      <trkpt lat="46.42817" lon="-0.1857">
        <ele>115.3</ele>
        <time>2020-05-30T20:30:41Z</time>
      </trkpt>
      <trkpt lat="46.42817" lon="-0.1857">
        <ele>115.3</ele>
        <time>2020-05-30T20:30:42Z</time>
      </trkpt>
      <trkpt lat="46.42817" lon="-0.18569">
        <ele>115.3</ele>
        <time>2020-05-30T20:30:43Z</time>
      </trkpt>
      <trkpt lat="46.42816" lon="-0.18569">
        <ele>115.3</ele>
        <time>2020-05-30T20:30:44Z</time>
      </trkpt>
      <trkpt lat="46.42816" lon="-0.18569">
        <ele>115.4</ele>
        <time>2020-05-30T20:30:45Z</time>
      </trkpt>
      <trkpt lat="46.42816" lon="-0.18569">
        <ele>115.4</ele>
        <time>2020-05-30T20:30:46Z</time>
      </trkpt>
      <trkpt lat="46.42816" lon="-0.18569">
        <ele>115.4</ele>
        <time>2020-05-30T20:30:47Z</time>
      </trkpt>
      <trkpt lat="46.42816" lon="-0.18569">
        <ele>115.4</ele>
        <time>2020-05-30T20:30:48Z</time>
      </trkpt>
      <trkpt lat="46.42816" lon="-0.18569">
        <ele>115.4</ele>
        <time>2020-05-30T20:30:49Z</time>
      </trkpt>
      <trkpt lat="46.42816" lon="-0.18569">
        <ele>115.4</ele>
        <time>2020-05-30T20:30:50Z</time>
      </trkpt>
      <trkpt lat="46.42815" lon="-0.18569">
        <ele>115.4</ele>
        <time>2020-05-30T20:30:51Z</time>
      </trkpt>
      <trkpt lat="46.42815" lon="-0.1857">
        <ele>115.4</ele>
        <time>2020-05-30T20:30:52Z</time>
      </trkpt>
      <trkpt lat="46.42814" lon="-0.1857">
        <ele>115.4</ele>
        <time>2020-05-30T20:30:53Z</time>
      </trkpt>
      <trkpt lat="46.42814" lon="-0.1857">
        <ele>115.4</ele>
        <time>2020-05-30T20:30:54Z</time>
      </trkpt>
      <trkpt lat="46.42814" lon="-0.18571">
        <ele>115.4</ele>
        <time>2020-05-30T20:30:55Z</time>
      </trkpt>
      <trkpt lat="46.42814" lon="-0.18571">
        <ele>115.4</ele>
        <time>2020-05-30T20:30:56Z</time>
      </trkpt>
      <trkpt lat="46.42814" lon="-0.18571">
        <ele>115.4</ele>
        <time>2020-05-30T20:30:57Z</time>
      </trkpt>
      <trkpt lat="46.42814" lon="-0.18572">
        <ele>115.4</ele>
        <time>2020-05-30T20:30:58Z</time>
      </trkpt>
      <trkpt lat="46.42814" lon="-0.18571">
        <ele>115.4</ele>
        <time>2020-05-30T20:30:59Z</time>
      </trkpt>
      <trkpt lat="46.42814" lon="-0.18571">
        <ele>115.4</ele>
        <time>2020-05-30T20:31:00Z</time>
      </trkpt>
      <trkpt lat="46.42814" lon="-0.18571">
        <ele>115.4</ele>
        <time>2020-05-30T20:31:01Z</time>
      </trkpt>
      <trkpt lat="46.42814" lon="-0.18571">
        <ele>115.4</ele>
        <time>2020-05-30T20:31:02Z</time>
      </trkpt>
      <trkpt lat="46.42814" lon="-0.18571">
        <ele>115.4</ele>
        <time>2020-05-30T20:31:03Z</time>
      </trkpt>
      <trkpt lat="46.42813" lon="-0.18571">
        <ele>115.4</ele>
        <time>2020-05-30T20:31:04Z</time>
      </trkpt>
      <trkpt lat="46.42813" lon="-0.18571">
        <ele>115.4</ele>
        <time>2020-05-30T20:31:05Z</time>
      </trkpt>
      <trkpt lat="46.42813" lon="-0.18571">
        <ele>115.4</ele>
        <time>2020-05-30T20:31:06Z</time>
      </trkpt>
      <trkpt lat="46.42813" lon="-0.18571">
        <ele>115.4</ele>
        <time>2020-05-30T20:31:07Z</time>
      </trkpt>
      <trkpt lat="46.42813" lon="-0.18572">
        <ele>115.4</ele>
        <time>2020-05-30T20:31:08Z</time>
      </trkpt>
      <trkpt lat="46.42813" lon="-0.18572">
        <ele>115.4</ele>
        <time>2020-05-30T20:31:09Z</time>
      </trkpt>
      <trkpt lat="46.42813" lon="-0.18572">
        <ele>115.4</ele>
        <time>2020-05-30T20:31:10Z</time>
      </trkpt>
      <trkpt lat="46.42813" lon="-0.18572">
        <ele>115.4</ele>
        <time>2020-05-30T20:31:11Z</time>
      </trkpt>
      <trkpt lat="46.42813" lon="-0.18573">
        <ele>115.4</ele>
        <time>2020-05-30T20:31:12Z</time>
      </trkpt>
      <trkpt lat="46.42813" lon="-0.18572">
        <ele>115.4</ele>
        <time>2020-05-30T20:31:13Z</time>
      </trkpt>
      <trkpt lat="46.42813" lon="-0.18572">
        <ele>115.4</ele>
        <time>2020-05-30T20:31:14Z</time>
      </trkpt>
      <trkpt lat="46.42813" lon="-0.18572">
        <ele>115.4</ele>
        <time>2020-05-30T20:31:15Z</time>
      </trkpt>
      <trkpt lat="46.42813" lon="-0.18572">
        <ele>115.4</ele>
        <time>2020-05-30T20:31:16Z</time>
      </trkpt>
      <trkpt lat="46.42813" lon="-0.18572">
        <ele>115.4</ele>
        <time>2020-05-30T20:31:17Z</time>
      </trkpt>
      <trkpt lat="46.42813" lon="-0.18573">
        <ele>115.4</ele>
        <time>2020-05-30T20:31:18Z</time>
      </trkpt>
      <trkpt lat="46.42813" lon="-0.18572">
        <ele>115.4</ele>
        <time>2020-05-30T20:31:19Z</time>
      </trkpt>
      <trkpt lat="46.42813" lon="-0.18573">
        <ele>115.4</ele>
        <time>2020-05-30T20:31:20Z</time>
      </trkpt>
      <trkpt lat="46.42813" lon="-0.18574">
        <ele>115.4</ele>
        <time>2020-05-30T20:31:21Z</time>
      </trkpt>
      <trkpt lat="46.42813" lon="-0.18574">
        <ele>115.4</ele>
        <time>2020-05-30T20:31:22Z</time>
      </trkpt>
      <trkpt lat="46.42814" lon="-0.18574">
        <ele>115.4</ele>
        <time>2020-05-30T20:31:23Z</time>
      </trkpt>
      <trkpt lat="46.42814" lon="-0.18574">
        <ele>115.4</ele>
        <time>2020-05-30T20:31:24Z</time>
      </trkpt>
      <trkpt lat="46.42814" lon="-0.18574">
        <ele>115.4</ele>
        <time>2020-05-30T20:31:25Z</time>
      </trkpt>
      <trkpt lat="46.42815" lon="-0.18575">
        <ele>115.4</ele>
        <time>2020-05-30T20:31:26Z</time>
      </trkpt>
      <trkpt lat="46.42815" lon="-0.18575">
        <ele>115.4</ele>
        <time>2020-05-30T20:31:27Z</time>
      </trkpt>
      <trkpt lat="46.42815" lon="-0.18575">
        <ele>115.4</ele>
        <time>2020-05-30T20:31:28Z</time>
      </trkpt>
      <trkpt lat="46.42815" lon="-0.18575">
        <ele>115.4</ele>
        <time>2020-05-30T20:31:29Z</time>
      </trkpt>
      <trkpt lat="46.42815" lon="-0.18575">
        <ele>115.4</ele>
        <time>2020-05-30T20:31:30Z</time>
      </trkpt>
      <trkpt lat="46.42815" lon="-0.18575">
        <ele>115.4</ele>
        <time>2020-05-30T20:31:31Z</time>
      </trkpt>
      <trkpt lat="46.42815" lon="-0.18574">
        <ele>115.4</ele>
        <time>2020-05-30T20:31:32Z</time>
      </trkpt>
      <trkpt lat="46.42815" lon="-0.18574">
        <ele>115.4</ele>
        <time>2020-05-30T20:31:33Z</time>
      </trkpt>
      <trkpt lat="46.42815" lon="-0.18574">
        <ele>115.4</ele>
        <time>2020-05-30T20:31:34Z</time>
      </trkpt>
      <trkpt lat="46.42815" lon="-0.18574">
        <ele>115.4</ele>
        <time>2020-05-30T20:31:35Z</time>
      </trkpt>
      <trkpt lat="46.42816" lon="-0.18573">
        <ele>115.4</ele>
        <time>2020-05-30T20:31:36Z</time>
      </trkpt>
      <trkpt lat="46.42816" lon="-0.18573">
        <ele>115.4</ele>
        <time>2020-05-30T20:31:37Z</time>
      </trkpt>
      <trkpt lat="46.42816" lon="-0.18572">
        <ele>115.4</ele>
        <time>2020-05-30T20:31:38Z</time>
      </trkpt>
      <trkpt lat="46.42816" lon="-0.18571">
        <ele>115.4</ele>
        <time>2020-05-30T20:31:39Z</time>
      </trkpt>
      <trkpt lat="46.42816" lon="-0.1857">
        <ele>115.4</ele>
        <time>2020-05-30T20:31:40Z</time>
      </trkpt>
      <trkpt lat="46.42816" lon="-0.1857">
        <ele>115.4</ele>
        <time>2020-05-30T20:31:41Z</time>
      </trkpt>
      <trkpt lat="46.42816" lon="-0.18569">
        <ele>115.4</ele>
        <time>2020-05-30T20:31:42Z</time>
      </trkpt>
      <trkpt lat="46.42816" lon="-0.18568">
        <ele>115.4</ele>
        <time>2020-05-30T20:31:43Z</time>
      </trkpt>
      <trkpt lat="46.42816" lon="-0.18568">
        <ele>115.4</ele>
        <time>2020-05-30T20:31:44Z</time>
      </trkpt>
      <trkpt lat="46.42816" lon="-0.18568">
        <ele>115.4</ele>
        <time>2020-05-30T20:31:45Z</time>
      </trkpt>
      <trkpt lat="46.42816" lon="-0.18568">
        <ele>115.4</ele>
        <time>2020-05-30T20:31:46Z</time>
      </trkpt>
      <trkpt lat="46.42816" lon="-0.18568">
        <ele>115.4</ele>
        <time>2020-05-30T20:31:47Z</time>
      </trkpt>
      <trkpt lat="46.42816" lon="-0.18568">
        <ele>115.4</ele>
        <time>2020-05-30T20:31:48Z</time>
      </trkpt>
      <trkpt lat="46.42816" lon="-0.18568">
        <ele>115.4</ele>
        <time>2020-05-30T20:31:49Z</time>
      </trkpt>
      <trkpt lat="46.42816" lon="-0.18568">
        <ele>115.4</ele>
        <time>2020-05-30T20:31:50Z</time>
      </trkpt>
      <trkpt lat="46.42816" lon="-0.18568">
        <ele>115.4</ele>
        <time>2020-05-30T20:31:51Z</time>
      </trkpt>
      <trkpt lat="46.42816" lon="-0.18568">
        <ele>115.4</ele>
        <time>2020-05-30T20:31:52Z</time>
      </trkpt>
      <trkpt lat="46.42816" lon="-0.18567">
        <ele>115.4</ele>
        <time>2020-05-30T20:31:53Z</time>
      </trkpt>
      <trkpt lat="46.42816" lon="-0.18567">
        <ele>115.4</ele>
        <time>2020-05-30T20:31:54Z</time>
      </trkpt>
      <trkpt lat="46.42817" lon="-0.18567">
        <ele>115.4</ele>
        <time>2020-05-30T20:31:55Z</time>
      </trkpt>
      <trkpt lat="46.42818" lon="-0.18567">
        <ele>115.4</ele>
        <time>2020-05-30T20:31:56Z</time>
      </trkpt>
      <trkpt lat="46.42819" lon="-0.18567">
        <ele>115.4</ele>
        <time>2020-05-30T20:31:57Z</time>
      </trkpt>
      <trkpt lat="46.42819" lon="-0.18567">
        <ele>115.4</ele>
        <time>2020-05-30T20:31:58Z</time>
      </trkpt>
      <trkpt lat="46.42819" lon="-0.18567">
        <ele>115.4</ele>
        <time>2020-05-30T20:31:59Z</time>
      </trkpt>
      <trkpt lat="46.4282" lon="-0.18567">
        <ele>115.4</ele>
        <time>2020-05-30T20:32:00Z</time>
      </trkpt>
      <trkpt lat="46.42819" lon="-0.18567">
        <ele>115.4</ele>
        <time>2020-05-30T20:32:01Z</time>
      </trkpt>
      <trkpt lat="46.4282" lon="-0.18567">
        <ele>115.4</ele>
        <time>2020-05-30T20:32:02Z</time>
      </trkpt>
      <trkpt lat="46.4282" lon="-0.18566">
        <ele>115.4</ele>
        <time>2020-05-30T20:32:03Z</time>
      </trkpt>
      <trkpt lat="46.4282" lon="-0.18566">
        <ele>115.4</ele>
        <time>2020-05-30T20:32:04Z</time>
      </trkpt>
      <trkpt lat="46.4282" lon="-0.18566">
        <ele>115.4</ele>
        <time>2020-05-30T20:32:05Z</time>
      </trkpt>
      <trkpt lat="46.4282" lon="-0.18566">
        <ele>115.4</ele>
        <time>2020-05-30T20:32:06Z</time>
      </trkpt>
      <trkpt lat="46.4282" lon="-0.18566">
        <ele>115.4</ele>
        <time>2020-05-30T20:32:07Z</time>
      </trkpt>
      <trkpt lat="46.4282" lon="-0.18566">
        <ele>115.4</ele>
        <time>2020-05-30T20:32:08Z</time>
      </trkpt>
      <trkpt lat="46.4282" lon="-0.18565">
        <ele>115.4</ele>
        <time>2020-05-30T20:32:09Z</time>
      </trkpt>
      <trkpt lat="46.4282" lon="-0.18565">
        <ele>115.4</ele>
        <time>2020-05-30T20:32:10Z</time>
      </trkpt>
      <trkpt lat="46.4282" lon="-0.18565">
        <ele>115.4</ele>
        <time>2020-05-30T20:32:11Z</time>
      </trkpt>
      <trkpt lat="46.4282" lon="-0.18565">
        <ele>115.4</ele>
        <time>2020-05-30T20:32:12Z</time>
      </trkpt>
      <trkpt lat="46.4282" lon="-0.18565">
        <ele>115.4</ele>
        <time>2020-05-30T20:32:13Z</time>
      </trkpt>
      <trkpt lat="46.4282" lon="-0.18565">
        <ele>115.4</ele>
        <time>2020-05-30T20:32:14Z</time>
      </trkpt>
      <trkpt lat="46.42819" lon="-0.18565">
        <ele>115.4</ele>
        <time>2020-05-30T20:32:15Z</time>
      </trkpt>
      <trkpt lat="46.42819" lon="-0.18565">
        <ele>115.4</ele>
        <time>2020-05-30T20:32:16Z</time>
      </trkpt>
      <trkpt lat="46.42819" lon="-0.18565">
        <ele>115.4</ele>
        <time>2020-05-30T20:32:17Z</time>
      </trkpt>
      <trkpt lat="46.42819" lon="-0.18565">
        <ele>115.4</ele>
        <time>2020-05-30T20:32:18Z</time>
      </trkpt>
      <trkpt lat="46.42819" lon="-0.18566">
        <ele>115.4</ele>
        <time>2020-05-30T20:32:19Z</time>
      </trkpt>
      <trkpt lat="46.42818" lon="-0.18566">
        <ele>115.4</ele>
        <time>2020-05-30T20:32:20Z</time>
      </trkpt>
      <trkpt lat="46.42818" lon="-0.18566">
        <ele>115.4</ele>
        <time>2020-05-30T20:32:21Z</time>
      </trkpt>
      <trkpt lat="46.42818" lon="-0.18566">
        <ele>115.4</ele>
        <time>2020-05-30T20:32:22Z</time>
      </trkpt>
      <trkpt lat="46.42818" lon="-0.18566">
        <ele>115.4</ele>
        <time>2020-05-30T20:32:23Z</time>
      </trkpt>
      <trkpt lat="46.42818" lon="-0.18565">
        <ele>115.4</ele>
        <time>2020-05-30T20:32:24Z</time>
      </trkpt>
      <trkpt lat="46.42818" lon="-0.18565">
        <ele>115.4</ele>
        <time>2020-05-30T20:32:25Z</time>
      </trkpt>
      <trkpt lat="46.42818" lon="-0.18564">
        <ele>115.4</ele>
        <time>2020-05-30T20:32:26Z</time>
      </trkpt>
      <trkpt lat="46.42818" lon="-0.18565">
        <ele>115.4</ele>
        <time>2020-05-30T20:32:27Z</time>
      </trkpt>
      <trkpt lat="46.42818" lon="-0.18564">
        <ele>115.4</ele>
        <time>2020-05-30T20:32:28Z</time>
      </trkpt>
      <trkpt lat="46.42818" lon="-0.18563">
        <ele>115.4</ele>
        <time>2020-05-30T20:32:29Z</time>
      </trkpt>
      <trkpt lat="46.42818" lon="-0.18562">
        <ele>115.4</ele>
        <time>2020-05-30T20:32:30Z</time>
      </trkpt>
      <trkpt lat="46.42817" lon="-0.18561">
        <ele>115.4</ele>
        <time>2020-05-30T20:32:31Z</time>
      </trkpt>
      <trkpt lat="46.42817" lon="-0.1856">
        <ele>115.4</ele>
        <time>2020-05-30T20:32:32Z</time>
      </trkpt>
      <trkpt lat="46.42816" lon="-0.1856">
        <ele>115.4</ele>
        <time>2020-05-30T20:32:33Z</time>
      </trkpt>
      <trkpt lat="46.42816" lon="-0.1856">
        <ele>115.4</ele>
        <time>2020-05-30T20:32:34Z</time>
      </trkpt>
      <trkpt lat="46.42815" lon="-0.18559">
        <ele>115.4</ele>
        <time>2020-05-30T20:32:35Z</time>
      </trkpt>
      <trkpt lat="46.42815" lon="-0.18559">
        <ele>115.4</ele>
        <time>2020-05-30T20:32:36Z</time>
      </trkpt>
      <trkpt lat="46.42815" lon="-0.18561">
        <ele>115.5</ele>
        <time>2020-05-30T20:32:37Z</time>
      </trkpt>
      <trkpt lat="46.42815" lon="-0.18561">
        <ele>115.5</ele>
        <time>2020-05-30T20:32:38Z</time>
      </trkpt>
      <trkpt lat="46.42815" lon="-0.18561">
        <ele>115.5</ele>
        <time>2020-05-30T20:32:39Z</time>
      </trkpt>
      <trkpt lat="46.42815" lon="-0.18561">
        <ele>115.5</ele>
        <time>2020-05-30T20:32:40Z</time>
      </trkpt>
      <trkpt lat="46.42815" lon="-0.18561">
        <ele>115.5</ele>
        <time>2020-05-30T20:32:41Z</time>
      </trkpt>
      <trkpt lat="46.42814" lon="-0.18561">
        <ele>115.5</ele>
        <time>2020-05-30T20:32:42Z</time>
      </trkpt>
      <trkpt lat="46.42814" lon="-0.18562">
        <ele>115.5</ele>
        <time>2020-05-30T20:32:43Z</time>
      </trkpt>
      <trkpt lat="46.42815" lon="-0.18563">
        <ele>115.5</ele>
        <time>2020-05-30T20:32:44Z</time>
      </trkpt>
      <trkpt lat="46.42815" lon="-0.18563">
        <ele>115.5</ele>
        <time>2020-05-30T20:32:45Z</time>
      </trkpt>
      <trkpt lat="46.42815" lon="-0.18563">
        <ele>115.5</ele>
        <time>2020-05-30T20:32:46Z</time>
      </trkpt>
      <trkpt lat="46.42815" lon="-0.18564">
        <ele>115.5</ele>
        <time>2020-05-30T20:32:47Z</time>
      </trkpt>
      <trkpt lat="46.42815" lon="-0.18564">
        <ele>115.5</ele>
        <time>2020-05-30T20:32:48Z</time>
      </trkpt>
      <trkpt lat="46.42815" lon="-0.18564">
        <ele>115.5</ele>
        <time>2020-05-30T20:32:49Z</time>
      </trkpt>
      <trkpt lat="46.42815" lon="-0.18564">
        <ele>115.5</ele>
        <time>2020-05-30T20:32:50Z</time>
      </trkpt>
      <trkpt lat="46.42815" lon="-0.18564">
        <ele>115.5</ele>
        <time>2020-05-30T20:32:51Z</time>
      </trkpt>
      <trkpt lat="46.42814" lon="-0.18565">
        <ele>115.5</ele>
        <time>2020-05-30T20:32:52Z</time>
      </trkpt>
      <trkpt lat="46.42814" lon="-0.18565">
        <ele>115.5</ele>
        <time>2020-05-30T20:32:53Z</time>
      </trkpt>
      <trkpt lat="46.42813" lon="-0.18565">
        <ele>115.5</ele>
        <time>2020-05-30T20:32:54Z</time>
      </trkpt>
      <trkpt lat="46.42812" lon="-0.18566">
        <ele>115.5</ele>
        <time>2020-05-30T20:32:55Z</time>
      </trkpt>
      <trkpt lat="46.42812" lon="-0.18566">
        <ele>115.5</ele>
        <time>2020-05-30T20:32:56Z</time>
      </trkpt>
      <trkpt lat="46.42811" lon="-0.18567">
        <ele>115.5</ele>
        <time>2020-05-30T20:32:57Z</time>
      </trkpt>
      <trkpt lat="46.42811" lon="-0.18568">
        <ele>115.5</ele>
        <time>2020-05-30T20:32:58Z</time>
      </trkpt>
      <trkpt lat="46.42811" lon="-0.18568">
        <ele>115.5</ele>
        <time>2020-05-30T20:32:59Z</time>
      </trkpt>
      <trkpt lat="46.42811" lon="-0.18568">
        <ele>115.5</ele>
        <time>2020-05-30T20:33:00Z</time>
      </trkpt>
      <trkpt lat="46.42811" lon="-0.18569">
        <ele>115.5</ele>
        <time>2020-05-30T20:33:01Z</time>
      </trkpt>
      <trkpt lat="46.42811" lon="-0.18569">
        <ele>115.5</ele>
        <time>2020-05-30T20:33:02Z</time>
      </trkpt>
      <trkpt lat="46.42811" lon="-0.18568">
        <ele>115.5</ele>
        <time>2020-05-30T20:33:03Z</time>
      </trkpt>
      <trkpt lat="46.42812" lon="-0.18568">
        <ele>115.5</ele>
        <time>2020-05-30T20:33:04Z</time>
      </trkpt>
      <trkpt lat="46.42813" lon="-0.18568">
        <ele>115.5</ele>
        <time>2020-05-30T20:33:05Z</time>
      </trkpt>
      <trkpt lat="46.42814" lon="-0.18567">
        <ele>115.5</ele>
        <time>2020-05-30T20:33:06Z</time>
      </trkpt>
      <trkpt lat="46.42815" lon="-0.18567">
        <ele>115.5</ele>
        <time>2020-05-30T20:33:07Z</time>
      </trkpt>
      <trkpt lat="46.42816" lon="-0.18567">
        <ele>115.5</ele>
        <time>2020-05-30T20:33:08Z</time>
      </trkpt>
      <trkpt lat="46.42817" lon="-0.18567">
        <ele>115.5</ele>
        <time>2020-05-30T20:33:09Z</time>
      </trkpt>
      <trkpt lat="46.42817" lon="-0.18567">
        <ele>115.5</ele>
        <time>2020-05-30T20:33:10Z</time>
      </trkpt>
      <trkpt lat="46.42818" lon="-0.18567">
        <ele>115.5</ele>
        <time>2020-05-30T20:33:11Z</time>
      </trkpt>
      <trkpt lat="46.42819" lon="-0.18566">
        <ele>115.5</ele>
        <time>2020-05-30T20:33:12Z</time>
      </trkpt>
      <trkpt lat="46.42819" lon="-0.18567">
        <ele>115.5</ele>
        <time>2020-05-30T20:33:13Z</time>
      </trkpt>
      <trkpt lat="46.42819" lon="-0.18568">
        <ele>115.5</ele>
        <time>2020-05-30T20:33:14Z</time>
      </trkpt>
      <trkpt lat="46.42819" lon="-0.18568">
        <ele>115.5</ele>
        <time>2020-05-30T20:33:15Z</time>
      </trkpt>
      <trkpt lat="46.42818" lon="-0.18568">
        <ele>115.5</ele>
        <time>2020-05-30T20:33:16Z</time>
      </trkpt>
      <trkpt lat="46.42818" lon="-0.18568">
        <ele>115.5</ele>
        <time>2020-05-30T20:33:17Z</time>
      </trkpt>
      <trkpt lat="46.42818" lon="-0.18568">
        <ele>115.5</ele>
        <time>2020-05-30T20:33:18Z</time>
      </trkpt>
      <trkpt lat="46.42818" lon="-0.18568">
        <ele>115.5</ele>
        <time>2020-05-30T20:33:19Z</time>
      </trkpt>
      <trkpt lat="46.42818" lon="-0.18568">
        <ele>115.5</ele>
        <time>2020-05-30T20:33:20Z</time>
      </trkpt>
      <trkpt lat="46.42817" lon="-0.18568">
        <ele>115.5</ele>
        <time>2020-05-30T20:33:21Z</time>
      </trkpt>
      <trkpt lat="46.42816" lon="-0.18568">
        <ele>115.5</ele>
        <time>2020-05-30T20:33:22Z</time>
      </trkpt>
      <trkpt lat="46.42816" lon="-0.18568">
        <ele>115.5</ele>
        <time>2020-05-30T20:33:23Z</time>
      </trkpt>
      <trkpt lat="46.42816" lon="-0.18568">
        <ele>115.5</ele>
        <time>2020-05-30T20:33:24Z</time>
      </trkpt>
      <trkpt lat="46.42816" lon="-0.18569">
        <ele>115.5</ele>
        <time>2020-05-30T20:33:25Z</time>
      </trkpt>
      <trkpt lat="46.42816" lon="-0.18569">
        <ele>115.5</ele>
        <time>2020-05-30T20:33:26Z</time>
      </trkpt>
      <trkpt lat="46.42816" lon="-0.1857">
        <ele>115.5</ele>
        <time>2020-05-30T20:33:27Z</time>
      </trkpt>
      <trkpt lat="46.42816" lon="-0.1857">
        <ele>115.5</ele>
        <time>2020-05-30T20:33:28Z</time>
      </trkpt>
      <trkpt lat="46.42816" lon="-0.1857">
        <ele>115.5</ele>
        <time>2020-05-30T20:33:29Z</time>
      </trkpt>
      <trkpt lat="46.42816" lon="-0.18569">
        <ele>115.5</ele>
        <time>2020-05-30T20:33:30Z</time>
      </trkpt>
      <trkpt lat="46.42816" lon="-0.18569">
        <ele>115.5</ele>
        <time>2020-05-30T20:33:31Z</time>
      </trkpt>
      <trkpt lat="46.42816" lon="-0.18569">
        <ele>115.5</ele>
        <time>2020-05-30T20:33:32Z</time>
      </trkpt>
      <trkpt lat="46.42816" lon="-0.18568">
        <ele>115.5</ele>
        <time>2020-05-30T20:33:33Z</time>
      </trkpt>
      <trkpt lat="46.42816" lon="-0.18568">
        <ele>115.5</ele>
        <time>2020-05-30T20:33:34Z</time>
      </trkpt>
      <trkpt lat="46.42817" lon="-0.18567">
        <ele>115.5</ele>
        <time>2020-05-30T20:33:35Z</time>
      </trkpt>
      <trkpt lat="46.42818" lon="-0.18566">
        <ele>115.5</ele>
        <time>2020-05-30T20:33:36Z</time>
      </trkpt>
      <trkpt lat="46.42818" lon="-0.18566">
        <ele>115.5</ele>
        <time>2020-05-30T20:33:37Z</time>
      </trkpt>
      <trkpt lat="46.42818" lon="-0.18566">
        <ele>115.5</ele>
        <time>2020-05-30T20:33:38Z</time>
      </trkpt>
      <trkpt lat="46.42818" lon="-0.18566">
        <ele>115.5</ele>
        <time>2020-05-30T20:33:39Z</time>
      </trkpt>
      <trkpt lat="46.42818" lon="-0.18566">
        <ele>115.5</ele>
        <time>2020-05-30T20:33:40Z</time>
      </trkpt>
      <trkpt lat="46.42818" lon="-0.18566">
        <ele>115.5</ele>
        <time>2020-05-30T20:33:41Z</time>
      </trkpt>
      <trkpt lat="46.42818" lon="-0.18566">
        <ele>115.5</ele>
        <time>2020-05-30T20:33:42Z</time>
      </trkpt>
      <trkpt lat="46.42818" lon="-0.18567">
        <ele>115.5</ele>
        <time>2020-05-30T20:33:43Z</time>
      </trkpt>
      <trkpt lat="46.42818" lon="-0.18568">
        <ele>115.5</ele>
        <time>2020-05-30T20:33:44Z</time>
      </trkpt>
      <trkpt lat="46.42818" lon="-0.18568">
        <ele>115.5</ele>
        <time>2020-05-30T20:33:45Z</time>
      </trkpt>
      <trkpt lat="46.42818" lon="-0.18568">
        <ele>115.5</ele>
        <time>2020-05-30T20:33:46Z</time>
      </trkpt>
      <trkpt lat="46.42818" lon="-0.18568">
        <ele>115.5</ele>
        <time>2020-05-30T20:33:47Z</time>
      </trkpt>
      <trkpt lat="46.42818" lon="-0.18568">
        <ele>115.5</ele>
        <time>2020-05-30T20:33:48Z</time>
      </trkpt>
      <trkpt lat="46.42818" lon="-0.18568">
        <ele>115.5</ele>
        <time>2020-05-30T20:33:49Z</time>
      </trkpt>
      <trkpt lat="46.42818" lon="-0.18568">
        <ele>115.5</ele>
        <time>2020-05-30T20:33:50Z</time>
      </trkpt>
      <trkpt lat="46.42818" lon="-0.18568">
        <ele>115.5</ele>
        <time>2020-05-30T20:33:51Z</time>
      </trkpt>
      <trkpt lat="46.42817" lon="-0.18568">
        <ele>115.5</ele>
        <time>2020-05-30T20:33:52Z</time>
      </trkpt>
      <trkpt lat="46.42817" lon="-0.18568">
        <ele>115.5</ele>
        <time>2020-05-30T20:33:53Z</time>
      </trkpt>
      <trkpt lat="46.42817" lon="-0.18568">
        <ele>115.5</ele>
        <time>2020-05-30T20:33:54Z</time>
      </trkpt>
      <trkpt lat="46.42817" lon="-0.18568">
        <ele>115.5</ele>
        <time>2020-05-30T20:33:55Z</time>
      </trkpt>
      <trkpt lat="46.42817" lon="-0.18568">
        <ele>115.5</ele>
        <time>2020-05-30T20:33:56Z</time>
      </trkpt>
      <trkpt lat="46.42817" lon="-0.18568">
        <ele>115.5</ele>
        <time>2020-05-30T20:33:57Z</time>
      </trkpt>
      <trkpt lat="46.42817" lon="-0.18568">
        <ele>115.5</ele>
        <time>2020-05-30T20:33:58Z</time>
      </trkpt>
      <trkpt lat="46.42817" lon="-0.18567">
        <ele>115.5</ele>
        <time>2020-05-30T20:33:59Z</time>
      </trkpt>
      <trkpt lat="46.42817" lon="-0.18567">
        <ele>115.5</ele>
        <time>2020-05-30T20:34:00Z</time>
      </trkpt>
      <trkpt lat="46.42817" lon="-0.18567">
        <ele>115.5</ele>
        <time>2020-05-30T20:34:01Z</time>
      </trkpt>
      <trkpt lat="46.42817" lon="-0.18567">
        <ele>115.5</ele>
        <time>2020-05-30T20:34:02Z</time>
      </trkpt>
      <trkpt lat="46.42817" lon="-0.18567">
        <ele>115.5</ele>
        <time>2020-05-30T20:34:03Z</time>
      </trkpt>
      <trkpt lat="46.42817" lon="-0.18567">
        <ele>115.5</ele>
        <time>2020-05-30T20:34:04Z</time>
      </trkpt>
      <trkpt lat="46.42817" lon="-0.18567">
        <ele>115.5</ele>
        <time>2020-05-30T20:34:05Z</time>
      </trkpt>
      <trkpt lat="46.42817" lon="-0.18567">
        <ele>115.5</ele>
        <time>2020-05-30T20:34:06Z</time>
      </trkpt>
      <trkpt lat="46.42817" lon="-0.18567">
        <ele>115.5</ele>
        <time>2020-05-30T20:34:07Z</time>
      </trkpt>
      <trkpt lat="46.42817" lon="-0.18568">
        <ele>115.5</ele>
        <time>2020-05-30T20:34:08Z</time>
      </trkpt>
      <trkpt lat="46.42816" lon="-0.18568">
        <ele>115.5</ele>
        <time>2020-05-30T20:34:09Z</time>
      </trkpt>
      <trkpt lat="46.42817" lon="-0.18569">
        <ele>115.5</ele>
        <time>2020-05-30T20:34:10Z</time>
      </trkpt>
      <trkpt lat="46.42816" lon="-0.18569">
        <ele>115.5</ele>
        <time>2020-05-30T20:34:11Z</time>
      </trkpt>
      <trkpt lat="46.42816" lon="-0.18569">
        <ele>115.5</ele>
        <time>2020-05-30T20:34:12Z</time>
      </trkpt>
      <trkpt lat="46.42816" lon="-0.18569">
        <ele>115.5</ele>
        <time>2020-05-30T20:34:13Z</time>
      </trkpt>
      <trkpt lat="46.42816" lon="-0.18569">
        <ele>115.5</ele>
        <time>2020-05-30T20:34:14Z</time>
      </trkpt>
      <trkpt lat="46.42816" lon="-0.18569">
        <ele>115.5</ele>
        <time>2020-05-30T20:34:15Z</time>
      </trkpt>
      <trkpt lat="46.42816" lon="-0.18569">
        <ele>115.5</ele>
        <time>2020-05-30T20:34:16Z</time>
      </trkpt>
      <trkpt lat="46.42817" lon="-0.18569">
        <ele>115.6</ele>
        <time>2020-05-30T20:34:17Z</time>
      </trkpt>
      <trkpt lat="46.42817" lon="-0.18569">
        <ele>115.6</ele>
        <time>2020-05-30T20:34:18Z</time>
      </trkpt>
      <trkpt lat="46.42817" lon="-0.18569">
        <ele>115.6</ele>
        <time>2020-05-30T20:34:19Z</time>
      </trkpt>
      <trkpt lat="46.42818" lon="-0.18569">
        <ele>115.6</ele>
        <time>2020-05-30T20:34:20Z</time>
      </trkpt>
      <trkpt lat="46.42818" lon="-0.18569">
        <ele>115.6</ele>
        <time>2020-05-30T20:34:21Z</time>
      </trkpt>
      <trkpt lat="46.42818" lon="-0.18569">
        <ele>115.6</ele>
        <time>2020-05-30T20:34:22Z</time>
      </trkpt>
      <trkpt lat="46.42818" lon="-0.18569">
        <ele>115.6</ele>
        <time>2020-05-30T20:34:23Z</time>
      </trkpt>
      <trkpt lat="46.42818" lon="-0.18569">
        <ele>115.6</ele>
        <time>2020-05-30T20:34:24Z</time>
      </trkpt>
      <trkpt lat="46.42818" lon="-0.18569">
        <ele>115.6</ele>
        <time>2020-05-30T20:34:25Z</time>
      </trkpt>
      <trkpt lat="46.42818" lon="-0.18569">
        <ele>115.6</ele>
        <time>2020-05-30T20:34:26Z</time>
      </trkpt>
      <trkpt lat="46.42818" lon="-0.18569">
        <ele>115.6</ele>
        <time>2020-05-30T20:34:27Z</time>
      </trkpt>
      <trkpt lat="46.42817" lon="-0.18569">
        <ele>115.6</ele>
        <time>2020-05-30T20:34:28Z</time>
      </trkpt>
      <trkpt lat="46.42817" lon="-0.18569">
        <ele>115.6</ele>
        <time>2020-05-30T20:34:29Z</time>
      </trkpt>
      <trkpt lat="46.42817" lon="-0.18569">
        <ele>115.6</ele>
        <time>2020-05-30T20:34:30Z</time>
      </trkpt>
      <trkpt lat="46.42817" lon="-0.18569">
        <ele>115.6</ele>
        <time>2020-05-30T20:34:31Z</time>
      </trkpt>
      <trkpt lat="46.42817" lon="-0.18568">
        <ele>115.6</ele>
        <time>2020-05-30T20:34:32Z</time>
      </trkpt>
      <trkpt lat="46.42817" lon="-0.18568">
        <ele>115.6</ele>
        <time>2020-05-30T20:34:33Z</time>
      </trkpt>
      <trkpt lat="46.42816" lon="-0.18569">
        <ele>115.6</ele>
        <time>2020-05-30T20:34:34Z</time>
      </trkpt>
      <trkpt lat="46.42817" lon="-0.18568">
        <ele>115.6</ele>
        <time>2020-05-30T20:34:35Z</time>
      </trkpt>
      <trkpt lat="46.42817" lon="-0.18568">
        <ele>115.6</ele>
        <time>2020-05-30T20:34:36Z</time>
      </trkpt>
      <trkpt lat="46.42817" lon="-0.18568">
        <ele>115.6</ele>
        <time>2020-05-30T20:34:37Z</time>
      </trkpt>
      <trkpt lat="46.42817" lon="-0.18568">
        <ele>115.6</ele>
        <time>2020-05-30T20:34:38Z</time>
      </trkpt>
      <trkpt lat="46.42817" lon="-0.18568">
        <ele>115.6</ele>
        <time>2020-05-30T20:34:39Z</time>
      </trkpt>
      <trkpt lat="46.42818" lon="-0.18568">
        <ele>115.6</ele>
        <time>2020-05-30T20:34:40Z</time>
      </trkpt>
      <trkpt lat="46.42817" lon="-0.18567">
        <ele>115.6</ele>
        <time>2020-05-30T20:34:41Z</time>
      </trkpt>
      <trkpt lat="46.42818" lon="-0.18566">
        <ele>115.6</ele>
        <time>2020-05-30T20:34:42Z</time>
      </trkpt>
      <trkpt lat="46.42817" lon="-0.18567">
        <ele>115.6</ele>
        <time>2020-05-30T20:34:43Z</time>
      </trkpt>
      <trkpt lat="46.42817" lon="-0.18567">
        <ele>115.6</ele>
        <time>2020-05-30T20:34:44Z</time>
      </trkpt>
      <trkpt lat="46.42817" lon="-0.18568">
        <ele>115.6</ele>
        <time>2020-05-30T20:34:45Z</time>
      </trkpt>
      <trkpt lat="46.42818" lon="-0.1857">
        <ele>115.6</ele>
        <time>2020-05-30T20:34:46Z</time>
      </trkpt>
      <trkpt lat="46.42818" lon="-0.18571">
        <ele>115.6</ele>
        <time>2020-05-30T20:34:47Z</time>
      </trkpt>
      <trkpt lat="46.42819" lon="-0.18573">
        <ele>115.6</ele>
        <time>2020-05-30T20:34:48Z</time>
      </trkpt>
      <trkpt lat="46.42819" lon="-0.18573">
        <ele>115.6</ele>
        <time>2020-05-30T20:34:49Z</time>
      </trkpt>
      <trkpt lat="46.4282" lon="-0.18574">
        <ele>115.6</ele>
        <time>2020-05-30T20:34:50Z</time>
      </trkpt>
      <trkpt lat="46.4282" lon="-0.18574">
        <ele>115.6</ele>
        <time>2020-05-30T20:34:51Z</time>
      </trkpt>
      <trkpt lat="46.4282" lon="-0.18574">
        <ele>115.6</ele>
        <time>2020-05-30T20:34:52Z</time>
      </trkpt>
      <trkpt lat="46.4282" lon="-0.18574">
        <ele>115.6</ele>
        <time>2020-05-30T20:34:53Z</time>
      </trkpt>
      <trkpt lat="46.4282" lon="-0.18573">
        <ele>115.6</ele>
        <time>2020-05-30T20:34:54Z</time>
      </trkpt>
      <trkpt lat="46.4282" lon="-0.18573">
        <ele>115.6</ele>
        <time>2020-05-30T20:34:55Z</time>
      </trkpt>
      <trkpt lat="46.4282" lon="-0.18573">
        <ele>115.6</ele>
        <time>2020-05-30T20:34:56Z</time>
      </trkpt>
      <trkpt lat="46.42819" lon="-0.18573">
        <ele>115.6</ele>
        <time>2020-05-30T20:34:57Z</time>
      </trkpt>
      <trkpt lat="46.42819" lon="-0.18573">
        <ele>115.6</ele>
        <time>2020-05-30T20:34:58Z</time>
      </trkpt>
      <trkpt lat="46.42819" lon="-0.18573">
        <ele>115.6</ele>
        <time>2020-05-30T20:34:59Z</time>
      </trkpt>
      <trkpt lat="46.42819" lon="-0.18573">
        <ele>115.6</ele>
        <time>2020-05-30T20:35:00Z</time>
      </trkpt>
      <trkpt lat="46.42819" lon="-0.18573">
        <ele>115.6</ele>
        <time>2020-05-30T20:35:01Z</time>
      </trkpt>
      <trkpt lat="46.4282" lon="-0.18573">
        <ele>115.6</ele>
        <time>2020-05-30T20:35:02Z</time>
      </trkpt>
      <trkpt lat="46.4282" lon="-0.18573">
        <ele>115.6</ele>
        <time>2020-05-30T20:35:03Z</time>
      </trkpt>
      <trkpt lat="46.42821" lon="-0.18573">
        <ele>115.6</ele>
        <time>2020-05-30T20:35:04Z</time>
      </trkpt>
      <trkpt lat="46.4282" lon="-0.18573">
        <ele>115.6</ele>
        <time>2020-05-30T20:35:05Z</time>
      </trkpt>
      <trkpt lat="46.4282" lon="-0.18573">
        <ele>115.6</ele>
        <time>2020-05-30T20:35:06Z</time>
      </trkpt>
      <trkpt lat="46.4282" lon="-0.18572">
        <ele>115.6</ele>
        <time>2020-05-30T20:35:07Z</time>
      </trkpt>
      <trkpt lat="46.4282" lon="-0.18572">
        <ele>115.6</ele>
        <time>2020-05-30T20:35:08Z</time>
      </trkpt>
      <trkpt lat="46.4282" lon="-0.18571">
        <ele>115.6</ele>
        <time>2020-05-30T20:35:09Z</time>
      </trkpt>
      <trkpt lat="46.42819" lon="-0.18571">
        <ele>115.6</ele>
        <time>2020-05-30T20:35:10Z</time>
      </trkpt>
      <trkpt lat="46.4282" lon="-0.18571">
        <ele>115.6</ele>
        <time>2020-05-30T20:35:11Z</time>
      </trkpt>
      <trkpt lat="46.4282" lon="-0.18569">
        <ele>115.6</ele>
        <time>2020-05-30T20:35:12Z</time>
      </trkpt>
      <trkpt lat="46.4282" lon="-0.18569">
        <ele>115.6</ele>
        <time>2020-05-30T20:35:13Z</time>
      </trkpt>
      <trkpt lat="46.4282" lon="-0.18568">
        <ele>115.6</ele>
        <time>2020-05-30T20:35:14Z</time>
      </trkpt>
      <trkpt lat="46.4282" lon="-0.18567">
        <ele>115.6</ele>
        <time>2020-05-30T20:35:15Z</time>
      </trkpt>
      <trkpt lat="46.4282" lon="-0.18567">
        <ele>115.6</ele>
        <time>2020-05-30T20:35:16Z</time>
      </trkpt>
      <trkpt lat="46.4282" lon="-0.18566">
        <ele>115.6</ele>
        <time>2020-05-30T20:35:17Z</time>
      </trkpt>
      <trkpt lat="46.4282" lon="-0.18566">
        <ele>115.6</ele>
        <time>2020-05-30T20:35:18Z</time>
      </trkpt>
      <trkpt lat="46.4282" lon="-0.18566">
        <ele>115.6</ele>
        <time>2020-05-30T20:35:19Z</time>
      </trkpt>
      <trkpt lat="46.42819" lon="-0.18566">
        <ele>115.6</ele>
        <time>2020-05-30T20:35:20Z</time>
      </trkpt>
      <trkpt lat="46.4282" lon="-0.18566">
        <ele>115.6</ele>
        <time>2020-05-30T20:35:21Z</time>
      </trkpt>
      <trkpt lat="46.42821" lon="-0.18565">
        <ele>115.6</ele>
        <time>2020-05-30T20:35:22Z</time>
      </trkpt>
      <trkpt lat="46.4282" lon="-0.18565">
        <ele>115.6</ele>
        <time>2020-05-30T20:35:23Z</time>
      </trkpt>
      <trkpt lat="46.4282" lon="-0.18565">
        <ele>115.6</ele>
        <time>2020-05-30T20:35:24Z</time>
      </trkpt>
      <trkpt lat="46.4282" lon="-0.18565">
        <ele>115.6</ele>
        <time>2020-05-30T20:35:25Z</time>
      </trkpt>
      <trkpt lat="46.42819" lon="-0.18565">
        <ele>115.6</ele>
        <time>2020-05-30T20:35:26Z</time>
      </trkpt>
      <trkpt lat="46.42819" lon="-0.18565">
        <ele>115.6</ele>
        <time>2020-05-30T20:35:27Z</time>
      </trkpt>
      <trkpt lat="46.42819" lon="-0.18565">
        <ele>115.6</ele>
        <time>2020-05-30T20:35:28Z</time>
      </trkpt>
      <trkpt lat="46.42819" lon="-0.18565">
        <ele>115.6</ele>
        <time>2020-05-30T20:35:29Z</time>
      </trkpt>
      <trkpt lat="46.42818" lon="-0.18565">
        <ele>115.6</ele>
        <time>2020-05-30T20:35:30Z</time>
      </trkpt>
      <trkpt lat="46.42818" lon="-0.18565">
        <ele>115.6</ele>
        <time>2020-05-30T20:35:31Z</time>
      </trkpt>
      <trkpt lat="46.42818" lon="-0.18565">
        <ele>115.6</ele>
        <time>2020-05-30T20:35:32Z</time>
      </trkpt>
      <trkpt lat="46.42818" lon="-0.18565">
        <ele>115.6</ele>
        <time>2020-05-30T20:35:33Z</time>
      </trkpt>
      <trkpt lat="46.42819" lon="-0.18566">
        <ele>115.6</ele>
        <time>2020-05-30T20:35:34Z</time>
      </trkpt>
      <trkpt lat="46.42819" lon="-0.18566">
        <ele>115.6</ele>
        <time>2020-05-30T20:35:35Z</time>
      </trkpt>
      <trkpt lat="46.42819" lon="-0.18567">
        <ele>115.6</ele>
        <time>2020-05-30T20:35:36Z</time>
      </trkpt>
      <trkpt lat="46.42819" lon="-0.18566">
        <ele>115.6</ele>
        <time>2020-05-30T20:35:37Z</time>
      </trkpt>
      <trkpt lat="46.42819" lon="-0.18567">
        <ele>115.6</ele>
        <time>2020-05-30T20:35:38Z</time>
      </trkpt>
      <trkpt lat="46.42819" lon="-0.18567">
        <ele>115.6</ele>
        <time>2020-05-30T20:35:39Z</time>
      </trkpt>
      <trkpt lat="46.42819" lon="-0.18568">
        <ele>115.6</ele>
        <time>2020-05-30T20:35:40Z</time>
      </trkpt>
      <trkpt lat="46.42818" lon="-0.18569">
        <ele>115.6</ele>
        <time>2020-05-30T20:35:41Z</time>
      </trkpt>
      <trkpt lat="46.42818" lon="-0.1857">
        <ele>115.6</ele>
        <time>2020-05-30T20:35:42Z</time>
      </trkpt>
      <trkpt lat="46.42818" lon="-0.1857">
        <ele>115.6</ele>
        <time>2020-05-30T20:35:43Z</time>
      </trkpt>
      <trkpt lat="46.42818" lon="-0.1857">
        <ele>115.6</ele>
        <time>2020-05-30T20:35:44Z</time>
      </trkpt>
      <trkpt lat="46.42819" lon="-0.18572">
        <ele>115.7</ele>
        <time>2020-05-30T20:35:45Z</time>
      </trkpt>
      <trkpt lat="46.42819" lon="-0.18572">
        <ele>115.7</ele>
        <time>2020-05-30T20:35:46Z</time>
      </trkpt>
      <trkpt lat="46.4282" lon="-0.18573">
        <ele>115.7</ele>
        <time>2020-05-30T20:35:47Z</time>
      </trkpt>
      <trkpt lat="46.4282" lon="-0.18573">
        <ele>115.7</ele>
        <time>2020-05-30T20:35:48Z</time>
      </trkpt>
      <trkpt lat="46.4282" lon="-0.18573">
        <ele>115.7</ele>
        <time>2020-05-30T20:35:49Z</time>
      </trkpt>
      <trkpt lat="46.4282" lon="-0.18573">
        <ele>115.7</ele>
        <time>2020-05-30T20:35:50Z</time>
      </trkpt>
      <trkpt lat="46.4282" lon="-0.18574">
        <ele>115.7</ele>
        <time>2020-05-30T20:35:51Z</time>
      </trkpt>
      <trkpt lat="46.4282" lon="-0.18575">
        <ele>115.7</ele>
        <time>2020-05-30T20:35:52Z</time>
      </trkpt>
      <trkpt lat="46.4282" lon="-0.18575">
        <ele>115.7</ele>
        <time>2020-05-30T20:35:53Z</time>
      </trkpt>
      <trkpt lat="46.42821" lon="-0.18576">
        <ele>115.7</ele>
        <time>2020-05-30T20:35:54Z</time>
      </trkpt>
      <trkpt lat="46.42821" lon="-0.18576">
        <ele>115.7</ele>
        <time>2020-05-30T20:35:55Z</time>
      </trkpt>
      <trkpt lat="46.42821" lon="-0.18576">
        <ele>115.7</ele>
        <time>2020-05-30T20:35:56Z</time>
      </trkpt>
      <trkpt lat="46.42821" lon="-0.18577">
        <ele>115.7</ele>
        <time>2020-05-30T20:35:57Z</time>
      </trkpt>
      <trkpt lat="46.42822" lon="-0.18576">
        <ele>115.7</ele>
        <time>2020-05-30T20:35:58Z</time>
      </trkpt>
      <trkpt lat="46.42821" lon="-0.18577">
        <ele>115.7</ele>
        <time>2020-05-30T20:35:59Z</time>
      </trkpt>
      <trkpt lat="46.42821" lon="-0.18577">
        <ele>115.7</ele>
        <time>2020-05-30T20:36:00Z</time>
      </trkpt>
      <trkpt lat="46.42821" lon="-0.18577">
        <ele>115.7</ele>
        <time>2020-05-30T20:36:01Z</time>
      </trkpt>
      <trkpt lat="46.42819" lon="-0.18576">
        <ele>115.7</ele>
        <time>2020-05-30T20:36:02Z</time>
      </trkpt>
      <trkpt lat="46.42818" lon="-0.18575">
        <ele>115.7</ele>
        <time>2020-05-30T20:36:03Z</time>
      </trkpt>
      <trkpt lat="46.42819" lon="-0.18575">
        <ele>115.7</ele>
        <time>2020-05-30T20:36:04Z</time>
      </trkpt>
      <trkpt lat="46.42819" lon="-0.18575">
        <ele>115.7</ele>
        <time>2020-05-30T20:36:05Z</time>
      </trkpt>
      <trkpt lat="46.42819" lon="-0.18574">
        <ele>115.7</ele>
        <time>2020-05-30T20:36:06Z</time>
      </trkpt>
      <trkpt lat="46.42819" lon="-0.18573">
        <ele>115.7</ele>
        <time>2020-05-30T20:36:07Z</time>
      </trkpt>
      <trkpt lat="46.42819" lon="-0.18572">
        <ele>115.7</ele>
        <time>2020-05-30T20:36:08Z</time>
      </trkpt>
      <trkpt lat="46.42819" lon="-0.18571">
        <ele>115.7</ele>
        <time>2020-05-30T20:36:09Z</time>
      </trkpt>
      <trkpt lat="46.42818" lon="-0.18571">
        <ele>115.7</ele>
        <time>2020-05-30T20:36:10Z</time>
      </trkpt>
      <trkpt lat="46.42817" lon="-0.1857">
        <ele>115.7</ele>
        <time>2020-05-30T20:36:11Z</time>
      </trkpt>
      <trkpt lat="46.42817" lon="-0.1857">
        <ele>115.7</ele>
        <time>2020-05-30T20:36:12Z</time>
      </trkpt>
      <trkpt lat="46.42816" lon="-0.18569">
        <ele>115.7</ele>
        <time>2020-05-30T20:36:13Z</time>
      </trkpt>
      <trkpt lat="46.42815" lon="-0.18569">
        <ele>115.7</ele>
        <time>2020-05-30T20:36:14Z</time>
      </trkpt>
      <trkpt lat="46.42814" lon="-0.18568">
        <ele>115.7</ele>
        <time>2020-05-30T20:36:15Z</time>
      </trkpt>
      <trkpt lat="46.42814" lon="-0.18569">
        <ele>115.7</ele>
        <time>2020-05-30T20:36:16Z</time>
      </trkpt>
      <trkpt lat="46.42814" lon="-0.18568">
        <ele>115.7</ele>
        <time>2020-05-30T20:36:17Z</time>
      </trkpt>
      <trkpt lat="46.42814" lon="-0.18568">
        <ele>115.7</ele>
        <time>2020-05-30T20:36:18Z</time>
      </trkpt>
      <trkpt lat="46.42814" lon="-0.18569">
        <ele>115.7</ele>
        <time>2020-05-30T20:36:19Z</time>
      </trkpt>
      <trkpt lat="46.42814" lon="-0.18568">
        <ele>115.7</ele>
        <time>2020-05-30T20:36:20Z</time>
      </trkpt>
      <trkpt lat="46.42814" lon="-0.18568">
        <ele>115.7</ele>
        <time>2020-05-30T20:36:21Z</time>
      </trkpt>
      <trkpt lat="46.42814" lon="-0.18568">
        <ele>115.7</ele>
        <time>2020-05-30T20:36:22Z</time>
      </trkpt>
      <trkpt lat="46.42815" lon="-0.18568">
        <ele>115.7</ele>
        <time>2020-05-30T20:36:23Z</time>
      </trkpt>
      <trkpt lat="46.42815" lon="-0.18568">
        <ele>115.7</ele>
        <time>2020-05-30T20:36:24Z</time>
      </trkpt>
      <trkpt lat="46.42815" lon="-0.18568">
        <ele>115.7</ele>
        <time>2020-05-30T20:36:25Z</time>
      </trkpt>
      <trkpt lat="46.42816" lon="-0.18568">
        <ele>115.7</ele>
        <time>2020-05-30T20:36:26Z</time>
      </trkpt>
      <trkpt lat="46.42816" lon="-0.18568">
        <ele>115.7</ele>
        <time>2020-05-30T20:36:27Z</time>
      </trkpt>
      <trkpt lat="46.42816" lon="-0.18568">
        <ele>115.7</ele>
        <time>2020-05-30T20:36:28Z</time>
      </trkpt>
      <trkpt lat="46.42815" lon="-0.18568">
        <ele>115.7</ele>
        <time>2020-05-30T20:36:29Z</time>
      </trkpt>
      <trkpt lat="46.42815" lon="-0.18568">
        <ele>115.7</ele>
        <time>2020-05-30T20:36:30Z</time>
      </trkpt>
      <trkpt lat="46.42816" lon="-0.18568">
        <ele>115.7</ele>
        <time>2020-05-30T20:36:31Z</time>
      </trkpt>
      <trkpt lat="46.42815" lon="-0.18568">
        <ele>115.7</ele>
        <time>2020-05-30T20:36:32Z</time>
      </trkpt>
      <trkpt lat="46.42816" lon="-0.18568">
        <ele>115.7</ele>
        <time>2020-05-30T20:36:33Z</time>
      </trkpt>
      <trkpt lat="46.42816" lon="-0.18568">
        <ele>115.7</ele>
        <time>2020-05-30T20:36:34Z</time>
      </trkpt>
      <trkpt lat="46.42816" lon="-0.18568">
        <ele>115.7</ele>
        <time>2020-05-30T20:36:35Z</time>
      </trkpt>
      <trkpt lat="46.42816" lon="-0.18568">
        <ele>115.7</ele>
        <time>2020-05-30T20:36:36Z</time>
      </trkpt>
      <trkpt lat="46.42816" lon="-0.18568">
        <ele>115.7</ele>
        <time>2020-05-30T20:36:37Z</time>
      </trkpt>
      <trkpt lat="46.42816" lon="-0.18568">
        <ele>115.7</ele>
        <time>2020-05-30T20:36:38Z</time>
      </trkpt>
      <trkpt lat="46.42816" lon="-0.18568">
        <ele>115.7</ele>
        <time>2020-05-30T20:36:39Z</time>
      </trkpt>
      <trkpt lat="46.42816" lon="-0.18568">
        <ele>115.7</ele>
        <time>2020-05-30T20:36:40Z</time>
      </trkpt>
      <trkpt lat="46.42816" lon="-0.18568">
        <ele>115.7</ele>
        <time>2020-05-30T20:36:41Z</time>
      </trkpt>
      <trkpt lat="46.42816" lon="-0.18568">
        <ele>115.7</ele>
        <time>2020-05-30T20:36:42Z</time>
      </trkpt>
      <trkpt lat="46.42817" lon="-0.18567">
        <ele>115.7</ele>
        <time>2020-05-30T20:36:43Z</time>
      </trkpt>
      <trkpt lat="46.42818" lon="-0.18567">
        <ele>115.7</ele>
        <time>2020-05-30T20:36:44Z</time>
      </trkpt>
      <trkpt lat="46.42818" lon="-0.18567">
        <ele>115.7</ele>
        <time>2020-05-30T20:36:45Z</time>
      </trkpt>
      <trkpt lat="46.42818" lon="-0.18567">
        <ele>115.7</ele>
        <time>2020-05-30T20:36:46Z</time>
      </trkpt>
      <trkpt lat="46.42818" lon="-0.18566">
        <ele>115.7</ele>
        <time>2020-05-30T20:36:47Z</time>
      </trkpt>
      <trkpt lat="46.42819" lon="-0.18566">
        <ele>115.7</ele>
        <time>2020-05-30T20:36:48Z</time>
      </trkpt>
      <trkpt lat="46.42819" lon="-0.18566">
        <ele>115.7</ele>
        <time>2020-05-30T20:36:49Z</time>
      </trkpt>
      <trkpt lat="46.42819" lon="-0.18567">
        <ele>115.7</ele>
        <time>2020-05-30T20:36:50Z</time>
      </trkpt>
      <trkpt lat="46.4282" lon="-0.18567">
        <ele>115.7</ele>
        <time>2020-05-30T20:36:51Z</time>
      </trkpt>
      <trkpt lat="46.4282" lon="-0.18568">
        <ele>115.7</ele>
        <time>2020-05-30T20:36:52Z</time>
      </trkpt>
      <trkpt lat="46.4282" lon="-0.18568">
        <ele>115.7</ele>
        <time>2020-05-30T20:36:53Z</time>
      </trkpt>
      <trkpt lat="46.4282" lon="-0.18568">
        <ele>115.7</ele>
        <time>2020-05-30T20:36:54Z</time>
      </trkpt>
      <trkpt lat="46.4282" lon="-0.18569">
        <ele>115.7</ele>
        <time>2020-05-30T20:36:55Z</time>
      </trkpt>
      <trkpt lat="46.4282" lon="-0.18569">
        <ele>115.7</ele>
        <time>2020-05-30T20:36:56Z</time>
      </trkpt>
      <trkpt lat="46.4282" lon="-0.1857">
        <ele>115.7</ele>
        <time>2020-05-30T20:36:57Z</time>
      </trkpt>
      <trkpt lat="46.4282" lon="-0.1857">
        <ele>115.7</ele>
        <time>2020-05-30T20:36:58Z</time>
      </trkpt>
      <trkpt lat="46.4282" lon="-0.1857">
        <ele>115.7</ele>
        <time>2020-05-30T20:36:59Z</time>
      </trkpt>
      <trkpt lat="46.42821" lon="-0.18571">
        <ele>115.7</ele>
        <time>2020-05-30T20:37:00Z</time>
      </trkpt>
      <trkpt lat="46.42821" lon="-0.18572">
        <ele>115.7</ele>
        <time>2020-05-30T20:37:01Z</time>
      </trkpt>
      <trkpt lat="46.42821" lon="-0.18572">
        <ele>115.7</ele>
        <time>2020-05-30T20:37:02Z</time>
      </trkpt>
      <trkpt lat="46.42821" lon="-0.18571">
        <ele>115.7</ele>
        <time>2020-05-30T20:37:03Z</time>
      </trkpt>
      <trkpt lat="46.42821" lon="-0.18572">
        <ele>115.7</ele>
        <time>2020-05-30T20:37:04Z</time>
      </trkpt>
      <trkpt lat="46.42821" lon="-0.18572">
        <ele>115.7</ele>
        <time>2020-05-30T20:37:05Z</time>
      </trkpt>
      <trkpt lat="46.42821" lon="-0.18572">
        <ele>115.7</ele>
        <time>2020-05-30T20:37:06Z</time>
      </trkpt>
      <trkpt lat="46.42821" lon="-0.18573">
        <ele>115.7</ele>
        <time>2020-05-30T20:37:07Z</time>
      </trkpt>
      <trkpt lat="46.42821" lon="-0.18573">
        <ele>115.7</ele>
        <time>2020-05-30T20:37:08Z</time>
      </trkpt>
      <trkpt lat="46.42822" lon="-0.18574">
        <ele>115.7</ele>
        <time>2020-05-30T20:37:09Z</time>
      </trkpt>
      <trkpt lat="46.42822" lon="-0.18574">
        <ele>115.7</ele>
        <time>2020-05-30T20:37:10Z</time>
      </trkpt>
      <trkpt lat="46.42822" lon="-0.18575">
        <ele>115.7</ele>
        <time>2020-05-30T20:37:11Z</time>
      </trkpt>
      <trkpt lat="46.42822" lon="-0.18575">
        <ele>115.7</ele>
        <time>2020-05-30T20:37:12Z</time>
      </trkpt>
      <trkpt lat="46.42822" lon="-0.18575">
        <ele>115.8</ele>
        <time>2020-05-30T20:37:13Z</time>
      </trkpt>
      <trkpt lat="46.42821" lon="-0.18571">
        <ele>115.8</ele>
        <time>2020-05-30T20:37:14Z</time>
      </trkpt>
      <trkpt lat="46.42821" lon="-0.18571">
        <ele>115.8</ele>
        <time>2020-05-30T20:37:15Z</time>
      </trkpt>
      <trkpt lat="46.42821" lon="-0.18572">
        <ele>115.8</ele>
        <time>2020-05-30T20:37:16Z</time>
      </trkpt>
      <trkpt lat="46.42821" lon="-0.18572">
        <ele>115.8</ele>
        <time>2020-05-30T20:37:17Z</time>
      </trkpt>
      <trkpt lat="46.42821" lon="-0.18573">
        <ele>115.8</ele>
        <time>2020-05-30T20:37:18Z</time>
      </trkpt>
      <trkpt lat="46.42821" lon="-0.18573">
        <ele>115.8</ele>
        <time>2020-05-30T20:37:19Z</time>
      </trkpt>
      <trkpt lat="46.4282" lon="-0.18572">
        <ele>115.8</ele>
        <time>2020-05-30T20:37:20Z</time>
      </trkpt>
      <trkpt lat="46.42819" lon="-0.18572">
        <ele>115.8</ele>
        <time>2020-05-30T20:37:21Z</time>
      </trkpt>
      <trkpt lat="46.42819" lon="-0.18571">
        <ele>115.8</ele>
        <time>2020-05-30T20:37:22Z</time>
      </trkpt>
      <trkpt lat="46.42819" lon="-0.18571">
        <ele>115.8</ele>
        <time>2020-05-30T20:37:23Z</time>
      </trkpt>
      <trkpt lat="46.42819" lon="-0.1857">
        <ele>115.8</ele>
        <time>2020-05-30T20:37:24Z</time>
      </trkpt>
      <trkpt lat="46.42818" lon="-0.1857">
        <ele>115.8</ele>
        <time>2020-05-30T20:37:25Z</time>
      </trkpt>
      <trkpt lat="46.42818" lon="-0.1857">
        <ele>115.8</ele>
        <time>2020-05-30T20:37:26Z</time>
      </trkpt>
      <trkpt lat="46.42818" lon="-0.18569">
        <ele>115.8</ele>
        <time>2020-05-30T20:37:27Z</time>
      </trkpt>
      <trkpt lat="46.42818" lon="-0.18569">
        <ele>115.8</ele>
        <time>2020-05-30T20:37:28Z</time>
      </trkpt>
      <trkpt lat="46.42817" lon="-0.18569">
        <ele>115.8</ele>
        <time>2020-05-30T20:37:29Z</time>
      </trkpt>
      <trkpt lat="46.42818" lon="-0.18568">
        <ele>115.8</ele>
        <time>2020-05-30T20:37:30Z</time>
      </trkpt>
      <trkpt lat="46.42817" lon="-0.18566">
        <ele>115.8</ele>
        <time>2020-05-30T20:37:31Z</time>
      </trkpt>
      <trkpt lat="46.42817" lon="-0.18565">
        <ele>115.8</ele>
        <time>2020-05-30T20:37:32Z</time>
      </trkpt>
      <trkpt lat="46.42816" lon="-0.18564">
        <ele>115.8</ele>
        <time>2020-05-30T20:37:33Z</time>
      </trkpt>
      <trkpt lat="46.42815" lon="-0.18564">
        <ele>115.8</ele>
        <time>2020-05-30T20:37:34Z</time>
      </trkpt>
      <trkpt lat="46.42815" lon="-0.18563">
        <ele>115.8</ele>
        <time>2020-05-30T20:37:35Z</time>
      </trkpt>
      <trkpt lat="46.42814" lon="-0.18564">
        <ele>115.8</ele>
        <time>2020-05-30T20:37:36Z</time>
      </trkpt>
      <trkpt lat="46.42813" lon="-0.18564">
        <ele>115.8</ele>
        <time>2020-05-30T20:37:37Z</time>
      </trkpt>
      <trkpt lat="46.42812" lon="-0.18565">
        <ele>115.8</ele>
        <time>2020-05-30T20:37:38Z</time>
      </trkpt>
      <trkpt lat="46.42812" lon="-0.18565">
        <ele>115.8</ele>
        <time>2020-05-30T20:37:39Z</time>
      </trkpt>
      <trkpt lat="46.42811" lon="-0.18565">
        <ele>115.8</ele>
        <time>2020-05-30T20:37:40Z</time>
      </trkpt>
      <trkpt lat="46.4281" lon="-0.18566">
        <ele>115.8</ele>
        <time>2020-05-30T20:37:41Z</time>
      </trkpt>
      <trkpt lat="46.42809" lon="-0.18566">
        <ele>115.8</ele>
        <time>2020-05-30T20:37:42Z</time>
      </trkpt>
      <trkpt lat="46.42809" lon="-0.18567">
        <ele>115.8</ele>
        <time>2020-05-30T20:37:43Z</time>
      </trkpt>
      <trkpt lat="46.42808" lon="-0.18567">
        <ele>115.8</ele>
        <time>2020-05-30T20:37:44Z</time>
      </trkpt>
      <trkpt lat="46.42807" lon="-0.18568">
        <ele>115.8</ele>
        <time>2020-05-30T20:37:55Z</time>
      </trkpt>
      <trkpt lat="46.42806" lon="-0.18568">
        <ele>115.8</ele>
        <time>2020-05-30T20:37:58Z</time>
      </trkpt>
      <trkpt lat="46.42806" lon="-0.18569">
        <ele>115.8</ele>
        <time>2020-05-30T20:37:59Z</time>
      </trkpt>
      <trkpt lat="46.42805" lon="-0.18569">
        <ele>115.8</ele>
        <time>2020-05-30T20:38:00Z</time>
      </trkpt>
      <trkpt lat="46.42804" lon="-0.1857">
        <ele>115.8</ele>
        <time>2020-05-30T20:38:01Z</time>
      </trkpt>
      <trkpt lat="46.42803" lon="-0.1857">
        <ele>115.8</ele>
        <time>2020-05-30T20:38:02Z</time>
      </trkpt>
      <trkpt lat="46.42805" lon="-0.1857">
        <ele>115.8</ele>
        <time>2020-05-30T20:38:03Z</time>
      </trkpt>
      <trkpt lat="46.42806" lon="-0.1857">
        <ele>115.8</ele>
        <time>2020-05-30T20:38:04Z</time>
      </trkpt>
      <trkpt lat="46.42808" lon="-0.18569">
        <ele>115.8</ele>
        <time>2020-05-30T20:38:05Z</time>
      </trkpt>
      <trkpt lat="46.4281" lon="-0.18568">
        <ele>115.8</ele>
        <time>2020-05-30T20:38:06Z</time>
      </trkpt>
      <trkpt lat="46.42815" lon="-0.18566">
        <ele>115.9</ele>
        <time>2020-05-30T20:38:07Z</time>
      </trkpt>
      <trkpt lat="46.42817" lon="-0.18566">
        <ele>115.9</ele>
        <time>2020-05-30T20:38:08Z</time>
      </trkpt>
      <trkpt lat="46.42818" lon="-0.18565">
        <ele>115.9</ele>
        <time>2020-05-30T20:38:09Z</time>
      </trkpt>
      <trkpt lat="46.42819" lon="-0.18565">
        <ele>115.9</ele>
        <time>2020-05-30T20:38:10Z</time>
      </trkpt>
      <trkpt lat="46.42821" lon="-0.18564">
        <ele>115.9</ele>
        <time>2020-05-30T20:38:11Z</time>
      </trkpt>
      <trkpt lat="46.42822" lon="-0.18564">
        <ele>115.9</ele>
        <time>2020-05-30T20:38:12Z</time>
      </trkpt>
      <trkpt lat="46.42822" lon="-0.18565">
        <ele>115.9</ele>
        <time>2020-05-30T20:38:13Z</time>
      </trkpt>
      <trkpt lat="46.42821" lon="-0.18566">
        <ele>115.9</ele>
        <time>2020-05-30T20:38:14Z</time>
      </trkpt>
      <trkpt lat="46.42821" lon="-0.18567">
        <ele>115.9</ele>
        <time>2020-05-30T20:38:15Z</time>
      </trkpt>
      <trkpt lat="46.42821" lon="-0.18568">
        <ele>115.9</ele>
        <time>2020-05-30T20:38:16Z</time>
      </trkpt>
      <trkpt lat="46.42821" lon="-0.18568">
        <ele>115.9</ele>
        <time>2020-05-30T20:38:17Z</time>
      </trkpt>
      <trkpt lat="46.42821" lon="-0.18568">
        <ele>115.9</ele>
        <time>2020-05-30T20:38:18Z</time>
      </trkpt>
      <trkpt lat="46.42821" lon="-0.18568">
        <ele>115.9</ele>
        <time>2020-05-30T20:38:19Z</time>
      </trkpt>
      <trkpt lat="46.42821" lon="-0.18568">
        <ele>115.9</ele>
        <time>2020-05-30T20:38:20Z</time>
      </trkpt>
      <trkpt lat="46.42821" lon="-0.18568">
        <ele>115.9</ele>
        <time>2020-05-30T20:38:21Z</time>
      </trkpt>
      <trkpt lat="46.42821" lon="-0.18568">
        <ele>115.9</ele>
        <time>2020-05-30T20:38:22Z</time>
      </trkpt>
      <trkpt lat="46.42821" lon="-0.18568">
        <ele>115.9</ele>
        <time>2020-05-30T20:38:23Z</time>
      </trkpt>
      <trkpt lat="46.42821" lon="-0.18569">
        <ele>115.9</ele>
        <time>2020-05-30T20:38:24Z</time>
      </trkpt>
      <trkpt lat="46.4282" lon="-0.18569">
        <ele>115.9</ele>
        <time>2020-05-30T20:38:25Z</time>
      </trkpt>
      <trkpt lat="46.4282" lon="-0.18569">
        <ele>115.9</ele>
        <time>2020-05-30T20:38:26Z</time>
      </trkpt>
      <trkpt lat="46.4282" lon="-0.18569">
        <ele>115.9</ele>
        <time>2020-05-30T20:38:27Z</time>
      </trkpt>
      <trkpt lat="46.4282" lon="-0.18569">
        <ele>115.9</ele>
        <time>2020-05-30T20:38:28Z</time>
      </trkpt>
      <trkpt lat="46.4282" lon="-0.18569">
        <ele>115.9</ele>
        <time>2020-05-30T20:38:29Z</time>
      </trkpt>
      <trkpt lat="46.4282" lon="-0.18569">
        <ele>115.9</ele>
        <time>2020-05-30T20:38:30Z</time>
      </trkpt>
      <trkpt lat="46.4282" lon="-0.18569">
        <ele>115.9</ele>
        <time>2020-05-30T20:38:31Z</time>
      </trkpt>
      <trkpt lat="46.4282" lon="-0.18569">
        <ele>115.9</ele>
        <time>2020-05-30T20:38:32Z</time>
      </trkpt>
      <trkpt lat="46.4282" lon="-0.18569">
        <ele>115.9</ele>
        <time>2020-05-30T20:38:33Z</time>
      </trkpt>
      <trkpt lat="46.4282" lon="-0.18569">
        <ele>115.9</ele>
        <time>2020-05-30T20:38:34Z</time>
      </trkpt>
      <trkpt lat="46.4282" lon="-0.18569">
        <ele>115.9</ele>
        <time>2020-05-30T20:38:35Z</time>
      </trkpt>
      <trkpt lat="46.42819" lon="-0.18569">
        <ele>115.9</ele>
        <time>2020-05-30T20:38:36Z</time>
      </trkpt>
      <trkpt lat="46.42819" lon="-0.18569">
        <ele>115.9</ele>
        <time>2020-05-30T20:38:37Z</time>
      </trkpt>
      <trkpt lat="46.42819" lon="-0.1857">
        <ele>115.9</ele>
        <time>2020-05-30T20:38:38Z</time>
      </trkpt>
      <trkpt lat="46.42819" lon="-0.1857">
        <ele>115.9</ele>
        <time>2020-05-30T20:38:39Z</time>
      </trkpt>
      <trkpt lat="46.42819" lon="-0.1857">
        <ele>115.9</ele>
        <time>2020-05-30T20:38:40Z</time>
      </trkpt>
      <trkpt lat="46.42819" lon="-0.1857">
        <ele>115.9</ele>
        <time>2020-05-30T20:38:41Z</time>
      </trkpt>
      <trkpt lat="46.42819" lon="-0.1857">
        <ele>115.9</ele>
        <time>2020-05-30T20:38:42Z</time>
      </trkpt>
      <trkpt lat="46.42819" lon="-0.1857">
        <ele>115.9</ele>
        <time>2020-05-30T20:38:43Z</time>
      </trkpt>
      <trkpt lat="46.42819" lon="-0.1857">
        <ele>115.9</ele>
        <time>2020-05-30T20:38:44Z</time>
      </trkpt>
      <trkpt lat="46.42819" lon="-0.1857">
        <ele>115.9</ele>
        <time>2020-05-30T20:38:45Z</time>
      </trkpt>
      <trkpt lat="46.42819" lon="-0.1857">
        <ele>115.9</ele>
        <time>2020-05-30T20:38:46Z</time>
      </trkpt>
      <trkpt lat="46.42818" lon="-0.1857">
        <ele>115.9</ele>
        <time>2020-05-30T20:38:47Z</time>
      </trkpt>
      <trkpt lat="46.42818" lon="-0.1857">
        <ele>115.9</ele>
        <time>2020-05-30T20:38:48Z</time>
      </trkpt>
      <trkpt lat="46.42818" lon="-0.1857">
        <ele>115.9</ele>
        <time>2020-05-30T20:38:49Z</time>
      </trkpt>
      <trkpt lat="46.42818" lon="-0.1857">
        <ele>115.9</ele>
        <time>2020-05-30T20:38:50Z</time>
      </trkpt>
      <trkpt lat="46.42818" lon="-0.1857">
        <ele>115.9</ele>
        <time>2020-05-30T20:38:51Z</time>
      </trkpt>
      <trkpt lat="46.42818" lon="-0.18571">
        <ele>115.9</ele>
        <time>2020-05-30T20:38:52Z</time>
      </trkpt>
      <trkpt lat="46.42818" lon="-0.18571">
        <ele>115.9</ele>
        <time>2020-05-30T20:38:53Z</time>
      </trkpt>
      <trkpt lat="46.42818" lon="-0.18571">
        <ele>115.9</ele>
        <time>2020-05-30T20:38:54Z</time>
      </trkpt>
      <trkpt lat="46.42818" lon="-0.18571">
        <ele>115.9</ele>
        <time>2020-05-30T20:38:55Z</time>
      </trkpt>
      <trkpt lat="46.42818" lon="-0.18571">
        <ele>115.9</ele>
        <time>2020-05-30T20:38:56Z</time>
      </trkpt>
      <trkpt lat="46.42818" lon="-0.18571">
        <ele>115.9</ele>
        <time>2020-05-30T20:38:57Z</time>
      </trkpt>
      <trkpt lat="46.42818" lon="-0.18571">
        <ele>115.9</ele>
        <time>2020-05-30T20:38:58Z</time>
      </trkpt>
      <trkpt lat="46.42817" lon="-0.18571">
        <ele>115.9</ele>
        <time>2020-05-30T20:38:59Z</time>
      </trkpt>
      <trkpt lat="46.42817" lon="-0.18571">
        <ele>115.9</ele>
        <time>2020-05-30T20:39:00Z</time>
      </trkpt>
      <trkpt lat="46.42817" lon="-0.18571">
        <ele>115.9</ele>
        <time>2020-05-30T20:39:01Z</time>
      </trkpt>
      <trkpt lat="46.42817" lon="-0.18571">
        <ele>115.9</ele>
        <time>2020-05-30T20:39:02Z</time>
      </trkpt>
      <trkpt lat="46.42817" lon="-0.18571">
        <ele>115.9</ele>
        <time>2020-05-30T20:39:03Z</time>
      </trkpt>
      <trkpt lat="46.42817" lon="-0.18571">
        <ele>115.9</ele>
        <time>2020-05-30T20:39:04Z</time>
      </trkpt>
      <trkpt lat="46.42817" lon="-0.1857">
        <ele>115.9</ele>
        <time>2020-05-30T20:39:05Z</time>
      </trkpt>
      <trkpt lat="46.42816" lon="-0.18569">
        <ele>115.9</ele>
        <time>2020-05-30T20:39:06Z</time>
      </trkpt>
      <trkpt lat="46.42816" lon="-0.18567">
        <ele>115.9</ele>
        <time>2020-05-30T20:39:07Z</time>
      </trkpt>
      <trkpt lat="46.42816" lon="-0.18566">
        <ele>115.9</ele>
        <time>2020-05-30T20:39:08Z</time>
      </trkpt>
      <trkpt lat="46.42816" lon="-0.18566">
        <ele>115.9</ele>
        <time>2020-05-30T20:39:09Z</time>
      </trkpt>
      <trkpt lat="46.42815" lon="-0.18565">
        <ele>115.9</ele>
        <time>2020-05-30T20:39:10Z</time>
      </trkpt>
      <trkpt lat="46.42815" lon="-0.18565">
        <ele>115.9</ele>
        <time>2020-05-30T20:39:11Z</time>
      </trkpt>
      <trkpt lat="46.42815" lon="-0.18565">
        <ele>115.9</ele>
        <time>2020-05-30T20:39:12Z</time>
      </trkpt>
      <trkpt lat="46.42815" lon="-0.18565">
        <ele>115.9</ele>
        <time>2020-05-30T20:39:13Z</time>
      </trkpt>
      <trkpt lat="46.42814" lon="-0.18565">
        <ele>115.9</ele>
        <time>2020-05-30T20:39:14Z</time>
      </trkpt>
      <trkpt lat="46.42814" lon="-0.18566">
        <ele>115.9</ele>
        <time>2020-05-30T20:39:15Z</time>
      </trkpt>
      <trkpt lat="46.42815" lon="-0.18566">
        <ele>115.9</ele>
        <time>2020-05-30T20:39:16Z</time>
      </trkpt>
      <trkpt lat="46.42814" lon="-0.18567">
        <ele>115.9</ele>
        <time>2020-05-30T20:39:17Z</time>
      </trkpt>
      <trkpt lat="46.42814" lon="-0.18567">
        <ele>115.9</ele>
        <time>2020-05-30T20:39:18Z</time>
      </trkpt>
      <trkpt lat="46.42814" lon="-0.18567">
        <ele>115.9</ele>
        <time>2020-05-30T20:39:19Z</time>
      </trkpt>
      <trkpt lat="46.42814" lon="-0.18567">
        <ele>115.9</ele>
        <time>2020-05-30T20:39:20Z</time>
      </trkpt>
      <trkpt lat="46.42813" lon="-0.18567">
        <ele>115.9</ele>
        <time>2020-05-30T20:39:21Z</time>
      </trkpt>
      <trkpt lat="46.42813" lon="-0.18567">
        <ele>115.9</ele>
        <time>2020-05-30T20:39:22Z</time>
      </trkpt>
      <trkpt lat="46.42813" lon="-0.18567">
        <ele>115.9</ele>
        <time>2020-05-30T20:39:23Z</time>
      </trkpt>
      <trkpt lat="46.42812" lon="-0.18568">
        <ele>115.9</ele>
        <time>2020-05-30T20:39:24Z</time>
      </trkpt>
      <trkpt lat="46.42812" lon="-0.18568">
        <ele>115.9</ele>
        <time>2020-05-30T20:39:25Z</time>
      </trkpt>
      <trkpt lat="46.42811" lon="-0.18568">
        <ele>115.9</ele>
        <time>2020-05-30T20:39:26Z</time>
      </trkpt>
      <trkpt lat="46.4281" lon="-0.18567">
        <ele>115.9</ele>
        <time>2020-05-30T20:39:27Z</time>
      </trkpt>
      <trkpt lat="46.42811" lon="-0.18566">
        <ele>115.9</ele>
        <time>2020-05-30T20:39:28Z</time>
      </trkpt>
      <trkpt lat="46.42812" lon="-0.18566">
        <ele>115.9</ele>
        <time>2020-05-30T20:39:29Z</time>
      </trkpt>
      <trkpt lat="46.42812" lon="-0.18566">
        <ele>115.9</ele>
        <time>2020-05-30T20:39:30Z</time>
      </trkpt>
      <trkpt lat="46.42812" lon="-0.18566">
        <ele>115.9</ele>
        <time>2020-05-30T20:39:31Z</time>
      </trkpt>
      <trkpt lat="46.42812" lon="-0.18565">
        <ele>115.9</ele>
        <time>2020-05-30T20:39:32Z</time>
      </trkpt>
      <trkpt lat="46.42812" lon="-0.18565">
        <ele>116</ele>
        <time>2020-05-30T20:39:33Z</time>
      </trkpt>
      <trkpt lat="46.42811" lon="-0.18565">
        <ele>116</ele>
        <time>2020-05-30T20:39:34Z</time>
      </trkpt>
      <trkpt lat="46.42811" lon="-0.18565">
        <ele>116</ele>
        <time>2020-05-30T20:39:35Z</time>
      </trkpt>
      <trkpt lat="46.4281" lon="-0.18566">
        <ele>116</ele>
        <time>2020-05-30T20:39:36Z</time>
      </trkpt>
      <trkpt lat="46.4281" lon="-0.18566">
        <ele>116</ele>
        <time>2020-05-30T20:39:37Z</time>
      </trkpt>
      <trkpt lat="46.42809" lon="-0.18567">
        <ele>116</ele>
        <time>2020-05-30T20:39:38Z</time>
      </trkpt>
      <trkpt lat="46.42808" lon="-0.18566">
        <ele>116</ele>
        <time>2020-05-30T20:39:39Z</time>
      </trkpt>
      <trkpt lat="46.42808" lon="-0.18567">
        <ele>116</ele>
        <time>2020-05-30T20:39:40Z</time>
      </trkpt>
      <trkpt lat="46.42807" lon="-0.18566">
        <ele>116</ele>
        <time>2020-05-30T20:39:41Z</time>
      </trkpt>
      <trkpt lat="46.42807" lon="-0.18566">
        <ele>116</ele>
        <time>2020-05-30T20:39:42Z</time>
      </trkpt>
      <trkpt lat="46.42807" lon="-0.18566">
        <ele>116</ele>
        <time>2020-05-30T20:39:43Z</time>
      </trkpt>
      <trkpt lat="46.42807" lon="-0.18566">
        <ele>116</ele>
        <time>2020-05-30T20:39:44Z</time>
      </trkpt>
      <trkpt lat="46.42807" lon="-0.18566">
        <ele>116</ele>
        <time>2020-05-30T20:39:45Z</time>
      </trkpt>
      <trkpt lat="46.42808" lon="-0.18565">
        <ele>116</ele>
        <time>2020-05-30T20:39:46Z</time>
      </trkpt>
      <trkpt lat="46.42808" lon="-0.18565">
        <ele>116</ele>
        <time>2020-05-30T20:39:47Z</time>
      </trkpt>
      <trkpt lat="46.42808" lon="-0.18565">
        <ele>116</ele>
        <time>2020-05-30T20:39:48Z</time>
      </trkpt>
      <trkpt lat="46.42808" lon="-0.18565">
        <ele>116</ele>
        <time>2020-05-30T20:39:49Z</time>
      </trkpt>
      <trkpt lat="46.42808" lon="-0.18566">
        <ele>116</ele>
        <time>2020-05-30T20:39:50Z</time>
      </trkpt>
      <trkpt lat="46.42808" lon="-0.18566">
        <ele>116</ele>
        <time>2020-05-30T20:39:51Z</time>
      </trkpt>
      <trkpt lat="46.42808" lon="-0.18567">
        <ele>116</ele>
        <time>2020-05-30T20:39:52Z</time>
      </trkpt>
      <trkpt lat="46.42808" lon="-0.18567">
        <ele>116</ele>
        <time>2020-05-30T20:39:53Z</time>
      </trkpt>
      <trkpt lat="46.42808" lon="-0.18567">
        <ele>116</ele>
        <time>2020-05-30T20:39:54Z</time>
      </trkpt>
      <trkpt lat="46.42808" lon="-0.18569">
        <ele>116</ele>
        <time>2020-05-30T20:39:55Z</time>
      </trkpt>
      <trkpt lat="46.42808" lon="-0.18569">
        <ele>116</ele>
        <time>2020-05-30T20:39:56Z</time>
      </trkpt>
      <trkpt lat="46.42808" lon="-0.18569">
        <ele>116</ele>
        <time>2020-05-30T20:39:57Z</time>
      </trkpt>
      <trkpt lat="46.42809" lon="-0.18569">
        <ele>116</ele>
        <time>2020-05-30T20:39:58Z</time>
      </trkpt>
      <trkpt lat="46.42809" lon="-0.18569">
        <ele>116</ele>
        <time>2020-05-30T20:39:59Z</time>
      </trkpt>
      <trkpt lat="46.4281" lon="-0.18568">
        <ele>116</ele>
        <time>2020-05-30T20:40:00Z</time>
      </trkpt>
      <trkpt lat="46.42811" lon="-0.18567">
        <ele>116</ele>
        <time>2020-05-30T20:40:01Z</time>
      </trkpt>
      <trkpt lat="46.42812" lon="-0.18567">
        <ele>116</ele>
        <time>2020-05-30T20:40:02Z</time>
      </trkpt>
      <trkpt lat="46.42813" lon="-0.18567">
        <ele>116</ele>
        <time>2020-05-30T20:40:03Z</time>
      </trkpt>
      <trkpt lat="46.42813" lon="-0.18567">
        <ele>116</ele>
        <time>2020-05-30T20:40:04Z</time>
      </trkpt>
      <trkpt lat="46.42814" lon="-0.18568">
        <ele>116</ele>
        <time>2020-05-30T20:40:05Z</time>
      </trkpt>
      <trkpt lat="46.42814" lon="-0.18568">
        <ele>116</ele>
        <time>2020-05-30T20:40:06Z</time>
      </trkpt>
      <trkpt lat="46.42814" lon="-0.18569">
        <ele>116</ele>
        <time>2020-05-30T20:40:07Z</time>
      </trkpt>
      <trkpt lat="46.42814" lon="-0.18569">
        <ele>116</ele>
        <time>2020-05-30T20:40:08Z</time>
      </trkpt>
      <trkpt lat="46.42814" lon="-0.18569">
        <ele>116</ele>
        <time>2020-05-30T20:40:09Z</time>
      </trkpt>
      <trkpt lat="46.42814" lon="-0.18569">
        <ele>116</ele>
        <time>2020-05-30T20:40:10Z</time>
      </trkpt>
      <trkpt lat="46.42814" lon="-0.18569">
        <ele>116</ele>
        <time>2020-05-30T20:40:11Z</time>
      </trkpt>
      <trkpt lat="46.42815" lon="-0.18568">
        <ele>116</ele>
        <time>2020-05-30T20:40:12Z</time>
      </trkpt>
      <trkpt lat="46.42815" lon="-0.18568">
        <ele>116</ele>
        <time>2020-05-30T20:40:13Z</time>
      </trkpt>
      <trkpt lat="46.42815" lon="-0.18568">
        <ele>116</ele>
        <time>2020-05-30T20:40:14Z</time>
      </trkpt>
      <trkpt lat="46.42815" lon="-0.18568">
        <ele>116</ele>
        <time>2020-05-30T20:40:15Z</time>
      </trkpt>
      <trkpt lat="46.42815" lon="-0.18568">
        <ele>116</ele>
        <time>2020-05-30T20:40:16Z</time>
      </trkpt>
      <trkpt lat="46.42815" lon="-0.18568">
        <ele>116</ele>
        <time>2020-05-30T20:40:17Z</time>
      </trkpt>
      <trkpt lat="46.42815" lon="-0.18568">
        <ele>116</ele>
        <time>2020-05-30T20:40:18Z</time>
      </trkpt>
      <trkpt lat="46.42815" lon="-0.18567">
        <ele>116</ele>
        <time>2020-05-30T20:40:19Z</time>
      </trkpt>
      <trkpt lat="46.42815" lon="-0.18568">
        <ele>116</ele>
        <time>2020-05-30T20:40:20Z</time>
      </trkpt>
      <trkpt lat="46.42815" lon="-0.18569">
        <ele>116</ele>
        <time>2020-05-30T20:40:21Z</time>
      </trkpt>
      <trkpt lat="46.42815" lon="-0.18569">
        <ele>116</ele>
        <time>2020-05-30T20:40:22Z</time>
      </trkpt>
      <trkpt lat="46.42815" lon="-0.18569">
        <ele>116</ele>
        <time>2020-05-30T20:40:23Z</time>
      </trkpt>
      <trkpt lat="46.42815" lon="-0.18569">
        <ele>116</ele>
        <time>2020-05-30T20:40:24Z</time>
      </trkpt>
      <trkpt lat="46.42815" lon="-0.18569">
        <ele>116</ele>
        <time>2020-05-30T20:40:25Z</time>
      </trkpt>
      <trkpt lat="46.42815" lon="-0.18569">
        <ele>116</ele>
        <time>2020-05-30T20:40:26Z</time>
      </trkpt>
      <trkpt lat="46.42815" lon="-0.18569">
        <ele>116</ele>
        <time>2020-05-30T20:40:27Z</time>
      </trkpt>
      <trkpt lat="46.42815" lon="-0.18569">
        <ele>116</ele>
        <time>2020-05-30T20:40:28Z</time>
      </trkpt>
      <trkpt lat="46.42815" lon="-0.18569">
        <ele>116</ele>
        <time>2020-05-30T20:40:29Z</time>
      </trkpt>
      <trkpt lat="46.42814" lon="-0.18569">
        <ele>116</ele>
        <time>2020-05-30T20:40:30Z</time>
      </trkpt>
    </trkseg>
  </trk>
  <trk>
    <name><![CDATA[Jour 6 - Pornic / La Chapelle des Marais]]></name>
    <trkseg>
      <trkpt lat="47.09737" lon="-2.05292">
        <ele>31.7</ele>
        <time>2020-06-05T10:33:30Z</time>
      </trkpt>
      <trkpt lat="47.09737" lon="-2.05293">
        <ele>31.7</ele>
        <time>2020-06-05T10:33:31Z</time>
      </trkpt>
      <trkpt lat="47.09738" lon="-2.05293">
        <ele>31.7</ele>
        <time>2020-06-05T10:33:32Z</time>
      </trkpt>
      <trkpt lat="47.09739" lon="-2.05293">
        <ele>31.7</ele>
        <time>2020-06-05T10:33:33Z</time>
      </trkpt>
      <trkpt lat="47.0974" lon="-2.05292">
        <ele>31.7</ele>
        <time>2020-06-05T10:33:34Z</time>
      </trkpt>
      <trkpt lat="47.09741" lon="-2.05292">
        <ele>31.7</ele>
        <time>2020-06-05T10:33:35Z</time>
      </trkpt>
      <trkpt lat="47.09742" lon="-2.05292">
        <ele>31.8</ele>
        <time>2020-06-05T10:33:36Z</time>
      </trkpt>
      <trkpt lat="47.09743" lon="-2.05292">
        <ele>31.8</ele>
        <time>2020-06-05T10:33:37Z</time>
      </trkpt>
      <trkpt lat="47.09743" lon="-2.05292">
        <ele>31.8</ele>
        <time>2020-06-05T10:33:38Z</time>
      </trkpt>
      <trkpt lat="47.09744" lon="-2.05292">
        <ele>31.8</ele>
        <time>2020-06-05T10:33:39Z</time>
      </trkpt>
      <trkpt lat="47.09745" lon="-2.05292">
        <ele>31.8</ele>
        <time>2020-06-05T10:33:40Z</time>
      </trkpt>
      <trkpt lat="47.09746" lon="-2.05292">
        <ele>31.8</ele>
        <time>2020-06-05T10:33:44Z</time>
      </trkpt>
      <trkpt lat="47.09747" lon="-2.05291">
        <ele>31.8</ele>
        <time>2020-06-05T10:33:45Z</time>
      </trkpt>
      <trkpt lat="47.09748" lon="-2.05291">
        <ele>31.8</ele>
        <time>2020-06-05T10:33:46Z</time>
      </trkpt>
      <trkpt lat="47.09751" lon="-2.0529">
        <ele>31.8</ele>
        <time>2020-06-05T10:33:47Z</time>
      </trkpt>
      <trkpt lat="47.09753" lon="-2.05289">
        <ele>31.9</ele>
        <time>2020-06-05T10:33:48Z</time>
      </trkpt>
      <trkpt lat="47.09756" lon="-2.05287">
        <ele>31.9</ele>
        <time>2020-06-05T10:33:49Z</time>
      </trkpt>
      <trkpt lat="47.09757" lon="-2.05287">
        <ele>31.9</ele>
        <time>2020-06-05T10:33:50Z</time>
      </trkpt>
      <trkpt lat="47.09758" lon="-2.05284">
        <ele>31.9</ele>
        <time>2020-06-05T10:33:51Z</time>
      </trkpt>
      <trkpt lat="47.09758" lon="-2.05282">
        <ele>31.9</ele>
        <time>2020-06-05T10:33:52Z</time>
      </trkpt>
      <trkpt lat="47.09759" lon="-2.05281">
        <ele>31.8</ele>
        <time>2020-06-05T10:33:53Z</time>
      </trkpt>
      <trkpt lat="47.0976" lon="-2.0528">
        <ele>31.8</ele>
        <time>2020-06-05T10:33:54Z</time>
      </trkpt>
      <trkpt lat="47.09761" lon="-2.05279">
        <ele>31.7</ele>
        <time>2020-06-05T10:33:55Z</time>
      </trkpt>
      <trkpt lat="47.0976" lon="-2.05277">
        <ele>31.7</ele>
        <time>2020-06-05T10:33:56Z</time>
      </trkpt>
      <trkpt lat="47.0976" lon="-2.05275">
        <ele>31.7</ele>
        <time>2020-06-05T10:33:57Z</time>
      </trkpt>
      <trkpt lat="47.0976" lon="-2.05274">
        <ele>31.6</ele>
        <time>2020-06-05T10:33:58Z</time>
      </trkpt>
      <trkpt lat="47.0976" lon="-2.05273">
        <ele>31.6</ele>
        <time>2020-06-05T10:33:59Z</time>
      </trkpt>
      <trkpt lat="47.0976" lon="-2.05267">
        <ele>31.4</ele>
        <time>2020-06-05T10:34:00Z</time>
      </trkpt>
      <trkpt lat="47.09759" lon="-2.05265">
        <ele>31.3</ele>
        <time>2020-06-05T10:34:01Z</time>
      </trkpt>
      <trkpt lat="47.09758" lon="-2.05261">
        <ele>31.2</ele>
        <time>2020-06-05T10:34:02Z</time>
      </trkpt>
      <trkpt lat="47.09757" lon="-2.05257">
        <ele>31</ele>
        <time>2020-06-05T10:34:03Z</time>
      </trkpt>
      <trkpt lat="47.09757" lon="-2.05252">
        <ele>30.9</ele>
        <time>2020-06-05T10:34:04Z</time>
      </trkpt>
      <trkpt lat="47.09755" lon="-2.05247">
        <ele>30.7</ele>
        <time>2020-06-05T10:34:05Z</time>
      </trkpt>
      <trkpt lat="47.09752" lon="-2.05243">
        <ele>30.5</ele>
        <time>2020-06-05T10:34:06Z</time>
      </trkpt>
      <trkpt lat="47.0975" lon="-2.05237">
        <ele>30</ele>
        <time>2020-06-05T10:34:07Z</time>
      </trkpt>
      <trkpt lat="47.09751" lon="-2.05233">
        <ele>30</ele>
        <time>2020-06-05T10:34:08Z</time>
      </trkpt>
      <trkpt lat="47.09754" lon="-2.0523">
        <ele>30.2</ele>
        <time>2020-06-05T10:34:09Z</time>
      </trkpt>
      <trkpt lat="47.09757" lon="-2.05228">
        <ele>30.3</ele>
        <time>2020-06-05T10:34:10Z</time>
      </trkpt>
      <trkpt lat="47.09761" lon="-2.05227">
        <ele>30.4</ele>
        <time>2020-06-05T10:34:11Z</time>
      </trkpt>
      <trkpt lat="47.09764" lon="-2.05225">
        <ele>30.5</ele>
        <time>2020-06-05T10:34:12Z</time>
      </trkpt>
      <trkpt lat="47.09766" lon="-2.05222">
        <ele>30.5</ele>
        <time>2020-06-05T10:34:13Z</time>
      </trkpt>
      <trkpt lat="47.09769" lon="-2.0522">
        <ele>30.6</ele>
        <time>2020-06-05T10:34:14Z</time>
      </trkpt>
      <trkpt lat="47.09771" lon="-2.05217">
        <ele>30.7</ele>
        <time>2020-06-05T10:34:15Z</time>
      </trkpt>
      <trkpt lat="47.09773" lon="-2.05216">
        <ele>30.8</ele>
        <time>2020-06-05T10:34:16Z</time>
      </trkpt>
      <trkpt lat="47.09774" lon="-2.05217">
        <ele>30.8</ele>
        <time>2020-06-05T10:34:17Z</time>
      </trkpt>
      <trkpt lat="47.09778" lon="-2.05218">
        <ele>30.9</ele>
        <time>2020-06-05T10:34:18Z</time>
      </trkpt>
      <trkpt lat="47.09779" lon="-2.05218">
        <ele>30.9</ele>
        <time>2020-06-05T10:34:19Z</time>
      </trkpt>
      <trkpt lat="47.09782" lon="-2.05218">
        <ele>31</ele>
        <time>2020-06-05T10:34:20Z</time>
      </trkpt>
      <trkpt lat="47.09783" lon="-2.05218">
        <ele>31</ele>
        <time>2020-06-05T10:34:21Z</time>
      </trkpt>
      <trkpt lat="47.09785" lon="-2.05218">
        <ele>31.1</ele>
        <time>2020-06-05T10:34:22Z</time>
      </trkpt>
      <trkpt lat="47.09787" lon="-2.05218">
        <ele>31.1</ele>
        <time>2020-06-05T10:34:23Z</time>
      </trkpt>
      <trkpt lat="47.09789" lon="-2.05218">
        <ele>31.2</ele>
        <time>2020-06-05T10:34:24Z</time>
      </trkpt>
      <trkpt lat="47.0979" lon="-2.05218">
        <ele>31.2</ele>
        <time>2020-06-05T10:34:25Z</time>
      </trkpt>
      <trkpt lat="47.09791" lon="-2.05218">
        <ele>31.2</ele>
        <time>2020-06-05T10:34:26Z</time>
      </trkpt>
      <trkpt lat="47.09791" lon="-2.05217">
        <ele>31.2</ele>
        <time>2020-06-05T10:34:27Z</time>
      </trkpt>
      <trkpt lat="47.09791" lon="-2.05217">
        <ele>31.3</ele>
        <time>2020-06-05T10:34:28Z</time>
      </trkpt>
      <trkpt lat="47.09791" lon="-2.05217">
        <ele>31.3</ele>
        <time>2020-06-05T10:34:29Z</time>
      </trkpt>
      <trkpt lat="47.09791" lon="-2.05217">
        <ele>31.3</ele>
        <time>2020-06-05T10:34:30Z</time>
      </trkpt>
      <trkpt lat="47.09792" lon="-2.05216">
        <ele>31.3</ele>
        <time>2020-06-05T10:34:31Z</time>
      </trkpt>
      <trkpt lat="47.09792" lon="-2.05216">
        <ele>31.3</ele>
        <time>2020-06-05T10:34:32Z</time>
      </trkpt>
      <trkpt lat="47.09793" lon="-2.05216">
        <ele>31.3</ele>
        <time>2020-06-05T10:34:33Z</time>
      </trkpt>
      <trkpt lat="47.09793" lon="-2.05215">
        <ele>31.3</ele>
        <time>2020-06-05T10:34:34Z</time>
      </trkpt>
      <trkpt lat="47.09793" lon="-2.05215">
        <ele>31.3</ele>
        <time>2020-06-05T10:34:35Z</time>
      </trkpt>
      <trkpt lat="47.09793" lon="-2.05215">
        <ele>31.3</ele>
        <time>2020-06-05T10:34:36Z</time>
      </trkpt>
      <trkpt lat="47.09793" lon="-2.05215">
        <ele>31.3</ele>
        <time>2020-06-05T10:34:37Z</time>
      </trkpt>
      <trkpt lat="47.09793" lon="-2.05215">
        <ele>31.3</ele>
        <time>2020-06-05T10:34:38Z</time>
      </trkpt>
      <trkpt lat="47.09793" lon="-2.05215">
        <ele>31.3</ele>
        <time>2020-06-05T10:34:39Z</time>
      </trkpt>
      <trkpt lat="47.0979" lon="-2.05223">
        <ele>31.1</ele>
        <time>2020-06-05T10:35:55Z</time>
      </trkpt>
      <trkpt lat="47.09789" lon="-2.05224">
        <ele>31.1</ele>
        <time>2020-06-05T10:35:56Z</time>
      </trkpt>
      <trkpt lat="47.09789" lon="-2.05223">
        <ele>31.1</ele>
        <time>2020-06-05T10:35:57Z</time>
      </trkpt>
      <trkpt lat="47.09789" lon="-2.05222">
        <ele>31.1</ele>
        <time>2020-06-05T10:35:58Z</time>
      </trkpt>
      <trkpt lat="47.09788" lon="-2.05222">
        <ele>31.1</ele>
        <time>2020-06-05T10:35:59Z</time>
      </trkpt>
      <trkpt lat="47.09788" lon="-2.05222">
        <ele>31.1</ele>
        <time>2020-06-05T10:36:00Z</time>
      </trkpt>
      <trkpt lat="47.09789" lon="-2.05222">
        <ele>31.1</ele>
        <time>2020-06-05T10:36:01Z</time>
      </trkpt>
      <trkpt lat="47.09789" lon="-2.05223">
        <ele>31.1</ele>
        <time>2020-06-05T10:36:02Z</time>
      </trkpt>
      <trkpt lat="47.09788" lon="-2.05224">
        <ele>31.1</ele>
        <time>2020-06-05T10:36:03Z</time>
      </trkpt>
      <trkpt lat="47.09788" lon="-2.05225">
        <ele>31.1</ele>
        <time>2020-06-05T10:36:04Z</time>
      </trkpt>
      <trkpt lat="47.09788" lon="-2.05226">
        <ele>31.1</ele>
        <time>2020-06-05T10:36:05Z</time>
      </trkpt>
      <trkpt lat="47.09788" lon="-2.05226">
        <ele>31.1</ele>
        <time>2020-06-05T10:36:06Z</time>
      </trkpt>
      <trkpt lat="47.09788" lon="-2.05226">
        <ele>31.1</ele>
        <time>2020-06-05T10:36:07Z</time>
      </trkpt>
      <trkpt lat="47.09787" lon="-2.05226">
        <ele>31.1</ele>
        <time>2020-06-05T10:36:08Z</time>
      </trkpt>
      <trkpt lat="47.09787" lon="-2.05226">
        <ele>31.1</ele>
        <time>2020-06-05T10:36:09Z</time>
      </trkpt>
      <trkpt lat="47.09787" lon="-2.05226">
        <ele>31.1</ele>
        <time>2020-06-05T10:36:10Z</time>
      </trkpt>
      <trkpt lat="47.09787" lon="-2.05226">
        <ele>31.1</ele>
        <time>2020-06-05T10:36:11Z</time>
      </trkpt>
      <trkpt lat="47.09786" lon="-2.05227">
        <ele>31.1</ele>
        <time>2020-06-05T10:36:12Z</time>
      </trkpt>
      <trkpt lat="47.09786" lon="-2.05227">
        <ele>31.1</ele>
        <time>2020-06-05T10:36:13Z</time>
      </trkpt>
      <trkpt lat="47.09785" lon="-2.05226">
        <ele>31.2</ele>
        <time>2020-06-05T10:36:14Z</time>
      </trkpt>
      <trkpt lat="47.09785" lon="-2.05227">
        <ele>31.2</ele>
        <time>2020-06-05T10:36:15Z</time>
      </trkpt>
      <trkpt lat="47.09784" lon="-2.05227">
        <ele>31.2</ele>
        <time>2020-06-05T10:36:16Z</time>
      </trkpt>
      <trkpt lat="47.09784" lon="-2.05227">
        <ele>31.2</ele>
        <time>2020-06-05T10:36:17Z</time>
      </trkpt>
      <trkpt lat="47.09784" lon="-2.05227">
        <ele>31.2</ele>
        <time>2020-06-05T10:36:18Z</time>
      </trkpt>
      <trkpt lat="47.09784" lon="-2.05227">
        <ele>31.2</ele>
        <time>2020-06-05T10:36:19Z</time>
      </trkpt>
      <trkpt lat="47.09784" lon="-2.05227">
        <ele>31.2</ele>
        <time>2020-06-05T10:36:20Z</time>
      </trkpt>
      <trkpt lat="47.09784" lon="-2.05226">
        <ele>31.2</ele>
        <time>2020-06-05T10:36:21Z</time>
      </trkpt>
      <trkpt lat="47.09783" lon="-2.05225">
        <ele>31.2</ele>
        <time>2020-06-05T10:36:22Z</time>
      </trkpt>
      <trkpt lat="47.09783" lon="-2.05227">
        <ele>31.2</ele>
        <time>2020-06-05T10:36:23Z</time>
      </trkpt>
      <trkpt lat="47.09782" lon="-2.05227">
        <ele>31.2</ele>
        <time>2020-06-05T10:36:24Z</time>
      </trkpt>
      <trkpt lat="47.09783" lon="-2.05227">
        <ele>31.2</ele>
        <time>2020-06-05T10:36:25Z</time>
      </trkpt>
      <trkpt lat="47.09783" lon="-2.05226">
        <ele>31.2</ele>
        <time>2020-06-05T10:36:26Z</time>
      </trkpt>
      <trkpt lat="47.09783" lon="-2.05227">
        <ele>31.2</ele>
        <time>2020-06-05T10:36:27Z</time>
      </trkpt>
      <trkpt lat="47.09782" lon="-2.05227">
        <ele>31.2</ele>
        <time>2020-06-05T10:36:28Z</time>
      </trkpt>
      <trkpt lat="47.09782" lon="-2.05227">
        <ele>31.2</ele>
        <time>2020-06-05T10:36:29Z</time>
      </trkpt>
      <trkpt lat="47.09782" lon="-2.05225">
        <ele>31.2</ele>
        <time>2020-06-05T10:36:30Z</time>
      </trkpt>
      <trkpt lat="47.09782" lon="-2.05224">
        <ele>31.2</ele>
        <time>2020-06-05T10:36:31Z</time>
      </trkpt>
      <trkpt lat="47.09782" lon="-2.05224">
        <ele>31.2</ele>
        <time>2020-06-05T10:36:32Z</time>
      </trkpt>
      <trkpt lat="47.09782" lon="-2.05223">
        <ele>31.2</ele>
        <time>2020-06-05T10:36:33Z</time>
      </trkpt>
      <trkpt lat="47.09783" lon="-2.05222">
        <ele>31.2</ele>
        <time>2020-06-05T10:36:34Z</time>
      </trkpt>
      <trkpt lat="47.09783" lon="-2.05221">
        <ele>31.2</ele>
        <time>2020-06-05T10:36:35Z</time>
      </trkpt>
      <trkpt lat="47.09783" lon="-2.0522">
        <ele>31.2</ele>
        <time>2020-06-05T10:36:36Z</time>
      </trkpt>
      <trkpt lat="47.09783" lon="-2.05219">
        <ele>31.2</ele>
        <time>2020-06-05T10:36:37Z</time>
      </trkpt>
      <trkpt lat="47.09783" lon="-2.05218">
        <ele>31.2</ele>
        <time>2020-06-05T10:36:38Z</time>
      </trkpt>
      <trkpt lat="47.09783" lon="-2.05217">
        <ele>31.2</ele>
        <time>2020-06-05T10:37:09Z</time>
      </trkpt>
      <trkpt lat="47.09783" lon="-2.05217">
        <ele>31.2</ele>
        <time>2020-06-05T10:37:10Z</time>
      </trkpt>
      <trkpt lat="47.09784" lon="-2.05216">
        <ele>31.2</ele>
        <time>2020-06-05T10:37:11Z</time>
      </trkpt>
      <trkpt lat="47.09785" lon="-2.05214">
        <ele>31.2</ele>
        <time>2020-06-05T10:37:12Z</time>
      </trkpt>
      <trkpt lat="47.09786" lon="-2.05214">
        <ele>31.2</ele>
        <time>2020-06-05T10:37:13Z</time>
      </trkpt>
      <trkpt lat="47.09787" lon="-2.05213">
        <ele>31.2</ele>
        <time>2020-06-05T10:37:14Z</time>
      </trkpt>
      <trkpt lat="47.09787" lon="-2.05213">
        <ele>31.2</ele>
        <time>2020-06-05T10:37:15Z</time>
      </trkpt>
      <trkpt lat="47.09788" lon="-2.05212">
        <ele>31.2</ele>
        <time>2020-06-05T10:37:16Z</time>
      </trkpt>
      <trkpt lat="47.09788" lon="-2.05211">
        <ele>31.2</ele>
        <time>2020-06-05T10:37:17Z</time>
      </trkpt>
      <trkpt lat="47.09788" lon="-2.0521">
        <ele>31.2</ele>
        <time>2020-06-05T10:37:18Z</time>
      </trkpt>
      <trkpt lat="47.09788" lon="-2.0521">
        <ele>31.2</ele>
        <time>2020-06-05T10:37:19Z</time>
      </trkpt>
      <trkpt lat="47.09788" lon="-2.0521">
        <ele>31.2</ele>
        <time>2020-06-05T10:37:20Z</time>
      </trkpt>
      <trkpt lat="47.09788" lon="-2.05209">
        <ele>31.2</ele>
        <time>2020-06-05T10:37:21Z</time>
      </trkpt>
      <trkpt lat="47.09788" lon="-2.05208">
        <ele>31.1</ele>
        <time>2020-06-05T10:37:22Z</time>
      </trkpt>
      <trkpt lat="47.09788" lon="-2.05208">
        <ele>31.1</ele>
        <time>2020-06-05T10:37:23Z</time>
      </trkpt>
      <trkpt lat="47.09788" lon="-2.05207">
        <ele>31.1</ele>
        <time>2020-06-05T10:37:24Z</time>
      </trkpt>
      <trkpt lat="47.09788" lon="-2.05206">
        <ele>31.1</ele>
        <time>2020-06-05T10:37:25Z</time>
      </trkpt>
      <trkpt lat="47.09788" lon="-2.05206">
        <ele>31.1</ele>
        <time>2020-06-05T10:37:26Z</time>
      </trkpt>
      <trkpt lat="47.09789" lon="-2.05206">
        <ele>31.1</ele>
        <time>2020-06-05T10:37:27Z</time>
      </trkpt>
      <trkpt lat="47.09789" lon="-2.05206">
        <ele>31.1</ele>
        <time>2020-06-05T10:37:28Z</time>
      </trkpt>
      <trkpt lat="47.09789" lon="-2.05206">
        <ele>31.1</ele>
        <time>2020-06-05T10:37:29Z</time>
      </trkpt>
      <trkpt lat="47.0979" lon="-2.05206">
        <ele>31.1</ele>
        <time>2020-06-05T10:37:30Z</time>
      </trkpt>
      <trkpt lat="47.09789" lon="-2.05206">
        <ele>31.1</ele>
        <time>2020-06-05T10:37:31Z</time>
      </trkpt>
      <trkpt lat="47.09789" lon="-2.05206">
        <ele>31.1</ele>
        <time>2020-06-05T10:37:32Z</time>
      </trkpt>
      <trkpt lat="47.09789" lon="-2.05205">
        <ele>31</ele>
        <time>2020-06-05T10:37:33Z</time>
      </trkpt>
      <trkpt lat="47.09789" lon="-2.05205">
        <ele>31</ele>
        <time>2020-06-05T10:37:34Z</time>
      </trkpt>
      <trkpt lat="47.09789" lon="-2.05205">
        <ele>31</ele>
        <time>2020-06-05T10:37:35Z</time>
      </trkpt>
      <trkpt lat="47.09789" lon="-2.05205">
        <ele>31</ele>
        <time>2020-06-05T10:37:36Z</time>
      </trkpt>
      <trkpt lat="47.09789" lon="-2.05205">
        <ele>31</ele>
        <time>2020-06-05T10:37:37Z</time>
      </trkpt>
      <trkpt lat="47.09789" lon="-2.05204">
        <ele>31</ele>
        <time>2020-06-05T10:37:38Z</time>
      </trkpt>
      <trkpt lat="47.09788" lon="-2.05205">
        <ele>31</ele>
        <time>2020-06-05T10:37:39Z</time>
      </trkpt>
      <trkpt lat="47.09782" lon="-2.05207">
        <ele>30.9</ele>
        <time>2020-06-05T10:37:43Z</time>
      </trkpt>
      <trkpt lat="47.0978" lon="-2.05208">
        <ele>30.8</ele>
        <time>2020-06-05T10:37:44Z</time>
      </trkpt>
      <trkpt lat="47.09777" lon="-2.05208">
        <ele>30.7</ele>
        <time>2020-06-05T10:37:45Z</time>
      </trkpt>
      <trkpt lat="47.09776" lon="-2.05207">
        <ele>30.7</ele>
        <time>2020-06-05T10:37:46Z</time>
      </trkpt>
      <trkpt lat="47.09773" lon="-2.05206">
        <ele>30.6</ele>
        <time>2020-06-05T10:37:47Z</time>
      </trkpt>
      <trkpt lat="47.0977" lon="-2.05209">
        <ele>30.5</ele>
        <time>2020-06-05T10:37:48Z</time>
      </trkpt>
      <trkpt lat="47.09767" lon="-2.05214">
        <ele>30.4</ele>
        <time>2020-06-05T10:37:49Z</time>
      </trkpt>
      <trkpt lat="47.09764" lon="-2.05216">
        <ele>30.3</ele>
        <time>2020-06-05T10:37:50Z</time>
      </trkpt>
      <trkpt lat="47.09762" lon="-2.05217">
        <ele>30.3</ele>
        <time>2020-06-05T10:37:51Z</time>
      </trkpt>
      <trkpt lat="47.09759" lon="-2.05218">
        <ele>30.2</ele>
        <time>2020-06-05T10:37:52Z</time>
      </trkpt>
      <trkpt lat="47.09756" lon="-2.05219">
        <ele>30</ele>
        <time>2020-06-05T10:37:53Z</time>
      </trkpt>
      <trkpt lat="47.09753" lon="-2.05221">
        <ele>29.9</ele>
        <time>2020-06-05T10:37:54Z</time>
      </trkpt>
      <trkpt lat="47.09749" lon="-2.05222">
        <ele>29.9</ele>
        <time>2020-06-05T10:37:55Z</time>
      </trkpt>
      <trkpt lat="47.09748" lon="-2.05223">
        <ele>29.9</ele>
        <time>2020-06-05T10:37:56Z</time>
      </trkpt>
      <trkpt lat="47.09746" lon="-2.05226">
        <ele>29.9</ele>
        <time>2020-06-05T10:37:57Z</time>
      </trkpt>
      <trkpt lat="47.09745" lon="-2.05226">
        <ele>29.9</ele>
        <time>2020-06-05T10:37:58Z</time>
      </trkpt>
      <trkpt lat="47.09743" lon="-2.05227">
        <ele>29.9</ele>
        <time>2020-06-05T10:37:59Z</time>
      </trkpt>
      <trkpt lat="47.09741" lon="-2.05226">
        <ele>29.8</ele>
        <time>2020-06-05T10:38:00Z</time>
      </trkpt>
      <trkpt lat="47.09738" lon="-2.05226">
        <ele>29.8</ele>
        <time>2020-06-05T10:38:01Z</time>
      </trkpt>
      <trkpt lat="47.09736" lon="-2.05225">
        <ele>29.8</ele>
        <time>2020-06-05T10:38:02Z</time>
      </trkpt>
      <trkpt lat="47.09733" lon="-2.05226">
        <ele>29.7</ele>
        <time>2020-06-05T10:38:03Z</time>
      </trkpt>
      <trkpt lat="47.09732" lon="-2.05226">
        <ele>29.7</ele>
        <time>2020-06-05T10:38:04Z</time>
      </trkpt>
      <trkpt lat="47.09729" lon="-2.05227">
        <ele>29.7</ele>
        <time>2020-06-05T10:38:05Z</time>
      </trkpt>
      <trkpt lat="47.09726" lon="-2.05228">
        <ele>29.7</ele>
        <time>2020-06-05T10:38:06Z</time>
      </trkpt>
      <trkpt lat="47.09725" lon="-2.05228">
        <ele>29.7</ele>
        <time>2020-06-05T10:38:07Z</time>
      </trkpt>
      <trkpt lat="47.09724" lon="-2.0523">
        <ele>29.7</ele>
        <time>2020-06-05T10:38:08Z</time>
      </trkpt>
      <trkpt lat="47.09723" lon="-2.05231">
        <ele>29.7</ele>
        <time>2020-06-05T10:38:09Z</time>
      </trkpt>
      <trkpt lat="47.0972" lon="-2.05233">
        <ele>29.7</ele>
        <time>2020-06-05T10:38:10Z</time>
      </trkpt>
      <trkpt lat="47.09719" lon="-2.05233">
        <ele>29.7</ele>
        <time>2020-06-05T10:38:11Z</time>
      </trkpt>
      <trkpt lat="47.09717" lon="-2.05236">
        <ele>29.7</ele>
        <time>2020-06-05T10:38:12Z</time>
      </trkpt>
      <trkpt lat="47.09716" lon="-2.05237">
        <ele>29.6</ele>
        <time>2020-06-05T10:38:13Z</time>
      </trkpt>
      <trkpt lat="47.09714" lon="-2.0524">
        <ele>29.6</ele>
        <time>2020-06-05T10:38:14Z</time>
      </trkpt>
      <trkpt lat="47.09713" lon="-2.05241">
        <ele>29.6</ele>
        <time>2020-06-05T10:38:15Z</time>
      </trkpt>
      <trkpt lat="47.0971" lon="-2.05243">
        <ele>29.5</ele>
        <time>2020-06-05T10:38:16Z</time>
      </trkpt>
      <trkpt lat="47.09707" lon="-2.05244">
        <ele>29.5</ele>
        <time>2020-06-05T10:38:17Z</time>
      </trkpt>
      <trkpt lat="47.09704" lon="-2.05247">
        <ele>29.4</ele>
        <time>2020-06-05T10:38:18Z</time>
      </trkpt>
      <trkpt lat="47.09702" lon="-2.0525">
        <ele>29.3</ele>
        <time>2020-06-05T10:38:19Z</time>
      </trkpt>
      <trkpt lat="47.097" lon="-2.05253">
        <ele>29.3</ele>
        <time>2020-06-05T10:38:20Z</time>
      </trkpt>
      <trkpt lat="47.09696" lon="-2.05256">
        <ele>29.2</ele>
        <time>2020-06-05T10:38:21Z</time>
      </trkpt>
      <trkpt lat="47.09693" lon="-2.05259">
        <ele>29.1</ele>
        <time>2020-06-05T10:38:22Z</time>
      </trkpt>
      <trkpt lat="47.09691" lon="-2.05262">
        <ele>29</ele>
        <time>2020-06-05T10:38:23Z</time>
      </trkpt>
      <trkpt lat="47.09689" lon="-2.05266">
        <ele>28.9</ele>
        <time>2020-06-05T10:38:24Z</time>
      </trkpt>
      <trkpt lat="47.09687" lon="-2.05269">
        <ele>28.8</ele>
        <time>2020-06-05T10:38:25Z</time>
      </trkpt>
      <trkpt lat="47.09684" lon="-2.05272">
        <ele>28.7</ele>
        <time>2020-06-05T10:38:26Z</time>
      </trkpt>
      <trkpt lat="47.0968" lon="-2.05276">
        <ele>28.6</ele>
        <time>2020-06-05T10:38:27Z</time>
      </trkpt>
      <trkpt lat="47.09678" lon="-2.05279">
        <ele>28.5</ele>
        <time>2020-06-05T10:38:28Z</time>
      </trkpt>
      <trkpt lat="47.09675" lon="-2.05282">
        <ele>28.4</ele>
        <time>2020-06-05T10:38:29Z</time>
      </trkpt>
      <trkpt lat="47.09673" lon="-2.05286">
        <ele>28.3</ele>
        <time>2020-06-05T10:38:30Z</time>
      </trkpt>
      <trkpt lat="47.0967" lon="-2.05289">
        <ele>28.2</ele>
        <time>2020-06-05T10:38:31Z</time>
      </trkpt>
      <trkpt lat="47.09666" lon="-2.05293">
        <ele>28.1</ele>
        <time>2020-06-05T10:38:32Z</time>
      </trkpt>
      <trkpt lat="47.09662" lon="-2.05296">
        <ele>28</ele>
        <time>2020-06-05T10:38:33Z</time>
      </trkpt>
      <trkpt lat="47.09658" lon="-2.053">
        <ele>27.9</ele>
        <time>2020-06-05T10:38:34Z</time>
      </trkpt>
      <trkpt lat="47.09654" lon="-2.05304">
        <ele>27.8</ele>
        <time>2020-06-05T10:38:35Z</time>
      </trkpt>
      <trkpt lat="47.09651" lon="-2.05308">
        <ele>27.7</ele>
        <time>2020-06-05T10:38:36Z</time>
      </trkpt>
      <trkpt lat="47.09647" lon="-2.05312">
        <ele>27.5</ele>
        <time>2020-06-05T10:38:37Z</time>
      </trkpt>
      <trkpt lat="47.09644" lon="-2.05316">
        <ele>27.4</ele>
        <time>2020-06-05T10:38:38Z</time>
      </trkpt>
      <trkpt lat="47.09641" lon="-2.05319">
        <ele>27.3</ele>
        <time>2020-06-05T10:38:39Z</time>
      </trkpt>
      <trkpt lat="47.09638" lon="-2.05321">
        <ele>27.2</ele>
        <time>2020-06-05T10:38:40Z</time>
      </trkpt>
      <trkpt lat="47.09635" lon="-2.05324">
        <ele>27.1</ele>
        <time>2020-06-05T10:38:41Z</time>
      </trkpt>
      <trkpt lat="47.09635" lon="-2.05324">
        <ele>27.1</ele>
        <time>2020-06-05T10:38:42Z</time>
      </trkpt>
      <trkpt lat="47.09635" lon="-2.0533">
        <ele>27</ele>
        <time>2020-06-05T10:38:43Z</time>
      </trkpt>
      <trkpt lat="47.09635" lon="-2.05332">
        <ele>27</ele>
        <time>2020-06-05T10:38:44Z</time>
      </trkpt>
      <trkpt lat="47.09636" lon="-2.05337">
        <ele>26.6</ele>
        <time>2020-06-05T10:38:45Z</time>
      </trkpt>
      <trkpt lat="47.09636" lon="-2.05339">
        <ele>26.6</ele>
        <time>2020-06-05T10:38:46Z</time>
      </trkpt>
      <trkpt lat="47.09636" lon="-2.05343">
        <ele>26.7</ele>
        <time>2020-06-05T10:38:47Z</time>
      </trkpt>
      <trkpt lat="47.09637" lon="-2.05345">
        <ele>26.8</ele>
        <time>2020-06-05T10:38:48Z</time>
      </trkpt>
      <trkpt lat="47.09637" lon="-2.05349">
        <ele>26.9</ele>
        <time>2020-06-05T10:38:49Z</time>
      </trkpt>
      <trkpt lat="47.09637" lon="-2.05353">
        <ele>27</ele>
        <time>2020-06-05T10:38:50Z</time>
      </trkpt>
      <trkpt lat="47.09638" lon="-2.05358">
        <ele>27.1</ele>
        <time>2020-06-05T10:38:51Z</time>
      </trkpt>
      <trkpt lat="47.09638" lon="-2.0536">
        <ele>27.2</ele>
        <time>2020-06-05T10:38:52Z</time>
      </trkpt>
      <trkpt lat="47.0964" lon="-2.05365">
        <ele>27.3</ele>
        <time>2020-06-05T10:38:53Z</time>
      </trkpt>
      <trkpt lat="47.09641" lon="-2.05367">
        <ele>27.4</ele>
        <time>2020-06-05T10:38:54Z</time>
      </trkpt>
      <trkpt lat="47.09642" lon="-2.05371">
        <ele>27.5</ele>
        <time>2020-06-05T10:38:55Z</time>
      </trkpt>
      <trkpt lat="47.09643" lon="-2.05375">
        <ele>27.6</ele>
        <time>2020-06-05T10:38:56Z</time>
      </trkpt>
      <trkpt lat="47.09645" lon="-2.05379">
        <ele>27.7</ele>
        <time>2020-06-05T10:38:57Z</time>
      </trkpt>
      <trkpt lat="47.09646" lon="-2.05385">
        <ele>27.9</ele>
        <time>2020-06-05T10:38:58Z</time>
      </trkpt>
      <trkpt lat="47.09648" lon="-2.0539">
        <ele>28.1</ele>
        <time>2020-06-05T10:38:59Z</time>
      </trkpt>
      <trkpt lat="47.0965" lon="-2.05395">
        <ele>28.2</ele>
        <time>2020-06-05T10:39:00Z</time>
      </trkpt>
      <trkpt lat="47.09651" lon="-2.05401">
        <ele>28.4</ele>
        <time>2020-06-05T10:39:01Z</time>
      </trkpt>
      <trkpt lat="47.09652" lon="-2.05406">
        <ele>28.5</ele>
        <time>2020-06-05T10:39:02Z</time>
      </trkpt>
      <trkpt lat="47.09653" lon="-2.05411">
        <ele>28.6</ele>
        <time>2020-06-05T10:39:03Z</time>
      </trkpt>
      <trkpt lat="47.09655" lon="-2.05415">
        <ele>28.8</ele>
        <time>2020-06-05T10:39:04Z</time>
      </trkpt>
      <trkpt lat="47.09656" lon="-2.0542">
        <ele>28.9</ele>
        <time>2020-06-05T10:39:05Z</time>
      </trkpt>
      <trkpt lat="47.09657" lon="-2.05424">
        <ele>29</ele>
        <time>2020-06-05T10:39:06Z</time>
      </trkpt>
      <trkpt lat="47.09658" lon="-2.05428">
        <ele>29</ele>
        <time>2020-06-05T10:39:07Z</time>
      </trkpt>
      <trkpt lat="47.09659" lon="-2.05432">
        <ele>29.1</ele>
        <time>2020-06-05T10:39:08Z</time>
      </trkpt>
      <trkpt lat="47.09658" lon="-2.05438">
        <ele>29.3</ele>
        <time>2020-06-05T10:39:09Z</time>
      </trkpt>
      <trkpt lat="47.09658" lon="-2.05444">
        <ele>29.4</ele>
        <time>2020-06-05T10:39:10Z</time>
      </trkpt>
      <trkpt lat="47.09658" lon="-2.0545">
        <ele>29.5</ele>
        <time>2020-06-05T10:39:11Z</time>
      </trkpt>
      <trkpt lat="47.09656" lon="-2.05458">
        <ele>29.7</ele>
        <time>2020-06-05T10:39:12Z</time>
      </trkpt>
      <trkpt lat="47.09656" lon="-2.05464">
        <ele>29.8</ele>
        <time>2020-06-05T10:39:13Z</time>
      </trkpt>
      <trkpt lat="47.09656" lon="-2.05468">
        <ele>29.9</ele>
        <time>2020-06-05T10:39:14Z</time>
      </trkpt>
      <trkpt lat="47.09657" lon="-2.05472">
        <ele>30</ele>
        <time>2020-06-05T10:39:15Z</time>
      </trkpt>
      <trkpt lat="47.09658" lon="-2.05478">
        <ele>30.1</ele>
        <time>2020-06-05T10:39:16Z</time>
      </trkpt>
      <trkpt lat="47.09659" lon="-2.0548">
        <ele>30.1</ele>
        <time>2020-06-05T10:39:17Z</time>
      </trkpt>
      <trkpt lat="47.09659" lon="-2.05484">
        <ele>30.2</ele>
        <time>2020-06-05T10:39:18Z</time>
      </trkpt>
      <trkpt lat="47.0966" lon="-2.0549">
        <ele>30.3</ele>
        <time>2020-06-05T10:39:19Z</time>
      </trkpt>
      <trkpt lat="47.09661" lon="-2.05492">
        <ele>30.4</ele>
        <time>2020-06-05T10:39:20Z</time>
      </trkpt>
      <trkpt lat="47.09662" lon="-2.05496">
        <ele>30.4</ele>
        <time>2020-06-05T10:39:21Z</time>
      </trkpt>
      <trkpt lat="47.09663" lon="-2.05501">
        <ele>30.5</ele>
        <time>2020-06-05T10:39:22Z</time>
      </trkpt>
      <trkpt lat="47.09663" lon="-2.05503">
        <ele>30.5</ele>
        <time>2020-06-05T10:39:23Z</time>
      </trkpt>
      <trkpt lat="47.09664" lon="-2.05507">
        <ele>30.6</ele>
        <time>2020-06-05T10:39:24Z</time>
      </trkpt>
      <trkpt lat="47.09665" lon="-2.05513">
        <ele>30.7</ele>
        <time>2020-06-05T10:39:25Z</time>
      </trkpt>
      <trkpt lat="47.09665" lon="-2.05515">
        <ele>30.7</ele>
        <time>2020-06-05T10:39:26Z</time>
      </trkpt>
      <trkpt lat="47.09666" lon="-2.05519">
        <ele>30.8</ele>
        <time>2020-06-05T10:39:27Z</time>
      </trkpt>
      <trkpt lat="47.09668" lon="-2.05522">
        <ele>30.9</ele>
        <time>2020-06-05T10:39:28Z</time>
      </trkpt>
      <trkpt lat="47.09669" lon="-2.05527">
        <ele>30.9</ele>
        <time>2020-06-05T10:39:29Z</time>
      </trkpt>
      <trkpt lat="47.0967" lon="-2.05529">
        <ele>31</ele>
        <time>2020-06-05T10:39:30Z</time>
      </trkpt>
      <trkpt lat="47.09671" lon="-2.05533">
        <ele>31</ele>
        <time>2020-06-05T10:39:31Z</time>
      </trkpt>
      <trkpt lat="47.09672" lon="-2.05537">
        <ele>31.1</ele>
        <time>2020-06-05T10:39:32Z</time>
      </trkpt>
      <trkpt lat="47.09673" lon="-2.0554">
        <ele>31.2</ele>
        <time>2020-06-05T10:39:33Z</time>
      </trkpt>
      <trkpt lat="47.09675" lon="-2.05545">
        <ele>31.3</ele>
        <time>2020-06-05T10:39:34Z</time>
      </trkpt>
      <trkpt lat="47.09676" lon="-2.05547">
        <ele>31.3</ele>
        <time>2020-06-05T10:39:35Z</time>
      </trkpt>
      <trkpt lat="47.09677" lon="-2.05552">
        <ele>31.4</ele>
        <time>2020-06-05T10:39:36Z</time>
      </trkpt>
      <trkpt lat="47.09677" lon="-2.05553">
        <ele>31.4</ele>
        <time>2020-06-05T10:39:37Z</time>
      </trkpt>
      <trkpt lat="47.09679" lon="-2.05558">
        <ele>31.4</ele>
        <time>2020-06-05T10:39:38Z</time>
      </trkpt>
      <trkpt lat="47.09679" lon="-2.0556">
        <ele>31.5</ele>
        <time>2020-06-05T10:39:39Z</time>
      </trkpt>
      <trkpt lat="47.0968" lon="-2.05564">
        <ele>31.5</ele>
        <time>2020-06-05T10:39:40Z</time>
      </trkpt>
      <trkpt lat="47.09681" lon="-2.05568">
        <ele>31.6</ele>
        <time>2020-06-05T10:39:41Z</time>
      </trkpt>
      <trkpt lat="47.09681" lon="-2.0557">
        <ele>31.6</ele>
        <time>2020-06-05T10:39:42Z</time>
      </trkpt>
      <trkpt lat="47.09684" lon="-2.05574">
        <ele>31.6</ele>
        <time>2020-06-05T10:39:43Z</time>
      </trkpt>
      <trkpt lat="47.09684" lon="-2.05575">
        <ele>31.7</ele>
        <time>2020-06-05T10:39:44Z</time>
      </trkpt>
      <trkpt lat="47.09686" lon="-2.05578">
        <ele>31.7</ele>
        <time>2020-06-05T10:39:45Z</time>
      </trkpt>
      <trkpt lat="47.09687" lon="-2.0558">
        <ele>31.7</ele>
        <time>2020-06-05T10:39:46Z</time>
      </trkpt>
      <trkpt lat="47.09689" lon="-2.05584">
        <ele>31.8</ele>
        <time>2020-06-05T10:39:47Z</time>
      </trkpt>
      <trkpt lat="47.09689" lon="-2.05585">
        <ele>31.8</ele>
        <time>2020-06-05T10:39:48Z</time>
      </trkpt>
      <trkpt lat="47.09691" lon="-2.05589">
        <ele>31.9</ele>
        <time>2020-06-05T10:39:49Z</time>
      </trkpt>
      <trkpt lat="47.09692" lon="-2.0559">
        <ele>31.9</ele>
        <time>2020-06-05T10:39:50Z</time>
      </trkpt>
      <trkpt lat="47.09694" lon="-2.05594">
        <ele>32</ele>
        <time>2020-06-05T10:39:51Z</time>
      </trkpt>
      <trkpt lat="47.09694" lon="-2.05595">
        <ele>32</ele>
        <time>2020-06-05T10:39:52Z</time>
      </trkpt>
      <trkpt lat="47.09696" lon="-2.056">
        <ele>32.1</ele>
        <time>2020-06-05T10:39:53Z</time>
      </trkpt>
      <trkpt lat="47.09696" lon="-2.05601">
        <ele>32.1</ele>
        <time>2020-06-05T10:39:54Z</time>
      </trkpt>
      <trkpt lat="47.09698" lon="-2.05607">
        <ele>32.2</ele>
        <time>2020-06-05T10:39:55Z</time>
      </trkpt>
      <trkpt lat="47.09699" lon="-2.05609">
        <ele>32.2</ele>
        <time>2020-06-05T10:39:56Z</time>
      </trkpt>
      <trkpt lat="47.097" lon="-2.05613">
        <ele>32.2</ele>
        <time>2020-06-05T10:39:57Z</time>
      </trkpt>
      <trkpt lat="47.09702" lon="-2.05618">
        <ele>32.3</ele>
        <time>2020-06-05T10:39:58Z</time>
      </trkpt>
      <trkpt lat="47.09703" lon="-2.0562">
        <ele>32.3</ele>
        <time>2020-06-05T10:39:59Z</time>
      </trkpt>
      <trkpt lat="47.09705" lon="-2.05625">
        <ele>32.4</ele>
        <time>2020-06-05T10:40:00Z</time>
      </trkpt>
      <trkpt lat="47.09707" lon="-2.0563">
        <ele>32.4</ele>
        <time>2020-06-05T10:40:01Z</time>
      </trkpt>
      <trkpt lat="47.09708" lon="-2.05635">
        <ele>32.5</ele>
        <time>2020-06-05T10:40:02Z</time>
      </trkpt>
      <trkpt lat="47.0971" lon="-2.0564">
        <ele>32.6</ele>
        <time>2020-06-05T10:40:03Z</time>
      </trkpt>
      <trkpt lat="47.09712" lon="-2.05645">
        <ele>32.8</ele>
        <time>2020-06-05T10:40:04Z</time>
      </trkpt>
      <trkpt lat="47.09714" lon="-2.0565">
        <ele>33</ele>
        <time>2020-06-05T10:40:05Z</time>
      </trkpt>
      <trkpt lat="47.09716" lon="-2.05655">
        <ele>33.2</ele>
        <time>2020-06-05T10:40:06Z</time>
      </trkpt>
      <trkpt lat="47.09718" lon="-2.05659">
        <ele>33.3</ele>
        <time>2020-06-05T10:40:07Z</time>
      </trkpt>
      <trkpt lat="47.09719" lon="-2.05663">
        <ele>33.4</ele>
        <time>2020-06-05T10:40:08Z</time>
      </trkpt>
      <trkpt lat="47.09723" lon="-2.05668">
        <ele>33.7</ele>
        <time>2020-06-05T10:40:09Z</time>
      </trkpt>
      <trkpt lat="47.09726" lon="-2.05673">
        <ele>33.9</ele>
        <time>2020-06-05T10:40:10Z</time>
      </trkpt>
      <trkpt lat="47.09729" lon="-2.05677">
        <ele>34</ele>
        <time>2020-06-05T10:40:11Z</time>
      </trkpt>
      <trkpt lat="47.09732" lon="-2.05681">
        <ele>34.2</ele>
        <time>2020-06-05T10:40:12Z</time>
      </trkpt>
      <trkpt lat="47.09735" lon="-2.05685">
        <ele>34.3</ele>
        <time>2020-06-05T10:40:13Z</time>
      </trkpt>
      <trkpt lat="47.09737" lon="-2.0569">
        <ele>34.5</ele>
        <time>2020-06-05T10:40:14Z</time>
      </trkpt>
      <trkpt lat="47.09741" lon="-2.05695">
        <ele>34.6</ele>
        <time>2020-06-05T10:40:15Z</time>
      </trkpt>
      <trkpt lat="47.09744" lon="-2.05702">
        <ele>34.8</ele>
        <time>2020-06-05T10:40:16Z</time>
      </trkpt>
      <trkpt lat="47.09747" lon="-2.05707">
        <ele>34.9</ele>
        <time>2020-06-05T10:40:17Z</time>
      </trkpt>
      <trkpt lat="47.09749" lon="-2.05712">
        <ele>35</ele>
        <time>2020-06-05T10:40:18Z</time>
      </trkpt>
      <trkpt lat="47.09752" lon="-2.05716">
        <ele>35.1</ele>
        <time>2020-06-05T10:40:19Z</time>
      </trkpt>
      <trkpt lat="47.09754" lon="-2.05721">
        <ele>35.2</ele>
        <time>2020-06-05T10:40:20Z</time>
      </trkpt>
      <trkpt lat="47.09759" lon="-2.05727">
        <ele>35.3</ele>
        <time>2020-06-05T10:40:21Z</time>
      </trkpt>
      <trkpt lat="47.09764" lon="-2.05732">
        <ele>35.3</ele>
        <time>2020-06-05T10:40:22Z</time>
      </trkpt>
      <trkpt lat="47.09767" lon="-2.05737">
        <ele>35.4</ele>
        <time>2020-06-05T10:40:23Z</time>
      </trkpt>
      <trkpt lat="47.09768" lon="-2.05742">
        <ele>35.4</ele>
        <time>2020-06-05T10:40:24Z</time>
      </trkpt>
      <trkpt lat="47.09771" lon="-2.05747">
        <ele>35.4</ele>
        <time>2020-06-05T10:40:25Z</time>
      </trkpt>
      <trkpt lat="47.09773" lon="-2.05752">
        <ele>35.5</ele>
        <time>2020-06-05T10:40:26Z</time>
      </trkpt>
      <trkpt lat="47.09776" lon="-2.05757">
        <ele>35.5</ele>
        <time>2020-06-05T10:40:27Z</time>
      </trkpt>
      <trkpt lat="47.09781" lon="-2.05761">
        <ele>35.6</ele>
        <time>2020-06-05T10:40:28Z</time>
      </trkpt>
      <trkpt lat="47.09781" lon="-2.05766">
        <ele>35.6</ele>
        <time>2020-06-05T10:40:29Z</time>
      </trkpt>
      <trkpt lat="47.09783" lon="-2.05772">
        <ele>35.6</ele>
        <time>2020-06-05T10:40:30Z</time>
      </trkpt>
      <trkpt lat="47.09785" lon="-2.05777">
        <ele>35.7</ele>
        <time>2020-06-05T10:40:31Z</time>
      </trkpt>
      <trkpt lat="47.09788" lon="-2.05783">
        <ele>35.7</ele>
        <time>2020-06-05T10:40:32Z</time>
      </trkpt>
      <trkpt lat="47.09794" lon="-2.05788">
        <ele>35.7</ele>
        <time>2020-06-05T10:40:33Z</time>
      </trkpt>
      <trkpt lat="47.09797" lon="-2.05791">
        <ele>35.7</ele>
        <time>2020-06-05T10:40:34Z</time>
      </trkpt>
      <trkpt lat="47.098" lon="-2.05796">
        <ele>35.7</ele>
        <time>2020-06-05T10:40:35Z</time>
      </trkpt>
      <trkpt lat="47.09802" lon="-2.05801">
        <ele>35.7</ele>
        <time>2020-06-05T10:40:36Z</time>
      </trkpt>
      <trkpt lat="47.09804" lon="-2.05806">
        <ele>35.7</ele>
        <time>2020-06-05T10:40:37Z</time>
      </trkpt>
      <trkpt lat="47.09806" lon="-2.05811">
        <ele>35.7</ele>
        <time>2020-06-05T10:40:38Z</time>
      </trkpt>
      <trkpt lat="47.09807" lon="-2.05817">
        <ele>35.6</ele>
        <time>2020-06-05T10:40:39Z</time>
      </trkpt>
      <trkpt lat="47.09809" lon="-2.05822">
        <ele>35.6</ele>
        <time>2020-06-05T10:40:40Z</time>
      </trkpt>
      <trkpt lat="47.0981" lon="-2.05828">
        <ele>35.6</ele>
        <time>2020-06-05T10:40:41Z</time>
      </trkpt>
      <trkpt lat="47.09812" lon="-2.05832">
        <ele>35.5</ele>
        <time>2020-06-05T10:40:42Z</time>
      </trkpt>
      <trkpt lat="47.09814" lon="-2.05837">
        <ele>35.5</ele>
        <time>2020-06-05T10:40:43Z</time>
      </trkpt>
      <trkpt lat="47.09815" lon="-2.0584">
        <ele>35.4</ele>
        <time>2020-06-05T10:40:44Z</time>
      </trkpt>
      <trkpt lat="47.09817" lon="-2.05844">
        <ele>35.4</ele>
        <time>2020-06-05T10:40:45Z</time>
      </trkpt>
      <trkpt lat="47.09818" lon="-2.05848">
        <ele>35.4</ele>
        <time>2020-06-05T10:40:46Z</time>
      </trkpt>
      <trkpt lat="47.09819" lon="-2.05851">
        <ele>35.3</ele>
        <time>2020-06-05T10:40:47Z</time>
      </trkpt>
      <trkpt lat="47.09821" lon="-2.05855">
        <ele>35.3</ele>
        <time>2020-06-05T10:40:48Z</time>
      </trkpt>
      <trkpt lat="47.09822" lon="-2.05859">
        <ele>35.2</ele>
        <time>2020-06-05T10:40:49Z</time>
      </trkpt>
      <trkpt lat="47.09823" lon="-2.05862">
        <ele>35.2</ele>
        <time>2020-06-05T10:40:50Z</time>
      </trkpt>
      <trkpt lat="47.09825" lon="-2.05866">
        <ele>35.2</ele>
        <time>2020-06-05T10:40:51Z</time>
      </trkpt>
      <trkpt lat="47.09826" lon="-2.0587">
        <ele>35.1</ele>
        <time>2020-06-05T10:40:52Z</time>
      </trkpt>
      <trkpt lat="47.09827" lon="-2.05874">
        <ele>35.1</ele>
        <time>2020-06-05T10:40:53Z</time>
      </trkpt>
      <trkpt lat="47.0983" lon="-2.05878">
        <ele>35.1</ele>
        <time>2020-06-05T10:40:54Z</time>
      </trkpt>
      <trkpt lat="47.09831" lon="-2.05882">
        <ele>35</ele>
        <time>2020-06-05T10:40:55Z</time>
      </trkpt>
      <trkpt lat="47.09833" lon="-2.05886">
        <ele>35</ele>
        <time>2020-06-05T10:40:56Z</time>
      </trkpt>
      <trkpt lat="47.09836" lon="-2.05891">
        <ele>34.9</ele>
        <time>2020-06-05T10:40:57Z</time>
      </trkpt>
      <trkpt lat="47.09839" lon="-2.05895">
        <ele>34.9</ele>
        <time>2020-06-05T10:40:58Z</time>
      </trkpt>
      <trkpt lat="47.09841" lon="-2.05899">
        <ele>34.8</ele>
        <time>2020-06-05T10:40:59Z</time>
      </trkpt>
      <trkpt lat="47.09843" lon="-2.05903">
        <ele>34.7</ele>
        <time>2020-06-05T10:41:00Z</time>
      </trkpt>
      <trkpt lat="47.09846" lon="-2.05906">
        <ele>34.7</ele>
        <time>2020-06-05T10:41:01Z</time>
      </trkpt>
      <trkpt lat="47.09848" lon="-2.05911">
        <ele>34.6</ele>
        <time>2020-06-05T10:41:02Z</time>
      </trkpt>
      <trkpt lat="47.09851" lon="-2.05915">
        <ele>34.6</ele>
        <time>2020-06-05T10:41:03Z</time>
      </trkpt>
      <trkpt lat="47.09853" lon="-2.0592">
        <ele>34.5</ele>
        <time>2020-06-05T10:41:04Z</time>
      </trkpt>
      <trkpt lat="47.09856" lon="-2.05924">
        <ele>34.4</ele>
        <time>2020-06-05T10:41:05Z</time>
      </trkpt>
      <trkpt lat="47.09859" lon="-2.05928">
        <ele>34.4</ele>
        <time>2020-06-05T10:41:06Z</time>
      </trkpt>
      <trkpt lat="47.09862" lon="-2.05932">
        <ele>34.4</ele>
        <time>2020-06-05T10:41:07Z</time>
      </trkpt>
      <trkpt lat="47.09865" lon="-2.05936">
        <ele>34.3</ele>
        <time>2020-06-05T10:41:08Z</time>
      </trkpt>
      <trkpt lat="47.09867" lon="-2.05939">
        <ele>34.3</ele>
        <time>2020-06-05T10:41:09Z</time>
      </trkpt>
      <trkpt lat="47.0987" lon="-2.05943">
        <ele>34.3</ele>
        <time>2020-06-05T10:41:10Z</time>
      </trkpt>
      <trkpt lat="47.09873" lon="-2.05947">
        <ele>34.3</ele>
        <time>2020-06-05T10:41:11Z</time>
      </trkpt>
      <trkpt lat="47.09876" lon="-2.0595">
        <ele>34.3</ele>
        <time>2020-06-05T10:41:12Z</time>
      </trkpt>
      <trkpt lat="47.09878" lon="-2.05955">
        <ele>34.2</ele>
        <time>2020-06-05T10:41:13Z</time>
      </trkpt>
      <trkpt lat="47.09881" lon="-2.05958">
        <ele>34.3</ele>
        <time>2020-06-05T10:41:14Z</time>
      </trkpt>
      <trkpt lat="47.09885" lon="-2.05962">
        <ele>34.3</ele>
        <time>2020-06-05T10:41:15Z</time>
      </trkpt>
      <trkpt lat="47.09888" lon="-2.05965">
        <ele>34.3</ele>
        <time>2020-06-05T10:41:16Z</time>
      </trkpt>
      <trkpt lat="47.09891" lon="-2.05969">
        <ele>34.3</ele>
        <time>2020-06-05T10:41:17Z</time>
      </trkpt>
      <trkpt lat="47.09895" lon="-2.05974">
        <ele>34.4</ele>
        <time>2020-06-05T10:41:18Z</time>
      </trkpt>
      <trkpt lat="47.09898" lon="-2.05979">
        <ele>34.4</ele>
        <time>2020-06-05T10:41:19Z</time>
      </trkpt>
      <trkpt lat="47.09901" lon="-2.05983">
        <ele>34.4</ele>
        <time>2020-06-05T10:41:20Z</time>
      </trkpt>
      <trkpt lat="47.09904" lon="-2.05987">
        <ele>34.5</ele>
        <time>2020-06-05T10:41:21Z</time>
      </trkpt>
      <trkpt lat="47.09907" lon="-2.05991">
        <ele>34.5</ele>
        <time>2020-06-05T10:41:22Z</time>
      </trkpt>
      <trkpt lat="47.0991" lon="-2.05995">
        <ele>34.6</ele>
        <time>2020-06-05T10:41:23Z</time>
      </trkpt>
      <trkpt lat="47.09913" lon="-2.06">
        <ele>34.7</ele>
        <time>2020-06-05T10:41:24Z</time>
      </trkpt>
      <trkpt lat="47.09916" lon="-2.06005">
        <ele>34.8</ele>
        <time>2020-06-05T10:41:25Z</time>
      </trkpt>
      <trkpt lat="47.09919" lon="-2.06009">
        <ele>34.8</ele>
        <time>2020-06-05T10:41:26Z</time>
      </trkpt>
      <trkpt lat="47.09923" lon="-2.06013">
        <ele>34.9</ele>
        <time>2020-06-05T10:41:27Z</time>
      </trkpt>
      <trkpt lat="47.09926" lon="-2.06017">
        <ele>35</ele>
        <time>2020-06-05T10:41:28Z</time>
      </trkpt>
      <trkpt lat="47.09929" lon="-2.0602">
        <ele>35</ele>
        <time>2020-06-05T10:41:29Z</time>
      </trkpt>
      <trkpt lat="47.09933" lon="-2.06023">
        <ele>35.1</ele>
        <time>2020-06-05T10:41:30Z</time>
      </trkpt>
      <trkpt lat="47.09936" lon="-2.06026">
        <ele>35.2</ele>
        <time>2020-06-05T10:41:31Z</time>
      </trkpt>
      <trkpt lat="47.0994" lon="-2.06029">
        <ele>35.3</ele>
        <time>2020-06-05T10:41:32Z</time>
      </trkpt>
      <trkpt lat="47.09943" lon="-2.06032">
        <ele>35.4</ele>
        <time>2020-06-05T10:41:33Z</time>
      </trkpt>
      <trkpt lat="47.09946" lon="-2.06035">
        <ele>35.5</ele>
        <time>2020-06-05T10:41:34Z</time>
      </trkpt>
      <trkpt lat="47.0995" lon="-2.06038">
        <ele>35.5</ele>
        <time>2020-06-05T10:41:35Z</time>
      </trkpt>
      <trkpt lat="47.09953" lon="-2.06042">
        <ele>35.6</ele>
        <time>2020-06-05T10:41:36Z</time>
      </trkpt>
      <trkpt lat="47.09956" lon="-2.06045">
        <ele>35.7</ele>
        <time>2020-06-05T10:41:37Z</time>
      </trkpt>
      <trkpt lat="47.09959" lon="-2.06047">
        <ele>35.8</ele>
        <time>2020-06-05T10:41:38Z</time>
      </trkpt>
      <trkpt lat="47.09962" lon="-2.0605">
        <ele>35.9</ele>
        <time>2020-06-05T10:41:39Z</time>
      </trkpt>
      <trkpt lat="47.09965" lon="-2.06052">
        <ele>35.9</ele>
        <time>2020-06-05T10:41:40Z</time>
      </trkpt>
      <trkpt lat="47.09968" lon="-2.06054">
        <ele>36</ele>
        <time>2020-06-05T10:41:41Z</time>
      </trkpt>
      <trkpt lat="47.09971" lon="-2.06057">
        <ele>36.1</ele>
        <time>2020-06-05T10:41:42Z</time>
      </trkpt>
      <trkpt lat="47.09975" lon="-2.0606">
        <ele>36.2</ele>
        <time>2020-06-05T10:41:43Z</time>
      </trkpt>
      <trkpt lat="47.09978" lon="-2.06064">
        <ele>36.3</ele>
        <time>2020-06-05T10:41:44Z</time>
      </trkpt>
      <trkpt lat="47.09982" lon="-2.06068">
        <ele>36.4</ele>
        <time>2020-06-05T10:41:45Z</time>
      </trkpt>
      <trkpt lat="47.09986" lon="-2.06071">
        <ele>36.5</ele>
        <time>2020-06-05T10:41:46Z</time>
      </trkpt>
      <trkpt lat="47.09991" lon="-2.06074">
        <ele>36.7</ele>
        <time>2020-06-05T10:41:47Z</time>
      </trkpt>
      <trkpt lat="47.09995" lon="-2.06076">
        <ele>36.8</ele>
        <time>2020-06-05T10:41:48Z</time>
      </trkpt>
      <trkpt lat="47.1" lon="-2.06078">
        <ele>37</ele>
        <time>2020-06-05T10:41:49Z</time>
      </trkpt>
      <trkpt lat="47.10005" lon="-2.06079">
        <ele>37.1</ele>
        <time>2020-06-05T10:41:50Z</time>
      </trkpt>
      <trkpt lat="47.10009" lon="-2.0608">
        <ele>37.2</ele>
        <time>2020-06-05T10:41:51Z</time>
      </trkpt>
      <trkpt lat="47.10014" lon="-2.0608">
        <ele>37.3</ele>
        <time>2020-06-05T10:41:52Z</time>
      </trkpt>
      <trkpt lat="47.10018" lon="-2.06081">
        <ele>37.4</ele>
        <time>2020-06-05T10:41:53Z</time>
      </trkpt>
      <trkpt lat="47.10023" lon="-2.06081">
        <ele>37.5</ele>
        <time>2020-06-05T10:41:54Z</time>
      </trkpt>
      <trkpt lat="47.10027" lon="-2.06081">
        <ele>37.6</ele>
        <time>2020-06-05T10:41:55Z</time>
      </trkpt>
      <trkpt lat="47.10032" lon="-2.0608">
        <ele>37.7</ele>
        <time>2020-06-05T10:41:56Z</time>
      </trkpt>
      <trkpt lat="47.10036" lon="-2.06079">
        <ele>37.8</ele>
        <time>2020-06-05T10:41:57Z</time>
      </trkpt>
      <trkpt lat="47.1004" lon="-2.06078">
        <ele>37.9</ele>
        <time>2020-06-05T10:41:58Z</time>
      </trkpt>
      <trkpt lat="47.10044" lon="-2.06078">
        <ele>37.9</ele>
        <time>2020-06-05T10:41:59Z</time>
      </trkpt>
      <trkpt lat="47.10048" lon="-2.06076">
        <ele>38</ele>
        <time>2020-06-05T10:42:00Z</time>
      </trkpt>
      <trkpt lat="47.10052" lon="-2.06074">
        <ele>38</ele>
        <time>2020-06-05T10:42:01Z</time>
      </trkpt>
      <trkpt lat="47.10056" lon="-2.06072">
        <ele>38.1</ele>
        <time>2020-06-05T10:42:02Z</time>
      </trkpt>
      <trkpt lat="47.1006" lon="-2.0607">
        <ele>38.1</ele>
        <time>2020-06-05T10:42:03Z</time>
      </trkpt>
      <trkpt lat="47.10065" lon="-2.0607">
        <ele>38.1</ele>
        <time>2020-06-05T10:42:04Z</time>
      </trkpt>
      <trkpt lat="47.10069" lon="-2.06071">
        <ele>38.1</ele>
        <time>2020-06-05T10:42:05Z</time>
      </trkpt>
      <trkpt lat="47.10072" lon="-2.06073">
        <ele>38.1</ele>
        <time>2020-06-05T10:42:06Z</time>
      </trkpt>
      <trkpt lat="47.10075" lon="-2.06076">
        <ele>38.1</ele>
        <time>2020-06-05T10:42:07Z</time>
      </trkpt>
      <trkpt lat="47.10077" lon="-2.06081">
        <ele>38.1</ele>
        <time>2020-06-05T10:42:08Z</time>
      </trkpt>
      <trkpt lat="47.10079" lon="-2.06086">
        <ele>38.1</ele>
        <time>2020-06-05T10:42:09Z</time>
      </trkpt>
      <trkpt lat="47.10081" lon="-2.06091">
        <ele>38.1</ele>
        <time>2020-06-05T10:42:10Z</time>
      </trkpt>
      <trkpt lat="47.10084" lon="-2.06096">
        <ele>38.1</ele>
        <time>2020-06-05T10:42:11Z</time>
      </trkpt>
      <trkpt lat="47.10085" lon="-2.06102">
        <ele>38.1</ele>
        <time>2020-06-05T10:42:12Z</time>
      </trkpt>
      <trkpt lat="47.10087" lon="-2.06108">
        <ele>38.1</ele>
        <time>2020-06-05T10:42:13Z</time>
      </trkpt>
      <trkpt lat="47.10089" lon="-2.06114">
        <ele>38.1</ele>
        <time>2020-06-05T10:42:14Z</time>
      </trkpt>
      <trkpt lat="47.10091" lon="-2.06119">
        <ele>38</ele>
        <time>2020-06-05T10:42:15Z</time>
      </trkpt>
      <trkpt lat="47.10093" lon="-2.06124">
        <ele>38</ele>
        <time>2020-06-05T10:42:16Z</time>
      </trkpt>
      <trkpt lat="47.10095" lon="-2.0613">
        <ele>38</ele>
        <time>2020-06-05T10:42:17Z</time>
      </trkpt>
      <trkpt lat="47.10098" lon="-2.06136">
        <ele>38</ele>
        <time>2020-06-05T10:42:18Z</time>
      </trkpt>
      <trkpt lat="47.10101" lon="-2.06142">
        <ele>38</ele>
        <time>2020-06-05T10:42:19Z</time>
      </trkpt>
      <trkpt lat="47.10103" lon="-2.06148">
        <ele>38</ele>
        <time>2020-06-05T10:42:20Z</time>
      </trkpt>
      <trkpt lat="47.10106" lon="-2.06154">
        <ele>37.9</ele>
        <time>2020-06-05T10:42:21Z</time>
      </trkpt>
      <trkpt lat="47.10108" lon="-2.06161">
        <ele>37.9</ele>
        <time>2020-06-05T10:42:22Z</time>
      </trkpt>
      <trkpt lat="47.10111" lon="-2.06168">
        <ele>37.8</ele>
        <time>2020-06-05T10:42:23Z</time>
      </trkpt>
      <trkpt lat="47.10113" lon="-2.06175">
        <ele>37.8</ele>
        <time>2020-06-05T10:42:24Z</time>
      </trkpt>
      <trkpt lat="47.10114" lon="-2.06181">
        <ele>37.7</ele>
        <time>2020-06-05T10:42:25Z</time>
      </trkpt>
      <trkpt lat="47.10116" lon="-2.06188">
        <ele>37.7</ele>
        <time>2020-06-05T10:42:26Z</time>
      </trkpt>
      <trkpt lat="47.10117" lon="-2.06195">
        <ele>37.7</ele>
        <time>2020-06-05T10:42:27Z</time>
      </trkpt>
      <trkpt lat="47.10119" lon="-2.06202">
        <ele>37.6</ele>
        <time>2020-06-05T10:42:28Z</time>
      </trkpt>
      <trkpt lat="47.10122" lon="-2.06208">
        <ele>37.6</ele>
        <time>2020-06-05T10:42:29Z</time>
      </trkpt>
      <trkpt lat="47.10124" lon="-2.06215">
        <ele>37.6</ele>
        <time>2020-06-05T10:42:30Z</time>
      </trkpt>
      <trkpt lat="47.10126" lon="-2.06222">
        <ele>37.5</ele>
        <time>2020-06-05T10:42:31Z</time>
      </trkpt>
      <trkpt lat="47.10127" lon="-2.06228">
        <ele>37.5</ele>
        <time>2020-06-05T10:42:32Z</time>
      </trkpt>
      <trkpt lat="47.10129" lon="-2.06234">
        <ele>37.5</ele>
        <time>2020-06-05T10:42:33Z</time>
      </trkpt>
      <trkpt lat="47.10132" lon="-2.0624">
        <ele>37.5</ele>
        <time>2020-06-05T10:42:34Z</time>
      </trkpt>
      <trkpt lat="47.10133" lon="-2.06247">
        <ele>37.4</ele>
        <time>2020-06-05T10:42:35Z</time>
      </trkpt>
      <trkpt lat="47.10136" lon="-2.06252">
        <ele>37.4</ele>
        <time>2020-06-05T10:42:36Z</time>
      </trkpt>
      <trkpt lat="47.1014" lon="-2.06257">
        <ele>37.4</ele>
        <time>2020-06-05T10:42:37Z</time>
      </trkpt>
      <trkpt lat="47.10143" lon="-2.06262">
        <ele>37.4</ele>
        <time>2020-06-05T10:42:38Z</time>
      </trkpt>
      <trkpt lat="47.10147" lon="-2.06266">
        <ele>37.4</ele>
        <time>2020-06-05T10:42:39Z</time>
      </trkpt>
      <trkpt lat="47.10151" lon="-2.0627">
        <ele>37.3</ele>
        <time>2020-06-05T10:42:40Z</time>
      </trkpt>
      <trkpt lat="47.10155" lon="-2.06275">
        <ele>37.3</ele>
        <time>2020-06-05T10:42:41Z</time>
      </trkpt>
      <trkpt lat="47.1016" lon="-2.06279">
        <ele>37.3</ele>
        <time>2020-06-05T10:42:42Z</time>
      </trkpt>
      <trkpt lat="47.10165" lon="-2.06283">
        <ele>37.3</ele>
        <time>2020-06-05T10:42:43Z</time>
      </trkpt>
      <trkpt lat="47.10171" lon="-2.06288">
        <ele>37.2</ele>
        <time>2020-06-05T10:42:44Z</time>
      </trkpt>
      <trkpt lat="47.10175" lon="-2.06291">
        <ele>37.2</ele>
        <time>2020-06-05T10:42:45Z</time>
      </trkpt>
      <trkpt lat="47.1018" lon="-2.06294">
        <ele>37.2</ele>
        <time>2020-06-05T10:42:46Z</time>
      </trkpt>
      <trkpt lat="47.10185" lon="-2.06297">
        <ele>37.2</ele>
        <time>2020-06-05T10:42:47Z</time>
      </trkpt>
      <trkpt lat="47.1019" lon="-2.06302">
        <ele>37.2</ele>
        <time>2020-06-05T10:42:48Z</time>
      </trkpt>
      <trkpt lat="47.10195" lon="-2.06305">
        <ele>37.2</ele>
        <time>2020-06-05T10:42:49Z</time>
      </trkpt>
      <trkpt lat="47.10199" lon="-2.06309">
        <ele>37.2</ele>
        <time>2020-06-05T10:42:50Z</time>
      </trkpt>
      <trkpt lat="47.10203" lon="-2.06314">
        <ele>37.2</ele>
        <time>2020-06-05T10:42:51Z</time>
      </trkpt>
      <trkpt lat="47.10207" lon="-2.06317">
        <ele>37.2</ele>
        <time>2020-06-05T10:42:52Z</time>
      </trkpt>
      <trkpt lat="47.10212" lon="-2.06321">
        <ele>37.2</ele>
        <time>2020-06-05T10:42:53Z</time>
      </trkpt>
      <trkpt lat="47.10216" lon="-2.06325">
        <ele>37.1</ele>
        <time>2020-06-05T10:42:54Z</time>
      </trkpt>
      <trkpt lat="47.1022" lon="-2.06328">
        <ele>37.1</ele>
        <time>2020-06-05T10:42:55Z</time>
      </trkpt>
      <trkpt lat="47.10224" lon="-2.06333">
        <ele>37.1</ele>
        <time>2020-06-05T10:42:56Z</time>
      </trkpt>
      <trkpt lat="47.10227" lon="-2.06338">
        <ele>37.1</ele>
        <time>2020-06-05T10:42:57Z</time>
      </trkpt>
      <trkpt lat="47.10231" lon="-2.06343">
        <ele>37.1</ele>
        <time>2020-06-05T10:42:58Z</time>
      </trkpt>
      <trkpt lat="47.10234" lon="-2.06348">
        <ele>37</ele>
        <time>2020-06-05T10:42:59Z</time>
      </trkpt>
      <trkpt lat="47.10237" lon="-2.06352">
        <ele>37</ele>
        <time>2020-06-05T10:43:00Z</time>
      </trkpt>
      <trkpt lat="47.10239" lon="-2.06357">
        <ele>37</ele>
        <time>2020-06-05T10:43:01Z</time>
      </trkpt>
      <trkpt lat="47.10241" lon="-2.06363">
        <ele>37</ele>
        <time>2020-06-05T10:43:02Z</time>
      </trkpt>
      <trkpt lat="47.10244" lon="-2.06369">
        <ele>37</ele>
        <time>2020-06-05T10:43:03Z</time>
      </trkpt>
      <trkpt lat="47.10246" lon="-2.06375">
        <ele>37</ele>
        <time>2020-06-05T10:43:04Z</time>
      </trkpt>
      <trkpt lat="47.10248" lon="-2.06381">
        <ele>36.9</ele>
        <time>2020-06-05T10:43:05Z</time>
      </trkpt>
      <trkpt lat="47.1025" lon="-2.06387">
        <ele>36.9</ele>
        <time>2020-06-05T10:43:06Z</time>
      </trkpt>
      <trkpt lat="47.10252" lon="-2.06394">
        <ele>36.9</ele>
        <time>2020-06-05T10:43:07Z</time>
      </trkpt>
      <trkpt lat="47.10254" lon="-2.06401">
        <ele>36.9</ele>
        <time>2020-06-05T10:43:08Z</time>
      </trkpt>
      <trkpt lat="47.10256" lon="-2.06409">
        <ele>36.9</ele>
        <time>2020-06-05T10:43:09Z</time>
      </trkpt>
      <trkpt lat="47.10258" lon="-2.06415">
        <ele>36.9</ele>
        <time>2020-06-05T10:43:10Z</time>
      </trkpt>
      <trkpt lat="47.1026" lon="-2.06422">
        <ele>36.9</ele>
        <time>2020-06-05T10:43:11Z</time>
      </trkpt>
      <trkpt lat="47.10262" lon="-2.06428">
        <ele>36.9</ele>
        <time>2020-06-05T10:43:12Z</time>
      </trkpt>
      <trkpt lat="47.10264" lon="-2.06435">
        <ele>36.9</ele>
        <time>2020-06-05T10:43:13Z</time>
      </trkpt>
      <trkpt lat="47.10267" lon="-2.06442">
        <ele>36.9</ele>
        <time>2020-06-05T10:43:14Z</time>
      </trkpt>
      <trkpt lat="47.1027" lon="-2.0645">
        <ele>36.8</ele>
        <time>2020-06-05T10:43:15Z</time>
      </trkpt>
      <trkpt lat="47.10272" lon="-2.06457">
        <ele>36.7</ele>
        <time>2020-06-05T10:43:16Z</time>
      </trkpt>
      <trkpt lat="47.10274" lon="-2.06464">
        <ele>36.7</ele>
        <time>2020-06-05T10:43:17Z</time>
      </trkpt>
      <trkpt lat="47.10276" lon="-2.06471">
        <ele>36.7</ele>
        <time>2020-06-05T10:43:18Z</time>
      </trkpt>
      <trkpt lat="47.10278" lon="-2.06478">
        <ele>36.6</ele>
        <time>2020-06-05T10:43:19Z</time>
      </trkpt>
      <trkpt lat="47.10281" lon="-2.06484">
        <ele>36.6</ele>
        <time>2020-06-05T10:43:20Z</time>
      </trkpt>
      <trkpt lat="47.10284" lon="-2.0649">
        <ele>36.5</ele>
        <time>2020-06-05T10:43:21Z</time>
      </trkpt>
      <trkpt lat="47.10286" lon="-2.06496">
        <ele>36.4</ele>
        <time>2020-06-05T10:43:22Z</time>
      </trkpt>
      <trkpt lat="47.10288" lon="-2.06502">
        <ele>36.4</ele>
        <time>2020-06-05T10:43:23Z</time>
      </trkpt>
      <trkpt lat="47.10291" lon="-2.06509">
        <ele>36.3</ele>
        <time>2020-06-05T10:43:24Z</time>
      </trkpt>
      <trkpt lat="47.10293" lon="-2.06514">
        <ele>36.2</ele>
        <time>2020-06-05T10:43:25Z</time>
      </trkpt>
      <trkpt lat="47.10296" lon="-2.06521">
        <ele>36.2</ele>
        <time>2020-06-05T10:43:26Z</time>
      </trkpt>
      <trkpt lat="47.10299" lon="-2.06527">
        <ele>36.1</ele>
        <time>2020-06-05T10:43:27Z</time>
      </trkpt>
      <trkpt lat="47.10302" lon="-2.06533">
        <ele>36.1</ele>
        <time>2020-06-05T10:43:28Z</time>
      </trkpt>
      <trkpt lat="47.10305" lon="-2.06539">
        <ele>36</ele>
        <time>2020-06-05T10:43:29Z</time>
      </trkpt>
      <trkpt lat="47.10309" lon="-2.06546">
        <ele>36</ele>
        <time>2020-06-05T10:43:30Z</time>
      </trkpt>
      <trkpt lat="47.10312" lon="-2.06552">
        <ele>36</ele>
        <time>2020-06-05T10:43:31Z</time>
      </trkpt>
      <trkpt lat="47.10315" lon="-2.06558">
        <ele>35.9</ele>
        <time>2020-06-05T10:43:32Z</time>
      </trkpt>
      <trkpt lat="47.10318" lon="-2.06564">
        <ele>35.9</ele>
        <time>2020-06-05T10:43:33Z</time>
      </trkpt>
      <trkpt lat="47.10322" lon="-2.0657">
        <ele>35.9</ele>
        <time>2020-06-05T10:43:34Z</time>
      </trkpt>
      <trkpt lat="47.10325" lon="-2.06576">
        <ele>35.8</ele>
        <time>2020-06-05T10:43:35Z</time>
      </trkpt>
      <trkpt lat="47.10329" lon="-2.06582">
        <ele>35.8</ele>
        <time>2020-06-05T10:43:36Z</time>
      </trkpt>
      <trkpt lat="47.10333" lon="-2.06587">
        <ele>35.8</ele>
        <time>2020-06-05T10:43:37Z</time>
      </trkpt>
      <trkpt lat="47.10336" lon="-2.06592">
        <ele>35.7</ele>
        <time>2020-06-05T10:43:38Z</time>
      </trkpt>
      <trkpt lat="47.10339" lon="-2.06597">
        <ele>35.7</ele>
        <time>2020-06-05T10:43:39Z</time>
      </trkpt>
      <trkpt lat="47.10343" lon="-2.06602">
        <ele>35.7</ele>
        <time>2020-06-05T10:43:40Z</time>
      </trkpt>
      <trkpt lat="47.10346" lon="-2.06608">
        <ele>35.6</ele>
        <time>2020-06-05T10:43:41Z</time>
      </trkpt>
      <trkpt lat="47.1035" lon="-2.06614">
        <ele>35.6</ele>
        <time>2020-06-05T10:43:42Z</time>
      </trkpt>
      <trkpt lat="47.10353" lon="-2.06618">
        <ele>35.6</ele>
        <time>2020-06-05T10:43:43Z</time>
      </trkpt>
      <trkpt lat="47.10356" lon="-2.06623">
        <ele>35.6</ele>
        <time>2020-06-05T10:43:44Z</time>
      </trkpt>
      <trkpt lat="47.10359" lon="-2.06628">
        <ele>35.6</ele>
        <time>2020-06-05T10:43:45Z</time>
      </trkpt>
      <trkpt lat="47.10361" lon="-2.06633">
        <ele>35.6</ele>
        <time>2020-06-05T10:43:46Z</time>
      </trkpt>
      <trkpt lat="47.10361" lon="-2.06639">
        <ele>35.6</ele>
        <time>2020-06-05T10:43:47Z</time>
      </trkpt>
      <trkpt lat="47.10362" lon="-2.06646">
        <ele>35.6</ele>
        <time>2020-06-05T10:43:48Z</time>
      </trkpt>
      <trkpt lat="47.10363" lon="-2.06652">
        <ele>35.6</ele>
        <time>2020-06-05T10:43:49Z</time>
      </trkpt>
      <trkpt lat="47.10366" lon="-2.06657">
        <ele>35.6</ele>
        <time>2020-06-05T10:43:50Z</time>
      </trkpt>
      <trkpt lat="47.10368" lon="-2.06662">
        <ele>35.6</ele>
        <time>2020-06-05T10:43:51Z</time>
      </trkpt>
      <trkpt lat="47.1037" lon="-2.06667">
        <ele>35.6</ele>
        <time>2020-06-05T10:43:52Z</time>
      </trkpt>
      <trkpt lat="47.10373" lon="-2.06672">
        <ele>35.5</ele>
        <time>2020-06-05T10:43:53Z</time>
      </trkpt>
      <trkpt lat="47.10375" lon="-2.06678">
        <ele>35.5</ele>
        <time>2020-06-05T10:43:54Z</time>
      </trkpt>
      <trkpt lat="47.10377" lon="-2.06684">
        <ele>35.5</ele>
        <time>2020-06-05T10:43:55Z</time>
      </trkpt>
      <trkpt lat="47.10379" lon="-2.06689">
        <ele>35.4</ele>
        <time>2020-06-05T10:43:56Z</time>
      </trkpt>
      <trkpt lat="47.10382" lon="-2.06697">
        <ele>35.4</ele>
        <time>2020-06-05T10:43:57Z</time>
      </trkpt>
      <trkpt lat="47.10384" lon="-2.06703">
        <ele>35.3</ele>
        <time>2020-06-05T10:43:58Z</time>
      </trkpt>
      <trkpt lat="47.10388" lon="-2.06709">
        <ele>35.3</ele>
        <time>2020-06-05T10:43:59Z</time>
      </trkpt>
      <trkpt lat="47.10391" lon="-2.06714">
        <ele>35.2</ele>
        <time>2020-06-05T10:44:00Z</time>
      </trkpt>
      <trkpt lat="47.10393" lon="-2.0672">
        <ele>35.2</ele>
        <time>2020-06-05T10:44:01Z</time>
      </trkpt>
      <trkpt lat="47.10396" lon="-2.06728">
        <ele>35.1</ele>
        <time>2020-06-05T10:44:02Z</time>
      </trkpt>
      <trkpt lat="47.10398" lon="-2.06734">
        <ele>35.1</ele>
        <time>2020-06-05T10:44:03Z</time>
      </trkpt>
      <trkpt lat="47.10401" lon="-2.0674">
        <ele>35</ele>
        <time>2020-06-05T10:44:04Z</time>
      </trkpt>
      <trkpt lat="47.10403" lon="-2.06745">
        <ele>35</ele>
        <time>2020-06-05T10:44:05Z</time>
      </trkpt>
      <trkpt lat="47.10406" lon="-2.06751">
        <ele>35</ele>
        <time>2020-06-05T10:44:06Z</time>
      </trkpt>
      <trkpt lat="47.10408" lon="-2.06757">
        <ele>35</ele>
        <time>2020-06-05T10:44:07Z</time>
      </trkpt>
      <trkpt lat="47.1041" lon="-2.06763">
        <ele>34.9</ele>
        <time>2020-06-05T10:44:08Z</time>
      </trkpt>
      <trkpt lat="47.10413" lon="-2.06768">
        <ele>34.9</ele>
        <time>2020-06-05T10:44:09Z</time>
      </trkpt>
      <trkpt lat="47.10415" lon="-2.06774">
        <ele>34.8</ele>
        <time>2020-06-05T10:44:10Z</time>
      </trkpt>
      <trkpt lat="47.10417" lon="-2.06781">
        <ele>34.8</ele>
        <time>2020-06-05T10:44:11Z</time>
      </trkpt>
      <trkpt lat="47.1042" lon="-2.06787">
        <ele>34.7</ele>
        <time>2020-06-05T10:44:12Z</time>
      </trkpt>
      <trkpt lat="47.10423" lon="-2.06794">
        <ele>34.7</ele>
        <time>2020-06-05T10:44:13Z</time>
      </trkpt>
      <trkpt lat="47.10425" lon="-2.068">
        <ele>34.6</ele>
        <time>2020-06-05T10:44:14Z</time>
      </trkpt>
      <trkpt lat="47.10428" lon="-2.06805">
        <ele>34.6</ele>
        <time>2020-06-05T10:44:15Z</time>
      </trkpt>
      <trkpt lat="47.10431" lon="-2.0681">
        <ele>34.5</ele>
        <time>2020-06-05T10:44:16Z</time>
      </trkpt>
      <trkpt lat="47.10434" lon="-2.06816">
        <ele>34.5</ele>
        <time>2020-06-05T10:44:17Z</time>
      </trkpt>
      <trkpt lat="47.10436" lon="-2.06823">
        <ele>34.4</ele>
        <time>2020-06-05T10:44:18Z</time>
      </trkpt>
      <trkpt lat="47.1044" lon="-2.0683">
        <ele>34.4</ele>
        <time>2020-06-05T10:44:19Z</time>
      </trkpt>
      <trkpt lat="47.10444" lon="-2.06836">
        <ele>34.3</ele>
        <time>2020-06-05T10:44:20Z</time>
      </trkpt>
      <trkpt lat="47.10448" lon="-2.06841">
        <ele>34.3</ele>
        <time>2020-06-05T10:44:21Z</time>
      </trkpt>
      <trkpt lat="47.10451" lon="-2.06847">
        <ele>34.3</ele>
        <time>2020-06-05T10:44:22Z</time>
      </trkpt>
      <trkpt lat="47.10454" lon="-2.06853">
        <ele>34.2</ele>
        <time>2020-06-05T10:44:23Z</time>
      </trkpt>
      <trkpt lat="47.10457" lon="-2.06859">
        <ele>34.2</ele>
        <time>2020-06-05T10:44:24Z</time>
      </trkpt>
      <trkpt lat="47.10461" lon="-2.06865">
        <ele>34.2</ele>
        <time>2020-06-05T10:44:25Z</time>
      </trkpt>
      <trkpt lat="47.10464" lon="-2.06871">
        <ele>34.2</ele>
        <time>2020-06-05T10:44:26Z</time>
      </trkpt>
      <trkpt lat="47.10467" lon="-2.06877">
        <ele>34.2</ele>
        <time>2020-06-05T10:44:27Z</time>
      </trkpt>
      <trkpt lat="47.1047" lon="-2.06882">
        <ele>34.2</ele>
        <time>2020-06-05T10:44:28Z</time>
      </trkpt>
      <trkpt lat="47.10473" lon="-2.06888">
        <ele>34.2</ele>
        <time>2020-06-05T10:44:29Z</time>
      </trkpt>
      <trkpt lat="47.10476" lon="-2.06894">
        <ele>34.2</ele>
        <time>2020-06-05T10:44:30Z</time>
      </trkpt>
      <trkpt lat="47.10479" lon="-2.06899">
        <ele>34.1</ele>
        <time>2020-06-05T10:44:31Z</time>
      </trkpt>
      <trkpt lat="47.10482" lon="-2.06904">
        <ele>34.1</ele>
        <time>2020-06-05T10:44:32Z</time>
      </trkpt>
      <trkpt lat="47.10485" lon="-2.06908">
        <ele>34</ele>
        <time>2020-06-05T10:44:33Z</time>
      </trkpt>
      <trkpt lat="47.10487" lon="-2.06912">
        <ele>34</ele>
        <time>2020-06-05T10:44:34Z</time>
      </trkpt>
      <trkpt lat="47.10489" lon="-2.06915">
        <ele>34</ele>
        <time>2020-06-05T10:44:35Z</time>
      </trkpt>
      <trkpt lat="47.1049" lon="-2.06919">
        <ele>33.9</ele>
        <time>2020-06-05T10:44:36Z</time>
      </trkpt>
      <trkpt lat="47.1049" lon="-2.06925">
        <ele>33.9</ele>
        <time>2020-06-05T10:44:37Z</time>
      </trkpt>
      <trkpt lat="47.10489" lon="-2.06928">
        <ele>33.9</ele>
        <time>2020-06-05T10:44:38Z</time>
      </trkpt>
      <trkpt lat="47.10487" lon="-2.06932">
        <ele>33.8</ele>
        <time>2020-06-05T10:44:39Z</time>
      </trkpt>
      <trkpt lat="47.10485" lon="-2.06936">
        <ele>33.8</ele>
        <time>2020-06-05T10:44:40Z</time>
      </trkpt>
      <trkpt lat="47.10483" lon="-2.06941">
        <ele>33.8</ele>
        <time>2020-06-05T10:44:41Z</time>
      </trkpt>
      <trkpt lat="47.10482" lon="-2.06946">
        <ele>33.7</ele>
        <time>2020-06-05T10:44:42Z</time>
      </trkpt>
      <trkpt lat="47.1048" lon="-2.06951">
        <ele>33.7</ele>
        <time>2020-06-05T10:44:43Z</time>
      </trkpt>
      <trkpt lat="47.10477" lon="-2.06957">
        <ele>33.6</ele>
        <time>2020-06-05T10:44:44Z</time>
      </trkpt>
      <trkpt lat="47.10474" lon="-2.06962">
        <ele>33.5</ele>
        <time>2020-06-05T10:44:45Z</time>
      </trkpt>
      <trkpt lat="47.10472" lon="-2.06969">
        <ele>33.4</ele>
        <time>2020-06-05T10:44:46Z</time>
      </trkpt>
      <trkpt lat="47.10471" lon="-2.06975">
        <ele>33.4</ele>
        <time>2020-06-05T10:44:47Z</time>
      </trkpt>
      <trkpt lat="47.10468" lon="-2.06982">
        <ele>33.3</ele>
        <time>2020-06-05T10:44:48Z</time>
      </trkpt>
      <trkpt lat="47.10466" lon="-2.06988">
        <ele>33.2</ele>
        <time>2020-06-05T10:44:49Z</time>
      </trkpt>
      <trkpt lat="47.10464" lon="-2.06994">
        <ele>33.1</ele>
        <time>2020-06-05T10:44:50Z</time>
      </trkpt>
      <trkpt lat="47.10461" lon="-2.07">
        <ele>33.1</ele>
        <time>2020-06-05T10:44:51Z</time>
      </trkpt>
      <trkpt lat="47.10459" lon="-2.07006">
        <ele>33.1</ele>
        <time>2020-06-05T10:44:52Z</time>
      </trkpt>
      <trkpt lat="47.10457" lon="-2.07013">
        <ele>33</ele>
        <time>2020-06-05T10:44:53Z</time>
      </trkpt>
      <trkpt lat="47.10455" lon="-2.07021">
        <ele>33</ele>
        <time>2020-06-05T10:44:54Z</time>
      </trkpt>
      <trkpt lat="47.10453" lon="-2.07028">
        <ele>33</ele>
        <time>2020-06-05T10:44:55Z</time>
      </trkpt>
      <trkpt lat="47.10451" lon="-2.07035">
        <ele>32.9</ele>
        <time>2020-06-05T10:44:56Z</time>
      </trkpt>
      <trkpt lat="47.10449" lon="-2.07042">
        <ele>32.9</ele>
        <time>2020-06-05T10:44:57Z</time>
      </trkpt>
      <trkpt lat="47.10448" lon="-2.07049">
        <ele>32.9</ele>
        <time>2020-06-05T10:44:58Z</time>
      </trkpt>
      <trkpt lat="47.10446" lon="-2.07056">
        <ele>32.9</ele>
        <time>2020-06-05T10:44:59Z</time>
      </trkpt>
      <trkpt lat="47.10444" lon="-2.07062">
        <ele>32.9</ele>
        <time>2020-06-05T10:45:00Z</time>
      </trkpt>
      <trkpt lat="47.10442" lon="-2.07068">
        <ele>32.9</ele>
        <time>2020-06-05T10:45:01Z</time>
      </trkpt>
      <trkpt lat="47.1044" lon="-2.07072">
        <ele>32.8</ele>
        <time>2020-06-05T10:45:02Z</time>
      </trkpt>
      <trkpt lat="47.10438" lon="-2.07076">
        <ele>32.8</ele>
        <time>2020-06-05T10:45:03Z</time>
      </trkpt>
      <trkpt lat="47.10438" lon="-2.07077">
        <ele>32.8</ele>
        <time>2020-06-05T10:45:04Z</time>
      </trkpt>
      <trkpt lat="47.10437" lon="-2.0708">
        <ele>32.7</ele>
        <time>2020-06-05T10:45:05Z</time>
      </trkpt>
      <trkpt lat="47.10437" lon="-2.07082">
        <ele>32.7</ele>
        <time>2020-06-05T10:45:06Z</time>
      </trkpt>
      <trkpt lat="47.10437" lon="-2.07088">
        <ele>32.6</ele>
        <time>2020-06-05T10:45:07Z</time>
      </trkpt>
      <trkpt lat="47.10437" lon="-2.07091">
        <ele>32.6</ele>
        <time>2020-06-05T10:45:08Z</time>
      </trkpt>
      <trkpt lat="47.10437" lon="-2.07095">
        <ele>32.6</ele>
        <time>2020-06-05T10:45:09Z</time>
      </trkpt>
      <trkpt lat="47.10437" lon="-2.07101">
        <ele>32.5</ele>
        <time>2020-06-05T10:45:10Z</time>
      </trkpt>
      <trkpt lat="47.10437" lon="-2.07106">
        <ele>32.4</ele>
        <time>2020-06-05T10:45:11Z</time>
      </trkpt>
      <trkpt lat="47.10437" lon="-2.07113">
        <ele>32.3</ele>
        <time>2020-06-05T10:45:12Z</time>
      </trkpt>
      <trkpt lat="47.10436" lon="-2.07119">
        <ele>32.2</ele>
        <time>2020-06-05T10:45:13Z</time>
      </trkpt>
      <trkpt lat="47.10437" lon="-2.07126">
        <ele>32</ele>
        <time>2020-06-05T10:45:14Z</time>
      </trkpt>
      <trkpt lat="47.10437" lon="-2.07133">
        <ele>31.9</ele>
        <time>2020-06-05T10:45:15Z</time>
      </trkpt>
      <trkpt lat="47.10437" lon="-2.07139">
        <ele>31.8</ele>
        <time>2020-06-05T10:45:16Z</time>
      </trkpt>
      <trkpt lat="47.10437" lon="-2.07146">
        <ele>31.7</ele>
        <time>2020-06-05T10:45:17Z</time>
      </trkpt>
      <trkpt lat="47.10437" lon="-2.07153">
        <ele>31.6</ele>
        <time>2020-06-05T10:45:18Z</time>
      </trkpt>
      <trkpt lat="47.10436" lon="-2.07159">
        <ele>31.6</ele>
        <time>2020-06-05T10:45:19Z</time>
      </trkpt>
      <trkpt lat="47.10436" lon="-2.07166">
        <ele>31.5</ele>
        <time>2020-06-05T10:45:20Z</time>
      </trkpt>
      <trkpt lat="47.10435" lon="-2.07174">
        <ele>31.4</ele>
        <time>2020-06-05T10:45:21Z</time>
      </trkpt>
      <trkpt lat="47.10435" lon="-2.07181">
        <ele>31.3</ele>
        <time>2020-06-05T10:45:22Z</time>
      </trkpt>
      <trkpt lat="47.10434" lon="-2.07189">
        <ele>31.1</ele>
        <time>2020-06-05T10:45:23Z</time>
      </trkpt>
      <trkpt lat="47.10432" lon="-2.07197">
        <ele>31</ele>
        <time>2020-06-05T10:45:24Z</time>
      </trkpt>
      <trkpt lat="47.1043" lon="-2.07205">
        <ele>30.8</ele>
        <time>2020-06-05T10:45:25Z</time>
      </trkpt>
      <trkpt lat="47.10428" lon="-2.07212">
        <ele>30.6</ele>
        <time>2020-06-05T10:45:26Z</time>
      </trkpt>
      <trkpt lat="47.10427" lon="-2.07219">
        <ele>30.4</ele>
        <time>2020-06-05T10:45:27Z</time>
      </trkpt>
      <trkpt lat="47.10425" lon="-2.07226">
        <ele>30.3</ele>
        <time>2020-06-05T10:45:28Z</time>
      </trkpt>
      <trkpt lat="47.10423" lon="-2.07232">
        <ele>30.1</ele>
        <time>2020-06-05T10:45:29Z</time>
      </trkpt>
      <trkpt lat="47.10421" lon="-2.07239">
        <ele>30</ele>
        <time>2020-06-05T10:45:30Z</time>
      </trkpt>
      <trkpt lat="47.10418" lon="-2.07246">
        <ele>29.9</ele>
        <time>2020-06-05T10:45:31Z</time>
      </trkpt>
      <trkpt lat="47.10415" lon="-2.07251">
        <ele>29.8</ele>
        <time>2020-06-05T10:45:32Z</time>
      </trkpt>
      <trkpt lat="47.10412" lon="-2.07259">
        <ele>29.5</ele>
        <time>2020-06-05T10:45:33Z</time>
      </trkpt>
      <trkpt lat="47.10409" lon="-2.07266">
        <ele>29.4</ele>
        <time>2020-06-05T10:45:34Z</time>
      </trkpt>
      <trkpt lat="47.10406" lon="-2.07273">
        <ele>29.1</ele>
        <time>2020-06-05T10:45:35Z</time>
      </trkpt>
      <trkpt lat="47.10402" lon="-2.07279">
        <ele>28.9</ele>
        <time>2020-06-05T10:45:36Z</time>
      </trkpt>
      <trkpt lat="47.10397" lon="-2.07286">
        <ele>28.6</ele>
        <time>2020-06-05T10:45:37Z</time>
      </trkpt>
      <trkpt lat="47.10394" lon="-2.07292">
        <ele>28.3</ele>
        <time>2020-06-05T10:45:38Z</time>
      </trkpt>
      <trkpt lat="47.1039" lon="-2.07298">
        <ele>28</ele>
        <time>2020-06-05T10:45:39Z</time>
      </trkpt>
      <trkpt lat="47.10387" lon="-2.07307">
        <ele>27.7</ele>
        <time>2020-06-05T10:45:40Z</time>
      </trkpt>
      <trkpt lat="47.10384" lon="-2.07315">
        <ele>27.4</ele>
        <time>2020-06-05T10:45:41Z</time>
      </trkpt>
      <trkpt lat="47.10382" lon="-2.07323">
        <ele>27</ele>
        <time>2020-06-05T10:45:42Z</time>
      </trkpt>
      <trkpt lat="47.10379" lon="-2.07331">
        <ele>26.7</ele>
        <time>2020-06-05T10:45:43Z</time>
      </trkpt>
      <trkpt lat="47.10378" lon="-2.07339">
        <ele>26.4</ele>
        <time>2020-06-05T10:45:44Z</time>
      </trkpt>
      <trkpt lat="47.10377" lon="-2.07347">
        <ele>26.1</ele>
        <time>2020-06-05T10:45:45Z</time>
      </trkpt>
      <trkpt lat="47.10376" lon="-2.07354">
        <ele>25.7</ele>
        <time>2020-06-05T10:45:46Z</time>
      </trkpt>
      <trkpt lat="47.10374" lon="-2.07361">
        <ele>25.4</ele>
        <time>2020-06-05T10:45:47Z</time>
      </trkpt>
      <trkpt lat="47.10372" lon="-2.07367">
        <ele>25</ele>
        <time>2020-06-05T10:45:48Z</time>
      </trkpt>
      <trkpt lat="47.1037" lon="-2.07374">
        <ele>24.7</ele>
        <time>2020-06-05T10:45:49Z</time>
      </trkpt>
      <trkpt lat="47.10369" lon="-2.07381">
        <ele>24.4</ele>
        <time>2020-06-05T10:45:50Z</time>
      </trkpt>
      <trkpt lat="47.10368" lon="-2.07389">
        <ele>24</ele>
        <time>2020-06-05T10:45:51Z</time>
      </trkpt>
      <trkpt lat="47.10367" lon="-2.07397">
        <ele>23.5</ele>
        <time>2020-06-05T10:45:52Z</time>
      </trkpt>
      <trkpt lat="47.10365" lon="-2.07406">
        <ele>23.1</ele>
        <time>2020-06-05T10:45:53Z</time>
      </trkpt>
      <trkpt lat="47.10363" lon="-2.07416">
        <ele>22.7</ele>
        <time>2020-06-05T10:45:54Z</time>
      </trkpt>
      <trkpt lat="47.10362" lon="-2.07426">
        <ele>22.4</ele>
        <time>2020-06-05T10:45:55Z</time>
      </trkpt>
      <trkpt lat="47.1036" lon="-2.07435">
        <ele>22.2</ele>
        <time>2020-06-05T10:45:56Z</time>
      </trkpt>
      <trkpt lat="47.10357" lon="-2.07445">
        <ele>22.1</ele>
        <time>2020-06-05T10:45:57Z</time>
      </trkpt>
      <trkpt lat="47.10354" lon="-2.07455">
        <ele>22</ele>
        <time>2020-06-05T10:45:58Z</time>
      </trkpt>
      <trkpt lat="47.10352" lon="-2.07465">
        <ele>22.2</ele>
        <time>2020-06-05T10:45:59Z</time>
      </trkpt>
      <trkpt lat="47.1035" lon="-2.07475">
        <ele>22.3</ele>
        <time>2020-06-05T10:46:00Z</time>
      </trkpt>
      <trkpt lat="47.10349" lon="-2.07484">
        <ele>22.4</ele>
        <time>2020-06-05T10:46:01Z</time>
      </trkpt>
      <trkpt lat="47.1035" lon="-2.07492">
        <ele>22.5</ele>
        <time>2020-06-05T10:46:02Z</time>
      </trkpt>
      <trkpt lat="47.10352" lon="-2.07498">
        <ele>22.6</ele>
        <time>2020-06-05T10:46:03Z</time>
      </trkpt>
      <trkpt lat="47.10355" lon="-2.07504">
        <ele>22.6</ele>
        <time>2020-06-05T10:46:04Z</time>
      </trkpt>
      <trkpt lat="47.10358" lon="-2.07508">
        <ele>22.7</ele>
        <time>2020-06-05T10:46:05Z</time>
      </trkpt>
      <trkpt lat="47.10361" lon="-2.07512">
        <ele>22.8</ele>
        <time>2020-06-05T10:46:06Z</time>
      </trkpt>
      <trkpt lat="47.10363" lon="-2.07517">
        <ele>22.8</ele>
        <time>2020-06-05T10:46:07Z</time>
      </trkpt>
      <trkpt lat="47.10366" lon="-2.0752">
        <ele>22.9</ele>
        <time>2020-06-05T10:46:08Z</time>
      </trkpt>
      <trkpt lat="47.10368" lon="-2.07524">
        <ele>23</ele>
        <time>2020-06-05T10:46:09Z</time>
      </trkpt>
      <trkpt lat="47.1037" lon="-2.0753">
        <ele>23.2</ele>
        <time>2020-06-05T10:46:10Z</time>
      </trkpt>
      <trkpt lat="47.10371" lon="-2.07532">
        <ele>23.2</ele>
        <time>2020-06-05T10:46:11Z</time>
      </trkpt>
      <trkpt lat="47.10373" lon="-2.07537">
        <ele>23.3</ele>
        <time>2020-06-05T10:46:12Z</time>
      </trkpt>
      <trkpt lat="47.10376" lon="-2.07541">
        <ele>23.4</ele>
        <time>2020-06-05T10:46:13Z</time>
      </trkpt>
      <trkpt lat="47.10378" lon="-2.07546">
        <ele>23.4</ele>
        <time>2020-06-05T10:46:14Z</time>
      </trkpt>
      <trkpt lat="47.1038" lon="-2.0755">
        <ele>23.5</ele>
        <time>2020-06-05T10:46:15Z</time>
      </trkpt>
      <trkpt lat="47.10381" lon="-2.07556">
        <ele>23.5</ele>
        <time>2020-06-05T10:46:16Z</time>
      </trkpt>
      <trkpt lat="47.10382" lon="-2.07562">
        <ele>23.6</ele>
        <time>2020-06-05T10:46:17Z</time>
      </trkpt>
      <trkpt lat="47.10384" lon="-2.07569">
        <ele>23.6</ele>
        <time>2020-06-05T10:46:18Z</time>
      </trkpt>
      <trkpt lat="47.10387" lon="-2.07576">
        <ele>23.7</ele>
        <time>2020-06-05T10:46:19Z</time>
      </trkpt>
      <trkpt lat="47.10389" lon="-2.07582">
        <ele>23.8</ele>
        <time>2020-06-05T10:46:20Z</time>
      </trkpt>
      <trkpt lat="47.10391" lon="-2.07588">
        <ele>23.9</ele>
        <time>2020-06-05T10:46:21Z</time>
      </trkpt>
      <trkpt lat="47.10392" lon="-2.07593">
        <ele>23.9</ele>
        <time>2020-06-05T10:46:22Z</time>
      </trkpt>
      <trkpt lat="47.10393" lon="-2.07599">
        <ele>24</ele>
        <time>2020-06-05T10:46:23Z</time>
      </trkpt>
      <trkpt lat="47.10394" lon="-2.07604">
        <ele>24.1</ele>
        <time>2020-06-05T10:46:24Z</time>
      </trkpt>
      <trkpt lat="47.10395" lon="-2.07611">
        <ele>24.1</ele>
        <time>2020-06-05T10:46:25Z</time>
      </trkpt>
      <trkpt lat="47.10396" lon="-2.07616">
        <ele>24.1</ele>
        <time>2020-06-05T10:46:26Z</time>
      </trkpt>
      <trkpt lat="47.10397" lon="-2.0762">
        <ele>24.2</ele>
        <time>2020-06-05T10:46:27Z</time>
      </trkpt>
      <trkpt lat="47.10399" lon="-2.07625">
        <ele>24.2</ele>
        <time>2020-06-05T10:46:28Z</time>
      </trkpt>
      <trkpt lat="47.104" lon="-2.0763">
        <ele>24.2</ele>
        <time>2020-06-05T10:46:29Z</time>
      </trkpt>
      <trkpt lat="47.10401" lon="-2.07633">
        <ele>24.2</ele>
        <time>2020-06-05T10:46:30Z</time>
      </trkpt>
      <trkpt lat="47.10402" lon="-2.07638">
        <ele>24.2</ele>
        <time>2020-06-05T10:46:31Z</time>
      </trkpt>
      <trkpt lat="47.10403" lon="-2.07642">
        <ele>24.2</ele>
        <time>2020-06-05T10:46:32Z</time>
      </trkpt>
      <trkpt lat="47.10404" lon="-2.07646">
        <ele>24.1</ele>
        <time>2020-06-05T10:46:33Z</time>
      </trkpt>
      <trkpt lat="47.10405" lon="-2.07652">
        <ele>24.1</ele>
        <time>2020-06-05T10:46:34Z</time>
      </trkpt>
      <trkpt lat="47.10406" lon="-2.07657">
        <ele>24</ele>
        <time>2020-06-05T10:46:35Z</time>
      </trkpt>
      <trkpt lat="47.10408" lon="-2.07661">
        <ele>23.9</ele>
        <time>2020-06-05T10:46:36Z</time>
      </trkpt>
      <trkpt lat="47.1041" lon="-2.07668">
        <ele>23.8</ele>
        <time>2020-06-05T10:46:37Z</time>
      </trkpt>
      <trkpt lat="47.10411" lon="-2.07676">
        <ele>23.7</ele>
        <time>2020-06-05T10:46:38Z</time>
      </trkpt>
      <trkpt lat="47.10413" lon="-2.07683">
        <ele>23.6</ele>
        <time>2020-06-05T10:46:39Z</time>
      </trkpt>
      <trkpt lat="47.10414" lon="-2.0769">
        <ele>23.5</ele>
        <time>2020-06-05T10:46:40Z</time>
      </trkpt>
      <trkpt lat="47.10414" lon="-2.07698">
        <ele>23.4</ele>
        <time>2020-06-05T10:46:41Z</time>
      </trkpt>
      <trkpt lat="47.10414" lon="-2.07706">
        <ele>23.3</ele>
        <time>2020-06-05T10:46:42Z</time>
      </trkpt>
      <trkpt lat="47.10414" lon="-2.07714">
        <ele>23.2</ele>
        <time>2020-06-05T10:46:43Z</time>
      </trkpt>
      <trkpt lat="47.10412" lon="-2.0772">
        <ele>23.2</ele>
        <time>2020-06-05T10:46:44Z</time>
      </trkpt>
      <trkpt lat="47.10409" lon="-2.07727">
        <ele>23.1</ele>
        <time>2020-06-05T10:46:45Z</time>
      </trkpt>
      <trkpt lat="47.10407" lon="-2.07734">
        <ele>23</ele>
        <time>2020-06-05T10:46:46Z</time>
      </trkpt>
      <trkpt lat="47.10405" lon="-2.07742">
        <ele>22.9</ele>
        <time>2020-06-05T10:46:47Z</time>
      </trkpt>
      <trkpt lat="47.10403" lon="-2.07749">
        <ele>22.8</ele>
        <time>2020-06-05T10:46:48Z</time>
      </trkpt>
      <trkpt lat="47.10401" lon="-2.07756">
        <ele>22.7</ele>
        <time>2020-06-05T10:46:49Z</time>
      </trkpt>
      <trkpt lat="47.10399" lon="-2.07764">
        <ele>22.6</ele>
        <time>2020-06-05T10:46:50Z</time>
      </trkpt>
      <trkpt lat="47.10397" lon="-2.07772">
        <ele>22.5</ele>
        <time>2020-06-05T10:46:51Z</time>
      </trkpt>
      <trkpt lat="47.10396" lon="-2.0778">
        <ele>22.4</ele>
        <time>2020-06-05T10:46:52Z</time>
      </trkpt>
      <trkpt lat="47.10394" lon="-2.07789">
        <ele>22.3</ele>
        <time>2020-06-05T10:46:53Z</time>
      </trkpt>
      <trkpt lat="47.10393" lon="-2.07797">
        <ele>22.2</ele>
        <time>2020-06-05T10:46:54Z</time>
      </trkpt>
      <trkpt lat="47.10391" lon="-2.07805">
        <ele>22.2</ele>
        <time>2020-06-05T10:46:55Z</time>
      </trkpt>
      <trkpt lat="47.10389" lon="-2.07813">
        <ele>22.2</ele>
        <time>2020-06-05T10:46:56Z</time>
      </trkpt>
      <trkpt lat="47.10389" lon="-2.0782">
        <ele>22.1</ele>
        <time>2020-06-05T10:46:57Z</time>
      </trkpt>
      <trkpt lat="47.10388" lon="-2.07827">
        <ele>22.1</ele>
        <time>2020-06-05T10:46:58Z</time>
      </trkpt>
      <trkpt lat="47.10388" lon="-2.07834">
        <ele>22.1</ele>
        <time>2020-06-05T10:46:59Z</time>
      </trkpt>
      <trkpt lat="47.10388" lon="-2.0784">
        <ele>22.1</ele>
        <time>2020-06-05T10:47:00Z</time>
      </trkpt>
      <trkpt lat="47.10388" lon="-2.07845">
        <ele>22.1</ele>
        <time>2020-06-05T10:47:01Z</time>
      </trkpt>
      <trkpt lat="47.10388" lon="-2.07851">
        <ele>22</ele>
        <time>2020-06-05T10:47:02Z</time>
      </trkpt>
      <trkpt lat="47.10388" lon="-2.07859">
        <ele>22</ele>
        <time>2020-06-05T10:47:03Z</time>
      </trkpt>
      <trkpt lat="47.10388" lon="-2.07867">
        <ele>22</ele>
        <time>2020-06-05T10:47:04Z</time>
      </trkpt>
      <trkpt lat="47.10389" lon="-2.07874">
        <ele>22</ele>
        <time>2020-06-05T10:47:05Z</time>
      </trkpt>
      <trkpt lat="47.10389" lon="-2.07882">
        <ele>22</ele>
        <time>2020-06-05T10:47:06Z</time>
      </trkpt>
      <trkpt lat="47.10391" lon="-2.0789">
        <ele>22</ele>
        <time>2020-06-05T10:47:07Z</time>
      </trkpt>
      <trkpt lat="47.10392" lon="-2.07899">
        <ele>22</ele>
        <time>2020-06-05T10:47:08Z</time>
      </trkpt>
      <trkpt lat="47.10394" lon="-2.07907">
        <ele>22</ele>
        <time>2020-06-05T10:47:09Z</time>
      </trkpt>
      <trkpt lat="47.10395" lon="-2.07916">
        <ele>22</ele>
        <time>2020-06-05T10:47:10Z</time>
      </trkpt>
      <trkpt lat="47.10399" lon="-2.07922">
        <ele>22</ele>
        <time>2020-06-05T10:47:11Z</time>
      </trkpt>
      <trkpt lat="47.10402" lon="-2.07928">
        <ele>22.1</ele>
        <time>2020-06-05T10:47:12Z</time>
      </trkpt>
      <trkpt lat="47.10405" lon="-2.07935">
        <ele>22.1</ele>
        <time>2020-06-05T10:47:13Z</time>
      </trkpt>
      <trkpt lat="47.10408" lon="-2.07941">
        <ele>22.2</ele>
        <time>2020-06-05T10:47:14Z</time>
      </trkpt>
      <trkpt lat="47.10411" lon="-2.07949">
        <ele>22.3</ele>
        <time>2020-06-05T10:47:15Z</time>
      </trkpt>
      <trkpt lat="47.10412" lon="-2.07955">
        <ele>22.4</ele>
        <time>2020-06-05T10:47:16Z</time>
      </trkpt>
      <trkpt lat="47.10415" lon="-2.07962">
        <ele>22.5</ele>
        <time>2020-06-05T10:47:17Z</time>
      </trkpt>
      <trkpt lat="47.10418" lon="-2.07969">
        <ele>22.7</ele>
        <time>2020-06-05T10:47:18Z</time>
      </trkpt>
      <trkpt lat="47.10421" lon="-2.07976">
        <ele>22.8</ele>
        <time>2020-06-05T10:47:19Z</time>
      </trkpt>
      <trkpt lat="47.10424" lon="-2.07982">
        <ele>22.9</ele>
        <time>2020-06-05T10:47:20Z</time>
      </trkpt>
      <trkpt lat="47.10426" lon="-2.07988">
        <ele>23</ele>
        <time>2020-06-05T10:47:21Z</time>
      </trkpt>
      <trkpt lat="47.10429" lon="-2.07994">
        <ele>23.1</ele>
        <time>2020-06-05T10:47:22Z</time>
      </trkpt>
      <trkpt lat="47.10431" lon="-2.08">
        <ele>23.2</ele>
        <time>2020-06-05T10:47:23Z</time>
      </trkpt>
      <trkpt lat="47.10433" lon="-2.08004">
        <ele>23.3</ele>
        <time>2020-06-05T10:47:24Z</time>
      </trkpt>
      <trkpt lat="47.10435" lon="-2.08008">
        <ele>23.3</ele>
        <time>2020-06-05T10:47:25Z</time>
      </trkpt>
      <trkpt lat="47.10438" lon="-2.08012">
        <ele>23.4</ele>
        <time>2020-06-05T10:47:26Z</time>
      </trkpt>
      <trkpt lat="47.10442" lon="-2.08016">
        <ele>23.5</ele>
        <time>2020-06-05T10:47:27Z</time>
      </trkpt>
      <trkpt lat="47.10447" lon="-2.08021">
        <ele>23.6</ele>
        <time>2020-06-05T10:47:28Z</time>
      </trkpt>
      <trkpt lat="47.10451" lon="-2.08024">
        <ele>23.7</ele>
        <time>2020-06-05T10:47:29Z</time>
      </trkpt>
      <trkpt lat="47.10454" lon="-2.08027">
        <ele>23.8</ele>
        <time>2020-06-05T10:47:30Z</time>
      </trkpt>
      <trkpt lat="47.10457" lon="-2.08031">
        <ele>23.9</ele>
        <time>2020-06-05T10:47:31Z</time>
      </trkpt>
      <trkpt lat="47.1046" lon="-2.08034">
        <ele>23.9</ele>
        <time>2020-06-05T10:47:32Z</time>
      </trkpt>
      <trkpt lat="47.10464" lon="-2.08038">
        <ele>23.9</ele>
        <time>2020-06-05T10:47:33Z</time>
      </trkpt>
      <trkpt lat="47.10467" lon="-2.08042">
        <ele>24</ele>
        <time>2020-06-05T10:47:34Z</time>
      </trkpt>
      <trkpt lat="47.1047" lon="-2.08047">
        <ele>24</ele>
        <time>2020-06-05T10:47:35Z</time>
      </trkpt>
      <trkpt lat="47.10474" lon="-2.08052">
        <ele>24</ele>
        <time>2020-06-05T10:47:36Z</time>
      </trkpt>
      <trkpt lat="47.10478" lon="-2.08058">
        <ele>24.1</ele>
        <time>2020-06-05T10:47:37Z</time>
      </trkpt>
      <trkpt lat="47.10481" lon="-2.08064">
        <ele>24.1</ele>
        <time>2020-06-05T10:47:38Z</time>
      </trkpt>
      <trkpt lat="47.10484" lon="-2.0807">
        <ele>24.1</ele>
        <time>2020-06-05T10:47:39Z</time>
      </trkpt>
      <trkpt lat="47.10487" lon="-2.08075">
        <ele>24.1</ele>
        <time>2020-06-05T10:47:40Z</time>
      </trkpt>
      <trkpt lat="47.1049" lon="-2.08081">
        <ele>24.1</ele>
        <time>2020-06-05T10:47:41Z</time>
      </trkpt>
      <trkpt lat="47.10493" lon="-2.08088">
        <ele>24</ele>
        <time>2020-06-05T10:47:42Z</time>
      </trkpt>
      <trkpt lat="47.10496" lon="-2.08095">
        <ele>24</ele>
        <time>2020-06-05T10:47:43Z</time>
      </trkpt>
      <trkpt lat="47.105" lon="-2.08101">
        <ele>24</ele>
        <time>2020-06-05T10:47:44Z</time>
      </trkpt>
      <trkpt lat="47.10502" lon="-2.08107">
        <ele>23.9</ele>
        <time>2020-06-05T10:47:45Z</time>
      </trkpt>
      <trkpt lat="47.10505" lon="-2.08114">
        <ele>23.9</ele>
        <time>2020-06-05T10:47:46Z</time>
      </trkpt>
      <trkpt lat="47.10508" lon="-2.08121">
        <ele>23.9</ele>
        <time>2020-06-05T10:47:47Z</time>
      </trkpt>
      <trkpt lat="47.10512" lon="-2.08127">
        <ele>23.9</ele>
        <time>2020-06-05T10:47:48Z</time>
      </trkpt>
      <trkpt lat="47.10515" lon="-2.08134">
        <ele>23.9</ele>
        <time>2020-06-05T10:47:49Z</time>
      </trkpt>
      <trkpt lat="47.10519" lon="-2.0814">
        <ele>23.9</ele>
        <time>2020-06-05T10:47:50Z</time>
      </trkpt>
      <trkpt lat="47.10522" lon="-2.08147">
        <ele>23.9</ele>
        <time>2020-06-05T10:47:51Z</time>
      </trkpt>
      <trkpt lat="47.10526" lon="-2.08154">
        <ele>24.1</ele>
        <time>2020-06-05T10:47:52Z</time>
      </trkpt>
      <trkpt lat="47.10529" lon="-2.08161">
        <ele>24.2</ele>
        <time>2020-06-05T10:47:53Z</time>
      </trkpt>
      <trkpt lat="47.10533" lon="-2.08167">
        <ele>24.3</ele>
        <time>2020-06-05T10:47:54Z</time>
      </trkpt>
      <trkpt lat="47.10536" lon="-2.08174">
        <ele>24.5</ele>
        <time>2020-06-05T10:47:55Z</time>
      </trkpt>
      <trkpt lat="47.10539" lon="-2.08179">
        <ele>24.6</ele>
        <time>2020-06-05T10:47:56Z</time>
      </trkpt>
      <trkpt lat="47.10542" lon="-2.08186">
        <ele>24.7</ele>
        <time>2020-06-05T10:47:57Z</time>
      </trkpt>
      <trkpt lat="47.10545" lon="-2.08192">
        <ele>24.8</ele>
        <time>2020-06-05T10:47:58Z</time>
      </trkpt>
      <trkpt lat="47.10547" lon="-2.08198">
        <ele>24.9</ele>
        <time>2020-06-05T10:47:59Z</time>
      </trkpt>
      <trkpt lat="47.10549" lon="-2.08204">
        <ele>25</ele>
        <time>2020-06-05T10:48:00Z</time>
      </trkpt>
      <trkpt lat="47.10552" lon="-2.08209">
        <ele>25</ele>
        <time>2020-06-05T10:48:01Z</time>
      </trkpt>
      <trkpt lat="47.10555" lon="-2.08214">
        <ele>25.1</ele>
        <time>2020-06-05T10:48:02Z</time>
      </trkpt>
      <trkpt lat="47.10558" lon="-2.08219">
        <ele>25.3</ele>
        <time>2020-06-05T10:48:03Z</time>
      </trkpt>
      <trkpt lat="47.10561" lon="-2.08225">
        <ele>25.4</ele>
        <time>2020-06-05T10:48:04Z</time>
      </trkpt>
      <trkpt lat="47.10565" lon="-2.08231">
        <ele>25.5</ele>
        <time>2020-06-05T10:48:05Z</time>
      </trkpt>
      <trkpt lat="47.10569" lon="-2.08237">
        <ele>25.6</ele>
        <time>2020-06-05T10:48:06Z</time>
      </trkpt>
      <trkpt lat="47.10573" lon="-2.08243">
        <ele>25.7</ele>
        <time>2020-06-05T10:48:07Z</time>
      </trkpt>
      <trkpt lat="47.10576" lon="-2.08248">
        <ele>25.8</ele>
        <time>2020-06-05T10:48:08Z</time>
      </trkpt>
      <trkpt lat="47.10578" lon="-2.08254">
        <ele>25.8</ele>
        <time>2020-06-05T10:48:09Z</time>
      </trkpt>
      <trkpt lat="47.10581" lon="-2.08259">
        <ele>25.9</ele>
        <time>2020-06-05T10:48:10Z</time>
      </trkpt>
      <trkpt lat="47.10584" lon="-2.08264">
        <ele>25.9</ele>
        <time>2020-06-05T10:48:11Z</time>
      </trkpt>
      <trkpt lat="47.10586" lon="-2.08269">
        <ele>25.9</ele>
        <time>2020-06-05T10:48:12Z</time>
      </trkpt>
      <trkpt lat="47.10589" lon="-2.08274">
        <ele>25.9</ele>
        <time>2020-06-05T10:48:13Z</time>
      </trkpt>
      <trkpt lat="47.10593" lon="-2.08279">
        <ele>25.9</ele>
        <time>2020-06-05T10:48:14Z</time>
      </trkpt>
      <trkpt lat="47.10596" lon="-2.08284">
        <ele>26</ele>
        <time>2020-06-05T10:48:15Z</time>
      </trkpt>
      <trkpt lat="47.10599" lon="-2.08288">
        <ele>26</ele>
        <time>2020-06-05T10:48:16Z</time>
      </trkpt>
      <trkpt lat="47.10603" lon="-2.08293">
        <ele>26</ele>
        <time>2020-06-05T10:48:17Z</time>
      </trkpt>
      <trkpt lat="47.10605" lon="-2.08299">
        <ele>26</ele>
        <time>2020-06-05T10:48:18Z</time>
      </trkpt>
      <trkpt lat="47.10607" lon="-2.08304">
        <ele>26.1</ele>
        <time>2020-06-05T10:48:19Z</time>
      </trkpt>
      <trkpt lat="47.1061" lon="-2.08309">
        <ele>26.1</ele>
        <time>2020-06-05T10:48:20Z</time>
      </trkpt>
      <trkpt lat="47.10613" lon="-2.08315">
        <ele>26.1</ele>
        <time>2020-06-05T10:48:21Z</time>
      </trkpt>
      <trkpt lat="47.10617" lon="-2.08321">
        <ele>26.1</ele>
        <time>2020-06-05T10:48:22Z</time>
      </trkpt>
      <trkpt lat="47.1062" lon="-2.08326">
        <ele>26</ele>
        <time>2020-06-05T10:48:23Z</time>
      </trkpt>
      <trkpt lat="47.10623" lon="-2.08332">
        <ele>26</ele>
        <time>2020-06-05T10:48:24Z</time>
      </trkpt>
      <trkpt lat="47.10627" lon="-2.08337">
        <ele>26</ele>
        <time>2020-06-05T10:48:25Z</time>
      </trkpt>
      <trkpt lat="47.1063" lon="-2.08343">
        <ele>25.9</ele>
        <time>2020-06-05T10:48:26Z</time>
      </trkpt>
      <trkpt lat="47.10633" lon="-2.08349">
        <ele>25.9</ele>
        <time>2020-06-05T10:48:27Z</time>
      </trkpt>
      <trkpt lat="47.10636" lon="-2.08354">
        <ele>25.9</ele>
        <time>2020-06-05T10:48:28Z</time>
      </trkpt>
      <trkpt lat="47.1064" lon="-2.08359">
        <ele>25.8</ele>
        <time>2020-06-05T10:48:29Z</time>
      </trkpt>
      <trkpt lat="47.10643" lon="-2.08364">
        <ele>25.8</ele>
        <time>2020-06-05T10:48:30Z</time>
      </trkpt>
      <trkpt lat="47.10647" lon="-2.0837">
        <ele>25.8</ele>
        <time>2020-06-05T10:48:31Z</time>
      </trkpt>
      <trkpt lat="47.10651" lon="-2.08376">
        <ele>25.7</ele>
        <time>2020-06-05T10:48:32Z</time>
      </trkpt>
      <trkpt lat="47.10654" lon="-2.08382">
        <ele>25.7</ele>
        <time>2020-06-05T10:48:33Z</time>
      </trkpt>
      <trkpt lat="47.10658" lon="-2.08389">
        <ele>25.7</ele>
        <time>2020-06-05T10:48:34Z</time>
      </trkpt>
      <trkpt lat="47.10662" lon="-2.08394">
        <ele>25.7</ele>
        <time>2020-06-05T10:48:35Z</time>
      </trkpt>
      <trkpt lat="47.10666" lon="-2.08401">
        <ele>25.7</ele>
        <time>2020-06-05T10:48:36Z</time>
      </trkpt>
      <trkpt lat="47.10669" lon="-2.08407">
        <ele>25.6</ele>
        <time>2020-06-05T10:48:37Z</time>
      </trkpt>
      <trkpt lat="47.10672" lon="-2.08413">
        <ele>25.6</ele>
        <time>2020-06-05T10:48:38Z</time>
      </trkpt>
      <trkpt lat="47.10675" lon="-2.08419">
        <ele>25.6</ele>
        <time>2020-06-05T10:48:39Z</time>
      </trkpt>
      <trkpt lat="47.10679" lon="-2.08425">
        <ele>25.6</ele>
        <time>2020-06-05T10:48:40Z</time>
      </trkpt>
      <trkpt lat="47.10682" lon="-2.08431">
        <ele>25.6</ele>
        <time>2020-06-05T10:48:41Z</time>
      </trkpt>
      <trkpt lat="47.10684" lon="-2.08437">
        <ele>25.6</ele>
        <time>2020-06-05T10:48:42Z</time>
      </trkpt>
      <trkpt lat="47.10687" lon="-2.08443">
        <ele>25.6</ele>
        <time>2020-06-05T10:48:43Z</time>
      </trkpt>
      <trkpt lat="47.1069" lon="-2.08449">
        <ele>25.7</ele>
        <time>2020-06-05T10:48:44Z</time>
      </trkpt>
      <trkpt lat="47.10692" lon="-2.08455">
        <ele>25.7</ele>
        <time>2020-06-05T10:48:45Z</time>
      </trkpt>
      <trkpt lat="47.10694" lon="-2.08462">
        <ele>25.7</ele>
        <time>2020-06-05T10:48:46Z</time>
      </trkpt>
      <trkpt lat="47.10696" lon="-2.08469">
        <ele>25.7</ele>
        <time>2020-06-05T10:48:47Z</time>
      </trkpt>
      <trkpt lat="47.10698" lon="-2.08476">
        <ele>25.8</ele>
        <time>2020-06-05T10:48:48Z</time>
      </trkpt>
      <trkpt lat="47.107" lon="-2.08483">
        <ele>25.8</ele>
        <time>2020-06-05T10:48:49Z</time>
      </trkpt>
      <trkpt lat="47.10703" lon="-2.0849">
        <ele>25.8</ele>
        <time>2020-06-05T10:48:50Z</time>
      </trkpt>
      <trkpt lat="47.10705" lon="-2.08498">
        <ele>25.9</ele>
        <time>2020-06-05T10:48:51Z</time>
      </trkpt>
      <trkpt lat="47.10706" lon="-2.08505">
        <ele>25.9</ele>
        <time>2020-06-05T10:48:52Z</time>
      </trkpt>
      <trkpt lat="47.10708" lon="-2.08513">
        <ele>26</ele>
        <time>2020-06-05T10:48:53Z</time>
      </trkpt>
      <trkpt lat="47.10708" lon="-2.08521">
        <ele>26.1</ele>
        <time>2020-06-05T10:48:54Z</time>
      </trkpt>
      <trkpt lat="47.1071" lon="-2.08528">
        <ele>26.1</ele>
        <time>2020-06-05T10:48:55Z</time>
      </trkpt>
      <trkpt lat="47.10711" lon="-2.08537">
        <ele>26.2</ele>
        <time>2020-06-05T10:48:56Z</time>
      </trkpt>
      <trkpt lat="47.10712" lon="-2.08544">
        <ele>26.3</ele>
        <time>2020-06-05T10:48:57Z</time>
      </trkpt>
      <trkpt lat="47.10713" lon="-2.08551">
        <ele>26.3</ele>
        <time>2020-06-05T10:48:58Z</time>
      </trkpt>
      <trkpt lat="47.10714" lon="-2.08558">
        <ele>26.4</ele>
        <time>2020-06-05T10:48:59Z</time>
      </trkpt>
      <trkpt lat="47.10714" lon="-2.08563">
        <ele>26.5</ele>
        <time>2020-06-05T10:49:00Z</time>
      </trkpt>
      <trkpt lat="47.10715" lon="-2.0857">
        <ele>26.6</ele>
        <time>2020-06-05T10:49:01Z</time>
      </trkpt>
      <trkpt lat="47.10716" lon="-2.08577">
        <ele>26.7</ele>
        <time>2020-06-05T10:49:02Z</time>
      </trkpt>
      <trkpt lat="47.10718" lon="-2.08584">
        <ele>26.8</ele>
        <time>2020-06-05T10:49:03Z</time>
      </trkpt>
      <trkpt lat="47.10719" lon="-2.08591">
        <ele>27</ele>
        <time>2020-06-05T10:49:04Z</time>
      </trkpt>
      <trkpt lat="47.1072" lon="-2.08598">
        <ele>27.1</ele>
        <time>2020-06-05T10:49:05Z</time>
      </trkpt>
      <trkpt lat="47.10721" lon="-2.08603">
        <ele>27.2</ele>
        <time>2020-06-05T10:49:06Z</time>
      </trkpt>
      <trkpt lat="47.10722" lon="-2.08609">
        <ele>27.2</ele>
        <time>2020-06-05T10:49:07Z</time>
      </trkpt>
      <trkpt lat="47.10724" lon="-2.08614">
        <ele>27.3</ele>
        <time>2020-06-05T10:49:08Z</time>
      </trkpt>
      <trkpt lat="47.10725" lon="-2.08619">
        <ele>27.3</ele>
        <time>2020-06-05T10:49:09Z</time>
      </trkpt>
      <trkpt lat="47.10726" lon="-2.08624">
        <ele>27.4</ele>
        <time>2020-06-05T10:49:10Z</time>
      </trkpt>
      <trkpt lat="47.10727" lon="-2.08629">
        <ele>27.4</ele>
        <time>2020-06-05T10:49:11Z</time>
      </trkpt>
      <trkpt lat="47.10729" lon="-2.08634">
        <ele>27.4</ele>
        <time>2020-06-05T10:49:12Z</time>
      </trkpt>
      <trkpt lat="47.10732" lon="-2.08641">
        <ele>27.5</ele>
        <time>2020-06-05T10:49:13Z</time>
      </trkpt>
      <trkpt lat="47.10733" lon="-2.08646">
        <ele>27.5</ele>
        <time>2020-06-05T10:49:14Z</time>
      </trkpt>
      <trkpt lat="47.10734" lon="-2.08651">
        <ele>27.5</ele>
        <time>2020-06-05T10:49:15Z</time>
      </trkpt>
      <trkpt lat="47.10736" lon="-2.08657">
        <ele>27.5</ele>
        <time>2020-06-05T10:49:16Z</time>
      </trkpt>
      <trkpt lat="47.10738" lon="-2.08659">
        <ele>27.6</ele>
        <time>2020-06-05T10:49:17Z</time>
      </trkpt>
      <trkpt lat="47.10739" lon="-2.08664">
        <ele>27.6</ele>
        <time>2020-06-05T10:49:18Z</time>
      </trkpt>
      <trkpt lat="47.10741" lon="-2.08668">
        <ele>27.6</ele>
        <time>2020-06-05T10:49:19Z</time>
      </trkpt>
      <trkpt lat="47.10742" lon="-2.08674">
        <ele>27.6</ele>
        <time>2020-06-05T10:49:20Z</time>
      </trkpt>
      <trkpt lat="47.10743" lon="-2.08678">
        <ele>27.6</ele>
        <time>2020-06-05T10:49:21Z</time>
      </trkpt>
      <trkpt lat="47.10744" lon="-2.08684">
        <ele>27.6</ele>
        <time>2020-06-05T10:49:22Z</time>
      </trkpt>
      <trkpt lat="47.10744" lon="-2.08689">
        <ele>27.6</ele>
        <time>2020-06-05T10:49:23Z</time>
      </trkpt>
      <trkpt lat="47.10745" lon="-2.08694">
        <ele>27.6</ele>
        <time>2020-06-05T10:49:24Z</time>
      </trkpt>
      <trkpt lat="47.10746" lon="-2.087">
        <ele>27.6</ele>
        <time>2020-06-05T10:49:25Z</time>
      </trkpt>
      <trkpt lat="47.10746" lon="-2.08706">
        <ele>27.6</ele>
        <time>2020-06-05T10:49:26Z</time>
      </trkpt>
      <trkpt lat="47.10747" lon="-2.08712">
        <ele>27.5</ele>
        <time>2020-06-05T10:49:27Z</time>
      </trkpt>
      <trkpt lat="47.10748" lon="-2.08718">
        <ele>27.5</ele>
        <time>2020-06-05T10:49:28Z</time>
      </trkpt>
      <trkpt lat="47.10749" lon="-2.08725">
        <ele>27.5</ele>
        <time>2020-06-05T10:49:29Z</time>
      </trkpt>
      <trkpt lat="47.10751" lon="-2.08731">
        <ele>27.4</ele>
        <time>2020-06-05T10:49:30Z</time>
      </trkpt>
      <trkpt lat="47.10752" lon="-2.08738">
        <ele>27.4</ele>
        <time>2020-06-05T10:49:31Z</time>
      </trkpt>
      <trkpt lat="47.10753" lon="-2.08745">
        <ele>27.4</ele>
        <time>2020-06-05T10:49:32Z</time>
      </trkpt>
      <trkpt lat="47.10754" lon="-2.08752">
        <ele>27.4</ele>
        <time>2020-06-05T10:49:33Z</time>
      </trkpt>
      <trkpt lat="47.10756" lon="-2.08758">
        <ele>27.4</ele>
        <time>2020-06-05T10:49:34Z</time>
      </trkpt>
      <trkpt lat="47.10757" lon="-2.08763">
        <ele>27.4</ele>
        <time>2020-06-05T10:49:35Z</time>
      </trkpt>
      <trkpt lat="47.1076" lon="-2.08769">
        <ele>27.3</ele>
        <time>2020-06-05T10:49:36Z</time>
      </trkpt>
      <trkpt lat="47.10761" lon="-2.08775">
        <ele>27.3</ele>
        <time>2020-06-05T10:49:37Z</time>
      </trkpt>
      <trkpt lat="47.10764" lon="-2.08781">
        <ele>27.3</ele>
        <time>2020-06-05T10:49:38Z</time>
      </trkpt>
      <trkpt lat="47.10766" lon="-2.08787">
        <ele>27.3</ele>
        <time>2020-06-05T10:49:39Z</time>
      </trkpt>
      <trkpt lat="47.10768" lon="-2.08792">
        <ele>27.3</ele>
        <time>2020-06-05T10:49:40Z</time>
      </trkpt>
      <trkpt lat="47.1077" lon="-2.08798">
        <ele>27.3</ele>
        <time>2020-06-05T10:49:41Z</time>
      </trkpt>
      <trkpt lat="47.10771" lon="-2.08805">
        <ele>27.3</ele>
        <time>2020-06-05T10:49:42Z</time>
      </trkpt>
      <trkpt lat="47.10772" lon="-2.08811">
        <ele>27.2</ele>
        <time>2020-06-05T10:49:43Z</time>
      </trkpt>
      <trkpt lat="47.10773" lon="-2.08818">
        <ele>27.2</ele>
        <time>2020-06-05T10:49:44Z</time>
      </trkpt>
      <trkpt lat="47.10774" lon="-2.08824">
        <ele>27.1</ele>
        <time>2020-06-05T10:49:45Z</time>
      </trkpt>
      <trkpt lat="47.10774" lon="-2.0883">
        <ele>27</ele>
        <time>2020-06-05T10:49:46Z</time>
      </trkpt>
      <trkpt lat="47.10774" lon="-2.08836">
        <ele>26.9</ele>
        <time>2020-06-05T10:49:47Z</time>
      </trkpt>
      <trkpt lat="47.10773" lon="-2.08842">
        <ele>26.9</ele>
        <time>2020-06-05T10:49:48Z</time>
      </trkpt>
      <trkpt lat="47.10773" lon="-2.08847">
        <ele>26.8</ele>
        <time>2020-06-05T10:49:49Z</time>
      </trkpt>
      <trkpt lat="47.10772" lon="-2.08853">
        <ele>26.7</ele>
        <time>2020-06-05T10:49:50Z</time>
      </trkpt>
      <trkpt lat="47.10772" lon="-2.08858">
        <ele>26.7</ele>
        <time>2020-06-05T10:49:51Z</time>
      </trkpt>
      <trkpt lat="47.10772" lon="-2.08864">
        <ele>26.6</ele>
        <time>2020-06-05T10:49:52Z</time>
      </trkpt>
      <trkpt lat="47.10771" lon="-2.08869">
        <ele>26.6</ele>
        <time>2020-06-05T10:49:53Z</time>
      </trkpt>
      <trkpt lat="47.10771" lon="-2.08871">
        <ele>26.6</ele>
        <time>2020-06-05T10:49:54Z</time>
      </trkpt>
      <trkpt lat="47.10771" lon="-2.08874">
        <ele>26.6</ele>
        <time>2020-06-05T10:49:55Z</time>
      </trkpt>
      <trkpt lat="47.10771" lon="-2.08875">
        <ele>26.6</ele>
        <time>2020-06-05T10:49:56Z</time>
      </trkpt>
      <trkpt lat="47.10771" lon="-2.08877">
        <ele>26.6</ele>
        <time>2020-06-05T10:49:57Z</time>
      </trkpt>
      <trkpt lat="47.1077" lon="-2.08881">
        <ele>26.5</ele>
        <time>2020-06-05T10:49:58Z</time>
      </trkpt>
      <trkpt lat="47.1077" lon="-2.08882">
        <ele>26.5</ele>
        <time>2020-06-05T10:49:59Z</time>
      </trkpt>
      <trkpt lat="47.10768" lon="-2.08885">
        <ele>26.5</ele>
        <time>2020-06-05T10:50:00Z</time>
      </trkpt>
      <trkpt lat="47.10766" lon="-2.08888">
        <ele>26.4</ele>
        <time>2020-06-05T10:50:01Z</time>
      </trkpt>
      <trkpt lat="47.10763" lon="-2.08891">
        <ele>26.3</ele>
        <time>2020-06-05T10:50:02Z</time>
      </trkpt>
      <trkpt lat="47.10761" lon="-2.08894">
        <ele>26.3</ele>
        <time>2020-06-05T10:50:03Z</time>
      </trkpt>
      <trkpt lat="47.1076" lon="-2.08898">
        <ele>26.2</ele>
        <time>2020-06-05T10:50:04Z</time>
      </trkpt>
      <trkpt lat="47.10758" lon="-2.08903">
        <ele>26.2</ele>
        <time>2020-06-05T10:50:05Z</time>
      </trkpt>
      <trkpt lat="47.10756" lon="-2.08908">
        <ele>26.1</ele>
        <time>2020-06-05T10:50:06Z</time>
      </trkpt>
      <trkpt lat="47.10753" lon="-2.08914">
        <ele>26</ele>
        <time>2020-06-05T10:50:07Z</time>
      </trkpt>
      <trkpt lat="47.1075" lon="-2.08919">
        <ele>25.9</ele>
        <time>2020-06-05T10:50:08Z</time>
      </trkpt>
      <trkpt lat="47.10747" lon="-2.08925">
        <ele>25.9</ele>
        <time>2020-06-05T10:50:09Z</time>
      </trkpt>
      <trkpt lat="47.10745" lon="-2.08931">
        <ele>25.8</ele>
        <time>2020-06-05T10:50:10Z</time>
      </trkpt>
      <trkpt lat="47.10743" lon="-2.08939">
        <ele>25.7</ele>
        <time>2020-06-05T10:50:11Z</time>
      </trkpt>
      <trkpt lat="47.10742" lon="-2.08948">
        <ele>25.7</ele>
        <time>2020-06-05T10:50:12Z</time>
      </trkpt>
      <trkpt lat="47.10741" lon="-2.08956">
        <ele>25.6</ele>
        <time>2020-06-05T10:50:13Z</time>
      </trkpt>
      <trkpt lat="47.1074" lon="-2.08963">
        <ele>25.6</ele>
        <time>2020-06-05T10:50:14Z</time>
      </trkpt>
      <trkpt lat="47.10741" lon="-2.08971">
        <ele>25.6</ele>
        <time>2020-06-05T10:50:15Z</time>
      </trkpt>
      <trkpt lat="47.10742" lon="-2.08981">
        <ele>25.6</ele>
        <time>2020-06-05T10:50:16Z</time>
      </trkpt>
      <trkpt lat="47.10743" lon="-2.0899">
        <ele>25.6</ele>
        <time>2020-06-05T10:50:17Z</time>
      </trkpt>
      <trkpt lat="47.10746" lon="-2.09">
        <ele>25.6</ele>
        <time>2020-06-05T10:50:18Z</time>
      </trkpt>
      <trkpt lat="47.10748" lon="-2.09008">
        <ele>25.7</ele>
        <time>2020-06-05T10:50:19Z</time>
      </trkpt>
      <trkpt lat="47.1075" lon="-2.09016">
        <ele>25.7</ele>
        <time>2020-06-05T10:50:20Z</time>
      </trkpt>
      <trkpt lat="47.10752" lon="-2.09023">
        <ele>25.8</ele>
        <time>2020-06-05T10:50:21Z</time>
      </trkpt>
      <trkpt lat="47.10754" lon="-2.09032">
        <ele>25.8</ele>
        <time>2020-06-05T10:50:22Z</time>
      </trkpt>
      <trkpt lat="47.10757" lon="-2.09039">
        <ele>25.9</ele>
        <time>2020-06-05T10:50:23Z</time>
      </trkpt>
      <trkpt lat="47.10758" lon="-2.09045">
        <ele>25.9</ele>
        <time>2020-06-05T10:50:24Z</time>
      </trkpt>
      <trkpt lat="47.1076" lon="-2.09052">
        <ele>26</ele>
        <time>2020-06-05T10:50:25Z</time>
      </trkpt>
      <trkpt lat="47.10762" lon="-2.09058">
        <ele>26</ele>
        <time>2020-06-05T10:50:26Z</time>
      </trkpt>
      <trkpt lat="47.10764" lon="-2.09062">
        <ele>26.1</ele>
        <time>2020-06-05T10:50:27Z</time>
      </trkpt>
      <trkpt lat="47.10768" lon="-2.09064">
        <ele>26.1</ele>
        <time>2020-06-05T10:50:28Z</time>
      </trkpt>
      <trkpt lat="47.10771" lon="-2.09065">
        <ele>26.2</ele>
        <time>2020-06-05T10:50:29Z</time>
      </trkpt>
      <trkpt lat="47.10776" lon="-2.09066">
        <ele>26.3</ele>
        <time>2020-06-05T10:50:30Z</time>
      </trkpt>
      <trkpt lat="47.1078" lon="-2.09067">
        <ele>26.3</ele>
        <time>2020-06-05T10:50:31Z</time>
      </trkpt>
      <trkpt lat="47.10783" lon="-2.0907">
        <ele>26.3</ele>
        <time>2020-06-05T10:50:32Z</time>
      </trkpt>
      <trkpt lat="47.10786" lon="-2.09072">
        <ele>26.4</ele>
        <time>2020-06-05T10:50:33Z</time>
      </trkpt>
      <trkpt lat="47.10789" lon="-2.09077">
        <ele>26.4</ele>
        <time>2020-06-05T10:50:34Z</time>
      </trkpt>
      <trkpt lat="47.10792" lon="-2.09081">
        <ele>26.4</ele>
        <time>2020-06-05T10:50:35Z</time>
      </trkpt>
      <trkpt lat="47.10796" lon="-2.09085">
        <ele>26.4</ele>
        <time>2020-06-05T10:50:36Z</time>
      </trkpt>
      <trkpt lat="47.10799" lon="-2.09088">
        <ele>26.5</ele>
        <time>2020-06-05T10:50:37Z</time>
      </trkpt>
      <trkpt lat="47.10801" lon="-2.09091">
        <ele>26.5</ele>
        <time>2020-06-05T10:50:38Z</time>
      </trkpt>
      <trkpt lat="47.10804" lon="-2.09095">
        <ele>26.5</ele>
        <time>2020-06-05T10:50:39Z</time>
      </trkpt>
      <trkpt lat="47.10807" lon="-2.09098">
        <ele>26.5</ele>
        <time>2020-06-05T10:50:40Z</time>
      </trkpt>
      <trkpt lat="47.10811" lon="-2.09102">
        <ele>26.5</ele>
        <time>2020-06-05T10:50:41Z</time>
      </trkpt>
      <trkpt lat="47.10814" lon="-2.09105">
        <ele>26.4</ele>
        <time>2020-06-05T10:50:42Z</time>
      </trkpt>
      <trkpt lat="47.10816" lon="-2.09108">
        <ele>26.4</ele>
        <time>2020-06-05T10:50:43Z</time>
      </trkpt>
      <trkpt lat="47.10818" lon="-2.09113">
        <ele>26.4</ele>
        <time>2020-06-05T10:50:44Z</time>
      </trkpt>
      <trkpt lat="47.1082" lon="-2.09119">
        <ele>26.4</ele>
        <time>2020-06-05T10:50:45Z</time>
      </trkpt>
      <trkpt lat="47.10821" lon="-2.09125">
        <ele>26.3</ele>
        <time>2020-06-05T10:50:46Z</time>
      </trkpt>
      <trkpt lat="47.10823" lon="-2.09132">
        <ele>26.3</ele>
        <time>2020-06-05T10:50:47Z</time>
      </trkpt>
      <trkpt lat="47.10825" lon="-2.0914">
        <ele>26.2</ele>
        <time>2020-06-05T10:50:48Z</time>
      </trkpt>
      <trkpt lat="47.10827" lon="-2.09147">
        <ele>26.2</ele>
        <time>2020-06-05T10:50:49Z</time>
      </trkpt>
      <trkpt lat="47.10828" lon="-2.09155">
        <ele>26.1</ele>
        <time>2020-06-05T10:50:50Z</time>
      </trkpt>
      <trkpt lat="47.1083" lon="-2.09162">
        <ele>26.1</ele>
        <time>2020-06-05T10:50:51Z</time>
      </trkpt>
      <trkpt lat="47.10831" lon="-2.0917">
        <ele>26</ele>
        <time>2020-06-05T10:50:52Z</time>
      </trkpt>
      <trkpt lat="47.10832" lon="-2.09178">
        <ele>26</ele>
        <time>2020-06-05T10:50:53Z</time>
      </trkpt>
      <trkpt lat="47.10833" lon="-2.09186">
        <ele>25.9</ele>
        <time>2020-06-05T10:50:54Z</time>
      </trkpt>
      <trkpt lat="47.10835" lon="-2.09194">
        <ele>25.9</ele>
        <time>2020-06-05T10:50:55Z</time>
      </trkpt>
      <trkpt lat="47.10837" lon="-2.09201">
        <ele>25.8</ele>
        <time>2020-06-05T10:50:56Z</time>
      </trkpt>
      <trkpt lat="47.10838" lon="-2.09209">
        <ele>25.8</ele>
        <time>2020-06-05T10:50:57Z</time>
      </trkpt>
      <trkpt lat="47.1084" lon="-2.09217">
        <ele>25.7</ele>
        <time>2020-06-05T10:50:58Z</time>
      </trkpt>
      <trkpt lat="47.10842" lon="-2.09224">
        <ele>25.7</ele>
        <time>2020-06-05T10:50:59Z</time>
      </trkpt>
      <trkpt lat="47.10844" lon="-2.09231">
        <ele>25.7</ele>
        <time>2020-06-05T10:51:00Z</time>
      </trkpt>
      <trkpt lat="47.10846" lon="-2.09237">
        <ele>25.7</ele>
        <time>2020-06-05T10:51:01Z</time>
      </trkpt>
      <trkpt lat="47.10848" lon="-2.09244">
        <ele>25.7</ele>
        <time>2020-06-05T10:51:02Z</time>
      </trkpt>
      <trkpt lat="47.1085" lon="-2.09251">
        <ele>25.7</ele>
        <time>2020-06-05T10:51:03Z</time>
      </trkpt>
      <trkpt lat="47.10852" lon="-2.09258">
        <ele>25.7</ele>
        <time>2020-06-05T10:51:04Z</time>
      </trkpt>
      <trkpt lat="47.10854" lon="-2.09264">
        <ele>25.7</ele>
        <time>2020-06-05T10:51:05Z</time>
      </trkpt>
      <trkpt lat="47.10855" lon="-2.09268">
        <ele>25.7</ele>
        <time>2020-06-05T10:51:06Z</time>
      </trkpt>
      <trkpt lat="47.10856" lon="-2.09273">
        <ele>25.7</ele>
        <time>2020-06-05T10:51:07Z</time>
      </trkpt>
      <trkpt lat="47.10855" lon="-2.09275">
        <ele>25.7</ele>
        <time>2020-06-05T10:51:08Z</time>
      </trkpt>
      <trkpt lat="47.10855" lon="-2.09276">
        <ele>25.7</ele>
        <time>2020-06-05T10:51:09Z</time>
      </trkpt>
      <trkpt lat="47.10854" lon="-2.09275">
        <ele>25.7</ele>
        <time>2020-06-05T10:51:10Z</time>
      </trkpt>
      <trkpt lat="47.10853" lon="-2.09276">
        <ele>25.7</ele>
        <time>2020-06-05T10:51:11Z</time>
      </trkpt>
      <trkpt lat="47.10853" lon="-2.09277">
        <ele>25.7</ele>
        <time>2020-06-05T10:51:12Z</time>
      </trkpt>
      <trkpt lat="47.10853" lon="-2.09277">
        <ele>25.7</ele>
        <time>2020-06-05T10:51:13Z</time>
      </trkpt>
      <trkpt lat="47.10853" lon="-2.09278">
        <ele>25.7</ele>
        <time>2020-06-05T10:51:14Z</time>
      </trkpt>
      <trkpt lat="47.10853" lon="-2.09278">
        <ele>25.7</ele>
        <time>2020-06-05T10:51:15Z</time>
      </trkpt>
      <trkpt lat="47.10852" lon="-2.09277">
        <ele>25.7</ele>
        <time>2020-06-05T10:51:16Z</time>
      </trkpt>
      <trkpt lat="47.10852" lon="-2.09278">
        <ele>25.7</ele>
        <time>2020-06-05T10:51:17Z</time>
      </trkpt>
      <trkpt lat="47.10851" lon="-2.09277">
        <ele>25.7</ele>
        <time>2020-06-05T10:51:18Z</time>
      </trkpt>
      <trkpt lat="47.10852" lon="-2.09277">
        <ele>25.7</ele>
        <time>2020-06-05T10:51:19Z</time>
      </trkpt>
      <trkpt lat="47.10852" lon="-2.09278">
        <ele>25.7</ele>
        <time>2020-06-05T10:51:20Z</time>
      </trkpt>
      <trkpt lat="47.10852" lon="-2.09278">
        <ele>25.7</ele>
        <time>2020-06-05T10:51:21Z</time>
      </trkpt>
      <trkpt lat="47.10851" lon="-2.09277">
        <ele>25.7</ele>
        <time>2020-06-05T10:51:22Z</time>
      </trkpt>
      <trkpt lat="47.10852" lon="-2.09277">
        <ele>25.7</ele>
        <time>2020-06-05T10:51:23Z</time>
      </trkpt>
      <trkpt lat="47.10852" lon="-2.09277">
        <ele>25.7</ele>
        <time>2020-06-05T10:51:24Z</time>
      </trkpt>
      <trkpt lat="47.10852" lon="-2.09277">
        <ele>25.7</ele>
        <time>2020-06-05T10:51:25Z</time>
      </trkpt>
      <trkpt lat="47.10852" lon="-2.09277">
        <ele>25.7</ele>
        <time>2020-06-05T10:51:26Z</time>
      </trkpt>
      <trkpt lat="47.10852" lon="-2.09276">
        <ele>25.7</ele>
        <time>2020-06-05T10:51:27Z</time>
      </trkpt>
      <trkpt lat="47.10852" lon="-2.09276">
        <ele>25.7</ele>
        <time>2020-06-05T10:51:28Z</time>
      </trkpt>
      <trkpt lat="47.10852" lon="-2.09276">
        <ele>25.7</ele>
        <time>2020-06-05T10:51:29Z</time>
      </trkpt>
      <trkpt lat="47.10852" lon="-2.09276">
        <ele>25.7</ele>
        <time>2020-06-05T10:51:30Z</time>
      </trkpt>
      <trkpt lat="47.10852" lon="-2.09277">
        <ele>25.7</ele>
        <time>2020-06-05T10:51:31Z</time>
      </trkpt>
      <trkpt lat="47.10851" lon="-2.09277">
        <ele>25.7</ele>
        <time>2020-06-05T10:51:32Z</time>
      </trkpt>
      <trkpt lat="47.10851" lon="-2.09277">
        <ele>25.7</ele>
        <time>2020-06-05T10:51:33Z</time>
      </trkpt>
      <trkpt lat="47.1085" lon="-2.09278">
        <ele>25.7</ele>
        <time>2020-06-05T10:51:34Z</time>
      </trkpt>
      <trkpt lat="47.1085" lon="-2.09278">
        <ele>25.7</ele>
        <time>2020-06-05T10:51:35Z</time>
      </trkpt>
      <trkpt lat="47.1085" lon="-2.09278">
        <ele>25.7</ele>
        <time>2020-06-05T10:51:36Z</time>
      </trkpt>
      <trkpt lat="47.1085" lon="-2.09278">
        <ele>25.7</ele>
        <time>2020-06-05T10:51:37Z</time>
      </trkpt>
      <trkpt lat="47.1085" lon="-2.09278">
        <ele>25.7</ele>
        <time>2020-06-05T10:51:38Z</time>
      </trkpt>
      <trkpt lat="47.1085" lon="-2.09278">
        <ele>25.7</ele>
        <time>2020-06-05T10:51:39Z</time>
      </trkpt>
      <trkpt lat="47.10849" lon="-2.09278">
        <ele>25.7</ele>
        <time>2020-06-05T10:51:40Z</time>
      </trkpt>
      <trkpt lat="47.10849" lon="-2.09279">
        <ele>25.7</ele>
        <time>2020-06-05T10:51:41Z</time>
      </trkpt>
      <trkpt lat="47.10849" lon="-2.09279">
        <ele>25.7</ele>
        <time>2020-06-05T10:51:42Z</time>
      </trkpt>
      <trkpt lat="47.10849" lon="-2.09281">
        <ele>25.7</ele>
        <time>2020-06-05T10:51:43Z</time>
      </trkpt>
      <trkpt lat="47.10848" lon="-2.0928">
        <ele>25.7</ele>
        <time>2020-06-05T10:51:44Z</time>
      </trkpt>
      <trkpt lat="47.10846" lon="-2.09278">
        <ele>25.7</ele>
        <time>2020-06-05T10:51:45Z</time>
      </trkpt>
      <trkpt lat="47.10845" lon="-2.09277">
        <ele>25.7</ele>
        <time>2020-06-05T10:51:46Z</time>
      </trkpt>
      <trkpt lat="47.10844" lon="-2.09272">
        <ele>25.7</ele>
        <time>2020-06-05T10:51:47Z</time>
      </trkpt>
      <trkpt lat="47.10844" lon="-2.0927">
        <ele>25.7</ele>
        <time>2020-06-05T10:51:48Z</time>
      </trkpt>
      <trkpt lat="47.10843" lon="-2.09265">
        <ele>25.7</ele>
        <time>2020-06-05T10:51:49Z</time>
      </trkpt>
      <trkpt lat="47.10843" lon="-2.09261">
        <ele>25.7</ele>
        <time>2020-06-05T10:51:50Z</time>
      </trkpt>
      <trkpt lat="47.10841" lon="-2.09257">
        <ele>25.7</ele>
        <time>2020-06-05T10:51:51Z</time>
      </trkpt>
      <trkpt lat="47.1084" lon="-2.09251">
        <ele>25.7</ele>
        <time>2020-06-05T10:51:52Z</time>
      </trkpt>
      <trkpt lat="47.10838" lon="-2.09245">
        <ele>25.7</ele>
        <time>2020-06-05T10:51:53Z</time>
      </trkpt>
      <trkpt lat="47.10838" lon="-2.09238">
        <ele>25.7</ele>
        <time>2020-06-05T10:51:54Z</time>
      </trkpt>
      <trkpt lat="47.10837" lon="-2.09231">
        <ele>25.7</ele>
        <time>2020-06-05T10:51:55Z</time>
      </trkpt>
      <trkpt lat="47.10837" lon="-2.09226">
        <ele>25.7</ele>
        <time>2020-06-05T10:51:56Z</time>
      </trkpt>
      <trkpt lat="47.10836" lon="-2.09219">
        <ele>25.7</ele>
        <time>2020-06-05T10:51:57Z</time>
      </trkpt>
      <trkpt lat="47.10834" lon="-2.09213">
        <ele>25.8</ele>
        <time>2020-06-05T10:51:58Z</time>
      </trkpt>
      <trkpt lat="47.10833" lon="-2.09206">
        <ele>25.8</ele>
        <time>2020-06-05T10:51:59Z</time>
      </trkpt>
      <trkpt lat="47.10832" lon="-2.09199">
        <ele>25.9</ele>
        <time>2020-06-05T10:52:00Z</time>
      </trkpt>
      <trkpt lat="47.1083" lon="-2.09193">
        <ele>25.9</ele>
        <time>2020-06-05T10:52:01Z</time>
      </trkpt>
      <trkpt lat="47.10829" lon="-2.09186">
        <ele>26</ele>
        <time>2020-06-05T10:52:02Z</time>
      </trkpt>
      <trkpt lat="47.10827" lon="-2.09179">
        <ele>26</ele>
        <time>2020-06-05T10:52:03Z</time>
      </trkpt>
      <trkpt lat="47.10828" lon="-2.0917">
        <ele>26.1</ele>
        <time>2020-06-05T10:52:04Z</time>
      </trkpt>
      <trkpt lat="47.10828" lon="-2.09164">
        <ele>26.1</ele>
        <time>2020-06-05T10:52:05Z</time>
      </trkpt>
      <trkpt lat="47.10827" lon="-2.09157">
        <ele>26.1</ele>
        <time>2020-06-05T10:52:06Z</time>
      </trkpt>
      <trkpt lat="47.10826" lon="-2.09151">
        <ele>26.2</ele>
        <time>2020-06-05T10:52:07Z</time>
      </trkpt>
      <trkpt lat="47.10825" lon="-2.09144">
        <ele>26.2</ele>
        <time>2020-06-05T10:52:08Z</time>
      </trkpt>
      <trkpt lat="47.10824" lon="-2.09138">
        <ele>26.3</ele>
        <time>2020-06-05T10:52:09Z</time>
      </trkpt>
      <trkpt lat="47.10823" lon="-2.09133">
        <ele>26.3</ele>
        <time>2020-06-05T10:52:10Z</time>
      </trkpt>
      <trkpt lat="47.10822" lon="-2.09126">
        <ele>26.3</ele>
        <time>2020-06-05T10:52:11Z</time>
      </trkpt>
      <trkpt lat="47.1082" lon="-2.0912">
        <ele>26.4</ele>
        <time>2020-06-05T10:52:12Z</time>
      </trkpt>
      <trkpt lat="47.10818" lon="-2.09114">
        <ele>26.4</ele>
        <time>2020-06-05T10:52:13Z</time>
      </trkpt>
      <trkpt lat="47.10817" lon="-2.09108">
        <ele>26.4</ele>
        <time>2020-06-05T10:52:14Z</time>
      </trkpt>
      <trkpt lat="47.10817" lon="-2.09102">
        <ele>26.5</ele>
        <time>2020-06-05T10:52:15Z</time>
      </trkpt>
      <trkpt lat="47.10817" lon="-2.09096">
        <ele>26.9</ele>
        <time>2020-06-05T10:52:16Z</time>
      </trkpt>
      <trkpt lat="47.10819" lon="-2.09091">
        <ele>27.1</ele>
        <time>2020-06-05T10:52:17Z</time>
      </trkpt>
      <trkpt lat="47.10821" lon="-2.09086">
        <ele>27.2</ele>
        <time>2020-06-05T10:52:18Z</time>
      </trkpt>
      <trkpt lat="47.10824" lon="-2.09082">
        <ele>27.3</ele>
        <time>2020-06-05T10:52:19Z</time>
      </trkpt>
      <trkpt lat="47.10827" lon="-2.09078">
        <ele>27.4</ele>
        <time>2020-06-05T10:52:20Z</time>
      </trkpt>
      <trkpt lat="47.10829" lon="-2.09075">
        <ele>27.5</ele>
        <time>2020-06-05T10:52:21Z</time>
      </trkpt>
      <trkpt lat="47.10833" lon="-2.09071">
        <ele>27.7</ele>
        <time>2020-06-05T10:52:22Z</time>
      </trkpt>
      <trkpt lat="47.10837" lon="-2.09068">
        <ele>27.8</ele>
        <time>2020-06-05T10:52:23Z</time>
      </trkpt>
      <trkpt lat="47.10841" lon="-2.09066">
        <ele>27.9</ele>
        <time>2020-06-05T10:52:24Z</time>
      </trkpt>
      <trkpt lat="47.10845" lon="-2.09064">
        <ele>27.9</ele>
        <time>2020-06-05T10:52:25Z</time>
      </trkpt>
      <trkpt lat="47.10849" lon="-2.09063">
        <ele>28</ele>
        <time>2020-06-05T10:52:26Z</time>
      </trkpt>
      <trkpt lat="47.10852" lon="-2.09062">
        <ele>28.1</ele>
        <time>2020-06-05T10:52:27Z</time>
      </trkpt>
      <trkpt lat="47.10856" lon="-2.09061">
        <ele>28.2</ele>
        <time>2020-06-05T10:52:28Z</time>
      </trkpt>
      <trkpt lat="47.1086" lon="-2.0906">
        <ele>28.3</ele>
        <time>2020-06-05T10:52:29Z</time>
      </trkpt>
      <trkpt lat="47.10863" lon="-2.09059">
        <ele>28.4</ele>
        <time>2020-06-05T10:52:30Z</time>
      </trkpt>
      <trkpt lat="47.10866" lon="-2.09057">
        <ele>28.5</ele>
        <time>2020-06-05T10:52:31Z</time>
      </trkpt>
      <trkpt lat="47.10869" lon="-2.09055">
        <ele>28.5</ele>
        <time>2020-06-05T10:52:32Z</time>
      </trkpt>
      <trkpt lat="47.10872" lon="-2.09053">
        <ele>28.6</ele>
        <time>2020-06-05T10:52:33Z</time>
      </trkpt>
      <trkpt lat="47.10876" lon="-2.09051">
        <ele>28.7</ele>
        <time>2020-06-05T10:52:34Z</time>
      </trkpt>
      <trkpt lat="47.1088" lon="-2.0905">
        <ele>28.7</ele>
        <time>2020-06-05T10:52:35Z</time>
      </trkpt>
      <trkpt lat="47.10884" lon="-2.09047">
        <ele>28.8</ele>
        <time>2020-06-05T10:52:36Z</time>
      </trkpt>
      <trkpt lat="47.10888" lon="-2.09047">
        <ele>28.9</ele>
        <time>2020-06-05T10:52:37Z</time>
      </trkpt>
      <trkpt lat="47.10892" lon="-2.09046">
        <ele>28.9</ele>
        <time>2020-06-05T10:52:38Z</time>
      </trkpt>
      <trkpt lat="47.10897" lon="-2.09045">
        <ele>28.9</ele>
        <time>2020-06-05T10:52:39Z</time>
      </trkpt>
      <trkpt lat="47.10901" lon="-2.09044">
        <ele>29</ele>
        <time>2020-06-05T10:52:40Z</time>
      </trkpt>
      <trkpt lat="47.10906" lon="-2.09043">
        <ele>29</ele>
        <time>2020-06-05T10:52:41Z</time>
      </trkpt>
      <trkpt lat="47.10912" lon="-2.09042">
        <ele>29</ele>
        <time>2020-06-05T10:52:42Z</time>
      </trkpt>
      <trkpt lat="47.10916" lon="-2.09042">
        <ele>29</ele>
        <time>2020-06-05T10:52:43Z</time>
      </trkpt>
      <trkpt lat="47.10921" lon="-2.09042">
        <ele>29</ele>
        <time>2020-06-05T10:52:44Z</time>
      </trkpt>
      <trkpt lat="47.10924" lon="-2.09041">
        <ele>29</ele>
        <time>2020-06-05T10:52:45Z</time>
      </trkpt>
      <trkpt lat="47.10927" lon="-2.09042">
        <ele>29</ele>
        <time>2020-06-05T10:52:46Z</time>
      </trkpt>
      <trkpt lat="47.1093" lon="-2.09042">
        <ele>29</ele>
        <time>2020-06-05T10:52:47Z</time>
      </trkpt>
      <trkpt lat="47.10933" lon="-2.09042">
        <ele>29</ele>
        <time>2020-06-05T10:52:48Z</time>
      </trkpt>
      <trkpt lat="47.10936" lon="-2.09042">
        <ele>29</ele>
        <time>2020-06-05T10:52:49Z</time>
      </trkpt>
      <trkpt lat="47.10937" lon="-2.09042">
        <ele>29</ele>
        <time>2020-06-05T10:52:50Z</time>
      </trkpt>
      <trkpt lat="47.1094" lon="-2.09039">
        <ele>29</ele>
        <time>2020-06-05T10:52:51Z</time>
      </trkpt>
      <trkpt lat="47.10941" lon="-2.09038">
        <ele>29</ele>
        <time>2020-06-05T10:52:52Z</time>
      </trkpt>
      <trkpt lat="47.10944" lon="-2.09037">
        <ele>29</ele>
        <time>2020-06-05T10:52:53Z</time>
      </trkpt>
      <trkpt lat="47.10945" lon="-2.09037">
        <ele>29</ele>
        <time>2020-06-05T10:52:54Z</time>
      </trkpt>
      <trkpt lat="47.10948" lon="-2.09037">
        <ele>29</ele>
        <time>2020-06-05T10:52:55Z</time>
      </trkpt>
      <trkpt lat="47.10949" lon="-2.09037">
        <ele>29</ele>
        <time>2020-06-05T10:52:56Z</time>
      </trkpt>
      <trkpt lat="47.10953" lon="-2.09037">
        <ele>29.1</ele>
        <time>2020-06-05T10:52:57Z</time>
      </trkpt>
      <trkpt lat="47.10954" lon="-2.09037">
        <ele>29.1</ele>
        <time>2020-06-05T10:52:58Z</time>
      </trkpt>
      <trkpt lat="47.10957" lon="-2.09035">
        <ele>29.1</ele>
        <time>2020-06-05T10:52:59Z</time>
      </trkpt>
      <trkpt lat="47.10958" lon="-2.09035">
        <ele>29.1</ele>
        <time>2020-06-05T10:53:00Z</time>
      </trkpt>
      <trkpt lat="47.10962" lon="-2.09032">
        <ele>29.2</ele>
        <time>2020-06-05T10:53:01Z</time>
      </trkpt>
      <trkpt lat="47.10964" lon="-2.09031">
        <ele>29.2</ele>
        <time>2020-06-05T10:53:02Z</time>
      </trkpt>
      <trkpt lat="47.10967" lon="-2.09029">
        <ele>29.2</ele>
        <time>2020-06-05T10:53:03Z</time>
      </trkpt>
      <trkpt lat="47.1097" lon="-2.09026">
        <ele>29.3</ele>
        <time>2020-06-05T10:53:04Z</time>
      </trkpt>
      <trkpt lat="47.10974" lon="-2.09024">
        <ele>29.3</ele>
        <time>2020-06-05T10:53:05Z</time>
      </trkpt>
      <trkpt lat="47.10977" lon="-2.09023">
        <ele>29.3</ele>
        <time>2020-06-05T10:53:06Z</time>
      </trkpt>
      <trkpt lat="47.1098" lon="-2.09021">
        <ele>29.3</ele>
        <time>2020-06-05T10:53:07Z</time>
      </trkpt>
      <trkpt lat="47.10983" lon="-2.09021">
        <ele>29.3</ele>
        <time>2020-06-05T10:53:08Z</time>
      </trkpt>
      <trkpt lat="47.10985" lon="-2.09021">
        <ele>29.3</ele>
        <time>2020-06-05T10:53:09Z</time>
      </trkpt>
      <trkpt lat="47.10987" lon="-2.09023">
        <ele>29.3</ele>
        <time>2020-06-05T10:53:10Z</time>
      </trkpt>
      <trkpt lat="47.1099" lon="-2.09027">
        <ele>29.3</ele>
        <time>2020-06-05T10:53:11Z</time>
      </trkpt>
      <trkpt lat="47.10992" lon="-2.09032">
        <ele>29.4</ele>
        <time>2020-06-05T10:53:12Z</time>
      </trkpt>
      <trkpt lat="47.10995" lon="-2.09037">
        <ele>29.4</ele>
        <time>2020-06-05T10:53:13Z</time>
      </trkpt>
      <trkpt lat="47.10998" lon="-2.09041">
        <ele>29.5</ele>
        <time>2020-06-05T10:53:14Z</time>
      </trkpt>
      <trkpt lat="47.11001" lon="-2.09045">
        <ele>29.5</ele>
        <time>2020-06-05T10:53:15Z</time>
      </trkpt>
      <trkpt lat="47.11004" lon="-2.09049">
        <ele>29.6</ele>
        <time>2020-06-05T10:53:16Z</time>
      </trkpt>
      <trkpt lat="47.11007" lon="-2.09052">
        <ele>29.6</ele>
        <time>2020-06-05T10:53:17Z</time>
      </trkpt>
      <trkpt lat="47.11011" lon="-2.09057">
        <ele>29.7</ele>
        <time>2020-06-05T10:53:18Z</time>
      </trkpt>
      <trkpt lat="47.11015" lon="-2.09062">
        <ele>29.7</ele>
        <time>2020-06-05T10:53:19Z</time>
      </trkpt>
      <trkpt lat="47.11019" lon="-2.09066">
        <ele>29.8</ele>
        <time>2020-06-05T10:53:20Z</time>
      </trkpt>
      <trkpt lat="47.11022" lon="-2.0907">
        <ele>29.9</ele>
        <time>2020-06-05T10:53:21Z</time>
      </trkpt>
      <trkpt lat="47.11027" lon="-2.09075">
        <ele>30</ele>
        <time>2020-06-05T10:53:22Z</time>
      </trkpt>
      <trkpt lat="47.1103" lon="-2.0908">
        <ele>30.1</ele>
        <time>2020-06-05T10:53:23Z</time>
      </trkpt>
      <trkpt lat="47.11035" lon="-2.09085">
        <ele>30.1</ele>
        <time>2020-06-05T10:53:24Z</time>
      </trkpt>
      <trkpt lat="47.11038" lon="-2.0909">
        <ele>30.2</ele>
        <time>2020-06-05T10:53:25Z</time>
      </trkpt>
      <trkpt lat="47.11042" lon="-2.09094">
        <ele>30.3</ele>
        <time>2020-06-05T10:53:26Z</time>
      </trkpt>
      <trkpt lat="47.11046" lon="-2.091">
        <ele>30.4</ele>
        <time>2020-06-05T10:53:27Z</time>
      </trkpt>
      <trkpt lat="47.1105" lon="-2.09104">
        <ele>30.4</ele>
        <time>2020-06-05T10:53:28Z</time>
      </trkpt>
      <trkpt lat="47.11053" lon="-2.09108">
        <ele>30.5</ele>
        <time>2020-06-05T10:53:29Z</time>
      </trkpt>
      <trkpt lat="47.11056" lon="-2.09112">
        <ele>30.6</ele>
        <time>2020-06-05T10:53:30Z</time>
      </trkpt>
      <trkpt lat="47.11059" lon="-2.09116">
        <ele>30.6</ele>
        <time>2020-06-05T10:53:31Z</time>
      </trkpt>
      <trkpt lat="47.11062" lon="-2.0912">
        <ele>30.7</ele>
        <time>2020-06-05T10:53:32Z</time>
      </trkpt>
      <trkpt lat="47.11065" lon="-2.09125">
        <ele>30.7</ele>
        <time>2020-06-05T10:53:33Z</time>
      </trkpt>
      <trkpt lat="47.11069" lon="-2.09128">
        <ele>30.8</ele>
        <time>2020-06-05T10:53:34Z</time>
      </trkpt>
      <trkpt lat="47.11072" lon="-2.09132">
        <ele>30.8</ele>
        <time>2020-06-05T10:53:35Z</time>
      </trkpt>
      <trkpt lat="47.11076" lon="-2.09136">
        <ele>30.9</ele>
        <time>2020-06-05T10:53:36Z</time>
      </trkpt>
      <trkpt lat="47.1108" lon="-2.09139">
        <ele>31</ele>
        <time>2020-06-05T10:53:37Z</time>
      </trkpt>
      <trkpt lat="47.11085" lon="-2.09141">
        <ele>30.2</ele>
        <time>2020-06-05T10:53:38Z</time>
      </trkpt>
      <trkpt lat="47.1109" lon="-2.09143">
        <ele>30.1</ele>
        <time>2020-06-05T10:53:39Z</time>
      </trkpt>
      <trkpt lat="47.11095" lon="-2.09146">
        <ele>30.1</ele>
        <time>2020-06-05T10:53:40Z</time>
      </trkpt>
      <trkpt lat="47.11099" lon="-2.09149">
        <ele>29.8</ele>
        <time>2020-06-05T10:53:41Z</time>
      </trkpt>
      <trkpt lat="47.11103" lon="-2.09152">
        <ele>29.6</ele>
        <time>2020-06-05T10:53:42Z</time>
      </trkpt>
      <trkpt lat="47.11107" lon="-2.09156">
        <ele>29.5</ele>
        <time>2020-06-05T10:53:43Z</time>
      </trkpt>
      <trkpt lat="47.11111" lon="-2.09161">
        <ele>29.3</ele>
        <time>2020-06-05T10:53:44Z</time>
      </trkpt>
      <trkpt lat="47.11114" lon="-2.09166">
        <ele>29.3</ele>
        <time>2020-06-05T10:53:45Z</time>
      </trkpt>
      <trkpt lat="47.11118" lon="-2.0917">
        <ele>29.2</ele>
        <time>2020-06-05T10:53:46Z</time>
      </trkpt>
      <trkpt lat="47.11122" lon="-2.09175">
        <ele>29.1</ele>
        <time>2020-06-05T10:53:47Z</time>
      </trkpt>
      <trkpt lat="47.11126" lon="-2.09179">
        <ele>29.1</ele>
        <time>2020-06-05T10:53:48Z</time>
      </trkpt>
      <trkpt lat="47.1113" lon="-2.09184">
        <ele>29.1</ele>
        <time>2020-06-05T10:53:49Z</time>
      </trkpt>
      <trkpt lat="47.11134" lon="-2.0919">
        <ele>29.1</ele>
        <time>2020-06-05T10:53:50Z</time>
      </trkpt>
      <trkpt lat="47.11138" lon="-2.09194">
        <ele>29</ele>
        <time>2020-06-05T10:53:51Z</time>
      </trkpt>
      <trkpt lat="47.11142" lon="-2.09199">
        <ele>28.9</ele>
        <time>2020-06-05T10:53:52Z</time>
      </trkpt>
      <trkpt lat="47.11145" lon="-2.09204">
        <ele>28.7</ele>
        <time>2020-06-05T10:53:53Z</time>
      </trkpt>
      <trkpt lat="47.11149" lon="-2.09209">
        <ele>28.6</ele>
        <time>2020-06-05T10:53:54Z</time>
      </trkpt>
      <trkpt lat="47.11153" lon="-2.09214">
        <ele>28.3</ele>
        <time>2020-06-05T10:53:55Z</time>
      </trkpt>
      <trkpt lat="47.11157" lon="-2.09219">
        <ele>28.1</ele>
        <time>2020-06-05T10:53:56Z</time>
      </trkpt>
      <trkpt lat="47.1116" lon="-2.09224">
        <ele>27.9</ele>
        <time>2020-06-05T10:53:57Z</time>
      </trkpt>
      <trkpt lat="47.11164" lon="-2.0923">
        <ele>27.7</ele>
        <time>2020-06-05T10:53:58Z</time>
      </trkpt>
      <trkpt lat="47.11168" lon="-2.09236">
        <ele>27.5</ele>
        <time>2020-06-05T10:53:59Z</time>
      </trkpt>
      <trkpt lat="47.11172" lon="-2.09243">
        <ele>27.2</ele>
        <time>2020-06-05T10:54:00Z</time>
      </trkpt>
      <trkpt lat="47.11176" lon="-2.09251">
        <ele>26.8</ele>
        <time>2020-06-05T10:54:01Z</time>
      </trkpt>
      <trkpt lat="47.1118" lon="-2.09257">
        <ele>26.5</ele>
        <time>2020-06-05T10:54:02Z</time>
      </trkpt>
      <trkpt lat="47.11184" lon="-2.09263">
        <ele>26.1</ele>
        <time>2020-06-05T10:54:03Z</time>
      </trkpt>
      <trkpt lat="47.11189" lon="-2.0927">
        <ele>25.7</ele>
        <time>2020-06-05T10:54:04Z</time>
      </trkpt>
      <trkpt lat="47.11193" lon="-2.09277">
        <ele>25.3</ele>
        <time>2020-06-05T10:54:05Z</time>
      </trkpt>
      <trkpt lat="47.11198" lon="-2.09283">
        <ele>24.9</ele>
        <time>2020-06-05T10:54:06Z</time>
      </trkpt>
      <trkpt lat="47.11202" lon="-2.09288">
        <ele>24.6</ele>
        <time>2020-06-05T10:54:07Z</time>
      </trkpt>
      <trkpt lat="47.11206" lon="-2.09294">
        <ele>24.2</ele>
        <time>2020-06-05T10:54:08Z</time>
      </trkpt>
      <trkpt lat="47.1121" lon="-2.09301">
        <ele>23.9</ele>
        <time>2020-06-05T10:54:09Z</time>
      </trkpt>
      <trkpt lat="47.11213" lon="-2.09309">
        <ele>23.5</ele>
        <time>2020-06-05T10:54:10Z</time>
      </trkpt>
      <trkpt lat="47.11216" lon="-2.09318">
        <ele>23.1</ele>
        <time>2020-06-05T10:54:11Z</time>
      </trkpt>
      <trkpt lat="47.11219" lon="-2.09326">
        <ele>22.8</ele>
        <time>2020-06-05T10:54:12Z</time>
      </trkpt>
      <trkpt lat="47.11222" lon="-2.09335">
        <ele>22.5</ele>
        <time>2020-06-05T10:54:13Z</time>
      </trkpt>
      <trkpt lat="47.11225" lon="-2.09344">
        <ele>22.2</ele>
        <time>2020-06-05T10:54:14Z</time>
      </trkpt>
      <trkpt lat="47.11228" lon="-2.09353">
        <ele>21.9</ele>
        <time>2020-06-05T10:54:15Z</time>
      </trkpt>
      <trkpt lat="47.11232" lon="-2.09362">
        <ele>21.5</ele>
        <time>2020-06-05T10:54:16Z</time>
      </trkpt>
      <trkpt lat="47.11235" lon="-2.0937">
        <ele>21.2</ele>
        <time>2020-06-05T10:54:17Z</time>
      </trkpt>
      <trkpt lat="47.11238" lon="-2.09379">
        <ele>21.1</ele>
        <time>2020-06-05T10:54:18Z</time>
      </trkpt>
      <trkpt lat="47.11241" lon="-2.09387">
        <ele>21</ele>
        <time>2020-06-05T10:54:19Z</time>
      </trkpt>
      <trkpt lat="47.11243" lon="-2.09395">
        <ele>21</ele>
        <time>2020-06-05T10:54:20Z</time>
      </trkpt>
      <trkpt lat="47.11246" lon="-2.09403">
        <ele>21</ele>
        <time>2020-06-05T10:54:21Z</time>
      </trkpt>
      <trkpt lat="47.11248" lon="-2.09411">
        <ele>21</ele>
        <time>2020-06-05T10:54:22Z</time>
      </trkpt>
      <trkpt lat="47.1125" lon="-2.09419">
        <ele>21</ele>
        <time>2020-06-05T10:54:23Z</time>
      </trkpt>
      <trkpt lat="47.11253" lon="-2.09426">
        <ele>21</ele>
        <time>2020-06-05T10:54:24Z</time>
      </trkpt>
      <trkpt lat="47.11256" lon="-2.09434">
        <ele>21</ele>
        <time>2020-06-05T10:54:25Z</time>
      </trkpt>
      <trkpt lat="47.11259" lon="-2.09441">
        <ele>21</ele>
        <time>2020-06-05T10:54:26Z</time>
      </trkpt>
      <trkpt lat="47.11261" lon="-2.09447">
        <ele>20.9</ele>
        <time>2020-06-05T10:54:27Z</time>
      </trkpt>
      <trkpt lat="47.11263" lon="-2.09453">
        <ele>20.9</ele>
        <time>2020-06-05T10:54:28Z</time>
      </trkpt>
      <trkpt lat="47.11265" lon="-2.09458">
        <ele>20.9</ele>
        <time>2020-06-05T10:54:29Z</time>
      </trkpt>
      <trkpt lat="47.11267" lon="-2.09464">
        <ele>20.9</ele>
        <time>2020-06-05T10:54:30Z</time>
      </trkpt>
      <trkpt lat="47.11269" lon="-2.09469">
        <ele>20.9</ele>
        <time>2020-06-05T10:54:31Z</time>
      </trkpt>
      <trkpt lat="47.11271" lon="-2.09474">
        <ele>21</ele>
        <time>2020-06-05T10:54:32Z</time>
      </trkpt>
      <trkpt lat="47.11274" lon="-2.09477">
        <ele>21</ele>
        <time>2020-06-05T10:54:33Z</time>
      </trkpt>
      <trkpt lat="47.11274" lon="-2.09477">
        <ele>21</ele>
        <time>2020-06-05T10:54:34Z</time>
      </trkpt>
      <trkpt lat="47.11278" lon="-2.09476">
        <ele>21.2</ele>
        <time>2020-06-05T10:54:35Z</time>
      </trkpt>
      <trkpt lat="47.1128" lon="-2.09476">
        <ele>20.6</ele>
        <time>2020-06-05T10:54:36Z</time>
      </trkpt>
      <trkpt lat="47.11284" lon="-2.09474">
        <ele>20.2</ele>
        <time>2020-06-05T10:54:37Z</time>
      </trkpt>
      <trkpt lat="47.1129" lon="-2.09471">
        <ele>19.7</ele>
        <time>2020-06-05T10:54:38Z</time>
      </trkpt>
      <trkpt lat="47.11295" lon="-2.09468">
        <ele>19.3</ele>
        <time>2020-06-05T10:54:39Z</time>
      </trkpt>
      <trkpt lat="47.11302" lon="-2.09465">
        <ele>18.9</ele>
        <time>2020-06-05T10:54:40Z</time>
      </trkpt>
      <trkpt lat="47.11309" lon="-2.0946">
        <ele>18.5</ele>
        <time>2020-06-05T10:54:41Z</time>
      </trkpt>
      <trkpt lat="47.11315" lon="-2.09455">
        <ele>18.3</ele>
        <time>2020-06-05T10:54:42Z</time>
      </trkpt>
      <trkpt lat="47.1132" lon="-2.0945">
        <ele>18.1</ele>
        <time>2020-06-05T10:54:43Z</time>
      </trkpt>
      <trkpt lat="47.11326" lon="-2.09445">
        <ele>17.9</ele>
        <time>2020-06-05T10:54:44Z</time>
      </trkpt>
      <trkpt lat="47.11331" lon="-2.0944">
        <ele>17.7</ele>
        <time>2020-06-05T10:54:45Z</time>
      </trkpt>
      <trkpt lat="47.11337" lon="-2.09435">
        <ele>17.5</ele>
        <time>2020-06-05T10:54:46Z</time>
      </trkpt>
      <trkpt lat="47.11341" lon="-2.0943">
        <ele>17.3</ele>
        <time>2020-06-05T10:54:47Z</time>
      </trkpt>
      <trkpt lat="47.11344" lon="-2.09426">
        <ele>17.1</ele>
        <time>2020-06-05T10:54:48Z</time>
      </trkpt>
      <trkpt lat="47.11347" lon="-2.09423">
        <ele>16.9</ele>
        <time>2020-06-05T10:54:49Z</time>
      </trkpt>
      <trkpt lat="47.11349" lon="-2.0942">
        <ele>16.7</ele>
        <time>2020-06-05T10:54:50Z</time>
      </trkpt>
      <trkpt lat="47.11349" lon="-2.09418">
        <ele>16.7</ele>
        <time>2020-06-05T10:54:51Z</time>
      </trkpt>
      <trkpt lat="47.1135" lon="-2.09414">
        <ele>16.5</ele>
        <time>2020-06-05T10:54:52Z</time>
      </trkpt>
      <trkpt lat="47.11352" lon="-2.0941">
        <ele>16.5</ele>
        <time>2020-06-05T10:54:53Z</time>
      </trkpt>
      <trkpt lat="47.11356" lon="-2.09408">
        <ele>16.6</ele>
        <time>2020-06-05T10:54:54Z</time>
      </trkpt>
      <trkpt lat="47.11357" lon="-2.09408">
        <ele>16.6</ele>
        <time>2020-06-05T10:54:55Z</time>
      </trkpt>
      <trkpt lat="47.1136" lon="-2.09412">
        <ele>16.6</ele>
        <time>2020-06-05T10:54:56Z</time>
      </trkpt>
      <trkpt lat="47.11362" lon="-2.09415">
        <ele>16.5</ele>
        <time>2020-06-05T10:54:57Z</time>
      </trkpt>
      <trkpt lat="47.11364" lon="-2.09418">
        <ele>16.3</ele>
        <time>2020-06-05T10:54:58Z</time>
      </trkpt>
      <trkpt lat="47.11367" lon="-2.0942">
        <ele>16.2</ele>
        <time>2020-06-05T10:54:59Z</time>
      </trkpt>
      <trkpt lat="47.1137" lon="-2.09423">
        <ele>16</ele>
        <time>2020-06-05T10:55:00Z</time>
      </trkpt>
      <trkpt lat="47.11371" lon="-2.09424">
        <ele>16</ele>
        <time>2020-06-05T10:55:01Z</time>
      </trkpt>
      <trkpt lat="47.11374" lon="-2.09427">
        <ele>15.8</ele>
        <time>2020-06-05T10:55:02Z</time>
      </trkpt>
      <trkpt lat="47.11379" lon="-2.09427">
        <ele>15.6</ele>
        <time>2020-06-05T10:55:03Z</time>
      </trkpt>
      <trkpt lat="47.11384" lon="-2.09428">
        <ele>15.4</ele>
        <time>2020-06-05T10:55:04Z</time>
      </trkpt>
      <trkpt lat="47.11388" lon="-2.0943">
        <ele>15.2</ele>
        <time>2020-06-05T10:55:05Z</time>
      </trkpt>
      <trkpt lat="47.11393" lon="-2.09431">
        <ele>14.9</ele>
        <time>2020-06-05T10:55:06Z</time>
      </trkpt>
      <trkpt lat="47.11398" lon="-2.09433">
        <ele>14.7</ele>
        <time>2020-06-05T10:55:07Z</time>
      </trkpt>
      <trkpt lat="47.11404" lon="-2.09435">
        <ele>14.4</ele>
        <time>2020-06-05T10:55:08Z</time>
      </trkpt>
      <trkpt lat="47.11409" lon="-2.09437">
        <ele>14.1</ele>
        <time>2020-06-05T10:55:09Z</time>
      </trkpt>
      <trkpt lat="47.11413" lon="-2.0944">
        <ele>13.9</ele>
        <time>2020-06-05T10:55:10Z</time>
      </trkpt>
      <trkpt lat="47.11418" lon="-2.09445">
        <ele>13.7</ele>
        <time>2020-06-05T10:55:11Z</time>
      </trkpt>
      <trkpt lat="47.11423" lon="-2.09451">
        <ele>13.4</ele>
        <time>2020-06-05T10:55:12Z</time>
      </trkpt>
      <trkpt lat="47.11426" lon="-2.09458">
        <ele>13</ele>
        <time>2020-06-05T10:55:13Z</time>
      </trkpt>
      <trkpt lat="47.11428" lon="-2.09467">
        <ele>12.8</ele>
        <time>2020-06-05T10:55:14Z</time>
      </trkpt>
      <trkpt lat="47.11429" lon="-2.09475">
        <ele>12.7</ele>
        <time>2020-06-05T10:55:15Z</time>
      </trkpt>
      <trkpt lat="47.11429" lon="-2.09484">
        <ele>12.5</ele>
        <time>2020-06-05T10:55:16Z</time>
      </trkpt>
      <trkpt lat="47.11428" lon="-2.09493">
        <ele>12.3</ele>
        <time>2020-06-05T10:55:17Z</time>
      </trkpt>
      <trkpt lat="47.11428" lon="-2.09502">
        <ele>12.1</ele>
        <time>2020-06-05T10:55:18Z</time>
      </trkpt>
      <trkpt lat="47.11426" lon="-2.09511">
        <ele>11.9</ele>
        <time>2020-06-05T10:55:19Z</time>
      </trkpt>
      <trkpt lat="47.11424" lon="-2.0952">
        <ele>11.7</ele>
        <time>2020-06-05T10:55:20Z</time>
      </trkpt>
      <trkpt lat="47.11422" lon="-2.0953">
        <ele>11.5</ele>
        <time>2020-06-05T10:55:21Z</time>
      </trkpt>
      <trkpt lat="47.11418" lon="-2.09539">
        <ele>11.3</ele>
        <time>2020-06-05T10:55:22Z</time>
      </trkpt>
      <trkpt lat="47.11416" lon="-2.09547">
        <ele>11.2</ele>
        <time>2020-06-05T10:55:23Z</time>
      </trkpt>
      <trkpt lat="47.11415" lon="-2.09555">
        <ele>11.1</ele>
        <time>2020-06-05T10:55:24Z</time>
      </trkpt>
      <trkpt lat="47.11413" lon="-2.09564">
        <ele>10.9</ele>
        <time>2020-06-05T10:55:25Z</time>
      </trkpt>
      <trkpt lat="47.11412" lon="-2.09573">
        <ele>10.8</ele>
        <time>2020-06-05T10:55:26Z</time>
      </trkpt>
      <trkpt lat="47.11412" lon="-2.09581">
        <ele>10.6</ele>
        <time>2020-06-05T10:55:27Z</time>
      </trkpt>
      <trkpt lat="47.11412" lon="-2.09588">
        <ele>10.5</ele>
        <time>2020-06-05T10:55:28Z</time>
      </trkpt>
      <trkpt lat="47.11412" lon="-2.09596">
        <ele>10.3</ele>
        <time>2020-06-05T10:55:29Z</time>
      </trkpt>
      <trkpt lat="47.11411" lon="-2.09605">
        <ele>10.1</ele>
        <time>2020-06-05T10:55:30Z</time>
      </trkpt>
      <trkpt lat="47.11412" lon="-2.09613">
        <ele>9.9</ele>
        <time>2020-06-05T10:55:31Z</time>
      </trkpt>
      <trkpt lat="47.11413" lon="-2.09622">
        <ele>9.6</ele>
        <time>2020-06-05T10:55:32Z</time>
      </trkpt>
      <trkpt lat="47.11415" lon="-2.0963">
        <ele>9.4</ele>
        <time>2020-06-05T10:55:33Z</time>
      </trkpt>
      <trkpt lat="47.11417" lon="-2.09639">
        <ele>9.1</ele>
        <time>2020-06-05T10:55:34Z</time>
      </trkpt>
      <trkpt lat="47.11418" lon="-2.09647">
        <ele>8.9</ele>
        <time>2020-06-05T10:55:35Z</time>
      </trkpt>
      <trkpt lat="47.11419" lon="-2.09655">
        <ele>8.6</ele>
        <time>2020-06-05T10:55:36Z</time>
      </trkpt>
      <trkpt lat="47.11421" lon="-2.09665">
        <ele>8.3</ele>
        <time>2020-06-05T10:55:37Z</time>
      </trkpt>
      <trkpt lat="47.1142" lon="-2.09674">
        <ele>8</ele>
        <time>2020-06-05T10:55:38Z</time>
      </trkpt>
      <trkpt lat="47.1142" lon="-2.09683">
        <ele>7.7</ele>
        <time>2020-06-05T10:55:39Z</time>
      </trkpt>
      <trkpt lat="47.1142" lon="-2.09693">
        <ele>7.3</ele>
        <time>2020-06-05T10:55:40Z</time>
      </trkpt>
      <trkpt lat="47.1142" lon="-2.09703">
        <ele>7</ele>
        <time>2020-06-05T10:55:41Z</time>
      </trkpt>
      <trkpt lat="47.1142" lon="-2.09713">
        <ele>6.7</ele>
        <time>2020-06-05T10:55:42Z</time>
      </trkpt>
      <trkpt lat="47.11419" lon="-2.09723">
        <ele>6.4</ele>
        <time>2020-06-05T10:55:43Z</time>
      </trkpt>
      <trkpt lat="47.11418" lon="-2.09733">
        <ele>6.2</ele>
        <time>2020-06-05T10:55:44Z</time>
      </trkpt>
      <trkpt lat="47.11417" lon="-2.09742">
        <ele>6</ele>
        <time>2020-06-05T10:55:45Z</time>
      </trkpt>
      <trkpt lat="47.11416" lon="-2.09752">
        <ele>5.9</ele>
        <time>2020-06-05T10:55:46Z</time>
      </trkpt>
      <trkpt lat="47.11416" lon="-2.09762">
        <ele>6</ele>
        <time>2020-06-05T10:55:47Z</time>
      </trkpt>
      <trkpt lat="47.11416" lon="-2.09771">
        <ele>6</ele>
        <time>2020-06-05T10:55:48Z</time>
      </trkpt>
      <trkpt lat="47.11417" lon="-2.0978">
        <ele>6</ele>
        <time>2020-06-05T10:55:49Z</time>
      </trkpt>
      <trkpt lat="47.11419" lon="-2.09785">
        <ele>6</ele>
        <time>2020-06-05T10:55:50Z</time>
      </trkpt>
      <trkpt lat="47.11422" lon="-2.09792">
        <ele>6.1</ele>
        <time>2020-06-05T10:55:51Z</time>
      </trkpt>
      <trkpt lat="47.11425" lon="-2.09799">
        <ele>5.8</ele>
        <time>2020-06-05T10:55:52Z</time>
      </trkpt>
      <trkpt lat="47.11428" lon="-2.09807">
        <ele>5.7</ele>
        <time>2020-06-05T10:55:53Z</time>
      </trkpt>
      <trkpt lat="47.1143" lon="-2.09814">
        <ele>5.5</ele>
        <time>2020-06-05T10:55:54Z</time>
      </trkpt>
      <trkpt lat="47.11432" lon="-2.09821">
        <ele>5.4</ele>
        <time>2020-06-05T10:55:55Z</time>
      </trkpt>
      <trkpt lat="47.11435" lon="-2.09829">
        <ele>5.3</ele>
        <time>2020-06-05T10:55:56Z</time>
      </trkpt>
      <trkpt lat="47.11438" lon="-2.09834">
        <ele>5.2</ele>
        <time>2020-06-05T10:55:57Z</time>
      </trkpt>
      <trkpt lat="47.11442" lon="-2.09837">
        <ele>5.1</ele>
        <time>2020-06-05T10:55:58Z</time>
      </trkpt>
      <trkpt lat="47.11447" lon="-2.09841">
        <ele>5</ele>
        <time>2020-06-05T10:55:59Z</time>
      </trkpt>
      <trkpt lat="47.11453" lon="-2.09845">
        <ele>5</ele>
        <time>2020-06-05T10:56:00Z</time>
      </trkpt>
      <trkpt lat="47.11457" lon="-2.09847">
        <ele>4.9</ele>
        <time>2020-06-05T10:56:01Z</time>
      </trkpt>
      <trkpt lat="47.11463" lon="-2.09849">
        <ele>4.9</ele>
        <time>2020-06-05T10:56:02Z</time>
      </trkpt>
      <trkpt lat="47.11468" lon="-2.09851">
        <ele>4.9</ele>
        <time>2020-06-05T10:56:03Z</time>
      </trkpt>
      <trkpt lat="47.11473" lon="-2.09853">
        <ele>4.9</ele>
        <time>2020-06-05T10:56:04Z</time>
      </trkpt>
      <trkpt lat="47.11478" lon="-2.09854">
        <ele>5</ele>
        <time>2020-06-05T10:56:05Z</time>
      </trkpt>
      <trkpt lat="47.11483" lon="-2.09856">
        <ele>5</ele>
        <time>2020-06-05T10:56:06Z</time>
      </trkpt>
      <trkpt lat="47.11488" lon="-2.09858">
        <ele>5.1</ele>
        <time>2020-06-05T10:56:07Z</time>
      </trkpt>
      <trkpt lat="47.11493" lon="-2.0986">
        <ele>5.1</ele>
        <time>2020-06-05T10:56:08Z</time>
      </trkpt>
      <trkpt lat="47.11498" lon="-2.09862">
        <ele>5.2</ele>
        <time>2020-06-05T10:56:09Z</time>
      </trkpt>
      <trkpt lat="47.11502" lon="-2.09863">
        <ele>5.3</ele>
        <time>2020-06-05T10:56:10Z</time>
      </trkpt>
      <trkpt lat="47.11506" lon="-2.09865">
        <ele>5.4</ele>
        <time>2020-06-05T10:56:11Z</time>
      </trkpt>
      <trkpt lat="47.11509" lon="-2.09866">
        <ele>5.4</ele>
        <time>2020-06-05T10:56:12Z</time>
      </trkpt>
      <trkpt lat="47.11513" lon="-2.09867">
        <ele>5.5</ele>
        <time>2020-06-05T10:56:13Z</time>
      </trkpt>
      <trkpt lat="47.11517" lon="-2.09868">
        <ele>5.5</ele>
        <time>2020-06-05T10:56:14Z</time>
      </trkpt>
      <trkpt lat="47.11522" lon="-2.0987">
        <ele>5.6</ele>
        <time>2020-06-05T10:56:15Z</time>
      </trkpt>
      <trkpt lat="47.11525" lon="-2.09871">
        <ele>5.7</ele>
        <time>2020-06-05T10:56:16Z</time>
      </trkpt>
      <trkpt lat="47.11529" lon="-2.09873">
        <ele>5.8</ele>
        <time>2020-06-05T10:56:17Z</time>
      </trkpt>
      <trkpt lat="47.11533" lon="-2.09874">
        <ele>6.1</ele>
        <time>2020-06-05T10:56:18Z</time>
      </trkpt>
      <trkpt lat="47.11536" lon="-2.09875">
        <ele>6.2</ele>
        <time>2020-06-05T10:56:19Z</time>
      </trkpt>
      <trkpt lat="47.1154" lon="-2.09877">
        <ele>6.3</ele>
        <time>2020-06-05T10:56:20Z</time>
      </trkpt>
      <trkpt lat="47.11544" lon="-2.09879">
        <ele>6.5</ele>
        <time>2020-06-05T10:56:21Z</time>
      </trkpt>
      <trkpt lat="47.11548" lon="-2.09881">
        <ele>6.5</ele>
        <time>2020-06-05T10:56:22Z</time>
      </trkpt>
      <trkpt lat="47.11552" lon="-2.09883">
        <ele>6.6</ele>
        <time>2020-06-05T10:56:23Z</time>
      </trkpt>
      <trkpt lat="47.11556" lon="-2.09885">
        <ele>6.6</ele>
        <time>2020-06-05T10:56:24Z</time>
      </trkpt>
      <trkpt lat="47.11559" lon="-2.0989">
        <ele>6.7</ele>
        <time>2020-06-05T10:56:25Z</time>
      </trkpt>
      <trkpt lat="47.11561" lon="-2.09896">
        <ele>6.9</ele>
        <time>2020-06-05T10:56:26Z</time>
      </trkpt>
      <trkpt lat="47.11562" lon="-2.09902">
        <ele>7</ele>
        <time>2020-06-05T10:56:27Z</time>
      </trkpt>
      <trkpt lat="47.11564" lon="-2.09908">
        <ele>7.1</ele>
        <time>2020-06-05T10:56:28Z</time>
      </trkpt>
      <trkpt lat="47.11566" lon="-2.09914">
        <ele>7.3</ele>
        <time>2020-06-05T10:56:29Z</time>
      </trkpt>
      <trkpt lat="47.11569" lon="-2.09921">
        <ele>7.4</ele>
        <time>2020-06-05T10:56:30Z</time>
      </trkpt>
      <trkpt lat="47.11571" lon="-2.09928">
        <ele>7.6</ele>
        <time>2020-06-05T10:56:31Z</time>
      </trkpt>
      <trkpt lat="47.11573" lon="-2.09934">
        <ele>7.8</ele>
        <time>2020-06-05T10:56:32Z</time>
      </trkpt>
      <trkpt lat="47.11575" lon="-2.09939">
        <ele>8</ele>
        <time>2020-06-05T10:56:33Z</time>
      </trkpt>
      <trkpt lat="47.11577" lon="-2.09945">
        <ele>8.1</ele>
        <time>2020-06-05T10:56:34Z</time>
      </trkpt>
      <trkpt lat="47.11579" lon="-2.0995">
        <ele>8.3</ele>
        <time>2020-06-05T10:56:35Z</time>
      </trkpt>
      <trkpt lat="47.11581" lon="-2.09955">
        <ele>8.5</ele>
        <time>2020-06-05T10:56:36Z</time>
      </trkpt>
      <trkpt lat="47.11583" lon="-2.09959">
        <ele>8.6</ele>
        <time>2020-06-05T10:56:37Z</time>
      </trkpt>
      <trkpt lat="47.11584" lon="-2.09965">
        <ele>8.8</ele>
        <time>2020-06-05T10:56:38Z</time>
      </trkpt>
      <trkpt lat="47.11585" lon="-2.0997">
        <ele>9</ele>
        <time>2020-06-05T10:56:39Z</time>
      </trkpt>
      <trkpt lat="47.11587" lon="-2.09976">
        <ele>9.1</ele>
        <time>2020-06-05T10:56:40Z</time>
      </trkpt>
      <trkpt lat="47.11587" lon="-2.09981">
        <ele>9.3</ele>
        <time>2020-06-05T10:56:41Z</time>
      </trkpt>
      <trkpt lat="47.11586" lon="-2.09986">
        <ele>9.4</ele>
        <time>2020-06-05T10:56:42Z</time>
      </trkpt>
      <trkpt lat="47.11585" lon="-2.09991">
        <ele>9.6</ele>
        <time>2020-06-05T10:56:43Z</time>
      </trkpt>
      <trkpt lat="47.11584" lon="-2.09996">
        <ele>9.7</ele>
        <time>2020-06-05T10:56:44Z</time>
      </trkpt>
      <trkpt lat="47.11583" lon="-2.10002">
        <ele>9.8</ele>
        <time>2020-06-05T10:56:45Z</time>
      </trkpt>
      <trkpt lat="47.11582" lon="-2.10008">
        <ele>9.9</ele>
        <time>2020-06-05T10:56:46Z</time>
      </trkpt>
      <trkpt lat="47.11581" lon="-2.10012">
        <ele>10</ele>
        <time>2020-06-05T10:56:47Z</time>
      </trkpt>
      <trkpt lat="47.1158" lon="-2.10018">
        <ele>10.2</ele>
        <time>2020-06-05T10:56:48Z</time>
      </trkpt>
      <trkpt lat="47.11579" lon="-2.10023">
        <ele>10.4</ele>
        <time>2020-06-05T10:56:49Z</time>
      </trkpt>
      <trkpt lat="47.11578" lon="-2.10029">
        <ele>10.7</ele>
        <time>2020-06-05T10:56:50Z</time>
      </trkpt>
      <trkpt lat="47.11576" lon="-2.10036">
        <ele>11</ele>
        <time>2020-06-05T10:56:51Z</time>
      </trkpt>
      <trkpt lat="47.11575" lon="-2.10042">
        <ele>11.2</ele>
        <time>2020-06-05T10:56:52Z</time>
      </trkpt>
      <trkpt lat="47.11574" lon="-2.10047">
        <ele>11.5</ele>
        <time>2020-06-05T10:56:53Z</time>
      </trkpt>
      <trkpt lat="47.11575" lon="-2.10052">
        <ele>11.6</ele>
        <time>2020-06-05T10:56:54Z</time>
      </trkpt>
      <trkpt lat="47.11575" lon="-2.10053">
        <ele>11.7</ele>
        <time>2020-06-05T10:56:55Z</time>
      </trkpt>
      <trkpt lat="47.11575" lon="-2.10055">
        <ele>11.8</ele>
        <time>2020-06-05T10:56:56Z</time>
      </trkpt>
      <trkpt lat="47.11575" lon="-2.10056">
        <ele>11.8</ele>
        <time>2020-06-05T10:56:57Z</time>
      </trkpt>
      <trkpt lat="47.11575" lon="-2.10057">
        <ele>11.9</ele>
        <time>2020-06-05T10:56:58Z</time>
      </trkpt>
      <trkpt lat="47.11575" lon="-2.10057">
        <ele>11.9</ele>
        <time>2020-06-05T10:56:59Z</time>
      </trkpt>
      <trkpt lat="47.11576" lon="-2.10057">
        <ele>11.9</ele>
        <time>2020-06-05T10:57:00Z</time>
      </trkpt>
      <trkpt lat="47.11575" lon="-2.10057">
        <ele>11.9</ele>
        <time>2020-06-05T10:57:01Z</time>
      </trkpt>
      <trkpt lat="47.11575" lon="-2.10057">
        <ele>11.9</ele>
        <time>2020-06-05T10:57:02Z</time>
      </trkpt>
      <trkpt lat="47.11575" lon="-2.10057">
        <ele>11.9</ele>
        <time>2020-06-05T10:57:03Z</time>
      </trkpt>
      <trkpt lat="47.11575" lon="-2.10057">
        <ele>11.9</ele>
        <time>2020-06-05T10:57:04Z</time>
      </trkpt>
      <trkpt lat="47.11575" lon="-2.10057">
        <ele>11.9</ele>
        <time>2020-06-05T10:57:05Z</time>
      </trkpt>
      <trkpt lat="47.11575" lon="-2.10057">
        <ele>12</ele>
        <time>2020-06-05T10:57:06Z</time>
      </trkpt>
      <trkpt lat="47.11574" lon="-2.10057">
        <ele>12</ele>
        <time>2020-06-05T10:57:07Z</time>
      </trkpt>
      <trkpt lat="47.11573" lon="-2.10058">
        <ele>12.1</ele>
        <time>2020-06-05T10:57:08Z</time>
      </trkpt>
      <trkpt lat="47.11572" lon="-2.10058">
        <ele>12.1</ele>
        <time>2020-06-05T10:57:09Z</time>
      </trkpt>
      <trkpt lat="47.11572" lon="-2.10059">
        <ele>12.2</ele>
        <time>2020-06-05T10:57:10Z</time>
      </trkpt>
      <trkpt lat="47.11572" lon="-2.10059">
        <ele>12.2</ele>
        <time>2020-06-05T10:57:11Z</time>
      </trkpt>
      <trkpt lat="47.11572" lon="-2.10059">
        <ele>12.2</ele>
        <time>2020-06-05T10:57:12Z</time>
      </trkpt>
      <trkpt lat="47.11573" lon="-2.10058">
        <ele>12.2</ele>
        <time>2020-06-05T10:57:13Z</time>
      </trkpt>
      <trkpt lat="47.11573" lon="-2.10057">
        <ele>12.3</ele>
        <time>2020-06-05T10:57:14Z</time>
      </trkpt>
      <trkpt lat="47.11573" lon="-2.10057">
        <ele>12.3</ele>
        <time>2020-06-05T10:57:15Z</time>
      </trkpt>
      <trkpt lat="47.11573" lon="-2.10058">
        <ele>12.3</ele>
        <time>2020-06-05T10:57:16Z</time>
      </trkpt>
      <trkpt lat="47.11572" lon="-2.10058">
        <ele>12.3</ele>
        <time>2020-06-05T10:57:17Z</time>
      </trkpt>
      <trkpt lat="47.11573" lon="-2.10058">
        <ele>12.4</ele>
        <time>2020-06-05T10:57:18Z</time>
      </trkpt>
      <trkpt lat="47.11574" lon="-2.10059">
        <ele>12.4</ele>
        <time>2020-06-05T10:57:19Z</time>
      </trkpt>
      <trkpt lat="47.11575" lon="-2.1006">
        <ele>12.5</ele>
        <time>2020-06-05T10:57:20Z</time>
      </trkpt>
      <trkpt lat="47.11575" lon="-2.10061">
        <ele>12.5</ele>
        <time>2020-06-05T10:57:21Z</time>
      </trkpt>
      <trkpt lat="47.11574" lon="-2.10061">
        <ele>12.6</ele>
        <time>2020-06-05T10:57:22Z</time>
      </trkpt>
      <trkpt lat="47.11574" lon="-2.10063">
        <ele>12.7</ele>
        <time>2020-06-05T10:57:23Z</time>
      </trkpt>
      <trkpt lat="47.11573" lon="-2.10065">
        <ele>12.8</ele>
        <time>2020-06-05T10:57:24Z</time>
      </trkpt>
      <trkpt lat="47.11572" lon="-2.10067">
        <ele>12.8</ele>
        <time>2020-06-05T10:57:25Z</time>
      </trkpt>
      <trkpt lat="47.11572" lon="-2.10068">
        <ele>12.9</ele>
        <time>2020-06-05T10:57:26Z</time>
      </trkpt>
      <trkpt lat="47.11572" lon="-2.10069">
        <ele>12.9</ele>
        <time>2020-06-05T10:57:27Z</time>
      </trkpt>
      <trkpt lat="47.11572" lon="-2.1007">
        <ele>13</ele>
        <time>2020-06-05T10:57:28Z</time>
      </trkpt>
      <trkpt lat="47.11573" lon="-2.10071">
        <ele>13</ele>
        <time>2020-06-05T10:57:29Z</time>
      </trkpt>
      <trkpt lat="47.11573" lon="-2.10071">
        <ele>13</ele>
        <time>2020-06-05T10:57:30Z</time>
      </trkpt>
      <trkpt lat="47.11573" lon="-2.10073">
        <ele>13.1</ele>
        <time>2020-06-05T10:57:31Z</time>
      </trkpt>
      <trkpt lat="47.11573" lon="-2.10073">
        <ele>13.1</ele>
        <time>2020-06-05T10:57:32Z</time>
      </trkpt>
      <trkpt lat="47.11573" lon="-2.10075">
        <ele>13.2</ele>
        <time>2020-06-05T10:57:33Z</time>
      </trkpt>
      <trkpt lat="47.11573" lon="-2.10076">
        <ele>13.2</ele>
        <time>2020-06-05T10:57:34Z</time>
      </trkpt>
      <trkpt lat="47.11573" lon="-2.10077">
        <ele>13.2</ele>
        <time>2020-06-05T10:57:35Z</time>
      </trkpt>
      <trkpt lat="47.11573" lon="-2.10077">
        <ele>13.3</ele>
        <time>2020-06-05T10:57:36Z</time>
      </trkpt>
      <trkpt lat="47.11573" lon="-2.10078">
        <ele>13.3</ele>
        <time>2020-06-05T10:57:37Z</time>
      </trkpt>
      <trkpt lat="47.11573" lon="-2.10079">
        <ele>13.3</ele>
        <time>2020-06-05T10:57:38Z</time>
      </trkpt>
      <trkpt lat="47.11573" lon="-2.10079">
        <ele>13.4</ele>
        <time>2020-06-05T10:57:39Z</time>
      </trkpt>
      <trkpt lat="47.11574" lon="-2.10084">
        <ele>13.6</ele>
        <time>2020-06-05T10:57:40Z</time>
      </trkpt>
      <trkpt lat="47.11574" lon="-2.10086">
        <ele>13.6</ele>
        <time>2020-06-05T10:57:41Z</time>
      </trkpt>
      <trkpt lat="47.11574" lon="-2.1009">
        <ele>13.8</ele>
        <time>2020-06-05T10:57:42Z</time>
      </trkpt>
      <trkpt lat="47.11573" lon="-2.10092">
        <ele>13.9</ele>
        <time>2020-06-05T10:57:43Z</time>
      </trkpt>
      <trkpt lat="47.11574" lon="-2.10095">
        <ele>14</ele>
        <time>2020-06-05T10:57:44Z</time>
      </trkpt>
      <trkpt lat="47.11574" lon="-2.10096">
        <ele>14</ele>
        <time>2020-06-05T10:57:45Z</time>
      </trkpt>
      <trkpt lat="47.11574" lon="-2.10097">
        <ele>14.1</ele>
        <time>2020-06-05T10:57:46Z</time>
      </trkpt>
      <trkpt lat="47.11573" lon="-2.10099">
        <ele>14.1</ele>
        <time>2020-06-05T10:57:47Z</time>
      </trkpt>
      <trkpt lat="47.11573" lon="-2.101">
        <ele>14.2</ele>
        <time>2020-06-05T10:57:48Z</time>
      </trkpt>
      <trkpt lat="47.11573" lon="-2.10101">
        <ele>14.2</ele>
        <time>2020-06-05T10:57:49Z</time>
      </trkpt>
      <trkpt lat="47.11573" lon="-2.10102">
        <ele>14.2</ele>
        <time>2020-06-05T10:57:50Z</time>
      </trkpt>
      <trkpt lat="47.11573" lon="-2.10103">
        <ele>14.3</ele>
        <time>2020-06-05T10:57:51Z</time>
      </trkpt>
      <trkpt lat="47.11573" lon="-2.10104">
        <ele>14.3</ele>
        <time>2020-06-05T10:57:52Z</time>
      </trkpt>
      <trkpt lat="47.11573" lon="-2.10105">
        <ele>14.3</ele>
        <time>2020-06-05T10:57:53Z</time>
      </trkpt>
      <trkpt lat="47.11575" lon="-2.10111">
        <ele>14.5</ele>
        <time>2020-06-05T10:57:54Z</time>
      </trkpt>
      <trkpt lat="47.11575" lon="-2.10113">
        <ele>14.6</ele>
        <time>2020-06-05T10:57:55Z</time>
      </trkpt>
      <trkpt lat="47.11575" lon="-2.1012">
        <ele>14.9</ele>
        <time>2020-06-05T10:57:56Z</time>
      </trkpt>
      <trkpt lat="47.11576" lon="-2.10127">
        <ele>15.1</ele>
        <time>2020-06-05T10:57:57Z</time>
      </trkpt>
      <trkpt lat="47.11578" lon="-2.10134">
        <ele>15.3</ele>
        <time>2020-06-05T10:57:58Z</time>
      </trkpt>
      <trkpt lat="47.11579" lon="-2.1014">
        <ele>15.6</ele>
        <time>2020-06-05T10:57:59Z</time>
      </trkpt>
      <trkpt lat="47.1158" lon="-2.10147">
        <ele>15.8</ele>
        <time>2020-06-05T10:58:00Z</time>
      </trkpt>
      <trkpt lat="47.1158" lon="-2.10153">
        <ele>15.9</ele>
        <time>2020-06-05T10:58:01Z</time>
      </trkpt>
      <trkpt lat="47.11581" lon="-2.1016">
        <ele>16</ele>
        <time>2020-06-05T10:58:02Z</time>
      </trkpt>
      <trkpt lat="47.11583" lon="-2.10166">
        <ele>16.1</ele>
        <time>2020-06-05T10:58:03Z</time>
      </trkpt>
      <trkpt lat="47.11584" lon="-2.10171">
        <ele>16.2</ele>
        <time>2020-06-05T10:58:04Z</time>
      </trkpt>
      <trkpt lat="47.11585" lon="-2.10176">
        <ele>16.3</ele>
        <time>2020-06-05T10:58:05Z</time>
      </trkpt>
      <trkpt lat="47.11587" lon="-2.10181">
        <ele>16.5</ele>
        <time>2020-06-05T10:58:06Z</time>
      </trkpt>
      <trkpt lat="47.11588" lon="-2.10186">
        <ele>16.6</ele>
        <time>2020-06-05T10:58:07Z</time>
      </trkpt>
      <trkpt lat="47.11589" lon="-2.10191">
        <ele>16.8</ele>
        <time>2020-06-05T10:58:08Z</time>
      </trkpt>
      <trkpt lat="47.1159" lon="-2.10196">
        <ele>16.9</ele>
        <time>2020-06-05T10:58:09Z</time>
      </trkpt>
      <trkpt lat="47.11591" lon="-2.102">
        <ele>17.1</ele>
        <time>2020-06-05T10:58:10Z</time>
      </trkpt>
      <trkpt lat="47.11592" lon="-2.10204">
        <ele>17.2</ele>
        <time>2020-06-05T10:58:11Z</time>
      </trkpt>
      <trkpt lat="47.11592" lon="-2.10209">
        <ele>17.4</ele>
        <time>2020-06-05T10:58:12Z</time>
      </trkpt>
      <trkpt lat="47.11593" lon="-2.10214">
        <ele>17.6</ele>
        <time>2020-06-05T10:58:13Z</time>
      </trkpt>
      <trkpt lat="47.11594" lon="-2.10219">
        <ele>17.8</ele>
        <time>2020-06-05T10:58:14Z</time>
      </trkpt>
      <trkpt lat="47.11594" lon="-2.10223">
        <ele>18</ele>
        <time>2020-06-05T10:58:15Z</time>
      </trkpt>
      <trkpt lat="47.11595" lon="-2.10228">
        <ele>18.2</ele>
        <time>2020-06-05T10:58:16Z</time>
      </trkpt>
      <trkpt lat="47.11595" lon="-2.10229">
        <ele>18.3</ele>
        <time>2020-06-05T10:58:17Z</time>
      </trkpt>
      <trkpt lat="47.11596" lon="-2.10234">
        <ele>18.5</ele>
        <time>2020-06-05T10:58:18Z</time>
      </trkpt>
      <trkpt lat="47.11597" lon="-2.10235">
        <ele>18.5</ele>
        <time>2020-06-05T10:58:19Z</time>
      </trkpt>
      <trkpt lat="47.11598" lon="-2.10239">
        <ele>18.7</ele>
        <time>2020-06-05T10:58:20Z</time>
      </trkpt>
      <trkpt lat="47.11598" lon="-2.1024">
        <ele>18.8</ele>
        <time>2020-06-05T10:58:21Z</time>
      </trkpt>
      <trkpt lat="47.11599" lon="-2.10242">
        <ele>18.9</ele>
        <time>2020-06-05T10:58:22Z</time>
      </trkpt>
      <trkpt lat="47.116" lon="-2.10243">
        <ele>18.9</ele>
        <time>2020-06-05T10:58:23Z</time>
      </trkpt>
      <trkpt lat="47.116" lon="-2.10244">
        <ele>18.9</ele>
        <time>2020-06-05T10:58:24Z</time>
      </trkpt>
      <trkpt lat="47.11599" lon="-2.10246">
        <ele>18.9</ele>
        <time>2020-06-05T10:58:25Z</time>
      </trkpt>
      <trkpt lat="47.11598" lon="-2.10247">
        <ele>18.9</ele>
        <time>2020-06-05T10:58:26Z</time>
      </trkpt>
      <trkpt lat="47.11597" lon="-2.10248">
        <ele>18.8</ele>
        <time>2020-06-05T10:58:27Z</time>
      </trkpt>
      <trkpt lat="47.11597" lon="-2.10249">
        <ele>18.8</ele>
        <time>2020-06-05T10:58:28Z</time>
      </trkpt>
      <trkpt lat="47.11595" lon="-2.10251">
        <ele>18.7</ele>
        <time>2020-06-05T10:58:29Z</time>
      </trkpt>
      <trkpt lat="47.11593" lon="-2.10255">
        <ele>18.6</ele>
        <time>2020-06-05T10:58:30Z</time>
      </trkpt>
      <trkpt lat="47.11592" lon="-2.10256">
        <ele>18.6</ele>
        <time>2020-06-05T10:58:31Z</time>
      </trkpt>
      <trkpt lat="47.11591" lon="-2.10259">
        <ele>18.5</ele>
        <time>2020-06-05T10:58:32Z</time>
      </trkpt>
      <trkpt lat="47.1159" lon="-2.1026">
        <ele>18.5</ele>
        <time>2020-06-05T10:58:33Z</time>
      </trkpt>
      <trkpt lat="47.11589" lon="-2.1026">
        <ele>18.5</ele>
        <time>2020-06-05T10:58:34Z</time>
      </trkpt>
      <trkpt lat="47.11589" lon="-2.1026">
        <ele>18.5</ele>
        <time>2020-06-05T10:58:35Z</time>
      </trkpt>
      <trkpt lat="47.11588" lon="-2.10259">
        <ele>18.5</ele>
        <time>2020-06-05T10:58:36Z</time>
      </trkpt>
      <trkpt lat="47.11589" lon="-2.10258">
        <ele>18.4</ele>
        <time>2020-06-05T10:58:37Z</time>
      </trkpt>
      <trkpt lat="47.1159" lon="-2.10257">
        <ele>18.4</ele>
        <time>2020-06-05T10:58:38Z</time>
      </trkpt>
      <trkpt lat="47.11591" lon="-2.10256">
        <ele>18.3</ele>
        <time>2020-06-05T10:58:39Z</time>
      </trkpt>
      <trkpt lat="47.11592" lon="-2.10255">
        <ele>18.3</ele>
        <time>2020-06-05T10:58:40Z</time>
      </trkpt>
      <trkpt lat="47.11592" lon="-2.10254">
        <ele>18.3</ele>
        <time>2020-06-05T10:58:41Z</time>
      </trkpt>
      <trkpt lat="47.11593" lon="-2.10253">
        <ele>18.3</ele>
        <time>2020-06-05T10:58:42Z</time>
      </trkpt>
      <trkpt lat="47.11593" lon="-2.10252">
        <ele>18.2</ele>
        <time>2020-06-05T10:58:43Z</time>
      </trkpt>
      <trkpt lat="47.11593" lon="-2.10252">
        <ele>18.2</ele>
        <time>2020-06-05T10:58:44Z</time>
      </trkpt>
      <trkpt lat="47.11593" lon="-2.10251">
        <ele>18.2</ele>
        <time>2020-06-05T10:58:45Z</time>
      </trkpt>
      <trkpt lat="47.11593" lon="-2.1025">
        <ele>18.2</ele>
        <time>2020-06-05T10:58:46Z</time>
      </trkpt>
      <trkpt lat="47.11593" lon="-2.1025">
        <ele>18.2</ele>
        <time>2020-06-05T10:58:47Z</time>
      </trkpt>
      <trkpt lat="47.11593" lon="-2.10251">
        <ele>18.1</ele>
        <time>2020-06-05T10:58:48Z</time>
      </trkpt>
      <trkpt lat="47.11594" lon="-2.1025">
        <ele>18.1</ele>
        <time>2020-06-05T10:58:49Z</time>
      </trkpt>
      <trkpt lat="47.11595" lon="-2.10249">
        <ele>18.1</ele>
        <time>2020-06-05T10:58:50Z</time>
      </trkpt>
      <trkpt lat="47.11596" lon="-2.10248">
        <ele>18</ele>
        <time>2020-06-05T10:58:51Z</time>
      </trkpt>
      <trkpt lat="47.11597" lon="-2.10248">
        <ele>18</ele>
        <time>2020-06-05T10:58:52Z</time>
      </trkpt>
      <trkpt lat="47.11597" lon="-2.10248">
        <ele>18</ele>
        <time>2020-06-05T10:58:53Z</time>
      </trkpt>
      <trkpt lat="47.11598" lon="-2.10249">
        <ele>18</ele>
        <time>2020-06-05T10:58:54Z</time>
      </trkpt>
      <trkpt lat="47.11599" lon="-2.10249">
        <ele>18</ele>
        <time>2020-06-05T10:58:55Z</time>
      </trkpt>
      <trkpt lat="47.11598" lon="-2.10248">
        <ele>17.9</ele>
        <time>2020-06-05T10:58:56Z</time>
      </trkpt>
      <trkpt lat="47.11598" lon="-2.1023">
        <ele>17.6</ele>
        <time>2020-06-05T11:00:14Z</time>
      </trkpt>
      <trkpt lat="47.11597" lon="-2.10228">
        <ele>17.5</ele>
        <time>2020-06-05T11:00:15Z</time>
      </trkpt>
      <trkpt lat="47.11597" lon="-2.10227">
        <ele>17.5</ele>
        <time>2020-06-05T11:00:16Z</time>
      </trkpt>
      <trkpt lat="47.11596" lon="-2.10226">
        <ele>17.5</ele>
        <time>2020-06-05T11:00:17Z</time>
      </trkpt>
      <trkpt lat="47.11596" lon="-2.10225">
        <ele>17.4</ele>
        <time>2020-06-05T11:00:18Z</time>
      </trkpt>
      <trkpt lat="47.11596" lon="-2.10225">
        <ele>17.4</ele>
        <time>2020-06-05T11:00:19Z</time>
      </trkpt>
      <trkpt lat="47.11596" lon="-2.10223">
        <ele>17.4</ele>
        <time>2020-06-05T11:00:20Z</time>
      </trkpt>
      <trkpt lat="47.11596" lon="-2.10222">
        <ele>17.4</ele>
        <time>2020-06-05T11:00:21Z</time>
      </trkpt>
      <trkpt lat="47.11596" lon="-2.10221">
        <ele>17.4</ele>
        <time>2020-06-05T11:00:22Z</time>
      </trkpt>
      <trkpt lat="47.11596" lon="-2.1022">
        <ele>17.4</ele>
        <time>2020-06-05T11:00:23Z</time>
      </trkpt>
      <trkpt lat="47.11595" lon="-2.10219">
        <ele>17.3</ele>
        <time>2020-06-05T11:00:24Z</time>
      </trkpt>
      <trkpt lat="47.11595" lon="-2.10218">
        <ele>17.3</ele>
        <time>2020-06-05T11:00:25Z</time>
      </trkpt>
      <trkpt lat="47.11595" lon="-2.10217">
        <ele>17.3</ele>
        <time>2020-06-05T11:00:26Z</time>
      </trkpt>
      <trkpt lat="47.11595" lon="-2.10216">
        <ele>17.3</ele>
        <time>2020-06-05T11:00:27Z</time>
      </trkpt>
      <trkpt lat="47.11595" lon="-2.10215">
        <ele>17.3</ele>
        <time>2020-06-05T11:00:28Z</time>
      </trkpt>
      <trkpt lat="47.11595" lon="-2.10214">
        <ele>17.3</ele>
        <time>2020-06-05T11:00:29Z</time>
      </trkpt>
      <trkpt lat="47.11594" lon="-2.10213">
        <ele>17.2</ele>
        <time>2020-06-05T11:00:30Z</time>
      </trkpt>
      <trkpt lat="47.11594" lon="-2.10212">
        <ele>17.2</ele>
        <time>2020-06-05T11:00:31Z</time>
      </trkpt>
      <trkpt lat="47.11594" lon="-2.10211">
        <ele>17.2</ele>
        <time>2020-06-05T11:00:32Z</time>
      </trkpt>
      <trkpt lat="47.11594" lon="-2.1021">
        <ele>17.2</ele>
        <time>2020-06-05T11:00:33Z</time>
      </trkpt>
      <trkpt lat="47.11594" lon="-2.10209">
        <ele>17.2</ele>
        <time>2020-06-05T11:00:53Z</time>
      </trkpt>
      <trkpt lat="47.11594" lon="-2.10208">
        <ele>17.1</ele>
        <time>2020-06-05T11:00:54Z</time>
      </trkpt>
      <trkpt lat="47.11593" lon="-2.10207">
        <ele>17.1</ele>
        <time>2020-06-05T11:00:55Z</time>
      </trkpt>
      <trkpt lat="47.11591" lon="-2.102">
        <ele>17</ele>
        <time>2020-06-05T11:00:56Z</time>
      </trkpt>
      <trkpt lat="47.1159" lon="-2.10195">
        <ele>16.9</ele>
        <time>2020-06-05T11:00:57Z</time>
      </trkpt>
      <trkpt lat="47.11589" lon="-2.10189">
        <ele>16.7</ele>
        <time>2020-06-05T11:00:58Z</time>
      </trkpt>
      <trkpt lat="47.11587" lon="-2.10183">
        <ele>16.6</ele>
        <time>2020-06-05T11:00:59Z</time>
      </trkpt>
      <trkpt lat="47.11586" lon="-2.10175">
        <ele>16.4</ele>
        <time>2020-06-05T11:01:00Z</time>
      </trkpt>
      <trkpt lat="47.11582" lon="-2.10167">
        <ele>16.1</ele>
        <time>2020-06-05T11:01:01Z</time>
      </trkpt>
      <trkpt lat="47.1158" lon="-2.10159">
        <ele>16</ele>
        <time>2020-06-05T11:01:02Z</time>
      </trkpt>
      <trkpt lat="47.11579" lon="-2.10151">
        <ele>15.8</ele>
        <time>2020-06-05T11:01:03Z</time>
      </trkpt>
      <trkpt lat="47.11577" lon="-2.10142">
        <ele>15.6</ele>
        <time>2020-06-05T11:01:04Z</time>
      </trkpt>
      <trkpt lat="47.11576" lon="-2.10134">
        <ele>15.3</ele>
        <time>2020-06-05T11:01:05Z</time>
      </trkpt>
      <trkpt lat="47.11574" lon="-2.10125">
        <ele>14.9</ele>
        <time>2020-06-05T11:01:06Z</time>
      </trkpt>
      <trkpt lat="47.11572" lon="-2.10116">
        <ele>14.6</ele>
        <time>2020-06-05T11:01:07Z</time>
      </trkpt>
      <trkpt lat="47.1157" lon="-2.10107">
        <ele>14.2</ele>
        <time>2020-06-05T11:01:08Z</time>
      </trkpt>
      <trkpt lat="47.11568" lon="-2.10097">
        <ele>13.8</ele>
        <time>2020-06-05T11:01:09Z</time>
      </trkpt>
      <trkpt lat="47.11567" lon="-2.10089">
        <ele>13.4</ele>
        <time>2020-06-05T11:01:10Z</time>
      </trkpt>
      <trkpt lat="47.11567" lon="-2.10081">
        <ele>13.1</ele>
        <time>2020-06-05T11:01:11Z</time>
      </trkpt>
      <trkpt lat="47.11568" lon="-2.10072">
        <ele>12.7</ele>
        <time>2020-06-05T11:01:12Z</time>
      </trkpt>
      <trkpt lat="47.1157" lon="-2.10063">
        <ele>12.3</ele>
        <time>2020-06-05T11:01:13Z</time>
      </trkpt>
      <trkpt lat="47.11571" lon="-2.10053">
        <ele>11.8</ele>
        <time>2020-06-05T11:01:14Z</time>
      </trkpt>
      <trkpt lat="47.11573" lon="-2.10043">
        <ele>11.4</ele>
        <time>2020-06-05T11:01:15Z</time>
      </trkpt>
      <trkpt lat="47.11574" lon="-2.10035">
        <ele>11</ele>
        <time>2020-06-05T11:01:16Z</time>
      </trkpt>
      <trkpt lat="47.11576" lon="-2.10027">
        <ele>10.6</ele>
        <time>2020-06-05T11:01:17Z</time>
      </trkpt>
      <trkpt lat="47.11576" lon="-2.10018">
        <ele>10.2</ele>
        <time>2020-06-05T11:01:18Z</time>
      </trkpt>
      <trkpt lat="47.11576" lon="-2.10011">
        <ele>10</ele>
        <time>2020-06-05T11:01:19Z</time>
      </trkpt>
      <trkpt lat="47.11575" lon="-2.10004">
        <ele>9.9</ele>
        <time>2020-06-05T11:01:20Z</time>
      </trkpt>
      <trkpt lat="47.11575" lon="-2.09997">
        <ele>9.8</ele>
        <time>2020-06-05T11:01:21Z</time>
      </trkpt>
      <trkpt lat="47.11576" lon="-2.09989">
        <ele>9.6</ele>
        <time>2020-06-05T11:01:22Z</time>
      </trkpt>
      <trkpt lat="47.11576" lon="-2.09982">
        <ele>9.3</ele>
        <time>2020-06-05T11:01:23Z</time>
      </trkpt>
      <trkpt lat="47.11576" lon="-2.09973">
        <ele>9.1</ele>
        <time>2020-06-05T11:01:24Z</time>
      </trkpt>
      <trkpt lat="47.11576" lon="-2.09965">
        <ele>8.8</ele>
        <time>2020-06-05T11:01:25Z</time>
      </trkpt>
      <trkpt lat="47.11576" lon="-2.09958">
        <ele>8.6</ele>
        <time>2020-06-05T11:01:26Z</time>
      </trkpt>
      <trkpt lat="47.11574" lon="-2.09949">
        <ele>8.3</ele>
        <time>2020-06-05T11:01:27Z</time>
      </trkpt>
      <trkpt lat="47.11572" lon="-2.0994">
        <ele>8</ele>
        <time>2020-06-05T11:01:28Z</time>
      </trkpt>
      <trkpt lat="47.1157" lon="-2.09931">
        <ele>7.7</ele>
        <time>2020-06-05T11:01:29Z</time>
      </trkpt>
      <trkpt lat="47.11568" lon="-2.09922">
        <ele>7.4</ele>
        <time>2020-06-05T11:01:30Z</time>
      </trkpt>
      <trkpt lat="47.11565" lon="-2.09913">
        <ele>7.2</ele>
        <time>2020-06-05T11:01:31Z</time>
      </trkpt>
      <trkpt lat="47.11562" lon="-2.09906">
        <ele>7</ele>
        <time>2020-06-05T11:01:32Z</time>
      </trkpt>
      <trkpt lat="47.11559" lon="-2.09899">
        <ele>6.8</ele>
        <time>2020-06-05T11:01:33Z</time>
      </trkpt>
      <trkpt lat="47.11556" lon="-2.09892">
        <ele>6.6</ele>
        <time>2020-06-05T11:01:34Z</time>
      </trkpt>
      <trkpt lat="47.11553" lon="-2.09886">
        <ele>6.6</ele>
        <time>2020-06-05T11:01:35Z</time>
      </trkpt>
      <trkpt lat="47.1155" lon="-2.09884">
        <ele>6.5</ele>
        <time>2020-06-05T11:01:36Z</time>
      </trkpt>
      <trkpt lat="47.11546" lon="-2.09884">
        <ele>6.4</ele>
        <time>2020-06-05T11:01:37Z</time>
      </trkpt>
      <trkpt lat="47.11542" lon="-2.09888">
        <ele>6.1</ele>
        <time>2020-06-05T11:01:38Z</time>
      </trkpt>
      <trkpt lat="47.1154" lon="-2.09895">
        <ele>5.8</ele>
        <time>2020-06-05T11:01:39Z</time>
      </trkpt>
      <trkpt lat="47.11541" lon="-2.09903">
        <ele>5.3</ele>
        <time>2020-06-05T11:01:40Z</time>
      </trkpt>
      <trkpt lat="47.1154" lon="-2.09911">
        <ele>5.2</ele>
        <time>2020-06-05T11:01:41Z</time>
      </trkpt>
      <trkpt lat="47.1154" lon="-2.09917">
        <ele>5</ele>
        <time>2020-06-05T11:01:42Z</time>
      </trkpt>
      <trkpt lat="47.1154" lon="-2.09924">
        <ele>4.8</ele>
        <time>2020-06-05T11:01:43Z</time>
      </trkpt>
      <trkpt lat="47.11539" lon="-2.09932">
        <ele>4.6</ele>
        <time>2020-06-05T11:01:44Z</time>
      </trkpt>
      <trkpt lat="47.11538" lon="-2.09941">
        <ele>4.4</ele>
        <time>2020-06-05T11:01:45Z</time>
      </trkpt>
      <trkpt lat="47.11538" lon="-2.0995">
        <ele>4.3</ele>
        <time>2020-06-05T11:01:46Z</time>
      </trkpt>
      <trkpt lat="47.11538" lon="-2.09958">
        <ele>4.2</ele>
        <time>2020-06-05T11:01:47Z</time>
      </trkpt>
      <trkpt lat="47.11537" lon="-2.09967">
        <ele>4.1</ele>
        <time>2020-06-05T11:01:48Z</time>
      </trkpt>
      <trkpt lat="47.11537" lon="-2.09975">
        <ele>4</ele>
        <time>2020-06-05T11:01:49Z</time>
      </trkpt>
      <trkpt lat="47.11537" lon="-2.09981">
        <ele>4</ele>
        <time>2020-06-05T11:01:50Z</time>
      </trkpt>
      <trkpt lat="47.11537" lon="-2.09988">
        <ele>4</ele>
        <time>2020-06-05T11:01:51Z</time>
      </trkpt>
      <trkpt lat="47.11538" lon="-2.09993">
        <ele>4</ele>
        <time>2020-06-05T11:01:52Z</time>
      </trkpt>
      <trkpt lat="47.11539" lon="-2.09998">
        <ele>4</ele>
        <time>2020-06-05T11:01:53Z</time>
      </trkpt>
      <trkpt lat="47.1154" lon="-2.10004">
        <ele>3.9</ele>
        <time>2020-06-05T11:01:54Z</time>
      </trkpt>
      <trkpt lat="47.11541" lon="-2.1001">
        <ele>3.9</ele>
        <time>2020-06-05T11:01:55Z</time>
      </trkpt>
      <trkpt lat="47.11543" lon="-2.10015">
        <ele>3.9</ele>
        <time>2020-06-05T11:01:56Z</time>
      </trkpt>
      <trkpt lat="47.11543" lon="-2.1002">
        <ele>3.9</ele>
        <time>2020-06-05T11:01:57Z</time>
      </trkpt>
      <trkpt lat="47.11543" lon="-2.10026">
        <ele>3.9</ele>
        <time>2020-06-05T11:01:58Z</time>
      </trkpt>
      <trkpt lat="47.11542" lon="-2.10032">
        <ele>3.9</ele>
        <time>2020-06-05T11:01:59Z</time>
      </trkpt>
      <trkpt lat="47.11542" lon="-2.10038">
        <ele>3.9</ele>
        <time>2020-06-05T11:02:00Z</time>
      </trkpt>
      <trkpt lat="47.11541" lon="-2.10045">
        <ele>3.9</ele>
        <time>2020-06-05T11:02:01Z</time>
      </trkpt>
      <trkpt lat="47.1154" lon="-2.10053">
        <ele>3.9</ele>
        <time>2020-06-05T11:02:02Z</time>
      </trkpt>
      <trkpt lat="47.11539" lon="-2.10059">
        <ele>3.9</ele>
        <time>2020-06-05T11:02:03Z</time>
      </trkpt>
      <trkpt lat="47.11538" lon="-2.10068">
        <ele>3.9</ele>
        <time>2020-06-05T11:02:04Z</time>
      </trkpt>
      <trkpt lat="47.11538" lon="-2.10076">
        <ele>3.9</ele>
        <time>2020-06-05T11:02:05Z</time>
      </trkpt>
      <trkpt lat="47.11539" lon="-2.10083">
        <ele>3.9</ele>
        <time>2020-06-05T11:02:06Z</time>
      </trkpt>
      <trkpt lat="47.11539" lon="-2.10088">
        <ele>3.9</ele>
        <time>2020-06-05T11:02:07Z</time>
      </trkpt>
      <trkpt lat="47.11538" lon="-2.10094">
        <ele>3.9</ele>
        <time>2020-06-05T11:02:08Z</time>
      </trkpt>
      <trkpt lat="47.11537" lon="-2.101">
        <ele>3.9</ele>
        <time>2020-06-05T11:02:09Z</time>
      </trkpt>
      <trkpt lat="47.11537" lon="-2.10106">
        <ele>3.9</ele>
        <time>2020-06-05T11:02:10Z</time>
      </trkpt>
      <trkpt lat="47.11536" lon="-2.10112">
        <ele>3.9</ele>
        <time>2020-06-05T11:02:11Z</time>
      </trkpt>
      <trkpt lat="47.11537" lon="-2.10116">
        <ele>4</ele>
        <time>2020-06-05T11:02:12Z</time>
      </trkpt>
      <trkpt lat="47.11537" lon="-2.10122">
        <ele>4</ele>
        <time>2020-06-05T11:02:13Z</time>
      </trkpt>
      <trkpt lat="47.11538" lon="-2.10129">
        <ele>4</ele>
        <time>2020-06-05T11:02:14Z</time>
      </trkpt>
      <trkpt lat="47.11538" lon="-2.10136">
        <ele>4</ele>
        <time>2020-06-05T11:02:15Z</time>
      </trkpt>
      <trkpt lat="47.11538" lon="-2.10143">
        <ele>4</ele>
        <time>2020-06-05T11:02:16Z</time>
      </trkpt>
      <trkpt lat="47.11538" lon="-2.10151">
        <ele>4.1</ele>
        <time>2020-06-05T11:02:17Z</time>
      </trkpt>
      <trkpt lat="47.11538" lon="-2.10159">
        <ele>4.2</ele>
        <time>2020-06-05T11:02:18Z</time>
      </trkpt>
      <trkpt lat="47.11538" lon="-2.10165">
        <ele>4.2</ele>
        <time>2020-06-05T11:02:19Z</time>
      </trkpt>
      <trkpt lat="47.11539" lon="-2.10173">
        <ele>4.2</ele>
        <time>2020-06-05T11:02:20Z</time>
      </trkpt>
      <trkpt lat="47.11539" lon="-2.1018">
        <ele>4.2</ele>
        <time>2020-06-05T11:02:21Z</time>
      </trkpt>
      <trkpt lat="47.1154" lon="-2.10186">
        <ele>4.2</ele>
        <time>2020-06-05T11:02:22Z</time>
      </trkpt>
      <trkpt lat="47.11538" lon="-2.1019">
        <ele>4.2</ele>
        <time>2020-06-05T11:02:23Z</time>
      </trkpt>
      <trkpt lat="47.11537" lon="-2.10194">
        <ele>4.2</ele>
        <time>2020-06-05T11:02:24Z</time>
      </trkpt>
      <trkpt lat="47.11533" lon="-2.10197">
        <ele>4.2</ele>
        <time>2020-06-05T11:02:25Z</time>
      </trkpt>
      <trkpt lat="47.11529" lon="-2.10199">
        <ele>4.2</ele>
        <time>2020-06-05T11:02:26Z</time>
      </trkpt>
      <trkpt lat="47.11525" lon="-2.10203">
        <ele>4.2</ele>
        <time>2020-06-05T11:02:27Z</time>
      </trkpt>
      <trkpt lat="47.11523" lon="-2.10206">
        <ele>4.2</ele>
        <time>2020-06-05T11:02:28Z</time>
      </trkpt>
      <trkpt lat="47.11523" lon="-2.10212">
        <ele>4.1</ele>
        <time>2020-06-05T11:02:29Z</time>
      </trkpt>
      <trkpt lat="47.11522" lon="-2.10219">
        <ele>4.1</ele>
        <time>2020-06-05T11:02:30Z</time>
      </trkpt>
      <trkpt lat="47.11522" lon="-2.10225">
        <ele>4.1</ele>
        <time>2020-06-05T11:02:31Z</time>
      </trkpt>
      <trkpt lat="47.11522" lon="-2.10232">
        <ele>4</ele>
        <time>2020-06-05T11:02:32Z</time>
      </trkpt>
      <trkpt lat="47.11522" lon="-2.10239">
        <ele>4</ele>
        <time>2020-06-05T11:02:33Z</time>
      </trkpt>
      <trkpt lat="47.11521" lon="-2.10245">
        <ele>4</ele>
        <time>2020-06-05T11:02:34Z</time>
      </trkpt>
      <trkpt lat="47.11521" lon="-2.10252">
        <ele>4</ele>
        <time>2020-06-05T11:02:35Z</time>
      </trkpt>
      <trkpt lat="47.1152" lon="-2.1026">
        <ele>4</ele>
        <time>2020-06-05T11:02:36Z</time>
      </trkpt>
      <trkpt lat="47.11519" lon="-2.10268">
        <ele>4.1</ele>
        <time>2020-06-05T11:02:37Z</time>
      </trkpt>
      <trkpt lat="47.11517" lon="-2.10275">
        <ele>4.1</ele>
        <time>2020-06-05T11:02:38Z</time>
      </trkpt>
      <trkpt lat="47.11516" lon="-2.10282">
        <ele>4.1</ele>
        <time>2020-06-05T11:02:39Z</time>
      </trkpt>
      <trkpt lat="47.11514" lon="-2.10289">
        <ele>4.1</ele>
        <time>2020-06-05T11:02:40Z</time>
      </trkpt>
      <trkpt lat="47.11513" lon="-2.10297">
        <ele>4.2</ele>
        <time>2020-06-05T11:02:41Z</time>
      </trkpt>
      <trkpt lat="47.11512" lon="-2.10305">
        <ele>4.2</ele>
        <time>2020-06-05T11:02:42Z</time>
      </trkpt>
      <trkpt lat="47.11511" lon="-2.10311">
        <ele>4.2</ele>
        <time>2020-06-05T11:02:43Z</time>
      </trkpt>
      <trkpt lat="47.1151" lon="-2.10316">
        <ele>4.2</ele>
        <time>2020-06-05T11:02:44Z</time>
      </trkpt>
      <trkpt lat="47.1151" lon="-2.10322">
        <ele>4.3</ele>
        <time>2020-06-05T11:02:45Z</time>
      </trkpt>
      <trkpt lat="47.11508" lon="-2.10329">
        <ele>4.3</ele>
        <time>2020-06-05T11:02:46Z</time>
      </trkpt>
      <trkpt lat="47.11506" lon="-2.10334">
        <ele>4.3</ele>
        <time>2020-06-05T11:02:47Z</time>
      </trkpt>
      <trkpt lat="47.11504" lon="-2.10339">
        <ele>4.3</ele>
        <time>2020-06-05T11:02:48Z</time>
      </trkpt>
      <trkpt lat="47.11502" lon="-2.10344">
        <ele>4.4</ele>
        <time>2020-06-05T11:02:49Z</time>
      </trkpt>
      <trkpt lat="47.11499" lon="-2.10348">
        <ele>4.4</ele>
        <time>2020-06-05T11:02:50Z</time>
      </trkpt>
      <trkpt lat="47.11498" lon="-2.10353">
        <ele>4.4</ele>
        <time>2020-06-05T11:02:51Z</time>
      </trkpt>
      <trkpt lat="47.11497" lon="-2.10359">
        <ele>4.4</ele>
        <time>2020-06-05T11:02:52Z</time>
      </trkpt>
      <trkpt lat="47.11495" lon="-2.10364">
        <ele>4.4</ele>
        <time>2020-06-05T11:02:53Z</time>
      </trkpt>
      <trkpt lat="47.11494" lon="-2.10369">
        <ele>4.5</ele>
        <time>2020-06-05T11:02:54Z</time>
      </trkpt>
      <trkpt lat="47.11491" lon="-2.10374">
        <ele>4.5</ele>
        <time>2020-06-05T11:02:55Z</time>
      </trkpt>
      <trkpt lat="47.1149" lon="-2.10378">
        <ele>4.5</ele>
        <time>2020-06-05T11:02:56Z</time>
      </trkpt>
      <trkpt lat="47.11488" lon="-2.10384">
        <ele>4.5</ele>
        <time>2020-06-05T11:02:57Z</time>
      </trkpt>
      <trkpt lat="47.11487" lon="-2.10391">
        <ele>4.6</ele>
        <time>2020-06-05T11:02:58Z</time>
      </trkpt>
      <trkpt lat="47.11485" lon="-2.10396">
        <ele>4.6</ele>
        <time>2020-06-05T11:02:59Z</time>
      </trkpt>
      <trkpt lat="47.11484" lon="-2.10401">
        <ele>4.7</ele>
        <time>2020-06-05T11:03:00Z</time>
      </trkpt>
      <trkpt lat="47.11482" lon="-2.10407">
        <ele>4.7</ele>
        <time>2020-06-05T11:03:01Z</time>
      </trkpt>
      <trkpt lat="47.11481" lon="-2.10413">
        <ele>4.8</ele>
        <time>2020-06-05T11:03:02Z</time>
      </trkpt>
      <trkpt lat="47.1148" lon="-2.10419">
        <ele>4.8</ele>
        <time>2020-06-05T11:03:03Z</time>
      </trkpt>
      <trkpt lat="47.11479" lon="-2.10423">
        <ele>4.9</ele>
        <time>2020-06-05T11:03:04Z</time>
      </trkpt>
      <trkpt lat="47.11479" lon="-2.10428">
        <ele>5</ele>
        <time>2020-06-05T11:03:05Z</time>
      </trkpt>
      <trkpt lat="47.11477" lon="-2.10432">
        <ele>5</ele>
        <time>2020-06-05T11:03:06Z</time>
      </trkpt>
      <trkpt lat="47.11476" lon="-2.10436">
        <ele>5.1</ele>
        <time>2020-06-05T11:03:07Z</time>
      </trkpt>
      <trkpt lat="47.11474" lon="-2.10441">
        <ele>5.2</ele>
        <time>2020-06-05T11:03:08Z</time>
      </trkpt>
      <trkpt lat="47.11473" lon="-2.10447">
        <ele>5.8</ele>
        <time>2020-06-05T11:03:09Z</time>
      </trkpt>
      <trkpt lat="47.11473" lon="-2.10453">
        <ele>6.1</ele>
        <time>2020-06-05T11:03:10Z</time>
      </trkpt>
      <trkpt lat="47.11472" lon="-2.10459">
        <ele>6.4</ele>
        <time>2020-06-05T11:03:11Z</time>
      </trkpt>
      <trkpt lat="47.11472" lon="-2.10466">
        <ele>6.8</ele>
        <time>2020-06-05T11:03:12Z</time>
      </trkpt>
      <trkpt lat="47.11472" lon="-2.10472">
        <ele>7.1</ele>
        <time>2020-06-05T11:03:13Z</time>
      </trkpt>
      <trkpt lat="47.11472" lon="-2.10479">
        <ele>7.4</ele>
        <time>2020-06-05T11:03:14Z</time>
      </trkpt>
      <trkpt lat="47.11472" lon="-2.10486">
        <ele>7.7</ele>
        <time>2020-06-05T11:03:15Z</time>
      </trkpt>
      <trkpt lat="47.11473" lon="-2.10491">
        <ele>8</ele>
        <time>2020-06-05T11:03:16Z</time>
      </trkpt>
      <trkpt lat="47.11473" lon="-2.10496">
        <ele>8.2</ele>
        <time>2020-06-05T11:03:17Z</time>
      </trkpt>
      <trkpt lat="47.11472" lon="-2.10501">
        <ele>8.5</ele>
        <time>2020-06-05T11:03:18Z</time>
      </trkpt>
      <trkpt lat="47.11471" lon="-2.10505">
        <ele>8.6</ele>
        <time>2020-06-05T11:03:19Z</time>
      </trkpt>
      <trkpt lat="47.1147" lon="-2.1051">
        <ele>8.9</ele>
        <time>2020-06-05T11:03:20Z</time>
      </trkpt>
      <trkpt lat="47.1147" lon="-2.10516">
        <ele>9.1</ele>
        <time>2020-06-05T11:03:21Z</time>
      </trkpt>
      <trkpt lat="47.11469" lon="-2.10523">
        <ele>9.4</ele>
        <time>2020-06-05T11:03:22Z</time>
      </trkpt>
      <trkpt lat="47.11468" lon="-2.10528">
        <ele>9.7</ele>
        <time>2020-06-05T11:03:23Z</time>
      </trkpt>
      <trkpt lat="47.11468" lon="-2.10533">
        <ele>9.8</ele>
        <time>2020-06-05T11:03:24Z</time>
      </trkpt>
      <trkpt lat="47.11467" lon="-2.10538">
        <ele>9.9</ele>
        <time>2020-06-05T11:03:25Z</time>
      </trkpt>
      <trkpt lat="47.11466" lon="-2.10543">
        <ele>10.1</ele>
        <time>2020-06-05T11:03:26Z</time>
      </trkpt>
      <trkpt lat="47.11465" lon="-2.10548">
        <ele>10.2</ele>
        <time>2020-06-05T11:03:27Z</time>
      </trkpt>
      <trkpt lat="47.11464" lon="-2.10554">
        <ele>10.3</ele>
        <time>2020-06-05T11:03:28Z</time>
      </trkpt>
      <trkpt lat="47.11462" lon="-2.10559">
        <ele>10.4</ele>
        <time>2020-06-05T11:03:29Z</time>
      </trkpt>
      <trkpt lat="47.11461" lon="-2.10564">
        <ele>10.5</ele>
        <time>2020-06-05T11:03:30Z</time>
      </trkpt>
      <trkpt lat="47.1146" lon="-2.10569">
        <ele>10.6</ele>
        <time>2020-06-05T11:03:31Z</time>
      </trkpt>
      <trkpt lat="47.11459" lon="-2.10574">
        <ele>10.6</ele>
        <time>2020-06-05T11:03:32Z</time>
      </trkpt>
      <trkpt lat="47.11459" lon="-2.10578">
        <ele>10.7</ele>
        <time>2020-06-05T11:03:33Z</time>
      </trkpt>
      <trkpt lat="47.11459" lon="-2.10582">
        <ele>10.7</ele>
        <time>2020-06-05T11:03:34Z</time>
      </trkpt>
      <trkpt lat="47.11459" lon="-2.10587">
        <ele>10.8</ele>
        <time>2020-06-05T11:03:35Z</time>
      </trkpt>
      <trkpt lat="47.11458" lon="-2.10589">
        <ele>10.7</ele>
        <time>2020-06-05T11:03:36Z</time>
      </trkpt>
      <trkpt lat="47.11458" lon="-2.10594">
        <ele>10.7</ele>
        <time>2020-06-05T11:03:37Z</time>
      </trkpt>
      <trkpt lat="47.11456" lon="-2.10598">
        <ele>10.6</ele>
        <time>2020-06-05T11:03:38Z</time>
      </trkpt>
      <trkpt lat="47.11454" lon="-2.10603">
        <ele>10.5</ele>
        <time>2020-06-05T11:03:39Z</time>
      </trkpt>
      <trkpt lat="47.11453" lon="-2.10605">
        <ele>10.5</ele>
        <time>2020-06-05T11:03:40Z</time>
      </trkpt>
      <trkpt lat="47.11452" lon="-2.10609">
        <ele>10.5</ele>
        <time>2020-06-05T11:03:41Z</time>
      </trkpt>
      <trkpt lat="47.1145" lon="-2.10612">
        <ele>10.4</ele>
        <time>2020-06-05T11:03:42Z</time>
      </trkpt>
      <trkpt lat="47.11449" lon="-2.10615">
        <ele>10.4</ele>
        <time>2020-06-05T11:03:43Z</time>
      </trkpt>
      <trkpt lat="47.11446" lon="-2.10619">
        <ele>10.1</ele>
        <time>2020-06-05T11:03:44Z</time>
      </trkpt>
      <trkpt lat="47.11443" lon="-2.10622">
        <ele>10</ele>
        <time>2020-06-05T11:03:45Z</time>
      </trkpt>
      <trkpt lat="47.1144" lon="-2.10624">
        <ele>9.8</ele>
        <time>2020-06-05T11:03:46Z</time>
      </trkpt>
      <trkpt lat="47.11438" lon="-2.10627">
        <ele>9.5</ele>
        <time>2020-06-05T11:03:47Z</time>
      </trkpt>
      <trkpt lat="47.11435" lon="-2.10631">
        <ele>9.3</ele>
        <time>2020-06-05T11:03:48Z</time>
      </trkpt>
      <trkpt lat="47.11434" lon="-2.10632">
        <ele>9.2</ele>
        <time>2020-06-05T11:03:49Z</time>
      </trkpt>
      <trkpt lat="47.11431" lon="-2.10635">
        <ele>9</ele>
        <time>2020-06-05T11:03:50Z</time>
      </trkpt>
      <trkpt lat="47.11429" lon="-2.10637">
        <ele>8.9</ele>
        <time>2020-06-05T11:03:51Z</time>
      </trkpt>
      <trkpt lat="47.11426" lon="-2.1064">
        <ele>8.7</ele>
        <time>2020-06-05T11:03:52Z</time>
      </trkpt>
      <trkpt lat="47.11425" lon="-2.10641">
        <ele>8.6</ele>
        <time>2020-06-05T11:03:53Z</time>
      </trkpt>
      <trkpt lat="47.11422" lon="-2.10643">
        <ele>8.5</ele>
        <time>2020-06-05T11:03:54Z</time>
      </trkpt>
      <trkpt lat="47.11421" lon="-2.10644">
        <ele>8.4</ele>
        <time>2020-06-05T11:03:55Z</time>
      </trkpt>
      <trkpt lat="47.11418" lon="-2.10647">
        <ele>8.2</ele>
        <time>2020-06-05T11:03:56Z</time>
      </trkpt>
      <trkpt lat="47.11416" lon="-2.10648">
        <ele>8.1</ele>
        <time>2020-06-05T11:03:57Z</time>
      </trkpt>
      <trkpt lat="47.11413" lon="-2.1065">
        <ele>8</ele>
        <time>2020-06-05T11:03:58Z</time>
      </trkpt>
      <trkpt lat="47.1141" lon="-2.10652">
        <ele>7.9</ele>
        <time>2020-06-05T11:03:59Z</time>
      </trkpt>
      <trkpt lat="47.11407" lon="-2.10655">
        <ele>7.8</ele>
        <time>2020-06-05T11:04:00Z</time>
      </trkpt>
      <trkpt lat="47.11403" lon="-2.10657">
        <ele>7.7</ele>
        <time>2020-06-05T11:04:01Z</time>
      </trkpt>
      <trkpt lat="47.11399" lon="-2.10661">
        <ele>7.7</ele>
        <time>2020-06-05T11:04:02Z</time>
      </trkpt>
      <trkpt lat="47.11396" lon="-2.10664">
        <ele>7.7</ele>
        <time>2020-06-05T11:04:03Z</time>
      </trkpt>
      <trkpt lat="47.11392" lon="-2.10668">
        <ele>7.7</ele>
        <time>2020-06-05T11:04:04Z</time>
      </trkpt>
      <trkpt lat="47.1139" lon="-2.10672">
        <ele>7.7</ele>
        <time>2020-06-05T11:04:05Z</time>
      </trkpt>
      <trkpt lat="47.11389" lon="-2.10676">
        <ele>7.7</ele>
        <time>2020-06-05T11:04:06Z</time>
      </trkpt>
      <trkpt lat="47.11389" lon="-2.10681">
        <ele>7.7</ele>
        <time>2020-06-05T11:04:07Z</time>
      </trkpt>
      <trkpt lat="47.11389" lon="-2.10682">
        <ele>7.7</ele>
        <time>2020-06-05T11:04:08Z</time>
      </trkpt>
      <trkpt lat="47.11389" lon="-2.10684">
        <ele>7.8</ele>
        <time>2020-06-05T11:04:09Z</time>
      </trkpt>
      <trkpt lat="47.1139" lon="-2.10685">
        <ele>7.9</ele>
        <time>2020-06-05T11:04:10Z</time>
      </trkpt>
      <trkpt lat="47.1139" lon="-2.10687">
        <ele>7.9</ele>
        <time>2020-06-05T11:04:11Z</time>
      </trkpt>
      <trkpt lat="47.1139" lon="-2.10688">
        <ele>8</ele>
        <time>2020-06-05T11:04:12Z</time>
      </trkpt>
      <trkpt lat="47.11389" lon="-2.10687">
        <ele>8</ele>
        <time>2020-06-05T11:04:13Z</time>
      </trkpt>
      <trkpt lat="47.1139" lon="-2.10688">
        <ele>8</ele>
        <time>2020-06-05T11:04:14Z</time>
      </trkpt>
      <trkpt lat="47.1139" lon="-2.10688">
        <ele>8</ele>
        <time>2020-06-05T11:04:15Z</time>
      </trkpt>
      <trkpt lat="47.1139" lon="-2.10688">
        <ele>8</ele>
        <time>2020-06-05T11:04:16Z</time>
      </trkpt>
      <trkpt lat="47.1139" lon="-2.10688">
        <ele>8</ele>
        <time>2020-06-05T11:04:17Z</time>
      </trkpt>
      <trkpt lat="47.1139" lon="-2.10688">
        <ele>8</ele>
        <time>2020-06-05T11:04:18Z</time>
      </trkpt>
      <trkpt lat="47.1139" lon="-2.10688">
        <ele>8</ele>
        <time>2020-06-05T11:04:19Z</time>
      </trkpt>
      <trkpt lat="47.1139" lon="-2.10688">
        <ele>8</ele>
        <time>2020-06-05T11:04:20Z</time>
      </trkpt>
      <trkpt lat="47.11391" lon="-2.10688">
        <ele>8</ele>
        <time>2020-06-05T11:04:21Z</time>
      </trkpt>
      <trkpt lat="47.11391" lon="-2.10687">
        <ele>8.1</ele>
        <time>2020-06-05T11:04:22Z</time>
      </trkpt>
      <trkpt lat="47.11392" lon="-2.10691">
        <ele>8.1</ele>
        <time>2020-06-05T11:04:33Z</time>
      </trkpt>
      <trkpt lat="47.11394" lon="-2.10694">
        <ele>8.2</ele>
        <time>2020-06-05T11:04:34Z</time>
      </trkpt>
      <trkpt lat="47.11397" lon="-2.10697">
        <ele>8.4</ele>
        <time>2020-06-05T11:04:35Z</time>
      </trkpt>
      <trkpt lat="47.11399" lon="-2.10698">
        <ele>8.4</ele>
        <time>2020-06-05T11:04:36Z</time>
      </trkpt>
      <trkpt lat="47.11402" lon="-2.10699">
        <ele>8.6</ele>
        <time>2020-06-05T11:04:37Z</time>
      </trkpt>
      <trkpt lat="47.11405" lon="-2.10702">
        <ele>8.7</ele>
        <time>2020-06-05T11:04:38Z</time>
      </trkpt>
      <trkpt lat="47.11408" lon="-2.10704">
        <ele>8.9</ele>
        <time>2020-06-05T11:04:39Z</time>
      </trkpt>
      <trkpt lat="47.11412" lon="-2.10707">
        <ele>9.2</ele>
        <time>2020-06-05T11:04:40Z</time>
      </trkpt>
      <trkpt lat="47.11415" lon="-2.1071">
        <ele>9.5</ele>
        <time>2020-06-05T11:04:41Z</time>
      </trkpt>
      <trkpt lat="47.11419" lon="-2.10714">
        <ele>9.8</ele>
        <time>2020-06-05T11:04:42Z</time>
      </trkpt>
      <trkpt lat="47.11423" lon="-2.10716">
        <ele>10.2</ele>
        <time>2020-06-05T11:04:43Z</time>
      </trkpt>
      <trkpt lat="47.11427" lon="-2.10718">
        <ele>10.6</ele>
        <time>2020-06-05T11:04:44Z</time>
      </trkpt>
      <trkpt lat="47.1143" lon="-2.10721">
        <ele>10.9</ele>
        <time>2020-06-05T11:04:45Z</time>
      </trkpt>
      <trkpt lat="47.11433" lon="-2.10723">
        <ele>11.3</ele>
        <time>2020-06-05T11:04:46Z</time>
      </trkpt>
      <trkpt lat="47.11437" lon="-2.10726">
        <ele>11.8</ele>
        <time>2020-06-05T11:04:47Z</time>
      </trkpt>
      <trkpt lat="47.1144" lon="-2.10729">
        <ele>12.2</ele>
        <time>2020-06-05T11:04:48Z</time>
      </trkpt>
      <trkpt lat="47.11443" lon="-2.10732">
        <ele>12.6</ele>
        <time>2020-06-05T11:04:49Z</time>
      </trkpt>
      <trkpt lat="47.11446" lon="-2.10735">
        <ele>13</ele>
        <time>2020-06-05T11:04:50Z</time>
      </trkpt>
      <trkpt lat="47.11449" lon="-2.10738">
        <ele>13.4</ele>
        <time>2020-06-05T11:04:51Z</time>
      </trkpt>
      <trkpt lat="47.11451" lon="-2.10741">
        <ele>13.8</ele>
        <time>2020-06-05T11:04:52Z</time>
      </trkpt>
      <trkpt lat="47.11453" lon="-2.10745">
        <ele>14.1</ele>
        <time>2020-06-05T11:04:53Z</time>
      </trkpt>
      <trkpt lat="47.11455" lon="-2.10749">
        <ele>14.5</ele>
        <time>2020-06-05T11:04:54Z</time>
      </trkpt>
      <trkpt lat="47.11457" lon="-2.10752">
        <ele>14.9</ele>
        <time>2020-06-05T11:04:55Z</time>
      </trkpt>
      <trkpt lat="47.11459" lon="-2.10757">
        <ele>15.3</ele>
        <time>2020-06-05T11:04:56Z</time>
      </trkpt>
      <trkpt lat="47.11462" lon="-2.10761">
        <ele>15.7</ele>
        <time>2020-06-05T11:04:57Z</time>
      </trkpt>
      <trkpt lat="47.11463" lon="-2.10765">
        <ele>16</ele>
        <time>2020-06-05T11:04:58Z</time>
      </trkpt>
      <trkpt lat="47.11465" lon="-2.1077">
        <ele>16.4</ele>
        <time>2020-06-05T11:04:59Z</time>
      </trkpt>
      <trkpt lat="47.11466" lon="-2.10775">
        <ele>16.8</ele>
        <time>2020-06-05T11:05:00Z</time>
      </trkpt>
      <trkpt lat="47.11467" lon="-2.10779">
        <ele>17.1</ele>
        <time>2020-06-05T11:05:01Z</time>
      </trkpt>
      <trkpt lat="47.11468" lon="-2.10784">
        <ele>17.4</ele>
        <time>2020-06-05T11:05:02Z</time>
      </trkpt>
      <trkpt lat="47.11469" lon="-2.10788">
        <ele>17.7</ele>
        <time>2020-06-05T11:05:03Z</time>
      </trkpt>
      <trkpt lat="47.1147" lon="-2.10793">
        <ele>18</ele>
        <time>2020-06-05T11:05:04Z</time>
      </trkpt>
      <trkpt lat="47.1147" lon="-2.10798">
        <ele>18.3</ele>
        <time>2020-06-05T11:05:05Z</time>
      </trkpt>
      <trkpt lat="47.11471" lon="-2.10802">
        <ele>18.6</ele>
        <time>2020-06-05T11:05:06Z</time>
      </trkpt>
      <trkpt lat="47.11471" lon="-2.10806">
        <ele>18.9</ele>
        <time>2020-06-05T11:05:07Z</time>
      </trkpt>
      <trkpt lat="47.11471" lon="-2.1081">
        <ele>19.2</ele>
        <time>2020-06-05T11:05:08Z</time>
      </trkpt>
      <trkpt lat="47.11471" lon="-2.10815">
        <ele>19.6</ele>
        <time>2020-06-05T11:05:09Z</time>
      </trkpt>
      <trkpt lat="47.1147" lon="-2.10816">
        <ele>19.6</ele>
        <time>2020-06-05T11:05:10Z</time>
      </trkpt>
      <trkpt lat="47.11469" lon="-2.10821">
        <ele>19.8</ele>
        <time>2020-06-05T11:05:11Z</time>
      </trkpt>
      <trkpt lat="47.11469" lon="-2.10823">
        <ele>19.8</ele>
        <time>2020-06-05T11:05:12Z</time>
      </trkpt>
      <trkpt lat="47.11469" lon="-2.10829">
        <ele>20</ele>
        <time>2020-06-05T11:05:13Z</time>
      </trkpt>
      <trkpt lat="47.11469" lon="-2.1083">
        <ele>20.1</ele>
        <time>2020-06-05T11:05:14Z</time>
      </trkpt>
      <trkpt lat="47.11468" lon="-2.10834">
        <ele>20.2</ele>
        <time>2020-06-05T11:05:15Z</time>
      </trkpt>
      <trkpt lat="47.11467" lon="-2.1084">
        <ele>20.5</ele>
        <time>2020-06-05T11:05:16Z</time>
      </trkpt>
      <trkpt lat="47.11467" lon="-2.10841">
        <ele>20.6</ele>
        <time>2020-06-05T11:05:17Z</time>
      </trkpt>
      <trkpt lat="47.11466" lon="-2.10846">
        <ele>20.8</ele>
        <time>2020-06-05T11:05:18Z</time>
      </trkpt>
      <trkpt lat="47.11464" lon="-2.1085">
        <ele>21.1</ele>
        <time>2020-06-05T11:05:19Z</time>
      </trkpt>
      <trkpt lat="47.11463" lon="-2.10855">
        <ele>21.4</ele>
        <time>2020-06-05T11:05:20Z</time>
      </trkpt>
      <trkpt lat="47.11463" lon="-2.10857">
        <ele>21.5</ele>
        <time>2020-06-05T11:05:21Z</time>
      </trkpt>
      <trkpt lat="47.11461" lon="-2.10861">
        <ele>21.8</ele>
        <time>2020-06-05T11:05:22Z</time>
      </trkpt>
      <trkpt lat="47.11462" lon="-2.10865">
        <ele>22</ele>
        <time>2020-06-05T11:05:23Z</time>
      </trkpt>
      <trkpt lat="47.11459" lon="-2.10868">
        <ele>22.3</ele>
        <time>2020-06-05T11:05:24Z</time>
      </trkpt>
      <trkpt lat="47.11458" lon="-2.10869">
        <ele>22.4</ele>
        <time>2020-06-05T11:05:25Z</time>
      </trkpt>
      <trkpt lat="47.11457" lon="-2.10873">
        <ele>22.6</ele>
        <time>2020-06-05T11:05:26Z</time>
      </trkpt>
      <trkpt lat="47.11455" lon="-2.10877">
        <ele>22.8</ele>
        <time>2020-06-05T11:05:27Z</time>
      </trkpt>
      <trkpt lat="47.11454" lon="-2.10881">
        <ele>23</ele>
        <time>2020-06-05T11:05:28Z</time>
      </trkpt>
      <trkpt lat="47.11453" lon="-2.10885">
        <ele>23.2</ele>
        <time>2020-06-05T11:05:29Z</time>
      </trkpt>
      <trkpt lat="47.11453" lon="-2.10889">
        <ele>23.4</ele>
        <time>2020-06-05T11:05:30Z</time>
      </trkpt>
      <trkpt lat="47.11453" lon="-2.10893">
        <ele>23.6</ele>
        <time>2020-06-05T11:05:31Z</time>
      </trkpt>
      <trkpt lat="47.11453" lon="-2.10899">
        <ele>23.8</ele>
        <time>2020-06-05T11:05:32Z</time>
      </trkpt>
      <trkpt lat="47.11452" lon="-2.10901">
        <ele>23.9</ele>
        <time>2020-06-05T11:05:33Z</time>
      </trkpt>
      <trkpt lat="47.11452" lon="-2.10905">
        <ele>24.1</ele>
        <time>2020-06-05T11:05:34Z</time>
      </trkpt>
      <trkpt lat="47.11451" lon="-2.10909">
        <ele>24.3</ele>
        <time>2020-06-05T11:05:35Z</time>
      </trkpt>
      <trkpt lat="47.1145" lon="-2.10913">
        <ele>24.4</ele>
        <time>2020-06-05T11:05:36Z</time>
      </trkpt>
      <trkpt lat="47.11449" lon="-2.10918">
        <ele>24.6</ele>
        <time>2020-06-05T11:05:37Z</time>
      </trkpt>
      <trkpt lat="47.11449" lon="-2.10922">
        <ele>24.7</ele>
        <time>2020-06-05T11:05:38Z</time>
      </trkpt>
      <trkpt lat="47.11448" lon="-2.10927">
        <ele>24.8</ele>
        <time>2020-06-05T11:05:39Z</time>
      </trkpt>
      <trkpt lat="47.11448" lon="-2.10931">
        <ele>24.9</ele>
        <time>2020-06-05T11:05:40Z</time>
      </trkpt>
      <trkpt lat="47.11447" lon="-2.10935">
        <ele>25</ele>
        <time>2020-06-05T11:05:41Z</time>
      </trkpt>
      <trkpt lat="47.11447" lon="-2.10939">
        <ele>25.2</ele>
        <time>2020-06-05T11:05:42Z</time>
      </trkpt>
      <trkpt lat="47.11447" lon="-2.10944">
        <ele>25.3</ele>
        <time>2020-06-05T11:05:43Z</time>
      </trkpt>
      <trkpt lat="47.11447" lon="-2.10948">
        <ele>25.4</ele>
        <time>2020-06-05T11:05:44Z</time>
      </trkpt>
      <trkpt lat="47.11447" lon="-2.10952">
        <ele>25.5</ele>
        <time>2020-06-05T11:05:45Z</time>
      </trkpt>
      <trkpt lat="47.11447" lon="-2.10957">
        <ele>25.7</ele>
        <time>2020-06-05T11:05:46Z</time>
      </trkpt>
      <trkpt lat="47.11446" lon="-2.10961">
        <ele>25.8</ele>
        <time>2020-06-05T11:05:47Z</time>
      </trkpt>
      <trkpt lat="47.11446" lon="-2.10966">
        <ele>25.9</ele>
        <time>2020-06-05T11:05:48Z</time>
      </trkpt>
      <trkpt lat="47.11446" lon="-2.10971">
        <ele>26.1</ele>
        <time>2020-06-05T11:05:49Z</time>
      </trkpt>
      <trkpt lat="47.11447" lon="-2.10975">
        <ele>26.2</ele>
        <time>2020-06-05T11:05:50Z</time>
      </trkpt>
      <trkpt lat="47.11448" lon="-2.1098">
        <ele>26.3</ele>
        <time>2020-06-05T11:05:51Z</time>
      </trkpt>
      <trkpt lat="47.11448" lon="-2.10984">
        <ele>26.4</ele>
        <time>2020-06-05T11:05:52Z</time>
      </trkpt>
      <trkpt lat="47.11449" lon="-2.1099">
        <ele>26.6</ele>
        <time>2020-06-05T11:05:53Z</time>
      </trkpt>
      <trkpt lat="47.11449" lon="-2.10995">
        <ele>26.7</ele>
        <time>2020-06-05T11:05:54Z</time>
      </trkpt>
      <trkpt lat="47.11449" lon="-2.10999">
        <ele>26.8</ele>
        <time>2020-06-05T11:05:55Z</time>
      </trkpt>
      <trkpt lat="47.11449" lon="-2.11003">
        <ele>27</ele>
        <time>2020-06-05T11:05:56Z</time>
      </trkpt>
      <trkpt lat="47.11449" lon="-2.11008">
        <ele>27.1</ele>
        <time>2020-06-05T11:05:57Z</time>
      </trkpt>
      <trkpt lat="47.11449" lon="-2.11012">
        <ele>27.2</ele>
        <time>2020-06-05T11:05:58Z</time>
      </trkpt>
      <trkpt lat="47.11449" lon="-2.11018">
        <ele>27.3</ele>
        <time>2020-06-05T11:05:59Z</time>
      </trkpt>
      <trkpt lat="47.1145" lon="-2.1102">
        <ele>27.4</ele>
        <time>2020-06-05T11:06:00Z</time>
      </trkpt>
      <trkpt lat="47.1145" lon="-2.11024">
        <ele>27.5</ele>
        <time>2020-06-05T11:06:01Z</time>
      </trkpt>
      <trkpt lat="47.11449" lon="-2.11028">
        <ele>27.6</ele>
        <time>2020-06-05T11:06:02Z</time>
      </trkpt>
      <trkpt lat="47.11449" lon="-2.11034">
        <ele>27.7</ele>
        <time>2020-06-05T11:06:03Z</time>
      </trkpt>
      <trkpt lat="47.11448" lon="-2.11038">
        <ele>27.8</ele>
        <time>2020-06-05T11:06:04Z</time>
      </trkpt>
      <trkpt lat="47.11448" lon="-2.11042">
        <ele>27.9</ele>
        <time>2020-06-05T11:06:05Z</time>
      </trkpt>
      <trkpt lat="47.11449" lon="-2.11046">
        <ele>28</ele>
        <time>2020-06-05T11:06:06Z</time>
      </trkpt>
      <trkpt lat="47.11449" lon="-2.11051">
        <ele>28.1</ele>
        <time>2020-06-05T11:06:07Z</time>
      </trkpt>
      <trkpt lat="47.11449" lon="-2.11056">
        <ele>28.2</ele>
        <time>2020-06-05T11:06:08Z</time>
      </trkpt>
      <trkpt lat="47.11449" lon="-2.11061">
        <ele>28.3</ele>
        <time>2020-06-05T11:06:09Z</time>
      </trkpt>
      <trkpt lat="47.11449" lon="-2.11067">
        <ele>28.4</ele>
        <time>2020-06-05T11:06:10Z</time>
      </trkpt>
      <trkpt lat="47.11449" lon="-2.11072">
        <ele>28.4</ele>
        <time>2020-06-05T11:06:11Z</time>
      </trkpt>
      <trkpt lat="47.11448" lon="-2.11078">
        <ele>28.6</ele>
        <time>2020-06-05T11:06:12Z</time>
      </trkpt>
      <trkpt lat="47.11449" lon="-2.11085">
        <ele>28.7</ele>
        <time>2020-06-05T11:06:13Z</time>
      </trkpt>
      <trkpt lat="47.11449" lon="-2.11089">
        <ele>28.8</ele>
        <time>2020-06-05T11:06:14Z</time>
      </trkpt>
      <trkpt lat="47.1145" lon="-2.11095">
        <ele>28.9</ele>
        <time>2020-06-05T11:06:15Z</time>
      </trkpt>
      <trkpt lat="47.11449" lon="-2.11101">
        <ele>29</ele>
        <time>2020-06-05T11:06:16Z</time>
      </trkpt>
      <trkpt lat="47.11449" lon="-2.11106">
        <ele>29.1</ele>
        <time>2020-06-05T11:06:17Z</time>
      </trkpt>
      <trkpt lat="47.11449" lon="-2.1111">
        <ele>29.2</ele>
        <time>2020-06-05T11:06:18Z</time>
      </trkpt>
      <trkpt lat="47.11449" lon="-2.11115">
        <ele>29.2</ele>
        <time>2020-06-05T11:06:19Z</time>
      </trkpt>
      <trkpt lat="47.11449" lon="-2.1112">
        <ele>29.3</ele>
        <time>2020-06-05T11:06:20Z</time>
      </trkpt>
      <trkpt lat="47.11448" lon="-2.11125">
        <ele>29.4</ele>
        <time>2020-06-05T11:06:21Z</time>
      </trkpt>
      <trkpt lat="47.11448" lon="-2.1113">
        <ele>29.4</ele>
        <time>2020-06-05T11:06:22Z</time>
      </trkpt>
      <trkpt lat="47.11448" lon="-2.11136">
        <ele>29.5</ele>
        <time>2020-06-05T11:06:23Z</time>
      </trkpt>
      <trkpt lat="47.11447" lon="-2.11141">
        <ele>29.6</ele>
        <time>2020-06-05T11:06:24Z</time>
      </trkpt>
      <trkpt lat="47.11447" lon="-2.11148">
        <ele>29.6</ele>
        <time>2020-06-05T11:06:25Z</time>
      </trkpt>
      <trkpt lat="47.11447" lon="-2.11154">
        <ele>29.7</ele>
        <time>2020-06-05T11:06:26Z</time>
      </trkpt>
      <trkpt lat="47.11447" lon="-2.11161">
        <ele>29.7</ele>
        <time>2020-06-05T11:06:27Z</time>
      </trkpt>
      <trkpt lat="47.11447" lon="-2.11168">
        <ele>29.7</ele>
        <time>2020-06-05T11:06:28Z</time>
      </trkpt>
      <trkpt lat="47.11446" lon="-2.11176">
        <ele>29.7</ele>
        <time>2020-06-05T11:06:29Z</time>
      </trkpt>
      <trkpt lat="47.11446" lon="-2.11181">
        <ele>29.8</ele>
        <time>2020-06-05T11:06:30Z</time>
      </trkpt>
      <trkpt lat="47.11446" lon="-2.11188">
        <ele>29.8</ele>
        <time>2020-06-05T11:06:31Z</time>
      </trkpt>
      <trkpt lat="47.11447" lon="-2.11195">
        <ele>29.9</ele>
        <time>2020-06-05T11:06:32Z</time>
      </trkpt>
      <trkpt lat="47.11447" lon="-2.11201">
        <ele>29.9</ele>
        <time>2020-06-05T11:06:33Z</time>
      </trkpt>
      <trkpt lat="47.11447" lon="-2.11207">
        <ele>30</ele>
        <time>2020-06-05T11:06:34Z</time>
      </trkpt>
      <trkpt lat="47.11447" lon="-2.11213">
        <ele>30.1</ele>
        <time>2020-06-05T11:06:35Z</time>
      </trkpt>
      <trkpt lat="47.11447" lon="-2.11219">
        <ele>30.2</ele>
        <time>2020-06-05T11:06:36Z</time>
      </trkpt>
      <trkpt lat="47.11448" lon="-2.11225">
        <ele>30.2</ele>
        <time>2020-06-05T11:06:37Z</time>
      </trkpt>
      <trkpt lat="47.11449" lon="-2.11232">
        <ele>30.3</ele>
        <time>2020-06-05T11:06:38Z</time>
      </trkpt>
      <trkpt lat="47.11449" lon="-2.11239">
        <ele>30.3</ele>
        <time>2020-06-05T11:06:39Z</time>
      </trkpt>
      <trkpt lat="47.11449" lon="-2.11246">
        <ele>30.4</ele>
        <time>2020-06-05T11:06:40Z</time>
      </trkpt>
      <trkpt lat="47.11449" lon="-2.11253">
        <ele>30.4</ele>
        <time>2020-06-05T11:06:41Z</time>
      </trkpt>
      <trkpt lat="47.1145" lon="-2.11259">
        <ele>30.4</ele>
        <time>2020-06-05T11:06:42Z</time>
      </trkpt>
      <trkpt lat="47.1145" lon="-2.11264">
        <ele>30.5</ele>
        <time>2020-06-05T11:06:43Z</time>
      </trkpt>
      <trkpt lat="47.1145" lon="-2.1127">
        <ele>30.5</ele>
        <time>2020-06-05T11:06:44Z</time>
      </trkpt>
      <trkpt lat="47.1145" lon="-2.11275">
        <ele>30.5</ele>
        <time>2020-06-05T11:06:45Z</time>
      </trkpt>
      <trkpt lat="47.1145" lon="-2.1128">
        <ele>30.5</ele>
        <time>2020-06-05T11:06:46Z</time>
      </trkpt>
      <trkpt lat="47.11451" lon="-2.11286">
        <ele>30.5</ele>
        <time>2020-06-05T11:06:47Z</time>
      </trkpt>
      <trkpt lat="47.11452" lon="-2.11292">
        <ele>30.6</ele>
        <time>2020-06-05T11:06:48Z</time>
      </trkpt>
      <trkpt lat="47.11453" lon="-2.11298">
        <ele>30.6</ele>
        <time>2020-06-05T11:06:49Z</time>
      </trkpt>
      <trkpt lat="47.11455" lon="-2.11302">
        <ele>30.6</ele>
        <time>2020-06-05T11:06:50Z</time>
      </trkpt>
      <trkpt lat="47.11456" lon="-2.11309">
        <ele>30.5</ele>
        <time>2020-06-05T11:06:51Z</time>
      </trkpt>
      <trkpt lat="47.11457" lon="-2.11315">
        <ele>30.5</ele>
        <time>2020-06-05T11:06:52Z</time>
      </trkpt>
      <trkpt lat="47.11458" lon="-2.11319">
        <ele>30.6</ele>
        <time>2020-06-05T11:06:53Z</time>
      </trkpt>
      <trkpt lat="47.11458" lon="-2.11323">
        <ele>30.6</ele>
        <time>2020-06-05T11:06:54Z</time>
      </trkpt>
      <trkpt lat="47.1146" lon="-2.11328">
        <ele>30.6</ele>
        <time>2020-06-05T11:06:55Z</time>
      </trkpt>
      <trkpt lat="47.11462" lon="-2.11334">
        <ele>30.7</ele>
        <time>2020-06-05T11:06:56Z</time>
      </trkpt>
      <trkpt lat="47.11463" lon="-2.11341">
        <ele>30.7</ele>
        <time>2020-06-05T11:06:57Z</time>
      </trkpt>
      <trkpt lat="47.11463" lon="-2.11347">
        <ele>30.8</ele>
        <time>2020-06-05T11:06:58Z</time>
      </trkpt>
      <trkpt lat="47.11464" lon="-2.11353">
        <ele>30.9</ele>
        <time>2020-06-05T11:06:59Z</time>
      </trkpt>
      <trkpt lat="47.11464" lon="-2.1136">
        <ele>31</ele>
        <time>2020-06-05T11:07:00Z</time>
      </trkpt>
      <trkpt lat="47.11464" lon="-2.11367">
        <ele>31</ele>
        <time>2020-06-05T11:07:01Z</time>
      </trkpt>
      <trkpt lat="47.11464" lon="-2.11374">
        <ele>31.1</ele>
        <time>2020-06-05T11:07:02Z</time>
      </trkpt>
      <trkpt lat="47.11464" lon="-2.1138">
        <ele>31.2</ele>
        <time>2020-06-05T11:07:03Z</time>
      </trkpt>
      <trkpt lat="47.11464" lon="-2.11387">
        <ele>31.2</ele>
        <time>2020-06-05T11:07:04Z</time>
      </trkpt>
      <trkpt lat="47.11464" lon="-2.11393">
        <ele>31.3</ele>
        <time>2020-06-05T11:07:05Z</time>
      </trkpt>
      <trkpt lat="47.11463" lon="-2.114">
        <ele>31.3</ele>
        <time>2020-06-05T11:07:06Z</time>
      </trkpt>
      <trkpt lat="47.11463" lon="-2.11406">
        <ele>31.3</ele>
        <time>2020-06-05T11:07:07Z</time>
      </trkpt>
      <trkpt lat="47.11462" lon="-2.11414">
        <ele>31.4</ele>
        <time>2020-06-05T11:07:08Z</time>
      </trkpt>
      <trkpt lat="47.11462" lon="-2.1142">
        <ele>31.4</ele>
        <time>2020-06-05T11:07:09Z</time>
      </trkpt>
      <trkpt lat="47.11461" lon="-2.11427">
        <ele>31.4</ele>
        <time>2020-06-05T11:07:10Z</time>
      </trkpt>
      <trkpt lat="47.1146" lon="-2.11433">
        <ele>31.5</ele>
        <time>2020-06-05T11:07:11Z</time>
      </trkpt>
      <trkpt lat="47.11459" lon="-2.1144">
        <ele>31.5</ele>
        <time>2020-06-05T11:07:12Z</time>
      </trkpt>
      <trkpt lat="47.11458" lon="-2.11447">
        <ele>31.6</ele>
        <time>2020-06-05T11:07:13Z</time>
      </trkpt>
      <trkpt lat="47.11456" lon="-2.11454">
        <ele>31.6</ele>
        <time>2020-06-05T11:07:14Z</time>
      </trkpt>
      <trkpt lat="47.11455" lon="-2.11461">
        <ele>31.7</ele>
        <time>2020-06-05T11:07:15Z</time>
      </trkpt>
      <trkpt lat="47.11453" lon="-2.11467">
        <ele>31.8</ele>
        <time>2020-06-05T11:07:16Z</time>
      </trkpt>
      <trkpt lat="47.11453" lon="-2.11473">
        <ele>31.8</ele>
        <time>2020-06-05T11:07:17Z</time>
      </trkpt>
      <trkpt lat="47.11452" lon="-2.11479">
        <ele>31.9</ele>
        <time>2020-06-05T11:07:18Z</time>
      </trkpt>
      <trkpt lat="47.1145" lon="-2.11486">
        <ele>32</ele>
        <time>2020-06-05T11:07:19Z</time>
      </trkpt>
      <trkpt lat="47.11448" lon="-2.11492">
        <ele>32.1</ele>
        <time>2020-06-05T11:07:20Z</time>
      </trkpt>
      <trkpt lat="47.11447" lon="-2.11498">
        <ele>32.1</ele>
        <time>2020-06-05T11:07:21Z</time>
      </trkpt>
      <trkpt lat="47.11446" lon="-2.11503">
        <ele>32.2</ele>
        <time>2020-06-05T11:07:22Z</time>
      </trkpt>
      <trkpt lat="47.11444" lon="-2.11509">
        <ele>32.2</ele>
        <time>2020-06-05T11:07:23Z</time>
      </trkpt>
      <trkpt lat="47.11443" lon="-2.11514">
        <ele>32.2</ele>
        <time>2020-06-05T11:07:24Z</time>
      </trkpt>
      <trkpt lat="47.11442" lon="-2.1152">
        <ele>32.3</ele>
        <time>2020-06-05T11:07:25Z</time>
      </trkpt>
      <trkpt lat="47.11442" lon="-2.11522">
        <ele>32.4</ele>
        <time>2020-06-05T11:07:26Z</time>
      </trkpt>
      <trkpt lat="47.11441" lon="-2.11528">
        <ele>32.4</ele>
        <time>2020-06-05T11:07:27Z</time>
      </trkpt>
      <trkpt lat="47.11442" lon="-2.11532">
        <ele>32.5</ele>
        <time>2020-06-05T11:07:28Z</time>
      </trkpt>
      <trkpt lat="47.11444" lon="-2.11535">
        <ele>32.9</ele>
        <time>2020-06-05T11:07:29Z</time>
      </trkpt>
      <trkpt lat="47.11445" lon="-2.11537">
        <ele>33</ele>
        <time>2020-06-05T11:07:30Z</time>
      </trkpt>
      <trkpt lat="47.11446" lon="-2.11538">
        <ele>33.1</ele>
        <time>2020-06-05T11:07:31Z</time>
      </trkpt>
      <trkpt lat="47.11446" lon="-2.11539">
        <ele>33.1</ele>
        <time>2020-06-05T11:07:32Z</time>
      </trkpt>
      <trkpt lat="47.11446" lon="-2.11539">
        <ele>33.1</ele>
        <time>2020-06-05T11:07:33Z</time>
      </trkpt>
      <trkpt lat="47.11447" lon="-2.1154">
        <ele>33.1</ele>
        <time>2020-06-05T11:07:34Z</time>
      </trkpt>
      <trkpt lat="47.11447" lon="-2.11539">
        <ele>33.2</ele>
        <time>2020-06-05T11:07:35Z</time>
      </trkpt>
      <trkpt lat="47.11448" lon="-2.11538">
        <ele>33.2</ele>
        <time>2020-06-05T11:07:36Z</time>
      </trkpt>
      <trkpt lat="47.11448" lon="-2.11537">
        <ele>33.3</ele>
        <time>2020-06-05T11:07:37Z</time>
      </trkpt>
      <trkpt lat="47.11448" lon="-2.11538">
        <ele>33.3</ele>
        <time>2020-06-05T11:07:38Z</time>
      </trkpt>
      <trkpt lat="47.11449" lon="-2.11538">
        <ele>33.4</ele>
        <time>2020-06-05T11:07:39Z</time>
      </trkpt>
      <trkpt lat="47.1145" lon="-2.11539">
        <ele>33.4</ele>
        <time>2020-06-05T11:07:40Z</time>
      </trkpt>
      <trkpt lat="47.11451" lon="-2.11539">
        <ele>33.5</ele>
        <time>2020-06-05T11:07:41Z</time>
      </trkpt>
      <trkpt lat="47.11452" lon="-2.1154">
        <ele>33.6</ele>
        <time>2020-06-05T11:07:42Z</time>
      </trkpt>
      <trkpt lat="47.11453" lon="-2.1154">
        <ele>33.6</ele>
        <time>2020-06-05T11:08:16Z</time>
      </trkpt>
      <trkpt lat="47.11454" lon="-2.1154">
        <ele>33.7</ele>
        <time>2020-06-05T11:08:17Z</time>
      </trkpt>
      <trkpt lat="47.11455" lon="-2.11541">
        <ele>33.7</ele>
        <time>2020-06-05T11:08:18Z</time>
      </trkpt>
      <trkpt lat="47.11456" lon="-2.11541">
        <ele>33.8</ele>
        <time>2020-06-05T11:08:19Z</time>
      </trkpt>
      <trkpt lat="47.1146" lon="-2.11542">
        <ele>34</ele>
        <time>2020-06-05T11:08:20Z</time>
      </trkpt>
      <trkpt lat="47.11461" lon="-2.11543">
        <ele>34.1</ele>
        <time>2020-06-05T11:08:21Z</time>
      </trkpt>
      <trkpt lat="47.11465" lon="-2.11544">
        <ele>34.3</ele>
        <time>2020-06-05T11:08:22Z</time>
      </trkpt>
      <trkpt lat="47.11467" lon="-2.11545">
        <ele>34.4</ele>
        <time>2020-06-05T11:08:23Z</time>
      </trkpt>
      <trkpt lat="47.1147" lon="-2.11546">
        <ele>34.5</ele>
        <time>2020-06-05T11:08:24Z</time>
      </trkpt>
      <trkpt lat="47.11473" lon="-2.11546">
        <ele>34.7</ele>
        <time>2020-06-05T11:08:25Z</time>
      </trkpt>
      <trkpt lat="47.11477" lon="-2.11545">
        <ele>34.9</ele>
        <time>2020-06-05T11:08:26Z</time>
      </trkpt>
      <trkpt lat="47.1148" lon="-2.11544">
        <ele>35</ele>
        <time>2020-06-05T11:08:27Z</time>
      </trkpt>
      <trkpt lat="47.11484" lon="-2.11543">
        <ele>35.2</ele>
        <time>2020-06-05T11:08:28Z</time>
      </trkpt>
      <trkpt lat="47.11489" lon="-2.11543">
        <ele>35.5</ele>
        <time>2020-06-05T11:08:29Z</time>
      </trkpt>
      <trkpt lat="47.11493" lon="-2.11543">
        <ele>35.7</ele>
        <time>2020-06-05T11:08:30Z</time>
      </trkpt>
      <trkpt lat="47.11497" lon="-2.11543">
        <ele>35.9</ele>
        <time>2020-06-05T11:08:31Z</time>
      </trkpt>
      <trkpt lat="47.115" lon="-2.11543">
        <ele>36.1</ele>
        <time>2020-06-05T11:08:32Z</time>
      </trkpt>
      <trkpt lat="47.11505" lon="-2.11542">
        <ele>36.3</ele>
        <time>2020-06-05T11:08:33Z</time>
      </trkpt>
      <trkpt lat="47.11509" lon="-2.11541">
        <ele>36.5</ele>
        <time>2020-06-05T11:08:34Z</time>
      </trkpt>
      <trkpt lat="47.11513" lon="-2.11541">
        <ele>36.6</ele>
        <time>2020-06-05T11:08:35Z</time>
      </trkpt>
      <trkpt lat="47.11517" lon="-2.11541">
        <ele>36.8</ele>
        <time>2020-06-05T11:08:36Z</time>
      </trkpt>
      <trkpt lat="47.11521" lon="-2.11542">
        <ele>37.1</ele>
        <time>2020-06-05T11:08:37Z</time>
      </trkpt>
      <trkpt lat="47.11525" lon="-2.11542">
        <ele>37.1</ele>
        <time>2020-06-05T11:08:38Z</time>
      </trkpt>
      <trkpt lat="47.11529" lon="-2.11542">
        <ele>37.1</ele>
        <time>2020-06-05T11:08:39Z</time>
      </trkpt>
      <trkpt lat="47.11533" lon="-2.11542">
        <ele>37.1</ele>
        <time>2020-06-05T11:08:40Z</time>
      </trkpt>
      <trkpt lat="47.11537" lon="-2.11541">
        <ele>37.2</ele>
        <time>2020-06-05T11:08:41Z</time>
      </trkpt>
      <trkpt lat="47.11541" lon="-2.11541">
        <ele>37.2</ele>
        <time>2020-06-05T11:08:42Z</time>
      </trkpt>
      <trkpt lat="47.11546" lon="-2.11542">
        <ele>37.2</ele>
        <time>2020-06-05T11:08:43Z</time>
      </trkpt>
      <trkpt lat="47.1155" lon="-2.11543">
        <ele>37.3</ele>
        <time>2020-06-05T11:08:44Z</time>
      </trkpt>
      <trkpt lat="47.11555" lon="-2.11545">
        <ele>37.3</ele>
        <time>2020-06-05T11:08:45Z</time>
      </trkpt>
      <trkpt lat="47.1156" lon="-2.11544">
        <ele>37.4</ele>
        <time>2020-06-05T11:08:46Z</time>
      </trkpt>
      <trkpt lat="47.11564" lon="-2.11544">
        <ele>37.4</ele>
        <time>2020-06-05T11:08:47Z</time>
      </trkpt>
      <trkpt lat="47.11568" lon="-2.11546">
        <ele>37.4</ele>
        <time>2020-06-05T11:08:48Z</time>
      </trkpt>
      <trkpt lat="47.11573" lon="-2.11546">
        <ele>37.5</ele>
        <time>2020-06-05T11:08:49Z</time>
      </trkpt>
      <trkpt lat="47.11577" lon="-2.11546">
        <ele>37.5</ele>
        <time>2020-06-05T11:08:50Z</time>
      </trkpt>
      <trkpt lat="47.11582" lon="-2.11545">
        <ele>37.5</ele>
        <time>2020-06-05T11:08:51Z</time>
      </trkpt>
      <trkpt lat="47.11587" lon="-2.11545">
        <ele>37.5</ele>
        <time>2020-06-05T11:08:52Z</time>
      </trkpt>
      <trkpt lat="47.11592" lon="-2.11545">
        <ele>37.5</ele>
        <time>2020-06-05T11:08:53Z</time>
      </trkpt>
      <trkpt lat="47.11595" lon="-2.11546">
        <ele>37.5</ele>
        <time>2020-06-05T11:08:54Z</time>
      </trkpt>
      <trkpt lat="47.11599" lon="-2.11547">
        <ele>37.4</ele>
        <time>2020-06-05T11:08:55Z</time>
      </trkpt>
      <trkpt lat="47.11603" lon="-2.11549">
        <ele>37.4</ele>
        <time>2020-06-05T11:08:56Z</time>
      </trkpt>
      <trkpt lat="47.11607" lon="-2.11551">
        <ele>37.4</ele>
        <time>2020-06-05T11:08:57Z</time>
      </trkpt>
      <trkpt lat="47.11609" lon="-2.11555">
        <ele>37.4</ele>
        <time>2020-06-05T11:08:58Z</time>
      </trkpt>
      <trkpt lat="47.11612" lon="-2.11559">
        <ele>37.3</ele>
        <time>2020-06-05T11:08:59Z</time>
      </trkpt>
      <trkpt lat="47.11614" lon="-2.11563">
        <ele>37.3</ele>
        <time>2020-06-05T11:09:00Z</time>
      </trkpt>
      <trkpt lat="47.11616" lon="-2.11567">
        <ele>37.3</ele>
        <time>2020-06-05T11:09:01Z</time>
      </trkpt>
      <trkpt lat="47.11619" lon="-2.1157">
        <ele>37.2</ele>
        <time>2020-06-05T11:09:02Z</time>
      </trkpt>
      <trkpt lat="47.1162" lon="-2.11571">
        <ele>37.2</ele>
        <time>2020-06-05T11:09:03Z</time>
      </trkpt>
      <trkpt lat="47.11621" lon="-2.11575">
        <ele>37.2</ele>
        <time>2020-06-05T11:09:04Z</time>
      </trkpt>
      <trkpt lat="47.11623" lon="-2.11579">
        <ele>37.2</ele>
        <time>2020-06-05T11:09:05Z</time>
      </trkpt>
      <trkpt lat="47.11625" lon="-2.11584">
        <ele>37.1</ele>
        <time>2020-06-05T11:09:06Z</time>
      </trkpt>
      <trkpt lat="47.11627" lon="-2.11589">
        <ele>37.1</ele>
        <time>2020-06-05T11:09:07Z</time>
      </trkpt>
      <trkpt lat="47.1163" lon="-2.11593">
        <ele>37.1</ele>
        <time>2020-06-05T11:09:08Z</time>
      </trkpt>
      <trkpt lat="47.11633" lon="-2.11597">
        <ele>37.1</ele>
        <time>2020-06-05T11:09:09Z</time>
      </trkpt>
      <trkpt lat="47.11635" lon="-2.11599">
        <ele>37.1</ele>
        <time>2020-06-05T11:09:10Z</time>
      </trkpt>
      <trkpt lat="47.11639" lon="-2.11601">
        <ele>37.1</ele>
        <time>2020-06-05T11:09:11Z</time>
      </trkpt>
      <trkpt lat="47.11642" lon="-2.11604">
        <ele>37.1</ele>
        <time>2020-06-05T11:09:12Z</time>
      </trkpt>
      <trkpt lat="47.11645" lon="-2.11605">
        <ele>37.1</ele>
        <time>2020-06-05T11:09:13Z</time>
      </trkpt>
      <trkpt lat="47.11648" lon="-2.11608">
        <ele>37.1</ele>
        <time>2020-06-05T11:09:14Z</time>
      </trkpt>
      <trkpt lat="47.11652" lon="-2.1161">
        <ele>37</ele>
        <time>2020-06-05T11:09:15Z</time>
      </trkpt>
      <trkpt lat="47.11655" lon="-2.11611">
        <ele>36.9</ele>
        <time>2020-06-05T11:09:16Z</time>
      </trkpt>
      <trkpt lat="47.11658" lon="-2.11612">
        <ele>36.9</ele>
        <time>2020-06-05T11:09:17Z</time>
      </trkpt>
      <trkpt lat="47.1166" lon="-2.11614">
        <ele>36.9</ele>
        <time>2020-06-05T11:09:18Z</time>
      </trkpt>
      <trkpt lat="47.11663" lon="-2.11616">
        <ele>36.8</ele>
        <time>2020-06-05T11:09:19Z</time>
      </trkpt>
      <trkpt lat="47.11664" lon="-2.11617">
        <ele>36.8</ele>
        <time>2020-06-05T11:09:20Z</time>
      </trkpt>
      <trkpt lat="47.11668" lon="-2.1162">
        <ele>36.8</ele>
        <time>2020-06-05T11:09:21Z</time>
      </trkpt>
      <trkpt lat="47.11669" lon="-2.11621">
        <ele>36.8</ele>
        <time>2020-06-05T11:09:22Z</time>
      </trkpt>
      <trkpt lat="47.11672" lon="-2.11623">
        <ele>36.7</ele>
        <time>2020-06-05T11:09:23Z</time>
      </trkpt>
      <trkpt lat="47.11675" lon="-2.11625">
        <ele>36.7</ele>
        <time>2020-06-05T11:09:24Z</time>
      </trkpt>
      <trkpt lat="47.11678" lon="-2.11628">
        <ele>36.7</ele>
        <time>2020-06-05T11:09:25Z</time>
      </trkpt>
      <trkpt lat="47.11681" lon="-2.1163">
        <ele>36.7</ele>
        <time>2020-06-05T11:09:26Z</time>
      </trkpt>
      <trkpt lat="47.11685" lon="-2.11632">
        <ele>36.7</ele>
        <time>2020-06-05T11:09:27Z</time>
      </trkpt>
      <trkpt lat="47.11689" lon="-2.11634">
        <ele>36.7</ele>
        <time>2020-06-05T11:09:28Z</time>
      </trkpt>
      <trkpt lat="47.11693" lon="-2.11637">
        <ele>36.7</ele>
        <time>2020-06-05T11:09:29Z</time>
      </trkpt>
      <trkpt lat="47.11697" lon="-2.11639">
        <ele>36.7</ele>
        <time>2020-06-05T11:09:30Z</time>
      </trkpt>
      <trkpt lat="47.117" lon="-2.11642">
        <ele>36.7</ele>
        <time>2020-06-05T11:09:31Z</time>
      </trkpt>
      <trkpt lat="47.11704" lon="-2.11644">
        <ele>36.7</ele>
        <time>2020-06-05T11:09:32Z</time>
      </trkpt>
      <trkpt lat="47.11707" lon="-2.11646">
        <ele>36.7</ele>
        <time>2020-06-05T11:09:33Z</time>
      </trkpt>
      <trkpt lat="47.11711" lon="-2.11649">
        <ele>36.7</ele>
        <time>2020-06-05T11:09:34Z</time>
      </trkpt>
      <trkpt lat="47.11715" lon="-2.11651">
        <ele>36.7</ele>
        <time>2020-06-05T11:09:35Z</time>
      </trkpt>
      <trkpt lat="47.11718" lon="-2.11654">
        <ele>36.6</ele>
        <time>2020-06-05T11:09:36Z</time>
      </trkpt>
      <trkpt lat="47.11722" lon="-2.11657">
        <ele>36.6</ele>
        <time>2020-06-05T11:09:37Z</time>
      </trkpt>
      <trkpt lat="47.11726" lon="-2.1166">
        <ele>36.6</ele>
        <time>2020-06-05T11:09:38Z</time>
      </trkpt>
      <trkpt lat="47.1173" lon="-2.11662">
        <ele>36.5</ele>
        <time>2020-06-05T11:09:39Z</time>
      </trkpt>
      <trkpt lat="47.11734" lon="-2.11664">
        <ele>36.5</ele>
        <time>2020-06-05T11:09:40Z</time>
      </trkpt>
      <trkpt lat="47.11738" lon="-2.11665">
        <ele>36.5</ele>
        <time>2020-06-05T11:09:41Z</time>
      </trkpt>
      <trkpt lat="47.11742" lon="-2.11668">
        <ele>36.5</ele>
        <time>2020-06-05T11:09:42Z</time>
      </trkpt>
      <trkpt lat="47.11746" lon="-2.1167">
        <ele>36.4</ele>
        <time>2020-06-05T11:09:43Z</time>
      </trkpt>
      <trkpt lat="47.1175" lon="-2.11673">
        <ele>36.4</ele>
        <time>2020-06-05T11:09:44Z</time>
      </trkpt>
      <trkpt lat="47.11753" lon="-2.11677">
        <ele>36.3</ele>
        <time>2020-06-05T11:09:45Z</time>
      </trkpt>
      <trkpt lat="47.11757" lon="-2.11681">
        <ele>36.3</ele>
        <time>2020-06-05T11:09:46Z</time>
      </trkpt>
      <trkpt lat="47.11761" lon="-2.11684">
        <ele>36.2</ele>
        <time>2020-06-05T11:09:47Z</time>
      </trkpt>
      <trkpt lat="47.11765" lon="-2.11687">
        <ele>36.2</ele>
        <time>2020-06-05T11:09:48Z</time>
      </trkpt>
      <trkpt lat="47.11769" lon="-2.1169">
        <ele>36.1</ele>
        <time>2020-06-05T11:09:49Z</time>
      </trkpt>
      <trkpt lat="47.11773" lon="-2.11693">
        <ele>36.1</ele>
        <time>2020-06-05T11:09:50Z</time>
      </trkpt>
      <trkpt lat="47.11777" lon="-2.11696">
        <ele>36</ele>
        <time>2020-06-05T11:09:51Z</time>
      </trkpt>
      <trkpt lat="47.11781" lon="-2.11699">
        <ele>36</ele>
        <time>2020-06-05T11:09:52Z</time>
      </trkpt>
      <trkpt lat="47.11786" lon="-2.11702">
        <ele>35.9</ele>
        <time>2020-06-05T11:09:53Z</time>
      </trkpt>
      <trkpt lat="47.1179" lon="-2.11704">
        <ele>35.9</ele>
        <time>2020-06-05T11:09:54Z</time>
      </trkpt>
      <trkpt lat="47.11793" lon="-2.11707">
        <ele>35.9</ele>
        <time>2020-06-05T11:09:55Z</time>
      </trkpt>
      <trkpt lat="47.11797" lon="-2.11709">
        <ele>35.9</ele>
        <time>2020-06-05T11:09:56Z</time>
      </trkpt>
      <trkpt lat="47.11801" lon="-2.11711">
        <ele>35.9</ele>
        <time>2020-06-05T11:09:57Z</time>
      </trkpt>
      <trkpt lat="47.11806" lon="-2.11713">
        <ele>35.8</ele>
        <time>2020-06-05T11:09:58Z</time>
      </trkpt>
      <trkpt lat="47.1181" lon="-2.11715">
        <ele>35.8</ele>
        <time>2020-06-05T11:09:59Z</time>
      </trkpt>
      <trkpt lat="47.11815" lon="-2.11716">
        <ele>35.7</ele>
        <time>2020-06-05T11:10:00Z</time>
      </trkpt>
      <trkpt lat="47.11819" lon="-2.11717">
        <ele>35.7</ele>
        <time>2020-06-05T11:10:01Z</time>
      </trkpt>
      <trkpt lat="47.11824" lon="-2.11719">
        <ele>35.7</ele>
        <time>2020-06-05T11:10:02Z</time>
      </trkpt>
      <trkpt lat="47.11828" lon="-2.1172">
        <ele>35.7</ele>
        <time>2020-06-05T11:10:03Z</time>
      </trkpt>
      <trkpt lat="47.11833" lon="-2.11721">
        <ele>35.7</ele>
        <time>2020-06-05T11:10:04Z</time>
      </trkpt>
      <trkpt lat="47.11837" lon="-2.11721">
        <ele>35.7</ele>
        <time>2020-06-05T11:10:05Z</time>
      </trkpt>
      <trkpt lat="47.11842" lon="-2.11723">
        <ele>35.7</ele>
        <time>2020-06-05T11:10:06Z</time>
      </trkpt>
      <trkpt lat="47.11847" lon="-2.11724">
        <ele>35.7</ele>
        <time>2020-06-05T11:10:07Z</time>
      </trkpt>
      <trkpt lat="47.11851" lon="-2.11725">
        <ele>35.7</ele>
        <time>2020-06-05T11:10:08Z</time>
      </trkpt>
      <trkpt lat="47.11856" lon="-2.11725">
        <ele>35.7</ele>
        <time>2020-06-05T11:10:09Z</time>
      </trkpt>
      <trkpt lat="47.11861" lon="-2.11725">
        <ele>35.8</ele>
        <time>2020-06-05T11:10:10Z</time>
      </trkpt>
      <trkpt lat="47.11865" lon="-2.11724">
        <ele>35.8</ele>
        <time>2020-06-05T11:10:11Z</time>
      </trkpt>
      <trkpt lat="47.1187" lon="-2.11725">
        <ele>35.8</ele>
        <time>2020-06-05T11:10:12Z</time>
      </trkpt>
      <trkpt lat="47.11874" lon="-2.11726">
        <ele>35.8</ele>
        <time>2020-06-05T11:10:13Z</time>
      </trkpt>
      <trkpt lat="47.11878" lon="-2.11726">
        <ele>35.8</ele>
        <time>2020-06-05T11:10:14Z</time>
      </trkpt>
      <trkpt lat="47.11883" lon="-2.11727">
        <ele>35.8</ele>
        <time>2020-06-05T11:10:15Z</time>
      </trkpt>
      <trkpt lat="47.11888" lon="-2.11727">
        <ele>35.8</ele>
        <time>2020-06-05T11:10:16Z</time>
      </trkpt>
      <trkpt lat="47.11893" lon="-2.11728">
        <ele>35.8</ele>
        <time>2020-06-05T11:10:17Z</time>
      </trkpt>
      <trkpt lat="47.11898" lon="-2.11728">
        <ele>35.8</ele>
        <time>2020-06-05T11:10:18Z</time>
      </trkpt>
      <trkpt lat="47.11903" lon="-2.11729">
        <ele>35.8</ele>
        <time>2020-06-05T11:10:19Z</time>
      </trkpt>
      <trkpt lat="47.11908" lon="-2.11729">
        <ele>35.9</ele>
        <time>2020-06-05T11:10:20Z</time>
      </trkpt>
      <trkpt lat="47.11912" lon="-2.11729">
        <ele>35.9</ele>
        <time>2020-06-05T11:10:21Z</time>
      </trkpt>
      <trkpt lat="47.11917" lon="-2.1173">
        <ele>35.8</ele>
        <time>2020-06-05T11:10:22Z</time>
      </trkpt>
      <trkpt lat="47.11922" lon="-2.11731">
        <ele>35.8</ele>
        <time>2020-06-05T11:10:23Z</time>
      </trkpt>
      <trkpt lat="47.11926" lon="-2.11731">
        <ele>35.7</ele>
        <time>2020-06-05T11:10:24Z</time>
      </trkpt>
      <trkpt lat="47.11931" lon="-2.11733">
        <ele>35.7</ele>
        <time>2020-06-05T11:10:25Z</time>
      </trkpt>
      <trkpt lat="47.11936" lon="-2.11733">
        <ele>35.6</ele>
        <time>2020-06-05T11:10:26Z</time>
      </trkpt>
      <trkpt lat="47.11941" lon="-2.11733">
        <ele>35.6</ele>
        <time>2020-06-05T11:10:27Z</time>
      </trkpt>
      <trkpt lat="47.11946" lon="-2.11734">
        <ele>35.6</ele>
        <time>2020-06-05T11:10:28Z</time>
      </trkpt>
      <trkpt lat="47.11951" lon="-2.11734">
        <ele>35.6</ele>
        <time>2020-06-05T11:10:29Z</time>
      </trkpt>
      <trkpt lat="47.11956" lon="-2.11734">
        <ele>35.5</ele>
        <time>2020-06-05T11:10:30Z</time>
      </trkpt>
      <trkpt lat="47.1196" lon="-2.11734">
        <ele>35.4</ele>
        <time>2020-06-05T11:10:31Z</time>
      </trkpt>
      <trkpt lat="47.11965" lon="-2.11735">
        <ele>35.4</ele>
        <time>2020-06-05T11:10:32Z</time>
      </trkpt>
      <trkpt lat="47.1197" lon="-2.11735">
        <ele>35.3</ele>
        <time>2020-06-05T11:10:33Z</time>
      </trkpt>
      <trkpt lat="47.11975" lon="-2.11735">
        <ele>35.3</ele>
        <time>2020-06-05T11:10:34Z</time>
      </trkpt>
      <trkpt lat="47.11981" lon="-2.11736">
        <ele>35.2</ele>
        <time>2020-06-05T11:10:35Z</time>
      </trkpt>
      <trkpt lat="47.11986" lon="-2.11737">
        <ele>35.2</ele>
        <time>2020-06-05T11:10:36Z</time>
      </trkpt>
      <trkpt lat="47.11991" lon="-2.11738">
        <ele>35.2</ele>
        <time>2020-06-05T11:10:37Z</time>
      </trkpt>
      <trkpt lat="47.11997" lon="-2.11739">
        <ele>35.1</ele>
        <time>2020-06-05T11:10:38Z</time>
      </trkpt>
      <trkpt lat="47.12002" lon="-2.1174">
        <ele>35.1</ele>
        <time>2020-06-05T11:10:39Z</time>
      </trkpt>
      <trkpt lat="47.12007" lon="-2.1174">
        <ele>35</ele>
        <time>2020-06-05T11:10:40Z</time>
      </trkpt>
      <trkpt lat="47.12013" lon="-2.11739">
        <ele>34.9</ele>
        <time>2020-06-05T11:10:41Z</time>
      </trkpt>
      <trkpt lat="47.12019" lon="-2.11738">
        <ele>34.8</ele>
        <time>2020-06-05T11:10:42Z</time>
      </trkpt>
      <trkpt lat="47.12024" lon="-2.1174">
        <ele>34.8</ele>
        <time>2020-06-05T11:10:43Z</time>
      </trkpt>
      <trkpt lat="47.12029" lon="-2.11741">
        <ele>34.7</ele>
        <time>2020-06-05T11:10:44Z</time>
      </trkpt>
      <trkpt lat="47.12035" lon="-2.11743">
        <ele>34.6</ele>
        <time>2020-06-05T11:10:45Z</time>
      </trkpt>
      <trkpt lat="47.1204" lon="-2.11744">
        <ele>34.5</ele>
        <time>2020-06-05T11:10:46Z</time>
      </trkpt>
      <trkpt lat="47.12046" lon="-2.11743">
        <ele>34.3</ele>
        <time>2020-06-05T11:10:47Z</time>
      </trkpt>
      <trkpt lat="47.12051" lon="-2.11742">
        <ele>34.2</ele>
        <time>2020-06-05T11:10:48Z</time>
      </trkpt>
      <trkpt lat="47.12056" lon="-2.11741">
        <ele>34</ele>
        <time>2020-06-05T11:10:49Z</time>
      </trkpt>
      <trkpt lat="47.12062" lon="-2.11741">
        <ele>33.9</ele>
        <time>2020-06-05T11:10:50Z</time>
      </trkpt>
      <trkpt lat="47.12068" lon="-2.11742">
        <ele>33.7</ele>
        <time>2020-06-05T11:10:51Z</time>
      </trkpt>
      <trkpt lat="47.12074" lon="-2.11743">
        <ele>33.5</ele>
        <time>2020-06-05T11:10:52Z</time>
      </trkpt>
      <trkpt lat="47.12081" lon="-2.11745">
        <ele>33.4</ele>
        <time>2020-06-05T11:10:53Z</time>
      </trkpt>
      <trkpt lat="47.12087" lon="-2.11747">
        <ele>33.3</ele>
        <time>2020-06-05T11:10:54Z</time>
      </trkpt>
      <trkpt lat="47.12093" lon="-2.11747">
        <ele>33.2</ele>
        <time>2020-06-05T11:10:55Z</time>
      </trkpt>
      <trkpt lat="47.12099" lon="-2.11749">
        <ele>33.1</ele>
        <time>2020-06-05T11:10:56Z</time>
      </trkpt>
      <trkpt lat="47.12105" lon="-2.1175">
        <ele>33.1</ele>
        <time>2020-06-05T11:10:57Z</time>
      </trkpt>
      <trkpt lat="47.12111" lon="-2.11752">
        <ele>33</ele>
        <time>2020-06-05T11:10:58Z</time>
      </trkpt>
      <trkpt lat="47.12117" lon="-2.11753">
        <ele>33</ele>
        <time>2020-06-05T11:10:59Z</time>
      </trkpt>
      <trkpt lat="47.12122" lon="-2.11754">
        <ele>32.9</ele>
        <time>2020-06-05T11:11:00Z</time>
      </trkpt>
      <trkpt lat="47.12129" lon="-2.11755">
        <ele>32.9</ele>
        <time>2020-06-05T11:11:01Z</time>
      </trkpt>
      <trkpt lat="47.12135" lon="-2.11755">
        <ele>32.8</ele>
        <time>2020-06-05T11:11:02Z</time>
      </trkpt>
      <trkpt lat="47.1214" lon="-2.11756">
        <ele>32.8</ele>
        <time>2020-06-05T11:11:03Z</time>
      </trkpt>
      <trkpt lat="47.12146" lon="-2.11758">
        <ele>32.7</ele>
        <time>2020-06-05T11:11:04Z</time>
      </trkpt>
      <trkpt lat="47.12151" lon="-2.1176">
        <ele>32.7</ele>
        <time>2020-06-05T11:11:05Z</time>
      </trkpt>
      <trkpt lat="47.12157" lon="-2.11761">
        <ele>32.7</ele>
        <time>2020-06-05T11:11:06Z</time>
      </trkpt>
      <trkpt lat="47.12163" lon="-2.11763">
        <ele>32.6</ele>
        <time>2020-06-05T11:11:07Z</time>
      </trkpt>
      <trkpt lat="47.12168" lon="-2.11765">
        <ele>32.6</ele>
        <time>2020-06-05T11:11:08Z</time>
      </trkpt>
      <trkpt lat="47.12174" lon="-2.11765">
        <ele>32.7</ele>
        <time>2020-06-05T11:11:09Z</time>
      </trkpt>
      <trkpt lat="47.12179" lon="-2.11766">
        <ele>32.7</ele>
        <time>2020-06-05T11:11:10Z</time>
      </trkpt>
      <trkpt lat="47.12184" lon="-2.11768">
        <ele>32.8</ele>
        <time>2020-06-05T11:11:11Z</time>
      </trkpt>
      <trkpt lat="47.12189" lon="-2.11769">
        <ele>32.9</ele>
        <time>2020-06-05T11:11:12Z</time>
      </trkpt>
      <trkpt lat="47.12194" lon="-2.11771">
        <ele>33</ele>
        <time>2020-06-05T11:11:13Z</time>
      </trkpt>
      <trkpt lat="47.12198" lon="-2.11772">
        <ele>33</ele>
        <time>2020-06-05T11:11:14Z</time>
      </trkpt>
      <trkpt lat="47.12203" lon="-2.11773">
        <ele>33.1</ele>
        <time>2020-06-05T11:11:15Z</time>
      </trkpt>
      <trkpt lat="47.12208" lon="-2.11774">
        <ele>33.3</ele>
        <time>2020-06-05T11:11:16Z</time>
      </trkpt>
      <trkpt lat="47.12213" lon="-2.11774">
        <ele>33.4</ele>
        <time>2020-06-05T11:11:17Z</time>
      </trkpt>
      <trkpt lat="47.12218" lon="-2.11774">
        <ele>33.5</ele>
        <time>2020-06-05T11:11:18Z</time>
      </trkpt>
      <trkpt lat="47.12222" lon="-2.11774">
        <ele>33.6</ele>
        <time>2020-06-05T11:11:19Z</time>
      </trkpt>
      <trkpt lat="47.12226" lon="-2.11772">
        <ele>33.7</ele>
        <time>2020-06-05T11:11:20Z</time>
      </trkpt>
      <trkpt lat="47.1223" lon="-2.1177">
        <ele>33.7</ele>
        <time>2020-06-05T11:11:21Z</time>
      </trkpt>
      <trkpt lat="47.12234" lon="-2.11768">
        <ele>33.8</ele>
        <time>2020-06-05T11:11:22Z</time>
      </trkpt>
      <trkpt lat="47.12239" lon="-2.11769">
        <ele>33.8</ele>
        <time>2020-06-05T11:11:23Z</time>
      </trkpt>
      <trkpt lat="47.12243" lon="-2.11772">
        <ele>33.6</ele>
        <time>2020-06-05T11:11:24Z</time>
      </trkpt>
      <trkpt lat="47.12247" lon="-2.11774">
        <ele>33.8</ele>
        <time>2020-06-05T11:11:25Z</time>
      </trkpt>
      <trkpt lat="47.12251" lon="-2.11777">
        <ele>33.9</ele>
        <time>2020-06-05T11:11:26Z</time>
      </trkpt>
      <trkpt lat="47.12255" lon="-2.11781">
        <ele>34.1</ele>
        <time>2020-06-05T11:11:27Z</time>
      </trkpt>
      <trkpt lat="47.12259" lon="-2.11784">
        <ele>33.9</ele>
        <time>2020-06-05T11:11:28Z</time>
      </trkpt>
      <trkpt lat="47.12264" lon="-2.11786">
        <ele>33.8</ele>
        <time>2020-06-05T11:11:29Z</time>
      </trkpt>
      <trkpt lat="47.12268" lon="-2.11788">
        <ele>33.6</ele>
        <time>2020-06-05T11:11:30Z</time>
      </trkpt>
      <trkpt lat="47.12272" lon="-2.11791">
        <ele>33.6</ele>
        <time>2020-06-05T11:11:31Z</time>
      </trkpt>
      <trkpt lat="47.12276" lon="-2.11794">
        <ele>33.6</ele>
        <time>2020-06-05T11:11:32Z</time>
      </trkpt>
      <trkpt lat="47.12281" lon="-2.11796">
        <ele>33.6</ele>
        <time>2020-06-05T11:11:33Z</time>
      </trkpt>
      <trkpt lat="47.12286" lon="-2.11798">
        <ele>33.6</ele>
        <time>2020-06-05T11:11:34Z</time>
      </trkpt>
      <trkpt lat="47.12291" lon="-2.118">
        <ele>33.6</ele>
        <time>2020-06-05T11:11:35Z</time>
      </trkpt>
      <trkpt lat="47.12295" lon="-2.11802">
        <ele>33.6</ele>
        <time>2020-06-05T11:11:36Z</time>
      </trkpt>
      <trkpt lat="47.123" lon="-2.11804">
        <ele>33.6</ele>
        <time>2020-06-05T11:11:37Z</time>
      </trkpt>
      <trkpt lat="47.12305" lon="-2.11805">
        <ele>33.7</ele>
        <time>2020-06-05T11:11:38Z</time>
      </trkpt>
      <trkpt lat="47.1231" lon="-2.11807">
        <ele>33.7</ele>
        <time>2020-06-05T11:11:39Z</time>
      </trkpt>
      <trkpt lat="47.12316" lon="-2.11809">
        <ele>33.7</ele>
        <time>2020-06-05T11:11:40Z</time>
      </trkpt>
      <trkpt lat="47.1232" lon="-2.11812">
        <ele>33.8</ele>
        <time>2020-06-05T11:11:41Z</time>
      </trkpt>
      <trkpt lat="47.12325" lon="-2.11815">
        <ele>33.9</ele>
        <time>2020-06-05T11:11:42Z</time>
      </trkpt>
      <trkpt lat="47.1233" lon="-2.11817">
        <ele>33.9</ele>
        <time>2020-06-05T11:11:43Z</time>
      </trkpt>
      <trkpt lat="47.12334" lon="-2.1182">
        <ele>34</ele>
        <time>2020-06-05T11:11:44Z</time>
      </trkpt>
      <trkpt lat="47.12339" lon="-2.11822">
        <ele>34.1</ele>
        <time>2020-06-05T11:11:45Z</time>
      </trkpt>
      <trkpt lat="47.12343" lon="-2.11824">
        <ele>34.2</ele>
        <time>2020-06-05T11:11:46Z</time>
      </trkpt>
      <trkpt lat="47.12348" lon="-2.11826">
        <ele>34.3</ele>
        <time>2020-06-05T11:11:47Z</time>
      </trkpt>
      <trkpt lat="47.12352" lon="-2.11826">
        <ele>34.4</ele>
        <time>2020-06-05T11:11:48Z</time>
      </trkpt>
      <trkpt lat="47.12356" lon="-2.11828">
        <ele>34.4</ele>
        <time>2020-06-05T11:11:49Z</time>
      </trkpt>
      <trkpt lat="47.1236" lon="-2.1183">
        <ele>34.5</ele>
        <time>2020-06-05T11:11:50Z</time>
      </trkpt>
      <trkpt lat="47.12364" lon="-2.11832">
        <ele>34.5</ele>
        <time>2020-06-05T11:11:51Z</time>
      </trkpt>
      <trkpt lat="47.12368" lon="-2.11835">
        <ele>34.6</ele>
        <time>2020-06-05T11:11:52Z</time>
      </trkpt>
      <trkpt lat="47.12373" lon="-2.11836">
        <ele>34.6</ele>
        <time>2020-06-05T11:11:53Z</time>
      </trkpt>
      <trkpt lat="47.12377" lon="-2.11837">
        <ele>34.7</ele>
        <time>2020-06-05T11:11:54Z</time>
      </trkpt>
      <trkpt lat="47.12381" lon="-2.1184">
        <ele>34.7</ele>
        <time>2020-06-05T11:11:55Z</time>
      </trkpt>
      <trkpt lat="47.12384" lon="-2.11842">
        <ele>34.8</ele>
        <time>2020-06-05T11:11:56Z</time>
      </trkpt>
      <trkpt lat="47.12388" lon="-2.11844">
        <ele>34.8</ele>
        <time>2020-06-05T11:11:57Z</time>
      </trkpt>
      <trkpt lat="47.12391" lon="-2.11845">
        <ele>34.9</ele>
        <time>2020-06-05T11:11:58Z</time>
      </trkpt>
      <trkpt lat="47.12394" lon="-2.11847">
        <ele>34.9</ele>
        <time>2020-06-05T11:11:59Z</time>
      </trkpt>
      <trkpt lat="47.12398" lon="-2.11848">
        <ele>35</ele>
        <time>2020-06-05T11:12:00Z</time>
      </trkpt>
      <trkpt lat="47.12402" lon="-2.11851">
        <ele>35.1</ele>
        <time>2020-06-05T11:12:01Z</time>
      </trkpt>
      <trkpt lat="47.12406" lon="-2.11854">
        <ele>35.2</ele>
        <time>2020-06-05T11:12:02Z</time>
      </trkpt>
      <trkpt lat="47.1241" lon="-2.11857">
        <ele>35.3</ele>
        <time>2020-06-05T11:12:03Z</time>
      </trkpt>
      <trkpt lat="47.12414" lon="-2.1186">
        <ele>35.4</ele>
        <time>2020-06-05T11:12:04Z</time>
      </trkpt>
      <trkpt lat="47.12419" lon="-2.11864">
        <ele>35.5</ele>
        <time>2020-06-05T11:12:05Z</time>
      </trkpt>
      <trkpt lat="47.12422" lon="-2.11866">
        <ele>35.6</ele>
        <time>2020-06-05T11:12:06Z</time>
      </trkpt>
      <trkpt lat="47.12425" lon="-2.11869">
        <ele>35.6</ele>
        <time>2020-06-05T11:12:07Z</time>
      </trkpt>
      <trkpt lat="47.12429" lon="-2.11872">
        <ele>35.7</ele>
        <time>2020-06-05T11:12:08Z</time>
      </trkpt>
      <trkpt lat="47.12432" lon="-2.11876">
        <ele>35.7</ele>
        <time>2020-06-05T11:12:09Z</time>
      </trkpt>
      <trkpt lat="47.12437" lon="-2.11879">
        <ele>35.8</ele>
        <time>2020-06-05T11:12:10Z</time>
      </trkpt>
      <trkpt lat="47.12441" lon="-2.11884">
        <ele>35.9</ele>
        <time>2020-06-05T11:12:11Z</time>
      </trkpt>
      <trkpt lat="47.12444" lon="-2.11887">
        <ele>36</ele>
        <time>2020-06-05T11:12:12Z</time>
      </trkpt>
      <trkpt lat="47.12449" lon="-2.1189">
        <ele>36.1</ele>
        <time>2020-06-05T11:12:13Z</time>
      </trkpt>
      <trkpt lat="47.12453" lon="-2.11893">
        <ele>36.1</ele>
        <time>2020-06-05T11:12:14Z</time>
      </trkpt>
      <trkpt lat="47.12457" lon="-2.11895">
        <ele>36.1</ele>
        <time>2020-06-05T11:12:15Z</time>
      </trkpt>
      <trkpt lat="47.12461" lon="-2.11899">
        <ele>36.2</ele>
        <time>2020-06-05T11:12:16Z</time>
      </trkpt>
      <trkpt lat="47.12464" lon="-2.11902">
        <ele>36.3</ele>
        <time>2020-06-05T11:12:17Z</time>
      </trkpt>
      <trkpt lat="47.12468" lon="-2.11907">
        <ele>36.2</ele>
        <time>2020-06-05T11:12:18Z</time>
      </trkpt>
      <trkpt lat="47.12472" lon="-2.11911">
        <ele>36.2</ele>
        <time>2020-06-05T11:12:19Z</time>
      </trkpt>
      <trkpt lat="47.12477" lon="-2.11915">
        <ele>36.2</ele>
        <time>2020-06-05T11:12:20Z</time>
      </trkpt>
      <trkpt lat="47.12481" lon="-2.11919">
        <ele>36.2</ele>
        <time>2020-06-05T11:12:21Z</time>
      </trkpt>
      <trkpt lat="47.12484" lon="-2.11922">
        <ele>36.2</ele>
        <time>2020-06-05T11:12:22Z</time>
      </trkpt>
      <trkpt lat="47.12488" lon="-2.11926">
        <ele>36.3</ele>
        <time>2020-06-05T11:12:23Z</time>
      </trkpt>
      <trkpt lat="47.12492" lon="-2.11929">
        <ele>36.3</ele>
        <time>2020-06-05T11:12:24Z</time>
      </trkpt>
      <trkpt lat="47.12496" lon="-2.11932">
        <ele>36.4</ele>
        <time>2020-06-05T11:12:25Z</time>
      </trkpt>
      <trkpt lat="47.125" lon="-2.11935">
        <ele>36.4</ele>
        <time>2020-06-05T11:12:26Z</time>
      </trkpt>
      <trkpt lat="47.12504" lon="-2.11937">
        <ele>36.5</ele>
        <time>2020-06-05T11:12:27Z</time>
      </trkpt>
      <trkpt lat="47.12508" lon="-2.11939">
        <ele>36.5</ele>
        <time>2020-06-05T11:12:28Z</time>
      </trkpt>
      <trkpt lat="47.12512" lon="-2.11942">
        <ele>36.5</ele>
        <time>2020-06-05T11:12:29Z</time>
      </trkpt>
      <trkpt lat="47.12516" lon="-2.11944">
        <ele>36.6</ele>
        <time>2020-06-05T11:12:30Z</time>
      </trkpt>
      <trkpt lat="47.1252" lon="-2.11947">
        <ele>36.7</ele>
        <time>2020-06-05T11:12:31Z</time>
      </trkpt>
      <trkpt lat="47.12524" lon="-2.1195">
        <ele>36.7</ele>
        <time>2020-06-05T11:12:32Z</time>
      </trkpt>
      <trkpt lat="47.12527" lon="-2.11953">
        <ele>36.8</ele>
        <time>2020-06-05T11:12:33Z</time>
      </trkpt>
      <trkpt lat="47.12531" lon="-2.11956">
        <ele>36.9</ele>
        <time>2020-06-05T11:12:34Z</time>
      </trkpt>
      <trkpt lat="47.12534" lon="-2.11959">
        <ele>37</ele>
        <time>2020-06-05T11:12:35Z</time>
      </trkpt>
      <trkpt lat="47.12536" lon="-2.11962">
        <ele>37</ele>
        <time>2020-06-05T11:12:36Z</time>
      </trkpt>
      <trkpt lat="47.12539" lon="-2.11965">
        <ele>37.1</ele>
        <time>2020-06-05T11:12:37Z</time>
      </trkpt>
      <trkpt lat="47.12541" lon="-2.11968">
        <ele>37.2</ele>
        <time>2020-06-05T11:12:38Z</time>
      </trkpt>
      <trkpt lat="47.12543" lon="-2.11968">
        <ele>37.2</ele>
        <time>2020-06-05T11:12:39Z</time>
      </trkpt>
      <trkpt lat="47.12544" lon="-2.11969">
        <ele>37.2</ele>
        <time>2020-06-05T11:12:40Z</time>
      </trkpt>
      <trkpt lat="47.12545" lon="-2.11971">
        <ele>37.3</ele>
        <time>2020-06-05T11:12:41Z</time>
      </trkpt>
      <trkpt lat="47.12547" lon="-2.11972">
        <ele>37.3</ele>
        <time>2020-06-05T11:12:42Z</time>
      </trkpt>
      <trkpt lat="47.12548" lon="-2.11974">
        <ele>37.4</ele>
        <time>2020-06-05T11:12:43Z</time>
      </trkpt>
      <trkpt lat="47.12549" lon="-2.11976">
        <ele>37.4</ele>
        <time>2020-06-05T11:12:44Z</time>
      </trkpt>
      <trkpt lat="47.12551" lon="-2.11977">
        <ele>37.3</ele>
        <time>2020-06-05T11:12:45Z</time>
      </trkpt>
      <trkpt lat="47.12552" lon="-2.11978">
        <ele>37.3</ele>
        <time>2020-06-05T11:12:46Z</time>
      </trkpt>
      <trkpt lat="47.12554" lon="-2.1198">
        <ele>37.3</ele>
        <time>2020-06-05T11:12:47Z</time>
      </trkpt>
      <trkpt lat="47.12555" lon="-2.11982">
        <ele>37.3</ele>
        <time>2020-06-05T11:12:48Z</time>
      </trkpt>
      <trkpt lat="47.12557" lon="-2.11986">
        <ele>37.2</ele>
        <time>2020-06-05T11:12:49Z</time>
      </trkpt>
      <trkpt lat="47.12558" lon="-2.11988">
        <ele>37.2</ele>
        <time>2020-06-05T11:12:50Z</time>
      </trkpt>
      <trkpt lat="47.12559" lon="-2.11992">
        <ele>37.1</ele>
        <time>2020-06-05T11:12:51Z</time>
      </trkpt>
      <trkpt lat="47.12561" lon="-2.11997">
        <ele>37.1</ele>
        <time>2020-06-05T11:12:52Z</time>
      </trkpt>
      <trkpt lat="47.12561" lon="-2.11998">
        <ele>37.1</ele>
        <time>2020-06-05T11:12:53Z</time>
      </trkpt>
      <trkpt lat="47.12562" lon="-2.12002">
        <ele>37.1</ele>
        <time>2020-06-05T11:12:54Z</time>
      </trkpt>
      <trkpt lat="47.12563" lon="-2.12006">
        <ele>37</ele>
        <time>2020-06-05T11:12:55Z</time>
      </trkpt>
      <trkpt lat="47.12564" lon="-2.12007">
        <ele>37</ele>
        <time>2020-06-05T11:12:56Z</time>
      </trkpt>
      <trkpt lat="47.12566" lon="-2.12011">
        <ele>37</ele>
        <time>2020-06-05T11:12:57Z</time>
      </trkpt>
      <trkpt lat="47.12567" lon="-2.12012">
        <ele>37</ele>
        <time>2020-06-05T11:12:58Z</time>
      </trkpt>
      <trkpt lat="47.12569" lon="-2.12014">
        <ele>37</ele>
        <time>2020-06-05T11:12:59Z</time>
      </trkpt>
      <trkpt lat="47.12571" lon="-2.12017">
        <ele>37</ele>
        <time>2020-06-05T11:13:00Z</time>
      </trkpt>
      <trkpt lat="47.12574" lon="-2.12021">
        <ele>37</ele>
        <time>2020-06-05T11:13:01Z</time>
      </trkpt>
      <trkpt lat="47.12577" lon="-2.12025">
        <ele>37</ele>
        <time>2020-06-05T11:13:02Z</time>
      </trkpt>
      <trkpt lat="47.12579" lon="-2.12027">
        <ele>37</ele>
        <time>2020-06-05T11:13:03Z</time>
      </trkpt>
      <trkpt lat="47.12582" lon="-2.12031">
        <ele>37</ele>
        <time>2020-06-05T11:13:04Z</time>
      </trkpt>
      <trkpt lat="47.12585" lon="-2.12034">
        <ele>37</ele>
        <time>2020-06-05T11:13:05Z</time>
      </trkpt>
      <trkpt lat="47.12589" lon="-2.12038">
        <ele>37</ele>
        <time>2020-06-05T11:13:06Z</time>
      </trkpt>
      <trkpt lat="47.12592" lon="-2.12042">
        <ele>37</ele>
        <time>2020-06-05T11:13:07Z</time>
      </trkpt>
      <trkpt lat="47.12596" lon="-2.12046">
        <ele>37</ele>
        <time>2020-06-05T11:13:08Z</time>
      </trkpt>
      <trkpt lat="47.12599" lon="-2.12049">
        <ele>37</ele>
        <time>2020-06-05T11:13:09Z</time>
      </trkpt>
      <trkpt lat="47.12603" lon="-2.12052">
        <ele>37.1</ele>
        <time>2020-06-05T11:13:10Z</time>
      </trkpt>
      <trkpt lat="47.12607" lon="-2.12056">
        <ele>37.1</ele>
        <time>2020-06-05T11:13:11Z</time>
      </trkpt>
      <trkpt lat="47.1261" lon="-2.1206">
        <ele>37</ele>
        <time>2020-06-05T11:13:12Z</time>
      </trkpt>
      <trkpt lat="47.12613" lon="-2.12065">
        <ele>37</ele>
        <time>2020-06-05T11:13:13Z</time>
      </trkpt>
      <trkpt lat="47.12617" lon="-2.12069">
        <ele>37</ele>
        <time>2020-06-05T11:13:14Z</time>
      </trkpt>
      <trkpt lat="47.12621" lon="-2.12073">
        <ele>37</ele>
        <time>2020-06-05T11:13:15Z</time>
      </trkpt>
      <trkpt lat="47.12625" lon="-2.12076">
        <ele>37</ele>
        <time>2020-06-05T11:13:16Z</time>
      </trkpt>
      <trkpt lat="47.12629" lon="-2.1208">
        <ele>37</ele>
        <time>2020-06-05T11:13:17Z</time>
      </trkpt>
      <trkpt lat="47.12632" lon="-2.12084">
        <ele>37</ele>
        <time>2020-06-05T11:13:18Z</time>
      </trkpt>
      <trkpt lat="47.12636" lon="-2.12087">
        <ele>37</ele>
        <time>2020-06-05T11:13:19Z</time>
      </trkpt>
      <trkpt lat="47.12639" lon="-2.1209">
        <ele>37</ele>
        <time>2020-06-05T11:13:20Z</time>
      </trkpt>
      <trkpt lat="47.12643" lon="-2.12093">
        <ele>36.9</ele>
        <time>2020-06-05T11:13:21Z</time>
      </trkpt>
      <trkpt lat="47.12646" lon="-2.12096">
        <ele>37</ele>
        <time>2020-06-05T11:13:22Z</time>
      </trkpt>
      <trkpt lat="47.12648" lon="-2.121">
        <ele>37</ele>
        <time>2020-06-05T11:13:23Z</time>
      </trkpt>
      <trkpt lat="47.12651" lon="-2.12104">
        <ele>37</ele>
        <time>2020-06-05T11:13:24Z</time>
      </trkpt>
      <trkpt lat="47.12655" lon="-2.12107">
        <ele>37</ele>
        <time>2020-06-05T11:13:25Z</time>
      </trkpt>
      <trkpt lat="47.12658" lon="-2.12112">
        <ele>37</ele>
        <time>2020-06-05T11:13:26Z</time>
      </trkpt>
      <trkpt lat="47.12661" lon="-2.12114">
        <ele>37</ele>
        <time>2020-06-05T11:13:27Z</time>
      </trkpt>
      <trkpt lat="47.12664" lon="-2.12118">
        <ele>37</ele>
        <time>2020-06-05T11:13:28Z</time>
      </trkpt>
      <trkpt lat="47.12666" lon="-2.12121">
        <ele>37</ele>
        <time>2020-06-05T11:13:29Z</time>
      </trkpt>
      <trkpt lat="47.12669" lon="-2.12125">
        <ele>37</ele>
        <time>2020-06-05T11:13:30Z</time>
      </trkpt>
      <trkpt lat="47.12672" lon="-2.12127">
        <ele>37</ele>
        <time>2020-06-05T11:13:31Z</time>
      </trkpt>
      <trkpt lat="47.12675" lon="-2.12131">
        <ele>37</ele>
        <time>2020-06-05T11:13:32Z</time>
      </trkpt>
      <trkpt lat="47.12679" lon="-2.12134">
        <ele>37</ele>
        <time>2020-06-05T11:13:33Z</time>
      </trkpt>
      <trkpt lat="47.12682" lon="-2.12138">
        <ele>37</ele>
        <time>2020-06-05T11:13:34Z</time>
      </trkpt>
      <trkpt lat="47.12685" lon="-2.12142">
        <ele>37</ele>
        <time>2020-06-05T11:13:35Z</time>
      </trkpt>
      <trkpt lat="47.12688" lon="-2.12146">
        <ele>37</ele>
        <time>2020-06-05T11:13:36Z</time>
      </trkpt>
      <trkpt lat="47.12691" lon="-2.12151">
        <ele>37</ele>
        <time>2020-06-05T11:13:37Z</time>
      </trkpt>
      <trkpt lat="47.12694" lon="-2.12156">
        <ele>37</ele>
        <time>2020-06-05T11:13:38Z</time>
      </trkpt>
      <trkpt lat="47.12697" lon="-2.1216">
        <ele>37</ele>
        <time>2020-06-05T11:13:39Z</time>
      </trkpt>
      <trkpt lat="47.127" lon="-2.12165">
        <ele>37</ele>
        <time>2020-06-05T11:13:40Z</time>
      </trkpt>
      <trkpt lat="47.12702" lon="-2.1217">
        <ele>37</ele>
        <time>2020-06-05T11:13:41Z</time>
      </trkpt>
      <trkpt lat="47.12704" lon="-2.12175">
        <ele>37</ele>
        <time>2020-06-05T11:13:42Z</time>
      </trkpt>
      <trkpt lat="47.12706" lon="-2.1218">
        <ele>37</ele>
        <time>2020-06-05T11:13:43Z</time>
      </trkpt>
      <trkpt lat="47.12708" lon="-2.12186">
        <ele>37</ele>
        <time>2020-06-05T11:13:44Z</time>
      </trkpt>
      <trkpt lat="47.1271" lon="-2.12191">
        <ele>37</ele>
        <time>2020-06-05T11:13:45Z</time>
      </trkpt>
      <trkpt lat="47.12712" lon="-2.12196">
        <ele>37</ele>
        <time>2020-06-05T11:13:46Z</time>
      </trkpt>
      <trkpt lat="47.12713" lon="-2.12201">
        <ele>37.1</ele>
        <time>2020-06-05T11:13:47Z</time>
      </trkpt>
      <trkpt lat="47.12716" lon="-2.12207">
        <ele>37.1</ele>
        <time>2020-06-05T11:13:48Z</time>
      </trkpt>
      <trkpt lat="47.12718" lon="-2.12212">
        <ele>37.1</ele>
        <time>2020-06-05T11:13:49Z</time>
      </trkpt>
      <trkpt lat="47.12721" lon="-2.12216">
        <ele>37.2</ele>
        <time>2020-06-05T11:13:50Z</time>
      </trkpt>
      <trkpt lat="47.12725" lon="-2.1222">
        <ele>37.2</ele>
        <time>2020-06-05T11:13:51Z</time>
      </trkpt>
      <trkpt lat="47.12729" lon="-2.12221">
        <ele>37.2</ele>
        <time>2020-06-05T11:13:52Z</time>
      </trkpt>
      <trkpt lat="47.12734" lon="-2.12222">
        <ele>37.1</ele>
        <time>2020-06-05T11:13:53Z</time>
      </trkpt>
      <trkpt lat="47.12738" lon="-2.12221">
        <ele>37.1</ele>
        <time>2020-06-05T11:13:54Z</time>
      </trkpt>
      <trkpt lat="47.12742" lon="-2.1222">
        <ele>37</ele>
        <time>2020-06-05T11:13:55Z</time>
      </trkpt>
      <trkpt lat="47.12746" lon="-2.1222">
        <ele>36.9</ele>
        <time>2020-06-05T11:13:56Z</time>
      </trkpt>
      <trkpt lat="47.12749" lon="-2.1222">
        <ele>36.9</ele>
        <time>2020-06-05T11:13:57Z</time>
      </trkpt>
      <trkpt lat="47.12752" lon="-2.12221">
        <ele>36.9</ele>
        <time>2020-06-05T11:13:58Z</time>
      </trkpt>
      <trkpt lat="47.12755" lon="-2.12223">
        <ele>36.9</ele>
        <time>2020-06-05T11:13:59Z</time>
      </trkpt>
      <trkpt lat="47.12757" lon="-2.12225">
        <ele>36.7</ele>
        <time>2020-06-05T11:14:00Z</time>
      </trkpt>
      <trkpt lat="47.1276" lon="-2.12227">
        <ele>36.7</ele>
        <time>2020-06-05T11:14:01Z</time>
      </trkpt>
      <trkpt lat="47.12763" lon="-2.12227">
        <ele>36.7</ele>
        <time>2020-06-05T11:14:02Z</time>
      </trkpt>
      <trkpt lat="47.12767" lon="-2.12227">
        <ele>36.7</ele>
        <time>2020-06-05T11:14:03Z</time>
      </trkpt>
      <trkpt lat="47.12768" lon="-2.12227">
        <ele>36.7</ele>
        <time>2020-06-05T11:14:04Z</time>
      </trkpt>
      <trkpt lat="47.12771" lon="-2.12226">
        <ele>36.7</ele>
        <time>2020-06-05T11:14:05Z</time>
      </trkpt>
      <trkpt lat="47.12774" lon="-2.12225">
        <ele>36.7</ele>
        <time>2020-06-05T11:14:06Z</time>
      </trkpt>
      <trkpt lat="47.12778" lon="-2.12223">
        <ele>36.7</ele>
        <time>2020-06-05T11:14:07Z</time>
      </trkpt>
      <trkpt lat="47.12781" lon="-2.12221">
        <ele>36.7</ele>
        <time>2020-06-05T11:14:08Z</time>
      </trkpt>
      <trkpt lat="47.12784" lon="-2.12219">
        <ele>36.7</ele>
        <time>2020-06-05T11:14:09Z</time>
      </trkpt>
      <trkpt lat="47.12786" lon="-2.12217">
        <ele>36.7</ele>
        <time>2020-06-05T11:14:10Z</time>
      </trkpt>
      <trkpt lat="47.12788" lon="-2.12217">
        <ele>36.7</ele>
        <time>2020-06-05T11:14:11Z</time>
      </trkpt>
      <trkpt lat="47.12788" lon="-2.12219">
        <ele>36.7</ele>
        <time>2020-06-05T11:14:12Z</time>
      </trkpt>
      <trkpt lat="47.12788" lon="-2.12219">
        <ele>36.7</ele>
        <time>2020-06-05T11:14:13Z</time>
      </trkpt>
      <trkpt lat="47.12787" lon="-2.12221">
        <ele>36.7</ele>
        <time>2020-06-05T11:14:14Z</time>
      </trkpt>
      <trkpt lat="47.12785" lon="-2.12221">
        <ele>36.7</ele>
        <time>2020-06-05T11:14:15Z</time>
      </trkpt>
      <trkpt lat="47.12784" lon="-2.12222">
        <ele>36.7</ele>
        <time>2020-06-05T11:14:16Z</time>
      </trkpt>
      <trkpt lat="47.12782" lon="-2.12222">
        <ele>36.7</ele>
        <time>2020-06-05T11:14:17Z</time>
      </trkpt>
      <trkpt lat="47.12781" lon="-2.12222">
        <ele>36.7</ele>
        <time>2020-06-05T11:14:18Z</time>
      </trkpt>
      <trkpt lat="47.12778" lon="-2.12226">
        <ele>36.7</ele>
        <time>2020-06-05T11:14:19Z</time>
      </trkpt>
      <trkpt lat="47.12778" lon="-2.12228">
        <ele>36.7</ele>
        <time>2020-06-05T11:14:20Z</time>
      </trkpt>
      <trkpt lat="47.12778" lon="-2.12233">
        <ele>36.7</ele>
        <time>2020-06-05T11:14:21Z</time>
      </trkpt>
      <trkpt lat="47.12779" lon="-2.12237">
        <ele>36.7</ele>
        <time>2020-06-05T11:14:22Z</time>
      </trkpt>
      <trkpt lat="47.12781" lon="-2.12242">
        <ele>36.7</ele>
        <time>2020-06-05T11:14:23Z</time>
      </trkpt>
      <trkpt lat="47.12783" lon="-2.12246">
        <ele>36.7</ele>
        <time>2020-06-05T11:14:24Z</time>
      </trkpt>
      <trkpt lat="47.12784" lon="-2.1225">
        <ele>36.7</ele>
        <time>2020-06-05T11:14:25Z</time>
      </trkpt>
      <trkpt lat="47.12786" lon="-2.12254">
        <ele>36.7</ele>
        <time>2020-06-05T11:14:26Z</time>
      </trkpt>
      <trkpt lat="47.12789" lon="-2.12257">
        <ele>36.7</ele>
        <time>2020-06-05T11:14:27Z</time>
      </trkpt>
      <trkpt lat="47.12791" lon="-2.1226">
        <ele>36.7</ele>
        <time>2020-06-05T11:14:28Z</time>
      </trkpt>
      <trkpt lat="47.12794" lon="-2.12263">
        <ele>36.7</ele>
        <time>2020-06-05T11:14:29Z</time>
      </trkpt>
      <trkpt lat="47.12796" lon="-2.12267">
        <ele>36.7</ele>
        <time>2020-06-05T11:14:30Z</time>
      </trkpt>
      <trkpt lat="47.12799" lon="-2.12272">
        <ele>36.8</ele>
        <time>2020-06-05T11:14:31Z</time>
      </trkpt>
      <trkpt lat="47.12803" lon="-2.12276">
        <ele>36.9</ele>
        <time>2020-06-05T11:14:32Z</time>
      </trkpt>
      <trkpt lat="47.12807" lon="-2.12279">
        <ele>37</ele>
        <time>2020-06-05T11:14:33Z</time>
      </trkpt>
      <trkpt lat="47.1281" lon="-2.12283">
        <ele>37</ele>
        <time>2020-06-05T11:14:34Z</time>
      </trkpt>
      <trkpt lat="47.12812" lon="-2.12287">
        <ele>37.1</ele>
        <time>2020-06-05T11:14:35Z</time>
      </trkpt>
      <trkpt lat="47.12814" lon="-2.12292">
        <ele>37.2</ele>
        <time>2020-06-05T11:14:36Z</time>
      </trkpt>
      <trkpt lat="47.12817" lon="-2.12297">
        <ele>37.3</ele>
        <time>2020-06-05T11:14:37Z</time>
      </trkpt>
      <trkpt lat="47.1282" lon="-2.12301">
        <ele>37.3</ele>
        <time>2020-06-05T11:14:38Z</time>
      </trkpt>
      <trkpt lat="47.12823" lon="-2.12305">
        <ele>37.4</ele>
        <time>2020-06-05T11:14:39Z</time>
      </trkpt>
      <trkpt lat="47.12825" lon="-2.12309">
        <ele>37.4</ele>
        <time>2020-06-05T11:14:40Z</time>
      </trkpt>
      <trkpt lat="47.12828" lon="-2.12314">
        <ele>37.5</ele>
        <time>2020-06-05T11:14:41Z</time>
      </trkpt>
      <trkpt lat="47.12831" lon="-2.12319">
        <ele>37.5</ele>
        <time>2020-06-05T11:14:42Z</time>
      </trkpt>
      <trkpt lat="47.12832" lon="-2.12324">
        <ele>37.5</ele>
        <time>2020-06-05T11:14:43Z</time>
      </trkpt>
      <trkpt lat="47.12834" lon="-2.12329">
        <ele>37.6</ele>
        <time>2020-06-05T11:14:44Z</time>
      </trkpt>
      <trkpt lat="47.12837" lon="-2.12336">
        <ele>37.6</ele>
        <time>2020-06-05T11:14:45Z</time>
      </trkpt>
      <trkpt lat="47.12838" lon="-2.12341">
        <ele>37.7</ele>
        <time>2020-06-05T11:14:46Z</time>
      </trkpt>
      <trkpt lat="47.1284" lon="-2.12347">
        <ele>37.7</ele>
        <time>2020-06-05T11:14:47Z</time>
      </trkpt>
      <trkpt lat="47.12842" lon="-2.12353">
        <ele>37.8</ele>
        <time>2020-06-05T11:14:48Z</time>
      </trkpt>
      <trkpt lat="47.12843" lon="-2.12359">
        <ele>37.8</ele>
        <time>2020-06-05T11:14:49Z</time>
      </trkpt>
      <trkpt lat="47.12844" lon="-2.12365">
        <ele>37.8</ele>
        <time>2020-06-05T11:14:50Z</time>
      </trkpt>
      <trkpt lat="47.12844" lon="-2.12371">
        <ele>37.9</ele>
        <time>2020-06-05T11:14:51Z</time>
      </trkpt>
      <trkpt lat="47.12845" lon="-2.12378">
        <ele>37.9</ele>
        <time>2020-06-05T11:14:52Z</time>
      </trkpt>
      <trkpt lat="47.12846" lon="-2.12384">
        <ele>37.9</ele>
        <time>2020-06-05T11:14:53Z</time>
      </trkpt>
      <trkpt lat="47.12847" lon="-2.1239">
        <ele>37.9</ele>
        <time>2020-06-05T11:14:54Z</time>
      </trkpt>
      <trkpt lat="47.12848" lon="-2.12397">
        <ele>37.9</ele>
        <time>2020-06-05T11:14:55Z</time>
      </trkpt>
      <trkpt lat="47.12849" lon="-2.12403">
        <ele>37.9</ele>
        <time>2020-06-05T11:14:56Z</time>
      </trkpt>
      <trkpt lat="47.1285" lon="-2.1241">
        <ele>37.8</ele>
        <time>2020-06-05T11:14:57Z</time>
      </trkpt>
      <trkpt lat="47.12852" lon="-2.12416">
        <ele>37.8</ele>
        <time>2020-06-05T11:14:58Z</time>
      </trkpt>
      <trkpt lat="47.12852" lon="-2.12423">
        <ele>37.8</ele>
        <time>2020-06-05T11:14:59Z</time>
      </trkpt>
      <trkpt lat="47.12854" lon="-2.12429">
        <ele>37.7</ele>
        <time>2020-06-05T11:15:00Z</time>
      </trkpt>
      <trkpt lat="47.12855" lon="-2.12435">
        <ele>37.7</ele>
        <time>2020-06-05T11:15:01Z</time>
      </trkpt>
      <trkpt lat="47.12856" lon="-2.12441">
        <ele>37.7</ele>
        <time>2020-06-05T11:15:02Z</time>
      </trkpt>
      <trkpt lat="47.12856" lon="-2.12448">
        <ele>37.7</ele>
        <time>2020-06-05T11:15:03Z</time>
      </trkpt>
      <trkpt lat="47.12858" lon="-2.12455">
        <ele>37.7</ele>
        <time>2020-06-05T11:15:04Z</time>
      </trkpt>
      <trkpt lat="47.12859" lon="-2.12462">
        <ele>37.5</ele>
        <time>2020-06-05T11:15:05Z</time>
      </trkpt>
      <trkpt lat="47.1286" lon="-2.12469">
        <ele>37.4</ele>
        <time>2020-06-05T11:15:06Z</time>
      </trkpt>
      <trkpt lat="47.12861" lon="-2.12474">
        <ele>37.3</ele>
        <time>2020-06-05T11:15:07Z</time>
      </trkpt>
      <trkpt lat="47.12861" lon="-2.12479">
        <ele>37.3</ele>
        <time>2020-06-05T11:15:08Z</time>
      </trkpt>
      <trkpt lat="47.12862" lon="-2.12485">
        <ele>37.2</ele>
        <time>2020-06-05T11:15:09Z</time>
      </trkpt>
      <trkpt lat="47.12863" lon="-2.1249">
        <ele>37.1</ele>
        <time>2020-06-05T11:15:10Z</time>
      </trkpt>
      <trkpt lat="47.12864" lon="-2.12495">
        <ele>37.1</ele>
        <time>2020-06-05T11:15:11Z</time>
      </trkpt>
      <trkpt lat="47.12866" lon="-2.12501">
        <ele>37</ele>
        <time>2020-06-05T11:15:12Z</time>
      </trkpt>
      <trkpt lat="47.12867" lon="-2.12506">
        <ele>36.9</ele>
        <time>2020-06-05T11:15:13Z</time>
      </trkpt>
      <trkpt lat="47.12869" lon="-2.12511">
        <ele>36.9</ele>
        <time>2020-06-05T11:15:14Z</time>
      </trkpt>
      <trkpt lat="47.12871" lon="-2.12516">
        <ele>36.8</ele>
        <time>2020-06-05T11:15:15Z</time>
      </trkpt>
      <trkpt lat="47.12873" lon="-2.12523">
        <ele>36.7</ele>
        <time>2020-06-05T11:15:16Z</time>
      </trkpt>
      <trkpt lat="47.12875" lon="-2.12528">
        <ele>36.6</ele>
        <time>2020-06-05T11:15:17Z</time>
      </trkpt>
      <trkpt lat="47.12876" lon="-2.12533">
        <ele>36.5</ele>
        <time>2020-06-05T11:15:18Z</time>
      </trkpt>
      <trkpt lat="47.12877" lon="-2.12539">
        <ele>36.4</ele>
        <time>2020-06-05T11:15:19Z</time>
      </trkpt>
      <trkpt lat="47.12878" lon="-2.12544">
        <ele>36.4</ele>
        <time>2020-06-05T11:15:20Z</time>
      </trkpt>
      <trkpt lat="47.1288" lon="-2.1255">
        <ele>36.3</ele>
        <time>2020-06-05T11:15:21Z</time>
      </trkpt>
      <trkpt lat="47.12882" lon="-2.12554">
        <ele>36.2</ele>
        <time>2020-06-05T11:15:22Z</time>
      </trkpt>
      <trkpt lat="47.12884" lon="-2.1256">
        <ele>36.1</ele>
        <time>2020-06-05T11:15:23Z</time>
      </trkpt>
      <trkpt lat="47.12886" lon="-2.12566">
        <ele>36</ele>
        <time>2020-06-05T11:15:24Z</time>
      </trkpt>
      <trkpt lat="47.12888" lon="-2.12571">
        <ele>36</ele>
        <time>2020-06-05T11:15:25Z</time>
      </trkpt>
      <trkpt lat="47.1289" lon="-2.12577">
        <ele>35.9</ele>
        <time>2020-06-05T11:15:26Z</time>
      </trkpt>
      <trkpt lat="47.12893" lon="-2.12582">
        <ele>35.8</ele>
        <time>2020-06-05T11:15:27Z</time>
      </trkpt>
      <trkpt lat="47.12897" lon="-2.12588">
        <ele>35.7</ele>
        <time>2020-06-05T11:15:28Z</time>
      </trkpt>
      <trkpt lat="47.12901" lon="-2.12593">
        <ele>35.7</ele>
        <time>2020-06-05T11:15:29Z</time>
      </trkpt>
      <trkpt lat="47.12905" lon="-2.12598">
        <ele>35.6</ele>
        <time>2020-06-05T11:15:30Z</time>
      </trkpt>
      <trkpt lat="47.12909" lon="-2.12603">
        <ele>35.5</ele>
        <time>2020-06-05T11:15:31Z</time>
      </trkpt>
      <trkpt lat="47.12913" lon="-2.12607">
        <ele>35.5</ele>
        <time>2020-06-05T11:15:32Z</time>
      </trkpt>
      <trkpt lat="47.12916" lon="-2.12612">
        <ele>35.4</ele>
        <time>2020-06-05T11:15:33Z</time>
      </trkpt>
      <trkpt lat="47.1292" lon="-2.12617">
        <ele>35.4</ele>
        <time>2020-06-05T11:15:34Z</time>
      </trkpt>
      <trkpt lat="47.12925" lon="-2.12623">
        <ele>35.3</ele>
        <time>2020-06-05T11:15:35Z</time>
      </trkpt>
      <trkpt lat="47.12929" lon="-2.12629">
        <ele>35.3</ele>
        <time>2020-06-05T11:15:36Z</time>
      </trkpt>
      <trkpt lat="47.12932" lon="-2.12633">
        <ele>35.3</ele>
        <time>2020-06-05T11:15:37Z</time>
      </trkpt>
      <trkpt lat="47.12936" lon="-2.12638">
        <ele>35.3</ele>
        <time>2020-06-05T11:15:38Z</time>
      </trkpt>
      <trkpt lat="47.12939" lon="-2.12642">
        <ele>35.3</ele>
        <time>2020-06-05T11:15:39Z</time>
      </trkpt>
      <trkpt lat="47.12942" lon="-2.12647">
        <ele>35.4</ele>
        <time>2020-06-05T11:15:40Z</time>
      </trkpt>
      <trkpt lat="47.12946" lon="-2.12652">
        <ele>35.4</ele>
        <time>2020-06-05T11:15:41Z</time>
      </trkpt>
      <trkpt lat="47.12949" lon="-2.12656">
        <ele>35.4</ele>
        <time>2020-06-05T11:15:42Z</time>
      </trkpt>
      <trkpt lat="47.12952" lon="-2.1266">
        <ele>35.4</ele>
        <time>2020-06-05T11:15:43Z</time>
      </trkpt>
      <trkpt lat="47.12955" lon="-2.12665">
        <ele>35.5</ele>
        <time>2020-06-05T11:15:44Z</time>
      </trkpt>
      <trkpt lat="47.12958" lon="-2.12669">
        <ele>35.5</ele>
        <time>2020-06-05T11:15:45Z</time>
      </trkpt>
      <trkpt lat="47.12961" lon="-2.12673">
        <ele>35.5</ele>
        <time>2020-06-05T11:15:46Z</time>
      </trkpt>
      <trkpt lat="47.12963" lon="-2.12677">
        <ele>35.6</ele>
        <time>2020-06-05T11:15:47Z</time>
      </trkpt>
      <trkpt lat="47.12966" lon="-2.12679">
        <ele>35.6</ele>
        <time>2020-06-05T11:15:48Z</time>
      </trkpt>
      <trkpt lat="47.12967" lon="-2.12684">
        <ele>35.6</ele>
        <time>2020-06-05T11:15:49Z</time>
      </trkpt>
      <trkpt lat="47.12967" lon="-2.12686">
        <ele>35.6</ele>
        <time>2020-06-05T11:15:50Z</time>
      </trkpt>
      <trkpt lat="47.1297" lon="-2.1269">
        <ele>35.7</ele>
        <time>2020-06-05T11:15:51Z</time>
      </trkpt>
      <trkpt lat="47.12972" lon="-2.12694">
        <ele>35.7</ele>
        <time>2020-06-05T11:15:52Z</time>
      </trkpt>
      <trkpt lat="47.12975" lon="-2.12699">
        <ele>35.7</ele>
        <time>2020-06-05T11:15:53Z</time>
      </trkpt>
      <trkpt lat="47.12977" lon="-2.12703">
        <ele>35.6</ele>
        <time>2020-06-05T11:15:54Z</time>
      </trkpt>
      <trkpt lat="47.12979" lon="-2.12707">
        <ele>35.6</ele>
        <time>2020-06-05T11:15:55Z</time>
      </trkpt>
      <trkpt lat="47.12981" lon="-2.12713">
        <ele>35.6</ele>
        <time>2020-06-05T11:15:56Z</time>
      </trkpt>
      <trkpt lat="47.12983" lon="-2.12719">
        <ele>35.6</ele>
        <time>2020-06-05T11:15:57Z</time>
      </trkpt>
      <trkpt lat="47.12985" lon="-2.12725">
        <ele>35.6</ele>
        <time>2020-06-05T11:15:58Z</time>
      </trkpt>
      <trkpt lat="47.12987" lon="-2.1273">
        <ele>35.6</ele>
        <time>2020-06-05T11:15:59Z</time>
      </trkpt>
      <trkpt lat="47.1299" lon="-2.12734">
        <ele>35.6</ele>
        <time>2020-06-05T11:16:00Z</time>
      </trkpt>
      <trkpt lat="47.12992" lon="-2.1274">
        <ele>35.6</ele>
        <time>2020-06-05T11:16:01Z</time>
      </trkpt>
      <trkpt lat="47.12994" lon="-2.12745">
        <ele>35.7</ele>
        <time>2020-06-05T11:16:02Z</time>
      </trkpt>
      <trkpt lat="47.12996" lon="-2.1275">
        <ele>35.7</ele>
        <time>2020-06-05T11:16:03Z</time>
      </trkpt>
      <trkpt lat="47.12999" lon="-2.12757">
        <ele>35.7</ele>
        <time>2020-06-05T11:16:04Z</time>
      </trkpt>
      <trkpt lat="47.13001" lon="-2.12763">
        <ele>35.8</ele>
        <time>2020-06-05T11:16:05Z</time>
      </trkpt>
      <trkpt lat="47.13004" lon="-2.12769">
        <ele>35.8</ele>
        <time>2020-06-05T11:16:06Z</time>
      </trkpt>
      <trkpt lat="47.13007" lon="-2.12774">
        <ele>35.9</ele>
        <time>2020-06-05T11:16:07Z</time>
      </trkpt>
      <trkpt lat="47.1301" lon="-2.1278">
        <ele>35.9</ele>
        <time>2020-06-05T11:16:08Z</time>
      </trkpt>
      <trkpt lat="47.13012" lon="-2.12785">
        <ele>35.9</ele>
        <time>2020-06-05T11:16:09Z</time>
      </trkpt>
      <trkpt lat="47.13017" lon="-2.12789">
        <ele>36</ele>
        <time>2020-06-05T11:16:10Z</time>
      </trkpt>
      <trkpt lat="47.1302" lon="-2.12794">
        <ele>36</ele>
        <time>2020-06-05T11:16:11Z</time>
      </trkpt>
      <trkpt lat="47.13023" lon="-2.12799">
        <ele>36</ele>
        <time>2020-06-05T11:16:12Z</time>
      </trkpt>
      <trkpt lat="47.13027" lon="-2.12803">
        <ele>36.1</ele>
        <time>2020-06-05T11:16:13Z</time>
      </trkpt>
      <trkpt lat="47.1303" lon="-2.12808">
        <ele>36.1</ele>
        <time>2020-06-05T11:16:14Z</time>
      </trkpt>
      <trkpt lat="47.13034" lon="-2.12814">
        <ele>36.1</ele>
        <time>2020-06-05T11:16:15Z</time>
      </trkpt>
      <trkpt lat="47.13037" lon="-2.12819">
        <ele>36.1</ele>
        <time>2020-06-05T11:16:16Z</time>
      </trkpt>
      <trkpt lat="47.13041" lon="-2.12825">
        <ele>36.1</ele>
        <time>2020-06-05T11:16:17Z</time>
      </trkpt>
      <trkpt lat="47.13043" lon="-2.1283">
        <ele>36.1</ele>
        <time>2020-06-05T11:16:18Z</time>
      </trkpt>
      <trkpt lat="47.13047" lon="-2.12835">
        <ele>36.1</ele>
        <time>2020-06-05T11:16:19Z</time>
      </trkpt>
      <trkpt lat="47.13052" lon="-2.12841">
        <ele>36.1</ele>
        <time>2020-06-05T11:16:20Z</time>
      </trkpt>
      <trkpt lat="47.13056" lon="-2.12847">
        <ele>36.1</ele>
        <time>2020-06-05T11:16:21Z</time>
      </trkpt>
      <trkpt lat="47.13059" lon="-2.12854">
        <ele>36.1</ele>
        <time>2020-06-05T11:16:22Z</time>
      </trkpt>
      <trkpt lat="47.13062" lon="-2.12859">
        <ele>36.1</ele>
        <time>2020-06-05T11:16:23Z</time>
      </trkpt>
      <trkpt lat="47.13065" lon="-2.12866">
        <ele>36.1</ele>
        <time>2020-06-05T11:16:24Z</time>
      </trkpt>
      <trkpt lat="47.13068" lon="-2.12872">
        <ele>36</ele>
        <time>2020-06-05T11:16:25Z</time>
      </trkpt>
      <trkpt lat="47.13072" lon="-2.12878">
        <ele>36</ele>
        <time>2020-06-05T11:16:26Z</time>
      </trkpt>
      <trkpt lat="47.13076" lon="-2.12883">
        <ele>36</ele>
        <time>2020-06-05T11:16:27Z</time>
      </trkpt>
      <trkpt lat="47.13079" lon="-2.12889">
        <ele>36</ele>
        <time>2020-06-05T11:16:28Z</time>
      </trkpt>
      <trkpt lat="47.13082" lon="-2.12894">
        <ele>36</ele>
        <time>2020-06-05T11:16:29Z</time>
      </trkpt>
      <trkpt lat="47.13086" lon="-2.12898">
        <ele>36</ele>
        <time>2020-06-05T11:16:30Z</time>
      </trkpt>
      <trkpt lat="47.13089" lon="-2.12903">
        <ele>36</ele>
        <time>2020-06-05T11:16:31Z</time>
      </trkpt>
      <trkpt lat="47.13091" lon="-2.12908">
        <ele>36</ele>
        <time>2020-06-05T11:16:32Z</time>
      </trkpt>
      <trkpt lat="47.13094" lon="-2.12913">
        <ele>36</ele>
        <time>2020-06-05T11:16:33Z</time>
      </trkpt>
      <trkpt lat="47.13097" lon="-2.12918">
        <ele>36</ele>
        <time>2020-06-05T11:16:34Z</time>
      </trkpt>
      <trkpt lat="47.131" lon="-2.12922">
        <ele>35.9</ele>
        <time>2020-06-05T11:16:35Z</time>
      </trkpt>
      <trkpt lat="47.13103" lon="-2.12927">
        <ele>35.9</ele>
        <time>2020-06-05T11:16:36Z</time>
      </trkpt>
      <trkpt lat="47.13106" lon="-2.12931">
        <ele>35.9</ele>
        <time>2020-06-05T11:16:37Z</time>
      </trkpt>
      <trkpt lat="47.13109" lon="-2.12935">
        <ele>35.9</ele>
        <time>2020-06-05T11:16:38Z</time>
      </trkpt>
      <trkpt lat="47.13111" lon="-2.12939">
        <ele>35.9</ele>
        <time>2020-06-05T11:16:39Z</time>
      </trkpt>
      <trkpt lat="47.13114" lon="-2.12944">
        <ele>35.9</ele>
        <time>2020-06-05T11:16:40Z</time>
      </trkpt>
      <trkpt lat="47.13116" lon="-2.12949">
        <ele>35.9</ele>
        <time>2020-06-05T11:16:41Z</time>
      </trkpt>
      <trkpt lat="47.13119" lon="-2.12954">
        <ele>35.8</ele>
        <time>2020-06-05T11:16:42Z</time>
      </trkpt>
      <trkpt lat="47.13122" lon="-2.12959">
        <ele>35.8</ele>
        <time>2020-06-05T11:16:43Z</time>
      </trkpt>
      <trkpt lat="47.13125" lon="-2.12964">
        <ele>35.7</ele>
        <time>2020-06-05T11:16:44Z</time>
      </trkpt>
      <trkpt lat="47.13127" lon="-2.1297">
        <ele>35.7</ele>
        <time>2020-06-05T11:16:45Z</time>
      </trkpt>
      <trkpt lat="47.1313" lon="-2.12975">
        <ele>35.6</ele>
        <time>2020-06-05T11:16:46Z</time>
      </trkpt>
      <trkpt lat="47.13133" lon="-2.1298">
        <ele>35.6</ele>
        <time>2020-06-05T11:16:47Z</time>
      </trkpt>
      <trkpt lat="47.13135" lon="-2.12986">
        <ele>35.6</ele>
        <time>2020-06-05T11:16:48Z</time>
      </trkpt>
      <trkpt lat="47.13137" lon="-2.12991">
        <ele>35.6</ele>
        <time>2020-06-05T11:16:49Z</time>
      </trkpt>
      <trkpt lat="47.1314" lon="-2.12995">
        <ele>35.6</ele>
        <time>2020-06-05T11:16:50Z</time>
      </trkpt>
      <trkpt lat="47.13144" lon="-2.13">
        <ele>35.6</ele>
        <time>2020-06-05T11:16:51Z</time>
      </trkpt>
      <trkpt lat="47.13147" lon="-2.13004">
        <ele>35.6</ele>
        <time>2020-06-05T11:16:52Z</time>
      </trkpt>
      <trkpt lat="47.13149" lon="-2.13008">
        <ele>35.6</ele>
        <time>2020-06-05T11:16:53Z</time>
      </trkpt>
      <trkpt lat="47.13152" lon="-2.13011">
        <ele>35.6</ele>
        <time>2020-06-05T11:16:54Z</time>
      </trkpt>
      <trkpt lat="47.13153" lon="-2.13012">
        <ele>35.6</ele>
        <time>2020-06-05T11:16:55Z</time>
      </trkpt>
      <trkpt lat="47.13155" lon="-2.13016">
        <ele>35.6</ele>
        <time>2020-06-05T11:16:56Z</time>
      </trkpt>
      <trkpt lat="47.13156" lon="-2.13017">
        <ele>35.6</ele>
        <time>2020-06-05T11:16:57Z</time>
      </trkpt>
      <trkpt lat="47.13158" lon="-2.1302">
        <ele>35.5</ele>
        <time>2020-06-05T11:16:58Z</time>
      </trkpt>
      <trkpt lat="47.1316" lon="-2.13023">
        <ele>35.4</ele>
        <time>2020-06-05T11:16:59Z</time>
      </trkpt>
      <trkpt lat="47.13163" lon="-2.13026">
        <ele>35.4</ele>
        <time>2020-06-05T11:17:00Z</time>
      </trkpt>
      <trkpt lat="47.13165" lon="-2.1303">
        <ele>35.3</ele>
        <time>2020-06-05T11:17:01Z</time>
      </trkpt>
      <trkpt lat="47.13168" lon="-2.13033">
        <ele>35.3</ele>
        <time>2020-06-05T11:17:02Z</time>
      </trkpt>
      <trkpt lat="47.13171" lon="-2.13036">
        <ele>35.3</ele>
        <time>2020-06-05T11:17:03Z</time>
      </trkpt>
      <trkpt lat="47.13174" lon="-2.13039">
        <ele>35.3</ele>
        <time>2020-06-05T11:17:04Z</time>
      </trkpt>
      <trkpt lat="47.13177" lon="-2.13043">
        <ele>35.2</ele>
        <time>2020-06-05T11:17:05Z</time>
      </trkpt>
      <trkpt lat="47.13181" lon="-2.13045">
        <ele>35.2</ele>
        <time>2020-06-05T11:17:06Z</time>
      </trkpt>
      <trkpt lat="47.13184" lon="-2.13049">
        <ele>35.2</ele>
        <time>2020-06-05T11:17:07Z</time>
      </trkpt>
      <trkpt lat="47.13188" lon="-2.13053">
        <ele>35.1</ele>
        <time>2020-06-05T11:17:08Z</time>
      </trkpt>
      <trkpt lat="47.13191" lon="-2.13058">
        <ele>35</ele>
        <time>2020-06-05T11:17:09Z</time>
      </trkpt>
      <trkpt lat="47.13194" lon="-2.13061">
        <ele>34.9</ele>
        <time>2020-06-05T11:17:10Z</time>
      </trkpt>
      <trkpt lat="47.13197" lon="-2.13064">
        <ele>34.8</ele>
        <time>2020-06-05T11:17:11Z</time>
      </trkpt>
      <trkpt lat="47.13201" lon="-2.13067">
        <ele>34.6</ele>
        <time>2020-06-05T11:17:12Z</time>
      </trkpt>
      <trkpt lat="47.13204" lon="-2.13071">
        <ele>34.5</ele>
        <time>2020-06-05T11:17:13Z</time>
      </trkpt>
      <trkpt lat="47.13208" lon="-2.13075">
        <ele>34.4</ele>
        <time>2020-06-05T11:17:14Z</time>
      </trkpt>
      <trkpt lat="47.13211" lon="-2.13079">
        <ele>34.3</ele>
        <time>2020-06-05T11:17:15Z</time>
      </trkpt>
      <trkpt lat="47.13215" lon="-2.13084">
        <ele>34.2</ele>
        <time>2020-06-05T11:17:16Z</time>
      </trkpt>
      <trkpt lat="47.13219" lon="-2.13089">
        <ele>34.1</ele>
        <time>2020-06-05T11:17:17Z</time>
      </trkpt>
      <trkpt lat="47.13222" lon="-2.13094">
        <ele>34</ele>
        <time>2020-06-05T11:17:18Z</time>
      </trkpt>
      <trkpt lat="47.13225" lon="-2.13098">
        <ele>34</ele>
        <time>2020-06-05T11:17:19Z</time>
      </trkpt>
      <trkpt lat="47.13229" lon="-2.13103">
        <ele>33.9</ele>
        <time>2020-06-05T11:17:20Z</time>
      </trkpt>
      <trkpt lat="47.13232" lon="-2.13107">
        <ele>33.9</ele>
        <time>2020-06-05T11:17:21Z</time>
      </trkpt>
      <trkpt lat="47.13236" lon="-2.13111">
        <ele>33.8</ele>
        <time>2020-06-05T11:17:22Z</time>
      </trkpt>
      <trkpt lat="47.13239" lon="-2.13116">
        <ele>33.7</ele>
        <time>2020-06-05T11:17:23Z</time>
      </trkpt>
      <trkpt lat="47.13243" lon="-2.13121">
        <ele>33.6</ele>
        <time>2020-06-05T11:17:24Z</time>
      </trkpt>
      <trkpt lat="47.13246" lon="-2.13126">
        <ele>33.5</ele>
        <time>2020-06-05T11:17:25Z</time>
      </trkpt>
      <trkpt lat="47.1325" lon="-2.13131">
        <ele>33.4</ele>
        <time>2020-06-05T11:17:26Z</time>
      </trkpt>
      <trkpt lat="47.13253" lon="-2.13136">
        <ele>33.4</ele>
        <time>2020-06-05T11:17:27Z</time>
      </trkpt>
      <trkpt lat="47.13257" lon="-2.13141">
        <ele>33.3</ele>
        <time>2020-06-05T11:17:28Z</time>
      </trkpt>
      <trkpt lat="47.1326" lon="-2.13146">
        <ele>33.3</ele>
        <time>2020-06-05T11:17:29Z</time>
      </trkpt>
      <trkpt lat="47.13263" lon="-2.13151">
        <ele>33.3</ele>
        <time>2020-06-05T11:17:30Z</time>
      </trkpt>
      <trkpt lat="47.13267" lon="-2.13157">
        <ele>33.3</ele>
        <time>2020-06-05T11:17:31Z</time>
      </trkpt>
      <trkpt lat="47.1327" lon="-2.13161">
        <ele>33.3</ele>
        <time>2020-06-05T11:17:32Z</time>
      </trkpt>
      <trkpt lat="47.13273" lon="-2.13166">
        <ele>33.3</ele>
        <time>2020-06-05T11:17:33Z</time>
      </trkpt>
      <trkpt lat="47.13277" lon="-2.13171">
        <ele>33.2</ele>
        <time>2020-06-05T11:17:34Z</time>
      </trkpt>
      <trkpt lat="47.13281" lon="-2.13177">
        <ele>33.2</ele>
        <time>2020-06-05T11:17:35Z</time>
      </trkpt>
      <trkpt lat="47.13285" lon="-2.13181">
        <ele>33.1</ele>
        <time>2020-06-05T11:17:36Z</time>
      </trkpt>
      <trkpt lat="47.13288" lon="-2.13185">
        <ele>33.1</ele>
        <time>2020-06-05T11:17:37Z</time>
      </trkpt>
      <trkpt lat="47.13292" lon="-2.13189">
        <ele>33</ele>
        <time>2020-06-05T11:17:38Z</time>
      </trkpt>
      <trkpt lat="47.13296" lon="-2.13193">
        <ele>33</ele>
        <time>2020-06-05T11:17:39Z</time>
      </trkpt>
      <trkpt lat="47.133" lon="-2.13196">
        <ele>33</ele>
        <time>2020-06-05T11:17:40Z</time>
      </trkpt>
      <trkpt lat="47.13304" lon="-2.132">
        <ele>33.1</ele>
        <time>2020-06-05T11:17:41Z</time>
      </trkpt>
      <trkpt lat="47.13309" lon="-2.13203">
        <ele>33.1</ele>
        <time>2020-06-05T11:17:42Z</time>
      </trkpt>
      <trkpt lat="47.13312" lon="-2.13206">
        <ele>33.1</ele>
        <time>2020-06-05T11:17:43Z</time>
      </trkpt>
      <trkpt lat="47.13316" lon="-2.13208">
        <ele>33.2</ele>
        <time>2020-06-05T11:17:44Z</time>
      </trkpt>
      <trkpt lat="47.1332" lon="-2.13212">
        <ele>33.2</ele>
        <time>2020-06-05T11:17:45Z</time>
      </trkpt>
      <trkpt lat="47.13323" lon="-2.13216">
        <ele>33.2</ele>
        <time>2020-06-05T11:17:46Z</time>
      </trkpt>
      <trkpt lat="47.13325" lon="-2.13219">
        <ele>33.2</ele>
        <time>2020-06-05T11:17:47Z</time>
      </trkpt>
      <trkpt lat="47.13329" lon="-2.13222">
        <ele>33.2</ele>
        <time>2020-06-05T11:17:48Z</time>
      </trkpt>
      <trkpt lat="47.13332" lon="-2.13227">
        <ele>33.2</ele>
        <time>2020-06-05T11:17:49Z</time>
      </trkpt>
      <trkpt lat="47.13335" lon="-2.13231">
        <ele>33.2</ele>
        <time>2020-06-05T11:17:50Z</time>
      </trkpt>
      <trkpt lat="47.13338" lon="-2.13235">
        <ele>33.2</ele>
        <time>2020-06-05T11:17:51Z</time>
      </trkpt>
      <trkpt lat="47.13341" lon="-2.1324">
        <ele>33</ele>
        <time>2020-06-05T11:17:52Z</time>
      </trkpt>
      <trkpt lat="47.13343" lon="-2.13245">
        <ele>32.9</ele>
        <time>2020-06-05T11:17:53Z</time>
      </trkpt>
      <trkpt lat="47.13346" lon="-2.1325">
        <ele>32.9</ele>
        <time>2020-06-05T11:17:54Z</time>
      </trkpt>
      <trkpt lat="47.13348" lon="-2.13255">
        <ele>32.8</ele>
        <time>2020-06-05T11:17:55Z</time>
      </trkpt>
      <trkpt lat="47.13351" lon="-2.13259">
        <ele>32.8</ele>
        <time>2020-06-05T11:17:56Z</time>
      </trkpt>
      <trkpt lat="47.13354" lon="-2.13264">
        <ele>32.7</ele>
        <time>2020-06-05T11:17:57Z</time>
      </trkpt>
      <trkpt lat="47.13355" lon="-2.13271">
        <ele>32.7</ele>
        <time>2020-06-05T11:17:58Z</time>
      </trkpt>
      <trkpt lat="47.13357" lon="-2.13278">
        <ele>32.6</ele>
        <time>2020-06-05T11:17:59Z</time>
      </trkpt>
      <trkpt lat="47.13359" lon="-2.13285">
        <ele>32.5</ele>
        <time>2020-06-05T11:18:00Z</time>
      </trkpt>
      <trkpt lat="47.13362" lon="-2.13292">
        <ele>32.5</ele>
        <time>2020-06-05T11:18:01Z</time>
      </trkpt>
      <trkpt lat="47.13364" lon="-2.13299">
        <ele>32.5</ele>
        <time>2020-06-05T11:18:02Z</time>
      </trkpt>
      <trkpt lat="47.13366" lon="-2.13305">
        <ele>32.5</ele>
        <time>2020-06-05T11:18:03Z</time>
      </trkpt>
      <trkpt lat="47.13368" lon="-2.13311">
        <ele>32.5</ele>
        <time>2020-06-05T11:18:04Z</time>
      </trkpt>
      <trkpt lat="47.1337" lon="-2.13317">
        <ele>32.5</ele>
        <time>2020-06-05T11:18:05Z</time>
      </trkpt>
      <trkpt lat="47.13372" lon="-2.13323">
        <ele>32.6</ele>
        <time>2020-06-05T11:18:06Z</time>
      </trkpt>
      <trkpt lat="47.13373" lon="-2.1333">
        <ele>32.6</ele>
        <time>2020-06-05T11:18:07Z</time>
      </trkpt>
      <trkpt lat="47.13374" lon="-2.13337">
        <ele>32.7</ele>
        <time>2020-06-05T11:18:08Z</time>
      </trkpt>
      <trkpt lat="47.13376" lon="-2.13345">
        <ele>32.7</ele>
        <time>2020-06-05T11:18:09Z</time>
      </trkpt>
      <trkpt lat="47.13377" lon="-2.13352">
        <ele>32.8</ele>
        <time>2020-06-05T11:18:10Z</time>
      </trkpt>
      <trkpt lat="47.13379" lon="-2.13359">
        <ele>32.9</ele>
        <time>2020-06-05T11:18:11Z</time>
      </trkpt>
      <trkpt lat="47.1338" lon="-2.13363">
        <ele>33</ele>
        <time>2020-06-05T11:18:12Z</time>
      </trkpt>
      <trkpt lat="47.13383" lon="-2.13368">
        <ele>33.1</ele>
        <time>2020-06-05T11:18:13Z</time>
      </trkpt>
      <trkpt lat="47.13385" lon="-2.13373">
        <ele>33.2</ele>
        <time>2020-06-05T11:18:14Z</time>
      </trkpt>
      <trkpt lat="47.13388" lon="-2.13378">
        <ele>33.3</ele>
        <time>2020-06-05T11:18:15Z</time>
      </trkpt>
      <trkpt lat="47.13391" lon="-2.13383">
        <ele>33.3</ele>
        <time>2020-06-05T11:18:16Z</time>
      </trkpt>
      <trkpt lat="47.13396" lon="-2.13387">
        <ele>33.4</ele>
        <time>2020-06-05T11:18:17Z</time>
      </trkpt>
      <trkpt lat="47.134" lon="-2.13388">
        <ele>33.4</ele>
        <time>2020-06-05T11:18:18Z</time>
      </trkpt>
      <trkpt lat="47.13405" lon="-2.13385">
        <ele>33.5</ele>
        <time>2020-06-05T11:18:19Z</time>
      </trkpt>
      <trkpt lat="47.13411" lon="-2.13382">
        <ele>33.6</ele>
        <time>2020-06-05T11:18:20Z</time>
      </trkpt>
      <trkpt lat="47.13416" lon="-2.1338">
        <ele>33.7</ele>
        <time>2020-06-05T11:18:21Z</time>
      </trkpt>
      <trkpt lat="47.1342" lon="-2.13378">
        <ele>33.8</ele>
        <time>2020-06-05T11:18:22Z</time>
      </trkpt>
      <trkpt lat="47.13425" lon="-2.13375">
        <ele>33.8</ele>
        <time>2020-06-05T11:18:23Z</time>
      </trkpt>
      <trkpt lat="47.1343" lon="-2.13371">
        <ele>33.9</ele>
        <time>2020-06-05T11:18:24Z</time>
      </trkpt>
      <trkpt lat="47.13434" lon="-2.13368">
        <ele>33.9</ele>
        <time>2020-06-05T11:18:25Z</time>
      </trkpt>
      <trkpt lat="47.13438" lon="-2.13364">
        <ele>34</ele>
        <time>2020-06-05T11:18:26Z</time>
      </trkpt>
      <trkpt lat="47.13442" lon="-2.13361">
        <ele>34</ele>
        <time>2020-06-05T11:18:27Z</time>
      </trkpt>
      <trkpt lat="47.13446" lon="-2.13358">
        <ele>34.1</ele>
        <time>2020-06-05T11:18:28Z</time>
      </trkpt>
      <trkpt lat="47.13451" lon="-2.13356">
        <ele>34.2</ele>
        <time>2020-06-05T11:18:29Z</time>
      </trkpt>
      <trkpt lat="47.13456" lon="-2.13355">
        <ele>34.2</ele>
        <time>2020-06-05T11:18:30Z</time>
      </trkpt>
      <trkpt lat="47.1346" lon="-2.13355">
        <ele>34.3</ele>
        <time>2020-06-05T11:18:31Z</time>
      </trkpt>
      <trkpt lat="47.13464" lon="-2.13356">
        <ele>34.3</ele>
        <time>2020-06-05T11:18:32Z</time>
      </trkpt>
      <trkpt lat="47.13467" lon="-2.13359">
        <ele>34.4</ele>
        <time>2020-06-05T11:18:33Z</time>
      </trkpt>
      <trkpt lat="47.13471" lon="-2.13363">
        <ele>34.4</ele>
        <time>2020-06-05T11:18:34Z</time>
      </trkpt>
      <trkpt lat="47.13475" lon="-2.13368">
        <ele>34.5</ele>
        <time>2020-06-05T11:18:35Z</time>
      </trkpt>
      <trkpt lat="47.13479" lon="-2.13374">
        <ele>34.6</ele>
        <time>2020-06-05T11:18:36Z</time>
      </trkpt>
      <trkpt lat="47.13482" lon="-2.13379">
        <ele>34.6</ele>
        <time>2020-06-05T11:18:37Z</time>
      </trkpt>
      <trkpt lat="47.13485" lon="-2.13384">
        <ele>34.7</ele>
        <time>2020-06-05T11:18:38Z</time>
      </trkpt>
      <trkpt lat="47.13489" lon="-2.13389">
        <ele>34.7</ele>
        <time>2020-06-05T11:18:39Z</time>
      </trkpt>
      <trkpt lat="47.13492" lon="-2.13395">
        <ele>34.7</ele>
        <time>2020-06-05T11:18:40Z</time>
      </trkpt>
      <trkpt lat="47.13497" lon="-2.134">
        <ele>34.7</ele>
        <time>2020-06-05T11:18:41Z</time>
      </trkpt>
      <trkpt lat="47.13501" lon="-2.13406">
        <ele>34.7</ele>
        <time>2020-06-05T11:18:42Z</time>
      </trkpt>
      <trkpt lat="47.13506" lon="-2.13411">
        <ele>34.7</ele>
        <time>2020-06-05T11:18:43Z</time>
      </trkpt>
      <trkpt lat="47.1351" lon="-2.13417">
        <ele>34.7</ele>
        <time>2020-06-05T11:18:44Z</time>
      </trkpt>
      <trkpt lat="47.13514" lon="-2.13422">
        <ele>34.6</ele>
        <time>2020-06-05T11:18:45Z</time>
      </trkpt>
      <trkpt lat="47.13519" lon="-2.13426">
        <ele>34.6</ele>
        <time>2020-06-05T11:18:46Z</time>
      </trkpt>
      <trkpt lat="47.13522" lon="-2.13431">
        <ele>34.6</ele>
        <time>2020-06-05T11:18:47Z</time>
      </trkpt>
      <trkpt lat="47.13526" lon="-2.13435">
        <ele>34.5</ele>
        <time>2020-06-05T11:18:48Z</time>
      </trkpt>
      <trkpt lat="47.13529" lon="-2.13439">
        <ele>34.5</ele>
        <time>2020-06-05T11:18:49Z</time>
      </trkpt>
      <trkpt lat="47.13533" lon="-2.13443">
        <ele>34.4</ele>
        <time>2020-06-05T11:18:50Z</time>
      </trkpt>
      <trkpt lat="47.13537" lon="-2.13448">
        <ele>34.3</ele>
        <time>2020-06-05T11:18:51Z</time>
      </trkpt>
      <trkpt lat="47.1354" lon="-2.13453">
        <ele>34.3</ele>
        <time>2020-06-05T11:18:52Z</time>
      </trkpt>
      <trkpt lat="47.13543" lon="-2.13459">
        <ele>34.2</ele>
        <time>2020-06-05T11:18:53Z</time>
      </trkpt>
      <trkpt lat="47.13547" lon="-2.13464">
        <ele>34.2</ele>
        <time>2020-06-05T11:18:54Z</time>
      </trkpt>
      <trkpt lat="47.13549" lon="-2.13471">
        <ele>34.1</ele>
        <time>2020-06-05T11:18:55Z</time>
      </trkpt>
      <trkpt lat="47.13553" lon="-2.13476">
        <ele>34.1</ele>
        <time>2020-06-05T11:18:56Z</time>
      </trkpt>
      <trkpt lat="47.13556" lon="-2.1348">
        <ele>34.1</ele>
        <time>2020-06-05T11:18:57Z</time>
      </trkpt>
      <trkpt lat="47.13559" lon="-2.13485">
        <ele>34</ele>
        <time>2020-06-05T11:18:58Z</time>
      </trkpt>
      <trkpt lat="47.13562" lon="-2.13489">
        <ele>34</ele>
        <time>2020-06-05T11:18:59Z</time>
      </trkpt>
      <trkpt lat="47.13565" lon="-2.13494">
        <ele>33.9</ele>
        <time>2020-06-05T11:19:00Z</time>
      </trkpt>
      <trkpt lat="47.13568" lon="-2.13498">
        <ele>33.8</ele>
        <time>2020-06-05T11:19:01Z</time>
      </trkpt>
      <trkpt lat="47.13571" lon="-2.13502">
        <ele>33.7</ele>
        <time>2020-06-05T11:19:02Z</time>
      </trkpt>
      <trkpt lat="47.13576" lon="-2.13504">
        <ele>33.6</ele>
        <time>2020-06-05T11:19:03Z</time>
      </trkpt>
      <trkpt lat="47.1358" lon="-2.13507">
        <ele>33.5</ele>
        <time>2020-06-05T11:19:04Z</time>
      </trkpt>
      <trkpt lat="47.13585" lon="-2.13509">
        <ele>33.4</ele>
        <time>2020-06-05T11:19:05Z</time>
      </trkpt>
      <trkpt lat="47.13591" lon="-2.13511">
        <ele>33.3</ele>
        <time>2020-06-05T11:19:06Z</time>
      </trkpt>
      <trkpt lat="47.13597" lon="-2.1351">
        <ele>33.2</ele>
        <time>2020-06-05T11:19:07Z</time>
      </trkpt>
      <trkpt lat="47.13603" lon="-2.1351">
        <ele>33.1</ele>
        <time>2020-06-05T11:19:08Z</time>
      </trkpt>
      <trkpt lat="47.13608" lon="-2.1351">
        <ele>33</ele>
        <time>2020-06-05T11:19:09Z</time>
      </trkpt>
      <trkpt lat="47.13612" lon="-2.13512">
        <ele>32.9</ele>
        <time>2020-06-05T11:19:10Z</time>
      </trkpt>
      <trkpt lat="47.13616" lon="-2.13513">
        <ele>32.8</ele>
        <time>2020-06-05T11:19:11Z</time>
      </trkpt>
      <trkpt lat="47.13621" lon="-2.13514">
        <ele>32.7</ele>
        <time>2020-06-05T11:19:12Z</time>
      </trkpt>
      <trkpt lat="47.13626" lon="-2.13515">
        <ele>32.6</ele>
        <time>2020-06-05T11:19:13Z</time>
      </trkpt>
      <trkpt lat="47.13632" lon="-2.13515">
        <ele>32.5</ele>
        <time>2020-06-05T11:19:14Z</time>
      </trkpt>
      <trkpt lat="47.13637" lon="-2.13515">
        <ele>32.4</ele>
        <time>2020-06-05T11:19:15Z</time>
      </trkpt>
      <trkpt lat="47.13643" lon="-2.13514">
        <ele>32.3</ele>
        <time>2020-06-05T11:19:16Z</time>
      </trkpt>
      <trkpt lat="47.13647" lon="-2.13514">
        <ele>32.2</ele>
        <time>2020-06-05T11:19:17Z</time>
      </trkpt>
      <trkpt lat="47.13652" lon="-2.13514">
        <ele>32.2</ele>
        <time>2020-06-05T11:19:18Z</time>
      </trkpt>
      <trkpt lat="47.13657" lon="-2.13514">
        <ele>32.2</ele>
        <time>2020-06-05T11:19:19Z</time>
      </trkpt>
      <trkpt lat="47.13663" lon="-2.13513">
        <ele>32.2</ele>
        <time>2020-06-05T11:19:20Z</time>
      </trkpt>
      <trkpt lat="47.13668" lon="-2.13515">
        <ele>32.2</ele>
        <time>2020-06-05T11:19:21Z</time>
      </trkpt>
      <trkpt lat="47.13672" lon="-2.13518">
        <ele>32.3</ele>
        <time>2020-06-05T11:19:22Z</time>
      </trkpt>
      <trkpt lat="47.13676" lon="-2.13519">
        <ele>32.3</ele>
        <time>2020-06-05T11:19:23Z</time>
      </trkpt>
      <trkpt lat="47.1368" lon="-2.13522">
        <ele>32.2</ele>
        <time>2020-06-05T11:19:24Z</time>
      </trkpt>
      <trkpt lat="47.13684" lon="-2.13523">
        <ele>32</ele>
        <time>2020-06-05T11:19:25Z</time>
      </trkpt>
      <trkpt lat="47.13688" lon="-2.13525">
        <ele>31.7</ele>
        <time>2020-06-05T11:19:26Z</time>
      </trkpt>
      <trkpt lat="47.13692" lon="-2.13528">
        <ele>31.5</ele>
        <time>2020-06-05T11:19:27Z</time>
      </trkpt>
      <trkpt lat="47.13696" lon="-2.13532">
        <ele>31.3</ele>
        <time>2020-06-05T11:19:28Z</time>
      </trkpt>
      <trkpt lat="47.13699" lon="-2.13535">
        <ele>31.1</ele>
        <time>2020-06-05T11:19:29Z</time>
      </trkpt>
      <trkpt lat="47.13703" lon="-2.13539">
        <ele>31</ele>
        <time>2020-06-05T11:19:30Z</time>
      </trkpt>
      <trkpt lat="47.13706" lon="-2.13542">
        <ele>31</ele>
        <time>2020-06-05T11:19:31Z</time>
      </trkpt>
      <trkpt lat="47.13709" lon="-2.13546">
        <ele>30.9</ele>
        <time>2020-06-05T11:19:32Z</time>
      </trkpt>
      <trkpt lat="47.13712" lon="-2.13549">
        <ele>30.8</ele>
        <time>2020-06-05T11:19:33Z</time>
      </trkpt>
      <trkpt lat="47.13716" lon="-2.13552">
        <ele>30.7</ele>
        <time>2020-06-05T11:19:34Z</time>
      </trkpt>
      <trkpt lat="47.13719" lon="-2.13556">
        <ele>30.6</ele>
        <time>2020-06-05T11:19:35Z</time>
      </trkpt>
      <trkpt lat="47.13722" lon="-2.1356">
        <ele>30.4</ele>
        <time>2020-06-05T11:19:36Z</time>
      </trkpt>
      <trkpt lat="47.13726" lon="-2.13565">
        <ele>30.1</ele>
        <time>2020-06-05T11:19:37Z</time>
      </trkpt>
      <trkpt lat="47.1373" lon="-2.13569">
        <ele>29.9</ele>
        <time>2020-06-05T11:19:38Z</time>
      </trkpt>
      <trkpt lat="47.13734" lon="-2.13572">
        <ele>29.7</ele>
        <time>2020-06-05T11:19:39Z</time>
      </trkpt>
      <trkpt lat="47.13738" lon="-2.13575">
        <ele>29.5</ele>
        <time>2020-06-05T11:19:40Z</time>
      </trkpt>
      <trkpt lat="47.13741" lon="-2.13578">
        <ele>29.4</ele>
        <time>2020-06-05T11:19:41Z</time>
      </trkpt>
      <trkpt lat="47.13746" lon="-2.13583">
        <ele>29.2</ele>
        <time>2020-06-05T11:19:42Z</time>
      </trkpt>
      <trkpt lat="47.13749" lon="-2.13587">
        <ele>29.1</ele>
        <time>2020-06-05T11:19:43Z</time>
      </trkpt>
      <trkpt lat="47.13753" lon="-2.13591">
        <ele>28.9</ele>
        <time>2020-06-05T11:19:44Z</time>
      </trkpt>
      <trkpt lat="47.13757" lon="-2.13595">
        <ele>28.8</ele>
        <time>2020-06-05T11:19:45Z</time>
      </trkpt>
      <trkpt lat="47.13761" lon="-2.13599">
        <ele>28.6</ele>
        <time>2020-06-05T11:19:46Z</time>
      </trkpt>
      <trkpt lat="47.13765" lon="-2.13604">
        <ele>28.4</ele>
        <time>2020-06-05T11:19:47Z</time>
      </trkpt>
      <trkpt lat="47.1377" lon="-2.13607">
        <ele>28.3</ele>
        <time>2020-06-05T11:19:48Z</time>
      </trkpt>
      <trkpt lat="47.13775" lon="-2.1361">
        <ele>28.2</ele>
        <time>2020-06-05T11:19:49Z</time>
      </trkpt>
      <trkpt lat="47.13778" lon="-2.13615">
        <ele>28.1</ele>
        <time>2020-06-05T11:19:50Z</time>
      </trkpt>
      <trkpt lat="47.13782" lon="-2.13619">
        <ele>28</ele>
        <time>2020-06-05T11:19:51Z</time>
      </trkpt>
      <trkpt lat="47.13786" lon="-2.13623">
        <ele>27.9</ele>
        <time>2020-06-05T11:19:52Z</time>
      </trkpt>
      <trkpt lat="47.1379" lon="-2.13628">
        <ele>27.8</ele>
        <time>2020-06-05T11:19:53Z</time>
      </trkpt>
      <trkpt lat="47.13794" lon="-2.13633">
        <ele>27.7</ele>
        <time>2020-06-05T11:19:54Z</time>
      </trkpt>
      <trkpt lat="47.13797" lon="-2.13637">
        <ele>27.6</ele>
        <time>2020-06-05T11:19:55Z</time>
      </trkpt>
      <trkpt lat="47.13801" lon="-2.13641">
        <ele>27.5</ele>
        <time>2020-06-05T11:19:56Z</time>
      </trkpt>
      <trkpt lat="47.13805" lon="-2.13644">
        <ele>27.4</ele>
        <time>2020-06-05T11:19:57Z</time>
      </trkpt>
      <trkpt lat="47.13809" lon="-2.13649">
        <ele>27.3</ele>
        <time>2020-06-05T11:19:58Z</time>
      </trkpt>
      <trkpt lat="47.13813" lon="-2.13654">
        <ele>27.2</ele>
        <time>2020-06-05T11:19:59Z</time>
      </trkpt>
      <trkpt lat="47.13817" lon="-2.13658">
        <ele>27.1</ele>
        <time>2020-06-05T11:20:00Z</time>
      </trkpt>
      <trkpt lat="47.13821" lon="-2.13662">
        <ele>27.1</ele>
        <time>2020-06-05T11:20:01Z</time>
      </trkpt>
      <trkpt lat="47.13825" lon="-2.13667">
        <ele>27.1</ele>
        <time>2020-06-05T11:20:02Z</time>
      </trkpt>
      <trkpt lat="47.13829" lon="-2.13671">
        <ele>27</ele>
        <time>2020-06-05T11:20:03Z</time>
      </trkpt>
      <trkpt lat="47.13834" lon="-2.13675">
        <ele>27</ele>
        <time>2020-06-05T11:20:04Z</time>
      </trkpt>
      <trkpt lat="47.13838" lon="-2.13679">
        <ele>27</ele>
        <time>2020-06-05T11:20:05Z</time>
      </trkpt>
      <trkpt lat="47.13842" lon="-2.13683">
        <ele>26.9</ele>
        <time>2020-06-05T11:20:06Z</time>
      </trkpt>
      <trkpt lat="47.13847" lon="-2.13687">
        <ele>26.9</ele>
        <time>2020-06-05T11:20:07Z</time>
      </trkpt>
      <trkpt lat="47.1385" lon="-2.13692">
        <ele>26.9</ele>
        <time>2020-06-05T11:20:08Z</time>
      </trkpt>
      <trkpt lat="47.13854" lon="-2.13697">
        <ele>26.9</ele>
        <time>2020-06-05T11:20:09Z</time>
      </trkpt>
      <trkpt lat="47.13857" lon="-2.13701">
        <ele>26.9</ele>
        <time>2020-06-05T11:20:10Z</time>
      </trkpt>
      <trkpt lat="47.13861" lon="-2.13705">
        <ele>26.9</ele>
        <time>2020-06-05T11:20:11Z</time>
      </trkpt>
      <trkpt lat="47.13863" lon="-2.13709">
        <ele>26.8</ele>
        <time>2020-06-05T11:20:12Z</time>
      </trkpt>
      <trkpt lat="47.13867" lon="-2.13711">
        <ele>26.8</ele>
        <time>2020-06-05T11:20:13Z</time>
      </trkpt>
      <trkpt lat="47.1387" lon="-2.13715">
        <ele>26.8</ele>
        <time>2020-06-05T11:20:14Z</time>
      </trkpt>
      <trkpt lat="47.13873" lon="-2.13718">
        <ele>26.8</ele>
        <time>2020-06-05T11:20:15Z</time>
      </trkpt>
      <trkpt lat="47.13876" lon="-2.13721">
        <ele>26.8</ele>
        <time>2020-06-05T11:20:16Z</time>
      </trkpt>
      <trkpt lat="47.1388" lon="-2.13724">
        <ele>26.8</ele>
        <time>2020-06-05T11:20:17Z</time>
      </trkpt>
      <trkpt lat="47.13881" lon="-2.13725">
        <ele>26.8</ele>
        <time>2020-06-05T11:20:18Z</time>
      </trkpt>
      <trkpt lat="47.13884" lon="-2.13726">
        <ele>26.8</ele>
        <time>2020-06-05T11:20:19Z</time>
      </trkpt>
      <trkpt lat="47.13886" lon="-2.13729">
        <ele>26.9</ele>
        <time>2020-06-05T11:20:20Z</time>
      </trkpt>
      <trkpt lat="47.13889" lon="-2.1373">
        <ele>26.9</ele>
        <time>2020-06-05T11:20:21Z</time>
      </trkpt>
      <trkpt lat="47.13892" lon="-2.13733">
        <ele>27</ele>
        <time>2020-06-05T11:20:22Z</time>
      </trkpt>
      <trkpt lat="47.13895" lon="-2.13734">
        <ele>27.1</ele>
        <time>2020-06-05T11:20:23Z</time>
      </trkpt>
      <trkpt lat="47.13898" lon="-2.13735">
        <ele>27.1</ele>
        <time>2020-06-05T11:20:24Z</time>
      </trkpt>
      <trkpt lat="47.139" lon="-2.13738">
        <ele>27.2</ele>
        <time>2020-06-05T11:20:25Z</time>
      </trkpt>
      <trkpt lat="47.13903" lon="-2.1374">
        <ele>27.2</ele>
        <time>2020-06-05T11:20:26Z</time>
      </trkpt>
      <trkpt lat="47.13907" lon="-2.13744">
        <ele>27.3</ele>
        <time>2020-06-05T11:20:27Z</time>
      </trkpt>
      <trkpt lat="47.1391" lon="-2.13747">
        <ele>27.3</ele>
        <time>2020-06-05T11:20:28Z</time>
      </trkpt>
      <trkpt lat="47.13912" lon="-2.1375">
        <ele>27.4</ele>
        <time>2020-06-05T11:20:29Z</time>
      </trkpt>
      <trkpt lat="47.13915" lon="-2.13753">
        <ele>27.4</ele>
        <time>2020-06-05T11:20:30Z</time>
      </trkpt>
      <trkpt lat="47.13918" lon="-2.13756">
        <ele>27.5</ele>
        <time>2020-06-05T11:20:31Z</time>
      </trkpt>
      <trkpt lat="47.13921" lon="-2.1376">
        <ele>27.6</ele>
        <time>2020-06-05T11:20:32Z</time>
      </trkpt>
      <trkpt lat="47.13924" lon="-2.13763">
        <ele>27.7</ele>
        <time>2020-06-05T11:20:33Z</time>
      </trkpt>
      <trkpt lat="47.13928" lon="-2.13766">
        <ele>27.9</ele>
        <time>2020-06-05T11:20:34Z</time>
      </trkpt>
      <trkpt lat="47.13931" lon="-2.13768">
        <ele>28</ele>
        <time>2020-06-05T11:20:35Z</time>
      </trkpt>
      <trkpt lat="47.13935" lon="-2.13771">
        <ele>28.1</ele>
        <time>2020-06-05T11:20:36Z</time>
      </trkpt>
      <trkpt lat="47.13938" lon="-2.13773">
        <ele>28.2</ele>
        <time>2020-06-05T11:20:37Z</time>
      </trkpt>
      <trkpt lat="47.13943" lon="-2.13775">
        <ele>28.4</ele>
        <time>2020-06-05T11:20:38Z</time>
      </trkpt>
      <trkpt lat="47.13946" lon="-2.13778">
        <ele>28.5</ele>
        <time>2020-06-05T11:20:39Z</time>
      </trkpt>
      <trkpt lat="47.13949" lon="-2.1378">
        <ele>28.6</ele>
        <time>2020-06-05T11:20:40Z</time>
      </trkpt>
      <trkpt lat="47.13952" lon="-2.13783">
        <ele>28.8</ele>
        <time>2020-06-05T11:20:41Z</time>
      </trkpt>
      <trkpt lat="47.13955" lon="-2.13787">
        <ele>28.9</ele>
        <time>2020-06-05T11:20:42Z</time>
      </trkpt>
      <trkpt lat="47.13958" lon="-2.1379">
        <ele>29</ele>
        <time>2020-06-05T11:20:43Z</time>
      </trkpt>
      <trkpt lat="47.13962" lon="-2.13794">
        <ele>29.1</ele>
        <time>2020-06-05T11:20:44Z</time>
      </trkpt>
      <trkpt lat="47.13966" lon="-2.13797">
        <ele>29.3</ele>
        <time>2020-06-05T11:20:45Z</time>
      </trkpt>
      <trkpt lat="47.1397" lon="-2.13802">
        <ele>29.4</ele>
        <time>2020-06-05T11:20:46Z</time>
      </trkpt>
      <trkpt lat="47.13974" lon="-2.13805">
        <ele>29.5</ele>
        <time>2020-06-05T11:20:47Z</time>
      </trkpt>
      <trkpt lat="47.13978" lon="-2.13808">
        <ele>29.7</ele>
        <time>2020-06-05T11:20:48Z</time>
      </trkpt>
      <trkpt lat="47.13981" lon="-2.13811">
        <ele>29.7</ele>
        <time>2020-06-05T11:20:49Z</time>
      </trkpt>
      <trkpt lat="47.13984" lon="-2.13815">
        <ele>29.8</ele>
        <time>2020-06-05T11:20:50Z</time>
      </trkpt>
      <trkpt lat="47.13987" lon="-2.13819">
        <ele>29.9</ele>
        <time>2020-06-05T11:20:51Z</time>
      </trkpt>
      <trkpt lat="47.1399" lon="-2.13822">
        <ele>29.9</ele>
        <time>2020-06-05T11:20:52Z</time>
      </trkpt>
      <trkpt lat="47.13993" lon="-2.13826">
        <ele>30</ele>
        <time>2020-06-05T11:20:53Z</time>
      </trkpt>
      <trkpt lat="47.13996" lon="-2.13831">
        <ele>30.1</ele>
        <time>2020-06-05T11:20:54Z</time>
      </trkpt>
      <trkpt lat="47.13998" lon="-2.13834">
        <ele>30.1</ele>
        <time>2020-06-05T11:20:55Z</time>
      </trkpt>
      <trkpt lat="47.14002" lon="-2.13837">
        <ele>30.3</ele>
        <time>2020-06-05T11:20:56Z</time>
      </trkpt>
      <trkpt lat="47.14004" lon="-2.1384">
        <ele>30.4</ele>
        <time>2020-06-05T11:20:57Z</time>
      </trkpt>
      <trkpt lat="47.14007" lon="-2.13842">
        <ele>30.5</ele>
        <time>2020-06-05T11:20:58Z</time>
      </trkpt>
      <trkpt lat="47.14009" lon="-2.13845">
        <ele>30.6</ele>
        <time>2020-06-05T11:20:59Z</time>
      </trkpt>
      <trkpt lat="47.14011" lon="-2.13849">
        <ele>30.7</ele>
        <time>2020-06-05T11:21:00Z</time>
      </trkpt>
      <trkpt lat="47.14015" lon="-2.13851">
        <ele>30.8</ele>
        <time>2020-06-05T11:21:01Z</time>
      </trkpt>
      <trkpt lat="47.14018" lon="-2.13855">
        <ele>30.9</ele>
        <time>2020-06-05T11:21:02Z</time>
      </trkpt>
      <trkpt lat="47.14021" lon="-2.13859">
        <ele>31.1</ele>
        <time>2020-06-05T11:21:03Z</time>
      </trkpt>
      <trkpt lat="47.14023" lon="-2.13863">
        <ele>31.2</ele>
        <time>2020-06-05T11:21:04Z</time>
      </trkpt>
      <trkpt lat="47.14026" lon="-2.13867">
        <ele>31.3</ele>
        <time>2020-06-05T11:21:05Z</time>
      </trkpt>
      <trkpt lat="47.14029" lon="-2.13872">
        <ele>31.4</ele>
        <time>2020-06-05T11:21:06Z</time>
      </trkpt>
      <trkpt lat="47.14032" lon="-2.13875">
        <ele>31.5</ele>
        <time>2020-06-05T11:21:07Z</time>
      </trkpt>
      <trkpt lat="47.14035" lon="-2.13879">
        <ele>31.5</ele>
        <time>2020-06-05T11:21:08Z</time>
      </trkpt>
      <trkpt lat="47.14037" lon="-2.13882">
        <ele>31.6</ele>
        <time>2020-06-05T11:21:09Z</time>
      </trkpt>
      <trkpt lat="47.1404" lon="-2.13886">
        <ele>31.6</ele>
        <time>2020-06-05T11:21:10Z</time>
      </trkpt>
      <trkpt lat="47.14043" lon="-2.1389">
        <ele>31.6</ele>
        <time>2020-06-05T11:21:11Z</time>
      </trkpt>
      <trkpt lat="47.14045" lon="-2.13893">
        <ele>31.7</ele>
        <time>2020-06-05T11:21:12Z</time>
      </trkpt>
      <trkpt lat="47.14048" lon="-2.13897">
        <ele>31.7</ele>
        <time>2020-06-05T11:21:13Z</time>
      </trkpt>
      <trkpt lat="47.1405" lon="-2.139">
        <ele>31.7</ele>
        <time>2020-06-05T11:21:14Z</time>
      </trkpt>
      <trkpt lat="47.14051" lon="-2.13904">
        <ele>31.7</ele>
        <time>2020-06-05T11:21:15Z</time>
      </trkpt>
      <trkpt lat="47.14054" lon="-2.13907">
        <ele>31.8</ele>
        <time>2020-06-05T11:21:16Z</time>
      </trkpt>
      <trkpt lat="47.14056" lon="-2.13912">
        <ele>31.9</ele>
        <time>2020-06-05T11:21:17Z</time>
      </trkpt>
      <trkpt lat="47.14059" lon="-2.13916">
        <ele>31.9</ele>
        <time>2020-06-05T11:21:18Z</time>
      </trkpt>
      <trkpt lat="47.14061" lon="-2.13919">
        <ele>32</ele>
        <time>2020-06-05T11:21:19Z</time>
      </trkpt>
      <trkpt lat="47.14063" lon="-2.13924">
        <ele>32.1</ele>
        <time>2020-06-05T11:21:20Z</time>
      </trkpt>
      <trkpt lat="47.14065" lon="-2.13929">
        <ele>32.1</ele>
        <time>2020-06-05T11:21:21Z</time>
      </trkpt>
      <trkpt lat="47.14068" lon="-2.13932">
        <ele>32.1</ele>
        <time>2020-06-05T11:21:22Z</time>
      </trkpt>
      <trkpt lat="47.14071" lon="-2.13936">
        <ele>32.1</ele>
        <time>2020-06-05T11:21:23Z</time>
      </trkpt>
      <trkpt lat="47.14074" lon="-2.1394">
        <ele>32</ele>
        <time>2020-06-05T11:21:24Z</time>
      </trkpt>
      <trkpt lat="47.14077" lon="-2.13945">
        <ele>31.9</ele>
        <time>2020-06-05T11:21:25Z</time>
      </trkpt>
      <trkpt lat="47.14079" lon="-2.1395">
        <ele>31.9</ele>
        <time>2020-06-05T11:21:26Z</time>
      </trkpt>
      <trkpt lat="47.14081" lon="-2.13954">
        <ele>31.9</ele>
        <time>2020-06-05T11:21:27Z</time>
      </trkpt>
      <trkpt lat="47.14084" lon="-2.13958">
        <ele>31.9</ele>
        <time>2020-06-05T11:21:28Z</time>
      </trkpt>
      <trkpt lat="47.14087" lon="-2.13962">
        <ele>31.9</ele>
        <time>2020-06-05T11:21:29Z</time>
      </trkpt>
      <trkpt lat="47.1409" lon="-2.13965">
        <ele>31.9</ele>
        <time>2020-06-05T11:21:30Z</time>
      </trkpt>
      <trkpt lat="47.14094" lon="-2.13969">
        <ele>32</ele>
        <time>2020-06-05T11:21:31Z</time>
      </trkpt>
      <trkpt lat="47.14097" lon="-2.13973">
        <ele>32</ele>
        <time>2020-06-05T11:21:32Z</time>
      </trkpt>
      <trkpt lat="47.14099" lon="-2.13976">
        <ele>32</ele>
        <time>2020-06-05T11:21:33Z</time>
      </trkpt>
      <trkpt lat="47.14103" lon="-2.1398">
        <ele>32</ele>
        <time>2020-06-05T11:21:34Z</time>
      </trkpt>
      <trkpt lat="47.14105" lon="-2.13984">
        <ele>32</ele>
        <time>2020-06-05T11:21:35Z</time>
      </trkpt>
      <trkpt lat="47.14108" lon="-2.13988">
        <ele>32</ele>
        <time>2020-06-05T11:21:36Z</time>
      </trkpt>
      <trkpt lat="47.14111" lon="-2.13992">
        <ele>31.9</ele>
        <time>2020-06-05T11:21:37Z</time>
      </trkpt>
      <trkpt lat="47.14114" lon="-2.13996">
        <ele>31.9</ele>
        <time>2020-06-05T11:21:38Z</time>
      </trkpt>
      <trkpt lat="47.14117" lon="-2.14001">
        <ele>31.9</ele>
        <time>2020-06-05T11:21:39Z</time>
      </trkpt>
      <trkpt lat="47.1412" lon="-2.14005">
        <ele>31.9</ele>
        <time>2020-06-05T11:21:40Z</time>
      </trkpt>
      <trkpt lat="47.14123" lon="-2.14009">
        <ele>31.8</ele>
        <time>2020-06-05T11:21:41Z</time>
      </trkpt>
      <trkpt lat="47.14126" lon="-2.14013">
        <ele>31.8</ele>
        <time>2020-06-05T11:21:42Z</time>
      </trkpt>
      <trkpt lat="47.14129" lon="-2.14017">
        <ele>31.7</ele>
        <time>2020-06-05T11:21:43Z</time>
      </trkpt>
      <trkpt lat="47.14132" lon="-2.14021">
        <ele>31.6</ele>
        <time>2020-06-05T11:21:44Z</time>
      </trkpt>
      <trkpt lat="47.14135" lon="-2.14025">
        <ele>31.6</ele>
        <time>2020-06-05T11:21:45Z</time>
      </trkpt>
      <trkpt lat="47.14137" lon="-2.14028">
        <ele>31.6</ele>
        <time>2020-06-05T11:21:46Z</time>
      </trkpt>
      <trkpt lat="47.1414" lon="-2.14032">
        <ele>31.5</ele>
        <time>2020-06-05T11:21:47Z</time>
      </trkpt>
      <trkpt lat="47.14142" lon="-2.14036">
        <ele>31.5</ele>
        <time>2020-06-05T11:21:48Z</time>
      </trkpt>
      <trkpt lat="47.14145" lon="-2.1404">
        <ele>31.4</ele>
        <time>2020-06-05T11:21:49Z</time>
      </trkpt>
      <trkpt lat="47.14148" lon="-2.14044">
        <ele>31.3</ele>
        <time>2020-06-05T11:21:50Z</time>
      </trkpt>
      <trkpt lat="47.1415" lon="-2.14048">
        <ele>31.2</ele>
        <time>2020-06-05T11:21:51Z</time>
      </trkpt>
      <trkpt lat="47.14153" lon="-2.14052">
        <ele>31</ele>
        <time>2020-06-05T11:21:52Z</time>
      </trkpt>
      <trkpt lat="47.14156" lon="-2.14056">
        <ele>31</ele>
        <time>2020-06-05T11:21:53Z</time>
      </trkpt>
      <trkpt lat="47.14159" lon="-2.1406">
        <ele>30.9</ele>
        <time>2020-06-05T11:21:54Z</time>
      </trkpt>
      <trkpt lat="47.14161" lon="-2.14064">
        <ele>30.9</ele>
        <time>2020-06-05T11:21:55Z</time>
      </trkpt>
      <trkpt lat="47.14164" lon="-2.14068">
        <ele>30.9</ele>
        <time>2020-06-05T11:21:56Z</time>
      </trkpt>
      <trkpt lat="47.14166" lon="-2.14071">
        <ele>30.9</ele>
        <time>2020-06-05T11:21:57Z</time>
      </trkpt>
      <trkpt lat="47.14168" lon="-2.14075">
        <ele>30.8</ele>
        <time>2020-06-05T11:21:58Z</time>
      </trkpt>
      <trkpt lat="47.14171" lon="-2.14078">
        <ele>30.8</ele>
        <time>2020-06-05T11:21:59Z</time>
      </trkpt>
      <trkpt lat="47.14173" lon="-2.14082">
        <ele>30.7</ele>
        <time>2020-06-05T11:22:00Z</time>
      </trkpt>
      <trkpt lat="47.14176" lon="-2.14086">
        <ele>30.6</ele>
        <time>2020-06-05T11:22:01Z</time>
      </trkpt>
      <trkpt lat="47.14179" lon="-2.1409">
        <ele>30.5</ele>
        <time>2020-06-05T11:22:02Z</time>
      </trkpt>
      <trkpt lat="47.14181" lon="-2.14094">
        <ele>30.3</ele>
        <time>2020-06-05T11:22:03Z</time>
      </trkpt>
      <trkpt lat="47.14184" lon="-2.14098">
        <ele>30.1</ele>
        <time>2020-06-05T11:22:04Z</time>
      </trkpt>
      <trkpt lat="47.14186" lon="-2.14101">
        <ele>29.8</ele>
        <time>2020-06-05T11:22:05Z</time>
      </trkpt>
      <trkpt lat="47.14188" lon="-2.14103">
        <ele>29.6</ele>
        <time>2020-06-05T11:22:06Z</time>
      </trkpt>
      <trkpt lat="47.14192" lon="-2.14106">
        <ele>29.4</ele>
        <time>2020-06-05T11:22:07Z</time>
      </trkpt>
      <trkpt lat="47.14193" lon="-2.14107">
        <ele>29.4</ele>
        <time>2020-06-05T11:22:08Z</time>
      </trkpt>
      <trkpt lat="47.14195" lon="-2.14109">
        <ele>29.3</ele>
        <time>2020-06-05T11:22:09Z</time>
      </trkpt>
      <trkpt lat="47.14198" lon="-2.14112">
        <ele>29.2</ele>
        <time>2020-06-05T11:22:10Z</time>
      </trkpt>
      <trkpt lat="47.14199" lon="-2.14114">
        <ele>29.1</ele>
        <time>2020-06-05T11:22:11Z</time>
      </trkpt>
      <trkpt lat="47.14202" lon="-2.14118">
        <ele>29</ele>
        <time>2020-06-05T11:22:12Z</time>
      </trkpt>
      <trkpt lat="47.14204" lon="-2.14119">
        <ele>28.9</ele>
        <time>2020-06-05T11:22:13Z</time>
      </trkpt>
      <trkpt lat="47.14206" lon="-2.14123">
        <ele>28.9</ele>
        <time>2020-06-05T11:22:14Z</time>
      </trkpt>
      <trkpt lat="47.14208" lon="-2.14126">
        <ele>28.8</ele>
        <time>2020-06-05T11:22:15Z</time>
      </trkpt>
      <trkpt lat="47.1421" lon="-2.14128">
        <ele>28.7</ele>
        <time>2020-06-05T11:22:16Z</time>
      </trkpt>
      <trkpt lat="47.14212" lon="-2.14132">
        <ele>28.7</ele>
        <time>2020-06-05T11:22:17Z</time>
      </trkpt>
      <trkpt lat="47.14215" lon="-2.14135">
        <ele>28.6</ele>
        <time>2020-06-05T11:22:18Z</time>
      </trkpt>
      <trkpt lat="47.14217" lon="-2.14139">
        <ele>28.5</ele>
        <time>2020-06-05T11:22:19Z</time>
      </trkpt>
      <trkpt lat="47.14219" lon="-2.14143">
        <ele>28.4</ele>
        <time>2020-06-05T11:22:20Z</time>
      </trkpt>
      <trkpt lat="47.1422" lon="-2.14147">
        <ele>28.3</ele>
        <time>2020-06-05T11:22:21Z</time>
      </trkpt>
      <trkpt lat="47.14223" lon="-2.14151">
        <ele>28.2</ele>
        <time>2020-06-05T11:22:22Z</time>
      </trkpt>
      <trkpt lat="47.14224" lon="-2.14154">
        <ele>28.2</ele>
        <time>2020-06-05T11:22:23Z</time>
      </trkpt>
      <trkpt lat="47.14227" lon="-2.14158">
        <ele>28.1</ele>
        <time>2020-06-05T11:22:24Z</time>
      </trkpt>
      <trkpt lat="47.14229" lon="-2.14161">
        <ele>28</ele>
        <time>2020-06-05T11:22:25Z</time>
      </trkpt>
      <trkpt lat="47.14232" lon="-2.14164">
        <ele>28</ele>
        <time>2020-06-05T11:22:26Z</time>
      </trkpt>
      <trkpt lat="47.14234" lon="-2.14167">
        <ele>27.9</ele>
        <time>2020-06-05T11:22:27Z</time>
      </trkpt>
      <trkpt lat="47.14236" lon="-2.14171">
        <ele>27.9</ele>
        <time>2020-06-05T11:22:28Z</time>
      </trkpt>
      <trkpt lat="47.14237" lon="-2.14172">
        <ele>27.9</ele>
        <time>2020-06-05T11:22:29Z</time>
      </trkpt>
      <trkpt lat="47.14239" lon="-2.14176">
        <ele>27.9</ele>
        <time>2020-06-05T11:22:30Z</time>
      </trkpt>
      <trkpt lat="47.14241" lon="-2.14181">
        <ele>27.8</ele>
        <time>2020-06-05T11:22:31Z</time>
      </trkpt>
      <trkpt lat="47.14243" lon="-2.14184">
        <ele>27.8</ele>
        <time>2020-06-05T11:22:32Z</time>
      </trkpt>
      <trkpt lat="47.14245" lon="-2.14188">
        <ele>27.8</ele>
        <time>2020-06-05T11:22:33Z</time>
      </trkpt>
      <trkpt lat="47.14247" lon="-2.1419">
        <ele>27.8</ele>
        <time>2020-06-05T11:22:34Z</time>
      </trkpt>
      <trkpt lat="47.14249" lon="-2.14193">
        <ele>27.7</ele>
        <time>2020-06-05T11:22:35Z</time>
      </trkpt>
      <trkpt lat="47.14252" lon="-2.14197">
        <ele>27.7</ele>
        <time>2020-06-05T11:22:36Z</time>
      </trkpt>
      <trkpt lat="47.14254" lon="-2.142">
        <ele>27.7</ele>
        <time>2020-06-05T11:22:37Z</time>
      </trkpt>
      <trkpt lat="47.14257" lon="-2.14203">
        <ele>27.6</ele>
        <time>2020-06-05T11:22:38Z</time>
      </trkpt>
      <trkpt lat="47.14259" lon="-2.14207">
        <ele>27.6</ele>
        <time>2020-06-05T11:22:39Z</time>
      </trkpt>
      <trkpt lat="47.14261" lon="-2.1421">
        <ele>27.5</ele>
        <time>2020-06-05T11:22:40Z</time>
      </trkpt>
      <trkpt lat="47.14263" lon="-2.14213">
        <ele>27.5</ele>
        <time>2020-06-05T11:22:41Z</time>
      </trkpt>
      <trkpt lat="47.14265" lon="-2.14216">
        <ele>27.4</ele>
        <time>2020-06-05T11:22:42Z</time>
      </trkpt>
      <trkpt lat="47.14267" lon="-2.14218">
        <ele>27.3</ele>
        <time>2020-06-05T11:22:43Z</time>
      </trkpt>
      <trkpt lat="47.14269" lon="-2.14222">
        <ele>27.3</ele>
        <time>2020-06-05T11:22:44Z</time>
      </trkpt>
      <trkpt lat="47.14273" lon="-2.14225">
        <ele>27.2</ele>
        <time>2020-06-05T11:22:45Z</time>
      </trkpt>
      <trkpt lat="47.14276" lon="-2.14228">
        <ele>27.1</ele>
        <time>2020-06-05T11:22:46Z</time>
      </trkpt>
      <trkpt lat="47.1428" lon="-2.14231">
        <ele>27</ele>
        <time>2020-06-05T11:22:47Z</time>
      </trkpt>
      <trkpt lat="47.1428" lon="-2.14232">
        <ele>27</ele>
        <time>2020-06-05T11:22:48Z</time>
      </trkpt>
      <trkpt lat="47.14282" lon="-2.14233">
        <ele>27</ele>
        <time>2020-06-05T11:22:49Z</time>
      </trkpt>
      <trkpt lat="47.14284" lon="-2.14234">
        <ele>27</ele>
        <time>2020-06-05T11:22:50Z</time>
      </trkpt>
      <trkpt lat="47.14283" lon="-2.14234">
        <ele>27</ele>
        <time>2020-06-05T11:22:51Z</time>
      </trkpt>
      <trkpt lat="47.14283" lon="-2.14235">
        <ele>27</ele>
        <time>2020-06-05T11:22:52Z</time>
      </trkpt>
      <trkpt lat="47.14284" lon="-2.14235">
        <ele>27</ele>
        <time>2020-06-05T11:22:53Z</time>
      </trkpt>
      <trkpt lat="47.14285" lon="-2.14235">
        <ele>27</ele>
        <time>2020-06-05T11:22:54Z</time>
      </trkpt>
      <trkpt lat="47.14286" lon="-2.14235">
        <ele>27</ele>
        <time>2020-06-05T11:22:55Z</time>
      </trkpt>
      <trkpt lat="47.14288" lon="-2.14234">
        <ele>27</ele>
        <time>2020-06-05T11:22:56Z</time>
      </trkpt>
      <trkpt lat="47.14289" lon="-2.14235">
        <ele>26.9</ele>
        <time>2020-06-05T11:22:57Z</time>
      </trkpt>
      <trkpt lat="47.1429" lon="-2.14236">
        <ele>26.9</ele>
        <time>2020-06-05T11:22:58Z</time>
      </trkpt>
      <trkpt lat="47.1429" lon="-2.14237">
        <ele>26.9</ele>
        <time>2020-06-05T11:22:59Z</time>
      </trkpt>
      <trkpt lat="47.1429" lon="-2.14238">
        <ele>26.9</ele>
        <time>2020-06-05T11:23:00Z</time>
      </trkpt>
      <trkpt lat="47.1429" lon="-2.14238">
        <ele>26.9</ele>
        <time>2020-06-05T11:23:01Z</time>
      </trkpt>
      <trkpt lat="47.1429" lon="-2.14238">
        <ele>26.9</ele>
        <time>2020-06-05T11:23:02Z</time>
      </trkpt>
      <trkpt lat="47.1429" lon="-2.14238">
        <ele>26.9</ele>
        <time>2020-06-05T11:23:03Z</time>
      </trkpt>
      <trkpt lat="47.14291" lon="-2.14239">
        <ele>26.9</ele>
        <time>2020-06-05T11:23:04Z</time>
      </trkpt>
      <trkpt lat="47.14294" lon="-2.14243">
        <ele>26.9</ele>
        <time>2020-06-05T11:23:05Z</time>
      </trkpt>
      <trkpt lat="47.14295" lon="-2.14244">
        <ele>26.8</ele>
        <time>2020-06-05T11:23:06Z</time>
      </trkpt>
      <trkpt lat="47.14298" lon="-2.14247">
        <ele>26.8</ele>
        <time>2020-06-05T11:23:07Z</time>
      </trkpt>
      <trkpt lat="47.143" lon="-2.14249">
        <ele>26.7</ele>
        <time>2020-06-05T11:23:08Z</time>
      </trkpt>
      <trkpt lat="47.14303" lon="-2.14252">
        <ele>26.5</ele>
        <time>2020-06-05T11:23:09Z</time>
      </trkpt>
      <trkpt lat="47.14306" lon="-2.14255">
        <ele>26.4</ele>
        <time>2020-06-05T11:23:10Z</time>
      </trkpt>
      <trkpt lat="47.14308" lon="-2.14258">
        <ele>26.3</ele>
        <time>2020-06-05T11:23:11Z</time>
      </trkpt>
      <trkpt lat="47.14311" lon="-2.14261">
        <ele>26.2</ele>
        <time>2020-06-05T11:23:12Z</time>
      </trkpt>
      <trkpt lat="47.14312" lon="-2.14263">
        <ele>26.1</ele>
        <time>2020-06-05T11:23:13Z</time>
      </trkpt>
      <trkpt lat="47.14315" lon="-2.14267">
        <ele>26</ele>
        <time>2020-06-05T11:23:14Z</time>
      </trkpt>
      <trkpt lat="47.14318" lon="-2.1427">
        <ele>25.9</ele>
        <time>2020-06-05T11:23:15Z</time>
      </trkpt>
      <trkpt lat="47.14321" lon="-2.14273">
        <ele>25.8</ele>
        <time>2020-06-05T11:23:16Z</time>
      </trkpt>
      <trkpt lat="47.14324" lon="-2.14277">
        <ele>25.7</ele>
        <time>2020-06-05T11:23:17Z</time>
      </trkpt>
      <trkpt lat="47.14326" lon="-2.1428">
        <ele>25.7</ele>
        <time>2020-06-05T11:23:18Z</time>
      </trkpt>
      <trkpt lat="47.14329" lon="-2.14283">
        <ele>25.7</ele>
        <time>2020-06-05T11:23:19Z</time>
      </trkpt>
      <trkpt lat="47.14333" lon="-2.14286">
        <ele>25.7</ele>
        <time>2020-06-05T11:23:20Z</time>
      </trkpt>
      <trkpt lat="47.14334" lon="-2.14287">
        <ele>25.6</ele>
        <time>2020-06-05T11:23:21Z</time>
      </trkpt>
      <trkpt lat="47.14336" lon="-2.14289">
        <ele>25.6</ele>
        <time>2020-06-05T11:23:22Z</time>
      </trkpt>
      <trkpt lat="47.14338" lon="-2.14293">
        <ele>25.6</ele>
        <time>2020-06-05T11:23:23Z</time>
      </trkpt>
      <trkpt lat="47.14341" lon="-2.14297">
        <ele>25.6</ele>
        <time>2020-06-05T11:23:24Z</time>
      </trkpt>
      <trkpt lat="47.14344" lon="-2.143">
        <ele>25.6</ele>
        <time>2020-06-05T11:23:25Z</time>
      </trkpt>
      <trkpt lat="47.14346" lon="-2.14304">
        <ele>25.6</ele>
        <time>2020-06-05T11:23:26Z</time>
      </trkpt>
      <trkpt lat="47.14348" lon="-2.14307">
        <ele>25.6</ele>
        <time>2020-06-05T11:23:27Z</time>
      </trkpt>
      <trkpt lat="47.1435" lon="-2.1431">
        <ele>25.6</ele>
        <time>2020-06-05T11:23:28Z</time>
      </trkpt>
      <trkpt lat="47.14353" lon="-2.14313">
        <ele>25.6</ele>
        <time>2020-06-05T11:23:29Z</time>
      </trkpt>
      <trkpt lat="47.14355" lon="-2.14314">
        <ele>25.6</ele>
        <time>2020-06-05T11:23:30Z</time>
      </trkpt>
      <trkpt lat="47.14357" lon="-2.14317">
        <ele>25.5</ele>
        <time>2020-06-05T11:23:31Z</time>
      </trkpt>
      <trkpt lat="47.1436" lon="-2.14321">
        <ele>25.5</ele>
        <time>2020-06-05T11:23:32Z</time>
      </trkpt>
      <trkpt lat="47.14362" lon="-2.14324">
        <ele>25.4</ele>
        <time>2020-06-05T11:23:33Z</time>
      </trkpt>
      <trkpt lat="47.14365" lon="-2.14327">
        <ele>25.4</ele>
        <time>2020-06-05T11:23:34Z</time>
      </trkpt>
      <trkpt lat="47.14367" lon="-2.14331">
        <ele>25.4</ele>
        <time>2020-06-05T11:23:35Z</time>
      </trkpt>
      <trkpt lat="47.14371" lon="-2.14334">
        <ele>25.3</ele>
        <time>2020-06-05T11:23:36Z</time>
      </trkpt>
      <trkpt lat="47.14372" lon="-2.14339">
        <ele>25.3</ele>
        <time>2020-06-05T11:23:37Z</time>
      </trkpt>
      <trkpt lat="47.14374" lon="-2.14344">
        <ele>25.3</ele>
        <time>2020-06-05T11:23:38Z</time>
      </trkpt>
      <trkpt lat="47.14376" lon="-2.14347">
        <ele>25.3</ele>
        <time>2020-06-05T11:23:39Z</time>
      </trkpt>
      <trkpt lat="47.14378" lon="-2.1435">
        <ele>25.3</ele>
        <time>2020-06-05T11:23:40Z</time>
      </trkpt>
      <trkpt lat="47.1438" lon="-2.14353">
        <ele>25.2</ele>
        <time>2020-06-05T11:23:41Z</time>
      </trkpt>
      <trkpt lat="47.14383" lon="-2.14357">
        <ele>25.2</ele>
        <time>2020-06-05T11:23:42Z</time>
      </trkpt>
      <trkpt lat="47.14384" lon="-2.14359">
        <ele>25.2</ele>
        <time>2020-06-05T11:23:43Z</time>
      </trkpt>
      <trkpt lat="47.14386" lon="-2.14363">
        <ele>25.2</ele>
        <time>2020-06-05T11:23:44Z</time>
      </trkpt>
      <trkpt lat="47.14389" lon="-2.14366">
        <ele>25.2</ele>
        <time>2020-06-05T11:23:45Z</time>
      </trkpt>
      <trkpt lat="47.1439" lon="-2.14368">
        <ele>25.2</ele>
        <time>2020-06-05T11:23:46Z</time>
      </trkpt>
      <trkpt lat="47.14392" lon="-2.14371">
        <ele>25.2</ele>
        <time>2020-06-05T11:23:47Z</time>
      </trkpt>
      <trkpt lat="47.14395" lon="-2.14374">
        <ele>25.2</ele>
        <time>2020-06-05T11:23:48Z</time>
      </trkpt>
      <trkpt lat="47.14397" lon="-2.14378">
        <ele>25.2</ele>
        <time>2020-06-05T11:23:49Z</time>
      </trkpt>
      <trkpt lat="47.14399" lon="-2.14381">
        <ele>25.3</ele>
        <time>2020-06-05T11:23:50Z</time>
      </trkpt>
      <trkpt lat="47.14401" lon="-2.14384">
        <ele>25.3</ele>
        <time>2020-06-05T11:23:51Z</time>
      </trkpt>
      <trkpt lat="47.14403" lon="-2.14388">
        <ele>25.3</ele>
        <time>2020-06-05T11:23:52Z</time>
      </trkpt>
      <trkpt lat="47.14405" lon="-2.14392">
        <ele>25.3</ele>
        <time>2020-06-05T11:23:53Z</time>
      </trkpt>
      <trkpt lat="47.14406" lon="-2.14396">
        <ele>25.3</ele>
        <time>2020-06-05T11:23:54Z</time>
      </trkpt>
      <trkpt lat="47.14408" lon="-2.144">
        <ele>25.3</ele>
        <time>2020-06-05T11:23:55Z</time>
      </trkpt>
      <trkpt lat="47.1441" lon="-2.14404">
        <ele>25.2</ele>
        <time>2020-06-05T11:23:56Z</time>
      </trkpt>
      <trkpt lat="47.14411" lon="-2.14408">
        <ele>25.2</ele>
        <time>2020-06-05T11:23:57Z</time>
      </trkpt>
      <trkpt lat="47.14413" lon="-2.14412">
        <ele>25.2</ele>
        <time>2020-06-05T11:23:58Z</time>
      </trkpt>
      <trkpt lat="47.14415" lon="-2.14416">
        <ele>25.1</ele>
        <time>2020-06-05T11:23:59Z</time>
      </trkpt>
      <trkpt lat="47.14417" lon="-2.14419">
        <ele>25.1</ele>
        <time>2020-06-05T11:24:00Z</time>
      </trkpt>
      <trkpt lat="47.14419" lon="-2.14423">
        <ele>25.1</ele>
        <time>2020-06-05T11:24:01Z</time>
      </trkpt>
      <trkpt lat="47.14421" lon="-2.14426">
        <ele>25</ele>
        <time>2020-06-05T11:24:02Z</time>
      </trkpt>
      <trkpt lat="47.14423" lon="-2.14431">
        <ele>25</ele>
        <time>2020-06-05T11:24:03Z</time>
      </trkpt>
      <trkpt lat="47.14425" lon="-2.14435">
        <ele>25</ele>
        <time>2020-06-05T11:24:04Z</time>
      </trkpt>
      <trkpt lat="47.14427" lon="-2.14439">
        <ele>25</ele>
        <time>2020-06-05T11:24:05Z</time>
      </trkpt>
      <trkpt lat="47.14428" lon="-2.14443">
        <ele>24.9</ele>
        <time>2020-06-05T11:24:06Z</time>
      </trkpt>
      <trkpt lat="47.1443" lon="-2.14448">
        <ele>24.9</ele>
        <time>2020-06-05T11:24:07Z</time>
      </trkpt>
      <trkpt lat="47.1443" lon="-2.14449">
        <ele>24.9</ele>
        <time>2020-06-05T11:24:08Z</time>
      </trkpt>
      <trkpt lat="47.14433" lon="-2.14453">
        <ele>24.8</ele>
        <time>2020-06-05T11:24:09Z</time>
      </trkpt>
      <trkpt lat="47.14433" lon="-2.14454">
        <ele>24.8</ele>
        <time>2020-06-05T11:24:10Z</time>
      </trkpt>
      <trkpt lat="47.14435" lon="-2.14458">
        <ele>24.8</ele>
        <time>2020-06-05T11:24:11Z</time>
      </trkpt>
      <trkpt lat="47.14435" lon="-2.14459">
        <ele>24.8</ele>
        <time>2020-06-05T11:24:12Z</time>
      </trkpt>
      <trkpt lat="47.14436" lon="-2.14463">
        <ele>24.7</ele>
        <time>2020-06-05T11:24:13Z</time>
      </trkpt>
      <trkpt lat="47.14439" lon="-2.14467">
        <ele>24.7</ele>
        <time>2020-06-05T11:24:14Z</time>
      </trkpt>
      <trkpt lat="47.14441" lon="-2.14472">
        <ele>24.7</ele>
        <time>2020-06-05T11:24:15Z</time>
      </trkpt>
      <trkpt lat="47.14443" lon="-2.14476">
        <ele>24.7</ele>
        <time>2020-06-05T11:24:16Z</time>
      </trkpt>
      <trkpt lat="47.14445" lon="-2.1448">
        <ele>24.7</ele>
        <time>2020-06-05T11:24:17Z</time>
      </trkpt>
      <trkpt lat="47.14446" lon="-2.14485">
        <ele>24.7</ele>
        <time>2020-06-05T11:24:18Z</time>
      </trkpt>
      <trkpt lat="47.14448" lon="-2.1449">
        <ele>24.6</ele>
        <time>2020-06-05T11:24:19Z</time>
      </trkpt>
      <trkpt lat="47.14451" lon="-2.14494">
        <ele>24.6</ele>
        <time>2020-06-05T11:24:20Z</time>
      </trkpt>
      <trkpt lat="47.14452" lon="-2.14499">
        <ele>24.5</ele>
        <time>2020-06-05T11:24:21Z</time>
      </trkpt>
      <trkpt lat="47.14454" lon="-2.14504">
        <ele>24.4</ele>
        <time>2020-06-05T11:24:22Z</time>
      </trkpt>
      <trkpt lat="47.14456" lon="-2.14508">
        <ele>24.3</ele>
        <time>2020-06-05T11:24:23Z</time>
      </trkpt>
      <trkpt lat="47.14459" lon="-2.14512">
        <ele>24.2</ele>
        <time>2020-06-05T11:24:24Z</time>
      </trkpt>
      <trkpt lat="47.14461" lon="-2.14515">
        <ele>24.1</ele>
        <time>2020-06-05T11:24:25Z</time>
      </trkpt>
      <trkpt lat="47.14464" lon="-2.14519">
        <ele>24</ele>
        <time>2020-06-05T11:24:26Z</time>
      </trkpt>
      <trkpt lat="47.14465" lon="-2.1452">
        <ele>24</ele>
        <time>2020-06-05T11:24:27Z</time>
      </trkpt>
      <trkpt lat="47.14467" lon="-2.14524">
        <ele>24</ele>
        <time>2020-06-05T11:24:28Z</time>
      </trkpt>
      <trkpt lat="47.1447" lon="-2.14528">
        <ele>24</ele>
        <time>2020-06-05T11:24:29Z</time>
      </trkpt>
      <trkpt lat="47.14472" lon="-2.14532">
        <ele>24</ele>
        <time>2020-06-05T11:24:30Z</time>
      </trkpt>
      <trkpt lat="47.14475" lon="-2.14535">
        <ele>24</ele>
        <time>2020-06-05T11:24:31Z</time>
      </trkpt>
      <trkpt lat="47.14477" lon="-2.14538">
        <ele>24</ele>
        <time>2020-06-05T11:24:32Z</time>
      </trkpt>
      <trkpt lat="47.14479" lon="-2.1454">
        <ele>24</ele>
        <time>2020-06-05T11:24:33Z</time>
      </trkpt>
      <trkpt lat="47.14482" lon="-2.14542">
        <ele>23.9</ele>
        <time>2020-06-05T11:24:34Z</time>
      </trkpt>
      <trkpt lat="47.14486" lon="-2.14545">
        <ele>23.9</ele>
        <time>2020-06-05T11:24:35Z</time>
      </trkpt>
      <trkpt lat="47.14487" lon="-2.14547">
        <ele>23.8</ele>
        <time>2020-06-05T11:24:36Z</time>
      </trkpt>
      <trkpt lat="47.14491" lon="-2.14551">
        <ele>23.8</ele>
        <time>2020-06-05T11:24:37Z</time>
      </trkpt>
      <trkpt lat="47.14494" lon="-2.14553">
        <ele>23.7</ele>
        <time>2020-06-05T11:24:38Z</time>
      </trkpt>
      <trkpt lat="47.14497" lon="-2.14556">
        <ele>23.6</ele>
        <time>2020-06-05T11:24:39Z</time>
      </trkpt>
      <trkpt lat="47.145" lon="-2.14559">
        <ele>23.6</ele>
        <time>2020-06-05T11:24:40Z</time>
      </trkpt>
      <trkpt lat="47.14504" lon="-2.14561">
        <ele>23.5</ele>
        <time>2020-06-05T11:24:41Z</time>
      </trkpt>
      <trkpt lat="47.14507" lon="-2.14564">
        <ele>23.4</ele>
        <time>2020-06-05T11:24:42Z</time>
      </trkpt>
      <trkpt lat="47.1451" lon="-2.14567">
        <ele>23.3</ele>
        <time>2020-06-05T11:24:43Z</time>
      </trkpt>
      <trkpt lat="47.14513" lon="-2.1457">
        <ele>23.2</ele>
        <time>2020-06-05T11:24:44Z</time>
      </trkpt>
      <trkpt lat="47.14517" lon="-2.14572">
        <ele>23.1</ele>
        <time>2020-06-05T11:24:45Z</time>
      </trkpt>
      <trkpt lat="47.14521" lon="-2.14574">
        <ele>23</ele>
        <time>2020-06-05T11:24:46Z</time>
      </trkpt>
      <trkpt lat="47.14524" lon="-2.14576">
        <ele>22.9</ele>
        <time>2020-06-05T11:24:47Z</time>
      </trkpt>
      <trkpt lat="47.14528" lon="-2.14579">
        <ele>22.7</ele>
        <time>2020-06-05T11:24:48Z</time>
      </trkpt>
      <trkpt lat="47.14532" lon="-2.1458">
        <ele>22.6</ele>
        <time>2020-06-05T11:24:49Z</time>
      </trkpt>
      <trkpt lat="47.14536" lon="-2.14582">
        <ele>22.5</ele>
        <time>2020-06-05T11:24:50Z</time>
      </trkpt>
      <trkpt lat="47.1454" lon="-2.14584">
        <ele>22.4</ele>
        <time>2020-06-05T11:24:51Z</time>
      </trkpt>
      <trkpt lat="47.14543" lon="-2.14586">
        <ele>22.3</ele>
        <time>2020-06-05T11:24:52Z</time>
      </trkpt>
      <trkpt lat="47.14546" lon="-2.14588">
        <ele>22.3</ele>
        <time>2020-06-05T11:24:53Z</time>
      </trkpt>
      <trkpt lat="47.14548" lon="-2.14591">
        <ele>22.2</ele>
        <time>2020-06-05T11:24:54Z</time>
      </trkpt>
      <trkpt lat="47.14551" lon="-2.14593">
        <ele>22.1</ele>
        <time>2020-06-05T11:24:55Z</time>
      </trkpt>
      <trkpt lat="47.14554" lon="-2.14595">
        <ele>22</ele>
        <time>2020-06-05T11:24:56Z</time>
      </trkpt>
      <trkpt lat="47.14557" lon="-2.14596">
        <ele>21.9</ele>
        <time>2020-06-05T11:24:57Z</time>
      </trkpt>
      <trkpt lat="47.14558" lon="-2.14597">
        <ele>21.8</ele>
        <time>2020-06-05T11:24:58Z</time>
      </trkpt>
      <trkpt lat="47.14559" lon="-2.14596">
        <ele>21.8</ele>
        <time>2020-06-05T11:24:59Z</time>
      </trkpt>
      <trkpt lat="47.14558" lon="-2.14595">
        <ele>21.8</ele>
        <time>2020-06-05T11:25:00Z</time>
      </trkpt>
      <trkpt lat="47.14558" lon="-2.14595">
        <ele>21.8</ele>
        <time>2020-06-05T11:25:01Z</time>
      </trkpt>
      <trkpt lat="47.14559" lon="-2.14595">
        <ele>21.8</ele>
        <time>2020-06-05T11:25:02Z</time>
      </trkpt>
      <trkpt lat="47.14559" lon="-2.14596">
        <ele>21.7</ele>
        <time>2020-06-05T11:25:03Z</time>
      </trkpt>
      <trkpt lat="47.14559" lon="-2.14597">
        <ele>21.7</ele>
        <time>2020-06-05T11:25:04Z</time>
      </trkpt>
      <trkpt lat="47.14559" lon="-2.14597">
        <ele>21.7</ele>
        <time>2020-06-05T11:25:05Z</time>
      </trkpt>
      <trkpt lat="47.14559" lon="-2.14597">
        <ele>21.7</ele>
        <time>2020-06-05T11:25:06Z</time>
      </trkpt>
      <trkpt lat="47.14559" lon="-2.14597">
        <ele>21.7</ele>
        <time>2020-06-05T11:25:07Z</time>
      </trkpt>
      <trkpt lat="47.14559" lon="-2.14597">
        <ele>21.7</ele>
        <time>2020-06-05T11:25:08Z</time>
      </trkpt>
      <trkpt lat="47.14559" lon="-2.14597">
        <ele>21.7</ele>
        <time>2020-06-05T11:25:09Z</time>
      </trkpt>
      <trkpt lat="47.14559" lon="-2.14597">
        <ele>21.7</ele>
        <time>2020-06-05T11:25:10Z</time>
      </trkpt>
      <trkpt lat="47.14559" lon="-2.14597">
        <ele>21.7</ele>
        <time>2020-06-05T11:25:11Z</time>
      </trkpt>
      <trkpt lat="47.14559" lon="-2.14597">
        <ele>21.7</ele>
        <time>2020-06-05T11:25:12Z</time>
      </trkpt>
      <trkpt lat="47.14559" lon="-2.14597">
        <ele>21.7</ele>
        <time>2020-06-05T11:25:13Z</time>
      </trkpt>
      <trkpt lat="47.14559" lon="-2.14597">
        <ele>21.7</ele>
        <time>2020-06-05T11:25:14Z</time>
      </trkpt>
      <trkpt lat="47.14568" lon="-2.14598">
        <ele>21</ele>
        <time>2020-06-05T11:25:46Z</time>
      </trkpt>
      <trkpt lat="47.14572" lon="-2.14599">
        <ele>20.9</ele>
        <time>2020-06-05T11:25:47Z</time>
      </trkpt>
      <trkpt lat="47.14576" lon="-2.14601">
        <ele>20.8</ele>
        <time>2020-06-05T11:25:48Z</time>
      </trkpt>
      <trkpt lat="47.14579" lon="-2.14604">
        <ele>20.7</ele>
        <time>2020-06-05T11:25:49Z</time>
      </trkpt>
      <trkpt lat="47.14583" lon="-2.14608">
        <ele>20.6</ele>
        <time>2020-06-05T11:25:50Z</time>
      </trkpt>
      <trkpt lat="47.14587" lon="-2.14613">
        <ele>20.5</ele>
        <time>2020-06-05T11:25:51Z</time>
      </trkpt>
      <trkpt lat="47.14591" lon="-2.14617">
        <ele>20.5</ele>
        <time>2020-06-05T11:25:52Z</time>
      </trkpt>
      <trkpt lat="47.14594" lon="-2.14622">
        <ele>20.5</ele>
        <time>2020-06-05T11:25:53Z</time>
      </trkpt>
      <trkpt lat="47.14597" lon="-2.14626">
        <ele>20.5</ele>
        <time>2020-06-05T11:25:54Z</time>
      </trkpt>
      <trkpt lat="47.14601" lon="-2.1463">
        <ele>20.4</ele>
        <time>2020-06-05T11:25:55Z</time>
      </trkpt>
      <trkpt lat="47.14604" lon="-2.14634">
        <ele>20.4</ele>
        <time>2020-06-05T11:25:56Z</time>
      </trkpt>
      <trkpt lat="47.14607" lon="-2.14638">
        <ele>20.4</ele>
        <time>2020-06-05T11:25:57Z</time>
      </trkpt>
      <trkpt lat="47.1461" lon="-2.14642">
        <ele>20.4</ele>
        <time>2020-06-05T11:25:58Z</time>
      </trkpt>
      <trkpt lat="47.14613" lon="-2.14645">
        <ele>20.4</ele>
        <time>2020-06-05T11:25:59Z</time>
      </trkpt>
      <trkpt lat="47.14617" lon="-2.14648">
        <ele>20.4</ele>
        <time>2020-06-05T11:26:00Z</time>
      </trkpt>
      <trkpt lat="47.14621" lon="-2.1465">
        <ele>20.4</ele>
        <time>2020-06-05T11:26:01Z</time>
      </trkpt>
      <trkpt lat="47.14624" lon="-2.14653">
        <ele>20.5</ele>
        <time>2020-06-05T11:26:02Z</time>
      </trkpt>
      <trkpt lat="47.14628" lon="-2.14655">
        <ele>20.5</ele>
        <time>2020-06-05T11:26:03Z</time>
      </trkpt>
      <trkpt lat="47.14631" lon="-2.14656">
        <ele>20.6</ele>
        <time>2020-06-05T11:26:04Z</time>
      </trkpt>
      <trkpt lat="47.14634" lon="-2.14657">
        <ele>20.6</ele>
        <time>2020-06-05T11:26:05Z</time>
      </trkpt>
      <trkpt lat="47.14637" lon="-2.14658">
        <ele>20.7</ele>
        <time>2020-06-05T11:26:06Z</time>
      </trkpt>
      <trkpt lat="47.1464" lon="-2.14661">
        <ele>20.7</ele>
        <time>2020-06-05T11:26:07Z</time>
      </trkpt>
      <trkpt lat="47.14641" lon="-2.14662">
        <ele>20.7</ele>
        <time>2020-06-05T11:26:08Z</time>
      </trkpt>
      <trkpt lat="47.14643" lon="-2.14667">
        <ele>20.7</ele>
        <time>2020-06-05T11:26:09Z</time>
      </trkpt>
      <trkpt lat="47.14645" lon="-2.14672">
        <ele>20.7</ele>
        <time>2020-06-05T11:26:10Z</time>
      </trkpt>
      <trkpt lat="47.14646" lon="-2.14678">
        <ele>20.7</ele>
        <time>2020-06-05T11:26:11Z</time>
      </trkpt>
      <trkpt lat="47.14647" lon="-2.14683">
        <ele>20.7</ele>
        <time>2020-06-05T11:26:12Z</time>
      </trkpt>
      <trkpt lat="47.14649" lon="-2.14688">
        <ele>20.7</ele>
        <time>2020-06-05T11:26:13Z</time>
      </trkpt>
      <trkpt lat="47.1465" lon="-2.14693">
        <ele>20.7</ele>
        <time>2020-06-05T11:26:14Z</time>
      </trkpt>
      <trkpt lat="47.14652" lon="-2.14699">
        <ele>20.7</ele>
        <time>2020-06-05T11:26:15Z</time>
      </trkpt>
      <trkpt lat="47.14655" lon="-2.14705">
        <ele>20.6</ele>
        <time>2020-06-05T11:26:16Z</time>
      </trkpt>
      <trkpt lat="47.14658" lon="-2.14712">
        <ele>20.6</ele>
        <time>2020-06-05T11:26:17Z</time>
      </trkpt>
      <trkpt lat="47.14661" lon="-2.14718">
        <ele>20.6</ele>
        <time>2020-06-05T11:26:18Z</time>
      </trkpt>
      <trkpt lat="47.14663" lon="-2.14724">
        <ele>20.5</ele>
        <time>2020-06-05T11:26:19Z</time>
      </trkpt>
      <trkpt lat="47.14665" lon="-2.1473">
        <ele>20.5</ele>
        <time>2020-06-05T11:26:20Z</time>
      </trkpt>
      <trkpt lat="47.14668" lon="-2.14736">
        <ele>20.4</ele>
        <time>2020-06-05T11:26:21Z</time>
      </trkpt>
      <trkpt lat="47.14671" lon="-2.14741">
        <ele>20.4</ele>
        <time>2020-06-05T11:26:22Z</time>
      </trkpt>
      <trkpt lat="47.14673" lon="-2.14749">
        <ele>20.4</ele>
        <time>2020-06-05T11:26:23Z</time>
      </trkpt>
      <trkpt lat="47.14676" lon="-2.14755">
        <ele>20.3</ele>
        <time>2020-06-05T11:26:24Z</time>
      </trkpt>
      <trkpt lat="47.14679" lon="-2.14762">
        <ele>20.3</ele>
        <time>2020-06-05T11:26:25Z</time>
      </trkpt>
      <trkpt lat="47.14682" lon="-2.14766">
        <ele>20.2</ele>
        <time>2020-06-05T11:26:26Z</time>
      </trkpt>
      <trkpt lat="47.14686" lon="-2.14774">
        <ele>20.2</ele>
        <time>2020-06-05T11:26:27Z</time>
      </trkpt>
      <trkpt lat="47.14689" lon="-2.14781">
        <ele>20.1</ele>
        <time>2020-06-05T11:26:28Z</time>
      </trkpt>
      <trkpt lat="47.14692" lon="-2.14789">
        <ele>20.1</ele>
        <time>2020-06-05T11:26:29Z</time>
      </trkpt>
      <trkpt lat="47.14695" lon="-2.14796">
        <ele>20.1</ele>
        <time>2020-06-05T11:26:30Z</time>
      </trkpt>
      <trkpt lat="47.14698" lon="-2.14803">
        <ele>20.1</ele>
        <time>2020-06-05T11:26:31Z</time>
      </trkpt>
      <trkpt lat="47.14701" lon="-2.14809">
        <ele>20.1</ele>
        <time>2020-06-05T11:26:32Z</time>
      </trkpt>
      <trkpt lat="47.14704" lon="-2.14815">
        <ele>20.1</ele>
        <time>2020-06-05T11:26:33Z</time>
      </trkpt>
      <trkpt lat="47.14707" lon="-2.1482">
        <ele>20.1</ele>
        <time>2020-06-05T11:26:34Z</time>
      </trkpt>
      <trkpt lat="47.1471" lon="-2.14824">
        <ele>20.2</ele>
        <time>2020-06-05T11:26:35Z</time>
      </trkpt>
      <trkpt lat="47.14714" lon="-2.14828">
        <ele>20.3</ele>
        <time>2020-06-05T11:26:36Z</time>
      </trkpt>
      <trkpt lat="47.14718" lon="-2.14829">
        <ele>20.3</ele>
        <time>2020-06-05T11:26:37Z</time>
      </trkpt>
      <trkpt lat="47.14724" lon="-2.1483">
        <ele>20.2</ele>
        <time>2020-06-05T11:26:38Z</time>
      </trkpt>
      <trkpt lat="47.14728" lon="-2.14832">
        <ele>20.1</ele>
        <time>2020-06-05T11:26:39Z</time>
      </trkpt>
      <trkpt lat="47.14732" lon="-2.14833">
        <ele>19.9</ele>
        <time>2020-06-05T11:26:40Z</time>
      </trkpt>
      <trkpt lat="47.14736" lon="-2.14834">
        <ele>19.8</ele>
        <time>2020-06-05T11:26:41Z</time>
      </trkpt>
      <trkpt lat="47.1474" lon="-2.14835">
        <ele>19.7</ele>
        <time>2020-06-05T11:26:42Z</time>
      </trkpt>
      <trkpt lat="47.14743" lon="-2.14837">
        <ele>19.6</ele>
        <time>2020-06-05T11:26:43Z</time>
      </trkpt>
      <trkpt lat="47.14747" lon="-2.14839">
        <ele>19.5</ele>
        <time>2020-06-05T11:26:44Z</time>
      </trkpt>
      <trkpt lat="47.14751" lon="-2.1484">
        <ele>19.5</ele>
        <time>2020-06-05T11:26:45Z</time>
      </trkpt>
      <trkpt lat="47.14754" lon="-2.14841">
        <ele>19.4</ele>
        <time>2020-06-05T11:26:46Z</time>
      </trkpt>
      <trkpt lat="47.14758" lon="-2.14842">
        <ele>19.3</ele>
        <time>2020-06-05T11:26:47Z</time>
      </trkpt>
      <trkpt lat="47.14762" lon="-2.14844">
        <ele>19.3</ele>
        <time>2020-06-05T11:26:48Z</time>
      </trkpt>
      <trkpt lat="47.14766" lon="-2.14845">
        <ele>19.2</ele>
        <time>2020-06-05T11:26:49Z</time>
      </trkpt>
      <trkpt lat="47.14771" lon="-2.14845">
        <ele>19.1</ele>
        <time>2020-06-05T11:26:50Z</time>
      </trkpt>
      <trkpt lat="47.14776" lon="-2.14847">
        <ele>19</ele>
        <time>2020-06-05T11:26:51Z</time>
      </trkpt>
      <trkpt lat="47.14781" lon="-2.14848">
        <ele>18.9</ele>
        <time>2020-06-05T11:26:52Z</time>
      </trkpt>
      <trkpt lat="47.14786" lon="-2.14849">
        <ele>18.7</ele>
        <time>2020-06-05T11:26:53Z</time>
      </trkpt>
      <trkpt lat="47.14791" lon="-2.14851">
        <ele>18.6</ele>
        <time>2020-06-05T11:26:54Z</time>
      </trkpt>
      <trkpt lat="47.14797" lon="-2.14851">
        <ele>18.5</ele>
        <time>2020-06-05T11:26:55Z</time>
      </trkpt>
      <trkpt lat="47.14802" lon="-2.14852">
        <ele>18.4</ele>
        <time>2020-06-05T11:26:56Z</time>
      </trkpt>
      <trkpt lat="47.14807" lon="-2.14854">
        <ele>18.3</ele>
        <time>2020-06-05T11:26:57Z</time>
      </trkpt>
      <trkpt lat="47.14813" lon="-2.14855">
        <ele>18.3</ele>
        <time>2020-06-05T11:26:58Z</time>
      </trkpt>
      <trkpt lat="47.14818" lon="-2.14855">
        <ele>18.2</ele>
        <time>2020-06-05T11:26:59Z</time>
      </trkpt>
      <trkpt lat="47.14823" lon="-2.14856">
        <ele>18.2</ele>
        <time>2020-06-05T11:27:00Z</time>
      </trkpt>
      <trkpt lat="47.14829" lon="-2.14856">
        <ele>18.1</ele>
        <time>2020-06-05T11:27:01Z</time>
      </trkpt>
      <trkpt lat="47.14834" lon="-2.14857">
        <ele>18</ele>
        <time>2020-06-05T11:27:02Z</time>
      </trkpt>
      <trkpt lat="47.14839" lon="-2.14858">
        <ele>18</ele>
        <time>2020-06-05T11:27:03Z</time>
      </trkpt>
      <trkpt lat="47.14844" lon="-2.14859">
        <ele>17.9</ele>
        <time>2020-06-05T11:27:04Z</time>
      </trkpt>
      <trkpt lat="47.1485" lon="-2.14859">
        <ele>17.8</ele>
        <time>2020-06-05T11:27:05Z</time>
      </trkpt>
      <trkpt lat="47.14855" lon="-2.1486">
        <ele>17.8</ele>
        <time>2020-06-05T11:27:06Z</time>
      </trkpt>
      <trkpt lat="47.1486" lon="-2.1486">
        <ele>17.7</ele>
        <time>2020-06-05T11:27:07Z</time>
      </trkpt>
      <trkpt lat="47.14866" lon="-2.14861">
        <ele>17.6</ele>
        <time>2020-06-05T11:27:08Z</time>
      </trkpt>
      <trkpt lat="47.14871" lon="-2.14862">
        <ele>17.5</ele>
        <time>2020-06-05T11:27:09Z</time>
      </trkpt>
      <trkpt lat="47.14876" lon="-2.14862">
        <ele>17.5</ele>
        <time>2020-06-05T11:27:10Z</time>
      </trkpt>
      <trkpt lat="47.14882" lon="-2.14862">
        <ele>17.4</ele>
        <time>2020-06-05T11:27:11Z</time>
      </trkpt>
      <trkpt lat="47.14888" lon="-2.14861">
        <ele>17.2</ele>
        <time>2020-06-05T11:27:12Z</time>
      </trkpt>
      <trkpt lat="47.14894" lon="-2.14861">
        <ele>17.1</ele>
        <time>2020-06-05T11:27:13Z</time>
      </trkpt>
      <trkpt lat="47.149" lon="-2.14861">
        <ele>17</ele>
        <time>2020-06-05T11:27:14Z</time>
      </trkpt>
      <trkpt lat="47.14906" lon="-2.14861">
        <ele>16.9</ele>
        <time>2020-06-05T11:27:15Z</time>
      </trkpt>
      <trkpt lat="47.14912" lon="-2.14862">
        <ele>16.8</ele>
        <time>2020-06-05T11:27:16Z</time>
      </trkpt>
      <trkpt lat="47.14918" lon="-2.14861">
        <ele>16.7</ele>
        <time>2020-06-05T11:27:17Z</time>
      </trkpt>
      <trkpt lat="47.14924" lon="-2.14862">
        <ele>16.6</ele>
        <time>2020-06-05T11:27:18Z</time>
      </trkpt>
      <trkpt lat="47.1493" lon="-2.14862">
        <ele>16.5</ele>
        <time>2020-06-05T11:27:19Z</time>
      </trkpt>
      <trkpt lat="47.14935" lon="-2.14862">
        <ele>16.4</ele>
        <time>2020-06-05T11:27:20Z</time>
      </trkpt>
      <trkpt lat="47.14941" lon="-2.14862">
        <ele>16.4</ele>
        <time>2020-06-05T11:27:21Z</time>
      </trkpt>
      <trkpt lat="47.14947" lon="-2.14863">
        <ele>16.3</ele>
        <time>2020-06-05T11:27:22Z</time>
      </trkpt>
      <trkpt lat="47.14952" lon="-2.14863">
        <ele>16.3</ele>
        <time>2020-06-05T11:27:23Z</time>
      </trkpt>
      <trkpt lat="47.14958" lon="-2.14862">
        <ele>16.3</ele>
        <time>2020-06-05T11:27:24Z</time>
      </trkpt>
      <trkpt lat="47.14964" lon="-2.14863">
        <ele>16.3</ele>
        <time>2020-06-05T11:27:25Z</time>
      </trkpt>
      <trkpt lat="47.14969" lon="-2.14863">
        <ele>16.2</ele>
        <time>2020-06-05T11:27:26Z</time>
      </trkpt>
      <trkpt lat="47.14974" lon="-2.14863">
        <ele>16.2</ele>
        <time>2020-06-05T11:27:27Z</time>
      </trkpt>
      <trkpt lat="47.1498" lon="-2.14865">
        <ele>16.2</ele>
        <time>2020-06-05T11:27:28Z</time>
      </trkpt>
      <trkpt lat="47.14985" lon="-2.14865">
        <ele>16.1</ele>
        <time>2020-06-05T11:27:29Z</time>
      </trkpt>
      <trkpt lat="47.1499" lon="-2.14865">
        <ele>16.1</ele>
        <time>2020-06-05T11:27:30Z</time>
      </trkpt>
      <trkpt lat="47.14995" lon="-2.14865">
        <ele>16</ele>
        <time>2020-06-05T11:27:31Z</time>
      </trkpt>
      <trkpt lat="47.15001" lon="-2.14865">
        <ele>16</ele>
        <time>2020-06-05T11:27:32Z</time>
      </trkpt>
      <trkpt lat="47.15006" lon="-2.14865">
        <ele>16</ele>
        <time>2020-06-05T11:27:33Z</time>
      </trkpt>
      <trkpt lat="47.15012" lon="-2.14865">
        <ele>15.9</ele>
        <time>2020-06-05T11:27:34Z</time>
      </trkpt>
      <trkpt lat="47.15017" lon="-2.14865">
        <ele>15.9</ele>
        <time>2020-06-05T11:27:35Z</time>
      </trkpt>
      <trkpt lat="47.15022" lon="-2.14865">
        <ele>15.9</ele>
        <time>2020-06-05T11:27:36Z</time>
      </trkpt>
      <trkpt lat="47.15027" lon="-2.14865">
        <ele>15.9</ele>
        <time>2020-06-05T11:27:37Z</time>
      </trkpt>
      <trkpt lat="47.15033" lon="-2.14865">
        <ele>15.8</ele>
        <time>2020-06-05T11:27:38Z</time>
      </trkpt>
      <trkpt lat="47.15038" lon="-2.14864">
        <ele>15.8</ele>
        <time>2020-06-05T11:27:39Z</time>
      </trkpt>
      <trkpt lat="47.15044" lon="-2.14863">
        <ele>15.7</ele>
        <time>2020-06-05T11:27:40Z</time>
      </trkpt>
      <trkpt lat="47.15049" lon="-2.14862">
        <ele>15.7</ele>
        <time>2020-06-05T11:27:41Z</time>
      </trkpt>
      <trkpt lat="47.15055" lon="-2.14861">
        <ele>15.6</ele>
        <time>2020-06-05T11:27:42Z</time>
      </trkpt>
      <trkpt lat="47.1506" lon="-2.1486">
        <ele>15.6</ele>
        <time>2020-06-05T11:27:43Z</time>
      </trkpt>
      <trkpt lat="47.15066" lon="-2.14859">
        <ele>15.5</ele>
        <time>2020-06-05T11:27:44Z</time>
      </trkpt>
      <trkpt lat="47.15072" lon="-2.14858">
        <ele>15.4</ele>
        <time>2020-06-05T11:27:45Z</time>
      </trkpt>
      <trkpt lat="47.15078" lon="-2.14856">
        <ele>15.4</ele>
        <time>2020-06-05T11:27:46Z</time>
      </trkpt>
      <trkpt lat="47.15084" lon="-2.14854">
        <ele>15.3</ele>
        <time>2020-06-05T11:27:47Z</time>
      </trkpt>
      <trkpt lat="47.1509" lon="-2.14852">
        <ele>15.2</ele>
        <time>2020-06-05T11:27:48Z</time>
      </trkpt>
      <trkpt lat="47.15096" lon="-2.14851">
        <ele>15.1</ele>
        <time>2020-06-05T11:27:49Z</time>
      </trkpt>
      <trkpt lat="47.15101" lon="-2.14851">
        <ele>15</ele>
        <time>2020-06-05T11:27:50Z</time>
      </trkpt>
      <trkpt lat="47.15107" lon="-2.1485">
        <ele>14.8</ele>
        <time>2020-06-05T11:27:51Z</time>
      </trkpt>
      <trkpt lat="47.15112" lon="-2.14848">
        <ele>14.7</ele>
        <time>2020-06-05T11:27:52Z</time>
      </trkpt>
      <trkpt lat="47.15118" lon="-2.14846">
        <ele>14.5</ele>
        <time>2020-06-05T11:27:53Z</time>
      </trkpt>
      <trkpt lat="47.15124" lon="-2.14845">
        <ele>14.3</ele>
        <time>2020-06-05T11:27:54Z</time>
      </trkpt>
      <trkpt lat="47.1513" lon="-2.14843">
        <ele>14.1</ele>
        <time>2020-06-05T11:27:55Z</time>
      </trkpt>
      <trkpt lat="47.15136" lon="-2.14841">
        <ele>13.9</ele>
        <time>2020-06-05T11:27:56Z</time>
      </trkpt>
      <trkpt lat="47.15142" lon="-2.14839">
        <ele>13.7</ele>
        <time>2020-06-05T11:27:57Z</time>
      </trkpt>
      <trkpt lat="47.15148" lon="-2.14838">
        <ele>13.5</ele>
        <time>2020-06-05T11:27:58Z</time>
      </trkpt>
      <trkpt lat="47.15154" lon="-2.14837">
        <ele>13.3</ele>
        <time>2020-06-05T11:27:59Z</time>
      </trkpt>
      <trkpt lat="47.1516" lon="-2.14835">
        <ele>13</ele>
        <time>2020-06-05T11:28:00Z</time>
      </trkpt>
      <trkpt lat="47.15166" lon="-2.14833">
        <ele>12.7</ele>
        <time>2020-06-05T11:28:01Z</time>
      </trkpt>
      <trkpt lat="47.15173" lon="-2.14832">
        <ele>12.5</ele>
        <time>2020-06-05T11:28:02Z</time>
      </trkpt>
      <trkpt lat="47.15179" lon="-2.14829">
        <ele>12.3</ele>
        <time>2020-06-05T11:28:03Z</time>
      </trkpt>
      <trkpt lat="47.15186" lon="-2.14828">
        <ele>12.1</ele>
        <time>2020-06-05T11:28:04Z</time>
      </trkpt>
      <trkpt lat="47.15192" lon="-2.14826">
        <ele>11.9</ele>
        <time>2020-06-05T11:28:05Z</time>
      </trkpt>
      <trkpt lat="47.15198" lon="-2.14825">
        <ele>11.8</ele>
        <time>2020-06-05T11:28:06Z</time>
      </trkpt>
      <trkpt lat="47.15205" lon="-2.14823">
        <ele>11.7</ele>
        <time>2020-06-05T11:28:07Z</time>
      </trkpt>
      <trkpt lat="47.15211" lon="-2.14822">
        <ele>11.7</ele>
        <time>2020-06-05T11:28:08Z</time>
      </trkpt>
      <trkpt lat="47.15217" lon="-2.1482">
        <ele>11.7</ele>
        <time>2020-06-05T11:28:09Z</time>
      </trkpt>
      <trkpt lat="47.15223" lon="-2.14817">
        <ele>11.7</ele>
        <time>2020-06-05T11:28:10Z</time>
      </trkpt>
      <trkpt lat="47.15229" lon="-2.14815">
        <ele>11.7</ele>
        <time>2020-06-05T11:28:11Z</time>
      </trkpt>
      <trkpt lat="47.15236" lon="-2.14813">
        <ele>11.7</ele>
        <time>2020-06-05T11:28:12Z</time>
      </trkpt>
      <trkpt lat="47.15242" lon="-2.14811">
        <ele>11.8</ele>
        <time>2020-06-05T11:28:13Z</time>
      </trkpt>
      <trkpt lat="47.15248" lon="-2.14808">
        <ele>11.8</ele>
        <time>2020-06-05T11:28:14Z</time>
      </trkpt>
      <trkpt lat="47.15254" lon="-2.14805">
        <ele>11.9</ele>
        <time>2020-06-05T11:28:15Z</time>
      </trkpt>
      <trkpt lat="47.15259" lon="-2.14803">
        <ele>12.1</ele>
        <time>2020-06-05T11:28:16Z</time>
      </trkpt>
      <trkpt lat="47.15266" lon="-2.14803">
        <ele>12.3</ele>
        <time>2020-06-05T11:28:17Z</time>
      </trkpt>
      <trkpt lat="47.15272" lon="-2.14803">
        <ele>12.6</ele>
        <time>2020-06-05T11:28:18Z</time>
      </trkpt>
      <trkpt lat="47.15278" lon="-2.14803">
        <ele>12.9</ele>
        <time>2020-06-05T11:28:19Z</time>
      </trkpt>
      <trkpt lat="47.15283" lon="-2.14803">
        <ele>13.1</ele>
        <time>2020-06-05T11:28:20Z</time>
      </trkpt>
      <trkpt lat="47.15289" lon="-2.14803">
        <ele>13.3</ele>
        <time>2020-06-05T11:28:21Z</time>
      </trkpt>
      <trkpt lat="47.15292" lon="-2.14804">
        <ele>13.6</ele>
        <time>2020-06-05T11:28:22Z</time>
      </trkpt>
      <trkpt lat="47.15297" lon="-2.14805">
        <ele>13.9</ele>
        <time>2020-06-05T11:28:23Z</time>
      </trkpt>
      <trkpt lat="47.15301" lon="-2.14806">
        <ele>14.1</ele>
        <time>2020-06-05T11:28:24Z</time>
      </trkpt>
      <trkpt lat="47.15305" lon="-2.14807">
        <ele>14.3</ele>
        <time>2020-06-05T11:28:25Z</time>
      </trkpt>
      <trkpt lat="47.15309" lon="-2.14809">
        <ele>14.5</ele>
        <time>2020-06-05T11:28:26Z</time>
      </trkpt>
      <trkpt lat="47.15313" lon="-2.14811">
        <ele>14.7</ele>
        <time>2020-06-05T11:28:27Z</time>
      </trkpt>
      <trkpt lat="47.15318" lon="-2.14812">
        <ele>14.9</ele>
        <time>2020-06-05T11:28:28Z</time>
      </trkpt>
      <trkpt lat="47.15322" lon="-2.14814">
        <ele>15.1</ele>
        <time>2020-06-05T11:28:29Z</time>
      </trkpt>
      <trkpt lat="47.15325" lon="-2.14815">
        <ele>15.2</ele>
        <time>2020-06-05T11:28:30Z</time>
      </trkpt>
      <trkpt lat="47.15329" lon="-2.14816">
        <ele>15.4</ele>
        <time>2020-06-05T11:28:31Z</time>
      </trkpt>
      <trkpt lat="47.15333" lon="-2.14817">
        <ele>15.5</ele>
        <time>2020-06-05T11:28:32Z</time>
      </trkpt>
      <trkpt lat="47.15337" lon="-2.14818">
        <ele>15.7</ele>
        <time>2020-06-05T11:28:33Z</time>
      </trkpt>
      <trkpt lat="47.15341" lon="-2.14819">
        <ele>15.8</ele>
        <time>2020-06-05T11:28:34Z</time>
      </trkpt>
      <trkpt lat="47.15346" lon="-2.14819">
        <ele>16</ele>
        <time>2020-06-05T11:28:35Z</time>
      </trkpt>
      <trkpt lat="47.1535" lon="-2.1482">
        <ele>16.2</ele>
        <time>2020-06-05T11:28:36Z</time>
      </trkpt>
      <trkpt lat="47.15354" lon="-2.14821">
        <ele>16.3</ele>
        <time>2020-06-05T11:28:37Z</time>
      </trkpt>
      <trkpt lat="47.15358" lon="-2.14823">
        <ele>16.5</ele>
        <time>2020-06-05T11:28:38Z</time>
      </trkpt>
      <trkpt lat="47.15362" lon="-2.14824">
        <ele>16.6</ele>
        <time>2020-06-05T11:28:39Z</time>
      </trkpt>
      <trkpt lat="47.15366" lon="-2.14826">
        <ele>16.8</ele>
        <time>2020-06-05T11:28:40Z</time>
      </trkpt>
      <trkpt lat="47.1537" lon="-2.14827">
        <ele>16.9</ele>
        <time>2020-06-05T11:28:41Z</time>
      </trkpt>
      <trkpt lat="47.15372" lon="-2.14828">
        <ele>17</ele>
        <time>2020-06-05T11:28:42Z</time>
      </trkpt>
      <trkpt lat="47.15376" lon="-2.1483">
        <ele>17.2</ele>
        <time>2020-06-05T11:28:43Z</time>
      </trkpt>
      <trkpt lat="47.1538" lon="-2.1483">
        <ele>17.3</ele>
        <time>2020-06-05T11:28:44Z</time>
      </trkpt>
      <trkpt lat="47.15384" lon="-2.1483">
        <ele>17.4</ele>
        <time>2020-06-05T11:28:45Z</time>
      </trkpt>
      <trkpt lat="47.15388" lon="-2.1483">
        <ele>17.5</ele>
        <time>2020-06-05T11:28:46Z</time>
      </trkpt>
      <trkpt lat="47.15393" lon="-2.14831">
        <ele>17.7</ele>
        <time>2020-06-05T11:28:47Z</time>
      </trkpt>
      <trkpt lat="47.15395" lon="-2.14831">
        <ele>17.7</ele>
        <time>2020-06-05T11:28:48Z</time>
      </trkpt>
      <trkpt lat="47.15399" lon="-2.14831">
        <ele>17.9</ele>
        <time>2020-06-05T11:28:49Z</time>
      </trkpt>
      <trkpt lat="47.15403" lon="-2.1483">
        <ele>18</ele>
        <time>2020-06-05T11:28:50Z</time>
      </trkpt>
      <trkpt lat="47.15407" lon="-2.1483">
        <ele>18.1</ele>
        <time>2020-06-05T11:28:51Z</time>
      </trkpt>
      <trkpt lat="47.15412" lon="-2.14829">
        <ele>18.2</ele>
        <time>2020-06-05T11:28:52Z</time>
      </trkpt>
      <trkpt lat="47.15416" lon="-2.14829">
        <ele>18.3</ele>
        <time>2020-06-05T11:28:53Z</time>
      </trkpt>
      <trkpt lat="47.1542" lon="-2.1483">
        <ele>18.4</ele>
        <time>2020-06-05T11:28:54Z</time>
      </trkpt>
      <trkpt lat="47.15425" lon="-2.14829">
        <ele>18.4</ele>
        <time>2020-06-05T11:28:55Z</time>
      </trkpt>
      <trkpt lat="47.1543" lon="-2.14828">
        <ele>18.5</ele>
        <time>2020-06-05T11:28:56Z</time>
      </trkpt>
      <trkpt lat="47.15434" lon="-2.14827">
        <ele>18.5</ele>
        <time>2020-06-05T11:28:57Z</time>
      </trkpt>
      <trkpt lat="47.15438" lon="-2.14825">
        <ele>18.6</ele>
        <time>2020-06-05T11:28:58Z</time>
      </trkpt>
      <trkpt lat="47.15442" lon="-2.14823">
        <ele>18.7</ele>
        <time>2020-06-05T11:28:59Z</time>
      </trkpt>
      <trkpt lat="47.15447" lon="-2.14821">
        <ele>18.8</ele>
        <time>2020-06-05T11:29:00Z</time>
      </trkpt>
      <trkpt lat="47.15451" lon="-2.14819">
        <ele>18.9</ele>
        <time>2020-06-05T11:29:01Z</time>
      </trkpt>
      <trkpt lat="47.15456" lon="-2.14816">
        <ele>19</ele>
        <time>2020-06-05T11:29:02Z</time>
      </trkpt>
      <trkpt lat="47.15461" lon="-2.14813">
        <ele>19.2</ele>
        <time>2020-06-05T11:29:03Z</time>
      </trkpt>
      <trkpt lat="47.15464" lon="-2.14811">
        <ele>19.3</ele>
        <time>2020-06-05T11:29:04Z</time>
      </trkpt>
      <trkpt lat="47.15468" lon="-2.14808">
        <ele>19.4</ele>
        <time>2020-06-05T11:29:05Z</time>
      </trkpt>
      <trkpt lat="47.15471" lon="-2.14805">
        <ele>19.5</ele>
        <time>2020-06-05T11:29:06Z</time>
      </trkpt>
      <trkpt lat="47.15475" lon="-2.14802">
        <ele>19.7</ele>
        <time>2020-06-05T11:29:07Z</time>
      </trkpt>
      <trkpt lat="47.15479" lon="-2.14797">
        <ele>19.8</ele>
        <time>2020-06-05T11:29:08Z</time>
      </trkpt>
      <trkpt lat="47.15482" lon="-2.14794">
        <ele>19.9</ele>
        <time>2020-06-05T11:29:09Z</time>
      </trkpt>
      <trkpt lat="47.15486" lon="-2.1479">
        <ele>20.1</ele>
        <time>2020-06-05T11:29:10Z</time>
      </trkpt>
      <trkpt lat="47.1549" lon="-2.14786">
        <ele>20.2</ele>
        <time>2020-06-05T11:29:11Z</time>
      </trkpt>
      <trkpt lat="47.15493" lon="-2.14781">
        <ele>20.4</ele>
        <time>2020-06-05T11:29:12Z</time>
      </trkpt>
      <trkpt lat="47.15496" lon="-2.14777">
        <ele>20.5</ele>
        <time>2020-06-05T11:29:13Z</time>
      </trkpt>
      <trkpt lat="47.15499" lon="-2.14773">
        <ele>20.6</ele>
        <time>2020-06-05T11:29:14Z</time>
      </trkpt>
      <trkpt lat="47.15502" lon="-2.14769">
        <ele>20.6</ele>
        <time>2020-06-05T11:29:15Z</time>
      </trkpt>
      <trkpt lat="47.15506" lon="-2.14764">
        <ele>20.7</ele>
        <time>2020-06-05T11:29:16Z</time>
      </trkpt>
      <trkpt lat="47.1551" lon="-2.1476">
        <ele>20.8</ele>
        <time>2020-06-05T11:29:17Z</time>
      </trkpt>
      <trkpt lat="47.15513" lon="-2.14756">
        <ele>20.8</ele>
        <time>2020-06-05T11:29:18Z</time>
      </trkpt>
      <trkpt lat="47.15516" lon="-2.14753">
        <ele>21</ele>
        <time>2020-06-05T11:29:19Z</time>
      </trkpt>
      <trkpt lat="47.1552" lon="-2.14748">
        <ele>21.1</ele>
        <time>2020-06-05T11:29:20Z</time>
      </trkpt>
      <trkpt lat="47.15523" lon="-2.14744">
        <ele>21.2</ele>
        <time>2020-06-05T11:29:21Z</time>
      </trkpt>
      <trkpt lat="47.15526" lon="-2.1474">
        <ele>21.3</ele>
        <time>2020-06-05T11:29:22Z</time>
      </trkpt>
      <trkpt lat="47.15529" lon="-2.14736">
        <ele>21.4</ele>
        <time>2020-06-05T11:29:23Z</time>
      </trkpt>
      <trkpt lat="47.15532" lon="-2.14732">
        <ele>21.5</ele>
        <time>2020-06-05T11:29:24Z</time>
      </trkpt>
      <trkpt lat="47.15535" lon="-2.14728">
        <ele>21.6</ele>
        <time>2020-06-05T11:29:25Z</time>
      </trkpt>
      <trkpt lat="47.15539" lon="-2.14724">
        <ele>21.7</ele>
        <time>2020-06-05T11:29:26Z</time>
      </trkpt>
      <trkpt lat="47.15542" lon="-2.1472">
        <ele>21.8</ele>
        <time>2020-06-05T11:29:27Z</time>
      </trkpt>
      <trkpt lat="47.15546" lon="-2.14717">
        <ele>21.9</ele>
        <time>2020-06-05T11:29:28Z</time>
      </trkpt>
      <trkpt lat="47.15547" lon="-2.14715">
        <ele>21.9</ele>
        <time>2020-06-05T11:29:29Z</time>
      </trkpt>
      <trkpt lat="47.15551" lon="-2.14711">
        <ele>22.1</ele>
        <time>2020-06-05T11:29:30Z</time>
      </trkpt>
      <trkpt lat="47.15554" lon="-2.14707">
        <ele>22.2</ele>
        <time>2020-06-05T11:29:31Z</time>
      </trkpt>
      <trkpt lat="47.15558" lon="-2.14703">
        <ele>22.4</ele>
        <time>2020-06-05T11:29:32Z</time>
      </trkpt>
      <trkpt lat="47.15562" lon="-2.14698">
        <ele>22.5</ele>
        <time>2020-06-05T11:29:33Z</time>
      </trkpt>
      <trkpt lat="47.15566" lon="-2.14694">
        <ele>22.7</ele>
        <time>2020-06-05T11:29:34Z</time>
      </trkpt>
      <trkpt lat="47.15569" lon="-2.1469">
        <ele>22.8</ele>
        <time>2020-06-05T11:29:35Z</time>
      </trkpt>
      <trkpt lat="47.15573" lon="-2.14686">
        <ele>22.9</ele>
        <time>2020-06-05T11:29:36Z</time>
      </trkpt>
      <trkpt lat="47.15576" lon="-2.14683">
        <ele>23.1</ele>
        <time>2020-06-05T11:29:37Z</time>
      </trkpt>
      <trkpt lat="47.15579" lon="-2.14679">
        <ele>23.2</ele>
        <time>2020-06-05T11:29:38Z</time>
      </trkpt>
      <trkpt lat="47.15581" lon="-2.14677">
        <ele>23.3</ele>
        <time>2020-06-05T11:29:39Z</time>
      </trkpt>
      <trkpt lat="47.15584" lon="-2.14674">
        <ele>23.4</ele>
        <time>2020-06-05T11:29:40Z</time>
      </trkpt>
      <trkpt lat="47.15587" lon="-2.14671">
        <ele>23.5</ele>
        <time>2020-06-05T11:29:41Z</time>
      </trkpt>
      <trkpt lat="47.1559" lon="-2.14668">
        <ele>23.6</ele>
        <time>2020-06-05T11:29:42Z</time>
      </trkpt>
      <trkpt lat="47.15593" lon="-2.14665">
        <ele>23.7</ele>
        <time>2020-06-05T11:29:43Z</time>
      </trkpt>
      <trkpt lat="47.15597" lon="-2.14661">
        <ele>23.9</ele>
        <time>2020-06-05T11:29:44Z</time>
      </trkpt>
      <trkpt lat="47.156" lon="-2.14658">
        <ele>24</ele>
        <time>2020-06-05T11:29:45Z</time>
      </trkpt>
      <trkpt lat="47.15604" lon="-2.14654">
        <ele>24.1</ele>
        <time>2020-06-05T11:29:46Z</time>
      </trkpt>
      <trkpt lat="47.15607" lon="-2.14652">
        <ele>24.2</ele>
        <time>2020-06-05T11:29:47Z</time>
      </trkpt>
      <trkpt lat="47.1561" lon="-2.14648">
        <ele>24.4</ele>
        <time>2020-06-05T11:29:48Z</time>
      </trkpt>
      <trkpt lat="47.15613" lon="-2.14645">
        <ele>24.5</ele>
        <time>2020-06-05T11:29:49Z</time>
      </trkpt>
      <trkpt lat="47.15617" lon="-2.14642">
        <ele>24.6</ele>
        <time>2020-06-05T11:29:50Z</time>
      </trkpt>
      <trkpt lat="47.1562" lon="-2.14638">
        <ele>24.7</ele>
        <time>2020-06-05T11:29:51Z</time>
      </trkpt>
      <trkpt lat="47.15624" lon="-2.14634">
        <ele>24.9</ele>
        <time>2020-06-05T11:29:52Z</time>
      </trkpt>
      <trkpt lat="47.15627" lon="-2.14632">
        <ele>25</ele>
        <time>2020-06-05T11:29:53Z</time>
      </trkpt>
      <trkpt lat="47.15631" lon="-2.14629">
        <ele>25.1</ele>
        <time>2020-06-05T11:29:54Z</time>
      </trkpt>
      <trkpt lat="47.15634" lon="-2.14626">
        <ele>25.3</ele>
        <time>2020-06-05T11:29:55Z</time>
      </trkpt>
      <trkpt lat="47.15637" lon="-2.14623">
        <ele>25.4</ele>
        <time>2020-06-05T11:29:56Z</time>
      </trkpt>
      <trkpt lat="47.1564" lon="-2.14621">
        <ele>25.5</ele>
        <time>2020-06-05T11:29:57Z</time>
      </trkpt>
      <trkpt lat="47.15644" lon="-2.14618">
        <ele>25.6</ele>
        <time>2020-06-05T11:29:58Z</time>
      </trkpt>
      <trkpt lat="47.15647" lon="-2.14615">
        <ele>25.7</ele>
        <time>2020-06-05T11:29:59Z</time>
      </trkpt>
      <trkpt lat="47.1565" lon="-2.14611">
        <ele>25.8</ele>
        <time>2020-06-05T11:30:00Z</time>
      </trkpt>
      <trkpt lat="47.15654" lon="-2.14608">
        <ele>25.9</ele>
        <time>2020-06-05T11:30:01Z</time>
      </trkpt>
      <trkpt lat="47.15658" lon="-2.14605">
        <ele>26</ele>
        <time>2020-06-05T11:30:02Z</time>
      </trkpt>
      <trkpt lat="47.15661" lon="-2.14602">
        <ele>26.1</ele>
        <time>2020-06-05T11:30:03Z</time>
      </trkpt>
      <trkpt lat="47.15664" lon="-2.14599">
        <ele>26.1</ele>
        <time>2020-06-05T11:30:04Z</time>
      </trkpt>
      <trkpt lat="47.15667" lon="-2.14597">
        <ele>26.2</ele>
        <time>2020-06-05T11:30:05Z</time>
      </trkpt>
      <trkpt lat="47.15671" lon="-2.14596">
        <ele>26.2</ele>
        <time>2020-06-05T11:30:06Z</time>
      </trkpt>
      <trkpt lat="47.15674" lon="-2.14593">
        <ele>26.3</ele>
        <time>2020-06-05T11:30:07Z</time>
      </trkpt>
      <trkpt lat="47.15677" lon="-2.14591">
        <ele>26.3</ele>
        <time>2020-06-05T11:30:08Z</time>
      </trkpt>
      <trkpt lat="47.15681" lon="-2.14589">
        <ele>26.4</ele>
        <time>2020-06-05T11:30:09Z</time>
      </trkpt>
      <trkpt lat="47.15685" lon="-2.14587">
        <ele>26.5</ele>
        <time>2020-06-05T11:30:10Z</time>
      </trkpt>
      <trkpt lat="47.15689" lon="-2.14586">
        <ele>26.6</ele>
        <time>2020-06-05T11:30:11Z</time>
      </trkpt>
      <trkpt lat="47.15693" lon="-2.14584">
        <ele>26.6</ele>
        <time>2020-06-05T11:30:12Z</time>
      </trkpt>
      <trkpt lat="47.15697" lon="-2.14582">
        <ele>26.7</ele>
        <time>2020-06-05T11:30:13Z</time>
      </trkpt>
      <trkpt lat="47.15701" lon="-2.1458">
        <ele>26.8</ele>
        <time>2020-06-05T11:30:14Z</time>
      </trkpt>
      <trkpt lat="47.15705" lon="-2.14579">
        <ele>26.8</ele>
        <time>2020-06-05T11:30:15Z</time>
      </trkpt>
      <trkpt lat="47.1571" lon="-2.14578">
        <ele>26.9</ele>
        <time>2020-06-05T11:30:16Z</time>
      </trkpt>
      <trkpt lat="47.15714" lon="-2.14577">
        <ele>26.9</ele>
        <time>2020-06-05T11:30:17Z</time>
      </trkpt>
      <trkpt lat="47.15718" lon="-2.14576">
        <ele>26.9</ele>
        <time>2020-06-05T11:30:18Z</time>
      </trkpt>
      <trkpt lat="47.15722" lon="-2.14575">
        <ele>26.9</ele>
        <time>2020-06-05T11:30:19Z</time>
      </trkpt>
      <trkpt lat="47.15726" lon="-2.14574">
        <ele>26.9</ele>
        <time>2020-06-05T11:30:20Z</time>
      </trkpt>
      <trkpt lat="47.15731" lon="-2.14575">
        <ele>26.9</ele>
        <time>2020-06-05T11:30:21Z</time>
      </trkpt>
      <trkpt lat="47.15735" lon="-2.14576">
        <ele>26.8</ele>
        <time>2020-06-05T11:30:22Z</time>
      </trkpt>
      <trkpt lat="47.15739" lon="-2.14576">
        <ele>26.8</ele>
        <time>2020-06-05T11:30:23Z</time>
      </trkpt>
      <trkpt lat="47.15743" lon="-2.14577">
        <ele>26.8</ele>
        <time>2020-06-05T11:30:24Z</time>
      </trkpt>
      <trkpt lat="47.15747" lon="-2.14577">
        <ele>26.7</ele>
        <time>2020-06-05T11:30:25Z</time>
      </trkpt>
      <trkpt lat="47.15751" lon="-2.14577">
        <ele>26.7</ele>
        <time>2020-06-05T11:30:26Z</time>
      </trkpt>
      <trkpt lat="47.15755" lon="-2.14577">
        <ele>26.6</ele>
        <time>2020-06-05T11:30:27Z</time>
      </trkpt>
      <trkpt lat="47.15759" lon="-2.14577">
        <ele>26.6</ele>
        <time>2020-06-05T11:30:28Z</time>
      </trkpt>
      <trkpt lat="47.15763" lon="-2.14577">
        <ele>26.5</ele>
        <time>2020-06-05T11:30:29Z</time>
      </trkpt>
      <trkpt lat="47.15766" lon="-2.14577">
        <ele>26.4</ele>
        <time>2020-06-05T11:30:30Z</time>
      </trkpt>
      <trkpt lat="47.15771" lon="-2.14577">
        <ele>26.4</ele>
        <time>2020-06-05T11:30:31Z</time>
      </trkpt>
      <trkpt lat="47.15775" lon="-2.14576">
        <ele>26.3</ele>
        <time>2020-06-05T11:30:32Z</time>
      </trkpt>
      <trkpt lat="47.15779" lon="-2.14575">
        <ele>26.2</ele>
        <time>2020-06-05T11:30:33Z</time>
      </trkpt>
      <trkpt lat="47.15783" lon="-2.14574">
        <ele>26.1</ele>
        <time>2020-06-05T11:30:34Z</time>
      </trkpt>
      <trkpt lat="47.15787" lon="-2.14574">
        <ele>26</ele>
        <time>2020-06-05T11:30:35Z</time>
      </trkpt>
      <trkpt lat="47.15792" lon="-2.14573">
        <ele>25.9</ele>
        <time>2020-06-05T11:30:36Z</time>
      </trkpt>
      <trkpt lat="47.15795" lon="-2.14573">
        <ele>25.8</ele>
        <time>2020-06-05T11:30:37Z</time>
      </trkpt>
      <trkpt lat="47.15799" lon="-2.14573">
        <ele>25.7</ele>
        <time>2020-06-05T11:30:38Z</time>
      </trkpt>
      <trkpt lat="47.15803" lon="-2.14574">
        <ele>25.5</ele>
        <time>2020-06-05T11:30:39Z</time>
      </trkpt>
      <trkpt lat="47.15807" lon="-2.14574">
        <ele>25.3</ele>
        <time>2020-06-05T11:30:40Z</time>
      </trkpt>
      <trkpt lat="47.15812" lon="-2.14575">
        <ele>25</ele>
        <time>2020-06-05T11:30:41Z</time>
      </trkpt>
      <trkpt lat="47.15818" lon="-2.14574">
        <ele>24.6</ele>
        <time>2020-06-05T11:30:42Z</time>
      </trkpt>
      <trkpt lat="47.15823" lon="-2.14573">
        <ele>24.2</ele>
        <time>2020-06-05T11:30:43Z</time>
      </trkpt>
      <trkpt lat="47.15829" lon="-2.14572">
        <ele>23.9</ele>
        <time>2020-06-05T11:30:44Z</time>
      </trkpt>
      <trkpt lat="47.15835" lon="-2.14571">
        <ele>23.4</ele>
        <time>2020-06-05T11:30:45Z</time>
      </trkpt>
      <trkpt lat="47.15841" lon="-2.14569">
        <ele>23.1</ele>
        <time>2020-06-05T11:30:46Z</time>
      </trkpt>
      <trkpt lat="47.15846" lon="-2.14567">
        <ele>22.7</ele>
        <time>2020-06-05T11:30:47Z</time>
      </trkpt>
      <trkpt lat="47.15851" lon="-2.14566">
        <ele>22.4</ele>
        <time>2020-06-05T11:30:48Z</time>
      </trkpt>
      <trkpt lat="47.15857" lon="-2.14564">
        <ele>22.1</ele>
        <time>2020-06-05T11:30:49Z</time>
      </trkpt>
      <trkpt lat="47.15863" lon="-2.14563">
        <ele>21.8</ele>
        <time>2020-06-05T11:30:50Z</time>
      </trkpt>
      <trkpt lat="47.15869" lon="-2.14562">
        <ele>21.6</ele>
        <time>2020-06-05T11:30:51Z</time>
      </trkpt>
      <trkpt lat="47.15875" lon="-2.14561">
        <ele>21.3</ele>
        <time>2020-06-05T11:30:52Z</time>
      </trkpt>
      <trkpt lat="47.15882" lon="-2.1456">
        <ele>21.1</ele>
        <time>2020-06-05T11:30:53Z</time>
      </trkpt>
      <trkpt lat="47.15889" lon="-2.14559">
        <ele>20.8</ele>
        <time>2020-06-05T11:30:54Z</time>
      </trkpt>
      <trkpt lat="47.15896" lon="-2.14557">
        <ele>20.5</ele>
        <time>2020-06-05T11:30:55Z</time>
      </trkpt>
      <trkpt lat="47.15902" lon="-2.14556">
        <ele>20.3</ele>
        <time>2020-06-05T11:30:56Z</time>
      </trkpt>
      <trkpt lat="47.15908" lon="-2.14553">
        <ele>20.1</ele>
        <time>2020-06-05T11:30:57Z</time>
      </trkpt>
      <trkpt lat="47.15915" lon="-2.14551">
        <ele>19.9</ele>
        <time>2020-06-05T11:30:58Z</time>
      </trkpt>
      <trkpt lat="47.15923" lon="-2.14551">
        <ele>19.7</ele>
        <time>2020-06-05T11:30:59Z</time>
      </trkpt>
      <trkpt lat="47.15931" lon="-2.1455">
        <ele>19.5</ele>
        <time>2020-06-05T11:31:00Z</time>
      </trkpt>
      <trkpt lat="47.15938" lon="-2.14549">
        <ele>19.3</ele>
        <time>2020-06-05T11:31:01Z</time>
      </trkpt>
      <trkpt lat="47.15945" lon="-2.14548">
        <ele>19.2</ele>
        <time>2020-06-05T11:31:02Z</time>
      </trkpt>
      <trkpt lat="47.15953" lon="-2.14547">
        <ele>19.1</ele>
        <time>2020-06-05T11:31:03Z</time>
      </trkpt>
      <trkpt lat="47.1596" lon="-2.14546">
        <ele>19</ele>
        <time>2020-06-05T11:31:04Z</time>
      </trkpt>
      <trkpt lat="47.15966" lon="-2.14545">
        <ele>18.9</ele>
        <time>2020-06-05T11:31:05Z</time>
      </trkpt>
      <trkpt lat="47.15972" lon="-2.14544">
        <ele>18.9</ele>
        <time>2020-06-05T11:31:06Z</time>
      </trkpt>
      <trkpt lat="47.15978" lon="-2.14543">
        <ele>18.9</ele>
        <time>2020-06-05T11:31:07Z</time>
      </trkpt>
      <trkpt lat="47.15983" lon="-2.14542">
        <ele>18.9</ele>
        <time>2020-06-05T11:31:08Z</time>
      </trkpt>
      <trkpt lat="47.15989" lon="-2.1454">
        <ele>18.9</ele>
        <time>2020-06-05T11:31:09Z</time>
      </trkpt>
      <trkpt lat="47.15994" lon="-2.14539">
        <ele>18.9</ele>
        <time>2020-06-05T11:31:10Z</time>
      </trkpt>
      <trkpt lat="47.15998" lon="-2.14538">
        <ele>18.9</ele>
        <time>2020-06-05T11:31:11Z</time>
      </trkpt>
      <trkpt lat="47.16" lon="-2.14536">
        <ele>19</ele>
        <time>2020-06-05T11:31:12Z</time>
      </trkpt>
      <trkpt lat="47.16001" lon="-2.14536">
        <ele>18.9</ele>
        <time>2020-06-05T11:31:13Z</time>
      </trkpt>
      <trkpt lat="47.16004" lon="-2.14537">
        <ele>18.8</ele>
        <time>2020-06-05T11:31:14Z</time>
      </trkpt>
      <trkpt lat="47.16005" lon="-2.14538">
        <ele>18.8</ele>
        <time>2020-06-05T11:31:15Z</time>
      </trkpt>
      <trkpt lat="47.16006" lon="-2.14541">
        <ele>18.7</ele>
        <time>2020-06-05T11:31:16Z</time>
      </trkpt>
      <trkpt lat="47.16008" lon="-2.14545">
        <ele>18.6</ele>
        <time>2020-06-05T11:31:17Z</time>
      </trkpt>
      <trkpt lat="47.16009" lon="-2.1455">
        <ele>18.4</ele>
        <time>2020-06-05T11:31:18Z</time>
      </trkpt>
      <trkpt lat="47.1601" lon="-2.14555">
        <ele>18.3</ele>
        <time>2020-06-05T11:31:19Z</time>
      </trkpt>
      <trkpt lat="47.16012" lon="-2.14559">
        <ele>18.2</ele>
        <time>2020-06-05T11:31:20Z</time>
      </trkpt>
      <trkpt lat="47.16014" lon="-2.14564">
        <ele>18.1</ele>
        <time>2020-06-05T11:31:21Z</time>
      </trkpt>
      <trkpt lat="47.16016" lon="-2.14569">
        <ele>18</ele>
        <time>2020-06-05T11:31:22Z</time>
      </trkpt>
      <trkpt lat="47.16017" lon="-2.14574">
        <ele>17.9</ele>
        <time>2020-06-05T11:31:23Z</time>
      </trkpt>
      <trkpt lat="47.16018" lon="-2.14579">
        <ele>17.8</ele>
        <time>2020-06-05T11:31:24Z</time>
      </trkpt>
      <trkpt lat="47.1602" lon="-2.14585">
        <ele>17.7</ele>
        <time>2020-06-05T11:31:25Z</time>
      </trkpt>
      <trkpt lat="47.16021" lon="-2.14591">
        <ele>17.6</ele>
        <time>2020-06-05T11:31:26Z</time>
      </trkpt>
      <trkpt lat="47.16023" lon="-2.14597">
        <ele>17.5</ele>
        <time>2020-06-05T11:31:27Z</time>
      </trkpt>
      <trkpt lat="47.16024" lon="-2.14603">
        <ele>17.5</ele>
        <time>2020-06-05T11:31:28Z</time>
      </trkpt>
      <trkpt lat="47.16025" lon="-2.14609">
        <ele>17.4</ele>
        <time>2020-06-05T11:31:29Z</time>
      </trkpt>
      <trkpt lat="47.16025" lon="-2.14615">
        <ele>17.4</ele>
        <time>2020-06-05T11:31:30Z</time>
      </trkpt>
      <trkpt lat="47.16026" lon="-2.14621">
        <ele>17.4</ele>
        <time>2020-06-05T11:31:31Z</time>
      </trkpt>
      <trkpt lat="47.16029" lon="-2.14625">
        <ele>17.4</ele>
        <time>2020-06-05T11:31:32Z</time>
      </trkpt>
      <trkpt lat="47.16032" lon="-2.14628">
        <ele>17.4</ele>
        <time>2020-06-05T11:31:33Z</time>
      </trkpt>
      <trkpt lat="47.16035" lon="-2.1463">
        <ele>17.3</ele>
        <time>2020-06-05T11:31:34Z</time>
      </trkpt>
      <trkpt lat="47.16038" lon="-2.14632">
        <ele>17.2</ele>
        <time>2020-06-05T11:31:35Z</time>
      </trkpt>
      <trkpt lat="47.16042" lon="-2.14632">
        <ele>17.1</ele>
        <time>2020-06-05T11:31:36Z</time>
      </trkpt>
      <trkpt lat="47.16045" lon="-2.14631">
        <ele>17.1</ele>
        <time>2020-06-05T11:31:37Z</time>
      </trkpt>
      <trkpt lat="47.16048" lon="-2.14629">
        <ele>17</ele>
        <time>2020-06-05T11:31:38Z</time>
      </trkpt>
      <trkpt lat="47.16052" lon="-2.14629">
        <ele>17</ele>
        <time>2020-06-05T11:31:39Z</time>
      </trkpt>
      <trkpt lat="47.16055" lon="-2.14629">
        <ele>16.9</ele>
        <time>2020-06-05T11:31:40Z</time>
      </trkpt>
      <trkpt lat="47.16059" lon="-2.14629">
        <ele>16.9</ele>
        <time>2020-06-05T11:31:41Z</time>
      </trkpt>
      <trkpt lat="47.16063" lon="-2.14627">
        <ele>16.8</ele>
        <time>2020-06-05T11:31:42Z</time>
      </trkpt>
      <trkpt lat="47.16067" lon="-2.14626">
        <ele>16.8</ele>
        <time>2020-06-05T11:31:43Z</time>
      </trkpt>
      <trkpt lat="47.16071" lon="-2.14624">
        <ele>16.8</ele>
        <time>2020-06-05T11:31:44Z</time>
      </trkpt>
      <trkpt lat="47.16075" lon="-2.14623">
        <ele>16.8</ele>
        <time>2020-06-05T11:31:45Z</time>
      </trkpt>
      <trkpt lat="47.1608" lon="-2.14622">
        <ele>16.9</ele>
        <time>2020-06-05T11:31:46Z</time>
      </trkpt>
      <trkpt lat="47.16084" lon="-2.14621">
        <ele>16.9</ele>
        <time>2020-06-05T11:31:47Z</time>
      </trkpt>
      <trkpt lat="47.16088" lon="-2.1462">
        <ele>17</ele>
        <time>2020-06-05T11:31:48Z</time>
      </trkpt>
      <trkpt lat="47.16092" lon="-2.14618">
        <ele>17</ele>
        <time>2020-06-05T11:31:49Z</time>
      </trkpt>
      <trkpt lat="47.16097" lon="-2.14619">
        <ele>17</ele>
        <time>2020-06-05T11:31:50Z</time>
      </trkpt>
      <trkpt lat="47.16102" lon="-2.1462">
        <ele>17.1</ele>
        <time>2020-06-05T11:31:51Z</time>
      </trkpt>
      <trkpt lat="47.16107" lon="-2.14621">
        <ele>17.1</ele>
        <time>2020-06-05T11:31:52Z</time>
      </trkpt>
      <trkpt lat="47.16112" lon="-2.14622">
        <ele>17.2</ele>
        <time>2020-06-05T11:31:53Z</time>
      </trkpt>
      <trkpt lat="47.16116" lon="-2.14623">
        <ele>17.2</ele>
        <time>2020-06-05T11:31:54Z</time>
      </trkpt>
      <trkpt lat="47.16121" lon="-2.14624">
        <ele>17.2</ele>
        <time>2020-06-05T11:31:55Z</time>
      </trkpt>
      <trkpt lat="47.16125" lon="-2.14625">
        <ele>17.3</ele>
        <time>2020-06-05T11:31:56Z</time>
      </trkpt>
      <trkpt lat="47.16129" lon="-2.14626">
        <ele>17.3</ele>
        <time>2020-06-05T11:31:57Z</time>
      </trkpt>
      <trkpt lat="47.16133" lon="-2.14627">
        <ele>17.3</ele>
        <time>2020-06-05T11:31:58Z</time>
      </trkpt>
      <trkpt lat="47.16138" lon="-2.14628">
        <ele>17.4</ele>
        <time>2020-06-05T11:31:59Z</time>
      </trkpt>
      <trkpt lat="47.16143" lon="-2.14627">
        <ele>17.4</ele>
        <time>2020-06-05T11:32:00Z</time>
      </trkpt>
      <trkpt lat="47.16147" lon="-2.14626">
        <ele>17.5</ele>
        <time>2020-06-05T11:32:01Z</time>
      </trkpt>
      <trkpt lat="47.16152" lon="-2.14626">
        <ele>17.5</ele>
        <time>2020-06-05T11:32:02Z</time>
      </trkpt>
      <trkpt lat="47.16157" lon="-2.14627">
        <ele>17.6</ele>
        <time>2020-06-05T11:32:03Z</time>
      </trkpt>
      <trkpt lat="47.16161" lon="-2.14627">
        <ele>17.6</ele>
        <time>2020-06-05T11:32:04Z</time>
      </trkpt>
      <trkpt lat="47.16165" lon="-2.14628">
        <ele>17.6</ele>
        <time>2020-06-05T11:32:05Z</time>
      </trkpt>
      <trkpt lat="47.1617" lon="-2.14628">
        <ele>17.6</ele>
        <time>2020-06-05T11:32:06Z</time>
      </trkpt>
      <trkpt lat="47.16175" lon="-2.14629">
        <ele>17.6</ele>
        <time>2020-06-05T11:32:07Z</time>
      </trkpt>
      <trkpt lat="47.16179" lon="-2.1463">
        <ele>17.7</ele>
        <time>2020-06-05T11:32:08Z</time>
      </trkpt>
      <trkpt lat="47.16184" lon="-2.14631">
        <ele>17.7</ele>
        <time>2020-06-05T11:32:09Z</time>
      </trkpt>
      <trkpt lat="47.16188" lon="-2.14631">
        <ele>17.7</ele>
        <time>2020-06-05T11:32:10Z</time>
      </trkpt>
      <trkpt lat="47.16193" lon="-2.14632">
        <ele>17.7</ele>
        <time>2020-06-05T11:32:11Z</time>
      </trkpt>
      <trkpt lat="47.16197" lon="-2.14632">
        <ele>17.7</ele>
        <time>2020-06-05T11:32:12Z</time>
      </trkpt>
      <trkpt lat="47.16201" lon="-2.14633">
        <ele>17.7</ele>
        <time>2020-06-05T11:32:13Z</time>
      </trkpt>
      <trkpt lat="47.16206" lon="-2.14634">
        <ele>17.7</ele>
        <time>2020-06-05T11:32:14Z</time>
      </trkpt>
      <trkpt lat="47.1621" lon="-2.14634">
        <ele>17.7</ele>
        <time>2020-06-05T11:32:15Z</time>
      </trkpt>
      <trkpt lat="47.16215" lon="-2.14632">
        <ele>17.7</ele>
        <time>2020-06-05T11:32:16Z</time>
      </trkpt>
      <trkpt lat="47.16219" lon="-2.14633">
        <ele>17.7</ele>
        <time>2020-06-05T11:32:17Z</time>
      </trkpt>
      <trkpt lat="47.16223" lon="-2.14633">
        <ele>17.6</ele>
        <time>2020-06-05T11:32:18Z</time>
      </trkpt>
      <trkpt lat="47.16227" lon="-2.14633">
        <ele>17.6</ele>
        <time>2020-06-05T11:32:19Z</time>
      </trkpt>
      <trkpt lat="47.16232" lon="-2.14632">
        <ele>17.5</ele>
        <time>2020-06-05T11:32:20Z</time>
      </trkpt>
      <trkpt lat="47.16236" lon="-2.1463">
        <ele>17.5</ele>
        <time>2020-06-05T11:32:21Z</time>
      </trkpt>
      <trkpt lat="47.16241" lon="-2.14631">
        <ele>17.4</ele>
        <time>2020-06-05T11:32:22Z</time>
      </trkpt>
      <trkpt lat="47.16245" lon="-2.1463">
        <ele>17.3</ele>
        <time>2020-06-05T11:32:23Z</time>
      </trkpt>
      <trkpt lat="47.16249" lon="-2.1463">
        <ele>17.2</ele>
        <time>2020-06-05T11:32:24Z</time>
      </trkpt>
      <trkpt lat="47.16254" lon="-2.14629">
        <ele>17.1</ele>
        <time>2020-06-05T11:32:25Z</time>
      </trkpt>
      <trkpt lat="47.16258" lon="-2.14627">
        <ele>16.9</ele>
        <time>2020-06-05T11:32:26Z</time>
      </trkpt>
      <trkpt lat="47.16263" lon="-2.14627">
        <ele>16.8</ele>
        <time>2020-06-05T11:32:27Z</time>
      </trkpt>
      <trkpt lat="47.16269" lon="-2.14626">
        <ele>16.7</ele>
        <time>2020-06-05T11:32:28Z</time>
      </trkpt>
      <trkpt lat="47.16274" lon="-2.14625">
        <ele>16.6</ele>
        <time>2020-06-05T11:32:29Z</time>
      </trkpt>
      <trkpt lat="47.16278" lon="-2.14624">
        <ele>16.5</ele>
        <time>2020-06-05T11:32:30Z</time>
      </trkpt>
      <trkpt lat="47.16283" lon="-2.14624">
        <ele>16.3</ele>
        <time>2020-06-05T11:32:31Z</time>
      </trkpt>
      <trkpt lat="47.16289" lon="-2.14622">
        <ele>16.1</ele>
        <time>2020-06-05T11:32:32Z</time>
      </trkpt>
      <trkpt lat="47.16294" lon="-2.14621">
        <ele>15.9</ele>
        <time>2020-06-05T11:32:33Z</time>
      </trkpt>
      <trkpt lat="47.163" lon="-2.1462">
        <ele>15.7</ele>
        <time>2020-06-05T11:32:34Z</time>
      </trkpt>
      <trkpt lat="47.16306" lon="-2.14619">
        <ele>15.4</ele>
        <time>2020-06-05T11:32:35Z</time>
      </trkpt>
      <trkpt lat="47.16312" lon="-2.1462">
        <ele>15.1</ele>
        <time>2020-06-05T11:32:36Z</time>
      </trkpt>
      <trkpt lat="47.16318" lon="-2.14621">
        <ele>14.9</ele>
        <time>2020-06-05T11:32:37Z</time>
      </trkpt>
      <trkpt lat="47.16324" lon="-2.1462">
        <ele>14.6</ele>
        <time>2020-06-05T11:32:38Z</time>
      </trkpt>
      <trkpt lat="47.1633" lon="-2.14619">
        <ele>14.3</ele>
        <time>2020-06-05T11:32:39Z</time>
      </trkpt>
      <trkpt lat="47.16336" lon="-2.14619">
        <ele>14</ele>
        <time>2020-06-05T11:32:40Z</time>
      </trkpt>
      <trkpt lat="47.16343" lon="-2.14619">
        <ele>13.7</ele>
        <time>2020-06-05T11:32:41Z</time>
      </trkpt>
      <trkpt lat="47.1635" lon="-2.14618">
        <ele>13.5</ele>
        <time>2020-06-05T11:32:42Z</time>
      </trkpt>
      <trkpt lat="47.16357" lon="-2.14619">
        <ele>13.2</ele>
        <time>2020-06-05T11:32:43Z</time>
      </trkpt>
      <trkpt lat="47.16363" lon="-2.14619">
        <ele>12.9</ele>
        <time>2020-06-05T11:32:44Z</time>
      </trkpt>
      <trkpt lat="47.1637" lon="-2.14619">
        <ele>12.6</ele>
        <time>2020-06-05T11:32:45Z</time>
      </trkpt>
      <trkpt lat="47.16377" lon="-2.14618">
        <ele>12.3</ele>
        <time>2020-06-05T11:32:46Z</time>
      </trkpt>
      <trkpt lat="47.16384" lon="-2.14618">
        <ele>12</ele>
        <time>2020-06-05T11:32:47Z</time>
      </trkpt>
      <trkpt lat="47.1639" lon="-2.14618">
        <ele>11.7</ele>
        <time>2020-06-05T11:32:48Z</time>
      </trkpt>
      <trkpt lat="47.16396" lon="-2.14618">
        <ele>11.5</ele>
        <time>2020-06-05T11:32:49Z</time>
      </trkpt>
      <trkpt lat="47.16402" lon="-2.14617">
        <ele>11.3</ele>
        <time>2020-06-05T11:32:50Z</time>
      </trkpt>
      <trkpt lat="47.16407" lon="-2.14616">
        <ele>11.1</ele>
        <time>2020-06-05T11:32:51Z</time>
      </trkpt>
      <trkpt lat="47.16412" lon="-2.14615">
        <ele>11</ele>
        <time>2020-06-05T11:32:52Z</time>
      </trkpt>
      <trkpt lat="47.16416" lon="-2.14614">
        <ele>10.8</ele>
        <time>2020-06-05T11:32:53Z</time>
      </trkpt>
      <trkpt lat="47.1642" lon="-2.14612">
        <ele>10.7</ele>
        <time>2020-06-05T11:32:54Z</time>
      </trkpt>
      <trkpt lat="47.16424" lon="-2.14609">
        <ele>10.6</ele>
        <time>2020-06-05T11:32:55Z</time>
      </trkpt>
      <trkpt lat="47.16427" lon="-2.14604">
        <ele>10.3</ele>
        <time>2020-06-05T11:32:56Z</time>
      </trkpt>
      <trkpt lat="47.16428" lon="-2.14597">
        <ele>10.1</ele>
        <time>2020-06-05T11:32:57Z</time>
      </trkpt>
      <trkpt lat="47.16429" lon="-2.14589">
        <ele>10</ele>
        <time>2020-06-05T11:32:58Z</time>
      </trkpt>
      <trkpt lat="47.16429" lon="-2.14581">
        <ele>9.8</ele>
        <time>2020-06-05T11:32:59Z</time>
      </trkpt>
      <trkpt lat="47.1643" lon="-2.14573">
        <ele>9.7</ele>
        <time>2020-06-05T11:33:00Z</time>
      </trkpt>
      <trkpt lat="47.1643" lon="-2.14565">
        <ele>9.6</ele>
        <time>2020-06-05T11:33:01Z</time>
      </trkpt>
      <trkpt lat="47.1643" lon="-2.14557">
        <ele>9.4</ele>
        <time>2020-06-05T11:33:02Z</time>
      </trkpt>
      <trkpt lat="47.1643" lon="-2.14549">
        <ele>9.3</ele>
        <time>2020-06-05T11:33:03Z</time>
      </trkpt>
      <trkpt lat="47.16429" lon="-2.14541">
        <ele>9.2</ele>
        <time>2020-06-05T11:33:04Z</time>
      </trkpt>
      <trkpt lat="47.16428" lon="-2.14534">
        <ele>9.2</ele>
        <time>2020-06-05T11:33:05Z</time>
      </trkpt>
      <trkpt lat="47.16427" lon="-2.14527">
        <ele>9.1</ele>
        <time>2020-06-05T11:33:06Z</time>
      </trkpt>
      <trkpt lat="47.16427" lon="-2.1452">
        <ele>9.1</ele>
        <time>2020-06-05T11:33:07Z</time>
      </trkpt>
      <trkpt lat="47.16427" lon="-2.14513">
        <ele>9</ele>
        <time>2020-06-05T11:33:08Z</time>
      </trkpt>
      <trkpt lat="47.16427" lon="-2.14505">
        <ele>9</ele>
        <time>2020-06-05T11:33:09Z</time>
      </trkpt>
      <trkpt lat="47.16427" lon="-2.14497">
        <ele>9</ele>
        <time>2020-06-05T11:33:10Z</time>
      </trkpt>
      <trkpt lat="47.16428" lon="-2.14489">
        <ele>9</ele>
        <time>2020-06-05T11:33:11Z</time>
      </trkpt>
      <trkpt lat="47.16428" lon="-2.14482">
        <ele>9</ele>
        <time>2020-06-05T11:33:12Z</time>
      </trkpt>
      <trkpt lat="47.16429" lon="-2.14475">
        <ele>8.8</ele>
        <time>2020-06-05T11:33:13Z</time>
      </trkpt>
      <trkpt lat="47.16431" lon="-2.14469">
        <ele>8.6</ele>
        <time>2020-06-05T11:33:14Z</time>
      </trkpt>
      <trkpt lat="47.16433" lon="-2.14463">
        <ele>8.5</ele>
        <time>2020-06-05T11:33:15Z</time>
      </trkpt>
      <trkpt lat="47.16436" lon="-2.14459">
        <ele>8.3</ele>
        <time>2020-06-05T11:33:16Z</time>
      </trkpt>
      <trkpt lat="47.16439" lon="-2.14453">
        <ele>8.1</ele>
        <time>2020-06-05T11:33:17Z</time>
      </trkpt>
      <trkpt lat="47.16441" lon="-2.14447">
        <ele>8</ele>
        <time>2020-06-05T11:33:18Z</time>
      </trkpt>
      <trkpt lat="47.16444" lon="-2.14441">
        <ele>7.8</ele>
        <time>2020-06-05T11:33:19Z</time>
      </trkpt>
      <trkpt lat="47.16446" lon="-2.14433">
        <ele>7.6</ele>
        <time>2020-06-05T11:33:20Z</time>
      </trkpt>
      <trkpt lat="47.16448" lon="-2.14426">
        <ele>7.4</ele>
        <time>2020-06-05T11:33:21Z</time>
      </trkpt>
      <trkpt lat="47.16449" lon="-2.14418">
        <ele>7.2</ele>
        <time>2020-06-05T11:33:22Z</time>
      </trkpt>
      <trkpt lat="47.1645" lon="-2.14411">
        <ele>7</ele>
        <time>2020-06-05T11:33:23Z</time>
      </trkpt>
      <trkpt lat="47.16451" lon="-2.14404">
        <ele>6.9</ele>
        <time>2020-06-05T11:33:24Z</time>
      </trkpt>
      <trkpt lat="47.16453" lon="-2.14398">
        <ele>6.7</ele>
        <time>2020-06-05T11:33:25Z</time>
      </trkpt>
      <trkpt lat="47.16455" lon="-2.14394">
        <ele>6.6</ele>
        <time>2020-06-05T11:33:26Z</time>
      </trkpt>
      <trkpt lat="47.16456" lon="-2.1439">
        <ele>6.6</ele>
        <time>2020-06-05T11:33:27Z</time>
      </trkpt>
      <trkpt lat="47.16458" lon="-2.14387">
        <ele>6.5</ele>
        <time>2020-06-05T11:33:28Z</time>
      </trkpt>
      <trkpt lat="47.16459" lon="-2.14386">
        <ele>6.4</ele>
        <time>2020-06-05T11:33:29Z</time>
      </trkpt>
      <trkpt lat="47.16461" lon="-2.14382">
        <ele>6.4</ele>
        <time>2020-06-05T11:33:30Z</time>
      </trkpt>
      <trkpt lat="47.16461" lon="-2.14381">
        <ele>6.4</ele>
        <time>2020-06-05T11:33:31Z</time>
      </trkpt>
      <trkpt lat="47.16463" lon="-2.14378">
        <ele>6.4</ele>
        <time>2020-06-05T11:33:32Z</time>
      </trkpt>
      <trkpt lat="47.16464" lon="-2.14377">
        <ele>6.4</ele>
        <time>2020-06-05T11:33:33Z</time>
      </trkpt>
      <trkpt lat="47.16467" lon="-2.14375">
        <ele>6.4</ele>
        <time>2020-06-05T11:33:34Z</time>
      </trkpt>
      <trkpt lat="47.16469" lon="-2.14375">
        <ele>6.4</ele>
        <time>2020-06-05T11:33:35Z</time>
      </trkpt>
      <trkpt lat="47.16472" lon="-2.14374">
        <ele>6.5</ele>
        <time>2020-06-05T11:33:36Z</time>
      </trkpt>
      <trkpt lat="47.16475" lon="-2.14373">
        <ele>6.5</ele>
        <time>2020-06-05T11:33:37Z</time>
      </trkpt>
      <trkpt lat="47.16479" lon="-2.14372">
        <ele>6.5</ele>
        <time>2020-06-05T11:33:38Z</time>
      </trkpt>
      <trkpt lat="47.16484" lon="-2.14371">
        <ele>6.6</ele>
        <time>2020-06-05T11:33:39Z</time>
      </trkpt>
      <trkpt lat="47.16488" lon="-2.14369">
        <ele>6.6</ele>
        <time>2020-06-05T11:33:40Z</time>
      </trkpt>
      <trkpt lat="47.16493" lon="-2.1437">
        <ele>6.7</ele>
        <time>2020-06-05T11:33:41Z</time>
      </trkpt>
      <trkpt lat="47.16498" lon="-2.14369">
        <ele>6.7</ele>
        <time>2020-06-05T11:33:42Z</time>
      </trkpt>
      <trkpt lat="47.16502" lon="-2.14368">
        <ele>6.7</ele>
        <time>2020-06-05T11:33:43Z</time>
      </trkpt>
      <trkpt lat="47.16506" lon="-2.14367">
        <ele>6.7</ele>
        <time>2020-06-05T11:33:44Z</time>
      </trkpt>
      <trkpt lat="47.16511" lon="-2.14367">
        <ele>6.7</ele>
        <time>2020-06-05T11:33:45Z</time>
      </trkpt>
      <trkpt lat="47.16516" lon="-2.14366">
        <ele>6.6</ele>
        <time>2020-06-05T11:33:46Z</time>
      </trkpt>
      <trkpt lat="47.16521" lon="-2.14364">
        <ele>6.6</ele>
        <time>2020-06-05T11:33:47Z</time>
      </trkpt>
      <trkpt lat="47.16526" lon="-2.14362">
        <ele>6.5</ele>
        <time>2020-06-05T11:33:48Z</time>
      </trkpt>
      <trkpt lat="47.16532" lon="-2.14361">
        <ele>6.4</ele>
        <time>2020-06-05T11:33:49Z</time>
      </trkpt>
      <trkpt lat="47.16537" lon="-2.1436">
        <ele>6.3</ele>
        <time>2020-06-05T11:33:50Z</time>
      </trkpt>
      <trkpt lat="47.16543" lon="-2.14358">
        <ele>6.2</ele>
        <time>2020-06-05T11:33:51Z</time>
      </trkpt>
      <trkpt lat="47.16549" lon="-2.14357">
        <ele>6.1</ele>
        <time>2020-06-05T11:33:52Z</time>
      </trkpt>
      <trkpt lat="47.16554" lon="-2.14357">
        <ele>6.1</ele>
        <time>2020-06-05T11:33:53Z</time>
      </trkpt>
      <trkpt lat="47.16559" lon="-2.14357">
        <ele>6</ele>
        <time>2020-06-05T11:33:54Z</time>
      </trkpt>
      <trkpt lat="47.16564" lon="-2.14356">
        <ele>6</ele>
        <time>2020-06-05T11:33:55Z</time>
      </trkpt>
      <trkpt lat="47.1657" lon="-2.14356">
        <ele>6</ele>
        <time>2020-06-05T11:33:56Z</time>
      </trkpt>
      <trkpt lat="47.16575" lon="-2.14357">
        <ele>6</ele>
        <time>2020-06-05T11:33:57Z</time>
      </trkpt>
      <trkpt lat="47.1658" lon="-2.14357">
        <ele>6</ele>
        <time>2020-06-05T11:33:58Z</time>
      </trkpt>
      <trkpt lat="47.16585" lon="-2.14359">
        <ele>6</ele>
        <time>2020-06-05T11:33:59Z</time>
      </trkpt>
      <trkpt lat="47.16589" lon="-2.14362">
        <ele>6</ele>
        <time>2020-06-05T11:34:00Z</time>
      </trkpt>
      <trkpt lat="47.16594" lon="-2.14365">
        <ele>6</ele>
        <time>2020-06-05T11:34:01Z</time>
      </trkpt>
      <trkpt lat="47.16599" lon="-2.14368">
        <ele>6</ele>
        <time>2020-06-05T11:34:02Z</time>
      </trkpt>
      <trkpt lat="47.16604" lon="-2.14371">
        <ele>6.1</ele>
        <time>2020-06-05T11:34:03Z</time>
      </trkpt>
      <trkpt lat="47.16609" lon="-2.14374">
        <ele>6.1</ele>
        <time>2020-06-05T11:34:04Z</time>
      </trkpt>
      <trkpt lat="47.16613" lon="-2.14377">
        <ele>6.2</ele>
        <time>2020-06-05T11:34:05Z</time>
      </trkpt>
      <trkpt lat="47.16618" lon="-2.14381">
        <ele>6.2</ele>
        <time>2020-06-05T11:34:06Z</time>
      </trkpt>
      <trkpt lat="47.16622" lon="-2.14384">
        <ele>6.3</ele>
        <time>2020-06-05T11:34:07Z</time>
      </trkpt>
      <trkpt lat="47.16626" lon="-2.14388">
        <ele>6.3</ele>
        <time>2020-06-05T11:34:08Z</time>
      </trkpt>
      <trkpt lat="47.1663" lon="-2.1439">
        <ele>6.4</ele>
        <time>2020-06-05T11:34:09Z</time>
      </trkpt>
      <trkpt lat="47.16634" lon="-2.14392">
        <ele>6.5</ele>
        <time>2020-06-05T11:34:10Z</time>
      </trkpt>
      <trkpt lat="47.16638" lon="-2.14394">
        <ele>6.6</ele>
        <time>2020-06-05T11:34:11Z</time>
      </trkpt>
      <trkpt lat="47.16642" lon="-2.14396">
        <ele>6.8</ele>
        <time>2020-06-05T11:34:12Z</time>
      </trkpt>
      <trkpt lat="47.16647" lon="-2.14399">
        <ele>6.9</ele>
        <time>2020-06-05T11:34:13Z</time>
      </trkpt>
      <trkpt lat="47.16651" lon="-2.14401">
        <ele>7.1</ele>
        <time>2020-06-05T11:34:14Z</time>
      </trkpt>
      <trkpt lat="47.16655" lon="-2.14403">
        <ele>7.2</ele>
        <time>2020-06-05T11:34:15Z</time>
      </trkpt>
      <trkpt lat="47.16658" lon="-2.14405">
        <ele>7.3</ele>
        <time>2020-06-05T11:34:16Z</time>
      </trkpt>
      <trkpt lat="47.16661" lon="-2.14405">
        <ele>7.4</ele>
        <time>2020-06-05T11:34:17Z</time>
      </trkpt>
      <trkpt lat="47.16665" lon="-2.14406">
        <ele>7.6</ele>
        <time>2020-06-05T11:34:18Z</time>
      </trkpt>
      <trkpt lat="47.16668" lon="-2.14408">
        <ele>7.7</ele>
        <time>2020-06-05T11:34:19Z</time>
      </trkpt>
      <trkpt lat="47.16672" lon="-2.14408">
        <ele>7.8</ele>
        <time>2020-06-05T11:34:20Z</time>
      </trkpt>
      <trkpt lat="47.16675" lon="-2.14409">
        <ele>8</ele>
        <time>2020-06-05T11:34:21Z</time>
      </trkpt>
      <trkpt lat="47.16679" lon="-2.1441">
        <ele>8.1</ele>
        <time>2020-06-05T11:34:22Z</time>
      </trkpt>
      <trkpt lat="47.16683" lon="-2.14411">
        <ele>8.3</ele>
        <time>2020-06-05T11:34:23Z</time>
      </trkpt>
      <trkpt lat="47.16687" lon="-2.14412">
        <ele>8.5</ele>
        <time>2020-06-05T11:34:24Z</time>
      </trkpt>
      <trkpt lat="47.16692" lon="-2.14413">
        <ele>8.7</ele>
        <time>2020-06-05T11:34:25Z</time>
      </trkpt>
      <trkpt lat="47.16697" lon="-2.14415">
        <ele>8.9</ele>
        <time>2020-06-05T11:34:26Z</time>
      </trkpt>
      <trkpt lat="47.16701" lon="-2.14417">
        <ele>9.2</ele>
        <time>2020-06-05T11:34:27Z</time>
      </trkpt>
      <trkpt lat="47.16707" lon="-2.14417">
        <ele>9.4</ele>
        <time>2020-06-05T11:34:28Z</time>
      </trkpt>
      <trkpt lat="47.16711" lon="-2.14417">
        <ele>9.6</ele>
        <time>2020-06-05T11:34:29Z</time>
      </trkpt>
      <trkpt lat="47.16717" lon="-2.14417">
        <ele>9.9</ele>
        <time>2020-06-05T11:34:30Z</time>
      </trkpt>
      <trkpt lat="47.16722" lon="-2.14417">
        <ele>10.1</ele>
        <time>2020-06-05T11:34:31Z</time>
      </trkpt>
      <trkpt lat="47.16728" lon="-2.14418">
        <ele>10.4</ele>
        <time>2020-06-05T11:34:32Z</time>
      </trkpt>
      <trkpt lat="47.16733" lon="-2.14418">
        <ele>10.6</ele>
        <time>2020-06-05T11:34:33Z</time>
      </trkpt>
      <trkpt lat="47.16738" lon="-2.14419">
        <ele>10.9</ele>
        <time>2020-06-05T11:34:34Z</time>
      </trkpt>
      <trkpt lat="47.16744" lon="-2.14419">
        <ele>11.2</ele>
        <time>2020-06-05T11:34:35Z</time>
      </trkpt>
      <trkpt lat="47.16748" lon="-2.14419">
        <ele>11.4</ele>
        <time>2020-06-05T11:34:36Z</time>
      </trkpt>
      <trkpt lat="47.16753" lon="-2.14419">
        <ele>11.7</ele>
        <time>2020-06-05T11:34:37Z</time>
      </trkpt>
      <trkpt lat="47.16758" lon="-2.14419">
        <ele>11.9</ele>
        <time>2020-06-05T11:34:38Z</time>
      </trkpt>
      <trkpt lat="47.16764" lon="-2.14419">
        <ele>12.2</ele>
        <time>2020-06-05T11:34:39Z</time>
      </trkpt>
      <trkpt lat="47.16768" lon="-2.1442">
        <ele>12.4</ele>
        <time>2020-06-05T11:34:40Z</time>
      </trkpt>
      <trkpt lat="47.16772" lon="-2.14421">
        <ele>12.6</ele>
        <time>2020-06-05T11:34:41Z</time>
      </trkpt>
      <trkpt lat="47.16777" lon="-2.14422">
        <ele>12.8</ele>
        <time>2020-06-05T11:34:42Z</time>
      </trkpt>
      <trkpt lat="47.16782" lon="-2.14422">
        <ele>13.1</ele>
        <time>2020-06-05T11:34:43Z</time>
      </trkpt>
      <trkpt lat="47.16788" lon="-2.14422">
        <ele>13.3</ele>
        <time>2020-06-05T11:34:44Z</time>
      </trkpt>
      <trkpt lat="47.16793" lon="-2.14421">
        <ele>13.5</ele>
        <time>2020-06-05T11:34:45Z</time>
      </trkpt>
      <trkpt lat="47.16798" lon="-2.14421">
        <ele>13.8</ele>
        <time>2020-06-05T11:34:46Z</time>
      </trkpt>
      <trkpt lat="47.16803" lon="-2.1442">
        <ele>14</ele>
        <time>2020-06-05T11:34:47Z</time>
      </trkpt>
      <trkpt lat="47.16806" lon="-2.1442">
        <ele>14.1</ele>
        <time>2020-06-05T11:34:48Z</time>
      </trkpt>
      <trkpt lat="47.1681" lon="-2.1442">
        <ele>14.3</ele>
        <time>2020-06-05T11:34:49Z</time>
      </trkpt>
      <trkpt lat="47.16813" lon="-2.1442">
        <ele>14.4</ele>
        <time>2020-06-05T11:34:50Z</time>
      </trkpt>
      <trkpt lat="47.16816" lon="-2.1442">
        <ele>14.6</ele>
        <time>2020-06-05T11:34:51Z</time>
      </trkpt>
      <trkpt lat="47.1682" lon="-2.1442">
        <ele>14.8</ele>
        <time>2020-06-05T11:34:52Z</time>
      </trkpt>
      <trkpt lat="47.16823" lon="-2.1442">
        <ele>14.9</ele>
        <time>2020-06-05T11:34:53Z</time>
      </trkpt>
      <trkpt lat="47.16826" lon="-2.14421">
        <ele>15.1</ele>
        <time>2020-06-05T11:34:54Z</time>
      </trkpt>
      <trkpt lat="47.1683" lon="-2.1442">
        <ele>15.2</ele>
        <time>2020-06-05T11:34:55Z</time>
      </trkpt>
      <trkpt lat="47.16833" lon="-2.1442">
        <ele>15.4</ele>
        <time>2020-06-05T11:34:56Z</time>
      </trkpt>
      <trkpt lat="47.16837" lon="-2.14419">
        <ele>15.6</ele>
        <time>2020-06-05T11:34:57Z</time>
      </trkpt>
      <trkpt lat="47.1684" lon="-2.14418">
        <ele>15.7</ele>
        <time>2020-06-05T11:34:58Z</time>
      </trkpt>
      <trkpt lat="47.16841" lon="-2.14418">
        <ele>15.8</ele>
        <time>2020-06-05T11:34:59Z</time>
      </trkpt>
      <trkpt lat="47.16844" lon="-2.14417">
        <ele>15.9</ele>
        <time>2020-06-05T11:35:00Z</time>
      </trkpt>
      <trkpt lat="47.16845" lon="-2.14417">
        <ele>16</ele>
        <time>2020-06-05T11:35:01Z</time>
      </trkpt>
      <trkpt lat="47.16849" lon="-2.14418">
        <ele>16.2</ele>
        <time>2020-06-05T11:35:02Z</time>
      </trkpt>
      <trkpt lat="47.16851" lon="-2.14418">
        <ele>16.2</ele>
        <time>2020-06-05T11:35:03Z</time>
      </trkpt>
      <trkpt lat="47.16855" lon="-2.14418">
        <ele>16.4</ele>
        <time>2020-06-05T11:35:04Z</time>
      </trkpt>
      <trkpt lat="47.16856" lon="-2.14418">
        <ele>16.5</ele>
        <time>2020-06-05T11:35:05Z</time>
      </trkpt>
      <trkpt lat="47.1686" lon="-2.14417">
        <ele>16.7</ele>
        <time>2020-06-05T11:35:06Z</time>
      </trkpt>
      <trkpt lat="47.16862" lon="-2.14416">
        <ele>16.8</ele>
        <time>2020-06-05T11:35:07Z</time>
      </trkpt>
      <trkpt lat="47.16865" lon="-2.14414">
        <ele>16.9</ele>
        <time>2020-06-05T11:35:08Z</time>
      </trkpt>
      <trkpt lat="47.16869" lon="-2.14413">
        <ele>17.1</ele>
        <time>2020-06-05T11:35:09Z</time>
      </trkpt>
      <trkpt lat="47.16871" lon="-2.14413">
        <ele>17.2</ele>
        <time>2020-06-05T11:35:10Z</time>
      </trkpt>
      <trkpt lat="47.16874" lon="-2.14411">
        <ele>17.3</ele>
        <time>2020-06-05T11:35:11Z</time>
      </trkpt>
      <trkpt lat="47.16875" lon="-2.1441">
        <ele>17.4</ele>
        <time>2020-06-05T11:35:12Z</time>
      </trkpt>
      <trkpt lat="47.16878" lon="-2.14409">
        <ele>17.5</ele>
        <time>2020-06-05T11:35:13Z</time>
      </trkpt>
      <trkpt lat="47.16881" lon="-2.14408">
        <ele>17.6</ele>
        <time>2020-06-05T11:35:14Z</time>
      </trkpt>
      <trkpt lat="47.16882" lon="-2.14408">
        <ele>17.7</ele>
        <time>2020-06-05T11:35:15Z</time>
      </trkpt>
      <trkpt lat="47.16886" lon="-2.14407">
        <ele>17.8</ele>
        <time>2020-06-05T11:35:16Z</time>
      </trkpt>
      <trkpt lat="47.16888" lon="-2.14406">
        <ele>17.9</ele>
        <time>2020-06-05T11:35:17Z</time>
      </trkpt>
      <trkpt lat="47.16891" lon="-2.14406">
        <ele>18</ele>
        <time>2020-06-05T11:35:18Z</time>
      </trkpt>
      <trkpt lat="47.16891" lon="-2.14406">
        <ele>18</ele>
        <time>2020-06-05T11:35:19Z</time>
      </trkpt>
      <trkpt lat="47.16894" lon="-2.14406">
        <ele>18.1</ele>
        <time>2020-06-05T11:35:20Z</time>
      </trkpt>
      <trkpt lat="47.16895" lon="-2.14406">
        <ele>18.2</ele>
        <time>2020-06-05T11:35:21Z</time>
      </trkpt>
      <trkpt lat="47.16897" lon="-2.14406">
        <ele>18.2</ele>
        <time>2020-06-05T11:35:22Z</time>
      </trkpt>
      <trkpt lat="47.169" lon="-2.14406">
        <ele>18.3</ele>
        <time>2020-06-05T11:35:23Z</time>
      </trkpt>
      <trkpt lat="47.16901" lon="-2.14406">
        <ele>18.3</ele>
        <time>2020-06-05T11:35:24Z</time>
      </trkpt>
      <trkpt lat="47.16904" lon="-2.14406">
        <ele>18.4</ele>
        <time>2020-06-05T11:35:25Z</time>
      </trkpt>
      <trkpt lat="47.16905" lon="-2.14405">
        <ele>18.5</ele>
        <time>2020-06-05T11:35:26Z</time>
      </trkpt>
      <trkpt lat="47.16908" lon="-2.14405">
        <ele>18.6</ele>
        <time>2020-06-05T11:35:27Z</time>
      </trkpt>
      <trkpt lat="47.16908" lon="-2.14404">
        <ele>18.6</ele>
        <time>2020-06-05T11:35:28Z</time>
      </trkpt>
      <trkpt lat="47.16908" lon="-2.14404">
        <ele>18.6</ele>
        <time>2020-06-05T11:35:29Z</time>
      </trkpt>
      <trkpt lat="47.16909" lon="-2.14404">
        <ele>18.6</ele>
        <time>2020-06-05T11:35:30Z</time>
      </trkpt>
      <trkpt lat="47.16909" lon="-2.14404">
        <ele>18.6</ele>
        <time>2020-06-05T11:35:31Z</time>
      </trkpt>
      <trkpt lat="47.16909" lon="-2.14404">
        <ele>18.6</ele>
        <time>2020-06-05T11:35:32Z</time>
      </trkpt>
      <trkpt lat="47.16908" lon="-2.14406">
        <ele>18.7</ele>
        <time>2020-06-05T11:35:33Z</time>
      </trkpt>
      <trkpt lat="47.16907" lon="-2.14406">
        <ele>18.7</ele>
        <time>2020-06-05T11:35:34Z</time>
      </trkpt>
      <trkpt lat="47.16907" lon="-2.14406">
        <ele>18.7</ele>
        <time>2020-06-05T11:35:35Z</time>
      </trkpt>
      <trkpt lat="47.16908" lon="-2.14405">
        <ele>18.7</ele>
        <time>2020-06-05T11:35:36Z</time>
      </trkpt>
      <trkpt lat="47.16908" lon="-2.14405">
        <ele>18.7</ele>
        <time>2020-06-05T11:35:37Z</time>
      </trkpt>
      <trkpt lat="47.16907" lon="-2.14405">
        <ele>18.8</ele>
        <time>2020-06-05T11:35:38Z</time>
      </trkpt>
      <trkpt lat="47.16906" lon="-2.14406">
        <ele>18.8</ele>
        <time>2020-06-05T11:35:39Z</time>
      </trkpt>
      <trkpt lat="47.16906" lon="-2.14406">
        <ele>18.8</ele>
        <time>2020-06-05T11:35:40Z</time>
      </trkpt>
      <trkpt lat="47.16901" lon="-2.14411">
        <ele>19</ele>
        <time>2020-06-05T11:35:53Z</time>
      </trkpt>
      <trkpt lat="47.16897" lon="-2.14412">
        <ele>19.1</ele>
        <time>2020-06-05T11:35:54Z</time>
      </trkpt>
      <trkpt lat="47.16893" lon="-2.14414">
        <ele>19.2</ele>
        <time>2020-06-05T11:35:55Z</time>
      </trkpt>
      <trkpt lat="47.1689" lon="-2.14417">
        <ele>19.4</ele>
        <time>2020-06-05T11:35:56Z</time>
      </trkpt>
      <trkpt lat="47.16888" lon="-2.14421">
        <ele>19.4</ele>
        <time>2020-06-05T11:35:57Z</time>
      </trkpt>
      <trkpt lat="47.16887" lon="-2.14423">
        <ele>19.5</ele>
        <time>2020-06-05T11:35:58Z</time>
      </trkpt>
      <trkpt lat="47.16887" lon="-2.14424">
        <ele>19.5</ele>
        <time>2020-06-05T11:35:59Z</time>
      </trkpt>
      <trkpt lat="47.16887" lon="-2.14424">
        <ele>19.5</ele>
        <time>2020-06-05T11:36:00Z</time>
      </trkpt>
      <trkpt lat="47.16886" lon="-2.14423">
        <ele>19.5</ele>
        <time>2020-06-05T11:36:01Z</time>
      </trkpt>
      <trkpt lat="47.16886" lon="-2.14422">
        <ele>19.5</ele>
        <time>2020-06-05T11:36:02Z</time>
      </trkpt>
      <trkpt lat="47.16886" lon="-2.14424">
        <ele>19.6</ele>
        <time>2020-06-05T11:36:03Z</time>
      </trkpt>
      <trkpt lat="47.16885" lon="-2.14426">
        <ele>19.6</ele>
        <time>2020-06-05T11:36:04Z</time>
      </trkpt>
      <trkpt lat="47.16884" lon="-2.14427">
        <ele>19.6</ele>
        <time>2020-06-05T11:36:05Z</time>
      </trkpt>
      <trkpt lat="47.16884" lon="-2.14428">
        <ele>19.7</ele>
        <time>2020-06-05T11:36:06Z</time>
      </trkpt>
      <trkpt lat="47.16883" lon="-2.14428">
        <ele>19.7</ele>
        <time>2020-06-05T11:36:07Z</time>
      </trkpt>
      <trkpt lat="47.16883" lon="-2.14428">
        <ele>19.7</ele>
        <time>2020-06-05T11:36:08Z</time>
      </trkpt>
      <trkpt lat="47.16883" lon="-2.14428">
        <ele>19.7</ele>
        <time>2020-06-05T11:36:09Z</time>
      </trkpt>
      <trkpt lat="47.16883" lon="-2.14428">
        <ele>19.7</ele>
        <time>2020-06-05T11:36:10Z</time>
      </trkpt>
      <trkpt lat="47.16883" lon="-2.14428">
        <ele>19.7</ele>
        <time>2020-06-05T11:36:11Z</time>
      </trkpt>
      <trkpt lat="47.16883" lon="-2.14429">
        <ele>19.7</ele>
        <time>2020-06-05T11:36:12Z</time>
      </trkpt>
      <trkpt lat="47.16883" lon="-2.1443">
        <ele>19.7</ele>
        <time>2020-06-05T11:36:13Z</time>
      </trkpt>
      <trkpt lat="47.16884" lon="-2.14428">
        <ele>19.7</ele>
        <time>2020-06-05T11:36:14Z</time>
      </trkpt>
      <trkpt lat="47.16884" lon="-2.14428">
        <ele>19.7</ele>
        <time>2020-06-05T11:36:15Z</time>
      </trkpt>
      <trkpt lat="47.16884" lon="-2.14428">
        <ele>19.8</ele>
        <time>2020-06-05T11:36:16Z</time>
      </trkpt>
      <trkpt lat="47.16886" lon="-2.14427">
        <ele>19.8</ele>
        <time>2020-06-05T11:36:17Z</time>
      </trkpt>
      <trkpt lat="47.16886" lon="-2.14426">
        <ele>19.8</ele>
        <time>2020-06-05T11:36:18Z</time>
      </trkpt>
      <trkpt lat="47.16887" lon="-2.14425">
        <ele>19.8</ele>
        <time>2020-06-05T11:36:19Z</time>
      </trkpt>
      <trkpt lat="47.16887" lon="-2.14422">
        <ele>19.9</ele>
        <time>2020-06-05T11:36:20Z</time>
      </trkpt>
      <trkpt lat="47.16888" lon="-2.1442">
        <ele>19.9</ele>
        <time>2020-06-05T11:36:21Z</time>
      </trkpt>
      <trkpt lat="47.16889" lon="-2.14416">
        <ele>19.9</ele>
        <time>2020-06-05T11:36:22Z</time>
      </trkpt>
      <trkpt lat="47.1689" lon="-2.14415">
        <ele>19.9</ele>
        <time>2020-06-05T11:36:23Z</time>
      </trkpt>
      <trkpt lat="47.16893" lon="-2.14413">
        <ele>20</ele>
        <time>2020-06-05T11:36:24Z</time>
      </trkpt>
      <trkpt lat="47.16894" lon="-2.14413">
        <ele>20</ele>
        <time>2020-06-05T11:36:25Z</time>
      </trkpt>
      <trkpt lat="47.16895" lon="-2.14413">
        <ele>20</ele>
        <time>2020-06-05T11:36:26Z</time>
      </trkpt>
      <trkpt lat="47.16897" lon="-2.14412">
        <ele>20</ele>
        <time>2020-06-05T11:36:27Z</time>
      </trkpt>
      <trkpt lat="47.16899" lon="-2.14409">
        <ele>20.1</ele>
        <time>2020-06-05T11:36:28Z</time>
      </trkpt>
      <trkpt lat="47.16903" lon="-2.14408">
        <ele>20.1</ele>
        <time>2020-06-05T11:36:29Z</time>
      </trkpt>
      <trkpt lat="47.16904" lon="-2.14408">
        <ele>20.1</ele>
        <time>2020-06-05T11:36:30Z</time>
      </trkpt>
      <trkpt lat="47.16908" lon="-2.14408">
        <ele>20.2</ele>
        <time>2020-06-05T11:36:31Z</time>
      </trkpt>
      <trkpt lat="47.16909" lon="-2.14408">
        <ele>20.2</ele>
        <time>2020-06-05T11:36:32Z</time>
      </trkpt>
      <trkpt lat="47.16912" lon="-2.14406">
        <ele>20.2</ele>
        <time>2020-06-05T11:36:33Z</time>
      </trkpt>
      <trkpt lat="47.16913" lon="-2.14405">
        <ele>20.3</ele>
        <time>2020-06-05T11:36:34Z</time>
      </trkpt>
      <trkpt lat="47.16917" lon="-2.14405">
        <ele>20.3</ele>
        <time>2020-06-05T11:36:35Z</time>
      </trkpt>
      <trkpt lat="47.16918" lon="-2.14404">
        <ele>20.3</ele>
        <time>2020-06-05T11:36:36Z</time>
      </trkpt>
      <trkpt lat="47.16922" lon="-2.14405">
        <ele>20.4</ele>
        <time>2020-06-05T11:36:37Z</time>
      </trkpt>
      <trkpt lat="47.16923" lon="-2.14406">
        <ele>20.4</ele>
        <time>2020-06-05T11:36:38Z</time>
      </trkpt>
      <trkpt lat="47.16926" lon="-2.14407">
        <ele>20.5</ele>
        <time>2020-06-05T11:36:39Z</time>
      </trkpt>
      <trkpt lat="47.16929" lon="-2.14408">
        <ele>20.5</ele>
        <time>2020-06-05T11:36:40Z</time>
      </trkpt>
      <trkpt lat="47.1693" lon="-2.14408">
        <ele>20.5</ele>
        <time>2020-06-05T11:36:41Z</time>
      </trkpt>
      <trkpt lat="47.16934" lon="-2.14408">
        <ele>20.6</ele>
        <time>2020-06-05T11:36:42Z</time>
      </trkpt>
      <trkpt lat="47.16936" lon="-2.14408">
        <ele>20.6</ele>
        <time>2020-06-05T11:36:43Z</time>
      </trkpt>
      <trkpt lat="47.16939" lon="-2.14408">
        <ele>20.7</ele>
        <time>2020-06-05T11:36:44Z</time>
      </trkpt>
      <trkpt lat="47.16943" lon="-2.14409">
        <ele>20.7</ele>
        <time>2020-06-05T11:36:45Z</time>
      </trkpt>
      <trkpt lat="47.16946" lon="-2.14411">
        <ele>20.8</ele>
        <time>2020-06-05T11:36:46Z</time>
      </trkpt>
      <trkpt lat="47.16948" lon="-2.14411">
        <ele>20.8</ele>
        <time>2020-06-05T11:36:47Z</time>
      </trkpt>
      <trkpt lat="47.16949" lon="-2.14412">
        <ele>20.8</ele>
        <time>2020-06-05T11:36:48Z</time>
      </trkpt>
      <trkpt lat="47.1695" lon="-2.14414">
        <ele>20.9</ele>
        <time>2020-06-05T11:36:49Z</time>
      </trkpt>
      <trkpt lat="47.16955" lon="-2.14416">
        <ele>20.9</ele>
        <time>2020-06-05T11:36:50Z</time>
      </trkpt>
      <trkpt lat="47.16959" lon="-2.14417">
        <ele>20.9</ele>
        <time>2020-06-05T11:36:51Z</time>
      </trkpt>
      <trkpt lat="47.16962" lon="-2.14419">
        <ele>20.9</ele>
        <time>2020-06-05T11:36:52Z</time>
      </trkpt>
      <trkpt lat="47.16965" lon="-2.1442">
        <ele>20.9</ele>
        <time>2020-06-05T11:36:53Z</time>
      </trkpt>
      <trkpt lat="47.16966" lon="-2.14421">
        <ele>20.9</ele>
        <time>2020-06-05T11:36:54Z</time>
      </trkpt>
      <trkpt lat="47.16968" lon="-2.14421">
        <ele>20.9</ele>
        <time>2020-06-05T11:36:55Z</time>
      </trkpt>
      <trkpt lat="47.16969" lon="-2.14422">
        <ele>20.9</ele>
        <time>2020-06-05T11:36:56Z</time>
      </trkpt>
      <trkpt lat="47.1697" lon="-2.14422">
        <ele>20.9</ele>
        <time>2020-06-05T11:36:57Z</time>
      </trkpt>
      <trkpt lat="47.16972" lon="-2.14421">
        <ele>20.9</ele>
        <time>2020-06-05T11:36:58Z</time>
      </trkpt>
      <trkpt lat="47.16973" lon="-2.1442">
        <ele>20.9</ele>
        <time>2020-06-05T11:36:59Z</time>
      </trkpt>
      <trkpt lat="47.16974" lon="-2.14419">
        <ele>20.9</ele>
        <time>2020-06-05T11:37:00Z</time>
      </trkpt>
      <trkpt lat="47.16975" lon="-2.14419">
        <ele>20.9</ele>
        <time>2020-06-05T11:37:01Z</time>
      </trkpt>
      <trkpt lat="47.16976" lon="-2.1442">
        <ele>20.9</ele>
        <time>2020-06-05T11:37:02Z</time>
      </trkpt>
      <trkpt lat="47.16977" lon="-2.1442">
        <ele>20.9</ele>
        <time>2020-06-05T11:37:03Z</time>
      </trkpt>
      <trkpt lat="47.16978" lon="-2.1442">
        <ele>20.9</ele>
        <time>2020-06-05T11:37:04Z</time>
      </trkpt>
      <trkpt lat="47.16979" lon="-2.1442">
        <ele>20.9</ele>
        <time>2020-06-05T11:37:05Z</time>
      </trkpt>
      <trkpt lat="47.16979" lon="-2.14421">
        <ele>20.9</ele>
        <time>2020-06-05T11:37:06Z</time>
      </trkpt>
      <trkpt lat="47.1698" lon="-2.14421">
        <ele>20.9</ele>
        <time>2020-06-05T11:37:07Z</time>
      </trkpt>
      <trkpt lat="47.16981" lon="-2.14421">
        <ele>20.9</ele>
        <time>2020-06-05T11:37:08Z</time>
      </trkpt>
      <trkpt lat="47.16982" lon="-2.14422">
        <ele>20.9</ele>
        <time>2020-06-05T11:37:09Z</time>
      </trkpt>
      <trkpt lat="47.16982" lon="-2.14422">
        <ele>20.9</ele>
        <time>2020-06-05T11:37:10Z</time>
      </trkpt>
      <trkpt lat="47.16983" lon="-2.14423">
        <ele>20.9</ele>
        <time>2020-06-05T11:37:11Z</time>
      </trkpt>
      <trkpt lat="47.16984" lon="-2.14423">
        <ele>20.9</ele>
        <time>2020-06-05T11:37:12Z</time>
      </trkpt>
      <trkpt lat="47.16985" lon="-2.14423">
        <ele>20.9</ele>
        <time>2020-06-05T11:37:13Z</time>
      </trkpt>
      <trkpt lat="47.16985" lon="-2.14424">
        <ele>20.9</ele>
        <time>2020-06-05T11:38:53Z</time>
      </trkpt>
      <trkpt lat="47.16986" lon="-2.14424">
        <ele>20.9</ele>
        <time>2020-06-05T11:38:54Z</time>
      </trkpt>
      <trkpt lat="47.16989" lon="-2.14425">
        <ele>21</ele>
        <time>2020-06-05T11:38:55Z</time>
      </trkpt>
      <trkpt lat="47.1699" lon="-2.14425">
        <ele>21</ele>
        <time>2020-06-05T11:38:56Z</time>
      </trkpt>
      <trkpt lat="47.16993" lon="-2.14426">
        <ele>21</ele>
        <time>2020-06-05T11:38:57Z</time>
      </trkpt>
      <trkpt lat="47.16993" lon="-2.14426">
        <ele>21</ele>
        <time>2020-06-05T11:38:58Z</time>
      </trkpt>
      <trkpt lat="47.16994" lon="-2.14427">
        <ele>21</ele>
        <time>2020-06-05T11:38:59Z</time>
      </trkpt>
      <trkpt lat="47.16998" lon="-2.14427">
        <ele>21</ele>
        <time>2020-06-05T11:39:00Z</time>
      </trkpt>
      <trkpt lat="47.17" lon="-2.14427">
        <ele>21</ele>
        <time>2020-06-05T11:39:01Z</time>
      </trkpt>
      <trkpt lat="47.17003" lon="-2.14427">
        <ele>21</ele>
        <time>2020-06-05T11:39:02Z</time>
      </trkpt>
      <trkpt lat="47.17004" lon="-2.14427">
        <ele>21</ele>
        <time>2020-06-05T11:39:03Z</time>
      </trkpt>
      <trkpt lat="47.17007" lon="-2.14427">
        <ele>21</ele>
        <time>2020-06-05T11:39:04Z</time>
      </trkpt>
      <trkpt lat="47.17011" lon="-2.14428">
        <ele>21</ele>
        <time>2020-06-05T11:39:05Z</time>
      </trkpt>
      <trkpt lat="47.17012" lon="-2.14429">
        <ele>21</ele>
        <time>2020-06-05T11:39:06Z</time>
      </trkpt>
      <trkpt lat="47.17015" lon="-2.14429">
        <ele>21</ele>
        <time>2020-06-05T11:39:07Z</time>
      </trkpt>
      <trkpt lat="47.17016" lon="-2.1443">
        <ele>21</ele>
        <time>2020-06-05T11:39:08Z</time>
      </trkpt>
      <trkpt lat="47.17019" lon="-2.14431">
        <ele>21</ele>
        <time>2020-06-05T11:39:09Z</time>
      </trkpt>
      <trkpt lat="47.1702" lon="-2.14432">
        <ele>21</ele>
        <time>2020-06-05T11:39:10Z</time>
      </trkpt>
      <trkpt lat="47.17023" lon="-2.14431">
        <ele>21</ele>
        <time>2020-06-05T11:39:11Z</time>
      </trkpt>
      <trkpt lat="47.17025" lon="-2.14431">
        <ele>21</ele>
        <time>2020-06-05T11:39:12Z</time>
      </trkpt>
      <trkpt lat="47.17026" lon="-2.14432">
        <ele>21</ele>
        <time>2020-06-05T11:39:13Z</time>
      </trkpt>
      <trkpt lat="47.17028" lon="-2.14433">
        <ele>21</ele>
        <time>2020-06-05T11:39:14Z</time>
      </trkpt>
      <trkpt lat="47.17032" lon="-2.14434">
        <ele>21</ele>
        <time>2020-06-05T11:39:15Z</time>
      </trkpt>
      <trkpt lat="47.17034" lon="-2.14434">
        <ele>21</ele>
        <time>2020-06-05T11:39:16Z</time>
      </trkpt>
      <trkpt lat="47.17037" lon="-2.14435">
        <ele>21.1</ele>
        <time>2020-06-05T11:39:17Z</time>
      </trkpt>
      <trkpt lat="47.17041" lon="-2.14436">
        <ele>21.1</ele>
        <time>2020-06-05T11:39:18Z</time>
      </trkpt>
      <trkpt lat="47.17044" lon="-2.14437">
        <ele>21.1</ele>
        <time>2020-06-05T11:39:19Z</time>
      </trkpt>
      <trkpt lat="47.17047" lon="-2.14436">
        <ele>21.1</ele>
        <time>2020-06-05T11:39:20Z</time>
      </trkpt>
      <trkpt lat="47.17051" lon="-2.14438">
        <ele>21.1</ele>
        <time>2020-06-05T11:39:21Z</time>
      </trkpt>
      <trkpt lat="47.17055" lon="-2.1444">
        <ele>21.1</ele>
        <time>2020-06-05T11:39:22Z</time>
      </trkpt>
      <trkpt lat="47.17058" lon="-2.14441">
        <ele>21.1</ele>
        <time>2020-06-05T11:39:23Z</time>
      </trkpt>
      <trkpt lat="47.17061" lon="-2.14442">
        <ele>21.1</ele>
        <time>2020-06-05T11:39:24Z</time>
      </trkpt>
      <trkpt lat="47.17065" lon="-2.14443">
        <ele>21.1</ele>
        <time>2020-06-05T11:39:25Z</time>
      </trkpt>
      <trkpt lat="47.17068" lon="-2.14444">
        <ele>21.1</ele>
        <time>2020-06-05T11:39:26Z</time>
      </trkpt>
      <trkpt lat="47.17072" lon="-2.14445">
        <ele>21.1</ele>
        <time>2020-06-05T11:39:27Z</time>
      </trkpt>
      <trkpt lat="47.17075" lon="-2.14446">
        <ele>21.1</ele>
        <time>2020-06-05T11:39:28Z</time>
      </trkpt>
      <trkpt lat="47.17078" lon="-2.14447">
        <ele>21.2</ele>
        <time>2020-06-05T11:39:29Z</time>
      </trkpt>
      <trkpt lat="47.17081" lon="-2.14448">
        <ele>21.2</ele>
        <time>2020-06-05T11:39:30Z</time>
      </trkpt>
      <trkpt lat="47.17084" lon="-2.14448">
        <ele>21.2</ele>
        <time>2020-06-05T11:39:31Z</time>
      </trkpt>
      <trkpt lat="47.17088" lon="-2.1445">
        <ele>21.3</ele>
        <time>2020-06-05T11:39:32Z</time>
      </trkpt>
      <trkpt lat="47.17091" lon="-2.1445">
        <ele>21.3</ele>
        <time>2020-06-05T11:39:33Z</time>
      </trkpt>
      <trkpt lat="47.17094" lon="-2.14451">
        <ele>21.3</ele>
        <time>2020-06-05T11:39:34Z</time>
      </trkpt>
      <trkpt lat="47.17098" lon="-2.14454">
        <ele>21.3</ele>
        <time>2020-06-05T11:39:35Z</time>
      </trkpt>
      <trkpt lat="47.17102" lon="-2.14455">
        <ele>21.4</ele>
        <time>2020-06-05T11:39:36Z</time>
      </trkpt>
      <trkpt lat="47.17106" lon="-2.14457">
        <ele>21.4</ele>
        <time>2020-06-05T11:39:37Z</time>
      </trkpt>
      <trkpt lat="47.17111" lon="-2.14457">
        <ele>21.5</ele>
        <time>2020-06-05T11:39:38Z</time>
      </trkpt>
      <trkpt lat="47.17115" lon="-2.14458">
        <ele>21.5</ele>
        <time>2020-06-05T11:39:39Z</time>
      </trkpt>
      <trkpt lat="47.17119" lon="-2.14459">
        <ele>21.6</ele>
        <time>2020-06-05T11:39:40Z</time>
      </trkpt>
      <trkpt lat="47.17123" lon="-2.14459">
        <ele>21.7</ele>
        <time>2020-06-05T11:39:41Z</time>
      </trkpt>
      <trkpt lat="47.17127" lon="-2.14461">
        <ele>21.8</ele>
        <time>2020-06-05T11:39:42Z</time>
      </trkpt>
      <trkpt lat="47.17131" lon="-2.14462">
        <ele>21.9</ele>
        <time>2020-06-05T11:39:43Z</time>
      </trkpt>
      <trkpt lat="47.17135" lon="-2.14462">
        <ele>22</ele>
        <time>2020-06-05T11:39:44Z</time>
      </trkpt>
      <trkpt lat="47.17139" lon="-2.14463">
        <ele>22.1</ele>
        <time>2020-06-05T11:39:45Z</time>
      </trkpt>
      <trkpt lat="47.17143" lon="-2.14463">
        <ele>22.3</ele>
        <time>2020-06-05T11:39:46Z</time>
      </trkpt>
      <trkpt lat="47.17146" lon="-2.14463">
        <ele>22.4</ele>
        <time>2020-06-05T11:39:47Z</time>
      </trkpt>
      <trkpt lat="47.1715" lon="-2.14463">
        <ele>22.5</ele>
        <time>2020-06-05T11:39:48Z</time>
      </trkpt>
      <trkpt lat="47.17153" lon="-2.14464">
        <ele>22.6</ele>
        <time>2020-06-05T11:39:49Z</time>
      </trkpt>
      <trkpt lat="47.17156" lon="-2.14465">
        <ele>22.7</ele>
        <time>2020-06-05T11:39:50Z</time>
      </trkpt>
      <trkpt lat="47.17159" lon="-2.14465">
        <ele>22.9</ele>
        <time>2020-06-05T11:39:51Z</time>
      </trkpt>
      <trkpt lat="47.17162" lon="-2.14465">
        <ele>23</ele>
        <time>2020-06-05T11:39:52Z</time>
      </trkpt>
      <trkpt lat="47.17166" lon="-2.14464">
        <ele>23.2</ele>
        <time>2020-06-05T11:39:53Z</time>
      </trkpt>
      <trkpt lat="47.17169" lon="-2.14464">
        <ele>23.4</ele>
        <time>2020-06-05T11:39:54Z</time>
      </trkpt>
      <trkpt lat="47.17173" lon="-2.14464">
        <ele>23.6</ele>
        <time>2020-06-05T11:39:55Z</time>
      </trkpt>
      <trkpt lat="47.17176" lon="-2.14464">
        <ele>23.8</ele>
        <time>2020-06-05T11:39:56Z</time>
      </trkpt>
      <trkpt lat="47.17179" lon="-2.14464">
        <ele>23.9</ele>
        <time>2020-06-05T11:39:57Z</time>
      </trkpt>
      <trkpt lat="47.17182" lon="-2.14464">
        <ele>24</ele>
        <time>2020-06-05T11:39:58Z</time>
      </trkpt>
      <trkpt lat="47.17186" lon="-2.14465">
        <ele>24.1</ele>
        <time>2020-06-05T11:39:59Z</time>
      </trkpt>
      <trkpt lat="47.17187" lon="-2.14466">
        <ele>24.2</ele>
        <time>2020-06-05T11:40:00Z</time>
      </trkpt>
      <trkpt lat="47.17189" lon="-2.1447">
        <ele>24.2</ele>
        <time>2020-06-05T11:40:01Z</time>
      </trkpt>
      <trkpt lat="47.1719" lon="-2.14472">
        <ele>24.2</ele>
        <time>2020-06-05T11:40:02Z</time>
      </trkpt>
      <trkpt lat="47.1719" lon="-2.14476">
        <ele>24.2</ele>
        <time>2020-06-05T11:40:03Z</time>
      </trkpt>
      <trkpt lat="47.1719" lon="-2.14483">
        <ele>24.1</ele>
        <time>2020-06-05T11:40:04Z</time>
      </trkpt>
      <trkpt lat="47.1719" lon="-2.14485">
        <ele>24.1</ele>
        <time>2020-06-05T11:40:05Z</time>
      </trkpt>
      <trkpt lat="47.17191" lon="-2.14491">
        <ele>24</ele>
        <time>2020-06-05T11:40:06Z</time>
      </trkpt>
      <trkpt lat="47.17191" lon="-2.14496">
        <ele>23.9</ele>
        <time>2020-06-05T11:40:07Z</time>
      </trkpt>
      <trkpt lat="47.17192" lon="-2.145">
        <ele>23.8</ele>
        <time>2020-06-05T11:40:08Z</time>
      </trkpt>
      <trkpt lat="47.17192" lon="-2.14505">
        <ele>23.7</ele>
        <time>2020-06-05T11:40:09Z</time>
      </trkpt>
      <trkpt lat="47.17193" lon="-2.14509">
        <ele>23.6</ele>
        <time>2020-06-05T11:40:10Z</time>
      </trkpt>
      <trkpt lat="47.17192" lon="-2.14515">
        <ele>23.4</ele>
        <time>2020-06-05T11:40:11Z</time>
      </trkpt>
      <trkpt lat="47.17192" lon="-2.14517">
        <ele>23.4</ele>
        <time>2020-06-05T11:40:12Z</time>
      </trkpt>
      <trkpt lat="47.17192" lon="-2.14522">
        <ele>23.2</ele>
        <time>2020-06-05T11:40:13Z</time>
      </trkpt>
      <trkpt lat="47.17192" lon="-2.14524">
        <ele>23.1</ele>
        <time>2020-06-05T11:40:14Z</time>
      </trkpt>
      <trkpt lat="47.17192" lon="-2.14529">
        <ele>22.9</ele>
        <time>2020-06-05T11:40:15Z</time>
      </trkpt>
      <trkpt lat="47.17193" lon="-2.14531">
        <ele>22.8</ele>
        <time>2020-06-05T11:40:16Z</time>
      </trkpt>
      <trkpt lat="47.17193" lon="-2.14537">
        <ele>22.6</ele>
        <time>2020-06-05T11:40:17Z</time>
      </trkpt>
      <trkpt lat="47.17193" lon="-2.14543">
        <ele>22.4</ele>
        <time>2020-06-05T11:40:18Z</time>
      </trkpt>
      <trkpt lat="47.17192" lon="-2.14548">
        <ele>22.2</ele>
        <time>2020-06-05T11:40:19Z</time>
      </trkpt>
      <trkpt lat="47.17193" lon="-2.14554">
        <ele>22</ele>
        <time>2020-06-05T11:40:20Z</time>
      </trkpt>
      <trkpt lat="47.17193" lon="-2.14559">
        <ele>21.8</ele>
        <time>2020-06-05T11:40:21Z</time>
      </trkpt>
      <trkpt lat="47.17192" lon="-2.14566">
        <ele>21.6</ele>
        <time>2020-06-05T11:40:22Z</time>
      </trkpt>
      <trkpt lat="47.17192" lon="-2.14573">
        <ele>21.3</ele>
        <time>2020-06-05T11:40:23Z</time>
      </trkpt>
      <trkpt lat="47.17192" lon="-2.1458">
        <ele>21.1</ele>
        <time>2020-06-05T11:40:24Z</time>
      </trkpt>
      <trkpt lat="47.17192" lon="-2.14587">
        <ele>20.8</ele>
        <time>2020-06-05T11:40:25Z</time>
      </trkpt>
      <trkpt lat="47.17192" lon="-2.14594">
        <ele>20.5</ele>
        <time>2020-06-05T11:40:26Z</time>
      </trkpt>
      <trkpt lat="47.17192" lon="-2.146">
        <ele>20.3</ele>
        <time>2020-06-05T11:40:27Z</time>
      </trkpt>
      <trkpt lat="47.17192" lon="-2.14605">
        <ele>20.1</ele>
        <time>2020-06-05T11:40:28Z</time>
      </trkpt>
      <trkpt lat="47.17193" lon="-2.1461">
        <ele>19.9</ele>
        <time>2020-06-05T11:40:29Z</time>
      </trkpt>
      <trkpt lat="47.17193" lon="-2.14616">
        <ele>19.7</ele>
        <time>2020-06-05T11:40:30Z</time>
      </trkpt>
      <trkpt lat="47.17192" lon="-2.14621">
        <ele>19.5</ele>
        <time>2020-06-05T11:40:31Z</time>
      </trkpt>
      <trkpt lat="47.17192" lon="-2.14627">
        <ele>19.2</ele>
        <time>2020-06-05T11:40:32Z</time>
      </trkpt>
      <trkpt lat="47.17193" lon="-2.14633">
        <ele>19</ele>
        <time>2020-06-05T11:40:33Z</time>
      </trkpt>
      <trkpt lat="47.17193" lon="-2.14639">
        <ele>18.8</ele>
        <time>2020-06-05T11:40:34Z</time>
      </trkpt>
      <trkpt lat="47.17193" lon="-2.14645">
        <ele>18.5</ele>
        <time>2020-06-05T11:40:35Z</time>
      </trkpt>
      <trkpt lat="47.17194" lon="-2.14652">
        <ele>18.2</ele>
        <time>2020-06-05T11:40:36Z</time>
      </trkpt>
      <trkpt lat="47.17195" lon="-2.14661">
        <ele>17.8</ele>
        <time>2020-06-05T11:40:37Z</time>
      </trkpt>
      <trkpt lat="47.17196" lon="-2.1467">
        <ele>17.5</ele>
        <time>2020-06-05T11:40:38Z</time>
      </trkpt>
      <trkpt lat="47.17197" lon="-2.14678">
        <ele>17.2</ele>
        <time>2020-06-05T11:40:39Z</time>
      </trkpt>
      <trkpt lat="47.17199" lon="-2.14687">
        <ele>17</ele>
        <time>2020-06-05T11:40:40Z</time>
      </trkpt>
      <trkpt lat="47.172" lon="-2.14695">
        <ele>16.8</ele>
        <time>2020-06-05T11:40:41Z</time>
      </trkpt>
      <trkpt lat="47.172" lon="-2.14701">
        <ele>16.7</ele>
        <time>2020-06-05T11:40:42Z</time>
      </trkpt>
      <trkpt lat="47.17201" lon="-2.14706">
        <ele>16.6</ele>
        <time>2020-06-05T11:40:43Z</time>
      </trkpt>
      <trkpt lat="47.17202" lon="-2.14709">
        <ele>16.5</ele>
        <time>2020-06-05T11:40:44Z</time>
      </trkpt>
      <trkpt lat="47.17202" lon="-2.14711">
        <ele>16.4</ele>
        <time>2020-06-05T11:40:45Z</time>
      </trkpt>
      <trkpt lat="47.17202" lon="-2.14713">
        <ele>16.3</ele>
        <time>2020-06-05T11:40:46Z</time>
      </trkpt>
      <trkpt lat="47.17202" lon="-2.14713">
        <ele>16.3</ele>
        <time>2020-06-05T11:40:47Z</time>
      </trkpt>
      <trkpt lat="47.17202" lon="-2.14714">
        <ele>16.3</ele>
        <time>2020-06-05T11:40:48Z</time>
      </trkpt>
      <trkpt lat="47.17202" lon="-2.14714">
        <ele>16.3</ele>
        <time>2020-06-05T11:40:49Z</time>
      </trkpt>
      <trkpt lat="47.17202" lon="-2.14715">
        <ele>16.3</ele>
        <time>2020-06-05T11:40:50Z</time>
      </trkpt>
      <trkpt lat="47.17202" lon="-2.14715">
        <ele>16.2</ele>
        <time>2020-06-05T11:40:51Z</time>
      </trkpt>
      <trkpt lat="47.17201" lon="-2.14716">
        <ele>16.2</ele>
        <time>2020-06-05T11:40:52Z</time>
      </trkpt>
      <trkpt lat="47.17201" lon="-2.14716">
        <ele>16.2</ele>
        <time>2020-06-05T11:40:53Z</time>
      </trkpt>
      <trkpt lat="47.17201" lon="-2.14717">
        <ele>16.2</ele>
        <time>2020-06-05T11:40:54Z</time>
      </trkpt>
      <trkpt lat="47.17201" lon="-2.14721">
        <ele>15.8</ele>
        <time>2020-06-05T11:40:55Z</time>
      </trkpt>
      <trkpt lat="47.17202" lon="-2.14726">
        <ele>15.8</ele>
        <time>2020-06-05T11:40:56Z</time>
      </trkpt>
      <trkpt lat="47.17203" lon="-2.14731">
        <ele>15.7</ele>
        <time>2020-06-05T11:40:57Z</time>
      </trkpt>
      <trkpt lat="47.17204" lon="-2.14735">
        <ele>15.7</ele>
        <time>2020-06-05T11:40:58Z</time>
      </trkpt>
      <trkpt lat="47.17205" lon="-2.14741">
        <ele>15.6</ele>
        <time>2020-06-05T11:40:59Z</time>
      </trkpt>
      <trkpt lat="47.17206" lon="-2.14748">
        <ele>15.5</ele>
        <time>2020-06-05T11:41:00Z</time>
      </trkpt>
      <trkpt lat="47.17207" lon="-2.14754">
        <ele>15.4</ele>
        <time>2020-06-05T11:41:01Z</time>
      </trkpt>
      <trkpt lat="47.17207" lon="-2.14762">
        <ele>15.4</ele>
        <time>2020-06-05T11:41:02Z</time>
      </trkpt>
      <trkpt lat="47.17208" lon="-2.14768">
        <ele>15.4</ele>
        <time>2020-06-05T11:41:03Z</time>
      </trkpt>
      <trkpt lat="47.17208" lon="-2.14775">
        <ele>15.3</ele>
        <time>2020-06-05T11:41:04Z</time>
      </trkpt>
      <trkpt lat="47.17209" lon="-2.1478">
        <ele>15.3</ele>
        <time>2020-06-05T11:41:05Z</time>
      </trkpt>
      <trkpt lat="47.17211" lon="-2.14786">
        <ele>15.3</ele>
        <time>2020-06-05T11:41:06Z</time>
      </trkpt>
      <trkpt lat="47.17215" lon="-2.14788">
        <ele>15.3</ele>
        <time>2020-06-05T11:41:07Z</time>
      </trkpt>
      <trkpt lat="47.17219" lon="-2.14786">
        <ele>15.3</ele>
        <time>2020-06-05T11:41:08Z</time>
      </trkpt>
      <trkpt lat="47.17222" lon="-2.14783">
        <ele>15.4</ele>
        <time>2020-06-05T11:41:09Z</time>
      </trkpt>
      <trkpt lat="47.17226" lon="-2.14782">
        <ele>15.4</ele>
        <time>2020-06-05T11:41:10Z</time>
      </trkpt>
      <trkpt lat="47.1723" lon="-2.14781">
        <ele>15.5</ele>
        <time>2020-06-05T11:41:11Z</time>
      </trkpt>
      <trkpt lat="47.17234" lon="-2.14781">
        <ele>15.5</ele>
        <time>2020-06-05T11:41:12Z</time>
      </trkpt>
      <trkpt lat="47.17238" lon="-2.14781">
        <ele>15.6</ele>
        <time>2020-06-05T11:41:13Z</time>
      </trkpt>
      <trkpt lat="47.17241" lon="-2.14779">
        <ele>15.7</ele>
        <time>2020-06-05T11:41:14Z</time>
      </trkpt>
      <trkpt lat="47.17244" lon="-2.14778">
        <ele>15.8</ele>
        <time>2020-06-05T11:41:15Z</time>
      </trkpt>
      <trkpt lat="47.17247" lon="-2.14778">
        <ele>15.8</ele>
        <time>2020-06-05T11:41:16Z</time>
      </trkpt>
      <trkpt lat="47.1725" lon="-2.14778">
        <ele>15.9</ele>
        <time>2020-06-05T11:41:17Z</time>
      </trkpt>
      <trkpt lat="47.17254" lon="-2.14777">
        <ele>16</ele>
        <time>2020-06-05T11:41:18Z</time>
      </trkpt>
      <trkpt lat="47.17257" lon="-2.14776">
        <ele>16.1</ele>
        <time>2020-06-05T11:41:19Z</time>
      </trkpt>
      <trkpt lat="47.17261" lon="-2.14775">
        <ele>16.3</ele>
        <time>2020-06-05T11:41:20Z</time>
      </trkpt>
      <trkpt lat="47.17264" lon="-2.14774">
        <ele>16.4</ele>
        <time>2020-06-05T11:41:21Z</time>
      </trkpt>
      <trkpt lat="47.17266" lon="-2.14772">
        <ele>16.5</ele>
        <time>2020-06-05T11:41:22Z</time>
      </trkpt>
      <trkpt lat="47.17269" lon="-2.14771">
        <ele>16.6</ele>
        <time>2020-06-05T11:41:23Z</time>
      </trkpt>
      <trkpt lat="47.17272" lon="-2.14769">
        <ele>16.7</ele>
        <time>2020-06-05T11:41:24Z</time>
      </trkpt>
      <trkpt lat="47.17275" lon="-2.14767">
        <ele>16.8</ele>
        <time>2020-06-05T11:41:25Z</time>
      </trkpt>
      <trkpt lat="47.17279" lon="-2.14765">
        <ele>17</ele>
        <time>2020-06-05T11:41:26Z</time>
      </trkpt>
      <trkpt lat="47.17282" lon="-2.14763">
        <ele>17.1</ele>
        <time>2020-06-05T11:41:27Z</time>
      </trkpt>
      <trkpt lat="47.17286" lon="-2.14762">
        <ele>17.2</ele>
        <time>2020-06-05T11:41:28Z</time>
      </trkpt>
      <trkpt lat="47.17289" lon="-2.14761">
        <ele>17.3</ele>
        <time>2020-06-05T11:41:29Z</time>
      </trkpt>
      <trkpt lat="47.17291" lon="-2.14759">
        <ele>17.1</ele>
        <time>2020-06-05T11:41:30Z</time>
      </trkpt>
      <trkpt lat="47.17294" lon="-2.14756">
        <ele>17.2</ele>
        <time>2020-06-05T11:41:31Z</time>
      </trkpt>
      <trkpt lat="47.17295" lon="-2.14756">
        <ele>17.3</ele>
        <time>2020-06-05T11:41:32Z</time>
      </trkpt>
      <trkpt lat="47.17296" lon="-2.14756">
        <ele>17.3</ele>
        <time>2020-06-05T11:41:33Z</time>
      </trkpt>
      <trkpt lat="47.17297" lon="-2.14756">
        <ele>17.3</ele>
        <time>2020-06-05T11:41:34Z</time>
      </trkpt>
      <trkpt lat="47.17298" lon="-2.14756">
        <ele>17.3</ele>
        <time>2020-06-05T11:41:35Z</time>
      </trkpt>
      <trkpt lat="47.17299" lon="-2.14757">
        <ele>17.4</ele>
        <time>2020-06-05T11:41:36Z</time>
      </trkpt>
      <trkpt lat="47.17299" lon="-2.14757">
        <ele>17.4</ele>
        <time>2020-06-05T11:41:37Z</time>
      </trkpt>
      <trkpt lat="47.17299" lon="-2.14757">
        <ele>17.4</ele>
        <time>2020-06-05T11:41:38Z</time>
      </trkpt>
      <trkpt lat="47.173" lon="-2.14757">
        <ele>17.4</ele>
        <time>2020-06-05T11:41:39Z</time>
      </trkpt>
      <trkpt lat="47.173" lon="-2.14757">
        <ele>17.4</ele>
        <time>2020-06-05T11:41:40Z</time>
      </trkpt>
      <trkpt lat="47.17301" lon="-2.14757">
        <ele>17.4</ele>
        <time>2020-06-05T11:41:41Z</time>
      </trkpt>
      <trkpt lat="47.17301" lon="-2.14757">
        <ele>17.4</ele>
        <time>2020-06-05T11:41:42Z</time>
      </trkpt>
      <trkpt lat="47.17301" lon="-2.14757">
        <ele>17.4</ele>
        <time>2020-06-05T11:41:43Z</time>
      </trkpt>
      <trkpt lat="47.17302" lon="-2.14757">
        <ele>17.4</ele>
        <time>2020-06-05T11:41:44Z</time>
      </trkpt>
      <trkpt lat="47.17302" lon="-2.14757">
        <ele>17.5</ele>
        <time>2020-06-05T11:41:45Z</time>
      </trkpt>
      <trkpt lat="47.17306" lon="-2.14756">
        <ele>17.6</ele>
        <time>2020-06-05T11:41:46Z</time>
      </trkpt>
      <trkpt lat="47.17307" lon="-2.14755">
        <ele>17.6</ele>
        <time>2020-06-05T11:41:47Z</time>
      </trkpt>
      <trkpt lat="47.1731" lon="-2.14753">
        <ele>17.7</ele>
        <time>2020-06-05T11:41:48Z</time>
      </trkpt>
      <trkpt lat="47.17312" lon="-2.14751">
        <ele>17.8</ele>
        <time>2020-06-05T11:41:49Z</time>
      </trkpt>
      <trkpt lat="47.17315" lon="-2.14749">
        <ele>17.9</ele>
        <time>2020-06-05T11:41:50Z</time>
      </trkpt>
      <trkpt lat="47.17318" lon="-2.14747">
        <ele>18</ele>
        <time>2020-06-05T11:41:51Z</time>
      </trkpt>
      <trkpt lat="47.17321" lon="-2.14745">
        <ele>18.1</ele>
        <time>2020-06-05T11:41:52Z</time>
      </trkpt>
      <trkpt lat="47.17324" lon="-2.14743">
        <ele>18.2</ele>
        <time>2020-06-05T11:41:53Z</time>
      </trkpt>
      <trkpt lat="47.17327" lon="-2.1474">
        <ele>18.4</ele>
        <time>2020-06-05T11:41:54Z</time>
      </trkpt>
      <trkpt lat="47.1733" lon="-2.14737">
        <ele>18.5</ele>
        <time>2020-06-05T11:41:55Z</time>
      </trkpt>
      <trkpt lat="47.17333" lon="-2.14734">
        <ele>18.7</ele>
        <time>2020-06-05T11:41:56Z</time>
      </trkpt>
      <trkpt lat="47.17337" lon="-2.14733">
        <ele>18.8</ele>
        <time>2020-06-05T11:41:57Z</time>
      </trkpt>
      <trkpt lat="47.1734" lon="-2.14731">
        <ele>18.9</ele>
        <time>2020-06-05T11:41:58Z</time>
      </trkpt>
      <trkpt lat="47.17343" lon="-2.1473">
        <ele>19.1</ele>
        <time>2020-06-05T11:41:59Z</time>
      </trkpt>
      <trkpt lat="47.17345" lon="-2.14728">
        <ele>19.2</ele>
        <time>2020-06-05T11:42:00Z</time>
      </trkpt>
      <trkpt lat="47.17349" lon="-2.14725">
        <ele>19.3</ele>
        <time>2020-06-05T11:42:01Z</time>
      </trkpt>
      <trkpt lat="47.1735" lon="-2.14724">
        <ele>19.4</ele>
        <time>2020-06-05T11:42:02Z</time>
      </trkpt>
      <trkpt lat="47.17352" lon="-2.14721">
        <ele>19.5</ele>
        <time>2020-06-05T11:42:03Z</time>
      </trkpt>
      <trkpt lat="47.17356" lon="-2.14718">
        <ele>19.7</ele>
        <time>2020-06-05T11:42:04Z</time>
      </trkpt>
      <trkpt lat="47.17359" lon="-2.14715">
        <ele>19.9</ele>
        <time>2020-06-05T11:42:05Z</time>
      </trkpt>
      <trkpt lat="47.17362" lon="-2.14713">
        <ele>20</ele>
        <time>2020-06-05T11:42:06Z</time>
      </trkpt>
      <trkpt lat="47.17366" lon="-2.14711">
        <ele>20.2</ele>
        <time>2020-06-05T11:42:07Z</time>
      </trkpt>
      <trkpt lat="47.17369" lon="-2.1471">
        <ele>20.3</ele>
        <time>2020-06-05T11:42:08Z</time>
      </trkpt>
      <trkpt lat="47.17373" lon="-2.1471">
        <ele>20.5</ele>
        <time>2020-06-05T11:42:09Z</time>
      </trkpt>
      <trkpt lat="47.17376" lon="-2.14708">
        <ele>20.6</ele>
        <time>2020-06-05T11:42:10Z</time>
      </trkpt>
      <trkpt lat="47.17379" lon="-2.14707">
        <ele>20.8</ele>
        <time>2020-06-05T11:42:11Z</time>
      </trkpt>
      <trkpt lat="47.17381" lon="-2.14705">
        <ele>20.9</ele>
        <time>2020-06-05T11:42:12Z</time>
      </trkpt>
      <trkpt lat="47.17383" lon="-2.14702">
        <ele>21</ele>
        <time>2020-06-05T11:42:13Z</time>
      </trkpt>
      <trkpt lat="47.17386" lon="-2.14699">
        <ele>21.2</ele>
        <time>2020-06-05T11:42:14Z</time>
      </trkpt>
      <trkpt lat="47.17388" lon="-2.14696">
        <ele>21.3</ele>
        <time>2020-06-05T11:42:15Z</time>
      </trkpt>
      <trkpt lat="47.1739" lon="-2.14693">
        <ele>21.4</ele>
        <time>2020-06-05T11:42:16Z</time>
      </trkpt>
      <trkpt lat="47.17392" lon="-2.1469">
        <ele>21.4</ele>
        <time>2020-06-05T11:42:17Z</time>
      </trkpt>
      <trkpt lat="47.17394" lon="-2.14687">
        <ele>21.5</ele>
        <time>2020-06-05T11:42:18Z</time>
      </trkpt>
      <trkpt lat="47.17395" lon="-2.14683">
        <ele>21.6</ele>
        <time>2020-06-05T11:42:19Z</time>
      </trkpt>
      <trkpt lat="47.17398" lon="-2.1468">
        <ele>21.7</ele>
        <time>2020-06-05T11:42:20Z</time>
      </trkpt>
      <trkpt lat="47.174" lon="-2.14678">
        <ele>21.8</ele>
        <time>2020-06-05T11:42:21Z</time>
      </trkpt>
      <trkpt lat="47.17404" lon="-2.14677">
        <ele>21.9</ele>
        <time>2020-06-05T11:42:22Z</time>
      </trkpt>
      <trkpt lat="47.17407" lon="-2.14676">
        <ele>21.9</ele>
        <time>2020-06-05T11:42:23Z</time>
      </trkpt>
      <trkpt lat="47.17411" lon="-2.14674">
        <ele>22</ele>
        <time>2020-06-05T11:42:24Z</time>
      </trkpt>
      <trkpt lat="47.17415" lon="-2.14672">
        <ele>22.1</ele>
        <time>2020-06-05T11:42:25Z</time>
      </trkpt>
      <trkpt lat="47.17418" lon="-2.14669">
        <ele>22.2</ele>
        <time>2020-06-05T11:42:26Z</time>
      </trkpt>
      <trkpt lat="47.17422" lon="-2.14666">
        <ele>22.3</ele>
        <time>2020-06-05T11:42:27Z</time>
      </trkpt>
      <trkpt lat="47.17427" lon="-2.14664">
        <ele>22.4</ele>
        <time>2020-06-05T11:42:28Z</time>
      </trkpt>
      <trkpt lat="47.1743" lon="-2.14662">
        <ele>22.4</ele>
        <time>2020-06-05T11:42:29Z</time>
      </trkpt>
      <trkpt lat="47.17434" lon="-2.14659">
        <ele>22.5</ele>
        <time>2020-06-05T11:42:30Z</time>
      </trkpt>
      <trkpt lat="47.17438" lon="-2.14657">
        <ele>22.6</ele>
        <time>2020-06-05T11:42:31Z</time>
      </trkpt>
      <trkpt lat="47.17442" lon="-2.14654">
        <ele>22.6</ele>
        <time>2020-06-05T11:42:32Z</time>
      </trkpt>
      <trkpt lat="47.17447" lon="-2.1465">
        <ele>22.7</ele>
        <time>2020-06-05T11:42:33Z</time>
      </trkpt>
      <trkpt lat="47.17451" lon="-2.14647">
        <ele>22.8</ele>
        <time>2020-06-05T11:42:34Z</time>
      </trkpt>
      <trkpt lat="47.17455" lon="-2.14643">
        <ele>22.9</ele>
        <time>2020-06-05T11:42:35Z</time>
      </trkpt>
      <trkpt lat="47.17459" lon="-2.1464">
        <ele>23</ele>
        <time>2020-06-05T11:42:36Z</time>
      </trkpt>
      <trkpt lat="47.17463" lon="-2.14637">
        <ele>23.1</ele>
        <time>2020-06-05T11:42:37Z</time>
      </trkpt>
      <trkpt lat="47.17468" lon="-2.14634">
        <ele>23.2</ele>
        <time>2020-06-05T11:42:38Z</time>
      </trkpt>
      <trkpt lat="47.17472" lon="-2.14631">
        <ele>23.3</ele>
        <time>2020-06-05T11:42:39Z</time>
      </trkpt>
      <trkpt lat="47.17475" lon="-2.14627">
        <ele>23.3</ele>
        <time>2020-06-05T11:42:40Z</time>
      </trkpt>
      <trkpt lat="47.17479" lon="-2.14624">
        <ele>23.4</ele>
        <time>2020-06-05T11:42:41Z</time>
      </trkpt>
      <trkpt lat="47.17482" lon="-2.1462">
        <ele>23.4</ele>
        <time>2020-06-05T11:42:42Z</time>
      </trkpt>
      <trkpt lat="47.17486" lon="-2.14617">
        <ele>23.4</ele>
        <time>2020-06-05T11:42:43Z</time>
      </trkpt>
      <trkpt lat="47.17489" lon="-2.14614">
        <ele>23.4</ele>
        <time>2020-06-05T11:42:44Z</time>
      </trkpt>
      <trkpt lat="47.17492" lon="-2.14611">
        <ele>23.4</ele>
        <time>2020-06-05T11:42:45Z</time>
      </trkpt>
      <trkpt lat="47.17496" lon="-2.14608">
        <ele>23.4</ele>
        <time>2020-06-05T11:42:46Z</time>
      </trkpt>
      <trkpt lat="47.17499" lon="-2.14606">
        <ele>23.4</ele>
        <time>2020-06-05T11:42:47Z</time>
      </trkpt>
      <trkpt lat="47.17502" lon="-2.14603">
        <ele>23.4</ele>
        <time>2020-06-05T11:42:48Z</time>
      </trkpt>
      <trkpt lat="47.17505" lon="-2.146">
        <ele>23.4</ele>
        <time>2020-06-05T11:42:49Z</time>
      </trkpt>
      <trkpt lat="47.17508" lon="-2.14597">
        <ele>23.4</ele>
        <time>2020-06-05T11:42:50Z</time>
      </trkpt>
      <trkpt lat="47.17511" lon="-2.14593">
        <ele>23.4</ele>
        <time>2020-06-05T11:42:51Z</time>
      </trkpt>
      <trkpt lat="47.17515" lon="-2.1459">
        <ele>23.4</ele>
        <time>2020-06-05T11:42:52Z</time>
      </trkpt>
      <trkpt lat="47.17518" lon="-2.14587">
        <ele>23.3</ele>
        <time>2020-06-05T11:42:53Z</time>
      </trkpt>
      <trkpt lat="47.17522" lon="-2.14584">
        <ele>23.3</ele>
        <time>2020-06-05T11:42:54Z</time>
      </trkpt>
      <trkpt lat="47.17526" lon="-2.14581">
        <ele>23.2</ele>
        <time>2020-06-05T11:42:55Z</time>
      </trkpt>
      <trkpt lat="47.1753" lon="-2.14578">
        <ele>23.2</ele>
        <time>2020-06-05T11:42:56Z</time>
      </trkpt>
      <trkpt lat="47.17534" lon="-2.14573">
        <ele>23.1</ele>
        <time>2020-06-05T11:42:57Z</time>
      </trkpt>
      <trkpt lat="47.17538" lon="-2.14569">
        <ele>23.1</ele>
        <time>2020-06-05T11:42:58Z</time>
      </trkpt>
      <trkpt lat="47.17542" lon="-2.14566">
        <ele>23</ele>
        <time>2020-06-05T11:42:59Z</time>
      </trkpt>
      <trkpt lat="47.17544" lon="-2.14562">
        <ele>22.9</ele>
        <time>2020-06-05T11:43:00Z</time>
      </trkpt>
      <trkpt lat="47.17548" lon="-2.14559">
        <ele>22.9</ele>
        <time>2020-06-05T11:43:01Z</time>
      </trkpt>
      <trkpt lat="47.17551" lon="-2.14557">
        <ele>22.8</ele>
        <time>2020-06-05T11:43:02Z</time>
      </trkpt>
      <trkpt lat="47.17555" lon="-2.14559">
        <ele>22.8</ele>
        <time>2020-06-05T11:43:03Z</time>
      </trkpt>
      <trkpt lat="47.17559" lon="-2.14561">
        <ele>22.7</ele>
        <time>2020-06-05T11:43:04Z</time>
      </trkpt>
      <trkpt lat="47.17563" lon="-2.14564">
        <ele>22.5</ele>
        <time>2020-06-05T11:43:05Z</time>
      </trkpt>
      <trkpt lat="47.17568" lon="-2.14565">
        <ele>22.4</ele>
        <time>2020-06-05T11:43:06Z</time>
      </trkpt>
      <trkpt lat="47.17573" lon="-2.14567">
        <ele>22.2</ele>
        <time>2020-06-05T11:43:07Z</time>
      </trkpt>
      <trkpt lat="47.17577" lon="-2.1457">
        <ele>22.1</ele>
        <time>2020-06-05T11:43:08Z</time>
      </trkpt>
      <trkpt lat="47.17581" lon="-2.14573">
        <ele>21.9</ele>
        <time>2020-06-05T11:43:09Z</time>
      </trkpt>
      <trkpt lat="47.17585" lon="-2.14577">
        <ele>21.7</ele>
        <time>2020-06-05T11:43:10Z</time>
      </trkpt>
      <trkpt lat="47.1759" lon="-2.14579">
        <ele>21.6</ele>
        <time>2020-06-05T11:43:11Z</time>
      </trkpt>
      <trkpt lat="47.17594" lon="-2.14581">
        <ele>21.4</ele>
        <time>2020-06-05T11:43:12Z</time>
      </trkpt>
      <trkpt lat="47.17598" lon="-2.14584">
        <ele>21.2</ele>
        <time>2020-06-05T11:43:13Z</time>
      </trkpt>
      <trkpt lat="47.17602" lon="-2.14586">
        <ele>21</ele>
        <time>2020-06-05T11:43:14Z</time>
      </trkpt>
      <trkpt lat="47.17606" lon="-2.14588">
        <ele>20.8</ele>
        <time>2020-06-05T11:43:15Z</time>
      </trkpt>
      <trkpt lat="47.17611" lon="-2.14591">
        <ele>20.6</ele>
        <time>2020-06-05T11:43:16Z</time>
      </trkpt>
      <trkpt lat="47.17615" lon="-2.14593">
        <ele>20.5</ele>
        <time>2020-06-05T11:43:17Z</time>
      </trkpt>
      <trkpt lat="47.17619" lon="-2.14595">
        <ele>20.3</ele>
        <time>2020-06-05T11:43:18Z</time>
      </trkpt>
      <trkpt lat="47.17624" lon="-2.14598">
        <ele>20.2</ele>
        <time>2020-06-05T11:43:19Z</time>
      </trkpt>
      <trkpt lat="47.17628" lon="-2.146">
        <ele>20</ele>
        <time>2020-06-05T11:43:20Z</time>
      </trkpt>
      <trkpt lat="47.17633" lon="-2.14602">
        <ele>19.7</ele>
        <time>2020-06-05T11:43:21Z</time>
      </trkpt>
      <trkpt lat="47.17638" lon="-2.14604">
        <ele>19.5</ele>
        <time>2020-06-05T11:43:22Z</time>
      </trkpt>
      <trkpt lat="47.17644" lon="-2.14606">
        <ele>19.2</ele>
        <time>2020-06-05T11:43:23Z</time>
      </trkpt>
      <trkpt lat="47.17649" lon="-2.14608">
        <ele>18.9</ele>
        <time>2020-06-05T11:43:24Z</time>
      </trkpt>
      <trkpt lat="47.17655" lon="-2.1461">
        <ele>18.6</ele>
        <time>2020-06-05T11:43:25Z</time>
      </trkpt>
      <trkpt lat="47.17661" lon="-2.14613">
        <ele>18.3</ele>
        <time>2020-06-05T11:43:26Z</time>
      </trkpt>
      <trkpt lat="47.17667" lon="-2.14617">
        <ele>18</ele>
        <time>2020-06-05T11:43:27Z</time>
      </trkpt>
      <trkpt lat="47.17673" lon="-2.1462">
        <ele>17.7</ele>
        <time>2020-06-05T11:43:28Z</time>
      </trkpt>
      <trkpt lat="47.1768" lon="-2.14624">
        <ele>17.3</ele>
        <time>2020-06-05T11:43:29Z</time>
      </trkpt>
      <trkpt lat="47.17687" lon="-2.14628">
        <ele>16.9</ele>
        <time>2020-06-05T11:43:30Z</time>
      </trkpt>
      <trkpt lat="47.17694" lon="-2.14631">
        <ele>16.6</ele>
        <time>2020-06-05T11:43:31Z</time>
      </trkpt>
      <trkpt lat="47.17701" lon="-2.14635">
        <ele>16.2</ele>
        <time>2020-06-05T11:43:32Z</time>
      </trkpt>
      <trkpt lat="47.17709" lon="-2.14639">
        <ele>15.8</ele>
        <time>2020-06-05T11:43:33Z</time>
      </trkpt>
      <trkpt lat="47.17717" lon="-2.14643">
        <ele>15.4</ele>
        <time>2020-06-05T11:43:34Z</time>
      </trkpt>
      <trkpt lat="47.17725" lon="-2.14647">
        <ele>15</ele>
        <time>2020-06-05T11:43:35Z</time>
      </trkpt>
      <trkpt lat="47.17733" lon="-2.1465">
        <ele>14.6</ele>
        <time>2020-06-05T11:43:36Z</time>
      </trkpt>
      <trkpt lat="47.17741" lon="-2.14653">
        <ele>14.1</ele>
        <time>2020-06-05T11:43:37Z</time>
      </trkpt>
      <trkpt lat="47.17749" lon="-2.14656">
        <ele>13.7</ele>
        <time>2020-06-05T11:43:38Z</time>
      </trkpt>
      <trkpt lat="47.17757" lon="-2.14659">
        <ele>13.4</ele>
        <time>2020-06-05T11:43:39Z</time>
      </trkpt>
      <trkpt lat="47.17766" lon="-2.14663">
        <ele>13</ele>
        <time>2020-06-05T11:43:40Z</time>
      </trkpt>
      <trkpt lat="47.17774" lon="-2.14667">
        <ele>12.7</ele>
        <time>2020-06-05T11:43:41Z</time>
      </trkpt>
      <trkpt lat="47.17782" lon="-2.1467">
        <ele>12.3</ele>
        <time>2020-06-05T11:43:42Z</time>
      </trkpt>
      <trkpt lat="47.1779" lon="-2.14674">
        <ele>12.2</ele>
        <time>2020-06-05T11:43:43Z</time>
      </trkpt>
      <trkpt lat="47.17797" lon="-2.14679">
        <ele>12</ele>
        <time>2020-06-05T11:43:44Z</time>
      </trkpt>
      <trkpt lat="47.17805" lon="-2.14684">
        <ele>11.9</ele>
        <time>2020-06-05T11:43:45Z</time>
      </trkpt>
      <trkpt lat="47.17812" lon="-2.14687">
        <ele>11.8</ele>
        <time>2020-06-05T11:43:46Z</time>
      </trkpt>
      <trkpt lat="47.1782" lon="-2.1469">
        <ele>11.6</ele>
        <time>2020-06-05T11:43:47Z</time>
      </trkpt>
      <trkpt lat="47.17827" lon="-2.14692">
        <ele>11.6</ele>
        <time>2020-06-05T11:43:48Z</time>
      </trkpt>
      <trkpt lat="47.17833" lon="-2.14696">
        <ele>11.6</ele>
        <time>2020-06-05T11:43:49Z</time>
      </trkpt>
      <trkpt lat="47.17839" lon="-2.147">
        <ele>11.7</ele>
        <time>2020-06-05T11:43:50Z</time>
      </trkpt>
      <trkpt lat="47.17845" lon="-2.14703">
        <ele>11.8</ele>
        <time>2020-06-05T11:43:51Z</time>
      </trkpt>
      <trkpt lat="47.17851" lon="-2.14706">
        <ele>11.9</ele>
        <time>2020-06-05T11:43:52Z</time>
      </trkpt>
      <trkpt lat="47.17857" lon="-2.14708">
        <ele>12</ele>
        <time>2020-06-05T11:43:53Z</time>
      </trkpt>
      <trkpt lat="47.17862" lon="-2.14711">
        <ele>12.2</ele>
        <time>2020-06-05T11:43:54Z</time>
      </trkpt>
      <trkpt lat="47.17867" lon="-2.14713">
        <ele>12.4</ele>
        <time>2020-06-05T11:43:55Z</time>
      </trkpt>
      <trkpt lat="47.17871" lon="-2.14715">
        <ele>12.6</ele>
        <time>2020-06-05T11:43:56Z</time>
      </trkpt>
      <trkpt lat="47.17875" lon="-2.14718">
        <ele>12.9</ele>
        <time>2020-06-05T11:43:57Z</time>
      </trkpt>
      <trkpt lat="47.17879" lon="-2.14721">
        <ele>13.1</ele>
        <time>2020-06-05T11:43:58Z</time>
      </trkpt>
      <trkpt lat="47.17883" lon="-2.14724">
        <ele>13.3</ele>
        <time>2020-06-05T11:43:59Z</time>
      </trkpt>
      <trkpt lat="47.17887" lon="-2.14728">
        <ele>13.6</ele>
        <time>2020-06-05T11:44:00Z</time>
      </trkpt>
      <trkpt lat="47.17891" lon="-2.14731">
        <ele>13.9</ele>
        <time>2020-06-05T11:44:01Z</time>
      </trkpt>
      <trkpt lat="47.17896" lon="-2.14734">
        <ele>14.2</ele>
        <time>2020-06-05T11:44:02Z</time>
      </trkpt>
      <trkpt lat="47.179" lon="-2.14738">
        <ele>14.5</ele>
        <time>2020-06-05T11:44:03Z</time>
      </trkpt>
      <trkpt lat="47.17903" lon="-2.14744">
        <ele>14.8</ele>
        <time>2020-06-05T11:44:04Z</time>
      </trkpt>
      <trkpt lat="47.17907" lon="-2.14749">
        <ele>15.2</ele>
        <time>2020-06-05T11:44:05Z</time>
      </trkpt>
      <trkpt lat="47.17911" lon="-2.14754">
        <ele>15.5</ele>
        <time>2020-06-05T11:44:06Z</time>
      </trkpt>
      <trkpt lat="47.17915" lon="-2.14758">
        <ele>15.8</ele>
        <time>2020-06-05T11:44:07Z</time>
      </trkpt>
      <trkpt lat="47.17919" lon="-2.14763">
        <ele>16.1</ele>
        <time>2020-06-05T11:44:08Z</time>
      </trkpt>
      <trkpt lat="47.17922" lon="-2.14768">
        <ele>16.4</ele>
        <time>2020-06-05T11:44:09Z</time>
      </trkpt>
      <trkpt lat="47.17926" lon="-2.14773">
        <ele>16.7</ele>
        <time>2020-06-05T11:44:10Z</time>
      </trkpt>
      <trkpt lat="47.1793" lon="-2.14777">
        <ele>17</ele>
        <time>2020-06-05T11:44:11Z</time>
      </trkpt>
      <trkpt lat="47.17933" lon="-2.14781">
        <ele>17.3</ele>
        <time>2020-06-05T11:44:12Z</time>
      </trkpt>
      <trkpt lat="47.17937" lon="-2.14785">
        <ele>17.6</ele>
        <time>2020-06-05T11:44:13Z</time>
      </trkpt>
      <trkpt lat="47.17941" lon="-2.1479">
        <ele>18</ele>
        <time>2020-06-05T11:44:14Z</time>
      </trkpt>
      <trkpt lat="47.17944" lon="-2.14794">
        <ele>18.3</ele>
        <time>2020-06-05T11:44:15Z</time>
      </trkpt>
      <trkpt lat="47.17948" lon="-2.148">
        <ele>18.6</ele>
        <time>2020-06-05T11:44:16Z</time>
      </trkpt>
      <trkpt lat="47.17951" lon="-2.14803">
        <ele>18.9</ele>
        <time>2020-06-05T11:44:17Z</time>
      </trkpt>
      <trkpt lat="47.17953" lon="-2.14808">
        <ele>19.2</ele>
        <time>2020-06-05T11:44:18Z</time>
      </trkpt>
      <trkpt lat="47.17956" lon="-2.14812">
        <ele>19.4</ele>
        <time>2020-06-05T11:44:19Z</time>
      </trkpt>
      <trkpt lat="47.17959" lon="-2.14818">
        <ele>19.7</ele>
        <time>2020-06-05T11:44:20Z</time>
      </trkpt>
      <trkpt lat="47.17961" lon="-2.14822">
        <ele>20</ele>
        <time>2020-06-05T11:44:21Z</time>
      </trkpt>
      <trkpt lat="47.17964" lon="-2.14824">
        <ele>20.2</ele>
        <time>2020-06-05T11:44:22Z</time>
      </trkpt>
      <trkpt lat="47.17967" lon="-2.14828">
        <ele>20.4</ele>
        <time>2020-06-05T11:44:23Z</time>
      </trkpt>
      <trkpt lat="47.1797" lon="-2.14832">
        <ele>20.7</ele>
        <time>2020-06-05T11:44:24Z</time>
      </trkpt>
      <trkpt lat="47.17975" lon="-2.14835">
        <ele>21.1</ele>
        <time>2020-06-05T11:44:25Z</time>
      </trkpt>
      <trkpt lat="47.17978" lon="-2.14838">
        <ele>21.3</ele>
        <time>2020-06-05T11:44:26Z</time>
      </trkpt>
      <trkpt lat="47.17981" lon="-2.14841">
        <ele>21.6</ele>
        <time>2020-06-05T11:44:27Z</time>
      </trkpt>
      <trkpt lat="47.17984" lon="-2.14843">
        <ele>21.7</ele>
        <time>2020-06-05T11:44:28Z</time>
      </trkpt>
      <trkpt lat="47.17986" lon="-2.14845">
        <ele>21.9</ele>
        <time>2020-06-05T11:44:29Z</time>
      </trkpt>
      <trkpt lat="47.17989" lon="-2.14844">
        <ele>22.1</ele>
        <time>2020-06-05T11:44:30Z</time>
      </trkpt>
      <trkpt lat="47.17992" lon="-2.14844">
        <ele>22.3</ele>
        <time>2020-06-05T11:44:31Z</time>
      </trkpt>
      <trkpt lat="47.17995" lon="-2.14842">
        <ele>22.4</ele>
        <time>2020-06-05T11:44:32Z</time>
      </trkpt>
      <trkpt lat="47.17996" lon="-2.14842">
        <ele>22.4</ele>
        <time>2020-06-05T11:44:33Z</time>
      </trkpt>
      <trkpt lat="47.17999" lon="-2.14842">
        <ele>22.5</ele>
        <time>2020-06-05T11:44:34Z</time>
      </trkpt>
      <trkpt lat="47.18" lon="-2.14843">
        <ele>22.5</ele>
        <time>2020-06-05T11:44:35Z</time>
      </trkpt>
      <trkpt lat="47.18003" lon="-2.14844">
        <ele>22.6</ele>
        <time>2020-06-05T11:44:36Z</time>
      </trkpt>
      <trkpt lat="47.18004" lon="-2.14844">
        <ele>22.7</ele>
        <time>2020-06-05T11:44:37Z</time>
      </trkpt>
      <trkpt lat="47.18007" lon="-2.14843">
        <ele>22.7</ele>
        <time>2020-06-05T11:44:38Z</time>
      </trkpt>
      <trkpt lat="47.18008" lon="-2.14843">
        <ele>22.7</ele>
        <time>2020-06-05T11:44:39Z</time>
      </trkpt>
      <trkpt lat="47.18012" lon="-2.14839">
        <ele>22.8</ele>
        <time>2020-06-05T11:44:40Z</time>
      </trkpt>
      <trkpt lat="47.18013" lon="-2.14838">
        <ele>22.8</ele>
        <time>2020-06-05T11:44:41Z</time>
      </trkpt>
      <trkpt lat="47.18013" lon="-2.14837">
        <ele>22.9</ele>
        <time>2020-06-05T11:44:42Z</time>
      </trkpt>
      <trkpt lat="47.18014" lon="-2.14836">
        <ele>22.9</ele>
        <time>2020-06-05T11:44:43Z</time>
      </trkpt>
      <trkpt lat="47.18014" lon="-2.14836">
        <ele>22.9</ele>
        <time>2020-06-05T11:44:44Z</time>
      </trkpt>
      <trkpt lat="47.18015" lon="-2.14836">
        <ele>22.9</ele>
        <time>2020-06-05T11:44:45Z</time>
      </trkpt>
      <trkpt lat="47.18015" lon="-2.14836">
        <ele>22.9</ele>
        <time>2020-06-05T11:44:46Z</time>
      </trkpt>
      <trkpt lat="47.18015" lon="-2.14835">
        <ele>22.9</ele>
        <time>2020-06-05T11:44:47Z</time>
      </trkpt>
      <trkpt lat="47.18016" lon="-2.14835">
        <ele>22.9</ele>
        <time>2020-06-05T11:44:48Z</time>
      </trkpt>
      <trkpt lat="47.18016" lon="-2.14835">
        <ele>22.9</ele>
        <time>2020-06-05T11:44:49Z</time>
      </trkpt>
      <trkpt lat="47.18016" lon="-2.14834">
        <ele>23</ele>
        <time>2020-06-05T11:44:50Z</time>
      </trkpt>
      <trkpt lat="47.18017" lon="-2.14834">
        <ele>23</ele>
        <time>2020-06-05T11:44:51Z</time>
      </trkpt>
      <trkpt lat="47.18017" lon="-2.14834">
        <ele>23.1</ele>
        <time>2020-06-05T11:44:52Z</time>
      </trkpt>
      <trkpt lat="47.18018" lon="-2.14834">
        <ele>23.1</ele>
        <time>2020-06-05T11:44:53Z</time>
      </trkpt>
      <trkpt lat="47.18018" lon="-2.14833">
        <ele>23.1</ele>
        <time>2020-06-05T11:44:54Z</time>
      </trkpt>
      <trkpt lat="47.18018" lon="-2.14833">
        <ele>23.1</ele>
        <time>2020-06-05T11:44:55Z</time>
      </trkpt>
      <trkpt lat="47.18019" lon="-2.14833">
        <ele>23.1</ele>
        <time>2020-06-05T11:44:56Z</time>
      </trkpt>
      <trkpt lat="47.18019" lon="-2.14832">
        <ele>23.1</ele>
        <time>2020-06-05T11:44:57Z</time>
      </trkpt>
      <trkpt lat="47.18019" lon="-2.14832">
        <ele>23.1</ele>
        <time>2020-06-05T11:44:58Z</time>
      </trkpt>
      <trkpt lat="47.1802" lon="-2.14832">
        <ele>23.2</ele>
        <time>2020-06-05T11:44:59Z</time>
      </trkpt>
      <trkpt lat="47.1802" lon="-2.14832">
        <ele>23.2</ele>
        <time>2020-06-05T11:45:00Z</time>
      </trkpt>
      <trkpt lat="47.18021" lon="-2.14831">
        <ele>23.2</ele>
        <time>2020-06-05T11:45:01Z</time>
      </trkpt>
      <trkpt lat="47.18021" lon="-2.14831">
        <ele>23.2</ele>
        <time>2020-06-05T11:45:21Z</time>
      </trkpt>
      <trkpt lat="47.18021" lon="-2.14831">
        <ele>23.2</ele>
        <time>2020-06-05T11:45:22Z</time>
      </trkpt>
      <trkpt lat="47.18024" lon="-2.14828">
        <ele>23.3</ele>
        <time>2020-06-05T11:45:23Z</time>
      </trkpt>
      <trkpt lat="47.18025" lon="-2.14828">
        <ele>23.4</ele>
        <time>2020-06-05T11:45:24Z</time>
      </trkpt>
      <trkpt lat="47.18027" lon="-2.14826">
        <ele>23.5</ele>
        <time>2020-06-05T11:45:25Z</time>
      </trkpt>
      <trkpt lat="47.18028" lon="-2.14826">
        <ele>23.5</ele>
        <time>2020-06-05T11:45:26Z</time>
      </trkpt>
      <trkpt lat="47.18031" lon="-2.14825">
        <ele>23.6</ele>
        <time>2020-06-05T11:45:27Z</time>
      </trkpt>
      <trkpt lat="47.18032" lon="-2.14824">
        <ele>23.7</ele>
        <time>2020-06-05T11:45:28Z</time>
      </trkpt>
      <trkpt lat="47.18033" lon="-2.14823">
        <ele>23.8</ele>
        <time>2020-06-05T11:45:29Z</time>
      </trkpt>
      <trkpt lat="47.18034" lon="-2.14823">
        <ele>23.8</ele>
        <time>2020-06-05T11:45:30Z</time>
      </trkpt>
      <trkpt lat="47.18035" lon="-2.14822">
        <ele>23.8</ele>
        <time>2020-06-05T11:45:31Z</time>
      </trkpt>
      <trkpt lat="47.18037" lon="-2.14822">
        <ele>23.9</ele>
        <time>2020-06-05T11:45:32Z</time>
      </trkpt>
      <trkpt lat="47.18038" lon="-2.14821">
        <ele>24</ele>
        <time>2020-06-05T11:45:33Z</time>
      </trkpt>
      <trkpt lat="47.18039" lon="-2.14821">
        <ele>24</ele>
        <time>2020-06-05T11:45:34Z</time>
      </trkpt>
      <trkpt lat="47.18042" lon="-2.14819">
        <ele>24.1</ele>
        <time>2020-06-05T11:45:35Z</time>
      </trkpt>
      <trkpt lat="47.18043" lon="-2.14818">
        <ele>24.2</ele>
        <time>2020-06-05T11:45:36Z</time>
      </trkpt>
      <trkpt lat="47.18046" lon="-2.14818">
        <ele>24.3</ele>
        <time>2020-06-05T11:45:37Z</time>
      </trkpt>
      <trkpt lat="47.18047" lon="-2.14817">
        <ele>24.3</ele>
        <time>2020-06-05T11:45:38Z</time>
      </trkpt>
      <trkpt lat="47.18049" lon="-2.14817">
        <ele>24.4</ele>
        <time>2020-06-05T11:45:39Z</time>
      </trkpt>
      <trkpt lat="47.1805" lon="-2.14816">
        <ele>24.5</ele>
        <time>2020-06-05T11:45:40Z</time>
      </trkpt>
      <trkpt lat="47.18053" lon="-2.14815">
        <ele>24.6</ele>
        <time>2020-06-05T11:45:41Z</time>
      </trkpt>
      <trkpt lat="47.18054" lon="-2.14814">
        <ele>24.6</ele>
        <time>2020-06-05T11:45:42Z</time>
      </trkpt>
      <trkpt lat="47.18057" lon="-2.14813">
        <ele>24.7</ele>
        <time>2020-06-05T11:45:43Z</time>
      </trkpt>
      <trkpt lat="47.18058" lon="-2.14813">
        <ele>24.7</ele>
        <time>2020-06-05T11:45:44Z</time>
      </trkpt>
      <trkpt lat="47.18059" lon="-2.14812">
        <ele>24.9</ele>
        <time>2020-06-05T11:45:45Z</time>
      </trkpt>
      <trkpt lat="47.18061" lon="-2.14812">
        <ele>24.9</ele>
        <time>2020-06-05T11:45:46Z</time>
      </trkpt>
      <trkpt lat="47.18062" lon="-2.14811">
        <ele>25</ele>
        <time>2020-06-05T11:45:47Z</time>
      </trkpt>
      <trkpt lat="47.18064" lon="-2.1481">
        <ele>25</ele>
        <time>2020-06-05T11:45:48Z</time>
      </trkpt>
      <trkpt lat="47.18066" lon="-2.1481">
        <ele>25.1</ele>
        <time>2020-06-05T11:45:49Z</time>
      </trkpt>
      <trkpt lat="47.18067" lon="-2.14809">
        <ele>25.1</ele>
        <time>2020-06-05T11:45:50Z</time>
      </trkpt>
      <trkpt lat="47.18068" lon="-2.14808">
        <ele>25.1</ele>
        <time>2020-06-05T11:45:51Z</time>
      </trkpt>
      <trkpt lat="47.18069" lon="-2.14807">
        <ele>25.1</ele>
        <time>2020-06-05T11:45:52Z</time>
      </trkpt>
      <trkpt lat="47.18069" lon="-2.14806">
        <ele>25.2</ele>
        <time>2020-06-05T11:45:53Z</time>
      </trkpt>
      <trkpt lat="47.1807" lon="-2.14804">
        <ele>25.2</ele>
        <time>2020-06-05T11:45:54Z</time>
      </trkpt>
      <trkpt lat="47.18072" lon="-2.14802">
        <ele>25.2</ele>
        <time>2020-06-05T11:45:55Z</time>
      </trkpt>
      <trkpt lat="47.18073" lon="-2.14801">
        <ele>25.3</ele>
        <time>2020-06-05T11:45:56Z</time>
      </trkpt>
      <trkpt lat="47.18076" lon="-2.14799">
        <ele>25.3</ele>
        <time>2020-06-05T11:45:57Z</time>
      </trkpt>
      <trkpt lat="47.18077" lon="-2.14799">
        <ele>25.4</ele>
        <time>2020-06-05T11:45:58Z</time>
      </trkpt>
      <trkpt lat="47.1808" lon="-2.14799">
        <ele>25.5</ele>
        <time>2020-06-05T11:45:59Z</time>
      </trkpt>
      <trkpt lat="47.18081" lon="-2.14799">
        <ele>25.5</ele>
        <time>2020-06-05T11:46:00Z</time>
      </trkpt>
      <trkpt lat="47.18084" lon="-2.14799">
        <ele>25.6</ele>
        <time>2020-06-05T11:46:01Z</time>
      </trkpt>
      <trkpt lat="47.18088" lon="-2.14799">
        <ele>25.7</ele>
        <time>2020-06-05T11:46:02Z</time>
      </trkpt>
      <trkpt lat="47.18089" lon="-2.14799">
        <ele>25.7</ele>
        <time>2020-06-05T11:46:03Z</time>
      </trkpt>
      <trkpt lat="47.18093" lon="-2.14797">
        <ele>25.8</ele>
        <time>2020-06-05T11:46:04Z</time>
      </trkpt>
      <trkpt lat="47.18096" lon="-2.14796">
        <ele>25.9</ele>
        <time>2020-06-05T11:46:05Z</time>
      </trkpt>
      <trkpt lat="47.18097" lon="-2.14795">
        <ele>25.9</ele>
        <time>2020-06-05T11:46:06Z</time>
      </trkpt>
      <trkpt lat="47.18101" lon="-2.14794">
        <ele>26</ele>
        <time>2020-06-05T11:46:07Z</time>
      </trkpt>
      <trkpt lat="47.18102" lon="-2.14795">
        <ele>26</ele>
        <time>2020-06-05T11:46:08Z</time>
      </trkpt>
      <trkpt lat="47.18103" lon="-2.14795">
        <ele>26.1</ele>
        <time>2020-06-05T11:46:09Z</time>
      </trkpt>
      <trkpt lat="47.18104" lon="-2.14795">
        <ele>26.1</ele>
        <time>2020-06-05T11:46:10Z</time>
      </trkpt>
      <trkpt lat="47.18105" lon="-2.14796">
        <ele>26.1</ele>
        <time>2020-06-05T11:46:11Z</time>
      </trkpt>
      <trkpt lat="47.18104" lon="-2.14799">
        <ele>26.2</ele>
        <time>2020-06-05T11:46:12Z</time>
      </trkpt>
      <trkpt lat="47.18105" lon="-2.14799">
        <ele>26.2</ele>
        <time>2020-06-05T11:46:13Z</time>
      </trkpt>
      <trkpt lat="47.18104" lon="-2.14799">
        <ele>26.2</ele>
        <time>2020-06-05T11:46:14Z</time>
      </trkpt>
      <trkpt lat="47.18103" lon="-2.148">
        <ele>26.2</ele>
        <time>2020-06-05T11:46:15Z</time>
      </trkpt>
      <trkpt lat="47.18102" lon="-2.14802">
        <ele>26.2</ele>
        <time>2020-06-05T11:46:16Z</time>
      </trkpt>
      <trkpt lat="47.18102" lon="-2.14804">
        <ele>26.3</ele>
        <time>2020-06-05T11:46:17Z</time>
      </trkpt>
      <trkpt lat="47.18103" lon="-2.14809">
        <ele>26.3</ele>
        <time>2020-06-05T11:46:18Z</time>
      </trkpt>
      <trkpt lat="47.18103" lon="-2.1481">
        <ele>26.4</ele>
        <time>2020-06-05T11:46:19Z</time>
      </trkpt>
      <trkpt lat="47.18104" lon="-2.14814">
        <ele>26.4</ele>
        <time>2020-06-05T11:46:20Z</time>
      </trkpt>
      <trkpt lat="47.18105" lon="-2.14815">
        <ele>26.4</ele>
        <time>2020-06-05T11:46:21Z</time>
      </trkpt>
      <trkpt lat="47.18106" lon="-2.1482">
        <ele>26.5</ele>
        <time>2020-06-05T11:46:22Z</time>
      </trkpt>
      <trkpt lat="47.18106" lon="-2.14821">
        <ele>26.5</ele>
        <time>2020-06-05T11:46:23Z</time>
      </trkpt>
      <trkpt lat="47.18106" lon="-2.14823">
        <ele>26.5</ele>
        <time>2020-06-05T11:46:24Z</time>
      </trkpt>
      <trkpt lat="47.18106" lon="-2.14825">
        <ele>26.6</ele>
        <time>2020-06-05T11:46:25Z</time>
      </trkpt>
      <trkpt lat="47.18105" lon="-2.14827">
        <ele>26.6</ele>
        <time>2020-06-05T11:46:26Z</time>
      </trkpt>
      <trkpt lat="47.18103" lon="-2.14829">
        <ele>26.6</ele>
        <time>2020-06-05T11:46:27Z</time>
      </trkpt>
      <trkpt lat="47.18101" lon="-2.14832">
        <ele>26.7</ele>
        <time>2020-06-05T11:46:28Z</time>
      </trkpt>
      <trkpt lat="47.181" lon="-2.14834">
        <ele>26.7</ele>
        <time>2020-06-05T11:46:29Z</time>
      </trkpt>
      <trkpt lat="47.181" lon="-2.14839">
        <ele>26.8</ele>
        <time>2020-06-05T11:46:30Z</time>
      </trkpt>
      <trkpt lat="47.181" lon="-2.14841">
        <ele>26.9</ele>
        <time>2020-06-05T11:46:31Z</time>
      </trkpt>
      <trkpt lat="47.18099" lon="-2.14846">
        <ele>27.1</ele>
        <time>2020-06-05T11:46:32Z</time>
      </trkpt>
      <trkpt lat="47.18098" lon="-2.14848">
        <ele>27.2</ele>
        <time>2020-06-05T11:46:33Z</time>
      </trkpt>
      <trkpt lat="47.18098" lon="-2.14852">
        <ele>27.4</ele>
        <time>2020-06-05T11:46:34Z</time>
      </trkpt>
      <trkpt lat="47.18097" lon="-2.14854">
        <ele>27.4</ele>
        <time>2020-06-05T11:46:35Z</time>
      </trkpt>
      <trkpt lat="47.18097" lon="-2.14856">
        <ele>27.5</ele>
        <time>2020-06-05T11:46:36Z</time>
      </trkpt>
      <trkpt lat="47.18098" lon="-2.14856">
        <ele>27.5</ele>
        <time>2020-06-05T11:46:37Z</time>
      </trkpt>
      <trkpt lat="47.18098" lon="-2.14855">
        <ele>27.6</ele>
        <time>2020-06-05T11:46:38Z</time>
      </trkpt>
      <trkpt lat="47.18099" lon="-2.14854">
        <ele>27.6</ele>
        <time>2020-06-05T11:46:39Z</time>
      </trkpt>
      <trkpt lat="47.181" lon="-2.14853">
        <ele>27.7</ele>
        <time>2020-06-05T11:46:40Z</time>
      </trkpt>
      <trkpt lat="47.181" lon="-2.14848">
        <ele>27.8</ele>
        <time>2020-06-05T11:46:41Z</time>
      </trkpt>
      <trkpt lat="47.181" lon="-2.14847">
        <ele>27.9</ele>
        <time>2020-06-05T11:46:42Z</time>
      </trkpt>
      <trkpt lat="47.18102" lon="-2.14845">
        <ele>28</ele>
        <time>2020-06-05T11:46:43Z</time>
      </trkpt>
      <trkpt lat="47.18104" lon="-2.14845">
        <ele>28</ele>
        <time>2020-06-05T11:46:44Z</time>
      </trkpt>
      <trkpt lat="47.18106" lon="-2.14846">
        <ele>28.1</ele>
        <time>2020-06-05T11:46:45Z</time>
      </trkpt>
      <trkpt lat="47.18106" lon="-2.14848">
        <ele>28.2</ele>
        <time>2020-06-05T11:46:46Z</time>
      </trkpt>
      <trkpt lat="47.18107" lon="-2.1485">
        <ele>28.2</ele>
        <time>2020-06-05T11:46:47Z</time>
      </trkpt>
      <trkpt lat="47.18108" lon="-2.14852">
        <ele>28.3</ele>
        <time>2020-06-05T11:46:48Z</time>
      </trkpt>
      <trkpt lat="47.18108" lon="-2.14855">
        <ele>28.3</ele>
        <time>2020-06-05T11:46:49Z</time>
      </trkpt>
      <trkpt lat="47.18109" lon="-2.14857">
        <ele>28.4</ele>
        <time>2020-06-05T11:46:50Z</time>
      </trkpt>
      <trkpt lat="47.18111" lon="-2.14861">
        <ele>28.5</ele>
        <time>2020-06-05T11:46:51Z</time>
      </trkpt>
      <trkpt lat="47.18112" lon="-2.14862">
        <ele>28.5</ele>
        <time>2020-06-05T11:46:52Z</time>
      </trkpt>
      <trkpt lat="47.18114" lon="-2.14864">
        <ele>28.6</ele>
        <time>2020-06-05T11:46:53Z</time>
      </trkpt>
      <trkpt lat="47.18115" lon="-2.14866">
        <ele>28.6</ele>
        <time>2020-06-05T11:46:54Z</time>
      </trkpt>
      <trkpt lat="47.18118" lon="-2.14868">
        <ele>28.7</ele>
        <time>2020-06-05T11:46:55Z</time>
      </trkpt>
      <trkpt lat="47.18119" lon="-2.14869">
        <ele>28.7</ele>
        <time>2020-06-05T11:46:56Z</time>
      </trkpt>
      <trkpt lat="47.1812" lon="-2.14871">
        <ele>28.7</ele>
        <time>2020-06-05T11:46:57Z</time>
      </trkpt>
      <trkpt lat="47.1812" lon="-2.14872">
        <ele>28.7</ele>
        <time>2020-06-05T11:46:58Z</time>
      </trkpt>
      <trkpt lat="47.18121" lon="-2.1487">
        <ele>28.7</ele>
        <time>2020-06-05T11:46:59Z</time>
      </trkpt>
      <trkpt lat="47.18122" lon="-2.1487">
        <ele>28.8</ele>
        <time>2020-06-05T11:47:00Z</time>
      </trkpt>
      <trkpt lat="47.18125" lon="-2.14869">
        <ele>28.8</ele>
        <time>2020-06-05T11:47:01Z</time>
      </trkpt>
      <trkpt lat="47.18128" lon="-2.14868">
        <ele>28.9</ele>
        <time>2020-06-05T11:47:02Z</time>
      </trkpt>
      <trkpt lat="47.18131" lon="-2.14867">
        <ele>28.9</ele>
        <time>2020-06-05T11:47:03Z</time>
      </trkpt>
      <trkpt lat="47.18135" lon="-2.14866">
        <ele>29</ele>
        <time>2020-06-05T11:47:04Z</time>
      </trkpt>
      <trkpt lat="47.18138" lon="-2.14864">
        <ele>29</ele>
        <time>2020-06-05T11:47:05Z</time>
      </trkpt>
      <trkpt lat="47.18141" lon="-2.14863">
        <ele>29.1</ele>
        <time>2020-06-05T11:47:06Z</time>
      </trkpt>
      <trkpt lat="47.18142" lon="-2.14862">
        <ele>29.1</ele>
        <time>2020-06-05T11:47:07Z</time>
      </trkpt>
      <trkpt lat="47.18143" lon="-2.14861">
        <ele>29.1</ele>
        <time>2020-06-05T11:47:08Z</time>
      </trkpt>
      <trkpt lat="47.18144" lon="-2.14861">
        <ele>29.2</ele>
        <time>2020-06-05T11:47:09Z</time>
      </trkpt>
      <trkpt lat="47.18148" lon="-2.14861">
        <ele>29.2</ele>
        <time>2020-06-05T11:47:10Z</time>
      </trkpt>
      <trkpt lat="47.1815" lon="-2.14861">
        <ele>29.2</ele>
        <time>2020-06-05T11:47:11Z</time>
      </trkpt>
      <trkpt lat="47.18153" lon="-2.1486">
        <ele>29.2</ele>
        <time>2020-06-05T11:47:12Z</time>
      </trkpt>
      <trkpt lat="47.18154" lon="-2.14859">
        <ele>29.2</ele>
        <time>2020-06-05T11:47:13Z</time>
      </trkpt>
      <trkpt lat="47.18156" lon="-2.14859">
        <ele>29.2</ele>
        <time>2020-06-05T11:47:14Z</time>
      </trkpt>
      <trkpt lat="47.18157" lon="-2.14857">
        <ele>29.2</ele>
        <time>2020-06-05T11:47:15Z</time>
      </trkpt>
      <trkpt lat="47.18159" lon="-2.14855">
        <ele>29.2</ele>
        <time>2020-06-05T11:47:16Z</time>
      </trkpt>
      <trkpt lat="47.1816" lon="-2.14854">
        <ele>29.2</ele>
        <time>2020-06-05T11:47:17Z</time>
      </trkpt>
      <trkpt lat="47.18162" lon="-2.14852">
        <ele>29.2</ele>
        <time>2020-06-05T11:47:18Z</time>
      </trkpt>
      <trkpt lat="47.18163" lon="-2.14851">
        <ele>29.2</ele>
        <time>2020-06-05T11:47:19Z</time>
      </trkpt>
      <trkpt lat="47.18166" lon="-2.14851">
        <ele>29.2</ele>
        <time>2020-06-05T11:47:20Z</time>
      </trkpt>
      <trkpt lat="47.18167" lon="-2.1485">
        <ele>29.2</ele>
        <time>2020-06-05T11:47:21Z</time>
      </trkpt>
      <trkpt lat="47.18171" lon="-2.14848">
        <ele>29.2</ele>
        <time>2020-06-05T11:47:22Z</time>
      </trkpt>
      <trkpt lat="47.18172" lon="-2.14848">
        <ele>29.2</ele>
        <time>2020-06-05T11:47:23Z</time>
      </trkpt>
      <trkpt lat="47.18175" lon="-2.14846">
        <ele>29.2</ele>
        <time>2020-06-05T11:47:24Z</time>
      </trkpt>
      <trkpt lat="47.18178" lon="-2.14847">
        <ele>29.2</ele>
        <time>2020-06-05T11:47:25Z</time>
      </trkpt>
      <trkpt lat="47.18179" lon="-2.14847">
        <ele>29.3</ele>
        <time>2020-06-05T11:47:26Z</time>
      </trkpt>
      <trkpt lat="47.18181" lon="-2.14847">
        <ele>29.3</ele>
        <time>2020-06-05T11:47:27Z</time>
      </trkpt>
      <trkpt lat="47.18182" lon="-2.14848">
        <ele>29.3</ele>
        <time>2020-06-05T11:47:28Z</time>
      </trkpt>
      <trkpt lat="47.18183" lon="-2.14849">
        <ele>29.3</ele>
        <time>2020-06-05T11:47:29Z</time>
      </trkpt>
      <trkpt lat="47.18183" lon="-2.14849">
        <ele>29.3</ele>
        <time>2020-06-05T11:47:30Z</time>
      </trkpt>
      <trkpt lat="47.18183" lon="-2.1485">
        <ele>29.3</ele>
        <time>2020-06-05T11:47:31Z</time>
      </trkpt>
      <trkpt lat="47.18184" lon="-2.1485">
        <ele>29.3</ele>
        <time>2020-06-05T11:47:32Z</time>
      </trkpt>
      <trkpt lat="47.18184" lon="-2.14851">
        <ele>29.3</ele>
        <time>2020-06-05T11:47:33Z</time>
      </trkpt>
      <trkpt lat="47.18185" lon="-2.14852">
        <ele>29.3</ele>
        <time>2020-06-05T11:47:34Z</time>
      </trkpt>
      <trkpt lat="47.18186" lon="-2.14852">
        <ele>29.3</ele>
        <time>2020-06-05T11:47:35Z</time>
      </trkpt>
      <trkpt lat="47.18187" lon="-2.14852">
        <ele>29.4</ele>
        <time>2020-06-05T11:47:36Z</time>
      </trkpt>
      <trkpt lat="47.1819" lon="-2.14851">
        <ele>29.5</ele>
        <time>2020-06-05T11:47:37Z</time>
      </trkpt>
      <trkpt lat="47.18191" lon="-2.14851">
        <ele>29.5</ele>
        <time>2020-06-05T11:47:38Z</time>
      </trkpt>
      <trkpt lat="47.18194" lon="-2.14851">
        <ele>29.6</ele>
        <time>2020-06-05T11:47:39Z</time>
      </trkpt>
      <trkpt lat="47.18198" lon="-2.1485">
        <ele>29.7</ele>
        <time>2020-06-05T11:47:40Z</time>
      </trkpt>
      <trkpt lat="47.18201" lon="-2.14849">
        <ele>29.8</ele>
        <time>2020-06-05T11:47:41Z</time>
      </trkpt>
      <trkpt lat="47.18204" lon="-2.14849">
        <ele>29.9</ele>
        <time>2020-06-05T11:47:42Z</time>
      </trkpt>
      <trkpt lat="47.18208" lon="-2.14848">
        <ele>30</ele>
        <time>2020-06-05T11:47:43Z</time>
      </trkpt>
      <trkpt lat="47.18212" lon="-2.14847">
        <ele>30.1</ele>
        <time>2020-06-05T11:47:44Z</time>
      </trkpt>
      <trkpt lat="47.18215" lon="-2.14847">
        <ele>30.2</ele>
        <time>2020-06-05T11:47:45Z</time>
      </trkpt>
      <trkpt lat="47.18219" lon="-2.14845">
        <ele>30.3</ele>
        <time>2020-06-05T11:47:46Z</time>
      </trkpt>
      <trkpt lat="47.18221" lon="-2.14845">
        <ele>30.4</ele>
        <time>2020-06-05T11:47:47Z</time>
      </trkpt>
      <trkpt lat="47.18224" lon="-2.14843">
        <ele>30.5</ele>
        <time>2020-06-05T11:47:48Z</time>
      </trkpt>
      <trkpt lat="47.18228" lon="-2.14842">
        <ele>30.5</ele>
        <time>2020-06-05T11:47:49Z</time>
      </trkpt>
      <trkpt lat="47.18231" lon="-2.14841">
        <ele>30.6</ele>
        <time>2020-06-05T11:47:50Z</time>
      </trkpt>
      <trkpt lat="47.18233" lon="-2.1484">
        <ele>30.6</ele>
        <time>2020-06-05T11:47:51Z</time>
      </trkpt>
      <trkpt lat="47.18237" lon="-2.14839">
        <ele>30.7</ele>
        <time>2020-06-05T11:47:52Z</time>
      </trkpt>
      <trkpt lat="47.1824" lon="-2.14838">
        <ele>30.7</ele>
        <time>2020-06-05T11:47:53Z</time>
      </trkpt>
      <trkpt lat="47.18243" lon="-2.14837">
        <ele>30.8</ele>
        <time>2020-06-05T11:47:54Z</time>
      </trkpt>
      <trkpt lat="47.18246" lon="-2.14837">
        <ele>30.8</ele>
        <time>2020-06-05T11:47:55Z</time>
      </trkpt>
      <trkpt lat="47.18248" lon="-2.14837">
        <ele>30.9</ele>
        <time>2020-06-05T11:47:56Z</time>
      </trkpt>
      <trkpt lat="47.18252" lon="-2.14837">
        <ele>30.9</ele>
        <time>2020-06-05T11:47:57Z</time>
      </trkpt>
      <trkpt lat="47.18254" lon="-2.1484">
        <ele>30.9</ele>
        <time>2020-06-05T11:47:58Z</time>
      </trkpt>
      <trkpt lat="47.18256" lon="-2.14844">
        <ele>30.8</ele>
        <time>2020-06-05T11:47:59Z</time>
      </trkpt>
      <trkpt lat="47.18256" lon="-2.1485">
        <ele>30.8</ele>
        <time>2020-06-05T11:48:00Z</time>
      </trkpt>
      <trkpt lat="47.18257" lon="-2.14855">
        <ele>30.8</ele>
        <time>2020-06-05T11:48:01Z</time>
      </trkpt>
      <trkpt lat="47.18257" lon="-2.14859">
        <ele>30.7</ele>
        <time>2020-06-05T11:48:02Z</time>
      </trkpt>
      <trkpt lat="47.18257" lon="-2.14864">
        <ele>30.7</ele>
        <time>2020-06-05T11:48:03Z</time>
      </trkpt>
      <trkpt lat="47.18257" lon="-2.1487">
        <ele>30.7</ele>
        <time>2020-06-05T11:48:04Z</time>
      </trkpt>
      <trkpt lat="47.18257" lon="-2.14874">
        <ele>30.6</ele>
        <time>2020-06-05T11:48:05Z</time>
      </trkpt>
      <trkpt lat="47.18257" lon="-2.1488">
        <ele>30.6</ele>
        <time>2020-06-05T11:48:06Z</time>
      </trkpt>
      <trkpt lat="47.18255" lon="-2.14886">
        <ele>30.6</ele>
        <time>2020-06-05T11:48:07Z</time>
      </trkpt>
      <trkpt lat="47.18254" lon="-2.14891">
        <ele>30.5</ele>
        <time>2020-06-05T11:48:08Z</time>
      </trkpt>
      <trkpt lat="47.18253" lon="-2.14898">
        <ele>30.5</ele>
        <time>2020-06-05T11:48:09Z</time>
      </trkpt>
      <trkpt lat="47.18252" lon="-2.14904">
        <ele>30.4</ele>
        <time>2020-06-05T11:48:10Z</time>
      </trkpt>
      <trkpt lat="47.1825" lon="-2.14911">
        <ele>30.4</ele>
        <time>2020-06-05T11:48:11Z</time>
      </trkpt>
      <trkpt lat="47.1825" lon="-2.14918">
        <ele>30.4</ele>
        <time>2020-06-05T11:48:12Z</time>
      </trkpt>
      <trkpt lat="47.18249" lon="-2.14925">
        <ele>30.3</ele>
        <time>2020-06-05T11:48:13Z</time>
      </trkpt>
      <trkpt lat="47.18248" lon="-2.14932">
        <ele>30.3</ele>
        <time>2020-06-05T11:48:14Z</time>
      </trkpt>
      <trkpt lat="47.18247" lon="-2.14938">
        <ele>30.2</ele>
        <time>2020-06-05T11:48:15Z</time>
      </trkpt>
      <trkpt lat="47.18246" lon="-2.14944">
        <ele>30.2</ele>
        <time>2020-06-05T11:48:16Z</time>
      </trkpt>
      <trkpt lat="47.18244" lon="-2.1495">
        <ele>30.2</ele>
        <time>2020-06-05T11:48:17Z</time>
      </trkpt>
      <trkpt lat="47.18243" lon="-2.14956">
        <ele>30.1</ele>
        <time>2020-06-05T11:48:18Z</time>
      </trkpt>
      <trkpt lat="47.18241" lon="-2.14961">
        <ele>30.1</ele>
        <time>2020-06-05T11:48:19Z</time>
      </trkpt>
      <trkpt lat="47.1824" lon="-2.14967">
        <ele>30</ele>
        <time>2020-06-05T11:48:20Z</time>
      </trkpt>
      <trkpt lat="47.18239" lon="-2.14973">
        <ele>30</ele>
        <time>2020-06-05T11:48:21Z</time>
      </trkpt>
      <trkpt lat="47.18238" lon="-2.1498">
        <ele>29.9</ele>
        <time>2020-06-05T11:48:22Z</time>
      </trkpt>
      <trkpt lat="47.18236" lon="-2.14986">
        <ele>29.9</ele>
        <time>2020-06-05T11:48:23Z</time>
      </trkpt>
      <trkpt lat="47.18236" lon="-2.14993">
        <ele>29.8</ele>
        <time>2020-06-05T11:48:24Z</time>
      </trkpt>
      <trkpt lat="47.18235" lon="-2.15001">
        <ele>29.8</ele>
        <time>2020-06-05T11:48:25Z</time>
      </trkpt>
      <trkpt lat="47.18234" lon="-2.15008">
        <ele>29.7</ele>
        <time>2020-06-05T11:48:26Z</time>
      </trkpt>
      <trkpt lat="47.18233" lon="-2.15013">
        <ele>29.7</ele>
        <time>2020-06-05T11:48:27Z</time>
      </trkpt>
      <trkpt lat="47.18232" lon="-2.15019">
        <ele>29.7</ele>
        <time>2020-06-05T11:48:28Z</time>
      </trkpt>
      <trkpt lat="47.18231" lon="-2.15025">
        <ele>29.7</ele>
        <time>2020-06-05T11:48:29Z</time>
      </trkpt>
      <trkpt lat="47.18231" lon="-2.15032">
        <ele>29.5</ele>
        <time>2020-06-05T11:48:30Z</time>
      </trkpt>
      <trkpt lat="47.18232" lon="-2.15037">
        <ele>29.4</ele>
        <time>2020-06-05T11:48:31Z</time>
      </trkpt>
      <trkpt lat="47.18235" lon="-2.15041">
        <ele>29.3</ele>
        <time>2020-06-05T11:48:32Z</time>
      </trkpt>
      <trkpt lat="47.18239" lon="-2.15045">
        <ele>29</ele>
        <time>2020-06-05T11:48:33Z</time>
      </trkpt>
      <trkpt lat="47.18243" lon="-2.15047">
        <ele>28.9</ele>
        <time>2020-06-05T11:48:34Z</time>
      </trkpt>
      <trkpt lat="47.18247" lon="-2.1505">
        <ele>28.7</ele>
        <time>2020-06-05T11:48:35Z</time>
      </trkpt>
      <trkpt lat="47.18252" lon="-2.15053">
        <ele>28.5</ele>
        <time>2020-06-05T11:48:36Z</time>
      </trkpt>
      <trkpt lat="47.18256" lon="-2.15057">
        <ele>28.4</ele>
        <time>2020-06-05T11:48:37Z</time>
      </trkpt>
      <trkpt lat="47.18261" lon="-2.15058">
        <ele>28.2</ele>
        <time>2020-06-05T11:48:38Z</time>
      </trkpt>
      <trkpt lat="47.18265" lon="-2.15061">
        <ele>28.1</ele>
        <time>2020-06-05T11:48:39Z</time>
      </trkpt>
      <trkpt lat="47.1827" lon="-2.15064">
        <ele>28</ele>
        <time>2020-06-05T11:48:40Z</time>
      </trkpt>
      <trkpt lat="47.18274" lon="-2.15067">
        <ele>27.9</ele>
        <time>2020-06-05T11:48:41Z</time>
      </trkpt>
      <trkpt lat="47.18279" lon="-2.1507">
        <ele>27.8</ele>
        <time>2020-06-05T11:48:42Z</time>
      </trkpt>
      <trkpt lat="47.18283" lon="-2.15072">
        <ele>27.7</ele>
        <time>2020-06-05T11:48:43Z</time>
      </trkpt>
      <trkpt lat="47.18288" lon="-2.15071">
        <ele>27.7</ele>
        <time>2020-06-05T11:48:44Z</time>
      </trkpt>
      <trkpt lat="47.18293" lon="-2.1507">
        <ele>27.6</ele>
        <time>2020-06-05T11:48:45Z</time>
      </trkpt>
      <trkpt lat="47.18298" lon="-2.15067">
        <ele>27.5</ele>
        <time>2020-06-05T11:48:46Z</time>
      </trkpt>
      <trkpt lat="47.18303" lon="-2.15063">
        <ele>27.4</ele>
        <time>2020-06-05T11:48:47Z</time>
      </trkpt>
      <trkpt lat="47.18307" lon="-2.15059">
        <ele>27.3</ele>
        <time>2020-06-05T11:48:48Z</time>
      </trkpt>
      <trkpt lat="47.18312" lon="-2.15055">
        <ele>27.3</ele>
        <time>2020-06-05T11:48:49Z</time>
      </trkpt>
      <trkpt lat="47.18316" lon="-2.15052">
        <ele>27.3</ele>
        <time>2020-06-05T11:48:50Z</time>
      </trkpt>
      <trkpt lat="47.1832" lon="-2.15049">
        <ele>27.2</ele>
        <time>2020-06-05T11:48:51Z</time>
      </trkpt>
      <trkpt lat="47.18324" lon="-2.15047">
        <ele>27.2</ele>
        <time>2020-06-05T11:48:52Z</time>
      </trkpt>
      <trkpt lat="47.18328" lon="-2.15045">
        <ele>27.2</ele>
        <time>2020-06-05T11:48:53Z</time>
      </trkpt>
      <trkpt lat="47.18332" lon="-2.15043">
        <ele>27.2</ele>
        <time>2020-06-05T11:48:54Z</time>
      </trkpt>
      <trkpt lat="47.18336" lon="-2.1504">
        <ele>27.2</ele>
        <time>2020-06-05T11:48:55Z</time>
      </trkpt>
      <trkpt lat="47.18341" lon="-2.15037">
        <ele>27.1</ele>
        <time>2020-06-05T11:48:56Z</time>
      </trkpt>
      <trkpt lat="47.18345" lon="-2.15035">
        <ele>27.1</ele>
        <time>2020-06-05T11:48:57Z</time>
      </trkpt>
      <trkpt lat="47.18349" lon="-2.15032">
        <ele>27.1</ele>
        <time>2020-06-05T11:48:58Z</time>
      </trkpt>
      <trkpt lat="47.18354" lon="-2.15029">
        <ele>27.1</ele>
        <time>2020-06-05T11:48:59Z</time>
      </trkpt>
      <trkpt lat="47.18358" lon="-2.15026">
        <ele>27</ele>
        <time>2020-06-05T11:49:00Z</time>
      </trkpt>
      <trkpt lat="47.18363" lon="-2.15023">
        <ele>27</ele>
        <time>2020-06-05T11:49:01Z</time>
      </trkpt>
      <trkpt lat="47.18368" lon="-2.15021">
        <ele>26.9</ele>
        <time>2020-06-05T11:49:02Z</time>
      </trkpt>
      <trkpt lat="47.18374" lon="-2.15019">
        <ele>26.8</ele>
        <time>2020-06-05T11:49:03Z</time>
      </trkpt>
      <trkpt lat="47.18378" lon="-2.15018">
        <ele>26.8</ele>
        <time>2020-06-05T11:49:04Z</time>
      </trkpt>
      <trkpt lat="47.18383" lon="-2.15016">
        <ele>26.7</ele>
        <time>2020-06-05T11:49:05Z</time>
      </trkpt>
      <trkpt lat="47.18389" lon="-2.15014">
        <ele>26.6</ele>
        <time>2020-06-05T11:49:06Z</time>
      </trkpt>
      <trkpt lat="47.18394" lon="-2.15011">
        <ele>26.5</ele>
        <time>2020-06-05T11:49:07Z</time>
      </trkpt>
      <trkpt lat="47.184" lon="-2.15009">
        <ele>26.4</ele>
        <time>2020-06-05T11:49:08Z</time>
      </trkpt>
      <trkpt lat="47.18405" lon="-2.15006">
        <ele>26.3</ele>
        <time>2020-06-05T11:49:09Z</time>
      </trkpt>
      <trkpt lat="47.18411" lon="-2.15004">
        <ele>26.2</ele>
        <time>2020-06-05T11:49:10Z</time>
      </trkpt>
      <trkpt lat="47.18416" lon="-2.15002">
        <ele>26.2</ele>
        <time>2020-06-05T11:49:11Z</time>
      </trkpt>
      <trkpt lat="47.1842" lon="-2.14999">
        <ele>26.2</ele>
        <time>2020-06-05T11:49:12Z</time>
      </trkpt>
      <trkpt lat="47.18425" lon="-2.14996">
        <ele>26.2</ele>
        <time>2020-06-05T11:49:13Z</time>
      </trkpt>
      <trkpt lat="47.1843" lon="-2.14993">
        <ele>26.1</ele>
        <time>2020-06-05T11:49:14Z</time>
      </trkpt>
      <trkpt lat="47.18434" lon="-2.1499">
        <ele>26</ele>
        <time>2020-06-05T11:49:15Z</time>
      </trkpt>
      <trkpt lat="47.18439" lon="-2.14987">
        <ele>25.9</ele>
        <time>2020-06-05T11:49:16Z</time>
      </trkpt>
      <trkpt lat="47.18444" lon="-2.14982">
        <ele>25.8</ele>
        <time>2020-06-05T11:49:17Z</time>
      </trkpt>
      <trkpt lat="47.18449" lon="-2.14979">
        <ele>25.7</ele>
        <time>2020-06-05T11:49:18Z</time>
      </trkpt>
      <trkpt lat="47.18454" lon="-2.14975">
        <ele>25.6</ele>
        <time>2020-06-05T11:49:19Z</time>
      </trkpt>
      <trkpt lat="47.18458" lon="-2.14972">
        <ele>25.6</ele>
        <time>2020-06-05T11:49:20Z</time>
      </trkpt>
      <trkpt lat="47.18462" lon="-2.14969">
        <ele>25.5</ele>
        <time>2020-06-05T11:49:21Z</time>
      </trkpt>
      <trkpt lat="47.18466" lon="-2.14967">
        <ele>25.5</ele>
        <time>2020-06-05T11:49:22Z</time>
      </trkpt>
      <trkpt lat="47.18472" lon="-2.14964">
        <ele>25.4</ele>
        <time>2020-06-05T11:49:23Z</time>
      </trkpt>
      <trkpt lat="47.18477" lon="-2.14961">
        <ele>25.4</ele>
        <time>2020-06-05T11:49:24Z</time>
      </trkpt>
      <trkpt lat="47.18482" lon="-2.14957">
        <ele>25.4</ele>
        <time>2020-06-05T11:49:25Z</time>
      </trkpt>
      <trkpt lat="47.18488" lon="-2.14955">
        <ele>25.4</ele>
        <time>2020-06-05T11:49:26Z</time>
      </trkpt>
      <trkpt lat="47.18493" lon="-2.14953">
        <ele>25.4</ele>
        <time>2020-06-05T11:49:27Z</time>
      </trkpt>
      <trkpt lat="47.18498" lon="-2.14951">
        <ele>25.5</ele>
        <time>2020-06-05T11:49:28Z</time>
      </trkpt>
      <trkpt lat="47.18502" lon="-2.1495">
        <ele>25.5</ele>
        <time>2020-06-05T11:49:29Z</time>
      </trkpt>
      <trkpt lat="47.18507" lon="-2.14949">
        <ele>25.5</ele>
        <time>2020-06-05T11:49:30Z</time>
      </trkpt>
      <trkpt lat="47.18512" lon="-2.14947">
        <ele>25.5</ele>
        <time>2020-06-05T11:49:31Z</time>
      </trkpt>
      <trkpt lat="47.18517" lon="-2.14946">
        <ele>25.5</ele>
        <time>2020-06-05T11:49:32Z</time>
      </trkpt>
      <trkpt lat="47.1852" lon="-2.14945">
        <ele>25.6</ele>
        <time>2020-06-05T11:49:33Z</time>
      </trkpt>
      <trkpt lat="47.18523" lon="-2.14944">
        <ele>25.6</ele>
        <time>2020-06-05T11:49:34Z</time>
      </trkpt>
      <trkpt lat="47.18526" lon="-2.14941">
        <ele>25.6</ele>
        <time>2020-06-05T11:49:35Z</time>
      </trkpt>
      <trkpt lat="47.18528" lon="-2.14939">
        <ele>25.6</ele>
        <time>2020-06-05T11:49:36Z</time>
      </trkpt>
      <trkpt lat="47.18531" lon="-2.14938">
        <ele>25.6</ele>
        <time>2020-06-05T11:49:37Z</time>
      </trkpt>
      <trkpt lat="47.18534" lon="-2.14937">
        <ele>25.7</ele>
        <time>2020-06-05T11:49:38Z</time>
      </trkpt>
      <trkpt lat="47.18538" lon="-2.14934">
        <ele>25.7</ele>
        <time>2020-06-05T11:49:39Z</time>
      </trkpt>
      <trkpt lat="47.18539" lon="-2.14934">
        <ele>25.7</ele>
        <time>2020-06-05T11:49:40Z</time>
      </trkpt>
      <trkpt lat="47.18542" lon="-2.14933">
        <ele>25.7</ele>
        <time>2020-06-05T11:49:41Z</time>
      </trkpt>
      <trkpt lat="47.18545" lon="-2.14932">
        <ele>25.7</ele>
        <time>2020-06-05T11:49:42Z</time>
      </trkpt>
      <trkpt lat="47.18549" lon="-2.14932">
        <ele>25.7</ele>
        <time>2020-06-05T11:49:43Z</time>
      </trkpt>
      <trkpt lat="47.18552" lon="-2.14931">
        <ele>25.8</ele>
        <time>2020-06-05T11:49:44Z</time>
      </trkpt>
      <trkpt lat="47.18555" lon="-2.1493">
        <ele>25.8</ele>
        <time>2020-06-05T11:49:45Z</time>
      </trkpt>
      <trkpt lat="47.18559" lon="-2.14929">
        <ele>25.9</ele>
        <time>2020-06-05T11:49:46Z</time>
      </trkpt>
      <trkpt lat="47.18561" lon="-2.14927">
        <ele>25.9</ele>
        <time>2020-06-05T11:49:47Z</time>
      </trkpt>
      <trkpt lat="47.18565" lon="-2.14926">
        <ele>26</ele>
        <time>2020-06-05T11:49:48Z</time>
      </trkpt>
      <trkpt lat="47.18569" lon="-2.14925">
        <ele>26.1</ele>
        <time>2020-06-05T11:49:49Z</time>
      </trkpt>
      <trkpt lat="47.18572" lon="-2.14924">
        <ele>26.1</ele>
        <time>2020-06-05T11:49:50Z</time>
      </trkpt>
      <trkpt lat="47.18576" lon="-2.14924">
        <ele>26.2</ele>
        <time>2020-06-05T11:49:51Z</time>
      </trkpt>
      <trkpt lat="47.18579" lon="-2.14924">
        <ele>26.3</ele>
        <time>2020-06-05T11:49:52Z</time>
      </trkpt>
      <trkpt lat="47.18583" lon="-2.14924">
        <ele>26.4</ele>
        <time>2020-06-05T11:49:53Z</time>
      </trkpt>
      <trkpt lat="47.18586" lon="-2.14925">
        <ele>26.5</ele>
        <time>2020-06-05T11:49:54Z</time>
      </trkpt>
      <trkpt lat="47.18589" lon="-2.14925">
        <ele>26.5</ele>
        <time>2020-06-05T11:49:55Z</time>
      </trkpt>
      <trkpt lat="47.18592" lon="-2.14924">
        <ele>26.6</ele>
        <time>2020-06-05T11:49:56Z</time>
      </trkpt>
      <trkpt lat="47.18593" lon="-2.14924">
        <ele>26.6</ele>
        <time>2020-06-05T11:49:57Z</time>
      </trkpt>
      <trkpt lat="47.18596" lon="-2.14924">
        <ele>26.7</ele>
        <time>2020-06-05T11:49:58Z</time>
      </trkpt>
      <trkpt lat="47.18599" lon="-2.14924">
        <ele>26.7</ele>
        <time>2020-06-05T11:49:59Z</time>
      </trkpt>
      <trkpt lat="47.18602" lon="-2.14924">
        <ele>26.7</ele>
        <time>2020-06-05T11:50:00Z</time>
      </trkpt>
      <trkpt lat="47.18605" lon="-2.14925">
        <ele>26.8</ele>
        <time>2020-06-05T11:50:01Z</time>
      </trkpt>
      <trkpt lat="47.18606" lon="-2.14924">
        <ele>26.8</ele>
        <time>2020-06-05T11:50:02Z</time>
      </trkpt>
      <trkpt lat="47.1861" lon="-2.14922">
        <ele>26.8</ele>
        <time>2020-06-05T11:50:03Z</time>
      </trkpt>
      <trkpt lat="47.18611" lon="-2.14922">
        <ele>26.8</ele>
        <time>2020-06-05T11:50:04Z</time>
      </trkpt>
      <trkpt lat="47.18615" lon="-2.14921">
        <ele>26.9</ele>
        <time>2020-06-05T11:50:05Z</time>
      </trkpt>
      <trkpt lat="47.18617" lon="-2.14921">
        <ele>26.9</ele>
        <time>2020-06-05T11:50:06Z</time>
      </trkpt>
      <trkpt lat="47.18621" lon="-2.1492">
        <ele>26.9</ele>
        <time>2020-06-05T11:50:07Z</time>
      </trkpt>
      <trkpt lat="47.18622" lon="-2.14919">
        <ele>26.9</ele>
        <time>2020-06-05T11:50:08Z</time>
      </trkpt>
      <trkpt lat="47.18627" lon="-2.14919">
        <ele>27</ele>
        <time>2020-06-05T11:50:09Z</time>
      </trkpt>
      <trkpt lat="47.18631" lon="-2.14919">
        <ele>27</ele>
        <time>2020-06-05T11:50:10Z</time>
      </trkpt>
      <trkpt lat="47.18635" lon="-2.14918">
        <ele>27.1</ele>
        <time>2020-06-05T11:50:11Z</time>
      </trkpt>
      <trkpt lat="47.18638" lon="-2.14918">
        <ele>27.1</ele>
        <time>2020-06-05T11:50:12Z</time>
      </trkpt>
      <trkpt lat="47.18641" lon="-2.14917">
        <ele>27.2</ele>
        <time>2020-06-05T11:50:13Z</time>
      </trkpt>
      <trkpt lat="47.18644" lon="-2.14916">
        <ele>27.2</ele>
        <time>2020-06-05T11:50:14Z</time>
      </trkpt>
      <trkpt lat="47.18648" lon="-2.14915">
        <ele>27.2</ele>
        <time>2020-06-05T11:50:15Z</time>
      </trkpt>
      <trkpt lat="47.18652" lon="-2.14914">
        <ele>27.2</ele>
        <time>2020-06-05T11:50:16Z</time>
      </trkpt>
      <trkpt lat="47.18657" lon="-2.14912">
        <ele>27.3</ele>
        <time>2020-06-05T11:50:17Z</time>
      </trkpt>
      <trkpt lat="47.1866" lon="-2.1491">
        <ele>27.3</ele>
        <time>2020-06-05T11:50:18Z</time>
      </trkpt>
      <trkpt lat="47.18663" lon="-2.14909">
        <ele>27.3</ele>
        <time>2020-06-05T11:50:19Z</time>
      </trkpt>
      <trkpt lat="47.18667" lon="-2.1491">
        <ele>27.4</ele>
        <time>2020-06-05T11:50:20Z</time>
      </trkpt>
      <trkpt lat="47.18668" lon="-2.14909">
        <ele>27.4</ele>
        <time>2020-06-05T11:50:21Z</time>
      </trkpt>
      <trkpt lat="47.18672" lon="-2.14907">
        <ele>27.4</ele>
        <time>2020-06-05T11:50:22Z</time>
      </trkpt>
      <trkpt lat="47.18673" lon="-2.14907">
        <ele>27.4</ele>
        <time>2020-06-05T11:50:23Z</time>
      </trkpt>
      <trkpt lat="47.18676" lon="-2.14903">
        <ele>27.4</ele>
        <time>2020-06-05T11:50:24Z</time>
      </trkpt>
      <trkpt lat="47.18677" lon="-2.14901">
        <ele>27.4</ele>
        <time>2020-06-05T11:50:25Z</time>
      </trkpt>
      <trkpt lat="47.18681" lon="-2.14899">
        <ele>27.4</ele>
        <time>2020-06-05T11:50:26Z</time>
      </trkpt>
      <trkpt lat="47.18682" lon="-2.14898">
        <ele>27.4</ele>
        <time>2020-06-05T11:50:27Z</time>
      </trkpt>
      <trkpt lat="47.18686" lon="-2.14898">
        <ele>27.4</ele>
        <time>2020-06-05T11:50:28Z</time>
      </trkpt>
      <trkpt lat="47.18688" lon="-2.14897">
        <ele>27.4</ele>
        <time>2020-06-05T11:50:29Z</time>
      </trkpt>
      <trkpt lat="47.18691" lon="-2.14895">
        <ele>27.4</ele>
        <time>2020-06-05T11:50:30Z</time>
      </trkpt>
      <trkpt lat="47.18694" lon="-2.14894">
        <ele>27.4</ele>
        <time>2020-06-05T11:50:31Z</time>
      </trkpt>
      <trkpt lat="47.18698" lon="-2.14894">
        <ele>27.4</ele>
        <time>2020-06-05T11:50:32Z</time>
      </trkpt>
      <trkpt lat="47.18702" lon="-2.14893">
        <ele>27.4</ele>
        <time>2020-06-05T11:50:33Z</time>
      </trkpt>
      <trkpt lat="47.18707" lon="-2.14891">
        <ele>27.4</ele>
        <time>2020-06-05T11:50:34Z</time>
      </trkpt>
      <trkpt lat="47.18712" lon="-2.1489">
        <ele>27.4</ele>
        <time>2020-06-05T11:50:35Z</time>
      </trkpt>
      <trkpt lat="47.18718" lon="-2.14888">
        <ele>27.4</ele>
        <time>2020-06-05T11:50:36Z</time>
      </trkpt>
      <trkpt lat="47.18722" lon="-2.14887">
        <ele>27.4</ele>
        <time>2020-06-05T11:50:37Z</time>
      </trkpt>
      <trkpt lat="47.18727" lon="-2.14886">
        <ele>27.4</ele>
        <time>2020-06-05T11:50:38Z</time>
      </trkpt>
      <trkpt lat="47.18731" lon="-2.14885">
        <ele>27.4</ele>
        <time>2020-06-05T11:50:39Z</time>
      </trkpt>
      <trkpt lat="47.18735" lon="-2.14884">
        <ele>27.4</ele>
        <time>2020-06-05T11:50:40Z</time>
      </trkpt>
      <trkpt lat="47.18741" lon="-2.14883">
        <ele>27.5</ele>
        <time>2020-06-05T11:50:41Z</time>
      </trkpt>
      <trkpt lat="47.18746" lon="-2.14883">
        <ele>27.5</ele>
        <time>2020-06-05T11:50:42Z</time>
      </trkpt>
      <trkpt lat="47.1875" lon="-2.14882">
        <ele>27.5</ele>
        <time>2020-06-05T11:50:43Z</time>
      </trkpt>
      <trkpt lat="47.18755" lon="-2.14881">
        <ele>27.5</ele>
        <time>2020-06-05T11:50:44Z</time>
      </trkpt>
      <trkpt lat="47.18759" lon="-2.14881">
        <ele>27.5</ele>
        <time>2020-06-05T11:50:45Z</time>
      </trkpt>
      <trkpt lat="47.18765" lon="-2.14879">
        <ele>27.6</ele>
        <time>2020-06-05T11:50:46Z</time>
      </trkpt>
      <trkpt lat="47.1877" lon="-2.14877">
        <ele>27.6</ele>
        <time>2020-06-05T11:50:47Z</time>
      </trkpt>
      <trkpt lat="47.18775" lon="-2.14877">
        <ele>27.7</ele>
        <time>2020-06-05T11:50:48Z</time>
      </trkpt>
      <trkpt lat="47.18779" lon="-2.14877">
        <ele>27.8</ele>
        <time>2020-06-05T11:50:49Z</time>
      </trkpt>
      <trkpt lat="47.18783" lon="-2.14875">
        <ele>27.9</ele>
        <time>2020-06-05T11:50:50Z</time>
      </trkpt>
      <trkpt lat="47.18786" lon="-2.14873">
        <ele>28</ele>
        <time>2020-06-05T11:50:51Z</time>
      </trkpt>
      <trkpt lat="47.1879" lon="-2.14872">
        <ele>28.1</ele>
        <time>2020-06-05T11:50:52Z</time>
      </trkpt>
      <trkpt lat="47.18792" lon="-2.1487">
        <ele>28.2</ele>
        <time>2020-06-05T11:50:53Z</time>
      </trkpt>
      <trkpt lat="47.18795" lon="-2.14869">
        <ele>28.3</ele>
        <time>2020-06-05T11:50:54Z</time>
      </trkpt>
      <trkpt lat="47.18798" lon="-2.14868">
        <ele>28.3</ele>
        <time>2020-06-05T11:50:55Z</time>
      </trkpt>
      <trkpt lat="47.18801" lon="-2.14867">
        <ele>28.4</ele>
        <time>2020-06-05T11:50:56Z</time>
      </trkpt>
      <trkpt lat="47.18804" lon="-2.14865">
        <ele>28.4</ele>
        <time>2020-06-05T11:50:57Z</time>
      </trkpt>
      <trkpt lat="47.18805" lon="-2.14865">
        <ele>28.4</ele>
        <time>2020-06-05T11:50:58Z</time>
      </trkpt>
      <trkpt lat="47.18807" lon="-2.14864">
        <ele>28.4</ele>
        <time>2020-06-05T11:50:59Z</time>
      </trkpt>
      <trkpt lat="47.18808" lon="-2.14866">
        <ele>28.4</ele>
        <time>2020-06-05T11:51:00Z</time>
      </trkpt>
      <trkpt lat="47.18811" lon="-2.14864">
        <ele>28.5</ele>
        <time>2020-06-05T11:51:01Z</time>
      </trkpt>
      <trkpt lat="47.18814" lon="-2.14863">
        <ele>28.5</ele>
        <time>2020-06-05T11:51:02Z</time>
      </trkpt>
      <trkpt lat="47.18815" lon="-2.14862">
        <ele>28.6</ele>
        <time>2020-06-05T11:51:03Z</time>
      </trkpt>
      <trkpt lat="47.18819" lon="-2.14859">
        <ele>28.6</ele>
        <time>2020-06-05T11:51:04Z</time>
      </trkpt>
      <trkpt lat="47.1882" lon="-2.14858">
        <ele>28.7</ele>
        <time>2020-06-05T11:51:05Z</time>
      </trkpt>
      <trkpt lat="47.18823" lon="-2.14856">
        <ele>28.7</ele>
        <time>2020-06-05T11:51:06Z</time>
      </trkpt>
      <trkpt lat="47.18826" lon="-2.14853">
        <ele>28.8</ele>
        <time>2020-06-05T11:51:07Z</time>
      </trkpt>
      <trkpt lat="47.18828" lon="-2.14852">
        <ele>28.8</ele>
        <time>2020-06-05T11:51:08Z</time>
      </trkpt>
      <trkpt lat="47.18831" lon="-2.14849">
        <ele>28.9</ele>
        <time>2020-06-05T11:51:09Z</time>
      </trkpt>
      <trkpt lat="47.18832" lon="-2.14849">
        <ele>28.9</ele>
        <time>2020-06-05T11:51:10Z</time>
      </trkpt>
      <trkpt lat="47.18836" lon="-2.14847">
        <ele>28.9</ele>
        <time>2020-06-05T11:51:11Z</time>
      </trkpt>
      <trkpt lat="47.18837" lon="-2.14846">
        <ele>28.9</ele>
        <time>2020-06-05T11:51:12Z</time>
      </trkpt>
      <trkpt lat="47.18841" lon="-2.14845">
        <ele>29</ele>
        <time>2020-06-05T11:51:13Z</time>
      </trkpt>
      <trkpt lat="47.18843" lon="-2.14844">
        <ele>29</ele>
        <time>2020-06-05T11:51:14Z</time>
      </trkpt>
      <trkpt lat="47.18846" lon="-2.14844">
        <ele>29</ele>
        <time>2020-06-05T11:51:15Z</time>
      </trkpt>
      <trkpt lat="47.18847" lon="-2.14845">
        <ele>29</ele>
        <time>2020-06-05T11:51:16Z</time>
      </trkpt>
      <trkpt lat="47.1885" lon="-2.14848">
        <ele>29</ele>
        <time>2020-06-05T11:51:17Z</time>
      </trkpt>
      <trkpt lat="47.1885" lon="-2.14849">
        <ele>29</ele>
        <time>2020-06-05T11:51:18Z</time>
      </trkpt>
      <trkpt lat="47.18851" lon="-2.14851">
        <ele>29</ele>
        <time>2020-06-05T11:51:19Z</time>
      </trkpt>
      <trkpt lat="47.18852" lon="-2.14853">
        <ele>29</ele>
        <time>2020-06-05T11:51:20Z</time>
      </trkpt>
      <trkpt lat="47.18853" lon="-2.14857">
        <ele>29</ele>
        <time>2020-06-05T11:51:21Z</time>
      </trkpt>
      <trkpt lat="47.18854" lon="-2.14858">
        <ele>29</ele>
        <time>2020-06-05T11:51:22Z</time>
      </trkpt>
      <trkpt lat="47.18854" lon="-2.14862">
        <ele>29</ele>
        <time>2020-06-05T11:51:23Z</time>
      </trkpt>
      <trkpt lat="47.18855" lon="-2.14864">
        <ele>29</ele>
        <time>2020-06-05T11:51:24Z</time>
      </trkpt>
      <trkpt lat="47.18856" lon="-2.14867">
        <ele>29</ele>
        <time>2020-06-05T11:51:25Z</time>
      </trkpt>
      <trkpt lat="47.18856" lon="-2.14869">
        <ele>29</ele>
        <time>2020-06-05T11:51:26Z</time>
      </trkpt>
      <trkpt lat="47.18857" lon="-2.14873">
        <ele>29</ele>
        <time>2020-06-05T11:51:27Z</time>
      </trkpt>
      <trkpt lat="47.18857" lon="-2.14877">
        <ele>29</ele>
        <time>2020-06-05T11:51:28Z</time>
      </trkpt>
      <trkpt lat="47.18858" lon="-2.14882">
        <ele>29.1</ele>
        <time>2020-06-05T11:51:29Z</time>
      </trkpt>
      <trkpt lat="47.18858" lon="-2.14883">
        <ele>29.1</ele>
        <time>2020-06-05T11:51:30Z</time>
      </trkpt>
      <trkpt lat="47.1886" lon="-2.14887">
        <ele>29.1</ele>
        <time>2020-06-05T11:51:31Z</time>
      </trkpt>
      <trkpt lat="47.18861" lon="-2.14889">
        <ele>29.1</ele>
        <time>2020-06-05T11:51:32Z</time>
      </trkpt>
      <trkpt lat="47.18862" lon="-2.14893">
        <ele>29.2</ele>
        <time>2020-06-05T11:51:33Z</time>
      </trkpt>
      <trkpt lat="47.18864" lon="-2.14897">
        <ele>29.2</ele>
        <time>2020-06-05T11:51:34Z</time>
      </trkpt>
      <trkpt lat="47.18865" lon="-2.14902">
        <ele>29.3</ele>
        <time>2020-06-05T11:51:35Z</time>
      </trkpt>
      <trkpt lat="47.18867" lon="-2.14908">
        <ele>29.3</ele>
        <time>2020-06-05T11:51:36Z</time>
      </trkpt>
      <trkpt lat="47.18869" lon="-2.14914">
        <ele>29.4</ele>
        <time>2020-06-05T11:51:37Z</time>
      </trkpt>
      <trkpt lat="47.18871" lon="-2.14918">
        <ele>29.4</ele>
        <time>2020-06-05T11:51:38Z</time>
      </trkpt>
      <trkpt lat="47.18872" lon="-2.14925">
        <ele>29.5</ele>
        <time>2020-06-05T11:51:39Z</time>
      </trkpt>
      <trkpt lat="47.18873" lon="-2.14931">
        <ele>29.6</ele>
        <time>2020-06-05T11:51:40Z</time>
      </trkpt>
      <trkpt lat="47.18874" lon="-2.14937">
        <ele>29.7</ele>
        <time>2020-06-05T11:51:41Z</time>
      </trkpt>
      <trkpt lat="47.18875" lon="-2.14943">
        <ele>29.8</ele>
        <time>2020-06-05T11:51:42Z</time>
      </trkpt>
      <trkpt lat="47.18875" lon="-2.14949">
        <ele>30.1</ele>
        <time>2020-06-05T11:51:43Z</time>
      </trkpt>
      <trkpt lat="47.18877" lon="-2.14954">
        <ele>30.1</ele>
        <time>2020-06-05T11:51:44Z</time>
      </trkpt>
      <trkpt lat="47.18878" lon="-2.14956">
        <ele>30.1</ele>
        <time>2020-06-05T11:51:45Z</time>
      </trkpt>
      <trkpt lat="47.18879" lon="-2.14958">
        <ele>30.1</ele>
        <time>2020-06-05T11:51:46Z</time>
      </trkpt>
      <trkpt lat="47.1888" lon="-2.14958">
        <ele>30.1</ele>
        <time>2020-06-05T11:51:47Z</time>
      </trkpt>
      <trkpt lat="47.18882" lon="-2.14955">
        <ele>30.1</ele>
        <time>2020-06-05T11:51:48Z</time>
      </trkpt>
      <trkpt lat="47.18884" lon="-2.14951">
        <ele>30.1</ele>
        <time>2020-06-05T11:51:49Z</time>
      </trkpt>
      <trkpt lat="47.18885" lon="-2.1495">
        <ele>30.1</ele>
        <time>2020-06-05T11:51:50Z</time>
      </trkpt>
      <trkpt lat="47.18888" lon="-2.14946">
        <ele>30.1</ele>
        <time>2020-06-05T11:51:51Z</time>
      </trkpt>
      <trkpt lat="47.18889" lon="-2.14944">
        <ele>30.1</ele>
        <time>2020-06-05T11:51:52Z</time>
      </trkpt>
      <trkpt lat="47.18891" lon="-2.14942">
        <ele>30.2</ele>
        <time>2020-06-05T11:51:53Z</time>
      </trkpt>
      <trkpt lat="47.18891" lon="-2.14941">
        <ele>30.2</ele>
        <time>2020-06-05T11:51:54Z</time>
      </trkpt>
      <trkpt lat="47.18895" lon="-2.14938">
        <ele>30.2</ele>
        <time>2020-06-05T11:51:55Z</time>
      </trkpt>
      <trkpt lat="47.18896" lon="-2.14938">
        <ele>30.2</ele>
        <time>2020-06-05T11:51:56Z</time>
      </trkpt>
      <trkpt lat="47.18899" lon="-2.14936">
        <ele>30.2</ele>
        <time>2020-06-05T11:51:57Z</time>
      </trkpt>
      <trkpt lat="47.189" lon="-2.14935">
        <ele>30.3</ele>
        <time>2020-06-05T11:51:58Z</time>
      </trkpt>
      <trkpt lat="47.18903" lon="-2.14933">
        <ele>30.3</ele>
        <time>2020-06-05T11:51:59Z</time>
      </trkpt>
      <trkpt lat="47.18906" lon="-2.14932">
        <ele>30.3</ele>
        <time>2020-06-05T11:52:00Z</time>
      </trkpt>
      <trkpt lat="47.1891" lon="-2.14929">
        <ele>30.4</ele>
        <time>2020-06-05T11:52:01Z</time>
      </trkpt>
      <trkpt lat="47.18911" lon="-2.14928">
        <ele>30.4</ele>
        <time>2020-06-05T11:52:02Z</time>
      </trkpt>
      <trkpt lat="47.18915" lon="-2.14926">
        <ele>30.5</ele>
        <time>2020-06-05T11:52:03Z</time>
      </trkpt>
      <trkpt lat="47.18918" lon="-2.14922">
        <ele>30.5</ele>
        <time>2020-06-05T11:52:04Z</time>
      </trkpt>
      <trkpt lat="47.18921" lon="-2.1492">
        <ele>30.5</ele>
        <time>2020-06-05T11:52:05Z</time>
      </trkpt>
      <trkpt lat="47.18924" lon="-2.14918">
        <ele>30.6</ele>
        <time>2020-06-05T11:52:06Z</time>
      </trkpt>
      <trkpt lat="47.18927" lon="-2.14915">
        <ele>30.6</ele>
        <time>2020-06-05T11:52:07Z</time>
      </trkpt>
      <trkpt lat="47.1893" lon="-2.14913">
        <ele>30.6</ele>
        <time>2020-06-05T11:52:08Z</time>
      </trkpt>
      <trkpt lat="47.18933" lon="-2.1491">
        <ele>30.6</ele>
        <time>2020-06-05T11:52:09Z</time>
      </trkpt>
      <trkpt lat="47.18937" lon="-2.14908">
        <ele>30.6</ele>
        <time>2020-06-05T11:52:10Z</time>
      </trkpt>
      <trkpt lat="47.1894" lon="-2.14906">
        <ele>30.6</ele>
        <time>2020-06-05T11:52:11Z</time>
      </trkpt>
      <trkpt lat="47.18944" lon="-2.14904">
        <ele>30.6</ele>
        <time>2020-06-05T11:52:12Z</time>
      </trkpt>
      <trkpt lat="47.18949" lon="-2.14901">
        <ele>30.6</ele>
        <time>2020-06-05T11:52:13Z</time>
      </trkpt>
      <trkpt lat="47.18954" lon="-2.14898">
        <ele>30.6</ele>
        <time>2020-06-05T11:52:14Z</time>
      </trkpt>
      <trkpt lat="47.18958" lon="-2.14894">
        <ele>30.6</ele>
        <time>2020-06-05T11:52:15Z</time>
      </trkpt>
      <trkpt lat="47.18963" lon="-2.14891">
        <ele>30.5</ele>
        <time>2020-06-05T11:52:16Z</time>
      </trkpt>
      <trkpt lat="47.18967" lon="-2.14889">
        <ele>30.5</ele>
        <time>2020-06-05T11:52:17Z</time>
      </trkpt>
      <trkpt lat="47.18971" lon="-2.14886">
        <ele>30.5</ele>
        <time>2020-06-05T11:52:18Z</time>
      </trkpt>
      <trkpt lat="47.18976" lon="-2.14883">
        <ele>30.4</ele>
        <time>2020-06-05T11:52:19Z</time>
      </trkpt>
      <trkpt lat="47.1898" lon="-2.1488">
        <ele>30.3</ele>
        <time>2020-06-05T11:52:20Z</time>
      </trkpt>
      <trkpt lat="47.18985" lon="-2.14878">
        <ele>30.3</ele>
        <time>2020-06-05T11:52:21Z</time>
      </trkpt>
      <trkpt lat="47.18989" lon="-2.14875">
        <ele>30.2</ele>
        <time>2020-06-05T11:52:22Z</time>
      </trkpt>
      <trkpt lat="47.18993" lon="-2.14872">
        <ele>30.1</ele>
        <time>2020-06-05T11:52:23Z</time>
      </trkpt>
      <trkpt lat="47.18997" lon="-2.14869">
        <ele>30</ele>
        <time>2020-06-05T11:52:24Z</time>
      </trkpt>
      <trkpt lat="47.19001" lon="-2.14866">
        <ele>29.9</ele>
        <time>2020-06-05T11:52:25Z</time>
      </trkpt>
      <trkpt lat="47.19006" lon="-2.14864">
        <ele>29.7</ele>
        <time>2020-06-05T11:52:26Z</time>
      </trkpt>
      <trkpt lat="47.1901" lon="-2.14862">
        <ele>29.6</ele>
        <time>2020-06-05T11:52:27Z</time>
      </trkpt>
      <trkpt lat="47.19014" lon="-2.1486">
        <ele>29.5</ele>
        <time>2020-06-05T11:52:28Z</time>
      </trkpt>
      <trkpt lat="47.19018" lon="-2.14855">
        <ele>29.4</ele>
        <time>2020-06-05T11:52:29Z</time>
      </trkpt>
      <trkpt lat="47.19022" lon="-2.14854">
        <ele>29.3</ele>
        <time>2020-06-05T11:52:30Z</time>
      </trkpt>
      <trkpt lat="47.19025" lon="-2.14851">
        <ele>29.1</ele>
        <time>2020-06-05T11:52:31Z</time>
      </trkpt>
      <trkpt lat="47.19028" lon="-2.14848">
        <ele>29</ele>
        <time>2020-06-05T11:52:32Z</time>
      </trkpt>
      <trkpt lat="47.19032" lon="-2.14845">
        <ele>28.8</ele>
        <time>2020-06-05T11:52:33Z</time>
      </trkpt>
      <trkpt lat="47.19036" lon="-2.14843">
        <ele>28.7</ele>
        <time>2020-06-05T11:52:34Z</time>
      </trkpt>
      <trkpt lat="47.1904" lon="-2.14839">
        <ele>28.5</ele>
        <time>2020-06-05T11:52:35Z</time>
      </trkpt>
      <trkpt lat="47.19044" lon="-2.14836">
        <ele>28.4</ele>
        <time>2020-06-05T11:52:36Z</time>
      </trkpt>
      <trkpt lat="47.19048" lon="-2.14833">
        <ele>28.2</ele>
        <time>2020-06-05T11:52:37Z</time>
      </trkpt>
      <trkpt lat="47.19053" lon="-2.14828">
        <ele>28</ele>
        <time>2020-06-05T11:52:38Z</time>
      </trkpt>
      <trkpt lat="47.19058" lon="-2.14823">
        <ele>27.8</ele>
        <time>2020-06-05T11:52:39Z</time>
      </trkpt>
      <trkpt lat="47.19063" lon="-2.14819">
        <ele>27.6</ele>
        <time>2020-06-05T11:52:40Z</time>
      </trkpt>
      <trkpt lat="47.19069" lon="-2.14814">
        <ele>27.4</ele>
        <time>2020-06-05T11:52:41Z</time>
      </trkpt>
      <trkpt lat="47.19076" lon="-2.14811">
        <ele>27.1</ele>
        <time>2020-06-05T11:52:42Z</time>
      </trkpt>
      <trkpt lat="47.19084" lon="-2.14809">
        <ele>26.8</ele>
        <time>2020-06-05T11:52:43Z</time>
      </trkpt>
      <trkpt lat="47.19093" lon="-2.14806">
        <ele>26.5</ele>
        <time>2020-06-05T11:52:44Z</time>
      </trkpt>
      <trkpt lat="47.19101" lon="-2.14804">
        <ele>26.3</ele>
        <time>2020-06-05T11:52:45Z</time>
      </trkpt>
      <trkpt lat="47.19108" lon="-2.14801">
        <ele>26.4</ele>
        <time>2020-06-05T11:52:46Z</time>
      </trkpt>
      <trkpt lat="47.19115" lon="-2.14797">
        <ele>26.3</ele>
        <time>2020-06-05T11:52:47Z</time>
      </trkpt>
      <trkpt lat="47.19122" lon="-2.14795">
        <ele>26.3</ele>
        <time>2020-06-05T11:52:48Z</time>
      </trkpt>
      <trkpt lat="47.19128" lon="-2.14793">
        <ele>26.2</ele>
        <time>2020-06-05T11:52:49Z</time>
      </trkpt>
      <trkpt lat="47.19133" lon="-2.14791">
        <ele>26.2</ele>
        <time>2020-06-05T11:52:50Z</time>
      </trkpt>
      <trkpt lat="47.1914" lon="-2.14787">
        <ele>26.1</ele>
        <time>2020-06-05T11:52:51Z</time>
      </trkpt>
      <trkpt lat="47.19145" lon="-2.14785">
        <ele>26.1</ele>
        <time>2020-06-05T11:52:52Z</time>
      </trkpt>
      <trkpt lat="47.19149" lon="-2.14783">
        <ele>26.1</ele>
        <time>2020-06-05T11:52:53Z</time>
      </trkpt>
      <trkpt lat="47.19154" lon="-2.14781">
        <ele>26.1</ele>
        <time>2020-06-05T11:52:54Z</time>
      </trkpt>
      <trkpt lat="47.19159" lon="-2.1478">
        <ele>26.2</ele>
        <time>2020-06-05T11:52:55Z</time>
      </trkpt>
      <trkpt lat="47.19164" lon="-2.14777">
        <ele>26.2</ele>
        <time>2020-06-05T11:52:56Z</time>
      </trkpt>
      <trkpt lat="47.19169" lon="-2.14774">
        <ele>26.3</ele>
        <time>2020-06-05T11:52:57Z</time>
      </trkpt>
      <trkpt lat="47.19174" lon="-2.14773">
        <ele>26.4</ele>
        <time>2020-06-05T11:52:58Z</time>
      </trkpt>
      <trkpt lat="47.19178" lon="-2.1477">
        <ele>26.4</ele>
        <time>2020-06-05T11:52:59Z</time>
      </trkpt>
      <trkpt lat="47.19183" lon="-2.14769">
        <ele>26.5</ele>
        <time>2020-06-05T11:53:00Z</time>
      </trkpt>
      <trkpt lat="47.19188" lon="-2.14768">
        <ele>26.6</ele>
        <time>2020-06-05T11:53:01Z</time>
      </trkpt>
      <trkpt lat="47.19192" lon="-2.14767">
        <ele>26.7</ele>
        <time>2020-06-05T11:53:02Z</time>
      </trkpt>
      <trkpt lat="47.19197" lon="-2.14765">
        <ele>26.8</ele>
        <time>2020-06-05T11:53:03Z</time>
      </trkpt>
      <trkpt lat="47.19202" lon="-2.14763">
        <ele>26.9</ele>
        <time>2020-06-05T11:53:04Z</time>
      </trkpt>
      <trkpt lat="47.19207" lon="-2.14761">
        <ele>27</ele>
        <time>2020-06-05T11:53:05Z</time>
      </trkpt>
      <trkpt lat="47.19212" lon="-2.14759">
        <ele>27.1</ele>
        <time>2020-06-05T11:53:06Z</time>
      </trkpt>
      <trkpt lat="47.19216" lon="-2.14757">
        <ele>27.2</ele>
        <time>2020-06-05T11:53:07Z</time>
      </trkpt>
      <trkpt lat="47.19221" lon="-2.14756">
        <ele>27.3</ele>
        <time>2020-06-05T11:53:08Z</time>
      </trkpt>
      <trkpt lat="47.19225" lon="-2.14755">
        <ele>27.4</ele>
        <time>2020-06-05T11:53:09Z</time>
      </trkpt>
      <trkpt lat="47.1923" lon="-2.14753">
        <ele>27.6</ele>
        <time>2020-06-05T11:53:10Z</time>
      </trkpt>
      <trkpt lat="47.19235" lon="-2.14752">
        <ele>27.7</ele>
        <time>2020-06-05T11:53:11Z</time>
      </trkpt>
      <trkpt lat="47.1924" lon="-2.14751">
        <ele>27.8</ele>
        <time>2020-06-05T11:53:12Z</time>
      </trkpt>
      <trkpt lat="47.19245" lon="-2.1475">
        <ele>27.8</ele>
        <time>2020-06-05T11:53:13Z</time>
      </trkpt>
      <trkpt lat="47.19249" lon="-2.14749">
        <ele>27.9</ele>
        <time>2020-06-05T11:53:14Z</time>
      </trkpt>
      <trkpt lat="47.19254" lon="-2.14749">
        <ele>28.2</ele>
        <time>2020-06-05T11:53:15Z</time>
      </trkpt>
      <trkpt lat="47.19259" lon="-2.14749">
        <ele>28.4</ele>
        <time>2020-06-05T11:53:16Z</time>
      </trkpt>
      <trkpt lat="47.19263" lon="-2.14749">
        <ele>28.5</ele>
        <time>2020-06-05T11:53:17Z</time>
      </trkpt>
      <trkpt lat="47.19266" lon="-2.14748">
        <ele>28.6</ele>
        <time>2020-06-05T11:53:18Z</time>
      </trkpt>
      <trkpt lat="47.1927" lon="-2.14746">
        <ele>28.8</ele>
        <time>2020-06-05T11:53:19Z</time>
      </trkpt>
      <trkpt lat="47.19275" lon="-2.14745">
        <ele>28.9</ele>
        <time>2020-06-05T11:53:20Z</time>
      </trkpt>
      <trkpt lat="47.19279" lon="-2.14744">
        <ele>29.1</ele>
        <time>2020-06-05T11:53:21Z</time>
      </trkpt>
      <trkpt lat="47.19283" lon="-2.14743">
        <ele>29.2</ele>
        <time>2020-06-05T11:53:22Z</time>
      </trkpt>
      <trkpt lat="47.19286" lon="-2.14743">
        <ele>29.4</ele>
        <time>2020-06-05T11:53:23Z</time>
      </trkpt>
      <trkpt lat="47.1929" lon="-2.14742">
        <ele>29.5</ele>
        <time>2020-06-05T11:53:24Z</time>
      </trkpt>
      <trkpt lat="47.19294" lon="-2.14742">
        <ele>29.6</ele>
        <time>2020-06-05T11:53:25Z</time>
      </trkpt>
      <trkpt lat="47.19297" lon="-2.1474">
        <ele>29.7</ele>
        <time>2020-06-05T11:53:26Z</time>
      </trkpt>
      <trkpt lat="47.193" lon="-2.1474">
        <ele>29.9</ele>
        <time>2020-06-05T11:53:27Z</time>
      </trkpt>
      <trkpt lat="47.19303" lon="-2.1474">
        <ele>30</ele>
        <time>2020-06-05T11:53:28Z</time>
      </trkpt>
      <trkpt lat="47.19307" lon="-2.1474">
        <ele>30.1</ele>
        <time>2020-06-05T11:53:29Z</time>
      </trkpt>
      <trkpt lat="47.1931" lon="-2.1474">
        <ele>30.2</ele>
        <time>2020-06-05T11:53:30Z</time>
      </trkpt>
      <trkpt lat="47.19313" lon="-2.1474">
        <ele>30.3</ele>
        <time>2020-06-05T11:53:31Z</time>
      </trkpt>
      <trkpt lat="47.19316" lon="-2.14739">
        <ele>30.5</ele>
        <time>2020-06-05T11:53:32Z</time>
      </trkpt>
      <trkpt lat="47.19319" lon="-2.14739">
        <ele>30.6</ele>
        <time>2020-06-05T11:53:33Z</time>
      </trkpt>
      <trkpt lat="47.19322" lon="-2.14739">
        <ele>30.7</ele>
        <time>2020-06-05T11:53:34Z</time>
      </trkpt>
      <trkpt lat="47.19325" lon="-2.1474">
        <ele>30.8</ele>
        <time>2020-06-05T11:53:35Z</time>
      </trkpt>
      <trkpt lat="47.19326" lon="-2.14741">
        <ele>30.8</ele>
        <time>2020-06-05T11:53:36Z</time>
      </trkpt>
      <trkpt lat="47.19328" lon="-2.14744">
        <ele>30.8</ele>
        <time>2020-06-05T11:53:37Z</time>
      </trkpt>
      <trkpt lat="47.19328" lon="-2.14746">
        <ele>30.8</ele>
        <time>2020-06-05T11:53:38Z</time>
      </trkpt>
      <trkpt lat="47.1933" lon="-2.14749">
        <ele>30.8</ele>
        <time>2020-06-05T11:53:39Z</time>
      </trkpt>
      <trkpt lat="47.1933" lon="-2.14753">
        <ele>30.8</ele>
        <time>2020-06-05T11:53:40Z</time>
      </trkpt>
      <trkpt lat="47.19332" lon="-2.14759">
        <ele>30.7</ele>
        <time>2020-06-05T11:53:41Z</time>
      </trkpt>
      <trkpt lat="47.19332" lon="-2.14764">
        <ele>30.7</ele>
        <time>2020-06-05T11:53:42Z</time>
      </trkpt>
      <trkpt lat="47.19333" lon="-2.1477">
        <ele>30.6</ele>
        <time>2020-06-05T11:53:43Z</time>
      </trkpt>
      <trkpt lat="47.19333" lon="-2.14775">
        <ele>30.5</ele>
        <time>2020-06-05T11:53:44Z</time>
      </trkpt>
      <trkpt lat="47.19334" lon="-2.14781">
        <ele>30.4</ele>
        <time>2020-06-05T11:53:45Z</time>
      </trkpt>
      <trkpt lat="47.19336" lon="-2.14788">
        <ele>30.3</ele>
        <time>2020-06-05T11:53:46Z</time>
      </trkpt>
      <trkpt lat="47.19337" lon="-2.14794">
        <ele>30.2</ele>
        <time>2020-06-05T11:53:47Z</time>
      </trkpt>
      <trkpt lat="47.19337" lon="-2.14801">
        <ele>30.1</ele>
        <time>2020-06-05T11:53:48Z</time>
      </trkpt>
      <trkpt lat="47.19337" lon="-2.14807">
        <ele>30</ele>
        <time>2020-06-05T11:53:49Z</time>
      </trkpt>
      <trkpt lat="47.19338" lon="-2.14815">
        <ele>29.9</ele>
        <time>2020-06-05T11:53:50Z</time>
      </trkpt>
      <trkpt lat="47.19338" lon="-2.14822">
        <ele>29.8</ele>
        <time>2020-06-05T11:53:51Z</time>
      </trkpt>
      <trkpt lat="47.19337" lon="-2.1483">
        <ele>29.7</ele>
        <time>2020-06-05T11:53:52Z</time>
      </trkpt>
      <trkpt lat="47.19337" lon="-2.14838">
        <ele>29.6</ele>
        <time>2020-06-05T11:53:53Z</time>
      </trkpt>
      <trkpt lat="47.19337" lon="-2.14845">
        <ele>29.5</ele>
        <time>2020-06-05T11:53:54Z</time>
      </trkpt>
      <trkpt lat="47.19336" lon="-2.14852">
        <ele>29.4</ele>
        <time>2020-06-05T11:53:55Z</time>
      </trkpt>
      <trkpt lat="47.19336" lon="-2.14859">
        <ele>29.3</ele>
        <time>2020-06-05T11:53:56Z</time>
      </trkpt>
      <trkpt lat="47.19336" lon="-2.14866">
        <ele>29.2</ele>
        <time>2020-06-05T11:53:57Z</time>
      </trkpt>
      <trkpt lat="47.19337" lon="-2.14873">
        <ele>29.1</ele>
        <time>2020-06-05T11:53:58Z</time>
      </trkpt>
      <trkpt lat="47.19338" lon="-2.1488">
        <ele>29.1</ele>
        <time>2020-06-05T11:53:59Z</time>
      </trkpt>
      <trkpt lat="47.19339" lon="-2.14886">
        <ele>29</ele>
        <time>2020-06-05T11:54:00Z</time>
      </trkpt>
      <trkpt lat="47.19341" lon="-2.14892">
        <ele>29</ele>
        <time>2020-06-05T11:54:01Z</time>
      </trkpt>
      <trkpt lat="47.19343" lon="-2.14898">
        <ele>29</ele>
        <time>2020-06-05T11:54:02Z</time>
      </trkpt>
      <trkpt lat="47.19345" lon="-2.14904">
        <ele>29</ele>
        <time>2020-06-05T11:54:03Z</time>
      </trkpt>
      <trkpt lat="47.19346" lon="-2.14909">
        <ele>28.9</ele>
        <time>2020-06-05T11:54:04Z</time>
      </trkpt>
      <trkpt lat="47.19349" lon="-2.14914">
        <ele>28.9</ele>
        <time>2020-06-05T11:54:05Z</time>
      </trkpt>
      <trkpt lat="47.19352" lon="-2.14918">
        <ele>28.9</ele>
        <time>2020-06-05T11:54:06Z</time>
      </trkpt>
      <trkpt lat="47.19355" lon="-2.14921">
        <ele>28.9</ele>
        <time>2020-06-05T11:54:07Z</time>
      </trkpt>
      <trkpt lat="47.19357" lon="-2.14926">
        <ele>28.8</ele>
        <time>2020-06-05T11:54:08Z</time>
      </trkpt>
      <trkpt lat="47.1936" lon="-2.1493">
        <ele>28.8</ele>
        <time>2020-06-05T11:54:09Z</time>
      </trkpt>
      <trkpt lat="47.19363" lon="-2.14936">
        <ele>28.8</ele>
        <time>2020-06-05T11:54:10Z</time>
      </trkpt>
      <trkpt lat="47.19365" lon="-2.1494">
        <ele>28.7</ele>
        <time>2020-06-05T11:54:11Z</time>
      </trkpt>
      <trkpt lat="47.19368" lon="-2.14944">
        <ele>28.7</ele>
        <time>2020-06-05T11:54:12Z</time>
      </trkpt>
      <trkpt lat="47.19371" lon="-2.14949">
        <ele>28.6</ele>
        <time>2020-06-05T11:54:13Z</time>
      </trkpt>
      <trkpt lat="47.19375" lon="-2.14953">
        <ele>28.5</ele>
        <time>2020-06-05T11:54:14Z</time>
      </trkpt>
      <trkpt lat="47.19378" lon="-2.14959">
        <ele>28.4</ele>
        <time>2020-06-05T11:54:15Z</time>
      </trkpt>
      <trkpt lat="47.19382" lon="-2.14965">
        <ele>28.3</ele>
        <time>2020-06-05T11:54:16Z</time>
      </trkpt>
      <trkpt lat="47.19385" lon="-2.1497">
        <ele>28.1</ele>
        <time>2020-06-05T11:54:17Z</time>
      </trkpt>
      <trkpt lat="47.19389" lon="-2.14975">
        <ele>28</ele>
        <time>2020-06-05T11:54:18Z</time>
      </trkpt>
      <trkpt lat="47.19392" lon="-2.1498">
        <ele>27.9</ele>
        <time>2020-06-05T11:54:19Z</time>
      </trkpt>
      <trkpt lat="47.19395" lon="-2.14986">
        <ele>27.7</ele>
        <time>2020-06-05T11:54:20Z</time>
      </trkpt>
      <trkpt lat="47.19398" lon="-2.14991">
        <ele>27.6</ele>
        <time>2020-06-05T11:54:21Z</time>
      </trkpt>
      <trkpt lat="47.19401" lon="-2.14996">
        <ele>27.4</ele>
        <time>2020-06-05T11:54:22Z</time>
      </trkpt>
      <trkpt lat="47.19405" lon="-2.15001">
        <ele>27.2</ele>
        <time>2020-06-05T11:54:23Z</time>
      </trkpt>
      <trkpt lat="47.19409" lon="-2.15006">
        <ele>27</ele>
        <time>2020-06-05T11:54:24Z</time>
      </trkpt>
      <trkpt lat="47.19413" lon="-2.15011">
        <ele>26.8</ele>
        <time>2020-06-05T11:54:25Z</time>
      </trkpt>
      <trkpt lat="47.19418" lon="-2.15015">
        <ele>26.5</ele>
        <time>2020-06-05T11:54:26Z</time>
      </trkpt>
      <trkpt lat="47.19422" lon="-2.15021">
        <ele>26.2</ele>
        <time>2020-06-05T11:54:27Z</time>
      </trkpt>
      <trkpt lat="47.19427" lon="-2.15025">
        <ele>25.9</ele>
        <time>2020-06-05T11:54:28Z</time>
      </trkpt>
      <trkpt lat="47.19432" lon="-2.15028">
        <ele>25.6</ele>
        <time>2020-06-05T11:54:29Z</time>
      </trkpt>
      <trkpt lat="47.19438" lon="-2.15029">
        <ele>25.3</ele>
        <time>2020-06-05T11:54:30Z</time>
      </trkpt>
      <trkpt lat="47.19444" lon="-2.15031">
        <ele>24.9</ele>
        <time>2020-06-05T11:54:31Z</time>
      </trkpt>
      <trkpt lat="47.19451" lon="-2.15032">
        <ele>24.4</ele>
        <time>2020-06-05T11:54:32Z</time>
      </trkpt>
      <trkpt lat="47.19458" lon="-2.15034">
        <ele>24</ele>
        <time>2020-06-05T11:54:33Z</time>
      </trkpt>
      <trkpt lat="47.19465" lon="-2.15037">
        <ele>23.5</ele>
        <time>2020-06-05T11:54:34Z</time>
      </trkpt>
      <trkpt lat="47.19472" lon="-2.15041">
        <ele>23</ele>
        <time>2020-06-05T11:54:35Z</time>
      </trkpt>
      <trkpt lat="47.19478" lon="-2.15045">
        <ele>22.6</ele>
        <time>2020-06-05T11:54:36Z</time>
      </trkpt>
      <trkpt lat="47.19485" lon="-2.15051">
        <ele>22.1</ele>
        <time>2020-06-05T11:54:37Z</time>
      </trkpt>
      <trkpt lat="47.19492" lon="-2.15057">
        <ele>21.5</ele>
        <time>2020-06-05T11:54:38Z</time>
      </trkpt>
      <trkpt lat="47.19499" lon="-2.15063">
        <ele>21</ele>
        <time>2020-06-05T11:54:39Z</time>
      </trkpt>
      <trkpt lat="47.19505" lon="-2.15068">
        <ele>20.6</ele>
        <time>2020-06-05T11:54:40Z</time>
      </trkpt>
      <trkpt lat="47.1951" lon="-2.15073">
        <ele>20.3</ele>
        <time>2020-06-05T11:54:41Z</time>
      </trkpt>
      <trkpt lat="47.19516" lon="-2.15077">
        <ele>20</ele>
        <time>2020-06-05T11:54:42Z</time>
      </trkpt>
      <trkpt lat="47.19523" lon="-2.15081">
        <ele>19.8</ele>
        <time>2020-06-05T11:54:43Z</time>
      </trkpt>
      <trkpt lat="47.1953" lon="-2.15082">
        <ele>19.6</ele>
        <time>2020-06-05T11:54:44Z</time>
      </trkpt>
      <trkpt lat="47.19538" lon="-2.15078">
        <ele>19.7</ele>
        <time>2020-06-05T11:54:45Z</time>
      </trkpt>
      <trkpt lat="47.19545" lon="-2.15075">
        <ele>19.6</ele>
        <time>2020-06-05T11:54:46Z</time>
      </trkpt>
      <trkpt lat="47.19551" lon="-2.15071">
        <ele>19.6</ele>
        <time>2020-06-05T11:54:47Z</time>
      </trkpt>
      <trkpt lat="47.19558" lon="-2.15069">
        <ele>19.6</ele>
        <time>2020-06-05T11:54:48Z</time>
      </trkpt>
      <trkpt lat="47.19565" lon="-2.15065">
        <ele>19.7</ele>
        <time>2020-06-05T11:54:49Z</time>
      </trkpt>
      <trkpt lat="47.19572" lon="-2.15062">
        <ele>19.7</ele>
        <time>2020-06-05T11:54:50Z</time>
      </trkpt>
      <trkpt lat="47.19578" lon="-2.15059">
        <ele>19.8</ele>
        <time>2020-06-05T11:54:51Z</time>
      </trkpt>
      <trkpt lat="47.19584" lon="-2.15055">
        <ele>19.8</ele>
        <time>2020-06-05T11:54:52Z</time>
      </trkpt>
      <trkpt lat="47.1959" lon="-2.15051">
        <ele>19.9</ele>
        <time>2020-06-05T11:54:53Z</time>
      </trkpt>
      <trkpt lat="47.19595" lon="-2.15047">
        <ele>19.9</ele>
        <time>2020-06-05T11:54:54Z</time>
      </trkpt>
      <trkpt lat="47.196" lon="-2.15042">
        <ele>19.9</ele>
        <time>2020-06-05T11:54:55Z</time>
      </trkpt>
      <trkpt lat="47.19606" lon="-2.15038">
        <ele>20</ele>
        <time>2020-06-05T11:54:56Z</time>
      </trkpt>
      <trkpt lat="47.19611" lon="-2.15034">
        <ele>20</ele>
        <time>2020-06-05T11:54:57Z</time>
      </trkpt>
      <trkpt lat="47.19615" lon="-2.1503">
        <ele>20</ele>
        <time>2020-06-05T11:54:58Z</time>
      </trkpt>
      <trkpt lat="47.1962" lon="-2.15026">
        <ele>20</ele>
        <time>2020-06-05T11:54:59Z</time>
      </trkpt>
      <trkpt lat="47.19625" lon="-2.15023">
        <ele>20</ele>
        <time>2020-06-05T11:55:00Z</time>
      </trkpt>
      <trkpt lat="47.19629" lon="-2.15019">
        <ele>20</ele>
        <time>2020-06-05T11:55:01Z</time>
      </trkpt>
      <trkpt lat="47.19633" lon="-2.15015">
        <ele>20</ele>
        <time>2020-06-05T11:55:02Z</time>
      </trkpt>
      <trkpt lat="47.19638" lon="-2.15012">
        <ele>20</ele>
        <time>2020-06-05T11:55:03Z</time>
      </trkpt>
      <trkpt lat="47.19643" lon="-2.15008">
        <ele>20</ele>
        <time>2020-06-05T11:55:04Z</time>
      </trkpt>
      <trkpt lat="47.19647" lon="-2.15005">
        <ele>19.9</ele>
        <time>2020-06-05T11:55:05Z</time>
      </trkpt>
      <trkpt lat="47.19651" lon="-2.15004">
        <ele>19.9</ele>
        <time>2020-06-05T11:55:06Z</time>
      </trkpt>
      <trkpt lat="47.19656" lon="-2.15003">
        <ele>19.8</ele>
        <time>2020-06-05T11:55:07Z</time>
      </trkpt>
      <trkpt lat="47.1966" lon="-2.15001">
        <ele>19.7</ele>
        <time>2020-06-05T11:55:08Z</time>
      </trkpt>
      <trkpt lat="47.19665" lon="-2.14999">
        <ele>19.7</ele>
        <time>2020-06-05T11:55:09Z</time>
      </trkpt>
      <trkpt lat="47.1967" lon="-2.14998">
        <ele>19.6</ele>
        <time>2020-06-05T11:55:10Z</time>
      </trkpt>
      <trkpt lat="47.19673" lon="-2.14997">
        <ele>19.5</ele>
        <time>2020-06-05T11:55:11Z</time>
      </trkpt>
      <trkpt lat="47.19676" lon="-2.14995">
        <ele>19.5</ele>
        <time>2020-06-05T11:55:12Z</time>
      </trkpt>
      <trkpt lat="47.19679" lon="-2.14992">
        <ele>19.4</ele>
        <time>2020-06-05T11:55:13Z</time>
      </trkpt>
      <trkpt lat="47.19682" lon="-2.14991">
        <ele>19.4</ele>
        <time>2020-06-05T11:55:14Z</time>
      </trkpt>
      <trkpt lat="47.19684" lon="-2.14989">
        <ele>19.3</ele>
        <time>2020-06-05T11:55:15Z</time>
      </trkpt>
      <trkpt lat="47.19688" lon="-2.1499">
        <ele>19.3</ele>
        <time>2020-06-05T11:55:16Z</time>
      </trkpt>
      <trkpt lat="47.19689" lon="-2.1499">
        <ele>19.3</ele>
        <time>2020-06-05T11:55:17Z</time>
      </trkpt>
      <trkpt lat="47.1969" lon="-2.14994">
        <ele>19.3</ele>
        <time>2020-06-05T11:55:18Z</time>
      </trkpt>
      <trkpt lat="47.1969" lon="-2.14999">
        <ele>19.2</ele>
        <time>2020-06-05T11:55:19Z</time>
      </trkpt>
      <trkpt lat="47.19691" lon="-2.15004">
        <ele>19.2</ele>
        <time>2020-06-05T11:55:20Z</time>
      </trkpt>
      <trkpt lat="47.19692" lon="-2.1501">
        <ele>19.1</ele>
        <time>2020-06-05T11:55:21Z</time>
      </trkpt>
      <trkpt lat="47.19693" lon="-2.15016">
        <ele>19.1</ele>
        <time>2020-06-05T11:55:22Z</time>
      </trkpt>
      <trkpt lat="47.19693" lon="-2.15022">
        <ele>19</ele>
        <time>2020-06-05T11:55:23Z</time>
      </trkpt>
      <trkpt lat="47.19694" lon="-2.15028">
        <ele>19</ele>
        <time>2020-06-05T11:55:24Z</time>
      </trkpt>
      <trkpt lat="47.19695" lon="-2.15035">
        <ele>18.9</ele>
        <time>2020-06-05T11:55:25Z</time>
      </trkpt>
      <trkpt lat="47.19696" lon="-2.15042">
        <ele>18.8</ele>
        <time>2020-06-05T11:55:26Z</time>
      </trkpt>
      <trkpt lat="47.19697" lon="-2.15049">
        <ele>18.7</ele>
        <time>2020-06-05T11:55:27Z</time>
      </trkpt>
      <trkpt lat="47.19698" lon="-2.15056">
        <ele>18.7</ele>
        <time>2020-06-05T11:55:28Z</time>
      </trkpt>
      <trkpt lat="47.19699" lon="-2.15063">
        <ele>18.6</ele>
        <time>2020-06-05T11:55:29Z</time>
      </trkpt>
      <trkpt lat="47.197" lon="-2.15069">
        <ele>18.5</ele>
        <time>2020-06-05T11:55:30Z</time>
      </trkpt>
      <trkpt lat="47.197" lon="-2.15076">
        <ele>18.5</ele>
        <time>2020-06-05T11:55:31Z</time>
      </trkpt>
      <trkpt lat="47.19701" lon="-2.15082">
        <ele>18.5</ele>
        <time>2020-06-05T11:55:32Z</time>
      </trkpt>
      <trkpt lat="47.19702" lon="-2.15088">
        <ele>18.4</ele>
        <time>2020-06-05T11:55:33Z</time>
      </trkpt>
      <trkpt lat="47.19703" lon="-2.15094">
        <ele>18.4</ele>
        <time>2020-06-05T11:55:34Z</time>
      </trkpt>
      <trkpt lat="47.19704" lon="-2.151">
        <ele>18.3</ele>
        <time>2020-06-05T11:55:35Z</time>
      </trkpt>
      <trkpt lat="47.19706" lon="-2.15105">
        <ele>18.3</ele>
        <time>2020-06-05T11:55:36Z</time>
      </trkpt>
      <trkpt lat="47.19707" lon="-2.15111">
        <ele>18.3</ele>
        <time>2020-06-05T11:55:37Z</time>
      </trkpt>
      <trkpt lat="47.19708" lon="-2.15116">
        <ele>18.2</ele>
        <time>2020-06-05T11:55:38Z</time>
      </trkpt>
      <trkpt lat="47.19709" lon="-2.15121">
        <ele>18.2</ele>
        <time>2020-06-05T11:55:39Z</time>
      </trkpt>
      <trkpt lat="47.1971" lon="-2.15127">
        <ele>18.2</ele>
        <time>2020-06-05T11:55:40Z</time>
      </trkpt>
      <trkpt lat="47.19711" lon="-2.15133">
        <ele>18.2</ele>
        <time>2020-06-05T11:55:41Z</time>
      </trkpt>
      <trkpt lat="47.19712" lon="-2.15139">
        <ele>18.2</ele>
        <time>2020-06-05T11:55:42Z</time>
      </trkpt>
      <trkpt lat="47.19713" lon="-2.15145">
        <ele>18.2</ele>
        <time>2020-06-05T11:55:43Z</time>
      </trkpt>
      <trkpt lat="47.19714" lon="-2.15152">
        <ele>18.3</ele>
        <time>2020-06-05T11:55:44Z</time>
      </trkpt>
      <trkpt lat="47.19714" lon="-2.15157">
        <ele>18.3</ele>
        <time>2020-06-05T11:55:45Z</time>
      </trkpt>
      <trkpt lat="47.19714" lon="-2.15163">
        <ele>18.3</ele>
        <time>2020-06-05T11:55:46Z</time>
      </trkpt>
      <trkpt lat="47.19714" lon="-2.1517">
        <ele>18.3</ele>
        <time>2020-06-05T11:55:47Z</time>
      </trkpt>
      <trkpt lat="47.19716" lon="-2.15176">
        <ele>18.3</ele>
        <time>2020-06-05T11:55:48Z</time>
      </trkpt>
      <trkpt lat="47.19716" lon="-2.15181">
        <ele>18.3</ele>
        <time>2020-06-05T11:55:49Z</time>
      </trkpt>
      <trkpt lat="47.19718" lon="-2.15186">
        <ele>18.3</ele>
        <time>2020-06-05T11:55:50Z</time>
      </trkpt>
      <trkpt lat="47.19719" lon="-2.15192">
        <ele>18.3</ele>
        <time>2020-06-05T11:55:51Z</time>
      </trkpt>
      <trkpt lat="47.1972" lon="-2.15198">
        <ele>18.4</ele>
        <time>2020-06-05T11:55:52Z</time>
      </trkpt>
      <trkpt lat="47.19721" lon="-2.15204">
        <ele>18.4</ele>
        <time>2020-06-05T11:55:53Z</time>
      </trkpt>
      <trkpt lat="47.19722" lon="-2.1521">
        <ele>18.5</ele>
        <time>2020-06-05T11:55:54Z</time>
      </trkpt>
      <trkpt lat="47.19722" lon="-2.15216">
        <ele>18.6</ele>
        <time>2020-06-05T11:55:55Z</time>
      </trkpt>
      <trkpt lat="47.19722" lon="-2.15222">
        <ele>18.6</ele>
        <time>2020-06-05T11:55:56Z</time>
      </trkpt>
      <trkpt lat="47.19724" lon="-2.15229">
        <ele>18.7</ele>
        <time>2020-06-05T11:55:57Z</time>
      </trkpt>
      <trkpt lat="47.19725" lon="-2.15235">
        <ele>18.8</ele>
        <time>2020-06-05T11:55:58Z</time>
      </trkpt>
      <trkpt lat="47.19725" lon="-2.15241">
        <ele>18.9</ele>
        <time>2020-06-05T11:55:59Z</time>
      </trkpt>
      <trkpt lat="47.19725" lon="-2.15247">
        <ele>19</ele>
        <time>2020-06-05T11:56:00Z</time>
      </trkpt>
      <trkpt lat="47.19724" lon="-2.15253">
        <ele>19.1</ele>
        <time>2020-06-05T11:56:01Z</time>
      </trkpt>
      <trkpt lat="47.19724" lon="-2.15259">
        <ele>19.3</ele>
        <time>2020-06-05T11:56:02Z</time>
      </trkpt>
      <trkpt lat="47.19725" lon="-2.15265">
        <ele>19.4</ele>
        <time>2020-06-05T11:56:03Z</time>
      </trkpt>
      <trkpt lat="47.19726" lon="-2.1527">
        <ele>19.5</ele>
        <time>2020-06-05T11:56:04Z</time>
      </trkpt>
      <trkpt lat="47.19726" lon="-2.15276">
        <ele>19.6</ele>
        <time>2020-06-05T11:56:05Z</time>
      </trkpt>
      <trkpt lat="47.19728" lon="-2.1528">
        <ele>19.6</ele>
        <time>2020-06-05T11:56:06Z</time>
      </trkpt>
      <trkpt lat="47.19731" lon="-2.15281">
        <ele>19.9</ele>
        <time>2020-06-05T11:56:07Z</time>
      </trkpt>
      <trkpt lat="47.19735" lon="-2.1528">
        <ele>20</ele>
        <time>2020-06-05T11:56:08Z</time>
      </trkpt>
      <trkpt lat="47.19738" lon="-2.15278">
        <ele>20.1</ele>
        <time>2020-06-05T11:56:09Z</time>
      </trkpt>
      <trkpt lat="47.19742" lon="-2.15276">
        <ele>20.2</ele>
        <time>2020-06-05T11:56:10Z</time>
      </trkpt>
      <trkpt lat="47.19745" lon="-2.15276">
        <ele>20.3</ele>
        <time>2020-06-05T11:56:11Z</time>
      </trkpt>
      <trkpt lat="47.1975" lon="-2.15275">
        <ele>20.4</ele>
        <time>2020-06-05T11:56:12Z</time>
      </trkpt>
      <trkpt lat="47.19753" lon="-2.15275">
        <ele>20.5</ele>
        <time>2020-06-05T11:56:13Z</time>
      </trkpt>
      <trkpt lat="47.19757" lon="-2.15273">
        <ele>20.7</ele>
        <time>2020-06-05T11:56:14Z</time>
      </trkpt>
      <trkpt lat="47.1976" lon="-2.15273">
        <ele>20.7</ele>
        <time>2020-06-05T11:56:15Z</time>
      </trkpt>
      <trkpt lat="47.19764" lon="-2.15273">
        <ele>20.7</ele>
        <time>2020-06-05T11:56:16Z</time>
      </trkpt>
      <trkpt lat="47.19767" lon="-2.15272">
        <ele>20.7</ele>
        <time>2020-06-05T11:56:17Z</time>
      </trkpt>
      <trkpt lat="47.1977" lon="-2.15271">
        <ele>20.6</ele>
        <time>2020-06-05T11:56:18Z</time>
      </trkpt>
      <trkpt lat="47.19771" lon="-2.15271">
        <ele>20.6</ele>
        <time>2020-06-05T11:56:19Z</time>
      </trkpt>
      <trkpt lat="47.19775" lon="-2.1527">
        <ele>20.6</ele>
        <time>2020-06-05T11:56:20Z</time>
      </trkpt>
      <trkpt lat="47.19776" lon="-2.15269">
        <ele>20.6</ele>
        <time>2020-06-05T11:56:21Z</time>
      </trkpt>
      <trkpt lat="47.1978" lon="-2.15269">
        <ele>20.6</ele>
        <time>2020-06-05T11:56:22Z</time>
      </trkpt>
      <trkpt lat="47.19784" lon="-2.15269">
        <ele>20.5</ele>
        <time>2020-06-05T11:56:23Z</time>
      </trkpt>
      <trkpt lat="47.19787" lon="-2.15269">
        <ele>20.5</ele>
        <time>2020-06-05T11:56:24Z</time>
      </trkpt>
      <trkpt lat="47.1979" lon="-2.1527">
        <ele>20.4</ele>
        <time>2020-06-05T11:56:25Z</time>
      </trkpt>
      <trkpt lat="47.19794" lon="-2.1527">
        <ele>20.4</ele>
        <time>2020-06-05T11:56:26Z</time>
      </trkpt>
      <trkpt lat="47.19798" lon="-2.1527">
        <ele>20.3</ele>
        <time>2020-06-05T11:56:27Z</time>
      </trkpt>
      <trkpt lat="47.19802" lon="-2.1527">
        <ele>20.2</ele>
        <time>2020-06-05T11:56:28Z</time>
      </trkpt>
      <trkpt lat="47.19806" lon="-2.15271">
        <ele>20.1</ele>
        <time>2020-06-05T11:56:29Z</time>
      </trkpt>
      <trkpt lat="47.19811" lon="-2.15272">
        <ele>20</ele>
        <time>2020-06-05T11:56:30Z</time>
      </trkpt>
      <trkpt lat="47.19817" lon="-2.15273">
        <ele>19.9</ele>
        <time>2020-06-05T11:56:31Z</time>
      </trkpt>
      <trkpt lat="47.19822" lon="-2.15273">
        <ele>19.8</ele>
        <time>2020-06-05T11:56:32Z</time>
      </trkpt>
      <trkpt lat="47.19827" lon="-2.15274">
        <ele>19.6</ele>
        <time>2020-06-05T11:56:33Z</time>
      </trkpt>
      <trkpt lat="47.19833" lon="-2.15275">
        <ele>19.4</ele>
        <time>2020-06-05T11:56:34Z</time>
      </trkpt>
      <trkpt lat="47.19839" lon="-2.15275">
        <ele>19.2</ele>
        <time>2020-06-05T11:56:35Z</time>
      </trkpt>
      <trkpt lat="47.19845" lon="-2.15276">
        <ele>19</ele>
        <time>2020-06-05T11:56:36Z</time>
      </trkpt>
      <trkpt lat="47.19851" lon="-2.15277">
        <ele>18.8</ele>
        <time>2020-06-05T11:56:37Z</time>
      </trkpt>
      <trkpt lat="47.19856" lon="-2.15278">
        <ele>18.6</ele>
        <time>2020-06-05T11:56:38Z</time>
      </trkpt>
      <trkpt lat="47.19863" lon="-2.15278">
        <ele>18.4</ele>
        <time>2020-06-05T11:56:39Z</time>
      </trkpt>
      <trkpt lat="47.1987" lon="-2.1528">
        <ele>18.1</ele>
        <time>2020-06-05T11:56:40Z</time>
      </trkpt>
      <trkpt lat="47.19878" lon="-2.15281">
        <ele>17.8</ele>
        <time>2020-06-05T11:56:41Z</time>
      </trkpt>
      <trkpt lat="47.19886" lon="-2.15283">
        <ele>17.5</ele>
        <time>2020-06-05T11:56:42Z</time>
      </trkpt>
      <trkpt lat="47.19894" lon="-2.15286">
        <ele>17.1</ele>
        <time>2020-06-05T11:56:43Z</time>
      </trkpt>
      <trkpt lat="47.19902" lon="-2.15288">
        <ele>16.8</ele>
        <time>2020-06-05T11:56:44Z</time>
      </trkpt>
      <trkpt lat="47.1991" lon="-2.1529">
        <ele>16.4</ele>
        <time>2020-06-05T11:56:45Z</time>
      </trkpt>
      <trkpt lat="47.19919" lon="-2.15291">
        <ele>15.7</ele>
        <time>2020-06-05T11:56:46Z</time>
      </trkpt>
      <trkpt lat="47.19928" lon="-2.15293">
        <ele>15.2</ele>
        <time>2020-06-05T11:56:47Z</time>
      </trkpt>
      <trkpt lat="47.19936" lon="-2.15295">
        <ele>14.8</ele>
        <time>2020-06-05T11:56:48Z</time>
      </trkpt>
      <trkpt lat="47.19944" lon="-2.15297">
        <ele>14.4</ele>
        <time>2020-06-05T11:56:49Z</time>
      </trkpt>
      <trkpt lat="47.19951" lon="-2.15298">
        <ele>14.1</ele>
        <time>2020-06-05T11:56:50Z</time>
      </trkpt>
      <trkpt lat="47.19959" lon="-2.153">
        <ele>13.8</ele>
        <time>2020-06-05T11:56:51Z</time>
      </trkpt>
      <trkpt lat="47.19966" lon="-2.15301">
        <ele>13.6</ele>
        <time>2020-06-05T11:56:52Z</time>
      </trkpt>
      <trkpt lat="47.19973" lon="-2.15301">
        <ele>13.5</ele>
        <time>2020-06-05T11:56:53Z</time>
      </trkpt>
      <trkpt lat="47.19979" lon="-2.153">
        <ele>13.3</ele>
        <time>2020-06-05T11:56:54Z</time>
      </trkpt>
      <trkpt lat="47.19983" lon="-2.15301">
        <ele>13.3</ele>
        <time>2020-06-05T11:56:55Z</time>
      </trkpt>
      <trkpt lat="47.19986" lon="-2.15303">
        <ele>13.2</ele>
        <time>2020-06-05T11:56:56Z</time>
      </trkpt>
      <trkpt lat="47.19987" lon="-2.15304">
        <ele>13.2</ele>
        <time>2020-06-05T11:56:57Z</time>
      </trkpt>
      <trkpt lat="47.19987" lon="-2.15305">
        <ele>13.2</ele>
        <time>2020-06-05T11:56:58Z</time>
      </trkpt>
      <trkpt lat="47.19988" lon="-2.15305">
        <ele>13.1</ele>
        <time>2020-06-05T11:56:59Z</time>
      </trkpt>
      <trkpt lat="47.19989" lon="-2.15306">
        <ele>13.1</ele>
        <time>2020-06-05T11:57:00Z</time>
      </trkpt>
      <trkpt lat="47.19991" lon="-2.15306">
        <ele>13.1</ele>
        <time>2020-06-05T11:57:01Z</time>
      </trkpt>
      <trkpt lat="47.19992" lon="-2.15307">
        <ele>13.1</ele>
        <time>2020-06-05T11:57:02Z</time>
      </trkpt>
      <trkpt lat="47.19992" lon="-2.15306">
        <ele>13.1</ele>
        <time>2020-06-05T11:57:03Z</time>
      </trkpt>
      <trkpt lat="47.19993" lon="-2.15306">
        <ele>13</ele>
        <time>2020-06-05T11:57:04Z</time>
      </trkpt>
      <trkpt lat="47.19994" lon="-2.15307">
        <ele>13</ele>
        <time>2020-06-05T11:57:05Z</time>
      </trkpt>
      <trkpt lat="47.19994" lon="-2.15307">
        <ele>13</ele>
        <time>2020-06-05T11:57:06Z</time>
      </trkpt>
      <trkpt lat="47.19995" lon="-2.15307">
        <ele>13</ele>
        <time>2020-06-05T11:57:07Z</time>
      </trkpt>
      <trkpt lat="47.19995" lon="-2.15308">
        <ele>13</ele>
        <time>2020-06-05T11:57:08Z</time>
      </trkpt>
      <trkpt lat="47.19997" lon="-2.15309">
        <ele>12.9</ele>
        <time>2020-06-05T11:57:09Z</time>
      </trkpt>
      <trkpt lat="47.19998" lon="-2.1531">
        <ele>12.9</ele>
        <time>2020-06-05T11:57:10Z</time>
      </trkpt>
      <trkpt lat="47.19999" lon="-2.15312">
        <ele>12.9</ele>
        <time>2020-06-05T11:57:11Z</time>
      </trkpt>
      <trkpt lat="47.2" lon="-2.15312">
        <ele>12.9</ele>
        <time>2020-06-05T11:57:12Z</time>
      </trkpt>
      <trkpt lat="47.2" lon="-2.15312">
        <ele>12.9</ele>
        <time>2020-06-05T11:57:13Z</time>
      </trkpt>
      <trkpt lat="47.20001" lon="-2.15312">
        <ele>12.8</ele>
        <time>2020-06-05T11:57:14Z</time>
      </trkpt>
      <trkpt lat="47.20001" lon="-2.15312">
        <ele>12.8</ele>
        <time>2020-06-05T11:57:15Z</time>
      </trkpt>
      <trkpt lat="47.20001" lon="-2.15311">
        <ele>12.8</ele>
        <time>2020-06-05T11:57:16Z</time>
      </trkpt>
      <trkpt lat="47.2" lon="-2.15311">
        <ele>12.8</ele>
        <time>2020-06-05T11:57:17Z</time>
      </trkpt>
      <trkpt lat="47.2" lon="-2.15311">
        <ele>12.8</ele>
        <time>2020-06-05T11:57:18Z</time>
      </trkpt>
      <trkpt lat="47.2" lon="-2.15312">
        <ele>12.8</ele>
        <time>2020-06-05T11:57:19Z</time>
      </trkpt>
      <trkpt lat="47.2" lon="-2.15312">
        <ele>12.8</ele>
        <time>2020-06-05T11:57:20Z</time>
      </trkpt>
      <trkpt lat="47.20001" lon="-2.15312">
        <ele>12.8</ele>
        <time>2020-06-05T11:57:21Z</time>
      </trkpt>
      <trkpt lat="47.20001" lon="-2.15312">
        <ele>12.8</ele>
        <time>2020-06-05T11:57:22Z</time>
      </trkpt>
      <trkpt lat="47.20002" lon="-2.15312">
        <ele>12.8</ele>
        <time>2020-06-05T11:57:23Z</time>
      </trkpt>
      <trkpt lat="47.20002" lon="-2.15312">
        <ele>12.8</ele>
        <time>2020-06-05T11:57:24Z</time>
      </trkpt>
      <trkpt lat="47.20001" lon="-2.15312">
        <ele>12.8</ele>
        <time>2020-06-05T11:57:25Z</time>
      </trkpt>
      <trkpt lat="47.20002" lon="-2.15312">
        <ele>12.8</ele>
        <time>2020-06-05T11:57:26Z</time>
      </trkpt>
      <trkpt lat="47.20002" lon="-2.15312">
        <ele>12.8</ele>
        <time>2020-06-05T11:57:27Z</time>
      </trkpt>
      <trkpt lat="47.20001" lon="-2.15313">
        <ele>12.7</ele>
        <time>2020-06-05T11:57:28Z</time>
      </trkpt>
      <trkpt lat="47.20002" lon="-2.15314">
        <ele>12.7</ele>
        <time>2020-06-05T11:57:29Z</time>
      </trkpt>
      <trkpt lat="47.20002" lon="-2.15314">
        <ele>12.7</ele>
        <time>2020-06-05T11:57:30Z</time>
      </trkpt>
      <trkpt lat="47.20002" lon="-2.15313">
        <ele>12.7</ele>
        <time>2020-06-05T11:57:31Z</time>
      </trkpt>
      <trkpt lat="47.20004" lon="-2.15312">
        <ele>12.7</ele>
        <time>2020-06-05T11:57:32Z</time>
      </trkpt>
      <trkpt lat="47.20005" lon="-2.15312">
        <ele>12.7</ele>
        <time>2020-06-05T11:57:33Z</time>
      </trkpt>
      <trkpt lat="47.20007" lon="-2.15309">
        <ele>12.6</ele>
        <time>2020-06-05T11:57:34Z</time>
      </trkpt>
      <trkpt lat="47.20007" lon="-2.1531">
        <ele>12.6</ele>
        <time>2020-06-05T11:57:35Z</time>
      </trkpt>
      <trkpt lat="47.20007" lon="-2.1531">
        <ele>12.6</ele>
        <time>2020-06-05T11:57:36Z</time>
      </trkpt>
      <trkpt lat="47.20007" lon="-2.1531">
        <ele>12.6</ele>
        <time>2020-06-05T11:57:37Z</time>
      </trkpt>
      <trkpt lat="47.20008" lon="-2.1531">
        <ele>12.6</ele>
        <time>2020-06-05T11:57:38Z</time>
      </trkpt>
      <trkpt lat="47.20008" lon="-2.15308">
        <ele>12.6</ele>
        <time>2020-06-05T11:57:39Z</time>
      </trkpt>
      <trkpt lat="47.20009" lon="-2.15306">
        <ele>12.6</ele>
        <time>2020-06-05T11:57:40Z</time>
      </trkpt>
      <trkpt lat="47.20009" lon="-2.15304">
        <ele>12.6</ele>
        <time>2020-06-05T11:57:41Z</time>
      </trkpt>
      <trkpt lat="47.20009" lon="-2.15303">
        <ele>12.5</ele>
        <time>2020-06-05T11:57:42Z</time>
      </trkpt>
      <trkpt lat="47.20009" lon="-2.15303">
        <ele>12.5</ele>
        <time>2020-06-05T11:57:43Z</time>
      </trkpt>
      <trkpt lat="47.2001" lon="-2.15304">
        <ele>12.5</ele>
        <time>2020-06-05T11:57:44Z</time>
      </trkpt>
      <trkpt lat="47.2001" lon="-2.15304">
        <ele>12.5</ele>
        <time>2020-06-05T11:57:45Z</time>
      </trkpt>
      <trkpt lat="47.20011" lon="-2.15304">
        <ele>12.5</ele>
        <time>2020-06-05T11:57:46Z</time>
      </trkpt>
      <trkpt lat="47.20011" lon="-2.15304">
        <ele>12.5</ele>
        <time>2020-06-05T11:57:47Z</time>
      </trkpt>
      <trkpt lat="47.20011" lon="-2.15304">
        <ele>12.5</ele>
        <time>2020-06-05T11:57:48Z</time>
      </trkpt>
      <trkpt lat="47.20012" lon="-2.15304">
        <ele>12.5</ele>
        <time>2020-06-05T11:57:49Z</time>
      </trkpt>
      <trkpt lat="47.20012" lon="-2.15305">
        <ele>12.5</ele>
        <time>2020-06-05T11:57:50Z</time>
      </trkpt>
      <trkpt lat="47.20012" lon="-2.15306">
        <ele>12.5</ele>
        <time>2020-06-05T11:57:51Z</time>
      </trkpt>
      <trkpt lat="47.20012" lon="-2.15305">
        <ele>12.5</ele>
        <time>2020-06-05T11:57:52Z</time>
      </trkpt>
      <trkpt lat="47.20013" lon="-2.15305">
        <ele>12.5</ele>
        <time>2020-06-05T11:57:53Z</time>
      </trkpt>
      <trkpt lat="47.20012" lon="-2.15306">
        <ele>12.5</ele>
        <time>2020-06-05T11:57:54Z</time>
      </trkpt>
      <trkpt lat="47.20012" lon="-2.15306">
        <ele>12.5</ele>
        <time>2020-06-05T11:57:55Z</time>
      </trkpt>
      <trkpt lat="47.20012" lon="-2.15307">
        <ele>12.5</ele>
        <time>2020-06-05T11:57:56Z</time>
      </trkpt>
      <trkpt lat="47.20012" lon="-2.15307">
        <ele>12.5</ele>
        <time>2020-06-05T11:57:57Z</time>
      </trkpt>
      <trkpt lat="47.20011" lon="-2.15308">
        <ele>12.5</ele>
        <time>2020-06-05T11:57:58Z</time>
      </trkpt>
      <trkpt lat="47.20011" lon="-2.15307">
        <ele>12.5</ele>
        <time>2020-06-05T11:57:59Z</time>
      </trkpt>
      <trkpt lat="47.20014" lon="-2.15315">
        <ele>12.4</ele>
        <time>2020-06-05T11:58:37Z</time>
      </trkpt>
      <trkpt lat="47.20016" lon="-2.15314">
        <ele>12.4</ele>
        <time>2020-06-05T11:58:38Z</time>
      </trkpt>
      <trkpt lat="47.20017" lon="-2.15315">
        <ele>12.3</ele>
        <time>2020-06-05T11:58:39Z</time>
      </trkpt>
      <trkpt lat="47.20018" lon="-2.15316">
        <ele>12.3</ele>
        <time>2020-06-05T11:58:40Z</time>
      </trkpt>
      <trkpt lat="47.20022" lon="-2.15315">
        <ele>12.3</ele>
        <time>2020-06-05T11:58:41Z</time>
      </trkpt>
      <trkpt lat="47.20023" lon="-2.15314">
        <ele>12.3</ele>
        <time>2020-06-05T11:58:42Z</time>
      </trkpt>
      <trkpt lat="47.20027" lon="-2.15315">
        <ele>12.2</ele>
        <time>2020-06-05T11:58:43Z</time>
      </trkpt>
      <trkpt lat="47.20028" lon="-2.15315">
        <ele>12.2</ele>
        <time>2020-06-05T11:58:44Z</time>
      </trkpt>
      <trkpt lat="47.20031" lon="-2.15315">
        <ele>12.1</ele>
        <time>2020-06-05T11:58:45Z</time>
      </trkpt>
      <trkpt lat="47.20035" lon="-2.15316">
        <ele>12.1</ele>
        <time>2020-06-05T11:58:46Z</time>
      </trkpt>
      <trkpt lat="47.20039" lon="-2.15316">
        <ele>12</ele>
        <time>2020-06-05T11:58:47Z</time>
      </trkpt>
      <trkpt lat="47.20043" lon="-2.15316">
        <ele>12</ele>
        <time>2020-06-05T11:58:48Z</time>
      </trkpt>
      <trkpt lat="47.20047" lon="-2.15317">
        <ele>11.9</ele>
        <time>2020-06-05T11:58:49Z</time>
      </trkpt>
      <trkpt lat="47.2005" lon="-2.15317">
        <ele>11.8</ele>
        <time>2020-06-05T11:58:50Z</time>
      </trkpt>
      <trkpt lat="47.20055" lon="-2.15316">
        <ele>11.8</ele>
        <time>2020-06-05T11:58:51Z</time>
      </trkpt>
      <trkpt lat="47.20059" lon="-2.15315">
        <ele>11.7</ele>
        <time>2020-06-05T11:58:52Z</time>
      </trkpt>
      <trkpt lat="47.20063" lon="-2.15314">
        <ele>11.7</ele>
        <time>2020-06-05T11:58:53Z</time>
      </trkpt>
      <trkpt lat="47.20067" lon="-2.15312">
        <ele>11.6</ele>
        <time>2020-06-05T11:58:54Z</time>
      </trkpt>
      <trkpt lat="47.20072" lon="-2.1531">
        <ele>11.6</ele>
        <time>2020-06-05T11:58:55Z</time>
      </trkpt>
      <trkpt lat="47.20076" lon="-2.15311">
        <ele>11.6</ele>
        <time>2020-06-05T11:58:56Z</time>
      </trkpt>
      <trkpt lat="47.2008" lon="-2.15312">
        <ele>11.6</ele>
        <time>2020-06-05T11:58:57Z</time>
      </trkpt>
      <trkpt lat="47.20084" lon="-2.1531">
        <ele>11.6</ele>
        <time>2020-06-05T11:58:58Z</time>
      </trkpt>
      <trkpt lat="47.20087" lon="-2.15307">
        <ele>11.6</ele>
        <time>2020-06-05T11:58:59Z</time>
      </trkpt>
      <trkpt lat="47.2009" lon="-2.15304">
        <ele>11.6</ele>
        <time>2020-06-05T11:59:00Z</time>
      </trkpt>
      <trkpt lat="47.20093" lon="-2.15304">
        <ele>11.6</ele>
        <time>2020-06-05T11:59:01Z</time>
      </trkpt>
      <trkpt lat="47.20097" lon="-2.15304">
        <ele>11.6</ele>
        <time>2020-06-05T11:59:02Z</time>
      </trkpt>
      <trkpt lat="47.20101" lon="-2.15303">
        <ele>11.6</ele>
        <time>2020-06-05T11:59:03Z</time>
      </trkpt>
      <trkpt lat="47.20105" lon="-2.15303">
        <ele>11.5</ele>
        <time>2020-06-05T11:59:04Z</time>
      </trkpt>
      <trkpt lat="47.2011" lon="-2.15303">
        <ele>11.5</ele>
        <time>2020-06-05T11:59:05Z</time>
      </trkpt>
      <trkpt lat="47.20115" lon="-2.15301">
        <ele>11.5</ele>
        <time>2020-06-05T11:59:06Z</time>
      </trkpt>
      <trkpt lat="47.2012" lon="-2.153">
        <ele>11.5</ele>
        <time>2020-06-05T11:59:07Z</time>
      </trkpt>
      <trkpt lat="47.20125" lon="-2.15298">
        <ele>11.6</ele>
        <time>2020-06-05T11:59:08Z</time>
      </trkpt>
      <trkpt lat="47.2013" lon="-2.15297">
        <ele>11.6</ele>
        <time>2020-06-05T11:59:09Z</time>
      </trkpt>
      <trkpt lat="47.20136" lon="-2.15295">
        <ele>11.6</ele>
        <time>2020-06-05T11:59:10Z</time>
      </trkpt>
      <trkpt lat="47.2014" lon="-2.15294">
        <ele>11.6</ele>
        <time>2020-06-05T11:59:11Z</time>
      </trkpt>
      <trkpt lat="47.20143" lon="-2.15291">
        <ele>11.6</ele>
        <time>2020-06-05T11:59:12Z</time>
      </trkpt>
      <trkpt lat="47.20147" lon="-2.15289">
        <ele>11.6</ele>
        <time>2020-06-05T11:59:13Z</time>
      </trkpt>
      <trkpt lat="47.2015" lon="-2.15287">
        <ele>11.6</ele>
        <time>2020-06-05T11:59:14Z</time>
      </trkpt>
      <trkpt lat="47.20154" lon="-2.15284">
        <ele>11.6</ele>
        <time>2020-06-05T11:59:15Z</time>
      </trkpt>
      <trkpt lat="47.2016" lon="-2.15283">
        <ele>11.6</ele>
        <time>2020-06-05T11:59:16Z</time>
      </trkpt>
      <trkpt lat="47.20165" lon="-2.15281">
        <ele>11.5</ele>
        <time>2020-06-05T11:59:17Z</time>
      </trkpt>
      <trkpt lat="47.20171" lon="-2.1528">
        <ele>11.5</ele>
        <time>2020-06-05T11:59:18Z</time>
      </trkpt>
      <trkpt lat="47.20176" lon="-2.15278">
        <ele>11.5</ele>
        <time>2020-06-05T11:59:19Z</time>
      </trkpt>
      <trkpt lat="47.2018" lon="-2.15277">
        <ele>11.5</ele>
        <time>2020-06-05T11:59:20Z</time>
      </trkpt>
      <trkpt lat="47.20184" lon="-2.15275">
        <ele>11.5</ele>
        <time>2020-06-05T11:59:21Z</time>
      </trkpt>
      <trkpt lat="47.20188" lon="-2.15272">
        <ele>11.4</ele>
        <time>2020-06-05T11:59:22Z</time>
      </trkpt>
      <trkpt lat="47.20192" lon="-2.15269">
        <ele>11.4</ele>
        <time>2020-06-05T11:59:23Z</time>
      </trkpt>
      <trkpt lat="47.20196" lon="-2.15267">
        <ele>11.4</ele>
        <time>2020-06-05T11:59:24Z</time>
      </trkpt>
      <trkpt lat="47.202" lon="-2.15264">
        <ele>11.4</ele>
        <time>2020-06-05T11:59:25Z</time>
      </trkpt>
      <trkpt lat="47.20204" lon="-2.15261">
        <ele>11.4</ele>
        <time>2020-06-05T11:59:26Z</time>
      </trkpt>
      <trkpt lat="47.20208" lon="-2.15258">
        <ele>11.4</ele>
        <time>2020-06-05T11:59:27Z</time>
      </trkpt>
      <trkpt lat="47.20212" lon="-2.15255">
        <ele>11.5</ele>
        <time>2020-06-05T11:59:28Z</time>
      </trkpt>
      <trkpt lat="47.20216" lon="-2.15253">
        <ele>11.5</ele>
        <time>2020-06-05T11:59:29Z</time>
      </trkpt>
      <trkpt lat="47.20221" lon="-2.15251">
        <ele>11.5</ele>
        <time>2020-06-05T11:59:30Z</time>
      </trkpt>
      <trkpt lat="47.20225" lon="-2.15249">
        <ele>11.5</ele>
        <time>2020-06-05T11:59:31Z</time>
      </trkpt>
      <trkpt lat="47.20228" lon="-2.15248">
        <ele>11.5</ele>
        <time>2020-06-05T11:59:32Z</time>
      </trkpt>
      <trkpt lat="47.20232" lon="-2.15246">
        <ele>11.5</ele>
        <time>2020-06-05T11:59:33Z</time>
      </trkpt>
      <trkpt lat="47.20237" lon="-2.15244">
        <ele>11.5</ele>
        <time>2020-06-05T11:59:34Z</time>
      </trkpt>
      <trkpt lat="47.20242" lon="-2.15241">
        <ele>11.6</ele>
        <time>2020-06-05T11:59:35Z</time>
      </trkpt>
      <trkpt lat="47.20247" lon="-2.15239">
        <ele>11.6</ele>
        <time>2020-06-05T11:59:36Z</time>
      </trkpt>
      <trkpt lat="47.20252" lon="-2.1524">
        <ele>11.6</ele>
        <time>2020-06-05T11:59:37Z</time>
      </trkpt>
      <trkpt lat="47.20257" lon="-2.15242">
        <ele>11.7</ele>
        <time>2020-06-05T11:59:38Z</time>
      </trkpt>
      <trkpt lat="47.20261" lon="-2.15244">
        <ele>11.7</ele>
        <time>2020-06-05T11:59:39Z</time>
      </trkpt>
      <trkpt lat="47.20264" lon="-2.15245">
        <ele>11.8</ele>
        <time>2020-06-05T11:59:40Z</time>
      </trkpt>
      <trkpt lat="47.20268" lon="-2.15247">
        <ele>11.8</ele>
        <time>2020-06-05T11:59:41Z</time>
      </trkpt>
      <trkpt lat="47.20271" lon="-2.1525">
        <ele>11.9</ele>
        <time>2020-06-05T11:59:42Z</time>
      </trkpt>
      <trkpt lat="47.20275" lon="-2.15254">
        <ele>12</ele>
        <time>2020-06-05T11:59:43Z</time>
      </trkpt>
      <trkpt lat="47.2028" lon="-2.15257">
        <ele>12.1</ele>
        <time>2020-06-05T11:59:44Z</time>
      </trkpt>
      <trkpt lat="47.20283" lon="-2.15263">
        <ele>12.3</ele>
        <time>2020-06-05T11:59:45Z</time>
      </trkpt>
      <trkpt lat="47.20288" lon="-2.15265">
        <ele>12.4</ele>
        <time>2020-06-05T11:59:46Z</time>
      </trkpt>
      <trkpt lat="47.20293" lon="-2.15269">
        <ele>12.5</ele>
        <time>2020-06-05T11:59:47Z</time>
      </trkpt>
      <trkpt lat="47.20297" lon="-2.15273">
        <ele>12.6</ele>
        <time>2020-06-05T11:59:48Z</time>
      </trkpt>
      <trkpt lat="47.20301" lon="-2.15276">
        <ele>12.6</ele>
        <time>2020-06-05T11:59:49Z</time>
      </trkpt>
      <trkpt lat="47.20305" lon="-2.1528">
        <ele>12.6</ele>
        <time>2020-06-05T11:59:50Z</time>
      </trkpt>
      <trkpt lat="47.20308" lon="-2.15287">
        <ele>12.6</ele>
        <time>2020-06-05T11:59:51Z</time>
      </trkpt>
      <trkpt lat="47.20311" lon="-2.15293">
        <ele>12.6</ele>
        <time>2020-06-05T11:59:52Z</time>
      </trkpt>
      <trkpt lat="47.20314" lon="-2.15299">
        <ele>12.5</ele>
        <time>2020-06-05T11:59:53Z</time>
      </trkpt>
      <trkpt lat="47.20318" lon="-2.15304">
        <ele>12.5</ele>
        <time>2020-06-05T11:59:54Z</time>
      </trkpt>
      <trkpt lat="47.20321" lon="-2.15309">
        <ele>12.4</ele>
        <time>2020-06-05T11:59:55Z</time>
      </trkpt>
      <trkpt lat="47.20324" lon="-2.15314">
        <ele>12.4</ele>
        <time>2020-06-05T11:59:56Z</time>
      </trkpt>
      <trkpt lat="47.20327" lon="-2.15319">
        <ele>12.3</ele>
        <time>2020-06-05T11:59:57Z</time>
      </trkpt>
      <trkpt lat="47.2033" lon="-2.15324">
        <ele>12.2</ele>
        <time>2020-06-05T11:59:58Z</time>
      </trkpt>
      <trkpt lat="47.20333" lon="-2.1533">
        <ele>12.1</ele>
        <time>2020-06-05T11:59:59Z</time>
      </trkpt>
      <trkpt lat="47.20336" lon="-2.15336">
        <ele>12</ele>
        <time>2020-06-05T12:00:00Z</time>
      </trkpt>
      <trkpt lat="47.20339" lon="-2.15342">
        <ele>11.9</ele>
        <time>2020-06-05T12:00:01Z</time>
      </trkpt>
      <trkpt lat="47.20342" lon="-2.15347">
        <ele>11.8</ele>
        <time>2020-06-05T12:00:02Z</time>
      </trkpt>
      <trkpt lat="47.20345" lon="-2.15353">
        <ele>11.6</ele>
        <time>2020-06-05T12:00:03Z</time>
      </trkpt>
      <trkpt lat="47.20347" lon="-2.1536">
        <ele>11.5</ele>
        <time>2020-06-05T12:00:04Z</time>
      </trkpt>
      <trkpt lat="47.2035" lon="-2.15366">
        <ele>11.4</ele>
        <time>2020-06-05T12:00:05Z</time>
      </trkpt>
      <trkpt lat="47.20353" lon="-2.15372">
        <ele>11.2</ele>
        <time>2020-06-05T12:00:06Z</time>
      </trkpt>
      <trkpt lat="47.20356" lon="-2.15377">
        <ele>11.1</ele>
        <time>2020-06-05T12:00:07Z</time>
      </trkpt>
      <trkpt lat="47.20358" lon="-2.15383">
        <ele>10.9</ele>
        <time>2020-06-05T12:00:08Z</time>
      </trkpt>
      <trkpt lat="47.20361" lon="-2.15388">
        <ele>10.8</ele>
        <time>2020-06-05T12:00:09Z</time>
      </trkpt>
      <trkpt lat="47.20365" lon="-2.15393">
        <ele>10.6</ele>
        <time>2020-06-05T12:00:10Z</time>
      </trkpt>
      <trkpt lat="47.20368" lon="-2.15399">
        <ele>10.5</ele>
        <time>2020-06-05T12:00:11Z</time>
      </trkpt>
      <trkpt lat="47.2037" lon="-2.15405">
        <ele>10.4</ele>
        <time>2020-06-05T12:00:12Z</time>
      </trkpt>
      <trkpt lat="47.20374" lon="-2.15412">
        <ele>10.3</ele>
        <time>2020-06-05T12:00:13Z</time>
      </trkpt>
      <trkpt lat="47.20377" lon="-2.15418">
        <ele>10.2</ele>
        <time>2020-06-05T12:00:14Z</time>
      </trkpt>
      <trkpt lat="47.2038" lon="-2.15424">
        <ele>10.1</ele>
        <time>2020-06-05T12:00:15Z</time>
      </trkpt>
      <trkpt lat="47.20383" lon="-2.15429">
        <ele>10.1</ele>
        <time>2020-06-05T12:00:16Z</time>
      </trkpt>
      <trkpt lat="47.20385" lon="-2.15435">
        <ele>10.1</ele>
        <time>2020-06-05T12:00:17Z</time>
      </trkpt>
      <trkpt lat="47.20387" lon="-2.1544">
        <ele>10.1</ele>
        <time>2020-06-05T12:00:18Z</time>
      </trkpt>
      <trkpt lat="47.2039" lon="-2.15445">
        <ele>10.1</ele>
        <time>2020-06-05T12:00:19Z</time>
      </trkpt>
      <trkpt lat="47.20393" lon="-2.1545">
        <ele>10.1</ele>
        <time>2020-06-05T12:00:20Z</time>
      </trkpt>
      <trkpt lat="47.20397" lon="-2.15453">
        <ele>10.1</ele>
        <time>2020-06-05T12:00:21Z</time>
      </trkpt>
      <trkpt lat="47.20401" lon="-2.15456">
        <ele>10.1</ele>
        <time>2020-06-05T12:00:22Z</time>
      </trkpt>
      <trkpt lat="47.20405" lon="-2.15461">
        <ele>10.1</ele>
        <time>2020-06-05T12:00:23Z</time>
      </trkpt>
      <trkpt lat="47.20408" lon="-2.15465">
        <ele>10.1</ele>
        <time>2020-06-05T12:00:24Z</time>
      </trkpt>
      <trkpt lat="47.20414" lon="-2.1547">
        <ele>10.1</ele>
        <time>2020-06-05T12:00:25Z</time>
      </trkpt>
      <trkpt lat="47.20418" lon="-2.15476">
        <ele>10.1</ele>
        <time>2020-06-05T12:00:26Z</time>
      </trkpt>
      <trkpt lat="47.20423" lon="-2.15481">
        <ele>10.1</ele>
        <time>2020-06-05T12:00:27Z</time>
      </trkpt>
      <trkpt lat="47.20428" lon="-2.15486">
        <ele>10.1</ele>
        <time>2020-06-05T12:00:28Z</time>
      </trkpt>
      <trkpt lat="47.20432" lon="-2.15491">
        <ele>10.1</ele>
        <time>2020-06-05T12:00:29Z</time>
      </trkpt>
      <trkpt lat="47.20436" lon="-2.15494">
        <ele>10.1</ele>
        <time>2020-06-05T12:00:30Z</time>
      </trkpt>
      <trkpt lat="47.2044" lon="-2.15498">
        <ele>10.1</ele>
        <time>2020-06-05T12:00:31Z</time>
      </trkpt>
      <trkpt lat="47.20443" lon="-2.155">
        <ele>10.1</ele>
        <time>2020-06-05T12:00:32Z</time>
      </trkpt>
      <trkpt lat="47.20448" lon="-2.15502">
        <ele>10.1</ele>
        <time>2020-06-05T12:00:33Z</time>
      </trkpt>
      <trkpt lat="47.20452" lon="-2.15503">
        <ele>10.1</ele>
        <time>2020-06-05T12:00:34Z</time>
      </trkpt>
      <trkpt lat="47.20455" lon="-2.15502">
        <ele>10.1</ele>
        <time>2020-06-05T12:00:35Z</time>
      </trkpt>
      <trkpt lat="47.20458" lon="-2.15503">
        <ele>10.2</ele>
        <time>2020-06-05T12:00:36Z</time>
      </trkpt>
      <trkpt lat="47.20459" lon="-2.15503">
        <ele>10.2</ele>
        <time>2020-06-05T12:00:37Z</time>
      </trkpt>
      <trkpt lat="47.20462" lon="-2.15504">
        <ele>10.2</ele>
        <time>2020-06-05T12:00:38Z</time>
      </trkpt>
      <trkpt lat="47.20463" lon="-2.15505">
        <ele>10.2</ele>
        <time>2020-06-05T12:00:39Z</time>
      </trkpt>
      <trkpt lat="47.20466" lon="-2.15503">
        <ele>10.2</ele>
        <time>2020-06-05T12:00:40Z</time>
      </trkpt>
      <trkpt lat="47.20467" lon="-2.15502">
        <ele>10.2</ele>
        <time>2020-06-05T12:00:41Z</time>
      </trkpt>
      <trkpt lat="47.20467" lon="-2.15498">
        <ele>10.6</ele>
        <time>2020-06-05T12:00:42Z</time>
      </trkpt>
      <trkpt lat="47.20466" lon="-2.15497">
        <ele>10.6</ele>
        <time>2020-06-05T12:00:43Z</time>
      </trkpt>
      <trkpt lat="47.20467" lon="-2.15492">
        <ele>10.6</ele>
        <time>2020-06-05T12:00:44Z</time>
      </trkpt>
      <trkpt lat="47.20467" lon="-2.1549">
        <ele>10.6</ele>
        <time>2020-06-05T12:00:45Z</time>
      </trkpt>
      <trkpt lat="47.20468" lon="-2.15485">
        <ele>10.6</ele>
        <time>2020-06-05T12:00:46Z</time>
      </trkpt>
      <trkpt lat="47.20469" lon="-2.15479">
        <ele>10.7</ele>
        <time>2020-06-05T12:00:47Z</time>
      </trkpt>
      <trkpt lat="47.20471" lon="-2.15473">
        <ele>10.8</ele>
        <time>2020-06-05T12:00:48Z</time>
      </trkpt>
      <trkpt lat="47.20473" lon="-2.15467">
        <ele>10.8</ele>
        <time>2020-06-05T12:00:49Z</time>
      </trkpt>
      <trkpt lat="47.20475" lon="-2.15461">
        <ele>10.9</ele>
        <time>2020-06-05T12:00:50Z</time>
      </trkpt>
      <trkpt lat="47.20477" lon="-2.15455">
        <ele>11</ele>
        <time>2020-06-05T12:00:51Z</time>
      </trkpt>
      <trkpt lat="47.20478" lon="-2.15449">
        <ele>11</ele>
        <time>2020-06-05T12:00:52Z</time>
      </trkpt>
      <trkpt lat="47.2048" lon="-2.15442">
        <ele>11</ele>
        <time>2020-06-05T12:00:53Z</time>
      </trkpt>
      <trkpt lat="47.20483" lon="-2.15435">
        <ele>11.1</ele>
        <time>2020-06-05T12:00:54Z</time>
      </trkpt>
      <trkpt lat="47.20484" lon="-2.15428">
        <ele>11.1</ele>
        <time>2020-06-05T12:00:55Z</time>
      </trkpt>
      <trkpt lat="47.20486" lon="-2.1542">
        <ele>11.2</ele>
        <time>2020-06-05T12:00:56Z</time>
      </trkpt>
      <trkpt lat="47.20489" lon="-2.15413">
        <ele>11.3</ele>
        <time>2020-06-05T12:00:57Z</time>
      </trkpt>
      <trkpt lat="47.20491" lon="-2.15406">
        <ele>11.3</ele>
        <time>2020-06-05T12:00:58Z</time>
      </trkpt>
      <trkpt lat="47.20493" lon="-2.15398">
        <ele>11.4</ele>
        <time>2020-06-05T12:00:59Z</time>
      </trkpt>
      <trkpt lat="47.20494" lon="-2.15391">
        <ele>11.4</ele>
        <time>2020-06-05T12:01:00Z</time>
      </trkpt>
      <trkpt lat="47.20495" lon="-2.15384">
        <ele>11.4</ele>
        <time>2020-06-05T12:01:01Z</time>
      </trkpt>
      <trkpt lat="47.20496" lon="-2.15377">
        <ele>11.4</ele>
        <time>2020-06-05T12:01:02Z</time>
      </trkpt>
      <trkpt lat="47.20497" lon="-2.15369">
        <ele>11.4</ele>
        <time>2020-06-05T12:01:03Z</time>
      </trkpt>
      <trkpt lat="47.20498" lon="-2.1536">
        <ele>11.4</ele>
        <time>2020-06-05T12:01:04Z</time>
      </trkpt>
      <trkpt lat="47.205" lon="-2.15352">
        <ele>11.4</ele>
        <time>2020-06-05T12:01:05Z</time>
      </trkpt>
      <trkpt lat="47.20501" lon="-2.15344">
        <ele>11.5</ele>
        <time>2020-06-05T12:01:06Z</time>
      </trkpt>
      <trkpt lat="47.20501" lon="-2.15336">
        <ele>11.5</ele>
        <time>2020-06-05T12:01:07Z</time>
      </trkpt>
      <trkpt lat="47.20502" lon="-2.15329">
        <ele>11.5</ele>
        <time>2020-06-05T12:01:08Z</time>
      </trkpt>
      <trkpt lat="47.20503" lon="-2.15321">
        <ele>11.6</ele>
        <time>2020-06-05T12:01:09Z</time>
      </trkpt>
      <trkpt lat="47.20504" lon="-2.15314">
        <ele>11.6</ele>
        <time>2020-06-05T12:01:10Z</time>
      </trkpt>
      <trkpt lat="47.20505" lon="-2.15306">
        <ele>11.6</ele>
        <time>2020-06-05T12:01:11Z</time>
      </trkpt>
      <trkpt lat="47.20508" lon="-2.15295">
        <ele>11.6</ele>
        <time>2020-06-05T12:01:12Z</time>
      </trkpt>
      <trkpt lat="47.20509" lon="-2.15288">
        <ele>11.6</ele>
        <time>2020-06-05T12:01:13Z</time>
      </trkpt>
      <trkpt lat="47.2051" lon="-2.1528">
        <ele>11.6</ele>
        <time>2020-06-05T12:01:14Z</time>
      </trkpt>
      <trkpt lat="47.20512" lon="-2.15273">
        <ele>11.6</ele>
        <time>2020-06-05T12:01:15Z</time>
      </trkpt>
      <trkpt lat="47.20513" lon="-2.15266">
        <ele>11.7</ele>
        <time>2020-06-05T12:01:16Z</time>
      </trkpt>
      <trkpt lat="47.20515" lon="-2.15259">
        <ele>11.7</ele>
        <time>2020-06-05T12:01:17Z</time>
      </trkpt>
      <trkpt lat="47.20518" lon="-2.15254">
        <ele>11.7</ele>
        <time>2020-06-05T12:01:18Z</time>
      </trkpt>
      <trkpt lat="47.20522" lon="-2.15251">
        <ele>11.6</ele>
        <time>2020-06-05T12:01:19Z</time>
      </trkpt>
      <trkpt lat="47.20527" lon="-2.15249">
        <ele>11.5</ele>
        <time>2020-06-05T12:01:20Z</time>
      </trkpt>
      <trkpt lat="47.20533" lon="-2.15249">
        <ele>11.3</ele>
        <time>2020-06-05T12:01:21Z</time>
      </trkpt>
      <trkpt lat="47.20538" lon="-2.15249">
        <ele>11.2</ele>
        <time>2020-06-05T12:01:22Z</time>
      </trkpt>
      <trkpt lat="47.20544" lon="-2.1525">
        <ele>11.1</ele>
        <time>2020-06-05T12:01:23Z</time>
      </trkpt>
      <trkpt lat="47.20549" lon="-2.1525">
        <ele>11</ele>
        <time>2020-06-05T12:01:24Z</time>
      </trkpt>
      <trkpt lat="47.20555" lon="-2.15251">
        <ele>10.9</ele>
        <time>2020-06-05T12:01:25Z</time>
      </trkpt>
      <trkpt lat="47.20561" lon="-2.15254">
        <ele>10.7</ele>
        <time>2020-06-05T12:01:26Z</time>
      </trkpt>
      <trkpt lat="47.20566" lon="-2.15256">
        <ele>10.6</ele>
        <time>2020-06-05T12:01:27Z</time>
      </trkpt>
      <trkpt lat="47.20573" lon="-2.15257">
        <ele>10.5</ele>
        <time>2020-06-05T12:01:28Z</time>
      </trkpt>
      <trkpt lat="47.20578" lon="-2.15257">
        <ele>10.4</ele>
        <time>2020-06-05T12:01:29Z</time>
      </trkpt>
      <trkpt lat="47.20585" lon="-2.15258">
        <ele>10.3</ele>
        <time>2020-06-05T12:01:30Z</time>
      </trkpt>
      <trkpt lat="47.2059" lon="-2.15259">
        <ele>10.2</ele>
        <time>2020-06-05T12:01:31Z</time>
      </trkpt>
      <trkpt lat="47.20597" lon="-2.15262">
        <ele>10.1</ele>
        <time>2020-06-05T12:01:32Z</time>
      </trkpt>
      <trkpt lat="47.20603" lon="-2.15264">
        <ele>10</ele>
        <time>2020-06-05T12:01:33Z</time>
      </trkpt>
      <trkpt lat="47.20608" lon="-2.15265">
        <ele>9.9</ele>
        <time>2020-06-05T12:01:34Z</time>
      </trkpt>
      <trkpt lat="47.20615" lon="-2.15265">
        <ele>9.8</ele>
        <time>2020-06-05T12:01:35Z</time>
      </trkpt>
      <trkpt lat="47.20621" lon="-2.15266">
        <ele>9.8</ele>
        <time>2020-06-05T12:01:36Z</time>
      </trkpt>
      <trkpt lat="47.20626" lon="-2.15267">
        <ele>9.8</ele>
        <time>2020-06-05T12:01:37Z</time>
      </trkpt>
      <trkpt lat="47.20631" lon="-2.15269">
        <ele>9.8</ele>
        <time>2020-06-05T12:01:38Z</time>
      </trkpt>
      <trkpt lat="47.20636" lon="-2.15269">
        <ele>9.8</ele>
        <time>2020-06-05T12:01:39Z</time>
      </trkpt>
      <trkpt lat="47.20641" lon="-2.1527">
        <ele>9.8</ele>
        <time>2020-06-05T12:01:40Z</time>
      </trkpt>
      <trkpt lat="47.20647" lon="-2.1527">
        <ele>9.7</ele>
        <time>2020-06-05T12:01:41Z</time>
      </trkpt>
      <trkpt lat="47.20651" lon="-2.1527">
        <ele>9.7</ele>
        <time>2020-06-05T12:01:42Z</time>
      </trkpt>
      <trkpt lat="47.20656" lon="-2.1527">
        <ele>9.7</ele>
        <time>2020-06-05T12:01:43Z</time>
      </trkpt>
      <trkpt lat="47.20661" lon="-2.15269">
        <ele>9.7</ele>
        <time>2020-06-05T12:01:44Z</time>
      </trkpt>
      <trkpt lat="47.20667" lon="-2.15268">
        <ele>9.7</ele>
        <time>2020-06-05T12:01:45Z</time>
      </trkpt>
      <trkpt lat="47.20673" lon="-2.15269">
        <ele>9.7</ele>
        <time>2020-06-05T12:01:46Z</time>
      </trkpt>
      <trkpt lat="47.20679" lon="-2.1527">
        <ele>9.6</ele>
        <time>2020-06-05T12:01:47Z</time>
      </trkpt>
      <trkpt lat="47.20685" lon="-2.15273">
        <ele>9.6</ele>
        <time>2020-06-05T12:01:48Z</time>
      </trkpt>
      <trkpt lat="47.20691" lon="-2.15274">
        <ele>9.6</ele>
        <time>2020-06-05T12:01:49Z</time>
      </trkpt>
      <trkpt lat="47.20696" lon="-2.15275">
        <ele>9.5</ele>
        <time>2020-06-05T12:01:50Z</time>
      </trkpt>
      <trkpt lat="47.20705" lon="-2.15278">
        <ele>9.4</ele>
        <time>2020-06-05T12:01:51Z</time>
      </trkpt>
      <trkpt lat="47.20711" lon="-2.15281">
        <ele>9.4</ele>
        <time>2020-06-05T12:01:52Z</time>
      </trkpt>
      <trkpt lat="47.20717" lon="-2.15282">
        <ele>9.3</ele>
        <time>2020-06-05T12:01:53Z</time>
      </trkpt>
      <trkpt lat="47.20723" lon="-2.15284">
        <ele>9.2</ele>
        <time>2020-06-05T12:01:54Z</time>
      </trkpt>
      <trkpt lat="47.20729" lon="-2.15285">
        <ele>9.1</ele>
        <time>2020-06-05T12:01:55Z</time>
      </trkpt>
      <trkpt lat="47.20734" lon="-2.15287">
        <ele>9</ele>
        <time>2020-06-05T12:01:56Z</time>
      </trkpt>
      <trkpt lat="47.2074" lon="-2.15289">
        <ele>9</ele>
        <time>2020-06-05T12:01:57Z</time>
      </trkpt>
      <trkpt lat="47.20744" lon="-2.1529">
        <ele>8.9</ele>
        <time>2020-06-05T12:01:58Z</time>
      </trkpt>
      <trkpt lat="47.20749" lon="-2.15291">
        <ele>8.9</ele>
        <time>2020-06-05T12:01:59Z</time>
      </trkpt>
      <trkpt lat="47.20754" lon="-2.15291">
        <ele>8.8</ele>
        <time>2020-06-05T12:02:00Z</time>
      </trkpt>
      <trkpt lat="47.20759" lon="-2.15292">
        <ele>8.7</ele>
        <time>2020-06-05T12:02:01Z</time>
      </trkpt>
      <trkpt lat="47.20766" lon="-2.15292">
        <ele>8.6</ele>
        <time>2020-06-05T12:02:02Z</time>
      </trkpt>
      <trkpt lat="47.20773" lon="-2.15293">
        <ele>8.5</ele>
        <time>2020-06-05T12:02:03Z</time>
      </trkpt>
      <trkpt lat="47.2078" lon="-2.15295">
        <ele>8.4</ele>
        <time>2020-06-05T12:02:04Z</time>
      </trkpt>
      <trkpt lat="47.20786" lon="-2.15297">
        <ele>8.4</ele>
        <time>2020-06-05T12:02:05Z</time>
      </trkpt>
      <trkpt lat="47.20791" lon="-2.15299">
        <ele>8.3</ele>
        <time>2020-06-05T12:02:06Z</time>
      </trkpt>
      <trkpt lat="47.20796" lon="-2.15298">
        <ele>8.3</ele>
        <time>2020-06-05T12:02:07Z</time>
      </trkpt>
      <trkpt lat="47.20803" lon="-2.15297">
        <ele>8.2</ele>
        <time>2020-06-05T12:02:08Z</time>
      </trkpt>
      <trkpt lat="47.20809" lon="-2.153">
        <ele>8</ele>
        <time>2020-06-05T12:02:09Z</time>
      </trkpt>
      <trkpt lat="47.20814" lon="-2.15303">
        <ele>8</ele>
        <time>2020-06-05T12:02:10Z</time>
      </trkpt>
      <trkpt lat="47.2082" lon="-2.15306">
        <ele>7.9</ele>
        <time>2020-06-05T12:02:11Z</time>
      </trkpt>
      <trkpt lat="47.20825" lon="-2.15309">
        <ele>7.8</ele>
        <time>2020-06-05T12:02:12Z</time>
      </trkpt>
      <trkpt lat="47.20832" lon="-2.15313">
        <ele>7.7</ele>
        <time>2020-06-05T12:02:13Z</time>
      </trkpt>
      <trkpt lat="47.20838" lon="-2.15315">
        <ele>7.5</ele>
        <time>2020-06-05T12:02:14Z</time>
      </trkpt>
      <trkpt lat="47.20843" lon="-2.15317">
        <ele>7.4</ele>
        <time>2020-06-05T12:02:15Z</time>
      </trkpt>
      <trkpt lat="47.20849" lon="-2.1532">
        <ele>7.2</ele>
        <time>2020-06-05T12:02:16Z</time>
      </trkpt>
      <trkpt lat="47.20855" lon="-2.15321">
        <ele>7.1</ele>
        <time>2020-06-05T12:02:17Z</time>
      </trkpt>
      <trkpt lat="47.20862" lon="-2.15326">
        <ele>6.9</ele>
        <time>2020-06-05T12:02:18Z</time>
      </trkpt>
      <trkpt lat="47.20868" lon="-2.1533">
        <ele>6.8</ele>
        <time>2020-06-05T12:02:19Z</time>
      </trkpt>
      <trkpt lat="47.20874" lon="-2.15334">
        <ele>6.7</ele>
        <time>2020-06-05T12:02:20Z</time>
      </trkpt>
      <trkpt lat="47.20881" lon="-2.15337">
        <ele>6.6</ele>
        <time>2020-06-05T12:02:21Z</time>
      </trkpt>
      <trkpt lat="47.20887" lon="-2.15342">
        <ele>6.4</ele>
        <time>2020-06-05T12:02:22Z</time>
      </trkpt>
      <trkpt lat="47.20892" lon="-2.15348">
        <ele>6.4</ele>
        <time>2020-06-05T12:02:23Z</time>
      </trkpt>
      <trkpt lat="47.20897" lon="-2.15353">
        <ele>6.3</ele>
        <time>2020-06-05T12:02:24Z</time>
      </trkpt>
      <trkpt lat="47.20903" lon="-2.15359">
        <ele>6.2</ele>
        <time>2020-06-05T12:02:25Z</time>
      </trkpt>
      <trkpt lat="47.20909" lon="-2.15365">
        <ele>6.1</ele>
        <time>2020-06-05T12:02:26Z</time>
      </trkpt>
      <trkpt lat="47.20913" lon="-2.1537">
        <ele>6</ele>
        <time>2020-06-05T12:02:27Z</time>
      </trkpt>
      <trkpt lat="47.20918" lon="-2.15375">
        <ele>5.9</ele>
        <time>2020-06-05T12:02:28Z</time>
      </trkpt>
      <trkpt lat="47.20923" lon="-2.15382">
        <ele>5.8</ele>
        <time>2020-06-05T12:02:29Z</time>
      </trkpt>
      <trkpt lat="47.20929" lon="-2.15388">
        <ele>5.7</ele>
        <time>2020-06-05T12:02:30Z</time>
      </trkpt>
      <trkpt lat="47.20934" lon="-2.15394">
        <ele>5.7</ele>
        <time>2020-06-05T12:02:31Z</time>
      </trkpt>
      <trkpt lat="47.20939" lon="-2.154">
        <ele>5.6</ele>
        <time>2020-06-05T12:02:32Z</time>
      </trkpt>
      <trkpt lat="47.20943" lon="-2.15407">
        <ele>5.6</ele>
        <time>2020-06-05T12:02:33Z</time>
      </trkpt>
      <trkpt lat="47.20948" lon="-2.15414">
        <ele>5.5</ele>
        <time>2020-06-05T12:02:34Z</time>
      </trkpt>
      <trkpt lat="47.20951" lon="-2.15421">
        <ele>5.5</ele>
        <time>2020-06-05T12:02:35Z</time>
      </trkpt>
      <trkpt lat="47.20955" lon="-2.15429">
        <ele>5.4</ele>
        <time>2020-06-05T12:02:36Z</time>
      </trkpt>
      <trkpt lat="47.20959" lon="-2.15435">
        <ele>5.3</ele>
        <time>2020-06-05T12:02:37Z</time>
      </trkpt>
      <trkpt lat="47.20963" lon="-2.15442">
        <ele>5.3</ele>
        <time>2020-06-05T12:02:38Z</time>
      </trkpt>
      <trkpt lat="47.20968" lon="-2.1545">
        <ele>5.2</ele>
        <time>2020-06-05T12:02:39Z</time>
      </trkpt>
      <trkpt lat="47.20972" lon="-2.15457">
        <ele>5.1</ele>
        <time>2020-06-05T12:02:40Z</time>
      </trkpt>
      <trkpt lat="47.20976" lon="-2.15463">
        <ele>5.1</ele>
        <time>2020-06-05T12:02:41Z</time>
      </trkpt>
      <trkpt lat="47.20981" lon="-2.15469">
        <ele>5.1</ele>
        <time>2020-06-05T12:02:42Z</time>
      </trkpt>
      <trkpt lat="47.20984" lon="-2.15476">
        <ele>5</ele>
        <time>2020-06-05T12:02:43Z</time>
      </trkpt>
      <trkpt lat="47.20987" lon="-2.15482">
        <ele>5</ele>
        <time>2020-06-05T12:02:44Z</time>
      </trkpt>
      <trkpt lat="47.20991" lon="-2.1549">
        <ele>5</ele>
        <time>2020-06-05T12:02:45Z</time>
      </trkpt>
      <trkpt lat="47.20995" lon="-2.15498">
        <ele>4.9</ele>
        <time>2020-06-05T12:02:46Z</time>
      </trkpt>
      <trkpt lat="47.20999" lon="-2.15506">
        <ele>4.9</ele>
        <time>2020-06-05T12:02:47Z</time>
      </trkpt>
      <trkpt lat="47.21003" lon="-2.15513">
        <ele>4.9</ele>
        <time>2020-06-05T12:02:48Z</time>
      </trkpt>
      <trkpt lat="47.21007" lon="-2.15519">
        <ele>4.9</ele>
        <time>2020-06-05T12:02:49Z</time>
      </trkpt>
      <trkpt lat="47.21011" lon="-2.15525">
        <ele>4.8</ele>
        <time>2020-06-05T12:02:50Z</time>
      </trkpt>
      <trkpt lat="47.21015" lon="-2.15531">
        <ele>4.8</ele>
        <time>2020-06-05T12:02:51Z</time>
      </trkpt>
      <trkpt lat="47.21019" lon="-2.15536">
        <ele>4.8</ele>
        <time>2020-06-05T12:02:52Z</time>
      </trkpt>
      <trkpt lat="47.21023" lon="-2.1554">
        <ele>4.8</ele>
        <time>2020-06-05T12:02:53Z</time>
      </trkpt>
      <trkpt lat="47.21028" lon="-2.15547">
        <ele>4.8</ele>
        <time>2020-06-05T12:02:54Z</time>
      </trkpt>
      <trkpt lat="47.21033" lon="-2.15551">
        <ele>4.8</ele>
        <time>2020-06-05T12:02:55Z</time>
      </trkpt>
      <trkpt lat="47.21036" lon="-2.15558">
        <ele>4.8</ele>
        <time>2020-06-05T12:02:56Z</time>
      </trkpt>
      <trkpt lat="47.2104" lon="-2.15565">
        <ele>4.8</ele>
        <time>2020-06-05T12:02:57Z</time>
      </trkpt>
      <trkpt lat="47.21044" lon="-2.15572">
        <ele>4.8</ele>
        <time>2020-06-05T12:02:58Z</time>
      </trkpt>
      <trkpt lat="47.21048" lon="-2.15578">
        <ele>4.8</ele>
        <time>2020-06-05T12:02:59Z</time>
      </trkpt>
      <trkpt lat="47.21053" lon="-2.15585">
        <ele>4.8</ele>
        <time>2020-06-05T12:03:00Z</time>
      </trkpt>
      <trkpt lat="47.21057" lon="-2.15591">
        <ele>4.8</ele>
        <time>2020-06-05T12:03:01Z</time>
      </trkpt>
      <trkpt lat="47.21061" lon="-2.15597">
        <ele>4.8</ele>
        <time>2020-06-05T12:03:02Z</time>
      </trkpt>
      <trkpt lat="47.21065" lon="-2.15603">
        <ele>4.8</ele>
        <time>2020-06-05T12:03:03Z</time>
      </trkpt>
      <trkpt lat="47.21069" lon="-2.1561">
        <ele>4.8</ele>
        <time>2020-06-05T12:03:04Z</time>
      </trkpt>
      <trkpt lat="47.21074" lon="-2.15618">
        <ele>4.8</ele>
        <time>2020-06-05T12:03:05Z</time>
      </trkpt>
      <trkpt lat="47.21078" lon="-2.15625">
        <ele>4.8</ele>
        <time>2020-06-05T12:03:06Z</time>
      </trkpt>
      <trkpt lat="47.21082" lon="-2.15632">
        <ele>4.8</ele>
        <time>2020-06-05T12:03:07Z</time>
      </trkpt>
      <trkpt lat="47.21085" lon="-2.15638">
        <ele>4.8</ele>
        <time>2020-06-05T12:03:08Z</time>
      </trkpt>
      <trkpt lat="47.21088" lon="-2.15646">
        <ele>4.8</ele>
        <time>2020-06-05T12:03:09Z</time>
      </trkpt>
      <trkpt lat="47.21092" lon="-2.15653">
        <ele>4.9</ele>
        <time>2020-06-05T12:03:10Z</time>
      </trkpt>
      <trkpt lat="47.21096" lon="-2.15659">
        <ele>4.9</ele>
        <time>2020-06-05T12:03:11Z</time>
      </trkpt>
      <trkpt lat="47.211" lon="-2.15666">
        <ele>4.9</ele>
        <time>2020-06-05T12:03:12Z</time>
      </trkpt>
      <trkpt lat="47.21104" lon="-2.15673">
        <ele>4.9</ele>
        <time>2020-06-05T12:03:13Z</time>
      </trkpt>
      <trkpt lat="47.21107" lon="-2.1568">
        <ele>4.9</ele>
        <time>2020-06-05T12:03:14Z</time>
      </trkpt>
      <trkpt lat="47.21112" lon="-2.15687">
        <ele>4.9</ele>
        <time>2020-06-05T12:03:15Z</time>
      </trkpt>
      <trkpt lat="47.21116" lon="-2.15694">
        <ele>4.8</ele>
        <time>2020-06-05T12:03:16Z</time>
      </trkpt>
      <trkpt lat="47.21121" lon="-2.15701">
        <ele>4.8</ele>
        <time>2020-06-05T12:03:17Z</time>
      </trkpt>
      <trkpt lat="47.21126" lon="-2.15709">
        <ele>4.8</ele>
        <time>2020-06-05T12:03:18Z</time>
      </trkpt>
      <trkpt lat="47.2113" lon="-2.15716">
        <ele>4.8</ele>
        <time>2020-06-05T12:03:19Z</time>
      </trkpt>
      <trkpt lat="47.21135" lon="-2.15724">
        <ele>4.8</ele>
        <time>2020-06-05T12:03:20Z</time>
      </trkpt>
      <trkpt lat="47.2114" lon="-2.15731">
        <ele>4.8</ele>
        <time>2020-06-05T12:03:21Z</time>
      </trkpt>
      <trkpt lat="47.21146" lon="-2.15736">
        <ele>4.7</ele>
        <time>2020-06-05T12:03:22Z</time>
      </trkpt>
      <trkpt lat="47.21151" lon="-2.15743">
        <ele>4.6</ele>
        <time>2020-06-05T12:03:23Z</time>
      </trkpt>
      <trkpt lat="47.21156" lon="-2.15751">
        <ele>4.7</ele>
        <time>2020-06-05T12:03:24Z</time>
      </trkpt>
      <trkpt lat="47.2116" lon="-2.15757">
        <ele>4.7</ele>
        <time>2020-06-05T12:03:25Z</time>
      </trkpt>
      <trkpt lat="47.21164" lon="-2.15764">
        <ele>4.8</ele>
        <time>2020-06-05T12:03:26Z</time>
      </trkpt>
      <trkpt lat="47.21168" lon="-2.1577">
        <ele>4.8</ele>
        <time>2020-06-05T12:03:27Z</time>
      </trkpt>
      <trkpt lat="47.21172" lon="-2.15775">
        <ele>4.8</ele>
        <time>2020-06-05T12:03:28Z</time>
      </trkpt>
      <trkpt lat="47.21176" lon="-2.15781">
        <ele>4.8</ele>
        <time>2020-06-05T12:03:29Z</time>
      </trkpt>
      <trkpt lat="47.21181" lon="-2.15788">
        <ele>4.8</ele>
        <time>2020-06-05T12:03:30Z</time>
      </trkpt>
      <trkpt lat="47.21185" lon="-2.15794">
        <ele>4.8</ele>
        <time>2020-06-05T12:03:31Z</time>
      </trkpt>
      <trkpt lat="47.21188" lon="-2.15801">
        <ele>4.8</ele>
        <time>2020-06-05T12:03:32Z</time>
      </trkpt>
      <trkpt lat="47.21193" lon="-2.15807">
        <ele>4.8</ele>
        <time>2020-06-05T12:03:33Z</time>
      </trkpt>
      <trkpt lat="47.21196" lon="-2.15814">
        <ele>4.8</ele>
        <time>2020-06-05T12:03:34Z</time>
      </trkpt>
      <trkpt lat="47.21199" lon="-2.15819">
        <ele>4.8</ele>
        <time>2020-06-05T12:03:35Z</time>
      </trkpt>
      <trkpt lat="47.21203" lon="-2.15825">
        <ele>4.8</ele>
        <time>2020-06-05T12:03:36Z</time>
      </trkpt>
      <trkpt lat="47.21208" lon="-2.1583">
        <ele>4.8</ele>
        <time>2020-06-05T12:03:37Z</time>
      </trkpt>
      <trkpt lat="47.21212" lon="-2.15835">
        <ele>4.8</ele>
        <time>2020-06-05T12:03:38Z</time>
      </trkpt>
      <trkpt lat="47.21216" lon="-2.15841">
        <ele>4.8</ele>
        <time>2020-06-05T12:03:39Z</time>
      </trkpt>
      <trkpt lat="47.21221" lon="-2.15846">
        <ele>4.7</ele>
        <time>2020-06-05T12:03:40Z</time>
      </trkpt>
      <trkpt lat="47.21225" lon="-2.15851">
        <ele>4.7</ele>
        <time>2020-06-05T12:03:41Z</time>
      </trkpt>
      <trkpt lat="47.2123" lon="-2.15855">
        <ele>4.7</ele>
        <time>2020-06-05T12:03:42Z</time>
      </trkpt>
      <trkpt lat="47.21235" lon="-2.15861">
        <ele>4.7</ele>
        <time>2020-06-05T12:03:43Z</time>
      </trkpt>
      <trkpt lat="47.2124" lon="-2.15866">
        <ele>4.7</ele>
        <time>2020-06-05T12:03:44Z</time>
      </trkpt>
      <trkpt lat="47.21246" lon="-2.15872">
        <ele>4.7</ele>
        <time>2020-06-05T12:03:45Z</time>
      </trkpt>
      <trkpt lat="47.2125" lon="-2.15877">
        <ele>4.7</ele>
        <time>2020-06-05T12:03:46Z</time>
      </trkpt>
      <trkpt lat="47.21256" lon="-2.15881">
        <ele>4.7</ele>
        <time>2020-06-05T12:03:47Z</time>
      </trkpt>
      <trkpt lat="47.21262" lon="-2.15885">
        <ele>4.7</ele>
        <time>2020-06-05T12:03:48Z</time>
      </trkpt>
      <trkpt lat="47.21266" lon="-2.15889">
        <ele>4.7</ele>
        <time>2020-06-05T12:03:49Z</time>
      </trkpt>
      <trkpt lat="47.21271" lon="-2.15893">
        <ele>4.7</ele>
        <time>2020-06-05T12:03:50Z</time>
      </trkpt>
      <trkpt lat="47.21276" lon="-2.15896">
        <ele>4.7</ele>
        <time>2020-06-05T12:03:51Z</time>
      </trkpt>
      <trkpt lat="47.21281" lon="-2.159">
        <ele>4.7</ele>
        <time>2020-06-05T12:03:52Z</time>
      </trkpt>
      <trkpt lat="47.21287" lon="-2.15903">
        <ele>4.7</ele>
        <time>2020-06-05T12:03:53Z</time>
      </trkpt>
      <trkpt lat="47.21292" lon="-2.15907">
        <ele>4.7</ele>
        <time>2020-06-05T12:03:54Z</time>
      </trkpt>
      <trkpt lat="47.21298" lon="-2.1591">
        <ele>4.7</ele>
        <time>2020-06-05T12:03:55Z</time>
      </trkpt>
      <trkpt lat="47.21303" lon="-2.15912">
        <ele>4.6</ele>
        <time>2020-06-05T12:03:56Z</time>
      </trkpt>
      <trkpt lat="47.21309" lon="-2.15915">
        <ele>4.6</ele>
        <time>2020-06-05T12:03:57Z</time>
      </trkpt>
      <trkpt lat="47.21315" lon="-2.15918">
        <ele>4.6</ele>
        <time>2020-06-05T12:03:58Z</time>
      </trkpt>
      <trkpt lat="47.21321" lon="-2.15922">
        <ele>4.6</ele>
        <time>2020-06-05T12:03:59Z</time>
      </trkpt>
      <trkpt lat="47.21328" lon="-2.15924">
        <ele>4.6</ele>
        <time>2020-06-05T12:04:00Z</time>
      </trkpt>
      <trkpt lat="47.21334" lon="-2.15929">
        <ele>4.5</ele>
        <time>2020-06-05T12:04:01Z</time>
      </trkpt>
      <trkpt lat="47.21342" lon="-2.15932">
        <ele>4.5</ele>
        <time>2020-06-05T12:04:02Z</time>
      </trkpt>
      <trkpt lat="47.21347" lon="-2.15936">
        <ele>4.5</ele>
        <time>2020-06-05T12:04:03Z</time>
      </trkpt>
      <trkpt lat="47.21353" lon="-2.1594">
        <ele>4.6</ele>
        <time>2020-06-05T12:04:04Z</time>
      </trkpt>
      <trkpt lat="47.21358" lon="-2.15943">
        <ele>4.6</ele>
        <time>2020-06-05T12:04:05Z</time>
      </trkpt>
      <trkpt lat="47.21363" lon="-2.15946">
        <ele>4.7</ele>
        <time>2020-06-05T12:04:06Z</time>
      </trkpt>
      <trkpt lat="47.21369" lon="-2.15949">
        <ele>4.8</ele>
        <time>2020-06-05T12:04:07Z</time>
      </trkpt>
      <trkpt lat="47.21375" lon="-2.15953">
        <ele>4.9</ele>
        <time>2020-06-05T12:04:08Z</time>
      </trkpt>
      <trkpt lat="47.21381" lon="-2.15956">
        <ele>5</ele>
        <time>2020-06-05T12:04:09Z</time>
      </trkpt>
      <trkpt lat="47.21387" lon="-2.1596">
        <ele>5.1</ele>
        <time>2020-06-05T12:04:10Z</time>
      </trkpt>
      <trkpt lat="47.21392" lon="-2.15963">
        <ele>5.2</ele>
        <time>2020-06-05T12:04:11Z</time>
      </trkpt>
      <trkpt lat="47.21397" lon="-2.15966">
        <ele>5.3</ele>
        <time>2020-06-05T12:04:12Z</time>
      </trkpt>
      <trkpt lat="47.21402" lon="-2.15969">
        <ele>5.4</ele>
        <time>2020-06-05T12:04:13Z</time>
      </trkpt>
      <trkpt lat="47.21408" lon="-2.15972">
        <ele>5.4</ele>
        <time>2020-06-05T12:04:14Z</time>
      </trkpt>
      <trkpt lat="47.21413" lon="-2.15974">
        <ele>5.4</ele>
        <time>2020-06-05T12:04:15Z</time>
      </trkpt>
      <trkpt lat="47.21418" lon="-2.15977">
        <ele>5.5</ele>
        <time>2020-06-05T12:04:16Z</time>
      </trkpt>
      <trkpt lat="47.21422" lon="-2.1598">
        <ele>5.5</ele>
        <time>2020-06-05T12:04:17Z</time>
      </trkpt>
      <trkpt lat="47.21428" lon="-2.15982">
        <ele>5.6</ele>
        <time>2020-06-05T12:04:18Z</time>
      </trkpt>
      <trkpt lat="47.21433" lon="-2.15985">
        <ele>5.6</ele>
        <time>2020-06-05T12:04:19Z</time>
      </trkpt>
      <trkpt lat="47.21438" lon="-2.15987">
        <ele>5.7</ele>
        <time>2020-06-05T12:04:20Z</time>
      </trkpt>
      <trkpt lat="47.21444" lon="-2.15991">
        <ele>5.8</ele>
        <time>2020-06-05T12:04:21Z</time>
      </trkpt>
      <trkpt lat="47.21447" lon="-2.15994">
        <ele>5.9</ele>
        <time>2020-06-05T12:04:22Z</time>
      </trkpt>
      <trkpt lat="47.2145" lon="-2.15997">
        <ele>6</ele>
        <time>2020-06-05T12:04:23Z</time>
      </trkpt>
      <trkpt lat="47.21454" lon="-2.15999">
        <ele>6</ele>
        <time>2020-06-05T12:04:24Z</time>
      </trkpt>
      <trkpt lat="47.21458" lon="-2.16002">
        <ele>6.1</ele>
        <time>2020-06-05T12:04:25Z</time>
      </trkpt>
      <trkpt lat="47.21462" lon="-2.16004">
        <ele>6.1</ele>
        <time>2020-06-05T12:04:26Z</time>
      </trkpt>
      <trkpt lat="47.21467" lon="-2.16007">
        <ele>6.2</ele>
        <time>2020-06-05T12:04:27Z</time>
      </trkpt>
      <trkpt lat="47.21471" lon="-2.1601">
        <ele>6.3</ele>
        <time>2020-06-05T12:04:28Z</time>
      </trkpt>
      <trkpt lat="47.21477" lon="-2.16014">
        <ele>6.4</ele>
        <time>2020-06-05T12:04:29Z</time>
      </trkpt>
      <trkpt lat="47.21481" lon="-2.16016">
        <ele>6.4</ele>
        <time>2020-06-05T12:04:30Z</time>
      </trkpt>
      <trkpt lat="47.21486" lon="-2.16019">
        <ele>6.5</ele>
        <time>2020-06-05T12:04:31Z</time>
      </trkpt>
      <trkpt lat="47.21492" lon="-2.16022">
        <ele>6.5</ele>
        <time>2020-06-05T12:04:32Z</time>
      </trkpt>
      <trkpt lat="47.21498" lon="-2.16026">
        <ele>6.5</ele>
        <time>2020-06-05T12:04:33Z</time>
      </trkpt>
      <trkpt lat="47.21504" lon="-2.16029">
        <ele>6.6</ele>
        <time>2020-06-05T12:04:34Z</time>
      </trkpt>
      <trkpt lat="47.21509" lon="-2.16032">
        <ele>6.6</ele>
        <time>2020-06-05T12:04:35Z</time>
      </trkpt>
      <trkpt lat="47.21514" lon="-2.16035">
        <ele>6.7</ele>
        <time>2020-06-05T12:04:36Z</time>
      </trkpt>
      <trkpt lat="47.21519" lon="-2.16039">
        <ele>6.7</ele>
        <time>2020-06-05T12:04:37Z</time>
      </trkpt>
      <trkpt lat="47.21523" lon="-2.16042">
        <ele>6.8</ele>
        <time>2020-06-05T12:04:38Z</time>
      </trkpt>
      <trkpt lat="47.21529" lon="-2.16046">
        <ele>6.8</ele>
        <time>2020-06-05T12:04:39Z</time>
      </trkpt>
      <trkpt lat="47.21533" lon="-2.16048">
        <ele>6.9</ele>
        <time>2020-06-05T12:04:40Z</time>
      </trkpt>
      <trkpt lat="47.21538" lon="-2.16052">
        <ele>7</ele>
        <time>2020-06-05T12:04:41Z</time>
      </trkpt>
      <trkpt lat="47.21544" lon="-2.16057">
        <ele>7</ele>
        <time>2020-06-05T12:04:42Z</time>
      </trkpt>
      <trkpt lat="47.2155" lon="-2.1606">
        <ele>7.1</ele>
        <time>2020-06-05T12:04:43Z</time>
      </trkpt>
      <trkpt lat="47.21556" lon="-2.16064">
        <ele>7.1</ele>
        <time>2020-06-05T12:04:44Z</time>
      </trkpt>
      <trkpt lat="47.21562" lon="-2.16068">
        <ele>7.1</ele>
        <time>2020-06-05T12:04:45Z</time>
      </trkpt>
      <trkpt lat="47.21568" lon="-2.16071">
        <ele>7.2</ele>
        <time>2020-06-05T12:04:46Z</time>
      </trkpt>
      <trkpt lat="47.21574" lon="-2.16075">
        <ele>7.2</ele>
        <time>2020-06-05T12:04:47Z</time>
      </trkpt>
      <trkpt lat="47.21581" lon="-2.16078">
        <ele>7.2</ele>
        <time>2020-06-05T12:04:48Z</time>
      </trkpt>
      <trkpt lat="47.21587" lon="-2.16082">
        <ele>7.3</ele>
        <time>2020-06-05T12:04:49Z</time>
      </trkpt>
      <trkpt lat="47.21593" lon="-2.16085">
        <ele>7.3</ele>
        <time>2020-06-05T12:04:50Z</time>
      </trkpt>
      <trkpt lat="47.21599" lon="-2.16088">
        <ele>7.3</ele>
        <time>2020-06-05T12:04:51Z</time>
      </trkpt>
      <trkpt lat="47.21603" lon="-2.16091">
        <ele>7.4</ele>
        <time>2020-06-05T12:04:52Z</time>
      </trkpt>
      <trkpt lat="47.21608" lon="-2.16094">
        <ele>7.4</ele>
        <time>2020-06-05T12:04:53Z</time>
      </trkpt>
      <trkpt lat="47.21612" lon="-2.16098">
        <ele>7.4</ele>
        <time>2020-06-05T12:04:54Z</time>
      </trkpt>
      <trkpt lat="47.21617" lon="-2.16102">
        <ele>7.5</ele>
        <time>2020-06-05T12:04:55Z</time>
      </trkpt>
      <trkpt lat="47.21622" lon="-2.16105">
        <ele>7.5</ele>
        <time>2020-06-05T12:04:56Z</time>
      </trkpt>
      <trkpt lat="47.21627" lon="-2.16109">
        <ele>7.5</ele>
        <time>2020-06-05T12:04:57Z</time>
      </trkpt>
      <trkpt lat="47.21633" lon="-2.16114">
        <ele>7.6</ele>
        <time>2020-06-05T12:04:58Z</time>
      </trkpt>
      <trkpt lat="47.2164" lon="-2.16116">
        <ele>7.6</ele>
        <time>2020-06-05T12:04:59Z</time>
      </trkpt>
      <trkpt lat="47.21646" lon="-2.1612">
        <ele>7.6</ele>
        <time>2020-06-05T12:05:00Z</time>
      </trkpt>
      <trkpt lat="47.21651" lon="-2.16122">
        <ele>7.7</ele>
        <time>2020-06-05T12:05:01Z</time>
      </trkpt>
      <trkpt lat="47.21655" lon="-2.16126">
        <ele>7.7</ele>
        <time>2020-06-05T12:05:02Z</time>
      </trkpt>
      <trkpt lat="47.2166" lon="-2.16128">
        <ele>7.7</ele>
        <time>2020-06-05T12:05:03Z</time>
      </trkpt>
      <trkpt lat="47.21665" lon="-2.16131">
        <ele>7.7</ele>
        <time>2020-06-05T12:05:04Z</time>
      </trkpt>
      <trkpt lat="47.21671" lon="-2.16133">
        <ele>7.7</ele>
        <time>2020-06-05T12:05:05Z</time>
      </trkpt>
      <trkpt lat="47.21676" lon="-2.16136">
        <ele>7.7</ele>
        <time>2020-06-05T12:05:06Z</time>
      </trkpt>
      <trkpt lat="47.21681" lon="-2.16139">
        <ele>7.7</ele>
        <time>2020-06-05T12:05:07Z</time>
      </trkpt>
      <trkpt lat="47.21685" lon="-2.16142">
        <ele>7.7</ele>
        <time>2020-06-05T12:05:08Z</time>
      </trkpt>
      <trkpt lat="47.2169" lon="-2.16145">
        <ele>7.8</ele>
        <time>2020-06-05T12:05:09Z</time>
      </trkpt>
      <trkpt lat="47.21695" lon="-2.16148">
        <ele>7.8</ele>
        <time>2020-06-05T12:05:10Z</time>
      </trkpt>
      <trkpt lat="47.217" lon="-2.16151">
        <ele>7.8</ele>
        <time>2020-06-05T12:05:11Z</time>
      </trkpt>
      <trkpt lat="47.21705" lon="-2.16155">
        <ele>7.8</ele>
        <time>2020-06-05T12:05:12Z</time>
      </trkpt>
      <trkpt lat="47.21711" lon="-2.16158">
        <ele>7.8</ele>
        <time>2020-06-05T12:05:13Z</time>
      </trkpt>
      <trkpt lat="47.21715" lon="-2.16161">
        <ele>7.8</ele>
        <time>2020-06-05T12:05:14Z</time>
      </trkpt>
      <trkpt lat="47.21722" lon="-2.16164">
        <ele>7.8</ele>
        <time>2020-06-05T12:05:15Z</time>
      </trkpt>
      <trkpt lat="47.21727" lon="-2.16167">
        <ele>7.8</ele>
        <time>2020-06-05T12:05:16Z</time>
      </trkpt>
      <trkpt lat="47.21734" lon="-2.16169">
        <ele>7.8</ele>
        <time>2020-06-05T12:05:17Z</time>
      </trkpt>
      <trkpt lat="47.2174" lon="-2.16171">
        <ele>7.8</ele>
        <time>2020-06-05T12:05:18Z</time>
      </trkpt>
      <trkpt lat="47.21745" lon="-2.16174">
        <ele>7.9</ele>
        <time>2020-06-05T12:05:19Z</time>
      </trkpt>
      <trkpt lat="47.21751" lon="-2.16176">
        <ele>7.9</ele>
        <time>2020-06-05T12:05:20Z</time>
      </trkpt>
      <trkpt lat="47.21756" lon="-2.16179">
        <ele>7.9</ele>
        <time>2020-06-05T12:05:21Z</time>
      </trkpt>
      <trkpt lat="47.21762" lon="-2.16182">
        <ele>8</ele>
        <time>2020-06-05T12:05:22Z</time>
      </trkpt>
      <trkpt lat="47.21767" lon="-2.16185">
        <ele>8</ele>
        <time>2020-06-05T12:05:23Z</time>
      </trkpt>
      <trkpt lat="47.21773" lon="-2.16189">
        <ele>8.1</ele>
        <time>2020-06-05T12:05:24Z</time>
      </trkpt>
      <trkpt lat="47.21779" lon="-2.16192">
        <ele>8.1</ele>
        <time>2020-06-05T12:05:25Z</time>
      </trkpt>
      <trkpt lat="47.21785" lon="-2.16196">
        <ele>8.2</ele>
        <time>2020-06-05T12:05:26Z</time>
      </trkpt>
      <trkpt lat="47.21789" lon="-2.16198">
        <ele>8.2</ele>
        <time>2020-06-05T12:05:27Z</time>
      </trkpt>
      <trkpt lat="47.21794" lon="-2.16202">
        <ele>8.3</ele>
        <time>2020-06-05T12:05:28Z</time>
      </trkpt>
      <trkpt lat="47.21799" lon="-2.16204">
        <ele>8.5</ele>
        <time>2020-06-05T12:05:29Z</time>
      </trkpt>
      <trkpt lat="47.21804" lon="-2.16206">
        <ele>8.6</ele>
        <time>2020-06-05T12:05:30Z</time>
      </trkpt>
      <trkpt lat="47.21809" lon="-2.16208">
        <ele>8.8</ele>
        <time>2020-06-05T12:05:31Z</time>
      </trkpt>
      <trkpt lat="47.21814" lon="-2.1621">
        <ele>8.9</ele>
        <time>2020-06-05T12:05:32Z</time>
      </trkpt>
      <trkpt lat="47.21819" lon="-2.16212">
        <ele>9.1</ele>
        <time>2020-06-05T12:05:33Z</time>
      </trkpt>
      <trkpt lat="47.21824" lon="-2.16215">
        <ele>9.3</ele>
        <time>2020-06-05T12:05:34Z</time>
      </trkpt>
      <trkpt lat="47.21829" lon="-2.16218">
        <ele>9.4</ele>
        <time>2020-06-05T12:05:35Z</time>
      </trkpt>
      <trkpt lat="47.21834" lon="-2.1622">
        <ele>9.6</ele>
        <time>2020-06-05T12:05:36Z</time>
      </trkpt>
      <trkpt lat="47.21838" lon="-2.16222">
        <ele>9.7</ele>
        <time>2020-06-05T12:05:37Z</time>
      </trkpt>
      <trkpt lat="47.21842" lon="-2.16224">
        <ele>9.9</ele>
        <time>2020-06-05T12:05:38Z</time>
      </trkpt>
      <trkpt lat="47.21847" lon="-2.16226">
        <ele>10</ele>
        <time>2020-06-05T12:05:39Z</time>
      </trkpt>
      <trkpt lat="47.21852" lon="-2.16227">
        <ele>10.2</ele>
        <time>2020-06-05T12:05:40Z</time>
      </trkpt>
      <trkpt lat="47.21856" lon="-2.16228">
        <ele>10.3</ele>
        <time>2020-06-05T12:05:41Z</time>
      </trkpt>
      <trkpt lat="47.21861" lon="-2.16231">
        <ele>10.3</ele>
        <time>2020-06-05T12:05:42Z</time>
      </trkpt>
      <trkpt lat="47.21863" lon="-2.16236">
        <ele>10.4</ele>
        <time>2020-06-05T12:05:43Z</time>
      </trkpt>
      <trkpt lat="47.21866" lon="-2.16241">
        <ele>10.5</ele>
        <time>2020-06-05T12:05:44Z</time>
      </trkpt>
      <trkpt lat="47.21868" lon="-2.16246">
        <ele>10.6</ele>
        <time>2020-06-05T12:05:45Z</time>
      </trkpt>
      <trkpt lat="47.21868" lon="-2.16248">
        <ele>10.6</ele>
        <time>2020-06-05T12:05:46Z</time>
      </trkpt>
      <trkpt lat="47.2187" lon="-2.16252">
        <ele>10.7</ele>
        <time>2020-06-05T12:05:47Z</time>
      </trkpt>
      <trkpt lat="47.21872" lon="-2.16257">
        <ele>10.7</ele>
        <time>2020-06-05T12:05:48Z</time>
      </trkpt>
      <trkpt lat="47.21874" lon="-2.16263">
        <ele>10.8</ele>
        <time>2020-06-05T12:05:49Z</time>
      </trkpt>
      <trkpt lat="47.21877" lon="-2.16269">
        <ele>10.8</ele>
        <time>2020-06-05T12:05:50Z</time>
      </trkpt>
      <trkpt lat="47.2188" lon="-2.16275">
        <ele>10.8</ele>
        <time>2020-06-05T12:05:51Z</time>
      </trkpt>
      <trkpt lat="47.21883" lon="-2.16281">
        <ele>10.8</ele>
        <time>2020-06-05T12:05:52Z</time>
      </trkpt>
      <trkpt lat="47.21887" lon="-2.16288">
        <ele>10.8</ele>
        <time>2020-06-05T12:05:53Z</time>
      </trkpt>
      <trkpt lat="47.21892" lon="-2.16294">
        <ele>10.8</ele>
        <time>2020-06-05T12:05:54Z</time>
      </trkpt>
      <trkpt lat="47.21895" lon="-2.163">
        <ele>10.9</ele>
        <time>2020-06-05T12:05:55Z</time>
      </trkpt>
      <trkpt lat="47.21897" lon="-2.16307">
        <ele>10.9</ele>
        <time>2020-06-05T12:05:56Z</time>
      </trkpt>
      <trkpt lat="47.21898" lon="-2.16313">
        <ele>10.9</ele>
        <time>2020-06-05T12:05:57Z</time>
      </trkpt>
      <trkpt lat="47.219" lon="-2.16317">
        <ele>10.9</ele>
        <time>2020-06-05T12:05:58Z</time>
      </trkpt>
      <trkpt lat="47.21901" lon="-2.16322">
        <ele>11</ele>
        <time>2020-06-05T12:05:59Z</time>
      </trkpt>
      <trkpt lat="47.21904" lon="-2.16327">
        <ele>11</ele>
        <time>2020-06-05T12:06:00Z</time>
      </trkpt>
      <trkpt lat="47.21908" lon="-2.16334">
        <ele>11</ele>
        <time>2020-06-05T12:06:01Z</time>
      </trkpt>
      <trkpt lat="47.21911" lon="-2.1634">
        <ele>11.1</ele>
        <time>2020-06-05T12:06:02Z</time>
      </trkpt>
      <trkpt lat="47.21915" lon="-2.16346">
        <ele>11.1</ele>
        <time>2020-06-05T12:06:03Z</time>
      </trkpt>
      <trkpt lat="47.21918" lon="-2.16353">
        <ele>11.1</ele>
        <time>2020-06-05T12:06:04Z</time>
      </trkpt>
      <trkpt lat="47.21921" lon="-2.16359">
        <ele>11.1</ele>
        <time>2020-06-05T12:06:05Z</time>
      </trkpt>
      <trkpt lat="47.21923" lon="-2.16365">
        <ele>11.2</ele>
        <time>2020-06-05T12:06:06Z</time>
      </trkpt>
      <trkpt lat="47.21925" lon="-2.16371">
        <ele>11.2</ele>
        <time>2020-06-05T12:06:07Z</time>
      </trkpt>
      <trkpt lat="47.21928" lon="-2.16376">
        <ele>11.2</ele>
        <time>2020-06-05T12:06:08Z</time>
      </trkpt>
      <trkpt lat="47.21931" lon="-2.16381">
        <ele>11.2</ele>
        <time>2020-06-05T12:06:09Z</time>
      </trkpt>
      <trkpt lat="47.21935" lon="-2.16388">
        <ele>11.3</ele>
        <time>2020-06-05T12:06:10Z</time>
      </trkpt>
      <trkpt lat="47.21938" lon="-2.16394">
        <ele>11.3</ele>
        <time>2020-06-05T12:06:11Z</time>
      </trkpt>
      <trkpt lat="47.21941" lon="-2.164">
        <ele>11.3</ele>
        <time>2020-06-05T12:06:12Z</time>
      </trkpt>
      <trkpt lat="47.21943" lon="-2.16406">
        <ele>11.4</ele>
        <time>2020-06-05T12:06:13Z</time>
      </trkpt>
      <trkpt lat="47.21946" lon="-2.16412">
        <ele>11.4</ele>
        <time>2020-06-05T12:06:14Z</time>
      </trkpt>
      <trkpt lat="47.21949" lon="-2.16417">
        <ele>11.4</ele>
        <time>2020-06-05T12:06:15Z</time>
      </trkpt>
      <trkpt lat="47.21952" lon="-2.16424">
        <ele>11.4</ele>
        <time>2020-06-05T12:06:16Z</time>
      </trkpt>
      <trkpt lat="47.21955" lon="-2.16429">
        <ele>11.4</ele>
        <time>2020-06-05T12:06:17Z</time>
      </trkpt>
      <trkpt lat="47.21958" lon="-2.16434">
        <ele>11.4</ele>
        <time>2020-06-05T12:06:18Z</time>
      </trkpt>
      <trkpt lat="47.21962" lon="-2.1644">
        <ele>11.4</ele>
        <time>2020-06-05T12:06:19Z</time>
      </trkpt>
      <trkpt lat="47.21966" lon="-2.16446">
        <ele>11.4</ele>
        <time>2020-06-05T12:06:20Z</time>
      </trkpt>
      <trkpt lat="47.21969" lon="-2.16452">
        <ele>11.4</ele>
        <time>2020-06-05T12:06:21Z</time>
      </trkpt>
      <trkpt lat="47.21973" lon="-2.16458">
        <ele>11.3</ele>
        <time>2020-06-05T12:06:22Z</time>
      </trkpt>
      <trkpt lat="47.21978" lon="-2.16462">
        <ele>11.3</ele>
        <time>2020-06-05T12:06:23Z</time>
      </trkpt>
      <trkpt lat="47.21982" lon="-2.16465">
        <ele>11.3</ele>
        <time>2020-06-05T12:06:24Z</time>
      </trkpt>
      <trkpt lat="47.21986" lon="-2.16471">
        <ele>11.3</ele>
        <time>2020-06-05T12:06:25Z</time>
      </trkpt>
      <trkpt lat="47.2199" lon="-2.16476">
        <ele>11.3</ele>
        <time>2020-06-05T12:06:26Z</time>
      </trkpt>
      <trkpt lat="47.21994" lon="-2.16481">
        <ele>11.3</ele>
        <time>2020-06-05T12:06:27Z</time>
      </trkpt>
      <trkpt lat="47.21999" lon="-2.16485">
        <ele>11.3</ele>
        <time>2020-06-05T12:06:28Z</time>
      </trkpt>
      <trkpt lat="47.22003" lon="-2.16489">
        <ele>11.3</ele>
        <time>2020-06-05T12:06:29Z</time>
      </trkpt>
      <trkpt lat="47.22007" lon="-2.16494">
        <ele>11.3</ele>
        <time>2020-06-05T12:06:30Z</time>
      </trkpt>
      <trkpt lat="47.22012" lon="-2.16498">
        <ele>11.3</ele>
        <time>2020-06-05T12:06:31Z</time>
      </trkpt>
      <trkpt lat="47.22017" lon="-2.16503">
        <ele>11.3</ele>
        <time>2020-06-05T12:06:32Z</time>
      </trkpt>
      <trkpt lat="47.2202" lon="-2.16508">
        <ele>11.2</ele>
        <time>2020-06-05T12:06:33Z</time>
      </trkpt>
      <trkpt lat="47.22024" lon="-2.16512">
        <ele>11.2</ele>
        <time>2020-06-05T12:06:34Z</time>
      </trkpt>
      <trkpt lat="47.22028" lon="-2.16517">
        <ele>11.1</ele>
        <time>2020-06-05T12:06:35Z</time>
      </trkpt>
      <trkpt lat="47.22032" lon="-2.16522">
        <ele>11.1</ele>
        <time>2020-06-05T12:06:36Z</time>
      </trkpt>
      <trkpt lat="47.22036" lon="-2.16527">
        <ele>11</ele>
        <time>2020-06-05T12:06:37Z</time>
      </trkpt>
      <trkpt lat="47.2204" lon="-2.16532">
        <ele>11</ele>
        <time>2020-06-05T12:06:38Z</time>
      </trkpt>
      <trkpt lat="47.22044" lon="-2.16537">
        <ele>10.9</ele>
        <time>2020-06-05T12:06:39Z</time>
      </trkpt>
      <trkpt lat="47.22048" lon="-2.16542">
        <ele>10.9</ele>
        <time>2020-06-05T12:06:40Z</time>
      </trkpt>
      <trkpt lat="47.22053" lon="-2.16546">
        <ele>10.9</ele>
        <time>2020-06-05T12:06:41Z</time>
      </trkpt>
      <trkpt lat="47.22057" lon="-2.16551">
        <ele>10.8</ele>
        <time>2020-06-05T12:06:42Z</time>
      </trkpt>
      <trkpt lat="47.22062" lon="-2.16556">
        <ele>10.8</ele>
        <time>2020-06-05T12:06:43Z</time>
      </trkpt>
      <trkpt lat="47.22066" lon="-2.16562">
        <ele>10.8</ele>
        <time>2020-06-05T12:06:44Z</time>
      </trkpt>
      <trkpt lat="47.2207" lon="-2.16566">
        <ele>10.8</ele>
        <time>2020-06-05T12:06:45Z</time>
      </trkpt>
      <trkpt lat="47.22074" lon="-2.16571">
        <ele>10.8</ele>
        <time>2020-06-05T12:06:46Z</time>
      </trkpt>
      <trkpt lat="47.22077" lon="-2.16575">
        <ele>10.8</ele>
        <time>2020-06-05T12:06:47Z</time>
      </trkpt>
      <trkpt lat="47.22081" lon="-2.16579">
        <ele>10.8</ele>
        <time>2020-06-05T12:06:48Z</time>
      </trkpt>
      <trkpt lat="47.22086" lon="-2.16584">
        <ele>10.8</ele>
        <time>2020-06-05T12:06:49Z</time>
      </trkpt>
      <trkpt lat="47.2209" lon="-2.16589">
        <ele>10.9</ele>
        <time>2020-06-05T12:06:50Z</time>
      </trkpt>
      <trkpt lat="47.22095" lon="-2.16594">
        <ele>10.9</ele>
        <time>2020-06-05T12:06:51Z</time>
      </trkpt>
      <trkpt lat="47.22098" lon="-2.16598">
        <ele>10.9</ele>
        <time>2020-06-05T12:06:52Z</time>
      </trkpt>
      <trkpt lat="47.22102" lon="-2.16602">
        <ele>10.9</ele>
        <time>2020-06-05T12:06:53Z</time>
      </trkpt>
      <trkpt lat="47.22107" lon="-2.16606">
        <ele>10.9</ele>
        <time>2020-06-05T12:06:54Z</time>
      </trkpt>
      <trkpt lat="47.22111" lon="-2.16611">
        <ele>10.9</ele>
        <time>2020-06-05T12:06:55Z</time>
      </trkpt>
      <trkpt lat="47.22115" lon="-2.16616">
        <ele>11</ele>
        <time>2020-06-05T12:06:56Z</time>
      </trkpt>
      <trkpt lat="47.22119" lon="-2.16621">
        <ele>11</ele>
        <time>2020-06-05T12:06:57Z</time>
      </trkpt>
      <trkpt lat="47.22123" lon="-2.16626">
        <ele>11</ele>
        <time>2020-06-05T12:06:58Z</time>
      </trkpt>
      <trkpt lat="47.22128" lon="-2.16631">
        <ele>11</ele>
        <time>2020-06-05T12:06:59Z</time>
      </trkpt>
      <trkpt lat="47.22132" lon="-2.16635">
        <ele>11</ele>
        <time>2020-06-05T12:07:00Z</time>
      </trkpt>
      <trkpt lat="47.22136" lon="-2.1664">
        <ele>11</ele>
        <time>2020-06-05T12:07:01Z</time>
      </trkpt>
      <trkpt lat="47.22141" lon="-2.16646">
        <ele>11</ele>
        <time>2020-06-05T12:07:02Z</time>
      </trkpt>
      <trkpt lat="47.22145" lon="-2.16652">
        <ele>11</ele>
        <time>2020-06-05T12:07:03Z</time>
      </trkpt>
      <trkpt lat="47.22149" lon="-2.16658">
        <ele>11</ele>
        <time>2020-06-05T12:07:04Z</time>
      </trkpt>
      <trkpt lat="47.22153" lon="-2.16663">
        <ele>11</ele>
        <time>2020-06-05T12:07:05Z</time>
      </trkpt>
      <trkpt lat="47.22157" lon="-2.16668">
        <ele>10.9</ele>
        <time>2020-06-05T12:07:06Z</time>
      </trkpt>
      <trkpt lat="47.22161" lon="-2.16673">
        <ele>10.9</ele>
        <time>2020-06-05T12:07:07Z</time>
      </trkpt>
      <trkpt lat="47.22166" lon="-2.16678">
        <ele>10.9</ele>
        <time>2020-06-05T12:07:08Z</time>
      </trkpt>
      <trkpt lat="47.2217" lon="-2.16682">
        <ele>10.9</ele>
        <time>2020-06-05T12:07:09Z</time>
      </trkpt>
      <trkpt lat="47.22175" lon="-2.16686">
        <ele>10.9</ele>
        <time>2020-06-05T12:07:10Z</time>
      </trkpt>
      <trkpt lat="47.2218" lon="-2.1669">
        <ele>10.9</ele>
        <time>2020-06-05T12:07:11Z</time>
      </trkpt>
      <trkpt lat="47.22184" lon="-2.16694">
        <ele>10.9</ele>
        <time>2020-06-05T12:07:12Z</time>
      </trkpt>
      <trkpt lat="47.22189" lon="-2.16698">
        <ele>10.9</ele>
        <time>2020-06-05T12:07:13Z</time>
      </trkpt>
      <trkpt lat="47.22193" lon="-2.16704">
        <ele>10.9</ele>
        <time>2020-06-05T12:07:14Z</time>
      </trkpt>
      <trkpt lat="47.22197" lon="-2.16709">
        <ele>10.9</ele>
        <time>2020-06-05T12:07:15Z</time>
      </trkpt>
      <trkpt lat="47.22202" lon="-2.16715">
        <ele>10.9</ele>
        <time>2020-06-05T12:07:16Z</time>
      </trkpt>
      <trkpt lat="47.22206" lon="-2.1672">
        <ele>10.7</ele>
        <time>2020-06-05T12:07:17Z</time>
      </trkpt>
      <trkpt lat="47.22211" lon="-2.16725">
        <ele>10.7</ele>
        <time>2020-06-05T12:07:18Z</time>
      </trkpt>
      <trkpt lat="47.22215" lon="-2.1673">
        <ele>10.7</ele>
        <time>2020-06-05T12:07:19Z</time>
      </trkpt>
      <trkpt lat="47.22219" lon="-2.16736">
        <ele>10.6</ele>
        <time>2020-06-05T12:07:20Z</time>
      </trkpt>
      <trkpt lat="47.22225" lon="-2.16741">
        <ele>10.6</ele>
        <time>2020-06-05T12:07:21Z</time>
      </trkpt>
      <trkpt lat="47.2223" lon="-2.16745">
        <ele>10.5</ele>
        <time>2020-06-05T12:07:22Z</time>
      </trkpt>
      <trkpt lat="47.22235" lon="-2.16751">
        <ele>10.5</ele>
        <time>2020-06-05T12:07:23Z</time>
      </trkpt>
      <trkpt lat="47.22239" lon="-2.16756">
        <ele>10.5</ele>
        <time>2020-06-05T12:07:24Z</time>
      </trkpt>
      <trkpt lat="47.22242" lon="-2.16762">
        <ele>10.5</ele>
        <time>2020-06-05T12:07:25Z</time>
      </trkpt>
      <trkpt lat="47.22247" lon="-2.16767">
        <ele>10.6</ele>
        <time>2020-06-05T12:07:26Z</time>
      </trkpt>
      <trkpt lat="47.2225" lon="-2.16773">
        <ele>10.6</ele>
        <time>2020-06-05T12:07:27Z</time>
      </trkpt>
      <trkpt lat="47.22255" lon="-2.16778">
        <ele>10.6</ele>
        <time>2020-06-05T12:07:28Z</time>
      </trkpt>
      <trkpt lat="47.2226" lon="-2.16782">
        <ele>10.7</ele>
        <time>2020-06-05T12:07:29Z</time>
      </trkpt>
      <trkpt lat="47.22265" lon="-2.16787">
        <ele>10.7</ele>
        <time>2020-06-05T12:07:30Z</time>
      </trkpt>
      <trkpt lat="47.22269" lon="-2.16791">
        <ele>10.7</ele>
        <time>2020-06-05T12:07:31Z</time>
      </trkpt>
      <trkpt lat="47.22273" lon="-2.16796">
        <ele>10.7</ele>
        <time>2020-06-05T12:07:32Z</time>
      </trkpt>
      <trkpt lat="47.22278" lon="-2.168">
        <ele>10.7</ele>
        <time>2020-06-05T12:07:33Z</time>
      </trkpt>
      <trkpt lat="47.22283" lon="-2.16806">
        <ele>10.7</ele>
        <time>2020-06-05T12:07:34Z</time>
      </trkpt>
      <trkpt lat="47.22287" lon="-2.16811">
        <ele>10.8</ele>
        <time>2020-06-05T12:07:35Z</time>
      </trkpt>
      <trkpt lat="47.2229" lon="-2.16816">
        <ele>10.8</ele>
        <time>2020-06-05T12:07:36Z</time>
      </trkpt>
      <trkpt lat="47.22295" lon="-2.1682">
        <ele>10.8</ele>
        <time>2020-06-05T12:07:37Z</time>
      </trkpt>
      <trkpt lat="47.22299" lon="-2.16824">
        <ele>10.8</ele>
        <time>2020-06-05T12:07:38Z</time>
      </trkpt>
      <trkpt lat="47.22303" lon="-2.16829">
        <ele>10.9</ele>
        <time>2020-06-05T12:07:39Z</time>
      </trkpt>
      <trkpt lat="47.22308" lon="-2.16833">
        <ele>10.9</ele>
        <time>2020-06-05T12:07:40Z</time>
      </trkpt>
      <trkpt lat="47.22312" lon="-2.16838">
        <ele>11</ele>
        <time>2020-06-05T12:07:41Z</time>
      </trkpt>
      <trkpt lat="47.22317" lon="-2.16843">
        <ele>11</ele>
        <time>2020-06-05T12:07:42Z</time>
      </trkpt>
      <trkpt lat="47.22321" lon="-2.16848">
        <ele>11.1</ele>
        <time>2020-06-05T12:07:43Z</time>
      </trkpt>
      <trkpt lat="47.22325" lon="-2.16854">
        <ele>11.1</ele>
        <time>2020-06-05T12:07:44Z</time>
      </trkpt>
      <trkpt lat="47.2233" lon="-2.16859">
        <ele>11.1</ele>
        <time>2020-06-05T12:07:45Z</time>
      </trkpt>
      <trkpt lat="47.22335" lon="-2.16864">
        <ele>11.1</ele>
        <time>2020-06-05T12:07:46Z</time>
      </trkpt>
      <trkpt lat="47.22339" lon="-2.16869">
        <ele>11.2</ele>
        <time>2020-06-05T12:07:47Z</time>
      </trkpt>
      <trkpt lat="47.22343" lon="-2.16874">
        <ele>11.2</ele>
        <time>2020-06-05T12:07:48Z</time>
      </trkpt>
      <trkpt lat="47.22348" lon="-2.1688">
        <ele>11.2</ele>
        <time>2020-06-05T12:07:49Z</time>
      </trkpt>
      <trkpt lat="47.22352" lon="-2.16885">
        <ele>11.3</ele>
        <time>2020-06-05T12:07:50Z</time>
      </trkpt>
      <trkpt lat="47.22357" lon="-2.16891">
        <ele>11.3</ele>
        <time>2020-06-05T12:07:51Z</time>
      </trkpt>
      <trkpt lat="47.22362" lon="-2.16896">
        <ele>11.3</ele>
        <time>2020-06-05T12:07:52Z</time>
      </trkpt>
      <trkpt lat="47.22365" lon="-2.169">
        <ele>11.4</ele>
        <time>2020-06-05T12:07:53Z</time>
      </trkpt>
      <trkpt lat="47.22369" lon="-2.16904">
        <ele>11.5</ele>
        <time>2020-06-05T12:07:54Z</time>
      </trkpt>
      <trkpt lat="47.22373" lon="-2.16908">
        <ele>11.5</ele>
        <time>2020-06-05T12:07:55Z</time>
      </trkpt>
      <trkpt lat="47.22377" lon="-2.16912">
        <ele>11.6</ele>
        <time>2020-06-05T12:07:56Z</time>
      </trkpt>
      <trkpt lat="47.22381" lon="-2.16916">
        <ele>11.7</ele>
        <time>2020-06-05T12:07:57Z</time>
      </trkpt>
      <trkpt lat="47.22384" lon="-2.16921">
        <ele>11.8</ele>
        <time>2020-06-05T12:07:58Z</time>
      </trkpt>
      <trkpt lat="47.22388" lon="-2.16926">
        <ele>11.8</ele>
        <time>2020-06-05T12:07:59Z</time>
      </trkpt>
      <trkpt lat="47.22391" lon="-2.1693">
        <ele>11.9</ele>
        <time>2020-06-05T12:08:00Z</time>
      </trkpt>
      <trkpt lat="47.22394" lon="-2.16935">
        <ele>11.9</ele>
        <time>2020-06-05T12:08:01Z</time>
      </trkpt>
      <trkpt lat="47.22398" lon="-2.16939">
        <ele>11.9</ele>
        <time>2020-06-05T12:08:02Z</time>
      </trkpt>
      <trkpt lat="47.22401" lon="-2.16942">
        <ele>12</ele>
        <time>2020-06-05T12:08:03Z</time>
      </trkpt>
      <trkpt lat="47.22404" lon="-2.16945">
        <ele>12</ele>
        <time>2020-06-05T12:08:04Z</time>
      </trkpt>
      <trkpt lat="47.22406" lon="-2.16949">
        <ele>12.1</ele>
        <time>2020-06-05T12:08:05Z</time>
      </trkpt>
      <trkpt lat="47.22409" lon="-2.16952">
        <ele>12.1</ele>
        <time>2020-06-05T12:08:06Z</time>
      </trkpt>
      <trkpt lat="47.22412" lon="-2.16957">
        <ele>12.2</ele>
        <time>2020-06-05T12:08:07Z</time>
      </trkpt>
      <trkpt lat="47.22416" lon="-2.16961">
        <ele>12.2</ele>
        <time>2020-06-05T12:08:08Z</time>
      </trkpt>
      <trkpt lat="47.22419" lon="-2.16965">
        <ele>12.3</ele>
        <time>2020-06-05T12:08:09Z</time>
      </trkpt>
      <trkpt lat="47.22423" lon="-2.16968">
        <ele>12.3</ele>
        <time>2020-06-05T12:08:10Z</time>
      </trkpt>
      <trkpt lat="47.22427" lon="-2.16972">
        <ele>12.4</ele>
        <time>2020-06-05T12:08:11Z</time>
      </trkpt>
      <trkpt lat="47.22429" lon="-2.16977">
        <ele>12.4</ele>
        <time>2020-06-05T12:08:12Z</time>
      </trkpt>
      <trkpt lat="47.22433" lon="-2.16981">
        <ele>12.4</ele>
        <time>2020-06-05T12:08:13Z</time>
      </trkpt>
      <trkpt lat="47.22437" lon="-2.16985">
        <ele>12.5</ele>
        <time>2020-06-05T12:08:14Z</time>
      </trkpt>
      <trkpt lat="47.2244" lon="-2.16989">
        <ele>12.5</ele>
        <time>2020-06-05T12:08:15Z</time>
      </trkpt>
      <trkpt lat="47.22444" lon="-2.16993">
        <ele>12.6</ele>
        <time>2020-06-05T12:08:16Z</time>
      </trkpt>
      <trkpt lat="47.22447" lon="-2.16997">
        <ele>12.6</ele>
        <time>2020-06-05T12:08:17Z</time>
      </trkpt>
      <trkpt lat="47.2245" lon="-2.17001">
        <ele>12.6</ele>
        <time>2020-06-05T12:08:18Z</time>
      </trkpt>
      <trkpt lat="47.22454" lon="-2.17005">
        <ele>12.7</ele>
        <time>2020-06-05T12:08:19Z</time>
      </trkpt>
      <trkpt lat="47.22457" lon="-2.17009">
        <ele>12.7</ele>
        <time>2020-06-05T12:08:20Z</time>
      </trkpt>
      <trkpt lat="47.22462" lon="-2.17014">
        <ele>12.7</ele>
        <time>2020-06-05T12:08:21Z</time>
      </trkpt>
      <trkpt lat="47.22466" lon="-2.17019">
        <ele>12.7</ele>
        <time>2020-06-05T12:08:22Z</time>
      </trkpt>
      <trkpt lat="47.2247" lon="-2.17024">
        <ele>12.8</ele>
        <time>2020-06-05T12:08:23Z</time>
      </trkpt>
      <trkpt lat="47.22474" lon="-2.1703">
        <ele>12.8</ele>
        <time>2020-06-05T12:08:24Z</time>
      </trkpt>
      <trkpt lat="47.22478" lon="-2.17035">
        <ele>12.8</ele>
        <time>2020-06-05T12:08:25Z</time>
      </trkpt>
      <trkpt lat="47.22482" lon="-2.17039">
        <ele>12.8</ele>
        <time>2020-06-05T12:08:26Z</time>
      </trkpt>
      <trkpt lat="47.22485" lon="-2.17043">
        <ele>12.8</ele>
        <time>2020-06-05T12:08:27Z</time>
      </trkpt>
      <trkpt lat="47.22489" lon="-2.17046">
        <ele>12.8</ele>
        <time>2020-06-05T12:08:28Z</time>
      </trkpt>
      <trkpt lat="47.22492" lon="-2.1705">
        <ele>12.8</ele>
        <time>2020-06-05T12:08:29Z</time>
      </trkpt>
      <trkpt lat="47.22495" lon="-2.17054">
        <ele>12.8</ele>
        <time>2020-06-05T12:08:30Z</time>
      </trkpt>
      <trkpt lat="47.22498" lon="-2.17057">
        <ele>12.8</ele>
        <time>2020-06-05T12:08:31Z</time>
      </trkpt>
      <trkpt lat="47.22501" lon="-2.17061">
        <ele>12.8</ele>
        <time>2020-06-05T12:08:32Z</time>
      </trkpt>
      <trkpt lat="47.22504" lon="-2.17066">
        <ele>12.7</ele>
        <time>2020-06-05T12:08:33Z</time>
      </trkpt>
      <trkpt lat="47.22508" lon="-2.17071">
        <ele>12.7</ele>
        <time>2020-06-05T12:08:34Z</time>
      </trkpt>
      <trkpt lat="47.22512" lon="-2.17076">
        <ele>12.7</ele>
        <time>2020-06-05T12:08:35Z</time>
      </trkpt>
      <trkpt lat="47.22517" lon="-2.17081">
        <ele>12.6</ele>
        <time>2020-06-05T12:08:36Z</time>
      </trkpt>
      <trkpt lat="47.22521" lon="-2.17086">
        <ele>12.6</ele>
        <time>2020-06-05T12:08:37Z</time>
      </trkpt>
      <trkpt lat="47.22525" lon="-2.17091">
        <ele>12.5</ele>
        <time>2020-06-05T12:08:38Z</time>
      </trkpt>
      <trkpt lat="47.2253" lon="-2.17096">
        <ele>12.4</ele>
        <time>2020-06-05T12:08:39Z</time>
      </trkpt>
      <trkpt lat="47.22533" lon="-2.171">
        <ele>12.4</ele>
        <time>2020-06-05T12:08:40Z</time>
      </trkpt>
      <trkpt lat="47.22538" lon="-2.17104">
        <ele>12.4</ele>
        <time>2020-06-05T12:08:41Z</time>
      </trkpt>
      <trkpt lat="47.22542" lon="-2.17109">
        <ele>12.4</ele>
        <time>2020-06-05T12:08:42Z</time>
      </trkpt>
      <trkpt lat="47.22547" lon="-2.17113">
        <ele>12.3</ele>
        <time>2020-06-05T12:08:43Z</time>
      </trkpt>
      <trkpt lat="47.22552" lon="-2.17118">
        <ele>12.3</ele>
        <time>2020-06-05T12:08:44Z</time>
      </trkpt>
      <trkpt lat="47.22556" lon="-2.17123">
        <ele>12.3</ele>
        <time>2020-06-05T12:08:45Z</time>
      </trkpt>
      <trkpt lat="47.22561" lon="-2.17128">
        <ele>12.2</ele>
        <time>2020-06-05T12:08:46Z</time>
      </trkpt>
      <trkpt lat="47.22565" lon="-2.17134">
        <ele>12.2</ele>
        <time>2020-06-05T12:08:47Z</time>
      </trkpt>
      <trkpt lat="47.2257" lon="-2.1714">
        <ele>12.2</ele>
        <time>2020-06-05T12:08:48Z</time>
      </trkpt>
      <trkpt lat="47.22573" lon="-2.17145">
        <ele>12.1</ele>
        <time>2020-06-05T12:08:49Z</time>
      </trkpt>
      <trkpt lat="47.22577" lon="-2.17151">
        <ele>12.1</ele>
        <time>2020-06-05T12:08:50Z</time>
      </trkpt>
      <trkpt lat="47.22582" lon="-2.17157">
        <ele>12.1</ele>
        <time>2020-06-05T12:08:51Z</time>
      </trkpt>
      <trkpt lat="47.22587" lon="-2.17163">
        <ele>12</ele>
        <time>2020-06-05T12:08:52Z</time>
      </trkpt>
      <trkpt lat="47.2259" lon="-2.17168">
        <ele>12</ele>
        <time>2020-06-05T12:08:53Z</time>
      </trkpt>
      <trkpt lat="47.22595" lon="-2.17175">
        <ele>11.9</ele>
        <time>2020-06-05T12:08:54Z</time>
      </trkpt>
      <trkpt lat="47.22599" lon="-2.17181">
        <ele>11.8</ele>
        <time>2020-06-05T12:08:55Z</time>
      </trkpt>
      <trkpt lat="47.22604" lon="-2.17187">
        <ele>11.8</ele>
        <time>2020-06-05T12:08:56Z</time>
      </trkpt>
      <trkpt lat="47.2261" lon="-2.17194">
        <ele>11.7</ele>
        <time>2020-06-05T12:08:57Z</time>
      </trkpt>
      <trkpt lat="47.22614" lon="-2.172">
        <ele>11.7</ele>
        <time>2020-06-05T12:08:58Z</time>
      </trkpt>
      <trkpt lat="47.22619" lon="-2.17206">
        <ele>11.6</ele>
        <time>2020-06-05T12:08:59Z</time>
      </trkpt>
      <trkpt lat="47.22624" lon="-2.17211">
        <ele>11.6</ele>
        <time>2020-06-05T12:09:00Z</time>
      </trkpt>
      <trkpt lat="47.22628" lon="-2.17217">
        <ele>11.6</ele>
        <time>2020-06-05T12:09:01Z</time>
      </trkpt>
      <trkpt lat="47.22633" lon="-2.17224">
        <ele>11.6</ele>
        <time>2020-06-05T12:09:02Z</time>
      </trkpt>
      <trkpt lat="47.22637" lon="-2.17231">
        <ele>11.6</ele>
        <time>2020-06-05T12:09:03Z</time>
      </trkpt>
      <trkpt lat="47.22642" lon="-2.17237">
        <ele>11.6</ele>
        <time>2020-06-05T12:09:04Z</time>
      </trkpt>
      <trkpt lat="47.22647" lon="-2.17243">
        <ele>11.6</ele>
        <time>2020-06-05T12:09:05Z</time>
      </trkpt>
      <trkpt lat="47.22652" lon="-2.17249">
        <ele>11.5</ele>
        <time>2020-06-05T12:09:06Z</time>
      </trkpt>
      <trkpt lat="47.22657" lon="-2.17255">
        <ele>11.5</ele>
        <time>2020-06-05T12:09:07Z</time>
      </trkpt>
      <trkpt lat="47.22661" lon="-2.17261">
        <ele>11.5</ele>
        <time>2020-06-05T12:09:08Z</time>
      </trkpt>
      <trkpt lat="47.22666" lon="-2.17268">
        <ele>11.5</ele>
        <time>2020-06-05T12:09:09Z</time>
      </trkpt>
      <trkpt lat="47.22672" lon="-2.17275">
        <ele>11.5</ele>
        <time>2020-06-05T12:09:10Z</time>
      </trkpt>
      <trkpt lat="47.22676" lon="-2.17281">
        <ele>11.4</ele>
        <time>2020-06-05T12:09:11Z</time>
      </trkpt>
      <trkpt lat="47.2268" lon="-2.17285">
        <ele>11.4</ele>
        <time>2020-06-05T12:09:12Z</time>
      </trkpt>
      <trkpt lat="47.22684" lon="-2.1729">
        <ele>11.3</ele>
        <time>2020-06-05T12:09:13Z</time>
      </trkpt>
      <trkpt lat="47.22688" lon="-2.17295">
        <ele>11.3</ele>
        <time>2020-06-05T12:09:14Z</time>
      </trkpt>
      <trkpt lat="47.22693" lon="-2.173">
        <ele>11.3</ele>
        <time>2020-06-05T12:09:15Z</time>
      </trkpt>
      <trkpt lat="47.22697" lon="-2.17305">
        <ele>11.3</ele>
        <time>2020-06-05T12:09:16Z</time>
      </trkpt>
      <trkpt lat="47.22701" lon="-2.1731">
        <ele>11.2</ele>
        <time>2020-06-05T12:09:17Z</time>
      </trkpt>
      <trkpt lat="47.22705" lon="-2.17315">
        <ele>11.2</ele>
        <time>2020-06-05T12:09:18Z</time>
      </trkpt>
      <trkpt lat="47.22709" lon="-2.17319">
        <ele>11.2</ele>
        <time>2020-06-05T12:09:19Z</time>
      </trkpt>
      <trkpt lat="47.22713" lon="-2.17324">
        <ele>11.2</ele>
        <time>2020-06-05T12:09:20Z</time>
      </trkpt>
      <trkpt lat="47.22717" lon="-2.1733">
        <ele>11.2</ele>
        <time>2020-06-05T12:09:21Z</time>
      </trkpt>
      <trkpt lat="47.2272" lon="-2.17335">
        <ele>11.2</ele>
        <time>2020-06-05T12:09:22Z</time>
      </trkpt>
      <trkpt lat="47.22724" lon="-2.1734">
        <ele>11.2</ele>
        <time>2020-06-05T12:09:23Z</time>
      </trkpt>
      <trkpt lat="47.22727" lon="-2.17344">
        <ele>11.2</ele>
        <time>2020-06-05T12:09:24Z</time>
      </trkpt>
      <trkpt lat="47.22732" lon="-2.1735">
        <ele>11.2</ele>
        <time>2020-06-05T12:09:25Z</time>
      </trkpt>
      <trkpt lat="47.22736" lon="-2.17356">
        <ele>11.2</ele>
        <time>2020-06-05T12:09:26Z</time>
      </trkpt>
      <trkpt lat="47.2274" lon="-2.17362">
        <ele>11.2</ele>
        <time>2020-06-05T12:09:27Z</time>
      </trkpt>
      <trkpt lat="47.22744" lon="-2.17367">
        <ele>11.2</ele>
        <time>2020-06-05T12:09:28Z</time>
      </trkpt>
      <trkpt lat="47.22747" lon="-2.17373">
        <ele>11.2</ele>
        <time>2020-06-05T12:09:29Z</time>
      </trkpt>
      <trkpt lat="47.2275" lon="-2.17379">
        <ele>11.2</ele>
        <time>2020-06-05T12:09:30Z</time>
      </trkpt>
      <trkpt lat="47.22754" lon="-2.17384">
        <ele>11.2</ele>
        <time>2020-06-05T12:09:31Z</time>
      </trkpt>
      <trkpt lat="47.22758" lon="-2.1739">
        <ele>11.2</ele>
        <time>2020-06-05T12:09:32Z</time>
      </trkpt>
      <trkpt lat="47.22762" lon="-2.17395">
        <ele>11.2</ele>
        <time>2020-06-05T12:09:33Z</time>
      </trkpt>
      <trkpt lat="47.22765" lon="-2.17399">
        <ele>11.2</ele>
        <time>2020-06-05T12:09:34Z</time>
      </trkpt>
      <trkpt lat="47.2277" lon="-2.17405">
        <ele>11.3</ele>
        <time>2020-06-05T12:09:35Z</time>
      </trkpt>
      <trkpt lat="47.22773" lon="-2.1741">
        <ele>11.3</ele>
        <time>2020-06-05T12:09:36Z</time>
      </trkpt>
      <trkpt lat="47.22777" lon="-2.17414">
        <ele>11.3</ele>
        <time>2020-06-05T12:09:37Z</time>
      </trkpt>
      <trkpt lat="47.2278" lon="-2.17419">
        <ele>11.3</ele>
        <time>2020-06-05T12:09:38Z</time>
      </trkpt>
      <trkpt lat="47.22784" lon="-2.17424">
        <ele>11.3</ele>
        <time>2020-06-05T12:09:39Z</time>
      </trkpt>
      <trkpt lat="47.22788" lon="-2.17428">
        <ele>11.2</ele>
        <time>2020-06-05T12:09:40Z</time>
      </trkpt>
      <trkpt lat="47.22791" lon="-2.17433">
        <ele>11.2</ele>
        <time>2020-06-05T12:09:41Z</time>
      </trkpt>
      <trkpt lat="47.22794" lon="-2.17438">
        <ele>11.3</ele>
        <time>2020-06-05T12:09:42Z</time>
      </trkpt>
      <trkpt lat="47.22798" lon="-2.17443">
        <ele>11.3</ele>
        <time>2020-06-05T12:09:43Z</time>
      </trkpt>
      <trkpt lat="47.22801" lon="-2.17446">
        <ele>11.3</ele>
        <time>2020-06-05T12:09:44Z</time>
      </trkpt>
      <trkpt lat="47.22804" lon="-2.17451">
        <ele>11.3</ele>
        <time>2020-06-05T12:09:45Z</time>
      </trkpt>
      <trkpt lat="47.22808" lon="-2.17455">
        <ele>11.3</ele>
        <time>2020-06-05T12:09:46Z</time>
      </trkpt>
      <trkpt lat="47.22811" lon="-2.17459">
        <ele>11.3</ele>
        <time>2020-06-05T12:09:47Z</time>
      </trkpt>
      <trkpt lat="47.22815" lon="-2.17463">
        <ele>11.4</ele>
        <time>2020-06-05T12:09:48Z</time>
      </trkpt>
      <trkpt lat="47.22818" lon="-2.17467">
        <ele>11.4</ele>
        <time>2020-06-05T12:09:49Z</time>
      </trkpt>
      <trkpt lat="47.22821" lon="-2.17471">
        <ele>11.4</ele>
        <time>2020-06-05T12:09:50Z</time>
      </trkpt>
      <trkpt lat="47.22824" lon="-2.17475">
        <ele>11.4</ele>
        <time>2020-06-05T12:09:51Z</time>
      </trkpt>
      <trkpt lat="47.22826" lon="-2.17478">
        <ele>11.4</ele>
        <time>2020-06-05T12:09:52Z</time>
      </trkpt>
      <trkpt lat="47.2283" lon="-2.17482">
        <ele>11.5</ele>
        <time>2020-06-05T12:09:53Z</time>
      </trkpt>
      <trkpt lat="47.22832" lon="-2.17486">
        <ele>11.5</ele>
        <time>2020-06-05T12:09:54Z</time>
      </trkpt>
      <trkpt lat="47.22835" lon="-2.17491">
        <ele>11.5</ele>
        <time>2020-06-05T12:09:55Z</time>
      </trkpt>
      <trkpt lat="47.22838" lon="-2.17495">
        <ele>11.5</ele>
        <time>2020-06-05T12:09:56Z</time>
      </trkpt>
      <trkpt lat="47.22841" lon="-2.17499">
        <ele>11.5</ele>
        <time>2020-06-05T12:09:57Z</time>
      </trkpt>
      <trkpt lat="47.22844" lon="-2.17502">
        <ele>11.5</ele>
        <time>2020-06-05T12:09:58Z</time>
      </trkpt>
      <trkpt lat="47.22847" lon="-2.17506">
        <ele>11.6</ele>
        <time>2020-06-05T12:09:59Z</time>
      </trkpt>
      <trkpt lat="47.22849" lon="-2.17509">
        <ele>11.6</ele>
        <time>2020-06-05T12:10:00Z</time>
      </trkpt>
      <trkpt lat="47.22852" lon="-2.17513">
        <ele>11.6</ele>
        <time>2020-06-05T12:10:01Z</time>
      </trkpt>
      <trkpt lat="47.22853" lon="-2.17514">
        <ele>11.6</ele>
        <time>2020-06-05T12:10:02Z</time>
      </trkpt>
      <trkpt lat="47.22856" lon="-2.17517">
        <ele>11.5</ele>
        <time>2020-06-05T12:10:03Z</time>
      </trkpt>
      <trkpt lat="47.22859" lon="-2.17521">
        <ele>11.5</ele>
        <time>2020-06-05T12:10:04Z</time>
      </trkpt>
      <trkpt lat="47.22861" lon="-2.17522">
        <ele>11.5</ele>
        <time>2020-06-05T12:10:05Z</time>
      </trkpt>
      <trkpt lat="47.22863" lon="-2.17525">
        <ele>11.4</ele>
        <time>2020-06-05T12:10:06Z</time>
      </trkpt>
      <trkpt lat="47.22866" lon="-2.17529">
        <ele>11.4</ele>
        <time>2020-06-05T12:10:07Z</time>
      </trkpt>
      <trkpt lat="47.22867" lon="-2.1753">
        <ele>11.4</ele>
        <time>2020-06-05T12:10:08Z</time>
      </trkpt>
      <trkpt lat="47.22869" lon="-2.17534">
        <ele>11.3</ele>
        <time>2020-06-05T12:10:09Z</time>
      </trkpt>
      <trkpt lat="47.2287" lon="-2.17535">
        <ele>11.3</ele>
        <time>2020-06-05T12:10:10Z</time>
      </trkpt>
      <trkpt lat="47.22873" lon="-2.17539">
        <ele>11.2</ele>
        <time>2020-06-05T12:10:11Z</time>
      </trkpt>
      <trkpt lat="47.22873" lon="-2.1754">
        <ele>11.2</ele>
        <time>2020-06-05T12:10:12Z</time>
      </trkpt>
      <trkpt lat="47.22875" lon="-2.17544">
        <ele>11.2</ele>
        <time>2020-06-05T12:10:13Z</time>
      </trkpt>
      <trkpt lat="47.22876" lon="-2.17548">
        <ele>11.1</ele>
        <time>2020-06-05T12:10:14Z</time>
      </trkpt>
      <trkpt lat="47.22876" lon="-2.17554">
        <ele>11</ele>
        <time>2020-06-05T12:10:15Z</time>
      </trkpt>
      <trkpt lat="47.22876" lon="-2.17556">
        <ele>11</ele>
        <time>2020-06-05T12:10:16Z</time>
      </trkpt>
      <trkpt lat="47.22877" lon="-2.17562">
        <ele>10.9</ele>
        <time>2020-06-05T12:10:17Z</time>
      </trkpt>
      <trkpt lat="47.22877" lon="-2.17567">
        <ele>10.9</ele>
        <time>2020-06-05T12:10:18Z</time>
      </trkpt>
      <trkpt lat="47.22877" lon="-2.17572">
        <ele>10.8</ele>
        <time>2020-06-05T12:10:19Z</time>
      </trkpt>
      <trkpt lat="47.22878" lon="-2.17577">
        <ele>10.8</ele>
        <time>2020-06-05T12:10:20Z</time>
      </trkpt>
      <trkpt lat="47.22878" lon="-2.17582">
        <ele>10.7</ele>
        <time>2020-06-05T12:10:21Z</time>
      </trkpt>
      <trkpt lat="47.22879" lon="-2.17587">
        <ele>10.7</ele>
        <time>2020-06-05T12:10:22Z</time>
      </trkpt>
      <trkpt lat="47.22882" lon="-2.17591">
        <ele>10.7</ele>
        <time>2020-06-05T12:10:23Z</time>
      </trkpt>
      <trkpt lat="47.22885" lon="-2.17595">
        <ele>10.7</ele>
        <time>2020-06-05T12:10:24Z</time>
      </trkpt>
      <trkpt lat="47.22889" lon="-2.176">
        <ele>10.7</ele>
        <time>2020-06-05T12:10:25Z</time>
      </trkpt>
      <trkpt lat="47.22892" lon="-2.17604">
        <ele>10.7</ele>
        <time>2020-06-05T12:10:26Z</time>
      </trkpt>
      <trkpt lat="47.22895" lon="-2.17607">
        <ele>10.7</ele>
        <time>2020-06-05T12:10:27Z</time>
      </trkpt>
      <trkpt lat="47.22899" lon="-2.17611">
        <ele>10.7</ele>
        <time>2020-06-05T12:10:28Z</time>
      </trkpt>
      <trkpt lat="47.22901" lon="-2.17616">
        <ele>10.7</ele>
        <time>2020-06-05T12:10:29Z</time>
      </trkpt>
      <trkpt lat="47.22905" lon="-2.1762">
        <ele>10.6</ele>
        <time>2020-06-05T12:10:30Z</time>
      </trkpt>
      <trkpt lat="47.22908" lon="-2.17624">
        <ele>10.6</ele>
        <time>2020-06-05T12:10:31Z</time>
      </trkpt>
      <trkpt lat="47.22911" lon="-2.17627">
        <ele>10.6</ele>
        <time>2020-06-05T12:10:32Z</time>
      </trkpt>
      <trkpt lat="47.22914" lon="-2.17631">
        <ele>10.6</ele>
        <time>2020-06-05T12:10:33Z</time>
      </trkpt>
      <trkpt lat="47.22918" lon="-2.17636">
        <ele>10.6</ele>
        <time>2020-06-05T12:10:34Z</time>
      </trkpt>
      <trkpt lat="47.22921" lon="-2.17641">
        <ele>10.6</ele>
        <time>2020-06-05T12:10:35Z</time>
      </trkpt>
      <trkpt lat="47.22925" lon="-2.17645">
        <ele>10.6</ele>
        <time>2020-06-05T12:10:36Z</time>
      </trkpt>
      <trkpt lat="47.22929" lon="-2.1765">
        <ele>10.6</ele>
        <time>2020-06-05T12:10:37Z</time>
      </trkpt>
      <trkpt lat="47.22933" lon="-2.17655">
        <ele>10.5</ele>
        <time>2020-06-05T12:10:38Z</time>
      </trkpt>
      <trkpt lat="47.22937" lon="-2.17658">
        <ele>10.5</ele>
        <time>2020-06-05T12:10:39Z</time>
      </trkpt>
      <trkpt lat="47.22942" lon="-2.17663">
        <ele>10.5</ele>
        <time>2020-06-05T12:10:40Z</time>
      </trkpt>
      <trkpt lat="47.22945" lon="-2.17666">
        <ele>10.5</ele>
        <time>2020-06-05T12:10:41Z</time>
      </trkpt>
      <trkpt lat="47.22951" lon="-2.17671">
        <ele>10.4</ele>
        <time>2020-06-05T12:10:42Z</time>
      </trkpt>
      <trkpt lat="47.22953" lon="-2.17675">
        <ele>10.4</ele>
        <time>2020-06-05T12:10:43Z</time>
      </trkpt>
      <trkpt lat="47.22955" lon="-2.17678">
        <ele>10.4</ele>
        <time>2020-06-05T12:10:44Z</time>
      </trkpt>
      <trkpt lat="47.2296" lon="-2.17679">
        <ele>10.4</ele>
        <time>2020-06-05T12:10:45Z</time>
      </trkpt>
      <trkpt lat="47.22963" lon="-2.17681">
        <ele>10.3</ele>
        <time>2020-06-05T12:10:46Z</time>
      </trkpt>
      <trkpt lat="47.22967" lon="-2.17683">
        <ele>10.3</ele>
        <time>2020-06-05T12:10:47Z</time>
      </trkpt>
      <trkpt lat="47.22971" lon="-2.17684">
        <ele>10.3</ele>
        <time>2020-06-05T12:10:48Z</time>
      </trkpt>
      <trkpt lat="47.22975" lon="-2.17686">
        <ele>10.4</ele>
        <time>2020-06-05T12:10:49Z</time>
      </trkpt>
      <trkpt lat="47.22978" lon="-2.17689">
        <ele>10.4</ele>
        <time>2020-06-05T12:10:50Z</time>
      </trkpt>
      <trkpt lat="47.2298" lon="-2.17691">
        <ele>10.4</ele>
        <time>2020-06-05T12:10:51Z</time>
      </trkpt>
      <trkpt lat="47.22984" lon="-2.17694">
        <ele>10.4</ele>
        <time>2020-06-05T12:10:52Z</time>
      </trkpt>
      <trkpt lat="47.22987" lon="-2.17698">
        <ele>10.4</ele>
        <time>2020-06-05T12:10:53Z</time>
      </trkpt>
      <trkpt lat="47.2299" lon="-2.17702">
        <ele>10.4</ele>
        <time>2020-06-05T12:10:54Z</time>
      </trkpt>
      <trkpt lat="47.22993" lon="-2.17706">
        <ele>10.5</ele>
        <time>2020-06-05T12:10:55Z</time>
      </trkpt>
      <trkpt lat="47.22996" lon="-2.17711">
        <ele>10.5</ele>
        <time>2020-06-05T12:10:56Z</time>
      </trkpt>
      <trkpt lat="47.23001" lon="-2.17715">
        <ele>10.5</ele>
        <time>2020-06-05T12:10:57Z</time>
      </trkpt>
      <trkpt lat="47.23005" lon="-2.17719">
        <ele>10.5</ele>
        <time>2020-06-05T12:10:58Z</time>
      </trkpt>
      <trkpt lat="47.23008" lon="-2.17723">
        <ele>10.6</ele>
        <time>2020-06-05T12:10:59Z</time>
      </trkpt>
      <trkpt lat="47.23012" lon="-2.17727">
        <ele>10.6</ele>
        <time>2020-06-05T12:11:00Z</time>
      </trkpt>
      <trkpt lat="47.23016" lon="-2.17732">
        <ele>10.6</ele>
        <time>2020-06-05T12:11:01Z</time>
      </trkpt>
      <trkpt lat="47.23019" lon="-2.17736">
        <ele>10.6</ele>
        <time>2020-06-05T12:11:02Z</time>
      </trkpt>
      <trkpt lat="47.23023" lon="-2.17741">
        <ele>10.6</ele>
        <time>2020-06-05T12:11:03Z</time>
      </trkpt>
      <trkpt lat="47.23027" lon="-2.17746">
        <ele>10.6</ele>
        <time>2020-06-05T12:11:04Z</time>
      </trkpt>
      <trkpt lat="47.2303" lon="-2.1775">
        <ele>10.7</ele>
        <time>2020-06-05T12:11:05Z</time>
      </trkpt>
      <trkpt lat="47.23034" lon="-2.17754">
        <ele>10.7</ele>
        <time>2020-06-05T12:11:06Z</time>
      </trkpt>
      <trkpt lat="47.23038" lon="-2.17757">
        <ele>10.7</ele>
        <time>2020-06-05T12:11:07Z</time>
      </trkpt>
      <trkpt lat="47.23041" lon="-2.17761">
        <ele>10.7</ele>
        <time>2020-06-05T12:11:08Z</time>
      </trkpt>
      <trkpt lat="47.23045" lon="-2.17765">
        <ele>10.6</ele>
        <time>2020-06-05T12:11:09Z</time>
      </trkpt>
      <trkpt lat="47.23048" lon="-2.1777">
        <ele>10.6</ele>
        <time>2020-06-05T12:11:10Z</time>
      </trkpt>
      <trkpt lat="47.23052" lon="-2.17774">
        <ele>10.6</ele>
        <time>2020-06-05T12:11:11Z</time>
      </trkpt>
      <trkpt lat="47.23055" lon="-2.17779">
        <ele>10.5</ele>
        <time>2020-06-05T12:11:12Z</time>
      </trkpt>
      <trkpt lat="47.2306" lon="-2.17784">
        <ele>10.5</ele>
        <time>2020-06-05T12:11:13Z</time>
      </trkpt>
      <trkpt lat="47.23064" lon="-2.17788">
        <ele>10.4</ele>
        <time>2020-06-05T12:11:14Z</time>
      </trkpt>
      <trkpt lat="47.23067" lon="-2.17793">
        <ele>10.3</ele>
        <time>2020-06-05T12:11:15Z</time>
      </trkpt>
      <trkpt lat="47.23071" lon="-2.17797">
        <ele>10.3</ele>
        <time>2020-06-05T12:11:16Z</time>
      </trkpt>
      <trkpt lat="47.23075" lon="-2.17802">
        <ele>10.2</ele>
        <time>2020-06-05T12:11:17Z</time>
      </trkpt>
      <trkpt lat="47.23081" lon="-2.17806">
        <ele>10.2</ele>
        <time>2020-06-05T12:11:18Z</time>
      </trkpt>
      <trkpt lat="47.23085" lon="-2.17811">
        <ele>10.1</ele>
        <time>2020-06-05T12:11:19Z</time>
      </trkpt>
      <trkpt lat="47.23089" lon="-2.17816">
        <ele>10.1</ele>
        <time>2020-06-05T12:11:20Z</time>
      </trkpt>
      <trkpt lat="47.23092" lon="-2.17821">
        <ele>10</ele>
        <time>2020-06-05T12:11:21Z</time>
      </trkpt>
      <trkpt lat="47.23096" lon="-2.17825">
        <ele>9.9</ele>
        <time>2020-06-05T12:11:22Z</time>
      </trkpt>
      <trkpt lat="47.231" lon="-2.17829">
        <ele>9.9</ele>
        <time>2020-06-05T12:11:23Z</time>
      </trkpt>
      <trkpt lat="47.23103" lon="-2.17833">
        <ele>9.8</ele>
        <time>2020-06-05T12:11:24Z</time>
      </trkpt>
      <trkpt lat="47.23107" lon="-2.17838">
        <ele>9.8</ele>
        <time>2020-06-05T12:11:25Z</time>
      </trkpt>
      <trkpt lat="47.23111" lon="-2.17842">
        <ele>9.7</ele>
        <time>2020-06-05T12:11:26Z</time>
      </trkpt>
      <trkpt lat="47.23115" lon="-2.17846">
        <ele>9.7</ele>
        <time>2020-06-05T12:11:27Z</time>
      </trkpt>
      <trkpt lat="47.23119" lon="-2.1785">
        <ele>9.7</ele>
        <time>2020-06-05T12:11:28Z</time>
      </trkpt>
      <trkpt lat="47.23122" lon="-2.17855">
        <ele>9.6</ele>
        <time>2020-06-05T12:11:29Z</time>
      </trkpt>
      <trkpt lat="47.23127" lon="-2.17859">
        <ele>9.6</ele>
        <time>2020-06-05T12:11:30Z</time>
      </trkpt>
      <trkpt lat="47.23132" lon="-2.17862">
        <ele>9.6</ele>
        <time>2020-06-05T12:11:31Z</time>
      </trkpt>
      <trkpt lat="47.23136" lon="-2.17866">
        <ele>9.5</ele>
        <time>2020-06-05T12:11:32Z</time>
      </trkpt>
      <trkpt lat="47.2314" lon="-2.1787">
        <ele>9.6</ele>
        <time>2020-06-05T12:11:33Z</time>
      </trkpt>
      <trkpt lat="47.23145" lon="-2.17873">
        <ele>9.6</ele>
        <time>2020-06-05T12:11:34Z</time>
      </trkpt>
      <trkpt lat="47.2315" lon="-2.17877">
        <ele>9.7</ele>
        <time>2020-06-05T12:11:35Z</time>
      </trkpt>
      <trkpt lat="47.23155" lon="-2.1788">
        <ele>9.8</ele>
        <time>2020-06-05T12:11:36Z</time>
      </trkpt>
      <trkpt lat="47.23159" lon="-2.17883">
        <ele>9.9</ele>
        <time>2020-06-05T12:11:37Z</time>
      </trkpt>
      <trkpt lat="47.23164" lon="-2.17885">
        <ele>10</ele>
        <time>2020-06-05T12:11:38Z</time>
      </trkpt>
      <trkpt lat="47.23169" lon="-2.17888">
        <ele>10.1</ele>
        <time>2020-06-05T12:11:39Z</time>
      </trkpt>
      <trkpt lat="47.23173" lon="-2.17889">
        <ele>10.2</ele>
        <time>2020-06-05T12:11:40Z</time>
      </trkpt>
      <trkpt lat="47.23178" lon="-2.17891">
        <ele>10.3</ele>
        <time>2020-06-05T12:11:41Z</time>
      </trkpt>
      <trkpt lat="47.23182" lon="-2.17892">
        <ele>10.3</ele>
        <time>2020-06-05T12:11:42Z</time>
      </trkpt>
      <trkpt lat="47.23187" lon="-2.17893">
        <ele>10.4</ele>
        <time>2020-06-05T12:11:43Z</time>
      </trkpt>
      <trkpt lat="47.23191" lon="-2.17895">
        <ele>10.4</ele>
        <time>2020-06-05T12:11:44Z</time>
      </trkpt>
      <trkpt lat="47.23195" lon="-2.17895">
        <ele>10.4</ele>
        <time>2020-06-05T12:11:45Z</time>
      </trkpt>
      <trkpt lat="47.232" lon="-2.17895">
        <ele>10.4</ele>
        <time>2020-06-05T12:11:46Z</time>
      </trkpt>
      <trkpt lat="47.23203" lon="-2.17894">
        <ele>10.3</ele>
        <time>2020-06-05T12:11:47Z</time>
      </trkpt>
      <trkpt lat="47.23207" lon="-2.17893">
        <ele>10.3</ele>
        <time>2020-06-05T12:11:48Z</time>
      </trkpt>
      <trkpt lat="47.23212" lon="-2.17894">
        <ele>10.2</ele>
        <time>2020-06-05T12:11:49Z</time>
      </trkpt>
      <trkpt lat="47.23217" lon="-2.17893">
        <ele>10.1</ele>
        <time>2020-06-05T12:11:50Z</time>
      </trkpt>
      <trkpt lat="47.23222" lon="-2.17892">
        <ele>9.9</ele>
        <time>2020-06-05T12:11:51Z</time>
      </trkpt>
      <trkpt lat="47.23227" lon="-2.17891">
        <ele>9.8</ele>
        <time>2020-06-05T12:11:52Z</time>
      </trkpt>
      <trkpt lat="47.23231" lon="-2.1789">
        <ele>9.6</ele>
        <time>2020-06-05T12:11:53Z</time>
      </trkpt>
      <trkpt lat="47.23236" lon="-2.1789">
        <ele>9.4</ele>
        <time>2020-06-05T12:11:54Z</time>
      </trkpt>
      <trkpt lat="47.23241" lon="-2.17889">
        <ele>9.2</ele>
        <time>2020-06-05T12:11:55Z</time>
      </trkpt>
      <trkpt lat="47.23246" lon="-2.17888">
        <ele>9</ele>
        <time>2020-06-05T12:11:56Z</time>
      </trkpt>
      <trkpt lat="47.23252" lon="-2.17886">
        <ele>8.8</ele>
        <time>2020-06-05T12:11:57Z</time>
      </trkpt>
      <trkpt lat="47.23257" lon="-2.17885">
        <ele>8.7</ele>
        <time>2020-06-05T12:11:58Z</time>
      </trkpt>
      <trkpt lat="47.23262" lon="-2.17881">
        <ele>8.5</ele>
        <time>2020-06-05T12:11:59Z</time>
      </trkpt>
      <trkpt lat="47.23268" lon="-2.17878">
        <ele>8.3</ele>
        <time>2020-06-05T12:12:00Z</time>
      </trkpt>
      <trkpt lat="47.23274" lon="-2.17874">
        <ele>8.2</ele>
        <time>2020-06-05T12:12:01Z</time>
      </trkpt>
      <trkpt lat="47.23279" lon="-2.17869">
        <ele>8</ele>
        <time>2020-06-05T12:12:02Z</time>
      </trkpt>
      <trkpt lat="47.23284" lon="-2.17865">
        <ele>7.9</ele>
        <time>2020-06-05T12:12:03Z</time>
      </trkpt>
      <trkpt lat="47.23289" lon="-2.17861">
        <ele>7.8</ele>
        <time>2020-06-05T12:12:04Z</time>
      </trkpt>
      <trkpt lat="47.23292" lon="-2.17858">
        <ele>7.7</ele>
        <time>2020-06-05T12:12:05Z</time>
      </trkpt>
      <trkpt lat="47.23295" lon="-2.17857">
        <ele>7.6</ele>
        <time>2020-06-05T12:12:06Z</time>
      </trkpt>
      <trkpt lat="47.23298" lon="-2.17856">
        <ele>7.7</ele>
        <time>2020-06-05T12:12:07Z</time>
      </trkpt>
      <trkpt lat="47.233" lon="-2.17857">
        <ele>7.7</ele>
        <time>2020-06-05T12:12:08Z</time>
      </trkpt>
      <trkpt lat="47.23303" lon="-2.17859">
        <ele>8.2</ele>
        <time>2020-06-05T12:12:09Z</time>
      </trkpt>
      <trkpt lat="47.23304" lon="-2.1786">
        <ele>8.2</ele>
        <time>2020-06-05T12:12:10Z</time>
      </trkpt>
      <trkpt lat="47.23305" lon="-2.1786">
        <ele>8.2</ele>
        <time>2020-06-05T12:12:11Z</time>
      </trkpt>
      <trkpt lat="47.23306" lon="-2.17861">
        <ele>8.2</ele>
        <time>2020-06-05T12:12:12Z</time>
      </trkpt>
      <trkpt lat="47.23307" lon="-2.1786">
        <ele>8.2</ele>
        <time>2020-06-05T12:12:13Z</time>
      </trkpt>
      <trkpt lat="47.23309" lon="-2.17857">
        <ele>8.2</ele>
        <time>2020-06-05T12:12:14Z</time>
      </trkpt>
      <trkpt lat="47.2331" lon="-2.17856">
        <ele>8.2</ele>
        <time>2020-06-05T12:12:15Z</time>
      </trkpt>
      <trkpt lat="47.23313" lon="-2.17851">
        <ele>8.2</ele>
        <time>2020-06-05T12:12:16Z</time>
      </trkpt>
      <trkpt lat="47.23313" lon="-2.17849">
        <ele>8.2</ele>
        <time>2020-06-05T12:12:17Z</time>
      </trkpt>
      <trkpt lat="47.23316" lon="-2.17845">
        <ele>8.2</ele>
        <time>2020-06-05T12:12:18Z</time>
      </trkpt>
      <trkpt lat="47.23318" lon="-2.1784">
        <ele>8.2</ele>
        <time>2020-06-05T12:12:19Z</time>
      </trkpt>
      <trkpt lat="47.23322" lon="-2.17835">
        <ele>8.2</ele>
        <time>2020-06-05T12:12:20Z</time>
      </trkpt>
      <trkpt lat="47.23325" lon="-2.17831">
        <ele>8.2</ele>
        <time>2020-06-05T12:12:21Z</time>
      </trkpt>
      <trkpt lat="47.23327" lon="-2.17826">
        <ele>8.2</ele>
        <time>2020-06-05T12:12:22Z</time>
      </trkpt>
      <trkpt lat="47.2333" lon="-2.1782">
        <ele>8.2</ele>
        <time>2020-06-05T12:12:23Z</time>
      </trkpt>
      <trkpt lat="47.23333" lon="-2.17814">
        <ele>8.2</ele>
        <time>2020-06-05T12:12:24Z</time>
      </trkpt>
      <trkpt lat="47.23334" lon="-2.17807">
        <ele>8.3</ele>
        <time>2020-06-05T12:12:25Z</time>
      </trkpt>
      <trkpt lat="47.23336" lon="-2.17801">
        <ele>8.3</ele>
        <time>2020-06-05T12:12:26Z</time>
      </trkpt>
      <trkpt lat="47.23337" lon="-2.17795">
        <ele>8.3</ele>
        <time>2020-06-05T12:12:27Z</time>
      </trkpt>
      <trkpt lat="47.23338" lon="-2.17789">
        <ele>8.3</ele>
        <time>2020-06-05T12:12:28Z</time>
      </trkpt>
      <trkpt lat="47.2334" lon="-2.17783">
        <ele>8.4</ele>
        <time>2020-06-05T12:12:29Z</time>
      </trkpt>
      <trkpt lat="47.23342" lon="-2.17779">
        <ele>8.4</ele>
        <time>2020-06-05T12:12:30Z</time>
      </trkpt>
      <trkpt lat="47.23342" lon="-2.17774">
        <ele>8.4</ele>
        <time>2020-06-05T12:12:31Z</time>
      </trkpt>
      <trkpt lat="47.23342" lon="-2.17768">
        <ele>8.4</ele>
        <time>2020-06-05T12:12:32Z</time>
      </trkpt>
      <trkpt lat="47.23343" lon="-2.17762">
        <ele>8.4</ele>
        <time>2020-06-05T12:12:33Z</time>
      </trkpt>
      <trkpt lat="47.23342" lon="-2.17757">
        <ele>8.5</ele>
        <time>2020-06-05T12:12:34Z</time>
      </trkpt>
      <trkpt lat="47.23342" lon="-2.17751">
        <ele>8.5</ele>
        <time>2020-06-05T12:12:35Z</time>
      </trkpt>
      <trkpt lat="47.23342" lon="-2.17745">
        <ele>8.5</ele>
        <time>2020-06-05T12:12:36Z</time>
      </trkpt>
      <trkpt lat="47.23343" lon="-2.1774">
        <ele>8.6</ele>
        <time>2020-06-05T12:12:37Z</time>
      </trkpt>
      <trkpt lat="47.23344" lon="-2.17735">
        <ele>8.6</ele>
        <time>2020-06-05T12:12:38Z</time>
      </trkpt>
      <trkpt lat="47.23344" lon="-2.1773">
        <ele>8.6</ele>
        <time>2020-06-05T12:12:39Z</time>
      </trkpt>
      <trkpt lat="47.23345" lon="-2.17725">
        <ele>8.6</ele>
        <time>2020-06-05T12:12:40Z</time>
      </trkpt>
      <trkpt lat="47.23345" lon="-2.17719">
        <ele>8.7</ele>
        <time>2020-06-05T12:12:41Z</time>
      </trkpt>
      <trkpt lat="47.23346" lon="-2.17714">
        <ele>8.7</ele>
        <time>2020-06-05T12:12:42Z</time>
      </trkpt>
      <trkpt lat="47.23346" lon="-2.17709">
        <ele>8.7</ele>
        <time>2020-06-05T12:12:43Z</time>
      </trkpt>
      <trkpt lat="47.23346" lon="-2.17702">
        <ele>8.7</ele>
        <time>2020-06-05T12:12:44Z</time>
      </trkpt>
      <trkpt lat="47.23345" lon="-2.17695">
        <ele>8.8</ele>
        <time>2020-06-05T12:12:45Z</time>
      </trkpt>
      <trkpt lat="47.23345" lon="-2.17689">
        <ele>8.8</ele>
        <time>2020-06-05T12:12:46Z</time>
      </trkpt>
      <trkpt lat="47.23346" lon="-2.17683">
        <ele>8.8</ele>
        <time>2020-06-05T12:12:47Z</time>
      </trkpt>
      <trkpt lat="47.23347" lon="-2.17678">
        <ele>8.8</ele>
        <time>2020-06-05T12:12:48Z</time>
      </trkpt>
      <trkpt lat="47.23347" lon="-2.17671">
        <ele>8.8</ele>
        <time>2020-06-05T12:12:49Z</time>
      </trkpt>
      <trkpt lat="47.23347" lon="-2.17665">
        <ele>8.9</ele>
        <time>2020-06-05T12:12:50Z</time>
      </trkpt>
      <trkpt lat="47.23347" lon="-2.17658">
        <ele>8.9</ele>
        <time>2020-06-05T12:12:51Z</time>
      </trkpt>
      <trkpt lat="47.23348" lon="-2.17652">
        <ele>8.9</ele>
        <time>2020-06-05T12:12:52Z</time>
      </trkpt>
      <trkpt lat="47.23349" lon="-2.17646">
        <ele>9</ele>
        <time>2020-06-05T12:12:53Z</time>
      </trkpt>
      <trkpt lat="47.23349" lon="-2.1764">
        <ele>9</ele>
        <time>2020-06-05T12:12:54Z</time>
      </trkpt>
      <trkpt lat="47.23349" lon="-2.17635">
        <ele>9.1</ele>
        <time>2020-06-05T12:12:55Z</time>
      </trkpt>
      <trkpt lat="47.23349" lon="-2.1763">
        <ele>9.1</ele>
        <time>2020-06-05T12:12:56Z</time>
      </trkpt>
      <trkpt lat="47.23349" lon="-2.17625">
        <ele>9.1</ele>
        <time>2020-06-05T12:12:57Z</time>
      </trkpt>
      <trkpt lat="47.23349" lon="-2.1762">
        <ele>9.2</ele>
        <time>2020-06-05T12:12:58Z</time>
      </trkpt>
      <trkpt lat="47.23348" lon="-2.17616">
        <ele>9.2</ele>
        <time>2020-06-05T12:12:59Z</time>
      </trkpt>
      <trkpt lat="47.23349" lon="-2.1761">
        <ele>9.2</ele>
        <time>2020-06-05T12:13:00Z</time>
      </trkpt>
      <trkpt lat="47.23349" lon="-2.17607">
        <ele>9.3</ele>
        <time>2020-06-05T12:13:01Z</time>
      </trkpt>
      <trkpt lat="47.23349" lon="-2.17602">
        <ele>9.3</ele>
        <time>2020-06-05T12:13:02Z</time>
      </trkpt>
      <trkpt lat="47.23349" lon="-2.17596">
        <ele>9.3</ele>
        <time>2020-06-05T12:13:03Z</time>
      </trkpt>
      <trkpt lat="47.23349" lon="-2.17591">
        <ele>9.3</ele>
        <time>2020-06-05T12:13:04Z</time>
      </trkpt>
      <trkpt lat="47.2335" lon="-2.17584">
        <ele>9.3</ele>
        <time>2020-06-05T12:13:05Z</time>
      </trkpt>
      <trkpt lat="47.23349" lon="-2.17577">
        <ele>9.3</ele>
        <time>2020-06-05T12:13:06Z</time>
      </trkpt>
      <trkpt lat="47.23349" lon="-2.17572">
        <ele>9.3</ele>
        <time>2020-06-05T12:13:07Z</time>
      </trkpt>
      <trkpt lat="47.23349" lon="-2.17567">
        <ele>9.3</ele>
        <time>2020-06-05T12:13:08Z</time>
      </trkpt>
      <trkpt lat="47.23349" lon="-2.17562">
        <ele>9.3</ele>
        <time>2020-06-05T12:13:09Z</time>
      </trkpt>
      <trkpt lat="47.2335" lon="-2.17561">
        <ele>9.4</ele>
        <time>2020-06-05T12:13:10Z</time>
      </trkpt>
      <trkpt lat="47.2335" lon="-2.17559">
        <ele>9.4</ele>
        <time>2020-06-05T12:13:11Z</time>
      </trkpt>
      <trkpt lat="47.2335" lon="-2.17558">
        <ele>9.4</ele>
        <time>2020-06-05T12:13:12Z</time>
      </trkpt>
      <trkpt lat="47.2335" lon="-2.17556">
        <ele>9.5</ele>
        <time>2020-06-05T12:13:13Z</time>
      </trkpt>
      <trkpt lat="47.23351" lon="-2.17554">
        <ele>9.5</ele>
        <time>2020-06-05T12:13:14Z</time>
      </trkpt>
      <trkpt lat="47.23351" lon="-2.17552">
        <ele>9.5</ele>
        <time>2020-06-05T12:13:15Z</time>
      </trkpt>
      <trkpt lat="47.23354" lon="-2.17549">
        <ele>9.6</ele>
        <time>2020-06-05T12:13:16Z</time>
      </trkpt>
      <trkpt lat="47.23354" lon="-2.17548">
        <ele>9.6</ele>
        <time>2020-06-05T12:13:17Z</time>
      </trkpt>
      <trkpt lat="47.23357" lon="-2.17546">
        <ele>9.6</ele>
        <time>2020-06-05T12:13:18Z</time>
      </trkpt>
      <trkpt lat="47.2336" lon="-2.17543">
        <ele>9.6</ele>
        <time>2020-06-05T12:13:19Z</time>
      </trkpt>
      <trkpt lat="47.23363" lon="-2.17541">
        <ele>9.6</ele>
        <time>2020-06-05T12:13:20Z</time>
      </trkpt>
      <trkpt lat="47.23367" lon="-2.17539">
        <ele>9.6</ele>
        <time>2020-06-05T12:13:21Z</time>
      </trkpt>
      <trkpt lat="47.23372" lon="-2.17539">
        <ele>9.7</ele>
        <time>2020-06-05T12:13:22Z</time>
      </trkpt>
      <trkpt lat="47.23376" lon="-2.17538">
        <ele>9.7</ele>
        <time>2020-06-05T12:13:23Z</time>
      </trkpt>
      <trkpt lat="47.2338" lon="-2.17538">
        <ele>9.7</ele>
        <time>2020-06-05T12:13:24Z</time>
      </trkpt>
      <trkpt lat="47.23384" lon="-2.17538">
        <ele>9.8</ele>
        <time>2020-06-05T12:13:25Z</time>
      </trkpt>
      <trkpt lat="47.23389" lon="-2.17538">
        <ele>9.9</ele>
        <time>2020-06-05T12:13:26Z</time>
      </trkpt>
      <trkpt lat="47.23393" lon="-2.17538">
        <ele>9.9</ele>
        <time>2020-06-05T12:13:27Z</time>
      </trkpt>
      <trkpt lat="47.23399" lon="-2.17538">
        <ele>10</ele>
        <time>2020-06-05T12:13:28Z</time>
      </trkpt>
      <trkpt lat="47.23403" lon="-2.1754">
        <ele>10.1</ele>
        <time>2020-06-05T12:13:29Z</time>
      </trkpt>
      <trkpt lat="47.23408" lon="-2.17542">
        <ele>10.1</ele>
        <time>2020-06-05T12:13:30Z</time>
      </trkpt>
      <trkpt lat="47.23411" lon="-2.17543">
        <ele>10.2</ele>
        <time>2020-06-05T12:13:31Z</time>
      </trkpt>
      <trkpt lat="47.23416" lon="-2.17544">
        <ele>10.2</ele>
        <time>2020-06-05T12:13:32Z</time>
      </trkpt>
      <trkpt lat="47.23419" lon="-2.17546">
        <ele>10.2</ele>
        <time>2020-06-05T12:13:33Z</time>
      </trkpt>
      <trkpt lat="47.23423" lon="-2.17546">
        <ele>10.3</ele>
        <time>2020-06-05T12:13:34Z</time>
      </trkpt>
      <trkpt lat="47.23427" lon="-2.17546">
        <ele>10.3</ele>
        <time>2020-06-05T12:13:35Z</time>
      </trkpt>
      <trkpt lat="47.23432" lon="-2.17547">
        <ele>10.3</ele>
        <time>2020-06-05T12:13:36Z</time>
      </trkpt>
      <trkpt lat="47.23437" lon="-2.17549">
        <ele>10.3</ele>
        <time>2020-06-05T12:13:37Z</time>
      </trkpt>
      <trkpt lat="47.23442" lon="-2.1755">
        <ele>10.3</ele>
        <time>2020-06-05T12:13:38Z</time>
      </trkpt>
      <trkpt lat="47.23447" lon="-2.17551">
        <ele>10.3</ele>
        <time>2020-06-05T12:13:39Z</time>
      </trkpt>
      <trkpt lat="47.23452" lon="-2.17552">
        <ele>10.3</ele>
        <time>2020-06-05T12:13:40Z</time>
      </trkpt>
      <trkpt lat="47.23456" lon="-2.17553">
        <ele>10.2</ele>
        <time>2020-06-05T12:13:41Z</time>
      </trkpt>
      <trkpt lat="47.2346" lon="-2.17552">
        <ele>10.2</ele>
        <time>2020-06-05T12:13:42Z</time>
      </trkpt>
      <trkpt lat="47.23465" lon="-2.17552">
        <ele>10.1</ele>
        <time>2020-06-05T12:13:43Z</time>
      </trkpt>
      <trkpt lat="47.2347" lon="-2.17552">
        <ele>10.1</ele>
        <time>2020-06-05T12:13:44Z</time>
      </trkpt>
      <trkpt lat="47.23474" lon="-2.17554">
        <ele>10</ele>
        <time>2020-06-05T12:13:45Z</time>
      </trkpt>
      <trkpt lat="47.23478" lon="-2.17555">
        <ele>10</ele>
        <time>2020-06-05T12:13:46Z</time>
      </trkpt>
      <trkpt lat="47.23482" lon="-2.17556">
        <ele>9.9</ele>
        <time>2020-06-05T12:13:47Z</time>
      </trkpt>
      <trkpt lat="47.23487" lon="-2.17556">
        <ele>9.8</ele>
        <time>2020-06-05T12:13:48Z</time>
      </trkpt>
      <trkpt lat="47.23491" lon="-2.17556">
        <ele>9.8</ele>
        <time>2020-06-05T12:13:49Z</time>
      </trkpt>
      <trkpt lat="47.23497" lon="-2.17555">
        <ele>9.7</ele>
        <time>2020-06-05T12:13:50Z</time>
      </trkpt>
      <trkpt lat="47.23501" lon="-2.17555">
        <ele>9.6</ele>
        <time>2020-06-05T12:13:51Z</time>
      </trkpt>
      <trkpt lat="47.23505" lon="-2.17555">
        <ele>9.5</ele>
        <time>2020-06-05T12:13:52Z</time>
      </trkpt>
      <trkpt lat="47.23509" lon="-2.17555">
        <ele>9.3</ele>
        <time>2020-06-05T12:13:53Z</time>
      </trkpt>
      <trkpt lat="47.23514" lon="-2.17555">
        <ele>9.2</ele>
        <time>2020-06-05T12:13:54Z</time>
      </trkpt>
      <trkpt lat="47.23519" lon="-2.17555">
        <ele>9.1</ele>
        <time>2020-06-05T12:13:55Z</time>
      </trkpt>
      <trkpt lat="47.23523" lon="-2.17557">
        <ele>8.9</ele>
        <time>2020-06-05T12:13:56Z</time>
      </trkpt>
      <trkpt lat="47.23527" lon="-2.17557">
        <ele>8.8</ele>
        <time>2020-06-05T12:13:57Z</time>
      </trkpt>
      <trkpt lat="47.23532" lon="-2.17555">
        <ele>8.6</ele>
        <time>2020-06-05T12:13:58Z</time>
      </trkpt>
      <trkpt lat="47.23537" lon="-2.17553">
        <ele>8.4</ele>
        <time>2020-06-05T12:13:59Z</time>
      </trkpt>
      <trkpt lat="47.23541" lon="-2.17549">
        <ele>8.2</ele>
        <time>2020-06-05T12:14:00Z</time>
      </trkpt>
      <trkpt lat="47.23545" lon="-2.17544">
        <ele>8</ele>
        <time>2020-06-05T12:14:01Z</time>
      </trkpt>
      <trkpt lat="47.23548" lon="-2.17539">
        <ele>7.9</ele>
        <time>2020-06-05T12:14:02Z</time>
      </trkpt>
      <trkpt lat="47.23553" lon="-2.17533">
        <ele>7.7</ele>
        <time>2020-06-05T12:14:03Z</time>
      </trkpt>
      <trkpt lat="47.23557" lon="-2.17525">
        <ele>7.5</ele>
        <time>2020-06-05T12:14:04Z</time>
      </trkpt>
      <trkpt lat="47.23561" lon="-2.17519">
        <ele>7.3</ele>
        <time>2020-06-05T12:14:05Z</time>
      </trkpt>
      <trkpt lat="47.23565" lon="-2.17511">
        <ele>7.1</ele>
        <time>2020-06-05T12:14:06Z</time>
      </trkpt>
      <trkpt lat="47.23568" lon="-2.17502">
        <ele>6.9</ele>
        <time>2020-06-05T12:14:07Z</time>
      </trkpt>
      <trkpt lat="47.2357" lon="-2.17495">
        <ele>6.9</ele>
        <time>2020-06-05T12:14:08Z</time>
      </trkpt>
      <trkpt lat="47.23572" lon="-2.17487">
        <ele>6.8</ele>
        <time>2020-06-05T12:14:09Z</time>
      </trkpt>
      <trkpt lat="47.23575" lon="-2.17481">
        <ele>6.7</ele>
        <time>2020-06-05T12:14:10Z</time>
      </trkpt>
      <trkpt lat="47.23577" lon="-2.17475">
        <ele>6.7</ele>
        <time>2020-06-05T12:14:11Z</time>
      </trkpt>
      <trkpt lat="47.23579" lon="-2.17469">
        <ele>6.7</ele>
        <time>2020-06-05T12:14:12Z</time>
      </trkpt>
      <trkpt lat="47.23582" lon="-2.17462">
        <ele>6.6</ele>
        <time>2020-06-05T12:14:13Z</time>
      </trkpt>
      <trkpt lat="47.23584" lon="-2.17455">
        <ele>6.6</ele>
        <time>2020-06-05T12:14:14Z</time>
      </trkpt>
      <trkpt lat="47.23586" lon="-2.17447">
        <ele>6.5</ele>
        <time>2020-06-05T12:14:15Z</time>
      </trkpt>
      <trkpt lat="47.23589" lon="-2.17439">
        <ele>6.4</ele>
        <time>2020-06-05T12:14:16Z</time>
      </trkpt>
      <trkpt lat="47.23591" lon="-2.17431">
        <ele>6.3</ele>
        <time>2020-06-05T12:14:17Z</time>
      </trkpt>
      <trkpt lat="47.23593" lon="-2.17425">
        <ele>6.3</ele>
        <time>2020-06-05T12:14:18Z</time>
      </trkpt>
      <trkpt lat="47.23595" lon="-2.17418">
        <ele>6.2</ele>
        <time>2020-06-05T12:14:19Z</time>
      </trkpt>
      <trkpt lat="47.23597" lon="-2.17413">
        <ele>6.2</ele>
        <time>2020-06-05T12:14:20Z</time>
      </trkpt>
      <trkpt lat="47.23599" lon="-2.17406">
        <ele>6.1</ele>
        <time>2020-06-05T12:14:21Z</time>
      </trkpt>
      <trkpt lat="47.23601" lon="-2.17401">
        <ele>6.1</ele>
        <time>2020-06-05T12:14:22Z</time>
      </trkpt>
      <trkpt lat="47.23604" lon="-2.17395">
        <ele>6</ele>
        <time>2020-06-05T12:14:23Z</time>
      </trkpt>
      <trkpt lat="47.23608" lon="-2.17389">
        <ele>6</ele>
        <time>2020-06-05T12:14:24Z</time>
      </trkpt>
      <trkpt lat="47.23609" lon="-2.17384">
        <ele>6</ele>
        <time>2020-06-05T12:14:25Z</time>
      </trkpt>
      <trkpt lat="47.23611" lon="-2.17378">
        <ele>6</ele>
        <time>2020-06-05T12:14:26Z</time>
      </trkpt>
      <trkpt lat="47.23612" lon="-2.17372">
        <ele>6</ele>
        <time>2020-06-05T12:14:27Z</time>
      </trkpt>
      <trkpt lat="47.23615" lon="-2.17365">
        <ele>5.9</ele>
        <time>2020-06-05T12:14:28Z</time>
      </trkpt>
      <trkpt lat="47.23616" lon="-2.17358">
        <ele>5.9</ele>
        <time>2020-06-05T12:14:29Z</time>
      </trkpt>
      <trkpt lat="47.23617" lon="-2.17351">
        <ele>6</ele>
        <time>2020-06-05T12:14:30Z</time>
      </trkpt>
      <trkpt lat="47.23618" lon="-2.17345">
        <ele>6</ele>
        <time>2020-06-05T12:14:31Z</time>
      </trkpt>
      <trkpt lat="47.23619" lon="-2.1734">
        <ele>6</ele>
        <time>2020-06-05T12:14:32Z</time>
      </trkpt>
      <trkpt lat="47.23621" lon="-2.17333">
        <ele>6</ele>
        <time>2020-06-05T12:14:33Z</time>
      </trkpt>
      <trkpt lat="47.23622" lon="-2.17327">
        <ele>6.1</ele>
        <time>2020-06-05T12:14:34Z</time>
      </trkpt>
      <trkpt lat="47.23623" lon="-2.17321">
        <ele>6.1</ele>
        <time>2020-06-05T12:14:35Z</time>
      </trkpt>
      <trkpt lat="47.23626" lon="-2.17316">
        <ele>6.2</ele>
        <time>2020-06-05T12:14:36Z</time>
      </trkpt>
      <trkpt lat="47.23626" lon="-2.1731">
        <ele>6.2</ele>
        <time>2020-06-05T12:14:37Z</time>
      </trkpt>
      <trkpt lat="47.23628" lon="-2.17303">
        <ele>6.2</ele>
        <time>2020-06-05T12:14:38Z</time>
      </trkpt>
      <trkpt lat="47.23629" lon="-2.17295">
        <ele>6.3</ele>
        <time>2020-06-05T12:14:39Z</time>
      </trkpt>
      <trkpt lat="47.2363" lon="-2.17288">
        <ele>6.4</ele>
        <time>2020-06-05T12:14:40Z</time>
      </trkpt>
      <trkpt lat="47.23631" lon="-2.17283">
        <ele>6.4</ele>
        <time>2020-06-05T12:14:41Z</time>
      </trkpt>
      <trkpt lat="47.23632" lon="-2.17276">
        <ele>6.4</ele>
        <time>2020-06-05T12:14:42Z</time>
      </trkpt>
      <trkpt lat="47.23634" lon="-2.17269">
        <ele>6.5</ele>
        <time>2020-06-05T12:14:43Z</time>
      </trkpt>
      <trkpt lat="47.23636" lon="-2.17262">
        <ele>6.5</ele>
        <time>2020-06-05T12:14:44Z</time>
      </trkpt>
      <trkpt lat="47.23638" lon="-2.17255">
        <ele>6.6</ele>
        <time>2020-06-05T12:14:45Z</time>
      </trkpt>
      <trkpt lat="47.2364" lon="-2.17248">
        <ele>6.6</ele>
        <time>2020-06-05T12:14:46Z</time>
      </trkpt>
      <trkpt lat="47.23642" lon="-2.17241">
        <ele>6.7</ele>
        <time>2020-06-05T12:14:47Z</time>
      </trkpt>
      <trkpt lat="47.23644" lon="-2.17235">
        <ele>6.7</ele>
        <time>2020-06-05T12:14:48Z</time>
      </trkpt>
      <trkpt lat="47.23645" lon="-2.1723">
        <ele>6.8</ele>
        <time>2020-06-05T12:14:49Z</time>
      </trkpt>
      <trkpt lat="47.23648" lon="-2.17223">
        <ele>6.8</ele>
        <time>2020-06-05T12:14:50Z</time>
      </trkpt>
      <trkpt lat="47.23651" lon="-2.17219">
        <ele>6.9</ele>
        <time>2020-06-05T12:14:51Z</time>
      </trkpt>
      <trkpt lat="47.23653" lon="-2.17214">
        <ele>6.9</ele>
        <time>2020-06-05T12:14:52Z</time>
      </trkpt>
      <trkpt lat="47.23656" lon="-2.1721">
        <ele>7</ele>
        <time>2020-06-05T12:14:53Z</time>
      </trkpt>
      <trkpt lat="47.23659" lon="-2.17204">
        <ele>7</ele>
        <time>2020-06-05T12:14:54Z</time>
      </trkpt>
      <trkpt lat="47.23663" lon="-2.172">
        <ele>7</ele>
        <time>2020-06-05T12:14:55Z</time>
      </trkpt>
      <trkpt lat="47.23667" lon="-2.17195">
        <ele>7.1</ele>
        <time>2020-06-05T12:14:56Z</time>
      </trkpt>
      <trkpt lat="47.23671" lon="-2.1719">
        <ele>7.1</ele>
        <time>2020-06-05T12:14:57Z</time>
      </trkpt>
      <trkpt lat="47.23675" lon="-2.17185">
        <ele>7.1</ele>
        <time>2020-06-05T12:14:58Z</time>
      </trkpt>
      <trkpt lat="47.23677" lon="-2.17182">
        <ele>7.2</ele>
        <time>2020-06-05T12:14:59Z</time>
      </trkpt>
      <trkpt lat="47.23678" lon="-2.17181">
        <ele>7.2</ele>
        <time>2020-06-05T12:15:00Z</time>
      </trkpt>
      <trkpt lat="47.23679" lon="-2.17178">
        <ele>7.2</ele>
        <time>2020-06-05T12:15:01Z</time>
      </trkpt>
      <trkpt lat="47.23679" lon="-2.17177">
        <ele>7.2</ele>
        <time>2020-06-05T12:15:02Z</time>
      </trkpt>
      <trkpt lat="47.23679" lon="-2.17171">
        <ele>7.2</ele>
        <time>2020-06-05T12:15:03Z</time>
      </trkpt>
      <trkpt lat="47.23679" lon="-2.17169">
        <ele>7.2</ele>
        <time>2020-06-05T12:15:04Z</time>
      </trkpt>
      <trkpt lat="47.23681" lon="-2.17166">
        <ele>7.3</ele>
        <time>2020-06-05T12:15:05Z</time>
      </trkpt>
      <trkpt lat="47.23684" lon="-2.17162">
        <ele>7.3</ele>
        <time>2020-06-05T12:15:06Z</time>
      </trkpt>
      <trkpt lat="47.23687" lon="-2.17158">
        <ele>7.3</ele>
        <time>2020-06-05T12:15:07Z</time>
      </trkpt>
      <trkpt lat="47.2369" lon="-2.17154">
        <ele>7.4</ele>
        <time>2020-06-05T12:15:08Z</time>
      </trkpt>
      <trkpt lat="47.23694" lon="-2.17148">
        <ele>7.4</ele>
        <time>2020-06-05T12:15:09Z</time>
      </trkpt>
      <trkpt lat="47.23698" lon="-2.17143">
        <ele>7.5</ele>
        <time>2020-06-05T12:15:10Z</time>
      </trkpt>
      <trkpt lat="47.23702" lon="-2.17138">
        <ele>7.6</ele>
        <time>2020-06-05T12:15:11Z</time>
      </trkpt>
      <trkpt lat="47.23706" lon="-2.17133">
        <ele>7.6</ele>
        <time>2020-06-05T12:15:12Z</time>
      </trkpt>
      <trkpt lat="47.23709" lon="-2.17127">
        <ele>7.6</ele>
        <time>2020-06-05T12:15:13Z</time>
      </trkpt>
      <trkpt lat="47.23714" lon="-2.17121">
        <ele>7.6</ele>
        <time>2020-06-05T12:15:14Z</time>
      </trkpt>
      <trkpt lat="47.23718" lon="-2.17114">
        <ele>7.6</ele>
        <time>2020-06-05T12:15:15Z</time>
      </trkpt>
      <trkpt lat="47.23721" lon="-2.17111">
        <ele>7.5</ele>
        <time>2020-06-05T12:15:16Z</time>
      </trkpt>
      <trkpt lat="47.23725" lon="-2.17105">
        <ele>7.5</ele>
        <time>2020-06-05T12:15:17Z</time>
      </trkpt>
      <trkpt lat="47.23729" lon="-2.17098">
        <ele>7.4</ele>
        <time>2020-06-05T12:15:18Z</time>
      </trkpt>
      <trkpt lat="47.23734" lon="-2.17092">
        <ele>7.3</ele>
        <time>2020-06-05T12:15:19Z</time>
      </trkpt>
      <trkpt lat="47.2374" lon="-2.17086">
        <ele>7.2</ele>
        <time>2020-06-05T12:15:20Z</time>
      </trkpt>
      <trkpt lat="47.23744" lon="-2.17079">
        <ele>7.1</ele>
        <time>2020-06-05T12:15:21Z</time>
      </trkpt>
      <trkpt lat="47.2375" lon="-2.17072">
        <ele>7.1</ele>
        <time>2020-06-05T12:15:22Z</time>
      </trkpt>
      <trkpt lat="47.23755" lon="-2.17066">
        <ele>7</ele>
        <time>2020-06-05T12:15:23Z</time>
      </trkpt>
      <trkpt lat="47.2376" lon="-2.1706">
        <ele>6.9</ele>
        <time>2020-06-05T12:15:24Z</time>
      </trkpt>
      <trkpt lat="47.23766" lon="-2.17054">
        <ele>6.9</ele>
        <time>2020-06-05T12:15:25Z</time>
      </trkpt>
      <trkpt lat="47.2377" lon="-2.17049">
        <ele>6.8</ele>
        <time>2020-06-05T12:15:26Z</time>
      </trkpt>
      <trkpt lat="47.23775" lon="-2.17044">
        <ele>6.7</ele>
        <time>2020-06-05T12:15:27Z</time>
      </trkpt>
      <trkpt lat="47.23778" lon="-2.17039">
        <ele>6.6</ele>
        <time>2020-06-05T12:15:28Z</time>
      </trkpt>
      <trkpt lat="47.23782" lon="-2.17035">
        <ele>6.5</ele>
        <time>2020-06-05T12:15:29Z</time>
      </trkpt>
      <trkpt lat="47.23786" lon="-2.17031">
        <ele>6.4</ele>
        <time>2020-06-05T12:15:30Z</time>
      </trkpt>
      <trkpt lat="47.2379" lon="-2.17028">
        <ele>6.3</ele>
        <time>2020-06-05T12:15:31Z</time>
      </trkpt>
      <trkpt lat="47.23795" lon="-2.17021">
        <ele>6.2</ele>
        <time>2020-06-05T12:15:32Z</time>
      </trkpt>
      <trkpt lat="47.23798" lon="-2.17017">
        <ele>6</ele>
        <time>2020-06-05T12:15:33Z</time>
      </trkpt>
      <trkpt lat="47.238" lon="-2.17013">
        <ele>6</ele>
        <time>2020-06-05T12:15:34Z</time>
      </trkpt>
      <trkpt lat="47.23805" lon="-2.17007">
        <ele>5.8</ele>
        <time>2020-06-05T12:15:35Z</time>
      </trkpt>
      <trkpt lat="47.2381" lon="-2.17003">
        <ele>5.6</ele>
        <time>2020-06-05T12:15:36Z</time>
      </trkpt>
      <trkpt lat="47.23814" lon="-2.16998">
        <ele>5.4</ele>
        <time>2020-06-05T12:15:37Z</time>
      </trkpt>
      <trkpt lat="47.23818" lon="-2.16993">
        <ele>5.3</ele>
        <time>2020-06-05T12:15:38Z</time>
      </trkpt>
      <trkpt lat="47.23822" lon="-2.16988">
        <ele>5.2</ele>
        <time>2020-06-05T12:15:39Z</time>
      </trkpt>
      <trkpt lat="47.23827" lon="-2.16983">
        <ele>5.1</ele>
        <time>2020-06-05T12:15:40Z</time>
      </trkpt>
      <trkpt lat="47.23831" lon="-2.16977">
        <ele>5</ele>
        <time>2020-06-05T12:15:41Z</time>
      </trkpt>
      <trkpt lat="47.23834" lon="-2.16973">
        <ele>4.9</ele>
        <time>2020-06-05T12:15:42Z</time>
      </trkpt>
      <trkpt lat="47.23838" lon="-2.16968">
        <ele>4.8</ele>
        <time>2020-06-05T12:15:43Z</time>
      </trkpt>
      <trkpt lat="47.23842" lon="-2.16962">
        <ele>4.6</ele>
        <time>2020-06-05T12:15:44Z</time>
      </trkpt>
      <trkpt lat="47.23845" lon="-2.16955">
        <ele>4.5</ele>
        <time>2020-06-05T12:15:45Z</time>
      </trkpt>
      <trkpt lat="47.23849" lon="-2.16947">
        <ele>4.3</ele>
        <time>2020-06-05T12:15:46Z</time>
      </trkpt>
      <trkpt lat="47.23852" lon="-2.16939">
        <ele>4.3</ele>
        <time>2020-06-05T12:15:47Z</time>
      </trkpt>
      <trkpt lat="47.23855" lon="-2.16932">
        <ele>4.3</ele>
        <time>2020-06-05T12:15:48Z</time>
      </trkpt>
      <trkpt lat="47.23857" lon="-2.16925">
        <ele>4.3</ele>
        <time>2020-06-05T12:15:49Z</time>
      </trkpt>
      <trkpt lat="47.23858" lon="-2.16917">
        <ele>4.3</ele>
        <time>2020-06-05T12:15:50Z</time>
      </trkpt>
      <trkpt lat="47.23857" lon="-2.16908">
        <ele>4.2</ele>
        <time>2020-06-05T12:15:51Z</time>
      </trkpt>
      <trkpt lat="47.23857" lon="-2.16899">
        <ele>4.2</ele>
        <time>2020-06-05T12:15:52Z</time>
      </trkpt>
      <trkpt lat="47.23859" lon="-2.16891">
        <ele>4.2</ele>
        <time>2020-06-05T12:15:53Z</time>
      </trkpt>
      <trkpt lat="47.23862" lon="-2.16884">
        <ele>4.2</ele>
        <time>2020-06-05T12:15:54Z</time>
      </trkpt>
      <trkpt lat="47.23867" lon="-2.16881">
        <ele>4.3</ele>
        <time>2020-06-05T12:15:55Z</time>
      </trkpt>
      <trkpt lat="47.23872" lon="-2.16876">
        <ele>4.4</ele>
        <time>2020-06-05T12:15:56Z</time>
      </trkpt>
      <trkpt lat="47.23876" lon="-2.16871">
        <ele>4.4</ele>
        <time>2020-06-05T12:15:57Z</time>
      </trkpt>
      <trkpt lat="47.23881" lon="-2.16866">
        <ele>4.3</ele>
        <time>2020-06-05T12:15:58Z</time>
      </trkpt>
      <trkpt lat="47.23884" lon="-2.1686">
        <ele>4.3</ele>
        <time>2020-06-05T12:15:59Z</time>
      </trkpt>
      <trkpt lat="47.23888" lon="-2.16855">
        <ele>4.2</ele>
        <time>2020-06-05T12:16:00Z</time>
      </trkpt>
      <trkpt lat="47.23891" lon="-2.1685">
        <ele>4.2</ele>
        <time>2020-06-05T12:16:01Z</time>
      </trkpt>
      <trkpt lat="47.23895" lon="-2.16845">
        <ele>4.2</ele>
        <time>2020-06-05T12:16:02Z</time>
      </trkpt>
      <trkpt lat="47.23899" lon="-2.1684">
        <ele>4.1</ele>
        <time>2020-06-05T12:16:03Z</time>
      </trkpt>
      <trkpt lat="47.23903" lon="-2.16835">
        <ele>4.1</ele>
        <time>2020-06-05T12:16:04Z</time>
      </trkpt>
      <trkpt lat="47.23907" lon="-2.16831">
        <ele>4.1</ele>
        <time>2020-06-05T12:16:05Z</time>
      </trkpt>
      <trkpt lat="47.23912" lon="-2.16824">
        <ele>4.1</ele>
        <time>2020-06-05T12:16:06Z</time>
      </trkpt>
      <trkpt lat="47.23916" lon="-2.16819">
        <ele>4.1</ele>
        <time>2020-06-05T12:16:07Z</time>
      </trkpt>
      <trkpt lat="47.2392" lon="-2.16814">
        <ele>4.2</ele>
        <time>2020-06-05T12:16:08Z</time>
      </trkpt>
      <trkpt lat="47.23924" lon="-2.16809">
        <ele>4.3</ele>
        <time>2020-06-05T12:16:09Z</time>
      </trkpt>
      <trkpt lat="47.23929" lon="-2.16805">
        <ele>4.3</ele>
        <time>2020-06-05T12:16:10Z</time>
      </trkpt>
      <trkpt lat="47.23933" lon="-2.16801">
        <ele>4.4</ele>
        <time>2020-06-05T12:16:11Z</time>
      </trkpt>
      <trkpt lat="47.23938" lon="-2.16797">
        <ele>4.4</ele>
        <time>2020-06-05T12:16:12Z</time>
      </trkpt>
      <trkpt lat="47.23942" lon="-2.16793">
        <ele>4.5</ele>
        <time>2020-06-05T12:16:13Z</time>
      </trkpt>
      <trkpt lat="47.23946" lon="-2.16788">
        <ele>4.5</ele>
        <time>2020-06-05T12:16:14Z</time>
      </trkpt>
      <trkpt lat="47.23951" lon="-2.16782">
        <ele>4.6</ele>
        <time>2020-06-05T12:16:15Z</time>
      </trkpt>
      <trkpt lat="47.23955" lon="-2.16777">
        <ele>4.6</ele>
        <time>2020-06-05T12:16:16Z</time>
      </trkpt>
      <trkpt lat="47.23959" lon="-2.16771">
        <ele>4.7</ele>
        <time>2020-06-05T12:16:17Z</time>
      </trkpt>
      <trkpt lat="47.23962" lon="-2.16768">
        <ele>4.6</ele>
        <time>2020-06-05T12:16:18Z</time>
      </trkpt>
      <trkpt lat="47.23968" lon="-2.16762">
        <ele>4.6</ele>
        <time>2020-06-05T12:16:19Z</time>
      </trkpt>
      <trkpt lat="47.23973" lon="-2.16756">
        <ele>4.6</ele>
        <time>2020-06-05T12:16:20Z</time>
      </trkpt>
      <trkpt lat="47.23977" lon="-2.1675">
        <ele>4.6</ele>
        <time>2020-06-05T12:16:21Z</time>
      </trkpt>
      <trkpt lat="47.23981" lon="-2.16745">
        <ele>4.7</ele>
        <time>2020-06-05T12:16:22Z</time>
      </trkpt>
      <trkpt lat="47.23986" lon="-2.16739">
        <ele>4.7</ele>
        <time>2020-06-05T12:16:23Z</time>
      </trkpt>
      <trkpt lat="47.23989" lon="-2.16735">
        <ele>4.7</ele>
        <time>2020-06-05T12:16:24Z</time>
      </trkpt>
      <trkpt lat="47.23993" lon="-2.1673">
        <ele>4.8</ele>
        <time>2020-06-05T12:16:25Z</time>
      </trkpt>
      <trkpt lat="47.23996" lon="-2.16725">
        <ele>4.8</ele>
        <time>2020-06-05T12:16:26Z</time>
      </trkpt>
      <trkpt lat="47.24" lon="-2.16721">
        <ele>4.8</ele>
        <time>2020-06-05T12:16:27Z</time>
      </trkpt>
      <trkpt lat="47.24003" lon="-2.16716">
        <ele>4.8</ele>
        <time>2020-06-05T12:16:28Z</time>
      </trkpt>
      <trkpt lat="47.24006" lon="-2.16711">
        <ele>4.8</ele>
        <time>2020-06-05T12:16:29Z</time>
      </trkpt>
      <trkpt lat="47.24012" lon="-2.16705">
        <ele>4.8</ele>
        <time>2020-06-05T12:16:30Z</time>
      </trkpt>
      <trkpt lat="47.24017" lon="-2.16699">
        <ele>4.9</ele>
        <time>2020-06-05T12:16:31Z</time>
      </trkpt>
      <trkpt lat="47.24022" lon="-2.16693">
        <ele>4.9</ele>
        <time>2020-06-05T12:16:32Z</time>
      </trkpt>
      <trkpt lat="47.24026" lon="-2.16688">
        <ele>4.9</ele>
        <time>2020-06-05T12:16:33Z</time>
      </trkpt>
      <trkpt lat="47.24031" lon="-2.16681">
        <ele>5</ele>
        <time>2020-06-05T12:16:34Z</time>
      </trkpt>
      <trkpt lat="47.24035" lon="-2.16676">
        <ele>5</ele>
        <time>2020-06-05T12:16:35Z</time>
      </trkpt>
      <trkpt lat="47.24041" lon="-2.1667">
        <ele>5</ele>
        <time>2020-06-05T12:16:36Z</time>
      </trkpt>
      <trkpt lat="47.24046" lon="-2.16663">
        <ele>5</ele>
        <time>2020-06-05T12:16:37Z</time>
      </trkpt>
      <trkpt lat="47.2405" lon="-2.16659">
        <ele>5</ele>
        <time>2020-06-05T12:16:38Z</time>
      </trkpt>
      <trkpt lat="47.24055" lon="-2.16655">
        <ele>5.1</ele>
        <time>2020-06-05T12:16:39Z</time>
      </trkpt>
      <trkpt lat="47.2406" lon="-2.16651">
        <ele>5.1</ele>
        <time>2020-06-05T12:16:40Z</time>
      </trkpt>
      <trkpt lat="47.24065" lon="-2.16645">
        <ele>5.2</ele>
        <time>2020-06-05T12:16:41Z</time>
      </trkpt>
      <trkpt lat="47.24071" lon="-2.16637">
        <ele>5.3</ele>
        <time>2020-06-05T12:16:42Z</time>
      </trkpt>
      <trkpt lat="47.24075" lon="-2.16631">
        <ele>5.3</ele>
        <time>2020-06-05T12:16:43Z</time>
      </trkpt>
      <trkpt lat="47.24079" lon="-2.16626">
        <ele>5.2</ele>
        <time>2020-06-05T12:16:44Z</time>
      </trkpt>
      <trkpt lat="47.24085" lon="-2.16617">
        <ele>5.2</ele>
        <time>2020-06-05T12:16:45Z</time>
      </trkpt>
      <trkpt lat="47.2409" lon="-2.16612">
        <ele>5.1</ele>
        <time>2020-06-05T12:16:46Z</time>
      </trkpt>
      <trkpt lat="47.24096" lon="-2.16605">
        <ele>5.1</ele>
        <time>2020-06-05T12:16:47Z</time>
      </trkpt>
      <trkpt lat="47.24102" lon="-2.16597">
        <ele>5</ele>
        <time>2020-06-05T12:16:48Z</time>
      </trkpt>
      <trkpt lat="47.24107" lon="-2.16591">
        <ele>5</ele>
        <time>2020-06-05T12:16:49Z</time>
      </trkpt>
      <trkpt lat="47.24112" lon="-2.16585">
        <ele>5</ele>
        <time>2020-06-05T12:16:50Z</time>
      </trkpt>
      <trkpt lat="47.24118" lon="-2.16579">
        <ele>5.1</ele>
        <time>2020-06-05T12:16:51Z</time>
      </trkpt>
      <trkpt lat="47.24123" lon="-2.16573">
        <ele>5.2</ele>
        <time>2020-06-05T12:16:52Z</time>
      </trkpt>
      <trkpt lat="47.24129" lon="-2.16566">
        <ele>5.3</ele>
        <time>2020-06-05T12:16:53Z</time>
      </trkpt>
      <trkpt lat="47.24134" lon="-2.1656">
        <ele>5.3</ele>
        <time>2020-06-05T12:16:54Z</time>
      </trkpt>
      <trkpt lat="47.24141" lon="-2.16553">
        <ele>5.4</ele>
        <time>2020-06-05T12:16:55Z</time>
      </trkpt>
      <trkpt lat="47.24146" lon="-2.16548">
        <ele>5.4</ele>
        <time>2020-06-05T12:16:56Z</time>
      </trkpt>
      <trkpt lat="47.24153" lon="-2.16541">
        <ele>5.4</ele>
        <time>2020-06-05T12:16:57Z</time>
      </trkpt>
      <trkpt lat="47.24158" lon="-2.16535">
        <ele>5.4</ele>
        <time>2020-06-05T12:16:58Z</time>
      </trkpt>
      <trkpt lat="47.24164" lon="-2.16529">
        <ele>5.4</ele>
        <time>2020-06-05T12:16:59Z</time>
      </trkpt>
      <trkpt lat="47.24169" lon="-2.16522">
        <ele>5.5</ele>
        <time>2020-06-05T12:17:00Z</time>
      </trkpt>
      <trkpt lat="47.24174" lon="-2.16516">
        <ele>5.5</ele>
        <time>2020-06-05T12:17:01Z</time>
      </trkpt>
      <trkpt lat="47.24179" lon="-2.16511">
        <ele>5.5</ele>
        <time>2020-06-05T12:17:02Z</time>
      </trkpt>
      <trkpt lat="47.24185" lon="-2.16506">
        <ele>5.5</ele>
        <time>2020-06-05T12:17:03Z</time>
      </trkpt>
      <trkpt lat="47.2419" lon="-2.16501">
        <ele>5.5</ele>
        <time>2020-06-05T12:17:04Z</time>
      </trkpt>
      <trkpt lat="47.24194" lon="-2.16494">
        <ele>5.5</ele>
        <time>2020-06-05T12:17:05Z</time>
      </trkpt>
      <trkpt lat="47.24199" lon="-2.16487">
        <ele>5.5</ele>
        <time>2020-06-05T12:17:06Z</time>
      </trkpt>
      <trkpt lat="47.24202" lon="-2.16484">
        <ele>5.5</ele>
        <time>2020-06-05T12:17:07Z</time>
      </trkpt>
      <trkpt lat="47.24207" lon="-2.16478">
        <ele>5.5</ele>
        <time>2020-06-05T12:17:08Z</time>
      </trkpt>
      <trkpt lat="47.24212" lon="-2.16473">
        <ele>5.5</ele>
        <time>2020-06-05T12:17:09Z</time>
      </trkpt>
      <trkpt lat="47.24216" lon="-2.16468">
        <ele>5.5</ele>
        <time>2020-06-05T12:17:10Z</time>
      </trkpt>
      <trkpt lat="47.24221" lon="-2.16462">
        <ele>5.5</ele>
        <time>2020-06-05T12:17:11Z</time>
      </trkpt>
      <trkpt lat="47.24226" lon="-2.16457">
        <ele>5.5</ele>
        <time>2020-06-05T12:17:12Z</time>
      </trkpt>
      <trkpt lat="47.24231" lon="-2.16451">
        <ele>5.6</ele>
        <time>2020-06-05T12:17:13Z</time>
      </trkpt>
      <trkpt lat="47.24235" lon="-2.16445">
        <ele>5.6</ele>
        <time>2020-06-05T12:17:14Z</time>
      </trkpt>
      <trkpt lat="47.2424" lon="-2.16438">
        <ele>5.6</ele>
        <time>2020-06-05T12:17:15Z</time>
      </trkpt>
      <trkpt lat="47.24245" lon="-2.16433">
        <ele>5.6</ele>
        <time>2020-06-05T12:17:16Z</time>
      </trkpt>
      <trkpt lat="47.24249" lon="-2.16427">
        <ele>5.7</ele>
        <time>2020-06-05T12:17:17Z</time>
      </trkpt>
      <trkpt lat="47.24253" lon="-2.16422">
        <ele>5.7</ele>
        <time>2020-06-05T12:17:18Z</time>
      </trkpt>
      <trkpt lat="47.24257" lon="-2.16417">
        <ele>5.7</ele>
        <time>2020-06-05T12:17:19Z</time>
      </trkpt>
      <trkpt lat="47.24261" lon="-2.16414">
        <ele>5.7</ele>
        <time>2020-06-05T12:17:20Z</time>
      </trkpt>
      <trkpt lat="47.24266" lon="-2.16408">
        <ele>5.7</ele>
        <time>2020-06-05T12:17:21Z</time>
      </trkpt>
      <trkpt lat="47.24271" lon="-2.16403">
        <ele>5.8</ele>
        <time>2020-06-05T12:17:22Z</time>
      </trkpt>
      <trkpt lat="47.24277" lon="-2.16395">
        <ele>5.8</ele>
        <time>2020-06-05T12:17:23Z</time>
      </trkpt>
      <trkpt lat="47.24283" lon="-2.16388">
        <ele>5.8</ele>
        <time>2020-06-05T12:17:24Z</time>
      </trkpt>
      <trkpt lat="47.24287" lon="-2.16382">
        <ele>5.8</ele>
        <time>2020-06-05T12:17:25Z</time>
      </trkpt>
      <trkpt lat="47.24291" lon="-2.16377">
        <ele>5.8</ele>
        <time>2020-06-05T12:17:26Z</time>
      </trkpt>
      <trkpt lat="47.24295" lon="-2.16372">
        <ele>5.8</ele>
        <time>2020-06-05T12:17:27Z</time>
      </trkpt>
      <trkpt lat="47.24299" lon="-2.16367">
        <ele>5.9</ele>
        <time>2020-06-05T12:17:28Z</time>
      </trkpt>
      <trkpt lat="47.24302" lon="-2.16363">
        <ele>5.9</ele>
        <time>2020-06-05T12:17:29Z</time>
      </trkpt>
      <trkpt lat="47.24306" lon="-2.16357">
        <ele>5.9</ele>
        <time>2020-06-05T12:17:30Z</time>
      </trkpt>
      <trkpt lat="47.2431" lon="-2.16352">
        <ele>5.9</ele>
        <time>2020-06-05T12:17:31Z</time>
      </trkpt>
      <trkpt lat="47.24315" lon="-2.16347">
        <ele>6</ele>
        <time>2020-06-05T12:17:32Z</time>
      </trkpt>
      <trkpt lat="47.24319" lon="-2.16341">
        <ele>6</ele>
        <time>2020-06-05T12:17:33Z</time>
      </trkpt>
      <trkpt lat="47.24323" lon="-2.16336">
        <ele>6.1</ele>
        <time>2020-06-05T12:17:34Z</time>
      </trkpt>
      <trkpt lat="47.24328" lon="-2.16332">
        <ele>6.1</ele>
        <time>2020-06-05T12:17:35Z</time>
      </trkpt>
      <trkpt lat="47.24332" lon="-2.16327">
        <ele>6.1</ele>
        <time>2020-06-05T12:17:36Z</time>
      </trkpt>
      <trkpt lat="47.24336" lon="-2.16321">
        <ele>6.2</ele>
        <time>2020-06-05T12:17:37Z</time>
      </trkpt>
      <trkpt lat="47.24341" lon="-2.16316">
        <ele>6.2</ele>
        <time>2020-06-05T12:17:38Z</time>
      </trkpt>
      <trkpt lat="47.24345" lon="-2.16312">
        <ele>6.3</ele>
        <time>2020-06-05T12:17:39Z</time>
      </trkpt>
      <trkpt lat="47.24349" lon="-2.16308">
        <ele>6.3</ele>
        <time>2020-06-05T12:17:40Z</time>
      </trkpt>
      <trkpt lat="47.24353" lon="-2.16306">
        <ele>6.2</ele>
        <time>2020-06-05T12:17:41Z</time>
      </trkpt>
      <trkpt lat="47.24358" lon="-2.16302">
        <ele>6.2</ele>
        <time>2020-06-05T12:17:42Z</time>
      </trkpt>
      <trkpt lat="47.24362" lon="-2.16299">
        <ele>6.2</ele>
        <time>2020-06-05T12:17:43Z</time>
      </trkpt>
      <trkpt lat="47.24366" lon="-2.16295">
        <ele>6.2</ele>
        <time>2020-06-05T12:17:44Z</time>
      </trkpt>
      <trkpt lat="47.2437" lon="-2.16292">
        <ele>6.3</ele>
        <time>2020-06-05T12:17:45Z</time>
      </trkpt>
      <trkpt lat="47.24374" lon="-2.16288">
        <ele>6.3</ele>
        <time>2020-06-05T12:17:46Z</time>
      </trkpt>
      <trkpt lat="47.24379" lon="-2.16284">
        <ele>6.3</ele>
        <time>2020-06-05T12:17:47Z</time>
      </trkpt>
      <trkpt lat="47.24382" lon="-2.16279">
        <ele>6.4</ele>
        <time>2020-06-05T12:17:48Z</time>
      </trkpt>
      <trkpt lat="47.24386" lon="-2.16275">
        <ele>6.4</ele>
        <time>2020-06-05T12:17:49Z</time>
      </trkpt>
      <trkpt lat="47.24389" lon="-2.16269">
        <ele>6.5</ele>
        <time>2020-06-05T12:17:50Z</time>
      </trkpt>
      <trkpt lat="47.24392" lon="-2.16264">
        <ele>6.5</ele>
        <time>2020-06-05T12:17:51Z</time>
      </trkpt>
      <trkpt lat="47.24395" lon="-2.16261">
        <ele>6.6</ele>
        <time>2020-06-05T12:17:52Z</time>
      </trkpt>
      <trkpt lat="47.244" lon="-2.16258">
        <ele>6.6</ele>
        <time>2020-06-05T12:17:53Z</time>
      </trkpt>
      <trkpt lat="47.24405" lon="-2.16257">
        <ele>6.7</ele>
        <time>2020-06-05T12:17:54Z</time>
      </trkpt>
      <trkpt lat="47.24411" lon="-2.16255">
        <ele>6.8</ele>
        <time>2020-06-05T12:17:55Z</time>
      </trkpt>
      <trkpt lat="47.24417" lon="-2.16252">
        <ele>7</ele>
        <time>2020-06-05T12:17:56Z</time>
      </trkpt>
      <trkpt lat="47.24422" lon="-2.16248">
        <ele>7.1</ele>
        <time>2020-06-05T12:17:57Z</time>
      </trkpt>
      <trkpt lat="47.24426" lon="-2.16244">
        <ele>7.2</ele>
        <time>2020-06-05T12:17:58Z</time>
      </trkpt>
      <trkpt lat="47.2443" lon="-2.16241">
        <ele>7.2</ele>
        <time>2020-06-05T12:17:59Z</time>
      </trkpt>
      <trkpt lat="47.24433" lon="-2.16238">
        <ele>7.3</ele>
        <time>2020-06-05T12:18:00Z</time>
      </trkpt>
      <trkpt lat="47.24436" lon="-2.16236">
        <ele>7.4</ele>
        <time>2020-06-05T12:18:01Z</time>
      </trkpt>
      <trkpt lat="47.24438" lon="-2.16231">
        <ele>7.5</ele>
        <time>2020-06-05T12:18:02Z</time>
      </trkpt>
      <trkpt lat="47.24441" lon="-2.16227">
        <ele>7.6</ele>
        <time>2020-06-05T12:18:03Z</time>
      </trkpt>
      <trkpt lat="47.24443" lon="-2.16225">
        <ele>7.7</ele>
        <time>2020-06-05T12:18:04Z</time>
      </trkpt>
      <trkpt lat="47.24447" lon="-2.16224">
        <ele>7.9</ele>
        <time>2020-06-05T12:18:05Z</time>
      </trkpt>
      <trkpt lat="47.24448" lon="-2.16223">
        <ele>7.9</ele>
        <time>2020-06-05T12:18:06Z</time>
      </trkpt>
      <trkpt lat="47.24448" lon="-2.16221">
        <ele>8</ele>
        <time>2020-06-05T12:18:07Z</time>
      </trkpt>
      <trkpt lat="47.24449" lon="-2.1622">
        <ele>8</ele>
        <time>2020-06-05T12:18:08Z</time>
      </trkpt>
      <trkpt lat="47.2445" lon="-2.16219">
        <ele>8.1</ele>
        <time>2020-06-05T12:18:09Z</time>
      </trkpt>
      <trkpt lat="47.2445" lon="-2.16218">
        <ele>8.1</ele>
        <time>2020-06-05T12:18:10Z</time>
      </trkpt>
      <trkpt lat="47.24451" lon="-2.16218">
        <ele>8.1</ele>
        <time>2020-06-05T12:18:11Z</time>
      </trkpt>
      <trkpt lat="47.24451" lon="-2.16217">
        <ele>8.1</ele>
        <time>2020-06-05T12:18:12Z</time>
      </trkpt>
      <trkpt lat="47.24451" lon="-2.16217">
        <ele>8.1</ele>
        <time>2020-06-05T12:18:13Z</time>
      </trkpt>
      <trkpt lat="47.24451" lon="-2.16217">
        <ele>8.1</ele>
        <time>2020-06-05T12:18:14Z</time>
      </trkpt>
      <trkpt lat="47.24451" lon="-2.16216">
        <ele>8.1</ele>
        <time>2020-06-05T12:18:15Z</time>
      </trkpt>
      <trkpt lat="47.24451" lon="-2.16216">
        <ele>8.1</ele>
        <time>2020-06-05T12:18:16Z</time>
      </trkpt>
      <trkpt lat="47.24452" lon="-2.16215">
        <ele>8.1</ele>
        <time>2020-06-05T12:18:17Z</time>
      </trkpt>
      <trkpt lat="47.24452" lon="-2.16215">
        <ele>8.1</ele>
        <time>2020-06-05T12:18:18Z</time>
      </trkpt>
      <trkpt lat="47.24452" lon="-2.16214">
        <ele>8.1</ele>
        <time>2020-06-05T12:18:19Z</time>
      </trkpt>
      <trkpt lat="47.24452" lon="-2.16214">
        <ele>8.1</ele>
        <time>2020-06-05T12:18:20Z</time>
      </trkpt>
      <trkpt lat="47.24452" lon="-2.16214">
        <ele>8.1</ele>
        <time>2020-06-05T12:18:21Z</time>
      </trkpt>
      <trkpt lat="47.24456" lon="-2.16212">
        <ele>8.2</ele>
        <time>2020-06-05T12:18:22Z</time>
      </trkpt>
      <trkpt lat="47.24457" lon="-2.16211">
        <ele>8.2</ele>
        <time>2020-06-05T12:18:23Z</time>
      </trkpt>
      <trkpt lat="47.24461" lon="-2.16209">
        <ele>8.3</ele>
        <time>2020-06-05T12:18:24Z</time>
      </trkpt>
      <trkpt lat="47.24464" lon="-2.16209">
        <ele>8.3</ele>
        <time>2020-06-05T12:18:25Z</time>
      </trkpt>
      <trkpt lat="47.24468" lon="-2.1621">
        <ele>8.4</ele>
        <time>2020-06-05T12:18:26Z</time>
      </trkpt>
      <trkpt lat="47.24472" lon="-2.16211">
        <ele>8.4</ele>
        <time>2020-06-05T12:18:27Z</time>
      </trkpt>
      <trkpt lat="47.24475" lon="-2.16211">
        <ele>8.5</ele>
        <time>2020-06-05T12:18:28Z</time>
      </trkpt>
      <trkpt lat="47.24478" lon="-2.16208">
        <ele>8.5</ele>
        <time>2020-06-05T12:18:29Z</time>
      </trkpt>
      <trkpt lat="47.24482" lon="-2.16207">
        <ele>8.5</ele>
        <time>2020-06-05T12:18:30Z</time>
      </trkpt>
      <trkpt lat="47.24485" lon="-2.16204">
        <ele>8.5</ele>
        <time>2020-06-05T12:18:31Z</time>
      </trkpt>
      <trkpt lat="47.24488" lon="-2.162">
        <ele>8.4</ele>
        <time>2020-06-05T12:18:32Z</time>
      </trkpt>
      <trkpt lat="47.24491" lon="-2.16198">
        <ele>8.4</ele>
        <time>2020-06-05T12:18:33Z</time>
      </trkpt>
      <trkpt lat="47.24494" lon="-2.16197">
        <ele>8.4</ele>
        <time>2020-06-05T12:18:34Z</time>
      </trkpt>
      <trkpt lat="47.24498" lon="-2.16196">
        <ele>8.2</ele>
        <time>2020-06-05T12:18:35Z</time>
      </trkpt>
      <trkpt lat="47.24502" lon="-2.16196">
        <ele>8.1</ele>
        <time>2020-06-05T12:18:36Z</time>
      </trkpt>
      <trkpt lat="47.24506" lon="-2.16195">
        <ele>7.9</ele>
        <time>2020-06-05T12:18:37Z</time>
      </trkpt>
      <trkpt lat="47.2451" lon="-2.16194">
        <ele>7.7</ele>
        <time>2020-06-05T12:18:38Z</time>
      </trkpt>
      <trkpt lat="47.24514" lon="-2.1619">
        <ele>7.5</ele>
        <time>2020-06-05T12:18:39Z</time>
      </trkpt>
      <trkpt lat="47.24518" lon="-2.16186">
        <ele>7.2</ele>
        <time>2020-06-05T12:18:40Z</time>
      </trkpt>
      <trkpt lat="47.24521" lon="-2.16181">
        <ele>7</ele>
        <time>2020-06-05T12:18:41Z</time>
      </trkpt>
      <trkpt lat="47.24523" lon="-2.16174">
        <ele>6.8</ele>
        <time>2020-06-05T12:18:42Z</time>
      </trkpt>
      <trkpt lat="47.24524" lon="-2.16166">
        <ele>6.5</ele>
        <time>2020-06-05T12:18:43Z</time>
      </trkpt>
      <trkpt lat="47.24524" lon="-2.16156">
        <ele>6.2</ele>
        <time>2020-06-05T12:18:44Z</time>
      </trkpt>
      <trkpt lat="47.24524" lon="-2.16148">
        <ele>6.1</ele>
        <time>2020-06-05T12:18:45Z</time>
      </trkpt>
      <trkpt lat="47.24523" lon="-2.16138">
        <ele>6</ele>
        <time>2020-06-05T12:18:46Z</time>
      </trkpt>
      <trkpt lat="47.24522" lon="-2.16128">
        <ele>5.9</ele>
        <time>2020-06-05T12:18:47Z</time>
      </trkpt>
      <trkpt lat="47.2452" lon="-2.16117">
        <ele>5.7</ele>
        <time>2020-06-05T12:18:48Z</time>
      </trkpt>
      <trkpt lat="47.24519" lon="-2.16106">
        <ele>5.6</ele>
        <time>2020-06-05T12:18:49Z</time>
      </trkpt>
      <trkpt lat="47.24517" lon="-2.16094">
        <ele>5.4</ele>
        <time>2020-06-05T12:18:50Z</time>
      </trkpt>
      <trkpt lat="47.24515" lon="-2.16084">
        <ele>5.3</ele>
        <time>2020-06-05T12:18:51Z</time>
      </trkpt>
      <trkpt lat="47.24514" lon="-2.16072">
        <ele>5.1</ele>
        <time>2020-06-05T12:18:52Z</time>
      </trkpt>
      <trkpt lat="47.24512" lon="-2.16059">
        <ele>5</ele>
        <time>2020-06-05T12:18:53Z</time>
      </trkpt>
      <trkpt lat="47.24511" lon="-2.16049">
        <ele>5</ele>
        <time>2020-06-05T12:18:54Z</time>
      </trkpt>
      <trkpt lat="47.24509" lon="-2.16036">
        <ele>5</ele>
        <time>2020-06-05T12:18:55Z</time>
      </trkpt>
      <trkpt lat="47.24508" lon="-2.16024">
        <ele>5</ele>
        <time>2020-06-05T12:18:56Z</time>
      </trkpt>
      <trkpt lat="47.24507" lon="-2.16012">
        <ele>5</ele>
        <time>2020-06-05T12:18:57Z</time>
      </trkpt>
      <trkpt lat="47.24505" lon="-2.16001">
        <ele>5</ele>
        <time>2020-06-05T12:18:58Z</time>
      </trkpt>
      <trkpt lat="47.24503" lon="-2.15989">
        <ele>5.1</ele>
        <time>2020-06-05T12:18:59Z</time>
      </trkpt>
      <trkpt lat="47.24502" lon="-2.15977">
        <ele>5.1</ele>
        <time>2020-06-05T12:19:00Z</time>
      </trkpt>
      <trkpt lat="47.24502" lon="-2.15965">
        <ele>5.2</ele>
        <time>2020-06-05T12:19:01Z</time>
      </trkpt>
      <trkpt lat="47.24501" lon="-2.15952">
        <ele>5.3</ele>
        <time>2020-06-05T12:19:02Z</time>
      </trkpt>
      <trkpt lat="47.24499" lon="-2.15939">
        <ele>5.5</ele>
        <time>2020-06-05T12:19:03Z</time>
      </trkpt>
      <trkpt lat="47.24497" lon="-2.15926">
        <ele>5.7</ele>
        <time>2020-06-05T12:19:04Z</time>
      </trkpt>
      <trkpt lat="47.24495" lon="-2.15914">
        <ele>5.9</ele>
        <time>2020-06-05T12:19:05Z</time>
      </trkpt>
      <trkpt lat="47.24494" lon="-2.15902">
        <ele>6.1</ele>
        <time>2020-06-05T12:19:06Z</time>
      </trkpt>
      <trkpt lat="47.24493" lon="-2.15889">
        <ele>6.2</ele>
        <time>2020-06-05T12:19:07Z</time>
      </trkpt>
      <trkpt lat="47.24493" lon="-2.15877">
        <ele>6.3</ele>
        <time>2020-06-05T12:19:08Z</time>
      </trkpt>
      <trkpt lat="47.24492" lon="-2.15865">
        <ele>6.5</ele>
        <time>2020-06-05T12:19:09Z</time>
      </trkpt>
      <trkpt lat="47.24492" lon="-2.15854">
        <ele>6.7</ele>
        <time>2020-06-05T12:19:10Z</time>
      </trkpt>
      <trkpt lat="47.24491" lon="-2.15844">
        <ele>6.8</ele>
        <time>2020-06-05T12:19:11Z</time>
      </trkpt>
      <trkpt lat="47.24488" lon="-2.15836">
        <ele>7</ele>
        <time>2020-06-05T12:19:12Z</time>
      </trkpt>
      <trkpt lat="47.24482" lon="-2.15829">
        <ele>7.2</ele>
        <time>2020-06-05T12:19:13Z</time>
      </trkpt>
      <trkpt lat="47.24478" lon="-2.15821">
        <ele>7.4</ele>
        <time>2020-06-05T12:19:14Z</time>
      </trkpt>
      <trkpt lat="47.24474" lon="-2.15813">
        <ele>7.5</ele>
        <time>2020-06-05T12:19:15Z</time>
      </trkpt>
      <trkpt lat="47.2447" lon="-2.15805">
        <ele>7.7</ele>
        <time>2020-06-05T12:19:16Z</time>
      </trkpt>
      <trkpt lat="47.24465" lon="-2.158">
        <ele>8</ele>
        <time>2020-06-05T12:19:17Z</time>
      </trkpt>
      <trkpt lat="47.2446" lon="-2.15796">
        <ele>8.1</ele>
        <time>2020-06-05T12:19:18Z</time>
      </trkpt>
      <trkpt lat="47.24454" lon="-2.15795">
        <ele>8.2</ele>
        <time>2020-06-05T12:19:19Z</time>
      </trkpt>
      <trkpt lat="47.24449" lon="-2.15795">
        <ele>8.2</ele>
        <time>2020-06-05T12:19:20Z</time>
      </trkpt>
      <trkpt lat="47.24444" lon="-2.15795">
        <ele>8.3</ele>
        <time>2020-06-05T12:19:21Z</time>
      </trkpt>
      <trkpt lat="47.24439" lon="-2.15795">
        <ele>8.4</ele>
        <time>2020-06-05T12:19:22Z</time>
      </trkpt>
      <trkpt lat="47.24434" lon="-2.15792">
        <ele>8.5</ele>
        <time>2020-06-05T12:19:23Z</time>
      </trkpt>
      <trkpt lat="47.2443" lon="-2.15791">
        <ele>8.6</ele>
        <time>2020-06-05T12:19:24Z</time>
      </trkpt>
      <trkpt lat="47.24425" lon="-2.1579">
        <ele>8.7</ele>
        <time>2020-06-05T12:19:25Z</time>
      </trkpt>
      <trkpt lat="47.24421" lon="-2.1579">
        <ele>8.8</ele>
        <time>2020-06-05T12:19:26Z</time>
      </trkpt>
      <trkpt lat="47.24416" lon="-2.1579">
        <ele>8.9</ele>
        <time>2020-06-05T12:19:27Z</time>
      </trkpt>
      <trkpt lat="47.24412" lon="-2.1579">
        <ele>9.1</ele>
        <time>2020-06-05T12:19:28Z</time>
      </trkpt>
      <trkpt lat="47.24408" lon="-2.15789">
        <ele>9.2</ele>
        <time>2020-06-05T12:19:29Z</time>
      </trkpt>
      <trkpt lat="47.24404" lon="-2.15789">
        <ele>9.4</ele>
        <time>2020-06-05T12:19:30Z</time>
      </trkpt>
      <trkpt lat="47.24401" lon="-2.15788">
        <ele>9.5</ele>
        <time>2020-06-05T12:19:31Z</time>
      </trkpt>
      <trkpt lat="47.24397" lon="-2.15789">
        <ele>9.6</ele>
        <time>2020-06-05T12:19:32Z</time>
      </trkpt>
      <trkpt lat="47.24393" lon="-2.15789">
        <ele>9.7</ele>
        <time>2020-06-05T12:19:33Z</time>
      </trkpt>
      <trkpt lat="47.24389" lon="-2.15789">
        <ele>9.8</ele>
        <time>2020-06-05T12:19:34Z</time>
      </trkpt>
      <trkpt lat="47.24386" lon="-2.15787">
        <ele>9.9</ele>
        <time>2020-06-05T12:19:35Z</time>
      </trkpt>
      <trkpt lat="47.24382" lon="-2.15786">
        <ele>10</ele>
        <time>2020-06-05T12:19:36Z</time>
      </trkpt>
      <trkpt lat="47.24379" lon="-2.15788">
        <ele>10.1</ele>
        <time>2020-06-05T12:19:37Z</time>
      </trkpt>
      <trkpt lat="47.24376" lon="-2.15789">
        <ele>10.2</ele>
        <time>2020-06-05T12:19:38Z</time>
      </trkpt>
      <trkpt lat="47.24372" lon="-2.15789">
        <ele>10.3</ele>
        <time>2020-06-05T12:19:39Z</time>
      </trkpt>
      <trkpt lat="47.24369" lon="-2.15787">
        <ele>10.4</ele>
        <time>2020-06-05T12:19:40Z</time>
      </trkpt>
      <trkpt lat="47.24366" lon="-2.15786">
        <ele>10.5</ele>
        <time>2020-06-05T12:19:41Z</time>
      </trkpt>
      <trkpt lat="47.24363" lon="-2.15785">
        <ele>10.5</ele>
        <time>2020-06-05T12:19:42Z</time>
      </trkpt>
      <trkpt lat="47.2436" lon="-2.15785">
        <ele>10.6</ele>
        <time>2020-06-05T12:19:43Z</time>
      </trkpt>
      <trkpt lat="47.24356" lon="-2.15784">
        <ele>10.7</ele>
        <time>2020-06-05T12:19:44Z</time>
      </trkpt>
      <trkpt lat="47.24352" lon="-2.15782">
        <ele>10.8</ele>
        <time>2020-06-05T12:19:45Z</time>
      </trkpt>
      <trkpt lat="47.24348" lon="-2.15782">
        <ele>10.9</ele>
        <time>2020-06-05T12:19:46Z</time>
      </trkpt>
      <trkpt lat="47.24345" lon="-2.1578">
        <ele>10.9</ele>
        <time>2020-06-05T12:19:47Z</time>
      </trkpt>
      <trkpt lat="47.24341" lon="-2.15779">
        <ele>11</ele>
        <time>2020-06-05T12:19:48Z</time>
      </trkpt>
      <trkpt lat="47.24337" lon="-2.15777">
        <ele>11</ele>
        <time>2020-06-05T12:19:49Z</time>
      </trkpt>
      <trkpt lat="47.24333" lon="-2.15776">
        <ele>11.1</ele>
        <time>2020-06-05T12:19:50Z</time>
      </trkpt>
      <trkpt lat="47.24329" lon="-2.15775">
        <ele>11.1</ele>
        <time>2020-06-05T12:19:51Z</time>
      </trkpt>
      <trkpt lat="47.24326" lon="-2.15772">
        <ele>11.2</ele>
        <time>2020-06-05T12:19:52Z</time>
      </trkpt>
      <trkpt lat="47.24321" lon="-2.15772">
        <ele>11.2</ele>
        <time>2020-06-05T12:19:53Z</time>
      </trkpt>
      <trkpt lat="47.24317" lon="-2.1577">
        <ele>11.3</ele>
        <time>2020-06-05T12:19:54Z</time>
      </trkpt>
      <trkpt lat="47.24313" lon="-2.15768">
        <ele>11.3</ele>
        <time>2020-06-05T12:19:55Z</time>
      </trkpt>
      <trkpt lat="47.24308" lon="-2.15767">
        <ele>11.4</ele>
        <time>2020-06-05T12:19:56Z</time>
      </trkpt>
      <trkpt lat="47.24303" lon="-2.15766">
        <ele>11.5</ele>
        <time>2020-06-05T12:19:57Z</time>
      </trkpt>
      <trkpt lat="47.24299" lon="-2.15765">
        <ele>11.5</ele>
        <time>2020-06-05T12:19:58Z</time>
      </trkpt>
      <trkpt lat="47.24294" lon="-2.15764">
        <ele>11.6</ele>
        <time>2020-06-05T12:19:59Z</time>
      </trkpt>
      <trkpt lat="47.2429" lon="-2.15762">
        <ele>11.7</ele>
        <time>2020-06-05T12:20:00Z</time>
      </trkpt>
      <trkpt lat="47.24285" lon="-2.1576">
        <ele>11.7</ele>
        <time>2020-06-05T12:20:01Z</time>
      </trkpt>
      <trkpt lat="47.24281" lon="-2.15757">
        <ele>11.8</ele>
        <time>2020-06-05T12:20:02Z</time>
      </trkpt>
      <trkpt lat="47.24276" lon="-2.15754">
        <ele>12</ele>
        <time>2020-06-05T12:20:03Z</time>
      </trkpt>
      <trkpt lat="47.24271" lon="-2.15751">
        <ele>12.2</ele>
        <time>2020-06-05T12:20:04Z</time>
      </trkpt>
      <trkpt lat="47.24267" lon="-2.15749">
        <ele>12.3</ele>
        <time>2020-06-05T12:20:05Z</time>
      </trkpt>
      <trkpt lat="47.24263" lon="-2.15747">
        <ele>12.3</ele>
        <time>2020-06-05T12:20:06Z</time>
      </trkpt>
      <trkpt lat="47.24258" lon="-2.15744">
        <ele>12.4</ele>
        <time>2020-06-05T12:20:07Z</time>
      </trkpt>
      <trkpt lat="47.24254" lon="-2.15741">
        <ele>12.5</ele>
        <time>2020-06-05T12:20:08Z</time>
      </trkpt>
      <trkpt lat="47.24249" lon="-2.15735">
        <ele>12.6</ele>
        <time>2020-06-05T12:20:09Z</time>
      </trkpt>
      <trkpt lat="47.24245" lon="-2.15728">
        <ele>12.6</ele>
        <time>2020-06-05T12:20:10Z</time>
      </trkpt>
      <trkpt lat="47.24239" lon="-2.15724">
        <ele>12.7</ele>
        <time>2020-06-05T12:20:11Z</time>
      </trkpt>
      <trkpt lat="47.24235" lon="-2.1572">
        <ele>12.7</ele>
        <time>2020-06-05T12:20:12Z</time>
      </trkpt>
      <trkpt lat="47.2423" lon="-2.15718">
        <ele>12.7</ele>
        <time>2020-06-05T12:20:13Z</time>
      </trkpt>
      <trkpt lat="47.24227" lon="-2.15718">
        <ele>12.8</ele>
        <time>2020-06-05T12:20:14Z</time>
      </trkpt>
      <trkpt lat="47.24223" lon="-2.15718">
        <ele>12.8</ele>
        <time>2020-06-05T12:20:15Z</time>
      </trkpt>
      <trkpt lat="47.24222" lon="-2.15717">
        <ele>12.8</ele>
        <time>2020-06-05T12:20:16Z</time>
      </trkpt>
      <trkpt lat="47.24219" lon="-2.15715">
        <ele>12.7</ele>
        <time>2020-06-05T12:20:17Z</time>
      </trkpt>
      <trkpt lat="47.24217" lon="-2.15711">
        <ele>12.7</ele>
        <time>2020-06-05T12:20:18Z</time>
      </trkpt>
      <trkpt lat="47.24214" lon="-2.15708">
        <ele>12.7</ele>
        <time>2020-06-05T12:20:19Z</time>
      </trkpt>
      <trkpt lat="47.24212" lon="-2.15704">
        <ele>12.6</ele>
        <time>2020-06-05T12:20:20Z</time>
      </trkpt>
      <trkpt lat="47.2421" lon="-2.15701">
        <ele>12.6</ele>
        <time>2020-06-05T12:20:21Z</time>
      </trkpt>
      <trkpt lat="47.24208" lon="-2.15697">
        <ele>12.6</ele>
        <time>2020-06-05T12:20:22Z</time>
      </trkpt>
      <trkpt lat="47.24207" lon="-2.15694">
        <ele>12.6</ele>
        <time>2020-06-05T12:20:23Z</time>
      </trkpt>
      <trkpt lat="47.24203" lon="-2.1569">
        <ele>12.6</ele>
        <time>2020-06-05T12:20:24Z</time>
      </trkpt>
      <trkpt lat="47.24202" lon="-2.15689">
        <ele>12.6</ele>
        <time>2020-06-05T12:20:25Z</time>
      </trkpt>
      <trkpt lat="47.24198" lon="-2.15686">
        <ele>12.6</ele>
        <time>2020-06-05T12:20:26Z</time>
      </trkpt>
      <trkpt lat="47.24195" lon="-2.15683">
        <ele>12.6</ele>
        <time>2020-06-05T12:20:27Z</time>
      </trkpt>
      <trkpt lat="47.24192" lon="-2.15681">
        <ele>12.6</ele>
        <time>2020-06-05T12:20:28Z</time>
      </trkpt>
      <trkpt lat="47.24189" lon="-2.15679">
        <ele>12.6</ele>
        <time>2020-06-05T12:20:29Z</time>
      </trkpt>
      <trkpt lat="47.24185" lon="-2.15677">
        <ele>12.6</ele>
        <time>2020-06-05T12:20:30Z</time>
      </trkpt>
      <trkpt lat="47.24182" lon="-2.15675">
        <ele>12.6</ele>
        <time>2020-06-05T12:20:31Z</time>
      </trkpt>
      <trkpt lat="47.24179" lon="-2.1567">
        <ele>12.7</ele>
        <time>2020-06-05T12:20:32Z</time>
      </trkpt>
      <trkpt lat="47.24175" lon="-2.15667">
        <ele>12.7</ele>
        <time>2020-06-05T12:20:33Z</time>
      </trkpt>
      <trkpt lat="47.24171" lon="-2.15665">
        <ele>12.7</ele>
        <time>2020-06-05T12:20:34Z</time>
      </trkpt>
      <trkpt lat="47.24168" lon="-2.15662">
        <ele>12.7</ele>
        <time>2020-06-05T12:20:35Z</time>
      </trkpt>
      <trkpt lat="47.24165" lon="-2.15661">
        <ele>12.7</ele>
        <time>2020-06-05T12:20:36Z</time>
      </trkpt>
      <trkpt lat="47.24161" lon="-2.15661">
        <ele>12.7</ele>
        <time>2020-06-05T12:20:37Z</time>
      </trkpt>
      <trkpt lat="47.24157" lon="-2.15658">
        <ele>12.8</ele>
        <time>2020-06-05T12:20:38Z</time>
      </trkpt>
      <trkpt lat="47.24153" lon="-2.15656">
        <ele>12.8</ele>
        <time>2020-06-05T12:20:39Z</time>
      </trkpt>
      <trkpt lat="47.2415" lon="-2.15656">
        <ele>12.8</ele>
        <time>2020-06-05T12:20:40Z</time>
      </trkpt>
      <trkpt lat="47.24146" lon="-2.15658">
        <ele>12.8</ele>
        <time>2020-06-05T12:20:41Z</time>
      </trkpt>
      <trkpt lat="47.24143" lon="-2.15662">
        <ele>12.8</ele>
        <time>2020-06-05T12:20:42Z</time>
      </trkpt>
      <trkpt lat="47.24139" lon="-2.15663">
        <ele>12.8</ele>
        <time>2020-06-05T12:20:43Z</time>
      </trkpt>
      <trkpt lat="47.24136" lon="-2.15665">
        <ele>12.7</ele>
        <time>2020-06-05T12:20:44Z</time>
      </trkpt>
      <trkpt lat="47.24133" lon="-2.15666">
        <ele>12.7</ele>
        <time>2020-06-05T12:20:45Z</time>
      </trkpt>
      <trkpt lat="47.2413" lon="-2.15668">
        <ele>12.7</ele>
        <time>2020-06-05T12:20:46Z</time>
      </trkpt>
      <trkpt lat="47.24127" lon="-2.15669">
        <ele>12.7</ele>
        <time>2020-06-05T12:20:47Z</time>
      </trkpt>
      <trkpt lat="47.24123" lon="-2.15668">
        <ele>12.7</ele>
        <time>2020-06-05T12:20:48Z</time>
      </trkpt>
      <trkpt lat="47.2412" lon="-2.15666">
        <ele>12.7</ele>
        <time>2020-06-05T12:20:49Z</time>
      </trkpt>
      <trkpt lat="47.24117" lon="-2.15663">
        <ele>12.7</ele>
        <time>2020-06-05T12:20:50Z</time>
      </trkpt>
      <trkpt lat="47.24113" lon="-2.1566">
        <ele>12.7</ele>
        <time>2020-06-05T12:20:51Z</time>
      </trkpt>
      <trkpt lat="47.24111" lon="-2.15657">
        <ele>12.7</ele>
        <time>2020-06-05T12:20:52Z</time>
      </trkpt>
      <trkpt lat="47.24111" lon="-2.15652">
        <ele>12.8</ele>
        <time>2020-06-05T12:20:53Z</time>
      </trkpt>
      <trkpt lat="47.24111" lon="-2.15648">
        <ele>12.8</ele>
        <time>2020-06-05T12:20:54Z</time>
      </trkpt>
      <trkpt lat="47.24109" lon="-2.15645">
        <ele>12.8</ele>
        <time>2020-06-05T12:20:55Z</time>
      </trkpt>
      <trkpt lat="47.24106" lon="-2.15641">
        <ele>12.8</ele>
        <time>2020-06-05T12:20:56Z</time>
      </trkpt>
      <trkpt lat="47.24104" lon="-2.15637">
        <ele>12.9</ele>
        <time>2020-06-05T12:20:57Z</time>
      </trkpt>
      <trkpt lat="47.24102" lon="-2.15633">
        <ele>12.9</ele>
        <time>2020-06-05T12:20:58Z</time>
      </trkpt>
      <trkpt lat="47.241" lon="-2.15629">
        <ele>12.9</ele>
        <time>2020-06-05T12:20:59Z</time>
      </trkpt>
      <trkpt lat="47.24097" lon="-2.15626">
        <ele>13</ele>
        <time>2020-06-05T12:21:00Z</time>
      </trkpt>
      <trkpt lat="47.24093" lon="-2.15624">
        <ele>13</ele>
        <time>2020-06-05T12:21:01Z</time>
      </trkpt>
      <trkpt lat="47.24089" lon="-2.1562">
        <ele>13.1</ele>
        <time>2020-06-05T12:21:02Z</time>
      </trkpt>
      <trkpt lat="47.24086" lon="-2.15617">
        <ele>13.1</ele>
        <time>2020-06-05T12:21:03Z</time>
      </trkpt>
      <trkpt lat="47.24082" lon="-2.15613">
        <ele>13.2</ele>
        <time>2020-06-05T12:21:04Z</time>
      </trkpt>
      <trkpt lat="47.24077" lon="-2.1561">
        <ele>13.3</ele>
        <time>2020-06-05T12:21:05Z</time>
      </trkpt>
      <trkpt lat="47.24073" lon="-2.15607">
        <ele>13.2</ele>
        <time>2020-06-05T12:21:06Z</time>
      </trkpt>
      <trkpt lat="47.24068" lon="-2.15604">
        <ele>13.2</ele>
        <time>2020-06-05T12:21:07Z</time>
      </trkpt>
      <trkpt lat="47.24062" lon="-2.15602">
        <ele>13.1</ele>
        <time>2020-06-05T12:21:08Z</time>
      </trkpt>
      <trkpt lat="47.24057" lon="-2.15599">
        <ele>13.1</ele>
        <time>2020-06-05T12:21:09Z</time>
      </trkpt>
      <trkpt lat="47.24052" lon="-2.15598">
        <ele>13.1</ele>
        <time>2020-06-05T12:21:10Z</time>
      </trkpt>
      <trkpt lat="47.24046" lon="-2.15599">
        <ele>13.1</ele>
        <time>2020-06-05T12:21:11Z</time>
      </trkpt>
      <trkpt lat="47.24041" lon="-2.15597">
        <ele>13</ele>
        <time>2020-06-05T12:21:12Z</time>
      </trkpt>
      <trkpt lat="47.24036" lon="-2.15596">
        <ele>13</ele>
        <time>2020-06-05T12:21:13Z</time>
      </trkpt>
      <trkpt lat="47.24031" lon="-2.15594">
        <ele>13</ele>
        <time>2020-06-05T12:21:14Z</time>
      </trkpt>
      <trkpt lat="47.24026" lon="-2.15593">
        <ele>12.9</ele>
        <time>2020-06-05T12:21:15Z</time>
      </trkpt>
      <trkpt lat="47.2402" lon="-2.15592">
        <ele>12.9</ele>
        <time>2020-06-05T12:21:16Z</time>
      </trkpt>
      <trkpt lat="47.24015" lon="-2.15591">
        <ele>12.9</ele>
        <time>2020-06-05T12:21:17Z</time>
      </trkpt>
      <trkpt lat="47.24009" lon="-2.15591">
        <ele>12.8</ele>
        <time>2020-06-05T12:21:18Z</time>
      </trkpt>
      <trkpt lat="47.24004" lon="-2.15592">
        <ele>12.7</ele>
        <time>2020-06-05T12:21:19Z</time>
      </trkpt>
      <trkpt lat="47.23999" lon="-2.15591">
        <ele>12.7</ele>
        <time>2020-06-05T12:21:20Z</time>
      </trkpt>
      <trkpt lat="47.23994" lon="-2.1559">
        <ele>12.7</ele>
        <time>2020-06-05T12:21:21Z</time>
      </trkpt>
      <trkpt lat="47.23989" lon="-2.15589">
        <ele>12.7</ele>
        <time>2020-06-05T12:21:22Z</time>
      </trkpt>
      <trkpt lat="47.23984" lon="-2.15587">
        <ele>12.7</ele>
        <time>2020-06-05T12:21:23Z</time>
      </trkpt>
      <trkpt lat="47.23979" lon="-2.15585">
        <ele>12.7</ele>
        <time>2020-06-05T12:21:24Z</time>
      </trkpt>
      <trkpt lat="47.23974" lon="-2.15582">
        <ele>12.8</ele>
        <time>2020-06-05T12:21:25Z</time>
      </trkpt>
      <trkpt lat="47.23969" lon="-2.1558">
        <ele>12.8</ele>
        <time>2020-06-05T12:21:26Z</time>
      </trkpt>
      <trkpt lat="47.23965" lon="-2.1558">
        <ele>12.9</ele>
        <time>2020-06-05T12:21:27Z</time>
      </trkpt>
      <trkpt lat="47.23963" lon="-2.15584">
        <ele>12.9</ele>
        <time>2020-06-05T12:21:28Z</time>
      </trkpt>
      <trkpt lat="47.23958" lon="-2.15586">
        <ele>12.9</ele>
        <time>2020-06-05T12:21:29Z</time>
      </trkpt>
      <trkpt lat="47.23954" lon="-2.15584">
        <ele>13</ele>
        <time>2020-06-05T12:21:30Z</time>
      </trkpt>
      <trkpt lat="47.23952" lon="-2.1558">
        <ele>13</ele>
        <time>2020-06-05T12:21:31Z</time>
      </trkpt>
      <trkpt lat="47.23949" lon="-2.15579">
        <ele>13</ele>
        <time>2020-06-05T12:21:32Z</time>
      </trkpt>
      <trkpt lat="47.23944" lon="-2.15579">
        <ele>12.9</ele>
        <time>2020-06-05T12:21:33Z</time>
      </trkpt>
      <trkpt lat="47.23939" lon="-2.15576">
        <ele>12.9</ele>
        <time>2020-06-05T12:21:34Z</time>
      </trkpt>
      <trkpt lat="47.23934" lon="-2.15575">
        <ele>13</ele>
        <time>2020-06-05T12:21:35Z</time>
      </trkpt>
      <trkpt lat="47.23929" lon="-2.15575">
        <ele>13</ele>
        <time>2020-06-05T12:21:36Z</time>
      </trkpt>
      <trkpt lat="47.23924" lon="-2.15574">
        <ele>13.1</ele>
        <time>2020-06-05T12:21:37Z</time>
      </trkpt>
      <trkpt lat="47.23918" lon="-2.15574">
        <ele>13.1</ele>
        <time>2020-06-05T12:21:38Z</time>
      </trkpt>
      <trkpt lat="47.23913" lon="-2.15573">
        <ele>13.3</ele>
        <time>2020-06-05T12:21:39Z</time>
      </trkpt>
      <trkpt lat="47.23908" lon="-2.15572">
        <ele>13.4</ele>
        <time>2020-06-05T12:21:40Z</time>
      </trkpt>
      <trkpt lat="47.23903" lon="-2.15571">
        <ele>13.5</ele>
        <time>2020-06-05T12:21:41Z</time>
      </trkpt>
      <trkpt lat="47.23898" lon="-2.1557">
        <ele>13.3</ele>
        <time>2020-06-05T12:21:42Z</time>
      </trkpt>
      <trkpt lat="47.23894" lon="-2.15571">
        <ele>13.3</ele>
        <time>2020-06-05T12:21:43Z</time>
      </trkpt>
      <trkpt lat="47.23891" lon="-2.15577">
        <ele>13.2</ele>
        <time>2020-06-05T12:21:44Z</time>
      </trkpt>
      <trkpt lat="47.23889" lon="-2.15585">
        <ele>13.1</ele>
        <time>2020-06-05T12:21:45Z</time>
      </trkpt>
      <trkpt lat="47.23887" lon="-2.15591">
        <ele>13</ele>
        <time>2020-06-05T12:21:46Z</time>
      </trkpt>
      <trkpt lat="47.23885" lon="-2.15595">
        <ele>13</ele>
        <time>2020-06-05T12:21:47Z</time>
      </trkpt>
      <trkpt lat="47.23884" lon="-2.15599">
        <ele>13</ele>
        <time>2020-06-05T12:21:48Z</time>
      </trkpt>
      <trkpt lat="47.23881" lon="-2.15604">
        <ele>13</ele>
        <time>2020-06-05T12:21:49Z</time>
      </trkpt>
      <trkpt lat="47.2388" lon="-2.15605">
        <ele>12.7</ele>
        <time>2020-06-05T12:21:50Z</time>
      </trkpt>
      <trkpt lat="47.23875" lon="-2.15606">
        <ele>12.6</ele>
        <time>2020-06-05T12:21:51Z</time>
      </trkpt>
      <trkpt lat="47.23871" lon="-2.15605">
        <ele>12.5</ele>
        <time>2020-06-05T12:21:52Z</time>
      </trkpt>
      <trkpt lat="47.23866" lon="-2.15604">
        <ele>12.4</ele>
        <time>2020-06-05T12:21:53Z</time>
      </trkpt>
      <trkpt lat="47.23862" lon="-2.15605">
        <ele>12.1</ele>
        <time>2020-06-05T12:21:54Z</time>
      </trkpt>
      <trkpt lat="47.23858" lon="-2.15607">
        <ele>12.3</ele>
        <time>2020-06-05T12:21:55Z</time>
      </trkpt>
      <trkpt lat="47.23854" lon="-2.15608">
        <ele>12.6</ele>
        <time>2020-06-05T12:21:56Z</time>
      </trkpt>
      <trkpt lat="47.23851" lon="-2.15607">
        <ele>12.8</ele>
        <time>2020-06-05T12:21:57Z</time>
      </trkpt>
      <trkpt lat="47.23849" lon="-2.15603">
        <ele>13</ele>
        <time>2020-06-05T12:21:58Z</time>
      </trkpt>
      <trkpt lat="47.23847" lon="-2.15599">
        <ele>12.9</ele>
        <time>2020-06-05T12:21:59Z</time>
      </trkpt>
      <trkpt lat="47.23844" lon="-2.15596">
        <ele>12.8</ele>
        <time>2020-06-05T12:22:00Z</time>
      </trkpt>
      <trkpt lat="47.23842" lon="-2.15594">
        <ele>12.7</ele>
        <time>2020-06-05T12:22:01Z</time>
      </trkpt>
      <trkpt lat="47.23839" lon="-2.15592">
        <ele>12.6</ele>
        <time>2020-06-05T12:22:02Z</time>
      </trkpt>
      <trkpt lat="47.23835" lon="-2.15592">
        <ele>12.4</ele>
        <time>2020-06-05T12:22:03Z</time>
      </trkpt>
      <trkpt lat="47.23832" lon="-2.15592">
        <ele>12.3</ele>
        <time>2020-06-05T12:22:04Z</time>
      </trkpt>
      <trkpt lat="47.23828" lon="-2.15593">
        <ele>12.2</ele>
        <time>2020-06-05T12:22:05Z</time>
      </trkpt>
      <trkpt lat="47.23823" lon="-2.15594">
        <ele>12.1</ele>
        <time>2020-06-05T12:22:06Z</time>
      </trkpt>
      <trkpt lat="47.23819" lon="-2.15596">
        <ele>12.1</ele>
        <time>2020-06-05T12:22:07Z</time>
      </trkpt>
      <trkpt lat="47.23815" lon="-2.15598">
        <ele>11.9</ele>
        <time>2020-06-05T12:22:08Z</time>
      </trkpt>
      <trkpt lat="47.2381" lon="-2.15599">
        <ele>11.9</ele>
        <time>2020-06-05T12:22:09Z</time>
      </trkpt>
      <trkpt lat="47.23805" lon="-2.15601">
        <ele>11.8</ele>
        <time>2020-06-05T12:22:10Z</time>
      </trkpt>
      <trkpt lat="47.238" lon="-2.15603">
        <ele>11.8</ele>
        <time>2020-06-05T12:22:11Z</time>
      </trkpt>
      <trkpt lat="47.23795" lon="-2.15604">
        <ele>11.7</ele>
        <time>2020-06-05T12:22:12Z</time>
      </trkpt>
      <trkpt lat="47.23789" lon="-2.15606">
        <ele>11.6</ele>
        <time>2020-06-05T12:22:13Z</time>
      </trkpt>
      <trkpt lat="47.23783" lon="-2.15608">
        <ele>11.6</ele>
        <time>2020-06-05T12:22:14Z</time>
      </trkpt>
      <trkpt lat="47.23777" lon="-2.1561">
        <ele>11.5</ele>
        <time>2020-06-05T12:22:15Z</time>
      </trkpt>
      <trkpt lat="47.23771" lon="-2.15611">
        <ele>11.4</ele>
        <time>2020-06-05T12:22:16Z</time>
      </trkpt>
      <trkpt lat="47.23765" lon="-2.15613">
        <ele>11.4</ele>
        <time>2020-06-05T12:22:17Z</time>
      </trkpt>
      <trkpt lat="47.2376" lon="-2.15613">
        <ele>11.4</ele>
        <time>2020-06-05T12:22:18Z</time>
      </trkpt>
      <trkpt lat="47.23754" lon="-2.15612">
        <ele>11.4</ele>
        <time>2020-06-05T12:22:19Z</time>
      </trkpt>
      <trkpt lat="47.23749" lon="-2.15611">
        <ele>11.4</ele>
        <time>2020-06-05T12:22:20Z</time>
      </trkpt>
      <trkpt lat="47.23745" lon="-2.15607">
        <ele>11.4</ele>
        <time>2020-06-05T12:22:21Z</time>
      </trkpt>
      <trkpt lat="47.23742" lon="-2.15603">
        <ele>11.4</ele>
        <time>2020-06-05T12:22:22Z</time>
      </trkpt>
      <trkpt lat="47.23738" lon="-2.15601">
        <ele>11.4</ele>
        <time>2020-06-05T12:22:23Z</time>
      </trkpt>
      <trkpt lat="47.23735" lon="-2.156">
        <ele>11.4</ele>
        <time>2020-06-05T12:22:24Z</time>
      </trkpt>
      <trkpt lat="47.23733" lon="-2.156">
        <ele>11.3</ele>
        <time>2020-06-05T12:22:25Z</time>
      </trkpt>
      <trkpt lat="47.23732" lon="-2.156">
        <ele>11.3</ele>
        <time>2020-06-05T12:22:26Z</time>
      </trkpt>
      <trkpt lat="47.23729" lon="-2.15598">
        <ele>11.3</ele>
        <time>2020-06-05T12:22:27Z</time>
      </trkpt>
      <trkpt lat="47.23728" lon="-2.15598">
        <ele>11.3</ele>
        <time>2020-06-05T12:22:28Z</time>
      </trkpt>
      <trkpt lat="47.23726" lon="-2.15594">
        <ele>11.2</ele>
        <time>2020-06-05T12:22:29Z</time>
      </trkpt>
      <trkpt lat="47.23725" lon="-2.15592">
        <ele>11.2</ele>
        <time>2020-06-05T12:22:30Z</time>
      </trkpt>
      <trkpt lat="47.23727" lon="-2.15589">
        <ele>11.2</ele>
        <time>2020-06-05T12:22:31Z</time>
      </trkpt>
      <trkpt lat="47.2373" lon="-2.15586">
        <ele>11.2</ele>
        <time>2020-06-05T12:22:32Z</time>
      </trkpt>
      <trkpt lat="47.23733" lon="-2.15584">
        <ele>11.4</ele>
        <time>2020-06-05T12:22:33Z</time>
      </trkpt>
      <trkpt lat="47.23737" lon="-2.15582">
        <ele>11.4</ele>
        <time>2020-06-05T12:22:34Z</time>
      </trkpt>
      <trkpt lat="47.2374" lon="-2.1558">
        <ele>11.5</ele>
        <time>2020-06-05T12:22:35Z</time>
      </trkpt>
      <trkpt lat="47.23742" lon="-2.15576">
        <ele>11.6</ele>
        <time>2020-06-05T12:22:36Z</time>
      </trkpt>
      <trkpt lat="47.23744" lon="-2.15571">
        <ele>11.8</ele>
        <time>2020-06-05T12:22:37Z</time>
      </trkpt>
      <trkpt lat="47.23744" lon="-2.15566">
        <ele>11.8</ele>
        <time>2020-06-05T12:22:38Z</time>
      </trkpt>
      <trkpt lat="47.23743" lon="-2.15561">
        <ele>11.9</ele>
        <time>2020-06-05T12:22:39Z</time>
      </trkpt>
      <trkpt lat="47.23743" lon="-2.15557">
        <ele>11.9</ele>
        <time>2020-06-05T12:22:40Z</time>
      </trkpt>
      <trkpt lat="47.23743" lon="-2.15553">
        <ele>12</ele>
        <time>2020-06-05T12:22:41Z</time>
      </trkpt>
      <trkpt lat="47.23744" lon="-2.15549">
        <ele>12.1</ele>
        <time>2020-06-05T12:22:42Z</time>
      </trkpt>
      <trkpt lat="47.23745" lon="-2.15544">
        <ele>12.2</ele>
        <time>2020-06-05T12:22:43Z</time>
      </trkpt>
      <trkpt lat="47.23746" lon="-2.15542">
        <ele>12.2</ele>
        <time>2020-06-05T12:22:44Z</time>
      </trkpt>
      <trkpt lat="47.23748" lon="-2.15539">
        <ele>12.3</ele>
        <time>2020-06-05T12:22:45Z</time>
      </trkpt>
      <trkpt lat="47.2375" lon="-2.15535">
        <ele>12.4</ele>
        <time>2020-06-05T12:22:46Z</time>
      </trkpt>
      <trkpt lat="47.23753" lon="-2.15532">
        <ele>12.5</ele>
        <time>2020-06-05T12:22:47Z</time>
      </trkpt>
      <trkpt lat="47.23754" lon="-2.15531">
        <ele>12.5</ele>
        <time>2020-06-05T12:22:48Z</time>
      </trkpt>
      <trkpt lat="47.23757" lon="-2.15531">
        <ele>12.5</ele>
        <time>2020-06-05T12:22:49Z</time>
      </trkpt>
      <trkpt lat="47.23758" lon="-2.15531">
        <ele>12.5</ele>
        <time>2020-06-05T12:22:50Z</time>
      </trkpt>
      <trkpt lat="47.23761" lon="-2.15531">
        <ele>12.6</ele>
        <time>2020-06-05T12:22:51Z</time>
      </trkpt>
      <trkpt lat="47.23762" lon="-2.15531">
        <ele>12.6</ele>
        <time>2020-06-05T12:22:52Z</time>
      </trkpt>
      <trkpt lat="47.23764" lon="-2.15529">
        <ele>12.7</ele>
        <time>2020-06-05T12:22:53Z</time>
      </trkpt>
      <trkpt lat="47.23765" lon="-2.15528">
        <ele>12.7</ele>
        <time>2020-06-05T12:22:54Z</time>
      </trkpt>
      <trkpt lat="47.23767" lon="-2.15529">
        <ele>12.7</ele>
        <time>2020-06-05T12:22:55Z</time>
      </trkpt>
      <trkpt lat="47.23768" lon="-2.15529">
        <ele>12.8</ele>
        <time>2020-06-05T12:22:56Z</time>
      </trkpt>
      <trkpt lat="47.23768" lon="-2.15528">
        <ele>12.8</ele>
        <time>2020-06-05T12:22:57Z</time>
      </trkpt>
      <trkpt lat="47.23768" lon="-2.15528">
        <ele>12.8</ele>
        <time>2020-06-05T12:22:58Z</time>
      </trkpt>
      <trkpt lat="47.23768" lon="-2.15528">
        <ele>12.8</ele>
        <time>2020-06-05T12:22:59Z</time>
      </trkpt>
      <trkpt lat="47.23769" lon="-2.15528">
        <ele>12.8</ele>
        <time>2020-06-05T12:23:00Z</time>
      </trkpt>
      <trkpt lat="47.23769" lon="-2.15527">
        <ele>12.7</ele>
        <time>2020-06-05T12:23:01Z</time>
      </trkpt>
      <trkpt lat="47.2377" lon="-2.15529">
        <ele>12.8</ele>
        <time>2020-06-05T12:23:02Z</time>
      </trkpt>
      <trkpt lat="47.2377" lon="-2.15529">
        <ele>12.8</ele>
        <time>2020-06-05T12:23:03Z</time>
      </trkpt>
      <trkpt lat="47.2377" lon="-2.15529">
        <ele>12.8</ele>
        <time>2020-06-05T12:23:04Z</time>
      </trkpt>
      <trkpt lat="47.2377" lon="-2.15528">
        <ele>12.8</ele>
        <time>2020-06-05T12:23:05Z</time>
      </trkpt>
      <trkpt lat="47.2377" lon="-2.15528">
        <ele>12.8</ele>
        <time>2020-06-05T12:23:06Z</time>
      </trkpt>
      <trkpt lat="47.23771" lon="-2.15528">
        <ele>12.8</ele>
        <time>2020-06-05T12:23:07Z</time>
      </trkpt>
      <trkpt lat="47.2377" lon="-2.15524">
        <ele>12.8</ele>
        <time>2020-06-05T12:24:20Z</time>
      </trkpt>
      <trkpt lat="47.23769" lon="-2.15523">
        <ele>12.8</ele>
        <time>2020-06-05T12:24:21Z</time>
      </trkpt>
      <trkpt lat="47.23769" lon="-2.15522">
        <ele>12.8</ele>
        <time>2020-06-05T12:24:22Z</time>
      </trkpt>
      <trkpt lat="47.23769" lon="-2.1552">
        <ele>12.8</ele>
        <time>2020-06-05T12:24:23Z</time>
      </trkpt>
      <trkpt lat="47.23768" lon="-2.15519">
        <ele>12.8</ele>
        <time>2020-06-05T12:24:24Z</time>
      </trkpt>
      <trkpt lat="47.23767" lon="-2.15519">
        <ele>12.7</ele>
        <time>2020-06-05T12:24:25Z</time>
      </trkpt>
      <trkpt lat="47.23765" lon="-2.1552">
        <ele>12.7</ele>
        <time>2020-06-05T12:24:26Z</time>
      </trkpt>
      <trkpt lat="47.23764" lon="-2.15519">
        <ele>12.7</ele>
        <time>2020-06-05T12:24:27Z</time>
      </trkpt>
      <trkpt lat="47.23763" lon="-2.1552">
        <ele>12.7</ele>
        <time>2020-06-05T12:24:28Z</time>
      </trkpt>
      <trkpt lat="47.23762" lon="-2.1552">
        <ele>12.7</ele>
        <time>2020-06-05T12:24:29Z</time>
      </trkpt>
      <trkpt lat="47.23762" lon="-2.1552">
        <ele>12.7</ele>
        <time>2020-06-05T12:24:30Z</time>
      </trkpt>
      <trkpt lat="47.23762" lon="-2.15519">
        <ele>12.7</ele>
        <time>2020-06-05T12:24:31Z</time>
      </trkpt>
      <trkpt lat="47.23762" lon="-2.15519">
        <ele>12.7</ele>
        <time>2020-06-05T12:24:32Z</time>
      </trkpt>
      <trkpt lat="47.23764" lon="-2.15519">
        <ele>12.7</ele>
        <time>2020-06-05T12:24:33Z</time>
      </trkpt>
      <trkpt lat="47.23763" lon="-2.15519">
        <ele>12.7</ele>
        <time>2020-06-05T12:24:34Z</time>
      </trkpt>
      <trkpt lat="47.23763" lon="-2.15519">
        <ele>12.7</ele>
        <time>2020-06-05T12:24:35Z</time>
      </trkpt>
      <trkpt lat="47.23764" lon="-2.15519">
        <ele>12.7</ele>
        <time>2020-06-05T12:24:36Z</time>
      </trkpt>
      <trkpt lat="47.23763" lon="-2.15519">
        <ele>12.7</ele>
        <time>2020-06-05T12:24:37Z</time>
      </trkpt>
      <trkpt lat="47.23763" lon="-2.15519">
        <ele>12.6</ele>
        <time>2020-06-05T12:24:38Z</time>
      </trkpt>
      <trkpt lat="47.23763" lon="-2.15518">
        <ele>12.6</ele>
        <time>2020-06-05T12:24:39Z</time>
      </trkpt>
      <trkpt lat="47.23764" lon="-2.15517">
        <ele>12.6</ele>
        <time>2020-06-05T12:24:40Z</time>
      </trkpt>
      <trkpt lat="47.23764" lon="-2.15517">
        <ele>12.7</ele>
        <time>2020-06-05T12:24:41Z</time>
      </trkpt>
      <trkpt lat="47.23765" lon="-2.15517">
        <ele>12.7</ele>
        <time>2020-06-05T12:24:42Z</time>
      </trkpt>
      <trkpt lat="47.23766" lon="-2.15516">
        <ele>12.7</ele>
        <time>2020-06-05T12:24:43Z</time>
      </trkpt>
      <trkpt lat="47.23767" lon="-2.15517">
        <ele>12.7</ele>
        <time>2020-06-05T12:24:44Z</time>
      </trkpt>
      <trkpt lat="47.23768" lon="-2.1552">
        <ele>12.7</ele>
        <time>2020-06-05T12:24:45Z</time>
      </trkpt>
      <trkpt lat="47.23768" lon="-2.15521">
        <ele>12.7</ele>
        <time>2020-06-05T12:24:46Z</time>
      </trkpt>
      <trkpt lat="47.23769" lon="-2.15522">
        <ele>12.7</ele>
        <time>2020-06-05T12:24:47Z</time>
      </trkpt>
      <trkpt lat="47.23769" lon="-2.15523">
        <ele>12.7</ele>
        <time>2020-06-05T12:24:48Z</time>
      </trkpt>
      <trkpt lat="47.2377" lon="-2.15525">
        <ele>12.7</ele>
        <time>2020-06-05T12:24:49Z</time>
      </trkpt>
      <trkpt lat="47.23771" lon="-2.15526">
        <ele>12.7</ele>
        <time>2020-06-05T12:24:50Z</time>
      </trkpt>
      <trkpt lat="47.23772" lon="-2.15526">
        <ele>12.7</ele>
        <time>2020-06-05T12:24:51Z</time>
      </trkpt>
      <trkpt lat="47.23773" lon="-2.15527">
        <ele>12.8</ele>
        <time>2020-06-05T12:24:52Z</time>
      </trkpt>
      <trkpt lat="47.23774" lon="-2.15526">
        <ele>12.7</ele>
        <time>2020-06-05T12:24:53Z</time>
      </trkpt>
      <trkpt lat="47.23775" lon="-2.15527">
        <ele>12.8</ele>
        <time>2020-06-05T12:24:54Z</time>
      </trkpt>
      <trkpt lat="47.23776" lon="-2.15526">
        <ele>12.8</ele>
        <time>2020-06-05T12:24:55Z</time>
      </trkpt>
      <trkpt lat="47.23775" lon="-2.15525">
        <ele>12.8</ele>
        <time>2020-06-05T12:24:56Z</time>
      </trkpt>
      <trkpt lat="47.23775" lon="-2.15524">
        <ele>12.8</ele>
        <time>2020-06-05T12:24:57Z</time>
      </trkpt>
      <trkpt lat="47.23775" lon="-2.15523">
        <ele>12.8</ele>
        <time>2020-06-05T12:24:58Z</time>
      </trkpt>
      <trkpt lat="47.23776" lon="-2.15522">
        <ele>12.8</ele>
        <time>2020-06-05T12:24:59Z</time>
      </trkpt>
      <trkpt lat="47.23777" lon="-2.15522">
        <ele>12.8</ele>
        <time>2020-06-05T12:25:00Z</time>
      </trkpt>
      <trkpt lat="47.23777" lon="-2.15522">
        <ele>12.8</ele>
        <time>2020-06-05T12:25:01Z</time>
      </trkpt>
      <trkpt lat="47.23777" lon="-2.15521">
        <ele>12.8</ele>
        <time>2020-06-05T12:25:02Z</time>
      </trkpt>
      <trkpt lat="47.23776" lon="-2.15521">
        <ele>12.8</ele>
        <time>2020-06-05T12:25:03Z</time>
      </trkpt>
      <trkpt lat="47.23776" lon="-2.1552">
        <ele>12.8</ele>
        <time>2020-06-05T12:25:04Z</time>
      </trkpt>
      <trkpt lat="47.23777" lon="-2.1552">
        <ele>12.8</ele>
        <time>2020-06-05T12:25:05Z</time>
      </trkpt>
      <trkpt lat="47.23777" lon="-2.15519">
        <ele>12.8</ele>
        <time>2020-06-05T12:25:06Z</time>
      </trkpt>
      <trkpt lat="47.23778" lon="-2.15519">
        <ele>12.8</ele>
        <time>2020-06-05T12:25:07Z</time>
      </trkpt>
      <trkpt lat="47.23777" lon="-2.15519">
        <ele>12.8</ele>
        <time>2020-06-05T12:25:08Z</time>
      </trkpt>
      <trkpt lat="47.23777" lon="-2.1552">
        <ele>12.8</ele>
        <time>2020-06-05T12:25:09Z</time>
      </trkpt>
      <trkpt lat="47.23776" lon="-2.15521">
        <ele>12.8</ele>
        <time>2020-06-05T12:25:10Z</time>
      </trkpt>
      <trkpt lat="47.23775" lon="-2.15522">
        <ele>12.7</ele>
        <time>2020-06-05T12:25:11Z</time>
      </trkpt>
      <trkpt lat="47.23774" lon="-2.15523">
        <ele>12.7</ele>
        <time>2020-06-05T12:25:12Z</time>
      </trkpt>
      <trkpt lat="47.23774" lon="-2.15524">
        <ele>12.7</ele>
        <time>2020-06-05T12:25:13Z</time>
      </trkpt>
      <trkpt lat="47.23773" lon="-2.15524">
        <ele>12.7</ele>
        <time>2020-06-05T12:25:14Z</time>
      </trkpt>
      <trkpt lat="47.23772" lon="-2.15525">
        <ele>12.7</ele>
        <time>2020-06-05T13:24:57Z</time>
      </trkpt>
      <trkpt lat="47.23771" lon="-2.15526">
        <ele>12.6</ele>
        <time>2020-06-05T13:24:58Z</time>
      </trkpt>
      <trkpt lat="47.23771" lon="-2.15527">
        <ele>12.6</ele>
        <time>2020-06-05T13:24:59Z</time>
      </trkpt>
      <trkpt lat="47.2377" lon="-2.15528">
        <ele>12.6</ele>
        <time>2020-06-05T13:25:00Z</time>
      </trkpt>
      <trkpt lat="47.23769" lon="-2.15528">
        <ele>12.6</ele>
        <time>2020-06-05T13:25:01Z</time>
      </trkpt>
      <trkpt lat="47.23768" lon="-2.15529">
        <ele>12.6</ele>
        <time>2020-06-05T13:25:02Z</time>
      </trkpt>
      <trkpt lat="47.23767" lon="-2.1553">
        <ele>12.5</ele>
        <time>2020-06-05T13:25:03Z</time>
      </trkpt>
      <trkpt lat="47.23767" lon="-2.15531">
        <ele>12.5</ele>
        <time>2020-06-05T13:25:04Z</time>
      </trkpt>
      <trkpt lat="47.23766" lon="-2.15532">
        <ele>12.5</ele>
        <time>2020-06-05T13:25:05Z</time>
      </trkpt>
      <trkpt lat="47.23765" lon="-2.15533">
        <ele>12.5</ele>
        <time>2020-06-05T13:25:06Z</time>
      </trkpt>
      <trkpt lat="47.23764" lon="-2.15533">
        <ele>12.5</ele>
        <time>2020-06-05T13:25:07Z</time>
      </trkpt>
      <trkpt lat="47.23764" lon="-2.15534">
        <ele>12.4</ele>
        <time>2020-06-05T13:26:53Z</time>
      </trkpt>
      <trkpt lat="47.23763" lon="-2.15535">
        <ele>12.4</ele>
        <time>2020-06-05T13:26:54Z</time>
      </trkpt>
      <trkpt lat="47.23762" lon="-2.1554">
        <ele>12.3</ele>
        <time>2020-06-05T13:26:55Z</time>
      </trkpt>
      <trkpt lat="47.23762" lon="-2.15542">
        <ele>12.3</ele>
        <time>2020-06-05T13:26:56Z</time>
      </trkpt>
      <trkpt lat="47.23762" lon="-2.15549">
        <ele>12.2</ele>
        <time>2020-06-05T13:26:57Z</time>
      </trkpt>
      <trkpt lat="47.23761" lon="-2.15554">
        <ele>12.1</ele>
        <time>2020-06-05T13:26:58Z</time>
      </trkpt>
      <trkpt lat="47.23759" lon="-2.15558">
        <ele>12</ele>
        <time>2020-06-05T13:26:59Z</time>
      </trkpt>
      <trkpt lat="47.23758" lon="-2.15564">
        <ele>11.9</ele>
        <time>2020-06-05T13:27:00Z</time>
      </trkpt>
      <trkpt lat="47.23757" lon="-2.15569">
        <ele>11.7</ele>
        <time>2020-06-05T13:27:01Z</time>
      </trkpt>
      <trkpt lat="47.23756" lon="-2.15573">
        <ele>11.6</ele>
        <time>2020-06-05T13:27:02Z</time>
      </trkpt>
      <trkpt lat="47.23756" lon="-2.15579">
        <ele>11.5</ele>
        <time>2020-06-05T13:27:03Z</time>
      </trkpt>
      <trkpt lat="47.23756" lon="-2.15585">
        <ele>11.5</ele>
        <time>2020-06-05T13:27:04Z</time>
      </trkpt>
      <trkpt lat="47.23758" lon="-2.15589">
        <ele>11.4</ele>
        <time>2020-06-05T13:27:05Z</time>
      </trkpt>
      <trkpt lat="47.23759" lon="-2.15591">
        <ele>11.3</ele>
        <time>2020-06-05T13:27:06Z</time>
      </trkpt>
      <trkpt lat="47.23762" lon="-2.15593">
        <ele>11.4</ele>
        <time>2020-06-05T13:27:07Z</time>
      </trkpt>
      <trkpt lat="47.23764" lon="-2.15593">
        <ele>11.4</ele>
        <time>2020-06-05T13:27:08Z</time>
      </trkpt>
      <trkpt lat="47.23767" lon="-2.15595">
        <ele>11.4</ele>
        <time>2020-06-05T13:27:09Z</time>
      </trkpt>
      <trkpt lat="47.23768" lon="-2.15595">
        <ele>11.4</ele>
        <time>2020-06-05T13:27:10Z</time>
      </trkpt>
      <trkpt lat="47.23771" lon="-2.15596">
        <ele>11.4</ele>
        <time>2020-06-05T13:27:11Z</time>
      </trkpt>
      <trkpt lat="47.23771" lon="-2.15596">
        <ele>11.4</ele>
        <time>2020-06-05T13:27:12Z</time>
      </trkpt>
      <trkpt lat="47.23775" lon="-2.15595">
        <ele>11.5</ele>
        <time>2020-06-05T13:27:13Z</time>
      </trkpt>
      <trkpt lat="47.23776" lon="-2.15595">
        <ele>11.5</ele>
        <time>2020-06-05T13:27:14Z</time>
      </trkpt>
      <trkpt lat="47.23779" lon="-2.15595">
        <ele>11.5</ele>
        <time>2020-06-05T13:27:15Z</time>
      </trkpt>
      <trkpt lat="47.23782" lon="-2.15594">
        <ele>11.6</ele>
        <time>2020-06-05T13:27:16Z</time>
      </trkpt>
      <trkpt lat="47.23785" lon="-2.15593">
        <ele>11.6</ele>
        <time>2020-06-05T13:27:17Z</time>
      </trkpt>
      <trkpt lat="47.23788" lon="-2.15592">
        <ele>11.6</ele>
        <time>2020-06-05T13:27:18Z</time>
      </trkpt>
      <trkpt lat="47.2379" lon="-2.15591">
        <ele>11.7</ele>
        <time>2020-06-05T13:27:19Z</time>
      </trkpt>
      <trkpt lat="47.23793" lon="-2.15589">
        <ele>11.7</ele>
        <time>2020-06-05T13:27:20Z</time>
      </trkpt>
      <trkpt lat="47.23796" lon="-2.15587">
        <ele>11.8</ele>
        <time>2020-06-05T13:27:21Z</time>
      </trkpt>
      <trkpt lat="47.23799" lon="-2.15585">
        <ele>11.8</ele>
        <time>2020-06-05T13:27:22Z</time>
      </trkpt>
      <trkpt lat="47.23802" lon="-2.15584">
        <ele>11.8</ele>
        <time>2020-06-05T13:27:23Z</time>
      </trkpt>
      <trkpt lat="47.23806" lon="-2.15583">
        <ele>11.9</ele>
        <time>2020-06-05T13:27:24Z</time>
      </trkpt>
      <trkpt lat="47.23807" lon="-2.15582">
        <ele>11.9</ele>
        <time>2020-06-05T13:27:25Z</time>
      </trkpt>
      <trkpt lat="47.23811" lon="-2.15582">
        <ele>12</ele>
        <time>2020-06-05T13:27:26Z</time>
      </trkpt>
      <trkpt lat="47.23812" lon="-2.15581">
        <ele>12.1</ele>
        <time>2020-06-05T13:27:27Z</time>
      </trkpt>
      <trkpt lat="47.23815" lon="-2.15581">
        <ele>12.1</ele>
        <time>2020-06-05T13:27:28Z</time>
      </trkpt>
      <trkpt lat="47.23816" lon="-2.15581">
        <ele>12.2</ele>
        <time>2020-06-05T13:27:29Z</time>
      </trkpt>
      <trkpt lat="47.23818" lon="-2.15582">
        <ele>12.2</ele>
        <time>2020-06-05T13:27:30Z</time>
      </trkpt>
      <trkpt lat="47.2382" lon="-2.15581">
        <ele>12.3</ele>
        <time>2020-06-05T13:27:31Z</time>
      </trkpt>
      <trkpt lat="47.23821" lon="-2.1558">
        <ele>12.3</ele>
        <time>2020-06-05T13:27:32Z</time>
      </trkpt>
      <trkpt lat="47.23823" lon="-2.15579">
        <ele>12.3</ele>
        <time>2020-06-05T13:27:33Z</time>
      </trkpt>
      <trkpt lat="47.23825" lon="-2.15576">
        <ele>12.4</ele>
        <time>2020-06-05T13:27:34Z</time>
      </trkpt>
      <trkpt lat="47.23825" lon="-2.15575">
        <ele>12.4</ele>
        <time>2020-06-05T13:27:35Z</time>
      </trkpt>
      <trkpt lat="47.23827" lon="-2.15573">
        <ele>12.5</ele>
        <time>2020-06-05T13:27:36Z</time>
      </trkpt>
      <trkpt lat="47.23827" lon="-2.15571">
        <ele>12.5</ele>
        <time>2020-06-05T13:27:37Z</time>
      </trkpt>
      <trkpt lat="47.23828" lon="-2.1557">
        <ele>12.5</ele>
        <time>2020-06-05T13:27:38Z</time>
      </trkpt>
      <trkpt lat="47.23829" lon="-2.15568">
        <ele>12.6</ele>
        <time>2020-06-05T13:27:39Z</time>
      </trkpt>
      <trkpt lat="47.2383" lon="-2.15566">
        <ele>12.6</ele>
        <time>2020-06-05T13:27:40Z</time>
      </trkpt>
      <trkpt lat="47.23831" lon="-2.15564">
        <ele>12.7</ele>
        <time>2020-06-05T13:27:41Z</time>
      </trkpt>
      <trkpt lat="47.23833" lon="-2.15562">
        <ele>12.8</ele>
        <time>2020-06-05T13:27:42Z</time>
      </trkpt>
      <trkpt lat="47.23833" lon="-2.15561">
        <ele>12.9</ele>
        <time>2020-06-05T13:27:43Z</time>
      </trkpt>
      <trkpt lat="47.23834" lon="-2.1556">
        <ele>12.9</ele>
        <time>2020-06-05T13:27:44Z</time>
      </trkpt>
      <trkpt lat="47.23834" lon="-2.15558">
        <ele>13</ele>
        <time>2020-06-05T13:27:45Z</time>
      </trkpt>
      <trkpt lat="47.23835" lon="-2.15557">
        <ele>13.1</ele>
        <time>2020-06-05T13:27:46Z</time>
      </trkpt>
      <trkpt lat="47.23836" lon="-2.15556">
        <ele>13.1</ele>
        <time>2020-06-05T13:27:47Z</time>
      </trkpt>
      <trkpt lat="47.23837" lon="-2.15554">
        <ele>13.2</ele>
        <time>2020-06-05T13:27:48Z</time>
      </trkpt>
      <trkpt lat="47.23838" lon="-2.15552">
        <ele>13.3</ele>
        <time>2020-06-05T13:27:49Z</time>
      </trkpt>
      <trkpt lat="47.23838" lon="-2.15551">
        <ele>13.8</ele>
        <time>2020-06-05T13:27:50Z</time>
      </trkpt>
      <trkpt lat="47.23838" lon="-2.1555">
        <ele>13.8</ele>
        <time>2020-06-05T13:27:51Z</time>
      </trkpt>
      <trkpt lat="47.23838" lon="-2.15549">
        <ele>13.8</ele>
        <time>2020-06-05T13:27:52Z</time>
      </trkpt>
      <trkpt lat="47.23838" lon="-2.15548">
        <ele>13.9</ele>
        <time>2020-06-05T13:27:53Z</time>
      </trkpt>
      <trkpt lat="47.23838" lon="-2.15546">
        <ele>13.9</ele>
        <time>2020-06-05T13:27:54Z</time>
      </trkpt>
      <trkpt lat="47.23837" lon="-2.15544">
        <ele>13.9</ele>
        <time>2020-06-05T13:27:55Z</time>
      </trkpt>
      <trkpt lat="47.23836" lon="-2.15542">
        <ele>13.9</ele>
        <time>2020-06-05T13:27:56Z</time>
      </trkpt>
      <trkpt lat="47.23835" lon="-2.15541">
        <ele>13.9</ele>
        <time>2020-06-05T13:27:57Z</time>
      </trkpt>
      <trkpt lat="47.23832" lon="-2.1554">
        <ele>13.9</ele>
        <time>2020-06-05T13:27:58Z</time>
      </trkpt>
      <trkpt lat="47.23831" lon="-2.15539">
        <ele>13.9</ele>
        <time>2020-06-05T13:27:59Z</time>
      </trkpt>
      <trkpt lat="47.23828" lon="-2.15537">
        <ele>13.9</ele>
        <time>2020-06-05T13:28:00Z</time>
      </trkpt>
      <trkpt lat="47.23827" lon="-2.15536">
        <ele>14</ele>
        <time>2020-06-05T13:28:01Z</time>
      </trkpt>
      <trkpt lat="47.23823" lon="-2.15535">
        <ele>14</ele>
        <time>2020-06-05T13:28:02Z</time>
      </trkpt>
      <trkpt lat="47.23821" lon="-2.15535">
        <ele>14</ele>
        <time>2020-06-05T13:28:03Z</time>
      </trkpt>
      <trkpt lat="47.23819" lon="-2.15534">
        <ele>14</ele>
        <time>2020-06-05T13:28:04Z</time>
      </trkpt>
      <trkpt lat="47.23816" lon="-2.1553">
        <ele>14</ele>
        <time>2020-06-05T13:28:05Z</time>
      </trkpt>
      <trkpt lat="47.23814" lon="-2.15527">
        <ele>14</ele>
        <time>2020-06-05T13:28:06Z</time>
      </trkpt>
      <trkpt lat="47.23812" lon="-2.15522">
        <ele>14.1</ele>
        <time>2020-06-05T13:28:07Z</time>
      </trkpt>
      <trkpt lat="47.2381" lon="-2.15518">
        <ele>14.1</ele>
        <time>2020-06-05T13:28:08Z</time>
      </trkpt>
      <trkpt lat="47.23808" lon="-2.15512">
        <ele>14.1</ele>
        <time>2020-06-05T13:28:09Z</time>
      </trkpt>
      <trkpt lat="47.23805" lon="-2.15507">
        <ele>14.1</ele>
        <time>2020-06-05T13:28:10Z</time>
      </trkpt>
      <trkpt lat="47.23803" lon="-2.15503">
        <ele>14.1</ele>
        <time>2020-06-05T13:28:11Z</time>
      </trkpt>
      <trkpt lat="47.23802" lon="-2.15499">
        <ele>14.1</ele>
        <time>2020-06-05T13:28:12Z</time>
      </trkpt>
      <trkpt lat="47.238" lon="-2.15494">
        <ele>14.2</ele>
        <time>2020-06-05T13:28:13Z</time>
      </trkpt>
      <trkpt lat="47.23799" lon="-2.15493">
        <ele>14.2</ele>
        <time>2020-06-05T13:28:14Z</time>
      </trkpt>
      <trkpt lat="47.23797" lon="-2.15488">
        <ele>14.2</ele>
        <time>2020-06-05T13:28:15Z</time>
      </trkpt>
      <trkpt lat="47.23797" lon="-2.15487">
        <ele>14.2</ele>
        <time>2020-06-05T13:28:16Z</time>
      </trkpt>
      <trkpt lat="47.23795" lon="-2.15483">
        <ele>14.2</ele>
        <time>2020-06-05T13:28:17Z</time>
      </trkpt>
      <trkpt lat="47.23795" lon="-2.15482">
        <ele>14.2</ele>
        <time>2020-06-05T13:28:18Z</time>
      </trkpt>
      <trkpt lat="47.23793" lon="-2.15479">
        <ele>14.3</ele>
        <time>2020-06-05T13:28:19Z</time>
      </trkpt>
      <trkpt lat="47.2379" lon="-2.15475">
        <ele>14.3</ele>
        <time>2020-06-05T13:28:20Z</time>
      </trkpt>
      <trkpt lat="47.23788" lon="-2.15472">
        <ele>14.4</ele>
        <time>2020-06-05T13:28:21Z</time>
      </trkpt>
      <trkpt lat="47.23786" lon="-2.15469">
        <ele>14.5</ele>
        <time>2020-06-05T13:28:22Z</time>
      </trkpt>
      <trkpt lat="47.23783" lon="-2.15466">
        <ele>14.5</ele>
        <time>2020-06-05T13:28:23Z</time>
      </trkpt>
      <trkpt lat="47.23781" lon="-2.15464">
        <ele>14.6</ele>
        <time>2020-06-05T13:28:24Z</time>
      </trkpt>
      <trkpt lat="47.23779" lon="-2.15461">
        <ele>14.7</ele>
        <time>2020-06-05T13:28:25Z</time>
      </trkpt>
      <trkpt lat="47.23776" lon="-2.15458">
        <ele>14.8</ele>
        <time>2020-06-05T13:28:26Z</time>
      </trkpt>
      <trkpt lat="47.23773" lon="-2.15455">
        <ele>14.9</ele>
        <time>2020-06-05T13:28:27Z</time>
      </trkpt>
      <trkpt lat="47.23771" lon="-2.15454">
        <ele>14.9</ele>
        <time>2020-06-05T13:28:28Z</time>
      </trkpt>
      <trkpt lat="47.23769" lon="-2.15451">
        <ele>14.9</ele>
        <time>2020-06-05T13:28:29Z</time>
      </trkpt>
      <trkpt lat="47.23766" lon="-2.15449">
        <ele>15</ele>
        <time>2020-06-05T13:28:30Z</time>
      </trkpt>
      <trkpt lat="47.23764" lon="-2.15447">
        <ele>15.1</ele>
        <time>2020-06-05T13:28:31Z</time>
      </trkpt>
      <trkpt lat="47.23764" lon="-2.15442">
        <ele>15.1</ele>
        <time>2020-06-05T13:28:32Z</time>
      </trkpt>
      <trkpt lat="47.23765" lon="-2.15441">
        <ele>15.2</ele>
        <time>2020-06-05T13:28:33Z</time>
      </trkpt>
      <trkpt lat="47.23765" lon="-2.15436">
        <ele>15.3</ele>
        <time>2020-06-05T13:28:34Z</time>
      </trkpt>
      <trkpt lat="47.23766" lon="-2.1543">
        <ele>15.3</ele>
        <time>2020-06-05T13:28:35Z</time>
      </trkpt>
      <trkpt lat="47.23766" lon="-2.15428">
        <ele>15.3</ele>
        <time>2020-06-05T13:28:36Z</time>
      </trkpt>
      <trkpt lat="47.23767" lon="-2.15424">
        <ele>15.3</ele>
        <time>2020-06-05T13:28:37Z</time>
      </trkpt>
      <trkpt lat="47.23768" lon="-2.15423">
        <ele>15.3</ele>
        <time>2020-06-05T13:28:38Z</time>
      </trkpt>
      <trkpt lat="47.2377" lon="-2.15421">
        <ele>15.3</ele>
        <time>2020-06-05T13:28:39Z</time>
      </trkpt>
      <trkpt lat="47.2377" lon="-2.1542">
        <ele>15.3</ele>
        <time>2020-06-05T13:28:40Z</time>
      </trkpt>
      <trkpt lat="47.23771" lon="-2.1542">
        <ele>14.8</ele>
        <time>2020-06-05T13:28:41Z</time>
      </trkpt>
      <trkpt lat="47.23773" lon="-2.15419">
        <ele>14.8</ele>
        <time>2020-06-05T13:28:42Z</time>
      </trkpt>
      <trkpt lat="47.23773" lon="-2.15418">
        <ele>14.8</ele>
        <time>2020-06-05T13:28:43Z</time>
      </trkpt>
      <trkpt lat="47.23773" lon="-2.15418">
        <ele>14.8</ele>
        <time>2020-06-05T13:28:44Z</time>
      </trkpt>
      <trkpt lat="47.23773" lon="-2.15419">
        <ele>14.8</ele>
        <time>2020-06-05T13:28:45Z</time>
      </trkpt>
      <trkpt lat="47.23773" lon="-2.15419">
        <ele>14.8</ele>
        <time>2020-06-05T13:28:46Z</time>
      </trkpt>
      <trkpt lat="47.23773" lon="-2.15419">
        <ele>14.8</ele>
        <time>2020-06-05T13:28:47Z</time>
      </trkpt>
      <trkpt lat="47.23773" lon="-2.15419">
        <ele>14.8</ele>
        <time>2020-06-05T13:28:48Z</time>
      </trkpt>
      <trkpt lat="47.23774" lon="-2.15418">
        <ele>14.8</ele>
        <time>2020-06-05T13:28:49Z</time>
      </trkpt>
      <trkpt lat="47.23774" lon="-2.15418">
        <ele>14.8</ele>
        <time>2020-06-05T13:28:50Z</time>
      </trkpt>
      <trkpt lat="47.23774" lon="-2.15418">
        <ele>14.8</ele>
        <time>2020-06-05T13:28:51Z</time>
      </trkpt>
      <trkpt lat="47.23774" lon="-2.15418">
        <ele>14.8</ele>
        <time>2020-06-05T13:28:52Z</time>
      </trkpt>
      <trkpt lat="47.23775" lon="-2.15418">
        <ele>14.8</ele>
        <time>2020-06-05T13:28:53Z</time>
      </trkpt>
      <trkpt lat="47.23777" lon="-2.15416">
        <ele>14.8</ele>
        <time>2020-06-05T13:28:57Z</time>
      </trkpt>
      <trkpt lat="47.23778" lon="-2.15416">
        <ele>14.8</ele>
        <time>2020-06-05T13:28:58Z</time>
      </trkpt>
      <trkpt lat="47.23778" lon="-2.15416">
        <ele>14.8</ele>
        <time>2020-06-05T13:28:59Z</time>
      </trkpt>
      <trkpt lat="47.23778" lon="-2.15417">
        <ele>14.8</ele>
        <time>2020-06-05T13:29:00Z</time>
      </trkpt>
      <trkpt lat="47.23779" lon="-2.15418">
        <ele>14.8</ele>
        <time>2020-06-05T13:29:01Z</time>
      </trkpt>
      <trkpt lat="47.2378" lon="-2.15419">
        <ele>14.8</ele>
        <time>2020-06-05T13:29:02Z</time>
      </trkpt>
      <trkpt lat="47.23782" lon="-2.15421">
        <ele>14.8</ele>
        <time>2020-06-05T13:29:03Z</time>
      </trkpt>
      <trkpt lat="47.23784" lon="-2.15424">
        <ele>14.8</ele>
        <time>2020-06-05T13:29:04Z</time>
      </trkpt>
      <trkpt lat="47.23786" lon="-2.15428">
        <ele>14.8</ele>
        <time>2020-06-05T13:29:05Z</time>
      </trkpt>
      <trkpt lat="47.23788" lon="-2.15432">
        <ele>14.8</ele>
        <time>2020-06-05T13:29:06Z</time>
      </trkpt>
      <trkpt lat="47.2379" lon="-2.15437">
        <ele>14.8</ele>
        <time>2020-06-05T13:29:07Z</time>
      </trkpt>
      <trkpt lat="47.23793" lon="-2.15442">
        <ele>14.5</ele>
        <time>2020-06-05T13:29:08Z</time>
      </trkpt>
      <trkpt lat="47.23796" lon="-2.15448">
        <ele>14.3</ele>
        <time>2020-06-05T13:29:09Z</time>
      </trkpt>
      <trkpt lat="47.23799" lon="-2.15454">
        <ele>14.1</ele>
        <time>2020-06-05T13:29:10Z</time>
      </trkpt>
      <trkpt lat="47.23801" lon="-2.15459">
        <ele>14</ele>
        <time>2020-06-05T13:29:11Z</time>
      </trkpt>
      <trkpt lat="47.23804" lon="-2.15465">
        <ele>13.9</ele>
        <time>2020-06-05T13:29:12Z</time>
      </trkpt>
      <trkpt lat="47.23808" lon="-2.15472">
        <ele>13.7</ele>
        <time>2020-06-05T13:29:13Z</time>
      </trkpt>
      <trkpt lat="47.23811" lon="-2.15478">
        <ele>13.7</ele>
        <time>2020-06-05T13:29:14Z</time>
      </trkpt>
      <trkpt lat="47.23814" lon="-2.15483">
        <ele>13.6</ele>
        <time>2020-06-05T13:29:15Z</time>
      </trkpt>
      <trkpt lat="47.23817" lon="-2.15489">
        <ele>13.5</ele>
        <time>2020-06-05T13:29:16Z</time>
      </trkpt>
      <trkpt lat="47.2382" lon="-2.15495">
        <ele>13.4</ele>
        <time>2020-06-05T13:29:17Z</time>
      </trkpt>
      <trkpt lat="47.23824" lon="-2.15501">
        <ele>13.4</ele>
        <time>2020-06-05T13:29:18Z</time>
      </trkpt>
      <trkpt lat="47.23828" lon="-2.15506">
        <ele>13.4</ele>
        <time>2020-06-05T13:29:19Z</time>
      </trkpt>
      <trkpt lat="47.23833" lon="-2.1551">
        <ele>13.3</ele>
        <time>2020-06-05T13:29:20Z</time>
      </trkpt>
      <trkpt lat="47.23837" lon="-2.15514">
        <ele>13.4</ele>
        <time>2020-06-05T13:29:21Z</time>
      </trkpt>
      <trkpt lat="47.23841" lon="-2.15517">
        <ele>13.4</ele>
        <time>2020-06-05T13:29:22Z</time>
      </trkpt>
      <trkpt lat="47.23845" lon="-2.1552">
        <ele>13.4</ele>
        <time>2020-06-05T13:29:23Z</time>
      </trkpt>
      <trkpt lat="47.23849" lon="-2.15524">
        <ele>13.4</ele>
        <time>2020-06-05T13:29:24Z</time>
      </trkpt>
      <trkpt lat="47.23852" lon="-2.15526">
        <ele>13.5</ele>
        <time>2020-06-05T13:29:25Z</time>
      </trkpt>
      <trkpt lat="47.23856" lon="-2.15528">
        <ele>13.5</ele>
        <time>2020-06-05T13:29:26Z</time>
      </trkpt>
      <trkpt lat="47.2386" lon="-2.15529">
        <ele>13.4</ele>
        <time>2020-06-05T13:29:27Z</time>
      </trkpt>
      <trkpt lat="47.23865" lon="-2.15529">
        <ele>13.4</ele>
        <time>2020-06-05T13:29:28Z</time>
      </trkpt>
      <trkpt lat="47.23868" lon="-2.15531">
        <ele>13.4</ele>
        <time>2020-06-05T13:29:29Z</time>
      </trkpt>
      <trkpt lat="47.23872" lon="-2.15533">
        <ele>13.3</ele>
        <time>2020-06-05T13:29:30Z</time>
      </trkpt>
      <trkpt lat="47.23875" lon="-2.15537">
        <ele>13.3</ele>
        <time>2020-06-05T13:29:31Z</time>
      </trkpt>
      <trkpt lat="47.23878" lon="-2.15541">
        <ele>13.3</ele>
        <time>2020-06-05T13:29:32Z</time>
      </trkpt>
      <trkpt lat="47.23881" lon="-2.15546">
        <ele>13.2</ele>
        <time>2020-06-05T13:29:33Z</time>
      </trkpt>
      <trkpt lat="47.23885" lon="-2.15551">
        <ele>13.2</ele>
        <time>2020-06-05T13:29:34Z</time>
      </trkpt>
      <trkpt lat="47.23889" lon="-2.15556">
        <ele>13.3</ele>
        <time>2020-06-05T13:29:35Z</time>
      </trkpt>
      <trkpt lat="47.23893" lon="-2.1556">
        <ele>13.3</ele>
        <time>2020-06-05T13:29:36Z</time>
      </trkpt>
      <trkpt lat="47.23898" lon="-2.15562">
        <ele>13.4</ele>
        <time>2020-06-05T13:29:37Z</time>
      </trkpt>
      <trkpt lat="47.23903" lon="-2.15563">
        <ele>13.4</ele>
        <time>2020-06-05T13:29:38Z</time>
      </trkpt>
      <trkpt lat="47.23909" lon="-2.15565">
        <ele>13.4</ele>
        <time>2020-06-05T13:29:39Z</time>
      </trkpt>
      <trkpt lat="47.23915" lon="-2.15566">
        <ele>13.2</ele>
        <time>2020-06-05T13:29:40Z</time>
      </trkpt>
      <trkpt lat="47.23921" lon="-2.15569">
        <ele>13.1</ele>
        <time>2020-06-05T13:29:41Z</time>
      </trkpt>
      <trkpt lat="47.23927" lon="-2.15571">
        <ele>13</ele>
        <time>2020-06-05T13:29:42Z</time>
      </trkpt>
      <trkpt lat="47.23934" lon="-2.15572">
        <ele>13</ele>
        <time>2020-06-05T13:29:43Z</time>
      </trkpt>
      <trkpt lat="47.2394" lon="-2.15573">
        <ele>12.9</ele>
        <time>2020-06-05T13:29:44Z</time>
      </trkpt>
      <trkpt lat="47.23946" lon="-2.15574">
        <ele>12.9</ele>
        <time>2020-06-05T13:29:45Z</time>
      </trkpt>
      <trkpt lat="47.23951" lon="-2.15575">
        <ele>13</ele>
        <time>2020-06-05T13:29:46Z</time>
      </trkpt>
      <trkpt lat="47.23956" lon="-2.15576">
        <ele>12.9</ele>
        <time>2020-06-05T13:29:47Z</time>
      </trkpt>
      <trkpt lat="47.23961" lon="-2.15577">
        <ele>12.9</ele>
        <time>2020-06-05T13:29:48Z</time>
      </trkpt>
      <trkpt lat="47.23967" lon="-2.15577">
        <ele>12.9</ele>
        <time>2020-06-05T13:29:49Z</time>
      </trkpt>
      <trkpt lat="47.23972" lon="-2.15577">
        <ele>12.8</ele>
        <time>2020-06-05T13:29:50Z</time>
      </trkpt>
      <trkpt lat="47.23977" lon="-2.15578">
        <ele>12.7</ele>
        <time>2020-06-05T13:29:51Z</time>
      </trkpt>
      <trkpt lat="47.23983" lon="-2.15579">
        <ele>12.7</ele>
        <time>2020-06-05T13:29:52Z</time>
      </trkpt>
      <trkpt lat="47.23989" lon="-2.15576">
        <ele>12.7</ele>
        <time>2020-06-05T13:29:53Z</time>
      </trkpt>
      <trkpt lat="47.23995" lon="-2.15577">
        <ele>12.7</ele>
        <time>2020-06-05T13:29:54Z</time>
      </trkpt>
      <trkpt lat="47.24" lon="-2.15577">
        <ele>12.7</ele>
        <time>2020-06-05T13:29:55Z</time>
      </trkpt>
      <trkpt lat="47.24005" lon="-2.15578">
        <ele>12.8</ele>
        <time>2020-06-05T13:29:56Z</time>
      </trkpt>
      <trkpt lat="47.2401" lon="-2.15579">
        <ele>12.8</ele>
        <time>2020-06-05T13:29:57Z</time>
      </trkpt>
      <trkpt lat="47.24015" lon="-2.1558">
        <ele>12.9</ele>
        <time>2020-06-05T13:29:58Z</time>
      </trkpt>
      <trkpt lat="47.24021" lon="-2.15582">
        <ele>12.9</ele>
        <time>2020-06-05T13:29:59Z</time>
      </trkpt>
      <trkpt lat="47.24026" lon="-2.15583">
        <ele>12.9</ele>
        <time>2020-06-05T13:30:00Z</time>
      </trkpt>
      <trkpt lat="47.24031" lon="-2.15585">
        <ele>13</ele>
        <time>2020-06-05T13:30:01Z</time>
      </trkpt>
      <trkpt lat="47.24035" lon="-2.15586">
        <ele>13</ele>
        <time>2020-06-05T13:30:02Z</time>
      </trkpt>
      <trkpt lat="47.2404" lon="-2.15587">
        <ele>13</ele>
        <time>2020-06-05T13:30:03Z</time>
      </trkpt>
      <trkpt lat="47.24045" lon="-2.15589">
        <ele>13.1</ele>
        <time>2020-06-05T13:30:04Z</time>
      </trkpt>
      <trkpt lat="47.24051" lon="-2.15591">
        <ele>13.1</ele>
        <time>2020-06-05T13:30:05Z</time>
      </trkpt>
      <trkpt lat="47.24056" lon="-2.15593">
        <ele>13.1</ele>
        <time>2020-06-05T13:30:06Z</time>
      </trkpt>
      <trkpt lat="47.24062" lon="-2.15594">
        <ele>13.1</ele>
        <time>2020-06-05T13:30:07Z</time>
      </trkpt>
      <trkpt lat="47.24067" lon="-2.15595">
        <ele>13.2</ele>
        <time>2020-06-05T13:30:08Z</time>
      </trkpt>
      <trkpt lat="47.24073" lon="-2.15597">
        <ele>13.2</ele>
        <time>2020-06-05T13:30:09Z</time>
      </trkpt>
      <trkpt lat="47.24079" lon="-2.156">
        <ele>13.3</ele>
        <time>2020-06-05T13:30:10Z</time>
      </trkpt>
      <trkpt lat="47.24084" lon="-2.15602">
        <ele>13.2</ele>
        <time>2020-06-05T13:30:11Z</time>
      </trkpt>
      <trkpt lat="47.2409" lon="-2.15603">
        <ele>13.2</ele>
        <time>2020-06-05T13:30:12Z</time>
      </trkpt>
      <trkpt lat="47.24095" lon="-2.15605">
        <ele>13.1</ele>
        <time>2020-06-05T13:30:13Z</time>
      </trkpt>
      <trkpt lat="47.241" lon="-2.15607">
        <ele>13.1</ele>
        <time>2020-06-05T13:30:14Z</time>
      </trkpt>
      <trkpt lat="47.24105" lon="-2.15609">
        <ele>13.1</ele>
        <time>2020-06-05T13:30:15Z</time>
      </trkpt>
      <trkpt lat="47.24109" lon="-2.1561">
        <ele>13</ele>
        <time>2020-06-05T13:30:16Z</time>
      </trkpt>
      <trkpt lat="47.24113" lon="-2.15611">
        <ele>13</ele>
        <time>2020-06-05T13:30:17Z</time>
      </trkpt>
      <trkpt lat="47.24118" lon="-2.15609">
        <ele>13.1</ele>
        <time>2020-06-05T13:30:18Z</time>
      </trkpt>
      <trkpt lat="47.24122" lon="-2.15607">
        <ele>13.1</ele>
        <time>2020-06-05T13:30:19Z</time>
      </trkpt>
      <trkpt lat="47.24125" lon="-2.15603">
        <ele>13.1</ele>
        <time>2020-06-05T13:30:20Z</time>
      </trkpt>
      <trkpt lat="47.24129" lon="-2.15601">
        <ele>13.2</ele>
        <time>2020-06-05T13:30:21Z</time>
      </trkpt>
      <trkpt lat="47.24133" lon="-2.15601">
        <ele>13.2</ele>
        <time>2020-06-05T13:30:22Z</time>
      </trkpt>
      <trkpt lat="47.24136" lon="-2.15603">
        <ele>13.3</ele>
        <time>2020-06-05T13:30:23Z</time>
      </trkpt>
      <trkpt lat="47.2414" lon="-2.15606">
        <ele>13.3</ele>
        <time>2020-06-05T13:30:24Z</time>
      </trkpt>
      <trkpt lat="47.24143" lon="-2.1561">
        <ele>13.3</ele>
        <time>2020-06-05T13:30:25Z</time>
      </trkpt>
      <trkpt lat="47.24145" lon="-2.15614">
        <ele>13.3</ele>
        <time>2020-06-05T13:30:26Z</time>
      </trkpt>
      <trkpt lat="47.24148" lon="-2.15618">
        <ele>13.3</ele>
        <time>2020-06-05T13:30:27Z</time>
      </trkpt>
      <trkpt lat="47.2415" lon="-2.15623">
        <ele>13.3</ele>
        <time>2020-06-05T13:30:28Z</time>
      </trkpt>
      <trkpt lat="47.24153" lon="-2.15629">
        <ele>13.1</ele>
        <time>2020-06-05T13:30:29Z</time>
      </trkpt>
      <trkpt lat="47.24155" lon="-2.15635">
        <ele>13</ele>
        <time>2020-06-05T13:30:30Z</time>
      </trkpt>
      <trkpt lat="47.24158" lon="-2.15641">
        <ele>12.9</ele>
        <time>2020-06-05T13:30:31Z</time>
      </trkpt>
      <trkpt lat="47.24161" lon="-2.15647">
        <ele>12.8</ele>
        <time>2020-06-05T13:30:32Z</time>
      </trkpt>
      <trkpt lat="47.24165" lon="-2.15652">
        <ele>12.8</ele>
        <time>2020-06-05T13:30:33Z</time>
      </trkpt>
      <trkpt lat="47.24169" lon="-2.15657">
        <ele>12.7</ele>
        <time>2020-06-05T13:30:34Z</time>
      </trkpt>
      <trkpt lat="47.24174" lon="-2.15662">
        <ele>12.7</ele>
        <time>2020-06-05T13:30:35Z</time>
      </trkpt>
      <trkpt lat="47.24179" lon="-2.15665">
        <ele>12.7</ele>
        <time>2020-06-05T13:30:36Z</time>
      </trkpt>
      <trkpt lat="47.24183" lon="-2.15668">
        <ele>12.6</ele>
        <time>2020-06-05T13:30:37Z</time>
      </trkpt>
      <trkpt lat="47.24188" lon="-2.15672">
        <ele>12.6</ele>
        <time>2020-06-05T13:30:38Z</time>
      </trkpt>
      <trkpt lat="47.24192" lon="-2.15676">
        <ele>12.6</ele>
        <time>2020-06-05T13:30:39Z</time>
      </trkpt>
      <trkpt lat="47.24196" lon="-2.1568">
        <ele>12.6</ele>
        <time>2020-06-05T13:30:40Z</time>
      </trkpt>
      <trkpt lat="47.242" lon="-2.15684">
        <ele>12.6</ele>
        <time>2020-06-05T13:30:41Z</time>
      </trkpt>
      <trkpt lat="47.24205" lon="-2.15688">
        <ele>12.6</ele>
        <time>2020-06-05T13:30:42Z</time>
      </trkpt>
      <trkpt lat="47.2421" lon="-2.15693">
        <ele>12.6</ele>
        <time>2020-06-05T13:30:43Z</time>
      </trkpt>
      <trkpt lat="47.24216" lon="-2.15697">
        <ele>12.6</ele>
        <time>2020-06-05T13:30:44Z</time>
      </trkpt>
      <trkpt lat="47.24221" lon="-2.15699">
        <ele>12.7</ele>
        <time>2020-06-05T13:30:45Z</time>
      </trkpt>
      <trkpt lat="47.24225" lon="-2.15705">
        <ele>12.7</ele>
        <time>2020-06-05T13:30:46Z</time>
      </trkpt>
      <trkpt lat="47.24231" lon="-2.15708">
        <ele>12.8</ele>
        <time>2020-06-05T13:30:47Z</time>
      </trkpt>
      <trkpt lat="47.24236" lon="-2.15712">
        <ele>12.8</ele>
        <time>2020-06-05T13:30:48Z</time>
      </trkpt>
      <trkpt lat="47.24241" lon="-2.15717">
        <ele>12.7</ele>
        <time>2020-06-05T13:30:49Z</time>
      </trkpt>
      <trkpt lat="47.24246" lon="-2.15721">
        <ele>12.7</ele>
        <time>2020-06-05T13:30:50Z</time>
      </trkpt>
      <trkpt lat="47.24251" lon="-2.15725">
        <ele>12.6</ele>
        <time>2020-06-05T13:30:51Z</time>
      </trkpt>
      <trkpt lat="47.24256" lon="-2.15729">
        <ele>12.6</ele>
        <time>2020-06-05T13:30:52Z</time>
      </trkpt>
      <trkpt lat="47.2426" lon="-2.15733">
        <ele>12.5</ele>
        <time>2020-06-05T13:30:53Z</time>
      </trkpt>
      <trkpt lat="47.24265" lon="-2.15737">
        <ele>12.4</ele>
        <time>2020-06-05T13:30:54Z</time>
      </trkpt>
      <trkpt lat="47.2427" lon="-2.1574">
        <ele>12.3</ele>
        <time>2020-06-05T13:30:55Z</time>
      </trkpt>
      <trkpt lat="47.24276" lon="-2.15743">
        <ele>12.1</ele>
        <time>2020-06-05T13:30:56Z</time>
      </trkpt>
      <trkpt lat="47.24281" lon="-2.15747">
        <ele>12</ele>
        <time>2020-06-05T13:30:57Z</time>
      </trkpt>
      <trkpt lat="47.24286" lon="-2.15751">
        <ele>11.8</ele>
        <time>2020-06-05T13:30:58Z</time>
      </trkpt>
      <trkpt lat="47.24292" lon="-2.15754">
        <ele>11.7</ele>
        <time>2020-06-05T13:30:59Z</time>
      </trkpt>
      <trkpt lat="47.24297" lon="-2.15758">
        <ele>11.6</ele>
        <time>2020-06-05T13:31:00Z</time>
      </trkpt>
      <trkpt lat="47.24303" lon="-2.15762">
        <ele>11.5</ele>
        <time>2020-06-05T13:31:01Z</time>
      </trkpt>
      <trkpt lat="47.24308" lon="-2.15764">
        <ele>11.4</ele>
        <time>2020-06-05T13:31:02Z</time>
      </trkpt>
      <trkpt lat="47.24314" lon="-2.15767">
        <ele>11.3</ele>
        <time>2020-06-05T13:31:03Z</time>
      </trkpt>
      <trkpt lat="47.2432" lon="-2.1577">
        <ele>11.3</ele>
        <time>2020-06-05T13:31:04Z</time>
      </trkpt>
      <trkpt lat="47.24325" lon="-2.15772">
        <ele>11.2</ele>
        <time>2020-06-05T13:31:05Z</time>
      </trkpt>
      <trkpt lat="47.24331" lon="-2.15775">
        <ele>11.1</ele>
        <time>2020-06-05T13:31:06Z</time>
      </trkpt>
      <trkpt lat="47.24337" lon="-2.15779">
        <ele>11</ele>
        <time>2020-06-05T13:31:07Z</time>
      </trkpt>
      <trkpt lat="47.24343" lon="-2.1578">
        <ele>10.9</ele>
        <time>2020-06-05T13:31:08Z</time>
      </trkpt>
      <trkpt lat="47.2435" lon="-2.15782">
        <ele>10.8</ele>
        <time>2020-06-05T13:31:09Z</time>
      </trkpt>
      <trkpt lat="47.24355" lon="-2.15784">
        <ele>10.7</ele>
        <time>2020-06-05T13:31:10Z</time>
      </trkpt>
      <trkpt lat="47.24362" lon="-2.15786">
        <ele>10.6</ele>
        <time>2020-06-05T13:31:11Z</time>
      </trkpt>
      <trkpt lat="47.24369" lon="-2.15786">
        <ele>10.4</ele>
        <time>2020-06-05T13:31:12Z</time>
      </trkpt>
      <trkpt lat="47.24376" lon="-2.15786">
        <ele>10.2</ele>
        <time>2020-06-05T13:31:13Z</time>
      </trkpt>
      <trkpt lat="47.24383" lon="-2.15786">
        <ele>10.1</ele>
        <time>2020-06-05T13:31:14Z</time>
      </trkpt>
      <trkpt lat="47.24389" lon="-2.15787">
        <ele>9.9</ele>
        <time>2020-06-05T13:31:15Z</time>
      </trkpt>
      <trkpt lat="47.24396" lon="-2.15787">
        <ele>9.7</ele>
        <time>2020-06-05T13:31:16Z</time>
      </trkpt>
      <trkpt lat="47.24402" lon="-2.15788">
        <ele>9.5</ele>
        <time>2020-06-05T13:31:17Z</time>
      </trkpt>
      <trkpt lat="47.24407" lon="-2.15787">
        <ele>9.4</ele>
        <time>2020-06-05T13:31:18Z</time>
      </trkpt>
      <trkpt lat="47.24413" lon="-2.15787">
        <ele>9.1</ele>
        <time>2020-06-05T13:31:19Z</time>
      </trkpt>
      <trkpt lat="47.24417" lon="-2.15786">
        <ele>9</ele>
        <time>2020-06-05T13:31:20Z</time>
      </trkpt>
      <trkpt lat="47.24422" lon="-2.15787">
        <ele>8.8</ele>
        <time>2020-06-05T13:31:21Z</time>
      </trkpt>
      <trkpt lat="47.24428" lon="-2.15787">
        <ele>8.7</ele>
        <time>2020-06-05T13:31:22Z</time>
      </trkpt>
      <trkpt lat="47.24434" lon="-2.15787">
        <ele>8.7</ele>
        <time>2020-06-05T13:31:23Z</time>
      </trkpt>
      <trkpt lat="47.2444" lon="-2.15787">
        <ele>8.7</ele>
        <time>2020-06-05T13:31:24Z</time>
      </trkpt>
      <trkpt lat="47.24447" lon="-2.15787">
        <ele>8.7</ele>
        <time>2020-06-05T13:31:25Z</time>
      </trkpt>
      <trkpt lat="47.24453" lon="-2.15787">
        <ele>8.7</ele>
        <time>2020-06-05T13:31:26Z</time>
      </trkpt>
      <trkpt lat="47.2446" lon="-2.15787">
        <ele>8.9</ele>
        <time>2020-06-05T13:31:27Z</time>
      </trkpt>
      <trkpt lat="47.24466" lon="-2.15787">
        <ele>8.7</ele>
        <time>2020-06-05T13:31:28Z</time>
      </trkpt>
      <trkpt lat="47.24473" lon="-2.15785">
        <ele>8.2</ele>
        <time>2020-06-05T13:31:29Z</time>
      </trkpt>
      <trkpt lat="47.24479" lon="-2.15779">
        <ele>8.3</ele>
        <time>2020-06-05T13:31:30Z</time>
      </trkpt>
      <trkpt lat="47.24485" lon="-2.15773">
        <ele>8.3</ele>
        <time>2020-06-05T13:31:31Z</time>
      </trkpt>
      <trkpt lat="47.2449" lon="-2.15768">
        <ele>8.5</ele>
        <time>2020-06-05T13:31:32Z</time>
      </trkpt>
      <trkpt lat="47.24493" lon="-2.15763">
        <ele>8.5</ele>
        <time>2020-06-05T13:31:33Z</time>
      </trkpt>
      <trkpt lat="47.24498" lon="-2.15759">
        <ele>8.5</ele>
        <time>2020-06-05T13:31:34Z</time>
      </trkpt>
      <trkpt lat="47.24504" lon="-2.15756">
        <ele>8.5</ele>
        <time>2020-06-05T13:31:35Z</time>
      </trkpt>
      <trkpt lat="47.24509" lon="-2.15755">
        <ele>8.6</ele>
        <time>2020-06-05T13:31:36Z</time>
      </trkpt>
      <trkpt lat="47.24515" lon="-2.15755">
        <ele>8.6</ele>
        <time>2020-06-05T13:31:37Z</time>
      </trkpt>
      <trkpt lat="47.24519" lon="-2.15759">
        <ele>8.7</ele>
        <time>2020-06-05T13:31:38Z</time>
      </trkpt>
      <trkpt lat="47.24524" lon="-2.15765">
        <ele>8.8</ele>
        <time>2020-06-05T13:31:39Z</time>
      </trkpt>
      <trkpt lat="47.24527" lon="-2.1577">
        <ele>8.8</ele>
        <time>2020-06-05T13:31:40Z</time>
      </trkpt>
      <trkpt lat="47.2453" lon="-2.15775">
        <ele>8.9</ele>
        <time>2020-06-05T13:31:41Z</time>
      </trkpt>
      <trkpt lat="47.24533" lon="-2.1578">
        <ele>9</ele>
        <time>2020-06-05T13:31:42Z</time>
      </trkpt>
      <trkpt lat="47.24536" lon="-2.15786">
        <ele>9.1</ele>
        <time>2020-06-05T13:31:43Z</time>
      </trkpt>
      <trkpt lat="47.24538" lon="-2.15793">
        <ele>9.2</ele>
        <time>2020-06-05T13:31:44Z</time>
      </trkpt>
      <trkpt lat="47.2454" lon="-2.15802">
        <ele>8.9</ele>
        <time>2020-06-05T13:31:45Z</time>
      </trkpt>
      <trkpt lat="47.24541" lon="-2.15811">
        <ele>8.4</ele>
        <time>2020-06-05T13:31:46Z</time>
      </trkpt>
      <trkpt lat="47.24542" lon="-2.15818">
        <ele>8.2</ele>
        <time>2020-06-05T13:31:47Z</time>
      </trkpt>
      <trkpt lat="47.24543" lon="-2.15825">
        <ele>8.1</ele>
        <time>2020-06-05T13:31:48Z</time>
      </trkpt>
      <trkpt lat="47.24545" lon="-2.15831">
        <ele>8</ele>
        <time>2020-06-05T13:31:49Z</time>
      </trkpt>
      <trkpt lat="47.24546" lon="-2.15835">
        <ele>8</ele>
        <time>2020-06-05T13:31:50Z</time>
      </trkpt>
      <trkpt lat="47.24548" lon="-2.15839">
        <ele>8</ele>
        <time>2020-06-05T13:31:51Z</time>
      </trkpt>
      <trkpt lat="47.24551" lon="-2.15842">
        <ele>8</ele>
        <time>2020-06-05T13:31:52Z</time>
      </trkpt>
      <trkpt lat="47.24553" lon="-2.15844">
        <ele>8</ele>
        <time>2020-06-05T13:31:53Z</time>
      </trkpt>
      <trkpt lat="47.24556" lon="-2.15847">
        <ele>8</ele>
        <time>2020-06-05T13:31:54Z</time>
      </trkpt>
      <trkpt lat="47.24559" lon="-2.15852">
        <ele>8.1</ele>
        <time>2020-06-05T13:31:55Z</time>
      </trkpt>
      <trkpt lat="47.24562" lon="-2.15856">
        <ele>8.1</ele>
        <time>2020-06-05T13:31:56Z</time>
      </trkpt>
      <trkpt lat="47.24565" lon="-2.15861">
        <ele>8.2</ele>
        <time>2020-06-05T13:31:57Z</time>
      </trkpt>
      <trkpt lat="47.24567" lon="-2.15865">
        <ele>8.2</ele>
        <time>2020-06-05T13:31:58Z</time>
      </trkpt>
      <trkpt lat="47.2457" lon="-2.15869">
        <ele>8.3</ele>
        <time>2020-06-05T13:31:59Z</time>
      </trkpt>
      <trkpt lat="47.24572" lon="-2.15873">
        <ele>8.4</ele>
        <time>2020-06-05T13:32:00Z</time>
      </trkpt>
      <trkpt lat="47.24575" lon="-2.15875">
        <ele>8.4</ele>
        <time>2020-06-05T13:32:01Z</time>
      </trkpt>
      <trkpt lat="47.24577" lon="-2.15878">
        <ele>8.5</ele>
        <time>2020-06-05T13:32:02Z</time>
      </trkpt>
      <trkpt lat="47.2458" lon="-2.1588">
        <ele>8.5</ele>
        <time>2020-06-05T13:32:03Z</time>
      </trkpt>
      <trkpt lat="47.24581" lon="-2.1588">
        <ele>8.5</ele>
        <time>2020-06-05T13:32:04Z</time>
      </trkpt>
      <trkpt lat="47.24582" lon="-2.15882">
        <ele>8.5</ele>
        <time>2020-06-05T13:32:05Z</time>
      </trkpt>
      <trkpt lat="47.24583" lon="-2.15884">
        <ele>8.6</ele>
        <time>2020-06-05T13:32:06Z</time>
      </trkpt>
      <trkpt lat="47.24584" lon="-2.15885">
        <ele>8.6</ele>
        <time>2020-06-05T13:32:07Z</time>
      </trkpt>
      <trkpt lat="47.24586" lon="-2.15887">
        <ele>8.6</ele>
        <time>2020-06-05T13:32:08Z</time>
      </trkpt>
      <trkpt lat="47.24588" lon="-2.1589">
        <ele>8.7</ele>
        <time>2020-06-05T13:32:09Z</time>
      </trkpt>
      <trkpt lat="47.24589" lon="-2.15891">
        <ele>8.7</ele>
        <time>2020-06-05T13:32:10Z</time>
      </trkpt>
      <trkpt lat="47.24591" lon="-2.15894">
        <ele>8.8</ele>
        <time>2020-06-05T13:32:11Z</time>
      </trkpt>
      <trkpt lat="47.24591" lon="-2.15895">
        <ele>8.8</ele>
        <time>2020-06-05T13:32:12Z</time>
      </trkpt>
      <trkpt lat="47.24592" lon="-2.15896">
        <ele>8.8</ele>
        <time>2020-06-05T13:32:13Z</time>
      </trkpt>
      <trkpt lat="47.24592" lon="-2.15898">
        <ele>8.8</ele>
        <time>2020-06-05T13:32:14Z</time>
      </trkpt>
      <trkpt lat="47.24592" lon="-2.15899">
        <ele>8.9</ele>
        <time>2020-06-05T13:32:15Z</time>
      </trkpt>
      <trkpt lat="47.24592" lon="-2.15899">
        <ele>8.9</ele>
        <time>2020-06-05T13:32:16Z</time>
      </trkpt>
      <trkpt lat="47.24591" lon="-2.159">
        <ele>8.9</ele>
        <time>2020-06-05T13:32:17Z</time>
      </trkpt>
      <trkpt lat="47.2459" lon="-2.15899">
        <ele>8.9</ele>
        <time>2020-06-05T13:32:18Z</time>
      </trkpt>
      <trkpt lat="47.24589" lon="-2.15898">
        <ele>8.9</ele>
        <time>2020-06-05T13:32:19Z</time>
      </trkpt>
      <trkpt lat="47.24589" lon="-2.15898">
        <ele>9</ele>
        <time>2020-06-05T13:32:20Z</time>
      </trkpt>
      <trkpt lat="47.24588" lon="-2.15898">
        <ele>9</ele>
        <time>2020-06-05T13:32:21Z</time>
      </trkpt>
      <trkpt lat="47.24588" lon="-2.15899">
        <ele>9</ele>
        <time>2020-06-05T13:32:22Z</time>
      </trkpt>
      <trkpt lat="47.24588" lon="-2.15899">
        <ele>9</ele>
        <time>2020-06-05T13:32:23Z</time>
      </trkpt>
      <trkpt lat="47.24588" lon="-2.15898">
        <ele>9</ele>
        <time>2020-06-05T13:32:24Z</time>
      </trkpt>
      <trkpt lat="47.24588" lon="-2.15898">
        <ele>9</ele>
        <time>2020-06-05T13:32:25Z</time>
      </trkpt>
      <trkpt lat="47.24588" lon="-2.15897">
        <ele>9.1</ele>
        <time>2020-06-05T13:32:26Z</time>
      </trkpt>
      <trkpt lat="47.24589" lon="-2.15898">
        <ele>9.1</ele>
        <time>2020-06-05T13:32:27Z</time>
      </trkpt>
      <trkpt lat="47.24588" lon="-2.15898">
        <ele>9.1</ele>
        <time>2020-06-05T13:32:28Z</time>
      </trkpt>
      <trkpt lat="47.24589" lon="-2.15898">
        <ele>9.1</ele>
        <time>2020-06-05T13:32:29Z</time>
      </trkpt>
      <trkpt lat="47.24588" lon="-2.15898">
        <ele>9.1</ele>
        <time>2020-06-05T13:32:30Z</time>
      </trkpt>
      <trkpt lat="47.24588" lon="-2.15899">
        <ele>9.1</ele>
        <time>2020-06-05T13:32:31Z</time>
      </trkpt>
      <trkpt lat="47.24588" lon="-2.15898">
        <ele>9.1</ele>
        <time>2020-06-05T13:32:32Z</time>
      </trkpt>
      <trkpt lat="47.24588" lon="-2.15899">
        <ele>9.1</ele>
        <time>2020-06-05T13:32:33Z</time>
      </trkpt>
      <trkpt lat="47.24588" lon="-2.15897">
        <ele>9.2</ele>
        <time>2020-06-05T13:32:34Z</time>
      </trkpt>
      <trkpt lat="47.24587" lon="-2.15896">
        <ele>9.2</ele>
        <time>2020-06-05T13:32:35Z</time>
      </trkpt>
      <trkpt lat="47.24587" lon="-2.15896">
        <ele>9.2</ele>
        <time>2020-06-05T13:32:36Z</time>
      </trkpt>
      <trkpt lat="47.24585" lon="-2.15895">
        <ele>9.2</ele>
        <time>2020-06-05T13:32:37Z</time>
      </trkpt>
      <trkpt lat="47.24584" lon="-2.15894">
        <ele>9.2</ele>
        <time>2020-06-05T13:32:38Z</time>
      </trkpt>
      <trkpt lat="47.24583" lon="-2.15893">
        <ele>9.1</ele>
        <time>2020-06-05T13:32:39Z</time>
      </trkpt>
      <trkpt lat="47.24582" lon="-2.15893">
        <ele>9.1</ele>
        <time>2020-06-05T13:32:40Z</time>
      </trkpt>
      <trkpt lat="47.2458" lon="-2.15892">
        <ele>9</ele>
        <time>2020-06-05T13:32:41Z</time>
      </trkpt>
      <trkpt lat="47.24579" lon="-2.15891">
        <ele>9</ele>
        <time>2020-06-05T13:32:42Z</time>
      </trkpt>
      <trkpt lat="47.24578" lon="-2.15891">
        <ele>8.9</ele>
        <time>2020-06-05T13:32:43Z</time>
      </trkpt>
      <trkpt lat="47.24577" lon="-2.1589">
        <ele>8.9</ele>
        <time>2020-06-05T13:32:44Z</time>
      </trkpt>
      <trkpt lat="47.24576" lon="-2.15888">
        <ele>8.8</ele>
        <time>2020-06-05T13:32:45Z</time>
      </trkpt>
      <trkpt lat="47.24575" lon="-2.15886">
        <ele>8.8</ele>
        <time>2020-06-05T13:32:46Z</time>
      </trkpt>
      <trkpt lat="47.24575" lon="-2.15885">
        <ele>8.8</ele>
        <time>2020-06-05T13:32:47Z</time>
      </trkpt>
      <trkpt lat="47.24574" lon="-2.15882">
        <ele>8.7</ele>
        <time>2020-06-05T13:32:48Z</time>
      </trkpt>
      <trkpt lat="47.24573" lon="-2.15881">
        <ele>8.7</ele>
        <time>2020-06-05T13:32:49Z</time>
      </trkpt>
      <trkpt lat="47.24573" lon="-2.1588">
        <ele>8.7</ele>
        <time>2020-06-05T13:32:50Z</time>
      </trkpt>
      <trkpt lat="47.24572" lon="-2.1588">
        <ele>8.7</ele>
        <time>2020-06-05T13:32:51Z</time>
      </trkpt>
      <trkpt lat="47.24572" lon="-2.1588">
        <ele>8.7</ele>
        <time>2020-06-05T13:32:52Z</time>
      </trkpt>
      <trkpt lat="47.24572" lon="-2.15879">
        <ele>8.7</ele>
        <time>2020-06-05T13:32:53Z</time>
      </trkpt>
      <trkpt lat="47.24571" lon="-2.15879">
        <ele>8.6</ele>
        <time>2020-06-05T13:32:54Z</time>
      </trkpt>
      <trkpt lat="47.24571" lon="-2.15879">
        <ele>8.6</ele>
        <time>2020-06-05T13:32:55Z</time>
      </trkpt>
      <trkpt lat="47.2457" lon="-2.15878">
        <ele>8.6</ele>
        <time>2020-06-05T13:32:56Z</time>
      </trkpt>
      <trkpt lat="47.2457" lon="-2.15878">
        <ele>8.6</ele>
        <time>2020-06-05T13:32:57Z</time>
      </trkpt>
      <trkpt lat="47.2457" lon="-2.15877">
        <ele>8.6</ele>
        <time>2020-06-05T13:32:58Z</time>
      </trkpt>
      <trkpt lat="47.24569" lon="-2.15877">
        <ele>8.6</ele>
        <time>2020-06-05T13:33:21Z</time>
      </trkpt>
      <trkpt lat="47.24569" lon="-2.15877">
        <ele>8.6</ele>
        <time>2020-06-05T13:33:22Z</time>
      </trkpt>
      <trkpt lat="47.24569" lon="-2.15876">
        <ele>8.6</ele>
        <time>2020-06-05T13:33:23Z</time>
      </trkpt>
      <trkpt lat="47.24565" lon="-2.15874">
        <ele>8.5</ele>
        <time>2020-06-05T13:33:24Z</time>
      </trkpt>
      <trkpt lat="47.24564" lon="-2.15872">
        <ele>8.5</ele>
        <time>2020-06-05T13:33:25Z</time>
      </trkpt>
      <trkpt lat="47.24561" lon="-2.15869">
        <ele>8.4</ele>
        <time>2020-06-05T13:33:26Z</time>
      </trkpt>
      <trkpt lat="47.24558" lon="-2.15866">
        <ele>8.3</ele>
        <time>2020-06-05T13:33:27Z</time>
      </trkpt>
      <trkpt lat="47.24556" lon="-2.15863">
        <ele>8.2</ele>
        <time>2020-06-05T13:33:28Z</time>
      </trkpt>
      <trkpt lat="47.24553" lon="-2.1586">
        <ele>8.2</ele>
        <time>2020-06-05T13:33:29Z</time>
      </trkpt>
      <trkpt lat="47.2455" lon="-2.15857">
        <ele>8.1</ele>
        <time>2020-06-05T13:33:30Z</time>
      </trkpt>
      <trkpt lat="47.24547" lon="-2.15853">
        <ele>8.1</ele>
        <time>2020-06-05T13:33:31Z</time>
      </trkpt>
      <trkpt lat="47.24543" lon="-2.1585">
        <ele>8</ele>
        <time>2020-06-05T13:33:32Z</time>
      </trkpt>
      <trkpt lat="47.2454" lon="-2.15846">
        <ele>8</ele>
        <time>2020-06-05T13:33:33Z</time>
      </trkpt>
      <trkpt lat="47.24537" lon="-2.15843">
        <ele>8</ele>
        <time>2020-06-05T13:33:34Z</time>
      </trkpt>
      <trkpt lat="47.24533" lon="-2.1584">
        <ele>8.3</ele>
        <time>2020-06-05T13:33:35Z</time>
      </trkpt>
      <trkpt lat="47.2453" lon="-2.15837">
        <ele>8.2</ele>
        <time>2020-06-05T13:33:36Z</time>
      </trkpt>
      <trkpt lat="47.24526" lon="-2.15834">
        <ele>8.2</ele>
        <time>2020-06-05T13:33:37Z</time>
      </trkpt>
      <trkpt lat="47.24523" lon="-2.15835">
        <ele>8.2</ele>
        <time>2020-06-05T13:33:38Z</time>
      </trkpt>
      <trkpt lat="47.24519" lon="-2.15837">
        <ele>8</ele>
        <time>2020-06-05T13:33:39Z</time>
      </trkpt>
      <trkpt lat="47.24515" lon="-2.1584">
        <ele>7.9</ele>
        <time>2020-06-05T13:33:40Z</time>
      </trkpt>
      <trkpt lat="47.2451" lon="-2.15841">
        <ele>7.7</ele>
        <time>2020-06-05T13:33:41Z</time>
      </trkpt>
      <trkpt lat="47.24505" lon="-2.15842">
        <ele>7.5</ele>
        <time>2020-06-05T13:33:42Z</time>
      </trkpt>
      <trkpt lat="47.24499" lon="-2.15841">
        <ele>7.3</ele>
        <time>2020-06-05T13:33:43Z</time>
      </trkpt>
      <trkpt lat="47.24493" lon="-2.1584">
        <ele>7.1</ele>
        <time>2020-06-05T13:33:44Z</time>
      </trkpt>
      <trkpt lat="47.24488" lon="-2.15837">
        <ele>7</ele>
        <time>2020-06-05T13:33:45Z</time>
      </trkpt>
      <trkpt lat="47.24483" lon="-2.15832">
        <ele>7.2</ele>
        <time>2020-06-05T13:33:46Z</time>
      </trkpt>
      <trkpt lat="47.24479" lon="-2.15825">
        <ele>7.3</ele>
        <time>2020-06-05T13:33:47Z</time>
      </trkpt>
      <trkpt lat="47.24476" lon="-2.15818">
        <ele>7.4</ele>
        <time>2020-06-05T13:33:48Z</time>
      </trkpt>
      <trkpt lat="47.24474" lon="-2.15811">
        <ele>7.5</ele>
        <time>2020-06-05T13:33:49Z</time>
      </trkpt>
      <trkpt lat="47.24473" lon="-2.15804">
        <ele>7.7</ele>
        <time>2020-06-05T13:33:50Z</time>
      </trkpt>
      <trkpt lat="47.24473" lon="-2.15796">
        <ele>7.8</ele>
        <time>2020-06-05T13:33:51Z</time>
      </trkpt>
      <trkpt lat="47.24473" lon="-2.15788">
        <ele>7.9</ele>
        <time>2020-06-05T13:33:52Z</time>
      </trkpt>
      <trkpt lat="47.24474" lon="-2.15781">
        <ele>8.1</ele>
        <time>2020-06-05T13:33:53Z</time>
      </trkpt>
      <trkpt lat="47.24475" lon="-2.15777">
        <ele>8.2</ele>
        <time>2020-06-05T13:33:54Z</time>
      </trkpt>
      <trkpt lat="47.24476" lon="-2.15771">
        <ele>8.3</ele>
        <time>2020-06-05T13:33:55Z</time>
      </trkpt>
      <trkpt lat="47.24479" lon="-2.15766">
        <ele>8.4</ele>
        <time>2020-06-05T13:33:56Z</time>
      </trkpt>
      <trkpt lat="47.24482" lon="-2.1576">
        <ele>8.4</ele>
        <time>2020-06-05T13:33:57Z</time>
      </trkpt>
      <trkpt lat="47.24484" lon="-2.15756">
        <ele>8.5</ele>
        <time>2020-06-05T13:33:58Z</time>
      </trkpt>
      <trkpt lat="47.24488" lon="-2.15754">
        <ele>8.5</ele>
        <time>2020-06-05T13:33:59Z</time>
      </trkpt>
      <trkpt lat="47.24492" lon="-2.15752">
        <ele>8.5</ele>
        <time>2020-06-05T13:34:00Z</time>
      </trkpt>
      <trkpt lat="47.24496" lon="-2.15751">
        <ele>8.5</ele>
        <time>2020-06-05T13:34:01Z</time>
      </trkpt>
      <trkpt lat="47.24501" lon="-2.1575">
        <ele>8.5</ele>
        <time>2020-06-05T13:34:02Z</time>
      </trkpt>
      <trkpt lat="47.24505" lon="-2.1575">
        <ele>8.5</ele>
        <time>2020-06-05T13:34:03Z</time>
      </trkpt>
      <trkpt lat="47.2451" lon="-2.1575">
        <ele>8.6</ele>
        <time>2020-06-05T13:34:04Z</time>
      </trkpt>
      <trkpt lat="47.24514" lon="-2.1575">
        <ele>8.6</ele>
        <time>2020-06-05T13:34:05Z</time>
      </trkpt>
      <trkpt lat="47.24518" lon="-2.15751">
        <ele>8.6</ele>
        <time>2020-06-05T13:34:06Z</time>
      </trkpt>
      <trkpt lat="47.24523" lon="-2.15753">
        <ele>8.7</ele>
        <time>2020-06-05T13:34:07Z</time>
      </trkpt>
      <trkpt lat="47.24527" lon="-2.15754">
        <ele>8.7</ele>
        <time>2020-06-05T13:34:08Z</time>
      </trkpt>
      <trkpt lat="47.24531" lon="-2.15755">
        <ele>8.7</ele>
        <time>2020-06-05T13:34:09Z</time>
      </trkpt>
      <trkpt lat="47.24535" lon="-2.15756">
        <ele>8.7</ele>
        <time>2020-06-05T13:34:10Z</time>
      </trkpt>
      <trkpt lat="47.24539" lon="-2.15755">
        <ele>8.7</ele>
        <time>2020-06-05T13:34:11Z</time>
      </trkpt>
      <trkpt lat="47.24542" lon="-2.15753">
        <ele>8.7</ele>
        <time>2020-06-05T13:34:12Z</time>
      </trkpt>
      <trkpt lat="47.24545" lon="-2.15751">
        <ele>8.7</ele>
        <time>2020-06-05T13:34:13Z</time>
      </trkpt>
      <trkpt lat="47.24548" lon="-2.15748">
        <ele>8.7</ele>
        <time>2020-06-05T13:34:14Z</time>
      </trkpt>
      <trkpt lat="47.24551" lon="-2.15745">
        <ele>8.7</ele>
        <time>2020-06-05T13:34:15Z</time>
      </trkpt>
      <trkpt lat="47.24555" lon="-2.15741">
        <ele>8.7</ele>
        <time>2020-06-05T13:34:16Z</time>
      </trkpt>
      <trkpt lat="47.24558" lon="-2.15739">
        <ele>8.7</ele>
        <time>2020-06-05T13:34:17Z</time>
      </trkpt>
      <trkpt lat="47.24562" lon="-2.15739">
        <ele>8.7</ele>
        <time>2020-06-05T13:34:18Z</time>
      </trkpt>
      <trkpt lat="47.24563" lon="-2.1574">
        <ele>8.7</ele>
        <time>2020-06-05T13:34:19Z</time>
      </trkpt>
      <trkpt lat="47.24564" lon="-2.15745">
        <ele>8.8</ele>
        <time>2020-06-05T13:34:20Z</time>
      </trkpt>
      <trkpt lat="47.24564" lon="-2.15747">
        <ele>8.8</ele>
        <time>2020-06-05T13:34:21Z</time>
      </trkpt>
      <trkpt lat="47.24561" lon="-2.15751">
        <ele>8.8</ele>
        <time>2020-06-05T13:34:22Z</time>
      </trkpt>
      <trkpt lat="47.24558" lon="-2.15756">
        <ele>8.8</ele>
        <time>2020-06-05T13:34:23Z</time>
      </trkpt>
      <trkpt lat="47.24556" lon="-2.15761">
        <ele>8.8</ele>
        <time>2020-06-05T13:34:24Z</time>
      </trkpt>
      <trkpt lat="47.24554" lon="-2.15765">
        <ele>8.8</ele>
        <time>2020-06-05T13:34:25Z</time>
      </trkpt>
      <trkpt lat="47.24553" lon="-2.15769">
        <ele>8.8</ele>
        <time>2020-06-05T13:34:26Z</time>
      </trkpt>
      <trkpt lat="47.24552" lon="-2.15771">
        <ele>8.8</ele>
        <time>2020-06-05T13:34:27Z</time>
      </trkpt>
      <trkpt lat="47.24552" lon="-2.15774">
        <ele>8.8</ele>
        <time>2020-06-05T13:34:28Z</time>
      </trkpt>
      <trkpt lat="47.24552" lon="-2.15775">
        <ele>8.8</ele>
        <time>2020-06-05T13:34:29Z</time>
      </trkpt>
      <trkpt lat="47.24552" lon="-2.15777">
        <ele>8.8</ele>
        <time>2020-06-05T13:34:30Z</time>
      </trkpt>
      <trkpt lat="47.24552" lon="-2.15778">
        <ele>8.8</ele>
        <time>2020-06-05T13:34:31Z</time>
      </trkpt>
      <trkpt lat="47.24553" lon="-2.15779">
        <ele>8.8</ele>
        <time>2020-06-05T13:34:32Z</time>
      </trkpt>
      <trkpt lat="47.24553" lon="-2.1578">
        <ele>8.8</ele>
        <time>2020-06-05T13:34:33Z</time>
      </trkpt>
      <trkpt lat="47.24553" lon="-2.15781">
        <ele>8.8</ele>
        <time>2020-06-05T13:34:34Z</time>
      </trkpt>
      <trkpt lat="47.24553" lon="-2.1578">
        <ele>8.8</ele>
        <time>2020-06-05T13:34:35Z</time>
      </trkpt>
      <trkpt lat="47.24553" lon="-2.1578">
        <ele>8.8</ele>
        <time>2020-06-05T13:34:36Z</time>
      </trkpt>
      <trkpt lat="47.24553" lon="-2.15781">
        <ele>8.8</ele>
        <time>2020-06-05T13:34:37Z</time>
      </trkpt>
      <trkpt lat="47.24553" lon="-2.15781">
        <ele>8.8</ele>
        <time>2020-06-05T13:34:38Z</time>
      </trkpt>
      <trkpt lat="47.24553" lon="-2.15781">
        <ele>8.8</ele>
        <time>2020-06-05T13:34:39Z</time>
      </trkpt>
      <trkpt lat="47.24553" lon="-2.15781">
        <ele>8.8</ele>
        <time>2020-06-05T13:34:40Z</time>
      </trkpt>
      <trkpt lat="47.24553" lon="-2.15781">
        <ele>8.8</ele>
        <time>2020-06-05T13:34:41Z</time>
      </trkpt>
      <trkpt lat="47.24553" lon="-2.15781">
        <ele>8.9</ele>
        <time>2020-06-05T13:34:42Z</time>
      </trkpt>
      <trkpt lat="47.24553" lon="-2.15781">
        <ele>8.9</ele>
        <time>2020-06-05T13:34:43Z</time>
      </trkpt>
      <trkpt lat="47.24553" lon="-2.15781">
        <ele>8.9</ele>
        <time>2020-06-05T13:34:44Z</time>
      </trkpt>
      <trkpt lat="47.24546" lon="-2.15775">
        <ele>8.9</ele>
        <time>2020-06-05T13:39:57Z</time>
      </trkpt>
      <trkpt lat="47.24545" lon="-2.15775">
        <ele>8.9</ele>
        <time>2020-06-05T13:39:58Z</time>
      </trkpt>
      <trkpt lat="47.24544" lon="-2.15775">
        <ele>8.9</ele>
        <time>2020-06-05T13:39:59Z</time>
      </trkpt>
      <trkpt lat="47.24544" lon="-2.15774">
        <ele>8.9</ele>
        <time>2020-06-05T13:40:00Z</time>
      </trkpt>
      <trkpt lat="47.24543" lon="-2.15775">
        <ele>8.9</ele>
        <time>2020-06-05T13:40:01Z</time>
      </trkpt>
      <trkpt lat="47.24543" lon="-2.15777">
        <ele>8.9</ele>
        <time>2020-06-05T13:40:02Z</time>
      </trkpt>
      <trkpt lat="47.24542" lon="-2.15778">
        <ele>8.9</ele>
        <time>2020-06-05T13:40:03Z</time>
      </trkpt>
      <trkpt lat="47.24542" lon="-2.15779">
        <ele>8.9</ele>
        <time>2020-06-05T13:40:04Z</time>
      </trkpt>
      <trkpt lat="47.24541" lon="-2.15784">
        <ele>9.2</ele>
        <time>2020-06-05T13:40:05Z</time>
      </trkpt>
      <trkpt lat="47.2454" lon="-2.15785">
        <ele>9.2</ele>
        <time>2020-06-05T13:40:06Z</time>
      </trkpt>
      <trkpt lat="47.24539" lon="-2.1579">
        <ele>9.2</ele>
        <time>2020-06-05T13:40:07Z</time>
      </trkpt>
      <trkpt lat="47.24539" lon="-2.15792">
        <ele>9.2</ele>
        <time>2020-06-05T13:40:08Z</time>
      </trkpt>
      <trkpt lat="47.24539" lon="-2.15798">
        <ele>9.2</ele>
        <time>2020-06-05T13:40:09Z</time>
      </trkpt>
      <trkpt lat="47.24539" lon="-2.15803">
        <ele>8.8</ele>
        <time>2020-06-05T13:40:10Z</time>
      </trkpt>
      <trkpt lat="47.24538" lon="-2.15809">
        <ele>8.7</ele>
        <time>2020-06-05T13:40:11Z</time>
      </trkpt>
      <trkpt lat="47.24537" lon="-2.15814">
        <ele>8.6</ele>
        <time>2020-06-05T13:40:12Z</time>
      </trkpt>
      <trkpt lat="47.24535" lon="-2.15819">
        <ele>8.5</ele>
        <time>2020-06-05T13:40:13Z</time>
      </trkpt>
      <trkpt lat="47.24533" lon="-2.15823">
        <ele>8.4</ele>
        <time>2020-06-05T13:40:14Z</time>
      </trkpt>
      <trkpt lat="47.24531" lon="-2.15828">
        <ele>8.4</ele>
        <time>2020-06-05T13:40:15Z</time>
      </trkpt>
      <trkpt lat="47.24528" lon="-2.15833">
        <ele>8.3</ele>
        <time>2020-06-05T13:40:16Z</time>
      </trkpt>
      <trkpt lat="47.24524" lon="-2.15837">
        <ele>8.2</ele>
        <time>2020-06-05T13:40:17Z</time>
      </trkpt>
      <trkpt lat="47.24521" lon="-2.15841">
        <ele>8.2</ele>
        <time>2020-06-05T13:40:18Z</time>
      </trkpt>
      <trkpt lat="47.24517" lon="-2.15845">
        <ele>7.9</ele>
        <time>2020-06-05T13:40:19Z</time>
      </trkpt>
      <trkpt lat="47.24512" lon="-2.15849">
        <ele>7.7</ele>
        <time>2020-06-05T13:40:20Z</time>
      </trkpt>
      <trkpt lat="47.24508" lon="-2.15855">
        <ele>7.4</ele>
        <time>2020-06-05T13:40:21Z</time>
      </trkpt>
      <trkpt lat="47.24506" lon="-2.15864">
        <ele>7.1</ele>
        <time>2020-06-05T13:40:22Z</time>
      </trkpt>
      <trkpt lat="47.24505" lon="-2.15873">
        <ele>6.9</ele>
        <time>2020-06-05T13:40:23Z</time>
      </trkpt>
      <trkpt lat="47.24504" lon="-2.15883">
        <ele>6.6</ele>
        <time>2020-06-05T13:40:24Z</time>
      </trkpt>
      <trkpt lat="47.24503" lon="-2.15894">
        <ele>6.3</ele>
        <time>2020-06-05T13:40:25Z</time>
      </trkpt>
      <trkpt lat="47.24503" lon="-2.15905">
        <ele>6</ele>
        <time>2020-06-05T13:40:26Z</time>
      </trkpt>
      <trkpt lat="47.24503" lon="-2.15914">
        <ele>5.9</ele>
        <time>2020-06-05T13:40:27Z</time>
      </trkpt>
      <trkpt lat="47.24503" lon="-2.15923">
        <ele>5.8</ele>
        <time>2020-06-05T13:40:28Z</time>
      </trkpt>
      <trkpt lat="47.24504" lon="-2.15932">
        <ele>5.6</ele>
        <time>2020-06-05T13:40:29Z</time>
      </trkpt>
      <trkpt lat="47.24505" lon="-2.15942">
        <ele>5.5</ele>
        <time>2020-06-05T13:40:30Z</time>
      </trkpt>
      <trkpt lat="47.24505" lon="-2.15951">
        <ele>5.3</ele>
        <time>2020-06-05T13:40:31Z</time>
      </trkpt>
      <trkpt lat="47.24505" lon="-2.1596">
        <ele>5.3</ele>
        <time>2020-06-05T13:40:32Z</time>
      </trkpt>
      <trkpt lat="47.24505" lon="-2.15969">
        <ele>5.2</ele>
        <time>2020-06-05T13:40:33Z</time>
      </trkpt>
      <trkpt lat="47.24505" lon="-2.15978">
        <ele>5.1</ele>
        <time>2020-06-05T13:40:34Z</time>
      </trkpt>
      <trkpt lat="47.24506" lon="-2.15985">
        <ele>5.1</ele>
        <time>2020-06-05T13:40:35Z</time>
      </trkpt>
      <trkpt lat="47.24508" lon="-2.15993">
        <ele>5</ele>
        <time>2020-06-05T13:40:36Z</time>
      </trkpt>
      <trkpt lat="47.24509" lon="-2.16">
        <ele>5</ele>
        <time>2020-06-05T13:40:37Z</time>
      </trkpt>
      <trkpt lat="47.24511" lon="-2.16007">
        <ele>5</ele>
        <time>2020-06-05T13:40:38Z</time>
      </trkpt>
      <trkpt lat="47.24514" lon="-2.16014">
        <ele>5</ele>
        <time>2020-06-05T13:40:39Z</time>
      </trkpt>
      <trkpt lat="47.24515" lon="-2.16021">
        <ele>5</ele>
        <time>2020-06-05T13:40:40Z</time>
      </trkpt>
      <trkpt lat="47.24517" lon="-2.16029">
        <ele>5</ele>
        <time>2020-06-05T13:40:41Z</time>
      </trkpt>
      <trkpt lat="47.24518" lon="-2.16037">
        <ele>5</ele>
        <time>2020-06-05T13:40:42Z</time>
      </trkpt>
      <trkpt lat="47.24518" lon="-2.16049">
        <ele>5</ele>
        <time>2020-06-05T13:40:43Z</time>
      </trkpt>
      <trkpt lat="47.24518" lon="-2.16059">
        <ele>5.1</ele>
        <time>2020-06-05T13:40:44Z</time>
      </trkpt>
      <trkpt lat="47.24519" lon="-2.16068">
        <ele>5.1</ele>
        <time>2020-06-05T13:40:45Z</time>
      </trkpt>
      <trkpt lat="47.2452" lon="-2.16076">
        <ele>5.2</ele>
        <time>2020-06-05T13:40:46Z</time>
      </trkpt>
      <trkpt lat="47.24521" lon="-2.16085">
        <ele>5.3</ele>
        <time>2020-06-05T13:40:47Z</time>
      </trkpt>
      <trkpt lat="47.24522" lon="-2.16094">
        <ele>5.4</ele>
        <time>2020-06-05T13:40:48Z</time>
      </trkpt>
      <trkpt lat="47.24523" lon="-2.16102">
        <ele>5.5</ele>
        <time>2020-06-05T13:40:49Z</time>
      </trkpt>
      <trkpt lat="47.24525" lon="-2.1611">
        <ele>5.6</ele>
        <time>2020-06-05T13:40:50Z</time>
      </trkpt>
      <trkpt lat="47.24526" lon="-2.16118">
        <ele>5.7</ele>
        <time>2020-06-05T13:40:51Z</time>
      </trkpt>
      <trkpt lat="47.24527" lon="-2.16127">
        <ele>5.8</ele>
        <time>2020-06-05T13:40:52Z</time>
      </trkpt>
      <trkpt lat="47.24528" lon="-2.16135">
        <ele>5.9</ele>
        <time>2020-06-05T13:40:53Z</time>
      </trkpt>
      <trkpt lat="47.2453" lon="-2.16142">
        <ele>6</ele>
        <time>2020-06-05T13:40:54Z</time>
      </trkpt>
      <trkpt lat="47.24531" lon="-2.1615">
        <ele>6.1</ele>
        <time>2020-06-05T13:40:55Z</time>
      </trkpt>
      <trkpt lat="47.24532" lon="-2.16158">
        <ele>6.2</ele>
        <time>2020-06-05T13:40:56Z</time>
      </trkpt>
      <trkpt lat="47.24533" lon="-2.16166">
        <ele>6.4</ele>
        <time>2020-06-05T13:40:57Z</time>
      </trkpt>
      <trkpt lat="47.24533" lon="-2.16174">
        <ele>6.6</ele>
        <time>2020-06-05T13:40:58Z</time>
      </trkpt>
      <trkpt lat="47.24533" lon="-2.16181">
        <ele>6.8</ele>
        <time>2020-06-05T13:40:59Z</time>
      </trkpt>
      <trkpt lat="47.24532" lon="-2.16187">
        <ele>6.9</ele>
        <time>2020-06-05T13:41:00Z</time>
      </trkpt>
      <trkpt lat="47.2453" lon="-2.16194">
        <ele>7.1</ele>
        <time>2020-06-05T13:41:01Z</time>
      </trkpt>
      <trkpt lat="47.24527" lon="-2.16199">
        <ele>7.2</ele>
        <time>2020-06-05T13:41:02Z</time>
      </trkpt>
      <trkpt lat="47.24525" lon="-2.16205">
        <ele>7.4</ele>
        <time>2020-06-05T13:41:03Z</time>
      </trkpt>
      <trkpt lat="47.24523" lon="-2.1621">
        <ele>7.6</ele>
        <time>2020-06-05T13:41:04Z</time>
      </trkpt>
      <trkpt lat="47.24521" lon="-2.16216">
        <ele>7.7</ele>
        <time>2020-06-05T13:41:05Z</time>
      </trkpt>
      <trkpt lat="47.24519" lon="-2.1622">
        <ele>7.9</ele>
        <time>2020-06-05T13:41:06Z</time>
      </trkpt>
      <trkpt lat="47.24518" lon="-2.16225">
        <ele>8.1</ele>
        <time>2020-06-05T13:41:07Z</time>
      </trkpt>
      <trkpt lat="47.24516" lon="-2.1623">
        <ele>8.3</ele>
        <time>2020-06-05T13:41:08Z</time>
      </trkpt>
      <trkpt lat="47.24516" lon="-2.16235">
        <ele>8.6</ele>
        <time>2020-06-05T13:41:09Z</time>
      </trkpt>
      <trkpt lat="47.24516" lon="-2.1624">
        <ele>8.7</ele>
        <time>2020-06-05T13:41:10Z</time>
      </trkpt>
      <trkpt lat="47.24515" lon="-2.16246">
        <ele>8.9</ele>
        <time>2020-06-05T13:41:11Z</time>
      </trkpt>
      <trkpt lat="47.24516" lon="-2.16251">
        <ele>9</ele>
        <time>2020-06-05T13:41:12Z</time>
      </trkpt>
      <trkpt lat="47.24517" lon="-2.16257">
        <ele>9</ele>
        <time>2020-06-05T13:41:13Z</time>
      </trkpt>
      <trkpt lat="47.24518" lon="-2.16262">
        <ele>9.1</ele>
        <time>2020-06-05T13:41:14Z</time>
      </trkpt>
      <trkpt lat="47.24521" lon="-2.16265">
        <ele>9.1</ele>
        <time>2020-06-05T13:41:15Z</time>
      </trkpt>
      <trkpt lat="47.24525" lon="-2.16267">
        <ele>9.2</ele>
        <time>2020-06-05T13:41:16Z</time>
      </trkpt>
      <trkpt lat="47.24529" lon="-2.16268">
        <ele>9.2</ele>
        <time>2020-06-05T13:41:17Z</time>
      </trkpt>
      <trkpt lat="47.24534" lon="-2.16267">
        <ele>9.3</ele>
        <time>2020-06-05T13:41:18Z</time>
      </trkpt>
      <trkpt lat="47.2454" lon="-2.16267">
        <ele>9.3</ele>
        <time>2020-06-05T13:41:19Z</time>
      </trkpt>
      <trkpt lat="47.24545" lon="-2.16267">
        <ele>9.3</ele>
        <time>2020-06-05T13:41:20Z</time>
      </trkpt>
      <trkpt lat="47.2455" lon="-2.16266">
        <ele>9.4</ele>
        <time>2020-06-05T13:41:21Z</time>
      </trkpt>
      <trkpt lat="47.24555" lon="-2.16266">
        <ele>9.4</ele>
        <time>2020-06-05T13:41:22Z</time>
      </trkpt>
      <trkpt lat="47.2456" lon="-2.16265">
        <ele>9.4</ele>
        <time>2020-06-05T13:41:23Z</time>
      </trkpt>
      <trkpt lat="47.24565" lon="-2.16264">
        <ele>9.5</ele>
        <time>2020-06-05T13:41:24Z</time>
      </trkpt>
      <trkpt lat="47.24571" lon="-2.16266">
        <ele>9.6</ele>
        <time>2020-06-05T13:41:25Z</time>
      </trkpt>
      <trkpt lat="47.24575" lon="-2.16267">
        <ele>9.7</ele>
        <time>2020-06-05T13:41:26Z</time>
      </trkpt>
      <trkpt lat="47.2458" lon="-2.16267">
        <ele>9.7</ele>
        <time>2020-06-05T13:41:27Z</time>
      </trkpt>
      <trkpt lat="47.24585" lon="-2.16267">
        <ele>9.7</ele>
        <time>2020-06-05T13:41:28Z</time>
      </trkpt>
      <trkpt lat="47.2459" lon="-2.16268">
        <ele>9.7</ele>
        <time>2020-06-05T13:41:29Z</time>
      </trkpt>
      <trkpt lat="47.24595" lon="-2.16268">
        <ele>9.8</ele>
        <time>2020-06-05T13:41:30Z</time>
      </trkpt>
      <trkpt lat="47.24601" lon="-2.16267">
        <ele>9.8</ele>
        <time>2020-06-05T13:41:31Z</time>
      </trkpt>
      <trkpt lat="47.24607" lon="-2.16267">
        <ele>9.8</ele>
        <time>2020-06-05T13:41:32Z</time>
      </trkpt>
      <trkpt lat="47.24613" lon="-2.16267">
        <ele>9.7</ele>
        <time>2020-06-05T13:41:33Z</time>
      </trkpt>
      <trkpt lat="47.24619" lon="-2.16267">
        <ele>9.7</ele>
        <time>2020-06-05T13:41:34Z</time>
      </trkpt>
      <trkpt lat="47.24624" lon="-2.16266">
        <ele>9.7</ele>
        <time>2020-06-05T13:41:35Z</time>
      </trkpt>
      <trkpt lat="47.2463" lon="-2.16265">
        <ele>9.7</ele>
        <time>2020-06-05T13:41:36Z</time>
      </trkpt>
      <trkpt lat="47.24636" lon="-2.16265">
        <ele>9.7</ele>
        <time>2020-06-05T13:41:37Z</time>
      </trkpt>
      <trkpt lat="47.24641" lon="-2.16263">
        <ele>9.7</ele>
        <time>2020-06-05T13:41:38Z</time>
      </trkpt>
      <trkpt lat="47.24647" lon="-2.16262">
        <ele>9.7</ele>
        <time>2020-06-05T13:41:39Z</time>
      </trkpt>
      <trkpt lat="47.24652" lon="-2.16264">
        <ele>9.7</ele>
        <time>2020-06-05T13:41:40Z</time>
      </trkpt>
      <trkpt lat="47.24657" lon="-2.16265">
        <ele>9.7</ele>
        <time>2020-06-05T13:41:41Z</time>
      </trkpt>
      <trkpt lat="47.24661" lon="-2.16266">
        <ele>9.7</ele>
        <time>2020-06-05T13:41:42Z</time>
      </trkpt>
      <trkpt lat="47.24665" lon="-2.16269">
        <ele>9.7</ele>
        <time>2020-06-05T13:41:43Z</time>
      </trkpt>
      <trkpt lat="47.24669" lon="-2.16274">
        <ele>9.8</ele>
        <time>2020-06-05T13:41:44Z</time>
      </trkpt>
      <trkpt lat="47.24672" lon="-2.16281">
        <ele>9.8</ele>
        <time>2020-06-05T13:41:45Z</time>
      </trkpt>
      <trkpt lat="47.24675" lon="-2.16286">
        <ele>9.8</ele>
        <time>2020-06-05T13:41:46Z</time>
      </trkpt>
      <trkpt lat="47.24677" lon="-2.16293">
        <ele>9.8</ele>
        <time>2020-06-05T13:41:47Z</time>
      </trkpt>
      <trkpt lat="47.2468" lon="-2.16299">
        <ele>9.8</ele>
        <time>2020-06-05T13:41:48Z</time>
      </trkpt>
      <trkpt lat="47.24683" lon="-2.16305">
        <ele>9.8</ele>
        <time>2020-06-05T13:41:49Z</time>
      </trkpt>
      <trkpt lat="47.24686" lon="-2.16312">
        <ele>9.8</ele>
        <time>2020-06-05T13:41:50Z</time>
      </trkpt>
      <trkpt lat="47.24688" lon="-2.16319">
        <ele>9.8</ele>
        <time>2020-06-05T13:41:51Z</time>
      </trkpt>
      <trkpt lat="47.2469" lon="-2.16325">
        <ele>9.8</ele>
        <time>2020-06-05T13:41:52Z</time>
      </trkpt>
      <trkpt lat="47.24692" lon="-2.1633">
        <ele>9.8</ele>
        <time>2020-06-05T13:41:53Z</time>
      </trkpt>
      <trkpt lat="47.24694" lon="-2.16336">
        <ele>9.7</ele>
        <time>2020-06-05T13:41:54Z</time>
      </trkpt>
      <trkpt lat="47.24696" lon="-2.16341">
        <ele>9.7</ele>
        <time>2020-06-05T13:41:55Z</time>
      </trkpt>
      <trkpt lat="47.24698" lon="-2.16347">
        <ele>9.7</ele>
        <time>2020-06-05T13:41:56Z</time>
      </trkpt>
      <trkpt lat="47.24701" lon="-2.16352">
        <ele>9.7</ele>
        <time>2020-06-05T13:41:57Z</time>
      </trkpt>
      <trkpt lat="47.24702" lon="-2.16358">
        <ele>9.7</ele>
        <time>2020-06-05T13:41:58Z</time>
      </trkpt>
      <trkpt lat="47.24705" lon="-2.16363">
        <ele>9.7</ele>
        <time>2020-06-05T13:41:59Z</time>
      </trkpt>
      <trkpt lat="47.24706" lon="-2.16368">
        <ele>9.6</ele>
        <time>2020-06-05T13:42:00Z</time>
      </trkpt>
      <trkpt lat="47.24708" lon="-2.16372">
        <ele>9.6</ele>
        <time>2020-06-05T13:42:01Z</time>
      </trkpt>
      <trkpt lat="47.24711" lon="-2.16376">
        <ele>9.5</ele>
        <time>2020-06-05T13:42:02Z</time>
      </trkpt>
      <trkpt lat="47.24716" lon="-2.16378">
        <ele>9.5</ele>
        <time>2020-06-05T13:42:03Z</time>
      </trkpt>
      <trkpt lat="47.2472" lon="-2.16379">
        <ele>9.4</ele>
        <time>2020-06-05T13:42:04Z</time>
      </trkpt>
      <trkpt lat="47.24725" lon="-2.16383">
        <ele>9.3</ele>
        <time>2020-06-05T13:42:05Z</time>
      </trkpt>
      <trkpt lat="47.2473" lon="-2.16385">
        <ele>9.1</ele>
        <time>2020-06-05T13:42:06Z</time>
      </trkpt>
      <trkpt lat="47.24735" lon="-2.16386">
        <ele>9</ele>
        <time>2020-06-05T13:42:07Z</time>
      </trkpt>
      <trkpt lat="47.24741" lon="-2.16385">
        <ele>8.9</ele>
        <time>2020-06-05T13:42:08Z</time>
      </trkpt>
      <trkpt lat="47.24746" lon="-2.16387">
        <ele>8.8</ele>
        <time>2020-06-05T13:42:09Z</time>
      </trkpt>
      <trkpt lat="47.24751" lon="-2.16389">
        <ele>8.7</ele>
        <time>2020-06-05T13:42:10Z</time>
      </trkpt>
      <trkpt lat="47.24756" lon="-2.1639">
        <ele>8.7</ele>
        <time>2020-06-05T13:42:11Z</time>
      </trkpt>
      <trkpt lat="47.24761" lon="-2.16391">
        <ele>8.6</ele>
        <time>2020-06-05T13:42:12Z</time>
      </trkpt>
      <trkpt lat="47.24766" lon="-2.16393">
        <ele>8.5</ele>
        <time>2020-06-05T13:42:13Z</time>
      </trkpt>
      <trkpt lat="47.2477" lon="-2.16395">
        <ele>8.4</ele>
        <time>2020-06-05T13:42:14Z</time>
      </trkpt>
      <trkpt lat="47.24774" lon="-2.16396">
        <ele>8.4</ele>
        <time>2020-06-05T13:42:15Z</time>
      </trkpt>
      <trkpt lat="47.24779" lon="-2.16396">
        <ele>8.3</ele>
        <time>2020-06-05T13:42:16Z</time>
      </trkpt>
      <trkpt lat="47.24784" lon="-2.16397">
        <ele>8.3</ele>
        <time>2020-06-05T13:42:17Z</time>
      </trkpt>
      <trkpt lat="47.24789" lon="-2.16398">
        <ele>8.3</ele>
        <time>2020-06-05T13:42:18Z</time>
      </trkpt>
      <trkpt lat="47.24793" lon="-2.16398">
        <ele>8.3</ele>
        <time>2020-06-05T13:42:19Z</time>
      </trkpt>
      <trkpt lat="47.24797" lon="-2.164">
        <ele>8.3</ele>
        <time>2020-06-05T13:42:20Z</time>
      </trkpt>
      <trkpt lat="47.24802" lon="-2.16401">
        <ele>8.2</ele>
        <time>2020-06-05T13:42:21Z</time>
      </trkpt>
      <trkpt lat="47.24806" lon="-2.16404">
        <ele>8.2</ele>
        <time>2020-06-05T13:42:22Z</time>
      </trkpt>
      <trkpt lat="47.24811" lon="-2.16407">
        <ele>8.2</ele>
        <time>2020-06-05T13:42:23Z</time>
      </trkpt>
      <trkpt lat="47.24816" lon="-2.16408">
        <ele>8.2</ele>
        <time>2020-06-05T13:42:24Z</time>
      </trkpt>
      <trkpt lat="47.24823" lon="-2.16409">
        <ele>8.2</ele>
        <time>2020-06-05T13:42:25Z</time>
      </trkpt>
      <trkpt lat="47.24829" lon="-2.16412">
        <ele>8.2</ele>
        <time>2020-06-05T13:42:26Z</time>
      </trkpt>
      <trkpt lat="47.24834" lon="-2.16414">
        <ele>8.2</ele>
        <time>2020-06-05T13:42:27Z</time>
      </trkpt>
      <trkpt lat="47.24839" lon="-2.16416">
        <ele>8.1</ele>
        <time>2020-06-05T13:42:28Z</time>
      </trkpt>
      <trkpt lat="47.24844" lon="-2.16419">
        <ele>8.1</ele>
        <time>2020-06-05T13:42:29Z</time>
      </trkpt>
      <trkpt lat="47.24849" lon="-2.16421">
        <ele>8.1</ele>
        <time>2020-06-05T13:42:30Z</time>
      </trkpt>
      <trkpt lat="47.24854" lon="-2.16423">
        <ele>8.1</ele>
        <time>2020-06-05T13:42:31Z</time>
      </trkpt>
      <trkpt lat="47.24858" lon="-2.16423">
        <ele>8</ele>
        <time>2020-06-05T13:42:32Z</time>
      </trkpt>
      <trkpt lat="47.24863" lon="-2.16424">
        <ele>8</ele>
        <time>2020-06-05T13:42:33Z</time>
      </trkpt>
      <trkpt lat="47.24867" lon="-2.16424">
        <ele>8</ele>
        <time>2020-06-05T13:42:34Z</time>
      </trkpt>
      <trkpt lat="47.2487" lon="-2.16425">
        <ele>8</ele>
        <time>2020-06-05T13:42:35Z</time>
      </trkpt>
      <trkpt lat="47.24875" lon="-2.16426">
        <ele>8</ele>
        <time>2020-06-05T13:42:36Z</time>
      </trkpt>
      <trkpt lat="47.2488" lon="-2.16426">
        <ele>7.9</ele>
        <time>2020-06-05T13:42:37Z</time>
      </trkpt>
      <trkpt lat="47.24885" lon="-2.16427">
        <ele>7.9</ele>
        <time>2020-06-05T13:42:38Z</time>
      </trkpt>
      <trkpt lat="47.24889" lon="-2.16427">
        <ele>7.8</ele>
        <time>2020-06-05T13:42:39Z</time>
      </trkpt>
      <trkpt lat="47.24893" lon="-2.16426">
        <ele>7.8</ele>
        <time>2020-06-05T13:42:40Z</time>
      </trkpt>
      <trkpt lat="47.24898" lon="-2.16425">
        <ele>7.7</ele>
        <time>2020-06-05T13:42:41Z</time>
      </trkpt>
      <trkpt lat="47.24902" lon="-2.16424">
        <ele>7.7</ele>
        <time>2020-06-05T13:42:42Z</time>
      </trkpt>
      <trkpt lat="47.24907" lon="-2.16424">
        <ele>7.7</ele>
        <time>2020-06-05T13:42:43Z</time>
      </trkpt>
      <trkpt lat="47.24912" lon="-2.16423">
        <ele>7.6</ele>
        <time>2020-06-05T13:42:44Z</time>
      </trkpt>
      <trkpt lat="47.24916" lon="-2.16421">
        <ele>7.6</ele>
        <time>2020-06-05T13:42:45Z</time>
      </trkpt>
      <trkpt lat="47.24921" lon="-2.16418">
        <ele>7.6</ele>
        <time>2020-06-05T13:42:46Z</time>
      </trkpt>
      <trkpt lat="47.24926" lon="-2.16417">
        <ele>7.6</ele>
        <time>2020-06-05T13:42:47Z</time>
      </trkpt>
      <trkpt lat="47.2493" lon="-2.16414">
        <ele>7.6</ele>
        <time>2020-06-05T13:42:48Z</time>
      </trkpt>
      <trkpt lat="47.24934" lon="-2.16411">
        <ele>7.7</ele>
        <time>2020-06-05T13:42:49Z</time>
      </trkpt>
      <trkpt lat="47.24938" lon="-2.16408">
        <ele>7.7</ele>
        <time>2020-06-05T13:42:50Z</time>
      </trkpt>
      <trkpt lat="47.24943" lon="-2.16406">
        <ele>7.7</ele>
        <time>2020-06-05T13:42:51Z</time>
      </trkpt>
      <trkpt lat="47.24947" lon="-2.16404">
        <ele>7.7</ele>
        <time>2020-06-05T13:42:52Z</time>
      </trkpt>
      <trkpt lat="47.2495" lon="-2.16403">
        <ele>7.7</ele>
        <time>2020-06-05T13:42:53Z</time>
      </trkpt>
      <trkpt lat="47.24954" lon="-2.16401">
        <ele>7.7</ele>
        <time>2020-06-05T13:42:54Z</time>
      </trkpt>
      <trkpt lat="47.24955" lon="-2.164">
        <ele>7.6</ele>
        <time>2020-06-05T13:42:55Z</time>
      </trkpt>
      <trkpt lat="47.24958" lon="-2.16398">
        <ele>7.6</ele>
        <time>2020-06-05T13:42:56Z</time>
      </trkpt>
      <trkpt lat="47.2496" lon="-2.16398">
        <ele>7.6</ele>
        <time>2020-06-05T13:42:57Z</time>
      </trkpt>
      <trkpt lat="47.24963" lon="-2.16397">
        <ele>7.6</ele>
        <time>2020-06-05T13:42:58Z</time>
      </trkpt>
      <trkpt lat="47.24967" lon="-2.16395">
        <ele>7.5</ele>
        <time>2020-06-05T13:42:59Z</time>
      </trkpt>
      <trkpt lat="47.24972" lon="-2.16394">
        <ele>7.5</ele>
        <time>2020-06-05T13:43:00Z</time>
      </trkpt>
      <trkpt lat="47.24976" lon="-2.16391">
        <ele>7.4</ele>
        <time>2020-06-05T13:43:01Z</time>
      </trkpt>
      <trkpt lat="47.24981" lon="-2.16388">
        <ele>7.3</ele>
        <time>2020-06-05T13:43:02Z</time>
      </trkpt>
      <trkpt lat="47.24985" lon="-2.16386">
        <ele>7.3</ele>
        <time>2020-06-05T13:43:03Z</time>
      </trkpt>
      <trkpt lat="47.2499" lon="-2.16383">
        <ele>7.2</ele>
        <time>2020-06-05T13:43:04Z</time>
      </trkpt>
      <trkpt lat="47.24996" lon="-2.16381">
        <ele>7.2</ele>
        <time>2020-06-05T13:43:05Z</time>
      </trkpt>
      <trkpt lat="47.25001" lon="-2.16379">
        <ele>7.2</ele>
        <time>2020-06-05T13:43:06Z</time>
      </trkpt>
      <trkpt lat="47.25005" lon="-2.16375">
        <ele>7.1</ele>
        <time>2020-06-05T13:43:07Z</time>
      </trkpt>
      <trkpt lat="47.2501" lon="-2.16372">
        <ele>7.1</ele>
        <time>2020-06-05T13:43:08Z</time>
      </trkpt>
      <trkpt lat="47.25015" lon="-2.16368">
        <ele>7.1</ele>
        <time>2020-06-05T13:43:09Z</time>
      </trkpt>
      <trkpt lat="47.25021" lon="-2.16365">
        <ele>7.1</ele>
        <time>2020-06-05T13:43:10Z</time>
      </trkpt>
      <trkpt lat="47.25026" lon="-2.16361">
        <ele>7.1</ele>
        <time>2020-06-05T13:43:11Z</time>
      </trkpt>
      <trkpt lat="47.25032" lon="-2.16358">
        <ele>7.1</ele>
        <time>2020-06-05T13:43:12Z</time>
      </trkpt>
      <trkpt lat="47.25037" lon="-2.16355">
        <ele>7.1</ele>
        <time>2020-06-05T13:43:13Z</time>
      </trkpt>
      <trkpt lat="47.25042" lon="-2.16352">
        <ele>7.1</ele>
        <time>2020-06-05T13:43:14Z</time>
      </trkpt>
      <trkpt lat="47.25048" lon="-2.16349">
        <ele>7.2</ele>
        <time>2020-06-05T13:43:15Z</time>
      </trkpt>
      <trkpt lat="47.25053" lon="-2.16346">
        <ele>7.2</ele>
        <time>2020-06-05T13:43:16Z</time>
      </trkpt>
      <trkpt lat="47.25058" lon="-2.16343">
        <ele>7.2</ele>
        <time>2020-06-05T13:43:17Z</time>
      </trkpt>
      <trkpt lat="47.25063" lon="-2.16339">
        <ele>7.2</ele>
        <time>2020-06-05T13:43:18Z</time>
      </trkpt>
      <trkpt lat="47.25067" lon="-2.16336">
        <ele>7.2</ele>
        <time>2020-06-05T13:43:19Z</time>
      </trkpt>
      <trkpt lat="47.25072" lon="-2.16332">
        <ele>7.2</ele>
        <time>2020-06-05T13:43:20Z</time>
      </trkpt>
      <trkpt lat="47.25077" lon="-2.1633">
        <ele>7.3</ele>
        <time>2020-06-05T13:43:21Z</time>
      </trkpt>
      <trkpt lat="47.25082" lon="-2.16329">
        <ele>7.3</ele>
        <time>2020-06-05T13:43:22Z</time>
      </trkpt>
      <trkpt lat="47.25086" lon="-2.16327">
        <ele>7.3</ele>
        <time>2020-06-05T13:43:23Z</time>
      </trkpt>
      <trkpt lat="47.25091" lon="-2.16325">
        <ele>7.3</ele>
        <time>2020-06-05T13:43:24Z</time>
      </trkpt>
      <trkpt lat="47.25096" lon="-2.16321">
        <ele>7.3</ele>
        <time>2020-06-05T13:43:25Z</time>
      </trkpt>
      <trkpt lat="47.251" lon="-2.16319">
        <ele>7.4</ele>
        <time>2020-06-05T13:43:26Z</time>
      </trkpt>
      <trkpt lat="47.25104" lon="-2.16316">
        <ele>7.4</ele>
        <time>2020-06-05T13:43:27Z</time>
      </trkpt>
      <trkpt lat="47.25109" lon="-2.16313">
        <ele>7.4</ele>
        <time>2020-06-05T13:43:28Z</time>
      </trkpt>
      <trkpt lat="47.25114" lon="-2.1631">
        <ele>7.4</ele>
        <time>2020-06-05T13:43:29Z</time>
      </trkpt>
      <trkpt lat="47.25118" lon="-2.16307">
        <ele>7.4</ele>
        <time>2020-06-05T13:43:30Z</time>
      </trkpt>
      <trkpt lat="47.25123" lon="-2.16303">
        <ele>7.4</ele>
        <time>2020-06-05T13:43:31Z</time>
      </trkpt>
      <trkpt lat="47.25128" lon="-2.16299">
        <ele>7.4</ele>
        <time>2020-06-05T13:43:32Z</time>
      </trkpt>
      <trkpt lat="47.25134" lon="-2.16296">
        <ele>7.4</ele>
        <time>2020-06-05T13:43:33Z</time>
      </trkpt>
      <trkpt lat="47.25139" lon="-2.16293">
        <ele>7.4</ele>
        <time>2020-06-05T13:43:34Z</time>
      </trkpt>
      <trkpt lat="47.25145" lon="-2.1629">
        <ele>7.4</ele>
        <time>2020-06-05T13:43:35Z</time>
      </trkpt>
      <trkpt lat="47.2515" lon="-2.16288">
        <ele>7.4</ele>
        <time>2020-06-05T13:43:36Z</time>
      </trkpt>
      <trkpt lat="47.25155" lon="-2.16285">
        <ele>7.4</ele>
        <time>2020-06-05T13:43:37Z</time>
      </trkpt>
      <trkpt lat="47.2516" lon="-2.16282">
        <ele>7.4</ele>
        <time>2020-06-05T13:43:38Z</time>
      </trkpt>
      <trkpt lat="47.25165" lon="-2.16279">
        <ele>7.4</ele>
        <time>2020-06-05T13:43:39Z</time>
      </trkpt>
      <trkpt lat="47.2517" lon="-2.16275">
        <ele>7.4</ele>
        <time>2020-06-05T13:43:40Z</time>
      </trkpt>
      <trkpt lat="47.25176" lon="-2.16272">
        <ele>7.3</ele>
        <time>2020-06-05T13:43:41Z</time>
      </trkpt>
      <trkpt lat="47.25181" lon="-2.16269">
        <ele>7.3</ele>
        <time>2020-06-05T13:43:42Z</time>
      </trkpt>
      <trkpt lat="47.25187" lon="-2.16266">
        <ele>7.2</ele>
        <time>2020-06-05T13:43:43Z</time>
      </trkpt>
      <trkpt lat="47.25193" lon="-2.16263">
        <ele>7.2</ele>
        <time>2020-06-05T13:43:44Z</time>
      </trkpt>
      <trkpt lat="47.25198" lon="-2.16259">
        <ele>7.2</ele>
        <time>2020-06-05T13:43:45Z</time>
      </trkpt>
      <trkpt lat="47.25204" lon="-2.16255">
        <ele>7.2</ele>
        <time>2020-06-05T13:43:46Z</time>
      </trkpt>
      <trkpt lat="47.2521" lon="-2.16253">
        <ele>7.1</ele>
        <time>2020-06-05T13:43:47Z</time>
      </trkpt>
      <trkpt lat="47.25215" lon="-2.16249">
        <ele>7.1</ele>
        <time>2020-06-05T13:43:48Z</time>
      </trkpt>
      <trkpt lat="47.2522" lon="-2.16245">
        <ele>7.1</ele>
        <time>2020-06-05T13:43:49Z</time>
      </trkpt>
      <trkpt lat="47.25225" lon="-2.16242">
        <ele>7.1</ele>
        <time>2020-06-05T13:43:50Z</time>
      </trkpt>
      <trkpt lat="47.2523" lon="-2.16239">
        <ele>7.1</ele>
        <time>2020-06-05T13:43:51Z</time>
      </trkpt>
      <trkpt lat="47.25234" lon="-2.16236">
        <ele>7.1</ele>
        <time>2020-06-05T13:43:52Z</time>
      </trkpt>
      <trkpt lat="47.25239" lon="-2.16233">
        <ele>7.1</ele>
        <time>2020-06-05T13:43:53Z</time>
      </trkpt>
      <trkpt lat="47.25243" lon="-2.16231">
        <ele>7.1</ele>
        <time>2020-06-05T13:43:54Z</time>
      </trkpt>
      <trkpt lat="47.25247" lon="-2.16229">
        <ele>7.1</ele>
        <time>2020-06-05T13:43:55Z</time>
      </trkpt>
      <trkpt lat="47.2525" lon="-2.16227">
        <ele>7.1</ele>
        <time>2020-06-05T13:43:56Z</time>
      </trkpt>
      <trkpt lat="47.25252" lon="-2.16229">
        <ele>7.1</ele>
        <time>2020-06-05T13:43:57Z</time>
      </trkpt>
      <trkpt lat="47.25256" lon="-2.16232">
        <ele>7.5</ele>
        <time>2020-06-05T13:43:58Z</time>
      </trkpt>
      <trkpt lat="47.25256" lon="-2.16233">
        <ele>7.6</ele>
        <time>2020-06-05T13:43:59Z</time>
      </trkpt>
      <trkpt lat="47.25257" lon="-2.16237">
        <ele>7.7</ele>
        <time>2020-06-05T13:44:00Z</time>
      </trkpt>
      <trkpt lat="47.25258" lon="-2.16241">
        <ele>7.9</ele>
        <time>2020-06-05T13:44:01Z</time>
      </trkpt>
      <trkpt lat="47.25259" lon="-2.16246">
        <ele>8.9</ele>
        <time>2020-06-05T13:44:02Z</time>
      </trkpt>
      <trkpt lat="47.25262" lon="-2.1625">
        <ele>8.9</ele>
        <time>2020-06-05T13:44:03Z</time>
      </trkpt>
      <trkpt lat="47.25264" lon="-2.16251">
        <ele>9</ele>
        <time>2020-06-05T13:44:04Z</time>
      </trkpt>
      <trkpt lat="47.25267" lon="-2.16254">
        <ele>9.1</ele>
        <time>2020-06-05T13:44:05Z</time>
      </trkpt>
      <trkpt lat="47.25272" lon="-2.16254">
        <ele>9.2</ele>
        <time>2020-06-05T13:44:06Z</time>
      </trkpt>
      <trkpt lat="47.25276" lon="-2.16255">
        <ele>9.3</ele>
        <time>2020-06-05T13:44:07Z</time>
      </trkpt>
      <trkpt lat="47.2528" lon="-2.16256">
        <ele>9.4</ele>
        <time>2020-06-05T13:44:08Z</time>
      </trkpt>
      <trkpt lat="47.25285" lon="-2.16257">
        <ele>9.4</ele>
        <time>2020-06-05T13:44:09Z</time>
      </trkpt>
      <trkpt lat="47.25289" lon="-2.16258">
        <ele>9.5</ele>
        <time>2020-06-05T13:44:10Z</time>
      </trkpt>
      <trkpt lat="47.25294" lon="-2.16259">
        <ele>9.6</ele>
        <time>2020-06-05T13:44:11Z</time>
      </trkpt>
      <trkpt lat="47.253" lon="-2.1626">
        <ele>9.8</ele>
        <time>2020-06-05T13:44:12Z</time>
      </trkpt>
      <trkpt lat="47.25305" lon="-2.16261">
        <ele>9.9</ele>
        <time>2020-06-05T13:44:13Z</time>
      </trkpt>
      <trkpt lat="47.2531" lon="-2.16261">
        <ele>10</ele>
        <time>2020-06-05T13:44:14Z</time>
      </trkpt>
      <trkpt lat="47.25315" lon="-2.16261">
        <ele>10.1</ele>
        <time>2020-06-05T13:44:15Z</time>
      </trkpt>
      <trkpt lat="47.2532" lon="-2.16261">
        <ele>10.1</ele>
        <time>2020-06-05T13:44:16Z</time>
      </trkpt>
      <trkpt lat="47.25325" lon="-2.16263">
        <ele>10.2</ele>
        <time>2020-06-05T13:44:17Z</time>
      </trkpt>
      <trkpt lat="47.25331" lon="-2.16264">
        <ele>10.3</ele>
        <time>2020-06-05T13:44:18Z</time>
      </trkpt>
      <trkpt lat="47.25337" lon="-2.16265">
        <ele>10.3</ele>
        <time>2020-06-05T13:44:19Z</time>
      </trkpt>
      <trkpt lat="47.25342" lon="-2.16266">
        <ele>10.3</ele>
        <time>2020-06-05T13:44:20Z</time>
      </trkpt>
      <trkpt lat="47.25348" lon="-2.16267">
        <ele>10.4</ele>
        <time>2020-06-05T13:44:21Z</time>
      </trkpt>
      <trkpt lat="47.25353" lon="-2.16268">
        <ele>10.4</ele>
        <time>2020-06-05T13:44:22Z</time>
      </trkpt>
      <trkpt lat="47.25358" lon="-2.1627">
        <ele>10.4</ele>
        <time>2020-06-05T13:44:23Z</time>
      </trkpt>
      <trkpt lat="47.25363" lon="-2.16271">
        <ele>10.4</ele>
        <time>2020-06-05T13:44:24Z</time>
      </trkpt>
      <trkpt lat="47.25368" lon="-2.16272">
        <ele>10.4</ele>
        <time>2020-06-05T13:44:25Z</time>
      </trkpt>
      <trkpt lat="47.25374" lon="-2.16273">
        <ele>10.4</ele>
        <time>2020-06-05T13:44:26Z</time>
      </trkpt>
      <trkpt lat="47.2538" lon="-2.16274">
        <ele>10.3</ele>
        <time>2020-06-05T13:44:27Z</time>
      </trkpt>
      <trkpt lat="47.25386" lon="-2.16275">
        <ele>10.3</ele>
        <time>2020-06-05T13:44:28Z</time>
      </trkpt>
      <trkpt lat="47.25392" lon="-2.16275">
        <ele>10.3</ele>
        <time>2020-06-05T13:44:29Z</time>
      </trkpt>
      <trkpt lat="47.25398" lon="-2.16275">
        <ele>10.3</ele>
        <time>2020-06-05T13:44:30Z</time>
      </trkpt>
      <trkpt lat="47.25404" lon="-2.16276">
        <ele>10.3</ele>
        <time>2020-06-05T13:44:31Z</time>
      </trkpt>
      <trkpt lat="47.2541" lon="-2.16277">
        <ele>10.3</ele>
        <time>2020-06-05T13:44:32Z</time>
      </trkpt>
      <trkpt lat="47.25415" lon="-2.16278">
        <ele>10.3</ele>
        <time>2020-06-05T13:44:33Z</time>
      </trkpt>
      <trkpt lat="47.25422" lon="-2.16278">
        <ele>10.4</ele>
        <time>2020-06-05T13:44:34Z</time>
      </trkpt>
      <trkpt lat="47.25427" lon="-2.1628">
        <ele>10.4</ele>
        <time>2020-06-05T13:44:35Z</time>
      </trkpt>
      <trkpt lat="47.25433" lon="-2.16282">
        <ele>10.4</ele>
        <time>2020-06-05T13:44:36Z</time>
      </trkpt>
      <trkpt lat="47.25438" lon="-2.16283">
        <ele>10.5</ele>
        <time>2020-06-05T13:44:37Z</time>
      </trkpt>
      <trkpt lat="47.25443" lon="-2.16284">
        <ele>10.5</ele>
        <time>2020-06-05T13:44:38Z</time>
      </trkpt>
      <trkpt lat="47.25446" lon="-2.16285">
        <ele>10.5</ele>
        <time>2020-06-05T13:44:39Z</time>
      </trkpt>
      <trkpt lat="47.25449" lon="-2.16285">
        <ele>10.6</ele>
        <time>2020-06-05T13:44:40Z</time>
      </trkpt>
      <trkpt lat="47.25454" lon="-2.16283">
        <ele>10.6</ele>
        <time>2020-06-05T13:44:41Z</time>
      </trkpt>
      <trkpt lat="47.25457" lon="-2.16284">
        <ele>10.6</ele>
        <time>2020-06-05T13:44:42Z</time>
      </trkpt>
      <trkpt lat="47.25461" lon="-2.16283">
        <ele>10.6</ele>
        <time>2020-06-05T13:44:43Z</time>
      </trkpt>
      <trkpt lat="47.25465" lon="-2.16284">
        <ele>10.6</ele>
        <time>2020-06-05T13:44:44Z</time>
      </trkpt>
      <trkpt lat="47.25468" lon="-2.16286">
        <ele>10.6</ele>
        <time>2020-06-05T13:44:45Z</time>
      </trkpt>
      <trkpt lat="47.25471" lon="-2.16286">
        <ele>10.6</ele>
        <time>2020-06-05T13:44:46Z</time>
      </trkpt>
      <trkpt lat="47.25475" lon="-2.16287">
        <ele>10.6</ele>
        <time>2020-06-05T13:44:47Z</time>
      </trkpt>
      <trkpt lat="47.2548" lon="-2.16287">
        <ele>10.7</ele>
        <time>2020-06-05T13:44:48Z</time>
      </trkpt>
      <trkpt lat="47.25484" lon="-2.16287">
        <ele>10.7</ele>
        <time>2020-06-05T13:44:49Z</time>
      </trkpt>
      <trkpt lat="47.25489" lon="-2.16288">
        <ele>10.7</ele>
        <time>2020-06-05T13:44:50Z</time>
      </trkpt>
      <trkpt lat="47.25493" lon="-2.1629">
        <ele>10.7</ele>
        <time>2020-06-05T13:44:51Z</time>
      </trkpt>
      <trkpt lat="47.25497" lon="-2.16292">
        <ele>10.8</ele>
        <time>2020-06-05T13:44:52Z</time>
      </trkpt>
      <trkpt lat="47.25501" lon="-2.16292">
        <ele>10.8</ele>
        <time>2020-06-05T13:44:53Z</time>
      </trkpt>
      <trkpt lat="47.25506" lon="-2.16293">
        <ele>10.8</ele>
        <time>2020-06-05T13:44:54Z</time>
      </trkpt>
      <trkpt lat="47.2551" lon="-2.16294">
        <ele>10.8</ele>
        <time>2020-06-05T13:44:55Z</time>
      </trkpt>
      <trkpt lat="47.25515" lon="-2.16294">
        <ele>10.8</ele>
        <time>2020-06-05T13:44:56Z</time>
      </trkpt>
      <trkpt lat="47.25519" lon="-2.16294">
        <ele>10.8</ele>
        <time>2020-06-05T13:44:57Z</time>
      </trkpt>
      <trkpt lat="47.25523" lon="-2.16295">
        <ele>10.8</ele>
        <time>2020-06-05T13:44:58Z</time>
      </trkpt>
      <trkpt lat="47.25527" lon="-2.16296">
        <ele>10.8</ele>
        <time>2020-06-05T13:44:59Z</time>
      </trkpt>
      <trkpt lat="47.25531" lon="-2.16297">
        <ele>10.7</ele>
        <time>2020-06-05T13:45:00Z</time>
      </trkpt>
      <trkpt lat="47.25535" lon="-2.16298">
        <ele>10.7</ele>
        <time>2020-06-05T13:45:01Z</time>
      </trkpt>
      <trkpt lat="47.2554" lon="-2.16298">
        <ele>10.6</ele>
        <time>2020-06-05T13:45:02Z</time>
      </trkpt>
      <trkpt lat="47.25545" lon="-2.16299">
        <ele>10.4</ele>
        <time>2020-06-05T13:45:03Z</time>
      </trkpt>
      <trkpt lat="47.2555" lon="-2.163">
        <ele>10.3</ele>
        <time>2020-06-05T13:45:04Z</time>
      </trkpt>
      <trkpt lat="47.25554" lon="-2.16301">
        <ele>10.1</ele>
        <time>2020-06-05T13:45:05Z</time>
      </trkpt>
      <trkpt lat="47.25558" lon="-2.16302">
        <ele>10</ele>
        <time>2020-06-05T13:45:06Z</time>
      </trkpt>
      <trkpt lat="47.25562" lon="-2.16302">
        <ele>9.8</ele>
        <time>2020-06-05T13:45:07Z</time>
      </trkpt>
      <trkpt lat="47.25566" lon="-2.16304">
        <ele>9.7</ele>
        <time>2020-06-05T13:45:08Z</time>
      </trkpt>
      <trkpt lat="47.25571" lon="-2.16306">
        <ele>9.5</ele>
        <time>2020-06-05T13:45:09Z</time>
      </trkpt>
      <trkpt lat="47.25577" lon="-2.16307">
        <ele>9.3</ele>
        <time>2020-06-05T13:45:10Z</time>
      </trkpt>
      <trkpt lat="47.25582" lon="-2.16308">
        <ele>9.2</ele>
        <time>2020-06-05T13:45:11Z</time>
      </trkpt>
      <trkpt lat="47.25587" lon="-2.16309">
        <ele>9</ele>
        <time>2020-06-05T13:45:12Z</time>
      </trkpt>
      <trkpt lat="47.25592" lon="-2.1631">
        <ele>8.8</ele>
        <time>2020-06-05T13:45:13Z</time>
      </trkpt>
      <trkpt lat="47.25597" lon="-2.16311">
        <ele>8.6</ele>
        <time>2020-06-05T13:45:14Z</time>
      </trkpt>
      <trkpt lat="47.25603" lon="-2.16311">
        <ele>8.3</ele>
        <time>2020-06-05T13:45:15Z</time>
      </trkpt>
      <trkpt lat="47.25607" lon="-2.16312">
        <ele>8.1</ele>
        <time>2020-06-05T13:45:16Z</time>
      </trkpt>
      <trkpt lat="47.25613" lon="-2.16313">
        <ele>7.9</ele>
        <time>2020-06-05T13:45:17Z</time>
      </trkpt>
      <trkpt lat="47.25618" lon="-2.16313">
        <ele>7.8</ele>
        <time>2020-06-05T13:45:18Z</time>
      </trkpt>
      <trkpt lat="47.25622" lon="-2.16313">
        <ele>7.6</ele>
        <time>2020-06-05T13:45:19Z</time>
      </trkpt>
      <trkpt lat="47.25627" lon="-2.16314">
        <ele>7.5</ele>
        <time>2020-06-05T13:45:20Z</time>
      </trkpt>
      <trkpt lat="47.25633" lon="-2.16315">
        <ele>7.3</ele>
        <time>2020-06-05T13:45:21Z</time>
      </trkpt>
      <trkpt lat="47.25637" lon="-2.16316">
        <ele>7.2</ele>
        <time>2020-06-05T13:45:22Z</time>
      </trkpt>
      <trkpt lat="47.25642" lon="-2.16316">
        <ele>7.1</ele>
        <time>2020-06-05T13:45:23Z</time>
      </trkpt>
      <trkpt lat="47.25646" lon="-2.16318">
        <ele>6.9</ele>
        <time>2020-06-05T13:45:24Z</time>
      </trkpt>
      <trkpt lat="47.25651" lon="-2.16318">
        <ele>6.8</ele>
        <time>2020-06-05T13:45:25Z</time>
      </trkpt>
      <trkpt lat="47.25654" lon="-2.16318">
        <ele>6.7</ele>
        <time>2020-06-05T13:45:26Z</time>
      </trkpt>
      <trkpt lat="47.25657" lon="-2.16319">
        <ele>6.7</ele>
        <time>2020-06-05T13:45:27Z</time>
      </trkpt>
      <trkpt lat="47.25661" lon="-2.16319">
        <ele>6.6</ele>
        <time>2020-06-05T13:45:28Z</time>
      </trkpt>
      <trkpt lat="47.25663" lon="-2.1632">
        <ele>6.6</ele>
        <time>2020-06-05T13:45:29Z</time>
      </trkpt>
      <trkpt lat="47.25666" lon="-2.1632">
        <ele>6.5</ele>
        <time>2020-06-05T13:45:30Z</time>
      </trkpt>
      <trkpt lat="47.2567" lon="-2.1632">
        <ele>6.5</ele>
        <time>2020-06-05T13:45:31Z</time>
      </trkpt>
      <trkpt lat="47.25674" lon="-2.16321">
        <ele>6.5</ele>
        <time>2020-06-05T13:45:32Z</time>
      </trkpt>
      <trkpt lat="47.25678" lon="-2.16322">
        <ele>6.5</ele>
        <time>2020-06-05T13:45:33Z</time>
      </trkpt>
      <trkpt lat="47.25682" lon="-2.16322">
        <ele>6.5</ele>
        <time>2020-06-05T13:45:34Z</time>
      </trkpt>
      <trkpt lat="47.25686" lon="-2.16323">
        <ele>6.5</ele>
        <time>2020-06-05T13:45:35Z</time>
      </trkpt>
      <trkpt lat="47.25691" lon="-2.16324">
        <ele>6.5</ele>
        <time>2020-06-05T13:45:36Z</time>
      </trkpt>
      <trkpt lat="47.25696" lon="-2.16324">
        <ele>6.5</ele>
        <time>2020-06-05T13:45:37Z</time>
      </trkpt>
      <trkpt lat="47.25701" lon="-2.16325">
        <ele>6.5</ele>
        <time>2020-06-05T13:45:38Z</time>
      </trkpt>
      <trkpt lat="47.25708" lon="-2.16326">
        <ele>6.5</ele>
        <time>2020-06-05T13:45:39Z</time>
      </trkpt>
      <trkpt lat="47.25714" lon="-2.16326">
        <ele>6.5</ele>
        <time>2020-06-05T13:45:40Z</time>
      </trkpt>
      <trkpt lat="47.25719" lon="-2.16326">
        <ele>6.5</ele>
        <time>2020-06-05T13:45:41Z</time>
      </trkpt>
      <trkpt lat="47.25725" lon="-2.16327">
        <ele>6.6</ele>
        <time>2020-06-05T13:45:42Z</time>
      </trkpt>
      <trkpt lat="47.25731" lon="-2.16329">
        <ele>6.7</ele>
        <time>2020-06-05T13:45:43Z</time>
      </trkpt>
      <trkpt lat="47.25737" lon="-2.1633">
        <ele>6.7</ele>
        <time>2020-06-05T13:45:44Z</time>
      </trkpt>
      <trkpt lat="47.25742" lon="-2.16333">
        <ele>6.8</ele>
        <time>2020-06-05T13:45:45Z</time>
      </trkpt>
      <trkpt lat="47.25748" lon="-2.16334">
        <ele>6.8</ele>
        <time>2020-06-05T13:45:46Z</time>
      </trkpt>
      <trkpt lat="47.25753" lon="-2.16334">
        <ele>6.8</ele>
        <time>2020-06-05T13:45:47Z</time>
      </trkpt>
      <trkpt lat="47.25758" lon="-2.16334">
        <ele>6.7</ele>
        <time>2020-06-05T13:45:48Z</time>
      </trkpt>
      <trkpt lat="47.25763" lon="-2.16335">
        <ele>6.7</ele>
        <time>2020-06-05T13:45:49Z</time>
      </trkpt>
      <trkpt lat="47.25768" lon="-2.16337">
        <ele>6.7</ele>
        <time>2020-06-05T13:45:50Z</time>
      </trkpt>
      <trkpt lat="47.25773" lon="-2.16337">
        <ele>6.7</ele>
        <time>2020-06-05T13:45:51Z</time>
      </trkpt>
      <trkpt lat="47.25778" lon="-2.16339">
        <ele>6.8</ele>
        <time>2020-06-05T13:45:52Z</time>
      </trkpt>
      <trkpt lat="47.25782" lon="-2.1634">
        <ele>6.8</ele>
        <time>2020-06-05T13:45:53Z</time>
      </trkpt>
      <trkpt lat="47.25787" lon="-2.1634">
        <ele>6.9</ele>
        <time>2020-06-05T13:45:54Z</time>
      </trkpt>
      <trkpt lat="47.25792" lon="-2.16342">
        <ele>6.9</ele>
        <time>2020-06-05T13:45:55Z</time>
      </trkpt>
      <trkpt lat="47.25797" lon="-2.16343">
        <ele>7</ele>
        <time>2020-06-05T13:45:56Z</time>
      </trkpt>
      <trkpt lat="47.25802" lon="-2.16345">
        <ele>7</ele>
        <time>2020-06-05T13:45:57Z</time>
      </trkpt>
      <trkpt lat="47.25806" lon="-2.16345">
        <ele>7</ele>
        <time>2020-06-05T13:45:58Z</time>
      </trkpt>
      <trkpt lat="47.2581" lon="-2.16345">
        <ele>7.1</ele>
        <time>2020-06-05T13:45:59Z</time>
      </trkpt>
      <trkpt lat="47.25815" lon="-2.16345">
        <ele>7.1</ele>
        <time>2020-06-05T13:46:00Z</time>
      </trkpt>
      <trkpt lat="47.25819" lon="-2.16346">
        <ele>7.2</ele>
        <time>2020-06-05T13:46:01Z</time>
      </trkpt>
      <trkpt lat="47.25824" lon="-2.16345">
        <ele>7.2</ele>
        <time>2020-06-05T13:46:02Z</time>
      </trkpt>
      <trkpt lat="47.25828" lon="-2.16344">
        <ele>7.2</ele>
        <time>2020-06-05T13:46:03Z</time>
      </trkpt>
      <trkpt lat="47.25834" lon="-2.16346">
        <ele>7.3</ele>
        <time>2020-06-05T13:46:04Z</time>
      </trkpt>
      <trkpt lat="47.25839" lon="-2.16347">
        <ele>7.3</ele>
        <time>2020-06-05T13:46:05Z</time>
      </trkpt>
      <trkpt lat="47.25845" lon="-2.16347">
        <ele>7.3</ele>
        <time>2020-06-05T13:46:06Z</time>
      </trkpt>
      <trkpt lat="47.2585" lon="-2.16347">
        <ele>7.4</ele>
        <time>2020-06-05T13:46:07Z</time>
      </trkpt>
      <trkpt lat="47.25854" lon="-2.16348">
        <ele>7.4</ele>
        <time>2020-06-05T13:46:08Z</time>
      </trkpt>
      <trkpt lat="47.25859" lon="-2.16349">
        <ele>7.5</ele>
        <time>2020-06-05T13:46:09Z</time>
      </trkpt>
      <trkpt lat="47.25863" lon="-2.1635">
        <ele>7.5</ele>
        <time>2020-06-05T13:46:10Z</time>
      </trkpt>
      <trkpt lat="47.25868" lon="-2.16352">
        <ele>7.6</ele>
        <time>2020-06-05T13:46:11Z</time>
      </trkpt>
      <trkpt lat="47.25874" lon="-2.16354">
        <ele>7.6</ele>
        <time>2020-06-05T13:46:12Z</time>
      </trkpt>
      <trkpt lat="47.2588" lon="-2.16355">
        <ele>7.7</ele>
        <time>2020-06-05T13:46:13Z</time>
      </trkpt>
      <trkpt lat="47.25886" lon="-2.16355">
        <ele>7.7</ele>
        <time>2020-06-05T13:46:14Z</time>
      </trkpt>
      <trkpt lat="47.25891" lon="-2.16355">
        <ele>7.7</ele>
        <time>2020-06-05T13:46:15Z</time>
      </trkpt>
      <trkpt lat="47.25896" lon="-2.16355">
        <ele>7.7</ele>
        <time>2020-06-05T13:46:16Z</time>
      </trkpt>
      <trkpt lat="47.259" lon="-2.16356">
        <ele>7.7</ele>
        <time>2020-06-05T13:46:17Z</time>
      </trkpt>
      <trkpt lat="47.25904" lon="-2.16356">
        <ele>7.8</ele>
        <time>2020-06-05T13:46:18Z</time>
      </trkpt>
      <trkpt lat="47.25909" lon="-2.16357">
        <ele>7.8</ele>
        <time>2020-06-05T13:46:19Z</time>
      </trkpt>
      <trkpt lat="47.25913" lon="-2.16358">
        <ele>7.8</ele>
        <time>2020-06-05T13:46:20Z</time>
      </trkpt>
      <trkpt lat="47.25919" lon="-2.16358">
        <ele>7.8</ele>
        <time>2020-06-05T13:46:21Z</time>
      </trkpt>
      <trkpt lat="47.25924" lon="-2.16359">
        <ele>7.8</ele>
        <time>2020-06-05T13:46:22Z</time>
      </trkpt>
      <trkpt lat="47.25929" lon="-2.16359">
        <ele>7.8</ele>
        <time>2020-06-05T13:46:23Z</time>
      </trkpt>
      <trkpt lat="47.25933" lon="-2.1636">
        <ele>7.8</ele>
        <time>2020-06-05T13:46:24Z</time>
      </trkpt>
      <trkpt lat="47.25936" lon="-2.16361">
        <ele>7.8</ele>
        <time>2020-06-05T13:46:25Z</time>
      </trkpt>
      <trkpt lat="47.2594" lon="-2.1636">
        <ele>7.7</ele>
        <time>2020-06-05T13:46:26Z</time>
      </trkpt>
      <trkpt lat="47.25941" lon="-2.1636">
        <ele>7.7</ele>
        <time>2020-06-05T13:46:27Z</time>
      </trkpt>
      <trkpt lat="47.25944" lon="-2.1636">
        <ele>7.7</ele>
        <time>2020-06-05T13:46:28Z</time>
      </trkpt>
      <trkpt lat="47.25948" lon="-2.16361">
        <ele>7.7</ele>
        <time>2020-06-05T13:46:29Z</time>
      </trkpt>
      <trkpt lat="47.25952" lon="-2.16363">
        <ele>7.7</ele>
        <time>2020-06-05T13:46:30Z</time>
      </trkpt>
      <trkpt lat="47.25956" lon="-2.16363">
        <ele>7.7</ele>
        <time>2020-06-05T13:46:31Z</time>
      </trkpt>
      <trkpt lat="47.25961" lon="-2.16363">
        <ele>7.7</ele>
        <time>2020-06-05T13:46:32Z</time>
      </trkpt>
      <trkpt lat="47.25965" lon="-2.16364">
        <ele>7.7</ele>
        <time>2020-06-05T13:46:33Z</time>
      </trkpt>
      <trkpt lat="47.25968" lon="-2.16364">
        <ele>7.7</ele>
        <time>2020-06-05T13:46:34Z</time>
      </trkpt>
      <trkpt lat="47.25972" lon="-2.16365">
        <ele>7.7</ele>
        <time>2020-06-05T13:46:35Z</time>
      </trkpt>
      <trkpt lat="47.25976" lon="-2.16366">
        <ele>7.7</ele>
        <time>2020-06-05T13:46:36Z</time>
      </trkpt>
      <trkpt lat="47.25981" lon="-2.16367">
        <ele>7.7</ele>
        <time>2020-06-05T13:46:37Z</time>
      </trkpt>
      <trkpt lat="47.25985" lon="-2.16367">
        <ele>7.7</ele>
        <time>2020-06-05T13:46:38Z</time>
      </trkpt>
      <trkpt lat="47.25989" lon="-2.16369">
        <ele>7.7</ele>
        <time>2020-06-05T13:46:39Z</time>
      </trkpt>
      <trkpt lat="47.25994" lon="-2.1637">
        <ele>7.8</ele>
        <time>2020-06-05T13:46:40Z</time>
      </trkpt>
      <trkpt lat="47.26" lon="-2.16372">
        <ele>7.8</ele>
        <time>2020-06-05T13:46:41Z</time>
      </trkpt>
      <trkpt lat="47.26005" lon="-2.16373">
        <ele>7.8</ele>
        <time>2020-06-05T13:46:42Z</time>
      </trkpt>
      <trkpt lat="47.26012" lon="-2.16374">
        <ele>7.8</ele>
        <time>2020-06-05T13:46:43Z</time>
      </trkpt>
      <trkpt lat="47.26019" lon="-2.16375">
        <ele>7.8</ele>
        <time>2020-06-05T13:46:44Z</time>
      </trkpt>
      <trkpt lat="47.26024" lon="-2.16376">
        <ele>7.8</ele>
        <time>2020-06-05T13:46:45Z</time>
      </trkpt>
      <trkpt lat="47.26027" lon="-2.16377">
        <ele>7.8</ele>
        <time>2020-06-05T13:46:46Z</time>
      </trkpt>
      <trkpt lat="47.26031" lon="-2.16379">
        <ele>7.7</ele>
        <time>2020-06-05T13:46:47Z</time>
      </trkpt>
      <trkpt lat="47.26036" lon="-2.16379">
        <ele>7.7</ele>
        <time>2020-06-05T13:46:48Z</time>
      </trkpt>
      <trkpt lat="47.2604" lon="-2.16379">
        <ele>7.6</ele>
        <time>2020-06-05T13:46:49Z</time>
      </trkpt>
      <trkpt lat="47.26046" lon="-2.16381">
        <ele>7.5</ele>
        <time>2020-06-05T13:46:50Z</time>
      </trkpt>
      <trkpt lat="47.26051" lon="-2.16382">
        <ele>7.5</ele>
        <time>2020-06-05T13:46:51Z</time>
      </trkpt>
      <trkpt lat="47.26055" lon="-2.16383">
        <ele>7.5</ele>
        <time>2020-06-05T13:46:52Z</time>
      </trkpt>
      <trkpt lat="47.2606" lon="-2.16384">
        <ele>7.4</ele>
        <time>2020-06-05T13:46:53Z</time>
      </trkpt>
      <trkpt lat="47.26064" lon="-2.16384">
        <ele>7.4</ele>
        <time>2020-06-05T13:46:54Z</time>
      </trkpt>
      <trkpt lat="47.26067" lon="-2.16384">
        <ele>7.4</ele>
        <time>2020-06-05T13:46:55Z</time>
      </trkpt>
      <trkpt lat="47.26071" lon="-2.16385">
        <ele>7.6</ele>
        <time>2020-06-05T13:46:56Z</time>
      </trkpt>
      <trkpt lat="47.26074" lon="-2.16385">
        <ele>7.8</ele>
        <time>2020-06-05T13:46:57Z</time>
      </trkpt>
      <trkpt lat="47.26078" lon="-2.16385">
        <ele>8</ele>
        <time>2020-06-05T13:46:58Z</time>
      </trkpt>
      <trkpt lat="47.26081" lon="-2.16385">
        <ele>8.1</ele>
        <time>2020-06-05T13:46:59Z</time>
      </trkpt>
      <trkpt lat="47.26086" lon="-2.16385">
        <ele>8.4</ele>
        <time>2020-06-05T13:47:00Z</time>
      </trkpt>
      <trkpt lat="47.26089" lon="-2.16385">
        <ele>8.6</ele>
        <time>2020-06-05T13:47:01Z</time>
      </trkpt>
      <trkpt lat="47.26093" lon="-2.16385">
        <ele>8.4</ele>
        <time>2020-06-05T13:47:02Z</time>
      </trkpt>
      <trkpt lat="47.26097" lon="-2.16386">
        <ele>8.3</ele>
        <time>2020-06-05T13:47:03Z</time>
      </trkpt>
      <trkpt lat="47.26102" lon="-2.16386">
        <ele>8.2</ele>
        <time>2020-06-05T13:47:04Z</time>
      </trkpt>
      <trkpt lat="47.26107" lon="-2.16387">
        <ele>8.1</ele>
        <time>2020-06-05T13:47:05Z</time>
      </trkpt>
      <trkpt lat="47.26112" lon="-2.16387">
        <ele>8</ele>
        <time>2020-06-05T13:47:06Z</time>
      </trkpt>
      <trkpt lat="47.26118" lon="-2.16388">
        <ele>7.8</ele>
        <time>2020-06-05T13:47:07Z</time>
      </trkpt>
      <trkpt lat="47.26124" lon="-2.16389">
        <ele>7.7</ele>
        <time>2020-06-05T13:47:08Z</time>
      </trkpt>
      <trkpt lat="47.2613" lon="-2.16391">
        <ele>7.6</ele>
        <time>2020-06-05T13:47:09Z</time>
      </trkpt>
      <trkpt lat="47.26135" lon="-2.16392">
        <ele>7.5</ele>
        <time>2020-06-05T13:47:10Z</time>
      </trkpt>
      <trkpt lat="47.26141" lon="-2.16394">
        <ele>7.4</ele>
        <time>2020-06-05T13:47:11Z</time>
      </trkpt>
      <trkpt lat="47.26146" lon="-2.16394">
        <ele>7.3</ele>
        <time>2020-06-05T13:47:12Z</time>
      </trkpt>
      <trkpt lat="47.26152" lon="-2.16395">
        <ele>7.2</ele>
        <time>2020-06-05T13:47:13Z</time>
      </trkpt>
      <trkpt lat="47.26157" lon="-2.16394">
        <ele>7.1</ele>
        <time>2020-06-05T13:47:14Z</time>
      </trkpt>
      <trkpt lat="47.26162" lon="-2.16395">
        <ele>7.1</ele>
        <time>2020-06-05T13:47:15Z</time>
      </trkpt>
      <trkpt lat="47.26167" lon="-2.16395">
        <ele>7</ele>
        <time>2020-06-05T13:47:16Z</time>
      </trkpt>
      <trkpt lat="47.26173" lon="-2.16397">
        <ele>6.9</ele>
        <time>2020-06-05T13:47:17Z</time>
      </trkpt>
      <trkpt lat="47.26178" lon="-2.16397">
        <ele>6.9</ele>
        <time>2020-06-05T13:47:18Z</time>
      </trkpt>
      <trkpt lat="47.26183" lon="-2.16398">
        <ele>6.9</ele>
        <time>2020-06-05T13:47:19Z</time>
      </trkpt>
      <trkpt lat="47.26189" lon="-2.16399">
        <ele>6.9</ele>
        <time>2020-06-05T13:47:20Z</time>
      </trkpt>
      <trkpt lat="47.26193" lon="-2.164">
        <ele>6.8</ele>
        <time>2020-06-05T13:47:21Z</time>
      </trkpt>
      <trkpt lat="47.26198" lon="-2.16401">
        <ele>6.8</ele>
        <time>2020-06-05T13:47:22Z</time>
      </trkpt>
      <trkpt lat="47.26202" lon="-2.16402">
        <ele>6.8</ele>
        <time>2020-06-05T13:47:23Z</time>
      </trkpt>
      <trkpt lat="47.26208" lon="-2.16403">
        <ele>6.7</ele>
        <time>2020-06-05T13:47:24Z</time>
      </trkpt>
      <trkpt lat="47.26214" lon="-2.16404">
        <ele>6.7</ele>
        <time>2020-06-05T13:47:25Z</time>
      </trkpt>
      <trkpt lat="47.26221" lon="-2.16406">
        <ele>6.6</ele>
        <time>2020-06-05T13:47:26Z</time>
      </trkpt>
      <trkpt lat="47.26226" lon="-2.16408">
        <ele>6.6</ele>
        <time>2020-06-05T13:47:27Z</time>
      </trkpt>
      <trkpt lat="47.26231" lon="-2.16409">
        <ele>6.6</ele>
        <time>2020-06-05T13:47:28Z</time>
      </trkpt>
      <trkpt lat="47.26236" lon="-2.1641">
        <ele>6.5</ele>
        <time>2020-06-05T13:47:29Z</time>
      </trkpt>
      <trkpt lat="47.26241" lon="-2.16412">
        <ele>6.5</ele>
        <time>2020-06-05T13:47:30Z</time>
      </trkpt>
      <trkpt lat="47.26246" lon="-2.16413">
        <ele>6.4</ele>
        <time>2020-06-05T13:47:31Z</time>
      </trkpt>
      <trkpt lat="47.26251" lon="-2.16413">
        <ele>6.4</ele>
        <time>2020-06-05T13:47:32Z</time>
      </trkpt>
      <trkpt lat="47.26257" lon="-2.16415">
        <ele>6.3</ele>
        <time>2020-06-05T13:47:33Z</time>
      </trkpt>
      <trkpt lat="47.26262" lon="-2.16415">
        <ele>6.3</ele>
        <time>2020-06-05T13:47:34Z</time>
      </trkpt>
      <trkpt lat="47.26267" lon="-2.16418">
        <ele>6.2</ele>
        <time>2020-06-05T13:47:35Z</time>
      </trkpt>
      <trkpt lat="47.26273" lon="-2.16417">
        <ele>6.2</ele>
        <time>2020-06-05T13:47:36Z</time>
      </trkpt>
      <trkpt lat="47.26277" lon="-2.16418">
        <ele>6.1</ele>
        <time>2020-06-05T13:47:37Z</time>
      </trkpt>
      <trkpt lat="47.26281" lon="-2.16418">
        <ele>6.1</ele>
        <time>2020-06-05T13:47:38Z</time>
      </trkpt>
      <trkpt lat="47.26286" lon="-2.16419">
        <ele>6.1</ele>
        <time>2020-06-05T13:47:39Z</time>
      </trkpt>
      <trkpt lat="47.2629" lon="-2.16419">
        <ele>6.1</ele>
        <time>2020-06-05T13:47:40Z</time>
      </trkpt>
      <trkpt lat="47.26293" lon="-2.1642">
        <ele>6.1</ele>
        <time>2020-06-05T13:47:41Z</time>
      </trkpt>
      <trkpt lat="47.26296" lon="-2.16419">
        <ele>6</ele>
        <time>2020-06-05T13:47:42Z</time>
      </trkpt>
      <trkpt lat="47.263" lon="-2.16418">
        <ele>6</ele>
        <time>2020-06-05T13:47:43Z</time>
      </trkpt>
      <trkpt lat="47.26301" lon="-2.16417">
        <ele>5.9</ele>
        <time>2020-06-05T13:47:44Z</time>
      </trkpt>
      <trkpt lat="47.26303" lon="-2.16413">
        <ele>5.9</ele>
        <time>2020-06-05T13:47:45Z</time>
      </trkpt>
      <trkpt lat="47.26305" lon="-2.16409">
        <ele>5.8</ele>
        <time>2020-06-05T13:47:46Z</time>
      </trkpt>
      <trkpt lat="47.26307" lon="-2.16405">
        <ele>5.8</ele>
        <time>2020-06-05T13:47:47Z</time>
      </trkpt>
      <trkpt lat="47.2631" lon="-2.16404">
        <ele>5.7</ele>
        <time>2020-06-05T13:47:48Z</time>
      </trkpt>
      <trkpt lat="47.26314" lon="-2.16405">
        <ele>5.7</ele>
        <time>2020-06-05T13:47:49Z</time>
      </trkpt>
      <trkpt lat="47.26315" lon="-2.16406">
        <ele>5.6</ele>
        <time>2020-06-05T13:47:50Z</time>
      </trkpt>
      <trkpt lat="47.26318" lon="-2.16407">
        <ele>5.6</ele>
        <time>2020-06-05T13:47:51Z</time>
      </trkpt>
      <trkpt lat="47.26321" lon="-2.1641">
        <ele>5.5</ele>
        <time>2020-06-05T13:47:52Z</time>
      </trkpt>
      <trkpt lat="47.26324" lon="-2.16413">
        <ele>5.5</ele>
        <time>2020-06-05T13:47:53Z</time>
      </trkpt>
      <trkpt lat="47.26328" lon="-2.16415">
        <ele>5.4</ele>
        <time>2020-06-05T13:47:54Z</time>
      </trkpt>
      <trkpt lat="47.26333" lon="-2.16418">
        <ele>5.4</ele>
        <time>2020-06-05T13:47:55Z</time>
      </trkpt>
      <trkpt lat="47.26338" lon="-2.1642">
        <ele>5.3</ele>
        <time>2020-06-05T13:47:56Z</time>
      </trkpt>
      <trkpt lat="47.26342" lon="-2.16422">
        <ele>5.3</ele>
        <time>2020-06-05T13:47:57Z</time>
      </trkpt>
      <trkpt lat="47.26347" lon="-2.16424">
        <ele>5.2</ele>
        <time>2020-06-05T13:47:58Z</time>
      </trkpt>
      <trkpt lat="47.26351" lon="-2.16427">
        <ele>5.2</ele>
        <time>2020-06-05T13:47:59Z</time>
      </trkpt>
      <trkpt lat="47.26355" lon="-2.16429">
        <ele>5.2</ele>
        <time>2020-06-05T13:48:00Z</time>
      </trkpt>
      <trkpt lat="47.26361" lon="-2.1643">
        <ele>5.2</ele>
        <time>2020-06-05T13:48:01Z</time>
      </trkpt>
      <trkpt lat="47.26365" lon="-2.16432">
        <ele>5.1</ele>
        <time>2020-06-05T13:48:02Z</time>
      </trkpt>
      <trkpt lat="47.26371" lon="-2.16434">
        <ele>5.1</ele>
        <time>2020-06-05T13:48:03Z</time>
      </trkpt>
      <trkpt lat="47.26376" lon="-2.16436">
        <ele>5</ele>
        <time>2020-06-05T13:48:04Z</time>
      </trkpt>
      <trkpt lat="47.26382" lon="-2.16438">
        <ele>4.9</ele>
        <time>2020-06-05T13:48:05Z</time>
      </trkpt>
      <trkpt lat="47.26387" lon="-2.1644">
        <ele>4.8</ele>
        <time>2020-06-05T13:48:06Z</time>
      </trkpt>
      <trkpt lat="47.26393" lon="-2.16442">
        <ele>4.7</ele>
        <time>2020-06-05T13:48:07Z</time>
      </trkpt>
      <trkpt lat="47.26398" lon="-2.16444">
        <ele>4.7</ele>
        <time>2020-06-05T13:48:08Z</time>
      </trkpt>
      <trkpt lat="47.26404" lon="-2.16445">
        <ele>4.6</ele>
        <time>2020-06-05T13:48:09Z</time>
      </trkpt>
      <trkpt lat="47.26409" lon="-2.16447">
        <ele>4.5</ele>
        <time>2020-06-05T13:48:10Z</time>
      </trkpt>
      <trkpt lat="47.26415" lon="-2.16449">
        <ele>4.4</ele>
        <time>2020-06-05T13:48:11Z</time>
      </trkpt>
      <trkpt lat="47.26419" lon="-2.16451">
        <ele>4.3</ele>
        <time>2020-06-05T13:48:12Z</time>
      </trkpt>
      <trkpt lat="47.26422" lon="-2.16452">
        <ele>4.3</ele>
        <time>2020-06-05T13:48:13Z</time>
      </trkpt>
      <trkpt lat="47.26425" lon="-2.16453">
        <ele>4.3</ele>
        <time>2020-06-05T13:48:14Z</time>
      </trkpt>
      <trkpt lat="47.26425" lon="-2.16453">
        <ele>4.2</ele>
        <time>2020-06-05T13:48:15Z</time>
      </trkpt>
      <trkpt lat="47.26426" lon="-2.16453">
        <ele>4.2</ele>
        <time>2020-06-05T13:48:16Z</time>
      </trkpt>
      <trkpt lat="47.2643" lon="-2.16453">
        <ele>4.1</ele>
        <time>2020-06-05T13:48:17Z</time>
      </trkpt>
      <trkpt lat="47.26432" lon="-2.16454">
        <ele>4.1</ele>
        <time>2020-06-05T13:48:18Z</time>
      </trkpt>
      <trkpt lat="47.26436" lon="-2.16456">
        <ele>4</ele>
        <time>2020-06-05T13:48:19Z</time>
      </trkpt>
      <trkpt lat="47.2644" lon="-2.16458">
        <ele>3.9</ele>
        <time>2020-06-05T13:48:20Z</time>
      </trkpt>
      <trkpt lat="47.26444" lon="-2.16461">
        <ele>3.8</ele>
        <time>2020-06-05T13:48:21Z</time>
      </trkpt>
      <trkpt lat="47.26447" lon="-2.16463">
        <ele>3.7</ele>
        <time>2020-06-05T13:48:22Z</time>
      </trkpt>
      <trkpt lat="47.26451" lon="-2.16465">
        <ele>3.6</ele>
        <time>2020-06-05T13:48:23Z</time>
      </trkpt>
      <trkpt lat="47.26455" lon="-2.16468">
        <ele>3.5</ele>
        <time>2020-06-05T13:48:24Z</time>
      </trkpt>
      <trkpt lat="47.26459" lon="-2.16472">
        <ele>3.3</ele>
        <time>2020-06-05T13:48:25Z</time>
      </trkpt>
      <trkpt lat="47.26463" lon="-2.16476">
        <ele>3.5</ele>
        <time>2020-06-05T13:48:26Z</time>
      </trkpt>
      <trkpt lat="47.26466" lon="-2.16481">
        <ele>3.6</ele>
        <time>2020-06-05T13:48:27Z</time>
      </trkpt>
      <trkpt lat="47.2647" lon="-2.16486">
        <ele>3.7</ele>
        <time>2020-06-05T13:48:28Z</time>
      </trkpt>
      <trkpt lat="47.26473" lon="-2.16493">
        <ele>3.8</ele>
        <time>2020-06-05T13:48:29Z</time>
      </trkpt>
      <trkpt lat="47.26475" lon="-2.16498">
        <ele>4</ele>
        <time>2020-06-05T13:48:30Z</time>
      </trkpt>
      <trkpt lat="47.26477" lon="-2.16504">
        <ele>4.1</ele>
        <time>2020-06-05T13:48:31Z</time>
      </trkpt>
      <trkpt lat="47.2648" lon="-2.16509">
        <ele>4.2</ele>
        <time>2020-06-05T13:48:32Z</time>
      </trkpt>
      <trkpt lat="47.26484" lon="-2.16514">
        <ele>4.3</ele>
        <time>2020-06-05T13:48:33Z</time>
      </trkpt>
      <trkpt lat="47.26487" lon="-2.16519">
        <ele>4.4</ele>
        <time>2020-06-05T13:48:34Z</time>
      </trkpt>
      <trkpt lat="47.2649" lon="-2.16524">
        <ele>4.6</ele>
        <time>2020-06-05T13:48:35Z</time>
      </trkpt>
      <trkpt lat="47.26494" lon="-2.16528">
        <ele>4.7</ele>
        <time>2020-06-05T13:48:36Z</time>
      </trkpt>
      <trkpt lat="47.26498" lon="-2.16533">
        <ele>4.7</ele>
        <time>2020-06-05T13:48:37Z</time>
      </trkpt>
      <trkpt lat="47.26503" lon="-2.16537">
        <ele>4.8</ele>
        <time>2020-06-05T13:48:38Z</time>
      </trkpt>
      <trkpt lat="47.26508" lon="-2.1654">
        <ele>4.8</ele>
        <time>2020-06-05T13:48:39Z</time>
      </trkpt>
      <trkpt lat="47.26512" lon="-2.16542">
        <ele>4.9</ele>
        <time>2020-06-05T13:48:40Z</time>
      </trkpt>
      <trkpt lat="47.26516" lon="-2.16545">
        <ele>4.9</ele>
        <time>2020-06-05T13:48:41Z</time>
      </trkpt>
      <trkpt lat="47.26519" lon="-2.16547">
        <ele>5</ele>
        <time>2020-06-05T13:48:42Z</time>
      </trkpt>
      <trkpt lat="47.26522" lon="-2.16549">
        <ele>5</ele>
        <time>2020-06-05T13:48:43Z</time>
      </trkpt>
      <trkpt lat="47.26526" lon="-2.16551">
        <ele>5.1</ele>
        <time>2020-06-05T13:48:44Z</time>
      </trkpt>
      <trkpt lat="47.2653" lon="-2.16551">
        <ele>5.1</ele>
        <time>2020-06-05T13:48:45Z</time>
      </trkpt>
      <trkpt lat="47.26534" lon="-2.16549">
        <ele>5.1</ele>
        <time>2020-06-05T13:48:46Z</time>
      </trkpt>
      <trkpt lat="47.26537" lon="-2.16543">
        <ele>5.1</ele>
        <time>2020-06-05T13:48:47Z</time>
      </trkpt>
      <trkpt lat="47.2654" lon="-2.16537">
        <ele>5</ele>
        <time>2020-06-05T13:48:48Z</time>
      </trkpt>
      <trkpt lat="47.26543" lon="-2.16532">
        <ele>5</ele>
        <time>2020-06-05T13:48:49Z</time>
      </trkpt>
      <trkpt lat="47.26546" lon="-2.16527">
        <ele>5</ele>
        <time>2020-06-05T13:48:50Z</time>
      </trkpt>
      <trkpt lat="47.26549" lon="-2.16522">
        <ele>5</ele>
        <time>2020-06-05T13:48:51Z</time>
      </trkpt>
      <trkpt lat="47.26553" lon="-2.16517">
        <ele>5</ele>
        <time>2020-06-05T13:48:52Z</time>
      </trkpt>
      <trkpt lat="47.26556" lon="-2.16511">
        <ele>5</ele>
        <time>2020-06-05T13:48:53Z</time>
      </trkpt>
      <trkpt lat="47.2656" lon="-2.16507">
        <ele>5</ele>
        <time>2020-06-05T13:48:54Z</time>
      </trkpt>
      <trkpt lat="47.26563" lon="-2.16502">
        <ele>5</ele>
        <time>2020-06-05T13:48:55Z</time>
      </trkpt>
      <trkpt lat="47.26567" lon="-2.16497">
        <ele>5</ele>
        <time>2020-06-05T13:48:56Z</time>
      </trkpt>
      <trkpt lat="47.26571" lon="-2.16492">
        <ele>5</ele>
        <time>2020-06-05T13:48:57Z</time>
      </trkpt>
      <trkpt lat="47.26574" lon="-2.16486">
        <ele>5</ele>
        <time>2020-06-05T13:48:58Z</time>
      </trkpt>
      <trkpt lat="47.26577" lon="-2.16481">
        <ele>5</ele>
        <time>2020-06-05T13:48:59Z</time>
      </trkpt>
      <trkpt lat="47.26581" lon="-2.16476">
        <ele>5</ele>
        <time>2020-06-05T13:49:00Z</time>
      </trkpt>
      <trkpt lat="47.26585" lon="-2.16471">
        <ele>5</ele>
        <time>2020-06-05T13:49:01Z</time>
      </trkpt>
      <trkpt lat="47.26588" lon="-2.16466">
        <ele>5</ele>
        <time>2020-06-05T13:49:02Z</time>
      </trkpt>
      <trkpt lat="47.26592" lon="-2.16461">
        <ele>5</ele>
        <time>2020-06-05T13:49:03Z</time>
      </trkpt>
      <trkpt lat="47.26596" lon="-2.16455">
        <ele>5</ele>
        <time>2020-06-05T13:49:04Z</time>
      </trkpt>
      <trkpt lat="47.26601" lon="-2.1645">
        <ele>5</ele>
        <time>2020-06-05T13:49:05Z</time>
      </trkpt>
      <trkpt lat="47.26604" lon="-2.16444">
        <ele>5</ele>
        <time>2020-06-05T13:49:06Z</time>
      </trkpt>
      <trkpt lat="47.26608" lon="-2.16439">
        <ele>5</ele>
        <time>2020-06-05T13:49:07Z</time>
      </trkpt>
      <trkpt lat="47.26612" lon="-2.16434">
        <ele>5</ele>
        <time>2020-06-05T13:49:08Z</time>
      </trkpt>
      <trkpt lat="47.26616" lon="-2.16428">
        <ele>4.9</ele>
        <time>2020-06-05T13:49:09Z</time>
      </trkpt>
      <trkpt lat="47.2662" lon="-2.16423">
        <ele>4.9</ele>
        <time>2020-06-05T13:49:10Z</time>
      </trkpt>
      <trkpt lat="47.26624" lon="-2.16417">
        <ele>4.9</ele>
        <time>2020-06-05T13:49:11Z</time>
      </trkpt>
      <trkpt lat="47.26627" lon="-2.16411">
        <ele>4.9</ele>
        <time>2020-06-05T13:49:12Z</time>
      </trkpt>
      <trkpt lat="47.2663" lon="-2.16405">
        <ele>4.9</ele>
        <time>2020-06-05T13:49:13Z</time>
      </trkpt>
      <trkpt lat="47.26633" lon="-2.16399">
        <ele>4.8</ele>
        <time>2020-06-05T13:49:14Z</time>
      </trkpt>
      <trkpt lat="47.26636" lon="-2.16394">
        <ele>4.8</ele>
        <time>2020-06-05T13:49:15Z</time>
      </trkpt>
      <trkpt lat="47.26639" lon="-2.16387">
        <ele>4.8</ele>
        <time>2020-06-05T13:49:16Z</time>
      </trkpt>
      <trkpt lat="47.26643" lon="-2.1638">
        <ele>4.7</ele>
        <time>2020-06-05T13:49:17Z</time>
      </trkpt>
      <trkpt lat="47.26647" lon="-2.16374">
        <ele>4.7</ele>
        <time>2020-06-05T13:49:18Z</time>
      </trkpt>
      <trkpt lat="47.2665" lon="-2.16367">
        <ele>4.7</ele>
        <time>2020-06-05T13:49:19Z</time>
      </trkpt>
      <trkpt lat="47.26651" lon="-2.16358">
        <ele>4.7</ele>
        <time>2020-06-05T13:49:20Z</time>
      </trkpt>
      <trkpt lat="47.26654" lon="-2.16352">
        <ele>4.7</ele>
        <time>2020-06-05T13:49:21Z</time>
      </trkpt>
      <trkpt lat="47.26655" lon="-2.16344">
        <ele>4.7</ele>
        <time>2020-06-05T13:49:22Z</time>
      </trkpt>
      <trkpt lat="47.26656" lon="-2.16336">
        <ele>4.7</ele>
        <time>2020-06-05T13:49:23Z</time>
      </trkpt>
      <trkpt lat="47.26658" lon="-2.16328">
        <ele>4.7</ele>
        <time>2020-06-05T13:49:24Z</time>
      </trkpt>
      <trkpt lat="47.26659" lon="-2.1632">
        <ele>4.6</ele>
        <time>2020-06-05T13:49:25Z</time>
      </trkpt>
      <trkpt lat="47.2666" lon="-2.16313">
        <ele>4.6</ele>
        <time>2020-06-05T13:49:26Z</time>
      </trkpt>
      <trkpt lat="47.26661" lon="-2.16305">
        <ele>4.6</ele>
        <time>2020-06-05T13:49:27Z</time>
      </trkpt>
      <trkpt lat="47.26661" lon="-2.16298">
        <ele>4.6</ele>
        <time>2020-06-05T13:49:28Z</time>
      </trkpt>
      <trkpt lat="47.26662" lon="-2.16291">
        <ele>4.5</ele>
        <time>2020-06-05T13:49:29Z</time>
      </trkpt>
      <trkpt lat="47.26662" lon="-2.16284">
        <ele>4.5</ele>
        <time>2020-06-05T13:49:30Z</time>
      </trkpt>
      <trkpt lat="47.26663" lon="-2.16277">
        <ele>4.5</ele>
        <time>2020-06-05T13:49:31Z</time>
      </trkpt>
      <trkpt lat="47.26664" lon="-2.1627">
        <ele>4.4</ele>
        <time>2020-06-05T13:49:32Z</time>
      </trkpt>
      <trkpt lat="47.26665" lon="-2.16263">
        <ele>4.4</ele>
        <time>2020-06-05T13:49:33Z</time>
      </trkpt>
      <trkpt lat="47.26667" lon="-2.16255">
        <ele>4.4</ele>
        <time>2020-06-05T13:49:34Z</time>
      </trkpt>
      <trkpt lat="47.26668" lon="-2.16248">
        <ele>4.4</ele>
        <time>2020-06-05T13:49:35Z</time>
      </trkpt>
      <trkpt lat="47.2667" lon="-2.16239">
        <ele>4.3</ele>
        <time>2020-06-05T13:49:36Z</time>
      </trkpt>
      <trkpt lat="47.2667" lon="-2.1623">
        <ele>4.3</ele>
        <time>2020-06-05T13:49:37Z</time>
      </trkpt>
      <trkpt lat="47.26671" lon="-2.16222">
        <ele>4.3</ele>
        <time>2020-06-05T13:49:38Z</time>
      </trkpt>
      <trkpt lat="47.26671" lon="-2.16213">
        <ele>4.3</ele>
        <time>2020-06-05T13:49:39Z</time>
      </trkpt>
      <trkpt lat="47.26672" lon="-2.16206">
        <ele>4.3</ele>
        <time>2020-06-05T13:49:40Z</time>
      </trkpt>
      <trkpt lat="47.26673" lon="-2.16199">
        <ele>4.4</ele>
        <time>2020-06-05T13:49:41Z</time>
      </trkpt>
      <trkpt lat="47.26677" lon="-2.16195">
        <ele>4.4</ele>
        <time>2020-06-05T13:49:42Z</time>
      </trkpt>
      <trkpt lat="47.26682" lon="-2.16192">
        <ele>4.4</ele>
        <time>2020-06-05T13:49:43Z</time>
      </trkpt>
      <trkpt lat="47.26686" lon="-2.16191">
        <ele>4.5</ele>
        <time>2020-06-05T13:49:44Z</time>
      </trkpt>
      <trkpt lat="47.2669" lon="-2.1619">
        <ele>4.6</ele>
        <time>2020-06-05T13:49:45Z</time>
      </trkpt>
      <trkpt lat="47.26694" lon="-2.16189">
        <ele>4.6</ele>
        <time>2020-06-05T13:49:46Z</time>
      </trkpt>
      <trkpt lat="47.26697" lon="-2.16188">
        <ele>4.6</ele>
        <time>2020-06-05T13:49:47Z</time>
      </trkpt>
      <trkpt lat="47.26701" lon="-2.16186">
        <ele>4.7</ele>
        <time>2020-06-05T13:49:48Z</time>
      </trkpt>
      <trkpt lat="47.26704" lon="-2.16184">
        <ele>4.7</ele>
        <time>2020-06-05T13:49:49Z</time>
      </trkpt>
      <trkpt lat="47.26708" lon="-2.16179">
        <ele>4.7</ele>
        <time>2020-06-05T13:49:50Z</time>
      </trkpt>
      <trkpt lat="47.2671" lon="-2.16172">
        <ele>4.7</ele>
        <time>2020-06-05T13:49:51Z</time>
      </trkpt>
      <trkpt lat="47.26711" lon="-2.16166">
        <ele>4.7</ele>
        <time>2020-06-05T13:49:52Z</time>
      </trkpt>
      <trkpt lat="47.26712" lon="-2.16159">
        <ele>4.6</ele>
        <time>2020-06-05T13:49:53Z</time>
      </trkpt>
      <trkpt lat="47.26712" lon="-2.16153">
        <ele>4.6</ele>
        <time>2020-06-05T13:49:54Z</time>
      </trkpt>
      <trkpt lat="47.26712" lon="-2.16145">
        <ele>4.6</ele>
        <time>2020-06-05T13:49:55Z</time>
      </trkpt>
      <trkpt lat="47.26713" lon="-2.16137">
        <ele>4.5</ele>
        <time>2020-06-05T13:49:56Z</time>
      </trkpt>
      <trkpt lat="47.26713" lon="-2.16129">
        <ele>4.5</ele>
        <time>2020-06-05T13:49:57Z</time>
      </trkpt>
      <trkpt lat="47.26715" lon="-2.16123">
        <ele>4.5</ele>
        <time>2020-06-05T13:49:58Z</time>
      </trkpt>
      <trkpt lat="47.26716" lon="-2.16118">
        <ele>4.4</ele>
        <time>2020-06-05T13:49:59Z</time>
      </trkpt>
      <trkpt lat="47.26717" lon="-2.16112">
        <ele>4.3</ele>
        <time>2020-06-05T13:50:00Z</time>
      </trkpt>
      <trkpt lat="47.26718" lon="-2.16107">
        <ele>4.3</ele>
        <time>2020-06-05T13:50:01Z</time>
      </trkpt>
      <trkpt lat="47.26721" lon="-2.16102">
        <ele>4.2</ele>
        <time>2020-06-05T13:50:02Z</time>
      </trkpt>
      <trkpt lat="47.26725" lon="-2.16097">
        <ele>4.1</ele>
        <time>2020-06-05T13:50:03Z</time>
      </trkpt>
      <trkpt lat="47.2673" lon="-2.16094">
        <ele>4.1</ele>
        <time>2020-06-05T13:50:04Z</time>
      </trkpt>
      <trkpt lat="47.26733" lon="-2.16093">
        <ele>4.1</ele>
        <time>2020-06-05T13:50:05Z</time>
      </trkpt>
      <trkpt lat="47.26735" lon="-2.16092">
        <ele>4.1</ele>
        <time>2020-06-05T13:50:06Z</time>
      </trkpt>
      <trkpt lat="47.26735" lon="-2.16094">
        <ele>4.1</ele>
        <time>2020-06-05T13:50:07Z</time>
      </trkpt>
      <trkpt lat="47.26735" lon="-2.16096">
        <ele>4.1</ele>
        <time>2020-06-05T13:50:08Z</time>
      </trkpt>
      <trkpt lat="47.26735" lon="-2.16097">
        <ele>4.1</ele>
        <time>2020-06-05T13:50:09Z</time>
      </trkpt>
      <trkpt lat="47.26734" lon="-2.16097">
        <ele>4.1</ele>
        <time>2020-06-05T13:50:10Z</time>
      </trkpt>
      <trkpt lat="47.26733" lon="-2.16099">
        <ele>4.1</ele>
        <time>2020-06-05T13:50:11Z</time>
      </trkpt>
      <trkpt lat="47.2673" lon="-2.16102">
        <ele>4.1</ele>
        <time>2020-06-05T13:50:12Z</time>
      </trkpt>
      <trkpt lat="47.2673" lon="-2.16103">
        <ele>4.1</ele>
        <time>2020-06-05T13:50:13Z</time>
      </trkpt>
      <trkpt lat="47.26728" lon="-2.16107">
        <ele>4.1</ele>
        <time>2020-06-05T13:50:14Z</time>
      </trkpt>
      <trkpt lat="47.26727" lon="-2.16109">
        <ele>4.1</ele>
        <time>2020-06-05T13:50:15Z</time>
      </trkpt>
      <trkpt lat="47.26727" lon="-2.16112">
        <ele>4.1</ele>
        <time>2020-06-05T13:50:16Z</time>
      </trkpt>
      <trkpt lat="47.26728" lon="-2.16114">
        <ele>4.1</ele>
        <time>2020-06-05T13:50:17Z</time>
      </trkpt>
      <trkpt lat="47.2673" lon="-2.16117">
        <ele>4.2</ele>
        <time>2020-06-05T13:50:18Z</time>
      </trkpt>
      <trkpt lat="47.26731" lon="-2.16118">
        <ele>4.2</ele>
        <time>2020-06-05T13:50:19Z</time>
      </trkpt>
      <trkpt lat="47.26734" lon="-2.16119">
        <ele>4.2</ele>
        <time>2020-06-05T13:50:20Z</time>
      </trkpt>
      <trkpt lat="47.26738" lon="-2.1612">
        <ele>4.2</ele>
        <time>2020-06-05T13:50:21Z</time>
      </trkpt>
      <trkpt lat="47.2674" lon="-2.1612">
        <ele>4.3</ele>
        <time>2020-06-05T13:50:22Z</time>
      </trkpt>
      <trkpt lat="47.26744" lon="-2.16121">
        <ele>4.3</ele>
        <time>2020-06-05T13:50:23Z</time>
      </trkpt>
      <trkpt lat="47.26745" lon="-2.16122">
        <ele>4.3</ele>
        <time>2020-06-05T13:50:24Z</time>
      </trkpt>
      <trkpt lat="47.26748" lon="-2.16123">
        <ele>4.3</ele>
        <time>2020-06-05T13:50:25Z</time>
      </trkpt>
      <trkpt lat="47.26749" lon="-2.16124">
        <ele>4.3</ele>
        <time>2020-06-05T13:50:26Z</time>
      </trkpt>
      <trkpt lat="47.26751" lon="-2.16124">
        <ele>4.4</ele>
        <time>2020-06-05T13:50:27Z</time>
      </trkpt>
      <trkpt lat="47.26752" lon="-2.16124">
        <ele>4.4</ele>
        <time>2020-06-05T13:50:28Z</time>
      </trkpt>
      <trkpt lat="47.26754" lon="-2.16123">
        <ele>4.4</ele>
        <time>2020-06-05T13:50:29Z</time>
      </trkpt>
      <trkpt lat="47.26755" lon="-2.16124">
        <ele>4.4</ele>
        <time>2020-06-05T13:50:30Z</time>
      </trkpt>
      <trkpt lat="47.26757" lon="-2.16124">
        <ele>4.4</ele>
        <time>2020-06-05T13:50:31Z</time>
      </trkpt>
      <trkpt lat="47.26758" lon="-2.16125">
        <ele>4.4</ele>
        <time>2020-06-05T13:50:32Z</time>
      </trkpt>
      <trkpt lat="47.26759" lon="-2.16125">
        <ele>4.5</ele>
        <time>2020-06-05T13:50:33Z</time>
      </trkpt>
      <trkpt lat="47.26761" lon="-2.16126">
        <ele>4.5</ele>
        <time>2020-06-05T13:50:34Z</time>
      </trkpt>
      <trkpt lat="47.26762" lon="-2.16126">
        <ele>4.5</ele>
        <time>2020-06-05T13:50:35Z</time>
      </trkpt>
      <trkpt lat="47.26763" lon="-2.16126">
        <ele>4.5</ele>
        <time>2020-06-05T13:50:36Z</time>
      </trkpt>
      <trkpt lat="47.26765" lon="-2.16127">
        <ele>4.5</ele>
        <time>2020-06-05T13:50:37Z</time>
      </trkpt>
      <trkpt lat="47.26766" lon="-2.16127">
        <ele>4.5</ele>
        <time>2020-06-05T13:50:38Z</time>
      </trkpt>
      <trkpt lat="47.26767" lon="-2.16128">
        <ele>4.5</ele>
        <time>2020-06-05T13:50:39Z</time>
      </trkpt>
      <trkpt lat="47.26769" lon="-2.16128">
        <ele>4.6</ele>
        <time>2020-06-05T13:50:40Z</time>
      </trkpt>
      <trkpt lat="47.2677" lon="-2.16129">
        <ele>4.6</ele>
        <time>2020-06-05T13:50:41Z</time>
      </trkpt>
      <trkpt lat="47.26771" lon="-2.16129">
        <ele>4.6</ele>
        <time>2020-06-05T13:52:31Z</time>
      </trkpt>
      <trkpt lat="47.26772" lon="-2.16129">
        <ele>4.6</ele>
        <time>2020-06-05T13:52:32Z</time>
      </trkpt>
      <trkpt lat="47.26777" lon="-2.16131">
        <ele>4.7</ele>
        <time>2020-06-05T13:52:33Z</time>
      </trkpt>
      <trkpt lat="47.26781" lon="-2.1613">
        <ele>4.8</ele>
        <time>2020-06-05T13:52:34Z</time>
      </trkpt>
      <trkpt lat="47.26785" lon="-2.16131">
        <ele>4.8</ele>
        <time>2020-06-05T13:52:35Z</time>
      </trkpt>
      <trkpt lat="47.26789" lon="-2.16131">
        <ele>4.9</ele>
        <time>2020-06-05T13:52:36Z</time>
      </trkpt>
      <trkpt lat="47.26793" lon="-2.16133">
        <ele>5</ele>
        <time>2020-06-05T13:52:37Z</time>
      </trkpt>
      <trkpt lat="47.26797" lon="-2.16136">
        <ele>5.1</ele>
        <time>2020-06-05T13:52:38Z</time>
      </trkpt>
      <trkpt lat="47.26802" lon="-2.16138">
        <ele>5.2</ele>
        <time>2020-06-05T13:52:39Z</time>
      </trkpt>
      <trkpt lat="47.26806" lon="-2.1614">
        <ele>5.2</ele>
        <time>2020-06-05T13:52:40Z</time>
      </trkpt>
      <trkpt lat="47.2681" lon="-2.16143">
        <ele>5.3</ele>
        <time>2020-06-05T13:52:41Z</time>
      </trkpt>
      <trkpt lat="47.26815" lon="-2.16146">
        <ele>5.4</ele>
        <time>2020-06-05T13:52:42Z</time>
      </trkpt>
      <trkpt lat="47.2682" lon="-2.16147">
        <ele>5.5</ele>
        <time>2020-06-05T13:52:43Z</time>
      </trkpt>
      <trkpt lat="47.26825" lon="-2.16148">
        <ele>5.6</ele>
        <time>2020-06-05T13:52:44Z</time>
      </trkpt>
      <trkpt lat="47.2683" lon="-2.16152">
        <ele>5.7</ele>
        <time>2020-06-05T13:52:45Z</time>
      </trkpt>
      <trkpt lat="47.26835" lon="-2.16154">
        <ele>5.8</ele>
        <time>2020-06-05T13:52:46Z</time>
      </trkpt>
      <trkpt lat="47.2684" lon="-2.16157">
        <ele>6</ele>
        <time>2020-06-05T13:52:47Z</time>
      </trkpt>
      <trkpt lat="47.26846" lon="-2.1616">
        <ele>6.1</ele>
        <time>2020-06-05T13:52:48Z</time>
      </trkpt>
      <trkpt lat="47.26851" lon="-2.16163">
        <ele>6.3</ele>
        <time>2020-06-05T13:52:49Z</time>
      </trkpt>
      <trkpt lat="47.26856" lon="-2.16165">
        <ele>6.4</ele>
        <time>2020-06-05T13:52:50Z</time>
      </trkpt>
      <trkpt lat="47.26861" lon="-2.16168">
        <ele>6.5</ele>
        <time>2020-06-05T13:52:51Z</time>
      </trkpt>
      <trkpt lat="47.26866" lon="-2.16171">
        <ele>6.7</ele>
        <time>2020-06-05T13:52:52Z</time>
      </trkpt>
      <trkpt lat="47.26871" lon="-2.16175">
        <ele>6.8</ele>
        <time>2020-06-05T13:52:53Z</time>
      </trkpt>
      <trkpt lat="47.26876" lon="-2.16178">
        <ele>6.9</ele>
        <time>2020-06-05T13:52:54Z</time>
      </trkpt>
      <trkpt lat="47.26881" lon="-2.16183">
        <ele>7</ele>
        <time>2020-06-05T13:52:55Z</time>
      </trkpt>
      <trkpt lat="47.26886" lon="-2.16186">
        <ele>7.1</ele>
        <time>2020-06-05T13:52:56Z</time>
      </trkpt>
      <trkpt lat="47.26892" lon="-2.1619">
        <ele>7.2</ele>
        <time>2020-06-05T13:52:57Z</time>
      </trkpt>
      <trkpt lat="47.26897" lon="-2.16193">
        <ele>7.3</ele>
        <time>2020-06-05T13:52:58Z</time>
      </trkpt>
      <trkpt lat="47.26902" lon="-2.16196">
        <ele>7.4</ele>
        <time>2020-06-05T13:52:59Z</time>
      </trkpt>
      <trkpt lat="47.26909" lon="-2.16196">
        <ele>7.4</ele>
        <time>2020-06-05T13:53:00Z</time>
      </trkpt>
      <trkpt lat="47.26916" lon="-2.16197">
        <ele>7.4</ele>
        <time>2020-06-05T13:53:01Z</time>
      </trkpt>
      <trkpt lat="47.26922" lon="-2.162">
        <ele>7.5</ele>
        <time>2020-06-05T13:53:02Z</time>
      </trkpt>
      <trkpt lat="47.26929" lon="-2.16203">
        <ele>7.5</ele>
        <time>2020-06-05T13:53:03Z</time>
      </trkpt>
      <trkpt lat="47.26936" lon="-2.16206">
        <ele>7.7</ele>
        <time>2020-06-05T13:53:04Z</time>
      </trkpt>
      <trkpt lat="47.26941" lon="-2.16209">
        <ele>7.8</ele>
        <time>2020-06-05T13:53:05Z</time>
      </trkpt>
      <trkpt lat="47.26947" lon="-2.1621">
        <ele>7.8</ele>
        <time>2020-06-05T13:53:06Z</time>
      </trkpt>
      <trkpt lat="47.26954" lon="-2.16212">
        <ele>7.8</ele>
        <time>2020-06-05T13:53:07Z</time>
      </trkpt>
      <trkpt lat="47.26962" lon="-2.16215">
        <ele>7.8</ele>
        <time>2020-06-05T13:53:08Z</time>
      </trkpt>
      <trkpt lat="47.26968" lon="-2.16216">
        <ele>7.8</ele>
        <time>2020-06-05T13:53:09Z</time>
      </trkpt>
      <trkpt lat="47.26975" lon="-2.16218">
        <ele>7.8</ele>
        <time>2020-06-05T13:53:10Z</time>
      </trkpt>
      <trkpt lat="47.26982" lon="-2.1622">
        <ele>7.9</ele>
        <time>2020-06-05T13:53:11Z</time>
      </trkpt>
      <trkpt lat="47.26989" lon="-2.16223">
        <ele>7.9</ele>
        <time>2020-06-05T13:53:12Z</time>
      </trkpt>
      <trkpt lat="47.26997" lon="-2.16225">
        <ele>8</ele>
        <time>2020-06-05T13:53:13Z</time>
      </trkpt>
      <trkpt lat="47.27005" lon="-2.16227">
        <ele>8.1</ele>
        <time>2020-06-05T13:53:14Z</time>
      </trkpt>
      <trkpt lat="47.27012" lon="-2.16229">
        <ele>8.1</ele>
        <time>2020-06-05T13:53:15Z</time>
      </trkpt>
      <trkpt lat="47.27018" lon="-2.16232">
        <ele>8.1</ele>
        <time>2020-06-05T13:53:16Z</time>
      </trkpt>
      <trkpt lat="47.27026" lon="-2.16235">
        <ele>8.2</ele>
        <time>2020-06-05T13:53:17Z</time>
      </trkpt>
      <trkpt lat="47.27033" lon="-2.16236">
        <ele>8.2</ele>
        <time>2020-06-05T13:53:18Z</time>
      </trkpt>
      <trkpt lat="47.2704" lon="-2.16238">
        <ele>8.2</ele>
        <time>2020-06-05T13:53:19Z</time>
      </trkpt>
      <trkpt lat="47.27047" lon="-2.16241">
        <ele>8.2</ele>
        <time>2020-06-05T13:53:20Z</time>
      </trkpt>
      <trkpt lat="47.27054" lon="-2.16242">
        <ele>8.3</ele>
        <time>2020-06-05T13:53:21Z</time>
      </trkpt>
      <trkpt lat="47.27061" lon="-2.16244">
        <ele>8.3</ele>
        <time>2020-06-05T13:53:22Z</time>
      </trkpt>
      <trkpt lat="47.27067" lon="-2.16246">
        <ele>8.3</ele>
        <time>2020-06-05T13:53:23Z</time>
      </trkpt>
      <trkpt lat="47.27074" lon="-2.16248">
        <ele>8.4</ele>
        <time>2020-06-05T13:53:24Z</time>
      </trkpt>
      <trkpt lat="47.27081" lon="-2.1625">
        <ele>8.4</ele>
        <time>2020-06-05T13:53:25Z</time>
      </trkpt>
      <trkpt lat="47.27088" lon="-2.16254">
        <ele>8.4</ele>
        <time>2020-06-05T13:53:26Z</time>
      </trkpt>
      <trkpt lat="47.27094" lon="-2.16256">
        <ele>8.4</ele>
        <time>2020-06-05T13:53:27Z</time>
      </trkpt>
      <trkpt lat="47.271" lon="-2.16257">
        <ele>8.4</ele>
        <time>2020-06-05T13:53:28Z</time>
      </trkpt>
      <trkpt lat="47.27106" lon="-2.16259">
        <ele>8.4</ele>
        <time>2020-06-05T13:53:29Z</time>
      </trkpt>
      <trkpt lat="47.27113" lon="-2.16261">
        <ele>8.5</ele>
        <time>2020-06-05T13:53:30Z</time>
      </trkpt>
      <trkpt lat="47.27119" lon="-2.16262">
        <ele>8.5</ele>
        <time>2020-06-05T13:53:31Z</time>
      </trkpt>
      <trkpt lat="47.27126" lon="-2.16264">
        <ele>8.5</ele>
        <time>2020-06-05T13:53:32Z</time>
      </trkpt>
      <trkpt lat="47.27132" lon="-2.16266">
        <ele>8.5</ele>
        <time>2020-06-05T13:53:33Z</time>
      </trkpt>
      <trkpt lat="47.2714" lon="-2.16268">
        <ele>8.5</ele>
        <time>2020-06-05T13:53:34Z</time>
      </trkpt>
      <trkpt lat="47.27146" lon="-2.1627">
        <ele>8.6</ele>
        <time>2020-06-05T13:53:35Z</time>
      </trkpt>
      <trkpt lat="47.27153" lon="-2.16271">
        <ele>8.6</ele>
        <time>2020-06-05T13:53:36Z</time>
      </trkpt>
      <trkpt lat="47.2716" lon="-2.16274">
        <ele>8.6</ele>
        <time>2020-06-05T13:53:37Z</time>
      </trkpt>
      <trkpt lat="47.27167" lon="-2.16276">
        <ele>8.7</ele>
        <time>2020-06-05T13:53:38Z</time>
      </trkpt>
      <trkpt lat="47.27173" lon="-2.16279">
        <ele>8.7</ele>
        <time>2020-06-05T13:53:39Z</time>
      </trkpt>
      <trkpt lat="47.2718" lon="-2.16281">
        <ele>8.8</ele>
        <time>2020-06-05T13:53:40Z</time>
      </trkpt>
      <trkpt lat="47.27186" lon="-2.16283">
        <ele>8.8</ele>
        <time>2020-06-05T13:53:41Z</time>
      </trkpt>
      <trkpt lat="47.27193" lon="-2.16285">
        <ele>8.8</ele>
        <time>2020-06-05T13:53:42Z</time>
      </trkpt>
      <trkpt lat="47.27199" lon="-2.16287">
        <ele>8.9</ele>
        <time>2020-06-05T13:53:43Z</time>
      </trkpt>
      <trkpt lat="47.27206" lon="-2.16288">
        <ele>8.9</ele>
        <time>2020-06-05T13:53:44Z</time>
      </trkpt>
      <trkpt lat="47.27212" lon="-2.16289">
        <ele>8.9</ele>
        <time>2020-06-05T13:53:45Z</time>
      </trkpt>
      <trkpt lat="47.27219" lon="-2.16291">
        <ele>8.9</ele>
        <time>2020-06-05T13:53:46Z</time>
      </trkpt>
      <trkpt lat="47.27225" lon="-2.16293">
        <ele>9</ele>
        <time>2020-06-05T13:53:47Z</time>
      </trkpt>
      <trkpt lat="47.27231" lon="-2.16296">
        <ele>9</ele>
        <time>2020-06-05T13:53:48Z</time>
      </trkpt>
      <trkpt lat="47.27238" lon="-2.16298">
        <ele>9</ele>
        <time>2020-06-05T13:53:49Z</time>
      </trkpt>
      <trkpt lat="47.27244" lon="-2.163">
        <ele>9</ele>
        <time>2020-06-05T13:53:50Z</time>
      </trkpt>
      <trkpt lat="47.2725" lon="-2.16303">
        <ele>9.1</ele>
        <time>2020-06-05T13:53:51Z</time>
      </trkpt>
      <trkpt lat="47.27257" lon="-2.16304">
        <ele>9.1</ele>
        <time>2020-06-05T13:53:52Z</time>
      </trkpt>
      <trkpt lat="47.27263" lon="-2.16307">
        <ele>9.1</ele>
        <time>2020-06-05T13:53:53Z</time>
      </trkpt>
      <trkpt lat="47.27269" lon="-2.16309">
        <ele>9.1</ele>
        <time>2020-06-05T13:53:54Z</time>
      </trkpt>
      <trkpt lat="47.27276" lon="-2.16311">
        <ele>9.1</ele>
        <time>2020-06-05T13:53:55Z</time>
      </trkpt>
      <trkpt lat="47.27282" lon="-2.16313">
        <ele>9.1</ele>
        <time>2020-06-05T13:53:56Z</time>
      </trkpt>
      <trkpt lat="47.27288" lon="-2.16314">
        <ele>9.1</ele>
        <time>2020-06-05T13:53:57Z</time>
      </trkpt>
      <trkpt lat="47.27295" lon="-2.16316">
        <ele>9.1</ele>
        <time>2020-06-05T13:53:58Z</time>
      </trkpt>
      <trkpt lat="47.27301" lon="-2.16317">
        <ele>9.1</ele>
        <time>2020-06-05T13:53:59Z</time>
      </trkpt>
      <trkpt lat="47.27308" lon="-2.16319">
        <ele>9.1</ele>
        <time>2020-06-05T13:54:00Z</time>
      </trkpt>
      <trkpt lat="47.27314" lon="-2.1632">
        <ele>9.1</ele>
        <time>2020-06-05T13:54:01Z</time>
      </trkpt>
      <trkpt lat="47.2732" lon="-2.16322">
        <ele>9.2</ele>
        <time>2020-06-05T13:54:02Z</time>
      </trkpt>
      <trkpt lat="47.27326" lon="-2.16324">
        <ele>9.2</ele>
        <time>2020-06-05T13:54:03Z</time>
      </trkpt>
      <trkpt lat="47.27333" lon="-2.16326">
        <ele>9.2</ele>
        <time>2020-06-05T13:54:04Z</time>
      </trkpt>
      <trkpt lat="47.27339" lon="-2.16329">
        <ele>9.2</ele>
        <time>2020-06-05T13:54:05Z</time>
      </trkpt>
      <trkpt lat="47.27346" lon="-2.16331">
        <ele>9.2</ele>
        <time>2020-06-05T13:54:06Z</time>
      </trkpt>
      <trkpt lat="47.27352" lon="-2.16333">
        <ele>9.2</ele>
        <time>2020-06-05T13:54:07Z</time>
      </trkpt>
      <trkpt lat="47.27359" lon="-2.16335">
        <ele>9.3</ele>
        <time>2020-06-05T13:54:08Z</time>
      </trkpt>
      <trkpt lat="47.27365" lon="-2.16337">
        <ele>9.3</ele>
        <time>2020-06-05T13:54:09Z</time>
      </trkpt>
      <trkpt lat="47.27371" lon="-2.16339">
        <ele>9.3</ele>
        <time>2020-06-05T13:54:10Z</time>
      </trkpt>
      <trkpt lat="47.27377" lon="-2.16341">
        <ele>9.3</ele>
        <time>2020-06-05T13:54:11Z</time>
      </trkpt>
      <trkpt lat="47.27383" lon="-2.16343">
        <ele>9.3</ele>
        <time>2020-06-05T13:54:12Z</time>
      </trkpt>
      <trkpt lat="47.27389" lon="-2.16345">
        <ele>9.4</ele>
        <time>2020-06-05T13:54:13Z</time>
      </trkpt>
      <trkpt lat="47.27394" lon="-2.16347">
        <ele>9.5</ele>
        <time>2020-06-05T13:54:14Z</time>
      </trkpt>
      <trkpt lat="47.274" lon="-2.16349">
        <ele>9.5</ele>
        <time>2020-06-05T13:54:15Z</time>
      </trkpt>
      <trkpt lat="47.27406" lon="-2.1635">
        <ele>9.6</ele>
        <time>2020-06-05T13:54:16Z</time>
      </trkpt>
      <trkpt lat="47.27412" lon="-2.16353">
        <ele>9.6</ele>
        <time>2020-06-05T13:54:17Z</time>
      </trkpt>
      <trkpt lat="47.27418" lon="-2.16356">
        <ele>9.6</ele>
        <time>2020-06-05T13:54:18Z</time>
      </trkpt>
      <trkpt lat="47.27425" lon="-2.16359">
        <ele>11.1</ele>
        <time>2020-06-05T13:54:19Z</time>
      </trkpt>
      <trkpt lat="47.27432" lon="-2.16361">
        <ele>11.8</ele>
        <time>2020-06-05T13:54:20Z</time>
      </trkpt>
      <trkpt lat="47.27438" lon="-2.16363">
        <ele>12.2</ele>
        <time>2020-06-05T13:54:21Z</time>
      </trkpt>
      <trkpt lat="47.27444" lon="-2.16366">
        <ele>12.5</ele>
        <time>2020-06-05T13:54:22Z</time>
      </trkpt>
      <trkpt lat="47.2745" lon="-2.16368">
        <ele>12.8</ele>
        <time>2020-06-05T13:54:23Z</time>
      </trkpt>
      <trkpt lat="47.27457" lon="-2.1637">
        <ele>13</ele>
        <time>2020-06-05T13:54:24Z</time>
      </trkpt>
      <trkpt lat="47.27463" lon="-2.16372">
        <ele>13.2</ele>
        <time>2020-06-05T13:54:25Z</time>
      </trkpt>
      <trkpt lat="47.27469" lon="-2.16374">
        <ele>13.4</ele>
        <time>2020-06-05T13:54:26Z</time>
      </trkpt>
      <trkpt lat="47.27475" lon="-2.16374">
        <ele>13.5</ele>
        <time>2020-06-05T13:54:27Z</time>
      </trkpt>
      <trkpt lat="47.2748" lon="-2.16376">
        <ele>13.7</ele>
        <time>2020-06-05T13:54:28Z</time>
      </trkpt>
      <trkpt lat="47.27485" lon="-2.16378">
        <ele>13.8</ele>
        <time>2020-06-05T13:54:29Z</time>
      </trkpt>
      <trkpt lat="47.27492" lon="-2.16381">
        <ele>14</ele>
        <time>2020-06-05T13:54:30Z</time>
      </trkpt>
      <trkpt lat="47.27498" lon="-2.16383">
        <ele>14.2</ele>
        <time>2020-06-05T13:54:31Z</time>
      </trkpt>
      <trkpt lat="47.27504" lon="-2.16386">
        <ele>14.3</ele>
        <time>2020-06-05T13:54:32Z</time>
      </trkpt>
      <trkpt lat="47.27511" lon="-2.16389">
        <ele>14.4</ele>
        <time>2020-06-05T13:54:33Z</time>
      </trkpt>
      <trkpt lat="47.27516" lon="-2.16392">
        <ele>14.5</ele>
        <time>2020-06-05T13:54:34Z</time>
      </trkpt>
      <trkpt lat="47.27523" lon="-2.16394">
        <ele>14.6</ele>
        <time>2020-06-05T13:54:35Z</time>
      </trkpt>
      <trkpt lat="47.2753" lon="-2.16397">
        <ele>14.8</ele>
        <time>2020-06-05T13:54:36Z</time>
      </trkpt>
      <trkpt lat="47.27535" lon="-2.16399">
        <ele>15</ele>
        <time>2020-06-05T13:54:37Z</time>
      </trkpt>
      <trkpt lat="47.27541" lon="-2.16401">
        <ele>15.2</ele>
        <time>2020-06-05T13:54:38Z</time>
      </trkpt>
      <trkpt lat="47.27547" lon="-2.16403">
        <ele>15.4</ele>
        <time>2020-06-05T13:54:39Z</time>
      </trkpt>
      <trkpt lat="47.27551" lon="-2.16404">
        <ele>15.5</ele>
        <time>2020-06-05T13:54:40Z</time>
      </trkpt>
      <trkpt lat="47.27556" lon="-2.16406">
        <ele>15.6</ele>
        <time>2020-06-05T13:54:41Z</time>
      </trkpt>
      <trkpt lat="47.27562" lon="-2.16408">
        <ele>15.8</ele>
        <time>2020-06-05T13:54:42Z</time>
      </trkpt>
      <trkpt lat="47.27567" lon="-2.1641">
        <ele>16</ele>
        <time>2020-06-05T13:54:43Z</time>
      </trkpt>
      <trkpt lat="47.27572" lon="-2.16412">
        <ele>16.2</ele>
        <time>2020-06-05T13:54:44Z</time>
      </trkpt>
      <trkpt lat="47.27577" lon="-2.16415">
        <ele>16.5</ele>
        <time>2020-06-05T13:54:45Z</time>
      </trkpt>
      <trkpt lat="47.27583" lon="-2.16418">
        <ele>16.7</ele>
        <time>2020-06-05T13:54:46Z</time>
      </trkpt>
      <trkpt lat="47.27587" lon="-2.16421">
        <ele>16.9</ele>
        <time>2020-06-05T13:54:47Z</time>
      </trkpt>
      <trkpt lat="47.27592" lon="-2.16424">
        <ele>17</ele>
        <time>2020-06-05T13:54:48Z</time>
      </trkpt>
      <trkpt lat="47.27597" lon="-2.16425">
        <ele>17.2</ele>
        <time>2020-06-05T13:54:49Z</time>
      </trkpt>
      <trkpt lat="47.27602" lon="-2.16427">
        <ele>17.5</ele>
        <time>2020-06-05T13:54:50Z</time>
      </trkpt>
      <trkpt lat="47.27606" lon="-2.16429">
        <ele>17.7</ele>
        <time>2020-06-05T13:54:51Z</time>
      </trkpt>
      <trkpt lat="47.27611" lon="-2.1643">
        <ele>17.9</ele>
        <time>2020-06-05T13:54:52Z</time>
      </trkpt>
      <trkpt lat="47.27615" lon="-2.16432">
        <ele>18.1</ele>
        <time>2020-06-05T13:54:53Z</time>
      </trkpt>
      <trkpt lat="47.27619" lon="-2.16434">
        <ele>18.2</ele>
        <time>2020-06-05T13:54:54Z</time>
      </trkpt>
      <trkpt lat="47.27624" lon="-2.16436">
        <ele>18.4</ele>
        <time>2020-06-05T13:54:55Z</time>
      </trkpt>
      <trkpt lat="47.27627" lon="-2.16438">
        <ele>18.6</ele>
        <time>2020-06-05T13:54:56Z</time>
      </trkpt>
      <trkpt lat="47.27631" lon="-2.1644">
        <ele>18.8</ele>
        <time>2020-06-05T13:54:57Z</time>
      </trkpt>
      <trkpt lat="47.27636" lon="-2.16442">
        <ele>19</ele>
        <time>2020-06-05T13:54:58Z</time>
      </trkpt>
      <trkpt lat="47.2764" lon="-2.16444">
        <ele>19.2</ele>
        <time>2020-06-05T13:54:59Z</time>
      </trkpt>
      <trkpt lat="47.27645" lon="-2.16446">
        <ele>19.4</ele>
        <time>2020-06-05T13:55:00Z</time>
      </trkpt>
      <trkpt lat="47.2765" lon="-2.16448">
        <ele>19.6</ele>
        <time>2020-06-05T13:55:01Z</time>
      </trkpt>
      <trkpt lat="47.27654" lon="-2.1645">
        <ele>19.8</ele>
        <time>2020-06-05T13:55:02Z</time>
      </trkpt>
      <trkpt lat="47.27659" lon="-2.16453">
        <ele>20</ele>
        <time>2020-06-05T13:55:03Z</time>
      </trkpt>
      <trkpt lat="47.27664" lon="-2.16455">
        <ele>20.1</ele>
        <time>2020-06-05T13:55:04Z</time>
      </trkpt>
      <trkpt lat="47.27669" lon="-2.16458">
        <ele>20.3</ele>
        <time>2020-06-05T13:55:05Z</time>
      </trkpt>
      <trkpt lat="47.27674" lon="-2.16459">
        <ele>20.5</ele>
        <time>2020-06-05T13:55:06Z</time>
      </trkpt>
      <trkpt lat="47.27678" lon="-2.1646">
        <ele>20.7</ele>
        <time>2020-06-05T13:55:07Z</time>
      </trkpt>
      <trkpt lat="47.27682" lon="-2.16462">
        <ele>21</ele>
        <time>2020-06-05T13:55:08Z</time>
      </trkpt>
      <trkpt lat="47.27686" lon="-2.16464">
        <ele>21.2</ele>
        <time>2020-06-05T13:55:09Z</time>
      </trkpt>
      <trkpt lat="47.27689" lon="-2.16466">
        <ele>21.4</ele>
        <time>2020-06-05T13:55:10Z</time>
      </trkpt>
      <trkpt lat="47.27693" lon="-2.16467">
        <ele>21.7</ele>
        <time>2020-06-05T13:55:11Z</time>
      </trkpt>
      <trkpt lat="47.27697" lon="-2.16469">
        <ele>21.9</ele>
        <time>2020-06-05T13:55:12Z</time>
      </trkpt>
      <trkpt lat="47.277" lon="-2.1647">
        <ele>22.1</ele>
        <time>2020-06-05T13:55:13Z</time>
      </trkpt>
      <trkpt lat="47.27703" lon="-2.16471">
        <ele>22.2</ele>
        <time>2020-06-05T13:55:14Z</time>
      </trkpt>
      <trkpt lat="47.27707" lon="-2.16473">
        <ele>22.4</ele>
        <time>2020-06-05T13:55:15Z</time>
      </trkpt>
      <trkpt lat="47.2771" lon="-2.16476">
        <ele>22.6</ele>
        <time>2020-06-05T13:55:16Z</time>
      </trkpt>
      <trkpt lat="47.27713" lon="-2.16478">
        <ele>22.8</ele>
        <time>2020-06-05T13:55:17Z</time>
      </trkpt>
      <trkpt lat="47.27716" lon="-2.16479">
        <ele>22.9</ele>
        <time>2020-06-05T13:55:18Z</time>
      </trkpt>
      <trkpt lat="47.27719" lon="-2.16481">
        <ele>23.1</ele>
        <time>2020-06-05T13:55:19Z</time>
      </trkpt>
      <trkpt lat="47.27723" lon="-2.16482">
        <ele>23.3</ele>
        <time>2020-06-05T13:55:20Z</time>
      </trkpt>
      <trkpt lat="47.27728" lon="-2.16485">
        <ele>23.5</ele>
        <time>2020-06-05T13:55:21Z</time>
      </trkpt>
      <trkpt lat="47.27732" lon="-2.16486">
        <ele>23.7</ele>
        <time>2020-06-05T13:55:22Z</time>
      </trkpt>
      <trkpt lat="47.27735" lon="-2.16488">
        <ele>23.9</ele>
        <time>2020-06-05T13:55:23Z</time>
      </trkpt>
      <trkpt lat="47.27738" lon="-2.16489">
        <ele>24</ele>
        <time>2020-06-05T13:55:24Z</time>
      </trkpt>
      <trkpt lat="47.27742" lon="-2.16491">
        <ele>24.2</ele>
        <time>2020-06-05T13:55:25Z</time>
      </trkpt>
      <trkpt lat="47.27745" lon="-2.16493">
        <ele>24.4</ele>
        <time>2020-06-05T13:55:26Z</time>
      </trkpt>
      <trkpt lat="47.27748" lon="-2.16495">
        <ele>24.5</ele>
        <time>2020-06-05T13:55:27Z</time>
      </trkpt>
      <trkpt lat="47.27751" lon="-2.16496">
        <ele>24.7</ele>
        <time>2020-06-05T13:55:28Z</time>
      </trkpt>
      <trkpt lat="47.27754" lon="-2.16497">
        <ele>24.9</ele>
        <time>2020-06-05T13:55:29Z</time>
      </trkpt>
      <trkpt lat="47.27757" lon="-2.16499">
        <ele>25</ele>
        <time>2020-06-05T13:55:30Z</time>
      </trkpt>
      <trkpt lat="47.2776" lon="-2.16501">
        <ele>25.2</ele>
        <time>2020-06-05T13:55:31Z</time>
      </trkpt>
      <trkpt lat="47.27762" lon="-2.16502">
        <ele>25.3</ele>
        <time>2020-06-05T13:55:32Z</time>
      </trkpt>
      <trkpt lat="47.27765" lon="-2.16503">
        <ele>25.4</ele>
        <time>2020-06-05T13:55:33Z</time>
      </trkpt>
      <trkpt lat="47.27766" lon="-2.16504">
        <ele>25.5</ele>
        <time>2020-06-05T13:55:34Z</time>
      </trkpt>
      <trkpt lat="47.27769" lon="-2.16506">
        <ele>25.6</ele>
        <time>2020-06-05T13:55:35Z</time>
      </trkpt>
      <trkpt lat="47.27772" lon="-2.16509">
        <ele>25.8</ele>
        <time>2020-06-05T13:55:36Z</time>
      </trkpt>
      <trkpt lat="47.27773" lon="-2.1651">
        <ele>25.8</ele>
        <time>2020-06-05T13:55:37Z</time>
      </trkpt>
      <trkpt lat="47.27775" lon="-2.16512">
        <ele>26</ele>
        <time>2020-06-05T13:55:38Z</time>
      </trkpt>
      <trkpt lat="47.27778" lon="-2.16514">
        <ele>26.1</ele>
        <time>2020-06-05T13:55:39Z</time>
      </trkpt>
      <trkpt lat="47.27779" lon="-2.16514">
        <ele>26.2</ele>
        <time>2020-06-05T13:55:40Z</time>
      </trkpt>
      <trkpt lat="47.27782" lon="-2.16514">
        <ele>26.3</ele>
        <time>2020-06-05T13:55:41Z</time>
      </trkpt>
      <trkpt lat="47.27784" lon="-2.16515">
        <ele>26.5</ele>
        <time>2020-06-05T13:55:42Z</time>
      </trkpt>
      <trkpt lat="47.27787" lon="-2.16517">
        <ele>26.6</ele>
        <time>2020-06-05T13:55:43Z</time>
      </trkpt>
      <trkpt lat="47.27791" lon="-2.16518">
        <ele>26.8</ele>
        <time>2020-06-05T13:55:44Z</time>
      </trkpt>
      <trkpt lat="47.27794" lon="-2.16521">
        <ele>27</ele>
        <time>2020-06-05T13:55:45Z</time>
      </trkpt>
      <trkpt lat="47.27798" lon="-2.16523">
        <ele>27.2</ele>
        <time>2020-06-05T13:55:46Z</time>
      </trkpt>
      <trkpt lat="47.27803" lon="-2.16525">
        <ele>27.5</ele>
        <time>2020-06-05T13:55:47Z</time>
      </trkpt>
      <trkpt lat="47.27806" lon="-2.16527">
        <ele>27.7</ele>
        <time>2020-06-05T13:55:48Z</time>
      </trkpt>
      <trkpt lat="47.2781" lon="-2.16528">
        <ele>27.8</ele>
        <time>2020-06-05T13:55:49Z</time>
      </trkpt>
      <trkpt lat="47.27812" lon="-2.16529">
        <ele>28</ele>
        <time>2020-06-05T13:55:50Z</time>
      </trkpt>
      <trkpt lat="47.27815" lon="-2.1653">
        <ele>28.2</ele>
        <time>2020-06-05T13:55:51Z</time>
      </trkpt>
      <trkpt lat="47.27818" lon="-2.16531">
        <ele>28.4</ele>
        <time>2020-06-05T13:55:52Z</time>
      </trkpt>
      <trkpt lat="47.27821" lon="-2.16533">
        <ele>28.6</ele>
        <time>2020-06-05T13:55:53Z</time>
      </trkpt>
      <trkpt lat="47.27824" lon="-2.16535">
        <ele>28.8</ele>
        <time>2020-06-05T13:55:54Z</time>
      </trkpt>
      <trkpt lat="47.27825" lon="-2.16536">
        <ele>28.8</ele>
        <time>2020-06-05T13:55:55Z</time>
      </trkpt>
      <trkpt lat="47.27829" lon="-2.16538">
        <ele>29</ele>
        <time>2020-06-05T13:55:56Z</time>
      </trkpt>
      <trkpt lat="47.2783" lon="-2.16539">
        <ele>29.1</ele>
        <time>2020-06-05T13:55:57Z</time>
      </trkpt>
      <trkpt lat="47.27833" lon="-2.16542">
        <ele>29.2</ele>
        <time>2020-06-05T13:55:58Z</time>
      </trkpt>
      <trkpt lat="47.27836" lon="-2.16544">
        <ele>29.4</ele>
        <time>2020-06-05T13:55:59Z</time>
      </trkpt>
      <trkpt lat="47.27838" lon="-2.16546">
        <ele>29.5</ele>
        <time>2020-06-05T13:56:00Z</time>
      </trkpt>
      <trkpt lat="47.27841" lon="-2.16549">
        <ele>29.7</ele>
        <time>2020-06-05T13:56:01Z</time>
      </trkpt>
      <trkpt lat="47.27842" lon="-2.16549">
        <ele>29.7</ele>
        <time>2020-06-05T13:56:02Z</time>
      </trkpt>
      <trkpt lat="47.27845" lon="-2.16551">
        <ele>29.9</ele>
        <time>2020-06-05T13:56:03Z</time>
      </trkpt>
      <trkpt lat="47.27848" lon="-2.16552">
        <ele>30.1</ele>
        <time>2020-06-05T13:56:04Z</time>
      </trkpt>
      <trkpt lat="47.2785" lon="-2.16554">
        <ele>30.2</ele>
        <time>2020-06-05T13:56:05Z</time>
      </trkpt>
      <trkpt lat="47.27853" lon="-2.16556">
        <ele>30.4</ele>
        <time>2020-06-05T13:56:06Z</time>
      </trkpt>
      <trkpt lat="47.27856" lon="-2.16558">
        <ele>30.6</ele>
        <time>2020-06-05T13:56:07Z</time>
      </trkpt>
      <trkpt lat="47.2786" lon="-2.16559">
        <ele>30.8</ele>
        <time>2020-06-05T13:56:08Z</time>
      </trkpt>
      <trkpt lat="47.27864" lon="-2.16561">
        <ele>31</ele>
        <time>2020-06-05T13:56:09Z</time>
      </trkpt>
      <trkpt lat="47.27867" lon="-2.16562">
        <ele>31.2</ele>
        <time>2020-06-05T13:56:10Z</time>
      </trkpt>
      <trkpt lat="47.27868" lon="-2.16563">
        <ele>31.3</ele>
        <time>2020-06-05T13:56:11Z</time>
      </trkpt>
      <trkpt lat="47.27871" lon="-2.16565">
        <ele>31.5</ele>
        <time>2020-06-05T13:56:12Z</time>
      </trkpt>
      <trkpt lat="47.27874" lon="-2.16568">
        <ele>31.7</ele>
        <time>2020-06-05T13:56:13Z</time>
      </trkpt>
      <trkpt lat="47.27875" lon="-2.16568">
        <ele>31.8</ele>
        <time>2020-06-05T13:56:14Z</time>
      </trkpt>
      <trkpt lat="47.27878" lon="-2.16571">
        <ele>32</ele>
        <time>2020-06-05T13:56:15Z</time>
      </trkpt>
      <trkpt lat="47.2788" lon="-2.16572">
        <ele>32.1</ele>
        <time>2020-06-05T13:56:16Z</time>
      </trkpt>
      <trkpt lat="47.27883" lon="-2.16573">
        <ele>32.3</ele>
        <time>2020-06-05T13:56:17Z</time>
      </trkpt>
      <trkpt lat="47.27887" lon="-2.16575">
        <ele>32.5</ele>
        <time>2020-06-05T13:56:18Z</time>
      </trkpt>
      <trkpt lat="47.27889" lon="-2.16576">
        <ele>32.7</ele>
        <time>2020-06-05T13:56:19Z</time>
      </trkpt>
      <trkpt lat="47.27892" lon="-2.16578">
        <ele>32.9</ele>
        <time>2020-06-05T13:56:20Z</time>
      </trkpt>
      <trkpt lat="47.27895" lon="-2.16579">
        <ele>33.1</ele>
        <time>2020-06-05T13:56:21Z</time>
      </trkpt>
      <trkpt lat="47.27898" lon="-2.1658">
        <ele>33.2</ele>
        <time>2020-06-05T13:56:22Z</time>
      </trkpt>
      <trkpt lat="47.27901" lon="-2.16581">
        <ele>33.4</ele>
        <time>2020-06-05T13:56:23Z</time>
      </trkpt>
      <trkpt lat="47.27904" lon="-2.16583">
        <ele>33.6</ele>
        <time>2020-06-05T13:56:24Z</time>
      </trkpt>
      <trkpt lat="47.27908" lon="-2.16585">
        <ele>33.8</ele>
        <time>2020-06-05T13:56:25Z</time>
      </trkpt>
      <trkpt lat="47.2791" lon="-2.16588">
        <ele>34</ele>
        <time>2020-06-05T13:56:26Z</time>
      </trkpt>
      <trkpt lat="47.27914" lon="-2.1659">
        <ele>34.2</ele>
        <time>2020-06-05T13:56:27Z</time>
      </trkpt>
      <trkpt lat="47.27916" lon="-2.16591">
        <ele>34.3</ele>
        <time>2020-06-05T13:56:28Z</time>
      </trkpt>
      <trkpt lat="47.27919" lon="-2.16592">
        <ele>34.5</ele>
        <time>2020-06-05T13:56:29Z</time>
      </trkpt>
      <trkpt lat="47.27921" lon="-2.16594">
        <ele>34.6</ele>
        <time>2020-06-05T13:56:30Z</time>
      </trkpt>
      <trkpt lat="47.27924" lon="-2.16596">
        <ele>34.8</ele>
        <time>2020-06-05T13:56:31Z</time>
      </trkpt>
      <trkpt lat="47.27927" lon="-2.16597">
        <ele>35</ele>
        <time>2020-06-05T13:56:32Z</time>
      </trkpt>
      <trkpt lat="47.2793" lon="-2.16599">
        <ele>35.1</ele>
        <time>2020-06-05T13:56:33Z</time>
      </trkpt>
      <trkpt lat="47.27933" lon="-2.16602">
        <ele>35.3</ele>
        <time>2020-06-05T13:56:34Z</time>
      </trkpt>
      <trkpt lat="47.27936" lon="-2.16604">
        <ele>35.5</ele>
        <time>2020-06-05T13:56:35Z</time>
      </trkpt>
      <trkpt lat="47.27939" lon="-2.16607">
        <ele>35.7</ele>
        <time>2020-06-05T13:56:36Z</time>
      </trkpt>
      <trkpt lat="47.2794" lon="-2.16608">
        <ele>35.8</ele>
        <time>2020-06-05T13:56:37Z</time>
      </trkpt>
      <trkpt lat="47.27944" lon="-2.1661">
        <ele>36.1</ele>
        <time>2020-06-05T13:56:38Z</time>
      </trkpt>
      <trkpt lat="47.27946" lon="-2.16611">
        <ele>36.2</ele>
        <time>2020-06-05T13:56:39Z</time>
      </trkpt>
      <trkpt lat="47.27948" lon="-2.16614">
        <ele>36.3</ele>
        <time>2020-06-05T13:56:40Z</time>
      </trkpt>
      <trkpt lat="47.27952" lon="-2.16615">
        <ele>36.5</ele>
        <time>2020-06-05T13:56:41Z</time>
      </trkpt>
      <trkpt lat="47.27955" lon="-2.16616">
        <ele>36.7</ele>
        <time>2020-06-05T13:56:42Z</time>
      </trkpt>
      <trkpt lat="47.27958" lon="-2.16618">
        <ele>36.9</ele>
        <time>2020-06-05T13:56:43Z</time>
      </trkpt>
      <trkpt lat="47.27961" lon="-2.16621">
        <ele>37.1</ele>
        <time>2020-06-05T13:56:44Z</time>
      </trkpt>
      <trkpt lat="47.27962" lon="-2.16621">
        <ele>37.2</ele>
        <time>2020-06-05T13:56:45Z</time>
      </trkpt>
      <trkpt lat="47.27965" lon="-2.16624">
        <ele>37.4</ele>
        <time>2020-06-05T13:56:46Z</time>
      </trkpt>
      <trkpt lat="47.27966" lon="-2.16625">
        <ele>37.5</ele>
        <time>2020-06-05T13:56:47Z</time>
      </trkpt>
      <trkpt lat="47.2797" lon="-2.16627">
        <ele>37.8</ele>
        <time>2020-06-05T13:56:48Z</time>
      </trkpt>
      <trkpt lat="47.27971" lon="-2.16628">
        <ele>37.8</ele>
        <time>2020-06-05T13:56:49Z</time>
      </trkpt>
      <trkpt lat="47.27975" lon="-2.16628">
        <ele>38.1</ele>
        <time>2020-06-05T13:56:50Z</time>
      </trkpt>
      <trkpt lat="47.27978" lon="-2.1663">
        <ele>38.2</ele>
        <time>2020-06-05T13:56:51Z</time>
      </trkpt>
      <trkpt lat="47.27981" lon="-2.16632">
        <ele>38.4</ele>
        <time>2020-06-05T13:56:52Z</time>
      </trkpt>
      <trkpt lat="47.27984" lon="-2.16634">
        <ele>38.5</ele>
        <time>2020-06-05T13:56:53Z</time>
      </trkpt>
      <trkpt lat="47.27986" lon="-2.16637">
        <ele>38.7</ele>
        <time>2020-06-05T13:56:54Z</time>
      </trkpt>
      <trkpt lat="47.2799" lon="-2.16639">
        <ele>38.9</ele>
        <time>2020-06-05T13:56:55Z</time>
      </trkpt>
      <trkpt lat="47.27993" lon="-2.16641">
        <ele>39.1</ele>
        <time>2020-06-05T13:56:56Z</time>
      </trkpt>
      <trkpt lat="47.27996" lon="-2.16643">
        <ele>39.2</ele>
        <time>2020-06-05T13:56:57Z</time>
      </trkpt>
      <trkpt lat="47.27999" lon="-2.16646">
        <ele>39.4</ele>
        <time>2020-06-05T13:56:58Z</time>
      </trkpt>
      <trkpt lat="47.28002" lon="-2.16647">
        <ele>39.6</ele>
        <time>2020-06-05T13:56:59Z</time>
      </trkpt>
      <trkpt lat="47.28005" lon="-2.16651">
        <ele>39.8</ele>
        <time>2020-06-05T13:57:00Z</time>
      </trkpt>
      <trkpt lat="47.28008" lon="-2.16653">
        <ele>40</ele>
        <time>2020-06-05T13:57:01Z</time>
      </trkpt>
      <trkpt lat="47.28011" lon="-2.16655">
        <ele>40.2</ele>
        <time>2020-06-05T13:57:02Z</time>
      </trkpt>
      <trkpt lat="47.28014" lon="-2.16657">
        <ele>40.4</ele>
        <time>2020-06-05T13:57:03Z</time>
      </trkpt>
      <trkpt lat="47.28017" lon="-2.1666">
        <ele>40.6</ele>
        <time>2020-06-05T13:57:04Z</time>
      </trkpt>
      <trkpt lat="47.2802" lon="-2.16662">
        <ele>40.7</ele>
        <time>2020-06-05T13:57:05Z</time>
      </trkpt>
      <trkpt lat="47.28023" lon="-2.16664">
        <ele>40.9</ele>
        <time>2020-06-05T13:57:06Z</time>
      </trkpt>
      <trkpt lat="47.28024" lon="-2.16665">
        <ele>40.9</ele>
        <time>2020-06-05T13:57:07Z</time>
      </trkpt>
      <trkpt lat="47.28027" lon="-2.16666">
        <ele>41.1</ele>
        <time>2020-06-05T13:57:08Z</time>
      </trkpt>
      <trkpt lat="47.28031" lon="-2.16668">
        <ele>41.3</ele>
        <time>2020-06-05T13:57:09Z</time>
      </trkpt>
      <trkpt lat="47.28032" lon="-2.16668">
        <ele>41.3</ele>
        <time>2020-06-05T13:57:10Z</time>
      </trkpt>
      <trkpt lat="47.28036" lon="-2.16671">
        <ele>41.5</ele>
        <time>2020-06-05T13:57:11Z</time>
      </trkpt>
      <trkpt lat="47.2804" lon="-2.16672">
        <ele>41.7</ele>
        <time>2020-06-05T13:57:12Z</time>
      </trkpt>
      <trkpt lat="47.28043" lon="-2.16675">
        <ele>41.9</ele>
        <time>2020-06-05T13:57:13Z</time>
      </trkpt>
      <trkpt lat="47.28046" lon="-2.16677">
        <ele>42.1</ele>
        <time>2020-06-05T13:57:14Z</time>
      </trkpt>
      <trkpt lat="47.28049" lon="-2.16678">
        <ele>42.2</ele>
        <time>2020-06-05T13:57:15Z</time>
      </trkpt>
      <trkpt lat="47.28052" lon="-2.16681">
        <ele>42.3</ele>
        <time>2020-06-05T13:57:16Z</time>
      </trkpt>
      <trkpt lat="47.28053" lon="-2.16682">
        <ele>42.4</ele>
        <time>2020-06-05T13:57:17Z</time>
      </trkpt>
      <trkpt lat="47.28056" lon="-2.16684">
        <ele>42.5</ele>
        <time>2020-06-05T13:57:18Z</time>
      </trkpt>
      <trkpt lat="47.2806" lon="-2.16687">
        <ele>42.7</ele>
        <time>2020-06-05T13:57:19Z</time>
      </trkpt>
      <trkpt lat="47.28061" lon="-2.16688">
        <ele>42.8</ele>
        <time>2020-06-05T13:57:20Z</time>
      </trkpt>
      <trkpt lat="47.28065" lon="-2.1669">
        <ele>43</ele>
        <time>2020-06-05T13:57:21Z</time>
      </trkpt>
      <trkpt lat="47.28067" lon="-2.16692">
        <ele>43.2</ele>
        <time>2020-06-05T13:57:22Z</time>
      </trkpt>
      <trkpt lat="47.2807" lon="-2.16694">
        <ele>43.4</ele>
        <time>2020-06-05T13:57:23Z</time>
      </trkpt>
      <trkpt lat="47.28073" lon="-2.16696">
        <ele>43.5</ele>
        <time>2020-06-05T13:57:24Z</time>
      </trkpt>
      <trkpt lat="47.28075" lon="-2.167">
        <ele>43.7</ele>
        <time>2020-06-05T13:57:25Z</time>
      </trkpt>
      <trkpt lat="47.28076" lon="-2.16701">
        <ele>43.8</ele>
        <time>2020-06-05T13:57:26Z</time>
      </trkpt>
      <trkpt lat="47.28079" lon="-2.16703">
        <ele>44</ele>
        <time>2020-06-05T13:57:27Z</time>
      </trkpt>
      <trkpt lat="47.28081" lon="-2.16704">
        <ele>44.1</ele>
        <time>2020-06-05T13:57:28Z</time>
      </trkpt>
      <trkpt lat="47.28085" lon="-2.16706">
        <ele>44.3</ele>
        <time>2020-06-05T13:57:29Z</time>
      </trkpt>
      <trkpt lat="47.28086" lon="-2.16707">
        <ele>44.4</ele>
        <time>2020-06-05T13:57:30Z</time>
      </trkpt>
      <trkpt lat="47.2809" lon="-2.1671">
        <ele>44.6</ele>
        <time>2020-06-05T13:57:31Z</time>
      </trkpt>
      <trkpt lat="47.28091" lon="-2.16711">
        <ele>44.7</ele>
        <time>2020-06-05T13:57:32Z</time>
      </trkpt>
      <trkpt lat="47.28094" lon="-2.16711">
        <ele>44.9</ele>
        <time>2020-06-05T13:57:33Z</time>
      </trkpt>
      <trkpt lat="47.28097" lon="-2.16712">
        <ele>45.1</ele>
        <time>2020-06-05T13:57:34Z</time>
      </trkpt>
      <trkpt lat="47.28101" lon="-2.16715">
        <ele>45.3</ele>
        <time>2020-06-05T13:57:35Z</time>
      </trkpt>
      <trkpt lat="47.28103" lon="-2.16717">
        <ele>45.4</ele>
        <time>2020-06-05T13:57:36Z</time>
      </trkpt>
      <trkpt lat="47.28105" lon="-2.16719">
        <ele>45.6</ele>
        <time>2020-06-05T13:57:37Z</time>
      </trkpt>
      <trkpt lat="47.28108" lon="-2.16722">
        <ele>45.8</ele>
        <time>2020-06-05T13:57:38Z</time>
      </trkpt>
      <trkpt lat="47.28111" lon="-2.16724">
        <ele>45.9</ele>
        <time>2020-06-05T13:57:39Z</time>
      </trkpt>
      <trkpt lat="47.28114" lon="-2.16726">
        <ele>46.1</ele>
        <time>2020-06-05T13:57:40Z</time>
      </trkpt>
      <trkpt lat="47.28117" lon="-2.16728">
        <ele>46.2</ele>
        <time>2020-06-05T13:57:41Z</time>
      </trkpt>
      <trkpt lat="47.2812" lon="-2.1673">
        <ele>46.4</ele>
        <time>2020-06-05T13:57:42Z</time>
      </trkpt>
      <trkpt lat="47.28123" lon="-2.16732">
        <ele>46.5</ele>
        <time>2020-06-05T13:57:43Z</time>
      </trkpt>
      <trkpt lat="47.28126" lon="-2.16735">
        <ele>46.7</ele>
        <time>2020-06-05T13:57:44Z</time>
      </trkpt>
      <trkpt lat="47.28129" lon="-2.16737">
        <ele>46.9</ele>
        <time>2020-06-05T13:57:45Z</time>
      </trkpt>
      <trkpt lat="47.28131" lon="-2.16739">
        <ele>47</ele>
        <time>2020-06-05T13:57:46Z</time>
      </trkpt>
      <trkpt lat="47.28135" lon="-2.16741">
        <ele>47.2</ele>
        <time>2020-06-05T13:57:47Z</time>
      </trkpt>
      <trkpt lat="47.28136" lon="-2.16742">
        <ele>47.3</ele>
        <time>2020-06-05T13:57:48Z</time>
      </trkpt>
      <trkpt lat="47.28139" lon="-2.16744">
        <ele>47.5</ele>
        <time>2020-06-05T13:57:49Z</time>
      </trkpt>
      <trkpt lat="47.28141" lon="-2.16747">
        <ele>47.7</ele>
        <time>2020-06-05T13:57:50Z</time>
      </trkpt>
      <trkpt lat="47.28144" lon="-2.16749">
        <ele>47.9</ele>
        <time>2020-06-05T13:57:51Z</time>
      </trkpt>
      <trkpt lat="47.28147" lon="-2.16752">
        <ele>48</ele>
        <time>2020-06-05T13:57:52Z</time>
      </trkpt>
      <trkpt lat="47.28149" lon="-2.16754">
        <ele>48.2</ele>
        <time>2020-06-05T13:57:53Z</time>
      </trkpt>
      <trkpt lat="47.28152" lon="-2.16757">
        <ele>48.4</ele>
        <time>2020-06-05T13:57:54Z</time>
      </trkpt>
      <trkpt lat="47.28153" lon="-2.16759">
        <ele>48.4</ele>
        <time>2020-06-05T13:57:55Z</time>
      </trkpt>
      <trkpt lat="47.28156" lon="-2.16761">
        <ele>48.6</ele>
        <time>2020-06-05T13:57:56Z</time>
      </trkpt>
      <trkpt lat="47.28158" lon="-2.16764">
        <ele>48.8</ele>
        <time>2020-06-05T13:57:57Z</time>
      </trkpt>
      <trkpt lat="47.28163" lon="-2.16767">
        <ele>49</ele>
        <time>2020-06-05T13:57:58Z</time>
      </trkpt>
      <trkpt lat="47.28164" lon="-2.16768">
        <ele>49.1</ele>
        <time>2020-06-05T13:57:59Z</time>
      </trkpt>
      <trkpt lat="47.28168" lon="-2.16771">
        <ele>49.3</ele>
        <time>2020-06-05T13:58:00Z</time>
      </trkpt>
      <trkpt lat="47.28169" lon="-2.16771">
        <ele>49.4</ele>
        <time>2020-06-05T13:58:01Z</time>
      </trkpt>
      <trkpt lat="47.28171" lon="-2.16774">
        <ele>49.5</ele>
        <time>2020-06-05T13:58:02Z</time>
      </trkpt>
      <trkpt lat="47.28173" lon="-2.16777">
        <ele>49.7</ele>
        <time>2020-06-05T13:58:03Z</time>
      </trkpt>
      <trkpt lat="47.28174" lon="-2.16777">
        <ele>49.7</ele>
        <time>2020-06-05T13:58:04Z</time>
      </trkpt>
      <trkpt lat="47.28177" lon="-2.16779">
        <ele>49.9</ele>
        <time>2020-06-05T13:58:05Z</time>
      </trkpt>
      <trkpt lat="47.28178" lon="-2.1678">
        <ele>50</ele>
        <time>2020-06-05T13:58:06Z</time>
      </trkpt>
      <trkpt lat="47.28182" lon="-2.16781">
        <ele>50.2</ele>
        <time>2020-06-05T13:58:07Z</time>
      </trkpt>
      <trkpt lat="47.28184" lon="-2.16783">
        <ele>50.3</ele>
        <time>2020-06-05T13:58:08Z</time>
      </trkpt>
      <trkpt lat="47.28187" lon="-2.16785">
        <ele>50.5</ele>
        <time>2020-06-05T13:58:09Z</time>
      </trkpt>
      <trkpt lat="47.28191" lon="-2.16787">
        <ele>50.7</ele>
        <time>2020-06-05T13:58:10Z</time>
      </trkpt>
      <trkpt lat="47.28194" lon="-2.1679">
        <ele>50.9</ele>
        <time>2020-06-05T13:58:11Z</time>
      </trkpt>
      <trkpt lat="47.28197" lon="-2.16792">
        <ele>51.1</ele>
        <time>2020-06-05T13:58:12Z</time>
      </trkpt>
      <trkpt lat="47.28199" lon="-2.16794">
        <ele>51.2</ele>
        <time>2020-06-05T13:58:13Z</time>
      </trkpt>
      <trkpt lat="47.28202" lon="-2.16795">
        <ele>51.4</ele>
        <time>2020-06-05T13:58:14Z</time>
      </trkpt>
      <trkpt lat="47.28205" lon="-2.16799">
        <ele>51.6</ele>
        <time>2020-06-05T13:58:15Z</time>
      </trkpt>
      <trkpt lat="47.28209" lon="-2.16802">
        <ele>51.8</ele>
        <time>2020-06-05T13:58:16Z</time>
      </trkpt>
      <trkpt lat="47.28212" lon="-2.16804">
        <ele>52.1</ele>
        <time>2020-06-05T13:58:17Z</time>
      </trkpt>
      <trkpt lat="47.28216" lon="-2.16807">
        <ele>52.3</ele>
        <time>2020-06-05T13:58:18Z</time>
      </trkpt>
      <trkpt lat="47.28219" lon="-2.1681">
        <ele>52.6</ele>
        <time>2020-06-05T13:58:19Z</time>
      </trkpt>
      <trkpt lat="47.28223" lon="-2.16812">
        <ele>52.8</ele>
        <time>2020-06-05T13:58:20Z</time>
      </trkpt>
      <trkpt lat="47.28227" lon="-2.16815">
        <ele>53.1</ele>
        <time>2020-06-05T13:58:21Z</time>
      </trkpt>
      <trkpt lat="47.2823" lon="-2.16817">
        <ele>53.2</ele>
        <time>2020-06-05T13:58:22Z</time>
      </trkpt>
      <trkpt lat="47.28234" lon="-2.16822">
        <ele>53.5</ele>
        <time>2020-06-05T13:58:23Z</time>
      </trkpt>
      <trkpt lat="47.28236" lon="-2.16824">
        <ele>53.6</ele>
        <time>2020-06-05T13:58:24Z</time>
      </trkpt>
      <trkpt lat="47.28238" lon="-2.16827">
        <ele>53.7</ele>
        <time>2020-06-05T13:58:25Z</time>
      </trkpt>
      <trkpt lat="47.28241" lon="-2.16829">
        <ele>53.9</ele>
        <time>2020-06-05T13:58:26Z</time>
      </trkpt>
      <trkpt lat="47.28243" lon="-2.1683">
        <ele>53.9</ele>
        <time>2020-06-05T13:58:27Z</time>
      </trkpt>
      <trkpt lat="47.28247" lon="-2.16834">
        <ele>54.1</ele>
        <time>2020-06-05T13:58:28Z</time>
      </trkpt>
      <trkpt lat="47.2825" lon="-2.16836">
        <ele>54.3</ele>
        <time>2020-06-05T13:58:29Z</time>
      </trkpt>
      <trkpt lat="47.28253" lon="-2.1684">
        <ele>54.4</ele>
        <time>2020-06-05T13:58:30Z</time>
      </trkpt>
      <trkpt lat="47.28255" lon="-2.16842">
        <ele>54.6</ele>
        <time>2020-06-05T13:58:31Z</time>
      </trkpt>
      <trkpt lat="47.28258" lon="-2.16843">
        <ele>54.7</ele>
        <time>2020-06-05T13:58:32Z</time>
      </trkpt>
      <trkpt lat="47.28262" lon="-2.16845">
        <ele>54.9</ele>
        <time>2020-06-05T13:58:33Z</time>
      </trkpt>
      <trkpt lat="47.28265" lon="-2.16848">
        <ele>55.1</ele>
        <time>2020-06-05T13:58:34Z</time>
      </trkpt>
      <trkpt lat="47.28268" lon="-2.16851">
        <ele>55.3</ele>
        <time>2020-06-05T13:58:35Z</time>
      </trkpt>
      <trkpt lat="47.2827" lon="-2.16851">
        <ele>55.4</ele>
        <time>2020-06-05T13:58:36Z</time>
      </trkpt>
      <trkpt lat="47.28272" lon="-2.16854">
        <ele>55.5</ele>
        <time>2020-06-05T13:58:37Z</time>
      </trkpt>
      <trkpt lat="47.28275" lon="-2.16856">
        <ele>55.7</ele>
        <time>2020-06-05T13:58:38Z</time>
      </trkpt>
      <trkpt lat="47.28278" lon="-2.16861">
        <ele>55.9</ele>
        <time>2020-06-05T13:58:39Z</time>
      </trkpt>
      <trkpt lat="47.28281" lon="-2.16864">
        <ele>56.1</ele>
        <time>2020-06-05T13:58:40Z</time>
      </trkpt>
      <trkpt lat="47.28284" lon="-2.16867">
        <ele>56.3</ele>
        <time>2020-06-05T13:58:41Z</time>
      </trkpt>
      <trkpt lat="47.28287" lon="-2.1687">
        <ele>56.5</ele>
        <time>2020-06-05T13:58:42Z</time>
      </trkpt>
      <trkpt lat="47.28288" lon="-2.16871">
        <ele>56.6</ele>
        <time>2020-06-05T13:58:43Z</time>
      </trkpt>
      <trkpt lat="47.28293" lon="-2.16873">
        <ele>56.8</ele>
        <time>2020-06-05T13:58:44Z</time>
      </trkpt>
      <trkpt lat="47.28295" lon="-2.16874">
        <ele>57</ele>
        <time>2020-06-05T13:58:45Z</time>
      </trkpt>
      <trkpt lat="47.28298" lon="-2.16877">
        <ele>57.2</ele>
        <time>2020-06-05T13:58:46Z</time>
      </trkpt>
      <trkpt lat="47.28301" lon="-2.16881">
        <ele>57.4</ele>
        <time>2020-06-05T13:58:47Z</time>
      </trkpt>
      <trkpt lat="47.28304" lon="-2.16884">
        <ele>57.6</ele>
        <time>2020-06-05T13:58:48Z</time>
      </trkpt>
      <trkpt lat="47.28308" lon="-2.16887">
        <ele>57.8</ele>
        <time>2020-06-05T13:58:49Z</time>
      </trkpt>
      <trkpt lat="47.28311" lon="-2.1689">
        <ele>57.9</ele>
        <time>2020-06-05T13:58:50Z</time>
      </trkpt>
      <trkpt lat="47.28313" lon="-2.16892">
        <ele>58</ele>
        <time>2020-06-05T13:58:51Z</time>
      </trkpt>
      <trkpt lat="47.28316" lon="-2.16894">
        <ele>58.1</ele>
        <time>2020-06-05T13:58:52Z</time>
      </trkpt>
      <trkpt lat="47.28321" lon="-2.16899">
        <ele>58.4</ele>
        <time>2020-06-05T13:58:53Z</time>
      </trkpt>
      <trkpt lat="47.28325" lon="-2.169">
        <ele>58.6</ele>
        <time>2020-06-05T13:58:54Z</time>
      </trkpt>
      <trkpt lat="47.28328" lon="-2.16903">
        <ele>58.8</ele>
        <time>2020-06-05T13:58:55Z</time>
      </trkpt>
      <trkpt lat="47.28331" lon="-2.16906">
        <ele>59</ele>
        <time>2020-06-05T13:58:56Z</time>
      </trkpt>
      <trkpt lat="47.28334" lon="-2.16908">
        <ele>59.2</ele>
        <time>2020-06-05T13:58:57Z</time>
      </trkpt>
      <trkpt lat="47.28338" lon="-2.16911">
        <ele>59.5</ele>
        <time>2020-06-05T13:58:58Z</time>
      </trkpt>
      <trkpt lat="47.28342" lon="-2.16913">
        <ele>59.7</ele>
        <time>2020-06-05T13:58:59Z</time>
      </trkpt>
      <trkpt lat="47.28344" lon="-2.16914">
        <ele>59.7</ele>
        <time>2020-06-05T13:59:00Z</time>
      </trkpt>
      <trkpt lat="47.28347" lon="-2.16917">
        <ele>59.9</ele>
        <time>2020-06-05T13:59:01Z</time>
      </trkpt>
      <trkpt lat="47.28349" lon="-2.16918">
        <ele>59.9</ele>
        <time>2020-06-05T13:59:02Z</time>
      </trkpt>
      <trkpt lat="47.28351" lon="-2.16921">
        <ele>60.1</ele>
        <time>2020-06-05T13:59:03Z</time>
      </trkpt>
      <trkpt lat="47.28352" lon="-2.16924">
        <ele>60.1</ele>
        <time>2020-06-05T13:59:04Z</time>
      </trkpt>
      <trkpt lat="47.28355" lon="-2.16925">
        <ele>60.2</ele>
        <time>2020-06-05T13:59:05Z</time>
      </trkpt>
      <trkpt lat="47.2836" lon="-2.16928">
        <ele>60.4</ele>
        <time>2020-06-05T13:59:06Z</time>
      </trkpt>
      <trkpt lat="47.28363" lon="-2.16932">
        <ele>60.5</ele>
        <time>2020-06-05T13:59:07Z</time>
      </trkpt>
      <trkpt lat="47.28364" lon="-2.16933">
        <ele>60.6</ele>
        <time>2020-06-05T13:59:08Z</time>
      </trkpt>
      <trkpt lat="47.28368" lon="-2.16936">
        <ele>60.7</ele>
        <time>2020-06-05T13:59:09Z</time>
      </trkpt>
      <trkpt lat="47.28371" lon="-2.1694">
        <ele>60.8</ele>
        <time>2020-06-05T13:59:10Z</time>
      </trkpt>
      <trkpt lat="47.28375" lon="-2.16942">
        <ele>60.9</ele>
        <time>2020-06-05T13:59:11Z</time>
      </trkpt>
      <trkpt lat="47.28379" lon="-2.16945">
        <ele>61</ele>
        <time>2020-06-05T13:59:12Z</time>
      </trkpt>
      <trkpt lat="47.28381" lon="-2.16947">
        <ele>61</ele>
        <time>2020-06-05T13:59:13Z</time>
      </trkpt>
      <trkpt lat="47.28384" lon="-2.16949">
        <ele>61.1</ele>
        <time>2020-06-05T13:59:14Z</time>
      </trkpt>
      <trkpt lat="47.28387" lon="-2.16952">
        <ele>61.2</ele>
        <time>2020-06-05T13:59:15Z</time>
      </trkpt>
      <trkpt lat="47.28391" lon="-2.16953">
        <ele>61.4</ele>
        <time>2020-06-05T13:59:16Z</time>
      </trkpt>
      <trkpt lat="47.28394" lon="-2.16956">
        <ele>61.4</ele>
        <time>2020-06-05T13:59:17Z</time>
      </trkpt>
      <trkpt lat="47.28398" lon="-2.16958">
        <ele>61.5</ele>
        <time>2020-06-05T13:59:18Z</time>
      </trkpt>
      <trkpt lat="47.28401" lon="-2.16961">
        <ele>61.6</ele>
        <time>2020-06-05T13:59:19Z</time>
      </trkpt>
      <trkpt lat="47.28404" lon="-2.16964">
        <ele>61.6</ele>
        <time>2020-06-05T13:59:20Z</time>
      </trkpt>
      <trkpt lat="47.28407" lon="-2.16966">
        <ele>61.6</ele>
        <time>2020-06-05T13:59:21Z</time>
      </trkpt>
      <trkpt lat="47.28409" lon="-2.16969">
        <ele>61.6</ele>
        <time>2020-06-05T13:59:22Z</time>
      </trkpt>
      <trkpt lat="47.28412" lon="-2.16972">
        <ele>61.7</ele>
        <time>2020-06-05T13:59:23Z</time>
      </trkpt>
      <trkpt lat="47.28416" lon="-2.16975">
        <ele>61.7</ele>
        <time>2020-06-05T13:59:24Z</time>
      </trkpt>
      <trkpt lat="47.28419" lon="-2.16978">
        <ele>61.7</ele>
        <time>2020-06-05T13:59:25Z</time>
      </trkpt>
      <trkpt lat="47.28423" lon="-2.16982">
        <ele>61.8</ele>
        <time>2020-06-05T13:59:26Z</time>
      </trkpt>
      <trkpt lat="47.28425" lon="-2.16985">
        <ele>61.9</ele>
        <time>2020-06-05T13:59:27Z</time>
      </trkpt>
      <trkpt lat="47.28429" lon="-2.16989">
        <ele>62</ele>
        <time>2020-06-05T13:59:28Z</time>
      </trkpt>
      <trkpt lat="47.28432" lon="-2.16991">
        <ele>62</ele>
        <time>2020-06-05T13:59:29Z</time>
      </trkpt>
      <trkpt lat="47.28436" lon="-2.16994">
        <ele>62.1</ele>
        <time>2020-06-05T13:59:30Z</time>
      </trkpt>
      <trkpt lat="47.2844" lon="-2.16997">
        <ele>62.2</ele>
        <time>2020-06-05T13:59:31Z</time>
      </trkpt>
      <trkpt lat="47.28442" lon="-2.17002">
        <ele>62.2</ele>
        <time>2020-06-05T13:59:32Z</time>
      </trkpt>
      <trkpt lat="47.28446" lon="-2.17005">
        <ele>62.2</ele>
        <time>2020-06-05T13:59:33Z</time>
      </trkpt>
      <trkpt lat="47.28449" lon="-2.17007">
        <ele>62.2</ele>
        <time>2020-06-05T13:59:34Z</time>
      </trkpt>
      <trkpt lat="47.28454" lon="-2.17012">
        <ele>62.2</ele>
        <time>2020-06-05T13:59:35Z</time>
      </trkpt>
      <trkpt lat="47.28458" lon="-2.17015">
        <ele>62.2</ele>
        <time>2020-06-05T13:59:36Z</time>
      </trkpt>
      <trkpt lat="47.28462" lon="-2.17019">
        <ele>62.2</ele>
        <time>2020-06-05T13:59:37Z</time>
      </trkpt>
      <trkpt lat="47.28465" lon="-2.17022">
        <ele>62.3</ele>
        <time>2020-06-05T13:59:38Z</time>
      </trkpt>
      <trkpt lat="47.28469" lon="-2.17024">
        <ele>62.3</ele>
        <time>2020-06-05T13:59:39Z</time>
      </trkpt>
      <trkpt lat="47.28474" lon="-2.17027">
        <ele>62.4</ele>
        <time>2020-06-05T13:59:40Z</time>
      </trkpt>
      <trkpt lat="47.28478" lon="-2.17031">
        <ele>62.4</ele>
        <time>2020-06-05T13:59:41Z</time>
      </trkpt>
      <trkpt lat="47.28483" lon="-2.17034">
        <ele>62.5</ele>
        <time>2020-06-05T13:59:42Z</time>
      </trkpt>
      <trkpt lat="47.28487" lon="-2.17036">
        <ele>62.5</ele>
        <time>2020-06-05T13:59:43Z</time>
      </trkpt>
      <trkpt lat="47.28491" lon="-2.17041">
        <ele>62.6</ele>
        <time>2020-06-05T13:59:44Z</time>
      </trkpt>
      <trkpt lat="47.28496" lon="-2.17047">
        <ele>62.6</ele>
        <time>2020-06-05T13:59:45Z</time>
      </trkpt>
      <trkpt lat="47.285" lon="-2.17051">
        <ele>62.6</ele>
        <time>2020-06-05T13:59:46Z</time>
      </trkpt>
      <trkpt lat="47.28505" lon="-2.17053">
        <ele>62.6</ele>
        <time>2020-06-05T13:59:47Z</time>
      </trkpt>
      <trkpt lat="47.2851" lon="-2.17057">
        <ele>62.6</ele>
        <time>2020-06-05T13:59:48Z</time>
      </trkpt>
      <trkpt lat="47.28515" lon="-2.17061">
        <ele>62.6</ele>
        <time>2020-06-05T13:59:49Z</time>
      </trkpt>
      <trkpt lat="47.2852" lon="-2.17064">
        <ele>62.6</ele>
        <time>2020-06-05T13:59:50Z</time>
      </trkpt>
      <trkpt lat="47.28525" lon="-2.17069">
        <ele>62.6</ele>
        <time>2020-06-05T13:59:51Z</time>
      </trkpt>
      <trkpt lat="47.2853" lon="-2.17074">
        <ele>62.6</ele>
        <time>2020-06-05T13:59:52Z</time>
      </trkpt>
      <trkpt lat="47.28534" lon="-2.17079">
        <ele>62.6</ele>
        <time>2020-06-05T13:59:53Z</time>
      </trkpt>
      <trkpt lat="47.28539" lon="-2.17082">
        <ele>62.5</ele>
        <time>2020-06-05T13:59:54Z</time>
      </trkpt>
      <trkpt lat="47.28544" lon="-2.17086">
        <ele>62.3</ele>
        <time>2020-06-05T13:59:55Z</time>
      </trkpt>
      <trkpt lat="47.28549" lon="-2.1709">
        <ele>62.2</ele>
        <time>2020-06-05T13:59:56Z</time>
      </trkpt>
      <trkpt lat="47.28553" lon="-2.17093">
        <ele>62.2</ele>
        <time>2020-06-05T13:59:57Z</time>
      </trkpt>
      <trkpt lat="47.28558" lon="-2.17097">
        <ele>62.1</ele>
        <time>2020-06-05T13:59:58Z</time>
      </trkpt>
      <trkpt lat="47.28563" lon="-2.17101">
        <ele>62.1</ele>
        <time>2020-06-05T13:59:59Z</time>
      </trkpt>
      <trkpt lat="47.28569" lon="-2.17106">
        <ele>62.1</ele>
        <time>2020-06-05T14:00:00Z</time>
      </trkpt>
      <trkpt lat="47.28574" lon="-2.17111">
        <ele>62.2</ele>
        <time>2020-06-05T14:00:01Z</time>
      </trkpt>
      <trkpt lat="47.28578" lon="-2.17115">
        <ele>62.1</ele>
        <time>2020-06-05T14:00:02Z</time>
      </trkpt>
      <trkpt lat="47.28583" lon="-2.17119">
        <ele>62.1</ele>
        <time>2020-06-05T14:00:03Z</time>
      </trkpt>
      <trkpt lat="47.28588" lon="-2.17122">
        <ele>62</ele>
        <time>2020-06-05T14:00:04Z</time>
      </trkpt>
      <trkpt lat="47.28593" lon="-2.17127">
        <ele>62</ele>
        <time>2020-06-05T14:00:05Z</time>
      </trkpt>
      <trkpt lat="47.28598" lon="-2.17131">
        <ele>62</ele>
        <time>2020-06-05T14:00:06Z</time>
      </trkpt>
      <trkpt lat="47.28603" lon="-2.17135">
        <ele>62</ele>
        <time>2020-06-05T14:00:07Z</time>
      </trkpt>
      <trkpt lat="47.28609" lon="-2.1714">
        <ele>62</ele>
        <time>2020-06-05T14:00:08Z</time>
      </trkpt>
      <trkpt lat="47.28615" lon="-2.17146">
        <ele>61.9</ele>
        <time>2020-06-05T14:00:09Z</time>
      </trkpt>
      <trkpt lat="47.28621" lon="-2.1715">
        <ele>61.9</ele>
        <time>2020-06-05T14:00:10Z</time>
      </trkpt>
      <trkpt lat="47.28627" lon="-2.17155">
        <ele>61.7</ele>
        <time>2020-06-05T14:00:11Z</time>
      </trkpt>
      <trkpt lat="47.28634" lon="-2.17161">
        <ele>61.5</ele>
        <time>2020-06-05T14:00:12Z</time>
      </trkpt>
      <trkpt lat="47.2864" lon="-2.17165">
        <ele>61.3</ele>
        <time>2020-06-05T14:00:13Z</time>
      </trkpt>
      <trkpt lat="47.28647" lon="-2.17171">
        <ele>61.1</ele>
        <time>2020-06-05T14:00:14Z</time>
      </trkpt>
      <trkpt lat="47.28655" lon="-2.17176">
        <ele>60.8</ele>
        <time>2020-06-05T14:00:15Z</time>
      </trkpt>
      <trkpt lat="47.28661" lon="-2.17182">
        <ele>60.5</ele>
        <time>2020-06-05T14:00:16Z</time>
      </trkpt>
      <trkpt lat="47.28667" lon="-2.17186">
        <ele>60.3</ele>
        <time>2020-06-05T14:00:17Z</time>
      </trkpt>
      <trkpt lat="47.28671" lon="-2.1719">
        <ele>60.1</ele>
        <time>2020-06-05T14:00:18Z</time>
      </trkpt>
      <trkpt lat="47.28677" lon="-2.17195">
        <ele>59.8</ele>
        <time>2020-06-05T14:00:19Z</time>
      </trkpt>
      <trkpt lat="47.28683" lon="-2.172">
        <ele>59.5</ele>
        <time>2020-06-05T14:00:20Z</time>
      </trkpt>
      <trkpt lat="47.2869" lon="-2.17207">
        <ele>59.1</ele>
        <time>2020-06-05T14:00:21Z</time>
      </trkpt>
      <trkpt lat="47.28695" lon="-2.17212">
        <ele>58.7</ele>
        <time>2020-06-05T14:00:22Z</time>
      </trkpt>
      <trkpt lat="47.28701" lon="-2.17216">
        <ele>58.3</ele>
        <time>2020-06-05T14:00:23Z</time>
      </trkpt>
      <trkpt lat="47.28707" lon="-2.17221">
        <ele>57.9</ele>
        <time>2020-06-05T14:00:24Z</time>
      </trkpt>
      <trkpt lat="47.28713" lon="-2.17225">
        <ele>57.6</ele>
        <time>2020-06-05T14:00:25Z</time>
      </trkpt>
      <trkpt lat="47.28719" lon="-2.1723">
        <ele>57.1</ele>
        <time>2020-06-05T14:00:26Z</time>
      </trkpt>
      <trkpt lat="47.28726" lon="-2.17235">
        <ele>56.7</ele>
        <time>2020-06-05T14:00:27Z</time>
      </trkpt>
      <trkpt lat="47.28732" lon="-2.17239">
        <ele>56.4</ele>
        <time>2020-06-05T14:00:28Z</time>
      </trkpt>
      <trkpt lat="47.28737" lon="-2.17244">
        <ele>56</ele>
        <time>2020-06-05T14:00:29Z</time>
      </trkpt>
      <trkpt lat="47.28743" lon="-2.17251">
        <ele>55.7</ele>
        <time>2020-06-05T14:00:30Z</time>
      </trkpt>
      <trkpt lat="47.2875" lon="-2.17257">
        <ele>55.2</ele>
        <time>2020-06-05T14:00:31Z</time>
      </trkpt>
      <trkpt lat="47.28756" lon="-2.17263">
        <ele>54.8</ele>
        <time>2020-06-05T14:00:32Z</time>
      </trkpt>
      <trkpt lat="47.28763" lon="-2.17269">
        <ele>54.5</ele>
        <time>2020-06-05T14:00:33Z</time>
      </trkpt>
      <trkpt lat="47.28769" lon="-2.17274">
        <ele>54.1</ele>
        <time>2020-06-05T14:00:34Z</time>
      </trkpt>
      <trkpt lat="47.28775" lon="-2.1728">
        <ele>53.9</ele>
        <time>2020-06-05T14:00:35Z</time>
      </trkpt>
      <trkpt lat="47.28782" lon="-2.17285">
        <ele>53.6</ele>
        <time>2020-06-05T14:00:36Z</time>
      </trkpt>
      <trkpt lat="47.28789" lon="-2.17291">
        <ele>53.1</ele>
        <time>2020-06-05T14:00:37Z</time>
      </trkpt>
      <trkpt lat="47.28796" lon="-2.17296">
        <ele>52.6</ele>
        <time>2020-06-05T14:00:38Z</time>
      </trkpt>
      <trkpt lat="47.28802" lon="-2.17301">
        <ele>52.2</ele>
        <time>2020-06-05T14:00:39Z</time>
      </trkpt>
      <trkpt lat="47.28809" lon="-2.17306">
        <ele>51.7</ele>
        <time>2020-06-05T14:00:40Z</time>
      </trkpt>
      <trkpt lat="47.28817" lon="-2.1731">
        <ele>51.3</ele>
        <time>2020-06-05T14:00:41Z</time>
      </trkpt>
      <trkpt lat="47.28824" lon="-2.17315">
        <ele>50.9</ele>
        <time>2020-06-05T14:00:42Z</time>
      </trkpt>
      <trkpt lat="47.28831" lon="-2.17321">
        <ele>50.4</ele>
        <time>2020-06-05T14:00:43Z</time>
      </trkpt>
      <trkpt lat="47.28838" lon="-2.17327">
        <ele>50</ele>
        <time>2020-06-05T14:00:44Z</time>
      </trkpt>
      <trkpt lat="47.28845" lon="-2.17334">
        <ele>49.8</ele>
        <time>2020-06-05T14:00:45Z</time>
      </trkpt>
      <trkpt lat="47.28852" lon="-2.17339">
        <ele>49.4</ele>
        <time>2020-06-05T14:00:46Z</time>
      </trkpt>
      <trkpt lat="47.2886" lon="-2.17345">
        <ele>48.8</ele>
        <time>2020-06-05T14:00:47Z</time>
      </trkpt>
      <trkpt lat="47.28867" lon="-2.17352">
        <ele>48.2</ele>
        <time>2020-06-05T14:00:48Z</time>
      </trkpt>
      <trkpt lat="47.28874" lon="-2.17358">
        <ele>47.6</ele>
        <time>2020-06-05T14:00:49Z</time>
      </trkpt>
      <trkpt lat="47.28883" lon="-2.17363">
        <ele>47</ele>
        <time>2020-06-05T14:00:50Z</time>
      </trkpt>
      <trkpt lat="47.2889" lon="-2.17368">
        <ele>46.5</ele>
        <time>2020-06-05T14:00:51Z</time>
      </trkpt>
      <trkpt lat="47.28897" lon="-2.17373">
        <ele>46.1</ele>
        <time>2020-06-05T14:00:52Z</time>
      </trkpt>
      <trkpt lat="47.28904" lon="-2.17379">
        <ele>45.6</ele>
        <time>2020-06-05T14:00:53Z</time>
      </trkpt>
      <trkpt lat="47.28912" lon="-2.17385">
        <ele>45.1</ele>
        <time>2020-06-05T14:00:54Z</time>
      </trkpt>
      <trkpt lat="47.28919" lon="-2.1739">
        <ele>44.5</ele>
        <time>2020-06-05T14:00:55Z</time>
      </trkpt>
      <trkpt lat="47.28926" lon="-2.17396">
        <ele>44</ele>
        <time>2020-06-05T14:00:56Z</time>
      </trkpt>
      <trkpt lat="47.28934" lon="-2.17402">
        <ele>43.4</ele>
        <time>2020-06-05T14:00:57Z</time>
      </trkpt>
      <trkpt lat="47.28941" lon="-2.17407">
        <ele>42.9</ele>
        <time>2020-06-05T14:00:58Z</time>
      </trkpt>
      <trkpt lat="47.28949" lon="-2.17413">
        <ele>42.3</ele>
        <time>2020-06-05T14:00:59Z</time>
      </trkpt>
      <trkpt lat="47.28957" lon="-2.17418">
        <ele>41.7</ele>
        <time>2020-06-05T14:01:00Z</time>
      </trkpt>
      <trkpt lat="47.28964" lon="-2.17423">
        <ele>41.2</ele>
        <time>2020-06-05T14:01:01Z</time>
      </trkpt>
      <trkpt lat="47.28972" lon="-2.17428">
        <ele>40.6</ele>
        <time>2020-06-05T14:01:02Z</time>
      </trkpt>
      <trkpt lat="47.2898" lon="-2.17434">
        <ele>40.1</ele>
        <time>2020-06-05T14:01:03Z</time>
      </trkpt>
      <trkpt lat="47.28988" lon="-2.17439">
        <ele>39.5</ele>
        <time>2020-06-05T14:01:04Z</time>
      </trkpt>
      <trkpt lat="47.28996" lon="-2.17444">
        <ele>39</ele>
        <time>2020-06-05T14:01:05Z</time>
      </trkpt>
      <trkpt lat="47.29004" lon="-2.1745">
        <ele>38.4</ele>
        <time>2020-06-05T14:01:06Z</time>
      </trkpt>
      <trkpt lat="47.29012" lon="-2.17455">
        <ele>37.9</ele>
        <time>2020-06-05T14:01:07Z</time>
      </trkpt>
      <trkpt lat="47.2902" lon="-2.17461">
        <ele>37.4</ele>
        <time>2020-06-05T14:01:08Z</time>
      </trkpt>
      <trkpt lat="47.29028" lon="-2.17467">
        <ele>36.8</ele>
        <time>2020-06-05T14:01:09Z</time>
      </trkpt>
      <trkpt lat="47.29035" lon="-2.17472">
        <ele>36.2</ele>
        <time>2020-06-05T14:01:10Z</time>
      </trkpt>
      <trkpt lat="47.29043" lon="-2.17477">
        <ele>35.7</ele>
        <time>2020-06-05T14:01:11Z</time>
      </trkpt>
      <trkpt lat="47.29051" lon="-2.17482">
        <ele>35.2</ele>
        <time>2020-06-05T14:01:12Z</time>
      </trkpt>
      <trkpt lat="47.29059" lon="-2.17487">
        <ele>34.7</ele>
        <time>2020-06-05T14:01:13Z</time>
      </trkpt>
      <trkpt lat="47.29067" lon="-2.17492">
        <ele>34.1</ele>
        <time>2020-06-05T14:01:14Z</time>
      </trkpt>
      <trkpt lat="47.29074" lon="-2.17497">
        <ele>33.5</ele>
        <time>2020-06-05T14:01:15Z</time>
      </trkpt>
      <trkpt lat="47.29082" lon="-2.17501">
        <ele>32.9</ele>
        <time>2020-06-05T14:01:16Z</time>
      </trkpt>
      <trkpt lat="47.29089" lon="-2.17507">
        <ele>32.4</ele>
        <time>2020-06-05T14:01:17Z</time>
      </trkpt>
      <trkpt lat="47.29096" lon="-2.17512">
        <ele>31.9</ele>
        <time>2020-06-05T14:01:18Z</time>
      </trkpt>
      <trkpt lat="47.29104" lon="-2.17516">
        <ele>31.4</ele>
        <time>2020-06-05T14:01:19Z</time>
      </trkpt>
      <trkpt lat="47.29111" lon="-2.17521">
        <ele>30.9</ele>
        <time>2020-06-05T14:01:20Z</time>
      </trkpt>
      <trkpt lat="47.29118" lon="-2.17526">
        <ele>30.4</ele>
        <time>2020-06-05T14:01:21Z</time>
      </trkpt>
      <trkpt lat="47.29126" lon="-2.17529">
        <ele>29.9</ele>
        <time>2020-06-05T14:01:22Z</time>
      </trkpt>
      <trkpt lat="47.29133" lon="-2.17533">
        <ele>29.5</ele>
        <time>2020-06-05T14:01:23Z</time>
      </trkpt>
      <trkpt lat="47.2914" lon="-2.17537">
        <ele>29.1</ele>
        <time>2020-06-05T14:01:24Z</time>
      </trkpt>
      <trkpt lat="47.29146" lon="-2.17541">
        <ele>28.7</ele>
        <time>2020-06-05T14:01:25Z</time>
      </trkpt>
      <trkpt lat="47.29154" lon="-2.17544">
        <ele>28.2</ele>
        <time>2020-06-05T14:01:26Z</time>
      </trkpt>
      <trkpt lat="47.2916" lon="-2.17548">
        <ele>27.8</ele>
        <time>2020-06-05T14:01:27Z</time>
      </trkpt>
      <trkpt lat="47.29167" lon="-2.17551">
        <ele>27.5</ele>
        <time>2020-06-05T14:01:28Z</time>
      </trkpt>
      <trkpt lat="47.29173" lon="-2.17555">
        <ele>27.1</ele>
        <time>2020-06-05T14:01:29Z</time>
      </trkpt>
      <trkpt lat="47.29179" lon="-2.17559">
        <ele>26.7</ele>
        <time>2020-06-05T14:01:30Z</time>
      </trkpt>
      <trkpt lat="47.29185" lon="-2.17563">
        <ele>26.3</ele>
        <time>2020-06-05T14:01:31Z</time>
      </trkpt>
      <trkpt lat="47.29191" lon="-2.17566">
        <ele>26</ele>
        <time>2020-06-05T14:01:32Z</time>
      </trkpt>
      <trkpt lat="47.29197" lon="-2.17569">
        <ele>25.7</ele>
        <time>2020-06-05T14:01:33Z</time>
      </trkpt>
      <trkpt lat="47.29203" lon="-2.17573">
        <ele>25.3</ele>
        <time>2020-06-05T14:01:34Z</time>
      </trkpt>
      <trkpt lat="47.29209" lon="-2.17575">
        <ele>25</ele>
        <time>2020-06-05T14:01:35Z</time>
      </trkpt>
      <trkpt lat="47.29215" lon="-2.17578">
        <ele>24.7</ele>
        <time>2020-06-05T14:01:36Z</time>
      </trkpt>
      <trkpt lat="47.29221" lon="-2.17583">
        <ele>24.3</ele>
        <time>2020-06-05T14:01:37Z</time>
      </trkpt>
      <trkpt lat="47.29227" lon="-2.17587">
        <ele>23.9</ele>
        <time>2020-06-05T14:01:38Z</time>
      </trkpt>
      <trkpt lat="47.29233" lon="-2.17591">
        <ele>23.6</ele>
        <time>2020-06-05T14:01:39Z</time>
      </trkpt>
      <trkpt lat="47.29239" lon="-2.17594">
        <ele>23.3</ele>
        <time>2020-06-05T14:01:40Z</time>
      </trkpt>
      <trkpt lat="47.29246" lon="-2.17597">
        <ele>22.9</ele>
        <time>2020-06-05T14:01:41Z</time>
      </trkpt>
      <trkpt lat="47.29252" lon="-2.176">
        <ele>22.7</ele>
        <time>2020-06-05T14:01:42Z</time>
      </trkpt>
      <trkpt lat="47.29257" lon="-2.17601">
        <ele>22.4</ele>
        <time>2020-06-05T14:01:43Z</time>
      </trkpt>
      <trkpt lat="47.29263" lon="-2.17604">
        <ele>22.2</ele>
        <time>2020-06-05T14:01:44Z</time>
      </trkpt>
      <trkpt lat="47.29268" lon="-2.17607">
        <ele>21.9</ele>
        <time>2020-06-05T14:01:45Z</time>
      </trkpt>
      <trkpt lat="47.29274" lon="-2.17609">
        <ele>21.6</ele>
        <time>2020-06-05T14:01:46Z</time>
      </trkpt>
      <trkpt lat="47.29279" lon="-2.17612">
        <ele>21.3</ele>
        <time>2020-06-05T14:01:47Z</time>
      </trkpt>
      <trkpt lat="47.29285" lon="-2.17615">
        <ele>21.1</ele>
        <time>2020-06-05T14:01:48Z</time>
      </trkpt>
      <trkpt lat="47.2929" lon="-2.17617">
        <ele>20.8</ele>
        <time>2020-06-05T14:01:49Z</time>
      </trkpt>
      <trkpt lat="47.29296" lon="-2.1762">
        <ele>20.5</ele>
        <time>2020-06-05T14:01:50Z</time>
      </trkpt>
      <trkpt lat="47.29302" lon="-2.17624">
        <ele>20.2</ele>
        <time>2020-06-05T14:01:51Z</time>
      </trkpt>
      <trkpt lat="47.29308" lon="-2.17627">
        <ele>19.9</ele>
        <time>2020-06-05T14:01:52Z</time>
      </trkpt>
      <trkpt lat="47.29315" lon="-2.17631">
        <ele>19.6</ele>
        <time>2020-06-05T14:01:53Z</time>
      </trkpt>
      <trkpt lat="47.29321" lon="-2.17635">
        <ele>19.3</ele>
        <time>2020-06-05T14:01:54Z</time>
      </trkpt>
      <trkpt lat="47.29328" lon="-2.17638">
        <ele>19</ele>
        <time>2020-06-05T14:01:55Z</time>
      </trkpt>
      <trkpt lat="47.29334" lon="-2.17642">
        <ele>18.7</ele>
        <time>2020-06-05T14:01:56Z</time>
      </trkpt>
      <trkpt lat="47.29341" lon="-2.17646">
        <ele>18.5</ele>
        <time>2020-06-05T14:01:57Z</time>
      </trkpt>
      <trkpt lat="47.29348" lon="-2.1765">
        <ele>18.2</ele>
        <time>2020-06-05T14:01:58Z</time>
      </trkpt>
      <trkpt lat="47.29355" lon="-2.17652">
        <ele>17.9</ele>
        <time>2020-06-05T14:01:59Z</time>
      </trkpt>
      <trkpt lat="47.29362" lon="-2.17654">
        <ele>17.6</ele>
        <time>2020-06-05T14:02:00Z</time>
      </trkpt>
      <trkpt lat="47.29369" lon="-2.17658">
        <ele>17.3</ele>
        <time>2020-06-05T14:02:01Z</time>
      </trkpt>
      <trkpt lat="47.29376" lon="-2.17661">
        <ele>17</ele>
        <time>2020-06-05T14:02:02Z</time>
      </trkpt>
      <trkpt lat="47.29383" lon="-2.17664">
        <ele>16.7</ele>
        <time>2020-06-05T14:02:03Z</time>
      </trkpt>
      <trkpt lat="47.29391" lon="-2.17667">
        <ele>16.4</ele>
        <time>2020-06-05T14:02:04Z</time>
      </trkpt>
      <trkpt lat="47.29398" lon="-2.1767">
        <ele>16.2</ele>
        <time>2020-06-05T14:02:05Z</time>
      </trkpt>
      <trkpt lat="47.29405" lon="-2.17672">
        <ele>15.9</ele>
        <time>2020-06-05T14:02:06Z</time>
      </trkpt>
      <trkpt lat="47.29411" lon="-2.17676">
        <ele>15.7</ele>
        <time>2020-06-05T14:02:07Z</time>
      </trkpt>
      <trkpt lat="47.29418" lon="-2.17679">
        <ele>15.4</ele>
        <time>2020-06-05T14:02:08Z</time>
      </trkpt>
      <trkpt lat="47.29425" lon="-2.17682">
        <ele>15.2</ele>
        <time>2020-06-05T14:02:09Z</time>
      </trkpt>
      <trkpt lat="47.29432" lon="-2.17686">
        <ele>14.9</ele>
        <time>2020-06-05T14:02:10Z</time>
      </trkpt>
      <trkpt lat="47.29438" lon="-2.17689">
        <ele>14.7</ele>
        <time>2020-06-05T14:02:11Z</time>
      </trkpt>
      <trkpt lat="47.29445" lon="-2.17692">
        <ele>14.4</ele>
        <time>2020-06-05T14:02:12Z</time>
      </trkpt>
      <trkpt lat="47.29452" lon="-2.17695">
        <ele>14.2</ele>
        <time>2020-06-05T14:02:13Z</time>
      </trkpt>
      <trkpt lat="47.29459" lon="-2.17697">
        <ele>14</ele>
        <time>2020-06-05T14:02:14Z</time>
      </trkpt>
      <trkpt lat="47.29466" lon="-2.177">
        <ele>13.7</ele>
        <time>2020-06-05T14:02:15Z</time>
      </trkpt>
      <trkpt lat="47.29474" lon="-2.17702">
        <ele>13.5</ele>
        <time>2020-06-05T14:02:16Z</time>
      </trkpt>
      <trkpt lat="47.29481" lon="-2.17704">
        <ele>13.3</ele>
        <time>2020-06-05T14:02:17Z</time>
      </trkpt>
      <trkpt lat="47.29488" lon="-2.17707">
        <ele>13</ele>
        <time>2020-06-05T14:02:18Z</time>
      </trkpt>
      <trkpt lat="47.29496" lon="-2.1771">
        <ele>12.7</ele>
        <time>2020-06-05T14:02:19Z</time>
      </trkpt>
      <trkpt lat="47.29502" lon="-2.17713">
        <ele>12.5</ele>
        <time>2020-06-05T14:02:20Z</time>
      </trkpt>
      <trkpt lat="47.29508" lon="-2.17716">
        <ele>12.2</ele>
        <time>2020-06-05T14:02:21Z</time>
      </trkpt>
      <trkpt lat="47.29515" lon="-2.17719">
        <ele>12</ele>
        <time>2020-06-05T14:02:22Z</time>
      </trkpt>
      <trkpt lat="47.29522" lon="-2.17721">
        <ele>11.7</ele>
        <time>2020-06-05T14:02:23Z</time>
      </trkpt>
      <trkpt lat="47.29529" lon="-2.17725">
        <ele>11.4</ele>
        <time>2020-06-05T14:02:24Z</time>
      </trkpt>
      <trkpt lat="47.29537" lon="-2.17728">
        <ele>11.2</ele>
        <time>2020-06-05T14:02:25Z</time>
      </trkpt>
      <trkpt lat="47.29544" lon="-2.17731">
        <ele>11</ele>
        <time>2020-06-05T14:02:26Z</time>
      </trkpt>
      <trkpt lat="47.29551" lon="-2.17734">
        <ele>10.8</ele>
        <time>2020-06-05T14:02:27Z</time>
      </trkpt>
      <trkpt lat="47.29558" lon="-2.17737">
        <ele>10.5</ele>
        <time>2020-06-05T14:02:28Z</time>
      </trkpt>
      <trkpt lat="47.29565" lon="-2.17739">
        <ele>10.3</ele>
        <time>2020-06-05T14:02:29Z</time>
      </trkpt>
      <trkpt lat="47.29572" lon="-2.17742">
        <ele>10</ele>
        <time>2020-06-05T14:02:30Z</time>
      </trkpt>
      <trkpt lat="47.29579" lon="-2.17745">
        <ele>9.8</ele>
        <time>2020-06-05T14:02:31Z</time>
      </trkpt>
      <trkpt lat="47.29586" lon="-2.17749">
        <ele>9.6</ele>
        <time>2020-06-05T14:02:32Z</time>
      </trkpt>
      <trkpt lat="47.29593" lon="-2.17752">
        <ele>9.4</ele>
        <time>2020-06-05T14:02:33Z</time>
      </trkpt>
      <trkpt lat="47.296" lon="-2.17754">
        <ele>9.2</ele>
        <time>2020-06-05T14:02:34Z</time>
      </trkpt>
      <trkpt lat="47.29607" lon="-2.17757">
        <ele>9</ele>
        <time>2020-06-05T14:02:35Z</time>
      </trkpt>
      <trkpt lat="47.29614" lon="-2.1776">
        <ele>8.8</ele>
        <time>2020-06-05T14:02:36Z</time>
      </trkpt>
      <trkpt lat="47.29621" lon="-2.17763">
        <ele>8.7</ele>
        <time>2020-06-05T14:02:37Z</time>
      </trkpt>
      <trkpt lat="47.29628" lon="-2.17767">
        <ele>8.5</ele>
        <time>2020-06-05T14:02:38Z</time>
      </trkpt>
      <trkpt lat="47.29635" lon="-2.17769">
        <ele>8.4</ele>
        <time>2020-06-05T14:02:39Z</time>
      </trkpt>
      <trkpt lat="47.29641" lon="-2.17771">
        <ele>8.2</ele>
        <time>2020-06-05T14:02:40Z</time>
      </trkpt>
      <trkpt lat="47.29647" lon="-2.17774">
        <ele>8.1</ele>
        <time>2020-06-05T14:02:41Z</time>
      </trkpt>
      <trkpt lat="47.29654" lon="-2.17776">
        <ele>7.9</ele>
        <time>2020-06-05T14:02:42Z</time>
      </trkpt>
      <trkpt lat="47.2966" lon="-2.17779">
        <ele>7.7</ele>
        <time>2020-06-05T14:02:43Z</time>
      </trkpt>
      <trkpt lat="47.29667" lon="-2.17782">
        <ele>7.6</ele>
        <time>2020-06-05T14:02:44Z</time>
      </trkpt>
      <trkpt lat="47.29674" lon="-2.17784">
        <ele>7.4</ele>
        <time>2020-06-05T14:02:45Z</time>
      </trkpt>
      <trkpt lat="47.29681" lon="-2.17787">
        <ele>7.2</ele>
        <time>2020-06-05T14:02:46Z</time>
      </trkpt>
      <trkpt lat="47.29688" lon="-2.1779">
        <ele>7.1</ele>
        <time>2020-06-05T14:02:47Z</time>
      </trkpt>
      <trkpt lat="47.29694" lon="-2.17792">
        <ele>6.9</ele>
        <time>2020-06-05T14:02:48Z</time>
      </trkpt>
      <trkpt lat="47.29701" lon="-2.17794">
        <ele>6.8</ele>
        <time>2020-06-05T14:02:49Z</time>
      </trkpt>
      <trkpt lat="47.29707" lon="-2.17798">
        <ele>6.7</ele>
        <time>2020-06-05T14:02:50Z</time>
      </trkpt>
      <trkpt lat="47.29714" lon="-2.178">
        <ele>6.5</ele>
        <time>2020-06-05T14:02:51Z</time>
      </trkpt>
      <trkpt lat="47.2972" lon="-2.17804">
        <ele>6.3</ele>
        <time>2020-06-05T14:02:52Z</time>
      </trkpt>
      <trkpt lat="47.29727" lon="-2.17806">
        <ele>6</ele>
        <time>2020-06-05T14:02:53Z</time>
      </trkpt>
      <trkpt lat="47.29733" lon="-2.17808">
        <ele>5.9</ele>
        <time>2020-06-05T14:02:54Z</time>
      </trkpt>
      <trkpt lat="47.2974" lon="-2.17811">
        <ele>5.9</ele>
        <time>2020-06-05T14:02:55Z</time>
      </trkpt>
      <trkpt lat="47.29747" lon="-2.17813">
        <ele>5.8</ele>
        <time>2020-06-05T14:02:56Z</time>
      </trkpt>
      <trkpt lat="47.29754" lon="-2.17815">
        <ele>5.7</ele>
        <time>2020-06-05T14:02:57Z</time>
      </trkpt>
      <trkpt lat="47.29761" lon="-2.17818">
        <ele>5.6</ele>
        <time>2020-06-05T14:02:58Z</time>
      </trkpt>
      <trkpt lat="47.29768" lon="-2.17822">
        <ele>5.5</ele>
        <time>2020-06-05T14:02:59Z</time>
      </trkpt>
      <trkpt lat="47.29775" lon="-2.17824">
        <ele>5.4</ele>
        <time>2020-06-05T14:03:00Z</time>
      </trkpt>
      <trkpt lat="47.29782" lon="-2.17827">
        <ele>5.3</ele>
        <time>2020-06-05T14:03:01Z</time>
      </trkpt>
      <trkpt lat="47.29788" lon="-2.17831">
        <ele>5.2</ele>
        <time>2020-06-05T14:03:02Z</time>
      </trkpt>
      <trkpt lat="47.29795" lon="-2.17832">
        <ele>5.1</ele>
        <time>2020-06-05T14:03:03Z</time>
      </trkpt>
      <trkpt lat="47.29802" lon="-2.17834">
        <ele>5</ele>
        <time>2020-06-05T14:03:04Z</time>
      </trkpt>
      <trkpt lat="47.29809" lon="-2.17837">
        <ele>4.9</ele>
        <time>2020-06-05T14:03:05Z</time>
      </trkpt>
      <trkpt lat="47.29815" lon="-2.17839">
        <ele>4.8</ele>
        <time>2020-06-05T14:03:06Z</time>
      </trkpt>
      <trkpt lat="47.29822" lon="-2.17842">
        <ele>4.8</ele>
        <time>2020-06-05T14:03:07Z</time>
      </trkpt>
      <trkpt lat="47.29828" lon="-2.17845">
        <ele>4.7</ele>
        <time>2020-06-05T14:03:08Z</time>
      </trkpt>
      <trkpt lat="47.29834" lon="-2.17847">
        <ele>4.6</ele>
        <time>2020-06-05T14:03:09Z</time>
      </trkpt>
      <trkpt lat="47.2984" lon="-2.17849">
        <ele>4.6</ele>
        <time>2020-06-05T14:03:10Z</time>
      </trkpt>
      <trkpt lat="47.29846" lon="-2.17851">
        <ele>4.5</ele>
        <time>2020-06-05T14:03:11Z</time>
      </trkpt>
      <trkpt lat="47.29853" lon="-2.17852">
        <ele>4.5</ele>
        <time>2020-06-05T14:03:12Z</time>
      </trkpt>
      <trkpt lat="47.29858" lon="-2.17855">
        <ele>4.4</ele>
        <time>2020-06-05T14:03:13Z</time>
      </trkpt>
      <trkpt lat="47.29864" lon="-2.17857">
        <ele>4.4</ele>
        <time>2020-06-05T14:03:14Z</time>
      </trkpt>
      <trkpt lat="47.2987" lon="-2.17859">
        <ele>4.3</ele>
        <time>2020-06-05T14:03:15Z</time>
      </trkpt>
      <trkpt lat="47.29876" lon="-2.17862">
        <ele>4.3</ele>
        <time>2020-06-05T14:03:16Z</time>
      </trkpt>
      <trkpt lat="47.29881" lon="-2.17865">
        <ele>4.2</ele>
        <time>2020-06-05T14:03:17Z</time>
      </trkpt>
      <trkpt lat="47.29887" lon="-2.17868">
        <ele>4.2</ele>
        <time>2020-06-05T14:03:18Z</time>
      </trkpt>
      <trkpt lat="47.29893" lon="-2.1787">
        <ele>4.1</ele>
        <time>2020-06-05T14:03:19Z</time>
      </trkpt>
      <trkpt lat="47.29898" lon="-2.17872">
        <ele>4.1</ele>
        <time>2020-06-05T14:03:20Z</time>
      </trkpt>
      <trkpt lat="47.29904" lon="-2.17874">
        <ele>4.1</ele>
        <time>2020-06-05T14:03:21Z</time>
      </trkpt>
      <trkpt lat="47.2991" lon="-2.17876">
        <ele>4.1</ele>
        <time>2020-06-05T14:03:22Z</time>
      </trkpt>
      <trkpt lat="47.29915" lon="-2.17877">
        <ele>4.1</ele>
        <time>2020-06-05T14:03:23Z</time>
      </trkpt>
      <trkpt lat="47.2992" lon="-2.17877">
        <ele>4.1</ele>
        <time>2020-06-05T14:03:24Z</time>
      </trkpt>
      <trkpt lat="47.29925" lon="-2.17879">
        <ele>4.1</ele>
        <time>2020-06-05T14:03:25Z</time>
      </trkpt>
      <trkpt lat="47.29929" lon="-2.17882">
        <ele>4.1</ele>
        <time>2020-06-05T14:03:26Z</time>
      </trkpt>
      <trkpt lat="47.29934" lon="-2.17884">
        <ele>4.1</ele>
        <time>2020-06-05T14:03:27Z</time>
      </trkpt>
      <trkpt lat="47.29939" lon="-2.17886">
        <ele>4.1</ele>
        <time>2020-06-05T14:03:28Z</time>
      </trkpt>
      <trkpt lat="47.29943" lon="-2.17888">
        <ele>4.1</ele>
        <time>2020-06-05T14:03:29Z</time>
      </trkpt>
      <trkpt lat="47.29948" lon="-2.17889">
        <ele>4.1</ele>
        <time>2020-06-05T14:03:30Z</time>
      </trkpt>
      <trkpt lat="47.29953" lon="-2.17892">
        <ele>4</ele>
        <time>2020-06-05T14:03:31Z</time>
      </trkpt>
      <trkpt lat="47.29958" lon="-2.17891">
        <ele>4</ele>
        <time>2020-06-05T14:03:32Z</time>
      </trkpt>
      <trkpt lat="47.29962" lon="-2.17893">
        <ele>4</ele>
        <time>2020-06-05T14:03:33Z</time>
      </trkpt>
      <trkpt lat="47.29966" lon="-2.17893">
        <ele>4</ele>
        <time>2020-06-05T14:03:34Z</time>
      </trkpt>
      <trkpt lat="47.2997" lon="-2.17894">
        <ele>4</ele>
        <time>2020-06-05T14:03:35Z</time>
      </trkpt>
      <trkpt lat="47.29974" lon="-2.17895">
        <ele>4</ele>
        <time>2020-06-05T14:03:36Z</time>
      </trkpt>
      <trkpt lat="47.29978" lon="-2.17895">
        <ele>3.9</ele>
        <time>2020-06-05T14:03:37Z</time>
      </trkpt>
      <trkpt lat="47.29983" lon="-2.17896">
        <ele>3.9</ele>
        <time>2020-06-05T14:03:38Z</time>
      </trkpt>
      <trkpt lat="47.29987" lon="-2.17896">
        <ele>3.9</ele>
        <time>2020-06-05T14:03:39Z</time>
      </trkpt>
      <trkpt lat="47.29991" lon="-2.17895">
        <ele>3.8</ele>
        <time>2020-06-05T14:03:40Z</time>
      </trkpt>
      <trkpt lat="47.29995" lon="-2.17894">
        <ele>3.8</ele>
        <time>2020-06-05T14:03:41Z</time>
      </trkpt>
      <trkpt lat="47.29999" lon="-2.17894">
        <ele>3.7</ele>
        <time>2020-06-05T14:03:42Z</time>
      </trkpt>
      <trkpt lat="47.30002" lon="-2.17893">
        <ele>3.7</ele>
        <time>2020-06-05T14:03:43Z</time>
      </trkpt>
      <trkpt lat="47.30006" lon="-2.17892">
        <ele>3.6</ele>
        <time>2020-06-05T14:03:44Z</time>
      </trkpt>
      <trkpt lat="47.3001" lon="-2.17891">
        <ele>3.6</ele>
        <time>2020-06-05T14:03:45Z</time>
      </trkpt>
      <trkpt lat="47.30014" lon="-2.17891">
        <ele>3.6</ele>
        <time>2020-06-05T14:03:46Z</time>
      </trkpt>
      <trkpt lat="47.30017" lon="-2.17889">
        <ele>3.6</ele>
        <time>2020-06-05T14:03:47Z</time>
      </trkpt>
      <trkpt lat="47.30021" lon="-2.17887">
        <ele>3.5</ele>
        <time>2020-06-05T14:03:48Z</time>
      </trkpt>
      <trkpt lat="47.30024" lon="-2.17885">
        <ele>3.5</ele>
        <time>2020-06-05T14:03:49Z</time>
      </trkpt>
      <trkpt lat="47.30027" lon="-2.17882">
        <ele>3.5</ele>
        <time>2020-06-05T14:03:50Z</time>
      </trkpt>
      <trkpt lat="47.30029" lon="-2.1788">
        <ele>3.5</ele>
        <time>2020-06-05T14:03:51Z</time>
      </trkpt>
      <trkpt lat="47.30031" lon="-2.17876">
        <ele>3.5</ele>
        <time>2020-06-05T14:03:52Z</time>
      </trkpt>
      <trkpt lat="47.30034" lon="-2.17874">
        <ele>3.4</ele>
        <time>2020-06-05T14:03:53Z</time>
      </trkpt>
      <trkpt lat="47.30036" lon="-2.17871">
        <ele>3.4</ele>
        <time>2020-06-05T14:03:54Z</time>
      </trkpt>
      <trkpt lat="47.30038" lon="-2.17867">
        <ele>3.4</ele>
        <time>2020-06-05T14:03:55Z</time>
      </trkpt>
      <trkpt lat="47.3004" lon="-2.17863">
        <ele>3.4</ele>
        <time>2020-06-05T14:03:56Z</time>
      </trkpt>
      <trkpt lat="47.30042" lon="-2.17858">
        <ele>3.4</ele>
        <time>2020-06-05T14:03:57Z</time>
      </trkpt>
      <trkpt lat="47.30044" lon="-2.17854">
        <ele>3.4</ele>
        <time>2020-06-05T14:03:58Z</time>
      </trkpt>
      <trkpt lat="47.30046" lon="-2.1785">
        <ele>3.4</ele>
        <time>2020-06-05T14:03:59Z</time>
      </trkpt>
      <trkpt lat="47.30048" lon="-2.17847">
        <ele>3.4</ele>
        <time>2020-06-05T14:04:00Z</time>
      </trkpt>
      <trkpt lat="47.30051" lon="-2.17842">
        <ele>3.4</ele>
        <time>2020-06-05T14:04:01Z</time>
      </trkpt>
      <trkpt lat="47.30052" lon="-2.17837">
        <ele>3.4</ele>
        <time>2020-06-05T14:04:02Z</time>
      </trkpt>
      <trkpt lat="47.30054" lon="-2.17832">
        <ele>3.4</ele>
        <time>2020-06-05T14:04:03Z</time>
      </trkpt>
      <trkpt lat="47.30056" lon="-2.17828">
        <ele>3.4</ele>
        <time>2020-06-05T14:04:04Z</time>
      </trkpt>
      <trkpt lat="47.30058" lon="-2.17824">
        <ele>3.4</ele>
        <time>2020-06-05T14:04:05Z</time>
      </trkpt>
      <trkpt lat="47.30061" lon="-2.1782">
        <ele>3.4</ele>
        <time>2020-06-05T14:04:06Z</time>
      </trkpt>
      <trkpt lat="47.30063" lon="-2.17816">
        <ele>3.4</ele>
        <time>2020-06-05T14:04:07Z</time>
      </trkpt>
      <trkpt lat="47.30065" lon="-2.17812">
        <ele>3.4</ele>
        <time>2020-06-05T14:04:08Z</time>
      </trkpt>
      <trkpt lat="47.30068" lon="-2.17808">
        <ele>3.3</ele>
        <time>2020-06-05T14:04:09Z</time>
      </trkpt>
      <trkpt lat="47.30071" lon="-2.17803">
        <ele>3.3</ele>
        <time>2020-06-05T14:04:10Z</time>
      </trkpt>
      <trkpt lat="47.30073" lon="-2.17799">
        <ele>3.3</ele>
        <time>2020-06-05T14:04:11Z</time>
      </trkpt>
      <trkpt lat="47.30075" lon="-2.17794">
        <ele>3.3</ele>
        <time>2020-06-05T14:04:12Z</time>
      </trkpt>
      <trkpt lat="47.30077" lon="-2.17789">
        <ele>3.3</ele>
        <time>2020-06-05T14:04:13Z</time>
      </trkpt>
      <trkpt lat="47.30079" lon="-2.17786">
        <ele>3.3</ele>
        <time>2020-06-05T14:04:14Z</time>
      </trkpt>
      <trkpt lat="47.30082" lon="-2.17781">
        <ele>3.3</ele>
        <time>2020-06-05T14:04:15Z</time>
      </trkpt>
      <trkpt lat="47.30085" lon="-2.17776">
        <ele>3.3</ele>
        <time>2020-06-05T14:04:16Z</time>
      </trkpt>
      <trkpt lat="47.30089" lon="-2.17772">
        <ele>3.2</ele>
        <time>2020-06-05T14:04:17Z</time>
      </trkpt>
      <trkpt lat="47.30092" lon="-2.1777">
        <ele>3.2</ele>
        <time>2020-06-05T14:04:18Z</time>
      </trkpt>
      <trkpt lat="47.30095" lon="-2.17766">
        <ele>3.2</ele>
        <time>2020-06-05T14:04:19Z</time>
      </trkpt>
      <trkpt lat="47.30098" lon="-2.17763">
        <ele>3.2</ele>
        <time>2020-06-05T14:04:20Z</time>
      </trkpt>
      <trkpt lat="47.30101" lon="-2.17761">
        <ele>3.2</ele>
        <time>2020-06-05T14:04:21Z</time>
      </trkpt>
      <trkpt lat="47.30103" lon="-2.17758">
        <ele>3.2</ele>
        <time>2020-06-05T14:04:22Z</time>
      </trkpt>
      <trkpt lat="47.30104" lon="-2.17757">
        <ele>3.2</ele>
        <time>2020-06-05T14:04:23Z</time>
      </trkpt>
      <trkpt lat="47.30103" lon="-2.17757">
        <ele>3.2</ele>
        <time>2020-06-05T14:04:24Z</time>
      </trkpt>
      <trkpt lat="47.30103" lon="-2.17757">
        <ele>3.2</ele>
        <time>2020-06-05T14:04:25Z</time>
      </trkpt>
      <trkpt lat="47.30103" lon="-2.17756">
        <ele>3.3</ele>
        <time>2020-06-05T14:04:26Z</time>
      </trkpt>
      <trkpt lat="47.30103" lon="-2.17756">
        <ele>3.3</ele>
        <time>2020-06-05T14:04:27Z</time>
      </trkpt>
      <trkpt lat="47.30104" lon="-2.17755">
        <ele>3.3</ele>
        <time>2020-06-05T14:04:28Z</time>
      </trkpt>
      <trkpt lat="47.30104" lon="-2.17755">
        <ele>3.3</ele>
        <time>2020-06-05T14:04:29Z</time>
      </trkpt>
      <trkpt lat="47.30104" lon="-2.17754">
        <ele>3.3</ele>
        <time>2020-06-05T14:04:30Z</time>
      </trkpt>
      <trkpt lat="47.30104" lon="-2.17753">
        <ele>3.3</ele>
        <time>2020-06-05T14:04:31Z</time>
      </trkpt>
      <trkpt lat="47.30104" lon="-2.17753">
        <ele>3.3</ele>
        <time>2020-06-05T14:04:32Z</time>
      </trkpt>
      <trkpt lat="47.30105" lon="-2.17753">
        <ele>3.3</ele>
        <time>2020-06-05T14:04:33Z</time>
      </trkpt>
      <trkpt lat="47.30105" lon="-2.17753">
        <ele>3.3</ele>
        <time>2020-06-05T14:04:34Z</time>
      </trkpt>
      <trkpt lat="47.30105" lon="-2.17753">
        <ele>3.3</ele>
        <time>2020-06-05T14:04:35Z</time>
      </trkpt>
      <trkpt lat="47.30105" lon="-2.17752">
        <ele>3.3</ele>
        <time>2020-06-05T14:04:36Z</time>
      </trkpt>
      <trkpt lat="47.30105" lon="-2.17753">
        <ele>3.3</ele>
        <time>2020-06-05T14:04:37Z</time>
      </trkpt>
      <trkpt lat="47.30106" lon="-2.17753">
        <ele>3.3</ele>
        <time>2020-06-05T14:04:38Z</time>
      </trkpt>
      <trkpt lat="47.30106" lon="-2.17753">
        <ele>3.3</ele>
        <time>2020-06-05T14:04:39Z</time>
      </trkpt>
      <trkpt lat="47.30106" lon="-2.17753">
        <ele>3.3</ele>
        <time>2020-06-05T14:04:40Z</time>
      </trkpt>
    </trkseg>
  </trk>
  <trk>
    <name><![CDATA[Jour  4 - La Tranche / Saint Gilles Croix de vie]]></name>
    <trkseg>
      <trkpt lat="46.3469" lon="-1.41497">
        <ele>8.9</ele>
        <time>2020-06-03T08:14:51Z</time>
      </trkpt>
      <trkpt lat="46.3469" lon="-1.41496">
        <ele>8.9</ele>
        <time>2020-06-03T08:14:52Z</time>
      </trkpt>
      <trkpt lat="46.34691" lon="-1.41494">
        <ele>8.9</ele>
        <time>2020-06-03T08:14:53Z</time>
      </trkpt>
      <trkpt lat="46.3469" lon="-1.41494">
        <ele>8.9</ele>
        <time>2020-06-03T08:14:54Z</time>
      </trkpt>
      <trkpt lat="46.3469" lon="-1.41493">
        <ele>8.9</ele>
        <time>2020-06-03T08:14:55Z</time>
      </trkpt>
      <trkpt lat="46.34691" lon="-1.41492">
        <ele>8.9</ele>
        <time>2020-06-03T08:14:56Z</time>
      </trkpt>
      <trkpt lat="46.34691" lon="-1.41493">
        <ele>8.9</ele>
        <time>2020-06-03T08:14:57Z</time>
      </trkpt>
      <trkpt lat="46.34691" lon="-1.41493">
        <ele>8.9</ele>
        <time>2020-06-03T08:14:58Z</time>
      </trkpt>
      <trkpt lat="46.34691" lon="-1.41494">
        <ele>8.9</ele>
        <time>2020-06-03T08:14:59Z</time>
      </trkpt>
      <trkpt lat="46.34692" lon="-1.41495">
        <ele>8.9</ele>
        <time>2020-06-03T08:15:00Z</time>
      </trkpt>
      <trkpt lat="46.34692" lon="-1.41495">
        <ele>8.9</ele>
        <time>2020-06-03T08:15:01Z</time>
      </trkpt>
      <trkpt lat="46.34692" lon="-1.41496">
        <ele>8.9</ele>
        <time>2020-06-03T08:15:02Z</time>
      </trkpt>
      <trkpt lat="46.34693" lon="-1.41497">
        <ele>8.9</ele>
        <time>2020-06-03T08:15:03Z</time>
      </trkpt>
      <trkpt lat="46.34693" lon="-1.41497">
        <ele>8.9</ele>
        <time>2020-06-03T08:15:04Z</time>
      </trkpt>
      <trkpt lat="46.34693" lon="-1.41498">
        <ele>8.9</ele>
        <time>2020-06-03T08:15:05Z</time>
      </trkpt>
      <trkpt lat="46.34694" lon="-1.41502">
        <ele>8.9</ele>
        <time>2020-06-03T08:15:06Z</time>
      </trkpt>
      <trkpt lat="46.34696" lon="-1.41506">
        <ele>8.9</ele>
        <time>2020-06-03T08:15:07Z</time>
      </trkpt>
      <trkpt lat="46.34698" lon="-1.4151">
        <ele>8.9</ele>
        <time>2020-06-03T08:15:08Z</time>
      </trkpt>
      <trkpt lat="46.347" lon="-1.41515">
        <ele>8.9</ele>
        <time>2020-06-03T08:15:09Z</time>
      </trkpt>
      <trkpt lat="46.34702" lon="-1.4152">
        <ele>9</ele>
        <time>2020-06-03T08:15:10Z</time>
      </trkpt>
      <trkpt lat="46.34703" lon="-1.41523">
        <ele>8.9</ele>
        <time>2020-06-03T08:15:11Z</time>
      </trkpt>
      <trkpt lat="46.34704" lon="-1.41528">
        <ele>8.9</ele>
        <time>2020-06-03T08:15:12Z</time>
      </trkpt>
      <trkpt lat="46.34705" lon="-1.41534">
        <ele>8.9</ele>
        <time>2020-06-03T08:15:13Z</time>
      </trkpt>
      <trkpt lat="46.34707" lon="-1.41539">
        <ele>8.9</ele>
        <time>2020-06-03T08:15:14Z</time>
      </trkpt>
      <trkpt lat="46.34709" lon="-1.41545">
        <ele>8.9</ele>
        <time>2020-06-03T08:15:15Z</time>
      </trkpt>
      <trkpt lat="46.3471" lon="-1.41551">
        <ele>8.9</ele>
        <time>2020-06-03T08:15:16Z</time>
      </trkpt>
      <trkpt lat="46.34712" lon="-1.41557">
        <ele>8.9</ele>
        <time>2020-06-03T08:15:17Z</time>
      </trkpt>
      <trkpt lat="46.34714" lon="-1.41563">
        <ele>8.9</ele>
        <time>2020-06-03T08:15:18Z</time>
      </trkpt>
      <trkpt lat="46.34716" lon="-1.41569">
        <ele>8.9</ele>
        <time>2020-06-03T08:15:19Z</time>
      </trkpt>
      <trkpt lat="46.34718" lon="-1.41575">
        <ele>8.9</ele>
        <time>2020-06-03T08:15:20Z</time>
      </trkpt>
      <trkpt lat="46.3472" lon="-1.4158">
        <ele>8.9</ele>
        <time>2020-06-03T08:15:21Z</time>
      </trkpt>
      <trkpt lat="46.34722" lon="-1.41586">
        <ele>8.9</ele>
        <time>2020-06-03T08:15:22Z</time>
      </trkpt>
      <trkpt lat="46.34724" lon="-1.41591">
        <ele>8.9</ele>
        <time>2020-06-03T08:15:23Z</time>
      </trkpt>
      <trkpt lat="46.34725" lon="-1.41596">
        <ele>8.8</ele>
        <time>2020-06-03T08:15:24Z</time>
      </trkpt>
      <trkpt lat="46.34727" lon="-1.41601">
        <ele>8.8</ele>
        <time>2020-06-03T08:15:25Z</time>
      </trkpt>
      <trkpt lat="46.34729" lon="-1.41607">
        <ele>8.8</ele>
        <time>2020-06-03T08:15:26Z</time>
      </trkpt>
      <trkpt lat="46.3473" lon="-1.41612">
        <ele>8.8</ele>
        <time>2020-06-03T08:15:27Z</time>
      </trkpt>
      <trkpt lat="46.34732" lon="-1.41617">
        <ele>8.8</ele>
        <time>2020-06-03T08:15:28Z</time>
      </trkpt>
      <trkpt lat="46.34733" lon="-1.41624">
        <ele>8.8</ele>
        <time>2020-06-03T08:15:29Z</time>
      </trkpt>
      <trkpt lat="46.34735" lon="-1.41632">
        <ele>8.8</ele>
        <time>2020-06-03T08:15:30Z</time>
      </trkpt>
      <trkpt lat="46.34736" lon="-1.41639">
        <ele>8.8</ele>
        <time>2020-06-03T08:15:31Z</time>
      </trkpt>
      <trkpt lat="46.34738" lon="-1.41646">
        <ele>8.8</ele>
        <time>2020-06-03T08:15:32Z</time>
      </trkpt>
      <trkpt lat="46.34739" lon="-1.41652">
        <ele>8.8</ele>
        <time>2020-06-03T08:15:33Z</time>
      </trkpt>
      <trkpt lat="46.34741" lon="-1.41659">
        <ele>8.8</ele>
        <time>2020-06-03T08:15:34Z</time>
      </trkpt>
      <trkpt lat="46.34742" lon="-1.41664">
        <ele>8.8</ele>
        <time>2020-06-03T08:15:35Z</time>
      </trkpt>
      <trkpt lat="46.34744" lon="-1.4167">
        <ele>8.8</ele>
        <time>2020-06-03T08:15:36Z</time>
      </trkpt>
      <trkpt lat="46.34745" lon="-1.41676">
        <ele>8.7</ele>
        <time>2020-06-03T08:15:37Z</time>
      </trkpt>
      <trkpt lat="46.34746" lon="-1.41681">
        <ele>8.7</ele>
        <time>2020-06-03T08:15:38Z</time>
      </trkpt>
      <trkpt lat="46.34746" lon="-1.41686">
        <ele>8.7</ele>
        <time>2020-06-03T08:15:39Z</time>
      </trkpt>
      <trkpt lat="46.34748" lon="-1.41691">
        <ele>8.7</ele>
        <time>2020-06-03T08:15:40Z</time>
      </trkpt>
      <trkpt lat="46.34749" lon="-1.41696">
        <ele>8.7</ele>
        <time>2020-06-03T08:15:41Z</time>
      </trkpt>
      <trkpt lat="46.3475" lon="-1.41701">
        <ele>8.7</ele>
        <time>2020-06-03T08:15:42Z</time>
      </trkpt>
      <trkpt lat="46.34751" lon="-1.41706">
        <ele>8.7</ele>
        <time>2020-06-03T08:15:43Z</time>
      </trkpt>
      <trkpt lat="46.34752" lon="-1.41712">
        <ele>8.7</ele>
        <time>2020-06-03T08:15:44Z</time>
      </trkpt>
      <trkpt lat="46.34753" lon="-1.41719">
        <ele>8.7</ele>
        <time>2020-06-03T08:15:45Z</time>
      </trkpt>
      <trkpt lat="46.34754" lon="-1.41725">
        <ele>8.7</ele>
        <time>2020-06-03T08:15:46Z</time>
      </trkpt>
      <trkpt lat="46.34755" lon="-1.41731">
        <ele>8.7</ele>
        <time>2020-06-03T08:15:47Z</time>
      </trkpt>
      <trkpt lat="46.34756" lon="-1.41738">
        <ele>8.6</ele>
        <time>2020-06-03T08:15:48Z</time>
      </trkpt>
      <trkpt lat="46.34758" lon="-1.41744">
        <ele>8.6</ele>
        <time>2020-06-03T08:15:49Z</time>
      </trkpt>
      <trkpt lat="46.3476" lon="-1.41751">
        <ele>8.6</ele>
        <time>2020-06-03T08:15:50Z</time>
      </trkpt>
      <trkpt lat="46.34761" lon="-1.41757">
        <ele>8.7</ele>
        <time>2020-06-03T08:15:51Z</time>
      </trkpt>
      <trkpt lat="46.34762" lon="-1.41763">
        <ele>8.7</ele>
        <time>2020-06-03T08:15:52Z</time>
      </trkpt>
      <trkpt lat="46.34764" lon="-1.4177">
        <ele>8.7</ele>
        <time>2020-06-03T08:15:53Z</time>
      </trkpt>
      <trkpt lat="46.34765" lon="-1.41776">
        <ele>8.7</ele>
        <time>2020-06-03T08:15:54Z</time>
      </trkpt>
      <trkpt lat="46.34766" lon="-1.41783">
        <ele>8.7</ele>
        <time>2020-06-03T08:15:55Z</time>
      </trkpt>
      <trkpt lat="46.34768" lon="-1.41789">
        <ele>8.7</ele>
        <time>2020-06-03T08:15:56Z</time>
      </trkpt>
      <trkpt lat="46.3477" lon="-1.41796">
        <ele>8.7</ele>
        <time>2020-06-03T08:15:57Z</time>
      </trkpt>
      <trkpt lat="46.34771" lon="-1.41803">
        <ele>8.7</ele>
        <time>2020-06-03T08:15:58Z</time>
      </trkpt>
      <trkpt lat="46.34773" lon="-1.4181">
        <ele>8.7</ele>
        <time>2020-06-03T08:15:59Z</time>
      </trkpt>
      <trkpt lat="46.34774" lon="-1.41817">
        <ele>8.7</ele>
        <time>2020-06-03T08:16:00Z</time>
      </trkpt>
      <trkpt lat="46.34775" lon="-1.41824">
        <ele>8.7</ele>
        <time>2020-06-03T08:16:01Z</time>
      </trkpt>
      <trkpt lat="46.34777" lon="-1.41831">
        <ele>8.7</ele>
        <time>2020-06-03T08:16:02Z</time>
      </trkpt>
      <trkpt lat="46.34778" lon="-1.41838">
        <ele>8.7</ele>
        <time>2020-06-03T08:16:03Z</time>
      </trkpt>
      <trkpt lat="46.34779" lon="-1.41846">
        <ele>8.7</ele>
        <time>2020-06-03T08:16:04Z</time>
      </trkpt>
      <trkpt lat="46.34781" lon="-1.41852">
        <ele>8.7</ele>
        <time>2020-06-03T08:16:05Z</time>
      </trkpt>
      <trkpt lat="46.34782" lon="-1.41859">
        <ele>8.7</ele>
        <time>2020-06-03T08:16:06Z</time>
      </trkpt>
      <trkpt lat="46.34784" lon="-1.41865">
        <ele>8.7</ele>
        <time>2020-06-03T08:16:07Z</time>
      </trkpt>
      <trkpt lat="46.34785" lon="-1.41872">
        <ele>8.7</ele>
        <time>2020-06-03T08:16:08Z</time>
      </trkpt>
      <trkpt lat="46.34787" lon="-1.41878">
        <ele>8.8</ele>
        <time>2020-06-03T08:16:09Z</time>
      </trkpt>
      <trkpt lat="46.34789" lon="-1.41885">
        <ele>8.8</ele>
        <time>2020-06-03T08:16:10Z</time>
      </trkpt>
      <trkpt lat="46.3479" lon="-1.4189">
        <ele>8.8</ele>
        <time>2020-06-03T08:16:11Z</time>
      </trkpt>
      <trkpt lat="46.34791" lon="-1.41895">
        <ele>8.8</ele>
        <time>2020-06-03T08:16:12Z</time>
      </trkpt>
      <trkpt lat="46.34792" lon="-1.41901">
        <ele>8.8</ele>
        <time>2020-06-03T08:16:13Z</time>
      </trkpt>
      <trkpt lat="46.34794" lon="-1.41907">
        <ele>8.7</ele>
        <time>2020-06-03T08:16:14Z</time>
      </trkpt>
      <trkpt lat="46.34795" lon="-1.41912">
        <ele>8.7</ele>
        <time>2020-06-03T08:16:15Z</time>
      </trkpt>
      <trkpt lat="46.34796" lon="-1.41918">
        <ele>8.7</ele>
        <time>2020-06-03T08:16:16Z</time>
      </trkpt>
      <trkpt lat="46.34797" lon="-1.41925">
        <ele>8.7</ele>
        <time>2020-06-03T08:16:17Z</time>
      </trkpt>
      <trkpt lat="46.34797" lon="-1.41931">
        <ele>8.6</ele>
        <time>2020-06-03T08:16:18Z</time>
      </trkpt>
      <trkpt lat="46.34798" lon="-1.41937">
        <ele>8.6</ele>
        <time>2020-06-03T08:16:19Z</time>
      </trkpt>
      <trkpt lat="46.34799" lon="-1.41944">
        <ele>8.6</ele>
        <time>2020-06-03T08:16:20Z</time>
      </trkpt>
      <trkpt lat="46.34801" lon="-1.41951">
        <ele>8.5</ele>
        <time>2020-06-03T08:16:21Z</time>
      </trkpt>
      <trkpt lat="46.34802" lon="-1.41957">
        <ele>8.5</ele>
        <time>2020-06-03T08:16:22Z</time>
      </trkpt>
      <trkpt lat="46.34803" lon="-1.41964">
        <ele>8.5</ele>
        <time>2020-06-03T08:16:23Z</time>
      </trkpt>
      <trkpt lat="46.34804" lon="-1.41972">
        <ele>8.5</ele>
        <time>2020-06-03T08:16:24Z</time>
      </trkpt>
      <trkpt lat="46.34805" lon="-1.41979">
        <ele>8.5</ele>
        <time>2020-06-03T08:16:25Z</time>
      </trkpt>
      <trkpt lat="46.34807" lon="-1.41985">
        <ele>8.4</ele>
        <time>2020-06-03T08:16:26Z</time>
      </trkpt>
      <trkpt lat="46.34807" lon="-1.41991">
        <ele>8.4</ele>
        <time>2020-06-03T08:16:27Z</time>
      </trkpt>
      <trkpt lat="46.34808" lon="-1.41997">
        <ele>8.4</ele>
        <time>2020-06-03T08:16:28Z</time>
      </trkpt>
      <trkpt lat="46.34809" lon="-1.42003">
        <ele>8.4</ele>
        <time>2020-06-03T08:16:29Z</time>
      </trkpt>
      <trkpt lat="46.3481" lon="-1.4201">
        <ele>8.3</ele>
        <time>2020-06-03T08:16:30Z</time>
      </trkpt>
      <trkpt lat="46.34811" lon="-1.42017">
        <ele>8.3</ele>
        <time>2020-06-03T08:16:31Z</time>
      </trkpt>
      <trkpt lat="46.34812" lon="-1.42023">
        <ele>8.2</ele>
        <time>2020-06-03T08:16:32Z</time>
      </trkpt>
      <trkpt lat="46.34813" lon="-1.42029">
        <ele>8.2</ele>
        <time>2020-06-03T08:16:33Z</time>
      </trkpt>
      <trkpt lat="46.34813" lon="-1.42036">
        <ele>8.2</ele>
        <time>2020-06-03T08:16:34Z</time>
      </trkpt>
      <trkpt lat="46.34814" lon="-1.42042">
        <ele>8.1</ele>
        <time>2020-06-03T08:16:35Z</time>
      </trkpt>
      <trkpt lat="46.34815" lon="-1.42049">
        <ele>8.1</ele>
        <time>2020-06-03T08:16:36Z</time>
      </trkpt>
      <trkpt lat="46.34816" lon="-1.42055">
        <ele>8.1</ele>
        <time>2020-06-03T08:16:37Z</time>
      </trkpt>
      <trkpt lat="46.34817" lon="-1.42062">
        <ele>8.1</ele>
        <time>2020-06-03T08:16:38Z</time>
      </trkpt>
      <trkpt lat="46.34818" lon="-1.42069">
        <ele>8.1</ele>
        <time>2020-06-03T08:16:39Z</time>
      </trkpt>
      <trkpt lat="46.3482" lon="-1.42076">
        <ele>8.1</ele>
        <time>2020-06-03T08:16:40Z</time>
      </trkpt>
      <trkpt lat="46.34821" lon="-1.42083">
        <ele>8.1</ele>
        <time>2020-06-03T08:16:41Z</time>
      </trkpt>
      <trkpt lat="46.34821" lon="-1.42089">
        <ele>8.1</ele>
        <time>2020-06-03T08:16:42Z</time>
      </trkpt>
      <trkpt lat="46.34822" lon="-1.42095">
        <ele>8.1</ele>
        <time>2020-06-03T08:16:43Z</time>
      </trkpt>
      <trkpt lat="46.34824" lon="-1.42102">
        <ele>8.1</ele>
        <time>2020-06-03T08:16:44Z</time>
      </trkpt>
      <trkpt lat="46.34824" lon="-1.42108">
        <ele>8.2</ele>
        <time>2020-06-03T08:16:45Z</time>
      </trkpt>
      <trkpt lat="46.34825" lon="-1.42115">
        <ele>8.2</ele>
        <time>2020-06-03T08:16:46Z</time>
      </trkpt>
      <trkpt lat="46.34825" lon="-1.42122">
        <ele>8.1</ele>
        <time>2020-06-03T08:16:47Z</time>
      </trkpt>
      <trkpt lat="46.34825" lon="-1.42129">
        <ele>8.1</ele>
        <time>2020-06-03T08:16:48Z</time>
      </trkpt>
      <trkpt lat="46.34825" lon="-1.42135">
        <ele>8.1</ele>
        <time>2020-06-03T08:16:49Z</time>
      </trkpt>
      <trkpt lat="46.34825" lon="-1.42142">
        <ele>8.1</ele>
        <time>2020-06-03T08:16:50Z</time>
      </trkpt>
      <trkpt lat="46.34825" lon="-1.42148">
        <ele>8.1</ele>
        <time>2020-06-03T08:16:51Z</time>
      </trkpt>
      <trkpt lat="46.34825" lon="-1.42155">
        <ele>8</ele>
        <time>2020-06-03T08:16:52Z</time>
      </trkpt>
      <trkpt lat="46.34825" lon="-1.42162">
        <ele>8</ele>
        <time>2020-06-03T08:16:53Z</time>
      </trkpt>
      <trkpt lat="46.34825" lon="-1.42168">
        <ele>8</ele>
        <time>2020-06-03T08:16:54Z</time>
      </trkpt>
      <trkpt lat="46.34825" lon="-1.42174">
        <ele>7.9</ele>
        <time>2020-06-03T08:16:55Z</time>
      </trkpt>
      <trkpt lat="46.34825" lon="-1.4218">
        <ele>7.9</ele>
        <time>2020-06-03T08:16:56Z</time>
      </trkpt>
      <trkpt lat="46.34826" lon="-1.42186">
        <ele>7.9</ele>
        <time>2020-06-03T08:16:57Z</time>
      </trkpt>
      <trkpt lat="46.34826" lon="-1.42193">
        <ele>7.9</ele>
        <time>2020-06-03T08:16:58Z</time>
      </trkpt>
      <trkpt lat="46.34827" lon="-1.42199">
        <ele>7.8</ele>
        <time>2020-06-03T08:16:59Z</time>
      </trkpt>
      <trkpt lat="46.34829" lon="-1.42205">
        <ele>7.8</ele>
        <time>2020-06-03T08:17:00Z</time>
      </trkpt>
      <trkpt lat="46.34831" lon="-1.42211">
        <ele>7.8</ele>
        <time>2020-06-03T08:17:01Z</time>
      </trkpt>
      <trkpt lat="46.34833" lon="-1.42218">
        <ele>7.7</ele>
        <time>2020-06-03T08:17:02Z</time>
      </trkpt>
      <trkpt lat="46.34834" lon="-1.42225">
        <ele>7.7</ele>
        <time>2020-06-03T08:17:03Z</time>
      </trkpt>
      <trkpt lat="46.34834" lon="-1.42232">
        <ele>7.7</ele>
        <time>2020-06-03T08:17:04Z</time>
      </trkpt>
      <trkpt lat="46.34835" lon="-1.42241">
        <ele>7.6</ele>
        <time>2020-06-03T08:17:05Z</time>
      </trkpt>
      <trkpt lat="46.34835" lon="-1.42248">
        <ele>7.6</ele>
        <time>2020-06-03T08:17:06Z</time>
      </trkpt>
      <trkpt lat="46.34836" lon="-1.42255">
        <ele>7.6</ele>
        <time>2020-06-03T08:17:07Z</time>
      </trkpt>
      <trkpt lat="46.34836" lon="-1.42263">
        <ele>7.5</ele>
        <time>2020-06-03T08:17:08Z</time>
      </trkpt>
      <trkpt lat="46.34837" lon="-1.4227">
        <ele>7.5</ele>
        <time>2020-06-03T08:17:09Z</time>
      </trkpt>
      <trkpt lat="46.34838" lon="-1.42277">
        <ele>7.5</ele>
        <time>2020-06-03T08:17:10Z</time>
      </trkpt>
      <trkpt lat="46.34839" lon="-1.42284">
        <ele>7.4</ele>
        <time>2020-06-03T08:17:11Z</time>
      </trkpt>
      <trkpt lat="46.3484" lon="-1.42291">
        <ele>7.4</ele>
        <time>2020-06-03T08:17:12Z</time>
      </trkpt>
      <trkpt lat="46.34841" lon="-1.42298">
        <ele>7.3</ele>
        <time>2020-06-03T08:17:13Z</time>
      </trkpt>
      <trkpt lat="46.34842" lon="-1.42306">
        <ele>7.2</ele>
        <time>2020-06-03T08:17:14Z</time>
      </trkpt>
      <trkpt lat="46.34842" lon="-1.42313">
        <ele>7.2</ele>
        <time>2020-06-03T08:17:15Z</time>
      </trkpt>
      <trkpt lat="46.34843" lon="-1.4232">
        <ele>7.1</ele>
        <time>2020-06-03T08:17:16Z</time>
      </trkpt>
      <trkpt lat="46.34844" lon="-1.42326">
        <ele>7.1</ele>
        <time>2020-06-03T08:17:17Z</time>
      </trkpt>
      <trkpt lat="46.34844" lon="-1.42333">
        <ele>7</ele>
        <time>2020-06-03T08:17:18Z</time>
      </trkpt>
      <trkpt lat="46.34845" lon="-1.42339">
        <ele>7</ele>
        <time>2020-06-03T08:17:19Z</time>
      </trkpt>
      <trkpt lat="46.34846" lon="-1.42345">
        <ele>7</ele>
        <time>2020-06-03T08:17:20Z</time>
      </trkpt>
      <trkpt lat="46.34846" lon="-1.42352">
        <ele>6.9</ele>
        <time>2020-06-03T08:17:21Z</time>
      </trkpt>
      <trkpt lat="46.34846" lon="-1.42358">
        <ele>6.9</ele>
        <time>2020-06-03T08:17:22Z</time>
      </trkpt>
      <trkpt lat="46.34848" lon="-1.42364">
        <ele>6.9</ele>
        <time>2020-06-03T08:17:23Z</time>
      </trkpt>
      <trkpt lat="46.34848" lon="-1.4237">
        <ele>6.8</ele>
        <time>2020-06-03T08:17:24Z</time>
      </trkpt>
      <trkpt lat="46.34849" lon="-1.42376">
        <ele>6.8</ele>
        <time>2020-06-03T08:17:25Z</time>
      </trkpt>
      <trkpt lat="46.34849" lon="-1.42382">
        <ele>6.8</ele>
        <time>2020-06-03T08:17:26Z</time>
      </trkpt>
      <trkpt lat="46.34851" lon="-1.42389">
        <ele>6.7</ele>
        <time>2020-06-03T08:17:27Z</time>
      </trkpt>
      <trkpt lat="46.34852" lon="-1.42396">
        <ele>6.7</ele>
        <time>2020-06-03T08:17:28Z</time>
      </trkpt>
      <trkpt lat="46.34853" lon="-1.42403">
        <ele>6.6</ele>
        <time>2020-06-03T08:17:29Z</time>
      </trkpt>
      <trkpt lat="46.34854" lon="-1.42411">
        <ele>6.6</ele>
        <time>2020-06-03T08:17:30Z</time>
      </trkpt>
      <trkpt lat="46.34855" lon="-1.42418">
        <ele>6.5</ele>
        <time>2020-06-03T08:17:31Z</time>
      </trkpt>
      <trkpt lat="46.34856" lon="-1.42426">
        <ele>6.4</ele>
        <time>2020-06-03T08:17:32Z</time>
      </trkpt>
      <trkpt lat="46.34857" lon="-1.42433">
        <ele>6.3</ele>
        <time>2020-06-03T08:17:33Z</time>
      </trkpt>
      <trkpt lat="46.34858" lon="-1.42441">
        <ele>6.2</ele>
        <time>2020-06-03T08:17:34Z</time>
      </trkpt>
      <trkpt lat="46.34859" lon="-1.42448">
        <ele>6.1</ele>
        <time>2020-06-03T08:17:35Z</time>
      </trkpt>
      <trkpt lat="46.3486" lon="-1.42455">
        <ele>6</ele>
        <time>2020-06-03T08:17:36Z</time>
      </trkpt>
      <trkpt lat="46.34861" lon="-1.42462">
        <ele>5.9</ele>
        <time>2020-06-03T08:17:37Z</time>
      </trkpt>
      <trkpt lat="46.34861" lon="-1.42469">
        <ele>5.8</ele>
        <time>2020-06-03T08:17:38Z</time>
      </trkpt>
      <trkpt lat="46.34862" lon="-1.42477">
        <ele>5.8</ele>
        <time>2020-06-03T08:17:39Z</time>
      </trkpt>
      <trkpt lat="46.34863" lon="-1.42484">
        <ele>5.7</ele>
        <time>2020-06-03T08:17:40Z</time>
      </trkpt>
      <trkpt lat="46.34864" lon="-1.42489">
        <ele>5.7</ele>
        <time>2020-06-03T08:17:41Z</time>
      </trkpt>
      <trkpt lat="46.34864" lon="-1.42494">
        <ele>5.7</ele>
        <time>2020-06-03T08:17:42Z</time>
      </trkpt>
      <trkpt lat="46.34865" lon="-1.42499">
        <ele>5.6</ele>
        <time>2020-06-03T08:17:43Z</time>
      </trkpt>
      <trkpt lat="46.34865" lon="-1.42504">
        <ele>5.6</ele>
        <time>2020-06-03T08:17:44Z</time>
      </trkpt>
      <trkpt lat="46.34866" lon="-1.42509">
        <ele>5.6</ele>
        <time>2020-06-03T08:17:45Z</time>
      </trkpt>
      <trkpt lat="46.34867" lon="-1.42511">
        <ele>5.6</ele>
        <time>2020-06-03T08:17:46Z</time>
      </trkpt>
      <trkpt lat="46.34868" lon="-1.42511">
        <ele>5.6</ele>
        <time>2020-06-03T08:17:47Z</time>
      </trkpt>
      <trkpt lat="46.34869" lon="-1.42512">
        <ele>5.6</ele>
        <time>2020-06-03T08:17:48Z</time>
      </trkpt>
      <trkpt lat="46.3487" lon="-1.42513">
        <ele>5.6</ele>
        <time>2020-06-03T08:17:49Z</time>
      </trkpt>
      <trkpt lat="46.34871" lon="-1.42513">
        <ele>5.6</ele>
        <time>2020-06-03T08:17:50Z</time>
      </trkpt>
      <trkpt lat="46.34872" lon="-1.42514">
        <ele>5.6</ele>
        <time>2020-06-03T08:17:51Z</time>
      </trkpt>
      <trkpt lat="46.34873" lon="-1.42513">
        <ele>5.5</ele>
        <time>2020-06-03T08:17:52Z</time>
      </trkpt>
      <trkpt lat="46.34874" lon="-1.42512">
        <ele>5.5</ele>
        <time>2020-06-03T08:17:53Z</time>
      </trkpt>
      <trkpt lat="46.34875" lon="-1.42512">
        <ele>5.4</ele>
        <time>2020-06-03T08:17:54Z</time>
      </trkpt>
      <trkpt lat="46.34876" lon="-1.42512">
        <ele>5.4</ele>
        <time>2020-06-03T08:17:55Z</time>
      </trkpt>
      <trkpt lat="46.34877" lon="-1.42511">
        <ele>5.4</ele>
        <time>2020-06-03T08:17:56Z</time>
      </trkpt>
      <trkpt lat="46.34879" lon="-1.4251">
        <ele>5.3</ele>
        <time>2020-06-03T08:17:57Z</time>
      </trkpt>
      <trkpt lat="46.3488" lon="-1.42509">
        <ele>5.3</ele>
        <time>2020-06-03T08:17:58Z</time>
      </trkpt>
      <trkpt lat="46.34882" lon="-1.42508">
        <ele>5.3</ele>
        <time>2020-06-03T08:17:59Z</time>
      </trkpt>
      <trkpt lat="46.34885" lon="-1.42508">
        <ele>5.2</ele>
        <time>2020-06-03T08:18:00Z</time>
      </trkpt>
      <trkpt lat="46.34886" lon="-1.42507">
        <ele>5.2</ele>
        <time>2020-06-03T08:18:01Z</time>
      </trkpt>
      <trkpt lat="46.3489" lon="-1.42507">
        <ele>5.1</ele>
        <time>2020-06-03T08:18:02Z</time>
      </trkpt>
      <trkpt lat="46.34891" lon="-1.42506">
        <ele>5</ele>
        <time>2020-06-03T08:18:03Z</time>
      </trkpt>
      <trkpt lat="46.34894" lon="-1.42505">
        <ele>5</ele>
        <time>2020-06-03T08:18:04Z</time>
      </trkpt>
      <trkpt lat="46.34897" lon="-1.42503">
        <ele>4.9</ele>
        <time>2020-06-03T08:18:05Z</time>
      </trkpt>
      <trkpt lat="46.34898" lon="-1.42503">
        <ele>4.9</ele>
        <time>2020-06-03T08:18:06Z</time>
      </trkpt>
      <trkpt lat="46.349" lon="-1.42502">
        <ele>4.8</ele>
        <time>2020-06-03T08:18:07Z</time>
      </trkpt>
      <trkpt lat="46.34901" lon="-1.42502">
        <ele>4.8</ele>
        <time>2020-06-03T08:18:08Z</time>
      </trkpt>
      <trkpt lat="46.34903" lon="-1.42502">
        <ele>4.7</ele>
        <time>2020-06-03T08:18:09Z</time>
      </trkpt>
      <trkpt lat="46.34904" lon="-1.42502">
        <ele>4.7</ele>
        <time>2020-06-03T08:18:10Z</time>
      </trkpt>
      <trkpt lat="46.34905" lon="-1.42503">
        <ele>4.7</ele>
        <time>2020-06-03T08:18:11Z</time>
      </trkpt>
      <trkpt lat="46.34906" lon="-1.42503">
        <ele>4.6</ele>
        <time>2020-06-03T08:18:12Z</time>
      </trkpt>
      <trkpt lat="46.34907" lon="-1.42502">
        <ele>4.6</ele>
        <time>2020-06-03T08:18:13Z</time>
      </trkpt>
      <trkpt lat="46.34907" lon="-1.42503">
        <ele>4.6</ele>
        <time>2020-06-03T08:18:14Z</time>
      </trkpt>
      <trkpt lat="46.34908" lon="-1.42504">
        <ele>4.6</ele>
        <time>2020-06-03T08:18:15Z</time>
      </trkpt>
      <trkpt lat="46.3491" lon="-1.42508">
        <ele>4.6</ele>
        <time>2020-06-03T08:18:16Z</time>
      </trkpt>
      <trkpt lat="46.34911" lon="-1.4251">
        <ele>4.5</ele>
        <time>2020-06-03T08:18:17Z</time>
      </trkpt>
      <trkpt lat="46.34912" lon="-1.42516">
        <ele>4.5</ele>
        <time>2020-06-03T08:18:18Z</time>
      </trkpt>
      <trkpt lat="46.34913" lon="-1.42523">
        <ele>4.4</ele>
        <time>2020-06-03T08:18:19Z</time>
      </trkpt>
      <trkpt lat="46.34915" lon="-1.42531">
        <ele>4.3</ele>
        <time>2020-06-03T08:18:20Z</time>
      </trkpt>
      <trkpt lat="46.34917" lon="-1.42539">
        <ele>4.2</ele>
        <time>2020-06-03T08:18:21Z</time>
      </trkpt>
      <trkpt lat="46.34919" lon="-1.42546">
        <ele>4.1</ele>
        <time>2020-06-03T08:18:22Z</time>
      </trkpt>
      <trkpt lat="46.34921" lon="-1.42555">
        <ele>4</ele>
        <time>2020-06-03T08:18:23Z</time>
      </trkpt>
      <trkpt lat="46.34923" lon="-1.42562">
        <ele>3.9</ele>
        <time>2020-06-03T08:18:24Z</time>
      </trkpt>
      <trkpt lat="46.34925" lon="-1.42569">
        <ele>3.8</ele>
        <time>2020-06-03T08:18:25Z</time>
      </trkpt>
      <trkpt lat="46.34927" lon="-1.42574">
        <ele>3.7</ele>
        <time>2020-06-03T08:18:26Z</time>
      </trkpt>
      <trkpt lat="46.34929" lon="-1.4258">
        <ele>3.7</ele>
        <time>2020-06-03T08:18:27Z</time>
      </trkpt>
      <trkpt lat="46.34932" lon="-1.42585">
        <ele>3.6</ele>
        <time>2020-06-03T08:18:28Z</time>
      </trkpt>
      <trkpt lat="46.34935" lon="-1.42589">
        <ele>3.6</ele>
        <time>2020-06-03T08:18:29Z</time>
      </trkpt>
      <trkpt lat="46.34939" lon="-1.42591">
        <ele>3.5</ele>
        <time>2020-06-03T08:18:30Z</time>
      </trkpt>
      <trkpt lat="46.34944" lon="-1.42593">
        <ele>3.4</ele>
        <time>2020-06-03T08:18:31Z</time>
      </trkpt>
      <trkpt lat="46.34949" lon="-1.42595">
        <ele>3.3</ele>
        <time>2020-06-03T08:18:32Z</time>
      </trkpt>
      <trkpt lat="46.34955" lon="-1.42596">
        <ele>3.2</ele>
        <time>2020-06-03T08:18:33Z</time>
      </trkpt>
      <trkpt lat="46.34961" lon="-1.42596">
        <ele>3.1</ele>
        <time>2020-06-03T08:18:34Z</time>
      </trkpt>
      <trkpt lat="46.34966" lon="-1.42597">
        <ele>3.1</ele>
        <time>2020-06-03T08:18:35Z</time>
      </trkpt>
      <trkpt lat="46.34973" lon="-1.42597">
        <ele>3</ele>
        <time>2020-06-03T08:18:36Z</time>
      </trkpt>
      <trkpt lat="46.34979" lon="-1.42596">
        <ele>2.9</ele>
        <time>2020-06-03T08:18:37Z</time>
      </trkpt>
      <trkpt lat="46.34984" lon="-1.42594">
        <ele>2.8</ele>
        <time>2020-06-03T08:18:38Z</time>
      </trkpt>
      <trkpt lat="46.34989" lon="-1.42591">
        <ele>2.7</ele>
        <time>2020-06-03T08:18:39Z</time>
      </trkpt>
      <trkpt lat="46.34994" lon="-1.42592">
        <ele>2.7</ele>
        <time>2020-06-03T08:18:40Z</time>
      </trkpt>
      <trkpt lat="46.34999" lon="-1.42595">
        <ele>2.7</ele>
        <time>2020-06-03T08:18:41Z</time>
      </trkpt>
      <trkpt lat="46.35004" lon="-1.42597">
        <ele>2.7</ele>
        <time>2020-06-03T08:18:42Z</time>
      </trkpt>
      <trkpt lat="46.35009" lon="-1.42599">
        <ele>2.7</ele>
        <time>2020-06-03T08:18:43Z</time>
      </trkpt>
      <trkpt lat="46.35014" lon="-1.42602">
        <ele>2.7</ele>
        <time>2020-06-03T08:18:44Z</time>
      </trkpt>
      <trkpt lat="46.35018" lon="-1.42604">
        <ele>2.8</ele>
        <time>2020-06-03T08:18:45Z</time>
      </trkpt>
      <trkpt lat="46.35023" lon="-1.42607">
        <ele>2.8</ele>
        <time>2020-06-03T08:18:46Z</time>
      </trkpt>
      <trkpt lat="46.35027" lon="-1.42611">
        <ele>2.8</ele>
        <time>2020-06-03T08:18:47Z</time>
      </trkpt>
      <trkpt lat="46.35032" lon="-1.42617">
        <ele>2.8</ele>
        <time>2020-06-03T08:18:48Z</time>
      </trkpt>
      <trkpt lat="46.35037" lon="-1.42623">
        <ele>2.8</ele>
        <time>2020-06-03T08:18:49Z</time>
      </trkpt>
      <trkpt lat="46.35042" lon="-1.42628">
        <ele>2.8</ele>
        <time>2020-06-03T08:18:50Z</time>
      </trkpt>
      <trkpt lat="46.35047" lon="-1.42633">
        <ele>2.9</ele>
        <time>2020-06-03T08:18:51Z</time>
      </trkpt>
      <trkpt lat="46.35052" lon="-1.42638">
        <ele>2.9</ele>
        <time>2020-06-03T08:18:52Z</time>
      </trkpt>
      <trkpt lat="46.35056" lon="-1.42643">
        <ele>2.9</ele>
        <time>2020-06-03T08:18:53Z</time>
      </trkpt>
      <trkpt lat="46.3506" lon="-1.42648">
        <ele>2.9</ele>
        <time>2020-06-03T08:18:54Z</time>
      </trkpt>
      <trkpt lat="46.35063" lon="-1.42652">
        <ele>2.9</ele>
        <time>2020-06-03T08:18:55Z</time>
      </trkpt>
      <trkpt lat="46.35066" lon="-1.42657">
        <ele>2.9</ele>
        <time>2020-06-03T08:18:56Z</time>
      </trkpt>
      <trkpt lat="46.35069" lon="-1.42661">
        <ele>2.9</ele>
        <time>2020-06-03T08:18:57Z</time>
      </trkpt>
      <trkpt lat="46.35071" lon="-1.42665">
        <ele>2.9</ele>
        <time>2020-06-03T08:18:58Z</time>
      </trkpt>
      <trkpt lat="46.35074" lon="-1.42669">
        <ele>3</ele>
        <time>2020-06-03T08:18:59Z</time>
      </trkpt>
      <trkpt lat="46.35077" lon="-1.42673">
        <ele>3</ele>
        <time>2020-06-03T08:19:00Z</time>
      </trkpt>
      <trkpt lat="46.3508" lon="-1.42677">
        <ele>3</ele>
        <time>2020-06-03T08:19:01Z</time>
      </trkpt>
      <trkpt lat="46.35083" lon="-1.42683">
        <ele>3</ele>
        <time>2020-06-03T08:19:02Z</time>
      </trkpt>
      <trkpt lat="46.35086" lon="-1.42689">
        <ele>3</ele>
        <time>2020-06-03T08:19:03Z</time>
      </trkpt>
      <trkpt lat="46.35089" lon="-1.42695">
        <ele>3.1</ele>
        <time>2020-06-03T08:19:04Z</time>
      </trkpt>
      <trkpt lat="46.35092" lon="-1.42701">
        <ele>3.1</ele>
        <time>2020-06-03T08:19:05Z</time>
      </trkpt>
      <trkpt lat="46.35095" lon="-1.42706">
        <ele>3.1</ele>
        <time>2020-06-03T08:19:06Z</time>
      </trkpt>
      <trkpt lat="46.35099" lon="-1.42711">
        <ele>3.1</ele>
        <time>2020-06-03T08:19:07Z</time>
      </trkpt>
      <trkpt lat="46.35102" lon="-1.42717">
        <ele>3.1</ele>
        <time>2020-06-03T08:19:08Z</time>
      </trkpt>
      <trkpt lat="46.35106" lon="-1.42723">
        <ele>3.1</ele>
        <time>2020-06-03T08:19:09Z</time>
      </trkpt>
      <trkpt lat="46.35109" lon="-1.42729">
        <ele>3.1</ele>
        <time>2020-06-03T08:19:10Z</time>
      </trkpt>
      <trkpt lat="46.35111" lon="-1.42734">
        <ele>3.2</ele>
        <time>2020-06-03T08:19:11Z</time>
      </trkpt>
      <trkpt lat="46.35115" lon="-1.42741">
        <ele>3.2</ele>
        <time>2020-06-03T08:19:12Z</time>
      </trkpt>
      <trkpt lat="46.35119" lon="-1.42748">
        <ele>3.2</ele>
        <time>2020-06-03T08:19:13Z</time>
      </trkpt>
      <trkpt lat="46.35122" lon="-1.42754">
        <ele>3.2</ele>
        <time>2020-06-03T08:19:14Z</time>
      </trkpt>
      <trkpt lat="46.35126" lon="-1.42761">
        <ele>3.2</ele>
        <time>2020-06-03T08:19:15Z</time>
      </trkpt>
      <trkpt lat="46.35129" lon="-1.42768">
        <ele>3.2</ele>
        <time>2020-06-03T08:19:16Z</time>
      </trkpt>
      <trkpt lat="46.35132" lon="-1.42775">
        <ele>3.3</ele>
        <time>2020-06-03T08:19:17Z</time>
      </trkpt>
      <trkpt lat="46.35135" lon="-1.42782">
        <ele>3.3</ele>
        <time>2020-06-03T08:19:18Z</time>
      </trkpt>
      <trkpt lat="46.35139" lon="-1.42789">
        <ele>3.3</ele>
        <time>2020-06-03T08:19:19Z</time>
      </trkpt>
      <trkpt lat="46.35143" lon="-1.42796">
        <ele>3.3</ele>
        <time>2020-06-03T08:19:20Z</time>
      </trkpt>
      <trkpt lat="46.35146" lon="-1.42802">
        <ele>3.3</ele>
        <time>2020-06-03T08:19:21Z</time>
      </trkpt>
      <trkpt lat="46.35149" lon="-1.42807">
        <ele>3.3</ele>
        <time>2020-06-03T08:19:22Z</time>
      </trkpt>
      <trkpt lat="46.35153" lon="-1.42811">
        <ele>3.3</ele>
        <time>2020-06-03T08:19:23Z</time>
      </trkpt>
      <trkpt lat="46.35157" lon="-1.42816">
        <ele>3.3</ele>
        <time>2020-06-03T08:19:24Z</time>
      </trkpt>
      <trkpt lat="46.35161" lon="-1.4282">
        <ele>3.3</ele>
        <time>2020-06-03T08:19:25Z</time>
      </trkpt>
      <trkpt lat="46.35164" lon="-1.42825">
        <ele>3.3</ele>
        <time>2020-06-03T08:19:26Z</time>
      </trkpt>
      <trkpt lat="46.35167" lon="-1.42829">
        <ele>3.3</ele>
        <time>2020-06-03T08:19:27Z</time>
      </trkpt>
      <trkpt lat="46.35171" lon="-1.42834">
        <ele>3.3</ele>
        <time>2020-06-03T08:19:28Z</time>
      </trkpt>
      <trkpt lat="46.35175" lon="-1.42839">
        <ele>3.2</ele>
        <time>2020-06-03T08:19:29Z</time>
      </trkpt>
      <trkpt lat="46.35179" lon="-1.42843">
        <ele>3.2</ele>
        <time>2020-06-03T08:19:30Z</time>
      </trkpt>
      <trkpt lat="46.35183" lon="-1.42846">
        <ele>3.2</ele>
        <time>2020-06-03T08:19:31Z</time>
      </trkpt>
      <trkpt lat="46.35186" lon="-1.42849">
        <ele>3.2</ele>
        <time>2020-06-03T08:19:32Z</time>
      </trkpt>
      <trkpt lat="46.3519" lon="-1.42852">
        <ele>3.2</ele>
        <time>2020-06-03T08:19:33Z</time>
      </trkpt>
      <trkpt lat="46.35195" lon="-1.42855">
        <ele>3.2</ele>
        <time>2020-06-03T08:19:34Z</time>
      </trkpt>
      <trkpt lat="46.352" lon="-1.42859">
        <ele>3.1</ele>
        <time>2020-06-03T08:19:35Z</time>
      </trkpt>
      <trkpt lat="46.35205" lon="-1.42863">
        <ele>3</ele>
        <time>2020-06-03T08:19:36Z</time>
      </trkpt>
      <trkpt lat="46.3521" lon="-1.42867">
        <ele>2.9</ele>
        <time>2020-06-03T08:19:37Z</time>
      </trkpt>
      <trkpt lat="46.35215" lon="-1.42873">
        <ele>2.8</ele>
        <time>2020-06-03T08:19:38Z</time>
      </trkpt>
      <trkpt lat="46.35219" lon="-1.42879">
        <ele>2.7</ele>
        <time>2020-06-03T08:19:39Z</time>
      </trkpt>
      <trkpt lat="46.35222" lon="-1.42885">
        <ele>2.6</ele>
        <time>2020-06-03T08:19:40Z</time>
      </trkpt>
      <trkpt lat="46.35224" lon="-1.42892">
        <ele>2.6</ele>
        <time>2020-06-03T08:19:41Z</time>
      </trkpt>
      <trkpt lat="46.35225" lon="-1.42899">
        <ele>2.5</ele>
        <time>2020-06-03T08:19:42Z</time>
      </trkpt>
      <trkpt lat="46.35227" lon="-1.42906">
        <ele>2.5</ele>
        <time>2020-06-03T08:19:43Z</time>
      </trkpt>
      <trkpt lat="46.35227" lon="-1.42913">
        <ele>2.5</ele>
        <time>2020-06-03T08:19:44Z</time>
      </trkpt>
      <trkpt lat="46.35227" lon="-1.4292">
        <ele>2.5</ele>
        <time>2020-06-03T08:19:45Z</time>
      </trkpt>
      <trkpt lat="46.35227" lon="-1.42926">
        <ele>2.5</ele>
        <time>2020-06-03T08:19:46Z</time>
      </trkpt>
      <trkpt lat="46.35227" lon="-1.42933">
        <ele>2.6</ele>
        <time>2020-06-03T08:19:47Z</time>
      </trkpt>
      <trkpt lat="46.35228" lon="-1.42938">
        <ele>2.6</ele>
        <time>2020-06-03T08:19:48Z</time>
      </trkpt>
      <trkpt lat="46.35229" lon="-1.42945">
        <ele>2.6</ele>
        <time>2020-06-03T08:19:49Z</time>
      </trkpt>
      <trkpt lat="46.3523" lon="-1.42951">
        <ele>2.7</ele>
        <time>2020-06-03T08:19:50Z</time>
      </trkpt>
      <trkpt lat="46.35231" lon="-1.42957">
        <ele>2.7</ele>
        <time>2020-06-03T08:19:51Z</time>
      </trkpt>
      <trkpt lat="46.35232" lon="-1.42963">
        <ele>2.8</ele>
        <time>2020-06-03T08:19:52Z</time>
      </trkpt>
      <trkpt lat="46.35233" lon="-1.4297">
        <ele>2.8</ele>
        <time>2020-06-03T08:19:53Z</time>
      </trkpt>
      <trkpt lat="46.35235" lon="-1.42977">
        <ele>2.9</ele>
        <time>2020-06-03T08:19:54Z</time>
      </trkpt>
      <trkpt lat="46.35237" lon="-1.42983">
        <ele>2.9</ele>
        <time>2020-06-03T08:19:55Z</time>
      </trkpt>
      <trkpt lat="46.35238" lon="-1.42991">
        <ele>2.9</ele>
        <time>2020-06-03T08:19:56Z</time>
      </trkpt>
      <trkpt lat="46.35238" lon="-1.42998">
        <ele>2.9</ele>
        <time>2020-06-03T08:19:57Z</time>
      </trkpt>
      <trkpt lat="46.35239" lon="-1.43006">
        <ele>2.9</ele>
        <time>2020-06-03T08:19:58Z</time>
      </trkpt>
      <trkpt lat="46.3524" lon="-1.43013">
        <ele>2.9</ele>
        <time>2020-06-03T08:19:59Z</time>
      </trkpt>
      <trkpt lat="46.35241" lon="-1.43021">
        <ele>3</ele>
        <time>2020-06-03T08:20:00Z</time>
      </trkpt>
      <trkpt lat="46.35242" lon="-1.43029">
        <ele>3</ele>
        <time>2020-06-03T08:20:01Z</time>
      </trkpt>
      <trkpt lat="46.35243" lon="-1.43037">
        <ele>3</ele>
        <time>2020-06-03T08:20:02Z</time>
      </trkpt>
      <trkpt lat="46.35244" lon="-1.43044">
        <ele>3</ele>
        <time>2020-06-03T08:20:03Z</time>
      </trkpt>
      <trkpt lat="46.35246" lon="-1.4305">
        <ele>3</ele>
        <time>2020-06-03T08:20:04Z</time>
      </trkpt>
      <trkpt lat="46.35248" lon="-1.43057">
        <ele>3.1</ele>
        <time>2020-06-03T08:20:05Z</time>
      </trkpt>
      <trkpt lat="46.3525" lon="-1.43064">
        <ele>3.1</ele>
        <time>2020-06-03T08:20:06Z</time>
      </trkpt>
      <trkpt lat="46.35252" lon="-1.43069">
        <ele>3.1</ele>
        <time>2020-06-03T08:20:07Z</time>
      </trkpt>
      <trkpt lat="46.35252" lon="-1.43074">
        <ele>3.1</ele>
        <time>2020-06-03T08:20:08Z</time>
      </trkpt>
      <trkpt lat="46.35251" lon="-1.43074">
        <ele>3.1</ele>
        <time>2020-06-03T08:20:09Z</time>
      </trkpt>
      <trkpt lat="46.35251" lon="-1.43073">
        <ele>3.1</ele>
        <time>2020-06-03T08:20:10Z</time>
      </trkpt>
      <trkpt lat="46.35251" lon="-1.43072">
        <ele>3.1</ele>
        <time>2020-06-03T08:20:11Z</time>
      </trkpt>
      <trkpt lat="46.3525" lon="-1.43071">
        <ele>3.1</ele>
        <time>2020-06-03T08:20:12Z</time>
      </trkpt>
      <trkpt lat="46.35247" lon="-1.43073">
        <ele>3.1</ele>
        <time>2020-06-03T08:20:13Z</time>
      </trkpt>
      <trkpt lat="46.35246" lon="-1.43074">
        <ele>3.1</ele>
        <time>2020-06-03T08:20:14Z</time>
      </trkpt>
      <trkpt lat="46.35245" lon="-1.43077">
        <ele>3.1</ele>
        <time>2020-06-03T08:20:15Z</time>
      </trkpt>
      <trkpt lat="46.35244" lon="-1.43081">
        <ele>3.1</ele>
        <time>2020-06-03T08:20:16Z</time>
      </trkpt>
      <trkpt lat="46.35244" lon="-1.43087">
        <ele>3.1</ele>
        <time>2020-06-03T08:20:17Z</time>
      </trkpt>
      <trkpt lat="46.35245" lon="-1.43093">
        <ele>3.1</ele>
        <time>2020-06-03T08:20:18Z</time>
      </trkpt>
      <trkpt lat="46.35247" lon="-1.43099">
        <ele>3.1</ele>
        <time>2020-06-03T08:20:19Z</time>
      </trkpt>
      <trkpt lat="46.35248" lon="-1.43104">
        <ele>3.1</ele>
        <time>2020-06-03T08:20:20Z</time>
      </trkpt>
      <trkpt lat="46.35251" lon="-1.4311">
        <ele>3.1</ele>
        <time>2020-06-03T08:20:21Z</time>
      </trkpt>
      <trkpt lat="46.35254" lon="-1.43117">
        <ele>3.2</ele>
        <time>2020-06-03T08:20:22Z</time>
      </trkpt>
      <trkpt lat="46.35256" lon="-1.43123">
        <ele>3.2</ele>
        <time>2020-06-03T08:20:23Z</time>
      </trkpt>
      <trkpt lat="46.35259" lon="-1.4313">
        <ele>3.3</ele>
        <time>2020-06-03T08:20:24Z</time>
      </trkpt>
      <trkpt lat="46.35259" lon="-1.43137">
        <ele>3.3</ele>
        <time>2020-06-03T08:20:25Z</time>
      </trkpt>
      <trkpt lat="46.3526" lon="-1.43144">
        <ele>3.3</ele>
        <time>2020-06-03T08:20:26Z</time>
      </trkpt>
      <trkpt lat="46.35261" lon="-1.43148">
        <ele>3.3</ele>
        <time>2020-06-03T08:20:27Z</time>
      </trkpt>
      <trkpt lat="46.35264" lon="-1.43153">
        <ele>3.3</ele>
        <time>2020-06-03T08:20:28Z</time>
      </trkpt>
      <trkpt lat="46.35268" lon="-1.43158">
        <ele>3.3</ele>
        <time>2020-06-03T08:20:29Z</time>
      </trkpt>
      <trkpt lat="46.35272" lon="-1.43164">
        <ele>3.3</ele>
        <time>2020-06-03T08:20:30Z</time>
      </trkpt>
      <trkpt lat="46.35276" lon="-1.43171">
        <ele>3.3</ele>
        <time>2020-06-03T08:20:31Z</time>
      </trkpt>
      <trkpt lat="46.35278" lon="-1.43175">
        <ele>3.3</ele>
        <time>2020-06-03T08:20:32Z</time>
      </trkpt>
      <trkpt lat="46.35281" lon="-1.43181">
        <ele>3.4</ele>
        <time>2020-06-03T08:20:33Z</time>
      </trkpt>
      <trkpt lat="46.35284" lon="-1.43187">
        <ele>3.4</ele>
        <time>2020-06-03T08:20:34Z</time>
      </trkpt>
      <trkpt lat="46.35286" lon="-1.43194">
        <ele>3.4</ele>
        <time>2020-06-03T08:20:35Z</time>
      </trkpt>
      <trkpt lat="46.35289" lon="-1.432">
        <ele>3.5</ele>
        <time>2020-06-03T08:20:36Z</time>
      </trkpt>
      <trkpt lat="46.35292" lon="-1.43207">
        <ele>3.5</ele>
        <time>2020-06-03T08:20:37Z</time>
      </trkpt>
      <trkpt lat="46.35295" lon="-1.43214">
        <ele>3.5</ele>
        <time>2020-06-03T08:20:38Z</time>
      </trkpt>
      <trkpt lat="46.35299" lon="-1.43222">
        <ele>3.5</ele>
        <time>2020-06-03T08:20:39Z</time>
      </trkpt>
      <trkpt lat="46.35301" lon="-1.43228">
        <ele>3.6</ele>
        <time>2020-06-03T08:20:40Z</time>
      </trkpt>
      <trkpt lat="46.35304" lon="-1.43234">
        <ele>3.6</ele>
        <time>2020-06-03T08:20:41Z</time>
      </trkpt>
      <trkpt lat="46.35307" lon="-1.43239">
        <ele>3.6</ele>
        <time>2020-06-03T08:20:42Z</time>
      </trkpt>
      <trkpt lat="46.35309" lon="-1.43245">
        <ele>3.6</ele>
        <time>2020-06-03T08:20:43Z</time>
      </trkpt>
      <trkpt lat="46.35312" lon="-1.43251">
        <ele>3.6</ele>
        <time>2020-06-03T08:20:44Z</time>
      </trkpt>
      <trkpt lat="46.35314" lon="-1.43257">
        <ele>3.6</ele>
        <time>2020-06-03T08:20:45Z</time>
      </trkpt>
      <trkpt lat="46.35317" lon="-1.43263">
        <ele>3.6</ele>
        <time>2020-06-03T08:20:46Z</time>
      </trkpt>
      <trkpt lat="46.35319" lon="-1.43269">
        <ele>3.6</ele>
        <time>2020-06-03T08:20:47Z</time>
      </trkpt>
      <trkpt lat="46.35322" lon="-1.43277">
        <ele>3.6</ele>
        <time>2020-06-03T08:20:48Z</time>
      </trkpt>
      <trkpt lat="46.35324" lon="-1.43284">
        <ele>3.6</ele>
        <time>2020-06-03T08:20:49Z</time>
      </trkpt>
      <trkpt lat="46.35327" lon="-1.43292">
        <ele>3.6</ele>
        <time>2020-06-03T08:20:50Z</time>
      </trkpt>
      <trkpt lat="46.3533" lon="-1.43298">
        <ele>3.6</ele>
        <time>2020-06-03T08:20:51Z</time>
      </trkpt>
      <trkpt lat="46.35332" lon="-1.43305">
        <ele>3.6</ele>
        <time>2020-06-03T08:20:52Z</time>
      </trkpt>
      <trkpt lat="46.35335" lon="-1.43312">
        <ele>3.6</ele>
        <time>2020-06-03T08:20:53Z</time>
      </trkpt>
      <trkpt lat="46.35338" lon="-1.4332">
        <ele>3.6</ele>
        <time>2020-06-03T08:20:54Z</time>
      </trkpt>
      <trkpt lat="46.35341" lon="-1.43327">
        <ele>3.7</ele>
        <time>2020-06-03T08:20:55Z</time>
      </trkpt>
      <trkpt lat="46.35344" lon="-1.43333">
        <ele>3.7</ele>
        <time>2020-06-03T08:20:56Z</time>
      </trkpt>
      <trkpt lat="46.35347" lon="-1.43341">
        <ele>3.7</ele>
        <time>2020-06-03T08:20:57Z</time>
      </trkpt>
      <trkpt lat="46.3535" lon="-1.43347">
        <ele>3.7</ele>
        <time>2020-06-03T08:20:58Z</time>
      </trkpt>
      <trkpt lat="46.35353" lon="-1.43355">
        <ele>3.7</ele>
        <time>2020-06-03T08:20:59Z</time>
      </trkpt>
      <trkpt lat="46.35356" lon="-1.43362">
        <ele>3.7</ele>
        <time>2020-06-03T08:21:00Z</time>
      </trkpt>
      <trkpt lat="46.35358" lon="-1.43368">
        <ele>3.6</ele>
        <time>2020-06-03T08:21:01Z</time>
      </trkpt>
      <trkpt lat="46.35362" lon="-1.43375">
        <ele>3.6</ele>
        <time>2020-06-03T08:21:02Z</time>
      </trkpt>
      <trkpt lat="46.35365" lon="-1.43381">
        <ele>3.6</ele>
        <time>2020-06-03T08:21:03Z</time>
      </trkpt>
      <trkpt lat="46.35368" lon="-1.43386">
        <ele>3.6</ele>
        <time>2020-06-03T08:21:04Z</time>
      </trkpt>
      <trkpt lat="46.3537" lon="-1.43393">
        <ele>3.6</ele>
        <time>2020-06-03T08:21:05Z</time>
      </trkpt>
      <trkpt lat="46.35373" lon="-1.434">
        <ele>3.6</ele>
        <time>2020-06-03T08:21:06Z</time>
      </trkpt>
      <trkpt lat="46.35375" lon="-1.43406">
        <ele>3.6</ele>
        <time>2020-06-03T08:21:07Z</time>
      </trkpt>
      <trkpt lat="46.35377" lon="-1.43413">
        <ele>3.6</ele>
        <time>2020-06-03T08:21:08Z</time>
      </trkpt>
      <trkpt lat="46.3538" lon="-1.4342">
        <ele>3.6</ele>
        <time>2020-06-03T08:21:09Z</time>
      </trkpt>
      <trkpt lat="46.35383" lon="-1.43426">
        <ele>3.6</ele>
        <time>2020-06-03T08:21:10Z</time>
      </trkpt>
      <trkpt lat="46.35385" lon="-1.43433">
        <ele>3.6</ele>
        <time>2020-06-03T08:21:11Z</time>
      </trkpt>
      <trkpt lat="46.35388" lon="-1.4344">
        <ele>3.6</ele>
        <time>2020-06-03T08:21:12Z</time>
      </trkpt>
      <trkpt lat="46.35391" lon="-1.43447">
        <ele>3.6</ele>
        <time>2020-06-03T08:21:13Z</time>
      </trkpt>
      <trkpt lat="46.35394" lon="-1.43453">
        <ele>3.6</ele>
        <time>2020-06-03T08:21:14Z</time>
      </trkpt>
      <trkpt lat="46.35396" lon="-1.43459">
        <ele>3.6</ele>
        <time>2020-06-03T08:21:15Z</time>
      </trkpt>
      <trkpt lat="46.35398" lon="-1.43466">
        <ele>3.6</ele>
        <time>2020-06-03T08:21:16Z</time>
      </trkpt>
      <trkpt lat="46.35401" lon="-1.43471">
        <ele>3.6</ele>
        <time>2020-06-03T08:21:17Z</time>
      </trkpt>
      <trkpt lat="46.35404" lon="-1.43477">
        <ele>3.6</ele>
        <time>2020-06-03T08:21:18Z</time>
      </trkpt>
      <trkpt lat="46.35406" lon="-1.43483">
        <ele>3.6</ele>
        <time>2020-06-03T08:21:19Z</time>
      </trkpt>
      <trkpt lat="46.35409" lon="-1.4349">
        <ele>3.6</ele>
        <time>2020-06-03T08:21:20Z</time>
      </trkpt>
      <trkpt lat="46.3541" lon="-1.43496">
        <ele>3.6</ele>
        <time>2020-06-03T08:21:21Z</time>
      </trkpt>
      <trkpt lat="46.35413" lon="-1.43502">
        <ele>3.6</ele>
        <time>2020-06-03T08:21:22Z</time>
      </trkpt>
      <trkpt lat="46.35415" lon="-1.43509">
        <ele>3.6</ele>
        <time>2020-06-03T08:21:23Z</time>
      </trkpt>
      <trkpt lat="46.35416" lon="-1.43515">
        <ele>3.6</ele>
        <time>2020-06-03T08:21:24Z</time>
      </trkpt>
      <trkpt lat="46.35418" lon="-1.43522">
        <ele>3.6</ele>
        <time>2020-06-03T08:21:25Z</time>
      </trkpt>
      <trkpt lat="46.35422" lon="-1.43529">
        <ele>3.6</ele>
        <time>2020-06-03T08:21:26Z</time>
      </trkpt>
      <trkpt lat="46.35425" lon="-1.43536">
        <ele>3.6</ele>
        <time>2020-06-03T08:21:27Z</time>
      </trkpt>
      <trkpt lat="46.35426" lon="-1.43543">
        <ele>3.6</ele>
        <time>2020-06-03T08:21:28Z</time>
      </trkpt>
      <trkpt lat="46.35429" lon="-1.4355">
        <ele>3.6</ele>
        <time>2020-06-03T08:21:29Z</time>
      </trkpt>
      <trkpt lat="46.35431" lon="-1.43557">
        <ele>3.6</ele>
        <time>2020-06-03T08:21:30Z</time>
      </trkpt>
      <trkpt lat="46.35434" lon="-1.43564">
        <ele>3.6</ele>
        <time>2020-06-03T08:21:31Z</time>
      </trkpt>
      <trkpt lat="46.35436" lon="-1.4357">
        <ele>3.6</ele>
        <time>2020-06-03T08:21:32Z</time>
      </trkpt>
      <trkpt lat="46.3544" lon="-1.43577">
        <ele>3.6</ele>
        <time>2020-06-03T08:21:33Z</time>
      </trkpt>
      <trkpt lat="46.35442" lon="-1.43585">
        <ele>3.6</ele>
        <time>2020-06-03T08:21:34Z</time>
      </trkpt>
      <trkpt lat="46.35444" lon="-1.43591">
        <ele>3.6</ele>
        <time>2020-06-03T08:21:35Z</time>
      </trkpt>
      <trkpt lat="46.35446" lon="-1.43599">
        <ele>3.6</ele>
        <time>2020-06-03T08:21:36Z</time>
      </trkpt>
      <trkpt lat="46.35449" lon="-1.43606">
        <ele>3.6</ele>
        <time>2020-06-03T08:21:37Z</time>
      </trkpt>
      <trkpt lat="46.35452" lon="-1.43614">
        <ele>3.6</ele>
        <time>2020-06-03T08:21:38Z</time>
      </trkpt>
      <trkpt lat="46.35455" lon="-1.43621">
        <ele>3.6</ele>
        <time>2020-06-03T08:21:39Z</time>
      </trkpt>
      <trkpt lat="46.35457" lon="-1.43628">
        <ele>3.7</ele>
        <time>2020-06-03T08:21:40Z</time>
      </trkpt>
      <trkpt lat="46.35459" lon="-1.43636">
        <ele>3.7</ele>
        <time>2020-06-03T08:21:41Z</time>
      </trkpt>
      <trkpt lat="46.35462" lon="-1.43643">
        <ele>3.7</ele>
        <time>2020-06-03T08:21:42Z</time>
      </trkpt>
      <trkpt lat="46.35464" lon="-1.4365">
        <ele>3.7</ele>
        <time>2020-06-03T08:21:43Z</time>
      </trkpt>
      <trkpt lat="46.35467" lon="-1.43657">
        <ele>3.7</ele>
        <time>2020-06-03T08:21:44Z</time>
      </trkpt>
      <trkpt lat="46.3547" lon="-1.43664">
        <ele>3.7</ele>
        <time>2020-06-03T08:21:45Z</time>
      </trkpt>
      <trkpt lat="46.35472" lon="-1.43671">
        <ele>3.7</ele>
        <time>2020-06-03T08:21:46Z</time>
      </trkpt>
      <trkpt lat="46.35475" lon="-1.43678">
        <ele>3.7</ele>
        <time>2020-06-03T08:21:47Z</time>
      </trkpt>
      <trkpt lat="46.35478" lon="-1.43686">
        <ele>3.7</ele>
        <time>2020-06-03T08:21:48Z</time>
      </trkpt>
      <trkpt lat="46.35481" lon="-1.43694">
        <ele>3.7</ele>
        <time>2020-06-03T08:21:49Z</time>
      </trkpt>
      <trkpt lat="46.35483" lon="-1.43701">
        <ele>3.7</ele>
        <time>2020-06-03T08:21:50Z</time>
      </trkpt>
      <trkpt lat="46.35486" lon="-1.43708">
        <ele>3.7</ele>
        <time>2020-06-03T08:21:51Z</time>
      </trkpt>
      <trkpt lat="46.35489" lon="-1.43715">
        <ele>3.7</ele>
        <time>2020-06-03T08:21:52Z</time>
      </trkpt>
      <trkpt lat="46.35492" lon="-1.43723">
        <ele>3.7</ele>
        <time>2020-06-03T08:21:53Z</time>
      </trkpt>
      <trkpt lat="46.35494" lon="-1.43729">
        <ele>3.7</ele>
        <time>2020-06-03T08:21:54Z</time>
      </trkpt>
      <trkpt lat="46.35496" lon="-1.43736">
        <ele>3.7</ele>
        <time>2020-06-03T08:21:55Z</time>
      </trkpt>
      <trkpt lat="46.35499" lon="-1.43743">
        <ele>3.7</ele>
        <time>2020-06-03T08:21:56Z</time>
      </trkpt>
      <trkpt lat="46.35501" lon="-1.4375">
        <ele>3.7</ele>
        <time>2020-06-03T08:21:57Z</time>
      </trkpt>
      <trkpt lat="46.35503" lon="-1.43758">
        <ele>3.7</ele>
        <time>2020-06-03T08:21:58Z</time>
      </trkpt>
      <trkpt lat="46.35506" lon="-1.43766">
        <ele>3.7</ele>
        <time>2020-06-03T08:21:59Z</time>
      </trkpt>
      <trkpt lat="46.35509" lon="-1.43773">
        <ele>3.7</ele>
        <time>2020-06-03T08:22:00Z</time>
      </trkpt>
      <trkpt lat="46.35512" lon="-1.4378">
        <ele>3.7</ele>
        <time>2020-06-03T08:22:01Z</time>
      </trkpt>
      <trkpt lat="46.35514" lon="-1.43787">
        <ele>3.7</ele>
        <time>2020-06-03T08:22:02Z</time>
      </trkpt>
      <trkpt lat="46.35517" lon="-1.43794">
        <ele>3.7</ele>
        <time>2020-06-03T08:22:03Z</time>
      </trkpt>
      <trkpt lat="46.3552" lon="-1.43801">
        <ele>3.7</ele>
        <time>2020-06-03T08:22:04Z</time>
      </trkpt>
      <trkpt lat="46.35523" lon="-1.43809">
        <ele>3.7</ele>
        <time>2020-06-03T08:22:05Z</time>
      </trkpt>
      <trkpt lat="46.35525" lon="-1.43815">
        <ele>3.7</ele>
        <time>2020-06-03T08:22:06Z</time>
      </trkpt>
      <trkpt lat="46.35527" lon="-1.43822">
        <ele>3.7</ele>
        <time>2020-06-03T08:22:07Z</time>
      </trkpt>
      <trkpt lat="46.3553" lon="-1.4383">
        <ele>3.7</ele>
        <time>2020-06-03T08:22:08Z</time>
      </trkpt>
      <trkpt lat="46.35532" lon="-1.43837">
        <ele>3.7</ele>
        <time>2020-06-03T08:22:09Z</time>
      </trkpt>
      <trkpt lat="46.35535" lon="-1.43845">
        <ele>3.7</ele>
        <time>2020-06-03T08:22:10Z</time>
      </trkpt>
      <trkpt lat="46.35538" lon="-1.43852">
        <ele>3.7</ele>
        <time>2020-06-03T08:22:11Z</time>
      </trkpt>
      <trkpt lat="46.3554" lon="-1.43859">
        <ele>3.7</ele>
        <time>2020-06-03T08:22:12Z</time>
      </trkpt>
      <trkpt lat="46.35543" lon="-1.43867">
        <ele>3.7</ele>
        <time>2020-06-03T08:22:13Z</time>
      </trkpt>
      <trkpt lat="46.35545" lon="-1.43874">
        <ele>3.7</ele>
        <time>2020-06-03T08:22:14Z</time>
      </trkpt>
      <trkpt lat="46.35548" lon="-1.43882">
        <ele>3.7</ele>
        <time>2020-06-03T08:22:15Z</time>
      </trkpt>
      <trkpt lat="46.35551" lon="-1.43889">
        <ele>3.7</ele>
        <time>2020-06-03T08:22:16Z</time>
      </trkpt>
      <trkpt lat="46.35554" lon="-1.43897">
        <ele>3.7</ele>
        <time>2020-06-03T08:22:17Z</time>
      </trkpt>
      <trkpt lat="46.35556" lon="-1.43905">
        <ele>3.7</ele>
        <time>2020-06-03T08:22:18Z</time>
      </trkpt>
      <trkpt lat="46.35559" lon="-1.43912">
        <ele>3.7</ele>
        <time>2020-06-03T08:22:19Z</time>
      </trkpt>
      <trkpt lat="46.35562" lon="-1.4392">
        <ele>3.7</ele>
        <time>2020-06-03T08:22:20Z</time>
      </trkpt>
      <trkpt lat="46.35565" lon="-1.43928">
        <ele>3.7</ele>
        <time>2020-06-03T08:22:21Z</time>
      </trkpt>
      <trkpt lat="46.35569" lon="-1.43936">
        <ele>3.7</ele>
        <time>2020-06-03T08:22:22Z</time>
      </trkpt>
      <trkpt lat="46.35571" lon="-1.43943">
        <ele>3.7</ele>
        <time>2020-06-03T08:22:23Z</time>
      </trkpt>
      <trkpt lat="46.35574" lon="-1.4395">
        <ele>3.7</ele>
        <time>2020-06-03T08:22:24Z</time>
      </trkpt>
      <trkpt lat="46.35576" lon="-1.43957">
        <ele>3.8</ele>
        <time>2020-06-03T08:22:25Z</time>
      </trkpt>
      <trkpt lat="46.35579" lon="-1.43965">
        <ele>3.8</ele>
        <time>2020-06-03T08:22:26Z</time>
      </trkpt>
      <trkpt lat="46.35581" lon="-1.43972">
        <ele>3.8</ele>
        <time>2020-06-03T08:22:27Z</time>
      </trkpt>
      <trkpt lat="46.35583" lon="-1.43979">
        <ele>3.8</ele>
        <time>2020-06-03T08:22:28Z</time>
      </trkpt>
      <trkpt lat="46.35586" lon="-1.43987">
        <ele>3.8</ele>
        <time>2020-06-03T08:22:29Z</time>
      </trkpt>
      <trkpt lat="46.35589" lon="-1.43994">
        <ele>3.8</ele>
        <time>2020-06-03T08:22:30Z</time>
      </trkpt>
      <trkpt lat="46.35591" lon="-1.44001">
        <ele>3.8</ele>
        <time>2020-06-03T08:22:31Z</time>
      </trkpt>
      <trkpt lat="46.35593" lon="-1.44008">
        <ele>3.8</ele>
        <time>2020-06-03T08:22:32Z</time>
      </trkpt>
      <trkpt lat="46.35595" lon="-1.44016">
        <ele>3.8</ele>
        <time>2020-06-03T08:22:33Z</time>
      </trkpt>
      <trkpt lat="46.35598" lon="-1.44023">
        <ele>3.8</ele>
        <time>2020-06-03T08:22:34Z</time>
      </trkpt>
      <trkpt lat="46.35599" lon="-1.44031">
        <ele>3.8</ele>
        <time>2020-06-03T08:22:35Z</time>
      </trkpt>
      <trkpt lat="46.35602" lon="-1.44039">
        <ele>3.8</ele>
        <time>2020-06-03T08:22:36Z</time>
      </trkpt>
      <trkpt lat="46.35605" lon="-1.44047">
        <ele>3.8</ele>
        <time>2020-06-03T08:22:37Z</time>
      </trkpt>
      <trkpt lat="46.35607" lon="-1.44054">
        <ele>3.8</ele>
        <time>2020-06-03T08:22:38Z</time>
      </trkpt>
      <trkpt lat="46.3561" lon="-1.44062">
        <ele>3.8</ele>
        <time>2020-06-03T08:22:39Z</time>
      </trkpt>
      <trkpt lat="46.35612" lon="-1.44069">
        <ele>3.8</ele>
        <time>2020-06-03T08:22:40Z</time>
      </trkpt>
      <trkpt lat="46.35614" lon="-1.44076">
        <ele>3.8</ele>
        <time>2020-06-03T08:22:41Z</time>
      </trkpt>
      <trkpt lat="46.35617" lon="-1.44084">
        <ele>3.8</ele>
        <time>2020-06-03T08:22:42Z</time>
      </trkpt>
      <trkpt lat="46.3562" lon="-1.44091">
        <ele>3.8</ele>
        <time>2020-06-03T08:22:43Z</time>
      </trkpt>
      <trkpt lat="46.35622" lon="-1.44099">
        <ele>3.9</ele>
        <time>2020-06-03T08:22:44Z</time>
      </trkpt>
      <trkpt lat="46.35625" lon="-1.44106">
        <ele>3.9</ele>
        <time>2020-06-03T08:22:45Z</time>
      </trkpt>
      <trkpt lat="46.35627" lon="-1.44114">
        <ele>3.9</ele>
        <time>2020-06-03T08:22:46Z</time>
      </trkpt>
      <trkpt lat="46.35629" lon="-1.44121">
        <ele>3.9</ele>
        <time>2020-06-03T08:22:47Z</time>
      </trkpt>
      <trkpt lat="46.35632" lon="-1.44128">
        <ele>3.9</ele>
        <time>2020-06-03T08:22:48Z</time>
      </trkpt>
      <trkpt lat="46.35634" lon="-1.44135">
        <ele>3.9</ele>
        <time>2020-06-03T08:22:49Z</time>
      </trkpt>
      <trkpt lat="46.35636" lon="-1.44142">
        <ele>3.9</ele>
        <time>2020-06-03T08:22:50Z</time>
      </trkpt>
      <trkpt lat="46.35639" lon="-1.44149">
        <ele>3.9</ele>
        <time>2020-06-03T08:22:51Z</time>
      </trkpt>
      <trkpt lat="46.35641" lon="-1.44156">
        <ele>3.9</ele>
        <time>2020-06-03T08:22:52Z</time>
      </trkpt>
      <trkpt lat="46.35644" lon="-1.44162">
        <ele>3.9</ele>
        <time>2020-06-03T08:22:53Z</time>
      </trkpt>
      <trkpt lat="46.35646" lon="-1.44169">
        <ele>3.9</ele>
        <time>2020-06-03T08:22:54Z</time>
      </trkpt>
      <trkpt lat="46.35649" lon="-1.44176">
        <ele>3.9</ele>
        <time>2020-06-03T08:22:55Z</time>
      </trkpt>
      <trkpt lat="46.35652" lon="-1.44183">
        <ele>3.9</ele>
        <time>2020-06-03T08:22:56Z</time>
      </trkpt>
      <trkpt lat="46.35654" lon="-1.4419">
        <ele>3.9</ele>
        <time>2020-06-03T08:22:57Z</time>
      </trkpt>
      <trkpt lat="46.35656" lon="-1.44198">
        <ele>3.9</ele>
        <time>2020-06-03T08:22:58Z</time>
      </trkpt>
      <trkpt lat="46.35659" lon="-1.44205">
        <ele>3.9</ele>
        <time>2020-06-03T08:22:59Z</time>
      </trkpt>
      <trkpt lat="46.35662" lon="-1.44211">
        <ele>3.9</ele>
        <time>2020-06-03T08:23:00Z</time>
      </trkpt>
      <trkpt lat="46.35664" lon="-1.44218">
        <ele>3.9</ele>
        <time>2020-06-03T08:23:01Z</time>
      </trkpt>
      <trkpt lat="46.35667" lon="-1.44226">
        <ele>3.9</ele>
        <time>2020-06-03T08:23:02Z</time>
      </trkpt>
      <trkpt lat="46.3567" lon="-1.44233">
        <ele>3.9</ele>
        <time>2020-06-03T08:23:03Z</time>
      </trkpt>
      <trkpt lat="46.35672" lon="-1.44241">
        <ele>3.9</ele>
        <time>2020-06-03T08:23:04Z</time>
      </trkpt>
      <trkpt lat="46.35674" lon="-1.44249">
        <ele>3.9</ele>
        <time>2020-06-03T08:23:05Z</time>
      </trkpt>
      <trkpt lat="46.35676" lon="-1.44256">
        <ele>3.9</ele>
        <time>2020-06-03T08:23:06Z</time>
      </trkpt>
      <trkpt lat="46.35678" lon="-1.44264">
        <ele>3.9</ele>
        <time>2020-06-03T08:23:07Z</time>
      </trkpt>
      <trkpt lat="46.35681" lon="-1.44272">
        <ele>3.9</ele>
        <time>2020-06-03T08:23:08Z</time>
      </trkpt>
      <trkpt lat="46.35684" lon="-1.44279">
        <ele>4</ele>
        <time>2020-06-03T08:23:09Z</time>
      </trkpt>
      <trkpt lat="46.35687" lon="-1.44287">
        <ele>4</ele>
        <time>2020-06-03T08:23:10Z</time>
      </trkpt>
      <trkpt lat="46.3569" lon="-1.44294">
        <ele>4</ele>
        <time>2020-06-03T08:23:11Z</time>
      </trkpt>
      <trkpt lat="46.35693" lon="-1.443">
        <ele>4</ele>
        <time>2020-06-03T08:23:12Z</time>
      </trkpt>
      <trkpt lat="46.35695" lon="-1.44306">
        <ele>3.9</ele>
        <time>2020-06-03T08:23:13Z</time>
      </trkpt>
      <trkpt lat="46.35698" lon="-1.44314">
        <ele>3.9</ele>
        <time>2020-06-03T08:23:14Z</time>
      </trkpt>
      <trkpt lat="46.35701" lon="-1.44321">
        <ele>3.9</ele>
        <time>2020-06-03T08:23:15Z</time>
      </trkpt>
      <trkpt lat="46.35704" lon="-1.44328">
        <ele>3.9</ele>
        <time>2020-06-03T08:23:16Z</time>
      </trkpt>
      <trkpt lat="46.35707" lon="-1.44336">
        <ele>3.9</ele>
        <time>2020-06-03T08:23:17Z</time>
      </trkpt>
      <trkpt lat="46.3571" lon="-1.44343">
        <ele>3.9</ele>
        <time>2020-06-03T08:23:18Z</time>
      </trkpt>
      <trkpt lat="46.35713" lon="-1.44349">
        <ele>3.9</ele>
        <time>2020-06-03T08:23:19Z</time>
      </trkpt>
      <trkpt lat="46.35716" lon="-1.44355">
        <ele>3.9</ele>
        <time>2020-06-03T08:23:20Z</time>
      </trkpt>
      <trkpt lat="46.35719" lon="-1.44361">
        <ele>3.8</ele>
        <time>2020-06-03T08:23:21Z</time>
      </trkpt>
      <trkpt lat="46.35722" lon="-1.44367">
        <ele>3.8</ele>
        <time>2020-06-03T08:23:22Z</time>
      </trkpt>
      <trkpt lat="46.35725" lon="-1.44374">
        <ele>3.8</ele>
        <time>2020-06-03T08:23:23Z</time>
      </trkpt>
      <trkpt lat="46.35728" lon="-1.4438">
        <ele>3.8</ele>
        <time>2020-06-03T08:23:24Z</time>
      </trkpt>
      <trkpt lat="46.35732" lon="-1.44389">
        <ele>3.8</ele>
        <time>2020-06-03T08:23:25Z</time>
      </trkpt>
      <trkpt lat="46.35735" lon="-1.44397">
        <ele>3.8</ele>
        <time>2020-06-03T08:23:26Z</time>
      </trkpt>
      <trkpt lat="46.35739" lon="-1.44403">
        <ele>3.8</ele>
        <time>2020-06-03T08:23:27Z</time>
      </trkpt>
      <trkpt lat="46.35743" lon="-1.4441">
        <ele>3.8</ele>
        <time>2020-06-03T08:23:28Z</time>
      </trkpt>
      <trkpt lat="46.35746" lon="-1.44416">
        <ele>3.8</ele>
        <time>2020-06-03T08:23:29Z</time>
      </trkpt>
      <trkpt lat="46.3575" lon="-1.44422">
        <ele>3.8</ele>
        <time>2020-06-03T08:23:30Z</time>
      </trkpt>
      <trkpt lat="46.35753" lon="-1.44429">
        <ele>3.8</ele>
        <time>2020-06-03T08:23:31Z</time>
      </trkpt>
      <trkpt lat="46.35756" lon="-1.44433">
        <ele>3.8</ele>
        <time>2020-06-03T08:23:32Z</time>
      </trkpt>
      <trkpt lat="46.35759" lon="-1.44438">
        <ele>3.8</ele>
        <time>2020-06-03T08:23:33Z</time>
      </trkpt>
      <trkpt lat="46.35762" lon="-1.44442">
        <ele>3.8</ele>
        <time>2020-06-03T08:23:34Z</time>
      </trkpt>
      <trkpt lat="46.35765" lon="-1.44446">
        <ele>3.7</ele>
        <time>2020-06-03T08:23:35Z</time>
      </trkpt>
      <trkpt lat="46.35768" lon="-1.44452">
        <ele>3.7</ele>
        <time>2020-06-03T08:23:36Z</time>
      </trkpt>
      <trkpt lat="46.35771" lon="-1.44458">
        <ele>3.7</ele>
        <time>2020-06-03T08:23:37Z</time>
      </trkpt>
      <trkpt lat="46.35774" lon="-1.44464">
        <ele>3.6</ele>
        <time>2020-06-03T08:23:38Z</time>
      </trkpt>
      <trkpt lat="46.35777" lon="-1.4447">
        <ele>3.6</ele>
        <time>2020-06-03T08:23:39Z</time>
      </trkpt>
      <trkpt lat="46.35781" lon="-1.44478">
        <ele>3.5</ele>
        <time>2020-06-03T08:23:40Z</time>
      </trkpt>
      <trkpt lat="46.35785" lon="-1.44485">
        <ele>3.5</ele>
        <time>2020-06-03T08:23:41Z</time>
      </trkpt>
      <trkpt lat="46.3579" lon="-1.44491">
        <ele>3.4</ele>
        <time>2020-06-03T08:23:42Z</time>
      </trkpt>
      <trkpt lat="46.35793" lon="-1.44496">
        <ele>3.4</ele>
        <time>2020-06-03T08:23:43Z</time>
      </trkpt>
      <trkpt lat="46.35797" lon="-1.44503">
        <ele>3.3</ele>
        <time>2020-06-03T08:23:44Z</time>
      </trkpt>
      <trkpt lat="46.35801" lon="-1.44509">
        <ele>3.3</ele>
        <time>2020-06-03T08:23:45Z</time>
      </trkpt>
      <trkpt lat="46.35805" lon="-1.44517">
        <ele>3.3</ele>
        <time>2020-06-03T08:23:46Z</time>
      </trkpt>
      <trkpt lat="46.35809" lon="-1.44523">
        <ele>3.3</ele>
        <time>2020-06-03T08:23:47Z</time>
      </trkpt>
      <trkpt lat="46.35812" lon="-1.44529">
        <ele>3.3</ele>
        <time>2020-06-03T08:23:48Z</time>
      </trkpt>
      <trkpt lat="46.35816" lon="-1.44536">
        <ele>3.3</ele>
        <time>2020-06-03T08:23:49Z</time>
      </trkpt>
      <trkpt lat="46.3582" lon="-1.44543">
        <ele>3.3</ele>
        <time>2020-06-03T08:23:50Z</time>
      </trkpt>
      <trkpt lat="46.35824" lon="-1.4455">
        <ele>3.3</ele>
        <time>2020-06-03T08:23:51Z</time>
      </trkpt>
      <trkpt lat="46.35828" lon="-1.44556">
        <ele>3.3</ele>
        <time>2020-06-03T08:23:52Z</time>
      </trkpt>
      <trkpt lat="46.35833" lon="-1.44562">
        <ele>3.3</ele>
        <time>2020-06-03T08:23:53Z</time>
      </trkpt>
      <trkpt lat="46.35838" lon="-1.44568">
        <ele>3.3</ele>
        <time>2020-06-03T08:23:54Z</time>
      </trkpt>
      <trkpt lat="46.35841" lon="-1.44574">
        <ele>3.3</ele>
        <time>2020-06-03T08:23:55Z</time>
      </trkpt>
      <trkpt lat="46.35845" lon="-1.44581">
        <ele>3.3</ele>
        <time>2020-06-03T08:23:56Z</time>
      </trkpt>
      <trkpt lat="46.35849" lon="-1.44587">
        <ele>3.3</ele>
        <time>2020-06-03T08:23:57Z</time>
      </trkpt>
      <trkpt lat="46.35853" lon="-1.44594">
        <ele>3.4</ele>
        <time>2020-06-03T08:23:58Z</time>
      </trkpt>
      <trkpt lat="46.35857" lon="-1.44601">
        <ele>3.4</ele>
        <time>2020-06-03T08:23:59Z</time>
      </trkpt>
      <trkpt lat="46.35862" lon="-1.44608">
        <ele>3.3</ele>
        <time>2020-06-03T08:24:00Z</time>
      </trkpt>
      <trkpt lat="46.35866" lon="-1.44615">
        <ele>3.3</ele>
        <time>2020-06-03T08:24:01Z</time>
      </trkpt>
      <trkpt lat="46.3587" lon="-1.4462">
        <ele>3.3</ele>
        <time>2020-06-03T08:24:02Z</time>
      </trkpt>
      <trkpt lat="46.35873" lon="-1.44626">
        <ele>3.3</ele>
        <time>2020-06-03T08:24:03Z</time>
      </trkpt>
      <trkpt lat="46.35877" lon="-1.44632">
        <ele>3.3</ele>
        <time>2020-06-03T08:24:04Z</time>
      </trkpt>
      <trkpt lat="46.3588" lon="-1.44638">
        <ele>3.3</ele>
        <time>2020-06-03T08:24:05Z</time>
      </trkpt>
      <trkpt lat="46.35884" lon="-1.44644">
        <ele>3.2</ele>
        <time>2020-06-03T08:24:06Z</time>
      </trkpt>
      <trkpt lat="46.35887" lon="-1.44649">
        <ele>3.2</ele>
        <time>2020-06-03T08:24:07Z</time>
      </trkpt>
      <trkpt lat="46.35891" lon="-1.44655">
        <ele>3.2</ele>
        <time>2020-06-03T08:24:08Z</time>
      </trkpt>
      <trkpt lat="46.35894" lon="-1.4466">
        <ele>3.2</ele>
        <time>2020-06-03T08:24:09Z</time>
      </trkpt>
      <trkpt lat="46.35897" lon="-1.44666">
        <ele>3.2</ele>
        <time>2020-06-03T08:24:10Z</time>
      </trkpt>
      <trkpt lat="46.35901" lon="-1.44671">
        <ele>3.1</ele>
        <time>2020-06-03T08:24:11Z</time>
      </trkpt>
      <trkpt lat="46.35905" lon="-1.44677">
        <ele>3.1</ele>
        <time>2020-06-03T08:24:12Z</time>
      </trkpt>
      <trkpt lat="46.35909" lon="-1.44683">
        <ele>3.1</ele>
        <time>2020-06-03T08:24:13Z</time>
      </trkpt>
      <trkpt lat="46.35913" lon="-1.44689">
        <ele>3.1</ele>
        <time>2020-06-03T08:24:14Z</time>
      </trkpt>
      <trkpt lat="46.35916" lon="-1.44695">
        <ele>3.1</ele>
        <time>2020-06-03T08:24:15Z</time>
      </trkpt>
      <trkpt lat="46.3592" lon="-1.44701">
        <ele>3.1</ele>
        <time>2020-06-03T08:24:16Z</time>
      </trkpt>
      <trkpt lat="46.35923" lon="-1.44706">
        <ele>3.1</ele>
        <time>2020-06-03T08:24:17Z</time>
      </trkpt>
      <trkpt lat="46.35927" lon="-1.44712">
        <ele>3.1</ele>
        <time>2020-06-03T08:24:18Z</time>
      </trkpt>
      <trkpt lat="46.3593" lon="-1.44717">
        <ele>3.1</ele>
        <time>2020-06-03T08:24:19Z</time>
      </trkpt>
      <trkpt lat="46.35934" lon="-1.44722">
        <ele>3.1</ele>
        <time>2020-06-03T08:24:20Z</time>
      </trkpt>
      <trkpt lat="46.35937" lon="-1.44728">
        <ele>3.1</ele>
        <time>2020-06-03T08:24:21Z</time>
      </trkpt>
      <trkpt lat="46.3594" lon="-1.44735">
        <ele>3.1</ele>
        <time>2020-06-03T08:24:22Z</time>
      </trkpt>
      <trkpt lat="46.35944" lon="-1.4474">
        <ele>3.1</ele>
        <time>2020-06-03T08:24:23Z</time>
      </trkpt>
      <trkpt lat="46.35947" lon="-1.44746">
        <ele>3.1</ele>
        <time>2020-06-03T08:24:24Z</time>
      </trkpt>
      <trkpt lat="46.3595" lon="-1.44752">
        <ele>3.1</ele>
        <time>2020-06-03T08:24:25Z</time>
      </trkpt>
      <trkpt lat="46.35954" lon="-1.44759">
        <ele>3.1</ele>
        <time>2020-06-03T08:24:26Z</time>
      </trkpt>
      <trkpt lat="46.35957" lon="-1.44765">
        <ele>3.1</ele>
        <time>2020-06-03T08:24:27Z</time>
      </trkpt>
      <trkpt lat="46.35961" lon="-1.44772">
        <ele>3.1</ele>
        <time>2020-06-03T08:24:28Z</time>
      </trkpt>
      <trkpt lat="46.35965" lon="-1.44778">
        <ele>3.1</ele>
        <time>2020-06-03T08:24:29Z</time>
      </trkpt>
      <trkpt lat="46.35968" lon="-1.44785">
        <ele>3.2</ele>
        <time>2020-06-03T08:24:30Z</time>
      </trkpt>
      <trkpt lat="46.35972" lon="-1.44791">
        <ele>3.2</ele>
        <time>2020-06-03T08:24:31Z</time>
      </trkpt>
      <trkpt lat="46.35975" lon="-1.44797">
        <ele>3.2</ele>
        <time>2020-06-03T08:24:32Z</time>
      </trkpt>
      <trkpt lat="46.35979" lon="-1.44803">
        <ele>3.2</ele>
        <time>2020-06-03T08:24:33Z</time>
      </trkpt>
      <trkpt lat="46.35982" lon="-1.44809">
        <ele>3.3</ele>
        <time>2020-06-03T08:24:34Z</time>
      </trkpt>
      <trkpt lat="46.35986" lon="-1.44815">
        <ele>3.3</ele>
        <time>2020-06-03T08:24:35Z</time>
      </trkpt>
      <trkpt lat="46.3599" lon="-1.44821">
        <ele>3.3</ele>
        <time>2020-06-03T08:24:36Z</time>
      </trkpt>
      <trkpt lat="46.35994" lon="-1.44827">
        <ele>3.3</ele>
        <time>2020-06-03T08:24:37Z</time>
      </trkpt>
      <trkpt lat="46.35998" lon="-1.44833">
        <ele>3.4</ele>
        <time>2020-06-03T08:24:38Z</time>
      </trkpt>
      <trkpt lat="46.36002" lon="-1.44839">
        <ele>3.4</ele>
        <time>2020-06-03T08:24:39Z</time>
      </trkpt>
      <trkpt lat="46.36005" lon="-1.44845">
        <ele>3.4</ele>
        <time>2020-06-03T08:24:40Z</time>
      </trkpt>
      <trkpt lat="46.36009" lon="-1.44851">
        <ele>3.4</ele>
        <time>2020-06-03T08:24:41Z</time>
      </trkpt>
      <trkpt lat="46.36012" lon="-1.44858">
        <ele>3.4</ele>
        <time>2020-06-03T08:24:42Z</time>
      </trkpt>
      <trkpt lat="46.36016" lon="-1.44865">
        <ele>3.4</ele>
        <time>2020-06-03T08:24:43Z</time>
      </trkpt>
      <trkpt lat="46.3602" lon="-1.44871">
        <ele>3.4</ele>
        <time>2020-06-03T08:24:44Z</time>
      </trkpt>
      <trkpt lat="46.36024" lon="-1.44878">
        <ele>3.4</ele>
        <time>2020-06-03T08:24:45Z</time>
      </trkpt>
      <trkpt lat="46.36028" lon="-1.44884">
        <ele>3.4</ele>
        <time>2020-06-03T08:24:46Z</time>
      </trkpt>
      <trkpt lat="46.36031" lon="-1.44889">
        <ele>3.4</ele>
        <time>2020-06-03T08:24:47Z</time>
      </trkpt>
      <trkpt lat="46.36035" lon="-1.44895">
        <ele>3.4</ele>
        <time>2020-06-03T08:24:48Z</time>
      </trkpt>
      <trkpt lat="46.36038" lon="-1.449">
        <ele>3.4</ele>
        <time>2020-06-03T08:24:49Z</time>
      </trkpt>
      <trkpt lat="46.36042" lon="-1.44906">
        <ele>3.4</ele>
        <time>2020-06-03T08:24:50Z</time>
      </trkpt>
      <trkpt lat="46.36046" lon="-1.44913">
        <ele>3.4</ele>
        <time>2020-06-03T08:24:51Z</time>
      </trkpt>
      <trkpt lat="46.3605" lon="-1.4492">
        <ele>3.4</ele>
        <time>2020-06-03T08:24:52Z</time>
      </trkpt>
      <trkpt lat="46.36053" lon="-1.44926">
        <ele>3.4</ele>
        <time>2020-06-03T08:24:53Z</time>
      </trkpt>
      <trkpt lat="46.36057" lon="-1.44932">
        <ele>3.4</ele>
        <time>2020-06-03T08:24:54Z</time>
      </trkpt>
      <trkpt lat="46.3606" lon="-1.44939">
        <ele>3.4</ele>
        <time>2020-06-03T08:24:55Z</time>
      </trkpt>
      <trkpt lat="46.36063" lon="-1.44945">
        <ele>3.4</ele>
        <time>2020-06-03T08:24:56Z</time>
      </trkpt>
      <trkpt lat="46.36067" lon="-1.4495">
        <ele>3.4</ele>
        <time>2020-06-03T08:24:57Z</time>
      </trkpt>
      <trkpt lat="46.36071" lon="-1.44956">
        <ele>3.4</ele>
        <time>2020-06-03T08:24:58Z</time>
      </trkpt>
      <trkpt lat="46.36074" lon="-1.44961">
        <ele>3.4</ele>
        <time>2020-06-03T08:24:59Z</time>
      </trkpt>
      <trkpt lat="46.36078" lon="-1.44967">
        <ele>3.5</ele>
        <time>2020-06-03T08:25:00Z</time>
      </trkpt>
      <trkpt lat="46.36082" lon="-1.44973">
        <ele>3.5</ele>
        <time>2020-06-03T08:25:01Z</time>
      </trkpt>
      <trkpt lat="46.36086" lon="-1.44979">
        <ele>3.5</ele>
        <time>2020-06-03T08:25:02Z</time>
      </trkpt>
      <trkpt lat="46.3609" lon="-1.44985">
        <ele>3.5</ele>
        <time>2020-06-03T08:25:03Z</time>
      </trkpt>
      <trkpt lat="46.36094" lon="-1.4499">
        <ele>3.5</ele>
        <time>2020-06-03T08:25:04Z</time>
      </trkpt>
      <trkpt lat="46.36097" lon="-1.44997">
        <ele>3.5</ele>
        <time>2020-06-03T08:25:05Z</time>
      </trkpt>
      <trkpt lat="46.36102" lon="-1.45002">
        <ele>3.5</ele>
        <time>2020-06-03T08:25:06Z</time>
      </trkpt>
      <trkpt lat="46.36106" lon="-1.45009">
        <ele>3.5</ele>
        <time>2020-06-03T08:25:07Z</time>
      </trkpt>
      <trkpt lat="46.3611" lon="-1.45015">
        <ele>3.5</ele>
        <time>2020-06-03T08:25:08Z</time>
      </trkpt>
      <trkpt lat="46.36114" lon="-1.45022">
        <ele>3.5</ele>
        <time>2020-06-03T08:25:09Z</time>
      </trkpt>
      <trkpt lat="46.36117" lon="-1.45029">
        <ele>3.5</ele>
        <time>2020-06-03T08:25:10Z</time>
      </trkpt>
      <trkpt lat="46.36121" lon="-1.45035">
        <ele>3.5</ele>
        <time>2020-06-03T08:25:11Z</time>
      </trkpt>
      <trkpt lat="46.36125" lon="-1.4504">
        <ele>3.5</ele>
        <time>2020-06-03T08:25:12Z</time>
      </trkpt>
      <trkpt lat="46.36128" lon="-1.45047">
        <ele>3.5</ele>
        <time>2020-06-03T08:25:13Z</time>
      </trkpt>
      <trkpt lat="46.36132" lon="-1.45054">
        <ele>3.5</ele>
        <time>2020-06-03T08:25:14Z</time>
      </trkpt>
      <trkpt lat="46.36136" lon="-1.4506">
        <ele>3.5</ele>
        <time>2020-06-03T08:25:15Z</time>
      </trkpt>
      <trkpt lat="46.3614" lon="-1.45066">
        <ele>3.5</ele>
        <time>2020-06-03T08:25:16Z</time>
      </trkpt>
      <trkpt lat="46.36143" lon="-1.45072">
        <ele>3.4</ele>
        <time>2020-06-03T08:25:17Z</time>
      </trkpt>
      <trkpt lat="46.36145" lon="-1.45079">
        <ele>3.4</ele>
        <time>2020-06-03T08:25:18Z</time>
      </trkpt>
      <trkpt lat="46.36149" lon="-1.45085">
        <ele>3.3</ele>
        <time>2020-06-03T08:25:19Z</time>
      </trkpt>
      <trkpt lat="46.36152" lon="-1.4509">
        <ele>3.2</ele>
        <time>2020-06-03T08:25:20Z</time>
      </trkpt>
      <trkpt lat="46.36154" lon="-1.45094">
        <ele>3.1</ele>
        <time>2020-06-03T08:25:21Z</time>
      </trkpt>
      <trkpt lat="46.36157" lon="-1.45098">
        <ele>3</ele>
        <time>2020-06-03T08:25:22Z</time>
      </trkpt>
      <trkpt lat="46.36159" lon="-1.45102">
        <ele>3</ele>
        <time>2020-06-03T08:25:23Z</time>
      </trkpt>
      <trkpt lat="46.3616" lon="-1.45106">
        <ele>2.9</ele>
        <time>2020-06-03T08:25:24Z</time>
      </trkpt>
      <trkpt lat="46.36162" lon="-1.45109">
        <ele>2.9</ele>
        <time>2020-06-03T08:25:25Z</time>
      </trkpt>
      <trkpt lat="46.36163" lon="-1.4511">
        <ele>2.9</ele>
        <time>2020-06-03T08:25:26Z</time>
      </trkpt>
      <trkpt lat="46.36164" lon="-1.45114">
        <ele>2.9</ele>
        <time>2020-06-03T08:25:27Z</time>
      </trkpt>
      <trkpt lat="46.36164" lon="-1.45116">
        <ele>2.8</ele>
        <time>2020-06-03T08:25:28Z</time>
      </trkpt>
      <trkpt lat="46.36165" lon="-1.45121">
        <ele>2.8</ele>
        <time>2020-06-03T08:25:29Z</time>
      </trkpt>
      <trkpt lat="46.36166" lon="-1.45125">
        <ele>2.8</ele>
        <time>2020-06-03T08:25:30Z</time>
      </trkpt>
      <trkpt lat="46.36167" lon="-1.4513">
        <ele>2.8</ele>
        <time>2020-06-03T08:25:31Z</time>
      </trkpt>
      <trkpt lat="46.36168" lon="-1.45135">
        <ele>2.7</ele>
        <time>2020-06-03T08:25:32Z</time>
      </trkpt>
      <trkpt lat="46.36168" lon="-1.45139">
        <ele>2.7</ele>
        <time>2020-06-03T08:25:33Z</time>
      </trkpt>
      <trkpt lat="46.36167" lon="-1.45145">
        <ele>2.7</ele>
        <time>2020-06-03T08:25:34Z</time>
      </trkpt>
      <trkpt lat="46.36166" lon="-1.45147">
        <ele>2.7</ele>
        <time>2020-06-03T08:25:35Z</time>
      </trkpt>
      <trkpt lat="46.36164" lon="-1.45151">
        <ele>2.7</ele>
        <time>2020-06-03T08:25:36Z</time>
      </trkpt>
      <trkpt lat="46.36161" lon="-1.45152">
        <ele>2.7</ele>
        <time>2020-06-03T08:25:37Z</time>
      </trkpt>
      <trkpt lat="46.36159" lon="-1.45155">
        <ele>2.7</ele>
        <time>2020-06-03T08:25:38Z</time>
      </trkpt>
      <trkpt lat="46.36157" lon="-1.45156">
        <ele>2.7</ele>
        <time>2020-06-03T08:25:39Z</time>
      </trkpt>
      <trkpt lat="46.36156" lon="-1.45158">
        <ele>2.7</ele>
        <time>2020-06-03T08:25:40Z</time>
      </trkpt>
      <trkpt lat="46.36155" lon="-1.45159">
        <ele>2.7</ele>
        <time>2020-06-03T08:25:41Z</time>
      </trkpt>
      <trkpt lat="46.36155" lon="-1.45159">
        <ele>2.7</ele>
        <time>2020-06-03T08:25:42Z</time>
      </trkpt>
      <trkpt lat="46.36155" lon="-1.4516">
        <ele>2.7</ele>
        <time>2020-06-03T08:25:43Z</time>
      </trkpt>
      <trkpt lat="46.36154" lon="-1.45159">
        <ele>2.7</ele>
        <time>2020-06-03T08:25:44Z</time>
      </trkpt>
      <trkpt lat="46.36154" lon="-1.45158">
        <ele>2.7</ele>
        <time>2020-06-03T08:25:45Z</time>
      </trkpt>
      <trkpt lat="46.36154" lon="-1.45158">
        <ele>2.7</ele>
        <time>2020-06-03T08:25:46Z</time>
      </trkpt>
      <trkpt lat="46.36153" lon="-1.45159">
        <ele>2.7</ele>
        <time>2020-06-03T08:25:47Z</time>
      </trkpt>
      <trkpt lat="46.36153" lon="-1.45162">
        <ele>2.7</ele>
        <time>2020-06-03T08:25:48Z</time>
      </trkpt>
      <trkpt lat="46.36154" lon="-1.45163">
        <ele>2.7</ele>
        <time>2020-06-03T08:25:49Z</time>
      </trkpt>
      <trkpt lat="46.36154" lon="-1.45164">
        <ele>2.7</ele>
        <time>2020-06-03T08:25:50Z</time>
      </trkpt>
      <trkpt lat="46.36159" lon="-1.45165">
        <ele>2.7</ele>
        <time>2020-06-03T08:25:51Z</time>
      </trkpt>
      <trkpt lat="46.36161" lon="-1.45166">
        <ele>2.7</ele>
        <time>2020-06-03T08:25:52Z</time>
      </trkpt>
      <trkpt lat="46.36166" lon="-1.45166">
        <ele>2.7</ele>
        <time>2020-06-03T08:25:53Z</time>
      </trkpt>
      <trkpt lat="46.36172" lon="-1.45166">
        <ele>2.7</ele>
        <time>2020-06-03T08:25:54Z</time>
      </trkpt>
      <trkpt lat="46.36176" lon="-1.45166">
        <ele>2.7</ele>
        <time>2020-06-03T08:25:55Z</time>
      </trkpt>
      <trkpt lat="46.36181" lon="-1.45168">
        <ele>2.7</ele>
        <time>2020-06-03T08:25:56Z</time>
      </trkpt>
      <trkpt lat="46.36185" lon="-1.45169">
        <ele>2.8</ele>
        <time>2020-06-03T08:25:57Z</time>
      </trkpt>
      <trkpt lat="46.36189" lon="-1.4517">
        <ele>2.8</ele>
        <time>2020-06-03T08:25:58Z</time>
      </trkpt>
      <trkpt lat="46.36193" lon="-1.45172">
        <ele>2.8</ele>
        <time>2020-06-03T08:25:59Z</time>
      </trkpt>
      <trkpt lat="46.36197" lon="-1.45174">
        <ele>2.8</ele>
        <time>2020-06-03T08:26:00Z</time>
      </trkpt>
      <trkpt lat="46.36201" lon="-1.45177">
        <ele>2.8</ele>
        <time>2020-06-03T08:26:01Z</time>
      </trkpt>
      <trkpt lat="46.36205" lon="-1.4518">
        <ele>2.9</ele>
        <time>2020-06-03T08:26:02Z</time>
      </trkpt>
      <trkpt lat="46.36208" lon="-1.45184">
        <ele>2.9</ele>
        <time>2020-06-03T08:26:03Z</time>
      </trkpt>
      <trkpt lat="46.36211" lon="-1.45189">
        <ele>2.9</ele>
        <time>2020-06-03T08:26:04Z</time>
      </trkpt>
      <trkpt lat="46.36213" lon="-1.45193">
        <ele>2.9</ele>
        <time>2020-06-03T08:26:05Z</time>
      </trkpt>
      <trkpt lat="46.36216" lon="-1.45197">
        <ele>2.9</ele>
        <time>2020-06-03T08:26:06Z</time>
      </trkpt>
      <trkpt lat="46.36219" lon="-1.45202">
        <ele>2.9</ele>
        <time>2020-06-03T08:26:07Z</time>
      </trkpt>
      <trkpt lat="46.36222" lon="-1.45207">
        <ele>2.9</ele>
        <time>2020-06-03T08:26:08Z</time>
      </trkpt>
      <trkpt lat="46.36225" lon="-1.45212">
        <ele>2.9</ele>
        <time>2020-06-03T08:26:09Z</time>
      </trkpt>
      <trkpt lat="46.36228" lon="-1.45217">
        <ele>3</ele>
        <time>2020-06-03T08:26:10Z</time>
      </trkpt>
      <trkpt lat="46.36231" lon="-1.45221">
        <ele>3</ele>
        <time>2020-06-03T08:26:11Z</time>
      </trkpt>
      <trkpt lat="46.36235" lon="-1.45228">
        <ele>3</ele>
        <time>2020-06-03T08:26:12Z</time>
      </trkpt>
      <trkpt lat="46.36237" lon="-1.45233">
        <ele>3</ele>
        <time>2020-06-03T08:26:13Z</time>
      </trkpt>
      <trkpt lat="46.3624" lon="-1.45238">
        <ele>3.1</ele>
        <time>2020-06-03T08:26:14Z</time>
      </trkpt>
      <trkpt lat="46.36244" lon="-1.45244">
        <ele>3.1</ele>
        <time>2020-06-03T08:26:15Z</time>
      </trkpt>
      <trkpt lat="46.36247" lon="-1.45249">
        <ele>3.1</ele>
        <time>2020-06-03T08:26:16Z</time>
      </trkpt>
      <trkpt lat="46.36251" lon="-1.45253">
        <ele>3.1</ele>
        <time>2020-06-03T08:26:17Z</time>
      </trkpt>
      <trkpt lat="46.36254" lon="-1.45259">
        <ele>3.2</ele>
        <time>2020-06-03T08:26:18Z</time>
      </trkpt>
      <trkpt lat="46.36257" lon="-1.45264">
        <ele>3.2</ele>
        <time>2020-06-03T08:26:19Z</time>
      </trkpt>
      <trkpt lat="46.3626" lon="-1.45269">
        <ele>3.2</ele>
        <time>2020-06-03T08:26:20Z</time>
      </trkpt>
      <trkpt lat="46.36264" lon="-1.45275">
        <ele>3.3</ele>
        <time>2020-06-03T08:26:21Z</time>
      </trkpt>
      <trkpt lat="46.36267" lon="-1.45281">
        <ele>3.3</ele>
        <time>2020-06-03T08:26:22Z</time>
      </trkpt>
      <trkpt lat="46.36271" lon="-1.45287">
        <ele>3.3</ele>
        <time>2020-06-03T08:26:23Z</time>
      </trkpt>
      <trkpt lat="46.36274" lon="-1.45293">
        <ele>3.3</ele>
        <time>2020-06-03T08:26:24Z</time>
      </trkpt>
      <trkpt lat="46.36277" lon="-1.45298">
        <ele>3.3</ele>
        <time>2020-06-03T08:26:25Z</time>
      </trkpt>
      <trkpt lat="46.36281" lon="-1.45305">
        <ele>3.4</ele>
        <time>2020-06-03T08:26:26Z</time>
      </trkpt>
      <trkpt lat="46.36284" lon="-1.45311">
        <ele>3.4</ele>
        <time>2020-06-03T08:26:27Z</time>
      </trkpt>
      <trkpt lat="46.36288" lon="-1.45316">
        <ele>3.4</ele>
        <time>2020-06-03T08:26:28Z</time>
      </trkpt>
      <trkpt lat="46.36292" lon="-1.45322">
        <ele>3.4</ele>
        <time>2020-06-03T08:26:29Z</time>
      </trkpt>
      <trkpt lat="46.36296" lon="-1.45329">
        <ele>3.4</ele>
        <time>2020-06-03T08:26:30Z</time>
      </trkpt>
      <trkpt lat="46.36298" lon="-1.45335">
        <ele>3.4</ele>
        <time>2020-06-03T08:26:31Z</time>
      </trkpt>
      <trkpt lat="46.36301" lon="-1.45341">
        <ele>3.4</ele>
        <time>2020-06-03T08:26:32Z</time>
      </trkpt>
      <trkpt lat="46.36304" lon="-1.45347">
        <ele>3.4</ele>
        <time>2020-06-03T08:26:33Z</time>
      </trkpt>
      <trkpt lat="46.36309" lon="-1.45353">
        <ele>3.4</ele>
        <time>2020-06-03T08:26:34Z</time>
      </trkpt>
      <trkpt lat="46.36312" lon="-1.45358">
        <ele>3.4</ele>
        <time>2020-06-03T08:26:35Z</time>
      </trkpt>
      <trkpt lat="46.36315" lon="-1.45365">
        <ele>3.5</ele>
        <time>2020-06-03T08:26:36Z</time>
      </trkpt>
      <trkpt lat="46.36319" lon="-1.45371">
        <ele>3.5</ele>
        <time>2020-06-03T08:26:37Z</time>
      </trkpt>
      <trkpt lat="46.36323" lon="-1.45377">
        <ele>3.5</ele>
        <time>2020-06-03T08:26:38Z</time>
      </trkpt>
      <trkpt lat="46.36327" lon="-1.45383">
        <ele>3.5</ele>
        <time>2020-06-03T08:26:39Z</time>
      </trkpt>
      <trkpt lat="46.36331" lon="-1.45388">
        <ele>3.5</ele>
        <time>2020-06-03T08:26:40Z</time>
      </trkpt>
      <trkpt lat="46.36334" lon="-1.45394">
        <ele>3.5</ele>
        <time>2020-06-03T08:26:41Z</time>
      </trkpt>
      <trkpt lat="46.36338" lon="-1.454">
        <ele>3.5</ele>
        <time>2020-06-03T08:26:42Z</time>
      </trkpt>
      <trkpt lat="46.36342" lon="-1.45406">
        <ele>3.5</ele>
        <time>2020-06-03T08:26:43Z</time>
      </trkpt>
      <trkpt lat="46.36345" lon="-1.45412">
        <ele>3.6</ele>
        <time>2020-06-03T08:26:44Z</time>
      </trkpt>
      <trkpt lat="46.36348" lon="-1.45418">
        <ele>3.6</ele>
        <time>2020-06-03T08:26:45Z</time>
      </trkpt>
      <trkpt lat="46.36351" lon="-1.45422">
        <ele>3.6</ele>
        <time>2020-06-03T08:26:46Z</time>
      </trkpt>
      <trkpt lat="46.36355" lon="-1.45428">
        <ele>3.6</ele>
        <time>2020-06-03T08:26:47Z</time>
      </trkpt>
      <trkpt lat="46.36358" lon="-1.45434">
        <ele>3.6</ele>
        <time>2020-06-03T08:26:48Z</time>
      </trkpt>
      <trkpt lat="46.36363" lon="-1.4544">
        <ele>3.6</ele>
        <time>2020-06-03T08:26:49Z</time>
      </trkpt>
      <trkpt lat="46.36366" lon="-1.45445">
        <ele>3.6</ele>
        <time>2020-06-03T08:26:50Z</time>
      </trkpt>
      <trkpt lat="46.3637" lon="-1.45451">
        <ele>3.6</ele>
        <time>2020-06-03T08:26:51Z</time>
      </trkpt>
      <trkpt lat="46.36373" lon="-1.45458">
        <ele>3.7</ele>
        <time>2020-06-03T08:26:52Z</time>
      </trkpt>
      <trkpt lat="46.36377" lon="-1.45464">
        <ele>3.7</ele>
        <time>2020-06-03T08:26:53Z</time>
      </trkpt>
      <trkpt lat="46.3638" lon="-1.4547">
        <ele>3.7</ele>
        <time>2020-06-03T08:26:54Z</time>
      </trkpt>
      <trkpt lat="46.36382" lon="-1.45475">
        <ele>3.7</ele>
        <time>2020-06-03T08:26:55Z</time>
      </trkpt>
      <trkpt lat="46.36386" lon="-1.45482">
        <ele>3.7</ele>
        <time>2020-06-03T08:26:56Z</time>
      </trkpt>
      <trkpt lat="46.36388" lon="-1.45488">
        <ele>3.7</ele>
        <time>2020-06-03T08:26:57Z</time>
      </trkpt>
      <trkpt lat="46.36391" lon="-1.45494">
        <ele>3.7</ele>
        <time>2020-06-03T08:26:58Z</time>
      </trkpt>
      <trkpt lat="46.36395" lon="-1.45501">
        <ele>3.7</ele>
        <time>2020-06-03T08:26:59Z</time>
      </trkpt>
      <trkpt lat="46.36399" lon="-1.45507">
        <ele>3.7</ele>
        <time>2020-06-03T08:27:00Z</time>
      </trkpt>
      <trkpt lat="46.36402" lon="-1.45513">
        <ele>3.7</ele>
        <time>2020-06-03T08:27:01Z</time>
      </trkpt>
      <trkpt lat="46.36406" lon="-1.45519">
        <ele>3.7</ele>
        <time>2020-06-03T08:27:02Z</time>
      </trkpt>
      <trkpt lat="46.3641" lon="-1.45525">
        <ele>3.8</ele>
        <time>2020-06-03T08:27:03Z</time>
      </trkpt>
      <trkpt lat="46.36414" lon="-1.45531">
        <ele>3.8</ele>
        <time>2020-06-03T08:27:04Z</time>
      </trkpt>
      <trkpt lat="46.36417" lon="-1.45537">
        <ele>3.8</ele>
        <time>2020-06-03T08:27:05Z</time>
      </trkpt>
      <trkpt lat="46.36422" lon="-1.45542">
        <ele>3.8</ele>
        <time>2020-06-03T08:27:06Z</time>
      </trkpt>
      <trkpt lat="46.36426" lon="-1.45548">
        <ele>3.8</ele>
        <time>2020-06-03T08:27:07Z</time>
      </trkpt>
      <trkpt lat="46.36429" lon="-1.45553">
        <ele>3.9</ele>
        <time>2020-06-03T08:27:08Z</time>
      </trkpt>
      <trkpt lat="46.36433" lon="-1.45558">
        <ele>3.9</ele>
        <time>2020-06-03T08:27:09Z</time>
      </trkpt>
      <trkpt lat="46.36436" lon="-1.45565">
        <ele>4</ele>
        <time>2020-06-03T08:27:10Z</time>
      </trkpt>
      <trkpt lat="46.36439" lon="-1.45571">
        <ele>4</ele>
        <time>2020-06-03T08:27:11Z</time>
      </trkpt>
      <trkpt lat="46.36443" lon="-1.45576">
        <ele>4</ele>
        <time>2020-06-03T08:27:12Z</time>
      </trkpt>
      <trkpt lat="46.36446" lon="-1.45581">
        <ele>4</ele>
        <time>2020-06-03T08:27:13Z</time>
      </trkpt>
      <trkpt lat="46.3645" lon="-1.45586">
        <ele>4</ele>
        <time>2020-06-03T08:27:14Z</time>
      </trkpt>
      <trkpt lat="46.36453" lon="-1.45591">
        <ele>4.1</ele>
        <time>2020-06-03T08:27:15Z</time>
      </trkpt>
      <trkpt lat="46.36456" lon="-1.45596">
        <ele>4.1</ele>
        <time>2020-06-03T08:27:16Z</time>
      </trkpt>
      <trkpt lat="46.3646" lon="-1.45601">
        <ele>4.1</ele>
        <time>2020-06-03T08:27:17Z</time>
      </trkpt>
      <trkpt lat="46.36464" lon="-1.45606">
        <ele>4.1</ele>
        <time>2020-06-03T08:27:18Z</time>
      </trkpt>
      <trkpt lat="46.36469" lon="-1.45611">
        <ele>4.1</ele>
        <time>2020-06-03T08:27:19Z</time>
      </trkpt>
      <trkpt lat="46.36474" lon="-1.45615">
        <ele>4.1</ele>
        <time>2020-06-03T08:27:20Z</time>
      </trkpt>
      <trkpt lat="46.36478" lon="-1.4562">
        <ele>4.1</ele>
        <time>2020-06-03T08:27:21Z</time>
      </trkpt>
      <trkpt lat="46.36482" lon="-1.45626">
        <ele>4.1</ele>
        <time>2020-06-03T08:27:22Z</time>
      </trkpt>
      <trkpt lat="46.36486" lon="-1.45632">
        <ele>4.2</ele>
        <time>2020-06-03T08:27:23Z</time>
      </trkpt>
      <trkpt lat="46.3649" lon="-1.45638">
        <ele>4.2</ele>
        <time>2020-06-03T08:27:24Z</time>
      </trkpt>
      <trkpt lat="46.36494" lon="-1.45643">
        <ele>4.2</ele>
        <time>2020-06-03T08:27:25Z</time>
      </trkpt>
      <trkpt lat="46.36498" lon="-1.45648">
        <ele>4.2</ele>
        <time>2020-06-03T08:27:26Z</time>
      </trkpt>
      <trkpt lat="46.36502" lon="-1.45652">
        <ele>4.2</ele>
        <time>2020-06-03T08:27:27Z</time>
      </trkpt>
      <trkpt lat="46.36506" lon="-1.45657">
        <ele>4.2</ele>
        <time>2020-06-03T08:27:28Z</time>
      </trkpt>
      <trkpt lat="46.3651" lon="-1.4566">
        <ele>4.2</ele>
        <time>2020-06-03T08:27:29Z</time>
      </trkpt>
      <trkpt lat="46.36514" lon="-1.45665">
        <ele>4.2</ele>
        <time>2020-06-03T08:27:30Z</time>
      </trkpt>
      <trkpt lat="46.36519" lon="-1.45669">
        <ele>4.2</ele>
        <time>2020-06-03T08:27:31Z</time>
      </trkpt>
      <trkpt lat="46.36524" lon="-1.45673">
        <ele>4.2</ele>
        <time>2020-06-03T08:27:32Z</time>
      </trkpt>
      <trkpt lat="46.36529" lon="-1.45678">
        <ele>4.2</ele>
        <time>2020-06-03T08:27:33Z</time>
      </trkpt>
      <trkpt lat="46.36533" lon="-1.45681">
        <ele>4.2</ele>
        <time>2020-06-03T08:27:34Z</time>
      </trkpt>
      <trkpt lat="46.36538" lon="-1.45684">
        <ele>4.2</ele>
        <time>2020-06-03T08:27:35Z</time>
      </trkpt>
      <trkpt lat="46.36542" lon="-1.45688">
        <ele>4.2</ele>
        <time>2020-06-03T08:27:36Z</time>
      </trkpt>
      <trkpt lat="46.36546" lon="-1.45692">
        <ele>4.2</ele>
        <time>2020-06-03T08:27:37Z</time>
      </trkpt>
      <trkpt lat="46.36551" lon="-1.45697">
        <ele>4.2</ele>
        <time>2020-06-03T08:27:38Z</time>
      </trkpt>
      <trkpt lat="46.36555" lon="-1.457">
        <ele>4.2</ele>
        <time>2020-06-03T08:27:39Z</time>
      </trkpt>
      <trkpt lat="46.3656" lon="-1.45705">
        <ele>4.2</ele>
        <time>2020-06-03T08:27:40Z</time>
      </trkpt>
      <trkpt lat="46.36564" lon="-1.4571">
        <ele>4.2</ele>
        <time>2020-06-03T08:27:41Z</time>
      </trkpt>
      <trkpt lat="46.36569" lon="-1.45714">
        <ele>4.2</ele>
        <time>2020-06-03T08:27:42Z</time>
      </trkpt>
      <trkpt lat="46.36573" lon="-1.45718">
        <ele>4.2</ele>
        <time>2020-06-03T08:27:43Z</time>
      </trkpt>
      <trkpt lat="46.36579" lon="-1.45724">
        <ele>4.2</ele>
        <time>2020-06-03T08:27:44Z</time>
      </trkpt>
      <trkpt lat="46.36584" lon="-1.45728">
        <ele>4.3</ele>
        <time>2020-06-03T08:27:45Z</time>
      </trkpt>
      <trkpt lat="46.36589" lon="-1.45732">
        <ele>4.3</ele>
        <time>2020-06-03T08:27:46Z</time>
      </trkpt>
      <trkpt lat="46.36595" lon="-1.45736">
        <ele>4.4</ele>
        <time>2020-06-03T08:27:47Z</time>
      </trkpt>
      <trkpt lat="46.366" lon="-1.4574">
        <ele>4.5</ele>
        <time>2020-06-03T08:27:48Z</time>
      </trkpt>
      <trkpt lat="46.36604" lon="-1.45744">
        <ele>4.6</ele>
        <time>2020-06-03T08:27:49Z</time>
      </trkpt>
      <trkpt lat="46.36608" lon="-1.45747">
        <ele>4.6</ele>
        <time>2020-06-03T08:27:50Z</time>
      </trkpt>
      <trkpt lat="46.36613" lon="-1.4575">
        <ele>4.7</ele>
        <time>2020-06-03T08:27:51Z</time>
      </trkpt>
      <trkpt lat="46.36617" lon="-1.45753">
        <ele>4.8</ele>
        <time>2020-06-03T08:27:52Z</time>
      </trkpt>
      <trkpt lat="46.36621" lon="-1.45756">
        <ele>4.9</ele>
        <time>2020-06-03T08:27:53Z</time>
      </trkpt>
      <trkpt lat="46.36625" lon="-1.45759">
        <ele>4.9</ele>
        <time>2020-06-03T08:27:54Z</time>
      </trkpt>
      <trkpt lat="46.36629" lon="-1.45763">
        <ele>5</ele>
        <time>2020-06-03T08:27:55Z</time>
      </trkpt>
      <trkpt lat="46.36633" lon="-1.45766">
        <ele>5</ele>
        <time>2020-06-03T08:27:56Z</time>
      </trkpt>
      <trkpt lat="46.36638" lon="-1.45769">
        <ele>5.1</ele>
        <time>2020-06-03T08:27:57Z</time>
      </trkpt>
      <trkpt lat="46.36642" lon="-1.45772">
        <ele>5.1</ele>
        <time>2020-06-03T08:27:58Z</time>
      </trkpt>
      <trkpt lat="46.36647" lon="-1.45776">
        <ele>5.1</ele>
        <time>2020-06-03T08:27:59Z</time>
      </trkpt>
      <trkpt lat="46.36652" lon="-1.4578">
        <ele>5.2</ele>
        <time>2020-06-03T08:28:00Z</time>
      </trkpt>
      <trkpt lat="46.36657" lon="-1.45783">
        <ele>5.2</ele>
        <time>2020-06-03T08:28:01Z</time>
      </trkpt>
      <trkpt lat="46.36661" lon="-1.45787">
        <ele>5.2</ele>
        <time>2020-06-03T08:28:02Z</time>
      </trkpt>
      <trkpt lat="46.36665" lon="-1.4579">
        <ele>5.2</ele>
        <time>2020-06-03T08:28:03Z</time>
      </trkpt>
      <trkpt lat="46.3667" lon="-1.45794">
        <ele>5.2</ele>
        <time>2020-06-03T08:28:04Z</time>
      </trkpt>
      <trkpt lat="46.36674" lon="-1.45797">
        <ele>5.2</ele>
        <time>2020-06-03T08:28:05Z</time>
      </trkpt>
      <trkpt lat="46.36679" lon="-1.45801">
        <ele>5.2</ele>
        <time>2020-06-03T08:28:06Z</time>
      </trkpt>
      <trkpt lat="46.36684" lon="-1.45804">
        <ele>5.3</ele>
        <time>2020-06-03T08:28:07Z</time>
      </trkpt>
      <trkpt lat="46.36689" lon="-1.45807">
        <ele>5.3</ele>
        <time>2020-06-03T08:28:08Z</time>
      </trkpt>
      <trkpt lat="46.36694" lon="-1.4581">
        <ele>5.3</ele>
        <time>2020-06-03T08:28:09Z</time>
      </trkpt>
      <trkpt lat="46.36699" lon="-1.45813">
        <ele>5.4</ele>
        <time>2020-06-03T08:28:10Z</time>
      </trkpt>
      <trkpt lat="46.36704" lon="-1.45816">
        <ele>5.5</ele>
        <time>2020-06-03T08:28:11Z</time>
      </trkpt>
      <trkpt lat="46.36709" lon="-1.4582">
        <ele>5.5</ele>
        <time>2020-06-03T08:28:12Z</time>
      </trkpt>
      <trkpt lat="46.36714" lon="-1.45823">
        <ele>5.6</ele>
        <time>2020-06-03T08:28:13Z</time>
      </trkpt>
      <trkpt lat="46.36719" lon="-1.45826">
        <ele>5.6</ele>
        <time>2020-06-03T08:28:14Z</time>
      </trkpt>
      <trkpt lat="46.36724" lon="-1.45829">
        <ele>5.7</ele>
        <time>2020-06-03T08:28:15Z</time>
      </trkpt>
      <trkpt lat="46.36729" lon="-1.45832">
        <ele>5.7</ele>
        <time>2020-06-03T08:28:16Z</time>
      </trkpt>
      <trkpt lat="46.36733" lon="-1.45835">
        <ele>5.7</ele>
        <time>2020-06-03T08:28:17Z</time>
      </trkpt>
      <trkpt lat="46.36738" lon="-1.45838">
        <ele>5.7</ele>
        <time>2020-06-03T08:28:18Z</time>
      </trkpt>
      <trkpt lat="46.36742" lon="-1.45842">
        <ele>5.7</ele>
        <time>2020-06-03T08:28:19Z</time>
      </trkpt>
      <trkpt lat="46.36747" lon="-1.45845">
        <ele>5.8</ele>
        <time>2020-06-03T08:28:20Z</time>
      </trkpt>
      <trkpt lat="46.36752" lon="-1.45848">
        <ele>5.9</ele>
        <time>2020-06-03T08:28:21Z</time>
      </trkpt>
      <trkpt lat="46.36757" lon="-1.4585">
        <ele>6</ele>
        <time>2020-06-03T08:28:22Z</time>
      </trkpt>
      <trkpt lat="46.36762" lon="-1.45853">
        <ele>6</ele>
        <time>2020-06-03T08:28:23Z</time>
      </trkpt>
      <trkpt lat="46.36766" lon="-1.45855">
        <ele>6.1</ele>
        <time>2020-06-03T08:28:24Z</time>
      </trkpt>
      <trkpt lat="46.36772" lon="-1.45858">
        <ele>6.2</ele>
        <time>2020-06-03T08:28:25Z</time>
      </trkpt>
      <trkpt lat="46.36778" lon="-1.45861">
        <ele>6.4</ele>
        <time>2020-06-03T08:28:26Z</time>
      </trkpt>
      <trkpt lat="46.36782" lon="-1.45864">
        <ele>6.5</ele>
        <time>2020-06-03T08:28:27Z</time>
      </trkpt>
      <trkpt lat="46.36787" lon="-1.45867">
        <ele>6.6</ele>
        <time>2020-06-03T08:28:28Z</time>
      </trkpt>
      <trkpt lat="46.36792" lon="-1.4587">
        <ele>6.7</ele>
        <time>2020-06-03T08:28:29Z</time>
      </trkpt>
      <trkpt lat="46.36796" lon="-1.45872">
        <ele>6.8</ele>
        <time>2020-06-03T08:28:30Z</time>
      </trkpt>
      <trkpt lat="46.36801" lon="-1.45875">
        <ele>6.9</ele>
        <time>2020-06-03T08:28:31Z</time>
      </trkpt>
      <trkpt lat="46.36805" lon="-1.45878">
        <ele>6.9</ele>
        <time>2020-06-03T08:28:32Z</time>
      </trkpt>
      <trkpt lat="46.3681" lon="-1.4588">
        <ele>7</ele>
        <time>2020-06-03T08:28:33Z</time>
      </trkpt>
      <trkpt lat="46.36815" lon="-1.45883">
        <ele>7</ele>
        <time>2020-06-03T08:28:34Z</time>
      </trkpt>
      <trkpt lat="46.36819" lon="-1.45885">
        <ele>7.1</ele>
        <time>2020-06-03T08:28:35Z</time>
      </trkpt>
      <trkpt lat="46.36824" lon="-1.45888">
        <ele>7.1</ele>
        <time>2020-06-03T08:28:36Z</time>
      </trkpt>
      <trkpt lat="46.36827" lon="-1.45892">
        <ele>7.1</ele>
        <time>2020-06-03T08:28:37Z</time>
      </trkpt>
      <trkpt lat="46.36832" lon="-1.45894">
        <ele>7.2</ele>
        <time>2020-06-03T08:28:38Z</time>
      </trkpt>
      <trkpt lat="46.36836" lon="-1.45898">
        <ele>7.2</ele>
        <time>2020-06-03T08:28:39Z</time>
      </trkpt>
      <trkpt lat="46.3684" lon="-1.45901">
        <ele>7.2</ele>
        <time>2020-06-03T08:28:40Z</time>
      </trkpt>
      <trkpt lat="46.36845" lon="-1.45904">
        <ele>7.3</ele>
        <time>2020-06-03T08:28:41Z</time>
      </trkpt>
      <trkpt lat="46.3685" lon="-1.45909">
        <ele>7.3</ele>
        <time>2020-06-03T08:28:42Z</time>
      </trkpt>
      <trkpt lat="46.36855" lon="-1.45913">
        <ele>7.4</ele>
        <time>2020-06-03T08:28:43Z</time>
      </trkpt>
      <trkpt lat="46.36861" lon="-1.45917">
        <ele>7.4</ele>
        <time>2020-06-03T08:28:44Z</time>
      </trkpt>
      <trkpt lat="46.36866" lon="-1.45921">
        <ele>7.5</ele>
        <time>2020-06-03T08:28:45Z</time>
      </trkpt>
      <trkpt lat="46.36871" lon="-1.45925">
        <ele>7.6</ele>
        <time>2020-06-03T08:28:46Z</time>
      </trkpt>
      <trkpt lat="46.36875" lon="-1.45931">
        <ele>7.7</ele>
        <time>2020-06-03T08:28:47Z</time>
      </trkpt>
      <trkpt lat="46.36879" lon="-1.45936">
        <ele>7.8</ele>
        <time>2020-06-03T08:28:48Z</time>
      </trkpt>
      <trkpt lat="46.36883" lon="-1.45941">
        <ele>7.9</ele>
        <time>2020-06-03T08:28:49Z</time>
      </trkpt>
      <trkpt lat="46.36888" lon="-1.45946">
        <ele>8.1</ele>
        <time>2020-06-03T08:28:50Z</time>
      </trkpt>
      <trkpt lat="46.36892" lon="-1.4595">
        <ele>8.2</ele>
        <time>2020-06-03T08:28:51Z</time>
      </trkpt>
      <trkpt lat="46.36895" lon="-1.45954">
        <ele>8.4</ele>
        <time>2020-06-03T08:28:52Z</time>
      </trkpt>
      <trkpt lat="46.369" lon="-1.45958">
        <ele>8.5</ele>
        <time>2020-06-03T08:28:53Z</time>
      </trkpt>
      <trkpt lat="46.36904" lon="-1.45961">
        <ele>8.7</ele>
        <time>2020-06-03T08:28:54Z</time>
      </trkpt>
      <trkpt lat="46.36908" lon="-1.45964">
        <ele>8.9</ele>
        <time>2020-06-03T08:28:55Z</time>
      </trkpt>
      <trkpt lat="46.36911" lon="-1.45967">
        <ele>9.1</ele>
        <time>2020-06-03T08:28:56Z</time>
      </trkpt>
      <trkpt lat="46.36916" lon="-1.4597">
        <ele>9.3</ele>
        <time>2020-06-03T08:28:57Z</time>
      </trkpt>
      <trkpt lat="46.3692" lon="-1.45973">
        <ele>9.4</ele>
        <time>2020-06-03T08:28:58Z</time>
      </trkpt>
      <trkpt lat="46.36924" lon="-1.45975">
        <ele>9.6</ele>
        <time>2020-06-03T08:28:59Z</time>
      </trkpt>
      <trkpt lat="46.36927" lon="-1.45977">
        <ele>9.7</ele>
        <time>2020-06-03T08:29:00Z</time>
      </trkpt>
      <trkpt lat="46.36931" lon="-1.4598">
        <ele>9.9</ele>
        <time>2020-06-03T08:29:01Z</time>
      </trkpt>
      <trkpt lat="46.36935" lon="-1.45982">
        <ele>10</ele>
        <time>2020-06-03T08:29:02Z</time>
      </trkpt>
      <trkpt lat="46.36939" lon="-1.45984">
        <ele>10.1</ele>
        <time>2020-06-03T08:29:03Z</time>
      </trkpt>
      <trkpt lat="46.36942" lon="-1.45985">
        <ele>10.2</ele>
        <time>2020-06-03T08:29:04Z</time>
      </trkpt>
      <trkpt lat="46.36946" lon="-1.45985">
        <ele>10.3</ele>
        <time>2020-06-03T08:29:05Z</time>
      </trkpt>
      <trkpt lat="46.3695" lon="-1.45985">
        <ele>10.5</ele>
        <time>2020-06-03T08:29:06Z</time>
      </trkpt>
      <trkpt lat="46.36955" lon="-1.45986">
        <ele>10.6</ele>
        <time>2020-06-03T08:29:07Z</time>
      </trkpt>
      <trkpt lat="46.36959" lon="-1.45987">
        <ele>10.7</ele>
        <time>2020-06-03T08:29:08Z</time>
      </trkpt>
      <trkpt lat="46.36963" lon="-1.45988">
        <ele>10.8</ele>
        <time>2020-06-03T08:29:09Z</time>
      </trkpt>
      <trkpt lat="46.36969" lon="-1.45988">
        <ele>10.8</ele>
        <time>2020-06-03T08:29:10Z</time>
      </trkpt>
      <trkpt lat="46.36973" lon="-1.4599">
        <ele>10.9</ele>
        <time>2020-06-03T08:29:11Z</time>
      </trkpt>
      <trkpt lat="46.36978" lon="-1.45991">
        <ele>11</ele>
        <time>2020-06-03T08:29:12Z</time>
      </trkpt>
      <trkpt lat="46.36982" lon="-1.45994">
        <ele>11</ele>
        <time>2020-06-03T08:29:13Z</time>
      </trkpt>
      <trkpt lat="46.36987" lon="-1.45996">
        <ele>11.1</ele>
        <time>2020-06-03T08:29:14Z</time>
      </trkpt>
      <trkpt lat="46.36992" lon="-1.45998">
        <ele>11.1</ele>
        <time>2020-06-03T08:29:15Z</time>
      </trkpt>
      <trkpt lat="46.36997" lon="-1.46001">
        <ele>11.2</ele>
        <time>2020-06-03T08:29:16Z</time>
      </trkpt>
      <trkpt lat="46.37003" lon="-1.46003">
        <ele>11.2</ele>
        <time>2020-06-03T08:29:17Z</time>
      </trkpt>
      <trkpt lat="46.37008" lon="-1.46007">
        <ele>11.2</ele>
        <time>2020-06-03T08:29:18Z</time>
      </trkpt>
      <trkpt lat="46.37013" lon="-1.4601">
        <ele>11.3</ele>
        <time>2020-06-03T08:29:19Z</time>
      </trkpt>
      <trkpt lat="46.37018" lon="-1.46012">
        <ele>11.3</ele>
        <time>2020-06-03T08:29:20Z</time>
      </trkpt>
      <trkpt lat="46.37023" lon="-1.46015">
        <ele>11.3</ele>
        <time>2020-06-03T08:29:21Z</time>
      </trkpt>
      <trkpt lat="46.37028" lon="-1.46017">
        <ele>11.3</ele>
        <time>2020-06-03T08:29:22Z</time>
      </trkpt>
      <trkpt lat="46.37033" lon="-1.4602">
        <ele>11.4</ele>
        <time>2020-06-03T08:29:23Z</time>
      </trkpt>
      <trkpt lat="46.37038" lon="-1.46023">
        <ele>11.4</ele>
        <time>2020-06-03T08:29:24Z</time>
      </trkpt>
      <trkpt lat="46.37043" lon="-1.46026">
        <ele>11.4</ele>
        <time>2020-06-03T08:29:25Z</time>
      </trkpt>
      <trkpt lat="46.37048" lon="-1.46028">
        <ele>11.4</ele>
        <time>2020-06-03T08:29:26Z</time>
      </trkpt>
      <trkpt lat="46.37054" lon="-1.46031">
        <ele>11.4</ele>
        <time>2020-06-03T08:29:27Z</time>
      </trkpt>
      <trkpt lat="46.37058" lon="-1.46034">
        <ele>11.4</ele>
        <time>2020-06-03T08:29:28Z</time>
      </trkpt>
      <trkpt lat="46.37063" lon="-1.46038">
        <ele>11.4</ele>
        <time>2020-06-03T08:29:29Z</time>
      </trkpt>
      <trkpt lat="46.37068" lon="-1.46041">
        <ele>11.4</ele>
        <time>2020-06-03T08:29:30Z</time>
      </trkpt>
      <trkpt lat="46.37073" lon="-1.46045">
        <ele>11.4</ele>
        <time>2020-06-03T08:29:31Z</time>
      </trkpt>
      <trkpt lat="46.37079" lon="-1.46047">
        <ele>11.5</ele>
        <time>2020-06-03T08:29:32Z</time>
      </trkpt>
      <trkpt lat="46.37084" lon="-1.4605">
        <ele>11.5</ele>
        <time>2020-06-03T08:29:33Z</time>
      </trkpt>
      <trkpt lat="46.3709" lon="-1.46054">
        <ele>11.5</ele>
        <time>2020-06-03T08:29:34Z</time>
      </trkpt>
      <trkpt lat="46.37096" lon="-1.46057">
        <ele>11.5</ele>
        <time>2020-06-03T08:29:35Z</time>
      </trkpt>
      <trkpt lat="46.37101" lon="-1.46061">
        <ele>11.5</ele>
        <time>2020-06-03T08:29:36Z</time>
      </trkpt>
      <trkpt lat="46.37107" lon="-1.46064">
        <ele>11.5</ele>
        <time>2020-06-03T08:29:37Z</time>
      </trkpt>
      <trkpt lat="46.37112" lon="-1.46067">
        <ele>11.5</ele>
        <time>2020-06-03T08:29:38Z</time>
      </trkpt>
      <trkpt lat="46.37116" lon="-1.46071">
        <ele>11.5</ele>
        <time>2020-06-03T08:29:39Z</time>
      </trkpt>
      <trkpt lat="46.37121" lon="-1.46074">
        <ele>11.5</ele>
        <time>2020-06-03T08:29:40Z</time>
      </trkpt>
      <trkpt lat="46.37126" lon="-1.46077">
        <ele>11.4</ele>
        <time>2020-06-03T08:29:41Z</time>
      </trkpt>
      <trkpt lat="46.37131" lon="-1.4608">
        <ele>11.4</ele>
        <time>2020-06-03T08:29:42Z</time>
      </trkpt>
      <trkpt lat="46.37137" lon="-1.46083">
        <ele>11.4</ele>
        <time>2020-06-03T08:29:43Z</time>
      </trkpt>
      <trkpt lat="46.37142" lon="-1.46085">
        <ele>11.3</ele>
        <time>2020-06-03T08:29:44Z</time>
      </trkpt>
      <trkpt lat="46.37146" lon="-1.46091">
        <ele>11.3</ele>
        <time>2020-06-03T08:29:45Z</time>
      </trkpt>
      <trkpt lat="46.3715" lon="-1.46096">
        <ele>11.2</ele>
        <time>2020-06-03T08:29:46Z</time>
      </trkpt>
      <trkpt lat="46.37153" lon="-1.46101">
        <ele>11.2</ele>
        <time>2020-06-03T08:29:47Z</time>
      </trkpt>
      <trkpt lat="46.37157" lon="-1.46104">
        <ele>11.1</ele>
        <time>2020-06-03T08:29:48Z</time>
      </trkpt>
      <trkpt lat="46.3716" lon="-1.46108">
        <ele>11</ele>
        <time>2020-06-03T08:29:49Z</time>
      </trkpt>
      <trkpt lat="46.37165" lon="-1.46111">
        <ele>10.9</ele>
        <time>2020-06-03T08:29:50Z</time>
      </trkpt>
      <trkpt lat="46.37168" lon="-1.46114">
        <ele>10.8</ele>
        <time>2020-06-03T08:29:51Z</time>
      </trkpt>
      <trkpt lat="46.37171" lon="-1.46118">
        <ele>10.7</ele>
        <time>2020-06-03T08:29:52Z</time>
      </trkpt>
      <trkpt lat="46.37175" lon="-1.46122">
        <ele>10.5</ele>
        <time>2020-06-03T08:29:53Z</time>
      </trkpt>
      <trkpt lat="46.3718" lon="-1.46125">
        <ele>10.2</ele>
        <time>2020-06-03T08:29:54Z</time>
      </trkpt>
      <trkpt lat="46.37184" lon="-1.46129">
        <ele>10</ele>
        <time>2020-06-03T08:29:55Z</time>
      </trkpt>
      <trkpt lat="46.37189" lon="-1.46134">
        <ele>9.8</ele>
        <time>2020-06-03T08:29:56Z</time>
      </trkpt>
      <trkpt lat="46.37195" lon="-1.46139">
        <ele>9.5</ele>
        <time>2020-06-03T08:29:57Z</time>
      </trkpt>
      <trkpt lat="46.372" lon="-1.46145">
        <ele>9.3</ele>
        <time>2020-06-03T08:29:58Z</time>
      </trkpt>
      <trkpt lat="46.37206" lon="-1.4615">
        <ele>9</ele>
        <time>2020-06-03T08:29:59Z</time>
      </trkpt>
      <trkpt lat="46.37212" lon="-1.46158">
        <ele>8.7</ele>
        <time>2020-06-03T08:30:00Z</time>
      </trkpt>
      <trkpt lat="46.37217" lon="-1.46166">
        <ele>8.5</ele>
        <time>2020-06-03T08:30:01Z</time>
      </trkpt>
      <trkpt lat="46.37223" lon="-1.46174">
        <ele>8.3</ele>
        <time>2020-06-03T08:30:02Z</time>
      </trkpt>
      <trkpt lat="46.3723" lon="-1.46178">
        <ele>8.2</ele>
        <time>2020-06-03T08:30:03Z</time>
      </trkpt>
      <trkpt lat="46.37236" lon="-1.46183">
        <ele>8.2</ele>
        <time>2020-06-03T08:30:04Z</time>
      </trkpt>
      <trkpt lat="46.37242" lon="-1.46189">
        <ele>8.2</ele>
        <time>2020-06-03T08:30:05Z</time>
      </trkpt>
      <trkpt lat="46.37247" lon="-1.46194">
        <ele>8.3</ele>
        <time>2020-06-03T08:30:06Z</time>
      </trkpt>
      <trkpt lat="46.37254" lon="-1.46199">
        <ele>8.3</ele>
        <time>2020-06-03T08:30:07Z</time>
      </trkpt>
      <trkpt lat="46.3726" lon="-1.46203">
        <ele>8.4</ele>
        <time>2020-06-03T08:30:08Z</time>
      </trkpt>
      <trkpt lat="46.37267" lon="-1.46208">
        <ele>8.5</ele>
        <time>2020-06-03T08:30:09Z</time>
      </trkpt>
      <trkpt lat="46.37274" lon="-1.46214">
        <ele>8.5</ele>
        <time>2020-06-03T08:30:10Z</time>
      </trkpt>
      <trkpt lat="46.3728" lon="-1.46219">
        <ele>8.6</ele>
        <time>2020-06-03T08:30:11Z</time>
      </trkpt>
      <trkpt lat="46.37286" lon="-1.46224">
        <ele>8.7</ele>
        <time>2020-06-03T08:30:12Z</time>
      </trkpt>
      <trkpt lat="46.37291" lon="-1.46228">
        <ele>8.7</ele>
        <time>2020-06-03T08:30:13Z</time>
      </trkpt>
      <trkpt lat="46.37297" lon="-1.46231">
        <ele>8.8</ele>
        <time>2020-06-03T08:30:14Z</time>
      </trkpt>
      <trkpt lat="46.37304" lon="-1.46233">
        <ele>8.9</ele>
        <time>2020-06-03T08:30:15Z</time>
      </trkpt>
      <trkpt lat="46.3731" lon="-1.46236">
        <ele>9</ele>
        <time>2020-06-03T08:30:16Z</time>
      </trkpt>
      <trkpt lat="46.37316" lon="-1.46238">
        <ele>9.1</ele>
        <time>2020-06-03T08:30:17Z</time>
      </trkpt>
      <trkpt lat="46.37322" lon="-1.46239">
        <ele>9.2</ele>
        <time>2020-06-03T08:30:18Z</time>
      </trkpt>
      <trkpt lat="46.37327" lon="-1.4624">
        <ele>9.3</ele>
        <time>2020-06-03T08:30:19Z</time>
      </trkpt>
      <trkpt lat="46.37332" lon="-1.46241">
        <ele>9.4</ele>
        <time>2020-06-03T08:30:20Z</time>
      </trkpt>
      <trkpt lat="46.37335" lon="-1.46242">
        <ele>9.4</ele>
        <time>2020-06-03T08:30:21Z</time>
      </trkpt>
      <trkpt lat="46.37338" lon="-1.46245">
        <ele>9.5</ele>
        <time>2020-06-03T08:30:22Z</time>
      </trkpt>
      <trkpt lat="46.3734" lon="-1.4625">
        <ele>9.4</ele>
        <time>2020-06-03T08:30:23Z</time>
      </trkpt>
      <trkpt lat="46.37341" lon="-1.46259">
        <ele>9.3</ele>
        <time>2020-06-03T08:30:24Z</time>
      </trkpt>
      <trkpt lat="46.37341" lon="-1.46266">
        <ele>9.3</ele>
        <time>2020-06-03T08:30:25Z</time>
      </trkpt>
      <trkpt lat="46.37342" lon="-1.46274">
        <ele>9.2</ele>
        <time>2020-06-03T08:30:26Z</time>
      </trkpt>
      <trkpt lat="46.37342" lon="-1.46281">
        <ele>9.1</ele>
        <time>2020-06-03T08:30:27Z</time>
      </trkpt>
      <trkpt lat="46.37342" lon="-1.46289">
        <ele>9.1</ele>
        <time>2020-06-03T08:30:28Z</time>
      </trkpt>
      <trkpt lat="46.37343" lon="-1.46297">
        <ele>9</ele>
        <time>2020-06-03T08:30:29Z</time>
      </trkpt>
      <trkpt lat="46.37342" lon="-1.46305">
        <ele>9</ele>
        <time>2020-06-03T08:30:30Z</time>
      </trkpt>
      <trkpt lat="46.37343" lon="-1.46314">
        <ele>8.9</ele>
        <time>2020-06-03T08:30:31Z</time>
      </trkpt>
      <trkpt lat="46.37343" lon="-1.46322">
        <ele>8.9</ele>
        <time>2020-06-03T08:30:32Z</time>
      </trkpt>
      <trkpt lat="46.37345" lon="-1.46329">
        <ele>8.9</ele>
        <time>2020-06-03T08:30:33Z</time>
      </trkpt>
      <trkpt lat="46.37346" lon="-1.46337">
        <ele>8.8</ele>
        <time>2020-06-03T08:30:34Z</time>
      </trkpt>
      <trkpt lat="46.37348" lon="-1.46345">
        <ele>8.8</ele>
        <time>2020-06-03T08:30:35Z</time>
      </trkpt>
      <trkpt lat="46.37349" lon="-1.46353">
        <ele>8.7</ele>
        <time>2020-06-03T08:30:36Z</time>
      </trkpt>
      <trkpt lat="46.3735" lon="-1.4636">
        <ele>8.7</ele>
        <time>2020-06-03T08:30:37Z</time>
      </trkpt>
      <trkpt lat="46.3735" lon="-1.46366">
        <ele>8.7</ele>
        <time>2020-06-03T08:30:38Z</time>
      </trkpt>
      <trkpt lat="46.37351" lon="-1.46374">
        <ele>8.7</ele>
        <time>2020-06-03T08:30:39Z</time>
      </trkpt>
      <trkpt lat="46.37352" lon="-1.4638">
        <ele>8.7</ele>
        <time>2020-06-03T08:30:40Z</time>
      </trkpt>
      <trkpt lat="46.37354" lon="-1.46388">
        <ele>8.7</ele>
        <time>2020-06-03T08:30:41Z</time>
      </trkpt>
      <trkpt lat="46.37356" lon="-1.46394">
        <ele>8.7</ele>
        <time>2020-06-03T08:30:42Z</time>
      </trkpt>
      <trkpt lat="46.37358" lon="-1.46399">
        <ele>8.7</ele>
        <time>2020-06-03T08:30:43Z</time>
      </trkpt>
      <trkpt lat="46.3736" lon="-1.46405">
        <ele>8.6</ele>
        <time>2020-06-03T08:30:44Z</time>
      </trkpt>
      <trkpt lat="46.37363" lon="-1.4641">
        <ele>8.6</ele>
        <time>2020-06-03T08:30:45Z</time>
      </trkpt>
      <trkpt lat="46.37365" lon="-1.46415">
        <ele>8.6</ele>
        <time>2020-06-03T08:30:46Z</time>
      </trkpt>
      <trkpt lat="46.37367" lon="-1.46419">
        <ele>8.6</ele>
        <time>2020-06-03T08:30:47Z</time>
      </trkpt>
      <trkpt lat="46.37369" lon="-1.46425">
        <ele>8.6</ele>
        <time>2020-06-03T08:30:48Z</time>
      </trkpt>
      <trkpt lat="46.37369" lon="-1.46428">
        <ele>8.6</ele>
        <time>2020-06-03T08:30:49Z</time>
      </trkpt>
      <trkpt lat="46.37369" lon="-1.46432">
        <ele>8.6</ele>
        <time>2020-06-03T08:30:50Z</time>
      </trkpt>
      <trkpt lat="46.37369" lon="-1.46437">
        <ele>8.7</ele>
        <time>2020-06-03T08:30:51Z</time>
      </trkpt>
      <trkpt lat="46.37369" lon="-1.46441">
        <ele>8.7</ele>
        <time>2020-06-03T08:30:52Z</time>
      </trkpt>
      <trkpt lat="46.3737" lon="-1.46446">
        <ele>8.7</ele>
        <time>2020-06-03T08:30:53Z</time>
      </trkpt>
      <trkpt lat="46.3737" lon="-1.46452">
        <ele>8.7</ele>
        <time>2020-06-03T08:30:54Z</time>
      </trkpt>
      <trkpt lat="46.37371" lon="-1.46457">
        <ele>8.7</ele>
        <time>2020-06-03T08:30:55Z</time>
      </trkpt>
      <trkpt lat="46.37371" lon="-1.46462">
        <ele>8.7</ele>
        <time>2020-06-03T08:30:56Z</time>
      </trkpt>
      <trkpt lat="46.37372" lon="-1.46467">
        <ele>8.7</ele>
        <time>2020-06-03T08:30:57Z</time>
      </trkpt>
      <trkpt lat="46.37373" lon="-1.46472">
        <ele>8.6</ele>
        <time>2020-06-03T08:30:58Z</time>
      </trkpt>
      <trkpt lat="46.37373" lon="-1.46476">
        <ele>8.6</ele>
        <time>2020-06-03T08:30:59Z</time>
      </trkpt>
      <trkpt lat="46.37372" lon="-1.46483">
        <ele>8.6</ele>
        <time>2020-06-03T08:31:00Z</time>
      </trkpt>
      <trkpt lat="46.37372" lon="-1.46488">
        <ele>8.6</ele>
        <time>2020-06-03T08:31:01Z</time>
      </trkpt>
      <trkpt lat="46.37373" lon="-1.46493">
        <ele>8.6</ele>
        <time>2020-06-03T08:31:02Z</time>
      </trkpt>
      <trkpt lat="46.37374" lon="-1.46501">
        <ele>8.6</ele>
        <time>2020-06-03T08:31:03Z</time>
      </trkpt>
      <trkpt lat="46.37376" lon="-1.46508">
        <ele>8.6</ele>
        <time>2020-06-03T08:31:04Z</time>
      </trkpt>
      <trkpt lat="46.37377" lon="-1.46515">
        <ele>8.6</ele>
        <time>2020-06-03T08:31:05Z</time>
      </trkpt>
      <trkpt lat="46.37378" lon="-1.46522">
        <ele>8.6</ele>
        <time>2020-06-03T08:31:06Z</time>
      </trkpt>
      <trkpt lat="46.37378" lon="-1.4653">
        <ele>8.6</ele>
        <time>2020-06-03T08:31:07Z</time>
      </trkpt>
      <trkpt lat="46.37379" lon="-1.46536">
        <ele>8.5</ele>
        <time>2020-06-03T08:31:08Z</time>
      </trkpt>
      <trkpt lat="46.3738" lon="-1.46541">
        <ele>8.5</ele>
        <time>2020-06-03T08:31:09Z</time>
      </trkpt>
      <trkpt lat="46.37381" lon="-1.46547">
        <ele>8.5</ele>
        <time>2020-06-03T08:31:10Z</time>
      </trkpt>
      <trkpt lat="46.37382" lon="-1.46553">
        <ele>8.5</ele>
        <time>2020-06-03T08:31:11Z</time>
      </trkpt>
      <trkpt lat="46.37383" lon="-1.4656">
        <ele>8.4</ele>
        <time>2020-06-03T08:31:12Z</time>
      </trkpt>
      <trkpt lat="46.37383" lon="-1.46566">
        <ele>8.4</ele>
        <time>2020-06-03T08:31:13Z</time>
      </trkpt>
      <trkpt lat="46.37384" lon="-1.46573">
        <ele>8.3</ele>
        <time>2020-06-03T08:31:14Z</time>
      </trkpt>
      <trkpt lat="46.37384" lon="-1.4658">
        <ele>8.3</ele>
        <time>2020-06-03T08:31:15Z</time>
      </trkpt>
      <trkpt lat="46.37384" lon="-1.46586">
        <ele>8.3</ele>
        <time>2020-06-03T08:31:16Z</time>
      </trkpt>
      <trkpt lat="46.37384" lon="-1.46594">
        <ele>8.3</ele>
        <time>2020-06-03T08:31:17Z</time>
      </trkpt>
      <trkpt lat="46.37383" lon="-1.46602">
        <ele>8.2</ele>
        <time>2020-06-03T08:31:18Z</time>
      </trkpt>
      <trkpt lat="46.37382" lon="-1.46611">
        <ele>8.2</ele>
        <time>2020-06-03T08:31:19Z</time>
      </trkpt>
      <trkpt lat="46.37382" lon="-1.46618">
        <ele>8.2</ele>
        <time>2020-06-03T08:31:20Z</time>
      </trkpt>
      <trkpt lat="46.37381" lon="-1.46625">
        <ele>8.2</ele>
        <time>2020-06-03T08:31:21Z</time>
      </trkpt>
      <trkpt lat="46.3738" lon="-1.46631">
        <ele>8.1</ele>
        <time>2020-06-03T08:31:22Z</time>
      </trkpt>
      <trkpt lat="46.37379" lon="-1.46639">
        <ele>8.1</ele>
        <time>2020-06-03T08:31:23Z</time>
      </trkpt>
      <trkpt lat="46.37378" lon="-1.46646">
        <ele>8.1</ele>
        <time>2020-06-03T08:31:24Z</time>
      </trkpt>
      <trkpt lat="46.37378" lon="-1.46653">
        <ele>8</ele>
        <time>2020-06-03T08:31:25Z</time>
      </trkpt>
      <trkpt lat="46.37378" lon="-1.4666">
        <ele>8</ele>
        <time>2020-06-03T08:31:26Z</time>
      </trkpt>
      <trkpt lat="46.37379" lon="-1.46665">
        <ele>8</ele>
        <time>2020-06-03T08:31:27Z</time>
      </trkpt>
      <trkpt lat="46.37381" lon="-1.4667">
        <ele>7.9</ele>
        <time>2020-06-03T08:31:28Z</time>
      </trkpt>
      <trkpt lat="46.37382" lon="-1.46675">
        <ele>7.9</ele>
        <time>2020-06-03T08:31:29Z</time>
      </trkpt>
      <trkpt lat="46.37386" lon="-1.46677">
        <ele>7.9</ele>
        <time>2020-06-03T08:31:30Z</time>
      </trkpt>
      <trkpt lat="46.37387" lon="-1.46678">
        <ele>7.8</ele>
        <time>2020-06-03T08:31:31Z</time>
      </trkpt>
      <trkpt lat="46.37391" lon="-1.46679">
        <ele>7.8</ele>
        <time>2020-06-03T08:31:32Z</time>
      </trkpt>
      <trkpt lat="46.37395" lon="-1.4668">
        <ele>7.7</ele>
        <time>2020-06-03T08:31:33Z</time>
      </trkpt>
      <trkpt lat="46.37399" lon="-1.46682">
        <ele>7.6</ele>
        <time>2020-06-03T08:31:34Z</time>
      </trkpt>
      <trkpt lat="46.37405" lon="-1.46682">
        <ele>7.6</ele>
        <time>2020-06-03T08:31:35Z</time>
      </trkpt>
      <trkpt lat="46.3741" lon="-1.4668">
        <ele>7.5</ele>
        <time>2020-06-03T08:31:36Z</time>
      </trkpt>
      <trkpt lat="46.37416" lon="-1.46677">
        <ele>7.4</ele>
        <time>2020-06-03T08:31:37Z</time>
      </trkpt>
      <trkpt lat="46.37421" lon="-1.46675">
        <ele>7.4</ele>
        <time>2020-06-03T08:31:38Z</time>
      </trkpt>
      <trkpt lat="46.37425" lon="-1.46674">
        <ele>7.4</ele>
        <time>2020-06-03T08:31:39Z</time>
      </trkpt>
      <trkpt lat="46.37429" lon="-1.46672">
        <ele>7.4</ele>
        <time>2020-06-03T08:31:40Z</time>
      </trkpt>
      <trkpt lat="46.37434" lon="-1.46669">
        <ele>7.4</ele>
        <time>2020-06-03T08:31:41Z</time>
      </trkpt>
      <trkpt lat="46.3744" lon="-1.46666">
        <ele>7.4</ele>
        <time>2020-06-03T08:31:42Z</time>
      </trkpt>
      <trkpt lat="46.37445" lon="-1.46663">
        <ele>7.4</ele>
        <time>2020-06-03T08:31:43Z</time>
      </trkpt>
      <trkpt lat="46.3745" lon="-1.46661">
        <ele>7.4</ele>
        <time>2020-06-03T08:31:44Z</time>
      </trkpt>
      <trkpt lat="46.37454" lon="-1.46659">
        <ele>7.4</ele>
        <time>2020-06-03T08:31:45Z</time>
      </trkpt>
      <trkpt lat="46.37458" lon="-1.46657">
        <ele>7.4</ele>
        <time>2020-06-03T08:31:46Z</time>
      </trkpt>
      <trkpt lat="46.37463" lon="-1.46655">
        <ele>7.4</ele>
        <time>2020-06-03T08:31:47Z</time>
      </trkpt>
      <trkpt lat="46.37467" lon="-1.46653">
        <ele>7.4</ele>
        <time>2020-06-03T08:31:48Z</time>
      </trkpt>
      <trkpt lat="46.37473" lon="-1.46652">
        <ele>7.4</ele>
        <time>2020-06-03T08:31:49Z</time>
      </trkpt>
      <trkpt lat="46.37478" lon="-1.4665">
        <ele>7.4</ele>
        <time>2020-06-03T08:31:50Z</time>
      </trkpt>
      <trkpt lat="46.37484" lon="-1.46648">
        <ele>7.4</ele>
        <time>2020-06-03T08:31:51Z</time>
      </trkpt>
      <trkpt lat="46.37489" lon="-1.46646">
        <ele>7.4</ele>
        <time>2020-06-03T08:31:52Z</time>
      </trkpt>
      <trkpt lat="46.37494" lon="-1.46644">
        <ele>7.4</ele>
        <time>2020-06-03T08:31:53Z</time>
      </trkpt>
      <trkpt lat="46.37499" lon="-1.46641">
        <ele>7.4</ele>
        <time>2020-06-03T08:31:54Z</time>
      </trkpt>
      <trkpt lat="46.37505" lon="-1.46637">
        <ele>7.4</ele>
        <time>2020-06-03T08:31:55Z</time>
      </trkpt>
      <trkpt lat="46.37511" lon="-1.46634">
        <ele>7.4</ele>
        <time>2020-06-03T08:31:56Z</time>
      </trkpt>
      <trkpt lat="46.37514" lon="-1.4663">
        <ele>7.4</ele>
        <time>2020-06-03T08:31:57Z</time>
      </trkpt>
      <trkpt lat="46.37517" lon="-1.46625">
        <ele>7.4</ele>
        <time>2020-06-03T08:31:58Z</time>
      </trkpt>
      <trkpt lat="46.37521" lon="-1.46619">
        <ele>7.5</ele>
        <time>2020-06-03T08:31:59Z</time>
      </trkpt>
      <trkpt lat="46.37523" lon="-1.46613">
        <ele>7.5</ele>
        <time>2020-06-03T08:32:00Z</time>
      </trkpt>
      <trkpt lat="46.37525" lon="-1.46608">
        <ele>7.5</ele>
        <time>2020-06-03T08:32:01Z</time>
      </trkpt>
      <trkpt lat="46.37527" lon="-1.46604">
        <ele>7.5</ele>
        <time>2020-06-03T08:32:02Z</time>
      </trkpt>
      <trkpt lat="46.37529" lon="-1.46598">
        <ele>7.5</ele>
        <time>2020-06-03T08:32:03Z</time>
      </trkpt>
      <trkpt lat="46.37531" lon="-1.46593">
        <ele>7.5</ele>
        <time>2020-06-03T08:32:04Z</time>
      </trkpt>
      <trkpt lat="46.37533" lon="-1.46588">
        <ele>7.4</ele>
        <time>2020-06-03T08:32:05Z</time>
      </trkpt>
      <trkpt lat="46.37534" lon="-1.46584">
        <ele>7.4</ele>
        <time>2020-06-03T08:32:06Z</time>
      </trkpt>
      <trkpt lat="46.37537" lon="-1.46581">
        <ele>7.4</ele>
        <time>2020-06-03T08:32:07Z</time>
      </trkpt>
      <trkpt lat="46.37539" lon="-1.46578">
        <ele>7.4</ele>
        <time>2020-06-03T08:32:08Z</time>
      </trkpt>
      <trkpt lat="46.37543" lon="-1.46575">
        <ele>7.3</ele>
        <time>2020-06-03T08:32:09Z</time>
      </trkpt>
      <trkpt lat="46.37547" lon="-1.46573">
        <ele>7.3</ele>
        <time>2020-06-03T08:32:10Z</time>
      </trkpt>
      <trkpt lat="46.37552" lon="-1.4657">
        <ele>7.3</ele>
        <time>2020-06-03T08:32:11Z</time>
      </trkpt>
      <trkpt lat="46.37557" lon="-1.4657">
        <ele>7.3</ele>
        <time>2020-06-03T08:32:12Z</time>
      </trkpt>
      <trkpt lat="46.37562" lon="-1.46568">
        <ele>7.3</ele>
        <time>2020-06-03T08:32:13Z</time>
      </trkpt>
      <trkpt lat="46.37567" lon="-1.46567">
        <ele>7.3</ele>
        <time>2020-06-03T08:32:14Z</time>
      </trkpt>
      <trkpt lat="46.37572" lon="-1.46565">
        <ele>7.2</ele>
        <time>2020-06-03T08:32:15Z</time>
      </trkpt>
      <trkpt lat="46.37576" lon="-1.46563">
        <ele>7.2</ele>
        <time>2020-06-03T08:32:16Z</time>
      </trkpt>
      <trkpt lat="46.3758" lon="-1.46563">
        <ele>7.2</ele>
        <time>2020-06-03T08:32:17Z</time>
      </trkpt>
      <trkpt lat="46.37584" lon="-1.46562">
        <ele>7.2</ele>
        <time>2020-06-03T08:32:18Z</time>
      </trkpt>
      <trkpt lat="46.37589" lon="-1.46561">
        <ele>7.1</ele>
        <time>2020-06-03T08:32:19Z</time>
      </trkpt>
      <trkpt lat="46.37594" lon="-1.4656">
        <ele>7.1</ele>
        <time>2020-06-03T08:32:20Z</time>
      </trkpt>
      <trkpt lat="46.37599" lon="-1.46559">
        <ele>7.1</ele>
        <time>2020-06-03T08:32:21Z</time>
      </trkpt>
      <trkpt lat="46.37603" lon="-1.46558">
        <ele>7.1</ele>
        <time>2020-06-03T08:32:22Z</time>
      </trkpt>
      <trkpt lat="46.37608" lon="-1.46558">
        <ele>7.1</ele>
        <time>2020-06-03T08:32:23Z</time>
      </trkpt>
      <trkpt lat="46.37613" lon="-1.46556">
        <ele>7</ele>
        <time>2020-06-03T08:32:24Z</time>
      </trkpt>
      <trkpt lat="46.37618" lon="-1.46554">
        <ele>7</ele>
        <time>2020-06-03T08:32:25Z</time>
      </trkpt>
      <trkpt lat="46.37621" lon="-1.46552">
        <ele>7</ele>
        <time>2020-06-03T08:32:26Z</time>
      </trkpt>
      <trkpt lat="46.37627" lon="-1.46551">
        <ele>7</ele>
        <time>2020-06-03T08:32:27Z</time>
      </trkpt>
      <trkpt lat="46.37632" lon="-1.4655">
        <ele>7.1</ele>
        <time>2020-06-03T08:32:28Z</time>
      </trkpt>
      <trkpt lat="46.37637" lon="-1.4655">
        <ele>7.1</ele>
        <time>2020-06-03T08:32:29Z</time>
      </trkpt>
      <trkpt lat="46.37642" lon="-1.4655">
        <ele>7.2</ele>
        <time>2020-06-03T08:32:30Z</time>
      </trkpt>
      <trkpt lat="46.37648" lon="-1.46549">
        <ele>7.3</ele>
        <time>2020-06-03T08:32:31Z</time>
      </trkpt>
      <trkpt lat="46.37653" lon="-1.46549">
        <ele>7.5</ele>
        <time>2020-06-03T08:32:32Z</time>
      </trkpt>
      <trkpt lat="46.37658" lon="-1.46547">
        <ele>7.6</ele>
        <time>2020-06-03T08:32:33Z</time>
      </trkpt>
      <trkpt lat="46.37663" lon="-1.46545">
        <ele>7.7</ele>
        <time>2020-06-03T08:32:34Z</time>
      </trkpt>
      <trkpt lat="46.37668" lon="-1.46543">
        <ele>7.8</ele>
        <time>2020-06-03T08:32:35Z</time>
      </trkpt>
      <trkpt lat="46.37672" lon="-1.4654">
        <ele>7.8</ele>
        <time>2020-06-03T08:32:36Z</time>
      </trkpt>
      <trkpt lat="46.37676" lon="-1.46537">
        <ele>7.9</ele>
        <time>2020-06-03T08:32:37Z</time>
      </trkpt>
      <trkpt lat="46.3768" lon="-1.46534">
        <ele>8</ele>
        <time>2020-06-03T08:32:38Z</time>
      </trkpt>
      <trkpt lat="46.37683" lon="-1.46532">
        <ele>8.2</ele>
        <time>2020-06-03T08:32:39Z</time>
      </trkpt>
      <trkpt lat="46.37687" lon="-1.46529">
        <ele>8.2</ele>
        <time>2020-06-03T08:32:40Z</time>
      </trkpt>
      <trkpt lat="46.37691" lon="-1.46527">
        <ele>8.3</ele>
        <time>2020-06-03T08:32:41Z</time>
      </trkpt>
      <trkpt lat="46.37695" lon="-1.46522">
        <ele>8.4</ele>
        <time>2020-06-03T08:32:42Z</time>
      </trkpt>
      <trkpt lat="46.37699" lon="-1.46517">
        <ele>8.6</ele>
        <time>2020-06-03T08:32:43Z</time>
      </trkpt>
      <trkpt lat="46.37704" lon="-1.46511">
        <ele>8.8</ele>
        <time>2020-06-03T08:32:44Z</time>
      </trkpt>
      <trkpt lat="46.37708" lon="-1.46506">
        <ele>9</ele>
        <time>2020-06-03T08:32:45Z</time>
      </trkpt>
      <trkpt lat="46.37711" lon="-1.46504">
        <ele>9.1</ele>
        <time>2020-06-03T08:32:46Z</time>
      </trkpt>
      <trkpt lat="46.37714" lon="-1.46503">
        <ele>9.2</ele>
        <time>2020-06-03T08:32:47Z</time>
      </trkpt>
      <trkpt lat="46.37715" lon="-1.46503">
        <ele>9.3</ele>
        <time>2020-06-03T08:32:48Z</time>
      </trkpt>
      <trkpt lat="46.37719" lon="-1.46502">
        <ele>9.4</ele>
        <time>2020-06-03T08:32:49Z</time>
      </trkpt>
      <trkpt lat="46.37724" lon="-1.46503">
        <ele>9.6</ele>
        <time>2020-06-03T08:32:50Z</time>
      </trkpt>
      <trkpt lat="46.37728" lon="-1.46504">
        <ele>9.8</ele>
        <time>2020-06-03T08:32:51Z</time>
      </trkpt>
      <trkpt lat="46.37732" lon="-1.46504">
        <ele>9.8</ele>
        <time>2020-06-03T08:32:52Z</time>
      </trkpt>
      <trkpt lat="46.37735" lon="-1.46505">
        <ele>9.9</ele>
        <time>2020-06-03T08:32:53Z</time>
      </trkpt>
      <trkpt lat="46.37739" lon="-1.46504">
        <ele>10</ele>
        <time>2020-06-03T08:32:54Z</time>
      </trkpt>
      <trkpt lat="46.37741" lon="-1.46504">
        <ele>10.1</ele>
        <time>2020-06-03T08:32:55Z</time>
      </trkpt>
      <trkpt lat="46.37745" lon="-1.46504">
        <ele>10.1</ele>
        <time>2020-06-03T08:32:56Z</time>
      </trkpt>
      <trkpt lat="46.37746" lon="-1.46504">
        <ele>10.1</ele>
        <time>2020-06-03T08:32:57Z</time>
      </trkpt>
      <trkpt lat="46.3775" lon="-1.46505">
        <ele>10.2</ele>
        <time>2020-06-03T08:32:58Z</time>
      </trkpt>
      <trkpt lat="46.37751" lon="-1.46506">
        <ele>10.2</ele>
        <time>2020-06-03T08:32:59Z</time>
      </trkpt>
      <trkpt lat="46.37755" lon="-1.46508">
        <ele>10.2</ele>
        <time>2020-06-03T08:33:00Z</time>
      </trkpt>
      <trkpt lat="46.37757" lon="-1.4651">
        <ele>10.2</ele>
        <time>2020-06-03T08:33:01Z</time>
      </trkpt>
      <trkpt lat="46.37761" lon="-1.46511">
        <ele>10.2</ele>
        <time>2020-06-03T08:33:02Z</time>
      </trkpt>
      <trkpt lat="46.37765" lon="-1.46512">
        <ele>10.3</ele>
        <time>2020-06-03T08:33:03Z</time>
      </trkpt>
      <trkpt lat="46.37768" lon="-1.46514">
        <ele>10.3</ele>
        <time>2020-06-03T08:33:04Z</time>
      </trkpt>
      <trkpt lat="46.37771" lon="-1.46517">
        <ele>10.3</ele>
        <time>2020-06-03T08:33:05Z</time>
      </trkpt>
      <trkpt lat="46.37774" lon="-1.46519">
        <ele>10.4</ele>
        <time>2020-06-03T08:33:06Z</time>
      </trkpt>
      <trkpt lat="46.37777" lon="-1.4652">
        <ele>10.4</ele>
        <time>2020-06-03T08:33:07Z</time>
      </trkpt>
      <trkpt lat="46.3778" lon="-1.46523">
        <ele>10.4</ele>
        <time>2020-06-03T08:33:08Z</time>
      </trkpt>
      <trkpt lat="46.37784" lon="-1.46525">
        <ele>10.5</ele>
        <time>2020-06-03T08:33:09Z</time>
      </trkpt>
      <trkpt lat="46.37788" lon="-1.46529">
        <ele>10.5</ele>
        <time>2020-06-03T08:33:10Z</time>
      </trkpt>
      <trkpt lat="46.37793" lon="-1.46534">
        <ele>10.5</ele>
        <time>2020-06-03T08:33:11Z</time>
      </trkpt>
      <trkpt lat="46.37798" lon="-1.46539">
        <ele>10.5</ele>
        <time>2020-06-03T08:33:12Z</time>
      </trkpt>
      <trkpt lat="46.37801" lon="-1.46542">
        <ele>10.5</ele>
        <time>2020-06-03T08:33:13Z</time>
      </trkpt>
      <trkpt lat="46.37805" lon="-1.46545">
        <ele>10.6</ele>
        <time>2020-06-03T08:33:14Z</time>
      </trkpt>
      <trkpt lat="46.37809" lon="-1.4655">
        <ele>10.6</ele>
        <time>2020-06-03T08:33:15Z</time>
      </trkpt>
      <trkpt lat="46.37813" lon="-1.46556">
        <ele>10.6</ele>
        <time>2020-06-03T08:33:16Z</time>
      </trkpt>
      <trkpt lat="46.37817" lon="-1.46561">
        <ele>10.7</ele>
        <time>2020-06-03T08:33:17Z</time>
      </trkpt>
      <trkpt lat="46.37821" lon="-1.46565">
        <ele>10.8</ele>
        <time>2020-06-03T08:33:18Z</time>
      </trkpt>
      <trkpt lat="46.37826" lon="-1.46571">
        <ele>10.9</ele>
        <time>2020-06-03T08:33:19Z</time>
      </trkpt>
      <trkpt lat="46.37831" lon="-1.46578">
        <ele>11</ele>
        <time>2020-06-03T08:33:20Z</time>
      </trkpt>
      <trkpt lat="46.37834" lon="-1.46582">
        <ele>11</ele>
        <time>2020-06-03T08:33:21Z</time>
      </trkpt>
      <trkpt lat="46.37837" lon="-1.46586">
        <ele>11.1</ele>
        <time>2020-06-03T08:33:22Z</time>
      </trkpt>
      <trkpt lat="46.3784" lon="-1.46591">
        <ele>11.2</ele>
        <time>2020-06-03T08:33:23Z</time>
      </trkpt>
      <trkpt lat="46.37842" lon="-1.46593">
        <ele>11.2</ele>
        <time>2020-06-03T08:33:24Z</time>
      </trkpt>
      <trkpt lat="46.37845" lon="-1.46596">
        <ele>11.3</ele>
        <time>2020-06-03T08:33:25Z</time>
      </trkpt>
      <trkpt lat="46.37849" lon="-1.46599">
        <ele>11.3</ele>
        <time>2020-06-03T08:33:26Z</time>
      </trkpt>
      <trkpt lat="46.37853" lon="-1.46601">
        <ele>11.4</ele>
        <time>2020-06-03T08:33:27Z</time>
      </trkpt>
      <trkpt lat="46.37856" lon="-1.46603">
        <ele>11.4</ele>
        <time>2020-06-03T08:33:28Z</time>
      </trkpt>
      <trkpt lat="46.37858" lon="-1.46605">
        <ele>11.4</ele>
        <time>2020-06-03T08:33:29Z</time>
      </trkpt>
      <trkpt lat="46.37862" lon="-1.46606">
        <ele>11.5</ele>
        <time>2020-06-03T08:33:30Z</time>
      </trkpt>
      <trkpt lat="46.37865" lon="-1.46608">
        <ele>11.5</ele>
        <time>2020-06-03T08:33:31Z</time>
      </trkpt>
      <trkpt lat="46.37868" lon="-1.46608">
        <ele>11.5</ele>
        <time>2020-06-03T08:33:32Z</time>
      </trkpt>
      <trkpt lat="46.37872" lon="-1.46609">
        <ele>11.5</ele>
        <time>2020-06-03T08:33:33Z</time>
      </trkpt>
      <trkpt lat="46.37876" lon="-1.46609">
        <ele>11.5</ele>
        <time>2020-06-03T08:33:34Z</time>
      </trkpt>
      <trkpt lat="46.37881" lon="-1.46607">
        <ele>11.4</ele>
        <time>2020-06-03T08:33:35Z</time>
      </trkpt>
      <trkpt lat="46.37886" lon="-1.46604">
        <ele>11.4</ele>
        <time>2020-06-03T08:33:36Z</time>
      </trkpt>
      <trkpt lat="46.37891" lon="-1.46601">
        <ele>11.3</ele>
        <time>2020-06-03T08:33:37Z</time>
      </trkpt>
      <trkpt lat="46.37895" lon="-1.466">
        <ele>11.3</ele>
        <time>2020-06-03T08:33:38Z</time>
      </trkpt>
      <trkpt lat="46.37899" lon="-1.46599">
        <ele>11.3</ele>
        <time>2020-06-03T08:33:39Z</time>
      </trkpt>
      <trkpt lat="46.37904" lon="-1.46598">
        <ele>11.3</ele>
        <time>2020-06-03T08:33:40Z</time>
      </trkpt>
      <trkpt lat="46.37908" lon="-1.46598">
        <ele>11.2</ele>
        <time>2020-06-03T08:33:41Z</time>
      </trkpt>
      <trkpt lat="46.37913" lon="-1.46599">
        <ele>11.2</ele>
        <time>2020-06-03T08:33:42Z</time>
      </trkpt>
      <trkpt lat="46.37917" lon="-1.46599">
        <ele>11.2</ele>
        <time>2020-06-03T08:33:43Z</time>
      </trkpt>
      <trkpt lat="46.37921" lon="-1.466">
        <ele>11.1</ele>
        <time>2020-06-03T08:33:44Z</time>
      </trkpt>
      <trkpt lat="46.37924" lon="-1.466">
        <ele>11.1</ele>
        <time>2020-06-03T08:33:45Z</time>
      </trkpt>
      <trkpt lat="46.37929" lon="-1.46602">
        <ele>11</ele>
        <time>2020-06-03T08:33:46Z</time>
      </trkpt>
      <trkpt lat="46.37934" lon="-1.46604">
        <ele>10.8</ele>
        <time>2020-06-03T08:33:47Z</time>
      </trkpt>
      <trkpt lat="46.3794" lon="-1.46606">
        <ele>10.6</ele>
        <time>2020-06-03T08:33:48Z</time>
      </trkpt>
      <trkpt lat="46.37947" lon="-1.46607">
        <ele>10.2</ele>
        <time>2020-06-03T08:33:49Z</time>
      </trkpt>
      <trkpt lat="46.37952" lon="-1.46607">
        <ele>9.8</ele>
        <time>2020-06-03T08:33:50Z</time>
      </trkpt>
      <trkpt lat="46.37958" lon="-1.46607">
        <ele>9.4</ele>
        <time>2020-06-03T08:33:51Z</time>
      </trkpt>
      <trkpt lat="46.37965" lon="-1.46606">
        <ele>8.8</ele>
        <time>2020-06-03T08:33:52Z</time>
      </trkpt>
      <trkpt lat="46.37973" lon="-1.46603">
        <ele>8.1</ele>
        <time>2020-06-03T08:33:53Z</time>
      </trkpt>
      <trkpt lat="46.3798" lon="-1.466">
        <ele>7.7</ele>
        <time>2020-06-03T08:33:54Z</time>
      </trkpt>
      <trkpt lat="46.37985" lon="-1.46595">
        <ele>7.5</ele>
        <time>2020-06-03T08:33:55Z</time>
      </trkpt>
      <trkpt lat="46.37989" lon="-1.46589">
        <ele>7.2</ele>
        <time>2020-06-03T08:33:56Z</time>
      </trkpt>
      <trkpt lat="46.37994" lon="-1.46583">
        <ele>7</ele>
        <time>2020-06-03T08:33:57Z</time>
      </trkpt>
      <trkpt lat="46.37998" lon="-1.46578">
        <ele>6.8</ele>
        <time>2020-06-03T08:33:58Z</time>
      </trkpt>
      <trkpt lat="46.38002" lon="-1.46575">
        <ele>6.6</ele>
        <time>2020-06-03T08:33:59Z</time>
      </trkpt>
      <trkpt lat="46.38007" lon="-1.46575">
        <ele>6.5</ele>
        <time>2020-06-03T08:34:00Z</time>
      </trkpt>
      <trkpt lat="46.3801" lon="-1.46576">
        <ele>6.4</ele>
        <time>2020-06-03T08:34:01Z</time>
      </trkpt>
      <trkpt lat="46.38014" lon="-1.46576">
        <ele>6.3</ele>
        <time>2020-06-03T08:34:02Z</time>
      </trkpt>
      <trkpt lat="46.38018" lon="-1.46576">
        <ele>6.2</ele>
        <time>2020-06-03T08:34:03Z</time>
      </trkpt>
      <trkpt lat="46.38022" lon="-1.46577">
        <ele>6.1</ele>
        <time>2020-06-03T08:34:04Z</time>
      </trkpt>
      <trkpt lat="46.38027" lon="-1.46579">
        <ele>6</ele>
        <time>2020-06-03T08:34:05Z</time>
      </trkpt>
      <trkpt lat="46.38031" lon="-1.4658">
        <ele>6</ele>
        <time>2020-06-03T08:34:06Z</time>
      </trkpt>
      <trkpt lat="46.38034" lon="-1.46583">
        <ele>5.9</ele>
        <time>2020-06-03T08:34:07Z</time>
      </trkpt>
      <trkpt lat="46.38038" lon="-1.46587">
        <ele>5.9</ele>
        <time>2020-06-03T08:34:08Z</time>
      </trkpt>
      <trkpt lat="46.38043" lon="-1.4659">
        <ele>5.9</ele>
        <time>2020-06-03T08:34:09Z</time>
      </trkpt>
      <trkpt lat="46.38048" lon="-1.46592">
        <ele>6</ele>
        <time>2020-06-03T08:34:10Z</time>
      </trkpt>
      <trkpt lat="46.38053" lon="-1.46594">
        <ele>6</ele>
        <time>2020-06-03T08:34:11Z</time>
      </trkpt>
      <trkpt lat="46.38057" lon="-1.46597">
        <ele>6</ele>
        <time>2020-06-03T08:34:12Z</time>
      </trkpt>
      <trkpt lat="46.38063" lon="-1.46599">
        <ele>6.1</ele>
        <time>2020-06-03T08:34:13Z</time>
      </trkpt>
      <trkpt lat="46.38069" lon="-1.466">
        <ele>6.1</ele>
        <time>2020-06-03T08:34:14Z</time>
      </trkpt>
      <trkpt lat="46.38074" lon="-1.46603">
        <ele>6.2</ele>
        <time>2020-06-03T08:34:15Z</time>
      </trkpt>
      <trkpt lat="46.38078" lon="-1.46604">
        <ele>6.2</ele>
        <time>2020-06-03T08:34:16Z</time>
      </trkpt>
      <trkpt lat="46.38081" lon="-1.46606">
        <ele>6.2</ele>
        <time>2020-06-03T08:34:17Z</time>
      </trkpt>
      <trkpt lat="46.38085" lon="-1.46608">
        <ele>6.2</ele>
        <time>2020-06-03T08:34:18Z</time>
      </trkpt>
      <trkpt lat="46.38089" lon="-1.46609">
        <ele>6.2</ele>
        <time>2020-06-03T08:34:19Z</time>
      </trkpt>
      <trkpt lat="46.38093" lon="-1.46609">
        <ele>6.2</ele>
        <time>2020-06-03T08:34:20Z</time>
      </trkpt>
      <trkpt lat="46.38098" lon="-1.46608">
        <ele>6.2</ele>
        <time>2020-06-03T08:34:21Z</time>
      </trkpt>
      <trkpt lat="46.38104" lon="-1.46607">
        <ele>6.3</ele>
        <time>2020-06-03T08:34:22Z</time>
      </trkpt>
      <trkpt lat="46.38109" lon="-1.46607">
        <ele>6.3</ele>
        <time>2020-06-03T08:34:23Z</time>
      </trkpt>
      <trkpt lat="46.38115" lon="-1.46607">
        <ele>6.3</ele>
        <time>2020-06-03T08:34:24Z</time>
      </trkpt>
      <trkpt lat="46.3812" lon="-1.46608">
        <ele>6.3</ele>
        <time>2020-06-03T08:34:25Z</time>
      </trkpt>
      <trkpt lat="46.38125" lon="-1.46608">
        <ele>6.4</ele>
        <time>2020-06-03T08:34:26Z</time>
      </trkpt>
      <trkpt lat="46.3813" lon="-1.46609">
        <ele>6.4</ele>
        <time>2020-06-03T08:34:27Z</time>
      </trkpt>
      <trkpt lat="46.38135" lon="-1.46609">
        <ele>6.4</ele>
        <time>2020-06-03T08:34:28Z</time>
      </trkpt>
      <trkpt lat="46.3814" lon="-1.46608">
        <ele>6.4</ele>
        <time>2020-06-03T08:34:29Z</time>
      </trkpt>
      <trkpt lat="46.38144" lon="-1.46608">
        <ele>6.5</ele>
        <time>2020-06-03T08:34:30Z</time>
      </trkpt>
      <trkpt lat="46.38149" lon="-1.46608">
        <ele>6.5</ele>
        <time>2020-06-03T08:34:31Z</time>
      </trkpt>
      <trkpt lat="46.38153" lon="-1.46608">
        <ele>6.5</ele>
        <time>2020-06-03T08:34:32Z</time>
      </trkpt>
      <trkpt lat="46.38159" lon="-1.46608">
        <ele>6.6</ele>
        <time>2020-06-03T08:34:33Z</time>
      </trkpt>
      <trkpt lat="46.38164" lon="-1.46608">
        <ele>6.7</ele>
        <time>2020-06-03T08:34:34Z</time>
      </trkpt>
      <trkpt lat="46.3817" lon="-1.46608">
        <ele>6.8</ele>
        <time>2020-06-03T08:34:35Z</time>
      </trkpt>
      <trkpt lat="46.38174" lon="-1.46607">
        <ele>6.9</ele>
        <time>2020-06-03T08:34:36Z</time>
      </trkpt>
      <trkpt lat="46.38178" lon="-1.46608">
        <ele>7</ele>
        <time>2020-06-03T08:34:37Z</time>
      </trkpt>
      <trkpt lat="46.38182" lon="-1.46608">
        <ele>7</ele>
        <time>2020-06-03T08:34:38Z</time>
      </trkpt>
      <trkpt lat="46.38185" lon="-1.46608">
        <ele>7.1</ele>
        <time>2020-06-03T08:34:39Z</time>
      </trkpt>
      <trkpt lat="46.38188" lon="-1.46608">
        <ele>7.2</ele>
        <time>2020-06-03T08:34:40Z</time>
      </trkpt>
      <trkpt lat="46.38192" lon="-1.46608">
        <ele>7.3</ele>
        <time>2020-06-03T08:34:41Z</time>
      </trkpt>
      <trkpt lat="46.38197" lon="-1.46607">
        <ele>7.4</ele>
        <time>2020-06-03T08:34:42Z</time>
      </trkpt>
      <trkpt lat="46.382" lon="-1.46607">
        <ele>7.4</ele>
        <time>2020-06-03T08:34:43Z</time>
      </trkpt>
      <trkpt lat="46.38203" lon="-1.46608">
        <ele>7.5</ele>
        <time>2020-06-03T08:34:44Z</time>
      </trkpt>
      <trkpt lat="46.38206" lon="-1.4661">
        <ele>7.5</ele>
        <time>2020-06-03T08:34:45Z</time>
      </trkpt>
      <trkpt lat="46.38211" lon="-1.4661">
        <ele>7.5</ele>
        <time>2020-06-03T08:34:46Z</time>
      </trkpt>
      <trkpt lat="46.38216" lon="-1.4661">
        <ele>7.6</ele>
        <time>2020-06-03T08:34:47Z</time>
      </trkpt>
      <trkpt lat="46.3822" lon="-1.46611">
        <ele>7.5</ele>
        <time>2020-06-03T08:34:48Z</time>
      </trkpt>
      <trkpt lat="46.38224" lon="-1.46611">
        <ele>7.5</ele>
        <time>2020-06-03T08:34:49Z</time>
      </trkpt>
      <trkpt lat="46.38229" lon="-1.46613">
        <ele>7.5</ele>
        <time>2020-06-03T08:34:50Z</time>
      </trkpt>
      <trkpt lat="46.38235" lon="-1.46615">
        <ele>7.4</ele>
        <time>2020-06-03T08:34:51Z</time>
      </trkpt>
      <trkpt lat="46.38241" lon="-1.46617">
        <ele>7.4</ele>
        <time>2020-06-03T08:34:52Z</time>
      </trkpt>
      <trkpt lat="46.38246" lon="-1.4662">
        <ele>7.4</ele>
        <time>2020-06-03T08:34:53Z</time>
      </trkpt>
      <trkpt lat="46.38251" lon="-1.46624">
        <ele>7.4</ele>
        <time>2020-06-03T08:34:54Z</time>
      </trkpt>
      <trkpt lat="46.38255" lon="-1.46628">
        <ele>7.4</ele>
        <time>2020-06-03T08:34:55Z</time>
      </trkpt>
      <trkpt lat="46.38258" lon="-1.46634">
        <ele>7.4</ele>
        <time>2020-06-03T08:34:56Z</time>
      </trkpt>
      <trkpt lat="46.3826" lon="-1.46638">
        <ele>7.4</ele>
        <time>2020-06-03T08:34:57Z</time>
      </trkpt>
      <trkpt lat="46.38261" lon="-1.46642">
        <ele>7.5</ele>
        <time>2020-06-03T08:34:58Z</time>
      </trkpt>
      <trkpt lat="46.38263" lon="-1.46647">
        <ele>7.5</ele>
        <time>2020-06-03T08:34:59Z</time>
      </trkpt>
      <trkpt lat="46.38264" lon="-1.46648">
        <ele>7.5</ele>
        <time>2020-06-03T08:35:00Z</time>
      </trkpt>
      <trkpt lat="46.38266" lon="-1.46649">
        <ele>7.5</ele>
        <time>2020-06-03T08:35:01Z</time>
      </trkpt>
      <trkpt lat="46.38267" lon="-1.4665">
        <ele>7.5</ele>
        <time>2020-06-03T08:35:02Z</time>
      </trkpt>
      <trkpt lat="46.3827" lon="-1.46652">
        <ele>7.5</ele>
        <time>2020-06-03T08:35:03Z</time>
      </trkpt>
      <trkpt lat="46.38271" lon="-1.46653">
        <ele>7.5</ele>
        <time>2020-06-03T08:35:04Z</time>
      </trkpt>
      <trkpt lat="46.38272" lon="-1.46656">
        <ele>7.5</ele>
        <time>2020-06-03T08:35:05Z</time>
      </trkpt>
      <trkpt lat="46.38274" lon="-1.46659">
        <ele>7.5</ele>
        <time>2020-06-03T08:35:06Z</time>
      </trkpt>
      <trkpt lat="46.38275" lon="-1.46664">
        <ele>7.5</ele>
        <time>2020-06-03T08:35:07Z</time>
      </trkpt>
      <trkpt lat="46.38276" lon="-1.46669">
        <ele>7.5</ele>
        <time>2020-06-03T08:35:08Z</time>
      </trkpt>
      <trkpt lat="46.38277" lon="-1.46673">
        <ele>7.5</ele>
        <time>2020-06-03T08:35:09Z</time>
      </trkpt>
      <trkpt lat="46.38278" lon="-1.46677">
        <ele>7.5</ele>
        <time>2020-06-03T08:35:10Z</time>
      </trkpt>
      <trkpt lat="46.38281" lon="-1.46682">
        <ele>7.5</ele>
        <time>2020-06-03T08:35:11Z</time>
      </trkpt>
      <trkpt lat="46.38283" lon="-1.46688">
        <ele>7.5</ele>
        <time>2020-06-03T08:35:12Z</time>
      </trkpt>
      <trkpt lat="46.38285" lon="-1.46693">
        <ele>7.5</ele>
        <time>2020-06-03T08:35:13Z</time>
      </trkpt>
      <trkpt lat="46.38286" lon="-1.46696">
        <ele>7.5</ele>
        <time>2020-06-03T08:35:14Z</time>
      </trkpt>
      <trkpt lat="46.38288" lon="-1.46703">
        <ele>7.5</ele>
        <time>2020-06-03T08:35:15Z</time>
      </trkpt>
      <trkpt lat="46.3829" lon="-1.4671">
        <ele>7.6</ele>
        <time>2020-06-03T08:35:16Z</time>
      </trkpt>
      <trkpt lat="46.38292" lon="-1.46715">
        <ele>7.6</ele>
        <time>2020-06-03T08:35:17Z</time>
      </trkpt>
      <trkpt lat="46.38293" lon="-1.46719">
        <ele>7.6</ele>
        <time>2020-06-03T08:35:18Z</time>
      </trkpt>
      <trkpt lat="46.38295" lon="-1.46724">
        <ele>7.6</ele>
        <time>2020-06-03T08:35:19Z</time>
      </trkpt>
      <trkpt lat="46.38296" lon="-1.46728">
        <ele>7.6</ele>
        <time>2020-06-03T08:35:20Z</time>
      </trkpt>
      <trkpt lat="46.38296" lon="-1.46733">
        <ele>7.6</ele>
        <time>2020-06-03T08:35:21Z</time>
      </trkpt>
      <trkpt lat="46.38298" lon="-1.46739">
        <ele>7.6</ele>
        <time>2020-06-03T08:35:22Z</time>
      </trkpt>
      <trkpt lat="46.383" lon="-1.46746">
        <ele>7.6</ele>
        <time>2020-06-03T08:35:23Z</time>
      </trkpt>
      <trkpt lat="46.38302" lon="-1.46752">
        <ele>7.6</ele>
        <time>2020-06-03T08:35:24Z</time>
      </trkpt>
      <trkpt lat="46.38305" lon="-1.46758">
        <ele>7.6</ele>
        <time>2020-06-03T08:35:25Z</time>
      </trkpt>
      <trkpt lat="46.38308" lon="-1.46762">
        <ele>7.6</ele>
        <time>2020-06-03T08:35:26Z</time>
      </trkpt>
      <trkpt lat="46.3831" lon="-1.46766">
        <ele>7.6</ele>
        <time>2020-06-03T08:35:27Z</time>
      </trkpt>
      <trkpt lat="46.38313" lon="-1.46771">
        <ele>7.6</ele>
        <time>2020-06-03T08:35:28Z</time>
      </trkpt>
      <trkpt lat="46.38317" lon="-1.46776">
        <ele>7.7</ele>
        <time>2020-06-03T08:35:29Z</time>
      </trkpt>
      <trkpt lat="46.3832" lon="-1.46781">
        <ele>7.7</ele>
        <time>2020-06-03T08:35:30Z</time>
      </trkpt>
      <trkpt lat="46.38323" lon="-1.46785">
        <ele>7.7</ele>
        <time>2020-06-03T08:35:31Z</time>
      </trkpt>
      <trkpt lat="46.38326" lon="-1.4679">
        <ele>7.7</ele>
        <time>2020-06-03T08:35:32Z</time>
      </trkpt>
      <trkpt lat="46.38329" lon="-1.46795">
        <ele>7.7</ele>
        <time>2020-06-03T08:35:33Z</time>
      </trkpt>
      <trkpt lat="46.38331" lon="-1.468">
        <ele>7.7</ele>
        <time>2020-06-03T08:35:34Z</time>
      </trkpt>
      <trkpt lat="46.38333" lon="-1.46804">
        <ele>7.7</ele>
        <time>2020-06-03T08:35:35Z</time>
      </trkpt>
      <trkpt lat="46.38335" lon="-1.46809">
        <ele>7.7</ele>
        <time>2020-06-03T08:35:36Z</time>
      </trkpt>
      <trkpt lat="46.38338" lon="-1.46814">
        <ele>7.6</ele>
        <time>2020-06-03T08:35:37Z</time>
      </trkpt>
      <trkpt lat="46.38341" lon="-1.46819">
        <ele>7.6</ele>
        <time>2020-06-03T08:35:38Z</time>
      </trkpt>
      <trkpt lat="46.38344" lon="-1.46826">
        <ele>7.6</ele>
        <time>2020-06-03T08:35:39Z</time>
      </trkpt>
      <trkpt lat="46.38347" lon="-1.46832">
        <ele>7.6</ele>
        <time>2020-06-03T08:35:40Z</time>
      </trkpt>
      <trkpt lat="46.3835" lon="-1.46837">
        <ele>7.6</ele>
        <time>2020-06-03T08:35:41Z</time>
      </trkpt>
      <trkpt lat="46.38352" lon="-1.46842">
        <ele>7.6</ele>
        <time>2020-06-03T08:35:42Z</time>
      </trkpt>
      <trkpt lat="46.38355" lon="-1.46848">
        <ele>7.6</ele>
        <time>2020-06-03T08:35:43Z</time>
      </trkpt>
      <trkpt lat="46.38357" lon="-1.46852">
        <ele>7.6</ele>
        <time>2020-06-03T08:35:44Z</time>
      </trkpt>
      <trkpt lat="46.38359" lon="-1.46857">
        <ele>7.6</ele>
        <time>2020-06-03T08:35:45Z</time>
      </trkpt>
      <trkpt lat="46.3836" lon="-1.46862">
        <ele>7.6</ele>
        <time>2020-06-03T08:35:46Z</time>
      </trkpt>
      <trkpt lat="46.38361" lon="-1.46866">
        <ele>7.6</ele>
        <time>2020-06-03T08:35:47Z</time>
      </trkpt>
      <trkpt lat="46.38363" lon="-1.46872">
        <ele>7.5</ele>
        <time>2020-06-03T08:35:48Z</time>
      </trkpt>
      <trkpt lat="46.38365" lon="-1.46881">
        <ele>7.5</ele>
        <time>2020-06-03T08:35:49Z</time>
      </trkpt>
      <trkpt lat="46.38367" lon="-1.46888">
        <ele>7.5</ele>
        <time>2020-06-03T08:35:50Z</time>
      </trkpt>
      <trkpt lat="46.38368" lon="-1.46897">
        <ele>7.5</ele>
        <time>2020-06-03T08:35:51Z</time>
      </trkpt>
      <trkpt lat="46.3837" lon="-1.46905">
        <ele>7.5</ele>
        <time>2020-06-03T08:35:52Z</time>
      </trkpt>
      <trkpt lat="46.38372" lon="-1.46912">
        <ele>7.6</ele>
        <time>2020-06-03T08:35:53Z</time>
      </trkpt>
      <trkpt lat="46.38373" lon="-1.46919">
        <ele>7.6</ele>
        <time>2020-06-03T08:35:54Z</time>
      </trkpt>
      <trkpt lat="46.38375" lon="-1.46927">
        <ele>7.7</ele>
        <time>2020-06-03T08:35:55Z</time>
      </trkpt>
      <trkpt lat="46.38377" lon="-1.46934">
        <ele>7.8</ele>
        <time>2020-06-03T08:35:56Z</time>
      </trkpt>
      <trkpt lat="46.38378" lon="-1.4694">
        <ele>7.9</ele>
        <time>2020-06-03T08:35:57Z</time>
      </trkpt>
      <trkpt lat="46.38379" lon="-1.46948">
        <ele>8.1</ele>
        <time>2020-06-03T08:35:58Z</time>
      </trkpt>
      <trkpt lat="46.3838" lon="-1.46955">
        <ele>8.2</ele>
        <time>2020-06-03T08:35:59Z</time>
      </trkpt>
      <trkpt lat="46.38381" lon="-1.46962">
        <ele>8.4</ele>
        <time>2020-06-03T08:36:00Z</time>
      </trkpt>
      <trkpt lat="46.38381" lon="-1.46969">
        <ele>8.5</ele>
        <time>2020-06-03T08:36:01Z</time>
      </trkpt>
      <trkpt lat="46.38382" lon="-1.46976">
        <ele>8.6</ele>
        <time>2020-06-03T08:36:02Z</time>
      </trkpt>
      <trkpt lat="46.38382" lon="-1.46981">
        <ele>8.8</ele>
        <time>2020-06-03T08:36:03Z</time>
      </trkpt>
      <trkpt lat="46.38383" lon="-1.46986">
        <ele>8.9</ele>
        <time>2020-06-03T08:36:04Z</time>
      </trkpt>
      <trkpt lat="46.38382" lon="-1.46992">
        <ele>9</ele>
        <time>2020-06-03T08:36:05Z</time>
      </trkpt>
      <trkpt lat="46.38382" lon="-1.46998">
        <ele>9.1</ele>
        <time>2020-06-03T08:36:06Z</time>
      </trkpt>
      <trkpt lat="46.38382" lon="-1.47004">
        <ele>9.2</ele>
        <time>2020-06-03T08:36:07Z</time>
      </trkpt>
      <trkpt lat="46.38384" lon="-1.47009">
        <ele>9.4</ele>
        <time>2020-06-03T08:36:08Z</time>
      </trkpt>
      <trkpt lat="46.38385" lon="-1.47013">
        <ele>9.5</ele>
        <time>2020-06-03T08:36:09Z</time>
      </trkpt>
      <trkpt lat="46.38389" lon="-1.47016">
        <ele>9.6</ele>
        <time>2020-06-03T08:36:10Z</time>
      </trkpt>
      <trkpt lat="46.3839" lon="-1.47017">
        <ele>9.6</ele>
        <time>2020-06-03T08:36:11Z</time>
      </trkpt>
      <trkpt lat="46.38393" lon="-1.4702">
        <ele>9.7</ele>
        <time>2020-06-03T08:36:12Z</time>
      </trkpt>
      <trkpt lat="46.38394" lon="-1.47021">
        <ele>9.7</ele>
        <time>2020-06-03T08:36:13Z</time>
      </trkpt>
      <trkpt lat="46.38396" lon="-1.47023">
        <ele>9.8</ele>
        <time>2020-06-03T08:36:14Z</time>
      </trkpt>
      <trkpt lat="46.38399" lon="-1.47024">
        <ele>9.9</ele>
        <time>2020-06-03T08:36:15Z</time>
      </trkpt>
      <trkpt lat="46.38403" lon="-1.47026">
        <ele>9.9</ele>
        <time>2020-06-03T08:36:16Z</time>
      </trkpt>
      <trkpt lat="46.38406" lon="-1.47027">
        <ele>10</ele>
        <time>2020-06-03T08:36:17Z</time>
      </trkpt>
      <trkpt lat="46.38409" lon="-1.47029">
        <ele>10</ele>
        <time>2020-06-03T08:36:18Z</time>
      </trkpt>
      <trkpt lat="46.3841" lon="-1.47029">
        <ele>10</ele>
        <time>2020-06-03T08:36:19Z</time>
      </trkpt>
      <trkpt lat="46.38414" lon="-1.47029">
        <ele>10</ele>
        <time>2020-06-03T08:36:20Z</time>
      </trkpt>
      <trkpt lat="46.38415" lon="-1.47029">
        <ele>10</ele>
        <time>2020-06-03T08:36:21Z</time>
      </trkpt>
      <trkpt lat="46.38418" lon="-1.4703">
        <ele>10</ele>
        <time>2020-06-03T08:36:22Z</time>
      </trkpt>
      <trkpt lat="46.38421" lon="-1.47031">
        <ele>10</ele>
        <time>2020-06-03T08:36:23Z</time>
      </trkpt>
      <trkpt lat="46.38425" lon="-1.47032">
        <ele>9.9</ele>
        <time>2020-06-03T08:36:24Z</time>
      </trkpt>
      <trkpt lat="46.38433" lon="-1.47031">
        <ele>9.7</ele>
        <time>2020-06-03T08:36:25Z</time>
      </trkpt>
      <trkpt lat="46.38441" lon="-1.47032">
        <ele>9.5</ele>
        <time>2020-06-03T08:36:26Z</time>
      </trkpt>
      <trkpt lat="46.3845" lon="-1.47033">
        <ele>9.2</ele>
        <time>2020-06-03T08:36:27Z</time>
      </trkpt>
      <trkpt lat="46.38455" lon="-1.47035">
        <ele>9.1</ele>
        <time>2020-06-03T08:36:28Z</time>
      </trkpt>
      <trkpt lat="46.38461" lon="-1.47039">
        <ele>9.1</ele>
        <time>2020-06-03T08:36:29Z</time>
      </trkpt>
      <trkpt lat="46.38467" lon="-1.47044">
        <ele>9.1</ele>
        <time>2020-06-03T08:36:30Z</time>
      </trkpt>
      <trkpt lat="46.38474" lon="-1.47047">
        <ele>9</ele>
        <time>2020-06-03T08:36:31Z</time>
      </trkpt>
      <trkpt lat="46.3848" lon="-1.4705">
        <ele>9</ele>
        <time>2020-06-03T08:36:32Z</time>
      </trkpt>
      <trkpt lat="46.38485" lon="-1.47053">
        <ele>8.9</ele>
        <time>2020-06-03T08:36:33Z</time>
      </trkpt>
      <trkpt lat="46.3849" lon="-1.47056">
        <ele>8.9</ele>
        <time>2020-06-03T08:36:34Z</time>
      </trkpt>
      <trkpt lat="46.38495" lon="-1.4706">
        <ele>8.8</ele>
        <time>2020-06-03T08:36:35Z</time>
      </trkpt>
      <trkpt lat="46.38497" lon="-1.47064">
        <ele>8.8</ele>
        <time>2020-06-03T08:36:36Z</time>
      </trkpt>
      <trkpt lat="46.38498" lon="-1.4707">
        <ele>8.7</ele>
        <time>2020-06-03T08:36:37Z</time>
      </trkpt>
      <trkpt lat="46.38498" lon="-1.47077">
        <ele>8.7</ele>
        <time>2020-06-03T08:36:38Z</time>
      </trkpt>
      <trkpt lat="46.38498" lon="-1.47084">
        <ele>8.7</ele>
        <time>2020-06-03T08:36:39Z</time>
      </trkpt>
      <trkpt lat="46.38498" lon="-1.4709">
        <ele>8.6</ele>
        <time>2020-06-03T08:36:40Z</time>
      </trkpt>
      <trkpt lat="46.38498" lon="-1.47096">
        <ele>8.6</ele>
        <time>2020-06-03T08:36:41Z</time>
      </trkpt>
      <trkpt lat="46.38497" lon="-1.47103">
        <ele>8.6</ele>
        <time>2020-06-03T08:36:42Z</time>
      </trkpt>
      <trkpt lat="46.38497" lon="-1.47109">
        <ele>8.5</ele>
        <time>2020-06-03T08:36:43Z</time>
      </trkpt>
      <trkpt lat="46.38497" lon="-1.47114">
        <ele>8.5</ele>
        <time>2020-06-03T08:36:44Z</time>
      </trkpt>
      <trkpt lat="46.38498" lon="-1.4712">
        <ele>8.5</ele>
        <time>2020-06-03T08:36:45Z</time>
      </trkpt>
      <trkpt lat="46.38499" lon="-1.47127">
        <ele>8.5</ele>
        <time>2020-06-03T08:36:46Z</time>
      </trkpt>
      <trkpt lat="46.385" lon="-1.47132">
        <ele>8.4</ele>
        <time>2020-06-03T08:36:47Z</time>
      </trkpt>
      <trkpt lat="46.38501" lon="-1.47137">
        <ele>8.3</ele>
        <time>2020-06-03T08:36:48Z</time>
      </trkpt>
      <trkpt lat="46.38502" lon="-1.47142">
        <ele>8.2</ele>
        <time>2020-06-03T08:36:49Z</time>
      </trkpt>
      <trkpt lat="46.38504" lon="-1.47149">
        <ele>8.1</ele>
        <time>2020-06-03T08:36:50Z</time>
      </trkpt>
      <trkpt lat="46.38506" lon="-1.47154">
        <ele>8.1</ele>
        <time>2020-06-03T08:36:51Z</time>
      </trkpt>
      <trkpt lat="46.38507" lon="-1.47159">
        <ele>8.1</ele>
        <time>2020-06-03T08:36:52Z</time>
      </trkpt>
      <trkpt lat="46.3851" lon="-1.47164">
        <ele>8.1</ele>
        <time>2020-06-03T08:36:53Z</time>
      </trkpt>
      <trkpt lat="46.38512" lon="-1.4717">
        <ele>8.3</ele>
        <time>2020-06-03T08:36:54Z</time>
      </trkpt>
      <trkpt lat="46.38513" lon="-1.47175">
        <ele>8.4</ele>
        <time>2020-06-03T08:36:55Z</time>
      </trkpt>
      <trkpt lat="46.38514" lon="-1.47181">
        <ele>8.5</ele>
        <time>2020-06-03T08:36:56Z</time>
      </trkpt>
      <trkpt lat="46.38514" lon="-1.47188">
        <ele>8.7</ele>
        <time>2020-06-03T08:36:57Z</time>
      </trkpt>
      <trkpt lat="46.38514" lon="-1.47196">
        <ele>8.9</ele>
        <time>2020-06-03T08:36:58Z</time>
      </trkpt>
      <trkpt lat="46.38514" lon="-1.47204">
        <ele>9</ele>
        <time>2020-06-03T08:36:59Z</time>
      </trkpt>
      <trkpt lat="46.38514" lon="-1.47211">
        <ele>9.3</ele>
        <time>2020-06-03T08:37:00Z</time>
      </trkpt>
      <trkpt lat="46.38513" lon="-1.47217">
        <ele>9.4</ele>
        <time>2020-06-03T08:37:01Z</time>
      </trkpt>
      <trkpt lat="46.38513" lon="-1.47224">
        <ele>9.6</ele>
        <time>2020-06-03T08:37:02Z</time>
      </trkpt>
      <trkpt lat="46.38512" lon="-1.47232">
        <ele>9.8</ele>
        <time>2020-06-03T08:37:03Z</time>
      </trkpt>
      <trkpt lat="46.38512" lon="-1.47238">
        <ele>10</ele>
        <time>2020-06-03T08:37:04Z</time>
      </trkpt>
      <trkpt lat="46.38512" lon="-1.47244">
        <ele>10.2</ele>
        <time>2020-06-03T08:37:05Z</time>
      </trkpt>
      <trkpt lat="46.38512" lon="-1.47251">
        <ele>10.5</ele>
        <time>2020-06-03T08:37:06Z</time>
      </trkpt>
      <trkpt lat="46.38512" lon="-1.47258">
        <ele>10.8</ele>
        <time>2020-06-03T08:37:07Z</time>
      </trkpt>
      <trkpt lat="46.38512" lon="-1.47264">
        <ele>11.1</ele>
        <time>2020-06-03T08:37:08Z</time>
      </trkpt>
      <trkpt lat="46.38512" lon="-1.47269">
        <ele>11.3</ele>
        <time>2020-06-03T08:37:09Z</time>
      </trkpt>
      <trkpt lat="46.38512" lon="-1.47274">
        <ele>11.6</ele>
        <time>2020-06-03T08:37:10Z</time>
      </trkpt>
      <trkpt lat="46.38512" lon="-1.47279">
        <ele>11.8</ele>
        <time>2020-06-03T08:37:11Z</time>
      </trkpt>
      <trkpt lat="46.38512" lon="-1.47285">
        <ele>12.2</ele>
        <time>2020-06-03T08:37:12Z</time>
      </trkpt>
      <trkpt lat="46.38512" lon="-1.47291">
        <ele>12.5</ele>
        <time>2020-06-03T08:37:13Z</time>
      </trkpt>
      <trkpt lat="46.38511" lon="-1.47296">
        <ele>12.7</ele>
        <time>2020-06-03T08:37:14Z</time>
      </trkpt>
      <trkpt lat="46.38511" lon="-1.47301">
        <ele>13</ele>
        <time>2020-06-03T08:37:15Z</time>
      </trkpt>
      <trkpt lat="46.3851" lon="-1.47306">
        <ele>13.2</ele>
        <time>2020-06-03T08:37:16Z</time>
      </trkpt>
      <trkpt lat="46.3851" lon="-1.47312">
        <ele>13.5</ele>
        <time>2020-06-03T08:37:17Z</time>
      </trkpt>
      <trkpt lat="46.38509" lon="-1.47318">
        <ele>13.8</ele>
        <time>2020-06-03T08:37:18Z</time>
      </trkpt>
      <trkpt lat="46.38508" lon="-1.47322">
        <ele>14</ele>
        <time>2020-06-03T08:37:19Z</time>
      </trkpt>
      <trkpt lat="46.38507" lon="-1.47327">
        <ele>14.2</ele>
        <time>2020-06-03T08:37:20Z</time>
      </trkpt>
      <trkpt lat="46.38507" lon="-1.47332">
        <ele>14.4</ele>
        <time>2020-06-03T08:37:21Z</time>
      </trkpt>
      <trkpt lat="46.38506" lon="-1.47337">
        <ele>14.6</ele>
        <time>2020-06-03T08:37:22Z</time>
      </trkpt>
      <trkpt lat="46.38506" lon="-1.47342">
        <ele>14.8</ele>
        <time>2020-06-03T08:37:23Z</time>
      </trkpt>
      <trkpt lat="46.38507" lon="-1.47344">
        <ele>14.8</ele>
        <time>2020-06-03T08:37:24Z</time>
      </trkpt>
      <trkpt lat="46.38507" lon="-1.47348">
        <ele>15</ele>
        <time>2020-06-03T08:37:25Z</time>
      </trkpt>
      <trkpt lat="46.38507" lon="-1.47355">
        <ele>15.1</ele>
        <time>2020-06-03T08:37:26Z</time>
      </trkpt>
      <trkpt lat="46.38507" lon="-1.47361">
        <ele>15.3</ele>
        <time>2020-06-03T08:37:27Z</time>
      </trkpt>
      <trkpt lat="46.38506" lon="-1.47367">
        <ele>15.4</ele>
        <time>2020-06-03T08:37:28Z</time>
      </trkpt>
      <trkpt lat="46.38505" lon="-1.47372">
        <ele>15.4</ele>
        <time>2020-06-03T08:37:29Z</time>
      </trkpt>
      <trkpt lat="46.38504" lon="-1.47378">
        <ele>15.5</ele>
        <time>2020-06-03T08:37:30Z</time>
      </trkpt>
      <trkpt lat="46.38503" lon="-1.47383">
        <ele>15.5</ele>
        <time>2020-06-03T08:37:31Z</time>
      </trkpt>
      <trkpt lat="46.38503" lon="-1.47389">
        <ele>15.4</ele>
        <time>2020-06-03T08:37:32Z</time>
      </trkpt>
      <trkpt lat="46.38503" lon="-1.47391">
        <ele>15.4</ele>
        <time>2020-06-03T08:37:33Z</time>
      </trkpt>
      <trkpt lat="46.38503" lon="-1.47396">
        <ele>15.4</ele>
        <time>2020-06-03T08:37:34Z</time>
      </trkpt>
      <trkpt lat="46.38503" lon="-1.47402">
        <ele>15.2</ele>
        <time>2020-06-03T08:37:35Z</time>
      </trkpt>
      <trkpt lat="46.38503" lon="-1.47408">
        <ele>15.1</ele>
        <time>2020-06-03T08:37:36Z</time>
      </trkpt>
      <trkpt lat="46.38504" lon="-1.47414">
        <ele>14.9</ele>
        <time>2020-06-03T08:37:37Z</time>
      </trkpt>
      <trkpt lat="46.38505" lon="-1.47423">
        <ele>14.6</ele>
        <time>2020-06-03T08:37:38Z</time>
      </trkpt>
      <trkpt lat="46.38507" lon="-1.47428">
        <ele>14.4</ele>
        <time>2020-06-03T08:37:39Z</time>
      </trkpt>
      <trkpt lat="46.38507" lon="-1.47437">
        <ele>14</ele>
        <time>2020-06-03T08:37:40Z</time>
      </trkpt>
      <trkpt lat="46.38508" lon="-1.47447">
        <ele>13.6</ele>
        <time>2020-06-03T08:37:41Z</time>
      </trkpt>
      <trkpt lat="46.38509" lon="-1.47456">
        <ele>13.1</ele>
        <time>2020-06-03T08:37:42Z</time>
      </trkpt>
      <trkpt lat="46.38507" lon="-1.47466">
        <ele>12.7</ele>
        <time>2020-06-03T08:37:43Z</time>
      </trkpt>
      <trkpt lat="46.38506" lon="-1.47475">
        <ele>12.2</ele>
        <time>2020-06-03T08:37:44Z</time>
      </trkpt>
      <trkpt lat="46.38506" lon="-1.47486">
        <ele>11.7</ele>
        <time>2020-06-03T08:37:45Z</time>
      </trkpt>
      <trkpt lat="46.38506" lon="-1.47497">
        <ele>11.3</ele>
        <time>2020-06-03T08:37:46Z</time>
      </trkpt>
      <trkpt lat="46.38507" lon="-1.47509">
        <ele>10.9</ele>
        <time>2020-06-03T08:37:47Z</time>
      </trkpt>
      <trkpt lat="46.38506" lon="-1.47518">
        <ele>10.6</ele>
        <time>2020-06-03T08:37:48Z</time>
      </trkpt>
      <trkpt lat="46.38504" lon="-1.47528">
        <ele>10.2</ele>
        <time>2020-06-03T08:37:49Z</time>
      </trkpt>
      <trkpt lat="46.38503" lon="-1.47538">
        <ele>9.8</ele>
        <time>2020-06-03T08:37:50Z</time>
      </trkpt>
      <trkpt lat="46.38502" lon="-1.47551">
        <ele>9.4</ele>
        <time>2020-06-03T08:37:51Z</time>
      </trkpt>
      <trkpt lat="46.385" lon="-1.47564">
        <ele>9</ele>
        <time>2020-06-03T08:37:52Z</time>
      </trkpt>
      <trkpt lat="46.38498" lon="-1.47577">
        <ele>8.7</ele>
        <time>2020-06-03T08:37:53Z</time>
      </trkpt>
      <trkpt lat="46.38495" lon="-1.4759">
        <ele>8.5</ele>
        <time>2020-06-03T08:37:54Z</time>
      </trkpt>
      <trkpt lat="46.38493" lon="-1.47602">
        <ele>8.3</ele>
        <time>2020-06-03T08:37:55Z</time>
      </trkpt>
      <trkpt lat="46.38491" lon="-1.47614">
        <ele>8.1</ele>
        <time>2020-06-03T08:37:56Z</time>
      </trkpt>
      <trkpt lat="46.38488" lon="-1.47626">
        <ele>7.9</ele>
        <time>2020-06-03T08:37:57Z</time>
      </trkpt>
      <trkpt lat="46.38486" lon="-1.47637">
        <ele>7.8</ele>
        <time>2020-06-03T08:37:58Z</time>
      </trkpt>
      <trkpt lat="46.38484" lon="-1.47648">
        <ele>7.8</ele>
        <time>2020-06-03T08:37:59Z</time>
      </trkpt>
      <trkpt lat="46.38481" lon="-1.47658">
        <ele>7.7</ele>
        <time>2020-06-03T08:38:00Z</time>
      </trkpt>
      <trkpt lat="46.38479" lon="-1.47668">
        <ele>7.7</ele>
        <time>2020-06-03T08:38:01Z</time>
      </trkpt>
      <trkpt lat="46.38476" lon="-1.47677">
        <ele>7.7</ele>
        <time>2020-06-03T08:38:02Z</time>
      </trkpt>
      <trkpt lat="46.38473" lon="-1.47686">
        <ele>7.7</ele>
        <time>2020-06-03T08:38:03Z</time>
      </trkpt>
      <trkpt lat="46.3847" lon="-1.47697">
        <ele>7.7</ele>
        <time>2020-06-03T08:38:04Z</time>
      </trkpt>
      <trkpt lat="46.38467" lon="-1.47708">
        <ele>7.7</ele>
        <time>2020-06-03T08:38:05Z</time>
      </trkpt>
      <trkpt lat="46.38465" lon="-1.47718">
        <ele>7.7</ele>
        <time>2020-06-03T08:38:06Z</time>
      </trkpt>
      <trkpt lat="46.38462" lon="-1.47727">
        <ele>7.6</ele>
        <time>2020-06-03T08:38:07Z</time>
      </trkpt>
      <trkpt lat="46.3846" lon="-1.47735">
        <ele>7.6</ele>
        <time>2020-06-03T08:38:08Z</time>
      </trkpt>
      <trkpt lat="46.38458" lon="-1.47742">
        <ele>7.6</ele>
        <time>2020-06-03T08:38:09Z</time>
      </trkpt>
      <trkpt lat="46.38456" lon="-1.4775">
        <ele>7.6</ele>
        <time>2020-06-03T08:38:10Z</time>
      </trkpt>
      <trkpt lat="46.38455" lon="-1.47757">
        <ele>7.6</ele>
        <time>2020-06-03T08:38:11Z</time>
      </trkpt>
      <trkpt lat="46.38453" lon="-1.47763">
        <ele>7.6</ele>
        <time>2020-06-03T08:38:12Z</time>
      </trkpt>
      <trkpt lat="46.38453" lon="-1.4777">
        <ele>7.6</ele>
        <time>2020-06-03T08:38:13Z</time>
      </trkpt>
      <trkpt lat="46.38453" lon="-1.47777">
        <ele>7.6</ele>
        <time>2020-06-03T08:38:14Z</time>
      </trkpt>
      <trkpt lat="46.38453" lon="-1.47785">
        <ele>7.6</ele>
        <time>2020-06-03T08:38:15Z</time>
      </trkpt>
      <trkpt lat="46.38453" lon="-1.47792">
        <ele>7.6</ele>
        <time>2020-06-03T08:38:16Z</time>
      </trkpt>
      <trkpt lat="46.38453" lon="-1.47798">
        <ele>7.6</ele>
        <time>2020-06-03T08:38:17Z</time>
      </trkpt>
      <trkpt lat="46.38454" lon="-1.47805">
        <ele>7.6</ele>
        <time>2020-06-03T08:38:18Z</time>
      </trkpt>
      <trkpt lat="46.38453" lon="-1.47812">
        <ele>7.6</ele>
        <time>2020-06-03T08:38:19Z</time>
      </trkpt>
      <trkpt lat="46.38454" lon="-1.47818">
        <ele>7.7</ele>
        <time>2020-06-03T08:38:20Z</time>
      </trkpt>
      <trkpt lat="46.38453" lon="-1.47825">
        <ele>7.7</ele>
        <time>2020-06-03T08:38:21Z</time>
      </trkpt>
      <trkpt lat="46.38453" lon="-1.47832">
        <ele>7.7</ele>
        <time>2020-06-03T08:38:22Z</time>
      </trkpt>
      <trkpt lat="46.38453" lon="-1.47839">
        <ele>7.8</ele>
        <time>2020-06-03T08:38:23Z</time>
      </trkpt>
      <trkpt lat="46.38453" lon="-1.47846">
        <ele>7.8</ele>
        <time>2020-06-03T08:38:24Z</time>
      </trkpt>
      <trkpt lat="46.38454" lon="-1.47853">
        <ele>7.9</ele>
        <time>2020-06-03T08:38:25Z</time>
      </trkpt>
      <trkpt lat="46.38454" lon="-1.4786">
        <ele>8</ele>
        <time>2020-06-03T08:38:26Z</time>
      </trkpt>
      <trkpt lat="46.38454" lon="-1.47866">
        <ele>8</ele>
        <time>2020-06-03T08:38:27Z</time>
      </trkpt>
      <trkpt lat="46.38454" lon="-1.47872">
        <ele>8.1</ele>
        <time>2020-06-03T08:38:28Z</time>
      </trkpt>
      <trkpt lat="46.38453" lon="-1.47878">
        <ele>8.1</ele>
        <time>2020-06-03T08:38:29Z</time>
      </trkpt>
      <trkpt lat="46.38452" lon="-1.47884">
        <ele>8.2</ele>
        <time>2020-06-03T08:38:30Z</time>
      </trkpt>
      <trkpt lat="46.38451" lon="-1.47889">
        <ele>8.2</ele>
        <time>2020-06-03T08:38:31Z</time>
      </trkpt>
      <trkpt lat="46.38451" lon="-1.47893">
        <ele>8.3</ele>
        <time>2020-06-03T08:38:32Z</time>
      </trkpt>
      <trkpt lat="46.38451" lon="-1.47897">
        <ele>8.3</ele>
        <time>2020-06-03T08:38:33Z</time>
      </trkpt>
      <trkpt lat="46.38451" lon="-1.47903">
        <ele>8.4</ele>
        <time>2020-06-03T08:38:34Z</time>
      </trkpt>
      <trkpt lat="46.38452" lon="-1.47909">
        <ele>8.5</ele>
        <time>2020-06-03T08:38:35Z</time>
      </trkpt>
      <trkpt lat="46.38452" lon="-1.47916">
        <ele>8.6</ele>
        <time>2020-06-03T08:38:36Z</time>
      </trkpt>
      <trkpt lat="46.38451" lon="-1.47922">
        <ele>8.6</ele>
        <time>2020-06-03T08:38:37Z</time>
      </trkpt>
      <trkpt lat="46.38452" lon="-1.47928">
        <ele>8.7</ele>
        <time>2020-06-03T08:38:38Z</time>
      </trkpt>
      <trkpt lat="46.38452" lon="-1.47934">
        <ele>8.8</ele>
        <time>2020-06-03T08:38:39Z</time>
      </trkpt>
      <trkpt lat="46.38451" lon="-1.47939">
        <ele>8.8</ele>
        <time>2020-06-03T08:38:40Z</time>
      </trkpt>
      <trkpt lat="46.38451" lon="-1.47945">
        <ele>8.9</ele>
        <time>2020-06-03T08:38:41Z</time>
      </trkpt>
      <trkpt lat="46.38451" lon="-1.47951">
        <ele>9</ele>
        <time>2020-06-03T08:38:42Z</time>
      </trkpt>
      <trkpt lat="46.38451" lon="-1.47958">
        <ele>9</ele>
        <time>2020-06-03T08:38:43Z</time>
      </trkpt>
      <trkpt lat="46.38451" lon="-1.47965">
        <ele>9.1</ele>
        <time>2020-06-03T08:38:44Z</time>
      </trkpt>
      <trkpt lat="46.3845" lon="-1.47971">
        <ele>9.1</ele>
        <time>2020-06-03T08:38:45Z</time>
      </trkpt>
      <trkpt lat="46.3845" lon="-1.47977">
        <ele>9.2</ele>
        <time>2020-06-03T08:38:46Z</time>
      </trkpt>
      <trkpt lat="46.38451" lon="-1.47982">
        <ele>9.2</ele>
        <time>2020-06-03T08:38:47Z</time>
      </trkpt>
      <trkpt lat="46.3845" lon="-1.47987">
        <ele>9.2</ele>
        <time>2020-06-03T08:38:48Z</time>
      </trkpt>
      <trkpt lat="46.3845" lon="-1.47994">
        <ele>9.3</ele>
        <time>2020-06-03T08:38:49Z</time>
      </trkpt>
      <trkpt lat="46.3845" lon="-1.48001">
        <ele>9.3</ele>
        <time>2020-06-03T08:38:50Z</time>
      </trkpt>
      <trkpt lat="46.38451" lon="-1.48008">
        <ele>9.3</ele>
        <time>2020-06-03T08:38:51Z</time>
      </trkpt>
      <trkpt lat="46.38451" lon="-1.48015">
        <ele>9.4</ele>
        <time>2020-06-03T08:38:52Z</time>
      </trkpt>
      <trkpt lat="46.3845" lon="-1.48021">
        <ele>9.4</ele>
        <time>2020-06-03T08:38:53Z</time>
      </trkpt>
      <trkpt lat="46.3845" lon="-1.48028">
        <ele>9.4</ele>
        <time>2020-06-03T08:38:54Z</time>
      </trkpt>
      <trkpt lat="46.38449" lon="-1.48035">
        <ele>9.5</ele>
        <time>2020-06-03T08:38:55Z</time>
      </trkpt>
      <trkpt lat="46.38448" lon="-1.48042">
        <ele>9.5</ele>
        <time>2020-06-03T08:38:56Z</time>
      </trkpt>
      <trkpt lat="46.38448" lon="-1.48048">
        <ele>9.5</ele>
        <time>2020-06-03T08:38:57Z</time>
      </trkpt>
      <trkpt lat="46.38448" lon="-1.48054">
        <ele>9.6</ele>
        <time>2020-06-03T08:38:58Z</time>
      </trkpt>
      <trkpt lat="46.38448" lon="-1.4806">
        <ele>9.6</ele>
        <time>2020-06-03T08:38:59Z</time>
      </trkpt>
      <trkpt lat="46.38447" lon="-1.48065">
        <ele>9.7</ele>
        <time>2020-06-03T08:39:00Z</time>
      </trkpt>
      <trkpt lat="46.38446" lon="-1.48071">
        <ele>9.7</ele>
        <time>2020-06-03T08:39:01Z</time>
      </trkpt>
      <trkpt lat="46.38445" lon="-1.48076">
        <ele>9.7</ele>
        <time>2020-06-03T08:39:02Z</time>
      </trkpt>
      <trkpt lat="46.38444" lon="-1.48082">
        <ele>9.8</ele>
        <time>2020-06-03T08:39:03Z</time>
      </trkpt>
      <trkpt lat="46.38445" lon="-1.48087">
        <ele>9.8</ele>
        <time>2020-06-03T08:39:04Z</time>
      </trkpt>
      <trkpt lat="46.38445" lon="-1.48092">
        <ele>9.9</ele>
        <time>2020-06-03T08:39:05Z</time>
      </trkpt>
      <trkpt lat="46.38446" lon="-1.48096">
        <ele>9.9</ele>
        <time>2020-06-03T08:39:06Z</time>
      </trkpt>
      <trkpt lat="46.38447" lon="-1.481">
        <ele>10</ele>
        <time>2020-06-03T08:39:07Z</time>
      </trkpt>
      <trkpt lat="46.38449" lon="-1.48105">
        <ele>10</ele>
        <time>2020-06-03T08:39:08Z</time>
      </trkpt>
      <trkpt lat="46.38452" lon="-1.48109">
        <ele>10</ele>
        <time>2020-06-03T08:39:09Z</time>
      </trkpt>
      <trkpt lat="46.38452" lon="-1.48111">
        <ele>10</ele>
        <time>2020-06-03T08:39:10Z</time>
      </trkpt>
      <trkpt lat="46.38455" lon="-1.48114">
        <ele>10.1</ele>
        <time>2020-06-03T08:39:11Z</time>
      </trkpt>
      <trkpt lat="46.38457" lon="-1.48118">
        <ele>10.1</ele>
        <time>2020-06-03T08:39:12Z</time>
      </trkpt>
      <trkpt lat="46.38458" lon="-1.48123">
        <ele>10.1</ele>
        <time>2020-06-03T08:39:13Z</time>
      </trkpt>
      <trkpt lat="46.38459" lon="-1.48129">
        <ele>10</ele>
        <time>2020-06-03T08:39:14Z</time>
      </trkpt>
      <trkpt lat="46.38462" lon="-1.48133">
        <ele>9.9</ele>
        <time>2020-06-03T08:39:15Z</time>
      </trkpt>
      <trkpt lat="46.38462" lon="-1.48134">
        <ele>9.9</ele>
        <time>2020-06-03T08:39:16Z</time>
      </trkpt>
      <trkpt lat="46.38465" lon="-1.48136">
        <ele>9.9</ele>
        <time>2020-06-03T08:39:17Z</time>
      </trkpt>
      <trkpt lat="46.38468" lon="-1.48138">
        <ele>9.8</ele>
        <time>2020-06-03T08:39:18Z</time>
      </trkpt>
      <trkpt lat="46.38471" lon="-1.4814">
        <ele>9.7</ele>
        <time>2020-06-03T08:39:19Z</time>
      </trkpt>
      <trkpt lat="46.38475" lon="-1.48142">
        <ele>9.6</ele>
        <time>2020-06-03T08:39:20Z</time>
      </trkpt>
      <trkpt lat="46.38478" lon="-1.48144">
        <ele>9.6</ele>
        <time>2020-06-03T08:39:21Z</time>
      </trkpt>
      <trkpt lat="46.38483" lon="-1.48148">
        <ele>9.5</ele>
        <time>2020-06-03T08:39:22Z</time>
      </trkpt>
      <trkpt lat="46.38487" lon="-1.48151">
        <ele>9.4</ele>
        <time>2020-06-03T08:39:23Z</time>
      </trkpt>
      <trkpt lat="46.38492" lon="-1.48154">
        <ele>9.2</ele>
        <time>2020-06-03T08:39:24Z</time>
      </trkpt>
      <trkpt lat="46.38497" lon="-1.48157">
        <ele>9.1</ele>
        <time>2020-06-03T08:39:25Z</time>
      </trkpt>
      <trkpt lat="46.38502" lon="-1.48159">
        <ele>9.1</ele>
        <time>2020-06-03T08:39:26Z</time>
      </trkpt>
      <trkpt lat="46.38507" lon="-1.48162">
        <ele>8.9</ele>
        <time>2020-06-03T08:39:27Z</time>
      </trkpt>
      <trkpt lat="46.38513" lon="-1.48166">
        <ele>8.8</ele>
        <time>2020-06-03T08:39:28Z</time>
      </trkpt>
      <trkpt lat="46.38518" lon="-1.4817">
        <ele>8.7</ele>
        <time>2020-06-03T08:39:29Z</time>
      </trkpt>
      <trkpt lat="46.38522" lon="-1.48174">
        <ele>8.6</ele>
        <time>2020-06-03T08:39:30Z</time>
      </trkpt>
      <trkpt lat="46.38528" lon="-1.4818">
        <ele>8.4</ele>
        <time>2020-06-03T08:39:31Z</time>
      </trkpt>
      <trkpt lat="46.38536" lon="-1.48187">
        <ele>8.2</ele>
        <time>2020-06-03T08:39:32Z</time>
      </trkpt>
      <trkpt lat="46.38541" lon="-1.48192">
        <ele>8.1</ele>
        <time>2020-06-03T08:39:33Z</time>
      </trkpt>
      <trkpt lat="46.38546" lon="-1.48195">
        <ele>8.1</ele>
        <time>2020-06-03T08:39:34Z</time>
      </trkpt>
      <trkpt lat="46.38551" lon="-1.482">
        <ele>8</ele>
        <time>2020-06-03T08:39:35Z</time>
      </trkpt>
      <trkpt lat="46.38558" lon="-1.48205">
        <ele>8</ele>
        <time>2020-06-03T08:39:36Z</time>
      </trkpt>
      <trkpt lat="46.38563" lon="-1.48209">
        <ele>7.9</ele>
        <time>2020-06-03T08:39:37Z</time>
      </trkpt>
      <trkpt lat="46.38567" lon="-1.48213">
        <ele>7.9</ele>
        <time>2020-06-03T08:39:38Z</time>
      </trkpt>
      <trkpt lat="46.38573" lon="-1.48217">
        <ele>7.9</ele>
        <time>2020-06-03T08:39:39Z</time>
      </trkpt>
      <trkpt lat="46.3858" lon="-1.48222">
        <ele>7.9</ele>
        <time>2020-06-03T08:39:40Z</time>
      </trkpt>
      <trkpt lat="46.38585" lon="-1.48226">
        <ele>7.9</ele>
        <time>2020-06-03T08:39:41Z</time>
      </trkpt>
      <trkpt lat="46.38591" lon="-1.48233">
        <ele>7.9</ele>
        <time>2020-06-03T08:39:42Z</time>
      </trkpt>
      <trkpt lat="46.38597" lon="-1.48239">
        <ele>7.8</ele>
        <time>2020-06-03T08:39:43Z</time>
      </trkpt>
      <trkpt lat="46.38603" lon="-1.48245">
        <ele>7.8</ele>
        <time>2020-06-03T08:39:44Z</time>
      </trkpt>
      <trkpt lat="46.38609" lon="-1.48251">
        <ele>7.8</ele>
        <time>2020-06-03T08:39:45Z</time>
      </trkpt>
      <trkpt lat="46.38615" lon="-1.48256">
        <ele>7.8</ele>
        <time>2020-06-03T08:39:46Z</time>
      </trkpt>
      <trkpt lat="46.38621" lon="-1.48261">
        <ele>7.7</ele>
        <time>2020-06-03T08:39:47Z</time>
      </trkpt>
      <trkpt lat="46.38627" lon="-1.48265">
        <ele>7.7</ele>
        <time>2020-06-03T08:39:48Z</time>
      </trkpt>
      <trkpt lat="46.38633" lon="-1.4827">
        <ele>7.8</ele>
        <time>2020-06-03T08:39:49Z</time>
      </trkpt>
      <trkpt lat="46.38639" lon="-1.48274">
        <ele>7.8</ele>
        <time>2020-06-03T08:39:50Z</time>
      </trkpt>
      <trkpt lat="46.38643" lon="-1.48278">
        <ele>7.8</ele>
        <time>2020-06-03T08:39:51Z</time>
      </trkpt>
      <trkpt lat="46.38648" lon="-1.48282">
        <ele>7.8</ele>
        <time>2020-06-03T08:39:52Z</time>
      </trkpt>
      <trkpt lat="46.38653" lon="-1.48286">
        <ele>7.8</ele>
        <time>2020-06-03T08:39:53Z</time>
      </trkpt>
      <trkpt lat="46.38658" lon="-1.4829">
        <ele>7.8</ele>
        <time>2020-06-03T08:39:54Z</time>
      </trkpt>
      <trkpt lat="46.38662" lon="-1.48294">
        <ele>7.8</ele>
        <time>2020-06-03T08:39:55Z</time>
      </trkpt>
      <trkpt lat="46.38666" lon="-1.48297">
        <ele>7.9</ele>
        <time>2020-06-03T08:39:56Z</time>
      </trkpt>
      <trkpt lat="46.38669" lon="-1.48301">
        <ele>8.1</ele>
        <time>2020-06-03T08:39:57Z</time>
      </trkpt>
      <trkpt lat="46.38673" lon="-1.48304">
        <ele>8.2</ele>
        <time>2020-06-03T08:39:58Z</time>
      </trkpt>
      <trkpt lat="46.38676" lon="-1.48308">
        <ele>8.3</ele>
        <time>2020-06-03T08:39:59Z</time>
      </trkpt>
      <trkpt lat="46.38679" lon="-1.48312">
        <ele>8.4</ele>
        <time>2020-06-03T08:40:00Z</time>
      </trkpt>
      <trkpt lat="46.38683" lon="-1.48316">
        <ele>8.5</ele>
        <time>2020-06-03T08:40:01Z</time>
      </trkpt>
      <trkpt lat="46.38687" lon="-1.48321">
        <ele>8.6</ele>
        <time>2020-06-03T08:40:02Z</time>
      </trkpt>
      <trkpt lat="46.3869" lon="-1.48324">
        <ele>8.7</ele>
        <time>2020-06-03T08:40:03Z</time>
      </trkpt>
      <trkpt lat="46.38694" lon="-1.48329">
        <ele>8.7</ele>
        <time>2020-06-03T08:40:04Z</time>
      </trkpt>
      <trkpt lat="46.38698" lon="-1.48336">
        <ele>8.7</ele>
        <time>2020-06-03T08:40:05Z</time>
      </trkpt>
      <trkpt lat="46.38701" lon="-1.48343">
        <ele>8.7</ele>
        <time>2020-06-03T08:40:06Z</time>
      </trkpt>
      <trkpt lat="46.38703" lon="-1.4835">
        <ele>8.7</ele>
        <time>2020-06-03T08:40:07Z</time>
      </trkpt>
      <trkpt lat="46.38705" lon="-1.48357">
        <ele>8.6</ele>
        <time>2020-06-03T08:40:08Z</time>
      </trkpt>
      <trkpt lat="46.38707" lon="-1.48365">
        <ele>8.6</ele>
        <time>2020-06-03T08:40:09Z</time>
      </trkpt>
      <trkpt lat="46.3871" lon="-1.48372">
        <ele>8.5</ele>
        <time>2020-06-03T08:40:10Z</time>
      </trkpt>
      <trkpt lat="46.38713" lon="-1.4838">
        <ele>8.4</ele>
        <time>2020-06-03T08:40:11Z</time>
      </trkpt>
      <trkpt lat="46.38716" lon="-1.48388">
        <ele>8.4</ele>
        <time>2020-06-03T08:40:12Z</time>
      </trkpt>
      <trkpt lat="46.38719" lon="-1.48396">
        <ele>8.3</ele>
        <time>2020-06-03T08:40:13Z</time>
      </trkpt>
      <trkpt lat="46.38722" lon="-1.48403">
        <ele>8.2</ele>
        <time>2020-06-03T08:40:14Z</time>
      </trkpt>
      <trkpt lat="46.38725" lon="-1.48411">
        <ele>8.2</ele>
        <time>2020-06-03T08:40:15Z</time>
      </trkpt>
      <trkpt lat="46.38727" lon="-1.48419">
        <ele>8.2</ele>
        <time>2020-06-03T08:40:16Z</time>
      </trkpt>
      <trkpt lat="46.3873" lon="-1.48426">
        <ele>8.2</ele>
        <time>2020-06-03T08:40:17Z</time>
      </trkpt>
      <trkpt lat="46.38733" lon="-1.48433">
        <ele>8.2</ele>
        <time>2020-06-03T08:40:18Z</time>
      </trkpt>
      <trkpt lat="46.38736" lon="-1.48439">
        <ele>8.3</ele>
        <time>2020-06-03T08:40:19Z</time>
      </trkpt>
      <trkpt lat="46.38739" lon="-1.48445">
        <ele>8.3</ele>
        <time>2020-06-03T08:40:20Z</time>
      </trkpt>
      <trkpt lat="46.38741" lon="-1.48451">
        <ele>8.4</ele>
        <time>2020-06-03T08:40:21Z</time>
      </trkpt>
      <trkpt lat="46.38744" lon="-1.48455">
        <ele>8.4</ele>
        <time>2020-06-03T08:40:22Z</time>
      </trkpt>
      <trkpt lat="46.38747" lon="-1.4846">
        <ele>8.5</ele>
        <time>2020-06-03T08:40:23Z</time>
      </trkpt>
      <trkpt lat="46.38751" lon="-1.48463">
        <ele>8.5</ele>
        <time>2020-06-03T08:40:24Z</time>
      </trkpt>
      <trkpt lat="46.38754" lon="-1.48468">
        <ele>8.5</ele>
        <time>2020-06-03T08:40:25Z</time>
      </trkpt>
      <trkpt lat="46.38758" lon="-1.48472">
        <ele>8.5</ele>
        <time>2020-06-03T08:40:26Z</time>
      </trkpt>
      <trkpt lat="46.38761" lon="-1.48477">
        <ele>8.6</ele>
        <time>2020-06-03T08:40:27Z</time>
      </trkpt>
      <trkpt lat="46.38765" lon="-1.48482">
        <ele>8.6</ele>
        <time>2020-06-03T08:40:28Z</time>
      </trkpt>
      <trkpt lat="46.38769" lon="-1.48487">
        <ele>8.6</ele>
        <time>2020-06-03T08:40:29Z</time>
      </trkpt>
      <trkpt lat="46.38773" lon="-1.48492">
        <ele>8.7</ele>
        <time>2020-06-03T08:40:30Z</time>
      </trkpt>
      <trkpt lat="46.38778" lon="-1.48497">
        <ele>8.7</ele>
        <time>2020-06-03T08:40:31Z</time>
      </trkpt>
      <trkpt lat="46.38783" lon="-1.48502">
        <ele>8.8</ele>
        <time>2020-06-03T08:40:32Z</time>
      </trkpt>
      <trkpt lat="46.38787" lon="-1.48507">
        <ele>8.9</ele>
        <time>2020-06-03T08:40:33Z</time>
      </trkpt>
      <trkpt lat="46.38791" lon="-1.48512">
        <ele>9</ele>
        <time>2020-06-03T08:40:34Z</time>
      </trkpt>
      <trkpt lat="46.38795" lon="-1.48518">
        <ele>9.1</ele>
        <time>2020-06-03T08:40:35Z</time>
      </trkpt>
      <trkpt lat="46.38798" lon="-1.48523">
        <ele>9.2</ele>
        <time>2020-06-03T08:40:36Z</time>
      </trkpt>
      <trkpt lat="46.38802" lon="-1.48528">
        <ele>9.3</ele>
        <time>2020-06-03T08:40:37Z</time>
      </trkpt>
      <trkpt lat="46.38806" lon="-1.48532">
        <ele>9.4</ele>
        <time>2020-06-03T08:40:38Z</time>
      </trkpt>
      <trkpt lat="46.38809" lon="-1.48535">
        <ele>9.5</ele>
        <time>2020-06-03T08:40:39Z</time>
      </trkpt>
      <trkpt lat="46.38812" lon="-1.48538">
        <ele>9.6</ele>
        <time>2020-06-03T08:40:40Z</time>
      </trkpt>
      <trkpt lat="46.38815" lon="-1.48542">
        <ele>9.7</ele>
        <time>2020-06-03T08:40:41Z</time>
      </trkpt>
      <trkpt lat="46.38817" lon="-1.48546">
        <ele>9.8</ele>
        <time>2020-06-03T08:40:42Z</time>
      </trkpt>
      <trkpt lat="46.38819" lon="-1.48549">
        <ele>9.9</ele>
        <time>2020-06-03T08:40:43Z</time>
      </trkpt>
      <trkpt lat="46.38822" lon="-1.48552">
        <ele>9.9</ele>
        <time>2020-06-03T08:40:44Z</time>
      </trkpt>
      <trkpt lat="46.38824" lon="-1.48557">
        <ele>10</ele>
        <time>2020-06-03T08:40:45Z</time>
      </trkpt>
      <trkpt lat="46.38825" lon="-1.48562">
        <ele>10</ele>
        <time>2020-06-03T08:40:46Z</time>
      </trkpt>
      <trkpt lat="46.38826" lon="-1.48567">
        <ele>10</ele>
        <time>2020-06-03T08:40:47Z</time>
      </trkpt>
      <trkpt lat="46.38826" lon="-1.48573">
        <ele>10</ele>
        <time>2020-06-03T08:40:48Z</time>
      </trkpt>
      <trkpt lat="46.38826" lon="-1.48578">
        <ele>10</ele>
        <time>2020-06-03T08:40:49Z</time>
      </trkpt>
      <trkpt lat="46.38827" lon="-1.48584">
        <ele>10</ele>
        <time>2020-06-03T08:40:50Z</time>
      </trkpt>
      <trkpt lat="46.38829" lon="-1.4859">
        <ele>10</ele>
        <time>2020-06-03T08:40:51Z</time>
      </trkpt>
      <trkpt lat="46.38831" lon="-1.48597">
        <ele>9.9</ele>
        <time>2020-06-03T08:40:52Z</time>
      </trkpt>
      <trkpt lat="46.38833" lon="-1.48602">
        <ele>9.9</ele>
        <time>2020-06-03T08:40:53Z</time>
      </trkpt>
      <trkpt lat="46.38834" lon="-1.48609">
        <ele>9.9</ele>
        <time>2020-06-03T08:40:54Z</time>
      </trkpt>
      <trkpt lat="46.38834" lon="-1.48615">
        <ele>9.9</ele>
        <time>2020-06-03T08:40:55Z</time>
      </trkpt>
      <trkpt lat="46.38835" lon="-1.48622">
        <ele>9.9</ele>
        <time>2020-06-03T08:40:56Z</time>
      </trkpt>
      <trkpt lat="46.38835" lon="-1.48628">
        <ele>9.8</ele>
        <time>2020-06-03T08:40:57Z</time>
      </trkpt>
      <trkpt lat="46.38837" lon="-1.48634">
        <ele>9.7</ele>
        <time>2020-06-03T08:40:58Z</time>
      </trkpt>
      <trkpt lat="46.38838" lon="-1.48641">
        <ele>9.6</ele>
        <time>2020-06-03T08:40:59Z</time>
      </trkpt>
      <trkpt lat="46.3884" lon="-1.48649">
        <ele>9.4</ele>
        <time>2020-06-03T08:41:00Z</time>
      </trkpt>
      <trkpt lat="46.3884" lon="-1.48657">
        <ele>9.2</ele>
        <time>2020-06-03T08:41:01Z</time>
      </trkpt>
      <trkpt lat="46.3884" lon="-1.48664">
        <ele>9</ele>
        <time>2020-06-03T08:41:02Z</time>
      </trkpt>
      <trkpt lat="46.38841" lon="-1.48671">
        <ele>8.8</ele>
        <time>2020-06-03T08:41:03Z</time>
      </trkpt>
      <trkpt lat="46.38841" lon="-1.48679">
        <ele>8.5</ele>
        <time>2020-06-03T08:41:04Z</time>
      </trkpt>
      <trkpt lat="46.38842" lon="-1.48687">
        <ele>8.3</ele>
        <time>2020-06-03T08:41:05Z</time>
      </trkpt>
      <trkpt lat="46.38843" lon="-1.48696">
        <ele>8</ele>
        <time>2020-06-03T08:41:06Z</time>
      </trkpt>
      <trkpt lat="46.38844" lon="-1.48704">
        <ele>7.8</ele>
        <time>2020-06-03T08:41:07Z</time>
      </trkpt>
      <trkpt lat="46.38844" lon="-1.48713">
        <ele>7.6</ele>
        <time>2020-06-03T08:41:08Z</time>
      </trkpt>
      <trkpt lat="46.38845" lon="-1.48723">
        <ele>7.4</ele>
        <time>2020-06-03T08:41:09Z</time>
      </trkpt>
      <trkpt lat="46.38845" lon="-1.48732">
        <ele>7.2</ele>
        <time>2020-06-03T08:41:10Z</time>
      </trkpt>
      <trkpt lat="46.38844" lon="-1.48741">
        <ele>7</ele>
        <time>2020-06-03T08:41:11Z</time>
      </trkpt>
      <trkpt lat="46.38845" lon="-1.48751">
        <ele>6.8</ele>
        <time>2020-06-03T08:41:12Z</time>
      </trkpt>
      <trkpt lat="46.38847" lon="-1.48759">
        <ele>6.7</ele>
        <time>2020-06-03T08:41:13Z</time>
      </trkpt>
      <trkpt lat="46.38848" lon="-1.48768">
        <ele>6.6</ele>
        <time>2020-06-03T08:41:14Z</time>
      </trkpt>
      <trkpt lat="46.38848" lon="-1.48777">
        <ele>6.5</ele>
        <time>2020-06-03T08:41:15Z</time>
      </trkpt>
      <trkpt lat="46.38848" lon="-1.48786">
        <ele>6.5</ele>
        <time>2020-06-03T08:41:16Z</time>
      </trkpt>
      <trkpt lat="46.38848" lon="-1.48794">
        <ele>6.5</ele>
        <time>2020-06-03T08:41:17Z</time>
      </trkpt>
      <trkpt lat="46.38847" lon="-1.48802">
        <ele>6.5</ele>
        <time>2020-06-03T08:41:18Z</time>
      </trkpt>
      <trkpt lat="46.38847" lon="-1.4881">
        <ele>6.4</ele>
        <time>2020-06-03T08:41:19Z</time>
      </trkpt>
      <trkpt lat="46.38846" lon="-1.48817">
        <ele>6.4</ele>
        <time>2020-06-03T08:41:20Z</time>
      </trkpt>
      <trkpt lat="46.38846" lon="-1.48824">
        <ele>6.4</ele>
        <time>2020-06-03T08:41:21Z</time>
      </trkpt>
      <trkpt lat="46.38847" lon="-1.48831">
        <ele>6.4</ele>
        <time>2020-06-03T08:41:22Z</time>
      </trkpt>
      <trkpt lat="46.38847" lon="-1.48838">
        <ele>6.4</ele>
        <time>2020-06-03T08:41:23Z</time>
      </trkpt>
      <trkpt lat="46.38848" lon="-1.48844">
        <ele>6.4</ele>
        <time>2020-06-03T08:41:24Z</time>
      </trkpt>
      <trkpt lat="46.38849" lon="-1.48851">
        <ele>6.4</ele>
        <time>2020-06-03T08:41:25Z</time>
      </trkpt>
      <trkpt lat="46.38851" lon="-1.48858">
        <ele>6.4</ele>
        <time>2020-06-03T08:41:26Z</time>
      </trkpt>
      <trkpt lat="46.38853" lon="-1.48864">
        <ele>6.4</ele>
        <time>2020-06-03T08:41:27Z</time>
      </trkpt>
      <trkpt lat="46.38854" lon="-1.48871">
        <ele>6.4</ele>
        <time>2020-06-03T08:41:28Z</time>
      </trkpt>
      <trkpt lat="46.38855" lon="-1.48878">
        <ele>6.4</ele>
        <time>2020-06-03T08:41:29Z</time>
      </trkpt>
      <trkpt lat="46.38855" lon="-1.48884">
        <ele>6.4</ele>
        <time>2020-06-03T08:41:30Z</time>
      </trkpt>
      <trkpt lat="46.38855" lon="-1.4889">
        <ele>6.4</ele>
        <time>2020-06-03T08:41:31Z</time>
      </trkpt>
      <trkpt lat="46.38856" lon="-1.48896">
        <ele>6.4</ele>
        <time>2020-06-03T08:41:32Z</time>
      </trkpt>
      <trkpt lat="46.38855" lon="-1.48902">
        <ele>6.4</ele>
        <time>2020-06-03T08:41:33Z</time>
      </trkpt>
      <trkpt lat="46.38854" lon="-1.48908">
        <ele>6.4</ele>
        <time>2020-06-03T08:41:34Z</time>
      </trkpt>
      <trkpt lat="46.38853" lon="-1.48914">
        <ele>6.4</ele>
        <time>2020-06-03T08:41:35Z</time>
      </trkpt>
      <trkpt lat="46.38851" lon="-1.48921">
        <ele>6.4</ele>
        <time>2020-06-03T08:41:36Z</time>
      </trkpt>
      <trkpt lat="46.38852" lon="-1.48928">
        <ele>6.4</ele>
        <time>2020-06-03T08:41:37Z</time>
      </trkpt>
      <trkpt lat="46.38852" lon="-1.48934">
        <ele>6.4</ele>
        <time>2020-06-03T08:41:38Z</time>
      </trkpt>
      <trkpt lat="46.38852" lon="-1.48941">
        <ele>6.3</ele>
        <time>2020-06-03T08:41:39Z</time>
      </trkpt>
      <trkpt lat="46.38852" lon="-1.48949">
        <ele>6.3</ele>
        <time>2020-06-03T08:41:40Z</time>
      </trkpt>
      <trkpt lat="46.38852" lon="-1.48956">
        <ele>6.3</ele>
        <time>2020-06-03T08:41:41Z</time>
      </trkpt>
      <trkpt lat="46.38853" lon="-1.48964">
        <ele>6.3</ele>
        <time>2020-06-03T08:41:42Z</time>
      </trkpt>
      <trkpt lat="46.38854" lon="-1.48972">
        <ele>6.3</ele>
        <time>2020-06-03T08:41:43Z</time>
      </trkpt>
      <trkpt lat="46.38856" lon="-1.4898">
        <ele>6.3</ele>
        <time>2020-06-03T08:41:44Z</time>
      </trkpt>
      <trkpt lat="46.38858" lon="-1.48988">
        <ele>6.3</ele>
        <time>2020-06-03T08:41:45Z</time>
      </trkpt>
      <trkpt lat="46.38862" lon="-1.48994">
        <ele>6.3</ele>
        <time>2020-06-03T08:41:46Z</time>
      </trkpt>
      <trkpt lat="46.38865" lon="-1.49001">
        <ele>6.3</ele>
        <time>2020-06-03T08:41:47Z</time>
      </trkpt>
      <trkpt lat="46.38868" lon="-1.49007">
        <ele>6.4</ele>
        <time>2020-06-03T08:41:48Z</time>
      </trkpt>
      <trkpt lat="46.3887" lon="-1.49014">
        <ele>6.4</ele>
        <time>2020-06-03T08:41:49Z</time>
      </trkpt>
      <trkpt lat="46.38873" lon="-1.4902">
        <ele>6.4</ele>
        <time>2020-06-03T08:41:50Z</time>
      </trkpt>
      <trkpt lat="46.38875" lon="-1.49027">
        <ele>6.5</ele>
        <time>2020-06-03T08:41:51Z</time>
      </trkpt>
      <trkpt lat="46.38877" lon="-1.49033">
        <ele>6.5</ele>
        <time>2020-06-03T08:41:52Z</time>
      </trkpt>
      <trkpt lat="46.38879" lon="-1.4904">
        <ele>6.6</ele>
        <time>2020-06-03T08:41:53Z</time>
      </trkpt>
      <trkpt lat="46.38881" lon="-1.49047">
        <ele>6.6</ele>
        <time>2020-06-03T08:41:54Z</time>
      </trkpt>
      <trkpt lat="46.38884" lon="-1.49055">
        <ele>6.6</ele>
        <time>2020-06-03T08:41:55Z</time>
      </trkpt>
      <trkpt lat="46.38886" lon="-1.49062">
        <ele>6.7</ele>
        <time>2020-06-03T08:41:56Z</time>
      </trkpt>
      <trkpt lat="46.38889" lon="-1.49069">
        <ele>6.7</ele>
        <time>2020-06-03T08:41:57Z</time>
      </trkpt>
      <trkpt lat="46.38891" lon="-1.49076">
        <ele>6.7</ele>
        <time>2020-06-03T08:41:58Z</time>
      </trkpt>
      <trkpt lat="46.38894" lon="-1.49084">
        <ele>6.7</ele>
        <time>2020-06-03T08:41:59Z</time>
      </trkpt>
      <trkpt lat="46.38896" lon="-1.4909">
        <ele>6.7</ele>
        <time>2020-06-03T08:42:00Z</time>
      </trkpt>
      <trkpt lat="46.38899" lon="-1.49097">
        <ele>6.8</ele>
        <time>2020-06-03T08:42:01Z</time>
      </trkpt>
      <trkpt lat="46.38903" lon="-1.49103">
        <ele>6.8</ele>
        <time>2020-06-03T08:42:02Z</time>
      </trkpt>
      <trkpt lat="46.38906" lon="-1.49108">
        <ele>6.8</ele>
        <time>2020-06-03T08:42:03Z</time>
      </trkpt>
      <trkpt lat="46.38909" lon="-1.49112">
        <ele>6.8</ele>
        <time>2020-06-03T08:42:04Z</time>
      </trkpt>
      <trkpt lat="46.38913" lon="-1.4911">
        <ele>6.8</ele>
        <time>2020-06-03T08:42:05Z</time>
      </trkpt>
      <trkpt lat="46.38916" lon="-1.49106">
        <ele>6.8</ele>
        <time>2020-06-03T08:42:06Z</time>
      </trkpt>
      <trkpt lat="46.38917" lon="-1.49101">
        <ele>6.8</ele>
        <time>2020-06-03T08:42:07Z</time>
      </trkpt>
      <trkpt lat="46.38918" lon="-1.49096">
        <ele>6.9</ele>
        <time>2020-06-03T08:42:08Z</time>
      </trkpt>
      <trkpt lat="46.38919" lon="-1.49091">
        <ele>6.9</ele>
        <time>2020-06-03T08:42:09Z</time>
      </trkpt>
      <trkpt lat="46.38922" lon="-1.49086">
        <ele>6.9</ele>
        <time>2020-06-03T08:42:10Z</time>
      </trkpt>
      <trkpt lat="46.38924" lon="-1.4908">
        <ele>6.9</ele>
        <time>2020-06-03T08:42:11Z</time>
      </trkpt>
      <trkpt lat="46.38925" lon="-1.49076">
        <ele>6.9</ele>
        <time>2020-06-03T08:42:12Z</time>
      </trkpt>
      <trkpt lat="46.38927" lon="-1.49071">
        <ele>6.9</ele>
        <time>2020-06-03T08:42:13Z</time>
      </trkpt>
      <trkpt lat="46.38929" lon="-1.49066">
        <ele>6.9</ele>
        <time>2020-06-03T08:42:14Z</time>
      </trkpt>
      <trkpt lat="46.38932" lon="-1.49062">
        <ele>7</ele>
        <time>2020-06-03T08:42:15Z</time>
      </trkpt>
      <trkpt lat="46.38934" lon="-1.49057">
        <ele>7</ele>
        <time>2020-06-03T08:42:16Z</time>
      </trkpt>
      <trkpt lat="46.38935" lon="-1.49052">
        <ele>7</ele>
        <time>2020-06-03T08:42:17Z</time>
      </trkpt>
      <trkpt lat="46.38938" lon="-1.49048">
        <ele>7.1</ele>
        <time>2020-06-03T08:42:18Z</time>
      </trkpt>
      <trkpt lat="46.3894" lon="-1.49044">
        <ele>7.1</ele>
        <time>2020-06-03T08:42:19Z</time>
      </trkpt>
      <trkpt lat="46.38942" lon="-1.49038">
        <ele>7.2</ele>
        <time>2020-06-03T08:42:20Z</time>
      </trkpt>
      <trkpt lat="46.38944" lon="-1.49033">
        <ele>7.2</ele>
        <time>2020-06-03T08:42:21Z</time>
      </trkpt>
      <trkpt lat="46.38946" lon="-1.49028">
        <ele>7.2</ele>
        <time>2020-06-03T08:42:22Z</time>
      </trkpt>
      <trkpt lat="46.38948" lon="-1.49022">
        <ele>7.3</ele>
        <time>2020-06-03T08:42:23Z</time>
      </trkpt>
      <trkpt lat="46.3895" lon="-1.49017">
        <ele>7.3</ele>
        <time>2020-06-03T08:42:24Z</time>
      </trkpt>
      <trkpt lat="46.38953" lon="-1.49013">
        <ele>7.4</ele>
        <time>2020-06-03T08:42:25Z</time>
      </trkpt>
      <trkpt lat="46.38955" lon="-1.49007">
        <ele>7.5</ele>
        <time>2020-06-03T08:42:26Z</time>
      </trkpt>
      <trkpt lat="46.38958" lon="-1.49001">
        <ele>7.5</ele>
        <time>2020-06-03T08:42:27Z</time>
      </trkpt>
      <trkpt lat="46.3896" lon="-1.48994">
        <ele>7.6</ele>
        <time>2020-06-03T08:42:28Z</time>
      </trkpt>
      <trkpt lat="46.38962" lon="-1.48988">
        <ele>7.6</ele>
        <time>2020-06-03T08:42:29Z</time>
      </trkpt>
      <trkpt lat="46.38964" lon="-1.48981">
        <ele>7.7</ele>
        <time>2020-06-03T08:42:30Z</time>
      </trkpt>
      <trkpt lat="46.38966" lon="-1.48974">
        <ele>7.8</ele>
        <time>2020-06-03T08:42:31Z</time>
      </trkpt>
      <trkpt lat="46.38968" lon="-1.48967">
        <ele>7.8</ele>
        <time>2020-06-03T08:42:32Z</time>
      </trkpt>
      <trkpt lat="46.3897" lon="-1.48961">
        <ele>7.8</ele>
        <time>2020-06-03T08:42:33Z</time>
      </trkpt>
      <trkpt lat="46.38972" lon="-1.48955">
        <ele>7.9</ele>
        <time>2020-06-03T08:42:34Z</time>
      </trkpt>
      <trkpt lat="46.38974" lon="-1.48949">
        <ele>7.9</ele>
        <time>2020-06-03T08:42:35Z</time>
      </trkpt>
      <trkpt lat="46.38976" lon="-1.48943">
        <ele>7.9</ele>
        <time>2020-06-03T08:42:36Z</time>
      </trkpt>
      <trkpt lat="46.38979" lon="-1.48937">
        <ele>7.9</ele>
        <time>2020-06-03T08:42:37Z</time>
      </trkpt>
      <trkpt lat="46.38981" lon="-1.48932">
        <ele>8</ele>
        <time>2020-06-03T08:42:38Z</time>
      </trkpt>
      <trkpt lat="46.38984" lon="-1.48927">
        <ele>8</ele>
        <time>2020-06-03T08:42:39Z</time>
      </trkpt>
      <trkpt lat="46.38986" lon="-1.48922">
        <ele>8</ele>
        <time>2020-06-03T08:42:40Z</time>
      </trkpt>
      <trkpt lat="46.38988" lon="-1.48917">
        <ele>8.1</ele>
        <time>2020-06-03T08:42:41Z</time>
      </trkpt>
      <trkpt lat="46.3899" lon="-1.48911">
        <ele>8.1</ele>
        <time>2020-06-03T08:42:42Z</time>
      </trkpt>
      <trkpt lat="46.38991" lon="-1.48906">
        <ele>8.2</ele>
        <time>2020-06-03T08:42:43Z</time>
      </trkpt>
      <trkpt lat="46.38993" lon="-1.48901">
        <ele>8.2</ele>
        <time>2020-06-03T08:42:44Z</time>
      </trkpt>
      <trkpt lat="46.38996" lon="-1.48896">
        <ele>8.3</ele>
        <time>2020-06-03T08:42:45Z</time>
      </trkpt>
      <trkpt lat="46.38998" lon="-1.4889">
        <ele>8.4</ele>
        <time>2020-06-03T08:42:46Z</time>
      </trkpt>
      <trkpt lat="46.38999" lon="-1.48885">
        <ele>8.5</ele>
        <time>2020-06-03T08:42:47Z</time>
      </trkpt>
      <trkpt lat="46.39001" lon="-1.48879">
        <ele>8.6</ele>
        <time>2020-06-03T08:42:48Z</time>
      </trkpt>
      <trkpt lat="46.39002" lon="-1.48874">
        <ele>8.8</ele>
        <time>2020-06-03T08:42:49Z</time>
      </trkpt>
      <trkpt lat="46.39003" lon="-1.48868">
        <ele>8.9</ele>
        <time>2020-06-03T08:42:50Z</time>
      </trkpt>
      <trkpt lat="46.39004" lon="-1.48862">
        <ele>9.1</ele>
        <time>2020-06-03T08:42:51Z</time>
      </trkpt>
      <trkpt lat="46.39006" lon="-1.48856">
        <ele>9.3</ele>
        <time>2020-06-03T08:42:52Z</time>
      </trkpt>
      <trkpt lat="46.39007" lon="-1.48851">
        <ele>9.5</ele>
        <time>2020-06-03T08:42:53Z</time>
      </trkpt>
      <trkpt lat="46.39009" lon="-1.48846">
        <ele>9.7</ele>
        <time>2020-06-03T08:42:54Z</time>
      </trkpt>
      <trkpt lat="46.3901" lon="-1.48841">
        <ele>9.9</ele>
        <time>2020-06-03T08:42:55Z</time>
      </trkpt>
      <trkpt lat="46.39012" lon="-1.48836">
        <ele>10.1</ele>
        <time>2020-06-03T08:42:56Z</time>
      </trkpt>
      <trkpt lat="46.39013" lon="-1.48831">
        <ele>10.3</ele>
        <time>2020-06-03T08:42:57Z</time>
      </trkpt>
      <trkpt lat="46.39015" lon="-1.48825">
        <ele>10.5</ele>
        <time>2020-06-03T08:42:58Z</time>
      </trkpt>
      <trkpt lat="46.39016" lon="-1.4882">
        <ele>10.7</ele>
        <time>2020-06-03T08:42:59Z</time>
      </trkpt>
      <trkpt lat="46.39018" lon="-1.48816">
        <ele>10.8</ele>
        <time>2020-06-03T08:43:00Z</time>
      </trkpt>
      <trkpt lat="46.39021" lon="-1.48811">
        <ele>10.9</ele>
        <time>2020-06-03T08:43:01Z</time>
      </trkpt>
      <trkpt lat="46.39023" lon="-1.48806">
        <ele>11.1</ele>
        <time>2020-06-03T08:43:02Z</time>
      </trkpt>
      <trkpt lat="46.39026" lon="-1.488">
        <ele>11.4</ele>
        <time>2020-06-03T08:43:03Z</time>
      </trkpt>
      <trkpt lat="46.39028" lon="-1.48793">
        <ele>11.5</ele>
        <time>2020-06-03T08:43:04Z</time>
      </trkpt>
      <trkpt lat="46.3903" lon="-1.48787">
        <ele>11.5</ele>
        <time>2020-06-03T08:43:05Z</time>
      </trkpt>
      <trkpt lat="46.39032" lon="-1.48781">
        <ele>11.6</ele>
        <time>2020-06-03T08:43:06Z</time>
      </trkpt>
      <trkpt lat="46.39034" lon="-1.48775">
        <ele>11.6</ele>
        <time>2020-06-03T08:43:07Z</time>
      </trkpt>
      <trkpt lat="46.39036" lon="-1.48769">
        <ele>11.6</ele>
        <time>2020-06-03T08:43:08Z</time>
      </trkpt>
      <trkpt lat="46.39038" lon="-1.48763">
        <ele>11.5</ele>
        <time>2020-06-03T08:43:09Z</time>
      </trkpt>
      <trkpt lat="46.3904" lon="-1.48756">
        <ele>11.4</ele>
        <time>2020-06-03T08:43:10Z</time>
      </trkpt>
      <trkpt lat="46.39043" lon="-1.4875">
        <ele>11.2</ele>
        <time>2020-06-03T08:43:11Z</time>
      </trkpt>
      <trkpt lat="46.39046" lon="-1.48743">
        <ele>11</ele>
        <time>2020-06-03T08:43:12Z</time>
      </trkpt>
      <trkpt lat="46.39049" lon="-1.48737">
        <ele>10.8</ele>
        <time>2020-06-03T08:43:13Z</time>
      </trkpt>
      <trkpt lat="46.39052" lon="-1.4873">
        <ele>10.7</ele>
        <time>2020-06-03T08:43:14Z</time>
      </trkpt>
      <trkpt lat="46.39055" lon="-1.48724">
        <ele>10.6</ele>
        <time>2020-06-03T08:43:15Z</time>
      </trkpt>
      <trkpt lat="46.39058" lon="-1.48719">
        <ele>10.5</ele>
        <time>2020-06-03T08:43:16Z</time>
      </trkpt>
      <trkpt lat="46.3906" lon="-1.48715">
        <ele>10.5</ele>
        <time>2020-06-03T08:43:17Z</time>
      </trkpt>
      <trkpt lat="46.39062" lon="-1.4871">
        <ele>10.5</ele>
        <time>2020-06-03T08:43:18Z</time>
      </trkpt>
      <trkpt lat="46.39065" lon="-1.48706">
        <ele>10.5</ele>
        <time>2020-06-03T08:43:19Z</time>
      </trkpt>
      <trkpt lat="46.39066" lon="-1.48701">
        <ele>10.5</ele>
        <time>2020-06-03T08:43:20Z</time>
      </trkpt>
      <trkpt lat="46.39068" lon="-1.48697">
        <ele>10.6</ele>
        <time>2020-06-03T08:43:21Z</time>
      </trkpt>
      <trkpt lat="46.39071" lon="-1.48694">
        <ele>10.6</ele>
        <time>2020-06-03T08:43:22Z</time>
      </trkpt>
      <trkpt lat="46.39073" lon="-1.48693">
        <ele>10.7</ele>
        <time>2020-06-03T08:43:23Z</time>
      </trkpt>
      <trkpt lat="46.39075" lon="-1.4869">
        <ele>10.8</ele>
        <time>2020-06-03T08:43:24Z</time>
      </trkpt>
      <trkpt lat="46.39077" lon="-1.48686">
        <ele>10.9</ele>
        <time>2020-06-03T08:43:25Z</time>
      </trkpt>
      <trkpt lat="46.3908" lon="-1.48682">
        <ele>11.1</ele>
        <time>2020-06-03T08:43:26Z</time>
      </trkpt>
      <trkpt lat="46.39081" lon="-1.48681">
        <ele>11.2</ele>
        <time>2020-06-03T08:43:27Z</time>
      </trkpt>
      <trkpt lat="46.39083" lon="-1.48678">
        <ele>11.3</ele>
        <time>2020-06-03T08:43:28Z</time>
      </trkpt>
      <trkpt lat="46.39086" lon="-1.48674">
        <ele>11.5</ele>
        <time>2020-06-03T08:43:29Z</time>
      </trkpt>
      <trkpt lat="46.39089" lon="-1.48671">
        <ele>11.7</ele>
        <time>2020-06-03T08:43:30Z</time>
      </trkpt>
      <trkpt lat="46.39092" lon="-1.48667">
        <ele>11.9</ele>
        <time>2020-06-03T08:43:31Z</time>
      </trkpt>
      <trkpt lat="46.39095" lon="-1.48664">
        <ele>12</ele>
        <time>2020-06-03T08:43:32Z</time>
      </trkpt>
      <trkpt lat="46.39097" lon="-1.48661">
        <ele>12.2</ele>
        <time>2020-06-03T08:43:33Z</time>
      </trkpt>
      <trkpt lat="46.39099" lon="-1.48658">
        <ele>12.3</ele>
        <time>2020-06-03T08:43:34Z</time>
      </trkpt>
      <trkpt lat="46.39102" lon="-1.48654">
        <ele>12.5</ele>
        <time>2020-06-03T08:43:35Z</time>
      </trkpt>
      <trkpt lat="46.39103" lon="-1.48652">
        <ele>12.5</ele>
        <time>2020-06-03T08:43:36Z</time>
      </trkpt>
      <trkpt lat="46.39105" lon="-1.48649">
        <ele>12.6</ele>
        <time>2020-06-03T08:43:37Z</time>
      </trkpt>
      <trkpt lat="46.39107" lon="-1.48645">
        <ele>12.7</ele>
        <time>2020-06-03T08:43:38Z</time>
      </trkpt>
      <trkpt lat="46.39109" lon="-1.48641">
        <ele>12.9</ele>
        <time>2020-06-03T08:43:39Z</time>
      </trkpt>
      <trkpt lat="46.39111" lon="-1.48637">
        <ele>13</ele>
        <time>2020-06-03T08:43:40Z</time>
      </trkpt>
      <trkpt lat="46.39113" lon="-1.48633">
        <ele>13.1</ele>
        <time>2020-06-03T08:43:41Z</time>
      </trkpt>
      <trkpt lat="46.39116" lon="-1.48629">
        <ele>13.2</ele>
        <time>2020-06-03T08:43:42Z</time>
      </trkpt>
      <trkpt lat="46.39119" lon="-1.48627">
        <ele>13.3</ele>
        <time>2020-06-03T08:43:43Z</time>
      </trkpt>
      <trkpt lat="46.39122" lon="-1.48623">
        <ele>13.4</ele>
        <time>2020-06-03T08:43:44Z</time>
      </trkpt>
      <trkpt lat="46.39125" lon="-1.4862">
        <ele>13.5</ele>
        <time>2020-06-03T08:43:45Z</time>
      </trkpt>
      <trkpt lat="46.39127" lon="-1.48617">
        <ele>13.6</ele>
        <time>2020-06-03T08:43:46Z</time>
      </trkpt>
      <trkpt lat="46.3913" lon="-1.48614">
        <ele>13.7</ele>
        <time>2020-06-03T08:43:47Z</time>
      </trkpt>
      <trkpt lat="46.39133" lon="-1.48611">
        <ele>13.9</ele>
        <time>2020-06-03T08:43:48Z</time>
      </trkpt>
      <trkpt lat="46.39135" lon="-1.48607">
        <ele>14</ele>
        <time>2020-06-03T08:43:49Z</time>
      </trkpt>
      <trkpt lat="46.39136" lon="-1.48604">
        <ele>14</ele>
        <time>2020-06-03T08:43:50Z</time>
      </trkpt>
      <trkpt lat="46.39138" lon="-1.486">
        <ele>14.1</ele>
        <time>2020-06-03T08:43:51Z</time>
      </trkpt>
      <trkpt lat="46.3914" lon="-1.48597">
        <ele>14.2</ele>
        <time>2020-06-03T08:43:52Z</time>
      </trkpt>
      <trkpt lat="46.39143" lon="-1.48593">
        <ele>14.3</ele>
        <time>2020-06-03T08:43:53Z</time>
      </trkpt>
      <trkpt lat="46.39145" lon="-1.48589">
        <ele>14.4</ele>
        <time>2020-06-03T08:43:54Z</time>
      </trkpt>
      <trkpt lat="46.39147" lon="-1.48586">
        <ele>14.5</ele>
        <time>2020-06-03T08:43:55Z</time>
      </trkpt>
      <trkpt lat="46.39149" lon="-1.48582">
        <ele>14.6</ele>
        <time>2020-06-03T08:43:56Z</time>
      </trkpt>
      <trkpt lat="46.39151" lon="-1.48578">
        <ele>14.6</ele>
        <time>2020-06-03T08:43:57Z</time>
      </trkpt>
      <trkpt lat="46.39154" lon="-1.48574">
        <ele>14.7</ele>
        <time>2020-06-03T08:43:58Z</time>
      </trkpt>
      <trkpt lat="46.39157" lon="-1.48571">
        <ele>14.8</ele>
        <time>2020-06-03T08:43:59Z</time>
      </trkpt>
      <trkpt lat="46.3916" lon="-1.48569">
        <ele>14.8</ele>
        <time>2020-06-03T08:44:00Z</time>
      </trkpt>
      <trkpt lat="46.39163" lon="-1.48566">
        <ele>14.8</ele>
        <time>2020-06-03T08:44:01Z</time>
      </trkpt>
      <trkpt lat="46.39166" lon="-1.48563">
        <ele>14.8</ele>
        <time>2020-06-03T08:44:02Z</time>
      </trkpt>
      <trkpt lat="46.3917" lon="-1.48561">
        <ele>14.8</ele>
        <time>2020-06-03T08:44:03Z</time>
      </trkpt>
      <trkpt lat="46.39174" lon="-1.48558">
        <ele>14.7</ele>
        <time>2020-06-03T08:44:04Z</time>
      </trkpt>
      <trkpt lat="46.39178" lon="-1.48558">
        <ele>14.6</ele>
        <time>2020-06-03T08:44:05Z</time>
      </trkpt>
      <trkpt lat="46.39183" lon="-1.48556">
        <ele>14.5</ele>
        <time>2020-06-03T08:44:06Z</time>
      </trkpt>
      <trkpt lat="46.39187" lon="-1.48555">
        <ele>14.3</ele>
        <time>2020-06-03T08:44:07Z</time>
      </trkpt>
      <trkpt lat="46.39191" lon="-1.48553">
        <ele>14.1</ele>
        <time>2020-06-03T08:44:08Z</time>
      </trkpt>
      <trkpt lat="46.39195" lon="-1.48552">
        <ele>13.8</ele>
        <time>2020-06-03T08:44:09Z</time>
      </trkpt>
      <trkpt lat="46.39199" lon="-1.48552">
        <ele>13.5</ele>
        <time>2020-06-03T08:44:10Z</time>
      </trkpt>
      <trkpt lat="46.39204" lon="-1.4855">
        <ele>13.2</ele>
        <time>2020-06-03T08:44:11Z</time>
      </trkpt>
      <trkpt lat="46.39208" lon="-1.48549">
        <ele>12.9</ele>
        <time>2020-06-03T08:44:12Z</time>
      </trkpt>
      <trkpt lat="46.39212" lon="-1.4855">
        <ele>12.6</ele>
        <time>2020-06-03T08:44:13Z</time>
      </trkpt>
      <trkpt lat="46.39217" lon="-1.48549">
        <ele>12.2</ele>
        <time>2020-06-03T08:44:14Z</time>
      </trkpt>
      <trkpt lat="46.39221" lon="-1.48549">
        <ele>11.9</ele>
        <time>2020-06-03T08:44:15Z</time>
      </trkpt>
      <trkpt lat="46.39225" lon="-1.48548">
        <ele>11.5</ele>
        <time>2020-06-03T08:44:16Z</time>
      </trkpt>
      <trkpt lat="46.39229" lon="-1.48548">
        <ele>11.2</ele>
        <time>2020-06-03T08:44:17Z</time>
      </trkpt>
      <trkpt lat="46.39233" lon="-1.48547">
        <ele>10.9</ele>
        <time>2020-06-03T08:44:18Z</time>
      </trkpt>
      <trkpt lat="46.39238" lon="-1.48547">
        <ele>10.6</ele>
        <time>2020-06-03T08:44:19Z</time>
      </trkpt>
      <trkpt lat="46.39242" lon="-1.48548">
        <ele>10.3</ele>
        <time>2020-06-03T08:44:20Z</time>
      </trkpt>
      <trkpt lat="46.39245" lon="-1.4855">
        <ele>10.2</ele>
        <time>2020-06-03T08:44:21Z</time>
      </trkpt>
      <trkpt lat="46.39248" lon="-1.48554">
        <ele>10</ele>
        <time>2020-06-03T08:44:22Z</time>
      </trkpt>
      <trkpt lat="46.39251" lon="-1.48557">
        <ele>9.8</ele>
        <time>2020-06-03T08:44:23Z</time>
      </trkpt>
      <trkpt lat="46.39254" lon="-1.48561">
        <ele>9.7</ele>
        <time>2020-06-03T08:44:24Z</time>
      </trkpt>
      <trkpt lat="46.39256" lon="-1.48564">
        <ele>9.6</ele>
        <time>2020-06-03T08:44:25Z</time>
      </trkpt>
      <trkpt lat="46.39259" lon="-1.48569">
        <ele>9.5</ele>
        <time>2020-06-03T08:44:26Z</time>
      </trkpt>
      <trkpt lat="46.39261" lon="-1.48573">
        <ele>9.4</ele>
        <time>2020-06-03T08:44:27Z</time>
      </trkpt>
      <trkpt lat="46.39264" lon="-1.48578">
        <ele>9.3</ele>
        <time>2020-06-03T08:44:28Z</time>
      </trkpt>
      <trkpt lat="46.39266" lon="-1.48583">
        <ele>9.2</ele>
        <time>2020-06-03T08:44:29Z</time>
      </trkpt>
      <trkpt lat="46.39268" lon="-1.48589">
        <ele>9.1</ele>
        <time>2020-06-03T08:44:30Z</time>
      </trkpt>
      <trkpt lat="46.3927" lon="-1.48594">
        <ele>9.1</ele>
        <time>2020-06-03T08:44:31Z</time>
      </trkpt>
      <trkpt lat="46.39271" lon="-1.48601">
        <ele>9.1</ele>
        <time>2020-06-03T08:44:32Z</time>
      </trkpt>
      <trkpt lat="46.39272" lon="-1.48608">
        <ele>9.1</ele>
        <time>2020-06-03T08:44:33Z</time>
      </trkpt>
      <trkpt lat="46.39274" lon="-1.48615">
        <ele>9.1</ele>
        <time>2020-06-03T08:44:34Z</time>
      </trkpt>
      <trkpt lat="46.39276" lon="-1.48621">
        <ele>9.1</ele>
        <time>2020-06-03T08:44:35Z</time>
      </trkpt>
      <trkpt lat="46.39277" lon="-1.48628">
        <ele>9.2</ele>
        <time>2020-06-03T08:44:36Z</time>
      </trkpt>
      <trkpt lat="46.39278" lon="-1.48634">
        <ele>9.3</ele>
        <time>2020-06-03T08:44:37Z</time>
      </trkpt>
      <trkpt lat="46.39279" lon="-1.4864">
        <ele>9.3</ele>
        <time>2020-06-03T08:44:38Z</time>
      </trkpt>
      <trkpt lat="46.39279" lon="-1.48646">
        <ele>9.4</ele>
        <time>2020-06-03T08:44:39Z</time>
      </trkpt>
      <trkpt lat="46.3928" lon="-1.48652">
        <ele>9.5</ele>
        <time>2020-06-03T08:44:40Z</time>
      </trkpt>
      <trkpt lat="46.3928" lon="-1.48658">
        <ele>9.6</ele>
        <time>2020-06-03T08:44:41Z</time>
      </trkpt>
      <trkpt lat="46.3928" lon="-1.48663">
        <ele>9.7</ele>
        <time>2020-06-03T08:44:42Z</time>
      </trkpt>
      <trkpt lat="46.3928" lon="-1.48668">
        <ele>9.8</ele>
        <time>2020-06-03T08:44:43Z</time>
      </trkpt>
      <trkpt lat="46.39279" lon="-1.48673">
        <ele>9.9</ele>
        <time>2020-06-03T08:44:44Z</time>
      </trkpt>
      <trkpt lat="46.39278" lon="-1.48678">
        <ele>10</ele>
        <time>2020-06-03T08:44:45Z</time>
      </trkpt>
      <trkpt lat="46.39278" lon="-1.48683">
        <ele>10.2</ele>
        <time>2020-06-03T08:44:46Z</time>
      </trkpt>
      <trkpt lat="46.39277" lon="-1.48688">
        <ele>10.3</ele>
        <time>2020-06-03T08:44:47Z</time>
      </trkpt>
      <trkpt lat="46.39277" lon="-1.48694">
        <ele>10.5</ele>
        <time>2020-06-03T08:44:48Z</time>
      </trkpt>
      <trkpt lat="46.39276" lon="-1.48701">
        <ele>10.6</ele>
        <time>2020-06-03T08:44:49Z</time>
      </trkpt>
      <trkpt lat="46.39275" lon="-1.48706">
        <ele>10.8</ele>
        <time>2020-06-03T08:44:50Z</time>
      </trkpt>
      <trkpt lat="46.39274" lon="-1.48711">
        <ele>10.9</ele>
        <time>2020-06-03T08:44:51Z</time>
      </trkpt>
      <trkpt lat="46.39273" lon="-1.48717">
        <ele>11.1</ele>
        <time>2020-06-03T08:44:52Z</time>
      </trkpt>
      <trkpt lat="46.39272" lon="-1.48723">
        <ele>11.2</ele>
        <time>2020-06-03T08:44:53Z</time>
      </trkpt>
      <trkpt lat="46.39272" lon="-1.48728">
        <ele>11.3</ele>
        <time>2020-06-03T08:44:54Z</time>
      </trkpt>
      <trkpt lat="46.39273" lon="-1.48734">
        <ele>11.4</ele>
        <time>2020-06-03T08:44:55Z</time>
      </trkpt>
      <trkpt lat="46.39275" lon="-1.4874">
        <ele>11.5</ele>
        <time>2020-06-03T08:44:56Z</time>
      </trkpt>
      <trkpt lat="46.39277" lon="-1.48745">
        <ele>11.6</ele>
        <time>2020-06-03T08:44:57Z</time>
      </trkpt>
      <trkpt lat="46.39278" lon="-1.4875">
        <ele>11.7</ele>
        <time>2020-06-03T08:44:58Z</time>
      </trkpt>
      <trkpt lat="46.3928" lon="-1.48756">
        <ele>11.7</ele>
        <time>2020-06-03T08:44:59Z</time>
      </trkpt>
      <trkpt lat="46.39282" lon="-1.4876">
        <ele>11.7</ele>
        <time>2020-06-03T08:45:00Z</time>
      </trkpt>
      <trkpt lat="46.39285" lon="-1.48767">
        <ele>11.7</ele>
        <time>2020-06-03T08:45:01Z</time>
      </trkpt>
      <trkpt lat="46.39289" lon="-1.48773">
        <ele>11.7</ele>
        <time>2020-06-03T08:45:02Z</time>
      </trkpt>
      <trkpt lat="46.39292" lon="-1.48779">
        <ele>11.6</ele>
        <time>2020-06-03T08:45:03Z</time>
      </trkpt>
      <trkpt lat="46.39295" lon="-1.48785">
        <ele>11.4</ele>
        <time>2020-06-03T08:45:04Z</time>
      </trkpt>
      <trkpt lat="46.39298" lon="-1.48791">
        <ele>11.2</ele>
        <time>2020-06-03T08:45:05Z</time>
      </trkpt>
      <trkpt lat="46.39302" lon="-1.48796">
        <ele>11</ele>
        <time>2020-06-03T08:45:06Z</time>
      </trkpt>
      <trkpt lat="46.39304" lon="-1.48802">
        <ele>10.8</ele>
        <time>2020-06-03T08:45:07Z</time>
      </trkpt>
      <trkpt lat="46.39307" lon="-1.48807">
        <ele>10.6</ele>
        <time>2020-06-03T08:45:08Z</time>
      </trkpt>
      <trkpt lat="46.3931" lon="-1.48811">
        <ele>10.4</ele>
        <time>2020-06-03T08:45:09Z</time>
      </trkpt>
      <trkpt lat="46.39312" lon="-1.48815">
        <ele>10.2</ele>
        <time>2020-06-03T08:45:10Z</time>
      </trkpt>
      <trkpt lat="46.39315" lon="-1.48818">
        <ele>10.1</ele>
        <time>2020-06-03T08:45:11Z</time>
      </trkpt>
      <trkpt lat="46.39319" lon="-1.4882">
        <ele>9.9</ele>
        <time>2020-06-03T08:45:12Z</time>
      </trkpt>
      <trkpt lat="46.39323" lon="-1.4882">
        <ele>9.6</ele>
        <time>2020-06-03T08:45:13Z</time>
      </trkpt>
      <trkpt lat="46.39329" lon="-1.4882">
        <ele>9.4</ele>
        <time>2020-06-03T08:45:14Z</time>
      </trkpt>
      <trkpt lat="46.39334" lon="-1.48818">
        <ele>9.2</ele>
        <time>2020-06-03T08:45:15Z</time>
      </trkpt>
      <trkpt lat="46.39339" lon="-1.48817">
        <ele>9</ele>
        <time>2020-06-03T08:45:16Z</time>
      </trkpt>
      <trkpt lat="46.39345" lon="-1.48816">
        <ele>8.8</ele>
        <time>2020-06-03T08:45:17Z</time>
      </trkpt>
      <trkpt lat="46.39351" lon="-1.48816">
        <ele>8.7</ele>
        <time>2020-06-03T08:45:18Z</time>
      </trkpt>
      <trkpt lat="46.39357" lon="-1.48817">
        <ele>8.6</ele>
        <time>2020-06-03T08:45:19Z</time>
      </trkpt>
      <trkpt lat="46.39362" lon="-1.48817">
        <ele>8.5</ele>
        <time>2020-06-03T08:45:20Z</time>
      </trkpt>
      <trkpt lat="46.39366" lon="-1.48819">
        <ele>8.5</ele>
        <time>2020-06-03T08:45:21Z</time>
      </trkpt>
      <trkpt lat="46.39371" lon="-1.4882">
        <ele>8.4</ele>
        <time>2020-06-03T08:45:22Z</time>
      </trkpt>
      <trkpt lat="46.39375" lon="-1.48822">
        <ele>8.4</ele>
        <time>2020-06-03T08:45:23Z</time>
      </trkpt>
      <trkpt lat="46.39378" lon="-1.48826">
        <ele>8.4</ele>
        <time>2020-06-03T08:45:24Z</time>
      </trkpt>
      <trkpt lat="46.39381" lon="-1.48831">
        <ele>8.4</ele>
        <time>2020-06-03T08:45:25Z</time>
      </trkpt>
      <trkpt lat="46.39384" lon="-1.48836">
        <ele>8.3</ele>
        <time>2020-06-03T08:45:26Z</time>
      </trkpt>
      <trkpt lat="46.39388" lon="-1.4884">
        <ele>8.3</ele>
        <time>2020-06-03T08:45:27Z</time>
      </trkpt>
      <trkpt lat="46.39391" lon="-1.48844">
        <ele>8.4</ele>
        <time>2020-06-03T08:45:28Z</time>
      </trkpt>
      <trkpt lat="46.39394" lon="-1.48847">
        <ele>8.4</ele>
        <time>2020-06-03T08:45:29Z</time>
      </trkpt>
      <trkpt lat="46.39397" lon="-1.48851">
        <ele>8.4</ele>
        <time>2020-06-03T08:45:30Z</time>
      </trkpt>
      <trkpt lat="46.394" lon="-1.48854">
        <ele>8.5</ele>
        <time>2020-06-03T08:45:31Z</time>
      </trkpt>
      <trkpt lat="46.39402" lon="-1.48858">
        <ele>8.5</ele>
        <time>2020-06-03T08:45:32Z</time>
      </trkpt>
      <trkpt lat="46.39406" lon="-1.48862">
        <ele>8.6</ele>
        <time>2020-06-03T08:45:33Z</time>
      </trkpt>
      <trkpt lat="46.39409" lon="-1.48865">
        <ele>8.6</ele>
        <time>2020-06-03T08:45:34Z</time>
      </trkpt>
      <trkpt lat="46.39413" lon="-1.48866">
        <ele>8.7</ele>
        <time>2020-06-03T08:45:35Z</time>
      </trkpt>
      <trkpt lat="46.39416" lon="-1.48867">
        <ele>8.7</ele>
        <time>2020-06-03T08:45:36Z</time>
      </trkpt>
      <trkpt lat="46.39421" lon="-1.48866">
        <ele>8.7</ele>
        <time>2020-06-03T08:45:37Z</time>
      </trkpt>
      <trkpt lat="46.39425" lon="-1.48865">
        <ele>8.7</ele>
        <time>2020-06-03T08:45:38Z</time>
      </trkpt>
      <trkpt lat="46.39429" lon="-1.48864">
        <ele>8.7</ele>
        <time>2020-06-03T08:45:39Z</time>
      </trkpt>
      <trkpt lat="46.39433" lon="-1.48864">
        <ele>8.6</ele>
        <time>2020-06-03T08:45:40Z</time>
      </trkpt>
      <trkpt lat="46.39435" lon="-1.48863">
        <ele>8.6</ele>
        <time>2020-06-03T08:45:41Z</time>
      </trkpt>
      <trkpt lat="46.39438" lon="-1.48862">
        <ele>8.6</ele>
        <time>2020-06-03T08:45:42Z</time>
      </trkpt>
      <trkpt lat="46.39442" lon="-1.4886">
        <ele>8.6</ele>
        <time>2020-06-03T08:45:43Z</time>
      </trkpt>
      <trkpt lat="46.39447" lon="-1.48859">
        <ele>8.5</ele>
        <time>2020-06-03T08:45:44Z</time>
      </trkpt>
      <trkpt lat="46.39452" lon="-1.48858">
        <ele>8.5</ele>
        <time>2020-06-03T08:45:45Z</time>
      </trkpt>
      <trkpt lat="46.39456" lon="-1.48857">
        <ele>8.5</ele>
        <time>2020-06-03T08:45:46Z</time>
      </trkpt>
      <trkpt lat="46.3946" lon="-1.48857">
        <ele>8.5</ele>
        <time>2020-06-03T08:45:47Z</time>
      </trkpt>
      <trkpt lat="46.39463" lon="-1.48857">
        <ele>8.5</ele>
        <time>2020-06-03T08:45:48Z</time>
      </trkpt>
      <trkpt lat="46.39468" lon="-1.48857">
        <ele>8.6</ele>
        <time>2020-06-03T08:45:49Z</time>
      </trkpt>
      <trkpt lat="46.39471" lon="-1.48858">
        <ele>8.6</ele>
        <time>2020-06-03T08:45:50Z</time>
      </trkpt>
      <trkpt lat="46.39475" lon="-1.48858">
        <ele>8.6</ele>
        <time>2020-06-03T08:45:51Z</time>
      </trkpt>
      <trkpt lat="46.39479" lon="-1.48858">
        <ele>8.7</ele>
        <time>2020-06-03T08:45:52Z</time>
      </trkpt>
      <trkpt lat="46.39483" lon="-1.48858">
        <ele>8.7</ele>
        <time>2020-06-03T08:45:53Z</time>
      </trkpt>
      <trkpt lat="46.39487" lon="-1.48857">
        <ele>8.8</ele>
        <time>2020-06-03T08:45:54Z</time>
      </trkpt>
      <trkpt lat="46.3949" lon="-1.48857">
        <ele>8.9</ele>
        <time>2020-06-03T08:45:55Z</time>
      </trkpt>
      <trkpt lat="46.39494" lon="-1.48857">
        <ele>8.9</ele>
        <time>2020-06-03T08:45:56Z</time>
      </trkpt>
      <trkpt lat="46.39498" lon="-1.48857">
        <ele>9</ele>
        <time>2020-06-03T08:45:57Z</time>
      </trkpt>
      <trkpt lat="46.39502" lon="-1.48859">
        <ele>9.1</ele>
        <time>2020-06-03T08:45:58Z</time>
      </trkpt>
      <trkpt lat="46.39506" lon="-1.48862">
        <ele>9.2</ele>
        <time>2020-06-03T08:45:59Z</time>
      </trkpt>
      <trkpt lat="46.39509" lon="-1.48866">
        <ele>9.3</ele>
        <time>2020-06-03T08:46:00Z</time>
      </trkpt>
      <trkpt lat="46.39513" lon="-1.4887">
        <ele>9.4</ele>
        <time>2020-06-03T08:46:01Z</time>
      </trkpt>
      <trkpt lat="46.39516" lon="-1.48877">
        <ele>9.5</ele>
        <time>2020-06-03T08:46:02Z</time>
      </trkpt>
      <trkpt lat="46.39518" lon="-1.48884">
        <ele>9.6</ele>
        <time>2020-06-03T08:46:03Z</time>
      </trkpt>
      <trkpt lat="46.39519" lon="-1.4889">
        <ele>9.6</ele>
        <time>2020-06-03T08:46:04Z</time>
      </trkpt>
      <trkpt lat="46.39521" lon="-1.48897">
        <ele>9.7</ele>
        <time>2020-06-03T08:46:05Z</time>
      </trkpt>
      <trkpt lat="46.39522" lon="-1.48903">
        <ele>9.7</ele>
        <time>2020-06-03T08:46:06Z</time>
      </trkpt>
      <trkpt lat="46.39523" lon="-1.48909">
        <ele>9.7</ele>
        <time>2020-06-03T08:46:07Z</time>
      </trkpt>
      <trkpt lat="46.39526" lon="-1.48915">
        <ele>9.7</ele>
        <time>2020-06-03T08:46:08Z</time>
      </trkpt>
      <trkpt lat="46.39528" lon="-1.4892">
        <ele>9.7</ele>
        <time>2020-06-03T08:46:09Z</time>
      </trkpt>
      <trkpt lat="46.3953" lon="-1.48925">
        <ele>9.7</ele>
        <time>2020-06-03T08:46:10Z</time>
      </trkpt>
      <trkpt lat="46.39532" lon="-1.48932">
        <ele>9.6</ele>
        <time>2020-06-03T08:46:11Z</time>
      </trkpt>
      <trkpt lat="46.39535" lon="-1.48938">
        <ele>9.5</ele>
        <time>2020-06-03T08:46:12Z</time>
      </trkpt>
      <trkpt lat="46.39537" lon="-1.48942">
        <ele>9.5</ele>
        <time>2020-06-03T08:46:13Z</time>
      </trkpt>
      <trkpt lat="46.3954" lon="-1.48946">
        <ele>9.4</ele>
        <time>2020-06-03T08:46:14Z</time>
      </trkpt>
      <trkpt lat="46.39543" lon="-1.48947">
        <ele>9.3</ele>
        <time>2020-06-03T08:46:15Z</time>
      </trkpt>
      <trkpt lat="46.39548" lon="-1.48949">
        <ele>9.2</ele>
        <time>2020-06-03T08:46:16Z</time>
      </trkpt>
      <trkpt lat="46.39553" lon="-1.48952">
        <ele>9</ele>
        <time>2020-06-03T08:46:17Z</time>
      </trkpt>
      <trkpt lat="46.39558" lon="-1.48955">
        <ele>8.8</ele>
        <time>2020-06-03T08:46:18Z</time>
      </trkpt>
      <trkpt lat="46.39564" lon="-1.48959">
        <ele>8.6</ele>
        <time>2020-06-03T08:46:19Z</time>
      </trkpt>
      <trkpt lat="46.3957" lon="-1.48963">
        <ele>8.4</ele>
        <time>2020-06-03T08:46:20Z</time>
      </trkpt>
      <trkpt lat="46.39575" lon="-1.48967">
        <ele>8.3</ele>
        <time>2020-06-03T08:46:21Z</time>
      </trkpt>
      <trkpt lat="46.39581" lon="-1.4897">
        <ele>8.1</ele>
        <time>2020-06-03T08:46:22Z</time>
      </trkpt>
      <trkpt lat="46.39587" lon="-1.48971">
        <ele>8</ele>
        <time>2020-06-03T08:46:23Z</time>
      </trkpt>
      <trkpt lat="46.39593" lon="-1.4897">
        <ele>8</ele>
        <time>2020-06-03T08:46:24Z</time>
      </trkpt>
      <trkpt lat="46.39599" lon="-1.48967">
        <ele>7.9</ele>
        <time>2020-06-03T08:46:25Z</time>
      </trkpt>
      <trkpt lat="46.39604" lon="-1.48965">
        <ele>7.9</ele>
        <time>2020-06-03T08:46:26Z</time>
      </trkpt>
      <trkpt lat="46.39609" lon="-1.48962">
        <ele>7.9</ele>
        <time>2020-06-03T08:46:27Z</time>
      </trkpt>
      <trkpt lat="46.39613" lon="-1.4896">
        <ele>7.9</ele>
        <time>2020-06-03T08:46:28Z</time>
      </trkpt>
      <trkpt lat="46.39617" lon="-1.48958">
        <ele>7.9</ele>
        <time>2020-06-03T08:46:29Z</time>
      </trkpt>
      <trkpt lat="46.3962" lon="-1.48956">
        <ele>7.9</ele>
        <time>2020-06-03T08:46:30Z</time>
      </trkpt>
      <trkpt lat="46.39623" lon="-1.48953">
        <ele>7.8</ele>
        <time>2020-06-03T08:46:31Z</time>
      </trkpt>
      <trkpt lat="46.39625" lon="-1.48951">
        <ele>7.8</ele>
        <time>2020-06-03T08:46:32Z</time>
      </trkpt>
      <trkpt lat="46.39628" lon="-1.48949">
        <ele>7.8</ele>
        <time>2020-06-03T08:46:33Z</time>
      </trkpt>
      <trkpt lat="46.39632" lon="-1.48946">
        <ele>7.8</ele>
        <time>2020-06-03T08:46:34Z</time>
      </trkpt>
      <trkpt lat="46.39636" lon="-1.48942">
        <ele>7.7</ele>
        <time>2020-06-03T08:46:35Z</time>
      </trkpt>
      <trkpt lat="46.3964" lon="-1.48939">
        <ele>7.7</ele>
        <time>2020-06-03T08:46:36Z</time>
      </trkpt>
      <trkpt lat="46.39643" lon="-1.48936">
        <ele>7.6</ele>
        <time>2020-06-03T08:46:37Z</time>
      </trkpt>
      <trkpt lat="46.39646" lon="-1.48934">
        <ele>7.6</ele>
        <time>2020-06-03T08:46:38Z</time>
      </trkpt>
      <trkpt lat="46.39649" lon="-1.4893">
        <ele>7.5</ele>
        <time>2020-06-03T08:46:39Z</time>
      </trkpt>
      <trkpt lat="46.39652" lon="-1.48927">
        <ele>7.5</ele>
        <time>2020-06-03T08:46:40Z</time>
      </trkpt>
      <trkpt lat="46.39655" lon="-1.48924">
        <ele>7.4</ele>
        <time>2020-06-03T08:46:41Z</time>
      </trkpt>
      <trkpt lat="46.39658" lon="-1.4892">
        <ele>7.4</ele>
        <time>2020-06-03T08:46:42Z</time>
      </trkpt>
      <trkpt lat="46.39661" lon="-1.48917">
        <ele>7.3</ele>
        <time>2020-06-03T08:46:43Z</time>
      </trkpt>
      <trkpt lat="46.39664" lon="-1.48915">
        <ele>7.3</ele>
        <time>2020-06-03T08:46:44Z</time>
      </trkpt>
      <trkpt lat="46.39668" lon="-1.48912">
        <ele>7.3</ele>
        <time>2020-06-03T08:46:45Z</time>
      </trkpt>
      <trkpt lat="46.39671" lon="-1.48909">
        <ele>7.3</ele>
        <time>2020-06-03T08:46:46Z</time>
      </trkpt>
      <trkpt lat="46.39674" lon="-1.48904">
        <ele>7.2</ele>
        <time>2020-06-03T08:46:47Z</time>
      </trkpt>
      <trkpt lat="46.39676" lon="-1.489">
        <ele>7.2</ele>
        <time>2020-06-03T08:46:48Z</time>
      </trkpt>
      <trkpt lat="46.39679" lon="-1.48897">
        <ele>7.2</ele>
        <time>2020-06-03T08:46:49Z</time>
      </trkpt>
      <trkpt lat="46.39682" lon="-1.48892">
        <ele>7.2</ele>
        <time>2020-06-03T08:46:50Z</time>
      </trkpt>
      <trkpt lat="46.39687" lon="-1.48889">
        <ele>7.1</ele>
        <time>2020-06-03T08:46:51Z</time>
      </trkpt>
      <trkpt lat="46.3969" lon="-1.48885">
        <ele>7.1</ele>
        <time>2020-06-03T08:46:52Z</time>
      </trkpt>
      <trkpt lat="46.39695" lon="-1.48878">
        <ele>7.1</ele>
        <time>2020-06-03T08:46:53Z</time>
      </trkpt>
      <trkpt lat="46.397" lon="-1.48872">
        <ele>7.1</ele>
        <time>2020-06-03T08:46:54Z</time>
      </trkpt>
      <trkpt lat="46.39705" lon="-1.48866">
        <ele>7.1</ele>
        <time>2020-06-03T08:46:55Z</time>
      </trkpt>
      <trkpt lat="46.3971" lon="-1.48859">
        <ele>7.2</ele>
        <time>2020-06-03T08:46:56Z</time>
      </trkpt>
      <trkpt lat="46.39716" lon="-1.48854">
        <ele>7.3</ele>
        <time>2020-06-03T08:46:57Z</time>
      </trkpt>
      <trkpt lat="46.3972" lon="-1.48851">
        <ele>7.3</ele>
        <time>2020-06-03T08:46:58Z</time>
      </trkpt>
      <trkpt lat="46.39725" lon="-1.48848">
        <ele>7.5</ele>
        <time>2020-06-03T08:46:59Z</time>
      </trkpt>
      <trkpt lat="46.39729" lon="-1.48845">
        <ele>7.5</ele>
        <time>2020-06-03T08:47:00Z</time>
      </trkpt>
      <trkpt lat="46.39731" lon="-1.48842">
        <ele>7.6</ele>
        <time>2020-06-03T08:47:01Z</time>
      </trkpt>
      <trkpt lat="46.39735" lon="-1.48839">
        <ele>7.7</ele>
        <time>2020-06-03T08:47:02Z</time>
      </trkpt>
      <trkpt lat="46.39738" lon="-1.48838">
        <ele>7.7</ele>
        <time>2020-06-03T08:47:03Z</time>
      </trkpt>
      <trkpt lat="46.39741" lon="-1.48836">
        <ele>7.8</ele>
        <time>2020-06-03T08:47:04Z</time>
      </trkpt>
      <trkpt lat="46.39745" lon="-1.48835">
        <ele>7.8</ele>
        <time>2020-06-03T08:47:05Z</time>
      </trkpt>
      <trkpt lat="46.39749" lon="-1.48835">
        <ele>7.8</ele>
        <time>2020-06-03T08:47:06Z</time>
      </trkpt>
      <trkpt lat="46.39753" lon="-1.48834">
        <ele>7.8</ele>
        <time>2020-06-03T08:47:07Z</time>
      </trkpt>
      <trkpt lat="46.39756" lon="-1.48833">
        <ele>7.8</ele>
        <time>2020-06-03T08:47:08Z</time>
      </trkpt>
      <trkpt lat="46.3976" lon="-1.48832">
        <ele>7.8</ele>
        <time>2020-06-03T08:47:09Z</time>
      </trkpt>
      <trkpt lat="46.39764" lon="-1.48832">
        <ele>7.8</ele>
        <time>2020-06-03T08:47:10Z</time>
      </trkpt>
      <trkpt lat="46.39767" lon="-1.48832">
        <ele>7.8</ele>
        <time>2020-06-03T08:47:11Z</time>
      </trkpt>
      <trkpt lat="46.3977" lon="-1.48832">
        <ele>7.8</ele>
        <time>2020-06-03T08:47:12Z</time>
      </trkpt>
      <trkpt lat="46.39774" lon="-1.48833">
        <ele>7.8</ele>
        <time>2020-06-03T08:47:13Z</time>
      </trkpt>
      <trkpt lat="46.39777" lon="-1.48833">
        <ele>7.8</ele>
        <time>2020-06-03T08:47:14Z</time>
      </trkpt>
      <trkpt lat="46.39781" lon="-1.48834">
        <ele>7.8</ele>
        <time>2020-06-03T08:47:15Z</time>
      </trkpt>
      <trkpt lat="46.39782" lon="-1.48834">
        <ele>7.8</ele>
        <time>2020-06-03T08:47:16Z</time>
      </trkpt>
      <trkpt lat="46.39786" lon="-1.48835">
        <ele>7.8</ele>
        <time>2020-06-03T08:47:17Z</time>
      </trkpt>
      <trkpt lat="46.3979" lon="-1.48835">
        <ele>7.8</ele>
        <time>2020-06-03T08:47:18Z</time>
      </trkpt>
      <trkpt lat="46.39794" lon="-1.48836">
        <ele>7.8</ele>
        <time>2020-06-03T08:47:19Z</time>
      </trkpt>
      <trkpt lat="46.39798" lon="-1.48836">
        <ele>7.8</ele>
        <time>2020-06-03T08:47:20Z</time>
      </trkpt>
      <trkpt lat="46.39802" lon="-1.48835">
        <ele>7.8</ele>
        <time>2020-06-03T08:47:21Z</time>
      </trkpt>
      <trkpt lat="46.39806" lon="-1.48834">
        <ele>7.8</ele>
        <time>2020-06-03T08:47:22Z</time>
      </trkpt>
      <trkpt lat="46.3981" lon="-1.48832">
        <ele>7.8</ele>
        <time>2020-06-03T08:47:23Z</time>
      </trkpt>
      <trkpt lat="46.39814" lon="-1.48828">
        <ele>7.7</ele>
        <time>2020-06-03T08:47:24Z</time>
      </trkpt>
      <trkpt lat="46.39817" lon="-1.48825">
        <ele>7.7</ele>
        <time>2020-06-03T08:47:25Z</time>
      </trkpt>
      <trkpt lat="46.39822" lon="-1.48821">
        <ele>7.7</ele>
        <time>2020-06-03T08:47:26Z</time>
      </trkpt>
      <trkpt lat="46.39826" lon="-1.48818">
        <ele>7.7</ele>
        <time>2020-06-03T08:47:27Z</time>
      </trkpt>
      <trkpt lat="46.39829" lon="-1.48814">
        <ele>7.7</ele>
        <time>2020-06-03T08:47:28Z</time>
      </trkpt>
      <trkpt lat="46.39833" lon="-1.4881">
        <ele>7.7</ele>
        <time>2020-06-03T08:47:29Z</time>
      </trkpt>
      <trkpt lat="46.39836" lon="-1.48807">
        <ele>7.8</ele>
        <time>2020-06-03T08:47:30Z</time>
      </trkpt>
      <trkpt lat="46.39838" lon="-1.48803">
        <ele>7.8</ele>
        <time>2020-06-03T08:47:31Z</time>
      </trkpt>
      <trkpt lat="46.39841" lon="-1.488">
        <ele>7.8</ele>
        <time>2020-06-03T08:47:32Z</time>
      </trkpt>
      <trkpt lat="46.39844" lon="-1.48797">
        <ele>7.8</ele>
        <time>2020-06-03T08:47:33Z</time>
      </trkpt>
      <trkpt lat="46.39847" lon="-1.48793">
        <ele>7.8</ele>
        <time>2020-06-03T08:47:34Z</time>
      </trkpt>
      <trkpt lat="46.39851" lon="-1.48788">
        <ele>7.8</ele>
        <time>2020-06-03T08:47:35Z</time>
      </trkpt>
      <trkpt lat="46.39855" lon="-1.48785">
        <ele>7.8</ele>
        <time>2020-06-03T08:47:36Z</time>
      </trkpt>
      <trkpt lat="46.39859" lon="-1.4878">
        <ele>7.8</ele>
        <time>2020-06-03T08:47:37Z</time>
      </trkpt>
      <trkpt lat="46.39863" lon="-1.48774">
        <ele>7.7</ele>
        <time>2020-06-03T08:47:38Z</time>
      </trkpt>
      <trkpt lat="46.39867" lon="-1.48768">
        <ele>7.7</ele>
        <time>2020-06-03T08:47:39Z</time>
      </trkpt>
      <trkpt lat="46.3987" lon="-1.48759">
        <ele>7.7</ele>
        <time>2020-06-03T08:47:40Z</time>
      </trkpt>
      <trkpt lat="46.39873" lon="-1.48754">
        <ele>7.7</ele>
        <time>2020-06-03T08:47:41Z</time>
      </trkpt>
      <trkpt lat="46.39875" lon="-1.48747">
        <ele>7.7</ele>
        <time>2020-06-03T08:47:42Z</time>
      </trkpt>
      <trkpt lat="46.39878" lon="-1.48741">
        <ele>7.7</ele>
        <time>2020-06-03T08:47:43Z</time>
      </trkpt>
      <trkpt lat="46.39881" lon="-1.48734">
        <ele>7.7</ele>
        <time>2020-06-03T08:47:44Z</time>
      </trkpt>
      <trkpt lat="46.39884" lon="-1.48727">
        <ele>7.7</ele>
        <time>2020-06-03T08:47:45Z</time>
      </trkpt>
      <trkpt lat="46.39886" lon="-1.48722">
        <ele>7.7</ele>
        <time>2020-06-03T08:47:46Z</time>
      </trkpt>
      <trkpt lat="46.39889" lon="-1.48717">
        <ele>7.7</ele>
        <time>2020-06-03T08:47:47Z</time>
      </trkpt>
      <trkpt lat="46.39891" lon="-1.48712">
        <ele>7.7</ele>
        <time>2020-06-03T08:47:48Z</time>
      </trkpt>
      <trkpt lat="46.39895" lon="-1.48707">
        <ele>7.7</ele>
        <time>2020-06-03T08:47:49Z</time>
      </trkpt>
      <trkpt lat="46.39898" lon="-1.48703">
        <ele>7.7</ele>
        <time>2020-06-03T08:47:50Z</time>
      </trkpt>
      <trkpt lat="46.39901" lon="-1.48699">
        <ele>7.7</ele>
        <time>2020-06-03T08:47:51Z</time>
      </trkpt>
      <trkpt lat="46.39904" lon="-1.48696">
        <ele>7.7</ele>
        <time>2020-06-03T08:47:52Z</time>
      </trkpt>
      <trkpt lat="46.39908" lon="-1.48692">
        <ele>7.7</ele>
        <time>2020-06-03T08:47:53Z</time>
      </trkpt>
      <trkpt lat="46.39911" lon="-1.48689">
        <ele>7.7</ele>
        <time>2020-06-03T08:47:54Z</time>
      </trkpt>
      <trkpt lat="46.39913" lon="-1.48687">
        <ele>7.8</ele>
        <time>2020-06-03T08:47:55Z</time>
      </trkpt>
      <trkpt lat="46.39917" lon="-1.48684">
        <ele>7.8</ele>
        <time>2020-06-03T08:47:56Z</time>
      </trkpt>
      <trkpt lat="46.39919" lon="-1.48681">
        <ele>7.8</ele>
        <time>2020-06-03T08:47:57Z</time>
      </trkpt>
      <trkpt lat="46.39922" lon="-1.48675">
        <ele>7.8</ele>
        <time>2020-06-03T08:47:58Z</time>
      </trkpt>
      <trkpt lat="46.39923" lon="-1.48673">
        <ele>7.9</ele>
        <time>2020-06-03T08:47:59Z</time>
      </trkpt>
      <trkpt lat="46.39927" lon="-1.48668">
        <ele>7.9</ele>
        <time>2020-06-03T08:48:00Z</time>
      </trkpt>
      <trkpt lat="46.39931" lon="-1.48664">
        <ele>8</ele>
        <time>2020-06-03T08:48:01Z</time>
      </trkpt>
      <trkpt lat="46.39934" lon="-1.48659">
        <ele>8</ele>
        <time>2020-06-03T08:48:02Z</time>
      </trkpt>
      <trkpt lat="46.39938" lon="-1.48654">
        <ele>8</ele>
        <time>2020-06-03T08:48:03Z</time>
      </trkpt>
      <trkpt lat="46.39941" lon="-1.48649">
        <ele>8.1</ele>
        <time>2020-06-03T08:48:04Z</time>
      </trkpt>
      <trkpt lat="46.39943" lon="-1.48645">
        <ele>8.1</ele>
        <time>2020-06-03T08:48:05Z</time>
      </trkpt>
      <trkpt lat="46.39946" lon="-1.4864">
        <ele>8.2</ele>
        <time>2020-06-03T08:48:06Z</time>
      </trkpt>
      <trkpt lat="46.39948" lon="-1.48635">
        <ele>8.2</ele>
        <time>2020-06-03T08:48:07Z</time>
      </trkpt>
      <trkpt lat="46.3995" lon="-1.48631">
        <ele>8.3</ele>
        <time>2020-06-03T08:48:08Z</time>
      </trkpt>
      <trkpt lat="46.39953" lon="-1.48628">
        <ele>8.4</ele>
        <time>2020-06-03T08:48:09Z</time>
      </trkpt>
      <trkpt lat="46.39956" lon="-1.48624">
        <ele>8.5</ele>
        <time>2020-06-03T08:48:10Z</time>
      </trkpt>
      <trkpt lat="46.39959" lon="-1.4862">
        <ele>8.6</ele>
        <time>2020-06-03T08:48:11Z</time>
      </trkpt>
      <trkpt lat="46.39962" lon="-1.48616">
        <ele>8.7</ele>
        <time>2020-06-03T08:48:12Z</time>
      </trkpt>
      <trkpt lat="46.39965" lon="-1.48613">
        <ele>8.8</ele>
        <time>2020-06-03T08:48:13Z</time>
      </trkpt>
      <trkpt lat="46.39967" lon="-1.4861">
        <ele>8.9</ele>
        <time>2020-06-03T08:48:14Z</time>
      </trkpt>
      <trkpt lat="46.39971" lon="-1.48607">
        <ele>9.1</ele>
        <time>2020-06-03T08:48:15Z</time>
      </trkpt>
      <trkpt lat="46.39974" lon="-1.48605">
        <ele>9.2</ele>
        <time>2020-06-03T08:48:16Z</time>
      </trkpt>
      <trkpt lat="46.39978" lon="-1.48604">
        <ele>9.3</ele>
        <time>2020-06-03T08:48:17Z</time>
      </trkpt>
      <trkpt lat="46.39982" lon="-1.48602">
        <ele>9.4</ele>
        <time>2020-06-03T08:48:18Z</time>
      </trkpt>
      <trkpt lat="46.39985" lon="-1.48601">
        <ele>9.5</ele>
        <time>2020-06-03T08:48:19Z</time>
      </trkpt>
      <trkpt lat="46.39988" lon="-1.486">
        <ele>9.5</ele>
        <time>2020-06-03T08:48:20Z</time>
      </trkpt>
      <trkpt lat="46.39992" lon="-1.486">
        <ele>9.5</ele>
        <time>2020-06-03T08:48:21Z</time>
      </trkpt>
      <trkpt lat="46.39997" lon="-1.486">
        <ele>9.5</ele>
        <time>2020-06-03T08:48:22Z</time>
      </trkpt>
      <trkpt lat="46.40002" lon="-1.48599">
        <ele>9.4</ele>
        <time>2020-06-03T08:48:23Z</time>
      </trkpt>
      <trkpt lat="46.40007" lon="-1.48598">
        <ele>9.3</ele>
        <time>2020-06-03T08:48:24Z</time>
      </trkpt>
      <trkpt lat="46.40014" lon="-1.48596">
        <ele>9</ele>
        <time>2020-06-03T08:48:25Z</time>
      </trkpt>
      <trkpt lat="46.4002" lon="-1.48595">
        <ele>8.7</ele>
        <time>2020-06-03T08:48:26Z</time>
      </trkpt>
      <trkpt lat="46.40026" lon="-1.48594">
        <ele>8.3</ele>
        <time>2020-06-03T08:48:27Z</time>
      </trkpt>
      <trkpt lat="46.40033" lon="-1.48592">
        <ele>8</ele>
        <time>2020-06-03T08:48:28Z</time>
      </trkpt>
      <trkpt lat="46.4004" lon="-1.48591">
        <ele>7.7</ele>
        <time>2020-06-03T08:48:29Z</time>
      </trkpt>
      <trkpt lat="46.40047" lon="-1.48589">
        <ele>7.4</ele>
        <time>2020-06-03T08:48:30Z</time>
      </trkpt>
      <trkpt lat="46.40054" lon="-1.48587">
        <ele>7.2</ele>
        <time>2020-06-03T08:48:31Z</time>
      </trkpt>
      <trkpt lat="46.4006" lon="-1.48587">
        <ele>7.2</ele>
        <time>2020-06-03T08:48:32Z</time>
      </trkpt>
      <trkpt lat="46.40067" lon="-1.48589">
        <ele>7.1</ele>
        <time>2020-06-03T08:48:33Z</time>
      </trkpt>
      <trkpt lat="46.40073" lon="-1.48592">
        <ele>7.1</ele>
        <time>2020-06-03T08:48:34Z</time>
      </trkpt>
      <trkpt lat="46.40079" lon="-1.48598">
        <ele>7.1</ele>
        <time>2020-06-03T08:48:35Z</time>
      </trkpt>
      <trkpt lat="46.40084" lon="-1.48602">
        <ele>7</ele>
        <time>2020-06-03T08:48:36Z</time>
      </trkpt>
      <trkpt lat="46.40089" lon="-1.48608">
        <ele>7</ele>
        <time>2020-06-03T08:48:37Z</time>
      </trkpt>
      <trkpt lat="46.40093" lon="-1.48613">
        <ele>6.9</ele>
        <time>2020-06-03T08:48:38Z</time>
      </trkpt>
      <trkpt lat="46.40096" lon="-1.48616">
        <ele>6.9</ele>
        <time>2020-06-03T08:48:39Z</time>
      </trkpt>
      <trkpt lat="46.40098" lon="-1.48619">
        <ele>6.9</ele>
        <time>2020-06-03T08:48:40Z</time>
      </trkpt>
      <trkpt lat="46.40099" lon="-1.4862">
        <ele>6.8</ele>
        <time>2020-06-03T08:48:41Z</time>
      </trkpt>
      <trkpt lat="46.40102" lon="-1.48622">
        <ele>6.8</ele>
        <time>2020-06-03T08:48:42Z</time>
      </trkpt>
      <trkpt lat="46.40106" lon="-1.48628">
        <ele>6.8</ele>
        <time>2020-06-03T08:48:43Z</time>
      </trkpt>
      <trkpt lat="46.40109" lon="-1.48633">
        <ele>6.7</ele>
        <time>2020-06-03T08:48:44Z</time>
      </trkpt>
      <trkpt lat="46.40112" lon="-1.48638">
        <ele>6.7</ele>
        <time>2020-06-03T08:48:45Z</time>
      </trkpt>
      <trkpt lat="46.40115" lon="-1.48642">
        <ele>6.7</ele>
        <time>2020-06-03T08:48:46Z</time>
      </trkpt>
      <trkpt lat="46.40118" lon="-1.48644">
        <ele>6.7</ele>
        <time>2020-06-03T08:48:47Z</time>
      </trkpt>
      <trkpt lat="46.40122" lon="-1.48646">
        <ele>6.6</ele>
        <time>2020-06-03T08:48:48Z</time>
      </trkpt>
      <trkpt lat="46.40126" lon="-1.48647">
        <ele>6.7</ele>
        <time>2020-06-03T08:48:49Z</time>
      </trkpt>
      <trkpt lat="46.40132" lon="-1.48652">
        <ele>6.9</ele>
        <time>2020-06-03T08:48:50Z</time>
      </trkpt>
      <trkpt lat="46.40138" lon="-1.4866">
        <ele>7.2</ele>
        <time>2020-06-03T08:48:51Z</time>
      </trkpt>
      <trkpt lat="46.40141" lon="-1.48666">
        <ele>7.4</ele>
        <time>2020-06-03T08:48:52Z</time>
      </trkpt>
      <trkpt lat="46.40144" lon="-1.48672">
        <ele>7.7</ele>
        <time>2020-06-03T08:48:53Z</time>
      </trkpt>
      <trkpt lat="46.40146" lon="-1.48677">
        <ele>8.1</ele>
        <time>2020-06-03T08:48:54Z</time>
      </trkpt>
      <trkpt lat="46.40148" lon="-1.4868">
        <ele>8.3</ele>
        <time>2020-06-03T08:48:55Z</time>
      </trkpt>
      <trkpt lat="46.4015" lon="-1.48684">
        <ele>8.6</ele>
        <time>2020-06-03T08:48:56Z</time>
      </trkpt>
      <trkpt lat="46.4015" lon="-1.48685">
        <ele>8.6</ele>
        <time>2020-06-03T08:48:57Z</time>
      </trkpt>
      <trkpt lat="46.40152" lon="-1.48686">
        <ele>8.8</ele>
        <time>2020-06-03T08:48:58Z</time>
      </trkpt>
      <trkpt lat="46.40153" lon="-1.48688">
        <ele>8.9</ele>
        <time>2020-06-03T08:48:59Z</time>
      </trkpt>
      <trkpt lat="46.40154" lon="-1.4869">
        <ele>9</ele>
        <time>2020-06-03T08:49:00Z</time>
      </trkpt>
      <trkpt lat="46.40154" lon="-1.48691">
        <ele>9.1</ele>
        <time>2020-06-03T08:49:01Z</time>
      </trkpt>
      <trkpt lat="46.40155" lon="-1.48691">
        <ele>9.2</ele>
        <time>2020-06-03T08:49:02Z</time>
      </trkpt>
      <trkpt lat="46.40155" lon="-1.48691">
        <ele>9.2</ele>
        <time>2020-06-03T08:49:03Z</time>
      </trkpt>
      <trkpt lat="46.40156" lon="-1.48691">
        <ele>9.3</ele>
        <time>2020-06-03T08:49:04Z</time>
      </trkpt>
      <trkpt lat="46.40157" lon="-1.48693">
        <ele>9.4</ele>
        <time>2020-06-03T08:49:05Z</time>
      </trkpt>
      <trkpt lat="46.40158" lon="-1.48694">
        <ele>9.5</ele>
        <time>2020-06-03T08:49:06Z</time>
      </trkpt>
      <trkpt lat="46.40159" lon="-1.48694">
        <ele>9.5</ele>
        <time>2020-06-03T08:49:07Z</time>
      </trkpt>
      <trkpt lat="46.4016" lon="-1.48696">
        <ele>9.7</ele>
        <time>2020-06-03T08:49:08Z</time>
      </trkpt>
      <trkpt lat="46.40161" lon="-1.48697">
        <ele>9.8</ele>
        <time>2020-06-03T08:49:09Z</time>
      </trkpt>
      <trkpt lat="46.40162" lon="-1.48702">
        <ele>10</ele>
        <time>2020-06-03T08:49:10Z</time>
      </trkpt>
      <trkpt lat="46.40162" lon="-1.48703">
        <ele>10.1</ele>
        <time>2020-06-03T08:49:11Z</time>
      </trkpt>
      <trkpt lat="46.40162" lon="-1.48706">
        <ele>10.3</ele>
        <time>2020-06-03T08:49:12Z</time>
      </trkpt>
      <trkpt lat="46.40162" lon="-1.48708">
        <ele>10.4</ele>
        <time>2020-06-03T08:49:13Z</time>
      </trkpt>
      <trkpt lat="46.40163" lon="-1.48714">
        <ele>10.7</ele>
        <time>2020-06-03T08:49:14Z</time>
      </trkpt>
      <trkpt lat="46.40164" lon="-1.48716">
        <ele>10.8</ele>
        <time>2020-06-03T08:49:15Z</time>
      </trkpt>
      <trkpt lat="46.40165" lon="-1.48721">
        <ele>11.1</ele>
        <time>2020-06-03T08:49:16Z</time>
      </trkpt>
      <trkpt lat="46.40167" lon="-1.48726">
        <ele>11.3</ele>
        <time>2020-06-03T08:49:17Z</time>
      </trkpt>
      <trkpt lat="46.40169" lon="-1.4873">
        <ele>11.5</ele>
        <time>2020-06-03T08:49:18Z</time>
      </trkpt>
      <trkpt lat="46.40171" lon="-1.48734">
        <ele>11.7</ele>
        <time>2020-06-03T08:49:19Z</time>
      </trkpt>
      <trkpt lat="46.40173" lon="-1.48738">
        <ele>11.8</ele>
        <time>2020-06-03T08:49:20Z</time>
      </trkpt>
      <trkpt lat="46.40176" lon="-1.48741">
        <ele>12</ele>
        <time>2020-06-03T08:49:21Z</time>
      </trkpt>
      <trkpt lat="46.40177" lon="-1.48742">
        <ele>12</ele>
        <time>2020-06-03T08:49:22Z</time>
      </trkpt>
      <trkpt lat="46.4018" lon="-1.48745">
        <ele>12.1</ele>
        <time>2020-06-03T08:49:23Z</time>
      </trkpt>
      <trkpt lat="46.40181" lon="-1.48746">
        <ele>12.1</ele>
        <time>2020-06-03T08:49:24Z</time>
      </trkpt>
      <trkpt lat="46.40184" lon="-1.48747">
        <ele>12.2</ele>
        <time>2020-06-03T08:49:25Z</time>
      </trkpt>
      <trkpt lat="46.40188" lon="-1.48748">
        <ele>12.2</ele>
        <time>2020-06-03T08:49:26Z</time>
      </trkpt>
      <trkpt lat="46.40192" lon="-1.48749">
        <ele>12.2</ele>
        <time>2020-06-03T08:49:27Z</time>
      </trkpt>
      <trkpt lat="46.40196" lon="-1.48751">
        <ele>12.1</ele>
        <time>2020-06-03T08:49:28Z</time>
      </trkpt>
      <trkpt lat="46.402" lon="-1.48751">
        <ele>12</ele>
        <time>2020-06-03T08:49:29Z</time>
      </trkpt>
      <trkpt lat="46.40203" lon="-1.48752">
        <ele>12</ele>
        <time>2020-06-03T08:49:30Z</time>
      </trkpt>
      <trkpt lat="46.40207" lon="-1.48752">
        <ele>11.9</ele>
        <time>2020-06-03T08:49:31Z</time>
      </trkpt>
      <trkpt lat="46.40212" lon="-1.48753">
        <ele>11.8</ele>
        <time>2020-06-03T08:49:32Z</time>
      </trkpt>
      <trkpt lat="46.40218" lon="-1.48754">
        <ele>11.6</ele>
        <time>2020-06-03T08:49:33Z</time>
      </trkpt>
      <trkpt lat="46.40224" lon="-1.48758">
        <ele>11.4</ele>
        <time>2020-06-03T08:49:34Z</time>
      </trkpt>
      <trkpt lat="46.40229" lon="-1.48762">
        <ele>11.3</ele>
        <time>2020-06-03T08:49:35Z</time>
      </trkpt>
      <trkpt lat="46.40234" lon="-1.48767">
        <ele>11.2</ele>
        <time>2020-06-03T08:49:36Z</time>
      </trkpt>
      <trkpt lat="46.40239" lon="-1.48772">
        <ele>11.1</ele>
        <time>2020-06-03T08:49:37Z</time>
      </trkpt>
      <trkpt lat="46.40244" lon="-1.48778">
        <ele>11.1</ele>
        <time>2020-06-03T08:49:38Z</time>
      </trkpt>
      <trkpt lat="46.40248" lon="-1.48786">
        <ele>11</ele>
        <time>2020-06-03T08:49:39Z</time>
      </trkpt>
      <trkpt lat="46.40253" lon="-1.48794">
        <ele>11</ele>
        <time>2020-06-03T08:49:40Z</time>
      </trkpt>
      <trkpt lat="46.40258" lon="-1.488">
        <ele>10.9</ele>
        <time>2020-06-03T08:49:41Z</time>
      </trkpt>
      <trkpt lat="46.40262" lon="-1.48807">
        <ele>10.9</ele>
        <time>2020-06-03T08:49:42Z</time>
      </trkpt>
      <trkpt lat="46.40266" lon="-1.48814">
        <ele>10.9</ele>
        <time>2020-06-03T08:49:43Z</time>
      </trkpt>
      <trkpt lat="46.4027" lon="-1.48821">
        <ele>10.8</ele>
        <time>2020-06-03T08:49:44Z</time>
      </trkpt>
      <trkpt lat="46.40274" lon="-1.48829">
        <ele>10.7</ele>
        <time>2020-06-03T08:49:45Z</time>
      </trkpt>
      <trkpt lat="46.40277" lon="-1.48837">
        <ele>10.5</ele>
        <time>2020-06-03T08:49:46Z</time>
      </trkpt>
      <trkpt lat="46.40279" lon="-1.48844">
        <ele>10.3</ele>
        <time>2020-06-03T08:49:47Z</time>
      </trkpt>
      <trkpt lat="46.40282" lon="-1.48851">
        <ele>10</ele>
        <time>2020-06-03T08:49:48Z</time>
      </trkpt>
      <trkpt lat="46.40285" lon="-1.4886">
        <ele>9.6</ele>
        <time>2020-06-03T08:49:49Z</time>
      </trkpt>
      <trkpt lat="46.40287" lon="-1.48871">
        <ele>9.1</ele>
        <time>2020-06-03T08:49:50Z</time>
      </trkpt>
      <trkpt lat="46.40289" lon="-1.4888">
        <ele>8.7</ele>
        <time>2020-06-03T08:49:51Z</time>
      </trkpt>
      <trkpt lat="46.40291" lon="-1.4889">
        <ele>8.3</ele>
        <time>2020-06-03T08:49:52Z</time>
      </trkpt>
      <trkpt lat="46.40294" lon="-1.48901">
        <ele>7.9</ele>
        <time>2020-06-03T08:49:53Z</time>
      </trkpt>
      <trkpt lat="46.40296" lon="-1.48911">
        <ele>7.6</ele>
        <time>2020-06-03T08:49:54Z</time>
      </trkpt>
      <trkpt lat="46.40299" lon="-1.4892">
        <ele>7.4</ele>
        <time>2020-06-03T08:49:55Z</time>
      </trkpt>
      <trkpt lat="46.40302" lon="-1.48928">
        <ele>7.3</ele>
        <time>2020-06-03T08:49:56Z</time>
      </trkpt>
      <trkpt lat="46.40306" lon="-1.48935">
        <ele>7.3</ele>
        <time>2020-06-03T08:49:57Z</time>
      </trkpt>
      <trkpt lat="46.40311" lon="-1.48941">
        <ele>7.2</ele>
        <time>2020-06-03T08:49:58Z</time>
      </trkpt>
      <trkpt lat="46.40315" lon="-1.48947">
        <ele>7.2</ele>
        <time>2020-06-03T08:49:59Z</time>
      </trkpt>
      <trkpt lat="46.40319" lon="-1.48952">
        <ele>7.2</ele>
        <time>2020-06-03T08:50:00Z</time>
      </trkpt>
      <trkpt lat="46.40322" lon="-1.48956">
        <ele>7.2</ele>
        <time>2020-06-03T08:50:01Z</time>
      </trkpt>
      <trkpt lat="46.40325" lon="-1.4896">
        <ele>7.2</ele>
        <time>2020-06-03T08:50:02Z</time>
      </trkpt>
      <trkpt lat="46.4033" lon="-1.48965">
        <ele>7.2</ele>
        <time>2020-06-03T08:50:03Z</time>
      </trkpt>
      <trkpt lat="46.40335" lon="-1.48972">
        <ele>7.1</ele>
        <time>2020-06-03T08:50:04Z</time>
      </trkpt>
      <trkpt lat="46.40339" lon="-1.4898">
        <ele>7.1</ele>
        <time>2020-06-03T08:50:05Z</time>
      </trkpt>
      <trkpt lat="46.40343" lon="-1.48989">
        <ele>7</ele>
        <time>2020-06-03T08:50:06Z</time>
      </trkpt>
      <trkpt lat="46.40347" lon="-1.48999">
        <ele>7</ele>
        <time>2020-06-03T08:50:07Z</time>
      </trkpt>
      <trkpt lat="46.40351" lon="-1.49008">
        <ele>6.9</ele>
        <time>2020-06-03T08:50:08Z</time>
      </trkpt>
      <trkpt lat="46.40354" lon="-1.49017">
        <ele>6.9</ele>
        <time>2020-06-03T08:50:09Z</time>
      </trkpt>
      <trkpt lat="46.40357" lon="-1.49025">
        <ele>6.8</ele>
        <time>2020-06-03T08:50:10Z</time>
      </trkpt>
      <trkpt lat="46.40361" lon="-1.49033">
        <ele>6.8</ele>
        <time>2020-06-03T08:50:11Z</time>
      </trkpt>
      <trkpt lat="46.40364" lon="-1.49041">
        <ele>6.8</ele>
        <time>2020-06-03T08:50:12Z</time>
      </trkpt>
      <trkpt lat="46.40367" lon="-1.49048">
        <ele>6.7</ele>
        <time>2020-06-03T08:50:13Z</time>
      </trkpt>
      <trkpt lat="46.40371" lon="-1.49054">
        <ele>6.7</ele>
        <time>2020-06-03T08:50:14Z</time>
      </trkpt>
      <trkpt lat="46.40374" lon="-1.49061">
        <ele>6.7</ele>
        <time>2020-06-03T08:50:15Z</time>
      </trkpt>
      <trkpt lat="46.40379" lon="-1.49066">
        <ele>6.6</ele>
        <time>2020-06-03T08:50:16Z</time>
      </trkpt>
      <trkpt lat="46.40383" lon="-1.4907">
        <ele>6.6</ele>
        <time>2020-06-03T08:50:17Z</time>
      </trkpt>
      <trkpt lat="46.40388" lon="-1.49074">
        <ele>6.5</ele>
        <time>2020-06-03T08:50:18Z</time>
      </trkpt>
      <trkpt lat="46.40392" lon="-1.49075">
        <ele>6.4</ele>
        <time>2020-06-03T08:50:19Z</time>
      </trkpt>
      <trkpt lat="46.40395" lon="-1.49076">
        <ele>6.4</ele>
        <time>2020-06-03T08:50:20Z</time>
      </trkpt>
      <trkpt lat="46.40398" lon="-1.49075">
        <ele>6.3</ele>
        <time>2020-06-03T08:50:21Z</time>
      </trkpt>
      <trkpt lat="46.40402" lon="-1.49072">
        <ele>6.3</ele>
        <time>2020-06-03T08:50:22Z</time>
      </trkpt>
      <trkpt lat="46.40407" lon="-1.49068">
        <ele>6.2</ele>
        <time>2020-06-03T08:50:23Z</time>
      </trkpt>
      <trkpt lat="46.40411" lon="-1.49064">
        <ele>6.1</ele>
        <time>2020-06-03T08:50:24Z</time>
      </trkpt>
      <trkpt lat="46.40416" lon="-1.4906">
        <ele>6.1</ele>
        <time>2020-06-03T08:50:25Z</time>
      </trkpt>
      <trkpt lat="46.4042" lon="-1.49057">
        <ele>6</ele>
        <time>2020-06-03T08:50:26Z</time>
      </trkpt>
      <trkpt lat="46.40423" lon="-1.49053">
        <ele>6</ele>
        <time>2020-06-03T08:50:27Z</time>
      </trkpt>
      <trkpt lat="46.40427" lon="-1.49047">
        <ele>6</ele>
        <time>2020-06-03T08:50:28Z</time>
      </trkpt>
      <trkpt lat="46.4043" lon="-1.49041">
        <ele>5.9</ele>
        <time>2020-06-03T08:50:29Z</time>
      </trkpt>
      <trkpt lat="46.40433" lon="-1.49035">
        <ele>5.9</ele>
        <time>2020-06-03T08:50:30Z</time>
      </trkpt>
      <trkpt lat="46.40436" lon="-1.49029">
        <ele>5.9</ele>
        <time>2020-06-03T08:50:31Z</time>
      </trkpt>
      <trkpt lat="46.40439" lon="-1.49021">
        <ele>5.9</ele>
        <time>2020-06-03T08:50:32Z</time>
      </trkpt>
      <trkpt lat="46.40443" lon="-1.4901">
        <ele>5.9</ele>
        <time>2020-06-03T08:50:33Z</time>
      </trkpt>
      <trkpt lat="46.40446" lon="-1.49002">
        <ele>5.8</ele>
        <time>2020-06-03T08:50:34Z</time>
      </trkpt>
      <trkpt lat="46.40447" lon="-1.48992">
        <ele>5.8</ele>
        <time>2020-06-03T08:50:35Z</time>
      </trkpt>
      <trkpt lat="46.40449" lon="-1.48982">
        <ele>5.8</ele>
        <time>2020-06-03T08:50:36Z</time>
      </trkpt>
      <trkpt lat="46.40451" lon="-1.48974">
        <ele>5.8</ele>
        <time>2020-06-03T08:50:37Z</time>
      </trkpt>
      <trkpt lat="46.40453" lon="-1.48969">
        <ele>5.8</ele>
        <time>2020-06-03T08:50:38Z</time>
      </trkpt>
      <trkpt lat="46.40456" lon="-1.48966">
        <ele>5.8</ele>
        <time>2020-06-03T08:50:39Z</time>
      </trkpt>
      <trkpt lat="46.4046" lon="-1.48962">
        <ele>5.8</ele>
        <time>2020-06-03T08:50:40Z</time>
      </trkpt>
      <trkpt lat="46.40463" lon="-1.4896">
        <ele>5.7</ele>
        <time>2020-06-03T08:50:41Z</time>
      </trkpt>
      <trkpt lat="46.40466" lon="-1.48958">
        <ele>5.7</ele>
        <time>2020-06-03T08:50:42Z</time>
      </trkpt>
      <trkpt lat="46.40468" lon="-1.48956">
        <ele>5.7</ele>
        <time>2020-06-03T08:50:43Z</time>
      </trkpt>
      <trkpt lat="46.40469" lon="-1.48955">
        <ele>5.7</ele>
        <time>2020-06-03T08:50:44Z</time>
      </trkpt>
      <trkpt lat="46.40468" lon="-1.48953">
        <ele>5.7</ele>
        <time>2020-06-03T08:50:45Z</time>
      </trkpt>
      <trkpt lat="46.40467" lon="-1.48952">
        <ele>5.7</ele>
        <time>2020-06-03T08:50:46Z</time>
      </trkpt>
      <trkpt lat="46.40467" lon="-1.48951">
        <ele>5.7</ele>
        <time>2020-06-03T08:50:47Z</time>
      </trkpt>
      <trkpt lat="46.40466" lon="-1.4895">
        <ele>5.7</ele>
        <time>2020-06-03T08:50:48Z</time>
      </trkpt>
      <trkpt lat="46.40466" lon="-1.4895">
        <ele>5.7</ele>
        <time>2020-06-03T08:50:49Z</time>
      </trkpt>
      <trkpt lat="46.40467" lon="-1.4895">
        <ele>5.7</ele>
        <time>2020-06-03T08:50:50Z</time>
      </trkpt>
      <trkpt lat="46.40468" lon="-1.48949">
        <ele>5.7</ele>
        <time>2020-06-03T08:50:51Z</time>
      </trkpt>
      <trkpt lat="46.40468" lon="-1.4895">
        <ele>5.7</ele>
        <time>2020-06-03T08:50:52Z</time>
      </trkpt>
      <trkpt lat="46.40469" lon="-1.4895">
        <ele>5.7</ele>
        <time>2020-06-03T08:50:53Z</time>
      </trkpt>
      <trkpt lat="46.4047" lon="-1.48952">
        <ele>5.7</ele>
        <time>2020-06-03T08:50:54Z</time>
      </trkpt>
      <trkpt lat="46.40471" lon="-1.48954">
        <ele>5.7</ele>
        <time>2020-06-03T08:50:55Z</time>
      </trkpt>
      <trkpt lat="46.40473" lon="-1.48957">
        <ele>5.7</ele>
        <time>2020-06-03T08:50:56Z</time>
      </trkpt>
      <trkpt lat="46.40475" lon="-1.48961">
        <ele>5.7</ele>
        <time>2020-06-03T08:50:57Z</time>
      </trkpt>
      <trkpt lat="46.40477" lon="-1.48964">
        <ele>5.7</ele>
        <time>2020-06-03T08:50:58Z</time>
      </trkpt>
      <trkpt lat="46.40479" lon="-1.48967">
        <ele>5.7</ele>
        <time>2020-06-03T08:50:59Z</time>
      </trkpt>
      <trkpt lat="46.40483" lon="-1.48972">
        <ele>5.7</ele>
        <time>2020-06-03T08:51:00Z</time>
      </trkpt>
      <trkpt lat="46.40484" lon="-1.48974">
        <ele>5.7</ele>
        <time>2020-06-03T08:51:01Z</time>
      </trkpt>
      <trkpt lat="46.40488" lon="-1.48978">
        <ele>5.7</ele>
        <time>2020-06-03T08:51:02Z</time>
      </trkpt>
      <trkpt lat="46.40492" lon="-1.48984">
        <ele>5.7</ele>
        <time>2020-06-03T08:51:03Z</time>
      </trkpt>
      <trkpt lat="46.40496" lon="-1.4899">
        <ele>5.7</ele>
        <time>2020-06-03T08:51:04Z</time>
      </trkpt>
      <trkpt lat="46.405" lon="-1.48996">
        <ele>5.7</ele>
        <time>2020-06-03T08:51:05Z</time>
      </trkpt>
      <trkpt lat="46.40505" lon="-1.49002">
        <ele>5.7</ele>
        <time>2020-06-03T08:51:06Z</time>
      </trkpt>
      <trkpt lat="46.4051" lon="-1.49008">
        <ele>5.7</ele>
        <time>2020-06-03T08:51:07Z</time>
      </trkpt>
      <trkpt lat="46.40514" lon="-1.49015">
        <ele>5.7</ele>
        <time>2020-06-03T08:51:08Z</time>
      </trkpt>
      <trkpt lat="46.40517" lon="-1.4902">
        <ele>5.7</ele>
        <time>2020-06-03T08:51:09Z</time>
      </trkpt>
      <trkpt lat="46.4052" lon="-1.49025">
        <ele>5.7</ele>
        <time>2020-06-03T08:51:10Z</time>
      </trkpt>
      <trkpt lat="46.40525" lon="-1.49029">
        <ele>5.7</ele>
        <time>2020-06-03T08:51:11Z</time>
      </trkpt>
      <trkpt lat="46.4053" lon="-1.49031">
        <ele>5.7</ele>
        <time>2020-06-03T08:51:12Z</time>
      </trkpt>
      <trkpt lat="46.40536" lon="-1.49034">
        <ele>5.8</ele>
        <time>2020-06-03T08:51:13Z</time>
      </trkpt>
      <trkpt lat="46.40543" lon="-1.49035">
        <ele>5.8</ele>
        <time>2020-06-03T08:51:14Z</time>
      </trkpt>
      <trkpt lat="46.4055" lon="-1.49037">
        <ele>5.9</ele>
        <time>2020-06-03T08:51:15Z</time>
      </trkpt>
      <trkpt lat="46.40556" lon="-1.49039">
        <ele>5.9</ele>
        <time>2020-06-03T08:51:16Z</time>
      </trkpt>
      <trkpt lat="46.40563" lon="-1.4904">
        <ele>5.9</ele>
        <time>2020-06-03T08:51:17Z</time>
      </trkpt>
      <trkpt lat="46.40568" lon="-1.49042">
        <ele>5.9</ele>
        <time>2020-06-03T08:51:18Z</time>
      </trkpt>
      <trkpt lat="46.40572" lon="-1.49046">
        <ele>5.9</ele>
        <time>2020-06-03T08:51:19Z</time>
      </trkpt>
      <trkpt lat="46.40575" lon="-1.49051">
        <ele>5.9</ele>
        <time>2020-06-03T08:51:20Z</time>
      </trkpt>
      <trkpt lat="46.40578" lon="-1.49055">
        <ele>5.9</ele>
        <time>2020-06-03T08:51:21Z</time>
      </trkpt>
      <trkpt lat="46.40581" lon="-1.49059">
        <ele>5.9</ele>
        <time>2020-06-03T08:51:22Z</time>
      </trkpt>
      <trkpt lat="46.40584" lon="-1.49061">
        <ele>5.9</ele>
        <time>2020-06-03T08:51:23Z</time>
      </trkpt>
      <trkpt lat="46.40586" lon="-1.49065">
        <ele>5.9</ele>
        <time>2020-06-03T08:51:24Z</time>
      </trkpt>
      <trkpt lat="46.4059" lon="-1.4907">
        <ele>6</ele>
        <time>2020-06-03T08:51:25Z</time>
      </trkpt>
      <trkpt lat="46.40594" lon="-1.49075">
        <ele>6</ele>
        <time>2020-06-03T08:51:26Z</time>
      </trkpt>
      <trkpt lat="46.40599" lon="-1.49079">
        <ele>6</ele>
        <time>2020-06-03T08:51:27Z</time>
      </trkpt>
      <trkpt lat="46.40605" lon="-1.49084">
        <ele>6</ele>
        <time>2020-06-03T08:51:28Z</time>
      </trkpt>
      <trkpt lat="46.40611" lon="-1.4909">
        <ele>6.1</ele>
        <time>2020-06-03T08:51:29Z</time>
      </trkpt>
      <trkpt lat="46.40616" lon="-1.49095">
        <ele>6.1</ele>
        <time>2020-06-03T08:51:30Z</time>
      </trkpt>
      <trkpt lat="46.40621" lon="-1.491">
        <ele>6.1</ele>
        <time>2020-06-03T08:51:31Z</time>
      </trkpt>
      <trkpt lat="46.40626" lon="-1.49104">
        <ele>6.2</ele>
        <time>2020-06-03T08:51:32Z</time>
      </trkpt>
      <trkpt lat="46.40631" lon="-1.49109">
        <ele>6.2</ele>
        <time>2020-06-03T08:51:33Z</time>
      </trkpt>
      <trkpt lat="46.40636" lon="-1.49113">
        <ele>6.3</ele>
        <time>2020-06-03T08:51:34Z</time>
      </trkpt>
      <trkpt lat="46.40641" lon="-1.49117">
        <ele>6.3</ele>
        <time>2020-06-03T08:51:35Z</time>
      </trkpt>
      <trkpt lat="46.40646" lon="-1.49121">
        <ele>6.3</ele>
        <time>2020-06-03T08:51:36Z</time>
      </trkpt>
      <trkpt lat="46.40651" lon="-1.49129">
        <ele>6.4</ele>
        <time>2020-06-03T08:51:37Z</time>
      </trkpt>
      <trkpt lat="46.40657" lon="-1.49136">
        <ele>6.5</ele>
        <time>2020-06-03T08:51:38Z</time>
      </trkpt>
      <trkpt lat="46.40661" lon="-1.49143">
        <ele>6.6</ele>
        <time>2020-06-03T08:51:39Z</time>
      </trkpt>
      <trkpt lat="46.40666" lon="-1.49149">
        <ele>6.6</ele>
        <time>2020-06-03T08:51:40Z</time>
      </trkpt>
      <trkpt lat="46.40671" lon="-1.49155">
        <ele>6.7</ele>
        <time>2020-06-03T08:51:41Z</time>
      </trkpt>
      <trkpt lat="46.40674" lon="-1.49159">
        <ele>6.7</ele>
        <time>2020-06-03T08:51:42Z</time>
      </trkpt>
      <trkpt lat="46.40676" lon="-1.49163">
        <ele>6.7</ele>
        <time>2020-06-03T08:51:43Z</time>
      </trkpt>
      <trkpt lat="46.40679" lon="-1.49168">
        <ele>6.7</ele>
        <time>2020-06-03T08:51:44Z</time>
      </trkpt>
      <trkpt lat="46.40684" lon="-1.49174">
        <ele>6.7</ele>
        <time>2020-06-03T08:51:45Z</time>
      </trkpt>
      <trkpt lat="46.40689" lon="-1.4918">
        <ele>6.7</ele>
        <time>2020-06-03T08:51:46Z</time>
      </trkpt>
      <trkpt lat="46.40694" lon="-1.49187">
        <ele>6.7</ele>
        <time>2020-06-03T08:51:47Z</time>
      </trkpt>
      <trkpt lat="46.40698" lon="-1.49194">
        <ele>6.8</ele>
        <time>2020-06-03T08:51:48Z</time>
      </trkpt>
      <trkpt lat="46.40703" lon="-1.492">
        <ele>6.9</ele>
        <time>2020-06-03T08:51:49Z</time>
      </trkpt>
      <trkpt lat="46.40707" lon="-1.49206">
        <ele>7</ele>
        <time>2020-06-03T08:51:50Z</time>
      </trkpt>
      <trkpt lat="46.40711" lon="-1.49211">
        <ele>7.1</ele>
        <time>2020-06-03T08:51:51Z</time>
      </trkpt>
      <trkpt lat="46.40716" lon="-1.49214">
        <ele>7.3</ele>
        <time>2020-06-03T08:51:52Z</time>
      </trkpt>
      <trkpt lat="46.40722" lon="-1.49216">
        <ele>7.5</ele>
        <time>2020-06-03T08:51:53Z</time>
      </trkpt>
      <trkpt lat="46.40729" lon="-1.49215">
        <ele>7.8</ele>
        <time>2020-06-03T08:51:54Z</time>
      </trkpt>
      <trkpt lat="46.40734" lon="-1.49213">
        <ele>8</ele>
        <time>2020-06-03T08:51:55Z</time>
      </trkpt>
      <trkpt lat="46.40739" lon="-1.49212">
        <ele>8.2</ele>
        <time>2020-06-03T08:51:56Z</time>
      </trkpt>
      <trkpt lat="46.40744" lon="-1.49212">
        <ele>8.3</ele>
        <time>2020-06-03T08:51:57Z</time>
      </trkpt>
      <trkpt lat="46.40748" lon="-1.49213">
        <ele>8.4</ele>
        <time>2020-06-03T08:51:58Z</time>
      </trkpt>
      <trkpt lat="46.40751" lon="-1.49216">
        <ele>8.5</ele>
        <time>2020-06-03T08:51:59Z</time>
      </trkpt>
      <trkpt lat="46.40754" lon="-1.49221">
        <ele>8.6</ele>
        <time>2020-06-03T08:52:00Z</time>
      </trkpt>
      <trkpt lat="46.40757" lon="-1.49226">
        <ele>8.7</ele>
        <time>2020-06-03T08:52:01Z</time>
      </trkpt>
      <trkpt lat="46.40759" lon="-1.49232">
        <ele>8.8</ele>
        <time>2020-06-03T08:52:02Z</time>
      </trkpt>
      <trkpt lat="46.40762" lon="-1.49236">
        <ele>9</ele>
        <time>2020-06-03T08:52:03Z</time>
      </trkpt>
      <trkpt lat="46.40764" lon="-1.4924">
        <ele>9.1</ele>
        <time>2020-06-03T08:52:04Z</time>
      </trkpt>
      <trkpt lat="46.40765" lon="-1.49245">
        <ele>9.2</ele>
        <time>2020-06-03T08:52:05Z</time>
      </trkpt>
      <trkpt lat="46.40767" lon="-1.49251">
        <ele>9.4</ele>
        <time>2020-06-03T08:52:06Z</time>
      </trkpt>
      <trkpt lat="46.40768" lon="-1.49258">
        <ele>9.6</ele>
        <time>2020-06-03T08:52:07Z</time>
      </trkpt>
      <trkpt lat="46.40768" lon="-1.49264">
        <ele>9.7</ele>
        <time>2020-06-03T08:52:08Z</time>
      </trkpt>
      <trkpt lat="46.40769" lon="-1.4927">
        <ele>9.9</ele>
        <time>2020-06-03T08:52:09Z</time>
      </trkpt>
      <trkpt lat="46.40769" lon="-1.49272">
        <ele>10</ele>
        <time>2020-06-03T08:52:10Z</time>
      </trkpt>
      <trkpt lat="46.40769" lon="-1.49278">
        <ele>10.1</ele>
        <time>2020-06-03T08:52:11Z</time>
      </trkpt>
      <trkpt lat="46.40768" lon="-1.49283">
        <ele>10.2</ele>
        <time>2020-06-03T08:52:12Z</time>
      </trkpt>
      <trkpt lat="46.40766" lon="-1.4929">
        <ele>10.4</ele>
        <time>2020-06-03T08:52:13Z</time>
      </trkpt>
      <trkpt lat="46.40765" lon="-1.49296">
        <ele>10.4</ele>
        <time>2020-06-03T08:52:14Z</time>
      </trkpt>
      <trkpt lat="46.40764" lon="-1.49301">
        <ele>10.5</ele>
        <time>2020-06-03T08:52:15Z</time>
      </trkpt>
      <trkpt lat="46.40764" lon="-1.49307">
        <ele>10.5</ele>
        <time>2020-06-03T08:52:16Z</time>
      </trkpt>
      <trkpt lat="46.40764" lon="-1.49312">
        <ele>10.6</ele>
        <time>2020-06-03T08:52:17Z</time>
      </trkpt>
      <trkpt lat="46.40764" lon="-1.49317">
        <ele>10.6</ele>
        <time>2020-06-03T08:52:18Z</time>
      </trkpt>
      <trkpt lat="46.40765" lon="-1.49322">
        <ele>10.6</ele>
        <time>2020-06-03T08:52:19Z</time>
      </trkpt>
      <trkpt lat="46.40766" lon="-1.49326">
        <ele>10.7</ele>
        <time>2020-06-03T08:52:20Z</time>
      </trkpt>
      <trkpt lat="46.40767" lon="-1.49331">
        <ele>10.7</ele>
        <time>2020-06-03T08:52:21Z</time>
      </trkpt>
      <trkpt lat="46.40768" lon="-1.49333">
        <ele>10.7</ele>
        <time>2020-06-03T08:52:22Z</time>
      </trkpt>
      <trkpt lat="46.40768" lon="-1.49337">
        <ele>10.7</ele>
        <time>2020-06-03T08:52:23Z</time>
      </trkpt>
      <trkpt lat="46.40768" lon="-1.49339">
        <ele>10.7</ele>
        <time>2020-06-03T08:52:24Z</time>
      </trkpt>
      <trkpt lat="46.40768" lon="-1.49343">
        <ele>10.7</ele>
        <time>2020-06-03T08:52:25Z</time>
      </trkpt>
      <trkpt lat="46.40769" lon="-1.49346">
        <ele>10.7</ele>
        <time>2020-06-03T08:52:26Z</time>
      </trkpt>
      <trkpt lat="46.40769" lon="-1.49347">
        <ele>10.7</ele>
        <time>2020-06-03T08:52:27Z</time>
      </trkpt>
      <trkpt lat="46.40769" lon="-1.49349">
        <ele>10.7</ele>
        <time>2020-06-03T08:52:28Z</time>
      </trkpt>
      <trkpt lat="46.40769" lon="-1.49351">
        <ele>10.7</ele>
        <time>2020-06-03T08:52:29Z</time>
      </trkpt>
      <trkpt lat="46.40768" lon="-1.49352">
        <ele>10.7</ele>
        <time>2020-06-03T08:52:30Z</time>
      </trkpt>
      <trkpt lat="46.40765" lon="-1.49354">
        <ele>10.7</ele>
        <time>2020-06-03T08:52:31Z</time>
      </trkpt>
      <trkpt lat="46.40763" lon="-1.49356">
        <ele>10.8</ele>
        <time>2020-06-03T08:52:32Z</time>
      </trkpt>
      <trkpt lat="46.4076" lon="-1.49358">
        <ele>10.8</ele>
        <time>2020-06-03T08:52:33Z</time>
      </trkpt>
      <trkpt lat="46.40757" lon="-1.4936">
        <ele>10.8</ele>
        <time>2020-06-03T08:52:34Z</time>
      </trkpt>
      <trkpt lat="46.40754" lon="-1.49363">
        <ele>10.8</ele>
        <time>2020-06-03T08:52:35Z</time>
      </trkpt>
      <trkpt lat="46.40753" lon="-1.49363">
        <ele>10.8</ele>
        <time>2020-06-03T08:52:36Z</time>
      </trkpt>
      <trkpt lat="46.4075" lon="-1.49365">
        <ele>10.9</ele>
        <time>2020-06-03T08:52:37Z</time>
      </trkpt>
      <trkpt lat="46.40746" lon="-1.49367">
        <ele>10.9</ele>
        <time>2020-06-03T08:52:38Z</time>
      </trkpt>
      <trkpt lat="46.40742" lon="-1.4937">
        <ele>10.9</ele>
        <time>2020-06-03T08:52:39Z</time>
      </trkpt>
      <trkpt lat="46.40738" lon="-1.49373">
        <ele>10.9</ele>
        <time>2020-06-03T08:52:40Z</time>
      </trkpt>
      <trkpt lat="46.40734" lon="-1.49375">
        <ele>10.8</ele>
        <time>2020-06-03T08:52:41Z</time>
      </trkpt>
      <trkpt lat="46.40729" lon="-1.49377">
        <ele>10.8</ele>
        <time>2020-06-03T08:52:42Z</time>
      </trkpt>
      <trkpt lat="46.40726" lon="-1.49379">
        <ele>10.7</ele>
        <time>2020-06-03T08:52:43Z</time>
      </trkpt>
      <trkpt lat="46.40722" lon="-1.49382">
        <ele>10.6</ele>
        <time>2020-06-03T08:52:44Z</time>
      </trkpt>
      <trkpt lat="46.40718" lon="-1.49386">
        <ele>10.4</ele>
        <time>2020-06-03T08:52:45Z</time>
      </trkpt>
      <trkpt lat="46.40713" lon="-1.4939">
        <ele>10.2</ele>
        <time>2020-06-03T08:52:46Z</time>
      </trkpt>
      <trkpt lat="46.40709" lon="-1.49393">
        <ele>10.1</ele>
        <time>2020-06-03T08:52:47Z</time>
      </trkpt>
      <trkpt lat="46.40705" lon="-1.49397">
        <ele>9.9</ele>
        <time>2020-06-03T08:52:48Z</time>
      </trkpt>
      <trkpt lat="46.407" lon="-1.49401">
        <ele>9.8</ele>
        <time>2020-06-03T08:52:49Z</time>
      </trkpt>
      <trkpt lat="46.40694" lon="-1.49407">
        <ele>9.6</ele>
        <time>2020-06-03T08:52:50Z</time>
      </trkpt>
      <trkpt lat="46.40688" lon="-1.49412">
        <ele>9.4</ele>
        <time>2020-06-03T08:52:51Z</time>
      </trkpt>
      <trkpt lat="46.40682" lon="-1.49417">
        <ele>9.3</ele>
        <time>2020-06-03T08:52:52Z</time>
      </trkpt>
      <trkpt lat="46.40677" lon="-1.49422">
        <ele>9.2</ele>
        <time>2020-06-03T08:52:53Z</time>
      </trkpt>
      <trkpt lat="46.4067" lon="-1.49426">
        <ele>9.1</ele>
        <time>2020-06-03T08:52:54Z</time>
      </trkpt>
      <trkpt lat="46.40665" lon="-1.4943">
        <ele>9</ele>
        <time>2020-06-03T08:52:55Z</time>
      </trkpt>
      <trkpt lat="46.40659" lon="-1.49433">
        <ele>9</ele>
        <time>2020-06-03T08:52:56Z</time>
      </trkpt>
      <trkpt lat="46.40654" lon="-1.49437">
        <ele>8.9</ele>
        <time>2020-06-03T08:52:57Z</time>
      </trkpt>
      <trkpt lat="46.40649" lon="-1.49441">
        <ele>8.8</ele>
        <time>2020-06-03T08:52:58Z</time>
      </trkpt>
      <trkpt lat="46.40643" lon="-1.49446">
        <ele>8.7</ele>
        <time>2020-06-03T08:52:59Z</time>
      </trkpt>
      <trkpt lat="46.40639" lon="-1.49451">
        <ele>8.6</ele>
        <time>2020-06-03T08:53:00Z</time>
      </trkpt>
      <trkpt lat="46.40634" lon="-1.49456">
        <ele>8.6</ele>
        <time>2020-06-03T08:53:01Z</time>
      </trkpt>
      <trkpt lat="46.4063" lon="-1.49461">
        <ele>8.6</ele>
        <time>2020-06-03T08:53:02Z</time>
      </trkpt>
      <trkpt lat="46.40627" lon="-1.49466">
        <ele>8.5</ele>
        <time>2020-06-03T08:53:03Z</time>
      </trkpt>
      <trkpt lat="46.40623" lon="-1.49471">
        <ele>8.5</ele>
        <time>2020-06-03T08:53:04Z</time>
      </trkpt>
      <trkpt lat="46.40618" lon="-1.49475">
        <ele>8.4</ele>
        <time>2020-06-03T08:53:05Z</time>
      </trkpt>
      <trkpt lat="46.40612" lon="-1.49481">
        <ele>8.3</ele>
        <time>2020-06-03T08:53:06Z</time>
      </trkpt>
      <trkpt lat="46.40608" lon="-1.49487">
        <ele>8.2</ele>
        <time>2020-06-03T08:53:07Z</time>
      </trkpt>
      <trkpt lat="46.40603" lon="-1.49493">
        <ele>8.1</ele>
        <time>2020-06-03T08:53:08Z</time>
      </trkpt>
      <trkpt lat="46.40598" lon="-1.49499">
        <ele>8</ele>
        <time>2020-06-03T08:53:09Z</time>
      </trkpt>
      <trkpt lat="46.40594" lon="-1.49505">
        <ele>7.9</ele>
        <time>2020-06-03T08:53:10Z</time>
      </trkpt>
      <trkpt lat="46.40589" lon="-1.49511">
        <ele>7.8</ele>
        <time>2020-06-03T08:53:11Z</time>
      </trkpt>
      <trkpt lat="46.40584" lon="-1.49517">
        <ele>7.8</ele>
        <time>2020-06-03T08:53:12Z</time>
      </trkpt>
      <trkpt lat="46.4058" lon="-1.49524">
        <ele>7.8</ele>
        <time>2020-06-03T08:53:13Z</time>
      </trkpt>
      <trkpt lat="46.40577" lon="-1.49531">
        <ele>7.7</ele>
        <time>2020-06-03T08:53:14Z</time>
      </trkpt>
      <trkpt lat="46.40573" lon="-1.49537">
        <ele>7.7</ele>
        <time>2020-06-03T08:53:15Z</time>
      </trkpt>
      <trkpt lat="46.40571" lon="-1.49544">
        <ele>7.7</ele>
        <time>2020-06-03T08:53:16Z</time>
      </trkpt>
      <trkpt lat="46.40568" lon="-1.49551">
        <ele>7.7</ele>
        <time>2020-06-03T08:53:17Z</time>
      </trkpt>
      <trkpt lat="46.40565" lon="-1.49557">
        <ele>7.7</ele>
        <time>2020-06-03T08:53:18Z</time>
      </trkpt>
      <trkpt lat="46.40562" lon="-1.49563">
        <ele>7.7</ele>
        <time>2020-06-03T08:53:19Z</time>
      </trkpt>
      <trkpt lat="46.40558" lon="-1.49568">
        <ele>7.7</ele>
        <time>2020-06-03T08:53:20Z</time>
      </trkpt>
      <trkpt lat="46.40555" lon="-1.49574">
        <ele>7.7</ele>
        <time>2020-06-03T08:53:21Z</time>
      </trkpt>
      <trkpt lat="46.40551" lon="-1.49579">
        <ele>7.7</ele>
        <time>2020-06-03T08:53:22Z</time>
      </trkpt>
      <trkpt lat="46.40548" lon="-1.49585">
        <ele>7.7</ele>
        <time>2020-06-03T08:53:23Z</time>
      </trkpt>
      <trkpt lat="46.40544" lon="-1.49591">
        <ele>7.8</ele>
        <time>2020-06-03T08:53:24Z</time>
      </trkpt>
      <trkpt lat="46.4054" lon="-1.49597">
        <ele>7.9</ele>
        <time>2020-06-03T08:53:25Z</time>
      </trkpt>
      <trkpt lat="46.40537" lon="-1.49603">
        <ele>7.9</ele>
        <time>2020-06-03T08:53:26Z</time>
      </trkpt>
      <trkpt lat="46.40533" lon="-1.49609">
        <ele>8</ele>
        <time>2020-06-03T08:53:27Z</time>
      </trkpt>
      <trkpt lat="46.4053" lon="-1.49616">
        <ele>8.1</ele>
        <time>2020-06-03T08:53:28Z</time>
      </trkpt>
      <trkpt lat="46.40527" lon="-1.49623">
        <ele>8.3</ele>
        <time>2020-06-03T08:53:29Z</time>
      </trkpt>
      <trkpt lat="46.40523" lon="-1.49629">
        <ele>8.4</ele>
        <time>2020-06-03T08:53:30Z</time>
      </trkpt>
      <trkpt lat="46.40519" lon="-1.49636">
        <ele>8.6</ele>
        <time>2020-06-03T08:53:31Z</time>
      </trkpt>
      <trkpt lat="46.40516" lon="-1.49643">
        <ele>8.7</ele>
        <time>2020-06-03T08:53:32Z</time>
      </trkpt>
      <trkpt lat="46.40512" lon="-1.49652">
        <ele>8.8</ele>
        <time>2020-06-03T08:53:33Z</time>
      </trkpt>
      <trkpt lat="46.40507" lon="-1.49659">
        <ele>8.9</ele>
        <time>2020-06-03T08:53:34Z</time>
      </trkpt>
      <trkpt lat="46.40504" lon="-1.49666">
        <ele>8.9</ele>
        <time>2020-06-03T08:53:35Z</time>
      </trkpt>
      <trkpt lat="46.405" lon="-1.49671">
        <ele>8.9</ele>
        <time>2020-06-03T08:53:36Z</time>
      </trkpt>
      <trkpt lat="46.40497" lon="-1.49676">
        <ele>8.8</ele>
        <time>2020-06-03T08:53:37Z</time>
      </trkpt>
      <trkpt lat="46.40494" lon="-1.49681">
        <ele>8.7</ele>
        <time>2020-06-03T08:53:38Z</time>
      </trkpt>
      <trkpt lat="46.4049" lon="-1.49685">
        <ele>8.6</ele>
        <time>2020-06-03T08:53:39Z</time>
      </trkpt>
      <trkpt lat="46.40487" lon="-1.4969">
        <ele>8.5</ele>
        <time>2020-06-03T08:53:40Z</time>
      </trkpt>
      <trkpt lat="46.40484" lon="-1.49695">
        <ele>8.3</ele>
        <time>2020-06-03T08:53:41Z</time>
      </trkpt>
      <trkpt lat="46.4048" lon="-1.49701">
        <ele>8.1</ele>
        <time>2020-06-03T08:53:42Z</time>
      </trkpt>
      <trkpt lat="46.40477" lon="-1.49705">
        <ele>8</ele>
        <time>2020-06-03T08:53:43Z</time>
      </trkpt>
      <trkpt lat="46.40474" lon="-1.4971">
        <ele>7.8</ele>
        <time>2020-06-03T08:53:44Z</time>
      </trkpt>
      <trkpt lat="46.40471" lon="-1.49715">
        <ele>7.7</ele>
        <time>2020-06-03T08:53:45Z</time>
      </trkpt>
      <trkpt lat="46.40467" lon="-1.49719">
        <ele>7.7</ele>
        <time>2020-06-03T08:53:46Z</time>
      </trkpt>
      <trkpt lat="46.40464" lon="-1.49724">
        <ele>7.6</ele>
        <time>2020-06-03T08:53:47Z</time>
      </trkpt>
      <trkpt lat="46.4046" lon="-1.4973">
        <ele>7.6</ele>
        <time>2020-06-03T08:53:48Z</time>
      </trkpt>
      <trkpt lat="46.40456" lon="-1.49735">
        <ele>7.6</ele>
        <time>2020-06-03T08:53:49Z</time>
      </trkpt>
      <trkpt lat="46.40452" lon="-1.49741">
        <ele>7.5</ele>
        <time>2020-06-03T08:53:50Z</time>
      </trkpt>
      <trkpt lat="46.40448" lon="-1.49746">
        <ele>7.5</ele>
        <time>2020-06-03T08:53:51Z</time>
      </trkpt>
      <trkpt lat="46.40445" lon="-1.49751">
        <ele>7.5</ele>
        <time>2020-06-03T08:53:52Z</time>
      </trkpt>
      <trkpt lat="46.40441" lon="-1.49754">
        <ele>7.5</ele>
        <time>2020-06-03T08:53:53Z</time>
      </trkpt>
      <trkpt lat="46.40438" lon="-1.49757">
        <ele>7.5</ele>
        <time>2020-06-03T08:53:54Z</time>
      </trkpt>
      <trkpt lat="46.40434" lon="-1.4976">
        <ele>7.6</ele>
        <time>2020-06-03T08:53:55Z</time>
      </trkpt>
      <trkpt lat="46.40432" lon="-1.49762">
        <ele>7.6</ele>
        <time>2020-06-03T08:53:56Z</time>
      </trkpt>
      <trkpt lat="46.40429" lon="-1.49765">
        <ele>7.6</ele>
        <time>2020-06-03T08:53:57Z</time>
      </trkpt>
      <trkpt lat="46.40426" lon="-1.49767">
        <ele>7.6</ele>
        <time>2020-06-03T08:53:58Z</time>
      </trkpt>
      <trkpt lat="46.40422" lon="-1.49771">
        <ele>7.6</ele>
        <time>2020-06-03T08:53:59Z</time>
      </trkpt>
      <trkpt lat="46.40417" lon="-1.49775">
        <ele>7.7</ele>
        <time>2020-06-03T08:54:00Z</time>
      </trkpt>
      <trkpt lat="46.40413" lon="-1.49778">
        <ele>7.7</ele>
        <time>2020-06-03T08:54:01Z</time>
      </trkpt>
      <trkpt lat="46.40411" lon="-1.49781">
        <ele>7.7</ele>
        <time>2020-06-03T08:54:02Z</time>
      </trkpt>
      <trkpt lat="46.40407" lon="-1.49785">
        <ele>7.8</ele>
        <time>2020-06-03T08:54:03Z</time>
      </trkpt>
      <trkpt lat="46.40404" lon="-1.49789">
        <ele>7.8</ele>
        <time>2020-06-03T08:54:04Z</time>
      </trkpt>
      <trkpt lat="46.40402" lon="-1.49793">
        <ele>7.9</ele>
        <time>2020-06-03T08:54:05Z</time>
      </trkpt>
      <trkpt lat="46.40402" lon="-1.49794">
        <ele>7.9</ele>
        <time>2020-06-03T08:54:06Z</time>
      </trkpt>
      <trkpt lat="46.40401" lon="-1.49799">
        <ele>7.9</ele>
        <time>2020-06-03T08:54:07Z</time>
      </trkpt>
      <trkpt lat="46.40401" lon="-1.498">
        <ele>7.9</ele>
        <time>2020-06-03T08:54:08Z</time>
      </trkpt>
      <trkpt lat="46.404" lon="-1.49804">
        <ele>8</ele>
        <time>2020-06-03T08:54:09Z</time>
      </trkpt>
      <trkpt lat="46.40398" lon="-1.49809">
        <ele>8.1</ele>
        <time>2020-06-03T08:54:10Z</time>
      </trkpt>
      <trkpt lat="46.40395" lon="-1.49817">
        <ele>8.2</ele>
        <time>2020-06-03T08:54:11Z</time>
      </trkpt>
      <trkpt lat="46.40392" lon="-1.49823">
        <ele>8.3</ele>
        <time>2020-06-03T08:54:12Z</time>
      </trkpt>
      <trkpt lat="46.40389" lon="-1.49827">
        <ele>8.4</ele>
        <time>2020-06-03T08:54:13Z</time>
      </trkpt>
      <trkpt lat="46.40386" lon="-1.49832">
        <ele>8.4</ele>
        <time>2020-06-03T08:54:14Z</time>
      </trkpt>
      <trkpt lat="46.40382" lon="-1.49833">
        <ele>8.5</ele>
        <time>2020-06-03T08:54:15Z</time>
      </trkpt>
      <trkpt lat="46.40381" lon="-1.49834">
        <ele>8.5</ele>
        <time>2020-06-03T08:54:16Z</time>
      </trkpt>
      <trkpt lat="46.40377" lon="-1.4984">
        <ele>8.6</ele>
        <time>2020-06-03T08:54:17Z</time>
      </trkpt>
      <trkpt lat="46.40373" lon="-1.49848">
        <ele>8.6</ele>
        <time>2020-06-03T08:54:18Z</time>
      </trkpt>
      <trkpt lat="46.40369" lon="-1.49858">
        <ele>8.7</ele>
        <time>2020-06-03T08:54:19Z</time>
      </trkpt>
      <trkpt lat="46.40366" lon="-1.49864">
        <ele>8.7</ele>
        <time>2020-06-03T08:54:20Z</time>
      </trkpt>
      <trkpt lat="46.40364" lon="-1.49871">
        <ele>8.7</ele>
        <time>2020-06-03T08:54:21Z</time>
      </trkpt>
      <trkpt lat="46.40362" lon="-1.49877">
        <ele>8.6</ele>
        <time>2020-06-03T08:54:22Z</time>
      </trkpt>
      <trkpt lat="46.4036" lon="-1.49881">
        <ele>8.6</ele>
        <time>2020-06-03T08:54:23Z</time>
      </trkpt>
      <trkpt lat="46.40357" lon="-1.49889">
        <ele>8.6</ele>
        <time>2020-06-03T08:54:24Z</time>
      </trkpt>
      <trkpt lat="46.40352" lon="-1.49897">
        <ele>8.6</ele>
        <time>2020-06-03T08:54:25Z</time>
      </trkpt>
      <trkpt lat="46.40346" lon="-1.49912">
        <ele>8.5</ele>
        <time>2020-06-03T08:54:26Z</time>
      </trkpt>
      <trkpt lat="46.40343" lon="-1.49921">
        <ele>8.5</ele>
        <time>2020-06-03T08:54:27Z</time>
      </trkpt>
      <trkpt lat="46.40341" lon="-1.49929">
        <ele>8.5</ele>
        <time>2020-06-03T08:54:28Z</time>
      </trkpt>
      <trkpt lat="46.4034" lon="-1.49937">
        <ele>8.6</ele>
        <time>2020-06-03T08:54:29Z</time>
      </trkpt>
      <trkpt lat="46.40339" lon="-1.49946">
        <ele>8.6</ele>
        <time>2020-06-03T08:54:30Z</time>
      </trkpt>
      <trkpt lat="46.40338" lon="-1.49954">
        <ele>8.6</ele>
        <time>2020-06-03T08:54:31Z</time>
      </trkpt>
      <trkpt lat="46.40337" lon="-1.4996">
        <ele>8.7</ele>
        <time>2020-06-03T08:54:32Z</time>
      </trkpt>
      <trkpt lat="46.40338" lon="-1.49966">
        <ele>8.7</ele>
        <time>2020-06-03T08:54:33Z</time>
      </trkpt>
      <trkpt lat="46.40338" lon="-1.49972">
        <ele>8.8</ele>
        <time>2020-06-03T08:54:34Z</time>
      </trkpt>
      <trkpt lat="46.40339" lon="-1.49978">
        <ele>8.8</ele>
        <time>2020-06-03T08:54:35Z</time>
      </trkpt>
      <trkpt lat="46.40339" lon="-1.49983">
        <ele>8.9</ele>
        <time>2020-06-03T08:54:36Z</time>
      </trkpt>
      <trkpt lat="46.4034" lon="-1.49988">
        <ele>8.9</ele>
        <time>2020-06-03T08:54:37Z</time>
      </trkpt>
      <trkpt lat="46.40342" lon="-1.49993">
        <ele>9</ele>
        <time>2020-06-03T08:54:38Z</time>
      </trkpt>
      <trkpt lat="46.40345" lon="-1.49997">
        <ele>9</ele>
        <time>2020-06-03T08:54:39Z</time>
      </trkpt>
      <trkpt lat="46.40347" lon="-1.50001">
        <ele>9.1</ele>
        <time>2020-06-03T08:54:40Z</time>
      </trkpt>
      <trkpt lat="46.4035" lon="-1.50006">
        <ele>9.3</ele>
        <time>2020-06-03T08:54:41Z</time>
      </trkpt>
      <trkpt lat="46.40353" lon="-1.5001">
        <ele>9.4</ele>
        <time>2020-06-03T08:54:42Z</time>
      </trkpt>
      <trkpt lat="46.40356" lon="-1.50015">
        <ele>9.5</ele>
        <time>2020-06-03T08:54:43Z</time>
      </trkpt>
      <trkpt lat="46.40359" lon="-1.50019">
        <ele>9.6</ele>
        <time>2020-06-03T08:54:44Z</time>
      </trkpt>
      <trkpt lat="46.40362" lon="-1.50024">
        <ele>9.7</ele>
        <time>2020-06-03T08:54:45Z</time>
      </trkpt>
      <trkpt lat="46.40364" lon="-1.50028">
        <ele>9.8</ele>
        <time>2020-06-03T08:54:46Z</time>
      </trkpt>
      <trkpt lat="46.40366" lon="-1.50031">
        <ele>9.9</ele>
        <time>2020-06-03T08:54:47Z</time>
      </trkpt>
      <trkpt lat="46.40368" lon="-1.50034">
        <ele>10</ele>
        <time>2020-06-03T08:54:48Z</time>
      </trkpt>
      <trkpt lat="46.40369" lon="-1.50038">
        <ele>10.1</ele>
        <time>2020-06-03T08:54:49Z</time>
      </trkpt>
      <trkpt lat="46.4037" lon="-1.50041">
        <ele>10.2</ele>
        <time>2020-06-03T08:54:50Z</time>
      </trkpt>
      <trkpt lat="46.40372" lon="-1.50046">
        <ele>10.3</ele>
        <time>2020-06-03T08:54:51Z</time>
      </trkpt>
      <trkpt lat="46.40375" lon="-1.5005">
        <ele>10.4</ele>
        <time>2020-06-03T08:54:52Z</time>
      </trkpt>
      <trkpt lat="46.40378" lon="-1.50054">
        <ele>10.5</ele>
        <time>2020-06-03T08:54:53Z</time>
      </trkpt>
      <trkpt lat="46.40379" lon="-1.50055">
        <ele>10.6</ele>
        <time>2020-06-03T08:54:54Z</time>
      </trkpt>
      <trkpt lat="46.40382" lon="-1.50057">
        <ele>10.6</ele>
        <time>2020-06-03T08:54:55Z</time>
      </trkpt>
      <trkpt lat="46.40385" lon="-1.50059">
        <ele>10.8</ele>
        <time>2020-06-03T08:54:56Z</time>
      </trkpt>
      <trkpt lat="46.40387" lon="-1.50062">
        <ele>10.8</ele>
        <time>2020-06-03T08:54:57Z</time>
      </trkpt>
      <trkpt lat="46.40388" lon="-1.50063">
        <ele>10.9</ele>
        <time>2020-06-03T08:54:58Z</time>
      </trkpt>
      <trkpt lat="46.4039" lon="-1.50066">
        <ele>11</ele>
        <time>2020-06-03T08:54:59Z</time>
      </trkpt>
      <trkpt lat="46.40391" lon="-1.5007">
        <ele>11.1</ele>
        <time>2020-06-03T08:55:00Z</time>
      </trkpt>
      <trkpt lat="46.40393" lon="-1.50074">
        <ele>11.2</ele>
        <time>2020-06-03T08:55:01Z</time>
      </trkpt>
      <trkpt lat="46.40395" lon="-1.50077">
        <ele>11.3</ele>
        <time>2020-06-03T08:55:02Z</time>
      </trkpt>
      <trkpt lat="46.40396" lon="-1.50081">
        <ele>11.4</ele>
        <time>2020-06-03T08:55:03Z</time>
      </trkpt>
      <trkpt lat="46.40396" lon="-1.50082">
        <ele>11.4</ele>
        <time>2020-06-03T08:55:04Z</time>
      </trkpt>
      <trkpt lat="46.40397" lon="-1.50085">
        <ele>11.5</ele>
        <time>2020-06-03T08:55:05Z</time>
      </trkpt>
      <trkpt lat="46.40398" lon="-1.50089">
        <ele>11.6</ele>
        <time>2020-06-03T08:55:06Z</time>
      </trkpt>
      <trkpt lat="46.40398" lon="-1.5009">
        <ele>11.6</ele>
        <time>2020-06-03T08:55:07Z</time>
      </trkpt>
      <trkpt lat="46.40399" lon="-1.50092">
        <ele>11.7</ele>
        <time>2020-06-03T08:55:08Z</time>
      </trkpt>
      <trkpt lat="46.404" lon="-1.50093">
        <ele>11.8</ele>
        <time>2020-06-03T08:55:09Z</time>
      </trkpt>
      <trkpt lat="46.404" lon="-1.50094">
        <ele>11.8</ele>
        <time>2020-06-03T08:55:10Z</time>
      </trkpt>
      <trkpt lat="46.404" lon="-1.50096">
        <ele>11.9</ele>
        <time>2020-06-03T08:55:11Z</time>
      </trkpt>
      <trkpt lat="46.404" lon="-1.50099">
        <ele>11.9</ele>
        <time>2020-06-03T08:55:12Z</time>
      </trkpt>
      <trkpt lat="46.404" lon="-1.50101">
        <ele>12</ele>
        <time>2020-06-03T08:55:13Z</time>
      </trkpt>
      <trkpt lat="46.404" lon="-1.50102">
        <ele>12.1</ele>
        <time>2020-06-03T08:55:14Z</time>
      </trkpt>
      <trkpt lat="46.40399" lon="-1.50103">
        <ele>12.1</ele>
        <time>2020-06-03T08:55:15Z</time>
      </trkpt>
      <trkpt lat="46.404" lon="-1.50106">
        <ele>12.2</ele>
        <time>2020-06-03T08:55:16Z</time>
      </trkpt>
      <trkpt lat="46.404" lon="-1.50108">
        <ele>12.2</ele>
        <time>2020-06-03T08:55:17Z</time>
      </trkpt>
      <trkpt lat="46.404" lon="-1.50109">
        <ele>12.3</ele>
        <time>2020-06-03T08:55:18Z</time>
      </trkpt>
      <trkpt lat="46.40401" lon="-1.50109">
        <ele>12.3</ele>
        <time>2020-06-03T08:55:19Z</time>
      </trkpt>
      <trkpt lat="46.40402" lon="-1.50109">
        <ele>12.4</ele>
        <time>2020-06-03T08:55:20Z</time>
      </trkpt>
      <trkpt lat="46.40402" lon="-1.5011">
        <ele>12.5</ele>
        <time>2020-06-03T08:55:21Z</time>
      </trkpt>
      <trkpt lat="46.40403" lon="-1.5011">
        <ele>12.5</ele>
        <time>2020-06-03T08:55:22Z</time>
      </trkpt>
      <trkpt lat="46.40403" lon="-1.5011">
        <ele>12.6</ele>
        <time>2020-06-03T08:55:23Z</time>
      </trkpt>
      <trkpt lat="46.40402" lon="-1.50111">
        <ele>12.6</ele>
        <time>2020-06-03T08:55:24Z</time>
      </trkpt>
      <trkpt lat="46.40402" lon="-1.50111">
        <ele>12.7</ele>
        <time>2020-06-03T08:55:25Z</time>
      </trkpt>
      <trkpt lat="46.40402" lon="-1.50112">
        <ele>12.8</ele>
        <time>2020-06-03T08:55:26Z</time>
      </trkpt>
      <trkpt lat="46.40402" lon="-1.50112">
        <ele>12.8</ele>
        <time>2020-06-03T08:55:27Z</time>
      </trkpt>
      <trkpt lat="46.40402" lon="-1.50113">
        <ele>12.9</ele>
        <time>2020-06-03T08:55:28Z</time>
      </trkpt>
      <trkpt lat="46.40402" lon="-1.50114">
        <ele>12.9</ele>
        <time>2020-06-03T08:55:29Z</time>
      </trkpt>
      <trkpt lat="46.40402" lon="-1.50114">
        <ele>13</ele>
        <time>2020-06-03T08:55:30Z</time>
      </trkpt>
      <trkpt lat="46.40401" lon="-1.50115">
        <ele>13</ele>
        <time>2020-06-03T08:55:31Z</time>
      </trkpt>
      <trkpt lat="46.40401" lon="-1.50115">
        <ele>13.1</ele>
        <time>2020-06-03T08:55:32Z</time>
      </trkpt>
      <trkpt lat="46.40401" lon="-1.50115">
        <ele>13.1</ele>
        <time>2020-06-03T08:55:33Z</time>
      </trkpt>
      <trkpt lat="46.40401" lon="-1.50115">
        <ele>13.2</ele>
        <time>2020-06-03T08:55:34Z</time>
      </trkpt>
      <trkpt lat="46.40401" lon="-1.50115">
        <ele>13.2</ele>
        <time>2020-06-03T08:55:35Z</time>
      </trkpt>
      <trkpt lat="46.404" lon="-1.50115">
        <ele>13.3</ele>
        <time>2020-06-03T08:55:36Z</time>
      </trkpt>
      <trkpt lat="46.40399" lon="-1.50116">
        <ele>13.4</ele>
        <time>2020-06-03T08:55:37Z</time>
      </trkpt>
      <trkpt lat="46.40399" lon="-1.50116">
        <ele>13.4</ele>
        <time>2020-06-03T08:55:38Z</time>
      </trkpt>
      <trkpt lat="46.40398" lon="-1.50117">
        <ele>13.5</ele>
        <time>2020-06-03T08:55:39Z</time>
      </trkpt>
      <trkpt lat="46.40398" lon="-1.50117">
        <ele>13.5</ele>
        <time>2020-06-03T08:55:40Z</time>
      </trkpt>
      <trkpt lat="46.40398" lon="-1.50118">
        <ele>13.6</ele>
        <time>2020-06-03T08:55:41Z</time>
      </trkpt>
      <trkpt lat="46.40397" lon="-1.50118">
        <ele>13.6</ele>
        <time>2020-06-03T08:55:42Z</time>
      </trkpt>
      <trkpt lat="46.40397" lon="-1.50118">
        <ele>13.7</ele>
        <time>2020-06-03T08:55:43Z</time>
      </trkpt>
      <trkpt lat="46.40397" lon="-1.50118">
        <ele>13.7</ele>
        <time>2020-06-03T08:55:44Z</time>
      </trkpt>
      <trkpt lat="46.40397" lon="-1.50118">
        <ele>13.8</ele>
        <time>2020-06-03T08:55:45Z</time>
      </trkpt>
      <trkpt lat="46.40397" lon="-1.50118">
        <ele>13.8</ele>
        <time>2020-06-03T08:55:46Z</time>
      </trkpt>
      <trkpt lat="46.40397" lon="-1.50118">
        <ele>13.9</ele>
        <time>2020-06-03T08:55:47Z</time>
      </trkpt>
      <trkpt lat="46.40397" lon="-1.50118">
        <ele>14</ele>
        <time>2020-06-03T08:55:48Z</time>
      </trkpt>
      <trkpt lat="46.40397" lon="-1.50118">
        <ele>14</ele>
        <time>2020-06-03T08:55:49Z</time>
      </trkpt>
      <trkpt lat="46.40397" lon="-1.50118">
        <ele>14.1</ele>
        <time>2020-06-03T08:55:50Z</time>
      </trkpt>
      <trkpt lat="46.40397" lon="-1.50117">
        <ele>14.1</ele>
        <time>2020-06-03T08:55:51Z</time>
      </trkpt>
      <trkpt lat="46.40397" lon="-1.50117">
        <ele>14.1</ele>
        <time>2020-06-03T08:55:52Z</time>
      </trkpt>
      <trkpt lat="46.40398" lon="-1.50116">
        <ele>14.1</ele>
        <time>2020-06-03T08:55:53Z</time>
      </trkpt>
      <trkpt lat="46.40399" lon="-1.50116">
        <ele>14.1</ele>
        <time>2020-06-03T08:55:54Z</time>
      </trkpt>
      <trkpt lat="46.40399" lon="-1.50116">
        <ele>14.1</ele>
        <time>2020-06-03T08:55:55Z</time>
      </trkpt>
      <trkpt lat="46.40398" lon="-1.50116">
        <ele>14.1</ele>
        <time>2020-06-03T08:55:56Z</time>
      </trkpt>
      <trkpt lat="46.40398" lon="-1.50115">
        <ele>14.1</ele>
        <time>2020-06-03T08:55:57Z</time>
      </trkpt>
      <trkpt lat="46.40398" lon="-1.50115">
        <ele>14.1</ele>
        <time>2020-06-03T08:55:58Z</time>
      </trkpt>
      <trkpt lat="46.40398" lon="-1.50115">
        <ele>14.1</ele>
        <time>2020-06-03T08:55:59Z</time>
      </trkpt>
      <trkpt lat="46.40398" lon="-1.50115">
        <ele>14.1</ele>
        <time>2020-06-03T08:56:00Z</time>
      </trkpt>
      <trkpt lat="46.40399" lon="-1.50115">
        <ele>14.1</ele>
        <time>2020-06-03T08:56:01Z</time>
      </trkpt>
      <trkpt lat="46.40398" lon="-1.50115">
        <ele>14.1</ele>
        <time>2020-06-03T08:56:02Z</time>
      </trkpt>
      <trkpt lat="46.40399" lon="-1.50114">
        <ele>14.1</ele>
        <time>2020-06-03T08:56:03Z</time>
      </trkpt>
      <trkpt lat="46.40399" lon="-1.50114">
        <ele>14.1</ele>
        <time>2020-06-03T08:56:04Z</time>
      </trkpt>
      <trkpt lat="46.40399" lon="-1.50114">
        <ele>14.1</ele>
        <time>2020-06-03T08:56:05Z</time>
      </trkpt>
      <trkpt lat="46.40399" lon="-1.50114">
        <ele>14.1</ele>
        <time>2020-06-03T08:56:06Z</time>
      </trkpt>
      <trkpt lat="46.40399" lon="-1.50113">
        <ele>14.1</ele>
        <time>2020-06-03T08:56:07Z</time>
      </trkpt>
      <trkpt lat="46.40399" lon="-1.50113">
        <ele>14.1</ele>
        <time>2020-06-03T08:56:08Z</time>
      </trkpt>
      <trkpt lat="46.40399" lon="-1.50114">
        <ele>14.1</ele>
        <time>2020-06-03T08:56:09Z</time>
      </trkpt>
      <trkpt lat="46.40398" lon="-1.50114">
        <ele>14.1</ele>
        <time>2020-06-03T08:56:10Z</time>
      </trkpt>
      <trkpt lat="46.40398" lon="-1.50114">
        <ele>14.1</ele>
        <time>2020-06-03T08:56:11Z</time>
      </trkpt>
      <trkpt lat="46.40398" lon="-1.50114">
        <ele>14.1</ele>
        <time>2020-06-03T08:56:12Z</time>
      </trkpt>
      <trkpt lat="46.40398" lon="-1.50114">
        <ele>14.1</ele>
        <time>2020-06-03T08:56:13Z</time>
      </trkpt>
      <trkpt lat="46.40398" lon="-1.50114">
        <ele>14.1</ele>
        <time>2020-06-03T08:56:14Z</time>
      </trkpt>
      <trkpt lat="46.40397" lon="-1.50114">
        <ele>14.1</ele>
        <time>2020-06-03T08:56:15Z</time>
      </trkpt>
      <trkpt lat="46.40396" lon="-1.50114">
        <ele>14</ele>
        <time>2020-06-03T08:56:16Z</time>
      </trkpt>
      <trkpt lat="46.40396" lon="-1.50113">
        <ele>14</ele>
        <time>2020-06-03T08:56:17Z</time>
      </trkpt>
      <trkpt lat="46.40396" lon="-1.50114">
        <ele>14</ele>
        <time>2020-06-03T08:56:18Z</time>
      </trkpt>
      <trkpt lat="46.40396" lon="-1.50114">
        <ele>14</ele>
        <time>2020-06-03T08:56:19Z</time>
      </trkpt>
      <trkpt lat="46.40396" lon="-1.50115">
        <ele>14</ele>
        <time>2020-06-03T08:56:20Z</time>
      </trkpt>
      <trkpt lat="46.40396" lon="-1.50115">
        <ele>14</ele>
        <time>2020-06-03T08:56:21Z</time>
      </trkpt>
      <trkpt lat="46.40395" lon="-1.50115">
        <ele>14</ele>
        <time>2020-06-03T08:56:22Z</time>
      </trkpt>
      <trkpt lat="46.40395" lon="-1.50115">
        <ele>14</ele>
        <time>2020-06-03T08:56:23Z</time>
      </trkpt>
      <trkpt lat="46.40395" lon="-1.50115">
        <ele>14</ele>
        <time>2020-06-03T08:56:24Z</time>
      </trkpt>
      <trkpt lat="46.40395" lon="-1.50115">
        <ele>14</ele>
        <time>2020-06-03T08:56:25Z</time>
      </trkpt>
      <trkpt lat="46.40394" lon="-1.50115">
        <ele>14</ele>
        <time>2020-06-03T08:56:26Z</time>
      </trkpt>
      <trkpt lat="46.40394" lon="-1.50115">
        <ele>13.9</ele>
        <time>2020-06-03T08:56:27Z</time>
      </trkpt>
      <trkpt lat="46.40393" lon="-1.50115">
        <ele>13.9</ele>
        <time>2020-06-03T08:56:28Z</time>
      </trkpt>
      <trkpt lat="46.40392" lon="-1.50115">
        <ele>13.9</ele>
        <time>2020-06-03T08:56:29Z</time>
      </trkpt>
      <trkpt lat="46.40392" lon="-1.50116">
        <ele>13.9</ele>
        <time>2020-06-03T08:56:30Z</time>
      </trkpt>
      <trkpt lat="46.40392" lon="-1.50115">
        <ele>13.9</ele>
        <time>2020-06-03T08:56:31Z</time>
      </trkpt>
      <trkpt lat="46.40392" lon="-1.50115">
        <ele>13.9</ele>
        <time>2020-06-03T08:56:32Z</time>
      </trkpt>
      <trkpt lat="46.40392" lon="-1.50116">
        <ele>13.9</ele>
        <time>2020-06-03T08:56:33Z</time>
      </trkpt>
      <trkpt lat="46.40392" lon="-1.50116">
        <ele>13.9</ele>
        <time>2020-06-03T08:56:34Z</time>
      </trkpt>
      <trkpt lat="46.40391" lon="-1.50115">
        <ele>13.8</ele>
        <time>2020-06-03T08:56:35Z</time>
      </trkpt>
      <trkpt lat="46.4039" lon="-1.50114">
        <ele>13.8</ele>
        <time>2020-06-03T08:56:36Z</time>
      </trkpt>
      <trkpt lat="46.4039" lon="-1.50113">
        <ele>13.8</ele>
        <time>2020-06-03T08:56:37Z</time>
      </trkpt>
      <trkpt lat="46.4039" lon="-1.50114">
        <ele>13.8</ele>
        <time>2020-06-03T08:56:38Z</time>
      </trkpt>
      <trkpt lat="46.4039" lon="-1.50114">
        <ele>13.8</ele>
        <time>2020-06-03T08:56:39Z</time>
      </trkpt>
      <trkpt lat="46.4039" lon="-1.50114">
        <ele>13.8</ele>
        <time>2020-06-03T08:56:40Z</time>
      </trkpt>
      <trkpt lat="46.4039" lon="-1.50113">
        <ele>13.7</ele>
        <time>2020-06-03T08:56:41Z</time>
      </trkpt>
      <trkpt lat="46.40389" lon="-1.50112">
        <ele>13.7</ele>
        <time>2020-06-03T08:56:42Z</time>
      </trkpt>
      <trkpt lat="46.40389" lon="-1.5011">
        <ele>13.7</ele>
        <time>2020-06-03T08:56:43Z</time>
      </trkpt>
      <trkpt lat="46.40389" lon="-1.50109">
        <ele>13.6</ele>
        <time>2020-06-03T08:56:44Z</time>
      </trkpt>
      <trkpt lat="46.40389" lon="-1.50108">
        <ele>13.6</ele>
        <time>2020-06-03T08:56:45Z</time>
      </trkpt>
      <trkpt lat="46.40389" lon="-1.50105">
        <ele>13.5</ele>
        <time>2020-06-03T08:56:46Z</time>
      </trkpt>
      <trkpt lat="46.40388" lon="-1.50102">
        <ele>13.5</ele>
        <time>2020-06-03T08:56:47Z</time>
      </trkpt>
      <trkpt lat="46.40388" lon="-1.50102">
        <ele>13.4</ele>
        <time>2020-06-03T08:56:48Z</time>
      </trkpt>
      <trkpt lat="46.40388" lon="-1.50103">
        <ele>13.4</ele>
        <time>2020-06-03T08:56:49Z</time>
      </trkpt>
      <trkpt lat="46.40388" lon="-1.50104">
        <ele>13.4</ele>
        <time>2020-06-03T08:56:50Z</time>
      </trkpt>
      <trkpt lat="46.40388" lon="-1.50105">
        <ele>13.4</ele>
        <time>2020-06-03T08:56:51Z</time>
      </trkpt>
      <trkpt lat="46.40389" lon="-1.50105">
        <ele>13.4</ele>
        <time>2020-06-03T08:56:52Z</time>
      </trkpt>
      <trkpt lat="46.40389" lon="-1.50106">
        <ele>13.3</ele>
        <time>2020-06-03T08:56:53Z</time>
      </trkpt>
      <trkpt lat="46.40388" lon="-1.50106">
        <ele>13.3</ele>
        <time>2020-06-03T08:56:54Z</time>
      </trkpt>
      <trkpt lat="46.40388" lon="-1.50106">
        <ele>13.3</ele>
        <time>2020-06-03T08:56:55Z</time>
      </trkpt>
      <trkpt lat="46.40387" lon="-1.50106">
        <ele>13.3</ele>
        <time>2020-06-03T08:56:56Z</time>
      </trkpt>
      <trkpt lat="46.40387" lon="-1.50107">
        <ele>13.3</ele>
        <time>2020-06-03T08:56:57Z</time>
      </trkpt>
      <trkpt lat="46.40387" lon="-1.50106">
        <ele>13.3</ele>
        <time>2020-06-03T08:56:58Z</time>
      </trkpt>
      <trkpt lat="46.40387" lon="-1.50106">
        <ele>13.3</ele>
        <time>2020-06-03T08:56:59Z</time>
      </trkpt>
      <trkpt lat="46.40387" lon="-1.50106">
        <ele>13.2</ele>
        <time>2020-06-03T08:57:00Z</time>
      </trkpt>
      <trkpt lat="46.40388" lon="-1.50107">
        <ele>13.2</ele>
        <time>2020-06-03T08:57:01Z</time>
      </trkpt>
      <trkpt lat="46.40389" lon="-1.50108">
        <ele>13.2</ele>
        <time>2020-06-03T08:57:02Z</time>
      </trkpt>
      <trkpt lat="46.4039" lon="-1.50109">
        <ele>13.2</ele>
        <time>2020-06-03T08:57:03Z</time>
      </trkpt>
      <trkpt lat="46.4039" lon="-1.50109">
        <ele>13.2</ele>
        <time>2020-06-03T08:57:04Z</time>
      </trkpt>
      <trkpt lat="46.4039" lon="-1.50109">
        <ele>13.1</ele>
        <time>2020-06-03T08:57:05Z</time>
      </trkpt>
      <trkpt lat="46.4039" lon="-1.50111">
        <ele>13.1</ele>
        <time>2020-06-03T08:57:06Z</time>
      </trkpt>
      <trkpt lat="46.4039" lon="-1.50112">
        <ele>13.1</ele>
        <time>2020-06-03T08:57:07Z</time>
      </trkpt>
      <trkpt lat="46.4039" lon="-1.50114">
        <ele>13</ele>
        <time>2020-06-03T08:57:08Z</time>
      </trkpt>
      <trkpt lat="46.40391" lon="-1.50115">
        <ele>13</ele>
        <time>2020-06-03T08:57:09Z</time>
      </trkpt>
      <trkpt lat="46.40393" lon="-1.50118">
        <ele>12.9</ele>
        <time>2020-06-03T08:57:10Z</time>
      </trkpt>
      <trkpt lat="46.40397" lon="-1.50121">
        <ele>12.8</ele>
        <time>2020-06-03T08:57:11Z</time>
      </trkpt>
      <trkpt lat="46.40401" lon="-1.50125">
        <ele>12.7</ele>
        <time>2020-06-03T08:57:12Z</time>
      </trkpt>
      <trkpt lat="46.40406" lon="-1.5013">
        <ele>12.6</ele>
        <time>2020-06-03T08:57:13Z</time>
      </trkpt>
      <trkpt lat="46.40412" lon="-1.50135">
        <ele>12.5</ele>
        <time>2020-06-03T08:57:14Z</time>
      </trkpt>
      <trkpt lat="46.40418" lon="-1.50139">
        <ele>12.4</ele>
        <time>2020-06-03T08:57:15Z</time>
      </trkpt>
      <trkpt lat="46.40425" lon="-1.50144">
        <ele>12.4</ele>
        <time>2020-06-03T08:57:16Z</time>
      </trkpt>
      <trkpt lat="46.40433" lon="-1.50151">
        <ele>12.5</ele>
        <time>2020-06-03T08:57:17Z</time>
      </trkpt>
      <trkpt lat="46.40441" lon="-1.50158">
        <ele>12.7</ele>
        <time>2020-06-03T08:57:18Z</time>
      </trkpt>
      <trkpt lat="46.40448" lon="-1.50164">
        <ele>12.9</ele>
        <time>2020-06-03T08:57:19Z</time>
      </trkpt>
      <trkpt lat="46.40454" lon="-1.50169">
        <ele>13.2</ele>
        <time>2020-06-03T08:57:20Z</time>
      </trkpt>
      <trkpt lat="46.40459" lon="-1.50174">
        <ele>13.4</ele>
        <time>2020-06-03T08:57:21Z</time>
      </trkpt>
      <trkpt lat="46.40464" lon="-1.5018">
        <ele>13.7</ele>
        <time>2020-06-03T08:57:22Z</time>
      </trkpt>
      <trkpt lat="46.40469" lon="-1.50187">
        <ele>14</ele>
        <time>2020-06-03T08:57:23Z</time>
      </trkpt>
      <trkpt lat="46.40474" lon="-1.50193">
        <ele>14.2</ele>
        <time>2020-06-03T08:57:24Z</time>
      </trkpt>
      <trkpt lat="46.40479" lon="-1.502">
        <ele>14.5</ele>
        <time>2020-06-03T08:57:25Z</time>
      </trkpt>
      <trkpt lat="46.40485" lon="-1.50205">
        <ele>14.8</ele>
        <time>2020-06-03T08:57:26Z</time>
      </trkpt>
      <trkpt lat="46.4049" lon="-1.5021">
        <ele>15</ele>
        <time>2020-06-03T08:57:27Z</time>
      </trkpt>
      <trkpt lat="46.40496" lon="-1.50215">
        <ele>15.3</ele>
        <time>2020-06-03T08:57:28Z</time>
      </trkpt>
      <trkpt lat="46.40501" lon="-1.50219">
        <ele>15.5</ele>
        <time>2020-06-03T08:57:29Z</time>
      </trkpt>
      <trkpt lat="46.40506" lon="-1.50222">
        <ele>15.6</ele>
        <time>2020-06-03T08:57:30Z</time>
      </trkpt>
      <trkpt lat="46.4051" lon="-1.50224">
        <ele>15.7</ele>
        <time>2020-06-03T08:57:31Z</time>
      </trkpt>
      <trkpt lat="46.40514" lon="-1.50227">
        <ele>15.8</ele>
        <time>2020-06-03T08:57:32Z</time>
      </trkpt>
      <trkpt lat="46.40517" lon="-1.5023">
        <ele>15.9</ele>
        <time>2020-06-03T08:57:33Z</time>
      </trkpt>
      <trkpt lat="46.40518" lon="-1.50231">
        <ele>15.9</ele>
        <time>2020-06-03T08:57:34Z</time>
      </trkpt>
      <trkpt lat="46.40521" lon="-1.50233">
        <ele>16</ele>
        <time>2020-06-03T08:57:35Z</time>
      </trkpt>
      <trkpt lat="46.40524" lon="-1.50236">
        <ele>16.2</ele>
        <time>2020-06-03T08:57:36Z</time>
      </trkpt>
      <trkpt lat="46.40526" lon="-1.50239">
        <ele>16.3</ele>
        <time>2020-06-03T08:57:37Z</time>
      </trkpt>
      <trkpt lat="46.40529" lon="-1.50241">
        <ele>16.4</ele>
        <time>2020-06-03T08:57:38Z</time>
      </trkpt>
      <trkpt lat="46.40532" lon="-1.50244">
        <ele>16.5</ele>
        <time>2020-06-03T08:57:39Z</time>
      </trkpt>
      <trkpt lat="46.40534" lon="-1.50247">
        <ele>16.7</ele>
        <time>2020-06-03T08:57:40Z</time>
      </trkpt>
      <trkpt lat="46.40535" lon="-1.50249">
        <ele>16.7</ele>
        <time>2020-06-03T08:57:41Z</time>
      </trkpt>
      <trkpt lat="46.40538" lon="-1.50251">
        <ele>16.9</ele>
        <time>2020-06-03T08:57:42Z</time>
      </trkpt>
      <trkpt lat="46.40541" lon="-1.50253">
        <ele>17</ele>
        <time>2020-06-03T08:57:43Z</time>
      </trkpt>
      <trkpt lat="46.40544" lon="-1.50256">
        <ele>17.1</ele>
        <time>2020-06-03T08:57:44Z</time>
      </trkpt>
      <trkpt lat="46.40545" lon="-1.50257">
        <ele>17.2</ele>
        <time>2020-06-03T08:57:45Z</time>
      </trkpt>
      <trkpt lat="46.40545" lon="-1.50258">
        <ele>17.2</ele>
        <time>2020-06-03T08:57:46Z</time>
      </trkpt>
      <trkpt lat="46.40546" lon="-1.50258">
        <ele>17.2</ele>
        <time>2020-06-03T08:57:47Z</time>
      </trkpt>
      <trkpt lat="46.40546" lon="-1.50258">
        <ele>17.3</ele>
        <time>2020-06-03T08:57:48Z</time>
      </trkpt>
      <trkpt lat="46.40546" lon="-1.50257">
        <ele>17.3</ele>
        <time>2020-06-03T08:57:49Z</time>
      </trkpt>
      <trkpt lat="46.40546" lon="-1.50257">
        <ele>17.3</ele>
        <time>2020-06-03T08:57:50Z</time>
      </trkpt>
      <trkpt lat="46.40546" lon="-1.50257">
        <ele>17.3</ele>
        <time>2020-06-03T08:57:51Z</time>
      </trkpt>
      <trkpt lat="46.40547" lon="-1.50257">
        <ele>17.3</ele>
        <time>2020-06-03T08:57:52Z</time>
      </trkpt>
      <trkpt lat="46.40547" lon="-1.50257">
        <ele>17.3</ele>
        <time>2020-06-03T08:57:53Z</time>
      </trkpt>
      <trkpt lat="46.40547" lon="-1.50257">
        <ele>17.3</ele>
        <time>2020-06-03T08:57:54Z</time>
      </trkpt>
      <trkpt lat="46.40547" lon="-1.50258">
        <ele>17.3</ele>
        <time>2020-06-03T08:57:55Z</time>
      </trkpt>
      <trkpt lat="46.40547" lon="-1.50258">
        <ele>17.4</ele>
        <time>2020-06-03T08:57:56Z</time>
      </trkpt>
      <trkpt lat="46.40547" lon="-1.50258">
        <ele>17.4</ele>
        <time>2020-06-03T08:57:57Z</time>
      </trkpt>
      <trkpt lat="46.40547" lon="-1.50258">
        <ele>17.4</ele>
        <time>2020-06-03T08:57:58Z</time>
      </trkpt>
      <trkpt lat="46.40547" lon="-1.50258">
        <ele>17.4</ele>
        <time>2020-06-03T08:57:59Z</time>
      </trkpt>
      <trkpt lat="46.40547" lon="-1.50258">
        <ele>17.4</ele>
        <time>2020-06-03T08:58:00Z</time>
      </trkpt>
      <trkpt lat="46.40548" lon="-1.50258">
        <ele>17.4</ele>
        <time>2020-06-03T08:58:01Z</time>
      </trkpt>
      <trkpt lat="46.40548" lon="-1.50259">
        <ele>17.4</ele>
        <time>2020-06-03T08:58:02Z</time>
      </trkpt>
      <trkpt lat="46.40548" lon="-1.50258">
        <ele>17.4</ele>
        <time>2020-06-03T08:58:03Z</time>
      </trkpt>
      <trkpt lat="46.40548" lon="-1.50259">
        <ele>17.5</ele>
        <time>2020-06-03T08:58:04Z</time>
      </trkpt>
      <trkpt lat="46.40548" lon="-1.50259">
        <ele>17.5</ele>
        <time>2020-06-03T08:58:05Z</time>
      </trkpt>
      <trkpt lat="46.40548" lon="-1.50259">
        <ele>17.5</ele>
        <time>2020-06-03T08:58:06Z</time>
      </trkpt>
      <trkpt lat="46.40549" lon="-1.5026">
        <ele>17.5</ele>
        <time>2020-06-03T08:58:07Z</time>
      </trkpt>
      <trkpt lat="46.40549" lon="-1.5026">
        <ele>17.5</ele>
        <time>2020-06-03T08:58:08Z</time>
      </trkpt>
      <trkpt lat="46.40549" lon="-1.50261">
        <ele>17.5</ele>
        <time>2020-06-03T08:58:09Z</time>
      </trkpt>
      <trkpt lat="46.40549" lon="-1.50261">
        <ele>17.5</ele>
        <time>2020-06-03T08:58:10Z</time>
      </trkpt>
      <trkpt lat="46.40548" lon="-1.50261">
        <ele>17.5</ele>
        <time>2020-06-03T08:58:11Z</time>
      </trkpt>
      <trkpt lat="46.40548" lon="-1.50261">
        <ele>17.5</ele>
        <time>2020-06-03T08:58:12Z</time>
      </trkpt>
      <trkpt lat="46.40548" lon="-1.5026">
        <ele>17.5</ele>
        <time>2020-06-03T08:58:13Z</time>
      </trkpt>
      <trkpt lat="46.40548" lon="-1.5026">
        <ele>17.6</ele>
        <time>2020-06-03T08:58:14Z</time>
      </trkpt>
      <trkpt lat="46.40548" lon="-1.5026">
        <ele>17.6</ele>
        <time>2020-06-03T08:58:15Z</time>
      </trkpt>
      <trkpt lat="46.40548" lon="-1.5026">
        <ele>17.6</ele>
        <time>2020-06-03T08:58:16Z</time>
      </trkpt>
      <trkpt lat="46.40548" lon="-1.5026">
        <ele>17.6</ele>
        <time>2020-06-03T08:58:17Z</time>
      </trkpt>
      <trkpt lat="46.40548" lon="-1.5026">
        <ele>17.6</ele>
        <time>2020-06-03T08:58:18Z</time>
      </trkpt>
      <trkpt lat="46.40548" lon="-1.5026">
        <ele>17.6</ele>
        <time>2020-06-03T08:58:19Z</time>
      </trkpt>
      <trkpt lat="46.40548" lon="-1.5026">
        <ele>17.6</ele>
        <time>2020-06-03T08:58:20Z</time>
      </trkpt>
      <trkpt lat="46.40548" lon="-1.50259">
        <ele>17.6</ele>
        <time>2020-06-03T08:58:21Z</time>
      </trkpt>
      <trkpt lat="46.40549" lon="-1.50259">
        <ele>17.6</ele>
        <time>2020-06-03T08:58:22Z</time>
      </trkpt>
      <trkpt lat="46.40549" lon="-1.50259">
        <ele>17.6</ele>
        <time>2020-06-03T08:58:23Z</time>
      </trkpt>
      <trkpt lat="46.40549" lon="-1.50258">
        <ele>17.6</ele>
        <time>2020-06-03T08:58:24Z</time>
      </trkpt>
      <trkpt lat="46.4055" lon="-1.50259">
        <ele>17.6</ele>
        <time>2020-06-03T08:58:25Z</time>
      </trkpt>
      <trkpt lat="46.40551" lon="-1.50259">
        <ele>17.6</ele>
        <time>2020-06-03T08:58:26Z</time>
      </trkpt>
      <trkpt lat="46.40551" lon="-1.50259">
        <ele>17.6</ele>
        <time>2020-06-03T08:58:27Z</time>
      </trkpt>
      <trkpt lat="46.40552" lon="-1.50259">
        <ele>17.6</ele>
        <time>2020-06-03T08:58:28Z</time>
      </trkpt>
      <trkpt lat="46.40552" lon="-1.50259">
        <ele>17.6</ele>
        <time>2020-06-03T08:58:29Z</time>
      </trkpt>
      <trkpt lat="46.40552" lon="-1.50259">
        <ele>17.6</ele>
        <time>2020-06-03T08:58:30Z</time>
      </trkpt>
      <trkpt lat="46.40554" lon="-1.5026">
        <ele>17.7</ele>
        <time>2020-06-03T08:58:31Z</time>
      </trkpt>
      <trkpt lat="46.40554" lon="-1.50259">
        <ele>17.7</ele>
        <time>2020-06-03T08:58:32Z</time>
      </trkpt>
      <trkpt lat="46.40555" lon="-1.50259">
        <ele>17.7</ele>
        <time>2020-06-03T08:58:33Z</time>
      </trkpt>
      <trkpt lat="46.40556" lon="-1.50259">
        <ele>17.7</ele>
        <time>2020-06-03T08:58:34Z</time>
      </trkpt>
      <trkpt lat="46.40556" lon="-1.50259">
        <ele>17.7</ele>
        <time>2020-06-03T08:58:35Z</time>
      </trkpt>
      <trkpt lat="46.40556" lon="-1.50259">
        <ele>17.7</ele>
        <time>2020-06-03T08:58:36Z</time>
      </trkpt>
      <trkpt lat="46.40556" lon="-1.50259">
        <ele>17.7</ele>
        <time>2020-06-03T08:58:37Z</time>
      </trkpt>
      <trkpt lat="46.40556" lon="-1.50259">
        <ele>17.7</ele>
        <time>2020-06-03T08:58:38Z</time>
      </trkpt>
      <trkpt lat="46.40556" lon="-1.50259">
        <ele>17.7</ele>
        <time>2020-06-03T08:58:39Z</time>
      </trkpt>
      <trkpt lat="46.40556" lon="-1.50259">
        <ele>17.7</ele>
        <time>2020-06-03T08:58:40Z</time>
      </trkpt>
      <trkpt lat="46.40555" lon="-1.50258">
        <ele>17.7</ele>
        <time>2020-06-03T08:58:41Z</time>
      </trkpt>
      <trkpt lat="46.40556" lon="-1.50257">
        <ele>17.7</ele>
        <time>2020-06-03T08:58:42Z</time>
      </trkpt>
      <trkpt lat="46.40557" lon="-1.50255">
        <ele>17.7</ele>
        <time>2020-06-03T08:58:43Z</time>
      </trkpt>
      <trkpt lat="46.40556" lon="-1.50257">
        <ele>17.6</ele>
        <time>2020-06-03T08:58:44Z</time>
      </trkpt>
      <trkpt lat="46.40556" lon="-1.50258">
        <ele>17.6</ele>
        <time>2020-06-03T08:58:45Z</time>
      </trkpt>
      <trkpt lat="46.40555" lon="-1.5026">
        <ele>17.6</ele>
        <time>2020-06-03T08:58:46Z</time>
      </trkpt>
      <trkpt lat="46.40556" lon="-1.50259">
        <ele>17.6</ele>
        <time>2020-06-03T08:58:47Z</time>
      </trkpt>
      <trkpt lat="46.40556" lon="-1.50259">
        <ele>17.6</ele>
        <time>2020-06-03T08:58:48Z</time>
      </trkpt>
      <trkpt lat="46.40556" lon="-1.50259">
        <ele>17.6</ele>
        <time>2020-06-03T08:58:49Z</time>
      </trkpt>
      <trkpt lat="46.40556" lon="-1.50261">
        <ele>17.6</ele>
        <time>2020-06-03T08:58:50Z</time>
      </trkpt>
      <trkpt lat="46.40558" lon="-1.50264">
        <ele>17.5</ele>
        <time>2020-06-03T08:58:51Z</time>
      </trkpt>
      <trkpt lat="46.40559" lon="-1.50265">
        <ele>17.5</ele>
        <time>2020-06-03T08:58:52Z</time>
      </trkpt>
      <trkpt lat="46.40561" lon="-1.50269">
        <ele>17.4</ele>
        <time>2020-06-03T08:58:53Z</time>
      </trkpt>
      <trkpt lat="46.40564" lon="-1.50271">
        <ele>17.3</ele>
        <time>2020-06-03T08:58:54Z</time>
      </trkpt>
      <trkpt lat="46.40567" lon="-1.50275">
        <ele>17.2</ele>
        <time>2020-06-03T08:58:55Z</time>
      </trkpt>
      <trkpt lat="46.4057" lon="-1.50278">
        <ele>17.1</ele>
        <time>2020-06-03T08:58:56Z</time>
      </trkpt>
      <trkpt lat="46.40573" lon="-1.50281">
        <ele>16.9</ele>
        <time>2020-06-03T08:58:57Z</time>
      </trkpt>
      <trkpt lat="46.40577" lon="-1.50284">
        <ele>16.7</ele>
        <time>2020-06-03T08:58:58Z</time>
      </trkpt>
      <trkpt lat="46.4058" lon="-1.50287">
        <ele>16.5</ele>
        <time>2020-06-03T08:58:59Z</time>
      </trkpt>
      <trkpt lat="46.40583" lon="-1.50291">
        <ele>16.2</ele>
        <time>2020-06-03T08:59:00Z</time>
      </trkpt>
      <trkpt lat="46.40587" lon="-1.50295">
        <ele>16</ele>
        <time>2020-06-03T08:59:01Z</time>
      </trkpt>
      <trkpt lat="46.40592" lon="-1.50302">
        <ele>15.6</ele>
        <time>2020-06-03T08:59:02Z</time>
      </trkpt>
      <trkpt lat="46.40597" lon="-1.5031">
        <ele>15.3</ele>
        <time>2020-06-03T08:59:03Z</time>
      </trkpt>
      <trkpt lat="46.40603" lon="-1.50318">
        <ele>14.9</ele>
        <time>2020-06-03T08:59:04Z</time>
      </trkpt>
      <trkpt lat="46.40608" lon="-1.50326">
        <ele>14.8</ele>
        <time>2020-06-03T08:59:05Z</time>
      </trkpt>
      <trkpt lat="46.40614" lon="-1.50334">
        <ele>14.7</ele>
        <time>2020-06-03T08:59:06Z</time>
      </trkpt>
      <trkpt lat="46.40619" lon="-1.50341">
        <ele>14.6</ele>
        <time>2020-06-03T08:59:07Z</time>
      </trkpt>
      <trkpt lat="46.40623" lon="-1.50348">
        <ele>14.5</ele>
        <time>2020-06-03T08:59:08Z</time>
      </trkpt>
      <trkpt lat="46.40628" lon="-1.50354">
        <ele>14.4</ele>
        <time>2020-06-03T08:59:09Z</time>
      </trkpt>
      <trkpt lat="46.40633" lon="-1.50362">
        <ele>14.3</ele>
        <time>2020-06-03T08:59:10Z</time>
      </trkpt>
      <trkpt lat="46.40637" lon="-1.50369">
        <ele>14.2</ele>
        <time>2020-06-03T08:59:11Z</time>
      </trkpt>
      <trkpt lat="46.40641" lon="-1.50377">
        <ele>14.1</ele>
        <time>2020-06-03T08:59:12Z</time>
      </trkpt>
      <trkpt lat="46.40645" lon="-1.50383">
        <ele>14.1</ele>
        <time>2020-06-03T08:59:13Z</time>
      </trkpt>
      <trkpt lat="46.40647" lon="-1.50387">
        <ele>14.1</ele>
        <time>2020-06-03T08:59:14Z</time>
      </trkpt>
      <trkpt lat="46.40649" lon="-1.50392">
        <ele>14.1</ele>
        <time>2020-06-03T08:59:15Z</time>
      </trkpt>
      <trkpt lat="46.40652" lon="-1.50397">
        <ele>14.1</ele>
        <time>2020-06-03T08:59:16Z</time>
      </trkpt>
      <trkpt lat="46.40654" lon="-1.50401">
        <ele>14.1</ele>
        <time>2020-06-03T08:59:17Z</time>
      </trkpt>
      <trkpt lat="46.40657" lon="-1.50404">
        <ele>14.1</ele>
        <time>2020-06-03T08:59:18Z</time>
      </trkpt>
      <trkpt lat="46.40658" lon="-1.50405">
        <ele>14.1</ele>
        <time>2020-06-03T08:59:19Z</time>
      </trkpt>
      <trkpt lat="46.40659" lon="-1.50405">
        <ele>14.1</ele>
        <time>2020-06-03T08:59:20Z</time>
      </trkpt>
      <trkpt lat="46.4066" lon="-1.50405">
        <ele>14.1</ele>
        <time>2020-06-03T08:59:21Z</time>
      </trkpt>
      <trkpt lat="46.40663" lon="-1.50403">
        <ele>14.1</ele>
        <time>2020-06-03T08:59:22Z</time>
      </trkpt>
      <trkpt lat="46.40664" lon="-1.50402">
        <ele>14.1</ele>
        <time>2020-06-03T08:59:23Z</time>
      </trkpt>
      <trkpt lat="46.40666" lon="-1.504">
        <ele>14.1</ele>
        <time>2020-06-03T08:59:24Z</time>
      </trkpt>
      <trkpt lat="46.40669" lon="-1.50397">
        <ele>14.1</ele>
        <time>2020-06-03T08:59:25Z</time>
      </trkpt>
      <trkpt lat="46.40671" lon="-1.50394">
        <ele>14.1</ele>
        <time>2020-06-03T08:59:26Z</time>
      </trkpt>
      <trkpt lat="46.40675" lon="-1.5039">
        <ele>14.1</ele>
        <time>2020-06-03T08:59:27Z</time>
      </trkpt>
      <trkpt lat="46.40676" lon="-1.50389">
        <ele>14.1</ele>
        <time>2020-06-03T08:59:28Z</time>
      </trkpt>
      <trkpt lat="46.40679" lon="-1.50386">
        <ele>14.1</ele>
        <time>2020-06-03T08:59:29Z</time>
      </trkpt>
      <trkpt lat="46.4068" lon="-1.50385">
        <ele>14.1</ele>
        <time>2020-06-03T08:59:30Z</time>
      </trkpt>
      <trkpt lat="46.40684" lon="-1.50383">
        <ele>14.1</ele>
        <time>2020-06-03T08:59:31Z</time>
      </trkpt>
      <trkpt lat="46.40686" lon="-1.50381">
        <ele>14.1</ele>
        <time>2020-06-03T08:59:32Z</time>
      </trkpt>
      <trkpt lat="46.4069" lon="-1.50379">
        <ele>14.1</ele>
        <time>2020-06-03T08:59:33Z</time>
      </trkpt>
      <trkpt lat="46.40691" lon="-1.50378">
        <ele>14.1</ele>
        <time>2020-06-03T08:59:34Z</time>
      </trkpt>
      <trkpt lat="46.40694" lon="-1.50375">
        <ele>14.1</ele>
        <time>2020-06-03T08:59:35Z</time>
      </trkpt>
      <trkpt lat="46.40696" lon="-1.50374">
        <ele>14.2</ele>
        <time>2020-06-03T08:59:36Z</time>
      </trkpt>
      <trkpt lat="46.40699" lon="-1.50372">
        <ele>14.2</ele>
        <time>2020-06-03T08:59:37Z</time>
      </trkpt>
      <trkpt lat="46.40702" lon="-1.50369">
        <ele>14.2</ele>
        <time>2020-06-03T08:59:38Z</time>
      </trkpt>
      <trkpt lat="46.40706" lon="-1.50367">
        <ele>14.3</ele>
        <time>2020-06-03T08:59:39Z</time>
      </trkpt>
      <trkpt lat="46.40709" lon="-1.50365">
        <ele>14.3</ele>
        <time>2020-06-03T08:59:40Z</time>
      </trkpt>
      <trkpt lat="46.40711" lon="-1.50363">
        <ele>14.3</ele>
        <time>2020-06-03T08:59:41Z</time>
      </trkpt>
      <trkpt lat="46.40715" lon="-1.50361">
        <ele>14.3</ele>
        <time>2020-06-03T08:59:42Z</time>
      </trkpt>
      <trkpt lat="46.40717" lon="-1.50359">
        <ele>14.3</ele>
        <time>2020-06-03T08:59:43Z</time>
      </trkpt>
      <trkpt lat="46.4072" lon="-1.50357">
        <ele>14.3</ele>
        <time>2020-06-03T08:59:44Z</time>
      </trkpt>
      <trkpt lat="46.40723" lon="-1.50355">
        <ele>14.3</ele>
        <time>2020-06-03T08:59:45Z</time>
      </trkpt>
      <trkpt lat="46.40726" lon="-1.50352">
        <ele>14.2</ele>
        <time>2020-06-03T08:59:46Z</time>
      </trkpt>
      <trkpt lat="46.40729" lon="-1.50349">
        <ele>14.2</ele>
        <time>2020-06-03T08:59:47Z</time>
      </trkpt>
      <trkpt lat="46.40733" lon="-1.50347">
        <ele>14.2</ele>
        <time>2020-06-03T08:59:48Z</time>
      </trkpt>
      <trkpt lat="46.40736" lon="-1.50345">
        <ele>14.2</ele>
        <time>2020-06-03T08:59:49Z</time>
      </trkpt>
      <trkpt lat="46.4074" lon="-1.50343">
        <ele>14.1</ele>
        <time>2020-06-03T08:59:50Z</time>
      </trkpt>
      <trkpt lat="46.40744" lon="-1.50341">
        <ele>14.2</ele>
        <time>2020-06-03T08:59:51Z</time>
      </trkpt>
      <trkpt lat="46.40748" lon="-1.50339">
        <ele>14.2</ele>
        <time>2020-06-03T08:59:52Z</time>
      </trkpt>
      <trkpt lat="46.40752" lon="-1.50338">
        <ele>14.2</ele>
        <time>2020-06-03T08:59:53Z</time>
      </trkpt>
      <trkpt lat="46.40757" lon="-1.50335">
        <ele>14.3</ele>
        <time>2020-06-03T08:59:54Z</time>
      </trkpt>
      <trkpt lat="46.40763" lon="-1.50334">
        <ele>14.4</ele>
        <time>2020-06-03T08:59:55Z</time>
      </trkpt>
      <trkpt lat="46.40768" lon="-1.50331">
        <ele>14.5</ele>
        <time>2020-06-03T08:59:56Z</time>
      </trkpt>
      <trkpt lat="46.40773" lon="-1.50329">
        <ele>14.6</ele>
        <time>2020-06-03T08:59:57Z</time>
      </trkpt>
      <trkpt lat="46.40781" lon="-1.50326">
        <ele>14.7</ele>
        <time>2020-06-03T08:59:58Z</time>
      </trkpt>
      <trkpt lat="46.40788" lon="-1.50323">
        <ele>14.8</ele>
        <time>2020-06-03T08:59:59Z</time>
      </trkpt>
      <trkpt lat="46.40793" lon="-1.50322">
        <ele>14.9</ele>
        <time>2020-06-03T09:00:00Z</time>
      </trkpt>
      <trkpt lat="46.40798" lon="-1.5032">
        <ele>15</ele>
        <time>2020-06-03T09:00:01Z</time>
      </trkpt>
      <trkpt lat="46.40804" lon="-1.50319">
        <ele>15.1</ele>
        <time>2020-06-03T09:00:02Z</time>
      </trkpt>
      <trkpt lat="46.40808" lon="-1.50319">
        <ele>15.2</ele>
        <time>2020-06-03T09:00:03Z</time>
      </trkpt>
      <trkpt lat="46.40813" lon="-1.50317">
        <ele>15.3</ele>
        <time>2020-06-03T09:00:04Z</time>
      </trkpt>
      <trkpt lat="46.40817" lon="-1.50315">
        <ele>15.4</ele>
        <time>2020-06-03T09:00:05Z</time>
      </trkpt>
      <trkpt lat="46.40822" lon="-1.50313">
        <ele>15.5</ele>
        <time>2020-06-03T09:00:06Z</time>
      </trkpt>
      <trkpt lat="46.40826" lon="-1.5031">
        <ele>15.6</ele>
        <time>2020-06-03T09:00:07Z</time>
      </trkpt>
      <trkpt lat="46.40829" lon="-1.50308">
        <ele>15.8</ele>
        <time>2020-06-03T09:00:08Z</time>
      </trkpt>
      <trkpt lat="46.40831" lon="-1.50306">
        <ele>15.9</ele>
        <time>2020-06-03T09:00:09Z</time>
      </trkpt>
      <trkpt lat="46.40834" lon="-1.50302">
        <ele>15.9</ele>
        <time>2020-06-03T09:00:10Z</time>
      </trkpt>
      <trkpt lat="46.40837" lon="-1.503">
        <ele>16</ele>
        <time>2020-06-03T09:00:11Z</time>
      </trkpt>
      <trkpt lat="46.4084" lon="-1.50297">
        <ele>16.2</ele>
        <time>2020-06-03T09:00:12Z</time>
      </trkpt>
      <trkpt lat="46.40844" lon="-1.50294">
        <ele>16.3</ele>
        <time>2020-06-03T09:00:13Z</time>
      </trkpt>
      <trkpt lat="46.40847" lon="-1.50291">
        <ele>16.5</ele>
        <time>2020-06-03T09:00:14Z</time>
      </trkpt>
      <trkpt lat="46.4085" lon="-1.50288">
        <ele>16.7</ele>
        <time>2020-06-03T09:00:15Z</time>
      </trkpt>
      <trkpt lat="46.40853" lon="-1.50286">
        <ele>16.8</ele>
        <time>2020-06-03T09:00:16Z</time>
      </trkpt>
      <trkpt lat="46.40856" lon="-1.50284">
        <ele>17</ele>
        <time>2020-06-03T09:00:17Z</time>
      </trkpt>
      <trkpt lat="46.40858" lon="-1.50282">
        <ele>17.1</ele>
        <time>2020-06-03T09:00:18Z</time>
      </trkpt>
      <trkpt lat="46.40862" lon="-1.50281">
        <ele>17.3</ele>
        <time>2020-06-03T09:00:19Z</time>
      </trkpt>
      <trkpt lat="46.40864" lon="-1.50281">
        <ele>17.3</ele>
        <time>2020-06-03T09:00:20Z</time>
      </trkpt>
      <trkpt lat="46.40867" lon="-1.50281">
        <ele>17.4</ele>
        <time>2020-06-03T09:00:21Z</time>
      </trkpt>
      <trkpt lat="46.40871" lon="-1.50281">
        <ele>17.6</ele>
        <time>2020-06-03T09:00:22Z</time>
      </trkpt>
      <trkpt lat="46.40872" lon="-1.50281">
        <ele>17.6</ele>
        <time>2020-06-03T09:00:23Z</time>
      </trkpt>
      <trkpt lat="46.40875" lon="-1.50281">
        <ele>17.7</ele>
        <time>2020-06-03T09:00:24Z</time>
      </trkpt>
      <trkpt lat="46.40878" lon="-1.50281">
        <ele>17.8</ele>
        <time>2020-06-03T09:00:25Z</time>
      </trkpt>
      <trkpt lat="46.40883" lon="-1.5028">
        <ele>17.8</ele>
        <time>2020-06-03T09:00:26Z</time>
      </trkpt>
      <trkpt lat="46.40888" lon="-1.50278">
        <ele>17.9</ele>
        <time>2020-06-03T09:00:27Z</time>
      </trkpt>
      <trkpt lat="46.40894" lon="-1.50274">
        <ele>17.8</ele>
        <time>2020-06-03T09:00:28Z</time>
      </trkpt>
      <trkpt lat="46.40899" lon="-1.5027">
        <ele>17.6</ele>
        <time>2020-06-03T09:00:29Z</time>
      </trkpt>
      <trkpt lat="46.40904" lon="-1.50267">
        <ele>17.5</ele>
        <time>2020-06-03T09:00:30Z</time>
      </trkpt>
      <trkpt lat="46.40909" lon="-1.50264">
        <ele>17.3</ele>
        <time>2020-06-03T09:00:31Z</time>
      </trkpt>
      <trkpt lat="46.40915" lon="-1.50262">
        <ele>17.3</ele>
        <time>2020-06-03T09:00:32Z</time>
      </trkpt>
      <trkpt lat="46.4092" lon="-1.5026">
        <ele>17.3</ele>
        <time>2020-06-03T09:00:33Z</time>
      </trkpt>
      <trkpt lat="46.40927" lon="-1.50259">
        <ele>17.4</ele>
        <time>2020-06-03T09:00:34Z</time>
      </trkpt>
      <trkpt lat="46.40933" lon="-1.50257">
        <ele>17.5</ele>
        <time>2020-06-03T09:00:35Z</time>
      </trkpt>
      <trkpt lat="46.40939" lon="-1.50256">
        <ele>17.7</ele>
        <time>2020-06-03T09:00:36Z</time>
      </trkpt>
      <trkpt lat="46.40943" lon="-1.50255">
        <ele>17.8</ele>
        <time>2020-06-03T09:00:37Z</time>
      </trkpt>
      <trkpt lat="46.40947" lon="-1.50254">
        <ele>17.9</ele>
        <time>2020-06-03T09:00:38Z</time>
      </trkpt>
      <trkpt lat="46.40949" lon="-1.50252">
        <ele>18</ele>
        <time>2020-06-03T09:00:39Z</time>
      </trkpt>
      <trkpt lat="46.40952" lon="-1.50251">
        <ele>18.1</ele>
        <time>2020-06-03T09:00:40Z</time>
      </trkpt>
      <trkpt lat="46.40956" lon="-1.5025">
        <ele>18.2</ele>
        <time>2020-06-03T09:00:41Z</time>
      </trkpt>
      <trkpt lat="46.4096" lon="-1.50248">
        <ele>18.3</ele>
        <time>2020-06-03T09:00:42Z</time>
      </trkpt>
      <trkpt lat="46.40964" lon="-1.50249">
        <ele>18.3</ele>
        <time>2020-06-03T09:00:43Z</time>
      </trkpt>
      <trkpt lat="46.40969" lon="-1.50249">
        <ele>18.3</ele>
        <time>2020-06-03T09:00:44Z</time>
      </trkpt>
      <trkpt lat="46.40973" lon="-1.50248">
        <ele>18.2</ele>
        <time>2020-06-03T09:00:45Z</time>
      </trkpt>
      <trkpt lat="46.40979" lon="-1.50247">
        <ele>18.1</ele>
        <time>2020-06-03T09:00:46Z</time>
      </trkpt>
      <trkpt lat="46.40984" lon="-1.50248">
        <ele>18.1</ele>
        <time>2020-06-03T09:00:47Z</time>
      </trkpt>
      <trkpt lat="46.40989" lon="-1.5025">
        <ele>18</ele>
        <time>2020-06-03T09:00:48Z</time>
      </trkpt>
      <trkpt lat="46.40993" lon="-1.50253">
        <ele>18</ele>
        <time>2020-06-03T09:00:49Z</time>
      </trkpt>
      <trkpt lat="46.40997" lon="-1.50254">
        <ele>18</ele>
        <time>2020-06-03T09:00:50Z</time>
      </trkpt>
      <trkpt lat="46.41" lon="-1.50256">
        <ele>18</ele>
        <time>2020-06-03T09:00:51Z</time>
      </trkpt>
      <trkpt lat="46.41004" lon="-1.50257">
        <ele>18</ele>
        <time>2020-06-03T09:00:52Z</time>
      </trkpt>
      <trkpt lat="46.41008" lon="-1.50254">
        <ele>18</ele>
        <time>2020-06-03T09:00:53Z</time>
      </trkpt>
      <trkpt lat="46.41012" lon="-1.50248">
        <ele>18</ele>
        <time>2020-06-03T09:00:54Z</time>
      </trkpt>
      <trkpt lat="46.41013" lon="-1.50246">
        <ele>18</ele>
        <time>2020-06-03T09:00:55Z</time>
      </trkpt>
      <trkpt lat="46.41013" lon="-1.50246">
        <ele>18</ele>
        <time>2020-06-03T09:00:56Z</time>
      </trkpt>
      <trkpt lat="46.41014" lon="-1.50247">
        <ele>18</ele>
        <time>2020-06-03T09:00:57Z</time>
      </trkpt>
      <trkpt lat="46.41014" lon="-1.50246">
        <ele>18.1</ele>
        <time>2020-06-03T09:00:58Z</time>
      </trkpt>
      <trkpt lat="46.41014" lon="-1.50247">
        <ele>18.1</ele>
        <time>2020-06-03T09:00:59Z</time>
      </trkpt>
      <trkpt lat="46.41013" lon="-1.50248">
        <ele>18.1</ele>
        <time>2020-06-03T09:01:00Z</time>
      </trkpt>
      <trkpt lat="46.41013" lon="-1.50249">
        <ele>18.1</ele>
        <time>2020-06-03T09:01:01Z</time>
      </trkpt>
      <trkpt lat="46.41013" lon="-1.5025">
        <ele>18.1</ele>
        <time>2020-06-03T09:01:02Z</time>
      </trkpt>
      <trkpt lat="46.41013" lon="-1.50252">
        <ele>18.1</ele>
        <time>2020-06-03T09:01:03Z</time>
      </trkpt>
      <trkpt lat="46.41014" lon="-1.50254">
        <ele>18.1</ele>
        <time>2020-06-03T09:01:04Z</time>
      </trkpt>
      <trkpt lat="46.41015" lon="-1.50256">
        <ele>18.1</ele>
        <time>2020-06-03T09:01:05Z</time>
      </trkpt>
      <trkpt lat="46.41016" lon="-1.50258">
        <ele>18.1</ele>
        <time>2020-06-03T09:01:06Z</time>
      </trkpt>
      <trkpt lat="46.41016" lon="-1.5026">
        <ele>18.1</ele>
        <time>2020-06-03T09:01:07Z</time>
      </trkpt>
      <trkpt lat="46.41017" lon="-1.50264">
        <ele>18.1</ele>
        <time>2020-06-03T09:01:08Z</time>
      </trkpt>
      <trkpt lat="46.41018" lon="-1.50266">
        <ele>18.1</ele>
        <time>2020-06-03T09:01:09Z</time>
      </trkpt>
      <trkpt lat="46.41021" lon="-1.5027">
        <ele>18.2</ele>
        <time>2020-06-03T09:01:10Z</time>
      </trkpt>
      <trkpt lat="46.41022" lon="-1.50271">
        <ele>18.2</ele>
        <time>2020-06-03T09:01:11Z</time>
      </trkpt>
      <trkpt lat="46.41025" lon="-1.50275">
        <ele>18.2</ele>
        <time>2020-06-03T09:01:12Z</time>
      </trkpt>
      <trkpt lat="46.41026" lon="-1.50276">
        <ele>18.2</ele>
        <time>2020-06-03T09:01:13Z</time>
      </trkpt>
      <trkpt lat="46.41029" lon="-1.50279">
        <ele>18.2</ele>
        <time>2020-06-03T09:01:14Z</time>
      </trkpt>
      <trkpt lat="46.41029" lon="-1.5028">
        <ele>18.2</ele>
        <time>2020-06-03T09:01:15Z</time>
      </trkpt>
      <trkpt lat="46.41031" lon="-1.50283">
        <ele>18.2</ele>
        <time>2020-06-03T09:01:16Z</time>
      </trkpt>
      <trkpt lat="46.41032" lon="-1.50285">
        <ele>18.2</ele>
        <time>2020-06-03T09:01:17Z</time>
      </trkpt>
      <trkpt lat="46.41034" lon="-1.50287">
        <ele>18.2</ele>
        <time>2020-06-03T09:01:18Z</time>
      </trkpt>
      <trkpt lat="46.41035" lon="-1.50288">
        <ele>18.2</ele>
        <time>2020-06-03T09:01:19Z</time>
      </trkpt>
      <trkpt lat="46.41036" lon="-1.50288">
        <ele>18.2</ele>
        <time>2020-06-03T09:01:20Z</time>
      </trkpt>
      <trkpt lat="46.41037" lon="-1.50289">
        <ele>18.2</ele>
        <time>2020-06-03T09:01:21Z</time>
      </trkpt>
      <trkpt lat="46.41037" lon="-1.5029">
        <ele>18.2</ele>
        <time>2020-06-03T09:01:22Z</time>
      </trkpt>
      <trkpt lat="46.41038" lon="-1.50289">
        <ele>18.2</ele>
        <time>2020-06-03T09:01:23Z</time>
      </trkpt>
      <trkpt lat="46.41039" lon="-1.50287">
        <ele>18.2</ele>
        <time>2020-06-03T09:01:24Z</time>
      </trkpt>
      <trkpt lat="46.41039" lon="-1.50286">
        <ele>18.2</ele>
        <time>2020-06-03T09:01:25Z</time>
      </trkpt>
      <trkpt lat="46.41039" lon="-1.50285">
        <ele>18.2</ele>
        <time>2020-06-03T09:01:26Z</time>
      </trkpt>
      <trkpt lat="46.41039" lon="-1.50279">
        <ele>18.2</ele>
        <time>2020-06-03T09:01:27Z</time>
      </trkpt>
      <trkpt lat="46.41039" lon="-1.50277">
        <ele>18.2</ele>
        <time>2020-06-03T09:01:28Z</time>
      </trkpt>
      <trkpt lat="46.41038" lon="-1.50273">
        <ele>18.2</ele>
        <time>2020-06-03T09:01:29Z</time>
      </trkpt>
      <trkpt lat="46.41038" lon="-1.50268">
        <ele>18.2</ele>
        <time>2020-06-03T09:01:30Z</time>
      </trkpt>
      <trkpt lat="46.41038" lon="-1.50263">
        <ele>18.2</ele>
        <time>2020-06-03T09:01:31Z</time>
      </trkpt>
      <trkpt lat="46.41038" lon="-1.50258">
        <ele>18.2</ele>
        <time>2020-06-03T09:01:32Z</time>
      </trkpt>
      <trkpt lat="46.41039" lon="-1.50252">
        <ele>18.2</ele>
        <time>2020-06-03T09:01:33Z</time>
      </trkpt>
      <trkpt lat="46.4104" lon="-1.50246">
        <ele>18.1</ele>
        <time>2020-06-03T09:01:34Z</time>
      </trkpt>
      <trkpt lat="46.4104" lon="-1.5024">
        <ele>18.1</ele>
        <time>2020-06-03T09:01:35Z</time>
      </trkpt>
      <trkpt lat="46.41039" lon="-1.50235">
        <ele>18.1</ele>
        <time>2020-06-03T09:01:36Z</time>
      </trkpt>
      <trkpt lat="46.41038" lon="-1.5023">
        <ele>18.1</ele>
        <time>2020-06-03T09:01:37Z</time>
      </trkpt>
      <trkpt lat="46.41037" lon="-1.50228">
        <ele>18.1</ele>
        <time>2020-06-03T09:01:38Z</time>
      </trkpt>
      <trkpt lat="46.41036" lon="-1.50225">
        <ele>18.1</ele>
        <time>2020-06-03T09:01:39Z</time>
      </trkpt>
      <trkpt lat="46.41034" lon="-1.5022">
        <ele>18.1</ele>
        <time>2020-06-03T09:01:40Z</time>
      </trkpt>
      <trkpt lat="46.41034" lon="-1.50219">
        <ele>18.1</ele>
        <time>2020-06-03T09:01:41Z</time>
      </trkpt>
      <trkpt lat="46.41034" lon="-1.50217">
        <ele>18.1</ele>
        <time>2020-06-03T09:01:42Z</time>
      </trkpt>
      <trkpt lat="46.41034" lon="-1.50215">
        <ele>18.1</ele>
        <time>2020-06-03T09:01:43Z</time>
      </trkpt>
      <trkpt lat="46.41033" lon="-1.50214">
        <ele>18.1</ele>
        <time>2020-06-03T09:01:44Z</time>
      </trkpt>
      <trkpt lat="46.41033" lon="-1.50212">
        <ele>18.1</ele>
        <time>2020-06-03T09:01:45Z</time>
      </trkpt>
      <trkpt lat="46.41034" lon="-1.5021">
        <ele>18.1</ele>
        <time>2020-06-03T09:01:46Z</time>
      </trkpt>
      <trkpt lat="46.41035" lon="-1.50209">
        <ele>18.1</ele>
        <time>2020-06-03T09:01:47Z</time>
      </trkpt>
      <trkpt lat="46.41036" lon="-1.50208">
        <ele>18</ele>
        <time>2020-06-03T09:01:48Z</time>
      </trkpt>
      <trkpt lat="46.41037" lon="-1.50208">
        <ele>18</ele>
        <time>2020-06-03T09:01:49Z</time>
      </trkpt>
      <trkpt lat="46.41038" lon="-1.50208">
        <ele>18</ele>
        <time>2020-06-03T09:01:50Z</time>
      </trkpt>
      <trkpt lat="46.41039" lon="-1.50209">
        <ele>18</ele>
        <time>2020-06-03T09:01:51Z</time>
      </trkpt>
      <trkpt lat="46.41039" lon="-1.5021">
        <ele>18</ele>
        <time>2020-06-03T09:01:52Z</time>
      </trkpt>
      <trkpt lat="46.4104" lon="-1.50211">
        <ele>18</ele>
        <time>2020-06-03T09:01:53Z</time>
      </trkpt>
      <trkpt lat="46.4104" lon="-1.50213">
        <ele>18</ele>
        <time>2020-06-03T09:01:54Z</time>
      </trkpt>
      <trkpt lat="46.4104" lon="-1.50215">
        <ele>18</ele>
        <time>2020-06-03T09:01:55Z</time>
      </trkpt>
      <trkpt lat="46.4104" lon="-1.50216">
        <ele>18</ele>
        <time>2020-06-03T09:01:56Z</time>
      </trkpt>
      <trkpt lat="46.41041" lon="-1.50218">
        <ele>18</ele>
        <time>2020-06-03T09:01:57Z</time>
      </trkpt>
      <trkpt lat="46.41041" lon="-1.50223">
        <ele>18.1</ele>
        <time>2020-06-03T09:01:58Z</time>
      </trkpt>
      <trkpt lat="46.41042" lon="-1.50229">
        <ele>18.1</ele>
        <time>2020-06-03T09:01:59Z</time>
      </trkpt>
      <trkpt lat="46.41043" lon="-1.50235">
        <ele>18.1</ele>
        <time>2020-06-03T09:02:00Z</time>
      </trkpt>
      <trkpt lat="46.41043" lon="-1.50241">
        <ele>18.1</ele>
        <time>2020-06-03T09:02:01Z</time>
      </trkpt>
      <trkpt lat="46.41044" lon="-1.50249">
        <ele>18.2</ele>
        <time>2020-06-03T09:02:02Z</time>
      </trkpt>
      <trkpt lat="46.41045" lon="-1.50255">
        <ele>18.2</ele>
        <time>2020-06-03T09:02:03Z</time>
      </trkpt>
      <trkpt lat="46.41046" lon="-1.50261">
        <ele>18.2</ele>
        <time>2020-06-03T09:02:04Z</time>
      </trkpt>
      <trkpt lat="46.41046" lon="-1.50266">
        <ele>18.2</ele>
        <time>2020-06-03T09:02:05Z</time>
      </trkpt>
      <trkpt lat="46.41046" lon="-1.50271">
        <ele>18.2</ele>
        <time>2020-06-03T09:02:06Z</time>
      </trkpt>
      <trkpt lat="46.41047" lon="-1.50276">
        <ele>18.2</ele>
        <time>2020-06-03T09:02:07Z</time>
      </trkpt>
      <trkpt lat="46.41047" lon="-1.50277">
        <ele>18.2</ele>
        <time>2020-06-03T09:02:08Z</time>
      </trkpt>
      <trkpt lat="46.41046" lon="-1.50281">
        <ele>18.2</ele>
        <time>2020-06-03T09:02:09Z</time>
      </trkpt>
      <trkpt lat="46.41046" lon="-1.50287">
        <ele>18.3</ele>
        <time>2020-06-03T09:02:10Z</time>
      </trkpt>
      <trkpt lat="46.41046" lon="-1.50288">
        <ele>18.3</ele>
        <time>2020-06-03T09:02:11Z</time>
      </trkpt>
      <trkpt lat="46.41045" lon="-1.50291">
        <ele>18.3</ele>
        <time>2020-06-03T09:02:12Z</time>
      </trkpt>
      <trkpt lat="46.41045" lon="-1.50293">
        <ele>18.3</ele>
        <time>2020-06-03T09:02:13Z</time>
      </trkpt>
      <trkpt lat="46.41044" lon="-1.50294">
        <ele>18.3</ele>
        <time>2020-06-03T09:02:14Z</time>
      </trkpt>
      <trkpt lat="46.41044" lon="-1.50295">
        <ele>18.3</ele>
        <time>2020-06-03T09:02:15Z</time>
      </trkpt>
      <trkpt lat="46.41043" lon="-1.50296">
        <ele>18.3</ele>
        <time>2020-06-03T09:02:16Z</time>
      </trkpt>
      <trkpt lat="46.41043" lon="-1.50296">
        <ele>18.3</ele>
        <time>2020-06-03T09:02:17Z</time>
      </trkpt>
      <trkpt lat="46.41042" lon="-1.50297">
        <ele>18.3</ele>
        <time>2020-06-03T09:02:18Z</time>
      </trkpt>
      <trkpt lat="46.4104" lon="-1.50299">
        <ele>18.3</ele>
        <time>2020-06-03T09:02:19Z</time>
      </trkpt>
      <trkpt lat="46.4104" lon="-1.503">
        <ele>18.3</ele>
        <time>2020-06-03T09:02:20Z</time>
      </trkpt>
      <trkpt lat="46.41039" lon="-1.50301">
        <ele>18.3</ele>
        <time>2020-06-03T09:02:21Z</time>
      </trkpt>
      <trkpt lat="46.41036" lon="-1.50303">
        <ele>18.4</ele>
        <time>2020-06-03T09:02:22Z</time>
      </trkpt>
      <trkpt lat="46.41035" lon="-1.50303">
        <ele>18.4</ele>
        <time>2020-06-03T09:02:23Z</time>
      </trkpt>
      <trkpt lat="46.41032" lon="-1.50303">
        <ele>18.4</ele>
        <time>2020-06-03T09:02:24Z</time>
      </trkpt>
      <trkpt lat="46.41029" lon="-1.50304">
        <ele>18.4</ele>
        <time>2020-06-03T09:02:25Z</time>
      </trkpt>
      <trkpt lat="46.41026" lon="-1.50306">
        <ele>18.4</ele>
        <time>2020-06-03T09:02:26Z</time>
      </trkpt>
      <trkpt lat="46.41023" lon="-1.50308">
        <ele>18.4</ele>
        <time>2020-06-03T09:02:27Z</time>
      </trkpt>
      <trkpt lat="46.41023" lon="-1.50308">
        <ele>18.4</ele>
        <time>2020-06-03T09:02:28Z</time>
      </trkpt>
      <trkpt lat="46.41019" lon="-1.50311">
        <ele>18.3</ele>
        <time>2020-06-03T09:02:29Z</time>
      </trkpt>
      <trkpt lat="46.41018" lon="-1.50312">
        <ele>18.3</ele>
        <time>2020-06-03T09:02:30Z</time>
      </trkpt>
      <trkpt lat="46.41015" lon="-1.50315">
        <ele>18.3</ele>
        <time>2020-06-03T09:02:31Z</time>
      </trkpt>
      <trkpt lat="46.41012" lon="-1.50319">
        <ele>18.2</ele>
        <time>2020-06-03T09:02:32Z</time>
      </trkpt>
      <trkpt lat="46.41011" lon="-1.50323">
        <ele>18.2</ele>
        <time>2020-06-03T09:02:33Z</time>
      </trkpt>
      <trkpt lat="46.4101" lon="-1.50327">
        <ele>18.2</ele>
        <time>2020-06-03T09:02:34Z</time>
      </trkpt>
      <trkpt lat="46.41009" lon="-1.50332">
        <ele>18.1</ele>
        <time>2020-06-03T09:02:35Z</time>
      </trkpt>
      <trkpt lat="46.41009" lon="-1.50337">
        <ele>18.1</ele>
        <time>2020-06-03T09:02:36Z</time>
      </trkpt>
      <trkpt lat="46.41009" lon="-1.50342">
        <ele>18</ele>
        <time>2020-06-03T09:02:37Z</time>
      </trkpt>
      <trkpt lat="46.4101" lon="-1.50347">
        <ele>18</ele>
        <time>2020-06-03T09:02:38Z</time>
      </trkpt>
      <trkpt lat="46.41011" lon="-1.50354">
        <ele>17.9</ele>
        <time>2020-06-03T09:02:39Z</time>
      </trkpt>
      <trkpt lat="46.41013" lon="-1.5036">
        <ele>17.9</ele>
        <time>2020-06-03T09:02:40Z</time>
      </trkpt>
      <trkpt lat="46.41014" lon="-1.50367">
        <ele>17.9</ele>
        <time>2020-06-03T09:02:41Z</time>
      </trkpt>
      <trkpt lat="46.41016" lon="-1.50374">
        <ele>17.8</ele>
        <time>2020-06-03T09:02:42Z</time>
      </trkpt>
      <trkpt lat="46.41018" lon="-1.50382">
        <ele>17.8</ele>
        <time>2020-06-03T09:02:43Z</time>
      </trkpt>
      <trkpt lat="46.4102" lon="-1.50391">
        <ele>17.8</ele>
        <time>2020-06-03T09:02:44Z</time>
      </trkpt>
      <trkpt lat="46.41022" lon="-1.504">
        <ele>17.8</ele>
        <time>2020-06-03T09:02:45Z</time>
      </trkpt>
      <trkpt lat="46.41024" lon="-1.5041">
        <ele>17.9</ele>
        <time>2020-06-03T09:02:46Z</time>
      </trkpt>
      <trkpt lat="46.41027" lon="-1.50417">
        <ele>18</ele>
        <time>2020-06-03T09:02:47Z</time>
      </trkpt>
      <trkpt lat="46.41029" lon="-1.50425">
        <ele>18</ele>
        <time>2020-06-03T09:02:48Z</time>
      </trkpt>
      <trkpt lat="46.4103" lon="-1.50432">
        <ele>18.1</ele>
        <time>2020-06-03T09:02:49Z</time>
      </trkpt>
      <trkpt lat="46.41031" lon="-1.50438">
        <ele>18.1</ele>
        <time>2020-06-03T09:02:50Z</time>
      </trkpt>
      <trkpt lat="46.41032" lon="-1.50447">
        <ele>18.2</ele>
        <time>2020-06-03T09:02:51Z</time>
      </trkpt>
      <trkpt lat="46.41033" lon="-1.50454">
        <ele>18.2</ele>
        <time>2020-06-03T09:02:52Z</time>
      </trkpt>
      <trkpt lat="46.41035" lon="-1.50462">
        <ele>18.3</ele>
        <time>2020-06-03T09:02:53Z</time>
      </trkpt>
      <trkpt lat="46.41036" lon="-1.50468">
        <ele>18.3</ele>
        <time>2020-06-03T09:02:54Z</time>
      </trkpt>
      <trkpt lat="46.41038" lon="-1.50473">
        <ele>18.3</ele>
        <time>2020-06-03T09:02:55Z</time>
      </trkpt>
      <trkpt lat="46.41039" lon="-1.50477">
        <ele>18.3</ele>
        <time>2020-06-03T09:02:56Z</time>
      </trkpt>
      <trkpt lat="46.41042" lon="-1.50481">
        <ele>18.3</ele>
        <time>2020-06-03T09:02:57Z</time>
      </trkpt>
      <trkpt lat="46.41042" lon="-1.50482">
        <ele>18.3</ele>
        <time>2020-06-03T09:02:58Z</time>
      </trkpt>
      <trkpt lat="46.41044" lon="-1.50485">
        <ele>18.3</ele>
        <time>2020-06-03T09:02:59Z</time>
      </trkpt>
      <trkpt lat="46.41045" lon="-1.50486">
        <ele>18.3</ele>
        <time>2020-06-03T09:03:00Z</time>
      </trkpt>
      <trkpt lat="46.41047" lon="-1.50489">
        <ele>18.3</ele>
        <time>2020-06-03T09:03:01Z</time>
      </trkpt>
      <trkpt lat="46.4105" lon="-1.50493">
        <ele>18.2</ele>
        <time>2020-06-03T09:03:02Z</time>
      </trkpt>
      <trkpt lat="46.41055" lon="-1.505">
        <ele>18.1</ele>
        <time>2020-06-03T09:03:03Z</time>
      </trkpt>
      <trkpt lat="46.4106" lon="-1.50507">
        <ele>18</ele>
        <time>2020-06-03T09:03:04Z</time>
      </trkpt>
      <trkpt lat="46.41064" lon="-1.50514">
        <ele>17.9</ele>
        <time>2020-06-03T09:03:05Z</time>
      </trkpt>
      <trkpt lat="46.41067" lon="-1.50519">
        <ele>17.8</ele>
        <time>2020-06-03T09:03:06Z</time>
      </trkpt>
      <trkpt lat="46.4107" lon="-1.50525">
        <ele>17.7</ele>
        <time>2020-06-03T09:03:07Z</time>
      </trkpt>
      <trkpt lat="46.41073" lon="-1.50532">
        <ele>17.7</ele>
        <time>2020-06-03T09:03:08Z</time>
      </trkpt>
      <trkpt lat="46.41075" lon="-1.50539">
        <ele>17.6</ele>
        <time>2020-06-03T09:03:09Z</time>
      </trkpt>
      <trkpt lat="46.41076" lon="-1.50547">
        <ele>17.5</ele>
        <time>2020-06-03T09:03:10Z</time>
      </trkpt>
      <trkpt lat="46.41077" lon="-1.50555">
        <ele>17.4</ele>
        <time>2020-06-03T09:03:11Z</time>
      </trkpt>
      <trkpt lat="46.41077" lon="-1.50563">
        <ele>17.4</ele>
        <time>2020-06-03T09:03:12Z</time>
      </trkpt>
      <trkpt lat="46.41078" lon="-1.50571">
        <ele>17.3</ele>
        <time>2020-06-03T09:03:13Z</time>
      </trkpt>
      <trkpt lat="46.41078" lon="-1.50579">
        <ele>17.3</ele>
        <time>2020-06-03T09:03:14Z</time>
      </trkpt>
      <trkpt lat="46.4108" lon="-1.50588">
        <ele>17.3</ele>
        <time>2020-06-03T09:03:15Z</time>
      </trkpt>
      <trkpt lat="46.41081" lon="-1.50597">
        <ele>17.3</ele>
        <time>2020-06-03T09:03:16Z</time>
      </trkpt>
      <trkpt lat="46.41083" lon="-1.50604">
        <ele>17.3</ele>
        <time>2020-06-03T09:03:17Z</time>
      </trkpt>
      <trkpt lat="46.41083" lon="-1.50612">
        <ele>17.4</ele>
        <time>2020-06-03T09:03:18Z</time>
      </trkpt>
      <trkpt lat="46.41084" lon="-1.50618">
        <ele>17.4</ele>
        <time>2020-06-03T09:03:19Z</time>
      </trkpt>
      <trkpt lat="46.41084" lon="-1.50625">
        <ele>17.5</ele>
        <time>2020-06-03T09:03:20Z</time>
      </trkpt>
      <trkpt lat="46.41084" lon="-1.50632">
        <ele>17.5</ele>
        <time>2020-06-03T09:03:21Z</time>
      </trkpt>
      <trkpt lat="46.41084" lon="-1.50639">
        <ele>17.6</ele>
        <time>2020-06-03T09:03:22Z</time>
      </trkpt>
      <trkpt lat="46.41084" lon="-1.50645">
        <ele>17.7</ele>
        <time>2020-06-03T09:03:23Z</time>
      </trkpt>
      <trkpt lat="46.41085" lon="-1.50651">
        <ele>17.8</ele>
        <time>2020-06-03T09:03:24Z</time>
      </trkpt>
      <trkpt lat="46.41085" lon="-1.50658">
        <ele>17.9</ele>
        <time>2020-06-03T09:03:25Z</time>
      </trkpt>
      <trkpt lat="46.41087" lon="-1.50664">
        <ele>18</ele>
        <time>2020-06-03T09:03:26Z</time>
      </trkpt>
      <trkpt lat="46.41089" lon="-1.50672">
        <ele>18.1</ele>
        <time>2020-06-03T09:03:27Z</time>
      </trkpt>
      <trkpt lat="46.4109" lon="-1.50679">
        <ele>18.2</ele>
        <time>2020-06-03T09:03:28Z</time>
      </trkpt>
      <trkpt lat="46.4109" lon="-1.50685">
        <ele>18.4</ele>
        <time>2020-06-03T09:03:29Z</time>
      </trkpt>
      <trkpt lat="46.41091" lon="-1.50692">
        <ele>18.5</ele>
        <time>2020-06-03T09:03:30Z</time>
      </trkpt>
      <trkpt lat="46.41092" lon="-1.50699">
        <ele>18.7</ele>
        <time>2020-06-03T09:03:31Z</time>
      </trkpt>
      <trkpt lat="46.41092" lon="-1.50706">
        <ele>18.8</ele>
        <time>2020-06-03T09:03:32Z</time>
      </trkpt>
      <trkpt lat="46.41093" lon="-1.50712">
        <ele>19</ele>
        <time>2020-06-03T09:03:33Z</time>
      </trkpt>
      <trkpt lat="46.41093" lon="-1.50717">
        <ele>19.1</ele>
        <time>2020-06-03T09:03:34Z</time>
      </trkpt>
      <trkpt lat="46.41092" lon="-1.50722">
        <ele>19.2</ele>
        <time>2020-06-03T09:03:35Z</time>
      </trkpt>
      <trkpt lat="46.41093" lon="-1.50728">
        <ele>19.3</ele>
        <time>2020-06-03T09:03:36Z</time>
      </trkpt>
      <trkpt lat="46.41093" lon="-1.50733">
        <ele>19.4</ele>
        <time>2020-06-03T09:03:37Z</time>
      </trkpt>
      <trkpt lat="46.41094" lon="-1.50738">
        <ele>19.5</ele>
        <time>2020-06-03T09:03:38Z</time>
      </trkpt>
      <trkpt lat="46.41095" lon="-1.50744">
        <ele>19.6</ele>
        <time>2020-06-03T09:03:39Z</time>
      </trkpt>
      <trkpt lat="46.41095" lon="-1.50748">
        <ele>19.7</ele>
        <time>2020-06-03T09:03:40Z</time>
      </trkpt>
      <trkpt lat="46.41096" lon="-1.50752">
        <ele>19.8</ele>
        <time>2020-06-03T09:03:41Z</time>
      </trkpt>
      <trkpt lat="46.41097" lon="-1.50758">
        <ele>19.8</ele>
        <time>2020-06-03T09:03:42Z</time>
      </trkpt>
      <trkpt lat="46.41098" lon="-1.50763">
        <ele>19.9</ele>
        <time>2020-06-03T09:03:43Z</time>
      </trkpt>
      <trkpt lat="46.41098" lon="-1.50769">
        <ele>19.9</ele>
        <time>2020-06-03T09:03:44Z</time>
      </trkpt>
      <trkpt lat="46.41099" lon="-1.50775">
        <ele>19.9</ele>
        <time>2020-06-03T09:03:45Z</time>
      </trkpt>
      <trkpt lat="46.41101" lon="-1.50782">
        <ele>19.9</ele>
        <time>2020-06-03T09:03:46Z</time>
      </trkpt>
      <trkpt lat="46.41103" lon="-1.5079">
        <ele>19.8</ele>
        <time>2020-06-03T09:03:47Z</time>
      </trkpt>
      <trkpt lat="46.41105" lon="-1.50799">
        <ele>19.6</ele>
        <time>2020-06-03T09:03:48Z</time>
      </trkpt>
      <trkpt lat="46.41107" lon="-1.50808">
        <ele>19.5</ele>
        <time>2020-06-03T09:03:49Z</time>
      </trkpt>
      <trkpt lat="46.41109" lon="-1.50817">
        <ele>19.3</ele>
        <time>2020-06-03T09:03:50Z</time>
      </trkpt>
      <trkpt lat="46.41111" lon="-1.50826">
        <ele>19.2</ele>
        <time>2020-06-03T09:03:51Z</time>
      </trkpt>
      <trkpt lat="46.41113" lon="-1.50835">
        <ele>19.1</ele>
        <time>2020-06-03T09:03:52Z</time>
      </trkpt>
      <trkpt lat="46.41114" lon="-1.50845">
        <ele>19</ele>
        <time>2020-06-03T09:03:53Z</time>
      </trkpt>
      <trkpt lat="46.41116" lon="-1.50855">
        <ele>19</ele>
        <time>2020-06-03T09:03:54Z</time>
      </trkpt>
      <trkpt lat="46.41117" lon="-1.50863">
        <ele>19</ele>
        <time>2020-06-03T09:03:55Z</time>
      </trkpt>
      <trkpt lat="46.41117" lon="-1.50871">
        <ele>19</ele>
        <time>2020-06-03T09:03:56Z</time>
      </trkpt>
      <trkpt lat="46.41117" lon="-1.50879">
        <ele>19</ele>
        <time>2020-06-03T09:03:57Z</time>
      </trkpt>
      <trkpt lat="46.41115" lon="-1.50886">
        <ele>19</ele>
        <time>2020-06-03T09:03:58Z</time>
      </trkpt>
      <trkpt lat="46.41114" lon="-1.50894">
        <ele>19</ele>
        <time>2020-06-03T09:03:59Z</time>
      </trkpt>
      <trkpt lat="46.41113" lon="-1.50901">
        <ele>19.1</ele>
        <time>2020-06-03T09:04:00Z</time>
      </trkpt>
      <trkpt lat="46.41112" lon="-1.50907">
        <ele>19.1</ele>
        <time>2020-06-03T09:04:01Z</time>
      </trkpt>
      <trkpt lat="46.4111" lon="-1.50911">
        <ele>19.2</ele>
        <time>2020-06-03T09:04:02Z</time>
      </trkpt>
      <trkpt lat="46.41108" lon="-1.50916">
        <ele>19.3</ele>
        <time>2020-06-03T09:04:03Z</time>
      </trkpt>
      <trkpt lat="46.41105" lon="-1.5092">
        <ele>19.4</ele>
        <time>2020-06-03T09:04:04Z</time>
      </trkpt>
      <trkpt lat="46.41102" lon="-1.50925">
        <ele>19.5</ele>
        <time>2020-06-03T09:04:05Z</time>
      </trkpt>
      <trkpt lat="46.411" lon="-1.50929">
        <ele>19.5</ele>
        <time>2020-06-03T09:04:06Z</time>
      </trkpt>
      <trkpt lat="46.41098" lon="-1.50933">
        <ele>19.6</ele>
        <time>2020-06-03T09:04:07Z</time>
      </trkpt>
      <trkpt lat="46.41098" lon="-1.50937">
        <ele>19.8</ele>
        <time>2020-06-03T09:04:08Z</time>
      </trkpt>
      <trkpt lat="46.41098" lon="-1.50942">
        <ele>19.9</ele>
        <time>2020-06-03T09:04:09Z</time>
      </trkpt>
      <trkpt lat="46.41096" lon="-1.50948">
        <ele>20</ele>
        <time>2020-06-03T09:04:10Z</time>
      </trkpt>
      <trkpt lat="46.41095" lon="-1.50953">
        <ele>20</ele>
        <time>2020-06-03T09:04:11Z</time>
      </trkpt>
      <trkpt lat="46.41095" lon="-1.50958">
        <ele>20.1</ele>
        <time>2020-06-03T09:04:12Z</time>
      </trkpt>
      <trkpt lat="46.41094" lon="-1.50962">
        <ele>20.2</ele>
        <time>2020-06-03T09:04:13Z</time>
      </trkpt>
      <trkpt lat="46.41094" lon="-1.50966">
        <ele>20.3</ele>
        <time>2020-06-03T09:04:14Z</time>
      </trkpt>
      <trkpt lat="46.41093" lon="-1.5097">
        <ele>20.4</ele>
        <time>2020-06-03T09:04:15Z</time>
      </trkpt>
      <trkpt lat="46.41092" lon="-1.50975">
        <ele>20.5</ele>
        <time>2020-06-03T09:04:16Z</time>
      </trkpt>
      <trkpt lat="46.4109" lon="-1.50979">
        <ele>20.6</ele>
        <time>2020-06-03T09:04:17Z</time>
      </trkpt>
      <trkpt lat="46.41089" lon="-1.50985">
        <ele>20.7</ele>
        <time>2020-06-03T09:04:18Z</time>
      </trkpt>
      <trkpt lat="46.41089" lon="-1.50991">
        <ele>20.8</ele>
        <time>2020-06-03T09:04:19Z</time>
      </trkpt>
      <trkpt lat="46.41089" lon="-1.50997">
        <ele>21</ele>
        <time>2020-06-03T09:04:20Z</time>
      </trkpt>
      <trkpt lat="46.41089" lon="-1.51002">
        <ele>21.1</ele>
        <time>2020-06-03T09:04:21Z</time>
      </trkpt>
      <trkpt lat="46.41088" lon="-1.51007">
        <ele>21.2</ele>
        <time>2020-06-03T09:04:22Z</time>
      </trkpt>
      <trkpt lat="46.41089" lon="-1.51011">
        <ele>21.3</ele>
        <time>2020-06-03T09:04:23Z</time>
      </trkpt>
      <trkpt lat="46.41089" lon="-1.51015">
        <ele>21.4</ele>
        <time>2020-06-03T09:04:24Z</time>
      </trkpt>
      <trkpt lat="46.4109" lon="-1.51022">
        <ele>21.6</ele>
        <time>2020-06-03T09:04:25Z</time>
      </trkpt>
      <trkpt lat="46.4109" lon="-1.51024">
        <ele>21.6</ele>
        <time>2020-06-03T09:04:26Z</time>
      </trkpt>
      <trkpt lat="46.41091" lon="-1.51029">
        <ele>21.7</ele>
        <time>2020-06-03T09:04:27Z</time>
      </trkpt>
      <trkpt lat="46.41093" lon="-1.51032">
        <ele>21.8</ele>
        <time>2020-06-03T09:04:28Z</time>
      </trkpt>
      <trkpt lat="46.41094" lon="-1.51036">
        <ele>21.8</ele>
        <time>2020-06-03T09:04:29Z</time>
      </trkpt>
      <trkpt lat="46.41096" lon="-1.51039">
        <ele>21.9</ele>
        <time>2020-06-03T09:04:30Z</time>
      </trkpt>
      <trkpt lat="46.41098" lon="-1.51042">
        <ele>21.9</ele>
        <time>2020-06-03T09:04:31Z</time>
      </trkpt>
      <trkpt lat="46.41099" lon="-1.51043">
        <ele>21.9</ele>
        <time>2020-06-03T09:04:32Z</time>
      </trkpt>
      <trkpt lat="46.411" lon="-1.51044">
        <ele>21.9</ele>
        <time>2020-06-03T09:04:33Z</time>
      </trkpt>
      <trkpt lat="46.41101" lon="-1.51043">
        <ele>21.9</ele>
        <time>2020-06-03T09:04:34Z</time>
      </trkpt>
      <trkpt lat="46.41102" lon="-1.51043">
        <ele>21.9</ele>
        <time>2020-06-03T09:04:35Z</time>
      </trkpt>
      <trkpt lat="46.41104" lon="-1.51044">
        <ele>22</ele>
        <time>2020-06-03T09:04:36Z</time>
      </trkpt>
      <trkpt lat="46.41107" lon="-1.51045">
        <ele>22</ele>
        <time>2020-06-03T09:04:37Z</time>
      </trkpt>
      <trkpt lat="46.41108" lon="-1.51045">
        <ele>22</ele>
        <time>2020-06-03T09:04:38Z</time>
      </trkpt>
      <trkpt lat="46.41111" lon="-1.51047">
        <ele>22</ele>
        <time>2020-06-03T09:04:39Z</time>
      </trkpt>
      <trkpt lat="46.41115" lon="-1.51051">
        <ele>22</ele>
        <time>2020-06-03T09:04:40Z</time>
      </trkpt>
      <trkpt lat="46.41118" lon="-1.51056">
        <ele>22</ele>
        <time>2020-06-03T09:04:41Z</time>
      </trkpt>
      <trkpt lat="46.41122" lon="-1.51062">
        <ele>22</ele>
        <time>2020-06-03T09:04:42Z</time>
      </trkpt>
      <trkpt lat="46.41127" lon="-1.51068">
        <ele>22</ele>
        <time>2020-06-03T09:04:43Z</time>
      </trkpt>
      <trkpt lat="46.4113" lon="-1.51073">
        <ele>22.1</ele>
        <time>2020-06-03T09:04:44Z</time>
      </trkpt>
      <trkpt lat="46.41133" lon="-1.51079">
        <ele>22.1</ele>
        <time>2020-06-03T09:04:45Z</time>
      </trkpt>
      <trkpt lat="46.41136" lon="-1.51085">
        <ele>22.2</ele>
        <time>2020-06-03T09:04:46Z</time>
      </trkpt>
      <trkpt lat="46.41138" lon="-1.51092">
        <ele>22.2</ele>
        <time>2020-06-03T09:04:47Z</time>
      </trkpt>
      <trkpt lat="46.4114" lon="-1.51098">
        <ele>22.3</ele>
        <time>2020-06-03T09:04:48Z</time>
      </trkpt>
      <trkpt lat="46.41141" lon="-1.51105">
        <ele>22.3</ele>
        <time>2020-06-03T09:04:49Z</time>
      </trkpt>
      <trkpt lat="46.41144" lon="-1.51113">
        <ele>22.4</ele>
        <time>2020-06-03T09:04:50Z</time>
      </trkpt>
      <trkpt lat="46.41146" lon="-1.51121">
        <ele>22.4</ele>
        <time>2020-06-03T09:04:51Z</time>
      </trkpt>
      <trkpt lat="46.41149" lon="-1.51128">
        <ele>22.5</ele>
        <time>2020-06-03T09:04:52Z</time>
      </trkpt>
      <trkpt lat="46.41151" lon="-1.51134">
        <ele>22.5</ele>
        <time>2020-06-03T09:04:53Z</time>
      </trkpt>
      <trkpt lat="46.41153" lon="-1.51141">
        <ele>22.6</ele>
        <time>2020-06-03T09:04:54Z</time>
      </trkpt>
      <trkpt lat="46.41156" lon="-1.51148">
        <ele>22.7</ele>
        <time>2020-06-03T09:04:55Z</time>
      </trkpt>
      <trkpt lat="46.41158" lon="-1.51155">
        <ele>22.8</ele>
        <time>2020-06-03T09:04:56Z</time>
      </trkpt>
      <trkpt lat="46.41161" lon="-1.51162">
        <ele>22.9</ele>
        <time>2020-06-03T09:04:57Z</time>
      </trkpt>
      <trkpt lat="46.41163" lon="-1.51169">
        <ele>22.9</ele>
        <time>2020-06-03T09:04:58Z</time>
      </trkpt>
      <trkpt lat="46.41164" lon="-1.51175">
        <ele>23</ele>
        <time>2020-06-03T09:04:59Z</time>
      </trkpt>
      <trkpt lat="46.41166" lon="-1.5118">
        <ele>23.1</ele>
        <time>2020-06-03T09:05:00Z</time>
      </trkpt>
      <trkpt lat="46.41167" lon="-1.51186">
        <ele>23.2</ele>
        <time>2020-06-03T09:05:01Z</time>
      </trkpt>
      <trkpt lat="46.41169" lon="-1.51191">
        <ele>23.2</ele>
        <time>2020-06-03T09:05:02Z</time>
      </trkpt>
      <trkpt lat="46.41171" lon="-1.51196">
        <ele>23.3</ele>
        <time>2020-06-03T09:05:03Z</time>
      </trkpt>
      <trkpt lat="46.41173" lon="-1.51202">
        <ele>23.4</ele>
        <time>2020-06-03T09:05:04Z</time>
      </trkpt>
      <trkpt lat="46.41174" lon="-1.51208">
        <ele>23.4</ele>
        <time>2020-06-03T09:05:05Z</time>
      </trkpt>
      <trkpt lat="46.41176" lon="-1.51214">
        <ele>23.5</ele>
        <time>2020-06-03T09:05:06Z</time>
      </trkpt>
      <trkpt lat="46.41178" lon="-1.51219">
        <ele>23.5</ele>
        <time>2020-06-03T09:05:07Z</time>
      </trkpt>
      <trkpt lat="46.41181" lon="-1.51224">
        <ele>23.5</ele>
        <time>2020-06-03T09:05:08Z</time>
      </trkpt>
      <trkpt lat="46.41183" lon="-1.51228">
        <ele>23.5</ele>
        <time>2020-06-03T09:05:09Z</time>
      </trkpt>
      <trkpt lat="46.41185" lon="-1.51233">
        <ele>23.5</ele>
        <time>2020-06-03T09:05:10Z</time>
      </trkpt>
      <trkpt lat="46.41188" lon="-1.51238">
        <ele>23.4</ele>
        <time>2020-06-03T09:05:11Z</time>
      </trkpt>
      <trkpt lat="46.41191" lon="-1.51242">
        <ele>23.3</ele>
        <time>2020-06-03T09:05:12Z</time>
      </trkpt>
      <trkpt lat="46.41194" lon="-1.51247">
        <ele>23.2</ele>
        <time>2020-06-03T09:05:13Z</time>
      </trkpt>
      <trkpt lat="46.41197" lon="-1.51252">
        <ele>23.1</ele>
        <time>2020-06-03T09:05:14Z</time>
      </trkpt>
      <trkpt lat="46.41201" lon="-1.51257">
        <ele>23</ele>
        <time>2020-06-03T09:05:15Z</time>
      </trkpt>
      <trkpt lat="46.41204" lon="-1.51263">
        <ele>22.8</ele>
        <time>2020-06-03T09:05:16Z</time>
      </trkpt>
      <trkpt lat="46.41207" lon="-1.51268">
        <ele>22.7</ele>
        <time>2020-06-03T09:05:17Z</time>
      </trkpt>
      <trkpt lat="46.4121" lon="-1.51274">
        <ele>22.5</ele>
        <time>2020-06-03T09:05:18Z</time>
      </trkpt>
      <trkpt lat="46.41214" lon="-1.51279">
        <ele>22.2</ele>
        <time>2020-06-03T09:05:19Z</time>
      </trkpt>
      <trkpt lat="46.41218" lon="-1.51285">
        <ele>21.9</ele>
        <time>2020-06-03T09:05:20Z</time>
      </trkpt>
      <trkpt lat="46.41223" lon="-1.51291">
        <ele>21.5</ele>
        <time>2020-06-03T09:05:21Z</time>
      </trkpt>
      <trkpt lat="46.41227" lon="-1.51297">
        <ele>21.1</ele>
        <time>2020-06-03T09:05:22Z</time>
      </trkpt>
      <trkpt lat="46.4123" lon="-1.51303">
        <ele>20.8</ele>
        <time>2020-06-03T09:05:23Z</time>
      </trkpt>
      <trkpt lat="46.41234" lon="-1.5131">
        <ele>20.4</ele>
        <time>2020-06-03T09:05:24Z</time>
      </trkpt>
      <trkpt lat="46.41239" lon="-1.51319">
        <ele>20</ele>
        <time>2020-06-03T09:05:25Z</time>
      </trkpt>
      <trkpt lat="46.41244" lon="-1.51326">
        <ele>19.6</ele>
        <time>2020-06-03T09:05:26Z</time>
      </trkpt>
      <trkpt lat="46.41248" lon="-1.51332">
        <ele>19.4</ele>
        <time>2020-06-03T09:05:27Z</time>
      </trkpt>
      <trkpt lat="46.41251" lon="-1.5134">
        <ele>19.1</ele>
        <time>2020-06-03T09:05:28Z</time>
      </trkpt>
      <trkpt lat="46.41254" lon="-1.51346">
        <ele>18.9</ele>
        <time>2020-06-03T09:05:29Z</time>
      </trkpt>
      <trkpt lat="46.41258" lon="-1.51353">
        <ele>18.7</ele>
        <time>2020-06-03T09:05:30Z</time>
      </trkpt>
      <trkpt lat="46.4126" lon="-1.51359">
        <ele>18.6</ele>
        <time>2020-06-03T09:05:31Z</time>
      </trkpt>
      <trkpt lat="46.41263" lon="-1.51365">
        <ele>18.4</ele>
        <time>2020-06-03T09:05:32Z</time>
      </trkpt>
      <trkpt lat="46.41265" lon="-1.5137">
        <ele>18.3</ele>
        <time>2020-06-03T09:05:33Z</time>
      </trkpt>
      <trkpt lat="46.41268" lon="-1.51373">
        <ele>18.2</ele>
        <time>2020-06-03T09:05:34Z</time>
      </trkpt>
      <trkpt lat="46.4127" lon="-1.51375">
        <ele>18.1</ele>
        <time>2020-06-03T09:05:35Z</time>
      </trkpt>
      <trkpt lat="46.41273" lon="-1.51377">
        <ele>18</ele>
        <time>2020-06-03T09:05:36Z</time>
      </trkpt>
      <trkpt lat="46.41277" lon="-1.51378">
        <ele>17.8</ele>
        <time>2020-06-03T09:05:37Z</time>
      </trkpt>
      <trkpt lat="46.41281" lon="-1.51379">
        <ele>17.7</ele>
        <time>2020-06-03T09:05:38Z</time>
      </trkpt>
      <trkpt lat="46.41284" lon="-1.51381">
        <ele>17.6</ele>
        <time>2020-06-03T09:05:39Z</time>
      </trkpt>
      <trkpt lat="46.41287" lon="-1.51383">
        <ele>17.4</ele>
        <time>2020-06-03T09:05:40Z</time>
      </trkpt>
      <trkpt lat="46.41291" lon="-1.51386">
        <ele>17.3</ele>
        <time>2020-06-03T09:05:41Z</time>
      </trkpt>
      <trkpt lat="46.41294" lon="-1.5139">
        <ele>17.2</ele>
        <time>2020-06-03T09:05:42Z</time>
      </trkpt>
      <trkpt lat="46.41295" lon="-1.51394">
        <ele>16.9</ele>
        <time>2020-06-03T09:05:43Z</time>
      </trkpt>
      <trkpt lat="46.41297" lon="-1.51397">
        <ele>16.9</ele>
        <time>2020-06-03T09:05:44Z</time>
      </trkpt>
      <trkpt lat="46.41298" lon="-1.51401">
        <ele>16.9</ele>
        <time>2020-06-03T09:05:45Z</time>
      </trkpt>
      <trkpt lat="46.41298" lon="-1.51407">
        <ele>16.9</ele>
        <time>2020-06-03T09:05:46Z</time>
      </trkpt>
      <trkpt lat="46.41299" lon="-1.51409">
        <ele>16.9</ele>
        <time>2020-06-03T09:05:47Z</time>
      </trkpt>
      <trkpt lat="46.41298" lon="-1.51413">
        <ele>16.9</ele>
        <time>2020-06-03T09:05:48Z</time>
      </trkpt>
      <trkpt lat="46.41298" lon="-1.51415">
        <ele>16.9</ele>
        <time>2020-06-03T09:05:49Z</time>
      </trkpt>
      <trkpt lat="46.41299" lon="-1.51419">
        <ele>16.9</ele>
        <time>2020-06-03T09:05:50Z</time>
      </trkpt>
      <trkpt lat="46.41299" lon="-1.51421">
        <ele>16.8</ele>
        <time>2020-06-03T09:05:51Z</time>
      </trkpt>
      <trkpt lat="46.41299" lon="-1.51425">
        <ele>16.8</ele>
        <time>2020-06-03T09:05:52Z</time>
      </trkpt>
      <trkpt lat="46.41299" lon="-1.5143">
        <ele>16.8</ele>
        <time>2020-06-03T09:05:53Z</time>
      </trkpt>
      <trkpt lat="46.413" lon="-1.51435">
        <ele>16.8</ele>
        <time>2020-06-03T09:05:54Z</time>
      </trkpt>
      <trkpt lat="46.41301" lon="-1.51441">
        <ele>16.8</ele>
        <time>2020-06-03T09:05:55Z</time>
      </trkpt>
      <trkpt lat="46.41302" lon="-1.51448">
        <ele>16.8</ele>
        <time>2020-06-03T09:05:56Z</time>
      </trkpt>
      <trkpt lat="46.41303" lon="-1.51455">
        <ele>16.8</ele>
        <time>2020-06-03T09:05:57Z</time>
      </trkpt>
      <trkpt lat="46.41304" lon="-1.51462">
        <ele>16.7</ele>
        <time>2020-06-03T09:05:58Z</time>
      </trkpt>
      <trkpt lat="46.41305" lon="-1.51469">
        <ele>16.7</ele>
        <time>2020-06-03T09:05:59Z</time>
      </trkpt>
      <trkpt lat="46.41305" lon="-1.51475">
        <ele>16.6</ele>
        <time>2020-06-03T09:06:00Z</time>
      </trkpt>
      <trkpt lat="46.41307" lon="-1.5148">
        <ele>16.6</ele>
        <time>2020-06-03T09:06:01Z</time>
      </trkpt>
      <trkpt lat="46.41307" lon="-1.51485">
        <ele>16.5</ele>
        <time>2020-06-03T09:06:02Z</time>
      </trkpt>
      <trkpt lat="46.41308" lon="-1.51489">
        <ele>16.5</ele>
        <time>2020-06-03T09:06:03Z</time>
      </trkpt>
      <trkpt lat="46.41309" lon="-1.5149">
        <ele>16.5</ele>
        <time>2020-06-03T09:06:04Z</time>
      </trkpt>
      <trkpt lat="46.4131" lon="-1.51492">
        <ele>16.5</ele>
        <time>2020-06-03T09:06:05Z</time>
      </trkpt>
      <trkpt lat="46.41311" lon="-1.51493">
        <ele>16.4</ele>
        <time>2020-06-03T09:06:06Z</time>
      </trkpt>
      <trkpt lat="46.41315" lon="-1.51497">
        <ele>16.4</ele>
        <time>2020-06-03T09:06:07Z</time>
      </trkpt>
      <trkpt lat="46.41317" lon="-1.51499">
        <ele>16.3</ele>
        <time>2020-06-03T09:06:08Z</time>
      </trkpt>
      <trkpt lat="46.4132" lon="-1.51503">
        <ele>16.3</ele>
        <time>2020-06-03T09:06:09Z</time>
      </trkpt>
      <trkpt lat="46.41322" lon="-1.51507">
        <ele>16.2</ele>
        <time>2020-06-03T09:06:10Z</time>
      </trkpt>
      <trkpt lat="46.41324" lon="-1.51512">
        <ele>16.2</ele>
        <time>2020-06-03T09:06:11Z</time>
      </trkpt>
      <trkpt lat="46.41326" lon="-1.51517">
        <ele>16.2</ele>
        <time>2020-06-03T09:06:12Z</time>
      </trkpt>
      <trkpt lat="46.41328" lon="-1.51522">
        <ele>16.2</ele>
        <time>2020-06-03T09:06:13Z</time>
      </trkpt>
      <trkpt lat="46.4133" lon="-1.51527">
        <ele>16.1</ele>
        <time>2020-06-03T09:06:14Z</time>
      </trkpt>
      <trkpt lat="46.41332" lon="-1.51534">
        <ele>16</ele>
        <time>2020-06-03T09:06:15Z</time>
      </trkpt>
      <trkpt lat="46.41334" lon="-1.5154">
        <ele>16</ele>
        <time>2020-06-03T09:06:16Z</time>
      </trkpt>
      <trkpt lat="46.41336" lon="-1.51546">
        <ele>16</ele>
        <time>2020-06-03T09:06:17Z</time>
      </trkpt>
      <trkpt lat="46.41337" lon="-1.51552">
        <ele>16</ele>
        <time>2020-06-03T09:06:18Z</time>
      </trkpt>
      <trkpt lat="46.41338" lon="-1.51558">
        <ele>16</ele>
        <time>2020-06-03T09:06:19Z</time>
      </trkpt>
      <trkpt lat="46.41339" lon="-1.51564">
        <ele>16</ele>
        <time>2020-06-03T09:06:20Z</time>
      </trkpt>
      <trkpt lat="46.41341" lon="-1.51571">
        <ele>16</ele>
        <time>2020-06-03T09:06:21Z</time>
      </trkpt>
      <trkpt lat="46.41343" lon="-1.51578">
        <ele>16</ele>
        <time>2020-06-03T09:06:22Z</time>
      </trkpt>
      <trkpt lat="46.41344" lon="-1.51585">
        <ele>16</ele>
        <time>2020-06-03T09:06:23Z</time>
      </trkpt>
      <trkpt lat="46.41345" lon="-1.51592">
        <ele>16</ele>
        <time>2020-06-03T09:06:24Z</time>
      </trkpt>
      <trkpt lat="46.41346" lon="-1.51598">
        <ele>15.9</ele>
        <time>2020-06-03T09:06:25Z</time>
      </trkpt>
      <trkpt lat="46.41347" lon="-1.51606">
        <ele>15.9</ele>
        <time>2020-06-03T09:06:26Z</time>
      </trkpt>
      <trkpt lat="46.41348" lon="-1.51613">
        <ele>15.9</ele>
        <time>2020-06-03T09:06:27Z</time>
      </trkpt>
      <trkpt lat="46.41349" lon="-1.51619">
        <ele>15.9</ele>
        <time>2020-06-03T09:06:28Z</time>
      </trkpt>
      <trkpt lat="46.41351" lon="-1.51626">
        <ele>15.9</ele>
        <time>2020-06-03T09:06:29Z</time>
      </trkpt>
      <trkpt lat="46.41352" lon="-1.51634">
        <ele>15.9</ele>
        <time>2020-06-03T09:06:30Z</time>
      </trkpt>
      <trkpt lat="46.41353" lon="-1.51641">
        <ele>15.9</ele>
        <time>2020-06-03T09:06:31Z</time>
      </trkpt>
      <trkpt lat="46.41353" lon="-1.51649">
        <ele>15.9</ele>
        <time>2020-06-03T09:06:32Z</time>
      </trkpt>
      <trkpt lat="46.41354" lon="-1.51656">
        <ele>15.9</ele>
        <time>2020-06-03T09:06:33Z</time>
      </trkpt>
      <trkpt lat="46.41356" lon="-1.51663">
        <ele>15.9</ele>
        <time>2020-06-03T09:06:34Z</time>
      </trkpt>
      <trkpt lat="46.41357" lon="-1.51669">
        <ele>15.9</ele>
        <time>2020-06-03T09:06:35Z</time>
      </trkpt>
      <trkpt lat="46.41358" lon="-1.51676">
        <ele>15.9</ele>
        <time>2020-06-03T09:06:36Z</time>
      </trkpt>
      <trkpt lat="46.4136" lon="-1.51683">
        <ele>15.9</ele>
        <time>2020-06-03T09:06:37Z</time>
      </trkpt>
      <trkpt lat="46.41361" lon="-1.5169">
        <ele>15.9</ele>
        <time>2020-06-03T09:06:38Z</time>
      </trkpt>
      <trkpt lat="46.41363" lon="-1.51698">
        <ele>15.9</ele>
        <time>2020-06-03T09:06:39Z</time>
      </trkpt>
      <trkpt lat="46.41365" lon="-1.51705">
        <ele>15.9</ele>
        <time>2020-06-03T09:06:40Z</time>
      </trkpt>
      <trkpt lat="46.41366" lon="-1.51712">
        <ele>16</ele>
        <time>2020-06-03T09:06:41Z</time>
      </trkpt>
      <trkpt lat="46.41367" lon="-1.51719">
        <ele>16</ele>
        <time>2020-06-03T09:06:42Z</time>
      </trkpt>
      <trkpt lat="46.41368" lon="-1.51725">
        <ele>15.9</ele>
        <time>2020-06-03T09:06:43Z</time>
      </trkpt>
      <trkpt lat="46.41369" lon="-1.5173">
        <ele>15.9</ele>
        <time>2020-06-03T09:06:44Z</time>
      </trkpt>
      <trkpt lat="46.4137" lon="-1.51735">
        <ele>15.9</ele>
        <time>2020-06-03T09:06:45Z</time>
      </trkpt>
      <trkpt lat="46.41371" lon="-1.51741">
        <ele>15.9</ele>
        <time>2020-06-03T09:06:46Z</time>
      </trkpt>
      <trkpt lat="46.41372" lon="-1.51747">
        <ele>15.8</ele>
        <time>2020-06-03T09:06:47Z</time>
      </trkpt>
      <trkpt lat="46.41372" lon="-1.51754">
        <ele>15.8</ele>
        <time>2020-06-03T09:06:48Z</time>
      </trkpt>
      <trkpt lat="46.41373" lon="-1.51761">
        <ele>15.7</ele>
        <time>2020-06-03T09:06:49Z</time>
      </trkpt>
      <trkpt lat="46.41374" lon="-1.51767">
        <ele>15.6</ele>
        <time>2020-06-03T09:06:50Z</time>
      </trkpt>
      <trkpt lat="46.41375" lon="-1.51774">
        <ele>15.6</ele>
        <time>2020-06-03T09:06:51Z</time>
      </trkpt>
      <trkpt lat="46.41376" lon="-1.51782">
        <ele>15.5</ele>
        <time>2020-06-03T09:06:52Z</time>
      </trkpt>
      <trkpt lat="46.41376" lon="-1.5179">
        <ele>15.5</ele>
        <time>2020-06-03T09:06:53Z</time>
      </trkpt>
      <trkpt lat="46.41376" lon="-1.51799">
        <ele>15.4</ele>
        <time>2020-06-03T09:06:54Z</time>
      </trkpt>
      <trkpt lat="46.41376" lon="-1.51807">
        <ele>15.3</ele>
        <time>2020-06-03T09:06:55Z</time>
      </trkpt>
      <trkpt lat="46.41375" lon="-1.51816">
        <ele>15.3</ele>
        <time>2020-06-03T09:06:56Z</time>
      </trkpt>
      <trkpt lat="46.41375" lon="-1.51824">
        <ele>15.2</ele>
        <time>2020-06-03T09:06:57Z</time>
      </trkpt>
      <trkpt lat="46.41375" lon="-1.51833">
        <ele>15.2</ele>
        <time>2020-06-03T09:06:58Z</time>
      </trkpt>
      <trkpt lat="46.41374" lon="-1.51841">
        <ele>15.2</ele>
        <time>2020-06-03T09:06:59Z</time>
      </trkpt>
      <trkpt lat="46.41373" lon="-1.51849">
        <ele>15.1</ele>
        <time>2020-06-03T09:07:00Z</time>
      </trkpt>
      <trkpt lat="46.41372" lon="-1.51858">
        <ele>15.1</ele>
        <time>2020-06-03T09:07:01Z</time>
      </trkpt>
      <trkpt lat="46.41371" lon="-1.51867">
        <ele>15</ele>
        <time>2020-06-03T09:07:02Z</time>
      </trkpt>
      <trkpt lat="46.4137" lon="-1.51877">
        <ele>14.9</ele>
        <time>2020-06-03T09:07:03Z</time>
      </trkpt>
      <trkpt lat="46.41369" lon="-1.51887">
        <ele>14.8</ele>
        <time>2020-06-03T09:07:04Z</time>
      </trkpt>
      <trkpt lat="46.41368" lon="-1.51896">
        <ele>14.7</ele>
        <time>2020-06-03T09:07:05Z</time>
      </trkpt>
      <trkpt lat="46.41366" lon="-1.51905">
        <ele>14.7</ele>
        <time>2020-06-03T09:07:06Z</time>
      </trkpt>
      <trkpt lat="46.41366" lon="-1.51914">
        <ele>14.6</ele>
        <time>2020-06-03T09:07:07Z</time>
      </trkpt>
      <trkpt lat="46.41366" lon="-1.51923">
        <ele>14.5</ele>
        <time>2020-06-03T09:07:08Z</time>
      </trkpt>
      <trkpt lat="46.41366" lon="-1.51932">
        <ele>14.4</ele>
        <time>2020-06-03T09:07:09Z</time>
      </trkpt>
      <trkpt lat="46.41365" lon="-1.51941">
        <ele>14.4</ele>
        <time>2020-06-03T09:07:10Z</time>
      </trkpt>
      <trkpt lat="46.41364" lon="-1.51951">
        <ele>14.3</ele>
        <time>2020-06-03T09:07:11Z</time>
      </trkpt>
      <trkpt lat="46.41362" lon="-1.51961">
        <ele>14.3</ele>
        <time>2020-06-03T09:07:12Z</time>
      </trkpt>
      <trkpt lat="46.4136" lon="-1.51971">
        <ele>14.3</ele>
        <time>2020-06-03T09:07:13Z</time>
      </trkpt>
      <trkpt lat="46.41358" lon="-1.5198">
        <ele>14.2</ele>
        <time>2020-06-03T09:07:14Z</time>
      </trkpt>
      <trkpt lat="46.41357" lon="-1.51989">
        <ele>14.2</ele>
        <time>2020-06-03T09:07:15Z</time>
      </trkpt>
      <trkpt lat="46.41357" lon="-1.51999">
        <ele>14.2</ele>
        <time>2020-06-03T09:07:16Z</time>
      </trkpt>
      <trkpt lat="46.41357" lon="-1.52005">
        <ele>14.2</ele>
        <time>2020-06-03T09:07:17Z</time>
      </trkpt>
      <trkpt lat="46.41355" lon="-1.52011">
        <ele>14.1</ele>
        <time>2020-06-03T09:07:18Z</time>
      </trkpt>
      <trkpt lat="46.41354" lon="-1.52019">
        <ele>14.1</ele>
        <time>2020-06-03T09:07:19Z</time>
      </trkpt>
      <trkpt lat="46.41353" lon="-1.52026">
        <ele>14</ele>
        <time>2020-06-03T09:07:20Z</time>
      </trkpt>
      <trkpt lat="46.41351" lon="-1.52038">
        <ele>14</ele>
        <time>2020-06-03T09:07:21Z</time>
      </trkpt>
      <trkpt lat="46.4135" lon="-1.52048">
        <ele>14</ele>
        <time>2020-06-03T09:07:22Z</time>
      </trkpt>
      <trkpt lat="46.41349" lon="-1.52056">
        <ele>13.9</ele>
        <time>2020-06-03T09:07:23Z</time>
      </trkpt>
      <trkpt lat="46.41348" lon="-1.52065">
        <ele>13.9</ele>
        <time>2020-06-03T09:07:24Z</time>
      </trkpt>
      <trkpt lat="46.41347" lon="-1.52074">
        <ele>13.8</ele>
        <time>2020-06-03T09:07:25Z</time>
      </trkpt>
      <trkpt lat="46.41345" lon="-1.52083">
        <ele>13.8</ele>
        <time>2020-06-03T09:07:26Z</time>
      </trkpt>
      <trkpt lat="46.41344" lon="-1.52092">
        <ele>13.7</ele>
        <time>2020-06-03T09:07:27Z</time>
      </trkpt>
      <trkpt lat="46.41343" lon="-1.52101">
        <ele>13.7</ele>
        <time>2020-06-03T09:07:28Z</time>
      </trkpt>
      <trkpt lat="46.41342" lon="-1.52111">
        <ele>13.6</ele>
        <time>2020-06-03T09:07:29Z</time>
      </trkpt>
      <trkpt lat="46.41342" lon="-1.5212">
        <ele>13.6</ele>
        <time>2020-06-03T09:07:30Z</time>
      </trkpt>
      <trkpt lat="46.41341" lon="-1.52128">
        <ele>13.5</ele>
        <time>2020-06-03T09:07:31Z</time>
      </trkpt>
      <trkpt lat="46.4134" lon="-1.52136">
        <ele>13.4</ele>
        <time>2020-06-03T09:07:32Z</time>
      </trkpt>
      <trkpt lat="46.41339" lon="-1.52145">
        <ele>13.2</ele>
        <time>2020-06-03T09:07:33Z</time>
      </trkpt>
      <trkpt lat="46.41338" lon="-1.52154">
        <ele>13.1</ele>
        <time>2020-06-03T09:07:34Z</time>
      </trkpt>
      <trkpt lat="46.41337" lon="-1.52164">
        <ele>12.9</ele>
        <time>2020-06-03T09:07:35Z</time>
      </trkpt>
      <trkpt lat="46.41336" lon="-1.52174">
        <ele>12.8</ele>
        <time>2020-06-03T09:07:36Z</time>
      </trkpt>
      <trkpt lat="46.41335" lon="-1.52183">
        <ele>12.7</ele>
        <time>2020-06-03T09:07:37Z</time>
      </trkpt>
      <trkpt lat="46.41334" lon="-1.52193">
        <ele>12.6</ele>
        <time>2020-06-03T09:07:38Z</time>
      </trkpt>
      <trkpt lat="46.41333" lon="-1.52201">
        <ele>12.6</ele>
        <time>2020-06-03T09:07:39Z</time>
      </trkpt>
      <trkpt lat="46.41333" lon="-1.5221">
        <ele>12.5</ele>
        <time>2020-06-03T09:07:40Z</time>
      </trkpt>
      <trkpt lat="46.41332" lon="-1.52218">
        <ele>12.4</ele>
        <time>2020-06-03T09:07:41Z</time>
      </trkpt>
      <trkpt lat="46.41331" lon="-1.52227">
        <ele>12.4</ele>
        <time>2020-06-03T09:07:42Z</time>
      </trkpt>
      <trkpt lat="46.4133" lon="-1.52234">
        <ele>12.3</ele>
        <time>2020-06-03T09:07:43Z</time>
      </trkpt>
      <trkpt lat="46.4133" lon="-1.52243">
        <ele>12.2</ele>
        <time>2020-06-03T09:07:44Z</time>
      </trkpt>
      <trkpt lat="46.4133" lon="-1.52251">
        <ele>12</ele>
        <time>2020-06-03T09:07:45Z</time>
      </trkpt>
      <trkpt lat="46.4133" lon="-1.5226">
        <ele>11.9</ele>
        <time>2020-06-03T09:07:46Z</time>
      </trkpt>
      <trkpt lat="46.41329" lon="-1.52269">
        <ele>11.6</ele>
        <time>2020-06-03T09:07:47Z</time>
      </trkpt>
      <trkpt lat="46.41328" lon="-1.52279">
        <ele>11.4</ele>
        <time>2020-06-03T09:07:48Z</time>
      </trkpt>
      <trkpt lat="46.41327" lon="-1.5229">
        <ele>11.1</ele>
        <time>2020-06-03T09:07:49Z</time>
      </trkpt>
      <trkpt lat="46.41327" lon="-1.52299">
        <ele>10.9</ele>
        <time>2020-06-03T09:07:50Z</time>
      </trkpt>
      <trkpt lat="46.41326" lon="-1.52309">
        <ele>10.7</ele>
        <time>2020-06-03T09:07:51Z</time>
      </trkpt>
      <trkpt lat="46.41325" lon="-1.52318">
        <ele>10.5</ele>
        <time>2020-06-03T09:07:52Z</time>
      </trkpt>
      <trkpt lat="46.41324" lon="-1.52327">
        <ele>10.4</ele>
        <time>2020-06-03T09:07:53Z</time>
      </trkpt>
      <trkpt lat="46.41322" lon="-1.52336">
        <ele>10.3</ele>
        <time>2020-06-03T09:07:54Z</time>
      </trkpt>
      <trkpt lat="46.41321" lon="-1.52346">
        <ele>10.2</ele>
        <time>2020-06-03T09:07:55Z</time>
      </trkpt>
      <trkpt lat="46.41319" lon="-1.52357">
        <ele>10.2</ele>
        <time>2020-06-03T09:07:56Z</time>
      </trkpt>
      <trkpt lat="46.41318" lon="-1.52368">
        <ele>10.2</ele>
        <time>2020-06-03T09:07:57Z</time>
      </trkpt>
      <trkpt lat="46.41317" lon="-1.52378">
        <ele>10.3</ele>
        <time>2020-06-03T09:07:58Z</time>
      </trkpt>
      <trkpt lat="46.41315" lon="-1.52387">
        <ele>10.5</ele>
        <time>2020-06-03T09:07:59Z</time>
      </trkpt>
      <trkpt lat="46.41314" lon="-1.52395">
        <ele>10.6</ele>
        <time>2020-06-03T09:08:00Z</time>
      </trkpt>
      <trkpt lat="46.41313" lon="-1.52403">
        <ele>10.8</ele>
        <time>2020-06-03T09:08:01Z</time>
      </trkpt>
      <trkpt lat="46.41311" lon="-1.5241">
        <ele>10.9</ele>
        <time>2020-06-03T09:08:02Z</time>
      </trkpt>
      <trkpt lat="46.4131" lon="-1.52418">
        <ele>11</ele>
        <time>2020-06-03T09:08:03Z</time>
      </trkpt>
      <trkpt lat="46.41309" lon="-1.52426">
        <ele>11.1</ele>
        <time>2020-06-03T09:08:04Z</time>
      </trkpt>
      <trkpt lat="46.41307" lon="-1.52434">
        <ele>11.2</ele>
        <time>2020-06-03T09:08:05Z</time>
      </trkpt>
      <trkpt lat="46.41306" lon="-1.52442">
        <ele>11.2</ele>
        <time>2020-06-03T09:08:06Z</time>
      </trkpt>
      <trkpt lat="46.41305" lon="-1.52449">
        <ele>11.2</ele>
        <time>2020-06-03T09:08:07Z</time>
      </trkpt>
      <trkpt lat="46.41305" lon="-1.52457">
        <ele>11.3</ele>
        <time>2020-06-03T09:08:08Z</time>
      </trkpt>
      <trkpt lat="46.41304" lon="-1.52464">
        <ele>11.4</ele>
        <time>2020-06-03T09:08:09Z</time>
      </trkpt>
      <trkpt lat="46.41305" lon="-1.52472">
        <ele>11.5</ele>
        <time>2020-06-03T09:08:10Z</time>
      </trkpt>
      <trkpt lat="46.41305" lon="-1.5248">
        <ele>11.6</ele>
        <time>2020-06-03T09:08:11Z</time>
      </trkpt>
      <trkpt lat="46.41306" lon="-1.52489">
        <ele>11.7</ele>
        <time>2020-06-03T09:08:12Z</time>
      </trkpt>
      <trkpt lat="46.41306" lon="-1.52496">
        <ele>11.8</ele>
        <time>2020-06-03T09:08:13Z</time>
      </trkpt>
      <trkpt lat="46.41306" lon="-1.52504">
        <ele>11.9</ele>
        <time>2020-06-03T09:08:14Z</time>
      </trkpt>
      <trkpt lat="46.41306" lon="-1.52512">
        <ele>12</ele>
        <time>2020-06-03T09:08:15Z</time>
      </trkpt>
      <trkpt lat="46.41306" lon="-1.52521">
        <ele>12</ele>
        <time>2020-06-03T09:08:16Z</time>
      </trkpt>
      <trkpt lat="46.41306" lon="-1.52529">
        <ele>12.1</ele>
        <time>2020-06-03T09:08:17Z</time>
      </trkpt>
      <trkpt lat="46.41306" lon="-1.52537">
        <ele>12.1</ele>
        <time>2020-06-03T09:08:18Z</time>
      </trkpt>
      <trkpt lat="46.41306" lon="-1.52545">
        <ele>12.2</ele>
        <time>2020-06-03T09:08:19Z</time>
      </trkpt>
      <trkpt lat="46.41306" lon="-1.52553">
        <ele>12.2</ele>
        <time>2020-06-03T09:08:20Z</time>
      </trkpt>
      <trkpt lat="46.41307" lon="-1.52562">
        <ele>12.2</ele>
        <time>2020-06-03T09:08:21Z</time>
      </trkpt>
      <trkpt lat="46.41307" lon="-1.5257">
        <ele>12.3</ele>
        <time>2020-06-03T09:08:22Z</time>
      </trkpt>
      <trkpt lat="46.41307" lon="-1.52578">
        <ele>12.3</ele>
        <time>2020-06-03T09:08:23Z</time>
      </trkpt>
      <trkpt lat="46.41307" lon="-1.52586">
        <ele>12.3</ele>
        <time>2020-06-03T09:08:24Z</time>
      </trkpt>
      <trkpt lat="46.41306" lon="-1.52596">
        <ele>12.5</ele>
        <time>2020-06-03T09:08:25Z</time>
      </trkpt>
      <trkpt lat="46.41306" lon="-1.52605">
        <ele>12.5</ele>
        <time>2020-06-03T09:08:26Z</time>
      </trkpt>
      <trkpt lat="46.41304" lon="-1.52613">
        <ele>12.6</ele>
        <time>2020-06-03T09:08:27Z</time>
      </trkpt>
      <trkpt lat="46.41302" lon="-1.5262">
        <ele>12.6</ele>
        <time>2020-06-03T09:08:28Z</time>
      </trkpt>
      <trkpt lat="46.41299" lon="-1.52628">
        <ele>12.7</ele>
        <time>2020-06-03T09:08:29Z</time>
      </trkpt>
      <trkpt lat="46.41296" lon="-1.52634">
        <ele>12.7</ele>
        <time>2020-06-03T09:08:30Z</time>
      </trkpt>
      <trkpt lat="46.41293" lon="-1.52642">
        <ele>12.8</ele>
        <time>2020-06-03T09:08:31Z</time>
      </trkpt>
      <trkpt lat="46.4129" lon="-1.5265">
        <ele>12.8</ele>
        <time>2020-06-03T09:08:32Z</time>
      </trkpt>
      <trkpt lat="46.41287" lon="-1.52659">
        <ele>12.8</ele>
        <time>2020-06-03T09:08:33Z</time>
      </trkpt>
      <trkpt lat="46.41284" lon="-1.52669">
        <ele>12.9</ele>
        <time>2020-06-03T09:08:34Z</time>
      </trkpt>
      <trkpt lat="46.41282" lon="-1.52679">
        <ele>12.9</ele>
        <time>2020-06-03T09:08:35Z</time>
      </trkpt>
      <trkpt lat="46.4128" lon="-1.52686">
        <ele>12.9</ele>
        <time>2020-06-03T09:08:36Z</time>
      </trkpt>
      <trkpt lat="46.41277" lon="-1.52692">
        <ele>13</ele>
        <time>2020-06-03T09:08:37Z</time>
      </trkpt>
      <trkpt lat="46.41276" lon="-1.52697">
        <ele>13</ele>
        <time>2020-06-03T09:08:38Z</time>
      </trkpt>
      <trkpt lat="46.41274" lon="-1.52704">
        <ele>13</ele>
        <time>2020-06-03T09:08:39Z</time>
      </trkpt>
      <trkpt lat="46.41271" lon="-1.52711">
        <ele>13</ele>
        <time>2020-06-03T09:08:40Z</time>
      </trkpt>
      <trkpt lat="46.41269" lon="-1.52717">
        <ele>13.1</ele>
        <time>2020-06-03T09:08:41Z</time>
      </trkpt>
      <trkpt lat="46.41267" lon="-1.52724">
        <ele>13.1</ele>
        <time>2020-06-03T09:08:42Z</time>
      </trkpt>
      <trkpt lat="46.41264" lon="-1.52732">
        <ele>13.1</ele>
        <time>2020-06-03T09:08:43Z</time>
      </trkpt>
      <trkpt lat="46.41262" lon="-1.52739">
        <ele>13.1</ele>
        <time>2020-06-03T09:08:44Z</time>
      </trkpt>
      <trkpt lat="46.4126" lon="-1.52747">
        <ele>13.1</ele>
        <time>2020-06-03T09:08:45Z</time>
      </trkpt>
      <trkpt lat="46.41259" lon="-1.52757">
        <ele>13.1</ele>
        <time>2020-06-03T09:08:46Z</time>
      </trkpt>
      <trkpt lat="46.41259" lon="-1.52765">
        <ele>13.1</ele>
        <time>2020-06-03T09:08:47Z</time>
      </trkpt>
      <trkpt lat="46.41259" lon="-1.52771">
        <ele>13.1</ele>
        <time>2020-06-03T09:08:48Z</time>
      </trkpt>
      <trkpt lat="46.41259" lon="-1.52778">
        <ele>13.1</ele>
        <time>2020-06-03T09:08:49Z</time>
      </trkpt>
      <trkpt lat="46.4126" lon="-1.52785">
        <ele>13.1</ele>
        <time>2020-06-03T09:08:50Z</time>
      </trkpt>
      <trkpt lat="46.41259" lon="-1.52793">
        <ele>13.1</ele>
        <time>2020-06-03T09:08:51Z</time>
      </trkpt>
      <trkpt lat="46.41259" lon="-1.52802">
        <ele>13.1</ele>
        <time>2020-06-03T09:08:52Z</time>
      </trkpt>
      <trkpt lat="46.41259" lon="-1.52809">
        <ele>13.1</ele>
        <time>2020-06-03T09:08:53Z</time>
      </trkpt>
      <trkpt lat="46.41258" lon="-1.52816">
        <ele>13</ele>
        <time>2020-06-03T09:08:54Z</time>
      </trkpt>
      <trkpt lat="46.41257" lon="-1.52824">
        <ele>13</ele>
        <time>2020-06-03T09:08:55Z</time>
      </trkpt>
      <trkpt lat="46.41257" lon="-1.52831">
        <ele>13</ele>
        <time>2020-06-03T09:08:56Z</time>
      </trkpt>
      <trkpt lat="46.41257" lon="-1.52839">
        <ele>13</ele>
        <time>2020-06-03T09:08:57Z</time>
      </trkpt>
      <trkpt lat="46.41257" lon="-1.52848">
        <ele>13</ele>
        <time>2020-06-03T09:08:58Z</time>
      </trkpt>
      <trkpt lat="46.41257" lon="-1.52857">
        <ele>13</ele>
        <time>2020-06-03T09:08:59Z</time>
      </trkpt>
      <trkpt lat="46.41257" lon="-1.52866">
        <ele>13</ele>
        <time>2020-06-03T09:09:00Z</time>
      </trkpt>
      <trkpt lat="46.41256" lon="-1.52876">
        <ele>13</ele>
        <time>2020-06-03T09:09:01Z</time>
      </trkpt>
      <trkpt lat="46.41256" lon="-1.52884">
        <ele>13</ele>
        <time>2020-06-03T09:09:02Z</time>
      </trkpt>
      <trkpt lat="46.41255" lon="-1.52893">
        <ele>13</ele>
        <time>2020-06-03T09:09:03Z</time>
      </trkpt>
      <trkpt lat="46.41254" lon="-1.52903">
        <ele>13</ele>
        <time>2020-06-03T09:09:04Z</time>
      </trkpt>
      <trkpt lat="46.41254" lon="-1.52913">
        <ele>13</ele>
        <time>2020-06-03T09:09:05Z</time>
      </trkpt>
      <trkpt lat="46.41253" lon="-1.52921">
        <ele>13</ele>
        <time>2020-06-03T09:09:06Z</time>
      </trkpt>
      <trkpt lat="46.41252" lon="-1.5293">
        <ele>13</ele>
        <time>2020-06-03T09:09:07Z</time>
      </trkpt>
      <trkpt lat="46.41252" lon="-1.52939">
        <ele>13</ele>
        <time>2020-06-03T09:09:08Z</time>
      </trkpt>
      <trkpt lat="46.41252" lon="-1.52948">
        <ele>13</ele>
        <time>2020-06-03T09:09:09Z</time>
      </trkpt>
      <trkpt lat="46.41251" lon="-1.52957">
        <ele>13</ele>
        <time>2020-06-03T09:09:10Z</time>
      </trkpt>
      <trkpt lat="46.41251" lon="-1.52965">
        <ele>13</ele>
        <time>2020-06-03T09:09:11Z</time>
      </trkpt>
      <trkpt lat="46.4125" lon="-1.52974">
        <ele>13</ele>
        <time>2020-06-03T09:09:12Z</time>
      </trkpt>
      <trkpt lat="46.4125" lon="-1.52982">
        <ele>12.9</ele>
        <time>2020-06-03T09:09:13Z</time>
      </trkpt>
      <trkpt lat="46.4125" lon="-1.52991">
        <ele>12.9</ele>
        <time>2020-06-03T09:09:14Z</time>
      </trkpt>
      <trkpt lat="46.41249" lon="-1.52999">
        <ele>12.9</ele>
        <time>2020-06-03T09:09:15Z</time>
      </trkpt>
      <trkpt lat="46.41249" lon="-1.53005">
        <ele>12.9</ele>
        <time>2020-06-03T09:09:16Z</time>
      </trkpt>
      <trkpt lat="46.41249" lon="-1.53013">
        <ele>12.8</ele>
        <time>2020-06-03T09:09:17Z</time>
      </trkpt>
      <trkpt lat="46.4125" lon="-1.53018">
        <ele>12.8</ele>
        <time>2020-06-03T09:09:18Z</time>
      </trkpt>
      <trkpt lat="46.4125" lon="-1.53023">
        <ele>12.8</ele>
        <time>2020-06-03T09:09:19Z</time>
      </trkpt>
      <trkpt lat="46.41251" lon="-1.53028">
        <ele>12.8</ele>
        <time>2020-06-03T09:09:20Z</time>
      </trkpt>
      <trkpt lat="46.41251" lon="-1.5303">
        <ele>12.8</ele>
        <time>2020-06-03T09:09:21Z</time>
      </trkpt>
      <trkpt lat="46.41251" lon="-1.53035">
        <ele>12.8</ele>
        <time>2020-06-03T09:09:22Z</time>
      </trkpt>
      <trkpt lat="46.41251" lon="-1.5304">
        <ele>12.8</ele>
        <time>2020-06-03T09:09:23Z</time>
      </trkpt>
      <trkpt lat="46.41251" lon="-1.53045">
        <ele>12.8</ele>
        <time>2020-06-03T09:09:24Z</time>
      </trkpt>
      <trkpt lat="46.41251" lon="-1.53051">
        <ele>12.8</ele>
        <time>2020-06-03T09:09:25Z</time>
      </trkpt>
      <trkpt lat="46.41251" lon="-1.53058">
        <ele>12.8</ele>
        <time>2020-06-03T09:09:26Z</time>
      </trkpt>
      <trkpt lat="46.41251" lon="-1.53064">
        <ele>12.8</ele>
        <time>2020-06-03T09:09:27Z</time>
      </trkpt>
      <trkpt lat="46.4125" lon="-1.53072">
        <ele>12.8</ele>
        <time>2020-06-03T09:09:28Z</time>
      </trkpt>
      <trkpt lat="46.41249" lon="-1.5308">
        <ele>12.7</ele>
        <time>2020-06-03T09:09:29Z</time>
      </trkpt>
      <trkpt lat="46.41249" lon="-1.53087">
        <ele>12.7</ele>
        <time>2020-06-03T09:09:30Z</time>
      </trkpt>
      <trkpt lat="46.41248" lon="-1.53095">
        <ele>12.6</ele>
        <time>2020-06-03T09:09:31Z</time>
      </trkpt>
      <trkpt lat="46.41247" lon="-1.53103">
        <ele>12.6</ele>
        <time>2020-06-03T09:09:32Z</time>
      </trkpt>
      <trkpt lat="46.41246" lon="-1.5311">
        <ele>12.5</ele>
        <time>2020-06-03T09:09:33Z</time>
      </trkpt>
      <trkpt lat="46.41245" lon="-1.53117">
        <ele>12.4</ele>
        <time>2020-06-03T09:09:34Z</time>
      </trkpt>
      <trkpt lat="46.41245" lon="-1.53124">
        <ele>12.4</ele>
        <time>2020-06-03T09:09:35Z</time>
      </trkpt>
      <trkpt lat="46.41245" lon="-1.53131">
        <ele>12.3</ele>
        <time>2020-06-03T09:09:36Z</time>
      </trkpt>
      <trkpt lat="46.41245" lon="-1.53138">
        <ele>12.2</ele>
        <time>2020-06-03T09:09:37Z</time>
      </trkpt>
      <trkpt lat="46.41245" lon="-1.53145">
        <ele>12.1</ele>
        <time>2020-06-03T09:09:38Z</time>
      </trkpt>
      <trkpt lat="46.41245" lon="-1.53153">
        <ele>12</ele>
        <time>2020-06-03T09:09:39Z</time>
      </trkpt>
      <trkpt lat="46.41246" lon="-1.53161">
        <ele>11.9</ele>
        <time>2020-06-03T09:09:40Z</time>
      </trkpt>
      <trkpt lat="46.41246" lon="-1.53168">
        <ele>11.8</ele>
        <time>2020-06-03T09:09:41Z</time>
      </trkpt>
      <trkpt lat="46.41245" lon="-1.53176">
        <ele>11.6</ele>
        <time>2020-06-03T09:09:42Z</time>
      </trkpt>
      <trkpt lat="46.41245" lon="-1.53183">
        <ele>11.5</ele>
        <time>2020-06-03T09:09:43Z</time>
      </trkpt>
      <trkpt lat="46.41244" lon="-1.53191">
        <ele>11.4</ele>
        <time>2020-06-03T09:09:44Z</time>
      </trkpt>
      <trkpt lat="46.41243" lon="-1.53198">
        <ele>11.3</ele>
        <time>2020-06-03T09:09:45Z</time>
      </trkpt>
      <trkpt lat="46.41242" lon="-1.53205">
        <ele>11.2</ele>
        <time>2020-06-03T09:09:46Z</time>
      </trkpt>
      <trkpt lat="46.41241" lon="-1.53211">
        <ele>11.2</ele>
        <time>2020-06-03T09:09:47Z</time>
      </trkpt>
      <trkpt lat="46.41241" lon="-1.53215">
        <ele>11.2</ele>
        <time>2020-06-03T09:09:48Z</time>
      </trkpt>
      <trkpt lat="46.41241" lon="-1.5322">
        <ele>11.1</ele>
        <time>2020-06-03T09:09:49Z</time>
      </trkpt>
      <trkpt lat="46.41242" lon="-1.53225">
        <ele>11.1</ele>
        <time>2020-06-03T09:09:50Z</time>
      </trkpt>
      <trkpt lat="46.41242" lon="-1.5323">
        <ele>11</ele>
        <time>2020-06-03T09:09:51Z</time>
      </trkpt>
      <trkpt lat="46.41241" lon="-1.53236">
        <ele>11</ele>
        <time>2020-06-03T09:09:52Z</time>
      </trkpt>
      <trkpt lat="46.4124" lon="-1.53237">
        <ele>11</ele>
        <time>2020-06-03T09:09:53Z</time>
      </trkpt>
      <trkpt lat="46.41238" lon="-1.53243">
        <ele>11</ele>
        <time>2020-06-03T09:09:54Z</time>
      </trkpt>
      <trkpt lat="46.41238" lon="-1.53245">
        <ele>10.9</ele>
        <time>2020-06-03T09:09:55Z</time>
      </trkpt>
      <trkpt lat="46.41237" lon="-1.53248">
        <ele>10.9</ele>
        <time>2020-06-03T09:09:56Z</time>
      </trkpt>
      <trkpt lat="46.41235" lon="-1.53254">
        <ele>10.9</ele>
        <time>2020-06-03T09:09:57Z</time>
      </trkpt>
      <trkpt lat="46.41234" lon="-1.53256">
        <ele>10.9</ele>
        <time>2020-06-03T09:09:58Z</time>
      </trkpt>
      <trkpt lat="46.41233" lon="-1.5326">
        <ele>10.8</ele>
        <time>2020-06-03T09:09:59Z</time>
      </trkpt>
      <trkpt lat="46.41231" lon="-1.53264">
        <ele>10.8</ele>
        <time>2020-06-03T09:10:00Z</time>
      </trkpt>
      <trkpt lat="46.4123" lon="-1.53266">
        <ele>10.8</ele>
        <time>2020-06-03T09:10:01Z</time>
      </trkpt>
      <trkpt lat="46.41229" lon="-1.53267">
        <ele>10.8</ele>
        <time>2020-06-03T09:10:02Z</time>
      </trkpt>
      <trkpt lat="46.41228" lon="-1.53267">
        <ele>10.8</ele>
        <time>2020-06-03T09:10:03Z</time>
      </trkpt>
      <trkpt lat="46.41227" lon="-1.53263">
        <ele>10.8</ele>
        <time>2020-06-03T09:10:04Z</time>
      </trkpt>
      <trkpt lat="46.41226" lon="-1.53262">
        <ele>10.8</ele>
        <time>2020-06-03T09:10:05Z</time>
      </trkpt>
      <trkpt lat="46.41227" lon="-1.53258">
        <ele>10.9</ele>
        <time>2020-06-03T09:10:06Z</time>
      </trkpt>
      <trkpt lat="46.41227" lon="-1.53256">
        <ele>10.9</ele>
        <time>2020-06-03T09:10:07Z</time>
      </trkpt>
      <trkpt lat="46.41229" lon="-1.53251">
        <ele>10.9</ele>
        <time>2020-06-03T09:10:08Z</time>
      </trkpt>
      <trkpt lat="46.41229" lon="-1.5325">
        <ele>10.9</ele>
        <time>2020-06-03T09:10:09Z</time>
      </trkpt>
      <trkpt lat="46.41231" lon="-1.53246">
        <ele>10.9</ele>
        <time>2020-06-03T09:10:10Z</time>
      </trkpt>
      <trkpt lat="46.41233" lon="-1.53241">
        <ele>11</ele>
        <time>2020-06-03T09:10:11Z</time>
      </trkpt>
      <trkpt lat="46.41234" lon="-1.53235">
        <ele>11</ele>
        <time>2020-06-03T09:10:12Z</time>
      </trkpt>
      <trkpt lat="46.41236" lon="-1.53231">
        <ele>11</ele>
        <time>2020-06-03T09:10:13Z</time>
      </trkpt>
      <trkpt lat="46.41236" lon="-1.53227">
        <ele>11.1</ele>
        <time>2020-06-03T09:10:14Z</time>
      </trkpt>
      <trkpt lat="46.41236" lon="-1.53222">
        <ele>11.1</ele>
        <time>2020-06-03T09:10:15Z</time>
      </trkpt>
      <trkpt lat="46.41236" lon="-1.53217">
        <ele>11.1</ele>
        <time>2020-06-03T09:10:16Z</time>
      </trkpt>
      <trkpt lat="46.41236" lon="-1.53215">
        <ele>11.1</ele>
        <time>2020-06-03T09:10:17Z</time>
      </trkpt>
      <trkpt lat="46.41235" lon="-1.53211">
        <ele>11.2</ele>
        <time>2020-06-03T09:10:18Z</time>
      </trkpt>
      <trkpt lat="46.41234" lon="-1.53207">
        <ele>11.2</ele>
        <time>2020-06-03T09:10:19Z</time>
      </trkpt>
      <trkpt lat="46.41233" lon="-1.53206">
        <ele>11.2</ele>
        <time>2020-06-03T09:10:20Z</time>
      </trkpt>
      <trkpt lat="46.41233" lon="-1.53204">
        <ele>11.2</ele>
        <time>2020-06-03T09:10:21Z</time>
      </trkpt>
      <trkpt lat="46.41232" lon="-1.53202">
        <ele>11.2</ele>
        <time>2020-06-03T09:10:22Z</time>
      </trkpt>
      <trkpt lat="46.41232" lon="-1.532">
        <ele>11.2</ele>
        <time>2020-06-03T09:10:23Z</time>
      </trkpt>
      <trkpt lat="46.41232" lon="-1.53197">
        <ele>11.2</ele>
        <time>2020-06-03T09:10:24Z</time>
      </trkpt>
      <trkpt lat="46.41232" lon="-1.53195">
        <ele>11.3</ele>
        <time>2020-06-03T09:10:25Z</time>
      </trkpt>
      <trkpt lat="46.41233" lon="-1.53193">
        <ele>11.2</ele>
        <time>2020-06-03T09:10:26Z</time>
      </trkpt>
      <trkpt lat="46.41233" lon="-1.53192">
        <ele>11.2</ele>
        <time>2020-06-03T09:10:27Z</time>
      </trkpt>
      <trkpt lat="46.41233" lon="-1.53191">
        <ele>11.2</ele>
        <time>2020-06-03T09:10:28Z</time>
      </trkpt>
      <trkpt lat="46.41233" lon="-1.5319">
        <ele>11.2</ele>
        <time>2020-06-03T09:10:29Z</time>
      </trkpt>
      <trkpt lat="46.41233" lon="-1.53188">
        <ele>11.2</ele>
        <time>2020-06-03T09:10:30Z</time>
      </trkpt>
      <trkpt lat="46.41233" lon="-1.53187">
        <ele>11.2</ele>
        <time>2020-06-03T09:10:31Z</time>
      </trkpt>
      <trkpt lat="46.41234" lon="-1.53186">
        <ele>11.2</ele>
        <time>2020-06-03T09:10:32Z</time>
      </trkpt>
      <trkpt lat="46.41234" lon="-1.53185">
        <ele>11.1</ele>
        <time>2020-06-03T09:10:33Z</time>
      </trkpt>
      <trkpt lat="46.41234" lon="-1.53184">
        <ele>11.1</ele>
        <time>2020-06-03T09:10:34Z</time>
      </trkpt>
      <trkpt lat="46.41234" lon="-1.53184">
        <ele>11.1</ele>
        <time>2020-06-03T09:10:35Z</time>
      </trkpt>
      <trkpt lat="46.41234" lon="-1.53184">
        <ele>11.1</ele>
        <time>2020-06-03T09:10:36Z</time>
      </trkpt>
      <trkpt lat="46.41234" lon="-1.53184">
        <ele>11.1</ele>
        <time>2020-06-03T09:10:37Z</time>
      </trkpt>
      <trkpt lat="46.41234" lon="-1.53184">
        <ele>11.1</ele>
        <time>2020-06-03T09:10:38Z</time>
      </trkpt>
      <trkpt lat="46.41234" lon="-1.53185">
        <ele>11.1</ele>
        <time>2020-06-03T09:10:39Z</time>
      </trkpt>
      <trkpt lat="46.41234" lon="-1.53183">
        <ele>11.1</ele>
        <time>2020-06-03T09:10:40Z</time>
      </trkpt>
      <trkpt lat="46.41234" lon="-1.53183">
        <ele>11.1</ele>
        <time>2020-06-03T09:10:41Z</time>
      </trkpt>
      <trkpt lat="46.41234" lon="-1.53183">
        <ele>11.1</ele>
        <time>2020-06-03T09:10:42Z</time>
      </trkpt>
      <trkpt lat="46.41234" lon="-1.53183">
        <ele>11.1</ele>
        <time>2020-06-03T09:10:43Z</time>
      </trkpt>
      <trkpt lat="46.41234" lon="-1.53183">
        <ele>11.1</ele>
        <time>2020-06-03T09:10:44Z</time>
      </trkpt>
      <trkpt lat="46.41234" lon="-1.53183">
        <ele>11</ele>
        <time>2020-06-03T09:10:45Z</time>
      </trkpt>
      <trkpt lat="46.41234" lon="-1.53183">
        <ele>11</ele>
        <time>2020-06-03T09:10:46Z</time>
      </trkpt>
      <trkpt lat="46.41234" lon="-1.53183">
        <ele>11</ele>
        <time>2020-06-03T09:10:47Z</time>
      </trkpt>
      <trkpt lat="46.41234" lon="-1.53183">
        <ele>11</ele>
        <time>2020-06-03T09:10:48Z</time>
      </trkpt>
      <trkpt lat="46.41235" lon="-1.53182">
        <ele>11</ele>
        <time>2020-06-03T09:10:49Z</time>
      </trkpt>
      <trkpt lat="46.41235" lon="-1.53182">
        <ele>11</ele>
        <time>2020-06-03T09:10:50Z</time>
      </trkpt>
      <trkpt lat="46.41235" lon="-1.53181">
        <ele>11</ele>
        <time>2020-06-03T09:10:51Z</time>
      </trkpt>
      <trkpt lat="46.41235" lon="-1.53181">
        <ele>11</ele>
        <time>2020-06-03T09:10:52Z</time>
      </trkpt>
      <trkpt lat="46.41235" lon="-1.53181">
        <ele>11</ele>
        <time>2020-06-03T09:10:53Z</time>
      </trkpt>
      <trkpt lat="46.41235" lon="-1.53181">
        <ele>11</ele>
        <time>2020-06-03T09:10:54Z</time>
      </trkpt>
      <trkpt lat="46.41235" lon="-1.53181">
        <ele>11</ele>
        <time>2020-06-03T09:10:55Z</time>
      </trkpt>
      <trkpt lat="46.41235" lon="-1.53181">
        <ele>11</ele>
        <time>2020-06-03T09:10:56Z</time>
      </trkpt>
      <trkpt lat="46.41235" lon="-1.53181">
        <ele>11</ele>
        <time>2020-06-03T09:10:57Z</time>
      </trkpt>
      <trkpt lat="46.41235" lon="-1.53181">
        <ele>11</ele>
        <time>2020-06-03T09:10:58Z</time>
      </trkpt>
      <trkpt lat="46.41235" lon="-1.53181">
        <ele>10.9</ele>
        <time>2020-06-03T09:10:59Z</time>
      </trkpt>
      <trkpt lat="46.41235" lon="-1.53181">
        <ele>10.9</ele>
        <time>2020-06-03T09:11:00Z</time>
      </trkpt>
      <trkpt lat="46.41235" lon="-1.53181">
        <ele>10.9</ele>
        <time>2020-06-03T09:11:01Z</time>
      </trkpt>
      <trkpt lat="46.41235" lon="-1.53181">
        <ele>10.9</ele>
        <time>2020-06-03T09:11:02Z</time>
      </trkpt>
      <trkpt lat="46.41235" lon="-1.53181">
        <ele>10.9</ele>
        <time>2020-06-03T09:11:03Z</time>
      </trkpt>
      <trkpt lat="46.41235" lon="-1.53181">
        <ele>10.9</ele>
        <time>2020-06-03T09:11:04Z</time>
      </trkpt>
      <trkpt lat="46.41235" lon="-1.53181">
        <ele>10.9</ele>
        <time>2020-06-03T09:11:05Z</time>
      </trkpt>
      <trkpt lat="46.41235" lon="-1.53181">
        <ele>10.9</ele>
        <time>2020-06-03T09:11:06Z</time>
      </trkpt>
      <trkpt lat="46.41235" lon="-1.53181">
        <ele>10.9</ele>
        <time>2020-06-03T09:11:07Z</time>
      </trkpt>
      <trkpt lat="46.41235" lon="-1.53181">
        <ele>10.9</ele>
        <time>2020-06-03T09:11:08Z</time>
      </trkpt>
      <trkpt lat="46.41235" lon="-1.53181">
        <ele>10.9</ele>
        <time>2020-06-03T09:11:09Z</time>
      </trkpt>
      <trkpt lat="46.41234" lon="-1.53182">
        <ele>10.9</ele>
        <time>2020-06-03T09:11:10Z</time>
      </trkpt>
      <trkpt lat="46.41234" lon="-1.53182">
        <ele>10.8</ele>
        <time>2020-06-03T09:11:11Z</time>
      </trkpt>
      <trkpt lat="46.41234" lon="-1.53182">
        <ele>10.8</ele>
        <time>2020-06-03T09:11:12Z</time>
      </trkpt>
      <trkpt lat="46.41234" lon="-1.53182">
        <ele>10.8</ele>
        <time>2020-06-03T09:11:13Z</time>
      </trkpt>
      <trkpt lat="46.41234" lon="-1.53182">
        <ele>10.8</ele>
        <time>2020-06-03T09:11:14Z</time>
      </trkpt>
      <trkpt lat="46.41234" lon="-1.53182">
        <ele>10.8</ele>
        <time>2020-06-03T09:11:15Z</time>
      </trkpt>
      <trkpt lat="46.41233" lon="-1.53183">
        <ele>10.8</ele>
        <time>2020-06-03T09:11:16Z</time>
      </trkpt>
      <trkpt lat="46.41233" lon="-1.53184">
        <ele>10.8</ele>
        <time>2020-06-03T09:11:17Z</time>
      </trkpt>
      <trkpt lat="46.41233" lon="-1.53184">
        <ele>10.8</ele>
        <time>2020-06-03T09:11:18Z</time>
      </trkpt>
      <trkpt lat="46.41232" lon="-1.53184">
        <ele>10.8</ele>
        <time>2020-06-03T09:11:19Z</time>
      </trkpt>
      <trkpt lat="46.41232" lon="-1.53184">
        <ele>10.8</ele>
        <time>2020-06-03T09:11:20Z</time>
      </trkpt>
      <trkpt lat="46.41232" lon="-1.53183">
        <ele>10.8</ele>
        <time>2020-06-03T09:11:21Z</time>
      </trkpt>
      <trkpt lat="46.41232" lon="-1.53183">
        <ele>10.8</ele>
        <time>2020-06-03T09:11:22Z</time>
      </trkpt>
      <trkpt lat="46.41232" lon="-1.53183">
        <ele>10.8</ele>
        <time>2020-06-03T09:11:23Z</time>
      </trkpt>
      <trkpt lat="46.41232" lon="-1.53183">
        <ele>10.8</ele>
        <time>2020-06-03T09:11:24Z</time>
      </trkpt>
      <trkpt lat="46.41232" lon="-1.53183">
        <ele>10.8</ele>
        <time>2020-06-03T09:11:25Z</time>
      </trkpt>
      <trkpt lat="46.41232" lon="-1.53183">
        <ele>10.8</ele>
        <time>2020-06-03T09:11:26Z</time>
      </trkpt>
      <trkpt lat="46.41232" lon="-1.53183">
        <ele>10.8</ele>
        <time>2020-06-03T09:11:27Z</time>
      </trkpt>
      <trkpt lat="46.41232" lon="-1.53183">
        <ele>10.8</ele>
        <time>2020-06-03T09:11:28Z</time>
      </trkpt>
      <trkpt lat="46.41232" lon="-1.53183">
        <ele>10.8</ele>
        <time>2020-06-03T09:11:29Z</time>
      </trkpt>
      <trkpt lat="46.41233" lon="-1.53182">
        <ele>10.7</ele>
        <time>2020-06-03T09:11:30Z</time>
      </trkpt>
      <trkpt lat="46.41233" lon="-1.53182">
        <ele>10.7</ele>
        <time>2020-06-03T09:11:31Z</time>
      </trkpt>
      <trkpt lat="46.41232" lon="-1.53182">
        <ele>10.7</ele>
        <time>2020-06-03T09:11:32Z</time>
      </trkpt>
      <trkpt lat="46.41232" lon="-1.53181">
        <ele>10.7</ele>
        <time>2020-06-03T09:11:33Z</time>
      </trkpt>
      <trkpt lat="46.41232" lon="-1.53181">
        <ele>10.7</ele>
        <time>2020-06-03T09:11:34Z</time>
      </trkpt>
      <trkpt lat="46.41232" lon="-1.53181">
        <ele>10.7</ele>
        <time>2020-06-03T09:11:35Z</time>
      </trkpt>
      <trkpt lat="46.41232" lon="-1.53181">
        <ele>10.7</ele>
        <time>2020-06-03T09:11:36Z</time>
      </trkpt>
      <trkpt lat="46.41232" lon="-1.53181">
        <ele>10.7</ele>
        <time>2020-06-03T09:11:37Z</time>
      </trkpt>
      <trkpt lat="46.41232" lon="-1.53181">
        <ele>10.7</ele>
        <time>2020-06-03T09:11:38Z</time>
      </trkpt>
      <trkpt lat="46.41231" lon="-1.53181">
        <ele>10.7</ele>
        <time>2020-06-03T09:11:39Z</time>
      </trkpt>
      <trkpt lat="46.41231" lon="-1.53181">
        <ele>10.7</ele>
        <time>2020-06-03T09:11:40Z</time>
      </trkpt>
      <trkpt lat="46.41231" lon="-1.53181">
        <ele>10.7</ele>
        <time>2020-06-03T09:11:41Z</time>
      </trkpt>
      <trkpt lat="46.41231" lon="-1.53181">
        <ele>10.7</ele>
        <time>2020-06-03T09:11:42Z</time>
      </trkpt>
      <trkpt lat="46.41231" lon="-1.53181">
        <ele>10.7</ele>
        <time>2020-06-03T09:11:43Z</time>
      </trkpt>
      <trkpt lat="46.41231" lon="-1.53181">
        <ele>10.6</ele>
        <time>2020-06-03T09:11:44Z</time>
      </trkpt>
      <trkpt lat="46.41231" lon="-1.53181">
        <ele>10.6</ele>
        <time>2020-06-03T09:11:45Z</time>
      </trkpt>
      <trkpt lat="46.41231" lon="-1.53181">
        <ele>10.6</ele>
        <time>2020-06-03T09:11:46Z</time>
      </trkpt>
      <trkpt lat="46.41231" lon="-1.53181">
        <ele>10.6</ele>
        <time>2020-06-03T09:11:47Z</time>
      </trkpt>
      <trkpt lat="46.41231" lon="-1.53181">
        <ele>10.6</ele>
        <time>2020-06-03T09:11:48Z</time>
      </trkpt>
      <trkpt lat="46.41231" lon="-1.53181">
        <ele>10.6</ele>
        <time>2020-06-03T09:11:49Z</time>
      </trkpt>
      <trkpt lat="46.41231" lon="-1.53181">
        <ele>10.6</ele>
        <time>2020-06-03T09:11:50Z</time>
      </trkpt>
      <trkpt lat="46.41231" lon="-1.53182">
        <ele>10.6</ele>
        <time>2020-06-03T09:11:51Z</time>
      </trkpt>
      <trkpt lat="46.41231" lon="-1.53183">
        <ele>10.6</ele>
        <time>2020-06-03T09:11:52Z</time>
      </trkpt>
      <trkpt lat="46.41231" lon="-1.53183">
        <ele>10.6</ele>
        <time>2020-06-03T09:11:53Z</time>
      </trkpt>
      <trkpt lat="46.41231" lon="-1.53183">
        <ele>10.5</ele>
        <time>2020-06-03T09:11:54Z</time>
      </trkpt>
      <trkpt lat="46.41231" lon="-1.53183">
        <ele>10.5</ele>
        <time>2020-06-03T09:11:55Z</time>
      </trkpt>
      <trkpt lat="46.41231" lon="-1.53184">
        <ele>10.5</ele>
        <time>2020-06-03T09:11:56Z</time>
      </trkpt>
      <trkpt lat="46.41231" lon="-1.53184">
        <ele>10.5</ele>
        <time>2020-06-03T09:11:57Z</time>
      </trkpt>
      <trkpt lat="46.41231" lon="-1.53183">
        <ele>10.5</ele>
        <time>2020-06-03T09:11:58Z</time>
      </trkpt>
      <trkpt lat="46.41231" lon="-1.53183">
        <ele>10.5</ele>
        <time>2020-06-03T09:11:59Z</time>
      </trkpt>
      <trkpt lat="46.41231" lon="-1.53183">
        <ele>10.5</ele>
        <time>2020-06-03T09:12:00Z</time>
      </trkpt>
      <trkpt lat="46.41231" lon="-1.53183">
        <ele>10.5</ele>
        <time>2020-06-03T09:12:01Z</time>
      </trkpt>
      <trkpt lat="46.41231" lon="-1.53183">
        <ele>10.5</ele>
        <time>2020-06-03T09:12:02Z</time>
      </trkpt>
      <trkpt lat="46.41231" lon="-1.53184">
        <ele>10.5</ele>
        <time>2020-06-03T09:12:03Z</time>
      </trkpt>
      <trkpt lat="46.41231" lon="-1.53185">
        <ele>10.5</ele>
        <time>2020-06-03T09:12:04Z</time>
      </trkpt>
      <trkpt lat="46.41231" lon="-1.53185">
        <ele>10.5</ele>
        <time>2020-06-03T09:12:05Z</time>
      </trkpt>
      <trkpt lat="46.41231" lon="-1.53185">
        <ele>10.4</ele>
        <time>2020-06-03T09:12:06Z</time>
      </trkpt>
      <trkpt lat="46.41231" lon="-1.53185">
        <ele>10.4</ele>
        <time>2020-06-03T09:12:07Z</time>
      </trkpt>
      <trkpt lat="46.41231" lon="-1.53185">
        <ele>10.4</ele>
        <time>2020-06-03T09:12:08Z</time>
      </trkpt>
      <trkpt lat="46.41231" lon="-1.53185">
        <ele>10.4</ele>
        <time>2020-06-03T09:12:09Z</time>
      </trkpt>
      <trkpt lat="46.41231" lon="-1.53185">
        <ele>10.4</ele>
        <time>2020-06-03T09:12:10Z</time>
      </trkpt>
      <trkpt lat="46.41231" lon="-1.53185">
        <ele>10.4</ele>
        <time>2020-06-03T09:12:11Z</time>
      </trkpt>
      <trkpt lat="46.41231" lon="-1.53185">
        <ele>10.4</ele>
        <time>2020-06-03T09:12:12Z</time>
      </trkpt>
      <trkpt lat="46.41231" lon="-1.53185">
        <ele>10.4</ele>
        <time>2020-06-03T09:12:13Z</time>
      </trkpt>
      <trkpt lat="46.41232" lon="-1.53185">
        <ele>10.4</ele>
        <time>2020-06-03T09:12:14Z</time>
      </trkpt>
      <trkpt lat="46.41233" lon="-1.53185">
        <ele>10.3</ele>
        <time>2020-06-03T09:12:15Z</time>
      </trkpt>
      <trkpt lat="46.41234" lon="-1.53185">
        <ele>10.3</ele>
        <time>2020-06-03T09:12:16Z</time>
      </trkpt>
      <trkpt lat="46.41234" lon="-1.53186">
        <ele>10.3</ele>
        <time>2020-06-03T09:12:17Z</time>
      </trkpt>
      <trkpt lat="46.41235" lon="-1.53187">
        <ele>10.3</ele>
        <time>2020-06-03T09:12:18Z</time>
      </trkpt>
      <trkpt lat="46.41235" lon="-1.53187">
        <ele>10.3</ele>
        <time>2020-06-03T09:12:19Z</time>
      </trkpt>
      <trkpt lat="46.41235" lon="-1.53187">
        <ele>10.2</ele>
        <time>2020-06-03T09:12:20Z</time>
      </trkpt>
      <trkpt lat="46.41235" lon="-1.53187">
        <ele>10.2</ele>
        <time>2020-06-03T09:12:21Z</time>
      </trkpt>
      <trkpt lat="46.41236" lon="-1.53187">
        <ele>10.2</ele>
        <time>2020-06-03T09:12:22Z</time>
      </trkpt>
      <trkpt lat="46.41236" lon="-1.53187">
        <ele>10.2</ele>
        <time>2020-06-03T09:12:23Z</time>
      </trkpt>
      <trkpt lat="46.41236" lon="-1.53187">
        <ele>10.2</ele>
        <time>2020-06-03T09:12:24Z</time>
      </trkpt>
      <trkpt lat="46.41236" lon="-1.53187">
        <ele>10.2</ele>
        <time>2020-06-03T09:12:25Z</time>
      </trkpt>
      <trkpt lat="46.41236" lon="-1.53188">
        <ele>10.2</ele>
        <time>2020-06-03T09:12:26Z</time>
      </trkpt>
      <trkpt lat="46.41236" lon="-1.53188">
        <ele>10.2</ele>
        <time>2020-06-03T09:12:27Z</time>
      </trkpt>
      <trkpt lat="46.41236" lon="-1.53189">
        <ele>10.1</ele>
        <time>2020-06-03T09:12:28Z</time>
      </trkpt>
      <trkpt lat="46.41236" lon="-1.53189">
        <ele>10.1</ele>
        <time>2020-06-03T09:12:29Z</time>
      </trkpt>
      <trkpt lat="46.41236" lon="-1.53189">
        <ele>10.1</ele>
        <time>2020-06-03T09:12:30Z</time>
      </trkpt>
      <trkpt lat="46.41237" lon="-1.53189">
        <ele>10.1</ele>
        <time>2020-06-03T09:12:31Z</time>
      </trkpt>
      <trkpt lat="46.41574" lon="-1.5628">
        <ele>9.1</ele>
        <time>2020-06-03T09:28:54Z</time>
      </trkpt>
      <trkpt lat="46.41462" lon="-1.56226">
        <ele>15.2</ele>
        <time>2020-06-03T09:28:55Z</time>
      </trkpt>
      <trkpt lat="46.41466" lon="-1.56229">
        <ele>14.9</ele>
        <time>2020-06-03T09:28:56Z</time>
      </trkpt>
      <trkpt lat="46.41471" lon="-1.56233">
        <ele>14.5</ele>
        <time>2020-06-03T09:28:57Z</time>
      </trkpt>
      <trkpt lat="46.41475" lon="-1.56236">
        <ele>14.2</ele>
        <time>2020-06-03T09:28:58Z</time>
      </trkpt>
      <trkpt lat="46.41479" lon="-1.5624">
        <ele>13.7</ele>
        <time>2020-06-03T09:28:59Z</time>
      </trkpt>
      <trkpt lat="46.41483" lon="-1.56243">
        <ele>13.4</ele>
        <time>2020-06-03T09:29:00Z</time>
      </trkpt>
      <trkpt lat="46.41487" lon="-1.56247">
        <ele>13.2</ele>
        <time>2020-06-03T09:29:01Z</time>
      </trkpt>
      <trkpt lat="46.41491" lon="-1.5625">
        <ele>12.9</ele>
        <time>2020-06-03T09:29:03Z</time>
      </trkpt>
      <trkpt lat="46.41495" lon="-1.56254">
        <ele>12.7</ele>
        <time>2020-06-03T09:29:05Z</time>
      </trkpt>
      <trkpt lat="46.41499" lon="-1.56257">
        <ele>12.4</ele>
        <time>2020-06-03T09:29:06Z</time>
      </trkpt>
      <trkpt lat="46.41503" lon="-1.56261">
        <ele>12.4</ele>
        <time>2020-06-03T09:29:07Z</time>
      </trkpt>
      <trkpt lat="46.41503" lon="-1.56265">
        <ele>12.4</ele>
        <time>2020-06-03T09:29:08Z</time>
      </trkpt>
      <trkpt lat="46.41503" lon="-1.56269">
        <ele>12.4</ele>
        <time>2020-06-03T09:29:09Z</time>
      </trkpt>
      <trkpt lat="46.41503" lon="-1.56271">
        <ele>12.4</ele>
        <time>2020-06-03T09:29:10Z</time>
      </trkpt>
      <trkpt lat="46.41502" lon="-1.56274">
        <ele>12.4</ele>
        <time>2020-06-03T09:29:11Z</time>
      </trkpt>
      <trkpt lat="46.41502" lon="-1.56275">
        <ele>12.4</ele>
        <time>2020-06-03T09:29:12Z</time>
      </trkpt>
      <trkpt lat="46.41502" lon="-1.56276">
        <ele>12.4</ele>
        <time>2020-06-03T09:29:13Z</time>
      </trkpt>
      <trkpt lat="46.41502" lon="-1.56279">
        <ele>12.4</ele>
        <time>2020-06-03T09:29:14Z</time>
      </trkpt>
      <trkpt lat="46.41501" lon="-1.56281">
        <ele>12.4</ele>
        <time>2020-06-03T09:29:15Z</time>
      </trkpt>
      <trkpt lat="46.41501" lon="-1.56282">
        <ele>12.4</ele>
        <time>2020-06-03T09:29:16Z</time>
      </trkpt>
      <trkpt lat="46.415" lon="-1.56285">
        <ele>12.4</ele>
        <time>2020-06-03T09:29:17Z</time>
      </trkpt>
      <trkpt lat="46.415" lon="-1.56286">
        <ele>12.4</ele>
        <time>2020-06-03T09:29:18Z</time>
      </trkpt>
      <trkpt lat="46.415" lon="-1.56287">
        <ele>12.4</ele>
        <time>2020-06-03T09:29:19Z</time>
      </trkpt>
      <trkpt lat="46.41499" lon="-1.56289">
        <ele>12.4</ele>
        <time>2020-06-03T09:29:20Z</time>
      </trkpt>
      <trkpt lat="46.41499" lon="-1.56292">
        <ele>12.4</ele>
        <time>2020-06-03T09:29:21Z</time>
      </trkpt>
      <trkpt lat="46.415" lon="-1.56296">
        <ele>12.4</ele>
        <time>2020-06-03T09:29:22Z</time>
      </trkpt>
      <trkpt lat="46.415" lon="-1.56299">
        <ele>12.4</ele>
        <time>2020-06-03T09:29:23Z</time>
      </trkpt>
      <trkpt lat="46.41499" lon="-1.56301">
        <ele>12.4</ele>
        <time>2020-06-03T09:29:24Z</time>
      </trkpt>
      <trkpt lat="46.41499" lon="-1.56306">
        <ele>12.4</ele>
        <time>2020-06-03T09:29:25Z</time>
      </trkpt>
      <trkpt lat="46.41499" lon="-1.56309">
        <ele>12.4</ele>
        <time>2020-06-03T09:29:26Z</time>
      </trkpt>
      <trkpt lat="46.41498" lon="-1.56313">
        <ele>12.4</ele>
        <time>2020-06-03T09:29:27Z</time>
      </trkpt>
      <trkpt lat="46.41497" lon="-1.56317">
        <ele>12.4</ele>
        <time>2020-06-03T09:29:28Z</time>
      </trkpt>
      <trkpt lat="46.41497" lon="-1.56322">
        <ele>12.4</ele>
        <time>2020-06-03T09:29:29Z</time>
      </trkpt>
      <trkpt lat="46.41496" lon="-1.56327">
        <ele>12.5</ele>
        <time>2020-06-03T09:29:30Z</time>
      </trkpt>
      <trkpt lat="46.41496" lon="-1.56328">
        <ele>12.5</ele>
        <time>2020-06-03T09:29:31Z</time>
      </trkpt>
      <trkpt lat="46.41496" lon="-1.56333">
        <ele>12.5</ele>
        <time>2020-06-03T09:29:32Z</time>
      </trkpt>
      <trkpt lat="46.41496" lon="-1.56335">
        <ele>12.5</ele>
        <time>2020-06-03T09:29:33Z</time>
      </trkpt>
      <trkpt lat="46.41495" lon="-1.56339">
        <ele>12.5</ele>
        <time>2020-06-03T09:29:34Z</time>
      </trkpt>
      <trkpt lat="46.41495" lon="-1.56346">
        <ele>12.5</ele>
        <time>2020-06-03T09:29:35Z</time>
      </trkpt>
      <trkpt lat="46.41495" lon="-1.56351">
        <ele>12.5</ele>
        <time>2020-06-03T09:29:36Z</time>
      </trkpt>
      <trkpt lat="46.41494" lon="-1.56356">
        <ele>12.5</ele>
        <time>2020-06-03T09:29:37Z</time>
      </trkpt>
      <trkpt lat="46.41492" lon="-1.56362">
        <ele>12.5</ele>
        <time>2020-06-03T09:29:38Z</time>
      </trkpt>
      <trkpt lat="46.4149" lon="-1.56367">
        <ele>12.5</ele>
        <time>2020-06-03T09:29:39Z</time>
      </trkpt>
      <trkpt lat="46.41489" lon="-1.56373">
        <ele>12.5</ele>
        <time>2020-06-03T09:29:40Z</time>
      </trkpt>
      <trkpt lat="46.41488" lon="-1.56378">
        <ele>12.5</ele>
        <time>2020-06-03T09:29:41Z</time>
      </trkpt>
      <trkpt lat="46.41488" lon="-1.56384">
        <ele>12.5</ele>
        <time>2020-06-03T09:29:42Z</time>
      </trkpt>
      <trkpt lat="46.41487" lon="-1.56389">
        <ele>12.5</ele>
        <time>2020-06-03T09:29:43Z</time>
      </trkpt>
      <trkpt lat="46.41486" lon="-1.56393">
        <ele>12.5</ele>
        <time>2020-06-03T09:29:44Z</time>
      </trkpt>
      <trkpt lat="46.41486" lon="-1.56398">
        <ele>12.5</ele>
        <time>2020-06-03T09:29:45Z</time>
      </trkpt>
      <trkpt lat="46.41486" lon="-1.56404">
        <ele>12.5</ele>
        <time>2020-06-03T09:29:46Z</time>
      </trkpt>
      <trkpt lat="46.41486" lon="-1.56409">
        <ele>12.5</ele>
        <time>2020-06-03T09:29:47Z</time>
      </trkpt>
      <trkpt lat="46.41486" lon="-1.56416">
        <ele>12.5</ele>
        <time>2020-06-03T09:29:48Z</time>
      </trkpt>
      <trkpt lat="46.41486" lon="-1.56421">
        <ele>12.6</ele>
        <time>2020-06-03T09:29:49Z</time>
      </trkpt>
      <trkpt lat="46.41486" lon="-1.56427">
        <ele>12.6</ele>
        <time>2020-06-03T09:29:50Z</time>
      </trkpt>
      <trkpt lat="46.41487" lon="-1.56432">
        <ele>12.6</ele>
        <time>2020-06-03T09:29:51Z</time>
      </trkpt>
      <trkpt lat="46.41487" lon="-1.56439">
        <ele>12.6</ele>
        <time>2020-06-03T09:29:52Z</time>
      </trkpt>
      <trkpt lat="46.41488" lon="-1.56444">
        <ele>12.6</ele>
        <time>2020-06-03T09:29:53Z</time>
      </trkpt>
      <trkpt lat="46.41489" lon="-1.5645">
        <ele>12.6</ele>
        <time>2020-06-03T09:29:54Z</time>
      </trkpt>
      <trkpt lat="46.4149" lon="-1.56457">
        <ele>12.6</ele>
        <time>2020-06-03T09:29:55Z</time>
      </trkpt>
      <trkpt lat="46.41491" lon="-1.56461">
        <ele>12.6</ele>
        <time>2020-06-03T09:29:56Z</time>
      </trkpt>
      <trkpt lat="46.41492" lon="-1.56469">
        <ele>12.6</ele>
        <time>2020-06-03T09:29:57Z</time>
      </trkpt>
      <trkpt lat="46.41493" lon="-1.56474">
        <ele>12.6</ele>
        <time>2020-06-03T09:29:58Z</time>
      </trkpt>
      <trkpt lat="46.41494" lon="-1.56482">
        <ele>12.6</ele>
        <time>2020-06-03T09:29:59Z</time>
      </trkpt>
      <trkpt lat="46.41495" lon="-1.56488">
        <ele>12.6</ele>
        <time>2020-06-03T09:30:00Z</time>
      </trkpt>
      <trkpt lat="46.41495" lon="-1.56495">
        <ele>12.6</ele>
        <time>2020-06-03T09:30:01Z</time>
      </trkpt>
      <trkpt lat="46.41496" lon="-1.565">
        <ele>12.6</ele>
        <time>2020-06-03T09:30:02Z</time>
      </trkpt>
      <trkpt lat="46.41496" lon="-1.56506">
        <ele>12.7</ele>
        <time>2020-06-03T09:30:03Z</time>
      </trkpt>
      <trkpt lat="46.41497" lon="-1.56512">
        <ele>12.7</ele>
        <time>2020-06-03T09:30:04Z</time>
      </trkpt>
      <trkpt lat="46.41498" lon="-1.56517">
        <ele>12.7</ele>
        <time>2020-06-03T09:30:05Z</time>
      </trkpt>
      <trkpt lat="46.41499" lon="-1.56523">
        <ele>12.7</ele>
        <time>2020-06-03T09:30:06Z</time>
      </trkpt>
      <trkpt lat="46.415" lon="-1.5653">
        <ele>12.7</ele>
        <time>2020-06-03T09:30:07Z</time>
      </trkpt>
      <trkpt lat="46.41501" lon="-1.56535">
        <ele>12.7</ele>
        <time>2020-06-03T09:30:08Z</time>
      </trkpt>
      <trkpt lat="46.41502" lon="-1.56542">
        <ele>12.7</ele>
        <time>2020-06-03T09:30:09Z</time>
      </trkpt>
      <trkpt lat="46.41502" lon="-1.56549">
        <ele>12.7</ele>
        <time>2020-06-03T09:30:10Z</time>
      </trkpt>
      <trkpt lat="46.41502" lon="-1.56556">
        <ele>12.7</ele>
        <time>2020-06-03T09:30:11Z</time>
      </trkpt>
      <trkpt lat="46.41503" lon="-1.56562">
        <ele>12.7</ele>
        <time>2020-06-03T09:30:12Z</time>
      </trkpt>
      <trkpt lat="46.41503" lon="-1.56568">
        <ele>12.7</ele>
        <time>2020-06-03T09:30:13Z</time>
      </trkpt>
      <trkpt lat="46.41503" lon="-1.56575">
        <ele>12.7</ele>
        <time>2020-06-03T09:30:14Z</time>
      </trkpt>
      <trkpt lat="46.41503" lon="-1.56582">
        <ele>12.7</ele>
        <time>2020-06-03T09:30:15Z</time>
      </trkpt>
      <trkpt lat="46.41504" lon="-1.5659">
        <ele>12.7</ele>
        <time>2020-06-03T09:30:16Z</time>
      </trkpt>
      <trkpt lat="46.41504" lon="-1.56597">
        <ele>12.7</ele>
        <time>2020-06-03T09:30:17Z</time>
      </trkpt>
      <trkpt lat="46.41505" lon="-1.56603">
        <ele>12.7</ele>
        <time>2020-06-03T09:30:18Z</time>
      </trkpt>
      <trkpt lat="46.41506" lon="-1.5661">
        <ele>12.6</ele>
        <time>2020-06-03T09:30:19Z</time>
      </trkpt>
      <trkpt lat="46.41506" lon="-1.56617">
        <ele>12.5</ele>
        <time>2020-06-03T09:30:20Z</time>
      </trkpt>
      <trkpt lat="46.41507" lon="-1.56624">
        <ele>12.5</ele>
        <time>2020-06-03T09:30:21Z</time>
      </trkpt>
      <trkpt lat="46.41508" lon="-1.56632">
        <ele>12.4</ele>
        <time>2020-06-03T09:30:22Z</time>
      </trkpt>
      <trkpt lat="46.41509" lon="-1.56639">
        <ele>12.3</ele>
        <time>2020-06-03T09:30:23Z</time>
      </trkpt>
      <trkpt lat="46.41511" lon="-1.56646">
        <ele>12.2</ele>
        <time>2020-06-03T09:30:24Z</time>
      </trkpt>
      <trkpt lat="46.41512" lon="-1.56654">
        <ele>12.1</ele>
        <time>2020-06-03T09:30:25Z</time>
      </trkpt>
      <trkpt lat="46.41513" lon="-1.56662">
        <ele>12.1</ele>
        <time>2020-06-03T09:30:26Z</time>
      </trkpt>
      <trkpt lat="46.41514" lon="-1.5667">
        <ele>12</ele>
        <time>2020-06-03T09:30:27Z</time>
      </trkpt>
      <trkpt lat="46.41515" lon="-1.56677">
        <ele>11.9</ele>
        <time>2020-06-03T09:30:28Z</time>
      </trkpt>
      <trkpt lat="46.41515" lon="-1.56683">
        <ele>11.8</ele>
        <time>2020-06-03T09:30:29Z</time>
      </trkpt>
      <trkpt lat="46.41516" lon="-1.56688">
        <ele>11.8</ele>
        <time>2020-06-03T09:30:30Z</time>
      </trkpt>
      <trkpt lat="46.41518" lon="-1.56692">
        <ele>11.8</ele>
        <time>2020-06-03T09:30:31Z</time>
      </trkpt>
      <trkpt lat="46.41518" lon="-1.56694">
        <ele>11.7</ele>
        <time>2020-06-03T09:30:32Z</time>
      </trkpt>
      <trkpt lat="46.41518" lon="-1.56698">
        <ele>11.7</ele>
        <time>2020-06-03T09:30:33Z</time>
      </trkpt>
      <trkpt lat="46.41517" lon="-1.56702">
        <ele>11.7</ele>
        <time>2020-06-03T09:30:34Z</time>
      </trkpt>
      <trkpt lat="46.41517" lon="-1.56706">
        <ele>11.7</ele>
        <time>2020-06-03T09:30:35Z</time>
      </trkpt>
      <trkpt lat="46.41518" lon="-1.56711">
        <ele>11.7</ele>
        <time>2020-06-03T09:30:36Z</time>
      </trkpt>
      <trkpt lat="46.41518" lon="-1.56713">
        <ele>11.7</ele>
        <time>2020-06-03T09:30:37Z</time>
      </trkpt>
      <trkpt lat="46.41517" lon="-1.56714">
        <ele>11.7</ele>
        <time>2020-06-03T09:30:38Z</time>
      </trkpt>
      <trkpt lat="46.41519" lon="-1.56715">
        <ele>11.7</ele>
        <time>2020-06-03T09:30:39Z</time>
      </trkpt>
      <trkpt lat="46.41519" lon="-1.56717">
        <ele>11.7</ele>
        <time>2020-06-03T09:30:40Z</time>
      </trkpt>
      <trkpt lat="46.4152" lon="-1.56721">
        <ele>11.7</ele>
        <time>2020-06-03T09:30:41Z</time>
      </trkpt>
      <trkpt lat="46.41521" lon="-1.56723">
        <ele>11.7</ele>
        <time>2020-06-03T09:30:42Z</time>
      </trkpt>
      <trkpt lat="46.41522" lon="-1.56729">
        <ele>11.6</ele>
        <time>2020-06-03T09:30:43Z</time>
      </trkpt>
      <trkpt lat="46.41522" lon="-1.56732">
        <ele>11.6</ele>
        <time>2020-06-03T09:30:44Z</time>
      </trkpt>
      <trkpt lat="46.41523" lon="-1.56737">
        <ele>11.6</ele>
        <time>2020-06-03T09:30:45Z</time>
      </trkpt>
      <trkpt lat="46.41523" lon="-1.56741">
        <ele>11.6</ele>
        <time>2020-06-03T09:30:46Z</time>
      </trkpt>
      <trkpt lat="46.41525" lon="-1.56747">
        <ele>11.6</ele>
        <time>2020-06-03T09:30:47Z</time>
      </trkpt>
      <trkpt lat="46.41528" lon="-1.56752">
        <ele>11.5</ele>
        <time>2020-06-03T09:30:48Z</time>
      </trkpt>
      <trkpt lat="46.4153" lon="-1.56758">
        <ele>11.5</ele>
        <time>2020-06-03T09:30:49Z</time>
      </trkpt>
      <trkpt lat="46.41532" lon="-1.56765">
        <ele>11.4</ele>
        <time>2020-06-03T09:30:50Z</time>
      </trkpt>
      <trkpt lat="46.41534" lon="-1.56771">
        <ele>11.4</ele>
        <time>2020-06-03T09:30:51Z</time>
      </trkpt>
      <trkpt lat="46.41536" lon="-1.56779">
        <ele>11.3</ele>
        <time>2020-06-03T09:30:52Z</time>
      </trkpt>
      <trkpt lat="46.41538" lon="-1.56787">
        <ele>11.3</ele>
        <time>2020-06-03T09:30:53Z</time>
      </trkpt>
      <trkpt lat="46.41539" lon="-1.56794">
        <ele>11.2</ele>
        <time>2020-06-03T09:30:54Z</time>
      </trkpt>
      <trkpt lat="46.41541" lon="-1.56802">
        <ele>11.2</ele>
        <time>2020-06-03T09:30:55Z</time>
      </trkpt>
      <trkpt lat="46.41542" lon="-1.56809">
        <ele>11.1</ele>
        <time>2020-06-03T09:30:56Z</time>
      </trkpt>
      <trkpt lat="46.41544" lon="-1.56816">
        <ele>11</ele>
        <time>2020-06-03T09:30:57Z</time>
      </trkpt>
      <trkpt lat="46.41545" lon="-1.56824">
        <ele>11</ele>
        <time>2020-06-03T09:30:58Z</time>
      </trkpt>
      <trkpt lat="46.41547" lon="-1.56832">
        <ele>10.9</ele>
        <time>2020-06-03T09:30:59Z</time>
      </trkpt>
      <trkpt lat="46.4155" lon="-1.56841">
        <ele>10.9</ele>
        <time>2020-06-03T09:31:00Z</time>
      </trkpt>
      <trkpt lat="46.41552" lon="-1.5685">
        <ele>10.9</ele>
        <time>2020-06-03T09:31:01Z</time>
      </trkpt>
      <trkpt lat="46.41555" lon="-1.56858">
        <ele>10.8</ele>
        <time>2020-06-03T09:31:02Z</time>
      </trkpt>
      <trkpt lat="46.41558" lon="-1.56866">
        <ele>10.8</ele>
        <time>2020-06-03T09:31:03Z</time>
      </trkpt>
      <trkpt lat="46.41561" lon="-1.56872">
        <ele>10.8</ele>
        <time>2020-06-03T09:31:04Z</time>
      </trkpt>
      <trkpt lat="46.41564" lon="-1.5688">
        <ele>10.8</ele>
        <time>2020-06-03T09:31:05Z</time>
      </trkpt>
      <trkpt lat="46.41567" lon="-1.56888">
        <ele>10.8</ele>
        <time>2020-06-03T09:31:06Z</time>
      </trkpt>
      <trkpt lat="46.4157" lon="-1.56895">
        <ele>10.8</ele>
        <time>2020-06-03T09:31:07Z</time>
      </trkpt>
      <trkpt lat="46.41573" lon="-1.56902">
        <ele>10.9</ele>
        <time>2020-06-03T09:31:08Z</time>
      </trkpt>
      <trkpt lat="46.41575" lon="-1.5691">
        <ele>10.9</ele>
        <time>2020-06-03T09:31:09Z</time>
      </trkpt>
      <trkpt lat="46.41579" lon="-1.56918">
        <ele>10.9</ele>
        <time>2020-06-03T09:31:10Z</time>
      </trkpt>
      <trkpt lat="46.41583" lon="-1.56924">
        <ele>10.9</ele>
        <time>2020-06-03T09:31:11Z</time>
      </trkpt>
      <trkpt lat="46.41586" lon="-1.56931">
        <ele>10.9</ele>
        <time>2020-06-03T09:31:12Z</time>
      </trkpt>
      <trkpt lat="46.4159" lon="-1.56937">
        <ele>10.9</ele>
        <time>2020-06-03T09:31:13Z</time>
      </trkpt>
      <trkpt lat="46.41594" lon="-1.56944">
        <ele>10.9</ele>
        <time>2020-06-03T09:31:14Z</time>
      </trkpt>
      <trkpt lat="46.41597" lon="-1.56952">
        <ele>10.8</ele>
        <time>2020-06-03T09:31:15Z</time>
      </trkpt>
      <trkpt lat="46.41601" lon="-1.56958">
        <ele>10.8</ele>
        <time>2020-06-03T09:31:16Z</time>
      </trkpt>
      <trkpt lat="46.41605" lon="-1.56965">
        <ele>10.8</ele>
        <time>2020-06-03T09:31:17Z</time>
      </trkpt>
      <trkpt lat="46.41609" lon="-1.56971">
        <ele>10.7</ele>
        <time>2020-06-03T09:31:18Z</time>
      </trkpt>
      <trkpt lat="46.41612" lon="-1.56977">
        <ele>10.7</ele>
        <time>2020-06-03T09:31:19Z</time>
      </trkpt>
      <trkpt lat="46.41616" lon="-1.56983">
        <ele>10.6</ele>
        <time>2020-06-03T09:31:20Z</time>
      </trkpt>
      <trkpt lat="46.4162" lon="-1.5699">
        <ele>10.5</ele>
        <time>2020-06-03T09:31:21Z</time>
      </trkpt>
      <trkpt lat="46.41623" lon="-1.56996">
        <ele>10.5</ele>
        <time>2020-06-03T09:31:22Z</time>
      </trkpt>
      <trkpt lat="46.41627" lon="-1.57002">
        <ele>10.4</ele>
        <time>2020-06-03T09:31:23Z</time>
      </trkpt>
      <trkpt lat="46.41632" lon="-1.5701">
        <ele>10.3</ele>
        <time>2020-06-03T09:31:24Z</time>
      </trkpt>
      <trkpt lat="46.41637" lon="-1.57017">
        <ele>10.3</ele>
        <time>2020-06-03T09:31:25Z</time>
      </trkpt>
      <trkpt lat="46.41639" lon="-1.57026">
        <ele>10.3</ele>
        <time>2020-06-03T09:31:26Z</time>
      </trkpt>
      <trkpt lat="46.41642" lon="-1.57033">
        <ele>10.2</ele>
        <time>2020-06-03T09:31:27Z</time>
      </trkpt>
      <trkpt lat="46.41644" lon="-1.57041">
        <ele>10.2</ele>
        <time>2020-06-03T09:31:28Z</time>
      </trkpt>
      <trkpt lat="46.41647" lon="-1.57048">
        <ele>10.2</ele>
        <time>2020-06-03T09:31:29Z</time>
      </trkpt>
      <trkpt lat="46.41649" lon="-1.57055">
        <ele>10.2</ele>
        <time>2020-06-03T09:31:30Z</time>
      </trkpt>
      <trkpt lat="46.41653" lon="-1.57063">
        <ele>10.2</ele>
        <time>2020-06-03T09:31:31Z</time>
      </trkpt>
      <trkpt lat="46.41656" lon="-1.57071">
        <ele>10.2</ele>
        <time>2020-06-03T09:31:32Z</time>
      </trkpt>
      <trkpt lat="46.41659" lon="-1.57079">
        <ele>10.2</ele>
        <time>2020-06-03T09:31:33Z</time>
      </trkpt>
      <trkpt lat="46.41662" lon="-1.57087">
        <ele>10.2</ele>
        <time>2020-06-03T09:31:34Z</time>
      </trkpt>
      <trkpt lat="46.41664" lon="-1.57095">
        <ele>10.2</ele>
        <time>2020-06-03T09:31:35Z</time>
      </trkpt>
      <trkpt lat="46.41666" lon="-1.57102">
        <ele>10.2</ele>
        <time>2020-06-03T09:31:36Z</time>
      </trkpt>
      <trkpt lat="46.41669" lon="-1.5711">
        <ele>10.2</ele>
        <time>2020-06-03T09:31:37Z</time>
      </trkpt>
      <trkpt lat="46.41671" lon="-1.57118">
        <ele>10.2</ele>
        <time>2020-06-03T09:31:38Z</time>
      </trkpt>
      <trkpt lat="46.41673" lon="-1.57125">
        <ele>10.2</ele>
        <time>2020-06-03T09:31:39Z</time>
      </trkpt>
      <trkpt lat="46.41674" lon="-1.57134">
        <ele>10.2</ele>
        <time>2020-06-03T09:31:40Z</time>
      </trkpt>
      <trkpt lat="46.41676" lon="-1.57142">
        <ele>10.2</ele>
        <time>2020-06-03T09:31:41Z</time>
      </trkpt>
      <trkpt lat="46.41678" lon="-1.57152">
        <ele>10.2</ele>
        <time>2020-06-03T09:31:42Z</time>
      </trkpt>
      <trkpt lat="46.41679" lon="-1.57159">
        <ele>10.2</ele>
        <time>2020-06-03T09:31:43Z</time>
      </trkpt>
      <trkpt lat="46.4168" lon="-1.57165">
        <ele>10.2</ele>
        <time>2020-06-03T09:31:44Z</time>
      </trkpt>
      <trkpt lat="46.4168" lon="-1.57171">
        <ele>10.2</ele>
        <time>2020-06-03T09:31:45Z</time>
      </trkpt>
      <trkpt lat="46.41681" lon="-1.57177">
        <ele>10.2</ele>
        <time>2020-06-03T09:31:46Z</time>
      </trkpt>
      <trkpt lat="46.41681" lon="-1.57179">
        <ele>10.2</ele>
        <time>2020-06-03T09:31:47Z</time>
      </trkpt>
      <trkpt lat="46.41683" lon="-1.57184">
        <ele>10.2</ele>
        <time>2020-06-03T09:31:48Z</time>
      </trkpt>
      <trkpt lat="46.41688" lon="-1.5719">
        <ele>10.1</ele>
        <time>2020-06-03T09:31:49Z</time>
      </trkpt>
      <trkpt lat="46.41691" lon="-1.57196">
        <ele>10.1</ele>
        <time>2020-06-03T09:31:50Z</time>
      </trkpt>
      <trkpt lat="46.41694" lon="-1.57202">
        <ele>10.1</ele>
        <time>2020-06-03T09:31:51Z</time>
      </trkpt>
      <trkpt lat="46.41698" lon="-1.57208">
        <ele>10.2</ele>
        <time>2020-06-03T09:31:52Z</time>
      </trkpt>
      <trkpt lat="46.41702" lon="-1.57215">
        <ele>10.2</ele>
        <time>2020-06-03T09:31:53Z</time>
      </trkpt>
      <trkpt lat="46.41705" lon="-1.57221">
        <ele>10.2</ele>
        <time>2020-06-03T09:31:54Z</time>
      </trkpt>
      <trkpt lat="46.4171" lon="-1.57229">
        <ele>10.2</ele>
        <time>2020-06-03T09:31:55Z</time>
      </trkpt>
      <trkpt lat="46.41714" lon="-1.57238">
        <ele>10.2</ele>
        <time>2020-06-03T09:31:56Z</time>
      </trkpt>
      <trkpt lat="46.41717" lon="-1.57246">
        <ele>10.3</ele>
        <time>2020-06-03T09:31:57Z</time>
      </trkpt>
      <trkpt lat="46.41719" lon="-1.57254">
        <ele>10.3</ele>
        <time>2020-06-03T09:31:58Z</time>
      </trkpt>
      <trkpt lat="46.41722" lon="-1.5726">
        <ele>10.3</ele>
        <time>2020-06-03T09:31:59Z</time>
      </trkpt>
      <trkpt lat="46.41725" lon="-1.57266">
        <ele>10.3</ele>
        <time>2020-06-03T09:32:00Z</time>
      </trkpt>
      <trkpt lat="46.41729" lon="-1.57271">
        <ele>10.3</ele>
        <time>2020-06-03T09:32:01Z</time>
      </trkpt>
      <trkpt lat="46.41733" lon="-1.57276">
        <ele>10.4</ele>
        <time>2020-06-03T09:32:02Z</time>
      </trkpt>
      <trkpt lat="46.41737" lon="-1.57282">
        <ele>10.4</ele>
        <time>2020-06-03T09:32:03Z</time>
      </trkpt>
      <trkpt lat="46.41741" lon="-1.57288">
        <ele>10.4</ele>
        <time>2020-06-03T09:32:04Z</time>
      </trkpt>
      <trkpt lat="46.41745" lon="-1.57292">
        <ele>10.4</ele>
        <time>2020-06-03T09:32:05Z</time>
      </trkpt>
      <trkpt lat="46.4175" lon="-1.57298">
        <ele>10.4</ele>
        <time>2020-06-03T09:32:06Z</time>
      </trkpt>
      <trkpt lat="46.41754" lon="-1.57305">
        <ele>10.4</ele>
        <time>2020-06-03T09:32:07Z</time>
      </trkpt>
      <trkpt lat="46.41757" lon="-1.57311">
        <ele>10.4</ele>
        <time>2020-06-03T09:32:08Z</time>
      </trkpt>
      <trkpt lat="46.4176" lon="-1.57315">
        <ele>10.4</ele>
        <time>2020-06-03T09:32:09Z</time>
      </trkpt>
      <trkpt lat="46.41764" lon="-1.5732">
        <ele>10.4</ele>
        <time>2020-06-03T09:32:10Z</time>
      </trkpt>
      <trkpt lat="46.41768" lon="-1.57325">
        <ele>10.4</ele>
        <time>2020-06-03T09:32:11Z</time>
      </trkpt>
      <trkpt lat="46.41772" lon="-1.57331">
        <ele>10.5</ele>
        <time>2020-06-03T09:32:12Z</time>
      </trkpt>
      <trkpt lat="46.41776" lon="-1.57337">
        <ele>10.5</ele>
        <time>2020-06-03T09:32:13Z</time>
      </trkpt>
      <trkpt lat="46.4178" lon="-1.57343">
        <ele>10.5</ele>
        <time>2020-06-03T09:32:14Z</time>
      </trkpt>
      <trkpt lat="46.41783" lon="-1.57348">
        <ele>10.5</ele>
        <time>2020-06-03T09:32:15Z</time>
      </trkpt>
      <trkpt lat="46.41788" lon="-1.57355">
        <ele>10.5</ele>
        <time>2020-06-03T09:32:16Z</time>
      </trkpt>
      <trkpt lat="46.41793" lon="-1.57361">
        <ele>10.5</ele>
        <time>2020-06-03T09:32:17Z</time>
      </trkpt>
      <trkpt lat="46.41797" lon="-1.57367">
        <ele>10.5</ele>
        <time>2020-06-03T09:32:18Z</time>
      </trkpt>
      <trkpt lat="46.41799" lon="-1.57372">
        <ele>10.5</ele>
        <time>2020-06-03T09:32:19Z</time>
      </trkpt>
      <trkpt lat="46.41802" lon="-1.57377">
        <ele>10.6</ele>
        <time>2020-06-03T09:32:20Z</time>
      </trkpt>
      <trkpt lat="46.41805" lon="-1.57382">
        <ele>10.6</ele>
        <time>2020-06-03T09:32:21Z</time>
      </trkpt>
      <trkpt lat="46.41808" lon="-1.57386">
        <ele>10.7</ele>
        <time>2020-06-03T09:32:22Z</time>
      </trkpt>
      <trkpt lat="46.41809" lon="-1.57391">
        <ele>10.7</ele>
        <time>2020-06-03T09:32:23Z</time>
      </trkpt>
      <trkpt lat="46.4181" lon="-1.57397">
        <ele>10.8</ele>
        <time>2020-06-03T09:32:24Z</time>
      </trkpt>
      <trkpt lat="46.41812" lon="-1.57401">
        <ele>10.8</ele>
        <time>2020-06-03T09:32:25Z</time>
      </trkpt>
      <trkpt lat="46.41813" lon="-1.57403">
        <ele>10.9</ele>
        <time>2020-06-03T09:32:26Z</time>
      </trkpt>
      <trkpt lat="46.41814" lon="-1.57404">
        <ele>10.9</ele>
        <time>2020-06-03T09:32:27Z</time>
      </trkpt>
      <trkpt lat="46.41815" lon="-1.57406">
        <ele>10.9</ele>
        <time>2020-06-03T09:32:28Z</time>
      </trkpt>
      <trkpt lat="46.41815" lon="-1.57408">
        <ele>11</ele>
        <time>2020-06-03T09:32:29Z</time>
      </trkpt>
      <trkpt lat="46.41815" lon="-1.57411">
        <ele>11</ele>
        <time>2020-06-03T09:32:30Z</time>
      </trkpt>
      <trkpt lat="46.41814" lon="-1.57415">
        <ele>11.1</ele>
        <time>2020-06-03T09:32:31Z</time>
      </trkpt>
      <trkpt lat="46.41813" lon="-1.5742">
        <ele>11.1</ele>
        <time>2020-06-03T09:32:32Z</time>
      </trkpt>
      <trkpt lat="46.41811" lon="-1.57425">
        <ele>11.2</ele>
        <time>2020-06-03T09:32:33Z</time>
      </trkpt>
      <trkpt lat="46.41809" lon="-1.57427">
        <ele>11.2</ele>
        <time>2020-06-03T09:32:34Z</time>
      </trkpt>
      <trkpt lat="46.41806" lon="-1.5743">
        <ele>11.2</ele>
        <time>2020-06-03T09:32:35Z</time>
      </trkpt>
      <trkpt lat="46.41804" lon="-1.57434">
        <ele>11.3</ele>
        <time>2020-06-03T09:32:36Z</time>
      </trkpt>
      <trkpt lat="46.41802" lon="-1.57437">
        <ele>11.3</ele>
        <time>2020-06-03T09:32:37Z</time>
      </trkpt>
      <trkpt lat="46.41799" lon="-1.5744">
        <ele>11.4</ele>
        <time>2020-06-03T09:32:38Z</time>
      </trkpt>
      <trkpt lat="46.41795" lon="-1.57445">
        <ele>11.5</ele>
        <time>2020-06-03T09:32:39Z</time>
      </trkpt>
      <trkpt lat="46.41791" lon="-1.57449">
        <ele>11.5</ele>
        <time>2020-06-03T09:32:40Z</time>
      </trkpt>
      <trkpt lat="46.41789" lon="-1.57454">
        <ele>11.6</ele>
        <time>2020-06-03T09:32:41Z</time>
      </trkpt>
      <trkpt lat="46.41785" lon="-1.57458">
        <ele>11.6</ele>
        <time>2020-06-03T09:32:42Z</time>
      </trkpt>
      <trkpt lat="46.41781" lon="-1.57462">
        <ele>11.7</ele>
        <time>2020-06-03T09:32:43Z</time>
      </trkpt>
      <trkpt lat="46.41776" lon="-1.57467">
        <ele>11.8</ele>
        <time>2020-06-03T09:32:44Z</time>
      </trkpt>
      <trkpt lat="46.41773" lon="-1.5747">
        <ele>11.8</ele>
        <time>2020-06-03T09:32:45Z</time>
      </trkpt>
      <trkpt lat="46.4177" lon="-1.57472">
        <ele>11.9</ele>
        <time>2020-06-03T09:32:46Z</time>
      </trkpt>
      <trkpt lat="46.41768" lon="-1.57475">
        <ele>11.9</ele>
        <time>2020-06-03T09:32:47Z</time>
      </trkpt>
      <trkpt lat="46.41768" lon="-1.57477">
        <ele>11.9</ele>
        <time>2020-06-03T09:32:48Z</time>
      </trkpt>
      <trkpt lat="46.41764" lon="-1.5748">
        <ele>11.9</ele>
        <time>2020-06-03T09:32:49Z</time>
      </trkpt>
      <trkpt lat="46.41763" lon="-1.57481">
        <ele>11.9</ele>
        <time>2020-06-03T09:32:50Z</time>
      </trkpt>
      <trkpt lat="46.4176" lon="-1.57484">
        <ele>11.9</ele>
        <time>2020-06-03T09:32:51Z</time>
      </trkpt>
      <trkpt lat="46.41756" lon="-1.57487">
        <ele>11.9</ele>
        <time>2020-06-03T09:32:52Z</time>
      </trkpt>
      <trkpt lat="46.41751" lon="-1.57492">
        <ele>11.9</ele>
        <time>2020-06-03T09:32:53Z</time>
      </trkpt>
      <trkpt lat="46.41748" lon="-1.57497">
        <ele>11.9</ele>
        <time>2020-06-03T09:32:54Z</time>
      </trkpt>
      <trkpt lat="46.41745" lon="-1.57502">
        <ele>11.9</ele>
        <time>2020-06-03T09:32:55Z</time>
      </trkpt>
      <trkpt lat="46.41741" lon="-1.57506">
        <ele>12</ele>
        <time>2020-06-03T09:32:56Z</time>
      </trkpt>
      <trkpt lat="46.41738" lon="-1.5751">
        <ele>12</ele>
        <time>2020-06-03T09:32:57Z</time>
      </trkpt>
      <trkpt lat="46.41735" lon="-1.57515">
        <ele>12.1</ele>
        <time>2020-06-03T09:32:58Z</time>
      </trkpt>
      <trkpt lat="46.41731" lon="-1.57518">
        <ele>12.1</ele>
        <time>2020-06-03T09:32:59Z</time>
      </trkpt>
      <trkpt lat="46.41727" lon="-1.57523">
        <ele>12.2</ele>
        <time>2020-06-03T09:33:00Z</time>
      </trkpt>
      <trkpt lat="46.41723" lon="-1.57528">
        <ele>12.2</ele>
        <time>2020-06-03T09:33:01Z</time>
      </trkpt>
      <trkpt lat="46.4172" lon="-1.57532">
        <ele>12.2</ele>
        <time>2020-06-03T09:33:02Z</time>
      </trkpt>
      <trkpt lat="46.41717" lon="-1.57534">
        <ele>12.3</ele>
        <time>2020-06-03T09:33:03Z</time>
      </trkpt>
      <trkpt lat="46.41715" lon="-1.5754">
        <ele>12.3</ele>
        <time>2020-06-03T09:33:04Z</time>
      </trkpt>
      <trkpt lat="46.41713" lon="-1.57545">
        <ele>12.3</ele>
        <time>2020-06-03T09:33:05Z</time>
      </trkpt>
      <trkpt lat="46.41711" lon="-1.57548">
        <ele>12.3</ele>
        <time>2020-06-03T09:33:06Z</time>
      </trkpt>
      <trkpt lat="46.41709" lon="-1.5755">
        <ele>12.4</ele>
        <time>2020-06-03T09:33:07Z</time>
      </trkpt>
      <trkpt lat="46.41708" lon="-1.5755">
        <ele>12.4</ele>
        <time>2020-06-03T09:33:08Z</time>
      </trkpt>
      <trkpt lat="46.41705" lon="-1.57553">
        <ele>12.5</ele>
        <time>2020-06-03T09:33:09Z</time>
      </trkpt>
      <trkpt lat="46.41704" lon="-1.57555">
        <ele>12.5</ele>
        <time>2020-06-03T09:33:10Z</time>
      </trkpt>
      <trkpt lat="46.41703" lon="-1.57556">
        <ele>12.5</ele>
        <time>2020-06-03T09:33:11Z</time>
      </trkpt>
      <trkpt lat="46.41701" lon="-1.57557">
        <ele>12.5</ele>
        <time>2020-06-03T09:33:12Z</time>
      </trkpt>
      <trkpt lat="46.417" lon="-1.57557">
        <ele>12.5</ele>
        <time>2020-06-03T09:33:13Z</time>
      </trkpt>
      <trkpt lat="46.41699" lon="-1.57557">
        <ele>12.5</ele>
        <time>2020-06-03T09:33:14Z</time>
      </trkpt>
      <trkpt lat="46.41697" lon="-1.57557">
        <ele>12.5</ele>
        <time>2020-06-03T09:33:15Z</time>
      </trkpt>
      <trkpt lat="46.41696" lon="-1.57557">
        <ele>12.5</ele>
        <time>2020-06-03T09:33:16Z</time>
      </trkpt>
      <trkpt lat="46.41696" lon="-1.57558">
        <ele>12.5</ele>
        <time>2020-06-03T09:33:17Z</time>
      </trkpt>
      <trkpt lat="46.41696" lon="-1.57558">
        <ele>12.5</ele>
        <time>2020-06-03T09:33:18Z</time>
      </trkpt>
      <trkpt lat="46.41696" lon="-1.57558">
        <ele>12.5</ele>
        <time>2020-06-03T09:33:19Z</time>
      </trkpt>
      <trkpt lat="46.41696" lon="-1.57558">
        <ele>12.5</ele>
        <time>2020-06-03T09:33:20Z</time>
      </trkpt>
      <trkpt lat="46.41696" lon="-1.57558">
        <ele>12.5</ele>
        <time>2020-06-03T09:33:21Z</time>
      </trkpt>
      <trkpt lat="46.41696" lon="-1.57558">
        <ele>12.5</ele>
        <time>2020-06-03T09:33:22Z</time>
      </trkpt>
      <trkpt lat="46.41696" lon="-1.57557">
        <ele>12.5</ele>
        <time>2020-06-03T09:33:23Z</time>
      </trkpt>
      <trkpt lat="46.41696" lon="-1.57556">
        <ele>12.5</ele>
        <time>2020-06-03T09:33:24Z</time>
      </trkpt>
      <trkpt lat="46.41697" lon="-1.57556">
        <ele>12.5</ele>
        <time>2020-06-03T09:33:25Z</time>
      </trkpt>
      <trkpt lat="46.41697" lon="-1.57557">
        <ele>12.5</ele>
        <time>2020-06-03T09:33:26Z</time>
      </trkpt>
      <trkpt lat="46.41697" lon="-1.57557">
        <ele>12.5</ele>
        <time>2020-06-03T09:33:27Z</time>
      </trkpt>
      <trkpt lat="46.41697" lon="-1.57557">
        <ele>12.5</ele>
        <time>2020-06-03T09:33:28Z</time>
      </trkpt>
      <trkpt lat="46.41697" lon="-1.57557">
        <ele>12.5</ele>
        <time>2020-06-03T09:33:29Z</time>
      </trkpt>
      <trkpt lat="46.41697" lon="-1.57557">
        <ele>12.5</ele>
        <time>2020-06-03T09:33:30Z</time>
      </trkpt>
      <trkpt lat="46.41697" lon="-1.57557">
        <ele>12.5</ele>
        <time>2020-06-03T09:33:31Z</time>
      </trkpt>
      <trkpt lat="46.41697" lon="-1.57557">
        <ele>12.5</ele>
        <time>2020-06-03T09:33:32Z</time>
      </trkpt>
      <trkpt lat="46.41697" lon="-1.57557">
        <ele>12.5</ele>
        <time>2020-06-03T09:33:33Z</time>
      </trkpt>
      <trkpt lat="46.41697" lon="-1.57557">
        <ele>12.5</ele>
        <time>2020-06-03T09:33:34Z</time>
      </trkpt>
      <trkpt lat="46.41697" lon="-1.57557">
        <ele>12.5</ele>
        <time>2020-06-03T09:33:35Z</time>
      </trkpt>
      <trkpt lat="46.41697" lon="-1.57556">
        <ele>12.5</ele>
        <time>2020-06-03T09:33:36Z</time>
      </trkpt>
      <trkpt lat="46.41697" lon="-1.57556">
        <ele>12.5</ele>
        <time>2020-06-03T09:33:37Z</time>
      </trkpt>
      <trkpt lat="46.41697" lon="-1.57556">
        <ele>12.5</ele>
        <time>2020-06-03T09:33:38Z</time>
      </trkpt>
      <trkpt lat="46.41697" lon="-1.57556">
        <ele>12.5</ele>
        <time>2020-06-03T09:33:39Z</time>
      </trkpt>
      <trkpt lat="46.41697" lon="-1.57556">
        <ele>12.5</ele>
        <time>2020-06-03T09:33:40Z</time>
      </trkpt>
      <trkpt lat="46.41697" lon="-1.57557">
        <ele>12.5</ele>
        <time>2020-06-03T09:33:41Z</time>
      </trkpt>
      <trkpt lat="46.41697" lon="-1.57556">
        <ele>12.5</ele>
        <time>2020-06-03T09:33:42Z</time>
      </trkpt>
      <trkpt lat="46.41697" lon="-1.57556">
        <ele>12.5</ele>
        <time>2020-06-03T09:33:43Z</time>
      </trkpt>
      <trkpt lat="46.41697" lon="-1.57556">
        <ele>12.5</ele>
        <time>2020-06-03T09:33:44Z</time>
      </trkpt>
      <trkpt lat="46.41697" lon="-1.57556">
        <ele>12.5</ele>
        <time>2020-06-03T09:33:45Z</time>
      </trkpt>
      <trkpt lat="46.41696" lon="-1.57556">
        <ele>12.5</ele>
        <time>2020-06-03T09:33:46Z</time>
      </trkpt>
      <trkpt lat="46.41696" lon="-1.57556">
        <ele>12.5</ele>
        <time>2020-06-03T09:33:47Z</time>
      </trkpt>
      <trkpt lat="46.41696" lon="-1.57556">
        <ele>12.5</ele>
        <time>2020-06-03T09:33:48Z</time>
      </trkpt>
      <trkpt lat="46.41695" lon="-1.57557">
        <ele>12.5</ele>
        <time>2020-06-03T09:33:49Z</time>
      </trkpt>
      <trkpt lat="46.41695" lon="-1.57557">
        <ele>12.5</ele>
        <time>2020-06-03T09:33:50Z</time>
      </trkpt>
      <trkpt lat="46.41694" lon="-1.57557">
        <ele>12.5</ele>
        <time>2020-06-03T09:33:51Z</time>
      </trkpt>
      <trkpt lat="46.41694" lon="-1.57557">
        <ele>12.5</ele>
        <time>2020-06-03T09:33:52Z</time>
      </trkpt>
      <trkpt lat="46.41694" lon="-1.57558">
        <ele>12.5</ele>
        <time>2020-06-03T09:33:53Z</time>
      </trkpt>
      <trkpt lat="46.41694" lon="-1.5756">
        <ele>12.5</ele>
        <time>2020-06-03T09:33:54Z</time>
      </trkpt>
      <trkpt lat="46.41693" lon="-1.57561">
        <ele>12.5</ele>
        <time>2020-06-03T09:33:55Z</time>
      </trkpt>
      <trkpt lat="46.41693" lon="-1.57562">
        <ele>12.5</ele>
        <time>2020-06-03T09:33:56Z</time>
      </trkpt>
      <trkpt lat="46.41692" lon="-1.57562">
        <ele>12.5</ele>
        <time>2020-06-03T09:33:57Z</time>
      </trkpt>
      <trkpt lat="46.41691" lon="-1.57563">
        <ele>12.5</ele>
        <time>2020-06-03T09:33:58Z</time>
      </trkpt>
      <trkpt lat="46.4169" lon="-1.57564">
        <ele>12.5</ele>
        <time>2020-06-03T09:33:59Z</time>
      </trkpt>
      <trkpt lat="46.41692" lon="-1.57564">
        <ele>12.5</ele>
        <time>2020-06-03T09:34:00Z</time>
      </trkpt>
      <trkpt lat="46.41692" lon="-1.57564">
        <ele>12.5</ele>
        <time>2020-06-03T09:34:01Z</time>
      </trkpt>
      <trkpt lat="46.41694" lon="-1.57562">
        <ele>12.5</ele>
        <time>2020-06-03T09:34:02Z</time>
      </trkpt>
      <trkpt lat="46.41694" lon="-1.57562">
        <ele>12.5</ele>
        <time>2020-06-03T09:34:03Z</time>
      </trkpt>
      <trkpt lat="46.41694" lon="-1.57562">
        <ele>12.5</ele>
        <time>2020-06-03T09:34:04Z</time>
      </trkpt>
      <trkpt lat="46.41694" lon="-1.57563">
        <ele>12.5</ele>
        <time>2020-06-03T09:34:05Z</time>
      </trkpt>
      <trkpt lat="46.41695" lon="-1.57564">
        <ele>12.5</ele>
        <time>2020-06-03T09:34:06Z</time>
      </trkpt>
      <trkpt lat="46.41695" lon="-1.57564">
        <ele>12.5</ele>
        <time>2020-06-03T09:34:07Z</time>
      </trkpt>
      <trkpt lat="46.41695" lon="-1.57564">
        <ele>12.5</ele>
        <time>2020-06-03T09:34:08Z</time>
      </trkpt>
      <trkpt lat="46.41696" lon="-1.57565">
        <ele>12.5</ele>
        <time>2020-06-03T09:34:09Z</time>
      </trkpt>
      <trkpt lat="46.41697" lon="-1.57565">
        <ele>12.5</ele>
        <time>2020-06-03T09:34:10Z</time>
      </trkpt>
      <trkpt lat="46.41697" lon="-1.57564">
        <ele>12.5</ele>
        <time>2020-06-03T09:34:11Z</time>
      </trkpt>
      <trkpt lat="46.41698" lon="-1.57563">
        <ele>12.4</ele>
        <time>2020-06-03T09:34:12Z</time>
      </trkpt>
      <trkpt lat="46.41699" lon="-1.57562">
        <ele>12.4</ele>
        <time>2020-06-03T09:34:13Z</time>
      </trkpt>
      <trkpt lat="46.417" lon="-1.57562">
        <ele>12.4</ele>
        <time>2020-06-03T09:34:14Z</time>
      </trkpt>
      <trkpt lat="46.417" lon="-1.5756">
        <ele>12.4</ele>
        <time>2020-06-03T09:34:15Z</time>
      </trkpt>
      <trkpt lat="46.41701" lon="-1.57559">
        <ele>12.4</ele>
        <time>2020-06-03T09:34:16Z</time>
      </trkpt>
      <trkpt lat="46.41702" lon="-1.57559">
        <ele>12.4</ele>
        <time>2020-06-03T09:34:17Z</time>
      </trkpt>
      <trkpt lat="46.41702" lon="-1.57557">
        <ele>12.4</ele>
        <time>2020-06-03T09:34:18Z</time>
      </trkpt>
      <trkpt lat="46.41702" lon="-1.57556">
        <ele>12.4</ele>
        <time>2020-06-03T09:34:19Z</time>
      </trkpt>
      <trkpt lat="46.41703" lon="-1.57556">
        <ele>12.4</ele>
        <time>2020-06-03T09:34:20Z</time>
      </trkpt>
      <trkpt lat="46.41703" lon="-1.57555">
        <ele>12.4</ele>
        <time>2020-06-03T09:34:21Z</time>
      </trkpt>
      <trkpt lat="46.41703" lon="-1.57556">
        <ele>12.4</ele>
        <time>2020-06-03T09:34:22Z</time>
      </trkpt>
      <trkpt lat="46.41704" lon="-1.57557">
        <ele>12.4</ele>
        <time>2020-06-03T09:34:23Z</time>
      </trkpt>
      <trkpt lat="46.41703" lon="-1.57558">
        <ele>12.4</ele>
        <time>2020-06-03T09:34:24Z</time>
      </trkpt>
      <trkpt lat="46.41703" lon="-1.57558">
        <ele>12.4</ele>
        <time>2020-06-03T09:34:25Z</time>
      </trkpt>
      <trkpt lat="46.41703" lon="-1.57558">
        <ele>12.4</ele>
        <time>2020-06-03T09:34:26Z</time>
      </trkpt>
      <trkpt lat="46.41703" lon="-1.57558">
        <ele>12.4</ele>
        <time>2020-06-03T09:34:27Z</time>
      </trkpt>
      <trkpt lat="46.41703" lon="-1.57558">
        <ele>12.4</ele>
        <time>2020-06-03T09:34:28Z</time>
      </trkpt>
      <trkpt lat="46.41703" lon="-1.57558">
        <ele>12.4</ele>
        <time>2020-06-03T09:34:29Z</time>
      </trkpt>
      <trkpt lat="46.41703" lon="-1.57558">
        <ele>12.4</ele>
        <time>2020-06-03T09:34:30Z</time>
      </trkpt>
      <trkpt lat="46.41703" lon="-1.57558">
        <ele>12.4</ele>
        <time>2020-06-03T09:34:31Z</time>
      </trkpt>
      <trkpt lat="46.41703" lon="-1.57558">
        <ele>12.4</ele>
        <time>2020-06-03T09:34:32Z</time>
      </trkpt>
      <trkpt lat="46.41703" lon="-1.57558">
        <ele>12.4</ele>
        <time>2020-06-03T09:34:33Z</time>
      </trkpt>
      <trkpt lat="46.41702" lon="-1.57557">
        <ele>12.4</ele>
        <time>2020-06-03T09:34:34Z</time>
      </trkpt>
      <trkpt lat="46.41702" lon="-1.57558">
        <ele>12.4</ele>
        <time>2020-06-03T09:34:35Z</time>
      </trkpt>
      <trkpt lat="46.41703" lon="-1.57557">
        <ele>12.4</ele>
        <time>2020-06-03T09:34:36Z</time>
      </trkpt>
      <trkpt lat="46.41703" lon="-1.57557">
        <ele>12.4</ele>
        <time>2020-06-03T09:34:37Z</time>
      </trkpt>
      <trkpt lat="46.41703" lon="-1.57557">
        <ele>12.4</ele>
        <time>2020-06-03T09:34:38Z</time>
      </trkpt>
      <trkpt lat="46.41703" lon="-1.57558">
        <ele>12.4</ele>
        <time>2020-06-03T09:34:39Z</time>
      </trkpt>
      <trkpt lat="46.41708" lon="-1.57554">
        <ele>12.4</ele>
        <time>2020-06-03T10:09:09Z</time>
      </trkpt>
      <trkpt lat="46.41708" lon="-1.57554">
        <ele>12.4</ele>
        <time>2020-06-03T10:09:10Z</time>
      </trkpt>
      <trkpt lat="46.41707" lon="-1.57553">
        <ele>12.4</ele>
        <time>2020-06-03T10:09:11Z</time>
      </trkpt>
      <trkpt lat="46.41708" lon="-1.57554">
        <ele>12.4</ele>
        <time>2020-06-03T10:09:12Z</time>
      </trkpt>
      <trkpt lat="46.41708" lon="-1.57556">
        <ele>12.4</ele>
        <time>2020-06-03T10:09:13Z</time>
      </trkpt>
      <trkpt lat="46.41708" lon="-1.57556">
        <ele>12.4</ele>
        <time>2020-06-03T10:09:14Z</time>
      </trkpt>
      <trkpt lat="46.41708" lon="-1.57557">
        <ele>12.4</ele>
        <time>2020-06-03T10:09:15Z</time>
      </trkpt>
      <trkpt lat="46.41708" lon="-1.57558">
        <ele>12.4</ele>
        <time>2020-06-03T10:09:16Z</time>
      </trkpt>
      <trkpt lat="46.41708" lon="-1.57557">
        <ele>12.4</ele>
        <time>2020-06-03T10:09:17Z</time>
      </trkpt>
      <trkpt lat="46.41709" lon="-1.57555">
        <ele>12.4</ele>
        <time>2020-06-03T10:09:18Z</time>
      </trkpt>
      <trkpt lat="46.41709" lon="-1.57554">
        <ele>12.4</ele>
        <time>2020-06-03T10:09:19Z</time>
      </trkpt>
      <trkpt lat="46.41709" lon="-1.57553">
        <ele>12.4</ele>
        <time>2020-06-03T10:09:20Z</time>
      </trkpt>
      <trkpt lat="46.41709" lon="-1.57552">
        <ele>12.4</ele>
        <time>2020-06-03T10:09:21Z</time>
      </trkpt>
      <trkpt lat="46.4171" lon="-1.5755">
        <ele>12.4</ele>
        <time>2020-06-03T10:09:22Z</time>
      </trkpt>
      <trkpt lat="46.4171" lon="-1.57549">
        <ele>12.3</ele>
        <time>2020-06-03T10:09:23Z</time>
      </trkpt>
      <trkpt lat="46.4171" lon="-1.57548">
        <ele>12.3</ele>
        <time>2020-06-03T10:09:24Z</time>
      </trkpt>
      <trkpt lat="46.4171" lon="-1.57547">
        <ele>12.3</ele>
        <time>2020-06-03T10:09:59Z</time>
      </trkpt>
      <trkpt lat="46.41711" lon="-1.57545">
        <ele>12.3</ele>
        <time>2020-06-03T10:10:00Z</time>
      </trkpt>
      <trkpt lat="46.41712" lon="-1.57541">
        <ele>12.3</ele>
        <time>2020-06-03T10:10:01Z</time>
      </trkpt>
      <trkpt lat="46.41714" lon="-1.57537">
        <ele>12.3</ele>
        <time>2020-06-03T10:10:02Z</time>
      </trkpt>
      <trkpt lat="46.41717" lon="-1.57533">
        <ele>12.2</ele>
        <time>2020-06-03T10:10:03Z</time>
      </trkpt>
      <trkpt lat="46.4172" lon="-1.57528">
        <ele>12.2</ele>
        <time>2020-06-03T10:10:04Z</time>
      </trkpt>
      <trkpt lat="46.41723" lon="-1.57522">
        <ele>12.2</ele>
        <time>2020-06-03T10:10:05Z</time>
      </trkpt>
      <trkpt lat="46.41727" lon="-1.57516">
        <ele>12.1</ele>
        <time>2020-06-03T10:10:06Z</time>
      </trkpt>
      <trkpt lat="46.4173" lon="-1.57511">
        <ele>12.1</ele>
        <time>2020-06-03T10:10:07Z</time>
      </trkpt>
      <trkpt lat="46.41734" lon="-1.57506">
        <ele>12</ele>
        <time>2020-06-03T10:10:08Z</time>
      </trkpt>
      <trkpt lat="46.41736" lon="-1.57503">
        <ele>12</ele>
        <time>2020-06-03T10:10:09Z</time>
      </trkpt>
      <trkpt lat="46.41738" lon="-1.57499">
        <ele>12</ele>
        <time>2020-06-03T10:10:10Z</time>
      </trkpt>
      <trkpt lat="46.41741" lon="-1.57496">
        <ele>12</ele>
        <time>2020-06-03T10:10:11Z</time>
      </trkpt>
      <trkpt lat="46.41744" lon="-1.57493">
        <ele>11.9</ele>
        <time>2020-06-03T10:10:12Z</time>
      </trkpt>
      <trkpt lat="46.41746" lon="-1.57489">
        <ele>11.9</ele>
        <time>2020-06-03T10:10:13Z</time>
      </trkpt>
      <trkpt lat="46.41747" lon="-1.57488">
        <ele>11.9</ele>
        <time>2020-06-03T10:10:14Z</time>
      </trkpt>
      <trkpt lat="46.41748" lon="-1.57487">
        <ele>11.9</ele>
        <time>2020-06-03T10:10:15Z</time>
      </trkpt>
      <trkpt lat="46.41749" lon="-1.57486">
        <ele>11.9</ele>
        <time>2020-06-03T10:10:16Z</time>
      </trkpt>
      <trkpt lat="46.4175" lon="-1.57485">
        <ele>11.9</ele>
        <time>2020-06-03T10:10:17Z</time>
      </trkpt>
      <trkpt lat="46.4175" lon="-1.57484">
        <ele>11.9</ele>
        <time>2020-06-03T10:10:18Z</time>
      </trkpt>
      <trkpt lat="46.41751" lon="-1.57483">
        <ele>11.9</ele>
        <time>2020-06-03T10:10:19Z</time>
      </trkpt>
      <trkpt lat="46.41754" lon="-1.5748">
        <ele>11.9</ele>
        <time>2020-06-03T10:10:20Z</time>
      </trkpt>
      <trkpt lat="46.41755" lon="-1.57479">
        <ele>11.9</ele>
        <time>2020-06-03T10:10:21Z</time>
      </trkpt>
      <trkpt lat="46.41757" lon="-1.57475">
        <ele>11.9</ele>
        <time>2020-06-03T10:10:22Z</time>
      </trkpt>
      <trkpt lat="46.41757" lon="-1.57474">
        <ele>11.9</ele>
        <time>2020-06-03T10:10:23Z</time>
      </trkpt>
      <trkpt lat="46.41759" lon="-1.5747">
        <ele>11.9</ele>
        <time>2020-06-03T10:10:24Z</time>
      </trkpt>
      <trkpt lat="46.4176" lon="-1.57469">
        <ele>11.9</ele>
        <time>2020-06-03T10:10:25Z</time>
      </trkpt>
      <trkpt lat="46.41764" lon="-1.57466">
        <ele>11.9</ele>
        <time>2020-06-03T10:10:26Z</time>
      </trkpt>
      <trkpt lat="46.41766" lon="-1.57465">
        <ele>11.8</ele>
        <time>2020-06-03T10:10:27Z</time>
      </trkpt>
      <trkpt lat="46.41769" lon="-1.57461">
        <ele>11.8</ele>
        <time>2020-06-03T10:10:28Z</time>
      </trkpt>
      <trkpt lat="46.41773" lon="-1.57458">
        <ele>11.7</ele>
        <time>2020-06-03T10:10:29Z</time>
      </trkpt>
      <trkpt lat="46.41777" lon="-1.57455">
        <ele>11.7</ele>
        <time>2020-06-03T10:10:30Z</time>
      </trkpt>
      <trkpt lat="46.41781" lon="-1.57451">
        <ele>11.6</ele>
        <time>2020-06-03T10:10:31Z</time>
      </trkpt>
      <trkpt lat="46.41785" lon="-1.57447">
        <ele>11.5</ele>
        <time>2020-06-03T10:10:32Z</time>
      </trkpt>
      <trkpt lat="46.41788" lon="-1.57443">
        <ele>11.5</ele>
        <time>2020-06-03T10:10:33Z</time>
      </trkpt>
      <trkpt lat="46.41792" lon="-1.57439">
        <ele>11.4</ele>
        <time>2020-06-03T10:10:34Z</time>
      </trkpt>
      <trkpt lat="46.41795" lon="-1.57434">
        <ele>11.3</ele>
        <time>2020-06-03T10:10:35Z</time>
      </trkpt>
      <trkpt lat="46.41799" lon="-1.5743">
        <ele>11.2</ele>
        <time>2020-06-03T10:10:36Z</time>
      </trkpt>
      <trkpt lat="46.41802" lon="-1.57427">
        <ele>11.2</ele>
        <time>2020-06-03T10:10:37Z</time>
      </trkpt>
      <trkpt lat="46.41805" lon="-1.57423">
        <ele>11.1</ele>
        <time>2020-06-03T10:10:38Z</time>
      </trkpt>
      <trkpt lat="46.41807" lon="-1.57419">
        <ele>11.1</ele>
        <time>2020-06-03T10:10:39Z</time>
      </trkpt>
      <trkpt lat="46.41808" lon="-1.57415">
        <ele>11.1</ele>
        <time>2020-06-03T10:10:40Z</time>
      </trkpt>
      <trkpt lat="46.41811" lon="-1.57411">
        <ele>11</ele>
        <time>2020-06-03T10:10:41Z</time>
      </trkpt>
      <trkpt lat="46.41812" lon="-1.5741">
        <ele>11</ele>
        <time>2020-06-03T10:10:42Z</time>
      </trkpt>
      <trkpt lat="46.41813" lon="-1.57409">
        <ele>11</ele>
        <time>2020-06-03T10:10:43Z</time>
      </trkpt>
      <trkpt lat="46.41815" lon="-1.57408">
        <ele>11.1</ele>
        <time>2020-06-03T10:10:44Z</time>
      </trkpt>
      <trkpt lat="46.41816" lon="-1.57408">
        <ele>11.1</ele>
        <time>2020-06-03T10:10:45Z</time>
      </trkpt>
      <trkpt lat="46.41817" lon="-1.57409">
        <ele>11.1</ele>
        <time>2020-06-03T10:10:46Z</time>
      </trkpt>
      <trkpt lat="46.41817" lon="-1.57409">
        <ele>11.1</ele>
        <time>2020-06-03T10:10:47Z</time>
      </trkpt>
      <trkpt lat="46.41818" lon="-1.57411">
        <ele>11.1</ele>
        <time>2020-06-03T10:10:48Z</time>
      </trkpt>
      <trkpt lat="46.41817" lon="-1.57416">
        <ele>11.1</ele>
        <time>2020-06-03T10:10:49Z</time>
      </trkpt>
      <trkpt lat="46.41817" lon="-1.57417">
        <ele>11.2</ele>
        <time>2020-06-03T10:10:50Z</time>
      </trkpt>
      <trkpt lat="46.41813" lon="-1.57419">
        <ele>11.2</ele>
        <time>2020-06-03T10:10:51Z</time>
      </trkpt>
      <trkpt lat="46.41812" lon="-1.5742">
        <ele>11.2</ele>
        <time>2020-06-03T10:10:52Z</time>
      </trkpt>
      <trkpt lat="46.41809" lon="-1.57423">
        <ele>11.2</ele>
        <time>2020-06-03T10:10:53Z</time>
      </trkpt>
      <trkpt lat="46.41808" lon="-1.57424">
        <ele>11.3</ele>
        <time>2020-06-03T10:10:54Z</time>
      </trkpt>
      <trkpt lat="46.41806" lon="-1.57428">
        <ele>11.3</ele>
        <time>2020-06-03T10:10:55Z</time>
      </trkpt>
      <trkpt lat="46.41805" lon="-1.57429">
        <ele>11.3</ele>
        <time>2020-06-03T10:10:56Z</time>
      </trkpt>
      <trkpt lat="46.41802" lon="-1.57432">
        <ele>11.4</ele>
        <time>2020-06-03T10:10:57Z</time>
      </trkpt>
      <trkpt lat="46.41801" lon="-1.57434">
        <ele>11.4</ele>
        <time>2020-06-03T10:10:58Z</time>
      </trkpt>
      <trkpt lat="46.41799" lon="-1.57437">
        <ele>11.4</ele>
        <time>2020-06-03T10:10:59Z</time>
      </trkpt>
      <trkpt lat="46.41798" lon="-1.57439">
        <ele>11.4</ele>
        <time>2020-06-03T10:11:00Z</time>
      </trkpt>
      <trkpt lat="46.41795" lon="-1.57442">
        <ele>11.5</ele>
        <time>2020-06-03T10:11:01Z</time>
      </trkpt>
      <trkpt lat="46.41794" lon="-1.57443">
        <ele>11.5</ele>
        <time>2020-06-03T10:11:02Z</time>
      </trkpt>
      <trkpt lat="46.41792" lon="-1.57446">
        <ele>11.5</ele>
        <time>2020-06-03T10:11:03Z</time>
      </trkpt>
      <trkpt lat="46.41791" lon="-1.57447">
        <ele>11.6</ele>
        <time>2020-06-03T10:11:04Z</time>
      </trkpt>
      <trkpt lat="46.41788" lon="-1.5745">
        <ele>11.6</ele>
        <time>2020-06-03T10:11:05Z</time>
      </trkpt>
      <trkpt lat="46.41785" lon="-1.57453">
        <ele>11.7</ele>
        <time>2020-06-03T10:11:06Z</time>
      </trkpt>
      <trkpt lat="46.41782" lon="-1.57455">
        <ele>11.7</ele>
        <time>2020-06-03T10:11:07Z</time>
      </trkpt>
      <trkpt lat="46.4178" lon="-1.57458">
        <ele>11.7</ele>
        <time>2020-06-03T10:11:08Z</time>
      </trkpt>
      <trkpt lat="46.41777" lon="-1.57461">
        <ele>11.8</ele>
        <time>2020-06-03T10:11:09Z</time>
      </trkpt>
      <trkpt lat="46.41775" lon="-1.57465">
        <ele>11.8</ele>
        <time>2020-06-03T10:11:10Z</time>
      </trkpt>
      <trkpt lat="46.41773" lon="-1.57468">
        <ele>11.8</ele>
        <time>2020-06-03T10:11:11Z</time>
      </trkpt>
      <trkpt lat="46.41771" lon="-1.57472">
        <ele>11.9</ele>
        <time>2020-06-03T10:11:12Z</time>
      </trkpt>
      <trkpt lat="46.4177" lon="-1.57474">
        <ele>11.9</ele>
        <time>2020-06-03T10:11:13Z</time>
      </trkpt>
      <trkpt lat="46.4177" lon="-1.57477">
        <ele>11.9</ele>
        <time>2020-06-03T10:11:14Z</time>
      </trkpt>
      <trkpt lat="46.4177" lon="-1.57479">
        <ele>11.9</ele>
        <time>2020-06-03T10:11:15Z</time>
      </trkpt>
      <trkpt lat="46.41771" lon="-1.57484">
        <ele>11.9</ele>
        <time>2020-06-03T10:11:16Z</time>
      </trkpt>
      <trkpt lat="46.4177" lon="-1.57485">
        <ele>11.9</ele>
        <time>2020-06-03T10:11:17Z</time>
      </trkpt>
      <trkpt lat="46.41771" lon="-1.57491">
        <ele>12</ele>
        <time>2020-06-03T10:11:18Z</time>
      </trkpt>
      <trkpt lat="46.41771" lon="-1.57492">
        <ele>11.9</ele>
        <time>2020-06-03T10:11:19Z</time>
      </trkpt>
      <trkpt lat="46.41772" lon="-1.57494">
        <ele>11.9</ele>
        <time>2020-06-03T10:11:20Z</time>
      </trkpt>
      <trkpt lat="46.41773" lon="-1.57497">
        <ele>11.9</ele>
        <time>2020-06-03T10:11:21Z</time>
      </trkpt>
      <trkpt lat="46.41773" lon="-1.57499">
        <ele>11.9</ele>
        <time>2020-06-03T10:11:22Z</time>
      </trkpt>
      <trkpt lat="46.41774" lon="-1.57501">
        <ele>11.9</ele>
        <time>2020-06-03T10:11:23Z</time>
      </trkpt>
      <trkpt lat="46.41775" lon="-1.57504">
        <ele>11.9</ele>
        <time>2020-06-03T10:11:24Z</time>
      </trkpt>
      <trkpt lat="46.41775" lon="-1.57505">
        <ele>11.9</ele>
        <time>2020-06-03T10:11:25Z</time>
      </trkpt>
      <trkpt lat="46.41776" lon="-1.57506">
        <ele>11.9</ele>
        <time>2020-06-03T10:11:26Z</time>
      </trkpt>
      <trkpt lat="46.41776" lon="-1.57508">
        <ele>11.9</ele>
        <time>2020-06-03T10:11:27Z</time>
      </trkpt>
      <trkpt lat="46.41777" lon="-1.57509">
        <ele>11.9</ele>
        <time>2020-06-03T10:11:28Z</time>
      </trkpt>
      <trkpt lat="46.41777" lon="-1.57512">
        <ele>11.9</ele>
        <time>2020-06-03T10:11:29Z</time>
      </trkpt>
      <trkpt lat="46.41777" lon="-1.57513">
        <ele>11.9</ele>
        <time>2020-06-03T10:11:30Z</time>
      </trkpt>
      <trkpt lat="46.41778" lon="-1.57514">
        <ele>11.9</ele>
        <time>2020-06-03T10:11:31Z</time>
      </trkpt>
      <trkpt lat="46.41779" lon="-1.57517">
        <ele>11.9</ele>
        <time>2020-06-03T10:11:32Z</time>
      </trkpt>
      <trkpt lat="46.41779" lon="-1.57518">
        <ele>11.9</ele>
        <time>2020-06-03T10:11:33Z</time>
      </trkpt>
      <trkpt lat="46.4178" lon="-1.57519">
        <ele>11.9</ele>
        <time>2020-06-03T10:11:34Z</time>
      </trkpt>
      <trkpt lat="46.41781" lon="-1.57524">
        <ele>11.9</ele>
        <time>2020-06-03T10:11:35Z</time>
      </trkpt>
      <trkpt lat="46.41781" lon="-1.57526">
        <ele>11.9</ele>
        <time>2020-06-03T10:11:36Z</time>
      </trkpt>
      <trkpt lat="46.41782" lon="-1.5753">
        <ele>11.9</ele>
        <time>2020-06-03T10:11:37Z</time>
      </trkpt>
      <trkpt lat="46.41783" lon="-1.57535">
        <ele>11.9</ele>
        <time>2020-06-03T10:11:38Z</time>
      </trkpt>
      <trkpt lat="46.41783" lon="-1.57536">
        <ele>11.9</ele>
        <time>2020-06-03T10:11:39Z</time>
      </trkpt>
      <trkpt lat="46.41784" lon="-1.57542">
        <ele>11.9</ele>
        <time>2020-06-03T10:11:40Z</time>
      </trkpt>
      <trkpt lat="46.41785" lon="-1.57544">
        <ele>11.9</ele>
        <time>2020-06-03T10:11:41Z</time>
      </trkpt>
      <trkpt lat="46.41786" lon="-1.57548">
        <ele>11.9</ele>
        <time>2020-06-03T10:11:42Z</time>
      </trkpt>
      <trkpt lat="46.41786" lon="-1.5755">
        <ele>11.9</ele>
        <time>2020-06-03T10:11:43Z</time>
      </trkpt>
      <trkpt lat="46.41787" lon="-1.57555">
        <ele>11.9</ele>
        <time>2020-06-03T10:11:44Z</time>
      </trkpt>
      <trkpt lat="46.41787" lon="-1.57556">
        <ele>11.9</ele>
        <time>2020-06-03T10:11:45Z</time>
      </trkpt>
      <trkpt lat="46.41787" lon="-1.57559">
        <ele>11.9</ele>
        <time>2020-06-03T10:11:46Z</time>
      </trkpt>
      <trkpt lat="46.41787" lon="-1.57561">
        <ele>11.9</ele>
        <time>2020-06-03T10:11:47Z</time>
      </trkpt>
      <trkpt lat="46.41787" lon="-1.57566">
        <ele>11.9</ele>
        <time>2020-06-03T10:11:48Z</time>
      </trkpt>
      <trkpt lat="46.41787" lon="-1.57567">
        <ele>11.9</ele>
        <time>2020-06-03T10:11:49Z</time>
      </trkpt>
      <trkpt lat="46.41786" lon="-1.57573">
        <ele>11.9</ele>
        <time>2020-06-03T10:11:50Z</time>
      </trkpt>
      <trkpt lat="46.41786" lon="-1.57574">
        <ele>11.9</ele>
        <time>2020-06-03T10:11:51Z</time>
      </trkpt>
      <trkpt lat="46.41785" lon="-1.5758">
        <ele>11.9</ele>
        <time>2020-06-03T10:11:52Z</time>
      </trkpt>
      <trkpt lat="46.41785" lon="-1.57582">
        <ele>11.9</ele>
        <time>2020-06-03T10:11:53Z</time>
      </trkpt>
      <trkpt lat="46.41784" lon="-1.57586">
        <ele>11.9</ele>
        <time>2020-06-03T10:11:54Z</time>
      </trkpt>
      <trkpt lat="46.41784" lon="-1.57588">
        <ele>11.9</ele>
        <time>2020-06-03T10:11:55Z</time>
      </trkpt>
      <trkpt lat="46.41783" lon="-1.57592">
        <ele>11.9</ele>
        <time>2020-06-03T10:11:56Z</time>
      </trkpt>
      <trkpt lat="46.41783" lon="-1.57593">
        <ele>11.9</ele>
        <time>2020-06-03T10:11:57Z</time>
      </trkpt>
      <trkpt lat="46.41783" lon="-1.57596">
        <ele>11.9</ele>
        <time>2020-06-03T10:11:58Z</time>
      </trkpt>
      <trkpt lat="46.41782" lon="-1.57598">
        <ele>11.9</ele>
        <time>2020-06-03T10:11:59Z</time>
      </trkpt>
      <trkpt lat="46.41782" lon="-1.576">
        <ele>11.9</ele>
        <time>2020-06-03T10:12:00Z</time>
      </trkpt>
      <trkpt lat="46.41781" lon="-1.576">
        <ele>11.9</ele>
        <time>2020-06-03T10:12:01Z</time>
      </trkpt>
      <trkpt lat="46.4178" lon="-1.57601">
        <ele>11.9</ele>
        <time>2020-06-03T10:12:02Z</time>
      </trkpt>
      <trkpt lat="46.41779" lon="-1.576">
        <ele>11.9</ele>
        <time>2020-06-03T10:12:03Z</time>
      </trkpt>
      <trkpt lat="46.41778" lon="-1.57597">
        <ele>11.9</ele>
        <time>2020-06-03T10:12:04Z</time>
      </trkpt>
      <trkpt lat="46.41779" lon="-1.57592">
        <ele>11.9</ele>
        <time>2020-06-03T10:12:05Z</time>
      </trkpt>
      <trkpt lat="46.41779" lon="-1.57592">
        <ele>11.9</ele>
        <time>2020-06-03T10:12:06Z</time>
      </trkpt>
      <trkpt lat="46.41778" lon="-1.57592">
        <ele>11.9</ele>
        <time>2020-06-03T10:12:07Z</time>
      </trkpt>
      <trkpt lat="46.41778" lon="-1.57588">
        <ele>11.9</ele>
        <time>2020-06-03T10:12:08Z</time>
      </trkpt>
      <trkpt lat="46.41779" lon="-1.57583">
        <ele>11.9</ele>
        <time>2020-06-03T10:12:09Z</time>
      </trkpt>
      <trkpt lat="46.41779" lon="-1.57581">
        <ele>11.9</ele>
        <time>2020-06-03T10:12:10Z</time>
      </trkpt>
      <trkpt lat="46.4178" lon="-1.57577">
        <ele>11.9</ele>
        <time>2020-06-03T10:12:11Z</time>
      </trkpt>
      <trkpt lat="46.41781" lon="-1.57571">
        <ele>11.9</ele>
        <time>2020-06-03T10:12:12Z</time>
      </trkpt>
      <trkpt lat="46.41781" lon="-1.57567">
        <ele>11.9</ele>
        <time>2020-06-03T10:12:13Z</time>
      </trkpt>
      <trkpt lat="46.4178" lon="-1.57561">
        <ele>11.9</ele>
        <time>2020-06-03T10:12:14Z</time>
      </trkpt>
      <trkpt lat="46.41782" lon="-1.57558">
        <ele>11.9</ele>
        <time>2020-06-03T10:12:15Z</time>
      </trkpt>
      <trkpt lat="46.41785" lon="-1.57557">
        <ele>11.9</ele>
        <time>2020-06-03T10:12:16Z</time>
      </trkpt>
      <trkpt lat="46.41788" lon="-1.57558">
        <ele>11.8</ele>
        <time>2020-06-03T10:12:17Z</time>
      </trkpt>
      <trkpt lat="46.41792" lon="-1.57557">
        <ele>11.8</ele>
        <time>2020-06-03T10:12:18Z</time>
      </trkpt>
      <trkpt lat="46.41794" lon="-1.57556">
        <ele>11.8</ele>
        <time>2020-06-03T10:12:19Z</time>
      </trkpt>
      <trkpt lat="46.41797" lon="-1.57552">
        <ele>11.8</ele>
        <time>2020-06-03T10:12:20Z</time>
      </trkpt>
      <trkpt lat="46.41802" lon="-1.57551">
        <ele>11.8</ele>
        <time>2020-06-03T10:12:21Z</time>
      </trkpt>
      <trkpt lat="46.41806" lon="-1.57551">
        <ele>11.8</ele>
        <time>2020-06-03T10:12:22Z</time>
      </trkpt>
      <trkpt lat="46.41811" lon="-1.57549">
        <ele>11.8</ele>
        <time>2020-06-03T10:12:23Z</time>
      </trkpt>
      <trkpt lat="46.41816" lon="-1.57547">
        <ele>11.8</ele>
        <time>2020-06-03T10:12:24Z</time>
      </trkpt>
      <trkpt lat="46.41821" lon="-1.57546">
        <ele>11.9</ele>
        <time>2020-06-03T10:12:25Z</time>
      </trkpt>
      <trkpt lat="46.41827" lon="-1.57543">
        <ele>11.9</ele>
        <time>2020-06-03T10:12:26Z</time>
      </trkpt>
      <trkpt lat="46.41831" lon="-1.57539">
        <ele>11.9</ele>
        <time>2020-06-03T10:12:27Z</time>
      </trkpt>
      <trkpt lat="46.41836" lon="-1.57537">
        <ele>11.9</ele>
        <time>2020-06-03T10:12:28Z</time>
      </trkpt>
      <trkpt lat="46.4184" lon="-1.57535">
        <ele>11.9</ele>
        <time>2020-06-03T10:12:29Z</time>
      </trkpt>
      <trkpt lat="46.41844" lon="-1.57533">
        <ele>11.9</ele>
        <time>2020-06-03T10:12:30Z</time>
      </trkpt>
      <trkpt lat="46.41849" lon="-1.57531">
        <ele>11.9</ele>
        <time>2020-06-03T10:12:31Z</time>
      </trkpt>
      <trkpt lat="46.41853" lon="-1.57528">
        <ele>11.8</ele>
        <time>2020-06-03T10:12:32Z</time>
      </trkpt>
      <trkpt lat="46.41858" lon="-1.57526">
        <ele>11.8</ele>
        <time>2020-06-03T10:12:33Z</time>
      </trkpt>
      <trkpt lat="46.41863" lon="-1.57524">
        <ele>11.8</ele>
        <time>2020-06-03T10:12:34Z</time>
      </trkpt>
      <trkpt lat="46.41867" lon="-1.57521">
        <ele>11.8</ele>
        <time>2020-06-03T10:12:35Z</time>
      </trkpt>
      <trkpt lat="46.41872" lon="-1.57518">
        <ele>11.8</ele>
        <time>2020-06-03T10:12:36Z</time>
      </trkpt>
      <trkpt lat="46.41877" lon="-1.57517">
        <ele>11.8</ele>
        <time>2020-06-03T10:12:37Z</time>
      </trkpt>
      <trkpt lat="46.41882" lon="-1.57514">
        <ele>11.8</ele>
        <time>2020-06-03T10:12:38Z</time>
      </trkpt>
      <trkpt lat="46.41887" lon="-1.57512">
        <ele>11.8</ele>
        <time>2020-06-03T10:12:39Z</time>
      </trkpt>
      <trkpt lat="46.41891" lon="-1.57509">
        <ele>11.8</ele>
        <time>2020-06-03T10:12:40Z</time>
      </trkpt>
      <trkpt lat="46.41896" lon="-1.57507">
        <ele>11.8</ele>
        <time>2020-06-03T10:12:41Z</time>
      </trkpt>
      <trkpt lat="46.41901" lon="-1.57505">
        <ele>11.8</ele>
        <time>2020-06-03T10:12:42Z</time>
      </trkpt>
      <trkpt lat="46.41905" lon="-1.57502">
        <ele>11.8</ele>
        <time>2020-06-03T10:12:43Z</time>
      </trkpt>
      <trkpt lat="46.41909" lon="-1.57499">
        <ele>11.8</ele>
        <time>2020-06-03T10:12:44Z</time>
      </trkpt>
      <trkpt lat="46.41913" lon="-1.57495">
        <ele>11.8</ele>
        <time>2020-06-03T10:12:45Z</time>
      </trkpt>
      <trkpt lat="46.41918" lon="-1.57493">
        <ele>11.8</ele>
        <time>2020-06-03T10:12:46Z</time>
      </trkpt>
      <trkpt lat="46.41922" lon="-1.5749">
        <ele>11.8</ele>
        <time>2020-06-03T10:12:47Z</time>
      </trkpt>
      <trkpt lat="46.41927" lon="-1.57488">
        <ele>11.8</ele>
        <time>2020-06-03T10:12:48Z</time>
      </trkpt>
      <trkpt lat="46.41932" lon="-1.57486">
        <ele>11.8</ele>
        <time>2020-06-03T10:12:49Z</time>
      </trkpt>
      <trkpt lat="46.41937" lon="-1.57483">
        <ele>11.8</ele>
        <time>2020-06-03T10:12:50Z</time>
      </trkpt>
      <trkpt lat="46.41941" lon="-1.5748">
        <ele>11.8</ele>
        <time>2020-06-03T10:12:51Z</time>
      </trkpt>
      <trkpt lat="46.41945" lon="-1.57477">
        <ele>11.8</ele>
        <time>2020-06-03T10:12:52Z</time>
      </trkpt>
      <trkpt lat="46.41949" lon="-1.57474">
        <ele>11.8</ele>
        <time>2020-06-03T10:12:53Z</time>
      </trkpt>
      <trkpt lat="46.41954" lon="-1.57472">
        <ele>11.9</ele>
        <time>2020-06-03T10:12:54Z</time>
      </trkpt>
      <trkpt lat="46.41958" lon="-1.57469">
        <ele>12</ele>
        <time>2020-06-03T10:12:55Z</time>
      </trkpt>
      <trkpt lat="46.41963" lon="-1.57467">
        <ele>12.1</ele>
        <time>2020-06-03T10:12:56Z</time>
      </trkpt>
      <trkpt lat="46.41967" lon="-1.57464">
        <ele>12.1</ele>
        <time>2020-06-03T10:12:57Z</time>
      </trkpt>
      <trkpt lat="46.41971" lon="-1.57462">
        <ele>12.2</ele>
        <time>2020-06-03T10:12:58Z</time>
      </trkpt>
      <trkpt lat="46.41976" lon="-1.57459">
        <ele>12.2</ele>
        <time>2020-06-03T10:12:59Z</time>
      </trkpt>
      <trkpt lat="46.4198" lon="-1.57456">
        <ele>12.2</ele>
        <time>2020-06-03T10:13:00Z</time>
      </trkpt>
      <trkpt lat="46.41984" lon="-1.57453">
        <ele>12.2</ele>
        <time>2020-06-03T10:13:01Z</time>
      </trkpt>
      <trkpt lat="46.41987" lon="-1.57451">
        <ele>12.2</ele>
        <time>2020-06-03T10:13:02Z</time>
      </trkpt>
      <trkpt lat="46.41991" lon="-1.57448">
        <ele>12.3</ele>
        <time>2020-06-03T10:13:03Z</time>
      </trkpt>
      <trkpt lat="46.41995" lon="-1.57446">
        <ele>12.3</ele>
        <time>2020-06-03T10:13:04Z</time>
      </trkpt>
      <trkpt lat="46.41999" lon="-1.57444">
        <ele>12.4</ele>
        <time>2020-06-03T10:13:05Z</time>
      </trkpt>
      <trkpt lat="46.42002" lon="-1.57442">
        <ele>12.4</ele>
        <time>2020-06-03T10:13:06Z</time>
      </trkpt>
      <trkpt lat="46.42006" lon="-1.5744">
        <ele>12.5</ele>
        <time>2020-06-03T10:13:07Z</time>
      </trkpt>
      <trkpt lat="46.42009" lon="-1.57438">
        <ele>12.5</ele>
        <time>2020-06-03T10:13:08Z</time>
      </trkpt>
      <trkpt lat="46.42012" lon="-1.57436">
        <ele>12.5</ele>
        <time>2020-06-03T10:13:09Z</time>
      </trkpt>
      <trkpt lat="46.42016" lon="-1.57434">
        <ele>12.6</ele>
        <time>2020-06-03T10:13:10Z</time>
      </trkpt>
      <trkpt lat="46.42019" lon="-1.57433">
        <ele>12.6</ele>
        <time>2020-06-03T10:13:11Z</time>
      </trkpt>
      <trkpt lat="46.42022" lon="-1.5743">
        <ele>12.7</ele>
        <time>2020-06-03T10:13:12Z</time>
      </trkpt>
      <trkpt lat="46.42025" lon="-1.57429">
        <ele>12.8</ele>
        <time>2020-06-03T10:13:13Z</time>
      </trkpt>
      <trkpt lat="46.42028" lon="-1.57428">
        <ele>12.8</ele>
        <time>2020-06-03T10:13:14Z</time>
      </trkpt>
      <trkpt lat="46.42031" lon="-1.57428">
        <ele>12.8</ele>
        <time>2020-06-03T10:13:15Z</time>
      </trkpt>
      <trkpt lat="46.42033" lon="-1.57431">
        <ele>12.8</ele>
        <time>2020-06-03T10:13:16Z</time>
      </trkpt>
      <trkpt lat="46.42033" lon="-1.57437">
        <ele>12.7</ele>
        <time>2020-06-03T10:13:17Z</time>
      </trkpt>
      <trkpt lat="46.42033" lon="-1.57442">
        <ele>12.7</ele>
        <time>2020-06-03T10:13:18Z</time>
      </trkpt>
      <trkpt lat="46.42033" lon="-1.57448">
        <ele>12.7</ele>
        <time>2020-06-03T10:13:19Z</time>
      </trkpt>
      <trkpt lat="46.42033" lon="-1.57455">
        <ele>12.6</ele>
        <time>2020-06-03T10:13:20Z</time>
      </trkpt>
      <trkpt lat="46.42032" lon="-1.57463">
        <ele>12.6</ele>
        <time>2020-06-03T10:13:21Z</time>
      </trkpt>
      <trkpt lat="46.42032" lon="-1.5747">
        <ele>12.5</ele>
        <time>2020-06-03T10:13:22Z</time>
      </trkpt>
      <trkpt lat="46.42032" lon="-1.57478">
        <ele>12.4</ele>
        <time>2020-06-03T10:13:23Z</time>
      </trkpt>
      <trkpt lat="46.42033" lon="-1.57486">
        <ele>12.4</ele>
        <time>2020-06-03T10:13:24Z</time>
      </trkpt>
      <trkpt lat="46.42033" lon="-1.57494">
        <ele>12.2</ele>
        <time>2020-06-03T10:13:25Z</time>
      </trkpt>
      <trkpt lat="46.42034" lon="-1.57502">
        <ele>12.2</ele>
        <time>2020-06-03T10:13:26Z</time>
      </trkpt>
      <trkpt lat="46.42036" lon="-1.5751">
        <ele>12.1</ele>
        <time>2020-06-03T10:13:27Z</time>
      </trkpt>
      <trkpt lat="46.42037" lon="-1.57518">
        <ele>12</ele>
        <time>2020-06-03T10:13:28Z</time>
      </trkpt>
      <trkpt lat="46.42038" lon="-1.57527">
        <ele>12</ele>
        <time>2020-06-03T10:13:29Z</time>
      </trkpt>
      <trkpt lat="46.42039" lon="-1.57535">
        <ele>11.9</ele>
        <time>2020-06-03T10:13:30Z</time>
      </trkpt>
      <trkpt lat="46.4204" lon="-1.57544">
        <ele>11.8</ele>
        <time>2020-06-03T10:13:31Z</time>
      </trkpt>
      <trkpt lat="46.4204" lon="-1.57552">
        <ele>11.8</ele>
        <time>2020-06-03T10:13:32Z</time>
      </trkpt>
      <trkpt lat="46.42042" lon="-1.57559">
        <ele>11.7</ele>
        <time>2020-06-03T10:13:33Z</time>
      </trkpt>
      <trkpt lat="46.42044" lon="-1.57567">
        <ele>11.7</ele>
        <time>2020-06-03T10:13:34Z</time>
      </trkpt>
      <trkpt lat="46.42044" lon="-1.57574">
        <ele>11.7</ele>
        <time>2020-06-03T10:13:35Z</time>
      </trkpt>
      <trkpt lat="46.42045" lon="-1.57581">
        <ele>11.7</ele>
        <time>2020-06-03T10:13:36Z</time>
      </trkpt>
      <trkpt lat="46.42046" lon="-1.57587">
        <ele>11.7</ele>
        <time>2020-06-03T10:13:37Z</time>
      </trkpt>
      <trkpt lat="46.42046" lon="-1.57593">
        <ele>11.6</ele>
        <time>2020-06-03T10:13:38Z</time>
      </trkpt>
      <trkpt lat="46.42047" lon="-1.57599">
        <ele>11.6</ele>
        <time>2020-06-03T10:13:39Z</time>
      </trkpt>
      <trkpt lat="46.42047" lon="-1.57604">
        <ele>11.6</ele>
        <time>2020-06-03T10:13:40Z</time>
      </trkpt>
      <trkpt lat="46.42049" lon="-1.57609">
        <ele>11.6</ele>
        <time>2020-06-03T10:13:41Z</time>
      </trkpt>
      <trkpt lat="46.4205" lon="-1.57614">
        <ele>11.6</ele>
        <time>2020-06-03T10:13:42Z</time>
      </trkpt>
      <trkpt lat="46.42052" lon="-1.57619">
        <ele>11.6</ele>
        <time>2020-06-03T10:13:43Z</time>
      </trkpt>
      <trkpt lat="46.42053" lon="-1.57625">
        <ele>11.6</ele>
        <time>2020-06-03T10:13:44Z</time>
      </trkpt>
      <trkpt lat="46.42055" lon="-1.57631">
        <ele>11.6</ele>
        <time>2020-06-03T10:13:45Z</time>
      </trkpt>
      <trkpt lat="46.42055" lon="-1.57638">
        <ele>11.6</ele>
        <time>2020-06-03T10:13:46Z</time>
      </trkpt>
      <trkpt lat="46.42057" lon="-1.57645">
        <ele>11.6</ele>
        <time>2020-06-03T10:13:47Z</time>
      </trkpt>
      <trkpt lat="46.42057" lon="-1.57652">
        <ele>11.6</ele>
        <time>2020-06-03T10:13:48Z</time>
      </trkpt>
      <trkpt lat="46.42058" lon="-1.57659">
        <ele>11.6</ele>
        <time>2020-06-03T10:13:49Z</time>
      </trkpt>
      <trkpt lat="46.42059" lon="-1.57665">
        <ele>11.6</ele>
        <time>2020-06-03T10:13:50Z</time>
      </trkpt>
      <trkpt lat="46.42059" lon="-1.57671">
        <ele>11.6</ele>
        <time>2020-06-03T10:13:51Z</time>
      </trkpt>
      <trkpt lat="46.4206" lon="-1.57678">
        <ele>11.6</ele>
        <time>2020-06-03T10:13:52Z</time>
      </trkpt>
      <trkpt lat="46.4206" lon="-1.57685">
        <ele>11.6</ele>
        <time>2020-06-03T10:13:53Z</time>
      </trkpt>
      <trkpt lat="46.42062" lon="-1.57692">
        <ele>11.6</ele>
        <time>2020-06-03T10:13:54Z</time>
      </trkpt>
      <trkpt lat="46.42063" lon="-1.57699">
        <ele>11.6</ele>
        <time>2020-06-03T10:13:55Z</time>
      </trkpt>
      <trkpt lat="46.42064" lon="-1.57705">
        <ele>11.6</ele>
        <time>2020-06-03T10:13:56Z</time>
      </trkpt>
      <trkpt lat="46.42065" lon="-1.57711">
        <ele>11.6</ele>
        <time>2020-06-03T10:13:57Z</time>
      </trkpt>
      <trkpt lat="46.42065" lon="-1.57718">
        <ele>11.5</ele>
        <time>2020-06-03T10:13:58Z</time>
      </trkpt>
      <trkpt lat="46.42066" lon="-1.57724">
        <ele>11.5</ele>
        <time>2020-06-03T10:13:59Z</time>
      </trkpt>
      <trkpt lat="46.42066" lon="-1.5773">
        <ele>11.5</ele>
        <time>2020-06-03T10:14:00Z</time>
      </trkpt>
      <trkpt lat="46.42067" lon="-1.57736">
        <ele>11.5</ele>
        <time>2020-06-03T10:14:01Z</time>
      </trkpt>
      <trkpt lat="46.42067" lon="-1.57742">
        <ele>11.5</ele>
        <time>2020-06-03T10:14:02Z</time>
      </trkpt>
      <trkpt lat="46.42067" lon="-1.57748">
        <ele>11.5</ele>
        <time>2020-06-03T10:14:03Z</time>
      </trkpt>
      <trkpt lat="46.42067" lon="-1.57754">
        <ele>11.5</ele>
        <time>2020-06-03T10:14:04Z</time>
      </trkpt>
      <trkpt lat="46.42067" lon="-1.57761">
        <ele>11.5</ele>
        <time>2020-06-03T10:14:05Z</time>
      </trkpt>
      <trkpt lat="46.42067" lon="-1.57767">
        <ele>11.5</ele>
        <time>2020-06-03T10:14:06Z</time>
      </trkpt>
      <trkpt lat="46.42067" lon="-1.57773">
        <ele>11.5</ele>
        <time>2020-06-03T10:14:07Z</time>
      </trkpt>
      <trkpt lat="46.42067" lon="-1.5778">
        <ele>11.5</ele>
        <time>2020-06-03T10:14:08Z</time>
      </trkpt>
      <trkpt lat="46.42066" lon="-1.57786">
        <ele>11.5</ele>
        <time>2020-06-03T10:14:09Z</time>
      </trkpt>
      <trkpt lat="46.42065" lon="-1.57792">
        <ele>11.5</ele>
        <time>2020-06-03T10:14:10Z</time>
      </trkpt>
      <trkpt lat="46.42065" lon="-1.57799">
        <ele>11.4</ele>
        <time>2020-06-03T10:14:11Z</time>
      </trkpt>
      <trkpt lat="46.42064" lon="-1.57805">
        <ele>11.4</ele>
        <time>2020-06-03T10:14:12Z</time>
      </trkpt>
      <trkpt lat="46.42064" lon="-1.57812">
        <ele>11.4</ele>
        <time>2020-06-03T10:14:13Z</time>
      </trkpt>
      <trkpt lat="46.42064" lon="-1.57819">
        <ele>11.4</ele>
        <time>2020-06-03T10:14:14Z</time>
      </trkpt>
      <trkpt lat="46.42064" lon="-1.57826">
        <ele>11.4</ele>
        <time>2020-06-03T10:14:15Z</time>
      </trkpt>
      <trkpt lat="46.42064" lon="-1.57833">
        <ele>11.4</ele>
        <time>2020-06-03T10:14:16Z</time>
      </trkpt>
      <trkpt lat="46.42065" lon="-1.5784">
        <ele>11.4</ele>
        <time>2020-06-03T10:14:17Z</time>
      </trkpt>
      <trkpt lat="46.42064" lon="-1.57846">
        <ele>11.4</ele>
        <time>2020-06-03T10:14:18Z</time>
      </trkpt>
      <trkpt lat="46.42063" lon="-1.57853">
        <ele>11.4</ele>
        <time>2020-06-03T10:14:19Z</time>
      </trkpt>
      <trkpt lat="46.42063" lon="-1.57859">
        <ele>11.4</ele>
        <time>2020-06-03T10:14:20Z</time>
      </trkpt>
      <trkpt lat="46.42062" lon="-1.57864">
        <ele>11.5</ele>
        <time>2020-06-03T10:14:21Z</time>
      </trkpt>
      <trkpt lat="46.42061" lon="-1.5787">
        <ele>11.5</ele>
        <time>2020-06-03T10:14:22Z</time>
      </trkpt>
      <trkpt lat="46.4206" lon="-1.57875">
        <ele>11.5</ele>
        <time>2020-06-03T10:14:23Z</time>
      </trkpt>
      <trkpt lat="46.42059" lon="-1.57881">
        <ele>11.5</ele>
        <time>2020-06-03T10:14:24Z</time>
      </trkpt>
      <trkpt lat="46.42059" lon="-1.57886">
        <ele>11.5</ele>
        <time>2020-06-03T10:14:25Z</time>
      </trkpt>
      <trkpt lat="46.42059" lon="-1.57891">
        <ele>11.5</ele>
        <time>2020-06-03T10:14:26Z</time>
      </trkpt>
      <trkpt lat="46.42058" lon="-1.57897">
        <ele>11.5</ele>
        <time>2020-06-03T10:14:27Z</time>
      </trkpt>
      <trkpt lat="46.42058" lon="-1.57902">
        <ele>11.5</ele>
        <time>2020-06-03T10:14:28Z</time>
      </trkpt>
      <trkpt lat="46.42058" lon="-1.57907">
        <ele>11.5</ele>
        <time>2020-06-03T10:14:29Z</time>
      </trkpt>
      <trkpt lat="46.42057" lon="-1.57912">
        <ele>11.5</ele>
        <time>2020-06-03T10:14:30Z</time>
      </trkpt>
      <trkpt lat="46.42058" lon="-1.57918">
        <ele>11.5</ele>
        <time>2020-06-03T10:14:31Z</time>
      </trkpt>
      <trkpt lat="46.42057" lon="-1.57924">
        <ele>11.5</ele>
        <time>2020-06-03T10:14:32Z</time>
      </trkpt>
      <trkpt lat="46.42057" lon="-1.57929">
        <ele>11.5</ele>
        <time>2020-06-03T10:14:33Z</time>
      </trkpt>
      <trkpt lat="46.42057" lon="-1.57935">
        <ele>11.5</ele>
        <time>2020-06-03T10:14:34Z</time>
      </trkpt>
      <trkpt lat="46.42057" lon="-1.57941">
        <ele>11.6</ele>
        <time>2020-06-03T10:14:35Z</time>
      </trkpt>
      <trkpt lat="46.42057" lon="-1.57947">
        <ele>11.6</ele>
        <time>2020-06-03T10:14:36Z</time>
      </trkpt>
      <trkpt lat="46.42056" lon="-1.57953">
        <ele>11.6</ele>
        <time>2020-06-03T10:14:37Z</time>
      </trkpt>
      <trkpt lat="46.42056" lon="-1.57958">
        <ele>11.6</ele>
        <time>2020-06-03T10:14:38Z</time>
      </trkpt>
      <trkpt lat="46.42055" lon="-1.57964">
        <ele>11.6</ele>
        <time>2020-06-03T10:14:39Z</time>
      </trkpt>
      <trkpt lat="46.42054" lon="-1.57969">
        <ele>11.6</ele>
        <time>2020-06-03T10:14:40Z</time>
      </trkpt>
      <trkpt lat="46.42053" lon="-1.57974">
        <ele>11.6</ele>
        <time>2020-06-03T10:14:41Z</time>
      </trkpt>
      <trkpt lat="46.42053" lon="-1.57979">
        <ele>11.5</ele>
        <time>2020-06-03T10:14:42Z</time>
      </trkpt>
      <trkpt lat="46.42053" lon="-1.57984">
        <ele>11.5</ele>
        <time>2020-06-03T10:14:43Z</time>
      </trkpt>
      <trkpt lat="46.42053" lon="-1.57989">
        <ele>11.5</ele>
        <time>2020-06-03T10:14:44Z</time>
      </trkpt>
      <trkpt lat="46.42053" lon="-1.57994">
        <ele>11.5</ele>
        <time>2020-06-03T10:14:45Z</time>
      </trkpt>
      <trkpt lat="46.42053" lon="-1.58">
        <ele>11.5</ele>
        <time>2020-06-03T10:14:46Z</time>
      </trkpt>
      <trkpt lat="46.42052" lon="-1.58006">
        <ele>11.5</ele>
        <time>2020-06-03T10:14:47Z</time>
      </trkpt>
      <trkpt lat="46.42052" lon="-1.58011">
        <ele>11.5</ele>
        <time>2020-06-03T10:14:48Z</time>
      </trkpt>
      <trkpt lat="46.42052" lon="-1.58018">
        <ele>11.5</ele>
        <time>2020-06-03T10:14:49Z</time>
      </trkpt>
      <trkpt lat="46.42051" lon="-1.58024">
        <ele>11.5</ele>
        <time>2020-06-03T10:14:50Z</time>
      </trkpt>
      <trkpt lat="46.42051" lon="-1.5803">
        <ele>11.5</ele>
        <time>2020-06-03T10:14:51Z</time>
      </trkpt>
      <trkpt lat="46.42051" lon="-1.58037">
        <ele>11.5</ele>
        <time>2020-06-03T10:14:52Z</time>
      </trkpt>
      <trkpt lat="46.42051" lon="-1.58045">
        <ele>11.5</ele>
        <time>2020-06-03T10:14:53Z</time>
      </trkpt>
      <trkpt lat="46.4205" lon="-1.58052">
        <ele>11.5</ele>
        <time>2020-06-03T10:14:54Z</time>
      </trkpt>
      <trkpt lat="46.4205" lon="-1.58059">
        <ele>11.4</ele>
        <time>2020-06-03T10:14:55Z</time>
      </trkpt>
      <trkpt lat="46.42049" lon="-1.58065">
        <ele>11.4</ele>
        <time>2020-06-03T10:14:56Z</time>
      </trkpt>
      <trkpt lat="46.42048" lon="-1.58072">
        <ele>11.4</ele>
        <time>2020-06-03T10:14:57Z</time>
      </trkpt>
      <trkpt lat="46.42048" lon="-1.5808">
        <ele>11.4</ele>
        <time>2020-06-03T10:14:58Z</time>
      </trkpt>
      <trkpt lat="46.42047" lon="-1.58087">
        <ele>11.4</ele>
        <time>2020-06-03T10:14:59Z</time>
      </trkpt>
      <trkpt lat="46.42047" lon="-1.58095">
        <ele>11.4</ele>
        <time>2020-06-03T10:15:00Z</time>
      </trkpt>
      <trkpt lat="46.42047" lon="-1.58102">
        <ele>11.4</ele>
        <time>2020-06-03T10:15:01Z</time>
      </trkpt>
      <trkpt lat="46.42046" lon="-1.58109">
        <ele>11.4</ele>
        <time>2020-06-03T10:15:02Z</time>
      </trkpt>
      <trkpt lat="46.42045" lon="-1.58117">
        <ele>11.4</ele>
        <time>2020-06-03T10:15:03Z</time>
      </trkpt>
      <trkpt lat="46.42045" lon="-1.58124">
        <ele>11.4</ele>
        <time>2020-06-03T10:15:04Z</time>
      </trkpt>
      <trkpt lat="46.42044" lon="-1.58131">
        <ele>11.4</ele>
        <time>2020-06-03T10:15:05Z</time>
      </trkpt>
      <trkpt lat="46.42044" lon="-1.58139">
        <ele>11.4</ele>
        <time>2020-06-03T10:15:06Z</time>
      </trkpt>
      <trkpt lat="46.42043" lon="-1.58146">
        <ele>11.4</ele>
        <time>2020-06-03T10:15:07Z</time>
      </trkpt>
      <trkpt lat="46.42043" lon="-1.58153">
        <ele>11.4</ele>
        <time>2020-06-03T10:15:08Z</time>
      </trkpt>
      <trkpt lat="46.42042" lon="-1.58161">
        <ele>11.4</ele>
        <time>2020-06-03T10:15:09Z</time>
      </trkpt>
      <trkpt lat="46.42042" lon="-1.58168">
        <ele>11.4</ele>
        <time>2020-06-03T10:15:10Z</time>
      </trkpt>
      <trkpt lat="46.42042" lon="-1.58175">
        <ele>11.4</ele>
        <time>2020-06-03T10:15:11Z</time>
      </trkpt>
      <trkpt lat="46.42042" lon="-1.58182">
        <ele>11.4</ele>
        <time>2020-06-03T10:15:12Z</time>
      </trkpt>
      <trkpt lat="46.42041" lon="-1.58189">
        <ele>11.4</ele>
        <time>2020-06-03T10:15:13Z</time>
      </trkpt>
      <trkpt lat="46.42041" lon="-1.58196">
        <ele>11.4</ele>
        <time>2020-06-03T10:15:14Z</time>
      </trkpt>
      <trkpt lat="46.4204" lon="-1.58202">
        <ele>11.4</ele>
        <time>2020-06-03T10:15:15Z</time>
      </trkpt>
      <trkpt lat="46.42039" lon="-1.58208">
        <ele>11.4</ele>
        <time>2020-06-03T10:15:16Z</time>
      </trkpt>
      <trkpt lat="46.42038" lon="-1.58212">
        <ele>11.4</ele>
        <time>2020-06-03T10:15:17Z</time>
      </trkpt>
      <trkpt lat="46.42035" lon="-1.58215">
        <ele>11.4</ele>
        <time>2020-06-03T10:15:18Z</time>
      </trkpt>
      <trkpt lat="46.42031" lon="-1.58215">
        <ele>11.4</ele>
        <time>2020-06-03T10:15:19Z</time>
      </trkpt>
      <trkpt lat="46.42027" lon="-1.58215">
        <ele>11.4</ele>
        <time>2020-06-03T10:15:20Z</time>
      </trkpt>
      <trkpt lat="46.42022" lon="-1.58215">
        <ele>11.4</ele>
        <time>2020-06-03T10:15:21Z</time>
      </trkpt>
      <trkpt lat="46.42017" lon="-1.58214">
        <ele>11.4</ele>
        <time>2020-06-03T10:15:22Z</time>
      </trkpt>
      <trkpt lat="46.42013" lon="-1.58216">
        <ele>11.4</ele>
        <time>2020-06-03T10:15:23Z</time>
      </trkpt>
      <trkpt lat="46.42009" lon="-1.58218">
        <ele>11.4</ele>
        <time>2020-06-03T10:15:24Z</time>
      </trkpt>
      <trkpt lat="46.42004" lon="-1.58219">
        <ele>11.5</ele>
        <time>2020-06-03T10:15:25Z</time>
      </trkpt>
      <trkpt lat="46.41999" lon="-1.58221">
        <ele>11.5</ele>
        <time>2020-06-03T10:15:26Z</time>
      </trkpt>
      <trkpt lat="46.41995" lon="-1.58224">
        <ele>11.5</ele>
        <time>2020-06-03T10:15:27Z</time>
      </trkpt>
      <trkpt lat="46.4199" lon="-1.58226">
        <ele>11.5</ele>
        <time>2020-06-03T10:15:28Z</time>
      </trkpt>
      <trkpt lat="46.41986" lon="-1.58228">
        <ele>11.5</ele>
        <time>2020-06-03T10:15:29Z</time>
      </trkpt>
      <trkpt lat="46.41981" lon="-1.5823">
        <ele>11.5</ele>
        <time>2020-06-03T10:15:30Z</time>
      </trkpt>
      <trkpt lat="46.41977" lon="-1.58231">
        <ele>11.5</ele>
        <time>2020-06-03T10:15:31Z</time>
      </trkpt>
      <trkpt lat="46.41972" lon="-1.58232">
        <ele>11.5</ele>
        <time>2020-06-03T10:15:32Z</time>
      </trkpt>
      <trkpt lat="46.41968" lon="-1.58235">
        <ele>11.6</ele>
        <time>2020-06-03T10:15:33Z</time>
      </trkpt>
      <trkpt lat="46.41963" lon="-1.58236">
        <ele>11.6</ele>
        <time>2020-06-03T10:15:34Z</time>
      </trkpt>
      <trkpt lat="46.41959" lon="-1.58239">
        <ele>11.6</ele>
        <time>2020-06-03T10:15:35Z</time>
      </trkpt>
      <trkpt lat="46.41955" lon="-1.58241">
        <ele>11.5</ele>
        <time>2020-06-03T10:15:36Z</time>
      </trkpt>
      <trkpt lat="46.41951" lon="-1.58244">
        <ele>11.5</ele>
        <time>2020-06-03T10:15:37Z</time>
      </trkpt>
      <trkpt lat="46.41947" lon="-1.58247">
        <ele>11.5</ele>
        <time>2020-06-03T10:15:38Z</time>
      </trkpt>
      <trkpt lat="46.41942" lon="-1.5825">
        <ele>11.4</ele>
        <time>2020-06-03T10:15:39Z</time>
      </trkpt>
      <trkpt lat="46.41938" lon="-1.58253">
        <ele>11.4</ele>
        <time>2020-06-03T10:15:40Z</time>
      </trkpt>
      <trkpt lat="46.41934" lon="-1.58257">
        <ele>11.3</ele>
        <time>2020-06-03T10:15:41Z</time>
      </trkpt>
      <trkpt lat="46.41929" lon="-1.58259">
        <ele>11.3</ele>
        <time>2020-06-03T10:15:42Z</time>
      </trkpt>
      <trkpt lat="46.41925" lon="-1.58263">
        <ele>11.3</ele>
        <time>2020-06-03T10:15:43Z</time>
      </trkpt>
      <trkpt lat="46.41921" lon="-1.58267">
        <ele>11.3</ele>
        <time>2020-06-03T10:15:44Z</time>
      </trkpt>
      <trkpt lat="46.41916" lon="-1.58271">
        <ele>11.2</ele>
        <time>2020-06-03T10:15:45Z</time>
      </trkpt>
      <trkpt lat="46.41912" lon="-1.58275">
        <ele>11.2</ele>
        <time>2020-06-03T10:15:46Z</time>
      </trkpt>
      <trkpt lat="46.41907" lon="-1.58278">
        <ele>11.2</ele>
        <time>2020-06-03T10:15:47Z</time>
      </trkpt>
      <trkpt lat="46.41903" lon="-1.58281">
        <ele>11.2</ele>
        <time>2020-06-03T10:15:48Z</time>
      </trkpt>
      <trkpt lat="46.41901" lon="-1.58286">
        <ele>11.2</ele>
        <time>2020-06-03T10:15:49Z</time>
      </trkpt>
      <trkpt lat="46.41899" lon="-1.58291">
        <ele>11.1</ele>
        <time>2020-06-03T10:15:50Z</time>
      </trkpt>
      <trkpt lat="46.41897" lon="-1.58297">
        <ele>11.1</ele>
        <time>2020-06-03T10:15:51Z</time>
      </trkpt>
      <trkpt lat="46.41895" lon="-1.58303">
        <ele>11.1</ele>
        <time>2020-06-03T10:15:52Z</time>
      </trkpt>
      <trkpt lat="46.41893" lon="-1.58309">
        <ele>11.2</ele>
        <time>2020-06-03T10:15:53Z</time>
      </trkpt>
      <trkpt lat="46.41893" lon="-1.58316">
        <ele>11.3</ele>
        <time>2020-06-03T10:15:54Z</time>
      </trkpt>
      <trkpt lat="46.41893" lon="-1.58323">
        <ele>11.3</ele>
        <time>2020-06-03T10:15:55Z</time>
      </trkpt>
      <trkpt lat="46.41893" lon="-1.5833">
        <ele>11.5</ele>
        <time>2020-06-03T10:15:56Z</time>
      </trkpt>
      <trkpt lat="46.41893" lon="-1.58338">
        <ele>11.5</ele>
        <time>2020-06-03T10:15:57Z</time>
      </trkpt>
      <trkpt lat="46.41893" lon="-1.58345">
        <ele>11.5</ele>
        <time>2020-06-03T10:15:58Z</time>
      </trkpt>
      <trkpt lat="46.41893" lon="-1.58352">
        <ele>11.5</ele>
        <time>2020-06-03T10:15:59Z</time>
      </trkpt>
      <trkpt lat="46.41893" lon="-1.58359">
        <ele>11.6</ele>
        <time>2020-06-03T10:16:00Z</time>
      </trkpt>
      <trkpt lat="46.41894" lon="-1.58367">
        <ele>11.6</ele>
        <time>2020-06-03T10:16:01Z</time>
      </trkpt>
      <trkpt lat="46.41893" lon="-1.58375">
        <ele>11.6</ele>
        <time>2020-06-03T10:16:02Z</time>
      </trkpt>
      <trkpt lat="46.41893" lon="-1.58382">
        <ele>11.6</ele>
        <time>2020-06-03T10:16:03Z</time>
      </trkpt>
      <trkpt lat="46.41894" lon="-1.5839">
        <ele>11.6</ele>
        <time>2020-06-03T10:16:04Z</time>
      </trkpt>
      <trkpt lat="46.41893" lon="-1.58397">
        <ele>11.6</ele>
        <time>2020-06-03T10:16:05Z</time>
      </trkpt>
      <trkpt lat="46.41892" lon="-1.58404">
        <ele>11.6</ele>
        <time>2020-06-03T10:16:06Z</time>
      </trkpt>
      <trkpt lat="46.41892" lon="-1.5841">
        <ele>11.5</ele>
        <time>2020-06-03T10:16:07Z</time>
      </trkpt>
      <trkpt lat="46.41892" lon="-1.58416">
        <ele>11.5</ele>
        <time>2020-06-03T10:16:08Z</time>
      </trkpt>
      <trkpt lat="46.41892" lon="-1.58421">
        <ele>11.5</ele>
        <time>2020-06-03T10:16:09Z</time>
      </trkpt>
      <trkpt lat="46.41892" lon="-1.58426">
        <ele>11.5</ele>
        <time>2020-06-03T10:16:10Z</time>
      </trkpt>
      <trkpt lat="46.41891" lon="-1.58431">
        <ele>11.5</ele>
        <time>2020-06-03T10:16:11Z</time>
      </trkpt>
      <trkpt lat="46.41891" lon="-1.58433">
        <ele>11.5</ele>
        <time>2020-06-03T10:16:12Z</time>
      </trkpt>
      <trkpt lat="46.41891" lon="-1.58437">
        <ele>11.5</ele>
        <time>2020-06-03T10:16:13Z</time>
      </trkpt>
      <trkpt lat="46.41891" lon="-1.58439">
        <ele>11.4</ele>
        <time>2020-06-03T10:16:14Z</time>
      </trkpt>
      <trkpt lat="46.41891" lon="-1.58441">
        <ele>11.4</ele>
        <time>2020-06-03T10:16:15Z</time>
      </trkpt>
      <trkpt lat="46.41891" lon="-1.58444">
        <ele>11.4</ele>
        <time>2020-06-03T10:16:16Z</time>
      </trkpt>
      <trkpt lat="46.4189" lon="-1.58447">
        <ele>11.4</ele>
        <time>2020-06-03T10:16:17Z</time>
      </trkpt>
      <trkpt lat="46.4189" lon="-1.58451">
        <ele>11.4</ele>
        <time>2020-06-03T10:16:18Z</time>
      </trkpt>
      <trkpt lat="46.4189" lon="-1.58456">
        <ele>11.3</ele>
        <time>2020-06-03T10:16:19Z</time>
      </trkpt>
      <trkpt lat="46.41891" lon="-1.58461">
        <ele>11.3</ele>
        <time>2020-06-03T10:16:20Z</time>
      </trkpt>
      <trkpt lat="46.41891" lon="-1.58467">
        <ele>11.3</ele>
        <time>2020-06-03T10:16:21Z</time>
      </trkpt>
      <trkpt lat="46.41892" lon="-1.58473">
        <ele>11.2</ele>
        <time>2020-06-03T10:16:22Z</time>
      </trkpt>
      <trkpt lat="46.41892" lon="-1.58479">
        <ele>11.2</ele>
        <time>2020-06-03T10:16:23Z</time>
      </trkpt>
      <trkpt lat="46.41892" lon="-1.58485">
        <ele>11.2</ele>
        <time>2020-06-03T10:16:24Z</time>
      </trkpt>
      <trkpt lat="46.41892" lon="-1.58491">
        <ele>11.2</ele>
        <time>2020-06-03T10:16:25Z</time>
      </trkpt>
      <trkpt lat="46.41892" lon="-1.58498">
        <ele>11.2</ele>
        <time>2020-06-03T10:16:26Z</time>
      </trkpt>
      <trkpt lat="46.41892" lon="-1.58504">
        <ele>11.2</ele>
        <time>2020-06-03T10:16:27Z</time>
      </trkpt>
      <trkpt lat="46.41893" lon="-1.58509">
        <ele>11.2</ele>
        <time>2020-06-03T10:16:28Z</time>
      </trkpt>
      <trkpt lat="46.41893" lon="-1.58515">
        <ele>11.2</ele>
        <time>2020-06-03T10:16:29Z</time>
      </trkpt>
      <trkpt lat="46.41893" lon="-1.58521">
        <ele>11.2</ele>
        <time>2020-06-03T10:16:30Z</time>
      </trkpt>
      <trkpt lat="46.41892" lon="-1.58527">
        <ele>11.2</ele>
        <time>2020-06-03T10:16:31Z</time>
      </trkpt>
      <trkpt lat="46.41892" lon="-1.58533">
        <ele>11.3</ele>
        <time>2020-06-03T10:16:32Z</time>
      </trkpt>
      <trkpt lat="46.41892" lon="-1.58539">
        <ele>11.3</ele>
        <time>2020-06-03T10:16:33Z</time>
      </trkpt>
      <trkpt lat="46.41891" lon="-1.58546">
        <ele>11.3</ele>
        <time>2020-06-03T10:16:34Z</time>
      </trkpt>
      <trkpt lat="46.41891" lon="-1.58552">
        <ele>11.4</ele>
        <time>2020-06-03T10:16:35Z</time>
      </trkpt>
      <trkpt lat="46.41891" lon="-1.58558">
        <ele>11.4</ele>
        <time>2020-06-03T10:16:36Z</time>
      </trkpt>
      <trkpt lat="46.41891" lon="-1.58564">
        <ele>11.5</ele>
        <time>2020-06-03T10:16:37Z</time>
      </trkpt>
      <trkpt lat="46.41891" lon="-1.5857">
        <ele>11.5</ele>
        <time>2020-06-03T10:16:38Z</time>
      </trkpt>
      <trkpt lat="46.4189" lon="-1.58576">
        <ele>11.6</ele>
        <time>2020-06-03T10:16:39Z</time>
      </trkpt>
      <trkpt lat="46.41889" lon="-1.58582">
        <ele>11.6</ele>
        <time>2020-06-03T10:16:40Z</time>
      </trkpt>
      <trkpt lat="46.4189" lon="-1.58588">
        <ele>11.6</ele>
        <time>2020-06-03T10:16:41Z</time>
      </trkpt>
      <trkpt lat="46.4189" lon="-1.58594">
        <ele>11.7</ele>
        <time>2020-06-03T10:16:42Z</time>
      </trkpt>
      <trkpt lat="46.4189" lon="-1.586">
        <ele>11.7</ele>
        <time>2020-06-03T10:16:43Z</time>
      </trkpt>
      <trkpt lat="46.4189" lon="-1.58607">
        <ele>11.7</ele>
        <time>2020-06-03T10:16:44Z</time>
      </trkpt>
      <trkpt lat="46.4189" lon="-1.58614">
        <ele>11.7</ele>
        <time>2020-06-03T10:16:45Z</time>
      </trkpt>
      <trkpt lat="46.4189" lon="-1.5862">
        <ele>11.7</ele>
        <time>2020-06-03T10:16:46Z</time>
      </trkpt>
      <trkpt lat="46.41891" lon="-1.58626">
        <ele>11.7</ele>
        <time>2020-06-03T10:16:47Z</time>
      </trkpt>
      <trkpt lat="46.41891" lon="-1.58633">
        <ele>11.7</ele>
        <time>2020-06-03T10:16:48Z</time>
      </trkpt>
      <trkpt lat="46.41892" lon="-1.58639">
        <ele>11.4</ele>
        <time>2020-06-03T10:16:49Z</time>
      </trkpt>
      <trkpt lat="46.41893" lon="-1.58644">
        <ele>11.4</ele>
        <time>2020-06-03T10:16:50Z</time>
      </trkpt>
      <trkpt lat="46.41893" lon="-1.58649">
        <ele>11.5</ele>
        <time>2020-06-03T10:16:51Z</time>
      </trkpt>
      <trkpt lat="46.41893" lon="-1.58654">
        <ele>11.5</ele>
        <time>2020-06-03T10:16:52Z</time>
      </trkpt>
      <trkpt lat="46.41891" lon="-1.58657">
        <ele>11.5</ele>
        <time>2020-06-03T10:16:53Z</time>
      </trkpt>
      <trkpt lat="46.41887" lon="-1.58659">
        <ele>11.5</ele>
        <time>2020-06-03T10:16:54Z</time>
      </trkpt>
      <trkpt lat="46.41883" lon="-1.58659">
        <ele>11.6</ele>
        <time>2020-06-03T10:16:55Z</time>
      </trkpt>
      <trkpt lat="46.4188" lon="-1.58662">
        <ele>11.7</ele>
        <time>2020-06-03T10:16:56Z</time>
      </trkpt>
      <trkpt lat="46.41877" lon="-1.58665">
        <ele>11.7</ele>
        <time>2020-06-03T10:16:57Z</time>
      </trkpt>
      <trkpt lat="46.41874" lon="-1.58668">
        <ele>11.7</ele>
        <time>2020-06-03T10:16:58Z</time>
      </trkpt>
      <trkpt lat="46.41871" lon="-1.5867">
        <ele>11.7</ele>
        <time>2020-06-03T10:16:59Z</time>
      </trkpt>
      <trkpt lat="46.41869" lon="-1.58673">
        <ele>11.8</ele>
        <time>2020-06-03T10:17:00Z</time>
      </trkpt>
      <trkpt lat="46.41867" lon="-1.58678">
        <ele>11.8</ele>
        <time>2020-06-03T10:17:01Z</time>
      </trkpt>
      <trkpt lat="46.41866" lon="-1.58683">
        <ele>11.9</ele>
        <time>2020-06-03T10:17:02Z</time>
      </trkpt>
      <trkpt lat="46.41866" lon="-1.58688">
        <ele>11.9</ele>
        <time>2020-06-03T10:17:03Z</time>
      </trkpt>
      <trkpt lat="46.41865" lon="-1.58694">
        <ele>11.9</ele>
        <time>2020-06-03T10:17:04Z</time>
      </trkpt>
      <trkpt lat="46.41865" lon="-1.58701">
        <ele>12</ele>
        <time>2020-06-03T10:17:05Z</time>
      </trkpt>
      <trkpt lat="46.41864" lon="-1.58707">
        <ele>12</ele>
        <time>2020-06-03T10:17:06Z</time>
      </trkpt>
      <trkpt lat="46.41864" lon="-1.58713">
        <ele>12</ele>
        <time>2020-06-03T10:17:07Z</time>
      </trkpt>
      <trkpt lat="46.41863" lon="-1.58719">
        <ele>12.1</ele>
        <time>2020-06-03T10:17:08Z</time>
      </trkpt>
      <trkpt lat="46.41862" lon="-1.58725">
        <ele>12.1</ele>
        <time>2020-06-03T10:17:09Z</time>
      </trkpt>
      <trkpt lat="46.41861" lon="-1.58731">
        <ele>12.2</ele>
        <time>2020-06-03T10:17:10Z</time>
      </trkpt>
      <trkpt lat="46.41861" lon="-1.58737">
        <ele>12.2</ele>
        <time>2020-06-03T10:17:11Z</time>
      </trkpt>
      <trkpt lat="46.41861" lon="-1.58741">
        <ele>12.2</ele>
        <time>2020-06-03T10:17:12Z</time>
      </trkpt>
      <trkpt lat="46.4186" lon="-1.58745">
        <ele>12.2</ele>
        <time>2020-06-03T10:17:13Z</time>
      </trkpt>
      <trkpt lat="46.41858" lon="-1.5875">
        <ele>12.3</ele>
        <time>2020-06-03T10:17:14Z</time>
      </trkpt>
      <trkpt lat="46.41858" lon="-1.58755">
        <ele>12.3</ele>
        <time>2020-06-03T10:17:15Z</time>
      </trkpt>
      <trkpt lat="46.41857" lon="-1.58761">
        <ele>12.3</ele>
        <time>2020-06-03T10:17:16Z</time>
      </trkpt>
      <trkpt lat="46.41857" lon="-1.58767">
        <ele>12.3</ele>
        <time>2020-06-03T10:17:17Z</time>
      </trkpt>
      <trkpt lat="46.41856" lon="-1.58774">
        <ele>12.4</ele>
        <time>2020-06-03T10:17:18Z</time>
      </trkpt>
      <trkpt lat="46.41855" lon="-1.58782">
        <ele>12.4</ele>
        <time>2020-06-03T10:17:19Z</time>
      </trkpt>
      <trkpt lat="46.41854" lon="-1.58788">
        <ele>12.4</ele>
        <time>2020-06-03T10:17:20Z</time>
      </trkpt>
      <trkpt lat="46.41854" lon="-1.58794">
        <ele>12.4</ele>
        <time>2020-06-03T10:17:21Z</time>
      </trkpt>
      <trkpt lat="46.41853" lon="-1.588">
        <ele>12.4</ele>
        <time>2020-06-03T10:17:22Z</time>
      </trkpt>
      <trkpt lat="46.41853" lon="-1.58807">
        <ele>12.4</ele>
        <time>2020-06-03T10:17:23Z</time>
      </trkpt>
      <trkpt lat="46.41852" lon="-1.58814">
        <ele>12.4</ele>
        <time>2020-06-03T10:17:24Z</time>
      </trkpt>
      <trkpt lat="46.41852" lon="-1.58821">
        <ele>12.4</ele>
        <time>2020-06-03T10:17:25Z</time>
      </trkpt>
      <trkpt lat="46.41851" lon="-1.58828">
        <ele>12.4</ele>
        <time>2020-06-03T10:17:26Z</time>
      </trkpt>
      <trkpt lat="46.41851" lon="-1.58835">
        <ele>12.4</ele>
        <time>2020-06-03T10:17:27Z</time>
      </trkpt>
      <trkpt lat="46.4185" lon="-1.58842">
        <ele>12.4</ele>
        <time>2020-06-03T10:17:28Z</time>
      </trkpt>
      <trkpt lat="46.4185" lon="-1.58847">
        <ele>12.4</ele>
        <time>2020-06-03T10:17:29Z</time>
      </trkpt>
      <trkpt lat="46.4185" lon="-1.58853">
        <ele>12.4</ele>
        <time>2020-06-03T10:17:30Z</time>
      </trkpt>
      <trkpt lat="46.41849" lon="-1.58859">
        <ele>12.4</ele>
        <time>2020-06-03T10:17:31Z</time>
      </trkpt>
      <trkpt lat="46.4185" lon="-1.58864">
        <ele>12.5</ele>
        <time>2020-06-03T10:17:32Z</time>
      </trkpt>
      <trkpt lat="46.4185" lon="-1.5887">
        <ele>12.5</ele>
        <time>2020-06-03T10:17:33Z</time>
      </trkpt>
      <trkpt lat="46.4185" lon="-1.58877">
        <ele>12.5</ele>
        <time>2020-06-03T10:17:34Z</time>
      </trkpt>
      <trkpt lat="46.4185" lon="-1.58885">
        <ele>12.5</ele>
        <time>2020-06-03T10:17:35Z</time>
      </trkpt>
      <trkpt lat="46.41851" lon="-1.58892">
        <ele>12.5</ele>
        <time>2020-06-03T10:17:36Z</time>
      </trkpt>
      <trkpt lat="46.41851" lon="-1.58899">
        <ele>12.5</ele>
        <time>2020-06-03T10:17:37Z</time>
      </trkpt>
      <trkpt lat="46.41851" lon="-1.58907">
        <ele>12.5</ele>
        <time>2020-06-03T10:17:38Z</time>
      </trkpt>
      <trkpt lat="46.41851" lon="-1.58914">
        <ele>12.5</ele>
        <time>2020-06-03T10:17:39Z</time>
      </trkpt>
      <trkpt lat="46.41852" lon="-1.58921">
        <ele>12.4</ele>
        <time>2020-06-03T10:17:40Z</time>
      </trkpt>
      <trkpt lat="46.41852" lon="-1.58929">
        <ele>12.4</ele>
        <time>2020-06-03T10:17:41Z</time>
      </trkpt>
      <trkpt lat="46.41852" lon="-1.58934">
        <ele>12.4</ele>
        <time>2020-06-03T10:17:42Z</time>
      </trkpt>
      <trkpt lat="46.41852" lon="-1.58941">
        <ele>12.4</ele>
        <time>2020-06-03T10:17:43Z</time>
      </trkpt>
      <trkpt lat="46.41852" lon="-1.5895">
        <ele>12.4</ele>
        <time>2020-06-03T10:17:44Z</time>
      </trkpt>
      <trkpt lat="46.41854" lon="-1.58957">
        <ele>12.4</ele>
        <time>2020-06-03T10:17:45Z</time>
      </trkpt>
      <trkpt lat="46.41855" lon="-1.58965">
        <ele>12.4</ele>
        <time>2020-06-03T10:17:46Z</time>
      </trkpt>
      <trkpt lat="46.41856" lon="-1.58972">
        <ele>12.4</ele>
        <time>2020-06-03T10:17:47Z</time>
      </trkpt>
      <trkpt lat="46.41857" lon="-1.58978">
        <ele>12.4</ele>
        <time>2020-06-03T10:17:48Z</time>
      </trkpt>
      <trkpt lat="46.41858" lon="-1.58985">
        <ele>12.4</ele>
        <time>2020-06-03T10:17:49Z</time>
      </trkpt>
      <trkpt lat="46.41859" lon="-1.58991">
        <ele>12.4</ele>
        <time>2020-06-03T10:17:50Z</time>
      </trkpt>
      <trkpt lat="46.41859" lon="-1.58997">
        <ele>12.4</ele>
        <time>2020-06-03T10:17:51Z</time>
      </trkpt>
      <trkpt lat="46.4186" lon="-1.59004">
        <ele>12.4</ele>
        <time>2020-06-03T10:17:52Z</time>
      </trkpt>
      <trkpt lat="46.4186" lon="-1.5901">
        <ele>12.4</ele>
        <time>2020-06-03T10:17:53Z</time>
      </trkpt>
      <trkpt lat="46.41861" lon="-1.59016">
        <ele>12.5</ele>
        <time>2020-06-03T10:17:54Z</time>
      </trkpt>
      <trkpt lat="46.41862" lon="-1.59023">
        <ele>12.5</ele>
        <time>2020-06-03T10:17:55Z</time>
      </trkpt>
      <trkpt lat="46.41863" lon="-1.59029">
        <ele>12.5</ele>
        <time>2020-06-03T10:17:56Z</time>
      </trkpt>
      <trkpt lat="46.41865" lon="-1.59037">
        <ele>12.5</ele>
        <time>2020-06-03T10:17:57Z</time>
      </trkpt>
      <trkpt lat="46.41865" lon="-1.59044">
        <ele>12.5</ele>
        <time>2020-06-03T10:17:58Z</time>
      </trkpt>
      <trkpt lat="46.41866" lon="-1.59051">
        <ele>12.5</ele>
        <time>2020-06-03T10:17:59Z</time>
      </trkpt>
      <trkpt lat="46.41867" lon="-1.59058">
        <ele>12.5</ele>
        <time>2020-06-03T10:18:00Z</time>
      </trkpt>
      <trkpt lat="46.41867" lon="-1.59065">
        <ele>12.5</ele>
        <time>2020-06-03T10:18:01Z</time>
      </trkpt>
      <trkpt lat="46.41868" lon="-1.59072">
        <ele>12.5</ele>
        <time>2020-06-03T10:18:02Z</time>
      </trkpt>
      <trkpt lat="46.41869" lon="-1.59079">
        <ele>12.5</ele>
        <time>2020-06-03T10:18:03Z</time>
      </trkpt>
      <trkpt lat="46.4187" lon="-1.59086">
        <ele>12.5</ele>
        <time>2020-06-03T10:18:04Z</time>
      </trkpt>
      <trkpt lat="46.41872" lon="-1.59092">
        <ele>12.5</ele>
        <time>2020-06-03T10:18:05Z</time>
      </trkpt>
      <trkpt lat="46.41873" lon="-1.59098">
        <ele>12.5</ele>
        <time>2020-06-03T10:18:06Z</time>
      </trkpt>
      <trkpt lat="46.41874" lon="-1.59103">
        <ele>12.5</ele>
        <time>2020-06-03T10:18:07Z</time>
      </trkpt>
      <trkpt lat="46.41875" lon="-1.59109">
        <ele>12.5</ele>
        <time>2020-06-03T10:18:08Z</time>
      </trkpt>
      <trkpt lat="46.41876" lon="-1.59114">
        <ele>12.6</ele>
        <time>2020-06-03T10:18:09Z</time>
      </trkpt>
      <trkpt lat="46.41876" lon="-1.5912">
        <ele>12.6</ele>
        <time>2020-06-03T10:18:10Z</time>
      </trkpt>
      <trkpt lat="46.41877" lon="-1.59127">
        <ele>12.6</ele>
        <time>2020-06-03T10:18:11Z</time>
      </trkpt>
      <trkpt lat="46.41878" lon="-1.59134">
        <ele>12.6</ele>
        <time>2020-06-03T10:18:12Z</time>
      </trkpt>
      <trkpt lat="46.41879" lon="-1.59141">
        <ele>12.6</ele>
        <time>2020-06-03T10:18:13Z</time>
      </trkpt>
      <trkpt lat="46.4188" lon="-1.59148">
        <ele>12.6</ele>
        <time>2020-06-03T10:18:14Z</time>
      </trkpt>
      <trkpt lat="46.41881" lon="-1.59155">
        <ele>12.6</ele>
        <time>2020-06-03T10:18:15Z</time>
      </trkpt>
      <trkpt lat="46.41882" lon="-1.59161">
        <ele>12.6</ele>
        <time>2020-06-03T10:18:16Z</time>
      </trkpt>
      <trkpt lat="46.41883" lon="-1.59168">
        <ele>12.6</ele>
        <time>2020-06-03T10:18:17Z</time>
      </trkpt>
      <trkpt lat="46.41885" lon="-1.59176">
        <ele>12.7</ele>
        <time>2020-06-03T10:18:18Z</time>
      </trkpt>
      <trkpt lat="46.41886" lon="-1.59183">
        <ele>12.7</ele>
        <time>2020-06-03T10:18:19Z</time>
      </trkpt>
      <trkpt lat="46.41887" lon="-1.59189">
        <ele>12.7</ele>
        <time>2020-06-03T10:18:20Z</time>
      </trkpt>
      <trkpt lat="46.41887" lon="-1.59195">
        <ele>12.7</ele>
        <time>2020-06-03T10:18:21Z</time>
      </trkpt>
      <trkpt lat="46.41889" lon="-1.59202">
        <ele>12.7</ele>
        <time>2020-06-03T10:18:22Z</time>
      </trkpt>
      <trkpt lat="46.41889" lon="-1.59207">
        <ele>12.7</ele>
        <time>2020-06-03T10:18:23Z</time>
      </trkpt>
      <trkpt lat="46.4189" lon="-1.59213">
        <ele>12.7</ele>
        <time>2020-06-03T10:18:24Z</time>
      </trkpt>
      <trkpt lat="46.41891" lon="-1.59219">
        <ele>12.7</ele>
        <time>2020-06-03T10:18:25Z</time>
      </trkpt>
      <trkpt lat="46.41892" lon="-1.59225">
        <ele>12.8</ele>
        <time>2020-06-03T10:18:26Z</time>
      </trkpt>
      <trkpt lat="46.41894" lon="-1.59233">
        <ele>12.8</ele>
        <time>2020-06-03T10:18:27Z</time>
      </trkpt>
      <trkpt lat="46.41895" lon="-1.5924">
        <ele>12.8</ele>
        <time>2020-06-03T10:18:28Z</time>
      </trkpt>
      <trkpt lat="46.41897" lon="-1.59246">
        <ele>12.8</ele>
        <time>2020-06-03T10:18:29Z</time>
      </trkpt>
      <trkpt lat="46.41898" lon="-1.59252">
        <ele>12.8</ele>
        <time>2020-06-03T10:18:30Z</time>
      </trkpt>
      <trkpt lat="46.41899" lon="-1.59259">
        <ele>12.8</ele>
        <time>2020-06-03T10:18:31Z</time>
      </trkpt>
      <trkpt lat="46.41899" lon="-1.59266">
        <ele>12.8</ele>
        <time>2020-06-03T10:18:32Z</time>
      </trkpt>
      <trkpt lat="46.419" lon="-1.59274">
        <ele>12.8</ele>
        <time>2020-06-03T10:18:33Z</time>
      </trkpt>
      <trkpt lat="46.41902" lon="-1.59282">
        <ele>12.7</ele>
        <time>2020-06-03T10:18:34Z</time>
      </trkpt>
      <trkpt lat="46.41903" lon="-1.59289">
        <ele>12.7</ele>
        <time>2020-06-03T10:18:35Z</time>
      </trkpt>
      <trkpt lat="46.41905" lon="-1.59297">
        <ele>12.7</ele>
        <time>2020-06-03T10:18:36Z</time>
      </trkpt>
      <trkpt lat="46.41907" lon="-1.59305">
        <ele>12.6</ele>
        <time>2020-06-03T10:18:37Z</time>
      </trkpt>
      <trkpt lat="46.41908" lon="-1.59312">
        <ele>12.6</ele>
        <time>2020-06-03T10:18:38Z</time>
      </trkpt>
      <trkpt lat="46.41909" lon="-1.59319">
        <ele>12.6</ele>
        <time>2020-06-03T10:18:39Z</time>
      </trkpt>
      <trkpt lat="46.4191" lon="-1.59325">
        <ele>12.6</ele>
        <time>2020-06-03T10:18:40Z</time>
      </trkpt>
      <trkpt lat="46.41912" lon="-1.59333">
        <ele>12.5</ele>
        <time>2020-06-03T10:18:41Z</time>
      </trkpt>
      <trkpt lat="46.41913" lon="-1.59339">
        <ele>12.5</ele>
        <time>2020-06-03T10:18:42Z</time>
      </trkpt>
      <trkpt lat="46.41914" lon="-1.59346">
        <ele>12.5</ele>
        <time>2020-06-03T10:18:43Z</time>
      </trkpt>
      <trkpt lat="46.41915" lon="-1.59352">
        <ele>12.5</ele>
        <time>2020-06-03T10:18:44Z</time>
      </trkpt>
      <trkpt lat="46.41916" lon="-1.59357">
        <ele>12.5</ele>
        <time>2020-06-03T10:18:45Z</time>
      </trkpt>
      <trkpt lat="46.41916" lon="-1.59363">
        <ele>12.5</ele>
        <time>2020-06-03T10:18:46Z</time>
      </trkpt>
      <trkpt lat="46.41917" lon="-1.59368">
        <ele>12.5</ele>
        <time>2020-06-03T10:18:47Z</time>
      </trkpt>
      <trkpt lat="46.41917" lon="-1.59374">
        <ele>12.5</ele>
        <time>2020-06-03T10:18:48Z</time>
      </trkpt>
      <trkpt lat="46.41918" lon="-1.59378">
        <ele>12.5</ele>
        <time>2020-06-03T10:18:49Z</time>
      </trkpt>
      <trkpt lat="46.41918" lon="-1.59385">
        <ele>12.5</ele>
        <time>2020-06-03T10:18:50Z</time>
      </trkpt>
      <trkpt lat="46.41919" lon="-1.59391">
        <ele>12.6</ele>
        <time>2020-06-03T10:18:51Z</time>
      </trkpt>
      <trkpt lat="46.41919" lon="-1.59397">
        <ele>12.6</ele>
        <time>2020-06-03T10:18:52Z</time>
      </trkpt>
      <trkpt lat="46.4192" lon="-1.59402">
        <ele>12.6</ele>
        <time>2020-06-03T10:18:53Z</time>
      </trkpt>
      <trkpt lat="46.4192" lon="-1.59407">
        <ele>12.6</ele>
        <time>2020-06-03T10:18:54Z</time>
      </trkpt>
      <trkpt lat="46.41921" lon="-1.59413">
        <ele>12.6</ele>
        <time>2020-06-03T10:18:55Z</time>
      </trkpt>
      <trkpt lat="46.41921" lon="-1.59418">
        <ele>12.6</ele>
        <time>2020-06-03T10:18:56Z</time>
      </trkpt>
      <trkpt lat="46.41922" lon="-1.59424">
        <ele>12.7</ele>
        <time>2020-06-03T10:18:57Z</time>
      </trkpt>
      <trkpt lat="46.41922" lon="-1.59431">
        <ele>12.7</ele>
        <time>2020-06-03T10:18:58Z</time>
      </trkpt>
      <trkpt lat="46.41924" lon="-1.59436">
        <ele>12.7</ele>
        <time>2020-06-03T10:18:59Z</time>
      </trkpt>
      <trkpt lat="46.41924" lon="-1.59442">
        <ele>12.7</ele>
        <time>2020-06-03T10:19:00Z</time>
      </trkpt>
      <trkpt lat="46.41925" lon="-1.59449">
        <ele>12.7</ele>
        <time>2020-06-03T10:19:01Z</time>
      </trkpt>
      <trkpt lat="46.41925" lon="-1.59454">
        <ele>12.7</ele>
        <time>2020-06-03T10:19:02Z</time>
      </trkpt>
      <trkpt lat="46.41925" lon="-1.59459">
        <ele>12.7</ele>
        <time>2020-06-03T10:19:03Z</time>
      </trkpt>
      <trkpt lat="46.41926" lon="-1.59465">
        <ele>12.7</ele>
        <time>2020-06-03T10:19:04Z</time>
      </trkpt>
      <trkpt lat="46.41926" lon="-1.59471">
        <ele>12.7</ele>
        <time>2020-06-03T10:19:05Z</time>
      </trkpt>
      <trkpt lat="46.41927" lon="-1.59475">
        <ele>12.7</ele>
        <time>2020-06-03T10:19:06Z</time>
      </trkpt>
      <trkpt lat="46.41928" lon="-1.5948">
        <ele>12.7</ele>
        <time>2020-06-03T10:19:07Z</time>
      </trkpt>
      <trkpt lat="46.41928" lon="-1.59486">
        <ele>12.7</ele>
        <time>2020-06-03T10:19:08Z</time>
      </trkpt>
      <trkpt lat="46.41929" lon="-1.59492">
        <ele>12.7</ele>
        <time>2020-06-03T10:19:09Z</time>
      </trkpt>
      <trkpt lat="46.41929" lon="-1.59497">
        <ele>12.7</ele>
        <time>2020-06-03T10:19:10Z</time>
      </trkpt>
      <trkpt lat="46.41929" lon="-1.59502">
        <ele>12.7</ele>
        <time>2020-06-03T10:19:11Z</time>
      </trkpt>
      <trkpt lat="46.41929" lon="-1.59506">
        <ele>12.7</ele>
        <time>2020-06-03T10:19:12Z</time>
      </trkpt>
      <trkpt lat="46.41929" lon="-1.59513">
        <ele>12.7</ele>
        <time>2020-06-03T10:19:13Z</time>
      </trkpt>
      <trkpt lat="46.41928" lon="-1.59517">
        <ele>12.7</ele>
        <time>2020-06-03T10:19:14Z</time>
      </trkpt>
      <trkpt lat="46.41928" lon="-1.59523">
        <ele>12.7</ele>
        <time>2020-06-03T10:19:15Z</time>
      </trkpt>
      <trkpt lat="46.41927" lon="-1.59527">
        <ele>12.6</ele>
        <time>2020-06-03T10:19:16Z</time>
      </trkpt>
      <trkpt lat="46.41926" lon="-1.59532">
        <ele>12.6</ele>
        <time>2020-06-03T10:19:17Z</time>
      </trkpt>
      <trkpt lat="46.41926" lon="-1.59536">
        <ele>12.6</ele>
        <time>2020-06-03T10:19:18Z</time>
      </trkpt>
      <trkpt lat="46.41926" lon="-1.59542">
        <ele>12.6</ele>
        <time>2020-06-03T10:19:19Z</time>
      </trkpt>
      <trkpt lat="46.41926" lon="-1.59546">
        <ele>12.6</ele>
        <time>2020-06-03T10:19:20Z</time>
      </trkpt>
      <trkpt lat="46.41926" lon="-1.59551">
        <ele>12.6</ele>
        <time>2020-06-03T10:19:21Z</time>
      </trkpt>
      <trkpt lat="46.41926" lon="-1.59553">
        <ele>12.6</ele>
        <time>2020-06-03T10:19:22Z</time>
      </trkpt>
      <trkpt lat="46.41927" lon="-1.59554">
        <ele>12.6</ele>
        <time>2020-06-03T10:19:23Z</time>
      </trkpt>
      <trkpt lat="46.41928" lon="-1.59556">
        <ele>12.6</ele>
        <time>2020-06-03T10:19:24Z</time>
      </trkpt>
      <trkpt lat="46.4193" lon="-1.59558">
        <ele>12.5</ele>
        <time>2020-06-03T10:19:25Z</time>
      </trkpt>
      <trkpt lat="46.41931" lon="-1.5956">
        <ele>12.5</ele>
        <time>2020-06-03T10:19:26Z</time>
      </trkpt>
      <trkpt lat="46.41933" lon="-1.59565">
        <ele>12.4</ele>
        <time>2020-06-03T10:19:27Z</time>
      </trkpt>
      <trkpt lat="46.41933" lon="-1.59567">
        <ele>12.4</ele>
        <time>2020-06-03T10:19:28Z</time>
      </trkpt>
      <trkpt lat="46.41933" lon="-1.59571">
        <ele>12.4</ele>
        <time>2020-06-03T10:19:29Z</time>
      </trkpt>
      <trkpt lat="46.41933" lon="-1.59577">
        <ele>12.4</ele>
        <time>2020-06-03T10:19:30Z</time>
      </trkpt>
      <trkpt lat="46.41933" lon="-1.59582">
        <ele>12.4</ele>
        <time>2020-06-03T10:19:31Z</time>
      </trkpt>
      <trkpt lat="46.41932" lon="-1.59589">
        <ele>12.4</ele>
        <time>2020-06-03T10:19:32Z</time>
      </trkpt>
      <trkpt lat="46.41931" lon="-1.59593">
        <ele>12.4</ele>
        <time>2020-06-03T10:19:33Z</time>
      </trkpt>
      <trkpt lat="46.41931" lon="-1.59601">
        <ele>12.4</ele>
        <time>2020-06-03T10:19:34Z</time>
      </trkpt>
      <trkpt lat="46.41931" lon="-1.59607">
        <ele>12.4</ele>
        <time>2020-06-03T10:19:35Z</time>
      </trkpt>
      <trkpt lat="46.4193" lon="-1.59612">
        <ele>12.4</ele>
        <time>2020-06-03T10:19:36Z</time>
      </trkpt>
      <trkpt lat="46.41929" lon="-1.59618">
        <ele>12.4</ele>
        <time>2020-06-03T10:19:37Z</time>
      </trkpt>
      <trkpt lat="46.41928" lon="-1.59625">
        <ele>12.3</ele>
        <time>2020-06-03T10:19:38Z</time>
      </trkpt>
      <trkpt lat="46.41927" lon="-1.59631">
        <ele>12.3</ele>
        <time>2020-06-03T10:19:39Z</time>
      </trkpt>
      <trkpt lat="46.41926" lon="-1.59639">
        <ele>12.3</ele>
        <time>2020-06-03T10:19:40Z</time>
      </trkpt>
      <trkpt lat="46.41925" lon="-1.59646">
        <ele>12.3</ele>
        <time>2020-06-03T10:19:41Z</time>
      </trkpt>
      <trkpt lat="46.41924" lon="-1.59654">
        <ele>12.3</ele>
        <time>2020-06-03T10:19:42Z</time>
      </trkpt>
      <trkpt lat="46.41923" lon="-1.5966">
        <ele>12.2</ele>
        <time>2020-06-03T10:19:43Z</time>
      </trkpt>
      <trkpt lat="46.41923" lon="-1.59668">
        <ele>12.2</ele>
        <time>2020-06-03T10:19:44Z</time>
      </trkpt>
      <trkpt lat="46.41923" lon="-1.59673">
        <ele>12.2</ele>
        <time>2020-06-03T10:19:45Z</time>
      </trkpt>
      <trkpt lat="46.41922" lon="-1.59679">
        <ele>12.2</ele>
        <time>2020-06-03T10:19:46Z</time>
      </trkpt>
      <trkpt lat="46.41921" lon="-1.59685">
        <ele>12.2</ele>
        <time>2020-06-03T10:19:47Z</time>
      </trkpt>
      <trkpt lat="46.4192" lon="-1.59692">
        <ele>12.2</ele>
        <time>2020-06-03T10:19:48Z</time>
      </trkpt>
      <trkpt lat="46.41918" lon="-1.59699">
        <ele>12.2</ele>
        <time>2020-06-03T10:19:49Z</time>
      </trkpt>
      <trkpt lat="46.41918" lon="-1.59706">
        <ele>12.1</ele>
        <time>2020-06-03T10:19:50Z</time>
      </trkpt>
      <trkpt lat="46.41917" lon="-1.59713">
        <ele>12.1</ele>
        <time>2020-06-03T10:19:51Z</time>
      </trkpt>
      <trkpt lat="46.41916" lon="-1.59719">
        <ele>12.1</ele>
        <time>2020-06-03T10:19:52Z</time>
      </trkpt>
      <trkpt lat="46.41916" lon="-1.59725">
        <ele>12.1</ele>
        <time>2020-06-03T10:19:53Z</time>
      </trkpt>
      <trkpt lat="46.41915" lon="-1.59732">
        <ele>12.1</ele>
        <time>2020-06-03T10:19:54Z</time>
      </trkpt>
      <trkpt lat="46.41915" lon="-1.5974">
        <ele>12.1</ele>
        <time>2020-06-03T10:19:55Z</time>
      </trkpt>
      <trkpt lat="46.41915" lon="-1.59747">
        <ele>12.1</ele>
        <time>2020-06-03T10:19:56Z</time>
      </trkpt>
      <trkpt lat="46.41915" lon="-1.59752">
        <ele>12.1</ele>
        <time>2020-06-03T10:19:57Z</time>
      </trkpt>
      <trkpt lat="46.41915" lon="-1.5976">
        <ele>12.1</ele>
        <time>2020-06-03T10:19:58Z</time>
      </trkpt>
      <trkpt lat="46.41915" lon="-1.59767">
        <ele>12.1</ele>
        <time>2020-06-03T10:19:59Z</time>
      </trkpt>
      <trkpt lat="46.41916" lon="-1.59774">
        <ele>12.2</ele>
        <time>2020-06-03T10:20:00Z</time>
      </trkpt>
      <trkpt lat="46.41917" lon="-1.5978">
        <ele>12.2</ele>
        <time>2020-06-03T10:20:01Z</time>
      </trkpt>
      <trkpt lat="46.41917" lon="-1.59786">
        <ele>12.2</ele>
        <time>2020-06-03T10:20:02Z</time>
      </trkpt>
      <trkpt lat="46.41919" lon="-1.59794">
        <ele>12.3</ele>
        <time>2020-06-03T10:20:03Z</time>
      </trkpt>
      <trkpt lat="46.4192" lon="-1.598">
        <ele>12.3</ele>
        <time>2020-06-03T10:20:04Z</time>
      </trkpt>
      <trkpt lat="46.4192" lon="-1.59805">
        <ele>12.4</ele>
        <time>2020-06-03T10:20:05Z</time>
      </trkpt>
      <trkpt lat="46.41921" lon="-1.59811">
        <ele>12.4</ele>
        <time>2020-06-03T10:20:06Z</time>
      </trkpt>
      <trkpt lat="46.41922" lon="-1.59817">
        <ele>12.5</ele>
        <time>2020-06-03T10:20:07Z</time>
      </trkpt>
      <trkpt lat="46.41923" lon="-1.59823">
        <ele>12.5</ele>
        <time>2020-06-03T10:20:08Z</time>
      </trkpt>
      <trkpt lat="46.41924" lon="-1.59829">
        <ele>12.5</ele>
        <time>2020-06-03T10:20:09Z</time>
      </trkpt>
      <trkpt lat="46.41926" lon="-1.59836">
        <ele>12.6</ele>
        <time>2020-06-03T10:20:10Z</time>
      </trkpt>
      <trkpt lat="46.41927" lon="-1.59844">
        <ele>12.6</ele>
        <time>2020-06-03T10:20:11Z</time>
      </trkpt>
      <trkpt lat="46.41929" lon="-1.5985">
        <ele>12.6</ele>
        <time>2020-06-03T10:20:12Z</time>
      </trkpt>
      <trkpt lat="46.4193" lon="-1.59856">
        <ele>12.6</ele>
        <time>2020-06-03T10:20:13Z</time>
      </trkpt>
      <trkpt lat="46.41932" lon="-1.59863">
        <ele>12.6</ele>
        <time>2020-06-03T10:20:14Z</time>
      </trkpt>
      <trkpt lat="46.41934" lon="-1.59869">
        <ele>12.7</ele>
        <time>2020-06-03T10:20:15Z</time>
      </trkpt>
      <trkpt lat="46.41936" lon="-1.59876">
        <ele>12.7</ele>
        <time>2020-06-03T10:20:16Z</time>
      </trkpt>
      <trkpt lat="46.41939" lon="-1.59883">
        <ele>12.7</ele>
        <time>2020-06-03T10:20:17Z</time>
      </trkpt>
      <trkpt lat="46.41942" lon="-1.59889">
        <ele>12.7</ele>
        <time>2020-06-03T10:20:18Z</time>
      </trkpt>
      <trkpt lat="46.41944" lon="-1.59895">
        <ele>12.7</ele>
        <time>2020-06-03T10:20:19Z</time>
      </trkpt>
      <trkpt lat="46.41946" lon="-1.59901">
        <ele>12.7</ele>
        <time>2020-06-03T10:20:20Z</time>
      </trkpt>
      <trkpt lat="46.41949" lon="-1.59907">
        <ele>12.7</ele>
        <time>2020-06-03T10:20:21Z</time>
      </trkpt>
      <trkpt lat="46.41951" lon="-1.59912">
        <ele>12.8</ele>
        <time>2020-06-03T10:20:22Z</time>
      </trkpt>
      <trkpt lat="46.41953" lon="-1.59918">
        <ele>12.8</ele>
        <time>2020-06-03T10:20:23Z</time>
      </trkpt>
      <trkpt lat="46.41955" lon="-1.59924">
        <ele>12.8</ele>
        <time>2020-06-03T10:20:24Z</time>
      </trkpt>
      <trkpt lat="46.41958" lon="-1.59929">
        <ele>12.8</ele>
        <time>2020-06-03T10:20:25Z</time>
      </trkpt>
      <trkpt lat="46.41962" lon="-1.59935">
        <ele>12.9</ele>
        <time>2020-06-03T10:20:26Z</time>
      </trkpt>
      <trkpt lat="46.41965" lon="-1.59941">
        <ele>12.9</ele>
        <time>2020-06-03T10:20:27Z</time>
      </trkpt>
      <trkpt lat="46.41968" lon="-1.59946">
        <ele>13</ele>
        <time>2020-06-03T10:20:28Z</time>
      </trkpt>
      <trkpt lat="46.41971" lon="-1.5995">
        <ele>13</ele>
        <time>2020-06-03T10:20:29Z</time>
      </trkpt>
      <trkpt lat="46.41974" lon="-1.59955">
        <ele>13.1</ele>
        <time>2020-06-03T10:20:30Z</time>
      </trkpt>
      <trkpt lat="46.41978" lon="-1.59958">
        <ele>13.2</ele>
        <time>2020-06-03T10:20:31Z</time>
      </trkpt>
      <trkpt lat="46.41982" lon="-1.59963">
        <ele>13.3</ele>
        <time>2020-06-03T10:20:32Z</time>
      </trkpt>
      <trkpt lat="46.41985" lon="-1.59967">
        <ele>13.3</ele>
        <time>2020-06-03T10:20:33Z</time>
      </trkpt>
      <trkpt lat="46.41989" lon="-1.59972">
        <ele>13.4</ele>
        <time>2020-06-03T10:20:34Z</time>
      </trkpt>
      <trkpt lat="46.41993" lon="-1.59975">
        <ele>13.4</ele>
        <time>2020-06-03T10:20:35Z</time>
      </trkpt>
      <trkpt lat="46.41997" lon="-1.59979">
        <ele>13.5</ele>
        <time>2020-06-03T10:20:36Z</time>
      </trkpt>
      <trkpt lat="46.42001" lon="-1.59982">
        <ele>13.5</ele>
        <time>2020-06-03T10:20:37Z</time>
      </trkpt>
      <trkpt lat="46.42006" lon="-1.59985">
        <ele>13.5</ele>
        <time>2020-06-03T10:20:38Z</time>
      </trkpt>
      <trkpt lat="46.4201" lon="-1.59988">
        <ele>13.5</ele>
        <time>2020-06-03T10:20:39Z</time>
      </trkpt>
      <trkpt lat="46.42014" lon="-1.59991">
        <ele>13.5</ele>
        <time>2020-06-03T10:20:40Z</time>
      </trkpt>
      <trkpt lat="46.42018" lon="-1.59996">
        <ele>13.6</ele>
        <time>2020-06-03T10:20:41Z</time>
      </trkpt>
      <trkpt lat="46.42023" lon="-1.60001">
        <ele>13.6</ele>
        <time>2020-06-03T10:20:42Z</time>
      </trkpt>
      <trkpt lat="46.42027" lon="-1.60006">
        <ele>13.6</ele>
        <time>2020-06-03T10:20:43Z</time>
      </trkpt>
      <trkpt lat="46.4203" lon="-1.60011">
        <ele>13.6</ele>
        <time>2020-06-03T10:20:44Z</time>
      </trkpt>
      <trkpt lat="46.42033" lon="-1.60016">
        <ele>13.6</ele>
        <time>2020-06-03T10:20:45Z</time>
      </trkpt>
      <trkpt lat="46.42036" lon="-1.6002">
        <ele>13.6</ele>
        <time>2020-06-03T10:20:46Z</time>
      </trkpt>
      <trkpt lat="46.42037" lon="-1.60023">
        <ele>13.7</ele>
        <time>2020-06-03T10:20:47Z</time>
      </trkpt>
      <trkpt lat="46.42041" lon="-1.60029">
        <ele>13.7</ele>
        <time>2020-06-03T10:20:48Z</time>
      </trkpt>
      <trkpt lat="46.42044" lon="-1.60035">
        <ele>13.7</ele>
        <time>2020-06-03T10:20:49Z</time>
      </trkpt>
      <trkpt lat="46.42047" lon="-1.60042">
        <ele>13.7</ele>
        <time>2020-06-03T10:20:50Z</time>
      </trkpt>
      <trkpt lat="46.4205" lon="-1.60048">
        <ele>13.7</ele>
        <time>2020-06-03T10:20:51Z</time>
      </trkpt>
      <trkpt lat="46.42051" lon="-1.60056">
        <ele>13.7</ele>
        <time>2020-06-03T10:20:52Z</time>
      </trkpt>
      <trkpt lat="46.42052" lon="-1.60064">
        <ele>13.7</ele>
        <time>2020-06-03T10:20:53Z</time>
      </trkpt>
      <trkpt lat="46.42053" lon="-1.60072">
        <ele>13.7</ele>
        <time>2020-06-03T10:20:54Z</time>
      </trkpt>
      <trkpt lat="46.42055" lon="-1.60079">
        <ele>13.7</ele>
        <time>2020-06-03T10:20:55Z</time>
      </trkpt>
      <trkpt lat="46.42057" lon="-1.60087">
        <ele>13.7</ele>
        <time>2020-06-03T10:20:56Z</time>
      </trkpt>
      <trkpt lat="46.42058" lon="-1.60095">
        <ele>13.7</ele>
        <time>2020-06-03T10:20:57Z</time>
      </trkpt>
      <trkpt lat="46.42059" lon="-1.60103">
        <ele>13.7</ele>
        <time>2020-06-03T10:20:58Z</time>
      </trkpt>
      <trkpt lat="46.4206" lon="-1.6011">
        <ele>13.7</ele>
        <time>2020-06-03T10:20:59Z</time>
      </trkpt>
      <trkpt lat="46.42061" lon="-1.60117">
        <ele>13.7</ele>
        <time>2020-06-03T10:21:00Z</time>
      </trkpt>
      <trkpt lat="46.42062" lon="-1.60125">
        <ele>13.6</ele>
        <time>2020-06-03T10:21:01Z</time>
      </trkpt>
      <trkpt lat="46.42064" lon="-1.60133">
        <ele>13.6</ele>
        <time>2020-06-03T10:21:02Z</time>
      </trkpt>
      <trkpt lat="46.42066" lon="-1.60141">
        <ele>13.6</ele>
        <time>2020-06-03T10:21:03Z</time>
      </trkpt>
      <trkpt lat="46.42067" lon="-1.60149">
        <ele>13.6</ele>
        <time>2020-06-03T10:21:04Z</time>
      </trkpt>
      <trkpt lat="46.42069" lon="-1.60157">
        <ele>13.6</ele>
        <time>2020-06-03T10:21:05Z</time>
      </trkpt>
      <trkpt lat="46.4207" lon="-1.60164">
        <ele>13.6</ele>
        <time>2020-06-03T10:21:06Z</time>
      </trkpt>
      <trkpt lat="46.42071" lon="-1.60171">
        <ele>13.6</ele>
        <time>2020-06-03T10:21:07Z</time>
      </trkpt>
      <trkpt lat="46.42073" lon="-1.60178">
        <ele>13.5</ele>
        <time>2020-06-03T10:21:08Z</time>
      </trkpt>
      <trkpt lat="46.42075" lon="-1.60184">
        <ele>13.5</ele>
        <time>2020-06-03T10:21:09Z</time>
      </trkpt>
      <trkpt lat="46.42077" lon="-1.60192">
        <ele>13.4</ele>
        <time>2020-06-03T10:21:10Z</time>
      </trkpt>
      <trkpt lat="46.42079" lon="-1.602">
        <ele>13.4</ele>
        <time>2020-06-03T10:21:11Z</time>
      </trkpt>
      <trkpt lat="46.4208" lon="-1.60206">
        <ele>13.3</ele>
        <time>2020-06-03T10:21:12Z</time>
      </trkpt>
      <trkpt lat="46.42082" lon="-1.60213">
        <ele>13.3</ele>
        <time>2020-06-03T10:21:13Z</time>
      </trkpt>
      <trkpt lat="46.42084" lon="-1.6022">
        <ele>13.3</ele>
        <time>2020-06-03T10:21:14Z</time>
      </trkpt>
      <trkpt lat="46.42085" lon="-1.60227">
        <ele>13.2</ele>
        <time>2020-06-03T10:21:15Z</time>
      </trkpt>
      <trkpt lat="46.42087" lon="-1.60233">
        <ele>13.2</ele>
        <time>2020-06-03T10:21:16Z</time>
      </trkpt>
      <trkpt lat="46.42088" lon="-1.6024">
        <ele>13.1</ele>
        <time>2020-06-03T10:21:17Z</time>
      </trkpt>
      <trkpt lat="46.42089" lon="-1.60247">
        <ele>13</ele>
        <time>2020-06-03T10:21:18Z</time>
      </trkpt>
      <trkpt lat="46.4209" lon="-1.60253">
        <ele>12.9</ele>
        <time>2020-06-03T10:21:19Z</time>
      </trkpt>
      <trkpt lat="46.42091" lon="-1.60258">
        <ele>12.9</ele>
        <time>2020-06-03T10:21:20Z</time>
      </trkpt>
      <trkpt lat="46.42091" lon="-1.6026">
        <ele>12.9</ele>
        <time>2020-06-03T10:21:21Z</time>
      </trkpt>
      <trkpt lat="46.42092" lon="-1.6026">
        <ele>12.9</ele>
        <time>2020-06-03T10:21:22Z</time>
      </trkpt>
      <trkpt lat="46.42092" lon="-1.60258">
        <ele>12.9</ele>
        <time>2020-06-03T10:21:23Z</time>
      </trkpt>
      <trkpt lat="46.42092" lon="-1.60257">
        <ele>12.9</ele>
        <time>2020-06-03T10:21:24Z</time>
      </trkpt>
      <trkpt lat="46.42092" lon="-1.60257">
        <ele>12.9</ele>
        <time>2020-06-03T10:21:25Z</time>
      </trkpt>
      <trkpt lat="46.42094" lon="-1.60258">
        <ele>12.9</ele>
        <time>2020-06-03T10:21:26Z</time>
      </trkpt>
      <trkpt lat="46.42097" lon="-1.6026">
        <ele>12.6</ele>
        <time>2020-06-03T10:21:27Z</time>
      </trkpt>
      <trkpt lat="46.42101" lon="-1.60263">
        <ele>12.5</ele>
        <time>2020-06-03T10:21:28Z</time>
      </trkpt>
      <trkpt lat="46.42105" lon="-1.60265">
        <ele>12.2</ele>
        <time>2020-06-03T10:21:29Z</time>
      </trkpt>
      <trkpt lat="46.42109" lon="-1.60267">
        <ele>12</ele>
        <time>2020-06-03T10:21:30Z</time>
      </trkpt>
      <trkpt lat="46.42112" lon="-1.6027">
        <ele>11.7</ele>
        <time>2020-06-03T10:21:31Z</time>
      </trkpt>
      <trkpt lat="46.42116" lon="-1.60273">
        <ele>11.4</ele>
        <time>2020-06-03T10:21:32Z</time>
      </trkpt>
      <trkpt lat="46.4212" lon="-1.60277">
        <ele>11</ele>
        <time>2020-06-03T10:21:33Z</time>
      </trkpt>
      <trkpt lat="46.42125" lon="-1.60281">
        <ele>10.6</ele>
        <time>2020-06-03T10:21:34Z</time>
      </trkpt>
      <trkpt lat="46.42129" lon="-1.60286">
        <ele>10.2</ele>
        <time>2020-06-03T10:21:35Z</time>
      </trkpt>
      <trkpt lat="46.42134" lon="-1.60291">
        <ele>9.6</ele>
        <time>2020-06-03T10:21:36Z</time>
      </trkpt>
      <trkpt lat="46.42139" lon="-1.60296">
        <ele>9</ele>
        <time>2020-06-03T10:21:37Z</time>
      </trkpt>
      <trkpt lat="46.42144" lon="-1.60301">
        <ele>8.4</ele>
        <time>2020-06-03T10:21:38Z</time>
      </trkpt>
      <trkpt lat="46.42151" lon="-1.60304">
        <ele>7.8</ele>
        <time>2020-06-03T10:21:39Z</time>
      </trkpt>
      <trkpt lat="46.42158" lon="-1.60306">
        <ele>7.3</ele>
        <time>2020-06-03T10:21:40Z</time>
      </trkpt>
      <trkpt lat="46.42165" lon="-1.60304">
        <ele>6.8</ele>
        <time>2020-06-03T10:21:41Z</time>
      </trkpt>
      <trkpt lat="46.42171" lon="-1.60297">
        <ele>6.9</ele>
        <time>2020-06-03T10:21:42Z</time>
      </trkpt>
      <trkpt lat="46.42176" lon="-1.60288">
        <ele>6.9</ele>
        <time>2020-06-03T10:21:43Z</time>
      </trkpt>
      <trkpt lat="46.42181" lon="-1.60277">
        <ele>6.9</ele>
        <time>2020-06-03T10:21:44Z</time>
      </trkpt>
      <trkpt lat="46.42184" lon="-1.60267">
        <ele>6.9</ele>
        <time>2020-06-03T10:21:45Z</time>
      </trkpt>
      <trkpt lat="46.42186" lon="-1.60257">
        <ele>6.8</ele>
        <time>2020-06-03T10:21:46Z</time>
      </trkpt>
      <trkpt lat="46.42187" lon="-1.60247">
        <ele>6.8</ele>
        <time>2020-06-03T10:21:47Z</time>
      </trkpt>
      <trkpt lat="46.42186" lon="-1.60238">
        <ele>6.8</ele>
        <time>2020-06-03T10:21:48Z</time>
      </trkpt>
      <trkpt lat="46.42187" lon="-1.60227">
        <ele>6.8</ele>
        <time>2020-06-03T10:21:49Z</time>
      </trkpt>
      <trkpt lat="46.42189" lon="-1.60217">
        <ele>6.9</ele>
        <time>2020-06-03T10:21:50Z</time>
      </trkpt>
      <trkpt lat="46.42192" lon="-1.60208">
        <ele>6.9</ele>
        <time>2020-06-03T10:21:51Z</time>
      </trkpt>
      <trkpt lat="46.42196" lon="-1.602">
        <ele>7</ele>
        <time>2020-06-03T10:21:52Z</time>
      </trkpt>
      <trkpt lat="46.422" lon="-1.60193">
        <ele>7.1</ele>
        <time>2020-06-03T10:21:53Z</time>
      </trkpt>
      <trkpt lat="46.42204" lon="-1.60185">
        <ele>7.1</ele>
        <time>2020-06-03T10:21:54Z</time>
      </trkpt>
      <trkpt lat="46.42209" lon="-1.60178">
        <ele>7.1</ele>
        <time>2020-06-03T10:21:55Z</time>
      </trkpt>
      <trkpt lat="46.42213" lon="-1.60171">
        <ele>7.1</ele>
        <time>2020-06-03T10:21:56Z</time>
      </trkpt>
      <trkpt lat="46.42216" lon="-1.60164">
        <ele>7</ele>
        <time>2020-06-03T10:21:57Z</time>
      </trkpt>
      <trkpt lat="46.42219" lon="-1.60157">
        <ele>7</ele>
        <time>2020-06-03T10:21:58Z</time>
      </trkpt>
      <trkpt lat="46.42222" lon="-1.6015">
        <ele>7</ele>
        <time>2020-06-03T10:21:59Z</time>
      </trkpt>
      <trkpt lat="46.42225" lon="-1.60143">
        <ele>6.9</ele>
        <time>2020-06-03T10:22:00Z</time>
      </trkpt>
      <trkpt lat="46.42228" lon="-1.60135">
        <ele>6.8</ele>
        <time>2020-06-03T10:22:01Z</time>
      </trkpt>
      <trkpt lat="46.42231" lon="-1.60128">
        <ele>6.8</ele>
        <time>2020-06-03T10:22:02Z</time>
      </trkpt>
      <trkpt lat="46.42233" lon="-1.6012">
        <ele>6.7</ele>
        <time>2020-06-03T10:22:03Z</time>
      </trkpt>
      <trkpt lat="46.42236" lon="-1.60112">
        <ele>6.6</ele>
        <time>2020-06-03T10:22:04Z</time>
      </trkpt>
      <trkpt lat="46.42239" lon="-1.60104">
        <ele>6.7</ele>
        <time>2020-06-03T10:22:05Z</time>
      </trkpt>
      <trkpt lat="46.42242" lon="-1.60096">
        <ele>6.7</ele>
        <time>2020-06-03T10:22:06Z</time>
      </trkpt>
      <trkpt lat="46.42243" lon="-1.60088">
        <ele>6.7</ele>
        <time>2020-06-03T10:22:07Z</time>
      </trkpt>
      <trkpt lat="46.42246" lon="-1.60081">
        <ele>6.7</ele>
        <time>2020-06-03T10:22:08Z</time>
      </trkpt>
      <trkpt lat="46.42248" lon="-1.60073">
        <ele>6.7</ele>
        <time>2020-06-03T10:22:09Z</time>
      </trkpt>
      <trkpt lat="46.42249" lon="-1.60066">
        <ele>6.8</ele>
        <time>2020-06-03T10:22:10Z</time>
      </trkpt>
      <trkpt lat="46.42251" lon="-1.60059">
        <ele>6.8</ele>
        <time>2020-06-03T10:22:11Z</time>
      </trkpt>
      <trkpt lat="46.42252" lon="-1.60051">
        <ele>6.8</ele>
        <time>2020-06-03T10:22:12Z</time>
      </trkpt>
      <trkpt lat="46.42253" lon="-1.60044">
        <ele>6.9</ele>
        <time>2020-06-03T10:22:13Z</time>
      </trkpt>
      <trkpt lat="46.42254" lon="-1.60037">
        <ele>6.9</ele>
        <time>2020-06-03T10:22:14Z</time>
      </trkpt>
      <trkpt lat="46.42254" lon="-1.6003">
        <ele>7</ele>
        <time>2020-06-03T10:22:15Z</time>
      </trkpt>
      <trkpt lat="46.42256" lon="-1.60023">
        <ele>7.1</ele>
        <time>2020-06-03T10:22:16Z</time>
      </trkpt>
      <trkpt lat="46.42257" lon="-1.60016">
        <ele>7.2</ele>
        <time>2020-06-03T10:22:17Z</time>
      </trkpt>
      <trkpt lat="46.42258" lon="-1.60008">
        <ele>7.3</ele>
        <time>2020-06-03T10:22:18Z</time>
      </trkpt>
      <trkpt lat="46.4226" lon="-1.6">
        <ele>7.4</ele>
        <time>2020-06-03T10:22:19Z</time>
      </trkpt>
      <trkpt lat="46.42262" lon="-1.59993">
        <ele>7.5</ele>
        <time>2020-06-03T10:22:20Z</time>
      </trkpt>
      <trkpt lat="46.42263" lon="-1.59986">
        <ele>7.6</ele>
        <time>2020-06-03T10:22:21Z</time>
      </trkpt>
      <trkpt lat="46.42265" lon="-1.59978">
        <ele>7.6</ele>
        <time>2020-06-03T10:22:22Z</time>
      </trkpt>
      <trkpt lat="46.42266" lon="-1.59971">
        <ele>7.7</ele>
        <time>2020-06-03T10:22:23Z</time>
      </trkpt>
      <trkpt lat="46.42267" lon="-1.59964">
        <ele>7.7</ele>
        <time>2020-06-03T10:22:24Z</time>
      </trkpt>
      <trkpt lat="46.42268" lon="-1.59957">
        <ele>7.7</ele>
        <time>2020-06-03T10:22:25Z</time>
      </trkpt>
      <trkpt lat="46.4227" lon="-1.59951">
        <ele>7.7</ele>
        <time>2020-06-03T10:22:26Z</time>
      </trkpt>
      <trkpt lat="46.42272" lon="-1.59944">
        <ele>7.7</ele>
        <time>2020-06-03T10:22:27Z</time>
      </trkpt>
      <trkpt lat="46.42273" lon="-1.59937">
        <ele>7.7</ele>
        <time>2020-06-03T10:22:28Z</time>
      </trkpt>
      <trkpt lat="46.42274" lon="-1.59929">
        <ele>7.7</ele>
        <time>2020-06-03T10:22:29Z</time>
      </trkpt>
      <trkpt lat="46.42275" lon="-1.59921">
        <ele>7.7</ele>
        <time>2020-06-03T10:22:30Z</time>
      </trkpt>
      <trkpt lat="46.42276" lon="-1.59914">
        <ele>7.7</ele>
        <time>2020-06-03T10:22:31Z</time>
      </trkpt>
      <trkpt lat="46.42277" lon="-1.59906">
        <ele>7.8</ele>
        <time>2020-06-03T10:22:32Z</time>
      </trkpt>
      <trkpt lat="46.42277" lon="-1.59898">
        <ele>7.8</ele>
        <time>2020-06-03T10:22:33Z</time>
      </trkpt>
      <trkpt lat="46.42277" lon="-1.5989">
        <ele>7.8</ele>
        <time>2020-06-03T10:22:34Z</time>
      </trkpt>
      <trkpt lat="46.42277" lon="-1.59882">
        <ele>7.8</ele>
        <time>2020-06-03T10:22:35Z</time>
      </trkpt>
      <trkpt lat="46.42277" lon="-1.59874">
        <ele>7.9</ele>
        <time>2020-06-03T10:22:36Z</time>
      </trkpt>
      <trkpt lat="46.42277" lon="-1.59866">
        <ele>7.9</ele>
        <time>2020-06-03T10:22:37Z</time>
      </trkpt>
      <trkpt lat="46.42278" lon="-1.59859">
        <ele>7.9</ele>
        <time>2020-06-03T10:22:38Z</time>
      </trkpt>
      <trkpt lat="46.42278" lon="-1.59851">
        <ele>7.9</ele>
        <time>2020-06-03T10:22:39Z</time>
      </trkpt>
      <trkpt lat="46.42277" lon="-1.59843">
        <ele>7.9</ele>
        <time>2020-06-03T10:22:40Z</time>
      </trkpt>
      <trkpt lat="46.42279" lon="-1.59836">
        <ele>8</ele>
        <time>2020-06-03T10:22:41Z</time>
      </trkpt>
      <trkpt lat="46.4228" lon="-1.59829">
        <ele>8</ele>
        <time>2020-06-03T10:22:42Z</time>
      </trkpt>
      <trkpt lat="46.42281" lon="-1.59822">
        <ele>8.1</ele>
        <time>2020-06-03T10:22:43Z</time>
      </trkpt>
      <trkpt lat="46.42283" lon="-1.59815">
        <ele>8.1</ele>
        <time>2020-06-03T10:22:44Z</time>
      </trkpt>
      <trkpt lat="46.42285" lon="-1.59809">
        <ele>8.2</ele>
        <time>2020-06-03T10:22:45Z</time>
      </trkpt>
      <trkpt lat="46.42286" lon="-1.59801">
        <ele>8.2</ele>
        <time>2020-06-03T10:22:46Z</time>
      </trkpt>
      <trkpt lat="46.42288" lon="-1.59794">
        <ele>8.3</ele>
        <time>2020-06-03T10:22:47Z</time>
      </trkpt>
      <trkpt lat="46.42291" lon="-1.59787">
        <ele>8.4</ele>
        <time>2020-06-03T10:22:48Z</time>
      </trkpt>
      <trkpt lat="46.42293" lon="-1.5978">
        <ele>8.5</ele>
        <time>2020-06-03T10:22:49Z</time>
      </trkpt>
      <trkpt lat="46.42296" lon="-1.59773">
        <ele>8.6</ele>
        <time>2020-06-03T10:22:50Z</time>
      </trkpt>
      <trkpt lat="46.42299" lon="-1.59767">
        <ele>8.7</ele>
        <time>2020-06-03T10:22:51Z</time>
      </trkpt>
      <trkpt lat="46.42301" lon="-1.5976">
        <ele>8.8</ele>
        <time>2020-06-03T10:22:52Z</time>
      </trkpt>
      <trkpt lat="46.42304" lon="-1.59753">
        <ele>8.9</ele>
        <time>2020-06-03T10:22:53Z</time>
      </trkpt>
      <trkpt lat="46.42306" lon="-1.59746">
        <ele>9</ele>
        <time>2020-06-03T10:22:54Z</time>
      </trkpt>
      <trkpt lat="46.42309" lon="-1.5974">
        <ele>9.1</ele>
        <time>2020-06-03T10:22:55Z</time>
      </trkpt>
      <trkpt lat="46.42312" lon="-1.59733">
        <ele>9.2</ele>
        <time>2020-06-03T10:22:56Z</time>
      </trkpt>
      <trkpt lat="46.42315" lon="-1.59727">
        <ele>9.4</ele>
        <time>2020-06-03T10:22:57Z</time>
      </trkpt>
      <trkpt lat="46.42318" lon="-1.5972">
        <ele>9.5</ele>
        <time>2020-06-03T10:22:58Z</time>
      </trkpt>
      <trkpt lat="46.42322" lon="-1.59715">
        <ele>9.7</ele>
        <time>2020-06-03T10:22:59Z</time>
      </trkpt>
      <trkpt lat="46.42325" lon="-1.5971">
        <ele>9.8</ele>
        <time>2020-06-03T10:23:00Z</time>
      </trkpt>
      <trkpt lat="46.42328" lon="-1.59705">
        <ele>9.9</ele>
        <time>2020-06-03T10:23:01Z</time>
      </trkpt>
      <trkpt lat="46.42331" lon="-1.597">
        <ele>10</ele>
        <time>2020-06-03T10:23:02Z</time>
      </trkpt>
      <trkpt lat="46.42333" lon="-1.59694">
        <ele>10</ele>
        <time>2020-06-03T10:23:03Z</time>
      </trkpt>
      <trkpt lat="46.42334" lon="-1.59688">
        <ele>10</ele>
        <time>2020-06-03T10:23:04Z</time>
      </trkpt>
      <trkpt lat="46.42333" lon="-1.59682">
        <ele>10</ele>
        <time>2020-06-03T10:23:05Z</time>
      </trkpt>
      <trkpt lat="46.42332" lon="-1.59677">
        <ele>10.2</ele>
        <time>2020-06-03T10:23:06Z</time>
      </trkpt>
      <trkpt lat="46.4233" lon="-1.59671">
        <ele>10.3</ele>
        <time>2020-06-03T10:23:07Z</time>
      </trkpt>
      <trkpt lat="46.42329" lon="-1.59666">
        <ele>10.5</ele>
        <time>2020-06-03T10:23:08Z</time>
      </trkpt>
      <trkpt lat="46.42327" lon="-1.59661">
        <ele>10.6</ele>
        <time>2020-06-03T10:23:09Z</time>
      </trkpt>
      <trkpt lat="46.42325" lon="-1.59655">
        <ele>10.8</ele>
        <time>2020-06-03T10:23:10Z</time>
      </trkpt>
      <trkpt lat="46.42322" lon="-1.59651">
        <ele>11</ele>
        <time>2020-06-03T10:23:11Z</time>
      </trkpt>
      <trkpt lat="46.42319" lon="-1.59647">
        <ele>11.2</ele>
        <time>2020-06-03T10:23:12Z</time>
      </trkpt>
      <trkpt lat="46.42316" lon="-1.59642">
        <ele>11.4</ele>
        <time>2020-06-03T10:23:13Z</time>
      </trkpt>
      <trkpt lat="46.42314" lon="-1.59637">
        <ele>11.5</ele>
        <time>2020-06-03T10:23:14Z</time>
      </trkpt>
      <trkpt lat="46.42314" lon="-1.59632">
        <ele>11.7</ele>
        <time>2020-06-03T10:23:15Z</time>
      </trkpt>
      <trkpt lat="46.42315" lon="-1.59627">
        <ele>11.8</ele>
        <time>2020-06-03T10:23:16Z</time>
      </trkpt>
      <trkpt lat="46.42317" lon="-1.59622">
        <ele>11.9</ele>
        <time>2020-06-03T10:23:17Z</time>
      </trkpt>
      <trkpt lat="46.42319" lon="-1.59618">
        <ele>12</ele>
        <time>2020-06-03T10:23:18Z</time>
      </trkpt>
      <trkpt lat="46.42321" lon="-1.59613">
        <ele>12.2</ele>
        <time>2020-06-03T10:23:19Z</time>
      </trkpt>
      <trkpt lat="46.42323" lon="-1.59609">
        <ele>12.2</ele>
        <time>2020-06-03T10:23:20Z</time>
      </trkpt>
      <trkpt lat="46.42325" lon="-1.59604">
        <ele>12.3</ele>
        <time>2020-06-03T10:23:21Z</time>
      </trkpt>
      <trkpt lat="46.42327" lon="-1.59598">
        <ele>12.4</ele>
        <time>2020-06-03T10:23:22Z</time>
      </trkpt>
      <trkpt lat="46.4233" lon="-1.59593">
        <ele>12.5</ele>
        <time>2020-06-03T10:23:23Z</time>
      </trkpt>
      <trkpt lat="46.42332" lon="-1.59587">
        <ele>12.6</ele>
        <time>2020-06-03T10:23:24Z</time>
      </trkpt>
      <trkpt lat="46.42335" lon="-1.59581">
        <ele>12.7</ele>
        <time>2020-06-03T10:23:25Z</time>
      </trkpt>
      <trkpt lat="46.42338" lon="-1.59576">
        <ele>12.7</ele>
        <time>2020-06-03T10:23:26Z</time>
      </trkpt>
      <trkpt lat="46.4234" lon="-1.59571">
        <ele>12.8</ele>
        <time>2020-06-03T10:23:27Z</time>
      </trkpt>
      <trkpt lat="46.42343" lon="-1.59567">
        <ele>12.8</ele>
        <time>2020-06-03T10:23:28Z</time>
      </trkpt>
      <trkpt lat="46.42346" lon="-1.59563">
        <ele>12.8</ele>
        <time>2020-06-03T10:23:29Z</time>
      </trkpt>
      <trkpt lat="46.42349" lon="-1.59559">
        <ele>12.8</ele>
        <time>2020-06-03T10:23:30Z</time>
      </trkpt>
      <trkpt lat="46.42353" lon="-1.59556">
        <ele>12.8</ele>
        <time>2020-06-03T10:23:31Z</time>
      </trkpt>
      <trkpt lat="46.42356" lon="-1.59552">
        <ele>12.8</ele>
        <time>2020-06-03T10:23:32Z</time>
      </trkpt>
      <trkpt lat="46.4236" lon="-1.59549">
        <ele>12.8</ele>
        <time>2020-06-03T10:23:33Z</time>
      </trkpt>
      <trkpt lat="46.42363" lon="-1.59544">
        <ele>12.8</ele>
        <time>2020-06-03T10:23:34Z</time>
      </trkpt>
      <trkpt lat="46.42367" lon="-1.59541">
        <ele>12.8</ele>
        <time>2020-06-03T10:23:35Z</time>
      </trkpt>
      <trkpt lat="46.42371" lon="-1.59537">
        <ele>12.9</ele>
        <time>2020-06-03T10:23:36Z</time>
      </trkpt>
      <trkpt lat="46.42374" lon="-1.59533">
        <ele>12.9</ele>
        <time>2020-06-03T10:23:37Z</time>
      </trkpt>
      <trkpt lat="46.42378" lon="-1.59529">
        <ele>12.9</ele>
        <time>2020-06-03T10:23:38Z</time>
      </trkpt>
      <trkpt lat="46.42381" lon="-1.59524">
        <ele>12.9</ele>
        <time>2020-06-03T10:23:39Z</time>
      </trkpt>
      <trkpt lat="46.42385" lon="-1.59521">
        <ele>12.9</ele>
        <time>2020-06-03T10:23:40Z</time>
      </trkpt>
      <trkpt lat="46.42389" lon="-1.59519">
        <ele>13</ele>
        <time>2020-06-03T10:23:41Z</time>
      </trkpt>
      <trkpt lat="46.42393" lon="-1.59516">
        <ele>13</ele>
        <time>2020-06-03T10:23:42Z</time>
      </trkpt>
      <trkpt lat="46.42397" lon="-1.59513">
        <ele>13</ele>
        <time>2020-06-03T10:23:43Z</time>
      </trkpt>
      <trkpt lat="46.424" lon="-1.59509">
        <ele>13.1</ele>
        <time>2020-06-03T10:23:44Z</time>
      </trkpt>
      <trkpt lat="46.42405" lon="-1.59505">
        <ele>13.1</ele>
        <time>2020-06-03T10:23:45Z</time>
      </trkpt>
      <trkpt lat="46.42408" lon="-1.59501">
        <ele>13.1</ele>
        <time>2020-06-03T10:23:46Z</time>
      </trkpt>
      <trkpt lat="46.42412" lon="-1.59498">
        <ele>13.2</ele>
        <time>2020-06-03T10:23:47Z</time>
      </trkpt>
      <trkpt lat="46.42415" lon="-1.59492">
        <ele>13.2</ele>
        <time>2020-06-03T10:23:48Z</time>
      </trkpt>
      <trkpt lat="46.42419" lon="-1.59488">
        <ele>13.3</ele>
        <time>2020-06-03T10:23:49Z</time>
      </trkpt>
      <trkpt lat="46.42422" lon="-1.59484">
        <ele>13.3</ele>
        <time>2020-06-03T10:23:50Z</time>
      </trkpt>
      <trkpt lat="46.42426" lon="-1.59479">
        <ele>13.3</ele>
        <time>2020-06-03T10:23:51Z</time>
      </trkpt>
      <trkpt lat="46.4243" lon="-1.59475">
        <ele>13.3</ele>
        <time>2020-06-03T10:23:52Z</time>
      </trkpt>
      <trkpt lat="46.42433" lon="-1.59471">
        <ele>13.3</ele>
        <time>2020-06-03T10:23:53Z</time>
      </trkpt>
      <trkpt lat="46.42437" lon="-1.59467">
        <ele>13.4</ele>
        <time>2020-06-03T10:23:54Z</time>
      </trkpt>
      <trkpt lat="46.42441" lon="-1.59463">
        <ele>13.4</ele>
        <time>2020-06-03T10:23:55Z</time>
      </trkpt>
      <trkpt lat="46.42444" lon="-1.59458">
        <ele>13.4</ele>
        <time>2020-06-03T10:23:56Z</time>
      </trkpt>
      <trkpt lat="46.42448" lon="-1.59454">
        <ele>13.5</ele>
        <time>2020-06-03T10:23:57Z</time>
      </trkpt>
      <trkpt lat="46.42453" lon="-1.59449">
        <ele>13.5</ele>
        <time>2020-06-03T10:23:58Z</time>
      </trkpt>
      <trkpt lat="46.42457" lon="-1.59445">
        <ele>13.6</ele>
        <time>2020-06-03T10:23:59Z</time>
      </trkpt>
      <trkpt lat="46.42461" lon="-1.5944">
        <ele>13.6</ele>
        <time>2020-06-03T10:24:00Z</time>
      </trkpt>
      <trkpt lat="46.42466" lon="-1.59436">
        <ele>13.7</ele>
        <time>2020-06-03T10:24:01Z</time>
      </trkpt>
      <trkpt lat="46.42469" lon="-1.59431">
        <ele>13.7</ele>
        <time>2020-06-03T10:24:02Z</time>
      </trkpt>
      <trkpt lat="46.42473" lon="-1.59425">
        <ele>13.8</ele>
        <time>2020-06-03T10:24:03Z</time>
      </trkpt>
      <trkpt lat="46.42477" lon="-1.5942">
        <ele>13.8</ele>
        <time>2020-06-03T10:24:04Z</time>
      </trkpt>
      <trkpt lat="46.42481" lon="-1.59414">
        <ele>13.9</ele>
        <time>2020-06-03T10:24:05Z</time>
      </trkpt>
      <trkpt lat="46.42484" lon="-1.59408">
        <ele>13.9</ele>
        <time>2020-06-03T10:24:06Z</time>
      </trkpt>
      <trkpt lat="46.42489" lon="-1.59404">
        <ele>13.9</ele>
        <time>2020-06-03T10:24:07Z</time>
      </trkpt>
      <trkpt lat="46.42493" lon="-1.594">
        <ele>13.9</ele>
        <time>2020-06-03T10:24:08Z</time>
      </trkpt>
      <trkpt lat="46.42497" lon="-1.59395">
        <ele>13.9</ele>
        <time>2020-06-03T10:24:09Z</time>
      </trkpt>
      <trkpt lat="46.42502" lon="-1.59391">
        <ele>13.9</ele>
        <time>2020-06-03T10:24:10Z</time>
      </trkpt>
      <trkpt lat="46.42507" lon="-1.59388">
        <ele>13.9</ele>
        <time>2020-06-03T10:24:11Z</time>
      </trkpt>
      <trkpt lat="46.42511" lon="-1.59383">
        <ele>14</ele>
        <time>2020-06-03T10:24:12Z</time>
      </trkpt>
      <trkpt lat="46.42516" lon="-1.59378">
        <ele>14</ele>
        <time>2020-06-03T10:24:13Z</time>
      </trkpt>
      <trkpt lat="46.4252" lon="-1.59373">
        <ele>14</ele>
        <time>2020-06-03T10:24:14Z</time>
      </trkpt>
      <trkpt lat="46.42524" lon="-1.59367">
        <ele>14</ele>
        <time>2020-06-03T10:24:15Z</time>
      </trkpt>
      <trkpt lat="46.42528" lon="-1.59362">
        <ele>14</ele>
        <time>2020-06-03T10:24:16Z</time>
      </trkpt>
      <trkpt lat="46.42532" lon="-1.59356">
        <ele>14</ele>
        <time>2020-06-03T10:24:17Z</time>
      </trkpt>
      <trkpt lat="46.42536" lon="-1.5935">
        <ele>14.1</ele>
        <time>2020-06-03T10:24:18Z</time>
      </trkpt>
      <trkpt lat="46.42539" lon="-1.59344">
        <ele>14.1</ele>
        <time>2020-06-03T10:24:19Z</time>
      </trkpt>
      <trkpt lat="46.42543" lon="-1.59339">
        <ele>14.1</ele>
        <time>2020-06-03T10:24:20Z</time>
      </trkpt>
      <trkpt lat="46.42546" lon="-1.59333">
        <ele>14.1</ele>
        <time>2020-06-03T10:24:21Z</time>
      </trkpt>
      <trkpt lat="46.42549" lon="-1.59326">
        <ele>14.1</ele>
        <time>2020-06-03T10:24:22Z</time>
      </trkpt>
      <trkpt lat="46.42552" lon="-1.5932">
        <ele>14.1</ele>
        <time>2020-06-03T10:24:23Z</time>
      </trkpt>
      <trkpt lat="46.42556" lon="-1.59314">
        <ele>14.2</ele>
        <time>2020-06-03T10:24:24Z</time>
      </trkpt>
      <trkpt lat="46.42559" lon="-1.59307">
        <ele>14.2</ele>
        <time>2020-06-03T10:24:25Z</time>
      </trkpt>
      <trkpt lat="46.42561" lon="-1.593">
        <ele>14.2</ele>
        <time>2020-06-03T10:24:26Z</time>
      </trkpt>
      <trkpt lat="46.42564" lon="-1.59293">
        <ele>14.2</ele>
        <time>2020-06-03T10:24:27Z</time>
      </trkpt>
      <trkpt lat="46.42568" lon="-1.59287">
        <ele>14.2</ele>
        <time>2020-06-03T10:24:28Z</time>
      </trkpt>
      <trkpt lat="46.42571" lon="-1.59281">
        <ele>14.2</ele>
        <time>2020-06-03T10:24:29Z</time>
      </trkpt>
      <trkpt lat="46.42574" lon="-1.59275">
        <ele>14.2</ele>
        <time>2020-06-03T10:24:30Z</time>
      </trkpt>
      <trkpt lat="46.42577" lon="-1.59268">
        <ele>14.2</ele>
        <time>2020-06-03T10:24:31Z</time>
      </trkpt>
      <trkpt lat="46.4258" lon="-1.59261">
        <ele>14.2</ele>
        <time>2020-06-03T10:24:32Z</time>
      </trkpt>
      <trkpt lat="46.42583" lon="-1.59255">
        <ele>14.2</ele>
        <time>2020-06-03T10:24:33Z</time>
      </trkpt>
      <trkpt lat="46.42586" lon="-1.59249">
        <ele>14.2</ele>
        <time>2020-06-03T10:24:34Z</time>
      </trkpt>
      <trkpt lat="46.4259" lon="-1.59243">
        <ele>14.2</ele>
        <time>2020-06-03T10:24:35Z</time>
      </trkpt>
      <trkpt lat="46.42593" lon="-1.59237">
        <ele>14.2</ele>
        <time>2020-06-03T10:24:36Z</time>
      </trkpt>
      <trkpt lat="46.42596" lon="-1.59231">
        <ele>14.2</ele>
        <time>2020-06-03T10:24:37Z</time>
      </trkpt>
      <trkpt lat="46.42599" lon="-1.59225">
        <ele>14.2</ele>
        <time>2020-06-03T10:24:38Z</time>
      </trkpt>
      <trkpt lat="46.42603" lon="-1.59219">
        <ele>14.2</ele>
        <time>2020-06-03T10:24:39Z</time>
      </trkpt>
      <trkpt lat="46.42606" lon="-1.59213">
        <ele>14.2</ele>
        <time>2020-06-03T10:24:40Z</time>
      </trkpt>
      <trkpt lat="46.4261" lon="-1.59208">
        <ele>14.2</ele>
        <time>2020-06-03T10:24:41Z</time>
      </trkpt>
      <trkpt lat="46.42614" lon="-1.59203">
        <ele>14.2</ele>
        <time>2020-06-03T10:24:42Z</time>
      </trkpt>
      <trkpt lat="46.42618" lon="-1.59198">
        <ele>14.2</ele>
        <time>2020-06-03T10:24:43Z</time>
      </trkpt>
      <trkpt lat="46.42622" lon="-1.59193">
        <ele>14.2</ele>
        <time>2020-06-03T10:24:44Z</time>
      </trkpt>
      <trkpt lat="46.42625" lon="-1.59186">
        <ele>14.2</ele>
        <time>2020-06-03T10:24:45Z</time>
      </trkpt>
      <trkpt lat="46.42628" lon="-1.5918">
        <ele>14.2</ele>
        <time>2020-06-03T10:24:46Z</time>
      </trkpt>
      <trkpt lat="46.42631" lon="-1.59173">
        <ele>14.2</ele>
        <time>2020-06-03T10:24:47Z</time>
      </trkpt>
      <trkpt lat="46.42635" lon="-1.59166">
        <ele>14.3</ele>
        <time>2020-06-03T10:24:48Z</time>
      </trkpt>
      <trkpt lat="46.42638" lon="-1.5916">
        <ele>14.3</ele>
        <time>2020-06-03T10:24:49Z</time>
      </trkpt>
      <trkpt lat="46.42641" lon="-1.59153">
        <ele>14.3</ele>
        <time>2020-06-03T10:24:50Z</time>
      </trkpt>
      <trkpt lat="46.42643" lon="-1.59147">
        <ele>14.3</ele>
        <time>2020-06-03T10:24:51Z</time>
      </trkpt>
      <trkpt lat="46.42647" lon="-1.5914">
        <ele>14.3</ele>
        <time>2020-06-03T10:24:52Z</time>
      </trkpt>
      <trkpt lat="46.4265" lon="-1.59133">
        <ele>14.3</ele>
        <time>2020-06-03T10:24:53Z</time>
      </trkpt>
      <trkpt lat="46.42654" lon="-1.59126">
        <ele>14.3</ele>
        <time>2020-06-03T10:24:54Z</time>
      </trkpt>
      <trkpt lat="46.42657" lon="-1.59119">
        <ele>14.3</ele>
        <time>2020-06-03T10:24:55Z</time>
      </trkpt>
      <trkpt lat="46.4266" lon="-1.59113">
        <ele>14.2</ele>
        <time>2020-06-03T10:24:56Z</time>
      </trkpt>
      <trkpt lat="46.42663" lon="-1.59106">
        <ele>14.2</ele>
        <time>2020-06-03T10:24:57Z</time>
      </trkpt>
      <trkpt lat="46.42666" lon="-1.59099">
        <ele>14.2</ele>
        <time>2020-06-03T10:24:58Z</time>
      </trkpt>
      <trkpt lat="46.42668" lon="-1.59092">
        <ele>14.1</ele>
        <time>2020-06-03T10:24:59Z</time>
      </trkpt>
      <trkpt lat="46.42671" lon="-1.59084">
        <ele>14.1</ele>
        <time>2020-06-03T10:25:00Z</time>
      </trkpt>
      <trkpt lat="46.42674" lon="-1.59078">
        <ele>14.1</ele>
        <time>2020-06-03T10:25:01Z</time>
      </trkpt>
      <trkpt lat="46.42676" lon="-1.5907">
        <ele>14.1</ele>
        <time>2020-06-03T10:25:02Z</time>
      </trkpt>
      <trkpt lat="46.42678" lon="-1.59063">
        <ele>14.1</ele>
        <time>2020-06-03T10:25:03Z</time>
      </trkpt>
      <trkpt lat="46.42681" lon="-1.59056">
        <ele>14.1</ele>
        <time>2020-06-03T10:25:04Z</time>
      </trkpt>
      <trkpt lat="46.42685" lon="-1.59049">
        <ele>14.1</ele>
        <time>2020-06-03T10:25:05Z</time>
      </trkpt>
      <trkpt lat="46.42687" lon="-1.59041">
        <ele>14.1</ele>
        <time>2020-06-03T10:25:06Z</time>
      </trkpt>
      <trkpt lat="46.42689" lon="-1.59034">
        <ele>14.1</ele>
        <time>2020-06-03T10:25:07Z</time>
      </trkpt>
      <trkpt lat="46.42691" lon="-1.59027">
        <ele>14.1</ele>
        <time>2020-06-03T10:25:08Z</time>
      </trkpt>
      <trkpt lat="46.42693" lon="-1.59019">
        <ele>14.2</ele>
        <time>2020-06-03T10:25:09Z</time>
      </trkpt>
      <trkpt lat="46.42695" lon="-1.59012">
        <ele>14.2</ele>
        <time>2020-06-03T10:25:10Z</time>
      </trkpt>
      <trkpt lat="46.42698" lon="-1.59005">
        <ele>14.2</ele>
        <time>2020-06-03T10:25:11Z</time>
      </trkpt>
      <trkpt lat="46.427" lon="-1.58998">
        <ele>14.2</ele>
        <time>2020-06-03T10:25:12Z</time>
      </trkpt>
      <trkpt lat="46.42702" lon="-1.5899">
        <ele>14.2</ele>
        <time>2020-06-03T10:25:13Z</time>
      </trkpt>
      <trkpt lat="46.42705" lon="-1.58983">
        <ele>14.2</ele>
        <time>2020-06-03T10:25:14Z</time>
      </trkpt>
      <trkpt lat="46.42707" lon="-1.58976">
        <ele>14.2</ele>
        <time>2020-06-03T10:25:15Z</time>
      </trkpt>
      <trkpt lat="46.42709" lon="-1.58968">
        <ele>14.2</ele>
        <time>2020-06-03T10:25:16Z</time>
      </trkpt>
      <trkpt lat="46.42712" lon="-1.58962">
        <ele>14.2</ele>
        <time>2020-06-03T10:25:17Z</time>
      </trkpt>
      <trkpt lat="46.42715" lon="-1.58956">
        <ele>14.2</ele>
        <time>2020-06-03T10:25:18Z</time>
      </trkpt>
      <trkpt lat="46.42717" lon="-1.58948">
        <ele>14.2</ele>
        <time>2020-06-03T10:25:19Z</time>
      </trkpt>
      <trkpt lat="46.4272" lon="-1.58942">
        <ele>14.2</ele>
        <time>2020-06-03T10:25:20Z</time>
      </trkpt>
      <trkpt lat="46.42722" lon="-1.58935">
        <ele>14.2</ele>
        <time>2020-06-03T10:25:21Z</time>
      </trkpt>
      <trkpt lat="46.42725" lon="-1.58929">
        <ele>14.2</ele>
        <time>2020-06-03T10:25:22Z</time>
      </trkpt>
      <trkpt lat="46.42727" lon="-1.58922">
        <ele>14.2</ele>
        <time>2020-06-03T10:25:23Z</time>
      </trkpt>
      <trkpt lat="46.4273" lon="-1.58915">
        <ele>14.3</ele>
        <time>2020-06-03T10:25:24Z</time>
      </trkpt>
      <trkpt lat="46.42732" lon="-1.58909">
        <ele>14.3</ele>
        <time>2020-06-03T10:25:25Z</time>
      </trkpt>
      <trkpt lat="46.42734" lon="-1.58903">
        <ele>14.3</ele>
        <time>2020-06-03T10:25:26Z</time>
      </trkpt>
      <trkpt lat="46.42737" lon="-1.58898">
        <ele>14.3</ele>
        <time>2020-06-03T10:25:27Z</time>
      </trkpt>
      <trkpt lat="46.4274" lon="-1.58894">
        <ele>14.3</ele>
        <time>2020-06-03T10:25:28Z</time>
      </trkpt>
      <trkpt lat="46.42741" lon="-1.58889">
        <ele>14.3</ele>
        <time>2020-06-03T10:25:29Z</time>
      </trkpt>
      <trkpt lat="46.42743" lon="-1.58885">
        <ele>14.3</ele>
        <time>2020-06-03T10:25:30Z</time>
      </trkpt>
      <trkpt lat="46.42745" lon="-1.58881">
        <ele>14.3</ele>
        <time>2020-06-03T10:25:31Z</time>
      </trkpt>
      <trkpt lat="46.42746" lon="-1.5888">
        <ele>14.3</ele>
        <time>2020-06-03T10:25:32Z</time>
      </trkpt>
      <trkpt lat="46.4275" lon="-1.5888">
        <ele>14.3</ele>
        <time>2020-06-03T10:25:33Z</time>
      </trkpt>
      <trkpt lat="46.42751" lon="-1.5888">
        <ele>14.3</ele>
        <time>2020-06-03T10:25:34Z</time>
      </trkpt>
      <trkpt lat="46.42754" lon="-1.5888">
        <ele>14.1</ele>
        <time>2020-06-03T10:25:35Z</time>
      </trkpt>
      <trkpt lat="46.42758" lon="-1.58878">
        <ele>14</ele>
        <time>2020-06-03T10:25:36Z</time>
      </trkpt>
      <trkpt lat="46.42762" lon="-1.58877">
        <ele>14</ele>
        <time>2020-06-03T10:25:37Z</time>
      </trkpt>
      <trkpt lat="46.42765" lon="-1.58877">
        <ele>14</ele>
        <time>2020-06-03T10:25:38Z</time>
      </trkpt>
      <trkpt lat="46.42769" lon="-1.58877">
        <ele>13.9</ele>
        <time>2020-06-03T10:25:39Z</time>
      </trkpt>
      <trkpt lat="46.42772" lon="-1.58877">
        <ele>13.9</ele>
        <time>2020-06-03T10:25:40Z</time>
      </trkpt>
      <trkpt lat="46.42776" lon="-1.58875">
        <ele>13.8</ele>
        <time>2020-06-03T10:25:41Z</time>
      </trkpt>
      <trkpt lat="46.4278" lon="-1.58874">
        <ele>13.7</ele>
        <time>2020-06-03T10:25:42Z</time>
      </trkpt>
      <trkpt lat="46.42784" lon="-1.58875">
        <ele>13.6</ele>
        <time>2020-06-03T10:25:43Z</time>
      </trkpt>
      <trkpt lat="46.42787" lon="-1.58877">
        <ele>13.5</ele>
        <time>2020-06-03T10:25:44Z</time>
      </trkpt>
      <trkpt lat="46.42791" lon="-1.58876">
        <ele>13.4</ele>
        <time>2020-06-03T10:25:45Z</time>
      </trkpt>
      <trkpt lat="46.42794" lon="-1.58877">
        <ele>13.4</ele>
        <time>2020-06-03T10:25:46Z</time>
      </trkpt>
      <trkpt lat="46.42798" lon="-1.58877">
        <ele>13.3</ele>
        <time>2020-06-03T10:25:47Z</time>
      </trkpt>
      <trkpt lat="46.42801" lon="-1.58878">
        <ele>13.2</ele>
        <time>2020-06-03T10:25:48Z</time>
      </trkpt>
      <trkpt lat="46.42804" lon="-1.58879">
        <ele>13.1</ele>
        <time>2020-06-03T10:25:49Z</time>
      </trkpt>
      <trkpt lat="46.42808" lon="-1.58881">
        <ele>13.1</ele>
        <time>2020-06-03T10:25:50Z</time>
      </trkpt>
      <trkpt lat="46.42811" lon="-1.58883">
        <ele>13</ele>
        <time>2020-06-03T10:25:51Z</time>
      </trkpt>
      <trkpt lat="46.42814" lon="-1.58884">
        <ele>12.9</ele>
        <time>2020-06-03T10:25:52Z</time>
      </trkpt>
      <trkpt lat="46.42817" lon="-1.58886">
        <ele>12.9</ele>
        <time>2020-06-03T10:25:53Z</time>
      </trkpt>
      <trkpt lat="46.4282" lon="-1.58888">
        <ele>12.8</ele>
        <time>2020-06-03T10:25:54Z</time>
      </trkpt>
      <trkpt lat="46.42824" lon="-1.58889">
        <ele>12.7</ele>
        <time>2020-06-03T10:25:55Z</time>
      </trkpt>
      <trkpt lat="46.42828" lon="-1.5889">
        <ele>12.6</ele>
        <time>2020-06-03T10:25:56Z</time>
      </trkpt>
      <trkpt lat="46.42831" lon="-1.58891">
        <ele>12.6</ele>
        <time>2020-06-03T10:25:57Z</time>
      </trkpt>
      <trkpt lat="46.42835" lon="-1.58892">
        <ele>12.5</ele>
        <time>2020-06-03T10:25:58Z</time>
      </trkpt>
      <trkpt lat="46.42839" lon="-1.58892">
        <ele>12.5</ele>
        <time>2020-06-03T10:25:59Z</time>
      </trkpt>
      <trkpt lat="46.42842" lon="-1.58893">
        <ele>12.5</ele>
        <time>2020-06-03T10:26:00Z</time>
      </trkpt>
      <trkpt lat="46.42846" lon="-1.58892">
        <ele>12.4</ele>
        <time>2020-06-03T10:26:01Z</time>
      </trkpt>
      <trkpt lat="46.4285" lon="-1.58893">
        <ele>12.4</ele>
        <time>2020-06-03T10:26:02Z</time>
      </trkpt>
      <trkpt lat="46.42854" lon="-1.58893">
        <ele>12.2</ele>
        <time>2020-06-03T10:26:03Z</time>
      </trkpt>
      <trkpt lat="46.42858" lon="-1.58894">
        <ele>12</ele>
        <time>2020-06-03T10:26:04Z</time>
      </trkpt>
      <trkpt lat="46.42862" lon="-1.58896">
        <ele>11.7</ele>
        <time>2020-06-03T10:26:05Z</time>
      </trkpt>
      <trkpt lat="46.42867" lon="-1.58898">
        <ele>11.4</ele>
        <time>2020-06-03T10:26:06Z</time>
      </trkpt>
      <trkpt lat="46.42872" lon="-1.589">
        <ele>11</ele>
        <time>2020-06-03T10:26:07Z</time>
      </trkpt>
      <trkpt lat="46.42877" lon="-1.58904">
        <ele>10.5</ele>
        <time>2020-06-03T10:26:08Z</time>
      </trkpt>
      <trkpt lat="46.42882" lon="-1.58908">
        <ele>10</ele>
        <time>2020-06-03T10:26:09Z</time>
      </trkpt>
      <trkpt lat="46.42889" lon="-1.58913">
        <ele>9.4</ele>
        <time>2020-06-03T10:26:10Z</time>
      </trkpt>
      <trkpt lat="46.42895" lon="-1.58917">
        <ele>8.8</ele>
        <time>2020-06-03T10:26:11Z</time>
      </trkpt>
      <trkpt lat="46.42902" lon="-1.58921">
        <ele>8.1</ele>
        <time>2020-06-03T10:26:12Z</time>
      </trkpt>
      <trkpt lat="46.42909" lon="-1.58927">
        <ele>7.3</ele>
        <time>2020-06-03T10:26:13Z</time>
      </trkpt>
      <trkpt lat="46.42915" lon="-1.58935">
        <ele>6.5</ele>
        <time>2020-06-03T10:26:14Z</time>
      </trkpt>
      <trkpt lat="46.42921" lon="-1.58946">
        <ele>5.7</ele>
        <time>2020-06-03T10:26:15Z</time>
      </trkpt>
      <trkpt lat="46.42927" lon="-1.58958">
        <ele>5.1</ele>
        <time>2020-06-03T10:26:16Z</time>
      </trkpt>
      <trkpt lat="46.42932" lon="-1.5897">
        <ele>4.7</ele>
        <time>2020-06-03T10:26:17Z</time>
      </trkpt>
      <trkpt lat="46.42939" lon="-1.5898">
        <ele>4.3</ele>
        <time>2020-06-03T10:26:18Z</time>
      </trkpt>
      <trkpt lat="46.42945" lon="-1.58991">
        <ele>4.1</ele>
        <time>2020-06-03T10:26:19Z</time>
      </trkpt>
      <trkpt lat="46.42951" lon="-1.59002">
        <ele>4</ele>
        <time>2020-06-03T10:26:20Z</time>
      </trkpt>
      <trkpt lat="46.42954" lon="-1.59014">
        <ele>3.9</ele>
        <time>2020-06-03T10:26:21Z</time>
      </trkpt>
      <trkpt lat="46.42956" lon="-1.59026">
        <ele>3.9</ele>
        <time>2020-06-03T10:26:22Z</time>
      </trkpt>
      <trkpt lat="46.42959" lon="-1.59038">
        <ele>3.9</ele>
        <time>2020-06-03T10:26:23Z</time>
      </trkpt>
      <trkpt lat="46.42961" lon="-1.59048">
        <ele>3.9</ele>
        <time>2020-06-03T10:26:24Z</time>
      </trkpt>
      <trkpt lat="46.42964" lon="-1.59057">
        <ele>3.9</ele>
        <time>2020-06-03T10:26:25Z</time>
      </trkpt>
      <trkpt lat="46.42968" lon="-1.59066">
        <ele>3.9</ele>
        <time>2020-06-03T10:26:26Z</time>
      </trkpt>
      <trkpt lat="46.42972" lon="-1.59073">
        <ele>3.9</ele>
        <time>2020-06-03T10:26:27Z</time>
      </trkpt>
      <trkpt lat="46.42977" lon="-1.59079">
        <ele>3.9</ele>
        <time>2020-06-03T10:26:28Z</time>
      </trkpt>
      <trkpt lat="46.42981" lon="-1.59084">
        <ele>3.9</ele>
        <time>2020-06-03T10:26:29Z</time>
      </trkpt>
      <trkpt lat="46.42985" lon="-1.59089">
        <ele>3.9</ele>
        <time>2020-06-03T10:26:30Z</time>
      </trkpt>
      <trkpt lat="46.42989" lon="-1.59095">
        <ele>3.8</ele>
        <time>2020-06-03T10:26:31Z</time>
      </trkpt>
      <trkpt lat="46.42992" lon="-1.59101">
        <ele>3.8</ele>
        <time>2020-06-03T10:26:32Z</time>
      </trkpt>
      <trkpt lat="46.42996" lon="-1.59106">
        <ele>3.8</ele>
        <time>2020-06-03T10:26:33Z</time>
      </trkpt>
      <trkpt lat="46.42999" lon="-1.59111">
        <ele>3.8</ele>
        <time>2020-06-03T10:26:34Z</time>
      </trkpt>
      <trkpt lat="46.43002" lon="-1.59117">
        <ele>3.8</ele>
        <time>2020-06-03T10:26:35Z</time>
      </trkpt>
      <trkpt lat="46.43004" lon="-1.59123">
        <ele>3.8</ele>
        <time>2020-06-03T10:26:36Z</time>
      </trkpt>
      <trkpt lat="46.43006" lon="-1.59128">
        <ele>3.8</ele>
        <time>2020-06-03T10:26:37Z</time>
      </trkpt>
      <trkpt lat="46.43008" lon="-1.59134">
        <ele>3.8</ele>
        <time>2020-06-03T10:26:38Z</time>
      </trkpt>
      <trkpt lat="46.4301" lon="-1.5914">
        <ele>3.8</ele>
        <time>2020-06-03T10:26:39Z</time>
      </trkpt>
      <trkpt lat="46.43011" lon="-1.59146">
        <ele>3.8</ele>
        <time>2020-06-03T10:26:40Z</time>
      </trkpt>
      <trkpt lat="46.43012" lon="-1.59152">
        <ele>3.8</ele>
        <time>2020-06-03T10:26:41Z</time>
      </trkpt>
      <trkpt lat="46.43013" lon="-1.59158">
        <ele>3.8</ele>
        <time>2020-06-03T10:26:42Z</time>
      </trkpt>
      <trkpt lat="46.43013" lon="-1.59163">
        <ele>3.8</ele>
        <time>2020-06-03T10:26:43Z</time>
      </trkpt>
      <trkpt lat="46.43014" lon="-1.59169">
        <ele>3.8</ele>
        <time>2020-06-03T10:26:44Z</time>
      </trkpt>
      <trkpt lat="46.43014" lon="-1.59174">
        <ele>3.8</ele>
        <time>2020-06-03T10:26:45Z</time>
      </trkpt>
      <trkpt lat="46.43015" lon="-1.5918">
        <ele>3.8</ele>
        <time>2020-06-03T10:26:46Z</time>
      </trkpt>
      <trkpt lat="46.43016" lon="-1.59185">
        <ele>3.8</ele>
        <time>2020-06-03T10:26:47Z</time>
      </trkpt>
      <trkpt lat="46.43018" lon="-1.59191">
        <ele>3.8</ele>
        <time>2020-06-03T10:26:48Z</time>
      </trkpt>
      <trkpt lat="46.4302" lon="-1.59196">
        <ele>3.8</ele>
        <time>2020-06-03T10:26:49Z</time>
      </trkpt>
      <trkpt lat="46.43022" lon="-1.59201">
        <ele>3.8</ele>
        <time>2020-06-03T10:26:50Z</time>
      </trkpt>
      <trkpt lat="46.43025" lon="-1.59206">
        <ele>3.8</ele>
        <time>2020-06-03T10:26:51Z</time>
      </trkpt>
      <trkpt lat="46.43028" lon="-1.59211">
        <ele>3.8</ele>
        <time>2020-06-03T10:26:52Z</time>
      </trkpt>
      <trkpt lat="46.4303" lon="-1.59215">
        <ele>3.8</ele>
        <time>2020-06-03T10:26:53Z</time>
      </trkpt>
      <trkpt lat="46.43033" lon="-1.5922">
        <ele>3.8</ele>
        <time>2020-06-03T10:26:54Z</time>
      </trkpt>
      <trkpt lat="46.43036" lon="-1.59225">
        <ele>3.8</ele>
        <time>2020-06-03T10:26:55Z</time>
      </trkpt>
      <trkpt lat="46.43039" lon="-1.59229">
        <ele>3.8</ele>
        <time>2020-06-03T10:26:56Z</time>
      </trkpt>
      <trkpt lat="46.43042" lon="-1.59233">
        <ele>3.7</ele>
        <time>2020-06-03T10:26:57Z</time>
      </trkpt>
      <trkpt lat="46.43046" lon="-1.59237">
        <ele>3.7</ele>
        <time>2020-06-03T10:26:58Z</time>
      </trkpt>
      <trkpt lat="46.43049" lon="-1.5924">
        <ele>3.7</ele>
        <time>2020-06-03T10:26:59Z</time>
      </trkpt>
      <trkpt lat="46.43052" lon="-1.59245">
        <ele>3.7</ele>
        <time>2020-06-03T10:27:00Z</time>
      </trkpt>
      <trkpt lat="46.43055" lon="-1.59248">
        <ele>3.7</ele>
        <time>2020-06-03T10:27:01Z</time>
      </trkpt>
      <trkpt lat="46.43059" lon="-1.59251">
        <ele>3.7</ele>
        <time>2020-06-03T10:27:02Z</time>
      </trkpt>
      <trkpt lat="46.43062" lon="-1.59254">
        <ele>3.7</ele>
        <time>2020-06-03T10:27:03Z</time>
      </trkpt>
      <trkpt lat="46.43066" lon="-1.59257">
        <ele>3.7</ele>
        <time>2020-06-03T10:27:04Z</time>
      </trkpt>
      <trkpt lat="46.4307" lon="-1.59259">
        <ele>3.7</ele>
        <time>2020-06-03T10:27:05Z</time>
      </trkpt>
      <trkpt lat="46.43075" lon="-1.59262">
        <ele>3.6</ele>
        <time>2020-06-03T10:27:06Z</time>
      </trkpt>
      <trkpt lat="46.43079" lon="-1.59265">
        <ele>3.6</ele>
        <time>2020-06-03T10:27:07Z</time>
      </trkpt>
      <trkpt lat="46.43083" lon="-1.59268">
        <ele>3.6</ele>
        <time>2020-06-03T10:27:08Z</time>
      </trkpt>
      <trkpt lat="46.43086" lon="-1.59272">
        <ele>3.6</ele>
        <time>2020-06-03T10:27:09Z</time>
      </trkpt>
      <trkpt lat="46.4309" lon="-1.59277">
        <ele>3.6</ele>
        <time>2020-06-03T10:27:10Z</time>
      </trkpt>
      <trkpt lat="46.43093" lon="-1.59281">
        <ele>3.6</ele>
        <time>2020-06-03T10:27:11Z</time>
      </trkpt>
      <trkpt lat="46.43096" lon="-1.59285">
        <ele>3.6</ele>
        <time>2020-06-03T10:27:12Z</time>
      </trkpt>
      <trkpt lat="46.431" lon="-1.59288">
        <ele>3.6</ele>
        <time>2020-06-03T10:27:13Z</time>
      </trkpt>
      <trkpt lat="46.43103" lon="-1.59292">
        <ele>3.6</ele>
        <time>2020-06-03T10:27:14Z</time>
      </trkpt>
      <trkpt lat="46.43107" lon="-1.59296">
        <ele>3.6</ele>
        <time>2020-06-03T10:27:15Z</time>
      </trkpt>
      <trkpt lat="46.4311" lon="-1.593">
        <ele>3.6</ele>
        <time>2020-06-03T10:27:16Z</time>
      </trkpt>
      <trkpt lat="46.43113" lon="-1.59305">
        <ele>3.6</ele>
        <time>2020-06-03T10:27:17Z</time>
      </trkpt>
      <trkpt lat="46.43116" lon="-1.59308">
        <ele>3.6</ele>
        <time>2020-06-03T10:27:18Z</time>
      </trkpt>
      <trkpt lat="46.4312" lon="-1.59312">
        <ele>3.6</ele>
        <time>2020-06-03T10:27:19Z</time>
      </trkpt>
      <trkpt lat="46.43123" lon="-1.59315">
        <ele>3.6</ele>
        <time>2020-06-03T10:27:20Z</time>
      </trkpt>
      <trkpt lat="46.43127" lon="-1.59319">
        <ele>3.6</ele>
        <time>2020-06-03T10:27:21Z</time>
      </trkpt>
      <trkpt lat="46.4313" lon="-1.59322">
        <ele>3.6</ele>
        <time>2020-06-03T10:27:22Z</time>
      </trkpt>
      <trkpt lat="46.43134" lon="-1.59327">
        <ele>3.6</ele>
        <time>2020-06-03T10:27:23Z</time>
      </trkpt>
      <trkpt lat="46.43137" lon="-1.59332">
        <ele>3.6</ele>
        <time>2020-06-03T10:27:24Z</time>
      </trkpt>
      <trkpt lat="46.4314" lon="-1.59336">
        <ele>3.6</ele>
        <time>2020-06-03T10:27:25Z</time>
      </trkpt>
      <trkpt lat="46.43143" lon="-1.59341">
        <ele>3.5</ele>
        <time>2020-06-03T10:27:26Z</time>
      </trkpt>
      <trkpt lat="46.43147" lon="-1.59345">
        <ele>3.5</ele>
        <time>2020-06-03T10:27:27Z</time>
      </trkpt>
      <trkpt lat="46.4315" lon="-1.59349">
        <ele>3.5</ele>
        <time>2020-06-03T10:27:28Z</time>
      </trkpt>
      <trkpt lat="46.43153" lon="-1.59354">
        <ele>3.5</ele>
        <time>2020-06-03T10:27:29Z</time>
      </trkpt>
      <trkpt lat="46.43156" lon="-1.59359">
        <ele>3.5</ele>
        <time>2020-06-03T10:27:30Z</time>
      </trkpt>
      <trkpt lat="46.43158" lon="-1.59364">
        <ele>3.5</ele>
        <time>2020-06-03T10:27:31Z</time>
      </trkpt>
      <trkpt lat="46.4316" lon="-1.59369">
        <ele>3.5</ele>
        <time>2020-06-03T10:27:32Z</time>
      </trkpt>
      <trkpt lat="46.43162" lon="-1.59375">
        <ele>3.5</ele>
        <time>2020-06-03T10:27:33Z</time>
      </trkpt>
      <trkpt lat="46.43165" lon="-1.59381">
        <ele>3.5</ele>
        <time>2020-06-03T10:27:34Z</time>
      </trkpt>
      <trkpt lat="46.43167" lon="-1.59386">
        <ele>3.5</ele>
        <time>2020-06-03T10:27:35Z</time>
      </trkpt>
      <trkpt lat="46.43169" lon="-1.59391">
        <ele>3.5</ele>
        <time>2020-06-03T10:27:36Z</time>
      </trkpt>
      <trkpt lat="46.43172" lon="-1.59397">
        <ele>3.5</ele>
        <time>2020-06-03T10:27:37Z</time>
      </trkpt>
      <trkpt lat="46.43174" lon="-1.59402">
        <ele>3.5</ele>
        <time>2020-06-03T10:27:38Z</time>
      </trkpt>
      <trkpt lat="46.43176" lon="-1.59408">
        <ele>3.5</ele>
        <time>2020-06-03T10:27:39Z</time>
      </trkpt>
      <trkpt lat="46.43179" lon="-1.59413">
        <ele>3.5</ele>
        <time>2020-06-03T10:27:40Z</time>
      </trkpt>
      <trkpt lat="46.43181" lon="-1.59419">
        <ele>3.5</ele>
        <time>2020-06-03T10:27:41Z</time>
      </trkpt>
      <trkpt lat="46.43184" lon="-1.59424">
        <ele>3.5</ele>
        <time>2020-06-03T10:27:42Z</time>
      </trkpt>
      <trkpt lat="46.43186" lon="-1.5943">
        <ele>3.5</ele>
        <time>2020-06-03T10:27:43Z</time>
      </trkpt>
      <trkpt lat="46.43189" lon="-1.59436">
        <ele>3.5</ele>
        <time>2020-06-03T10:27:44Z</time>
      </trkpt>
      <trkpt lat="46.43193" lon="-1.59441">
        <ele>3.5</ele>
        <time>2020-06-03T10:27:45Z</time>
      </trkpt>
      <trkpt lat="46.43195" lon="-1.59446">
        <ele>3.5</ele>
        <time>2020-06-03T10:27:46Z</time>
      </trkpt>
      <trkpt lat="46.43198" lon="-1.5945">
        <ele>3.4</ele>
        <time>2020-06-03T10:27:47Z</time>
      </trkpt>
      <trkpt lat="46.43202" lon="-1.59454">
        <ele>3.4</ele>
        <time>2020-06-03T10:27:48Z</time>
      </trkpt>
      <trkpt lat="46.43205" lon="-1.59459">
        <ele>3.4</ele>
        <time>2020-06-03T10:27:49Z</time>
      </trkpt>
      <trkpt lat="46.43208" lon="-1.59464">
        <ele>3.4</ele>
        <time>2020-06-03T10:27:50Z</time>
      </trkpt>
      <trkpt lat="46.43211" lon="-1.59468">
        <ele>3.4</ele>
        <time>2020-06-03T10:27:51Z</time>
      </trkpt>
      <trkpt lat="46.43215" lon="-1.59473">
        <ele>3.4</ele>
        <time>2020-06-03T10:27:52Z</time>
      </trkpt>
      <trkpt lat="46.43218" lon="-1.59477">
        <ele>3.4</ele>
        <time>2020-06-03T10:27:53Z</time>
      </trkpt>
      <trkpt lat="46.43222" lon="-1.59482">
        <ele>3.4</ele>
        <time>2020-06-03T10:27:54Z</time>
      </trkpt>
      <trkpt lat="46.43225" lon="-1.59486">
        <ele>3.4</ele>
        <time>2020-06-03T10:27:55Z</time>
      </trkpt>
      <trkpt lat="46.43228" lon="-1.59491">
        <ele>3.4</ele>
        <time>2020-06-03T10:27:56Z</time>
      </trkpt>
      <trkpt lat="46.43231" lon="-1.59495">
        <ele>3.4</ele>
        <time>2020-06-03T10:27:57Z</time>
      </trkpt>
      <trkpt lat="46.43234" lon="-1.59499">
        <ele>3.4</ele>
        <time>2020-06-03T10:27:58Z</time>
      </trkpt>
      <trkpt lat="46.43237" lon="-1.59503">
        <ele>3.4</ele>
        <time>2020-06-03T10:27:59Z</time>
      </trkpt>
      <trkpt lat="46.4324" lon="-1.59506">
        <ele>3.4</ele>
        <time>2020-06-03T10:28:00Z</time>
      </trkpt>
      <trkpt lat="46.43243" lon="-1.5951">
        <ele>3.4</ele>
        <time>2020-06-03T10:28:01Z</time>
      </trkpt>
      <trkpt lat="46.43246" lon="-1.59513">
        <ele>3.4</ele>
        <time>2020-06-03T10:28:02Z</time>
      </trkpt>
      <trkpt lat="46.43249" lon="-1.59518">
        <ele>3.4</ele>
        <time>2020-06-03T10:28:03Z</time>
      </trkpt>
      <trkpt lat="46.43252" lon="-1.59522">
        <ele>3.4</ele>
        <time>2020-06-03T10:28:04Z</time>
      </trkpt>
      <trkpt lat="46.43255" lon="-1.59525">
        <ele>3.4</ele>
        <time>2020-06-03T10:28:05Z</time>
      </trkpt>
      <trkpt lat="46.43258" lon="-1.59528">
        <ele>3.4</ele>
        <time>2020-06-03T10:28:06Z</time>
      </trkpt>
      <trkpt lat="46.43261" lon="-1.59532">
        <ele>3.4</ele>
        <time>2020-06-03T10:28:07Z</time>
      </trkpt>
      <trkpt lat="46.43264" lon="-1.59534">
        <ele>3.4</ele>
        <time>2020-06-03T10:28:08Z</time>
      </trkpt>
      <trkpt lat="46.43266" lon="-1.59537">
        <ele>3.4</ele>
        <time>2020-06-03T10:28:09Z</time>
      </trkpt>
      <trkpt lat="46.43269" lon="-1.59539">
        <ele>3.4</ele>
        <time>2020-06-03T10:28:10Z</time>
      </trkpt>
      <trkpt lat="46.43272" lon="-1.59541">
        <ele>3.4</ele>
        <time>2020-06-03T10:28:11Z</time>
      </trkpt>
      <trkpt lat="46.43275" lon="-1.59544">
        <ele>3.4</ele>
        <time>2020-06-03T10:28:12Z</time>
      </trkpt>
      <trkpt lat="46.43278" lon="-1.59548">
        <ele>3.4</ele>
        <time>2020-06-03T10:28:13Z</time>
      </trkpt>
      <trkpt lat="46.4328" lon="-1.59553">
        <ele>3.4</ele>
        <time>2020-06-03T10:28:14Z</time>
      </trkpt>
      <trkpt lat="46.43284" lon="-1.59556">
        <ele>3.4</ele>
        <time>2020-06-03T10:28:15Z</time>
      </trkpt>
      <trkpt lat="46.43287" lon="-1.5956">
        <ele>3.4</ele>
        <time>2020-06-03T10:28:16Z</time>
      </trkpt>
      <trkpt lat="46.4329" lon="-1.59565">
        <ele>3.4</ele>
        <time>2020-06-03T10:28:17Z</time>
      </trkpt>
      <trkpt lat="46.43293" lon="-1.59569">
        <ele>3.4</ele>
        <time>2020-06-03T10:28:18Z</time>
      </trkpt>
      <trkpt lat="46.43296" lon="-1.59574">
        <ele>3.4</ele>
        <time>2020-06-03T10:28:19Z</time>
      </trkpt>
      <trkpt lat="46.43299" lon="-1.59578">
        <ele>3.4</ele>
        <time>2020-06-03T10:28:20Z</time>
      </trkpt>
      <trkpt lat="46.43303" lon="-1.59583">
        <ele>3.4</ele>
        <time>2020-06-03T10:28:21Z</time>
      </trkpt>
      <trkpt lat="46.43306" lon="-1.59587">
        <ele>3.4</ele>
        <time>2020-06-03T10:28:22Z</time>
      </trkpt>
      <trkpt lat="46.43308" lon="-1.59592">
        <ele>3.4</ele>
        <time>2020-06-03T10:28:23Z</time>
      </trkpt>
      <trkpt lat="46.4331" lon="-1.59597">
        <ele>3.4</ele>
        <time>2020-06-03T10:28:24Z</time>
      </trkpt>
      <trkpt lat="46.43313" lon="-1.59602">
        <ele>3.5</ele>
        <time>2020-06-03T10:28:25Z</time>
      </trkpt>
      <trkpt lat="46.43315" lon="-1.59607">
        <ele>3.5</ele>
        <time>2020-06-03T10:28:26Z</time>
      </trkpt>
      <trkpt lat="46.43318" lon="-1.59612">
        <ele>3.5</ele>
        <time>2020-06-03T10:28:27Z</time>
      </trkpt>
      <trkpt lat="46.4332" lon="-1.59617">
        <ele>3.4</ele>
        <time>2020-06-03T10:28:28Z</time>
      </trkpt>
      <trkpt lat="46.43322" lon="-1.59622">
        <ele>3.4</ele>
        <time>2020-06-03T10:28:29Z</time>
      </trkpt>
      <trkpt lat="46.43325" lon="-1.59626">
        <ele>3.4</ele>
        <time>2020-06-03T10:28:30Z</time>
      </trkpt>
      <trkpt lat="46.43328" lon="-1.59631">
        <ele>3.4</ele>
        <time>2020-06-03T10:28:31Z</time>
      </trkpt>
      <trkpt lat="46.43331" lon="-1.59636">
        <ele>3.4</ele>
        <time>2020-06-03T10:28:32Z</time>
      </trkpt>
      <trkpt lat="46.43333" lon="-1.59642">
        <ele>3.4</ele>
        <time>2020-06-03T10:28:33Z</time>
      </trkpt>
      <trkpt lat="46.43336" lon="-1.59647">
        <ele>3.4</ele>
        <time>2020-06-03T10:28:34Z</time>
      </trkpt>
      <trkpt lat="46.43338" lon="-1.59652">
        <ele>3.4</ele>
        <time>2020-06-03T10:28:35Z</time>
      </trkpt>
      <trkpt lat="46.43341" lon="-1.59658">
        <ele>3.4</ele>
        <time>2020-06-03T10:28:36Z</time>
      </trkpt>
      <trkpt lat="46.43343" lon="-1.59664">
        <ele>3.4</ele>
        <time>2020-06-03T10:28:37Z</time>
      </trkpt>
      <trkpt lat="46.43345" lon="-1.5967">
        <ele>3.4</ele>
        <time>2020-06-03T10:28:38Z</time>
      </trkpt>
      <trkpt lat="46.43347" lon="-1.59676">
        <ele>3.4</ele>
        <time>2020-06-03T10:28:39Z</time>
      </trkpt>
      <trkpt lat="46.4335" lon="-1.59682">
        <ele>3.4</ele>
        <time>2020-06-03T10:28:40Z</time>
      </trkpt>
      <trkpt lat="46.43352" lon="-1.59688">
        <ele>3.4</ele>
        <time>2020-06-03T10:28:41Z</time>
      </trkpt>
      <trkpt lat="46.43355" lon="-1.59693">
        <ele>3.4</ele>
        <time>2020-06-03T10:28:42Z</time>
      </trkpt>
      <trkpt lat="46.43358" lon="-1.59698">
        <ele>3.5</ele>
        <time>2020-06-03T10:28:43Z</time>
      </trkpt>
      <trkpt lat="46.43359" lon="-1.59704">
        <ele>3.5</ele>
        <time>2020-06-03T10:28:44Z</time>
      </trkpt>
      <trkpt lat="46.43361" lon="-1.5971">
        <ele>3.5</ele>
        <time>2020-06-03T10:28:45Z</time>
      </trkpt>
      <trkpt lat="46.43364" lon="-1.59715">
        <ele>3.5</ele>
        <time>2020-06-03T10:28:46Z</time>
      </trkpt>
      <trkpt lat="46.43366" lon="-1.5972">
        <ele>3.5</ele>
        <time>2020-06-03T10:28:47Z</time>
      </trkpt>
      <trkpt lat="46.43367" lon="-1.59725">
        <ele>3.4</ele>
        <time>2020-06-03T10:28:48Z</time>
      </trkpt>
      <trkpt lat="46.43368" lon="-1.59731">
        <ele>3.4</ele>
        <time>2020-06-03T10:28:49Z</time>
      </trkpt>
      <trkpt lat="46.43368" lon="-1.59738">
        <ele>3.4</ele>
        <time>2020-06-03T10:28:50Z</time>
      </trkpt>
      <trkpt lat="46.43368" lon="-1.59744">
        <ele>3.4</ele>
        <time>2020-06-03T10:28:51Z</time>
      </trkpt>
      <trkpt lat="46.43369" lon="-1.59751">
        <ele>3.4</ele>
        <time>2020-06-03T10:28:52Z</time>
      </trkpt>
      <trkpt lat="46.4337" lon="-1.59758">
        <ele>3.4</ele>
        <time>2020-06-03T10:28:53Z</time>
      </trkpt>
      <trkpt lat="46.4337" lon="-1.59765">
        <ele>3.4</ele>
        <time>2020-06-03T10:28:54Z</time>
      </trkpt>
      <trkpt lat="46.43372" lon="-1.59772">
        <ele>3.4</ele>
        <time>2020-06-03T10:28:55Z</time>
      </trkpt>
      <trkpt lat="46.43374" lon="-1.59778">
        <ele>3.4</ele>
        <time>2020-06-03T10:28:56Z</time>
      </trkpt>
      <trkpt lat="46.43375" lon="-1.59784">
        <ele>3.4</ele>
        <time>2020-06-03T10:28:57Z</time>
      </trkpt>
      <trkpt lat="46.43377" lon="-1.5979">
        <ele>3.4</ele>
        <time>2020-06-03T10:28:58Z</time>
      </trkpt>
      <trkpt lat="46.43379" lon="-1.59797">
        <ele>3.4</ele>
        <time>2020-06-03T10:28:59Z</time>
      </trkpt>
      <trkpt lat="46.43381" lon="-1.59803">
        <ele>3.4</ele>
        <time>2020-06-03T10:29:00Z</time>
      </trkpt>
      <trkpt lat="46.43383" lon="-1.5981">
        <ele>3.3</ele>
        <time>2020-06-03T10:29:01Z</time>
      </trkpt>
      <trkpt lat="46.43385" lon="-1.59816">
        <ele>3.3</ele>
        <time>2020-06-03T10:29:02Z</time>
      </trkpt>
      <trkpt lat="46.43387" lon="-1.59821">
        <ele>3.3</ele>
        <time>2020-06-03T10:29:03Z</time>
      </trkpt>
      <trkpt lat="46.4339" lon="-1.59827">
        <ele>3.3</ele>
        <time>2020-06-03T10:29:04Z</time>
      </trkpt>
      <trkpt lat="46.43392" lon="-1.59833">
        <ele>3.3</ele>
        <time>2020-06-03T10:29:05Z</time>
      </trkpt>
      <trkpt lat="46.43394" lon="-1.59839">
        <ele>3.3</ele>
        <time>2020-06-03T10:29:06Z</time>
      </trkpt>
      <trkpt lat="46.43395" lon="-1.59845">
        <ele>3.3</ele>
        <time>2020-06-03T10:29:07Z</time>
      </trkpt>
      <trkpt lat="46.43397" lon="-1.59851">
        <ele>3.3</ele>
        <time>2020-06-03T10:29:08Z</time>
      </trkpt>
      <trkpt lat="46.43399" lon="-1.59857">
        <ele>3.3</ele>
        <time>2020-06-03T10:29:09Z</time>
      </trkpt>
      <trkpt lat="46.43401" lon="-1.59863">
        <ele>3.3</ele>
        <time>2020-06-03T10:29:10Z</time>
      </trkpt>
      <trkpt lat="46.43402" lon="-1.5987">
        <ele>3.2</ele>
        <time>2020-06-03T10:29:11Z</time>
      </trkpt>
      <trkpt lat="46.43403" lon="-1.59876">
        <ele>3.2</ele>
        <time>2020-06-03T10:29:12Z</time>
      </trkpt>
      <trkpt lat="46.43403" lon="-1.59883">
        <ele>3.2</ele>
        <time>2020-06-03T10:29:13Z</time>
      </trkpt>
      <trkpt lat="46.43404" lon="-1.59889">
        <ele>3.2</ele>
        <time>2020-06-03T10:29:14Z</time>
      </trkpt>
      <trkpt lat="46.43405" lon="-1.59895">
        <ele>3.2</ele>
        <time>2020-06-03T10:29:15Z</time>
      </trkpt>
      <trkpt lat="46.43405" lon="-1.59901">
        <ele>3.2</ele>
        <time>2020-06-03T10:29:16Z</time>
      </trkpt>
      <trkpt lat="46.43406" lon="-1.59907">
        <ele>3.2</ele>
        <time>2020-06-03T10:29:17Z</time>
      </trkpt>
      <trkpt lat="46.43407" lon="-1.59913">
        <ele>3.2</ele>
        <time>2020-06-03T10:29:18Z</time>
      </trkpt>
      <trkpt lat="46.43408" lon="-1.59919">
        <ele>3.2</ele>
        <time>2020-06-03T10:29:19Z</time>
      </trkpt>
      <trkpt lat="46.4341" lon="-1.59925">
        <ele>3.2</ele>
        <time>2020-06-03T10:29:20Z</time>
      </trkpt>
      <trkpt lat="46.43411" lon="-1.59932">
        <ele>3.2</ele>
        <time>2020-06-03T10:29:21Z</time>
      </trkpt>
      <trkpt lat="46.43413" lon="-1.59938">
        <ele>3.2</ele>
        <time>2020-06-03T10:29:22Z</time>
      </trkpt>
      <trkpt lat="46.43415" lon="-1.59945">
        <ele>3.2</ele>
        <time>2020-06-03T10:29:23Z</time>
      </trkpt>
      <trkpt lat="46.43417" lon="-1.59951">
        <ele>3.3</ele>
        <time>2020-06-03T10:29:24Z</time>
      </trkpt>
      <trkpt lat="46.43418" lon="-1.59956">
        <ele>3.3</ele>
        <time>2020-06-03T10:29:25Z</time>
      </trkpt>
      <trkpt lat="46.4342" lon="-1.59962">
        <ele>3.3</ele>
        <time>2020-06-03T10:29:26Z</time>
      </trkpt>
      <trkpt lat="46.43422" lon="-1.59967">
        <ele>3.3</ele>
        <time>2020-06-03T10:29:27Z</time>
      </trkpt>
      <trkpt lat="46.43423" lon="-1.59973">
        <ele>3.3</ele>
        <time>2020-06-03T10:29:28Z</time>
      </trkpt>
      <trkpt lat="46.43426" lon="-1.59977">
        <ele>3.3</ele>
        <time>2020-06-03T10:29:29Z</time>
      </trkpt>
      <trkpt lat="46.43428" lon="-1.59981">
        <ele>3.3</ele>
        <time>2020-06-03T10:29:30Z</time>
      </trkpt>
      <trkpt lat="46.43431" lon="-1.59986">
        <ele>3.4</ele>
        <time>2020-06-03T10:29:31Z</time>
      </trkpt>
      <trkpt lat="46.43433" lon="-1.59991">
        <ele>3.4</ele>
        <time>2020-06-03T10:29:32Z</time>
      </trkpt>
      <trkpt lat="46.43436" lon="-1.59996">
        <ele>3.4</ele>
        <time>2020-06-03T10:29:33Z</time>
      </trkpt>
      <trkpt lat="46.43439" lon="-1.60001">
        <ele>3.4</ele>
        <time>2020-06-03T10:29:34Z</time>
      </trkpt>
      <trkpt lat="46.43441" lon="-1.60006">
        <ele>3.4</ele>
        <time>2020-06-03T10:29:35Z</time>
      </trkpt>
      <trkpt lat="46.43444" lon="-1.60012">
        <ele>3.4</ele>
        <time>2020-06-03T10:29:36Z</time>
      </trkpt>
      <trkpt lat="46.43445" lon="-1.60018">
        <ele>3.4</ele>
        <time>2020-06-03T10:29:37Z</time>
      </trkpt>
      <trkpt lat="46.43447" lon="-1.60023">
        <ele>3.4</ele>
        <time>2020-06-03T10:29:38Z</time>
      </trkpt>
      <trkpt lat="46.43448" lon="-1.6003">
        <ele>3.4</ele>
        <time>2020-06-03T10:29:39Z</time>
      </trkpt>
      <trkpt lat="46.43449" lon="-1.60036">
        <ele>3.4</ele>
        <time>2020-06-03T10:29:40Z</time>
      </trkpt>
      <trkpt lat="46.4345" lon="-1.60043">
        <ele>3.4</ele>
        <time>2020-06-03T10:29:41Z</time>
      </trkpt>
      <trkpt lat="46.43451" lon="-1.60049">
        <ele>3.4</ele>
        <time>2020-06-03T10:29:42Z</time>
      </trkpt>
      <trkpt lat="46.43452" lon="-1.60055">
        <ele>3.4</ele>
        <time>2020-06-03T10:29:43Z</time>
      </trkpt>
      <trkpt lat="46.43453" lon="-1.60061">
        <ele>3.4</ele>
        <time>2020-06-03T10:29:44Z</time>
      </trkpt>
      <trkpt lat="46.43454" lon="-1.60067">
        <ele>3.4</ele>
        <time>2020-06-03T10:29:45Z</time>
      </trkpt>
      <trkpt lat="46.43455" lon="-1.60073">
        <ele>3.4</ele>
        <time>2020-06-03T10:29:46Z</time>
      </trkpt>
      <trkpt lat="46.43456" lon="-1.6008">
        <ele>3.4</ele>
        <time>2020-06-03T10:29:47Z</time>
      </trkpt>
      <trkpt lat="46.43456" lon="-1.60086">
        <ele>3.4</ele>
        <time>2020-06-03T10:29:48Z</time>
      </trkpt>
      <trkpt lat="46.43457" lon="-1.60092">
        <ele>3.4</ele>
        <time>2020-06-03T10:29:49Z</time>
      </trkpt>
      <trkpt lat="46.43457" lon="-1.60098">
        <ele>3.4</ele>
        <time>2020-06-03T10:29:50Z</time>
      </trkpt>
      <trkpt lat="46.43458" lon="-1.60105">
        <ele>3.4</ele>
        <time>2020-06-03T10:29:51Z</time>
      </trkpt>
      <trkpt lat="46.43458" lon="-1.60111">
        <ele>3.4</ele>
        <time>2020-06-03T10:29:52Z</time>
      </trkpt>
      <trkpt lat="46.43458" lon="-1.60118">
        <ele>3.4</ele>
        <time>2020-06-03T10:29:53Z</time>
      </trkpt>
      <trkpt lat="46.43458" lon="-1.60124">
        <ele>3.4</ele>
        <time>2020-06-03T10:29:54Z</time>
      </trkpt>
      <trkpt lat="46.43458" lon="-1.6013">
        <ele>3.5</ele>
        <time>2020-06-03T10:29:55Z</time>
      </trkpt>
      <trkpt lat="46.43459" lon="-1.60136">
        <ele>3.5</ele>
        <time>2020-06-03T10:29:56Z</time>
      </trkpt>
      <trkpt lat="46.43459" lon="-1.60141">
        <ele>3.5</ele>
        <time>2020-06-03T10:29:57Z</time>
      </trkpt>
      <trkpt lat="46.4346" lon="-1.60147">
        <ele>3.5</ele>
        <time>2020-06-03T10:29:58Z</time>
      </trkpt>
      <trkpt lat="46.43461" lon="-1.60154">
        <ele>3.5</ele>
        <time>2020-06-03T10:29:59Z</time>
      </trkpt>
      <trkpt lat="46.43462" lon="-1.6016">
        <ele>3.5</ele>
        <time>2020-06-03T10:30:00Z</time>
      </trkpt>
      <trkpt lat="46.43464" lon="-1.60165">
        <ele>3.5</ele>
        <time>2020-06-03T10:30:01Z</time>
      </trkpt>
      <trkpt lat="46.43468" lon="-1.60168">
        <ele>3.5</ele>
        <time>2020-06-03T10:30:02Z</time>
      </trkpt>
      <trkpt lat="46.43472" lon="-1.60169">
        <ele>3.5</ele>
        <time>2020-06-03T10:30:03Z</time>
      </trkpt>
      <trkpt lat="46.43477" lon="-1.60169">
        <ele>3.5</ele>
        <time>2020-06-03T10:30:04Z</time>
      </trkpt>
      <trkpt lat="46.43481" lon="-1.6017">
        <ele>3.5</ele>
        <time>2020-06-03T10:30:05Z</time>
      </trkpt>
      <trkpt lat="46.43485" lon="-1.60171">
        <ele>3.5</ele>
        <time>2020-06-03T10:30:06Z</time>
      </trkpt>
      <trkpt lat="46.43489" lon="-1.60173">
        <ele>3.5</ele>
        <time>2020-06-03T10:30:07Z</time>
      </trkpt>
      <trkpt lat="46.43494" lon="-1.60175">
        <ele>3.4</ele>
        <time>2020-06-03T10:30:08Z</time>
      </trkpt>
      <trkpt lat="46.43498" lon="-1.60177">
        <ele>3.4</ele>
        <time>2020-06-03T10:30:09Z</time>
      </trkpt>
      <trkpt lat="46.43501" lon="-1.60182">
        <ele>3.4</ele>
        <time>2020-06-03T10:30:10Z</time>
      </trkpt>
      <trkpt lat="46.43504" lon="-1.60187">
        <ele>3.4</ele>
        <time>2020-06-03T10:30:11Z</time>
      </trkpt>
      <trkpt lat="46.43506" lon="-1.60193">
        <ele>3.4</ele>
        <time>2020-06-03T10:30:12Z</time>
      </trkpt>
      <trkpt lat="46.43509" lon="-1.60198">
        <ele>3.4</ele>
        <time>2020-06-03T10:30:13Z</time>
      </trkpt>
      <trkpt lat="46.43511" lon="-1.60204">
        <ele>3.4</ele>
        <time>2020-06-03T10:30:14Z</time>
      </trkpt>
      <trkpt lat="46.43514" lon="-1.60209">
        <ele>3.4</ele>
        <time>2020-06-03T10:30:15Z</time>
      </trkpt>
      <trkpt lat="46.43516" lon="-1.60215">
        <ele>3.4</ele>
        <time>2020-06-03T10:30:16Z</time>
      </trkpt>
      <trkpt lat="46.43519" lon="-1.6022">
        <ele>3.4</ele>
        <time>2020-06-03T10:30:17Z</time>
      </trkpt>
      <trkpt lat="46.43522" lon="-1.60224">
        <ele>3.4</ele>
        <time>2020-06-03T10:30:18Z</time>
      </trkpt>
      <trkpt lat="46.43525" lon="-1.6023">
        <ele>3.5</ele>
        <time>2020-06-03T10:30:19Z</time>
      </trkpt>
      <trkpt lat="46.43528" lon="-1.60235">
        <ele>3.5</ele>
        <time>2020-06-03T10:30:20Z</time>
      </trkpt>
      <trkpt lat="46.43532" lon="-1.60239">
        <ele>3.5</ele>
        <time>2020-06-03T10:30:21Z</time>
      </trkpt>
      <trkpt lat="46.43535" lon="-1.60244">
        <ele>3.5</ele>
        <time>2020-06-03T10:30:22Z</time>
      </trkpt>
      <trkpt lat="46.43538" lon="-1.60249">
        <ele>3.5</ele>
        <time>2020-06-03T10:30:23Z</time>
      </trkpt>
      <trkpt lat="46.43541" lon="-1.60254">
        <ele>3.5</ele>
        <time>2020-06-03T10:30:24Z</time>
      </trkpt>
      <trkpt lat="46.43544" lon="-1.60259">
        <ele>3.5</ele>
        <time>2020-06-03T10:30:25Z</time>
      </trkpt>
      <trkpt lat="46.43547" lon="-1.60263">
        <ele>3.5</ele>
        <time>2020-06-03T10:30:26Z</time>
      </trkpt>
      <trkpt lat="46.4355" lon="-1.60268">
        <ele>3.5</ele>
        <time>2020-06-03T10:30:27Z</time>
      </trkpt>
      <trkpt lat="46.43552" lon="-1.60274">
        <ele>3.5</ele>
        <time>2020-06-03T10:30:28Z</time>
      </trkpt>
      <trkpt lat="46.43555" lon="-1.6028">
        <ele>3.5</ele>
        <time>2020-06-03T10:30:29Z</time>
      </trkpt>
      <trkpt lat="46.43557" lon="-1.60285">
        <ele>3.5</ele>
        <time>2020-06-03T10:30:30Z</time>
      </trkpt>
      <trkpt lat="46.4356" lon="-1.60291">
        <ele>3.5</ele>
        <time>2020-06-03T10:30:31Z</time>
      </trkpt>
      <trkpt lat="46.43562" lon="-1.60298">
        <ele>3.5</ele>
        <time>2020-06-03T10:30:32Z</time>
      </trkpt>
      <trkpt lat="46.43566" lon="-1.60302">
        <ele>3.5</ele>
        <time>2020-06-03T10:30:33Z</time>
      </trkpt>
      <trkpt lat="46.43571" lon="-1.60305">
        <ele>3.5</ele>
        <time>2020-06-03T10:30:34Z</time>
      </trkpt>
      <trkpt lat="46.43575" lon="-1.60304">
        <ele>3.5</ele>
        <time>2020-06-03T10:30:35Z</time>
      </trkpt>
      <trkpt lat="46.4358" lon="-1.60303">
        <ele>3.5</ele>
        <time>2020-06-03T10:30:36Z</time>
      </trkpt>
      <trkpt lat="46.43585" lon="-1.60304">
        <ele>3.5</ele>
        <time>2020-06-03T10:30:37Z</time>
      </trkpt>
      <trkpt lat="46.43589" lon="-1.60304">
        <ele>3.5</ele>
        <time>2020-06-03T10:30:38Z</time>
      </trkpt>
      <trkpt lat="46.43594" lon="-1.60304">
        <ele>3.5</ele>
        <time>2020-06-03T10:30:39Z</time>
      </trkpt>
      <trkpt lat="46.43599" lon="-1.60303">
        <ele>3.5</ele>
        <time>2020-06-03T10:30:40Z</time>
      </trkpt>
      <trkpt lat="46.43603" lon="-1.60303">
        <ele>3.5</ele>
        <time>2020-06-03T10:30:41Z</time>
      </trkpt>
      <trkpt lat="46.43608" lon="-1.60303">
        <ele>3.5</ele>
        <time>2020-06-03T10:30:42Z</time>
      </trkpt>
      <trkpt lat="46.43613" lon="-1.60303">
        <ele>3.5</ele>
        <time>2020-06-03T10:30:43Z</time>
      </trkpt>
      <trkpt lat="46.43617" lon="-1.60303">
        <ele>3.5</ele>
        <time>2020-06-03T10:30:44Z</time>
      </trkpt>
      <trkpt lat="46.43622" lon="-1.60302">
        <ele>3.5</ele>
        <time>2020-06-03T10:30:45Z</time>
      </trkpt>
      <trkpt lat="46.43626" lon="-1.60301">
        <ele>3.5</ele>
        <time>2020-06-03T10:30:46Z</time>
      </trkpt>
      <trkpt lat="46.43631" lon="-1.60302">
        <ele>3.5</ele>
        <time>2020-06-03T10:30:47Z</time>
      </trkpt>
      <trkpt lat="46.43635" lon="-1.60301">
        <ele>3.5</ele>
        <time>2020-06-03T10:30:48Z</time>
      </trkpt>
      <trkpt lat="46.43637" lon="-1.60301">
        <ele>3.5</ele>
        <time>2020-06-03T10:30:49Z</time>
      </trkpt>
      <trkpt lat="46.43641" lon="-1.603">
        <ele>3.5</ele>
        <time>2020-06-03T10:30:50Z</time>
      </trkpt>
      <trkpt lat="46.43642" lon="-1.60299">
        <ele>3.5</ele>
        <time>2020-06-03T10:30:51Z</time>
      </trkpt>
      <trkpt lat="46.43646" lon="-1.60299">
        <ele>3.5</ele>
        <time>2020-06-03T10:30:52Z</time>
      </trkpt>
      <trkpt lat="46.43647" lon="-1.60298">
        <ele>3.5</ele>
        <time>2020-06-03T10:30:53Z</time>
      </trkpt>
      <trkpt lat="46.4365" lon="-1.60297">
        <ele>3.5</ele>
        <time>2020-06-03T10:30:54Z</time>
      </trkpt>
      <trkpt lat="46.43651" lon="-1.60296">
        <ele>3.5</ele>
        <time>2020-06-03T10:30:55Z</time>
      </trkpt>
      <trkpt lat="46.43655" lon="-1.60296">
        <ele>3.5</ele>
        <time>2020-06-03T10:30:56Z</time>
      </trkpt>
      <trkpt lat="46.43659" lon="-1.60297">
        <ele>3.5</ele>
        <time>2020-06-03T10:30:57Z</time>
      </trkpt>
      <trkpt lat="46.43664" lon="-1.60297">
        <ele>3.5</ele>
        <time>2020-06-03T10:30:58Z</time>
      </trkpt>
      <trkpt lat="46.43668" lon="-1.60296">
        <ele>3.4</ele>
        <time>2020-06-03T10:30:59Z</time>
      </trkpt>
      <trkpt lat="46.43672" lon="-1.60295">
        <ele>3.4</ele>
        <time>2020-06-03T10:31:00Z</time>
      </trkpt>
      <trkpt lat="46.43676" lon="-1.60294">
        <ele>3.4</ele>
        <time>2020-06-03T10:31:01Z</time>
      </trkpt>
      <trkpt lat="46.4368" lon="-1.60294">
        <ele>3.4</ele>
        <time>2020-06-03T10:31:02Z</time>
      </trkpt>
      <trkpt lat="46.43684" lon="-1.60294">
        <ele>3.4</ele>
        <time>2020-06-03T10:31:03Z</time>
      </trkpt>
      <trkpt lat="46.43689" lon="-1.60293">
        <ele>3.4</ele>
        <time>2020-06-03T10:31:04Z</time>
      </trkpt>
      <trkpt lat="46.43693" lon="-1.60292">
        <ele>3.4</ele>
        <time>2020-06-03T10:31:05Z</time>
      </trkpt>
      <trkpt lat="46.43697" lon="-1.60291">
        <ele>3.4</ele>
        <time>2020-06-03T10:31:06Z</time>
      </trkpt>
      <trkpt lat="46.43701" lon="-1.6029">
        <ele>3.4</ele>
        <time>2020-06-03T10:31:07Z</time>
      </trkpt>
      <trkpt lat="46.43705" lon="-1.6029">
        <ele>3.4</ele>
        <time>2020-06-03T10:31:08Z</time>
      </trkpt>
      <trkpt lat="46.43708" lon="-1.6029">
        <ele>3.4</ele>
        <time>2020-06-03T10:31:09Z</time>
      </trkpt>
      <trkpt lat="46.43711" lon="-1.60291">
        <ele>3.4</ele>
        <time>2020-06-03T10:31:10Z</time>
      </trkpt>
      <trkpt lat="46.43714" lon="-1.60291">
        <ele>3.4</ele>
        <time>2020-06-03T10:31:11Z</time>
      </trkpt>
      <trkpt lat="46.43715" lon="-1.60291">
        <ele>3.4</ele>
        <time>2020-06-03T10:31:12Z</time>
      </trkpt>
      <trkpt lat="46.43717" lon="-1.60291">
        <ele>3.4</ele>
        <time>2020-06-03T10:31:13Z</time>
      </trkpt>
      <trkpt lat="46.43718" lon="-1.60292">
        <ele>3.4</ele>
        <time>2020-06-03T10:31:14Z</time>
      </trkpt>
      <trkpt lat="46.43721" lon="-1.60293">
        <ele>3.4</ele>
        <time>2020-06-03T10:31:15Z</time>
      </trkpt>
      <trkpt lat="46.43722" lon="-1.60294">
        <ele>3.4</ele>
        <time>2020-06-03T10:31:16Z</time>
      </trkpt>
      <trkpt lat="46.43723" lon="-1.603">
        <ele>3.4</ele>
        <time>2020-06-03T10:31:17Z</time>
      </trkpt>
      <trkpt lat="46.43723" lon="-1.60302">
        <ele>3.3</ele>
        <time>2020-06-03T10:31:18Z</time>
      </trkpt>
      <trkpt lat="46.43723" lon="-1.60307">
        <ele>3.3</ele>
        <time>2020-06-03T10:31:19Z</time>
      </trkpt>
      <trkpt lat="46.43724" lon="-1.60312">
        <ele>3.3</ele>
        <time>2020-06-03T10:31:20Z</time>
      </trkpt>
      <trkpt lat="46.43724" lon="-1.60317">
        <ele>3.3</ele>
        <time>2020-06-03T10:31:21Z</time>
      </trkpt>
      <trkpt lat="46.43724" lon="-1.60323">
        <ele>3.3</ele>
        <time>2020-06-03T10:31:22Z</time>
      </trkpt>
      <trkpt lat="46.43724" lon="-1.60328">
        <ele>3.3</ele>
        <time>2020-06-03T10:31:23Z</time>
      </trkpt>
      <trkpt lat="46.43723" lon="-1.60334">
        <ele>3.3</ele>
        <time>2020-06-03T10:31:24Z</time>
      </trkpt>
      <trkpt lat="46.43723" lon="-1.60341">
        <ele>3.2</ele>
        <time>2020-06-03T10:31:25Z</time>
      </trkpt>
      <trkpt lat="46.43723" lon="-1.60346">
        <ele>3.2</ele>
        <time>2020-06-03T10:31:26Z</time>
      </trkpt>
      <trkpt lat="46.43723" lon="-1.60353">
        <ele>3.2</ele>
        <time>2020-06-03T10:31:27Z</time>
      </trkpt>
      <trkpt lat="46.43723" lon="-1.60359">
        <ele>3.2</ele>
        <time>2020-06-03T10:31:28Z</time>
      </trkpt>
      <trkpt lat="46.43724" lon="-1.60364">
        <ele>3.2</ele>
        <time>2020-06-03T10:31:29Z</time>
      </trkpt>
      <trkpt lat="46.43726" lon="-1.6037">
        <ele>3.2</ele>
        <time>2020-06-03T10:31:30Z</time>
      </trkpt>
      <trkpt lat="46.43729" lon="-1.60375">
        <ele>3.1</ele>
        <time>2020-06-03T10:31:31Z</time>
      </trkpt>
      <trkpt lat="46.43732" lon="-1.60381">
        <ele>3.1</ele>
        <time>2020-06-03T10:31:32Z</time>
      </trkpt>
      <trkpt lat="46.43735" lon="-1.60384">
        <ele>3.1</ele>
        <time>2020-06-03T10:31:33Z</time>
      </trkpt>
      <trkpt lat="46.43739" lon="-1.60387">
        <ele>3.1</ele>
        <time>2020-06-03T10:31:34Z</time>
      </trkpt>
      <trkpt lat="46.43743" lon="-1.60389">
        <ele>3.1</ele>
        <time>2020-06-03T10:31:35Z</time>
      </trkpt>
      <trkpt lat="46.43748" lon="-1.6039">
        <ele>3.1</ele>
        <time>2020-06-03T10:31:36Z</time>
      </trkpt>
      <trkpt lat="46.43753" lon="-1.6039">
        <ele>3</ele>
        <time>2020-06-03T10:31:37Z</time>
      </trkpt>
      <trkpt lat="46.43757" lon="-1.60388">
        <ele>3</ele>
        <time>2020-06-03T10:31:38Z</time>
      </trkpt>
      <trkpt lat="46.43762" lon="-1.60385">
        <ele>3</ele>
        <time>2020-06-03T10:31:39Z</time>
      </trkpt>
      <trkpt lat="46.43767" lon="-1.60383">
        <ele>3</ele>
        <time>2020-06-03T10:31:40Z</time>
      </trkpt>
      <trkpt lat="46.43771" lon="-1.6038">
        <ele>3</ele>
        <time>2020-06-03T10:31:41Z</time>
      </trkpt>
      <trkpt lat="46.43776" lon="-1.60376">
        <ele>2.9</ele>
        <time>2020-06-03T10:31:42Z</time>
      </trkpt>
      <trkpt lat="46.4378" lon="-1.60373">
        <ele>2.9</ele>
        <time>2020-06-03T10:31:43Z</time>
      </trkpt>
      <trkpt lat="46.43784" lon="-1.60369">
        <ele>2.9</ele>
        <time>2020-06-03T10:31:44Z</time>
      </trkpt>
      <trkpt lat="46.43788" lon="-1.60364">
        <ele>2.9</ele>
        <time>2020-06-03T10:31:45Z</time>
      </trkpt>
      <trkpt lat="46.43792" lon="-1.60361">
        <ele>2.8</ele>
        <time>2020-06-03T10:31:46Z</time>
      </trkpt>
      <trkpt lat="46.43796" lon="-1.60357">
        <ele>2.8</ele>
        <time>2020-06-03T10:31:47Z</time>
      </trkpt>
      <trkpt lat="46.438" lon="-1.60353">
        <ele>2.8</ele>
        <time>2020-06-03T10:31:48Z</time>
      </trkpt>
      <trkpt lat="46.43804" lon="-1.60348">
        <ele>2.8</ele>
        <time>2020-06-03T10:31:49Z</time>
      </trkpt>
      <trkpt lat="46.43808" lon="-1.60344">
        <ele>2.8</ele>
        <time>2020-06-03T10:31:50Z</time>
      </trkpt>
      <trkpt lat="46.43812" lon="-1.60339">
        <ele>2.7</ele>
        <time>2020-06-03T10:31:51Z</time>
      </trkpt>
      <trkpt lat="46.43815" lon="-1.60334">
        <ele>2.7</ele>
        <time>2020-06-03T10:31:52Z</time>
      </trkpt>
      <trkpt lat="46.43819" lon="-1.60329">
        <ele>2.7</ele>
        <time>2020-06-03T10:31:53Z</time>
      </trkpt>
      <trkpt lat="46.43823" lon="-1.60325">
        <ele>2.7</ele>
        <time>2020-06-03T10:31:54Z</time>
      </trkpt>
      <trkpt lat="46.43827" lon="-1.6032">
        <ele>2.6</ele>
        <time>2020-06-03T10:31:55Z</time>
      </trkpt>
      <trkpt lat="46.4383" lon="-1.60314">
        <ele>2.6</ele>
        <time>2020-06-03T10:31:56Z</time>
      </trkpt>
      <trkpt lat="46.43833" lon="-1.60309">
        <ele>2.6</ele>
        <time>2020-06-03T10:31:57Z</time>
      </trkpt>
      <trkpt lat="46.43836" lon="-1.60302">
        <ele>2.6</ele>
        <time>2020-06-03T10:31:58Z</time>
      </trkpt>
      <trkpt lat="46.4384" lon="-1.60298">
        <ele>2.5</ele>
        <time>2020-06-03T10:31:59Z</time>
      </trkpt>
      <trkpt lat="46.43844" lon="-1.60293">
        <ele>2.5</ele>
        <time>2020-06-03T10:32:00Z</time>
      </trkpt>
      <trkpt lat="46.43848" lon="-1.60287">
        <ele>2.5</ele>
        <time>2020-06-03T10:32:01Z</time>
      </trkpt>
      <trkpt lat="46.43852" lon="-1.60283">
        <ele>2.5</ele>
        <time>2020-06-03T10:32:02Z</time>
      </trkpt>
      <trkpt lat="46.43856" lon="-1.60278">
        <ele>2.5</ele>
        <time>2020-06-03T10:32:03Z</time>
      </trkpt>
      <trkpt lat="46.4386" lon="-1.60273">
        <ele>2.5</ele>
        <time>2020-06-03T10:32:04Z</time>
      </trkpt>
      <trkpt lat="46.43864" lon="-1.6027">
        <ele>2.6</ele>
        <time>2020-06-03T10:32:05Z</time>
      </trkpt>
      <trkpt lat="46.43868" lon="-1.60265">
        <ele>2.6</ele>
        <time>2020-06-03T10:32:06Z</time>
      </trkpt>
      <trkpt lat="46.43872" lon="-1.60261">
        <ele>2.6</ele>
        <time>2020-06-03T10:32:07Z</time>
      </trkpt>
      <trkpt lat="46.43876" lon="-1.60256">
        <ele>2.6</ele>
        <time>2020-06-03T10:32:08Z</time>
      </trkpt>
      <trkpt lat="46.4388" lon="-1.60252">
        <ele>2.5</ele>
        <time>2020-06-03T10:32:09Z</time>
      </trkpt>
      <trkpt lat="46.43884" lon="-1.60247">
        <ele>2.5</ele>
        <time>2020-06-03T10:32:10Z</time>
      </trkpt>
      <trkpt lat="46.43888" lon="-1.60243">
        <ele>2.5</ele>
        <time>2020-06-03T10:32:11Z</time>
      </trkpt>
      <trkpt lat="46.43892" lon="-1.60238">
        <ele>2.5</ele>
        <time>2020-06-03T10:32:12Z</time>
      </trkpt>
      <trkpt lat="46.43896" lon="-1.60233">
        <ele>2.5</ele>
        <time>2020-06-03T10:32:13Z</time>
      </trkpt>
      <trkpt lat="46.439" lon="-1.60229">
        <ele>2.5</ele>
        <time>2020-06-03T10:32:14Z</time>
      </trkpt>
      <trkpt lat="46.43903" lon="-1.60225">
        <ele>2.5</ele>
        <time>2020-06-03T10:32:15Z</time>
      </trkpt>
      <trkpt lat="46.43907" lon="-1.60221">
        <ele>2.5</ele>
        <time>2020-06-03T10:32:16Z</time>
      </trkpt>
      <trkpt lat="46.43912" lon="-1.60217">
        <ele>2.4</ele>
        <time>2020-06-03T10:32:17Z</time>
      </trkpt>
      <trkpt lat="46.43916" lon="-1.60214">
        <ele>2.4</ele>
        <time>2020-06-03T10:32:18Z</time>
      </trkpt>
      <trkpt lat="46.43921" lon="-1.60211">
        <ele>2.4</ele>
        <time>2020-06-03T10:32:19Z</time>
      </trkpt>
      <trkpt lat="46.43926" lon="-1.6021">
        <ele>2.4</ele>
        <time>2020-06-03T10:32:20Z</time>
      </trkpt>
      <trkpt lat="46.4393" lon="-1.6021">
        <ele>2.4</ele>
        <time>2020-06-03T10:32:21Z</time>
      </trkpt>
      <trkpt lat="46.43935" lon="-1.6021">
        <ele>2.5</ele>
        <time>2020-06-03T10:32:22Z</time>
      </trkpt>
      <trkpt lat="46.4394" lon="-1.6021">
        <ele>2.5</ele>
        <time>2020-06-03T10:32:23Z</time>
      </trkpt>
      <trkpt lat="46.43945" lon="-1.60209">
        <ele>2.5</ele>
        <time>2020-06-03T10:32:24Z</time>
      </trkpt>
      <trkpt lat="46.4395" lon="-1.60208">
        <ele>2.6</ele>
        <time>2020-06-03T10:32:25Z</time>
      </trkpt>
      <trkpt lat="46.43955" lon="-1.60208">
        <ele>2.6</ele>
        <time>2020-06-03T10:32:26Z</time>
      </trkpt>
      <trkpt lat="46.4396" lon="-1.60207">
        <ele>2.6</ele>
        <time>2020-06-03T10:32:27Z</time>
      </trkpt>
      <trkpt lat="46.43966" lon="-1.60208">
        <ele>2.7</ele>
        <time>2020-06-03T10:32:28Z</time>
      </trkpt>
      <trkpt lat="46.43971" lon="-1.60208">
        <ele>2.7</ele>
        <time>2020-06-03T10:32:29Z</time>
      </trkpt>
      <trkpt lat="46.43976" lon="-1.60208">
        <ele>2.8</ele>
        <time>2020-06-03T10:32:30Z</time>
      </trkpt>
      <trkpt lat="46.43982" lon="-1.60209">
        <ele>2.8</ele>
        <time>2020-06-03T10:32:31Z</time>
      </trkpt>
      <trkpt lat="46.43987" lon="-1.60209">
        <ele>2.8</ele>
        <time>2020-06-03T10:32:32Z</time>
      </trkpt>
      <trkpt lat="46.43992" lon="-1.60209">
        <ele>2.9</ele>
        <time>2020-06-03T10:32:33Z</time>
      </trkpt>
      <trkpt lat="46.43997" lon="-1.6021">
        <ele>2.9</ele>
        <time>2020-06-03T10:32:34Z</time>
      </trkpt>
      <trkpt lat="46.44002" lon="-1.6021">
        <ele>2.9</ele>
        <time>2020-06-03T10:32:35Z</time>
      </trkpt>
      <trkpt lat="46.44006" lon="-1.6021">
        <ele>2.9</ele>
        <time>2020-06-03T10:32:36Z</time>
      </trkpt>
      <trkpt lat="46.44011" lon="-1.60211">
        <ele>3</ele>
        <time>2020-06-03T10:32:37Z</time>
      </trkpt>
      <trkpt lat="46.44016" lon="-1.60211">
        <ele>3</ele>
        <time>2020-06-03T10:32:38Z</time>
      </trkpt>
      <trkpt lat="46.4402" lon="-1.6021">
        <ele>3</ele>
        <time>2020-06-03T10:32:39Z</time>
      </trkpt>
      <trkpt lat="46.44024" lon="-1.6021">
        <ele>3</ele>
        <time>2020-06-03T10:32:40Z</time>
      </trkpt>
      <trkpt lat="46.44029" lon="-1.60211">
        <ele>3.1</ele>
        <time>2020-06-03T10:32:41Z</time>
      </trkpt>
      <trkpt lat="46.44033" lon="-1.6021">
        <ele>3.1</ele>
        <time>2020-06-03T10:32:42Z</time>
      </trkpt>
      <trkpt lat="46.44037" lon="-1.60211">
        <ele>3.1</ele>
        <time>2020-06-03T10:32:43Z</time>
      </trkpt>
      <trkpt lat="46.44042" lon="-1.60212">
        <ele>3.1</ele>
        <time>2020-06-03T10:32:44Z</time>
      </trkpt>
      <trkpt lat="46.44046" lon="-1.60212">
        <ele>3.1</ele>
        <time>2020-06-03T10:32:45Z</time>
      </trkpt>
      <trkpt lat="46.4405" lon="-1.60213">
        <ele>3.2</ele>
        <time>2020-06-03T10:32:46Z</time>
      </trkpt>
      <trkpt lat="46.44055" lon="-1.60212">
        <ele>3.2</ele>
        <time>2020-06-03T10:32:47Z</time>
      </trkpt>
      <trkpt lat="46.44059" lon="-1.60212">
        <ele>3.3</ele>
        <time>2020-06-03T10:32:48Z</time>
      </trkpt>
      <trkpt lat="46.44064" lon="-1.60213">
        <ele>3.4</ele>
        <time>2020-06-03T10:32:49Z</time>
      </trkpt>
      <trkpt lat="46.44069" lon="-1.60212">
        <ele>3.4</ele>
        <time>2020-06-03T10:32:50Z</time>
      </trkpt>
      <trkpt lat="46.44074" lon="-1.60211">
        <ele>3.5</ele>
        <time>2020-06-03T10:32:51Z</time>
      </trkpt>
      <trkpt lat="46.4408" lon="-1.60212">
        <ele>3.5</ele>
        <time>2020-06-03T10:32:52Z</time>
      </trkpt>
      <trkpt lat="46.44085" lon="-1.60213">
        <ele>3.6</ele>
        <time>2020-06-03T10:32:53Z</time>
      </trkpt>
      <trkpt lat="46.4409" lon="-1.60215">
        <ele>3.6</ele>
        <time>2020-06-03T10:32:54Z</time>
      </trkpt>
      <trkpt lat="46.44094" lon="-1.60217">
        <ele>3.7</ele>
        <time>2020-06-03T10:32:55Z</time>
      </trkpt>
      <trkpt lat="46.44098" lon="-1.6022">
        <ele>3.7</ele>
        <time>2020-06-03T10:32:56Z</time>
      </trkpt>
      <trkpt lat="46.44101" lon="-1.60225">
        <ele>3.8</ele>
        <time>2020-06-03T10:32:57Z</time>
      </trkpt>
      <trkpt lat="46.44102" lon="-1.60232">
        <ele>3.8</ele>
        <time>2020-06-03T10:32:58Z</time>
      </trkpt>
      <trkpt lat="46.44104" lon="-1.60238">
        <ele>3.8</ele>
        <time>2020-06-03T10:32:59Z</time>
      </trkpt>
      <trkpt lat="46.44106" lon="-1.60245">
        <ele>3.8</ele>
        <time>2020-06-03T10:33:00Z</time>
      </trkpt>
      <trkpt lat="46.44107" lon="-1.60253">
        <ele>3.8</ele>
        <time>2020-06-03T10:33:01Z</time>
      </trkpt>
      <trkpt lat="46.44107" lon="-1.6026">
        <ele>3.8</ele>
        <time>2020-06-03T10:33:02Z</time>
      </trkpt>
      <trkpt lat="46.44106" lon="-1.60267">
        <ele>3.8</ele>
        <time>2020-06-03T10:33:03Z</time>
      </trkpt>
      <trkpt lat="46.44106" lon="-1.60275">
        <ele>3.9</ele>
        <time>2020-06-03T10:33:04Z</time>
      </trkpt>
      <trkpt lat="46.44106" lon="-1.60282">
        <ele>3.9</ele>
        <time>2020-06-03T10:33:05Z</time>
      </trkpt>
      <trkpt lat="46.44105" lon="-1.60289">
        <ele>3.9</ele>
        <time>2020-06-03T10:33:06Z</time>
      </trkpt>
      <trkpt lat="46.44105" lon="-1.60297">
        <ele>3.9</ele>
        <time>2020-06-03T10:33:07Z</time>
      </trkpt>
      <trkpt lat="46.44106" lon="-1.60305">
        <ele>3.9</ele>
        <time>2020-06-03T10:33:08Z</time>
      </trkpt>
      <trkpt lat="46.44105" lon="-1.60312">
        <ele>3.9</ele>
        <time>2020-06-03T10:33:09Z</time>
      </trkpt>
      <trkpt lat="46.44104" lon="-1.60319">
        <ele>3.9</ele>
        <time>2020-06-03T10:33:10Z</time>
      </trkpt>
      <trkpt lat="46.44104" lon="-1.60326">
        <ele>3.9</ele>
        <time>2020-06-03T10:33:11Z</time>
      </trkpt>
      <trkpt lat="46.44103" lon="-1.60334">
        <ele>3.9</ele>
        <time>2020-06-03T10:33:12Z</time>
      </trkpt>
      <trkpt lat="46.44102" lon="-1.60341">
        <ele>4</ele>
        <time>2020-06-03T10:33:13Z</time>
      </trkpt>
      <trkpt lat="46.44101" lon="-1.60348">
        <ele>4</ele>
        <time>2020-06-03T10:33:14Z</time>
      </trkpt>
      <trkpt lat="46.44101" lon="-1.60356">
        <ele>4</ele>
        <time>2020-06-03T10:33:15Z</time>
      </trkpt>
      <trkpt lat="46.441" lon="-1.60364">
        <ele>4</ele>
        <time>2020-06-03T10:33:16Z</time>
      </trkpt>
      <trkpt lat="46.44101" lon="-1.60372">
        <ele>3.9</ele>
        <time>2020-06-03T10:33:17Z</time>
      </trkpt>
      <trkpt lat="46.44101" lon="-1.60379">
        <ele>3.9</ele>
        <time>2020-06-03T10:33:18Z</time>
      </trkpt>
      <trkpt lat="46.44102" lon="-1.60387">
        <ele>3.8</ele>
        <time>2020-06-03T10:33:19Z</time>
      </trkpt>
      <trkpt lat="46.44103" lon="-1.60395">
        <ele>3.8</ele>
        <time>2020-06-03T10:33:20Z</time>
      </trkpt>
      <trkpt lat="46.44104" lon="-1.60403">
        <ele>3.8</ele>
        <time>2020-06-03T10:33:21Z</time>
      </trkpt>
      <trkpt lat="46.44105" lon="-1.60411">
        <ele>3.7</ele>
        <time>2020-06-03T10:33:22Z</time>
      </trkpt>
      <trkpt lat="46.44106" lon="-1.6042">
        <ele>3.7</ele>
        <time>2020-06-03T10:33:23Z</time>
      </trkpt>
      <trkpt lat="46.44108" lon="-1.60428">
        <ele>3.7</ele>
        <time>2020-06-03T10:33:24Z</time>
      </trkpt>
      <trkpt lat="46.44109" lon="-1.60436">
        <ele>3.7</ele>
        <time>2020-06-03T10:33:25Z</time>
      </trkpt>
      <trkpt lat="46.44111" lon="-1.60444">
        <ele>3.7</ele>
        <time>2020-06-03T10:33:26Z</time>
      </trkpt>
      <trkpt lat="46.44113" lon="-1.60452">
        <ele>3.7</ele>
        <time>2020-06-03T10:33:27Z</time>
      </trkpt>
      <trkpt lat="46.44116" lon="-1.60458">
        <ele>3.7</ele>
        <time>2020-06-03T10:33:28Z</time>
      </trkpt>
      <trkpt lat="46.44119" lon="-1.60463">
        <ele>3.7</ele>
        <time>2020-06-03T10:33:29Z</time>
      </trkpt>
      <trkpt lat="46.44122" lon="-1.60469">
        <ele>3.7</ele>
        <time>2020-06-03T10:33:30Z</time>
      </trkpt>
      <trkpt lat="46.44126" lon="-1.60474">
        <ele>3.7</ele>
        <time>2020-06-03T10:33:31Z</time>
      </trkpt>
      <trkpt lat="46.44129" lon="-1.60479">
        <ele>3.7</ele>
        <time>2020-06-03T10:33:32Z</time>
      </trkpt>
      <trkpt lat="46.44132" lon="-1.60484">
        <ele>3.7</ele>
        <time>2020-06-03T10:33:33Z</time>
      </trkpt>
      <trkpt lat="46.44135" lon="-1.60489">
        <ele>3.7</ele>
        <time>2020-06-03T10:33:34Z</time>
      </trkpt>
      <trkpt lat="46.44139" lon="-1.60494">
        <ele>3.7</ele>
        <time>2020-06-03T10:33:35Z</time>
      </trkpt>
      <trkpt lat="46.44142" lon="-1.60499">
        <ele>3.7</ele>
        <time>2020-06-03T10:33:36Z</time>
      </trkpt>
      <trkpt lat="46.44145" lon="-1.60505">
        <ele>3.7</ele>
        <time>2020-06-03T10:33:37Z</time>
      </trkpt>
      <trkpt lat="46.44149" lon="-1.60511">
        <ele>3.7</ele>
        <time>2020-06-03T10:33:38Z</time>
      </trkpt>
      <trkpt lat="46.44152" lon="-1.60517">
        <ele>3.8</ele>
        <time>2020-06-03T10:33:39Z</time>
      </trkpt>
      <trkpt lat="46.44155" lon="-1.60523">
        <ele>3.8</ele>
        <time>2020-06-03T10:33:40Z</time>
      </trkpt>
      <trkpt lat="46.44159" lon="-1.6053">
        <ele>3.8</ele>
        <time>2020-06-03T10:33:41Z</time>
      </trkpt>
      <trkpt lat="46.44162" lon="-1.60537">
        <ele>3.8</ele>
        <time>2020-06-03T10:33:42Z</time>
      </trkpt>
      <trkpt lat="46.44164" lon="-1.60544">
        <ele>3.9</ele>
        <time>2020-06-03T10:33:43Z</time>
      </trkpt>
      <trkpt lat="46.44167" lon="-1.6055">
        <ele>3.9</ele>
        <time>2020-06-03T10:33:44Z</time>
      </trkpt>
      <trkpt lat="46.44169" lon="-1.60556">
        <ele>3.9</ele>
        <time>2020-06-03T10:33:45Z</time>
      </trkpt>
      <trkpt lat="46.44171" lon="-1.60563">
        <ele>4</ele>
        <time>2020-06-03T10:33:46Z</time>
      </trkpt>
      <trkpt lat="46.44173" lon="-1.60569">
        <ele>4</ele>
        <time>2020-06-03T10:33:47Z</time>
      </trkpt>
      <trkpt lat="46.44174" lon="-1.60576">
        <ele>4</ele>
        <time>2020-06-03T10:33:48Z</time>
      </trkpt>
      <trkpt lat="46.44176" lon="-1.60582">
        <ele>4.1</ele>
        <time>2020-06-03T10:33:49Z</time>
      </trkpt>
      <trkpt lat="46.44177" lon="-1.60589">
        <ele>4.1</ele>
        <time>2020-06-03T10:33:50Z</time>
      </trkpt>
      <trkpt lat="46.44179" lon="-1.60596">
        <ele>4.2</ele>
        <time>2020-06-03T10:33:51Z</time>
      </trkpt>
      <trkpt lat="46.44181" lon="-1.60604">
        <ele>4.3</ele>
        <time>2020-06-03T10:33:52Z</time>
      </trkpt>
      <trkpt lat="46.44183" lon="-1.60611">
        <ele>4.3</ele>
        <time>2020-06-03T10:33:53Z</time>
      </trkpt>
      <trkpt lat="46.44184" lon="-1.60617">
        <ele>4.4</ele>
        <time>2020-06-03T10:33:54Z</time>
      </trkpt>
      <trkpt lat="46.44186" lon="-1.60623">
        <ele>4.5</ele>
        <time>2020-06-03T10:33:55Z</time>
      </trkpt>
      <trkpt lat="46.44187" lon="-1.6063">
        <ele>4.5</ele>
        <time>2020-06-03T10:33:56Z</time>
      </trkpt>
      <trkpt lat="46.44189" lon="-1.60636">
        <ele>4.6</ele>
        <time>2020-06-03T10:33:57Z</time>
      </trkpt>
      <trkpt lat="46.4419" lon="-1.60642">
        <ele>4.7</ele>
        <time>2020-06-03T10:33:58Z</time>
      </trkpt>
      <trkpt lat="46.44192" lon="-1.60649">
        <ele>4.8</ele>
        <time>2020-06-03T10:33:59Z</time>
      </trkpt>
      <trkpt lat="46.44193" lon="-1.60656">
        <ele>4.9</ele>
        <time>2020-06-03T10:34:00Z</time>
      </trkpt>
      <trkpt lat="46.44195" lon="-1.60661">
        <ele>5</ele>
        <time>2020-06-03T10:34:01Z</time>
      </trkpt>
      <trkpt lat="46.44196" lon="-1.60667">
        <ele>5.1</ele>
        <time>2020-06-03T10:34:02Z</time>
      </trkpt>
      <trkpt lat="46.44197" lon="-1.60675">
        <ele>5.2</ele>
        <time>2020-06-03T10:34:03Z</time>
      </trkpt>
      <trkpt lat="46.44198" lon="-1.60681">
        <ele>5.3</ele>
        <time>2020-06-03T10:34:04Z</time>
      </trkpt>
      <trkpt lat="46.44197" lon="-1.60688">
        <ele>5.5</ele>
        <time>2020-06-03T10:34:05Z</time>
      </trkpt>
      <trkpt lat="46.44196" lon="-1.60695">
        <ele>5.6</ele>
        <time>2020-06-03T10:34:06Z</time>
      </trkpt>
      <trkpt lat="46.44196" lon="-1.60702">
        <ele>5.7</ele>
        <time>2020-06-03T10:34:07Z</time>
      </trkpt>
      <trkpt lat="46.44196" lon="-1.60709">
        <ele>5.8</ele>
        <time>2020-06-03T10:34:08Z</time>
      </trkpt>
      <trkpt lat="46.44194" lon="-1.60715">
        <ele>5.9</ele>
        <time>2020-06-03T10:34:09Z</time>
      </trkpt>
      <trkpt lat="46.44193" lon="-1.60721">
        <ele>6</ele>
        <time>2020-06-03T10:34:10Z</time>
      </trkpt>
      <trkpt lat="46.44191" lon="-1.60728">
        <ele>6.1</ele>
        <time>2020-06-03T10:34:11Z</time>
      </trkpt>
      <trkpt lat="46.4419" lon="-1.60734">
        <ele>6.2</ele>
        <time>2020-06-03T10:34:12Z</time>
      </trkpt>
      <trkpt lat="46.44189" lon="-1.60741">
        <ele>6.3</ele>
        <time>2020-06-03T10:34:13Z</time>
      </trkpt>
      <trkpt lat="46.44188" lon="-1.60747">
        <ele>6.4</ele>
        <time>2020-06-03T10:34:14Z</time>
      </trkpt>
      <trkpt lat="46.44187" lon="-1.60753">
        <ele>6.5</ele>
        <time>2020-06-03T10:34:15Z</time>
      </trkpt>
      <trkpt lat="46.44186" lon="-1.6076">
        <ele>6.5</ele>
        <time>2020-06-03T10:34:16Z</time>
      </trkpt>
      <trkpt lat="46.44185" lon="-1.60766">
        <ele>6.6</ele>
        <time>2020-06-03T10:34:17Z</time>
      </trkpt>
      <trkpt lat="46.44183" lon="-1.60773">
        <ele>6.6</ele>
        <time>2020-06-03T10:34:18Z</time>
      </trkpt>
      <trkpt lat="46.44182" lon="-1.60779">
        <ele>6.7</ele>
        <time>2020-06-03T10:34:19Z</time>
      </trkpt>
      <trkpt lat="46.44181" lon="-1.60786">
        <ele>6.7</ele>
        <time>2020-06-03T10:34:20Z</time>
      </trkpt>
      <trkpt lat="46.44181" lon="-1.60793">
        <ele>6.7</ele>
        <time>2020-06-03T10:34:21Z</time>
      </trkpt>
      <trkpt lat="46.4418" lon="-1.60799">
        <ele>6.7</ele>
        <time>2020-06-03T10:34:22Z</time>
      </trkpt>
      <trkpt lat="46.44179" lon="-1.60806">
        <ele>6.7</ele>
        <time>2020-06-03T10:34:23Z</time>
      </trkpt>
      <trkpt lat="46.44178" lon="-1.60813">
        <ele>6.7</ele>
        <time>2020-06-03T10:34:24Z</time>
      </trkpt>
      <trkpt lat="46.44177" lon="-1.6082">
        <ele>6.7</ele>
        <time>2020-06-03T10:34:25Z</time>
      </trkpt>
      <trkpt lat="46.44176" lon="-1.60827">
        <ele>6.7</ele>
        <time>2020-06-03T10:34:26Z</time>
      </trkpt>
      <trkpt lat="46.44174" lon="-1.60835">
        <ele>6.7</ele>
        <time>2020-06-03T10:34:27Z</time>
      </trkpt>
      <trkpt lat="46.44173" lon="-1.60841">
        <ele>6.7</ele>
        <time>2020-06-03T10:34:28Z</time>
      </trkpt>
      <trkpt lat="46.44172" lon="-1.60846">
        <ele>6.7</ele>
        <time>2020-06-03T10:34:29Z</time>
      </trkpt>
      <trkpt lat="46.44171" lon="-1.60853">
        <ele>6.7</ele>
        <time>2020-06-03T10:34:30Z</time>
      </trkpt>
      <trkpt lat="46.4417" lon="-1.6086">
        <ele>6.7</ele>
        <time>2020-06-03T10:34:31Z</time>
      </trkpt>
      <trkpt lat="46.44169" lon="-1.60867">
        <ele>6.6</ele>
        <time>2020-06-03T10:34:32Z</time>
      </trkpt>
      <trkpt lat="46.44168" lon="-1.60873">
        <ele>6.6</ele>
        <time>2020-06-03T10:34:33Z</time>
      </trkpt>
      <trkpt lat="46.44167" lon="-1.6088">
        <ele>6.5</ele>
        <time>2020-06-03T10:34:34Z</time>
      </trkpt>
      <trkpt lat="46.44167" lon="-1.60887">
        <ele>6.4</ele>
        <time>2020-06-03T10:34:35Z</time>
      </trkpt>
      <trkpt lat="46.44166" lon="-1.60895">
        <ele>6.3</ele>
        <time>2020-06-03T10:34:36Z</time>
      </trkpt>
      <trkpt lat="46.44166" lon="-1.60903">
        <ele>6.3</ele>
        <time>2020-06-03T10:34:37Z</time>
      </trkpt>
      <trkpt lat="46.44166" lon="-1.60909">
        <ele>6.2</ele>
        <time>2020-06-03T10:34:38Z</time>
      </trkpt>
      <trkpt lat="46.44166" lon="-1.60915">
        <ele>6.1</ele>
        <time>2020-06-03T10:34:39Z</time>
      </trkpt>
      <trkpt lat="46.44166" lon="-1.60922">
        <ele>6</ele>
        <time>2020-06-03T10:34:40Z</time>
      </trkpt>
      <trkpt lat="46.44168" lon="-1.60928">
        <ele>5.9</ele>
        <time>2020-06-03T10:34:41Z</time>
      </trkpt>
      <trkpt lat="46.44169" lon="-1.60935">
        <ele>5.8</ele>
        <time>2020-06-03T10:34:42Z</time>
      </trkpt>
      <trkpt lat="46.4417" lon="-1.60943">
        <ele>5.7</ele>
        <time>2020-06-03T10:34:43Z</time>
      </trkpt>
      <trkpt lat="46.44171" lon="-1.6095">
        <ele>5.5</ele>
        <time>2020-06-03T10:34:44Z</time>
      </trkpt>
      <trkpt lat="46.44172" lon="-1.60957">
        <ele>5.4</ele>
        <time>2020-06-03T10:34:45Z</time>
      </trkpt>
      <trkpt lat="46.44173" lon="-1.60964">
        <ele>5.3</ele>
        <time>2020-06-03T10:34:46Z</time>
      </trkpt>
      <trkpt lat="46.44175" lon="-1.60971">
        <ele>5.1</ele>
        <time>2020-06-03T10:34:47Z</time>
      </trkpt>
      <trkpt lat="46.44176" lon="-1.60978">
        <ele>5</ele>
        <time>2020-06-03T10:34:48Z</time>
      </trkpt>
      <trkpt lat="46.44177" lon="-1.60984">
        <ele>4.9</ele>
        <time>2020-06-03T10:34:49Z</time>
      </trkpt>
      <trkpt lat="46.44178" lon="-1.6099">
        <ele>4.8</ele>
        <time>2020-06-03T10:34:50Z</time>
      </trkpt>
      <trkpt lat="46.44179" lon="-1.60997">
        <ele>4.7</ele>
        <time>2020-06-03T10:34:51Z</time>
      </trkpt>
      <trkpt lat="46.44179" lon="-1.61003">
        <ele>4.6</ele>
        <time>2020-06-03T10:34:52Z</time>
      </trkpt>
      <trkpt lat="46.4418" lon="-1.6101">
        <ele>4.5</ele>
        <time>2020-06-03T10:34:53Z</time>
      </trkpt>
      <trkpt lat="46.44182" lon="-1.61017">
        <ele>4.4</ele>
        <time>2020-06-03T10:34:54Z</time>
      </trkpt>
      <trkpt lat="46.44183" lon="-1.61024">
        <ele>4.3</ele>
        <time>2020-06-03T10:34:55Z</time>
      </trkpt>
      <trkpt lat="46.44184" lon="-1.61032">
        <ele>4.2</ele>
        <time>2020-06-03T10:34:56Z</time>
      </trkpt>
      <trkpt lat="46.44185" lon="-1.61038">
        <ele>4.1</ele>
        <time>2020-06-03T10:34:57Z</time>
      </trkpt>
      <trkpt lat="46.44186" lon="-1.61046">
        <ele>4</ele>
        <time>2020-06-03T10:34:58Z</time>
      </trkpt>
      <trkpt lat="46.44187" lon="-1.61054">
        <ele>4</ele>
        <time>2020-06-03T10:34:59Z</time>
      </trkpt>
      <trkpt lat="46.44188" lon="-1.61061">
        <ele>3.9</ele>
        <time>2020-06-03T10:35:00Z</time>
      </trkpt>
      <trkpt lat="46.4419" lon="-1.61068">
        <ele>3.9</ele>
        <time>2020-06-03T10:35:01Z</time>
      </trkpt>
      <trkpt lat="46.44191" lon="-1.61076">
        <ele>3.8</ele>
        <time>2020-06-03T10:35:02Z</time>
      </trkpt>
      <trkpt lat="46.44192" lon="-1.61083">
        <ele>3.7</ele>
        <time>2020-06-03T10:35:03Z</time>
      </trkpt>
      <trkpt lat="46.44193" lon="-1.61091">
        <ele>3.7</ele>
        <time>2020-06-03T10:35:04Z</time>
      </trkpt>
      <trkpt lat="46.44194" lon="-1.61098">
        <ele>3.6</ele>
        <time>2020-06-03T10:35:05Z</time>
      </trkpt>
      <trkpt lat="46.44195" lon="-1.61105">
        <ele>3.6</ele>
        <time>2020-06-03T10:35:06Z</time>
      </trkpt>
      <trkpt lat="46.44195" lon="-1.61112">
        <ele>3.5</ele>
        <time>2020-06-03T10:35:07Z</time>
      </trkpt>
      <trkpt lat="46.44195" lon="-1.61121">
        <ele>3.5</ele>
        <time>2020-06-03T10:35:08Z</time>
      </trkpt>
      <trkpt lat="46.44196" lon="-1.61126">
        <ele>3.5</ele>
        <time>2020-06-03T10:35:09Z</time>
      </trkpt>
      <trkpt lat="46.44197" lon="-1.61133">
        <ele>3.5</ele>
        <time>2020-06-03T10:35:10Z</time>
      </trkpt>
      <trkpt lat="46.44198" lon="-1.61141">
        <ele>3.5</ele>
        <time>2020-06-03T10:35:11Z</time>
      </trkpt>
      <trkpt lat="46.44198" lon="-1.61149">
        <ele>3.5</ele>
        <time>2020-06-03T10:35:12Z</time>
      </trkpt>
      <trkpt lat="46.44198" lon="-1.61156">
        <ele>3.5</ele>
        <time>2020-06-03T10:35:13Z</time>
      </trkpt>
      <trkpt lat="46.44198" lon="-1.61162">
        <ele>3.5</ele>
        <time>2020-06-03T10:35:14Z</time>
      </trkpt>
      <trkpt lat="46.44197" lon="-1.6117">
        <ele>3.5</ele>
        <time>2020-06-03T10:35:15Z</time>
      </trkpt>
      <trkpt lat="46.44196" lon="-1.61178">
        <ele>3.5</ele>
        <time>2020-06-03T10:35:16Z</time>
      </trkpt>
      <trkpt lat="46.44194" lon="-1.61186">
        <ele>3.5</ele>
        <time>2020-06-03T10:35:17Z</time>
      </trkpt>
      <trkpt lat="46.44192" lon="-1.61194">
        <ele>3.5</ele>
        <time>2020-06-03T10:35:18Z</time>
      </trkpt>
      <trkpt lat="46.44188" lon="-1.612">
        <ele>3.5</ele>
        <time>2020-06-03T10:35:19Z</time>
      </trkpt>
      <trkpt lat="46.44184" lon="-1.61206">
        <ele>3.6</ele>
        <time>2020-06-03T10:35:20Z</time>
      </trkpt>
      <trkpt lat="46.44178" lon="-1.6121">
        <ele>3.6</ele>
        <time>2020-06-03T10:35:21Z</time>
      </trkpt>
      <trkpt lat="46.44174" lon="-1.61215">
        <ele>3.6</ele>
        <time>2020-06-03T10:35:22Z</time>
      </trkpt>
      <trkpt lat="46.44169" lon="-1.61219">
        <ele>3.6</ele>
        <time>2020-06-03T10:35:23Z</time>
      </trkpt>
      <trkpt lat="46.44164" lon="-1.61223">
        <ele>3.6</ele>
        <time>2020-06-03T10:35:24Z</time>
      </trkpt>
      <trkpt lat="46.44159" lon="-1.61227">
        <ele>3.6</ele>
        <time>2020-06-03T10:35:25Z</time>
      </trkpt>
      <trkpt lat="46.44154" lon="-1.61231">
        <ele>3.6</ele>
        <time>2020-06-03T10:35:26Z</time>
      </trkpt>
      <trkpt lat="46.44149" lon="-1.61235">
        <ele>3.7</ele>
        <time>2020-06-03T10:35:27Z</time>
      </trkpt>
      <trkpt lat="46.44145" lon="-1.61239">
        <ele>3.7</ele>
        <time>2020-06-03T10:35:28Z</time>
      </trkpt>
      <trkpt lat="46.44139" lon="-1.61244">
        <ele>3.7</ele>
        <time>2020-06-03T10:35:29Z</time>
      </trkpt>
      <trkpt lat="46.44137" lon="-1.61248">
        <ele>3.7</ele>
        <time>2020-06-03T10:35:30Z</time>
      </trkpt>
      <trkpt lat="46.44134" lon="-1.61254">
        <ele>3.7</ele>
        <time>2020-06-03T10:35:31Z</time>
      </trkpt>
      <trkpt lat="46.44131" lon="-1.61262">
        <ele>3.7</ele>
        <time>2020-06-03T10:35:32Z</time>
      </trkpt>
      <trkpt lat="46.44128" lon="-1.6127">
        <ele>3.7</ele>
        <time>2020-06-03T10:35:33Z</time>
      </trkpt>
      <trkpt lat="46.44126" lon="-1.61277">
        <ele>3.8</ele>
        <time>2020-06-03T10:35:34Z</time>
      </trkpt>
      <trkpt lat="46.44124" lon="-1.61285">
        <ele>3.8</ele>
        <time>2020-06-03T10:35:35Z</time>
      </trkpt>
      <trkpt lat="46.44123" lon="-1.61294">
        <ele>3.8</ele>
        <time>2020-06-03T10:35:36Z</time>
      </trkpt>
      <trkpt lat="46.44122" lon="-1.61301">
        <ele>3.8</ele>
        <time>2020-06-03T10:35:37Z</time>
      </trkpt>
      <trkpt lat="46.4412" lon="-1.61309">
        <ele>3.8</ele>
        <time>2020-06-03T10:35:38Z</time>
      </trkpt>
      <trkpt lat="46.44119" lon="-1.61317">
        <ele>3.8</ele>
        <time>2020-06-03T10:35:39Z</time>
      </trkpt>
      <trkpt lat="46.44118" lon="-1.61324">
        <ele>3.8</ele>
        <time>2020-06-03T10:35:40Z</time>
      </trkpt>
      <trkpt lat="46.44117" lon="-1.61332">
        <ele>3.9</ele>
        <time>2020-06-03T10:35:41Z</time>
      </trkpt>
      <trkpt lat="46.44117" lon="-1.6134">
        <ele>3.9</ele>
        <time>2020-06-03T10:35:42Z</time>
      </trkpt>
      <trkpt lat="46.44117" lon="-1.61347">
        <ele>3.9</ele>
        <time>2020-06-03T10:35:43Z</time>
      </trkpt>
      <trkpt lat="46.44117" lon="-1.61353">
        <ele>3.9</ele>
        <time>2020-06-03T10:35:44Z</time>
      </trkpt>
      <trkpt lat="46.44118" lon="-1.61359">
        <ele>3.9</ele>
        <time>2020-06-03T10:35:45Z</time>
      </trkpt>
      <trkpt lat="46.4412" lon="-1.61367">
        <ele>3.9</ele>
        <time>2020-06-03T10:35:46Z</time>
      </trkpt>
      <trkpt lat="46.44121" lon="-1.61372">
        <ele>3.9</ele>
        <time>2020-06-03T10:35:47Z</time>
      </trkpt>
      <trkpt lat="46.44124" lon="-1.61379">
        <ele>3.9</ele>
        <time>2020-06-03T10:35:48Z</time>
      </trkpt>
      <trkpt lat="46.44126" lon="-1.61385">
        <ele>3.9</ele>
        <time>2020-06-03T10:35:49Z</time>
      </trkpt>
      <trkpt lat="46.44131" lon="-1.61393">
        <ele>4</ele>
        <time>2020-06-03T10:35:50Z</time>
      </trkpt>
      <trkpt lat="46.44134" lon="-1.61401">
        <ele>4</ele>
        <time>2020-06-03T10:35:51Z</time>
      </trkpt>
      <trkpt lat="46.44136" lon="-1.61407">
        <ele>4</ele>
        <time>2020-06-03T10:35:52Z</time>
      </trkpt>
      <trkpt lat="46.44139" lon="-1.61413">
        <ele>4</ele>
        <time>2020-06-03T10:35:53Z</time>
      </trkpt>
      <trkpt lat="46.44141" lon="-1.6142">
        <ele>4</ele>
        <time>2020-06-03T10:35:54Z</time>
      </trkpt>
      <trkpt lat="46.44143" lon="-1.61426">
        <ele>4</ele>
        <time>2020-06-03T10:35:55Z</time>
      </trkpt>
      <trkpt lat="46.44145" lon="-1.61432">
        <ele>4</ele>
        <time>2020-06-03T10:35:56Z</time>
      </trkpt>
      <trkpt lat="46.44148" lon="-1.61439">
        <ele>4</ele>
        <time>2020-06-03T10:35:57Z</time>
      </trkpt>
      <trkpt lat="46.4415" lon="-1.61446">
        <ele>4</ele>
        <time>2020-06-03T10:35:58Z</time>
      </trkpt>
      <trkpt lat="46.44153" lon="-1.61453">
        <ele>4.1</ele>
        <time>2020-06-03T10:35:59Z</time>
      </trkpt>
      <trkpt lat="46.44155" lon="-1.6146">
        <ele>4.1</ele>
        <time>2020-06-03T10:36:00Z</time>
      </trkpt>
      <trkpt lat="46.44157" lon="-1.61466">
        <ele>4.1</ele>
        <time>2020-06-03T10:36:01Z</time>
      </trkpt>
      <trkpt lat="46.4416" lon="-1.61472">
        <ele>4.1</ele>
        <time>2020-06-03T10:36:02Z</time>
      </trkpt>
      <trkpt lat="46.44162" lon="-1.61479">
        <ele>4.1</ele>
        <time>2020-06-03T10:36:03Z</time>
      </trkpt>
      <trkpt lat="46.44164" lon="-1.61485">
        <ele>4.2</ele>
        <time>2020-06-03T10:36:04Z</time>
      </trkpt>
      <trkpt lat="46.44166" lon="-1.61492">
        <ele>4.2</ele>
        <time>2020-06-03T10:36:05Z</time>
      </trkpt>
      <trkpt lat="46.44167" lon="-1.61498">
        <ele>4.2</ele>
        <time>2020-06-03T10:36:06Z</time>
      </trkpt>
      <trkpt lat="46.44168" lon="-1.61505">
        <ele>4.2</ele>
        <time>2020-06-03T10:36:07Z</time>
      </trkpt>
      <trkpt lat="46.44168" lon="-1.61512">
        <ele>4.2</ele>
        <time>2020-06-03T10:36:08Z</time>
      </trkpt>
      <trkpt lat="46.44169" lon="-1.61517">
        <ele>4.3</ele>
        <time>2020-06-03T10:36:09Z</time>
      </trkpt>
      <trkpt lat="46.4417" lon="-1.61523">
        <ele>4.3</ele>
        <time>2020-06-03T10:36:10Z</time>
      </trkpt>
      <trkpt lat="46.4417" lon="-1.61528">
        <ele>4.3</ele>
        <time>2020-06-03T10:36:11Z</time>
      </trkpt>
      <trkpt lat="46.4417" lon="-1.61535">
        <ele>4.3</ele>
        <time>2020-06-03T10:36:12Z</time>
      </trkpt>
      <trkpt lat="46.4417" lon="-1.61541">
        <ele>4.3</ele>
        <time>2020-06-03T10:36:13Z</time>
      </trkpt>
      <trkpt lat="46.4417" lon="-1.61547">
        <ele>4.3</ele>
        <time>2020-06-03T10:36:14Z</time>
      </trkpt>
      <trkpt lat="46.4417" lon="-1.61554">
        <ele>4.4</ele>
        <time>2020-06-03T10:36:15Z</time>
      </trkpt>
      <trkpt lat="46.4417" lon="-1.6156">
        <ele>4.5</ele>
        <time>2020-06-03T10:36:16Z</time>
      </trkpt>
      <trkpt lat="46.44169" lon="-1.61568">
        <ele>4.6</ele>
        <time>2020-06-03T10:36:17Z</time>
      </trkpt>
      <trkpt lat="46.44169" lon="-1.61575">
        <ele>4.7</ele>
        <time>2020-06-03T10:36:18Z</time>
      </trkpt>
      <trkpt lat="46.44168" lon="-1.61582">
        <ele>4.8</ele>
        <time>2020-06-03T10:36:19Z</time>
      </trkpt>
      <trkpt lat="46.44167" lon="-1.6159">
        <ele>4.9</ele>
        <time>2020-06-03T10:36:20Z</time>
      </trkpt>
      <trkpt lat="46.44165" lon="-1.61597">
        <ele>4.9</ele>
        <time>2020-06-03T10:36:21Z</time>
      </trkpt>
      <trkpt lat="46.44164" lon="-1.61604">
        <ele>5</ele>
        <time>2020-06-03T10:36:22Z</time>
      </trkpt>
      <trkpt lat="46.44163" lon="-1.61612">
        <ele>5</ele>
        <time>2020-06-03T10:36:23Z</time>
      </trkpt>
      <trkpt lat="46.44162" lon="-1.61619">
        <ele>5.1</ele>
        <time>2020-06-03T10:36:24Z</time>
      </trkpt>
      <trkpt lat="46.4416" lon="-1.61627">
        <ele>5.1</ele>
        <time>2020-06-03T10:36:25Z</time>
      </trkpt>
      <trkpt lat="46.44159" lon="-1.61634">
        <ele>5.1</ele>
        <time>2020-06-03T10:36:26Z</time>
      </trkpt>
      <trkpt lat="46.44157" lon="-1.61642">
        <ele>5</ele>
        <time>2020-06-03T10:36:27Z</time>
      </trkpt>
      <trkpt lat="46.44156" lon="-1.6165">
        <ele>5</ele>
        <time>2020-06-03T10:36:28Z</time>
      </trkpt>
      <trkpt lat="46.44154" lon="-1.61658">
        <ele>4.9</ele>
        <time>2020-06-03T10:36:29Z</time>
      </trkpt>
      <trkpt lat="46.44152" lon="-1.61666">
        <ele>4.9</ele>
        <time>2020-06-03T10:36:30Z</time>
      </trkpt>
      <trkpt lat="46.44151" lon="-1.61674">
        <ele>4.8</ele>
        <time>2020-06-03T10:36:31Z</time>
      </trkpt>
      <trkpt lat="46.44149" lon="-1.61681">
        <ele>4.8</ele>
        <time>2020-06-03T10:36:32Z</time>
      </trkpt>
      <trkpt lat="46.44147" lon="-1.61689">
        <ele>4.7</ele>
        <time>2020-06-03T10:36:33Z</time>
      </trkpt>
      <trkpt lat="46.44146" lon="-1.61696">
        <ele>4.6</ele>
        <time>2020-06-03T10:36:34Z</time>
      </trkpt>
      <trkpt lat="46.44144" lon="-1.61704">
        <ele>4.6</ele>
        <time>2020-06-03T10:36:35Z</time>
      </trkpt>
      <trkpt lat="46.44142" lon="-1.61712">
        <ele>4.5</ele>
        <time>2020-06-03T10:36:36Z</time>
      </trkpt>
      <trkpt lat="46.4414" lon="-1.61718">
        <ele>4.4</ele>
        <time>2020-06-03T10:36:37Z</time>
      </trkpt>
      <trkpt lat="46.44138" lon="-1.61726">
        <ele>4.3</ele>
        <time>2020-06-03T10:36:38Z</time>
      </trkpt>
      <trkpt lat="46.44136" lon="-1.61735">
        <ele>4.2</ele>
        <time>2020-06-03T10:36:39Z</time>
      </trkpt>
      <trkpt lat="46.44135" lon="-1.61744">
        <ele>4.1</ele>
        <time>2020-06-03T10:36:40Z</time>
      </trkpt>
      <trkpt lat="46.44134" lon="-1.61752">
        <ele>4.1</ele>
        <time>2020-06-03T10:36:41Z</time>
      </trkpt>
      <trkpt lat="46.44133" lon="-1.61759">
        <ele>4</ele>
        <time>2020-06-03T10:36:42Z</time>
      </trkpt>
      <trkpt lat="46.44132" lon="-1.61766">
        <ele>3.9</ele>
        <time>2020-06-03T10:36:43Z</time>
      </trkpt>
      <trkpt lat="46.44131" lon="-1.61772">
        <ele>3.9</ele>
        <time>2020-06-03T10:36:44Z</time>
      </trkpt>
      <trkpt lat="46.4413" lon="-1.6178">
        <ele>3.8</ele>
        <time>2020-06-03T10:36:45Z</time>
      </trkpt>
      <trkpt lat="46.44129" lon="-1.61787">
        <ele>3.7</ele>
        <time>2020-06-03T10:36:46Z</time>
      </trkpt>
      <trkpt lat="46.44128" lon="-1.61795">
        <ele>3.7</ele>
        <time>2020-06-03T10:36:47Z</time>
      </trkpt>
      <trkpt lat="46.44127" lon="-1.61803">
        <ele>3.6</ele>
        <time>2020-06-03T10:36:48Z</time>
      </trkpt>
      <trkpt lat="46.44126" lon="-1.61811">
        <ele>3.5</ele>
        <time>2020-06-03T10:36:49Z</time>
      </trkpt>
      <trkpt lat="46.44124" lon="-1.61818">
        <ele>3.5</ele>
        <time>2020-06-03T10:36:50Z</time>
      </trkpt>
      <trkpt lat="46.44122" lon="-1.61826">
        <ele>3.4</ele>
        <time>2020-06-03T10:36:51Z</time>
      </trkpt>
      <trkpt lat="46.44121" lon="-1.61834">
        <ele>3.4</ele>
        <time>2020-06-03T10:36:52Z</time>
      </trkpt>
      <trkpt lat="46.44119" lon="-1.61841">
        <ele>3.3</ele>
        <time>2020-06-03T10:36:53Z</time>
      </trkpt>
      <trkpt lat="46.44117" lon="-1.6185">
        <ele>3.3</ele>
        <time>2020-06-03T10:36:54Z</time>
      </trkpt>
      <trkpt lat="46.44116" lon="-1.61857">
        <ele>3.3</ele>
        <time>2020-06-03T10:36:55Z</time>
      </trkpt>
      <trkpt lat="46.44114" lon="-1.61865">
        <ele>3.2</ele>
        <time>2020-06-03T10:36:56Z</time>
      </trkpt>
      <trkpt lat="46.44113" lon="-1.61873">
        <ele>3.2</ele>
        <time>2020-06-03T10:36:57Z</time>
      </trkpt>
      <trkpt lat="46.44112" lon="-1.6188">
        <ele>3.2</ele>
        <time>2020-06-03T10:36:58Z</time>
      </trkpt>
      <trkpt lat="46.44111" lon="-1.61887">
        <ele>3.2</ele>
        <time>2020-06-03T10:36:59Z</time>
      </trkpt>
      <trkpt lat="46.4411" lon="-1.61895">
        <ele>3.2</ele>
        <time>2020-06-03T10:37:00Z</time>
      </trkpt>
      <trkpt lat="46.44108" lon="-1.61904">
        <ele>3.2</ele>
        <time>2020-06-03T10:37:01Z</time>
      </trkpt>
      <trkpt lat="46.44107" lon="-1.61912">
        <ele>3.2</ele>
        <time>2020-06-03T10:37:02Z</time>
      </trkpt>
      <trkpt lat="46.44105" lon="-1.6192">
        <ele>3.2</ele>
        <time>2020-06-03T10:37:03Z</time>
      </trkpt>
      <trkpt lat="46.44104" lon="-1.61927">
        <ele>3.2</ele>
        <time>2020-06-03T10:37:04Z</time>
      </trkpt>
      <trkpt lat="46.44102" lon="-1.61935">
        <ele>3.2</ele>
        <time>2020-06-03T10:37:05Z</time>
      </trkpt>
      <trkpt lat="46.44101" lon="-1.61942">
        <ele>3.2</ele>
        <time>2020-06-03T10:37:06Z</time>
      </trkpt>
      <trkpt lat="46.44099" lon="-1.61949">
        <ele>3.2</ele>
        <time>2020-06-03T10:37:07Z</time>
      </trkpt>
      <trkpt lat="46.44097" lon="-1.61957">
        <ele>3.2</ele>
        <time>2020-06-03T10:37:08Z</time>
      </trkpt>
      <trkpt lat="46.44096" lon="-1.61965">
        <ele>3.2</ele>
        <time>2020-06-03T10:37:09Z</time>
      </trkpt>
      <trkpt lat="46.44095" lon="-1.61972">
        <ele>3.2</ele>
        <time>2020-06-03T10:37:10Z</time>
      </trkpt>
      <trkpt lat="46.44094" lon="-1.61981">
        <ele>3.2</ele>
        <time>2020-06-03T10:37:11Z</time>
      </trkpt>
      <trkpt lat="46.44093" lon="-1.61989">
        <ele>3.3</ele>
        <time>2020-06-03T10:37:12Z</time>
      </trkpt>
      <trkpt lat="46.44092" lon="-1.61997">
        <ele>3.3</ele>
        <time>2020-06-03T10:37:13Z</time>
      </trkpt>
      <trkpt lat="46.44091" lon="-1.62006">
        <ele>3.3</ele>
        <time>2020-06-03T10:37:14Z</time>
      </trkpt>
      <trkpt lat="46.44091" lon="-1.62013">
        <ele>3.3</ele>
        <time>2020-06-03T10:37:15Z</time>
      </trkpt>
      <trkpt lat="46.44092" lon="-1.62021">
        <ele>3.4</ele>
        <time>2020-06-03T10:37:16Z</time>
      </trkpt>
      <trkpt lat="46.44093" lon="-1.62028">
        <ele>3.4</ele>
        <time>2020-06-03T10:37:17Z</time>
      </trkpt>
      <trkpt lat="46.44095" lon="-1.62035">
        <ele>3.5</ele>
        <time>2020-06-03T10:37:18Z</time>
      </trkpt>
      <trkpt lat="46.44097" lon="-1.62042">
        <ele>3.5</ele>
        <time>2020-06-03T10:37:19Z</time>
      </trkpt>
      <trkpt lat="46.44099" lon="-1.6205">
        <ele>3.6</ele>
        <time>2020-06-03T10:37:20Z</time>
      </trkpt>
      <trkpt lat="46.44101" lon="-1.62058">
        <ele>3.7</ele>
        <time>2020-06-03T10:37:21Z</time>
      </trkpt>
      <trkpt lat="46.44103" lon="-1.62065">
        <ele>3.7</ele>
        <time>2020-06-03T10:37:22Z</time>
      </trkpt>
      <trkpt lat="46.44105" lon="-1.62072">
        <ele>3.8</ele>
        <time>2020-06-03T10:37:23Z</time>
      </trkpt>
      <trkpt lat="46.44108" lon="-1.62079">
        <ele>3.8</ele>
        <time>2020-06-03T10:37:24Z</time>
      </trkpt>
      <trkpt lat="46.44111" lon="-1.62086">
        <ele>3.9</ele>
        <time>2020-06-03T10:37:25Z</time>
      </trkpt>
      <trkpt lat="46.44113" lon="-1.62092">
        <ele>3.9</ele>
        <time>2020-06-03T10:37:26Z</time>
      </trkpt>
      <trkpt lat="46.44116" lon="-1.62098">
        <ele>4</ele>
        <time>2020-06-03T10:37:27Z</time>
      </trkpt>
      <trkpt lat="46.44118" lon="-1.62104">
        <ele>4</ele>
        <time>2020-06-03T10:37:28Z</time>
      </trkpt>
      <trkpt lat="46.44119" lon="-1.6211">
        <ele>4</ele>
        <time>2020-06-03T10:37:29Z</time>
      </trkpt>
      <trkpt lat="46.44121" lon="-1.62115">
        <ele>4.1</ele>
        <time>2020-06-03T10:37:30Z</time>
      </trkpt>
      <trkpt lat="46.44123" lon="-1.62121">
        <ele>4.1</ele>
        <time>2020-06-03T10:37:31Z</time>
      </trkpt>
      <trkpt lat="46.44125" lon="-1.62128">
        <ele>4.1</ele>
        <time>2020-06-03T10:37:32Z</time>
      </trkpt>
      <trkpt lat="46.44127" lon="-1.62134">
        <ele>4.2</ele>
        <time>2020-06-03T10:37:33Z</time>
      </trkpt>
      <trkpt lat="46.44129" lon="-1.6214">
        <ele>4.2</ele>
        <time>2020-06-03T10:37:34Z</time>
      </trkpt>
      <trkpt lat="46.4413" lon="-1.62146">
        <ele>4.2</ele>
        <time>2020-06-03T10:37:35Z</time>
      </trkpt>
      <trkpt lat="46.44132" lon="-1.62153">
        <ele>4.2</ele>
        <time>2020-06-03T10:37:36Z</time>
      </trkpt>
      <trkpt lat="46.44134" lon="-1.62159">
        <ele>4.2</ele>
        <time>2020-06-03T10:37:37Z</time>
      </trkpt>
      <trkpt lat="46.44136" lon="-1.62166">
        <ele>4.2</ele>
        <time>2020-06-03T10:37:38Z</time>
      </trkpt>
      <trkpt lat="46.44137" lon="-1.62173">
        <ele>4.2</ele>
        <time>2020-06-03T10:37:39Z</time>
      </trkpt>
      <trkpt lat="46.44139" lon="-1.62179">
        <ele>4.2</ele>
        <time>2020-06-03T10:37:40Z</time>
      </trkpt>
      <trkpt lat="46.44141" lon="-1.62186">
        <ele>4.2</ele>
        <time>2020-06-03T10:37:41Z</time>
      </trkpt>
      <trkpt lat="46.44143" lon="-1.62193">
        <ele>4.1</ele>
        <time>2020-06-03T10:37:42Z</time>
      </trkpt>
      <trkpt lat="46.44145" lon="-1.62199">
        <ele>4.1</ele>
        <time>2020-06-03T10:37:43Z</time>
      </trkpt>
      <trkpt lat="46.44147" lon="-1.62205">
        <ele>4.1</ele>
        <time>2020-06-03T10:37:44Z</time>
      </trkpt>
      <trkpt lat="46.44149" lon="-1.62211">
        <ele>4</ele>
        <time>2020-06-03T10:37:45Z</time>
      </trkpt>
      <trkpt lat="46.4415" lon="-1.62218">
        <ele>4</ele>
        <time>2020-06-03T10:37:46Z</time>
      </trkpt>
      <trkpt lat="46.44152" lon="-1.62225">
        <ele>3.9</ele>
        <time>2020-06-03T10:37:47Z</time>
      </trkpt>
      <trkpt lat="46.44153" lon="-1.62232">
        <ele>3.9</ele>
        <time>2020-06-03T10:37:48Z</time>
      </trkpt>
      <trkpt lat="46.44154" lon="-1.62239">
        <ele>3.9</ele>
        <time>2020-06-03T10:37:49Z</time>
      </trkpt>
      <trkpt lat="46.44155" lon="-1.62246">
        <ele>3.9</ele>
        <time>2020-06-03T10:37:50Z</time>
      </trkpt>
      <trkpt lat="46.44156" lon="-1.62253">
        <ele>3.9</ele>
        <time>2020-06-03T10:37:51Z</time>
      </trkpt>
      <trkpt lat="46.44156" lon="-1.62259">
        <ele>3.9</ele>
        <time>2020-06-03T10:37:52Z</time>
      </trkpt>
      <trkpt lat="46.44158" lon="-1.62266">
        <ele>3.8</ele>
        <time>2020-06-03T10:37:53Z</time>
      </trkpt>
      <trkpt lat="46.4416" lon="-1.62273">
        <ele>3.8</ele>
        <time>2020-06-03T10:37:54Z</time>
      </trkpt>
      <trkpt lat="46.44162" lon="-1.6228">
        <ele>3.7</ele>
        <time>2020-06-03T10:37:55Z</time>
      </trkpt>
      <trkpt lat="46.44163" lon="-1.62287">
        <ele>3.7</ele>
        <time>2020-06-03T10:37:56Z</time>
      </trkpt>
      <trkpt lat="46.44165" lon="-1.62294">
        <ele>3.6</ele>
        <time>2020-06-03T10:37:57Z</time>
      </trkpt>
      <trkpt lat="46.44167" lon="-1.62301">
        <ele>3.6</ele>
        <time>2020-06-03T10:37:58Z</time>
      </trkpt>
      <trkpt lat="46.44169" lon="-1.62307">
        <ele>3.5</ele>
        <time>2020-06-03T10:37:59Z</time>
      </trkpt>
      <trkpt lat="46.44171" lon="-1.62313">
        <ele>3.5</ele>
        <time>2020-06-03T10:38:00Z</time>
      </trkpt>
      <trkpt lat="46.44173" lon="-1.62319">
        <ele>3.5</ele>
        <time>2020-06-03T10:38:01Z</time>
      </trkpt>
      <trkpt lat="46.44176" lon="-1.62325">
        <ele>3.4</ele>
        <time>2020-06-03T10:38:02Z</time>
      </trkpt>
      <trkpt lat="46.44178" lon="-1.62332">
        <ele>3.4</ele>
        <time>2020-06-03T10:38:03Z</time>
      </trkpt>
      <trkpt lat="46.4418" lon="-1.62339">
        <ele>3.4</ele>
        <time>2020-06-03T10:38:04Z</time>
      </trkpt>
      <trkpt lat="46.44182" lon="-1.62346">
        <ele>3.4</ele>
        <time>2020-06-03T10:38:05Z</time>
      </trkpt>
      <trkpt lat="46.44184" lon="-1.62354">
        <ele>3.4</ele>
        <time>2020-06-03T10:38:06Z</time>
      </trkpt>
      <trkpt lat="46.44184" lon="-1.62362">
        <ele>3.5</ele>
        <time>2020-06-03T10:38:07Z</time>
      </trkpt>
      <trkpt lat="46.44185" lon="-1.62371">
        <ele>3.4</ele>
        <time>2020-06-03T10:38:08Z</time>
      </trkpt>
      <trkpt lat="46.44183" lon="-1.62378">
        <ele>3.4</ele>
        <time>2020-06-03T10:38:09Z</time>
      </trkpt>
      <trkpt lat="46.44181" lon="-1.62387">
        <ele>3.4</ele>
        <time>2020-06-03T10:38:10Z</time>
      </trkpt>
      <trkpt lat="46.4418" lon="-1.62395">
        <ele>3.4</ele>
        <time>2020-06-03T10:38:11Z</time>
      </trkpt>
      <trkpt lat="46.44179" lon="-1.62402">
        <ele>3.4</ele>
        <time>2020-06-03T10:38:12Z</time>
      </trkpt>
      <trkpt lat="46.44178" lon="-1.62411">
        <ele>3.4</ele>
        <time>2020-06-03T10:38:13Z</time>
      </trkpt>
      <trkpt lat="46.44177" lon="-1.62419">
        <ele>3.4</ele>
        <time>2020-06-03T10:38:14Z</time>
      </trkpt>
      <trkpt lat="46.44176" lon="-1.62427">
        <ele>3.4</ele>
        <time>2020-06-03T10:38:15Z</time>
      </trkpt>
      <trkpt lat="46.44175" lon="-1.62435">
        <ele>3.4</ele>
        <time>2020-06-03T10:38:16Z</time>
      </trkpt>
      <trkpt lat="46.44174" lon="-1.62443">
        <ele>3.4</ele>
        <time>2020-06-03T10:38:17Z</time>
      </trkpt>
      <trkpt lat="46.44174" lon="-1.62451">
        <ele>3.4</ele>
        <time>2020-06-03T10:38:18Z</time>
      </trkpt>
      <trkpt lat="46.44172" lon="-1.62458">
        <ele>3.4</ele>
        <time>2020-06-03T10:38:19Z</time>
      </trkpt>
      <trkpt lat="46.4417" lon="-1.62467">
        <ele>3.3</ele>
        <time>2020-06-03T10:38:20Z</time>
      </trkpt>
      <trkpt lat="46.44169" lon="-1.62474">
        <ele>3.3</ele>
        <time>2020-06-03T10:38:21Z</time>
      </trkpt>
      <trkpt lat="46.44169" lon="-1.62481">
        <ele>3.3</ele>
        <time>2020-06-03T10:38:22Z</time>
      </trkpt>
      <trkpt lat="46.44169" lon="-1.62489">
        <ele>3.2</ele>
        <time>2020-06-03T10:38:23Z</time>
      </trkpt>
      <trkpt lat="46.44171" lon="-1.62497">
        <ele>3.2</ele>
        <time>2020-06-03T10:38:24Z</time>
      </trkpt>
      <trkpt lat="46.44172" lon="-1.62504">
        <ele>3.1</ele>
        <time>2020-06-03T10:38:25Z</time>
      </trkpt>
      <trkpt lat="46.44175" lon="-1.62511">
        <ele>3.1</ele>
        <time>2020-06-03T10:38:26Z</time>
      </trkpt>
      <trkpt lat="46.44177" lon="-1.62519">
        <ele>3.1</ele>
        <time>2020-06-03T10:38:27Z</time>
      </trkpt>
      <trkpt lat="46.44181" lon="-1.62526">
        <ele>3.1</ele>
        <time>2020-06-03T10:38:28Z</time>
      </trkpt>
      <trkpt lat="46.44183" lon="-1.62533">
        <ele>3.1</ele>
        <time>2020-06-03T10:38:29Z</time>
      </trkpt>
      <trkpt lat="46.44185" lon="-1.6254">
        <ele>3.2</ele>
        <time>2020-06-03T10:38:30Z</time>
      </trkpt>
      <trkpt lat="46.44188" lon="-1.62547">
        <ele>3.2</ele>
        <time>2020-06-03T10:38:31Z</time>
      </trkpt>
      <trkpt lat="46.44189" lon="-1.62554">
        <ele>3.2</ele>
        <time>2020-06-03T10:38:32Z</time>
      </trkpt>
      <trkpt lat="46.44192" lon="-1.62562">
        <ele>3.2</ele>
        <time>2020-06-03T10:38:33Z</time>
      </trkpt>
      <trkpt lat="46.44194" lon="-1.62569">
        <ele>3.2</ele>
        <time>2020-06-03T10:38:34Z</time>
      </trkpt>
      <trkpt lat="46.44195" lon="-1.62576">
        <ele>3.3</ele>
        <time>2020-06-03T10:38:35Z</time>
      </trkpt>
      <trkpt lat="46.44196" lon="-1.62584">
        <ele>3.3</ele>
        <time>2020-06-03T10:38:36Z</time>
      </trkpt>
      <trkpt lat="46.44197" lon="-1.62591">
        <ele>3.3</ele>
        <time>2020-06-03T10:38:37Z</time>
      </trkpt>
      <trkpt lat="46.44198" lon="-1.62598">
        <ele>3.4</ele>
        <time>2020-06-03T10:38:38Z</time>
      </trkpt>
      <trkpt lat="46.44199" lon="-1.62607">
        <ele>3.4</ele>
        <time>2020-06-03T10:38:39Z</time>
      </trkpt>
      <trkpt lat="46.44201" lon="-1.62614">
        <ele>3.5</ele>
        <time>2020-06-03T10:38:40Z</time>
      </trkpt>
      <trkpt lat="46.44202" lon="-1.62623">
        <ele>3.5</ele>
        <time>2020-06-03T10:38:41Z</time>
      </trkpt>
      <trkpt lat="46.44202" lon="-1.6263">
        <ele>3.6</ele>
        <time>2020-06-03T10:38:42Z</time>
      </trkpt>
      <trkpt lat="46.44203" lon="-1.62638">
        <ele>3.6</ele>
        <time>2020-06-03T10:38:43Z</time>
      </trkpt>
      <trkpt lat="46.44203" lon="-1.62646">
        <ele>3.7</ele>
        <time>2020-06-03T10:38:44Z</time>
      </trkpt>
      <trkpt lat="46.44204" lon="-1.62654">
        <ele>3.7</ele>
        <time>2020-06-03T10:38:45Z</time>
      </trkpt>
      <trkpt lat="46.44205" lon="-1.62662">
        <ele>3.8</ele>
        <time>2020-06-03T10:38:46Z</time>
      </trkpt>
      <trkpt lat="46.44205" lon="-1.6267">
        <ele>3.9</ele>
        <time>2020-06-03T10:38:47Z</time>
      </trkpt>
      <trkpt lat="46.44205" lon="-1.62678">
        <ele>3.9</ele>
        <time>2020-06-03T10:38:48Z</time>
      </trkpt>
      <trkpt lat="46.44206" lon="-1.62686">
        <ele>4</ele>
        <time>2020-06-03T10:38:49Z</time>
      </trkpt>
      <trkpt lat="46.44206" lon="-1.62694">
        <ele>4</ele>
        <time>2020-06-03T10:38:50Z</time>
      </trkpt>
      <trkpt lat="46.44207" lon="-1.627">
        <ele>4.1</ele>
        <time>2020-06-03T10:38:51Z</time>
      </trkpt>
      <trkpt lat="46.44207" lon="-1.62707">
        <ele>4.1</ele>
        <time>2020-06-03T10:38:52Z</time>
      </trkpt>
      <trkpt lat="46.44207" lon="-1.62714">
        <ele>4.1</ele>
        <time>2020-06-03T10:38:53Z</time>
      </trkpt>
      <trkpt lat="46.44208" lon="-1.6272">
        <ele>4.1</ele>
        <time>2020-06-03T10:38:54Z</time>
      </trkpt>
      <trkpt lat="46.44209" lon="-1.62726">
        <ele>4.1</ele>
        <time>2020-06-03T10:38:55Z</time>
      </trkpt>
      <trkpt lat="46.44209" lon="-1.62732">
        <ele>4.1</ele>
        <time>2020-06-03T10:38:56Z</time>
      </trkpt>
      <trkpt lat="46.44209" lon="-1.62737">
        <ele>4.1</ele>
        <time>2020-06-03T10:38:57Z</time>
      </trkpt>
      <trkpt lat="46.44209" lon="-1.62742">
        <ele>4.1</ele>
        <time>2020-06-03T10:38:58Z</time>
      </trkpt>
      <trkpt lat="46.44207" lon="-1.62747">
        <ele>4.1</ele>
        <time>2020-06-03T10:38:59Z</time>
      </trkpt>
      <trkpt lat="46.44205" lon="-1.62749">
        <ele>4.1</ele>
        <time>2020-06-03T10:39:00Z</time>
      </trkpt>
      <trkpt lat="46.44201" lon="-1.62751">
        <ele>4.1</ele>
        <time>2020-06-03T10:39:01Z</time>
      </trkpt>
      <trkpt lat="46.44197" lon="-1.62754">
        <ele>4</ele>
        <time>2020-06-03T10:39:02Z</time>
      </trkpt>
      <trkpt lat="46.44193" lon="-1.62758">
        <ele>4</ele>
        <time>2020-06-03T10:39:03Z</time>
      </trkpt>
      <trkpt lat="46.44189" lon="-1.62762">
        <ele>4</ele>
        <time>2020-06-03T10:39:04Z</time>
      </trkpt>
      <trkpt lat="46.44186" lon="-1.62767">
        <ele>4</ele>
        <time>2020-06-03T10:39:05Z</time>
      </trkpt>
      <trkpt lat="46.44182" lon="-1.62771">
        <ele>3.9</ele>
        <time>2020-06-03T10:39:06Z</time>
      </trkpt>
      <trkpt lat="46.44177" lon="-1.62776">
        <ele>3.9</ele>
        <time>2020-06-03T10:39:07Z</time>
      </trkpt>
      <trkpt lat="46.44173" lon="-1.6278">
        <ele>3.9</ele>
        <time>2020-06-03T10:39:08Z</time>
      </trkpt>
      <trkpt lat="46.44169" lon="-1.62784">
        <ele>3.9</ele>
        <time>2020-06-03T10:39:09Z</time>
      </trkpt>
      <trkpt lat="46.44166" lon="-1.62788">
        <ele>3.8</ele>
        <time>2020-06-03T10:39:10Z</time>
      </trkpt>
      <trkpt lat="46.44162" lon="-1.62793">
        <ele>3.8</ele>
        <time>2020-06-03T10:39:11Z</time>
      </trkpt>
      <trkpt lat="46.44159" lon="-1.62799">
        <ele>3.8</ele>
        <time>2020-06-03T10:39:12Z</time>
      </trkpt>
      <trkpt lat="46.44159" lon="-1.62807">
        <ele>3.7</ele>
        <time>2020-06-03T10:39:13Z</time>
      </trkpt>
      <trkpt lat="46.44159" lon="-1.62815">
        <ele>3.7</ele>
        <time>2020-06-03T10:39:14Z</time>
      </trkpt>
      <trkpt lat="46.4416" lon="-1.62821">
        <ele>3.7</ele>
        <time>2020-06-03T10:39:15Z</time>
      </trkpt>
      <trkpt lat="46.4416" lon="-1.62828">
        <ele>3.6</ele>
        <time>2020-06-03T10:39:16Z</time>
      </trkpt>
      <trkpt lat="46.44161" lon="-1.62836">
        <ele>3.6</ele>
        <time>2020-06-03T10:39:17Z</time>
      </trkpt>
      <trkpt lat="46.44161" lon="-1.62843">
        <ele>3.6</ele>
        <time>2020-06-03T10:39:18Z</time>
      </trkpt>
      <trkpt lat="46.44163" lon="-1.62851">
        <ele>3.6</ele>
        <time>2020-06-03T10:39:19Z</time>
      </trkpt>
      <trkpt lat="46.44165" lon="-1.62858">
        <ele>3.5</ele>
        <time>2020-06-03T10:39:20Z</time>
      </trkpt>
      <trkpt lat="46.44167" lon="-1.62866">
        <ele>3.5</ele>
        <time>2020-06-03T10:39:21Z</time>
      </trkpt>
      <trkpt lat="46.44168" lon="-1.62872">
        <ele>3.5</ele>
        <time>2020-06-03T10:39:22Z</time>
      </trkpt>
      <trkpt lat="46.4417" lon="-1.62879">
        <ele>3.5</ele>
        <time>2020-06-03T10:39:23Z</time>
      </trkpt>
      <trkpt lat="46.44171" lon="-1.62886">
        <ele>3.4</ele>
        <time>2020-06-03T10:39:24Z</time>
      </trkpt>
      <trkpt lat="46.44173" lon="-1.62892">
        <ele>3.4</ele>
        <time>2020-06-03T10:39:25Z</time>
      </trkpt>
      <trkpt lat="46.44175" lon="-1.62897">
        <ele>3.4</ele>
        <time>2020-06-03T10:39:26Z</time>
      </trkpt>
      <trkpt lat="46.44177" lon="-1.62902">
        <ele>3.4</ele>
        <time>2020-06-03T10:39:27Z</time>
      </trkpt>
      <trkpt lat="46.44179" lon="-1.62906">
        <ele>3.4</ele>
        <time>2020-06-03T10:39:28Z</time>
      </trkpt>
      <trkpt lat="46.44179" lon="-1.62909">
        <ele>3.4</ele>
        <time>2020-06-03T10:39:29Z</time>
      </trkpt>
      <trkpt lat="46.4418" lon="-1.6291">
        <ele>3.3</ele>
        <time>2020-06-03T10:39:30Z</time>
      </trkpt>
      <trkpt lat="46.4418" lon="-1.62911">
        <ele>3.3</ele>
        <time>2020-06-03T10:39:31Z</time>
      </trkpt>
      <trkpt lat="46.44179" lon="-1.62915">
        <ele>3.3</ele>
        <time>2020-06-03T10:39:32Z</time>
      </trkpt>
      <trkpt lat="46.44179" lon="-1.6292">
        <ele>3.2</ele>
        <time>2020-06-03T10:39:33Z</time>
      </trkpt>
      <trkpt lat="46.4418" lon="-1.62922">
        <ele>3.2</ele>
        <time>2020-06-03T10:39:34Z</time>
      </trkpt>
      <trkpt lat="46.44182" lon="-1.62926">
        <ele>3.2</ele>
        <time>2020-06-03T10:39:35Z</time>
      </trkpt>
      <trkpt lat="46.44185" lon="-1.62927">
        <ele>3.2</ele>
        <time>2020-06-03T10:39:36Z</time>
      </trkpt>
      <trkpt lat="46.44188" lon="-1.62928">
        <ele>3.2</ele>
        <time>2020-06-03T10:39:37Z</time>
      </trkpt>
      <trkpt lat="46.44193" lon="-1.62929">
        <ele>3.2</ele>
        <time>2020-06-03T10:39:38Z</time>
      </trkpt>
      <trkpt lat="46.44197" lon="-1.62931">
        <ele>3.2</ele>
        <time>2020-06-03T10:39:39Z</time>
      </trkpt>
      <trkpt lat="46.44201" lon="-1.62932">
        <ele>3.2</ele>
        <time>2020-06-03T10:39:40Z</time>
      </trkpt>
      <trkpt lat="46.44205" lon="-1.62931">
        <ele>3.2</ele>
        <time>2020-06-03T10:39:41Z</time>
      </trkpt>
      <trkpt lat="46.44209" lon="-1.62932">
        <ele>3.2</ele>
        <time>2020-06-03T10:39:42Z</time>
      </trkpt>
      <trkpt lat="46.44214" lon="-1.62932">
        <ele>3.2</ele>
        <time>2020-06-03T10:39:43Z</time>
      </trkpt>
      <trkpt lat="46.44218" lon="-1.62933">
        <ele>3.2</ele>
        <time>2020-06-03T10:39:44Z</time>
      </trkpt>
      <trkpt lat="46.44222" lon="-1.62932">
        <ele>3.1</ele>
        <time>2020-06-03T10:39:45Z</time>
      </trkpt>
      <trkpt lat="46.44226" lon="-1.62933">
        <ele>3.1</ele>
        <time>2020-06-03T10:39:46Z</time>
      </trkpt>
      <trkpt lat="46.44231" lon="-1.62934">
        <ele>3.1</ele>
        <time>2020-06-03T10:39:47Z</time>
      </trkpt>
      <trkpt lat="46.44235" lon="-1.62934">
        <ele>3.1</ele>
        <time>2020-06-03T10:39:48Z</time>
      </trkpt>
      <trkpt lat="46.44239" lon="-1.62932">
        <ele>3.1</ele>
        <time>2020-06-03T10:39:49Z</time>
      </trkpt>
      <trkpt lat="46.44243" lon="-1.62932">
        <ele>3.1</ele>
        <time>2020-06-03T10:39:50Z</time>
      </trkpt>
      <trkpt lat="46.44247" lon="-1.62933">
        <ele>3.1</ele>
        <time>2020-06-03T10:39:51Z</time>
      </trkpt>
      <trkpt lat="46.4425" lon="-1.62934">
        <ele>3.1</ele>
        <time>2020-06-03T10:39:52Z</time>
      </trkpt>
      <trkpt lat="46.44252" lon="-1.62935">
        <ele>3.1</ele>
        <time>2020-06-03T10:39:53Z</time>
      </trkpt>
      <trkpt lat="46.44255" lon="-1.62936">
        <ele>3.1</ele>
        <time>2020-06-03T10:39:54Z</time>
      </trkpt>
      <trkpt lat="46.44259" lon="-1.62938">
        <ele>3.1</ele>
        <time>2020-06-03T10:39:55Z</time>
      </trkpt>
      <trkpt lat="46.4426" lon="-1.62939">
        <ele>3.1</ele>
        <time>2020-06-03T10:39:56Z</time>
      </trkpt>
      <trkpt lat="46.44263" lon="-1.62941">
        <ele>3.1</ele>
        <time>2020-06-03T10:39:57Z</time>
      </trkpt>
      <trkpt lat="46.44266" lon="-1.62944">
        <ele>3.1</ele>
        <time>2020-06-03T10:39:58Z</time>
      </trkpt>
      <trkpt lat="46.4427" lon="-1.62946">
        <ele>3.1</ele>
        <time>2020-06-03T10:39:59Z</time>
      </trkpt>
      <trkpt lat="46.44274" lon="-1.62949">
        <ele>3.2</ele>
        <time>2020-06-03T10:40:00Z</time>
      </trkpt>
      <trkpt lat="46.44279" lon="-1.62951">
        <ele>3.2</ele>
        <time>2020-06-03T10:40:01Z</time>
      </trkpt>
      <trkpt lat="46.44285" lon="-1.62954">
        <ele>3.2</ele>
        <time>2020-06-03T10:40:02Z</time>
      </trkpt>
      <trkpt lat="46.4429" lon="-1.62957">
        <ele>3.2</ele>
        <time>2020-06-03T10:40:03Z</time>
      </trkpt>
      <trkpt lat="46.44295" lon="-1.62957">
        <ele>3.2</ele>
        <time>2020-06-03T10:40:04Z</time>
      </trkpt>
      <trkpt lat="46.443" lon="-1.62958">
        <ele>3.2</ele>
        <time>2020-06-03T10:40:05Z</time>
      </trkpt>
      <trkpt lat="46.44304" lon="-1.62959">
        <ele>3.2</ele>
        <time>2020-06-03T10:40:06Z</time>
      </trkpt>
      <trkpt lat="46.44308" lon="-1.6296">
        <ele>3.2</ele>
        <time>2020-06-03T10:40:07Z</time>
      </trkpt>
      <trkpt lat="46.44313" lon="-1.6296">
        <ele>3.2</ele>
        <time>2020-06-03T10:40:08Z</time>
      </trkpt>
      <trkpt lat="46.44317" lon="-1.6296">
        <ele>3.3</ele>
        <time>2020-06-03T10:40:09Z</time>
      </trkpt>
      <trkpt lat="46.44322" lon="-1.62959">
        <ele>3.3</ele>
        <time>2020-06-03T10:40:10Z</time>
      </trkpt>
      <trkpt lat="46.44326" lon="-1.62959">
        <ele>3.3</ele>
        <time>2020-06-03T10:40:11Z</time>
      </trkpt>
      <trkpt lat="46.44331" lon="-1.62959">
        <ele>3.3</ele>
        <time>2020-06-03T10:40:12Z</time>
      </trkpt>
      <trkpt lat="46.44333" lon="-1.62959">
        <ele>3.3</ele>
        <time>2020-06-03T10:40:13Z</time>
      </trkpt>
      <trkpt lat="46.44338" lon="-1.62958">
        <ele>3.3</ele>
        <time>2020-06-03T10:40:14Z</time>
      </trkpt>
      <trkpt lat="46.44342" lon="-1.62958">
        <ele>3.3</ele>
        <time>2020-06-03T10:40:15Z</time>
      </trkpt>
      <trkpt lat="46.44347" lon="-1.62958">
        <ele>3.3</ele>
        <time>2020-06-03T10:40:16Z</time>
      </trkpt>
      <trkpt lat="46.44351" lon="-1.62959">
        <ele>3.3</ele>
        <time>2020-06-03T10:40:17Z</time>
      </trkpt>
      <trkpt lat="46.44356" lon="-1.62959">
        <ele>3.3</ele>
        <time>2020-06-03T10:40:18Z</time>
      </trkpt>
      <trkpt lat="46.44361" lon="-1.62959">
        <ele>3.3</ele>
        <time>2020-06-03T10:40:19Z</time>
      </trkpt>
      <trkpt lat="46.44366" lon="-1.6296">
        <ele>3.3</ele>
        <time>2020-06-03T10:40:20Z</time>
      </trkpt>
      <trkpt lat="46.44372" lon="-1.6296">
        <ele>3.3</ele>
        <time>2020-06-03T10:40:21Z</time>
      </trkpt>
      <trkpt lat="46.44378" lon="-1.62961">
        <ele>3.3</ele>
        <time>2020-06-03T10:40:22Z</time>
      </trkpt>
      <trkpt lat="46.44383" lon="-1.6296">
        <ele>3.3</ele>
        <time>2020-06-03T10:40:23Z</time>
      </trkpt>
      <trkpt lat="46.44387" lon="-1.62961">
        <ele>3.3</ele>
        <time>2020-06-03T10:40:24Z</time>
      </trkpt>
      <trkpt lat="46.44392" lon="-1.62961">
        <ele>3.3</ele>
        <time>2020-06-03T10:40:25Z</time>
      </trkpt>
      <trkpt lat="46.44397" lon="-1.6296">
        <ele>3.3</ele>
        <time>2020-06-03T10:40:26Z</time>
      </trkpt>
      <trkpt lat="46.44401" lon="-1.6296">
        <ele>3.4</ele>
        <time>2020-06-03T10:40:27Z</time>
      </trkpt>
      <trkpt lat="46.44406" lon="-1.62962">
        <ele>3.4</ele>
        <time>2020-06-03T10:40:28Z</time>
      </trkpt>
      <trkpt lat="46.4441" lon="-1.62967">
        <ele>3.4</ele>
        <time>2020-06-03T10:40:29Z</time>
      </trkpt>
      <trkpt lat="46.44412" lon="-1.62975">
        <ele>3.4</ele>
        <time>2020-06-03T10:40:30Z</time>
      </trkpt>
      <trkpt lat="46.44414" lon="-1.62982">
        <ele>3.4</ele>
        <time>2020-06-03T10:40:31Z</time>
      </trkpt>
      <trkpt lat="46.44416" lon="-1.62988">
        <ele>3.4</ele>
        <time>2020-06-03T10:40:32Z</time>
      </trkpt>
      <trkpt lat="46.44419" lon="-1.62995">
        <ele>3.4</ele>
        <time>2020-06-03T10:40:33Z</time>
      </trkpt>
      <trkpt lat="46.44422" lon="-1.63002">
        <ele>3.4</ele>
        <time>2020-06-03T10:40:34Z</time>
      </trkpt>
      <trkpt lat="46.44425" lon="-1.6301">
        <ele>3.3</ele>
        <time>2020-06-03T10:40:35Z</time>
      </trkpt>
      <trkpt lat="46.44429" lon="-1.63017">
        <ele>3.3</ele>
        <time>2020-06-03T10:40:36Z</time>
      </trkpt>
      <trkpt lat="46.44431" lon="-1.63023">
        <ele>3.3</ele>
        <time>2020-06-03T10:40:37Z</time>
      </trkpt>
      <trkpt lat="46.44434" lon="-1.6303">
        <ele>3.3</ele>
        <time>2020-06-03T10:40:38Z</time>
      </trkpt>
      <trkpt lat="46.44437" lon="-1.63037">
        <ele>3.4</ele>
        <time>2020-06-03T10:40:39Z</time>
      </trkpt>
      <trkpt lat="46.4444" lon="-1.63044">
        <ele>3.4</ele>
        <time>2020-06-03T10:40:40Z</time>
      </trkpt>
      <trkpt lat="46.44443" lon="-1.6305">
        <ele>3.4</ele>
        <time>2020-06-03T10:40:41Z</time>
      </trkpt>
      <trkpt lat="46.44447" lon="-1.63056">
        <ele>3.4</ele>
        <time>2020-06-03T10:40:42Z</time>
      </trkpt>
      <trkpt lat="46.4445" lon="-1.63062">
        <ele>3.4</ele>
        <time>2020-06-03T10:40:43Z</time>
      </trkpt>
      <trkpt lat="46.44454" lon="-1.63067">
        <ele>3.4</ele>
        <time>2020-06-03T10:40:44Z</time>
      </trkpt>
      <trkpt lat="46.44458" lon="-1.63072">
        <ele>3.4</ele>
        <time>2020-06-03T10:40:45Z</time>
      </trkpt>
      <trkpt lat="46.44462" lon="-1.63077">
        <ele>3.4</ele>
        <time>2020-06-03T10:40:46Z</time>
      </trkpt>
      <trkpt lat="46.44466" lon="-1.63082">
        <ele>3.4</ele>
        <time>2020-06-03T10:40:47Z</time>
      </trkpt>
      <trkpt lat="46.44471" lon="-1.63087">
        <ele>3.4</ele>
        <time>2020-06-03T10:40:48Z</time>
      </trkpt>
      <trkpt lat="46.44476" lon="-1.63091">
        <ele>3.4</ele>
        <time>2020-06-03T10:40:49Z</time>
      </trkpt>
      <trkpt lat="46.4448" lon="-1.63095">
        <ele>3.4</ele>
        <time>2020-06-03T10:40:50Z</time>
      </trkpt>
      <trkpt lat="46.44484" lon="-1.631">
        <ele>3.4</ele>
        <time>2020-06-03T10:40:51Z</time>
      </trkpt>
      <trkpt lat="46.44488" lon="-1.63104">
        <ele>3.4</ele>
        <time>2020-06-03T10:40:52Z</time>
      </trkpt>
      <trkpt lat="46.44492" lon="-1.63108">
        <ele>3.4</ele>
        <time>2020-06-03T10:40:53Z</time>
      </trkpt>
      <trkpt lat="46.44496" lon="-1.63114">
        <ele>3.4</ele>
        <time>2020-06-03T10:40:54Z</time>
      </trkpt>
      <trkpt lat="46.44501" lon="-1.63118">
        <ele>3.4</ele>
        <time>2020-06-03T10:40:55Z</time>
      </trkpt>
      <trkpt lat="46.44506" lon="-1.63123">
        <ele>3.4</ele>
        <time>2020-06-03T10:40:56Z</time>
      </trkpt>
      <trkpt lat="46.44511" lon="-1.63127">
        <ele>3.4</ele>
        <time>2020-06-03T10:40:57Z</time>
      </trkpt>
      <trkpt lat="46.44516" lon="-1.63131">
        <ele>3.4</ele>
        <time>2020-06-03T10:40:58Z</time>
      </trkpt>
      <trkpt lat="46.44521" lon="-1.63136">
        <ele>3.4</ele>
        <time>2020-06-03T10:40:59Z</time>
      </trkpt>
      <trkpt lat="46.44526" lon="-1.63141">
        <ele>3.4</ele>
        <time>2020-06-03T10:41:00Z</time>
      </trkpt>
      <trkpt lat="46.4453" lon="-1.63146">
        <ele>3.4</ele>
        <time>2020-06-03T10:41:01Z</time>
      </trkpt>
      <trkpt lat="46.44535" lon="-1.63152">
        <ele>3.4</ele>
        <time>2020-06-03T10:41:02Z</time>
      </trkpt>
      <trkpt lat="46.44539" lon="-1.63158">
        <ele>3.4</ele>
        <time>2020-06-03T10:41:03Z</time>
      </trkpt>
      <trkpt lat="46.44542" lon="-1.63164">
        <ele>3.4</ele>
        <time>2020-06-03T10:41:04Z</time>
      </trkpt>
      <trkpt lat="46.44546" lon="-1.6317">
        <ele>3.4</ele>
        <time>2020-06-03T10:41:05Z</time>
      </trkpt>
      <trkpt lat="46.4455" lon="-1.63177">
        <ele>3.4</ele>
        <time>2020-06-03T10:41:06Z</time>
      </trkpt>
      <trkpt lat="46.44553" lon="-1.63185">
        <ele>3.4</ele>
        <time>2020-06-03T10:41:07Z</time>
      </trkpt>
      <trkpt lat="46.44555" lon="-1.63193">
        <ele>3.4</ele>
        <time>2020-06-03T10:41:08Z</time>
      </trkpt>
      <trkpt lat="46.44557" lon="-1.63201">
        <ele>3.4</ele>
        <time>2020-06-03T10:41:09Z</time>
      </trkpt>
      <trkpt lat="46.44558" lon="-1.63208">
        <ele>3.4</ele>
        <time>2020-06-03T10:41:10Z</time>
      </trkpt>
      <trkpt lat="46.44559" lon="-1.63215">
        <ele>3.4</ele>
        <time>2020-06-03T10:41:11Z</time>
      </trkpt>
      <trkpt lat="46.4456" lon="-1.63222">
        <ele>3.3</ele>
        <time>2020-06-03T10:41:12Z</time>
      </trkpt>
      <trkpt lat="46.44562" lon="-1.63229">
        <ele>3.3</ele>
        <time>2020-06-03T10:41:13Z</time>
      </trkpt>
      <trkpt lat="46.44565" lon="-1.63233">
        <ele>3.3</ele>
        <time>2020-06-03T10:41:14Z</time>
      </trkpt>
      <trkpt lat="46.44569" lon="-1.63238">
        <ele>3.3</ele>
        <time>2020-06-03T10:41:15Z</time>
      </trkpt>
      <trkpt lat="46.44574" lon="-1.6324">
        <ele>3.4</ele>
        <time>2020-06-03T10:41:16Z</time>
      </trkpt>
      <trkpt lat="46.44579" lon="-1.63242">
        <ele>3.4</ele>
        <time>2020-06-03T10:41:17Z</time>
      </trkpt>
      <trkpt lat="46.44585" lon="-1.63242">
        <ele>3.5</ele>
        <time>2020-06-03T10:41:18Z</time>
      </trkpt>
      <trkpt lat="46.44591" lon="-1.63242">
        <ele>3.7</ele>
        <time>2020-06-03T10:41:19Z</time>
      </trkpt>
      <trkpt lat="46.44597" lon="-1.63242">
        <ele>3.8</ele>
        <time>2020-06-03T10:41:20Z</time>
      </trkpt>
      <trkpt lat="46.44604" lon="-1.63242">
        <ele>4</ele>
        <time>2020-06-03T10:41:21Z</time>
      </trkpt>
      <trkpt lat="46.44611" lon="-1.63243">
        <ele>4.2</ele>
        <time>2020-06-03T10:41:22Z</time>
      </trkpt>
      <trkpt lat="46.44617" lon="-1.63243">
        <ele>4.3</ele>
        <time>2020-06-03T10:41:23Z</time>
      </trkpt>
      <trkpt lat="46.44623" lon="-1.63243">
        <ele>4.4</ele>
        <time>2020-06-03T10:41:24Z</time>
      </trkpt>
      <trkpt lat="46.44628" lon="-1.63243">
        <ele>4.5</ele>
        <time>2020-06-03T10:41:25Z</time>
      </trkpt>
      <trkpt lat="46.44633" lon="-1.63243">
        <ele>4.7</ele>
        <time>2020-06-03T10:41:26Z</time>
      </trkpt>
      <trkpt lat="46.44639" lon="-1.63242">
        <ele>4.8</ele>
        <time>2020-06-03T10:41:27Z</time>
      </trkpt>
      <trkpt lat="46.44644" lon="-1.63243">
        <ele>4.9</ele>
        <time>2020-06-03T10:41:28Z</time>
      </trkpt>
      <trkpt lat="46.4465" lon="-1.63243">
        <ele>5.1</ele>
        <time>2020-06-03T10:41:29Z</time>
      </trkpt>
      <trkpt lat="46.44655" lon="-1.63243">
        <ele>5.2</ele>
        <time>2020-06-03T10:41:30Z</time>
      </trkpt>
      <trkpt lat="46.44661" lon="-1.63243">
        <ele>5.3</ele>
        <time>2020-06-03T10:41:31Z</time>
      </trkpt>
      <trkpt lat="46.44666" lon="-1.63243">
        <ele>5.5</ele>
        <time>2020-06-03T10:41:32Z</time>
      </trkpt>
      <trkpt lat="46.44671" lon="-1.63243">
        <ele>5.6</ele>
        <time>2020-06-03T10:41:33Z</time>
      </trkpt>
      <trkpt lat="46.44676" lon="-1.63244">
        <ele>5.7</ele>
        <time>2020-06-03T10:41:34Z</time>
      </trkpt>
      <trkpt lat="46.44682" lon="-1.63244">
        <ele>5.8</ele>
        <time>2020-06-03T10:41:35Z</time>
      </trkpt>
      <trkpt lat="46.44687" lon="-1.63245">
        <ele>6</ele>
        <time>2020-06-03T10:41:36Z</time>
      </trkpt>
      <trkpt lat="46.44692" lon="-1.63245">
        <ele>6.1</ele>
        <time>2020-06-03T10:41:37Z</time>
      </trkpt>
      <trkpt lat="46.44697" lon="-1.63246">
        <ele>6.1</ele>
        <time>2020-06-03T10:41:38Z</time>
      </trkpt>
      <trkpt lat="46.44703" lon="-1.63246">
        <ele>6.2</ele>
        <time>2020-06-03T10:41:39Z</time>
      </trkpt>
      <trkpt lat="46.44707" lon="-1.63247">
        <ele>6.3</ele>
        <time>2020-06-03T10:41:40Z</time>
      </trkpt>
      <trkpt lat="46.44712" lon="-1.63247">
        <ele>6.4</ele>
        <time>2020-06-03T10:41:41Z</time>
      </trkpt>
      <trkpt lat="46.44717" lon="-1.63248">
        <ele>6.5</ele>
        <time>2020-06-03T10:41:42Z</time>
      </trkpt>
      <trkpt lat="46.44721" lon="-1.63248">
        <ele>6.5</ele>
        <time>2020-06-03T10:41:43Z</time>
      </trkpt>
      <trkpt lat="46.44725" lon="-1.63248">
        <ele>6.6</ele>
        <time>2020-06-03T10:41:44Z</time>
      </trkpt>
      <trkpt lat="46.4473" lon="-1.63248">
        <ele>6.7</ele>
        <time>2020-06-03T10:41:45Z</time>
      </trkpt>
      <trkpt lat="46.44733" lon="-1.63248">
        <ele>6.7</ele>
        <time>2020-06-03T10:41:46Z</time>
      </trkpt>
      <trkpt lat="46.44736" lon="-1.6325">
        <ele>6.8</ele>
        <time>2020-06-03T10:41:47Z</time>
      </trkpt>
      <trkpt lat="46.44739" lon="-1.63254">
        <ele>6.8</ele>
        <time>2020-06-03T10:41:48Z</time>
      </trkpt>
      <trkpt lat="46.4474" lon="-1.63261">
        <ele>6.8</ele>
        <time>2020-06-03T10:41:49Z</time>
      </trkpt>
      <trkpt lat="46.4474" lon="-1.63267">
        <ele>6.9</ele>
        <time>2020-06-03T10:41:50Z</time>
      </trkpt>
      <trkpt lat="46.44741" lon="-1.63272">
        <ele>6.9</ele>
        <time>2020-06-03T10:41:51Z</time>
      </trkpt>
      <trkpt lat="46.44741" lon="-1.63277">
        <ele>6.9</ele>
        <time>2020-06-03T10:41:52Z</time>
      </trkpt>
      <trkpt lat="46.44744" lon="-1.63281">
        <ele>7</ele>
        <time>2020-06-03T10:41:53Z</time>
      </trkpt>
      <trkpt lat="46.44744" lon="-1.63284">
        <ele>7</ele>
        <time>2020-06-03T10:41:54Z</time>
      </trkpt>
      <trkpt lat="46.44745" lon="-1.63288">
        <ele>7</ele>
        <time>2020-06-03T10:41:55Z</time>
      </trkpt>
      <trkpt lat="46.44746" lon="-1.63292">
        <ele>7.1</ele>
        <time>2020-06-03T10:41:56Z</time>
      </trkpt>
      <trkpt lat="46.44748" lon="-1.63299">
        <ele>7.2</ele>
        <time>2020-06-03T10:41:57Z</time>
      </trkpt>
      <trkpt lat="46.44749" lon="-1.63304">
        <ele>7.3</ele>
        <time>2020-06-03T10:41:58Z</time>
      </trkpt>
      <trkpt lat="46.4475" lon="-1.63309">
        <ele>7.4</ele>
        <time>2020-06-03T10:41:59Z</time>
      </trkpt>
      <trkpt lat="46.44752" lon="-1.63315">
        <ele>7.5</ele>
        <time>2020-06-03T10:42:00Z</time>
      </trkpt>
      <trkpt lat="46.44754" lon="-1.63321">
        <ele>7.5</ele>
        <time>2020-06-03T10:42:01Z</time>
      </trkpt>
      <trkpt lat="46.44756" lon="-1.63327">
        <ele>7.6</ele>
        <time>2020-06-03T10:42:02Z</time>
      </trkpt>
      <trkpt lat="46.44758" lon="-1.63333">
        <ele>7.7</ele>
        <time>2020-06-03T10:42:03Z</time>
      </trkpt>
      <trkpt lat="46.44759" lon="-1.63339">
        <ele>7.8</ele>
        <time>2020-06-03T10:42:04Z</time>
      </trkpt>
      <trkpt lat="46.44761" lon="-1.63345">
        <ele>7.8</ele>
        <time>2020-06-03T10:42:05Z</time>
      </trkpt>
      <trkpt lat="46.44762" lon="-1.63351">
        <ele>7.9</ele>
        <time>2020-06-03T10:42:06Z</time>
      </trkpt>
      <trkpt lat="46.44764" lon="-1.63357">
        <ele>7.9</ele>
        <time>2020-06-03T10:42:07Z</time>
      </trkpt>
      <trkpt lat="46.44766" lon="-1.63363">
        <ele>8</ele>
        <time>2020-06-03T10:42:08Z</time>
      </trkpt>
      <trkpt lat="46.44768" lon="-1.63369">
        <ele>8.1</ele>
        <time>2020-06-03T10:42:09Z</time>
      </trkpt>
      <trkpt lat="46.4477" lon="-1.63375">
        <ele>8.1</ele>
        <time>2020-06-03T10:42:10Z</time>
      </trkpt>
      <trkpt lat="46.44771" lon="-1.63381">
        <ele>8.2</ele>
        <time>2020-06-03T10:42:11Z</time>
      </trkpt>
      <trkpt lat="46.44772" lon="-1.63387">
        <ele>8.3</ele>
        <time>2020-06-03T10:42:12Z</time>
      </trkpt>
      <trkpt lat="46.44774" lon="-1.63393">
        <ele>8.4</ele>
        <time>2020-06-03T10:42:13Z</time>
      </trkpt>
      <trkpt lat="46.44776" lon="-1.634">
        <ele>8.5</ele>
        <time>2020-06-03T10:42:14Z</time>
      </trkpt>
      <trkpt lat="46.44778" lon="-1.63406">
        <ele>8.6</ele>
        <time>2020-06-03T10:42:15Z</time>
      </trkpt>
      <trkpt lat="46.4478" lon="-1.63413">
        <ele>8.7</ele>
        <time>2020-06-03T10:42:16Z</time>
      </trkpt>
      <trkpt lat="46.44781" lon="-1.63419">
        <ele>8.8</ele>
        <time>2020-06-03T10:42:17Z</time>
      </trkpt>
      <trkpt lat="46.44782" lon="-1.63425">
        <ele>8.9</ele>
        <time>2020-06-03T10:42:18Z</time>
      </trkpt>
      <trkpt lat="46.44784" lon="-1.63431">
        <ele>9</ele>
        <time>2020-06-03T10:42:19Z</time>
      </trkpt>
      <trkpt lat="46.44786" lon="-1.63436">
        <ele>9.1</ele>
        <time>2020-06-03T10:42:20Z</time>
      </trkpt>
      <trkpt lat="46.44787" lon="-1.63441">
        <ele>9.2</ele>
        <time>2020-06-03T10:42:21Z</time>
      </trkpt>
      <trkpt lat="46.44788" lon="-1.63445">
        <ele>9.2</ele>
        <time>2020-06-03T10:42:22Z</time>
      </trkpt>
      <trkpt lat="46.44789" lon="-1.6345">
        <ele>9.3</ele>
        <time>2020-06-03T10:42:23Z</time>
      </trkpt>
      <trkpt lat="46.44791" lon="-1.63455">
        <ele>9.3</ele>
        <time>2020-06-03T10:42:24Z</time>
      </trkpt>
      <trkpt lat="46.44792" lon="-1.63461">
        <ele>9.4</ele>
        <time>2020-06-03T10:42:25Z</time>
      </trkpt>
      <trkpt lat="46.44793" lon="-1.63467">
        <ele>9.4</ele>
        <time>2020-06-03T10:42:26Z</time>
      </trkpt>
      <trkpt lat="46.44794" lon="-1.63472">
        <ele>9.4</ele>
        <time>2020-06-03T10:42:27Z</time>
      </trkpt>
      <trkpt lat="46.44796" lon="-1.63477">
        <ele>9.5</ele>
        <time>2020-06-03T10:42:28Z</time>
      </trkpt>
      <trkpt lat="46.44797" lon="-1.63482">
        <ele>9.5</ele>
        <time>2020-06-03T10:42:29Z</time>
      </trkpt>
      <trkpt lat="46.44799" lon="-1.63487">
        <ele>9.5</ele>
        <time>2020-06-03T10:42:30Z</time>
      </trkpt>
      <trkpt lat="46.44801" lon="-1.63493">
        <ele>9.6</ele>
        <time>2020-06-03T10:42:31Z</time>
      </trkpt>
      <trkpt lat="46.44802" lon="-1.63498">
        <ele>9.6</ele>
        <time>2020-06-03T10:42:32Z</time>
      </trkpt>
      <trkpt lat="46.44804" lon="-1.63504">
        <ele>9.6</ele>
        <time>2020-06-03T10:42:33Z</time>
      </trkpt>
      <trkpt lat="46.44806" lon="-1.6351">
        <ele>9.6</ele>
        <time>2020-06-03T10:42:34Z</time>
      </trkpt>
      <trkpt lat="46.44807" lon="-1.63516">
        <ele>9.7</ele>
        <time>2020-06-03T10:42:35Z</time>
      </trkpt>
      <trkpt lat="46.44809" lon="-1.63522">
        <ele>9.7</ele>
        <time>2020-06-03T10:42:36Z</time>
      </trkpt>
      <trkpt lat="46.4481" lon="-1.63527">
        <ele>9.7</ele>
        <time>2020-06-03T10:42:37Z</time>
      </trkpt>
      <trkpt lat="46.44811" lon="-1.63534">
        <ele>9.7</ele>
        <time>2020-06-03T10:42:38Z</time>
      </trkpt>
      <trkpt lat="46.44813" lon="-1.6354">
        <ele>9.7</ele>
        <time>2020-06-03T10:42:39Z</time>
      </trkpt>
      <trkpt lat="46.44814" lon="-1.63546">
        <ele>9.7</ele>
        <time>2020-06-03T10:42:40Z</time>
      </trkpt>
      <trkpt lat="46.44815" lon="-1.63551">
        <ele>9.7</ele>
        <time>2020-06-03T10:42:41Z</time>
      </trkpt>
      <trkpt lat="46.44817" lon="-1.63557">
        <ele>9.6</ele>
        <time>2020-06-03T10:42:42Z</time>
      </trkpt>
      <trkpt lat="46.44818" lon="-1.63564">
        <ele>9.6</ele>
        <time>2020-06-03T10:42:43Z</time>
      </trkpt>
      <trkpt lat="46.44819" lon="-1.63569">
        <ele>9.6</ele>
        <time>2020-06-03T10:42:44Z</time>
      </trkpt>
      <trkpt lat="46.4482" lon="-1.63575">
        <ele>9.6</ele>
        <time>2020-06-03T10:42:45Z</time>
      </trkpt>
      <trkpt lat="46.4482" lon="-1.6358">
        <ele>9.5</ele>
        <time>2020-06-03T10:42:46Z</time>
      </trkpt>
      <trkpt lat="46.4482" lon="-1.63586">
        <ele>9.5</ele>
        <time>2020-06-03T10:42:47Z</time>
      </trkpt>
      <trkpt lat="46.4482" lon="-1.63592">
        <ele>9.5</ele>
        <time>2020-06-03T10:42:48Z</time>
      </trkpt>
      <trkpt lat="46.4482" lon="-1.63598">
        <ele>9.5</ele>
        <time>2020-06-03T10:42:49Z</time>
      </trkpt>
      <trkpt lat="46.44819" lon="-1.63604">
        <ele>9.5</ele>
        <time>2020-06-03T10:42:50Z</time>
      </trkpt>
      <trkpt lat="46.44818" lon="-1.6361">
        <ele>9.5</ele>
        <time>2020-06-03T10:42:51Z</time>
      </trkpt>
      <trkpt lat="46.44818" lon="-1.63616">
        <ele>9.5</ele>
        <time>2020-06-03T10:42:52Z</time>
      </trkpt>
      <trkpt lat="46.44817" lon="-1.63622">
        <ele>9.5</ele>
        <time>2020-06-03T10:42:53Z</time>
      </trkpt>
      <trkpt lat="46.44815" lon="-1.63626">
        <ele>9.5</ele>
        <time>2020-06-03T10:42:54Z</time>
      </trkpt>
      <trkpt lat="46.44814" lon="-1.63632">
        <ele>9.5</ele>
        <time>2020-06-03T10:42:55Z</time>
      </trkpt>
      <trkpt lat="46.44813" lon="-1.63638">
        <ele>9.6</ele>
        <time>2020-06-03T10:42:56Z</time>
      </trkpt>
      <trkpt lat="46.44812" lon="-1.63644">
        <ele>9.6</ele>
        <time>2020-06-03T10:42:57Z</time>
      </trkpt>
      <trkpt lat="46.4481" lon="-1.6365">
        <ele>9.6</ele>
        <time>2020-06-03T10:42:58Z</time>
      </trkpt>
      <trkpt lat="46.44808" lon="-1.63656">
        <ele>9.6</ele>
        <time>2020-06-03T10:42:59Z</time>
      </trkpt>
      <trkpt lat="46.44806" lon="-1.63663">
        <ele>9.7</ele>
        <time>2020-06-03T10:43:00Z</time>
      </trkpt>
      <trkpt lat="46.44805" lon="-1.63669">
        <ele>9.7</ele>
        <time>2020-06-03T10:43:01Z</time>
      </trkpt>
      <trkpt lat="46.44804" lon="-1.63675">
        <ele>9.7</ele>
        <time>2020-06-03T10:43:02Z</time>
      </trkpt>
      <trkpt lat="46.44802" lon="-1.63682">
        <ele>9.8</ele>
        <time>2020-06-03T10:43:03Z</time>
      </trkpt>
      <trkpt lat="46.44801" lon="-1.63688">
        <ele>9.8</ele>
        <time>2020-06-03T10:43:04Z</time>
      </trkpt>
      <trkpt lat="46.44799" lon="-1.63694">
        <ele>9.9</ele>
        <time>2020-06-03T10:43:05Z</time>
      </trkpt>
      <trkpt lat="46.44798" lon="-1.63701">
        <ele>9.9</ele>
        <time>2020-06-03T10:43:06Z</time>
      </trkpt>
      <trkpt lat="46.44797" lon="-1.63708">
        <ele>10</ele>
        <time>2020-06-03T10:43:07Z</time>
      </trkpt>
      <trkpt lat="46.44795" lon="-1.63714">
        <ele>10</ele>
        <time>2020-06-03T10:43:08Z</time>
      </trkpt>
      <trkpt lat="46.44794" lon="-1.63721">
        <ele>10.1</ele>
        <time>2020-06-03T10:43:09Z</time>
      </trkpt>
      <trkpt lat="46.44793" lon="-1.63727">
        <ele>10.1</ele>
        <time>2020-06-03T10:43:10Z</time>
      </trkpt>
      <trkpt lat="46.44791" lon="-1.63734">
        <ele>10.2</ele>
        <time>2020-06-03T10:43:11Z</time>
      </trkpt>
      <trkpt lat="46.44789" lon="-1.6374">
        <ele>10.2</ele>
        <time>2020-06-03T10:43:12Z</time>
      </trkpt>
      <trkpt lat="46.44788" lon="-1.63747">
        <ele>10.2</ele>
        <time>2020-06-03T10:43:13Z</time>
      </trkpt>
      <trkpt lat="46.44786" lon="-1.63753">
        <ele>10.3</ele>
        <time>2020-06-03T10:43:14Z</time>
      </trkpt>
      <trkpt lat="46.44785" lon="-1.6376">
        <ele>10.3</ele>
        <time>2020-06-03T10:43:15Z</time>
      </trkpt>
      <trkpt lat="46.44784" lon="-1.63766">
        <ele>10.3</ele>
        <time>2020-06-03T10:43:16Z</time>
      </trkpt>
      <trkpt lat="46.44783" lon="-1.63772">
        <ele>10.3</ele>
        <time>2020-06-03T10:43:17Z</time>
      </trkpt>
      <trkpt lat="46.44781" lon="-1.63778">
        <ele>10.4</ele>
        <time>2020-06-03T10:43:18Z</time>
      </trkpt>
      <trkpt lat="46.4478" lon="-1.63783">
        <ele>10.4</ele>
        <time>2020-06-03T10:43:19Z</time>
      </trkpt>
      <trkpt lat="46.44779" lon="-1.63789">
        <ele>10.4</ele>
        <time>2020-06-03T10:43:20Z</time>
      </trkpt>
      <trkpt lat="46.44778" lon="-1.63794">
        <ele>10.4</ele>
        <time>2020-06-03T10:43:21Z</time>
      </trkpt>
      <trkpt lat="46.44777" lon="-1.63799">
        <ele>10.4</ele>
        <time>2020-06-03T10:43:22Z</time>
      </trkpt>
      <trkpt lat="46.44777" lon="-1.63805">
        <ele>10.4</ele>
        <time>2020-06-03T10:43:23Z</time>
      </trkpt>
      <trkpt lat="46.44776" lon="-1.63811">
        <ele>10.4</ele>
        <time>2020-06-03T10:43:24Z</time>
      </trkpt>
      <trkpt lat="46.44775" lon="-1.63816">
        <ele>10.5</ele>
        <time>2020-06-03T10:43:25Z</time>
      </trkpt>
      <trkpt lat="46.44774" lon="-1.63821">
        <ele>10.5</ele>
        <time>2020-06-03T10:43:26Z</time>
      </trkpt>
      <trkpt lat="46.44772" lon="-1.63827">
        <ele>10.5</ele>
        <time>2020-06-03T10:43:27Z</time>
      </trkpt>
      <trkpt lat="46.44771" lon="-1.63832">
        <ele>10.5</ele>
        <time>2020-06-03T10:43:28Z</time>
      </trkpt>
      <trkpt lat="46.4477" lon="-1.63838">
        <ele>10.5</ele>
        <time>2020-06-03T10:43:29Z</time>
      </trkpt>
      <trkpt lat="46.44769" lon="-1.63845">
        <ele>10.5</ele>
        <time>2020-06-03T10:43:30Z</time>
      </trkpt>
      <trkpt lat="46.44767" lon="-1.63852">
        <ele>10.5</ele>
        <time>2020-06-03T10:43:31Z</time>
      </trkpt>
      <trkpt lat="46.44766" lon="-1.63859">
        <ele>10.6</ele>
        <time>2020-06-03T10:43:32Z</time>
      </trkpt>
      <trkpt lat="46.44764" lon="-1.63865">
        <ele>10.6</ele>
        <time>2020-06-03T10:43:33Z</time>
      </trkpt>
      <trkpt lat="46.44762" lon="-1.63871">
        <ele>10.6</ele>
        <time>2020-06-03T10:43:34Z</time>
      </trkpt>
      <trkpt lat="46.44761" lon="-1.63877">
        <ele>10.6</ele>
        <time>2020-06-03T10:43:35Z</time>
      </trkpt>
      <trkpt lat="46.4476" lon="-1.63884">
        <ele>10.6</ele>
        <time>2020-06-03T10:43:36Z</time>
      </trkpt>
      <trkpt lat="46.44759" lon="-1.63891">
        <ele>10.6</ele>
        <time>2020-06-03T10:43:37Z</time>
      </trkpt>
      <trkpt lat="46.44757" lon="-1.63897">
        <ele>10.6</ele>
        <time>2020-06-03T10:43:38Z</time>
      </trkpt>
      <trkpt lat="46.44756" lon="-1.63903">
        <ele>10.6</ele>
        <time>2020-06-03T10:43:39Z</time>
      </trkpt>
      <trkpt lat="46.44755" lon="-1.63909">
        <ele>10.6</ele>
        <time>2020-06-03T10:43:40Z</time>
      </trkpt>
      <trkpt lat="46.44753" lon="-1.63916">
        <ele>10.6</ele>
        <time>2020-06-03T10:43:41Z</time>
      </trkpt>
      <trkpt lat="46.44751" lon="-1.63922">
        <ele>10.6</ele>
        <time>2020-06-03T10:43:42Z</time>
      </trkpt>
      <trkpt lat="46.4475" lon="-1.6393">
        <ele>10.7</ele>
        <time>2020-06-03T10:43:43Z</time>
      </trkpt>
      <trkpt lat="46.44748" lon="-1.63937">
        <ele>10.7</ele>
        <time>2020-06-03T10:43:44Z</time>
      </trkpt>
      <trkpt lat="46.44746" lon="-1.63943">
        <ele>10.7</ele>
        <time>2020-06-03T10:43:45Z</time>
      </trkpt>
      <trkpt lat="46.44745" lon="-1.6395">
        <ele>10.7</ele>
        <time>2020-06-03T10:43:46Z</time>
      </trkpt>
      <trkpt lat="46.44743" lon="-1.63956">
        <ele>10.7</ele>
        <time>2020-06-03T10:43:47Z</time>
      </trkpt>
      <trkpt lat="46.44742" lon="-1.63963">
        <ele>10.7</ele>
        <time>2020-06-03T10:43:48Z</time>
      </trkpt>
      <trkpt lat="46.4474" lon="-1.63971">
        <ele>10.7</ele>
        <time>2020-06-03T10:43:49Z</time>
      </trkpt>
      <trkpt lat="46.44739" lon="-1.63978">
        <ele>10.8</ele>
        <time>2020-06-03T10:43:50Z</time>
      </trkpt>
      <trkpt lat="46.44737" lon="-1.63985">
        <ele>10.8</ele>
        <time>2020-06-03T10:43:51Z</time>
      </trkpt>
      <trkpt lat="46.44735" lon="-1.63992">
        <ele>10.8</ele>
        <time>2020-06-03T10:43:52Z</time>
      </trkpt>
      <trkpt lat="46.44733" lon="-1.63998">
        <ele>10.8</ele>
        <time>2020-06-03T10:43:53Z</time>
      </trkpt>
      <trkpt lat="46.44732" lon="-1.64005">
        <ele>10.8</ele>
        <time>2020-06-03T10:43:54Z</time>
      </trkpt>
      <trkpt lat="46.44731" lon="-1.64011">
        <ele>10.8</ele>
        <time>2020-06-03T10:43:55Z</time>
      </trkpt>
      <trkpt lat="46.4473" lon="-1.64018">
        <ele>10.8</ele>
        <time>2020-06-03T10:43:56Z</time>
      </trkpt>
      <trkpt lat="46.44729" lon="-1.64026">
        <ele>10.8</ele>
        <time>2020-06-03T10:43:57Z</time>
      </trkpt>
      <trkpt lat="46.44727" lon="-1.64033">
        <ele>10.8</ele>
        <time>2020-06-03T10:43:58Z</time>
      </trkpt>
      <trkpt lat="46.44726" lon="-1.6404">
        <ele>10.8</ele>
        <time>2020-06-03T10:43:59Z</time>
      </trkpt>
      <trkpt lat="46.44724" lon="-1.64048">
        <ele>10.8</ele>
        <time>2020-06-03T10:44:00Z</time>
      </trkpt>
      <trkpt lat="46.44722" lon="-1.64056">
        <ele>10.8</ele>
        <time>2020-06-03T10:44:01Z</time>
      </trkpt>
      <trkpt lat="46.4472" lon="-1.64063">
        <ele>10.8</ele>
        <time>2020-06-03T10:44:02Z</time>
      </trkpt>
      <trkpt lat="46.44718" lon="-1.64071">
        <ele>10.8</ele>
        <time>2020-06-03T10:44:03Z</time>
      </trkpt>
      <trkpt lat="46.44717" lon="-1.64078">
        <ele>10.8</ele>
        <time>2020-06-03T10:44:04Z</time>
      </trkpt>
      <trkpt lat="46.44715" lon="-1.64085">
        <ele>10.8</ele>
        <time>2020-06-03T10:44:05Z</time>
      </trkpt>
      <trkpt lat="46.44714" lon="-1.64092">
        <ele>10.8</ele>
        <time>2020-06-03T10:44:06Z</time>
      </trkpt>
      <trkpt lat="46.44712" lon="-1.64098">
        <ele>10.8</ele>
        <time>2020-06-03T10:44:07Z</time>
      </trkpt>
      <trkpt lat="46.44711" lon="-1.64105">
        <ele>10.8</ele>
        <time>2020-06-03T10:44:08Z</time>
      </trkpt>
      <trkpt lat="46.4471" lon="-1.64111">
        <ele>10.8</ele>
        <time>2020-06-03T10:44:09Z</time>
      </trkpt>
      <trkpt lat="46.44708" lon="-1.64119">
        <ele>10.8</ele>
        <time>2020-06-03T10:44:10Z</time>
      </trkpt>
      <trkpt lat="46.44707" lon="-1.64125">
        <ele>10.8</ele>
        <time>2020-06-03T10:44:11Z</time>
      </trkpt>
      <trkpt lat="46.44705" lon="-1.64131">
        <ele>10.8</ele>
        <time>2020-06-03T10:44:12Z</time>
      </trkpt>
      <trkpt lat="46.44704" lon="-1.64138">
        <ele>10.9</ele>
        <time>2020-06-03T10:44:13Z</time>
      </trkpt>
      <trkpt lat="46.44703" lon="-1.64144">
        <ele>10.9</ele>
        <time>2020-06-03T10:44:14Z</time>
      </trkpt>
      <trkpt lat="46.44701" lon="-1.64151">
        <ele>10.9</ele>
        <time>2020-06-03T10:44:15Z</time>
      </trkpt>
      <trkpt lat="46.447" lon="-1.64158">
        <ele>10.9</ele>
        <time>2020-06-03T10:44:16Z</time>
      </trkpt>
      <trkpt lat="46.44699" lon="-1.64163">
        <ele>10.9</ele>
        <time>2020-06-03T10:44:17Z</time>
      </trkpt>
      <trkpt lat="46.44696" lon="-1.64169">
        <ele>10.9</ele>
        <time>2020-06-03T10:44:18Z</time>
      </trkpt>
      <trkpt lat="46.44693" lon="-1.64173">
        <ele>10.9</ele>
        <time>2020-06-03T10:44:19Z</time>
      </trkpt>
      <trkpt lat="46.44688" lon="-1.64174">
        <ele>10.9</ele>
        <time>2020-06-03T10:44:20Z</time>
      </trkpt>
      <trkpt lat="46.44683" lon="-1.64175">
        <ele>10.9</ele>
        <time>2020-06-03T10:44:21Z</time>
      </trkpt>
      <trkpt lat="46.4468" lon="-1.64176">
        <ele>10.9</ele>
        <time>2020-06-03T10:44:22Z</time>
      </trkpt>
      <trkpt lat="46.44676" lon="-1.64177">
        <ele>10.9</ele>
        <time>2020-06-03T10:44:23Z</time>
      </trkpt>
      <trkpt lat="46.44673" lon="-1.64181">
        <ele>10.9</ele>
        <time>2020-06-03T10:44:24Z</time>
      </trkpt>
      <trkpt lat="46.44673" lon="-1.64186">
        <ele>10.9</ele>
        <time>2020-06-03T10:44:25Z</time>
      </trkpt>
      <trkpt lat="46.44673" lon="-1.64188">
        <ele>10.9</ele>
        <time>2020-06-03T10:44:26Z</time>
      </trkpt>
      <trkpt lat="46.44673" lon="-1.64193">
        <ele>10.9</ele>
        <time>2020-06-03T10:44:27Z</time>
      </trkpt>
      <trkpt lat="46.44673" lon="-1.64198">
        <ele>10.9</ele>
        <time>2020-06-03T10:44:28Z</time>
      </trkpt>
      <trkpt lat="46.44673" lon="-1.64203">
        <ele>10.9</ele>
        <time>2020-06-03T10:44:29Z</time>
      </trkpt>
      <trkpt lat="46.44673" lon="-1.64209">
        <ele>10.8</ele>
        <time>2020-06-03T10:44:30Z</time>
      </trkpt>
      <trkpt lat="46.44673" lon="-1.64214">
        <ele>10.8</ele>
        <time>2020-06-03T10:44:31Z</time>
      </trkpt>
      <trkpt lat="46.44673" lon="-1.6422">
        <ele>10.8</ele>
        <time>2020-06-03T10:44:32Z</time>
      </trkpt>
      <trkpt lat="46.44673" lon="-1.64226">
        <ele>10.7</ele>
        <time>2020-06-03T10:44:33Z</time>
      </trkpt>
      <trkpt lat="46.44673" lon="-1.64233">
        <ele>10.7</ele>
        <time>2020-06-03T10:44:34Z</time>
      </trkpt>
      <trkpt lat="46.44672" lon="-1.64239">
        <ele>10.6</ele>
        <time>2020-06-03T10:44:35Z</time>
      </trkpt>
      <trkpt lat="46.44672" lon="-1.64245">
        <ele>10.5</ele>
        <time>2020-06-03T10:44:36Z</time>
      </trkpt>
      <trkpt lat="46.44673" lon="-1.64251">
        <ele>10.5</ele>
        <time>2020-06-03T10:44:37Z</time>
      </trkpt>
      <trkpt lat="46.44673" lon="-1.64256">
        <ele>10.4</ele>
        <time>2020-06-03T10:44:38Z</time>
      </trkpt>
      <trkpt lat="46.44674" lon="-1.64262">
        <ele>10.4</ele>
        <time>2020-06-03T10:44:39Z</time>
      </trkpt>
      <trkpt lat="46.44674" lon="-1.64268">
        <ele>10.3</ele>
        <time>2020-06-03T10:44:40Z</time>
      </trkpt>
      <trkpt lat="46.44675" lon="-1.64273">
        <ele>10.3</ele>
        <time>2020-06-03T10:44:41Z</time>
      </trkpt>
      <trkpt lat="46.44675" lon="-1.64279">
        <ele>10.2</ele>
        <time>2020-06-03T10:44:42Z</time>
      </trkpt>
      <trkpt lat="46.44675" lon="-1.64284">
        <ele>10.1</ele>
        <time>2020-06-03T10:44:43Z</time>
      </trkpt>
      <trkpt lat="46.44675" lon="-1.6429">
        <ele>10</ele>
        <time>2020-06-03T10:44:44Z</time>
      </trkpt>
      <trkpt lat="46.44675" lon="-1.64296">
        <ele>9.9</ele>
        <time>2020-06-03T10:44:45Z</time>
      </trkpt>
      <trkpt lat="46.44676" lon="-1.64302">
        <ele>9.8</ele>
        <time>2020-06-03T10:44:46Z</time>
      </trkpt>
      <trkpt lat="46.44676" lon="-1.64308">
        <ele>9.7</ele>
        <time>2020-06-03T10:44:47Z</time>
      </trkpt>
      <trkpt lat="46.44677" lon="-1.64314">
        <ele>9.5</ele>
        <time>2020-06-03T10:44:48Z</time>
      </trkpt>
      <trkpt lat="46.44677" lon="-1.64321">
        <ele>9.3</ele>
        <time>2020-06-03T10:44:49Z</time>
      </trkpt>
      <trkpt lat="46.44677" lon="-1.64329">
        <ele>9</ele>
        <time>2020-06-03T10:44:50Z</time>
      </trkpt>
      <trkpt lat="46.44677" lon="-1.64337">
        <ele>8.8</ele>
        <time>2020-06-03T10:44:51Z</time>
      </trkpt>
      <trkpt lat="46.44677" lon="-1.64345">
        <ele>8.5</ele>
        <time>2020-06-03T10:44:52Z</time>
      </trkpt>
      <trkpt lat="46.44678" lon="-1.64352">
        <ele>8.3</ele>
        <time>2020-06-03T10:44:53Z</time>
      </trkpt>
      <trkpt lat="46.44678" lon="-1.64359">
        <ele>8</ele>
        <time>2020-06-03T10:44:54Z</time>
      </trkpt>
      <trkpt lat="46.44679" lon="-1.64366">
        <ele>7.8</ele>
        <time>2020-06-03T10:44:55Z</time>
      </trkpt>
      <trkpt lat="46.44679" lon="-1.64372">
        <ele>7.5</ele>
        <time>2020-06-03T10:44:56Z</time>
      </trkpt>
      <trkpt lat="46.44679" lon="-1.6438">
        <ele>7.2</ele>
        <time>2020-06-03T10:44:57Z</time>
      </trkpt>
      <trkpt lat="46.44679" lon="-1.64387">
        <ele>6.9</ele>
        <time>2020-06-03T10:44:58Z</time>
      </trkpt>
      <trkpt lat="46.44679" lon="-1.64394">
        <ele>6.6</ele>
        <time>2020-06-03T10:44:59Z</time>
      </trkpt>
      <trkpt lat="46.44679" lon="-1.64402">
        <ele>6.3</ele>
        <time>2020-06-03T10:45:00Z</time>
      </trkpt>
      <trkpt lat="46.44679" lon="-1.64408">
        <ele>6.1</ele>
        <time>2020-06-03T10:45:01Z</time>
      </trkpt>
      <trkpt lat="46.44679" lon="-1.64414">
        <ele>5.9</ele>
        <time>2020-06-03T10:45:02Z</time>
      </trkpt>
      <trkpt lat="46.44679" lon="-1.6442">
        <ele>5.6</ele>
        <time>2020-06-03T10:45:03Z</time>
      </trkpt>
      <trkpt lat="46.44679" lon="-1.64426">
        <ele>5.4</ele>
        <time>2020-06-03T10:45:04Z</time>
      </trkpt>
      <trkpt lat="46.4468" lon="-1.64431">
        <ele>5.3</ele>
        <time>2020-06-03T10:45:05Z</time>
      </trkpt>
      <trkpt lat="46.4468" lon="-1.64436">
        <ele>5.1</ele>
        <time>2020-06-03T10:45:06Z</time>
      </trkpt>
      <trkpt lat="46.4468" lon="-1.64441">
        <ele>4.9</ele>
        <time>2020-06-03T10:45:07Z</time>
      </trkpt>
      <trkpt lat="46.4468" lon="-1.64443">
        <ele>4.8</ele>
        <time>2020-06-03T10:45:08Z</time>
      </trkpt>
      <trkpt lat="46.44676" lon="-1.64445">
        <ele>4.6</ele>
        <time>2020-06-03T10:45:09Z</time>
      </trkpt>
      <trkpt lat="46.44674" lon="-1.64444">
        <ele>4.5</ele>
        <time>2020-06-03T10:45:10Z</time>
      </trkpt>
      <trkpt lat="46.4467" lon="-1.64444">
        <ele>4.3</ele>
        <time>2020-06-03T10:45:11Z</time>
      </trkpt>
      <trkpt lat="46.44666" lon="-1.64445">
        <ele>4.1</ele>
        <time>2020-06-03T10:45:12Z</time>
      </trkpt>
      <trkpt lat="46.44661" lon="-1.64446">
        <ele>4</ele>
        <time>2020-06-03T10:45:13Z</time>
      </trkpt>
      <trkpt lat="46.44657" lon="-1.64444">
        <ele>3.9</ele>
        <time>2020-06-03T10:45:14Z</time>
      </trkpt>
      <trkpt lat="46.44653" lon="-1.64442">
        <ele>3.7</ele>
        <time>2020-06-03T10:45:15Z</time>
      </trkpt>
      <trkpt lat="46.44649" lon="-1.64441">
        <ele>3.7</ele>
        <time>2020-06-03T10:45:16Z</time>
      </trkpt>
      <trkpt lat="46.44645" lon="-1.64441">
        <ele>3.6</ele>
        <time>2020-06-03T10:45:17Z</time>
      </trkpt>
      <trkpt lat="46.44641" lon="-1.6444">
        <ele>3.5</ele>
        <time>2020-06-03T10:45:18Z</time>
      </trkpt>
      <trkpt lat="46.44638" lon="-1.64438">
        <ele>3.5</ele>
        <time>2020-06-03T10:45:19Z</time>
      </trkpt>
      <trkpt lat="46.44635" lon="-1.64436">
        <ele>3.4</ele>
        <time>2020-06-03T10:45:20Z</time>
      </trkpt>
      <trkpt lat="46.44632" lon="-1.64434">
        <ele>3.4</ele>
        <time>2020-06-03T10:45:21Z</time>
      </trkpt>
      <trkpt lat="46.4463" lon="-1.64437">
        <ele>3.4</ele>
        <time>2020-06-03T10:45:22Z</time>
      </trkpt>
      <trkpt lat="46.44629" lon="-1.64438">
        <ele>3.4</ele>
        <time>2020-06-03T10:45:23Z</time>
      </trkpt>
      <trkpt lat="46.44628" lon="-1.64442">
        <ele>3.4</ele>
        <time>2020-06-03T10:45:24Z</time>
      </trkpt>
      <trkpt lat="46.44627" lon="-1.64447">
        <ele>3.3</ele>
        <time>2020-06-03T10:45:25Z</time>
      </trkpt>
      <trkpt lat="46.44625" lon="-1.64452">
        <ele>3.3</ele>
        <time>2020-06-03T10:45:26Z</time>
      </trkpt>
      <trkpt lat="46.44623" lon="-1.64456">
        <ele>3.3</ele>
        <time>2020-06-03T10:45:27Z</time>
      </trkpt>
      <trkpt lat="46.4462" lon="-1.64462">
        <ele>3.2</ele>
        <time>2020-06-03T10:45:28Z</time>
      </trkpt>
      <trkpt lat="46.44617" lon="-1.64467">
        <ele>3.2</ele>
        <time>2020-06-03T10:45:29Z</time>
      </trkpt>
      <trkpt lat="46.44615" lon="-1.64473">
        <ele>3.2</ele>
        <time>2020-06-03T10:45:30Z</time>
      </trkpt>
      <trkpt lat="46.44613" lon="-1.6448">
        <ele>3.1</ele>
        <time>2020-06-03T10:45:31Z</time>
      </trkpt>
      <trkpt lat="46.44611" lon="-1.64489">
        <ele>3.1</ele>
        <time>2020-06-03T10:45:32Z</time>
      </trkpt>
      <trkpt lat="46.4461" lon="-1.64497">
        <ele>3.1</ele>
        <time>2020-06-03T10:45:33Z</time>
      </trkpt>
      <trkpt lat="46.44608" lon="-1.64505">
        <ele>3.1</ele>
        <time>2020-06-03T10:45:34Z</time>
      </trkpt>
      <trkpt lat="46.44607" lon="-1.64513">
        <ele>3.1</ele>
        <time>2020-06-03T10:45:35Z</time>
      </trkpt>
      <trkpt lat="46.44606" lon="-1.6452">
        <ele>3.1</ele>
        <time>2020-06-03T10:45:36Z</time>
      </trkpt>
      <trkpt lat="46.44605" lon="-1.64527">
        <ele>3.1</ele>
        <time>2020-06-03T10:45:37Z</time>
      </trkpt>
      <trkpt lat="46.44604" lon="-1.64534">
        <ele>3.1</ele>
        <time>2020-06-03T10:45:38Z</time>
      </trkpt>
      <trkpt lat="46.44603" lon="-1.6454">
        <ele>3.2</ele>
        <time>2020-06-03T10:45:39Z</time>
      </trkpt>
      <trkpt lat="46.44602" lon="-1.64547">
        <ele>3.2</ele>
        <time>2020-06-03T10:45:40Z</time>
      </trkpt>
      <trkpt lat="46.44601" lon="-1.64554">
        <ele>3.2</ele>
        <time>2020-06-03T10:45:41Z</time>
      </trkpt>
      <trkpt lat="46.44601" lon="-1.64561">
        <ele>3.2</ele>
        <time>2020-06-03T10:45:42Z</time>
      </trkpt>
      <trkpt lat="46.446" lon="-1.64568">
        <ele>3.2</ele>
        <time>2020-06-03T10:45:43Z</time>
      </trkpt>
      <trkpt lat="46.44599" lon="-1.64575">
        <ele>3.2</ele>
        <time>2020-06-03T10:45:44Z</time>
      </trkpt>
      <trkpt lat="46.44598" lon="-1.64582">
        <ele>3.2</ele>
        <time>2020-06-03T10:45:45Z</time>
      </trkpt>
      <trkpt lat="46.44599" lon="-1.64589">
        <ele>3.2</ele>
        <time>2020-06-03T10:45:46Z</time>
      </trkpt>
      <trkpt lat="46.44597" lon="-1.64595">
        <ele>3.2</ele>
        <time>2020-06-03T10:45:47Z</time>
      </trkpt>
      <trkpt lat="46.44595" lon="-1.646">
        <ele>3.2</ele>
        <time>2020-06-03T10:45:48Z</time>
      </trkpt>
      <trkpt lat="46.44593" lon="-1.64605">
        <ele>3.2</ele>
        <time>2020-06-03T10:45:49Z</time>
      </trkpt>
      <trkpt lat="46.4459" lon="-1.64611">
        <ele>3.2</ele>
        <time>2020-06-03T10:45:50Z</time>
      </trkpt>
      <trkpt lat="46.44589" lon="-1.64615">
        <ele>3.2</ele>
        <time>2020-06-03T10:45:51Z</time>
      </trkpt>
      <trkpt lat="46.44588" lon="-1.64621">
        <ele>3.2</ele>
        <time>2020-06-03T10:45:52Z</time>
      </trkpt>
      <trkpt lat="46.44586" lon="-1.64626">
        <ele>3.2</ele>
        <time>2020-06-03T10:45:53Z</time>
      </trkpt>
      <trkpt lat="46.44586" lon="-1.64632">
        <ele>3.2</ele>
        <time>2020-06-03T10:45:54Z</time>
      </trkpt>
      <trkpt lat="46.44585" lon="-1.64639">
        <ele>3.2</ele>
        <time>2020-06-03T10:45:55Z</time>
      </trkpt>
      <trkpt lat="46.44585" lon="-1.64646">
        <ele>3.2</ele>
        <time>2020-06-03T10:45:56Z</time>
      </trkpt>
      <trkpt lat="46.44585" lon="-1.64652">
        <ele>3.2</ele>
        <time>2020-06-03T10:45:57Z</time>
      </trkpt>
      <trkpt lat="46.44585" lon="-1.64658">
        <ele>3.2</ele>
        <time>2020-06-03T10:45:58Z</time>
      </trkpt>
      <trkpt lat="46.44585" lon="-1.64665">
        <ele>3.2</ele>
        <time>2020-06-03T10:45:59Z</time>
      </trkpt>
      <trkpt lat="46.44586" lon="-1.6467">
        <ele>3.2</ele>
        <time>2020-06-03T10:46:00Z</time>
      </trkpt>
      <trkpt lat="46.44586" lon="-1.64676">
        <ele>3.2</ele>
        <time>2020-06-03T10:46:01Z</time>
      </trkpt>
      <trkpt lat="46.44587" lon="-1.64681">
        <ele>3.1</ele>
        <time>2020-06-03T10:46:02Z</time>
      </trkpt>
      <trkpt lat="46.44588" lon="-1.64686">
        <ele>3.1</ele>
        <time>2020-06-03T10:46:03Z</time>
      </trkpt>
      <trkpt lat="46.44588" lon="-1.64691">
        <ele>3.1</ele>
        <time>2020-06-03T10:46:04Z</time>
      </trkpt>
      <trkpt lat="46.4459" lon="-1.64695">
        <ele>3.1</ele>
        <time>2020-06-03T10:46:05Z</time>
      </trkpt>
      <trkpt lat="46.44591" lon="-1.647">
        <ele>3.1</ele>
        <time>2020-06-03T10:46:06Z</time>
      </trkpt>
      <trkpt lat="46.44592" lon="-1.64705">
        <ele>3.1</ele>
        <time>2020-06-03T10:46:07Z</time>
      </trkpt>
      <trkpt lat="46.44593" lon="-1.6471">
        <ele>3.1</ele>
        <time>2020-06-03T10:46:08Z</time>
      </trkpt>
      <trkpt lat="46.44596" lon="-1.64715">
        <ele>3.1</ele>
        <time>2020-06-03T10:46:09Z</time>
      </trkpt>
      <trkpt lat="46.44598" lon="-1.6472">
        <ele>3.1</ele>
        <time>2020-06-03T10:46:10Z</time>
      </trkpt>
      <trkpt lat="46.446" lon="-1.64725">
        <ele>3.1</ele>
        <time>2020-06-03T10:46:11Z</time>
      </trkpt>
      <trkpt lat="46.44602" lon="-1.64731">
        <ele>3.1</ele>
        <time>2020-06-03T10:46:12Z</time>
      </trkpt>
      <trkpt lat="46.44604" lon="-1.64736">
        <ele>3</ele>
        <time>2020-06-03T10:46:13Z</time>
      </trkpt>
      <trkpt lat="46.44607" lon="-1.6474">
        <ele>3</ele>
        <time>2020-06-03T10:46:14Z</time>
      </trkpt>
      <trkpt lat="46.4461" lon="-1.64744">
        <ele>3</ele>
        <time>2020-06-03T10:46:15Z</time>
      </trkpt>
      <trkpt lat="46.44613" lon="-1.64748">
        <ele>3</ele>
        <time>2020-06-03T10:46:16Z</time>
      </trkpt>
      <trkpt lat="46.44615" lon="-1.64753">
        <ele>3</ele>
        <time>2020-06-03T10:46:17Z</time>
      </trkpt>
      <trkpt lat="46.44617" lon="-1.64757">
        <ele>3</ele>
        <time>2020-06-03T10:46:18Z</time>
      </trkpt>
      <trkpt lat="46.4462" lon="-1.64761">
        <ele>3</ele>
        <time>2020-06-03T10:46:19Z</time>
      </trkpt>
      <trkpt lat="46.44622" lon="-1.64765">
        <ele>3</ele>
        <time>2020-06-03T10:46:20Z</time>
      </trkpt>
      <trkpt lat="46.44625" lon="-1.6477">
        <ele>2.9</ele>
        <time>2020-06-03T10:46:21Z</time>
      </trkpt>
      <trkpt lat="46.44627" lon="-1.64774">
        <ele>2.9</ele>
        <time>2020-06-03T10:46:22Z</time>
      </trkpt>
      <trkpt lat="46.4463" lon="-1.64777">
        <ele>2.9</ele>
        <time>2020-06-03T10:46:23Z</time>
      </trkpt>
      <trkpt lat="46.44632" lon="-1.6478">
        <ele>2.9</ele>
        <time>2020-06-03T10:46:24Z</time>
      </trkpt>
      <trkpt lat="46.44634" lon="-1.64784">
        <ele>2.9</ele>
        <time>2020-06-03T10:46:25Z</time>
      </trkpt>
      <trkpt lat="46.44636" lon="-1.64787">
        <ele>2.8</ele>
        <time>2020-06-03T10:46:26Z</time>
      </trkpt>
      <trkpt lat="46.44639" lon="-1.64792">
        <ele>2.8</ele>
        <time>2020-06-03T10:46:27Z</time>
      </trkpt>
      <trkpt lat="46.44642" lon="-1.64798">
        <ele>2.8</ele>
        <time>2020-06-03T10:46:28Z</time>
      </trkpt>
      <trkpt lat="46.44645" lon="-1.64805">
        <ele>2.8</ele>
        <time>2020-06-03T10:46:29Z</time>
      </trkpt>
      <trkpt lat="46.44648" lon="-1.64811">
        <ele>2.8</ele>
        <time>2020-06-03T10:46:30Z</time>
      </trkpt>
      <trkpt lat="46.44652" lon="-1.64816">
        <ele>2.8</ele>
        <time>2020-06-03T10:46:31Z</time>
      </trkpt>
      <trkpt lat="46.44656" lon="-1.64819">
        <ele>2.8</ele>
        <time>2020-06-03T10:46:32Z</time>
      </trkpt>
      <trkpt lat="46.44661" lon="-1.6482">
        <ele>2.8</ele>
        <time>2020-06-03T10:46:33Z</time>
      </trkpt>
      <trkpt lat="46.44664" lon="-1.64823">
        <ele>2.8</ele>
        <time>2020-06-03T10:46:34Z</time>
      </trkpt>
      <trkpt lat="46.44668" lon="-1.64824">
        <ele>2.8</ele>
        <time>2020-06-03T10:46:35Z</time>
      </trkpt>
      <trkpt lat="46.44672" lon="-1.64827">
        <ele>2.8</ele>
        <time>2020-06-03T10:46:36Z</time>
      </trkpt>
      <trkpt lat="46.44673" lon="-1.64832">
        <ele>2.8</ele>
        <time>2020-06-03T10:46:37Z</time>
      </trkpt>
      <trkpt lat="46.44673" lon="-1.64834">
        <ele>2.8</ele>
        <time>2020-06-03T10:46:38Z</time>
      </trkpt>
      <trkpt lat="46.44672" lon="-1.6484">
        <ele>2.8</ele>
        <time>2020-06-03T10:46:39Z</time>
      </trkpt>
      <trkpt lat="46.4467" lon="-1.64844">
        <ele>2.8</ele>
        <time>2020-06-03T10:46:40Z</time>
      </trkpt>
      <trkpt lat="46.44667" lon="-1.64848">
        <ele>2.8</ele>
        <time>2020-06-03T10:46:41Z</time>
      </trkpt>
      <trkpt lat="46.44666" lon="-1.64849">
        <ele>2.8</ele>
        <time>2020-06-03T10:46:42Z</time>
      </trkpt>
      <trkpt lat="46.44663" lon="-1.64852">
        <ele>2.9</ele>
        <time>2020-06-03T10:46:43Z</time>
      </trkpt>
      <trkpt lat="46.44662" lon="-1.64852">
        <ele>2.9</ele>
        <time>2020-06-03T10:46:44Z</time>
      </trkpt>
      <trkpt lat="46.44659" lon="-1.64853">
        <ele>2.9</ele>
        <time>2020-06-03T10:46:45Z</time>
      </trkpt>
      <trkpt lat="46.44656" lon="-1.64854">
        <ele>2.9</ele>
        <time>2020-06-03T10:46:46Z</time>
      </trkpt>
      <trkpt lat="46.44652" lon="-1.64856">
        <ele>2.9</ele>
        <time>2020-06-03T10:46:47Z</time>
      </trkpt>
      <trkpt lat="46.44651" lon="-1.64856">
        <ele>3</ele>
        <time>2020-06-03T10:46:48Z</time>
      </trkpt>
      <trkpt lat="46.44648" lon="-1.64856">
        <ele>3</ele>
        <time>2020-06-03T10:46:49Z</time>
      </trkpt>
      <trkpt lat="46.44646" lon="-1.64857">
        <ele>3</ele>
        <time>2020-06-03T10:46:50Z</time>
      </trkpt>
      <trkpt lat="46.44643" lon="-1.64857">
        <ele>3</ele>
        <time>2020-06-03T10:46:51Z</time>
      </trkpt>
      <trkpt lat="46.44642" lon="-1.64857">
        <ele>3</ele>
        <time>2020-06-03T10:46:52Z</time>
      </trkpt>
      <trkpt lat="46.44638" lon="-1.64858">
        <ele>3</ele>
        <time>2020-06-03T10:46:53Z</time>
      </trkpt>
      <trkpt lat="46.44636" lon="-1.64858">
        <ele>3</ele>
        <time>2020-06-03T10:46:54Z</time>
      </trkpt>
      <trkpt lat="46.44633" lon="-1.64859">
        <ele>3</ele>
        <time>2020-06-03T10:46:55Z</time>
      </trkpt>
      <trkpt lat="46.4463" lon="-1.64859">
        <ele>3</ele>
        <time>2020-06-03T10:46:56Z</time>
      </trkpt>
      <trkpt lat="46.44626" lon="-1.64857">
        <ele>3</ele>
        <time>2020-06-03T10:46:57Z</time>
      </trkpt>
      <trkpt lat="46.44622" lon="-1.64857">
        <ele>3</ele>
        <time>2020-06-03T10:46:58Z</time>
      </trkpt>
      <trkpt lat="46.44618" lon="-1.64857">
        <ele>2.9</ele>
        <time>2020-06-03T10:46:59Z</time>
      </trkpt>
      <trkpt lat="46.44614" lon="-1.64856">
        <ele>2.9</ele>
        <time>2020-06-03T10:47:00Z</time>
      </trkpt>
      <trkpt lat="46.4461" lon="-1.64856">
        <ele>2.9</ele>
        <time>2020-06-03T10:47:01Z</time>
      </trkpt>
      <trkpt lat="46.44605" lon="-1.64855">
        <ele>2.8</ele>
        <time>2020-06-03T10:47:02Z</time>
      </trkpt>
      <trkpt lat="46.446" lon="-1.64855">
        <ele>2.8</ele>
        <time>2020-06-03T10:47:03Z</time>
      </trkpt>
      <trkpt lat="46.44596" lon="-1.64855">
        <ele>2.8</ele>
        <time>2020-06-03T10:47:04Z</time>
      </trkpt>
      <trkpt lat="46.44592" lon="-1.64854">
        <ele>2.8</ele>
        <time>2020-06-03T10:47:05Z</time>
      </trkpt>
      <trkpt lat="46.44587" lon="-1.64854">
        <ele>2.7</ele>
        <time>2020-06-03T10:47:06Z</time>
      </trkpt>
      <trkpt lat="46.44582" lon="-1.64855">
        <ele>2.7</ele>
        <time>2020-06-03T10:47:07Z</time>
      </trkpt>
      <trkpt lat="46.44577" lon="-1.64856">
        <ele>2.7</ele>
        <time>2020-06-03T10:47:08Z</time>
      </trkpt>
      <trkpt lat="46.44573" lon="-1.64857">
        <ele>2.7</ele>
        <time>2020-06-03T10:47:09Z</time>
      </trkpt>
      <trkpt lat="46.44569" lon="-1.64858">
        <ele>2.7</ele>
        <time>2020-06-03T10:47:10Z</time>
      </trkpt>
      <trkpt lat="46.44564" lon="-1.6486">
        <ele>2.7</ele>
        <time>2020-06-03T10:47:11Z</time>
      </trkpt>
      <trkpt lat="46.44559" lon="-1.64861">
        <ele>2.7</ele>
        <time>2020-06-03T10:47:12Z</time>
      </trkpt>
      <trkpt lat="46.44554" lon="-1.64861">
        <ele>2.7</ele>
        <time>2020-06-03T10:47:13Z</time>
      </trkpt>
      <trkpt lat="46.44549" lon="-1.64861">
        <ele>2.7</ele>
        <time>2020-06-03T10:47:14Z</time>
      </trkpt>
      <trkpt lat="46.44544" lon="-1.64861">
        <ele>2.8</ele>
        <time>2020-06-03T10:47:15Z</time>
      </trkpt>
      <trkpt lat="46.4454" lon="-1.64862">
        <ele>2.8</ele>
        <time>2020-06-03T10:47:16Z</time>
      </trkpt>
      <trkpt lat="46.44536" lon="-1.64862">
        <ele>2.9</ele>
        <time>2020-06-03T10:47:17Z</time>
      </trkpt>
      <trkpt lat="46.44532" lon="-1.64863">
        <ele>2.9</ele>
        <time>2020-06-03T10:47:18Z</time>
      </trkpt>
      <trkpt lat="46.44527" lon="-1.64863">
        <ele>2.9</ele>
        <time>2020-06-03T10:47:19Z</time>
      </trkpt>
      <trkpt lat="46.44524" lon="-1.64863">
        <ele>2.9</ele>
        <time>2020-06-03T10:47:20Z</time>
      </trkpt>
      <trkpt lat="46.4452" lon="-1.64864">
        <ele>3</ele>
        <time>2020-06-03T10:47:21Z</time>
      </trkpt>
      <trkpt lat="46.44515" lon="-1.64865">
        <ele>3</ele>
        <time>2020-06-03T10:47:22Z</time>
      </trkpt>
      <trkpt lat="46.44511" lon="-1.64865">
        <ele>3</ele>
        <time>2020-06-03T10:47:23Z</time>
      </trkpt>
      <trkpt lat="46.44507" lon="-1.64865">
        <ele>3.1</ele>
        <time>2020-06-03T10:47:24Z</time>
      </trkpt>
      <trkpt lat="46.44503" lon="-1.64865">
        <ele>3.1</ele>
        <time>2020-06-03T10:47:25Z</time>
      </trkpt>
      <trkpt lat="46.44499" lon="-1.64865">
        <ele>3.1</ele>
        <time>2020-06-03T10:47:26Z</time>
      </trkpt>
      <trkpt lat="46.44496" lon="-1.64865">
        <ele>3.1</ele>
        <time>2020-06-03T10:47:27Z</time>
      </trkpt>
      <trkpt lat="46.44492" lon="-1.64864">
        <ele>3.1</ele>
        <time>2020-06-03T10:47:28Z</time>
      </trkpt>
      <trkpt lat="46.44488" lon="-1.64862">
        <ele>3.1</ele>
        <time>2020-06-03T10:47:29Z</time>
      </trkpt>
      <trkpt lat="46.44484" lon="-1.6486">
        <ele>3.1</ele>
        <time>2020-06-03T10:47:30Z</time>
      </trkpt>
      <trkpt lat="46.4448" lon="-1.64856">
        <ele>3.1</ele>
        <time>2020-06-03T10:47:31Z</time>
      </trkpt>
      <trkpt lat="46.44476" lon="-1.64855">
        <ele>3.1</ele>
        <time>2020-06-03T10:47:32Z</time>
      </trkpt>
      <trkpt lat="46.44471" lon="-1.64853">
        <ele>3.1</ele>
        <time>2020-06-03T10:47:33Z</time>
      </trkpt>
      <trkpt lat="46.44466" lon="-1.64852">
        <ele>3.1</ele>
        <time>2020-06-03T10:47:34Z</time>
      </trkpt>
      <trkpt lat="46.44462" lon="-1.6485">
        <ele>3.1</ele>
        <time>2020-06-03T10:47:35Z</time>
      </trkpt>
      <trkpt lat="46.44457" lon="-1.64847">
        <ele>3.2</ele>
        <time>2020-06-03T10:47:36Z</time>
      </trkpt>
      <trkpt lat="46.44453" lon="-1.64845">
        <ele>3.2</ele>
        <time>2020-06-03T10:47:37Z</time>
      </trkpt>
      <trkpt lat="46.44448" lon="-1.64843">
        <ele>3.2</ele>
        <time>2020-06-03T10:47:38Z</time>
      </trkpt>
      <trkpt lat="46.44444" lon="-1.64841">
        <ele>3.2</ele>
        <time>2020-06-03T10:47:39Z</time>
      </trkpt>
      <trkpt lat="46.44439" lon="-1.64839">
        <ele>3.2</ele>
        <time>2020-06-03T10:47:40Z</time>
      </trkpt>
      <trkpt lat="46.44435" lon="-1.64837">
        <ele>3.1</ele>
        <time>2020-06-03T10:47:41Z</time>
      </trkpt>
      <trkpt lat="46.4443" lon="-1.64836">
        <ele>3.1</ele>
        <time>2020-06-03T10:47:42Z</time>
      </trkpt>
      <trkpt lat="46.44425" lon="-1.64834">
        <ele>3.1</ele>
        <time>2020-06-03T10:47:43Z</time>
      </trkpt>
      <trkpt lat="46.4442" lon="-1.64832">
        <ele>3.1</ele>
        <time>2020-06-03T10:47:44Z</time>
      </trkpt>
      <trkpt lat="46.44416" lon="-1.6483">
        <ele>3</ele>
        <time>2020-06-03T10:47:45Z</time>
      </trkpt>
      <trkpt lat="46.44411" lon="-1.64828">
        <ele>3</ele>
        <time>2020-06-03T10:47:46Z</time>
      </trkpt>
      <trkpt lat="46.44406" lon="-1.64826">
        <ele>3</ele>
        <time>2020-06-03T10:47:47Z</time>
      </trkpt>
      <trkpt lat="46.44402" lon="-1.64825">
        <ele>2.9</ele>
        <time>2020-06-03T10:47:48Z</time>
      </trkpt>
      <trkpt lat="46.44398" lon="-1.64824">
        <ele>2.9</ele>
        <time>2020-06-03T10:47:49Z</time>
      </trkpt>
      <trkpt lat="46.44393" lon="-1.64823">
        <ele>2.9</ele>
        <time>2020-06-03T10:47:50Z</time>
      </trkpt>
      <trkpt lat="46.44389" lon="-1.64822">
        <ele>2.8</ele>
        <time>2020-06-03T10:47:51Z</time>
      </trkpt>
      <trkpt lat="46.44384" lon="-1.64821">
        <ele>2.8</ele>
        <time>2020-06-03T10:47:52Z</time>
      </trkpt>
      <trkpt lat="46.4438" lon="-1.6482">
        <ele>2.8</ele>
        <time>2020-06-03T10:47:53Z</time>
      </trkpt>
      <trkpt lat="46.44375" lon="-1.64819">
        <ele>2.7</ele>
        <time>2020-06-03T10:47:54Z</time>
      </trkpt>
      <trkpt lat="46.4437" lon="-1.64818">
        <ele>2.7</ele>
        <time>2020-06-03T10:47:55Z</time>
      </trkpt>
      <trkpt lat="46.44364" lon="-1.64816">
        <ele>2.7</ele>
        <time>2020-06-03T10:47:56Z</time>
      </trkpt>
      <trkpt lat="46.44358" lon="-1.64814">
        <ele>2.7</ele>
        <time>2020-06-03T10:47:57Z</time>
      </trkpt>
      <trkpt lat="46.44353" lon="-1.64813">
        <ele>2.6</ele>
        <time>2020-06-03T10:47:58Z</time>
      </trkpt>
      <trkpt lat="46.44348" lon="-1.64811">
        <ele>2.6</ele>
        <time>2020-06-03T10:47:59Z</time>
      </trkpt>
      <trkpt lat="46.44344" lon="-1.6481">
        <ele>2.6</ele>
        <time>2020-06-03T10:48:00Z</time>
      </trkpt>
      <trkpt lat="46.44339" lon="-1.64809">
        <ele>2.6</ele>
        <time>2020-06-03T10:48:01Z</time>
      </trkpt>
      <trkpt lat="46.44335" lon="-1.64807">
        <ele>2.6</ele>
        <time>2020-06-03T10:48:02Z</time>
      </trkpt>
      <trkpt lat="46.4433" lon="-1.64807">
        <ele>2.6</ele>
        <time>2020-06-03T10:48:03Z</time>
      </trkpt>
      <trkpt lat="46.44325" lon="-1.64806">
        <ele>2.6</ele>
        <time>2020-06-03T10:48:04Z</time>
      </trkpt>
      <trkpt lat="46.4432" lon="-1.64805">
        <ele>2.6</ele>
        <time>2020-06-03T10:48:05Z</time>
      </trkpt>
      <trkpt lat="46.44315" lon="-1.64805">
        <ele>2.6</ele>
        <time>2020-06-03T10:48:06Z</time>
      </trkpt>
      <trkpt lat="46.44312" lon="-1.64809">
        <ele>2.6</ele>
        <time>2020-06-03T10:48:07Z</time>
      </trkpt>
      <trkpt lat="46.4431" lon="-1.64814">
        <ele>2.6</ele>
        <time>2020-06-03T10:48:08Z</time>
      </trkpt>
      <trkpt lat="46.44309" lon="-1.6482">
        <ele>2.6</ele>
        <time>2020-06-03T10:48:09Z</time>
      </trkpt>
      <trkpt lat="46.44309" lon="-1.64826">
        <ele>2.6</ele>
        <time>2020-06-03T10:48:10Z</time>
      </trkpt>
      <trkpt lat="46.44309" lon="-1.64832">
        <ele>2.6</ele>
        <time>2020-06-03T10:48:11Z</time>
      </trkpt>
      <trkpt lat="46.44309" lon="-1.6484">
        <ele>2.7</ele>
        <time>2020-06-03T10:48:12Z</time>
      </trkpt>
      <trkpt lat="46.44309" lon="-1.64847">
        <ele>2.7</ele>
        <time>2020-06-03T10:48:13Z</time>
      </trkpt>
      <trkpt lat="46.44309" lon="-1.64855">
        <ele>2.7</ele>
        <time>2020-06-03T10:48:14Z</time>
      </trkpt>
      <trkpt lat="46.44309" lon="-1.64862">
        <ele>2.7</ele>
        <time>2020-06-03T10:48:15Z</time>
      </trkpt>
      <trkpt lat="46.4431" lon="-1.64869">
        <ele>2.7</ele>
        <time>2020-06-03T10:48:16Z</time>
      </trkpt>
      <trkpt lat="46.4431" lon="-1.64875">
        <ele>2.7</ele>
        <time>2020-06-03T10:48:17Z</time>
      </trkpt>
      <trkpt lat="46.44311" lon="-1.64883">
        <ele>2.7</ele>
        <time>2020-06-03T10:48:18Z</time>
      </trkpt>
      <trkpt lat="46.44308" lon="-1.64888">
        <ele>2.7</ele>
        <time>2020-06-03T10:48:19Z</time>
      </trkpt>
      <trkpt lat="46.44307" lon="-1.64894">
        <ele>2.8</ele>
        <time>2020-06-03T10:48:20Z</time>
      </trkpt>
      <trkpt lat="46.44306" lon="-1.64901">
        <ele>2.8</ele>
        <time>2020-06-03T10:48:21Z</time>
      </trkpt>
      <trkpt lat="46.44305" lon="-1.64907">
        <ele>2.8</ele>
        <time>2020-06-03T10:48:22Z</time>
      </trkpt>
      <trkpt lat="46.44303" lon="-1.64913">
        <ele>2.8</ele>
        <time>2020-06-03T10:48:23Z</time>
      </trkpt>
      <trkpt lat="46.44302" lon="-1.6492">
        <ele>2.8</ele>
        <time>2020-06-03T10:48:24Z</time>
      </trkpt>
      <trkpt lat="46.44301" lon="-1.64927">
        <ele>2.8</ele>
        <time>2020-06-03T10:48:25Z</time>
      </trkpt>
      <trkpt lat="46.44299" lon="-1.64935">
        <ele>2.8</ele>
        <time>2020-06-03T10:48:26Z</time>
      </trkpt>
      <trkpt lat="46.44297" lon="-1.64942">
        <ele>2.8</ele>
        <time>2020-06-03T10:48:27Z</time>
      </trkpt>
      <trkpt lat="46.44294" lon="-1.64948">
        <ele>2.8</ele>
        <time>2020-06-03T10:48:28Z</time>
      </trkpt>
      <trkpt lat="46.44292" lon="-1.64955">
        <ele>2.8</ele>
        <time>2020-06-03T10:48:29Z</time>
      </trkpt>
      <trkpt lat="46.4429" lon="-1.64962">
        <ele>2.8</ele>
        <time>2020-06-03T10:48:30Z</time>
      </trkpt>
      <trkpt lat="46.44287" lon="-1.64969">
        <ele>2.8</ele>
        <time>2020-06-03T10:48:31Z</time>
      </trkpt>
      <trkpt lat="46.44284" lon="-1.64977">
        <ele>2.8</ele>
        <time>2020-06-03T10:48:32Z</time>
      </trkpt>
      <trkpt lat="46.44281" lon="-1.64983">
        <ele>2.8</ele>
        <time>2020-06-03T10:48:33Z</time>
      </trkpt>
      <trkpt lat="46.44278" lon="-1.6499">
        <ele>2.8</ele>
        <time>2020-06-03T10:48:34Z</time>
      </trkpt>
      <trkpt lat="46.44276" lon="-1.64997">
        <ele>2.8</ele>
        <time>2020-06-03T10:48:35Z</time>
      </trkpt>
      <trkpt lat="46.44273" lon="-1.65003">
        <ele>2.8</ele>
        <time>2020-06-03T10:48:36Z</time>
      </trkpt>
      <trkpt lat="46.4427" lon="-1.6501">
        <ele>2.8</ele>
        <time>2020-06-03T10:48:37Z</time>
      </trkpt>
      <trkpt lat="46.44268" lon="-1.65017">
        <ele>2.8</ele>
        <time>2020-06-03T10:48:38Z</time>
      </trkpt>
      <trkpt lat="46.44266" lon="-1.65024">
        <ele>2.8</ele>
        <time>2020-06-03T10:48:39Z</time>
      </trkpt>
      <trkpt lat="46.44263" lon="-1.65031">
        <ele>2.8</ele>
        <time>2020-06-03T10:48:40Z</time>
      </trkpt>
      <trkpt lat="46.44262" lon="-1.65037">
        <ele>2.8</ele>
        <time>2020-06-03T10:48:41Z</time>
      </trkpt>
      <trkpt lat="46.44261" lon="-1.65044">
        <ele>2.8</ele>
        <time>2020-06-03T10:48:42Z</time>
      </trkpt>
      <trkpt lat="46.44261" lon="-1.65051">
        <ele>2.8</ele>
        <time>2020-06-03T10:48:43Z</time>
      </trkpt>
      <trkpt lat="46.4426" lon="-1.65057">
        <ele>2.8</ele>
        <time>2020-06-03T10:48:44Z</time>
      </trkpt>
      <trkpt lat="46.44259" lon="-1.65062">
        <ele>2.8</ele>
        <time>2020-06-03T10:48:45Z</time>
      </trkpt>
      <trkpt lat="46.44259" lon="-1.65067">
        <ele>2.8</ele>
        <time>2020-06-03T10:48:46Z</time>
      </trkpt>
      <trkpt lat="46.44258" lon="-1.65071">
        <ele>2.9</ele>
        <time>2020-06-03T10:48:47Z</time>
      </trkpt>
      <trkpt lat="46.44256" lon="-1.65075">
        <ele>2.9</ele>
        <time>2020-06-03T10:48:48Z</time>
      </trkpt>
      <trkpt lat="46.44253" lon="-1.65078">
        <ele>2.9</ele>
        <time>2020-06-03T10:48:49Z</time>
      </trkpt>
      <trkpt lat="46.44249" lon="-1.65079">
        <ele>2.9</ele>
        <time>2020-06-03T10:48:50Z</time>
      </trkpt>
      <trkpt lat="46.44245" lon="-1.65081">
        <ele>2.7</ele>
        <time>2020-06-03T10:48:51Z</time>
      </trkpt>
      <trkpt lat="46.44242" lon="-1.65083">
        <ele>2.7</ele>
        <time>2020-06-03T10:48:52Z</time>
      </trkpt>
      <trkpt lat="46.4424" lon="-1.65085">
        <ele>2.7</ele>
        <time>2020-06-03T10:48:53Z</time>
      </trkpt>
      <trkpt lat="46.44237" lon="-1.65087">
        <ele>2.6</ele>
        <time>2020-06-03T10:48:54Z</time>
      </trkpt>
      <trkpt lat="46.44235" lon="-1.65091">
        <ele>2.6</ele>
        <time>2020-06-03T10:48:55Z</time>
      </trkpt>
      <trkpt lat="46.44234" lon="-1.65096">
        <ele>2.5</ele>
        <time>2020-06-03T10:48:56Z</time>
      </trkpt>
      <trkpt lat="46.44233" lon="-1.651">
        <ele>2.5</ele>
        <time>2020-06-03T10:48:57Z</time>
      </trkpt>
      <trkpt lat="46.44231" lon="-1.65104">
        <ele>2.4</ele>
        <time>2020-06-03T10:48:58Z</time>
      </trkpt>
      <trkpt lat="46.4423" lon="-1.65107">
        <ele>2.4</ele>
        <time>2020-06-03T10:48:59Z</time>
      </trkpt>
      <trkpt lat="46.44229" lon="-1.65111">
        <ele>2.3</ele>
        <time>2020-06-03T10:49:00Z</time>
      </trkpt>
      <trkpt lat="46.44228" lon="-1.65115">
        <ele>2.3</ele>
        <time>2020-06-03T10:49:01Z</time>
      </trkpt>
      <trkpt lat="46.44225" lon="-1.65118">
        <ele>2.2</ele>
        <time>2020-06-03T10:49:02Z</time>
      </trkpt>
      <trkpt lat="46.44224" lon="-1.6512">
        <ele>2.2</ele>
        <time>2020-06-03T10:49:03Z</time>
      </trkpt>
      <trkpt lat="46.4422" lon="-1.65123">
        <ele>2.2</ele>
        <time>2020-06-03T10:49:04Z</time>
      </trkpt>
      <trkpt lat="46.44219" lon="-1.65124">
        <ele>2.2</ele>
        <time>2020-06-03T10:49:05Z</time>
      </trkpt>
      <trkpt lat="46.44217" lon="-1.65126">
        <ele>2.3</ele>
        <time>2020-06-03T10:49:06Z</time>
      </trkpt>
      <trkpt lat="46.44214" lon="-1.65129">
        <ele>2.3</ele>
        <time>2020-06-03T10:49:07Z</time>
      </trkpt>
      <trkpt lat="46.44211" lon="-1.65131">
        <ele>2.3</ele>
        <time>2020-06-03T10:49:08Z</time>
      </trkpt>
      <trkpt lat="46.44208" lon="-1.65133">
        <ele>2.3</ele>
        <time>2020-06-03T10:49:09Z</time>
      </trkpt>
      <trkpt lat="46.44205" lon="-1.65135">
        <ele>2.3</ele>
        <time>2020-06-03T10:49:10Z</time>
      </trkpt>
      <trkpt lat="46.44201" lon="-1.65137">
        <ele>2.3</ele>
        <time>2020-06-03T10:49:11Z</time>
      </trkpt>
      <trkpt lat="46.44197" lon="-1.65138">
        <ele>2.3</ele>
        <time>2020-06-03T10:49:12Z</time>
      </trkpt>
      <trkpt lat="46.44194" lon="-1.6514">
        <ele>2.3</ele>
        <time>2020-06-03T10:49:13Z</time>
      </trkpt>
      <trkpt lat="46.44192" lon="-1.65143">
        <ele>2.3</ele>
        <time>2020-06-03T10:49:14Z</time>
      </trkpt>
      <trkpt lat="46.44189" lon="-1.65145">
        <ele>2.3</ele>
        <time>2020-06-03T10:49:15Z</time>
      </trkpt>
      <trkpt lat="46.44185" lon="-1.65148">
        <ele>2.4</ele>
        <time>2020-06-03T10:49:16Z</time>
      </trkpt>
      <trkpt lat="46.44182" lon="-1.65151">
        <ele>2.4</ele>
        <time>2020-06-03T10:49:17Z</time>
      </trkpt>
      <trkpt lat="46.44179" lon="-1.65154">
        <ele>2.4</ele>
        <time>2020-06-03T10:49:18Z</time>
      </trkpt>
      <trkpt lat="46.44175" lon="-1.65157">
        <ele>2.5</ele>
        <time>2020-06-03T10:49:19Z</time>
      </trkpt>
      <trkpt lat="46.4417" lon="-1.6516">
        <ele>2.5</ele>
        <time>2020-06-03T10:49:20Z</time>
      </trkpt>
      <trkpt lat="46.44167" lon="-1.65164">
        <ele>2.6</ele>
        <time>2020-06-03T10:49:21Z</time>
      </trkpt>
      <trkpt lat="46.44162" lon="-1.65167">
        <ele>2.6</ele>
        <time>2020-06-03T10:49:22Z</time>
      </trkpt>
      <trkpt lat="46.44159" lon="-1.6517">
        <ele>2.7</ele>
        <time>2020-06-03T10:49:23Z</time>
      </trkpt>
      <trkpt lat="46.44155" lon="-1.65173">
        <ele>2.7</ele>
        <time>2020-06-03T10:49:24Z</time>
      </trkpt>
      <trkpt lat="46.44152" lon="-1.65177">
        <ele>2.8</ele>
        <time>2020-06-03T10:49:25Z</time>
      </trkpt>
      <trkpt lat="46.44148" lon="-1.65181">
        <ele>2.8</ele>
        <time>2020-06-03T10:49:26Z</time>
      </trkpt>
      <trkpt lat="46.44144" lon="-1.65185">
        <ele>2.9</ele>
        <time>2020-06-03T10:49:27Z</time>
      </trkpt>
      <trkpt lat="46.4414" lon="-1.65189">
        <ele>3</ele>
        <time>2020-06-03T10:49:28Z</time>
      </trkpt>
      <trkpt lat="46.44137" lon="-1.65193">
        <ele>3</ele>
        <time>2020-06-03T10:49:29Z</time>
      </trkpt>
      <trkpt lat="46.44134" lon="-1.65197">
        <ele>3.1</ele>
        <time>2020-06-03T10:49:30Z</time>
      </trkpt>
      <trkpt lat="46.4413" lon="-1.65202">
        <ele>3.2</ele>
        <time>2020-06-03T10:49:31Z</time>
      </trkpt>
      <trkpt lat="46.44126" lon="-1.65206">
        <ele>3.2</ele>
        <time>2020-06-03T10:49:32Z</time>
      </trkpt>
      <trkpt lat="46.44123" lon="-1.6521">
        <ele>3.3</ele>
        <time>2020-06-03T10:49:33Z</time>
      </trkpt>
      <trkpt lat="46.44119" lon="-1.65213">
        <ele>3.4</ele>
        <time>2020-06-03T10:49:34Z</time>
      </trkpt>
      <trkpt lat="46.44115" lon="-1.65217">
        <ele>3.5</ele>
        <time>2020-06-03T10:49:35Z</time>
      </trkpt>
      <trkpt lat="46.4411" lon="-1.6522">
        <ele>3.5</ele>
        <time>2020-06-03T10:49:36Z</time>
      </trkpt>
      <trkpt lat="46.44106" lon="-1.65223">
        <ele>3.6</ele>
        <time>2020-06-03T10:49:37Z</time>
      </trkpt>
      <trkpt lat="46.44102" lon="-1.65226">
        <ele>3.7</ele>
        <time>2020-06-03T10:49:38Z</time>
      </trkpt>
      <trkpt lat="46.44097" lon="-1.6523">
        <ele>3.9</ele>
        <time>2020-06-03T10:49:39Z</time>
      </trkpt>
      <trkpt lat="46.44094" lon="-1.65234">
        <ele>4</ele>
        <time>2020-06-03T10:49:40Z</time>
      </trkpt>
      <trkpt lat="46.4409" lon="-1.65237">
        <ele>4.2</ele>
        <time>2020-06-03T10:49:41Z</time>
      </trkpt>
      <trkpt lat="46.44086" lon="-1.6524">
        <ele>4.3</ele>
        <time>2020-06-03T10:49:42Z</time>
      </trkpt>
      <trkpt lat="46.44083" lon="-1.65242">
        <ele>4.5</ele>
        <time>2020-06-03T10:49:43Z</time>
      </trkpt>
      <trkpt lat="46.44079" lon="-1.65244">
        <ele>4.7</ele>
        <time>2020-06-03T10:49:44Z</time>
      </trkpt>
      <trkpt lat="46.44075" lon="-1.65247">
        <ele>4.9</ele>
        <time>2020-06-03T10:49:45Z</time>
      </trkpt>
      <trkpt lat="46.44071" lon="-1.65249">
        <ele>5.1</ele>
        <time>2020-06-03T10:49:46Z</time>
      </trkpt>
      <trkpt lat="46.44066" lon="-1.65251">
        <ele>5.4</ele>
        <time>2020-06-03T10:49:47Z</time>
      </trkpt>
      <trkpt lat="46.44063" lon="-1.65253">
        <ele>5.6</ele>
        <time>2020-06-03T10:49:48Z</time>
      </trkpt>
      <trkpt lat="46.44059" lon="-1.65253">
        <ele>5.8</ele>
        <time>2020-06-03T10:49:49Z</time>
      </trkpt>
      <trkpt lat="46.44055" lon="-1.65254">
        <ele>6</ele>
        <time>2020-06-03T10:49:50Z</time>
      </trkpt>
      <trkpt lat="46.44051" lon="-1.65254">
        <ele>6.1</ele>
        <time>2020-06-03T10:49:51Z</time>
      </trkpt>
      <trkpt lat="46.44047" lon="-1.65255">
        <ele>6.3</ele>
        <time>2020-06-03T10:49:52Z</time>
      </trkpt>
      <trkpt lat="46.44043" lon="-1.65256">
        <ele>6.5</ele>
        <time>2020-06-03T10:49:53Z</time>
      </trkpt>
      <trkpt lat="46.4404" lon="-1.65257">
        <ele>6.6</ele>
        <time>2020-06-03T10:49:54Z</time>
      </trkpt>
      <trkpt lat="46.44037" lon="-1.65259">
        <ele>6.7</ele>
        <time>2020-06-03T10:49:55Z</time>
      </trkpt>
      <trkpt lat="46.44036" lon="-1.65264">
        <ele>6.8</ele>
        <time>2020-06-03T10:49:56Z</time>
      </trkpt>
      <trkpt lat="46.44036" lon="-1.65271">
        <ele>7.1</ele>
        <time>2020-06-03T10:49:57Z</time>
      </trkpt>
      <trkpt lat="46.44036" lon="-1.65276">
        <ele>7.1</ele>
        <time>2020-06-03T10:49:58Z</time>
      </trkpt>
      <trkpt lat="46.44034" lon="-1.65282">
        <ele>7.2</ele>
        <time>2020-06-03T10:49:59Z</time>
      </trkpt>
      <trkpt lat="46.44034" lon="-1.65286">
        <ele>7.3</ele>
        <time>2020-06-03T10:50:00Z</time>
      </trkpt>
      <trkpt lat="46.44034" lon="-1.65292">
        <ele>7.4</ele>
        <time>2020-06-03T10:50:01Z</time>
      </trkpt>
      <trkpt lat="46.44034" lon="-1.65298">
        <ele>7.6</ele>
        <time>2020-06-03T10:50:02Z</time>
      </trkpt>
      <trkpt lat="46.44033" lon="-1.65305">
        <ele>7.8</ele>
        <time>2020-06-03T10:50:03Z</time>
      </trkpt>
      <trkpt lat="46.44032" lon="-1.65311">
        <ele>7.9</ele>
        <time>2020-06-03T10:50:04Z</time>
      </trkpt>
      <trkpt lat="46.44032" lon="-1.65317">
        <ele>8</ele>
        <time>2020-06-03T10:50:05Z</time>
      </trkpt>
      <trkpt lat="46.44032" lon="-1.65323">
        <ele>8.1</ele>
        <time>2020-06-03T10:50:06Z</time>
      </trkpt>
      <trkpt lat="46.44031" lon="-1.65329">
        <ele>8.2</ele>
        <time>2020-06-03T10:50:07Z</time>
      </trkpt>
      <trkpt lat="46.44031" lon="-1.65335">
        <ele>8.3</ele>
        <time>2020-06-03T10:50:08Z</time>
      </trkpt>
      <trkpt lat="46.44031" lon="-1.65341">
        <ele>8.3</ele>
        <time>2020-06-03T10:50:09Z</time>
      </trkpt>
      <trkpt lat="46.44032" lon="-1.65346">
        <ele>8.4</ele>
        <time>2020-06-03T10:50:10Z</time>
      </trkpt>
      <trkpt lat="46.44032" lon="-1.6535">
        <ele>8.4</ele>
        <time>2020-06-03T10:50:11Z</time>
      </trkpt>
      <trkpt lat="46.44033" lon="-1.65357">
        <ele>8.5</ele>
        <time>2020-06-03T10:50:12Z</time>
      </trkpt>
      <trkpt lat="46.44032" lon="-1.65363">
        <ele>8.6</ele>
        <time>2020-06-03T10:50:13Z</time>
      </trkpt>
      <trkpt lat="46.44031" lon="-1.65368">
        <ele>8.7</ele>
        <time>2020-06-03T10:50:14Z</time>
      </trkpt>
      <trkpt lat="46.4403" lon="-1.65372">
        <ele>8.8</ele>
        <time>2020-06-03T10:50:15Z</time>
      </trkpt>
      <trkpt lat="46.4403" lon="-1.65377">
        <ele>8.9</ele>
        <time>2020-06-03T10:50:16Z</time>
      </trkpt>
      <trkpt lat="46.44029" lon="-1.65382">
        <ele>9</ele>
        <time>2020-06-03T10:50:17Z</time>
      </trkpt>
      <trkpt lat="46.44029" lon="-1.65387">
        <ele>9.1</ele>
        <time>2020-06-03T10:50:18Z</time>
      </trkpt>
      <trkpt lat="46.44029" lon="-1.65393">
        <ele>9.2</ele>
        <time>2020-06-03T10:50:19Z</time>
      </trkpt>
      <trkpt lat="46.44029" lon="-1.65398">
        <ele>9.3</ele>
        <time>2020-06-03T10:50:20Z</time>
      </trkpt>
      <trkpt lat="46.44029" lon="-1.65402">
        <ele>9.4</ele>
        <time>2020-06-03T10:50:21Z</time>
      </trkpt>
      <trkpt lat="46.44028" lon="-1.65408">
        <ele>9.5</ele>
        <time>2020-06-03T10:50:22Z</time>
      </trkpt>
      <trkpt lat="46.44028" lon="-1.65415">
        <ele>9.6</ele>
        <time>2020-06-03T10:50:23Z</time>
      </trkpt>
      <trkpt lat="46.44027" lon="-1.65421">
        <ele>9.7</ele>
        <time>2020-06-03T10:50:24Z</time>
      </trkpt>
      <trkpt lat="46.44026" lon="-1.65427">
        <ele>9.7</ele>
        <time>2020-06-03T10:50:25Z</time>
      </trkpt>
      <trkpt lat="46.44025" lon="-1.65432">
        <ele>9.8</ele>
        <time>2020-06-03T10:50:26Z</time>
      </trkpt>
      <trkpt lat="46.44024" lon="-1.65438">
        <ele>9.9</ele>
        <time>2020-06-03T10:50:27Z</time>
      </trkpt>
      <trkpt lat="46.44023" lon="-1.65443">
        <ele>9.9</ele>
        <time>2020-06-03T10:50:28Z</time>
      </trkpt>
      <trkpt lat="46.44022" lon="-1.65449">
        <ele>9.9</ele>
        <time>2020-06-03T10:50:29Z</time>
      </trkpt>
      <trkpt lat="46.4402" lon="-1.65455">
        <ele>10</ele>
        <time>2020-06-03T10:50:30Z</time>
      </trkpt>
      <trkpt lat="46.44019" lon="-1.65461">
        <ele>10</ele>
        <time>2020-06-03T10:50:31Z</time>
      </trkpt>
      <trkpt lat="46.44018" lon="-1.65465">
        <ele>10</ele>
        <time>2020-06-03T10:50:32Z</time>
      </trkpt>
      <trkpt lat="46.44017" lon="-1.65471">
        <ele>10</ele>
        <time>2020-06-03T10:50:33Z</time>
      </trkpt>
      <trkpt lat="46.44015" lon="-1.65475">
        <ele>10</ele>
        <time>2020-06-03T10:50:34Z</time>
      </trkpt>
      <trkpt lat="46.44015" lon="-1.65481">
        <ele>10</ele>
        <time>2020-06-03T10:50:35Z</time>
      </trkpt>
      <trkpt lat="46.44014" lon="-1.65484">
        <ele>10.1</ele>
        <time>2020-06-03T10:50:36Z</time>
      </trkpt>
      <trkpt lat="46.44013" lon="-1.65489">
        <ele>10.1</ele>
        <time>2020-06-03T10:50:37Z</time>
      </trkpt>
      <trkpt lat="46.44012" lon="-1.65495">
        <ele>10.1</ele>
        <time>2020-06-03T10:50:38Z</time>
      </trkpt>
      <trkpt lat="46.44012" lon="-1.65501">
        <ele>10.1</ele>
        <time>2020-06-03T10:50:39Z</time>
      </trkpt>
      <trkpt lat="46.4401" lon="-1.65507">
        <ele>10.1</ele>
        <time>2020-06-03T10:50:40Z</time>
      </trkpt>
      <trkpt lat="46.44009" lon="-1.65513">
        <ele>10.1</ele>
        <time>2020-06-03T10:50:41Z</time>
      </trkpt>
      <trkpt lat="46.44008" lon="-1.65518">
        <ele>10.1</ele>
        <time>2020-06-03T10:50:42Z</time>
      </trkpt>
      <trkpt lat="46.44007" lon="-1.65524">
        <ele>10.1</ele>
        <time>2020-06-03T10:50:43Z</time>
      </trkpt>
      <trkpt lat="46.44007" lon="-1.6553">
        <ele>10.1</ele>
        <time>2020-06-03T10:50:44Z</time>
      </trkpt>
      <trkpt lat="46.44006" lon="-1.65536">
        <ele>10.1</ele>
        <time>2020-06-03T10:50:45Z</time>
      </trkpt>
      <trkpt lat="46.44005" lon="-1.65542">
        <ele>10.1</ele>
        <time>2020-06-03T10:50:46Z</time>
      </trkpt>
      <trkpt lat="46.44005" lon="-1.65548">
        <ele>10.1</ele>
        <time>2020-06-03T10:50:47Z</time>
      </trkpt>
      <trkpt lat="46.44004" lon="-1.65555">
        <ele>10.1</ele>
        <time>2020-06-03T10:50:48Z</time>
      </trkpt>
      <trkpt lat="46.44005" lon="-1.65562">
        <ele>10.1</ele>
        <time>2020-06-03T10:50:49Z</time>
      </trkpt>
      <trkpt lat="46.44004" lon="-1.65568">
        <ele>10.1</ele>
        <time>2020-06-03T10:50:50Z</time>
      </trkpt>
      <trkpt lat="46.44004" lon="-1.65575">
        <ele>10.1</ele>
        <time>2020-06-03T10:50:51Z</time>
      </trkpt>
      <trkpt lat="46.44004" lon="-1.65582">
        <ele>10.1</ele>
        <time>2020-06-03T10:50:52Z</time>
      </trkpt>
      <trkpt lat="46.44004" lon="-1.65588">
        <ele>10.1</ele>
        <time>2020-06-03T10:50:53Z</time>
      </trkpt>
      <trkpt lat="46.44004" lon="-1.65595">
        <ele>10.1</ele>
        <time>2020-06-03T10:50:54Z</time>
      </trkpt>
      <trkpt lat="46.44005" lon="-1.65602">
        <ele>10.1</ele>
        <time>2020-06-03T10:50:55Z</time>
      </trkpt>
      <trkpt lat="46.44006" lon="-1.6561">
        <ele>10.1</ele>
        <time>2020-06-03T10:50:56Z</time>
      </trkpt>
      <trkpt lat="46.44005" lon="-1.65618">
        <ele>10.1</ele>
        <time>2020-06-03T10:50:57Z</time>
      </trkpt>
      <trkpt lat="46.44006" lon="-1.65625">
        <ele>10.1</ele>
        <time>2020-06-03T10:50:58Z</time>
      </trkpt>
      <trkpt lat="46.44006" lon="-1.65632">
        <ele>10.1</ele>
        <time>2020-06-03T10:50:59Z</time>
      </trkpt>
      <trkpt lat="46.44007" lon="-1.65639">
        <ele>10.1</ele>
        <time>2020-06-03T10:51:00Z</time>
      </trkpt>
      <trkpt lat="46.44007" lon="-1.65646">
        <ele>10.1</ele>
        <time>2020-06-03T10:51:01Z</time>
      </trkpt>
      <trkpt lat="46.44007" lon="-1.65653">
        <ele>10.1</ele>
        <time>2020-06-03T10:51:02Z</time>
      </trkpt>
      <trkpt lat="46.44008" lon="-1.6566">
        <ele>10.2</ele>
        <time>2020-06-03T10:51:03Z</time>
      </trkpt>
      <trkpt lat="46.44008" lon="-1.65666">
        <ele>10.2</ele>
        <time>2020-06-03T10:51:04Z</time>
      </trkpt>
      <trkpt lat="46.44008" lon="-1.65672">
        <ele>10.2</ele>
        <time>2020-06-03T10:51:05Z</time>
      </trkpt>
      <trkpt lat="46.44009" lon="-1.65679">
        <ele>10.2</ele>
        <time>2020-06-03T10:51:06Z</time>
      </trkpt>
      <trkpt lat="46.44009" lon="-1.65685">
        <ele>10.2</ele>
        <time>2020-06-03T10:51:07Z</time>
      </trkpt>
      <trkpt lat="46.4401" lon="-1.65691">
        <ele>10.2</ele>
        <time>2020-06-03T10:51:08Z</time>
      </trkpt>
      <trkpt lat="46.44011" lon="-1.65698">
        <ele>10.3</ele>
        <time>2020-06-03T10:51:09Z</time>
      </trkpt>
      <trkpt lat="46.44012" lon="-1.65705">
        <ele>10.3</ele>
        <time>2020-06-03T10:51:10Z</time>
      </trkpt>
      <trkpt lat="46.44013" lon="-1.65713">
        <ele>10.3</ele>
        <time>2020-06-03T10:51:11Z</time>
      </trkpt>
      <trkpt lat="46.44013" lon="-1.65721">
        <ele>10.3</ele>
        <time>2020-06-03T10:51:12Z</time>
      </trkpt>
      <trkpt lat="46.44014" lon="-1.65728">
        <ele>10.3</ele>
        <time>2020-06-03T10:51:13Z</time>
      </trkpt>
      <trkpt lat="46.44014" lon="-1.65734">
        <ele>10.3</ele>
        <time>2020-06-03T10:51:14Z</time>
      </trkpt>
      <trkpt lat="46.44013" lon="-1.6574">
        <ele>10.3</ele>
        <time>2020-06-03T10:51:15Z</time>
      </trkpt>
      <trkpt lat="46.44014" lon="-1.65746">
        <ele>10.3</ele>
        <time>2020-06-03T10:51:16Z</time>
      </trkpt>
      <trkpt lat="46.44014" lon="-1.65752">
        <ele>10.3</ele>
        <time>2020-06-03T10:51:17Z</time>
      </trkpt>
      <trkpt lat="46.44014" lon="-1.65757">
        <ele>10.3</ele>
        <time>2020-06-03T10:51:18Z</time>
      </trkpt>
      <trkpt lat="46.44015" lon="-1.65763">
        <ele>10.3</ele>
        <time>2020-06-03T10:51:19Z</time>
      </trkpt>
      <trkpt lat="46.44015" lon="-1.65769">
        <ele>10.3</ele>
        <time>2020-06-03T10:51:20Z</time>
      </trkpt>
      <trkpt lat="46.44015" lon="-1.65774">
        <ele>10.3</ele>
        <time>2020-06-03T10:51:21Z</time>
      </trkpt>
      <trkpt lat="46.44015" lon="-1.6578">
        <ele>10.3</ele>
        <time>2020-06-03T10:51:22Z</time>
      </trkpt>
      <trkpt lat="46.44015" lon="-1.65786">
        <ele>10.3</ele>
        <time>2020-06-03T10:51:23Z</time>
      </trkpt>
      <trkpt lat="46.44015" lon="-1.65791">
        <ele>10.3</ele>
        <time>2020-06-03T10:51:24Z</time>
      </trkpt>
      <trkpt lat="46.44015" lon="-1.65796">
        <ele>10.3</ele>
        <time>2020-06-03T10:51:25Z</time>
      </trkpt>
      <trkpt lat="46.44016" lon="-1.658">
        <ele>10.3</ele>
        <time>2020-06-03T10:51:26Z</time>
      </trkpt>
      <trkpt lat="46.44016" lon="-1.65806">
        <ele>10.3</ele>
        <time>2020-06-03T10:51:27Z</time>
      </trkpt>
      <trkpt lat="46.44016" lon="-1.65812">
        <ele>10.3</ele>
        <time>2020-06-03T10:51:28Z</time>
      </trkpt>
      <trkpt lat="46.44017" lon="-1.65818">
        <ele>10.3</ele>
        <time>2020-06-03T10:51:29Z</time>
      </trkpt>
      <trkpt lat="46.44017" lon="-1.65823">
        <ele>10.2</ele>
        <time>2020-06-03T10:51:30Z</time>
      </trkpt>
      <trkpt lat="46.44018" lon="-1.6583">
        <ele>10.2</ele>
        <time>2020-06-03T10:51:31Z</time>
      </trkpt>
      <trkpt lat="46.44018" lon="-1.65836">
        <ele>10.2</ele>
        <time>2020-06-03T10:51:32Z</time>
      </trkpt>
      <trkpt lat="46.44018" lon="-1.65841">
        <ele>10.1</ele>
        <time>2020-06-03T10:51:33Z</time>
      </trkpt>
      <trkpt lat="46.44019" lon="-1.65848">
        <ele>10.1</ele>
        <time>2020-06-03T10:51:34Z</time>
      </trkpt>
      <trkpt lat="46.44019" lon="-1.65854">
        <ele>10.1</ele>
        <time>2020-06-03T10:51:35Z</time>
      </trkpt>
      <trkpt lat="46.4402" lon="-1.65861">
        <ele>10</ele>
        <time>2020-06-03T10:51:36Z</time>
      </trkpt>
      <trkpt lat="46.44021" lon="-1.65867">
        <ele>9.9</ele>
        <time>2020-06-03T10:51:37Z</time>
      </trkpt>
      <trkpt lat="46.44021" lon="-1.65873">
        <ele>9.8</ele>
        <time>2020-06-03T10:51:38Z</time>
      </trkpt>
      <trkpt lat="46.44022" lon="-1.6588">
        <ele>9.7</ele>
        <time>2020-06-03T10:51:39Z</time>
      </trkpt>
      <trkpt lat="46.44023" lon="-1.65887">
        <ele>9.6</ele>
        <time>2020-06-03T10:51:40Z</time>
      </trkpt>
      <trkpt lat="46.44025" lon="-1.65895">
        <ele>9.4</ele>
        <time>2020-06-03T10:51:41Z</time>
      </trkpt>
      <trkpt lat="46.44027" lon="-1.65902">
        <ele>9.3</ele>
        <time>2020-06-03T10:51:42Z</time>
      </trkpt>
      <trkpt lat="46.44029" lon="-1.6591">
        <ele>9.1</ele>
        <time>2020-06-03T10:51:43Z</time>
      </trkpt>
      <trkpt lat="46.4403" lon="-1.65917">
        <ele>9</ele>
        <time>2020-06-03T10:51:44Z</time>
      </trkpt>
      <trkpt lat="46.44032" lon="-1.65925">
        <ele>8.9</ele>
        <time>2020-06-03T10:51:45Z</time>
      </trkpt>
      <trkpt lat="46.44035" lon="-1.65933">
        <ele>8.8</ele>
        <time>2020-06-03T10:51:46Z</time>
      </trkpt>
      <trkpt lat="46.44037" lon="-1.65939">
        <ele>8.7</ele>
        <time>2020-06-03T10:51:47Z</time>
      </trkpt>
      <trkpt lat="46.44038" lon="-1.65946">
        <ele>8.6</ele>
        <time>2020-06-03T10:51:48Z</time>
      </trkpt>
      <trkpt lat="46.4404" lon="-1.65953">
        <ele>8.6</ele>
        <time>2020-06-03T10:51:49Z</time>
      </trkpt>
      <trkpt lat="46.44041" lon="-1.6596">
        <ele>8.5</ele>
        <time>2020-06-03T10:51:50Z</time>
      </trkpt>
      <trkpt lat="46.44041" lon="-1.65967">
        <ele>8.5</ele>
        <time>2020-06-03T10:51:51Z</time>
      </trkpt>
      <trkpt lat="46.44042" lon="-1.65975">
        <ele>8.4</ele>
        <time>2020-06-03T10:51:52Z</time>
      </trkpt>
      <trkpt lat="46.44043" lon="-1.65982">
        <ele>8.4</ele>
        <time>2020-06-03T10:51:53Z</time>
      </trkpt>
      <trkpt lat="46.44044" lon="-1.65991">
        <ele>8.4</ele>
        <time>2020-06-03T10:51:54Z</time>
      </trkpt>
      <trkpt lat="46.44044" lon="-1.65999">
        <ele>8.4</ele>
        <time>2020-06-03T10:51:55Z</time>
      </trkpt>
      <trkpt lat="46.44045" lon="-1.66007">
        <ele>8.4</ele>
        <time>2020-06-03T10:51:56Z</time>
      </trkpt>
      <trkpt lat="46.44044" lon="-1.66014">
        <ele>8.4</ele>
        <time>2020-06-03T10:51:57Z</time>
      </trkpt>
      <trkpt lat="46.44043" lon="-1.66021">
        <ele>8.4</ele>
        <time>2020-06-03T10:51:58Z</time>
      </trkpt>
      <trkpt lat="46.44043" lon="-1.66028">
        <ele>8.4</ele>
        <time>2020-06-03T10:51:59Z</time>
      </trkpt>
      <trkpt lat="46.44044" lon="-1.66035">
        <ele>8.4</ele>
        <time>2020-06-03T10:52:00Z</time>
      </trkpt>
      <trkpt lat="46.44042" lon="-1.66043">
        <ele>8.4</ele>
        <time>2020-06-03T10:52:01Z</time>
      </trkpt>
      <trkpt lat="46.44041" lon="-1.66051">
        <ele>8.4</ele>
        <time>2020-06-03T10:52:02Z</time>
      </trkpt>
      <trkpt lat="46.4404" lon="-1.66059">
        <ele>8.4</ele>
        <time>2020-06-03T10:52:03Z</time>
      </trkpt>
      <trkpt lat="46.44039" lon="-1.66065">
        <ele>8.4</ele>
        <time>2020-06-03T10:52:04Z</time>
      </trkpt>
      <trkpt lat="46.44038" lon="-1.66073">
        <ele>8.4</ele>
        <time>2020-06-03T10:52:05Z</time>
      </trkpt>
      <trkpt lat="46.44036" lon="-1.66079">
        <ele>8.4</ele>
        <time>2020-06-03T10:52:06Z</time>
      </trkpt>
      <trkpt lat="46.44035" lon="-1.66085">
        <ele>8.4</ele>
        <time>2020-06-03T10:52:07Z</time>
      </trkpt>
      <trkpt lat="46.44033" lon="-1.6609">
        <ele>8.4</ele>
        <time>2020-06-03T10:52:08Z</time>
      </trkpt>
      <trkpt lat="46.44032" lon="-1.66096">
        <ele>8.4</ele>
        <time>2020-06-03T10:52:09Z</time>
      </trkpt>
      <trkpt lat="46.44031" lon="-1.66102">
        <ele>8.4</ele>
        <time>2020-06-03T10:52:10Z</time>
      </trkpt>
      <trkpt lat="46.4403" lon="-1.66109">
        <ele>8.4</ele>
        <time>2020-06-03T10:52:11Z</time>
      </trkpt>
      <trkpt lat="46.4403" lon="-1.66116">
        <ele>8.4</ele>
        <time>2020-06-03T10:52:12Z</time>
      </trkpt>
      <trkpt lat="46.44029" lon="-1.66122">
        <ele>8.4</ele>
        <time>2020-06-03T10:52:13Z</time>
      </trkpt>
      <trkpt lat="46.44028" lon="-1.66127">
        <ele>8.4</ele>
        <time>2020-06-03T10:52:14Z</time>
      </trkpt>
      <trkpt lat="46.44026" lon="-1.66133">
        <ele>8.4</ele>
        <time>2020-06-03T10:52:15Z</time>
      </trkpt>
      <trkpt lat="46.44024" lon="-1.6614">
        <ele>8.4</ele>
        <time>2020-06-03T10:52:16Z</time>
      </trkpt>
      <trkpt lat="46.44023" lon="-1.66145">
        <ele>8.4</ele>
        <time>2020-06-03T10:52:17Z</time>
      </trkpt>
      <trkpt lat="46.44023" lon="-1.6615">
        <ele>8.4</ele>
        <time>2020-06-03T10:52:18Z</time>
      </trkpt>
      <trkpt lat="46.44022" lon="-1.66155">
        <ele>8.4</ele>
        <time>2020-06-03T10:52:19Z</time>
      </trkpt>
      <trkpt lat="46.4402" lon="-1.6616">
        <ele>8.4</ele>
        <time>2020-06-03T10:52:20Z</time>
      </trkpt>
      <trkpt lat="46.44018" lon="-1.66166">
        <ele>8.4</ele>
        <time>2020-06-03T10:52:21Z</time>
      </trkpt>
      <trkpt lat="46.44016" lon="-1.66171">
        <ele>8.4</ele>
        <time>2020-06-03T10:52:22Z</time>
      </trkpt>
      <trkpt lat="46.44014" lon="-1.66176">
        <ele>8.4</ele>
        <time>2020-06-03T10:52:23Z</time>
      </trkpt>
      <trkpt lat="46.44013" lon="-1.66182">
        <ele>8.4</ele>
        <time>2020-06-03T10:52:24Z</time>
      </trkpt>
      <trkpt lat="46.44011" lon="-1.66188">
        <ele>8.4</ele>
        <time>2020-06-03T10:52:25Z</time>
      </trkpt>
      <trkpt lat="46.4401" lon="-1.66194">
        <ele>8.3</ele>
        <time>2020-06-03T10:52:26Z</time>
      </trkpt>
      <trkpt lat="46.44009" lon="-1.662">
        <ele>8.3</ele>
        <time>2020-06-03T10:52:27Z</time>
      </trkpt>
      <trkpt lat="46.44007" lon="-1.66206">
        <ele>8.3</ele>
        <time>2020-06-03T10:52:28Z</time>
      </trkpt>
      <trkpt lat="46.44003" lon="-1.66212">
        <ele>8.3</ele>
        <time>2020-06-03T10:52:29Z</time>
      </trkpt>
      <trkpt lat="46.44001" lon="-1.66218">
        <ele>8.3</ele>
        <time>2020-06-03T10:52:30Z</time>
      </trkpt>
      <trkpt lat="46.44001" lon="-1.66225">
        <ele>8.3</ele>
        <time>2020-06-03T10:52:31Z</time>
      </trkpt>
      <trkpt lat="46.44002" lon="-1.66231">
        <ele>8.3</ele>
        <time>2020-06-03T10:52:32Z</time>
      </trkpt>
      <trkpt lat="46.44002" lon="-1.66236">
        <ele>8.3</ele>
        <time>2020-06-03T10:52:33Z</time>
      </trkpt>
      <trkpt lat="46.44003" lon="-1.66242">
        <ele>8.2</ele>
        <time>2020-06-03T10:52:34Z</time>
      </trkpt>
      <trkpt lat="46.44002" lon="-1.66247">
        <ele>8.2</ele>
        <time>2020-06-03T10:52:35Z</time>
      </trkpt>
      <trkpt lat="46.44004" lon="-1.66253">
        <ele>8.2</ele>
        <time>2020-06-03T10:52:36Z</time>
      </trkpt>
      <trkpt lat="46.44006" lon="-1.66258">
        <ele>8.2</ele>
        <time>2020-06-03T10:52:37Z</time>
      </trkpt>
      <trkpt lat="46.44009" lon="-1.66263">
        <ele>8.1</ele>
        <time>2020-06-03T10:52:38Z</time>
      </trkpt>
      <trkpt lat="46.44012" lon="-1.66268">
        <ele>8</ele>
        <time>2020-06-03T10:52:39Z</time>
      </trkpt>
      <trkpt lat="46.44016" lon="-1.66274">
        <ele>7.9</ele>
        <time>2020-06-03T10:52:40Z</time>
      </trkpt>
      <trkpt lat="46.4402" lon="-1.66279">
        <ele>7.8</ele>
        <time>2020-06-03T10:52:41Z</time>
      </trkpt>
      <trkpt lat="46.44024" lon="-1.66285">
        <ele>7.7</ele>
        <time>2020-06-03T10:52:42Z</time>
      </trkpt>
      <trkpt lat="46.44027" lon="-1.6629">
        <ele>7.6</ele>
        <time>2020-06-03T10:52:43Z</time>
      </trkpt>
      <trkpt lat="46.44031" lon="-1.66294">
        <ele>7.5</ele>
        <time>2020-06-03T10:52:44Z</time>
      </trkpt>
      <trkpt lat="46.44035" lon="-1.66299">
        <ele>7.5</ele>
        <time>2020-06-03T10:52:45Z</time>
      </trkpt>
      <trkpt lat="46.44038" lon="-1.66303">
        <ele>7.5</ele>
        <time>2020-06-03T10:52:46Z</time>
      </trkpt>
      <trkpt lat="46.44042" lon="-1.66308">
        <ele>7.5</ele>
        <time>2020-06-03T10:52:47Z</time>
      </trkpt>
      <trkpt lat="46.44046" lon="-1.66311">
        <ele>7.5</ele>
        <time>2020-06-03T10:52:48Z</time>
      </trkpt>
      <trkpt lat="46.4405" lon="-1.66315">
        <ele>7.6</ele>
        <time>2020-06-03T10:52:49Z</time>
      </trkpt>
      <trkpt lat="46.44053" lon="-1.66319">
        <ele>7.6</ele>
        <time>2020-06-03T10:52:50Z</time>
      </trkpt>
      <trkpt lat="46.44058" lon="-1.66323">
        <ele>7.6</ele>
        <time>2020-06-03T10:52:51Z</time>
      </trkpt>
      <trkpt lat="46.44062" lon="-1.66326">
        <ele>7.7</ele>
        <time>2020-06-03T10:52:52Z</time>
      </trkpt>
      <trkpt lat="46.44066" lon="-1.6633">
        <ele>7.7</ele>
        <time>2020-06-03T10:52:53Z</time>
      </trkpt>
      <trkpt lat="46.4407" lon="-1.66333">
        <ele>7.7</ele>
        <time>2020-06-03T10:52:54Z</time>
      </trkpt>
      <trkpt lat="46.44075" lon="-1.66337">
        <ele>7.7</ele>
        <time>2020-06-03T10:52:55Z</time>
      </trkpt>
      <trkpt lat="46.44079" lon="-1.66341">
        <ele>7.8</ele>
        <time>2020-06-03T10:52:56Z</time>
      </trkpt>
      <trkpt lat="46.44083" lon="-1.66345">
        <ele>7.8</ele>
        <time>2020-06-03T10:52:57Z</time>
      </trkpt>
      <trkpt lat="46.44087" lon="-1.66348">
        <ele>7.8</ele>
        <time>2020-06-03T10:52:58Z</time>
      </trkpt>
      <trkpt lat="46.44091" lon="-1.66352">
        <ele>7.9</ele>
        <time>2020-06-03T10:52:59Z</time>
      </trkpt>
      <trkpt lat="46.44094" lon="-1.66355">
        <ele>7.9</ele>
        <time>2020-06-03T10:53:00Z</time>
      </trkpt>
      <trkpt lat="46.44097" lon="-1.66358">
        <ele>7.9</ele>
        <time>2020-06-03T10:53:01Z</time>
      </trkpt>
      <trkpt lat="46.441" lon="-1.6636">
        <ele>8</ele>
        <time>2020-06-03T10:53:02Z</time>
      </trkpt>
      <trkpt lat="46.44104" lon="-1.66363">
        <ele>8</ele>
        <time>2020-06-03T10:53:03Z</time>
      </trkpt>
      <trkpt lat="46.44107" lon="-1.66367">
        <ele>8</ele>
        <time>2020-06-03T10:53:04Z</time>
      </trkpt>
      <trkpt lat="46.44111" lon="-1.66369">
        <ele>8.1</ele>
        <time>2020-06-03T10:53:05Z</time>
      </trkpt>
      <trkpt lat="46.44115" lon="-1.66371">
        <ele>8.1</ele>
        <time>2020-06-03T10:53:06Z</time>
      </trkpt>
      <trkpt lat="46.44118" lon="-1.66374">
        <ele>8.1</ele>
        <time>2020-06-03T10:53:07Z</time>
      </trkpt>
      <trkpt lat="46.44122" lon="-1.66376">
        <ele>8.2</ele>
        <time>2020-06-03T10:53:08Z</time>
      </trkpt>
      <trkpt lat="46.44125" lon="-1.66379">
        <ele>8.2</ele>
        <time>2020-06-03T10:53:09Z</time>
      </trkpt>
      <trkpt lat="46.44129" lon="-1.6638">
        <ele>8.3</ele>
        <time>2020-06-03T10:53:10Z</time>
      </trkpt>
      <trkpt lat="46.44132" lon="-1.66384">
        <ele>8.4</ele>
        <time>2020-06-03T10:53:11Z</time>
      </trkpt>
      <trkpt lat="46.44136" lon="-1.66387">
        <ele>8.4</ele>
        <time>2020-06-03T10:53:12Z</time>
      </trkpt>
      <trkpt lat="46.4414" lon="-1.6639">
        <ele>8.5</ele>
        <time>2020-06-03T10:53:13Z</time>
      </trkpt>
      <trkpt lat="46.44143" lon="-1.66393">
        <ele>8.5</ele>
        <time>2020-06-03T10:53:14Z</time>
      </trkpt>
      <trkpt lat="46.44147" lon="-1.66396">
        <ele>8.6</ele>
        <time>2020-06-03T10:53:15Z</time>
      </trkpt>
      <trkpt lat="46.4415" lon="-1.66399">
        <ele>8.6</ele>
        <time>2020-06-03T10:53:16Z</time>
      </trkpt>
      <trkpt lat="46.44154" lon="-1.66401">
        <ele>8.7</ele>
        <time>2020-06-03T10:53:17Z</time>
      </trkpt>
      <trkpt lat="46.44158" lon="-1.66404">
        <ele>8.8</ele>
        <time>2020-06-03T10:53:18Z</time>
      </trkpt>
      <trkpt lat="46.44162" lon="-1.66407">
        <ele>8.9</ele>
        <time>2020-06-03T10:53:19Z</time>
      </trkpt>
      <trkpt lat="46.44165" lon="-1.66411">
        <ele>9</ele>
        <time>2020-06-03T10:53:20Z</time>
      </trkpt>
      <trkpt lat="46.44169" lon="-1.66414">
        <ele>9.1</ele>
        <time>2020-06-03T10:53:21Z</time>
      </trkpt>
      <trkpt lat="46.44173" lon="-1.66416">
        <ele>9.2</ele>
        <time>2020-06-03T10:53:22Z</time>
      </trkpt>
      <trkpt lat="46.44177" lon="-1.66419">
        <ele>9.4</ele>
        <time>2020-06-03T10:53:23Z</time>
      </trkpt>
      <trkpt lat="46.44181" lon="-1.66422">
        <ele>9.5</ele>
        <time>2020-06-03T10:53:24Z</time>
      </trkpt>
      <trkpt lat="46.44185" lon="-1.66425">
        <ele>9.6</ele>
        <time>2020-06-03T10:53:25Z</time>
      </trkpt>
      <trkpt lat="46.44189" lon="-1.66428">
        <ele>9.7</ele>
        <time>2020-06-03T10:53:26Z</time>
      </trkpt>
      <trkpt lat="46.44193" lon="-1.6643">
        <ele>9.8</ele>
        <time>2020-06-03T10:53:27Z</time>
      </trkpt>
      <trkpt lat="46.44197" lon="-1.66433">
        <ele>9.9</ele>
        <time>2020-06-03T10:53:28Z</time>
      </trkpt>
      <trkpt lat="46.442" lon="-1.66437">
        <ele>10.1</ele>
        <time>2020-06-03T10:53:29Z</time>
      </trkpt>
      <trkpt lat="46.44204" lon="-1.6644">
        <ele>10.2</ele>
        <time>2020-06-03T10:53:30Z</time>
      </trkpt>
      <trkpt lat="46.44207" lon="-1.66444">
        <ele>10.3</ele>
        <time>2020-06-03T10:53:31Z</time>
      </trkpt>
      <trkpt lat="46.4421" lon="-1.66448">
        <ele>10.4</ele>
        <time>2020-06-03T10:53:32Z</time>
      </trkpt>
      <trkpt lat="46.44212" lon="-1.66453">
        <ele>10.5</ele>
        <time>2020-06-03T10:53:33Z</time>
      </trkpt>
      <trkpt lat="46.44215" lon="-1.66458">
        <ele>10.6</ele>
        <time>2020-06-03T10:53:34Z</time>
      </trkpt>
      <trkpt lat="46.44218" lon="-1.66462">
        <ele>10.7</ele>
        <time>2020-06-03T10:53:35Z</time>
      </trkpt>
      <trkpt lat="46.44221" lon="-1.66467">
        <ele>10.8</ele>
        <time>2020-06-03T10:53:36Z</time>
      </trkpt>
      <trkpt lat="46.44224" lon="-1.66472">
        <ele>10.9</ele>
        <time>2020-06-03T10:53:37Z</time>
      </trkpt>
      <trkpt lat="46.44226" lon="-1.66477">
        <ele>11</ele>
        <time>2020-06-03T10:53:38Z</time>
      </trkpt>
      <trkpt lat="46.44228" lon="-1.66483">
        <ele>11</ele>
        <time>2020-06-03T10:53:39Z</time>
      </trkpt>
      <trkpt lat="46.44231" lon="-1.66488">
        <ele>11.1</ele>
        <time>2020-06-03T10:53:40Z</time>
      </trkpt>
      <trkpt lat="46.44233" lon="-1.66493">
        <ele>11.1</ele>
        <time>2020-06-03T10:53:41Z</time>
      </trkpt>
      <trkpt lat="46.44234" lon="-1.66499">
        <ele>11.2</ele>
        <time>2020-06-03T10:53:42Z</time>
      </trkpt>
      <trkpt lat="46.44235" lon="-1.66505">
        <ele>11.2</ele>
        <time>2020-06-03T10:53:43Z</time>
      </trkpt>
      <trkpt lat="46.44236" lon="-1.6651">
        <ele>11.3</ele>
        <time>2020-06-03T10:53:44Z</time>
      </trkpt>
      <trkpt lat="46.44237" lon="-1.66516">
        <ele>11.3</ele>
        <time>2020-06-03T10:53:45Z</time>
      </trkpt>
      <trkpt lat="46.44238" lon="-1.66522">
        <ele>11.4</ele>
        <time>2020-06-03T10:53:46Z</time>
      </trkpt>
      <trkpt lat="46.44239" lon="-1.66528">
        <ele>11.5</ele>
        <time>2020-06-03T10:53:47Z</time>
      </trkpt>
      <trkpt lat="46.44241" lon="-1.66533">
        <ele>11.5</ele>
        <time>2020-06-03T10:53:48Z</time>
      </trkpt>
      <trkpt lat="46.44242" lon="-1.66539">
        <ele>11.6</ele>
        <time>2020-06-03T10:53:49Z</time>
      </trkpt>
      <trkpt lat="46.44243" lon="-1.66544">
        <ele>11.7</ele>
        <time>2020-06-03T10:53:50Z</time>
      </trkpt>
      <trkpt lat="46.44244" lon="-1.66549">
        <ele>11.8</ele>
        <time>2020-06-03T10:53:51Z</time>
      </trkpt>
      <trkpt lat="46.44244" lon="-1.66554">
        <ele>11.8</ele>
        <time>2020-06-03T10:53:52Z</time>
      </trkpt>
      <trkpt lat="46.44245" lon="-1.66559">
        <ele>11.9</ele>
        <time>2020-06-03T10:53:53Z</time>
      </trkpt>
      <trkpt lat="46.44245" lon="-1.66564">
        <ele>11.9</ele>
        <time>2020-06-03T10:53:54Z</time>
      </trkpt>
      <trkpt lat="46.44246" lon="-1.6657">
        <ele>12</ele>
        <time>2020-06-03T10:53:55Z</time>
      </trkpt>
      <trkpt lat="46.44246" lon="-1.66575">
        <ele>12</ele>
        <time>2020-06-03T10:53:56Z</time>
      </trkpt>
      <trkpt lat="46.44246" lon="-1.66581">
        <ele>12.1</ele>
        <time>2020-06-03T10:53:57Z</time>
      </trkpt>
      <trkpt lat="46.44247" lon="-1.66587">
        <ele>12.1</ele>
        <time>2020-06-03T10:53:58Z</time>
      </trkpt>
      <trkpt lat="46.44249" lon="-1.66593">
        <ele>12.2</ele>
        <time>2020-06-03T10:53:59Z</time>
      </trkpt>
      <trkpt lat="46.44249" lon="-1.66599">
        <ele>12.2</ele>
        <time>2020-06-03T10:54:00Z</time>
      </trkpt>
      <trkpt lat="46.44251" lon="-1.66604">
        <ele>12.3</ele>
        <time>2020-06-03T10:54:01Z</time>
      </trkpt>
      <trkpt lat="46.44252" lon="-1.6661">
        <ele>12.3</ele>
        <time>2020-06-03T10:54:02Z</time>
      </trkpt>
      <trkpt lat="46.44254" lon="-1.66615">
        <ele>12.3</ele>
        <time>2020-06-03T10:54:03Z</time>
      </trkpt>
      <trkpt lat="46.44256" lon="-1.6662">
        <ele>12.4</ele>
        <time>2020-06-03T10:54:04Z</time>
      </trkpt>
      <trkpt lat="46.44259" lon="-1.66626">
        <ele>12.4</ele>
        <time>2020-06-03T10:54:05Z</time>
      </trkpt>
      <trkpt lat="46.44261" lon="-1.66631">
        <ele>12.4</ele>
        <time>2020-06-03T10:54:06Z</time>
      </trkpt>
      <trkpt lat="46.44263" lon="-1.66636">
        <ele>12.4</ele>
        <time>2020-06-03T10:54:07Z</time>
      </trkpt>
      <trkpt lat="46.44266" lon="-1.66641">
        <ele>12.5</ele>
        <time>2020-06-03T10:54:08Z</time>
      </trkpt>
      <trkpt lat="46.44269" lon="-1.66646">
        <ele>12.5</ele>
        <time>2020-06-03T10:54:09Z</time>
      </trkpt>
      <trkpt lat="46.44272" lon="-1.6665">
        <ele>12.5</ele>
        <time>2020-06-03T10:54:10Z</time>
      </trkpt>
      <trkpt lat="46.44274" lon="-1.66654">
        <ele>12.5</ele>
        <time>2020-06-03T10:54:11Z</time>
      </trkpt>
      <trkpt lat="46.44277" lon="-1.66659">
        <ele>12.6</ele>
        <time>2020-06-03T10:54:12Z</time>
      </trkpt>
      <trkpt lat="46.44279" lon="-1.66663">
        <ele>12.6</ele>
        <time>2020-06-03T10:54:13Z</time>
      </trkpt>
      <trkpt lat="46.44282" lon="-1.66667">
        <ele>12.6</ele>
        <time>2020-06-03T10:54:14Z</time>
      </trkpt>
      <trkpt lat="46.44284" lon="-1.6667">
        <ele>12.6</ele>
        <time>2020-06-03T10:54:15Z</time>
      </trkpt>
      <trkpt lat="46.44287" lon="-1.66675">
        <ele>12.6</ele>
        <time>2020-06-03T10:54:16Z</time>
      </trkpt>
      <trkpt lat="46.4429" lon="-1.66679">
        <ele>12.6</ele>
        <time>2020-06-03T10:54:17Z</time>
      </trkpt>
      <trkpt lat="46.44292" lon="-1.66684">
        <ele>12.6</ele>
        <time>2020-06-03T10:54:18Z</time>
      </trkpt>
      <trkpt lat="46.44295" lon="-1.66689">
        <ele>12.6</ele>
        <time>2020-06-03T10:54:19Z</time>
      </trkpt>
      <trkpt lat="46.44297" lon="-1.66693">
        <ele>12.7</ele>
        <time>2020-06-03T10:54:20Z</time>
      </trkpt>
      <trkpt lat="46.443" lon="-1.66698">
        <ele>12.7</ele>
        <time>2020-06-03T10:54:21Z</time>
      </trkpt>
      <trkpt lat="46.44303" lon="-1.66703">
        <ele>12.7</ele>
        <time>2020-06-03T10:54:22Z</time>
      </trkpt>
      <trkpt lat="46.44306" lon="-1.66707">
        <ele>12.7</ele>
        <time>2020-06-03T10:54:23Z</time>
      </trkpt>
      <trkpt lat="46.4431" lon="-1.66711">
        <ele>12.7</ele>
        <time>2020-06-03T10:54:24Z</time>
      </trkpt>
      <trkpt lat="46.44312" lon="-1.66717">
        <ele>12.7</ele>
        <time>2020-06-03T10:54:25Z</time>
      </trkpt>
      <trkpt lat="46.44316" lon="-1.66722">
        <ele>12.7</ele>
        <time>2020-06-03T10:54:26Z</time>
      </trkpt>
      <trkpt lat="46.44318" lon="-1.66726">
        <ele>12.8</ele>
        <time>2020-06-03T10:54:27Z</time>
      </trkpt>
      <trkpt lat="46.44321" lon="-1.66731">
        <ele>12.8</ele>
        <time>2020-06-03T10:54:28Z</time>
      </trkpt>
      <trkpt lat="46.44324" lon="-1.66735">
        <ele>12.8</ele>
        <time>2020-06-03T10:54:29Z</time>
      </trkpt>
      <trkpt lat="46.44327" lon="-1.66739">
        <ele>12.9</ele>
        <time>2020-06-03T10:54:30Z</time>
      </trkpt>
      <trkpt lat="46.44331" lon="-1.66744">
        <ele>12.9</ele>
        <time>2020-06-03T10:54:31Z</time>
      </trkpt>
      <trkpt lat="46.44334" lon="-1.66749">
        <ele>13</ele>
        <time>2020-06-03T10:54:32Z</time>
      </trkpt>
      <trkpt lat="46.44337" lon="-1.66754">
        <ele>13</ele>
        <time>2020-06-03T10:54:33Z</time>
      </trkpt>
      <trkpt lat="46.44339" lon="-1.6676">
        <ele>13.1</ele>
        <time>2020-06-03T10:54:34Z</time>
      </trkpt>
      <trkpt lat="46.44342" lon="-1.66765">
        <ele>13.2</ele>
        <time>2020-06-03T10:54:35Z</time>
      </trkpt>
      <trkpt lat="46.44344" lon="-1.6677">
        <ele>13.2</ele>
        <time>2020-06-03T10:54:36Z</time>
      </trkpt>
      <trkpt lat="46.44347" lon="-1.66774">
        <ele>13.2</ele>
        <time>2020-06-03T10:54:37Z</time>
      </trkpt>
      <trkpt lat="46.4435" lon="-1.66779">
        <ele>13.2</ele>
        <time>2020-06-03T10:54:38Z</time>
      </trkpt>
      <trkpt lat="46.44353" lon="-1.66785">
        <ele>13.2</ele>
        <time>2020-06-03T10:54:39Z</time>
      </trkpt>
      <trkpt lat="46.44355" lon="-1.6679">
        <ele>13.2</ele>
        <time>2020-06-03T10:54:40Z</time>
      </trkpt>
      <trkpt lat="46.44358" lon="-1.66794">
        <ele>13.3</ele>
        <time>2020-06-03T10:54:41Z</time>
      </trkpt>
      <trkpt lat="46.44361" lon="-1.66799">
        <ele>13.3</ele>
        <time>2020-06-03T10:54:42Z</time>
      </trkpt>
      <trkpt lat="46.44364" lon="-1.66804">
        <ele>13.3</ele>
        <time>2020-06-03T10:54:43Z</time>
      </trkpt>
      <trkpt lat="46.44367" lon="-1.66809">
        <ele>13.3</ele>
        <time>2020-06-03T10:54:44Z</time>
      </trkpt>
      <trkpt lat="46.44369" lon="-1.66814">
        <ele>13.4</ele>
        <time>2020-06-03T10:54:45Z</time>
      </trkpt>
      <trkpt lat="46.44372" lon="-1.66819">
        <ele>13.4</ele>
        <time>2020-06-03T10:54:46Z</time>
      </trkpt>
      <trkpt lat="46.44375" lon="-1.66825">
        <ele>13.4</ele>
        <time>2020-06-03T10:54:47Z</time>
      </trkpt>
      <trkpt lat="46.44377" lon="-1.66831">
        <ele>13.4</ele>
        <time>2020-06-03T10:54:48Z</time>
      </trkpt>
      <trkpt lat="46.44379" lon="-1.66836">
        <ele>13.4</ele>
        <time>2020-06-03T10:54:49Z</time>
      </trkpt>
      <trkpt lat="46.44382" lon="-1.66841">
        <ele>13.4</ele>
        <time>2020-06-03T10:54:50Z</time>
      </trkpt>
      <trkpt lat="46.44384" lon="-1.66845">
        <ele>13.4</ele>
        <time>2020-06-03T10:54:51Z</time>
      </trkpt>
      <trkpt lat="46.44386" lon="-1.66848">
        <ele>13.4</ele>
        <time>2020-06-03T10:54:52Z</time>
      </trkpt>
      <trkpt lat="46.44389" lon="-1.66852">
        <ele>13.4</ele>
        <time>2020-06-03T10:54:53Z</time>
      </trkpt>
      <trkpt lat="46.44392" lon="-1.66856">
        <ele>13.4</ele>
        <time>2020-06-03T10:54:54Z</time>
      </trkpt>
      <trkpt lat="46.44394" lon="-1.66861">
        <ele>13.4</ele>
        <time>2020-06-03T10:54:55Z</time>
      </trkpt>
      <trkpt lat="46.44396" lon="-1.66866">
        <ele>13.3</ele>
        <time>2020-06-03T10:54:56Z</time>
      </trkpt>
      <trkpt lat="46.44398" lon="-1.66871">
        <ele>13.3</ele>
        <time>2020-06-03T10:54:57Z</time>
      </trkpt>
      <trkpt lat="46.44401" lon="-1.66875">
        <ele>13.3</ele>
        <time>2020-06-03T10:54:58Z</time>
      </trkpt>
      <trkpt lat="46.44403" lon="-1.66881">
        <ele>13.3</ele>
        <time>2020-06-03T10:54:59Z</time>
      </trkpt>
      <trkpt lat="46.44405" lon="-1.66885">
        <ele>13.3</ele>
        <time>2020-06-03T10:55:00Z</time>
      </trkpt>
      <trkpt lat="46.44408" lon="-1.6689">
        <ele>13.2</ele>
        <time>2020-06-03T10:55:01Z</time>
      </trkpt>
      <trkpt lat="46.4441" lon="-1.66895">
        <ele>13.2</ele>
        <time>2020-06-03T10:55:02Z</time>
      </trkpt>
      <trkpt lat="46.44413" lon="-1.669">
        <ele>13.2</ele>
        <time>2020-06-03T10:55:03Z</time>
      </trkpt>
      <trkpt lat="46.44416" lon="-1.66904">
        <ele>13.2</ele>
        <time>2020-06-03T10:55:04Z</time>
      </trkpt>
      <trkpt lat="46.44419" lon="-1.66909">
        <ele>13.2</ele>
        <time>2020-06-03T10:55:05Z</time>
      </trkpt>
      <trkpt lat="46.44421" lon="-1.66913">
        <ele>13.1</ele>
        <time>2020-06-03T10:55:06Z</time>
      </trkpt>
      <trkpt lat="46.44422" lon="-1.66918">
        <ele>13.1</ele>
        <time>2020-06-03T10:55:07Z</time>
      </trkpt>
      <trkpt lat="46.44424" lon="-1.66923">
        <ele>13.1</ele>
        <time>2020-06-03T10:55:08Z</time>
      </trkpt>
      <trkpt lat="46.44427" lon="-1.66929">
        <ele>13.1</ele>
        <time>2020-06-03T10:55:09Z</time>
      </trkpt>
      <trkpt lat="46.44429" lon="-1.66932">
        <ele>13.1</ele>
        <time>2020-06-03T10:55:10Z</time>
      </trkpt>
      <trkpt lat="46.44431" lon="-1.66936">
        <ele>13.1</ele>
        <time>2020-06-03T10:55:11Z</time>
      </trkpt>
      <trkpt lat="46.44433" lon="-1.66939">
        <ele>13.1</ele>
        <time>2020-06-03T10:55:12Z</time>
      </trkpt>
      <trkpt lat="46.44435" lon="-1.66942">
        <ele>13.1</ele>
        <time>2020-06-03T10:55:13Z</time>
      </trkpt>
      <trkpt lat="46.44438" lon="-1.66944">
        <ele>13.1</ele>
        <time>2020-06-03T10:55:14Z</time>
      </trkpt>
      <trkpt lat="46.44441" lon="-1.66946">
        <ele>13.1</ele>
        <time>2020-06-03T10:55:15Z</time>
      </trkpt>
      <trkpt lat="46.44443" lon="-1.66949">
        <ele>13.1</ele>
        <time>2020-06-03T10:55:16Z</time>
      </trkpt>
      <trkpt lat="46.44444" lon="-1.66953">
        <ele>13.1</ele>
        <time>2020-06-03T10:55:17Z</time>
      </trkpt>
      <trkpt lat="46.44445" lon="-1.66959">
        <ele>13.1</ele>
        <time>2020-06-03T10:55:18Z</time>
      </trkpt>
      <trkpt lat="46.44444" lon="-1.66965">
        <ele>13.1</ele>
        <time>2020-06-03T10:55:19Z</time>
      </trkpt>
      <trkpt lat="46.44442" lon="-1.66969">
        <ele>13.1</ele>
        <time>2020-06-03T10:55:20Z</time>
      </trkpt>
      <trkpt lat="46.4444" lon="-1.66974">
        <ele>13.1</ele>
        <time>2020-06-03T10:55:21Z</time>
      </trkpt>
      <trkpt lat="46.44439" lon="-1.66979">
        <ele>13.1</ele>
        <time>2020-06-03T10:55:22Z</time>
      </trkpt>
      <trkpt lat="46.44438" lon="-1.66984">
        <ele>13.1</ele>
        <time>2020-06-03T10:55:23Z</time>
      </trkpt>
      <trkpt lat="46.44437" lon="-1.6699">
        <ele>13.1</ele>
        <time>2020-06-03T10:55:24Z</time>
      </trkpt>
      <trkpt lat="46.44436" lon="-1.66995">
        <ele>13.1</ele>
        <time>2020-06-03T10:55:25Z</time>
      </trkpt>
      <trkpt lat="46.44436" lon="-1.67">
        <ele>13.1</ele>
        <time>2020-06-03T10:55:26Z</time>
      </trkpt>
      <trkpt lat="46.44436" lon="-1.67006">
        <ele>13.1</ele>
        <time>2020-06-03T10:55:27Z</time>
      </trkpt>
      <trkpt lat="46.44437" lon="-1.67012">
        <ele>13.1</ele>
        <time>2020-06-03T10:55:28Z</time>
      </trkpt>
      <trkpt lat="46.44436" lon="-1.67018">
        <ele>13.2</ele>
        <time>2020-06-03T10:55:29Z</time>
      </trkpt>
      <trkpt lat="46.44435" lon="-1.67023">
        <ele>13.4</ele>
        <time>2020-06-03T10:55:30Z</time>
      </trkpt>
      <trkpt lat="46.44434" lon="-1.67027">
        <ele>13.5</ele>
        <time>2020-06-03T10:55:31Z</time>
      </trkpt>
      <trkpt lat="46.44435" lon="-1.67032">
        <ele>13.6</ele>
        <time>2020-06-03T10:55:32Z</time>
      </trkpt>
      <trkpt lat="46.44436" lon="-1.67033">
        <ele>13.6</ele>
        <time>2020-06-03T10:55:33Z</time>
      </trkpt>
      <trkpt lat="46.44438" lon="-1.67036">
        <ele>13.6</ele>
        <time>2020-06-03T10:55:34Z</time>
      </trkpt>
      <trkpt lat="46.44439" lon="-1.6704">
        <ele>13.6</ele>
        <time>2020-06-03T10:55:35Z</time>
      </trkpt>
      <trkpt lat="46.4444" lon="-1.67046">
        <ele>13.6</ele>
        <time>2020-06-03T10:55:36Z</time>
      </trkpt>
      <trkpt lat="46.4444" lon="-1.67051">
        <ele>13.6</ele>
        <time>2020-06-03T10:55:37Z</time>
      </trkpt>
      <trkpt lat="46.44441" lon="-1.67056">
        <ele>13.7</ele>
        <time>2020-06-03T10:55:38Z</time>
      </trkpt>
      <trkpt lat="46.44441" lon="-1.67061">
        <ele>13.7</ele>
        <time>2020-06-03T10:55:39Z</time>
      </trkpt>
      <trkpt lat="46.44441" lon="-1.67067">
        <ele>13.7</ele>
        <time>2020-06-03T10:55:40Z</time>
      </trkpt>
      <trkpt lat="46.44442" lon="-1.67074">
        <ele>13.7</ele>
        <time>2020-06-03T10:55:41Z</time>
      </trkpt>
      <trkpt lat="46.44443" lon="-1.67081">
        <ele>13.7</ele>
        <time>2020-06-03T10:55:42Z</time>
      </trkpt>
      <trkpt lat="46.44444" lon="-1.67087">
        <ele>13.7</ele>
        <time>2020-06-03T10:55:43Z</time>
      </trkpt>
      <trkpt lat="46.44445" lon="-1.67093">
        <ele>13.7</ele>
        <time>2020-06-03T10:55:44Z</time>
      </trkpt>
      <trkpt lat="46.44446" lon="-1.67098">
        <ele>13.7</ele>
        <time>2020-06-03T10:55:45Z</time>
      </trkpt>
      <trkpt lat="46.44448" lon="-1.67103">
        <ele>13.7</ele>
        <time>2020-06-03T10:55:46Z</time>
      </trkpt>
      <trkpt lat="46.44449" lon="-1.67109">
        <ele>13.7</ele>
        <time>2020-06-03T10:55:47Z</time>
      </trkpt>
      <trkpt lat="46.44451" lon="-1.67115">
        <ele>13.7</ele>
        <time>2020-06-03T10:55:48Z</time>
      </trkpt>
      <trkpt lat="46.44452" lon="-1.67121">
        <ele>13.7</ele>
        <time>2020-06-03T10:55:49Z</time>
      </trkpt>
      <trkpt lat="46.44454" lon="-1.67127">
        <ele>13.7</ele>
        <time>2020-06-03T10:55:50Z</time>
      </trkpt>
      <trkpt lat="46.44456" lon="-1.67132">
        <ele>13.7</ele>
        <time>2020-06-03T10:55:51Z</time>
      </trkpt>
      <trkpt lat="46.44458" lon="-1.67138">
        <ele>13.7</ele>
        <time>2020-06-03T10:55:52Z</time>
      </trkpt>
      <trkpt lat="46.4446" lon="-1.67145">
        <ele>13.7</ele>
        <time>2020-06-03T10:55:53Z</time>
      </trkpt>
      <trkpt lat="46.44462" lon="-1.67151">
        <ele>13.7</ele>
        <time>2020-06-03T10:55:54Z</time>
      </trkpt>
      <trkpt lat="46.44465" lon="-1.67156">
        <ele>13.7</ele>
        <time>2020-06-03T10:55:55Z</time>
      </trkpt>
      <trkpt lat="46.44467" lon="-1.67161">
        <ele>13.7</ele>
        <time>2020-06-03T10:55:56Z</time>
      </trkpt>
      <trkpt lat="46.44469" lon="-1.67166">
        <ele>13.7</ele>
        <time>2020-06-03T10:55:57Z</time>
      </trkpt>
      <trkpt lat="46.4447" lon="-1.67171">
        <ele>13.6</ele>
        <time>2020-06-03T10:55:58Z</time>
      </trkpt>
      <trkpt lat="46.44472" lon="-1.67176">
        <ele>13.6</ele>
        <time>2020-06-03T10:55:59Z</time>
      </trkpt>
      <trkpt lat="46.44473" lon="-1.6718">
        <ele>13.6</ele>
        <time>2020-06-03T10:56:00Z</time>
      </trkpt>
      <trkpt lat="46.44474" lon="-1.67185">
        <ele>13.6</ele>
        <time>2020-06-03T10:56:01Z</time>
      </trkpt>
      <trkpt lat="46.44476" lon="-1.67189">
        <ele>13.6</ele>
        <time>2020-06-03T10:56:02Z</time>
      </trkpt>
      <trkpt lat="46.44477" lon="-1.67194">
        <ele>13.6</ele>
        <time>2020-06-03T10:56:03Z</time>
      </trkpt>
      <trkpt lat="46.44479" lon="-1.67199">
        <ele>13.6</ele>
        <time>2020-06-03T10:56:04Z</time>
      </trkpt>
      <trkpt lat="46.44482" lon="-1.67202">
        <ele>13.6</ele>
        <time>2020-06-03T10:56:05Z</time>
      </trkpt>
      <trkpt lat="46.44484" lon="-1.67205">
        <ele>13.7</ele>
        <time>2020-06-03T10:56:06Z</time>
      </trkpt>
      <trkpt lat="46.44487" lon="-1.67207">
        <ele>13.7</ele>
        <time>2020-06-03T10:56:07Z</time>
      </trkpt>
      <trkpt lat="46.4449" lon="-1.67209">
        <ele>13.7</ele>
        <time>2020-06-03T10:56:08Z</time>
      </trkpt>
      <trkpt lat="46.44491" lon="-1.6721">
        <ele>13.7</ele>
        <time>2020-06-03T10:56:09Z</time>
      </trkpt>
      <trkpt lat="46.44493" lon="-1.67214">
        <ele>13.7</ele>
        <time>2020-06-03T10:56:10Z</time>
      </trkpt>
      <trkpt lat="46.44494" lon="-1.67216">
        <ele>13.8</ele>
        <time>2020-06-03T10:56:11Z</time>
      </trkpt>
      <trkpt lat="46.44495" lon="-1.67218">
        <ele>13.8</ele>
        <time>2020-06-03T10:56:12Z</time>
      </trkpt>
      <trkpt lat="46.44497" lon="-1.67222">
        <ele>13.8</ele>
        <time>2020-06-03T10:56:13Z</time>
      </trkpt>
      <trkpt lat="46.44498" lon="-1.67226">
        <ele>13.8</ele>
        <time>2020-06-03T10:56:14Z</time>
      </trkpt>
      <trkpt lat="46.445" lon="-1.67231">
        <ele>13.9</ele>
        <time>2020-06-03T10:56:15Z</time>
      </trkpt>
      <trkpt lat="46.44502" lon="-1.67235">
        <ele>13.9</ele>
        <time>2020-06-03T10:56:16Z</time>
      </trkpt>
      <trkpt lat="46.44504" lon="-1.67239">
        <ele>13.9</ele>
        <time>2020-06-03T10:56:17Z</time>
      </trkpt>
      <trkpt lat="46.44507" lon="-1.67244">
        <ele>14</ele>
        <time>2020-06-03T10:56:18Z</time>
      </trkpt>
      <trkpt lat="46.44509" lon="-1.67251">
        <ele>14</ele>
        <time>2020-06-03T10:56:19Z</time>
      </trkpt>
      <trkpt lat="46.44509" lon="-1.67256">
        <ele>14</ele>
        <time>2020-06-03T10:56:20Z</time>
      </trkpt>
      <trkpt lat="46.44509" lon="-1.67261">
        <ele>14.1</ele>
        <time>2020-06-03T10:56:21Z</time>
      </trkpt>
      <trkpt lat="46.4451" lon="-1.67267">
        <ele>14.1</ele>
        <time>2020-06-03T10:56:22Z</time>
      </trkpt>
      <trkpt lat="46.44512" lon="-1.67273">
        <ele>14.1</ele>
        <time>2020-06-03T10:56:23Z</time>
      </trkpt>
      <trkpt lat="46.44514" lon="-1.67278">
        <ele>14.1</ele>
        <time>2020-06-03T10:56:24Z</time>
      </trkpt>
      <trkpt lat="46.44515" lon="-1.67284">
        <ele>14.1</ele>
        <time>2020-06-03T10:56:25Z</time>
      </trkpt>
      <trkpt lat="46.44515" lon="-1.67288">
        <ele>14.1</ele>
        <time>2020-06-03T10:56:26Z</time>
      </trkpt>
      <trkpt lat="46.44515" lon="-1.67294">
        <ele>14.1</ele>
        <time>2020-06-03T10:56:27Z</time>
      </trkpt>
      <trkpt lat="46.44514" lon="-1.67303">
        <ele>14.1</ele>
        <time>2020-06-03T10:56:28Z</time>
      </trkpt>
      <trkpt lat="46.44514" lon="-1.67311">
        <ele>14.1</ele>
        <time>2020-06-03T10:56:29Z</time>
      </trkpt>
      <trkpt lat="46.44514" lon="-1.67317">
        <ele>14.1</ele>
        <time>2020-06-03T10:56:30Z</time>
      </trkpt>
      <trkpt lat="46.44515" lon="-1.67322">
        <ele>14.1</ele>
        <time>2020-06-03T10:56:31Z</time>
      </trkpt>
      <trkpt lat="46.44516" lon="-1.67324">
        <ele>14.1</ele>
        <time>2020-06-03T10:56:32Z</time>
      </trkpt>
      <trkpt lat="46.44517" lon="-1.67326">
        <ele>14.1</ele>
        <time>2020-06-03T10:56:33Z</time>
      </trkpt>
      <trkpt lat="46.44519" lon="-1.6733">
        <ele>14</ele>
        <time>2020-06-03T10:56:34Z</time>
      </trkpt>
      <trkpt lat="46.4452" lon="-1.67331">
        <ele>14</ele>
        <time>2020-06-03T10:56:35Z</time>
      </trkpt>
      <trkpt lat="46.4452" lon="-1.67337">
        <ele>13.9</ele>
        <time>2020-06-03T10:56:36Z</time>
      </trkpt>
      <trkpt lat="46.4452" lon="-1.67339">
        <ele>13.9</ele>
        <time>2020-06-03T10:56:37Z</time>
      </trkpt>
      <trkpt lat="46.44521" lon="-1.67343">
        <ele>13.9</ele>
        <time>2020-06-03T10:56:38Z</time>
      </trkpt>
      <trkpt lat="46.44524" lon="-1.67347">
        <ele>14</ele>
        <time>2020-06-03T10:56:39Z</time>
      </trkpt>
      <trkpt lat="46.44528" lon="-1.67351">
        <ele>14.1</ele>
        <time>2020-06-03T10:56:40Z</time>
      </trkpt>
      <trkpt lat="46.44531" lon="-1.67354">
        <ele>14.1</ele>
        <time>2020-06-03T10:56:41Z</time>
      </trkpt>
      <trkpt lat="46.44534" lon="-1.67356">
        <ele>14.2</ele>
        <time>2020-06-03T10:56:42Z</time>
      </trkpt>
      <trkpt lat="46.44538" lon="-1.67357">
        <ele>14.3</ele>
        <time>2020-06-03T10:56:43Z</time>
      </trkpt>
      <trkpt lat="46.44542" lon="-1.67357">
        <ele>14.4</ele>
        <time>2020-06-03T10:56:44Z</time>
      </trkpt>
      <trkpt lat="46.44545" lon="-1.67359">
        <ele>14.5</ele>
        <time>2020-06-03T10:56:45Z</time>
      </trkpt>
      <trkpt lat="46.44549" lon="-1.67361">
        <ele>14.6</ele>
        <time>2020-06-03T10:56:46Z</time>
      </trkpt>
      <trkpt lat="46.44551" lon="-1.67363">
        <ele>14.6</ele>
        <time>2020-06-03T10:56:47Z</time>
      </trkpt>
      <trkpt lat="46.44554" lon="-1.67365">
        <ele>14.7</ele>
        <time>2020-06-03T10:56:48Z</time>
      </trkpt>
      <trkpt lat="46.44557" lon="-1.67369">
        <ele>14.8</ele>
        <time>2020-06-03T10:56:49Z</time>
      </trkpt>
      <trkpt lat="46.4456" lon="-1.67371">
        <ele>14.9</ele>
        <time>2020-06-03T10:56:50Z</time>
      </trkpt>
      <trkpt lat="46.44561" lon="-1.67372">
        <ele>14.9</ele>
        <time>2020-06-03T10:56:51Z</time>
      </trkpt>
      <trkpt lat="46.44564" lon="-1.67372">
        <ele>14.9</ele>
        <time>2020-06-03T10:56:52Z</time>
      </trkpt>
      <trkpt lat="46.44565" lon="-1.67371">
        <ele>14.9</ele>
        <time>2020-06-03T10:56:53Z</time>
      </trkpt>
      <trkpt lat="46.44567" lon="-1.6737">
        <ele>15</ele>
        <time>2020-06-03T10:56:54Z</time>
      </trkpt>
      <trkpt lat="46.44568" lon="-1.67371">
        <ele>15</ele>
        <time>2020-06-03T10:56:55Z</time>
      </trkpt>
      <trkpt lat="46.4457" lon="-1.67372">
        <ele>15</ele>
        <time>2020-06-03T10:56:56Z</time>
      </trkpt>
      <trkpt lat="46.44571" lon="-1.67375">
        <ele>15</ele>
        <time>2020-06-03T10:56:57Z</time>
      </trkpt>
      <trkpt lat="46.44572" lon="-1.67379">
        <ele>15.1</ele>
        <time>2020-06-03T10:56:58Z</time>
      </trkpt>
      <trkpt lat="46.44572" lon="-1.6738">
        <ele>15.1</ele>
        <time>2020-06-03T10:56:59Z</time>
      </trkpt>
      <trkpt lat="46.44574" lon="-1.67384">
        <ele>15.2</ele>
        <time>2020-06-03T10:57:00Z</time>
      </trkpt>
      <trkpt lat="46.44575" lon="-1.67386">
        <ele>15.2</ele>
        <time>2020-06-03T10:57:01Z</time>
      </trkpt>
      <trkpt lat="46.44576" lon="-1.6739">
        <ele>15.2</ele>
        <time>2020-06-03T10:57:02Z</time>
      </trkpt>
      <trkpt lat="46.44578" lon="-1.67394">
        <ele>15.2</ele>
        <time>2020-06-03T10:57:03Z</time>
      </trkpt>
      <trkpt lat="46.4458" lon="-1.67398">
        <ele>15.2</ele>
        <time>2020-06-03T10:57:04Z</time>
      </trkpt>
      <trkpt lat="46.44582" lon="-1.67402">
        <ele>15.3</ele>
        <time>2020-06-03T10:57:05Z</time>
      </trkpt>
      <trkpt lat="46.44584" lon="-1.67407">
        <ele>15.3</ele>
        <time>2020-06-03T10:57:06Z</time>
      </trkpt>
      <trkpt lat="46.44586" lon="-1.67412">
        <ele>15.3</ele>
        <time>2020-06-03T10:57:07Z</time>
      </trkpt>
      <trkpt lat="46.44588" lon="-1.67417">
        <ele>15.4</ele>
        <time>2020-06-03T10:57:08Z</time>
      </trkpt>
      <trkpt lat="46.4459" lon="-1.67422">
        <ele>15.5</ele>
        <time>2020-06-03T10:57:09Z</time>
      </trkpt>
      <trkpt lat="46.44593" lon="-1.67426">
        <ele>15.5</ele>
        <time>2020-06-03T10:57:10Z</time>
      </trkpt>
      <trkpt lat="46.44595" lon="-1.67432">
        <ele>15.6</ele>
        <time>2020-06-03T10:57:11Z</time>
      </trkpt>
      <trkpt lat="46.44598" lon="-1.67437">
        <ele>15.7</ele>
        <time>2020-06-03T10:57:12Z</time>
      </trkpt>
      <trkpt lat="46.446" lon="-1.67442">
        <ele>15.7</ele>
        <time>2020-06-03T10:57:13Z</time>
      </trkpt>
      <trkpt lat="46.44603" lon="-1.67447">
        <ele>15.8</ele>
        <time>2020-06-03T10:57:14Z</time>
      </trkpt>
      <trkpt lat="46.44605" lon="-1.67452">
        <ele>15.9</ele>
        <time>2020-06-03T10:57:15Z</time>
      </trkpt>
      <trkpt lat="46.44607" lon="-1.67456">
        <ele>15.9</ele>
        <time>2020-06-03T10:57:16Z</time>
      </trkpt>
      <trkpt lat="46.4461" lon="-1.67462">
        <ele>16</ele>
        <time>2020-06-03T10:57:17Z</time>
      </trkpt>
      <trkpt lat="46.44612" lon="-1.67466">
        <ele>16</ele>
        <time>2020-06-03T10:57:18Z</time>
      </trkpt>
      <trkpt lat="46.44615" lon="-1.67471">
        <ele>16.1</ele>
        <time>2020-06-03T10:57:19Z</time>
      </trkpt>
      <trkpt lat="46.44617" lon="-1.67476">
        <ele>16.2</ele>
        <time>2020-06-03T10:57:20Z</time>
      </trkpt>
      <trkpt lat="46.44619" lon="-1.67481">
        <ele>16.2</ele>
        <time>2020-06-03T10:57:21Z</time>
      </trkpt>
      <trkpt lat="46.44622" lon="-1.67485">
        <ele>16.3</ele>
        <time>2020-06-03T10:57:22Z</time>
      </trkpt>
      <trkpt lat="46.44624" lon="-1.6749">
        <ele>16.4</ele>
        <time>2020-06-03T10:57:23Z</time>
      </trkpt>
      <trkpt lat="46.44627" lon="-1.67495">
        <ele>16.4</ele>
        <time>2020-06-03T10:57:24Z</time>
      </trkpt>
      <trkpt lat="46.4463" lon="-1.67499">
        <ele>16.5</ele>
        <time>2020-06-03T10:57:25Z</time>
      </trkpt>
      <trkpt lat="46.44632" lon="-1.67504">
        <ele>16.6</ele>
        <time>2020-06-03T10:57:26Z</time>
      </trkpt>
      <trkpt lat="46.44634" lon="-1.67509">
        <ele>16.7</ele>
        <time>2020-06-03T10:57:27Z</time>
      </trkpt>
      <trkpt lat="46.44636" lon="-1.67513">
        <ele>16.8</ele>
        <time>2020-06-03T10:57:28Z</time>
      </trkpt>
      <trkpt lat="46.44639" lon="-1.67518">
        <ele>16.9</ele>
        <time>2020-06-03T10:57:29Z</time>
      </trkpt>
      <trkpt lat="46.44641" lon="-1.67522">
        <ele>16.9</ele>
        <time>2020-06-03T10:57:30Z</time>
      </trkpt>
      <trkpt lat="46.44644" lon="-1.67526">
        <ele>17</ele>
        <time>2020-06-03T10:57:31Z</time>
      </trkpt>
      <trkpt lat="46.44646" lon="-1.6753">
        <ele>17.1</ele>
        <time>2020-06-03T10:57:32Z</time>
      </trkpt>
      <trkpt lat="46.44648" lon="-1.67534">
        <ele>17.2</ele>
        <time>2020-06-03T10:57:33Z</time>
      </trkpt>
      <trkpt lat="46.4465" lon="-1.67539">
        <ele>17.2</ele>
        <time>2020-06-03T10:57:34Z</time>
      </trkpt>
      <trkpt lat="46.44652" lon="-1.67543">
        <ele>17.3</ele>
        <time>2020-06-03T10:57:35Z</time>
      </trkpt>
      <trkpt lat="46.44654" lon="-1.67547">
        <ele>17.4</ele>
        <time>2020-06-03T10:57:36Z</time>
      </trkpt>
      <trkpt lat="46.44656" lon="-1.67552">
        <ele>17.5</ele>
        <time>2020-06-03T10:57:37Z</time>
      </trkpt>
      <trkpt lat="46.44658" lon="-1.67557">
        <ele>17.5</ele>
        <time>2020-06-03T10:57:38Z</time>
      </trkpt>
      <trkpt lat="46.4466" lon="-1.67562">
        <ele>17.6</ele>
        <time>2020-06-03T10:57:39Z</time>
      </trkpt>
      <trkpt lat="46.44662" lon="-1.67567">
        <ele>17.7</ele>
        <time>2020-06-03T10:57:40Z</time>
      </trkpt>
      <trkpt lat="46.44664" lon="-1.67572">
        <ele>17.7</ele>
        <time>2020-06-03T10:57:41Z</time>
      </trkpt>
      <trkpt lat="46.44667" lon="-1.67577">
        <ele>17.8</ele>
        <time>2020-06-03T10:57:42Z</time>
      </trkpt>
      <trkpt lat="46.44669" lon="-1.67582">
        <ele>17.9</ele>
        <time>2020-06-03T10:57:43Z</time>
      </trkpt>
      <trkpt lat="46.44672" lon="-1.67587">
        <ele>18</ele>
        <time>2020-06-03T10:57:44Z</time>
      </trkpt>
      <trkpt lat="46.44674" lon="-1.67592">
        <ele>18.1</ele>
        <time>2020-06-03T10:57:45Z</time>
      </trkpt>
      <trkpt lat="46.44676" lon="-1.67598">
        <ele>18.1</ele>
        <time>2020-06-03T10:57:46Z</time>
      </trkpt>
      <trkpt lat="46.44677" lon="-1.67603">
        <ele>18.2</ele>
        <time>2020-06-03T10:57:47Z</time>
      </trkpt>
      <trkpt lat="46.44679" lon="-1.67609">
        <ele>18.3</ele>
        <time>2020-06-03T10:57:48Z</time>
      </trkpt>
      <trkpt lat="46.44681" lon="-1.67614">
        <ele>18.4</ele>
        <time>2020-06-03T10:57:49Z</time>
      </trkpt>
      <trkpt lat="46.44683" lon="-1.6762">
        <ele>18.5</ele>
        <time>2020-06-03T10:57:50Z</time>
      </trkpt>
      <trkpt lat="46.44685" lon="-1.67625">
        <ele>18.6</ele>
        <time>2020-06-03T10:57:51Z</time>
      </trkpt>
      <trkpt lat="46.44687" lon="-1.67631">
        <ele>18.7</ele>
        <time>2020-06-03T10:57:52Z</time>
      </trkpt>
      <trkpt lat="46.44688" lon="-1.67636">
        <ele>18.7</ele>
        <time>2020-06-03T10:57:53Z</time>
      </trkpt>
      <trkpt lat="46.4469" lon="-1.67642">
        <ele>18.8</ele>
        <time>2020-06-03T10:57:54Z</time>
      </trkpt>
      <trkpt lat="46.44692" lon="-1.67647">
        <ele>18.9</ele>
        <time>2020-06-03T10:57:55Z</time>
      </trkpt>
      <trkpt lat="46.44693" lon="-1.67653">
        <ele>18.9</ele>
        <time>2020-06-03T10:57:56Z</time>
      </trkpt>
      <trkpt lat="46.44695" lon="-1.67658">
        <ele>19</ele>
        <time>2020-06-03T10:57:57Z</time>
      </trkpt>
      <trkpt lat="46.44696" lon="-1.67663">
        <ele>19.1</ele>
        <time>2020-06-03T10:57:58Z</time>
      </trkpt>
      <trkpt lat="46.44696" lon="-1.67668">
        <ele>19.1</ele>
        <time>2020-06-03T10:57:59Z</time>
      </trkpt>
      <trkpt lat="46.44697" lon="-1.67673">
        <ele>19.2</ele>
        <time>2020-06-03T10:58:00Z</time>
      </trkpt>
      <trkpt lat="46.44698" lon="-1.67677">
        <ele>19.2</ele>
        <time>2020-06-03T10:58:01Z</time>
      </trkpt>
      <trkpt lat="46.44699" lon="-1.67681">
        <ele>19.3</ele>
        <time>2020-06-03T10:58:02Z</time>
      </trkpt>
      <trkpt lat="46.447" lon="-1.67686">
        <ele>19.3</ele>
        <time>2020-06-03T10:58:03Z</time>
      </trkpt>
      <trkpt lat="46.44701" lon="-1.6769">
        <ele>19.4</ele>
        <time>2020-06-03T10:58:04Z</time>
      </trkpt>
      <trkpt lat="46.44702" lon="-1.67695">
        <ele>19.4</ele>
        <time>2020-06-03T10:58:05Z</time>
      </trkpt>
      <trkpt lat="46.44703" lon="-1.67701">
        <ele>19.5</ele>
        <time>2020-06-03T10:58:06Z</time>
      </trkpt>
      <trkpt lat="46.44705" lon="-1.67707">
        <ele>19.5</ele>
        <time>2020-06-03T10:58:07Z</time>
      </trkpt>
      <trkpt lat="46.44706" lon="-1.67713">
        <ele>19.6</ele>
        <time>2020-06-03T10:58:08Z</time>
      </trkpt>
      <trkpt lat="46.44706" lon="-1.67719">
        <ele>19.6</ele>
        <time>2020-06-03T10:58:09Z</time>
      </trkpt>
      <trkpt lat="46.44706" lon="-1.67724">
        <ele>19.6</ele>
        <time>2020-06-03T10:58:10Z</time>
      </trkpt>
      <trkpt lat="46.44707" lon="-1.67729">
        <ele>19.6</ele>
        <time>2020-06-03T10:58:11Z</time>
      </trkpt>
      <trkpt lat="46.44707" lon="-1.67735">
        <ele>19.7</ele>
        <time>2020-06-03T10:58:12Z</time>
      </trkpt>
      <trkpt lat="46.44708" lon="-1.6774">
        <ele>19.7</ele>
        <time>2020-06-03T10:58:13Z</time>
      </trkpt>
      <trkpt lat="46.44708" lon="-1.67745">
        <ele>19.7</ele>
        <time>2020-06-03T10:58:14Z</time>
      </trkpt>
      <trkpt lat="46.44708" lon="-1.67751">
        <ele>19.7</ele>
        <time>2020-06-03T10:58:15Z</time>
      </trkpt>
      <trkpt lat="46.44709" lon="-1.67758">
        <ele>19.7</ele>
        <time>2020-06-03T10:58:16Z</time>
      </trkpt>
      <trkpt lat="46.44709" lon="-1.67764">
        <ele>19.8</ele>
        <time>2020-06-03T10:58:17Z</time>
      </trkpt>
      <trkpt lat="46.44709" lon="-1.67769">
        <ele>19.8</ele>
        <time>2020-06-03T10:58:18Z</time>
      </trkpt>
      <trkpt lat="46.44708" lon="-1.67775">
        <ele>19.8</ele>
        <time>2020-06-03T10:58:19Z</time>
      </trkpt>
      <trkpt lat="46.44708" lon="-1.67781">
        <ele>19.8</ele>
        <time>2020-06-03T10:58:20Z</time>
      </trkpt>
      <trkpt lat="46.44708" lon="-1.67787">
        <ele>19.8</ele>
        <time>2020-06-03T10:58:21Z</time>
      </trkpt>
      <trkpt lat="46.44708" lon="-1.67793">
        <ele>19.9</ele>
        <time>2020-06-03T10:58:22Z</time>
      </trkpt>
      <trkpt lat="46.44708" lon="-1.67798">
        <ele>19.9</ele>
        <time>2020-06-03T10:58:23Z</time>
      </trkpt>
      <trkpt lat="46.44709" lon="-1.67804">
        <ele>19.9</ele>
        <time>2020-06-03T10:58:24Z</time>
      </trkpt>
      <trkpt lat="46.44709" lon="-1.67809">
        <ele>19.8</ele>
        <time>2020-06-03T10:58:25Z</time>
      </trkpt>
      <trkpt lat="46.44709" lon="-1.67815">
        <ele>19.8</ele>
        <time>2020-06-03T10:58:26Z</time>
      </trkpt>
      <trkpt lat="46.44709" lon="-1.67819">
        <ele>19.8</ele>
        <time>2020-06-03T10:58:27Z</time>
      </trkpt>
      <trkpt lat="46.44708" lon="-1.67824">
        <ele>19.8</ele>
        <time>2020-06-03T10:58:28Z</time>
      </trkpt>
      <trkpt lat="46.44708" lon="-1.67829">
        <ele>19.8</ele>
        <time>2020-06-03T10:58:29Z</time>
      </trkpt>
      <trkpt lat="46.44707" lon="-1.67834">
        <ele>19.7</ele>
        <time>2020-06-03T10:58:30Z</time>
      </trkpt>
      <trkpt lat="46.44707" lon="-1.67841">
        <ele>19.7</ele>
        <time>2020-06-03T10:58:31Z</time>
      </trkpt>
      <trkpt lat="46.44706" lon="-1.67848">
        <ele>19.7</ele>
        <time>2020-06-03T10:58:32Z</time>
      </trkpt>
      <trkpt lat="46.44704" lon="-1.67856">
        <ele>19.7</ele>
        <time>2020-06-03T10:58:33Z</time>
      </trkpt>
      <trkpt lat="46.44703" lon="-1.67863">
        <ele>19.8</ele>
        <time>2020-06-03T10:58:34Z</time>
      </trkpt>
      <trkpt lat="46.44702" lon="-1.67867">
        <ele>19.8</ele>
        <time>2020-06-03T10:58:35Z</time>
      </trkpt>
      <trkpt lat="46.44702" lon="-1.67873">
        <ele>19.8</ele>
        <time>2020-06-03T10:58:36Z</time>
      </trkpt>
      <trkpt lat="46.44701" lon="-1.67875">
        <ele>19.8</ele>
        <time>2020-06-03T10:58:37Z</time>
      </trkpt>
      <trkpt lat="46.44699" lon="-1.67878">
        <ele>19.8</ele>
        <time>2020-06-03T10:58:38Z</time>
      </trkpt>
      <trkpt lat="46.44698" lon="-1.67879">
        <ele>19.9</ele>
        <time>2020-06-03T10:58:39Z</time>
      </trkpt>
      <trkpt lat="46.44697" lon="-1.67883">
        <ele>19.9</ele>
        <time>2020-06-03T10:58:40Z</time>
      </trkpt>
      <trkpt lat="46.44696" lon="-1.67885">
        <ele>19.9</ele>
        <time>2020-06-03T10:58:41Z</time>
      </trkpt>
      <trkpt lat="46.44696" lon="-1.67887">
        <ele>19.9</ele>
        <time>2020-06-03T10:58:42Z</time>
      </trkpt>
      <trkpt lat="46.44696" lon="-1.6789">
        <ele>19.9</ele>
        <time>2020-06-03T10:58:43Z</time>
      </trkpt>
      <trkpt lat="46.44696" lon="-1.67894">
        <ele>19.9</ele>
        <time>2020-06-03T10:58:44Z</time>
      </trkpt>
      <trkpt lat="46.44696" lon="-1.67896">
        <ele>20</ele>
        <time>2020-06-03T10:58:45Z</time>
      </trkpt>
      <trkpt lat="46.44697" lon="-1.679">
        <ele>20.1</ele>
        <time>2020-06-03T10:58:46Z</time>
      </trkpt>
      <trkpt lat="46.44697" lon="-1.679">
        <ele>20.1</ele>
        <time>2020-06-03T10:58:47Z</time>
      </trkpt>
      <trkpt lat="46.44697" lon="-1.67905">
        <ele>20.2</ele>
        <time>2020-06-03T10:58:48Z</time>
      </trkpt>
      <trkpt lat="46.44697" lon="-1.67907">
        <ele>20.2</ele>
        <time>2020-06-03T10:58:49Z</time>
      </trkpt>
      <trkpt lat="46.44697" lon="-1.67912">
        <ele>20.3</ele>
        <time>2020-06-03T10:58:50Z</time>
      </trkpt>
      <trkpt lat="46.44697" lon="-1.67913">
        <ele>20.3</ele>
        <time>2020-06-03T10:58:51Z</time>
      </trkpt>
      <trkpt lat="46.44699" lon="-1.67918">
        <ele>20.4</ele>
        <time>2020-06-03T10:58:52Z</time>
      </trkpt>
      <trkpt lat="46.447" lon="-1.6792">
        <ele>20.4</ele>
        <time>2020-06-03T10:58:53Z</time>
      </trkpt>
      <trkpt lat="46.447" lon="-1.67924">
        <ele>20.4</ele>
        <time>2020-06-03T10:58:54Z</time>
      </trkpt>
      <trkpt lat="46.44699" lon="-1.67929">
        <ele>20.5</ele>
        <time>2020-06-03T10:58:55Z</time>
      </trkpt>
      <trkpt lat="46.447" lon="-1.67931">
        <ele>20.5</ele>
        <time>2020-06-03T10:58:56Z</time>
      </trkpt>
      <trkpt lat="46.44699" lon="-1.67932">
        <ele>20.6</ele>
        <time>2020-06-03T10:58:57Z</time>
      </trkpt>
      <trkpt lat="46.44699" lon="-1.67933">
        <ele>20.6</ele>
        <time>2020-06-03T10:58:58Z</time>
      </trkpt>
      <trkpt lat="46.44699" lon="-1.67933">
        <ele>20.6</ele>
        <time>2020-06-03T10:58:59Z</time>
      </trkpt>
      <trkpt lat="46.44701" lon="-1.67935">
        <ele>20.6</ele>
        <time>2020-06-03T10:59:00Z</time>
      </trkpt>
      <trkpt lat="46.44702" lon="-1.67936">
        <ele>20.7</ele>
        <time>2020-06-03T10:59:01Z</time>
      </trkpt>
      <trkpt lat="46.44704" lon="-1.67937">
        <ele>20.7</ele>
        <time>2020-06-03T10:59:02Z</time>
      </trkpt>
      <trkpt lat="46.44706" lon="-1.6794">
        <ele>20.9</ele>
        <time>2020-06-03T10:59:03Z</time>
      </trkpt>
      <trkpt lat="46.44707" lon="-1.67944">
        <ele>20.9</ele>
        <time>2020-06-03T10:59:04Z</time>
      </trkpt>
      <trkpt lat="46.44707" lon="-1.67949">
        <ele>21</ele>
        <time>2020-06-03T10:59:05Z</time>
      </trkpt>
      <trkpt lat="46.44707" lon="-1.67951">
        <ele>21</ele>
        <time>2020-06-03T10:59:06Z</time>
      </trkpt>
      <trkpt lat="46.44707" lon="-1.67956">
        <ele>21.1</ele>
        <time>2020-06-03T10:59:07Z</time>
      </trkpt>
      <trkpt lat="46.44706" lon="-1.6796">
        <ele>21.1</ele>
        <time>2020-06-03T10:59:08Z</time>
      </trkpt>
      <trkpt lat="46.44706" lon="-1.67964">
        <ele>21.1</ele>
        <time>2020-06-03T10:59:09Z</time>
      </trkpt>
      <trkpt lat="46.44705" lon="-1.67969">
        <ele>21.2</ele>
        <time>2020-06-03T10:59:10Z</time>
      </trkpt>
      <trkpt lat="46.44705" lon="-1.67974">
        <ele>21.2</ele>
        <time>2020-06-03T10:59:11Z</time>
      </trkpt>
      <trkpt lat="46.44705" lon="-1.67979">
        <ele>21.3</ele>
        <time>2020-06-03T10:59:12Z</time>
      </trkpt>
      <trkpt lat="46.44705" lon="-1.67986">
        <ele>21.3</ele>
        <time>2020-06-03T10:59:13Z</time>
      </trkpt>
      <trkpt lat="46.44705" lon="-1.67992">
        <ele>21.3</ele>
        <time>2020-06-03T10:59:14Z</time>
      </trkpt>
      <trkpt lat="46.44704" lon="-1.67999">
        <ele>21.4</ele>
        <time>2020-06-03T10:59:15Z</time>
      </trkpt>
      <trkpt lat="46.44704" lon="-1.68004">
        <ele>21.4</ele>
        <time>2020-06-03T10:59:16Z</time>
      </trkpt>
      <trkpt lat="46.44705" lon="-1.6801">
        <ele>21.5</ele>
        <time>2020-06-03T10:59:17Z</time>
      </trkpt>
      <trkpt lat="46.44705" lon="-1.68016">
        <ele>21.5</ele>
        <time>2020-06-03T10:59:18Z</time>
      </trkpt>
      <trkpt lat="46.44705" lon="-1.68023">
        <ele>21.6</ele>
        <time>2020-06-03T10:59:19Z</time>
      </trkpt>
      <trkpt lat="46.44705" lon="-1.68029">
        <ele>21.6</ele>
        <time>2020-06-03T10:59:20Z</time>
      </trkpt>
      <trkpt lat="46.44705" lon="-1.68035">
        <ele>21.7</ele>
        <time>2020-06-03T10:59:21Z</time>
      </trkpt>
      <trkpt lat="46.44705" lon="-1.68041">
        <ele>21.7</ele>
        <time>2020-06-03T10:59:22Z</time>
      </trkpt>
      <trkpt lat="46.44705" lon="-1.68047">
        <ele>21.7</ele>
        <time>2020-06-03T10:59:23Z</time>
      </trkpt>
      <trkpt lat="46.44705" lon="-1.68053">
        <ele>21.8</ele>
        <time>2020-06-03T10:59:24Z</time>
      </trkpt>
      <trkpt lat="46.44705" lon="-1.68059">
        <ele>21.8</ele>
        <time>2020-06-03T10:59:25Z</time>
      </trkpt>
      <trkpt lat="46.44705" lon="-1.68065">
        <ele>21.8</ele>
        <time>2020-06-03T10:59:26Z</time>
      </trkpt>
      <trkpt lat="46.44705" lon="-1.68071">
        <ele>21.8</ele>
        <time>2020-06-03T10:59:27Z</time>
      </trkpt>
      <trkpt lat="46.44706" lon="-1.68078">
        <ele>21.8</ele>
        <time>2020-06-03T10:59:28Z</time>
      </trkpt>
      <trkpt lat="46.44707" lon="-1.68084">
        <ele>21.8</ele>
        <time>2020-06-03T10:59:29Z</time>
      </trkpt>
      <trkpt lat="46.44709" lon="-1.68088">
        <ele>21.9</ele>
        <time>2020-06-03T10:59:30Z</time>
      </trkpt>
      <trkpt lat="46.44711" lon="-1.68094">
        <ele>21.9</ele>
        <time>2020-06-03T10:59:31Z</time>
      </trkpt>
      <trkpt lat="46.44712" lon="-1.68099">
        <ele>22</ele>
        <time>2020-06-03T10:59:32Z</time>
      </trkpt>
      <trkpt lat="46.44712" lon="-1.68104">
        <ele>22</ele>
        <time>2020-06-03T10:59:33Z</time>
      </trkpt>
      <trkpt lat="46.44713" lon="-1.68108">
        <ele>22</ele>
        <time>2020-06-03T10:59:34Z</time>
      </trkpt>
      <trkpt lat="46.44713" lon="-1.68113">
        <ele>22</ele>
        <time>2020-06-03T10:59:35Z</time>
      </trkpt>
      <trkpt lat="46.44714" lon="-1.68118">
        <ele>22.1</ele>
        <time>2020-06-03T10:59:36Z</time>
      </trkpt>
      <trkpt lat="46.44713" lon="-1.68124">
        <ele>22.1</ele>
        <time>2020-06-03T10:59:37Z</time>
      </trkpt>
      <trkpt lat="46.44714" lon="-1.68129">
        <ele>22.1</ele>
        <time>2020-06-03T10:59:38Z</time>
      </trkpt>
      <trkpt lat="46.44716" lon="-1.68134">
        <ele>22.1</ele>
        <time>2020-06-03T10:59:39Z</time>
      </trkpt>
      <trkpt lat="46.44716" lon="-1.6814">
        <ele>22.1</ele>
        <time>2020-06-03T10:59:40Z</time>
      </trkpt>
      <trkpt lat="46.44716" lon="-1.68145">
        <ele>22.1</ele>
        <time>2020-06-03T10:59:41Z</time>
      </trkpt>
      <trkpt lat="46.44716" lon="-1.68151">
        <ele>22.1</ele>
        <time>2020-06-03T10:59:42Z</time>
      </trkpt>
      <trkpt lat="46.44716" lon="-1.68156">
        <ele>22</ele>
        <time>2020-06-03T10:59:43Z</time>
      </trkpt>
      <trkpt lat="46.44717" lon="-1.68163">
        <ele>22</ele>
        <time>2020-06-03T10:59:44Z</time>
      </trkpt>
      <trkpt lat="46.44717" lon="-1.68169">
        <ele>22</ele>
        <time>2020-06-03T10:59:45Z</time>
      </trkpt>
      <trkpt lat="46.44719" lon="-1.68175">
        <ele>22</ele>
        <time>2020-06-03T10:59:46Z</time>
      </trkpt>
      <trkpt lat="46.44719" lon="-1.68181">
        <ele>22</ele>
        <time>2020-06-03T10:59:47Z</time>
      </trkpt>
      <trkpt lat="46.4472" lon="-1.68187">
        <ele>21.9</ele>
        <time>2020-06-03T10:59:48Z</time>
      </trkpt>
      <trkpt lat="46.44721" lon="-1.68193">
        <ele>21.9</ele>
        <time>2020-06-03T10:59:49Z</time>
      </trkpt>
      <trkpt lat="46.44721" lon="-1.68199">
        <ele>21.9</ele>
        <time>2020-06-03T10:59:50Z</time>
      </trkpt>
      <trkpt lat="46.44722" lon="-1.68205">
        <ele>21.8</ele>
        <time>2020-06-03T10:59:51Z</time>
      </trkpt>
      <trkpt lat="46.44724" lon="-1.68211">
        <ele>21.8</ele>
        <time>2020-06-03T10:59:52Z</time>
      </trkpt>
      <trkpt lat="46.44725" lon="-1.68217">
        <ele>21.7</ele>
        <time>2020-06-03T10:59:53Z</time>
      </trkpt>
      <trkpt lat="46.44727" lon="-1.68222">
        <ele>21.6</ele>
        <time>2020-06-03T10:59:54Z</time>
      </trkpt>
      <trkpt lat="46.44728" lon="-1.68229">
        <ele>21.6</ele>
        <time>2020-06-03T10:59:55Z</time>
      </trkpt>
      <trkpt lat="46.4473" lon="-1.68235">
        <ele>21.5</ele>
        <time>2020-06-03T10:59:56Z</time>
      </trkpt>
      <trkpt lat="46.44731" lon="-1.68241">
        <ele>21.4</ele>
        <time>2020-06-03T10:59:57Z</time>
      </trkpt>
      <trkpt lat="46.44733" lon="-1.68247">
        <ele>21.4</ele>
        <time>2020-06-03T10:59:58Z</time>
      </trkpt>
      <trkpt lat="46.44734" lon="-1.68252">
        <ele>21.4</ele>
        <time>2020-06-03T10:59:59Z</time>
      </trkpt>
      <trkpt lat="46.44736" lon="-1.68257">
        <ele>21.3</ele>
        <time>2020-06-03T11:00:00Z</time>
      </trkpt>
      <trkpt lat="46.44737" lon="-1.68262">
        <ele>21.3</ele>
        <time>2020-06-03T11:00:01Z</time>
      </trkpt>
      <trkpt lat="46.44739" lon="-1.68268">
        <ele>21.3</ele>
        <time>2020-06-03T11:00:02Z</time>
      </trkpt>
      <trkpt lat="46.4474" lon="-1.68273">
        <ele>21.2</ele>
        <time>2020-06-03T11:00:03Z</time>
      </trkpt>
      <trkpt lat="46.44742" lon="-1.68278">
        <ele>21.2</ele>
        <time>2020-06-03T11:00:04Z</time>
      </trkpt>
      <trkpt lat="46.44743" lon="-1.68284">
        <ele>21.2</ele>
        <time>2020-06-03T11:00:05Z</time>
      </trkpt>
      <trkpt lat="46.44744" lon="-1.68288">
        <ele>21.2</ele>
        <time>2020-06-03T11:00:06Z</time>
      </trkpt>
      <trkpt lat="46.44745" lon="-1.68294">
        <ele>21.2</ele>
        <time>2020-06-03T11:00:07Z</time>
      </trkpt>
      <trkpt lat="46.44746" lon="-1.68299">
        <ele>21.1</ele>
        <time>2020-06-03T11:00:08Z</time>
      </trkpt>
      <trkpt lat="46.44747" lon="-1.68305">
        <ele>21.1</ele>
        <time>2020-06-03T11:00:09Z</time>
      </trkpt>
      <trkpt lat="46.44748" lon="-1.68311">
        <ele>21</ele>
        <time>2020-06-03T11:00:10Z</time>
      </trkpt>
      <trkpt lat="46.44749" lon="-1.68317">
        <ele>21</ele>
        <time>2020-06-03T11:00:11Z</time>
      </trkpt>
      <trkpt lat="46.44751" lon="-1.68321">
        <ele>20.9</ele>
        <time>2020-06-03T11:00:12Z</time>
      </trkpt>
      <trkpt lat="46.44753" lon="-1.68328">
        <ele>20.8</ele>
        <time>2020-06-03T11:00:13Z</time>
      </trkpt>
      <trkpt lat="46.44756" lon="-1.68334">
        <ele>20.7</ele>
        <time>2020-06-03T11:00:14Z</time>
      </trkpt>
      <trkpt lat="46.44758" lon="-1.68341">
        <ele>20.5</ele>
        <time>2020-06-03T11:00:15Z</time>
      </trkpt>
      <trkpt lat="46.4476" lon="-1.68347">
        <ele>20.4</ele>
        <time>2020-06-03T11:00:16Z</time>
      </trkpt>
      <trkpt lat="46.44761" lon="-1.68355">
        <ele>20.3</ele>
        <time>2020-06-03T11:00:17Z</time>
      </trkpt>
      <trkpt lat="46.44762" lon="-1.68362">
        <ele>20.2</ele>
        <time>2020-06-03T11:00:18Z</time>
      </trkpt>
      <trkpt lat="46.44764" lon="-1.68369">
        <ele>20.1</ele>
        <time>2020-06-03T11:00:19Z</time>
      </trkpt>
      <trkpt lat="46.44767" lon="-1.68375">
        <ele>20</ele>
        <time>2020-06-03T11:00:20Z</time>
      </trkpt>
      <trkpt lat="46.44771" lon="-1.68382">
        <ele>20</ele>
        <time>2020-06-03T11:00:21Z</time>
      </trkpt>
      <trkpt lat="46.44774" lon="-1.68388">
        <ele>20</ele>
        <time>2020-06-03T11:00:22Z</time>
      </trkpt>
      <trkpt lat="46.44777" lon="-1.68393">
        <ele>20</ele>
        <time>2020-06-03T11:00:23Z</time>
      </trkpt>
      <trkpt lat="46.4478" lon="-1.68398">
        <ele>20</ele>
        <time>2020-06-03T11:00:24Z</time>
      </trkpt>
      <trkpt lat="46.44783" lon="-1.68403">
        <ele>20</ele>
        <time>2020-06-03T11:00:25Z</time>
      </trkpt>
      <trkpt lat="46.44786" lon="-1.68408">
        <ele>20</ele>
        <time>2020-06-03T11:00:26Z</time>
      </trkpt>
      <trkpt lat="46.4479" lon="-1.68412">
        <ele>20</ele>
        <time>2020-06-03T11:00:27Z</time>
      </trkpt>
      <trkpt lat="46.44793" lon="-1.68416">
        <ele>19.9</ele>
        <time>2020-06-03T11:00:28Z</time>
      </trkpt>
      <trkpt lat="46.44796" lon="-1.68422">
        <ele>19.9</ele>
        <time>2020-06-03T11:00:29Z</time>
      </trkpt>
      <trkpt lat="46.448" lon="-1.68427">
        <ele>19.9</ele>
        <time>2020-06-03T11:00:30Z</time>
      </trkpt>
      <trkpt lat="46.44803" lon="-1.68432">
        <ele>19.9</ele>
        <time>2020-06-03T11:00:31Z</time>
      </trkpt>
      <trkpt lat="46.44807" lon="-1.68435">
        <ele>19.8</ele>
        <time>2020-06-03T11:00:32Z</time>
      </trkpt>
      <trkpt lat="46.44811" lon="-1.6844">
        <ele>19.8</ele>
        <time>2020-06-03T11:00:33Z</time>
      </trkpt>
      <trkpt lat="46.44815" lon="-1.68443">
        <ele>19.8</ele>
        <time>2020-06-03T11:00:34Z</time>
      </trkpt>
      <trkpt lat="46.44819" lon="-1.68447">
        <ele>19.8</ele>
        <time>2020-06-03T11:00:35Z</time>
      </trkpt>
      <trkpt lat="46.44823" lon="-1.6845">
        <ele>19.8</ele>
        <time>2020-06-03T11:00:36Z</time>
      </trkpt>
      <trkpt lat="46.44827" lon="-1.68453">
        <ele>19.8</ele>
        <time>2020-06-03T11:00:37Z</time>
      </trkpt>
      <trkpt lat="46.44831" lon="-1.68457">
        <ele>19.7</ele>
        <time>2020-06-03T11:00:38Z</time>
      </trkpt>
      <trkpt lat="46.44835" lon="-1.6846">
        <ele>19.7</ele>
        <time>2020-06-03T11:00:39Z</time>
      </trkpt>
      <trkpt lat="46.44839" lon="-1.68464">
        <ele>19.7</ele>
        <time>2020-06-03T11:00:40Z</time>
      </trkpt>
      <trkpt lat="46.44843" lon="-1.68466">
        <ele>19.7</ele>
        <time>2020-06-03T11:00:41Z</time>
      </trkpt>
      <trkpt lat="46.44847" lon="-1.6847">
        <ele>19.7</ele>
        <time>2020-06-03T11:00:42Z</time>
      </trkpt>
      <trkpt lat="46.4485" lon="-1.68473">
        <ele>19.7</ele>
        <time>2020-06-03T11:00:43Z</time>
      </trkpt>
      <trkpt lat="46.44854" lon="-1.68476">
        <ele>19.7</ele>
        <time>2020-06-03T11:00:44Z</time>
      </trkpt>
      <trkpt lat="46.44858" lon="-1.68479">
        <ele>19.7</ele>
        <time>2020-06-03T11:00:45Z</time>
      </trkpt>
      <trkpt lat="46.44862" lon="-1.68482">
        <ele>19.6</ele>
        <time>2020-06-03T11:00:46Z</time>
      </trkpt>
      <trkpt lat="46.44866" lon="-1.68485">
        <ele>19.6</ele>
        <time>2020-06-03T11:00:47Z</time>
      </trkpt>
      <trkpt lat="46.4487" lon="-1.68487">
        <ele>19.6</ele>
        <time>2020-06-03T11:00:48Z</time>
      </trkpt>
      <trkpt lat="46.44874" lon="-1.6849">
        <ele>19.6</ele>
        <time>2020-06-03T11:00:49Z</time>
      </trkpt>
      <trkpt lat="46.44878" lon="-1.68491">
        <ele>19.6</ele>
        <time>2020-06-03T11:00:50Z</time>
      </trkpt>
      <trkpt lat="46.44883" lon="-1.68495">
        <ele>19.5</ele>
        <time>2020-06-03T11:00:51Z</time>
      </trkpt>
      <trkpt lat="46.44887" lon="-1.68498">
        <ele>19.4</ele>
        <time>2020-06-03T11:00:52Z</time>
      </trkpt>
      <trkpt lat="46.44892" lon="-1.68501">
        <ele>19.4</ele>
        <time>2020-06-03T11:00:53Z</time>
      </trkpt>
      <trkpt lat="46.44897" lon="-1.68505">
        <ele>19.3</ele>
        <time>2020-06-03T11:00:54Z</time>
      </trkpt>
      <trkpt lat="46.44902" lon="-1.68508">
        <ele>19.2</ele>
        <time>2020-06-03T11:00:55Z</time>
      </trkpt>
      <trkpt lat="46.44905" lon="-1.68512">
        <ele>19.2</ele>
        <time>2020-06-03T11:00:56Z</time>
      </trkpt>
      <trkpt lat="46.44909" lon="-1.68515">
        <ele>19.1</ele>
        <time>2020-06-03T11:00:57Z</time>
      </trkpt>
      <trkpt lat="46.44912" lon="-1.68518">
        <ele>19.1</ele>
        <time>2020-06-03T11:00:58Z</time>
      </trkpt>
      <trkpt lat="46.44916" lon="-1.68521">
        <ele>19</ele>
        <time>2020-06-03T11:00:59Z</time>
      </trkpt>
      <trkpt lat="46.4492" lon="-1.68525">
        <ele>18.9</ele>
        <time>2020-06-03T11:01:00Z</time>
      </trkpt>
      <trkpt lat="46.44923" lon="-1.68529">
        <ele>18.8</ele>
        <time>2020-06-03T11:01:01Z</time>
      </trkpt>
      <trkpt lat="46.44927" lon="-1.68533">
        <ele>18.7</ele>
        <time>2020-06-03T11:01:02Z</time>
      </trkpt>
      <trkpt lat="46.44932" lon="-1.68537">
        <ele>18.7</ele>
        <time>2020-06-03T11:01:03Z</time>
      </trkpt>
      <trkpt lat="46.44936" lon="-1.68541">
        <ele>18.6</ele>
        <time>2020-06-03T11:01:04Z</time>
      </trkpt>
      <trkpt lat="46.4494" lon="-1.68546">
        <ele>18.5</ele>
        <time>2020-06-03T11:01:05Z</time>
      </trkpt>
      <trkpt lat="46.44945" lon="-1.68551">
        <ele>18.4</ele>
        <time>2020-06-03T11:01:06Z</time>
      </trkpt>
      <trkpt lat="46.44949" lon="-1.68555">
        <ele>18.3</ele>
        <time>2020-06-03T11:01:07Z</time>
      </trkpt>
      <trkpt lat="46.44954" lon="-1.6856">
        <ele>18.2</ele>
        <time>2020-06-03T11:01:08Z</time>
      </trkpt>
      <trkpt lat="46.44959" lon="-1.68564">
        <ele>18</ele>
        <time>2020-06-03T11:01:09Z</time>
      </trkpt>
      <trkpt lat="46.44963" lon="-1.68568">
        <ele>17.9</ele>
        <time>2020-06-03T11:01:10Z</time>
      </trkpt>
      <trkpt lat="46.44968" lon="-1.68571">
        <ele>17.8</ele>
        <time>2020-06-03T11:01:11Z</time>
      </trkpt>
      <trkpt lat="46.44972" lon="-1.68575">
        <ele>17.8</ele>
        <time>2020-06-03T11:01:12Z</time>
      </trkpt>
      <trkpt lat="46.44976" lon="-1.68579">
        <ele>17.7</ele>
        <time>2020-06-03T11:01:13Z</time>
      </trkpt>
      <trkpt lat="46.4498" lon="-1.68583">
        <ele>17.6</ele>
        <time>2020-06-03T11:01:14Z</time>
      </trkpt>
      <trkpt lat="46.44984" lon="-1.68588">
        <ele>17.5</ele>
        <time>2020-06-03T11:01:15Z</time>
      </trkpt>
      <trkpt lat="46.44988" lon="-1.68592">
        <ele>17.5</ele>
        <time>2020-06-03T11:01:16Z</time>
      </trkpt>
      <trkpt lat="46.44992" lon="-1.68597">
        <ele>17.4</ele>
        <time>2020-06-03T11:01:17Z</time>
      </trkpt>
      <trkpt lat="46.44996" lon="-1.68602">
        <ele>17.3</ele>
        <time>2020-06-03T11:01:18Z</time>
      </trkpt>
      <trkpt lat="46.45" lon="-1.68606">
        <ele>17.3</ele>
        <time>2020-06-03T11:01:19Z</time>
      </trkpt>
      <trkpt lat="46.45005" lon="-1.68611">
        <ele>17.2</ele>
        <time>2020-06-03T11:01:20Z</time>
      </trkpt>
      <trkpt lat="46.45009" lon="-1.68615">
        <ele>17.1</ele>
        <time>2020-06-03T11:01:21Z</time>
      </trkpt>
      <trkpt lat="46.45013" lon="-1.68619">
        <ele>17.1</ele>
        <time>2020-06-03T11:01:22Z</time>
      </trkpt>
      <trkpt lat="46.45017" lon="-1.68623">
        <ele>17</ele>
        <time>2020-06-03T11:01:23Z</time>
      </trkpt>
      <trkpt lat="46.4502" lon="-1.68627">
        <ele>16.9</ele>
        <time>2020-06-03T11:01:24Z</time>
      </trkpt>
      <trkpt lat="46.45023" lon="-1.68632">
        <ele>16.8</ele>
        <time>2020-06-03T11:01:25Z</time>
      </trkpt>
      <trkpt lat="46.45027" lon="-1.68637">
        <ele>16.7</ele>
        <time>2020-06-03T11:01:26Z</time>
      </trkpt>
      <trkpt lat="46.4503" lon="-1.68641">
        <ele>16.6</ele>
        <time>2020-06-03T11:01:27Z</time>
      </trkpt>
      <trkpt lat="46.45033" lon="-1.68646">
        <ele>16.5</ele>
        <time>2020-06-03T11:01:28Z</time>
      </trkpt>
      <trkpt lat="46.45037" lon="-1.6865">
        <ele>16.4</ele>
        <time>2020-06-03T11:01:29Z</time>
      </trkpt>
      <trkpt lat="46.4504" lon="-1.68654">
        <ele>16.3</ele>
        <time>2020-06-03T11:01:30Z</time>
      </trkpt>
      <trkpt lat="46.45043" lon="-1.68658">
        <ele>16.2</ele>
        <time>2020-06-03T11:01:31Z</time>
      </trkpt>
      <trkpt lat="46.45046" lon="-1.68662">
        <ele>16.2</ele>
        <time>2020-06-03T11:01:32Z</time>
      </trkpt>
      <trkpt lat="46.45049" lon="-1.68667">
        <ele>16.1</ele>
        <time>2020-06-03T11:01:33Z</time>
      </trkpt>
      <trkpt lat="46.45051" lon="-1.68672">
        <ele>16.1</ele>
        <time>2020-06-03T11:01:34Z</time>
      </trkpt>
      <trkpt lat="46.45054" lon="-1.68678">
        <ele>16</ele>
        <time>2020-06-03T11:01:35Z</time>
      </trkpt>
      <trkpt lat="46.45056" lon="-1.68683">
        <ele>16</ele>
        <time>2020-06-03T11:01:36Z</time>
      </trkpt>
      <trkpt lat="46.45058" lon="-1.68687">
        <ele>16</ele>
        <time>2020-06-03T11:01:37Z</time>
      </trkpt>
      <trkpt lat="46.4506" lon="-1.6869">
        <ele>15.9</ele>
        <time>2020-06-03T11:01:38Z</time>
      </trkpt>
      <trkpt lat="46.45063" lon="-1.68694">
        <ele>15.9</ele>
        <time>2020-06-03T11:01:39Z</time>
      </trkpt>
      <trkpt lat="46.45066" lon="-1.68697">
        <ele>15.8</ele>
        <time>2020-06-03T11:01:40Z</time>
      </trkpt>
      <trkpt lat="46.45067" lon="-1.68702">
        <ele>15.7</ele>
        <time>2020-06-03T11:01:41Z</time>
      </trkpt>
      <trkpt lat="46.45067" lon="-1.68708">
        <ele>15.7</ele>
        <time>2020-06-03T11:01:42Z</time>
      </trkpt>
      <trkpt lat="46.45067" lon="-1.68714">
        <ele>15.5</ele>
        <time>2020-06-03T11:01:43Z</time>
      </trkpt>
      <trkpt lat="46.45068" lon="-1.68722">
        <ele>15.4</ele>
        <time>2020-06-03T11:01:44Z</time>
      </trkpt>
      <trkpt lat="46.45069" lon="-1.68728">
        <ele>15.3</ele>
        <time>2020-06-03T11:01:45Z</time>
      </trkpt>
      <trkpt lat="46.4507" lon="-1.68737">
        <ele>15.2</ele>
        <time>2020-06-03T11:01:46Z</time>
      </trkpt>
      <trkpt lat="46.45071" lon="-1.68744">
        <ele>15.1</ele>
        <time>2020-06-03T11:01:47Z</time>
      </trkpt>
      <trkpt lat="46.45071" lon="-1.68752">
        <ele>14.9</ele>
        <time>2020-06-03T11:01:48Z</time>
      </trkpt>
      <trkpt lat="46.45072" lon="-1.6876">
        <ele>14.8</ele>
        <time>2020-06-03T11:01:49Z</time>
      </trkpt>
      <trkpt lat="46.45072" lon="-1.68767">
        <ele>14.7</ele>
        <time>2020-06-03T11:01:50Z</time>
      </trkpt>
      <trkpt lat="46.45072" lon="-1.68774">
        <ele>14.6</ele>
        <time>2020-06-03T11:01:51Z</time>
      </trkpt>
      <trkpt lat="46.45073" lon="-1.68782">
        <ele>14.5</ele>
        <time>2020-06-03T11:01:52Z</time>
      </trkpt>
      <trkpt lat="46.45073" lon="-1.6879">
        <ele>14.5</ele>
        <time>2020-06-03T11:01:53Z</time>
      </trkpt>
      <trkpt lat="46.45075" lon="-1.68796">
        <ele>14.4</ele>
        <time>2020-06-03T11:01:54Z</time>
      </trkpt>
      <trkpt lat="46.45077" lon="-1.68804">
        <ele>14.3</ele>
        <time>2020-06-03T11:01:55Z</time>
      </trkpt>
      <trkpt lat="46.45079" lon="-1.68811">
        <ele>14.2</ele>
        <time>2020-06-03T11:01:56Z</time>
      </trkpt>
      <trkpt lat="46.45081" lon="-1.68819">
        <ele>14.1</ele>
        <time>2020-06-03T11:01:57Z</time>
      </trkpt>
      <trkpt lat="46.45082" lon="-1.68826">
        <ele>14</ele>
        <time>2020-06-03T11:01:58Z</time>
      </trkpt>
      <trkpt lat="46.45084" lon="-1.68835">
        <ele>13.9</ele>
        <time>2020-06-03T11:01:59Z</time>
      </trkpt>
      <trkpt lat="46.45086" lon="-1.68842">
        <ele>13.9</ele>
        <time>2020-06-03T11:02:00Z</time>
      </trkpt>
      <trkpt lat="46.45087" lon="-1.6885">
        <ele>13.8</ele>
        <time>2020-06-03T11:02:01Z</time>
      </trkpt>
      <trkpt lat="46.45088" lon="-1.68858">
        <ele>13.7</ele>
        <time>2020-06-03T11:02:02Z</time>
      </trkpt>
      <trkpt lat="46.4509" lon="-1.68866">
        <ele>13.6</ele>
        <time>2020-06-03T11:02:03Z</time>
      </trkpt>
      <trkpt lat="46.45091" lon="-1.68874">
        <ele>13.5</ele>
        <time>2020-06-03T11:02:04Z</time>
      </trkpt>
      <trkpt lat="46.45093" lon="-1.68882">
        <ele>13.4</ele>
        <time>2020-06-03T11:02:05Z</time>
      </trkpt>
      <trkpt lat="46.45095" lon="-1.68889">
        <ele>13.3</ele>
        <time>2020-06-03T11:02:06Z</time>
      </trkpt>
      <trkpt lat="46.45096" lon="-1.68896">
        <ele>13.2</ele>
        <time>2020-06-03T11:02:07Z</time>
      </trkpt>
      <trkpt lat="46.45097" lon="-1.68905">
        <ele>13.1</ele>
        <time>2020-06-03T11:02:08Z</time>
      </trkpt>
      <trkpt lat="46.451" lon="-1.68911">
        <ele>13</ele>
        <time>2020-06-03T11:02:09Z</time>
      </trkpt>
      <trkpt lat="46.45103" lon="-1.68918">
        <ele>12.9</ele>
        <time>2020-06-03T11:02:10Z</time>
      </trkpt>
      <trkpt lat="46.45105" lon="-1.68924">
        <ele>12.9</ele>
        <time>2020-06-03T11:02:11Z</time>
      </trkpt>
      <trkpt lat="46.45106" lon="-1.68931">
        <ele>12.8</ele>
        <time>2020-06-03T11:02:12Z</time>
      </trkpt>
      <trkpt lat="46.45107" lon="-1.68938">
        <ele>12.8</ele>
        <time>2020-06-03T11:02:13Z</time>
      </trkpt>
      <trkpt lat="46.45109" lon="-1.68945">
        <ele>12.7</ele>
        <time>2020-06-03T11:02:14Z</time>
      </trkpt>
      <trkpt lat="46.4511" lon="-1.68952">
        <ele>12.6</ele>
        <time>2020-06-03T11:02:15Z</time>
      </trkpt>
      <trkpt lat="46.45112" lon="-1.6896">
        <ele>12.6</ele>
        <time>2020-06-03T11:02:16Z</time>
      </trkpt>
      <trkpt lat="46.45113" lon="-1.68968">
        <ele>12.5</ele>
        <time>2020-06-03T11:02:17Z</time>
      </trkpt>
      <trkpt lat="46.45115" lon="-1.68976">
        <ele>12.5</ele>
        <time>2020-06-03T11:02:18Z</time>
      </trkpt>
      <trkpt lat="46.45117" lon="-1.68983">
        <ele>12.4</ele>
        <time>2020-06-03T11:02:19Z</time>
      </trkpt>
      <trkpt lat="46.45117" lon="-1.68992">
        <ele>12.3</ele>
        <time>2020-06-03T11:02:20Z</time>
      </trkpt>
      <trkpt lat="46.45118" lon="-1.68999">
        <ele>12.3</ele>
        <time>2020-06-03T11:02:21Z</time>
      </trkpt>
      <trkpt lat="46.4512" lon="-1.69007">
        <ele>12.2</ele>
        <time>2020-06-03T11:02:22Z</time>
      </trkpt>
      <trkpt lat="46.45122" lon="-1.69015">
        <ele>12.2</ele>
        <time>2020-06-03T11:02:23Z</time>
      </trkpt>
      <trkpt lat="46.45124" lon="-1.69023">
        <ele>12.1</ele>
        <time>2020-06-03T11:02:24Z</time>
      </trkpt>
      <trkpt lat="46.45126" lon="-1.69032">
        <ele>12</ele>
        <time>2020-06-03T11:02:25Z</time>
      </trkpt>
      <trkpt lat="46.45128" lon="-1.6904">
        <ele>11.9</ele>
        <time>2020-06-03T11:02:26Z</time>
      </trkpt>
      <trkpt lat="46.4513" lon="-1.69048">
        <ele>11.8</ele>
        <time>2020-06-03T11:02:27Z</time>
      </trkpt>
      <trkpt lat="46.45132" lon="-1.69057">
        <ele>11.7</ele>
        <time>2020-06-03T11:02:28Z</time>
      </trkpt>
      <trkpt lat="46.45135" lon="-1.69066">
        <ele>11.6</ele>
        <time>2020-06-03T11:02:29Z</time>
      </trkpt>
      <trkpt lat="46.45136" lon="-1.69075">
        <ele>11.4</ele>
        <time>2020-06-03T11:02:30Z</time>
      </trkpt>
      <trkpt lat="46.45138" lon="-1.69083">
        <ele>11.3</ele>
        <time>2020-06-03T11:02:31Z</time>
      </trkpt>
      <trkpt lat="46.4514" lon="-1.69092">
        <ele>11.2</ele>
        <time>2020-06-03T11:02:32Z</time>
      </trkpt>
      <trkpt lat="46.45143" lon="-1.691">
        <ele>11.1</ele>
        <time>2020-06-03T11:02:33Z</time>
      </trkpt>
      <trkpt lat="46.45145" lon="-1.69109">
        <ele>10.9</ele>
        <time>2020-06-03T11:02:34Z</time>
      </trkpt>
      <trkpt lat="46.45147" lon="-1.69119">
        <ele>10.8</ele>
        <time>2020-06-03T11:02:35Z</time>
      </trkpt>
      <trkpt lat="46.4515" lon="-1.69129">
        <ele>10.6</ele>
        <time>2020-06-03T11:02:36Z</time>
      </trkpt>
      <trkpt lat="46.45152" lon="-1.69141">
        <ele>10.4</ele>
        <time>2020-06-03T11:02:37Z</time>
      </trkpt>
      <trkpt lat="46.45154" lon="-1.69151">
        <ele>10.3</ele>
        <time>2020-06-03T11:02:38Z</time>
      </trkpt>
      <trkpt lat="46.45156" lon="-1.69161">
        <ele>10.1</ele>
        <time>2020-06-03T11:02:39Z</time>
      </trkpt>
      <trkpt lat="46.45159" lon="-1.69171">
        <ele>10</ele>
        <time>2020-06-03T11:02:40Z</time>
      </trkpt>
      <trkpt lat="46.45162" lon="-1.69182">
        <ele>9.9</ele>
        <time>2020-06-03T11:02:41Z</time>
      </trkpt>
      <trkpt lat="46.45165" lon="-1.69194">
        <ele>9.8</ele>
        <time>2020-06-03T11:02:42Z</time>
      </trkpt>
      <trkpt lat="46.45167" lon="-1.69204">
        <ele>9.8</ele>
        <time>2020-06-03T11:02:43Z</time>
      </trkpt>
      <trkpt lat="46.4517" lon="-1.69215">
        <ele>9.8</ele>
        <time>2020-06-03T11:02:44Z</time>
      </trkpt>
      <trkpt lat="46.45173" lon="-1.69225">
        <ele>9.8</ele>
        <time>2020-06-03T11:02:45Z</time>
      </trkpt>
      <trkpt lat="46.45175" lon="-1.69235">
        <ele>9.8</ele>
        <time>2020-06-03T11:02:46Z</time>
      </trkpt>
      <trkpt lat="46.45177" lon="-1.69245">
        <ele>9.8</ele>
        <time>2020-06-03T11:02:47Z</time>
      </trkpt>
      <trkpt lat="46.4518" lon="-1.69255">
        <ele>9.7</ele>
        <time>2020-06-03T11:02:48Z</time>
      </trkpt>
      <trkpt lat="46.45182" lon="-1.69266">
        <ele>9.7</ele>
        <time>2020-06-03T11:02:49Z</time>
      </trkpt>
      <trkpt lat="46.45184" lon="-1.69277">
        <ele>9.6</ele>
        <time>2020-06-03T11:02:50Z</time>
      </trkpt>
      <trkpt lat="46.45187" lon="-1.69287">
        <ele>9.6</ele>
        <time>2020-06-03T11:02:51Z</time>
      </trkpt>
      <trkpt lat="46.4519" lon="-1.69297">
        <ele>9.6</ele>
        <time>2020-06-03T11:02:52Z</time>
      </trkpt>
      <trkpt lat="46.45192" lon="-1.69307">
        <ele>9.6</ele>
        <time>2020-06-03T11:02:53Z</time>
      </trkpt>
      <trkpt lat="46.45194" lon="-1.69317">
        <ele>9.7</ele>
        <time>2020-06-03T11:02:54Z</time>
      </trkpt>
      <trkpt lat="46.45196" lon="-1.69327">
        <ele>9.7</ele>
        <time>2020-06-03T11:02:55Z</time>
      </trkpt>
      <trkpt lat="46.45198" lon="-1.69336">
        <ele>9.8</ele>
        <time>2020-06-03T11:02:56Z</time>
      </trkpt>
      <trkpt lat="46.45201" lon="-1.69346">
        <ele>9.9</ele>
        <time>2020-06-03T11:02:57Z</time>
      </trkpt>
      <trkpt lat="46.45202" lon="-1.69355">
        <ele>10</ele>
        <time>2020-06-03T11:02:58Z</time>
      </trkpt>
      <trkpt lat="46.45204" lon="-1.69364">
        <ele>10.2</ele>
        <time>2020-06-03T11:02:59Z</time>
      </trkpt>
      <trkpt lat="46.45206" lon="-1.69373">
        <ele>10.3</ele>
        <time>2020-06-03T11:03:00Z</time>
      </trkpt>
      <trkpt lat="46.45209" lon="-1.69381">
        <ele>10.5</ele>
        <time>2020-06-03T11:03:01Z</time>
      </trkpt>
      <trkpt lat="46.45211" lon="-1.6939">
        <ele>10.6</ele>
        <time>2020-06-03T11:03:02Z</time>
      </trkpt>
      <trkpt lat="46.45214" lon="-1.69398">
        <ele>10.8</ele>
        <time>2020-06-03T11:03:03Z</time>
      </trkpt>
      <trkpt lat="46.45216" lon="-1.69406">
        <ele>10.9</ele>
        <time>2020-06-03T11:03:04Z</time>
      </trkpt>
      <trkpt lat="46.45218" lon="-1.69414">
        <ele>11</ele>
        <time>2020-06-03T11:03:05Z</time>
      </trkpt>
      <trkpt lat="46.45219" lon="-1.69421">
        <ele>11.1</ele>
        <time>2020-06-03T11:03:06Z</time>
      </trkpt>
      <trkpt lat="46.45221" lon="-1.69429">
        <ele>11.2</ele>
        <time>2020-06-03T11:03:07Z</time>
      </trkpt>
      <trkpt lat="46.45222" lon="-1.69436">
        <ele>11.4</ele>
        <time>2020-06-03T11:03:08Z</time>
      </trkpt>
      <trkpt lat="46.45224" lon="-1.69444">
        <ele>11.5</ele>
        <time>2020-06-03T11:03:09Z</time>
      </trkpt>
      <trkpt lat="46.45225" lon="-1.69452">
        <ele>11.6</ele>
        <time>2020-06-03T11:03:10Z</time>
      </trkpt>
      <trkpt lat="46.45227" lon="-1.69459">
        <ele>11.8</ele>
        <time>2020-06-03T11:03:11Z</time>
      </trkpt>
      <trkpt lat="46.45228" lon="-1.69465">
        <ele>11.9</ele>
        <time>2020-06-03T11:03:12Z</time>
      </trkpt>
      <trkpt lat="46.4523" lon="-1.69473">
        <ele>12</ele>
        <time>2020-06-03T11:03:13Z</time>
      </trkpt>
      <trkpt lat="46.45231" lon="-1.6948">
        <ele>12</ele>
        <time>2020-06-03T11:03:14Z</time>
      </trkpt>
      <trkpt lat="46.45234" lon="-1.69487">
        <ele>12.1</ele>
        <time>2020-06-03T11:03:15Z</time>
      </trkpt>
      <trkpt lat="46.45236" lon="-1.69494">
        <ele>12.2</ele>
        <time>2020-06-03T11:03:16Z</time>
      </trkpt>
      <trkpt lat="46.45237" lon="-1.69501">
        <ele>12.2</ele>
        <time>2020-06-03T11:03:17Z</time>
      </trkpt>
      <trkpt lat="46.4524" lon="-1.69507">
        <ele>12.3</ele>
        <time>2020-06-03T11:03:18Z</time>
      </trkpt>
      <trkpt lat="46.45242" lon="-1.69514">
        <ele>12.3</ele>
        <time>2020-06-03T11:03:19Z</time>
      </trkpt>
      <trkpt lat="46.45244" lon="-1.69521">
        <ele>12.4</ele>
        <time>2020-06-03T11:03:20Z</time>
      </trkpt>
      <trkpt lat="46.45246" lon="-1.69527">
        <ele>12.5</ele>
        <time>2020-06-03T11:03:21Z</time>
      </trkpt>
      <trkpt lat="46.45247" lon="-1.69534">
        <ele>12.6</ele>
        <time>2020-06-03T11:03:22Z</time>
      </trkpt>
      <trkpt lat="46.45247" lon="-1.69541">
        <ele>12.7</ele>
        <time>2020-06-03T11:03:23Z</time>
      </trkpt>
      <trkpt lat="46.45249" lon="-1.69547">
        <ele>12.7</ele>
        <time>2020-06-03T11:03:24Z</time>
      </trkpt>
      <trkpt lat="46.4525" lon="-1.69552">
        <ele>12.8</ele>
        <time>2020-06-03T11:03:25Z</time>
      </trkpt>
      <trkpt lat="46.45251" lon="-1.69558">
        <ele>12.9</ele>
        <time>2020-06-03T11:03:26Z</time>
      </trkpt>
      <trkpt lat="46.45252" lon="-1.69564">
        <ele>13</ele>
        <time>2020-06-03T11:03:27Z</time>
      </trkpt>
      <trkpt lat="46.45253" lon="-1.69569">
        <ele>13.1</ele>
        <time>2020-06-03T11:03:28Z</time>
      </trkpt>
      <trkpt lat="46.45255" lon="-1.69574">
        <ele>13.2</ele>
        <time>2020-06-03T11:03:29Z</time>
      </trkpt>
      <trkpt lat="46.45256" lon="-1.69578">
        <ele>13.2</ele>
        <time>2020-06-03T11:03:30Z</time>
      </trkpt>
      <trkpt lat="46.45258" lon="-1.69584">
        <ele>13.2</ele>
        <time>2020-06-03T11:03:31Z</time>
      </trkpt>
      <trkpt lat="46.45257" lon="-1.69587">
        <ele>13.3</ele>
        <time>2020-06-03T11:03:32Z</time>
      </trkpt>
      <trkpt lat="46.45253" lon="-1.69589">
        <ele>13.3</ele>
        <time>2020-06-03T11:03:33Z</time>
      </trkpt>
      <trkpt lat="46.45251" lon="-1.69589">
        <ele>13.9</ele>
        <time>2020-06-03T11:03:34Z</time>
      </trkpt>
      <trkpt lat="46.45248" lon="-1.69589">
        <ele>13.9</ele>
        <time>2020-06-03T11:03:35Z</time>
      </trkpt>
      <trkpt lat="46.45246" lon="-1.69589">
        <ele>13.9</ele>
        <time>2020-06-03T11:03:36Z</time>
      </trkpt>
      <trkpt lat="46.45244" lon="-1.69592">
        <ele>13.8</ele>
        <time>2020-06-03T11:03:37Z</time>
      </trkpt>
      <trkpt lat="46.45243" lon="-1.69594">
        <ele>13.8</ele>
        <time>2020-06-03T11:03:38Z</time>
      </trkpt>
      <trkpt lat="46.45241" lon="-1.69599">
        <ele>13.8</ele>
        <time>2020-06-03T11:03:39Z</time>
      </trkpt>
      <trkpt lat="46.45241" lon="-1.696">
        <ele>13.8</ele>
        <time>2020-06-03T11:03:40Z</time>
      </trkpt>
      <trkpt lat="46.45239" lon="-1.69605">
        <ele>13.8</ele>
        <time>2020-06-03T11:03:41Z</time>
      </trkpt>
      <trkpt lat="46.45239" lon="-1.69606">
        <ele>13.8</ele>
        <time>2020-06-03T11:03:42Z</time>
      </trkpt>
      <trkpt lat="46.45237" lon="-1.69611">
        <ele>13.8</ele>
        <time>2020-06-03T11:03:43Z</time>
      </trkpt>
      <trkpt lat="46.45236" lon="-1.69612">
        <ele>13.8</ele>
        <time>2020-06-03T11:03:44Z</time>
      </trkpt>
      <trkpt lat="46.45235" lon="-1.69617">
        <ele>13.8</ele>
        <time>2020-06-03T11:03:45Z</time>
      </trkpt>
      <trkpt lat="46.45236" lon="-1.69621">
        <ele>13.8</ele>
        <time>2020-06-03T11:03:46Z</time>
      </trkpt>
      <trkpt lat="46.45236" lon="-1.69626">
        <ele>13.8</ele>
        <time>2020-06-03T11:03:47Z</time>
      </trkpt>
      <trkpt lat="46.45237" lon="-1.6963">
        <ele>13.8</ele>
        <time>2020-06-03T11:03:48Z</time>
      </trkpt>
      <trkpt lat="46.45238" lon="-1.69634">
        <ele>13.8</ele>
        <time>2020-06-03T11:03:49Z</time>
      </trkpt>
      <trkpt lat="46.45239" lon="-1.69639">
        <ele>13.8</ele>
        <time>2020-06-03T11:03:50Z</time>
      </trkpt>
      <trkpt lat="46.45241" lon="-1.69642">
        <ele>13.9</ele>
        <time>2020-06-03T11:03:51Z</time>
      </trkpt>
      <trkpt lat="46.45243" lon="-1.69646">
        <ele>13.9</ele>
        <time>2020-06-03T11:03:52Z</time>
      </trkpt>
      <trkpt lat="46.45246" lon="-1.69649">
        <ele>14</ele>
        <time>2020-06-03T11:03:53Z</time>
      </trkpt>
      <trkpt lat="46.45249" lon="-1.6965">
        <ele>14.1</ele>
        <time>2020-06-03T11:03:54Z</time>
      </trkpt>
      <trkpt lat="46.45252" lon="-1.69654">
        <ele>14.1</ele>
        <time>2020-06-03T11:03:55Z</time>
      </trkpt>
      <trkpt lat="46.45254" lon="-1.69657">
        <ele>14.2</ele>
        <time>2020-06-03T11:03:56Z</time>
      </trkpt>
      <trkpt lat="46.45256" lon="-1.69662">
        <ele>14.3</ele>
        <time>2020-06-03T11:03:57Z</time>
      </trkpt>
      <trkpt lat="46.45258" lon="-1.69666">
        <ele>14.3</ele>
        <time>2020-06-03T11:03:58Z</time>
      </trkpt>
      <trkpt lat="46.45259" lon="-1.6967">
        <ele>14.4</ele>
        <time>2020-06-03T11:03:59Z</time>
      </trkpt>
      <trkpt lat="46.45261" lon="-1.69675">
        <ele>14.5</ele>
        <time>2020-06-03T11:04:00Z</time>
      </trkpt>
      <trkpt lat="46.45261" lon="-1.69681">
        <ele>14.6</ele>
        <time>2020-06-03T11:04:01Z</time>
      </trkpt>
      <trkpt lat="46.45262" lon="-1.69686">
        <ele>14.7</ele>
        <time>2020-06-03T11:04:02Z</time>
      </trkpt>
      <trkpt lat="46.45263" lon="-1.69691">
        <ele>14.8</ele>
        <time>2020-06-03T11:04:03Z</time>
      </trkpt>
      <trkpt lat="46.45263" lon="-1.69697">
        <ele>14.8</ele>
        <time>2020-06-03T11:04:04Z</time>
      </trkpt>
      <trkpt lat="46.45264" lon="-1.69703">
        <ele>14.9</ele>
        <time>2020-06-03T11:04:05Z</time>
      </trkpt>
      <trkpt lat="46.45264" lon="-1.69709">
        <ele>15</ele>
        <time>2020-06-03T11:04:06Z</time>
      </trkpt>
      <trkpt lat="46.45265" lon="-1.69715">
        <ele>15</ele>
        <time>2020-06-03T11:04:07Z</time>
      </trkpt>
      <trkpt lat="46.45265" lon="-1.69721">
        <ele>15.1</ele>
        <time>2020-06-03T11:04:08Z</time>
      </trkpt>
      <trkpt lat="46.45264" lon="-1.69727">
        <ele>15.1</ele>
        <time>2020-06-03T11:04:09Z</time>
      </trkpt>
      <trkpt lat="46.45264" lon="-1.69733">
        <ele>15.2</ele>
        <time>2020-06-03T11:04:10Z</time>
      </trkpt>
      <trkpt lat="46.45262" lon="-1.69738">
        <ele>15.2</ele>
        <time>2020-06-03T11:04:11Z</time>
      </trkpt>
      <trkpt lat="46.4526" lon="-1.69743">
        <ele>15.2</ele>
        <time>2020-06-03T11:04:12Z</time>
      </trkpt>
      <trkpt lat="46.45257" lon="-1.69748">
        <ele>15.3</ele>
        <time>2020-06-03T11:04:13Z</time>
      </trkpt>
      <trkpt lat="46.45254" lon="-1.69753">
        <ele>15.3</ele>
        <time>2020-06-03T11:04:14Z</time>
      </trkpt>
      <trkpt lat="46.45252" lon="-1.69758">
        <ele>15.3</ele>
        <time>2020-06-03T11:04:15Z</time>
      </trkpt>
      <trkpt lat="46.45248" lon="-1.69762">
        <ele>15.4</ele>
        <time>2020-06-03T11:04:16Z</time>
      </trkpt>
      <trkpt lat="46.45245" lon="-1.69767">
        <ele>15.4</ele>
        <time>2020-06-03T11:04:17Z</time>
      </trkpt>
      <trkpt lat="46.45242" lon="-1.69772">
        <ele>15.4</ele>
        <time>2020-06-03T11:04:18Z</time>
      </trkpt>
      <trkpt lat="46.45238" lon="-1.69777">
        <ele>15.5</ele>
        <time>2020-06-03T11:04:19Z</time>
      </trkpt>
      <trkpt lat="46.45235" lon="-1.69783">
        <ele>15.5</ele>
        <time>2020-06-03T11:04:20Z</time>
      </trkpt>
      <trkpt lat="46.45232" lon="-1.6979">
        <ele>15.6</ele>
        <time>2020-06-03T11:04:21Z</time>
      </trkpt>
      <trkpt lat="46.45229" lon="-1.69795">
        <ele>15.6</ele>
        <time>2020-06-03T11:04:22Z</time>
      </trkpt>
      <trkpt lat="46.45227" lon="-1.69802">
        <ele>15.7</ele>
        <time>2020-06-03T11:04:23Z</time>
      </trkpt>
      <trkpt lat="46.45226" lon="-1.69809">
        <ele>15.8</ele>
        <time>2020-06-03T11:04:24Z</time>
      </trkpt>
      <trkpt lat="46.45225" lon="-1.69816">
        <ele>15.9</ele>
        <time>2020-06-03T11:04:25Z</time>
      </trkpt>
      <trkpt lat="46.45224" lon="-1.69823">
        <ele>16</ele>
        <time>2020-06-03T11:04:26Z</time>
      </trkpt>
      <trkpt lat="46.45223" lon="-1.6983">
        <ele>16.2</ele>
        <time>2020-06-03T11:04:27Z</time>
      </trkpt>
      <trkpt lat="46.45223" lon="-1.69837">
        <ele>16.3</ele>
        <time>2020-06-03T11:04:28Z</time>
      </trkpt>
      <trkpt lat="46.45222" lon="-1.69844">
        <ele>16.5</ele>
        <time>2020-06-03T11:04:29Z</time>
      </trkpt>
      <trkpt lat="46.45221" lon="-1.6985">
        <ele>16.6</ele>
        <time>2020-06-03T11:04:30Z</time>
      </trkpt>
      <trkpt lat="46.4522" lon="-1.69856">
        <ele>16.8</ele>
        <time>2020-06-03T11:04:31Z</time>
      </trkpt>
      <trkpt lat="46.45219" lon="-1.69863">
        <ele>16.9</ele>
        <time>2020-06-03T11:04:32Z</time>
      </trkpt>
      <trkpt lat="46.45218" lon="-1.69868">
        <ele>17</ele>
        <time>2020-06-03T11:04:33Z</time>
      </trkpt>
      <trkpt lat="46.45216" lon="-1.69872">
        <ele>17.1</ele>
        <time>2020-06-03T11:04:34Z</time>
      </trkpt>
      <trkpt lat="46.45215" lon="-1.69877">
        <ele>17.2</ele>
        <time>2020-06-03T11:04:35Z</time>
      </trkpt>
      <trkpt lat="46.45215" lon="-1.69883">
        <ele>17.3</ele>
        <time>2020-06-03T11:04:36Z</time>
      </trkpt>
      <trkpt lat="46.45215" lon="-1.69886">
        <ele>17.4</ele>
        <time>2020-06-03T11:04:37Z</time>
      </trkpt>
      <trkpt lat="46.45215" lon="-1.6989">
        <ele>17.5</ele>
        <time>2020-06-03T11:04:38Z</time>
      </trkpt>
      <trkpt lat="46.45215" lon="-1.69895">
        <ele>17.6</ele>
        <time>2020-06-03T11:04:39Z</time>
      </trkpt>
      <trkpt lat="46.45214" lon="-1.699">
        <ele>17.6</ele>
        <time>2020-06-03T11:04:40Z</time>
      </trkpt>
      <trkpt lat="46.45214" lon="-1.69907">
        <ele>17.7</ele>
        <time>2020-06-03T11:04:41Z</time>
      </trkpt>
      <trkpt lat="46.45213" lon="-1.69912">
        <ele>17.8</ele>
        <time>2020-06-03T11:04:42Z</time>
      </trkpt>
      <trkpt lat="46.45212" lon="-1.69918">
        <ele>17.8</ele>
        <time>2020-06-03T11:04:43Z</time>
      </trkpt>
      <trkpt lat="46.45212" lon="-1.69923">
        <ele>17.9</ele>
        <time>2020-06-03T11:04:44Z</time>
      </trkpt>
      <trkpt lat="46.45211" lon="-1.69929">
        <ele>18</ele>
        <time>2020-06-03T11:04:45Z</time>
      </trkpt>
      <trkpt lat="46.45211" lon="-1.69935">
        <ele>18.2</ele>
        <time>2020-06-03T11:04:46Z</time>
      </trkpt>
      <trkpt lat="46.45211" lon="-1.69941">
        <ele>18.3</ele>
        <time>2020-06-03T11:04:47Z</time>
      </trkpt>
      <trkpt lat="46.45211" lon="-1.69948">
        <ele>18.4</ele>
        <time>2020-06-03T11:04:48Z</time>
      </trkpt>
      <trkpt lat="46.4521" lon="-1.69955">
        <ele>18.5</ele>
        <time>2020-06-03T11:04:49Z</time>
      </trkpt>
      <trkpt lat="46.45209" lon="-1.69961">
        <ele>18.6</ele>
        <time>2020-06-03T11:04:50Z</time>
      </trkpt>
      <trkpt lat="46.45209" lon="-1.69967">
        <ele>18.7</ele>
        <time>2020-06-03T11:04:51Z</time>
      </trkpt>
      <trkpt lat="46.45209" lon="-1.69973">
        <ele>18.8</ele>
        <time>2020-06-03T11:04:52Z</time>
      </trkpt>
      <trkpt lat="46.45208" lon="-1.69979">
        <ele>18.9</ele>
        <time>2020-06-03T11:04:53Z</time>
      </trkpt>
      <trkpt lat="46.45208" lon="-1.69984">
        <ele>19</ele>
        <time>2020-06-03T11:04:54Z</time>
      </trkpt>
      <trkpt lat="46.45207" lon="-1.69989">
        <ele>19.1</ele>
        <time>2020-06-03T11:04:55Z</time>
      </trkpt>
      <trkpt lat="46.45206" lon="-1.69996">
        <ele>19.2</ele>
        <time>2020-06-03T11:04:56Z</time>
      </trkpt>
      <trkpt lat="46.45205" lon="-1.70002">
        <ele>19.3</ele>
        <time>2020-06-03T11:04:57Z</time>
      </trkpt>
      <trkpt lat="46.45204" lon="-1.70008">
        <ele>19.4</ele>
        <time>2020-06-03T11:04:58Z</time>
      </trkpt>
      <trkpt lat="46.45205" lon="-1.70014">
        <ele>19.5</ele>
        <time>2020-06-03T11:04:59Z</time>
      </trkpt>
      <trkpt lat="46.45204" lon="-1.7002">
        <ele>19.6</ele>
        <time>2020-06-03T11:05:00Z</time>
      </trkpt>
      <trkpt lat="46.45203" lon="-1.70026">
        <ele>19.7</ele>
        <time>2020-06-03T11:05:01Z</time>
      </trkpt>
      <trkpt lat="46.45202" lon="-1.70032">
        <ele>19.7</ele>
        <time>2020-06-03T11:05:02Z</time>
      </trkpt>
      <trkpt lat="46.45201" lon="-1.70037">
        <ele>19.8</ele>
        <time>2020-06-03T11:05:03Z</time>
      </trkpt>
      <trkpt lat="46.45201" lon="-1.70042">
        <ele>19.9</ele>
        <time>2020-06-03T11:05:04Z</time>
      </trkpt>
      <trkpt lat="46.45201" lon="-1.70048">
        <ele>19.9</ele>
        <time>2020-06-03T11:05:05Z</time>
      </trkpt>
      <trkpt lat="46.452" lon="-1.70053">
        <ele>20</ele>
        <time>2020-06-03T11:05:06Z</time>
      </trkpt>
      <trkpt lat="46.452" lon="-1.70058">
        <ele>20</ele>
        <time>2020-06-03T11:05:07Z</time>
      </trkpt>
      <trkpt lat="46.45199" lon="-1.70064">
        <ele>20.1</ele>
        <time>2020-06-03T11:05:08Z</time>
      </trkpt>
      <trkpt lat="46.45199" lon="-1.7007">
        <ele>20.1</ele>
        <time>2020-06-03T11:05:09Z</time>
      </trkpt>
      <trkpt lat="46.45198" lon="-1.70077">
        <ele>20.1</ele>
        <time>2020-06-03T11:05:10Z</time>
      </trkpt>
      <trkpt lat="46.45197" lon="-1.70083">
        <ele>20.1</ele>
        <time>2020-06-03T11:05:11Z</time>
      </trkpt>
      <trkpt lat="46.45197" lon="-1.7009">
        <ele>20.1</ele>
        <time>2020-06-03T11:05:12Z</time>
      </trkpt>
      <trkpt lat="46.45197" lon="-1.70097">
        <ele>20.2</ele>
        <time>2020-06-03T11:05:13Z</time>
      </trkpt>
      <trkpt lat="46.45197" lon="-1.70103">
        <ele>20.2</ele>
        <time>2020-06-03T11:05:14Z</time>
      </trkpt>
      <trkpt lat="46.45197" lon="-1.70111">
        <ele>20.2</ele>
        <time>2020-06-03T11:05:15Z</time>
      </trkpt>
      <trkpt lat="46.45196" lon="-1.70117">
        <ele>20.2</ele>
        <time>2020-06-03T11:05:16Z</time>
      </trkpt>
      <trkpt lat="46.45196" lon="-1.70124">
        <ele>20.2</ele>
        <time>2020-06-03T11:05:17Z</time>
      </trkpt>
      <trkpt lat="46.45196" lon="-1.70131">
        <ele>20.2</ele>
        <time>2020-06-03T11:05:18Z</time>
      </trkpt>
      <trkpt lat="46.45195" lon="-1.70138">
        <ele>20.2</ele>
        <time>2020-06-03T11:05:19Z</time>
      </trkpt>
      <trkpt lat="46.45195" lon="-1.70145">
        <ele>20.2</ele>
        <time>2020-06-03T11:05:20Z</time>
      </trkpt>
      <trkpt lat="46.45195" lon="-1.70151">
        <ele>20.2</ele>
        <time>2020-06-03T11:05:21Z</time>
      </trkpt>
      <trkpt lat="46.45194" lon="-1.70157">
        <ele>20.2</ele>
        <time>2020-06-03T11:05:22Z</time>
      </trkpt>
      <trkpt lat="46.45194" lon="-1.70162">
        <ele>20.3</ele>
        <time>2020-06-03T11:05:23Z</time>
      </trkpt>
      <trkpt lat="46.45194" lon="-1.70167">
        <ele>20.3</ele>
        <time>2020-06-03T11:05:24Z</time>
      </trkpt>
      <trkpt lat="46.45193" lon="-1.70169">
        <ele>20.3</ele>
        <time>2020-06-03T11:05:25Z</time>
      </trkpt>
      <trkpt lat="46.45193" lon="-1.70171">
        <ele>20.3</ele>
        <time>2020-06-03T11:05:26Z</time>
      </trkpt>
      <trkpt lat="46.45196" lon="-1.70171">
        <ele>20.3</ele>
        <time>2020-06-03T11:05:27Z</time>
      </trkpt>
      <trkpt lat="46.45198" lon="-1.70169">
        <ele>20.3</ele>
        <time>2020-06-03T11:05:28Z</time>
      </trkpt>
      <trkpt lat="46.45198" lon="-1.70168">
        <ele>20.3</ele>
        <time>2020-06-03T11:05:29Z</time>
      </trkpt>
      <trkpt lat="46.45201" lon="-1.70168">
        <ele>20.4</ele>
        <time>2020-06-03T11:05:30Z</time>
      </trkpt>
      <trkpt lat="46.45204" lon="-1.70167">
        <ele>20.4</ele>
        <time>2020-06-03T11:05:31Z</time>
      </trkpt>
      <trkpt lat="46.45205" lon="-1.70166">
        <ele>20.4</ele>
        <time>2020-06-03T11:05:32Z</time>
      </trkpt>
      <trkpt lat="46.45208" lon="-1.70166">
        <ele>20.4</ele>
        <time>2020-06-03T11:05:33Z</time>
      </trkpt>
      <trkpt lat="46.45211" lon="-1.70168">
        <ele>20.4</ele>
        <time>2020-06-03T11:05:34Z</time>
      </trkpt>
      <trkpt lat="46.45212" lon="-1.70169">
        <ele>20.4</ele>
        <time>2020-06-03T11:05:35Z</time>
      </trkpt>
      <trkpt lat="46.45214" lon="-1.70173">
        <ele>20.4</ele>
        <time>2020-06-03T11:05:36Z</time>
      </trkpt>
      <trkpt lat="46.45217" lon="-1.70176">
        <ele>20.4</ele>
        <time>2020-06-03T11:05:37Z</time>
      </trkpt>
      <trkpt lat="46.4522" lon="-1.70176">
        <ele>20.4</ele>
        <time>2020-06-03T11:05:38Z</time>
      </trkpt>
      <trkpt lat="46.45221" lon="-1.70175">
        <ele>20.4</ele>
        <time>2020-06-03T11:05:39Z</time>
      </trkpt>
      <trkpt lat="46.45224" lon="-1.70176">
        <ele>20.4</ele>
        <time>2020-06-03T11:05:40Z</time>
      </trkpt>
      <trkpt lat="46.45225" lon="-1.70177">
        <ele>20.4</ele>
        <time>2020-06-03T11:05:41Z</time>
      </trkpt>
      <trkpt lat="46.45228" lon="-1.70179">
        <ele>20.4</ele>
        <time>2020-06-03T11:05:42Z</time>
      </trkpt>
      <trkpt lat="46.45232" lon="-1.70181">
        <ele>20.5</ele>
        <time>2020-06-03T11:05:43Z</time>
      </trkpt>
      <trkpt lat="46.45233" lon="-1.70182">
        <ele>20.5</ele>
        <time>2020-06-03T11:05:44Z</time>
      </trkpt>
      <trkpt lat="46.45236" lon="-1.70185">
        <ele>20.5</ele>
        <time>2020-06-03T11:05:45Z</time>
      </trkpt>
      <trkpt lat="46.45238" lon="-1.7019">
        <ele>20.5</ele>
        <time>2020-06-03T11:05:46Z</time>
      </trkpt>
      <trkpt lat="46.45238" lon="-1.70191">
        <ele>20.5</ele>
        <time>2020-06-03T11:05:47Z</time>
      </trkpt>
      <trkpt lat="46.45239" lon="-1.70195">
        <ele>20.5</ele>
        <time>2020-06-03T11:05:48Z</time>
      </trkpt>
      <trkpt lat="46.45239" lon="-1.702">
        <ele>20.5</ele>
        <time>2020-06-03T11:05:49Z</time>
      </trkpt>
      <trkpt lat="46.4524" lon="-1.70207">
        <ele>20.5</ele>
        <time>2020-06-03T11:05:50Z</time>
      </trkpt>
      <trkpt lat="46.45241" lon="-1.70213">
        <ele>20.5</ele>
        <time>2020-06-03T11:05:51Z</time>
      </trkpt>
      <trkpt lat="46.45242" lon="-1.70219">
        <ele>20.5</ele>
        <time>2020-06-03T11:05:52Z</time>
      </trkpt>
      <trkpt lat="46.45243" lon="-1.70224">
        <ele>20.5</ele>
        <time>2020-06-03T11:05:53Z</time>
      </trkpt>
      <trkpt lat="46.45243" lon="-1.70229">
        <ele>20.5</ele>
        <time>2020-06-03T11:05:54Z</time>
      </trkpt>
      <trkpt lat="46.45245" lon="-1.70234">
        <ele>20.5</ele>
        <time>2020-06-03T11:05:55Z</time>
      </trkpt>
      <trkpt lat="46.45246" lon="-1.70237">
        <ele>20.5</ele>
        <time>2020-06-03T11:05:56Z</time>
      </trkpt>
      <trkpt lat="46.45248" lon="-1.70242">
        <ele>20.4</ele>
        <time>2020-06-03T11:05:57Z</time>
      </trkpt>
      <trkpt lat="46.45249" lon="-1.70247">
        <ele>20.4</ele>
        <time>2020-06-03T11:05:58Z</time>
      </trkpt>
      <trkpt lat="46.4525" lon="-1.70252">
        <ele>20.4</ele>
        <time>2020-06-03T11:05:59Z</time>
      </trkpt>
      <trkpt lat="46.45248" lon="-1.70257">
        <ele>20.3</ele>
        <time>2020-06-03T11:06:00Z</time>
      </trkpt>
      <trkpt lat="46.45247" lon="-1.70258">
        <ele>20.3</ele>
        <time>2020-06-03T11:06:01Z</time>
      </trkpt>
      <trkpt lat="46.45244" lon="-1.70261">
        <ele>20.2</ele>
        <time>2020-06-03T11:06:02Z</time>
      </trkpt>
      <trkpt lat="46.45241" lon="-1.70265">
        <ele>20.1</ele>
        <time>2020-06-03T11:06:03Z</time>
      </trkpt>
      <trkpt lat="46.45238" lon="-1.70268">
        <ele>20.1</ele>
        <time>2020-06-03T11:06:04Z</time>
      </trkpt>
      <trkpt lat="46.45236" lon="-1.70271">
        <ele>20</ele>
        <time>2020-06-03T11:06:05Z</time>
      </trkpt>
      <trkpt lat="46.45233" lon="-1.70275">
        <ele>19.9</ele>
        <time>2020-06-03T11:06:06Z</time>
      </trkpt>
      <trkpt lat="46.4523" lon="-1.70277">
        <ele>19.9</ele>
        <time>2020-06-03T11:06:07Z</time>
      </trkpt>
      <trkpt lat="46.45228" lon="-1.70278">
        <ele>19.8</ele>
        <time>2020-06-03T11:06:08Z</time>
      </trkpt>
      <trkpt lat="46.45225" lon="-1.7028">
        <ele>19.8</ele>
        <time>2020-06-03T11:06:09Z</time>
      </trkpt>
      <trkpt lat="46.45222" lon="-1.70281">
        <ele>19.7</ele>
        <time>2020-06-03T11:06:10Z</time>
      </trkpt>
      <trkpt lat="46.45221" lon="-1.70281">
        <ele>19.7</ele>
        <time>2020-06-03T11:06:11Z</time>
      </trkpt>
      <trkpt lat="46.45218" lon="-1.70283">
        <ele>19.6</ele>
        <time>2020-06-03T11:06:12Z</time>
      </trkpt>
      <trkpt lat="46.45216" lon="-1.70285">
        <ele>19.6</ele>
        <time>2020-06-03T11:06:13Z</time>
      </trkpt>
      <trkpt lat="46.45217" lon="-1.70285">
        <ele>19.6</ele>
        <time>2020-06-03T11:06:14Z</time>
      </trkpt>
      <trkpt lat="46.45216" lon="-1.70286">
        <ele>19.6</ele>
        <time>2020-06-03T11:06:15Z</time>
      </trkpt>
      <trkpt lat="46.45216" lon="-1.70287">
        <ele>19.5</ele>
        <time>2020-06-03T11:06:16Z</time>
      </trkpt>
      <trkpt lat="46.45216" lon="-1.70287">
        <ele>19.5</ele>
        <time>2020-06-03T11:06:17Z</time>
      </trkpt>
      <trkpt lat="46.45215" lon="-1.70288">
        <ele>19.5</ele>
        <time>2020-06-03T11:06:18Z</time>
      </trkpt>
      <trkpt lat="46.45215" lon="-1.70288">
        <ele>19.5</ele>
        <time>2020-06-03T11:06:19Z</time>
      </trkpt>
      <trkpt lat="46.45215" lon="-1.70289">
        <ele>19.5</ele>
        <time>2020-06-03T11:06:20Z</time>
      </trkpt>
      <trkpt lat="46.45215" lon="-1.70283">
        <ele>19.6</ele>
        <time>2020-06-03T11:12:31Z</time>
      </trkpt>
      <trkpt lat="46.45216" lon="-1.70284">
        <ele>19.6</ele>
        <time>2020-06-03T11:12:32Z</time>
      </trkpt>
      <trkpt lat="46.45216" lon="-1.70285">
        <ele>19.6</ele>
        <time>2020-06-03T11:12:33Z</time>
      </trkpt>
      <trkpt lat="46.45217" lon="-1.70285">
        <ele>19.6</ele>
        <time>2020-06-03T11:12:34Z</time>
      </trkpt>
      <trkpt lat="46.45218" lon="-1.70285">
        <ele>19.6</ele>
        <time>2020-06-03T11:12:35Z</time>
      </trkpt>
      <trkpt lat="46.45218" lon="-1.70286">
        <ele>19.6</ele>
        <time>2020-06-03T11:12:36Z</time>
      </trkpt>
      <trkpt lat="46.45218" lon="-1.70286">
        <ele>19.6</ele>
        <time>2020-06-03T11:12:37Z</time>
      </trkpt>
      <trkpt lat="46.45219" lon="-1.70285">
        <ele>19.6</ele>
        <time>2020-06-03T11:12:38Z</time>
      </trkpt>
      <trkpt lat="46.45219" lon="-1.70285">
        <ele>19.6</ele>
        <time>2020-06-03T11:12:39Z</time>
      </trkpt>
      <trkpt lat="46.4522" lon="-1.70285">
        <ele>19.6</ele>
        <time>2020-06-03T11:12:40Z</time>
      </trkpt>
      <trkpt lat="46.4522" lon="-1.70287">
        <ele>19.6</ele>
        <time>2020-06-03T11:12:41Z</time>
      </trkpt>
      <trkpt lat="46.4522" lon="-1.70287">
        <ele>19.6</ele>
        <time>2020-06-03T11:12:42Z</time>
      </trkpt>
      <trkpt lat="46.45221" lon="-1.70286">
        <ele>19.7</ele>
        <time>2020-06-03T11:12:43Z</time>
      </trkpt>
      <trkpt lat="46.45221" lon="-1.70286">
        <ele>19.7</ele>
        <time>2020-06-03T11:12:44Z</time>
      </trkpt>
      <trkpt lat="46.45222" lon="-1.70287">
        <ele>19.7</ele>
        <time>2020-06-03T11:12:45Z</time>
      </trkpt>
      <trkpt lat="46.45222" lon="-1.70287">
        <ele>19.7</ele>
        <time>2020-06-03T11:12:46Z</time>
      </trkpt>
      <trkpt lat="46.45222" lon="-1.70287">
        <ele>19.7</ele>
        <time>2020-06-03T11:12:47Z</time>
      </trkpt>
      <trkpt lat="46.45222" lon="-1.70287">
        <ele>19.7</ele>
        <time>2020-06-03T11:12:48Z</time>
      </trkpt>
      <trkpt lat="46.45222" lon="-1.70287">
        <ele>19.7</ele>
        <time>2020-06-03T11:12:49Z</time>
      </trkpt>
      <trkpt lat="46.45222" lon="-1.70287">
        <ele>19.7</ele>
        <time>2020-06-03T11:12:50Z</time>
      </trkpt>
      <trkpt lat="46.45222" lon="-1.70287">
        <ele>19.7</ele>
        <time>2020-06-03T11:12:51Z</time>
      </trkpt>
      <trkpt lat="46.45222" lon="-1.70286">
        <ele>19.7</ele>
        <time>2020-06-03T11:12:52Z</time>
      </trkpt>
      <trkpt lat="46.45223" lon="-1.70286">
        <ele>19.7</ele>
        <time>2020-06-03T11:12:53Z</time>
      </trkpt>
      <trkpt lat="46.45223" lon="-1.70286">
        <ele>19.7</ele>
        <time>2020-06-03T11:12:54Z</time>
      </trkpt>
      <trkpt lat="46.45213" lon="-1.70294">
        <ele>19.5</ele>
        <time>2020-06-03T11:13:43Z</time>
      </trkpt>
      <trkpt lat="46.45213" lon="-1.70297">
        <ele>19.5</ele>
        <time>2020-06-03T11:13:44Z</time>
      </trkpt>
      <trkpt lat="46.45213" lon="-1.70297">
        <ele>19.5</ele>
        <time>2020-06-03T11:13:45Z</time>
      </trkpt>
      <trkpt lat="46.45214" lon="-1.703">
        <ele>19.4</ele>
        <time>2020-06-03T11:13:46Z</time>
      </trkpt>
      <trkpt lat="46.45215" lon="-1.70304">
        <ele>19.4</ele>
        <time>2020-06-03T11:13:47Z</time>
      </trkpt>
      <trkpt lat="46.45215" lon="-1.70311">
        <ele>19.3</ele>
        <time>2020-06-03T11:13:48Z</time>
      </trkpt>
      <trkpt lat="46.45215" lon="-1.70319">
        <ele>19.3</ele>
        <time>2020-06-03T11:13:49Z</time>
      </trkpt>
      <trkpt lat="46.45216" lon="-1.70327">
        <ele>19.2</ele>
        <time>2020-06-03T11:13:50Z</time>
      </trkpt>
      <trkpt lat="46.45217" lon="-1.70335">
        <ele>19.1</ele>
        <time>2020-06-03T11:13:51Z</time>
      </trkpt>
      <trkpt lat="46.45219" lon="-1.70344">
        <ele>19.1</ele>
        <time>2020-06-03T11:13:52Z</time>
      </trkpt>
      <trkpt lat="46.4522" lon="-1.70353">
        <ele>19.1</ele>
        <time>2020-06-03T11:13:53Z</time>
      </trkpt>
      <trkpt lat="46.45223" lon="-1.70362">
        <ele>19</ele>
        <time>2020-06-03T11:13:54Z</time>
      </trkpt>
      <trkpt lat="46.45225" lon="-1.7037">
        <ele>19</ele>
        <time>2020-06-03T11:13:55Z</time>
      </trkpt>
      <trkpt lat="46.45227" lon="-1.70379">
        <ele>19</ele>
        <time>2020-06-03T11:13:56Z</time>
      </trkpt>
      <trkpt lat="46.45229" lon="-1.70387">
        <ele>18.9</ele>
        <time>2020-06-03T11:13:57Z</time>
      </trkpt>
      <trkpt lat="46.45231" lon="-1.70396">
        <ele>18.8</ele>
        <time>2020-06-03T11:13:58Z</time>
      </trkpt>
      <trkpt lat="46.45232" lon="-1.70406">
        <ele>18.7</ele>
        <time>2020-06-03T11:13:59Z</time>
      </trkpt>
      <trkpt lat="46.45234" lon="-1.70415">
        <ele>18.6</ele>
        <time>2020-06-03T11:14:00Z</time>
      </trkpt>
      <trkpt lat="46.45235" lon="-1.70426">
        <ele>18.5</ele>
        <time>2020-06-03T11:14:01Z</time>
      </trkpt>
      <trkpt lat="46.45237" lon="-1.70437">
        <ele>18.4</ele>
        <time>2020-06-03T11:14:02Z</time>
      </trkpt>
      <trkpt lat="46.45239" lon="-1.70446">
        <ele>18.4</ele>
        <time>2020-06-03T11:14:03Z</time>
      </trkpt>
      <trkpt lat="46.45242" lon="-1.70454">
        <ele>18.3</ele>
        <time>2020-06-03T11:14:04Z</time>
      </trkpt>
      <trkpt lat="46.45244" lon="-1.70464">
        <ele>18.2</ele>
        <time>2020-06-03T11:14:05Z</time>
      </trkpt>
      <trkpt lat="46.45244" lon="-1.70473">
        <ele>18.1</ele>
        <time>2020-06-03T11:14:06Z</time>
      </trkpt>
      <trkpt lat="46.45246" lon="-1.7048">
        <ele>18</ele>
        <time>2020-06-03T11:14:07Z</time>
      </trkpt>
      <trkpt lat="46.4525" lon="-1.70486">
        <ele>18</ele>
        <time>2020-06-03T11:14:08Z</time>
      </trkpt>
      <trkpt lat="46.45253" lon="-1.70494">
        <ele>17.9</ele>
        <time>2020-06-03T11:14:09Z</time>
      </trkpt>
      <trkpt lat="46.45255" lon="-1.70502">
        <ele>17.8</ele>
        <time>2020-06-03T11:14:10Z</time>
      </trkpt>
      <trkpt lat="46.45257" lon="-1.70511">
        <ele>17.7</ele>
        <time>2020-06-03T11:14:11Z</time>
      </trkpt>
      <trkpt lat="46.45257" lon="-1.7052">
        <ele>17.7</ele>
        <time>2020-06-03T11:14:12Z</time>
      </trkpt>
      <trkpt lat="46.45258" lon="-1.70531">
        <ele>17.6</ele>
        <time>2020-06-03T11:14:13Z</time>
      </trkpt>
      <trkpt lat="46.45258" lon="-1.70541">
        <ele>17.5</ele>
        <time>2020-06-03T11:14:14Z</time>
      </trkpt>
      <trkpt lat="46.4526" lon="-1.7055">
        <ele>17.4</ele>
        <time>2020-06-03T11:14:15Z</time>
      </trkpt>
      <trkpt lat="46.4526" lon="-1.7056">
        <ele>17.3</ele>
        <time>2020-06-03T11:14:16Z</time>
      </trkpt>
      <trkpt lat="46.45262" lon="-1.7057">
        <ele>17.2</ele>
        <time>2020-06-03T11:14:17Z</time>
      </trkpt>
      <trkpt lat="46.45264" lon="-1.70581">
        <ele>17.1</ele>
        <time>2020-06-03T11:14:18Z</time>
      </trkpt>
      <trkpt lat="46.45266" lon="-1.70592">
        <ele>17</ele>
        <time>2020-06-03T11:14:19Z</time>
      </trkpt>
      <trkpt lat="46.45268" lon="-1.70603">
        <ele>16.9</ele>
        <time>2020-06-03T11:14:20Z</time>
      </trkpt>
      <trkpt lat="46.4527" lon="-1.70615">
        <ele>16.9</ele>
        <time>2020-06-03T11:14:21Z</time>
      </trkpt>
      <trkpt lat="46.45272" lon="-1.70625">
        <ele>16.9</ele>
        <time>2020-06-03T11:14:22Z</time>
      </trkpt>
      <trkpt lat="46.45275" lon="-1.70636">
        <ele>16.8</ele>
        <time>2020-06-03T11:14:23Z</time>
      </trkpt>
      <trkpt lat="46.45277" lon="-1.70648">
        <ele>16.7</ele>
        <time>2020-06-03T11:14:24Z</time>
      </trkpt>
      <trkpt lat="46.45279" lon="-1.70659">
        <ele>16.6</ele>
        <time>2020-06-03T11:14:25Z</time>
      </trkpt>
      <trkpt lat="46.45281" lon="-1.70669">
        <ele>16.4</ele>
        <time>2020-06-03T11:14:26Z</time>
      </trkpt>
      <trkpt lat="46.45284" lon="-1.7068">
        <ele>16.2</ele>
        <time>2020-06-03T11:14:27Z</time>
      </trkpt>
      <trkpt lat="46.45286" lon="-1.70691">
        <ele>16</ele>
        <time>2020-06-03T11:14:28Z</time>
      </trkpt>
      <trkpt lat="46.45288" lon="-1.70702">
        <ele>15.8</ele>
        <time>2020-06-03T11:14:29Z</time>
      </trkpt>
      <trkpt lat="46.4529" lon="-1.70714">
        <ele>15.8</ele>
        <time>2020-06-03T11:14:30Z</time>
      </trkpt>
      <trkpt lat="46.45293" lon="-1.70725">
        <ele>15.7</ele>
        <time>2020-06-03T11:14:31Z</time>
      </trkpt>
      <trkpt lat="46.45294" lon="-1.70736">
        <ele>15.6</ele>
        <time>2020-06-03T11:14:32Z</time>
      </trkpt>
      <trkpt lat="46.45296" lon="-1.70746">
        <ele>15.5</ele>
        <time>2020-06-03T11:14:33Z</time>
      </trkpt>
      <trkpt lat="46.45298" lon="-1.70757">
        <ele>15.4</ele>
        <time>2020-06-03T11:14:34Z</time>
      </trkpt>
      <trkpt lat="46.453" lon="-1.70768">
        <ele>15.3</ele>
        <time>2020-06-03T11:14:35Z</time>
      </trkpt>
      <trkpt lat="46.45302" lon="-1.70779">
        <ele>15.1</ele>
        <time>2020-06-03T11:14:36Z</time>
      </trkpt>
      <trkpt lat="46.45304" lon="-1.7079">
        <ele>15</ele>
        <time>2020-06-03T11:14:37Z</time>
      </trkpt>
      <trkpt lat="46.45305" lon="-1.70801">
        <ele>14.9</ele>
        <time>2020-06-03T11:14:38Z</time>
      </trkpt>
      <trkpt lat="46.45306" lon="-1.70811">
        <ele>14.8</ele>
        <time>2020-06-03T11:14:39Z</time>
      </trkpt>
      <trkpt lat="46.45308" lon="-1.70822">
        <ele>14.7</ele>
        <time>2020-06-03T11:14:40Z</time>
      </trkpt>
      <trkpt lat="46.4531" lon="-1.70832">
        <ele>14.6</ele>
        <time>2020-06-03T11:14:41Z</time>
      </trkpt>
      <trkpt lat="46.45313" lon="-1.70842">
        <ele>14.5</ele>
        <time>2020-06-03T11:14:42Z</time>
      </trkpt>
      <trkpt lat="46.45317" lon="-1.70852">
        <ele>14.4</ele>
        <time>2020-06-03T11:14:43Z</time>
      </trkpt>
      <trkpt lat="46.4532" lon="-1.70862">
        <ele>14.3</ele>
        <time>2020-06-03T11:14:44Z</time>
      </trkpt>
      <trkpt lat="46.45322" lon="-1.70872">
        <ele>14.1</ele>
        <time>2020-06-03T11:14:45Z</time>
      </trkpt>
      <trkpt lat="46.45324" lon="-1.70883">
        <ele>14</ele>
        <time>2020-06-03T11:14:46Z</time>
      </trkpt>
      <trkpt lat="46.45326" lon="-1.70893">
        <ele>13.8</ele>
        <time>2020-06-03T11:14:47Z</time>
      </trkpt>
      <trkpt lat="46.45328" lon="-1.70903">
        <ele>13.7</ele>
        <time>2020-06-03T11:14:48Z</time>
      </trkpt>
      <trkpt lat="46.4533" lon="-1.70912">
        <ele>13.5</ele>
        <time>2020-06-03T11:14:49Z</time>
      </trkpt>
      <trkpt lat="46.45332" lon="-1.70921">
        <ele>13.4</ele>
        <time>2020-06-03T11:14:50Z</time>
      </trkpt>
      <trkpt lat="46.45333" lon="-1.70931">
        <ele>13.2</ele>
        <time>2020-06-03T11:14:51Z</time>
      </trkpt>
      <trkpt lat="46.45334" lon="-1.7094">
        <ele>13.1</ele>
        <time>2020-06-03T11:14:52Z</time>
      </trkpt>
      <trkpt lat="46.45335" lon="-1.70949">
        <ele>12.9</ele>
        <time>2020-06-03T11:14:53Z</time>
      </trkpt>
      <trkpt lat="46.45337" lon="-1.70958">
        <ele>12.8</ele>
        <time>2020-06-03T11:14:54Z</time>
      </trkpt>
      <trkpt lat="46.45338" lon="-1.70966">
        <ele>12.6</ele>
        <time>2020-06-03T11:14:55Z</time>
      </trkpt>
      <trkpt lat="46.4534" lon="-1.70975">
        <ele>12.4</ele>
        <time>2020-06-03T11:14:56Z</time>
      </trkpt>
      <trkpt lat="46.45341" lon="-1.70982">
        <ele>12.3</ele>
        <time>2020-06-03T11:14:57Z</time>
      </trkpt>
      <trkpt lat="46.45342" lon="-1.70987">
        <ele>12.2</ele>
        <time>2020-06-03T11:14:58Z</time>
      </trkpt>
      <trkpt lat="46.45342" lon="-1.70992">
        <ele>12.2</ele>
        <time>2020-06-03T11:14:59Z</time>
      </trkpt>
      <trkpt lat="46.45343" lon="-1.70997">
        <ele>12</ele>
        <time>2020-06-03T11:15:00Z</time>
      </trkpt>
      <trkpt lat="46.45343" lon="-1.70999">
        <ele>12</ele>
        <time>2020-06-03T11:15:01Z</time>
      </trkpt>
      <trkpt lat="46.45344" lon="-1.71004">
        <ele>12</ele>
        <time>2020-06-03T11:15:02Z</time>
      </trkpt>
      <trkpt lat="46.45344" lon="-1.71005">
        <ele>12</ele>
        <time>2020-06-03T11:15:03Z</time>
      </trkpt>
      <trkpt lat="46.45341" lon="-1.71007">
        <ele>12</ele>
        <time>2020-06-03T11:15:04Z</time>
      </trkpt>
      <trkpt lat="46.4534" lon="-1.71008">
        <ele>12</ele>
        <time>2020-06-03T11:15:05Z</time>
      </trkpt>
      <trkpt lat="46.45339" lon="-1.71013">
        <ele>12</ele>
        <time>2020-06-03T11:15:06Z</time>
      </trkpt>
      <trkpt lat="46.45338" lon="-1.71018">
        <ele>11.8</ele>
        <time>2020-06-03T11:15:07Z</time>
      </trkpt>
      <trkpt lat="46.45339" lon="-1.71022">
        <ele>11.7</ele>
        <time>2020-06-03T11:15:08Z</time>
      </trkpt>
      <trkpt lat="46.45341" lon="-1.71026">
        <ele>11.6</ele>
        <time>2020-06-03T11:15:09Z</time>
      </trkpt>
      <trkpt lat="46.45344" lon="-1.71027">
        <ele>11.4</ele>
        <time>2020-06-03T11:15:10Z</time>
      </trkpt>
      <trkpt lat="46.45348" lon="-1.71029">
        <ele>11.3</ele>
        <time>2020-06-03T11:15:11Z</time>
      </trkpt>
      <trkpt lat="46.45351" lon="-1.7103">
        <ele>11.1</ele>
        <time>2020-06-03T11:15:12Z</time>
      </trkpt>
      <trkpt lat="46.45355" lon="-1.71032">
        <ele>11</ele>
        <time>2020-06-03T11:15:13Z</time>
      </trkpt>
      <trkpt lat="46.45359" lon="-1.71036">
        <ele>10.8</ele>
        <time>2020-06-03T11:15:14Z</time>
      </trkpt>
      <trkpt lat="46.45363" lon="-1.7104">
        <ele>10.6</ele>
        <time>2020-06-03T11:15:15Z</time>
      </trkpt>
      <trkpt lat="46.45367" lon="-1.71046">
        <ele>10.5</ele>
        <time>2020-06-03T11:15:16Z</time>
      </trkpt>
      <trkpt lat="46.45371" lon="-1.71051">
        <ele>10.3</ele>
        <time>2020-06-03T11:15:17Z</time>
      </trkpt>
      <trkpt lat="46.45375" lon="-1.71055">
        <ele>10.2</ele>
        <time>2020-06-03T11:15:18Z</time>
      </trkpt>
      <trkpt lat="46.4538" lon="-1.7106">
        <ele>10.1</ele>
        <time>2020-06-03T11:15:19Z</time>
      </trkpt>
      <trkpt lat="46.45384" lon="-1.71066">
        <ele>10</ele>
        <time>2020-06-03T11:15:20Z</time>
      </trkpt>
      <trkpt lat="46.45389" lon="-1.71072">
        <ele>10</ele>
        <time>2020-06-03T11:15:21Z</time>
      </trkpt>
      <trkpt lat="46.45392" lon="-1.71078">
        <ele>10</ele>
        <time>2020-06-03T11:15:22Z</time>
      </trkpt>
      <trkpt lat="46.45396" lon="-1.71085">
        <ele>10.1</ele>
        <time>2020-06-03T11:15:23Z</time>
      </trkpt>
      <trkpt lat="46.45399" lon="-1.71091">
        <ele>10.1</ele>
        <time>2020-06-03T11:15:24Z</time>
      </trkpt>
      <trkpt lat="46.45402" lon="-1.71097">
        <ele>10.2</ele>
        <time>2020-06-03T11:15:25Z</time>
      </trkpt>
      <trkpt lat="46.45405" lon="-1.71101">
        <ele>10.3</ele>
        <time>2020-06-03T11:15:26Z</time>
      </trkpt>
      <trkpt lat="46.45406" lon="-1.71107">
        <ele>10.4</ele>
        <time>2020-06-03T11:15:27Z</time>
      </trkpt>
      <trkpt lat="46.45408" lon="-1.71112">
        <ele>10.5</ele>
        <time>2020-06-03T11:15:28Z</time>
      </trkpt>
      <trkpt lat="46.45409" lon="-1.71118">
        <ele>10.6</ele>
        <time>2020-06-03T11:15:29Z</time>
      </trkpt>
      <trkpt lat="46.45411" lon="-1.71123">
        <ele>10.7</ele>
        <time>2020-06-03T11:15:30Z</time>
      </trkpt>
      <trkpt lat="46.45413" lon="-1.71128">
        <ele>10.8</ele>
        <time>2020-06-03T11:15:31Z</time>
      </trkpt>
      <trkpt lat="46.45415" lon="-1.71134">
        <ele>10.9</ele>
        <time>2020-06-03T11:15:32Z</time>
      </trkpt>
      <trkpt lat="46.45417" lon="-1.71139">
        <ele>11</ele>
        <time>2020-06-03T11:15:33Z</time>
      </trkpt>
      <trkpt lat="46.4542" lon="-1.71143">
        <ele>11.1</ele>
        <time>2020-06-03T11:15:34Z</time>
      </trkpt>
      <trkpt lat="46.45422" lon="-1.71148">
        <ele>11.2</ele>
        <time>2020-06-03T11:15:35Z</time>
      </trkpt>
      <trkpt lat="46.45425" lon="-1.71151">
        <ele>11.2</ele>
        <time>2020-06-03T11:15:36Z</time>
      </trkpt>
      <trkpt lat="46.45427" lon="-1.71155">
        <ele>11.3</ele>
        <time>2020-06-03T11:15:37Z</time>
      </trkpt>
      <trkpt lat="46.4543" lon="-1.71157">
        <ele>11.4</ele>
        <time>2020-06-03T11:15:38Z</time>
      </trkpt>
      <trkpt lat="46.45432" lon="-1.7116">
        <ele>11.4</ele>
        <time>2020-06-03T11:15:39Z</time>
      </trkpt>
      <trkpt lat="46.45435" lon="-1.71161">
        <ele>11.5</ele>
        <time>2020-06-03T11:15:40Z</time>
      </trkpt>
      <trkpt lat="46.45438" lon="-1.71165">
        <ele>11.6</ele>
        <time>2020-06-03T11:15:41Z</time>
      </trkpt>
      <trkpt lat="46.45439" lon="-1.71166">
        <ele>11.6</ele>
        <time>2020-06-03T11:15:42Z</time>
      </trkpt>
      <trkpt lat="46.45441" lon="-1.71168">
        <ele>11.6</ele>
        <time>2020-06-03T11:15:43Z</time>
      </trkpt>
      <trkpt lat="46.45442" lon="-1.71169">
        <ele>11.6</ele>
        <time>2020-06-03T11:15:44Z</time>
      </trkpt>
      <trkpt lat="46.45442" lon="-1.7117">
        <ele>11.7</ele>
        <time>2020-06-03T11:15:45Z</time>
      </trkpt>
      <trkpt lat="46.45442" lon="-1.7117">
        <ele>11.7</ele>
        <time>2020-06-03T11:15:46Z</time>
      </trkpt>
      <trkpt lat="46.45441" lon="-1.7117">
        <ele>11.7</ele>
        <time>2020-06-03T11:15:47Z</time>
      </trkpt>
      <trkpt lat="46.45441" lon="-1.71171">
        <ele>11.7</ele>
        <time>2020-06-03T11:15:48Z</time>
      </trkpt>
      <trkpt lat="46.45441" lon="-1.71171">
        <ele>11.7</ele>
        <time>2020-06-03T11:15:49Z</time>
      </trkpt>
      <trkpt lat="46.45442" lon="-1.71172">
        <ele>11.7</ele>
        <time>2020-06-03T11:15:50Z</time>
      </trkpt>
      <trkpt lat="46.45442" lon="-1.71172">
        <ele>11.7</ele>
        <time>2020-06-03T11:15:51Z</time>
      </trkpt>
      <trkpt lat="46.45442" lon="-1.71171">
        <ele>11.7</ele>
        <time>2020-06-03T11:15:52Z</time>
      </trkpt>
      <trkpt lat="46.45443" lon="-1.71171">
        <ele>11.7</ele>
        <time>2020-06-03T11:15:53Z</time>
      </trkpt>
      <trkpt lat="46.45443" lon="-1.7117">
        <ele>11.7</ele>
        <time>2020-06-03T11:15:54Z</time>
      </trkpt>
      <trkpt lat="46.45443" lon="-1.71171">
        <ele>11.7</ele>
        <time>2020-06-03T11:15:55Z</time>
      </trkpt>
      <trkpt lat="46.45432" lon="-1.71163">
        <ele>11.4</ele>
        <time>2020-06-03T11:16:35Z</time>
      </trkpt>
      <trkpt lat="46.45429" lon="-1.7116">
        <ele>11.4</ele>
        <time>2020-06-03T11:16:36Z</time>
      </trkpt>
      <trkpt lat="46.45426" lon="-1.71156">
        <ele>11.3</ele>
        <time>2020-06-03T11:16:37Z</time>
      </trkpt>
      <trkpt lat="46.45424" lon="-1.71151">
        <ele>11.3</ele>
        <time>2020-06-03T11:16:38Z</time>
      </trkpt>
      <trkpt lat="46.45421" lon="-1.71146">
        <ele>11.2</ele>
        <time>2020-06-03T11:16:39Z</time>
      </trkpt>
      <trkpt lat="46.45419" lon="-1.71141">
        <ele>11.2</ele>
        <time>2020-06-03T11:16:40Z</time>
      </trkpt>
      <trkpt lat="46.45418" lon="-1.71136">
        <ele>11.1</ele>
        <time>2020-06-03T11:16:41Z</time>
      </trkpt>
      <trkpt lat="46.45416" lon="-1.7113">
        <ele>11.1</ele>
        <time>2020-06-03T11:16:42Z</time>
      </trkpt>
      <trkpt lat="46.45414" lon="-1.71124">
        <ele>11</ele>
        <time>2020-06-03T11:16:43Z</time>
      </trkpt>
      <trkpt lat="46.45411" lon="-1.71119">
        <ele>11</ele>
        <time>2020-06-03T11:16:44Z</time>
      </trkpt>
      <trkpt lat="46.45408" lon="-1.71114">
        <ele>10.9</ele>
        <time>2020-06-03T11:16:45Z</time>
      </trkpt>
      <trkpt lat="46.45407" lon="-1.71109">
        <ele>10.9</ele>
        <time>2020-06-03T11:16:46Z</time>
      </trkpt>
      <trkpt lat="46.45405" lon="-1.71105">
        <ele>10.8</ele>
        <time>2020-06-03T11:16:47Z</time>
      </trkpt>
      <trkpt lat="46.45405" lon="-1.71101">
        <ele>10.8</ele>
        <time>2020-06-03T11:16:48Z</time>
      </trkpt>
      <trkpt lat="46.45402" lon="-1.71098">
        <ele>10.8</ele>
        <time>2020-06-03T11:16:49Z</time>
      </trkpt>
      <trkpt lat="46.45401" lon="-1.71097">
        <ele>10.8</ele>
        <time>2020-06-03T11:16:50Z</time>
      </trkpt>
      <trkpt lat="46.454" lon="-1.71101">
        <ele>10.7</ele>
        <time>2020-06-03T11:16:51Z</time>
      </trkpt>
      <trkpt lat="46.45399" lon="-1.71102">
        <ele>10.7</ele>
        <time>2020-06-03T11:16:52Z</time>
      </trkpt>
      <trkpt lat="46.45397" lon="-1.71105">
        <ele>10.7</ele>
        <time>2020-06-03T11:16:53Z</time>
      </trkpt>
      <trkpt lat="46.45397" lon="-1.71106">
        <ele>10.7</ele>
        <time>2020-06-03T11:16:54Z</time>
      </trkpt>
      <trkpt lat="46.45394" lon="-1.71108">
        <ele>10.6</ele>
        <time>2020-06-03T11:16:55Z</time>
      </trkpt>
      <trkpt lat="46.45393" lon="-1.71108">
        <ele>10.6</ele>
        <time>2020-06-03T11:16:56Z</time>
      </trkpt>
      <trkpt lat="46.45392" lon="-1.7111">
        <ele>10.6</ele>
        <time>2020-06-03T11:16:57Z</time>
      </trkpt>
      <trkpt lat="46.45392" lon="-1.71111">
        <ele>10.6</ele>
        <time>2020-06-03T11:16:58Z</time>
      </trkpt>
      <trkpt lat="46.45391" lon="-1.71112">
        <ele>10.6</ele>
        <time>2020-06-03T11:16:59Z</time>
      </trkpt>
      <trkpt lat="46.4539" lon="-1.71112">
        <ele>10.5</ele>
        <time>2020-06-03T11:17:00Z</time>
      </trkpt>
      <trkpt lat="46.4539" lon="-1.71112">
        <ele>10.5</ele>
        <time>2020-06-03T11:17:01Z</time>
      </trkpt>
      <trkpt lat="46.4539" lon="-1.71112">
        <ele>10.5</ele>
        <time>2020-06-03T11:17:02Z</time>
      </trkpt>
      <trkpt lat="46.4539" lon="-1.71113">
        <ele>10.5</ele>
        <time>2020-06-03T11:17:03Z</time>
      </trkpt>
      <trkpt lat="46.4539" lon="-1.71113">
        <ele>10.5</ele>
        <time>2020-06-03T11:17:04Z</time>
      </trkpt>
      <trkpt lat="46.4539" lon="-1.71113">
        <ele>10.5</ele>
        <time>2020-06-03T11:17:05Z</time>
      </trkpt>
      <trkpt lat="46.45389" lon="-1.71112">
        <ele>10.5</ele>
        <time>2020-06-03T11:17:06Z</time>
      </trkpt>
      <trkpt lat="46.45389" lon="-1.71113">
        <ele>10.5</ele>
        <time>2020-06-03T11:17:07Z</time>
      </trkpt>
      <trkpt lat="46.4539" lon="-1.71113">
        <ele>10.5</ele>
        <time>2020-06-03T11:17:08Z</time>
      </trkpt>
      <trkpt lat="46.4539" lon="-1.71114">
        <ele>10.5</ele>
        <time>2020-06-03T11:17:09Z</time>
      </trkpt>
      <trkpt lat="46.4539" lon="-1.71113">
        <ele>10.5</ele>
        <time>2020-06-03T11:17:10Z</time>
      </trkpt>
      <trkpt lat="46.45394" lon="-1.71097">
        <ele>10.3</ele>
        <time>2020-06-03T11:17:30Z</time>
      </trkpt>
      <trkpt lat="46.45395" lon="-1.71095">
        <ele>10.3</ele>
        <time>2020-06-03T11:17:31Z</time>
      </trkpt>
      <trkpt lat="46.45398" lon="-1.71092">
        <ele>10.3</ele>
        <time>2020-06-03T11:17:32Z</time>
      </trkpt>
      <trkpt lat="46.45399" lon="-1.71092">
        <ele>10.3</ele>
        <time>2020-06-03T11:17:33Z</time>
      </trkpt>
      <trkpt lat="46.454" lon="-1.71093">
        <ele>10.2</ele>
        <time>2020-06-03T11:17:34Z</time>
      </trkpt>
      <trkpt lat="46.45402" lon="-1.71095">
        <ele>10.2</ele>
        <time>2020-06-03T11:17:35Z</time>
      </trkpt>
      <trkpt lat="46.45403" lon="-1.711">
        <ele>10.3</ele>
        <time>2020-06-03T11:17:36Z</time>
      </trkpt>
      <trkpt lat="46.45403" lon="-1.71102">
        <ele>10.3</ele>
        <time>2020-06-03T11:17:37Z</time>
      </trkpt>
      <trkpt lat="46.45404" lon="-1.71105">
        <ele>10.4</ele>
        <time>2020-06-03T11:17:38Z</time>
      </trkpt>
      <trkpt lat="46.45406" lon="-1.7111">
        <ele>10.5</ele>
        <time>2020-06-03T11:17:39Z</time>
      </trkpt>
      <trkpt lat="46.45408" lon="-1.71115">
        <ele>10.6</ele>
        <time>2020-06-03T11:17:40Z</time>
      </trkpt>
      <trkpt lat="46.45411" lon="-1.7112">
        <ele>10.7</ele>
        <time>2020-06-03T11:17:41Z</time>
      </trkpt>
      <trkpt lat="46.45413" lon="-1.71126">
        <ele>10.8</ele>
        <time>2020-06-03T11:17:42Z</time>
      </trkpt>
      <trkpt lat="46.45415" lon="-1.71132">
        <ele>10.9</ele>
        <time>2020-06-03T11:17:43Z</time>
      </trkpt>
      <trkpt lat="46.45417" lon="-1.71137">
        <ele>11</ele>
        <time>2020-06-03T11:17:44Z</time>
      </trkpt>
      <trkpt lat="46.45419" lon="-1.71142">
        <ele>11</ele>
        <time>2020-06-03T11:17:45Z</time>
      </trkpt>
      <trkpt lat="46.45422" lon="-1.71147">
        <ele>11.1</ele>
        <time>2020-06-03T11:17:46Z</time>
      </trkpt>
      <trkpt lat="46.45424" lon="-1.71152">
        <ele>11.2</ele>
        <time>2020-06-03T11:17:47Z</time>
      </trkpt>
      <trkpt lat="46.45427" lon="-1.71155">
        <ele>11.3</ele>
        <time>2020-06-03T11:17:48Z</time>
      </trkpt>
      <trkpt lat="46.45429" lon="-1.71159">
        <ele>11.4</ele>
        <time>2020-06-03T11:17:49Z</time>
      </trkpt>
      <trkpt lat="46.45432" lon="-1.71162">
        <ele>11.4</ele>
        <time>2020-06-03T11:17:50Z</time>
      </trkpt>
      <trkpt lat="46.45435" lon="-1.71164">
        <ele>11.5</ele>
        <time>2020-06-03T11:17:51Z</time>
      </trkpt>
      <trkpt lat="46.45438" lon="-1.71167">
        <ele>11.6</ele>
        <time>2020-06-03T11:17:52Z</time>
      </trkpt>
      <trkpt lat="46.4544" lon="-1.71168">
        <ele>11.6</ele>
        <time>2020-06-03T11:17:53Z</time>
      </trkpt>
      <trkpt lat="46.45443" lon="-1.7117">
        <ele>11.6</ele>
        <time>2020-06-03T11:17:54Z</time>
      </trkpt>
      <trkpt lat="46.45443" lon="-1.71171">
        <ele>11.7</ele>
        <time>2020-06-03T11:17:55Z</time>
      </trkpt>
      <trkpt lat="46.45445" lon="-1.71172">
        <ele>11.7</ele>
        <time>2020-06-03T11:17:56Z</time>
      </trkpt>
      <trkpt lat="46.45445" lon="-1.71172">
        <ele>11.7</ele>
        <time>2020-06-03T11:17:57Z</time>
      </trkpt>
      <trkpt lat="46.45445" lon="-1.71172">
        <ele>11.7</ele>
        <time>2020-06-03T11:17:58Z</time>
      </trkpt>
      <trkpt lat="46.45446" lon="-1.71172">
        <ele>11.7</ele>
        <time>2020-06-03T11:17:59Z</time>
      </trkpt>
      <trkpt lat="46.45446" lon="-1.71173">
        <ele>11.7</ele>
        <time>2020-06-03T11:18:00Z</time>
      </trkpt>
      <trkpt lat="46.45446" lon="-1.71173">
        <ele>11.7</ele>
        <time>2020-06-03T11:18:01Z</time>
      </trkpt>
      <trkpt lat="46.45447" lon="-1.71173">
        <ele>11.7</ele>
        <time>2020-06-03T11:18:02Z</time>
      </trkpt>
      <trkpt lat="46.45447" lon="-1.71173">
        <ele>11.7</ele>
        <time>2020-06-03T11:18:03Z</time>
      </trkpt>
      <trkpt lat="46.45447" lon="-1.71173">
        <ele>11.7</ele>
        <time>2020-06-03T11:18:04Z</time>
      </trkpt>
      <trkpt lat="46.45448" lon="-1.71173">
        <ele>11.7</ele>
        <time>2020-06-03T11:18:05Z</time>
      </trkpt>
      <trkpt lat="46.45448" lon="-1.71173">
        <ele>11.7</ele>
        <time>2020-06-03T11:18:06Z</time>
      </trkpt>
      <trkpt lat="46.45448" lon="-1.71173">
        <ele>11.8</ele>
        <time>2020-06-03T11:18:07Z</time>
      </trkpt>
      <trkpt lat="46.45449" lon="-1.71174">
        <ele>11.8</ele>
        <time>2020-06-03T11:18:08Z</time>
      </trkpt>
      <trkpt lat="46.45449" lon="-1.71174">
        <ele>11.8</ele>
        <time>2020-06-03T11:18:09Z</time>
      </trkpt>
      <trkpt lat="46.45449" lon="-1.71174">
        <ele>11.8</ele>
        <time>2020-06-03T11:18:32Z</time>
      </trkpt>
      <trkpt lat="46.4545" lon="-1.71174">
        <ele>11.8</ele>
        <time>2020-06-03T11:18:33Z</time>
      </trkpt>
      <trkpt lat="46.45454" lon="-1.71175">
        <ele>11.8</ele>
        <time>2020-06-03T11:18:34Z</time>
      </trkpt>
      <trkpt lat="46.45455" lon="-1.71175">
        <ele>11.9</ele>
        <time>2020-06-03T11:18:35Z</time>
      </trkpt>
      <trkpt lat="46.45458" lon="-1.71175">
        <ele>11.9</ele>
        <time>2020-06-03T11:18:36Z</time>
      </trkpt>
      <trkpt lat="46.45461" lon="-1.71176">
        <ele>12</ele>
        <time>2020-06-03T11:18:37Z</time>
      </trkpt>
      <trkpt lat="46.45464" lon="-1.71174">
        <ele>12.1</ele>
        <time>2020-06-03T11:18:38Z</time>
      </trkpt>
      <trkpt lat="46.45465" lon="-1.71174">
        <ele>12.1</ele>
        <time>2020-06-03T11:18:39Z</time>
      </trkpt>
      <trkpt lat="46.45469" lon="-1.71173">
        <ele>12.2</ele>
        <time>2020-06-03T11:18:40Z</time>
      </trkpt>
      <trkpt lat="46.45471" lon="-1.71173">
        <ele>12.2</ele>
        <time>2020-06-03T11:18:41Z</time>
      </trkpt>
      <trkpt lat="46.45473" lon="-1.71172">
        <ele>12.3</ele>
        <time>2020-06-03T11:18:42Z</time>
      </trkpt>
      <trkpt lat="46.45477" lon="-1.71171">
        <ele>12.4</ele>
        <time>2020-06-03T11:18:43Z</time>
      </trkpt>
      <trkpt lat="46.4548" lon="-1.71171">
        <ele>12.4</ele>
        <time>2020-06-03T11:18:44Z</time>
      </trkpt>
      <trkpt lat="46.45484" lon="-1.71171">
        <ele>12.5</ele>
        <time>2020-06-03T11:18:45Z</time>
      </trkpt>
      <trkpt lat="46.45488" lon="-1.71172">
        <ele>12.6</ele>
        <time>2020-06-03T11:18:46Z</time>
      </trkpt>
      <trkpt lat="46.45491" lon="-1.71173">
        <ele>12.6</ele>
        <time>2020-06-03T11:18:47Z</time>
      </trkpt>
      <trkpt lat="46.45495" lon="-1.71175">
        <ele>12.7</ele>
        <time>2020-06-03T11:18:48Z</time>
      </trkpt>
      <trkpt lat="46.455" lon="-1.71177">
        <ele>12.8</ele>
        <time>2020-06-03T11:18:49Z</time>
      </trkpt>
      <trkpt lat="46.45504" lon="-1.71178">
        <ele>12.9</ele>
        <time>2020-06-03T11:18:50Z</time>
      </trkpt>
      <trkpt lat="46.45509" lon="-1.71178">
        <ele>13</ele>
        <time>2020-06-03T11:18:51Z</time>
      </trkpt>
      <trkpt lat="46.45513" lon="-1.71179">
        <ele>13.1</ele>
        <time>2020-06-03T11:18:52Z</time>
      </trkpt>
      <trkpt lat="46.45518" lon="-1.7118">
        <ele>13.2</ele>
        <time>2020-06-03T11:18:53Z</time>
      </trkpt>
      <trkpt lat="46.45523" lon="-1.71182">
        <ele>13.2</ele>
        <time>2020-06-03T11:18:54Z</time>
      </trkpt>
      <trkpt lat="46.45528" lon="-1.71184">
        <ele>13.3</ele>
        <time>2020-06-03T11:18:55Z</time>
      </trkpt>
      <trkpt lat="46.45532" lon="-1.71185">
        <ele>13.4</ele>
        <time>2020-06-03T11:18:56Z</time>
      </trkpt>
      <trkpt lat="46.45536" lon="-1.71187">
        <ele>13.5</ele>
        <time>2020-06-03T11:18:57Z</time>
      </trkpt>
      <trkpt lat="46.45539" lon="-1.71188">
        <ele>13.5</ele>
        <time>2020-06-03T11:18:58Z</time>
      </trkpt>
      <trkpt lat="46.45543" lon="-1.71189">
        <ele>13.6</ele>
        <time>2020-06-03T11:18:59Z</time>
      </trkpt>
      <trkpt lat="46.45546" lon="-1.7119">
        <ele>13.6</ele>
        <time>2020-06-03T11:19:00Z</time>
      </trkpt>
      <trkpt lat="46.4555" lon="-1.7119">
        <ele>13.7</ele>
        <time>2020-06-03T11:19:01Z</time>
      </trkpt>
      <trkpt lat="46.45554" lon="-1.71191">
        <ele>13.7</ele>
        <time>2020-06-03T11:19:02Z</time>
      </trkpt>
      <trkpt lat="46.45558" lon="-1.71193">
        <ele>13.8</ele>
        <time>2020-06-03T11:19:03Z</time>
      </trkpt>
      <trkpt lat="46.45561" lon="-1.71197">
        <ele>13.8</ele>
        <time>2020-06-03T11:19:04Z</time>
      </trkpt>
      <trkpt lat="46.45565" lon="-1.71199">
        <ele>13.9</ele>
        <time>2020-06-03T11:19:05Z</time>
      </trkpt>
      <trkpt lat="46.45569" lon="-1.71199">
        <ele>13.9</ele>
        <time>2020-06-03T11:19:06Z</time>
      </trkpt>
      <trkpt lat="46.45573" lon="-1.712">
        <ele>14</ele>
        <time>2020-06-03T11:19:07Z</time>
      </trkpt>
      <trkpt lat="46.45577" lon="-1.71201">
        <ele>14</ele>
        <time>2020-06-03T11:19:08Z</time>
      </trkpt>
      <trkpt lat="46.45581" lon="-1.71203">
        <ele>14.1</ele>
        <time>2020-06-03T11:19:09Z</time>
      </trkpt>
      <trkpt lat="46.45584" lon="-1.71204">
        <ele>14.2</ele>
        <time>2020-06-03T11:19:10Z</time>
      </trkpt>
      <trkpt lat="46.45587" lon="-1.71204">
        <ele>14.2</ele>
        <time>2020-06-03T11:19:11Z</time>
      </trkpt>
      <trkpt lat="46.45591" lon="-1.71205">
        <ele>14.3</ele>
        <time>2020-06-03T11:19:12Z</time>
      </trkpt>
      <trkpt lat="46.45596" lon="-1.71205">
        <ele>14.4</ele>
        <time>2020-06-03T11:19:13Z</time>
      </trkpt>
      <trkpt lat="46.456" lon="-1.71206">
        <ele>14.5</ele>
        <time>2020-06-03T11:19:14Z</time>
      </trkpt>
      <trkpt lat="46.45604" lon="-1.71205">
        <ele>14.5</ele>
        <time>2020-06-03T11:19:15Z</time>
      </trkpt>
      <trkpt lat="46.45608" lon="-1.71204">
        <ele>14.6</ele>
        <time>2020-06-03T11:19:16Z</time>
      </trkpt>
      <trkpt lat="46.45612" lon="-1.71203">
        <ele>14.6</ele>
        <time>2020-06-03T11:19:17Z</time>
      </trkpt>
      <trkpt lat="46.45616" lon="-1.71202">
        <ele>14.7</ele>
        <time>2020-06-03T11:19:18Z</time>
      </trkpt>
      <trkpt lat="46.45619" lon="-1.71202">
        <ele>14.7</ele>
        <time>2020-06-03T11:19:19Z</time>
      </trkpt>
      <trkpt lat="46.45623" lon="-1.71203">
        <ele>14.8</ele>
        <time>2020-06-03T11:19:20Z</time>
      </trkpt>
      <trkpt lat="46.45626" lon="-1.71206">
        <ele>14.9</ele>
        <time>2020-06-03T11:19:21Z</time>
      </trkpt>
      <trkpt lat="46.45631" lon="-1.71208">
        <ele>14.9</ele>
        <time>2020-06-03T11:19:22Z</time>
      </trkpt>
      <trkpt lat="46.45635" lon="-1.7121">
        <ele>15</ele>
        <time>2020-06-03T11:19:23Z</time>
      </trkpt>
      <trkpt lat="46.45639" lon="-1.71211">
        <ele>15</ele>
        <time>2020-06-03T11:19:24Z</time>
      </trkpt>
      <trkpt lat="46.45643" lon="-1.71213">
        <ele>15.1</ele>
        <time>2020-06-03T11:19:25Z</time>
      </trkpt>
      <trkpt lat="46.45647" lon="-1.71215">
        <ele>15.1</ele>
        <time>2020-06-03T11:19:26Z</time>
      </trkpt>
      <trkpt lat="46.45651" lon="-1.71217">
        <ele>15.1</ele>
        <time>2020-06-03T11:19:27Z</time>
      </trkpt>
      <trkpt lat="46.45655" lon="-1.71219">
        <ele>15.2</ele>
        <time>2020-06-03T11:19:28Z</time>
      </trkpt>
      <trkpt lat="46.45658" lon="-1.71222">
        <ele>15.2</ele>
        <time>2020-06-03T11:19:29Z</time>
      </trkpt>
      <trkpt lat="46.45662" lon="-1.71225">
        <ele>15.2</ele>
        <time>2020-06-03T11:19:30Z</time>
      </trkpt>
      <trkpt lat="46.45667" lon="-1.71228">
        <ele>15.2</ele>
        <time>2020-06-03T11:19:31Z</time>
      </trkpt>
      <trkpt lat="46.45671" lon="-1.71231">
        <ele>15.2</ele>
        <time>2020-06-03T11:19:32Z</time>
      </trkpt>
      <trkpt lat="46.45675" lon="-1.71234">
        <ele>15.2</ele>
        <time>2020-06-03T11:19:33Z</time>
      </trkpt>
      <trkpt lat="46.45679" lon="-1.71238">
        <ele>15.2</ele>
        <time>2020-06-03T11:19:34Z</time>
      </trkpt>
      <trkpt lat="46.45683" lon="-1.71241">
        <ele>15.2</ele>
        <time>2020-06-03T11:19:35Z</time>
      </trkpt>
      <trkpt lat="46.45687" lon="-1.71245">
        <ele>15.1</ele>
        <time>2020-06-03T11:19:36Z</time>
      </trkpt>
      <trkpt lat="46.45691" lon="-1.71249">
        <ele>15</ele>
        <time>2020-06-03T11:19:37Z</time>
      </trkpt>
      <trkpt lat="46.45696" lon="-1.71252">
        <ele>15</ele>
        <time>2020-06-03T11:19:38Z</time>
      </trkpt>
      <trkpt lat="46.457" lon="-1.71254">
        <ele>14.9</ele>
        <time>2020-06-03T11:19:39Z</time>
      </trkpt>
      <trkpt lat="46.45704" lon="-1.71257">
        <ele>14.8</ele>
        <time>2020-06-03T11:19:40Z</time>
      </trkpt>
      <trkpt lat="46.45708" lon="-1.7126">
        <ele>14.7</ele>
        <time>2020-06-03T11:19:41Z</time>
      </trkpt>
      <trkpt lat="46.45712" lon="-1.71264">
        <ele>14.7</ele>
        <time>2020-06-03T11:19:42Z</time>
      </trkpt>
      <trkpt lat="46.45717" lon="-1.71268">
        <ele>14.6</ele>
        <time>2020-06-03T11:19:43Z</time>
      </trkpt>
      <trkpt lat="46.4572" lon="-1.71272">
        <ele>14.5</ele>
        <time>2020-06-03T11:19:44Z</time>
      </trkpt>
      <trkpt lat="46.45724" lon="-1.71276">
        <ele>14.4</ele>
        <time>2020-06-03T11:19:45Z</time>
      </trkpt>
      <trkpt lat="46.45727" lon="-1.71282">
        <ele>14.3</ele>
        <time>2020-06-03T11:19:46Z</time>
      </trkpt>
      <trkpt lat="46.45729" lon="-1.71287">
        <ele>14.2</ele>
        <time>2020-06-03T11:19:47Z</time>
      </trkpt>
      <trkpt lat="46.4573" lon="-1.71292">
        <ele>14.1</ele>
        <time>2020-06-03T11:19:48Z</time>
      </trkpt>
      <trkpt lat="46.45732" lon="-1.71298">
        <ele>14</ele>
        <time>2020-06-03T11:19:49Z</time>
      </trkpt>
      <trkpt lat="46.45734" lon="-1.71302">
        <ele>13.9</ele>
        <time>2020-06-03T11:19:50Z</time>
      </trkpt>
      <trkpt lat="46.45737" lon="-1.71304">
        <ele>13.8</ele>
        <time>2020-06-03T11:19:51Z</time>
      </trkpt>
      <trkpt lat="46.45741" lon="-1.71305">
        <ele>13.7</ele>
        <time>2020-06-03T11:19:52Z</time>
      </trkpt>
      <trkpt lat="46.45743" lon="-1.71305">
        <ele>13.7</ele>
        <time>2020-06-03T11:19:53Z</time>
      </trkpt>
      <trkpt lat="46.45747" lon="-1.71305">
        <ele>13.6</ele>
        <time>2020-06-03T11:19:54Z</time>
      </trkpt>
      <trkpt lat="46.45751" lon="-1.71305">
        <ele>13.4</ele>
        <time>2020-06-03T11:19:55Z</time>
      </trkpt>
      <trkpt lat="46.45755" lon="-1.71305">
        <ele>13.3</ele>
        <time>2020-06-03T11:19:56Z</time>
      </trkpt>
      <trkpt lat="46.45759" lon="-1.71306">
        <ele>13.2</ele>
        <time>2020-06-03T11:19:57Z</time>
      </trkpt>
      <trkpt lat="46.45762" lon="-1.71306">
        <ele>13.1</ele>
        <time>2020-06-03T11:19:58Z</time>
      </trkpt>
      <trkpt lat="46.45766" lon="-1.71307">
        <ele>13</ele>
        <time>2020-06-03T11:19:59Z</time>
      </trkpt>
      <trkpt lat="46.45768" lon="-1.71311">
        <ele>12.8</ele>
        <time>2020-06-03T11:20:00Z</time>
      </trkpt>
      <trkpt lat="46.45772" lon="-1.71315">
        <ele>12.7</ele>
        <time>2020-06-03T11:20:01Z</time>
      </trkpt>
      <trkpt lat="46.45776" lon="-1.71319">
        <ele>12.5</ele>
        <time>2020-06-03T11:20:02Z</time>
      </trkpt>
      <trkpt lat="46.4578" lon="-1.71324">
        <ele>12.3</ele>
        <time>2020-06-03T11:20:03Z</time>
      </trkpt>
      <trkpt lat="46.45785" lon="-1.71328">
        <ele>12</ele>
        <time>2020-06-03T11:20:04Z</time>
      </trkpt>
      <trkpt lat="46.4579" lon="-1.71333">
        <ele>11.8</ele>
        <time>2020-06-03T11:20:05Z</time>
      </trkpt>
      <trkpt lat="46.45795" lon="-1.71338">
        <ele>11.4</ele>
        <time>2020-06-03T11:20:06Z</time>
      </trkpt>
      <trkpt lat="46.458" lon="-1.71342">
        <ele>11.1</ele>
        <time>2020-06-03T11:20:07Z</time>
      </trkpt>
      <trkpt lat="46.45806" lon="-1.71347">
        <ele>10.7</ele>
        <time>2020-06-03T11:20:08Z</time>
      </trkpt>
      <trkpt lat="46.45811" lon="-1.71352">
        <ele>10.3</ele>
        <time>2020-06-03T11:20:09Z</time>
      </trkpt>
      <trkpt lat="46.45818" lon="-1.71357">
        <ele>9.8</ele>
        <time>2020-06-03T11:20:10Z</time>
      </trkpt>
      <trkpt lat="46.45824" lon="-1.71362">
        <ele>9.4</ele>
        <time>2020-06-03T11:20:11Z</time>
      </trkpt>
      <trkpt lat="46.4583" lon="-1.71365">
        <ele>8.9</ele>
        <time>2020-06-03T11:20:12Z</time>
      </trkpt>
      <trkpt lat="46.45837" lon="-1.71369">
        <ele>8.6</ele>
        <time>2020-06-03T11:20:13Z</time>
      </trkpt>
      <trkpt lat="46.45844" lon="-1.71373">
        <ele>8.2</ele>
        <time>2020-06-03T11:20:14Z</time>
      </trkpt>
      <trkpt lat="46.45849" lon="-1.71376">
        <ele>8</ele>
        <time>2020-06-03T11:20:15Z</time>
      </trkpt>
      <trkpt lat="46.45855" lon="-1.71379">
        <ele>7.8</ele>
        <time>2020-06-03T11:20:16Z</time>
      </trkpt>
      <trkpt lat="46.45861" lon="-1.71382">
        <ele>7.6</ele>
        <time>2020-06-03T11:20:17Z</time>
      </trkpt>
      <trkpt lat="46.45868" lon="-1.71386">
        <ele>7.4</ele>
        <time>2020-06-03T11:20:18Z</time>
      </trkpt>
      <trkpt lat="46.45874" lon="-1.71389">
        <ele>7.3</ele>
        <time>2020-06-03T11:20:19Z</time>
      </trkpt>
      <trkpt lat="46.4588" lon="-1.71392">
        <ele>7.3</ele>
        <time>2020-06-03T11:20:20Z</time>
      </trkpt>
      <trkpt lat="46.45886" lon="-1.71397">
        <ele>7.3</ele>
        <time>2020-06-03T11:20:21Z</time>
      </trkpt>
      <trkpt lat="46.45891" lon="-1.71401">
        <ele>7.3</ele>
        <time>2020-06-03T11:20:22Z</time>
      </trkpt>
      <trkpt lat="46.45894" lon="-1.71406">
        <ele>7.4</ele>
        <time>2020-06-03T11:20:23Z</time>
      </trkpt>
      <trkpt lat="46.45898" lon="-1.71411">
        <ele>7.5</ele>
        <time>2020-06-03T11:20:24Z</time>
      </trkpt>
      <trkpt lat="46.45902" lon="-1.71418">
        <ele>7.7</ele>
        <time>2020-06-03T11:20:25Z</time>
      </trkpt>
      <trkpt lat="46.45904" lon="-1.71427">
        <ele>8</ele>
        <time>2020-06-03T11:20:26Z</time>
      </trkpt>
      <trkpt lat="46.45905" lon="-1.71435">
        <ele>8.4</ele>
        <time>2020-06-03T11:20:27Z</time>
      </trkpt>
      <trkpt lat="46.45907" lon="-1.71443">
        <ele>8.7</ele>
        <time>2020-06-03T11:20:28Z</time>
      </trkpt>
      <trkpt lat="46.45908" lon="-1.7145">
        <ele>9.1</ele>
        <time>2020-06-03T11:20:29Z</time>
      </trkpt>
      <trkpt lat="46.45909" lon="-1.71457">
        <ele>9.4</ele>
        <time>2020-06-03T11:20:30Z</time>
      </trkpt>
      <trkpt lat="46.4591" lon="-1.71463">
        <ele>9.8</ele>
        <time>2020-06-03T11:20:31Z</time>
      </trkpt>
      <trkpt lat="46.4591" lon="-1.7147">
        <ele>10.3</ele>
        <time>2020-06-03T11:20:32Z</time>
      </trkpt>
      <trkpt lat="46.45912" lon="-1.71476">
        <ele>10.6</ele>
        <time>2020-06-03T11:20:33Z</time>
      </trkpt>
      <trkpt lat="46.45915" lon="-1.71481">
        <ele>11</ele>
        <time>2020-06-03T11:20:34Z</time>
      </trkpt>
      <trkpt lat="46.45917" lon="-1.71487">
        <ele>11.3</ele>
        <time>2020-06-03T11:20:35Z</time>
      </trkpt>
      <trkpt lat="46.45919" lon="-1.71492">
        <ele>11.5</ele>
        <time>2020-06-03T11:20:36Z</time>
      </trkpt>
      <trkpt lat="46.4592" lon="-1.71496">
        <ele>11.7</ele>
        <time>2020-06-03T11:20:37Z</time>
      </trkpt>
      <trkpt lat="46.45921" lon="-1.71497">
        <ele>11.7</ele>
        <time>2020-06-03T11:20:38Z</time>
      </trkpt>
      <trkpt lat="46.45923" lon="-1.71501">
        <ele>11.9</ele>
        <time>2020-06-03T11:20:39Z</time>
      </trkpt>
      <trkpt lat="46.45924" lon="-1.71506">
        <ele>12</ele>
        <time>2020-06-03T11:20:40Z</time>
      </trkpt>
      <trkpt lat="46.45926" lon="-1.71509">
        <ele>12</ele>
        <time>2020-06-03T11:20:41Z</time>
      </trkpt>
      <trkpt lat="46.45929" lon="-1.71513">
        <ele>12.1</ele>
        <time>2020-06-03T11:20:42Z</time>
      </trkpt>
      <trkpt lat="46.45931" lon="-1.71515">
        <ele>12.1</ele>
        <time>2020-06-03T11:20:43Z</time>
      </trkpt>
      <trkpt lat="46.45933" lon="-1.71518">
        <ele>12.2</ele>
        <time>2020-06-03T11:20:44Z</time>
      </trkpt>
      <trkpt lat="46.45934" lon="-1.71519">
        <ele>12.2</ele>
        <time>2020-06-03T11:20:45Z</time>
      </trkpt>
      <trkpt lat="46.45936" lon="-1.71521">
        <ele>12.3</ele>
        <time>2020-06-03T11:20:46Z</time>
      </trkpt>
      <trkpt lat="46.45937" lon="-1.71523">
        <ele>12.3</ele>
        <time>2020-06-03T11:20:47Z</time>
      </trkpt>
      <trkpt lat="46.45939" lon="-1.71526">
        <ele>12.5</ele>
        <time>2020-06-03T11:20:48Z</time>
      </trkpt>
      <trkpt lat="46.45942" lon="-1.71529">
        <ele>12.7</ele>
        <time>2020-06-03T11:20:49Z</time>
      </trkpt>
      <trkpt lat="46.45944" lon="-1.71531">
        <ele>12.8</ele>
        <time>2020-06-03T11:20:50Z</time>
      </trkpt>
      <trkpt lat="46.45946" lon="-1.71533">
        <ele>12.9</ele>
        <time>2020-06-03T11:20:51Z</time>
      </trkpt>
      <trkpt lat="46.4595" lon="-1.71538">
        <ele>13.1</ele>
        <time>2020-06-03T11:20:52Z</time>
      </trkpt>
      <trkpt lat="46.45952" lon="-1.71542">
        <ele>13.3</ele>
        <time>2020-06-03T11:20:53Z</time>
      </trkpt>
      <trkpt lat="46.45955" lon="-1.71546">
        <ele>13.5</ele>
        <time>2020-06-03T11:20:54Z</time>
      </trkpt>
      <trkpt lat="46.45958" lon="-1.71551">
        <ele>13.6</ele>
        <time>2020-06-03T11:20:55Z</time>
      </trkpt>
      <trkpt lat="46.45961" lon="-1.71554">
        <ele>13.7</ele>
        <time>2020-06-03T11:20:56Z</time>
      </trkpt>
      <trkpt lat="46.45963" lon="-1.71558">
        <ele>13.8</ele>
        <time>2020-06-03T11:20:57Z</time>
      </trkpt>
      <trkpt lat="46.45965" lon="-1.71563">
        <ele>13.9</ele>
        <time>2020-06-03T11:20:58Z</time>
      </trkpt>
      <trkpt lat="46.45966" lon="-1.71565">
        <ele>13.9</ele>
        <time>2020-06-03T11:20:59Z</time>
      </trkpt>
      <trkpt lat="46.45968" lon="-1.71569">
        <ele>14</ele>
        <time>2020-06-03T11:21:00Z</time>
      </trkpt>
      <trkpt lat="46.45971" lon="-1.71573">
        <ele>14.1</ele>
        <time>2020-06-03T11:21:01Z</time>
      </trkpt>
      <trkpt lat="46.45971" lon="-1.71575">
        <ele>14.2</ele>
        <time>2020-06-03T11:21:02Z</time>
      </trkpt>
      <trkpt lat="46.45973" lon="-1.71579">
        <ele>14.3</ele>
        <time>2020-06-03T11:21:03Z</time>
      </trkpt>
      <trkpt lat="46.45976" lon="-1.71582">
        <ele>14.4</ele>
        <time>2020-06-03T11:21:04Z</time>
      </trkpt>
      <trkpt lat="46.45977" lon="-1.71587">
        <ele>14.5</ele>
        <time>2020-06-03T11:21:05Z</time>
      </trkpt>
      <trkpt lat="46.45978" lon="-1.71591">
        <ele>14.6</ele>
        <time>2020-06-03T11:21:06Z</time>
      </trkpt>
      <trkpt lat="46.4598" lon="-1.71595">
        <ele>14.7</ele>
        <time>2020-06-03T11:21:07Z</time>
      </trkpt>
      <trkpt lat="46.45982" lon="-1.71598">
        <ele>14.8</ele>
        <time>2020-06-03T11:21:08Z</time>
      </trkpt>
      <trkpt lat="46.45984" lon="-1.71603">
        <ele>14.9</ele>
        <time>2020-06-03T11:21:09Z</time>
      </trkpt>
      <trkpt lat="46.45986" lon="-1.71607">
        <ele>15</ele>
        <time>2020-06-03T11:21:10Z</time>
      </trkpt>
      <trkpt lat="46.45988" lon="-1.7161">
        <ele>15.1</ele>
        <time>2020-06-03T11:21:11Z</time>
      </trkpt>
      <trkpt lat="46.4599" lon="-1.71613">
        <ele>15.2</ele>
        <time>2020-06-03T11:21:12Z</time>
      </trkpt>
      <trkpt lat="46.45993" lon="-1.71616">
        <ele>15.3</ele>
        <time>2020-06-03T11:21:13Z</time>
      </trkpt>
      <trkpt lat="46.45996" lon="-1.71621">
        <ele>15.4</ele>
        <time>2020-06-03T11:21:14Z</time>
      </trkpt>
      <trkpt lat="46.45998" lon="-1.71625">
        <ele>15.6</ele>
        <time>2020-06-03T11:21:15Z</time>
      </trkpt>
      <trkpt lat="46.46001" lon="-1.71629">
        <ele>15.7</ele>
        <time>2020-06-03T11:21:16Z</time>
      </trkpt>
      <trkpt lat="46.46003" lon="-1.71631">
        <ele>15.7</ele>
        <time>2020-06-03T11:21:17Z</time>
      </trkpt>
      <trkpt lat="46.46006" lon="-1.71636">
        <ele>15.8</ele>
        <time>2020-06-03T11:21:18Z</time>
      </trkpt>
      <trkpt lat="46.46007" lon="-1.71638">
        <ele>15.9</ele>
        <time>2020-06-03T11:21:19Z</time>
      </trkpt>
      <trkpt lat="46.46009" lon="-1.71641">
        <ele>16</ele>
        <time>2020-06-03T11:21:20Z</time>
      </trkpt>
      <trkpt lat="46.46012" lon="-1.71645">
        <ele>16.1</ele>
        <time>2020-06-03T11:21:21Z</time>
      </trkpt>
      <trkpt lat="46.46013" lon="-1.71646">
        <ele>16.1</ele>
        <time>2020-06-03T11:21:22Z</time>
      </trkpt>
      <trkpt lat="46.46016" lon="-1.71649">
        <ele>16.2</ele>
        <time>2020-06-03T11:21:23Z</time>
      </trkpt>
      <trkpt lat="46.4602" lon="-1.71653">
        <ele>16.4</ele>
        <time>2020-06-03T11:21:24Z</time>
      </trkpt>
      <trkpt lat="46.46023" lon="-1.71655">
        <ele>16.5</ele>
        <time>2020-06-03T11:21:25Z</time>
      </trkpt>
      <trkpt lat="46.46026" lon="-1.71657">
        <ele>16.6</ele>
        <time>2020-06-03T11:21:26Z</time>
      </trkpt>
      <trkpt lat="46.46027" lon="-1.71658">
        <ele>16.7</ele>
        <time>2020-06-03T11:21:27Z</time>
      </trkpt>
      <trkpt lat="46.46031" lon="-1.71662">
        <ele>16.8</ele>
        <time>2020-06-03T11:21:28Z</time>
      </trkpt>
      <trkpt lat="46.46032" lon="-1.71663">
        <ele>16.8</ele>
        <time>2020-06-03T11:21:29Z</time>
      </trkpt>
      <trkpt lat="46.46035" lon="-1.71667">
        <ele>17</ele>
        <time>2020-06-03T11:21:30Z</time>
      </trkpt>
      <trkpt lat="46.46037" lon="-1.7167">
        <ele>17.1</ele>
        <time>2020-06-03T11:21:31Z</time>
      </trkpt>
      <trkpt lat="46.46039" lon="-1.71673">
        <ele>17.1</ele>
        <time>2020-06-03T11:21:32Z</time>
      </trkpt>
      <trkpt lat="46.46041" lon="-1.71675">
        <ele>17.2</ele>
        <time>2020-06-03T11:21:33Z</time>
      </trkpt>
      <trkpt lat="46.46042" lon="-1.71677">
        <ele>17.3</ele>
        <time>2020-06-03T11:21:34Z</time>
      </trkpt>
      <trkpt lat="46.46045" lon="-1.71681">
        <ele>17.4</ele>
        <time>2020-06-03T11:21:35Z</time>
      </trkpt>
      <trkpt lat="46.46048" lon="-1.71685">
        <ele>17.5</ele>
        <time>2020-06-03T11:21:36Z</time>
      </trkpt>
      <trkpt lat="46.46051" lon="-1.7169">
        <ele>17.7</ele>
        <time>2020-06-03T11:21:37Z</time>
      </trkpt>
      <trkpt lat="46.46052" lon="-1.71693">
        <ele>17.8</ele>
        <time>2020-06-03T11:21:38Z</time>
      </trkpt>
      <trkpt lat="46.46055" lon="-1.71698">
        <ele>17.9</ele>
        <time>2020-06-03T11:21:39Z</time>
      </trkpt>
      <trkpt lat="46.46058" lon="-1.71703">
        <ele>18.1</ele>
        <time>2020-06-03T11:21:40Z</time>
      </trkpt>
      <trkpt lat="46.4606" lon="-1.71709">
        <ele>18.2</ele>
        <time>2020-06-03T11:21:41Z</time>
      </trkpt>
      <trkpt lat="46.46063" lon="-1.71713">
        <ele>18.3</ele>
        <time>2020-06-03T11:21:42Z</time>
      </trkpt>
      <trkpt lat="46.46065" lon="-1.71717">
        <ele>18.4</ele>
        <time>2020-06-03T11:21:43Z</time>
      </trkpt>
      <trkpt lat="46.46067" lon="-1.71721">
        <ele>18.5</ele>
        <time>2020-06-03T11:21:44Z</time>
      </trkpt>
      <trkpt lat="46.46069" lon="-1.71724">
        <ele>18.6</ele>
        <time>2020-06-03T11:21:45Z</time>
      </trkpt>
      <trkpt lat="46.46072" lon="-1.71728">
        <ele>18.7</ele>
        <time>2020-06-03T11:21:46Z</time>
      </trkpt>
      <trkpt lat="46.46072" lon="-1.71729">
        <ele>18.7</ele>
        <time>2020-06-03T11:21:47Z</time>
      </trkpt>
      <trkpt lat="46.46074" lon="-1.71733">
        <ele>18.8</ele>
        <time>2020-06-03T11:21:48Z</time>
      </trkpt>
      <trkpt lat="46.46076" lon="-1.71736">
        <ele>18.9</ele>
        <time>2020-06-03T11:21:49Z</time>
      </trkpt>
      <trkpt lat="46.46078" lon="-1.71739">
        <ele>19</ele>
        <time>2020-06-03T11:21:50Z</time>
      </trkpt>
      <trkpt lat="46.4608" lon="-1.71744">
        <ele>19.2</ele>
        <time>2020-06-03T11:21:51Z</time>
      </trkpt>
      <trkpt lat="46.46083" lon="-1.71748">
        <ele>19.3</ele>
        <time>2020-06-03T11:21:52Z</time>
      </trkpt>
      <trkpt lat="46.46086" lon="-1.71751">
        <ele>19.4</ele>
        <time>2020-06-03T11:21:53Z</time>
      </trkpt>
      <trkpt lat="46.46088" lon="-1.71754">
        <ele>19.5</ele>
        <time>2020-06-03T11:21:54Z</time>
      </trkpt>
      <trkpt lat="46.46091" lon="-1.71756">
        <ele>19.6</ele>
        <time>2020-06-03T11:21:55Z</time>
      </trkpt>
      <trkpt lat="46.46093" lon="-1.71759">
        <ele>19.7</ele>
        <time>2020-06-03T11:21:56Z</time>
      </trkpt>
      <trkpt lat="46.46096" lon="-1.71761">
        <ele>19.8</ele>
        <time>2020-06-03T11:21:57Z</time>
      </trkpt>
      <trkpt lat="46.46099" lon="-1.71765">
        <ele>19.9</ele>
        <time>2020-06-03T11:21:58Z</time>
      </trkpt>
      <trkpt lat="46.46102" lon="-1.71768">
        <ele>19.9</ele>
        <time>2020-06-03T11:21:59Z</time>
      </trkpt>
      <trkpt lat="46.46105" lon="-1.71771">
        <ele>20</ele>
        <time>2020-06-03T11:22:00Z</time>
      </trkpt>
      <trkpt lat="46.46109" lon="-1.71774">
        <ele>20.1</ele>
        <time>2020-06-03T11:22:01Z</time>
      </trkpt>
      <trkpt lat="46.46112" lon="-1.71777">
        <ele>20.1</ele>
        <time>2020-06-03T11:22:02Z</time>
      </trkpt>
      <trkpt lat="46.46115" lon="-1.7178">
        <ele>20.2</ele>
        <time>2020-06-03T11:22:03Z</time>
      </trkpt>
      <trkpt lat="46.46119" lon="-1.71782">
        <ele>20.2</ele>
        <time>2020-06-03T11:22:04Z</time>
      </trkpt>
      <trkpt lat="46.46122" lon="-1.71784">
        <ele>20.3</ele>
        <time>2020-06-03T11:22:05Z</time>
      </trkpt>
      <trkpt lat="46.46126" lon="-1.71788">
        <ele>20.3</ele>
        <time>2020-06-03T11:22:06Z</time>
      </trkpt>
      <trkpt lat="46.4613" lon="-1.71791">
        <ele>20.4</ele>
        <time>2020-06-03T11:22:07Z</time>
      </trkpt>
      <trkpt lat="46.46134" lon="-1.71796">
        <ele>20.5</ele>
        <time>2020-06-03T11:22:08Z</time>
      </trkpt>
      <trkpt lat="46.46137" lon="-1.71798">
        <ele>20.5</ele>
        <time>2020-06-03T11:22:09Z</time>
      </trkpt>
      <trkpt lat="46.46141" lon="-1.718">
        <ele>20.6</ele>
        <time>2020-06-03T11:22:10Z</time>
      </trkpt>
      <trkpt lat="46.46144" lon="-1.71803">
        <ele>20.6</ele>
        <time>2020-06-03T11:22:11Z</time>
      </trkpt>
      <trkpt lat="46.46147" lon="-1.71805">
        <ele>20.7</ele>
        <time>2020-06-03T11:22:12Z</time>
      </trkpt>
      <trkpt lat="46.46151" lon="-1.71807">
        <ele>20.8</ele>
        <time>2020-06-03T11:22:13Z</time>
      </trkpt>
      <trkpt lat="46.46155" lon="-1.7181">
        <ele>20.8</ele>
        <time>2020-06-03T11:22:14Z</time>
      </trkpt>
      <trkpt lat="46.46158" lon="-1.71813">
        <ele>20.9</ele>
        <time>2020-06-03T11:22:15Z</time>
      </trkpt>
      <trkpt lat="46.46162" lon="-1.71817">
        <ele>21</ele>
        <time>2020-06-03T11:22:16Z</time>
      </trkpt>
      <trkpt lat="46.46166" lon="-1.71822">
        <ele>21</ele>
        <time>2020-06-03T11:22:17Z</time>
      </trkpt>
      <trkpt lat="46.46169" lon="-1.71826">
        <ele>21.1</ele>
        <time>2020-06-03T11:22:18Z</time>
      </trkpt>
      <trkpt lat="46.46174" lon="-1.71831">
        <ele>21.1</ele>
        <time>2020-06-03T11:22:19Z</time>
      </trkpt>
      <trkpt lat="46.46178" lon="-1.71835">
        <ele>21.2</ele>
        <time>2020-06-03T11:22:20Z</time>
      </trkpt>
      <trkpt lat="46.46181" lon="-1.71837">
        <ele>21.2</ele>
        <time>2020-06-03T11:22:21Z</time>
      </trkpt>
      <trkpt lat="46.46184" lon="-1.71841">
        <ele>21.2</ele>
        <time>2020-06-03T11:22:22Z</time>
      </trkpt>
      <trkpt lat="46.46188" lon="-1.71844">
        <ele>21.2</ele>
        <time>2020-06-03T11:22:23Z</time>
      </trkpt>
      <trkpt lat="46.46192" lon="-1.71849">
        <ele>21.2</ele>
        <time>2020-06-03T11:22:24Z</time>
      </trkpt>
      <trkpt lat="46.46196" lon="-1.71854">
        <ele>21.2</ele>
        <time>2020-06-03T11:22:25Z</time>
      </trkpt>
      <trkpt lat="46.46199" lon="-1.71857">
        <ele>21.2</ele>
        <time>2020-06-03T11:22:26Z</time>
      </trkpt>
      <trkpt lat="46.46201" lon="-1.71861">
        <ele>21.2</ele>
        <time>2020-06-03T11:22:27Z</time>
      </trkpt>
      <trkpt lat="46.46204" lon="-1.71866">
        <ele>21.2</ele>
        <time>2020-06-03T11:22:28Z</time>
      </trkpt>
      <trkpt lat="46.46207" lon="-1.71868">
        <ele>21.2</ele>
        <time>2020-06-03T11:22:29Z</time>
      </trkpt>
      <trkpt lat="46.4621" lon="-1.7187">
        <ele>21.1</ele>
        <time>2020-06-03T11:22:30Z</time>
      </trkpt>
      <trkpt lat="46.46213" lon="-1.71872">
        <ele>21.1</ele>
        <time>2020-06-03T11:22:31Z</time>
      </trkpt>
      <trkpt lat="46.46215" lon="-1.71875">
        <ele>21.1</ele>
        <time>2020-06-03T11:22:32Z</time>
      </trkpt>
      <trkpt lat="46.46218" lon="-1.71877">
        <ele>21.1</ele>
        <time>2020-06-03T11:22:33Z</time>
      </trkpt>
      <trkpt lat="46.4622" lon="-1.71881">
        <ele>21.1</ele>
        <time>2020-06-03T11:22:34Z</time>
      </trkpt>
      <trkpt lat="46.46223" lon="-1.71885">
        <ele>21.1</ele>
        <time>2020-06-03T11:22:35Z</time>
      </trkpt>
      <trkpt lat="46.46226" lon="-1.7189">
        <ele>21.1</ele>
        <time>2020-06-03T11:22:36Z</time>
      </trkpt>
      <trkpt lat="46.46228" lon="-1.71895">
        <ele>21.1</ele>
        <time>2020-06-03T11:22:37Z</time>
      </trkpt>
      <trkpt lat="46.46231" lon="-1.71901">
        <ele>21</ele>
        <time>2020-06-03T11:22:38Z</time>
      </trkpt>
      <trkpt lat="46.46234" lon="-1.71906">
        <ele>21</ele>
        <time>2020-06-03T11:22:39Z</time>
      </trkpt>
      <trkpt lat="46.46237" lon="-1.71911">
        <ele>21</ele>
        <time>2020-06-03T11:22:40Z</time>
      </trkpt>
      <trkpt lat="46.4624" lon="-1.71916">
        <ele>21</ele>
        <time>2020-06-03T11:22:41Z</time>
      </trkpt>
      <trkpt lat="46.46242" lon="-1.71922">
        <ele>21</ele>
        <time>2020-06-03T11:22:42Z</time>
      </trkpt>
      <trkpt lat="46.46245" lon="-1.71927">
        <ele>21</ele>
        <time>2020-06-03T11:22:43Z</time>
      </trkpt>
      <trkpt lat="46.46249" lon="-1.71934">
        <ele>20.9</ele>
        <time>2020-06-03T11:22:44Z</time>
      </trkpt>
      <trkpt lat="46.46252" lon="-1.7194">
        <ele>20.9</ele>
        <time>2020-06-03T11:22:45Z</time>
      </trkpt>
      <trkpt lat="46.46254" lon="-1.71946">
        <ele>20.9</ele>
        <time>2020-06-03T11:22:46Z</time>
      </trkpt>
      <trkpt lat="46.46257" lon="-1.71951">
        <ele>20.9</ele>
        <time>2020-06-03T11:22:47Z</time>
      </trkpt>
      <trkpt lat="46.4626" lon="-1.71957">
        <ele>20.8</ele>
        <time>2020-06-03T11:22:48Z</time>
      </trkpt>
      <trkpt lat="46.46262" lon="-1.71963">
        <ele>20.8</ele>
        <time>2020-06-03T11:22:49Z</time>
      </trkpt>
      <trkpt lat="46.46266" lon="-1.71968">
        <ele>20.8</ele>
        <time>2020-06-03T11:22:50Z</time>
      </trkpt>
      <trkpt lat="46.46268" lon="-1.71973">
        <ele>20.8</ele>
        <time>2020-06-03T11:22:51Z</time>
      </trkpt>
      <trkpt lat="46.46272" lon="-1.71978">
        <ele>20.8</ele>
        <time>2020-06-03T11:22:52Z</time>
      </trkpt>
      <trkpt lat="46.46274" lon="-1.71983">
        <ele>20.9</ele>
        <time>2020-06-03T11:22:53Z</time>
      </trkpt>
      <trkpt lat="46.46277" lon="-1.71988">
        <ele>20.9</ele>
        <time>2020-06-03T11:22:54Z</time>
      </trkpt>
      <trkpt lat="46.46279" lon="-1.71994">
        <ele>21</ele>
        <time>2020-06-03T11:22:55Z</time>
      </trkpt>
      <trkpt lat="46.46282" lon="-1.72">
        <ele>21</ele>
        <time>2020-06-03T11:22:56Z</time>
      </trkpt>
      <trkpt lat="46.46284" lon="-1.72007">
        <ele>21.1</ele>
        <time>2020-06-03T11:22:57Z</time>
      </trkpt>
      <trkpt lat="46.46287" lon="-1.72013">
        <ele>21.2</ele>
        <time>2020-06-03T11:22:58Z</time>
      </trkpt>
      <trkpt lat="46.46289" lon="-1.7202">
        <ele>21.2</ele>
        <time>2020-06-03T11:22:59Z</time>
      </trkpt>
      <trkpt lat="46.46292" lon="-1.72026">
        <ele>21.3</ele>
        <time>2020-06-03T11:23:00Z</time>
      </trkpt>
      <trkpt lat="46.46295" lon="-1.72032">
        <ele>21.3</ele>
        <time>2020-06-03T11:23:01Z</time>
      </trkpt>
      <trkpt lat="46.46297" lon="-1.7204">
        <ele>21.4</ele>
        <time>2020-06-03T11:23:02Z</time>
      </trkpt>
      <trkpt lat="46.46299" lon="-1.72046">
        <ele>21.4</ele>
        <time>2020-06-03T11:23:03Z</time>
      </trkpt>
      <trkpt lat="46.46301" lon="-1.72053">
        <ele>21.4</ele>
        <time>2020-06-03T11:23:04Z</time>
      </trkpt>
      <trkpt lat="46.46303" lon="-1.72059">
        <ele>21.4</ele>
        <time>2020-06-03T11:23:05Z</time>
      </trkpt>
      <trkpt lat="46.46306" lon="-1.72066">
        <ele>21.5</ele>
        <time>2020-06-03T11:23:06Z</time>
      </trkpt>
      <trkpt lat="46.46307" lon="-1.72073">
        <ele>21.5</ele>
        <time>2020-06-03T11:23:07Z</time>
      </trkpt>
      <trkpt lat="46.46308" lon="-1.7208">
        <ele>21.5</ele>
        <time>2020-06-03T11:23:08Z</time>
      </trkpt>
      <trkpt lat="46.4631" lon="-1.72088">
        <ele>21.5</ele>
        <time>2020-06-03T11:23:09Z</time>
      </trkpt>
      <trkpt lat="46.4631" lon="-1.72095">
        <ele>21.5</ele>
        <time>2020-06-03T11:23:10Z</time>
      </trkpt>
      <trkpt lat="46.46311" lon="-1.72101">
        <ele>21.5</ele>
        <time>2020-06-03T11:23:11Z</time>
      </trkpt>
      <trkpt lat="46.46312" lon="-1.72109">
        <ele>21.5</ele>
        <time>2020-06-03T11:23:12Z</time>
      </trkpt>
      <trkpt lat="46.46312" lon="-1.72116">
        <ele>21.5</ele>
        <time>2020-06-03T11:23:13Z</time>
      </trkpt>
      <trkpt lat="46.46314" lon="-1.72123">
        <ele>21.6</ele>
        <time>2020-06-03T11:23:14Z</time>
      </trkpt>
      <trkpt lat="46.46315" lon="-1.7213">
        <ele>21.6</ele>
        <time>2020-06-03T11:23:15Z</time>
      </trkpt>
      <trkpt lat="46.46317" lon="-1.72137">
        <ele>21.6</ele>
        <time>2020-06-03T11:23:16Z</time>
      </trkpt>
      <trkpt lat="46.46318" lon="-1.72144">
        <ele>21.6</ele>
        <time>2020-06-03T11:23:17Z</time>
      </trkpt>
      <trkpt lat="46.46319" lon="-1.7215">
        <ele>21.6</ele>
        <time>2020-06-03T11:23:18Z</time>
      </trkpt>
      <trkpt lat="46.4632" lon="-1.72158">
        <ele>21.6</ele>
        <time>2020-06-03T11:23:19Z</time>
      </trkpt>
      <trkpt lat="46.46321" lon="-1.72166">
        <ele>21.7</ele>
        <time>2020-06-03T11:23:20Z</time>
      </trkpt>
      <trkpt lat="46.46321" lon="-1.72173">
        <ele>21.7</ele>
        <time>2020-06-03T11:23:21Z</time>
      </trkpt>
      <trkpt lat="46.46322" lon="-1.72179">
        <ele>21.8</ele>
        <time>2020-06-03T11:23:22Z</time>
      </trkpt>
      <trkpt lat="46.46323" lon="-1.72186">
        <ele>21.8</ele>
        <time>2020-06-03T11:23:23Z</time>
      </trkpt>
      <trkpt lat="46.46324" lon="-1.72192">
        <ele>21.8</ele>
        <time>2020-06-03T11:23:24Z</time>
      </trkpt>
      <trkpt lat="46.46325" lon="-1.72198">
        <ele>21.9</ele>
        <time>2020-06-03T11:23:25Z</time>
      </trkpt>
      <trkpt lat="46.46327" lon="-1.72205">
        <ele>21.9</ele>
        <time>2020-06-03T11:23:26Z</time>
      </trkpt>
      <trkpt lat="46.46329" lon="-1.72212">
        <ele>22</ele>
        <time>2020-06-03T11:23:27Z</time>
      </trkpt>
      <trkpt lat="46.4633" lon="-1.72218">
        <ele>22</ele>
        <time>2020-06-03T11:23:28Z</time>
      </trkpt>
      <trkpt lat="46.46331" lon="-1.72225">
        <ele>22.1</ele>
        <time>2020-06-03T11:23:29Z</time>
      </trkpt>
      <trkpt lat="46.46333" lon="-1.72232">
        <ele>22.1</ele>
        <time>2020-06-03T11:23:30Z</time>
      </trkpt>
      <trkpt lat="46.46335" lon="-1.72238">
        <ele>22.2</ele>
        <time>2020-06-03T11:23:31Z</time>
      </trkpt>
      <trkpt lat="46.46336" lon="-1.72244">
        <ele>22.2</ele>
        <time>2020-06-03T11:23:32Z</time>
      </trkpt>
      <trkpt lat="46.46337" lon="-1.72251">
        <ele>22.2</ele>
        <time>2020-06-03T11:23:33Z</time>
      </trkpt>
      <trkpt lat="46.46339" lon="-1.72258">
        <ele>22.2</ele>
        <time>2020-06-03T11:23:34Z</time>
      </trkpt>
      <trkpt lat="46.4634" lon="-1.72265">
        <ele>22.3</ele>
        <time>2020-06-03T11:23:35Z</time>
      </trkpt>
      <trkpt lat="46.46342" lon="-1.72272">
        <ele>22.3</ele>
        <time>2020-06-03T11:23:36Z</time>
      </trkpt>
      <trkpt lat="46.46343" lon="-1.7228">
        <ele>22.3</ele>
        <time>2020-06-03T11:23:37Z</time>
      </trkpt>
      <trkpt lat="46.46344" lon="-1.72287">
        <ele>22.3</ele>
        <time>2020-06-03T11:23:38Z</time>
      </trkpt>
      <trkpt lat="46.46346" lon="-1.72292">
        <ele>22.3</ele>
        <time>2020-06-03T11:23:39Z</time>
      </trkpt>
      <trkpt lat="46.46347" lon="-1.72299">
        <ele>22.3</ele>
        <time>2020-06-03T11:23:40Z</time>
      </trkpt>
      <trkpt lat="46.46349" lon="-1.72306">
        <ele>22.3</ele>
        <time>2020-06-03T11:23:41Z</time>
      </trkpt>
      <trkpt lat="46.4635" lon="-1.72313">
        <ele>22.3</ele>
        <time>2020-06-03T11:23:42Z</time>
      </trkpt>
      <trkpt lat="46.4635" lon="-1.7232">
        <ele>22.3</ele>
        <time>2020-06-03T11:23:43Z</time>
      </trkpt>
      <trkpt lat="46.4635" lon="-1.72327">
        <ele>22.3</ele>
        <time>2020-06-03T11:23:44Z</time>
      </trkpt>
      <trkpt lat="46.46351" lon="-1.72334">
        <ele>22.3</ele>
        <time>2020-06-03T11:23:45Z</time>
      </trkpt>
      <trkpt lat="46.46352" lon="-1.72341">
        <ele>22.3</ele>
        <time>2020-06-03T11:23:46Z</time>
      </trkpt>
      <trkpt lat="46.46353" lon="-1.72347">
        <ele>22.3</ele>
        <time>2020-06-03T11:23:47Z</time>
      </trkpt>
      <trkpt lat="46.46354" lon="-1.72355">
        <ele>22.3</ele>
        <time>2020-06-03T11:23:48Z</time>
      </trkpt>
      <trkpt lat="46.46355" lon="-1.72362">
        <ele>22.3</ele>
        <time>2020-06-03T11:23:49Z</time>
      </trkpt>
      <trkpt lat="46.46355" lon="-1.72369">
        <ele>22.3</ele>
        <time>2020-06-03T11:23:50Z</time>
      </trkpt>
      <trkpt lat="46.46356" lon="-1.72376">
        <ele>22.3</ele>
        <time>2020-06-03T11:23:51Z</time>
      </trkpt>
      <trkpt lat="46.46356" lon="-1.72383">
        <ele>22.3</ele>
        <time>2020-06-03T11:23:52Z</time>
      </trkpt>
      <trkpt lat="46.46356" lon="-1.72391">
        <ele>22.3</ele>
        <time>2020-06-03T11:23:53Z</time>
      </trkpt>
      <trkpt lat="46.46356" lon="-1.72397">
        <ele>22.3</ele>
        <time>2020-06-03T11:23:54Z</time>
      </trkpt>
      <trkpt lat="46.46357" lon="-1.72404">
        <ele>22.3</ele>
        <time>2020-06-03T11:23:55Z</time>
      </trkpt>
      <trkpt lat="46.46358" lon="-1.7241">
        <ele>22.3</ele>
        <time>2020-06-03T11:23:56Z</time>
      </trkpt>
      <trkpt lat="46.46358" lon="-1.72417">
        <ele>22.3</ele>
        <time>2020-06-03T11:23:57Z</time>
      </trkpt>
      <trkpt lat="46.46358" lon="-1.72424">
        <ele>22.3</ele>
        <time>2020-06-03T11:23:58Z</time>
      </trkpt>
      <trkpt lat="46.46358" lon="-1.7243">
        <ele>22.2</ele>
        <time>2020-06-03T11:23:59Z</time>
      </trkpt>
      <trkpt lat="46.46359" lon="-1.72436">
        <ele>22.2</ele>
        <time>2020-06-03T11:24:00Z</time>
      </trkpt>
      <trkpt lat="46.46359" lon="-1.72443">
        <ele>22.2</ele>
        <time>2020-06-03T11:24:01Z</time>
      </trkpt>
      <trkpt lat="46.46359" lon="-1.7245">
        <ele>22.2</ele>
        <time>2020-06-03T11:24:02Z</time>
      </trkpt>
      <trkpt lat="46.46361" lon="-1.72456">
        <ele>22.2</ele>
        <time>2020-06-03T11:24:03Z</time>
      </trkpt>
      <trkpt lat="46.46363" lon="-1.72462">
        <ele>22.2</ele>
        <time>2020-06-03T11:24:04Z</time>
      </trkpt>
      <trkpt lat="46.46364" lon="-1.72468">
        <ele>22.2</ele>
        <time>2020-06-03T11:24:05Z</time>
      </trkpt>
      <trkpt lat="46.46364" lon="-1.72474">
        <ele>22.2</ele>
        <time>2020-06-03T11:24:06Z</time>
      </trkpt>
      <trkpt lat="46.46364" lon="-1.7248">
        <ele>22.2</ele>
        <time>2020-06-03T11:24:07Z</time>
      </trkpt>
      <trkpt lat="46.46365" lon="-1.72486">
        <ele>22.2</ele>
        <time>2020-06-03T11:24:08Z</time>
      </trkpt>
      <trkpt lat="46.46365" lon="-1.72492">
        <ele>22.2</ele>
        <time>2020-06-03T11:24:09Z</time>
      </trkpt>
      <trkpt lat="46.46365" lon="-1.72498">
        <ele>22.2</ele>
        <time>2020-06-03T11:24:10Z</time>
      </trkpt>
      <trkpt lat="46.46366" lon="-1.72505">
        <ele>22.1</ele>
        <time>2020-06-03T11:24:11Z</time>
      </trkpt>
      <trkpt lat="46.46366" lon="-1.72511">
        <ele>22.1</ele>
        <time>2020-06-03T11:24:12Z</time>
      </trkpt>
      <trkpt lat="46.46367" lon="-1.72517">
        <ele>22.1</ele>
        <time>2020-06-03T11:24:13Z</time>
      </trkpt>
      <trkpt lat="46.46368" lon="-1.72522">
        <ele>22.1</ele>
        <time>2020-06-03T11:24:14Z</time>
      </trkpt>
      <trkpt lat="46.46369" lon="-1.72529">
        <ele>22.1</ele>
        <time>2020-06-03T11:24:15Z</time>
      </trkpt>
      <trkpt lat="46.46371" lon="-1.72535">
        <ele>22.1</ele>
        <time>2020-06-03T11:24:16Z</time>
      </trkpt>
      <trkpt lat="46.46371" lon="-1.72541">
        <ele>22</ele>
        <time>2020-06-03T11:24:17Z</time>
      </trkpt>
      <trkpt lat="46.46372" lon="-1.72548">
        <ele>22</ele>
        <time>2020-06-03T11:24:18Z</time>
      </trkpt>
      <trkpt lat="46.46372" lon="-1.72554">
        <ele>21.9</ele>
        <time>2020-06-03T11:24:19Z</time>
      </trkpt>
      <trkpt lat="46.46373" lon="-1.7256">
        <ele>21.9</ele>
        <time>2020-06-03T11:24:20Z</time>
      </trkpt>
      <trkpt lat="46.46373" lon="-1.72565">
        <ele>21.9</ele>
        <time>2020-06-03T11:24:21Z</time>
      </trkpt>
      <trkpt lat="46.46374" lon="-1.72571">
        <ele>21.8</ele>
        <time>2020-06-03T11:24:22Z</time>
      </trkpt>
      <trkpt lat="46.46375" lon="-1.72578">
        <ele>21.8</ele>
        <time>2020-06-03T11:24:23Z</time>
      </trkpt>
      <trkpt lat="46.46375" lon="-1.72585">
        <ele>21.7</ele>
        <time>2020-06-03T11:24:24Z</time>
      </trkpt>
      <trkpt lat="46.46375" lon="-1.72591">
        <ele>21.7</ele>
        <time>2020-06-03T11:24:25Z</time>
      </trkpt>
      <trkpt lat="46.46376" lon="-1.72597">
        <ele>21.7</ele>
        <time>2020-06-03T11:24:26Z</time>
      </trkpt>
      <trkpt lat="46.46377" lon="-1.72603">
        <ele>21.6</ele>
        <time>2020-06-03T11:24:27Z</time>
      </trkpt>
      <trkpt lat="46.46378" lon="-1.72609">
        <ele>21.6</ele>
        <time>2020-06-03T11:24:28Z</time>
      </trkpt>
      <trkpt lat="46.4638" lon="-1.72615">
        <ele>21.5</ele>
        <time>2020-06-03T11:24:29Z</time>
      </trkpt>
      <trkpt lat="46.46381" lon="-1.72622">
        <ele>21.5</ele>
        <time>2020-06-03T11:24:30Z</time>
      </trkpt>
      <trkpt lat="46.46382" lon="-1.72629">
        <ele>21.4</ele>
        <time>2020-06-03T11:24:31Z</time>
      </trkpt>
      <trkpt lat="46.46382" lon="-1.72635">
        <ele>21.3</ele>
        <time>2020-06-03T11:24:32Z</time>
      </trkpt>
      <trkpt lat="46.46382" lon="-1.72642">
        <ele>21.2</ele>
        <time>2020-06-03T11:24:33Z</time>
      </trkpt>
      <trkpt lat="46.46383" lon="-1.72649">
        <ele>21.1</ele>
        <time>2020-06-03T11:24:34Z</time>
      </trkpt>
      <trkpt lat="46.46383" lon="-1.72656">
        <ele>21</ele>
        <time>2020-06-03T11:24:35Z</time>
      </trkpt>
      <trkpt lat="46.46382" lon="-1.72663">
        <ele>20.9</ele>
        <time>2020-06-03T11:24:36Z</time>
      </trkpt>
      <trkpt lat="46.46382" lon="-1.72671">
        <ele>20.8</ele>
        <time>2020-06-03T11:24:37Z</time>
      </trkpt>
      <trkpt lat="46.46382" lon="-1.72677">
        <ele>20.7</ele>
        <time>2020-06-03T11:24:38Z</time>
      </trkpt>
      <trkpt lat="46.46382" lon="-1.72683">
        <ele>20.6</ele>
        <time>2020-06-03T11:24:39Z</time>
      </trkpt>
      <trkpt lat="46.46382" lon="-1.72689">
        <ele>20.5</ele>
        <time>2020-06-03T11:24:40Z</time>
      </trkpt>
      <trkpt lat="46.46381" lon="-1.72694">
        <ele>20.4</ele>
        <time>2020-06-03T11:24:41Z</time>
      </trkpt>
      <trkpt lat="46.46381" lon="-1.72701">
        <ele>20.3</ele>
        <time>2020-06-03T11:24:42Z</time>
      </trkpt>
      <trkpt lat="46.46381" lon="-1.72707">
        <ele>20.2</ele>
        <time>2020-06-03T11:24:43Z</time>
      </trkpt>
      <trkpt lat="46.4638" lon="-1.72713">
        <ele>20.1</ele>
        <time>2020-06-03T11:24:44Z</time>
      </trkpt>
      <trkpt lat="46.46379" lon="-1.72719">
        <ele>20</ele>
        <time>2020-06-03T11:24:45Z</time>
      </trkpt>
      <trkpt lat="46.46378" lon="-1.72726">
        <ele>19.8</ele>
        <time>2020-06-03T11:24:46Z</time>
      </trkpt>
      <trkpt lat="46.46377" lon="-1.72733">
        <ele>19.7</ele>
        <time>2020-06-03T11:24:47Z</time>
      </trkpt>
      <trkpt lat="46.46376" lon="-1.7274">
        <ele>19.6</ele>
        <time>2020-06-03T11:24:48Z</time>
      </trkpt>
      <trkpt lat="46.46376" lon="-1.72747">
        <ele>19.4</ele>
        <time>2020-06-03T11:24:49Z</time>
      </trkpt>
      <trkpt lat="46.46376" lon="-1.72753">
        <ele>19.3</ele>
        <time>2020-06-03T11:24:50Z</time>
      </trkpt>
      <trkpt lat="46.46375" lon="-1.72761">
        <ele>19.1</ele>
        <time>2020-06-03T11:24:51Z</time>
      </trkpt>
      <trkpt lat="46.46374" lon="-1.72768">
        <ele>18.9</ele>
        <time>2020-06-03T11:24:52Z</time>
      </trkpt>
      <trkpt lat="46.46373" lon="-1.72775">
        <ele>18.8</ele>
        <time>2020-06-03T11:24:53Z</time>
      </trkpt>
      <trkpt lat="46.46373" lon="-1.72781">
        <ele>18.6</ele>
        <time>2020-06-03T11:24:54Z</time>
      </trkpt>
      <trkpt lat="46.46372" lon="-1.72788">
        <ele>18.4</ele>
        <time>2020-06-03T11:24:55Z</time>
      </trkpt>
      <trkpt lat="46.46372" lon="-1.72794">
        <ele>18.2</ele>
        <time>2020-06-03T11:24:56Z</time>
      </trkpt>
      <trkpt lat="46.46372" lon="-1.728">
        <ele>18.1</ele>
        <time>2020-06-03T11:24:57Z</time>
      </trkpt>
      <trkpt lat="46.46373" lon="-1.72807">
        <ele>17.8</ele>
        <time>2020-06-03T11:24:58Z</time>
      </trkpt>
      <trkpt lat="46.46374" lon="-1.72814">
        <ele>17.6</ele>
        <time>2020-06-03T11:24:59Z</time>
      </trkpt>
      <trkpt lat="46.46375" lon="-1.72821">
        <ele>17.4</ele>
        <time>2020-06-03T11:25:00Z</time>
      </trkpt>
      <trkpt lat="46.46376" lon="-1.72828">
        <ele>17.2</ele>
        <time>2020-06-03T11:25:01Z</time>
      </trkpt>
      <trkpt lat="46.46378" lon="-1.72836">
        <ele>16.9</ele>
        <time>2020-06-03T11:25:02Z</time>
      </trkpt>
      <trkpt lat="46.4638" lon="-1.72843">
        <ele>16.7</ele>
        <time>2020-06-03T11:25:03Z</time>
      </trkpt>
      <trkpt lat="46.46382" lon="-1.72851">
        <ele>16.4</ele>
        <time>2020-06-03T11:25:04Z</time>
      </trkpt>
      <trkpt lat="46.46383" lon="-1.7286">
        <ele>16.2</ele>
        <time>2020-06-03T11:25:05Z</time>
      </trkpt>
      <trkpt lat="46.46385" lon="-1.72867">
        <ele>16</ele>
        <time>2020-06-03T11:25:06Z</time>
      </trkpt>
      <trkpt lat="46.46386" lon="-1.72876">
        <ele>15.7</ele>
        <time>2020-06-03T11:25:07Z</time>
      </trkpt>
      <trkpt lat="46.46388" lon="-1.72885">
        <ele>15.4</ele>
        <time>2020-06-03T11:25:08Z</time>
      </trkpt>
      <trkpt lat="46.4639" lon="-1.72893">
        <ele>15.1</ele>
        <time>2020-06-03T11:25:09Z</time>
      </trkpt>
      <trkpt lat="46.46393" lon="-1.72902">
        <ele>14.8</ele>
        <time>2020-06-03T11:25:10Z</time>
      </trkpt>
      <trkpt lat="46.46395" lon="-1.72912">
        <ele>14.6</ele>
        <time>2020-06-03T11:25:11Z</time>
      </trkpt>
      <trkpt lat="46.46397" lon="-1.7292">
        <ele>14.3</ele>
        <time>2020-06-03T11:25:12Z</time>
      </trkpt>
      <trkpt lat="46.46399" lon="-1.72928">
        <ele>14.1</ele>
        <time>2020-06-03T11:25:13Z</time>
      </trkpt>
      <trkpt lat="46.46401" lon="-1.72936">
        <ele>13.8</ele>
        <time>2020-06-03T11:25:14Z</time>
      </trkpt>
      <trkpt lat="46.46404" lon="-1.72944">
        <ele>13.5</ele>
        <time>2020-06-03T11:25:15Z</time>
      </trkpt>
      <trkpt lat="46.46406" lon="-1.72953">
        <ele>13.2</ele>
        <time>2020-06-03T11:25:16Z</time>
      </trkpt>
      <trkpt lat="46.46407" lon="-1.72962">
        <ele>12.9</ele>
        <time>2020-06-03T11:25:17Z</time>
      </trkpt>
      <trkpt lat="46.46409" lon="-1.7297">
        <ele>12.7</ele>
        <time>2020-06-03T11:25:18Z</time>
      </trkpt>
      <trkpt lat="46.46411" lon="-1.72978">
        <ele>12.6</ele>
        <time>2020-06-03T11:25:19Z</time>
      </trkpt>
      <trkpt lat="46.46412" lon="-1.72986">
        <ele>12.5</ele>
        <time>2020-06-03T11:25:20Z</time>
      </trkpt>
      <trkpt lat="46.46414" lon="-1.72994">
        <ele>12.4</ele>
        <time>2020-06-03T11:25:21Z</time>
      </trkpt>
      <trkpt lat="46.46416" lon="-1.73003">
        <ele>12.3</ele>
        <time>2020-06-03T11:25:22Z</time>
      </trkpt>
      <trkpt lat="46.46419" lon="-1.73011">
        <ele>12.2</ele>
        <time>2020-06-03T11:25:23Z</time>
      </trkpt>
      <trkpt lat="46.4642" lon="-1.73019">
        <ele>12</ele>
        <time>2020-06-03T11:25:24Z</time>
      </trkpt>
      <trkpt lat="46.46421" lon="-1.73026">
        <ele>11.9</ele>
        <time>2020-06-03T11:25:25Z</time>
      </trkpt>
      <trkpt lat="46.46422" lon="-1.73034">
        <ele>11.8</ele>
        <time>2020-06-03T11:25:26Z</time>
      </trkpt>
      <trkpt lat="46.46424" lon="-1.73042">
        <ele>11.7</ele>
        <time>2020-06-03T11:25:27Z</time>
      </trkpt>
      <trkpt lat="46.46426" lon="-1.73049">
        <ele>11.5</ele>
        <time>2020-06-03T11:25:28Z</time>
      </trkpt>
      <trkpt lat="46.46428" lon="-1.73057">
        <ele>11.4</ele>
        <time>2020-06-03T11:25:29Z</time>
      </trkpt>
      <trkpt lat="46.4643" lon="-1.73065">
        <ele>11.2</ele>
        <time>2020-06-03T11:25:30Z</time>
      </trkpt>
      <trkpt lat="46.46433" lon="-1.73071">
        <ele>11</ele>
        <time>2020-06-03T11:25:31Z</time>
      </trkpt>
      <trkpt lat="46.46437" lon="-1.73077">
        <ele>10.9</ele>
        <time>2020-06-03T11:25:32Z</time>
      </trkpt>
      <trkpt lat="46.4644" lon="-1.73082">
        <ele>10.8</ele>
        <time>2020-06-03T11:25:33Z</time>
      </trkpt>
      <trkpt lat="46.46444" lon="-1.73089">
        <ele>10.7</ele>
        <time>2020-06-03T11:25:34Z</time>
      </trkpt>
      <trkpt lat="46.46447" lon="-1.73097">
        <ele>10.5</ele>
        <time>2020-06-03T11:25:35Z</time>
      </trkpt>
      <trkpt lat="46.4645" lon="-1.73104">
        <ele>10.4</ele>
        <time>2020-06-03T11:25:36Z</time>
      </trkpt>
      <trkpt lat="46.46453" lon="-1.73111">
        <ele>10.3</ele>
        <time>2020-06-03T11:25:37Z</time>
      </trkpt>
      <trkpt lat="46.46455" lon="-1.73117">
        <ele>10.2</ele>
        <time>2020-06-03T11:25:38Z</time>
      </trkpt>
      <trkpt lat="46.46457" lon="-1.73124">
        <ele>10.1</ele>
        <time>2020-06-03T11:25:39Z</time>
      </trkpt>
      <trkpt lat="46.4646" lon="-1.73132">
        <ele>9.9</ele>
        <time>2020-06-03T11:25:40Z</time>
      </trkpt>
      <trkpt lat="46.46463" lon="-1.73139">
        <ele>9.8</ele>
        <time>2020-06-03T11:25:41Z</time>
      </trkpt>
      <trkpt lat="46.46468" lon="-1.73146">
        <ele>9.8</ele>
        <time>2020-06-03T11:25:42Z</time>
      </trkpt>
      <trkpt lat="46.46473" lon="-1.73151">
        <ele>9.9</ele>
        <time>2020-06-03T11:25:43Z</time>
      </trkpt>
      <trkpt lat="46.46479" lon="-1.73154">
        <ele>10</ele>
        <time>2020-06-03T11:25:44Z</time>
      </trkpt>
      <trkpt lat="46.46485" lon="-1.73157">
        <ele>10.1</ele>
        <time>2020-06-03T11:25:45Z</time>
      </trkpt>
      <trkpt lat="46.46491" lon="-1.73159">
        <ele>10.2</ele>
        <time>2020-06-03T11:25:46Z</time>
      </trkpt>
      <trkpt lat="46.46496" lon="-1.7316">
        <ele>10.3</ele>
        <time>2020-06-03T11:25:47Z</time>
      </trkpt>
      <trkpt lat="46.46501" lon="-1.73162">
        <ele>10.5</ele>
        <time>2020-06-03T11:25:48Z</time>
      </trkpt>
      <trkpt lat="46.46506" lon="-1.73164">
        <ele>10.6</ele>
        <time>2020-06-03T11:25:49Z</time>
      </trkpt>
      <trkpt lat="46.46511" lon="-1.73166">
        <ele>10.7</ele>
        <time>2020-06-03T11:25:50Z</time>
      </trkpt>
      <trkpt lat="46.46516" lon="-1.73167">
        <ele>10.8</ele>
        <time>2020-06-03T11:25:51Z</time>
      </trkpt>
      <trkpt lat="46.46522" lon="-1.73168">
        <ele>10.9</ele>
        <time>2020-06-03T11:25:52Z</time>
      </trkpt>
      <trkpt lat="46.46526" lon="-1.73169">
        <ele>11</ele>
        <time>2020-06-03T11:25:53Z</time>
      </trkpt>
      <trkpt lat="46.46531" lon="-1.73171">
        <ele>11.1</ele>
        <time>2020-06-03T11:25:54Z</time>
      </trkpt>
      <trkpt lat="46.46535" lon="-1.73174">
        <ele>11.2</ele>
        <time>2020-06-03T11:25:55Z</time>
      </trkpt>
      <trkpt lat="46.46538" lon="-1.73176">
        <ele>11.3</ele>
        <time>2020-06-03T11:25:56Z</time>
      </trkpt>
      <trkpt lat="46.46543" lon="-1.73179">
        <ele>11.4</ele>
        <time>2020-06-03T11:25:57Z</time>
      </trkpt>
      <trkpt lat="46.46547" lon="-1.73182">
        <ele>11.5</ele>
        <time>2020-06-03T11:25:58Z</time>
      </trkpt>
      <trkpt lat="46.46551" lon="-1.73185">
        <ele>11.5</ele>
        <time>2020-06-03T11:25:59Z</time>
      </trkpt>
      <trkpt lat="46.46556" lon="-1.73188">
        <ele>11.6</ele>
        <time>2020-06-03T11:26:00Z</time>
      </trkpt>
      <trkpt lat="46.4656" lon="-1.7319">
        <ele>11.6</ele>
        <time>2020-06-03T11:26:01Z</time>
      </trkpt>
      <trkpt lat="46.46565" lon="-1.73192">
        <ele>11.6</ele>
        <time>2020-06-03T11:26:02Z</time>
      </trkpt>
      <trkpt lat="46.46569" lon="-1.73193">
        <ele>11.6</ele>
        <time>2020-06-03T11:26:03Z</time>
      </trkpt>
      <trkpt lat="46.46574" lon="-1.73194">
        <ele>11.7</ele>
        <time>2020-06-03T11:26:04Z</time>
      </trkpt>
      <trkpt lat="46.46578" lon="-1.73196">
        <ele>11.7</ele>
        <time>2020-06-03T11:26:05Z</time>
      </trkpt>
      <trkpt lat="46.46583" lon="-1.73197">
        <ele>11.7</ele>
        <time>2020-06-03T11:26:06Z</time>
      </trkpt>
      <trkpt lat="46.46588" lon="-1.732">
        <ele>11.7</ele>
        <time>2020-06-03T11:26:07Z</time>
      </trkpt>
      <trkpt lat="46.46592" lon="-1.73204">
        <ele>11.7</ele>
        <time>2020-06-03T11:26:08Z</time>
      </trkpt>
      <trkpt lat="46.46594" lon="-1.7321">
        <ele>11.7</ele>
        <time>2020-06-03T11:26:09Z</time>
      </trkpt>
      <trkpt lat="46.46596" lon="-1.73216">
        <ele>11.7</ele>
        <time>2020-06-03T11:26:10Z</time>
      </trkpt>
      <trkpt lat="46.46599" lon="-1.73223">
        <ele>11.6</ele>
        <time>2020-06-03T11:26:11Z</time>
      </trkpt>
      <trkpt lat="46.46601" lon="-1.73231">
        <ele>11.6</ele>
        <time>2020-06-03T11:26:12Z</time>
      </trkpt>
      <trkpt lat="46.46603" lon="-1.73239">
        <ele>11.6</ele>
        <time>2020-06-03T11:26:13Z</time>
      </trkpt>
      <trkpt lat="46.46604" lon="-1.73247">
        <ele>11.6</ele>
        <time>2020-06-03T11:26:14Z</time>
      </trkpt>
      <trkpt lat="46.46605" lon="-1.73254">
        <ele>11.6</ele>
        <time>2020-06-03T11:26:15Z</time>
      </trkpt>
      <trkpt lat="46.46606" lon="-1.73263">
        <ele>11.6</ele>
        <time>2020-06-03T11:26:16Z</time>
      </trkpt>
      <trkpt lat="46.46609" lon="-1.73271">
        <ele>11.6</ele>
        <time>2020-06-03T11:26:17Z</time>
      </trkpt>
      <trkpt lat="46.4661" lon="-1.73279">
        <ele>11.6</ele>
        <time>2020-06-03T11:26:18Z</time>
      </trkpt>
      <trkpt lat="46.46613" lon="-1.73286">
        <ele>11.6</ele>
        <time>2020-06-03T11:26:19Z</time>
      </trkpt>
      <trkpt lat="46.46614" lon="-1.73294">
        <ele>11.5</ele>
        <time>2020-06-03T11:26:20Z</time>
      </trkpt>
      <trkpt lat="46.46616" lon="-1.73303">
        <ele>11.5</ele>
        <time>2020-06-03T11:26:21Z</time>
      </trkpt>
      <trkpt lat="46.46619" lon="-1.73311">
        <ele>11.5</ele>
        <time>2020-06-03T11:26:22Z</time>
      </trkpt>
      <trkpt lat="46.46621" lon="-1.7332">
        <ele>11.4</ele>
        <time>2020-06-03T11:26:23Z</time>
      </trkpt>
      <trkpt lat="46.46622" lon="-1.73328">
        <ele>11.4</ele>
        <time>2020-06-03T11:26:24Z</time>
      </trkpt>
      <trkpt lat="46.46625" lon="-1.73336">
        <ele>11.4</ele>
        <time>2020-06-03T11:26:25Z</time>
      </trkpt>
      <trkpt lat="46.46627" lon="-1.73345">
        <ele>11.4</ele>
        <time>2020-06-03T11:26:26Z</time>
      </trkpt>
      <trkpt lat="46.46629" lon="-1.73353">
        <ele>11.4</ele>
        <time>2020-06-03T11:26:27Z</time>
      </trkpt>
      <trkpt lat="46.4663" lon="-1.7336">
        <ele>11.4</ele>
        <time>2020-06-03T11:26:28Z</time>
      </trkpt>
      <trkpt lat="46.46632" lon="-1.73367">
        <ele>11.4</ele>
        <time>2020-06-03T11:26:29Z</time>
      </trkpt>
      <trkpt lat="46.46634" lon="-1.73375">
        <ele>11.4</ele>
        <time>2020-06-03T11:26:30Z</time>
      </trkpt>
      <trkpt lat="46.46636" lon="-1.73383">
        <ele>11.4</ele>
        <time>2020-06-03T11:26:31Z</time>
      </trkpt>
      <trkpt lat="46.46637" lon="-1.73391">
        <ele>11.4</ele>
        <time>2020-06-03T11:26:32Z</time>
      </trkpt>
      <trkpt lat="46.46639" lon="-1.734">
        <ele>11.3</ele>
        <time>2020-06-03T11:26:33Z</time>
      </trkpt>
      <trkpt lat="46.46641" lon="-1.73408">
        <ele>11.3</ele>
        <time>2020-06-03T11:26:34Z</time>
      </trkpt>
      <trkpt lat="46.46642" lon="-1.73416">
        <ele>11.3</ele>
        <time>2020-06-03T11:26:35Z</time>
      </trkpt>
      <trkpt lat="46.46644" lon="-1.73424">
        <ele>11.3</ele>
        <time>2020-06-03T11:26:36Z</time>
      </trkpt>
      <trkpt lat="46.46646" lon="-1.7343">
        <ele>11.3</ele>
        <time>2020-06-03T11:26:37Z</time>
      </trkpt>
      <trkpt lat="46.46648" lon="-1.73438">
        <ele>11.3</ele>
        <time>2020-06-03T11:26:38Z</time>
      </trkpt>
      <trkpt lat="46.46649" lon="-1.73445">
        <ele>11.3</ele>
        <time>2020-06-03T11:26:39Z</time>
      </trkpt>
      <trkpt lat="46.4665" lon="-1.73454">
        <ele>11.3</ele>
        <time>2020-06-03T11:26:40Z</time>
      </trkpt>
      <trkpt lat="46.46652" lon="-1.73461">
        <ele>11.3</ele>
        <time>2020-06-03T11:26:41Z</time>
      </trkpt>
      <trkpt lat="46.46654" lon="-1.73467">
        <ele>11.3</ele>
        <time>2020-06-03T11:26:42Z</time>
      </trkpt>
      <trkpt lat="46.46656" lon="-1.73474">
        <ele>11.3</ele>
        <time>2020-06-03T11:26:43Z</time>
      </trkpt>
      <trkpt lat="46.46657" lon="-1.7348">
        <ele>11.3</ele>
        <time>2020-06-03T11:26:44Z</time>
      </trkpt>
      <trkpt lat="46.46659" lon="-1.73487">
        <ele>11.3</ele>
        <time>2020-06-03T11:26:45Z</time>
      </trkpt>
      <trkpt lat="46.4666" lon="-1.73494">
        <ele>11.4</ele>
        <time>2020-06-03T11:26:46Z</time>
      </trkpt>
      <trkpt lat="46.46661" lon="-1.73501">
        <ele>11.4</ele>
        <time>2020-06-03T11:26:47Z</time>
      </trkpt>
      <trkpt lat="46.46663" lon="-1.73509">
        <ele>11.4</ele>
        <time>2020-06-03T11:26:48Z</time>
      </trkpt>
      <trkpt lat="46.46665" lon="-1.73516">
        <ele>11.4</ele>
        <time>2020-06-03T11:26:49Z</time>
      </trkpt>
      <trkpt lat="46.46666" lon="-1.73522">
        <ele>11.4</ele>
        <time>2020-06-03T11:26:50Z</time>
      </trkpt>
      <trkpt lat="46.46667" lon="-1.73528">
        <ele>11.3</ele>
        <time>2020-06-03T11:26:51Z</time>
      </trkpt>
      <trkpt lat="46.46669" lon="-1.73533">
        <ele>11.3</ele>
        <time>2020-06-03T11:26:52Z</time>
      </trkpt>
      <trkpt lat="46.4667" lon="-1.73538">
        <ele>11.3</ele>
        <time>2020-06-03T11:26:53Z</time>
      </trkpt>
      <trkpt lat="46.46671" lon="-1.73544">
        <ele>11.2</ele>
        <time>2020-06-03T11:26:54Z</time>
      </trkpt>
      <trkpt lat="46.46672" lon="-1.73549">
        <ele>11.2</ele>
        <time>2020-06-03T11:26:55Z</time>
      </trkpt>
      <trkpt lat="46.46673" lon="-1.73555">
        <ele>11.1</ele>
        <time>2020-06-03T11:26:56Z</time>
      </trkpt>
      <trkpt lat="46.46675" lon="-1.7356">
        <ele>11.1</ele>
        <time>2020-06-03T11:26:57Z</time>
      </trkpt>
      <trkpt lat="46.46676" lon="-1.73565">
        <ele>11</ele>
        <time>2020-06-03T11:26:58Z</time>
      </trkpt>
      <trkpt lat="46.46679" lon="-1.7357">
        <ele>10.9</ele>
        <time>2020-06-03T11:26:59Z</time>
      </trkpt>
      <trkpt lat="46.46682" lon="-1.73575">
        <ele>10.9</ele>
        <time>2020-06-03T11:27:00Z</time>
      </trkpt>
      <trkpt lat="46.46686" lon="-1.73579">
        <ele>10.8</ele>
        <time>2020-06-03T11:27:01Z</time>
      </trkpt>
      <trkpt lat="46.46689" lon="-1.73583">
        <ele>10.7</ele>
        <time>2020-06-03T11:27:02Z</time>
      </trkpt>
      <trkpt lat="46.46693" lon="-1.73589">
        <ele>10.6</ele>
        <time>2020-06-03T11:27:03Z</time>
      </trkpt>
      <trkpt lat="46.46697" lon="-1.73594">
        <ele>10.5</ele>
        <time>2020-06-03T11:27:04Z</time>
      </trkpt>
      <trkpt lat="46.46701" lon="-1.73599">
        <ele>10.4</ele>
        <time>2020-06-03T11:27:05Z</time>
      </trkpt>
      <trkpt lat="46.46705" lon="-1.73606">
        <ele>10.3</ele>
        <time>2020-06-03T11:27:06Z</time>
      </trkpt>
      <trkpt lat="46.46709" lon="-1.73612">
        <ele>10.2</ele>
        <time>2020-06-03T11:27:07Z</time>
      </trkpt>
      <trkpt lat="46.46712" lon="-1.73617">
        <ele>10.1</ele>
        <time>2020-06-03T11:27:08Z</time>
      </trkpt>
      <trkpt lat="46.46716" lon="-1.73622">
        <ele>10</ele>
        <time>2020-06-03T11:27:09Z</time>
      </trkpt>
      <trkpt lat="46.4672" lon="-1.73628">
        <ele>9.8</ele>
        <time>2020-06-03T11:27:10Z</time>
      </trkpt>
      <trkpt lat="46.46723" lon="-1.73633">
        <ele>9.7</ele>
        <time>2020-06-03T11:27:11Z</time>
      </trkpt>
      <trkpt lat="46.46726" lon="-1.73639">
        <ele>9.6</ele>
        <time>2020-06-03T11:27:12Z</time>
      </trkpt>
      <trkpt lat="46.46729" lon="-1.73645">
        <ele>9.5</ele>
        <time>2020-06-03T11:27:13Z</time>
      </trkpt>
      <trkpt lat="46.46733" lon="-1.7365">
        <ele>9.3</ele>
        <time>2020-06-03T11:27:14Z</time>
      </trkpt>
      <trkpt lat="46.46736" lon="-1.73655">
        <ele>9.1</ele>
        <time>2020-06-03T11:27:15Z</time>
      </trkpt>
      <trkpt lat="46.46738" lon="-1.73659">
        <ele>9</ele>
        <time>2020-06-03T11:27:16Z</time>
      </trkpt>
      <trkpt lat="46.4674" lon="-1.73664">
        <ele>8.9</ele>
        <time>2020-06-03T11:27:17Z</time>
      </trkpt>
      <trkpt lat="46.46743" lon="-1.73669">
        <ele>8.7</ele>
        <time>2020-06-03T11:27:18Z</time>
      </trkpt>
      <trkpt lat="46.46747" lon="-1.73674">
        <ele>8.5</ele>
        <time>2020-06-03T11:27:19Z</time>
      </trkpt>
      <trkpt lat="46.46751" lon="-1.73679">
        <ele>8.3</ele>
        <time>2020-06-03T11:27:20Z</time>
      </trkpt>
      <trkpt lat="46.46755" lon="-1.73683">
        <ele>8.1</ele>
        <time>2020-06-03T11:27:21Z</time>
      </trkpt>
      <trkpt lat="46.4676" lon="-1.73687">
        <ele>7.9</ele>
        <time>2020-06-03T11:27:22Z</time>
      </trkpt>
      <trkpt lat="46.46765" lon="-1.73687">
        <ele>7.8</ele>
        <time>2020-06-03T11:27:23Z</time>
      </trkpt>
      <trkpt lat="46.46771" lon="-1.73687">
        <ele>7.5</ele>
        <time>2020-06-03T11:27:24Z</time>
      </trkpt>
      <trkpt lat="46.46777" lon="-1.73687">
        <ele>7.3</ele>
        <time>2020-06-03T11:27:25Z</time>
      </trkpt>
      <trkpt lat="46.46784" lon="-1.73686">
        <ele>7.1</ele>
        <time>2020-06-03T11:27:26Z</time>
      </trkpt>
      <trkpt lat="46.46791" lon="-1.73685">
        <ele>6.8</ele>
        <time>2020-06-03T11:27:27Z</time>
      </trkpt>
      <trkpt lat="46.46799" lon="-1.73685">
        <ele>6.6</ele>
        <time>2020-06-03T11:27:28Z</time>
      </trkpt>
      <trkpt lat="46.46806" lon="-1.73685">
        <ele>6.6</ele>
        <time>2020-06-03T11:27:29Z</time>
      </trkpt>
      <trkpt lat="46.46813" lon="-1.73687">
        <ele>6.6</ele>
        <time>2020-06-03T11:27:30Z</time>
      </trkpt>
      <trkpt lat="46.4682" lon="-1.7369">
        <ele>6.6</ele>
        <time>2020-06-03T11:27:31Z</time>
      </trkpt>
      <trkpt lat="46.46826" lon="-1.73694">
        <ele>6.6</ele>
        <time>2020-06-03T11:27:32Z</time>
      </trkpt>
      <trkpt lat="46.46832" lon="-1.73702">
        <ele>6.6</ele>
        <time>2020-06-03T11:27:33Z</time>
      </trkpt>
      <trkpt lat="46.46837" lon="-1.7371">
        <ele>6.7</ele>
        <time>2020-06-03T11:27:34Z</time>
      </trkpt>
      <trkpt lat="46.46841" lon="-1.73718">
        <ele>6.7</ele>
        <time>2020-06-03T11:27:35Z</time>
      </trkpt>
      <trkpt lat="46.46845" lon="-1.73729">
        <ele>6.7</ele>
        <time>2020-06-03T11:27:36Z</time>
      </trkpt>
      <trkpt lat="46.46849" lon="-1.73738">
        <ele>6.8</ele>
        <time>2020-06-03T11:27:37Z</time>
      </trkpt>
      <trkpt lat="46.46851" lon="-1.7375">
        <ele>6.9</ele>
        <time>2020-06-03T11:27:38Z</time>
      </trkpt>
      <trkpt lat="46.46851" lon="-1.73761">
        <ele>7.2</ele>
        <time>2020-06-03T11:27:39Z</time>
      </trkpt>
      <trkpt lat="46.46851" lon="-1.73771">
        <ele>7.4</ele>
        <time>2020-06-03T11:27:40Z</time>
      </trkpt>
      <trkpt lat="46.4685" lon="-1.73779">
        <ele>7.6</ele>
        <time>2020-06-03T11:27:41Z</time>
      </trkpt>
      <trkpt lat="46.46847" lon="-1.73787">
        <ele>7.7</ele>
        <time>2020-06-03T11:27:42Z</time>
      </trkpt>
      <trkpt lat="46.46845" lon="-1.73795">
        <ele>7.9</ele>
        <time>2020-06-03T11:27:43Z</time>
      </trkpt>
      <trkpt lat="46.46843" lon="-1.73803">
        <ele>8</ele>
        <time>2020-06-03T11:27:44Z</time>
      </trkpt>
      <trkpt lat="46.46841" lon="-1.73811">
        <ele>8.2</ele>
        <time>2020-06-03T11:27:45Z</time>
      </trkpt>
      <trkpt lat="46.46838" lon="-1.73817">
        <ele>8.3</ele>
        <time>2020-06-03T11:27:46Z</time>
      </trkpt>
      <trkpt lat="46.46837" lon="-1.73825">
        <ele>8.4</ele>
        <time>2020-06-03T11:27:47Z</time>
      </trkpt>
      <trkpt lat="46.46837" lon="-1.73832">
        <ele>8.6</ele>
        <time>2020-06-03T11:27:48Z</time>
      </trkpt>
      <trkpt lat="46.46836" lon="-1.73839">
        <ele>8.7</ele>
        <time>2020-06-03T11:27:49Z</time>
      </trkpt>
      <trkpt lat="46.46835" lon="-1.73845">
        <ele>8.9</ele>
        <time>2020-06-03T11:27:50Z</time>
      </trkpt>
      <trkpt lat="46.46833" lon="-1.73851">
        <ele>9</ele>
        <time>2020-06-03T11:27:51Z</time>
      </trkpt>
      <trkpt lat="46.46832" lon="-1.73857">
        <ele>9.2</ele>
        <time>2020-06-03T11:27:52Z</time>
      </trkpt>
      <trkpt lat="46.46832" lon="-1.73863">
        <ele>9.3</ele>
        <time>2020-06-03T11:27:53Z</time>
      </trkpt>
      <trkpt lat="46.46831" lon="-1.73869">
        <ele>9.4</ele>
        <time>2020-06-03T11:27:54Z</time>
      </trkpt>
      <trkpt lat="46.46831" lon="-1.73876">
        <ele>9.5</ele>
        <time>2020-06-03T11:27:55Z</time>
      </trkpt>
      <trkpt lat="46.46831" lon="-1.73883">
        <ele>9.6</ele>
        <time>2020-06-03T11:27:56Z</time>
      </trkpt>
      <trkpt lat="46.46832" lon="-1.7389">
        <ele>9.7</ele>
        <time>2020-06-03T11:27:57Z</time>
      </trkpt>
      <trkpt lat="46.46833" lon="-1.73896">
        <ele>9.8</ele>
        <time>2020-06-03T11:27:58Z</time>
      </trkpt>
      <trkpt lat="46.46836" lon="-1.73904">
        <ele>9.9</ele>
        <time>2020-06-03T11:27:59Z</time>
      </trkpt>
      <trkpt lat="46.46838" lon="-1.73911">
        <ele>10</ele>
        <time>2020-06-03T11:28:00Z</time>
      </trkpt>
      <trkpt lat="46.46839" lon="-1.73918">
        <ele>10.1</ele>
        <time>2020-06-03T11:28:01Z</time>
      </trkpt>
      <trkpt lat="46.46841" lon="-1.73924">
        <ele>10.1</ele>
        <time>2020-06-03T11:28:02Z</time>
      </trkpt>
      <trkpt lat="46.46842" lon="-1.73931">
        <ele>10.2</ele>
        <time>2020-06-03T11:28:03Z</time>
      </trkpt>
      <trkpt lat="46.46844" lon="-1.73938">
        <ele>10.2</ele>
        <time>2020-06-03T11:28:04Z</time>
      </trkpt>
      <trkpt lat="46.46845" lon="-1.73945">
        <ele>10.3</ele>
        <time>2020-06-03T11:28:05Z</time>
      </trkpt>
      <trkpt lat="46.46846" lon="-1.73952">
        <ele>10.3</ele>
        <time>2020-06-03T11:28:06Z</time>
      </trkpt>
      <trkpt lat="46.46847" lon="-1.73958">
        <ele>10.4</ele>
        <time>2020-06-03T11:28:07Z</time>
      </trkpt>
      <trkpt lat="46.46848" lon="-1.73964">
        <ele>10.5</ele>
        <time>2020-06-03T11:28:08Z</time>
      </trkpt>
      <trkpt lat="46.46848" lon="-1.73971">
        <ele>10.6</ele>
        <time>2020-06-03T11:28:09Z</time>
      </trkpt>
      <trkpt lat="46.46849" lon="-1.73978">
        <ele>10.7</ele>
        <time>2020-06-03T11:28:10Z</time>
      </trkpt>
      <trkpt lat="46.46849" lon="-1.73985">
        <ele>10.8</ele>
        <time>2020-06-03T11:28:11Z</time>
      </trkpt>
      <trkpt lat="46.46849" lon="-1.73991">
        <ele>10.8</ele>
        <time>2020-06-03T11:28:12Z</time>
      </trkpt>
      <trkpt lat="46.46849" lon="-1.73997">
        <ele>10.9</ele>
        <time>2020-06-03T11:28:13Z</time>
      </trkpt>
      <trkpt lat="46.46849" lon="-1.74003">
        <ele>10.9</ele>
        <time>2020-06-03T11:28:14Z</time>
      </trkpt>
      <trkpt lat="46.46849" lon="-1.74008">
        <ele>11</ele>
        <time>2020-06-03T11:28:15Z</time>
      </trkpt>
      <trkpt lat="46.46849" lon="-1.74014">
        <ele>11</ele>
        <time>2020-06-03T11:28:16Z</time>
      </trkpt>
      <trkpt lat="46.46849" lon="-1.7402">
        <ele>11</ele>
        <time>2020-06-03T11:28:17Z</time>
      </trkpt>
      <trkpt lat="46.4685" lon="-1.74025">
        <ele>11.1</ele>
        <time>2020-06-03T11:28:18Z</time>
      </trkpt>
      <trkpt lat="46.4685" lon="-1.7403">
        <ele>11.1</ele>
        <time>2020-06-03T11:28:19Z</time>
      </trkpt>
      <trkpt lat="46.46851" lon="-1.74036">
        <ele>11.1</ele>
        <time>2020-06-03T11:28:20Z</time>
      </trkpt>
      <trkpt lat="46.46852" lon="-1.74042">
        <ele>11.1</ele>
        <time>2020-06-03T11:28:21Z</time>
      </trkpt>
      <trkpt lat="46.46853" lon="-1.74048">
        <ele>11.1</ele>
        <time>2020-06-03T11:28:22Z</time>
      </trkpt>
      <trkpt lat="46.46853" lon="-1.74053">
        <ele>11.1</ele>
        <time>2020-06-03T11:28:23Z</time>
      </trkpt>
      <trkpt lat="46.46855" lon="-1.74059">
        <ele>11.1</ele>
        <time>2020-06-03T11:28:24Z</time>
      </trkpt>
      <trkpt lat="46.46857" lon="-1.74063">
        <ele>11.1</ele>
        <time>2020-06-03T11:28:25Z</time>
      </trkpt>
      <trkpt lat="46.46858" lon="-1.74069">
        <ele>11.1</ele>
        <time>2020-06-03T11:28:26Z</time>
      </trkpt>
      <trkpt lat="46.4686" lon="-1.74076">
        <ele>11.1</ele>
        <time>2020-06-03T11:28:27Z</time>
      </trkpt>
      <trkpt lat="46.46861" lon="-1.74081">
        <ele>11.1</ele>
        <time>2020-06-03T11:28:28Z</time>
      </trkpt>
      <trkpt lat="46.46863" lon="-1.74086">
        <ele>11.1</ele>
        <time>2020-06-03T11:28:29Z</time>
      </trkpt>
      <trkpt lat="46.46865" lon="-1.74092">
        <ele>11.1</ele>
        <time>2020-06-03T11:28:30Z</time>
      </trkpt>
      <trkpt lat="46.46866" lon="-1.74097">
        <ele>11</ele>
        <time>2020-06-03T11:28:31Z</time>
      </trkpt>
      <trkpt lat="46.46868" lon="-1.74103">
        <ele>11</ele>
        <time>2020-06-03T11:28:32Z</time>
      </trkpt>
      <trkpt lat="46.46871" lon="-1.74108">
        <ele>11</ele>
        <time>2020-06-03T11:28:33Z</time>
      </trkpt>
      <trkpt lat="46.46873" lon="-1.74113">
        <ele>11</ele>
        <time>2020-06-03T11:28:34Z</time>
      </trkpt>
      <trkpt lat="46.46875" lon="-1.74118">
        <ele>11</ele>
        <time>2020-06-03T11:28:35Z</time>
      </trkpt>
      <trkpt lat="46.46878" lon="-1.74122">
        <ele>11</ele>
        <time>2020-06-03T11:28:36Z</time>
      </trkpt>
      <trkpt lat="46.46881" lon="-1.74128">
        <ele>11</ele>
        <time>2020-06-03T11:28:37Z</time>
      </trkpt>
      <trkpt lat="46.46884" lon="-1.74132">
        <ele>11</ele>
        <time>2020-06-03T11:28:38Z</time>
      </trkpt>
      <trkpt lat="46.46888" lon="-1.74137">
        <ele>11</ele>
        <time>2020-06-03T11:28:39Z</time>
      </trkpt>
      <trkpt lat="46.46892" lon="-1.74142">
        <ele>11</ele>
        <time>2020-06-03T11:28:40Z</time>
      </trkpt>
      <trkpt lat="46.46896" lon="-1.74146">
        <ele>11</ele>
        <time>2020-06-03T11:28:41Z</time>
      </trkpt>
      <trkpt lat="46.46899" lon="-1.74149">
        <ele>11</ele>
        <time>2020-06-03T11:28:42Z</time>
      </trkpt>
      <trkpt lat="46.46903" lon="-1.74152">
        <ele>11</ele>
        <time>2020-06-03T11:28:43Z</time>
      </trkpt>
      <trkpt lat="46.46906" lon="-1.74154">
        <ele>11</ele>
        <time>2020-06-03T11:28:44Z</time>
      </trkpt>
      <trkpt lat="46.4691" lon="-1.74158">
        <ele>11</ele>
        <time>2020-06-03T11:28:45Z</time>
      </trkpt>
      <trkpt lat="46.46914" lon="-1.74161">
        <ele>10.9</ele>
        <time>2020-06-03T11:28:46Z</time>
      </trkpt>
      <trkpt lat="46.46919" lon="-1.74164">
        <ele>10.9</ele>
        <time>2020-06-03T11:28:47Z</time>
      </trkpt>
      <trkpt lat="46.46923" lon="-1.74166">
        <ele>10.9</ele>
        <time>2020-06-03T11:28:48Z</time>
      </trkpt>
      <trkpt lat="46.46927" lon="-1.74168">
        <ele>11</ele>
        <time>2020-06-03T11:28:49Z</time>
      </trkpt>
      <trkpt lat="46.46931" lon="-1.7417">
        <ele>11</ele>
        <time>2020-06-03T11:28:50Z</time>
      </trkpt>
      <trkpt lat="46.46936" lon="-1.74172">
        <ele>11</ele>
        <time>2020-06-03T11:28:51Z</time>
      </trkpt>
      <trkpt lat="46.46939" lon="-1.74174">
        <ele>11</ele>
        <time>2020-06-03T11:28:52Z</time>
      </trkpt>
      <trkpt lat="46.46944" lon="-1.74176">
        <ele>11</ele>
        <time>2020-06-03T11:28:53Z</time>
      </trkpt>
      <trkpt lat="46.46948" lon="-1.74178">
        <ele>11</ele>
        <time>2020-06-03T11:28:54Z</time>
      </trkpt>
      <trkpt lat="46.46952" lon="-1.7418">
        <ele>11</ele>
        <time>2020-06-03T11:28:55Z</time>
      </trkpt>
      <trkpt lat="46.46956" lon="-1.74182">
        <ele>11</ele>
        <time>2020-06-03T11:28:56Z</time>
      </trkpt>
      <trkpt lat="46.4696" lon="-1.74184">
        <ele>11.1</ele>
        <time>2020-06-03T11:28:57Z</time>
      </trkpt>
      <trkpt lat="46.46964" lon="-1.74187">
        <ele>11.1</ele>
        <time>2020-06-03T11:28:58Z</time>
      </trkpt>
      <trkpt lat="46.46968" lon="-1.74189">
        <ele>11.1</ele>
        <time>2020-06-03T11:28:59Z</time>
      </trkpt>
      <trkpt lat="46.46973" lon="-1.74191">
        <ele>11.1</ele>
        <time>2020-06-03T11:29:00Z</time>
      </trkpt>
      <trkpt lat="46.46977" lon="-1.74192">
        <ele>11.1</ele>
        <time>2020-06-03T11:29:01Z</time>
      </trkpt>
      <trkpt lat="46.46981" lon="-1.74194">
        <ele>11.1</ele>
        <time>2020-06-03T11:29:02Z</time>
      </trkpt>
      <trkpt lat="46.46985" lon="-1.74196">
        <ele>11.2</ele>
        <time>2020-06-03T11:29:03Z</time>
      </trkpt>
      <trkpt lat="46.4699" lon="-1.74199">
        <ele>11.2</ele>
        <time>2020-06-03T11:29:04Z</time>
      </trkpt>
      <trkpt lat="46.46994" lon="-1.74202">
        <ele>11.2</ele>
        <time>2020-06-03T11:29:05Z</time>
      </trkpt>
      <trkpt lat="46.46998" lon="-1.74206">
        <ele>11.2</ele>
        <time>2020-06-03T11:29:06Z</time>
      </trkpt>
      <trkpt lat="46.47002" lon="-1.74211">
        <ele>11.2</ele>
        <time>2020-06-03T11:29:07Z</time>
      </trkpt>
      <trkpt lat="46.47006" lon="-1.74216">
        <ele>11.3</ele>
        <time>2020-06-03T11:29:08Z</time>
      </trkpt>
      <trkpt lat="46.4701" lon="-1.74221">
        <ele>11.3</ele>
        <time>2020-06-03T11:29:09Z</time>
      </trkpt>
      <trkpt lat="46.47013" lon="-1.74226">
        <ele>11.3</ele>
        <time>2020-06-03T11:29:10Z</time>
      </trkpt>
      <trkpt lat="46.47016" lon="-1.7423">
        <ele>11.3</ele>
        <time>2020-06-03T11:29:11Z</time>
      </trkpt>
      <trkpt lat="46.4702" lon="-1.74234">
        <ele>11.3</ele>
        <time>2020-06-03T11:29:12Z</time>
      </trkpt>
      <trkpt lat="46.47023" lon="-1.74238">
        <ele>11.3</ele>
        <time>2020-06-03T11:29:13Z</time>
      </trkpt>
      <trkpt lat="46.47027" lon="-1.74242">
        <ele>11.3</ele>
        <time>2020-06-03T11:29:14Z</time>
      </trkpt>
      <trkpt lat="46.4703" lon="-1.74246">
        <ele>11.3</ele>
        <time>2020-06-03T11:29:15Z</time>
      </trkpt>
      <trkpt lat="46.47034" lon="-1.7425">
        <ele>11.2</ele>
        <time>2020-06-03T11:29:16Z</time>
      </trkpt>
      <trkpt lat="46.47037" lon="-1.74254">
        <ele>11.2</ele>
        <time>2020-06-03T11:29:17Z</time>
      </trkpt>
      <trkpt lat="46.4704" lon="-1.74259">
        <ele>11.2</ele>
        <time>2020-06-03T11:29:18Z</time>
      </trkpt>
      <trkpt lat="46.47043" lon="-1.74264">
        <ele>11.1</ele>
        <time>2020-06-03T11:29:19Z</time>
      </trkpt>
      <trkpt lat="46.47047" lon="-1.74268">
        <ele>11.1</ele>
        <time>2020-06-03T11:29:20Z</time>
      </trkpt>
      <trkpt lat="46.4705" lon="-1.74273">
        <ele>11</ele>
        <time>2020-06-03T11:29:21Z</time>
      </trkpt>
      <trkpt lat="46.47053" lon="-1.74277">
        <ele>11</ele>
        <time>2020-06-03T11:29:22Z</time>
      </trkpt>
      <trkpt lat="46.47058" lon="-1.74283">
        <ele>10.9</ele>
        <time>2020-06-03T11:29:23Z</time>
      </trkpt>
      <trkpt lat="46.47061" lon="-1.74288">
        <ele>10.9</ele>
        <time>2020-06-03T11:29:24Z</time>
      </trkpt>
      <trkpt lat="46.47064" lon="-1.74294">
        <ele>10.8</ele>
        <time>2020-06-03T11:29:25Z</time>
      </trkpt>
      <trkpt lat="46.47067" lon="-1.74298">
        <ele>10.8</ele>
        <time>2020-06-03T11:29:26Z</time>
      </trkpt>
      <trkpt lat="46.4707" lon="-1.74303">
        <ele>10.8</ele>
        <time>2020-06-03T11:29:27Z</time>
      </trkpt>
      <trkpt lat="46.47073" lon="-1.74308">
        <ele>10.8</ele>
        <time>2020-06-03T11:29:28Z</time>
      </trkpt>
      <trkpt lat="46.47076" lon="-1.74313">
        <ele>10.8</ele>
        <time>2020-06-03T11:29:29Z</time>
      </trkpt>
      <trkpt lat="46.47078" lon="-1.74318">
        <ele>10.8</ele>
        <time>2020-06-03T11:29:30Z</time>
      </trkpt>
      <trkpt lat="46.4708" lon="-1.74321">
        <ele>10.8</ele>
        <time>2020-06-03T11:29:31Z</time>
      </trkpt>
      <trkpt lat="46.47082" lon="-1.74325">
        <ele>10.8</ele>
        <time>2020-06-03T11:29:32Z</time>
      </trkpt>
      <trkpt lat="46.47085" lon="-1.74329">
        <ele>10.8</ele>
        <time>2020-06-03T11:29:33Z</time>
      </trkpt>
      <trkpt lat="46.47088" lon="-1.74334">
        <ele>10.8</ele>
        <time>2020-06-03T11:29:34Z</time>
      </trkpt>
      <trkpt lat="46.47091" lon="-1.74338">
        <ele>10.8</ele>
        <time>2020-06-03T11:29:35Z</time>
      </trkpt>
      <trkpt lat="46.47093" lon="-1.74341">
        <ele>10.8</ele>
        <time>2020-06-03T11:29:36Z</time>
      </trkpt>
      <trkpt lat="46.47094" lon="-1.74344">
        <ele>10.8</ele>
        <time>2020-06-03T11:29:37Z</time>
      </trkpt>
      <trkpt lat="46.47096" lon="-1.74348">
        <ele>10.8</ele>
        <time>2020-06-03T11:29:38Z</time>
      </trkpt>
      <trkpt lat="46.47099" lon="-1.74351">
        <ele>10.8</ele>
        <time>2020-06-03T11:29:39Z</time>
      </trkpt>
      <trkpt lat="46.47101" lon="-1.74354">
        <ele>10.8</ele>
        <time>2020-06-03T11:29:40Z</time>
      </trkpt>
      <trkpt lat="46.47103" lon="-1.74358">
        <ele>10.8</ele>
        <time>2020-06-03T11:29:41Z</time>
      </trkpt>
      <trkpt lat="46.47106" lon="-1.74361">
        <ele>10.8</ele>
        <time>2020-06-03T11:29:42Z</time>
      </trkpt>
      <trkpt lat="46.47108" lon="-1.74365">
        <ele>10.8</ele>
        <time>2020-06-03T11:29:43Z</time>
      </trkpt>
      <trkpt lat="46.47111" lon="-1.74369">
        <ele>10.7</ele>
        <time>2020-06-03T11:29:44Z</time>
      </trkpt>
      <trkpt lat="46.47112" lon="-1.74371">
        <ele>10.7</ele>
        <time>2020-06-03T11:29:45Z</time>
      </trkpt>
      <trkpt lat="46.47114" lon="-1.74375">
        <ele>10.7</ele>
        <time>2020-06-03T11:29:46Z</time>
      </trkpt>
      <trkpt lat="46.47116" lon="-1.74378">
        <ele>10.7</ele>
        <time>2020-06-03T11:29:47Z</time>
      </trkpt>
      <trkpt lat="46.47119" lon="-1.74383">
        <ele>10.7</ele>
        <time>2020-06-03T11:29:48Z</time>
      </trkpt>
      <trkpt lat="46.47121" lon="-1.74386">
        <ele>10.7</ele>
        <time>2020-06-03T11:29:49Z</time>
      </trkpt>
      <trkpt lat="46.47123" lon="-1.74389">
        <ele>10.7</ele>
        <time>2020-06-03T11:29:50Z</time>
      </trkpt>
      <trkpt lat="46.47126" lon="-1.74393">
        <ele>10.7</ele>
        <time>2020-06-03T11:29:51Z</time>
      </trkpt>
      <trkpt lat="46.47127" lon="-1.74396">
        <ele>10.7</ele>
        <time>2020-06-03T11:29:52Z</time>
      </trkpt>
      <trkpt lat="46.47129" lon="-1.744">
        <ele>10.7</ele>
        <time>2020-06-03T11:29:53Z</time>
      </trkpt>
      <trkpt lat="46.47132" lon="-1.74404">
        <ele>10.7</ele>
        <time>2020-06-03T11:29:54Z</time>
      </trkpt>
      <trkpt lat="46.47133" lon="-1.74409">
        <ele>10.7</ele>
        <time>2020-06-03T11:29:55Z</time>
      </trkpt>
      <trkpt lat="46.47135" lon="-1.74413">
        <ele>10.7</ele>
        <time>2020-06-03T11:29:56Z</time>
      </trkpt>
      <trkpt lat="46.47138" lon="-1.74418">
        <ele>10.7</ele>
        <time>2020-06-03T11:29:57Z</time>
      </trkpt>
      <trkpt lat="46.4714" lon="-1.74424">
        <ele>10.7</ele>
        <time>2020-06-03T11:29:58Z</time>
      </trkpt>
      <trkpt lat="46.47143" lon="-1.74429">
        <ele>10.7</ele>
        <time>2020-06-03T11:29:59Z</time>
      </trkpt>
      <trkpt lat="46.47146" lon="-1.74434">
        <ele>10.7</ele>
        <time>2020-06-03T11:30:00Z</time>
      </trkpt>
      <trkpt lat="46.47149" lon="-1.74439">
        <ele>10.7</ele>
        <time>2020-06-03T11:30:01Z</time>
      </trkpt>
      <trkpt lat="46.47151" lon="-1.74444">
        <ele>10.7</ele>
        <time>2020-06-03T11:30:02Z</time>
      </trkpt>
      <trkpt lat="46.47154" lon="-1.74449">
        <ele>10.7</ele>
        <time>2020-06-03T11:30:03Z</time>
      </trkpt>
      <trkpt lat="46.47157" lon="-1.74454">
        <ele>10.7</ele>
        <time>2020-06-03T11:30:04Z</time>
      </trkpt>
      <trkpt lat="46.4716" lon="-1.74459">
        <ele>10.7</ele>
        <time>2020-06-03T11:30:05Z</time>
      </trkpt>
      <trkpt lat="46.47163" lon="-1.74464">
        <ele>10.7</ele>
        <time>2020-06-03T11:30:06Z</time>
      </trkpt>
      <trkpt lat="46.47166" lon="-1.7447">
        <ele>10.7</ele>
        <time>2020-06-03T11:30:07Z</time>
      </trkpt>
      <trkpt lat="46.47169" lon="-1.74476">
        <ele>10.7</ele>
        <time>2020-06-03T11:30:08Z</time>
      </trkpt>
      <trkpt lat="46.47172" lon="-1.74481">
        <ele>10.7</ele>
        <time>2020-06-03T11:30:09Z</time>
      </trkpt>
      <trkpt lat="46.47174" lon="-1.74485">
        <ele>10.6</ele>
        <time>2020-06-03T11:30:10Z</time>
      </trkpt>
      <trkpt lat="46.47176" lon="-1.7449">
        <ele>10.6</ele>
        <time>2020-06-03T11:30:11Z</time>
      </trkpt>
      <trkpt lat="46.47178" lon="-1.74495">
        <ele>10.6</ele>
        <time>2020-06-03T11:30:12Z</time>
      </trkpt>
      <trkpt lat="46.47181" lon="-1.745">
        <ele>10.6</ele>
        <time>2020-06-03T11:30:13Z</time>
      </trkpt>
      <trkpt lat="46.47184" lon="-1.74504">
        <ele>10.6</ele>
        <time>2020-06-03T11:30:14Z</time>
      </trkpt>
      <trkpt lat="46.47186" lon="-1.74508">
        <ele>10.6</ele>
        <time>2020-06-03T11:30:15Z</time>
      </trkpt>
      <trkpt lat="46.47189" lon="-1.74513">
        <ele>10.6</ele>
        <time>2020-06-03T11:30:16Z</time>
      </trkpt>
      <trkpt lat="46.47191" lon="-1.74517">
        <ele>10.6</ele>
        <time>2020-06-03T11:30:17Z</time>
      </trkpt>
      <trkpt lat="46.47192" lon="-1.74521">
        <ele>10.6</ele>
        <time>2020-06-03T11:30:18Z</time>
      </trkpt>
      <trkpt lat="46.47194" lon="-1.74525">
        <ele>10.6</ele>
        <time>2020-06-03T11:30:19Z</time>
      </trkpt>
      <trkpt lat="46.47196" lon="-1.74529">
        <ele>10.6</ele>
        <time>2020-06-03T11:30:20Z</time>
      </trkpt>
      <trkpt lat="46.47198" lon="-1.74534">
        <ele>10.6</ele>
        <time>2020-06-03T11:30:21Z</time>
      </trkpt>
      <trkpt lat="46.47198" lon="-1.74535">
        <ele>10.6</ele>
        <time>2020-06-03T11:30:22Z</time>
      </trkpt>
      <trkpt lat="46.47198" lon="-1.74536">
        <ele>10.6</ele>
        <time>2020-06-03T11:30:23Z</time>
      </trkpt>
      <trkpt lat="46.47198" lon="-1.74536">
        <ele>10.6</ele>
        <time>2020-06-03T11:30:24Z</time>
      </trkpt>
      <trkpt lat="46.47197" lon="-1.74535">
        <ele>10.6</ele>
        <time>2020-06-03T11:30:25Z</time>
      </trkpt>
      <trkpt lat="46.47197" lon="-1.74535">
        <ele>10.6</ele>
        <time>2020-06-03T11:30:26Z</time>
      </trkpt>
      <trkpt lat="46.47197" lon="-1.74535">
        <ele>10.6</ele>
        <time>2020-06-03T11:30:27Z</time>
      </trkpt>
      <trkpt lat="46.47197" lon="-1.74536">
        <ele>10.6</ele>
        <time>2020-06-03T11:30:28Z</time>
      </trkpt>
      <trkpt lat="46.47198" lon="-1.74535">
        <ele>10.6</ele>
        <time>2020-06-03T11:30:29Z</time>
      </trkpt>
      <trkpt lat="46.47198" lon="-1.74535">
        <ele>10.6</ele>
        <time>2020-06-03T11:30:30Z</time>
      </trkpt>
      <trkpt lat="46.47198" lon="-1.74535">
        <ele>10.6</ele>
        <time>2020-06-03T11:30:31Z</time>
      </trkpt>
      <trkpt lat="46.47198" lon="-1.74535">
        <ele>10.6</ele>
        <time>2020-06-03T11:30:32Z</time>
      </trkpt>
      <trkpt lat="46.47198" lon="-1.74535">
        <ele>10.6</ele>
        <time>2020-06-03T11:30:33Z</time>
      </trkpt>
      <trkpt lat="46.47198" lon="-1.74535">
        <ele>10.6</ele>
        <time>2020-06-03T11:30:34Z</time>
      </trkpt>
      <trkpt lat="46.47199" lon="-1.74533">
        <ele>10.6</ele>
        <time>2020-06-03T11:30:35Z</time>
      </trkpt>
      <trkpt lat="46.47199" lon="-1.74534">
        <ele>10.6</ele>
        <time>2020-06-03T11:30:36Z</time>
      </trkpt>
      <trkpt lat="46.47199" lon="-1.74534">
        <ele>10.6</ele>
        <time>2020-06-03T11:30:37Z</time>
      </trkpt>
      <trkpt lat="46.47199" lon="-1.74533">
        <ele>10.6</ele>
        <time>2020-06-03T11:30:38Z</time>
      </trkpt>
      <trkpt lat="46.47199" lon="-1.74533">
        <ele>10.6</ele>
        <time>2020-06-03T11:30:39Z</time>
      </trkpt>
      <trkpt lat="46.47203" lon="-1.74542">
        <ele>10.7</ele>
        <time>2020-06-03T11:32:49Z</time>
      </trkpt>
      <trkpt lat="46.47204" lon="-1.74544">
        <ele>10.7</ele>
        <time>2020-06-03T11:32:50Z</time>
      </trkpt>
      <trkpt lat="46.47206" lon="-1.74549">
        <ele>10.7</ele>
        <time>2020-06-03T11:32:51Z</time>
      </trkpt>
      <trkpt lat="46.47207" lon="-1.7455">
        <ele>10.8</ele>
        <time>2020-06-03T11:32:52Z</time>
      </trkpt>
      <trkpt lat="46.47209" lon="-1.74555">
        <ele>10.8</ele>
        <time>2020-06-03T11:32:53Z</time>
      </trkpt>
      <trkpt lat="46.47211" lon="-1.74558">
        <ele>10.8</ele>
        <time>2020-06-03T11:32:54Z</time>
      </trkpt>
      <trkpt lat="46.47213" lon="-1.74563">
        <ele>10.9</ele>
        <time>2020-06-03T11:32:55Z</time>
      </trkpt>
      <trkpt lat="46.47213" lon="-1.74564">
        <ele>10.9</ele>
        <time>2020-06-03T11:32:56Z</time>
      </trkpt>
      <trkpt lat="46.47216" lon="-1.74567">
        <ele>10.9</ele>
        <time>2020-06-03T11:32:57Z</time>
      </trkpt>
      <trkpt lat="46.47218" lon="-1.74571">
        <ele>11</ele>
        <time>2020-06-03T11:32:58Z</time>
      </trkpt>
      <trkpt lat="46.4722" lon="-1.74576">
        <ele>11</ele>
        <time>2020-06-03T11:32:59Z</time>
      </trkpt>
      <trkpt lat="46.47222" lon="-1.74581">
        <ele>11.1</ele>
        <time>2020-06-03T11:33:00Z</time>
      </trkpt>
      <trkpt lat="46.47224" lon="-1.74586">
        <ele>11.1</ele>
        <time>2020-06-03T11:33:01Z</time>
      </trkpt>
      <trkpt lat="46.47227" lon="-1.74591">
        <ele>11.2</ele>
        <time>2020-06-03T11:33:02Z</time>
      </trkpt>
      <trkpt lat="46.4723" lon="-1.74595">
        <ele>11.2</ele>
        <time>2020-06-03T11:33:03Z</time>
      </trkpt>
      <trkpt lat="46.47232" lon="-1.746">
        <ele>11.2</ele>
        <time>2020-06-03T11:33:04Z</time>
      </trkpt>
      <trkpt lat="46.47234" lon="-1.74605">
        <ele>11.2</ele>
        <time>2020-06-03T11:33:05Z</time>
      </trkpt>
      <trkpt lat="46.47236" lon="-1.74609">
        <ele>11.2</ele>
        <time>2020-06-03T11:33:06Z</time>
      </trkpt>
      <trkpt lat="46.47239" lon="-1.74613">
        <ele>11.2</ele>
        <time>2020-06-03T11:33:07Z</time>
      </trkpt>
      <trkpt lat="46.47241" lon="-1.74617">
        <ele>11.2</ele>
        <time>2020-06-03T11:33:08Z</time>
      </trkpt>
      <trkpt lat="46.47243" lon="-1.7462">
        <ele>11.2</ele>
        <time>2020-06-03T11:33:09Z</time>
      </trkpt>
      <trkpt lat="46.47246" lon="-1.74624">
        <ele>11.2</ele>
        <time>2020-06-03T11:33:10Z</time>
      </trkpt>
      <trkpt lat="46.47247" lon="-1.74629">
        <ele>11.1</ele>
        <time>2020-06-03T11:33:11Z</time>
      </trkpt>
      <trkpt lat="46.47249" lon="-1.74633">
        <ele>11.1</ele>
        <time>2020-06-03T11:33:12Z</time>
      </trkpt>
      <trkpt lat="46.4725" lon="-1.74635">
        <ele>11.1</ele>
        <time>2020-06-03T11:33:13Z</time>
      </trkpt>
      <trkpt lat="46.47252" lon="-1.74639">
        <ele>11.1</ele>
        <time>2020-06-03T11:33:14Z</time>
      </trkpt>
      <trkpt lat="46.47252" lon="-1.7464">
        <ele>11.1</ele>
        <time>2020-06-03T11:33:15Z</time>
      </trkpt>
      <trkpt lat="46.47255" lon="-1.74644">
        <ele>11.1</ele>
        <time>2020-06-03T11:33:16Z</time>
      </trkpt>
      <trkpt lat="46.47255" lon="-1.74645">
        <ele>11.1</ele>
        <time>2020-06-03T11:33:17Z</time>
      </trkpt>
      <trkpt lat="46.47258" lon="-1.74649">
        <ele>11.1</ele>
        <time>2020-06-03T11:33:18Z</time>
      </trkpt>
      <trkpt lat="46.47259" lon="-1.74651">
        <ele>11.1</ele>
        <time>2020-06-03T11:33:19Z</time>
      </trkpt>
      <trkpt lat="46.47263" lon="-1.74654">
        <ele>11.1</ele>
        <time>2020-06-03T11:33:20Z</time>
      </trkpt>
      <trkpt lat="46.47264" lon="-1.74656">
        <ele>11.1</ele>
        <time>2020-06-03T11:33:21Z</time>
      </trkpt>
      <trkpt lat="46.47266" lon="-1.74659">
        <ele>11.1</ele>
        <time>2020-06-03T11:33:22Z</time>
      </trkpt>
      <trkpt lat="46.47268" lon="-1.74662">
        <ele>11.1</ele>
        <time>2020-06-03T11:33:23Z</time>
      </trkpt>
      <trkpt lat="46.4727" lon="-1.74665">
        <ele>11.1</ele>
        <time>2020-06-03T11:33:24Z</time>
      </trkpt>
      <trkpt lat="46.47274" lon="-1.74669">
        <ele>11</ele>
        <time>2020-06-03T11:33:25Z</time>
      </trkpt>
      <trkpt lat="46.47277" lon="-1.74673">
        <ele>11</ele>
        <time>2020-06-03T11:33:26Z</time>
      </trkpt>
      <trkpt lat="46.4728" lon="-1.74677">
        <ele>11</ele>
        <time>2020-06-03T11:33:27Z</time>
      </trkpt>
      <trkpt lat="46.47283" lon="-1.74682">
        <ele>11</ele>
        <time>2020-06-03T11:33:28Z</time>
      </trkpt>
      <trkpt lat="46.47286" lon="-1.74686">
        <ele>11</ele>
        <time>2020-06-03T11:33:29Z</time>
      </trkpt>
      <trkpt lat="46.4729" lon="-1.74691">
        <ele>11</ele>
        <time>2020-06-03T11:33:30Z</time>
      </trkpt>
      <trkpt lat="46.47293" lon="-1.74696">
        <ele>11</ele>
        <time>2020-06-03T11:33:31Z</time>
      </trkpt>
      <trkpt lat="46.47297" lon="-1.74701">
        <ele>11</ele>
        <time>2020-06-03T11:33:32Z</time>
      </trkpt>
      <trkpt lat="46.473" lon="-1.74706">
        <ele>11</ele>
        <time>2020-06-03T11:33:33Z</time>
      </trkpt>
      <trkpt lat="46.47303" lon="-1.74711">
        <ele>11</ele>
        <time>2020-06-03T11:33:34Z</time>
      </trkpt>
      <trkpt lat="46.47306" lon="-1.74715">
        <ele>11</ele>
        <time>2020-06-03T11:33:35Z</time>
      </trkpt>
      <trkpt lat="46.47309" lon="-1.74721">
        <ele>11</ele>
        <time>2020-06-03T11:33:36Z</time>
      </trkpt>
      <trkpt lat="46.47313" lon="-1.74727">
        <ele>11</ele>
        <time>2020-06-03T11:33:37Z</time>
      </trkpt>
      <trkpt lat="46.47316" lon="-1.74732">
        <ele>11</ele>
        <time>2020-06-03T11:33:38Z</time>
      </trkpt>
      <trkpt lat="46.47319" lon="-1.74737">
        <ele>11</ele>
        <time>2020-06-03T11:33:39Z</time>
      </trkpt>
      <trkpt lat="46.47323" lon="-1.74743">
        <ele>11</ele>
        <time>2020-06-03T11:33:40Z</time>
      </trkpt>
      <trkpt lat="46.47327" lon="-1.74748">
        <ele>11</ele>
        <time>2020-06-03T11:33:41Z</time>
      </trkpt>
      <trkpt lat="46.4733" lon="-1.74754">
        <ele>11</ele>
        <time>2020-06-03T11:33:42Z</time>
      </trkpt>
      <trkpt lat="46.47333" lon="-1.74759">
        <ele>11</ele>
        <time>2020-06-03T11:33:43Z</time>
      </trkpt>
      <trkpt lat="46.47336" lon="-1.74765">
        <ele>11</ele>
        <time>2020-06-03T11:33:44Z</time>
      </trkpt>
      <trkpt lat="46.4734" lon="-1.74771">
        <ele>11</ele>
        <time>2020-06-03T11:33:45Z</time>
      </trkpt>
      <trkpt lat="46.47343" lon="-1.74777">
        <ele>10.9</ele>
        <time>2020-06-03T11:33:46Z</time>
      </trkpt>
      <trkpt lat="46.47346" lon="-1.74783">
        <ele>10.9</ele>
        <time>2020-06-03T11:33:47Z</time>
      </trkpt>
      <trkpt lat="46.47349" lon="-1.7479">
        <ele>10.9</ele>
        <time>2020-06-03T11:33:48Z</time>
      </trkpt>
      <trkpt lat="46.47352" lon="-1.74796">
        <ele>10.9</ele>
        <time>2020-06-03T11:33:49Z</time>
      </trkpt>
      <trkpt lat="46.47355" lon="-1.74803">
        <ele>10.9</ele>
        <time>2020-06-03T11:33:50Z</time>
      </trkpt>
      <trkpt lat="46.47358" lon="-1.7481">
        <ele>10.9</ele>
        <time>2020-06-03T11:33:51Z</time>
      </trkpt>
      <trkpt lat="46.47361" lon="-1.74817">
        <ele>10.8</ele>
        <time>2020-06-03T11:33:52Z</time>
      </trkpt>
      <trkpt lat="46.47363" lon="-1.74824">
        <ele>10.8</ele>
        <time>2020-06-03T11:33:53Z</time>
      </trkpt>
      <trkpt lat="46.47366" lon="-1.74831">
        <ele>10.8</ele>
        <time>2020-06-03T11:33:54Z</time>
      </trkpt>
      <trkpt lat="46.47368" lon="-1.74837">
        <ele>10.8</ele>
        <time>2020-06-03T11:33:55Z</time>
      </trkpt>
      <trkpt lat="46.47371" lon="-1.74844">
        <ele>10.8</ele>
        <time>2020-06-03T11:33:56Z</time>
      </trkpt>
      <trkpt lat="46.47372" lon="-1.7485">
        <ele>10.8</ele>
        <time>2020-06-03T11:33:57Z</time>
      </trkpt>
      <trkpt lat="46.47374" lon="-1.74855">
        <ele>10.8</ele>
        <time>2020-06-03T11:33:58Z</time>
      </trkpt>
      <trkpt lat="46.47376" lon="-1.74861">
        <ele>10.9</ele>
        <time>2020-06-03T11:33:59Z</time>
      </trkpt>
      <trkpt lat="46.47377" lon="-1.74866">
        <ele>10.9</ele>
        <time>2020-06-03T11:34:00Z</time>
      </trkpt>
      <trkpt lat="46.47379" lon="-1.74871">
        <ele>10.9</ele>
        <time>2020-06-03T11:34:01Z</time>
      </trkpt>
      <trkpt lat="46.4738" lon="-1.74875">
        <ele>10.9</ele>
        <time>2020-06-03T11:34:02Z</time>
      </trkpt>
      <trkpt lat="46.4738" lon="-1.74881">
        <ele>10.9</ele>
        <time>2020-06-03T11:34:03Z</time>
      </trkpt>
      <trkpt lat="46.4738" lon="-1.74888">
        <ele>10.9</ele>
        <time>2020-06-03T11:34:04Z</time>
      </trkpt>
      <trkpt lat="46.47382" lon="-1.74896">
        <ele>10.9</ele>
        <time>2020-06-03T11:34:05Z</time>
      </trkpt>
      <trkpt lat="46.47383" lon="-1.74901">
        <ele>10.9</ele>
        <time>2020-06-03T11:34:06Z</time>
      </trkpt>
      <trkpt lat="46.47384" lon="-1.74908">
        <ele>10.9</ele>
        <time>2020-06-03T11:34:07Z</time>
      </trkpt>
      <trkpt lat="46.47386" lon="-1.74915">
        <ele>10.9</ele>
        <time>2020-06-03T11:34:08Z</time>
      </trkpt>
      <trkpt lat="46.47387" lon="-1.74922">
        <ele>10.9</ele>
        <time>2020-06-03T11:34:09Z</time>
      </trkpt>
      <trkpt lat="46.47388" lon="-1.74929">
        <ele>10.9</ele>
        <time>2020-06-03T11:34:10Z</time>
      </trkpt>
      <trkpt lat="46.4739" lon="-1.74935">
        <ele>10.9</ele>
        <time>2020-06-03T11:34:11Z</time>
      </trkpt>
      <trkpt lat="46.47391" lon="-1.74941">
        <ele>10.9</ele>
        <time>2020-06-03T11:34:12Z</time>
      </trkpt>
      <trkpt lat="46.47392" lon="-1.74948">
        <ele>10.9</ele>
        <time>2020-06-03T11:34:13Z</time>
      </trkpt>
      <trkpt lat="46.47393" lon="-1.74955">
        <ele>10.9</ele>
        <time>2020-06-03T11:34:14Z</time>
      </trkpt>
      <trkpt lat="46.47394" lon="-1.74962">
        <ele>10.8</ele>
        <time>2020-06-03T11:34:15Z</time>
      </trkpt>
      <trkpt lat="46.47395" lon="-1.74968">
        <ele>10.8</ele>
        <time>2020-06-03T11:34:16Z</time>
      </trkpt>
      <trkpt lat="46.47396" lon="-1.74975">
        <ele>10.8</ele>
        <time>2020-06-03T11:34:17Z</time>
      </trkpt>
      <trkpt lat="46.47398" lon="-1.74982">
        <ele>10.8</ele>
        <time>2020-06-03T11:34:18Z</time>
      </trkpt>
      <trkpt lat="46.47399" lon="-1.74988">
        <ele>10.8</ele>
        <time>2020-06-03T11:34:19Z</time>
      </trkpt>
      <trkpt lat="46.47401" lon="-1.74995">
        <ele>10.7</ele>
        <time>2020-06-03T11:34:20Z</time>
      </trkpt>
      <trkpt lat="46.47402" lon="-1.75001">
        <ele>10.7</ele>
        <time>2020-06-03T11:34:21Z</time>
      </trkpt>
      <trkpt lat="46.47403" lon="-1.75008">
        <ele>10.7</ele>
        <time>2020-06-03T11:34:22Z</time>
      </trkpt>
      <trkpt lat="46.47405" lon="-1.75015">
        <ele>10.7</ele>
        <time>2020-06-03T11:34:23Z</time>
      </trkpt>
      <trkpt lat="46.47406" lon="-1.75022">
        <ele>10.6</ele>
        <time>2020-06-03T11:34:24Z</time>
      </trkpt>
      <trkpt lat="46.47408" lon="-1.75027">
        <ele>10.6</ele>
        <time>2020-06-03T11:34:25Z</time>
      </trkpt>
      <trkpt lat="46.4741" lon="-1.75033">
        <ele>10.6</ele>
        <time>2020-06-03T11:34:26Z</time>
      </trkpt>
      <trkpt lat="46.47411" lon="-1.75039">
        <ele>10.6</ele>
        <time>2020-06-03T11:34:27Z</time>
      </trkpt>
      <trkpt lat="46.47413" lon="-1.75047">
        <ele>10.6</ele>
        <time>2020-06-03T11:34:28Z</time>
      </trkpt>
      <trkpt lat="46.47414" lon="-1.75054">
        <ele>10.5</ele>
        <time>2020-06-03T11:34:29Z</time>
      </trkpt>
      <trkpt lat="46.47415" lon="-1.75061">
        <ele>10.5</ele>
        <time>2020-06-03T11:34:30Z</time>
      </trkpt>
      <trkpt lat="46.47417" lon="-1.75068">
        <ele>10.4</ele>
        <time>2020-06-03T11:34:31Z</time>
      </trkpt>
      <trkpt lat="46.47418" lon="-1.75075">
        <ele>10.4</ele>
        <time>2020-06-03T11:34:32Z</time>
      </trkpt>
      <trkpt lat="46.4742" lon="-1.75082">
        <ele>10.3</ele>
        <time>2020-06-03T11:34:33Z</time>
      </trkpt>
      <trkpt lat="46.47422" lon="-1.75091">
        <ele>10.2</ele>
        <time>2020-06-03T11:34:34Z</time>
      </trkpt>
      <trkpt lat="46.47424" lon="-1.75099">
        <ele>10.2</ele>
        <time>2020-06-03T11:34:35Z</time>
      </trkpt>
      <trkpt lat="46.47425" lon="-1.75107">
        <ele>10.1</ele>
        <time>2020-06-03T11:34:36Z</time>
      </trkpt>
      <trkpt lat="46.47427" lon="-1.75114">
        <ele>10</ele>
        <time>2020-06-03T11:34:37Z</time>
      </trkpt>
      <trkpt lat="46.47429" lon="-1.75122">
        <ele>10</ele>
        <time>2020-06-03T11:34:38Z</time>
      </trkpt>
      <trkpt lat="46.47431" lon="-1.75127">
        <ele>9.9</ele>
        <time>2020-06-03T11:34:39Z</time>
      </trkpt>
      <trkpt lat="46.47432" lon="-1.75134">
        <ele>9.8</ele>
        <time>2020-06-03T11:34:40Z</time>
      </trkpt>
      <trkpt lat="46.47433" lon="-1.7514">
        <ele>9.7</ele>
        <time>2020-06-03T11:34:41Z</time>
      </trkpt>
      <trkpt lat="46.47435" lon="-1.75147">
        <ele>9.7</ele>
        <time>2020-06-03T11:34:42Z</time>
      </trkpt>
      <trkpt lat="46.47436" lon="-1.75153">
        <ele>9.6</ele>
        <time>2020-06-03T11:34:43Z</time>
      </trkpt>
      <trkpt lat="46.47437" lon="-1.7516">
        <ele>9.5</ele>
        <time>2020-06-03T11:34:44Z</time>
      </trkpt>
      <trkpt lat="46.47437" lon="-1.75166">
        <ele>9.5</ele>
        <time>2020-06-03T11:34:45Z</time>
      </trkpt>
      <trkpt lat="46.47439" lon="-1.75173">
        <ele>9.4</ele>
        <time>2020-06-03T11:34:46Z</time>
      </trkpt>
      <trkpt lat="46.47439" lon="-1.75181">
        <ele>9.3</ele>
        <time>2020-06-03T11:34:47Z</time>
      </trkpt>
      <trkpt lat="46.47441" lon="-1.75188">
        <ele>9.3</ele>
        <time>2020-06-03T11:34:48Z</time>
      </trkpt>
      <trkpt lat="46.47442" lon="-1.75194">
        <ele>9.2</ele>
        <time>2020-06-03T11:34:49Z</time>
      </trkpt>
      <trkpt lat="46.47442" lon="-1.75199">
        <ele>9</ele>
        <time>2020-06-03T11:34:50Z</time>
      </trkpt>
      <trkpt lat="46.4744" lon="-1.75203">
        <ele>8.9</ele>
        <time>2020-06-03T11:34:51Z</time>
      </trkpt>
      <trkpt lat="46.47437" lon="-1.75206">
        <ele>8.8</ele>
        <time>2020-06-03T11:34:52Z</time>
      </trkpt>
      <trkpt lat="46.47434" lon="-1.75211">
        <ele>8.5</ele>
        <time>2020-06-03T11:34:53Z</time>
      </trkpt>
      <trkpt lat="46.47432" lon="-1.75218">
        <ele>8.4</ele>
        <time>2020-06-03T11:34:54Z</time>
      </trkpt>
      <trkpt lat="46.47433" lon="-1.75225">
        <ele>8.4</ele>
        <time>2020-06-03T11:34:55Z</time>
      </trkpt>
      <trkpt lat="46.47434" lon="-1.75231">
        <ele>8.4</ele>
        <time>2020-06-03T11:34:56Z</time>
      </trkpt>
      <trkpt lat="46.47435" lon="-1.75238">
        <ele>8.4</ele>
        <time>2020-06-03T11:34:57Z</time>
      </trkpt>
      <trkpt lat="46.47437" lon="-1.75245">
        <ele>8.4</ele>
        <time>2020-06-03T11:34:58Z</time>
      </trkpt>
      <trkpt lat="46.47438" lon="-1.75251">
        <ele>8.3</ele>
        <time>2020-06-03T11:34:59Z</time>
      </trkpt>
      <trkpt lat="46.4744" lon="-1.75258">
        <ele>8.3</ele>
        <time>2020-06-03T11:35:00Z</time>
      </trkpt>
      <trkpt lat="46.47441" lon="-1.75264">
        <ele>8.3</ele>
        <time>2020-06-03T11:35:01Z</time>
      </trkpt>
      <trkpt lat="46.47442" lon="-1.75269">
        <ele>8.3</ele>
        <time>2020-06-03T11:35:02Z</time>
      </trkpt>
      <trkpt lat="46.47444" lon="-1.75275">
        <ele>8.3</ele>
        <time>2020-06-03T11:35:03Z</time>
      </trkpt>
      <trkpt lat="46.47445" lon="-1.75281">
        <ele>8.2</ele>
        <time>2020-06-03T11:35:04Z</time>
      </trkpt>
      <trkpt lat="46.47446" lon="-1.75287">
        <ele>8.2</ele>
        <time>2020-06-03T11:35:05Z</time>
      </trkpt>
      <trkpt lat="46.47447" lon="-1.75294">
        <ele>8.1</ele>
        <time>2020-06-03T11:35:06Z</time>
      </trkpt>
      <trkpt lat="46.47447" lon="-1.75301">
        <ele>8.1</ele>
        <time>2020-06-03T11:35:07Z</time>
      </trkpt>
      <trkpt lat="46.47447" lon="-1.75308">
        <ele>8</ele>
        <time>2020-06-03T11:35:08Z</time>
      </trkpt>
      <trkpt lat="46.47449" lon="-1.75316">
        <ele>7.9</ele>
        <time>2020-06-03T11:35:09Z</time>
      </trkpt>
      <trkpt lat="46.47449" lon="-1.75323">
        <ele>7.8</ele>
        <time>2020-06-03T11:35:10Z</time>
      </trkpt>
      <trkpt lat="46.4745" lon="-1.7533">
        <ele>7.7</ele>
        <time>2020-06-03T11:35:11Z</time>
      </trkpt>
      <trkpt lat="46.47452" lon="-1.75338">
        <ele>7.6</ele>
        <time>2020-06-03T11:35:12Z</time>
      </trkpt>
      <trkpt lat="46.47454" lon="-1.75344">
        <ele>7.6</ele>
        <time>2020-06-03T11:35:13Z</time>
      </trkpt>
      <trkpt lat="46.47458" lon="-1.75348">
        <ele>7.5</ele>
        <time>2020-06-03T11:35:14Z</time>
      </trkpt>
      <trkpt lat="46.47462" lon="-1.7535">
        <ele>7.5</ele>
        <time>2020-06-03T11:35:15Z</time>
      </trkpt>
      <trkpt lat="46.47466" lon="-1.75354">
        <ele>7.5</ele>
        <time>2020-06-03T11:35:16Z</time>
      </trkpt>
      <trkpt lat="46.47468" lon="-1.75361">
        <ele>7.4</ele>
        <time>2020-06-03T11:35:17Z</time>
      </trkpt>
      <trkpt lat="46.47468" lon="-1.75369">
        <ele>7.4</ele>
        <time>2020-06-03T11:35:18Z</time>
      </trkpt>
      <trkpt lat="46.47469" lon="-1.75375">
        <ele>7.3</ele>
        <time>2020-06-03T11:35:19Z</time>
      </trkpt>
      <trkpt lat="46.4747" lon="-1.75383">
        <ele>7.3</ele>
        <time>2020-06-03T11:35:20Z</time>
      </trkpt>
      <trkpt lat="46.47471" lon="-1.7539">
        <ele>7.3</ele>
        <time>2020-06-03T11:35:21Z</time>
      </trkpt>
      <trkpt lat="46.47472" lon="-1.75397">
        <ele>7.2</ele>
        <time>2020-06-03T11:35:22Z</time>
      </trkpt>
      <trkpt lat="46.47474" lon="-1.75404">
        <ele>7.2</ele>
        <time>2020-06-03T11:35:23Z</time>
      </trkpt>
      <trkpt lat="46.47476" lon="-1.7541">
        <ele>7.2</ele>
        <time>2020-06-03T11:35:24Z</time>
      </trkpt>
      <trkpt lat="46.4748" lon="-1.75413">
        <ele>7.8</ele>
        <time>2020-06-03T11:35:25Z</time>
      </trkpt>
      <trkpt lat="46.47483" lon="-1.75417">
        <ele>7.9</ele>
        <time>2020-06-03T11:35:26Z</time>
      </trkpt>
      <trkpt lat="46.47486" lon="-1.75421">
        <ele>7.9</ele>
        <time>2020-06-03T11:35:27Z</time>
      </trkpt>
      <trkpt lat="46.47488" lon="-1.75425">
        <ele>8</ele>
        <time>2020-06-03T11:35:28Z</time>
      </trkpt>
      <trkpt lat="46.4749" lon="-1.7543">
        <ele>8.1</ele>
        <time>2020-06-03T11:35:29Z</time>
      </trkpt>
      <trkpt lat="46.4749" lon="-1.75435">
        <ele>8.1</ele>
        <time>2020-06-03T11:35:30Z</time>
      </trkpt>
      <trkpt lat="46.47491" lon="-1.75439">
        <ele>8.2</ele>
        <time>2020-06-03T11:35:31Z</time>
      </trkpt>
      <trkpt lat="46.47491" lon="-1.75443">
        <ele>8.3</ele>
        <time>2020-06-03T11:35:32Z</time>
      </trkpt>
      <trkpt lat="46.47492" lon="-1.75449">
        <ele>8.4</ele>
        <time>2020-06-03T11:35:33Z</time>
      </trkpt>
      <trkpt lat="46.47494" lon="-1.75455">
        <ele>8.4</ele>
        <time>2020-06-03T11:35:34Z</time>
      </trkpt>
      <trkpt lat="46.47494" lon="-1.7546">
        <ele>8.5</ele>
        <time>2020-06-03T11:35:35Z</time>
      </trkpt>
      <trkpt lat="46.47496" lon="-1.75465">
        <ele>8.6</ele>
        <time>2020-06-03T11:35:36Z</time>
      </trkpt>
      <trkpt lat="46.47497" lon="-1.7547">
        <ele>8.6</ele>
        <time>2020-06-03T11:35:37Z</time>
      </trkpt>
      <trkpt lat="46.47498" lon="-1.75475">
        <ele>8.7</ele>
        <time>2020-06-03T11:35:38Z</time>
      </trkpt>
      <trkpt lat="46.475" lon="-1.75481">
        <ele>8.8</ele>
        <time>2020-06-03T11:35:39Z</time>
      </trkpt>
      <trkpt lat="46.47501" lon="-1.75486">
        <ele>8.8</ele>
        <time>2020-06-03T11:35:40Z</time>
      </trkpt>
      <trkpt lat="46.47503" lon="-1.75492">
        <ele>8.9</ele>
        <time>2020-06-03T11:35:41Z</time>
      </trkpt>
      <trkpt lat="46.47504" lon="-1.75498">
        <ele>9</ele>
        <time>2020-06-03T11:35:42Z</time>
      </trkpt>
      <trkpt lat="46.47505" lon="-1.75504">
        <ele>9</ele>
        <time>2020-06-03T11:35:43Z</time>
      </trkpt>
      <trkpt lat="46.47506" lon="-1.75511">
        <ele>9.1</ele>
        <time>2020-06-03T11:35:44Z</time>
      </trkpt>
      <trkpt lat="46.47506" lon="-1.75518">
        <ele>9.2</ele>
        <time>2020-06-03T11:35:45Z</time>
      </trkpt>
      <trkpt lat="46.47507" lon="-1.75524">
        <ele>9.2</ele>
        <time>2020-06-03T11:35:46Z</time>
      </trkpt>
      <trkpt lat="46.47507" lon="-1.7553">
        <ele>9.2</ele>
        <time>2020-06-03T11:35:47Z</time>
      </trkpt>
      <trkpt lat="46.47507" lon="-1.75535">
        <ele>9.3</ele>
        <time>2020-06-03T11:35:48Z</time>
      </trkpt>
      <trkpt lat="46.47508" lon="-1.7554">
        <ele>9.3</ele>
        <time>2020-06-03T11:35:49Z</time>
      </trkpt>
      <trkpt lat="46.47508" lon="-1.75546">
        <ele>9.3</ele>
        <time>2020-06-03T11:35:50Z</time>
      </trkpt>
      <trkpt lat="46.47509" lon="-1.75553">
        <ele>9.3</ele>
        <time>2020-06-03T11:35:51Z</time>
      </trkpt>
      <trkpt lat="46.4751" lon="-1.75559">
        <ele>9.3</ele>
        <time>2020-06-03T11:35:52Z</time>
      </trkpt>
      <trkpt lat="46.47511" lon="-1.75565">
        <ele>9.3</ele>
        <time>2020-06-03T11:35:53Z</time>
      </trkpt>
      <trkpt lat="46.47512" lon="-1.75571">
        <ele>9.3</ele>
        <time>2020-06-03T11:35:54Z</time>
      </trkpt>
      <trkpt lat="46.47513" lon="-1.75577">
        <ele>9.3</ele>
        <time>2020-06-03T11:35:55Z</time>
      </trkpt>
      <trkpt lat="46.47514" lon="-1.75582">
        <ele>9.3</ele>
        <time>2020-06-03T11:35:56Z</time>
      </trkpt>
      <trkpt lat="46.47516" lon="-1.75589">
        <ele>9.3</ele>
        <time>2020-06-03T11:35:57Z</time>
      </trkpt>
      <trkpt lat="46.47518" lon="-1.75594">
        <ele>9.3</ele>
        <time>2020-06-03T11:35:58Z</time>
      </trkpt>
      <trkpt lat="46.4752" lon="-1.75599">
        <ele>9.3</ele>
        <time>2020-06-03T11:35:59Z</time>
      </trkpt>
      <trkpt lat="46.47522" lon="-1.75604">
        <ele>9.3</ele>
        <time>2020-06-03T11:36:00Z</time>
      </trkpt>
      <trkpt lat="46.47525" lon="-1.7561">
        <ele>9.3</ele>
        <time>2020-06-03T11:36:01Z</time>
      </trkpt>
      <trkpt lat="46.47528" lon="-1.75616">
        <ele>9.3</ele>
        <time>2020-06-03T11:36:02Z</time>
      </trkpt>
      <trkpt lat="46.47532" lon="-1.7562">
        <ele>9.3</ele>
        <time>2020-06-03T11:36:03Z</time>
      </trkpt>
      <trkpt lat="46.47534" lon="-1.75625">
        <ele>9.3</ele>
        <time>2020-06-03T11:36:04Z</time>
      </trkpt>
      <trkpt lat="46.47537" lon="-1.75629">
        <ele>9.3</ele>
        <time>2020-06-03T11:36:05Z</time>
      </trkpt>
      <trkpt lat="46.47539" lon="-1.75634">
        <ele>9.3</ele>
        <time>2020-06-03T11:36:06Z</time>
      </trkpt>
      <trkpt lat="46.47542" lon="-1.75638">
        <ele>9.2</ele>
        <time>2020-06-03T11:36:07Z</time>
      </trkpt>
      <trkpt lat="46.47545" lon="-1.75642">
        <ele>9.2</ele>
        <time>2020-06-03T11:36:08Z</time>
      </trkpt>
      <trkpt lat="46.47548" lon="-1.75646">
        <ele>9.2</ele>
        <time>2020-06-03T11:36:09Z</time>
      </trkpt>
      <trkpt lat="46.47551" lon="-1.7565">
        <ele>9.3</ele>
        <time>2020-06-03T11:36:10Z</time>
      </trkpt>
      <trkpt lat="46.47555" lon="-1.75654">
        <ele>9.3</ele>
        <time>2020-06-03T11:36:11Z</time>
      </trkpt>
      <trkpt lat="46.47559" lon="-1.75659">
        <ele>9.4</ele>
        <time>2020-06-03T11:36:12Z</time>
      </trkpt>
      <trkpt lat="46.47564" lon="-1.75663">
        <ele>9.4</ele>
        <time>2020-06-03T11:36:13Z</time>
      </trkpt>
      <trkpt lat="46.47568" lon="-1.75668">
        <ele>9.5</ele>
        <time>2020-06-03T11:36:14Z</time>
      </trkpt>
      <trkpt lat="46.47573" lon="-1.75672">
        <ele>9.5</ele>
        <time>2020-06-03T11:36:15Z</time>
      </trkpt>
      <trkpt lat="46.47578" lon="-1.75676">
        <ele>9.6</ele>
        <time>2020-06-03T11:36:16Z</time>
      </trkpt>
      <trkpt lat="46.47583" lon="-1.75681">
        <ele>9.6</ele>
        <time>2020-06-03T11:36:17Z</time>
      </trkpt>
      <trkpt lat="46.47588" lon="-1.75687">
        <ele>9.7</ele>
        <time>2020-06-03T11:36:18Z</time>
      </trkpt>
      <trkpt lat="46.47594" lon="-1.75694">
        <ele>9.7</ele>
        <time>2020-06-03T11:36:19Z</time>
      </trkpt>
      <trkpt lat="46.47598" lon="-1.757">
        <ele>9.7</ele>
        <time>2020-06-03T11:36:20Z</time>
      </trkpt>
      <trkpt lat="46.47603" lon="-1.75706">
        <ele>9.7</ele>
        <time>2020-06-03T11:36:21Z</time>
      </trkpt>
      <trkpt lat="46.47606" lon="-1.75711">
        <ele>9.7</ele>
        <time>2020-06-03T11:36:22Z</time>
      </trkpt>
      <trkpt lat="46.4761" lon="-1.75717">
        <ele>9.7</ele>
        <time>2020-06-03T11:36:23Z</time>
      </trkpt>
      <trkpt lat="46.47614" lon="-1.75723">
        <ele>9.6</ele>
        <time>2020-06-03T11:36:24Z</time>
      </trkpt>
      <trkpt lat="46.47618" lon="-1.7573">
        <ele>9.5</ele>
        <time>2020-06-03T11:36:25Z</time>
      </trkpt>
      <trkpt lat="46.47622" lon="-1.75737">
        <ele>9.3</ele>
        <time>2020-06-03T11:36:26Z</time>
      </trkpt>
      <trkpt lat="46.47625" lon="-1.75744">
        <ele>9.2</ele>
        <time>2020-06-03T11:36:27Z</time>
      </trkpt>
      <trkpt lat="46.47628" lon="-1.75748">
        <ele>9.1</ele>
        <time>2020-06-03T11:36:28Z</time>
      </trkpt>
      <trkpt lat="46.47632" lon="-1.75752">
        <ele>9</ele>
        <time>2020-06-03T11:36:29Z</time>
      </trkpt>
      <trkpt lat="46.47636" lon="-1.75754">
        <ele>8.9</ele>
        <time>2020-06-03T11:36:30Z</time>
      </trkpt>
      <trkpt lat="46.4764" lon="-1.75752">
        <ele>9.3</ele>
        <time>2020-06-03T11:36:31Z</time>
      </trkpt>
      <trkpt lat="46.47644" lon="-1.75749">
        <ele>9.3</ele>
        <time>2020-06-03T11:36:32Z</time>
      </trkpt>
      <trkpt lat="46.47648" lon="-1.7575">
        <ele>9.3</ele>
        <time>2020-06-03T11:36:33Z</time>
      </trkpt>
      <trkpt lat="46.47653" lon="-1.75756">
        <ele>9.2</ele>
        <time>2020-06-03T11:36:34Z</time>
      </trkpt>
      <trkpt lat="46.47658" lon="-1.7576">
        <ele>9.2</ele>
        <time>2020-06-03T11:36:35Z</time>
      </trkpt>
      <trkpt lat="46.47663" lon="-1.75766">
        <ele>9.1</ele>
        <time>2020-06-03T11:36:36Z</time>
      </trkpt>
      <trkpt lat="46.4767" lon="-1.75772">
        <ele>9</ele>
        <time>2020-06-03T11:36:37Z</time>
      </trkpt>
      <trkpt lat="46.47676" lon="-1.75778">
        <ele>9</ele>
        <time>2020-06-03T11:36:38Z</time>
      </trkpt>
      <trkpt lat="46.4768" lon="-1.75783">
        <ele>9</ele>
        <time>2020-06-03T11:36:39Z</time>
      </trkpt>
      <trkpt lat="46.47687" lon="-1.75792">
        <ele>8.9</ele>
        <time>2020-06-03T11:36:40Z</time>
      </trkpt>
      <trkpt lat="46.47694" lon="-1.75799">
        <ele>8.9</ele>
        <time>2020-06-03T11:36:41Z</time>
      </trkpt>
      <trkpt lat="46.477" lon="-1.75808">
        <ele>8.8</ele>
        <time>2020-06-03T11:36:42Z</time>
      </trkpt>
      <trkpt lat="46.47706" lon="-1.75817">
        <ele>8.8</ele>
        <time>2020-06-03T11:36:43Z</time>
      </trkpt>
      <trkpt lat="46.47711" lon="-1.75825">
        <ele>8.8</ele>
        <time>2020-06-03T11:36:44Z</time>
      </trkpt>
      <trkpt lat="46.47718" lon="-1.75835">
        <ele>8.8</ele>
        <time>2020-06-03T11:36:45Z</time>
      </trkpt>
      <trkpt lat="46.47723" lon="-1.75845">
        <ele>8.8</ele>
        <time>2020-06-03T11:36:46Z</time>
      </trkpt>
      <trkpt lat="46.47728" lon="-1.75855">
        <ele>8.9</ele>
        <time>2020-06-03T11:36:47Z</time>
      </trkpt>
      <trkpt lat="46.47733" lon="-1.75863">
        <ele>8.9</ele>
        <time>2020-06-03T11:36:48Z</time>
      </trkpt>
      <trkpt lat="46.47739" lon="-1.75872">
        <ele>8.9</ele>
        <time>2020-06-03T11:36:49Z</time>
      </trkpt>
      <trkpt lat="46.47745" lon="-1.75881">
        <ele>8.9</ele>
        <time>2020-06-03T11:36:50Z</time>
      </trkpt>
      <trkpt lat="46.4775" lon="-1.75891">
        <ele>8.9</ele>
        <time>2020-06-03T11:36:51Z</time>
      </trkpt>
      <trkpt lat="46.47756" lon="-1.759">
        <ele>8.9</ele>
        <time>2020-06-03T11:36:52Z</time>
      </trkpt>
      <trkpt lat="46.47762" lon="-1.75908">
        <ele>8.9</ele>
        <time>2020-06-03T11:36:53Z</time>
      </trkpt>
      <trkpt lat="46.47767" lon="-1.75915">
        <ele>9</ele>
        <time>2020-06-03T11:36:54Z</time>
      </trkpt>
      <trkpt lat="46.47772" lon="-1.75921">
        <ele>9</ele>
        <time>2020-06-03T11:36:55Z</time>
      </trkpt>
      <trkpt lat="46.47777" lon="-1.75927">
        <ele>9.1</ele>
        <time>2020-06-03T11:36:56Z</time>
      </trkpt>
      <trkpt lat="46.47781" lon="-1.75932">
        <ele>9.2</ele>
        <time>2020-06-03T11:36:57Z</time>
      </trkpt>
      <trkpt lat="46.47784" lon="-1.75937">
        <ele>9.2</ele>
        <time>2020-06-03T11:36:58Z</time>
      </trkpt>
      <trkpt lat="46.47789" lon="-1.75941">
        <ele>9.3</ele>
        <time>2020-06-03T11:36:59Z</time>
      </trkpt>
      <trkpt lat="46.47792" lon="-1.75945">
        <ele>9.3</ele>
        <time>2020-06-03T11:37:00Z</time>
      </trkpt>
      <trkpt lat="46.47795" lon="-1.75949">
        <ele>9.3</ele>
        <time>2020-06-03T11:37:01Z</time>
      </trkpt>
      <trkpt lat="46.47798" lon="-1.75952">
        <ele>9.4</ele>
        <time>2020-06-03T11:37:02Z</time>
      </trkpt>
      <trkpt lat="46.478" lon="-1.75955">
        <ele>9.4</ele>
        <time>2020-06-03T11:37:03Z</time>
      </trkpt>
      <trkpt lat="46.47803" lon="-1.75958">
        <ele>9.4</ele>
        <time>2020-06-03T11:37:04Z</time>
      </trkpt>
      <trkpt lat="46.47804" lon="-1.75962">
        <ele>9.5</ele>
        <time>2020-06-03T11:37:05Z</time>
      </trkpt>
      <trkpt lat="46.47807" lon="-1.75966">
        <ele>9.5</ele>
        <time>2020-06-03T11:37:06Z</time>
      </trkpt>
      <trkpt lat="46.4781" lon="-1.75969">
        <ele>9.6</ele>
        <time>2020-06-03T11:37:07Z</time>
      </trkpt>
      <trkpt lat="46.47813" lon="-1.75973">
        <ele>9.6</ele>
        <time>2020-06-03T11:37:08Z</time>
      </trkpt>
      <trkpt lat="46.47816" lon="-1.75976">
        <ele>9.6</ele>
        <time>2020-06-03T11:37:09Z</time>
      </trkpt>
      <trkpt lat="46.4782" lon="-1.75979">
        <ele>9.6</ele>
        <time>2020-06-03T11:37:10Z</time>
      </trkpt>
      <trkpt lat="46.47824" lon="-1.75983">
        <ele>9.6</ele>
        <time>2020-06-03T11:37:11Z</time>
      </trkpt>
      <trkpt lat="46.47828" lon="-1.75986">
        <ele>9.7</ele>
        <time>2020-06-03T11:37:12Z</time>
      </trkpt>
      <trkpt lat="46.47831" lon="-1.75989">
        <ele>9.7</ele>
        <time>2020-06-03T11:37:13Z</time>
      </trkpt>
      <trkpt lat="46.47835" lon="-1.75993">
        <ele>9.7</ele>
        <time>2020-06-03T11:37:14Z</time>
      </trkpt>
      <trkpt lat="46.47836" lon="-1.75996">
        <ele>9.7</ele>
        <time>2020-06-03T11:37:15Z</time>
      </trkpt>
      <trkpt lat="46.47837" lon="-1.76001">
        <ele>9.7</ele>
        <time>2020-06-03T11:37:16Z</time>
      </trkpt>
      <trkpt lat="46.47836" lon="-1.76003">
        <ele>9.7</ele>
        <time>2020-06-03T11:37:17Z</time>
      </trkpt>
      <trkpt lat="46.47834" lon="-1.76006">
        <ele>9.2</ele>
        <time>2020-06-03T11:37:18Z</time>
      </trkpt>
      <trkpt lat="46.47831" lon="-1.76007">
        <ele>9.2</ele>
        <time>2020-06-03T11:37:19Z</time>
      </trkpt>
      <trkpt lat="46.47829" lon="-1.76011">
        <ele>9.3</ele>
        <time>2020-06-03T11:37:20Z</time>
      </trkpt>
      <trkpt lat="46.47828" lon="-1.76012">
        <ele>9.3</ele>
        <time>2020-06-03T11:37:21Z</time>
      </trkpt>
      <trkpt lat="46.47826" lon="-1.76017">
        <ele>9.3</ele>
        <time>2020-06-03T11:37:22Z</time>
      </trkpt>
      <trkpt lat="46.47826" lon="-1.76018">
        <ele>9.3</ele>
        <time>2020-06-03T11:37:23Z</time>
      </trkpt>
      <trkpt lat="46.47825" lon="-1.76021">
        <ele>9.4</ele>
        <time>2020-06-03T11:37:24Z</time>
      </trkpt>
      <trkpt lat="46.47825" lon="-1.76021">
        <ele>9.4</ele>
        <time>2020-06-03T11:37:25Z</time>
      </trkpt>
      <trkpt lat="46.47827" lon="-1.76023">
        <ele>9.4</ele>
        <time>2020-06-03T11:37:26Z</time>
      </trkpt>
      <trkpt lat="46.4783" lon="-1.76023">
        <ele>9.4</ele>
        <time>2020-06-03T11:37:27Z</time>
      </trkpt>
      <trkpt lat="46.47833" lon="-1.76024">
        <ele>9.4</ele>
        <time>2020-06-03T11:37:28Z</time>
      </trkpt>
      <trkpt lat="46.47834" lon="-1.76025">
        <ele>9.5</ele>
        <time>2020-06-03T11:37:29Z</time>
      </trkpt>
      <trkpt lat="46.47837" lon="-1.76026">
        <ele>9.5</ele>
        <time>2020-06-03T11:37:30Z</time>
      </trkpt>
      <trkpt lat="46.47838" lon="-1.76026">
        <ele>9.5</ele>
        <time>2020-06-03T11:37:31Z</time>
      </trkpt>
      <trkpt lat="46.47841" lon="-1.76027">
        <ele>9.5</ele>
        <time>2020-06-03T11:37:32Z</time>
      </trkpt>
      <trkpt lat="46.47844" lon="-1.76026">
        <ele>9.6</ele>
        <time>2020-06-03T11:37:33Z</time>
      </trkpt>
      <trkpt lat="46.47848" lon="-1.76026">
        <ele>9.6</ele>
        <time>2020-06-03T11:37:34Z</time>
      </trkpt>
      <trkpt lat="46.4785" lon="-1.76024">
        <ele>9.6</ele>
        <time>2020-06-03T11:37:35Z</time>
      </trkpt>
      <trkpt lat="46.47853" lon="-1.76022">
        <ele>9.7</ele>
        <time>2020-06-03T11:37:36Z</time>
      </trkpt>
      <trkpt lat="46.47856" lon="-1.76021">
        <ele>9.7</ele>
        <time>2020-06-03T11:37:37Z</time>
      </trkpt>
      <trkpt lat="46.4786" lon="-1.7602">
        <ele>9.7</ele>
        <time>2020-06-03T11:37:38Z</time>
      </trkpt>
      <trkpt lat="46.47863" lon="-1.76021">
        <ele>9.7</ele>
        <time>2020-06-03T11:37:39Z</time>
      </trkpt>
      <trkpt lat="46.47866" lon="-1.76021">
        <ele>9.7</ele>
        <time>2020-06-03T11:37:40Z</time>
      </trkpt>
      <trkpt lat="46.47869" lon="-1.76023">
        <ele>9.7</ele>
        <time>2020-06-03T11:37:41Z</time>
      </trkpt>
      <trkpt lat="46.47872" lon="-1.76025">
        <ele>9.6</ele>
        <time>2020-06-03T11:37:42Z</time>
      </trkpt>
      <trkpt lat="46.47875" lon="-1.76026">
        <ele>9.6</ele>
        <time>2020-06-03T11:37:43Z</time>
      </trkpt>
      <trkpt lat="46.47879" lon="-1.76028">
        <ele>9.6</ele>
        <time>2020-06-03T11:37:44Z</time>
      </trkpt>
      <trkpt lat="46.47883" lon="-1.76029">
        <ele>9.6</ele>
        <time>2020-06-03T11:37:45Z</time>
      </trkpt>
      <trkpt lat="46.47886" lon="-1.7603">
        <ele>9.6</ele>
        <time>2020-06-03T11:37:46Z</time>
      </trkpt>
      <trkpt lat="46.4789" lon="-1.76032">
        <ele>9.6</ele>
        <time>2020-06-03T11:37:47Z</time>
      </trkpt>
      <trkpt lat="46.47894" lon="-1.76034">
        <ele>9.6</ele>
        <time>2020-06-03T11:37:48Z</time>
      </trkpt>
      <trkpt lat="46.47898" lon="-1.76034">
        <ele>9.6</ele>
        <time>2020-06-03T11:37:49Z</time>
      </trkpt>
      <trkpt lat="46.47901" lon="-1.76035">
        <ele>9.6</ele>
        <time>2020-06-03T11:37:50Z</time>
      </trkpt>
      <trkpt lat="46.47905" lon="-1.76036">
        <ele>9.5</ele>
        <time>2020-06-03T11:37:51Z</time>
      </trkpt>
      <trkpt lat="46.47909" lon="-1.76038">
        <ele>9.5</ele>
        <time>2020-06-03T11:37:52Z</time>
      </trkpt>
      <trkpt lat="46.47913" lon="-1.76038">
        <ele>9.5</ele>
        <time>2020-06-03T11:37:53Z</time>
      </trkpt>
      <trkpt lat="46.47916" lon="-1.76039">
        <ele>9.5</ele>
        <time>2020-06-03T11:37:54Z</time>
      </trkpt>
      <trkpt lat="46.4792" lon="-1.76041">
        <ele>9.4</ele>
        <time>2020-06-03T11:37:55Z</time>
      </trkpt>
      <trkpt lat="46.47924" lon="-1.76042">
        <ele>9.3</ele>
        <time>2020-06-03T11:37:56Z</time>
      </trkpt>
      <trkpt lat="46.47927" lon="-1.76043">
        <ele>9.3</ele>
        <time>2020-06-03T11:37:57Z</time>
      </trkpt>
      <trkpt lat="46.47931" lon="-1.76043">
        <ele>9.2</ele>
        <time>2020-06-03T11:37:58Z</time>
      </trkpt>
      <trkpt lat="46.47934" lon="-1.76045">
        <ele>9.1</ele>
        <time>2020-06-03T11:37:59Z</time>
      </trkpt>
      <trkpt lat="46.47937" lon="-1.76045">
        <ele>9.1</ele>
        <time>2020-06-03T11:38:00Z</time>
      </trkpt>
      <trkpt lat="46.4794" lon="-1.76046">
        <ele>9</ele>
        <time>2020-06-03T11:38:01Z</time>
      </trkpt>
      <trkpt lat="46.47944" lon="-1.76046">
        <ele>9</ele>
        <time>2020-06-03T11:38:02Z</time>
      </trkpt>
      <trkpt lat="46.47947" lon="-1.76047">
        <ele>8.9</ele>
        <time>2020-06-03T11:38:03Z</time>
      </trkpt>
      <trkpt lat="46.4795" lon="-1.76046">
        <ele>8.9</ele>
        <time>2020-06-03T11:38:04Z</time>
      </trkpt>
      <trkpt lat="46.47953" lon="-1.76047">
        <ele>8.8</ele>
        <time>2020-06-03T11:38:05Z</time>
      </trkpt>
      <trkpt lat="46.47957" lon="-1.76048">
        <ele>8.8</ele>
        <time>2020-06-03T11:38:06Z</time>
      </trkpt>
      <trkpt lat="46.4796" lon="-1.76049">
        <ele>8.7</ele>
        <time>2020-06-03T11:38:07Z</time>
      </trkpt>
      <trkpt lat="46.47963" lon="-1.7605">
        <ele>8.7</ele>
        <time>2020-06-03T11:38:08Z</time>
      </trkpt>
      <trkpt lat="46.47966" lon="-1.76051">
        <ele>8.6</ele>
        <time>2020-06-03T11:38:09Z</time>
      </trkpt>
      <trkpt lat="46.47969" lon="-1.76052">
        <ele>8.6</ele>
        <time>2020-06-03T11:38:10Z</time>
      </trkpt>
      <trkpt lat="46.47973" lon="-1.76053">
        <ele>8.5</ele>
        <time>2020-06-03T11:38:11Z</time>
      </trkpt>
      <trkpt lat="46.47976" lon="-1.76054">
        <ele>8.4</ele>
        <time>2020-06-03T11:38:12Z</time>
      </trkpt>
      <trkpt lat="46.47979" lon="-1.76055">
        <ele>8.4</ele>
        <time>2020-06-03T11:38:13Z</time>
      </trkpt>
      <trkpt lat="46.47982" lon="-1.76056">
        <ele>8.3</ele>
        <time>2020-06-03T11:38:14Z</time>
      </trkpt>
      <trkpt lat="46.47985" lon="-1.76055">
        <ele>8.3</ele>
        <time>2020-06-03T11:38:15Z</time>
      </trkpt>
      <trkpt lat="46.47988" lon="-1.76055">
        <ele>8.2</ele>
        <time>2020-06-03T11:38:16Z</time>
      </trkpt>
      <trkpt lat="46.47991" lon="-1.76058">
        <ele>8.2</ele>
        <time>2020-06-03T11:38:17Z</time>
      </trkpt>
      <trkpt lat="46.47994" lon="-1.7606">
        <ele>8.1</ele>
        <time>2020-06-03T11:38:18Z</time>
      </trkpt>
      <trkpt lat="46.47997" lon="-1.76061">
        <ele>8.1</ele>
        <time>2020-06-03T11:38:19Z</time>
      </trkpt>
      <trkpt lat="46.48" lon="-1.76063">
        <ele>8</ele>
        <time>2020-06-03T11:38:20Z</time>
      </trkpt>
      <trkpt lat="46.48003" lon="-1.76063">
        <ele>8</ele>
        <time>2020-06-03T11:38:21Z</time>
      </trkpt>
      <trkpt lat="46.48006" lon="-1.76064">
        <ele>7.9</ele>
        <time>2020-06-03T11:38:22Z</time>
      </trkpt>
      <trkpt lat="46.48009" lon="-1.76065">
        <ele>7.9</ele>
        <time>2020-06-03T11:38:23Z</time>
      </trkpt>
      <trkpt lat="46.48012" lon="-1.76067">
        <ele>7.9</ele>
        <time>2020-06-03T11:38:24Z</time>
      </trkpt>
      <trkpt lat="46.48015" lon="-1.76068">
        <ele>7.8</ele>
        <time>2020-06-03T11:38:25Z</time>
      </trkpt>
      <trkpt lat="46.48018" lon="-1.76069">
        <ele>7.7</ele>
        <time>2020-06-03T11:38:26Z</time>
      </trkpt>
      <trkpt lat="46.48021" lon="-1.7607">
        <ele>7.7</ele>
        <time>2020-06-03T11:38:27Z</time>
      </trkpt>
      <trkpt lat="46.48024" lon="-1.76071">
        <ele>7.6</ele>
        <time>2020-06-03T11:38:28Z</time>
      </trkpt>
      <trkpt lat="46.48027" lon="-1.76071">
        <ele>7.6</ele>
        <time>2020-06-03T11:38:29Z</time>
      </trkpt>
      <trkpt lat="46.4803" lon="-1.76071">
        <ele>7.6</ele>
        <time>2020-06-03T11:38:30Z</time>
      </trkpt>
      <trkpt lat="46.48033" lon="-1.76073">
        <ele>7.5</ele>
        <time>2020-06-03T11:38:31Z</time>
      </trkpt>
      <trkpt lat="46.48036" lon="-1.76074">
        <ele>7.5</ele>
        <time>2020-06-03T11:38:32Z</time>
      </trkpt>
      <trkpt lat="46.48038" lon="-1.76075">
        <ele>7.5</ele>
        <time>2020-06-03T11:38:33Z</time>
      </trkpt>
      <trkpt lat="46.48042" lon="-1.76077">
        <ele>7.4</ele>
        <time>2020-06-03T11:38:34Z</time>
      </trkpt>
      <trkpt lat="46.48043" lon="-1.76078">
        <ele>7.4</ele>
        <time>2020-06-03T11:38:35Z</time>
      </trkpt>
      <trkpt lat="46.48046" lon="-1.76079">
        <ele>7.4</ele>
        <time>2020-06-03T11:38:36Z</time>
      </trkpt>
      <trkpt lat="46.48049" lon="-1.7608">
        <ele>7.3</ele>
        <time>2020-06-03T11:38:37Z</time>
      </trkpt>
      <trkpt lat="46.48052" lon="-1.76079">
        <ele>7.3</ele>
        <time>2020-06-03T11:38:38Z</time>
      </trkpt>
      <trkpt lat="46.48054" lon="-1.7608">
        <ele>7.2</ele>
        <time>2020-06-03T11:38:39Z</time>
      </trkpt>
      <trkpt lat="46.48057" lon="-1.76081">
        <ele>7.2</ele>
        <time>2020-06-03T11:38:40Z</time>
      </trkpt>
      <trkpt lat="46.4806" lon="-1.76083">
        <ele>7.1</ele>
        <time>2020-06-03T11:38:41Z</time>
      </trkpt>
      <trkpt lat="46.48063" lon="-1.76084">
        <ele>7.1</ele>
        <time>2020-06-03T11:38:42Z</time>
      </trkpt>
      <trkpt lat="46.48067" lon="-1.76085">
        <ele>7.1</ele>
        <time>2020-06-03T11:38:43Z</time>
      </trkpt>
      <trkpt lat="46.48071" lon="-1.76085">
        <ele>7.1</ele>
        <time>2020-06-03T11:38:44Z</time>
      </trkpt>
      <trkpt lat="46.48075" lon="-1.76086">
        <ele>7.1</ele>
        <time>2020-06-03T11:38:45Z</time>
      </trkpt>
      <trkpt lat="46.48078" lon="-1.76088">
        <ele>7.1</ele>
        <time>2020-06-03T11:38:46Z</time>
      </trkpt>
      <trkpt lat="46.48082" lon="-1.76089">
        <ele>7</ele>
        <time>2020-06-03T11:38:47Z</time>
      </trkpt>
      <trkpt lat="46.48084" lon="-1.76091">
        <ele>7</ele>
        <time>2020-06-03T11:38:48Z</time>
      </trkpt>
      <trkpt lat="46.48087" lon="-1.76094">
        <ele>7</ele>
        <time>2020-06-03T11:38:49Z</time>
      </trkpt>
      <trkpt lat="46.4809" lon="-1.76097">
        <ele>7</ele>
        <time>2020-06-03T11:38:50Z</time>
      </trkpt>
      <trkpt lat="46.48093" lon="-1.761">
        <ele>7</ele>
        <time>2020-06-03T11:38:51Z</time>
      </trkpt>
      <trkpt lat="46.48096" lon="-1.76103">
        <ele>7</ele>
        <time>2020-06-03T11:38:52Z</time>
      </trkpt>
      <trkpt lat="46.48099" lon="-1.76106">
        <ele>7</ele>
        <time>2020-06-03T11:38:53Z</time>
      </trkpt>
      <trkpt lat="46.48102" lon="-1.76109">
        <ele>7</ele>
        <time>2020-06-03T11:38:54Z</time>
      </trkpt>
      <trkpt lat="46.48105" lon="-1.76113">
        <ele>7</ele>
        <time>2020-06-03T11:38:55Z</time>
      </trkpt>
      <trkpt lat="46.48109" lon="-1.76116">
        <ele>7</ele>
        <time>2020-06-03T11:38:56Z</time>
      </trkpt>
      <trkpt lat="46.48112" lon="-1.76119">
        <ele>7</ele>
        <time>2020-06-03T11:38:57Z</time>
      </trkpt>
      <trkpt lat="46.48115" lon="-1.76125">
        <ele>7</ele>
        <time>2020-06-03T11:38:58Z</time>
      </trkpt>
      <trkpt lat="46.48118" lon="-1.7613">
        <ele>7</ele>
        <time>2020-06-03T11:38:59Z</time>
      </trkpt>
      <trkpt lat="46.48122" lon="-1.76134">
        <ele>7</ele>
        <time>2020-06-03T11:39:00Z</time>
      </trkpt>
      <trkpt lat="46.48126" lon="-1.76138">
        <ele>7</ele>
        <time>2020-06-03T11:39:01Z</time>
      </trkpt>
      <trkpt lat="46.48129" lon="-1.76142">
        <ele>7</ele>
        <time>2020-06-03T11:39:02Z</time>
      </trkpt>
      <trkpt lat="46.48133" lon="-1.76145">
        <ele>7</ele>
        <time>2020-06-03T11:39:03Z</time>
      </trkpt>
      <trkpt lat="46.48138" lon="-1.76149">
        <ele>7</ele>
        <time>2020-06-03T11:39:04Z</time>
      </trkpt>
      <trkpt lat="46.48141" lon="-1.76153">
        <ele>7</ele>
        <time>2020-06-03T11:39:05Z</time>
      </trkpt>
      <trkpt lat="46.48144" lon="-1.76158">
        <ele>7</ele>
        <time>2020-06-03T11:39:06Z</time>
      </trkpt>
      <trkpt lat="46.48148" lon="-1.76162">
        <ele>7.1</ele>
        <time>2020-06-03T11:39:07Z</time>
      </trkpt>
      <trkpt lat="46.48152" lon="-1.76167">
        <ele>7.1</ele>
        <time>2020-06-03T11:39:08Z</time>
      </trkpt>
      <trkpt lat="46.48157" lon="-1.76172">
        <ele>7.1</ele>
        <time>2020-06-03T11:39:09Z</time>
      </trkpt>
      <trkpt lat="46.48161" lon="-1.76177">
        <ele>7.1</ele>
        <time>2020-06-03T11:39:10Z</time>
      </trkpt>
      <trkpt lat="46.48166" lon="-1.76181">
        <ele>7.1</ele>
        <time>2020-06-03T11:39:11Z</time>
      </trkpt>
      <trkpt lat="46.4817" lon="-1.76187">
        <ele>7.1</ele>
        <time>2020-06-03T11:39:12Z</time>
      </trkpt>
      <trkpt lat="46.48174" lon="-1.76192">
        <ele>7.1</ele>
        <time>2020-06-03T11:39:13Z</time>
      </trkpt>
      <trkpt lat="46.48179" lon="-1.76197">
        <ele>7.1</ele>
        <time>2020-06-03T11:39:14Z</time>
      </trkpt>
      <trkpt lat="46.48182" lon="-1.76202">
        <ele>7.2</ele>
        <time>2020-06-03T11:39:15Z</time>
      </trkpt>
      <trkpt lat="46.48186" lon="-1.76206">
        <ele>7.2</ele>
        <time>2020-06-03T11:39:16Z</time>
      </trkpt>
      <trkpt lat="46.48189" lon="-1.76211">
        <ele>7.2</ele>
        <time>2020-06-03T11:39:17Z</time>
      </trkpt>
      <trkpt lat="46.48193" lon="-1.76216">
        <ele>7.2</ele>
        <time>2020-06-03T11:39:18Z</time>
      </trkpt>
      <trkpt lat="46.48197" lon="-1.76221">
        <ele>7.2</ele>
        <time>2020-06-03T11:39:19Z</time>
      </trkpt>
      <trkpt lat="46.48201" lon="-1.76226">
        <ele>7.2</ele>
        <time>2020-06-03T11:39:20Z</time>
      </trkpt>
      <trkpt lat="46.48205" lon="-1.76232">
        <ele>7.2</ele>
        <time>2020-06-03T11:39:21Z</time>
      </trkpt>
      <trkpt lat="46.4821" lon="-1.76237">
        <ele>7.2</ele>
        <time>2020-06-03T11:39:22Z</time>
      </trkpt>
      <trkpt lat="46.48212" lon="-1.76241">
        <ele>7.3</ele>
        <time>2020-06-03T11:39:23Z</time>
      </trkpt>
      <trkpt lat="46.48215" lon="-1.76245">
        <ele>7.3</ele>
        <time>2020-06-03T11:39:24Z</time>
      </trkpt>
      <trkpt lat="46.4822" lon="-1.76251">
        <ele>7.3</ele>
        <time>2020-06-03T11:39:25Z</time>
      </trkpt>
      <trkpt lat="46.48224" lon="-1.76257">
        <ele>7.3</ele>
        <time>2020-06-03T11:39:26Z</time>
      </trkpt>
      <trkpt lat="46.48228" lon="-1.76261">
        <ele>7.3</ele>
        <time>2020-06-03T11:39:27Z</time>
      </trkpt>
      <trkpt lat="46.48233" lon="-1.76266">
        <ele>7.3</ele>
        <time>2020-06-03T11:39:28Z</time>
      </trkpt>
      <trkpt lat="46.48237" lon="-1.76271">
        <ele>7.4</ele>
        <time>2020-06-03T11:39:29Z</time>
      </trkpt>
      <trkpt lat="46.48241" lon="-1.76275">
        <ele>7.4</ele>
        <time>2020-06-03T11:39:30Z</time>
      </trkpt>
      <trkpt lat="46.48244" lon="-1.76279">
        <ele>7.4</ele>
        <time>2020-06-03T11:39:31Z</time>
      </trkpt>
      <trkpt lat="46.48249" lon="-1.76285">
        <ele>7.4</ele>
        <time>2020-06-03T11:39:32Z</time>
      </trkpt>
      <trkpt lat="46.48254" lon="-1.7629">
        <ele>7.4</ele>
        <time>2020-06-03T11:39:33Z</time>
      </trkpt>
      <trkpt lat="46.48258" lon="-1.76295">
        <ele>7.4</ele>
        <time>2020-06-03T11:39:34Z</time>
      </trkpt>
      <trkpt lat="46.48263" lon="-1.763">
        <ele>7.4</ele>
        <time>2020-06-03T11:39:35Z</time>
      </trkpt>
      <trkpt lat="46.48268" lon="-1.76304">
        <ele>7.5</ele>
        <time>2020-06-03T11:39:36Z</time>
      </trkpt>
      <trkpt lat="46.48272" lon="-1.76309">
        <ele>7.5</ele>
        <time>2020-06-03T11:39:37Z</time>
      </trkpt>
      <trkpt lat="46.48277" lon="-1.76315">
        <ele>7.5</ele>
        <time>2020-06-03T11:39:38Z</time>
      </trkpt>
      <trkpt lat="46.48281" lon="-1.7632">
        <ele>7.5</ele>
        <time>2020-06-03T11:39:39Z</time>
      </trkpt>
      <trkpt lat="46.48286" lon="-1.76326">
        <ele>7.5</ele>
        <time>2020-06-03T11:39:40Z</time>
      </trkpt>
      <trkpt lat="46.48291" lon="-1.76332">
        <ele>7.5</ele>
        <time>2020-06-03T11:39:41Z</time>
      </trkpt>
      <trkpt lat="46.48296" lon="-1.76338">
        <ele>7.6</ele>
        <time>2020-06-03T11:39:42Z</time>
      </trkpt>
      <trkpt lat="46.48301" lon="-1.76344">
        <ele>7.6</ele>
        <time>2020-06-03T11:39:43Z</time>
      </trkpt>
      <trkpt lat="46.48304" lon="-1.76349">
        <ele>7.6</ele>
        <time>2020-06-03T11:39:44Z</time>
      </trkpt>
      <trkpt lat="46.48308" lon="-1.76353">
        <ele>7.6</ele>
        <time>2020-06-03T11:39:45Z</time>
      </trkpt>
      <trkpt lat="46.48312" lon="-1.76358">
        <ele>7.6</ele>
        <time>2020-06-03T11:39:46Z</time>
      </trkpt>
      <trkpt lat="46.48315" lon="-1.76362">
        <ele>7.6</ele>
        <time>2020-06-03T11:39:47Z</time>
      </trkpt>
      <trkpt lat="46.48318" lon="-1.76367">
        <ele>7.6</ele>
        <time>2020-06-03T11:39:48Z</time>
      </trkpt>
      <trkpt lat="46.48323" lon="-1.76372">
        <ele>7.6</ele>
        <time>2020-06-03T11:39:49Z</time>
      </trkpt>
      <trkpt lat="46.48327" lon="-1.76377">
        <ele>7.7</ele>
        <time>2020-06-03T11:39:50Z</time>
      </trkpt>
      <trkpt lat="46.48332" lon="-1.76381">
        <ele>7.7</ele>
        <time>2020-06-03T11:39:51Z</time>
      </trkpt>
      <trkpt lat="46.48336" lon="-1.76385">
        <ele>7.7</ele>
        <time>2020-06-03T11:39:52Z</time>
      </trkpt>
      <trkpt lat="46.4834" lon="-1.7639">
        <ele>7.7</ele>
        <time>2020-06-03T11:39:53Z</time>
      </trkpt>
      <trkpt lat="46.48344" lon="-1.76395">
        <ele>7.7</ele>
        <time>2020-06-03T11:39:54Z</time>
      </trkpt>
      <trkpt lat="46.48349" lon="-1.76399">
        <ele>7.7</ele>
        <time>2020-06-03T11:39:55Z</time>
      </trkpt>
      <trkpt lat="46.48353" lon="-1.76405">
        <ele>7.8</ele>
        <time>2020-06-03T11:39:56Z</time>
      </trkpt>
      <trkpt lat="46.48357" lon="-1.7641">
        <ele>7.8</ele>
        <time>2020-06-03T11:39:57Z</time>
      </trkpt>
      <trkpt lat="46.4836" lon="-1.76415">
        <ele>7.8</ele>
        <time>2020-06-03T11:39:58Z</time>
      </trkpt>
      <trkpt lat="46.48364" lon="-1.7642">
        <ele>7.8</ele>
        <time>2020-06-03T11:39:59Z</time>
      </trkpt>
      <trkpt lat="46.48368" lon="-1.76425">
        <ele>7.8</ele>
        <time>2020-06-03T11:40:00Z</time>
      </trkpt>
      <trkpt lat="46.48372" lon="-1.7643">
        <ele>7.9</ele>
        <time>2020-06-03T11:40:01Z</time>
      </trkpt>
      <trkpt lat="46.48377" lon="-1.76435">
        <ele>7.9</ele>
        <time>2020-06-03T11:40:02Z</time>
      </trkpt>
      <trkpt lat="46.48383" lon="-1.76441">
        <ele>7.9</ele>
        <time>2020-06-03T11:40:03Z</time>
      </trkpt>
      <trkpt lat="46.48388" lon="-1.76447">
        <ele>7.9</ele>
        <time>2020-06-03T11:40:04Z</time>
      </trkpt>
      <trkpt lat="46.48392" lon="-1.76452">
        <ele>7.9</ele>
        <time>2020-06-03T11:40:05Z</time>
      </trkpt>
      <trkpt lat="46.48397" lon="-1.76458">
        <ele>8</ele>
        <time>2020-06-03T11:40:06Z</time>
      </trkpt>
      <trkpt lat="46.48402" lon="-1.76463">
        <ele>8</ele>
        <time>2020-06-03T11:40:07Z</time>
      </trkpt>
      <trkpt lat="46.48406" lon="-1.76469">
        <ele>8</ele>
        <time>2020-06-03T11:40:08Z</time>
      </trkpt>
      <trkpt lat="46.48411" lon="-1.76474">
        <ele>8</ele>
        <time>2020-06-03T11:40:09Z</time>
      </trkpt>
      <trkpt lat="46.48414" lon="-1.76479">
        <ele>8</ele>
        <time>2020-06-03T11:40:10Z</time>
      </trkpt>
      <trkpt lat="46.48418" lon="-1.76485">
        <ele>8</ele>
        <time>2020-06-03T11:40:11Z</time>
      </trkpt>
      <trkpt lat="46.48422" lon="-1.7649">
        <ele>8</ele>
        <time>2020-06-03T11:40:12Z</time>
      </trkpt>
      <trkpt lat="46.48426" lon="-1.76495">
        <ele>8</ele>
        <time>2020-06-03T11:40:13Z</time>
      </trkpt>
      <trkpt lat="46.4843" lon="-1.765">
        <ele>8</ele>
        <time>2020-06-03T11:40:14Z</time>
      </trkpt>
      <trkpt lat="46.48434" lon="-1.76504">
        <ele>8</ele>
        <time>2020-06-03T11:40:15Z</time>
      </trkpt>
      <trkpt lat="46.48438" lon="-1.76509">
        <ele>8</ele>
        <time>2020-06-03T11:40:16Z</time>
      </trkpt>
      <trkpt lat="46.48442" lon="-1.76513">
        <ele>8</ele>
        <time>2020-06-03T11:40:17Z</time>
      </trkpt>
      <trkpt lat="46.48446" lon="-1.76518">
        <ele>8</ele>
        <time>2020-06-03T11:40:18Z</time>
      </trkpt>
      <trkpt lat="46.4845" lon="-1.76522">
        <ele>8</ele>
        <time>2020-06-03T11:40:19Z</time>
      </trkpt>
      <trkpt lat="46.48454" lon="-1.76525">
        <ele>8</ele>
        <time>2020-06-03T11:40:20Z</time>
      </trkpt>
      <trkpt lat="46.48458" lon="-1.76528">
        <ele>8.1</ele>
        <time>2020-06-03T11:40:21Z</time>
      </trkpt>
      <trkpt lat="46.48463" lon="-1.76529">
        <ele>8.1</ele>
        <time>2020-06-03T11:40:22Z</time>
      </trkpt>
      <trkpt lat="46.48468" lon="-1.76529">
        <ele>8.1</ele>
        <time>2020-06-03T11:40:23Z</time>
      </trkpt>
      <trkpt lat="46.48474" lon="-1.76531">
        <ele>8.1</ele>
        <time>2020-06-03T11:40:24Z</time>
      </trkpt>
      <trkpt lat="46.48477" lon="-1.76533">
        <ele>8.1</ele>
        <time>2020-06-03T11:40:25Z</time>
      </trkpt>
      <trkpt lat="46.4848" lon="-1.76535">
        <ele>8.1</ele>
        <time>2020-06-03T11:40:26Z</time>
      </trkpt>
      <trkpt lat="46.48484" lon="-1.76538">
        <ele>8.1</ele>
        <time>2020-06-03T11:40:27Z</time>
      </trkpt>
      <trkpt lat="46.48488" lon="-1.76544">
        <ele>8.1</ele>
        <time>2020-06-03T11:40:28Z</time>
      </trkpt>
      <trkpt lat="46.4849" lon="-1.7655">
        <ele>8.1</ele>
        <time>2020-06-03T11:40:29Z</time>
      </trkpt>
      <trkpt lat="46.48494" lon="-1.76557">
        <ele>8.1</ele>
        <time>2020-06-03T11:40:30Z</time>
      </trkpt>
      <trkpt lat="46.48497" lon="-1.76563">
        <ele>8.1</ele>
        <time>2020-06-03T11:40:31Z</time>
      </trkpt>
      <trkpt lat="46.48501" lon="-1.76568">
        <ele>8.1</ele>
        <time>2020-06-03T11:40:32Z</time>
      </trkpt>
      <trkpt lat="46.48507" lon="-1.76572">
        <ele>8.1</ele>
        <time>2020-06-03T11:40:33Z</time>
      </trkpt>
      <trkpt lat="46.48512" lon="-1.76576">
        <ele>8.1</ele>
        <time>2020-06-03T11:40:34Z</time>
      </trkpt>
      <trkpt lat="46.48516" lon="-1.76581">
        <ele>8.1</ele>
        <time>2020-06-03T11:40:35Z</time>
      </trkpt>
      <trkpt lat="46.48521" lon="-1.76585">
        <ele>8.1</ele>
        <time>2020-06-03T11:40:36Z</time>
      </trkpt>
      <trkpt lat="46.48525" lon="-1.7659">
        <ele>8</ele>
        <time>2020-06-03T11:40:37Z</time>
      </trkpt>
      <trkpt lat="46.4853" lon="-1.76594">
        <ele>8</ele>
        <time>2020-06-03T11:40:38Z</time>
      </trkpt>
      <trkpt lat="46.48534" lon="-1.76599">
        <ele>8</ele>
        <time>2020-06-03T11:40:39Z</time>
      </trkpt>
      <trkpt lat="46.48537" lon="-1.76602">
        <ele>8</ele>
        <time>2020-06-03T11:40:40Z</time>
      </trkpt>
      <trkpt lat="46.48541" lon="-1.76606">
        <ele>7.9</ele>
        <time>2020-06-03T11:40:41Z</time>
      </trkpt>
      <trkpt lat="46.48545" lon="-1.76611">
        <ele>7.9</ele>
        <time>2020-06-03T11:40:42Z</time>
      </trkpt>
      <trkpt lat="46.4855" lon="-1.76614">
        <ele>7.9</ele>
        <time>2020-06-03T11:40:43Z</time>
      </trkpt>
      <trkpt lat="46.48556" lon="-1.76619">
        <ele>7.9</ele>
        <time>2020-06-03T11:40:44Z</time>
      </trkpt>
      <trkpt lat="46.48559" lon="-1.76623">
        <ele>7.9</ele>
        <time>2020-06-03T11:40:45Z</time>
      </trkpt>
      <trkpt lat="46.48562" lon="-1.76628">
        <ele>7.9</ele>
        <time>2020-06-03T11:40:46Z</time>
      </trkpt>
      <trkpt lat="46.48566" lon="-1.76632">
        <ele>7.9</ele>
        <time>2020-06-03T11:40:47Z</time>
      </trkpt>
      <trkpt lat="46.48569" lon="-1.76635">
        <ele>7.9</ele>
        <time>2020-06-03T11:40:48Z</time>
      </trkpt>
      <trkpt lat="46.48573" lon="-1.7664">
        <ele>7.9</ele>
        <time>2020-06-03T11:40:49Z</time>
      </trkpt>
      <trkpt lat="46.48578" lon="-1.76646">
        <ele>7.9</ele>
        <time>2020-06-03T11:40:50Z</time>
      </trkpt>
      <trkpt lat="46.48582" lon="-1.76651">
        <ele>8</ele>
        <time>2020-06-03T11:40:51Z</time>
      </trkpt>
      <trkpt lat="46.48587" lon="-1.76655">
        <ele>8</ele>
        <time>2020-06-03T11:40:52Z</time>
      </trkpt>
      <trkpt lat="46.48592" lon="-1.7666">
        <ele>8</ele>
        <time>2020-06-03T11:40:53Z</time>
      </trkpt>
      <trkpt lat="46.48597" lon="-1.76665">
        <ele>8.1</ele>
        <time>2020-06-03T11:40:54Z</time>
      </trkpt>
      <trkpt lat="46.48601" lon="-1.7667">
        <ele>8.1</ele>
        <time>2020-06-03T11:40:55Z</time>
      </trkpt>
      <trkpt lat="46.48607" lon="-1.76674">
        <ele>8.1</ele>
        <time>2020-06-03T11:40:56Z</time>
      </trkpt>
      <trkpt lat="46.48612" lon="-1.76679">
        <ele>8.1</ele>
        <time>2020-06-03T11:40:57Z</time>
      </trkpt>
      <trkpt lat="46.48617" lon="-1.76686">
        <ele>8.1</ele>
        <time>2020-06-03T11:40:58Z</time>
      </trkpt>
      <trkpt lat="46.48622" lon="-1.76691">
        <ele>8.2</ele>
        <time>2020-06-03T11:40:59Z</time>
      </trkpt>
      <trkpt lat="46.48627" lon="-1.76696">
        <ele>8.3</ele>
        <time>2020-06-03T11:41:00Z</time>
      </trkpt>
      <trkpt lat="46.48632" lon="-1.767">
        <ele>8.3</ele>
        <time>2020-06-03T11:41:01Z</time>
      </trkpt>
      <trkpt lat="46.48637" lon="-1.76706">
        <ele>8.4</ele>
        <time>2020-06-03T11:41:02Z</time>
      </trkpt>
      <trkpt lat="46.48642" lon="-1.7671">
        <ele>8.5</ele>
        <time>2020-06-03T11:41:03Z</time>
      </trkpt>
      <trkpt lat="46.48646" lon="-1.76715">
        <ele>8.5</ele>
        <time>2020-06-03T11:41:04Z</time>
      </trkpt>
      <trkpt lat="46.48651" lon="-1.76721">
        <ele>8.6</ele>
        <time>2020-06-03T11:41:05Z</time>
      </trkpt>
      <trkpt lat="46.48655" lon="-1.76727">
        <ele>8.7</ele>
        <time>2020-06-03T11:41:06Z</time>
      </trkpt>
      <trkpt lat="46.48661" lon="-1.76733">
        <ele>8.8</ele>
        <time>2020-06-03T11:41:07Z</time>
      </trkpt>
      <trkpt lat="46.48665" lon="-1.76739">
        <ele>8.9</ele>
        <time>2020-06-03T11:41:08Z</time>
      </trkpt>
      <trkpt lat="46.48669" lon="-1.76746">
        <ele>9</ele>
        <time>2020-06-03T11:41:09Z</time>
      </trkpt>
      <trkpt lat="46.48675" lon="-1.7675">
        <ele>9.1</ele>
        <time>2020-06-03T11:41:10Z</time>
      </trkpt>
      <trkpt lat="46.48682" lon="-1.76754">
        <ele>9.1</ele>
        <time>2020-06-03T11:41:11Z</time>
      </trkpt>
      <trkpt lat="46.48687" lon="-1.76758">
        <ele>9.2</ele>
        <time>2020-06-03T11:41:12Z</time>
      </trkpt>
      <trkpt lat="46.48692" lon="-1.7676">
        <ele>9.2</ele>
        <time>2020-06-03T11:41:13Z</time>
      </trkpt>
      <trkpt lat="46.48698" lon="-1.76765">
        <ele>9.2</ele>
        <time>2020-06-03T11:41:14Z</time>
      </trkpt>
      <trkpt lat="46.48702" lon="-1.76771">
        <ele>9.2</ele>
        <time>2020-06-03T11:41:15Z</time>
      </trkpt>
      <trkpt lat="46.48707" lon="-1.76777">
        <ele>9.2</ele>
        <time>2020-06-03T11:41:16Z</time>
      </trkpt>
      <trkpt lat="46.48711" lon="-1.76782">
        <ele>9.2</ele>
        <time>2020-06-03T11:41:17Z</time>
      </trkpt>
      <trkpt lat="46.48715" lon="-1.76787">
        <ele>9.2</ele>
        <time>2020-06-03T11:41:18Z</time>
      </trkpt>
      <trkpt lat="46.4872" lon="-1.7679">
        <ele>9.2</ele>
        <time>2020-06-03T11:41:19Z</time>
      </trkpt>
      <trkpt lat="46.48725" lon="-1.76795">
        <ele>9.2</ele>
        <time>2020-06-03T11:41:20Z</time>
      </trkpt>
      <trkpt lat="46.4873" lon="-1.76799">
        <ele>9.2</ele>
        <time>2020-06-03T11:41:21Z</time>
      </trkpt>
      <trkpt lat="46.48735" lon="-1.76802">
        <ele>9.2</ele>
        <time>2020-06-03T11:41:22Z</time>
      </trkpt>
      <trkpt lat="46.48741" lon="-1.76806">
        <ele>9.2</ele>
        <time>2020-06-03T11:41:23Z</time>
      </trkpt>
      <trkpt lat="46.48746" lon="-1.76811">
        <ele>9.1</ele>
        <time>2020-06-03T11:41:24Z</time>
      </trkpt>
      <trkpt lat="46.48751" lon="-1.76817">
        <ele>9</ele>
        <time>2020-06-03T11:41:25Z</time>
      </trkpt>
      <trkpt lat="46.48756" lon="-1.76823">
        <ele>9</ele>
        <time>2020-06-03T11:41:26Z</time>
      </trkpt>
      <trkpt lat="46.48761" lon="-1.76828">
        <ele>9</ele>
        <time>2020-06-03T11:41:27Z</time>
      </trkpt>
      <trkpt lat="46.48766" lon="-1.76832">
        <ele>9</ele>
        <time>2020-06-03T11:41:28Z</time>
      </trkpt>
      <trkpt lat="46.4877" lon="-1.76838">
        <ele>9</ele>
        <time>2020-06-03T11:41:29Z</time>
      </trkpt>
      <trkpt lat="46.48776" lon="-1.76843">
        <ele>8.9</ele>
        <time>2020-06-03T11:41:30Z</time>
      </trkpt>
      <trkpt lat="46.4878" lon="-1.76852">
        <ele>8.8</ele>
        <time>2020-06-03T11:41:31Z</time>
      </trkpt>
      <trkpt lat="46.48785" lon="-1.76858">
        <ele>8.8</ele>
        <time>2020-06-03T11:41:32Z</time>
      </trkpt>
      <trkpt lat="46.4879" lon="-1.76862">
        <ele>8.7</ele>
        <time>2020-06-03T11:41:33Z</time>
      </trkpt>
      <trkpt lat="46.48795" lon="-1.76869">
        <ele>8.6</ele>
        <time>2020-06-03T11:41:34Z</time>
      </trkpt>
      <trkpt lat="46.48801" lon="-1.76875">
        <ele>8.6</ele>
        <time>2020-06-03T11:41:35Z</time>
      </trkpt>
      <trkpt lat="46.48807" lon="-1.76881">
        <ele>8.6</ele>
        <time>2020-06-03T11:41:36Z</time>
      </trkpt>
      <trkpt lat="46.48814" lon="-1.76883">
        <ele>8.5</ele>
        <time>2020-06-03T11:41:37Z</time>
      </trkpt>
      <trkpt lat="46.48817" lon="-1.76889">
        <ele>8.5</ele>
        <time>2020-06-03T11:41:38Z</time>
      </trkpt>
      <trkpt lat="46.48823" lon="-1.76894">
        <ele>8.4</ele>
        <time>2020-06-03T11:41:39Z</time>
      </trkpt>
      <trkpt lat="46.48829" lon="-1.76898">
        <ele>8.3</ele>
        <time>2020-06-03T11:41:40Z</time>
      </trkpt>
      <trkpt lat="46.48834" lon="-1.76903">
        <ele>8.2</ele>
        <time>2020-06-03T11:41:41Z</time>
      </trkpt>
      <trkpt lat="46.48839" lon="-1.76907">
        <ele>8.1</ele>
        <time>2020-06-03T11:41:42Z</time>
      </trkpt>
      <trkpt lat="46.48843" lon="-1.76913">
        <ele>8.1</ele>
        <time>2020-06-03T11:41:43Z</time>
      </trkpt>
      <trkpt lat="46.48848" lon="-1.76918">
        <ele>8</ele>
        <time>2020-06-03T11:41:44Z</time>
      </trkpt>
      <trkpt lat="46.48853" lon="-1.76923">
        <ele>7.9</ele>
        <time>2020-06-03T11:41:45Z</time>
      </trkpt>
      <trkpt lat="46.48859" lon="-1.76927">
        <ele>7.8</ele>
        <time>2020-06-03T11:41:46Z</time>
      </trkpt>
      <trkpt lat="46.48864" lon="-1.76932">
        <ele>8</ele>
        <time>2020-06-03T11:41:47Z</time>
      </trkpt>
      <trkpt lat="46.48869" lon="-1.76937">
        <ele>8.1</ele>
        <time>2020-06-03T11:41:48Z</time>
      </trkpt>
      <trkpt lat="46.48873" lon="-1.76942">
        <ele>8.1</ele>
        <time>2020-06-03T11:41:49Z</time>
      </trkpt>
      <trkpt lat="46.48878" lon="-1.76945">
        <ele>8.1</ele>
        <time>2020-06-03T11:41:50Z</time>
      </trkpt>
      <trkpt lat="46.48882" lon="-1.76946">
        <ele>8.2</ele>
        <time>2020-06-03T11:41:51Z</time>
      </trkpt>
      <trkpt lat="46.48885" lon="-1.76941">
        <ele>8.3</ele>
        <time>2020-06-03T11:41:52Z</time>
      </trkpt>
      <trkpt lat="46.48891" lon="-1.76928">
        <ele>8.4</ele>
        <time>2020-06-03T11:41:53Z</time>
      </trkpt>
      <trkpt lat="46.48897" lon="-1.7692">
        <ele>8.5</ele>
        <time>2020-06-03T11:41:54Z</time>
      </trkpt>
      <trkpt lat="46.489" lon="-1.76918">
        <ele>8.5</ele>
        <time>2020-06-03T11:41:55Z</time>
      </trkpt>
      <trkpt lat="46.48903" lon="-1.76916">
        <ele>8.8</ele>
        <time>2020-06-03T11:41:56Z</time>
      </trkpt>
      <trkpt lat="46.48904" lon="-1.76914">
        <ele>8.8</ele>
        <time>2020-06-03T11:41:57Z</time>
      </trkpt>
      <trkpt lat="46.48906" lon="-1.76911">
        <ele>8.9</ele>
        <time>2020-06-03T11:41:58Z</time>
      </trkpt>
      <trkpt lat="46.48908" lon="-1.76909">
        <ele>8.9</ele>
        <time>2020-06-03T11:41:59Z</time>
      </trkpt>
      <trkpt lat="46.48909" lon="-1.76906">
        <ele>8.9</ele>
        <time>2020-06-03T11:42:00Z</time>
      </trkpt>
      <trkpt lat="46.48909" lon="-1.76904">
        <ele>8.9</ele>
        <time>2020-06-03T11:42:01Z</time>
      </trkpt>
      <trkpt lat="46.48909" lon="-1.76899">
        <ele>9.1</ele>
        <time>2020-06-03T11:42:02Z</time>
      </trkpt>
      <trkpt lat="46.48909" lon="-1.76897">
        <ele>9.1</ele>
        <time>2020-06-03T11:42:03Z</time>
      </trkpt>
      <trkpt lat="46.48909" lon="-1.76892">
        <ele>9.1</ele>
        <time>2020-06-03T11:42:04Z</time>
      </trkpt>
      <trkpt lat="46.48909" lon="-1.76885">
        <ele>9.2</ele>
        <time>2020-06-03T11:42:05Z</time>
      </trkpt>
      <trkpt lat="46.4891" lon="-1.76881">
        <ele>9.3</ele>
        <time>2020-06-03T11:42:06Z</time>
      </trkpt>
      <trkpt lat="46.4891" lon="-1.76876">
        <ele>9.4</ele>
        <time>2020-06-03T11:42:07Z</time>
      </trkpt>
      <trkpt lat="46.4891" lon="-1.76876">
        <ele>9.4</ele>
        <time>2020-06-03T11:42:08Z</time>
      </trkpt>
      <trkpt lat="46.48911" lon="-1.76871">
        <ele>9.4</ele>
        <time>2020-06-03T11:42:09Z</time>
      </trkpt>
      <trkpt lat="46.48911" lon="-1.7687">
        <ele>9.5</ele>
        <time>2020-06-03T11:42:10Z</time>
      </trkpt>
      <trkpt lat="46.48911" lon="-1.76868">
        <ele>9.5</ele>
        <time>2020-06-03T11:42:11Z</time>
      </trkpt>
      <trkpt lat="46.48912" lon="-1.76866">
        <ele>9.5</ele>
        <time>2020-06-03T11:42:12Z</time>
      </trkpt>
      <trkpt lat="46.48912" lon="-1.76863">
        <ele>9.6</ele>
        <time>2020-06-03T11:42:13Z</time>
      </trkpt>
      <trkpt lat="46.48913" lon="-1.76861">
        <ele>9.6</ele>
        <time>2020-06-03T11:42:14Z</time>
      </trkpt>
      <trkpt lat="46.48913" lon="-1.7686">
        <ele>9.6</ele>
        <time>2020-06-03T11:42:15Z</time>
      </trkpt>
      <trkpt lat="46.48913" lon="-1.76858">
        <ele>9.7</ele>
        <time>2020-06-03T11:42:16Z</time>
      </trkpt>
      <trkpt lat="46.48913" lon="-1.76857">
        <ele>9.7</ele>
        <time>2020-06-03T11:42:17Z</time>
      </trkpt>
      <trkpt lat="46.48913" lon="-1.76857">
        <ele>9.7</ele>
        <time>2020-06-03T11:42:18Z</time>
      </trkpt>
      <trkpt lat="46.48913" lon="-1.76857">
        <ele>9.7</ele>
        <time>2020-06-03T11:42:19Z</time>
      </trkpt>
      <trkpt lat="46.48913" lon="-1.76857">
        <ele>9.7</ele>
        <time>2020-06-03T11:42:20Z</time>
      </trkpt>
      <trkpt lat="46.48913" lon="-1.76857">
        <ele>9.7</ele>
        <time>2020-06-03T11:42:21Z</time>
      </trkpt>
      <trkpt lat="46.48913" lon="-1.76857">
        <ele>9.7</ele>
        <time>2020-06-03T11:42:22Z</time>
      </trkpt>
      <trkpt lat="46.48913" lon="-1.76857">
        <ele>9.7</ele>
        <time>2020-06-03T11:42:23Z</time>
      </trkpt>
      <trkpt lat="46.48914" lon="-1.76857">
        <ele>9.7</ele>
        <time>2020-06-03T11:42:24Z</time>
      </trkpt>
      <trkpt lat="46.48913" lon="-1.76858">
        <ele>9.7</ele>
        <time>2020-06-03T11:42:25Z</time>
      </trkpt>
      <trkpt lat="46.48913" lon="-1.76859">
        <ele>9.7</ele>
        <time>2020-06-03T11:42:26Z</time>
      </trkpt>
      <trkpt lat="46.48914" lon="-1.76858">
        <ele>9.7</ele>
        <time>2020-06-03T11:42:27Z</time>
      </trkpt>
      <trkpt lat="46.48914" lon="-1.76858">
        <ele>9.7</ele>
        <time>2020-06-03T11:42:28Z</time>
      </trkpt>
      <trkpt lat="46.48914" lon="-1.76857">
        <ele>9.7</ele>
        <time>2020-06-03T11:42:29Z</time>
      </trkpt>
      <trkpt lat="46.48914" lon="-1.76856">
        <ele>9.7</ele>
        <time>2020-06-03T11:42:30Z</time>
      </trkpt>
      <trkpt lat="46.48914" lon="-1.76856">
        <ele>9.7</ele>
        <time>2020-06-03T11:42:31Z</time>
      </trkpt>
      <trkpt lat="46.48914" lon="-1.76855">
        <ele>9.7</ele>
        <time>2020-06-03T11:42:32Z</time>
      </trkpt>
      <trkpt lat="46.48914" lon="-1.76855">
        <ele>9.7</ele>
        <time>2020-06-03T11:42:33Z</time>
      </trkpt>
      <trkpt lat="46.48914" lon="-1.76854">
        <ele>9.8</ele>
        <time>2020-06-03T11:42:34Z</time>
      </trkpt>
      <trkpt lat="46.48913" lon="-1.76853">
        <ele>9.8</ele>
        <time>2020-06-03T11:42:35Z</time>
      </trkpt>
      <trkpt lat="46.48913" lon="-1.76852">
        <ele>9.8</ele>
        <time>2020-06-03T11:42:36Z</time>
      </trkpt>
      <trkpt lat="46.48913" lon="-1.76851">
        <ele>9.8</ele>
        <time>2020-06-03T11:42:37Z</time>
      </trkpt>
      <trkpt lat="46.48913" lon="-1.76851">
        <ele>9.8</ele>
        <time>2020-06-03T11:42:38Z</time>
      </trkpt>
      <trkpt lat="46.48913" lon="-1.76851">
        <ele>9.8</ele>
        <time>2020-06-03T11:42:39Z</time>
      </trkpt>
      <trkpt lat="46.48913" lon="-1.76851">
        <ele>9.8</ele>
        <time>2020-06-03T11:42:40Z</time>
      </trkpt>
      <trkpt lat="46.48912" lon="-1.76851">
        <ele>9.8</ele>
        <time>2020-06-03T11:42:41Z</time>
      </trkpt>
      <trkpt lat="46.48912" lon="-1.76851">
        <ele>9.8</ele>
        <time>2020-06-03T11:42:42Z</time>
      </trkpt>
      <trkpt lat="46.48912" lon="-1.76851">
        <ele>9.8</ele>
        <time>2020-06-03T11:42:43Z</time>
      </trkpt>
      <trkpt lat="46.48912" lon="-1.76851">
        <ele>9.8</ele>
        <time>2020-06-03T11:42:44Z</time>
      </trkpt>
      <trkpt lat="46.48911" lon="-1.76851">
        <ele>9.8</ele>
        <time>2020-06-03T11:42:45Z</time>
      </trkpt>
      <trkpt lat="46.48911" lon="-1.7685">
        <ele>9.8</ele>
        <time>2020-06-03T11:42:46Z</time>
      </trkpt>
      <trkpt lat="46.4891" lon="-1.7685">
        <ele>9.8</ele>
        <time>2020-06-03T11:42:47Z</time>
      </trkpt>
      <trkpt lat="46.48911" lon="-1.76849">
        <ele>9.8</ele>
        <time>2020-06-03T11:42:48Z</time>
      </trkpt>
      <trkpt lat="46.4891" lon="-1.76848">
        <ele>9.8</ele>
        <time>2020-06-03T11:42:49Z</time>
      </trkpt>
      <trkpt lat="46.4891" lon="-1.76847">
        <ele>9.9</ele>
        <time>2020-06-03T11:42:50Z</time>
      </trkpt>
      <trkpt lat="46.4891" lon="-1.76847">
        <ele>9.9</ele>
        <time>2020-06-03T11:42:51Z</time>
      </trkpt>
      <trkpt lat="46.4891" lon="-1.76847">
        <ele>9.9</ele>
        <time>2020-06-03T11:42:52Z</time>
      </trkpt>
      <trkpt lat="46.4891" lon="-1.76846">
        <ele>9.9</ele>
        <time>2020-06-03T11:42:53Z</time>
      </trkpt>
      <trkpt lat="46.4891" lon="-1.76846">
        <ele>9.9</ele>
        <time>2020-06-03T11:42:54Z</time>
      </trkpt>
      <trkpt lat="46.48911" lon="-1.76845">
        <ele>9.9</ele>
        <time>2020-06-03T11:42:55Z</time>
      </trkpt>
      <trkpt lat="46.4891" lon="-1.76844">
        <ele>9.9</ele>
        <time>2020-06-03T11:42:56Z</time>
      </trkpt>
      <trkpt lat="46.4891" lon="-1.76843">
        <ele>9.9</ele>
        <time>2020-06-03T11:42:57Z</time>
      </trkpt>
      <trkpt lat="46.48909" lon="-1.76841">
        <ele>9.9</ele>
        <time>2020-06-03T11:42:58Z</time>
      </trkpt>
      <trkpt lat="46.48908" lon="-1.76839">
        <ele>9.9</ele>
        <time>2020-06-03T11:42:59Z</time>
      </trkpt>
      <trkpt lat="46.48908" lon="-1.76839">
        <ele>9.9</ele>
        <time>2020-06-03T11:43:00Z</time>
      </trkpt>
      <trkpt lat="46.48908" lon="-1.76838">
        <ele>10</ele>
        <time>2020-06-03T11:43:01Z</time>
      </trkpt>
      <trkpt lat="46.48908" lon="-1.76837">
        <ele>10</ele>
        <time>2020-06-03T11:43:02Z</time>
      </trkpt>
      <trkpt lat="46.48909" lon="-1.76837">
        <ele>10</ele>
        <time>2020-06-03T11:43:03Z</time>
      </trkpt>
      <trkpt lat="46.4891" lon="-1.76837">
        <ele>10</ele>
        <time>2020-06-03T11:43:04Z</time>
      </trkpt>
      <trkpt lat="46.48911" lon="-1.76838">
        <ele>10</ele>
        <time>2020-06-03T11:43:05Z</time>
      </trkpt>
      <trkpt lat="46.48912" lon="-1.76838">
        <ele>10</ele>
        <time>2020-06-03T11:43:06Z</time>
      </trkpt>
      <trkpt lat="46.48913" lon="-1.76838">
        <ele>10.1</ele>
        <time>2020-06-03T11:43:07Z</time>
      </trkpt>
      <trkpt lat="46.48914" lon="-1.76839">
        <ele>10.1</ele>
        <time>2020-06-03T11:43:08Z</time>
      </trkpt>
      <trkpt lat="46.48915" lon="-1.76839">
        <ele>10.1</ele>
        <time>2020-06-03T11:43:09Z</time>
      </trkpt>
      <trkpt lat="46.48917" lon="-1.76839">
        <ele>10.1</ele>
        <time>2020-06-03T11:43:10Z</time>
      </trkpt>
      <trkpt lat="46.48918" lon="-1.7684">
        <ele>10.1</ele>
        <time>2020-06-03T11:43:11Z</time>
      </trkpt>
      <trkpt lat="46.48919" lon="-1.7684">
        <ele>10.1</ele>
        <time>2020-06-03T11:43:12Z</time>
      </trkpt>
      <trkpt lat="46.4892" lon="-1.7684">
        <ele>10</ele>
        <time>2020-06-03T11:43:13Z</time>
      </trkpt>
      <trkpt lat="46.48921" lon="-1.76841">
        <ele>10</ele>
        <time>2020-06-03T11:44:55Z</time>
      </trkpt>
      <trkpt lat="46.48922" lon="-1.76841">
        <ele>10</ele>
        <time>2020-06-03T11:44:56Z</time>
      </trkpt>
      <trkpt lat="46.48923" lon="-1.76842">
        <ele>10</ele>
        <time>2020-06-03T11:44:57Z</time>
      </trkpt>
      <trkpt lat="46.48924" lon="-1.76842">
        <ele>10</ele>
        <time>2020-06-03T11:44:58Z</time>
      </trkpt>
      <trkpt lat="46.48925" lon="-1.76842">
        <ele>10</ele>
        <time>2020-06-03T11:44:59Z</time>
      </trkpt>
      <trkpt lat="46.48926" lon="-1.76843">
        <ele>10</ele>
        <time>2020-06-03T11:45:00Z</time>
      </trkpt>
      <trkpt lat="46.48927" lon="-1.76843">
        <ele>10</ele>
        <time>2020-06-03T11:45:01Z</time>
      </trkpt>
      <trkpt lat="46.48928" lon="-1.76843">
        <ele>9.9</ele>
        <time>2020-06-03T11:45:02Z</time>
      </trkpt>
      <trkpt lat="46.48929" lon="-1.76844">
        <ele>9.9</ele>
        <time>2020-06-03T11:45:03Z</time>
      </trkpt>
      <trkpt lat="46.48931" lon="-1.76844">
        <ele>9.9</ele>
        <time>2020-06-03T11:45:04Z</time>
      </trkpt>
      <trkpt lat="46.4893" lon="-1.76844">
        <ele>9.9</ele>
        <time>2020-06-03T11:45:05Z</time>
      </trkpt>
      <trkpt lat="46.4893" lon="-1.76845">
        <ele>9.9</ele>
        <time>2020-06-03T11:45:06Z</time>
      </trkpt>
      <trkpt lat="46.4893" lon="-1.76847">
        <ele>9.9</ele>
        <time>2020-06-03T11:45:07Z</time>
      </trkpt>
      <trkpt lat="46.4893" lon="-1.76848">
        <ele>9.9</ele>
        <time>2020-06-03T11:45:08Z</time>
      </trkpt>
      <trkpt lat="46.48929" lon="-1.76849">
        <ele>9.9</ele>
        <time>2020-06-03T11:45:09Z</time>
      </trkpt>
      <trkpt lat="46.48929" lon="-1.7685">
        <ele>9.9</ele>
        <time>2020-06-03T11:45:10Z</time>
      </trkpt>
      <trkpt lat="46.48929" lon="-1.7685">
        <ele>9.9</ele>
        <time>2020-06-03T11:45:11Z</time>
      </trkpt>
      <trkpt lat="46.48929" lon="-1.76849">
        <ele>9.9</ele>
        <time>2020-06-03T11:45:12Z</time>
      </trkpt>
      <trkpt lat="46.48928" lon="-1.7685">
        <ele>9.8</ele>
        <time>2020-06-03T11:45:13Z</time>
      </trkpt>
      <trkpt lat="46.48927" lon="-1.7685">
        <ele>9.8</ele>
        <time>2020-06-03T11:45:14Z</time>
      </trkpt>
      <trkpt lat="46.48926" lon="-1.76852">
        <ele>9.8</ele>
        <time>2020-06-03T11:45:15Z</time>
      </trkpt>
      <trkpt lat="46.48924" lon="-1.76852">
        <ele>9.8</ele>
        <time>2020-06-03T11:45:16Z</time>
      </trkpt>
      <trkpt lat="46.48923" lon="-1.76852">
        <ele>9.8</ele>
        <time>2020-06-03T11:45:17Z</time>
      </trkpt>
      <trkpt lat="46.48922" lon="-1.76851">
        <ele>9.8</ele>
        <time>2020-06-03T11:45:18Z</time>
      </trkpt>
      <trkpt lat="46.48922" lon="-1.76851">
        <ele>9.8</ele>
        <time>2020-06-03T11:45:19Z</time>
      </trkpt>
      <trkpt lat="46.48922" lon="-1.7685">
        <ele>9.8</ele>
        <time>2020-06-03T11:45:20Z</time>
      </trkpt>
      <trkpt lat="46.48922" lon="-1.7685">
        <ele>9.8</ele>
        <time>2020-06-03T11:45:21Z</time>
      </trkpt>
      <trkpt lat="46.48923" lon="-1.7685">
        <ele>9.8</ele>
        <time>2020-06-03T11:45:22Z</time>
      </trkpt>
      <trkpt lat="46.48922" lon="-1.7685">
        <ele>9.8</ele>
        <time>2020-06-03T11:45:23Z</time>
      </trkpt>
      <trkpt lat="46.48922" lon="-1.76851">
        <ele>9.7</ele>
        <time>2020-06-03T11:45:24Z</time>
      </trkpt>
      <trkpt lat="46.48921" lon="-1.76852">
        <ele>9.7</ele>
        <time>2020-06-03T11:45:25Z</time>
      </trkpt>
      <trkpt lat="46.48922" lon="-1.76858">
        <ele>9.7</ele>
        <time>2020-06-03T11:50:04Z</time>
      </trkpt>
      <trkpt lat="46.48922" lon="-1.7686">
        <ele>9.7</ele>
        <time>2020-06-03T11:50:05Z</time>
      </trkpt>
      <trkpt lat="46.48922" lon="-1.76862">
        <ele>9.7</ele>
        <time>2020-06-03T11:50:06Z</time>
      </trkpt>
      <trkpt lat="46.48923" lon="-1.76864">
        <ele>9.6</ele>
        <time>2020-06-03T11:50:07Z</time>
      </trkpt>
      <trkpt lat="46.48923" lon="-1.76869">
        <ele>9.6</ele>
        <time>2020-06-03T11:50:08Z</time>
      </trkpt>
      <trkpt lat="46.48923" lon="-1.76871">
        <ele>9.5</ele>
        <time>2020-06-03T11:50:09Z</time>
      </trkpt>
      <trkpt lat="46.4892" lon="-1.76876">
        <ele>9.5</ele>
        <time>2020-06-03T11:50:10Z</time>
      </trkpt>
      <trkpt lat="46.48919" lon="-1.76878">
        <ele>9.4</ele>
        <time>2020-06-03T11:50:11Z</time>
      </trkpt>
      <trkpt lat="46.48917" lon="-1.76883">
        <ele>9.3</ele>
        <time>2020-06-03T11:50:12Z</time>
      </trkpt>
      <trkpt lat="46.48917" lon="-1.76885">
        <ele>9.3</ele>
        <time>2020-06-03T11:50:13Z</time>
      </trkpt>
      <trkpt lat="46.48917" lon="-1.76889">
        <ele>9.2</ele>
        <time>2020-06-03T11:50:14Z</time>
      </trkpt>
      <trkpt lat="46.48917" lon="-1.76895">
        <ele>9.1</ele>
        <time>2020-06-03T11:50:15Z</time>
      </trkpt>
      <trkpt lat="46.48917" lon="-1.76901">
        <ele>9</ele>
        <time>2020-06-03T11:50:16Z</time>
      </trkpt>
      <trkpt lat="46.48918" lon="-1.76906">
        <ele>9</ele>
        <time>2020-06-03T11:50:17Z</time>
      </trkpt>
      <trkpt lat="46.48919" lon="-1.7691">
        <ele>9</ele>
        <time>2020-06-03T11:50:18Z</time>
      </trkpt>
      <trkpt lat="46.48919" lon="-1.76916">
        <ele>8.9</ele>
        <time>2020-06-03T11:50:19Z</time>
      </trkpt>
      <trkpt lat="46.4892" lon="-1.76921">
        <ele>8.8</ele>
        <time>2020-06-03T11:50:20Z</time>
      </trkpt>
      <trkpt lat="46.4892" lon="-1.76926">
        <ele>8.7</ele>
        <time>2020-06-03T11:50:21Z</time>
      </trkpt>
      <trkpt lat="46.48921" lon="-1.76932">
        <ele>8.6</ele>
        <time>2020-06-03T11:50:22Z</time>
      </trkpt>
      <trkpt lat="46.48923" lon="-1.76937">
        <ele>8.6</ele>
        <time>2020-06-03T11:50:23Z</time>
      </trkpt>
      <trkpt lat="46.48924" lon="-1.76943">
        <ele>8.3</ele>
        <time>2020-06-03T11:50:24Z</time>
      </trkpt>
      <trkpt lat="46.48925" lon="-1.76949">
        <ele>8.3</ele>
        <time>2020-06-03T11:50:25Z</time>
      </trkpt>
      <trkpt lat="46.48925" lon="-1.76956">
        <ele>8.2</ele>
        <time>2020-06-03T11:50:26Z</time>
      </trkpt>
      <trkpt lat="46.48926" lon="-1.76961">
        <ele>8.1</ele>
        <time>2020-06-03T11:50:27Z</time>
      </trkpt>
      <trkpt lat="46.48927" lon="-1.76967">
        <ele>8</ele>
        <time>2020-06-03T11:50:28Z</time>
      </trkpt>
      <trkpt lat="46.48929" lon="-1.76973">
        <ele>7.9</ele>
        <time>2020-06-03T11:50:29Z</time>
      </trkpt>
      <trkpt lat="46.48931" lon="-1.76979">
        <ele>7.8</ele>
        <time>2020-06-03T11:50:30Z</time>
      </trkpt>
      <trkpt lat="46.48933" lon="-1.76985">
        <ele>7.6</ele>
        <time>2020-06-03T11:50:31Z</time>
      </trkpt>
      <trkpt lat="46.48936" lon="-1.76992">
        <ele>7.5</ele>
        <time>2020-06-03T11:50:32Z</time>
      </trkpt>
      <trkpt lat="46.48939" lon="-1.76999">
        <ele>7.4</ele>
        <time>2020-06-03T11:50:33Z</time>
      </trkpt>
      <trkpt lat="46.48941" lon="-1.77005">
        <ele>7.3</ele>
        <time>2020-06-03T11:50:34Z</time>
      </trkpt>
      <trkpt lat="46.48944" lon="-1.77011">
        <ele>7.2</ele>
        <time>2020-06-03T11:50:35Z</time>
      </trkpt>
      <trkpt lat="46.48946" lon="-1.77018">
        <ele>7.1</ele>
        <time>2020-06-03T11:50:36Z</time>
      </trkpt>
      <trkpt lat="46.48949" lon="-1.77025">
        <ele>7.1</ele>
        <time>2020-06-03T11:50:37Z</time>
      </trkpt>
      <trkpt lat="46.48951" lon="-1.77031">
        <ele>7</ele>
        <time>2020-06-03T11:50:38Z</time>
      </trkpt>
      <trkpt lat="46.48952" lon="-1.77036">
        <ele>7</ele>
        <time>2020-06-03T11:50:39Z</time>
      </trkpt>
      <trkpt lat="46.48955" lon="-1.77043">
        <ele>7</ele>
        <time>2020-06-03T11:50:40Z</time>
      </trkpt>
      <trkpt lat="46.48957" lon="-1.77049">
        <ele>7</ele>
        <time>2020-06-03T11:50:41Z</time>
      </trkpt>
      <trkpt lat="46.48959" lon="-1.77055">
        <ele>6.9</ele>
        <time>2020-06-03T11:50:42Z</time>
      </trkpt>
      <trkpt lat="46.48961" lon="-1.77061">
        <ele>6.9</ele>
        <time>2020-06-03T11:50:43Z</time>
      </trkpt>
      <trkpt lat="46.48964" lon="-1.77067">
        <ele>6.9</ele>
        <time>2020-06-03T11:50:44Z</time>
      </trkpt>
      <trkpt lat="46.48966" lon="-1.77073">
        <ele>6.9</ele>
        <time>2020-06-03T11:50:45Z</time>
      </trkpt>
      <trkpt lat="46.48969" lon="-1.77078">
        <ele>6.9</ele>
        <time>2020-06-03T11:50:46Z</time>
      </trkpt>
      <trkpt lat="46.48972" lon="-1.77082">
        <ele>6.9</ele>
        <time>2020-06-03T11:50:47Z</time>
      </trkpt>
      <trkpt lat="46.48976" lon="-1.77087">
        <ele>6.9</ele>
        <time>2020-06-03T11:50:48Z</time>
      </trkpt>
      <trkpt lat="46.48979" lon="-1.77094">
        <ele>6.8</ele>
        <time>2020-06-03T11:50:49Z</time>
      </trkpt>
      <trkpt lat="46.48982" lon="-1.77097">
        <ele>6.8</ele>
        <time>2020-06-03T11:50:50Z</time>
      </trkpt>
      <trkpt lat="46.48984" lon="-1.77102">
        <ele>6.8</ele>
        <time>2020-06-03T11:50:51Z</time>
      </trkpt>
      <trkpt lat="46.48986" lon="-1.77107">
        <ele>6.8</ele>
        <time>2020-06-03T11:50:52Z</time>
      </trkpt>
      <trkpt lat="46.48988" lon="-1.77113">
        <ele>6.8</ele>
        <time>2020-06-03T11:50:53Z</time>
      </trkpt>
      <trkpt lat="46.48991" lon="-1.77119">
        <ele>6.8</ele>
        <time>2020-06-03T11:50:54Z</time>
      </trkpt>
      <trkpt lat="46.48993" lon="-1.77126">
        <ele>6.8</ele>
        <time>2020-06-03T11:50:55Z</time>
      </trkpt>
      <trkpt lat="46.48996" lon="-1.77132">
        <ele>6.8</ele>
        <time>2020-06-03T11:50:56Z</time>
      </trkpt>
      <trkpt lat="46.48998" lon="-1.77136">
        <ele>6.8</ele>
        <time>2020-06-03T11:50:57Z</time>
      </trkpt>
      <trkpt lat="46.49" lon="-1.7714">
        <ele>6.8</ele>
        <time>2020-06-03T11:50:58Z</time>
      </trkpt>
      <trkpt lat="46.49003" lon="-1.77145">
        <ele>6.8</ele>
        <time>2020-06-03T11:50:59Z</time>
      </trkpt>
      <trkpt lat="46.49005" lon="-1.7715">
        <ele>6.8</ele>
        <time>2020-06-03T11:51:00Z</time>
      </trkpt>
      <trkpt lat="46.49007" lon="-1.77156">
        <ele>6.7</ele>
        <time>2020-06-03T11:51:01Z</time>
      </trkpt>
      <trkpt lat="46.4901" lon="-1.77163">
        <ele>6.7</ele>
        <time>2020-06-03T11:51:02Z</time>
      </trkpt>
      <trkpt lat="46.49012" lon="-1.77169">
        <ele>6.7</ele>
        <time>2020-06-03T11:51:03Z</time>
      </trkpt>
      <trkpt lat="46.49015" lon="-1.77176">
        <ele>6.7</ele>
        <time>2020-06-03T11:51:04Z</time>
      </trkpt>
      <trkpt lat="46.49018" lon="-1.7718">
        <ele>6.7</ele>
        <time>2020-06-03T11:51:05Z</time>
      </trkpt>
      <trkpt lat="46.49021" lon="-1.77186">
        <ele>6.7</ele>
        <time>2020-06-03T11:51:06Z</time>
      </trkpt>
      <trkpt lat="46.49024" lon="-1.77192">
        <ele>6.7</ele>
        <time>2020-06-03T11:51:07Z</time>
      </trkpt>
      <trkpt lat="46.49027" lon="-1.77198">
        <ele>6.6</ele>
        <time>2020-06-03T11:51:08Z</time>
      </trkpt>
      <trkpt lat="46.49029" lon="-1.77205">
        <ele>6.6</ele>
        <time>2020-06-03T11:51:09Z</time>
      </trkpt>
      <trkpt lat="46.49032" lon="-1.77212">
        <ele>6.6</ele>
        <time>2020-06-03T11:51:10Z</time>
      </trkpt>
      <trkpt lat="46.49035" lon="-1.77218">
        <ele>6.6</ele>
        <time>2020-06-03T11:51:11Z</time>
      </trkpt>
      <trkpt lat="46.49039" lon="-1.77223">
        <ele>6.6</ele>
        <time>2020-06-03T11:51:12Z</time>
      </trkpt>
      <trkpt lat="46.49042" lon="-1.77231">
        <ele>6.6</ele>
        <time>2020-06-03T11:51:13Z</time>
      </trkpt>
      <trkpt lat="46.49044" lon="-1.77237">
        <ele>6.6</ele>
        <time>2020-06-03T11:51:14Z</time>
      </trkpt>
      <trkpt lat="46.49046" lon="-1.77242">
        <ele>6.6</ele>
        <time>2020-06-03T11:51:15Z</time>
      </trkpt>
      <trkpt lat="46.49048" lon="-1.77247">
        <ele>6.6</ele>
        <time>2020-06-03T11:51:16Z</time>
      </trkpt>
      <trkpt lat="46.49052" lon="-1.7725">
        <ele>6.6</ele>
        <time>2020-06-03T11:51:17Z</time>
      </trkpt>
      <trkpt lat="46.49056" lon="-1.77252">
        <ele>6.5</ele>
        <time>2020-06-03T11:51:18Z</time>
      </trkpt>
      <trkpt lat="46.49059" lon="-1.77256">
        <ele>6.5</ele>
        <time>2020-06-03T11:51:19Z</time>
      </trkpt>
      <trkpt lat="46.49061" lon="-1.77262">
        <ele>6.3</ele>
        <time>2020-06-03T11:51:20Z</time>
      </trkpt>
      <trkpt lat="46.49063" lon="-1.7727">
        <ele>6.3</ele>
        <time>2020-06-03T11:51:21Z</time>
      </trkpt>
      <trkpt lat="46.49065" lon="-1.77277">
        <ele>6.2</ele>
        <time>2020-06-03T11:51:22Z</time>
      </trkpt>
      <trkpt lat="46.49067" lon="-1.77281">
        <ele>6.2</ele>
        <time>2020-06-03T11:51:23Z</time>
      </trkpt>
      <trkpt lat="46.49069" lon="-1.77283">
        <ele>6.2</ele>
        <time>2020-06-03T11:51:24Z</time>
      </trkpt>
      <trkpt lat="46.49071" lon="-1.77288">
        <ele>6.2</ele>
        <time>2020-06-03T11:51:25Z</time>
      </trkpt>
      <trkpt lat="46.49073" lon="-1.77292">
        <ele>6.2</ele>
        <time>2020-06-03T11:51:26Z</time>
      </trkpt>
      <trkpt lat="46.49075" lon="-1.77296">
        <ele>6.1</ele>
        <time>2020-06-03T11:51:27Z</time>
      </trkpt>
      <trkpt lat="46.49077" lon="-1.77302">
        <ele>6.1</ele>
        <time>2020-06-03T11:51:28Z</time>
      </trkpt>
      <trkpt lat="46.49078" lon="-1.77307">
        <ele>6</ele>
        <time>2020-06-03T11:51:29Z</time>
      </trkpt>
      <trkpt lat="46.49079" lon="-1.77315">
        <ele>5.9</ele>
        <time>2020-06-03T11:51:30Z</time>
      </trkpt>
      <trkpt lat="46.49081" lon="-1.77321">
        <ele>5.9</ele>
        <time>2020-06-03T11:51:31Z</time>
      </trkpt>
      <trkpt lat="46.49082" lon="-1.77326">
        <ele>5.8</ele>
        <time>2020-06-03T11:51:32Z</time>
      </trkpt>
      <trkpt lat="46.49085" lon="-1.77331">
        <ele>5.8</ele>
        <time>2020-06-03T11:51:33Z</time>
      </trkpt>
      <trkpt lat="46.49088" lon="-1.77336">
        <ele>5.7</ele>
        <time>2020-06-03T11:51:34Z</time>
      </trkpt>
      <trkpt lat="46.49089" lon="-1.77342">
        <ele>5.7</ele>
        <time>2020-06-03T11:51:35Z</time>
      </trkpt>
      <trkpt lat="46.49092" lon="-1.77347">
        <ele>5.7</ele>
        <time>2020-06-03T11:51:36Z</time>
      </trkpt>
      <trkpt lat="46.49093" lon="-1.77352">
        <ele>5.6</ele>
        <time>2020-06-03T11:51:37Z</time>
      </trkpt>
      <trkpt lat="46.49095" lon="-1.77356">
        <ele>5.6</ele>
        <time>2020-06-03T11:51:38Z</time>
      </trkpt>
      <trkpt lat="46.49096" lon="-1.7736">
        <ele>5.6</ele>
        <time>2020-06-03T11:51:39Z</time>
      </trkpt>
      <trkpt lat="46.49097" lon="-1.77366">
        <ele>5.6</ele>
        <time>2020-06-03T11:51:40Z</time>
      </trkpt>
      <trkpt lat="46.49099" lon="-1.77369">
        <ele>5.6</ele>
        <time>2020-06-03T11:51:41Z</time>
      </trkpt>
      <trkpt lat="46.491" lon="-1.77373">
        <ele>5.6</ele>
        <time>2020-06-03T11:51:42Z</time>
      </trkpt>
      <trkpt lat="46.491" lon="-1.77377">
        <ele>5.6</ele>
        <time>2020-06-03T11:51:43Z</time>
      </trkpt>
      <trkpt lat="46.49099" lon="-1.77381">
        <ele>5.6</ele>
        <time>2020-06-03T11:51:44Z</time>
      </trkpt>
      <trkpt lat="46.49099" lon="-1.77387">
        <ele>5.5</ele>
        <time>2020-06-03T11:51:45Z</time>
      </trkpt>
      <trkpt lat="46.49099" lon="-1.77389">
        <ele>5.5</ele>
        <time>2020-06-03T11:51:46Z</time>
      </trkpt>
      <trkpt lat="46.491" lon="-1.77394">
        <ele>5.5</ele>
        <time>2020-06-03T11:51:47Z</time>
      </trkpt>
      <trkpt lat="46.49101" lon="-1.77398">
        <ele>5.4</ele>
        <time>2020-06-03T11:51:48Z</time>
      </trkpt>
      <trkpt lat="46.49102" lon="-1.77402">
        <ele>5.4</ele>
        <time>2020-06-03T11:51:49Z</time>
      </trkpt>
      <trkpt lat="46.49103" lon="-1.77406">
        <ele>5.3</ele>
        <time>2020-06-03T11:51:50Z</time>
      </trkpt>
      <trkpt lat="46.49104" lon="-1.77411">
        <ele>5.3</ele>
        <time>2020-06-03T11:51:51Z</time>
      </trkpt>
      <trkpt lat="46.49105" lon="-1.77416">
        <ele>5.2</ele>
        <time>2020-06-03T11:51:52Z</time>
      </trkpt>
      <trkpt lat="46.49107" lon="-1.77419">
        <ele>5.2</ele>
        <time>2020-06-03T11:51:53Z</time>
      </trkpt>
      <trkpt lat="46.49109" lon="-1.77423">
        <ele>5.2</ele>
        <time>2020-06-03T11:51:54Z</time>
      </trkpt>
      <trkpt lat="46.4911" lon="-1.77428">
        <ele>5.2</ele>
        <time>2020-06-03T11:51:55Z</time>
      </trkpt>
      <trkpt lat="46.49112" lon="-1.77433">
        <ele>5.1</ele>
        <time>2020-06-03T11:51:56Z</time>
      </trkpt>
      <trkpt lat="46.49115" lon="-1.77438">
        <ele>5.1</ele>
        <time>2020-06-03T11:51:57Z</time>
      </trkpt>
      <trkpt lat="46.49117" lon="-1.77443">
        <ele>5.1</ele>
        <time>2020-06-03T11:51:58Z</time>
      </trkpt>
      <trkpt lat="46.49119" lon="-1.77449">
        <ele>5.1</ele>
        <time>2020-06-03T11:51:59Z</time>
      </trkpt>
      <trkpt lat="46.49122" lon="-1.77455">
        <ele>5.1</ele>
        <time>2020-06-03T11:52:00Z</time>
      </trkpt>
      <trkpt lat="46.49124" lon="-1.77461">
        <ele>5.1</ele>
        <time>2020-06-03T11:52:01Z</time>
      </trkpt>
      <trkpt lat="46.49126" lon="-1.77468">
        <ele>5.1</ele>
        <time>2020-06-03T11:52:02Z</time>
      </trkpt>
      <trkpt lat="46.49128" lon="-1.77474">
        <ele>5</ele>
        <time>2020-06-03T11:52:03Z</time>
      </trkpt>
      <trkpt lat="46.4913" lon="-1.77479">
        <ele>5</ele>
        <time>2020-06-03T11:52:04Z</time>
      </trkpt>
      <trkpt lat="46.49133" lon="-1.77484">
        <ele>5</ele>
        <time>2020-06-03T11:52:05Z</time>
      </trkpt>
      <trkpt lat="46.49136" lon="-1.7749">
        <ele>5</ele>
        <time>2020-06-03T11:52:06Z</time>
      </trkpt>
      <trkpt lat="46.49139" lon="-1.77494">
        <ele>5</ele>
        <time>2020-06-03T11:52:07Z</time>
      </trkpt>
      <trkpt lat="46.49144" lon="-1.77499">
        <ele>5</ele>
        <time>2020-06-03T11:52:08Z</time>
      </trkpt>
      <trkpt lat="46.49146" lon="-1.77504">
        <ele>5</ele>
        <time>2020-06-03T11:52:09Z</time>
      </trkpt>
      <trkpt lat="46.49149" lon="-1.77509">
        <ele>5</ele>
        <time>2020-06-03T11:52:10Z</time>
      </trkpt>
      <trkpt lat="46.49152" lon="-1.77513">
        <ele>5</ele>
        <time>2020-06-03T11:52:11Z</time>
      </trkpt>
      <trkpt lat="46.49155" lon="-1.77518">
        <ele>5</ele>
        <time>2020-06-03T11:52:12Z</time>
      </trkpt>
      <trkpt lat="46.49159" lon="-1.77521">
        <ele>5</ele>
        <time>2020-06-03T11:52:13Z</time>
      </trkpt>
      <trkpt lat="46.49162" lon="-1.77525">
        <ele>5</ele>
        <time>2020-06-03T11:52:14Z</time>
      </trkpt>
      <trkpt lat="46.49166" lon="-1.77529">
        <ele>5</ele>
        <time>2020-06-03T11:52:15Z</time>
      </trkpt>
      <trkpt lat="46.49169" lon="-1.77535">
        <ele>5</ele>
        <time>2020-06-03T11:52:16Z</time>
      </trkpt>
      <trkpt lat="46.49173" lon="-1.77538">
        <ele>5</ele>
        <time>2020-06-03T11:52:17Z</time>
      </trkpt>
      <trkpt lat="46.49176" lon="-1.77543">
        <ele>5</ele>
        <time>2020-06-03T11:52:18Z</time>
      </trkpt>
      <trkpt lat="46.4918" lon="-1.77547">
        <ele>5</ele>
        <time>2020-06-03T11:52:19Z</time>
      </trkpt>
      <trkpt lat="46.49184" lon="-1.77551">
        <ele>5</ele>
        <time>2020-06-03T11:52:20Z</time>
      </trkpt>
      <trkpt lat="46.49187" lon="-1.77556">
        <ele>5.1</ele>
        <time>2020-06-03T11:52:21Z</time>
      </trkpt>
      <trkpt lat="46.4919" lon="-1.77561">
        <ele>5.1</ele>
        <time>2020-06-03T11:52:22Z</time>
      </trkpt>
      <trkpt lat="46.49195" lon="-1.77563">
        <ele>5.1</ele>
        <time>2020-06-03T11:52:23Z</time>
      </trkpt>
      <trkpt lat="46.49197" lon="-1.77568">
        <ele>5.1</ele>
        <time>2020-06-03T11:52:24Z</time>
      </trkpt>
      <trkpt lat="46.49201" lon="-1.77573">
        <ele>5.1</ele>
        <time>2020-06-03T11:52:25Z</time>
      </trkpt>
      <trkpt lat="46.49203" lon="-1.77579">
        <ele>5.1</ele>
        <time>2020-06-03T11:52:26Z</time>
      </trkpt>
      <trkpt lat="46.49206" lon="-1.77584">
        <ele>5.2</ele>
        <time>2020-06-03T11:52:27Z</time>
      </trkpt>
      <trkpt lat="46.49209" lon="-1.77589">
        <ele>5.2</ele>
        <time>2020-06-03T11:52:28Z</time>
      </trkpt>
      <trkpt lat="46.49212" lon="-1.77595">
        <ele>5.2</ele>
        <time>2020-06-03T11:52:29Z</time>
      </trkpt>
      <trkpt lat="46.49216" lon="-1.776">
        <ele>5.2</ele>
        <time>2020-06-03T11:52:30Z</time>
      </trkpt>
      <trkpt lat="46.49219" lon="-1.77604">
        <ele>5.2</ele>
        <time>2020-06-03T11:52:31Z</time>
      </trkpt>
      <trkpt lat="46.49223" lon="-1.77608">
        <ele>5.2</ele>
        <time>2020-06-03T11:52:32Z</time>
      </trkpt>
      <trkpt lat="46.49226" lon="-1.77611">
        <ele>5.2</ele>
        <time>2020-06-03T11:52:33Z</time>
      </trkpt>
      <trkpt lat="46.49228" lon="-1.77613">
        <ele>5.2</ele>
        <time>2020-06-03T11:52:34Z</time>
      </trkpt>
      <trkpt lat="46.4923" lon="-1.77616">
        <ele>5.2</ele>
        <time>2020-06-03T11:52:35Z</time>
      </trkpt>
      <trkpt lat="46.49234" lon="-1.77619">
        <ele>5.3</ele>
        <time>2020-06-03T11:52:36Z</time>
      </trkpt>
      <trkpt lat="46.49236" lon="-1.77624">
        <ele>5.3</ele>
        <time>2020-06-03T11:52:37Z</time>
      </trkpt>
      <trkpt lat="46.49239" lon="-1.77627">
        <ele>5.3</ele>
        <time>2020-06-03T11:52:38Z</time>
      </trkpt>
      <trkpt lat="46.49242" lon="-1.77631">
        <ele>5.3</ele>
        <time>2020-06-03T11:52:39Z</time>
      </trkpt>
      <trkpt lat="46.49245" lon="-1.77635">
        <ele>5.4</ele>
        <time>2020-06-03T11:52:40Z</time>
      </trkpt>
      <trkpt lat="46.49248" lon="-1.77638">
        <ele>5.4</ele>
        <time>2020-06-03T11:52:41Z</time>
      </trkpt>
      <trkpt lat="46.4925" lon="-1.7764">
        <ele>5.4</ele>
        <time>2020-06-03T11:52:42Z</time>
      </trkpt>
      <trkpt lat="46.49253" lon="-1.77645">
        <ele>5.4</ele>
        <time>2020-06-03T11:52:43Z</time>
      </trkpt>
      <trkpt lat="46.49255" lon="-1.77647">
        <ele>5.5</ele>
        <time>2020-06-03T11:52:44Z</time>
      </trkpt>
      <trkpt lat="46.49257" lon="-1.77649">
        <ele>5.5</ele>
        <time>2020-06-03T11:52:45Z</time>
      </trkpt>
      <trkpt lat="46.4926" lon="-1.77651">
        <ele>5.5</ele>
        <time>2020-06-03T11:52:46Z</time>
      </trkpt>
      <trkpt lat="46.4926" lon="-1.77652">
        <ele>5.5</ele>
        <time>2020-06-03T11:52:47Z</time>
      </trkpt>
      <trkpt lat="46.4926" lon="-1.77653">
        <ele>5.5</ele>
        <time>2020-06-03T11:52:48Z</time>
      </trkpt>
      <trkpt lat="46.4926" lon="-1.77655">
        <ele>5.5</ele>
        <time>2020-06-03T11:52:49Z</time>
      </trkpt>
      <trkpt lat="46.49261" lon="-1.77656">
        <ele>5.5</ele>
        <time>2020-06-03T11:52:50Z</time>
      </trkpt>
      <trkpt lat="46.49261" lon="-1.77658">
        <ele>5.5</ele>
        <time>2020-06-03T11:52:51Z</time>
      </trkpt>
      <trkpt lat="46.4926" lon="-1.77656">
        <ele>5.5</ele>
        <time>2020-06-03T11:52:52Z</time>
      </trkpt>
      <trkpt lat="46.4926" lon="-1.77656">
        <ele>5.5</ele>
        <time>2020-06-03T11:52:53Z</time>
      </trkpt>
      <trkpt lat="46.4926" lon="-1.77656">
        <ele>5.5</ele>
        <time>2020-06-03T11:52:54Z</time>
      </trkpt>
      <trkpt lat="46.4926" lon="-1.77656">
        <ele>5.5</ele>
        <time>2020-06-03T11:52:55Z</time>
      </trkpt>
      <trkpt lat="46.4926" lon="-1.77657">
        <ele>5.5</ele>
        <time>2020-06-03T11:52:56Z</time>
      </trkpt>
      <trkpt lat="46.4926" lon="-1.77658">
        <ele>5.5</ele>
        <time>2020-06-03T11:52:57Z</time>
      </trkpt>
      <trkpt lat="46.4926" lon="-1.77657">
        <ele>5.5</ele>
        <time>2020-06-03T11:52:58Z</time>
      </trkpt>
      <trkpt lat="46.4926" lon="-1.77657">
        <ele>5.5</ele>
        <time>2020-06-03T11:52:59Z</time>
      </trkpt>
      <trkpt lat="46.4926" lon="-1.77657">
        <ele>5.5</ele>
        <time>2020-06-03T11:53:00Z</time>
      </trkpt>
      <trkpt lat="46.4926" lon="-1.77657">
        <ele>5.5</ele>
        <time>2020-06-03T11:53:01Z</time>
      </trkpt>
      <trkpt lat="46.4926" lon="-1.77657">
        <ele>5.5</ele>
        <time>2020-06-03T11:53:02Z</time>
      </trkpt>
      <trkpt lat="46.4926" lon="-1.77657">
        <ele>5.5</ele>
        <time>2020-06-03T11:53:03Z</time>
      </trkpt>
      <trkpt lat="46.4926" lon="-1.77657">
        <ele>5.5</ele>
        <time>2020-06-03T11:53:04Z</time>
      </trkpt>
      <trkpt lat="46.4926" lon="-1.77657">
        <ele>5.5</ele>
        <time>2020-06-03T11:53:05Z</time>
      </trkpt>
      <trkpt lat="46.4926" lon="-1.77657">
        <ele>5.5</ele>
        <time>2020-06-03T11:53:06Z</time>
      </trkpt>
      <trkpt lat="46.4926" lon="-1.77657">
        <ele>5.5</ele>
        <time>2020-06-03T11:53:07Z</time>
      </trkpt>
      <trkpt lat="46.49257" lon="-1.77657">
        <ele>5.5</ele>
        <time>2020-06-03T11:53:11Z</time>
      </trkpt>
      <trkpt lat="46.49257" lon="-1.7766">
        <ele>5.5</ele>
        <time>2020-06-03T11:53:12Z</time>
      </trkpt>
      <trkpt lat="46.49257" lon="-1.77661">
        <ele>5.5</ele>
        <time>2020-06-03T11:53:13Z</time>
      </trkpt>
      <trkpt lat="46.49257" lon="-1.77663">
        <ele>5.5</ele>
        <time>2020-06-03T11:53:14Z</time>
      </trkpt>
      <trkpt lat="46.49257" lon="-1.77663">
        <ele>5.5</ele>
        <time>2020-06-03T11:53:15Z</time>
      </trkpt>
      <trkpt lat="46.49257" lon="-1.77663">
        <ele>5.5</ele>
        <time>2020-06-03T11:53:16Z</time>
      </trkpt>
      <trkpt lat="46.49258" lon="-1.77664">
        <ele>5.5</ele>
        <time>2020-06-03T11:53:17Z</time>
      </trkpt>
      <trkpt lat="46.49258" lon="-1.77664">
        <ele>5.5</ele>
        <time>2020-06-03T11:53:18Z</time>
      </trkpt>
      <trkpt lat="46.49258" lon="-1.77664">
        <ele>5.5</ele>
        <time>2020-06-03T11:53:19Z</time>
      </trkpt>
      <trkpt lat="46.49258" lon="-1.77664">
        <ele>5.5</ele>
        <time>2020-06-03T11:53:20Z</time>
      </trkpt>
      <trkpt lat="46.49258" lon="-1.77664">
        <ele>5.5</ele>
        <time>2020-06-03T11:53:21Z</time>
      </trkpt>
      <trkpt lat="46.49258" lon="-1.77664">
        <ele>5.5</ele>
        <time>2020-06-03T11:53:22Z</time>
      </trkpt>
      <trkpt lat="46.49258" lon="-1.77665">
        <ele>5.5</ele>
        <time>2020-06-03T11:53:23Z</time>
      </trkpt>
      <trkpt lat="46.49259" lon="-1.77666">
        <ele>5.5</ele>
        <time>2020-06-03T11:53:24Z</time>
      </trkpt>
      <trkpt lat="46.49261" lon="-1.77668">
        <ele>5.5</ele>
        <time>2020-06-03T11:53:26Z</time>
      </trkpt>
      <trkpt lat="46.49262" lon="-1.77669">
        <ele>5.5</ele>
        <time>2020-06-03T11:53:27Z</time>
      </trkpt>
      <trkpt lat="46.49262" lon="-1.77671">
        <ele>5.5</ele>
        <time>2020-06-03T11:53:28Z</time>
      </trkpt>
      <trkpt lat="46.49264" lon="-1.77671">
        <ele>5.5</ele>
        <time>2020-06-03T11:53:29Z</time>
      </trkpt>
      <trkpt lat="46.49265" lon="-1.77671">
        <ele>5.5</ele>
        <time>2020-06-03T11:53:30Z</time>
      </trkpt>
      <trkpt lat="46.49266" lon="-1.77672">
        <ele>5.5</ele>
        <time>2020-06-03T11:53:31Z</time>
      </trkpt>
      <trkpt lat="46.49267" lon="-1.77673">
        <ele>5.5</ele>
        <time>2020-06-03T11:53:32Z</time>
      </trkpt>
      <trkpt lat="46.49268" lon="-1.77673">
        <ele>5.5</ele>
        <time>2020-06-03T11:53:33Z</time>
      </trkpt>
      <trkpt lat="46.49269" lon="-1.77675">
        <ele>5.5</ele>
        <time>2020-06-03T11:53:34Z</time>
      </trkpt>
      <trkpt lat="46.4927" lon="-1.77675">
        <ele>5.5</ele>
        <time>2020-06-03T11:53:35Z</time>
      </trkpt>
      <trkpt lat="46.49271" lon="-1.77676">
        <ele>5.5</ele>
        <time>2020-06-03T11:53:36Z</time>
      </trkpt>
      <trkpt lat="46.49272" lon="-1.77677">
        <ele>5.5</ele>
        <time>2020-06-03T11:53:37Z</time>
      </trkpt>
      <trkpt lat="46.49273" lon="-1.77678">
        <ele>5.5</ele>
        <time>2020-06-03T11:53:38Z</time>
      </trkpt>
      <trkpt lat="46.49273" lon="-1.7768">
        <ele>5.5</ele>
        <time>2020-06-03T11:53:39Z</time>
      </trkpt>
      <trkpt lat="46.49274" lon="-1.77681">
        <ele>5.5</ele>
        <time>2020-06-03T11:53:40Z</time>
      </trkpt>
      <trkpt lat="46.49275" lon="-1.77683">
        <ele>5.5</ele>
        <time>2020-06-03T11:53:41Z</time>
      </trkpt>
      <trkpt lat="46.49277" lon="-1.77685">
        <ele>5.5</ele>
        <time>2020-06-03T11:53:42Z</time>
      </trkpt>
      <trkpt lat="46.49277" lon="-1.77686">
        <ele>5.5</ele>
        <time>2020-06-03T11:53:43Z</time>
      </trkpt>
      <trkpt lat="46.49278" lon="-1.77687">
        <ele>5.5</ele>
        <time>2020-06-03T11:53:44Z</time>
      </trkpt>
      <trkpt lat="46.49279" lon="-1.77689">
        <ele>5.5</ele>
        <time>2020-06-03T11:53:45Z</time>
      </trkpt>
      <trkpt lat="46.49279" lon="-1.77691">
        <ele>5.5</ele>
        <time>2020-06-03T11:53:46Z</time>
      </trkpt>
      <trkpt lat="46.49279" lon="-1.77692">
        <ele>5.5</ele>
        <time>2020-06-03T11:53:47Z</time>
      </trkpt>
      <trkpt lat="46.4928" lon="-1.77693">
        <ele>5.5</ele>
        <time>2020-06-03T11:53:48Z</time>
      </trkpt>
      <trkpt lat="46.49281" lon="-1.77696">
        <ele>5.6</ele>
        <time>2020-06-03T11:53:49Z</time>
      </trkpt>
      <trkpt lat="46.49281" lon="-1.77697">
        <ele>5.6</ele>
        <time>2020-06-03T11:53:50Z</time>
      </trkpt>
      <trkpt lat="46.49282" lon="-1.77698">
        <ele>5.6</ele>
        <time>2020-06-03T11:53:51Z</time>
      </trkpt>
      <trkpt lat="46.49283" lon="-1.77699">
        <ele>5.6</ele>
        <time>2020-06-03T11:53:52Z</time>
      </trkpt>
      <trkpt lat="46.49285" lon="-1.777">
        <ele>5.6</ele>
        <time>2020-06-03T11:53:53Z</time>
      </trkpt>
      <trkpt lat="46.49285" lon="-1.77702">
        <ele>5.6</ele>
        <time>2020-06-03T11:53:54Z</time>
      </trkpt>
      <trkpt lat="46.49287" lon="-1.77703">
        <ele>5.6</ele>
        <time>2020-06-03T11:53:55Z</time>
      </trkpt>
      <trkpt lat="46.49288" lon="-1.77704">
        <ele>5.6</ele>
        <time>2020-06-03T11:53:56Z</time>
      </trkpt>
      <trkpt lat="46.49289" lon="-1.77706">
        <ele>5.6</ele>
        <time>2020-06-03T11:53:57Z</time>
      </trkpt>
      <trkpt lat="46.4929" lon="-1.77708">
        <ele>5.6</ele>
        <time>2020-06-03T11:53:58Z</time>
      </trkpt>
      <trkpt lat="46.49291" lon="-1.7771">
        <ele>5.6</ele>
        <time>2020-06-03T11:53:59Z</time>
      </trkpt>
      <trkpt lat="46.49292" lon="-1.77711">
        <ele>5.6</ele>
        <time>2020-06-03T11:54:00Z</time>
      </trkpt>
      <trkpt lat="46.49293" lon="-1.77714">
        <ele>5.6</ele>
        <time>2020-06-03T11:54:01Z</time>
      </trkpt>
      <trkpt lat="46.49293" lon="-1.77715">
        <ele>5.6</ele>
        <time>2020-06-03T11:54:02Z</time>
      </trkpt>
      <trkpt lat="46.49294" lon="-1.77716">
        <ele>5.6</ele>
        <time>2020-06-03T11:54:03Z</time>
      </trkpt>
      <trkpt lat="46.49295" lon="-1.77717">
        <ele>5.6</ele>
        <time>2020-06-03T11:54:04Z</time>
      </trkpt>
      <trkpt lat="46.49296" lon="-1.77719">
        <ele>5.6</ele>
        <time>2020-06-03T11:54:05Z</time>
      </trkpt>
      <trkpt lat="46.49297" lon="-1.7772">
        <ele>5.6</ele>
        <time>2020-06-03T11:54:06Z</time>
      </trkpt>
      <trkpt lat="46.49298" lon="-1.77722">
        <ele>5.6</ele>
        <time>2020-06-03T11:54:07Z</time>
      </trkpt>
      <trkpt lat="46.49299" lon="-1.77723">
        <ele>5.6</ele>
        <time>2020-06-03T11:54:08Z</time>
      </trkpt>
      <trkpt lat="46.49299" lon="-1.77724">
        <ele>5.6</ele>
        <time>2020-06-03T11:54:09Z</time>
      </trkpt>
      <trkpt lat="46.493" lon="-1.77727">
        <ele>5.6</ele>
        <time>2020-06-03T11:54:10Z</time>
      </trkpt>
      <trkpt lat="46.493" lon="-1.77729">
        <ele>5.6</ele>
        <time>2020-06-03T11:54:11Z</time>
      </trkpt>
      <trkpt lat="46.493" lon="-1.77731">
        <ele>5.6</ele>
        <time>2020-06-03T11:54:12Z</time>
      </trkpt>
      <trkpt lat="46.49301" lon="-1.77732">
        <ele>5.6</ele>
        <time>2020-06-03T11:54:13Z</time>
      </trkpt>
      <trkpt lat="46.49301" lon="-1.77733">
        <ele>5.6</ele>
        <time>2020-06-03T11:54:14Z</time>
      </trkpt>
      <trkpt lat="46.49302" lon="-1.77734">
        <ele>5.6</ele>
        <time>2020-06-03T11:54:15Z</time>
      </trkpt>
      <trkpt lat="46.49303" lon="-1.77735">
        <ele>5.6</ele>
        <time>2020-06-03T11:54:16Z</time>
      </trkpt>
      <trkpt lat="46.49303" lon="-1.77737">
        <ele>5.6</ele>
        <time>2020-06-03T11:54:17Z</time>
      </trkpt>
      <trkpt lat="46.49304" lon="-1.7774">
        <ele>5.6</ele>
        <time>2020-06-03T11:54:18Z</time>
      </trkpt>
      <trkpt lat="46.49305" lon="-1.77741">
        <ele>5.6</ele>
        <time>2020-06-03T11:54:19Z</time>
      </trkpt>
      <trkpt lat="46.49306" lon="-1.77742">
        <ele>5.6</ele>
        <time>2020-06-03T11:54:20Z</time>
      </trkpt>
      <trkpt lat="46.49307" lon="-1.77743">
        <ele>5.6</ele>
        <time>2020-06-03T11:54:21Z</time>
      </trkpt>
      <trkpt lat="46.49308" lon="-1.77744">
        <ele>5.6</ele>
        <time>2020-06-03T11:54:22Z</time>
      </trkpt>
      <trkpt lat="46.4931" lon="-1.77745">
        <ele>5.6</ele>
        <time>2020-06-03T11:54:23Z</time>
      </trkpt>
      <trkpt lat="46.4931" lon="-1.77746">
        <ele>5.6</ele>
        <time>2020-06-03T11:54:24Z</time>
      </trkpt>
      <trkpt lat="46.49311" lon="-1.77748">
        <ele>5.6</ele>
        <time>2020-06-03T11:54:25Z</time>
      </trkpt>
      <trkpt lat="46.49312" lon="-1.77749">
        <ele>5.6</ele>
        <time>2020-06-03T11:54:26Z</time>
      </trkpt>
      <trkpt lat="46.49312" lon="-1.77751">
        <ele>5.6</ele>
        <time>2020-06-03T11:54:27Z</time>
      </trkpt>
      <trkpt lat="46.49312" lon="-1.77753">
        <ele>5.6</ele>
        <time>2020-06-03T11:54:28Z</time>
      </trkpt>
      <trkpt lat="46.49313" lon="-1.77754">
        <ele>5.6</ele>
        <time>2020-06-03T11:54:29Z</time>
      </trkpt>
      <trkpt lat="46.49313" lon="-1.77755">
        <ele>5.6</ele>
        <time>2020-06-03T11:54:30Z</time>
      </trkpt>
      <trkpt lat="46.49313" lon="-1.77756">
        <ele>5.6</ele>
        <time>2020-06-03T11:54:31Z</time>
      </trkpt>
      <trkpt lat="46.49314" lon="-1.77757">
        <ele>5.6</ele>
        <time>2020-06-03T11:54:32Z</time>
      </trkpt>
      <trkpt lat="46.49314" lon="-1.77758">
        <ele>5.6</ele>
        <time>2020-06-03T11:54:33Z</time>
      </trkpt>
      <trkpt lat="46.49314" lon="-1.77758">
        <ele>5.6</ele>
        <time>2020-06-03T11:54:34Z</time>
      </trkpt>
      <trkpt lat="46.49314" lon="-1.77759">
        <ele>5.6</ele>
        <time>2020-06-03T11:54:35Z</time>
      </trkpt>
      <trkpt lat="46.49314" lon="-1.77759">
        <ele>5.6</ele>
        <time>2020-06-03T11:54:36Z</time>
      </trkpt>
      <trkpt lat="46.49314" lon="-1.77759">
        <ele>5.6</ele>
        <time>2020-06-03T11:54:37Z</time>
      </trkpt>
      <trkpt lat="46.49314" lon="-1.77759">
        <ele>5.6</ele>
        <time>2020-06-03T11:54:38Z</time>
      </trkpt>
      <trkpt lat="46.49314" lon="-1.77759">
        <ele>5.6</ele>
        <time>2020-06-03T11:54:39Z</time>
      </trkpt>
      <trkpt lat="46.49314" lon="-1.77759">
        <ele>5.6</ele>
        <time>2020-06-03T11:54:40Z</time>
      </trkpt>
      <trkpt lat="46.49314" lon="-1.7776">
        <ele>5.6</ele>
        <time>2020-06-03T11:54:41Z</time>
      </trkpt>
      <trkpt lat="46.49315" lon="-1.77761">
        <ele>5.7</ele>
        <time>2020-06-03T11:54:42Z</time>
      </trkpt>
      <trkpt lat="46.49315" lon="-1.77762">
        <ele>5.7</ele>
        <time>2020-06-03T11:54:43Z</time>
      </trkpt>
      <trkpt lat="46.49316" lon="-1.77763">
        <ele>5.7</ele>
        <time>2020-06-03T11:54:44Z</time>
      </trkpt>
      <trkpt lat="46.49317" lon="-1.77764">
        <ele>5.7</ele>
        <time>2020-06-03T11:54:45Z</time>
      </trkpt>
      <trkpt lat="46.49319" lon="-1.77765">
        <ele>5.7</ele>
        <time>2020-06-03T11:54:46Z</time>
      </trkpt>
      <trkpt lat="46.4932" lon="-1.77767">
        <ele>5.7</ele>
        <time>2020-06-03T11:54:47Z</time>
      </trkpt>
      <trkpt lat="46.4932" lon="-1.77769">
        <ele>5.7</ele>
        <time>2020-06-03T11:54:48Z</time>
      </trkpt>
      <trkpt lat="46.49322" lon="-1.77772">
        <ele>5.7</ele>
        <time>2020-06-03T11:54:49Z</time>
      </trkpt>
      <trkpt lat="46.49322" lon="-1.77773">
        <ele>5.7</ele>
        <time>2020-06-03T11:54:50Z</time>
      </trkpt>
      <trkpt lat="46.49323" lon="-1.77776">
        <ele>5.7</ele>
        <time>2020-06-03T11:54:51Z</time>
      </trkpt>
      <trkpt lat="46.49323" lon="-1.77778">
        <ele>5.7</ele>
        <time>2020-06-03T11:54:52Z</time>
      </trkpt>
      <trkpt lat="46.49324" lon="-1.7778">
        <ele>5.7</ele>
        <time>2020-06-03T11:54:53Z</time>
      </trkpt>
      <trkpt lat="46.49325" lon="-1.77782">
        <ele>5.7</ele>
        <time>2020-06-03T11:54:54Z</time>
      </trkpt>
      <trkpt lat="46.49326" lon="-1.77784">
        <ele>5.7</ele>
        <time>2020-06-03T11:54:55Z</time>
      </trkpt>
      <trkpt lat="46.49327" lon="-1.77785">
        <ele>5.7</ele>
        <time>2020-06-03T11:54:56Z</time>
      </trkpt>
      <trkpt lat="46.49327" lon="-1.77787">
        <ele>5.7</ele>
        <time>2020-06-03T11:54:57Z</time>
      </trkpt>
      <trkpt lat="46.49328" lon="-1.77788">
        <ele>5.7</ele>
        <time>2020-06-03T11:54:58Z</time>
      </trkpt>
      <trkpt lat="46.49329" lon="-1.77789">
        <ele>5.7</ele>
        <time>2020-06-03T11:54:59Z</time>
      </trkpt>
      <trkpt lat="46.4933" lon="-1.77789">
        <ele>5.7</ele>
        <time>2020-06-03T11:55:00Z</time>
      </trkpt>
      <trkpt lat="46.4933" lon="-1.7779">
        <ele>5.7</ele>
        <time>2020-06-03T11:55:01Z</time>
      </trkpt>
      <trkpt lat="46.49327" lon="-1.77792">
        <ele>5.7</ele>
        <time>2020-06-03T11:55:02Z</time>
      </trkpt>
      <trkpt lat="46.49326" lon="-1.77791">
        <ele>5.7</ele>
        <time>2020-06-03T11:55:03Z</time>
      </trkpt>
      <trkpt lat="46.49325" lon="-1.77793">
        <ele>5.7</ele>
        <time>2020-06-03T11:55:04Z</time>
      </trkpt>
      <trkpt lat="46.49324" lon="-1.77794">
        <ele>5.7</ele>
        <time>2020-06-03T11:55:05Z</time>
      </trkpt>
      <trkpt lat="46.49323" lon="-1.77796">
        <ele>5.7</ele>
        <time>2020-06-03T11:55:06Z</time>
      </trkpt>
      <trkpt lat="46.49322" lon="-1.77798">
        <ele>5.7</ele>
        <time>2020-06-03T11:55:07Z</time>
      </trkpt>
      <trkpt lat="46.49322" lon="-1.77799">
        <ele>5.7</ele>
        <time>2020-06-03T11:55:08Z</time>
      </trkpt>
      <trkpt lat="46.49322" lon="-1.778">
        <ele>5.7</ele>
        <time>2020-06-03T11:55:09Z</time>
      </trkpt>
      <trkpt lat="46.49322" lon="-1.77802">
        <ele>5.8</ele>
        <time>2020-06-03T11:55:10Z</time>
      </trkpt>
      <trkpt lat="46.49322" lon="-1.77803">
        <ele>5.8</ele>
        <time>2020-06-03T11:55:11Z</time>
      </trkpt>
      <trkpt lat="46.49322" lon="-1.77805">
        <ele>5.8</ele>
        <time>2020-06-03T11:55:12Z</time>
      </trkpt>
      <trkpt lat="46.49322" lon="-1.77806">
        <ele>5.8</ele>
        <time>2020-06-03T11:55:13Z</time>
      </trkpt>
      <trkpt lat="46.49322" lon="-1.77807">
        <ele>5.8</ele>
        <time>2020-06-03T11:55:14Z</time>
      </trkpt>
      <trkpt lat="46.49322" lon="-1.77808">
        <ele>5.8</ele>
        <time>2020-06-03T11:55:15Z</time>
      </trkpt>
      <trkpt lat="46.49321" lon="-1.77808">
        <ele>5.8</ele>
        <time>2020-06-03T11:55:16Z</time>
      </trkpt>
      <trkpt lat="46.49321" lon="-1.77809">
        <ele>5.8</ele>
        <time>2020-06-03T11:55:17Z</time>
      </trkpt>
      <trkpt lat="46.4932" lon="-1.7781">
        <ele>5.8</ele>
        <time>2020-06-03T11:55:18Z</time>
      </trkpt>
      <trkpt lat="46.49319" lon="-1.77811">
        <ele>5.8</ele>
        <time>2020-06-03T11:55:19Z</time>
      </trkpt>
      <trkpt lat="46.4932" lon="-1.77812">
        <ele>5.8</ele>
        <time>2020-06-03T11:55:20Z</time>
      </trkpt>
      <trkpt lat="46.49321" lon="-1.77812">
        <ele>5.8</ele>
        <time>2020-06-03T11:55:21Z</time>
      </trkpt>
      <trkpt lat="46.49322" lon="-1.77813">
        <ele>5.8</ele>
        <time>2020-06-03T11:55:22Z</time>
      </trkpt>
      <trkpt lat="46.49322" lon="-1.77814">
        <ele>5.8</ele>
        <time>2020-06-03T11:55:23Z</time>
      </trkpt>
      <trkpt lat="46.49323" lon="-1.77814">
        <ele>5.8</ele>
        <time>2020-06-03T11:55:24Z</time>
      </trkpt>
      <trkpt lat="46.49325" lon="-1.77816">
        <ele>5.8</ele>
        <time>2020-06-03T11:55:25Z</time>
      </trkpt>
      <trkpt lat="46.49325" lon="-1.77817">
        <ele>5.8</ele>
        <time>2020-06-03T11:55:26Z</time>
      </trkpt>
      <trkpt lat="46.49326" lon="-1.77819">
        <ele>5.8</ele>
        <time>2020-06-03T11:55:27Z</time>
      </trkpt>
      <trkpt lat="46.49326" lon="-1.77821">
        <ele>5.8</ele>
        <time>2020-06-03T11:55:28Z</time>
      </trkpt>
      <trkpt lat="46.49327" lon="-1.77821">
        <ele>5.8</ele>
        <time>2020-06-03T11:55:29Z</time>
      </trkpt>
      <trkpt lat="46.49327" lon="-1.77822">
        <ele>5.8</ele>
        <time>2020-06-03T11:55:30Z</time>
      </trkpt>
      <trkpt lat="46.49328" lon="-1.77823">
        <ele>5.8</ele>
        <time>2020-06-03T11:55:31Z</time>
      </trkpt>
      <trkpt lat="46.49327" lon="-1.77823">
        <ele>5.8</ele>
        <time>2020-06-03T11:55:32Z</time>
      </trkpt>
      <trkpt lat="46.49327" lon="-1.77824">
        <ele>5.8</ele>
        <time>2020-06-03T11:55:33Z</time>
      </trkpt>
      <trkpt lat="46.49328" lon="-1.77824">
        <ele>5.8</ele>
        <time>2020-06-03T11:55:34Z</time>
      </trkpt>
      <trkpt lat="46.49328" lon="-1.77824">
        <ele>5.8</ele>
        <time>2020-06-03T11:55:35Z</time>
      </trkpt>
      <trkpt lat="46.49327" lon="-1.77825">
        <ele>5.8</ele>
        <time>2020-06-03T11:55:36Z</time>
      </trkpt>
      <trkpt lat="46.49326" lon="-1.77825">
        <ele>5.8</ele>
        <time>2020-06-03T11:55:37Z</time>
      </trkpt>
      <trkpt lat="46.49325" lon="-1.77825">
        <ele>5.8</ele>
        <time>2020-06-03T11:55:38Z</time>
      </trkpt>
      <trkpt lat="46.49325" lon="-1.77826">
        <ele>5.8</ele>
        <time>2020-06-03T11:55:39Z</time>
      </trkpt>
      <trkpt lat="46.49325" lon="-1.77826">
        <ele>5.8</ele>
        <time>2020-06-03T11:55:40Z</time>
      </trkpt>
      <trkpt lat="46.49325" lon="-1.77826">
        <ele>5.8</ele>
        <time>2020-06-03T11:55:41Z</time>
      </trkpt>
      <trkpt lat="46.49326" lon="-1.77825">
        <ele>5.8</ele>
        <time>2020-06-03T11:55:42Z</time>
      </trkpt>
      <trkpt lat="46.49326" lon="-1.77825">
        <ele>5.8</ele>
        <time>2020-06-03T11:55:43Z</time>
      </trkpt>
      <trkpt lat="46.49327" lon="-1.77825">
        <ele>5.8</ele>
        <time>2020-06-03T11:55:44Z</time>
      </trkpt>
      <trkpt lat="46.49327" lon="-1.77833">
        <ele>5.8</ele>
        <time>2020-06-03T11:55:48Z</time>
      </trkpt>
      <trkpt lat="46.49328" lon="-1.77834">
        <ele>5.8</ele>
        <time>2020-06-03T11:55:49Z</time>
      </trkpt>
      <trkpt lat="46.49329" lon="-1.77836">
        <ele>5.8</ele>
        <time>2020-06-03T11:55:50Z</time>
      </trkpt>
      <trkpt lat="46.4933" lon="-1.77838">
        <ele>5.9</ele>
        <time>2020-06-03T11:55:51Z</time>
      </trkpt>
      <trkpt lat="46.4933" lon="-1.7784">
        <ele>5.9</ele>
        <time>2020-06-03T11:55:52Z</time>
      </trkpt>
      <trkpt lat="46.49331" lon="-1.77842">
        <ele>5.9</ele>
        <time>2020-06-03T11:55:53Z</time>
      </trkpt>
      <trkpt lat="46.49332" lon="-1.77843">
        <ele>5.9</ele>
        <time>2020-06-03T11:55:54Z</time>
      </trkpt>
      <trkpt lat="46.49334" lon="-1.77844">
        <ele>5.9</ele>
        <time>2020-06-03T11:55:55Z</time>
      </trkpt>
      <trkpt lat="46.49335" lon="-1.77845">
        <ele>5.9</ele>
        <time>2020-06-03T11:55:56Z</time>
      </trkpt>
      <trkpt lat="46.49334" lon="-1.77848">
        <ele>5.9</ele>
        <time>2020-06-03T11:55:57Z</time>
      </trkpt>
      <trkpt lat="46.49334" lon="-1.77849">
        <ele>5.9</ele>
        <time>2020-06-03T11:55:58Z</time>
      </trkpt>
      <trkpt lat="46.49336" lon="-1.77851">
        <ele>5.9</ele>
        <time>2020-06-03T11:55:59Z</time>
      </trkpt>
      <trkpt lat="46.49337" lon="-1.77851">
        <ele>5.9</ele>
        <time>2020-06-03T11:56:00Z</time>
      </trkpt>
      <trkpt lat="46.49338" lon="-1.77852">
        <ele>5.9</ele>
        <time>2020-06-03T11:56:01Z</time>
      </trkpt>
      <trkpt lat="46.49339" lon="-1.77855">
        <ele>5.9</ele>
        <time>2020-06-03T11:56:02Z</time>
      </trkpt>
      <trkpt lat="46.49339" lon="-1.77856">
        <ele>5.9</ele>
        <time>2020-06-03T11:56:03Z</time>
      </trkpt>
      <trkpt lat="46.4934" lon="-1.77857">
        <ele>5.9</ele>
        <time>2020-06-03T11:56:04Z</time>
      </trkpt>
      <trkpt lat="46.49341" lon="-1.77858">
        <ele>5.9</ele>
        <time>2020-06-03T11:56:05Z</time>
      </trkpt>
      <trkpt lat="46.49341" lon="-1.77861">
        <ele>5.9</ele>
        <time>2020-06-03T11:56:06Z</time>
      </trkpt>
      <trkpt lat="46.49342" lon="-1.77863">
        <ele>5.9</ele>
        <time>2020-06-03T11:56:07Z</time>
      </trkpt>
      <trkpt lat="46.49343" lon="-1.77865">
        <ele>5.9</ele>
        <time>2020-06-03T11:56:08Z</time>
      </trkpt>
      <trkpt lat="46.49344" lon="-1.77866">
        <ele>5.9</ele>
        <time>2020-06-03T11:56:09Z</time>
      </trkpt>
      <trkpt lat="46.49345" lon="-1.77868">
        <ele>5.9</ele>
        <time>2020-06-03T11:56:10Z</time>
      </trkpt>
      <trkpt lat="46.49346" lon="-1.7787">
        <ele>5.9</ele>
        <time>2020-06-03T11:56:11Z</time>
      </trkpt>
      <trkpt lat="46.49347" lon="-1.77871">
        <ele>5.9</ele>
        <time>2020-06-03T11:56:12Z</time>
      </trkpt>
      <trkpt lat="46.49347" lon="-1.77872">
        <ele>5.9</ele>
        <time>2020-06-03T11:56:13Z</time>
      </trkpt>
      <trkpt lat="46.49349" lon="-1.77873">
        <ele>5.9</ele>
        <time>2020-06-03T11:56:14Z</time>
      </trkpt>
      <trkpt lat="46.4935" lon="-1.77875">
        <ele>5.9</ele>
        <time>2020-06-03T11:56:15Z</time>
      </trkpt>
      <trkpt lat="46.49351" lon="-1.77877">
        <ele>5.9</ele>
        <time>2020-06-03T11:56:16Z</time>
      </trkpt>
      <trkpt lat="46.49352" lon="-1.77878">
        <ele>5.9</ele>
        <time>2020-06-03T11:56:17Z</time>
      </trkpt>
      <trkpt lat="46.49352" lon="-1.77878">
        <ele>5.9</ele>
        <time>2020-06-03T11:56:18Z</time>
      </trkpt>
      <trkpt lat="46.49353" lon="-1.77881">
        <ele>5.9</ele>
        <time>2020-06-03T11:56:19Z</time>
      </trkpt>
      <trkpt lat="46.49353" lon="-1.77883">
        <ele>5.9</ele>
        <time>2020-06-03T11:56:20Z</time>
      </trkpt>
      <trkpt lat="46.49353" lon="-1.77884">
        <ele>5.9</ele>
        <time>2020-06-03T11:56:21Z</time>
      </trkpt>
      <trkpt lat="46.49354" lon="-1.77886">
        <ele>5.9</ele>
        <time>2020-06-03T11:56:22Z</time>
      </trkpt>
      <trkpt lat="46.49354" lon="-1.77888">
        <ele>5.9</ele>
        <time>2020-06-03T11:56:23Z</time>
      </trkpt>
      <trkpt lat="46.49355" lon="-1.77889">
        <ele>5.9</ele>
        <time>2020-06-03T11:56:24Z</time>
      </trkpt>
      <trkpt lat="46.49356" lon="-1.77891">
        <ele>5.9</ele>
        <time>2020-06-03T11:56:25Z</time>
      </trkpt>
      <trkpt lat="46.49356" lon="-1.77893">
        <ele>5.9</ele>
        <time>2020-06-03T11:56:26Z</time>
      </trkpt>
      <trkpt lat="46.49357" lon="-1.77894">
        <ele>5.9</ele>
        <time>2020-06-03T11:56:27Z</time>
      </trkpt>
      <trkpt lat="46.49358" lon="-1.77895">
        <ele>6</ele>
        <time>2020-06-03T11:56:28Z</time>
      </trkpt>
      <trkpt lat="46.49359" lon="-1.77897">
        <ele>6</ele>
        <time>2020-06-03T11:56:29Z</time>
      </trkpt>
      <trkpt lat="46.4936" lon="-1.77898">
        <ele>6</ele>
        <time>2020-06-03T11:56:30Z</time>
      </trkpt>
      <trkpt lat="46.49361" lon="-1.779">
        <ele>6</ele>
        <time>2020-06-03T11:56:31Z</time>
      </trkpt>
      <trkpt lat="46.49361" lon="-1.77902">
        <ele>6</ele>
        <time>2020-06-03T11:56:32Z</time>
      </trkpt>
      <trkpt lat="46.49361" lon="-1.77905">
        <ele>6</ele>
        <time>2020-06-03T11:56:33Z</time>
      </trkpt>
      <trkpt lat="46.49361" lon="-1.77907">
        <ele>6</ele>
        <time>2020-06-03T11:56:34Z</time>
      </trkpt>
      <trkpt lat="46.49361" lon="-1.77908">
        <ele>6</ele>
        <time>2020-06-03T11:56:35Z</time>
      </trkpt>
      <trkpt lat="46.49362" lon="-1.77909">
        <ele>6</ele>
        <time>2020-06-03T11:56:36Z</time>
      </trkpt>
      <trkpt lat="46.49363" lon="-1.77911">
        <ele>6</ele>
        <time>2020-06-03T11:56:37Z</time>
      </trkpt>
      <trkpt lat="46.49364" lon="-1.77912">
        <ele>6</ele>
        <time>2020-06-03T11:56:38Z</time>
      </trkpt>
      <trkpt lat="46.49364" lon="-1.77913">
        <ele>6</ele>
        <time>2020-06-03T11:56:39Z</time>
      </trkpt>
      <trkpt lat="46.49365" lon="-1.77914">
        <ele>6</ele>
        <time>2020-06-03T11:56:40Z</time>
      </trkpt>
      <trkpt lat="46.49366" lon="-1.77915">
        <ele>6</ele>
        <time>2020-06-03T11:56:41Z</time>
      </trkpt>
      <trkpt lat="46.49366" lon="-1.77917">
        <ele>6</ele>
        <time>2020-06-03T11:56:42Z</time>
      </trkpt>
      <trkpt lat="46.49367" lon="-1.77918">
        <ele>6</ele>
        <time>2020-06-03T11:56:43Z</time>
      </trkpt>
      <trkpt lat="46.49367" lon="-1.77919">
        <ele>6</ele>
        <time>2020-06-03T11:56:44Z</time>
      </trkpt>
      <trkpt lat="46.49368" lon="-1.7792">
        <ele>6</ele>
        <time>2020-06-03T11:56:45Z</time>
      </trkpt>
      <trkpt lat="46.49369" lon="-1.7792">
        <ele>6</ele>
        <time>2020-06-03T11:56:46Z</time>
      </trkpt>
      <trkpt lat="46.4937" lon="-1.77921">
        <ele>6</ele>
        <time>2020-06-03T11:56:47Z</time>
      </trkpt>
      <trkpt lat="46.49371" lon="-1.77922">
        <ele>6</ele>
        <time>2020-06-03T11:56:48Z</time>
      </trkpt>
      <trkpt lat="46.49371" lon="-1.77923">
        <ele>6</ele>
        <time>2020-06-03T11:56:49Z</time>
      </trkpt>
      <trkpt lat="46.49371" lon="-1.77924">
        <ele>6</ele>
        <time>2020-06-03T11:56:50Z</time>
      </trkpt>
      <trkpt lat="46.4937" lon="-1.77926">
        <ele>6</ele>
        <time>2020-06-03T11:56:51Z</time>
      </trkpt>
      <trkpt lat="46.49371" lon="-1.77927">
        <ele>6</ele>
        <time>2020-06-03T11:56:52Z</time>
      </trkpt>
      <trkpt lat="46.49372" lon="-1.77927">
        <ele>6</ele>
        <time>2020-06-03T11:56:53Z</time>
      </trkpt>
      <trkpt lat="46.49372" lon="-1.77929">
        <ele>6</ele>
        <time>2020-06-03T11:56:54Z</time>
      </trkpt>
      <trkpt lat="46.49374" lon="-1.77931">
        <ele>6</ele>
        <time>2020-06-03T11:56:55Z</time>
      </trkpt>
      <trkpt lat="46.49373" lon="-1.77932">
        <ele>6</ele>
        <time>2020-06-03T11:56:56Z</time>
      </trkpt>
      <trkpt lat="46.49373" lon="-1.77934">
        <ele>6</ele>
        <time>2020-06-03T11:56:57Z</time>
      </trkpt>
      <trkpt lat="46.49373" lon="-1.77937">
        <ele>6</ele>
        <time>2020-06-03T11:56:58Z</time>
      </trkpt>
      <trkpt lat="46.49373" lon="-1.77938">
        <ele>6</ele>
        <time>2020-06-03T11:56:59Z</time>
      </trkpt>
      <trkpt lat="46.49374" lon="-1.77939">
        <ele>6</ele>
        <time>2020-06-03T11:57:00Z</time>
      </trkpt>
      <trkpt lat="46.49375" lon="-1.7794">
        <ele>6</ele>
        <time>2020-06-03T11:57:01Z</time>
      </trkpt>
      <trkpt lat="46.49376" lon="-1.77942">
        <ele>6</ele>
        <time>2020-06-03T11:57:02Z</time>
      </trkpt>
      <trkpt lat="46.49375" lon="-1.77943">
        <ele>6</ele>
        <time>2020-06-03T11:57:03Z</time>
      </trkpt>
      <trkpt lat="46.49376" lon="-1.77944">
        <ele>6</ele>
        <time>2020-06-03T11:57:04Z</time>
      </trkpt>
      <trkpt lat="46.49376" lon="-1.77946">
        <ele>6</ele>
        <time>2020-06-03T11:57:05Z</time>
      </trkpt>
      <trkpt lat="46.49376" lon="-1.77948">
        <ele>6</ele>
        <time>2020-06-03T11:57:06Z</time>
      </trkpt>
      <trkpt lat="46.49378" lon="-1.77949">
        <ele>6</ele>
        <time>2020-06-03T11:57:07Z</time>
      </trkpt>
      <trkpt lat="46.4938" lon="-1.7795">
        <ele>6</ele>
        <time>2020-06-03T11:57:08Z</time>
      </trkpt>
      <trkpt lat="46.4938" lon="-1.7795">
        <ele>6</ele>
        <time>2020-06-03T11:57:09Z</time>
      </trkpt>
      <trkpt lat="46.49381" lon="-1.77952">
        <ele>6.1</ele>
        <time>2020-06-03T11:57:10Z</time>
      </trkpt>
      <trkpt lat="46.49381" lon="-1.77953">
        <ele>6.1</ele>
        <time>2020-06-03T11:57:11Z</time>
      </trkpt>
      <trkpt lat="46.49383" lon="-1.77954">
        <ele>6.1</ele>
        <time>2020-06-03T11:57:12Z</time>
      </trkpt>
      <trkpt lat="46.49382" lon="-1.77956">
        <ele>6.1</ele>
        <time>2020-06-03T11:57:13Z</time>
      </trkpt>
      <trkpt lat="46.49383" lon="-1.77956">
        <ele>6.1</ele>
        <time>2020-06-03T11:57:14Z</time>
      </trkpt>
      <trkpt lat="46.49383" lon="-1.77957">
        <ele>6.1</ele>
        <time>2020-06-03T11:57:15Z</time>
      </trkpt>
      <trkpt lat="46.49383" lon="-1.77957">
        <ele>6.1</ele>
        <time>2020-06-03T11:57:16Z</time>
      </trkpt>
      <trkpt lat="46.49382" lon="-1.77958">
        <ele>6.1</ele>
        <time>2020-06-03T11:57:17Z</time>
      </trkpt>
      <trkpt lat="46.49382" lon="-1.77959">
        <ele>6.1</ele>
        <time>2020-06-03T11:57:18Z</time>
      </trkpt>
      <trkpt lat="46.49383" lon="-1.77959">
        <ele>6.1</ele>
        <time>2020-06-03T11:57:19Z</time>
      </trkpt>
      <trkpt lat="46.49384" lon="-1.77959">
        <ele>6.1</ele>
        <time>2020-06-03T11:57:20Z</time>
      </trkpt>
      <trkpt lat="46.49384" lon="-1.77959">
        <ele>6.1</ele>
        <time>2020-06-03T11:57:21Z</time>
      </trkpt>
      <trkpt lat="46.49387" lon="-1.7796">
        <ele>6.1</ele>
        <time>2020-06-03T11:57:22Z</time>
      </trkpt>
      <trkpt lat="46.49388" lon="-1.77961">
        <ele>6.1</ele>
        <time>2020-06-03T11:57:23Z</time>
      </trkpt>
      <trkpt lat="46.49389" lon="-1.77962">
        <ele>6.1</ele>
        <time>2020-06-03T11:57:24Z</time>
      </trkpt>
      <trkpt lat="46.49389" lon="-1.77963">
        <ele>6.1</ele>
        <time>2020-06-03T11:57:25Z</time>
      </trkpt>
      <trkpt lat="46.49389" lon="-1.77964">
        <ele>6.1</ele>
        <time>2020-06-03T11:57:26Z</time>
      </trkpt>
      <trkpt lat="46.49389" lon="-1.77967">
        <ele>6.1</ele>
        <time>2020-06-03T11:57:27Z</time>
      </trkpt>
      <trkpt lat="46.49389" lon="-1.77969">
        <ele>6.1</ele>
        <time>2020-06-03T11:57:28Z</time>
      </trkpt>
      <trkpt lat="46.4939" lon="-1.7797">
        <ele>6.1</ele>
        <time>2020-06-03T11:57:29Z</time>
      </trkpt>
      <trkpt lat="46.4939" lon="-1.77972">
        <ele>6.1</ele>
        <time>2020-06-03T11:57:30Z</time>
      </trkpt>
      <trkpt lat="46.4939" lon="-1.77973">
        <ele>6.1</ele>
        <time>2020-06-03T11:57:31Z</time>
      </trkpt>
      <trkpt lat="46.49391" lon="-1.77974">
        <ele>6.1</ele>
        <time>2020-06-03T11:57:32Z</time>
      </trkpt>
      <trkpt lat="46.49392" lon="-1.77976">
        <ele>6.1</ele>
        <time>2020-06-03T11:57:33Z</time>
      </trkpt>
      <trkpt lat="46.49393" lon="-1.77977">
        <ele>6.1</ele>
        <time>2020-06-03T11:57:34Z</time>
      </trkpt>
      <trkpt lat="46.49393" lon="-1.77979">
        <ele>6.1</ele>
        <time>2020-06-03T11:57:35Z</time>
      </trkpt>
      <trkpt lat="46.49393" lon="-1.77981">
        <ele>6.1</ele>
        <time>2020-06-03T11:57:36Z</time>
      </trkpt>
      <trkpt lat="46.49393" lon="-1.77982">
        <ele>6.1</ele>
        <time>2020-06-03T11:57:37Z</time>
      </trkpt>
      <trkpt lat="46.49393" lon="-1.77985">
        <ele>6.1</ele>
        <time>2020-06-03T11:57:38Z</time>
      </trkpt>
      <trkpt lat="46.49393" lon="-1.77986">
        <ele>6.1</ele>
        <time>2020-06-03T11:57:39Z</time>
      </trkpt>
      <trkpt lat="46.49393" lon="-1.77987">
        <ele>6.1</ele>
        <time>2020-06-03T11:57:40Z</time>
      </trkpt>
      <trkpt lat="46.49393" lon="-1.77989">
        <ele>6.1</ele>
        <time>2020-06-03T11:57:41Z</time>
      </trkpt>
      <trkpt lat="46.49394" lon="-1.77991">
        <ele>6.1</ele>
        <time>2020-06-03T11:57:42Z</time>
      </trkpt>
      <trkpt lat="46.49395" lon="-1.77992">
        <ele>6.1</ele>
        <time>2020-06-03T11:57:43Z</time>
      </trkpt>
      <trkpt lat="46.49396" lon="-1.77993">
        <ele>6.1</ele>
        <time>2020-06-03T11:57:44Z</time>
      </trkpt>
      <trkpt lat="46.49395" lon="-1.77995">
        <ele>6.1</ele>
        <time>2020-06-03T11:57:45Z</time>
      </trkpt>
      <trkpt lat="46.49395" lon="-1.77995">
        <ele>6.1</ele>
        <time>2020-06-03T11:57:46Z</time>
      </trkpt>
      <trkpt lat="46.49395" lon="-1.77995">
        <ele>6.1</ele>
        <time>2020-06-03T11:57:47Z</time>
      </trkpt>
      <trkpt lat="46.49394" lon="-1.77996">
        <ele>6.1</ele>
        <time>2020-06-03T11:57:48Z</time>
      </trkpt>
      <trkpt lat="46.49394" lon="-1.77996">
        <ele>6.1</ele>
        <time>2020-06-03T11:57:49Z</time>
      </trkpt>
      <trkpt lat="46.49393" lon="-1.77997">
        <ele>6.1</ele>
        <time>2020-06-03T11:57:50Z</time>
      </trkpt>
      <trkpt lat="46.49393" lon="-1.77997">
        <ele>6.1</ele>
        <time>2020-06-03T11:57:51Z</time>
      </trkpt>
      <trkpt lat="46.49392" lon="-1.77997">
        <ele>6.1</ele>
        <time>2020-06-03T11:57:52Z</time>
      </trkpt>
      <trkpt lat="46.49392" lon="-1.77998">
        <ele>6.1</ele>
        <time>2020-06-03T11:57:53Z</time>
      </trkpt>
      <trkpt lat="46.49391" lon="-1.77998">
        <ele>6.1</ele>
        <time>2020-06-03T11:57:54Z</time>
      </trkpt>
      <trkpt lat="46.49392" lon="-1.77998">
        <ele>6.1</ele>
        <time>2020-06-03T11:57:55Z</time>
      </trkpt>
      <trkpt lat="46.49392" lon="-1.77998">
        <ele>6.1</ele>
        <time>2020-06-03T11:57:56Z</time>
      </trkpt>
      <trkpt lat="46.49393" lon="-1.77997">
        <ele>6.1</ele>
        <time>2020-06-03T11:57:57Z</time>
      </trkpt>
      <trkpt lat="46.49394" lon="-1.78004">
        <ele>6.2</ele>
        <time>2020-06-03T11:58:04Z</time>
      </trkpt>
      <trkpt lat="46.49394" lon="-1.78005">
        <ele>6.2</ele>
        <time>2020-06-03T11:58:05Z</time>
      </trkpt>
      <trkpt lat="46.49394" lon="-1.78006">
        <ele>6.2</ele>
        <time>2020-06-03T11:58:06Z</time>
      </trkpt>
      <trkpt lat="46.49395" lon="-1.78007">
        <ele>6.2</ele>
        <time>2020-06-03T11:58:07Z</time>
      </trkpt>
      <trkpt lat="46.49395" lon="-1.78008">
        <ele>6.2</ele>
        <time>2020-06-03T11:58:08Z</time>
      </trkpt>
      <trkpt lat="46.49395" lon="-1.7801">
        <ele>6.2</ele>
        <time>2020-06-03T11:58:09Z</time>
      </trkpt>
      <trkpt lat="46.49396" lon="-1.7801">
        <ele>6.2</ele>
        <time>2020-06-03T11:58:10Z</time>
      </trkpt>
      <trkpt lat="46.49396" lon="-1.78011">
        <ele>6.2</ele>
        <time>2020-06-03T11:58:11Z</time>
      </trkpt>
      <trkpt lat="46.49396" lon="-1.78012">
        <ele>6.2</ele>
        <time>2020-06-03T11:58:12Z</time>
      </trkpt>
      <trkpt lat="46.49395" lon="-1.78012">
        <ele>6.2</ele>
        <time>2020-06-03T11:58:13Z</time>
      </trkpt>
      <trkpt lat="46.49395" lon="-1.78012">
        <ele>6.2</ele>
        <time>2020-06-03T11:58:14Z</time>
      </trkpt>
      <trkpt lat="46.49394" lon="-1.78011">
        <ele>6.2</ele>
        <time>2020-06-03T11:58:15Z</time>
      </trkpt>
      <trkpt lat="46.49393" lon="-1.78011">
        <ele>6.2</ele>
        <time>2020-06-03T11:58:16Z</time>
      </trkpt>
      <trkpt lat="46.49392" lon="-1.7801">
        <ele>6.2</ele>
        <time>2020-06-03T11:58:17Z</time>
      </trkpt>
      <trkpt lat="46.49393" lon="-1.78011">
        <ele>6.2</ele>
        <time>2020-06-03T11:58:18Z</time>
      </trkpt>
      <trkpt lat="46.49393" lon="-1.78011">
        <ele>6.2</ele>
        <time>2020-06-03T11:58:19Z</time>
      </trkpt>
      <trkpt lat="46.49393" lon="-1.78011">
        <ele>6.2</ele>
        <time>2020-06-03T11:58:20Z</time>
      </trkpt>
      <trkpt lat="46.49393" lon="-1.78011">
        <ele>6.2</ele>
        <time>2020-06-03T11:58:21Z</time>
      </trkpt>
      <trkpt lat="46.49392" lon="-1.78011">
        <ele>6.2</ele>
        <time>2020-06-03T11:58:22Z</time>
      </trkpt>
      <trkpt lat="46.49391" lon="-1.78011">
        <ele>6.2</ele>
        <time>2020-06-03T11:58:23Z</time>
      </trkpt>
      <trkpt lat="46.49391" lon="-1.78011">
        <ele>6.2</ele>
        <time>2020-06-03T11:58:24Z</time>
      </trkpt>
      <trkpt lat="46.49389" lon="-1.78011">
        <ele>6.2</ele>
        <time>2020-06-03T11:58:25Z</time>
      </trkpt>
      <trkpt lat="46.49388" lon="-1.7801">
        <ele>6.2</ele>
        <time>2020-06-03T11:58:26Z</time>
      </trkpt>
      <trkpt lat="46.49392" lon="-1.78018">
        <ele>6.2</ele>
        <time>2020-06-03T13:01:59Z</time>
      </trkpt>
      <trkpt lat="46.49393" lon="-1.78019">
        <ele>6.2</ele>
        <time>2020-06-03T13:02:00Z</time>
      </trkpt>
      <trkpt lat="46.49394" lon="-1.78019">
        <ele>6.2</ele>
        <time>2020-06-03T13:02:01Z</time>
      </trkpt>
      <trkpt lat="46.49394" lon="-1.7802">
        <ele>6.2</ele>
        <time>2020-06-03T13:02:02Z</time>
      </trkpt>
      <trkpt lat="46.49395" lon="-1.78021">
        <ele>6.2</ele>
        <time>2020-06-03T13:02:03Z</time>
      </trkpt>
      <trkpt lat="46.49395" lon="-1.78022">
        <ele>6.2</ele>
        <time>2020-06-03T13:02:04Z</time>
      </trkpt>
      <trkpt lat="46.49397" lon="-1.78026">
        <ele>6.2</ele>
        <time>2020-06-03T13:02:05Z</time>
      </trkpt>
      <trkpt lat="46.49398" lon="-1.78027">
        <ele>6.2</ele>
        <time>2020-06-03T13:02:06Z</time>
      </trkpt>
      <trkpt lat="46.49399" lon="-1.7803">
        <ele>6.2</ele>
        <time>2020-06-03T13:02:07Z</time>
      </trkpt>
      <trkpt lat="46.49402" lon="-1.78033">
        <ele>6.2</ele>
        <time>2020-06-03T13:02:08Z</time>
      </trkpt>
      <trkpt lat="46.49405" lon="-1.78038">
        <ele>6.2</ele>
        <time>2020-06-03T13:02:09Z</time>
      </trkpt>
      <trkpt lat="46.49406" lon="-1.7804">
        <ele>6.2</ele>
        <time>2020-06-03T13:02:10Z</time>
      </trkpt>
      <trkpt lat="46.49407" lon="-1.78044">
        <ele>6.2</ele>
        <time>2020-06-03T13:02:11Z</time>
      </trkpt>
      <trkpt lat="46.49409" lon="-1.78048">
        <ele>6.2</ele>
        <time>2020-06-03T13:02:12Z</time>
      </trkpt>
      <trkpt lat="46.4941" lon="-1.78053">
        <ele>6.2</ele>
        <time>2020-06-03T13:02:13Z</time>
      </trkpt>
      <trkpt lat="46.4941" lon="-1.78057">
        <ele>6.2</ele>
        <time>2020-06-03T13:02:14Z</time>
      </trkpt>
      <trkpt lat="46.49411" lon="-1.7806">
        <ele>6.2</ele>
        <time>2020-06-03T13:02:15Z</time>
      </trkpt>
      <trkpt lat="46.49412" lon="-1.78061">
        <ele>6.2</ele>
        <time>2020-06-03T13:02:16Z</time>
      </trkpt>
      <trkpt lat="46.49413" lon="-1.78064">
        <ele>6.2</ele>
        <time>2020-06-03T13:02:17Z</time>
      </trkpt>
      <trkpt lat="46.49413" lon="-1.78065">
        <ele>6.2</ele>
        <time>2020-06-03T13:02:18Z</time>
      </trkpt>
      <trkpt lat="46.49413" lon="-1.78066">
        <ele>6.2</ele>
        <time>2020-06-03T13:02:19Z</time>
      </trkpt>
      <trkpt lat="46.49413" lon="-1.78067">
        <ele>6.2</ele>
        <time>2020-06-03T13:02:20Z</time>
      </trkpt>
      <trkpt lat="46.49414" lon="-1.78071">
        <ele>6.2</ele>
        <time>2020-06-03T13:02:21Z</time>
      </trkpt>
      <trkpt lat="46.49414" lon="-1.78073">
        <ele>6.2</ele>
        <time>2020-06-03T13:02:22Z</time>
      </trkpt>
      <trkpt lat="46.49415" lon="-1.78078">
        <ele>6.2</ele>
        <time>2020-06-03T13:02:23Z</time>
      </trkpt>
      <trkpt lat="46.49416" lon="-1.7808">
        <ele>6.2</ele>
        <time>2020-06-03T13:02:24Z</time>
      </trkpt>
      <trkpt lat="46.49418" lon="-1.78084">
        <ele>6.2</ele>
        <time>2020-06-03T13:02:25Z</time>
      </trkpt>
      <trkpt lat="46.49419" lon="-1.78086">
        <ele>6.2</ele>
        <time>2020-06-03T13:02:26Z</time>
      </trkpt>
      <trkpt lat="46.4942" lon="-1.78091">
        <ele>6.2</ele>
        <time>2020-06-03T13:02:27Z</time>
      </trkpt>
      <trkpt lat="46.4942" lon="-1.78093">
        <ele>6.2</ele>
        <time>2020-06-03T13:02:28Z</time>
      </trkpt>
      <trkpt lat="46.49421" lon="-1.78097">
        <ele>6.2</ele>
        <time>2020-06-03T13:02:29Z</time>
      </trkpt>
      <trkpt lat="46.49421" lon="-1.78098">
        <ele>6.2</ele>
        <time>2020-06-03T13:02:30Z</time>
      </trkpt>
      <trkpt lat="46.49422" lon="-1.781">
        <ele>6.2</ele>
        <time>2020-06-03T13:02:31Z</time>
      </trkpt>
      <trkpt lat="46.49423" lon="-1.78102">
        <ele>6.2</ele>
        <time>2020-06-03T13:02:32Z</time>
      </trkpt>
      <trkpt lat="46.49424" lon="-1.78102">
        <ele>6.2</ele>
        <time>2020-06-03T13:02:33Z</time>
      </trkpt>
      <trkpt lat="46.49424" lon="-1.78105">
        <ele>6.2</ele>
        <time>2020-06-03T13:02:34Z</time>
      </trkpt>
      <trkpt lat="46.49425" lon="-1.78106">
        <ele>6.2</ele>
        <time>2020-06-03T13:02:35Z</time>
      </trkpt>
      <trkpt lat="46.49427" lon="-1.78109">
        <ele>6.2</ele>
        <time>2020-06-03T13:02:36Z</time>
      </trkpt>
      <trkpt lat="46.49427" lon="-1.78111">
        <ele>6.2</ele>
        <time>2020-06-03T13:02:37Z</time>
      </trkpt>
      <trkpt lat="46.49428" lon="-1.78116">
        <ele>6.2</ele>
        <time>2020-06-03T13:02:38Z</time>
      </trkpt>
      <trkpt lat="46.49429" lon="-1.78118">
        <ele>6.2</ele>
        <time>2020-06-03T13:02:39Z</time>
      </trkpt>
      <trkpt lat="46.4943" lon="-1.78123">
        <ele>6.2</ele>
        <time>2020-06-03T13:02:40Z</time>
      </trkpt>
      <trkpt lat="46.49431" lon="-1.78127">
        <ele>6.2</ele>
        <time>2020-06-03T13:02:41Z</time>
      </trkpt>
      <trkpt lat="46.49433" lon="-1.78132">
        <ele>6.2</ele>
        <time>2020-06-03T13:02:42Z</time>
      </trkpt>
      <trkpt lat="46.49433" lon="-1.78136">
        <ele>6.2</ele>
        <time>2020-06-03T13:02:43Z</time>
      </trkpt>
      <trkpt lat="46.49434" lon="-1.78141">
        <ele>6.2</ele>
        <time>2020-06-03T13:02:44Z</time>
      </trkpt>
      <trkpt lat="46.49434" lon="-1.78144">
        <ele>6.1</ele>
        <time>2020-06-03T13:02:45Z</time>
      </trkpt>
      <trkpt lat="46.49436" lon="-1.78148">
        <ele>6.1</ele>
        <time>2020-06-03T13:02:46Z</time>
      </trkpt>
      <trkpt lat="46.49436" lon="-1.78153">
        <ele>6.1</ele>
        <time>2020-06-03T13:02:47Z</time>
      </trkpt>
      <trkpt lat="46.49437" lon="-1.78155">
        <ele>6.1</ele>
        <time>2020-06-03T13:02:48Z</time>
      </trkpt>
      <trkpt lat="46.49438" lon="-1.78159">
        <ele>6.1</ele>
        <time>2020-06-03T13:02:49Z</time>
      </trkpt>
      <trkpt lat="46.49438" lon="-1.78161">
        <ele>6.1</ele>
        <time>2020-06-03T13:02:50Z</time>
      </trkpt>
      <trkpt lat="46.49439" lon="-1.78162">
        <ele>6.1</ele>
        <time>2020-06-03T13:02:51Z</time>
      </trkpt>
      <trkpt lat="46.4944" lon="-1.78163">
        <ele>6.1</ele>
        <time>2020-06-03T13:02:52Z</time>
      </trkpt>
      <trkpt lat="46.4944" lon="-1.78165">
        <ele>6.1</ele>
        <time>2020-06-03T13:02:53Z</time>
      </trkpt>
      <trkpt lat="46.4944" lon="-1.78166">
        <ele>6.1</ele>
        <time>2020-06-03T13:02:54Z</time>
      </trkpt>
      <trkpt lat="46.4944" lon="-1.78169">
        <ele>6.1</ele>
        <time>2020-06-03T13:02:55Z</time>
      </trkpt>
      <trkpt lat="46.49441" lon="-1.78171">
        <ele>6.1</ele>
        <time>2020-06-03T13:02:56Z</time>
      </trkpt>
      <trkpt lat="46.49441" lon="-1.78171">
        <ele>6.1</ele>
        <time>2020-06-03T13:02:57Z</time>
      </trkpt>
      <trkpt lat="46.49442" lon="-1.78172">
        <ele>6.1</ele>
        <time>2020-06-03T13:02:58Z</time>
      </trkpt>
      <trkpt lat="46.49443" lon="-1.78173">
        <ele>6.1</ele>
        <time>2020-06-03T13:02:59Z</time>
      </trkpt>
      <trkpt lat="46.49444" lon="-1.78173">
        <ele>6.1</ele>
        <time>2020-06-03T13:03:00Z</time>
      </trkpt>
      <trkpt lat="46.49445" lon="-1.78174">
        <ele>6.1</ele>
        <time>2020-06-03T13:03:01Z</time>
      </trkpt>
      <trkpt lat="46.49445" lon="-1.78175">
        <ele>6.1</ele>
        <time>2020-06-03T13:03:02Z</time>
      </trkpt>
      <trkpt lat="46.49446" lon="-1.78176">
        <ele>6.1</ele>
        <time>2020-06-03T13:03:03Z</time>
      </trkpt>
      <trkpt lat="46.49446" lon="-1.78177">
        <ele>6.1</ele>
        <time>2020-06-03T13:03:04Z</time>
      </trkpt>
      <trkpt lat="46.49446" lon="-1.78178">
        <ele>6.1</ele>
        <time>2020-06-03T13:03:05Z</time>
      </trkpt>
      <trkpt lat="46.49446" lon="-1.78178">
        <ele>6.1</ele>
        <time>2020-06-03T13:03:06Z</time>
      </trkpt>
      <trkpt lat="46.49447" lon="-1.78179">
        <ele>6.1</ele>
        <time>2020-06-03T13:03:07Z</time>
      </trkpt>
      <trkpt lat="46.49448" lon="-1.78181">
        <ele>6.1</ele>
        <time>2020-06-03T13:03:08Z</time>
      </trkpt>
      <trkpt lat="46.49448" lon="-1.78183">
        <ele>6.1</ele>
        <time>2020-06-03T13:03:09Z</time>
      </trkpt>
      <trkpt lat="46.49449" lon="-1.78188">
        <ele>6.1</ele>
        <time>2020-06-03T13:03:10Z</time>
      </trkpt>
      <trkpt lat="46.49449" lon="-1.78191">
        <ele>6.1</ele>
        <time>2020-06-03T13:03:11Z</time>
      </trkpt>
      <trkpt lat="46.4945" lon="-1.78194">
        <ele>6.1</ele>
        <time>2020-06-03T13:03:12Z</time>
      </trkpt>
      <trkpt lat="46.49452" lon="-1.78199">
        <ele>6</ele>
        <time>2020-06-03T13:03:13Z</time>
      </trkpt>
      <trkpt lat="46.49453" lon="-1.78203">
        <ele>6</ele>
        <time>2020-06-03T13:03:14Z</time>
      </trkpt>
      <trkpt lat="46.49455" lon="-1.78207">
        <ele>6</ele>
        <time>2020-06-03T13:03:15Z</time>
      </trkpt>
      <trkpt lat="46.49456" lon="-1.78209">
        <ele>6</ele>
        <time>2020-06-03T13:03:16Z</time>
      </trkpt>
      <trkpt lat="46.49456" lon="-1.78213">
        <ele>6</ele>
        <time>2020-06-03T13:03:17Z</time>
      </trkpt>
      <trkpt lat="46.49457" lon="-1.78218">
        <ele>6</ele>
        <time>2020-06-03T13:03:18Z</time>
      </trkpt>
      <trkpt lat="46.49457" lon="-1.7822">
        <ele>6</ele>
        <time>2020-06-03T13:03:19Z</time>
      </trkpt>
      <trkpt lat="46.49457" lon="-1.78224">
        <ele>6</ele>
        <time>2020-06-03T13:03:20Z</time>
      </trkpt>
      <trkpt lat="46.49459" lon="-1.78228">
        <ele>6</ele>
        <time>2020-06-03T13:03:21Z</time>
      </trkpt>
      <trkpt lat="46.49459" lon="-1.78233">
        <ele>6</ele>
        <time>2020-06-03T13:03:22Z</time>
      </trkpt>
      <trkpt lat="46.49459" lon="-1.78234">
        <ele>6</ele>
        <time>2020-06-03T13:03:23Z</time>
      </trkpt>
      <trkpt lat="46.4946" lon="-1.7824">
        <ele>6</ele>
        <time>2020-06-03T13:03:24Z</time>
      </trkpt>
      <trkpt lat="46.49461" lon="-1.78242">
        <ele>6</ele>
        <time>2020-06-03T13:03:25Z</time>
      </trkpt>
      <trkpt lat="46.49462" lon="-1.78246">
        <ele>6</ele>
        <time>2020-06-03T13:03:26Z</time>
      </trkpt>
      <trkpt lat="46.49462" lon="-1.78248">
        <ele>6</ele>
        <time>2020-06-03T13:03:27Z</time>
      </trkpt>
      <trkpt lat="46.49463" lon="-1.78253">
        <ele>6</ele>
        <time>2020-06-03T13:03:28Z</time>
      </trkpt>
      <trkpt lat="46.49463" lon="-1.78254">
        <ele>6</ele>
        <time>2020-06-03T13:03:29Z</time>
      </trkpt>
      <trkpt lat="46.49464" lon="-1.78259">
        <ele>6</ele>
        <time>2020-06-03T13:03:30Z</time>
      </trkpt>
      <trkpt lat="46.49464" lon="-1.78261">
        <ele>6</ele>
        <time>2020-06-03T13:03:31Z</time>
      </trkpt>
      <trkpt lat="46.49465" lon="-1.78267">
        <ele>6</ele>
        <time>2020-06-03T13:03:32Z</time>
      </trkpt>
      <trkpt lat="46.49465" lon="-1.78268">
        <ele>6</ele>
        <time>2020-06-03T13:03:33Z</time>
      </trkpt>
      <trkpt lat="46.49465" lon="-1.78269">
        <ele>6</ele>
        <time>2020-06-03T13:03:34Z</time>
      </trkpt>
      <trkpt lat="46.49465" lon="-1.78269">
        <ele>6</ele>
        <time>2020-06-03T13:03:35Z</time>
      </trkpt>
      <trkpt lat="46.49465" lon="-1.78269">
        <ele>6</ele>
        <time>2020-06-03T13:03:36Z</time>
      </trkpt>
      <trkpt lat="46.49465" lon="-1.7827">
        <ele>6</ele>
        <time>2020-06-03T13:03:37Z</time>
      </trkpt>
      <trkpt lat="46.49465" lon="-1.7827">
        <ele>6</ele>
        <time>2020-06-03T13:03:38Z</time>
      </trkpt>
      <trkpt lat="46.49465" lon="-1.7827">
        <ele>6</ele>
        <time>2020-06-03T13:03:39Z</time>
      </trkpt>
      <trkpt lat="46.49465" lon="-1.7827">
        <ele>6</ele>
        <time>2020-06-03T13:03:40Z</time>
      </trkpt>
      <trkpt lat="46.49465" lon="-1.78271">
        <ele>6</ele>
        <time>2020-06-03T13:03:41Z</time>
      </trkpt>
      <trkpt lat="46.49465" lon="-1.78271">
        <ele>6</ele>
        <time>2020-06-03T13:03:42Z</time>
      </trkpt>
      <trkpt lat="46.49465" lon="-1.78271">
        <ele>6</ele>
        <time>2020-06-03T13:03:43Z</time>
      </trkpt>
      <trkpt lat="46.49462" lon="-1.78265">
        <ele>6</ele>
        <time>2020-06-03T13:04:15Z</time>
      </trkpt>
      <trkpt lat="46.49461" lon="-1.78265">
        <ele>6</ele>
        <time>2020-06-03T13:04:16Z</time>
      </trkpt>
      <trkpt lat="46.4946" lon="-1.78266">
        <ele>6</ele>
        <time>2020-06-03T13:04:17Z</time>
      </trkpt>
      <trkpt lat="46.49459" lon="-1.78266">
        <ele>6</ele>
        <time>2020-06-03T13:04:18Z</time>
      </trkpt>
      <trkpt lat="46.49458" lon="-1.78267">
        <ele>6</ele>
        <time>2020-06-03T13:04:19Z</time>
      </trkpt>
      <trkpt lat="46.49458" lon="-1.78267">
        <ele>6</ele>
        <time>2020-06-03T13:04:20Z</time>
      </trkpt>
      <trkpt lat="46.49458" lon="-1.78267">
        <ele>6</ele>
        <time>2020-06-03T13:04:21Z</time>
      </trkpt>
      <trkpt lat="46.49457" lon="-1.78267">
        <ele>6</ele>
        <time>2020-06-03T13:04:22Z</time>
      </trkpt>
      <trkpt lat="46.49457" lon="-1.78268">
        <ele>6</ele>
        <time>2020-06-03T13:04:23Z</time>
      </trkpt>
      <trkpt lat="46.49457" lon="-1.78268">
        <ele>6</ele>
        <time>2020-06-03T13:04:24Z</time>
      </trkpt>
      <trkpt lat="46.49457" lon="-1.78268">
        <ele>6</ele>
        <time>2020-06-03T13:04:25Z</time>
      </trkpt>
      <trkpt lat="46.49457" lon="-1.78268">
        <ele>6</ele>
        <time>2020-06-03T13:04:26Z</time>
      </trkpt>
      <trkpt lat="46.49457" lon="-1.78268">
        <ele>6</ele>
        <time>2020-06-03T13:04:27Z</time>
      </trkpt>
      <trkpt lat="46.49457" lon="-1.78268">
        <ele>6</ele>
        <time>2020-06-03T13:04:28Z</time>
      </trkpt>
      <trkpt lat="46.49457" lon="-1.78268">
        <ele>6</ele>
        <time>2020-06-03T13:04:29Z</time>
      </trkpt>
      <trkpt lat="46.49457" lon="-1.78268">
        <ele>6</ele>
        <time>2020-06-03T13:04:30Z</time>
      </trkpt>
      <trkpt lat="46.49457" lon="-1.78268">
        <ele>6</ele>
        <time>2020-06-03T13:04:31Z</time>
      </trkpt>
      <trkpt lat="46.49457" lon="-1.78268">
        <ele>6</ele>
        <time>2020-06-03T13:04:32Z</time>
      </trkpt>
      <trkpt lat="46.49457" lon="-1.78268">
        <ele>6</ele>
        <time>2020-06-03T13:04:33Z</time>
      </trkpt>
      <trkpt lat="46.49451" lon="-1.78262">
        <ele>5.9</ele>
        <time>2020-06-03T13:05:13Z</time>
      </trkpt>
      <trkpt lat="46.49451" lon="-1.7826">
        <ele>5.9</ele>
        <time>2020-06-03T13:05:14Z</time>
      </trkpt>
      <trkpt lat="46.49452" lon="-1.7826">
        <ele>5.9</ele>
        <time>2020-06-03T13:05:15Z</time>
      </trkpt>
      <trkpt lat="46.49453" lon="-1.78259">
        <ele>5.9</ele>
        <time>2020-06-03T13:05:16Z</time>
      </trkpt>
      <trkpt lat="46.49454" lon="-1.78259">
        <ele>5.9</ele>
        <time>2020-06-03T13:05:17Z</time>
      </trkpt>
      <trkpt lat="46.49454" lon="-1.7826">
        <ele>5.9</ele>
        <time>2020-06-03T13:05:18Z</time>
      </trkpt>
      <trkpt lat="46.49454" lon="-1.78261">
        <ele>5.9</ele>
        <time>2020-06-03T13:05:19Z</time>
      </trkpt>
      <trkpt lat="46.49454" lon="-1.78262">
        <ele>5.9</ele>
        <time>2020-06-03T13:05:20Z</time>
      </trkpt>
      <trkpt lat="46.49454" lon="-1.78262">
        <ele>5.9</ele>
        <time>2020-06-03T13:05:21Z</time>
      </trkpt>
      <trkpt lat="46.49454" lon="-1.78264">
        <ele>5.9</ele>
        <time>2020-06-03T13:05:22Z</time>
      </trkpt>
      <trkpt lat="46.49455" lon="-1.78269">
        <ele>5.9</ele>
        <time>2020-06-03T13:05:23Z</time>
      </trkpt>
      <trkpt lat="46.49455" lon="-1.7827">
        <ele>5.9</ele>
        <time>2020-06-03T13:05:24Z</time>
      </trkpt>
      <trkpt lat="46.49455" lon="-1.78274">
        <ele>5.9</ele>
        <time>2020-06-03T13:05:25Z</time>
      </trkpt>
      <trkpt lat="46.49455" lon="-1.78276">
        <ele>5.9</ele>
        <time>2020-06-03T13:05:26Z</time>
      </trkpt>
      <trkpt lat="46.49456" lon="-1.78282">
        <ele>5.9</ele>
        <time>2020-06-03T13:05:27Z</time>
      </trkpt>
      <trkpt lat="46.49456" lon="-1.78285">
        <ele>5.9</ele>
        <time>2020-06-03T13:05:28Z</time>
      </trkpt>
      <trkpt lat="46.49458" lon="-1.78289">
        <ele>5.9</ele>
        <time>2020-06-03T13:05:29Z</time>
      </trkpt>
      <trkpt lat="46.49459" lon="-1.78294">
        <ele>5.9</ele>
        <time>2020-06-03T13:05:30Z</time>
      </trkpt>
      <trkpt lat="46.49459" lon="-1.78296">
        <ele>5.9</ele>
        <time>2020-06-03T13:05:31Z</time>
      </trkpt>
      <trkpt lat="46.4946" lon="-1.78301">
        <ele>5.9</ele>
        <time>2020-06-03T13:05:32Z</time>
      </trkpt>
      <trkpt lat="46.49461" lon="-1.78303">
        <ele>5.9</ele>
        <time>2020-06-03T13:05:33Z</time>
      </trkpt>
      <trkpt lat="46.49462" lon="-1.78307">
        <ele>5.9</ele>
        <time>2020-06-03T13:05:34Z</time>
      </trkpt>
      <trkpt lat="46.49464" lon="-1.78312">
        <ele>5.9</ele>
        <time>2020-06-03T13:05:35Z</time>
      </trkpt>
      <trkpt lat="46.49465" lon="-1.78317">
        <ele>5.9</ele>
        <time>2020-06-03T13:05:36Z</time>
      </trkpt>
      <trkpt lat="46.49467" lon="-1.78321">
        <ele>5.9</ele>
        <time>2020-06-03T13:05:37Z</time>
      </trkpt>
      <trkpt lat="46.49467" lon="-1.78323">
        <ele>5.9</ele>
        <time>2020-06-03T13:05:38Z</time>
      </trkpt>
      <trkpt lat="46.49469" lon="-1.78327">
        <ele>5.9</ele>
        <time>2020-06-03T13:05:39Z</time>
      </trkpt>
      <trkpt lat="46.49469" lon="-1.78328">
        <ele>5.9</ele>
        <time>2020-06-03T13:05:40Z</time>
      </trkpt>
      <trkpt lat="46.4947" lon="-1.78333">
        <ele>5.9</ele>
        <time>2020-06-03T13:05:41Z</time>
      </trkpt>
      <trkpt lat="46.49471" lon="-1.78335">
        <ele>5.9</ele>
        <time>2020-06-03T13:05:42Z</time>
      </trkpt>
      <trkpt lat="46.49471" lon="-1.78339">
        <ele>5.9</ele>
        <time>2020-06-03T13:05:43Z</time>
      </trkpt>
      <trkpt lat="46.49476" lon="-1.78344">
        <ele>6</ele>
        <time>2020-06-03T13:05:44Z</time>
      </trkpt>
      <trkpt lat="46.49478" lon="-1.78349">
        <ele>6</ele>
        <time>2020-06-03T13:05:45Z</time>
      </trkpt>
      <trkpt lat="46.49479" lon="-1.78354">
        <ele>6</ele>
        <time>2020-06-03T13:05:46Z</time>
      </trkpt>
      <trkpt lat="46.49481" lon="-1.78359">
        <ele>6</ele>
        <time>2020-06-03T13:05:47Z</time>
      </trkpt>
      <trkpt lat="46.49482" lon="-1.78364">
        <ele>6</ele>
        <time>2020-06-03T13:05:48Z</time>
      </trkpt>
      <trkpt lat="46.49481" lon="-1.78371">
        <ele>6</ele>
        <time>2020-06-03T13:05:49Z</time>
      </trkpt>
      <trkpt lat="46.49482" lon="-1.78377">
        <ele>6</ele>
        <time>2020-06-03T13:05:50Z</time>
      </trkpt>
      <trkpt lat="46.49483" lon="-1.78383">
        <ele>6</ele>
        <time>2020-06-03T13:05:51Z</time>
      </trkpt>
      <trkpt lat="46.49482" lon="-1.78388">
        <ele>6</ele>
        <time>2020-06-03T13:05:52Z</time>
      </trkpt>
      <trkpt lat="46.49483" lon="-1.78393">
        <ele>6</ele>
        <time>2020-06-03T13:05:53Z</time>
      </trkpt>
      <trkpt lat="46.49484" lon="-1.78398">
        <ele>6.1</ele>
        <time>2020-06-03T13:05:54Z</time>
      </trkpt>
      <trkpt lat="46.49487" lon="-1.78403">
        <ele>6.1</ele>
        <time>2020-06-03T13:05:55Z</time>
      </trkpt>
      <trkpt lat="46.49487" lon="-1.78409">
        <ele>6.1</ele>
        <time>2020-06-03T13:05:56Z</time>
      </trkpt>
      <trkpt lat="46.49487" lon="-1.78412">
        <ele>6.1</ele>
        <time>2020-06-03T13:05:57Z</time>
      </trkpt>
      <trkpt lat="46.4949" lon="-1.78417">
        <ele>6.1</ele>
        <time>2020-06-03T13:05:58Z</time>
      </trkpt>
      <trkpt lat="46.49488" lon="-1.78422">
        <ele>6.1</ele>
        <time>2020-06-03T13:05:59Z</time>
      </trkpt>
      <trkpt lat="46.49488" lon="-1.78427">
        <ele>6</ele>
        <time>2020-06-03T13:06:00Z</time>
      </trkpt>
      <trkpt lat="46.49488" lon="-1.78431">
        <ele>6</ele>
        <time>2020-06-03T13:06:01Z</time>
      </trkpt>
      <trkpt lat="46.49487" lon="-1.78435">
        <ele>6</ele>
        <time>2020-06-03T13:06:02Z</time>
      </trkpt>
      <trkpt lat="46.49487" lon="-1.78441">
        <ele>6</ele>
        <time>2020-06-03T13:06:03Z</time>
      </trkpt>
      <trkpt lat="46.49487" lon="-1.78442">
        <ele>6</ele>
        <time>2020-06-03T13:06:04Z</time>
      </trkpt>
      <trkpt lat="46.49486" lon="-1.78446">
        <ele>6</ele>
        <time>2020-06-03T13:06:05Z</time>
      </trkpt>
      <trkpt lat="46.49485" lon="-1.78451">
        <ele>6</ele>
        <time>2020-06-03T13:06:06Z</time>
      </trkpt>
      <trkpt lat="46.49485" lon="-1.78457">
        <ele>6</ele>
        <time>2020-06-03T13:06:07Z</time>
      </trkpt>
      <trkpt lat="46.49485" lon="-1.78459">
        <ele>6</ele>
        <time>2020-06-03T13:06:08Z</time>
      </trkpt>
      <trkpt lat="46.49485" lon="-1.78463">
        <ele>6</ele>
        <time>2020-06-03T13:06:09Z</time>
      </trkpt>
      <trkpt lat="46.49485" lon="-1.78467">
        <ele>5.9</ele>
        <time>2020-06-03T13:06:10Z</time>
      </trkpt>
      <trkpt lat="46.49485" lon="-1.78471">
        <ele>5.9</ele>
        <time>2020-06-03T13:06:11Z</time>
      </trkpt>
      <trkpt lat="46.49485" lon="-1.78475">
        <ele>5.9</ele>
        <time>2020-06-03T13:06:12Z</time>
      </trkpt>
      <trkpt lat="46.49485" lon="-1.7848">
        <ele>5.9</ele>
        <time>2020-06-03T13:06:13Z</time>
      </trkpt>
      <trkpt lat="46.49486" lon="-1.78484">
        <ele>5.9</ele>
        <time>2020-06-03T13:06:14Z</time>
      </trkpt>
      <trkpt lat="46.49485" lon="-1.7849">
        <ele>5.9</ele>
        <time>2020-06-03T13:06:15Z</time>
      </trkpt>
      <trkpt lat="46.49485" lon="-1.78493">
        <ele>5.9</ele>
        <time>2020-06-03T13:06:16Z</time>
      </trkpt>
      <trkpt lat="46.49485" lon="-1.78498">
        <ele>5.9</ele>
        <time>2020-06-03T13:06:17Z</time>
      </trkpt>
      <trkpt lat="46.49485" lon="-1.78502">
        <ele>5.9</ele>
        <time>2020-06-03T13:06:18Z</time>
      </trkpt>
      <trkpt lat="46.49484" lon="-1.78508">
        <ele>5.8</ele>
        <time>2020-06-03T13:06:19Z</time>
      </trkpt>
      <trkpt lat="46.49483" lon="-1.78513">
        <ele>5.8</ele>
        <time>2020-06-03T13:06:20Z</time>
      </trkpt>
      <trkpt lat="46.49483" lon="-1.78518">
        <ele>5.8</ele>
        <time>2020-06-03T13:06:21Z</time>
      </trkpt>
      <trkpt lat="46.49483" lon="-1.78519">
        <ele>5.8</ele>
        <time>2020-06-03T13:06:22Z</time>
      </trkpt>
      <trkpt lat="46.49484" lon="-1.78524">
        <ele>5.8</ele>
        <time>2020-06-03T13:06:23Z</time>
      </trkpt>
      <trkpt lat="46.49484" lon="-1.78528">
        <ele>5.8</ele>
        <time>2020-06-03T13:06:24Z</time>
      </trkpt>
      <trkpt lat="46.49484" lon="-1.78532">
        <ele>5.8</ele>
        <time>2020-06-03T13:06:25Z</time>
      </trkpt>
      <trkpt lat="46.49484" lon="-1.78536">
        <ele>5.8</ele>
        <time>2020-06-03T13:06:26Z</time>
      </trkpt>
      <trkpt lat="46.49484" lon="-1.78542">
        <ele>5.8</ele>
        <time>2020-06-03T13:06:27Z</time>
      </trkpt>
      <trkpt lat="46.49484" lon="-1.78545">
        <ele>5.8</ele>
        <time>2020-06-03T13:06:28Z</time>
      </trkpt>
      <trkpt lat="46.49485" lon="-1.7855">
        <ele>5.8</ele>
        <time>2020-06-03T13:06:29Z</time>
      </trkpt>
      <trkpt lat="46.49484" lon="-1.78555">
        <ele>5.8</ele>
        <time>2020-06-03T13:06:30Z</time>
      </trkpt>
      <trkpt lat="46.49485" lon="-1.7856">
        <ele>5.8</ele>
        <time>2020-06-03T13:06:31Z</time>
      </trkpt>
      <trkpt lat="46.49485" lon="-1.78567">
        <ele>5.8</ele>
        <time>2020-06-03T13:06:32Z</time>
      </trkpt>
      <trkpt lat="46.49485" lon="-1.7857">
        <ele>5.8</ele>
        <time>2020-06-03T13:06:33Z</time>
      </trkpt>
      <trkpt lat="46.49485" lon="-1.78574">
        <ele>5.8</ele>
        <time>2020-06-03T13:06:34Z</time>
      </trkpt>
      <trkpt lat="46.49485" lon="-1.78578">
        <ele>5.8</ele>
        <time>2020-06-03T13:06:35Z</time>
      </trkpt>
      <trkpt lat="46.49486" lon="-1.78583">
        <ele>5.8</ele>
        <time>2020-06-03T13:06:36Z</time>
      </trkpt>
      <trkpt lat="46.49486" lon="-1.78584">
        <ele>5.8</ele>
        <time>2020-06-03T13:06:37Z</time>
      </trkpt>
      <trkpt lat="46.49486" lon="-1.7859">
        <ele>5.8</ele>
        <time>2020-06-03T13:06:38Z</time>
      </trkpt>
      <trkpt lat="46.49486" lon="-1.78592">
        <ele>5.8</ele>
        <time>2020-06-03T13:06:39Z</time>
      </trkpt>
      <trkpt lat="46.49486" lon="-1.78597">
        <ele>5.8</ele>
        <time>2020-06-03T13:06:40Z</time>
      </trkpt>
      <trkpt lat="46.49485" lon="-1.78602">
        <ele>5.8</ele>
        <time>2020-06-03T13:06:41Z</time>
      </trkpt>
      <trkpt lat="46.49485" lon="-1.78607">
        <ele>5.8</ele>
        <time>2020-06-03T13:06:42Z</time>
      </trkpt>
      <trkpt lat="46.49485" lon="-1.78613">
        <ele>5.8</ele>
        <time>2020-06-03T13:06:43Z</time>
      </trkpt>
      <trkpt lat="46.49485" lon="-1.78616">
        <ele>5.8</ele>
        <time>2020-06-03T13:06:44Z</time>
      </trkpt>
      <trkpt lat="46.49483" lon="-1.78621">
        <ele>5.8</ele>
        <time>2020-06-03T13:06:45Z</time>
      </trkpt>
      <trkpt lat="46.49482" lon="-1.78625">
        <ele>5.8</ele>
        <time>2020-06-03T13:06:46Z</time>
      </trkpt>
      <trkpt lat="46.49481" lon="-1.7863">
        <ele>5.9</ele>
        <time>2020-06-03T13:06:47Z</time>
      </trkpt>
      <trkpt lat="46.49481" lon="-1.78634">
        <ele>5.9</ele>
        <time>2020-06-03T13:06:48Z</time>
      </trkpt>
      <trkpt lat="46.4948" lon="-1.78638">
        <ele>5.9</ele>
        <time>2020-06-03T13:06:49Z</time>
      </trkpt>
      <trkpt lat="46.4948" lon="-1.78645">
        <ele>5.9</ele>
        <time>2020-06-03T13:06:50Z</time>
      </trkpt>
      <trkpt lat="46.4948" lon="-1.78649">
        <ele>5.9</ele>
        <time>2020-06-03T13:06:51Z</time>
      </trkpt>
      <trkpt lat="46.4948" lon="-1.78654">
        <ele>5.9</ele>
        <time>2020-06-03T13:06:52Z</time>
      </trkpt>
      <trkpt lat="46.4948" lon="-1.78656">
        <ele>5.9</ele>
        <time>2020-06-03T13:06:53Z</time>
      </trkpt>
      <trkpt lat="46.4948" lon="-1.78661">
        <ele>5.9</ele>
        <time>2020-06-03T13:06:54Z</time>
      </trkpt>
      <trkpt lat="46.4948" lon="-1.78663">
        <ele>5.9</ele>
        <time>2020-06-03T13:06:55Z</time>
      </trkpt>
      <trkpt lat="46.4948" lon="-1.78668">
        <ele>5.9</ele>
        <time>2020-06-03T13:06:56Z</time>
      </trkpt>
      <trkpt lat="46.4948" lon="-1.78669">
        <ele>5.9</ele>
        <time>2020-06-03T13:06:57Z</time>
      </trkpt>
      <trkpt lat="46.4948" lon="-1.78676">
        <ele>5.9</ele>
        <time>2020-06-03T13:06:58Z</time>
      </trkpt>
      <trkpt lat="46.4948" lon="-1.78678">
        <ele>5.9</ele>
        <time>2020-06-03T13:06:59Z</time>
      </trkpt>
      <trkpt lat="46.49481" lon="-1.78682">
        <ele>5.9</ele>
        <time>2020-06-03T13:07:00Z</time>
      </trkpt>
      <trkpt lat="46.4948" lon="-1.78686">
        <ele>5.9</ele>
        <time>2020-06-03T13:07:01Z</time>
      </trkpt>
      <trkpt lat="46.4948" lon="-1.78692">
        <ele>5.9</ele>
        <time>2020-06-03T13:07:02Z</time>
      </trkpt>
      <trkpt lat="46.49481" lon="-1.78694">
        <ele>5.9</ele>
        <time>2020-06-03T13:07:03Z</time>
      </trkpt>
      <trkpt lat="46.49481" lon="-1.787">
        <ele>5.9</ele>
        <time>2020-06-03T13:07:04Z</time>
      </trkpt>
      <trkpt lat="46.49481" lon="-1.78702">
        <ele>5.9</ele>
        <time>2020-06-03T13:07:05Z</time>
      </trkpt>
      <trkpt lat="46.49481" lon="-1.78706">
        <ele>5.9</ele>
        <time>2020-06-03T13:07:06Z</time>
      </trkpt>
      <trkpt lat="46.4948" lon="-1.78711">
        <ele>5.9</ele>
        <time>2020-06-03T13:07:07Z</time>
      </trkpt>
      <trkpt lat="46.4948" lon="-1.78713">
        <ele>5.9</ele>
        <time>2020-06-03T13:07:08Z</time>
      </trkpt>
      <trkpt lat="46.4948" lon="-1.78718">
        <ele>5.9</ele>
        <time>2020-06-03T13:07:09Z</time>
      </trkpt>
      <trkpt lat="46.4948" lon="-1.7872">
        <ele>5.9</ele>
        <time>2020-06-03T13:07:10Z</time>
      </trkpt>
      <trkpt lat="46.4948" lon="-1.78724">
        <ele>5.9</ele>
        <time>2020-06-03T13:07:11Z</time>
      </trkpt>
      <trkpt lat="46.4948" lon="-1.78729">
        <ele>5.9</ele>
        <time>2020-06-03T13:07:12Z</time>
      </trkpt>
      <trkpt lat="46.4948" lon="-1.78731">
        <ele>5.9</ele>
        <time>2020-06-03T13:07:13Z</time>
      </trkpt>
      <trkpt lat="46.49479" lon="-1.78735">
        <ele>5.9</ele>
        <time>2020-06-03T13:07:14Z</time>
      </trkpt>
      <trkpt lat="46.49479" lon="-1.78741">
        <ele>5.9</ele>
        <time>2020-06-03T13:07:15Z</time>
      </trkpt>
      <trkpt lat="46.49479" lon="-1.78743">
        <ele>5.9</ele>
        <time>2020-06-03T13:07:16Z</time>
      </trkpt>
      <trkpt lat="46.49479" lon="-1.78748">
        <ele>5.9</ele>
        <time>2020-06-03T13:07:17Z</time>
      </trkpt>
      <trkpt lat="46.49479" lon="-1.7875">
        <ele>5.9</ele>
        <time>2020-06-03T13:07:18Z</time>
      </trkpt>
      <trkpt lat="46.49479" lon="-1.78755">
        <ele>5.9</ele>
        <time>2020-06-03T13:07:19Z</time>
      </trkpt>
      <trkpt lat="46.49479" lon="-1.78756">
        <ele>5.9</ele>
        <time>2020-06-03T13:07:20Z</time>
      </trkpt>
      <trkpt lat="46.49479" lon="-1.7876">
        <ele>5.9</ele>
        <time>2020-06-03T13:07:21Z</time>
      </trkpt>
      <trkpt lat="46.49478" lon="-1.78762">
        <ele>5.9</ele>
        <time>2020-06-03T13:07:22Z</time>
      </trkpt>
      <trkpt lat="46.49478" lon="-1.78764">
        <ele>5.9</ele>
        <time>2020-06-03T13:07:23Z</time>
      </trkpt>
      <trkpt lat="46.49479" lon="-1.78765">
        <ele>5.9</ele>
        <time>2020-06-03T13:07:24Z</time>
      </trkpt>
      <trkpt lat="46.49479" lon="-1.78766">
        <ele>5.9</ele>
        <time>2020-06-03T13:07:25Z</time>
      </trkpt>
      <trkpt lat="46.49478" lon="-1.78768">
        <ele>5.9</ele>
        <time>2020-06-03T13:07:26Z</time>
      </trkpt>
      <trkpt lat="46.49478" lon="-1.7877">
        <ele>5.9</ele>
        <time>2020-06-03T13:07:27Z</time>
      </trkpt>
      <trkpt lat="46.49478" lon="-1.78771">
        <ele>5.9</ele>
        <time>2020-06-03T13:07:28Z</time>
      </trkpt>
      <trkpt lat="46.49477" lon="-1.78772">
        <ele>5.9</ele>
        <time>2020-06-03T13:07:29Z</time>
      </trkpt>
      <trkpt lat="46.49478" lon="-1.78773">
        <ele>5.9</ele>
        <time>2020-06-03T13:07:30Z</time>
      </trkpt>
      <trkpt lat="46.49478" lon="-1.78773">
        <ele>5.9</ele>
        <time>2020-06-03T13:07:31Z</time>
      </trkpt>
      <trkpt lat="46.49479" lon="-1.78774">
        <ele>5.9</ele>
        <time>2020-06-03T13:07:32Z</time>
      </trkpt>
      <trkpt lat="46.49479" lon="-1.78775">
        <ele>6</ele>
        <time>2020-06-03T13:07:33Z</time>
      </trkpt>
      <trkpt lat="46.49479" lon="-1.78778">
        <ele>6</ele>
        <time>2020-06-03T13:07:34Z</time>
      </trkpt>
      <trkpt lat="46.49479" lon="-1.78779">
        <ele>6</ele>
        <time>2020-06-03T13:07:35Z</time>
      </trkpt>
      <trkpt lat="46.49479" lon="-1.7878">
        <ele>6</ele>
        <time>2020-06-03T13:07:36Z</time>
      </trkpt>
      <trkpt lat="46.49479" lon="-1.7878">
        <ele>6</ele>
        <time>2020-06-03T13:07:37Z</time>
      </trkpt>
      <trkpt lat="46.49479" lon="-1.78781">
        <ele>6</ele>
        <time>2020-06-03T13:07:38Z</time>
      </trkpt>
      <trkpt lat="46.4948" lon="-1.78784">
        <ele>6</ele>
        <time>2020-06-03T13:07:39Z</time>
      </trkpt>
      <trkpt lat="46.4948" lon="-1.78785">
        <ele>6</ele>
        <time>2020-06-03T13:07:40Z</time>
      </trkpt>
      <trkpt lat="46.4948" lon="-1.78787">
        <ele>6</ele>
        <time>2020-06-03T13:07:41Z</time>
      </trkpt>
      <trkpt lat="46.4948" lon="-1.78789">
        <ele>6</ele>
        <time>2020-06-03T13:07:42Z</time>
      </trkpt>
      <trkpt lat="46.49479" lon="-1.78792">
        <ele>6</ele>
        <time>2020-06-03T13:07:43Z</time>
      </trkpt>
      <trkpt lat="46.49479" lon="-1.78795">
        <ele>6</ele>
        <time>2020-06-03T13:07:44Z</time>
      </trkpt>
      <trkpt lat="46.49479" lon="-1.78796">
        <ele>6</ele>
        <time>2020-06-03T13:07:45Z</time>
      </trkpt>
      <trkpt lat="46.49479" lon="-1.78798">
        <ele>6</ele>
        <time>2020-06-03T13:07:46Z</time>
      </trkpt>
      <trkpt lat="46.49478" lon="-1.788">
        <ele>6</ele>
        <time>2020-06-03T13:07:47Z</time>
      </trkpt>
      <trkpt lat="46.49478" lon="-1.78801">
        <ele>6</ele>
        <time>2020-06-03T13:07:48Z</time>
      </trkpt>
      <trkpt lat="46.49478" lon="-1.78803">
        <ele>6</ele>
        <time>2020-06-03T13:07:49Z</time>
      </trkpt>
      <trkpt lat="46.49479" lon="-1.78804">
        <ele>6</ele>
        <time>2020-06-03T13:07:50Z</time>
      </trkpt>
      <trkpt lat="46.49478" lon="-1.78805">
        <ele>6</ele>
        <time>2020-06-03T13:07:51Z</time>
      </trkpt>
      <trkpt lat="46.49479" lon="-1.78806">
        <ele>6</ele>
        <time>2020-06-03T13:07:52Z</time>
      </trkpt>
      <trkpt lat="46.49478" lon="-1.78807">
        <ele>6</ele>
        <time>2020-06-03T13:07:53Z</time>
      </trkpt>
      <trkpt lat="46.49478" lon="-1.78809">
        <ele>6</ele>
        <time>2020-06-03T13:07:54Z</time>
      </trkpt>
      <trkpt lat="46.49478" lon="-1.78811">
        <ele>6</ele>
        <time>2020-06-03T13:07:55Z</time>
      </trkpt>
      <trkpt lat="46.49478" lon="-1.78813">
        <ele>6</ele>
        <time>2020-06-03T13:07:56Z</time>
      </trkpt>
      <trkpt lat="46.49478" lon="-1.78814">
        <ele>6</ele>
        <time>2020-06-03T13:07:57Z</time>
      </trkpt>
      <trkpt lat="46.49479" lon="-1.78815">
        <ele>6</ele>
        <time>2020-06-03T13:07:58Z</time>
      </trkpt>
      <trkpt lat="46.49479" lon="-1.78816">
        <ele>6</ele>
        <time>2020-06-03T13:07:59Z</time>
      </trkpt>
      <trkpt lat="46.49479" lon="-1.78818">
        <ele>6</ele>
        <time>2020-06-03T13:08:00Z</time>
      </trkpt>
      <trkpt lat="46.49479" lon="-1.78819">
        <ele>6</ele>
        <time>2020-06-03T13:08:01Z</time>
      </trkpt>
      <trkpt lat="46.49479" lon="-1.78822">
        <ele>6</ele>
        <time>2020-06-03T13:08:02Z</time>
      </trkpt>
      <trkpt lat="46.49479" lon="-1.78823">
        <ele>6</ele>
        <time>2020-06-03T13:08:03Z</time>
      </trkpt>
      <trkpt lat="46.49479" lon="-1.78824">
        <ele>6</ele>
        <time>2020-06-03T13:08:04Z</time>
      </trkpt>
      <trkpt lat="46.49479" lon="-1.78828">
        <ele>6</ele>
        <time>2020-06-03T13:08:05Z</time>
      </trkpt>
      <trkpt lat="46.49479" lon="-1.7883">
        <ele>6</ele>
        <time>2020-06-03T13:08:06Z</time>
      </trkpt>
      <trkpt lat="46.49479" lon="-1.78834">
        <ele>6</ele>
        <time>2020-06-03T13:08:07Z</time>
      </trkpt>
      <trkpt lat="46.49479" lon="-1.78835">
        <ele>6</ele>
        <time>2020-06-03T13:08:08Z</time>
      </trkpt>
      <trkpt lat="46.49478" lon="-1.78837">
        <ele>6</ele>
        <time>2020-06-03T13:08:09Z</time>
      </trkpt>
      <trkpt lat="46.49477" lon="-1.78839">
        <ele>6</ele>
        <time>2020-06-03T13:08:10Z</time>
      </trkpt>
      <trkpt lat="46.49476" lon="-1.78839">
        <ele>6</ele>
        <time>2020-06-03T13:08:11Z</time>
      </trkpt>
      <trkpt lat="46.49476" lon="-1.7884">
        <ele>6</ele>
        <time>2020-06-03T13:08:12Z</time>
      </trkpt>
      <trkpt lat="46.49475" lon="-1.78841">
        <ele>6</ele>
        <time>2020-06-03T13:08:13Z</time>
      </trkpt>
      <trkpt lat="46.49474" lon="-1.78842">
        <ele>6.1</ele>
        <time>2020-06-03T13:08:14Z</time>
      </trkpt>
      <trkpt lat="46.49474" lon="-1.78844">
        <ele>6.1</ele>
        <time>2020-06-03T13:08:15Z</time>
      </trkpt>
      <trkpt lat="46.49474" lon="-1.78845">
        <ele>6.1</ele>
        <time>2020-06-03T13:08:16Z</time>
      </trkpt>
      <trkpt lat="46.49473" lon="-1.78846">
        <ele>6.1</ele>
        <time>2020-06-03T13:08:17Z</time>
      </trkpt>
      <trkpt lat="46.49473" lon="-1.78848">
        <ele>6.1</ele>
        <time>2020-06-03T13:08:18Z</time>
      </trkpt>
      <trkpt lat="46.49474" lon="-1.78849">
        <ele>6.1</ele>
        <time>2020-06-03T13:08:19Z</time>
      </trkpt>
      <trkpt lat="46.49474" lon="-1.7885">
        <ele>6.1</ele>
        <time>2020-06-03T13:08:20Z</time>
      </trkpt>
      <trkpt lat="46.49474" lon="-1.78853">
        <ele>6.1</ele>
        <time>2020-06-03T13:08:21Z</time>
      </trkpt>
      <trkpt lat="46.49474" lon="-1.78855">
        <ele>6.1</ele>
        <time>2020-06-03T13:08:22Z</time>
      </trkpt>
      <trkpt lat="46.49474" lon="-1.78856">
        <ele>6.1</ele>
        <time>2020-06-03T13:08:23Z</time>
      </trkpt>
      <trkpt lat="46.49474" lon="-1.7886">
        <ele>6.1</ele>
        <time>2020-06-03T13:08:24Z</time>
      </trkpt>
      <trkpt lat="46.49474" lon="-1.78862">
        <ele>6.1</ele>
        <time>2020-06-03T13:08:25Z</time>
      </trkpt>
      <trkpt lat="46.49474" lon="-1.78864">
        <ele>6.1</ele>
        <time>2020-06-03T13:08:26Z</time>
      </trkpt>
      <trkpt lat="46.49474" lon="-1.78867">
        <ele>6.1</ele>
        <time>2020-06-03T13:08:27Z</time>
      </trkpt>
      <trkpt lat="46.49474" lon="-1.78872">
        <ele>6.1</ele>
        <time>2020-06-03T13:08:28Z</time>
      </trkpt>
      <trkpt lat="46.49474" lon="-1.78874">
        <ele>6.1</ele>
        <time>2020-06-03T13:08:29Z</time>
      </trkpt>
      <trkpt lat="46.49474" lon="-1.78879">
        <ele>6.1</ele>
        <time>2020-06-03T13:08:30Z</time>
      </trkpt>
      <trkpt lat="46.49474" lon="-1.78881">
        <ele>6.1</ele>
        <time>2020-06-03T13:08:31Z</time>
      </trkpt>
      <trkpt lat="46.49473" lon="-1.78886">
        <ele>6.1</ele>
        <time>2020-06-03T13:08:32Z</time>
      </trkpt>
      <trkpt lat="46.49474" lon="-1.7889">
        <ele>6.1</ele>
        <time>2020-06-03T13:08:33Z</time>
      </trkpt>
      <trkpt lat="46.49475" lon="-1.78895">
        <ele>6.1</ele>
        <time>2020-06-03T13:08:34Z</time>
      </trkpt>
      <trkpt lat="46.49474" lon="-1.78899">
        <ele>6.1</ele>
        <time>2020-06-03T13:08:35Z</time>
      </trkpt>
      <trkpt lat="46.49474" lon="-1.78904">
        <ele>6.2</ele>
        <time>2020-06-03T13:08:36Z</time>
      </trkpt>
      <trkpt lat="46.49474" lon="-1.78909">
        <ele>6.2</ele>
        <time>2020-06-03T13:08:37Z</time>
      </trkpt>
      <trkpt lat="46.49474" lon="-1.78914">
        <ele>6.2</ele>
        <time>2020-06-03T13:08:38Z</time>
      </trkpt>
      <trkpt lat="46.49473" lon="-1.78919">
        <ele>6.2</ele>
        <time>2020-06-03T13:08:39Z</time>
      </trkpt>
      <trkpt lat="46.49473" lon="-1.78924">
        <ele>6.2</ele>
        <time>2020-06-03T13:08:40Z</time>
      </trkpt>
      <trkpt lat="46.49472" lon="-1.78929">
        <ele>6.2</ele>
        <time>2020-06-03T13:08:41Z</time>
      </trkpt>
      <trkpt lat="46.49472" lon="-1.78934">
        <ele>6.2</ele>
        <time>2020-06-03T13:08:42Z</time>
      </trkpt>
      <trkpt lat="46.49472" lon="-1.78939">
        <ele>6.2</ele>
        <time>2020-06-03T13:08:43Z</time>
      </trkpt>
      <trkpt lat="46.49473" lon="-1.78943">
        <ele>6.2</ele>
        <time>2020-06-03T13:08:44Z</time>
      </trkpt>
      <trkpt lat="46.49472" lon="-1.78949">
        <ele>6.2</ele>
        <time>2020-06-03T13:08:45Z</time>
      </trkpt>
      <trkpt lat="46.49472" lon="-1.78953">
        <ele>6.2</ele>
        <time>2020-06-03T13:08:46Z</time>
      </trkpt>
      <trkpt lat="46.49472" lon="-1.78958">
        <ele>6.2</ele>
        <time>2020-06-03T13:08:47Z</time>
      </trkpt>
      <trkpt lat="46.49472" lon="-1.78963">
        <ele>6.2</ele>
        <time>2020-06-03T13:08:48Z</time>
      </trkpt>
      <trkpt lat="46.49472" lon="-1.78968">
        <ele>6.2</ele>
        <time>2020-06-03T13:08:49Z</time>
      </trkpt>
      <trkpt lat="46.49471" lon="-1.78972">
        <ele>6.2</ele>
        <time>2020-06-03T13:08:50Z</time>
      </trkpt>
      <trkpt lat="46.49471" lon="-1.78976">
        <ele>6.2</ele>
        <time>2020-06-03T13:08:51Z</time>
      </trkpt>
      <trkpt lat="46.49472" lon="-1.78981">
        <ele>6.2</ele>
        <time>2020-06-03T13:08:52Z</time>
      </trkpt>
      <trkpt lat="46.49471" lon="-1.78986">
        <ele>6.2</ele>
        <time>2020-06-03T13:08:53Z</time>
      </trkpt>
      <trkpt lat="46.49472" lon="-1.78991">
        <ele>6.2</ele>
        <time>2020-06-03T13:08:54Z</time>
      </trkpt>
      <trkpt lat="46.49471" lon="-1.78996">
        <ele>6.2</ele>
        <time>2020-06-03T13:08:55Z</time>
      </trkpt>
      <trkpt lat="46.49471" lon="-1.79">
        <ele>6.2</ele>
        <time>2020-06-03T13:08:56Z</time>
      </trkpt>
      <trkpt lat="46.49471" lon="-1.79005">
        <ele>6.2</ele>
        <time>2020-06-03T13:08:57Z</time>
      </trkpt>
      <trkpt lat="46.49471" lon="-1.79009">
        <ele>6.2</ele>
        <time>2020-06-03T13:08:58Z</time>
      </trkpt>
      <trkpt lat="46.4947" lon="-1.79013">
        <ele>6.2</ele>
        <time>2020-06-03T13:08:59Z</time>
      </trkpt>
      <trkpt lat="46.49471" lon="-1.79018">
        <ele>6.2</ele>
        <time>2020-06-03T13:09:00Z</time>
      </trkpt>
      <trkpt lat="46.49472" lon="-1.79021">
        <ele>6.2</ele>
        <time>2020-06-03T13:09:01Z</time>
      </trkpt>
      <trkpt lat="46.49472" lon="-1.79027">
        <ele>6.3</ele>
        <time>2020-06-03T13:09:02Z</time>
      </trkpt>
      <trkpt lat="46.49472" lon="-1.79028">
        <ele>6.3</ele>
        <time>2020-06-03T13:09:03Z</time>
      </trkpt>
      <trkpt lat="46.49474" lon="-1.79033">
        <ele>6.3</ele>
        <time>2020-06-03T13:09:04Z</time>
      </trkpt>
      <trkpt lat="46.49474" lon="-1.79035">
        <ele>6.3</ele>
        <time>2020-06-03T13:09:05Z</time>
      </trkpt>
      <trkpt lat="46.49474" lon="-1.79041">
        <ele>6.3</ele>
        <time>2020-06-03T13:09:06Z</time>
      </trkpt>
      <trkpt lat="46.49475" lon="-1.79043">
        <ele>6.3</ele>
        <time>2020-06-03T13:09:07Z</time>
      </trkpt>
      <trkpt lat="46.49475" lon="-1.79046">
        <ele>6.3</ele>
        <time>2020-06-03T13:09:08Z</time>
      </trkpt>
      <trkpt lat="46.49476" lon="-1.7905">
        <ele>6.3</ele>
        <time>2020-06-03T13:09:09Z</time>
      </trkpt>
      <trkpt lat="46.49477" lon="-1.79054">
        <ele>6.3</ele>
        <time>2020-06-03T13:09:10Z</time>
      </trkpt>
      <trkpt lat="46.49476" lon="-1.79058">
        <ele>6.3</ele>
        <time>2020-06-03T13:09:11Z</time>
      </trkpt>
      <trkpt lat="46.49476" lon="-1.79062">
        <ele>6.3</ele>
        <time>2020-06-03T13:09:12Z</time>
      </trkpt>
      <trkpt lat="46.49476" lon="-1.79067">
        <ele>6.3</ele>
        <time>2020-06-03T13:09:13Z</time>
      </trkpt>
      <trkpt lat="46.49474" lon="-1.7907">
        <ele>6.3</ele>
        <time>2020-06-03T13:09:14Z</time>
      </trkpt>
      <trkpt lat="46.49474" lon="-1.79074">
        <ele>6.3</ele>
        <time>2020-06-03T13:09:15Z</time>
      </trkpt>
      <trkpt lat="46.49475" lon="-1.7908">
        <ele>6.2</ele>
        <time>2020-06-03T13:09:16Z</time>
      </trkpt>
      <trkpt lat="46.49475" lon="-1.79082">
        <ele>6.2</ele>
        <time>2020-06-03T13:09:17Z</time>
      </trkpt>
      <trkpt lat="46.49474" lon="-1.79086">
        <ele>6.2</ele>
        <time>2020-06-03T13:09:18Z</time>
      </trkpt>
      <trkpt lat="46.49473" lon="-1.7909">
        <ele>6.2</ele>
        <time>2020-06-03T13:09:19Z</time>
      </trkpt>
      <trkpt lat="46.49474" lon="-1.79095">
        <ele>6.2</ele>
        <time>2020-06-03T13:09:20Z</time>
      </trkpt>
      <trkpt lat="46.49473" lon="-1.79099">
        <ele>6.2</ele>
        <time>2020-06-03T13:09:21Z</time>
      </trkpt>
      <trkpt lat="46.49472" lon="-1.79104">
        <ele>6.2</ele>
        <time>2020-06-03T13:09:22Z</time>
      </trkpt>
      <trkpt lat="46.49472" lon="-1.79105">
        <ele>6.2</ele>
        <time>2020-06-03T13:09:23Z</time>
      </trkpt>
      <trkpt lat="46.49471" lon="-1.79111">
        <ele>6.3</ele>
        <time>2020-06-03T13:09:24Z</time>
      </trkpt>
      <trkpt lat="46.49471" lon="-1.79113">
        <ele>6.3</ele>
        <time>2020-06-03T13:09:25Z</time>
      </trkpt>
      <trkpt lat="46.49471" lon="-1.79118">
        <ele>6.3</ele>
        <time>2020-06-03T13:09:26Z</time>
      </trkpt>
      <trkpt lat="46.49471" lon="-1.79119">
        <ele>6.3</ele>
        <time>2020-06-03T13:09:27Z</time>
      </trkpt>
      <trkpt lat="46.4947" lon="-1.79123">
        <ele>6.3</ele>
        <time>2020-06-03T13:09:28Z</time>
      </trkpt>
      <trkpt lat="46.4947" lon="-1.79124">
        <ele>6.3</ele>
        <time>2020-06-03T13:09:29Z</time>
      </trkpt>
      <trkpt lat="46.4947" lon="-1.79126">
        <ele>6.3</ele>
        <time>2020-06-03T13:09:30Z</time>
      </trkpt>
      <trkpt lat="46.4947" lon="-1.79128">
        <ele>6.3</ele>
        <time>2020-06-03T13:09:31Z</time>
      </trkpt>
      <trkpt lat="46.49469" lon="-1.79129">
        <ele>6.3</ele>
        <time>2020-06-03T13:09:32Z</time>
      </trkpt>
      <trkpt lat="46.49468" lon="-1.79132">
        <ele>6.3</ele>
        <time>2020-06-03T13:09:33Z</time>
      </trkpt>
      <trkpt lat="46.49467" lon="-1.79132">
        <ele>6.3</ele>
        <time>2020-06-03T13:09:34Z</time>
      </trkpt>
      <trkpt lat="46.49467" lon="-1.79133">
        <ele>6.3</ele>
        <time>2020-06-03T13:09:35Z</time>
      </trkpt>
      <trkpt lat="46.49467" lon="-1.79134">
        <ele>6.3</ele>
        <time>2020-06-03T13:09:36Z</time>
      </trkpt>
      <trkpt lat="46.49467" lon="-1.79133">
        <ele>6.3</ele>
        <time>2020-06-03T13:09:37Z</time>
      </trkpt>
      <trkpt lat="46.49466" lon="-1.79131">
        <ele>6.3</ele>
        <time>2020-06-03T13:09:38Z</time>
      </trkpt>
      <trkpt lat="46.49466" lon="-1.79133">
        <ele>6.3</ele>
        <time>2020-06-03T13:09:39Z</time>
      </trkpt>
      <trkpt lat="46.49465" lon="-1.79133">
        <ele>6.3</ele>
        <time>2020-06-03T13:09:40Z</time>
      </trkpt>
      <trkpt lat="46.49465" lon="-1.79133">
        <ele>6.3</ele>
        <time>2020-06-03T13:09:41Z</time>
      </trkpt>
      <trkpt lat="46.49465" lon="-1.79135">
        <ele>6.3</ele>
        <time>2020-06-03T13:09:42Z</time>
      </trkpt>
      <trkpt lat="46.49464" lon="-1.79137">
        <ele>6.3</ele>
        <time>2020-06-03T13:09:43Z</time>
      </trkpt>
      <trkpt lat="46.49464" lon="-1.79139">
        <ele>6.3</ele>
        <time>2020-06-03T13:09:44Z</time>
      </trkpt>
      <trkpt lat="46.49462" lon="-1.79145">
        <ele>6.1</ele>
        <time>2020-06-03T13:09:45Z</time>
      </trkpt>
      <trkpt lat="46.49462" lon="-1.79147">
        <ele>6.1</ele>
        <time>2020-06-03T13:09:46Z</time>
      </trkpt>
      <trkpt lat="46.4946" lon="-1.79151">
        <ele>6.1</ele>
        <time>2020-06-03T13:09:47Z</time>
      </trkpt>
      <trkpt lat="46.49457" lon="-1.79154">
        <ele>6.1</ele>
        <time>2020-06-03T13:09:48Z</time>
      </trkpt>
      <trkpt lat="46.49454" lon="-1.79157">
        <ele>6.1</ele>
        <time>2020-06-03T13:09:49Z</time>
      </trkpt>
      <trkpt lat="46.49451" lon="-1.79159">
        <ele>6.1</ele>
        <time>2020-06-03T13:09:50Z</time>
      </trkpt>
      <trkpt lat="46.49449" lon="-1.79163">
        <ele>6.1</ele>
        <time>2020-06-03T13:09:51Z</time>
      </trkpt>
      <trkpt lat="46.49448" lon="-1.79166">
        <ele>6.1</ele>
        <time>2020-06-03T13:09:52Z</time>
      </trkpt>
      <trkpt lat="46.49446" lon="-1.7917">
        <ele>6.1</ele>
        <time>2020-06-03T13:09:53Z</time>
      </trkpt>
      <trkpt lat="46.49444" lon="-1.79173">
        <ele>6</ele>
        <time>2020-06-03T13:09:54Z</time>
      </trkpt>
      <trkpt lat="46.49441" lon="-1.79175">
        <ele>6</ele>
        <time>2020-06-03T13:09:55Z</time>
      </trkpt>
      <trkpt lat="46.49439" lon="-1.79178">
        <ele>6</ele>
        <time>2020-06-03T13:09:56Z</time>
      </trkpt>
      <trkpt lat="46.49436" lon="-1.7918">
        <ele>6</ele>
        <time>2020-06-03T13:09:57Z</time>
      </trkpt>
      <trkpt lat="46.49433" lon="-1.79183">
        <ele>6</ele>
        <time>2020-06-03T13:09:58Z</time>
      </trkpt>
      <trkpt lat="46.4943" lon="-1.79187">
        <ele>6</ele>
        <time>2020-06-03T13:09:59Z</time>
      </trkpt>
      <trkpt lat="46.49427" lon="-1.79189">
        <ele>6</ele>
        <time>2020-06-03T13:10:00Z</time>
      </trkpt>
      <trkpt lat="46.49425" lon="-1.79192">
        <ele>6</ele>
        <time>2020-06-03T13:10:01Z</time>
      </trkpt>
      <trkpt lat="46.49421" lon="-1.79193">
        <ele>6</ele>
        <time>2020-06-03T13:10:02Z</time>
      </trkpt>
      <trkpt lat="46.49418" lon="-1.79196">
        <ele>6</ele>
        <time>2020-06-03T13:10:03Z</time>
      </trkpt>
      <trkpt lat="46.49415" lon="-1.79199">
        <ele>6</ele>
        <time>2020-06-03T13:10:04Z</time>
      </trkpt>
      <trkpt lat="46.49413" lon="-1.79202">
        <ele>6</ele>
        <time>2020-06-03T13:10:05Z</time>
      </trkpt>
      <trkpt lat="46.4941" lon="-1.79205">
        <ele>6</ele>
        <time>2020-06-03T13:10:06Z</time>
      </trkpt>
      <trkpt lat="46.49408" lon="-1.79207">
        <ele>5.9</ele>
        <time>2020-06-03T13:10:07Z</time>
      </trkpt>
      <trkpt lat="46.49405" lon="-1.79209">
        <ele>5.9</ele>
        <time>2020-06-03T13:10:08Z</time>
      </trkpt>
      <trkpt lat="46.49403" lon="-1.79213">
        <ele>5.9</ele>
        <time>2020-06-03T13:10:09Z</time>
      </trkpt>
      <trkpt lat="46.49402" lon="-1.79214">
        <ele>5.9</ele>
        <time>2020-06-03T13:10:10Z</time>
      </trkpt>
      <trkpt lat="46.494" lon="-1.79217">
        <ele>5.9</ele>
        <time>2020-06-03T13:10:11Z</time>
      </trkpt>
      <trkpt lat="46.49398" lon="-1.7922">
        <ele>5.9</ele>
        <time>2020-06-03T13:10:12Z</time>
      </trkpt>
      <trkpt lat="46.49395" lon="-1.79223">
        <ele>5.9</ele>
        <time>2020-06-03T13:10:13Z</time>
      </trkpt>
      <trkpt lat="46.49394" lon="-1.79227">
        <ele>5.9</ele>
        <time>2020-06-03T13:10:14Z</time>
      </trkpt>
      <trkpt lat="46.49391" lon="-1.7923">
        <ele>5.8</ele>
        <time>2020-06-03T13:10:15Z</time>
      </trkpt>
      <trkpt lat="46.49389" lon="-1.79234">
        <ele>5.8</ele>
        <time>2020-06-03T13:10:16Z</time>
      </trkpt>
      <trkpt lat="46.49386" lon="-1.79238">
        <ele>5.8</ele>
        <time>2020-06-03T13:10:17Z</time>
      </trkpt>
      <trkpt lat="46.49383" lon="-1.79242">
        <ele>5.8</ele>
        <time>2020-06-03T13:10:18Z</time>
      </trkpt>
      <trkpt lat="46.4938" lon="-1.79245">
        <ele>5.8</ele>
        <time>2020-06-03T13:10:19Z</time>
      </trkpt>
      <trkpt lat="46.49378" lon="-1.79248">
        <ele>5.7</ele>
        <time>2020-06-03T13:10:20Z</time>
      </trkpt>
      <trkpt lat="46.49374" lon="-1.7925">
        <ele>5.7</ele>
        <time>2020-06-03T13:10:21Z</time>
      </trkpt>
      <trkpt lat="46.49372" lon="-1.79253">
        <ele>5.7</ele>
        <time>2020-06-03T13:10:22Z</time>
      </trkpt>
      <trkpt lat="46.4937" lon="-1.79255">
        <ele>5.7</ele>
        <time>2020-06-03T13:10:23Z</time>
      </trkpt>
      <trkpt lat="46.49367" lon="-1.79259">
        <ele>5.7</ele>
        <time>2020-06-03T13:10:24Z</time>
      </trkpt>
      <trkpt lat="46.49364" lon="-1.79263">
        <ele>5.7</ele>
        <time>2020-06-03T13:10:25Z</time>
      </trkpt>
      <trkpt lat="46.49361" lon="-1.79266">
        <ele>5.7</ele>
        <time>2020-06-03T13:10:26Z</time>
      </trkpt>
      <trkpt lat="46.49358" lon="-1.79271">
        <ele>5.7</ele>
        <time>2020-06-03T13:10:27Z</time>
      </trkpt>
      <trkpt lat="46.49356" lon="-1.79277">
        <ele>5.6</ele>
        <time>2020-06-03T13:10:28Z</time>
      </trkpt>
      <trkpt lat="46.49355" lon="-1.79282">
        <ele>5.7</ele>
        <time>2020-06-03T13:10:29Z</time>
      </trkpt>
      <trkpt lat="46.49355" lon="-1.79287">
        <ele>5.7</ele>
        <time>2020-06-03T13:10:30Z</time>
      </trkpt>
      <trkpt lat="46.49355" lon="-1.79291">
        <ele>5.7</ele>
        <time>2020-06-03T13:10:31Z</time>
      </trkpt>
      <trkpt lat="46.49358" lon="-1.79295">
        <ele>5.7</ele>
        <time>2020-06-03T13:10:32Z</time>
      </trkpt>
      <trkpt lat="46.49358" lon="-1.79296">
        <ele>5.7</ele>
        <time>2020-06-03T13:10:33Z</time>
      </trkpt>
      <trkpt lat="46.4936" lon="-1.79298">
        <ele>5.7</ele>
        <time>2020-06-03T13:10:34Z</time>
      </trkpt>
      <trkpt lat="46.49361" lon="-1.79299">
        <ele>5.7</ele>
        <time>2020-06-03T13:10:35Z</time>
      </trkpt>
      <trkpt lat="46.49365" lon="-1.793">
        <ele>5.7</ele>
        <time>2020-06-03T13:10:36Z</time>
      </trkpt>
      <trkpt lat="46.49367" lon="-1.79301">
        <ele>5.7</ele>
        <time>2020-06-03T13:10:37Z</time>
      </trkpt>
      <trkpt lat="46.4937" lon="-1.79303">
        <ele>5.7</ele>
        <time>2020-06-03T13:10:38Z</time>
      </trkpt>
      <trkpt lat="46.49374" lon="-1.79306">
        <ele>5.7</ele>
        <time>2020-06-03T13:10:39Z</time>
      </trkpt>
      <trkpt lat="46.49377" lon="-1.79309">
        <ele>5.7</ele>
        <time>2020-06-03T13:10:40Z</time>
      </trkpt>
      <trkpt lat="46.49379" lon="-1.79314">
        <ele>5.7</ele>
        <time>2020-06-03T13:10:41Z</time>
      </trkpt>
      <trkpt lat="46.49381" lon="-1.79318">
        <ele>5.7</ele>
        <time>2020-06-03T13:10:42Z</time>
      </trkpt>
      <trkpt lat="46.49383" lon="-1.79324">
        <ele>5.7</ele>
        <time>2020-06-03T13:10:43Z</time>
      </trkpt>
      <trkpt lat="46.49386" lon="-1.79327">
        <ele>5.6</ele>
        <time>2020-06-03T13:10:44Z</time>
      </trkpt>
      <trkpt lat="46.49388" lon="-1.79331">
        <ele>5.6</ele>
        <time>2020-06-03T13:10:45Z</time>
      </trkpt>
      <trkpt lat="46.4939" lon="-1.79336">
        <ele>5.6</ele>
        <time>2020-06-03T13:10:46Z</time>
      </trkpt>
      <trkpt lat="46.49392" lon="-1.79341">
        <ele>5.5</ele>
        <time>2020-06-03T13:10:47Z</time>
      </trkpt>
      <trkpt lat="46.49394" lon="-1.79346">
        <ele>5.5</ele>
        <time>2020-06-03T13:10:48Z</time>
      </trkpt>
      <trkpt lat="46.49396" lon="-1.79352">
        <ele>5.5</ele>
        <time>2020-06-03T13:10:49Z</time>
      </trkpt>
      <trkpt lat="46.49398" lon="-1.79356">
        <ele>5.4</ele>
        <time>2020-06-03T13:10:50Z</time>
      </trkpt>
      <trkpt lat="46.49401" lon="-1.79361">
        <ele>5.4</ele>
        <time>2020-06-03T13:10:51Z</time>
      </trkpt>
      <trkpt lat="46.49403" lon="-1.79365">
        <ele>5.4</ele>
        <time>2020-06-03T13:10:52Z</time>
      </trkpt>
      <trkpt lat="46.49405" lon="-1.7937">
        <ele>5.4</ele>
        <time>2020-06-03T13:10:53Z</time>
      </trkpt>
      <trkpt lat="46.49408" lon="-1.79374">
        <ele>5.3</ele>
        <time>2020-06-03T13:10:54Z</time>
      </trkpt>
      <trkpt lat="46.4941" lon="-1.79378">
        <ele>5.3</ele>
        <time>2020-06-03T13:10:55Z</time>
      </trkpt>
      <trkpt lat="46.49413" lon="-1.79381">
        <ele>5.3</ele>
        <time>2020-06-03T13:10:56Z</time>
      </trkpt>
      <trkpt lat="46.49415" lon="-1.79385">
        <ele>5.3</ele>
        <time>2020-06-03T13:10:57Z</time>
      </trkpt>
      <trkpt lat="46.49418" lon="-1.79389">
        <ele>5.3</ele>
        <time>2020-06-03T13:10:58Z</time>
      </trkpt>
      <trkpt lat="46.49421" lon="-1.79392">
        <ele>5.2</ele>
        <time>2020-06-03T13:10:59Z</time>
      </trkpt>
      <trkpt lat="46.49424" lon="-1.79396">
        <ele>5.2</ele>
        <time>2020-06-03T13:11:00Z</time>
      </trkpt>
      <trkpt lat="46.49426" lon="-1.794">
        <ele>5.2</ele>
        <time>2020-06-03T13:11:01Z</time>
      </trkpt>
      <trkpt lat="46.49428" lon="-1.79404">
        <ele>5.2</ele>
        <time>2020-06-03T13:11:02Z</time>
      </trkpt>
      <trkpt lat="46.4943" lon="-1.79409">
        <ele>5.2</ele>
        <time>2020-06-03T13:11:03Z</time>
      </trkpt>
      <trkpt lat="46.49432" lon="-1.79413">
        <ele>5.2</ele>
        <time>2020-06-03T13:11:04Z</time>
      </trkpt>
      <trkpt lat="46.49433" lon="-1.79418">
        <ele>5.2</ele>
        <time>2020-06-03T13:11:05Z</time>
      </trkpt>
      <trkpt lat="46.49433" lon="-1.79422">
        <ele>5.2</ele>
        <time>2020-06-03T13:11:06Z</time>
      </trkpt>
      <trkpt lat="46.49433" lon="-1.79426">
        <ele>5.1</ele>
        <time>2020-06-03T13:11:07Z</time>
      </trkpt>
      <trkpt lat="46.49432" lon="-1.79428">
        <ele>5.1</ele>
        <time>2020-06-03T13:11:08Z</time>
      </trkpt>
      <trkpt lat="46.49431" lon="-1.79432">
        <ele>5</ele>
        <time>2020-06-03T13:11:09Z</time>
      </trkpt>
      <trkpt lat="46.49431" lon="-1.79433">
        <ele>5</ele>
        <time>2020-06-03T13:11:10Z</time>
      </trkpt>
      <trkpt lat="46.4943" lon="-1.79435">
        <ele>5</ele>
        <time>2020-06-03T13:11:11Z</time>
      </trkpt>
      <trkpt lat="46.4943" lon="-1.79434">
        <ele>5</ele>
        <time>2020-06-03T13:11:12Z</time>
      </trkpt>
      <trkpt lat="46.49429" lon="-1.79434">
        <ele>5</ele>
        <time>2020-06-03T13:11:13Z</time>
      </trkpt>
      <trkpt lat="46.49428" lon="-1.79434">
        <ele>5</ele>
        <time>2020-06-03T13:11:14Z</time>
      </trkpt>
      <trkpt lat="46.49428" lon="-1.79434">
        <ele>5</ele>
        <time>2020-06-03T13:11:15Z</time>
      </trkpt>
      <trkpt lat="46.49427" lon="-1.79434">
        <ele>5</ele>
        <time>2020-06-03T13:11:16Z</time>
      </trkpt>
      <trkpt lat="46.49426" lon="-1.79433">
        <ele>5</ele>
        <time>2020-06-03T13:11:17Z</time>
      </trkpt>
      <trkpt lat="46.49425" lon="-1.79432">
        <ele>5</ele>
        <time>2020-06-03T13:11:18Z</time>
      </trkpt>
      <trkpt lat="46.49424" lon="-1.79433">
        <ele>5</ele>
        <time>2020-06-03T13:11:19Z</time>
      </trkpt>
      <trkpt lat="46.49425" lon="-1.79436">
        <ele>5</ele>
        <time>2020-06-03T13:11:20Z</time>
      </trkpt>
      <trkpt lat="46.49424" lon="-1.79437">
        <ele>5</ele>
        <time>2020-06-03T13:11:21Z</time>
      </trkpt>
      <trkpt lat="46.49423" lon="-1.79438">
        <ele>5</ele>
        <time>2020-06-03T13:11:22Z</time>
      </trkpt>
      <trkpt lat="46.49423" lon="-1.79439">
        <ele>5</ele>
        <time>2020-06-03T13:11:23Z</time>
      </trkpt>
      <trkpt lat="46.49422" lon="-1.79439">
        <ele>5</ele>
        <time>2020-06-03T13:11:24Z</time>
      </trkpt>
      <trkpt lat="46.49425" lon="-1.79441">
        <ele>5</ele>
        <time>2020-06-03T13:11:25Z</time>
      </trkpt>
      <trkpt lat="46.49429" lon="-1.79443">
        <ele>4.9</ele>
        <time>2020-06-03T13:11:26Z</time>
      </trkpt>
      <trkpt lat="46.49433" lon="-1.79446">
        <ele>4.9</ele>
        <time>2020-06-03T13:11:27Z</time>
      </trkpt>
      <trkpt lat="46.49437" lon="-1.79448">
        <ele>4.9</ele>
        <time>2020-06-03T13:11:28Z</time>
      </trkpt>
      <trkpt lat="46.49441" lon="-1.7945">
        <ele>4.9</ele>
        <time>2020-06-03T13:11:29Z</time>
      </trkpt>
      <trkpt lat="46.49445" lon="-1.79451">
        <ele>4.8</ele>
        <time>2020-06-03T13:11:30Z</time>
      </trkpt>
      <trkpt lat="46.49449" lon="-1.79452">
        <ele>4.8</ele>
        <time>2020-06-03T13:11:31Z</time>
      </trkpt>
      <trkpt lat="46.49453" lon="-1.79454">
        <ele>4.8</ele>
        <time>2020-06-03T13:11:32Z</time>
      </trkpt>
      <trkpt lat="46.49457" lon="-1.79455">
        <ele>4.8</ele>
        <time>2020-06-03T13:11:33Z</time>
      </trkpt>
      <trkpt lat="46.49461" lon="-1.79455">
        <ele>4.8</ele>
        <time>2020-06-03T13:11:34Z</time>
      </trkpt>
      <trkpt lat="46.49464" lon="-1.79457">
        <ele>4.8</ele>
        <time>2020-06-03T13:11:35Z</time>
      </trkpt>
      <trkpt lat="46.49467" lon="-1.79458">
        <ele>4.8</ele>
        <time>2020-06-03T13:11:36Z</time>
      </trkpt>
      <trkpt lat="46.49471" lon="-1.7946">
        <ele>4.8</ele>
        <time>2020-06-03T13:11:37Z</time>
      </trkpt>
      <trkpt lat="46.49474" lon="-1.79462">
        <ele>4.8</ele>
        <time>2020-06-03T13:11:38Z</time>
      </trkpt>
      <trkpt lat="46.49478" lon="-1.79464">
        <ele>4.8</ele>
        <time>2020-06-03T13:11:39Z</time>
      </trkpt>
      <trkpt lat="46.49481" lon="-1.79467">
        <ele>4.8</ele>
        <time>2020-06-03T13:11:40Z</time>
      </trkpt>
      <trkpt lat="46.49484" lon="-1.79469">
        <ele>4.7</ele>
        <time>2020-06-03T13:11:41Z</time>
      </trkpt>
      <trkpt lat="46.49488" lon="-1.79472">
        <ele>4.7</ele>
        <time>2020-06-03T13:11:42Z</time>
      </trkpt>
      <trkpt lat="46.49491" lon="-1.79473">
        <ele>4.7</ele>
        <time>2020-06-03T13:11:43Z</time>
      </trkpt>
      <trkpt lat="46.49494" lon="-1.79475">
        <ele>4.7</ele>
        <time>2020-06-03T13:11:44Z</time>
      </trkpt>
      <trkpt lat="46.49497" lon="-1.79477">
        <ele>4.6</ele>
        <time>2020-06-03T13:11:45Z</time>
      </trkpt>
      <trkpt lat="46.49499" lon="-1.79478">
        <ele>4.6</ele>
        <time>2020-06-03T13:11:46Z</time>
      </trkpt>
      <trkpt lat="46.49502" lon="-1.79479">
        <ele>4.6</ele>
        <time>2020-06-03T13:11:47Z</time>
      </trkpt>
      <trkpt lat="46.49505" lon="-1.7948">
        <ele>4.6</ele>
        <time>2020-06-03T13:11:48Z</time>
      </trkpt>
      <trkpt lat="46.49508" lon="-1.79482">
        <ele>4.5</ele>
        <time>2020-06-03T13:11:49Z</time>
      </trkpt>
      <trkpt lat="46.49511" lon="-1.79483">
        <ele>4.4</ele>
        <time>2020-06-03T13:11:50Z</time>
      </trkpt>
      <trkpt lat="46.49514" lon="-1.79484">
        <ele>4.4</ele>
        <time>2020-06-03T13:11:51Z</time>
      </trkpt>
      <trkpt lat="46.49517" lon="-1.79484">
        <ele>4.3</ele>
        <time>2020-06-03T13:11:52Z</time>
      </trkpt>
      <trkpt lat="46.49521" lon="-1.79486">
        <ele>4.3</ele>
        <time>2020-06-03T13:11:53Z</time>
      </trkpt>
      <trkpt lat="46.49522" lon="-1.79486">
        <ele>4.3</ele>
        <time>2020-06-03T13:11:54Z</time>
      </trkpt>
      <trkpt lat="46.49526" lon="-1.79487">
        <ele>4.2</ele>
        <time>2020-06-03T13:11:55Z</time>
      </trkpt>
      <trkpt lat="46.49527" lon="-1.79487">
        <ele>4.2</ele>
        <time>2020-06-03T13:11:56Z</time>
      </trkpt>
      <trkpt lat="46.49531" lon="-1.79489">
        <ele>4.2</ele>
        <time>2020-06-03T13:11:57Z</time>
      </trkpt>
      <trkpt lat="46.49532" lon="-1.7949">
        <ele>4.2</ele>
        <time>2020-06-03T13:11:58Z</time>
      </trkpt>
      <trkpt lat="46.49535" lon="-1.79492">
        <ele>4.2</ele>
        <time>2020-06-03T13:11:59Z</time>
      </trkpt>
      <trkpt lat="46.49536" lon="-1.79492">
        <ele>4.2</ele>
        <time>2020-06-03T13:12:00Z</time>
      </trkpt>
      <trkpt lat="46.49538" lon="-1.79494">
        <ele>4.2</ele>
        <time>2020-06-03T13:12:01Z</time>
      </trkpt>
      <trkpt lat="46.49539" lon="-1.79495">
        <ele>4.2</ele>
        <time>2020-06-03T13:12:02Z</time>
      </trkpt>
      <trkpt lat="46.49543" lon="-1.79495">
        <ele>4.2</ele>
        <time>2020-06-03T13:12:03Z</time>
      </trkpt>
      <trkpt lat="46.49544" lon="-1.79496">
        <ele>4.2</ele>
        <time>2020-06-03T13:12:04Z</time>
      </trkpt>
      <trkpt lat="46.49547" lon="-1.79497">
        <ele>4.2</ele>
        <time>2020-06-03T13:12:05Z</time>
      </trkpt>
      <trkpt lat="46.49548" lon="-1.79498">
        <ele>4.2</ele>
        <time>2020-06-03T13:12:06Z</time>
      </trkpt>
      <trkpt lat="46.49551" lon="-1.79495">
        <ele>4.2</ele>
        <time>2020-06-03T13:12:07Z</time>
      </trkpt>
      <trkpt lat="46.49551" lon="-1.79494">
        <ele>4.2</ele>
        <time>2020-06-03T13:12:08Z</time>
      </trkpt>
      <trkpt lat="46.49554" lon="-1.79491">
        <ele>4.2</ele>
        <time>2020-06-03T13:12:09Z</time>
      </trkpt>
      <trkpt lat="46.49554" lon="-1.7949">
        <ele>4.2</ele>
        <time>2020-06-03T13:12:10Z</time>
      </trkpt>
      <trkpt lat="46.49557" lon="-1.79487">
        <ele>4.2</ele>
        <time>2020-06-03T13:12:11Z</time>
      </trkpt>
      <trkpt lat="46.49558" lon="-1.79487">
        <ele>4.2</ele>
        <time>2020-06-03T13:12:12Z</time>
      </trkpt>
      <trkpt lat="46.49561" lon="-1.79488">
        <ele>4.2</ele>
        <time>2020-06-03T13:12:13Z</time>
      </trkpt>
      <trkpt lat="46.49564" lon="-1.79488">
        <ele>4.2</ele>
        <time>2020-06-03T13:12:14Z</time>
      </trkpt>
      <trkpt lat="46.49567" lon="-1.79488">
        <ele>4.2</ele>
        <time>2020-06-03T13:12:15Z</time>
      </trkpt>
      <trkpt lat="46.4957" lon="-1.79488">
        <ele>4.2</ele>
        <time>2020-06-03T13:12:16Z</time>
      </trkpt>
      <trkpt lat="46.49573" lon="-1.79489">
        <ele>4.2</ele>
        <time>2020-06-03T13:12:17Z</time>
      </trkpt>
      <trkpt lat="46.49576" lon="-1.7949">
        <ele>4.2</ele>
        <time>2020-06-03T13:12:18Z</time>
      </trkpt>
      <trkpt lat="46.4958" lon="-1.7949">
        <ele>4.2</ele>
        <time>2020-06-03T13:12:19Z</time>
      </trkpt>
      <trkpt lat="46.49583" lon="-1.79491">
        <ele>4.2</ele>
        <time>2020-06-03T13:12:20Z</time>
      </trkpt>
      <trkpt lat="46.49585" lon="-1.79491">
        <ele>4.3</ele>
        <time>2020-06-03T13:12:21Z</time>
      </trkpt>
      <trkpt lat="46.49589" lon="-1.7949">
        <ele>4.2</ele>
        <time>2020-06-03T13:12:22Z</time>
      </trkpt>
      <trkpt lat="46.49591" lon="-1.7949">
        <ele>4.2</ele>
        <time>2020-06-03T13:12:23Z</time>
      </trkpt>
      <trkpt lat="46.49594" lon="-1.79489">
        <ele>4.2</ele>
        <time>2020-06-03T13:12:24Z</time>
      </trkpt>
      <trkpt lat="46.49596" lon="-1.79488">
        <ele>4.2</ele>
        <time>2020-06-03T13:12:25Z</time>
      </trkpt>
      <trkpt lat="46.496" lon="-1.79488">
        <ele>4.1</ele>
        <time>2020-06-03T13:12:26Z</time>
      </trkpt>
      <trkpt lat="46.49603" lon="-1.79487">
        <ele>4.1</ele>
        <time>2020-06-03T13:12:27Z</time>
      </trkpt>
      <trkpt lat="46.49606" lon="-1.79485">
        <ele>3.9</ele>
        <time>2020-06-03T13:12:28Z</time>
      </trkpt>
      <trkpt lat="46.49608" lon="-1.79482">
        <ele>3.8</ele>
        <time>2020-06-03T13:12:29Z</time>
      </trkpt>
      <trkpt lat="46.49611" lon="-1.7948">
        <ele>3.8</ele>
        <time>2020-06-03T13:12:30Z</time>
      </trkpt>
      <trkpt lat="46.49612" lon="-1.79476">
        <ele>3.7</ele>
        <time>2020-06-03T13:12:31Z</time>
      </trkpt>
      <trkpt lat="46.49613" lon="-1.79475">
        <ele>3.7</ele>
        <time>2020-06-03T13:12:32Z</time>
      </trkpt>
      <trkpt lat="46.49615" lon="-1.79472">
        <ele>3.7</ele>
        <time>2020-06-03T13:12:33Z</time>
      </trkpt>
      <trkpt lat="46.49616" lon="-1.79471">
        <ele>3.7</ele>
        <time>2020-06-03T13:12:34Z</time>
      </trkpt>
      <trkpt lat="46.49617" lon="-1.79469">
        <ele>3.6</ele>
        <time>2020-06-03T13:12:35Z</time>
      </trkpt>
      <trkpt lat="46.49617" lon="-1.79469">
        <ele>3.6</ele>
        <time>2020-06-03T13:12:36Z</time>
      </trkpt>
      <trkpt lat="46.49617" lon="-1.79469">
        <ele>3.6</ele>
        <time>2020-06-03T13:12:37Z</time>
      </trkpt>
      <trkpt lat="46.49618" lon="-1.7947">
        <ele>3.6</ele>
        <time>2020-06-03T13:12:38Z</time>
      </trkpt>
      <trkpt lat="46.49618" lon="-1.7947">
        <ele>3.6</ele>
        <time>2020-06-03T13:12:39Z</time>
      </trkpt>
      <trkpt lat="46.49619" lon="-1.7947">
        <ele>3.6</ele>
        <time>2020-06-03T13:12:40Z</time>
      </trkpt>
      <trkpt lat="46.4962" lon="-1.79471">
        <ele>3.6</ele>
        <time>2020-06-03T13:12:41Z</time>
      </trkpt>
      <trkpt lat="46.4962" lon="-1.79471">
        <ele>3.6</ele>
        <time>2020-06-03T13:12:42Z</time>
      </trkpt>
      <trkpt lat="46.4962" lon="-1.79471">
        <ele>3.6</ele>
        <time>2020-06-03T13:12:43Z</time>
      </trkpt>
      <trkpt lat="46.49621" lon="-1.79471">
        <ele>3.6</ele>
        <time>2020-06-03T13:12:44Z</time>
      </trkpt>
      <trkpt lat="46.49622" lon="-1.79472">
        <ele>3.6</ele>
        <time>2020-06-03T13:12:45Z</time>
      </trkpt>
      <trkpt lat="46.49623" lon="-1.79473">
        <ele>3.5</ele>
        <time>2020-06-03T13:12:46Z</time>
      </trkpt>
      <trkpt lat="46.4962" lon="-1.79459">
        <ele>3.4</ele>
        <time>2020-06-03T13:13:14Z</time>
      </trkpt>
      <trkpt lat="46.4962" lon="-1.79457">
        <ele>3.4</ele>
        <time>2020-06-03T13:13:15Z</time>
      </trkpt>
      <trkpt lat="46.49622" lon="-1.79453">
        <ele>3.4</ele>
        <time>2020-06-03T13:13:16Z</time>
      </trkpt>
      <trkpt lat="46.49621" lon="-1.79451">
        <ele>3.3</ele>
        <time>2020-06-03T13:13:17Z</time>
      </trkpt>
      <trkpt lat="46.49623" lon="-1.79447">
        <ele>3.3</ele>
        <time>2020-06-03T13:13:18Z</time>
      </trkpt>
      <trkpt lat="46.49623" lon="-1.79446">
        <ele>3.3</ele>
        <time>2020-06-03T13:13:19Z</time>
      </trkpt>
      <trkpt lat="46.49623" lon="-1.79442">
        <ele>3.3</ele>
        <time>2020-06-03T13:13:20Z</time>
      </trkpt>
      <trkpt lat="46.49623" lon="-1.79441">
        <ele>3.3</ele>
        <time>2020-06-03T13:13:21Z</time>
      </trkpt>
      <trkpt lat="46.49623" lon="-1.79437">
        <ele>3.3</ele>
        <time>2020-06-03T13:13:22Z</time>
      </trkpt>
      <trkpt lat="46.49622" lon="-1.79436">
        <ele>3.3</ele>
        <time>2020-06-03T13:13:23Z</time>
      </trkpt>
      <trkpt lat="46.49623" lon="-1.7943">
        <ele>3.2</ele>
        <time>2020-06-03T13:13:24Z</time>
      </trkpt>
      <trkpt lat="46.49623" lon="-1.79428">
        <ele>3.2</ele>
        <time>2020-06-03T13:13:25Z</time>
      </trkpt>
      <trkpt lat="46.49623" lon="-1.79423">
        <ele>3.2</ele>
        <time>2020-06-03T13:13:26Z</time>
      </trkpt>
      <trkpt lat="46.49623" lon="-1.79418">
        <ele>3.2</ele>
        <time>2020-06-03T13:13:27Z</time>
      </trkpt>
      <trkpt lat="46.49623" lon="-1.79413">
        <ele>3.2</ele>
        <time>2020-06-03T13:13:28Z</time>
      </trkpt>
      <trkpt lat="46.49624" lon="-1.79408">
        <ele>3.2</ele>
        <time>2020-06-03T13:13:29Z</time>
      </trkpt>
      <trkpt lat="46.49624" lon="-1.79403">
        <ele>3.2</ele>
        <time>2020-06-03T13:13:30Z</time>
      </trkpt>
      <trkpt lat="46.49625" lon="-1.79398">
        <ele>3.1</ele>
        <time>2020-06-03T13:13:31Z</time>
      </trkpt>
      <trkpt lat="46.49625" lon="-1.79394">
        <ele>3.1</ele>
        <time>2020-06-03T13:13:32Z</time>
      </trkpt>
      <trkpt lat="46.49626" lon="-1.79388">
        <ele>3.1</ele>
        <time>2020-06-03T13:13:33Z</time>
      </trkpt>
      <trkpt lat="46.49627" lon="-1.79384">
        <ele>3.1</ele>
        <time>2020-06-03T13:13:34Z</time>
      </trkpt>
      <trkpt lat="46.49628" lon="-1.7938">
        <ele>3.1</ele>
        <time>2020-06-03T13:13:35Z</time>
      </trkpt>
      <trkpt lat="46.49628" lon="-1.79375">
        <ele>3.1</ele>
        <time>2020-06-03T13:13:36Z</time>
      </trkpt>
      <trkpt lat="46.49628" lon="-1.79373">
        <ele>3.1</ele>
        <time>2020-06-03T13:13:37Z</time>
      </trkpt>
      <trkpt lat="46.49628" lon="-1.79369">
        <ele>3</ele>
        <time>2020-06-03T13:13:38Z</time>
      </trkpt>
      <trkpt lat="46.49629" lon="-1.79365">
        <ele>3</ele>
        <time>2020-06-03T13:13:39Z</time>
      </trkpt>
      <trkpt lat="46.4963" lon="-1.7936">
        <ele>3</ele>
        <time>2020-06-03T13:13:40Z</time>
      </trkpt>
      <trkpt lat="46.4963" lon="-1.79354">
        <ele>3</ele>
        <time>2020-06-03T13:13:41Z</time>
      </trkpt>
      <trkpt lat="46.49629" lon="-1.79348">
        <ele>3</ele>
        <time>2020-06-03T13:13:42Z</time>
      </trkpt>
      <trkpt lat="46.49629" lon="-1.79342">
        <ele>2.9</ele>
        <time>2020-06-03T13:13:43Z</time>
      </trkpt>
      <trkpt lat="46.49628" lon="-1.79336">
        <ele>3</ele>
        <time>2020-06-03T13:13:44Z</time>
      </trkpt>
      <trkpt lat="46.49628" lon="-1.79331">
        <ele>3</ele>
        <time>2020-06-03T13:13:45Z</time>
      </trkpt>
      <trkpt lat="46.49629" lon="-1.79325">
        <ele>3</ele>
        <time>2020-06-03T13:13:46Z</time>
      </trkpt>
      <trkpt lat="46.49629" lon="-1.79318">
        <ele>3</ele>
        <time>2020-06-03T13:13:47Z</time>
      </trkpt>
      <trkpt lat="46.49629" lon="-1.79312">
        <ele>3</ele>
        <time>2020-06-03T13:13:48Z</time>
      </trkpt>
      <trkpt lat="46.49628" lon="-1.79306">
        <ele>3.1</ele>
        <time>2020-06-03T13:13:49Z</time>
      </trkpt>
      <trkpt lat="46.49628" lon="-1.793">
        <ele>3.1</ele>
        <time>2020-06-03T13:13:50Z</time>
      </trkpt>
      <trkpt lat="46.49628" lon="-1.79294">
        <ele>3.2</ele>
        <time>2020-06-03T13:13:51Z</time>
      </trkpt>
      <trkpt lat="46.49628" lon="-1.79289">
        <ele>3.2</ele>
        <time>2020-06-03T13:13:52Z</time>
      </trkpt>
      <trkpt lat="46.49627" lon="-1.79283">
        <ele>3.3</ele>
        <time>2020-06-03T13:13:53Z</time>
      </trkpt>
      <trkpt lat="46.49627" lon="-1.79277">
        <ele>3.3</ele>
        <time>2020-06-03T13:13:54Z</time>
      </trkpt>
      <trkpt lat="46.49626" lon="-1.79271">
        <ele>3.4</ele>
        <time>2020-06-03T13:13:55Z</time>
      </trkpt>
      <trkpt lat="46.49625" lon="-1.79264">
        <ele>3.4</ele>
        <time>2020-06-03T13:13:56Z</time>
      </trkpt>
      <trkpt lat="46.49625" lon="-1.79258">
        <ele>3.5</ele>
        <time>2020-06-03T13:13:57Z</time>
      </trkpt>
      <trkpt lat="46.49626" lon="-1.79252">
        <ele>3.5</ele>
        <time>2020-06-03T13:13:58Z</time>
      </trkpt>
      <trkpt lat="46.49625" lon="-1.79246">
        <ele>3.6</ele>
        <time>2020-06-03T13:13:59Z</time>
      </trkpt>
      <trkpt lat="46.49625" lon="-1.7924">
        <ele>3.6</ele>
        <time>2020-06-03T13:14:00Z</time>
      </trkpt>
      <trkpt lat="46.49625" lon="-1.79235">
        <ele>3.7</ele>
        <time>2020-06-03T13:14:01Z</time>
      </trkpt>
      <trkpt lat="46.49625" lon="-1.79229">
        <ele>3.7</ele>
        <time>2020-06-03T13:14:02Z</time>
      </trkpt>
      <trkpt lat="46.49625" lon="-1.79223">
        <ele>3.7</ele>
        <time>2020-06-03T13:14:03Z</time>
      </trkpt>
      <trkpt lat="46.49625" lon="-1.79217">
        <ele>3.7</ele>
        <time>2020-06-03T13:14:04Z</time>
      </trkpt>
      <trkpt lat="46.49623" lon="-1.79212">
        <ele>3.7</ele>
        <time>2020-06-03T13:14:05Z</time>
      </trkpt>
      <trkpt lat="46.49623" lon="-1.79206">
        <ele>3.7</ele>
        <time>2020-06-03T13:14:06Z</time>
      </trkpt>
      <trkpt lat="46.49622" lon="-1.792">
        <ele>3.8</ele>
        <time>2020-06-03T13:14:07Z</time>
      </trkpt>
      <trkpt lat="46.49621" lon="-1.79195">
        <ele>3.8</ele>
        <time>2020-06-03T13:14:08Z</time>
      </trkpt>
      <trkpt lat="46.4962" lon="-1.7919">
        <ele>3.8</ele>
        <time>2020-06-03T13:14:09Z</time>
      </trkpt>
      <trkpt lat="46.49618" lon="-1.79185">
        <ele>3.8</ele>
        <time>2020-06-03T13:14:10Z</time>
      </trkpt>
      <trkpt lat="46.49617" lon="-1.7918">
        <ele>3.8</ele>
        <time>2020-06-03T13:14:11Z</time>
      </trkpt>
      <trkpt lat="46.49616" lon="-1.79175">
        <ele>3.8</ele>
        <time>2020-06-03T13:14:12Z</time>
      </trkpt>
      <trkpt lat="46.49615" lon="-1.79168">
        <ele>3.9</ele>
        <time>2020-06-03T13:14:13Z</time>
      </trkpt>
      <trkpt lat="46.49614" lon="-1.79161">
        <ele>3.9</ele>
        <time>2020-06-03T13:14:14Z</time>
      </trkpt>
      <trkpt lat="46.49614" lon="-1.79156">
        <ele>3.9</ele>
        <time>2020-06-03T13:14:15Z</time>
      </trkpt>
      <trkpt lat="46.49613" lon="-1.7915">
        <ele>3.9</ele>
        <time>2020-06-03T13:14:16Z</time>
      </trkpt>
      <trkpt lat="46.49613" lon="-1.79144">
        <ele>3.9</ele>
        <time>2020-06-03T13:14:17Z</time>
      </trkpt>
      <trkpt lat="46.49612" lon="-1.79138">
        <ele>3.9</ele>
        <time>2020-06-03T13:14:18Z</time>
      </trkpt>
      <trkpt lat="46.49612" lon="-1.79131">
        <ele>3.9</ele>
        <time>2020-06-03T13:14:19Z</time>
      </trkpt>
      <trkpt lat="46.49611" lon="-1.79124">
        <ele>3.9</ele>
        <time>2020-06-03T13:14:20Z</time>
      </trkpt>
      <trkpt lat="46.4961" lon="-1.79118">
        <ele>3.9</ele>
        <time>2020-06-03T13:14:21Z</time>
      </trkpt>
      <trkpt lat="46.49611" lon="-1.79111">
        <ele>3.9</ele>
        <time>2020-06-03T13:14:22Z</time>
      </trkpt>
      <trkpt lat="46.49611" lon="-1.79104">
        <ele>3.9</ele>
        <time>2020-06-03T13:14:23Z</time>
      </trkpt>
      <trkpt lat="46.4961" lon="-1.79096">
        <ele>3.9</ele>
        <time>2020-06-03T13:14:24Z</time>
      </trkpt>
      <trkpt lat="46.4961" lon="-1.79089">
        <ele>3.9</ele>
        <time>2020-06-03T13:14:25Z</time>
      </trkpt>
      <trkpt lat="46.49609" lon="-1.79082">
        <ele>3.9</ele>
        <time>2020-06-03T13:14:26Z</time>
      </trkpt>
      <trkpt lat="46.49609" lon="-1.79075">
        <ele>3.9</ele>
        <time>2020-06-03T13:14:27Z</time>
      </trkpt>
      <trkpt lat="46.49608" lon="-1.79069">
        <ele>3.9</ele>
        <time>2020-06-03T13:14:28Z</time>
      </trkpt>
      <trkpt lat="46.49608" lon="-1.79063">
        <ele>3.8</ele>
        <time>2020-06-03T13:14:29Z</time>
      </trkpt>
      <trkpt lat="46.49608" lon="-1.79057">
        <ele>3.8</ele>
        <time>2020-06-03T13:14:30Z</time>
      </trkpt>
      <trkpt lat="46.49608" lon="-1.7905">
        <ele>3.8</ele>
        <time>2020-06-03T13:14:31Z</time>
      </trkpt>
      <trkpt lat="46.49607" lon="-1.79044">
        <ele>3.8</ele>
        <time>2020-06-03T13:14:32Z</time>
      </trkpt>
      <trkpt lat="46.49607" lon="-1.7904">
        <ele>3.8</ele>
        <time>2020-06-03T13:14:33Z</time>
      </trkpt>
      <trkpt lat="46.49607" lon="-1.79036">
        <ele>3.8</ele>
        <time>2020-06-03T13:14:34Z</time>
      </trkpt>
      <trkpt lat="46.49608" lon="-1.79035">
        <ele>3.8</ele>
        <time>2020-06-03T13:14:35Z</time>
      </trkpt>
      <trkpt lat="46.49608" lon="-1.79032">
        <ele>3.8</ele>
        <time>2020-06-03T13:14:36Z</time>
      </trkpt>
      <trkpt lat="46.49608" lon="-1.79031">
        <ele>3.8</ele>
        <time>2020-06-03T13:14:37Z</time>
      </trkpt>
      <trkpt lat="46.49607" lon="-1.7903">
        <ele>3.8</ele>
        <time>2020-06-03T13:14:38Z</time>
      </trkpt>
      <trkpt lat="46.49607" lon="-1.79028">
        <ele>3.8</ele>
        <time>2020-06-03T13:14:39Z</time>
      </trkpt>
      <trkpt lat="46.49607" lon="-1.79026">
        <ele>3.8</ele>
        <time>2020-06-03T13:14:40Z</time>
      </trkpt>
      <trkpt lat="46.49607" lon="-1.79025">
        <ele>3.8</ele>
        <time>2020-06-03T13:14:41Z</time>
      </trkpt>
      <trkpt lat="46.49607" lon="-1.79024">
        <ele>3.8</ele>
        <time>2020-06-03T13:14:42Z</time>
      </trkpt>
      <trkpt lat="46.49606" lon="-1.79024">
        <ele>3.8</ele>
        <time>2020-06-03T13:14:43Z</time>
      </trkpt>
      <trkpt lat="46.49606" lon="-1.79024">
        <ele>3.8</ele>
        <time>2020-06-03T13:14:44Z</time>
      </trkpt>
      <trkpt lat="46.49604" lon="-1.79024">
        <ele>3.8</ele>
        <time>2020-06-03T13:14:45Z</time>
      </trkpt>
      <trkpt lat="46.49603" lon="-1.79021">
        <ele>3.8</ele>
        <time>2020-06-03T13:14:46Z</time>
      </trkpt>
      <trkpt lat="46.49603" lon="-1.79019">
        <ele>3.8</ele>
        <time>2020-06-03T13:14:47Z</time>
      </trkpt>
      <trkpt lat="46.49603" lon="-1.79017">
        <ele>3.8</ele>
        <time>2020-06-03T13:14:48Z</time>
      </trkpt>
      <trkpt lat="46.49604" lon="-1.79012">
        <ele>3.8</ele>
        <time>2020-06-03T13:14:49Z</time>
      </trkpt>
      <trkpt lat="46.49606" lon="-1.79006">
        <ele>3.8</ele>
        <time>2020-06-03T13:14:50Z</time>
      </trkpt>
      <trkpt lat="46.49606" lon="-1.79004">
        <ele>3.8</ele>
        <time>2020-06-03T13:14:51Z</time>
      </trkpt>
      <trkpt lat="46.49606" lon="-1.79">
        <ele>3.8</ele>
        <time>2020-06-03T13:14:52Z</time>
      </trkpt>
      <trkpt lat="46.49606" lon="-1.78994">
        <ele>3.8</ele>
        <time>2020-06-03T13:14:53Z</time>
      </trkpt>
      <trkpt lat="46.49605" lon="-1.78992">
        <ele>3.8</ele>
        <time>2020-06-03T13:14:54Z</time>
      </trkpt>
      <trkpt lat="46.49605" lon="-1.78986">
        <ele>3.8</ele>
        <time>2020-06-03T13:14:55Z</time>
      </trkpt>
      <trkpt lat="46.49605" lon="-1.78985">
        <ele>3.8</ele>
        <time>2020-06-03T13:14:56Z</time>
      </trkpt>
      <trkpt lat="46.49607" lon="-1.78979">
        <ele>3.9</ele>
        <time>2020-06-03T13:14:57Z</time>
      </trkpt>
      <trkpt lat="46.49608" lon="-1.78976">
        <ele>3.9</ele>
        <time>2020-06-03T13:14:58Z</time>
      </trkpt>
      <trkpt lat="46.49609" lon="-1.78971">
        <ele>3.9</ele>
        <time>2020-06-03T13:14:59Z</time>
      </trkpt>
      <trkpt lat="46.49611" lon="-1.78966">
        <ele>3.9</ele>
        <time>2020-06-03T13:15:00Z</time>
      </trkpt>
      <trkpt lat="46.49613" lon="-1.78962">
        <ele>3.9</ele>
        <time>2020-06-03T13:15:01Z</time>
      </trkpt>
      <trkpt lat="46.49615" lon="-1.78957">
        <ele>3.9</ele>
        <time>2020-06-03T13:15:02Z</time>
      </trkpt>
      <trkpt lat="46.49617" lon="-1.78953">
        <ele>3.9</ele>
        <time>2020-06-03T13:15:03Z</time>
      </trkpt>
      <trkpt lat="46.49618" lon="-1.78948">
        <ele>3.9</ele>
        <time>2020-06-03T13:15:04Z</time>
      </trkpt>
      <trkpt lat="46.49619" lon="-1.78943">
        <ele>3.9</ele>
        <time>2020-06-03T13:15:05Z</time>
      </trkpt>
      <trkpt lat="46.49621" lon="-1.78937">
        <ele>3.9</ele>
        <time>2020-06-03T13:15:06Z</time>
      </trkpt>
      <trkpt lat="46.49623" lon="-1.78931">
        <ele>3.9</ele>
        <time>2020-06-03T13:15:07Z</time>
      </trkpt>
      <trkpt lat="46.49626" lon="-1.78925">
        <ele>3.9</ele>
        <time>2020-06-03T13:15:08Z</time>
      </trkpt>
      <trkpt lat="46.4963" lon="-1.78918">
        <ele>3.9</ele>
        <time>2020-06-03T13:15:09Z</time>
      </trkpt>
      <trkpt lat="46.49632" lon="-1.78913">
        <ele>3.9</ele>
        <time>2020-06-03T13:15:10Z</time>
      </trkpt>
      <trkpt lat="46.49635" lon="-1.78907">
        <ele>3.9</ele>
        <time>2020-06-03T13:15:11Z</time>
      </trkpt>
      <trkpt lat="46.49637" lon="-1.78902">
        <ele>3.9</ele>
        <time>2020-06-03T13:15:12Z</time>
      </trkpt>
      <trkpt lat="46.49639" lon="-1.78898">
        <ele>3.9</ele>
        <time>2020-06-03T13:15:13Z</time>
      </trkpt>
      <trkpt lat="46.49642" lon="-1.78892">
        <ele>3.9</ele>
        <time>2020-06-03T13:15:14Z</time>
      </trkpt>
      <trkpt lat="46.49644" lon="-1.78887">
        <ele>3.9</ele>
        <time>2020-06-03T13:15:15Z</time>
      </trkpt>
      <trkpt lat="46.49645" lon="-1.78881">
        <ele>3.9</ele>
        <time>2020-06-03T13:15:16Z</time>
      </trkpt>
      <trkpt lat="46.49647" lon="-1.78876">
        <ele>4</ele>
        <time>2020-06-03T13:15:17Z</time>
      </trkpt>
      <trkpt lat="46.49649" lon="-1.78871">
        <ele>4</ele>
        <time>2020-06-03T13:15:18Z</time>
      </trkpt>
      <trkpt lat="46.4965" lon="-1.78866">
        <ele>4</ele>
        <time>2020-06-03T13:15:19Z</time>
      </trkpt>
      <trkpt lat="46.49654" lon="-1.78863">
        <ele>4</ele>
        <time>2020-06-03T13:15:20Z</time>
      </trkpt>
      <trkpt lat="46.49657" lon="-1.78857">
        <ele>4</ele>
        <time>2020-06-03T13:15:21Z</time>
      </trkpt>
      <trkpt lat="46.49659" lon="-1.78852">
        <ele>4</ele>
        <time>2020-06-03T13:15:22Z</time>
      </trkpt>
      <trkpt lat="46.49661" lon="-1.78846">
        <ele>4</ele>
        <time>2020-06-03T13:15:23Z</time>
      </trkpt>
      <trkpt lat="46.49662" lon="-1.78841">
        <ele>4</ele>
        <time>2020-06-03T13:15:24Z</time>
      </trkpt>
      <trkpt lat="46.49665" lon="-1.78836">
        <ele>4</ele>
        <time>2020-06-03T13:15:25Z</time>
      </trkpt>
      <trkpt lat="46.49667" lon="-1.78831">
        <ele>4</ele>
        <time>2020-06-03T13:15:26Z</time>
      </trkpt>
      <trkpt lat="46.4967" lon="-1.78825">
        <ele>4</ele>
        <time>2020-06-03T13:15:27Z</time>
      </trkpt>
      <trkpt lat="46.49672" lon="-1.78817">
        <ele>4</ele>
        <time>2020-06-03T13:15:28Z</time>
      </trkpt>
      <trkpt lat="46.49674" lon="-1.78812">
        <ele>4</ele>
        <time>2020-06-03T13:15:29Z</time>
      </trkpt>
      <trkpt lat="46.49677" lon="-1.78806">
        <ele>4</ele>
        <time>2020-06-03T13:15:30Z</time>
      </trkpt>
      <trkpt lat="46.49679" lon="-1.788">
        <ele>4</ele>
        <time>2020-06-03T13:15:31Z</time>
      </trkpt>
      <trkpt lat="46.49683" lon="-1.78794">
        <ele>4.1</ele>
        <time>2020-06-03T13:15:32Z</time>
      </trkpt>
      <trkpt lat="46.49685" lon="-1.78788">
        <ele>4.1</ele>
        <time>2020-06-03T13:15:33Z</time>
      </trkpt>
      <trkpt lat="46.49688" lon="-1.78783">
        <ele>4</ele>
        <time>2020-06-03T13:15:34Z</time>
      </trkpt>
      <trkpt lat="46.49691" lon="-1.78777">
        <ele>4</ele>
        <time>2020-06-03T13:15:35Z</time>
      </trkpt>
      <trkpt lat="46.49694" lon="-1.7877">
        <ele>4</ele>
        <time>2020-06-03T13:15:36Z</time>
      </trkpt>
      <trkpt lat="46.49697" lon="-1.78763">
        <ele>4</ele>
        <time>2020-06-03T13:15:37Z</time>
      </trkpt>
      <trkpt lat="46.497" lon="-1.78757">
        <ele>4</ele>
        <time>2020-06-03T13:15:38Z</time>
      </trkpt>
      <trkpt lat="46.49703" lon="-1.7875">
        <ele>4</ele>
        <time>2020-06-03T13:15:39Z</time>
      </trkpt>
      <trkpt lat="46.49705" lon="-1.78745">
        <ele>4</ele>
        <time>2020-06-03T13:15:40Z</time>
      </trkpt>
      <trkpt lat="46.49708" lon="-1.7874">
        <ele>4</ele>
        <time>2020-06-03T13:15:41Z</time>
      </trkpt>
      <trkpt lat="46.49711" lon="-1.78735">
        <ele>4</ele>
        <time>2020-06-03T13:15:42Z</time>
      </trkpt>
      <trkpt lat="46.49713" lon="-1.78729">
        <ele>4</ele>
        <time>2020-06-03T13:15:43Z</time>
      </trkpt>
      <trkpt lat="46.49716" lon="-1.78723">
        <ele>4</ele>
        <time>2020-06-03T13:15:44Z</time>
      </trkpt>
      <trkpt lat="46.49718" lon="-1.78718">
        <ele>4</ele>
        <time>2020-06-03T13:15:45Z</time>
      </trkpt>
      <trkpt lat="46.4972" lon="-1.78712">
        <ele>4</ele>
        <time>2020-06-03T13:15:46Z</time>
      </trkpt>
      <trkpt lat="46.49722" lon="-1.78705">
        <ele>4</ele>
        <time>2020-06-03T13:15:47Z</time>
      </trkpt>
      <trkpt lat="46.49724" lon="-1.78702">
        <ele>4</ele>
        <time>2020-06-03T13:15:48Z</time>
      </trkpt>
      <trkpt lat="46.49725" lon="-1.78697">
        <ele>4</ele>
        <time>2020-06-03T13:15:49Z</time>
      </trkpt>
      <trkpt lat="46.49727" lon="-1.78692">
        <ele>4</ele>
        <time>2020-06-03T13:15:50Z</time>
      </trkpt>
      <trkpt lat="46.49729" lon="-1.78687">
        <ele>4</ele>
        <time>2020-06-03T13:15:51Z</time>
      </trkpt>
      <trkpt lat="46.49731" lon="-1.78682">
        <ele>4</ele>
        <time>2020-06-03T13:15:52Z</time>
      </trkpt>
      <trkpt lat="46.49732" lon="-1.78675">
        <ele>3.9</ele>
        <time>2020-06-03T13:15:53Z</time>
      </trkpt>
      <trkpt lat="46.49735" lon="-1.78668">
        <ele>3.9</ele>
        <time>2020-06-03T13:15:54Z</time>
      </trkpt>
      <trkpt lat="46.49737" lon="-1.78662">
        <ele>3.9</ele>
        <time>2020-06-03T13:15:55Z</time>
      </trkpt>
      <trkpt lat="46.49739" lon="-1.78655">
        <ele>3.9</ele>
        <time>2020-06-03T13:15:56Z</time>
      </trkpt>
      <trkpt lat="46.49742" lon="-1.78649">
        <ele>3.9</ele>
        <time>2020-06-03T13:15:57Z</time>
      </trkpt>
      <trkpt lat="46.49744" lon="-1.78642">
        <ele>3.9</ele>
        <time>2020-06-03T13:15:58Z</time>
      </trkpt>
      <trkpt lat="46.49746" lon="-1.78637">
        <ele>3.9</ele>
        <time>2020-06-03T13:15:59Z</time>
      </trkpt>
      <trkpt lat="46.49748" lon="-1.78632">
        <ele>4</ele>
        <time>2020-06-03T13:16:00Z</time>
      </trkpt>
      <trkpt lat="46.49751" lon="-1.78626">
        <ele>4</ele>
        <time>2020-06-03T13:16:01Z</time>
      </trkpt>
      <trkpt lat="46.49753" lon="-1.78621">
        <ele>4</ele>
        <time>2020-06-03T13:16:02Z</time>
      </trkpt>
      <trkpt lat="46.49755" lon="-1.78616">
        <ele>4</ele>
        <time>2020-06-03T13:16:03Z</time>
      </trkpt>
      <trkpt lat="46.49757" lon="-1.78611">
        <ele>4</ele>
        <time>2020-06-03T13:16:04Z</time>
      </trkpt>
      <trkpt lat="46.49759" lon="-1.78606">
        <ele>4</ele>
        <time>2020-06-03T13:16:05Z</time>
      </trkpt>
      <trkpt lat="46.4976" lon="-1.78601">
        <ele>4</ele>
        <time>2020-06-03T13:16:06Z</time>
      </trkpt>
      <trkpt lat="46.4976" lon="-1.78594">
        <ele>4</ele>
        <time>2020-06-03T13:16:07Z</time>
      </trkpt>
      <trkpt lat="46.49761" lon="-1.78588">
        <ele>4</ele>
        <time>2020-06-03T13:16:08Z</time>
      </trkpt>
      <trkpt lat="46.49762" lon="-1.78583">
        <ele>4.1</ele>
        <time>2020-06-03T13:16:09Z</time>
      </trkpt>
      <trkpt lat="46.49763" lon="-1.78578">
        <ele>4.1</ele>
        <time>2020-06-03T13:16:10Z</time>
      </trkpt>
      <trkpt lat="46.49766" lon="-1.78573">
        <ele>4.3</ele>
        <time>2020-06-03T13:16:11Z</time>
      </trkpt>
      <trkpt lat="46.4977" lon="-1.78569">
        <ele>4.5</ele>
        <time>2020-06-03T13:16:12Z</time>
      </trkpt>
      <trkpt lat="46.49774" lon="-1.78565">
        <ele>4.4</ele>
        <time>2020-06-03T13:16:13Z</time>
      </trkpt>
      <trkpt lat="46.49779" lon="-1.78562">
        <ele>4.4</ele>
        <time>2020-06-03T13:16:14Z</time>
      </trkpt>
      <trkpt lat="46.49783" lon="-1.78556">
        <ele>4.4</ele>
        <time>2020-06-03T13:16:15Z</time>
      </trkpt>
      <trkpt lat="46.49786" lon="-1.78551">
        <ele>4.4</ele>
        <time>2020-06-03T13:16:16Z</time>
      </trkpt>
      <trkpt lat="46.49789" lon="-1.78545">
        <ele>4.3</ele>
        <time>2020-06-03T13:16:17Z</time>
      </trkpt>
      <trkpt lat="46.49792" lon="-1.7854">
        <ele>4.3</ele>
        <time>2020-06-03T13:16:18Z</time>
      </trkpt>
      <trkpt lat="46.49796" lon="-1.78536">
        <ele>4.3</ele>
        <time>2020-06-03T13:16:19Z</time>
      </trkpt>
      <trkpt lat="46.49799" lon="-1.7853">
        <ele>4.3</ele>
        <time>2020-06-03T13:16:20Z</time>
      </trkpt>
      <trkpt lat="46.49802" lon="-1.78526">
        <ele>4.3</ele>
        <time>2020-06-03T13:16:21Z</time>
      </trkpt>
      <trkpt lat="46.49805" lon="-1.78521">
        <ele>4.3</ele>
        <time>2020-06-03T13:16:22Z</time>
      </trkpt>
      <trkpt lat="46.49809" lon="-1.78517">
        <ele>4.2</ele>
        <time>2020-06-03T13:16:23Z</time>
      </trkpt>
      <trkpt lat="46.49812" lon="-1.78512">
        <ele>4.2</ele>
        <time>2020-06-03T13:16:24Z</time>
      </trkpt>
      <trkpt lat="46.49816" lon="-1.78508">
        <ele>4.2</ele>
        <time>2020-06-03T13:16:25Z</time>
      </trkpt>
      <trkpt lat="46.4982" lon="-1.78505">
        <ele>4.2</ele>
        <time>2020-06-03T13:16:26Z</time>
      </trkpt>
      <trkpt lat="46.49824" lon="-1.78502">
        <ele>4.2</ele>
        <time>2020-06-03T13:16:27Z</time>
      </trkpt>
      <trkpt lat="46.49828" lon="-1.78499">
        <ele>4.2</ele>
        <time>2020-06-03T13:16:28Z</time>
      </trkpt>
      <trkpt lat="46.49831" lon="-1.78495">
        <ele>4.2</ele>
        <time>2020-06-03T13:16:29Z</time>
      </trkpt>
      <trkpt lat="46.49835" lon="-1.78492">
        <ele>4.1</ele>
        <time>2020-06-03T13:16:30Z</time>
      </trkpt>
      <trkpt lat="46.49839" lon="-1.78489">
        <ele>4.1</ele>
        <time>2020-06-03T13:16:31Z</time>
      </trkpt>
      <trkpt lat="46.49842" lon="-1.78486">
        <ele>4.1</ele>
        <time>2020-06-03T13:16:32Z</time>
      </trkpt>
      <trkpt lat="46.49847" lon="-1.78482">
        <ele>4.2</ele>
        <time>2020-06-03T13:16:33Z</time>
      </trkpt>
      <trkpt lat="46.49851" lon="-1.78479">
        <ele>4.2</ele>
        <time>2020-06-03T13:16:34Z</time>
      </trkpt>
      <trkpt lat="46.49856" lon="-1.78478">
        <ele>4.3</ele>
        <time>2020-06-03T13:16:35Z</time>
      </trkpt>
      <trkpt lat="46.4986" lon="-1.78476">
        <ele>4.3</ele>
        <time>2020-06-03T13:16:36Z</time>
      </trkpt>
      <trkpt lat="46.49863" lon="-1.78474">
        <ele>4.3</ele>
        <time>2020-06-03T13:16:37Z</time>
      </trkpt>
      <trkpt lat="46.49867" lon="-1.78472">
        <ele>4.3</ele>
        <time>2020-06-03T13:16:38Z</time>
      </trkpt>
      <trkpt lat="46.4987" lon="-1.78469">
        <ele>4.3</ele>
        <time>2020-06-03T13:16:39Z</time>
      </trkpt>
      <trkpt lat="46.49873" lon="-1.78465">
        <ele>4.4</ele>
        <time>2020-06-03T13:16:40Z</time>
      </trkpt>
      <trkpt lat="46.49876" lon="-1.78462">
        <ele>4.4</ele>
        <time>2020-06-03T13:16:41Z</time>
      </trkpt>
      <trkpt lat="46.4988" lon="-1.78459">
        <ele>4.4</ele>
        <time>2020-06-03T13:16:42Z</time>
      </trkpt>
      <trkpt lat="46.49883" lon="-1.78457">
        <ele>4.4</ele>
        <time>2020-06-03T13:16:43Z</time>
      </trkpt>
      <trkpt lat="46.49886" lon="-1.78454">
        <ele>4.4</ele>
        <time>2020-06-03T13:16:44Z</time>
      </trkpt>
      <trkpt lat="46.49889" lon="-1.7845">
        <ele>4.5</ele>
        <time>2020-06-03T13:16:45Z</time>
      </trkpt>
      <trkpt lat="46.49892" lon="-1.78448">
        <ele>4.5</ele>
        <time>2020-06-03T13:16:46Z</time>
      </trkpt>
      <trkpt lat="46.49895" lon="-1.78444">
        <ele>4.5</ele>
        <time>2020-06-03T13:16:47Z</time>
      </trkpt>
      <trkpt lat="46.49899" lon="-1.7844">
        <ele>4.5</ele>
        <time>2020-06-03T13:16:48Z</time>
      </trkpt>
      <trkpt lat="46.49902" lon="-1.78435">
        <ele>4.6</ele>
        <time>2020-06-03T13:16:49Z</time>
      </trkpt>
      <trkpt lat="46.49905" lon="-1.7843">
        <ele>4.6</ele>
        <time>2020-06-03T13:16:50Z</time>
      </trkpt>
      <trkpt lat="46.49909" lon="-1.78425">
        <ele>4.6</ele>
        <time>2020-06-03T13:16:51Z</time>
      </trkpt>
      <trkpt lat="46.49912" lon="-1.78423">
        <ele>4.6</ele>
        <time>2020-06-03T13:16:52Z</time>
      </trkpt>
      <trkpt lat="46.49914" lon="-1.78419">
        <ele>4.6</ele>
        <time>2020-06-03T13:16:53Z</time>
      </trkpt>
      <trkpt lat="46.49917" lon="-1.78416">
        <ele>4.6</ele>
        <time>2020-06-03T13:16:54Z</time>
      </trkpt>
      <trkpt lat="46.4992" lon="-1.78413">
        <ele>4.7</ele>
        <time>2020-06-03T13:16:55Z</time>
      </trkpt>
      <trkpt lat="46.49924" lon="-1.78411">
        <ele>4.7</ele>
        <time>2020-06-03T13:16:56Z</time>
      </trkpt>
      <trkpt lat="46.49929" lon="-1.78416">
        <ele>4.8</ele>
        <time>2020-06-03T13:16:57Z</time>
      </trkpt>
      <trkpt lat="46.49934" lon="-1.7842">
        <ele>4.7</ele>
        <time>2020-06-03T13:16:58Z</time>
      </trkpt>
      <trkpt lat="46.49939" lon="-1.78423">
        <ele>4.7</ele>
        <time>2020-06-03T13:16:59Z</time>
      </trkpt>
      <trkpt lat="46.49943" lon="-1.78427">
        <ele>4.7</ele>
        <time>2020-06-03T13:17:00Z</time>
      </trkpt>
      <trkpt lat="46.49948" lon="-1.78431">
        <ele>4.7</ele>
        <time>2020-06-03T13:17:01Z</time>
      </trkpt>
      <trkpt lat="46.49951" lon="-1.78435">
        <ele>4.6</ele>
        <time>2020-06-03T13:17:02Z</time>
      </trkpt>
      <trkpt lat="46.49955" lon="-1.78439">
        <ele>4.6</ele>
        <time>2020-06-03T13:17:03Z</time>
      </trkpt>
      <trkpt lat="46.49958" lon="-1.78445">
        <ele>4.6</ele>
        <time>2020-06-03T13:17:04Z</time>
      </trkpt>
      <trkpt lat="46.49961" lon="-1.7845">
        <ele>4.6</ele>
        <time>2020-06-03T13:17:05Z</time>
      </trkpt>
      <trkpt lat="46.49963" lon="-1.78454">
        <ele>4.7</ele>
        <time>2020-06-03T13:17:06Z</time>
      </trkpt>
      <trkpt lat="46.49966" lon="-1.7846">
        <ele>4.7</ele>
        <time>2020-06-03T13:17:07Z</time>
      </trkpt>
      <trkpt lat="46.49968" lon="-1.78465">
        <ele>4.7</ele>
        <time>2020-06-03T13:17:08Z</time>
      </trkpt>
      <trkpt lat="46.49971" lon="-1.78471">
        <ele>4.7</ele>
        <time>2020-06-03T13:17:09Z</time>
      </trkpt>
      <trkpt lat="46.49972" lon="-1.78478">
        <ele>4.7</ele>
        <time>2020-06-03T13:17:10Z</time>
      </trkpt>
      <trkpt lat="46.49973" lon="-1.78483">
        <ele>4.7</ele>
        <time>2020-06-03T13:17:11Z</time>
      </trkpt>
      <trkpt lat="46.49976" lon="-1.78488">
        <ele>4.8</ele>
        <time>2020-06-03T13:17:12Z</time>
      </trkpt>
      <trkpt lat="46.49979" lon="-1.78494">
        <ele>4.8</ele>
        <time>2020-06-03T13:17:13Z</time>
      </trkpt>
      <trkpt lat="46.49981" lon="-1.785">
        <ele>4.8</ele>
        <time>2020-06-03T13:17:14Z</time>
      </trkpt>
      <trkpt lat="46.49984" lon="-1.78506">
        <ele>4.9</ele>
        <time>2020-06-03T13:17:15Z</time>
      </trkpt>
      <trkpt lat="46.49986" lon="-1.78511">
        <ele>4.9</ele>
        <time>2020-06-03T13:17:16Z</time>
      </trkpt>
      <trkpt lat="46.49989" lon="-1.78516">
        <ele>4.9</ele>
        <time>2020-06-03T13:17:17Z</time>
      </trkpt>
      <trkpt lat="46.49993" lon="-1.78521">
        <ele>4.9</ele>
        <time>2020-06-03T13:17:18Z</time>
      </trkpt>
      <trkpt lat="46.49997" lon="-1.78525">
        <ele>5.1</ele>
        <time>2020-06-03T13:17:19Z</time>
      </trkpt>
      <trkpt lat="46.50001" lon="-1.78527">
        <ele>5.1</ele>
        <time>2020-06-03T13:17:20Z</time>
      </trkpt>
      <trkpt lat="46.50005" lon="-1.78529">
        <ele>5.1</ele>
        <time>2020-06-03T13:17:21Z</time>
      </trkpt>
      <trkpt lat="46.5001" lon="-1.78531">
        <ele>5.1</ele>
        <time>2020-06-03T13:17:22Z</time>
      </trkpt>
      <trkpt lat="46.50015" lon="-1.78532">
        <ele>5.2</ele>
        <time>2020-06-03T13:17:23Z</time>
      </trkpt>
      <trkpt lat="46.5002" lon="-1.78533">
        <ele>5.2</ele>
        <time>2020-06-03T13:17:24Z</time>
      </trkpt>
      <trkpt lat="46.50026" lon="-1.78535">
        <ele>5.2</ele>
        <time>2020-06-03T13:17:25Z</time>
      </trkpt>
      <trkpt lat="46.50032" lon="-1.78536">
        <ele>5.2</ele>
        <time>2020-06-03T13:17:26Z</time>
      </trkpt>
      <trkpt lat="46.50037" lon="-1.78538">
        <ele>5.3</ele>
        <time>2020-06-03T13:17:27Z</time>
      </trkpt>
      <trkpt lat="46.50042" lon="-1.7854">
        <ele>5.3</ele>
        <time>2020-06-03T13:17:28Z</time>
      </trkpt>
      <trkpt lat="46.50047" lon="-1.78541">
        <ele>5.3</ele>
        <time>2020-06-03T13:17:29Z</time>
      </trkpt>
      <trkpt lat="46.50052" lon="-1.78543">
        <ele>5.2</ele>
        <time>2020-06-03T13:17:30Z</time>
      </trkpt>
      <trkpt lat="46.50056" lon="-1.78544">
        <ele>5.2</ele>
        <time>2020-06-03T13:17:31Z</time>
      </trkpt>
      <trkpt lat="46.50061" lon="-1.78547">
        <ele>5.2</ele>
        <time>2020-06-03T13:17:32Z</time>
      </trkpt>
      <trkpt lat="46.50066" lon="-1.78549">
        <ele>5.2</ele>
        <time>2020-06-03T13:17:33Z</time>
      </trkpt>
      <trkpt lat="46.50072" lon="-1.78552">
        <ele>5.1</ele>
        <time>2020-06-03T13:17:34Z</time>
      </trkpt>
      <trkpt lat="46.50078" lon="-1.78554">
        <ele>5.1</ele>
        <time>2020-06-03T13:17:35Z</time>
      </trkpt>
      <trkpt lat="46.50083" lon="-1.78557">
        <ele>5</ele>
        <time>2020-06-03T13:17:36Z</time>
      </trkpt>
      <trkpt lat="46.50087" lon="-1.78558">
        <ele>5</ele>
        <time>2020-06-03T13:17:37Z</time>
      </trkpt>
      <trkpt lat="46.50092" lon="-1.78559">
        <ele>4.3</ele>
        <time>2020-06-03T13:17:38Z</time>
      </trkpt>
      <trkpt lat="46.50097" lon="-1.78561">
        <ele>4</ele>
        <time>2020-06-03T13:17:39Z</time>
      </trkpt>
      <trkpt lat="46.50102" lon="-1.78563">
        <ele>3.5</ele>
        <time>2020-06-03T13:17:40Z</time>
      </trkpt>
      <trkpt lat="46.50106" lon="-1.78564">
        <ele>3.4</ele>
        <time>2020-06-03T13:17:41Z</time>
      </trkpt>
      <trkpt lat="46.5011" lon="-1.78566">
        <ele>3.4</ele>
        <time>2020-06-03T13:17:42Z</time>
      </trkpt>
      <trkpt lat="46.50115" lon="-1.78567">
        <ele>3.4</ele>
        <time>2020-06-03T13:17:43Z</time>
      </trkpt>
      <trkpt lat="46.5012" lon="-1.78569">
        <ele>3.4</ele>
        <time>2020-06-03T13:17:44Z</time>
      </trkpt>
      <trkpt lat="46.50125" lon="-1.78572">
        <ele>3.3</ele>
        <time>2020-06-03T13:17:45Z</time>
      </trkpt>
      <trkpt lat="46.5013" lon="-1.78573">
        <ele>3.3</ele>
        <time>2020-06-03T13:17:46Z</time>
      </trkpt>
      <trkpt lat="46.50135" lon="-1.78575">
        <ele>3.3</ele>
        <time>2020-06-03T13:17:47Z</time>
      </trkpt>
      <trkpt lat="46.50139" lon="-1.78577">
        <ele>3.2</ele>
        <time>2020-06-03T13:17:48Z</time>
      </trkpt>
      <trkpt lat="46.50144" lon="-1.78579">
        <ele>3.2</ele>
        <time>2020-06-03T13:17:49Z</time>
      </trkpt>
      <trkpt lat="46.50149" lon="-1.7858">
        <ele>3.2</ele>
        <time>2020-06-03T13:17:50Z</time>
      </trkpt>
      <trkpt lat="46.50154" lon="-1.78582">
        <ele>3.1</ele>
        <time>2020-06-03T13:17:51Z</time>
      </trkpt>
      <trkpt lat="46.50159" lon="-1.78584">
        <ele>3.1</ele>
        <time>2020-06-03T13:17:52Z</time>
      </trkpt>
      <trkpt lat="46.50164" lon="-1.78586">
        <ele>3.1</ele>
        <time>2020-06-03T13:17:53Z</time>
      </trkpt>
      <trkpt lat="46.50169" lon="-1.78587">
        <ele>3</ele>
        <time>2020-06-03T13:17:54Z</time>
      </trkpt>
      <trkpt lat="46.50175" lon="-1.7859">
        <ele>3</ele>
        <time>2020-06-03T13:17:55Z</time>
      </trkpt>
      <trkpt lat="46.50179" lon="-1.78593">
        <ele>2.9</ele>
        <time>2020-06-03T13:17:56Z</time>
      </trkpt>
      <trkpt lat="46.50184" lon="-1.78597">
        <ele>2.9</ele>
        <time>2020-06-03T13:17:57Z</time>
      </trkpt>
      <trkpt lat="46.50189" lon="-1.78601">
        <ele>2.9</ele>
        <time>2020-06-03T13:17:58Z</time>
      </trkpt>
      <trkpt lat="46.50194" lon="-1.78604">
        <ele>2.8</ele>
        <time>2020-06-03T13:17:59Z</time>
      </trkpt>
      <trkpt lat="46.50199" lon="-1.78608">
        <ele>2.8</ele>
        <time>2020-06-03T13:18:00Z</time>
      </trkpt>
      <trkpt lat="46.50204" lon="-1.78612">
        <ele>2.8</ele>
        <time>2020-06-03T13:18:01Z</time>
      </trkpt>
      <trkpt lat="46.50208" lon="-1.78616">
        <ele>2.8</ele>
        <time>2020-06-03T13:18:02Z</time>
      </trkpt>
      <trkpt lat="46.50212" lon="-1.7862">
        <ele>2.8</ele>
        <time>2020-06-03T13:18:03Z</time>
      </trkpt>
      <trkpt lat="46.50217" lon="-1.78623">
        <ele>2.8</ele>
        <time>2020-06-03T13:18:04Z</time>
      </trkpt>
      <trkpt lat="46.50223" lon="-1.78627">
        <ele>2.7</ele>
        <time>2020-06-03T13:18:05Z</time>
      </trkpt>
      <trkpt lat="46.50226" lon="-1.78633">
        <ele>2.7</ele>
        <time>2020-06-03T13:18:06Z</time>
      </trkpt>
      <trkpt lat="46.5023" lon="-1.78638">
        <ele>2.7</ele>
        <time>2020-06-03T13:18:07Z</time>
      </trkpt>
      <trkpt lat="46.50235" lon="-1.78638">
        <ele>2.7</ele>
        <time>2020-06-03T13:18:08Z</time>
      </trkpt>
      <trkpt lat="46.5024" lon="-1.78642">
        <ele>2.7</ele>
        <time>2020-06-03T13:18:09Z</time>
      </trkpt>
      <trkpt lat="46.50244" lon="-1.78646">
        <ele>2.7</ele>
        <time>2020-06-03T13:18:10Z</time>
      </trkpt>
      <trkpt lat="46.50248" lon="-1.78651">
        <ele>3.4</ele>
        <time>2020-06-03T13:18:11Z</time>
      </trkpt>
      <trkpt lat="46.50252" lon="-1.78655">
        <ele>3.4</ele>
        <time>2020-06-03T13:18:12Z</time>
      </trkpt>
      <trkpt lat="46.50256" lon="-1.78659">
        <ele>3.4</ele>
        <time>2020-06-03T13:18:13Z</time>
      </trkpt>
      <trkpt lat="46.50261" lon="-1.78664">
        <ele>3.5</ele>
        <time>2020-06-03T13:18:14Z</time>
      </trkpt>
      <trkpt lat="46.50265" lon="-1.78669">
        <ele>3.5</ele>
        <time>2020-06-03T13:18:15Z</time>
      </trkpt>
      <trkpt lat="46.50269" lon="-1.78673">
        <ele>3.5</ele>
        <time>2020-06-03T13:18:16Z</time>
      </trkpt>
      <trkpt lat="46.50273" lon="-1.78679">
        <ele>3.5</ele>
        <time>2020-06-03T13:18:17Z</time>
      </trkpt>
      <trkpt lat="46.50277" lon="-1.78684">
        <ele>3.5</ele>
        <time>2020-06-03T13:18:18Z</time>
      </trkpt>
      <trkpt lat="46.50282" lon="-1.78688">
        <ele>3.5</ele>
        <time>2020-06-03T13:18:19Z</time>
      </trkpt>
      <trkpt lat="46.50286" lon="-1.78692">
        <ele>3.5</ele>
        <time>2020-06-03T13:18:20Z</time>
      </trkpt>
      <trkpt lat="46.5029" lon="-1.78697">
        <ele>3.5</ele>
        <time>2020-06-03T13:18:21Z</time>
      </trkpt>
      <trkpt lat="46.50294" lon="-1.78701">
        <ele>3.6</ele>
        <time>2020-06-03T13:18:22Z</time>
      </trkpt>
      <trkpt lat="46.50299" lon="-1.78706">
        <ele>3.6</ele>
        <time>2020-06-03T13:18:23Z</time>
      </trkpt>
      <trkpt lat="46.50303" lon="-1.78711">
        <ele>3.6</ele>
        <time>2020-06-03T13:18:24Z</time>
      </trkpt>
      <trkpt lat="46.50307" lon="-1.78715">
        <ele>3.6</ele>
        <time>2020-06-03T13:18:25Z</time>
      </trkpt>
      <trkpt lat="46.5031" lon="-1.78719">
        <ele>3.6</ele>
        <time>2020-06-03T13:18:26Z</time>
      </trkpt>
      <trkpt lat="46.50315" lon="-1.78724">
        <ele>3.6</ele>
        <time>2020-06-03T13:18:27Z</time>
      </trkpt>
      <trkpt lat="46.50318" lon="-1.78727">
        <ele>3.6</ele>
        <time>2020-06-03T13:18:28Z</time>
      </trkpt>
      <trkpt lat="46.50322" lon="-1.78731">
        <ele>3.6</ele>
        <time>2020-06-03T13:18:29Z</time>
      </trkpt>
      <trkpt lat="46.50326" lon="-1.78736">
        <ele>3.6</ele>
        <time>2020-06-03T13:18:30Z</time>
      </trkpt>
      <trkpt lat="46.50329" lon="-1.78739">
        <ele>3.6</ele>
        <time>2020-06-03T13:18:31Z</time>
      </trkpt>
      <trkpt lat="46.50333" lon="-1.78744">
        <ele>3.6</ele>
        <time>2020-06-03T13:18:32Z</time>
      </trkpt>
      <trkpt lat="46.50336" lon="-1.78748">
        <ele>3.6</ele>
        <time>2020-06-03T13:18:33Z</time>
      </trkpt>
      <trkpt lat="46.50339" lon="-1.78753">
        <ele>3.6</ele>
        <time>2020-06-03T13:18:34Z</time>
      </trkpt>
      <trkpt lat="46.50344" lon="-1.78758">
        <ele>3.7</ele>
        <time>2020-06-03T13:18:35Z</time>
      </trkpt>
      <trkpt lat="46.50348" lon="-1.78762">
        <ele>3.7</ele>
        <time>2020-06-03T13:18:36Z</time>
      </trkpt>
      <trkpt lat="46.50352" lon="-1.78767">
        <ele>3.7</ele>
        <time>2020-06-03T13:18:37Z</time>
      </trkpt>
      <trkpt lat="46.50355" lon="-1.78771">
        <ele>3.7</ele>
        <time>2020-06-03T13:18:38Z</time>
      </trkpt>
      <trkpt lat="46.50358" lon="-1.78777">
        <ele>3.7</ele>
        <time>2020-06-03T13:18:39Z</time>
      </trkpt>
      <trkpt lat="46.50361" lon="-1.7878">
        <ele>3.7</ele>
        <time>2020-06-03T13:18:40Z</time>
      </trkpt>
      <trkpt lat="46.50364" lon="-1.78784">
        <ele>3.8</ele>
        <time>2020-06-03T13:18:41Z</time>
      </trkpt>
      <trkpt lat="46.50368" lon="-1.78787">
        <ele>3.8</ele>
        <time>2020-06-03T13:18:42Z</time>
      </trkpt>
      <trkpt lat="46.50371" lon="-1.7879">
        <ele>3.8</ele>
        <time>2020-06-03T13:18:43Z</time>
      </trkpt>
      <trkpt lat="46.50375" lon="-1.78794">
        <ele>3.8</ele>
        <time>2020-06-03T13:18:44Z</time>
      </trkpt>
      <trkpt lat="46.50379" lon="-1.78798">
        <ele>3.8</ele>
        <time>2020-06-03T13:18:45Z</time>
      </trkpt>
      <trkpt lat="46.50382" lon="-1.78802">
        <ele>3.8</ele>
        <time>2020-06-03T13:18:46Z</time>
      </trkpt>
      <trkpt lat="46.50386" lon="-1.78805">
        <ele>3.8</ele>
        <time>2020-06-03T13:18:47Z</time>
      </trkpt>
      <trkpt lat="46.5039" lon="-1.78809">
        <ele>3.8</ele>
        <time>2020-06-03T13:18:48Z</time>
      </trkpt>
      <trkpt lat="46.50394" lon="-1.78813">
        <ele>3.8</ele>
        <time>2020-06-03T13:18:49Z</time>
      </trkpt>
      <trkpt lat="46.50398" lon="-1.78817">
        <ele>3.7</ele>
        <time>2020-06-03T13:18:50Z</time>
      </trkpt>
      <trkpt lat="46.50401" lon="-1.78821">
        <ele>3.7</ele>
        <time>2020-06-03T13:18:51Z</time>
      </trkpt>
      <trkpt lat="46.50405" lon="-1.78825">
        <ele>3.7</ele>
        <time>2020-06-03T13:18:52Z</time>
      </trkpt>
      <trkpt lat="46.5041" lon="-1.7883">
        <ele>3.6</ele>
        <time>2020-06-03T13:18:53Z</time>
      </trkpt>
      <trkpt lat="46.50414" lon="-1.78835">
        <ele>3.6</ele>
        <time>2020-06-03T13:18:54Z</time>
      </trkpt>
      <trkpt lat="46.50418" lon="-1.78839">
        <ele>3.6</ele>
        <time>2020-06-03T13:18:55Z</time>
      </trkpt>
      <trkpt lat="46.50422" lon="-1.78841">
        <ele>3.6</ele>
        <time>2020-06-03T13:18:56Z</time>
      </trkpt>
      <trkpt lat="46.50425" lon="-1.78845">
        <ele>3.6</ele>
        <time>2020-06-03T13:18:57Z</time>
      </trkpt>
      <trkpt lat="46.50429" lon="-1.78849">
        <ele>3.6</ele>
        <time>2020-06-03T13:18:58Z</time>
      </trkpt>
      <trkpt lat="46.50432" lon="-1.78854">
        <ele>3.6</ele>
        <time>2020-06-03T13:18:59Z</time>
      </trkpt>
      <trkpt lat="46.50436" lon="-1.7886">
        <ele>3.7</ele>
        <time>2020-06-03T13:19:00Z</time>
      </trkpt>
      <trkpt lat="46.50439" lon="-1.78864">
        <ele>3.7</ele>
        <time>2020-06-03T13:19:01Z</time>
      </trkpt>
      <trkpt lat="46.50443" lon="-1.78869">
        <ele>3.7</ele>
        <time>2020-06-03T13:19:02Z</time>
      </trkpt>
      <trkpt lat="46.50448" lon="-1.78872">
        <ele>3.7</ele>
        <time>2020-06-03T13:19:03Z</time>
      </trkpt>
      <trkpt lat="46.50452" lon="-1.78876">
        <ele>3.7</ele>
        <time>2020-06-03T13:19:04Z</time>
      </trkpt>
      <trkpt lat="46.50456" lon="-1.7888">
        <ele>3.7</ele>
        <time>2020-06-03T13:19:05Z</time>
      </trkpt>
      <trkpt lat="46.50461" lon="-1.78884">
        <ele>3.7</ele>
        <time>2020-06-03T13:19:06Z</time>
      </trkpt>
      <trkpt lat="46.50465" lon="-1.78888">
        <ele>3.6</ele>
        <time>2020-06-03T13:19:07Z</time>
      </trkpt>
      <trkpt lat="46.50468" lon="-1.78892">
        <ele>3.6</ele>
        <time>2020-06-03T13:19:08Z</time>
      </trkpt>
      <trkpt lat="46.50473" lon="-1.78897">
        <ele>3.6</ele>
        <time>2020-06-03T13:19:09Z</time>
      </trkpt>
      <trkpt lat="46.50477" lon="-1.78902">
        <ele>3.6</ele>
        <time>2020-06-03T13:19:10Z</time>
      </trkpt>
      <trkpt lat="46.5048" lon="-1.78905">
        <ele>3.6</ele>
        <time>2020-06-03T13:19:11Z</time>
      </trkpt>
      <trkpt lat="46.50484" lon="-1.78909">
        <ele>3.6</ele>
        <time>2020-06-03T13:19:12Z</time>
      </trkpt>
      <trkpt lat="46.50487" lon="-1.78914">
        <ele>3.5</ele>
        <time>2020-06-03T13:19:13Z</time>
      </trkpt>
      <trkpt lat="46.50491" lon="-1.78918">
        <ele>3.5</ele>
        <time>2020-06-03T13:19:14Z</time>
      </trkpt>
      <trkpt lat="46.50496" lon="-1.78921">
        <ele>3.5</ele>
        <time>2020-06-03T13:19:15Z</time>
      </trkpt>
      <trkpt lat="46.50499" lon="-1.78924">
        <ele>3.5</ele>
        <time>2020-06-03T13:19:16Z</time>
      </trkpt>
      <trkpt lat="46.50502" lon="-1.78927">
        <ele>3.5</ele>
        <time>2020-06-03T13:19:17Z</time>
      </trkpt>
      <trkpt lat="46.50504" lon="-1.7893">
        <ele>3.5</ele>
        <time>2020-06-03T13:19:18Z</time>
      </trkpt>
      <trkpt lat="46.50506" lon="-1.78933">
        <ele>3.5</ele>
        <time>2020-06-03T13:19:19Z</time>
      </trkpt>
      <trkpt lat="46.50509" lon="-1.78935">
        <ele>3.5</ele>
        <time>2020-06-03T13:19:20Z</time>
      </trkpt>
      <trkpt lat="46.5051" lon="-1.78936">
        <ele>3.5</ele>
        <time>2020-06-03T13:19:21Z</time>
      </trkpt>
      <trkpt lat="46.50512" lon="-1.78938">
        <ele>3.5</ele>
        <time>2020-06-03T13:19:22Z</time>
      </trkpt>
      <trkpt lat="46.50516" lon="-1.7894">
        <ele>3.5</ele>
        <time>2020-06-03T13:19:23Z</time>
      </trkpt>
      <trkpt lat="46.50517" lon="-1.7894">
        <ele>3.5</ele>
        <time>2020-06-03T13:19:24Z</time>
      </trkpt>
      <trkpt lat="46.5052" lon="-1.78938">
        <ele>3.4</ele>
        <time>2020-06-03T13:19:25Z</time>
      </trkpt>
      <trkpt lat="46.50523" lon="-1.78937">
        <ele>3.4</ele>
        <time>2020-06-03T13:19:26Z</time>
      </trkpt>
      <trkpt lat="46.50528" lon="-1.78935">
        <ele>3.4</ele>
        <time>2020-06-03T13:19:27Z</time>
      </trkpt>
      <trkpt lat="46.50533" lon="-1.78934">
        <ele>3.6</ele>
        <time>2020-06-03T13:19:28Z</time>
      </trkpt>
      <trkpt lat="46.50538" lon="-1.78934">
        <ele>3.7</ele>
        <time>2020-06-03T13:19:29Z</time>
      </trkpt>
      <trkpt lat="46.50543" lon="-1.78937">
        <ele>3.9</ele>
        <time>2020-06-03T13:19:30Z</time>
      </trkpt>
      <trkpt lat="46.50549" lon="-1.78939">
        <ele>4.1</ele>
        <time>2020-06-03T13:19:31Z</time>
      </trkpt>
      <trkpt lat="46.50552" lon="-1.78944">
        <ele>4.3</ele>
        <time>2020-06-03T13:19:32Z</time>
      </trkpt>
      <trkpt lat="46.50555" lon="-1.7895">
        <ele>4.4</ele>
        <time>2020-06-03T13:19:33Z</time>
      </trkpt>
      <trkpt lat="46.50557" lon="-1.78957">
        <ele>4.4</ele>
        <time>2020-06-03T13:19:34Z</time>
      </trkpt>
      <trkpt lat="46.50558" lon="-1.78963">
        <ele>4.4</ele>
        <time>2020-06-03T13:19:35Z</time>
      </trkpt>
      <trkpt lat="46.50557" lon="-1.78968">
        <ele>4.4</ele>
        <time>2020-06-03T13:19:36Z</time>
      </trkpt>
      <trkpt lat="46.50557" lon="-1.78973">
        <ele>4.4</ele>
        <time>2020-06-03T13:19:37Z</time>
      </trkpt>
      <trkpt lat="46.50556" lon="-1.78979">
        <ele>4.4</ele>
        <time>2020-06-03T13:19:38Z</time>
      </trkpt>
      <trkpt lat="46.50557" lon="-1.78983">
        <ele>4.4</ele>
        <time>2020-06-03T13:19:39Z</time>
      </trkpt>
      <trkpt lat="46.50558" lon="-1.78988">
        <ele>4.5</ele>
        <time>2020-06-03T13:19:40Z</time>
      </trkpt>
      <trkpt lat="46.5056" lon="-1.78993">
        <ele>4.5</ele>
        <time>2020-06-03T13:19:41Z</time>
      </trkpt>
      <trkpt lat="46.50563" lon="-1.78996">
        <ele>3</ele>
        <time>2020-06-03T13:19:42Z</time>
      </trkpt>
      <trkpt lat="46.50566" lon="-1.78999">
        <ele>3.1</ele>
        <time>2020-06-03T13:19:43Z</time>
      </trkpt>
      <trkpt lat="46.50569" lon="-1.79003">
        <ele>3.2</ele>
        <time>2020-06-03T13:19:44Z</time>
      </trkpt>
      <trkpt lat="46.50572" lon="-1.79005">
        <ele>3.2</ele>
        <time>2020-06-03T13:19:45Z</time>
      </trkpt>
      <trkpt lat="46.50576" lon="-1.79008">
        <ele>3.3</ele>
        <time>2020-06-03T13:19:46Z</time>
      </trkpt>
      <trkpt lat="46.50579" lon="-1.79012">
        <ele>3.3</ele>
        <time>2020-06-03T13:19:47Z</time>
      </trkpt>
      <trkpt lat="46.50582" lon="-1.79015">
        <ele>3.3</ele>
        <time>2020-06-03T13:19:48Z</time>
      </trkpt>
      <trkpt lat="46.50586" lon="-1.79018">
        <ele>3.4</ele>
        <time>2020-06-03T13:19:49Z</time>
      </trkpt>
      <trkpt lat="46.50589" lon="-1.79021">
        <ele>3.4</ele>
        <time>2020-06-03T13:19:50Z</time>
      </trkpt>
      <trkpt lat="46.50594" lon="-1.79025">
        <ele>3.5</ele>
        <time>2020-06-03T13:19:51Z</time>
      </trkpt>
      <trkpt lat="46.50598" lon="-1.79029">
        <ele>3.6</ele>
        <time>2020-06-03T13:19:52Z</time>
      </trkpt>
      <trkpt lat="46.50603" lon="-1.79033">
        <ele>3.7</ele>
        <time>2020-06-03T13:19:53Z</time>
      </trkpt>
      <trkpt lat="46.50606" lon="-1.79037">
        <ele>3.7</ele>
        <time>2020-06-03T13:19:54Z</time>
      </trkpt>
      <trkpt lat="46.5061" lon="-1.79042">
        <ele>3.8</ele>
        <time>2020-06-03T13:19:55Z</time>
      </trkpt>
      <trkpt lat="46.50614" lon="-1.79046">
        <ele>3.8</ele>
        <time>2020-06-03T13:19:56Z</time>
      </trkpt>
      <trkpt lat="46.50619" lon="-1.79051">
        <ele>3.8</ele>
        <time>2020-06-03T13:19:57Z</time>
      </trkpt>
      <trkpt lat="46.50623" lon="-1.79057">
        <ele>3.8</ele>
        <time>2020-06-03T13:19:58Z</time>
      </trkpt>
      <trkpt lat="46.50628" lon="-1.79061">
        <ele>3.8</ele>
        <time>2020-06-03T13:19:59Z</time>
      </trkpt>
      <trkpt lat="46.50632" lon="-1.79065">
        <ele>3.8</ele>
        <time>2020-06-03T13:20:00Z</time>
      </trkpt>
      <trkpt lat="46.50636" lon="-1.79069">
        <ele>3.8</ele>
        <time>2020-06-03T13:20:01Z</time>
      </trkpt>
      <trkpt lat="46.5064" lon="-1.79073">
        <ele>3.8</ele>
        <time>2020-06-03T13:20:02Z</time>
      </trkpt>
      <trkpt lat="46.50644" lon="-1.79078">
        <ele>3.8</ele>
        <time>2020-06-03T13:20:03Z</time>
      </trkpt>
      <trkpt lat="46.50648" lon="-1.79082">
        <ele>3.8</ele>
        <time>2020-06-03T13:20:04Z</time>
      </trkpt>
      <trkpt lat="46.50653" lon="-1.79087">
        <ele>3.8</ele>
        <time>2020-06-03T13:20:05Z</time>
      </trkpt>
      <trkpt lat="46.50656" lon="-1.79092">
        <ele>3.8</ele>
        <time>2020-06-03T13:20:06Z</time>
      </trkpt>
      <trkpt lat="46.5066" lon="-1.79095">
        <ele>3.8</ele>
        <time>2020-06-03T13:20:07Z</time>
      </trkpt>
      <trkpt lat="46.50664" lon="-1.79099">
        <ele>3.8</ele>
        <time>2020-06-03T13:20:08Z</time>
      </trkpt>
      <trkpt lat="46.50668" lon="-1.79103">
        <ele>3.8</ele>
        <time>2020-06-03T13:20:09Z</time>
      </trkpt>
      <trkpt lat="46.50672" lon="-1.79108">
        <ele>3.8</ele>
        <time>2020-06-03T13:20:10Z</time>
      </trkpt>
      <trkpt lat="46.50676" lon="-1.79113">
        <ele>3.7</ele>
        <time>2020-06-03T13:20:11Z</time>
      </trkpt>
      <trkpt lat="46.5068" lon="-1.79117">
        <ele>3.7</ele>
        <time>2020-06-03T13:20:12Z</time>
      </trkpt>
      <trkpt lat="46.50684" lon="-1.79122">
        <ele>3.7</ele>
        <time>2020-06-03T13:20:13Z</time>
      </trkpt>
      <trkpt lat="46.50689" lon="-1.79126">
        <ele>3.6</ele>
        <time>2020-06-03T13:20:14Z</time>
      </trkpt>
      <trkpt lat="46.50693" lon="-1.79129">
        <ele>3.6</ele>
        <time>2020-06-03T13:20:15Z</time>
      </trkpt>
      <trkpt lat="46.50698" lon="-1.79134">
        <ele>3.6</ele>
        <time>2020-06-03T13:20:16Z</time>
      </trkpt>
      <trkpt lat="46.50702" lon="-1.79138">
        <ele>3.6</ele>
        <time>2020-06-03T13:20:17Z</time>
      </trkpt>
      <trkpt lat="46.50706" lon="-1.79142">
        <ele>3.6</ele>
        <time>2020-06-03T13:20:18Z</time>
      </trkpt>
      <trkpt lat="46.50709" lon="-1.79146">
        <ele>3.6</ele>
        <time>2020-06-03T13:20:19Z</time>
      </trkpt>
      <trkpt lat="46.50713" lon="-1.7915">
        <ele>3.6</ele>
        <time>2020-06-03T13:20:20Z</time>
      </trkpt>
      <trkpt lat="46.50716" lon="-1.79155">
        <ele>3.6</ele>
        <time>2020-06-03T13:20:21Z</time>
      </trkpt>
      <trkpt lat="46.5072" lon="-1.79159">
        <ele>3.6</ele>
        <time>2020-06-03T13:20:22Z</time>
      </trkpt>
      <trkpt lat="46.50724" lon="-1.79163">
        <ele>3.6</ele>
        <time>2020-06-03T13:20:23Z</time>
      </trkpt>
      <trkpt lat="46.50728" lon="-1.79167">
        <ele>3.5</ele>
        <time>2020-06-03T13:20:24Z</time>
      </trkpt>
      <trkpt lat="46.50731" lon="-1.79171">
        <ele>3.5</ele>
        <time>2020-06-03T13:20:25Z</time>
      </trkpt>
      <trkpt lat="46.50735" lon="-1.79174">
        <ele>3.5</ele>
        <time>2020-06-03T13:20:26Z</time>
      </trkpt>
      <trkpt lat="46.5074" lon="-1.79178">
        <ele>3.5</ele>
        <time>2020-06-03T13:20:27Z</time>
      </trkpt>
      <trkpt lat="46.50743" lon="-1.79182">
        <ele>3.5</ele>
        <time>2020-06-03T13:20:28Z</time>
      </trkpt>
      <trkpt lat="46.50747" lon="-1.79186">
        <ele>3.5</ele>
        <time>2020-06-03T13:20:29Z</time>
      </trkpt>
      <trkpt lat="46.50751" lon="-1.79191">
        <ele>3.5</ele>
        <time>2020-06-03T13:20:30Z</time>
      </trkpt>
      <trkpt lat="46.50755" lon="-1.79196">
        <ele>3.5</ele>
        <time>2020-06-03T13:20:31Z</time>
      </trkpt>
      <trkpt lat="46.5076" lon="-1.79202">
        <ele>3.5</ele>
        <time>2020-06-03T13:20:32Z</time>
      </trkpt>
      <trkpt lat="46.50764" lon="-1.79206">
        <ele>3.4</ele>
        <time>2020-06-03T13:20:33Z</time>
      </trkpt>
      <trkpt lat="46.50768" lon="-1.79211">
        <ele>3.4</ele>
        <time>2020-06-03T13:20:34Z</time>
      </trkpt>
      <trkpt lat="46.50772" lon="-1.79216">
        <ele>3.4</ele>
        <time>2020-06-03T13:20:35Z</time>
      </trkpt>
      <trkpt lat="46.50776" lon="-1.7922">
        <ele>3.4</ele>
        <time>2020-06-03T13:20:36Z</time>
      </trkpt>
      <trkpt lat="46.5078" lon="-1.79224">
        <ele>3.3</ele>
        <time>2020-06-03T13:20:37Z</time>
      </trkpt>
      <trkpt lat="46.50786" lon="-1.79228">
        <ele>3.3</ele>
        <time>2020-06-03T13:20:38Z</time>
      </trkpt>
      <trkpt lat="46.50791" lon="-1.79232">
        <ele>3.3</ele>
        <time>2020-06-03T13:20:39Z</time>
      </trkpt>
      <trkpt lat="46.50795" lon="-1.79236">
        <ele>3.3</ele>
        <time>2020-06-03T13:20:40Z</time>
      </trkpt>
      <trkpt lat="46.50799" lon="-1.79241">
        <ele>3.3</ele>
        <time>2020-06-03T13:20:41Z</time>
      </trkpt>
      <trkpt lat="46.50803" lon="-1.79246">
        <ele>3.3</ele>
        <time>2020-06-03T13:20:42Z</time>
      </trkpt>
      <trkpt lat="46.50807" lon="-1.7925">
        <ele>3.3</ele>
        <time>2020-06-03T13:20:43Z</time>
      </trkpt>
      <trkpt lat="46.5081" lon="-1.79254">
        <ele>3.3</ele>
        <time>2020-06-03T13:20:44Z</time>
      </trkpt>
      <trkpt lat="46.50814" lon="-1.79257">
        <ele>3.3</ele>
        <time>2020-06-03T13:20:45Z</time>
      </trkpt>
      <trkpt lat="46.50817" lon="-1.79262">
        <ele>3.4</ele>
        <time>2020-06-03T13:20:46Z</time>
      </trkpt>
      <trkpt lat="46.50821" lon="-1.79266">
        <ele>3.4</ele>
        <time>2020-06-03T13:20:47Z</time>
      </trkpt>
      <trkpt lat="46.50825" lon="-1.7927">
        <ele>3.4</ele>
        <time>2020-06-03T13:20:48Z</time>
      </trkpt>
      <trkpt lat="46.50829" lon="-1.79274">
        <ele>3.4</ele>
        <time>2020-06-03T13:20:49Z</time>
      </trkpt>
      <trkpt lat="46.50833" lon="-1.79278">
        <ele>3.4</ele>
        <time>2020-06-03T13:20:50Z</time>
      </trkpt>
      <trkpt lat="46.50836" lon="-1.79283">
        <ele>3.4</ele>
        <time>2020-06-03T13:20:51Z</time>
      </trkpt>
      <trkpt lat="46.5084" lon="-1.79286">
        <ele>3.4</ele>
        <time>2020-06-03T13:20:52Z</time>
      </trkpt>
      <trkpt lat="46.50845" lon="-1.7929">
        <ele>3.4</ele>
        <time>2020-06-03T13:20:53Z</time>
      </trkpt>
      <trkpt lat="46.50849" lon="-1.79294">
        <ele>3.4</ele>
        <time>2020-06-03T13:20:54Z</time>
      </trkpt>
      <trkpt lat="46.50854" lon="-1.79298">
        <ele>3.4</ele>
        <time>2020-06-03T13:20:55Z</time>
      </trkpt>
      <trkpt lat="46.50859" lon="-1.79303">
        <ele>3.3</ele>
        <time>2020-06-03T13:20:56Z</time>
      </trkpt>
      <trkpt lat="46.50863" lon="-1.79305">
        <ele>3.3</ele>
        <time>2020-06-03T13:20:57Z</time>
      </trkpt>
      <trkpt lat="46.50868" lon="-1.79309">
        <ele>3.3</ele>
        <time>2020-06-03T13:20:58Z</time>
      </trkpt>
      <trkpt lat="46.50873" lon="-1.79313">
        <ele>3.3</ele>
        <time>2020-06-03T13:20:59Z</time>
      </trkpt>
      <trkpt lat="46.50877" lon="-1.79316">
        <ele>3.2</ele>
        <time>2020-06-03T13:21:00Z</time>
      </trkpt>
      <trkpt lat="46.50882" lon="-1.79319">
        <ele>3.2</ele>
        <time>2020-06-03T13:21:01Z</time>
      </trkpt>
      <trkpt lat="46.50887" lon="-1.79322">
        <ele>3.2</ele>
        <time>2020-06-03T13:21:02Z</time>
      </trkpt>
      <trkpt lat="46.50893" lon="-1.79324">
        <ele>3.1</ele>
        <time>2020-06-03T13:21:03Z</time>
      </trkpt>
      <trkpt lat="46.50898" lon="-1.79327">
        <ele>3.1</ele>
        <time>2020-06-03T13:21:04Z</time>
      </trkpt>
      <trkpt lat="46.50903" lon="-1.79328">
        <ele>3.1</ele>
        <time>2020-06-03T13:21:05Z</time>
      </trkpt>
      <trkpt lat="46.50908" lon="-1.79331">
        <ele>3</ele>
        <time>2020-06-03T13:21:06Z</time>
      </trkpt>
      <trkpt lat="46.50913" lon="-1.79333">
        <ele>3</ele>
        <time>2020-06-03T13:21:07Z</time>
      </trkpt>
      <trkpt lat="46.50918" lon="-1.79336">
        <ele>3</ele>
        <time>2020-06-03T13:21:08Z</time>
      </trkpt>
      <trkpt lat="46.50923" lon="-1.79337">
        <ele>2.9</ele>
        <time>2020-06-03T13:21:09Z</time>
      </trkpt>
      <trkpt lat="46.50928" lon="-1.79338">
        <ele>2.9</ele>
        <time>2020-06-03T13:21:10Z</time>
      </trkpt>
      <trkpt lat="46.50933" lon="-1.7934">
        <ele>2.9</ele>
        <time>2020-06-03T13:21:11Z</time>
      </trkpt>
      <trkpt lat="46.50937" lon="-1.79342">
        <ele>2.9</ele>
        <time>2020-06-03T13:21:12Z</time>
      </trkpt>
      <trkpt lat="46.50943" lon="-1.79341">
        <ele>2.9</ele>
        <time>2020-06-03T13:21:13Z</time>
      </trkpt>
      <trkpt lat="46.50948" lon="-1.79341">
        <ele>2.8</ele>
        <time>2020-06-03T13:21:14Z</time>
      </trkpt>
      <trkpt lat="46.50953" lon="-1.79341">
        <ele>2.8</ele>
        <time>2020-06-03T13:21:15Z</time>
      </trkpt>
      <trkpt lat="46.50958" lon="-1.79341">
        <ele>2.8</ele>
        <time>2020-06-03T13:21:16Z</time>
      </trkpt>
      <trkpt lat="46.50963" lon="-1.7934">
        <ele>2.8</ele>
        <time>2020-06-03T13:21:17Z</time>
      </trkpt>
      <trkpt lat="46.50969" lon="-1.79341">
        <ele>2.9</ele>
        <time>2020-06-03T13:21:18Z</time>
      </trkpt>
      <trkpt lat="46.50975" lon="-1.79342">
        <ele>2.9</ele>
        <time>2020-06-03T13:21:19Z</time>
      </trkpt>
      <trkpt lat="46.5098" lon="-1.79342">
        <ele>2.9</ele>
        <time>2020-06-03T13:21:20Z</time>
      </trkpt>
      <trkpt lat="46.50986" lon="-1.79342">
        <ele>2.9</ele>
        <time>2020-06-03T13:21:21Z</time>
      </trkpt>
      <trkpt lat="46.50991" lon="-1.79343">
        <ele>2.9</ele>
        <time>2020-06-03T13:21:22Z</time>
      </trkpt>
      <trkpt lat="46.50997" lon="-1.79342">
        <ele>2.9</ele>
        <time>2020-06-03T13:21:23Z</time>
      </trkpt>
      <trkpt lat="46.51002" lon="-1.79341">
        <ele>3</ele>
        <time>2020-06-03T13:21:24Z</time>
      </trkpt>
      <trkpt lat="46.51008" lon="-1.7934">
        <ele>3</ele>
        <time>2020-06-03T13:21:25Z</time>
      </trkpt>
      <trkpt lat="46.51014" lon="-1.79339">
        <ele>3</ele>
        <time>2020-06-03T13:21:26Z</time>
      </trkpt>
      <trkpt lat="46.5102" lon="-1.79338">
        <ele>3.1</ele>
        <time>2020-06-03T13:21:27Z</time>
      </trkpt>
      <trkpt lat="46.51025" lon="-1.79336">
        <ele>3.1</ele>
        <time>2020-06-03T13:21:28Z</time>
      </trkpt>
      <trkpt lat="46.5103" lon="-1.79335">
        <ele>3.1</ele>
        <time>2020-06-03T13:21:29Z</time>
      </trkpt>
      <trkpt lat="46.51036" lon="-1.79334">
        <ele>3.1</ele>
        <time>2020-06-03T13:21:30Z</time>
      </trkpt>
      <trkpt lat="46.5104" lon="-1.79332">
        <ele>3.2</ele>
        <time>2020-06-03T13:21:31Z</time>
      </trkpt>
      <trkpt lat="46.51045" lon="-1.7933">
        <ele>3.2</ele>
        <time>2020-06-03T13:21:32Z</time>
      </trkpt>
      <trkpt lat="46.51049" lon="-1.79328">
        <ele>3.2</ele>
        <time>2020-06-03T13:21:33Z</time>
      </trkpt>
      <trkpt lat="46.51054" lon="-1.79326">
        <ele>3.2</ele>
        <time>2020-06-03T13:21:34Z</time>
      </trkpt>
      <trkpt lat="46.5106" lon="-1.79323">
        <ele>3.2</ele>
        <time>2020-06-03T13:21:35Z</time>
      </trkpt>
      <trkpt lat="46.51065" lon="-1.79321">
        <ele>3.2</ele>
        <time>2020-06-03T13:21:36Z</time>
      </trkpt>
      <trkpt lat="46.51071" lon="-1.79318">
        <ele>3.2</ele>
        <time>2020-06-03T13:21:37Z</time>
      </trkpt>
      <trkpt lat="46.51075" lon="-1.79315">
        <ele>3.2</ele>
        <time>2020-06-03T13:21:38Z</time>
      </trkpt>
      <trkpt lat="46.51079" lon="-1.79312">
        <ele>3.2</ele>
        <time>2020-06-03T13:21:39Z</time>
      </trkpt>
      <trkpt lat="46.51083" lon="-1.79308">
        <ele>3.2</ele>
        <time>2020-06-03T13:21:40Z</time>
      </trkpt>
      <trkpt lat="46.51089" lon="-1.79306">
        <ele>3.3</ele>
        <time>2020-06-03T13:21:41Z</time>
      </trkpt>
      <trkpt lat="46.51093" lon="-1.79303">
        <ele>3.3</ele>
        <time>2020-06-03T13:21:42Z</time>
      </trkpt>
      <trkpt lat="46.51098" lon="-1.79299">
        <ele>3.3</ele>
        <time>2020-06-03T13:21:43Z</time>
      </trkpt>
      <trkpt lat="46.51104" lon="-1.79296">
        <ele>3.3</ele>
        <time>2020-06-03T13:21:44Z</time>
      </trkpt>
      <trkpt lat="46.5111" lon="-1.79293">
        <ele>3.4</ele>
        <time>2020-06-03T13:21:45Z</time>
      </trkpt>
      <trkpt lat="46.51114" lon="-1.7929">
        <ele>3.4</ele>
        <time>2020-06-03T13:21:46Z</time>
      </trkpt>
      <trkpt lat="46.51119" lon="-1.79287">
        <ele>3.4</ele>
        <time>2020-06-03T13:21:47Z</time>
      </trkpt>
      <trkpt lat="46.51124" lon="-1.79283">
        <ele>3.4</ele>
        <time>2020-06-03T13:21:48Z</time>
      </trkpt>
      <trkpt lat="46.51129" lon="-1.79281">
        <ele>3.4</ele>
        <time>2020-06-03T13:21:49Z</time>
      </trkpt>
      <trkpt lat="46.51134" lon="-1.79278">
        <ele>3.4</ele>
        <time>2020-06-03T13:21:50Z</time>
      </trkpt>
      <trkpt lat="46.51138" lon="-1.79275">
        <ele>3.5</ele>
        <time>2020-06-03T13:21:51Z</time>
      </trkpt>
      <trkpt lat="46.51144" lon="-1.79272">
        <ele>3.5</ele>
        <time>2020-06-03T13:21:52Z</time>
      </trkpt>
      <trkpt lat="46.51149" lon="-1.79269">
        <ele>3.5</ele>
        <time>2020-06-03T13:21:53Z</time>
      </trkpt>
      <trkpt lat="46.51154" lon="-1.79265">
        <ele>3.5</ele>
        <time>2020-06-03T13:21:54Z</time>
      </trkpt>
      <trkpt lat="46.51159" lon="-1.79262">
        <ele>3.5</ele>
        <time>2020-06-03T13:21:55Z</time>
      </trkpt>
      <trkpt lat="46.51164" lon="-1.79258">
        <ele>3.5</ele>
        <time>2020-06-03T13:21:56Z</time>
      </trkpt>
      <trkpt lat="46.51169" lon="-1.79255">
        <ele>3.5</ele>
        <time>2020-06-03T13:21:57Z</time>
      </trkpt>
      <trkpt lat="46.51175" lon="-1.79252">
        <ele>3.5</ele>
        <time>2020-06-03T13:21:58Z</time>
      </trkpt>
      <trkpt lat="46.5118" lon="-1.79249">
        <ele>3.5</ele>
        <time>2020-06-03T13:21:59Z</time>
      </trkpt>
      <trkpt lat="46.51186" lon="-1.79246">
        <ele>3.5</ele>
        <time>2020-06-03T13:22:00Z</time>
      </trkpt>
      <trkpt lat="46.51191" lon="-1.79243">
        <ele>3.5</ele>
        <time>2020-06-03T13:22:01Z</time>
      </trkpt>
      <trkpt lat="46.51196" lon="-1.7924">
        <ele>3.5</ele>
        <time>2020-06-03T13:22:02Z</time>
      </trkpt>
      <trkpt lat="46.512" lon="-1.79236">
        <ele>3.5</ele>
        <time>2020-06-03T13:22:03Z</time>
      </trkpt>
      <trkpt lat="46.51206" lon="-1.79233">
        <ele>3.5</ele>
        <time>2020-06-03T13:22:04Z</time>
      </trkpt>
      <trkpt lat="46.51212" lon="-1.7923">
        <ele>3.5</ele>
        <time>2020-06-03T13:22:05Z</time>
      </trkpt>
      <trkpt lat="46.51218" lon="-1.79227">
        <ele>3.5</ele>
        <time>2020-06-03T13:22:06Z</time>
      </trkpt>
      <trkpt lat="46.51223" lon="-1.79225">
        <ele>3.6</ele>
        <time>2020-06-03T13:22:07Z</time>
      </trkpt>
      <trkpt lat="46.51228" lon="-1.79223">
        <ele>3.6</ele>
        <time>2020-06-03T13:22:08Z</time>
      </trkpt>
      <trkpt lat="46.51232" lon="-1.7922">
        <ele>3.6</ele>
        <time>2020-06-03T13:22:09Z</time>
      </trkpt>
      <trkpt lat="46.51238" lon="-1.79216">
        <ele>3.6</ele>
        <time>2020-06-03T13:22:10Z</time>
      </trkpt>
      <trkpt lat="46.51243" lon="-1.79214">
        <ele>3.6</ele>
        <time>2020-06-03T13:22:11Z</time>
      </trkpt>
      <trkpt lat="46.51248" lon="-1.79211">
        <ele>3.7</ele>
        <time>2020-06-03T13:22:12Z</time>
      </trkpt>
      <trkpt lat="46.51253" lon="-1.79208">
        <ele>3.7</ele>
        <time>2020-06-03T13:22:13Z</time>
      </trkpt>
      <trkpt lat="46.51259" lon="-1.79205">
        <ele>3.7</ele>
        <time>2020-06-03T13:22:14Z</time>
      </trkpt>
      <trkpt lat="46.51264" lon="-1.79202">
        <ele>3.7</ele>
        <time>2020-06-03T13:22:15Z</time>
      </trkpt>
      <trkpt lat="46.51269" lon="-1.79199">
        <ele>3.7</ele>
        <time>2020-06-03T13:22:16Z</time>
      </trkpt>
      <trkpt lat="46.51275" lon="-1.79196">
        <ele>3.8</ele>
        <time>2020-06-03T13:22:17Z</time>
      </trkpt>
      <trkpt lat="46.51277" lon="-1.79192">
        <ele>3.8</ele>
        <time>2020-06-03T13:22:18Z</time>
      </trkpt>
      <trkpt lat="46.51282" lon="-1.79189">
        <ele>3.8</ele>
        <time>2020-06-03T13:22:19Z</time>
      </trkpt>
      <trkpt lat="46.51286" lon="-1.79184">
        <ele>3.9</ele>
        <time>2020-06-03T13:22:20Z</time>
      </trkpt>
      <trkpt lat="46.5129" lon="-1.7918">
        <ele>3.9</ele>
        <time>2020-06-03T13:22:21Z</time>
      </trkpt>
      <trkpt lat="46.51295" lon="-1.79177">
        <ele>4</ele>
        <time>2020-06-03T13:22:22Z</time>
      </trkpt>
      <trkpt lat="46.513" lon="-1.79173">
        <ele>4</ele>
        <time>2020-06-03T13:22:23Z</time>
      </trkpt>
      <trkpt lat="46.51304" lon="-1.79169">
        <ele>4.1</ele>
        <time>2020-06-03T13:22:24Z</time>
      </trkpt>
      <trkpt lat="46.51309" lon="-1.79165">
        <ele>4.1</ele>
        <time>2020-06-03T13:22:25Z</time>
      </trkpt>
      <trkpt lat="46.51313" lon="-1.79161">
        <ele>4.2</ele>
        <time>2020-06-03T13:22:26Z</time>
      </trkpt>
      <trkpt lat="46.51317" lon="-1.79158">
        <ele>4.2</ele>
        <time>2020-06-03T13:22:27Z</time>
      </trkpt>
      <trkpt lat="46.51321" lon="-1.79155">
        <ele>4.2</ele>
        <time>2020-06-03T13:22:28Z</time>
      </trkpt>
      <trkpt lat="46.51325" lon="-1.79152">
        <ele>4.2</ele>
        <time>2020-06-03T13:22:29Z</time>
      </trkpt>
      <trkpt lat="46.5133" lon="-1.79147">
        <ele>4.2</ele>
        <time>2020-06-03T13:22:30Z</time>
      </trkpt>
      <trkpt lat="46.51332" lon="-1.79143">
        <ele>4.3</ele>
        <time>2020-06-03T13:22:31Z</time>
      </trkpt>
      <trkpt lat="46.51335" lon="-1.79139">
        <ele>4.3</ele>
        <time>2020-06-03T13:22:32Z</time>
      </trkpt>
      <trkpt lat="46.51339" lon="-1.79134">
        <ele>4.3</ele>
        <time>2020-06-03T13:22:33Z</time>
      </trkpt>
      <trkpt lat="46.51342" lon="-1.79131">
        <ele>4.3</ele>
        <time>2020-06-03T13:22:34Z</time>
      </trkpt>
      <trkpt lat="46.51344" lon="-1.79126">
        <ele>4.4</ele>
        <time>2020-06-03T13:22:35Z</time>
      </trkpt>
      <trkpt lat="46.51347" lon="-1.79123">
        <ele>4.4</ele>
        <time>2020-06-03T13:22:36Z</time>
      </trkpt>
      <trkpt lat="46.5135" lon="-1.79118">
        <ele>4.4</ele>
        <time>2020-06-03T13:22:37Z</time>
      </trkpt>
      <trkpt lat="46.51354" lon="-1.79113">
        <ele>4.5</ele>
        <time>2020-06-03T13:22:38Z</time>
      </trkpt>
      <trkpt lat="46.51357" lon="-1.79108">
        <ele>4.6</ele>
        <time>2020-06-03T13:22:39Z</time>
      </trkpt>
      <trkpt lat="46.51361" lon="-1.79103">
        <ele>4.7</ele>
        <time>2020-06-03T13:22:40Z</time>
      </trkpt>
      <trkpt lat="46.51364" lon="-1.79098">
        <ele>4.9</ele>
        <time>2020-06-03T13:22:41Z</time>
      </trkpt>
      <trkpt lat="46.51367" lon="-1.79095">
        <ele>4.9</ele>
        <time>2020-06-03T13:22:42Z</time>
      </trkpt>
      <trkpt lat="46.5137" lon="-1.79092">
        <ele>5</ele>
        <time>2020-06-03T13:22:43Z</time>
      </trkpt>
      <trkpt lat="46.51372" lon="-1.79087">
        <ele>5.1</ele>
        <time>2020-06-03T13:22:44Z</time>
      </trkpt>
      <trkpt lat="46.51373" lon="-1.79082">
        <ele>5.1</ele>
        <time>2020-06-03T13:22:45Z</time>
      </trkpt>
      <trkpt lat="46.51375" lon="-1.79078">
        <ele>5.1</ele>
        <time>2020-06-03T13:22:46Z</time>
      </trkpt>
      <trkpt lat="46.51377" lon="-1.79072">
        <ele>5.1</ele>
        <time>2020-06-03T13:22:47Z</time>
      </trkpt>
      <trkpt lat="46.51378" lon="-1.79067">
        <ele>5.2</ele>
        <time>2020-06-03T13:22:48Z</time>
      </trkpt>
      <trkpt lat="46.51381" lon="-1.79063">
        <ele>5.2</ele>
        <time>2020-06-03T13:22:49Z</time>
      </trkpt>
      <trkpt lat="46.51384" lon="-1.79058">
        <ele>5.2</ele>
        <time>2020-06-03T13:22:50Z</time>
      </trkpt>
      <trkpt lat="46.51387" lon="-1.79054">
        <ele>5.3</ele>
        <time>2020-06-03T13:22:51Z</time>
      </trkpt>
      <trkpt lat="46.51389" lon="-1.79051">
        <ele>5.3</ele>
        <time>2020-06-03T13:22:52Z</time>
      </trkpt>
      <trkpt lat="46.5139" lon="-1.79047">
        <ele>5.3</ele>
        <time>2020-06-03T13:22:53Z</time>
      </trkpt>
      <trkpt lat="46.51391" lon="-1.79042">
        <ele>5.4</ele>
        <time>2020-06-03T13:22:54Z</time>
      </trkpt>
      <trkpt lat="46.51391" lon="-1.7904">
        <ele>5.4</ele>
        <time>2020-06-03T13:22:55Z</time>
      </trkpt>
      <trkpt lat="46.51392" lon="-1.79037">
        <ele>5.4</ele>
        <time>2020-06-03T13:22:56Z</time>
      </trkpt>
      <trkpt lat="46.51391" lon="-1.79035">
        <ele>5.4</ele>
        <time>2020-06-03T13:22:57Z</time>
      </trkpt>
      <trkpt lat="46.51392" lon="-1.79032">
        <ele>5.4</ele>
        <time>2020-06-03T13:22:58Z</time>
      </trkpt>
      <trkpt lat="46.51391" lon="-1.7903">
        <ele>5.4</ele>
        <time>2020-06-03T13:22:59Z</time>
      </trkpt>
      <trkpt lat="46.51389" lon="-1.79027">
        <ele>5.6</ele>
        <time>2020-06-03T13:23:00Z</time>
      </trkpt>
      <trkpt lat="46.51387" lon="-1.79024">
        <ele>5.6</ele>
        <time>2020-06-03T13:23:01Z</time>
      </trkpt>
      <trkpt lat="46.51385" lon="-1.79018">
        <ele>5.5</ele>
        <time>2020-06-03T13:23:02Z</time>
      </trkpt>
      <trkpt lat="46.51384" lon="-1.79016">
        <ele>5.5</ele>
        <time>2020-06-03T13:23:03Z</time>
      </trkpt>
      <trkpt lat="46.51382" lon="-1.79013">
        <ele>5.5</ele>
        <time>2020-06-03T13:23:04Z</time>
      </trkpt>
      <trkpt lat="46.51379" lon="-1.7901">
        <ele>5.5</ele>
        <time>2020-06-03T13:23:05Z</time>
      </trkpt>
      <trkpt lat="46.51377" lon="-1.79008">
        <ele>5.5</ele>
        <time>2020-06-03T13:23:06Z</time>
      </trkpt>
      <trkpt lat="46.51377" lon="-1.79006">
        <ele>5.4</ele>
        <time>2020-06-03T13:23:07Z</time>
      </trkpt>
      <trkpt lat="46.51377" lon="-1.79003">
        <ele>5.4</ele>
        <time>2020-06-03T13:23:08Z</time>
      </trkpt>
      <trkpt lat="46.51376" lon="-1.79001">
        <ele>5.4</ele>
        <time>2020-06-03T13:23:09Z</time>
      </trkpt>
      <trkpt lat="46.51375" lon="-1.79">
        <ele>5.3</ele>
        <time>2020-06-03T13:23:10Z</time>
      </trkpt>
      <trkpt lat="46.51376" lon="-1.78999">
        <ele>5.3</ele>
        <time>2020-06-03T13:23:11Z</time>
      </trkpt>
      <trkpt lat="46.51377" lon="-1.78997">
        <ele>5.3</ele>
        <time>2020-06-03T13:23:12Z</time>
      </trkpt>
      <trkpt lat="46.5138" lon="-1.78995">
        <ele>5.2</ele>
        <time>2020-06-03T13:23:13Z</time>
      </trkpt>
      <trkpt lat="46.51381" lon="-1.78994">
        <ele>5.2</ele>
        <time>2020-06-03T13:23:14Z</time>
      </trkpt>
      <trkpt lat="46.51384" lon="-1.78991">
        <ele>5.3</ele>
        <time>2020-06-03T13:23:15Z</time>
      </trkpt>
      <trkpt lat="46.51386" lon="-1.78988">
        <ele>5.3</ele>
        <time>2020-06-03T13:23:16Z</time>
      </trkpt>
      <trkpt lat="46.51388" lon="-1.78983">
        <ele>5.3</ele>
        <time>2020-06-03T13:23:17Z</time>
      </trkpt>
      <trkpt lat="46.5139" lon="-1.78978">
        <ele>5.4</ele>
        <time>2020-06-03T13:23:18Z</time>
      </trkpt>
      <trkpt lat="46.51392" lon="-1.78972">
        <ele>5.4</ele>
        <time>2020-06-03T13:23:19Z</time>
      </trkpt>
      <trkpt lat="46.51394" lon="-1.78967">
        <ele>5.5</ele>
        <time>2020-06-03T13:23:20Z</time>
      </trkpt>
      <trkpt lat="46.51396" lon="-1.78961">
        <ele>5.6</ele>
        <time>2020-06-03T13:23:21Z</time>
      </trkpt>
      <trkpt lat="46.51399" lon="-1.78956">
        <ele>5.6</ele>
        <time>2020-06-03T13:23:22Z</time>
      </trkpt>
      <trkpt lat="46.51402" lon="-1.7895">
        <ele>5.7</ele>
        <time>2020-06-03T13:23:23Z</time>
      </trkpt>
      <trkpt lat="46.51404" lon="-1.78944">
        <ele>5.7</ele>
        <time>2020-06-03T13:23:24Z</time>
      </trkpt>
      <trkpt lat="46.51405" lon="-1.78937">
        <ele>5.7</ele>
        <time>2020-06-03T13:23:25Z</time>
      </trkpt>
      <trkpt lat="46.51407" lon="-1.78932">
        <ele>5.8</ele>
        <time>2020-06-03T13:23:26Z</time>
      </trkpt>
      <trkpt lat="46.51408" lon="-1.78926">
        <ele>5.8</ele>
        <time>2020-06-03T13:23:27Z</time>
      </trkpt>
      <trkpt lat="46.51409" lon="-1.7892">
        <ele>5.8</ele>
        <time>2020-06-03T13:23:28Z</time>
      </trkpt>
      <trkpt lat="46.51409" lon="-1.78915">
        <ele>5.8</ele>
        <time>2020-06-03T13:23:29Z</time>
      </trkpt>
      <trkpt lat="46.5141" lon="-1.78911">
        <ele>5.9</ele>
        <time>2020-06-03T13:23:30Z</time>
      </trkpt>
      <trkpt lat="46.51411" lon="-1.78906">
        <ele>5.9</ele>
        <time>2020-06-03T13:23:31Z</time>
      </trkpt>
      <trkpt lat="46.51412" lon="-1.78901">
        <ele>5.9</ele>
        <time>2020-06-03T13:23:32Z</time>
      </trkpt>
      <trkpt lat="46.51412" lon="-1.78897">
        <ele>5.9</ele>
        <time>2020-06-03T13:23:33Z</time>
      </trkpt>
      <trkpt lat="46.51413" lon="-1.78892">
        <ele>6</ele>
        <time>2020-06-03T13:23:34Z</time>
      </trkpt>
      <trkpt lat="46.51412" lon="-1.78885">
        <ele>6</ele>
        <time>2020-06-03T13:23:35Z</time>
      </trkpt>
      <trkpt lat="46.51413" lon="-1.7888">
        <ele>6</ele>
        <time>2020-06-03T13:23:36Z</time>
      </trkpt>
      <trkpt lat="46.51413" lon="-1.78875">
        <ele>6.1</ele>
        <time>2020-06-03T13:23:37Z</time>
      </trkpt>
      <trkpt lat="46.51412" lon="-1.7887">
        <ele>6.1</ele>
        <time>2020-06-03T13:23:38Z</time>
      </trkpt>
      <trkpt lat="46.51411" lon="-1.78865">
        <ele>6.1</ele>
        <time>2020-06-03T13:23:39Z</time>
      </trkpt>
      <trkpt lat="46.5141" lon="-1.78861">
        <ele>6.1</ele>
        <time>2020-06-03T13:23:40Z</time>
      </trkpt>
      <trkpt lat="46.51408" lon="-1.78855">
        <ele>6.2</ele>
        <time>2020-06-03T13:23:41Z</time>
      </trkpt>
      <trkpt lat="46.51408" lon="-1.78852">
        <ele>6.2</ele>
        <time>2020-06-03T13:23:42Z</time>
      </trkpt>
      <trkpt lat="46.51407" lon="-1.78851">
        <ele>6.2</ele>
        <time>2020-06-03T13:23:43Z</time>
      </trkpt>
      <trkpt lat="46.51405" lon="-1.78852">
        <ele>6.2</ele>
        <time>2020-06-03T13:23:44Z</time>
      </trkpt>
      <trkpt lat="46.51402" lon="-1.78852">
        <ele>6.2</ele>
        <time>2020-06-03T13:23:45Z</time>
      </trkpt>
      <trkpt lat="46.51399" lon="-1.78851">
        <ele>6.3</ele>
        <time>2020-06-03T13:23:46Z</time>
      </trkpt>
      <trkpt lat="46.51396" lon="-1.78849">
        <ele>6.3</ele>
        <time>2020-06-03T13:23:47Z</time>
      </trkpt>
      <trkpt lat="46.51395" lon="-1.78848">
        <ele>6.3</ele>
        <time>2020-06-03T13:23:48Z</time>
      </trkpt>
      <trkpt lat="46.51394" lon="-1.78847">
        <ele>6.3</ele>
        <time>2020-06-03T13:23:49Z</time>
      </trkpt>
      <trkpt lat="46.51392" lon="-1.78846">
        <ele>6.3</ele>
        <time>2020-06-03T13:23:50Z</time>
      </trkpt>
      <trkpt lat="46.51391" lon="-1.78844">
        <ele>6.3</ele>
        <time>2020-06-03T13:23:51Z</time>
      </trkpt>
      <trkpt lat="46.5139" lon="-1.78845">
        <ele>6.3</ele>
        <time>2020-06-03T13:23:52Z</time>
      </trkpt>
      <trkpt lat="46.51388" lon="-1.78844">
        <ele>6.3</ele>
        <time>2020-06-03T13:23:53Z</time>
      </trkpt>
      <trkpt lat="46.51387" lon="-1.78844">
        <ele>6.3</ele>
        <time>2020-06-03T13:23:54Z</time>
      </trkpt>
      <trkpt lat="46.51386" lon="-1.78843">
        <ele>6.3</ele>
        <time>2020-06-03T13:23:55Z</time>
      </trkpt>
      <trkpt lat="46.51386" lon="-1.78842">
        <ele>6.3</ele>
        <time>2020-06-03T13:23:56Z</time>
      </trkpt>
      <trkpt lat="46.51385" lon="-1.78843">
        <ele>6.3</ele>
        <time>2020-06-03T13:23:57Z</time>
      </trkpt>
      <trkpt lat="46.51384" lon="-1.78842">
        <ele>6.3</ele>
        <time>2020-06-03T13:23:58Z</time>
      </trkpt>
      <trkpt lat="46.51384" lon="-1.78841">
        <ele>6.3</ele>
        <time>2020-06-03T13:23:59Z</time>
      </trkpt>
      <trkpt lat="46.51384" lon="-1.78841">
        <ele>6.3</ele>
        <time>2020-06-03T13:24:00Z</time>
      </trkpt>
      <trkpt lat="46.51384" lon="-1.7884">
        <ele>6.3</ele>
        <time>2020-06-03T13:24:01Z</time>
      </trkpt>
      <trkpt lat="46.51384" lon="-1.78841">
        <ele>6.3</ele>
        <time>2020-06-03T13:24:02Z</time>
      </trkpt>
      <trkpt lat="46.51384" lon="-1.78841">
        <ele>6.3</ele>
        <time>2020-06-03T13:24:03Z</time>
      </trkpt>
      <trkpt lat="46.51383" lon="-1.78842">
        <ele>6.3</ele>
        <time>2020-06-03T13:24:04Z</time>
      </trkpt>
      <trkpt lat="46.51383" lon="-1.78841">
        <ele>6.3</ele>
        <time>2020-06-03T13:24:05Z</time>
      </trkpt>
      <trkpt lat="46.51383" lon="-1.78839">
        <ele>6.3</ele>
        <time>2020-06-03T13:24:06Z</time>
      </trkpt>
      <trkpt lat="46.51383" lon="-1.78838">
        <ele>6.3</ele>
        <time>2020-06-03T13:24:07Z</time>
      </trkpt>
      <trkpt lat="46.51385" lon="-1.78835">
        <ele>6.3</ele>
        <time>2020-06-03T13:24:11Z</time>
      </trkpt>
      <trkpt lat="46.51386" lon="-1.78834">
        <ele>6.3</ele>
        <time>2020-06-03T13:24:12Z</time>
      </trkpt>
      <trkpt lat="46.51386" lon="-1.78834">
        <ele>6.3</ele>
        <time>2020-06-03T13:24:13Z</time>
      </trkpt>
      <trkpt lat="46.51386" lon="-1.78834">
        <ele>6.3</ele>
        <time>2020-06-03T13:24:14Z</time>
      </trkpt>
      <trkpt lat="46.51386" lon="-1.78834">
        <ele>6.3</ele>
        <time>2020-06-03T13:24:15Z</time>
      </trkpt>
      <trkpt lat="46.51386" lon="-1.78834">
        <ele>6.3</ele>
        <time>2020-06-03T13:24:16Z</time>
      </trkpt>
      <trkpt lat="46.51386" lon="-1.78833">
        <ele>6.3</ele>
        <time>2020-06-03T13:24:17Z</time>
      </trkpt>
      <trkpt lat="46.51387" lon="-1.78832">
        <ele>6.3</ele>
        <time>2020-06-03T13:24:18Z</time>
      </trkpt>
      <trkpt lat="46.51387" lon="-1.78832">
        <ele>6.3</ele>
        <time>2020-06-03T13:24:19Z</time>
      </trkpt>
      <trkpt lat="46.51387" lon="-1.78831">
        <ele>6.3</ele>
        <time>2020-06-03T13:24:20Z</time>
      </trkpt>
      <trkpt lat="46.51387" lon="-1.7883">
        <ele>6.3</ele>
        <time>2020-06-03T13:24:21Z</time>
      </trkpt>
      <trkpt lat="46.51386" lon="-1.78829">
        <ele>6.3</ele>
        <time>2020-06-03T13:24:22Z</time>
      </trkpt>
      <trkpt lat="46.51386" lon="-1.78828">
        <ele>6.3</ele>
        <time>2020-06-03T13:24:23Z</time>
      </trkpt>
      <trkpt lat="46.51385" lon="-1.78826">
        <ele>6.3</ele>
        <time>2020-06-03T13:24:24Z</time>
      </trkpt>
      <trkpt lat="46.51385" lon="-1.78826">
        <ele>6.3</ele>
        <time>2020-06-03T13:24:25Z</time>
      </trkpt>
      <trkpt lat="46.51385" lon="-1.78825">
        <ele>6.3</ele>
        <time>2020-06-03T13:24:26Z</time>
      </trkpt>
      <trkpt lat="46.51385" lon="-1.78825">
        <ele>6.3</ele>
        <time>2020-06-03T13:24:27Z</time>
      </trkpt>
      <trkpt lat="46.51385" lon="-1.78825">
        <ele>6.3</ele>
        <time>2020-06-03T13:24:28Z</time>
      </trkpt>
      <trkpt lat="46.51385" lon="-1.78825">
        <ele>6.3</ele>
        <time>2020-06-03T13:24:29Z</time>
      </trkpt>
      <trkpt lat="46.51385" lon="-1.78825">
        <ele>6.3</ele>
        <time>2020-06-03T13:24:30Z</time>
      </trkpt>
      <trkpt lat="46.51385" lon="-1.78825">
        <ele>6.3</ele>
        <time>2020-06-03T13:24:31Z</time>
      </trkpt>
      <trkpt lat="46.51385" lon="-1.78825">
        <ele>6.3</ele>
        <time>2020-06-03T13:24:32Z</time>
      </trkpt>
      <trkpt lat="46.51385" lon="-1.78825">
        <ele>6.3</ele>
        <time>2020-06-03T13:24:33Z</time>
      </trkpt>
      <trkpt lat="46.51385" lon="-1.78825">
        <ele>6.3</ele>
        <time>2020-06-03T13:24:34Z</time>
      </trkpt>
      <trkpt lat="46.51385" lon="-1.78825">
        <ele>6.3</ele>
        <time>2020-06-03T13:24:35Z</time>
      </trkpt>
      <trkpt lat="46.51384" lon="-1.78832">
        <ele>6.3</ele>
        <time>2020-06-03T13:55:12Z</time>
      </trkpt>
      <trkpt lat="46.51385" lon="-1.78833">
        <ele>6.3</ele>
        <time>2020-06-03T13:55:13Z</time>
      </trkpt>
      <trkpt lat="46.51377" lon="-1.78838">
        <ele>6.3</ele>
        <time>2020-06-03T13:55:17Z</time>
      </trkpt>
      <trkpt lat="46.51383" lon="-1.78836">
        <ele>6.3</ele>
        <time>2020-06-03T13:55:18Z</time>
      </trkpt>
      <trkpt lat="46.51393" lon="-1.78832">
        <ele>6.3</ele>
        <time>2020-06-03T13:55:19Z</time>
      </trkpt>
      <trkpt lat="46.51396" lon="-1.78831">
        <ele>6.3</ele>
        <time>2020-06-03T13:55:20Z</time>
      </trkpt>
      <trkpt lat="46.51399" lon="-1.78832">
        <ele>6.3</ele>
        <time>2020-06-03T13:55:22Z</time>
      </trkpt>
      <trkpt lat="46.51402" lon="-1.78836">
        <ele>6.3</ele>
        <time>2020-06-03T13:56:21Z</time>
      </trkpt>
      <trkpt lat="46.51401" lon="-1.78836">
        <ele>6.3</ele>
        <time>2020-06-03T13:56:22Z</time>
      </trkpt>
      <trkpt lat="46.51401" lon="-1.78836">
        <ele>6.3</ele>
        <time>2020-06-03T13:56:23Z</time>
      </trkpt>
      <trkpt lat="46.51401" lon="-1.78837">
        <ele>6.3</ele>
        <time>2020-06-03T13:56:24Z</time>
      </trkpt>
      <trkpt lat="46.51401" lon="-1.7884">
        <ele>6.3</ele>
        <time>2020-06-03T13:56:25Z</time>
      </trkpt>
      <trkpt lat="46.51401" lon="-1.78841">
        <ele>6.3</ele>
        <time>2020-06-03T13:56:26Z</time>
      </trkpt>
      <trkpt lat="46.51402" lon="-1.78842">
        <ele>6.3</ele>
        <time>2020-06-03T13:56:27Z</time>
      </trkpt>
      <trkpt lat="46.51403" lon="-1.78845">
        <ele>6.3</ele>
        <time>2020-06-03T13:56:28Z</time>
      </trkpt>
      <trkpt lat="46.51404" lon="-1.7885">
        <ele>6.3</ele>
        <time>2020-06-03T13:56:29Z</time>
      </trkpt>
      <trkpt lat="46.51405" lon="-1.78853">
        <ele>6.3</ele>
        <time>2020-06-03T13:56:30Z</time>
      </trkpt>
      <trkpt lat="46.51405" lon="-1.78854">
        <ele>6.3</ele>
        <time>2020-06-03T13:56:31Z</time>
      </trkpt>
      <trkpt lat="46.51406" lon="-1.78854">
        <ele>6.3</ele>
        <time>2020-06-03T13:56:32Z</time>
      </trkpt>
      <trkpt lat="46.51407" lon="-1.78856">
        <ele>6.3</ele>
        <time>2020-06-03T13:56:33Z</time>
      </trkpt>
      <trkpt lat="46.51408" lon="-1.78856">
        <ele>6.3</ele>
        <time>2020-06-03T13:56:34Z</time>
      </trkpt>
      <trkpt lat="46.51409" lon="-1.78857">
        <ele>6.3</ele>
        <time>2020-06-03T13:56:35Z</time>
      </trkpt>
      <trkpt lat="46.5141" lon="-1.78858">
        <ele>6.3</ele>
        <time>2020-06-03T13:56:36Z</time>
      </trkpt>
      <trkpt lat="46.51409" lon="-1.78857">
        <ele>6.3</ele>
        <time>2020-06-03T13:56:37Z</time>
      </trkpt>
      <trkpt lat="46.5141" lon="-1.78858">
        <ele>6.3</ele>
        <time>2020-06-03T13:56:38Z</time>
      </trkpt>
      <trkpt lat="46.5141" lon="-1.78858">
        <ele>6.3</ele>
        <time>2020-06-03T13:56:39Z</time>
      </trkpt>
      <trkpt lat="46.5141" lon="-1.78858">
        <ele>6.3</ele>
        <time>2020-06-03T13:56:40Z</time>
      </trkpt>
      <trkpt lat="46.5141" lon="-1.78858">
        <ele>6.3</ele>
        <time>2020-06-03T13:56:41Z</time>
      </trkpt>
      <trkpt lat="46.5141" lon="-1.78857">
        <ele>6.3</ele>
        <time>2020-06-03T13:56:42Z</time>
      </trkpt>
      <trkpt lat="46.5141" lon="-1.78856">
        <ele>6.3</ele>
        <time>2020-06-03T13:56:43Z</time>
      </trkpt>
      <trkpt lat="46.5141" lon="-1.78857">
        <ele>6.3</ele>
        <time>2020-06-03T13:56:44Z</time>
      </trkpt>
      <trkpt lat="46.5141" lon="-1.78857">
        <ele>6.3</ele>
        <time>2020-06-03T13:56:45Z</time>
      </trkpt>
      <trkpt lat="46.5141" lon="-1.78857">
        <ele>6.3</ele>
        <time>2020-06-03T13:56:46Z</time>
      </trkpt>
      <trkpt lat="46.5141" lon="-1.78857">
        <ele>6.3</ele>
        <time>2020-06-03T13:56:47Z</time>
      </trkpt>
      <trkpt lat="46.51409" lon="-1.78864">
        <ele>6.2</ele>
        <time>2020-06-03T13:58:17Z</time>
      </trkpt>
      <trkpt lat="46.5141" lon="-1.78866">
        <ele>6.2</ele>
        <time>2020-06-03T13:58:18Z</time>
      </trkpt>
      <trkpt lat="46.51411" lon="-1.7887">
        <ele>6.2</ele>
        <time>2020-06-03T13:58:19Z</time>
      </trkpt>
      <trkpt lat="46.51411" lon="-1.78872">
        <ele>6.2</ele>
        <time>2020-06-03T13:58:20Z</time>
      </trkpt>
      <trkpt lat="46.51412" lon="-1.78876">
        <ele>6.1</ele>
        <time>2020-06-03T13:58:21Z</time>
      </trkpt>
      <trkpt lat="46.51412" lon="-1.78877">
        <ele>6.1</ele>
        <time>2020-06-03T13:58:22Z</time>
      </trkpt>
      <trkpt lat="46.51413" lon="-1.78882">
        <ele>6.1</ele>
        <time>2020-06-03T13:58:23Z</time>
      </trkpt>
      <trkpt lat="46.51413" lon="-1.78884">
        <ele>6.1</ele>
        <time>2020-06-03T13:58:24Z</time>
      </trkpt>
      <trkpt lat="46.51413" lon="-1.78889">
        <ele>6.1</ele>
        <time>2020-06-03T13:58:25Z</time>
      </trkpt>
      <trkpt lat="46.51413" lon="-1.7889">
        <ele>6</ele>
        <time>2020-06-03T13:58:26Z</time>
      </trkpt>
      <trkpt lat="46.51413" lon="-1.78895">
        <ele>6</ele>
        <time>2020-06-03T13:58:27Z</time>
      </trkpt>
      <trkpt lat="46.51413" lon="-1.78897">
        <ele>6</ele>
        <time>2020-06-03T13:58:28Z</time>
      </trkpt>
      <trkpt lat="46.51412" lon="-1.78901">
        <ele>6</ele>
        <time>2020-06-03T13:58:29Z</time>
      </trkpt>
      <trkpt lat="46.51412" lon="-1.78903">
        <ele>6</ele>
        <time>2020-06-03T13:58:30Z</time>
      </trkpt>
      <trkpt lat="46.51411" lon="-1.78908">
        <ele>5.9</ele>
        <time>2020-06-03T13:58:31Z</time>
      </trkpt>
      <trkpt lat="46.51411" lon="-1.78909">
        <ele>5.9</ele>
        <time>2020-06-03T13:58:32Z</time>
      </trkpt>
      <trkpt lat="46.51409" lon="-1.78914">
        <ele>5.9</ele>
        <time>2020-06-03T13:58:33Z</time>
      </trkpt>
      <trkpt lat="46.51408" lon="-1.78916">
        <ele>5.9</ele>
        <time>2020-06-03T13:58:34Z</time>
      </trkpt>
      <trkpt lat="46.51407" lon="-1.78921">
        <ele>5.8</ele>
        <time>2020-06-03T13:58:35Z</time>
      </trkpt>
      <trkpt lat="46.51407" lon="-1.78923">
        <ele>5.8</ele>
        <time>2020-06-03T13:58:36Z</time>
      </trkpt>
      <trkpt lat="46.51407" lon="-1.78928">
        <ele>5.8</ele>
        <time>2020-06-03T13:58:37Z</time>
      </trkpt>
      <trkpt lat="46.51405" lon="-1.78933">
        <ele>5.8</ele>
        <time>2020-06-03T13:58:38Z</time>
      </trkpt>
      <trkpt lat="46.51405" lon="-1.78935">
        <ele>5.8</ele>
        <time>2020-06-03T13:58:39Z</time>
      </trkpt>
      <trkpt lat="46.51404" lon="-1.7894">
        <ele>5.8</ele>
        <time>2020-06-03T13:58:40Z</time>
      </trkpt>
      <trkpt lat="46.51404" lon="-1.78943">
        <ele>5.7</ele>
        <time>2020-06-03T13:58:41Z</time>
      </trkpt>
      <trkpt lat="46.51403" lon="-1.78948">
        <ele>5.7</ele>
        <time>2020-06-03T13:58:42Z</time>
      </trkpt>
      <trkpt lat="46.51401" lon="-1.78952">
        <ele>5.7</ele>
        <time>2020-06-03T13:58:43Z</time>
      </trkpt>
      <trkpt lat="46.514" lon="-1.78956">
        <ele>5.6</ele>
        <time>2020-06-03T13:58:44Z</time>
      </trkpt>
      <trkpt lat="46.51399" lon="-1.78958">
        <ele>5.6</ele>
        <time>2020-06-03T13:58:45Z</time>
      </trkpt>
      <trkpt lat="46.51398" lon="-1.78962">
        <ele>5.6</ele>
        <time>2020-06-03T13:58:46Z</time>
      </trkpt>
      <trkpt lat="46.51397" lon="-1.78966">
        <ele>5.5</ele>
        <time>2020-06-03T13:58:47Z</time>
      </trkpt>
      <trkpt lat="46.51396" lon="-1.78971">
        <ele>5.5</ele>
        <time>2020-06-03T13:58:48Z</time>
      </trkpt>
      <trkpt lat="46.51394" lon="-1.78975">
        <ele>5.4</ele>
        <time>2020-06-03T13:58:49Z</time>
      </trkpt>
      <trkpt lat="46.51393" lon="-1.78979">
        <ele>5.4</ele>
        <time>2020-06-03T13:58:50Z</time>
      </trkpt>
      <trkpt lat="46.51391" lon="-1.78983">
        <ele>5.4</ele>
        <time>2020-06-03T13:58:51Z</time>
      </trkpt>
      <trkpt lat="46.51388" lon="-1.78987">
        <ele>5.3</ele>
        <time>2020-06-03T13:58:52Z</time>
      </trkpt>
      <trkpt lat="46.51387" lon="-1.78991">
        <ele>5.3</ele>
        <time>2020-06-03T13:58:53Z</time>
      </trkpt>
      <trkpt lat="46.51384" lon="-1.78994">
        <ele>5.3</ele>
        <time>2020-06-03T13:58:54Z</time>
      </trkpt>
      <trkpt lat="46.51382" lon="-1.78998">
        <ele>5.3</ele>
        <time>2020-06-03T13:58:55Z</time>
      </trkpt>
      <trkpt lat="46.51381" lon="-1.78999">
        <ele>5.2</ele>
        <time>2020-06-03T13:58:56Z</time>
      </trkpt>
      <trkpt lat="46.51378" lon="-1.79001">
        <ele>5.7</ele>
        <time>2020-06-03T13:58:57Z</time>
      </trkpt>
      <trkpt lat="46.51377" lon="-1.79003">
        <ele>5.7</ele>
        <time>2020-06-03T13:58:58Z</time>
      </trkpt>
      <trkpt lat="46.51376" lon="-1.79004">
        <ele>5.7</ele>
        <time>2020-06-03T13:58:59Z</time>
      </trkpt>
      <trkpt lat="46.51376" lon="-1.79007">
        <ele>5.7</ele>
        <time>2020-06-03T13:59:00Z</time>
      </trkpt>
      <trkpt lat="46.51376" lon="-1.79007">
        <ele>5.7</ele>
        <time>2020-06-03T13:59:01Z</time>
      </trkpt>
      <trkpt lat="46.51376" lon="-1.79007">
        <ele>5.7</ele>
        <time>2020-06-03T13:59:02Z</time>
      </trkpt>
      <trkpt lat="46.51377" lon="-1.79008">
        <ele>5.8</ele>
        <time>2020-06-03T13:59:03Z</time>
      </trkpt>
      <trkpt lat="46.51377" lon="-1.79008">
        <ele>5.8</ele>
        <time>2020-06-03T13:59:04Z</time>
      </trkpt>
      <trkpt lat="46.51377" lon="-1.79007">
        <ele>5.8</ele>
        <time>2020-06-03T13:59:05Z</time>
      </trkpt>
      <trkpt lat="46.51377" lon="-1.79005">
        <ele>5.8</ele>
        <time>2020-06-03T13:59:06Z</time>
      </trkpt>
      <trkpt lat="46.51378" lon="-1.79004">
        <ele>5.8</ele>
        <time>2020-06-03T13:59:07Z</time>
      </trkpt>
      <trkpt lat="46.51378" lon="-1.79004">
        <ele>5.8</ele>
        <time>2020-06-03T13:59:08Z</time>
      </trkpt>
      <trkpt lat="46.51378" lon="-1.79004">
        <ele>5.8</ele>
        <time>2020-06-03T13:59:09Z</time>
      </trkpt>
      <trkpt lat="46.51378" lon="-1.79004">
        <ele>5.8</ele>
        <time>2020-06-03T13:59:10Z</time>
      </trkpt>
      <trkpt lat="46.51383" lon="-1.79007">
        <ele>5.8</ele>
        <time>2020-06-03T13:59:18Z</time>
      </trkpt>
      <trkpt lat="46.51384" lon="-1.79007">
        <ele>5.8</ele>
        <time>2020-06-03T13:59:19Z</time>
      </trkpt>
      <trkpt lat="46.51384" lon="-1.79007">
        <ele>5.8</ele>
        <time>2020-06-03T13:59:20Z</time>
      </trkpt>
      <trkpt lat="46.51384" lon="-1.79007">
        <ele>5.8</ele>
        <time>2020-06-03T13:59:21Z</time>
      </trkpt>
      <trkpt lat="46.51384" lon="-1.79007">
        <ele>5.8</ele>
        <time>2020-06-03T13:59:22Z</time>
      </trkpt>
      <trkpt lat="46.51384" lon="-1.79007">
        <ele>5.8</ele>
        <time>2020-06-03T13:59:23Z</time>
      </trkpt>
      <trkpt lat="46.51384" lon="-1.79007">
        <ele>5.8</ele>
        <time>2020-06-03T13:59:24Z</time>
      </trkpt>
      <trkpt lat="46.51384" lon="-1.79007">
        <ele>5.8</ele>
        <time>2020-06-03T13:59:25Z</time>
      </trkpt>
      <trkpt lat="46.51384" lon="-1.79007">
        <ele>5.8</ele>
        <time>2020-06-03T13:59:26Z</time>
      </trkpt>
      <trkpt lat="46.51384" lon="-1.79007">
        <ele>5.8</ele>
        <time>2020-06-03T13:59:27Z</time>
      </trkpt>
      <trkpt lat="46.51384" lon="-1.79007">
        <ele>5.8</ele>
        <time>2020-06-03T13:59:28Z</time>
      </trkpt>
      <trkpt lat="46.51385" lon="-1.79007">
        <ele>5.8</ele>
        <time>2020-06-03T13:59:29Z</time>
      </trkpt>
      <trkpt lat="46.51386" lon="-1.79006">
        <ele>5.8</ele>
        <time>2020-06-03T13:59:30Z</time>
      </trkpt>
      <trkpt lat="46.51388" lon="-1.79004">
        <ele>5.9</ele>
        <time>2020-06-03T13:59:31Z</time>
      </trkpt>
      <trkpt lat="46.5139" lon="-1.79002">
        <ele>6</ele>
        <time>2020-06-03T13:59:32Z</time>
      </trkpt>
      <trkpt lat="46.51392" lon="-1.79">
        <ele>6</ele>
        <time>2020-06-03T13:59:33Z</time>
      </trkpt>
      <trkpt lat="46.51394" lon="-1.78996">
        <ele>6</ele>
        <time>2020-06-03T13:59:34Z</time>
      </trkpt>
      <trkpt lat="46.51398" lon="-1.78991">
        <ele>6.1</ele>
        <time>2020-06-03T13:59:35Z</time>
      </trkpt>
      <trkpt lat="46.51401" lon="-1.78987">
        <ele>6.1</ele>
        <time>2020-06-03T13:59:36Z</time>
      </trkpt>
      <trkpt lat="46.51405" lon="-1.78985">
        <ele>6.1</ele>
        <time>2020-06-03T13:59:37Z</time>
      </trkpt>
      <trkpt lat="46.51408" lon="-1.78983">
        <ele>6.1</ele>
        <time>2020-06-03T13:59:38Z</time>
      </trkpt>
      <trkpt lat="46.51411" lon="-1.78981">
        <ele>6.2</ele>
        <time>2020-06-03T13:59:39Z</time>
      </trkpt>
      <trkpt lat="46.51414" lon="-1.78978">
        <ele>6.2</ele>
        <time>2020-06-03T13:59:40Z</time>
      </trkpt>
      <trkpt lat="46.51419" lon="-1.78975">
        <ele>6.2</ele>
        <time>2020-06-03T13:59:41Z</time>
      </trkpt>
      <trkpt lat="46.51423" lon="-1.78972">
        <ele>6.3</ele>
        <time>2020-06-03T13:59:42Z</time>
      </trkpt>
      <trkpt lat="46.51427" lon="-1.78971">
        <ele>6.3</ele>
        <time>2020-06-03T13:59:43Z</time>
      </trkpt>
      <trkpt lat="46.51431" lon="-1.78971">
        <ele>6.3</ele>
        <time>2020-06-03T13:59:44Z</time>
      </trkpt>
      <trkpt lat="46.51436" lon="-1.78976">
        <ele>6.3</ele>
        <time>2020-06-03T13:59:45Z</time>
      </trkpt>
      <trkpt lat="46.51437" lon="-1.78984">
        <ele>6.3</ele>
        <time>2020-06-03T13:59:46Z</time>
      </trkpt>
      <trkpt lat="46.51439" lon="-1.78991">
        <ele>6.3</ele>
        <time>2020-06-03T13:59:47Z</time>
      </trkpt>
      <trkpt lat="46.5144" lon="-1.78999">
        <ele>6.2</ele>
        <time>2020-06-03T13:59:48Z</time>
      </trkpt>
      <trkpt lat="46.5144" lon="-1.79006">
        <ele>6.2</ele>
        <time>2020-06-03T13:59:49Z</time>
      </trkpt>
      <trkpt lat="46.5144" lon="-1.79013">
        <ele>6.1</ele>
        <time>2020-06-03T13:59:50Z</time>
      </trkpt>
      <trkpt lat="46.5144" lon="-1.7902">
        <ele>6</ele>
        <time>2020-06-03T13:59:51Z</time>
      </trkpt>
      <trkpt lat="46.51442" lon="-1.79027">
        <ele>5.9</ele>
        <time>2020-06-03T13:59:52Z</time>
      </trkpt>
      <trkpt lat="46.51443" lon="-1.79032">
        <ele>5.5</ele>
        <time>2020-06-03T13:59:53Z</time>
      </trkpt>
      <trkpt lat="46.51447" lon="-1.79035">
        <ele>5.4</ele>
        <time>2020-06-03T13:59:54Z</time>
      </trkpt>
      <trkpt lat="46.51451" lon="-1.79034">
        <ele>5.3</ele>
        <time>2020-06-03T13:59:55Z</time>
      </trkpt>
      <trkpt lat="46.51456" lon="-1.79036">
        <ele>5.2</ele>
        <time>2020-06-03T13:59:56Z</time>
      </trkpt>
      <trkpt lat="46.51462" lon="-1.79037">
        <ele>5.1</ele>
        <time>2020-06-03T13:59:57Z</time>
      </trkpt>
      <trkpt lat="46.51467" lon="-1.79038">
        <ele>5.1</ele>
        <time>2020-06-03T13:59:58Z</time>
      </trkpt>
      <trkpt lat="46.51472" lon="-1.79039">
        <ele>5</ele>
        <time>2020-06-03T13:59:59Z</time>
      </trkpt>
      <trkpt lat="46.51477" lon="-1.79041">
        <ele>5</ele>
        <time>2020-06-03T14:00:00Z</time>
      </trkpt>
      <trkpt lat="46.51482" lon="-1.79042">
        <ele>4.9</ele>
        <time>2020-06-03T14:00:01Z</time>
      </trkpt>
      <trkpt lat="46.51489" lon="-1.79045">
        <ele>4.9</ele>
        <time>2020-06-03T14:00:02Z</time>
      </trkpt>
      <trkpt lat="46.51494" lon="-1.79048">
        <ele>4.8</ele>
        <time>2020-06-03T14:00:03Z</time>
      </trkpt>
      <trkpt lat="46.51499" lon="-1.7905">
        <ele>4.8</ele>
        <time>2020-06-03T14:00:04Z</time>
      </trkpt>
      <trkpt lat="46.51504" lon="-1.79052">
        <ele>4.8</ele>
        <time>2020-06-03T14:00:05Z</time>
      </trkpt>
      <trkpt lat="46.51509" lon="-1.79054">
        <ele>4.8</ele>
        <time>2020-06-03T14:00:06Z</time>
      </trkpt>
      <trkpt lat="46.51514" lon="-1.79056">
        <ele>4.7</ele>
        <time>2020-06-03T14:00:07Z</time>
      </trkpt>
      <trkpt lat="46.5152" lon="-1.79059">
        <ele>4.7</ele>
        <time>2020-06-03T14:00:08Z</time>
      </trkpt>
      <trkpt lat="46.51525" lon="-1.7906">
        <ele>4.7</ele>
        <time>2020-06-03T14:00:09Z</time>
      </trkpt>
      <trkpt lat="46.51531" lon="-1.79063">
        <ele>4.7</ele>
        <time>2020-06-03T14:00:10Z</time>
      </trkpt>
      <trkpt lat="46.51536" lon="-1.79065">
        <ele>4.7</ele>
        <time>2020-06-03T14:00:11Z</time>
      </trkpt>
      <trkpt lat="46.51539" lon="-1.79066">
        <ele>4.7</ele>
        <time>2020-06-03T14:00:12Z</time>
      </trkpt>
      <trkpt lat="46.51544" lon="-1.79068">
        <ele>4.7</ele>
        <time>2020-06-03T14:00:13Z</time>
      </trkpt>
      <trkpt lat="46.51549" lon="-1.7907">
        <ele>4.7</ele>
        <time>2020-06-03T14:00:14Z</time>
      </trkpt>
      <trkpt lat="46.51553" lon="-1.79071">
        <ele>4.7</ele>
        <time>2020-06-03T14:00:15Z</time>
      </trkpt>
      <trkpt lat="46.51558" lon="-1.79071">
        <ele>4.7</ele>
        <time>2020-06-03T14:00:16Z</time>
      </trkpt>
      <trkpt lat="46.51563" lon="-1.79071">
        <ele>4.7</ele>
        <time>2020-06-03T14:00:17Z</time>
      </trkpt>
      <trkpt lat="46.51568" lon="-1.79072">
        <ele>4.7</ele>
        <time>2020-06-03T14:00:18Z</time>
      </trkpt>
      <trkpt lat="46.51574" lon="-1.79072">
        <ele>4.7</ele>
        <time>2020-06-03T14:00:19Z</time>
      </trkpt>
      <trkpt lat="46.5158" lon="-1.79071">
        <ele>4.7</ele>
        <time>2020-06-03T14:00:20Z</time>
      </trkpt>
      <trkpt lat="46.51585" lon="-1.79071">
        <ele>4.6</ele>
        <time>2020-06-03T14:00:21Z</time>
      </trkpt>
      <trkpt lat="46.51589" lon="-1.79072">
        <ele>4.6</ele>
        <time>2020-06-03T14:00:22Z</time>
      </trkpt>
      <trkpt lat="46.51595" lon="-1.79073">
        <ele>4.5</ele>
        <time>2020-06-03T14:00:23Z</time>
      </trkpt>
      <trkpt lat="46.51601" lon="-1.79072">
        <ele>4.5</ele>
        <time>2020-06-03T14:00:24Z</time>
      </trkpt>
      <trkpt lat="46.51607" lon="-1.79072">
        <ele>4.5</ele>
        <time>2020-06-03T14:00:25Z</time>
      </trkpt>
      <trkpt lat="46.51612" lon="-1.79071">
        <ele>4.4</ele>
        <time>2020-06-03T14:00:26Z</time>
      </trkpt>
      <trkpt lat="46.51618" lon="-1.79071">
        <ele>4.4</ele>
        <time>2020-06-03T14:00:27Z</time>
      </trkpt>
      <trkpt lat="46.51625" lon="-1.79069">
        <ele>4.4</ele>
        <time>2020-06-03T14:00:28Z</time>
      </trkpt>
      <trkpt lat="46.5163" lon="-1.79068">
        <ele>4.4</ele>
        <time>2020-06-03T14:00:29Z</time>
      </trkpt>
      <trkpt lat="46.51636" lon="-1.79068">
        <ele>4.3</ele>
        <time>2020-06-03T14:00:30Z</time>
      </trkpt>
      <trkpt lat="46.51643" lon="-1.79067">
        <ele>4.3</ele>
        <time>2020-06-03T14:00:31Z</time>
      </trkpt>
      <trkpt lat="46.51648" lon="-1.79066">
        <ele>4.3</ele>
        <time>2020-06-03T14:00:32Z</time>
      </trkpt>
      <trkpt lat="46.51654" lon="-1.79065">
        <ele>4.3</ele>
        <time>2020-06-03T14:00:33Z</time>
      </trkpt>
      <trkpt lat="46.51661" lon="-1.79064">
        <ele>4.3</ele>
        <time>2020-06-03T14:00:34Z</time>
      </trkpt>
      <trkpt lat="46.51667" lon="-1.79064">
        <ele>4.2</ele>
        <time>2020-06-03T14:00:35Z</time>
      </trkpt>
      <trkpt lat="46.51672" lon="-1.79063">
        <ele>4.2</ele>
        <time>2020-06-03T14:00:36Z</time>
      </trkpt>
      <trkpt lat="46.51678" lon="-1.79063">
        <ele>4.2</ele>
        <time>2020-06-03T14:00:37Z</time>
      </trkpt>
      <trkpt lat="46.51685" lon="-1.79062">
        <ele>4.1</ele>
        <time>2020-06-03T14:00:38Z</time>
      </trkpt>
      <trkpt lat="46.5169" lon="-1.79062">
        <ele>4.1</ele>
        <time>2020-06-03T14:00:39Z</time>
      </trkpt>
      <trkpt lat="46.51696" lon="-1.79063">
        <ele>4</ele>
        <time>2020-06-03T14:00:40Z</time>
      </trkpt>
      <trkpt lat="46.51703" lon="-1.79065">
        <ele>4</ele>
        <time>2020-06-03T14:00:41Z</time>
      </trkpt>
      <trkpt lat="46.51709" lon="-1.7907">
        <ele>4</ele>
        <time>2020-06-03T14:00:42Z</time>
      </trkpt>
      <trkpt lat="46.51715" lon="-1.79073">
        <ele>4</ele>
        <time>2020-06-03T14:00:43Z</time>
      </trkpt>
      <trkpt lat="46.5172" lon="-1.79075">
        <ele>4</ele>
        <time>2020-06-03T14:00:44Z</time>
      </trkpt>
      <trkpt lat="46.51726" lon="-1.79077">
        <ele>4.1</ele>
        <time>2020-06-03T14:00:45Z</time>
      </trkpt>
      <trkpt lat="46.51732" lon="-1.7908">
        <ele>4.1</ele>
        <time>2020-06-03T14:00:46Z</time>
      </trkpt>
      <trkpt lat="46.51737" lon="-1.79083">
        <ele>4.1</ele>
        <time>2020-06-03T14:00:47Z</time>
      </trkpt>
      <trkpt lat="46.51742" lon="-1.79085">
        <ele>4.1</ele>
        <time>2020-06-03T14:00:48Z</time>
      </trkpt>
      <trkpt lat="46.51747" lon="-1.79088">
        <ele>4.1</ele>
        <time>2020-06-03T14:00:49Z</time>
      </trkpt>
      <trkpt lat="46.51752" lon="-1.7909">
        <ele>4.1</ele>
        <time>2020-06-03T14:00:50Z</time>
      </trkpt>
      <trkpt lat="46.51758" lon="-1.79093">
        <ele>4.1</ele>
        <time>2020-06-03T14:00:51Z</time>
      </trkpt>
      <trkpt lat="46.51763" lon="-1.79095">
        <ele>4.1</ele>
        <time>2020-06-03T14:00:52Z</time>
      </trkpt>
      <trkpt lat="46.51768" lon="-1.79097">
        <ele>4.2</ele>
        <time>2020-06-03T14:00:53Z</time>
      </trkpt>
      <trkpt lat="46.51773" lon="-1.791">
        <ele>4.3</ele>
        <time>2020-06-03T14:00:54Z</time>
      </trkpt>
      <trkpt lat="46.51778" lon="-1.79102">
        <ele>4.4</ele>
        <time>2020-06-03T14:00:55Z</time>
      </trkpt>
      <trkpt lat="46.51782" lon="-1.79104">
        <ele>4.4</ele>
        <time>2020-06-03T14:00:56Z</time>
      </trkpt>
      <trkpt lat="46.51788" lon="-1.79107">
        <ele>4.5</ele>
        <time>2020-06-03T14:00:57Z</time>
      </trkpt>
      <trkpt lat="46.51794" lon="-1.79111">
        <ele>4.6</ele>
        <time>2020-06-03T14:00:58Z</time>
      </trkpt>
      <trkpt lat="46.518" lon="-1.79115">
        <ele>4.8</ele>
        <time>2020-06-03T14:00:59Z</time>
      </trkpt>
      <trkpt lat="46.51804" lon="-1.79118">
        <ele>4.9</ele>
        <time>2020-06-03T14:01:00Z</time>
      </trkpt>
      <trkpt lat="46.51808" lon="-1.79121">
        <ele>5</ele>
        <time>2020-06-03T14:01:01Z</time>
      </trkpt>
      <trkpt lat="46.51813" lon="-1.79123">
        <ele>5</ele>
        <time>2020-06-03T14:01:02Z</time>
      </trkpt>
      <trkpt lat="46.51818" lon="-1.79126">
        <ele>5.1</ele>
        <time>2020-06-03T14:01:03Z</time>
      </trkpt>
      <trkpt lat="46.51822" lon="-1.79129">
        <ele>5.1</ele>
        <time>2020-06-03T14:01:04Z</time>
      </trkpt>
      <trkpt lat="46.51827" lon="-1.79131">
        <ele>5.1</ele>
        <time>2020-06-03T14:01:05Z</time>
      </trkpt>
      <trkpt lat="46.51832" lon="-1.79133">
        <ele>5.2</ele>
        <time>2020-06-03T14:01:06Z</time>
      </trkpt>
      <trkpt lat="46.51837" lon="-1.79135">
        <ele>5.2</ele>
        <time>2020-06-03T14:01:07Z</time>
      </trkpt>
      <trkpt lat="46.51843" lon="-1.79135">
        <ele>5.3</ele>
        <time>2020-06-03T14:01:08Z</time>
      </trkpt>
      <trkpt lat="46.51848" lon="-1.79135">
        <ele>5.4</ele>
        <time>2020-06-03T14:01:09Z</time>
      </trkpt>
      <trkpt lat="46.51854" lon="-1.79135">
        <ele>5.5</ele>
        <time>2020-06-03T14:01:10Z</time>
      </trkpt>
      <trkpt lat="46.5186" lon="-1.79135">
        <ele>5.7</ele>
        <time>2020-06-03T14:01:11Z</time>
      </trkpt>
      <trkpt lat="46.51864" lon="-1.79134">
        <ele>5.8</ele>
        <time>2020-06-03T14:01:12Z</time>
      </trkpt>
      <trkpt lat="46.5187" lon="-1.79134">
        <ele>5.9</ele>
        <time>2020-06-03T14:01:13Z</time>
      </trkpt>
      <trkpt lat="46.51875" lon="-1.79133">
        <ele>6.1</ele>
        <time>2020-06-03T14:01:14Z</time>
      </trkpt>
      <trkpt lat="46.5188" lon="-1.79133">
        <ele>6.2</ele>
        <time>2020-06-03T14:01:15Z</time>
      </trkpt>
      <trkpt lat="46.51886" lon="-1.7913">
        <ele>6.3</ele>
        <time>2020-06-03T14:01:16Z</time>
      </trkpt>
      <trkpt lat="46.51892" lon="-1.79129">
        <ele>6.4</ele>
        <time>2020-06-03T14:01:17Z</time>
      </trkpt>
      <trkpt lat="46.51898" lon="-1.7913">
        <ele>6.5</ele>
        <time>2020-06-03T14:01:18Z</time>
      </trkpt>
      <trkpt lat="46.51903" lon="-1.79129">
        <ele>6.6</ele>
        <time>2020-06-03T14:01:19Z</time>
      </trkpt>
      <trkpt lat="46.51909" lon="-1.79129">
        <ele>6.6</ele>
        <time>2020-06-03T14:01:20Z</time>
      </trkpt>
      <trkpt lat="46.51914" lon="-1.79129">
        <ele>6.7</ele>
        <time>2020-06-03T14:01:21Z</time>
      </trkpt>
      <trkpt lat="46.5192" lon="-1.79127">
        <ele>6.8</ele>
        <time>2020-06-03T14:01:22Z</time>
      </trkpt>
      <trkpt lat="46.51925" lon="-1.79127">
        <ele>6.8</ele>
        <time>2020-06-03T14:01:23Z</time>
      </trkpt>
      <trkpt lat="46.5193" lon="-1.7913">
        <ele>6.8</ele>
        <time>2020-06-03T14:01:24Z</time>
      </trkpt>
      <trkpt lat="46.51935" lon="-1.79133">
        <ele>6.9</ele>
        <time>2020-06-03T14:01:25Z</time>
      </trkpt>
      <trkpt lat="46.51939" lon="-1.79136">
        <ele>6.9</ele>
        <time>2020-06-03T14:01:26Z</time>
      </trkpt>
      <trkpt lat="46.51944" lon="-1.79139">
        <ele>6.9</ele>
        <time>2020-06-03T14:01:27Z</time>
      </trkpt>
      <trkpt lat="46.51948" lon="-1.79142">
        <ele>6.9</ele>
        <time>2020-06-03T14:01:28Z</time>
      </trkpt>
      <trkpt lat="46.51954" lon="-1.79147">
        <ele>6.9</ele>
        <time>2020-06-03T14:01:29Z</time>
      </trkpt>
      <trkpt lat="46.51958" lon="-1.79151">
        <ele>6.8</ele>
        <time>2020-06-03T14:01:30Z</time>
      </trkpt>
      <trkpt lat="46.51963" lon="-1.79155">
        <ele>6.8</ele>
        <time>2020-06-03T14:01:31Z</time>
      </trkpt>
      <trkpt lat="46.51968" lon="-1.79159">
        <ele>6.7</ele>
        <time>2020-06-03T14:01:32Z</time>
      </trkpt>
      <trkpt lat="46.51973" lon="-1.79162">
        <ele>6.7</ele>
        <time>2020-06-03T14:01:33Z</time>
      </trkpt>
      <trkpt lat="46.51978" lon="-1.79168">
        <ele>6.6</ele>
        <time>2020-06-03T14:01:34Z</time>
      </trkpt>
      <trkpt lat="46.51982" lon="-1.79173">
        <ele>6.5</ele>
        <time>2020-06-03T14:01:35Z</time>
      </trkpt>
      <trkpt lat="46.51987" lon="-1.79178">
        <ele>6.5</ele>
        <time>2020-06-03T14:01:36Z</time>
      </trkpt>
      <trkpt lat="46.51991" lon="-1.79183">
        <ele>6.4</ele>
        <time>2020-06-03T14:01:37Z</time>
      </trkpt>
      <trkpt lat="46.51995" lon="-1.79189">
        <ele>6.4</ele>
        <time>2020-06-03T14:01:38Z</time>
      </trkpt>
      <trkpt lat="46.51999" lon="-1.79194">
        <ele>6.3</ele>
        <time>2020-06-03T14:01:39Z</time>
      </trkpt>
      <trkpt lat="46.52003" lon="-1.79199">
        <ele>6.3</ele>
        <time>2020-06-03T14:01:40Z</time>
      </trkpt>
      <trkpt lat="46.52008" lon="-1.79203">
        <ele>6.2</ele>
        <time>2020-06-03T14:01:41Z</time>
      </trkpt>
      <trkpt lat="46.52012" lon="-1.79208">
        <ele>6.2</ele>
        <time>2020-06-03T14:01:42Z</time>
      </trkpt>
      <trkpt lat="46.52017" lon="-1.79212">
        <ele>6.1</ele>
        <time>2020-06-03T14:01:43Z</time>
      </trkpt>
      <trkpt lat="46.52022" lon="-1.79216">
        <ele>6</ele>
        <time>2020-06-03T14:01:44Z</time>
      </trkpt>
      <trkpt lat="46.52027" lon="-1.79221">
        <ele>6</ele>
        <time>2020-06-03T14:01:45Z</time>
      </trkpt>
      <trkpt lat="46.52031" lon="-1.79226">
        <ele>6</ele>
        <time>2020-06-03T14:01:46Z</time>
      </trkpt>
      <trkpt lat="46.52035" lon="-1.79231">
        <ele>6</ele>
        <time>2020-06-03T14:01:47Z</time>
      </trkpt>
      <trkpt lat="46.52039" lon="-1.79236">
        <ele>6</ele>
        <time>2020-06-03T14:01:48Z</time>
      </trkpt>
      <trkpt lat="46.52043" lon="-1.79241">
        <ele>6</ele>
        <time>2020-06-03T14:01:49Z</time>
      </trkpt>
      <trkpt lat="46.52047" lon="-1.79244">
        <ele>6</ele>
        <time>2020-06-03T14:01:50Z</time>
      </trkpt>
      <trkpt lat="46.5205" lon="-1.79247">
        <ele>6</ele>
        <time>2020-06-03T14:01:51Z</time>
      </trkpt>
      <trkpt lat="46.52053" lon="-1.79251">
        <ele>6</ele>
        <time>2020-06-03T14:01:52Z</time>
      </trkpt>
      <trkpt lat="46.52056" lon="-1.79253">
        <ele>6</ele>
        <time>2020-06-03T14:01:53Z</time>
      </trkpt>
      <trkpt lat="46.5206" lon="-1.79254">
        <ele>6</ele>
        <time>2020-06-03T14:01:54Z</time>
      </trkpt>
      <trkpt lat="46.52063" lon="-1.79255">
        <ele>6</ele>
        <time>2020-06-03T14:01:55Z</time>
      </trkpt>
      <trkpt lat="46.52066" lon="-1.79259">
        <ele>6</ele>
        <time>2020-06-03T14:01:56Z</time>
      </trkpt>
      <trkpt lat="46.52067" lon="-1.79265">
        <ele>6</ele>
        <time>2020-06-03T14:01:57Z</time>
      </trkpt>
      <trkpt lat="46.52067" lon="-1.79272">
        <ele>5.9</ele>
        <time>2020-06-03T14:01:58Z</time>
      </trkpt>
      <trkpt lat="46.52065" lon="-1.79279">
        <ele>5.8</ele>
        <time>2020-06-03T14:01:59Z</time>
      </trkpt>
      <trkpt lat="46.52066" lon="-1.79287">
        <ele>5.6</ele>
        <time>2020-06-03T14:02:00Z</time>
      </trkpt>
      <trkpt lat="46.52064" lon="-1.79293">
        <ele>5.4</ele>
        <time>2020-06-03T14:02:01Z</time>
      </trkpt>
      <trkpt lat="46.52062" lon="-1.793">
        <ele>5.3</ele>
        <time>2020-06-03T14:02:02Z</time>
      </trkpt>
      <trkpt lat="46.5206" lon="-1.79306">
        <ele>5.1</ele>
        <time>2020-06-03T14:02:03Z</time>
      </trkpt>
      <trkpt lat="46.52058" lon="-1.79313">
        <ele>4.9</ele>
        <time>2020-06-03T14:02:04Z</time>
      </trkpt>
      <trkpt lat="46.52057" lon="-1.7932">
        <ele>4.7</ele>
        <time>2020-06-03T14:02:05Z</time>
      </trkpt>
      <trkpt lat="46.52055" lon="-1.79327">
        <ele>4.5</ele>
        <time>2020-06-03T14:02:06Z</time>
      </trkpt>
      <trkpt lat="46.52053" lon="-1.79333">
        <ele>4.4</ele>
        <time>2020-06-03T14:02:07Z</time>
      </trkpt>
      <trkpt lat="46.52052" lon="-1.7934">
        <ele>4.2</ele>
        <time>2020-06-03T14:02:08Z</time>
      </trkpt>
      <trkpt lat="46.5205" lon="-1.79347">
        <ele>4.1</ele>
        <time>2020-06-03T14:02:09Z</time>
      </trkpt>
      <trkpt lat="46.52048" lon="-1.79355">
        <ele>4</ele>
        <time>2020-06-03T14:02:10Z</time>
      </trkpt>
      <trkpt lat="46.52046" lon="-1.79362">
        <ele>3.9</ele>
        <time>2020-06-03T14:02:11Z</time>
      </trkpt>
      <trkpt lat="46.52045" lon="-1.79368">
        <ele>3.8</ele>
        <time>2020-06-03T14:02:12Z</time>
      </trkpt>
      <trkpt lat="46.52043" lon="-1.79376">
        <ele>3.7</ele>
        <time>2020-06-03T14:02:13Z</time>
      </trkpt>
      <trkpt lat="46.52042" lon="-1.79384">
        <ele>3.7</ele>
        <time>2020-06-03T14:02:14Z</time>
      </trkpt>
      <trkpt lat="46.5204" lon="-1.79392">
        <ele>3.7</ele>
        <time>2020-06-03T14:02:15Z</time>
      </trkpt>
      <trkpt lat="46.52039" lon="-1.794">
        <ele>3.6</ele>
        <time>2020-06-03T14:02:16Z</time>
      </trkpt>
      <trkpt lat="46.52037" lon="-1.79408">
        <ele>3.6</ele>
        <time>2020-06-03T14:02:17Z</time>
      </trkpt>
      <trkpt lat="46.52036" lon="-1.79416">
        <ele>3.6</ele>
        <time>2020-06-03T14:02:18Z</time>
      </trkpt>
      <trkpt lat="46.52034" lon="-1.79423">
        <ele>3.5</ele>
        <time>2020-06-03T14:02:19Z</time>
      </trkpt>
      <trkpt lat="46.52033" lon="-1.7943">
        <ele>3.5</ele>
        <time>2020-06-03T14:02:20Z</time>
      </trkpt>
      <trkpt lat="46.52032" lon="-1.79438">
        <ele>3.5</ele>
        <time>2020-06-03T14:02:21Z</time>
      </trkpt>
      <trkpt lat="46.52031" lon="-1.79446">
        <ele>3.5</ele>
        <time>2020-06-03T14:02:22Z</time>
      </trkpt>
      <trkpt lat="46.5203" lon="-1.79454">
        <ele>3.4</ele>
        <time>2020-06-03T14:02:23Z</time>
      </trkpt>
      <trkpt lat="46.52029" lon="-1.79462">
        <ele>3.4</ele>
        <time>2020-06-03T14:02:24Z</time>
      </trkpt>
      <trkpt lat="46.52027" lon="-1.79469">
        <ele>3.4</ele>
        <time>2020-06-03T14:02:25Z</time>
      </trkpt>
      <trkpt lat="46.52024" lon="-1.79476">
        <ele>3.4</ele>
        <time>2020-06-03T14:02:26Z</time>
      </trkpt>
      <trkpt lat="46.52023" lon="-1.79484">
        <ele>3.4</ele>
        <time>2020-06-03T14:02:27Z</time>
      </trkpt>
      <trkpt lat="46.5202" lon="-1.79491">
        <ele>3.4</ele>
        <time>2020-06-03T14:02:28Z</time>
      </trkpt>
      <trkpt lat="46.52018" lon="-1.79497">
        <ele>3.4</ele>
        <time>2020-06-03T14:02:29Z</time>
      </trkpt>
      <trkpt lat="46.52016" lon="-1.79505">
        <ele>3.4</ele>
        <time>2020-06-03T14:02:30Z</time>
      </trkpt>
      <trkpt lat="46.52015" lon="-1.79512">
        <ele>3.5</ele>
        <time>2020-06-03T14:02:31Z</time>
      </trkpt>
      <trkpt lat="46.52012" lon="-1.7952">
        <ele>3.5</ele>
        <time>2020-06-03T14:02:32Z</time>
      </trkpt>
      <trkpt lat="46.52012" lon="-1.79529">
        <ele>3.5</ele>
        <time>2020-06-03T14:02:33Z</time>
      </trkpt>
      <trkpt lat="46.52012" lon="-1.79536">
        <ele>3.6</ele>
        <time>2020-06-03T14:02:34Z</time>
      </trkpt>
      <trkpt lat="46.52014" lon="-1.79541">
        <ele>3.6</ele>
        <time>2020-06-03T14:02:35Z</time>
      </trkpt>
      <trkpt lat="46.52016" lon="-1.79547">
        <ele>3.6</ele>
        <time>2020-06-03T14:02:36Z</time>
      </trkpt>
      <trkpt lat="46.52018" lon="-1.79554">
        <ele>3.6</ele>
        <time>2020-06-03T14:02:37Z</time>
      </trkpt>
      <trkpt lat="46.52019" lon="-1.79561">
        <ele>3.6</ele>
        <time>2020-06-03T14:02:38Z</time>
      </trkpt>
      <trkpt lat="46.5202" lon="-1.79567">
        <ele>3.6</ele>
        <time>2020-06-03T14:02:39Z</time>
      </trkpt>
      <trkpt lat="46.5202" lon="-1.79573">
        <ele>3.6</ele>
        <time>2020-06-03T14:02:40Z</time>
      </trkpt>
      <trkpt lat="46.5202" lon="-1.7958">
        <ele>3.7</ele>
        <time>2020-06-03T14:02:41Z</time>
      </trkpt>
      <trkpt lat="46.52021" lon="-1.79586">
        <ele>3.7</ele>
        <time>2020-06-03T14:02:42Z</time>
      </trkpt>
      <trkpt lat="46.52023" lon="-1.79592">
        <ele>3.7</ele>
        <time>2020-06-03T14:02:43Z</time>
      </trkpt>
      <trkpt lat="46.52024" lon="-1.79598">
        <ele>3.7</ele>
        <time>2020-06-03T14:02:44Z</time>
      </trkpt>
      <trkpt lat="46.52025" lon="-1.79606">
        <ele>3.7</ele>
        <time>2020-06-03T14:02:45Z</time>
      </trkpt>
      <trkpt lat="46.52026" lon="-1.79612">
        <ele>3.7</ele>
        <time>2020-06-03T14:02:46Z</time>
      </trkpt>
      <trkpt lat="46.52028" lon="-1.79619">
        <ele>3.7</ele>
        <time>2020-06-03T14:02:47Z</time>
      </trkpt>
      <trkpt lat="46.52029" lon="-1.79626">
        <ele>3.8</ele>
        <time>2020-06-03T14:02:48Z</time>
      </trkpt>
      <trkpt lat="46.5203" lon="-1.79634">
        <ele>3.8</ele>
        <time>2020-06-03T14:02:49Z</time>
      </trkpt>
      <trkpt lat="46.52031" lon="-1.7964">
        <ele>3.8</ele>
        <time>2020-06-03T14:02:50Z</time>
      </trkpt>
      <trkpt lat="46.52032" lon="-1.79647">
        <ele>3.8</ele>
        <time>2020-06-03T14:02:51Z</time>
      </trkpt>
      <trkpt lat="46.52033" lon="-1.79654">
        <ele>3.9</ele>
        <time>2020-06-03T14:02:52Z</time>
      </trkpt>
      <trkpt lat="46.52035" lon="-1.79661">
        <ele>3.9</ele>
        <time>2020-06-03T14:02:53Z</time>
      </trkpt>
      <trkpt lat="46.52036" lon="-1.79667">
        <ele>3.9</ele>
        <time>2020-06-03T14:02:54Z</time>
      </trkpt>
      <trkpt lat="46.52037" lon="-1.79675">
        <ele>3.9</ele>
        <time>2020-06-03T14:02:55Z</time>
      </trkpt>
      <trkpt lat="46.52037" lon="-1.79682">
        <ele>3.9</ele>
        <time>2020-06-03T14:02:56Z</time>
      </trkpt>
      <trkpt lat="46.52039" lon="-1.79688">
        <ele>4</ele>
        <time>2020-06-03T14:02:57Z</time>
      </trkpt>
      <trkpt lat="46.52039" lon="-1.79695">
        <ele>4</ele>
        <time>2020-06-03T14:02:58Z</time>
      </trkpt>
      <trkpt lat="46.52041" lon="-1.797">
        <ele>4</ele>
        <time>2020-06-03T14:02:59Z</time>
      </trkpt>
      <trkpt lat="46.52042" lon="-1.79706">
        <ele>4</ele>
        <time>2020-06-03T14:03:00Z</time>
      </trkpt>
      <trkpt lat="46.52044" lon="-1.79711">
        <ele>4.1</ele>
        <time>2020-06-03T14:03:01Z</time>
      </trkpt>
      <trkpt lat="46.52045" lon="-1.79717">
        <ele>4.1</ele>
        <time>2020-06-03T14:03:02Z</time>
      </trkpt>
      <trkpt lat="46.52045" lon="-1.79724">
        <ele>4.1</ele>
        <time>2020-06-03T14:03:03Z</time>
      </trkpt>
      <trkpt lat="46.52046" lon="-1.79731">
        <ele>4.2</ele>
        <time>2020-06-03T14:03:04Z</time>
      </trkpt>
      <trkpt lat="46.52047" lon="-1.79739">
        <ele>4.2</ele>
        <time>2020-06-03T14:03:05Z</time>
      </trkpt>
      <trkpt lat="46.52048" lon="-1.79745">
        <ele>4.3</ele>
        <time>2020-06-03T14:03:06Z</time>
      </trkpt>
      <trkpt lat="46.52049" lon="-1.79753">
        <ele>4.3</ele>
        <time>2020-06-03T14:03:07Z</time>
      </trkpt>
      <trkpt lat="46.5205" lon="-1.79759">
        <ele>4.4</ele>
        <time>2020-06-03T14:03:08Z</time>
      </trkpt>
      <trkpt lat="46.52051" lon="-1.79766">
        <ele>4.4</ele>
        <time>2020-06-03T14:03:09Z</time>
      </trkpt>
      <trkpt lat="46.52052" lon="-1.79772">
        <ele>4.5</ele>
        <time>2020-06-03T14:03:10Z</time>
      </trkpt>
      <trkpt lat="46.52053" lon="-1.79779">
        <ele>4.5</ele>
        <time>2020-06-03T14:03:11Z</time>
      </trkpt>
      <trkpt lat="46.52054" lon="-1.79786">
        <ele>4.6</ele>
        <time>2020-06-03T14:03:12Z</time>
      </trkpt>
      <trkpt lat="46.52054" lon="-1.79794">
        <ele>4.6</ele>
        <time>2020-06-03T14:03:13Z</time>
      </trkpt>
      <trkpt lat="46.52055" lon="-1.79801">
        <ele>4.7</ele>
        <time>2020-06-03T14:03:14Z</time>
      </trkpt>
      <trkpt lat="46.52056" lon="-1.79808">
        <ele>4.7</ele>
        <time>2020-06-03T14:03:15Z</time>
      </trkpt>
      <trkpt lat="46.52057" lon="-1.79814">
        <ele>4.7</ele>
        <time>2020-06-03T14:03:16Z</time>
      </trkpt>
      <trkpt lat="46.52057" lon="-1.79819">
        <ele>4.7</ele>
        <time>2020-06-03T14:03:17Z</time>
      </trkpt>
      <trkpt lat="46.52059" lon="-1.79826">
        <ele>4.8</ele>
        <time>2020-06-03T14:03:18Z</time>
      </trkpt>
      <trkpt lat="46.52061" lon="-1.79832">
        <ele>4.8</ele>
        <time>2020-06-03T14:03:19Z</time>
      </trkpt>
      <trkpt lat="46.52062" lon="-1.79838">
        <ele>4.8</ele>
        <time>2020-06-03T14:03:20Z</time>
      </trkpt>
      <trkpt lat="46.52064" lon="-1.79843">
        <ele>4.8</ele>
        <time>2020-06-03T14:03:21Z</time>
      </trkpt>
      <trkpt lat="46.52065" lon="-1.79848">
        <ele>4.8</ele>
        <time>2020-06-03T14:03:22Z</time>
      </trkpt>
      <trkpt lat="46.52067" lon="-1.79854">
        <ele>4.8</ele>
        <time>2020-06-03T14:03:23Z</time>
      </trkpt>
      <trkpt lat="46.52068" lon="-1.79859">
        <ele>4.8</ele>
        <time>2020-06-03T14:03:24Z</time>
      </trkpt>
      <trkpt lat="46.52069" lon="-1.79864">
        <ele>4.8</ele>
        <time>2020-06-03T14:03:25Z</time>
      </trkpt>
      <trkpt lat="46.52072" lon="-1.79869">
        <ele>4.8</ele>
        <time>2020-06-03T14:03:26Z</time>
      </trkpt>
      <trkpt lat="46.52074" lon="-1.79875">
        <ele>4.9</ele>
        <time>2020-06-03T14:03:27Z</time>
      </trkpt>
      <trkpt lat="46.52076" lon="-1.79881">
        <ele>4.9</ele>
        <time>2020-06-03T14:03:28Z</time>
      </trkpt>
      <trkpt lat="46.52078" lon="-1.79887">
        <ele>4.9</ele>
        <time>2020-06-03T14:03:29Z</time>
      </trkpt>
      <trkpt lat="46.52079" lon="-1.79894">
        <ele>4.9</ele>
        <time>2020-06-03T14:03:30Z</time>
      </trkpt>
      <trkpt lat="46.52081" lon="-1.79901">
        <ele>4.9</ele>
        <time>2020-06-03T14:03:31Z</time>
      </trkpt>
      <trkpt lat="46.52082" lon="-1.79909">
        <ele>4.9</ele>
        <time>2020-06-03T14:03:32Z</time>
      </trkpt>
      <trkpt lat="46.52083" lon="-1.79916">
        <ele>4.9</ele>
        <time>2020-06-03T14:03:33Z</time>
      </trkpt>
      <trkpt lat="46.52085" lon="-1.79922">
        <ele>4.9</ele>
        <time>2020-06-03T14:03:34Z</time>
      </trkpt>
      <trkpt lat="46.52086" lon="-1.79929">
        <ele>4.9</ele>
        <time>2020-06-03T14:03:35Z</time>
      </trkpt>
      <trkpt lat="46.52086" lon="-1.79935">
        <ele>5</ele>
        <time>2020-06-03T14:03:36Z</time>
      </trkpt>
      <trkpt lat="46.52087" lon="-1.79942">
        <ele>5</ele>
        <time>2020-06-03T14:03:37Z</time>
      </trkpt>
      <trkpt lat="46.52088" lon="-1.79949">
        <ele>5</ele>
        <time>2020-06-03T14:03:38Z</time>
      </trkpt>
      <trkpt lat="46.52089" lon="-1.79955">
        <ele>5</ele>
        <time>2020-06-03T14:03:39Z</time>
      </trkpt>
      <trkpt lat="46.5209" lon="-1.79961">
        <ele>5</ele>
        <time>2020-06-03T14:03:40Z</time>
      </trkpt>
      <trkpt lat="46.52091" lon="-1.79967">
        <ele>5</ele>
        <time>2020-06-03T14:03:41Z</time>
      </trkpt>
      <trkpt lat="46.52092" lon="-1.79972">
        <ele>5</ele>
        <time>2020-06-03T14:03:42Z</time>
      </trkpt>
      <trkpt lat="46.52094" lon="-1.79976">
        <ele>5</ele>
        <time>2020-06-03T14:03:43Z</time>
      </trkpt>
      <trkpt lat="46.52095" lon="-1.79981">
        <ele>4.9</ele>
        <time>2020-06-03T14:03:44Z</time>
      </trkpt>
      <trkpt lat="46.52095" lon="-1.79986">
        <ele>4.9</ele>
        <time>2020-06-03T14:03:45Z</time>
      </trkpt>
      <trkpt lat="46.52095" lon="-1.7999">
        <ele>4.9</ele>
        <time>2020-06-03T14:03:46Z</time>
      </trkpt>
      <trkpt lat="46.52096" lon="-1.79996">
        <ele>4.9</ele>
        <time>2020-06-03T14:03:47Z</time>
      </trkpt>
      <trkpt lat="46.52097" lon="-1.79998">
        <ele>4.9</ele>
        <time>2020-06-03T14:03:48Z</time>
      </trkpt>
      <trkpt lat="46.52098" lon="-1.80002">
        <ele>4.9</ele>
        <time>2020-06-03T14:03:49Z</time>
      </trkpt>
      <trkpt lat="46.52099" lon="-1.80006">
        <ele>4.9</ele>
        <time>2020-06-03T14:03:50Z</time>
      </trkpt>
      <trkpt lat="46.52101" lon="-1.80011">
        <ele>4.9</ele>
        <time>2020-06-03T14:03:51Z</time>
      </trkpt>
      <trkpt lat="46.52102" lon="-1.80016">
        <ele>4.8</ele>
        <time>2020-06-03T14:03:52Z</time>
      </trkpt>
      <trkpt lat="46.52105" lon="-1.80021">
        <ele>4.8</ele>
        <time>2020-06-03T14:03:53Z</time>
      </trkpt>
      <trkpt lat="46.52107" lon="-1.80024">
        <ele>4.8</ele>
        <time>2020-06-03T14:03:54Z</time>
      </trkpt>
      <trkpt lat="46.52108" lon="-1.8003">
        <ele>4.8</ele>
        <time>2020-06-03T14:03:55Z</time>
      </trkpt>
      <trkpt lat="46.5211" lon="-1.80034">
        <ele>4.7</ele>
        <time>2020-06-03T14:03:56Z</time>
      </trkpt>
      <trkpt lat="46.52112" lon="-1.80038">
        <ele>4.7</ele>
        <time>2020-06-03T14:03:57Z</time>
      </trkpt>
      <trkpt lat="46.52114" lon="-1.80043">
        <ele>4.7</ele>
        <time>2020-06-03T14:03:58Z</time>
      </trkpt>
      <trkpt lat="46.52116" lon="-1.80048">
        <ele>4.7</ele>
        <time>2020-06-03T14:03:59Z</time>
      </trkpt>
      <trkpt lat="46.52118" lon="-1.80053">
        <ele>4.7</ele>
        <time>2020-06-03T14:04:00Z</time>
      </trkpt>
      <trkpt lat="46.5212" lon="-1.80059">
        <ele>4.6</ele>
        <time>2020-06-03T14:04:01Z</time>
      </trkpt>
      <trkpt lat="46.52121" lon="-1.80063">
        <ele>4.6</ele>
        <time>2020-06-03T14:04:02Z</time>
      </trkpt>
      <trkpt lat="46.52123" lon="-1.80068">
        <ele>4.6</ele>
        <time>2020-06-03T14:04:03Z</time>
      </trkpt>
      <trkpt lat="46.52126" lon="-1.80072">
        <ele>4.5</ele>
        <time>2020-06-03T14:04:04Z</time>
      </trkpt>
      <trkpt lat="46.52128" lon="-1.80077">
        <ele>4.5</ele>
        <time>2020-06-03T14:04:05Z</time>
      </trkpt>
      <trkpt lat="46.52131" lon="-1.80081">
        <ele>4.5</ele>
        <time>2020-06-03T14:04:06Z</time>
      </trkpt>
      <trkpt lat="46.52134" lon="-1.80086">
        <ele>4.4</ele>
        <time>2020-06-03T14:04:07Z</time>
      </trkpt>
      <trkpt lat="46.52137" lon="-1.80091">
        <ele>4.4</ele>
        <time>2020-06-03T14:04:08Z</time>
      </trkpt>
      <trkpt lat="46.52141" lon="-1.80096">
        <ele>4.4</ele>
        <time>2020-06-03T14:04:09Z</time>
      </trkpt>
      <trkpt lat="46.52144" lon="-1.80102">
        <ele>4.3</ele>
        <time>2020-06-03T14:04:10Z</time>
      </trkpt>
      <trkpt lat="46.52147" lon="-1.80107">
        <ele>4.3</ele>
        <time>2020-06-03T14:04:11Z</time>
      </trkpt>
      <trkpt lat="46.52149" lon="-1.80111">
        <ele>4.3</ele>
        <time>2020-06-03T14:04:12Z</time>
      </trkpt>
      <trkpt lat="46.52152" lon="-1.80116">
        <ele>4.3</ele>
        <time>2020-06-03T14:04:13Z</time>
      </trkpt>
      <trkpt lat="46.52156" lon="-1.8012">
        <ele>4.3</ele>
        <time>2020-06-03T14:04:14Z</time>
      </trkpt>
      <trkpt lat="46.52161" lon="-1.80118">
        <ele>4.3</ele>
        <time>2020-06-03T14:04:15Z</time>
      </trkpt>
      <trkpt lat="46.52165" lon="-1.80122">
        <ele>4.3</ele>
        <time>2020-06-03T14:04:16Z</time>
      </trkpt>
      <trkpt lat="46.52169" lon="-1.80127">
        <ele>4.3</ele>
        <time>2020-06-03T14:04:17Z</time>
      </trkpt>
      <trkpt lat="46.52171" lon="-1.80132">
        <ele>4.3</ele>
        <time>2020-06-03T14:04:18Z</time>
      </trkpt>
      <trkpt lat="46.52174" lon="-1.80137">
        <ele>4.3</ele>
        <time>2020-06-03T14:04:19Z</time>
      </trkpt>
      <trkpt lat="46.52177" lon="-1.80143">
        <ele>4.3</ele>
        <time>2020-06-03T14:04:20Z</time>
      </trkpt>
      <trkpt lat="46.5218" lon="-1.80149">
        <ele>4.3</ele>
        <time>2020-06-03T14:04:21Z</time>
      </trkpt>
      <trkpt lat="46.52182" lon="-1.80155">
        <ele>4.3</ele>
        <time>2020-06-03T14:04:22Z</time>
      </trkpt>
      <trkpt lat="46.52183" lon="-1.80165">
        <ele>4.3</ele>
        <time>2020-06-03T14:04:23Z</time>
      </trkpt>
      <trkpt lat="46.52185" lon="-1.8017">
        <ele>4.3</ele>
        <time>2020-06-03T14:04:24Z</time>
      </trkpt>
      <trkpt lat="46.52187" lon="-1.80177">
        <ele>4.3</ele>
        <time>2020-06-03T14:04:25Z</time>
      </trkpt>
      <trkpt lat="46.52188" lon="-1.80185">
        <ele>4.3</ele>
        <time>2020-06-03T14:04:26Z</time>
      </trkpt>
      <trkpt lat="46.5219" lon="-1.80193">
        <ele>4.3</ele>
        <time>2020-06-03T14:04:27Z</time>
      </trkpt>
      <trkpt lat="46.52191" lon="-1.80199">
        <ele>4.3</ele>
        <time>2020-06-03T14:04:28Z</time>
      </trkpt>
      <trkpt lat="46.52193" lon="-1.80205">
        <ele>4.3</ele>
        <time>2020-06-03T14:04:29Z</time>
      </trkpt>
      <trkpt lat="46.52195" lon="-1.80211">
        <ele>4.3</ele>
        <time>2020-06-03T14:04:30Z</time>
      </trkpt>
      <trkpt lat="46.52197" lon="-1.80218">
        <ele>4.2</ele>
        <time>2020-06-03T14:04:31Z</time>
      </trkpt>
      <trkpt lat="46.52199" lon="-1.80224">
        <ele>4.2</ele>
        <time>2020-06-03T14:04:32Z</time>
      </trkpt>
      <trkpt lat="46.522" lon="-1.80231">
        <ele>4.2</ele>
        <time>2020-06-03T14:04:33Z</time>
      </trkpt>
      <trkpt lat="46.52201" lon="-1.80237">
        <ele>4.2</ele>
        <time>2020-06-03T14:04:34Z</time>
      </trkpt>
      <trkpt lat="46.52202" lon="-1.80244">
        <ele>4.1</ele>
        <time>2020-06-03T14:04:35Z</time>
      </trkpt>
      <trkpt lat="46.52204" lon="-1.80253">
        <ele>4.1</ele>
        <time>2020-06-03T14:04:36Z</time>
      </trkpt>
      <trkpt lat="46.52205" lon="-1.80261">
        <ele>4.1</ele>
        <time>2020-06-03T14:04:37Z</time>
      </trkpt>
      <trkpt lat="46.52207" lon="-1.80269">
        <ele>4</ele>
        <time>2020-06-03T14:04:38Z</time>
      </trkpt>
      <trkpt lat="46.52208" lon="-1.80278">
        <ele>4</ele>
        <time>2020-06-03T14:04:39Z</time>
      </trkpt>
      <trkpt lat="46.52208" lon="-1.80286">
        <ele>3.9</ele>
        <time>2020-06-03T14:04:40Z</time>
      </trkpt>
      <trkpt lat="46.52208" lon="-1.80294">
        <ele>3.9</ele>
        <time>2020-06-03T14:04:41Z</time>
      </trkpt>
      <trkpt lat="46.52209" lon="-1.80302">
        <ele>3.9</ele>
        <time>2020-06-03T14:04:42Z</time>
      </trkpt>
      <trkpt lat="46.52208" lon="-1.80309">
        <ele>3.9</ele>
        <time>2020-06-03T14:04:43Z</time>
      </trkpt>
      <trkpt lat="46.52208" lon="-1.80316">
        <ele>3.8</ele>
        <time>2020-06-03T14:04:44Z</time>
      </trkpt>
      <trkpt lat="46.52208" lon="-1.80323">
        <ele>3.8</ele>
        <time>2020-06-03T14:04:45Z</time>
      </trkpt>
      <trkpt lat="46.52208" lon="-1.8033">
        <ele>3.7</ele>
        <time>2020-06-03T14:04:46Z</time>
      </trkpt>
      <trkpt lat="46.52208" lon="-1.80337">
        <ele>3.7</ele>
        <time>2020-06-03T14:04:47Z</time>
      </trkpt>
      <trkpt lat="46.52207" lon="-1.80344">
        <ele>3.6</ele>
        <time>2020-06-03T14:04:48Z</time>
      </trkpt>
      <trkpt lat="46.52207" lon="-1.80351">
        <ele>3.6</ele>
        <time>2020-06-03T14:04:49Z</time>
      </trkpt>
      <trkpt lat="46.52207" lon="-1.80358">
        <ele>3.5</ele>
        <time>2020-06-03T14:04:50Z</time>
      </trkpt>
      <trkpt lat="46.52207" lon="-1.80365">
        <ele>3.4</ele>
        <time>2020-06-03T14:04:51Z</time>
      </trkpt>
      <trkpt lat="46.52206" lon="-1.80372">
        <ele>3.4</ele>
        <time>2020-06-03T14:04:52Z</time>
      </trkpt>
      <trkpt lat="46.52207" lon="-1.80377">
        <ele>3.3</ele>
        <time>2020-06-03T14:04:53Z</time>
      </trkpt>
      <trkpt lat="46.52207" lon="-1.80382">
        <ele>3.3</ele>
        <time>2020-06-03T14:04:54Z</time>
      </trkpt>
      <trkpt lat="46.52207" lon="-1.80388">
        <ele>3.3</ele>
        <time>2020-06-03T14:04:55Z</time>
      </trkpt>
      <trkpt lat="46.52206" lon="-1.80392">
        <ele>3.2</ele>
        <time>2020-06-03T14:04:56Z</time>
      </trkpt>
      <trkpt lat="46.52205" lon="-1.80397">
        <ele>3.2</ele>
        <time>2020-06-03T14:04:57Z</time>
      </trkpt>
      <trkpt lat="46.52205" lon="-1.80403">
        <ele>3.2</ele>
        <time>2020-06-03T14:04:58Z</time>
      </trkpt>
      <trkpt lat="46.52205" lon="-1.80409">
        <ele>3.2</ele>
        <time>2020-06-03T14:04:59Z</time>
      </trkpt>
      <trkpt lat="46.52204" lon="-1.80415">
        <ele>3.2</ele>
        <time>2020-06-03T14:05:00Z</time>
      </trkpt>
      <trkpt lat="46.52204" lon="-1.8042">
        <ele>3.2</ele>
        <time>2020-06-03T14:05:01Z</time>
      </trkpt>
      <trkpt lat="46.52205" lon="-1.80425">
        <ele>3.2</ele>
        <time>2020-06-03T14:05:02Z</time>
      </trkpt>
      <trkpt lat="46.52205" lon="-1.80431">
        <ele>3.2</ele>
        <time>2020-06-03T14:05:03Z</time>
      </trkpt>
      <trkpt lat="46.52207" lon="-1.80435">
        <ele>3.2</ele>
        <time>2020-06-03T14:05:04Z</time>
      </trkpt>
      <trkpt lat="46.5221" lon="-1.80439">
        <ele>3.1</ele>
        <time>2020-06-03T14:05:05Z</time>
      </trkpt>
      <trkpt lat="46.52211" lon="-1.80444">
        <ele>3.1</ele>
        <time>2020-06-03T14:05:06Z</time>
      </trkpt>
      <trkpt lat="46.52213" lon="-1.80449">
        <ele>3.1</ele>
        <time>2020-06-03T14:05:07Z</time>
      </trkpt>
      <trkpt lat="46.52214" lon="-1.80455">
        <ele>3.1</ele>
        <time>2020-06-03T14:05:08Z</time>
      </trkpt>
      <trkpt lat="46.52215" lon="-1.8046">
        <ele>3.1</ele>
        <time>2020-06-03T14:05:09Z</time>
      </trkpt>
      <trkpt lat="46.52216" lon="-1.80466">
        <ele>3.1</ele>
        <time>2020-06-03T14:05:10Z</time>
      </trkpt>
      <trkpt lat="46.52217" lon="-1.80473">
        <ele>3.1</ele>
        <time>2020-06-03T14:05:11Z</time>
      </trkpt>
      <trkpt lat="46.52218" lon="-1.80479">
        <ele>3.1</ele>
        <time>2020-06-03T14:05:12Z</time>
      </trkpt>
      <trkpt lat="46.52219" lon="-1.80485">
        <ele>3.1</ele>
        <time>2020-06-03T14:05:13Z</time>
      </trkpt>
      <trkpt lat="46.52219" lon="-1.80492">
        <ele>3.1</ele>
        <time>2020-06-03T14:05:14Z</time>
      </trkpt>
      <trkpt lat="46.52218" lon="-1.80499">
        <ele>3.1</ele>
        <time>2020-06-03T14:05:15Z</time>
      </trkpt>
      <trkpt lat="46.52218" lon="-1.80505">
        <ele>3.1</ele>
        <time>2020-06-03T14:05:16Z</time>
      </trkpt>
      <trkpt lat="46.52218" lon="-1.80512">
        <ele>3.1</ele>
        <time>2020-06-03T14:05:17Z</time>
      </trkpt>
      <trkpt lat="46.52218" lon="-1.80519">
        <ele>3.1</ele>
        <time>2020-06-03T14:05:18Z</time>
      </trkpt>
      <trkpt lat="46.52219" lon="-1.80527">
        <ele>3.1</ele>
        <time>2020-06-03T14:05:19Z</time>
      </trkpt>
      <trkpt lat="46.5222" lon="-1.80534">
        <ele>3.1</ele>
        <time>2020-06-03T14:05:20Z</time>
      </trkpt>
      <trkpt lat="46.5222" lon="-1.80541">
        <ele>3</ele>
        <time>2020-06-03T14:05:21Z</time>
      </trkpt>
      <trkpt lat="46.52221" lon="-1.80548">
        <ele>3</ele>
        <time>2020-06-03T14:05:22Z</time>
      </trkpt>
      <trkpt lat="46.52224" lon="-1.80554">
        <ele>3</ele>
        <time>2020-06-03T14:05:23Z</time>
      </trkpt>
      <trkpt lat="46.52228" lon="-1.80558">
        <ele>3</ele>
        <time>2020-06-03T14:05:24Z</time>
      </trkpt>
      <trkpt lat="46.52232" lon="-1.80562">
        <ele>3</ele>
        <time>2020-06-03T14:05:25Z</time>
      </trkpt>
      <trkpt lat="46.52235" lon="-1.80566">
        <ele>3</ele>
        <time>2020-06-03T14:05:26Z</time>
      </trkpt>
      <trkpt lat="46.52239" lon="-1.8057">
        <ele>3</ele>
        <time>2020-06-03T14:05:27Z</time>
      </trkpt>
      <trkpt lat="46.52243" lon="-1.80574">
        <ele>3</ele>
        <time>2020-06-03T14:05:28Z</time>
      </trkpt>
      <trkpt lat="46.52247" lon="-1.80579">
        <ele>2.9</ele>
        <time>2020-06-03T14:05:29Z</time>
      </trkpt>
      <trkpt lat="46.52251" lon="-1.80583">
        <ele>2.9</ele>
        <time>2020-06-03T14:05:30Z</time>
      </trkpt>
      <trkpt lat="46.52255" lon="-1.80586">
        <ele>2.9</ele>
        <time>2020-06-03T14:05:31Z</time>
      </trkpt>
      <trkpt lat="46.52259" lon="-1.8059">
        <ele>2.9</ele>
        <time>2020-06-03T14:05:32Z</time>
      </trkpt>
      <trkpt lat="46.52263" lon="-1.80595">
        <ele>2.9</ele>
        <time>2020-06-03T14:05:33Z</time>
      </trkpt>
      <trkpt lat="46.52267" lon="-1.80599">
        <ele>2.9</ele>
        <time>2020-06-03T14:05:34Z</time>
      </trkpt>
      <trkpt lat="46.52272" lon="-1.80602">
        <ele>2.8</ele>
        <time>2020-06-03T14:05:35Z</time>
      </trkpt>
      <trkpt lat="46.52277" lon="-1.80605">
        <ele>2.8</ele>
        <time>2020-06-03T14:05:36Z</time>
      </trkpt>
      <trkpt lat="46.52282" lon="-1.80608">
        <ele>2.8</ele>
        <time>2020-06-03T14:05:37Z</time>
      </trkpt>
      <trkpt lat="46.52286" lon="-1.80611">
        <ele>2.8</ele>
        <time>2020-06-03T14:05:38Z</time>
      </trkpt>
      <trkpt lat="46.52291" lon="-1.80615">
        <ele>2.8</ele>
        <time>2020-06-03T14:05:39Z</time>
      </trkpt>
      <trkpt lat="46.52296" lon="-1.80618">
        <ele>2.8</ele>
        <time>2020-06-03T14:05:40Z</time>
      </trkpt>
      <trkpt lat="46.523" lon="-1.8062">
        <ele>2.8</ele>
        <time>2020-06-03T14:05:41Z</time>
      </trkpt>
      <trkpt lat="46.52304" lon="-1.80623">
        <ele>2.8</ele>
        <time>2020-06-03T14:05:42Z</time>
      </trkpt>
      <trkpt lat="46.52308" lon="-1.80625">
        <ele>2.8</ele>
        <time>2020-06-03T14:05:43Z</time>
      </trkpt>
      <trkpt lat="46.52313" lon="-1.80626">
        <ele>2.8</ele>
        <time>2020-06-03T14:05:44Z</time>
      </trkpt>
      <trkpt lat="46.52317" lon="-1.80628">
        <ele>2.8</ele>
        <time>2020-06-03T14:05:45Z</time>
      </trkpt>
      <trkpt lat="46.52322" lon="-1.80631">
        <ele>2.8</ele>
        <time>2020-06-03T14:05:46Z</time>
      </trkpt>
      <trkpt lat="46.52326" lon="-1.80634">
        <ele>2.8</ele>
        <time>2020-06-03T14:05:47Z</time>
      </trkpt>
      <trkpt lat="46.52331" lon="-1.80635">
        <ele>2.8</ele>
        <time>2020-06-03T14:05:48Z</time>
      </trkpt>
      <trkpt lat="46.52335" lon="-1.80638">
        <ele>2.8</ele>
        <time>2020-06-03T14:05:49Z</time>
      </trkpt>
      <trkpt lat="46.52339" lon="-1.80641">
        <ele>2.8</ele>
        <time>2020-06-03T14:05:50Z</time>
      </trkpt>
      <trkpt lat="46.52344" lon="-1.80643">
        <ele>2.7</ele>
        <time>2020-06-03T14:05:51Z</time>
      </trkpt>
      <trkpt lat="46.52348" lon="-1.80646">
        <ele>2.7</ele>
        <time>2020-06-03T14:05:52Z</time>
      </trkpt>
      <trkpt lat="46.52352" lon="-1.8065">
        <ele>2.7</ele>
        <time>2020-06-03T14:05:53Z</time>
      </trkpt>
      <trkpt lat="46.52356" lon="-1.80654">
        <ele>2.7</ele>
        <time>2020-06-03T14:05:54Z</time>
      </trkpt>
      <trkpt lat="46.5236" lon="-1.80656">
        <ele>2.7</ele>
        <time>2020-06-03T14:05:55Z</time>
      </trkpt>
      <trkpt lat="46.52364" lon="-1.8066">
        <ele>2.7</ele>
        <time>2020-06-03T14:05:56Z</time>
      </trkpt>
      <trkpt lat="46.52368" lon="-1.80664">
        <ele>2.7</ele>
        <time>2020-06-03T14:05:57Z</time>
      </trkpt>
      <trkpt lat="46.52372" lon="-1.80668">
        <ele>2.7</ele>
        <time>2020-06-03T14:05:58Z</time>
      </trkpt>
      <trkpt lat="46.52376" lon="-1.80672">
        <ele>2.7</ele>
        <time>2020-06-03T14:05:59Z</time>
      </trkpt>
      <trkpt lat="46.52379" lon="-1.80676">
        <ele>2.7</ele>
        <time>2020-06-03T14:06:00Z</time>
      </trkpt>
      <trkpt lat="46.52383" lon="-1.80679">
        <ele>2.7</ele>
        <time>2020-06-03T14:06:01Z</time>
      </trkpt>
      <trkpt lat="46.52386" lon="-1.80684">
        <ele>2.7</ele>
        <time>2020-06-03T14:06:02Z</time>
      </trkpt>
      <trkpt lat="46.52389" lon="-1.80689">
        <ele>2.7</ele>
        <time>2020-06-03T14:06:03Z</time>
      </trkpt>
      <trkpt lat="46.52392" lon="-1.80693">
        <ele>2.7</ele>
        <time>2020-06-03T14:06:04Z</time>
      </trkpt>
      <trkpt lat="46.52395" lon="-1.80698">
        <ele>2.7</ele>
        <time>2020-06-03T14:06:05Z</time>
      </trkpt>
      <trkpt lat="46.52398" lon="-1.80702">
        <ele>2.8</ele>
        <time>2020-06-03T14:06:06Z</time>
      </trkpt>
      <trkpt lat="46.52401" lon="-1.80706">
        <ele>2.8</ele>
        <time>2020-06-03T14:06:07Z</time>
      </trkpt>
      <trkpt lat="46.52405" lon="-1.80711">
        <ele>2.9</ele>
        <time>2020-06-03T14:06:08Z</time>
      </trkpt>
      <trkpt lat="46.52409" lon="-1.80715">
        <ele>2.9</ele>
        <time>2020-06-03T14:06:09Z</time>
      </trkpt>
      <trkpt lat="46.52412" lon="-1.8072">
        <ele>3</ele>
        <time>2020-06-03T14:06:10Z</time>
      </trkpt>
      <trkpt lat="46.52416" lon="-1.80725">
        <ele>3</ele>
        <time>2020-06-03T14:06:11Z</time>
      </trkpt>
      <trkpt lat="46.5242" lon="-1.80729">
        <ele>3.1</ele>
        <time>2020-06-03T14:06:12Z</time>
      </trkpt>
      <trkpt lat="46.52423" lon="-1.80733">
        <ele>3.1</ele>
        <time>2020-06-03T14:06:13Z</time>
      </trkpt>
      <trkpt lat="46.52427" lon="-1.80736">
        <ele>3.2</ele>
        <time>2020-06-03T14:06:14Z</time>
      </trkpt>
      <trkpt lat="46.5243" lon="-1.8074">
        <ele>3.2</ele>
        <time>2020-06-03T14:06:15Z</time>
      </trkpt>
      <trkpt lat="46.52432" lon="-1.80743">
        <ele>3.2</ele>
        <time>2020-06-03T14:06:16Z</time>
      </trkpt>
      <trkpt lat="46.52435" lon="-1.80748">
        <ele>3.3</ele>
        <time>2020-06-03T14:06:17Z</time>
      </trkpt>
      <trkpt lat="46.52438" lon="-1.80753">
        <ele>3.3</ele>
        <time>2020-06-03T14:06:18Z</time>
      </trkpt>
      <trkpt lat="46.52439" lon="-1.80759">
        <ele>3.4</ele>
        <time>2020-06-03T14:06:19Z</time>
      </trkpt>
      <trkpt lat="46.52441" lon="-1.80764">
        <ele>3.4</ele>
        <time>2020-06-03T14:06:20Z</time>
      </trkpt>
      <trkpt lat="46.52441" lon="-1.8077">
        <ele>3.4</ele>
        <time>2020-06-03T14:06:21Z</time>
      </trkpt>
      <trkpt lat="46.52441" lon="-1.80776">
        <ele>3.4</ele>
        <time>2020-06-03T14:06:22Z</time>
      </trkpt>
      <trkpt lat="46.52441" lon="-1.80783">
        <ele>3.5</ele>
        <time>2020-06-03T14:06:23Z</time>
      </trkpt>
      <trkpt lat="46.5244" lon="-1.80789">
        <ele>3.5</ele>
        <time>2020-06-03T14:06:24Z</time>
      </trkpt>
      <trkpt lat="46.5244" lon="-1.80794">
        <ele>3.6</ele>
        <time>2020-06-03T14:06:25Z</time>
      </trkpt>
      <trkpt lat="46.52439" lon="-1.808">
        <ele>3.6</ele>
        <time>2020-06-03T14:06:26Z</time>
      </trkpt>
      <trkpt lat="46.52438" lon="-1.80807">
        <ele>3.7</ele>
        <time>2020-06-03T14:06:27Z</time>
      </trkpt>
      <trkpt lat="46.52438" lon="-1.80813">
        <ele>3.8</ele>
        <time>2020-06-03T14:06:28Z</time>
      </trkpt>
      <trkpt lat="46.52437" lon="-1.80818">
        <ele>3.8</ele>
        <time>2020-06-03T14:06:29Z</time>
      </trkpt>
      <trkpt lat="46.52437" lon="-1.80824">
        <ele>3.9</ele>
        <time>2020-06-03T14:06:30Z</time>
      </trkpt>
      <trkpt lat="46.52436" lon="-1.80829">
        <ele>3.9</ele>
        <time>2020-06-03T14:06:31Z</time>
      </trkpt>
      <trkpt lat="46.52434" lon="-1.80835">
        <ele>4</ele>
        <time>2020-06-03T14:06:32Z</time>
      </trkpt>
      <trkpt lat="46.52432" lon="-1.80841">
        <ele>4.1</ele>
        <time>2020-06-03T14:06:33Z</time>
      </trkpt>
      <trkpt lat="46.52431" lon="-1.80847">
        <ele>4.1</ele>
        <time>2020-06-03T14:06:34Z</time>
      </trkpt>
      <trkpt lat="46.5243" lon="-1.80854">
        <ele>4.1</ele>
        <time>2020-06-03T14:06:35Z</time>
      </trkpt>
      <trkpt lat="46.52429" lon="-1.80861">
        <ele>4.1</ele>
        <time>2020-06-03T14:06:36Z</time>
      </trkpt>
      <trkpt lat="46.52428" lon="-1.80868">
        <ele>4.1</ele>
        <time>2020-06-03T14:06:37Z</time>
      </trkpt>
      <trkpt lat="46.52428" lon="-1.80874">
        <ele>4.1</ele>
        <time>2020-06-03T14:06:38Z</time>
      </trkpt>
      <trkpt lat="46.52428" lon="-1.80881">
        <ele>4.1</ele>
        <time>2020-06-03T14:06:39Z</time>
      </trkpt>
      <trkpt lat="46.52428" lon="-1.80888">
        <ele>4.2</ele>
        <time>2020-06-03T14:06:40Z</time>
      </trkpt>
      <trkpt lat="46.52429" lon="-1.80895">
        <ele>4.2</ele>
        <time>2020-06-03T14:06:41Z</time>
      </trkpt>
      <trkpt lat="46.52428" lon="-1.80901">
        <ele>4.2</ele>
        <time>2020-06-03T14:06:42Z</time>
      </trkpt>
      <trkpt lat="46.52428" lon="-1.80908">
        <ele>4.3</ele>
        <time>2020-06-03T14:06:43Z</time>
      </trkpt>
      <trkpt lat="46.52428" lon="-1.80915">
        <ele>4.3</ele>
        <time>2020-06-03T14:06:44Z</time>
      </trkpt>
      <trkpt lat="46.52428" lon="-1.80921">
        <ele>4.3</ele>
        <time>2020-06-03T14:06:45Z</time>
      </trkpt>
      <trkpt lat="46.52427" lon="-1.80927">
        <ele>4.4</ele>
        <time>2020-06-03T14:06:46Z</time>
      </trkpt>
      <trkpt lat="46.52427" lon="-1.80933">
        <ele>4.4</ele>
        <time>2020-06-03T14:06:47Z</time>
      </trkpt>
      <trkpt lat="46.52426" lon="-1.8094">
        <ele>4.4</ele>
        <time>2020-06-03T14:06:48Z</time>
      </trkpt>
      <trkpt lat="46.52425" lon="-1.80947">
        <ele>4.4</ele>
        <time>2020-06-03T14:06:49Z</time>
      </trkpt>
      <trkpt lat="46.52424" lon="-1.80954">
        <ele>4.4</ele>
        <time>2020-06-03T14:06:50Z</time>
      </trkpt>
      <trkpt lat="46.52424" lon="-1.8096">
        <ele>4.4</ele>
        <time>2020-06-03T14:06:51Z</time>
      </trkpt>
      <trkpt lat="46.52423" lon="-1.80965">
        <ele>4.5</ele>
        <time>2020-06-03T14:06:52Z</time>
      </trkpt>
      <trkpt lat="46.52423" lon="-1.8097">
        <ele>4.5</ele>
        <time>2020-06-03T14:06:53Z</time>
      </trkpt>
      <trkpt lat="46.52423" lon="-1.80976">
        <ele>4.5</ele>
        <time>2020-06-03T14:06:54Z</time>
      </trkpt>
      <trkpt lat="46.52423" lon="-1.80981">
        <ele>4.5</ele>
        <time>2020-06-03T14:06:55Z</time>
      </trkpt>
      <trkpt lat="46.52422" lon="-1.80987">
        <ele>4.5</ele>
        <time>2020-06-03T14:06:56Z</time>
      </trkpt>
      <trkpt lat="46.52421" lon="-1.80993">
        <ele>4.6</ele>
        <time>2020-06-03T14:06:57Z</time>
      </trkpt>
      <trkpt lat="46.5242" lon="-1.80997">
        <ele>4.6</ele>
        <time>2020-06-03T14:06:58Z</time>
      </trkpt>
      <trkpt lat="46.52421" lon="-1.80999">
        <ele>4.6</ele>
        <time>2020-06-03T14:06:59Z</time>
      </trkpt>
      <trkpt lat="46.52422" lon="-1.81">
        <ele>4.6</ele>
        <time>2020-06-03T14:07:00Z</time>
      </trkpt>
      <trkpt lat="46.52424" lon="-1.81">
        <ele>4.6</ele>
        <time>2020-06-03T14:07:01Z</time>
      </trkpt>
      <trkpt lat="46.52424" lon="-1.80998">
        <ele>4.6</ele>
        <time>2020-06-03T14:07:02Z</time>
      </trkpt>
      <trkpt lat="46.52425" lon="-1.80997">
        <ele>4.6</ele>
        <time>2020-06-03T14:07:03Z</time>
      </trkpt>
      <trkpt lat="46.52426" lon="-1.80996">
        <ele>4.6</ele>
        <time>2020-06-03T14:07:04Z</time>
      </trkpt>
      <trkpt lat="46.52425" lon="-1.80997">
        <ele>4.5</ele>
        <time>2020-06-03T14:07:05Z</time>
      </trkpt>
      <trkpt lat="46.52425" lon="-1.80997">
        <ele>4.5</ele>
        <time>2020-06-03T14:07:06Z</time>
      </trkpt>
      <trkpt lat="46.52425" lon="-1.80997">
        <ele>4.5</ele>
        <time>2020-06-03T14:07:07Z</time>
      </trkpt>
      <trkpt lat="46.52425" lon="-1.80997">
        <ele>4.5</ele>
        <time>2020-06-03T14:07:08Z</time>
      </trkpt>
      <trkpt lat="46.52425" lon="-1.80997">
        <ele>4.5</ele>
        <time>2020-06-03T14:07:09Z</time>
      </trkpt>
      <trkpt lat="46.52425" lon="-1.80997">
        <ele>4.5</ele>
        <time>2020-06-03T14:07:10Z</time>
      </trkpt>
      <trkpt lat="46.52425" lon="-1.80997">
        <ele>4.5</ele>
        <time>2020-06-03T14:07:11Z</time>
      </trkpt>
      <trkpt lat="46.52426" lon="-1.81002">
        <ele>4.5</ele>
        <time>2020-06-03T14:07:16Z</time>
      </trkpt>
      <trkpt lat="46.52426" lon="-1.81002">
        <ele>4.5</ele>
        <time>2020-06-03T14:07:17Z</time>
      </trkpt>
      <trkpt lat="46.52427" lon="-1.81002">
        <ele>4.5</ele>
        <time>2020-06-03T14:07:18Z</time>
      </trkpt>
      <trkpt lat="46.52429" lon="-1.80999">
        <ele>4.5</ele>
        <time>2020-06-03T14:07:19Z</time>
      </trkpt>
      <trkpt lat="46.5243" lon="-1.80998">
        <ele>4.5</ele>
        <time>2020-06-03T14:07:20Z</time>
      </trkpt>
      <trkpt lat="46.52431" lon="-1.80991">
        <ele>4.5</ele>
        <time>2020-06-03T14:07:21Z</time>
      </trkpt>
      <trkpt lat="46.52431" lon="-1.80989">
        <ele>4.5</ele>
        <time>2020-06-03T14:07:22Z</time>
      </trkpt>
      <trkpt lat="46.52432" lon="-1.80983">
        <ele>4.5</ele>
        <time>2020-06-03T14:07:23Z</time>
      </trkpt>
      <trkpt lat="46.52433" lon="-1.80978">
        <ele>4.4</ele>
        <time>2020-06-03T14:07:24Z</time>
      </trkpt>
      <trkpt lat="46.52433" lon="-1.80972">
        <ele>4.4</ele>
        <time>2020-06-03T14:07:25Z</time>
      </trkpt>
      <trkpt lat="46.52433" lon="-1.80967">
        <ele>4.4</ele>
        <time>2020-06-03T14:07:26Z</time>
      </trkpt>
      <trkpt lat="46.52433" lon="-1.80963">
        <ele>4.4</ele>
        <time>2020-06-03T14:07:27Z</time>
      </trkpt>
      <trkpt lat="46.52433" lon="-1.80957">
        <ele>4.4</ele>
        <time>2020-06-03T14:07:28Z</time>
      </trkpt>
      <trkpt lat="46.52433" lon="-1.80951">
        <ele>4.4</ele>
        <time>2020-06-03T14:07:29Z</time>
      </trkpt>
      <trkpt lat="46.52433" lon="-1.80946">
        <ele>4.4</ele>
        <time>2020-06-03T14:07:30Z</time>
      </trkpt>
      <trkpt lat="46.52433" lon="-1.80941">
        <ele>4.4</ele>
        <time>2020-06-03T14:07:31Z</time>
      </trkpt>
      <trkpt lat="46.52433" lon="-1.80936">
        <ele>4.4</ele>
        <time>2020-06-03T14:07:32Z</time>
      </trkpt>
      <trkpt lat="46.52434" lon="-1.80931">
        <ele>4.4</ele>
        <time>2020-06-03T14:07:33Z</time>
      </trkpt>
      <trkpt lat="46.52433" lon="-1.80925">
        <ele>4.3</ele>
        <time>2020-06-03T14:07:34Z</time>
      </trkpt>
      <trkpt lat="46.52433" lon="-1.8092">
        <ele>4.3</ele>
        <time>2020-06-03T14:07:35Z</time>
      </trkpt>
      <trkpt lat="46.52431" lon="-1.80915">
        <ele>4.3</ele>
        <time>2020-06-03T14:07:36Z</time>
      </trkpt>
      <trkpt lat="46.5243" lon="-1.8091">
        <ele>4.3</ele>
        <time>2020-06-03T14:07:37Z</time>
      </trkpt>
      <trkpt lat="46.5243" lon="-1.80906">
        <ele>4.3</ele>
        <time>2020-06-03T14:07:38Z</time>
      </trkpt>
      <trkpt lat="46.5243" lon="-1.80902">
        <ele>4.2</ele>
        <time>2020-06-03T14:07:39Z</time>
      </trkpt>
      <trkpt lat="46.52431" lon="-1.80897">
        <ele>4.2</ele>
        <time>2020-06-03T14:07:40Z</time>
      </trkpt>
      <trkpt lat="46.5243" lon="-1.80895">
        <ele>4.2</ele>
        <time>2020-06-03T14:07:41Z</time>
      </trkpt>
      <trkpt lat="46.5243" lon="-1.80891">
        <ele>4.2</ele>
        <time>2020-06-03T14:07:42Z</time>
      </trkpt>
      <trkpt lat="46.52431" lon="-1.80887">
        <ele>4.2</ele>
        <time>2020-06-03T14:07:43Z</time>
      </trkpt>
      <trkpt lat="46.52431" lon="-1.80882">
        <ele>4.1</ele>
        <time>2020-06-03T14:07:44Z</time>
      </trkpt>
      <trkpt lat="46.52432" lon="-1.80877">
        <ele>4.1</ele>
        <time>2020-06-03T14:07:45Z</time>
      </trkpt>
      <trkpt lat="46.52432" lon="-1.80875">
        <ele>4.1</ele>
        <time>2020-06-03T14:07:46Z</time>
      </trkpt>
      <trkpt lat="46.52433" lon="-1.80871">
        <ele>4.1</ele>
        <time>2020-06-03T14:07:47Z</time>
      </trkpt>
      <trkpt lat="46.52433" lon="-1.80866">
        <ele>4.1</ele>
        <time>2020-06-03T14:07:48Z</time>
      </trkpt>
      <trkpt lat="46.52433" lon="-1.8086">
        <ele>4.1</ele>
        <time>2020-06-03T14:07:49Z</time>
      </trkpt>
      <trkpt lat="46.52434" lon="-1.80856">
        <ele>4.1</ele>
        <time>2020-06-03T14:07:50Z</time>
      </trkpt>
      <trkpt lat="46.52435" lon="-1.80852">
        <ele>4.1</ele>
        <time>2020-06-03T14:07:51Z</time>
      </trkpt>
      <trkpt lat="46.52435" lon="-1.80847">
        <ele>4.1</ele>
        <time>2020-06-03T14:07:52Z</time>
      </trkpt>
      <trkpt lat="46.52436" lon="-1.80843">
        <ele>4.1</ele>
        <time>2020-06-03T14:07:53Z</time>
      </trkpt>
      <trkpt lat="46.52436" lon="-1.80838">
        <ele>4</ele>
        <time>2020-06-03T14:07:54Z</time>
      </trkpt>
      <trkpt lat="46.52437" lon="-1.80832">
        <ele>4</ele>
        <time>2020-06-03T14:07:55Z</time>
      </trkpt>
      <trkpt lat="46.52438" lon="-1.80826">
        <ele>3.9</ele>
        <time>2020-06-03T14:07:56Z</time>
      </trkpt>
      <trkpt lat="46.52439" lon="-1.8082">
        <ele>3.9</ele>
        <time>2020-06-03T14:07:57Z</time>
      </trkpt>
      <trkpt lat="46.52439" lon="-1.80813">
        <ele>3.8</ele>
        <time>2020-06-03T14:07:58Z</time>
      </trkpt>
      <trkpt lat="46.5244" lon="-1.80807">
        <ele>3.7</ele>
        <time>2020-06-03T14:07:59Z</time>
      </trkpt>
      <trkpt lat="46.5244" lon="-1.80801">
        <ele>3.7</ele>
        <time>2020-06-03T14:08:00Z</time>
      </trkpt>
      <trkpt lat="46.5244" lon="-1.80795">
        <ele>3.6</ele>
        <time>2020-06-03T14:08:01Z</time>
      </trkpt>
      <trkpt lat="46.5244" lon="-1.80789">
        <ele>3.5</ele>
        <time>2020-06-03T14:08:02Z</time>
      </trkpt>
      <trkpt lat="46.5244" lon="-1.80782">
        <ele>3.5</ele>
        <time>2020-06-03T14:08:03Z</time>
      </trkpt>
      <trkpt lat="46.52441" lon="-1.80775">
        <ele>3.5</ele>
        <time>2020-06-03T14:08:04Z</time>
      </trkpt>
      <trkpt lat="46.52441" lon="-1.80769">
        <ele>3.4</ele>
        <time>2020-06-03T14:08:05Z</time>
      </trkpt>
      <trkpt lat="46.52441" lon="-1.80763">
        <ele>3.4</ele>
        <time>2020-06-03T14:08:06Z</time>
      </trkpt>
      <trkpt lat="46.52442" lon="-1.80758">
        <ele>3.4</ele>
        <time>2020-06-03T14:08:07Z</time>
      </trkpt>
      <trkpt lat="46.52444" lon="-1.80753">
        <ele>3.3</ele>
        <time>2020-06-03T14:08:08Z</time>
      </trkpt>
      <trkpt lat="46.52447" lon="-1.8075">
        <ele>3.3</ele>
        <time>2020-06-03T14:08:09Z</time>
      </trkpt>
      <trkpt lat="46.52451" lon="-1.80753">
        <ele>3.2</ele>
        <time>2020-06-03T14:08:10Z</time>
      </trkpt>
      <trkpt lat="46.52456" lon="-1.80756">
        <ele>3.1</ele>
        <time>2020-06-03T14:08:11Z</time>
      </trkpt>
      <trkpt lat="46.52462" lon="-1.80759">
        <ele>3.1</ele>
        <time>2020-06-03T14:08:12Z</time>
      </trkpt>
      <trkpt lat="46.52467" lon="-1.80761">
        <ele>3</ele>
        <time>2020-06-03T14:08:13Z</time>
      </trkpt>
      <trkpt lat="46.52473" lon="-1.80762">
        <ele>3</ele>
        <time>2020-06-03T14:08:14Z</time>
      </trkpt>
      <trkpt lat="46.52479" lon="-1.80764">
        <ele>2.9</ele>
        <time>2020-06-03T14:08:15Z</time>
      </trkpt>
      <trkpt lat="46.52483" lon="-1.80765">
        <ele>2.9</ele>
        <time>2020-06-03T14:08:16Z</time>
      </trkpt>
      <trkpt lat="46.52487" lon="-1.80767">
        <ele>2.9</ele>
        <time>2020-06-03T14:08:17Z</time>
      </trkpt>
      <trkpt lat="46.52492" lon="-1.80769">
        <ele>2.9</ele>
        <time>2020-06-03T14:08:18Z</time>
      </trkpt>
      <trkpt lat="46.52495" lon="-1.8077">
        <ele>2.9</ele>
        <time>2020-06-03T14:08:19Z</time>
      </trkpt>
      <trkpt lat="46.52498" lon="-1.80772">
        <ele>2.9</ele>
        <time>2020-06-03T14:08:20Z</time>
      </trkpt>
      <trkpt lat="46.52502" lon="-1.80773">
        <ele>3</ele>
        <time>2020-06-03T14:08:21Z</time>
      </trkpt>
      <trkpt lat="46.52503" lon="-1.80773">
        <ele>3</ele>
        <time>2020-06-03T14:08:22Z</time>
      </trkpt>
      <trkpt lat="46.52506" lon="-1.80773">
        <ele>3</ele>
        <time>2020-06-03T14:08:23Z</time>
      </trkpt>
      <trkpt lat="46.52507" lon="-1.80772">
        <ele>3</ele>
        <time>2020-06-03T14:08:24Z</time>
      </trkpt>
      <trkpt lat="46.52509" lon="-1.80768">
        <ele>3</ele>
        <time>2020-06-03T14:08:25Z</time>
      </trkpt>
      <trkpt lat="46.52509" lon="-1.80764">
        <ele>3</ele>
        <time>2020-06-03T14:08:26Z</time>
      </trkpt>
      <trkpt lat="46.52509" lon="-1.80759">
        <ele>3</ele>
        <time>2020-06-03T14:08:27Z</time>
      </trkpt>
      <trkpt lat="46.5251" lon="-1.80754">
        <ele>3.1</ele>
        <time>2020-06-03T14:08:28Z</time>
      </trkpt>
      <trkpt lat="46.52511" lon="-1.80749">
        <ele>3.1</ele>
        <time>2020-06-03T14:08:29Z</time>
      </trkpt>
      <trkpt lat="46.52511" lon="-1.80743">
        <ele>3.2</ele>
        <time>2020-06-03T14:08:30Z</time>
      </trkpt>
      <trkpt lat="46.52512" lon="-1.80737">
        <ele>3.2</ele>
        <time>2020-06-03T14:08:31Z</time>
      </trkpt>
      <trkpt lat="46.52512" lon="-1.80731">
        <ele>3.2</ele>
        <time>2020-06-03T14:08:32Z</time>
      </trkpt>
      <trkpt lat="46.52513" lon="-1.80725">
        <ele>3.3</ele>
        <time>2020-06-03T14:08:33Z</time>
      </trkpt>
      <trkpt lat="46.52514" lon="-1.80719">
        <ele>3.3</ele>
        <time>2020-06-03T14:08:34Z</time>
      </trkpt>
      <trkpt lat="46.52515" lon="-1.80713">
        <ele>3.4</ele>
        <time>2020-06-03T14:08:35Z</time>
      </trkpt>
      <trkpt lat="46.52516" lon="-1.80708">
        <ele>3.4</ele>
        <time>2020-06-03T14:08:36Z</time>
      </trkpt>
      <trkpt lat="46.52519" lon="-1.80704">
        <ele>3.4</ele>
        <time>2020-06-03T14:08:37Z</time>
      </trkpt>
      <trkpt lat="46.52522" lon="-1.807">
        <ele>3.5</ele>
        <time>2020-06-03T14:08:38Z</time>
      </trkpt>
      <trkpt lat="46.52526" lon="-1.80697">
        <ele>3.5</ele>
        <time>2020-06-03T14:08:39Z</time>
      </trkpt>
      <trkpt lat="46.52532" lon="-1.80695">
        <ele>3.5</ele>
        <time>2020-06-03T14:08:40Z</time>
      </trkpt>
      <trkpt lat="46.52537" lon="-1.80693">
        <ele>3.6</ele>
        <time>2020-06-03T14:08:41Z</time>
      </trkpt>
      <trkpt lat="46.52542" lon="-1.80691">
        <ele>3.6</ele>
        <time>2020-06-03T14:08:42Z</time>
      </trkpt>
      <trkpt lat="46.52547" lon="-1.8069">
        <ele>3.7</ele>
        <time>2020-06-03T14:08:43Z</time>
      </trkpt>
      <trkpt lat="46.52552" lon="-1.80688">
        <ele>3.7</ele>
        <time>2020-06-03T14:08:44Z</time>
      </trkpt>
      <trkpt lat="46.52556" lon="-1.80687">
        <ele>3.7</ele>
        <time>2020-06-03T14:08:45Z</time>
      </trkpt>
      <trkpt lat="46.52561" lon="-1.80686">
        <ele>3.7</ele>
        <time>2020-06-03T14:08:46Z</time>
      </trkpt>
      <trkpt lat="46.52567" lon="-1.80686">
        <ele>3.7</ele>
        <time>2020-06-03T14:08:47Z</time>
      </trkpt>
      <trkpt lat="46.52572" lon="-1.80685">
        <ele>3.6</ele>
        <time>2020-06-03T14:08:48Z</time>
      </trkpt>
      <trkpt lat="46.52577" lon="-1.80683">
        <ele>3.6</ele>
        <time>2020-06-03T14:08:49Z</time>
      </trkpt>
      <trkpt lat="46.5258" lon="-1.80681">
        <ele>3.6</ele>
        <time>2020-06-03T14:08:50Z</time>
      </trkpt>
      <trkpt lat="46.52585" lon="-1.8068">
        <ele>3.6</ele>
        <time>2020-06-03T14:08:51Z</time>
      </trkpt>
      <trkpt lat="46.52589" lon="-1.80679">
        <ele>3.5</ele>
        <time>2020-06-03T14:08:52Z</time>
      </trkpt>
      <trkpt lat="46.52595" lon="-1.80678">
        <ele>3.5</ele>
        <time>2020-06-03T14:08:53Z</time>
      </trkpt>
      <trkpt lat="46.52601" lon="-1.80678">
        <ele>3.5</ele>
        <time>2020-06-03T14:08:54Z</time>
      </trkpt>
      <trkpt lat="46.52607" lon="-1.80679">
        <ele>3.4</ele>
        <time>2020-06-03T14:08:55Z</time>
      </trkpt>
      <trkpt lat="46.52612" lon="-1.80678">
        <ele>3.4</ele>
        <time>2020-06-03T14:08:56Z</time>
      </trkpt>
      <trkpt lat="46.52618" lon="-1.80678">
        <ele>3.4</ele>
        <time>2020-06-03T14:08:57Z</time>
      </trkpt>
      <trkpt lat="46.52623" lon="-1.80679">
        <ele>3.4</ele>
        <time>2020-06-03T14:08:58Z</time>
      </trkpt>
      <trkpt lat="46.52627" lon="-1.80679">
        <ele>3.4</ele>
        <time>2020-06-03T14:08:59Z</time>
      </trkpt>
      <trkpt lat="46.52632" lon="-1.80679">
        <ele>3.4</ele>
        <time>2020-06-03T14:09:00Z</time>
      </trkpt>
      <trkpt lat="46.52637" lon="-1.8068">
        <ele>3.4</ele>
        <time>2020-06-03T14:09:01Z</time>
      </trkpt>
      <trkpt lat="46.52641" lon="-1.8068">
        <ele>3.4</ele>
        <time>2020-06-03T14:09:02Z</time>
      </trkpt>
      <trkpt lat="46.52646" lon="-1.8068">
        <ele>3.4</ele>
        <time>2020-06-03T14:09:03Z</time>
      </trkpt>
      <trkpt lat="46.5265" lon="-1.80681">
        <ele>3.4</ele>
        <time>2020-06-03T14:09:04Z</time>
      </trkpt>
      <trkpt lat="46.52655" lon="-1.80682">
        <ele>3.4</ele>
        <time>2020-06-03T14:09:05Z</time>
      </trkpt>
      <trkpt lat="46.5266" lon="-1.80683">
        <ele>3.4</ele>
        <time>2020-06-03T14:09:06Z</time>
      </trkpt>
      <trkpt lat="46.52665" lon="-1.80684">
        <ele>3.4</ele>
        <time>2020-06-03T14:09:07Z</time>
      </trkpt>
      <trkpt lat="46.5267" lon="-1.80684">
        <ele>3.4</ele>
        <time>2020-06-03T14:09:08Z</time>
      </trkpt>
      <trkpt lat="46.52675" lon="-1.80683">
        <ele>3.4</ele>
        <time>2020-06-03T14:09:09Z</time>
      </trkpt>
      <trkpt lat="46.5268" lon="-1.80683">
        <ele>3.4</ele>
        <time>2020-06-03T14:09:10Z</time>
      </trkpt>
      <trkpt lat="46.52686" lon="-1.80681">
        <ele>3.5</ele>
        <time>2020-06-03T14:09:11Z</time>
      </trkpt>
      <trkpt lat="46.52691" lon="-1.80679">
        <ele>3.5</ele>
        <time>2020-06-03T14:09:12Z</time>
      </trkpt>
      <trkpt lat="46.52697" lon="-1.80677">
        <ele>3.5</ele>
        <time>2020-06-03T14:09:13Z</time>
      </trkpt>
      <trkpt lat="46.52702" lon="-1.80675">
        <ele>3.5</ele>
        <time>2020-06-03T14:09:14Z</time>
      </trkpt>
      <trkpt lat="46.52706" lon="-1.80673">
        <ele>3.5</ele>
        <time>2020-06-03T14:09:15Z</time>
      </trkpt>
      <trkpt lat="46.5271" lon="-1.8067">
        <ele>3.5</ele>
        <time>2020-06-03T14:09:16Z</time>
      </trkpt>
      <trkpt lat="46.52714" lon="-1.8067">
        <ele>3.5</ele>
        <time>2020-06-03T14:09:17Z</time>
      </trkpt>
      <trkpt lat="46.52719" lon="-1.80668">
        <ele>3.5</ele>
        <time>2020-06-03T14:09:18Z</time>
      </trkpt>
      <trkpt lat="46.52724" lon="-1.80665">
        <ele>3.5</ele>
        <time>2020-06-03T14:09:19Z</time>
      </trkpt>
      <trkpt lat="46.52728" lon="-1.80661">
        <ele>3.5</ele>
        <time>2020-06-03T14:09:20Z</time>
      </trkpt>
      <trkpt lat="46.52732" lon="-1.80659">
        <ele>3.5</ele>
        <time>2020-06-03T14:09:21Z</time>
      </trkpt>
      <trkpt lat="46.52736" lon="-1.80656">
        <ele>3.5</ele>
        <time>2020-06-03T14:09:22Z</time>
      </trkpt>
      <trkpt lat="46.5274" lon="-1.80654">
        <ele>3.5</ele>
        <time>2020-06-03T14:09:23Z</time>
      </trkpt>
      <trkpt lat="46.52744" lon="-1.80652">
        <ele>3.5</ele>
        <time>2020-06-03T14:09:24Z</time>
      </trkpt>
      <trkpt lat="46.52748" lon="-1.80648">
        <ele>3.5</ele>
        <time>2020-06-03T14:09:25Z</time>
      </trkpt>
      <trkpt lat="46.52753" lon="-1.80646">
        <ele>3.5</ele>
        <time>2020-06-03T14:09:26Z</time>
      </trkpt>
      <trkpt lat="46.52756" lon="-1.80643">
        <ele>3.5</ele>
        <time>2020-06-03T14:09:27Z</time>
      </trkpt>
      <trkpt lat="46.5276" lon="-1.8064">
        <ele>3.6</ele>
        <time>2020-06-03T14:09:28Z</time>
      </trkpt>
      <trkpt lat="46.52764" lon="-1.80638">
        <ele>3.6</ele>
        <time>2020-06-03T14:09:29Z</time>
      </trkpt>
      <trkpt lat="46.52769" lon="-1.80635">
        <ele>3.6</ele>
        <time>2020-06-03T14:09:30Z</time>
      </trkpt>
      <trkpt lat="46.52773" lon="-1.80632">
        <ele>3.7</ele>
        <time>2020-06-03T14:09:31Z</time>
      </trkpt>
      <trkpt lat="46.52777" lon="-1.80631">
        <ele>3.7</ele>
        <time>2020-06-03T14:09:32Z</time>
      </trkpt>
      <trkpt lat="46.5278" lon="-1.80628">
        <ele>3.7</ele>
        <time>2020-06-03T14:09:33Z</time>
      </trkpt>
      <trkpt lat="46.52782" lon="-1.80625">
        <ele>3.8</ele>
        <time>2020-06-03T14:09:34Z</time>
      </trkpt>
      <trkpt lat="46.52785" lon="-1.80622">
        <ele>3.8</ele>
        <time>2020-06-03T14:09:35Z</time>
      </trkpt>
      <trkpt lat="46.52787" lon="-1.80619">
        <ele>3.8</ele>
        <time>2020-06-03T14:09:36Z</time>
      </trkpt>
      <trkpt lat="46.52789" lon="-1.80615">
        <ele>3.9</ele>
        <time>2020-06-03T14:09:37Z</time>
      </trkpt>
      <trkpt lat="46.52789" lon="-1.80613">
        <ele>3.9</ele>
        <time>2020-06-03T14:09:38Z</time>
      </trkpt>
      <trkpt lat="46.52791" lon="-1.8061">
        <ele>3.9</ele>
        <time>2020-06-03T14:09:39Z</time>
      </trkpt>
      <trkpt lat="46.52792" lon="-1.80609">
        <ele>3.9</ele>
        <time>2020-06-03T14:09:40Z</time>
      </trkpt>
      <trkpt lat="46.52794" lon="-1.80614">
        <ele>4</ele>
        <time>2020-06-03T14:09:41Z</time>
      </trkpt>
      <trkpt lat="46.52795" lon="-1.80616">
        <ele>3.9</ele>
        <time>2020-06-03T14:09:42Z</time>
      </trkpt>
      <trkpt lat="46.52795" lon="-1.80621">
        <ele>3.9</ele>
        <time>2020-06-03T14:09:43Z</time>
      </trkpt>
      <trkpt lat="46.52795" lon="-1.80627">
        <ele>3.9</ele>
        <time>2020-06-03T14:09:44Z</time>
      </trkpt>
      <trkpt lat="46.52794" lon="-1.80633">
        <ele>3.9</ele>
        <time>2020-06-03T14:09:45Z</time>
      </trkpt>
      <trkpt lat="46.52793" lon="-1.80641">
        <ele>3.9</ele>
        <time>2020-06-03T14:09:46Z</time>
      </trkpt>
      <trkpt lat="46.52791" lon="-1.80647">
        <ele>3.9</ele>
        <time>2020-06-03T14:09:47Z</time>
      </trkpt>
      <trkpt lat="46.5279" lon="-1.80653">
        <ele>3.9</ele>
        <time>2020-06-03T14:09:48Z</time>
      </trkpt>
      <trkpt lat="46.52789" lon="-1.80659">
        <ele>3.9</ele>
        <time>2020-06-03T14:09:49Z</time>
      </trkpt>
      <trkpt lat="46.52789" lon="-1.80664">
        <ele>3.9</ele>
        <time>2020-06-03T14:09:50Z</time>
      </trkpt>
      <trkpt lat="46.52788" lon="-1.80669">
        <ele>3.9</ele>
        <time>2020-06-03T14:09:51Z</time>
      </trkpt>
      <trkpt lat="46.52788" lon="-1.80671">
        <ele>3.9</ele>
        <time>2020-06-03T14:09:52Z</time>
      </trkpt>
      <trkpt lat="46.5279" lon="-1.80673">
        <ele>3.9</ele>
        <time>2020-06-03T14:09:53Z</time>
      </trkpt>
      <trkpt lat="46.52791" lon="-1.80674">
        <ele>3.9</ele>
        <time>2020-06-03T14:09:54Z</time>
      </trkpt>
      <trkpt lat="46.52792" lon="-1.80675">
        <ele>3.9</ele>
        <time>2020-06-03T14:09:55Z</time>
      </trkpt>
      <trkpt lat="46.52794" lon="-1.8068">
        <ele>3.8</ele>
        <time>2020-06-03T14:09:56Z</time>
      </trkpt>
      <trkpt lat="46.52795" lon="-1.80682">
        <ele>3.8</ele>
        <time>2020-06-03T14:09:57Z</time>
      </trkpt>
      <trkpt lat="46.52797" lon="-1.80687">
        <ele>3.8</ele>
        <time>2020-06-03T14:09:58Z</time>
      </trkpt>
      <trkpt lat="46.52799" lon="-1.8069">
        <ele>3.8</ele>
        <time>2020-06-03T14:09:59Z</time>
      </trkpt>
      <trkpt lat="46.52801" lon="-1.80694">
        <ele>3.8</ele>
        <time>2020-06-03T14:10:00Z</time>
      </trkpt>
      <trkpt lat="46.52803" lon="-1.80701">
        <ele>3.8</ele>
        <time>2020-06-03T14:10:01Z</time>
      </trkpt>
      <trkpt lat="46.52805" lon="-1.80708">
        <ele>3.8</ele>
        <time>2020-06-03T14:10:02Z</time>
      </trkpt>
      <trkpt lat="46.52807" lon="-1.80715">
        <ele>3.8</ele>
        <time>2020-06-03T14:10:03Z</time>
      </trkpt>
      <trkpt lat="46.52808" lon="-1.80722">
        <ele>3.8</ele>
        <time>2020-06-03T14:10:04Z</time>
      </trkpt>
      <trkpt lat="46.52809" lon="-1.80729">
        <ele>3.8</ele>
        <time>2020-06-03T14:10:05Z</time>
      </trkpt>
      <trkpt lat="46.52809" lon="-1.80735">
        <ele>3.8</ele>
        <time>2020-06-03T14:10:06Z</time>
      </trkpt>
      <trkpt lat="46.52809" lon="-1.80741">
        <ele>3.7</ele>
        <time>2020-06-03T14:10:07Z</time>
      </trkpt>
      <trkpt lat="46.52809" lon="-1.80747">
        <ele>3.7</ele>
        <time>2020-06-03T14:10:08Z</time>
      </trkpt>
      <trkpt lat="46.52809" lon="-1.80753">
        <ele>3.7</ele>
        <time>2020-06-03T14:10:09Z</time>
      </trkpt>
      <trkpt lat="46.5281" lon="-1.80758">
        <ele>3.7</ele>
        <time>2020-06-03T14:10:10Z</time>
      </trkpt>
      <trkpt lat="46.52811" lon="-1.80764">
        <ele>3.7</ele>
        <time>2020-06-03T14:10:11Z</time>
      </trkpt>
      <trkpt lat="46.52813" lon="-1.80768">
        <ele>3.7</ele>
        <time>2020-06-03T14:10:12Z</time>
      </trkpt>
      <trkpt lat="46.52817" lon="-1.80769">
        <ele>3.7</ele>
        <time>2020-06-03T14:10:13Z</time>
      </trkpt>
      <trkpt lat="46.52823" lon="-1.8077">
        <ele>3.7</ele>
        <time>2020-06-03T14:10:14Z</time>
      </trkpt>
      <trkpt lat="46.52829" lon="-1.80771">
        <ele>3.6</ele>
        <time>2020-06-03T14:10:15Z</time>
      </trkpt>
      <trkpt lat="46.52835" lon="-1.80772">
        <ele>3.6</ele>
        <time>2020-06-03T14:10:16Z</time>
      </trkpt>
      <trkpt lat="46.52841" lon="-1.80772">
        <ele>3.6</ele>
        <time>2020-06-03T14:10:17Z</time>
      </trkpt>
      <trkpt lat="46.52846" lon="-1.80773">
        <ele>3.5</ele>
        <time>2020-06-03T14:10:18Z</time>
      </trkpt>
      <trkpt lat="46.52851" lon="-1.80776">
        <ele>3.5</ele>
        <time>2020-06-03T14:10:19Z</time>
      </trkpt>
      <trkpt lat="46.52855" lon="-1.80778">
        <ele>3.5</ele>
        <time>2020-06-03T14:10:20Z</time>
      </trkpt>
      <trkpt lat="46.52859" lon="-1.80781">
        <ele>3.4</ele>
        <time>2020-06-03T14:10:21Z</time>
      </trkpt>
      <trkpt lat="46.52863" lon="-1.80786">
        <ele>3.4</ele>
        <time>2020-06-03T14:10:22Z</time>
      </trkpt>
      <trkpt lat="46.52867" lon="-1.8079">
        <ele>3.4</ele>
        <time>2020-06-03T14:10:23Z</time>
      </trkpt>
      <trkpt lat="46.5287" lon="-1.80795">
        <ele>3.4</ele>
        <time>2020-06-03T14:10:24Z</time>
      </trkpt>
      <trkpt lat="46.52873" lon="-1.80799">
        <ele>3.3</ele>
        <time>2020-06-03T14:10:25Z</time>
      </trkpt>
      <trkpt lat="46.52876" lon="-1.80804">
        <ele>3.3</ele>
        <time>2020-06-03T14:10:26Z</time>
      </trkpt>
      <trkpt lat="46.52879" lon="-1.80808">
        <ele>3.3</ele>
        <time>2020-06-03T14:10:27Z</time>
      </trkpt>
      <trkpt lat="46.52882" lon="-1.80811">
        <ele>3.3</ele>
        <time>2020-06-03T14:10:28Z</time>
      </trkpt>
      <trkpt lat="46.52884" lon="-1.80815">
        <ele>3.3</ele>
        <time>2020-06-03T14:10:29Z</time>
      </trkpt>
      <trkpt lat="46.52887" lon="-1.8082">
        <ele>3.3</ele>
        <time>2020-06-03T14:10:30Z</time>
      </trkpt>
      <trkpt lat="46.5289" lon="-1.80824">
        <ele>3.2</ele>
        <time>2020-06-03T14:10:31Z</time>
      </trkpt>
      <trkpt lat="46.52891" lon="-1.80829">
        <ele>3.2</ele>
        <time>2020-06-03T14:10:32Z</time>
      </trkpt>
      <trkpt lat="46.52894" lon="-1.80834">
        <ele>3.2</ele>
        <time>2020-06-03T14:10:33Z</time>
      </trkpt>
      <trkpt lat="46.52896" lon="-1.80838">
        <ele>3.2</ele>
        <time>2020-06-03T14:10:34Z</time>
      </trkpt>
      <trkpt lat="46.52899" lon="-1.80842">
        <ele>3.2</ele>
        <time>2020-06-03T14:10:35Z</time>
      </trkpt>
      <trkpt lat="46.529" lon="-1.80847">
        <ele>3.2</ele>
        <time>2020-06-03T14:10:36Z</time>
      </trkpt>
      <trkpt lat="46.52901" lon="-1.80853">
        <ele>3.1</ele>
        <time>2020-06-03T14:10:37Z</time>
      </trkpt>
      <trkpt lat="46.52901" lon="-1.8086">
        <ele>3.1</ele>
        <time>2020-06-03T14:10:38Z</time>
      </trkpt>
      <trkpt lat="46.52901" lon="-1.80865">
        <ele>3.1</ele>
        <time>2020-06-03T14:10:39Z</time>
      </trkpt>
      <trkpt lat="46.52901" lon="-1.80871">
        <ele>3.1</ele>
        <time>2020-06-03T14:10:40Z</time>
      </trkpt>
      <trkpt lat="46.52904" lon="-1.80876">
        <ele>3.1</ele>
        <time>2020-06-03T14:10:41Z</time>
      </trkpt>
      <trkpt lat="46.52907" lon="-1.80877">
        <ele>3.1</ele>
        <time>2020-06-03T14:10:42Z</time>
      </trkpt>
      <trkpt lat="46.52911" lon="-1.80878">
        <ele>3</ele>
        <time>2020-06-03T14:10:43Z</time>
      </trkpt>
      <trkpt lat="46.52915" lon="-1.80878">
        <ele>3</ele>
        <time>2020-06-03T14:10:44Z</time>
      </trkpt>
      <trkpt lat="46.52919" lon="-1.80879">
        <ele>3</ele>
        <time>2020-06-03T14:10:45Z</time>
      </trkpt>
      <trkpt lat="46.52925" lon="-1.8088">
        <ele>3</ele>
        <time>2020-06-03T14:10:46Z</time>
      </trkpt>
      <trkpt lat="46.52929" lon="-1.8088">
        <ele>3</ele>
        <time>2020-06-03T14:10:47Z</time>
      </trkpt>
      <trkpt lat="46.52934" lon="-1.8088">
        <ele>3</ele>
        <time>2020-06-03T14:10:48Z</time>
      </trkpt>
      <trkpt lat="46.52939" lon="-1.80881">
        <ele>3</ele>
        <time>2020-06-03T14:10:49Z</time>
      </trkpt>
      <trkpt lat="46.52943" lon="-1.80882">
        <ele>3</ele>
        <time>2020-06-03T14:10:50Z</time>
      </trkpt>
      <trkpt lat="46.52948" lon="-1.80884">
        <ele>3</ele>
        <time>2020-06-03T14:10:51Z</time>
      </trkpt>
      <trkpt lat="46.52952" lon="-1.80885">
        <ele>3</ele>
        <time>2020-06-03T14:10:52Z</time>
      </trkpt>
      <trkpt lat="46.52956" lon="-1.80888">
        <ele>3</ele>
        <time>2020-06-03T14:10:53Z</time>
      </trkpt>
      <trkpt lat="46.5296" lon="-1.8089">
        <ele>3</ele>
        <time>2020-06-03T14:10:54Z</time>
      </trkpt>
      <trkpt lat="46.52965" lon="-1.80892">
        <ele>3</ele>
        <time>2020-06-03T14:10:55Z</time>
      </trkpt>
      <trkpt lat="46.5297" lon="-1.80893">
        <ele>2.9</ele>
        <time>2020-06-03T14:10:56Z</time>
      </trkpt>
      <trkpt lat="46.52976" lon="-1.80894">
        <ele>2.9</ele>
        <time>2020-06-03T14:10:57Z</time>
      </trkpt>
      <trkpt lat="46.52981" lon="-1.80894">
        <ele>2.9</ele>
        <time>2020-06-03T14:10:58Z</time>
      </trkpt>
      <trkpt lat="46.52986" lon="-1.80895">
        <ele>2.9</ele>
        <time>2020-06-03T14:10:59Z</time>
      </trkpt>
      <trkpt lat="46.52991" lon="-1.80895">
        <ele>2.9</ele>
        <time>2020-06-03T14:11:00Z</time>
      </trkpt>
      <trkpt lat="46.52995" lon="-1.80896">
        <ele>2.9</ele>
        <time>2020-06-03T14:11:01Z</time>
      </trkpt>
      <trkpt lat="46.53" lon="-1.80895">
        <ele>2.9</ele>
        <time>2020-06-03T14:11:02Z</time>
      </trkpt>
      <trkpt lat="46.53004" lon="-1.80895">
        <ele>2.9</ele>
        <time>2020-06-03T14:11:03Z</time>
      </trkpt>
      <trkpt lat="46.53008" lon="-1.80896">
        <ele>2.9</ele>
        <time>2020-06-03T14:11:04Z</time>
      </trkpt>
      <trkpt lat="46.53012" lon="-1.80896">
        <ele>2.9</ele>
        <time>2020-06-03T14:11:05Z</time>
      </trkpt>
      <trkpt lat="46.53018" lon="-1.80893">
        <ele>2.9</ele>
        <time>2020-06-03T14:11:06Z</time>
      </trkpt>
      <trkpt lat="46.53023" lon="-1.8089">
        <ele>2.9</ele>
        <time>2020-06-03T14:11:07Z</time>
      </trkpt>
      <trkpt lat="46.53027" lon="-1.80888">
        <ele>2.9</ele>
        <time>2020-06-03T14:11:08Z</time>
      </trkpt>
      <trkpt lat="46.53032" lon="-1.80886">
        <ele>2.9</ele>
        <time>2020-06-03T14:11:09Z</time>
      </trkpt>
      <trkpt lat="46.53037" lon="-1.80884">
        <ele>2.9</ele>
        <time>2020-06-03T14:11:10Z</time>
      </trkpt>
      <trkpt lat="46.53041" lon="-1.80882">
        <ele>2.9</ele>
        <time>2020-06-03T14:11:11Z</time>
      </trkpt>
      <trkpt lat="46.53045" lon="-1.80879">
        <ele>2.9</ele>
        <time>2020-06-03T14:11:12Z</time>
      </trkpt>
      <trkpt lat="46.53049" lon="-1.80874">
        <ele>2.9</ele>
        <time>2020-06-03T14:11:13Z</time>
      </trkpt>
      <trkpt lat="46.53054" lon="-1.80868">
        <ele>2.9</ele>
        <time>2020-06-03T14:11:14Z</time>
      </trkpt>
      <trkpt lat="46.53058" lon="-1.80863">
        <ele>2.9</ele>
        <time>2020-06-03T14:11:15Z</time>
      </trkpt>
      <trkpt lat="46.53062" lon="-1.80858">
        <ele>2.9</ele>
        <time>2020-06-03T14:11:16Z</time>
      </trkpt>
      <trkpt lat="46.53067" lon="-1.80855">
        <ele>2.9</ele>
        <time>2020-06-03T14:11:17Z</time>
      </trkpt>
      <trkpt lat="46.5307" lon="-1.80853">
        <ele>2.9</ele>
        <time>2020-06-03T14:11:18Z</time>
      </trkpt>
      <trkpt lat="46.53072" lon="-1.80852">
        <ele>2.9</ele>
        <time>2020-06-03T14:11:19Z</time>
      </trkpt>
      <trkpt lat="46.53076" lon="-1.80849">
        <ele>3</ele>
        <time>2020-06-03T14:11:20Z</time>
      </trkpt>
      <trkpt lat="46.5308" lon="-1.80846">
        <ele>3</ele>
        <time>2020-06-03T14:11:21Z</time>
      </trkpt>
      <trkpt lat="46.53084" lon="-1.80844">
        <ele>3</ele>
        <time>2020-06-03T14:11:22Z</time>
      </trkpt>
      <trkpt lat="46.53089" lon="-1.80839">
        <ele>3</ele>
        <time>2020-06-03T14:11:23Z</time>
      </trkpt>
      <trkpt lat="46.53093" lon="-1.80836">
        <ele>3</ele>
        <time>2020-06-03T14:11:24Z</time>
      </trkpt>
      <trkpt lat="46.53098" lon="-1.80834">
        <ele>3</ele>
        <time>2020-06-03T14:11:25Z</time>
      </trkpt>
      <trkpt lat="46.53102" lon="-1.80832">
        <ele>3</ele>
        <time>2020-06-03T14:11:26Z</time>
      </trkpt>
      <trkpt lat="46.53106" lon="-1.80829">
        <ele>2.9</ele>
        <time>2020-06-03T14:11:27Z</time>
      </trkpt>
      <trkpt lat="46.53111" lon="-1.80825">
        <ele>2.9</ele>
        <time>2020-06-03T14:11:28Z</time>
      </trkpt>
      <trkpt lat="46.53114" lon="-1.80821">
        <ele>2.9</ele>
        <time>2020-06-03T14:11:29Z</time>
      </trkpt>
      <trkpt lat="46.53118" lon="-1.80816">
        <ele>2.9</ele>
        <time>2020-06-03T14:11:30Z</time>
      </trkpt>
      <trkpt lat="46.53122" lon="-1.80813">
        <ele>2.8</ele>
        <time>2020-06-03T14:11:31Z</time>
      </trkpt>
      <trkpt lat="46.53127" lon="-1.80812">
        <ele>2.8</ele>
        <time>2020-06-03T14:11:32Z</time>
      </trkpt>
      <trkpt lat="46.53131" lon="-1.8081">
        <ele>2.8</ele>
        <time>2020-06-03T14:11:33Z</time>
      </trkpt>
      <trkpt lat="46.53135" lon="-1.80807">
        <ele>2.7</ele>
        <time>2020-06-03T14:11:34Z</time>
      </trkpt>
      <trkpt lat="46.5314" lon="-1.80802">
        <ele>2.7</ele>
        <time>2020-06-03T14:11:35Z</time>
      </trkpt>
      <trkpt lat="46.53145" lon="-1.80797">
        <ele>2.6</ele>
        <time>2020-06-03T14:11:36Z</time>
      </trkpt>
      <trkpt lat="46.53151" lon="-1.80793">
        <ele>2.6</ele>
        <time>2020-06-03T14:11:37Z</time>
      </trkpt>
      <trkpt lat="46.53156" lon="-1.80788">
        <ele>2.6</ele>
        <time>2020-06-03T14:11:38Z</time>
      </trkpt>
      <trkpt lat="46.5316" lon="-1.80784">
        <ele>2.6</ele>
        <time>2020-06-03T14:11:39Z</time>
      </trkpt>
      <trkpt lat="46.53165" lon="-1.80779">
        <ele>2.6</ele>
        <time>2020-06-03T14:11:40Z</time>
      </trkpt>
      <trkpt lat="46.53169" lon="-1.80775">
        <ele>2.6</ele>
        <time>2020-06-03T14:11:41Z</time>
      </trkpt>
      <trkpt lat="46.53173" lon="-1.80771">
        <ele>2.6</ele>
        <time>2020-06-03T14:11:42Z</time>
      </trkpt>
      <trkpt lat="46.53178" lon="-1.80768">
        <ele>2.6</ele>
        <time>2020-06-03T14:11:43Z</time>
      </trkpt>
      <trkpt lat="46.53183" lon="-1.80764">
        <ele>2.6</ele>
        <time>2020-06-03T14:11:44Z</time>
      </trkpt>
      <trkpt lat="46.5319" lon="-1.80762">
        <ele>2.6</ele>
        <time>2020-06-03T14:11:45Z</time>
      </trkpt>
      <trkpt lat="46.53196" lon="-1.8076">
        <ele>2.6</ele>
        <time>2020-06-03T14:11:46Z</time>
      </trkpt>
      <trkpt lat="46.53202" lon="-1.80758">
        <ele>2.6</ele>
        <time>2020-06-03T14:11:47Z</time>
      </trkpt>
      <trkpt lat="46.53208" lon="-1.80756">
        <ele>2.6</ele>
        <time>2020-06-03T14:11:48Z</time>
      </trkpt>
      <trkpt lat="46.53213" lon="-1.80753">
        <ele>2.6</ele>
        <time>2020-06-03T14:11:49Z</time>
      </trkpt>
      <trkpt lat="46.53217" lon="-1.80749">
        <ele>2.6</ele>
        <time>2020-06-03T14:11:50Z</time>
      </trkpt>
      <trkpt lat="46.53222" lon="-1.80746">
        <ele>2.6</ele>
        <time>2020-06-03T14:11:51Z</time>
      </trkpt>
      <trkpt lat="46.53226" lon="-1.80743">
        <ele>2.6</ele>
        <time>2020-06-03T14:11:52Z</time>
      </trkpt>
      <trkpt lat="46.53231" lon="-1.80741">
        <ele>2.6</ele>
        <time>2020-06-03T14:11:53Z</time>
      </trkpt>
      <trkpt lat="46.53236" lon="-1.80738">
        <ele>2.6</ele>
        <time>2020-06-03T14:11:54Z</time>
      </trkpt>
      <trkpt lat="46.5324" lon="-1.80736">
        <ele>2.6</ele>
        <time>2020-06-03T14:11:55Z</time>
      </trkpt>
      <trkpt lat="46.53245" lon="-1.80733">
        <ele>2.6</ele>
        <time>2020-06-03T14:11:56Z</time>
      </trkpt>
      <trkpt lat="46.53248" lon="-1.8073">
        <ele>2.7</ele>
        <time>2020-06-03T14:11:57Z</time>
      </trkpt>
      <trkpt lat="46.53251" lon="-1.80728">
        <ele>2.7</ele>
        <time>2020-06-03T14:11:58Z</time>
      </trkpt>
      <trkpt lat="46.53254" lon="-1.80725">
        <ele>2.7</ele>
        <time>2020-06-03T14:11:59Z</time>
      </trkpt>
      <trkpt lat="46.53256" lon="-1.80724">
        <ele>2.7</ele>
        <time>2020-06-03T14:12:00Z</time>
      </trkpt>
      <trkpt lat="46.53259" lon="-1.80722">
        <ele>2.7</ele>
        <time>2020-06-03T14:12:01Z</time>
      </trkpt>
      <trkpt lat="46.53263" lon="-1.80719">
        <ele>2.7</ele>
        <time>2020-06-03T14:12:02Z</time>
      </trkpt>
      <trkpt lat="46.53268" lon="-1.80716">
        <ele>2.7</ele>
        <time>2020-06-03T14:12:03Z</time>
      </trkpt>
      <trkpt lat="46.53273" lon="-1.80713">
        <ele>2.7</ele>
        <time>2020-06-03T14:12:04Z</time>
      </trkpt>
      <trkpt lat="46.53278" lon="-1.80709">
        <ele>2.7</ele>
        <time>2020-06-03T14:12:05Z</time>
      </trkpt>
      <trkpt lat="46.53283" lon="-1.80706">
        <ele>2.7</ele>
        <time>2020-06-03T14:12:06Z</time>
      </trkpt>
      <trkpt lat="46.53287" lon="-1.80702">
        <ele>2.7</ele>
        <time>2020-06-03T14:12:07Z</time>
      </trkpt>
      <trkpt lat="46.53291" lon="-1.80696">
        <ele>2.7</ele>
        <time>2020-06-03T14:12:08Z</time>
      </trkpt>
      <trkpt lat="46.53296" lon="-1.80691">
        <ele>2.7</ele>
        <time>2020-06-03T14:12:09Z</time>
      </trkpt>
      <trkpt lat="46.533" lon="-1.80685">
        <ele>2.8</ele>
        <time>2020-06-03T14:12:10Z</time>
      </trkpt>
      <trkpt lat="46.53305" lon="-1.80681">
        <ele>2.8</ele>
        <time>2020-06-03T14:12:11Z</time>
      </trkpt>
      <trkpt lat="46.53311" lon="-1.80678">
        <ele>2.8</ele>
        <time>2020-06-03T14:12:12Z</time>
      </trkpt>
      <trkpt lat="46.53315" lon="-1.80676">
        <ele>2.8</ele>
        <time>2020-06-03T14:12:13Z</time>
      </trkpt>
      <trkpt lat="46.53319" lon="-1.80673">
        <ele>2.8</ele>
        <time>2020-06-03T14:12:14Z</time>
      </trkpt>
      <trkpt lat="46.53324" lon="-1.80671">
        <ele>2.8</ele>
        <time>2020-06-03T14:12:15Z</time>
      </trkpt>
      <trkpt lat="46.53328" lon="-1.80669">
        <ele>2.8</ele>
        <time>2020-06-03T14:12:16Z</time>
      </trkpt>
      <trkpt lat="46.53332" lon="-1.80667">
        <ele>2.8</ele>
        <time>2020-06-03T14:12:17Z</time>
      </trkpt>
      <trkpt lat="46.53337" lon="-1.80664">
        <ele>2.9</ele>
        <time>2020-06-03T14:12:18Z</time>
      </trkpt>
      <trkpt lat="46.53341" lon="-1.80661">
        <ele>2.9</ele>
        <time>2020-06-03T14:12:19Z</time>
      </trkpt>
      <trkpt lat="46.53346" lon="-1.80657">
        <ele>2.9</ele>
        <time>2020-06-03T14:12:20Z</time>
      </trkpt>
      <trkpt lat="46.5335" lon="-1.80653">
        <ele>2.9</ele>
        <time>2020-06-03T14:12:21Z</time>
      </trkpt>
      <trkpt lat="46.53354" lon="-1.8065">
        <ele>2.9</ele>
        <time>2020-06-03T14:12:22Z</time>
      </trkpt>
      <trkpt lat="46.53359" lon="-1.80646">
        <ele>2.9</ele>
        <time>2020-06-03T14:12:23Z</time>
      </trkpt>
      <trkpt lat="46.53363" lon="-1.80642">
        <ele>2.9</ele>
        <time>2020-06-03T14:12:24Z</time>
      </trkpt>
      <trkpt lat="46.53368" lon="-1.80638">
        <ele>2.9</ele>
        <time>2020-06-03T14:12:25Z</time>
      </trkpt>
      <trkpt lat="46.53372" lon="-1.80633">
        <ele>2.9</ele>
        <time>2020-06-03T14:12:26Z</time>
      </trkpt>
      <trkpt lat="46.53377" lon="-1.80629">
        <ele>2.9</ele>
        <time>2020-06-03T14:12:27Z</time>
      </trkpt>
      <trkpt lat="46.53382" lon="-1.80626">
        <ele>2.9</ele>
        <time>2020-06-03T14:12:28Z</time>
      </trkpt>
      <trkpt lat="46.53387" lon="-1.80623">
        <ele>3</ele>
        <time>2020-06-03T14:12:29Z</time>
      </trkpt>
      <trkpt lat="46.53392" lon="-1.8062">
        <ele>3</ele>
        <time>2020-06-03T14:12:30Z</time>
      </trkpt>
      <trkpt lat="46.53397" lon="-1.80617">
        <ele>3</ele>
        <time>2020-06-03T14:12:31Z</time>
      </trkpt>
      <trkpt lat="46.53401" lon="-1.80614">
        <ele>3</ele>
        <time>2020-06-03T14:12:32Z</time>
      </trkpt>
      <trkpt lat="46.53405" lon="-1.80612">
        <ele>3.1</ele>
        <time>2020-06-03T14:12:33Z</time>
      </trkpt>
      <trkpt lat="46.53409" lon="-1.80609">
        <ele>3.1</ele>
        <time>2020-06-03T14:12:34Z</time>
      </trkpt>
      <trkpt lat="46.53413" lon="-1.80607">
        <ele>3.2</ele>
        <time>2020-06-03T14:12:35Z</time>
      </trkpt>
      <trkpt lat="46.53416" lon="-1.80604">
        <ele>3.2</ele>
        <time>2020-06-03T14:12:36Z</time>
      </trkpt>
      <trkpt lat="46.53419" lon="-1.80601">
        <ele>3.2</ele>
        <time>2020-06-03T14:12:37Z</time>
      </trkpt>
      <trkpt lat="46.53422" lon="-1.80599">
        <ele>3.2</ele>
        <time>2020-06-03T14:12:38Z</time>
      </trkpt>
      <trkpt lat="46.53423" lon="-1.80598">
        <ele>3.3</ele>
        <time>2020-06-03T14:12:39Z</time>
      </trkpt>
      <trkpt lat="46.53425" lon="-1.80598">
        <ele>3.3</ele>
        <time>2020-06-03T14:12:40Z</time>
      </trkpt>
      <trkpt lat="46.53426" lon="-1.80599">
        <ele>3.3</ele>
        <time>2020-06-03T14:12:41Z</time>
      </trkpt>
      <trkpt lat="46.53427" lon="-1.80602">
        <ele>3.3</ele>
        <time>2020-06-03T14:12:42Z</time>
      </trkpt>
      <trkpt lat="46.53427" lon="-1.80603">
        <ele>3.3</ele>
        <time>2020-06-03T14:12:43Z</time>
      </trkpt>
      <trkpt lat="46.53427" lon="-1.80605">
        <ele>3.3</ele>
        <time>2020-06-03T14:12:44Z</time>
      </trkpt>
      <trkpt lat="46.53426" lon="-1.80607">
        <ele>3.3</ele>
        <time>2020-06-03T14:12:45Z</time>
      </trkpt>
      <trkpt lat="46.53427" lon="-1.80608">
        <ele>3.3</ele>
        <time>2020-06-03T14:12:46Z</time>
      </trkpt>
      <trkpt lat="46.53427" lon="-1.80609">
        <ele>3.3</ele>
        <time>2020-06-03T14:12:47Z</time>
      </trkpt>
      <trkpt lat="46.53427" lon="-1.8061">
        <ele>3.3</ele>
        <time>2020-06-03T14:12:48Z</time>
      </trkpt>
      <trkpt lat="46.53427" lon="-1.80611">
        <ele>3.3</ele>
        <time>2020-06-03T14:12:49Z</time>
      </trkpt>
      <trkpt lat="46.53427" lon="-1.80613">
        <ele>3.3</ele>
        <time>2020-06-03T14:12:50Z</time>
      </trkpt>
      <trkpt lat="46.53428" lon="-1.80615">
        <ele>3.3</ele>
        <time>2020-06-03T14:12:51Z</time>
      </trkpt>
      <trkpt lat="46.53427" lon="-1.80616">
        <ele>3.3</ele>
        <time>2020-06-03T14:12:52Z</time>
      </trkpt>
      <trkpt lat="46.53428" lon="-1.80614">
        <ele>3.3</ele>
        <time>2020-06-03T14:12:53Z</time>
      </trkpt>
      <trkpt lat="46.53427" lon="-1.80615">
        <ele>3.3</ele>
        <time>2020-06-03T14:12:54Z</time>
      </trkpt>
      <trkpt lat="46.53426" lon="-1.80614">
        <ele>3.2</ele>
        <time>2020-06-03T14:12:55Z</time>
      </trkpt>
      <trkpt lat="46.53426" lon="-1.80614">
        <ele>3.2</ele>
        <time>2020-06-03T14:12:56Z</time>
      </trkpt>
      <trkpt lat="46.53425" lon="-1.80614">
        <ele>3.2</ele>
        <time>2020-06-03T14:12:57Z</time>
      </trkpt>
      <trkpt lat="46.53424" lon="-1.80614">
        <ele>3.2</ele>
        <time>2020-06-03T14:12:58Z</time>
      </trkpt>
      <trkpt lat="46.53425" lon="-1.80616">
        <ele>3.2</ele>
        <time>2020-06-03T14:12:59Z</time>
      </trkpt>
      <trkpt lat="46.53425" lon="-1.80617">
        <ele>3.2</ele>
        <time>2020-06-03T14:13:00Z</time>
      </trkpt>
      <trkpt lat="46.53426" lon="-1.80618">
        <ele>3.2</ele>
        <time>2020-06-03T14:13:01Z</time>
      </trkpt>
      <trkpt lat="46.53427" lon="-1.8062">
        <ele>3.2</ele>
        <time>2020-06-03T14:13:02Z</time>
      </trkpt>
      <trkpt lat="46.53427" lon="-1.80621">
        <ele>3.2</ele>
        <time>2020-06-03T14:14:46Z</time>
      </trkpt>
      <trkpt lat="46.53428" lon="-1.80622">
        <ele>3.2</ele>
        <time>2020-06-03T14:14:47Z</time>
      </trkpt>
      <trkpt lat="46.53431" lon="-1.80627">
        <ele>3.2</ele>
        <time>2020-06-03T14:14:48Z</time>
      </trkpt>
      <trkpt lat="46.53432" lon="-1.80629">
        <ele>3.2</ele>
        <time>2020-06-03T14:14:49Z</time>
      </trkpt>
      <trkpt lat="46.53434" lon="-1.80631">
        <ele>3.2</ele>
        <time>2020-06-03T14:14:50Z</time>
      </trkpt>
      <trkpt lat="46.53435" lon="-1.80631">
        <ele>3.2</ele>
        <time>2020-06-03T14:14:51Z</time>
      </trkpt>
      <trkpt lat="46.53435" lon="-1.8063">
        <ele>3.2</ele>
        <time>2020-06-03T14:14:52Z</time>
      </trkpt>
      <trkpt lat="46.53437" lon="-1.8063">
        <ele>3.2</ele>
        <time>2020-06-03T14:14:53Z</time>
      </trkpt>
      <trkpt lat="46.53438" lon="-1.8063">
        <ele>3.2</ele>
        <time>2020-06-03T14:14:54Z</time>
      </trkpt>
      <trkpt lat="46.53438" lon="-1.8063">
        <ele>3.2</ele>
        <time>2020-06-03T14:14:55Z</time>
      </trkpt>
      <trkpt lat="46.53439" lon="-1.80629">
        <ele>3.2</ele>
        <time>2020-06-03T14:14:56Z</time>
      </trkpt>
      <trkpt lat="46.53439" lon="-1.80629">
        <ele>3.2</ele>
        <time>2020-06-03T14:14:57Z</time>
      </trkpt>
      <trkpt lat="46.5344" lon="-1.80629">
        <ele>3.2</ele>
        <time>2020-06-03T14:14:58Z</time>
      </trkpt>
      <trkpt lat="46.53441" lon="-1.80629">
        <ele>3.1</ele>
        <time>2020-06-03T14:14:59Z</time>
      </trkpt>
      <trkpt lat="46.53441" lon="-1.80628">
        <ele>3.1</ele>
        <time>2020-06-03T14:15:00Z</time>
      </trkpt>
      <trkpt lat="46.53442" lon="-1.80628">
        <ele>3.1</ele>
        <time>2020-06-03T14:15:01Z</time>
      </trkpt>
      <trkpt lat="46.53442" lon="-1.80628">
        <ele>3.1</ele>
        <time>2020-06-03T14:15:02Z</time>
      </trkpt>
      <trkpt lat="46.53443" lon="-1.80627">
        <ele>3.1</ele>
        <time>2020-06-03T14:15:03Z</time>
      </trkpt>
      <trkpt lat="46.53444" lon="-1.80627">
        <ele>3.1</ele>
        <time>2020-06-03T14:15:04Z</time>
      </trkpt>
      <trkpt lat="46.53444" lon="-1.80627">
        <ele>3.1</ele>
        <time>2020-06-03T14:15:05Z</time>
      </trkpt>
      <trkpt lat="46.53445" lon="-1.80626">
        <ele>3.1</ele>
        <time>2020-06-03T14:15:06Z</time>
      </trkpt>
      <trkpt lat="46.53446" lon="-1.80626">
        <ele>3.1</ele>
        <time>2020-06-03T14:26:58Z</time>
      </trkpt>
      <trkpt lat="46.53446" lon="-1.80626">
        <ele>3.1</ele>
        <time>2020-06-03T14:26:59Z</time>
      </trkpt>
      <trkpt lat="46.53447" lon="-1.80626">
        <ele>3.1</ele>
        <time>2020-06-03T14:27:00Z</time>
      </trkpt>
      <trkpt lat="46.53447" lon="-1.80625">
        <ele>3.1</ele>
        <time>2020-06-03T14:27:01Z</time>
      </trkpt>
      <trkpt lat="46.53448" lon="-1.80625">
        <ele>3.1</ele>
        <time>2020-06-03T14:27:02Z</time>
      </trkpt>
      <trkpt lat="46.53449" lon="-1.80625">
        <ele>3.1</ele>
        <time>2020-06-03T14:27:03Z</time>
      </trkpt>
      <trkpt lat="46.53449" lon="-1.80624">
        <ele>3.1</ele>
        <time>2020-06-03T14:27:05Z</time>
      </trkpt>
      <trkpt lat="46.5345" lon="-1.80624">
        <ele>3.1</ele>
        <time>2020-06-03T14:27:06Z</time>
      </trkpt>
      <trkpt lat="46.5345" lon="-1.80624">
        <ele>3</ele>
        <time>2020-06-03T14:27:08Z</time>
      </trkpt>
      <trkpt lat="46.53451" lon="-1.80624">
        <ele>3</ele>
        <time>2020-06-03T14:27:15Z</time>
      </trkpt>
      <trkpt lat="46.53452" lon="-1.80623">
        <ele>3</ele>
        <time>2020-06-03T14:27:16Z</time>
      </trkpt>
      <trkpt lat="46.53455" lon="-1.80622">
        <ele>3</ele>
        <time>2020-06-03T14:27:17Z</time>
      </trkpt>
      <trkpt lat="46.53456" lon="-1.80622">
        <ele>3</ele>
        <time>2020-06-03T14:27:18Z</time>
      </trkpt>
      <trkpt lat="46.53458" lon="-1.80619">
        <ele>2.9</ele>
        <time>2020-06-03T14:27:20Z</time>
      </trkpt>
      <trkpt lat="46.53459" lon="-1.80618">
        <ele>2.9</ele>
        <time>2020-06-03T14:27:21Z</time>
      </trkpt>
      <trkpt lat="46.53462" lon="-1.80617">
        <ele>2.9</ele>
        <time>2020-06-03T14:27:22Z</time>
      </trkpt>
      <trkpt lat="46.53464" lon="-1.80614">
        <ele>2.8</ele>
        <time>2020-06-03T14:27:23Z</time>
      </trkpt>
      <trkpt lat="46.53467" lon="-1.80612">
        <ele>2.8</ele>
        <time>2020-06-03T14:27:24Z</time>
      </trkpt>
      <trkpt lat="46.5347" lon="-1.80611">
        <ele>2.7</ele>
        <time>2020-06-03T14:27:25Z</time>
      </trkpt>
      <trkpt lat="46.53473" lon="-1.80609">
        <ele>2.7</ele>
        <time>2020-06-03T14:27:26Z</time>
      </trkpt>
      <trkpt lat="46.53476" lon="-1.80608">
        <ele>2.7</ele>
        <time>2020-06-03T14:27:27Z</time>
      </trkpt>
      <trkpt lat="46.53479" lon="-1.80605">
        <ele>2.7</ele>
        <time>2020-06-03T14:27:28Z</time>
      </trkpt>
      <trkpt lat="46.53483" lon="-1.80602">
        <ele>2.7</ele>
        <time>2020-06-03T14:27:29Z</time>
      </trkpt>
      <trkpt lat="46.53486" lon="-1.806">
        <ele>2.7</ele>
        <time>2020-06-03T14:27:30Z</time>
      </trkpt>
      <trkpt lat="46.53489" lon="-1.80597">
        <ele>2.7</ele>
        <time>2020-06-03T14:27:31Z</time>
      </trkpt>
      <trkpt lat="46.53491" lon="-1.80596">
        <ele>2.7</ele>
        <time>2020-06-03T14:27:32Z</time>
      </trkpt>
      <trkpt lat="46.53495" lon="-1.80593">
        <ele>2.7</ele>
        <time>2020-06-03T14:27:33Z</time>
      </trkpt>
      <trkpt lat="46.53496" lon="-1.80593">
        <ele>2.7</ele>
        <time>2020-06-03T14:27:34Z</time>
      </trkpt>
      <trkpt lat="46.53499" lon="-1.8059">
        <ele>2.6</ele>
        <time>2020-06-03T14:27:35Z</time>
      </trkpt>
      <trkpt lat="46.53502" lon="-1.80588">
        <ele>2.6</ele>
        <time>2020-06-03T14:27:36Z</time>
      </trkpt>
      <trkpt lat="46.53504" lon="-1.80587">
        <ele>2.6</ele>
        <time>2020-06-03T14:27:37Z</time>
      </trkpt>
      <trkpt lat="46.53507" lon="-1.80585">
        <ele>2.6</ele>
        <time>2020-06-03T14:27:38Z</time>
      </trkpt>
      <trkpt lat="46.53509" lon="-1.80583">
        <ele>2.6</ele>
        <time>2020-06-03T14:27:39Z</time>
      </trkpt>
      <trkpt lat="46.53512" lon="-1.80581">
        <ele>2.6</ele>
        <time>2020-06-03T14:27:40Z</time>
      </trkpt>
      <trkpt lat="46.53515" lon="-1.80578">
        <ele>2.6</ele>
        <time>2020-06-03T14:27:41Z</time>
      </trkpt>
      <trkpt lat="46.53518" lon="-1.80575">
        <ele>2.6</ele>
        <time>2020-06-03T14:27:42Z</time>
      </trkpt>
      <trkpt lat="46.53521" lon="-1.80573">
        <ele>2.6</ele>
        <time>2020-06-03T14:27:43Z</time>
      </trkpt>
      <trkpt lat="46.53524" lon="-1.8057">
        <ele>2.6</ele>
        <time>2020-06-03T14:27:44Z</time>
      </trkpt>
      <trkpt lat="46.53528" lon="-1.80568">
        <ele>2.6</ele>
        <time>2020-06-03T14:27:45Z</time>
      </trkpt>
      <trkpt lat="46.53532" lon="-1.80565">
        <ele>2.6</ele>
        <time>2020-06-03T14:27:46Z</time>
      </trkpt>
      <trkpt lat="46.53535" lon="-1.80562">
        <ele>2.6</ele>
        <time>2020-06-03T14:27:47Z</time>
      </trkpt>
      <trkpt lat="46.53539" lon="-1.80561">
        <ele>2.6</ele>
        <time>2020-06-03T14:27:48Z</time>
      </trkpt>
      <trkpt lat="46.53543" lon="-1.80558">
        <ele>2.6</ele>
        <time>2020-06-03T14:27:49Z</time>
      </trkpt>
      <trkpt lat="46.53546" lon="-1.80555">
        <ele>2.7</ele>
        <time>2020-06-03T14:27:50Z</time>
      </trkpt>
      <trkpt lat="46.53549" lon="-1.80552">
        <ele>2.7</ele>
        <time>2020-06-03T14:27:51Z</time>
      </trkpt>
      <trkpt lat="46.53552" lon="-1.80549">
        <ele>2.7</ele>
        <time>2020-06-03T14:27:52Z</time>
      </trkpt>
      <trkpt lat="46.53556" lon="-1.80545">
        <ele>2.8</ele>
        <time>2020-06-03T14:27:53Z</time>
      </trkpt>
      <trkpt lat="46.53559" lon="-1.80542">
        <ele>2.8</ele>
        <time>2020-06-03T14:27:54Z</time>
      </trkpt>
      <trkpt lat="46.53563" lon="-1.8054">
        <ele>2.8</ele>
        <time>2020-06-03T14:27:55Z</time>
      </trkpt>
      <trkpt lat="46.53566" lon="-1.80537">
        <ele>2.8</ele>
        <time>2020-06-03T14:27:56Z</time>
      </trkpt>
      <trkpt lat="46.53572" lon="-1.80532">
        <ele>2.8</ele>
        <time>2020-06-03T14:27:57Z</time>
      </trkpt>
      <trkpt lat="46.53575" lon="-1.8053">
        <ele>2.8</ele>
        <time>2020-06-03T14:27:58Z</time>
      </trkpt>
      <trkpt lat="46.53579" lon="-1.80528">
        <ele>2.8</ele>
        <time>2020-06-03T14:27:59Z</time>
      </trkpt>
      <trkpt lat="46.53582" lon="-1.80524">
        <ele>2.8</ele>
        <time>2020-06-03T14:28:00Z</time>
      </trkpt>
      <trkpt lat="46.53586" lon="-1.80522">
        <ele>2.8</ele>
        <time>2020-06-03T14:28:01Z</time>
      </trkpt>
      <trkpt lat="46.53589" lon="-1.80518">
        <ele>2.8</ele>
        <time>2020-06-03T14:28:02Z</time>
      </trkpt>
      <trkpt lat="46.53592" lon="-1.80515">
        <ele>2.8</ele>
        <time>2020-06-03T14:28:03Z</time>
      </trkpt>
      <trkpt lat="46.53595" lon="-1.80512">
        <ele>2.8</ele>
        <time>2020-06-03T14:28:04Z</time>
      </trkpt>
      <trkpt lat="46.53599" lon="-1.80508">
        <ele>2.8</ele>
        <time>2020-06-03T14:28:05Z</time>
      </trkpt>
      <trkpt lat="46.53603" lon="-1.80504">
        <ele>2.8</ele>
        <time>2020-06-03T14:28:06Z</time>
      </trkpt>
      <trkpt lat="46.53607" lon="-1.80501">
        <ele>2.8</ele>
        <time>2020-06-03T14:28:07Z</time>
      </trkpt>
      <trkpt lat="46.53611" lon="-1.80498">
        <ele>2.8</ele>
        <time>2020-06-03T14:28:08Z</time>
      </trkpt>
      <trkpt lat="46.53614" lon="-1.80495">
        <ele>2.8</ele>
        <time>2020-06-03T14:28:09Z</time>
      </trkpt>
      <trkpt lat="46.53618" lon="-1.80492">
        <ele>2.8</ele>
        <time>2020-06-03T14:28:10Z</time>
      </trkpt>
      <trkpt lat="46.53622" lon="-1.80489">
        <ele>2.8</ele>
        <time>2020-06-03T14:28:11Z</time>
      </trkpt>
      <trkpt lat="46.53626" lon="-1.80487">
        <ele>2.9</ele>
        <time>2020-06-03T14:28:12Z</time>
      </trkpt>
      <trkpt lat="46.5363" lon="-1.80485">
        <ele>2.9</ele>
        <time>2020-06-03T14:28:13Z</time>
      </trkpt>
      <trkpt lat="46.53636" lon="-1.80483">
        <ele>2.9</ele>
        <time>2020-06-03T14:28:14Z</time>
      </trkpt>
      <trkpt lat="46.53639" lon="-1.80482">
        <ele>2.8</ele>
        <time>2020-06-03T14:28:15Z</time>
      </trkpt>
      <trkpt lat="46.53643" lon="-1.80481">
        <ele>2.8</ele>
        <time>2020-06-03T14:28:16Z</time>
      </trkpt>
      <trkpt lat="46.53647" lon="-1.8048">
        <ele>2.8</ele>
        <time>2020-06-03T14:28:17Z</time>
      </trkpt>
      <trkpt lat="46.53651" lon="-1.80479">
        <ele>2.8</ele>
        <time>2020-06-03T14:28:18Z</time>
      </trkpt>
      <trkpt lat="46.53655" lon="-1.8048">
        <ele>2.8</ele>
        <time>2020-06-03T14:28:19Z</time>
      </trkpt>
      <trkpt lat="46.5366" lon="-1.80477">
        <ele>2.8</ele>
        <time>2020-06-03T14:28:20Z</time>
      </trkpt>
      <trkpt lat="46.53664" lon="-1.80476">
        <ele>2.8</ele>
        <time>2020-06-03T14:28:21Z</time>
      </trkpt>
      <trkpt lat="46.53668" lon="-1.80474">
        <ele>2.8</ele>
        <time>2020-06-03T14:28:22Z</time>
      </trkpt>
      <trkpt lat="46.53673" lon="-1.80472">
        <ele>2.8</ele>
        <time>2020-06-03T14:28:23Z</time>
      </trkpt>
      <trkpt lat="46.53677" lon="-1.80471">
        <ele>2.8</ele>
        <time>2020-06-03T14:28:24Z</time>
      </trkpt>
      <trkpt lat="46.53682" lon="-1.80469">
        <ele>2.8</ele>
        <time>2020-06-03T14:28:25Z</time>
      </trkpt>
      <trkpt lat="46.53686" lon="-1.80468">
        <ele>2.8</ele>
        <time>2020-06-03T14:28:26Z</time>
      </trkpt>
      <trkpt lat="46.53691" lon="-1.80466">
        <ele>2.8</ele>
        <time>2020-06-03T14:28:27Z</time>
      </trkpt>
      <trkpt lat="46.53695" lon="-1.80464">
        <ele>2.8</ele>
        <time>2020-06-03T14:28:28Z</time>
      </trkpt>
      <trkpt lat="46.53699" lon="-1.80462">
        <ele>2.8</ele>
        <time>2020-06-03T14:28:29Z</time>
      </trkpt>
      <trkpt lat="46.53703" lon="-1.8046">
        <ele>2.7</ele>
        <time>2020-06-03T14:28:30Z</time>
      </trkpt>
      <trkpt lat="46.53708" lon="-1.80457">
        <ele>2.7</ele>
        <time>2020-06-03T14:28:31Z</time>
      </trkpt>
      <trkpt lat="46.53712" lon="-1.80455">
        <ele>2.7</ele>
        <time>2020-06-03T14:28:32Z</time>
      </trkpt>
      <trkpt lat="46.53717" lon="-1.80452">
        <ele>2.7</ele>
        <time>2020-06-03T14:28:33Z</time>
      </trkpt>
      <trkpt lat="46.53722" lon="-1.8045">
        <ele>2.7</ele>
        <time>2020-06-03T14:28:34Z</time>
      </trkpt>
      <trkpt lat="46.53727" lon="-1.80449">
        <ele>2.7</ele>
        <time>2020-06-03T14:28:35Z</time>
      </trkpt>
      <trkpt lat="46.53731" lon="-1.80445">
        <ele>2.7</ele>
        <time>2020-06-03T14:28:36Z</time>
      </trkpt>
      <trkpt lat="46.53735" lon="-1.80442">
        <ele>2.7</ele>
        <time>2020-06-03T14:28:37Z</time>
      </trkpt>
      <trkpt lat="46.53739" lon="-1.80439">
        <ele>2.7</ele>
        <time>2020-06-03T14:28:38Z</time>
      </trkpt>
      <trkpt lat="46.53744" lon="-1.80436">
        <ele>2.8</ele>
        <time>2020-06-03T14:28:39Z</time>
      </trkpt>
      <trkpt lat="46.53748" lon="-1.80433">
        <ele>2.8</ele>
        <time>2020-06-03T14:28:40Z</time>
      </trkpt>
      <trkpt lat="46.53752" lon="-1.8043">
        <ele>2.8</ele>
        <time>2020-06-03T14:28:41Z</time>
      </trkpt>
      <trkpt lat="46.53757" lon="-1.80428">
        <ele>2.8</ele>
        <time>2020-06-03T14:28:42Z</time>
      </trkpt>
      <trkpt lat="46.53761" lon="-1.80425">
        <ele>2.8</ele>
        <time>2020-06-03T14:28:43Z</time>
      </trkpt>
      <trkpt lat="46.53765" lon="-1.80423">
        <ele>2.8</ele>
        <time>2020-06-03T14:28:44Z</time>
      </trkpt>
      <trkpt lat="46.53769" lon="-1.80421">
        <ele>2.9</ele>
        <time>2020-06-03T14:28:45Z</time>
      </trkpt>
      <trkpt lat="46.53773" lon="-1.80419">
        <ele>2.9</ele>
        <time>2020-06-03T14:28:46Z</time>
      </trkpt>
      <trkpt lat="46.53778" lon="-1.80417">
        <ele>2.9</ele>
        <time>2020-06-03T14:28:47Z</time>
      </trkpt>
      <trkpt lat="46.53782" lon="-1.80414">
        <ele>2.9</ele>
        <time>2020-06-03T14:28:48Z</time>
      </trkpt>
      <trkpt lat="46.53787" lon="-1.80412">
        <ele>2.9</ele>
        <time>2020-06-03T14:28:49Z</time>
      </trkpt>
      <trkpt lat="46.53792" lon="-1.8041">
        <ele>2.9</ele>
        <time>2020-06-03T14:28:50Z</time>
      </trkpt>
      <trkpt lat="46.53796" lon="-1.80408">
        <ele>2.9</ele>
        <time>2020-06-03T14:28:51Z</time>
      </trkpt>
      <trkpt lat="46.53801" lon="-1.80405">
        <ele>2.9</ele>
        <time>2020-06-03T14:28:52Z</time>
      </trkpt>
      <trkpt lat="46.53805" lon="-1.80403">
        <ele>2.8</ele>
        <time>2020-06-03T14:28:53Z</time>
      </trkpt>
      <trkpt lat="46.53809" lon="-1.80401">
        <ele>2.8</ele>
        <time>2020-06-03T14:28:54Z</time>
      </trkpt>
      <trkpt lat="46.53814" lon="-1.80399">
        <ele>2.8</ele>
        <time>2020-06-03T14:28:55Z</time>
      </trkpt>
      <trkpt lat="46.53819" lon="-1.80396">
        <ele>2.8</ele>
        <time>2020-06-03T14:28:56Z</time>
      </trkpt>
      <trkpt lat="46.53823" lon="-1.80393">
        <ele>2.8</ele>
        <time>2020-06-03T14:28:57Z</time>
      </trkpt>
      <trkpt lat="46.53828" lon="-1.8039">
        <ele>2.8</ele>
        <time>2020-06-03T14:28:58Z</time>
      </trkpt>
      <trkpt lat="46.53832" lon="-1.80387">
        <ele>2.8</ele>
        <time>2020-06-03T14:28:59Z</time>
      </trkpt>
      <trkpt lat="46.53837" lon="-1.80384">
        <ele>2.8</ele>
        <time>2020-06-03T14:29:00Z</time>
      </trkpt>
      <trkpt lat="46.53841" lon="-1.80382">
        <ele>2.8</ele>
        <time>2020-06-03T14:29:01Z</time>
      </trkpt>
      <trkpt lat="46.53846" lon="-1.80379">
        <ele>2.7</ele>
        <time>2020-06-03T14:29:02Z</time>
      </trkpt>
      <trkpt lat="46.5385" lon="-1.80377">
        <ele>2.7</ele>
        <time>2020-06-03T14:29:03Z</time>
      </trkpt>
      <trkpt lat="46.53854" lon="-1.80373">
        <ele>2.6</ele>
        <time>2020-06-03T14:29:04Z</time>
      </trkpt>
      <trkpt lat="46.53859" lon="-1.8037">
        <ele>2.6</ele>
        <time>2020-06-03T14:29:05Z</time>
      </trkpt>
      <trkpt lat="46.53863" lon="-1.80368">
        <ele>2.6</ele>
        <time>2020-06-03T14:29:06Z</time>
      </trkpt>
      <trkpt lat="46.53868" lon="-1.80365">
        <ele>2.6</ele>
        <time>2020-06-03T14:29:07Z</time>
      </trkpt>
      <trkpt lat="46.53872" lon="-1.80362">
        <ele>2.6</ele>
        <time>2020-06-03T14:29:08Z</time>
      </trkpt>
      <trkpt lat="46.53876" lon="-1.80359">
        <ele>2.7</ele>
        <time>2020-06-03T14:29:09Z</time>
      </trkpt>
      <trkpt lat="46.53881" lon="-1.80356">
        <ele>2.7</ele>
        <time>2020-06-03T14:29:10Z</time>
      </trkpt>
      <trkpt lat="46.53885" lon="-1.80354">
        <ele>2.8</ele>
        <time>2020-06-03T14:29:11Z</time>
      </trkpt>
      <trkpt lat="46.53888" lon="-1.80352">
        <ele>2.8</ele>
        <time>2020-06-03T14:29:12Z</time>
      </trkpt>
      <trkpt lat="46.53892" lon="-1.80349">
        <ele>2.9</ele>
        <time>2020-06-03T14:29:13Z</time>
      </trkpt>
      <trkpt lat="46.53896" lon="-1.80346">
        <ele>2.9</ele>
        <time>2020-06-03T14:29:14Z</time>
      </trkpt>
      <trkpt lat="46.539" lon="-1.80344">
        <ele>3</ele>
        <time>2020-06-03T14:29:15Z</time>
      </trkpt>
      <trkpt lat="46.53903" lon="-1.80341">
        <ele>3</ele>
        <time>2020-06-03T14:29:16Z</time>
      </trkpt>
      <trkpt lat="46.53906" lon="-1.80338">
        <ele>3</ele>
        <time>2020-06-03T14:29:17Z</time>
      </trkpt>
      <trkpt lat="46.53909" lon="-1.80335">
        <ele>3.1</ele>
        <time>2020-06-03T14:29:18Z</time>
      </trkpt>
      <trkpt lat="46.53913" lon="-1.80333">
        <ele>3.1</ele>
        <time>2020-06-03T14:29:19Z</time>
      </trkpt>
      <trkpt lat="46.53916" lon="-1.8033">
        <ele>3.1</ele>
        <time>2020-06-03T14:29:20Z</time>
      </trkpt>
      <trkpt lat="46.5392" lon="-1.80329">
        <ele>3.1</ele>
        <time>2020-06-03T14:29:21Z</time>
      </trkpt>
      <trkpt lat="46.53924" lon="-1.80327">
        <ele>3.1</ele>
        <time>2020-06-03T14:29:22Z</time>
      </trkpt>
      <trkpt lat="46.53927" lon="-1.80324">
        <ele>3.1</ele>
        <time>2020-06-03T14:29:23Z</time>
      </trkpt>
      <trkpt lat="46.53931" lon="-1.80322">
        <ele>3.1</ele>
        <time>2020-06-03T14:29:24Z</time>
      </trkpt>
      <trkpt lat="46.53935" lon="-1.80318">
        <ele>3.1</ele>
        <time>2020-06-03T14:29:25Z</time>
      </trkpt>
      <trkpt lat="46.53938" lon="-1.80315">
        <ele>3.1</ele>
        <time>2020-06-03T14:29:26Z</time>
      </trkpt>
      <trkpt lat="46.53941" lon="-1.80313">
        <ele>3.2</ele>
        <time>2020-06-03T14:29:27Z</time>
      </trkpt>
      <trkpt lat="46.53945" lon="-1.8031">
        <ele>3.2</ele>
        <time>2020-06-03T14:29:28Z</time>
      </trkpt>
      <trkpt lat="46.53948" lon="-1.80306">
        <ele>3.2</ele>
        <time>2020-06-03T14:29:29Z</time>
      </trkpt>
      <trkpt lat="46.53952" lon="-1.80302">
        <ele>3.2</ele>
        <time>2020-06-03T14:29:30Z</time>
      </trkpt>
      <trkpt lat="46.53956" lon="-1.80298">
        <ele>3.2</ele>
        <time>2020-06-03T14:29:31Z</time>
      </trkpt>
      <trkpt lat="46.53959" lon="-1.80293">
        <ele>3.2</ele>
        <time>2020-06-03T14:29:32Z</time>
      </trkpt>
      <trkpt lat="46.53961" lon="-1.80289">
        <ele>3.2</ele>
        <time>2020-06-03T14:29:33Z</time>
      </trkpt>
      <trkpt lat="46.53964" lon="-1.80284">
        <ele>3.2</ele>
        <time>2020-06-03T14:29:34Z</time>
      </trkpt>
      <trkpt lat="46.53966" lon="-1.8028">
        <ele>3.2</ele>
        <time>2020-06-03T14:29:35Z</time>
      </trkpt>
      <trkpt lat="46.5397" lon="-1.80276">
        <ele>3.3</ele>
        <time>2020-06-03T14:29:36Z</time>
      </trkpt>
      <trkpt lat="46.53972" lon="-1.80271">
        <ele>3.3</ele>
        <time>2020-06-03T14:29:37Z</time>
      </trkpt>
      <trkpt lat="46.53976" lon="-1.80267">
        <ele>3.4</ele>
        <time>2020-06-03T14:29:38Z</time>
      </trkpt>
      <trkpt lat="46.53979" lon="-1.80263">
        <ele>3.4</ele>
        <time>2020-06-03T14:29:39Z</time>
      </trkpt>
      <trkpt lat="46.53982" lon="-1.80259">
        <ele>3.4</ele>
        <time>2020-06-03T14:29:40Z</time>
      </trkpt>
      <trkpt lat="46.53985" lon="-1.80255">
        <ele>3.5</ele>
        <time>2020-06-03T14:29:41Z</time>
      </trkpt>
      <trkpt lat="46.53988" lon="-1.80251">
        <ele>3.5</ele>
        <time>2020-06-03T14:29:42Z</time>
      </trkpt>
      <trkpt lat="46.53992" lon="-1.80247">
        <ele>3.6</ele>
        <time>2020-06-03T14:29:43Z</time>
      </trkpt>
      <trkpt lat="46.53995" lon="-1.80243">
        <ele>3.6</ele>
        <time>2020-06-03T14:29:44Z</time>
      </trkpt>
      <trkpt lat="46.53998" lon="-1.80239">
        <ele>3.6</ele>
        <time>2020-06-03T14:29:45Z</time>
      </trkpt>
      <trkpt lat="46.54" lon="-1.80235">
        <ele>3.6</ele>
        <time>2020-06-03T14:29:46Z</time>
      </trkpt>
      <trkpt lat="46.54002" lon="-1.8023">
        <ele>3.7</ele>
        <time>2020-06-03T14:29:47Z</time>
      </trkpt>
      <trkpt lat="46.54005" lon="-1.80225">
        <ele>3.7</ele>
        <time>2020-06-03T14:29:48Z</time>
      </trkpt>
      <trkpt lat="46.54008" lon="-1.80222">
        <ele>3.7</ele>
        <time>2020-06-03T14:29:49Z</time>
      </trkpt>
      <trkpt lat="46.5401" lon="-1.80218">
        <ele>3.8</ele>
        <time>2020-06-03T14:29:50Z</time>
      </trkpt>
      <trkpt lat="46.54012" lon="-1.80215">
        <ele>3.8</ele>
        <time>2020-06-03T14:29:51Z</time>
      </trkpt>
      <trkpt lat="46.54014" lon="-1.80212">
        <ele>3.8</ele>
        <time>2020-06-03T14:29:52Z</time>
      </trkpt>
      <trkpt lat="46.54017" lon="-1.80208">
        <ele>3.9</ele>
        <time>2020-06-03T14:29:53Z</time>
      </trkpt>
      <trkpt lat="46.5402" lon="-1.80204">
        <ele>3.9</ele>
        <time>2020-06-03T14:29:54Z</time>
      </trkpt>
      <trkpt lat="46.54022" lon="-1.802">
        <ele>4</ele>
        <time>2020-06-03T14:29:55Z</time>
      </trkpt>
      <trkpt lat="46.54024" lon="-1.80196">
        <ele>4</ele>
        <time>2020-06-03T14:29:56Z</time>
      </trkpt>
      <trkpt lat="46.54025" lon="-1.80193">
        <ele>4</ele>
        <time>2020-06-03T14:29:57Z</time>
      </trkpt>
      <trkpt lat="46.54028" lon="-1.80189">
        <ele>4</ele>
        <time>2020-06-03T14:29:58Z</time>
      </trkpt>
      <trkpt lat="46.54028" lon="-1.80188">
        <ele>4</ele>
        <time>2020-06-03T14:29:59Z</time>
      </trkpt>
      <trkpt lat="46.54031" lon="-1.80187">
        <ele>4</ele>
        <time>2020-06-03T14:30:00Z</time>
      </trkpt>
      <trkpt lat="46.54032" lon="-1.80187">
        <ele>4</ele>
        <time>2020-06-03T14:30:01Z</time>
      </trkpt>
      <trkpt lat="46.54035" lon="-1.80185">
        <ele>4</ele>
        <time>2020-06-03T14:30:02Z</time>
      </trkpt>
      <trkpt lat="46.54039" lon="-1.80185">
        <ele>4</ele>
        <time>2020-06-03T14:30:03Z</time>
      </trkpt>
      <trkpt lat="46.54042" lon="-1.80187">
        <ele>4</ele>
        <time>2020-06-03T14:30:04Z</time>
      </trkpt>
      <trkpt lat="46.54045" lon="-1.80188">
        <ele>4</ele>
        <time>2020-06-03T14:30:05Z</time>
      </trkpt>
      <trkpt lat="46.54049" lon="-1.80188">
        <ele>4</ele>
        <time>2020-06-03T14:30:06Z</time>
      </trkpt>
      <trkpt lat="46.54054" lon="-1.80189">
        <ele>4</ele>
        <time>2020-06-03T14:30:07Z</time>
      </trkpt>
      <trkpt lat="46.54058" lon="-1.80189">
        <ele>4</ele>
        <time>2020-06-03T14:30:08Z</time>
      </trkpt>
      <trkpt lat="46.54062" lon="-1.80189">
        <ele>4</ele>
        <time>2020-06-03T14:30:09Z</time>
      </trkpt>
      <trkpt lat="46.54067" lon="-1.8019">
        <ele>4</ele>
        <time>2020-06-03T14:30:10Z</time>
      </trkpt>
      <trkpt lat="46.54071" lon="-1.8019">
        <ele>4</ele>
        <time>2020-06-03T14:30:11Z</time>
      </trkpt>
      <trkpt lat="46.54076" lon="-1.80191">
        <ele>4</ele>
        <time>2020-06-03T14:30:12Z</time>
      </trkpt>
      <trkpt lat="46.5408" lon="-1.80191">
        <ele>4</ele>
        <time>2020-06-03T14:30:13Z</time>
      </trkpt>
      <trkpt lat="46.54085" lon="-1.80191">
        <ele>4</ele>
        <time>2020-06-03T14:30:14Z</time>
      </trkpt>
      <trkpt lat="46.54089" lon="-1.80192">
        <ele>4</ele>
        <time>2020-06-03T14:30:15Z</time>
      </trkpt>
      <trkpt lat="46.54094" lon="-1.80193">
        <ele>4</ele>
        <time>2020-06-03T14:30:16Z</time>
      </trkpt>
      <trkpt lat="46.54098" lon="-1.80193">
        <ele>4</ele>
        <time>2020-06-03T14:30:17Z</time>
      </trkpt>
      <trkpt lat="46.54103" lon="-1.80195">
        <ele>4</ele>
        <time>2020-06-03T14:30:18Z</time>
      </trkpt>
      <trkpt lat="46.54107" lon="-1.80196">
        <ele>4</ele>
        <time>2020-06-03T14:30:19Z</time>
      </trkpt>
      <trkpt lat="46.54112" lon="-1.80197">
        <ele>4</ele>
        <time>2020-06-03T14:30:20Z</time>
      </trkpt>
      <trkpt lat="46.54117" lon="-1.80199">
        <ele>4</ele>
        <time>2020-06-03T14:30:21Z</time>
      </trkpt>
      <trkpt lat="46.54121" lon="-1.80201">
        <ele>4</ele>
        <time>2020-06-03T14:30:22Z</time>
      </trkpt>
      <trkpt lat="46.54126" lon="-1.80202">
        <ele>4</ele>
        <time>2020-06-03T14:30:23Z</time>
      </trkpt>
      <trkpt lat="46.54131" lon="-1.80203">
        <ele>4</ele>
        <time>2020-06-03T14:30:24Z</time>
      </trkpt>
      <trkpt lat="46.54135" lon="-1.80204">
        <ele>4</ele>
        <time>2020-06-03T14:30:25Z</time>
      </trkpt>
      <trkpt lat="46.5414" lon="-1.80205">
        <ele>4</ele>
        <time>2020-06-03T14:30:26Z</time>
      </trkpt>
      <trkpt lat="46.54145" lon="-1.80206">
        <ele>4</ele>
        <time>2020-06-03T14:30:27Z</time>
      </trkpt>
      <trkpt lat="46.54149" lon="-1.80206">
        <ele>4</ele>
        <time>2020-06-03T14:30:28Z</time>
      </trkpt>
      <trkpt lat="46.54153" lon="-1.80206">
        <ele>4</ele>
        <time>2020-06-03T14:30:29Z</time>
      </trkpt>
      <trkpt lat="46.54159" lon="-1.80205">
        <ele>4</ele>
        <time>2020-06-03T14:30:30Z</time>
      </trkpt>
      <trkpt lat="46.54164" lon="-1.80204">
        <ele>4</ele>
        <time>2020-06-03T14:30:31Z</time>
      </trkpt>
      <trkpt lat="46.5417" lon="-1.80204">
        <ele>4</ele>
        <time>2020-06-03T14:30:32Z</time>
      </trkpt>
      <trkpt lat="46.54175" lon="-1.80205">
        <ele>4</ele>
        <time>2020-06-03T14:30:33Z</time>
      </trkpt>
      <trkpt lat="46.5418" lon="-1.80205">
        <ele>4</ele>
        <time>2020-06-03T14:30:34Z</time>
      </trkpt>
      <trkpt lat="46.54185" lon="-1.80205">
        <ele>4</ele>
        <time>2020-06-03T14:30:35Z</time>
      </trkpt>
      <trkpt lat="46.54189" lon="-1.80205">
        <ele>4</ele>
        <time>2020-06-03T14:30:36Z</time>
      </trkpt>
      <trkpt lat="46.54194" lon="-1.80204">
        <ele>4</ele>
        <time>2020-06-03T14:30:37Z</time>
      </trkpt>
      <trkpt lat="46.54199" lon="-1.80204">
        <ele>4</ele>
        <time>2020-06-03T14:30:38Z</time>
      </trkpt>
      <trkpt lat="46.54204" lon="-1.80203">
        <ele>4</ele>
        <time>2020-06-03T14:30:39Z</time>
      </trkpt>
      <trkpt lat="46.54209" lon="-1.80201">
        <ele>4</ele>
        <time>2020-06-03T14:30:40Z</time>
      </trkpt>
      <trkpt lat="46.54214" lon="-1.80199">
        <ele>4</ele>
        <time>2020-06-03T14:30:41Z</time>
      </trkpt>
      <trkpt lat="46.54218" lon="-1.80197">
        <ele>3.9</ele>
        <time>2020-06-03T14:30:42Z</time>
      </trkpt>
      <trkpt lat="46.54222" lon="-1.80194">
        <ele>3.9</ele>
        <time>2020-06-03T14:30:43Z</time>
      </trkpt>
      <trkpt lat="46.54227" lon="-1.80192">
        <ele>3.9</ele>
        <time>2020-06-03T14:30:44Z</time>
      </trkpt>
      <trkpt lat="46.54232" lon="-1.80189">
        <ele>3.9</ele>
        <time>2020-06-03T14:30:45Z</time>
      </trkpt>
      <trkpt lat="46.54236" lon="-1.80187">
        <ele>3.8</ele>
        <time>2020-06-03T14:30:46Z</time>
      </trkpt>
      <trkpt lat="46.54241" lon="-1.80185">
        <ele>3.8</ele>
        <time>2020-06-03T14:30:47Z</time>
      </trkpt>
      <trkpt lat="46.54245" lon="-1.80181">
        <ele>3.8</ele>
        <time>2020-06-03T14:30:48Z</time>
      </trkpt>
      <trkpt lat="46.54249" lon="-1.80178">
        <ele>3.8</ele>
        <time>2020-06-03T14:30:49Z</time>
      </trkpt>
      <trkpt lat="46.54253" lon="-1.80175">
        <ele>3.7</ele>
        <time>2020-06-03T14:30:50Z</time>
      </trkpt>
      <trkpt lat="46.54257" lon="-1.80172">
        <ele>3.7</ele>
        <time>2020-06-03T14:30:51Z</time>
      </trkpt>
      <trkpt lat="46.54261" lon="-1.80169">
        <ele>3.7</ele>
        <time>2020-06-03T14:30:52Z</time>
      </trkpt>
      <trkpt lat="46.54265" lon="-1.80166">
        <ele>3.7</ele>
        <time>2020-06-03T14:30:53Z</time>
      </trkpt>
      <trkpt lat="46.54268" lon="-1.80164">
        <ele>3.7</ele>
        <time>2020-06-03T14:30:54Z</time>
      </trkpt>
      <trkpt lat="46.54271" lon="-1.80162">
        <ele>3.7</ele>
        <time>2020-06-03T14:30:55Z</time>
      </trkpt>
      <trkpt lat="46.54274" lon="-1.8016">
        <ele>3.7</ele>
        <time>2020-06-03T14:30:56Z</time>
      </trkpt>
      <trkpt lat="46.54276" lon="-1.8016">
        <ele>3.6</ele>
        <time>2020-06-03T14:30:57Z</time>
      </trkpt>
      <trkpt lat="46.54279" lon="-1.8016">
        <ele>3.6</ele>
        <time>2020-06-03T14:30:58Z</time>
      </trkpt>
      <trkpt lat="46.54282" lon="-1.80162">
        <ele>3.6</ele>
        <time>2020-06-03T14:30:59Z</time>
      </trkpt>
      <trkpt lat="46.54285" lon="-1.80166">
        <ele>3.6</ele>
        <time>2020-06-03T14:31:00Z</time>
      </trkpt>
      <trkpt lat="46.54287" lon="-1.80171">
        <ele>3.6</ele>
        <time>2020-06-03T14:31:01Z</time>
      </trkpt>
      <trkpt lat="46.5429" lon="-1.80176">
        <ele>3.6</ele>
        <time>2020-06-03T14:31:02Z</time>
      </trkpt>
      <trkpt lat="46.54293" lon="-1.8018">
        <ele>3.6</ele>
        <time>2020-06-03T14:31:03Z</time>
      </trkpt>
      <trkpt lat="46.54296" lon="-1.80184">
        <ele>3.6</ele>
        <time>2020-06-03T14:31:04Z</time>
      </trkpt>
      <trkpt lat="46.54299" lon="-1.80188">
        <ele>3.6</ele>
        <time>2020-06-03T14:31:05Z</time>
      </trkpt>
      <trkpt lat="46.54302" lon="-1.80192">
        <ele>3.6</ele>
        <time>2020-06-03T14:31:06Z</time>
      </trkpt>
      <trkpt lat="46.54304" lon="-1.80196">
        <ele>3.6</ele>
        <time>2020-06-03T14:31:07Z</time>
      </trkpt>
      <trkpt lat="46.54307" lon="-1.80201">
        <ele>3.6</ele>
        <time>2020-06-03T14:31:08Z</time>
      </trkpt>
      <trkpt lat="46.54309" lon="-1.80207">
        <ele>3.6</ele>
        <time>2020-06-03T14:31:09Z</time>
      </trkpt>
      <trkpt lat="46.5431" lon="-1.80214">
        <ele>3.6</ele>
        <time>2020-06-03T14:31:10Z</time>
      </trkpt>
      <trkpt lat="46.54308" lon="-1.8022">
        <ele>3.4</ele>
        <time>2020-06-03T14:31:11Z</time>
      </trkpt>
      <trkpt lat="46.54306" lon="-1.80225">
        <ele>3.4</ele>
        <time>2020-06-03T14:31:12Z</time>
      </trkpt>
      <trkpt lat="46.54303" lon="-1.80229">
        <ele>3.3</ele>
        <time>2020-06-03T14:31:13Z</time>
      </trkpt>
      <trkpt lat="46.54301" lon="-1.80232">
        <ele>3.3</ele>
        <time>2020-06-03T14:31:14Z</time>
      </trkpt>
      <trkpt lat="46.543" lon="-1.80235">
        <ele>3.2</ele>
        <time>2020-06-03T14:31:15Z</time>
      </trkpt>
      <trkpt lat="46.54299" lon="-1.80241">
        <ele>3.2</ele>
        <time>2020-06-03T14:31:16Z</time>
      </trkpt>
      <trkpt lat="46.543" lon="-1.80243">
        <ele>3.1</ele>
        <time>2020-06-03T14:31:17Z</time>
      </trkpt>
      <trkpt lat="46.543" lon="-1.80247">
        <ele>3.1</ele>
        <time>2020-06-03T14:31:18Z</time>
      </trkpt>
      <trkpt lat="46.54301" lon="-1.80253">
        <ele>3</ele>
        <time>2020-06-03T14:31:19Z</time>
      </trkpt>
      <trkpt lat="46.54302" lon="-1.80256">
        <ele>3</ele>
        <time>2020-06-03T14:31:20Z</time>
      </trkpt>
      <trkpt lat="46.54302" lon="-1.80262">
        <ele>2.9</ele>
        <time>2020-06-03T14:31:21Z</time>
      </trkpt>
      <trkpt lat="46.54303" lon="-1.80267">
        <ele>2.9</ele>
        <time>2020-06-03T14:31:22Z</time>
      </trkpt>
      <trkpt lat="46.54303" lon="-1.80274">
        <ele>2.9</ele>
        <time>2020-06-03T14:31:23Z</time>
      </trkpt>
      <trkpt lat="46.54302" lon="-1.8028">
        <ele>2.8</ele>
        <time>2020-06-03T14:31:24Z</time>
      </trkpt>
      <trkpt lat="46.543" lon="-1.80286">
        <ele>2.8</ele>
        <time>2020-06-03T14:31:25Z</time>
      </trkpt>
      <trkpt lat="46.54299" lon="-1.80292">
        <ele>2.8</ele>
        <time>2020-06-03T14:31:26Z</time>
      </trkpt>
      <trkpt lat="46.54298" lon="-1.80297">
        <ele>2.8</ele>
        <time>2020-06-03T14:31:27Z</time>
      </trkpt>
      <trkpt lat="46.54298" lon="-1.80302">
        <ele>2.8</ele>
        <time>2020-06-03T14:31:28Z</time>
      </trkpt>
      <trkpt lat="46.54298" lon="-1.80308">
        <ele>2.8</ele>
        <time>2020-06-03T14:31:29Z</time>
      </trkpt>
      <trkpt lat="46.54298" lon="-1.80314">
        <ele>2.7</ele>
        <time>2020-06-03T14:31:30Z</time>
      </trkpt>
      <trkpt lat="46.54298" lon="-1.8032">
        <ele>2.7</ele>
        <time>2020-06-03T14:31:31Z</time>
      </trkpt>
      <trkpt lat="46.54299" lon="-1.80327">
        <ele>2.7</ele>
        <time>2020-06-03T14:31:32Z</time>
      </trkpt>
      <trkpt lat="46.543" lon="-1.80332">
        <ele>2.7</ele>
        <time>2020-06-03T14:31:33Z</time>
      </trkpt>
      <trkpt lat="46.54302" lon="-1.80338">
        <ele>2.7</ele>
        <time>2020-06-03T14:31:34Z</time>
      </trkpt>
      <trkpt lat="46.54304" lon="-1.80345">
        <ele>2.7</ele>
        <time>2020-06-03T14:31:35Z</time>
      </trkpt>
      <trkpt lat="46.54306" lon="-1.80351">
        <ele>2.7</ele>
        <time>2020-06-03T14:31:36Z</time>
      </trkpt>
      <trkpt lat="46.54308" lon="-1.80356">
        <ele>2.7</ele>
        <time>2020-06-03T14:31:37Z</time>
      </trkpt>
      <trkpt lat="46.54311" lon="-1.80361">
        <ele>2.7</ele>
        <time>2020-06-03T14:31:38Z</time>
      </trkpt>
      <trkpt lat="46.54312" lon="-1.80367">
        <ele>2.7</ele>
        <time>2020-06-03T14:31:39Z</time>
      </trkpt>
      <trkpt lat="46.54314" lon="-1.80374">
        <ele>2.7</ele>
        <time>2020-06-03T14:31:40Z</time>
      </trkpt>
      <trkpt lat="46.54315" lon="-1.8038">
        <ele>2.7</ele>
        <time>2020-06-03T14:31:41Z</time>
      </trkpt>
      <trkpt lat="46.54316" lon="-1.80386">
        <ele>2.7</ele>
        <time>2020-06-03T14:31:42Z</time>
      </trkpt>
      <trkpt lat="46.54317" lon="-1.80393">
        <ele>2.7</ele>
        <time>2020-06-03T14:31:43Z</time>
      </trkpt>
      <trkpt lat="46.54318" lon="-1.804">
        <ele>2.7</ele>
        <time>2020-06-03T14:31:44Z</time>
      </trkpt>
      <trkpt lat="46.54319" lon="-1.80407">
        <ele>2.7</ele>
        <time>2020-06-03T14:31:45Z</time>
      </trkpt>
      <trkpt lat="46.5432" lon="-1.80414">
        <ele>2.6</ele>
        <time>2020-06-03T14:31:46Z</time>
      </trkpt>
      <trkpt lat="46.54321" lon="-1.8042">
        <ele>2.6</ele>
        <time>2020-06-03T14:31:47Z</time>
      </trkpt>
      <trkpt lat="46.54322" lon="-1.80426">
        <ele>2.6</ele>
        <time>2020-06-03T14:31:48Z</time>
      </trkpt>
      <trkpt lat="46.54323" lon="-1.80432">
        <ele>2.6</ele>
        <time>2020-06-03T14:31:49Z</time>
      </trkpt>
      <trkpt lat="46.54324" lon="-1.80438">
        <ele>2.6</ele>
        <time>2020-06-03T14:31:50Z</time>
      </trkpt>
      <trkpt lat="46.54324" lon="-1.80443">
        <ele>2.6</ele>
        <time>2020-06-03T14:31:51Z</time>
      </trkpt>
      <trkpt lat="46.54326" lon="-1.80449">
        <ele>2.6</ele>
        <time>2020-06-03T14:31:52Z</time>
      </trkpt>
      <trkpt lat="46.54327" lon="-1.80454">
        <ele>2.6</ele>
        <time>2020-06-03T14:31:53Z</time>
      </trkpt>
      <trkpt lat="46.54329" lon="-1.8046">
        <ele>2.5</ele>
        <time>2020-06-03T14:31:54Z</time>
      </trkpt>
      <trkpt lat="46.5433" lon="-1.80465">
        <ele>2.5</ele>
        <time>2020-06-03T14:31:55Z</time>
      </trkpt>
      <trkpt lat="46.54333" lon="-1.8047">
        <ele>2.5</ele>
        <time>2020-06-03T14:31:56Z</time>
      </trkpt>
      <trkpt lat="46.54335" lon="-1.80476">
        <ele>2.5</ele>
        <time>2020-06-03T14:31:57Z</time>
      </trkpt>
      <trkpt lat="46.54336" lon="-1.80482">
        <ele>2.5</ele>
        <time>2020-06-03T14:31:58Z</time>
      </trkpt>
      <trkpt lat="46.54338" lon="-1.80488">
        <ele>2.5</ele>
        <time>2020-06-03T14:31:59Z</time>
      </trkpt>
      <trkpt lat="46.54339" lon="-1.80495">
        <ele>2.5</ele>
        <time>2020-06-03T14:32:00Z</time>
      </trkpt>
      <trkpt lat="46.5434" lon="-1.80501">
        <ele>2.5</ele>
        <time>2020-06-03T14:32:01Z</time>
      </trkpt>
      <trkpt lat="46.54341" lon="-1.80507">
        <ele>2.5</ele>
        <time>2020-06-03T14:32:02Z</time>
      </trkpt>
      <trkpt lat="46.54341" lon="-1.80514">
        <ele>2.5</ele>
        <time>2020-06-03T14:32:03Z</time>
      </trkpt>
      <trkpt lat="46.54341" lon="-1.80519">
        <ele>2.5</ele>
        <time>2020-06-03T14:32:04Z</time>
      </trkpt>
      <trkpt lat="46.54341" lon="-1.80525">
        <ele>2.4</ele>
        <time>2020-06-03T14:32:05Z</time>
      </trkpt>
      <trkpt lat="46.54342" lon="-1.80531">
        <ele>2.4</ele>
        <time>2020-06-03T14:32:06Z</time>
      </trkpt>
      <trkpt lat="46.54342" lon="-1.80538">
        <ele>2.4</ele>
        <time>2020-06-03T14:32:07Z</time>
      </trkpt>
      <trkpt lat="46.54343" lon="-1.80545">
        <ele>2.4</ele>
        <time>2020-06-03T14:32:08Z</time>
      </trkpt>
      <trkpt lat="46.54344" lon="-1.80552">
        <ele>2.4</ele>
        <time>2020-06-03T14:32:09Z</time>
      </trkpt>
      <trkpt lat="46.54345" lon="-1.80558">
        <ele>2.4</ele>
        <time>2020-06-03T14:32:10Z</time>
      </trkpt>
      <trkpt lat="46.54346" lon="-1.80565">
        <ele>2.4</ele>
        <time>2020-06-03T14:32:11Z</time>
      </trkpt>
      <trkpt lat="46.54347" lon="-1.8057">
        <ele>2.4</ele>
        <time>2020-06-03T14:32:12Z</time>
      </trkpt>
      <trkpt lat="46.54348" lon="-1.80576">
        <ele>2.4</ele>
        <time>2020-06-03T14:32:13Z</time>
      </trkpt>
      <trkpt lat="46.5435" lon="-1.80581">
        <ele>2.4</ele>
        <time>2020-06-03T14:32:14Z</time>
      </trkpt>
      <trkpt lat="46.54352" lon="-1.80586">
        <ele>2.5</ele>
        <time>2020-06-03T14:32:15Z</time>
      </trkpt>
      <trkpt lat="46.54354" lon="-1.80591">
        <ele>2.5</ele>
        <time>2020-06-03T14:32:16Z</time>
      </trkpt>
      <trkpt lat="46.54356" lon="-1.80596">
        <ele>2.5</ele>
        <time>2020-06-03T14:32:17Z</time>
      </trkpt>
      <trkpt lat="46.54358" lon="-1.80601">
        <ele>2.5</ele>
        <time>2020-06-03T14:32:18Z</time>
      </trkpt>
      <trkpt lat="46.5436" lon="-1.80607">
        <ele>2.5</ele>
        <time>2020-06-03T14:32:19Z</time>
      </trkpt>
      <trkpt lat="46.54362" lon="-1.80614">
        <ele>2.6</ele>
        <time>2020-06-03T14:32:20Z</time>
      </trkpt>
      <trkpt lat="46.54362" lon="-1.8062">
        <ele>2.6</ele>
        <time>2020-06-03T14:32:21Z</time>
      </trkpt>
      <trkpt lat="46.54363" lon="-1.80626">
        <ele>2.6</ele>
        <time>2020-06-03T14:32:22Z</time>
      </trkpt>
      <trkpt lat="46.54364" lon="-1.80632">
        <ele>2.6</ele>
        <time>2020-06-03T14:32:23Z</time>
      </trkpt>
      <trkpt lat="46.54364" lon="-1.80638">
        <ele>2.7</ele>
        <time>2020-06-03T14:32:24Z</time>
      </trkpt>
      <trkpt lat="46.54364" lon="-1.80645">
        <ele>2.7</ele>
        <time>2020-06-03T14:32:25Z</time>
      </trkpt>
      <trkpt lat="46.54365" lon="-1.80652">
        <ele>2.8</ele>
        <time>2020-06-03T14:32:26Z</time>
      </trkpt>
      <trkpt lat="46.54365" lon="-1.80659">
        <ele>2.8</ele>
        <time>2020-06-03T14:32:27Z</time>
      </trkpt>
      <trkpt lat="46.54364" lon="-1.80665">
        <ele>2.8</ele>
        <time>2020-06-03T14:32:28Z</time>
      </trkpt>
      <trkpt lat="46.54363" lon="-1.80671">
        <ele>2.8</ele>
        <time>2020-06-03T14:32:29Z</time>
      </trkpt>
      <trkpt lat="46.54362" lon="-1.80677">
        <ele>2.8</ele>
        <time>2020-06-03T14:32:30Z</time>
      </trkpt>
      <trkpt lat="46.5436" lon="-1.80683">
        <ele>2.8</ele>
        <time>2020-06-03T14:32:31Z</time>
      </trkpt>
      <trkpt lat="46.54358" lon="-1.80689">
        <ele>2.8</ele>
        <time>2020-06-03T14:32:32Z</time>
      </trkpt>
      <trkpt lat="46.54356" lon="-1.80694">
        <ele>2.7</ele>
        <time>2020-06-03T14:32:33Z</time>
      </trkpt>
      <trkpt lat="46.54354" lon="-1.80699">
        <ele>2.7</ele>
        <time>2020-06-03T14:32:34Z</time>
      </trkpt>
      <trkpt lat="46.54352" lon="-1.80704">
        <ele>2.7</ele>
        <time>2020-06-03T14:32:35Z</time>
      </trkpt>
      <trkpt lat="46.54351" lon="-1.8071">
        <ele>2.7</ele>
        <time>2020-06-03T14:32:36Z</time>
      </trkpt>
      <trkpt lat="46.5435" lon="-1.80716">
        <ele>2.7</ele>
        <time>2020-06-03T14:32:37Z</time>
      </trkpt>
      <trkpt lat="46.54349" lon="-1.80723">
        <ele>2.7</ele>
        <time>2020-06-03T14:32:38Z</time>
      </trkpt>
      <trkpt lat="46.54348" lon="-1.80731">
        <ele>2.7</ele>
        <time>2020-06-03T14:32:39Z</time>
      </trkpt>
      <trkpt lat="46.54348" lon="-1.80738">
        <ele>2.7</ele>
        <time>2020-06-03T14:32:40Z</time>
      </trkpt>
      <trkpt lat="46.54348" lon="-1.80746">
        <ele>2.7</ele>
        <time>2020-06-03T14:32:41Z</time>
      </trkpt>
      <trkpt lat="46.54349" lon="-1.80752">
        <ele>2.7</ele>
        <time>2020-06-03T14:32:42Z</time>
      </trkpt>
      <trkpt lat="46.54349" lon="-1.8076">
        <ele>2.7</ele>
        <time>2020-06-03T14:32:43Z</time>
      </trkpt>
      <trkpt lat="46.54349" lon="-1.80767">
        <ele>2.7</ele>
        <time>2020-06-03T14:32:44Z</time>
      </trkpt>
      <trkpt lat="46.54349" lon="-1.80774">
        <ele>2.6</ele>
        <time>2020-06-03T14:32:45Z</time>
      </trkpt>
      <trkpt lat="46.54349" lon="-1.80781">
        <ele>2.6</ele>
        <time>2020-06-03T14:32:46Z</time>
      </trkpt>
      <trkpt lat="46.5435" lon="-1.80788">
        <ele>2.6</ele>
        <time>2020-06-03T14:32:47Z</time>
      </trkpt>
      <trkpt lat="46.5435" lon="-1.80796">
        <ele>2.6</ele>
        <time>2020-06-03T14:32:48Z</time>
      </trkpt>
      <trkpt lat="46.5435" lon="-1.80803">
        <ele>2.6</ele>
        <time>2020-06-03T14:32:49Z</time>
      </trkpt>
      <trkpt lat="46.54353" lon="-1.80809">
        <ele>2.6</ele>
        <time>2020-06-03T14:32:50Z</time>
      </trkpt>
      <trkpt lat="46.54355" lon="-1.80814">
        <ele>2.6</ele>
        <time>2020-06-03T14:32:51Z</time>
      </trkpt>
      <trkpt lat="46.54358" lon="-1.80819">
        <ele>2.6</ele>
        <time>2020-06-03T14:32:52Z</time>
      </trkpt>
      <trkpt lat="46.54361" lon="-1.80824">
        <ele>2.5</ele>
        <time>2020-06-03T14:32:53Z</time>
      </trkpt>
      <trkpt lat="46.54364" lon="-1.80831">
        <ele>2.5</ele>
        <time>2020-06-03T14:32:54Z</time>
      </trkpt>
      <trkpt lat="46.54366" lon="-1.80837">
        <ele>2.5</ele>
        <time>2020-06-03T14:32:55Z</time>
      </trkpt>
      <trkpt lat="46.54368" lon="-1.80843">
        <ele>2.6</ele>
        <time>2020-06-03T14:32:56Z</time>
      </trkpt>
      <trkpt lat="46.5437" lon="-1.80849">
        <ele>2.6</ele>
        <time>2020-06-03T14:32:57Z</time>
      </trkpt>
      <trkpt lat="46.54371" lon="-1.80855">
        <ele>2.6</ele>
        <time>2020-06-03T14:32:58Z</time>
      </trkpt>
      <trkpt lat="46.54371" lon="-1.80861">
        <ele>2.6</ele>
        <time>2020-06-03T14:32:59Z</time>
      </trkpt>
      <trkpt lat="46.54371" lon="-1.80868">
        <ele>2.6</ele>
        <time>2020-06-03T14:33:00Z</time>
      </trkpt>
      <trkpt lat="46.54372" lon="-1.80874">
        <ele>2.7</ele>
        <time>2020-06-03T14:33:01Z</time>
      </trkpt>
      <trkpt lat="46.54372" lon="-1.8088">
        <ele>2.7</ele>
        <time>2020-06-03T14:33:02Z</time>
      </trkpt>
      <trkpt lat="46.54373" lon="-1.80886">
        <ele>2.7</ele>
        <time>2020-06-03T14:33:03Z</time>
      </trkpt>
      <trkpt lat="46.54373" lon="-1.80893">
        <ele>2.7</ele>
        <time>2020-06-03T14:33:04Z</time>
      </trkpt>
      <trkpt lat="46.54373" lon="-1.809">
        <ele>2.8</ele>
        <time>2020-06-03T14:33:05Z</time>
      </trkpt>
      <trkpt lat="46.54373" lon="-1.80907">
        <ele>2.8</ele>
        <time>2020-06-03T14:33:06Z</time>
      </trkpt>
      <trkpt lat="46.54373" lon="-1.80913">
        <ele>2.8</ele>
        <time>2020-06-03T14:33:07Z</time>
      </trkpt>
      <trkpt lat="46.54372" lon="-1.80918">
        <ele>2.8</ele>
        <time>2020-06-03T14:33:08Z</time>
      </trkpt>
      <trkpt lat="46.54373" lon="-1.80923">
        <ele>2.8</ele>
        <time>2020-06-03T14:33:09Z</time>
      </trkpt>
      <trkpt lat="46.54374" lon="-1.80929">
        <ele>2.9</ele>
        <time>2020-06-03T14:33:10Z</time>
      </trkpt>
      <trkpt lat="46.54374" lon="-1.80936">
        <ele>2.9</ele>
        <time>2020-06-03T14:33:11Z</time>
      </trkpt>
      <trkpt lat="46.54376" lon="-1.80943">
        <ele>2.9</ele>
        <time>2020-06-03T14:33:12Z</time>
      </trkpt>
      <trkpt lat="46.54377" lon="-1.8095">
        <ele>2.9</ele>
        <time>2020-06-03T14:33:13Z</time>
      </trkpt>
      <trkpt lat="46.54379" lon="-1.80956">
        <ele>2.9</ele>
        <time>2020-06-03T14:33:14Z</time>
      </trkpt>
      <trkpt lat="46.54381" lon="-1.80962">
        <ele>2.9</ele>
        <time>2020-06-03T14:33:15Z</time>
      </trkpt>
      <trkpt lat="46.54383" lon="-1.80968">
        <ele>3</ele>
        <time>2020-06-03T14:33:16Z</time>
      </trkpt>
      <trkpt lat="46.54385" lon="-1.80972">
        <ele>3</ele>
        <time>2020-06-03T14:33:17Z</time>
      </trkpt>
      <trkpt lat="46.54388" lon="-1.80976">
        <ele>3</ele>
        <time>2020-06-03T14:33:18Z</time>
      </trkpt>
      <trkpt lat="46.54391" lon="-1.80979">
        <ele>3.1</ele>
        <time>2020-06-03T14:33:19Z</time>
      </trkpt>
      <trkpt lat="46.54394" lon="-1.80981">
        <ele>3.1</ele>
        <time>2020-06-03T14:33:20Z</time>
      </trkpt>
      <trkpt lat="46.54397" lon="-1.80984">
        <ele>3.2</ele>
        <time>2020-06-03T14:33:21Z</time>
      </trkpt>
      <trkpt lat="46.54401" lon="-1.80989">
        <ele>3.3</ele>
        <time>2020-06-03T14:33:22Z</time>
      </trkpt>
      <trkpt lat="46.54404" lon="-1.80994">
        <ele>3.4</ele>
        <time>2020-06-03T14:33:23Z</time>
      </trkpt>
      <trkpt lat="46.54407" lon="-1.81">
        <ele>3.5</ele>
        <time>2020-06-03T14:33:24Z</time>
      </trkpt>
      <trkpt lat="46.54409" lon="-1.81006">
        <ele>3.6</ele>
        <time>2020-06-03T14:33:25Z</time>
      </trkpt>
      <trkpt lat="46.54412" lon="-1.81011">
        <ele>3.6</ele>
        <time>2020-06-03T14:33:26Z</time>
      </trkpt>
      <trkpt lat="46.54415" lon="-1.81017">
        <ele>3.7</ele>
        <time>2020-06-03T14:33:27Z</time>
      </trkpt>
      <trkpt lat="46.54417" lon="-1.81021">
        <ele>3.8</ele>
        <time>2020-06-03T14:33:28Z</time>
      </trkpt>
      <trkpt lat="46.54419" lon="-1.81025">
        <ele>3.8</ele>
        <time>2020-06-03T14:33:29Z</time>
      </trkpt>
      <trkpt lat="46.5442" lon="-1.81029">
        <ele>3.8</ele>
        <time>2020-06-03T14:33:30Z</time>
      </trkpt>
      <trkpt lat="46.54421" lon="-1.8103">
        <ele>3.8</ele>
        <time>2020-06-03T14:33:31Z</time>
      </trkpt>
      <trkpt lat="46.54421" lon="-1.8103">
        <ele>3.8</ele>
        <time>2020-06-03T14:33:32Z</time>
      </trkpt>
      <trkpt lat="46.54421" lon="-1.8103">
        <ele>3.8</ele>
        <time>2020-06-03T14:33:33Z</time>
      </trkpt>
      <trkpt lat="46.54422" lon="-1.81031">
        <ele>3.8</ele>
        <time>2020-06-03T14:33:34Z</time>
      </trkpt>
      <trkpt lat="46.54422" lon="-1.81031">
        <ele>3.8</ele>
        <time>2020-06-03T14:33:35Z</time>
      </trkpt>
      <trkpt lat="46.54422" lon="-1.81032">
        <ele>3.9</ele>
        <time>2020-06-03T14:33:36Z</time>
      </trkpt>
      <trkpt lat="46.54423" lon="-1.81033">
        <ele>3.9</ele>
        <time>2020-06-03T14:33:37Z</time>
      </trkpt>
      <trkpt lat="46.54423" lon="-1.81034">
        <ele>3.9</ele>
        <time>2020-06-03T14:33:38Z</time>
      </trkpt>
      <trkpt lat="46.54424" lon="-1.81036">
        <ele>4</ele>
        <time>2020-06-03T14:33:39Z</time>
      </trkpt>
      <trkpt lat="46.54425" lon="-1.81038">
        <ele>4</ele>
        <time>2020-06-03T14:33:40Z</time>
      </trkpt>
      <trkpt lat="46.54427" lon="-1.81039">
        <ele>4</ele>
        <time>2020-06-03T14:33:41Z</time>
      </trkpt>
      <trkpt lat="46.5443" lon="-1.81038">
        <ele>4</ele>
        <time>2020-06-03T14:33:42Z</time>
      </trkpt>
      <trkpt lat="46.54431" lon="-1.81037">
        <ele>4</ele>
        <time>2020-06-03T14:33:43Z</time>
      </trkpt>
      <trkpt lat="46.54434" lon="-1.81036">
        <ele>4</ele>
        <time>2020-06-03T14:33:44Z</time>
      </trkpt>
      <trkpt lat="46.54437" lon="-1.81035">
        <ele>4</ele>
        <time>2020-06-03T14:33:45Z</time>
      </trkpt>
      <trkpt lat="46.54441" lon="-1.81033">
        <ele>4</ele>
        <time>2020-06-03T14:33:46Z</time>
      </trkpt>
      <trkpt lat="46.54446" lon="-1.81031">
        <ele>4</ele>
        <time>2020-06-03T14:33:47Z</time>
      </trkpt>
      <trkpt lat="46.54451" lon="-1.81029">
        <ele>4</ele>
        <time>2020-06-03T14:33:48Z</time>
      </trkpt>
      <trkpt lat="46.54456" lon="-1.81029">
        <ele>4</ele>
        <time>2020-06-03T14:33:49Z</time>
      </trkpt>
      <trkpt lat="46.54461" lon="-1.81029">
        <ele>4</ele>
        <time>2020-06-03T14:33:50Z</time>
      </trkpt>
      <trkpt lat="46.54466" lon="-1.81029">
        <ele>4</ele>
        <time>2020-06-03T14:33:51Z</time>
      </trkpt>
      <trkpt lat="46.5447" lon="-1.81028">
        <ele>4</ele>
        <time>2020-06-03T14:33:52Z</time>
      </trkpt>
      <trkpt lat="46.54474" lon="-1.81027">
        <ele>4</ele>
        <time>2020-06-03T14:33:53Z</time>
      </trkpt>
      <trkpt lat="46.54479" lon="-1.81027">
        <ele>4</ele>
        <time>2020-06-03T14:33:54Z</time>
      </trkpt>
      <trkpt lat="46.54483" lon="-1.81026">
        <ele>4</ele>
        <time>2020-06-03T14:33:55Z</time>
      </trkpt>
      <trkpt lat="46.54488" lon="-1.81027">
        <ele>4</ele>
        <time>2020-06-03T14:33:56Z</time>
      </trkpt>
      <trkpt lat="46.54492" lon="-1.81027">
        <ele>4</ele>
        <time>2020-06-03T14:33:57Z</time>
      </trkpt>
      <trkpt lat="46.54497" lon="-1.81029">
        <ele>3.9</ele>
        <time>2020-06-03T14:33:58Z</time>
      </trkpt>
      <trkpt lat="46.54503" lon="-1.81031">
        <ele>3.9</ele>
        <time>2020-06-03T14:33:59Z</time>
      </trkpt>
      <trkpt lat="46.54508" lon="-1.81031">
        <ele>3.9</ele>
        <time>2020-06-03T14:34:00Z</time>
      </trkpt>
      <trkpt lat="46.54513" lon="-1.81032">
        <ele>3.9</ele>
        <time>2020-06-03T14:34:01Z</time>
      </trkpt>
      <trkpt lat="46.54517" lon="-1.81033">
        <ele>3.9</ele>
        <time>2020-06-03T14:34:02Z</time>
      </trkpt>
      <trkpt lat="46.54522" lon="-1.81034">
        <ele>3.9</ele>
        <time>2020-06-03T14:34:03Z</time>
      </trkpt>
      <trkpt lat="46.54526" lon="-1.81033">
        <ele>3.9</ele>
        <time>2020-06-03T14:34:04Z</time>
      </trkpt>
      <trkpt lat="46.5453" lon="-1.81031">
        <ele>3.9</ele>
        <time>2020-06-03T14:34:05Z</time>
      </trkpt>
      <trkpt lat="46.54533" lon="-1.81029">
        <ele>3.9</ele>
        <time>2020-06-03T14:34:06Z</time>
      </trkpt>
      <trkpt lat="46.54536" lon="-1.81026">
        <ele>3.9</ele>
        <time>2020-06-03T14:34:07Z</time>
      </trkpt>
      <trkpt lat="46.54539" lon="-1.81022">
        <ele>3.9</ele>
        <time>2020-06-03T14:34:08Z</time>
      </trkpt>
      <trkpt lat="46.54541" lon="-1.81018">
        <ele>3.9</ele>
        <time>2020-06-03T14:34:09Z</time>
      </trkpt>
      <trkpt lat="46.54544" lon="-1.81012">
        <ele>3.9</ele>
        <time>2020-06-03T14:34:10Z</time>
      </trkpt>
      <trkpt lat="46.54546" lon="-1.81007">
        <ele>3.9</ele>
        <time>2020-06-03T14:34:11Z</time>
      </trkpt>
      <trkpt lat="46.54548" lon="-1.81004">
        <ele>3.9</ele>
        <time>2020-06-03T14:34:12Z</time>
      </trkpt>
      <trkpt lat="46.5455" lon="-1.81003">
        <ele>3.9</ele>
        <time>2020-06-03T14:34:13Z</time>
      </trkpt>
      <trkpt lat="46.54551" lon="-1.81003">
        <ele>3.9</ele>
        <time>2020-06-03T14:34:14Z</time>
      </trkpt>
      <trkpt lat="46.54551" lon="-1.81004">
        <ele>3.9</ele>
        <time>2020-06-03T14:34:15Z</time>
      </trkpt>
      <trkpt lat="46.54552" lon="-1.81007">
        <ele>3.9</ele>
        <time>2020-06-03T14:34:16Z</time>
      </trkpt>
      <trkpt lat="46.54553" lon="-1.81011">
        <ele>3.9</ele>
        <time>2020-06-03T14:34:17Z</time>
      </trkpt>
      <trkpt lat="46.54553" lon="-1.81013">
        <ele>3.9</ele>
        <time>2020-06-03T14:34:18Z</time>
      </trkpt>
      <trkpt lat="46.54556" lon="-1.81016">
        <ele>3.9</ele>
        <time>2020-06-03T14:34:19Z</time>
      </trkpt>
      <trkpt lat="46.54557" lon="-1.81019">
        <ele>3.9</ele>
        <time>2020-06-03T14:34:20Z</time>
      </trkpt>
      <trkpt lat="46.5456" lon="-1.81022">
        <ele>3.9</ele>
        <time>2020-06-03T14:34:21Z</time>
      </trkpt>
      <trkpt lat="46.54561" lon="-1.81023">
        <ele>3.9</ele>
        <time>2020-06-03T14:34:22Z</time>
      </trkpt>
      <trkpt lat="46.54565" lon="-1.81026">
        <ele>3.9</ele>
        <time>2020-06-03T14:34:23Z</time>
      </trkpt>
      <trkpt lat="46.54566" lon="-1.81027">
        <ele>3.9</ele>
        <time>2020-06-03T14:34:24Z</time>
      </trkpt>
      <trkpt lat="46.54569" lon="-1.8103">
        <ele>3.9</ele>
        <time>2020-06-03T14:34:25Z</time>
      </trkpt>
      <trkpt lat="46.54572" lon="-1.81033">
        <ele>3.9</ele>
        <time>2020-06-03T14:34:26Z</time>
      </trkpt>
      <trkpt lat="46.54575" lon="-1.81036">
        <ele>4</ele>
        <time>2020-06-03T14:34:27Z</time>
      </trkpt>
      <trkpt lat="46.54579" lon="-1.8104">
        <ele>4</ele>
        <time>2020-06-03T14:34:28Z</time>
      </trkpt>
      <trkpt lat="46.54584" lon="-1.81044">
        <ele>4</ele>
        <time>2020-06-03T14:34:29Z</time>
      </trkpt>
      <trkpt lat="46.54588" lon="-1.81047">
        <ele>4</ele>
        <time>2020-06-03T14:34:30Z</time>
      </trkpt>
      <trkpt lat="46.54591" lon="-1.8105">
        <ele>4</ele>
        <time>2020-06-03T14:34:31Z</time>
      </trkpt>
      <trkpt lat="46.54595" lon="-1.81052">
        <ele>4</ele>
        <time>2020-06-03T14:34:32Z</time>
      </trkpt>
      <trkpt lat="46.54599" lon="-1.81054">
        <ele>4</ele>
        <time>2020-06-03T14:34:33Z</time>
      </trkpt>
      <trkpt lat="46.54604" lon="-1.81056">
        <ele>4</ele>
        <time>2020-06-03T14:34:34Z</time>
      </trkpt>
      <trkpt lat="46.54607" lon="-1.81058">
        <ele>4</ele>
        <time>2020-06-03T14:34:35Z</time>
      </trkpt>
      <trkpt lat="46.54612" lon="-1.81061">
        <ele>4.1</ele>
        <time>2020-06-03T14:34:36Z</time>
      </trkpt>
      <trkpt lat="46.54615" lon="-1.81063">
        <ele>4.1</ele>
        <time>2020-06-03T14:34:37Z</time>
      </trkpt>
      <trkpt lat="46.54619" lon="-1.81067">
        <ele>4.1</ele>
        <time>2020-06-03T14:34:38Z</time>
      </trkpt>
      <trkpt lat="46.54622" lon="-1.8107">
        <ele>4.2</ele>
        <time>2020-06-03T14:34:39Z</time>
      </trkpt>
      <trkpt lat="46.54624" lon="-1.81073">
        <ele>4.2</ele>
        <time>2020-06-03T14:34:40Z</time>
      </trkpt>
      <trkpt lat="46.54627" lon="-1.81075">
        <ele>4.3</ele>
        <time>2020-06-03T14:34:41Z</time>
      </trkpt>
      <trkpt lat="46.5463" lon="-1.81077">
        <ele>4.3</ele>
        <time>2020-06-03T14:34:42Z</time>
      </trkpt>
      <trkpt lat="46.54633" lon="-1.81079">
        <ele>4.4</ele>
        <time>2020-06-03T14:34:43Z</time>
      </trkpt>
      <trkpt lat="46.54635" lon="-1.81079">
        <ele>4.4</ele>
        <time>2020-06-03T14:34:44Z</time>
      </trkpt>
      <trkpt lat="46.54638" lon="-1.8108">
        <ele>4.4</ele>
        <time>2020-06-03T14:34:45Z</time>
      </trkpt>
      <trkpt lat="46.5464" lon="-1.8108">
        <ele>4.4</ele>
        <time>2020-06-03T14:34:46Z</time>
      </trkpt>
      <trkpt lat="46.54644" lon="-1.81082">
        <ele>4.5</ele>
        <time>2020-06-03T14:34:47Z</time>
      </trkpt>
      <trkpt lat="46.54647" lon="-1.81082">
        <ele>4.5</ele>
        <time>2020-06-03T14:34:48Z</time>
      </trkpt>
      <trkpt lat="46.5465" lon="-1.81082">
        <ele>4.6</ele>
        <time>2020-06-03T14:34:49Z</time>
      </trkpt>
      <trkpt lat="46.54653" lon="-1.81083">
        <ele>4.6</ele>
        <time>2020-06-03T14:34:50Z</time>
      </trkpt>
      <trkpt lat="46.54657" lon="-1.81083">
        <ele>4.7</ele>
        <time>2020-06-03T14:34:51Z</time>
      </trkpt>
      <trkpt lat="46.5466" lon="-1.81083">
        <ele>4.7</ele>
        <time>2020-06-03T14:34:52Z</time>
      </trkpt>
      <trkpt lat="46.54664" lon="-1.81085">
        <ele>4.7</ele>
        <time>2020-06-03T14:34:53Z</time>
      </trkpt>
      <trkpt lat="46.54669" lon="-1.81086">
        <ele>4.8</ele>
        <time>2020-06-03T14:34:54Z</time>
      </trkpt>
      <trkpt lat="46.54673" lon="-1.81087">
        <ele>4.8</ele>
        <time>2020-06-03T14:34:55Z</time>
      </trkpt>
      <trkpt lat="46.54678" lon="-1.81089">
        <ele>4.9</ele>
        <time>2020-06-03T14:34:56Z</time>
      </trkpt>
      <trkpt lat="46.54682" lon="-1.81091">
        <ele>4.9</ele>
        <time>2020-06-03T14:34:57Z</time>
      </trkpt>
      <trkpt lat="46.54688" lon="-1.81093">
        <ele>5</ele>
        <time>2020-06-03T14:34:58Z</time>
      </trkpt>
      <trkpt lat="46.54692" lon="-1.81096">
        <ele>5</ele>
        <time>2020-06-03T14:34:59Z</time>
      </trkpt>
      <trkpt lat="46.54696" lon="-1.81098">
        <ele>5</ele>
        <time>2020-06-03T14:35:00Z</time>
      </trkpt>
      <trkpt lat="46.547" lon="-1.81099">
        <ele>5.1</ele>
        <time>2020-06-03T14:35:01Z</time>
      </trkpt>
      <trkpt lat="46.54704" lon="-1.81099">
        <ele>5.1</ele>
        <time>2020-06-03T14:35:02Z</time>
      </trkpt>
      <trkpt lat="46.54707" lon="-1.811">
        <ele>5.1</ele>
        <time>2020-06-03T14:35:03Z</time>
      </trkpt>
      <trkpt lat="46.54711" lon="-1.81099">
        <ele>5.1</ele>
        <time>2020-06-03T14:35:04Z</time>
      </trkpt>
      <trkpt lat="46.54713" lon="-1.81098">
        <ele>5.1</ele>
        <time>2020-06-03T14:35:05Z</time>
      </trkpt>
      <trkpt lat="46.54716" lon="-1.81095">
        <ele>5.1</ele>
        <time>2020-06-03T14:35:06Z</time>
      </trkpt>
      <trkpt lat="46.54718" lon="-1.81094">
        <ele>5.1</ele>
        <time>2020-06-03T14:35:07Z</time>
      </trkpt>
      <trkpt lat="46.54721" lon="-1.81092">
        <ele>5.1</ele>
        <time>2020-06-03T14:35:08Z</time>
      </trkpt>
      <trkpt lat="46.54724" lon="-1.81089">
        <ele>5.1</ele>
        <time>2020-06-03T14:35:09Z</time>
      </trkpt>
      <trkpt lat="46.54727" lon="-1.81087">
        <ele>5.1</ele>
        <time>2020-06-03T14:35:10Z</time>
      </trkpt>
      <trkpt lat="46.54729" lon="-1.81084">
        <ele>5.1</ele>
        <time>2020-06-03T14:35:11Z</time>
      </trkpt>
      <trkpt lat="46.54732" lon="-1.81079">
        <ele>5.1</ele>
        <time>2020-06-03T14:35:12Z</time>
      </trkpt>
      <trkpt lat="46.54735" lon="-1.81073">
        <ele>5.2</ele>
        <time>2020-06-03T14:35:13Z</time>
      </trkpt>
      <trkpt lat="46.54737" lon="-1.81069">
        <ele>5.2</ele>
        <time>2020-06-03T14:35:14Z</time>
      </trkpt>
      <trkpt lat="46.54738" lon="-1.81065">
        <ele>5.2</ele>
        <time>2020-06-03T14:35:15Z</time>
      </trkpt>
      <trkpt lat="46.5474" lon="-1.81058">
        <ele>5.2</ele>
        <time>2020-06-03T14:35:16Z</time>
      </trkpt>
      <trkpt lat="46.54742" lon="-1.81052">
        <ele>5.2</ele>
        <time>2020-06-03T14:35:17Z</time>
      </trkpt>
      <trkpt lat="46.54744" lon="-1.81043">
        <ele>5.2</ele>
        <time>2020-06-03T14:35:18Z</time>
      </trkpt>
      <trkpt lat="46.54746" lon="-1.81038">
        <ele>5.2</ele>
        <time>2020-06-03T14:35:19Z</time>
      </trkpt>
      <trkpt lat="46.54748" lon="-1.8103">
        <ele>5.2</ele>
        <time>2020-06-03T14:35:20Z</time>
      </trkpt>
      <trkpt lat="46.54751" lon="-1.81025">
        <ele>5.2</ele>
        <time>2020-06-03T14:35:21Z</time>
      </trkpt>
      <trkpt lat="46.54753" lon="-1.8102">
        <ele>5.3</ele>
        <time>2020-06-03T14:35:22Z</time>
      </trkpt>
      <trkpt lat="46.54756" lon="-1.81015">
        <ele>5.3</ele>
        <time>2020-06-03T14:35:23Z</time>
      </trkpt>
      <trkpt lat="46.54759" lon="-1.81011">
        <ele>5.3</ele>
        <time>2020-06-03T14:35:24Z</time>
      </trkpt>
      <trkpt lat="46.54762" lon="-1.81006">
        <ele>5.3</ele>
        <time>2020-06-03T14:35:25Z</time>
      </trkpt>
      <trkpt lat="46.54766" lon="-1.81001">
        <ele>5.3</ele>
        <time>2020-06-03T14:35:26Z</time>
      </trkpt>
      <trkpt lat="46.54769" lon="-1.80996">
        <ele>5.4</ele>
        <time>2020-06-03T14:35:27Z</time>
      </trkpt>
      <trkpt lat="46.54772" lon="-1.80992">
        <ele>5.4</ele>
        <time>2020-06-03T14:35:28Z</time>
      </trkpt>
      <trkpt lat="46.54775" lon="-1.80987">
        <ele>5.4</ele>
        <time>2020-06-03T14:35:29Z</time>
      </trkpt>
      <trkpt lat="46.54777" lon="-1.80982">
        <ele>5.5</ele>
        <time>2020-06-03T14:35:30Z</time>
      </trkpt>
      <trkpt lat="46.5478" lon="-1.80977">
        <ele>5.5</ele>
        <time>2020-06-03T14:35:31Z</time>
      </trkpt>
      <trkpt lat="46.54782" lon="-1.80972">
        <ele>5.6</ele>
        <time>2020-06-03T14:35:32Z</time>
      </trkpt>
      <trkpt lat="46.54784" lon="-1.80968">
        <ele>5.6</ele>
        <time>2020-06-03T14:35:33Z</time>
      </trkpt>
      <trkpt lat="46.54787" lon="-1.80963">
        <ele>5.7</ele>
        <time>2020-06-03T14:35:34Z</time>
      </trkpt>
      <trkpt lat="46.5479" lon="-1.80958">
        <ele>5.7</ele>
        <time>2020-06-03T14:35:35Z</time>
      </trkpt>
      <trkpt lat="46.54792" lon="-1.80954">
        <ele>5.8</ele>
        <time>2020-06-03T14:35:36Z</time>
      </trkpt>
      <trkpt lat="46.54795" lon="-1.8095">
        <ele>5.8</ele>
        <time>2020-06-03T14:35:37Z</time>
      </trkpt>
      <trkpt lat="46.54797" lon="-1.80946">
        <ele>5.8</ele>
        <time>2020-06-03T14:35:38Z</time>
      </trkpt>
      <trkpt lat="46.548" lon="-1.80941">
        <ele>5.9</ele>
        <time>2020-06-03T14:35:39Z</time>
      </trkpt>
      <trkpt lat="46.54802" lon="-1.80935">
        <ele>6</ele>
        <time>2020-06-03T14:35:40Z</time>
      </trkpt>
      <trkpt lat="46.54804" lon="-1.8093">
        <ele>6</ele>
        <time>2020-06-03T14:35:41Z</time>
      </trkpt>
      <trkpt lat="46.54806" lon="-1.80925">
        <ele>6</ele>
        <time>2020-06-03T14:35:42Z</time>
      </trkpt>
      <trkpt lat="46.54808" lon="-1.80921">
        <ele>6</ele>
        <time>2020-06-03T14:35:43Z</time>
      </trkpt>
      <trkpt lat="46.5481" lon="-1.80916">
        <ele>6.1</ele>
        <time>2020-06-03T14:35:44Z</time>
      </trkpt>
      <trkpt lat="46.54811" lon="-1.80911">
        <ele>6.1</ele>
        <time>2020-06-03T14:35:45Z</time>
      </trkpt>
      <trkpt lat="46.54813" lon="-1.80907">
        <ele>6.1</ele>
        <time>2020-06-03T14:35:46Z</time>
      </trkpt>
      <trkpt lat="46.54815" lon="-1.80903">
        <ele>6.1</ele>
        <time>2020-06-03T14:35:47Z</time>
      </trkpt>
      <trkpt lat="46.54817" lon="-1.80899">
        <ele>6.1</ele>
        <time>2020-06-03T14:35:48Z</time>
      </trkpt>
      <trkpt lat="46.54818" lon="-1.80894">
        <ele>6.1</ele>
        <time>2020-06-03T14:35:49Z</time>
      </trkpt>
      <trkpt lat="46.5482" lon="-1.80891">
        <ele>6.1</ele>
        <time>2020-06-03T14:35:50Z</time>
      </trkpt>
      <trkpt lat="46.54823" lon="-1.8089">
        <ele>6.2</ele>
        <time>2020-06-03T14:35:51Z</time>
      </trkpt>
      <trkpt lat="46.54825" lon="-1.80891">
        <ele>6.2</ele>
        <time>2020-06-03T14:35:52Z</time>
      </trkpt>
      <trkpt lat="46.54827" lon="-1.80893">
        <ele>6.2</ele>
        <time>2020-06-03T14:35:53Z</time>
      </trkpt>
      <trkpt lat="46.5483" lon="-1.80896">
        <ele>6.1</ele>
        <time>2020-06-03T14:35:54Z</time>
      </trkpt>
      <trkpt lat="46.54833" lon="-1.80898">
        <ele>6.1</ele>
        <time>2020-06-03T14:35:55Z</time>
      </trkpt>
      <trkpt lat="46.54836" lon="-1.80902">
        <ele>6.1</ele>
        <time>2020-06-03T14:35:56Z</time>
      </trkpt>
      <trkpt lat="46.5484" lon="-1.80905">
        <ele>6.1</ele>
        <time>2020-06-03T14:35:57Z</time>
      </trkpt>
      <trkpt lat="46.54843" lon="-1.80908">
        <ele>6.1</ele>
        <time>2020-06-03T14:35:58Z</time>
      </trkpt>
      <trkpt lat="46.54847" lon="-1.80912">
        <ele>6.1</ele>
        <time>2020-06-03T14:35:59Z</time>
      </trkpt>
      <trkpt lat="46.54851" lon="-1.80916">
        <ele>6.1</ele>
        <time>2020-06-03T14:36:00Z</time>
      </trkpt>
      <trkpt lat="46.54856" lon="-1.8092">
        <ele>6.1</ele>
        <time>2020-06-03T14:36:01Z</time>
      </trkpt>
      <trkpt lat="46.5486" lon="-1.80924">
        <ele>6.1</ele>
        <time>2020-06-03T14:36:02Z</time>
      </trkpt>
      <trkpt lat="46.54864" lon="-1.80927">
        <ele>6.1</ele>
        <time>2020-06-03T14:36:03Z</time>
      </trkpt>
      <trkpt lat="46.54869" lon="-1.80932">
        <ele>6.1</ele>
        <time>2020-06-03T14:36:04Z</time>
      </trkpt>
      <trkpt lat="46.54873" lon="-1.80935">
        <ele>6.1</ele>
        <time>2020-06-03T14:36:05Z</time>
      </trkpt>
      <trkpt lat="46.54878" lon="-1.80939">
        <ele>6</ele>
        <time>2020-06-03T14:36:06Z</time>
      </trkpt>
      <trkpt lat="46.54882" lon="-1.80942">
        <ele>6</ele>
        <time>2020-06-03T14:36:07Z</time>
      </trkpt>
      <trkpt lat="46.54886" lon="-1.80947">
        <ele>6</ele>
        <time>2020-06-03T14:36:08Z</time>
      </trkpt>
      <trkpt lat="46.5489" lon="-1.80951">
        <ele>6</ele>
        <time>2020-06-03T14:36:09Z</time>
      </trkpt>
      <trkpt lat="46.54894" lon="-1.80955">
        <ele>6</ele>
        <time>2020-06-03T14:36:10Z</time>
      </trkpt>
      <trkpt lat="46.54898" lon="-1.80959">
        <ele>6</ele>
        <time>2020-06-03T14:36:11Z</time>
      </trkpt>
      <trkpt lat="46.54903" lon="-1.80964">
        <ele>6</ele>
        <time>2020-06-03T14:36:12Z</time>
      </trkpt>
      <trkpt lat="46.54907" lon="-1.80967">
        <ele>6</ele>
        <time>2020-06-03T14:36:13Z</time>
      </trkpt>
      <trkpt lat="46.54911" lon="-1.80971">
        <ele>6</ele>
        <time>2020-06-03T14:36:14Z</time>
      </trkpt>
      <trkpt lat="46.54915" lon="-1.80975">
        <ele>6</ele>
        <time>2020-06-03T14:36:15Z</time>
      </trkpt>
      <trkpt lat="46.5492" lon="-1.80979">
        <ele>6</ele>
        <time>2020-06-03T14:36:16Z</time>
      </trkpt>
      <trkpt lat="46.54924" lon="-1.80983">
        <ele>6</ele>
        <time>2020-06-03T14:36:17Z</time>
      </trkpt>
      <trkpt lat="46.54928" lon="-1.80987">
        <ele>6</ele>
        <time>2020-06-03T14:36:18Z</time>
      </trkpt>
      <trkpt lat="46.54932" lon="-1.80991">
        <ele>6</ele>
        <time>2020-06-03T14:36:19Z</time>
      </trkpt>
      <trkpt lat="46.54936" lon="-1.80994">
        <ele>6</ele>
        <time>2020-06-03T14:36:20Z</time>
      </trkpt>
      <trkpt lat="46.5494" lon="-1.80998">
        <ele>6</ele>
        <time>2020-06-03T14:36:21Z</time>
      </trkpt>
      <trkpt lat="46.54945" lon="-1.81002">
        <ele>6</ele>
        <time>2020-06-03T14:36:22Z</time>
      </trkpt>
      <trkpt lat="46.54949" lon="-1.81006">
        <ele>6</ele>
        <time>2020-06-03T14:36:23Z</time>
      </trkpt>
      <trkpt lat="46.54954" lon="-1.81009">
        <ele>6</ele>
        <time>2020-06-03T14:36:24Z</time>
      </trkpt>
      <trkpt lat="46.54957" lon="-1.81013">
        <ele>6</ele>
        <time>2020-06-03T14:36:25Z</time>
      </trkpt>
      <trkpt lat="46.54961" lon="-1.81016">
        <ele>6</ele>
        <time>2020-06-03T14:36:26Z</time>
      </trkpt>
      <trkpt lat="46.54965" lon="-1.8102">
        <ele>6</ele>
        <time>2020-06-03T14:36:27Z</time>
      </trkpt>
      <trkpt lat="46.54969" lon="-1.81024">
        <ele>6</ele>
        <time>2020-06-03T14:36:28Z</time>
      </trkpt>
      <trkpt lat="46.54973" lon="-1.81027">
        <ele>6</ele>
        <time>2020-06-03T14:36:29Z</time>
      </trkpt>
      <trkpt lat="46.54977" lon="-1.81031">
        <ele>6</ele>
        <time>2020-06-03T14:36:30Z</time>
      </trkpt>
      <trkpt lat="46.54981" lon="-1.81035">
        <ele>6</ele>
        <time>2020-06-03T14:36:31Z</time>
      </trkpt>
      <trkpt lat="46.54984" lon="-1.81038">
        <ele>6</ele>
        <time>2020-06-03T14:36:32Z</time>
      </trkpt>
      <trkpt lat="46.54988" lon="-1.81041">
        <ele>6</ele>
        <time>2020-06-03T14:36:33Z</time>
      </trkpt>
      <trkpt lat="46.54993" lon="-1.81041">
        <ele>6</ele>
        <time>2020-06-03T14:36:34Z</time>
      </trkpt>
      <trkpt lat="46.54997" lon="-1.8104">
        <ele>6</ele>
        <time>2020-06-03T14:36:35Z</time>
      </trkpt>
      <trkpt lat="46.55001" lon="-1.81038">
        <ele>6</ele>
        <time>2020-06-03T14:36:36Z</time>
      </trkpt>
      <trkpt lat="46.55005" lon="-1.81033">
        <ele>6</ele>
        <time>2020-06-03T14:36:37Z</time>
      </trkpt>
      <trkpt lat="46.55008" lon="-1.81028">
        <ele>6</ele>
        <time>2020-06-03T14:36:38Z</time>
      </trkpt>
      <trkpt lat="46.55012" lon="-1.81023">
        <ele>5.9</ele>
        <time>2020-06-03T14:36:39Z</time>
      </trkpt>
      <trkpt lat="46.55015" lon="-1.81017">
        <ele>5.9</ele>
        <time>2020-06-03T14:36:40Z</time>
      </trkpt>
      <trkpt lat="46.55018" lon="-1.81012">
        <ele>5.9</ele>
        <time>2020-06-03T14:36:41Z</time>
      </trkpt>
      <trkpt lat="46.55021" lon="-1.81007">
        <ele>5.9</ele>
        <time>2020-06-03T14:36:42Z</time>
      </trkpt>
      <trkpt lat="46.55024" lon="-1.81002">
        <ele>5.9</ele>
        <time>2020-06-03T14:36:43Z</time>
      </trkpt>
      <trkpt lat="46.55027" lon="-1.80998">
        <ele>5.9</ele>
        <time>2020-06-03T14:36:44Z</time>
      </trkpt>
      <trkpt lat="46.55031" lon="-1.80994">
        <ele>5.9</ele>
        <time>2020-06-03T14:36:45Z</time>
      </trkpt>
      <trkpt lat="46.55035" lon="-1.80992">
        <ele>5.9</ele>
        <time>2020-06-03T14:36:46Z</time>
      </trkpt>
      <trkpt lat="46.5504" lon="-1.80992">
        <ele>5.9</ele>
        <time>2020-06-03T14:36:47Z</time>
      </trkpt>
      <trkpt lat="46.55045" lon="-1.80994">
        <ele>5.9</ele>
        <time>2020-06-03T14:36:48Z</time>
      </trkpt>
      <trkpt lat="46.55049" lon="-1.80997">
        <ele>5.8</ele>
        <time>2020-06-03T14:36:49Z</time>
      </trkpt>
      <trkpt lat="46.55053" lon="-1.81">
        <ele>5.8</ele>
        <time>2020-06-03T14:36:50Z</time>
      </trkpt>
      <trkpt lat="46.55056" lon="-1.81003">
        <ele>5.8</ele>
        <time>2020-06-03T14:36:51Z</time>
      </trkpt>
      <trkpt lat="46.5506" lon="-1.81007">
        <ele>5.8</ele>
        <time>2020-06-03T14:36:52Z</time>
      </trkpt>
      <trkpt lat="46.55063" lon="-1.81012">
        <ele>5.8</ele>
        <time>2020-06-03T14:36:53Z</time>
      </trkpt>
      <trkpt lat="46.55067" lon="-1.81016">
        <ele>5.8</ele>
        <time>2020-06-03T14:36:54Z</time>
      </trkpt>
      <trkpt lat="46.55071" lon="-1.81021">
        <ele>5.7</ele>
        <time>2020-06-03T14:36:55Z</time>
      </trkpt>
      <trkpt lat="46.55075" lon="-1.81025">
        <ele>5.7</ele>
        <time>2020-06-03T14:36:56Z</time>
      </trkpt>
      <trkpt lat="46.5508" lon="-1.81029">
        <ele>5.6</ele>
        <time>2020-06-03T14:36:57Z</time>
      </trkpt>
      <trkpt lat="46.55084" lon="-1.81034">
        <ele>5.6</ele>
        <time>2020-06-03T14:36:58Z</time>
      </trkpt>
      <trkpt lat="46.55088" lon="-1.81038">
        <ele>5.5</ele>
        <time>2020-06-03T14:36:59Z</time>
      </trkpt>
      <trkpt lat="46.55093" lon="-1.81042">
        <ele>5.5</ele>
        <time>2020-06-03T14:37:00Z</time>
      </trkpt>
      <trkpt lat="46.55098" lon="-1.81046">
        <ele>5.5</ele>
        <time>2020-06-03T14:37:01Z</time>
      </trkpt>
      <trkpt lat="46.55101" lon="-1.8105">
        <ele>5.4</ele>
        <time>2020-06-03T14:37:02Z</time>
      </trkpt>
      <trkpt lat="46.55105" lon="-1.81053">
        <ele>5.4</ele>
        <time>2020-06-03T14:37:03Z</time>
      </trkpt>
      <trkpt lat="46.55108" lon="-1.81056">
        <ele>5.3</ele>
        <time>2020-06-03T14:37:04Z</time>
      </trkpt>
      <trkpt lat="46.55111" lon="-1.8106">
        <ele>5.3</ele>
        <time>2020-06-03T14:37:05Z</time>
      </trkpt>
      <trkpt lat="46.55114" lon="-1.81063">
        <ele>5.3</ele>
        <time>2020-06-03T14:37:06Z</time>
      </trkpt>
      <trkpt lat="46.55118" lon="-1.81067">
        <ele>5.2</ele>
        <time>2020-06-03T14:37:07Z</time>
      </trkpt>
      <trkpt lat="46.55121" lon="-1.81071">
        <ele>5.2</ele>
        <time>2020-06-03T14:37:08Z</time>
      </trkpt>
      <trkpt lat="46.55124" lon="-1.81075">
        <ele>5.2</ele>
        <time>2020-06-03T14:37:09Z</time>
      </trkpt>
      <trkpt lat="46.55128" lon="-1.8108">
        <ele>5.1</ele>
        <time>2020-06-03T14:37:10Z</time>
      </trkpt>
      <trkpt lat="46.55132" lon="-1.81084">
        <ele>5.1</ele>
        <time>2020-06-03T14:37:11Z</time>
      </trkpt>
      <trkpt lat="46.55136" lon="-1.81087">
        <ele>5.1</ele>
        <time>2020-06-03T14:37:12Z</time>
      </trkpt>
      <trkpt lat="46.5514" lon="-1.81092">
        <ele>5</ele>
        <time>2020-06-03T14:37:13Z</time>
      </trkpt>
      <trkpt lat="46.55144" lon="-1.81096">
        <ele>5</ele>
        <time>2020-06-03T14:37:14Z</time>
      </trkpt>
      <trkpt lat="46.55148" lon="-1.811">
        <ele>4.9</ele>
        <time>2020-06-03T14:37:15Z</time>
      </trkpt>
      <trkpt lat="46.55152" lon="-1.81106">
        <ele>4.9</ele>
        <time>2020-06-03T14:37:16Z</time>
      </trkpt>
      <trkpt lat="46.55156" lon="-1.8111">
        <ele>4.9</ele>
        <time>2020-06-03T14:37:17Z</time>
      </trkpt>
      <trkpt lat="46.55159" lon="-1.81115">
        <ele>4.9</ele>
        <time>2020-06-03T14:37:18Z</time>
      </trkpt>
      <trkpt lat="46.55163" lon="-1.8112">
        <ele>4.9</ele>
        <time>2020-06-03T14:37:19Z</time>
      </trkpt>
      <trkpt lat="46.55166" lon="-1.81125">
        <ele>4.9</ele>
        <time>2020-06-03T14:37:20Z</time>
      </trkpt>
      <trkpt lat="46.55171" lon="-1.81128">
        <ele>4.9</ele>
        <time>2020-06-03T14:37:21Z</time>
      </trkpt>
      <trkpt lat="46.55175" lon="-1.81131">
        <ele>4.8</ele>
        <time>2020-06-03T14:37:22Z</time>
      </trkpt>
      <trkpt lat="46.55179" lon="-1.81134">
        <ele>4.8</ele>
        <time>2020-06-03T14:37:23Z</time>
      </trkpt>
      <trkpt lat="46.55183" lon="-1.81138">
        <ele>4.8</ele>
        <time>2020-06-03T14:37:24Z</time>
      </trkpt>
      <trkpt lat="46.55186" lon="-1.81143">
        <ele>4.8</ele>
        <time>2020-06-03T14:37:25Z</time>
      </trkpt>
      <trkpt lat="46.55189" lon="-1.81148">
        <ele>4.8</ele>
        <time>2020-06-03T14:37:26Z</time>
      </trkpt>
      <trkpt lat="46.55192" lon="-1.81153">
        <ele>4.8</ele>
        <time>2020-06-03T14:37:27Z</time>
      </trkpt>
      <trkpt lat="46.55195" lon="-1.81157">
        <ele>4.8</ele>
        <time>2020-06-03T14:37:28Z</time>
      </trkpt>
      <trkpt lat="46.55198" lon="-1.8116">
        <ele>4.8</ele>
        <time>2020-06-03T14:37:29Z</time>
      </trkpt>
      <trkpt lat="46.55201" lon="-1.81163">
        <ele>4.8</ele>
        <time>2020-06-03T14:37:30Z</time>
      </trkpt>
      <trkpt lat="46.55204" lon="-1.81166">
        <ele>4.8</ele>
        <time>2020-06-03T14:37:31Z</time>
      </trkpt>
      <trkpt lat="46.55206" lon="-1.81168">
        <ele>4.8</ele>
        <time>2020-06-03T14:37:32Z</time>
      </trkpt>
      <trkpt lat="46.55209" lon="-1.8117">
        <ele>4.8</ele>
        <time>2020-06-03T14:37:33Z</time>
      </trkpt>
      <trkpt lat="46.55213" lon="-1.81173">
        <ele>4.8</ele>
        <time>2020-06-03T14:37:34Z</time>
      </trkpt>
      <trkpt lat="46.55217" lon="-1.81174">
        <ele>4.8</ele>
        <time>2020-06-03T14:37:35Z</time>
      </trkpt>
      <trkpt lat="46.55221" lon="-1.81176">
        <ele>4.8</ele>
        <time>2020-06-03T14:37:36Z</time>
      </trkpt>
      <trkpt lat="46.55225" lon="-1.81177">
        <ele>4.8</ele>
        <time>2020-06-03T14:37:37Z</time>
      </trkpt>
      <trkpt lat="46.55228" lon="-1.81181">
        <ele>4.8</ele>
        <time>2020-06-03T14:37:38Z</time>
      </trkpt>
      <trkpt lat="46.55232" lon="-1.81184">
        <ele>4.7</ele>
        <time>2020-06-03T14:37:39Z</time>
      </trkpt>
      <trkpt lat="46.55235" lon="-1.81187">
        <ele>4.7</ele>
        <time>2020-06-03T14:37:40Z</time>
      </trkpt>
      <trkpt lat="46.55239" lon="-1.81191">
        <ele>4.7</ele>
        <time>2020-06-03T14:37:41Z</time>
      </trkpt>
      <trkpt lat="46.55242" lon="-1.81195">
        <ele>4.7</ele>
        <time>2020-06-03T14:37:42Z</time>
      </trkpt>
      <trkpt lat="46.55247" lon="-1.81199">
        <ele>4.7</ele>
        <time>2020-06-03T14:37:43Z</time>
      </trkpt>
      <trkpt lat="46.5525" lon="-1.81202">
        <ele>4.7</ele>
        <time>2020-06-03T14:37:44Z</time>
      </trkpt>
      <trkpt lat="46.55253" lon="-1.81206">
        <ele>4.7</ele>
        <time>2020-06-03T14:37:45Z</time>
      </trkpt>
      <trkpt lat="46.55258" lon="-1.8121">
        <ele>4.7</ele>
        <time>2020-06-03T14:37:46Z</time>
      </trkpt>
      <trkpt lat="46.55261" lon="-1.81213">
        <ele>4.7</ele>
        <time>2020-06-03T14:37:47Z</time>
      </trkpt>
      <trkpt lat="46.55265" lon="-1.81215">
        <ele>4.7</ele>
        <time>2020-06-03T14:37:48Z</time>
      </trkpt>
      <trkpt lat="46.55268" lon="-1.81217">
        <ele>4.7</ele>
        <time>2020-06-03T14:37:49Z</time>
      </trkpt>
      <trkpt lat="46.55272" lon="-1.81219">
        <ele>4.7</ele>
        <time>2020-06-03T14:37:50Z</time>
      </trkpt>
      <trkpt lat="46.55276" lon="-1.81221">
        <ele>4.7</ele>
        <time>2020-06-03T14:37:51Z</time>
      </trkpt>
      <trkpt lat="46.55279" lon="-1.81223">
        <ele>4.7</ele>
        <time>2020-06-03T14:37:52Z</time>
      </trkpt>
      <trkpt lat="46.55281" lon="-1.81225">
        <ele>4.7</ele>
        <time>2020-06-03T14:37:53Z</time>
      </trkpt>
      <trkpt lat="46.55284" lon="-1.81229">
        <ele>4.7</ele>
        <time>2020-06-03T14:37:54Z</time>
      </trkpt>
      <trkpt lat="46.55287" lon="-1.81232">
        <ele>4.7</ele>
        <time>2020-06-03T14:37:55Z</time>
      </trkpt>
      <trkpt lat="46.55289" lon="-1.81235">
        <ele>4.7</ele>
        <time>2020-06-03T14:37:56Z</time>
      </trkpt>
      <trkpt lat="46.55291" lon="-1.81239">
        <ele>4.7</ele>
        <time>2020-06-03T14:37:57Z</time>
      </trkpt>
      <trkpt lat="46.55294" lon="-1.81244">
        <ele>4.7</ele>
        <time>2020-06-03T14:37:58Z</time>
      </trkpt>
      <trkpt lat="46.55296" lon="-1.81249">
        <ele>4.6</ele>
        <time>2020-06-03T14:37:59Z</time>
      </trkpt>
      <trkpt lat="46.55299" lon="-1.81255">
        <ele>4.6</ele>
        <time>2020-06-03T14:38:00Z</time>
      </trkpt>
      <trkpt lat="46.55303" lon="-1.81261">
        <ele>4.6</ele>
        <time>2020-06-03T14:38:01Z</time>
      </trkpt>
      <trkpt lat="46.55306" lon="-1.81266">
        <ele>4.6</ele>
        <time>2020-06-03T14:38:02Z</time>
      </trkpt>
      <trkpt lat="46.55309" lon="-1.81272">
        <ele>4.6</ele>
        <time>2020-06-03T14:38:03Z</time>
      </trkpt>
      <trkpt lat="46.55311" lon="-1.81277">
        <ele>4.6</ele>
        <time>2020-06-03T14:38:04Z</time>
      </trkpt>
      <trkpt lat="46.55314" lon="-1.81282">
        <ele>4.6</ele>
        <time>2020-06-03T14:38:05Z</time>
      </trkpt>
      <trkpt lat="46.55317" lon="-1.81288">
        <ele>4.6</ele>
        <time>2020-06-03T14:38:06Z</time>
      </trkpt>
      <trkpt lat="46.5532" lon="-1.81295">
        <ele>4.6</ele>
        <time>2020-06-03T14:38:07Z</time>
      </trkpt>
      <trkpt lat="46.55323" lon="-1.81302">
        <ele>4.7</ele>
        <time>2020-06-03T14:38:08Z</time>
      </trkpt>
      <trkpt lat="46.55325" lon="-1.81307">
        <ele>4.7</ele>
        <time>2020-06-03T14:38:09Z</time>
      </trkpt>
      <trkpt lat="46.55327" lon="-1.81313">
        <ele>4.7</ele>
        <time>2020-06-03T14:38:10Z</time>
      </trkpt>
      <trkpt lat="46.55329" lon="-1.81321">
        <ele>4.7</ele>
        <time>2020-06-03T14:38:11Z</time>
      </trkpt>
      <trkpt lat="46.5533" lon="-1.81326">
        <ele>4.7</ele>
        <time>2020-06-03T14:38:12Z</time>
      </trkpt>
      <trkpt lat="46.55332" lon="-1.81331">
        <ele>4.8</ele>
        <time>2020-06-03T14:38:13Z</time>
      </trkpt>
      <trkpt lat="46.55334" lon="-1.81337">
        <ele>4.8</ele>
        <time>2020-06-03T14:38:14Z</time>
      </trkpt>
      <trkpt lat="46.55336" lon="-1.81343">
        <ele>4.8</ele>
        <time>2020-06-03T14:38:15Z</time>
      </trkpt>
      <trkpt lat="46.55338" lon="-1.81348">
        <ele>4.8</ele>
        <time>2020-06-03T14:38:16Z</time>
      </trkpt>
      <trkpt lat="46.5534" lon="-1.81353">
        <ele>4.8</ele>
        <time>2020-06-03T14:38:17Z</time>
      </trkpt>
      <trkpt lat="46.55343" lon="-1.81357">
        <ele>4.8</ele>
        <time>2020-06-03T14:38:18Z</time>
      </trkpt>
      <trkpt lat="46.55345" lon="-1.81362">
        <ele>4.8</ele>
        <time>2020-06-03T14:38:19Z</time>
      </trkpt>
      <trkpt lat="46.55347" lon="-1.81366">
        <ele>4.8</ele>
        <time>2020-06-03T14:38:20Z</time>
      </trkpt>
      <trkpt lat="46.55349" lon="-1.8137">
        <ele>4.8</ele>
        <time>2020-06-03T14:38:21Z</time>
      </trkpt>
      <trkpt lat="46.55351" lon="-1.81374">
        <ele>4.9</ele>
        <time>2020-06-03T14:38:22Z</time>
      </trkpt>
      <trkpt lat="46.55355" lon="-1.81378">
        <ele>4.9</ele>
        <time>2020-06-03T14:38:23Z</time>
      </trkpt>
      <trkpt lat="46.55357" lon="-1.81383">
        <ele>4.9</ele>
        <time>2020-06-03T14:38:24Z</time>
      </trkpt>
      <trkpt lat="46.5536" lon="-1.81387">
        <ele>4.9</ele>
        <time>2020-06-03T14:38:25Z</time>
      </trkpt>
      <trkpt lat="46.55363" lon="-1.81392">
        <ele>4.9</ele>
        <time>2020-06-03T14:38:26Z</time>
      </trkpt>
      <trkpt lat="46.55366" lon="-1.81396">
        <ele>4.9</ele>
        <time>2020-06-03T14:38:27Z</time>
      </trkpt>
      <trkpt lat="46.55369" lon="-1.81401">
        <ele>5</ele>
        <time>2020-06-03T14:38:28Z</time>
      </trkpt>
      <trkpt lat="46.55373" lon="-1.81406">
        <ele>5</ele>
        <time>2020-06-03T14:38:29Z</time>
      </trkpt>
      <trkpt lat="46.55375" lon="-1.81411">
        <ele>5</ele>
        <time>2020-06-03T14:38:30Z</time>
      </trkpt>
      <trkpt lat="46.55378" lon="-1.81416">
        <ele>5</ele>
        <time>2020-06-03T14:38:31Z</time>
      </trkpt>
      <trkpt lat="46.55382" lon="-1.81421">
        <ele>5</ele>
        <time>2020-06-03T14:38:32Z</time>
      </trkpt>
      <trkpt lat="46.55385" lon="-1.81427">
        <ele>5</ele>
        <time>2020-06-03T14:38:33Z</time>
      </trkpt>
      <trkpt lat="46.55389" lon="-1.81431">
        <ele>5</ele>
        <time>2020-06-03T14:38:34Z</time>
      </trkpt>
      <trkpt lat="46.55392" lon="-1.81436">
        <ele>5</ele>
        <time>2020-06-03T14:38:35Z</time>
      </trkpt>
      <trkpt lat="46.55395" lon="-1.81441">
        <ele>5</ele>
        <time>2020-06-03T14:38:36Z</time>
      </trkpt>
      <trkpt lat="46.55399" lon="-1.81445">
        <ele>5.1</ele>
        <time>2020-06-03T14:38:37Z</time>
      </trkpt>
      <trkpt lat="46.55401" lon="-1.81448">
        <ele>5.1</ele>
        <time>2020-06-03T14:38:38Z</time>
      </trkpt>
      <trkpt lat="46.55403" lon="-1.81451">
        <ele>5.1</ele>
        <time>2020-06-03T14:38:39Z</time>
      </trkpt>
      <trkpt lat="46.55405" lon="-1.81454">
        <ele>5.1</ele>
        <time>2020-06-03T14:38:40Z</time>
      </trkpt>
      <trkpt lat="46.55407" lon="-1.81459">
        <ele>5.1</ele>
        <time>2020-06-03T14:38:41Z</time>
      </trkpt>
      <trkpt lat="46.5541" lon="-1.81464">
        <ele>5.1</ele>
        <time>2020-06-03T14:38:42Z</time>
      </trkpt>
      <trkpt lat="46.55412" lon="-1.81469">
        <ele>5.1</ele>
        <time>2020-06-03T14:38:43Z</time>
      </trkpt>
      <trkpt lat="46.55415" lon="-1.81474">
        <ele>5.1</ele>
        <time>2020-06-03T14:38:44Z</time>
      </trkpt>
      <trkpt lat="46.55416" lon="-1.81479">
        <ele>5.1</ele>
        <time>2020-06-03T14:38:45Z</time>
      </trkpt>
      <trkpt lat="46.55419" lon="-1.81484">
        <ele>5.1</ele>
        <time>2020-06-03T14:38:46Z</time>
      </trkpt>
      <trkpt lat="46.55421" lon="-1.81488">
        <ele>5.1</ele>
        <time>2020-06-03T14:38:47Z</time>
      </trkpt>
      <trkpt lat="46.55423" lon="-1.81493">
        <ele>5.1</ele>
        <time>2020-06-03T14:38:48Z</time>
      </trkpt>
      <trkpt lat="46.55426" lon="-1.81498">
        <ele>5.1</ele>
        <time>2020-06-03T14:38:49Z</time>
      </trkpt>
      <trkpt lat="46.55428" lon="-1.81502">
        <ele>5.1</ele>
        <time>2020-06-03T14:38:50Z</time>
      </trkpt>
      <trkpt lat="46.55431" lon="-1.81506">
        <ele>5.2</ele>
        <time>2020-06-03T14:38:51Z</time>
      </trkpt>
      <trkpt lat="46.55434" lon="-1.8151">
        <ele>5.2</ele>
        <time>2020-06-03T14:38:52Z</time>
      </trkpt>
      <trkpt lat="46.55436" lon="-1.81514">
        <ele>5.2</ele>
        <time>2020-06-03T14:38:53Z</time>
      </trkpt>
      <trkpt lat="46.55438" lon="-1.81519">
        <ele>5.2</ele>
        <time>2020-06-03T14:38:54Z</time>
      </trkpt>
      <trkpt lat="46.55439" lon="-1.81523">
        <ele>5.2</ele>
        <time>2020-06-03T14:38:55Z</time>
      </trkpt>
      <trkpt lat="46.55441" lon="-1.81528">
        <ele>5.3</ele>
        <time>2020-06-03T14:38:56Z</time>
      </trkpt>
      <trkpt lat="46.55444" lon="-1.81532">
        <ele>5.3</ele>
        <time>2020-06-03T14:38:57Z</time>
      </trkpt>
      <trkpt lat="46.55447" lon="-1.81537">
        <ele>5.3</ele>
        <time>2020-06-03T14:38:58Z</time>
      </trkpt>
      <trkpt lat="46.5545" lon="-1.81541">
        <ele>5.3</ele>
        <time>2020-06-03T14:38:59Z</time>
      </trkpt>
      <trkpt lat="46.55452" lon="-1.81545">
        <ele>5.3</ele>
        <time>2020-06-03T14:39:00Z</time>
      </trkpt>
      <trkpt lat="46.55455" lon="-1.81547">
        <ele>5.3</ele>
        <time>2020-06-03T14:39:01Z</time>
      </trkpt>
      <trkpt lat="46.55457" lon="-1.81552">
        <ele>5.4</ele>
        <time>2020-06-03T14:39:02Z</time>
      </trkpt>
      <trkpt lat="46.55459" lon="-1.81558">
        <ele>5.4</ele>
        <time>2020-06-03T14:39:03Z</time>
      </trkpt>
      <trkpt lat="46.55462" lon="-1.81563">
        <ele>5.4</ele>
        <time>2020-06-03T14:39:04Z</time>
      </trkpt>
      <trkpt lat="46.55464" lon="-1.81568">
        <ele>5.4</ele>
        <time>2020-06-03T14:39:05Z</time>
      </trkpt>
      <trkpt lat="46.55466" lon="-1.81573">
        <ele>5.4</ele>
        <time>2020-06-03T14:39:06Z</time>
      </trkpt>
      <trkpt lat="46.55469" lon="-1.81577">
        <ele>5.5</ele>
        <time>2020-06-03T14:39:07Z</time>
      </trkpt>
      <trkpt lat="46.5547" lon="-1.81581">
        <ele>5.5</ele>
        <time>2020-06-03T14:39:08Z</time>
      </trkpt>
      <trkpt lat="46.55471" lon="-1.81586">
        <ele>5.5</ele>
        <time>2020-06-03T14:39:09Z</time>
      </trkpt>
      <trkpt lat="46.55473" lon="-1.81591">
        <ele>5.5</ele>
        <time>2020-06-03T14:39:10Z</time>
      </trkpt>
      <trkpt lat="46.55474" lon="-1.81595">
        <ele>5.5</ele>
        <time>2020-06-03T14:39:11Z</time>
      </trkpt>
      <trkpt lat="46.55476" lon="-1.816">
        <ele>5.5</ele>
        <time>2020-06-03T14:39:12Z</time>
      </trkpt>
      <trkpt lat="46.55476" lon="-1.81604">
        <ele>5.5</ele>
        <time>2020-06-03T14:39:13Z</time>
      </trkpt>
      <trkpt lat="46.55476" lon="-1.81608">
        <ele>5.5</ele>
        <time>2020-06-03T14:39:14Z</time>
      </trkpt>
      <trkpt lat="46.55477" lon="-1.81612">
        <ele>5.6</ele>
        <time>2020-06-03T14:39:15Z</time>
      </trkpt>
      <trkpt lat="46.55478" lon="-1.81617">
        <ele>5.6</ele>
        <time>2020-06-03T14:39:16Z</time>
      </trkpt>
      <trkpt lat="46.55478" lon="-1.81618">
        <ele>5.6</ele>
        <time>2020-06-03T14:39:17Z</time>
      </trkpt>
      <trkpt lat="46.55481" lon="-1.81619">
        <ele>5.6</ele>
        <time>2020-06-03T14:39:18Z</time>
      </trkpt>
      <trkpt lat="46.55483" lon="-1.81619">
        <ele>5.6</ele>
        <time>2020-06-03T14:39:19Z</time>
      </trkpt>
      <trkpt lat="46.55486" lon="-1.81619">
        <ele>5.7</ele>
        <time>2020-06-03T14:39:20Z</time>
      </trkpt>
      <trkpt lat="46.5549" lon="-1.81617">
        <ele>5.7</ele>
        <time>2020-06-03T14:39:21Z</time>
      </trkpt>
      <trkpt lat="46.55495" lon="-1.81615">
        <ele>5.8</ele>
        <time>2020-06-03T14:39:22Z</time>
      </trkpt>
      <trkpt lat="46.55499" lon="-1.81614">
        <ele>5.9</ele>
        <time>2020-06-03T14:39:23Z</time>
      </trkpt>
      <trkpt lat="46.55503" lon="-1.81612">
        <ele>6</ele>
        <time>2020-06-03T14:39:24Z</time>
      </trkpt>
      <trkpt lat="46.55506" lon="-1.8161">
        <ele>6.1</ele>
        <time>2020-06-03T14:39:25Z</time>
      </trkpt>
      <trkpt lat="46.55508" lon="-1.81608">
        <ele>6.2</ele>
        <time>2020-06-03T14:39:26Z</time>
      </trkpt>
      <trkpt lat="46.55511" lon="-1.81606">
        <ele>6.4</ele>
        <time>2020-06-03T14:39:27Z</time>
      </trkpt>
      <trkpt lat="46.55514" lon="-1.81604">
        <ele>6.5</ele>
        <time>2020-06-03T14:39:28Z</time>
      </trkpt>
      <trkpt lat="46.55517" lon="-1.81602">
        <ele>6.6</ele>
        <time>2020-06-03T14:39:29Z</time>
      </trkpt>
      <trkpt lat="46.5552" lon="-1.81599">
        <ele>6.7</ele>
        <time>2020-06-03T14:39:30Z</time>
      </trkpt>
      <trkpt lat="46.55523" lon="-1.81596">
        <ele>6.9</ele>
        <time>2020-06-03T14:39:31Z</time>
      </trkpt>
      <trkpt lat="46.55526" lon="-1.81593">
        <ele>7</ele>
        <time>2020-06-03T14:39:32Z</time>
      </trkpt>
      <trkpt lat="46.55529" lon="-1.8159">
        <ele>7.1</ele>
        <time>2020-06-03T14:39:33Z</time>
      </trkpt>
      <trkpt lat="46.55532" lon="-1.81588">
        <ele>7.2</ele>
        <time>2020-06-03T14:39:34Z</time>
      </trkpt>
      <trkpt lat="46.55535" lon="-1.81585">
        <ele>7.4</ele>
        <time>2020-06-03T14:39:35Z</time>
      </trkpt>
      <trkpt lat="46.55539" lon="-1.81581">
        <ele>7.5</ele>
        <time>2020-06-03T14:39:36Z</time>
      </trkpt>
      <trkpt lat="46.55541" lon="-1.81578">
        <ele>7.5</ele>
        <time>2020-06-03T14:39:37Z</time>
      </trkpt>
      <trkpt lat="46.55544" lon="-1.81576">
        <ele>7.6</ele>
        <time>2020-06-03T14:39:38Z</time>
      </trkpt>
      <trkpt lat="46.55547" lon="-1.81573">
        <ele>7.7</ele>
        <time>2020-06-03T14:39:39Z</time>
      </trkpt>
      <trkpt lat="46.55549" lon="-1.81572">
        <ele>7.7</ele>
        <time>2020-06-03T14:39:40Z</time>
      </trkpt>
      <trkpt lat="46.55552" lon="-1.81569">
        <ele>7.8</ele>
        <time>2020-06-03T14:39:41Z</time>
      </trkpt>
      <trkpt lat="46.55556" lon="-1.81565">
        <ele>7.9</ele>
        <time>2020-06-03T14:39:42Z</time>
      </trkpt>
      <trkpt lat="46.55559" lon="-1.81559">
        <ele>8</ele>
        <time>2020-06-03T14:39:43Z</time>
      </trkpt>
      <trkpt lat="46.55563" lon="-1.81553">
        <ele>8</ele>
        <time>2020-06-03T14:39:44Z</time>
      </trkpt>
      <trkpt lat="46.55565" lon="-1.81548">
        <ele>8</ele>
        <time>2020-06-03T14:39:45Z</time>
      </trkpt>
      <trkpt lat="46.55567" lon="-1.81543">
        <ele>8.1</ele>
        <time>2020-06-03T14:39:46Z</time>
      </trkpt>
      <trkpt lat="46.55568" lon="-1.81539">
        <ele>8.1</ele>
        <time>2020-06-03T14:39:47Z</time>
      </trkpt>
      <trkpt lat="46.5557" lon="-1.81535">
        <ele>8.1</ele>
        <time>2020-06-03T14:39:48Z</time>
      </trkpt>
      <trkpt lat="46.55571" lon="-1.81534">
        <ele>8.1</ele>
        <time>2020-06-03T14:39:49Z</time>
      </trkpt>
      <trkpt lat="46.55573" lon="-1.81531">
        <ele>8.1</ele>
        <time>2020-06-03T14:39:50Z</time>
      </trkpt>
      <trkpt lat="46.55574" lon="-1.81529">
        <ele>8.1</ele>
        <time>2020-06-03T14:39:51Z</time>
      </trkpt>
      <trkpt lat="46.55576" lon="-1.81524">
        <ele>8.1</ele>
        <time>2020-06-03T14:39:52Z</time>
      </trkpt>
      <trkpt lat="46.55579" lon="-1.81519">
        <ele>8.1</ele>
        <time>2020-06-03T14:39:53Z</time>
      </trkpt>
      <trkpt lat="46.55582" lon="-1.81512">
        <ele>8</ele>
        <time>2020-06-03T14:39:54Z</time>
      </trkpt>
      <trkpt lat="46.55585" lon="-1.81505">
        <ele>7.9</ele>
        <time>2020-06-03T14:39:55Z</time>
      </trkpt>
      <trkpt lat="46.55587" lon="-1.81499">
        <ele>7.8</ele>
        <time>2020-06-03T14:39:56Z</time>
      </trkpt>
      <trkpt lat="46.55589" lon="-1.81494">
        <ele>7.7</ele>
        <time>2020-06-03T14:39:57Z</time>
      </trkpt>
      <trkpt lat="46.55591" lon="-1.8149">
        <ele>7.7</ele>
        <time>2020-06-03T14:39:58Z</time>
      </trkpt>
      <trkpt lat="46.55593" lon="-1.81485">
        <ele>7.6</ele>
        <time>2020-06-03T14:39:59Z</time>
      </trkpt>
      <trkpt lat="46.55594" lon="-1.8148">
        <ele>7.6</ele>
        <time>2020-06-03T14:40:00Z</time>
      </trkpt>
      <trkpt lat="46.55595" lon="-1.81476">
        <ele>7.5</ele>
        <time>2020-06-03T14:40:01Z</time>
      </trkpt>
      <trkpt lat="46.55597" lon="-1.81472">
        <ele>7.5</ele>
        <time>2020-06-03T14:40:02Z</time>
      </trkpt>
      <trkpt lat="46.55597" lon="-1.81468">
        <ele>7.5</ele>
        <time>2020-06-03T14:40:03Z</time>
      </trkpt>
      <trkpt lat="46.55599" lon="-1.81464">
        <ele>7.5</ele>
        <time>2020-06-03T14:40:04Z</time>
      </trkpt>
      <trkpt lat="46.55601" lon="-1.8146">
        <ele>7.5</ele>
        <time>2020-06-03T14:40:05Z</time>
      </trkpt>
      <trkpt lat="46.55604" lon="-1.81457">
        <ele>7.5</ele>
        <time>2020-06-03T14:40:06Z</time>
      </trkpt>
      <trkpt lat="46.55606" lon="-1.81452">
        <ele>7.5</ele>
        <time>2020-06-03T14:40:07Z</time>
      </trkpt>
      <trkpt lat="46.55608" lon="-1.81448">
        <ele>7.5</ele>
        <time>2020-06-03T14:40:08Z</time>
      </trkpt>
      <trkpt lat="46.5561" lon="-1.81443">
        <ele>7.6</ele>
        <time>2020-06-03T14:40:09Z</time>
      </trkpt>
      <trkpt lat="46.55611" lon="-1.81437">
        <ele>7.6</ele>
        <time>2020-06-03T14:40:10Z</time>
      </trkpt>
      <trkpt lat="46.55613" lon="-1.81433">
        <ele>7.7</ele>
        <time>2020-06-03T14:40:11Z</time>
      </trkpt>
      <trkpt lat="46.55616" lon="-1.81426">
        <ele>7.8</ele>
        <time>2020-06-03T14:40:12Z</time>
      </trkpt>
      <trkpt lat="46.55619" lon="-1.8142">
        <ele>7.9</ele>
        <time>2020-06-03T14:40:13Z</time>
      </trkpt>
      <trkpt lat="46.55621" lon="-1.81414">
        <ele>8</ele>
        <time>2020-06-03T14:40:14Z</time>
      </trkpt>
      <trkpt lat="46.55624" lon="-1.81409">
        <ele>8</ele>
        <time>2020-06-03T14:40:15Z</time>
      </trkpt>
      <trkpt lat="46.55626" lon="-1.81403">
        <ele>8.1</ele>
        <time>2020-06-03T14:40:16Z</time>
      </trkpt>
      <trkpt lat="46.55629" lon="-1.81397">
        <ele>8.1</ele>
        <time>2020-06-03T14:40:17Z</time>
      </trkpt>
      <trkpt lat="46.55632" lon="-1.81391">
        <ele>8.2</ele>
        <time>2020-06-03T14:40:18Z</time>
      </trkpt>
      <trkpt lat="46.55635" lon="-1.81385">
        <ele>8.2</ele>
        <time>2020-06-03T14:40:19Z</time>
      </trkpt>
      <trkpt lat="46.55635" lon="-1.81378">
        <ele>8.3</ele>
        <time>2020-06-03T14:40:20Z</time>
      </trkpt>
      <trkpt lat="46.55636" lon="-1.81372">
        <ele>8.2</ele>
        <time>2020-06-03T14:40:21Z</time>
      </trkpt>
      <trkpt lat="46.55635" lon="-1.81366">
        <ele>8.1</ele>
        <time>2020-06-03T14:40:22Z</time>
      </trkpt>
      <trkpt lat="46.55633" lon="-1.8136">
        <ele>7.9</ele>
        <time>2020-06-03T14:40:23Z</time>
      </trkpt>
      <trkpt lat="46.55628" lon="-1.81355">
        <ele>7.7</ele>
        <time>2020-06-03T14:40:24Z</time>
      </trkpt>
      <trkpt lat="46.55624" lon="-1.81349">
        <ele>7.4</ele>
        <time>2020-06-03T14:40:25Z</time>
      </trkpt>
      <trkpt lat="46.5562" lon="-1.81343">
        <ele>7.2</ele>
        <time>2020-06-03T14:40:26Z</time>
      </trkpt>
      <trkpt lat="46.55617" lon="-1.81335">
        <ele>7</ele>
        <time>2020-06-03T14:40:27Z</time>
      </trkpt>
      <trkpt lat="46.55613" lon="-1.81328">
        <ele>6.9</ele>
        <time>2020-06-03T14:40:28Z</time>
      </trkpt>
      <trkpt lat="46.55609" lon="-1.81321">
        <ele>6.9</ele>
        <time>2020-06-03T14:40:29Z</time>
      </trkpt>
      <trkpt lat="46.55607" lon="-1.81312">
        <ele>7</ele>
        <time>2020-06-03T14:40:30Z</time>
      </trkpt>
      <trkpt lat="46.55604" lon="-1.81306">
        <ele>7</ele>
        <time>2020-06-03T14:40:31Z</time>
      </trkpt>
      <trkpt lat="46.556" lon="-1.81301">
        <ele>7.1</ele>
        <time>2020-06-03T14:40:32Z</time>
      </trkpt>
      <trkpt lat="46.55596" lon="-1.81296">
        <ele>7.1</ele>
        <time>2020-06-03T14:40:33Z</time>
      </trkpt>
      <trkpt lat="46.55593" lon="-1.81292">
        <ele>7.2</ele>
        <time>2020-06-03T14:40:34Z</time>
      </trkpt>
      <trkpt lat="46.5559" lon="-1.81288">
        <ele>7.2</ele>
        <time>2020-06-03T14:40:35Z</time>
      </trkpt>
      <trkpt lat="46.55588" lon="-1.81283">
        <ele>7.2</ele>
        <time>2020-06-03T14:40:36Z</time>
      </trkpt>
      <trkpt lat="46.55586" lon="-1.81279">
        <ele>7.3</ele>
        <time>2020-06-03T14:40:37Z</time>
      </trkpt>
      <trkpt lat="46.55587" lon="-1.81274">
        <ele>7.3</ele>
        <time>2020-06-03T14:40:38Z</time>
      </trkpt>
      <trkpt lat="46.55588" lon="-1.81268">
        <ele>7.3</ele>
        <time>2020-06-03T14:40:39Z</time>
      </trkpt>
      <trkpt lat="46.5559" lon="-1.81264">
        <ele>7.3</ele>
        <time>2020-06-03T14:40:40Z</time>
      </trkpt>
      <trkpt lat="46.55592" lon="-1.81262">
        <ele>7.3</ele>
        <time>2020-06-03T14:40:41Z</time>
      </trkpt>
      <trkpt lat="46.55596" lon="-1.81257">
        <ele>7.3</ele>
        <time>2020-06-03T14:40:42Z</time>
      </trkpt>
      <trkpt lat="46.55599" lon="-1.81254">
        <ele>7.3</ele>
        <time>2020-06-03T14:40:43Z</time>
      </trkpt>
      <trkpt lat="46.55603" lon="-1.8125">
        <ele>7.3</ele>
        <time>2020-06-03T14:40:44Z</time>
      </trkpt>
      <trkpt lat="46.55606" lon="-1.81245">
        <ele>7.3</ele>
        <time>2020-06-03T14:40:45Z</time>
      </trkpt>
      <trkpt lat="46.55608" lon="-1.81239">
        <ele>7.3</ele>
        <time>2020-06-03T14:40:46Z</time>
      </trkpt>
      <trkpt lat="46.55611" lon="-1.81234">
        <ele>7.3</ele>
        <time>2020-06-03T14:40:47Z</time>
      </trkpt>
      <trkpt lat="46.55614" lon="-1.8123">
        <ele>7.3</ele>
        <time>2020-06-03T14:40:48Z</time>
      </trkpt>
      <trkpt lat="46.55617" lon="-1.81225">
        <ele>7.3</ele>
        <time>2020-06-03T14:40:49Z</time>
      </trkpt>
      <trkpt lat="46.5562" lon="-1.8122">
        <ele>7.3</ele>
        <time>2020-06-03T14:40:50Z</time>
      </trkpt>
      <trkpt lat="46.55623" lon="-1.81215">
        <ele>7.3</ele>
        <time>2020-06-03T14:40:51Z</time>
      </trkpt>
      <trkpt lat="46.55626" lon="-1.8121">
        <ele>7.3</ele>
        <time>2020-06-03T14:40:52Z</time>
      </trkpt>
      <trkpt lat="46.55628" lon="-1.81205">
        <ele>7.3</ele>
        <time>2020-06-03T14:40:53Z</time>
      </trkpt>
      <trkpt lat="46.5563" lon="-1.81199">
        <ele>7.4</ele>
        <time>2020-06-03T14:40:54Z</time>
      </trkpt>
      <trkpt lat="46.55632" lon="-1.81194">
        <ele>7.4</ele>
        <time>2020-06-03T14:40:55Z</time>
      </trkpt>
      <trkpt lat="46.55635" lon="-1.81189">
        <ele>7.4</ele>
        <time>2020-06-03T14:40:56Z</time>
      </trkpt>
      <trkpt lat="46.55638" lon="-1.81185">
        <ele>7.4</ele>
        <time>2020-06-03T14:40:57Z</time>
      </trkpt>
      <trkpt lat="46.5564" lon="-1.81179">
        <ele>7.4</ele>
        <time>2020-06-03T14:40:58Z</time>
      </trkpt>
      <trkpt lat="46.55642" lon="-1.81174">
        <ele>7.5</ele>
        <time>2020-06-03T14:40:59Z</time>
      </trkpt>
      <trkpt lat="46.55643" lon="-1.81169">
        <ele>7.5</ele>
        <time>2020-06-03T14:41:00Z</time>
      </trkpt>
      <trkpt lat="46.55645" lon="-1.81165">
        <ele>7.5</ele>
        <time>2020-06-03T14:41:01Z</time>
      </trkpt>
      <trkpt lat="46.55647" lon="-1.81161">
        <ele>7.6</ele>
        <time>2020-06-03T14:41:02Z</time>
      </trkpt>
      <trkpt lat="46.55649" lon="-1.81157">
        <ele>7.6</ele>
        <time>2020-06-03T14:41:03Z</time>
      </trkpt>
      <trkpt lat="46.5565" lon="-1.81152">
        <ele>7.6</ele>
        <time>2020-06-03T14:41:04Z</time>
      </trkpt>
      <trkpt lat="46.55653" lon="-1.81148">
        <ele>7.6</ele>
        <time>2020-06-03T14:41:05Z</time>
      </trkpt>
      <trkpt lat="46.55654" lon="-1.81147">
        <ele>7.6</ele>
        <time>2020-06-03T14:41:06Z</time>
      </trkpt>
      <trkpt lat="46.55655" lon="-1.81145">
        <ele>7.7</ele>
        <time>2020-06-03T14:41:07Z</time>
      </trkpt>
      <trkpt lat="46.55655" lon="-1.81143">
        <ele>7.7</ele>
        <time>2020-06-03T14:41:08Z</time>
      </trkpt>
      <trkpt lat="46.55655" lon="-1.81142">
        <ele>7.7</ele>
        <time>2020-06-03T14:41:09Z</time>
      </trkpt>
      <trkpt lat="46.55654" lon="-1.81141">
        <ele>7.7</ele>
        <time>2020-06-03T14:41:10Z</time>
      </trkpt>
      <trkpt lat="46.55654" lon="-1.81139">
        <ele>7.7</ele>
        <time>2020-06-03T14:41:11Z</time>
      </trkpt>
      <trkpt lat="46.55654" lon="-1.81137">
        <ele>7.7</ele>
        <time>2020-06-03T14:41:12Z</time>
      </trkpt>
      <trkpt lat="46.55655" lon="-1.81135">
        <ele>7.7</ele>
        <time>2020-06-03T14:41:13Z</time>
      </trkpt>
      <trkpt lat="46.55655" lon="-1.81133">
        <ele>7.7</ele>
        <time>2020-06-03T14:41:14Z</time>
      </trkpt>
      <trkpt lat="46.55655" lon="-1.81131">
        <ele>7.7</ele>
        <time>2020-06-03T14:41:15Z</time>
      </trkpt>
      <trkpt lat="46.55656" lon="-1.8113">
        <ele>7.7</ele>
        <time>2020-06-03T14:41:16Z</time>
      </trkpt>
      <trkpt lat="46.55656" lon="-1.81129">
        <ele>7.7</ele>
        <time>2020-06-03T14:41:17Z</time>
      </trkpt>
      <trkpt lat="46.55656" lon="-1.81127">
        <ele>7.7</ele>
        <time>2020-06-03T14:41:18Z</time>
      </trkpt>
      <trkpt lat="46.55655" lon="-1.81125">
        <ele>7.7</ele>
        <time>2020-06-03T14:41:19Z</time>
      </trkpt>
      <trkpt lat="46.55654" lon="-1.8112">
        <ele>7.8</ele>
        <time>2020-06-03T14:41:20Z</time>
      </trkpt>
      <trkpt lat="46.55654" lon="-1.81118">
        <ele>7.8</ele>
        <time>2020-06-03T14:41:21Z</time>
      </trkpt>
      <trkpt lat="46.55656" lon="-1.81113">
        <ele>7.8</ele>
        <time>2020-06-03T14:41:22Z</time>
      </trkpt>
      <trkpt lat="46.55656" lon="-1.81111">
        <ele>7.8</ele>
        <time>2020-06-03T14:41:23Z</time>
      </trkpt>
      <trkpt lat="46.55657" lon="-1.81106">
        <ele>7.8</ele>
        <time>2020-06-03T14:41:24Z</time>
      </trkpt>
      <trkpt lat="46.55657" lon="-1.81105">
        <ele>7.7</ele>
        <time>2020-06-03T14:41:25Z</time>
      </trkpt>
      <trkpt lat="46.55656" lon="-1.81101">
        <ele>7.7</ele>
        <time>2020-06-03T14:41:26Z</time>
      </trkpt>
      <trkpt lat="46.55656" lon="-1.811">
        <ele>7.7</ele>
        <time>2020-06-03T14:41:27Z</time>
      </trkpt>
      <trkpt lat="46.55656" lon="-1.81095">
        <ele>7.7</ele>
        <time>2020-06-03T14:41:28Z</time>
      </trkpt>
      <trkpt lat="46.55657" lon="-1.81094">
        <ele>7.7</ele>
        <time>2020-06-03T14:41:29Z</time>
      </trkpt>
      <trkpt lat="46.55659" lon="-1.8109">
        <ele>7.6</ele>
        <time>2020-06-03T14:41:30Z</time>
      </trkpt>
      <trkpt lat="46.5566" lon="-1.81089">
        <ele>7.6</ele>
        <time>2020-06-03T14:41:31Z</time>
      </trkpt>
      <trkpt lat="46.55662" lon="-1.81085">
        <ele>7.6</ele>
        <time>2020-06-03T14:41:32Z</time>
      </trkpt>
      <trkpt lat="46.55663" lon="-1.81083">
        <ele>7.6</ele>
        <time>2020-06-03T14:41:33Z</time>
      </trkpt>
      <trkpt lat="46.55666" lon="-1.8108">
        <ele>7.6</ele>
        <time>2020-06-03T14:41:34Z</time>
      </trkpt>
      <trkpt lat="46.55669" lon="-1.81075">
        <ele>7.6</ele>
        <time>2020-06-03T14:41:35Z</time>
      </trkpt>
      <trkpt lat="46.55672" lon="-1.8107">
        <ele>7.6</ele>
        <time>2020-06-03T14:41:36Z</time>
      </trkpt>
      <trkpt lat="46.55675" lon="-1.81065">
        <ele>7.6</ele>
        <time>2020-06-03T14:41:37Z</time>
      </trkpt>
      <trkpt lat="46.55677" lon="-1.8106">
        <ele>7.6</ele>
        <time>2020-06-03T14:41:38Z</time>
      </trkpt>
      <trkpt lat="46.55681" lon="-1.81055">
        <ele>7.6</ele>
        <time>2020-06-03T14:41:39Z</time>
      </trkpt>
      <trkpt lat="46.55684" lon="-1.81048">
        <ele>7.5</ele>
        <time>2020-06-03T14:41:40Z</time>
      </trkpt>
      <trkpt lat="46.55687" lon="-1.81043">
        <ele>7.5</ele>
        <time>2020-06-03T14:41:41Z</time>
      </trkpt>
      <trkpt lat="46.5569" lon="-1.81037">
        <ele>7.5</ele>
        <time>2020-06-03T14:41:42Z</time>
      </trkpt>
      <trkpt lat="46.55694" lon="-1.81032">
        <ele>7.5</ele>
        <time>2020-06-03T14:41:43Z</time>
      </trkpt>
      <trkpt lat="46.55697" lon="-1.81026">
        <ele>7.5</ele>
        <time>2020-06-03T14:41:44Z</time>
      </trkpt>
      <trkpt lat="46.557" lon="-1.81021">
        <ele>7.5</ele>
        <time>2020-06-03T14:41:45Z</time>
      </trkpt>
      <trkpt lat="46.55703" lon="-1.81015">
        <ele>7.4</ele>
        <time>2020-06-03T14:41:46Z</time>
      </trkpt>
      <trkpt lat="46.55707" lon="-1.81009">
        <ele>7.4</ele>
        <time>2020-06-03T14:41:47Z</time>
      </trkpt>
      <trkpt lat="46.5571" lon="-1.81003">
        <ele>7.4</ele>
        <time>2020-06-03T14:41:48Z</time>
      </trkpt>
      <trkpt lat="46.55712" lon="-1.80995">
        <ele>7.3</ele>
        <time>2020-06-03T14:41:49Z</time>
      </trkpt>
      <trkpt lat="46.55714" lon="-1.8099">
        <ele>7.2</ele>
        <time>2020-06-03T14:41:50Z</time>
      </trkpt>
      <trkpt lat="46.55715" lon="-1.80986">
        <ele>7.2</ele>
        <time>2020-06-03T14:41:51Z</time>
      </trkpt>
      <trkpt lat="46.55717" lon="-1.80981">
        <ele>7.2</ele>
        <time>2020-06-03T14:41:52Z</time>
      </trkpt>
      <trkpt lat="46.55718" lon="-1.80976">
        <ele>7.1</ele>
        <time>2020-06-03T14:41:53Z</time>
      </trkpt>
      <trkpt lat="46.5572" lon="-1.80972">
        <ele>7.1</ele>
        <time>2020-06-03T14:41:54Z</time>
      </trkpt>
      <trkpt lat="46.5572" lon="-1.80971">
        <ele>7.1</ele>
        <time>2020-06-03T14:41:55Z</time>
      </trkpt>
      <trkpt lat="46.55722" lon="-1.80967">
        <ele>7</ele>
        <time>2020-06-03T14:41:56Z</time>
      </trkpt>
      <trkpt lat="46.55723" lon="-1.80966">
        <ele>7</ele>
        <time>2020-06-03T14:41:57Z</time>
      </trkpt>
      <trkpt lat="46.55725" lon="-1.80962">
        <ele>6.9</ele>
        <time>2020-06-03T14:41:58Z</time>
      </trkpt>
      <trkpt lat="46.55725" lon="-1.80961">
        <ele>6.9</ele>
        <time>2020-06-03T14:41:59Z</time>
      </trkpt>
      <trkpt lat="46.55727" lon="-1.80958">
        <ele>6.9</ele>
        <time>2020-06-03T14:42:00Z</time>
      </trkpt>
      <trkpt lat="46.55728" lon="-1.80957">
        <ele>6.8</ele>
        <time>2020-06-03T14:42:01Z</time>
      </trkpt>
      <trkpt lat="46.55729" lon="-1.80956">
        <ele>6.8</ele>
        <time>2020-06-03T14:42:02Z</time>
      </trkpt>
      <trkpt lat="46.55729" lon="-1.80956">
        <ele>6.8</ele>
        <time>2020-06-03T14:42:03Z</time>
      </trkpt>
      <trkpt lat="46.55729" lon="-1.80956">
        <ele>6.8</ele>
        <time>2020-06-03T14:42:04Z</time>
      </trkpt>
      <trkpt lat="46.5573" lon="-1.80955">
        <ele>6.8</ele>
        <time>2020-06-03T14:42:05Z</time>
      </trkpt>
      <trkpt lat="46.5573" lon="-1.80955">
        <ele>6.8</ele>
        <time>2020-06-03T14:42:06Z</time>
      </trkpt>
      <trkpt lat="46.5573" lon="-1.80955">
        <ele>6.8</ele>
        <time>2020-06-03T14:42:07Z</time>
      </trkpt>
      <trkpt lat="46.5573" lon="-1.80954">
        <ele>6.8</ele>
        <time>2020-06-03T14:42:08Z</time>
      </trkpt>
      <trkpt lat="46.5573" lon="-1.80954">
        <ele>6.8</ele>
        <time>2020-06-03T14:42:09Z</time>
      </trkpt>
      <trkpt lat="46.5573" lon="-1.80954">
        <ele>6.8</ele>
        <time>2020-06-03T14:42:10Z</time>
      </trkpt>
      <trkpt lat="46.5573" lon="-1.80954">
        <ele>6.8</ele>
        <time>2020-06-03T14:42:11Z</time>
      </trkpt>
      <trkpt lat="46.5573" lon="-1.80953">
        <ele>6.8</ele>
        <time>2020-06-03T14:42:12Z</time>
      </trkpt>
      <trkpt lat="46.5573" lon="-1.80953">
        <ele>6.8</ele>
        <time>2020-06-03T14:42:13Z</time>
      </trkpt>
      <trkpt lat="46.5573" lon="-1.80953">
        <ele>6.8</ele>
        <time>2020-06-03T14:42:14Z</time>
      </trkpt>
      <trkpt lat="46.5573" lon="-1.80952">
        <ele>6.8</ele>
        <time>2020-06-03T14:42:15Z</time>
      </trkpt>
      <trkpt lat="46.5573" lon="-1.8095">
        <ele>6.7</ele>
        <time>2020-06-03T14:42:16Z</time>
      </trkpt>
      <trkpt lat="46.55731" lon="-1.80949">
        <ele>6.7</ele>
        <time>2020-06-03T14:42:17Z</time>
      </trkpt>
      <trkpt lat="46.55732" lon="-1.80948">
        <ele>6.7</ele>
        <time>2020-06-03T14:42:18Z</time>
      </trkpt>
      <trkpt lat="46.55732" lon="-1.80947">
        <ele>6.7</ele>
        <time>2020-06-03T14:42:19Z</time>
      </trkpt>
      <trkpt lat="46.55733" lon="-1.80946">
        <ele>6.6</ele>
        <time>2020-06-03T14:42:20Z</time>
      </trkpt>
      <trkpt lat="46.55734" lon="-1.80945">
        <ele>6.6</ele>
        <time>2020-06-03T14:42:21Z</time>
      </trkpt>
      <trkpt lat="46.55735" lon="-1.80942">
        <ele>6.5</ele>
        <time>2020-06-03T14:42:22Z</time>
      </trkpt>
      <trkpt lat="46.55735" lon="-1.80941">
        <ele>6.5</ele>
        <time>2020-06-03T14:42:23Z</time>
      </trkpt>
      <trkpt lat="46.55736" lon="-1.8094">
        <ele>6.5</ele>
        <time>2020-06-03T14:42:24Z</time>
      </trkpt>
      <trkpt lat="46.55736" lon="-1.8094">
        <ele>6.5</ele>
        <time>2020-06-03T14:42:25Z</time>
      </trkpt>
      <trkpt lat="46.55736" lon="-1.80939">
        <ele>6.5</ele>
        <time>2020-06-03T14:42:26Z</time>
      </trkpt>
      <trkpt lat="46.55736" lon="-1.80939">
        <ele>6.5</ele>
        <time>2020-06-03T14:42:27Z</time>
      </trkpt>
      <trkpt lat="46.55736" lon="-1.80939">
        <ele>6.5</ele>
        <time>2020-06-03T14:42:28Z</time>
      </trkpt>
      <trkpt lat="46.55736" lon="-1.80938">
        <ele>6.5</ele>
        <time>2020-06-03T14:42:29Z</time>
      </trkpt>
      <trkpt lat="46.55737" lon="-1.80938">
        <ele>6.4</ele>
        <time>2020-06-03T14:42:30Z</time>
      </trkpt>
      <trkpt lat="46.55737" lon="-1.80937">
        <ele>6.4</ele>
        <time>2020-06-03T14:42:31Z</time>
      </trkpt>
      <trkpt lat="46.55737" lon="-1.80937">
        <ele>6.4</ele>
        <time>2020-06-03T14:42:32Z</time>
      </trkpt>
      <trkpt lat="46.55737" lon="-1.80936">
        <ele>6.4</ele>
        <time>2020-06-03T14:42:33Z</time>
      </trkpt>
      <trkpt lat="46.55737" lon="-1.80936">
        <ele>6.4</ele>
        <time>2020-06-03T14:42:34Z</time>
      </trkpt>
      <trkpt lat="46.55737" lon="-1.80936">
        <ele>6.4</ele>
        <time>2020-06-03T14:42:35Z</time>
      </trkpt>
      <trkpt lat="46.55738" lon="-1.80931">
        <ele>6.3</ele>
        <time>2020-06-03T14:42:36Z</time>
      </trkpt>
      <trkpt lat="46.55738" lon="-1.80929">
        <ele>6.3</ele>
        <time>2020-06-03T14:42:37Z</time>
      </trkpt>
      <trkpt lat="46.5574" lon="-1.80925">
        <ele>6.2</ele>
        <time>2020-06-03T14:42:38Z</time>
      </trkpt>
      <trkpt lat="46.55743" lon="-1.8092">
        <ele>6.1</ele>
        <time>2020-06-03T14:42:39Z</time>
      </trkpt>
      <trkpt lat="46.55746" lon="-1.80916">
        <ele>5.9</ele>
        <time>2020-06-03T14:42:40Z</time>
      </trkpt>
      <trkpt lat="46.55749" lon="-1.80913">
        <ele>5.8</ele>
        <time>2020-06-03T14:42:41Z</time>
      </trkpt>
      <trkpt lat="46.55752" lon="-1.80908">
        <ele>5.7</ele>
        <time>2020-06-03T14:42:42Z</time>
      </trkpt>
      <trkpt lat="46.55755" lon="-1.80904">
        <ele>5.6</ele>
        <time>2020-06-03T14:42:43Z</time>
      </trkpt>
      <trkpt lat="46.55759" lon="-1.80898">
        <ele>5.4</ele>
        <time>2020-06-03T14:42:44Z</time>
      </trkpt>
      <trkpt lat="46.55762" lon="-1.80894">
        <ele>5.3</ele>
        <time>2020-06-03T14:42:45Z</time>
      </trkpt>
      <trkpt lat="46.55767" lon="-1.80888">
        <ele>5.2</ele>
        <time>2020-06-03T14:42:46Z</time>
      </trkpt>
      <trkpt lat="46.55771" lon="-1.80882">
        <ele>5</ele>
        <time>2020-06-03T14:42:47Z</time>
      </trkpt>
      <trkpt lat="46.55775" lon="-1.80877">
        <ele>4.9</ele>
        <time>2020-06-03T14:42:48Z</time>
      </trkpt>
      <trkpt lat="46.5578" lon="-1.80872">
        <ele>4.8</ele>
        <time>2020-06-03T14:42:49Z</time>
      </trkpt>
      <trkpt lat="46.55784" lon="-1.80869">
        <ele>4.8</ele>
        <time>2020-06-03T14:42:50Z</time>
      </trkpt>
      <trkpt lat="46.55789" lon="-1.80867">
        <ele>4.8</ele>
        <time>2020-06-03T14:42:51Z</time>
      </trkpt>
      <trkpt lat="46.55794" lon="-1.80867">
        <ele>4.8</ele>
        <time>2020-06-03T14:42:52Z</time>
      </trkpt>
      <trkpt lat="46.55799" lon="-1.80867">
        <ele>4.8</ele>
        <time>2020-06-03T14:42:53Z</time>
      </trkpt>
      <trkpt lat="46.55803" lon="-1.80868">
        <ele>4.8</ele>
        <time>2020-06-03T14:42:54Z</time>
      </trkpt>
      <trkpt lat="46.55806" lon="-1.80868">
        <ele>4.8</ele>
        <time>2020-06-03T14:42:55Z</time>
      </trkpt>
      <trkpt lat="46.5581" lon="-1.80869">
        <ele>4.8</ele>
        <time>2020-06-03T14:42:56Z</time>
      </trkpt>
      <trkpt lat="46.55814" lon="-1.80868">
        <ele>4.8</ele>
        <time>2020-06-03T14:42:57Z</time>
      </trkpt>
      <trkpt lat="46.55818" lon="-1.80867">
        <ele>4.8</ele>
        <time>2020-06-03T14:42:58Z</time>
      </trkpt>
      <trkpt lat="46.55823" lon="-1.80866">
        <ele>4.8</ele>
        <time>2020-06-03T14:42:59Z</time>
      </trkpt>
      <trkpt lat="46.55829" lon="-1.80867">
        <ele>4.8</ele>
        <time>2020-06-03T14:43:00Z</time>
      </trkpt>
      <trkpt lat="46.55833" lon="-1.80869">
        <ele>4.8</ele>
        <time>2020-06-03T14:43:01Z</time>
      </trkpt>
      <trkpt lat="46.55838" lon="-1.80869">
        <ele>4.9</ele>
        <time>2020-06-03T14:43:02Z</time>
      </trkpt>
      <trkpt lat="46.55843" lon="-1.80869">
        <ele>4.9</ele>
        <time>2020-06-03T14:43:03Z</time>
      </trkpt>
      <trkpt lat="46.55847" lon="-1.80869">
        <ele>4.9</ele>
        <time>2020-06-03T14:43:04Z</time>
      </trkpt>
      <trkpt lat="46.5585" lon="-1.8087">
        <ele>4.9</ele>
        <time>2020-06-03T14:43:05Z</time>
      </trkpt>
      <trkpt lat="46.55855" lon="-1.80873">
        <ele>5</ele>
        <time>2020-06-03T14:43:06Z</time>
      </trkpt>
      <trkpt lat="46.55858" lon="-1.80875">
        <ele>5</ele>
        <time>2020-06-03T14:43:07Z</time>
      </trkpt>
      <trkpt lat="46.55864" lon="-1.80877">
        <ele>5</ele>
        <time>2020-06-03T14:43:08Z</time>
      </trkpt>
      <trkpt lat="46.55869" lon="-1.80879">
        <ele>5</ele>
        <time>2020-06-03T14:43:09Z</time>
      </trkpt>
      <trkpt lat="46.55875" lon="-1.80881">
        <ele>5.1</ele>
        <time>2020-06-03T14:43:10Z</time>
      </trkpt>
      <trkpt lat="46.55881" lon="-1.80883">
        <ele>5.1</ele>
        <time>2020-06-03T14:43:11Z</time>
      </trkpt>
      <trkpt lat="46.55886" lon="-1.80887">
        <ele>5.2</ele>
        <time>2020-06-03T14:43:12Z</time>
      </trkpt>
      <trkpt lat="46.5589" lon="-1.80889">
        <ele>5.2</ele>
        <time>2020-06-03T14:43:13Z</time>
      </trkpt>
      <trkpt lat="46.55894" lon="-1.80893">
        <ele>5.3</ele>
        <time>2020-06-03T14:43:14Z</time>
      </trkpt>
      <trkpt lat="46.55897" lon="-1.80896">
        <ele>5.4</ele>
        <time>2020-06-03T14:43:15Z</time>
      </trkpt>
      <trkpt lat="46.559" lon="-1.80899">
        <ele>5.4</ele>
        <time>2020-06-03T14:43:16Z</time>
      </trkpt>
      <trkpt lat="46.55903" lon="-1.80901">
        <ele>5.5</ele>
        <time>2020-06-03T14:43:17Z</time>
      </trkpt>
      <trkpt lat="46.55906" lon="-1.80905">
        <ele>5.6</ele>
        <time>2020-06-03T14:43:18Z</time>
      </trkpt>
      <trkpt lat="46.55909" lon="-1.80908">
        <ele>5.6</ele>
        <time>2020-06-03T14:43:19Z</time>
      </trkpt>
      <trkpt lat="46.55912" lon="-1.80912">
        <ele>5.7</ele>
        <time>2020-06-03T14:43:20Z</time>
      </trkpt>
      <trkpt lat="46.55915" lon="-1.80915">
        <ele>5.7</ele>
        <time>2020-06-03T14:43:21Z</time>
      </trkpt>
      <trkpt lat="46.55919" lon="-1.80918">
        <ele>5.7</ele>
        <time>2020-06-03T14:43:22Z</time>
      </trkpt>
      <trkpt lat="46.5592" lon="-1.80918">
        <ele>5.8</ele>
        <time>2020-06-03T14:43:23Z</time>
      </trkpt>
      <trkpt lat="46.55925" lon="-1.8092">
        <ele>5.8</ele>
        <time>2020-06-03T14:43:24Z</time>
      </trkpt>
      <trkpt lat="46.55928" lon="-1.80922">
        <ele>5.8</ele>
        <time>2020-06-03T14:43:25Z</time>
      </trkpt>
      <trkpt lat="46.55933" lon="-1.80924">
        <ele>5.8</ele>
        <time>2020-06-03T14:43:26Z</time>
      </trkpt>
      <trkpt lat="46.55937" lon="-1.80926">
        <ele>5.8</ele>
        <time>2020-06-03T14:43:27Z</time>
      </trkpt>
      <trkpt lat="46.55942" lon="-1.80927">
        <ele>5.8</ele>
        <time>2020-06-03T14:43:28Z</time>
      </trkpt>
      <trkpt lat="46.55948" lon="-1.80929">
        <ele>5.8</ele>
        <time>2020-06-03T14:43:29Z</time>
      </trkpt>
      <trkpt lat="46.55953" lon="-1.8093">
        <ele>5.8</ele>
        <time>2020-06-03T14:43:30Z</time>
      </trkpt>
      <trkpt lat="46.55958" lon="-1.80933">
        <ele>5.8</ele>
        <time>2020-06-03T14:43:31Z</time>
      </trkpt>
      <trkpt lat="46.55963" lon="-1.80935">
        <ele>5.8</ele>
        <time>2020-06-03T14:43:32Z</time>
      </trkpt>
      <trkpt lat="46.55969" lon="-1.80937">
        <ele>5.8</ele>
        <time>2020-06-03T14:43:33Z</time>
      </trkpt>
      <trkpt lat="46.55974" lon="-1.80939">
        <ele>5.8</ele>
        <time>2020-06-03T14:43:34Z</time>
      </trkpt>
      <trkpt lat="46.55979" lon="-1.80942">
        <ele>5.7</ele>
        <time>2020-06-03T14:43:35Z</time>
      </trkpt>
      <trkpt lat="46.55984" lon="-1.80945">
        <ele>5.7</ele>
        <time>2020-06-03T14:43:36Z</time>
      </trkpt>
      <trkpt lat="46.55989" lon="-1.80949">
        <ele>5.7</ele>
        <time>2020-06-03T14:43:37Z</time>
      </trkpt>
      <trkpt lat="46.55993" lon="-1.80951">
        <ele>5.6</ele>
        <time>2020-06-03T14:43:38Z</time>
      </trkpt>
      <trkpt lat="46.55998" lon="-1.80954">
        <ele>5.6</ele>
        <time>2020-06-03T14:43:39Z</time>
      </trkpt>
      <trkpt lat="46.56004" lon="-1.80956">
        <ele>5.5</ele>
        <time>2020-06-03T14:43:40Z</time>
      </trkpt>
      <trkpt lat="46.5601" lon="-1.80959">
        <ele>5.5</ele>
        <time>2020-06-03T14:43:41Z</time>
      </trkpt>
      <trkpt lat="46.56015" lon="-1.80961">
        <ele>5.4</ele>
        <time>2020-06-03T14:43:42Z</time>
      </trkpt>
      <trkpt lat="46.5602" lon="-1.80964">
        <ele>5.4</ele>
        <time>2020-06-03T14:43:43Z</time>
      </trkpt>
      <trkpt lat="46.56024" lon="-1.80966">
        <ele>5.4</ele>
        <time>2020-06-03T14:43:44Z</time>
      </trkpt>
      <trkpt lat="46.56028" lon="-1.80968">
        <ele>5.3</ele>
        <time>2020-06-03T14:43:45Z</time>
      </trkpt>
      <trkpt lat="46.56033" lon="-1.8097">
        <ele>5.3</ele>
        <time>2020-06-03T14:43:46Z</time>
      </trkpt>
      <trkpt lat="46.56037" lon="-1.80973">
        <ele>5.2</ele>
        <time>2020-06-03T14:43:47Z</time>
      </trkpt>
      <trkpt lat="46.56041" lon="-1.80977">
        <ele>5.2</ele>
        <time>2020-06-03T14:43:48Z</time>
      </trkpt>
      <trkpt lat="46.56045" lon="-1.80982">
        <ele>5.2</ele>
        <time>2020-06-03T14:43:49Z</time>
      </trkpt>
      <trkpt lat="46.56048" lon="-1.80986">
        <ele>5.1</ele>
        <time>2020-06-03T14:43:50Z</time>
      </trkpt>
      <trkpt lat="46.56051" lon="-1.8099">
        <ele>5.1</ele>
        <time>2020-06-03T14:43:51Z</time>
      </trkpt>
      <trkpt lat="46.56055" lon="-1.80994">
        <ele>5.1</ele>
        <time>2020-06-03T14:43:52Z</time>
      </trkpt>
      <trkpt lat="46.56058" lon="-1.80999">
        <ele>5</ele>
        <time>2020-06-03T14:43:53Z</time>
      </trkpt>
      <trkpt lat="46.56061" lon="-1.81004">
        <ele>5</ele>
        <time>2020-06-03T14:43:54Z</time>
      </trkpt>
      <trkpt lat="46.56064" lon="-1.8101">
        <ele>5</ele>
        <time>2020-06-03T14:43:55Z</time>
      </trkpt>
      <trkpt lat="46.56068" lon="-1.81014">
        <ele>4.9</ele>
        <time>2020-06-03T14:43:56Z</time>
      </trkpt>
      <trkpt lat="46.56072" lon="-1.8102">
        <ele>4.9</ele>
        <time>2020-06-03T14:43:57Z</time>
      </trkpt>
      <trkpt lat="46.56075" lon="-1.81025">
        <ele>4.8</ele>
        <time>2020-06-03T14:43:58Z</time>
      </trkpt>
      <trkpt lat="46.56079" lon="-1.81031">
        <ele>4.8</ele>
        <time>2020-06-03T14:43:59Z</time>
      </trkpt>
      <trkpt lat="46.56083" lon="-1.81035">
        <ele>4.7</ele>
        <time>2020-06-03T14:44:00Z</time>
      </trkpt>
      <trkpt lat="46.56086" lon="-1.81039">
        <ele>4.7</ele>
        <time>2020-06-03T14:44:01Z</time>
      </trkpt>
      <trkpt lat="46.5609" lon="-1.81044">
        <ele>4.6</ele>
        <time>2020-06-03T14:44:02Z</time>
      </trkpt>
      <trkpt lat="46.56093" lon="-1.81048">
        <ele>4.6</ele>
        <time>2020-06-03T14:44:03Z</time>
      </trkpt>
      <trkpt lat="46.56097" lon="-1.81053">
        <ele>4.6</ele>
        <time>2020-06-03T14:44:04Z</time>
      </trkpt>
      <trkpt lat="46.56101" lon="-1.81058">
        <ele>4.6</ele>
        <time>2020-06-03T14:44:05Z</time>
      </trkpt>
      <trkpt lat="46.56106" lon="-1.81062">
        <ele>4.6</ele>
        <time>2020-06-03T14:44:06Z</time>
      </trkpt>
      <trkpt lat="46.5611" lon="-1.81066">
        <ele>4.6</ele>
        <time>2020-06-03T14:44:07Z</time>
      </trkpt>
      <trkpt lat="46.56114" lon="-1.81069">
        <ele>4.6</ele>
        <time>2020-06-03T14:44:08Z</time>
      </trkpt>
      <trkpt lat="46.56119" lon="-1.81071">
        <ele>4.6</ele>
        <time>2020-06-03T14:44:09Z</time>
      </trkpt>
      <trkpt lat="46.56123" lon="-1.81074">
        <ele>4.6</ele>
        <time>2020-06-03T14:44:10Z</time>
      </trkpt>
      <trkpt lat="46.56127" lon="-1.81076">
        <ele>4.6</ele>
        <time>2020-06-03T14:44:11Z</time>
      </trkpt>
      <trkpt lat="46.56131" lon="-1.81076">
        <ele>4.5</ele>
        <time>2020-06-03T14:44:12Z</time>
      </trkpt>
      <trkpt lat="46.56135" lon="-1.81076">
        <ele>4.5</ele>
        <time>2020-06-03T14:44:13Z</time>
      </trkpt>
      <trkpt lat="46.56139" lon="-1.81075">
        <ele>4.5</ele>
        <time>2020-06-03T14:44:14Z</time>
      </trkpt>
      <trkpt lat="46.56144" lon="-1.81074">
        <ele>4.4</ele>
        <time>2020-06-03T14:44:15Z</time>
      </trkpt>
      <trkpt lat="46.56149" lon="-1.81069">
        <ele>4.4</ele>
        <time>2020-06-03T14:44:16Z</time>
      </trkpt>
      <trkpt lat="46.56153" lon="-1.81063">
        <ele>4.3</ele>
        <time>2020-06-03T14:44:17Z</time>
      </trkpt>
      <trkpt lat="46.56157" lon="-1.81055">
        <ele>4.2</ele>
        <time>2020-06-03T14:44:18Z</time>
      </trkpt>
      <trkpt lat="46.5616" lon="-1.81049">
        <ele>4.2</ele>
        <time>2020-06-03T14:44:19Z</time>
      </trkpt>
      <trkpt lat="46.56163" lon="-1.81043">
        <ele>4.1</ele>
        <time>2020-06-03T14:44:20Z</time>
      </trkpt>
      <trkpt lat="46.56165" lon="-1.81036">
        <ele>4.1</ele>
        <time>2020-06-03T14:44:21Z</time>
      </trkpt>
      <trkpt lat="46.56167" lon="-1.8103">
        <ele>4</ele>
        <time>2020-06-03T14:44:22Z</time>
      </trkpt>
      <trkpt lat="46.5617" lon="-1.81023">
        <ele>3.9</ele>
        <time>2020-06-03T14:44:23Z</time>
      </trkpt>
      <trkpt lat="46.56172" lon="-1.81018">
        <ele>3.9</ele>
        <time>2020-06-03T14:44:24Z</time>
      </trkpt>
      <trkpt lat="46.56176" lon="-1.81013">
        <ele>3.8</ele>
        <time>2020-06-03T14:44:25Z</time>
      </trkpt>
      <trkpt lat="46.56179" lon="-1.81008">
        <ele>3.8</ele>
        <time>2020-06-03T14:44:26Z</time>
      </trkpt>
      <trkpt lat="46.56182" lon="-1.81004">
        <ele>3.7</ele>
        <time>2020-06-03T14:44:27Z</time>
      </trkpt>
      <trkpt lat="46.56185" lon="-1.81001">
        <ele>3.7</ele>
        <time>2020-06-03T14:44:28Z</time>
      </trkpt>
      <trkpt lat="46.56188" lon="-1.80998">
        <ele>3.7</ele>
        <time>2020-06-03T14:44:29Z</time>
      </trkpt>
      <trkpt lat="46.56192" lon="-1.80995">
        <ele>3.7</ele>
        <time>2020-06-03T14:44:30Z</time>
      </trkpt>
      <trkpt lat="46.56195" lon="-1.80995">
        <ele>3.7</ele>
        <time>2020-06-03T14:44:31Z</time>
      </trkpt>
      <trkpt lat="46.56199" lon="-1.80992">
        <ele>3.7</ele>
        <time>2020-06-03T14:44:32Z</time>
      </trkpt>
      <trkpt lat="46.56203" lon="-1.80989">
        <ele>3.7</ele>
        <time>2020-06-03T14:44:33Z</time>
      </trkpt>
      <trkpt lat="46.56206" lon="-1.80988">
        <ele>3.7</ele>
        <time>2020-06-03T14:44:34Z</time>
      </trkpt>
      <trkpt lat="46.5621" lon="-1.80986">
        <ele>3.7</ele>
        <time>2020-06-03T14:44:35Z</time>
      </trkpt>
      <trkpt lat="46.56214" lon="-1.80985">
        <ele>3.7</ele>
        <time>2020-06-03T14:44:36Z</time>
      </trkpt>
      <trkpt lat="46.56218" lon="-1.80983">
        <ele>3.7</ele>
        <time>2020-06-03T14:44:37Z</time>
      </trkpt>
      <trkpt lat="46.56223" lon="-1.80983">
        <ele>3.8</ele>
        <time>2020-06-03T14:44:38Z</time>
      </trkpt>
      <trkpt lat="46.56228" lon="-1.80984">
        <ele>3.8</ele>
        <time>2020-06-03T14:44:39Z</time>
      </trkpt>
      <trkpt lat="46.56233" lon="-1.80984">
        <ele>3.8</ele>
        <time>2020-06-03T14:44:40Z</time>
      </trkpt>
      <trkpt lat="46.56238" lon="-1.80984">
        <ele>3.9</ele>
        <time>2020-06-03T14:44:41Z</time>
      </trkpt>
      <trkpt lat="46.56242" lon="-1.80984">
        <ele>3.9</ele>
        <time>2020-06-03T14:44:42Z</time>
      </trkpt>
      <trkpt lat="46.56248" lon="-1.80984">
        <ele>3.9</ele>
        <time>2020-06-03T14:44:43Z</time>
      </trkpt>
      <trkpt lat="46.56253" lon="-1.80985">
        <ele>3.9</ele>
        <time>2020-06-03T14:44:44Z</time>
      </trkpt>
      <trkpt lat="46.56258" lon="-1.80986">
        <ele>3.9</ele>
        <time>2020-06-03T14:44:45Z</time>
      </trkpt>
      <trkpt lat="46.56263" lon="-1.80986">
        <ele>4</ele>
        <time>2020-06-03T14:44:46Z</time>
      </trkpt>
      <trkpt lat="46.56269" lon="-1.80988">
        <ele>4</ele>
        <time>2020-06-03T14:44:47Z</time>
      </trkpt>
      <trkpt lat="46.56274" lon="-1.80988">
        <ele>4</ele>
        <time>2020-06-03T14:44:48Z</time>
      </trkpt>
      <trkpt lat="46.5628" lon="-1.80988">
        <ele>4</ele>
        <time>2020-06-03T14:44:49Z</time>
      </trkpt>
      <trkpt lat="46.56285" lon="-1.80989">
        <ele>4</ele>
        <time>2020-06-03T14:44:50Z</time>
      </trkpt>
      <trkpt lat="46.56291" lon="-1.80988">
        <ele>4</ele>
        <time>2020-06-03T14:44:51Z</time>
      </trkpt>
      <trkpt lat="46.56296" lon="-1.80988">
        <ele>3.9</ele>
        <time>2020-06-03T14:44:52Z</time>
      </trkpt>
      <trkpt lat="46.56301" lon="-1.80988">
        <ele>3.9</ele>
        <time>2020-06-03T14:44:53Z</time>
      </trkpt>
      <trkpt lat="46.56306" lon="-1.80988">
        <ele>3.8</ele>
        <time>2020-06-03T14:44:54Z</time>
      </trkpt>
      <trkpt lat="46.56311" lon="-1.80989">
        <ele>3.8</ele>
        <time>2020-06-03T14:44:55Z</time>
      </trkpt>
      <trkpt lat="46.56316" lon="-1.8099">
        <ele>3.8</ele>
        <time>2020-06-03T14:44:56Z</time>
      </trkpt>
      <trkpt lat="46.56321" lon="-1.8099">
        <ele>3.7</ele>
        <time>2020-06-03T14:44:57Z</time>
      </trkpt>
      <trkpt lat="46.56327" lon="-1.80991">
        <ele>3.7</ele>
        <time>2020-06-03T14:44:58Z</time>
      </trkpt>
      <trkpt lat="46.56332" lon="-1.80993">
        <ele>3.6</ele>
        <time>2020-06-03T14:44:59Z</time>
      </trkpt>
      <trkpt lat="46.56336" lon="-1.80996">
        <ele>3.6</ele>
        <time>2020-06-03T14:45:00Z</time>
      </trkpt>
      <trkpt lat="46.56339" lon="-1.81002">
        <ele>3.6</ele>
        <time>2020-06-03T14:45:01Z</time>
      </trkpt>
      <trkpt lat="46.56342" lon="-1.81008">
        <ele>3.6</ele>
        <time>2020-06-03T14:45:02Z</time>
      </trkpt>
      <trkpt lat="46.56344" lon="-1.81013">
        <ele>3.6</ele>
        <time>2020-06-03T14:45:03Z</time>
      </trkpt>
      <trkpt lat="46.56346" lon="-1.81019">
        <ele>3.6</ele>
        <time>2020-06-03T14:45:04Z</time>
      </trkpt>
      <trkpt lat="46.56348" lon="-1.81025">
        <ele>3.6</ele>
        <time>2020-06-03T14:45:05Z</time>
      </trkpt>
      <trkpt lat="46.56349" lon="-1.81028">
        <ele>3.6</ele>
        <time>2020-06-03T14:45:06Z</time>
      </trkpt>
      <trkpt lat="46.56351" lon="-1.81033">
        <ele>3.6</ele>
        <time>2020-06-03T14:45:07Z</time>
      </trkpt>
      <trkpt lat="46.56353" lon="-1.81038">
        <ele>3.6</ele>
        <time>2020-06-03T14:45:08Z</time>
      </trkpt>
      <trkpt lat="46.56355" lon="-1.81042">
        <ele>3.6</ele>
        <time>2020-06-03T14:45:09Z</time>
      </trkpt>
      <trkpt lat="46.56357" lon="-1.81046">
        <ele>3.6</ele>
        <time>2020-06-03T14:45:10Z</time>
      </trkpt>
      <trkpt lat="46.56358" lon="-1.81048">
        <ele>3.6</ele>
        <time>2020-06-03T14:45:11Z</time>
      </trkpt>
      <trkpt lat="46.56359" lon="-1.81051">
        <ele>3.6</ele>
        <time>2020-06-03T14:45:12Z</time>
      </trkpt>
      <trkpt lat="46.56361" lon="-1.81057">
        <ele>3.7</ele>
        <time>2020-06-03T14:45:13Z</time>
      </trkpt>
      <trkpt lat="46.56361" lon="-1.81059">
        <ele>3.7</ele>
        <time>2020-06-03T14:45:14Z</time>
      </trkpt>
      <trkpt lat="46.56362" lon="-1.81064">
        <ele>3.7</ele>
        <time>2020-06-03T14:45:15Z</time>
      </trkpt>
      <trkpt lat="46.56364" lon="-1.81069">
        <ele>3.8</ele>
        <time>2020-06-03T14:45:16Z</time>
      </trkpt>
      <trkpt lat="46.56366" lon="-1.81074">
        <ele>3.8</ele>
        <time>2020-06-03T14:45:17Z</time>
      </trkpt>
      <trkpt lat="46.56367" lon="-1.8108">
        <ele>3.8</ele>
        <time>2020-06-03T14:45:18Z</time>
      </trkpt>
      <trkpt lat="46.56368" lon="-1.81084">
        <ele>3.8</ele>
        <time>2020-06-03T14:45:19Z</time>
      </trkpt>
      <trkpt lat="46.56371" lon="-1.81091">
        <ele>3.9</ele>
        <time>2020-06-03T14:45:20Z</time>
      </trkpt>
      <trkpt lat="46.56372" lon="-1.81097">
        <ele>3.9</ele>
        <time>2020-06-03T14:45:21Z</time>
      </trkpt>
      <trkpt lat="46.56374" lon="-1.81103">
        <ele>3.9</ele>
        <time>2020-06-03T14:45:22Z</time>
      </trkpt>
      <trkpt lat="46.56377" lon="-1.8111">
        <ele>3.8</ele>
        <time>2020-06-03T14:45:23Z</time>
      </trkpt>
      <trkpt lat="46.5638" lon="-1.81116">
        <ele>3.8</ele>
        <time>2020-06-03T14:45:24Z</time>
      </trkpt>
      <trkpt lat="46.56382" lon="-1.81122">
        <ele>3.8</ele>
        <time>2020-06-03T14:45:25Z</time>
      </trkpt>
      <trkpt lat="46.56385" lon="-1.81129">
        <ele>3.7</ele>
        <time>2020-06-03T14:45:26Z</time>
      </trkpt>
      <trkpt lat="46.56388" lon="-1.81135">
        <ele>3.7</ele>
        <time>2020-06-03T14:45:27Z</time>
      </trkpt>
      <trkpt lat="46.56391" lon="-1.81141">
        <ele>3.7</ele>
        <time>2020-06-03T14:45:28Z</time>
      </trkpt>
      <trkpt lat="46.56394" lon="-1.81147">
        <ele>3.7</ele>
        <time>2020-06-03T14:45:29Z</time>
      </trkpt>
      <trkpt lat="46.56397" lon="-1.81154">
        <ele>3.6</ele>
        <time>2020-06-03T14:45:30Z</time>
      </trkpt>
      <trkpt lat="46.564" lon="-1.8116">
        <ele>3.6</ele>
        <time>2020-06-03T14:45:31Z</time>
      </trkpt>
      <trkpt lat="46.56402" lon="-1.81164">
        <ele>3.6</ele>
        <time>2020-06-03T14:45:32Z</time>
      </trkpt>
      <trkpt lat="46.56404" lon="-1.81169">
        <ele>3.6</ele>
        <time>2020-06-03T14:45:33Z</time>
      </trkpt>
      <trkpt lat="46.56406" lon="-1.81173">
        <ele>3.6</ele>
        <time>2020-06-03T14:45:34Z</time>
      </trkpt>
      <trkpt lat="46.5641" lon="-1.81177">
        <ele>3.6</ele>
        <time>2020-06-03T14:45:35Z</time>
      </trkpt>
      <trkpt lat="46.56414" lon="-1.81181">
        <ele>3.6</ele>
        <time>2020-06-03T14:45:36Z</time>
      </trkpt>
      <trkpt lat="46.56417" lon="-1.81185">
        <ele>3.5</ele>
        <time>2020-06-03T14:45:37Z</time>
      </trkpt>
      <trkpt lat="46.56421" lon="-1.81188">
        <ele>3.5</ele>
        <time>2020-06-03T14:45:38Z</time>
      </trkpt>
      <trkpt lat="46.56425" lon="-1.81192">
        <ele>3.5</ele>
        <time>2020-06-03T14:45:39Z</time>
      </trkpt>
      <trkpt lat="46.56429" lon="-1.81196">
        <ele>3.5</ele>
        <time>2020-06-03T14:45:40Z</time>
      </trkpt>
      <trkpt lat="46.56434" lon="-1.812">
        <ele>3.5</ele>
        <time>2020-06-03T14:45:41Z</time>
      </trkpt>
      <trkpt lat="46.56438" lon="-1.81204">
        <ele>3.5</ele>
        <time>2020-06-03T14:45:42Z</time>
      </trkpt>
      <trkpt lat="46.56442" lon="-1.81209">
        <ele>3.6</ele>
        <time>2020-06-03T14:45:43Z</time>
      </trkpt>
      <trkpt lat="46.56446" lon="-1.81215">
        <ele>3.6</ele>
        <time>2020-06-03T14:45:44Z</time>
      </trkpt>
      <trkpt lat="46.5645" lon="-1.8122">
        <ele>3.6</ele>
        <time>2020-06-03T14:45:45Z</time>
      </trkpt>
      <trkpt lat="46.56455" lon="-1.81225">
        <ele>3.6</ele>
        <time>2020-06-03T14:45:46Z</time>
      </trkpt>
      <trkpt lat="46.56458" lon="-1.81229">
        <ele>3.6</ele>
        <time>2020-06-03T14:45:47Z</time>
      </trkpt>
      <trkpt lat="46.56463" lon="-1.81234">
        <ele>3.6</ele>
        <time>2020-06-03T14:45:48Z</time>
      </trkpt>
      <trkpt lat="46.56467" lon="-1.81238">
        <ele>3.6</ele>
        <time>2020-06-03T14:45:49Z</time>
      </trkpt>
      <trkpt lat="46.56471" lon="-1.81245">
        <ele>3.6</ele>
        <time>2020-06-03T14:45:50Z</time>
      </trkpt>
      <trkpt lat="46.56475" lon="-1.8125">
        <ele>3.6</ele>
        <time>2020-06-03T14:45:51Z</time>
      </trkpt>
      <trkpt lat="46.56477" lon="-1.81254">
        <ele>3.6</ele>
        <time>2020-06-03T14:45:52Z</time>
      </trkpt>
      <trkpt lat="46.56479" lon="-1.81259">
        <ele>3.6</ele>
        <time>2020-06-03T14:45:53Z</time>
      </trkpt>
      <trkpt lat="46.56482" lon="-1.81264">
        <ele>3.6</ele>
        <time>2020-06-03T14:45:54Z</time>
      </trkpt>
      <trkpt lat="46.56484" lon="-1.81268">
        <ele>3.6</ele>
        <time>2020-06-03T14:45:55Z</time>
      </trkpt>
      <trkpt lat="46.56486" lon="-1.81273">
        <ele>3.6</ele>
        <time>2020-06-03T14:45:56Z</time>
      </trkpt>
      <trkpt lat="46.56489" lon="-1.81278">
        <ele>3.6</ele>
        <time>2020-06-03T14:45:57Z</time>
      </trkpt>
      <trkpt lat="46.56492" lon="-1.81283">
        <ele>3.6</ele>
        <time>2020-06-03T14:45:58Z</time>
      </trkpt>
      <trkpt lat="46.56494" lon="-1.81287">
        <ele>3.6</ele>
        <time>2020-06-03T14:45:59Z</time>
      </trkpt>
      <trkpt lat="46.56497" lon="-1.81291">
        <ele>3.6</ele>
        <time>2020-06-03T14:46:00Z</time>
      </trkpt>
      <trkpt lat="46.56498" lon="-1.81297">
        <ele>3.6</ele>
        <time>2020-06-03T14:46:01Z</time>
      </trkpt>
      <trkpt lat="46.565" lon="-1.81302">
        <ele>3.6</ele>
        <time>2020-06-03T14:46:02Z</time>
      </trkpt>
      <trkpt lat="46.56502" lon="-1.81306">
        <ele>3.6</ele>
        <time>2020-06-03T14:46:03Z</time>
      </trkpt>
      <trkpt lat="46.56506" lon="-1.81309">
        <ele>3.6</ele>
        <time>2020-06-03T14:46:04Z</time>
      </trkpt>
      <trkpt lat="46.56511" lon="-1.81311">
        <ele>3.6</ele>
        <time>2020-06-03T14:46:05Z</time>
      </trkpt>
      <trkpt lat="46.56516" lon="-1.81312">
        <ele>3.6</ele>
        <time>2020-06-03T14:46:06Z</time>
      </trkpt>
      <trkpt lat="46.5652" lon="-1.81313">
        <ele>3.6</ele>
        <time>2020-06-03T14:46:07Z</time>
      </trkpt>
      <trkpt lat="46.56524" lon="-1.81315">
        <ele>3.6</ele>
        <time>2020-06-03T14:46:08Z</time>
      </trkpt>
      <trkpt lat="46.56529" lon="-1.81317">
        <ele>3.6</ele>
        <time>2020-06-03T14:46:09Z</time>
      </trkpt>
      <trkpt lat="46.56534" lon="-1.81318">
        <ele>3.6</ele>
        <time>2020-06-03T14:46:10Z</time>
      </trkpt>
      <trkpt lat="46.56538" lon="-1.81322">
        <ele>3.6</ele>
        <time>2020-06-03T14:46:11Z</time>
      </trkpt>
      <trkpt lat="46.56543" lon="-1.81325">
        <ele>3.6</ele>
        <time>2020-06-03T14:46:12Z</time>
      </trkpt>
      <trkpt lat="46.56548" lon="-1.81328">
        <ele>3.6</ele>
        <time>2020-06-03T14:46:13Z</time>
      </trkpt>
      <trkpt lat="46.56551" lon="-1.81331">
        <ele>3.6</ele>
        <time>2020-06-03T14:46:14Z</time>
      </trkpt>
      <trkpt lat="46.56555" lon="-1.81336">
        <ele>3.6</ele>
        <time>2020-06-03T14:46:15Z</time>
      </trkpt>
      <trkpt lat="46.5656" lon="-1.8134">
        <ele>3.6</ele>
        <time>2020-06-03T14:46:16Z</time>
      </trkpt>
      <trkpt lat="46.56563" lon="-1.81344">
        <ele>3.6</ele>
        <time>2020-06-03T14:46:17Z</time>
      </trkpt>
      <trkpt lat="46.56566" lon="-1.81347">
        <ele>3.6</ele>
        <time>2020-06-03T14:46:18Z</time>
      </trkpt>
      <trkpt lat="46.56569" lon="-1.8135">
        <ele>3.6</ele>
        <time>2020-06-03T14:46:19Z</time>
      </trkpt>
      <trkpt lat="46.56571" lon="-1.81355">
        <ele>3.6</ele>
        <time>2020-06-03T14:46:20Z</time>
      </trkpt>
      <trkpt lat="46.56573" lon="-1.81361">
        <ele>3.6</ele>
        <time>2020-06-03T14:46:21Z</time>
      </trkpt>
      <trkpt lat="46.56577" lon="-1.81367">
        <ele>3.6</ele>
        <time>2020-06-03T14:46:22Z</time>
      </trkpt>
      <trkpt lat="46.5658" lon="-1.81373">
        <ele>3.6</ele>
        <time>2020-06-03T14:46:23Z</time>
      </trkpt>
      <trkpt lat="46.56583" lon="-1.8138">
        <ele>3.6</ele>
        <time>2020-06-03T14:46:24Z</time>
      </trkpt>
      <trkpt lat="46.56586" lon="-1.81387">
        <ele>3.6</ele>
        <time>2020-06-03T14:46:25Z</time>
      </trkpt>
      <trkpt lat="46.56589" lon="-1.81393">
        <ele>3.6</ele>
        <time>2020-06-03T14:46:26Z</time>
      </trkpt>
      <trkpt lat="46.56592" lon="-1.814">
        <ele>3.6</ele>
        <time>2020-06-03T14:46:27Z</time>
      </trkpt>
      <trkpt lat="46.56594" lon="-1.81404">
        <ele>3.6</ele>
        <time>2020-06-03T14:46:28Z</time>
      </trkpt>
      <trkpt lat="46.56596" lon="-1.81408">
        <ele>3.6</ele>
        <time>2020-06-03T14:46:29Z</time>
      </trkpt>
      <trkpt lat="46.56598" lon="-1.81413">
        <ele>3.6</ele>
        <time>2020-06-03T14:46:30Z</time>
      </trkpt>
      <trkpt lat="46.56599" lon="-1.81418">
        <ele>3.6</ele>
        <time>2020-06-03T14:46:31Z</time>
      </trkpt>
      <trkpt lat="46.56601" lon="-1.81424">
        <ele>3.6</ele>
        <time>2020-06-03T14:46:32Z</time>
      </trkpt>
      <trkpt lat="46.56603" lon="-1.81428">
        <ele>3.6</ele>
        <time>2020-06-03T14:46:33Z</time>
      </trkpt>
      <trkpt lat="46.56605" lon="-1.81432">
        <ele>3.6</ele>
        <time>2020-06-03T14:46:34Z</time>
      </trkpt>
      <trkpt lat="46.56607" lon="-1.81436">
        <ele>3.6</ele>
        <time>2020-06-03T14:46:35Z</time>
      </trkpt>
      <trkpt lat="46.56608" lon="-1.81442">
        <ele>3.6</ele>
        <time>2020-06-03T14:46:36Z</time>
      </trkpt>
      <trkpt lat="46.5661" lon="-1.81446">
        <ele>3.6</ele>
        <time>2020-06-03T14:46:37Z</time>
      </trkpt>
      <trkpt lat="46.56612" lon="-1.81451">
        <ele>3.6</ele>
        <time>2020-06-03T14:46:38Z</time>
      </trkpt>
      <trkpt lat="46.56615" lon="-1.81456">
        <ele>3.6</ele>
        <time>2020-06-03T14:46:39Z</time>
      </trkpt>
      <trkpt lat="46.56617" lon="-1.8146">
        <ele>3.6</ele>
        <time>2020-06-03T14:46:40Z</time>
      </trkpt>
      <trkpt lat="46.5662" lon="-1.81465">
        <ele>3.6</ele>
        <time>2020-06-03T14:46:41Z</time>
      </trkpt>
      <trkpt lat="46.56622" lon="-1.8147">
        <ele>3.6</ele>
        <time>2020-06-03T14:46:42Z</time>
      </trkpt>
      <trkpt lat="46.56624" lon="-1.81474">
        <ele>3.6</ele>
        <time>2020-06-03T14:46:43Z</time>
      </trkpt>
      <trkpt lat="46.56627" lon="-1.81479">
        <ele>3.6</ele>
        <time>2020-06-03T14:46:44Z</time>
      </trkpt>
      <trkpt lat="46.56629" lon="-1.81485">
        <ele>3.6</ele>
        <time>2020-06-03T14:46:45Z</time>
      </trkpt>
      <trkpt lat="46.5663" lon="-1.8149">
        <ele>3.6</ele>
        <time>2020-06-03T14:46:46Z</time>
      </trkpt>
      <trkpt lat="46.56632" lon="-1.81496">
        <ele>3.7</ele>
        <time>2020-06-03T14:46:47Z</time>
      </trkpt>
      <trkpt lat="46.56634" lon="-1.81502">
        <ele>3.7</ele>
        <time>2020-06-03T14:46:48Z</time>
      </trkpt>
      <trkpt lat="46.56636" lon="-1.81508">
        <ele>3.7</ele>
        <time>2020-06-03T14:46:49Z</time>
      </trkpt>
      <trkpt lat="46.56637" lon="-1.81515">
        <ele>3.7</ele>
        <time>2020-06-03T14:46:50Z</time>
      </trkpt>
      <trkpt lat="46.56639" lon="-1.81521">
        <ele>3.7</ele>
        <time>2020-06-03T14:46:51Z</time>
      </trkpt>
      <trkpt lat="46.56641" lon="-1.81525">
        <ele>3.7</ele>
        <time>2020-06-03T14:46:52Z</time>
      </trkpt>
      <trkpt lat="46.56643" lon="-1.8153">
        <ele>3.7</ele>
        <time>2020-06-03T14:46:53Z</time>
      </trkpt>
      <trkpt lat="46.56645" lon="-1.81536">
        <ele>3.7</ele>
        <time>2020-06-03T14:46:54Z</time>
      </trkpt>
      <trkpt lat="46.56646" lon="-1.81543">
        <ele>3.7</ele>
        <time>2020-06-03T14:46:55Z</time>
      </trkpt>
      <trkpt lat="46.56648" lon="-1.81548">
        <ele>3.7</ele>
        <time>2020-06-03T14:46:56Z</time>
      </trkpt>
      <trkpt lat="46.56649" lon="-1.81553">
        <ele>3.7</ele>
        <time>2020-06-03T14:46:57Z</time>
      </trkpt>
      <trkpt lat="46.5665" lon="-1.81559">
        <ele>3.7</ele>
        <time>2020-06-03T14:46:58Z</time>
      </trkpt>
      <trkpt lat="46.56652" lon="-1.81563">
        <ele>3.7</ele>
        <time>2020-06-03T14:46:59Z</time>
      </trkpt>
      <trkpt lat="46.56653" lon="-1.81569">
        <ele>3.7</ele>
        <time>2020-06-03T14:47:00Z</time>
      </trkpt>
      <trkpt lat="46.56655" lon="-1.81577">
        <ele>3.8</ele>
        <time>2020-06-03T14:47:01Z</time>
      </trkpt>
      <trkpt lat="46.56657" lon="-1.81584">
        <ele>3.8</ele>
        <time>2020-06-03T14:47:02Z</time>
      </trkpt>
      <trkpt lat="46.5666" lon="-1.81591">
        <ele>3.8</ele>
        <time>2020-06-03T14:47:03Z</time>
      </trkpt>
      <trkpt lat="46.56662" lon="-1.81597">
        <ele>3.8</ele>
        <time>2020-06-03T14:47:04Z</time>
      </trkpt>
      <trkpt lat="46.56665" lon="-1.81604">
        <ele>3.7</ele>
        <time>2020-06-03T14:47:05Z</time>
      </trkpt>
      <trkpt lat="46.56666" lon="-1.81608">
        <ele>3.7</ele>
        <time>2020-06-03T14:47:06Z</time>
      </trkpt>
      <trkpt lat="46.56667" lon="-1.81613">
        <ele>3.7</ele>
        <time>2020-06-03T14:47:07Z</time>
      </trkpt>
      <trkpt lat="46.56668" lon="-1.81615">
        <ele>3.7</ele>
        <time>2020-06-03T14:47:08Z</time>
      </trkpt>
      <trkpt lat="46.56671" lon="-1.81618">
        <ele>3.7</ele>
        <time>2020-06-03T14:47:09Z</time>
      </trkpt>
      <trkpt lat="46.56673" lon="-1.81622">
        <ele>3.7</ele>
        <time>2020-06-03T14:47:10Z</time>
      </trkpt>
      <trkpt lat="46.56676" lon="-1.81626">
        <ele>3.7</ele>
        <time>2020-06-03T14:47:11Z</time>
      </trkpt>
      <trkpt lat="46.56678" lon="-1.81631">
        <ele>3.7</ele>
        <time>2020-06-03T14:47:12Z</time>
      </trkpt>
      <trkpt lat="46.5668" lon="-1.81635">
        <ele>3.8</ele>
        <time>2020-06-03T14:47:13Z</time>
      </trkpt>
      <trkpt lat="46.56682" lon="-1.81639">
        <ele>3.8</ele>
        <time>2020-06-03T14:47:14Z</time>
      </trkpt>
      <trkpt lat="46.56683" lon="-1.81642">
        <ele>3.8</ele>
        <time>2020-06-03T14:47:15Z</time>
      </trkpt>
      <trkpt lat="46.56685" lon="-1.81646">
        <ele>3.8</ele>
        <time>2020-06-03T14:47:16Z</time>
      </trkpt>
      <trkpt lat="46.56685" lon="-1.81648">
        <ele>3.8</ele>
        <time>2020-06-03T14:47:17Z</time>
      </trkpt>
      <trkpt lat="46.56687" lon="-1.81652">
        <ele>3.8</ele>
        <time>2020-06-03T14:47:18Z</time>
      </trkpt>
      <trkpt lat="46.56687" lon="-1.81654">
        <ele>3.8</ele>
        <time>2020-06-03T14:47:19Z</time>
      </trkpt>
      <trkpt lat="46.56689" lon="-1.81658">
        <ele>3.9</ele>
        <time>2020-06-03T14:47:20Z</time>
      </trkpt>
      <trkpt lat="46.56691" lon="-1.81661">
        <ele>3.9</ele>
        <time>2020-06-03T14:47:21Z</time>
      </trkpt>
      <trkpt lat="46.56693" lon="-1.81664">
        <ele>3.9</ele>
        <time>2020-06-03T14:47:22Z</time>
      </trkpt>
      <trkpt lat="46.56695" lon="-1.81667">
        <ele>3.9</ele>
        <time>2020-06-03T14:47:23Z</time>
      </trkpt>
      <trkpt lat="46.56698" lon="-1.81671">
        <ele>4</ele>
        <time>2020-06-03T14:47:24Z</time>
      </trkpt>
      <trkpt lat="46.56699" lon="-1.81673">
        <ele>4</ele>
        <time>2020-06-03T14:47:25Z</time>
      </trkpt>
      <trkpt lat="46.567" lon="-1.81677">
        <ele>4</ele>
        <time>2020-06-03T14:47:26Z</time>
      </trkpt>
      <trkpt lat="46.56702" lon="-1.81682">
        <ele>4</ele>
        <time>2020-06-03T14:47:27Z</time>
      </trkpt>
      <trkpt lat="46.56708" lon="-1.81689">
        <ele>4.1</ele>
        <time>2020-06-03T14:47:28Z</time>
      </trkpt>
      <trkpt lat="46.56711" lon="-1.81693">
        <ele>4.1</ele>
        <time>2020-06-03T14:47:29Z</time>
      </trkpt>
      <trkpt lat="46.56715" lon="-1.81698">
        <ele>4.1</ele>
        <time>2020-06-03T14:47:30Z</time>
      </trkpt>
      <trkpt lat="46.56718" lon="-1.81705">
        <ele>4.2</ele>
        <time>2020-06-03T14:47:31Z</time>
      </trkpt>
      <trkpt lat="46.56721" lon="-1.81709">
        <ele>4.2</ele>
        <time>2020-06-03T14:47:32Z</time>
      </trkpt>
      <trkpt lat="46.56725" lon="-1.81711">
        <ele>4.2</ele>
        <time>2020-06-03T14:47:33Z</time>
      </trkpt>
      <trkpt lat="46.56728" lon="-1.81714">
        <ele>4.2</ele>
        <time>2020-06-03T14:47:34Z</time>
      </trkpt>
      <trkpt lat="46.5673" lon="-1.81717">
        <ele>4.2</ele>
        <time>2020-06-03T14:47:35Z</time>
      </trkpt>
      <trkpt lat="46.56732" lon="-1.81722">
        <ele>4.2</ele>
        <time>2020-06-03T14:47:36Z</time>
      </trkpt>
      <trkpt lat="46.56733" lon="-1.81724">
        <ele>4.2</ele>
        <time>2020-06-03T14:47:37Z</time>
      </trkpt>
      <trkpt lat="46.56736" lon="-1.81727">
        <ele>4.2</ele>
        <time>2020-06-03T14:47:38Z</time>
      </trkpt>
      <trkpt lat="46.56738" lon="-1.81731">
        <ele>4.2</ele>
        <time>2020-06-03T14:47:39Z</time>
      </trkpt>
      <trkpt lat="46.56742" lon="-1.81734">
        <ele>4.2</ele>
        <time>2020-06-03T14:47:40Z</time>
      </trkpt>
      <trkpt lat="46.56745" lon="-1.81738">
        <ele>4.2</ele>
        <time>2020-06-03T14:47:41Z</time>
      </trkpt>
      <trkpt lat="46.56748" lon="-1.81739">
        <ele>4.2</ele>
        <time>2020-06-03T14:47:42Z</time>
      </trkpt>
      <trkpt lat="46.56751" lon="-1.81742">
        <ele>4.2</ele>
        <time>2020-06-03T14:47:43Z</time>
      </trkpt>
      <trkpt lat="46.56754" lon="-1.81746">
        <ele>4.3</ele>
        <time>2020-06-03T14:47:44Z</time>
      </trkpt>
      <trkpt lat="46.56757" lon="-1.8175">
        <ele>4.3</ele>
        <time>2020-06-03T14:47:45Z</time>
      </trkpt>
      <trkpt lat="46.5676" lon="-1.81756">
        <ele>4.3</ele>
        <time>2020-06-03T14:47:46Z</time>
      </trkpt>
      <trkpt lat="46.56762" lon="-1.8176">
        <ele>4.3</ele>
        <time>2020-06-03T14:47:47Z</time>
      </trkpt>
      <trkpt lat="46.56764" lon="-1.81767">
        <ele>4.3</ele>
        <time>2020-06-03T14:47:48Z</time>
      </trkpt>
      <trkpt lat="46.56767" lon="-1.81772">
        <ele>4.3</ele>
        <time>2020-06-03T14:47:49Z</time>
      </trkpt>
      <trkpt lat="46.56769" lon="-1.81778">
        <ele>4.3</ele>
        <time>2020-06-03T14:47:50Z</time>
      </trkpt>
      <trkpt lat="46.56773" lon="-1.81783">
        <ele>4.3</ele>
        <time>2020-06-03T14:47:51Z</time>
      </trkpt>
      <trkpt lat="46.56777" lon="-1.81791">
        <ele>4.3</ele>
        <time>2020-06-03T14:47:52Z</time>
      </trkpt>
      <trkpt lat="46.5678" lon="-1.81799">
        <ele>4.3</ele>
        <time>2020-06-03T14:47:53Z</time>
      </trkpt>
      <trkpt lat="46.56783" lon="-1.81806">
        <ele>4.3</ele>
        <time>2020-06-03T14:47:54Z</time>
      </trkpt>
      <trkpt lat="46.56786" lon="-1.81813">
        <ele>4.2</ele>
        <time>2020-06-03T14:47:55Z</time>
      </trkpt>
      <trkpt lat="46.56788" lon="-1.81819">
        <ele>4.2</ele>
        <time>2020-06-03T14:47:56Z</time>
      </trkpt>
      <trkpt lat="46.5679" lon="-1.81824">
        <ele>4.2</ele>
        <time>2020-06-03T14:47:57Z</time>
      </trkpt>
      <trkpt lat="46.56792" lon="-1.81832">
        <ele>4.2</ele>
        <time>2020-06-03T14:47:58Z</time>
      </trkpt>
      <trkpt lat="46.56793" lon="-1.81838">
        <ele>4.3</ele>
        <time>2020-06-03T14:47:59Z</time>
      </trkpt>
      <trkpt lat="46.56795" lon="-1.81845">
        <ele>4.4</ele>
        <time>2020-06-03T14:48:00Z</time>
      </trkpt>
      <trkpt lat="46.56796" lon="-1.81851">
        <ele>4.6</ele>
        <time>2020-06-03T14:48:01Z</time>
      </trkpt>
      <trkpt lat="46.56796" lon="-1.81856">
        <ele>4.7</ele>
        <time>2020-06-03T14:48:02Z</time>
      </trkpt>
      <trkpt lat="46.56798" lon="-1.81861">
        <ele>4.8</ele>
        <time>2020-06-03T14:48:03Z</time>
      </trkpt>
      <trkpt lat="46.56799" lon="-1.81866">
        <ele>4.8</ele>
        <time>2020-06-03T14:48:04Z</time>
      </trkpt>
      <trkpt lat="46.568" lon="-1.81872">
        <ele>5</ele>
        <time>2020-06-03T14:48:05Z</time>
      </trkpt>
      <trkpt lat="46.56801" lon="-1.81877">
        <ele>5</ele>
        <time>2020-06-03T14:48:06Z</time>
      </trkpt>
      <trkpt lat="46.56803" lon="-1.81882">
        <ele>5.1</ele>
        <time>2020-06-03T14:48:07Z</time>
      </trkpt>
      <trkpt lat="46.56804" lon="-1.81888">
        <ele>5.1</ele>
        <time>2020-06-03T14:48:08Z</time>
      </trkpt>
      <trkpt lat="46.56806" lon="-1.81894">
        <ele>5.2</ele>
        <time>2020-06-03T14:48:09Z</time>
      </trkpt>
      <trkpt lat="46.56807" lon="-1.819">
        <ele>5.3</ele>
        <time>2020-06-03T14:48:10Z</time>
      </trkpt>
      <trkpt lat="46.56808" lon="-1.81906">
        <ele>5.5</ele>
        <time>2020-06-03T14:48:11Z</time>
      </trkpt>
      <trkpt lat="46.56809" lon="-1.81913">
        <ele>5.6</ele>
        <time>2020-06-03T14:48:12Z</time>
      </trkpt>
      <trkpt lat="46.5681" lon="-1.81918">
        <ele>5.7</ele>
        <time>2020-06-03T14:48:13Z</time>
      </trkpt>
      <trkpt lat="46.5681" lon="-1.81925">
        <ele>5.9</ele>
        <time>2020-06-03T14:48:14Z</time>
      </trkpt>
      <trkpt lat="46.56811" lon="-1.8193">
        <ele>6</ele>
        <time>2020-06-03T14:48:15Z</time>
      </trkpt>
      <trkpt lat="46.56811" lon="-1.81936">
        <ele>6.2</ele>
        <time>2020-06-03T14:48:16Z</time>
      </trkpt>
      <trkpt lat="46.56811" lon="-1.81942">
        <ele>6.4</ele>
        <time>2020-06-03T14:48:17Z</time>
      </trkpt>
      <trkpt lat="46.56813" lon="-1.81949">
        <ele>6.6</ele>
        <time>2020-06-03T14:48:18Z</time>
      </trkpt>
      <trkpt lat="46.56816" lon="-1.81957">
        <ele>6.9</ele>
        <time>2020-06-03T14:48:19Z</time>
      </trkpt>
      <trkpt lat="46.56816" lon="-1.81962">
        <ele>7.1</ele>
        <time>2020-06-03T14:48:20Z</time>
      </trkpt>
      <trkpt lat="46.56816" lon="-1.81969">
        <ele>7.3</ele>
        <time>2020-06-03T14:48:21Z</time>
      </trkpt>
      <trkpt lat="46.56818" lon="-1.81974">
        <ele>7.5</ele>
        <time>2020-06-03T14:48:22Z</time>
      </trkpt>
      <trkpt lat="46.56819" lon="-1.81979">
        <ele>7.8</ele>
        <time>2020-06-03T14:48:23Z</time>
      </trkpt>
      <trkpt lat="46.56819" lon="-1.81983">
        <ele>8.1</ele>
        <time>2020-06-03T14:48:24Z</time>
      </trkpt>
      <trkpt lat="46.5682" lon="-1.81987">
        <ele>8.1</ele>
        <time>2020-06-03T14:48:25Z</time>
      </trkpt>
      <trkpt lat="46.56822" lon="-1.8199">
        <ele>8.2</ele>
        <time>2020-06-03T14:48:26Z</time>
      </trkpt>
      <trkpt lat="46.56825" lon="-1.81993">
        <ele>8.3</ele>
        <time>2020-06-03T14:48:27Z</time>
      </trkpt>
      <trkpt lat="46.56826" lon="-1.81997">
        <ele>8.5</ele>
        <time>2020-06-03T14:48:28Z</time>
      </trkpt>
      <trkpt lat="46.56829" lon="-1.82">
        <ele>8.4</ele>
        <time>2020-06-03T14:48:29Z</time>
      </trkpt>
      <trkpt lat="46.56833" lon="-1.82003">
        <ele>8.5</ele>
        <time>2020-06-03T14:48:30Z</time>
      </trkpt>
      <trkpt lat="46.56837" lon="-1.82007">
        <ele>8.4</ele>
        <time>2020-06-03T14:48:31Z</time>
      </trkpt>
      <trkpt lat="46.5684" lon="-1.8201">
        <ele>8.4</ele>
        <time>2020-06-03T14:48:32Z</time>
      </trkpt>
      <trkpt lat="46.56843" lon="-1.82013">
        <ele>8.4</ele>
        <time>2020-06-03T14:48:33Z</time>
      </trkpt>
      <trkpt lat="46.56846" lon="-1.82012">
        <ele>8.3</ele>
        <time>2020-06-03T14:48:34Z</time>
      </trkpt>
      <trkpt lat="46.5685" lon="-1.82013">
        <ele>8.3</ele>
        <time>2020-06-03T14:48:35Z</time>
      </trkpt>
      <trkpt lat="46.56852" lon="-1.82013">
        <ele>8.2</ele>
        <time>2020-06-03T14:48:36Z</time>
      </trkpt>
      <trkpt lat="46.56853" lon="-1.82013">
        <ele>8.3</ele>
        <time>2020-06-03T14:48:37Z</time>
      </trkpt>
      <trkpt lat="46.56856" lon="-1.82012">
        <ele>8.1</ele>
        <time>2020-06-03T14:48:38Z</time>
      </trkpt>
      <trkpt lat="46.56857" lon="-1.82012">
        <ele>8</ele>
        <time>2020-06-03T14:48:39Z</time>
      </trkpt>
      <trkpt lat="46.5686" lon="-1.82009">
        <ele>7.9</ele>
        <time>2020-06-03T14:48:40Z</time>
      </trkpt>
      <trkpt lat="46.56861" lon="-1.82007">
        <ele>7.9</ele>
        <time>2020-06-03T14:48:41Z</time>
      </trkpt>
      <trkpt lat="46.56863" lon="-1.82001">
        <ele>7.8</ele>
        <time>2020-06-03T14:48:42Z</time>
      </trkpt>
      <trkpt lat="46.56865" lon="-1.81997">
        <ele>7.7</ele>
        <time>2020-06-03T14:48:43Z</time>
      </trkpt>
      <trkpt lat="46.56867" lon="-1.81993">
        <ele>7.6</ele>
        <time>2020-06-03T14:48:44Z</time>
      </trkpt>
      <trkpt lat="46.56869" lon="-1.81989">
        <ele>7.4</ele>
        <time>2020-06-03T14:48:45Z</time>
      </trkpt>
      <trkpt lat="46.5687" lon="-1.81988">
        <ele>7.4</ele>
        <time>2020-06-03T14:48:46Z</time>
      </trkpt>
      <trkpt lat="46.56872" lon="-1.81984">
        <ele>7.2</ele>
        <time>2020-06-03T14:48:47Z</time>
      </trkpt>
      <trkpt lat="46.56873" lon="-1.8198">
        <ele>7.1</ele>
        <time>2020-06-03T14:48:48Z</time>
      </trkpt>
      <trkpt lat="46.56877" lon="-1.81975">
        <ele>6.8</ele>
        <time>2020-06-03T14:48:49Z</time>
      </trkpt>
      <trkpt lat="46.56879" lon="-1.81971">
        <ele>6.5</ele>
        <time>2020-06-03T14:48:50Z</time>
      </trkpt>
      <trkpt lat="46.56883" lon="-1.81966">
        <ele>6.2</ele>
        <time>2020-06-03T14:48:51Z</time>
      </trkpt>
      <trkpt lat="46.56887" lon="-1.8196">
        <ele>5.4</ele>
        <time>2020-06-03T14:48:52Z</time>
      </trkpt>
      <trkpt lat="46.5689" lon="-1.81955">
        <ele>5</ele>
        <time>2020-06-03T14:48:53Z</time>
      </trkpt>
      <trkpt lat="46.56893" lon="-1.81949">
        <ele>4.7</ele>
        <time>2020-06-03T14:48:54Z</time>
      </trkpt>
      <trkpt lat="46.56896" lon="-1.81944">
        <ele>4.4</ele>
        <time>2020-06-03T14:48:55Z</time>
      </trkpt>
      <trkpt lat="46.569" lon="-1.81938">
        <ele>3.9</ele>
        <time>2020-06-03T14:48:56Z</time>
      </trkpt>
      <trkpt lat="46.56904" lon="-1.81933">
        <ele>3.6</ele>
        <time>2020-06-03T14:48:57Z</time>
      </trkpt>
      <trkpt lat="46.56909" lon="-1.81926">
        <ele>3.3</ele>
        <time>2020-06-03T14:48:58Z</time>
      </trkpt>
      <trkpt lat="46.56913" lon="-1.8192">
        <ele>3.2</ele>
        <time>2020-06-03T14:48:59Z</time>
      </trkpt>
      <trkpt lat="46.56918" lon="-1.81916">
        <ele>3.1</ele>
        <time>2020-06-03T14:49:00Z</time>
      </trkpt>
      <trkpt lat="46.56923" lon="-1.81911">
        <ele>3.2</ele>
        <time>2020-06-03T14:49:01Z</time>
      </trkpt>
      <trkpt lat="46.56928" lon="-1.81906">
        <ele>3.5</ele>
        <time>2020-06-03T14:49:02Z</time>
      </trkpt>
      <trkpt lat="46.56937" lon="-1.81901">
        <ele>3.8</ele>
        <time>2020-06-03T14:49:03Z</time>
      </trkpt>
      <trkpt lat="46.56945" lon="-1.81896">
        <ele>3.8</ele>
        <time>2020-06-03T14:49:04Z</time>
      </trkpt>
      <trkpt lat="46.56953" lon="-1.8189">
        <ele>3.8</ele>
        <time>2020-06-03T14:49:05Z</time>
      </trkpt>
      <trkpt lat="46.56963" lon="-1.81883">
        <ele>3.8</ele>
        <time>2020-06-03T14:49:06Z</time>
      </trkpt>
      <trkpt lat="46.5697" lon="-1.81878">
        <ele>3.8</ele>
        <time>2020-06-03T14:49:07Z</time>
      </trkpt>
      <trkpt lat="46.56975" lon="-1.81873">
        <ele>3.8</ele>
        <time>2020-06-03T14:49:08Z</time>
      </trkpt>
      <trkpt lat="46.56981" lon="-1.8187">
        <ele>3.8</ele>
        <time>2020-06-03T14:49:09Z</time>
      </trkpt>
      <trkpt lat="46.56986" lon="-1.81866">
        <ele>3.8</ele>
        <time>2020-06-03T14:49:10Z</time>
      </trkpt>
      <trkpt lat="46.56991" lon="-1.81864">
        <ele>3.8</ele>
        <time>2020-06-03T14:49:11Z</time>
      </trkpt>
      <trkpt lat="46.56997" lon="-1.81862">
        <ele>3.8</ele>
        <time>2020-06-03T14:49:12Z</time>
      </trkpt>
      <trkpt lat="46.57002" lon="-1.81862">
        <ele>3.8</ele>
        <time>2020-06-03T14:49:13Z</time>
      </trkpt>
      <trkpt lat="46.57007" lon="-1.81861">
        <ele>3.8</ele>
        <time>2020-06-03T14:49:14Z</time>
      </trkpt>
      <trkpt lat="46.57011" lon="-1.8186">
        <ele>3.8</ele>
        <time>2020-06-03T14:49:15Z</time>
      </trkpt>
      <trkpt lat="46.57015" lon="-1.81858">
        <ele>3.8</ele>
        <time>2020-06-03T14:49:16Z</time>
      </trkpt>
      <trkpt lat="46.57018" lon="-1.81857">
        <ele>3.8</ele>
        <time>2020-06-03T14:49:17Z</time>
      </trkpt>
      <trkpt lat="46.57021" lon="-1.81856">
        <ele>3.8</ele>
        <time>2020-06-03T14:49:18Z</time>
      </trkpt>
      <trkpt lat="46.57025" lon="-1.81855">
        <ele>3.8</ele>
        <time>2020-06-03T14:49:19Z</time>
      </trkpt>
      <trkpt lat="46.57029" lon="-1.81853">
        <ele>3.8</ele>
        <time>2020-06-03T14:49:20Z</time>
      </trkpt>
      <trkpt lat="46.57033" lon="-1.81852">
        <ele>3.8</ele>
        <time>2020-06-03T14:49:21Z</time>
      </trkpt>
      <trkpt lat="46.57037" lon="-1.81851">
        <ele>3.8</ele>
        <time>2020-06-03T14:49:22Z</time>
      </trkpt>
      <trkpt lat="46.57042" lon="-1.81852">
        <ele>3.8</ele>
        <time>2020-06-03T14:49:23Z</time>
      </trkpt>
      <trkpt lat="46.57047" lon="-1.81852">
        <ele>3.8</ele>
        <time>2020-06-03T14:49:24Z</time>
      </trkpt>
      <trkpt lat="46.57052" lon="-1.81852">
        <ele>3.8</ele>
        <time>2020-06-03T14:49:25Z</time>
      </trkpt>
      <trkpt lat="46.57056" lon="-1.81853">
        <ele>3.8</ele>
        <time>2020-06-03T14:49:26Z</time>
      </trkpt>
      <trkpt lat="46.5706" lon="-1.81853">
        <ele>3.9</ele>
        <time>2020-06-03T14:49:27Z</time>
      </trkpt>
      <trkpt lat="46.57064" lon="-1.81854">
        <ele>3.9</ele>
        <time>2020-06-03T14:49:28Z</time>
      </trkpt>
      <trkpt lat="46.57069" lon="-1.81855">
        <ele>3.9</ele>
        <time>2020-06-03T14:49:29Z</time>
      </trkpt>
      <trkpt lat="46.57073" lon="-1.81855">
        <ele>3.9</ele>
        <time>2020-06-03T14:49:30Z</time>
      </trkpt>
      <trkpt lat="46.57078" lon="-1.81856">
        <ele>3.9</ele>
        <time>2020-06-03T14:49:31Z</time>
      </trkpt>
      <trkpt lat="46.57082" lon="-1.81858">
        <ele>3.9</ele>
        <time>2020-06-03T14:49:32Z</time>
      </trkpt>
      <trkpt lat="46.57085" lon="-1.81859">
        <ele>3.9</ele>
        <time>2020-06-03T14:49:33Z</time>
      </trkpt>
      <trkpt lat="46.5709" lon="-1.8186">
        <ele>3.9</ele>
        <time>2020-06-03T14:49:34Z</time>
      </trkpt>
      <trkpt lat="46.57094" lon="-1.81862">
        <ele>3.9</ele>
        <time>2020-06-03T14:49:35Z</time>
      </trkpt>
      <trkpt lat="46.57098" lon="-1.81865">
        <ele>3.9</ele>
        <time>2020-06-03T14:49:36Z</time>
      </trkpt>
      <trkpt lat="46.57102" lon="-1.81867">
        <ele>3.9</ele>
        <time>2020-06-03T14:49:37Z</time>
      </trkpt>
      <trkpt lat="46.57107" lon="-1.81868">
        <ele>3.9</ele>
        <time>2020-06-03T14:49:38Z</time>
      </trkpt>
      <trkpt lat="46.57111" lon="-1.8187">
        <ele>3.9</ele>
        <time>2020-06-03T14:49:39Z</time>
      </trkpt>
      <trkpt lat="46.57116" lon="-1.81872">
        <ele>3.9</ele>
        <time>2020-06-03T14:49:40Z</time>
      </trkpt>
      <trkpt lat="46.57121" lon="-1.81875">
        <ele>3.9</ele>
        <time>2020-06-03T14:49:41Z</time>
      </trkpt>
      <trkpt lat="46.57127" lon="-1.81878">
        <ele>3.9</ele>
        <time>2020-06-03T14:49:42Z</time>
      </trkpt>
      <trkpt lat="46.5713" lon="-1.8188">
        <ele>3.9</ele>
        <time>2020-06-03T14:49:43Z</time>
      </trkpt>
      <trkpt lat="46.57135" lon="-1.81882">
        <ele>3.9</ele>
        <time>2020-06-03T14:49:44Z</time>
      </trkpt>
      <trkpt lat="46.5714" lon="-1.81887">
        <ele>3.9</ele>
        <time>2020-06-03T14:49:45Z</time>
      </trkpt>
      <trkpt lat="46.57144" lon="-1.81891">
        <ele>3.8</ele>
        <time>2020-06-03T14:49:46Z</time>
      </trkpt>
      <trkpt lat="46.57148" lon="-1.81898">
        <ele>3.8</ele>
        <time>2020-06-03T14:49:47Z</time>
      </trkpt>
      <trkpt lat="46.57152" lon="-1.81904">
        <ele>3.8</ele>
        <time>2020-06-03T14:49:48Z</time>
      </trkpt>
      <trkpt lat="46.57154" lon="-1.8191">
        <ele>3.8</ele>
        <time>2020-06-03T14:49:49Z</time>
      </trkpt>
      <trkpt lat="46.57158" lon="-1.81917">
        <ele>3.7</ele>
        <time>2020-06-03T14:49:50Z</time>
      </trkpt>
      <trkpt lat="46.57161" lon="-1.81925">
        <ele>3.7</ele>
        <time>2020-06-03T14:49:51Z</time>
      </trkpt>
      <trkpt lat="46.57163" lon="-1.81931">
        <ele>3.7</ele>
        <time>2020-06-03T14:49:52Z</time>
      </trkpt>
      <trkpt lat="46.57165" lon="-1.81938">
        <ele>3.7</ele>
        <time>2020-06-03T14:49:53Z</time>
      </trkpt>
      <trkpt lat="46.57168" lon="-1.81945">
        <ele>3.7</ele>
        <time>2020-06-03T14:49:54Z</time>
      </trkpt>
      <trkpt lat="46.57171" lon="-1.81951">
        <ele>3.7</ele>
        <time>2020-06-03T14:49:55Z</time>
      </trkpt>
      <trkpt lat="46.57174" lon="-1.81957">
        <ele>3.7</ele>
        <time>2020-06-03T14:49:56Z</time>
      </trkpt>
      <trkpt lat="46.57176" lon="-1.81962">
        <ele>3.7</ele>
        <time>2020-06-03T14:49:57Z</time>
      </trkpt>
      <trkpt lat="46.57178" lon="-1.81968">
        <ele>3.7</ele>
        <time>2020-06-03T14:49:58Z</time>
      </trkpt>
      <trkpt lat="46.5718" lon="-1.81973">
        <ele>3.7</ele>
        <time>2020-06-03T14:49:59Z</time>
      </trkpt>
      <trkpt lat="46.57183" lon="-1.81979">
        <ele>3.7</ele>
        <time>2020-06-03T14:50:00Z</time>
      </trkpt>
      <trkpt lat="46.57185" lon="-1.81986">
        <ele>3.7</ele>
        <time>2020-06-03T14:50:01Z</time>
      </trkpt>
      <trkpt lat="46.57188" lon="-1.81992">
        <ele>3.8</ele>
        <time>2020-06-03T14:50:02Z</time>
      </trkpt>
      <trkpt lat="46.5719" lon="-1.81998">
        <ele>3.8</ele>
        <time>2020-06-03T14:50:03Z</time>
      </trkpt>
      <trkpt lat="46.57193" lon="-1.82005">
        <ele>3.8</ele>
        <time>2020-06-03T14:50:04Z</time>
      </trkpt>
      <trkpt lat="46.57195" lon="-1.82011">
        <ele>3.9</ele>
        <time>2020-06-03T14:50:05Z</time>
      </trkpt>
      <trkpt lat="46.57198" lon="-1.82018">
        <ele>3.9</ele>
        <time>2020-06-03T14:50:06Z</time>
      </trkpt>
      <trkpt lat="46.57201" lon="-1.82025">
        <ele>4</ele>
        <time>2020-06-03T14:50:07Z</time>
      </trkpt>
      <trkpt lat="46.57202" lon="-1.8203">
        <ele>4</ele>
        <time>2020-06-03T14:50:08Z</time>
      </trkpt>
      <trkpt lat="46.57204" lon="-1.82037">
        <ele>4</ele>
        <time>2020-06-03T14:50:09Z</time>
      </trkpt>
      <trkpt lat="46.57206" lon="-1.82044">
        <ele>4.1</ele>
        <time>2020-06-03T14:50:10Z</time>
      </trkpt>
      <trkpt lat="46.57208" lon="-1.82051">
        <ele>4.1</ele>
        <time>2020-06-03T14:50:11Z</time>
      </trkpt>
      <trkpt lat="46.5721" lon="-1.82058">
        <ele>4.1</ele>
        <time>2020-06-03T14:50:12Z</time>
      </trkpt>
      <trkpt lat="46.57212" lon="-1.82064">
        <ele>4.1</ele>
        <time>2020-06-03T14:50:13Z</time>
      </trkpt>
      <trkpt lat="46.57214" lon="-1.82071">
        <ele>4.1</ele>
        <time>2020-06-03T14:50:14Z</time>
      </trkpt>
      <trkpt lat="46.57216" lon="-1.82078">
        <ele>4.1</ele>
        <time>2020-06-03T14:50:15Z</time>
      </trkpt>
      <trkpt lat="46.57218" lon="-1.82084">
        <ele>4.1</ele>
        <time>2020-06-03T14:50:16Z</time>
      </trkpt>
      <trkpt lat="46.57221" lon="-1.8209">
        <ele>4.1</ele>
        <time>2020-06-03T14:50:17Z</time>
      </trkpt>
      <trkpt lat="46.57223" lon="-1.82097">
        <ele>4.1</ele>
        <time>2020-06-03T14:50:18Z</time>
      </trkpt>
      <trkpt lat="46.57224" lon="-1.82102">
        <ele>4.1</ele>
        <time>2020-06-03T14:50:19Z</time>
      </trkpt>
      <trkpt lat="46.57226" lon="-1.82107">
        <ele>4.1</ele>
        <time>2020-06-03T14:50:20Z</time>
      </trkpt>
      <trkpt lat="46.57229" lon="-1.82111">
        <ele>4.2</ele>
        <time>2020-06-03T14:50:21Z</time>
      </trkpt>
      <trkpt lat="46.57231" lon="-1.82116">
        <ele>4.2</ele>
        <time>2020-06-03T14:50:22Z</time>
      </trkpt>
      <trkpt lat="46.57234" lon="-1.82121">
        <ele>4.2</ele>
        <time>2020-06-03T14:50:23Z</time>
      </trkpt>
      <trkpt lat="46.57237" lon="-1.82125">
        <ele>4.2</ele>
        <time>2020-06-03T14:50:24Z</time>
      </trkpt>
      <trkpt lat="46.57242" lon="-1.82127">
        <ele>4.3</ele>
        <time>2020-06-03T14:50:25Z</time>
      </trkpt>
      <trkpt lat="46.57248" lon="-1.82128">
        <ele>4.3</ele>
        <time>2020-06-03T14:50:26Z</time>
      </trkpt>
      <trkpt lat="46.57254" lon="-1.82129">
        <ele>4.4</ele>
        <time>2020-06-03T14:50:27Z</time>
      </trkpt>
      <trkpt lat="46.57259" lon="-1.82128">
        <ele>4.4</ele>
        <time>2020-06-03T14:50:28Z</time>
      </trkpt>
      <trkpt lat="46.57265" lon="-1.82126">
        <ele>4.4</ele>
        <time>2020-06-03T14:50:29Z</time>
      </trkpt>
      <trkpt lat="46.5727" lon="-1.82124">
        <ele>4.5</ele>
        <time>2020-06-03T14:50:30Z</time>
      </trkpt>
      <trkpt lat="46.57274" lon="-1.82122">
        <ele>4.5</ele>
        <time>2020-06-03T14:50:31Z</time>
      </trkpt>
      <trkpt lat="46.57278" lon="-1.82121">
        <ele>4.5</ele>
        <time>2020-06-03T14:50:32Z</time>
      </trkpt>
      <trkpt lat="46.57282" lon="-1.82119">
        <ele>4.5</ele>
        <time>2020-06-03T14:50:33Z</time>
      </trkpt>
      <trkpt lat="46.57287" lon="-1.82117">
        <ele>4.6</ele>
        <time>2020-06-03T14:50:34Z</time>
      </trkpt>
      <trkpt lat="46.57291" lon="-1.82115">
        <ele>4.6</ele>
        <time>2020-06-03T14:50:35Z</time>
      </trkpt>
      <trkpt lat="46.57296" lon="-1.82114">
        <ele>4.6</ele>
        <time>2020-06-03T14:50:36Z</time>
      </trkpt>
      <trkpt lat="46.57299" lon="-1.82114">
        <ele>4.6</ele>
        <time>2020-06-03T14:50:37Z</time>
      </trkpt>
      <trkpt lat="46.57304" lon="-1.82113">
        <ele>4.6</ele>
        <time>2020-06-03T14:50:38Z</time>
      </trkpt>
      <trkpt lat="46.57308" lon="-1.82113">
        <ele>4.7</ele>
        <time>2020-06-03T14:50:39Z</time>
      </trkpt>
      <trkpt lat="46.57312" lon="-1.82112">
        <ele>4.7</ele>
        <time>2020-06-03T14:50:40Z</time>
      </trkpt>
      <trkpt lat="46.57317" lon="-1.82111">
        <ele>4.7</ele>
        <time>2020-06-03T14:50:41Z</time>
      </trkpt>
      <trkpt lat="46.57321" lon="-1.82111">
        <ele>4.7</ele>
        <time>2020-06-03T14:50:42Z</time>
      </trkpt>
      <trkpt lat="46.57325" lon="-1.82111">
        <ele>4.8</ele>
        <time>2020-06-03T14:50:43Z</time>
      </trkpt>
      <trkpt lat="46.5733" lon="-1.82111">
        <ele>4.8</ele>
        <time>2020-06-03T14:50:44Z</time>
      </trkpt>
      <trkpt lat="46.57335" lon="-1.8211">
        <ele>4.8</ele>
        <time>2020-06-03T14:50:45Z</time>
      </trkpt>
      <trkpt lat="46.57339" lon="-1.8211">
        <ele>4.8</ele>
        <time>2020-06-03T14:50:46Z</time>
      </trkpt>
      <trkpt lat="46.57343" lon="-1.8211">
        <ele>4.9</ele>
        <time>2020-06-03T14:50:47Z</time>
      </trkpt>
      <trkpt lat="46.57347" lon="-1.82109">
        <ele>4.9</ele>
        <time>2020-06-03T14:50:48Z</time>
      </trkpt>
      <trkpt lat="46.57352" lon="-1.82108">
        <ele>4.9</ele>
        <time>2020-06-03T14:50:49Z</time>
      </trkpt>
      <trkpt lat="46.57355" lon="-1.82107">
        <ele>5</ele>
        <time>2020-06-03T14:50:50Z</time>
      </trkpt>
      <trkpt lat="46.57359" lon="-1.82107">
        <ele>5</ele>
        <time>2020-06-03T14:50:51Z</time>
      </trkpt>
      <trkpt lat="46.5736" lon="-1.82108">
        <ele>5</ele>
        <time>2020-06-03T14:50:52Z</time>
      </trkpt>
      <trkpt lat="46.57363" lon="-1.8211">
        <ele>5</ele>
        <time>2020-06-03T14:50:53Z</time>
      </trkpt>
      <trkpt lat="46.57366" lon="-1.82111">
        <ele>5</ele>
        <time>2020-06-03T14:50:54Z</time>
      </trkpt>
      <trkpt lat="46.57369" lon="-1.82114">
        <ele>5</ele>
        <time>2020-06-03T14:50:55Z</time>
      </trkpt>
      <trkpt lat="46.57372" lon="-1.82117">
        <ele>5</ele>
        <time>2020-06-03T14:50:56Z</time>
      </trkpt>
      <trkpt lat="46.57375" lon="-1.8212">
        <ele>5.1</ele>
        <time>2020-06-03T14:50:57Z</time>
      </trkpt>
      <trkpt lat="46.57378" lon="-1.82124">
        <ele>5.1</ele>
        <time>2020-06-03T14:50:58Z</time>
      </trkpt>
      <trkpt lat="46.57382" lon="-1.8213">
        <ele>5.1</ele>
        <time>2020-06-03T14:50:59Z</time>
      </trkpt>
      <trkpt lat="46.57385" lon="-1.82133">
        <ele>5.1</ele>
        <time>2020-06-03T14:51:00Z</time>
      </trkpt>
      <trkpt lat="46.57389" lon="-1.82137">
        <ele>5.1</ele>
        <time>2020-06-03T14:51:01Z</time>
      </trkpt>
      <trkpt lat="46.57394" lon="-1.82139">
        <ele>5.2</ele>
        <time>2020-06-03T14:51:02Z</time>
      </trkpt>
      <trkpt lat="46.57397" lon="-1.82142">
        <ele>5.2</ele>
        <time>2020-06-03T14:51:03Z</time>
      </trkpt>
      <trkpt lat="46.574" lon="-1.82144">
        <ele>5.2</ele>
        <time>2020-06-03T14:51:04Z</time>
      </trkpt>
      <trkpt lat="46.57403" lon="-1.82145">
        <ele>5.2</ele>
        <time>2020-06-03T14:51:05Z</time>
      </trkpt>
      <trkpt lat="46.57406" lon="-1.82147">
        <ele>5.2</ele>
        <time>2020-06-03T14:51:06Z</time>
      </trkpt>
      <trkpt lat="46.5741" lon="-1.82148">
        <ele>5.3</ele>
        <time>2020-06-03T14:51:07Z</time>
      </trkpt>
      <trkpt lat="46.57413" lon="-1.82151">
        <ele>5.3</ele>
        <time>2020-06-03T14:51:08Z</time>
      </trkpt>
      <trkpt lat="46.57418" lon="-1.82153">
        <ele>5.3</ele>
        <time>2020-06-03T14:51:09Z</time>
      </trkpt>
      <trkpt lat="46.57423" lon="-1.82156">
        <ele>5.3</ele>
        <time>2020-06-03T14:51:10Z</time>
      </trkpt>
      <trkpt lat="46.57428" lon="-1.82159">
        <ele>5.3</ele>
        <time>2020-06-03T14:51:11Z</time>
      </trkpt>
      <trkpt lat="46.57433" lon="-1.8216">
        <ele>5.3</ele>
        <time>2020-06-03T14:51:12Z</time>
      </trkpt>
      <trkpt lat="46.57438" lon="-1.82163">
        <ele>5.4</ele>
        <time>2020-06-03T14:51:13Z</time>
      </trkpt>
      <trkpt lat="46.57443" lon="-1.82165">
        <ele>5.4</ele>
        <time>2020-06-03T14:51:14Z</time>
      </trkpt>
      <trkpt lat="46.57449" lon="-1.82167">
        <ele>5.4</ele>
        <time>2020-06-03T14:51:15Z</time>
      </trkpt>
      <trkpt lat="46.57456" lon="-1.82169">
        <ele>5.4</ele>
        <time>2020-06-03T14:51:16Z</time>
      </trkpt>
      <trkpt lat="46.57462" lon="-1.82172">
        <ele>5.5</ele>
        <time>2020-06-03T14:51:17Z</time>
      </trkpt>
      <trkpt lat="46.57467" lon="-1.82174">
        <ele>5.5</ele>
        <time>2020-06-03T14:51:18Z</time>
      </trkpt>
      <trkpt lat="46.57472" lon="-1.82177">
        <ele>5.5</ele>
        <time>2020-06-03T14:51:19Z</time>
      </trkpt>
      <trkpt lat="46.57477" lon="-1.8218">
        <ele>5.5</ele>
        <time>2020-06-03T14:51:20Z</time>
      </trkpt>
      <trkpt lat="46.57481" lon="-1.82183">
        <ele>5.5</ele>
        <time>2020-06-03T14:51:21Z</time>
      </trkpt>
      <trkpt lat="46.57485" lon="-1.82185">
        <ele>5.5</ele>
        <time>2020-06-03T14:51:22Z</time>
      </trkpt>
      <trkpt lat="46.57489" lon="-1.82188">
        <ele>5.5</ele>
        <time>2020-06-03T14:51:23Z</time>
      </trkpt>
      <trkpt lat="46.57492" lon="-1.82192">
        <ele>5.5</ele>
        <time>2020-06-03T14:51:24Z</time>
      </trkpt>
      <trkpt lat="46.57495" lon="-1.82195">
        <ele>5.5</ele>
        <time>2020-06-03T14:51:25Z</time>
      </trkpt>
      <trkpt lat="46.57498" lon="-1.82198">
        <ele>5.5</ele>
        <time>2020-06-03T14:51:26Z</time>
      </trkpt>
      <trkpt lat="46.57501" lon="-1.82201">
        <ele>5.5</ele>
        <time>2020-06-03T14:51:27Z</time>
      </trkpt>
      <trkpt lat="46.57505" lon="-1.82203">
        <ele>5.5</ele>
        <time>2020-06-03T14:51:28Z</time>
      </trkpt>
      <trkpt lat="46.57508" lon="-1.82205">
        <ele>5.5</ele>
        <time>2020-06-03T14:51:29Z</time>
      </trkpt>
      <trkpt lat="46.57512" lon="-1.82207">
        <ele>5.6</ele>
        <time>2020-06-03T14:51:30Z</time>
      </trkpt>
      <trkpt lat="46.57517" lon="-1.82209">
        <ele>5.6</ele>
        <time>2020-06-03T14:51:31Z</time>
      </trkpt>
      <trkpt lat="46.5752" lon="-1.8221">
        <ele>5.6</ele>
        <time>2020-06-03T14:51:32Z</time>
      </trkpt>
      <trkpt lat="46.57524" lon="-1.82211">
        <ele>5.6</ele>
        <time>2020-06-03T14:51:33Z</time>
      </trkpt>
      <trkpt lat="46.57528" lon="-1.82214">
        <ele>5.6</ele>
        <time>2020-06-03T14:51:34Z</time>
      </trkpt>
      <trkpt lat="46.57534" lon="-1.82215">
        <ele>5.6</ele>
        <time>2020-06-03T14:51:35Z</time>
      </trkpt>
      <trkpt lat="46.57538" lon="-1.82218">
        <ele>5.6</ele>
        <time>2020-06-03T14:51:36Z</time>
      </trkpt>
      <trkpt lat="46.57543" lon="-1.82221">
        <ele>5.6</ele>
        <time>2020-06-03T14:51:37Z</time>
      </trkpt>
      <trkpt lat="46.57547" lon="-1.82222">
        <ele>5.6</ele>
        <time>2020-06-03T14:51:38Z</time>
      </trkpt>
      <trkpt lat="46.57551" lon="-1.82225">
        <ele>5.6</ele>
        <time>2020-06-03T14:51:39Z</time>
      </trkpt>
      <trkpt lat="46.57553" lon="-1.82227">
        <ele>5.6</ele>
        <time>2020-06-03T14:51:40Z</time>
      </trkpt>
      <trkpt lat="46.57557" lon="-1.8223">
        <ele>5.6</ele>
        <time>2020-06-03T14:51:41Z</time>
      </trkpt>
      <trkpt lat="46.5756" lon="-1.82232">
        <ele>5.6</ele>
        <time>2020-06-03T14:51:42Z</time>
      </trkpt>
      <trkpt lat="46.57564" lon="-1.82234">
        <ele>5.6</ele>
        <time>2020-06-03T14:51:43Z</time>
      </trkpt>
      <trkpt lat="46.57569" lon="-1.82237">
        <ele>5.6</ele>
        <time>2020-06-03T14:51:44Z</time>
      </trkpt>
      <trkpt lat="46.57573" lon="-1.82239">
        <ele>5.6</ele>
        <time>2020-06-03T14:51:45Z</time>
      </trkpt>
      <trkpt lat="46.57578" lon="-1.82241">
        <ele>5.6</ele>
        <time>2020-06-03T14:51:46Z</time>
      </trkpt>
      <trkpt lat="46.57582" lon="-1.82244">
        <ele>5.6</ele>
        <time>2020-06-03T14:51:47Z</time>
      </trkpt>
      <trkpt lat="46.57586" lon="-1.82246">
        <ele>5.6</ele>
        <time>2020-06-03T14:51:48Z</time>
      </trkpt>
      <trkpt lat="46.5759" lon="-1.82248">
        <ele>5.6</ele>
        <time>2020-06-03T14:51:49Z</time>
      </trkpt>
      <trkpt lat="46.57594" lon="-1.8225">
        <ele>5.6</ele>
        <time>2020-06-03T14:51:50Z</time>
      </trkpt>
      <trkpt lat="46.57598" lon="-1.82251">
        <ele>5.6</ele>
        <time>2020-06-03T14:51:51Z</time>
      </trkpt>
      <trkpt lat="46.57602" lon="-1.82253">
        <ele>5.7</ele>
        <time>2020-06-03T14:51:52Z</time>
      </trkpt>
      <trkpt lat="46.57607" lon="-1.82255">
        <ele>5.7</ele>
        <time>2020-06-03T14:51:53Z</time>
      </trkpt>
      <trkpt lat="46.57612" lon="-1.82257">
        <ele>5.7</ele>
        <time>2020-06-03T14:51:54Z</time>
      </trkpt>
      <trkpt lat="46.57617" lon="-1.82259">
        <ele>5.8</ele>
        <time>2020-06-03T14:51:55Z</time>
      </trkpt>
      <trkpt lat="46.5762" lon="-1.8226">
        <ele>5.8</ele>
        <time>2020-06-03T14:51:56Z</time>
      </trkpt>
      <trkpt lat="46.57622" lon="-1.82263">
        <ele>5.8</ele>
        <time>2020-06-03T14:51:57Z</time>
      </trkpt>
      <trkpt lat="46.57624" lon="-1.82265">
        <ele>5.9</ele>
        <time>2020-06-03T14:51:58Z</time>
      </trkpt>
      <trkpt lat="46.57625" lon="-1.82266">
        <ele>5.9</ele>
        <time>2020-06-03T14:51:59Z</time>
      </trkpt>
      <trkpt lat="46.57627" lon="-1.82269">
        <ele>5.9</ele>
        <time>2020-06-03T14:52:00Z</time>
      </trkpt>
      <trkpt lat="46.57628" lon="-1.8227">
        <ele>5.9</ele>
        <time>2020-06-03T14:52:01Z</time>
      </trkpt>
      <trkpt lat="46.57628" lon="-1.82272">
        <ele>5.9</ele>
        <time>2020-06-03T14:52:02Z</time>
      </trkpt>
      <trkpt lat="46.57628" lon="-1.82275">
        <ele>5.9</ele>
        <time>2020-06-03T14:52:03Z</time>
      </trkpt>
      <trkpt lat="46.57627" lon="-1.82279">
        <ele>5.9</ele>
        <time>2020-06-03T14:52:04Z</time>
      </trkpt>
      <trkpt lat="46.57626" lon="-1.8228">
        <ele>6</ele>
        <time>2020-06-03T14:52:05Z</time>
      </trkpt>
      <trkpt lat="46.57626" lon="-1.82284">
        <ele>6.1</ele>
        <time>2020-06-03T14:52:06Z</time>
      </trkpt>
      <trkpt lat="46.57625" lon="-1.8229">
        <ele>6.1</ele>
        <time>2020-06-03T14:52:07Z</time>
      </trkpt>
      <trkpt lat="46.57625" lon="-1.82296">
        <ele>6.1</ele>
        <time>2020-06-03T14:52:08Z</time>
      </trkpt>
      <trkpt lat="46.57625" lon="-1.82304">
        <ele>6.2</ele>
        <time>2020-06-03T14:52:09Z</time>
      </trkpt>
      <trkpt lat="46.57624" lon="-1.82311">
        <ele>6.4</ele>
        <time>2020-06-03T14:52:10Z</time>
      </trkpt>
      <trkpt lat="46.57623" lon="-1.82318">
        <ele>6.4</ele>
        <time>2020-06-03T14:52:11Z</time>
      </trkpt>
      <trkpt lat="46.57622" lon="-1.82323">
        <ele>6.5</ele>
        <time>2020-06-03T14:52:12Z</time>
      </trkpt>
      <trkpt lat="46.57622" lon="-1.82329">
        <ele>6.6</ele>
        <time>2020-06-03T14:52:13Z</time>
      </trkpt>
      <trkpt lat="46.57621" lon="-1.82331">
        <ele>6.6</ele>
        <time>2020-06-03T14:52:14Z</time>
      </trkpt>
      <trkpt lat="46.57621" lon="-1.82337">
        <ele>6.7</ele>
        <time>2020-06-03T14:52:15Z</time>
      </trkpt>
      <trkpt lat="46.57621" lon="-1.82339">
        <ele>6.7</ele>
        <time>2020-06-03T14:52:16Z</time>
      </trkpt>
      <trkpt lat="46.57621" lon="-1.82343">
        <ele>6.8</ele>
        <time>2020-06-03T14:52:17Z</time>
      </trkpt>
      <trkpt lat="46.57621" lon="-1.82345">
        <ele>6.8</ele>
        <time>2020-06-03T14:52:18Z</time>
      </trkpt>
      <trkpt lat="46.57622" lon="-1.8235">
        <ele>6.9</ele>
        <time>2020-06-03T14:52:19Z</time>
      </trkpt>
      <trkpt lat="46.57622" lon="-1.82351">
        <ele>6.9</ele>
        <time>2020-06-03T14:52:20Z</time>
      </trkpt>
      <trkpt lat="46.57623" lon="-1.82355">
        <ele>6.9</ele>
        <time>2020-06-03T14:52:21Z</time>
      </trkpt>
      <trkpt lat="46.57623" lon="-1.82357">
        <ele>7</ele>
        <time>2020-06-03T14:52:22Z</time>
      </trkpt>
      <trkpt lat="46.57624" lon="-1.82361">
        <ele>7</ele>
        <time>2020-06-03T14:52:23Z</time>
      </trkpt>
      <trkpt lat="46.57625" lon="-1.82368">
        <ele>7</ele>
        <time>2020-06-03T14:52:24Z</time>
      </trkpt>
      <trkpt lat="46.57625" lon="-1.82374">
        <ele>7</ele>
        <time>2020-06-03T14:52:25Z</time>
      </trkpt>
      <trkpt lat="46.57625" lon="-1.82379">
        <ele>7</ele>
        <time>2020-06-03T14:52:26Z</time>
      </trkpt>
      <trkpt lat="46.57626" lon="-1.82384">
        <ele>7.1</ele>
        <time>2020-06-03T14:52:27Z</time>
      </trkpt>
      <trkpt lat="46.57627" lon="-1.8239">
        <ele>7.1</ele>
        <time>2020-06-03T14:52:28Z</time>
      </trkpt>
      <trkpt lat="46.57627" lon="-1.82394">
        <ele>7.1</ele>
        <time>2020-06-03T14:52:29Z</time>
      </trkpt>
      <trkpt lat="46.57628" lon="-1.82399">
        <ele>7.2</ele>
        <time>2020-06-03T14:52:30Z</time>
      </trkpt>
      <trkpt lat="46.57629" lon="-1.82403">
        <ele>7.2</ele>
        <time>2020-06-03T14:52:31Z</time>
      </trkpt>
      <trkpt lat="46.57629" lon="-1.82408">
        <ele>7.2</ele>
        <time>2020-06-03T14:52:32Z</time>
      </trkpt>
      <trkpt lat="46.57631" lon="-1.82412">
        <ele>7.3</ele>
        <time>2020-06-03T14:52:33Z</time>
      </trkpt>
      <trkpt lat="46.57631" lon="-1.82418">
        <ele>7.3</ele>
        <time>2020-06-03T14:52:34Z</time>
      </trkpt>
      <trkpt lat="46.57632" lon="-1.82424">
        <ele>7.3</ele>
        <time>2020-06-03T14:52:35Z</time>
      </trkpt>
      <trkpt lat="46.57633" lon="-1.8243">
        <ele>7.4</ele>
        <time>2020-06-03T14:52:36Z</time>
      </trkpt>
      <trkpt lat="46.57634" lon="-1.82434">
        <ele>7.4</ele>
        <time>2020-06-03T14:52:37Z</time>
      </trkpt>
      <trkpt lat="46.57635" lon="-1.8244">
        <ele>7.5</ele>
        <time>2020-06-03T14:52:38Z</time>
      </trkpt>
      <trkpt lat="46.57635" lon="-1.82446">
        <ele>7.5</ele>
        <time>2020-06-03T14:52:39Z</time>
      </trkpt>
      <trkpt lat="46.57636" lon="-1.82451">
        <ele>7.6</ele>
        <time>2020-06-03T14:52:40Z</time>
      </trkpt>
      <trkpt lat="46.57637" lon="-1.82457">
        <ele>7.6</ele>
        <time>2020-06-03T14:52:41Z</time>
      </trkpt>
      <trkpt lat="46.57639" lon="-1.82461">
        <ele>7.7</ele>
        <time>2020-06-03T14:52:42Z</time>
      </trkpt>
      <trkpt lat="46.57641" lon="-1.82465">
        <ele>7.7</ele>
        <time>2020-06-03T14:52:43Z</time>
      </trkpt>
      <trkpt lat="46.57642" lon="-1.82469">
        <ele>7.8</ele>
        <time>2020-06-03T14:52:44Z</time>
      </trkpt>
      <trkpt lat="46.57644" lon="-1.82473">
        <ele>7.8</ele>
        <time>2020-06-03T14:52:45Z</time>
      </trkpt>
      <trkpt lat="46.57647" lon="-1.82476">
        <ele>7.9</ele>
        <time>2020-06-03T14:52:46Z</time>
      </trkpt>
      <trkpt lat="46.57648" lon="-1.82476">
        <ele>7.9</ele>
        <time>2020-06-03T14:52:47Z</time>
      </trkpt>
      <trkpt lat="46.57651" lon="-1.82478">
        <ele>7.9</ele>
        <time>2020-06-03T14:52:48Z</time>
      </trkpt>
      <trkpt lat="46.57652" lon="-1.82479">
        <ele>7.9</ele>
        <time>2020-06-03T14:52:49Z</time>
      </trkpt>
      <trkpt lat="46.57654" lon="-1.82482">
        <ele>8</ele>
        <time>2020-06-03T14:52:50Z</time>
      </trkpt>
      <trkpt lat="46.57656" lon="-1.82486">
        <ele>8</ele>
        <time>2020-06-03T14:52:51Z</time>
      </trkpt>
      <trkpt lat="46.57659" lon="-1.8249">
        <ele>8.1</ele>
        <time>2020-06-03T14:52:52Z</time>
      </trkpt>
      <trkpt lat="46.57662" lon="-1.82493">
        <ele>8.1</ele>
        <time>2020-06-03T14:52:53Z</time>
      </trkpt>
      <trkpt lat="46.57666" lon="-1.82493">
        <ele>8.1</ele>
        <time>2020-06-03T14:52:54Z</time>
      </trkpt>
      <trkpt lat="46.57669" lon="-1.82494">
        <ele>8.2</ele>
        <time>2020-06-03T14:52:55Z</time>
      </trkpt>
      <trkpt lat="46.57672" lon="-1.82496">
        <ele>8.2</ele>
        <time>2020-06-03T14:52:56Z</time>
      </trkpt>
      <trkpt lat="46.57676" lon="-1.82497">
        <ele>8.2</ele>
        <time>2020-06-03T14:52:57Z</time>
      </trkpt>
      <trkpt lat="46.5768" lon="-1.82499">
        <ele>8.2</ele>
        <time>2020-06-03T14:52:58Z</time>
      </trkpt>
      <trkpt lat="46.57684" lon="-1.825">
        <ele>8.2</ele>
        <time>2020-06-03T14:52:59Z</time>
      </trkpt>
      <trkpt lat="46.57688" lon="-1.82501">
        <ele>8.2</ele>
        <time>2020-06-03T14:53:00Z</time>
      </trkpt>
      <trkpt lat="46.57691" lon="-1.82502">
        <ele>8.2</ele>
        <time>2020-06-03T14:53:01Z</time>
      </trkpt>
      <trkpt lat="46.57695" lon="-1.82505">
        <ele>8.2</ele>
        <time>2020-06-03T14:53:02Z</time>
      </trkpt>
      <trkpt lat="46.57698" lon="-1.82507">
        <ele>8.2</ele>
        <time>2020-06-03T14:53:03Z</time>
      </trkpt>
      <trkpt lat="46.57702" lon="-1.82509">
        <ele>8.2</ele>
        <time>2020-06-03T14:53:04Z</time>
      </trkpt>
      <trkpt lat="46.57707" lon="-1.82509">
        <ele>8.2</ele>
        <time>2020-06-03T14:53:05Z</time>
      </trkpt>
      <trkpt lat="46.5771" lon="-1.8251">
        <ele>8.3</ele>
        <time>2020-06-03T14:53:06Z</time>
      </trkpt>
      <trkpt lat="46.57714" lon="-1.82512">
        <ele>8.3</ele>
        <time>2020-06-03T14:53:07Z</time>
      </trkpt>
      <trkpt lat="46.57716" lon="-1.82513">
        <ele>8.3</ele>
        <time>2020-06-03T14:53:08Z</time>
      </trkpt>
      <trkpt lat="46.57718" lon="-1.82515">
        <ele>8.3</ele>
        <time>2020-06-03T14:53:09Z</time>
      </trkpt>
      <trkpt lat="46.57721" lon="-1.82519">
        <ele>8.4</ele>
        <time>2020-06-03T14:53:10Z</time>
      </trkpt>
      <trkpt lat="46.57725" lon="-1.82524">
        <ele>8.4</ele>
        <time>2020-06-03T14:53:11Z</time>
      </trkpt>
      <trkpt lat="46.57729" lon="-1.8253">
        <ele>8.4</ele>
        <time>2020-06-03T14:53:12Z</time>
      </trkpt>
      <trkpt lat="46.57734" lon="-1.82537">
        <ele>8.4</ele>
        <time>2020-06-03T14:53:13Z</time>
      </trkpt>
      <trkpt lat="46.57737" lon="-1.82545">
        <ele>8.5</ele>
        <time>2020-06-03T14:53:14Z</time>
      </trkpt>
      <trkpt lat="46.57739" lon="-1.82553">
        <ele>8.4</ele>
        <time>2020-06-03T14:53:15Z</time>
      </trkpt>
      <trkpt lat="46.57741" lon="-1.82559">
        <ele>8.4</ele>
        <time>2020-06-03T14:53:16Z</time>
      </trkpt>
      <trkpt lat="46.57743" lon="-1.82566">
        <ele>8.3</ele>
        <time>2020-06-03T14:53:17Z</time>
      </trkpt>
      <trkpt lat="46.57745" lon="-1.82573">
        <ele>8.3</ele>
        <time>2020-06-03T14:53:18Z</time>
      </trkpt>
      <trkpt lat="46.57748" lon="-1.82579">
        <ele>8.2</ele>
        <time>2020-06-03T14:53:19Z</time>
      </trkpt>
      <trkpt lat="46.57749" lon="-1.82586">
        <ele>8.2</ele>
        <time>2020-06-03T14:53:20Z</time>
      </trkpt>
      <trkpt lat="46.57753" lon="-1.82594">
        <ele>8.2</ele>
        <time>2020-06-03T14:53:21Z</time>
      </trkpt>
      <trkpt lat="46.57756" lon="-1.82601">
        <ele>8.2</ele>
        <time>2020-06-03T14:53:22Z</time>
      </trkpt>
      <trkpt lat="46.57757" lon="-1.82608">
        <ele>8.2</ele>
        <time>2020-06-03T14:53:23Z</time>
      </trkpt>
      <trkpt lat="46.57759" lon="-1.82614">
        <ele>8.2</ele>
        <time>2020-06-03T14:53:24Z</time>
      </trkpt>
      <trkpt lat="46.5776" lon="-1.82621">
        <ele>8.2</ele>
        <time>2020-06-03T14:53:25Z</time>
      </trkpt>
      <trkpt lat="46.57763" lon="-1.82626">
        <ele>8.2</ele>
        <time>2020-06-03T14:53:26Z</time>
      </trkpt>
      <trkpt lat="46.57764" lon="-1.82632">
        <ele>8.2</ele>
        <time>2020-06-03T14:53:27Z</time>
      </trkpt>
      <trkpt lat="46.57766" lon="-1.82638">
        <ele>8.2</ele>
        <time>2020-06-03T14:53:28Z</time>
      </trkpt>
      <trkpt lat="46.57768" lon="-1.82644">
        <ele>8.2</ele>
        <time>2020-06-03T14:53:29Z</time>
      </trkpt>
      <trkpt lat="46.57771" lon="-1.8265">
        <ele>8.2</ele>
        <time>2020-06-03T14:53:30Z</time>
      </trkpt>
      <trkpt lat="46.57773" lon="-1.82656">
        <ele>8.2</ele>
        <time>2020-06-03T14:53:31Z</time>
      </trkpt>
      <trkpt lat="46.57775" lon="-1.82663">
        <ele>8.3</ele>
        <time>2020-06-03T14:53:32Z</time>
      </trkpt>
      <trkpt lat="46.57776" lon="-1.82669">
        <ele>8.3</ele>
        <time>2020-06-03T14:53:33Z</time>
      </trkpt>
      <trkpt lat="46.57778" lon="-1.82676">
        <ele>8.3</ele>
        <time>2020-06-03T14:53:34Z</time>
      </trkpt>
      <trkpt lat="46.57779" lon="-1.82682">
        <ele>8.3</ele>
        <time>2020-06-03T14:53:35Z</time>
      </trkpt>
      <trkpt lat="46.5778" lon="-1.82688">
        <ele>8.3</ele>
        <time>2020-06-03T14:53:36Z</time>
      </trkpt>
      <trkpt lat="46.57782" lon="-1.82693">
        <ele>8.3</ele>
        <time>2020-06-03T14:53:37Z</time>
      </trkpt>
      <trkpt lat="46.57784" lon="-1.82699">
        <ele>8.3</ele>
        <time>2020-06-03T14:53:38Z</time>
      </trkpt>
      <trkpt lat="46.57786" lon="-1.82705">
        <ele>8.3</ele>
        <time>2020-06-03T14:53:39Z</time>
      </trkpt>
      <trkpt lat="46.57788" lon="-1.82712">
        <ele>8.3</ele>
        <time>2020-06-03T14:53:40Z</time>
      </trkpt>
      <trkpt lat="46.5779" lon="-1.82718">
        <ele>8.4</ele>
        <time>2020-06-03T14:53:41Z</time>
      </trkpt>
      <trkpt lat="46.57791" lon="-1.82724">
        <ele>8.4</ele>
        <time>2020-06-03T14:53:42Z</time>
      </trkpt>
      <trkpt lat="46.57793" lon="-1.8273">
        <ele>8.5</ele>
        <time>2020-06-03T14:53:43Z</time>
      </trkpt>
      <trkpt lat="46.57795" lon="-1.82737">
        <ele>8.6</ele>
        <time>2020-06-03T14:53:44Z</time>
      </trkpt>
      <trkpt lat="46.57797" lon="-1.82744">
        <ele>8.8</ele>
        <time>2020-06-03T14:53:45Z</time>
      </trkpt>
      <trkpt lat="46.57799" lon="-1.82751">
        <ele>8.9</ele>
        <time>2020-06-03T14:53:46Z</time>
      </trkpt>
      <trkpt lat="46.57801" lon="-1.82757">
        <ele>8.9</ele>
        <time>2020-06-03T14:53:47Z</time>
      </trkpt>
      <trkpt lat="46.57803" lon="-1.82764">
        <ele>9</ele>
        <time>2020-06-03T14:53:48Z</time>
      </trkpt>
      <trkpt lat="46.57806" lon="-1.8277">
        <ele>9.1</ele>
        <time>2020-06-03T14:53:49Z</time>
      </trkpt>
      <trkpt lat="46.57808" lon="-1.82778">
        <ele>9.1</ele>
        <time>2020-06-03T14:53:50Z</time>
      </trkpt>
      <trkpt lat="46.57811" lon="-1.82785">
        <ele>9.1</ele>
        <time>2020-06-03T14:53:51Z</time>
      </trkpt>
      <trkpt lat="46.57813" lon="-1.82793">
        <ele>9.1</ele>
        <time>2020-06-03T14:53:52Z</time>
      </trkpt>
      <trkpt lat="46.57814" lon="-1.828">
        <ele>9.1</ele>
        <time>2020-06-03T14:53:53Z</time>
      </trkpt>
      <trkpt lat="46.57815" lon="-1.82806">
        <ele>9</ele>
        <time>2020-06-03T14:53:54Z</time>
      </trkpt>
      <trkpt lat="46.57815" lon="-1.82812">
        <ele>9</ele>
        <time>2020-06-03T14:53:55Z</time>
      </trkpt>
      <trkpt lat="46.57817" lon="-1.82818">
        <ele>8.9</ele>
        <time>2020-06-03T14:53:56Z</time>
      </trkpt>
      <trkpt lat="46.57817" lon="-1.82825">
        <ele>8.8</ele>
        <time>2020-06-03T14:53:57Z</time>
      </trkpt>
      <trkpt lat="46.57817" lon="-1.82832">
        <ele>8.8</ele>
        <time>2020-06-03T14:53:58Z</time>
      </trkpt>
      <trkpt lat="46.57817" lon="-1.82838">
        <ele>8.7</ele>
        <time>2020-06-03T14:53:59Z</time>
      </trkpt>
      <trkpt lat="46.57817" lon="-1.82844">
        <ele>8.6</ele>
        <time>2020-06-03T14:54:00Z</time>
      </trkpt>
      <trkpt lat="46.57817" lon="-1.82852">
        <ele>8.6</ele>
        <time>2020-06-03T14:54:01Z</time>
      </trkpt>
      <trkpt lat="46.57816" lon="-1.82858">
        <ele>8.5</ele>
        <time>2020-06-03T14:54:02Z</time>
      </trkpt>
      <trkpt lat="46.57817" lon="-1.82864">
        <ele>8.4</ele>
        <time>2020-06-03T14:54:03Z</time>
      </trkpt>
      <trkpt lat="46.57817" lon="-1.8287">
        <ele>8.4</ele>
        <time>2020-06-03T14:54:04Z</time>
      </trkpt>
      <trkpt lat="46.57818" lon="-1.82877">
        <ele>8.3</ele>
        <time>2020-06-03T14:54:05Z</time>
      </trkpt>
      <trkpt lat="46.57818" lon="-1.82884">
        <ele>8.3</ele>
        <time>2020-06-03T14:54:06Z</time>
      </trkpt>
      <trkpt lat="46.57819" lon="-1.82891">
        <ele>8.3</ele>
        <time>2020-06-03T14:54:07Z</time>
      </trkpt>
      <trkpt lat="46.5782" lon="-1.82898">
        <ele>8.2</ele>
        <time>2020-06-03T14:54:08Z</time>
      </trkpt>
      <trkpt lat="46.57821" lon="-1.82906">
        <ele>8.2</ele>
        <time>2020-06-03T14:54:09Z</time>
      </trkpt>
      <trkpt lat="46.57821" lon="-1.82914">
        <ele>8.1</ele>
        <time>2020-06-03T14:54:10Z</time>
      </trkpt>
      <trkpt lat="46.57822" lon="-1.82922">
        <ele>8.1</ele>
        <time>2020-06-03T14:54:11Z</time>
      </trkpt>
      <trkpt lat="46.57823" lon="-1.82929">
        <ele>8.1</ele>
        <time>2020-06-03T14:54:12Z</time>
      </trkpt>
      <trkpt lat="46.57825" lon="-1.82937">
        <ele>8.1</ele>
        <time>2020-06-03T14:54:13Z</time>
      </trkpt>
      <trkpt lat="46.57826" lon="-1.82945">
        <ele>8.1</ele>
        <time>2020-06-03T14:54:14Z</time>
      </trkpt>
      <trkpt lat="46.57828" lon="-1.82954">
        <ele>8.1</ele>
        <time>2020-06-03T14:54:15Z</time>
      </trkpt>
      <trkpt lat="46.57829" lon="-1.82965">
        <ele>8.1</ele>
        <time>2020-06-03T14:54:16Z</time>
      </trkpt>
      <trkpt lat="46.5783" lon="-1.82975">
        <ele>8.1</ele>
        <time>2020-06-03T14:54:17Z</time>
      </trkpt>
      <trkpt lat="46.57831" lon="-1.82985">
        <ele>8.1</ele>
        <time>2020-06-03T14:54:18Z</time>
      </trkpt>
      <trkpt lat="46.57832" lon="-1.82994">
        <ele>8.2</ele>
        <time>2020-06-03T14:54:19Z</time>
      </trkpt>
      <trkpt lat="46.57833" lon="-1.83004">
        <ele>8.3</ele>
        <time>2020-06-03T14:54:20Z</time>
      </trkpt>
      <trkpt lat="46.57834" lon="-1.83013">
        <ele>8.3</ele>
        <time>2020-06-03T14:54:21Z</time>
      </trkpt>
      <trkpt lat="46.57835" lon="-1.83021">
        <ele>8.4</ele>
        <time>2020-06-03T14:54:22Z</time>
      </trkpt>
      <trkpt lat="46.57835" lon="-1.8303">
        <ele>8.5</ele>
        <time>2020-06-03T14:54:23Z</time>
      </trkpt>
      <trkpt lat="46.57836" lon="-1.83039">
        <ele>8.5</ele>
        <time>2020-06-03T14:54:24Z</time>
      </trkpt>
      <trkpt lat="46.57836" lon="-1.83047">
        <ele>8.5</ele>
        <time>2020-06-03T14:54:25Z</time>
      </trkpt>
      <trkpt lat="46.57835" lon="-1.83054">
        <ele>8.5</ele>
        <time>2020-06-03T14:54:26Z</time>
      </trkpt>
      <trkpt lat="46.57835" lon="-1.8306">
        <ele>8.5</ele>
        <time>2020-06-03T14:54:27Z</time>
      </trkpt>
      <trkpt lat="46.57834" lon="-1.83068">
        <ele>8.5</ele>
        <time>2020-06-03T14:54:28Z</time>
      </trkpt>
      <trkpt lat="46.57834" lon="-1.83075">
        <ele>8.5</ele>
        <time>2020-06-03T14:54:29Z</time>
      </trkpt>
      <trkpt lat="46.57834" lon="-1.83082">
        <ele>8.5</ele>
        <time>2020-06-03T14:54:30Z</time>
      </trkpt>
      <trkpt lat="46.57834" lon="-1.83089">
        <ele>8.5</ele>
        <time>2020-06-03T14:54:31Z</time>
      </trkpt>
      <trkpt lat="46.57834" lon="-1.83096">
        <ele>8.4</ele>
        <time>2020-06-03T14:54:32Z</time>
      </trkpt>
      <trkpt lat="46.57834" lon="-1.83102">
        <ele>8.4</ele>
        <time>2020-06-03T14:54:33Z</time>
      </trkpt>
      <trkpt lat="46.57835" lon="-1.83109">
        <ele>8.4</ele>
        <time>2020-06-03T14:54:34Z</time>
      </trkpt>
      <trkpt lat="46.57836" lon="-1.83116">
        <ele>8.4</ele>
        <time>2020-06-03T14:54:35Z</time>
      </trkpt>
      <trkpt lat="46.57837" lon="-1.83121">
        <ele>8.4</ele>
        <time>2020-06-03T14:54:36Z</time>
      </trkpt>
      <trkpt lat="46.57839" lon="-1.83127">
        <ele>8.4</ele>
        <time>2020-06-03T14:54:37Z</time>
      </trkpt>
      <trkpt lat="46.5784" lon="-1.83135">
        <ele>8.4</ele>
        <time>2020-06-03T14:54:38Z</time>
      </trkpt>
      <trkpt lat="46.57841" lon="-1.83141">
        <ele>8.4</ele>
        <time>2020-06-03T14:54:39Z</time>
      </trkpt>
      <trkpt lat="46.57842" lon="-1.83148">
        <ele>8.4</ele>
        <time>2020-06-03T14:54:40Z</time>
      </trkpt>
      <trkpt lat="46.57844" lon="-1.83154">
        <ele>8.3</ele>
        <time>2020-06-03T14:54:41Z</time>
      </trkpt>
      <trkpt lat="46.57846" lon="-1.83159">
        <ele>8.3</ele>
        <time>2020-06-03T14:54:42Z</time>
      </trkpt>
      <trkpt lat="46.5785" lon="-1.83164">
        <ele>8.3</ele>
        <time>2020-06-03T14:54:43Z</time>
      </trkpt>
      <trkpt lat="46.57853" lon="-1.83169">
        <ele>8.3</ele>
        <time>2020-06-03T14:54:44Z</time>
      </trkpt>
      <trkpt lat="46.57856" lon="-1.83174">
        <ele>8.4</ele>
        <time>2020-06-03T14:54:45Z</time>
      </trkpt>
      <trkpt lat="46.5786" lon="-1.83179">
        <ele>8.4</ele>
        <time>2020-06-03T14:54:46Z</time>
      </trkpt>
      <trkpt lat="46.57864" lon="-1.83184">
        <ele>8.4</ele>
        <time>2020-06-03T14:54:47Z</time>
      </trkpt>
      <trkpt lat="46.57868" lon="-1.83188">
        <ele>8.5</ele>
        <time>2020-06-03T14:54:48Z</time>
      </trkpt>
      <trkpt lat="46.57873" lon="-1.83193">
        <ele>8.5</ele>
        <time>2020-06-03T14:54:49Z</time>
      </trkpt>
      <trkpt lat="46.57878" lon="-1.83198">
        <ele>8.6</ele>
        <time>2020-06-03T14:54:50Z</time>
      </trkpt>
      <trkpt lat="46.57883" lon="-1.83203">
        <ele>8.6</ele>
        <time>2020-06-03T14:54:51Z</time>
      </trkpt>
      <trkpt lat="46.57887" lon="-1.83209">
        <ele>8.7</ele>
        <time>2020-06-03T14:54:52Z</time>
      </trkpt>
      <trkpt lat="46.57889" lon="-1.83215">
        <ele>8.7</ele>
        <time>2020-06-03T14:54:53Z</time>
      </trkpt>
      <trkpt lat="46.57891" lon="-1.83221">
        <ele>8.8</ele>
        <time>2020-06-03T14:54:54Z</time>
      </trkpt>
      <trkpt lat="46.57894" lon="-1.83227">
        <ele>8.8</ele>
        <time>2020-06-03T14:54:55Z</time>
      </trkpt>
      <trkpt lat="46.57896" lon="-1.83232">
        <ele>8.8</ele>
        <time>2020-06-03T14:54:56Z</time>
      </trkpt>
      <trkpt lat="46.579" lon="-1.83239">
        <ele>8.9</ele>
        <time>2020-06-03T14:54:57Z</time>
      </trkpt>
      <trkpt lat="46.57903" lon="-1.83245">
        <ele>8.9</ele>
        <time>2020-06-03T14:54:58Z</time>
      </trkpt>
      <trkpt lat="46.57907" lon="-1.83248">
        <ele>9</ele>
        <time>2020-06-03T14:54:59Z</time>
      </trkpt>
      <trkpt lat="46.57909" lon="-1.83253">
        <ele>9</ele>
        <time>2020-06-03T14:55:00Z</time>
      </trkpt>
      <trkpt lat="46.57912" lon="-1.83258">
        <ele>9</ele>
        <time>2020-06-03T14:55:01Z</time>
      </trkpt>
      <trkpt lat="46.57915" lon="-1.83263">
        <ele>9</ele>
        <time>2020-06-03T14:55:02Z</time>
      </trkpt>
      <trkpt lat="46.57918" lon="-1.83268">
        <ele>9</ele>
        <time>2020-06-03T14:55:03Z</time>
      </trkpt>
      <trkpt lat="46.5792" lon="-1.83272">
        <ele>9.1</ele>
        <time>2020-06-03T14:55:04Z</time>
      </trkpt>
      <trkpt lat="46.57922" lon="-1.83276">
        <ele>9.1</ele>
        <time>2020-06-03T14:55:05Z</time>
      </trkpt>
      <trkpt lat="46.57923" lon="-1.83283">
        <ele>9.1</ele>
        <time>2020-06-03T14:55:06Z</time>
      </trkpt>
      <trkpt lat="46.57925" lon="-1.8329">
        <ele>9.1</ele>
        <time>2020-06-03T14:55:07Z</time>
      </trkpt>
      <trkpt lat="46.57927" lon="-1.83298">
        <ele>9.2</ele>
        <time>2020-06-03T14:55:08Z</time>
      </trkpt>
      <trkpt lat="46.57929" lon="-1.83307">
        <ele>9.3</ele>
        <time>2020-06-03T14:55:09Z</time>
      </trkpt>
      <trkpt lat="46.57931" lon="-1.83317">
        <ele>9.4</ele>
        <time>2020-06-03T14:55:10Z</time>
      </trkpt>
      <trkpt lat="46.57932" lon="-1.83327">
        <ele>9.6</ele>
        <time>2020-06-03T14:55:11Z</time>
      </trkpt>
      <trkpt lat="46.57933" lon="-1.83334">
        <ele>9.7</ele>
        <time>2020-06-03T14:55:12Z</time>
      </trkpt>
      <trkpt lat="46.57934" lon="-1.83341">
        <ele>9.9</ele>
        <time>2020-06-03T14:55:13Z</time>
      </trkpt>
      <trkpt lat="46.57936" lon="-1.83348">
        <ele>10</ele>
        <time>2020-06-03T14:55:14Z</time>
      </trkpt>
      <trkpt lat="46.57939" lon="-1.83356">
        <ele>10.2</ele>
        <time>2020-06-03T14:55:15Z</time>
      </trkpt>
      <trkpt lat="46.57941" lon="-1.83362">
        <ele>10.3</ele>
        <time>2020-06-03T14:55:16Z</time>
      </trkpt>
      <trkpt lat="46.57943" lon="-1.83366">
        <ele>10.4</ele>
        <time>2020-06-03T14:55:17Z</time>
      </trkpt>
      <trkpt lat="46.57944" lon="-1.83371">
        <ele>10.5</ele>
        <time>2020-06-03T14:55:18Z</time>
      </trkpt>
      <trkpt lat="46.57945" lon="-1.83373">
        <ele>10.5</ele>
        <time>2020-06-03T14:55:19Z</time>
      </trkpt>
      <trkpt lat="46.57947" lon="-1.83376">
        <ele>10.6</ele>
        <time>2020-06-03T14:55:20Z</time>
      </trkpt>
      <trkpt lat="46.5795" lon="-1.83379">
        <ele>10.6</ele>
        <time>2020-06-03T14:55:21Z</time>
      </trkpt>
      <trkpt lat="46.57951" lon="-1.83381">
        <ele>10.6</ele>
        <time>2020-06-03T14:55:22Z</time>
      </trkpt>
      <trkpt lat="46.57954" lon="-1.83384">
        <ele>10.7</ele>
        <time>2020-06-03T14:55:23Z</time>
      </trkpt>
      <trkpt lat="46.57956" lon="-1.83387">
        <ele>10.8</ele>
        <time>2020-06-03T14:55:24Z</time>
      </trkpt>
      <trkpt lat="46.57959" lon="-1.83391">
        <ele>10.8</ele>
        <time>2020-06-03T14:55:25Z</time>
      </trkpt>
      <trkpt lat="46.5796" lon="-1.83393">
        <ele>10.8</ele>
        <time>2020-06-03T14:55:26Z</time>
      </trkpt>
      <trkpt lat="46.57963" lon="-1.83396">
        <ele>10.8</ele>
        <time>2020-06-03T14:55:27Z</time>
      </trkpt>
      <trkpt lat="46.57966" lon="-1.83399">
        <ele>10.7</ele>
        <time>2020-06-03T14:55:28Z</time>
      </trkpt>
      <trkpt lat="46.57969" lon="-1.83402">
        <ele>10.7</ele>
        <time>2020-06-03T14:55:29Z</time>
      </trkpt>
      <trkpt lat="46.57971" lon="-1.83405">
        <ele>10.6</ele>
        <time>2020-06-03T14:55:30Z</time>
      </trkpt>
      <trkpt lat="46.57973" lon="-1.83409">
        <ele>10.6</ele>
        <time>2020-06-03T14:55:31Z</time>
      </trkpt>
      <trkpt lat="46.57975" lon="-1.83413">
        <ele>10.5</ele>
        <time>2020-06-03T14:55:32Z</time>
      </trkpt>
      <trkpt lat="46.57977" lon="-1.83417">
        <ele>10.5</ele>
        <time>2020-06-03T14:55:33Z</time>
      </trkpt>
      <trkpt lat="46.5798" lon="-1.83421">
        <ele>10.4</ele>
        <time>2020-06-03T14:55:34Z</time>
      </trkpt>
      <trkpt lat="46.57982" lon="-1.83425">
        <ele>10.3</ele>
        <time>2020-06-03T14:55:35Z</time>
      </trkpt>
      <trkpt lat="46.57985" lon="-1.83429">
        <ele>10.3</ele>
        <time>2020-06-03T14:55:36Z</time>
      </trkpt>
      <trkpt lat="46.57988" lon="-1.83434">
        <ele>10.2</ele>
        <time>2020-06-03T14:55:37Z</time>
      </trkpt>
      <trkpt lat="46.57991" lon="-1.8344">
        <ele>10.1</ele>
        <time>2020-06-03T14:55:38Z</time>
      </trkpt>
      <trkpt lat="46.57994" lon="-1.83447">
        <ele>10</ele>
        <time>2020-06-03T14:55:39Z</time>
      </trkpt>
      <trkpt lat="46.57997" lon="-1.83454">
        <ele>10</ele>
        <time>2020-06-03T14:55:40Z</time>
      </trkpt>
      <trkpt lat="46.57999" lon="-1.83461">
        <ele>10</ele>
        <time>2020-06-03T14:55:41Z</time>
      </trkpt>
      <trkpt lat="46.58001" lon="-1.83467">
        <ele>10</ele>
        <time>2020-06-03T14:55:42Z</time>
      </trkpt>
      <trkpt lat="46.58003" lon="-1.83473">
        <ele>9.9</ele>
        <time>2020-06-03T14:55:43Z</time>
      </trkpt>
      <trkpt lat="46.58006" lon="-1.8348">
        <ele>9.9</ele>
        <time>2020-06-03T14:55:44Z</time>
      </trkpt>
      <trkpt lat="46.58009" lon="-1.83487">
        <ele>9.9</ele>
        <time>2020-06-03T14:55:45Z</time>
      </trkpt>
      <trkpt lat="46.5801" lon="-1.83493">
        <ele>9.8</ele>
        <time>2020-06-03T14:55:46Z</time>
      </trkpt>
      <trkpt lat="46.58012" lon="-1.83498">
        <ele>9.8</ele>
        <time>2020-06-03T14:55:47Z</time>
      </trkpt>
      <trkpt lat="46.58014" lon="-1.83505">
        <ele>9.7</ele>
        <time>2020-06-03T14:55:48Z</time>
      </trkpt>
      <trkpt lat="46.58016" lon="-1.83512">
        <ele>9.7</ele>
        <time>2020-06-03T14:55:49Z</time>
      </trkpt>
      <trkpt lat="46.58017" lon="-1.8352">
        <ele>9.6</ele>
        <time>2020-06-03T14:55:50Z</time>
      </trkpt>
      <trkpt lat="46.58019" lon="-1.83528">
        <ele>9.6</ele>
        <time>2020-06-03T14:55:51Z</time>
      </trkpt>
      <trkpt lat="46.58021" lon="-1.83534">
        <ele>9.5</ele>
        <time>2020-06-03T14:55:52Z</time>
      </trkpt>
      <trkpt lat="46.58023" lon="-1.8354">
        <ele>9.5</ele>
        <time>2020-06-03T14:55:53Z</time>
      </trkpt>
      <trkpt lat="46.58025" lon="-1.83546">
        <ele>9.5</ele>
        <time>2020-06-03T14:55:54Z</time>
      </trkpt>
      <trkpt lat="46.58028" lon="-1.83552">
        <ele>9.5</ele>
        <time>2020-06-03T14:55:55Z</time>
      </trkpt>
      <trkpt lat="46.58031" lon="-1.83558">
        <ele>9.5</ele>
        <time>2020-06-03T14:55:56Z</time>
      </trkpt>
      <trkpt lat="46.58033" lon="-1.83564">
        <ele>9.5</ele>
        <time>2020-06-03T14:55:57Z</time>
      </trkpt>
      <trkpt lat="46.58035" lon="-1.8357">
        <ele>9.4</ele>
        <time>2020-06-03T14:55:58Z</time>
      </trkpt>
      <trkpt lat="46.58037" lon="-1.83576">
        <ele>9.4</ele>
        <time>2020-06-03T14:55:59Z</time>
      </trkpt>
      <trkpt lat="46.58038" lon="-1.83582">
        <ele>9.4</ele>
        <time>2020-06-03T14:56:00Z</time>
      </trkpt>
      <trkpt lat="46.5804" lon="-1.83589">
        <ele>9.4</ele>
        <time>2020-06-03T14:56:01Z</time>
      </trkpt>
      <trkpt lat="46.58042" lon="-1.83596">
        <ele>9.4</ele>
        <time>2020-06-03T14:56:02Z</time>
      </trkpt>
      <trkpt lat="46.58044" lon="-1.83602">
        <ele>9.4</ele>
        <time>2020-06-03T14:56:03Z</time>
      </trkpt>
      <trkpt lat="46.58045" lon="-1.83608">
        <ele>9.4</ele>
        <time>2020-06-03T14:56:04Z</time>
      </trkpt>
      <trkpt lat="46.58046" lon="-1.83615">
        <ele>9.4</ele>
        <time>2020-06-03T14:56:05Z</time>
      </trkpt>
      <trkpt lat="46.58048" lon="-1.8362">
        <ele>9.4</ele>
        <time>2020-06-03T14:56:06Z</time>
      </trkpt>
      <trkpt lat="46.5805" lon="-1.83624">
        <ele>9.4</ele>
        <time>2020-06-03T14:56:07Z</time>
      </trkpt>
      <trkpt lat="46.58052" lon="-1.83629">
        <ele>9.4</ele>
        <time>2020-06-03T14:56:08Z</time>
      </trkpt>
      <trkpt lat="46.58053" lon="-1.83633">
        <ele>9.4</ele>
        <time>2020-06-03T14:56:09Z</time>
      </trkpt>
      <trkpt lat="46.58056" lon="-1.83639">
        <ele>9.4</ele>
        <time>2020-06-03T14:56:10Z</time>
      </trkpt>
      <trkpt lat="46.58058" lon="-1.83645">
        <ele>9.4</ele>
        <time>2020-06-03T14:56:11Z</time>
      </trkpt>
      <trkpt lat="46.58061" lon="-1.83651">
        <ele>9.4</ele>
        <time>2020-06-03T14:56:12Z</time>
      </trkpt>
      <trkpt lat="46.58064" lon="-1.83656">
        <ele>9.4</ele>
        <time>2020-06-03T14:56:13Z</time>
      </trkpt>
      <trkpt lat="46.58066" lon="-1.83663">
        <ele>9.4</ele>
        <time>2020-06-03T14:56:14Z</time>
      </trkpt>
      <trkpt lat="46.58068" lon="-1.8367">
        <ele>9.3</ele>
        <time>2020-06-03T14:56:15Z</time>
      </trkpt>
      <trkpt lat="46.58071" lon="-1.83676">
        <ele>9.3</ele>
        <time>2020-06-03T14:56:16Z</time>
      </trkpt>
      <trkpt lat="46.58073" lon="-1.83682">
        <ele>9.2</ele>
        <time>2020-06-03T14:56:17Z</time>
      </trkpt>
      <trkpt lat="46.58076" lon="-1.83687">
        <ele>9.2</ele>
        <time>2020-06-03T14:56:18Z</time>
      </trkpt>
      <trkpt lat="46.58079" lon="-1.83692">
        <ele>9.1</ele>
        <time>2020-06-03T14:56:19Z</time>
      </trkpt>
      <trkpt lat="46.58083" lon="-1.83697">
        <ele>9</ele>
        <time>2020-06-03T14:56:20Z</time>
      </trkpt>
      <trkpt lat="46.58085" lon="-1.83703">
        <ele>8.9</ele>
        <time>2020-06-03T14:56:21Z</time>
      </trkpt>
      <trkpt lat="46.58089" lon="-1.83706">
        <ele>8.9</ele>
        <time>2020-06-03T14:56:22Z</time>
      </trkpt>
      <trkpt lat="46.58091" lon="-1.8371">
        <ele>8.8</ele>
        <time>2020-06-03T14:56:23Z</time>
      </trkpt>
      <trkpt lat="46.58094" lon="-1.83714">
        <ele>8.7</ele>
        <time>2020-06-03T14:56:24Z</time>
      </trkpt>
      <trkpt lat="46.58095" lon="-1.83718">
        <ele>8.6</ele>
        <time>2020-06-03T14:56:25Z</time>
      </trkpt>
      <trkpt lat="46.58097" lon="-1.83722">
        <ele>8.5</ele>
        <time>2020-06-03T14:56:26Z</time>
      </trkpt>
      <trkpt lat="46.58099" lon="-1.83723">
        <ele>8.4</ele>
        <time>2020-06-03T14:56:27Z</time>
      </trkpt>
      <trkpt lat="46.581" lon="-1.83724">
        <ele>8.3</ele>
        <time>2020-06-03T14:56:28Z</time>
      </trkpt>
      <trkpt lat="46.58102" lon="-1.83722">
        <ele>8.2</ele>
        <time>2020-06-03T14:56:29Z</time>
      </trkpt>
      <trkpt lat="46.58103" lon="-1.83721">
        <ele>8.1</ele>
        <time>2020-06-03T14:56:30Z</time>
      </trkpt>
      <trkpt lat="46.58107" lon="-1.83718">
        <ele>7.9</ele>
        <time>2020-06-03T14:56:31Z</time>
      </trkpt>
      <trkpt lat="46.58111" lon="-1.83716">
        <ele>7.7</ele>
        <time>2020-06-03T14:56:32Z</time>
      </trkpt>
      <trkpt lat="46.58117" lon="-1.83715">
        <ele>7.3</ele>
        <time>2020-06-03T14:56:33Z</time>
      </trkpt>
      <trkpt lat="46.58125" lon="-1.83714">
        <ele>7</ele>
        <time>2020-06-03T14:56:34Z</time>
      </trkpt>
      <trkpt lat="46.58133" lon="-1.83713">
        <ele>6.7</ele>
        <time>2020-06-03T14:56:35Z</time>
      </trkpt>
      <trkpt lat="46.58142" lon="-1.83713">
        <ele>6.5</ele>
        <time>2020-06-03T14:56:36Z</time>
      </trkpt>
      <trkpt lat="46.5815" lon="-1.83714">
        <ele>6.5</ele>
        <time>2020-06-03T14:56:37Z</time>
      </trkpt>
      <trkpt lat="46.58158" lon="-1.83715">
        <ele>6.6</ele>
        <time>2020-06-03T14:56:38Z</time>
      </trkpt>
      <trkpt lat="46.58164" lon="-1.83714">
        <ele>6.8</ele>
        <time>2020-06-03T14:56:39Z</time>
      </trkpt>
      <trkpt lat="46.58171" lon="-1.83715">
        <ele>7</ele>
        <time>2020-06-03T14:56:40Z</time>
      </trkpt>
      <trkpt lat="46.58178" lon="-1.83716">
        <ele>7.2</ele>
        <time>2020-06-03T14:56:41Z</time>
      </trkpt>
      <trkpt lat="46.58185" lon="-1.83716">
        <ele>7.3</ele>
        <time>2020-06-03T14:56:42Z</time>
      </trkpt>
      <trkpt lat="46.58191" lon="-1.83717">
        <ele>7.5</ele>
        <time>2020-06-03T14:56:43Z</time>
      </trkpt>
      <trkpt lat="46.58197" lon="-1.83717">
        <ele>7.5</ele>
        <time>2020-06-03T14:56:44Z</time>
      </trkpt>
      <trkpt lat="46.58203" lon="-1.83718">
        <ele>7.5</ele>
        <time>2020-06-03T14:56:45Z</time>
      </trkpt>
      <trkpt lat="46.58207" lon="-1.83718">
        <ele>7.4</ele>
        <time>2020-06-03T14:56:46Z</time>
      </trkpt>
      <trkpt lat="46.58212" lon="-1.83719">
        <ele>7.2</ele>
        <time>2020-06-03T14:56:47Z</time>
      </trkpt>
      <trkpt lat="46.58217" lon="-1.8372">
        <ele>7</ele>
        <time>2020-06-03T14:56:48Z</time>
      </trkpt>
      <trkpt lat="46.58222" lon="-1.83723">
        <ele>6.7</ele>
        <time>2020-06-03T14:56:49Z</time>
      </trkpt>
      <trkpt lat="46.58228" lon="-1.83727">
        <ele>6.4</ele>
        <time>2020-06-03T14:56:50Z</time>
      </trkpt>
      <trkpt lat="46.58234" lon="-1.83734">
        <ele>6.1</ele>
        <time>2020-06-03T14:56:51Z</time>
      </trkpt>
      <trkpt lat="46.58238" lon="-1.83742">
        <ele>5.9</ele>
        <time>2020-06-03T14:56:52Z</time>
      </trkpt>
      <trkpt lat="46.58242" lon="-1.83751">
        <ele>5.7</ele>
        <time>2020-06-03T14:56:53Z</time>
      </trkpt>
      <trkpt lat="46.58244" lon="-1.83759">
        <ele>5.6</ele>
        <time>2020-06-03T14:56:54Z</time>
      </trkpt>
      <trkpt lat="46.58246" lon="-1.83765">
        <ele>5.5</ele>
        <time>2020-06-03T14:56:55Z</time>
      </trkpt>
      <trkpt lat="46.5825" lon="-1.83772">
        <ele>5.5</ele>
        <time>2020-06-03T14:56:56Z</time>
      </trkpt>
      <trkpt lat="46.58253" lon="-1.83776">
        <ele>5.5</ele>
        <time>2020-06-03T14:56:57Z</time>
      </trkpt>
      <trkpt lat="46.58257" lon="-1.8378">
        <ele>5.5</ele>
        <time>2020-06-03T14:56:58Z</time>
      </trkpt>
      <trkpt lat="46.5826" lon="-1.83781">
        <ele>5.5</ele>
        <time>2020-06-03T14:56:59Z</time>
      </trkpt>
      <trkpt lat="46.58264" lon="-1.83781">
        <ele>5.5</ele>
        <time>2020-06-03T14:57:00Z</time>
      </trkpt>
      <trkpt lat="46.58267" lon="-1.83781">
        <ele>5.5</ele>
        <time>2020-06-03T14:57:01Z</time>
      </trkpt>
      <trkpt lat="46.58271" lon="-1.8378">
        <ele>5.5</ele>
        <time>2020-06-03T14:57:02Z</time>
      </trkpt>
      <trkpt lat="46.58272" lon="-1.83779">
        <ele>5.5</ele>
        <time>2020-06-03T14:57:03Z</time>
      </trkpt>
      <trkpt lat="46.58275" lon="-1.83777">
        <ele>5.5</ele>
        <time>2020-06-03T14:57:04Z</time>
      </trkpt>
      <trkpt lat="46.58279" lon="-1.83775">
        <ele>5.5</ele>
        <time>2020-06-03T14:57:05Z</time>
      </trkpt>
      <trkpt lat="46.58284" lon="-1.83773">
        <ele>5.5</ele>
        <time>2020-06-03T14:57:06Z</time>
      </trkpt>
      <trkpt lat="46.5829" lon="-1.8377">
        <ele>5.6</ele>
        <time>2020-06-03T14:57:07Z</time>
      </trkpt>
      <trkpt lat="46.58296" lon="-1.83766">
        <ele>5.6</ele>
        <time>2020-06-03T14:57:08Z</time>
      </trkpt>
      <trkpt lat="46.58301" lon="-1.83765">
        <ele>5.7</ele>
        <time>2020-06-03T14:57:09Z</time>
      </trkpt>
      <trkpt lat="46.58305" lon="-1.83764">
        <ele>5.7</ele>
        <time>2020-06-03T14:57:10Z</time>
      </trkpt>
      <trkpt lat="46.58309" lon="-1.83765">
        <ele>5.7</ele>
        <time>2020-06-03T14:57:11Z</time>
      </trkpt>
      <trkpt lat="46.58312" lon="-1.83766">
        <ele>5.7</ele>
        <time>2020-06-03T14:57:12Z</time>
      </trkpt>
      <trkpt lat="46.58315" lon="-1.83767">
        <ele>5.8</ele>
        <time>2020-06-03T14:57:13Z</time>
      </trkpt>
      <trkpt lat="46.5832" lon="-1.83767">
        <ele>5.8</ele>
        <time>2020-06-03T14:57:14Z</time>
      </trkpt>
      <trkpt lat="46.58324" lon="-1.83768">
        <ele>5.8</ele>
        <time>2020-06-03T14:57:15Z</time>
      </trkpt>
      <trkpt lat="46.58328" lon="-1.83768">
        <ele>5.8</ele>
        <time>2020-06-03T14:57:16Z</time>
      </trkpt>
      <trkpt lat="46.58335" lon="-1.83768">
        <ele>5.8</ele>
        <time>2020-06-03T14:57:17Z</time>
      </trkpt>
      <trkpt lat="46.5834" lon="-1.83768">
        <ele>5.8</ele>
        <time>2020-06-03T14:57:18Z</time>
      </trkpt>
      <trkpt lat="46.58346" lon="-1.83769">
        <ele>5.8</ele>
        <time>2020-06-03T14:57:19Z</time>
      </trkpt>
      <trkpt lat="46.58351" lon="-1.83771">
        <ele>5.8</ele>
        <time>2020-06-03T14:57:20Z</time>
      </trkpt>
      <trkpt lat="46.58356" lon="-1.83775">
        <ele>5.8</ele>
        <time>2020-06-03T14:57:21Z</time>
      </trkpt>
      <trkpt lat="46.5836" lon="-1.83779">
        <ele>5.8</ele>
        <time>2020-06-03T14:57:22Z</time>
      </trkpt>
      <trkpt lat="46.58364" lon="-1.83783">
        <ele>5.8</ele>
        <time>2020-06-03T14:57:23Z</time>
      </trkpt>
      <trkpt lat="46.58368" lon="-1.83787">
        <ele>5.7</ele>
        <time>2020-06-03T14:57:24Z</time>
      </trkpt>
      <trkpt lat="46.58373" lon="-1.8379">
        <ele>5.7</ele>
        <time>2020-06-03T14:57:25Z</time>
      </trkpt>
      <trkpt lat="46.58377" lon="-1.83793">
        <ele>5.7</ele>
        <time>2020-06-03T14:57:26Z</time>
      </trkpt>
      <trkpt lat="46.58381" lon="-1.83798">
        <ele>5.6</ele>
        <time>2020-06-03T14:57:27Z</time>
      </trkpt>
      <trkpt lat="46.58384" lon="-1.83803">
        <ele>5.6</ele>
        <time>2020-06-03T14:57:28Z</time>
      </trkpt>
      <trkpt lat="46.58387" lon="-1.83808">
        <ele>5.5</ele>
        <time>2020-06-03T14:57:29Z</time>
      </trkpt>
      <trkpt lat="46.58391" lon="-1.83815">
        <ele>5.5</ele>
        <time>2020-06-03T14:57:30Z</time>
      </trkpt>
      <trkpt lat="46.58394" lon="-1.83819">
        <ele>5.4</ele>
        <time>2020-06-03T14:57:31Z</time>
      </trkpt>
      <trkpt lat="46.58397" lon="-1.83824">
        <ele>5.4</ele>
        <time>2020-06-03T14:57:32Z</time>
      </trkpt>
      <trkpt lat="46.584" lon="-1.83826">
        <ele>5.3</ele>
        <time>2020-06-03T14:57:33Z</time>
      </trkpt>
      <trkpt lat="46.58404" lon="-1.83829">
        <ele>5.3</ele>
        <time>2020-06-03T14:57:34Z</time>
      </trkpt>
      <trkpt lat="46.58405" lon="-1.83834">
        <ele>5.3</ele>
        <time>2020-06-03T14:57:35Z</time>
      </trkpt>
      <trkpt lat="46.58408" lon="-1.8384">
        <ele>5.3</ele>
        <time>2020-06-03T14:57:36Z</time>
      </trkpt>
      <trkpt lat="46.5841" lon="-1.83845">
        <ele>5.3</ele>
        <time>2020-06-03T14:57:37Z</time>
      </trkpt>
      <trkpt lat="46.58412" lon="-1.83849">
        <ele>5.3</ele>
        <time>2020-06-03T14:57:38Z</time>
      </trkpt>
      <trkpt lat="46.58413" lon="-1.83854">
        <ele>5.2</ele>
        <time>2020-06-03T14:57:39Z</time>
      </trkpt>
      <trkpt lat="46.58415" lon="-1.83859">
        <ele>5.2</ele>
        <time>2020-06-03T14:57:40Z</time>
      </trkpt>
      <trkpt lat="46.58417" lon="-1.83863">
        <ele>5.2</ele>
        <time>2020-06-03T14:57:41Z</time>
      </trkpt>
      <trkpt lat="46.5842" lon="-1.83868">
        <ele>5.2</ele>
        <time>2020-06-03T14:57:42Z</time>
      </trkpt>
      <trkpt lat="46.58422" lon="-1.83873">
        <ele>5.2</ele>
        <time>2020-06-03T14:57:43Z</time>
      </trkpt>
      <trkpt lat="46.58426" lon="-1.83878">
        <ele>5.2</ele>
        <time>2020-06-03T14:57:44Z</time>
      </trkpt>
      <trkpt lat="46.5843" lon="-1.83885">
        <ele>5.1</ele>
        <time>2020-06-03T14:57:45Z</time>
      </trkpt>
      <trkpt lat="46.58433" lon="-1.83892">
        <ele>5.1</ele>
        <time>2020-06-03T14:57:46Z</time>
      </trkpt>
      <trkpt lat="46.58436" lon="-1.83898">
        <ele>5</ele>
        <time>2020-06-03T14:57:47Z</time>
      </trkpt>
      <trkpt lat="46.58438" lon="-1.83903">
        <ele>5</ele>
        <time>2020-06-03T14:57:48Z</time>
      </trkpt>
      <trkpt lat="46.58441" lon="-1.83905">
        <ele>5</ele>
        <time>2020-06-03T14:57:49Z</time>
      </trkpt>
      <trkpt lat="46.58444" lon="-1.83909">
        <ele>4.9</ele>
        <time>2020-06-03T14:57:50Z</time>
      </trkpt>
      <trkpt lat="46.58448" lon="-1.83912">
        <ele>4.9</ele>
        <time>2020-06-03T14:57:51Z</time>
      </trkpt>
      <trkpt lat="46.58453" lon="-1.83915">
        <ele>4.9</ele>
        <time>2020-06-03T14:57:52Z</time>
      </trkpt>
      <trkpt lat="46.58458" lon="-1.83919">
        <ele>4.8</ele>
        <time>2020-06-03T14:57:53Z</time>
      </trkpt>
      <trkpt lat="46.58464" lon="-1.83923">
        <ele>4.8</ele>
        <time>2020-06-03T14:57:54Z</time>
      </trkpt>
      <trkpt lat="46.58469" lon="-1.83927">
        <ele>4.8</ele>
        <time>2020-06-03T14:57:55Z</time>
      </trkpt>
      <trkpt lat="46.58474" lon="-1.8393">
        <ele>4.8</ele>
        <time>2020-06-03T14:57:56Z</time>
      </trkpt>
      <trkpt lat="46.58479" lon="-1.83933">
        <ele>4.8</ele>
        <time>2020-06-03T14:57:57Z</time>
      </trkpt>
      <trkpt lat="46.58484" lon="-1.83934">
        <ele>4.8</ele>
        <time>2020-06-03T14:57:58Z</time>
      </trkpt>
      <trkpt lat="46.5849" lon="-1.83936">
        <ele>4.8</ele>
        <time>2020-06-03T14:57:59Z</time>
      </trkpt>
      <trkpt lat="46.58495" lon="-1.83938">
        <ele>4.8</ele>
        <time>2020-06-03T14:58:00Z</time>
      </trkpt>
      <trkpt lat="46.585" lon="-1.8394">
        <ele>4.8</ele>
        <time>2020-06-03T14:58:01Z</time>
      </trkpt>
      <trkpt lat="46.58505" lon="-1.83941">
        <ele>4.8</ele>
        <time>2020-06-03T14:58:02Z</time>
      </trkpt>
      <trkpt lat="46.5851" lon="-1.83943">
        <ele>4.7</ele>
        <time>2020-06-03T14:58:03Z</time>
      </trkpt>
      <trkpt lat="46.58515" lon="-1.83944">
        <ele>4.7</ele>
        <time>2020-06-03T14:58:04Z</time>
      </trkpt>
      <trkpt lat="46.58518" lon="-1.83945">
        <ele>4.7</ele>
        <time>2020-06-03T14:58:05Z</time>
      </trkpt>
      <trkpt lat="46.58521" lon="-1.83947">
        <ele>4.7</ele>
        <time>2020-06-03T14:58:06Z</time>
      </trkpt>
      <trkpt lat="46.58524" lon="-1.83948">
        <ele>4.7</ele>
        <time>2020-06-03T14:58:07Z</time>
      </trkpt>
      <trkpt lat="46.58527" lon="-1.8395">
        <ele>4.7</ele>
        <time>2020-06-03T14:58:08Z</time>
      </trkpt>
      <trkpt lat="46.5853" lon="-1.83951">
        <ele>4.7</ele>
        <time>2020-06-03T14:58:09Z</time>
      </trkpt>
      <trkpt lat="46.58536" lon="-1.83951">
        <ele>4.7</ele>
        <time>2020-06-03T14:58:10Z</time>
      </trkpt>
      <trkpt lat="46.5854" lon="-1.8395">
        <ele>4.6</ele>
        <time>2020-06-03T14:58:11Z</time>
      </trkpt>
      <trkpt lat="46.58544" lon="-1.8395">
        <ele>4.6</ele>
        <time>2020-06-03T14:58:12Z</time>
      </trkpt>
      <trkpt lat="46.58549" lon="-1.83949">
        <ele>4.5</ele>
        <time>2020-06-03T14:58:13Z</time>
      </trkpt>
      <trkpt lat="46.58555" lon="-1.83948">
        <ele>4.4</ele>
        <time>2020-06-03T14:58:14Z</time>
      </trkpt>
      <trkpt lat="46.58561" lon="-1.83948">
        <ele>4.3</ele>
        <time>2020-06-03T14:58:15Z</time>
      </trkpt>
      <trkpt lat="46.58567" lon="-1.83947">
        <ele>4.2</ele>
        <time>2020-06-03T14:58:16Z</time>
      </trkpt>
      <trkpt lat="46.58572" lon="-1.83946">
        <ele>4.1</ele>
        <time>2020-06-03T14:58:17Z</time>
      </trkpt>
      <trkpt lat="46.58577" lon="-1.83944">
        <ele>4.1</ele>
        <time>2020-06-03T14:58:18Z</time>
      </trkpt>
      <trkpt lat="46.58583" lon="-1.83942">
        <ele>4</ele>
        <time>2020-06-03T14:58:19Z</time>
      </trkpt>
      <trkpt lat="46.58589" lon="-1.83939">
        <ele>4</ele>
        <time>2020-06-03T14:58:20Z</time>
      </trkpt>
      <trkpt lat="46.58594" lon="-1.83935">
        <ele>4</ele>
        <time>2020-06-03T14:58:21Z</time>
      </trkpt>
      <trkpt lat="46.58598" lon="-1.83932">
        <ele>4</ele>
        <time>2020-06-03T14:58:22Z</time>
      </trkpt>
      <trkpt lat="46.58601" lon="-1.8393">
        <ele>4</ele>
        <time>2020-06-03T14:58:23Z</time>
      </trkpt>
      <trkpt lat="46.58603" lon="-1.83928">
        <ele>4</ele>
        <time>2020-06-03T14:58:24Z</time>
      </trkpt>
      <trkpt lat="46.58607" lon="-1.83926">
        <ele>4</ele>
        <time>2020-06-03T14:58:25Z</time>
      </trkpt>
      <trkpt lat="46.5861" lon="-1.83924">
        <ele>4</ele>
        <time>2020-06-03T14:58:26Z</time>
      </trkpt>
      <trkpt lat="46.58611" lon="-1.83923">
        <ele>4</ele>
        <time>2020-06-03T14:58:27Z</time>
      </trkpt>
      <trkpt lat="46.58614" lon="-1.83922">
        <ele>4</ele>
        <time>2020-06-03T14:58:28Z</time>
      </trkpt>
      <trkpt lat="46.58617" lon="-1.8392">
        <ele>4</ele>
        <time>2020-06-03T14:58:29Z</time>
      </trkpt>
      <trkpt lat="46.5862" lon="-1.83918">
        <ele>4</ele>
        <time>2020-06-03T14:58:30Z</time>
      </trkpt>
      <trkpt lat="46.58624" lon="-1.83915">
        <ele>4</ele>
        <time>2020-06-03T14:58:31Z</time>
      </trkpt>
      <trkpt lat="46.58627" lon="-1.83911">
        <ele>4</ele>
        <time>2020-06-03T14:58:32Z</time>
      </trkpt>
      <trkpt lat="46.58631" lon="-1.83909">
        <ele>4</ele>
        <time>2020-06-03T14:58:33Z</time>
      </trkpt>
      <trkpt lat="46.58634" lon="-1.83908">
        <ele>4</ele>
        <time>2020-06-03T14:58:34Z</time>
      </trkpt>
      <trkpt lat="46.58636" lon="-1.83907">
        <ele>4</ele>
        <time>2020-06-03T14:58:35Z</time>
      </trkpt>
      <trkpt lat="46.58638" lon="-1.83905">
        <ele>4</ele>
        <time>2020-06-03T14:58:36Z</time>
      </trkpt>
      <trkpt lat="46.5864" lon="-1.83904">
        <ele>3.9</ele>
        <time>2020-06-03T14:58:37Z</time>
      </trkpt>
      <trkpt lat="46.58642" lon="-1.83903">
        <ele>3.9</ele>
        <time>2020-06-03T14:58:38Z</time>
      </trkpt>
      <trkpt lat="46.58646" lon="-1.83901">
        <ele>3.9</ele>
        <time>2020-06-03T14:58:39Z</time>
      </trkpt>
      <trkpt lat="46.58649" lon="-1.839">
        <ele>3.9</ele>
        <time>2020-06-03T14:58:40Z</time>
      </trkpt>
      <trkpt lat="46.58654" lon="-1.83898">
        <ele>3.9</ele>
        <time>2020-06-03T14:58:41Z</time>
      </trkpt>
      <trkpt lat="46.58657" lon="-1.83896">
        <ele>3.9</ele>
        <time>2020-06-03T14:58:42Z</time>
      </trkpt>
      <trkpt lat="46.58661" lon="-1.83894">
        <ele>3.9</ele>
        <time>2020-06-03T14:58:43Z</time>
      </trkpt>
      <trkpt lat="46.58664" lon="-1.83894">
        <ele>3.8</ele>
        <time>2020-06-03T14:58:44Z</time>
      </trkpt>
      <trkpt lat="46.58669" lon="-1.83895">
        <ele>3.8</ele>
        <time>2020-06-03T14:58:45Z</time>
      </trkpt>
      <trkpt lat="46.58673" lon="-1.83895">
        <ele>3.8</ele>
        <time>2020-06-03T14:58:46Z</time>
      </trkpt>
      <trkpt lat="46.58678" lon="-1.83893">
        <ele>3.8</ele>
        <time>2020-06-03T14:58:47Z</time>
      </trkpt>
      <trkpt lat="46.58682" lon="-1.83892">
        <ele>3.7</ele>
        <time>2020-06-03T14:58:48Z</time>
      </trkpt>
      <trkpt lat="46.58687" lon="-1.8389">
        <ele>3.7</ele>
        <time>2020-06-03T14:58:49Z</time>
      </trkpt>
      <trkpt lat="46.58691" lon="-1.83888">
        <ele>3.7</ele>
        <time>2020-06-03T14:58:50Z</time>
      </trkpt>
      <trkpt lat="46.58696" lon="-1.83886">
        <ele>3.7</ele>
        <time>2020-06-03T14:58:51Z</time>
      </trkpt>
      <trkpt lat="46.587" lon="-1.83884">
        <ele>3.6</ele>
        <time>2020-06-03T14:58:52Z</time>
      </trkpt>
      <trkpt lat="46.58704" lon="-1.83882">
        <ele>3.6</ele>
        <time>2020-06-03T14:58:53Z</time>
      </trkpt>
      <trkpt lat="46.58709" lon="-1.8388">
        <ele>3.6</ele>
        <time>2020-06-03T14:58:54Z</time>
      </trkpt>
      <trkpt lat="46.58715" lon="-1.83877">
        <ele>3.6</ele>
        <time>2020-06-03T14:58:55Z</time>
      </trkpt>
      <trkpt lat="46.58722" lon="-1.83872">
        <ele>3.6</ele>
        <time>2020-06-03T14:58:56Z</time>
      </trkpt>
      <trkpt lat="46.58729" lon="-1.83868">
        <ele>3.6</ele>
        <time>2020-06-03T14:58:57Z</time>
      </trkpt>
      <trkpt lat="46.58736" lon="-1.83864">
        <ele>3.6</ele>
        <time>2020-06-03T14:58:58Z</time>
      </trkpt>
      <trkpt lat="46.58743" lon="-1.83862">
        <ele>3.6</ele>
        <time>2020-06-03T14:58:59Z</time>
      </trkpt>
      <trkpt lat="46.5875" lon="-1.83859">
        <ele>3.6</ele>
        <time>2020-06-03T14:59:00Z</time>
      </trkpt>
      <trkpt lat="46.58755" lon="-1.83857">
        <ele>3.6</ele>
        <time>2020-06-03T14:59:01Z</time>
      </trkpt>
      <trkpt lat="46.5876" lon="-1.83854">
        <ele>3.6</ele>
        <time>2020-06-03T14:59:02Z</time>
      </trkpt>
      <trkpt lat="46.58766" lon="-1.83852">
        <ele>3.6</ele>
        <time>2020-06-03T14:59:03Z</time>
      </trkpt>
      <trkpt lat="46.58771" lon="-1.8385">
        <ele>3.6</ele>
        <time>2020-06-03T14:59:04Z</time>
      </trkpt>
      <trkpt lat="46.58776" lon="-1.83849">
        <ele>3.6</ele>
        <time>2020-06-03T14:59:05Z</time>
      </trkpt>
      <trkpt lat="46.5878" lon="-1.83848">
        <ele>3.6</ele>
        <time>2020-06-03T14:59:06Z</time>
      </trkpt>
      <trkpt lat="46.58784" lon="-1.83847">
        <ele>3.6</ele>
        <time>2020-06-03T14:59:07Z</time>
      </trkpt>
      <trkpt lat="46.58787" lon="-1.83846">
        <ele>3.6</ele>
        <time>2020-06-03T14:59:08Z</time>
      </trkpt>
      <trkpt lat="46.58791" lon="-1.83845">
        <ele>3.6</ele>
        <time>2020-06-03T14:59:09Z</time>
      </trkpt>
      <trkpt lat="46.58796" lon="-1.83843">
        <ele>3.6</ele>
        <time>2020-06-03T14:59:10Z</time>
      </trkpt>
      <trkpt lat="46.58801" lon="-1.83842">
        <ele>3.6</ele>
        <time>2020-06-03T14:59:11Z</time>
      </trkpt>
      <trkpt lat="46.58808" lon="-1.8384">
        <ele>3.6</ele>
        <time>2020-06-03T14:59:12Z</time>
      </trkpt>
      <trkpt lat="46.58814" lon="-1.83839">
        <ele>3.6</ele>
        <time>2020-06-03T14:59:13Z</time>
      </trkpt>
      <trkpt lat="46.5882" lon="-1.83837">
        <ele>3.6</ele>
        <time>2020-06-03T14:59:14Z</time>
      </trkpt>
      <trkpt lat="46.58829" lon="-1.83835">
        <ele>3.6</ele>
        <time>2020-06-03T14:59:15Z</time>
      </trkpt>
      <trkpt lat="46.58835" lon="-1.83833">
        <ele>3.6</ele>
        <time>2020-06-03T14:59:16Z</time>
      </trkpt>
      <trkpt lat="46.5884" lon="-1.83832">
        <ele>3.6</ele>
        <time>2020-06-03T14:59:17Z</time>
      </trkpt>
      <trkpt lat="46.58844" lon="-1.83828">
        <ele>3.6</ele>
        <time>2020-06-03T14:59:18Z</time>
      </trkpt>
      <trkpt lat="46.58851" lon="-1.83824">
        <ele>3.6</ele>
        <time>2020-06-03T14:59:19Z</time>
      </trkpt>
      <trkpt lat="46.58857" lon="-1.83821">
        <ele>3.6</ele>
        <time>2020-06-03T14:59:20Z</time>
      </trkpt>
      <trkpt lat="46.58862" lon="-1.83818">
        <ele>3.6</ele>
        <time>2020-06-03T14:59:21Z</time>
      </trkpt>
      <trkpt lat="46.58868" lon="-1.83816">
        <ele>3.6</ele>
        <time>2020-06-03T14:59:22Z</time>
      </trkpt>
      <trkpt lat="46.58872" lon="-1.83813">
        <ele>3.6</ele>
        <time>2020-06-03T14:59:23Z</time>
      </trkpt>
      <trkpt lat="46.58879" lon="-1.83812">
        <ele>3.6</ele>
        <time>2020-06-03T14:59:24Z</time>
      </trkpt>
      <trkpt lat="46.58885" lon="-1.8381">
        <ele>3.6</ele>
        <time>2020-06-03T14:59:25Z</time>
      </trkpt>
      <trkpt lat="46.58891" lon="-1.83808">
        <ele>3.7</ele>
        <time>2020-06-03T14:59:26Z</time>
      </trkpt>
      <trkpt lat="46.58895" lon="-1.83805">
        <ele>3.7</ele>
        <time>2020-06-03T14:59:27Z</time>
      </trkpt>
      <trkpt lat="46.58901" lon="-1.83802">
        <ele>3.7</ele>
        <time>2020-06-03T14:59:28Z</time>
      </trkpt>
      <trkpt lat="46.58905" lon="-1.838">
        <ele>3.7</ele>
        <time>2020-06-03T14:59:29Z</time>
      </trkpt>
      <trkpt lat="46.5891" lon="-1.83798">
        <ele>3.7</ele>
        <time>2020-06-03T14:59:30Z</time>
      </trkpt>
      <trkpt lat="46.58914" lon="-1.83795">
        <ele>3.7</ele>
        <time>2020-06-03T14:59:31Z</time>
      </trkpt>
      <trkpt lat="46.58918" lon="-1.83793">
        <ele>3.7</ele>
        <time>2020-06-03T14:59:32Z</time>
      </trkpt>
      <trkpt lat="46.58923" lon="-1.8379">
        <ele>3.7</ele>
        <time>2020-06-03T14:59:33Z</time>
      </trkpt>
      <trkpt lat="46.58927" lon="-1.83788">
        <ele>3.7</ele>
        <time>2020-06-03T14:59:34Z</time>
      </trkpt>
      <trkpt lat="46.58932" lon="-1.83785">
        <ele>3.7</ele>
        <time>2020-06-03T14:59:35Z</time>
      </trkpt>
      <trkpt lat="46.58937" lon="-1.83783">
        <ele>3.7</ele>
        <time>2020-06-03T14:59:36Z</time>
      </trkpt>
      <trkpt lat="46.58943" lon="-1.83781">
        <ele>3.7</ele>
        <time>2020-06-03T14:59:37Z</time>
      </trkpt>
      <trkpt lat="46.58948" lon="-1.83778">
        <ele>3.7</ele>
        <time>2020-06-03T14:59:38Z</time>
      </trkpt>
      <trkpt lat="46.58954" lon="-1.83776">
        <ele>3.6</ele>
        <time>2020-06-03T14:59:39Z</time>
      </trkpt>
      <trkpt lat="46.58959" lon="-1.83774">
        <ele>3.6</ele>
        <time>2020-06-03T14:59:40Z</time>
      </trkpt>
      <trkpt lat="46.58965" lon="-1.83772">
        <ele>3.5</ele>
        <time>2020-06-03T14:59:41Z</time>
      </trkpt>
      <trkpt lat="46.58971" lon="-1.83771">
        <ele>3.4</ele>
        <time>2020-06-03T14:59:42Z</time>
      </trkpt>
      <trkpt lat="46.58976" lon="-1.83769">
        <ele>3.3</ele>
        <time>2020-06-03T14:59:43Z</time>
      </trkpt>
      <trkpt lat="46.58981" lon="-1.83768">
        <ele>3.3</ele>
        <time>2020-06-03T14:59:44Z</time>
      </trkpt>
      <trkpt lat="46.58985" lon="-1.83766">
        <ele>3.2</ele>
        <time>2020-06-03T14:59:45Z</time>
      </trkpt>
      <trkpt lat="46.5899" lon="-1.83764">
        <ele>3.2</ele>
        <time>2020-06-03T14:59:46Z</time>
      </trkpt>
      <trkpt lat="46.58995" lon="-1.83763">
        <ele>3.2</ele>
        <time>2020-06-03T14:59:47Z</time>
      </trkpt>
      <trkpt lat="46.58999" lon="-1.83761">
        <ele>3</ele>
        <time>2020-06-03T14:59:48Z</time>
      </trkpt>
      <trkpt lat="46.59004" lon="-1.83759">
        <ele>3</ele>
        <time>2020-06-03T14:59:49Z</time>
      </trkpt>
      <trkpt lat="46.59009" lon="-1.83756">
        <ele>3</ele>
        <time>2020-06-03T14:59:50Z</time>
      </trkpt>
      <trkpt lat="46.59013" lon="-1.83754">
        <ele>3</ele>
        <time>2020-06-03T14:59:51Z</time>
      </trkpt>
      <trkpt lat="46.59018" lon="-1.83752">
        <ele>3</ele>
        <time>2020-06-03T14:59:52Z</time>
      </trkpt>
      <trkpt lat="46.59022" lon="-1.83749">
        <ele>3</ele>
        <time>2020-06-03T14:59:53Z</time>
      </trkpt>
      <trkpt lat="46.59027" lon="-1.83747">
        <ele>3</ele>
        <time>2020-06-03T14:59:54Z</time>
      </trkpt>
      <trkpt lat="46.59032" lon="-1.83744">
        <ele>3</ele>
        <time>2020-06-03T14:59:55Z</time>
      </trkpt>
      <trkpt lat="46.59037" lon="-1.8374">
        <ele>3</ele>
        <time>2020-06-03T14:59:56Z</time>
      </trkpt>
      <trkpt lat="46.59042" lon="-1.83737">
        <ele>2.9</ele>
        <time>2020-06-03T14:59:57Z</time>
      </trkpt>
      <trkpt lat="46.59046" lon="-1.83732">
        <ele>2.9</ele>
        <time>2020-06-03T14:59:58Z</time>
      </trkpt>
      <trkpt lat="46.5905" lon="-1.83727">
        <ele>2.9</ele>
        <time>2020-06-03T14:59:59Z</time>
      </trkpt>
      <trkpt lat="46.59054" lon="-1.83722">
        <ele>2.9</ele>
        <time>2020-06-03T15:00:00Z</time>
      </trkpt>
      <trkpt lat="46.59057" lon="-1.83715">
        <ele>2.9</ele>
        <time>2020-06-03T15:00:01Z</time>
      </trkpt>
      <trkpt lat="46.5906" lon="-1.8371">
        <ele>2.9</ele>
        <time>2020-06-03T15:00:02Z</time>
      </trkpt>
      <trkpt lat="46.59063" lon="-1.83703">
        <ele>2.9</ele>
        <time>2020-06-03T15:00:03Z</time>
      </trkpt>
      <trkpt lat="46.59066" lon="-1.83696">
        <ele>2.9</ele>
        <time>2020-06-03T15:00:04Z</time>
      </trkpt>
      <trkpt lat="46.59069" lon="-1.8369">
        <ele>2.9</ele>
        <time>2020-06-03T15:00:05Z</time>
      </trkpt>
      <trkpt lat="46.59072" lon="-1.83684">
        <ele>2.8</ele>
        <time>2020-06-03T15:00:06Z</time>
      </trkpt>
      <trkpt lat="46.59076" lon="-1.83677">
        <ele>2.8</ele>
        <time>2020-06-03T15:00:07Z</time>
      </trkpt>
      <trkpt lat="46.5908" lon="-1.83671">
        <ele>2.8</ele>
        <time>2020-06-03T15:00:08Z</time>
      </trkpt>
      <trkpt lat="46.59084" lon="-1.83665">
        <ele>2.8</ele>
        <time>2020-06-03T15:00:09Z</time>
      </trkpt>
      <trkpt lat="46.59087" lon="-1.83657">
        <ele>2.8</ele>
        <time>2020-06-03T15:00:10Z</time>
      </trkpt>
      <trkpt lat="46.59091" lon="-1.8365">
        <ele>2.8</ele>
        <time>2020-06-03T15:00:11Z</time>
      </trkpt>
      <trkpt lat="46.59095" lon="-1.83642">
        <ele>2.8</ele>
        <time>2020-06-03T15:00:12Z</time>
      </trkpt>
      <trkpt lat="46.59099" lon="-1.83635">
        <ele>2.8</ele>
        <time>2020-06-03T15:00:13Z</time>
      </trkpt>
      <trkpt lat="46.59102" lon="-1.83628">
        <ele>2.8</ele>
        <time>2020-06-03T15:00:14Z</time>
      </trkpt>
      <trkpt lat="46.59106" lon="-1.83622">
        <ele>2.8</ele>
        <time>2020-06-03T15:00:15Z</time>
      </trkpt>
      <trkpt lat="46.59109" lon="-1.83616">
        <ele>2.8</ele>
        <time>2020-06-03T15:00:16Z</time>
      </trkpt>
      <trkpt lat="46.59113" lon="-1.83611">
        <ele>2.8</ele>
        <time>2020-06-03T15:00:17Z</time>
      </trkpt>
      <trkpt lat="46.59116" lon="-1.83604">
        <ele>2.8</ele>
        <time>2020-06-03T15:00:18Z</time>
      </trkpt>
      <trkpt lat="46.5912" lon="-1.83598">
        <ele>2.8</ele>
        <time>2020-06-03T15:00:19Z</time>
      </trkpt>
      <trkpt lat="46.59122" lon="-1.83593">
        <ele>2.8</ele>
        <time>2020-06-03T15:00:20Z</time>
      </trkpt>
      <trkpt lat="46.59125" lon="-1.83588">
        <ele>2.9</ele>
        <time>2020-06-03T15:00:21Z</time>
      </trkpt>
      <trkpt lat="46.59128" lon="-1.83583">
        <ele>2.9</ele>
        <time>2020-06-03T15:00:22Z</time>
      </trkpt>
      <trkpt lat="46.59133" lon="-1.83578">
        <ele>2.9</ele>
        <time>2020-06-03T15:00:23Z</time>
      </trkpt>
      <trkpt lat="46.59137" lon="-1.83572">
        <ele>2.9</ele>
        <time>2020-06-03T15:00:24Z</time>
      </trkpt>
      <trkpt lat="46.59141" lon="-1.83567">
        <ele>2.9</ele>
        <time>2020-06-03T15:00:25Z</time>
      </trkpt>
      <trkpt lat="46.59145" lon="-1.83561">
        <ele>3</ele>
        <time>2020-06-03T15:00:26Z</time>
      </trkpt>
      <trkpt lat="46.5915" lon="-1.83556">
        <ele>3</ele>
        <time>2020-06-03T15:00:27Z</time>
      </trkpt>
      <trkpt lat="46.59155" lon="-1.83551">
        <ele>3</ele>
        <time>2020-06-03T15:00:28Z</time>
      </trkpt>
      <trkpt lat="46.5916" lon="-1.83545">
        <ele>3</ele>
        <time>2020-06-03T15:00:29Z</time>
      </trkpt>
      <trkpt lat="46.59164" lon="-1.8354">
        <ele>3.1</ele>
        <time>2020-06-03T15:00:30Z</time>
      </trkpt>
      <trkpt lat="46.59168" lon="-1.83534">
        <ele>3.1</ele>
        <time>2020-06-03T15:00:31Z</time>
      </trkpt>
      <trkpt lat="46.59172" lon="-1.83529">
        <ele>3.1</ele>
        <time>2020-06-03T15:00:32Z</time>
      </trkpt>
      <trkpt lat="46.59177" lon="-1.83525">
        <ele>3.1</ele>
        <time>2020-06-03T15:00:33Z</time>
      </trkpt>
      <trkpt lat="46.59182" lon="-1.83522">
        <ele>3.1</ele>
        <time>2020-06-03T15:00:34Z</time>
      </trkpt>
      <trkpt lat="46.59187" lon="-1.83519">
        <ele>3.2</ele>
        <time>2020-06-03T15:00:35Z</time>
      </trkpt>
      <trkpt lat="46.59192" lon="-1.83518">
        <ele>3.2</ele>
        <time>2020-06-03T15:00:36Z</time>
      </trkpt>
      <trkpt lat="46.59196" lon="-1.83515">
        <ele>3.2</ele>
        <time>2020-06-03T15:00:37Z</time>
      </trkpt>
      <trkpt lat="46.59201" lon="-1.83514">
        <ele>3.2</ele>
        <time>2020-06-03T15:00:38Z</time>
      </trkpt>
      <trkpt lat="46.59206" lon="-1.83513">
        <ele>3.2</ele>
        <time>2020-06-03T15:00:39Z</time>
      </trkpt>
      <trkpt lat="46.59211" lon="-1.83513">
        <ele>3.2</ele>
        <time>2020-06-03T15:00:40Z</time>
      </trkpt>
      <trkpt lat="46.59216" lon="-1.83512">
        <ele>3.2</ele>
        <time>2020-06-03T15:00:41Z</time>
      </trkpt>
      <trkpt lat="46.59221" lon="-1.83511">
        <ele>3.2</ele>
        <time>2020-06-03T15:00:42Z</time>
      </trkpt>
      <trkpt lat="46.59226" lon="-1.83509">
        <ele>3.2</ele>
        <time>2020-06-03T15:00:43Z</time>
      </trkpt>
      <trkpt lat="46.59231" lon="-1.83508">
        <ele>3.2</ele>
        <time>2020-06-03T15:00:44Z</time>
      </trkpt>
      <trkpt lat="46.59236" lon="-1.83506">
        <ele>3.2</ele>
        <time>2020-06-03T15:00:45Z</time>
      </trkpt>
      <trkpt lat="46.59241" lon="-1.83503">
        <ele>3.2</ele>
        <time>2020-06-03T15:00:46Z</time>
      </trkpt>
      <trkpt lat="46.59245" lon="-1.83501">
        <ele>3.2</ele>
        <time>2020-06-03T15:00:47Z</time>
      </trkpt>
      <trkpt lat="46.59248" lon="-1.83497">
        <ele>3.3</ele>
        <time>2020-06-03T15:00:48Z</time>
      </trkpt>
      <trkpt lat="46.59252" lon="-1.83492">
        <ele>3.3</ele>
        <time>2020-06-03T15:00:49Z</time>
      </trkpt>
      <trkpt lat="46.59254" lon="-1.83486">
        <ele>3.3</ele>
        <time>2020-06-03T15:00:50Z</time>
      </trkpt>
      <trkpt lat="46.59257" lon="-1.83479">
        <ele>3.3</ele>
        <time>2020-06-03T15:00:51Z</time>
      </trkpt>
      <trkpt lat="46.59259" lon="-1.83473">
        <ele>3.2</ele>
        <time>2020-06-03T15:00:52Z</time>
      </trkpt>
      <trkpt lat="46.59261" lon="-1.83467">
        <ele>3.2</ele>
        <time>2020-06-03T15:00:53Z</time>
      </trkpt>
      <trkpt lat="46.59264" lon="-1.83461">
        <ele>3.2</ele>
        <time>2020-06-03T15:00:54Z</time>
      </trkpt>
      <trkpt lat="46.59265" lon="-1.83455">
        <ele>3.2</ele>
        <time>2020-06-03T15:00:55Z</time>
      </trkpt>
      <trkpt lat="46.59267" lon="-1.83447">
        <ele>3.2</ele>
        <time>2020-06-03T15:00:56Z</time>
      </trkpt>
      <trkpt lat="46.59269" lon="-1.83439">
        <ele>3.2</ele>
        <time>2020-06-03T15:00:57Z</time>
      </trkpt>
      <trkpt lat="46.59271" lon="-1.83433">
        <ele>3.2</ele>
        <time>2020-06-03T15:00:58Z</time>
      </trkpt>
      <trkpt lat="46.59273" lon="-1.83426">
        <ele>3.1</ele>
        <time>2020-06-03T15:00:59Z</time>
      </trkpt>
      <trkpt lat="46.59274" lon="-1.83418">
        <ele>3.1</ele>
        <time>2020-06-03T15:01:00Z</time>
      </trkpt>
      <trkpt lat="46.59275" lon="-1.8341">
        <ele>3.1</ele>
        <time>2020-06-03T15:01:01Z</time>
      </trkpt>
      <trkpt lat="46.59275" lon="-1.83403">
        <ele>3.1</ele>
        <time>2020-06-03T15:01:02Z</time>
      </trkpt>
      <trkpt lat="46.59274" lon="-1.83394">
        <ele>3.1</ele>
        <time>2020-06-03T15:01:03Z</time>
      </trkpt>
      <trkpt lat="46.59273" lon="-1.83387">
        <ele>3.1</ele>
        <time>2020-06-03T15:01:04Z</time>
      </trkpt>
      <trkpt lat="46.59274" lon="-1.83379">
        <ele>3.1</ele>
        <time>2020-06-03T15:01:05Z</time>
      </trkpt>
      <trkpt lat="46.59274" lon="-1.83374">
        <ele>3.1</ele>
        <time>2020-06-03T15:01:06Z</time>
      </trkpt>
      <trkpt lat="46.59274" lon="-1.83369">
        <ele>3.1</ele>
        <time>2020-06-03T15:01:07Z</time>
      </trkpt>
      <trkpt lat="46.59274" lon="-1.83365">
        <ele>3.1</ele>
        <time>2020-06-03T15:01:08Z</time>
      </trkpt>
      <trkpt lat="46.59275" lon="-1.83359">
        <ele>3.1</ele>
        <time>2020-06-03T15:01:09Z</time>
      </trkpt>
      <trkpt lat="46.59275" lon="-1.83357">
        <ele>3.1</ele>
        <time>2020-06-03T15:01:10Z</time>
      </trkpt>
      <trkpt lat="46.59276" lon="-1.83353">
        <ele>3.1</ele>
        <time>2020-06-03T15:01:11Z</time>
      </trkpt>
      <trkpt lat="46.59276" lon="-1.83351">
        <ele>3.1</ele>
        <time>2020-06-03T15:01:12Z</time>
      </trkpt>
      <trkpt lat="46.59277" lon="-1.83346">
        <ele>3.1</ele>
        <time>2020-06-03T15:01:13Z</time>
      </trkpt>
      <trkpt lat="46.59278" lon="-1.83342">
        <ele>3.1</ele>
        <time>2020-06-03T15:01:14Z</time>
      </trkpt>
      <trkpt lat="46.5928" lon="-1.83338">
        <ele>3.1</ele>
        <time>2020-06-03T15:01:15Z</time>
      </trkpt>
      <trkpt lat="46.59282" lon="-1.83334">
        <ele>3.1</ele>
        <time>2020-06-03T15:01:16Z</time>
      </trkpt>
      <trkpt lat="46.59283" lon="-1.83333">
        <ele>3.1</ele>
        <time>2020-06-03T15:01:17Z</time>
      </trkpt>
      <trkpt lat="46.59286" lon="-1.83331">
        <ele>3.1</ele>
        <time>2020-06-03T15:01:18Z</time>
      </trkpt>
      <trkpt lat="46.59287" lon="-1.83331">
        <ele>3.1</ele>
        <time>2020-06-03T15:01:19Z</time>
      </trkpt>
      <trkpt lat="46.59291" lon="-1.83332">
        <ele>3.1</ele>
        <time>2020-06-03T15:01:20Z</time>
      </trkpt>
      <trkpt lat="46.59292" lon="-1.83332">
        <ele>3.1</ele>
        <time>2020-06-03T15:01:21Z</time>
      </trkpt>
      <trkpt lat="46.59295" lon="-1.83332">
        <ele>3.1</ele>
        <time>2020-06-03T15:01:22Z</time>
      </trkpt>
      <trkpt lat="46.59299" lon="-1.83333">
        <ele>3.1</ele>
        <time>2020-06-03T15:01:23Z</time>
      </trkpt>
      <trkpt lat="46.59303" lon="-1.83333">
        <ele>3.1</ele>
        <time>2020-06-03T15:01:24Z</time>
      </trkpt>
      <trkpt lat="46.59307" lon="-1.83334">
        <ele>3.1</ele>
        <time>2020-06-03T15:01:25Z</time>
      </trkpt>
      <trkpt lat="46.59312" lon="-1.83334">
        <ele>3.1</ele>
        <time>2020-06-03T15:01:26Z</time>
      </trkpt>
      <trkpt lat="46.59317" lon="-1.83334">
        <ele>3.1</ele>
        <time>2020-06-03T15:01:27Z</time>
      </trkpt>
      <trkpt lat="46.59322" lon="-1.83335">
        <ele>3.1</ele>
        <time>2020-06-03T15:01:28Z</time>
      </trkpt>
      <trkpt lat="46.59327" lon="-1.83337">
        <ele>3.1</ele>
        <time>2020-06-03T15:01:29Z</time>
      </trkpt>
      <trkpt lat="46.59333" lon="-1.83339">
        <ele>3.1</ele>
        <time>2020-06-03T15:01:30Z</time>
      </trkpt>
      <trkpt lat="46.59338" lon="-1.83342">
        <ele>3.1</ele>
        <time>2020-06-03T15:01:31Z</time>
      </trkpt>
      <trkpt lat="46.59344" lon="-1.83344">
        <ele>3.2</ele>
        <time>2020-06-03T15:01:32Z</time>
      </trkpt>
      <trkpt lat="46.5935" lon="-1.83346">
        <ele>3.2</ele>
        <time>2020-06-03T15:01:33Z</time>
      </trkpt>
      <trkpt lat="46.59355" lon="-1.83349">
        <ele>3.3</ele>
        <time>2020-06-03T15:01:34Z</time>
      </trkpt>
      <trkpt lat="46.59361" lon="-1.83352">
        <ele>3.3</ele>
        <time>2020-06-03T15:01:35Z</time>
      </trkpt>
      <trkpt lat="46.59366" lon="-1.83355">
        <ele>3.3</ele>
        <time>2020-06-03T15:01:36Z</time>
      </trkpt>
      <trkpt lat="46.59372" lon="-1.83357">
        <ele>3.4</ele>
        <time>2020-06-03T15:01:37Z</time>
      </trkpt>
      <trkpt lat="46.59377" lon="-1.83359">
        <ele>3.5</ele>
        <time>2020-06-03T15:01:38Z</time>
      </trkpt>
      <trkpt lat="46.59382" lon="-1.83362">
        <ele>3.5</ele>
        <time>2020-06-03T15:01:39Z</time>
      </trkpt>
      <trkpt lat="46.59387" lon="-1.83364">
        <ele>3.6</ele>
        <time>2020-06-03T15:01:40Z</time>
      </trkpt>
      <trkpt lat="46.59393" lon="-1.83367">
        <ele>3.7</ele>
        <time>2020-06-03T15:01:41Z</time>
      </trkpt>
      <trkpt lat="46.59398" lon="-1.83369">
        <ele>3.7</ele>
        <time>2020-06-03T15:01:42Z</time>
      </trkpt>
      <trkpt lat="46.59404" lon="-1.83371">
        <ele>3.8</ele>
        <time>2020-06-03T15:01:43Z</time>
      </trkpt>
      <trkpt lat="46.59409" lon="-1.83374">
        <ele>3.9</ele>
        <time>2020-06-03T15:01:44Z</time>
      </trkpt>
      <trkpt lat="46.59414" lon="-1.83377">
        <ele>4</ele>
        <time>2020-06-03T15:01:45Z</time>
      </trkpt>
      <trkpt lat="46.59418" lon="-1.83379">
        <ele>4.1</ele>
        <time>2020-06-03T15:01:46Z</time>
      </trkpt>
      <trkpt lat="46.59422" lon="-1.8338">
        <ele>4.2</ele>
        <time>2020-06-03T15:01:47Z</time>
      </trkpt>
      <trkpt lat="46.59426" lon="-1.8338">
        <ele>4.2</ele>
        <time>2020-06-03T15:01:48Z</time>
      </trkpt>
      <trkpt lat="46.59431" lon="-1.8338">
        <ele>4.3</ele>
        <time>2020-06-03T15:01:49Z</time>
      </trkpt>
      <trkpt lat="46.59435" lon="-1.83379">
        <ele>4.4</ele>
        <time>2020-06-03T15:01:50Z</time>
      </trkpt>
      <trkpt lat="46.59438" lon="-1.83378">
        <ele>4.4</ele>
        <time>2020-06-03T15:01:51Z</time>
      </trkpt>
      <trkpt lat="46.59441" lon="-1.83378">
        <ele>4.4</ele>
        <time>2020-06-03T15:01:52Z</time>
      </trkpt>
      <trkpt lat="46.59444" lon="-1.83376">
        <ele>4.4</ele>
        <time>2020-06-03T15:01:53Z</time>
      </trkpt>
      <trkpt lat="46.59447" lon="-1.83374">
        <ele>4.5</ele>
        <time>2020-06-03T15:01:54Z</time>
      </trkpt>
      <trkpt lat="46.59448" lon="-1.83373">
        <ele>4.4</ele>
        <time>2020-06-03T15:01:55Z</time>
      </trkpt>
      <trkpt lat="46.59451" lon="-1.83371">
        <ele>4.4</ele>
        <time>2020-06-03T15:01:56Z</time>
      </trkpt>
      <trkpt lat="46.59454" lon="-1.83369">
        <ele>4.4</ele>
        <time>2020-06-03T15:01:57Z</time>
      </trkpt>
      <trkpt lat="46.59457" lon="-1.83367">
        <ele>4.4</ele>
        <time>2020-06-03T15:01:58Z</time>
      </trkpt>
      <trkpt lat="46.59458" lon="-1.83366">
        <ele>4.4</ele>
        <time>2020-06-03T15:01:59Z</time>
      </trkpt>
      <trkpt lat="46.5946" lon="-1.83364">
        <ele>4.4</ele>
        <time>2020-06-03T15:02:00Z</time>
      </trkpt>
      <trkpt lat="46.59461" lon="-1.83363">
        <ele>4.4</ele>
        <time>2020-06-03T15:02:01Z</time>
      </trkpt>
      <trkpt lat="46.59462" lon="-1.83363">
        <ele>4.4</ele>
        <time>2020-06-03T15:02:02Z</time>
      </trkpt>
      <trkpt lat="46.59463" lon="-1.83362">
        <ele>4.4</ele>
        <time>2020-06-03T15:02:03Z</time>
      </trkpt>
      <trkpt lat="46.59463" lon="-1.83362">
        <ele>4.4</ele>
        <time>2020-06-03T15:02:04Z</time>
      </trkpt>
      <trkpt lat="46.59463" lon="-1.83362">
        <ele>4.4</ele>
        <time>2020-06-03T15:02:05Z</time>
      </trkpt>
      <trkpt lat="46.59463" lon="-1.83363">
        <ele>4.4</ele>
        <time>2020-06-03T15:02:06Z</time>
      </trkpt>
      <trkpt lat="46.59463" lon="-1.83363">
        <ele>4.4</ele>
        <time>2020-06-03T15:02:07Z</time>
      </trkpt>
      <trkpt lat="46.59463" lon="-1.83364">
        <ele>4.4</ele>
        <time>2020-06-03T15:02:08Z</time>
      </trkpt>
      <trkpt lat="46.59463" lon="-1.83364">
        <ele>4.4</ele>
        <time>2020-06-03T15:02:09Z</time>
      </trkpt>
      <trkpt lat="46.59463" lon="-1.83366">
        <ele>4.4</ele>
        <time>2020-06-03T15:02:10Z</time>
      </trkpt>
      <trkpt lat="46.59463" lon="-1.83368">
        <ele>4.4</ele>
        <time>2020-06-03T15:02:11Z</time>
      </trkpt>
      <trkpt lat="46.59463" lon="-1.8337">
        <ele>4.4</ele>
        <time>2020-06-03T15:02:12Z</time>
      </trkpt>
      <trkpt lat="46.59462" lon="-1.8337">
        <ele>4.4</ele>
        <time>2020-06-03T15:02:13Z</time>
      </trkpt>
      <trkpt lat="46.59465" lon="-1.83368">
        <ele>4.4</ele>
        <time>2020-06-03T15:11:49Z</time>
      </trkpt>
      <trkpt lat="46.59465" lon="-1.83368">
        <ele>4.4</ele>
        <time>2020-06-03T15:11:50Z</time>
      </trkpt>
      <trkpt lat="46.59465" lon="-1.83367">
        <ele>4.4</ele>
        <time>2020-06-03T15:11:51Z</time>
      </trkpt>
      <trkpt lat="46.59465" lon="-1.83367">
        <ele>4.4</ele>
        <time>2020-06-03T15:11:52Z</time>
      </trkpt>
      <trkpt lat="46.59463" lon="-1.83368">
        <ele>4.4</ele>
        <time>2020-06-03T15:11:53Z</time>
      </trkpt>
      <trkpt lat="46.59463" lon="-1.83368">
        <ele>4.4</ele>
        <time>2020-06-03T15:11:54Z</time>
      </trkpt>
      <trkpt lat="46.59464" lon="-1.83369">
        <ele>4.4</ele>
        <time>2020-06-03T15:11:55Z</time>
      </trkpt>
      <trkpt lat="46.59464" lon="-1.83369">
        <ele>4.4</ele>
        <time>2020-06-03T15:11:56Z</time>
      </trkpt>
      <trkpt lat="46.59464" lon="-1.83369">
        <ele>4.4</ele>
        <time>2020-06-03T15:11:57Z</time>
      </trkpt>
      <trkpt lat="46.59464" lon="-1.83369">
        <ele>4.4</ele>
        <time>2020-06-03T15:11:58Z</time>
      </trkpt>
      <trkpt lat="46.59464" lon="-1.83369">
        <ele>4.4</ele>
        <time>2020-06-03T15:11:59Z</time>
      </trkpt>
      <trkpt lat="46.59467" lon="-1.8336">
        <ele>4.4</ele>
        <time>2020-06-03T15:12:27Z</time>
      </trkpt>
      <trkpt lat="46.59468" lon="-1.83358">
        <ele>4.4</ele>
        <time>2020-06-03T15:12:28Z</time>
      </trkpt>
      <trkpt lat="46.59468" lon="-1.83357">
        <ele>4.4</ele>
        <time>2020-06-03T15:12:29Z</time>
      </trkpt>
      <trkpt lat="46.59469" lon="-1.83356">
        <ele>4.4</ele>
        <time>2020-06-03T15:12:30Z</time>
      </trkpt>
      <trkpt lat="46.59471" lon="-1.83355">
        <ele>4.4</ele>
        <time>2020-06-03T15:12:31Z</time>
      </trkpt>
      <trkpt lat="46.59474" lon="-1.83352">
        <ele>4.4</ele>
        <time>2020-06-03T15:12:32Z</time>
      </trkpt>
      <trkpt lat="46.59475" lon="-1.83351">
        <ele>4.4</ele>
        <time>2020-06-03T15:12:33Z</time>
      </trkpt>
      <trkpt lat="46.59478" lon="-1.83348">
        <ele>4.4</ele>
        <time>2020-06-03T15:12:34Z</time>
      </trkpt>
      <trkpt lat="46.59482" lon="-1.83344">
        <ele>4.4</ele>
        <time>2020-06-03T15:12:35Z</time>
      </trkpt>
      <trkpt lat="46.59487" lon="-1.8334">
        <ele>4.3</ele>
        <time>2020-06-03T15:12:36Z</time>
      </trkpt>
      <trkpt lat="46.59491" lon="-1.83337">
        <ele>4.3</ele>
        <time>2020-06-03T15:12:37Z</time>
      </trkpt>
      <trkpt lat="46.59495" lon="-1.83335">
        <ele>4.3</ele>
        <time>2020-06-03T15:12:38Z</time>
      </trkpt>
      <trkpt lat="46.59499" lon="-1.83332">
        <ele>4.3</ele>
        <time>2020-06-03T15:12:39Z</time>
      </trkpt>
      <trkpt lat="46.59503" lon="-1.8333">
        <ele>4.2</ele>
        <time>2020-06-03T15:12:40Z</time>
      </trkpt>
      <trkpt lat="46.59507" lon="-1.83328">
        <ele>4.2</ele>
        <time>2020-06-03T15:12:41Z</time>
      </trkpt>
      <trkpt lat="46.59511" lon="-1.83327">
        <ele>4.2</ele>
        <time>2020-06-03T15:12:42Z</time>
      </trkpt>
      <trkpt lat="46.59514" lon="-1.83326">
        <ele>4.1</ele>
        <time>2020-06-03T15:12:43Z</time>
      </trkpt>
      <trkpt lat="46.59516" lon="-1.83324">
        <ele>4.1</ele>
        <time>2020-06-03T15:12:44Z</time>
      </trkpt>
      <trkpt lat="46.59519" lon="-1.83323">
        <ele>4.1</ele>
        <time>2020-06-03T15:12:45Z</time>
      </trkpt>
      <trkpt lat="46.59522" lon="-1.83322">
        <ele>4.1</ele>
        <time>2020-06-03T15:12:46Z</time>
      </trkpt>
      <trkpt lat="46.59524" lon="-1.8332">
        <ele>4.1</ele>
        <time>2020-06-03T15:12:47Z</time>
      </trkpt>
      <trkpt lat="46.59528" lon="-1.83319">
        <ele>4.1</ele>
        <time>2020-06-03T15:12:48Z</time>
      </trkpt>
      <trkpt lat="46.59529" lon="-1.83318">
        <ele>4.1</ele>
        <time>2020-06-03T15:12:49Z</time>
      </trkpt>
      <trkpt lat="46.59533" lon="-1.83316">
        <ele>4.2</ele>
        <time>2020-06-03T15:12:50Z</time>
      </trkpt>
      <trkpt lat="46.59534" lon="-1.83315">
        <ele>4.2</ele>
        <time>2020-06-03T15:12:51Z</time>
      </trkpt>
      <trkpt lat="46.59537" lon="-1.83313">
        <ele>4.2</ele>
        <time>2020-06-03T15:12:52Z</time>
      </trkpt>
      <trkpt lat="46.5954" lon="-1.83311">
        <ele>4.2</ele>
        <time>2020-06-03T15:12:53Z</time>
      </trkpt>
      <trkpt lat="46.59544" lon="-1.8331">
        <ele>4.2</ele>
        <time>2020-06-03T15:12:54Z</time>
      </trkpt>
      <trkpt lat="46.59548" lon="-1.83309">
        <ele>4.2</ele>
        <time>2020-06-03T15:12:55Z</time>
      </trkpt>
      <trkpt lat="46.59551" lon="-1.83308">
        <ele>4.2</ele>
        <time>2020-06-03T15:12:56Z</time>
      </trkpt>
      <trkpt lat="46.59555" lon="-1.83306">
        <ele>4.2</ele>
        <time>2020-06-03T15:12:57Z</time>
      </trkpt>
      <trkpt lat="46.59559" lon="-1.83304">
        <ele>4.2</ele>
        <time>2020-06-03T15:12:58Z</time>
      </trkpt>
      <trkpt lat="46.59563" lon="-1.83302">
        <ele>4.2</ele>
        <time>2020-06-03T15:12:59Z</time>
      </trkpt>
      <trkpt lat="46.59566" lon="-1.833">
        <ele>4.2</ele>
        <time>2020-06-03T15:13:00Z</time>
      </trkpt>
      <trkpt lat="46.59569" lon="-1.83299">
        <ele>4.2</ele>
        <time>2020-06-03T15:13:01Z</time>
      </trkpt>
      <trkpt lat="46.59571" lon="-1.83297">
        <ele>4.2</ele>
        <time>2020-06-03T15:13:02Z</time>
      </trkpt>
      <trkpt lat="46.59572" lon="-1.83297">
        <ele>4.2</ele>
        <time>2020-06-03T15:13:03Z</time>
      </trkpt>
      <trkpt lat="46.59572" lon="-1.83302">
        <ele>4.1</ele>
        <time>2020-06-03T15:13:04Z</time>
      </trkpt>
      <trkpt lat="46.59572" lon="-1.83305">
        <ele>4.1</ele>
        <time>2020-06-03T15:13:05Z</time>
      </trkpt>
      <trkpt lat="46.59572" lon="-1.83309">
        <ele>4.1</ele>
        <time>2020-06-03T15:13:06Z</time>
      </trkpt>
      <trkpt lat="46.59572" lon="-1.83314">
        <ele>4.1</ele>
        <time>2020-06-03T15:13:07Z</time>
      </trkpt>
      <trkpt lat="46.59572" lon="-1.83315">
        <ele>4</ele>
        <time>2020-06-03T15:13:08Z</time>
      </trkpt>
      <trkpt lat="46.59572" lon="-1.83317">
        <ele>4</ele>
        <time>2020-06-03T15:13:09Z</time>
      </trkpt>
      <trkpt lat="46.59572" lon="-1.83318">
        <ele>4</ele>
        <time>2020-06-03T15:13:10Z</time>
      </trkpt>
      <trkpt lat="46.59572" lon="-1.83318">
        <ele>4</ele>
        <time>2020-06-03T15:13:11Z</time>
      </trkpt>
      <trkpt lat="46.59572" lon="-1.83319">
        <ele>4</ele>
        <time>2020-06-03T15:13:12Z</time>
      </trkpt>
      <trkpt lat="46.59572" lon="-1.83319">
        <ele>4</ele>
        <time>2020-06-03T15:13:13Z</time>
      </trkpt>
      <trkpt lat="46.59572" lon="-1.8332">
        <ele>4</ele>
        <time>2020-06-03T15:13:14Z</time>
      </trkpt>
      <trkpt lat="46.59572" lon="-1.8332">
        <ele>4</ele>
        <time>2020-06-03T15:13:15Z</time>
      </trkpt>
      <trkpt lat="46.59572" lon="-1.83321">
        <ele>4</ele>
        <time>2020-06-03T15:13:16Z</time>
      </trkpt>
      <trkpt lat="46.59572" lon="-1.83323">
        <ele>4</ele>
        <time>2020-06-03T15:13:17Z</time>
      </trkpt>
      <trkpt lat="46.59571" lon="-1.83324">
        <ele>4</ele>
        <time>2020-06-03T15:13:18Z</time>
      </trkpt>
      <trkpt lat="46.59571" lon="-1.83327">
        <ele>3.9</ele>
        <time>2020-06-03T15:13:19Z</time>
      </trkpt>
      <trkpt lat="46.59571" lon="-1.83329">
        <ele>3.9</ele>
        <time>2020-06-03T15:13:20Z</time>
      </trkpt>
      <trkpt lat="46.59571" lon="-1.83331">
        <ele>3.9</ele>
        <time>2020-06-03T15:13:21Z</time>
      </trkpt>
      <trkpt lat="46.59571" lon="-1.83331">
        <ele>3.9</ele>
        <time>2020-06-03T15:13:22Z</time>
      </trkpt>
      <trkpt lat="46.59572" lon="-1.83332">
        <ele>3.9</ele>
        <time>2020-06-03T15:13:23Z</time>
      </trkpt>
      <trkpt lat="46.59572" lon="-1.83332">
        <ele>3.9</ele>
        <time>2020-06-03T15:13:24Z</time>
      </trkpt>
      <trkpt lat="46.59572" lon="-1.83332">
        <ele>3.9</ele>
        <time>2020-06-03T15:13:25Z</time>
      </trkpt>
      <trkpt lat="46.59572" lon="-1.83332">
        <ele>3.9</ele>
        <time>2020-06-03T15:13:26Z</time>
      </trkpt>
      <trkpt lat="46.59572" lon="-1.83331">
        <ele>3.9</ele>
        <time>2020-06-03T15:13:27Z</time>
      </trkpt>
      <trkpt lat="46.59572" lon="-1.8333">
        <ele>3.9</ele>
        <time>2020-06-03T15:13:28Z</time>
      </trkpt>
      <trkpt lat="46.59572" lon="-1.83329">
        <ele>3.8</ele>
        <time>2020-06-03T15:13:29Z</time>
      </trkpt>
      <trkpt lat="46.59572" lon="-1.83328">
        <ele>3.8</ele>
        <time>2020-06-03T15:13:30Z</time>
      </trkpt>
      <trkpt lat="46.59572" lon="-1.83329">
        <ele>3.8</ele>
        <time>2020-06-03T15:13:31Z</time>
      </trkpt>
      <trkpt lat="46.59572" lon="-1.83331">
        <ele>3.8</ele>
        <time>2020-06-03T15:13:32Z</time>
      </trkpt>
      <trkpt lat="46.59573" lon="-1.83331">
        <ele>3.8</ele>
        <time>2020-06-03T15:13:33Z</time>
      </trkpt>
      <trkpt lat="46.59573" lon="-1.83329">
        <ele>3.8</ele>
        <time>2020-06-03T15:13:34Z</time>
      </trkpt>
      <trkpt lat="46.59571" lon="-1.83335">
        <ele>3.7</ele>
        <time>2020-06-03T15:13:56Z</time>
      </trkpt>
      <trkpt lat="46.59571" lon="-1.83338">
        <ele>3.7</ele>
        <time>2020-06-03T15:13:57Z</time>
      </trkpt>
      <trkpt lat="46.59571" lon="-1.83345">
        <ele>3.7</ele>
        <time>2020-06-03T15:13:58Z</time>
      </trkpt>
      <trkpt lat="46.59571" lon="-1.83348">
        <ele>3.6</ele>
        <time>2020-06-03T15:13:59Z</time>
      </trkpt>
      <trkpt lat="46.5957" lon="-1.83355">
        <ele>3.6</ele>
        <time>2020-06-03T15:14:00Z</time>
      </trkpt>
      <trkpt lat="46.59571" lon="-1.8336">
        <ele>3.5</ele>
        <time>2020-06-03T15:14:01Z</time>
      </trkpt>
      <trkpt lat="46.59571" lon="-1.83367">
        <ele>3.5</ele>
        <time>2020-06-03T15:14:02Z</time>
      </trkpt>
      <trkpt lat="46.59571" lon="-1.83375">
        <ele>3.4</ele>
        <time>2020-06-03T15:14:03Z</time>
      </trkpt>
      <trkpt lat="46.59572" lon="-1.83382">
        <ele>3.3</ele>
        <time>2020-06-03T15:14:04Z</time>
      </trkpt>
      <trkpt lat="46.59572" lon="-1.8339">
        <ele>3.3</ele>
        <time>2020-06-03T15:14:05Z</time>
      </trkpt>
      <trkpt lat="46.59571" lon="-1.83396">
        <ele>3.2</ele>
        <time>2020-06-03T15:14:06Z</time>
      </trkpt>
      <trkpt lat="46.59569" lon="-1.83402">
        <ele>3.1</ele>
        <time>2020-06-03T15:14:07Z</time>
      </trkpt>
      <trkpt lat="46.59566" lon="-1.83407">
        <ele>3.1</ele>
        <time>2020-06-03T15:14:08Z</time>
      </trkpt>
      <trkpt lat="46.59563" lon="-1.83412">
        <ele>3</ele>
        <time>2020-06-03T15:14:09Z</time>
      </trkpt>
      <trkpt lat="46.59561" lon="-1.83419">
        <ele>3</ele>
        <time>2020-06-03T15:14:10Z</time>
      </trkpt>
      <trkpt lat="46.59559" lon="-1.83426">
        <ele>3</ele>
        <time>2020-06-03T15:14:11Z</time>
      </trkpt>
      <trkpt lat="46.59558" lon="-1.83432">
        <ele>2.9</ele>
        <time>2020-06-03T15:14:12Z</time>
      </trkpt>
      <trkpt lat="46.59559" lon="-1.83438">
        <ele>2.9</ele>
        <time>2020-06-03T15:14:13Z</time>
      </trkpt>
      <trkpt lat="46.59559" lon="-1.83444">
        <ele>2.8</ele>
        <time>2020-06-03T15:14:14Z</time>
      </trkpt>
      <trkpt lat="46.59559" lon="-1.83451">
        <ele>2.8</ele>
        <time>2020-06-03T15:14:15Z</time>
      </trkpt>
      <trkpt lat="46.59559" lon="-1.83458">
        <ele>2.7</ele>
        <time>2020-06-03T15:14:16Z</time>
      </trkpt>
      <trkpt lat="46.59559" lon="-1.83465">
        <ele>2.7</ele>
        <time>2020-06-03T15:14:17Z</time>
      </trkpt>
      <trkpt lat="46.5956" lon="-1.83471">
        <ele>2.6</ele>
        <time>2020-06-03T15:14:18Z</time>
      </trkpt>
      <trkpt lat="46.5956" lon="-1.83477">
        <ele>2.6</ele>
        <time>2020-06-03T15:14:19Z</time>
      </trkpt>
      <trkpt lat="46.59561" lon="-1.83484">
        <ele>2.6</ele>
        <time>2020-06-03T15:14:20Z</time>
      </trkpt>
      <trkpt lat="46.59562" lon="-1.83491">
        <ele>2.5</ele>
        <time>2020-06-03T15:14:21Z</time>
      </trkpt>
      <trkpt lat="46.59562" lon="-1.83499">
        <ele>2.5</ele>
        <time>2020-06-03T15:14:22Z</time>
      </trkpt>
      <trkpt lat="46.59562" lon="-1.83506">
        <ele>2.4</ele>
        <time>2020-06-03T15:14:23Z</time>
      </trkpt>
      <trkpt lat="46.59563" lon="-1.83513">
        <ele>2.4</ele>
        <time>2020-06-03T15:14:24Z</time>
      </trkpt>
      <trkpt lat="46.59563" lon="-1.83519">
        <ele>2.4</ele>
        <time>2020-06-03T15:14:25Z</time>
      </trkpt>
      <trkpt lat="46.59563" lon="-1.83524">
        <ele>2.4</ele>
        <time>2020-06-03T15:14:26Z</time>
      </trkpt>
      <trkpt lat="46.59563" lon="-1.8353">
        <ele>2.3</ele>
        <time>2020-06-03T15:14:27Z</time>
      </trkpt>
      <trkpt lat="46.59564" lon="-1.83535">
        <ele>2.3</ele>
        <time>2020-06-03T15:14:28Z</time>
      </trkpt>
      <trkpt lat="46.59565" lon="-1.83541">
        <ele>2.3</ele>
        <time>2020-06-03T15:14:29Z</time>
      </trkpt>
      <trkpt lat="46.59565" lon="-1.83548">
        <ele>2.2</ele>
        <time>2020-06-03T15:14:30Z</time>
      </trkpt>
      <trkpt lat="46.59566" lon="-1.83555">
        <ele>2.2</ele>
        <time>2020-06-03T15:14:31Z</time>
      </trkpt>
      <trkpt lat="46.59567" lon="-1.83561">
        <ele>2.2</ele>
        <time>2020-06-03T15:14:32Z</time>
      </trkpt>
      <trkpt lat="46.59567" lon="-1.83568">
        <ele>2.1</ele>
        <time>2020-06-03T15:14:33Z</time>
      </trkpt>
      <trkpt lat="46.59568" lon="-1.83575">
        <ele>2.1</ele>
        <time>2020-06-03T15:14:34Z</time>
      </trkpt>
      <trkpt lat="46.59568" lon="-1.83581">
        <ele>2.1</ele>
        <time>2020-06-03T15:14:35Z</time>
      </trkpt>
      <trkpt lat="46.59569" lon="-1.83588">
        <ele>2.1</ele>
        <time>2020-06-03T15:14:36Z</time>
      </trkpt>
      <trkpt lat="46.59569" lon="-1.83595">
        <ele>2</ele>
        <time>2020-06-03T15:14:37Z</time>
      </trkpt>
      <trkpt lat="46.59569" lon="-1.83602">
        <ele>2</ele>
        <time>2020-06-03T15:14:38Z</time>
      </trkpt>
      <trkpt lat="46.59569" lon="-1.83609">
        <ele>2</ele>
        <time>2020-06-03T15:14:39Z</time>
      </trkpt>
      <trkpt lat="46.59569" lon="-1.83614">
        <ele>2</ele>
        <time>2020-06-03T15:14:40Z</time>
      </trkpt>
      <trkpt lat="46.5957" lon="-1.8362">
        <ele>1.9</ele>
        <time>2020-06-03T15:14:41Z</time>
      </trkpt>
      <trkpt lat="46.59571" lon="-1.83625">
        <ele>1.9</ele>
        <time>2020-06-03T15:14:42Z</time>
      </trkpt>
      <trkpt lat="46.59574" lon="-1.83628">
        <ele>1.9</ele>
        <time>2020-06-03T15:14:43Z</time>
      </trkpt>
      <trkpt lat="46.59577" lon="-1.83629">
        <ele>1.9</ele>
        <time>2020-06-03T15:14:44Z</time>
      </trkpt>
      <trkpt lat="46.5958" lon="-1.8363">
        <ele>1.9</ele>
        <time>2020-06-03T15:14:45Z</time>
      </trkpt>
      <trkpt lat="46.59583" lon="-1.83632">
        <ele>1.9</ele>
        <time>2020-06-03T15:14:46Z</time>
      </trkpt>
      <trkpt lat="46.59585" lon="-1.83634">
        <ele>1.9</ele>
        <time>2020-06-03T15:14:47Z</time>
      </trkpt>
      <trkpt lat="46.59588" lon="-1.83634">
        <ele>1.9</ele>
        <time>2020-06-03T15:14:48Z</time>
      </trkpt>
      <trkpt lat="46.59591" lon="-1.83635">
        <ele>1.9</ele>
        <time>2020-06-03T15:14:49Z</time>
      </trkpt>
      <trkpt lat="46.59594" lon="-1.83635">
        <ele>1.9</ele>
        <time>2020-06-03T15:14:50Z</time>
      </trkpt>
      <trkpt lat="46.59597" lon="-1.83634">
        <ele>1.9</ele>
        <time>2020-06-03T15:14:51Z</time>
      </trkpt>
      <trkpt lat="46.596" lon="-1.83633">
        <ele>1.9</ele>
        <time>2020-06-03T15:14:52Z</time>
      </trkpt>
      <trkpt lat="46.59604" lon="-1.83632">
        <ele>1.9</ele>
        <time>2020-06-03T15:14:53Z</time>
      </trkpt>
      <trkpt lat="46.59608" lon="-1.83631">
        <ele>1.9</ele>
        <time>2020-06-03T15:14:54Z</time>
      </trkpt>
      <trkpt lat="46.59611" lon="-1.8363">
        <ele>1.9</ele>
        <time>2020-06-03T15:14:55Z</time>
      </trkpt>
      <trkpt lat="46.59616" lon="-1.83629">
        <ele>1.9</ele>
        <time>2020-06-03T15:14:56Z</time>
      </trkpt>
      <trkpt lat="46.5962" lon="-1.83627">
        <ele>1.9</ele>
        <time>2020-06-03T15:14:57Z</time>
      </trkpt>
      <trkpt lat="46.59625" lon="-1.83626">
        <ele>1.9</ele>
        <time>2020-06-03T15:14:58Z</time>
      </trkpt>
      <trkpt lat="46.59629" lon="-1.83625">
        <ele>2</ele>
        <time>2020-06-03T15:14:59Z</time>
      </trkpt>
      <trkpt lat="46.59634" lon="-1.83624">
        <ele>2</ele>
        <time>2020-06-03T15:15:00Z</time>
      </trkpt>
      <trkpt lat="46.59639" lon="-1.83623">
        <ele>2.1</ele>
        <time>2020-06-03T15:15:01Z</time>
      </trkpt>
      <trkpt lat="46.59644" lon="-1.83622">
        <ele>2.2</ele>
        <time>2020-06-03T15:15:02Z</time>
      </trkpt>
      <trkpt lat="46.59649" lon="-1.8362">
        <ele>2.3</ele>
        <time>2020-06-03T15:15:03Z</time>
      </trkpt>
      <trkpt lat="46.59654" lon="-1.83618">
        <ele>2.5</ele>
        <time>2020-06-03T15:15:04Z</time>
      </trkpt>
      <trkpt lat="46.5966" lon="-1.83616">
        <ele>2.6</ele>
        <time>2020-06-03T15:15:05Z</time>
      </trkpt>
      <trkpt lat="46.59665" lon="-1.83613">
        <ele>2.7</ele>
        <time>2020-06-03T15:15:06Z</time>
      </trkpt>
      <trkpt lat="46.5967" lon="-1.83611">
        <ele>2.8</ele>
        <time>2020-06-03T15:15:07Z</time>
      </trkpt>
      <trkpt lat="46.59675" lon="-1.8361">
        <ele>2.8</ele>
        <time>2020-06-03T15:15:08Z</time>
      </trkpt>
      <trkpt lat="46.5968" lon="-1.83608">
        <ele>2.9</ele>
        <time>2020-06-03T15:15:09Z</time>
      </trkpt>
      <trkpt lat="46.59685" lon="-1.83606">
        <ele>2.9</ele>
        <time>2020-06-03T15:15:10Z</time>
      </trkpt>
      <trkpt lat="46.5969" lon="-1.83605">
        <ele>2.9</ele>
        <time>2020-06-03T15:15:11Z</time>
      </trkpt>
      <trkpt lat="46.59696" lon="-1.83604">
        <ele>2.9</ele>
        <time>2020-06-03T15:15:12Z</time>
      </trkpt>
      <trkpt lat="46.59701" lon="-1.83603">
        <ele>3</ele>
        <time>2020-06-03T15:15:13Z</time>
      </trkpt>
      <trkpt lat="46.59705" lon="-1.83602">
        <ele>3</ele>
        <time>2020-06-03T15:15:14Z</time>
      </trkpt>
      <trkpt lat="46.5971" lon="-1.83601">
        <ele>3</ele>
        <time>2020-06-03T15:15:15Z</time>
      </trkpt>
      <trkpt lat="46.59715" lon="-1.836">
        <ele>3.1</ele>
        <time>2020-06-03T15:15:16Z</time>
      </trkpt>
      <trkpt lat="46.59719" lon="-1.83598">
        <ele>3.1</ele>
        <time>2020-06-03T15:15:17Z</time>
      </trkpt>
      <trkpt lat="46.59724" lon="-1.83597">
        <ele>3.2</ele>
        <time>2020-06-03T15:15:18Z</time>
      </trkpt>
      <trkpt lat="46.59729" lon="-1.83596">
        <ele>3.2</ele>
        <time>2020-06-03T15:15:19Z</time>
      </trkpt>
      <trkpt lat="46.59734" lon="-1.83594">
        <ele>3.3</ele>
        <time>2020-06-03T15:15:20Z</time>
      </trkpt>
      <trkpt lat="46.59739" lon="-1.83592">
        <ele>3.4</ele>
        <time>2020-06-03T15:15:21Z</time>
      </trkpt>
      <trkpt lat="46.59744" lon="-1.83591">
        <ele>3.4</ele>
        <time>2020-06-03T15:15:22Z</time>
      </trkpt>
      <trkpt lat="46.5975" lon="-1.8359">
        <ele>3.5</ele>
        <time>2020-06-03T15:15:23Z</time>
      </trkpt>
      <trkpt lat="46.59755" lon="-1.83589">
        <ele>3.6</ele>
        <time>2020-06-03T15:15:24Z</time>
      </trkpt>
      <trkpt lat="46.5976" lon="-1.83588">
        <ele>3.6</ele>
        <time>2020-06-03T15:15:25Z</time>
      </trkpt>
      <trkpt lat="46.59765" lon="-1.83587">
        <ele>3.7</ele>
        <time>2020-06-03T15:15:26Z</time>
      </trkpt>
      <trkpt lat="46.59769" lon="-1.83586">
        <ele>3.7</ele>
        <time>2020-06-03T15:15:27Z</time>
      </trkpt>
      <trkpt lat="46.59773" lon="-1.83585">
        <ele>3.8</ele>
        <time>2020-06-03T15:15:28Z</time>
      </trkpt>
      <trkpt lat="46.59777" lon="-1.83584">
        <ele>3.8</ele>
        <time>2020-06-03T15:15:29Z</time>
      </trkpt>
      <trkpt lat="46.5978" lon="-1.83583">
        <ele>3.9</ele>
        <time>2020-06-03T15:15:30Z</time>
      </trkpt>
      <trkpt lat="46.59784" lon="-1.83581">
        <ele>3.9</ele>
        <time>2020-06-03T15:15:31Z</time>
      </trkpt>
      <trkpt lat="46.59788" lon="-1.83581">
        <ele>4</ele>
        <time>2020-06-03T15:15:32Z</time>
      </trkpt>
      <trkpt lat="46.59791" lon="-1.8358">
        <ele>4</ele>
        <time>2020-06-03T15:15:33Z</time>
      </trkpt>
      <trkpt lat="46.59794" lon="-1.8358">
        <ele>4.1</ele>
        <time>2020-06-03T15:15:34Z</time>
      </trkpt>
      <trkpt lat="46.59798" lon="-1.83579">
        <ele>4.1</ele>
        <time>2020-06-03T15:15:35Z</time>
      </trkpt>
      <trkpt lat="46.59802" lon="-1.83578">
        <ele>4.2</ele>
        <time>2020-06-03T15:15:36Z</time>
      </trkpt>
      <trkpt lat="46.59806" lon="-1.83577">
        <ele>4.3</ele>
        <time>2020-06-03T15:15:37Z</time>
      </trkpt>
      <trkpt lat="46.5981" lon="-1.83577">
        <ele>4.3</ele>
        <time>2020-06-03T15:15:38Z</time>
      </trkpt>
      <trkpt lat="46.59815" lon="-1.83576">
        <ele>4.4</ele>
        <time>2020-06-03T15:15:39Z</time>
      </trkpt>
      <trkpt lat="46.59819" lon="-1.83575">
        <ele>4.4</ele>
        <time>2020-06-03T15:15:40Z</time>
      </trkpt>
      <trkpt lat="46.59823" lon="-1.83573">
        <ele>4.5</ele>
        <time>2020-06-03T15:15:41Z</time>
      </trkpt>
      <trkpt lat="46.59828" lon="-1.83572">
        <ele>4.5</ele>
        <time>2020-06-03T15:15:42Z</time>
      </trkpt>
      <trkpt lat="46.59832" lon="-1.83571">
        <ele>4.6</ele>
        <time>2020-06-03T15:15:43Z</time>
      </trkpt>
      <trkpt lat="46.59837" lon="-1.8357">
        <ele>4.6</ele>
        <time>2020-06-03T15:15:44Z</time>
      </trkpt>
      <trkpt lat="46.59841" lon="-1.83569">
        <ele>4.7</ele>
        <time>2020-06-03T15:15:45Z</time>
      </trkpt>
      <trkpt lat="46.59845" lon="-1.83568">
        <ele>4.7</ele>
        <time>2020-06-03T15:15:46Z</time>
      </trkpt>
      <trkpt lat="46.59849" lon="-1.83565">
        <ele>4.7</ele>
        <time>2020-06-03T15:15:47Z</time>
      </trkpt>
      <trkpt lat="46.59852" lon="-1.83564">
        <ele>4.8</ele>
        <time>2020-06-03T15:15:48Z</time>
      </trkpt>
      <trkpt lat="46.59855" lon="-1.83563">
        <ele>4.8</ele>
        <time>2020-06-03T15:15:49Z</time>
      </trkpt>
      <trkpt lat="46.59858" lon="-1.83562">
        <ele>4.9</ele>
        <time>2020-06-03T15:15:50Z</time>
      </trkpt>
      <trkpt lat="46.59862" lon="-1.8356">
        <ele>4.9</ele>
        <time>2020-06-03T15:15:51Z</time>
      </trkpt>
      <trkpt lat="46.59866" lon="-1.83559">
        <ele>4.9</ele>
        <time>2020-06-03T15:15:52Z</time>
      </trkpt>
      <trkpt lat="46.5987" lon="-1.83557">
        <ele>4.9</ele>
        <time>2020-06-03T15:15:53Z</time>
      </trkpt>
      <trkpt lat="46.59874" lon="-1.83556">
        <ele>5</ele>
        <time>2020-06-03T15:15:54Z</time>
      </trkpt>
      <trkpt lat="46.59878" lon="-1.83553">
        <ele>5</ele>
        <time>2020-06-03T15:15:55Z</time>
      </trkpt>
      <trkpt lat="46.59882" lon="-1.83552">
        <ele>5</ele>
        <time>2020-06-03T15:15:56Z</time>
      </trkpt>
      <trkpt lat="46.59886" lon="-1.83551">
        <ele>5</ele>
        <time>2020-06-03T15:15:57Z</time>
      </trkpt>
      <trkpt lat="46.59891" lon="-1.8355">
        <ele>5</ele>
        <time>2020-06-03T15:15:58Z</time>
      </trkpt>
      <trkpt lat="46.59895" lon="-1.83548">
        <ele>5.1</ele>
        <time>2020-06-03T15:15:59Z</time>
      </trkpt>
      <trkpt lat="46.59899" lon="-1.83548">
        <ele>5.1</ele>
        <time>2020-06-03T15:16:00Z</time>
      </trkpt>
      <trkpt lat="46.59904" lon="-1.83548">
        <ele>5.2</ele>
        <time>2020-06-03T15:16:01Z</time>
      </trkpt>
      <trkpt lat="46.59908" lon="-1.83548">
        <ele>5.3</ele>
        <time>2020-06-03T15:16:02Z</time>
      </trkpt>
      <trkpt lat="46.59913" lon="-1.83549">
        <ele>5.4</ele>
        <time>2020-06-03T15:16:03Z</time>
      </trkpt>
      <trkpt lat="46.59917" lon="-1.83551">
        <ele>5.4</ele>
        <time>2020-06-03T15:16:04Z</time>
      </trkpt>
      <trkpt lat="46.59922" lon="-1.83553">
        <ele>5.5</ele>
        <time>2020-06-03T15:16:05Z</time>
      </trkpt>
      <trkpt lat="46.59927" lon="-1.83556">
        <ele>5.6</ele>
        <time>2020-06-03T15:16:06Z</time>
      </trkpt>
      <trkpt lat="46.59933" lon="-1.83558">
        <ele>5.7</ele>
        <time>2020-06-03T15:16:07Z</time>
      </trkpt>
      <trkpt lat="46.59938" lon="-1.83562">
        <ele>5.8</ele>
        <time>2020-06-03T15:16:08Z</time>
      </trkpt>
      <trkpt lat="46.59942" lon="-1.83565">
        <ele>5.9</ele>
        <time>2020-06-03T15:16:09Z</time>
      </trkpt>
      <trkpt lat="46.59946" lon="-1.83568">
        <ele>5.9</ele>
        <time>2020-06-03T15:16:10Z</time>
      </trkpt>
      <trkpt lat="46.59949" lon="-1.8357">
        <ele>6</ele>
        <time>2020-06-03T15:16:11Z</time>
      </trkpt>
      <trkpt lat="46.59952" lon="-1.83572">
        <ele>6.1</ele>
        <time>2020-06-03T15:16:12Z</time>
      </trkpt>
      <trkpt lat="46.59955" lon="-1.83574">
        <ele>6.2</ele>
        <time>2020-06-03T15:16:13Z</time>
      </trkpt>
      <trkpt lat="46.59958" lon="-1.83576">
        <ele>6.3</ele>
        <time>2020-06-03T15:16:14Z</time>
      </trkpt>
      <trkpt lat="46.59963" lon="-1.83578">
        <ele>6.4</ele>
        <time>2020-06-03T15:16:15Z</time>
      </trkpt>
      <trkpt lat="46.59966" lon="-1.83579">
        <ele>6.5</ele>
        <time>2020-06-03T15:16:16Z</time>
      </trkpt>
      <trkpt lat="46.59971" lon="-1.83578">
        <ele>6.6</ele>
        <time>2020-06-03T15:16:17Z</time>
      </trkpt>
      <trkpt lat="46.59976" lon="-1.83576">
        <ele>6.8</ele>
        <time>2020-06-03T15:16:18Z</time>
      </trkpt>
      <trkpt lat="46.59982" lon="-1.83574">
        <ele>6.9</ele>
        <time>2020-06-03T15:16:19Z</time>
      </trkpt>
      <trkpt lat="46.59987" lon="-1.83572">
        <ele>7</ele>
        <time>2020-06-03T15:16:20Z</time>
      </trkpt>
      <trkpt lat="46.59992" lon="-1.83571">
        <ele>7.1</ele>
        <time>2020-06-03T15:16:21Z</time>
      </trkpt>
      <trkpt lat="46.59997" lon="-1.83569">
        <ele>7.2</ele>
        <time>2020-06-03T15:16:22Z</time>
      </trkpt>
      <trkpt lat="46.60002" lon="-1.83568">
        <ele>7.2</ele>
        <time>2020-06-03T15:16:23Z</time>
      </trkpt>
      <trkpt lat="46.60007" lon="-1.83567">
        <ele>7.3</ele>
        <time>2020-06-03T15:16:24Z</time>
      </trkpt>
      <trkpt lat="46.60011" lon="-1.83566">
        <ele>7.4</ele>
        <time>2020-06-03T15:16:25Z</time>
      </trkpt>
      <trkpt lat="46.60015" lon="-1.83566">
        <ele>7.5</ele>
        <time>2020-06-03T15:16:26Z</time>
      </trkpt>
      <trkpt lat="46.60018" lon="-1.83566">
        <ele>7.6</ele>
        <time>2020-06-03T15:16:27Z</time>
      </trkpt>
      <trkpt lat="46.60022" lon="-1.83566">
        <ele>7.6</ele>
        <time>2020-06-03T15:16:28Z</time>
      </trkpt>
      <trkpt lat="46.60027" lon="-1.83564">
        <ele>7.7</ele>
        <time>2020-06-03T15:16:29Z</time>
      </trkpt>
      <trkpt lat="46.60032" lon="-1.83563">
        <ele>7.7</ele>
        <time>2020-06-03T15:16:30Z</time>
      </trkpt>
      <trkpt lat="46.60037" lon="-1.83562">
        <ele>7.8</ele>
        <time>2020-06-03T15:16:31Z</time>
      </trkpt>
      <trkpt lat="46.6004" lon="-1.83561">
        <ele>7.8</ele>
        <time>2020-06-03T15:16:32Z</time>
      </trkpt>
      <trkpt lat="46.60043" lon="-1.83561">
        <ele>7.8</ele>
        <time>2020-06-03T15:16:33Z</time>
      </trkpt>
      <trkpt lat="46.60048" lon="-1.83562">
        <ele>7.9</ele>
        <time>2020-06-03T15:16:34Z</time>
      </trkpt>
      <trkpt lat="46.60052" lon="-1.83565">
        <ele>8</ele>
        <time>2020-06-03T15:16:35Z</time>
      </trkpt>
      <trkpt lat="46.60055" lon="-1.83568">
        <ele>8</ele>
        <time>2020-06-03T15:16:36Z</time>
      </trkpt>
      <trkpt lat="46.60058" lon="-1.83572">
        <ele>8.1</ele>
        <time>2020-06-03T15:16:37Z</time>
      </trkpt>
      <trkpt lat="46.6006" lon="-1.83576">
        <ele>8.1</ele>
        <time>2020-06-03T15:16:38Z</time>
      </trkpt>
      <trkpt lat="46.60063" lon="-1.8358">
        <ele>8.2</ele>
        <time>2020-06-03T15:16:39Z</time>
      </trkpt>
      <trkpt lat="46.60066" lon="-1.83585">
        <ele>8.2</ele>
        <time>2020-06-03T15:16:40Z</time>
      </trkpt>
      <trkpt lat="46.60069" lon="-1.8359">
        <ele>8.3</ele>
        <time>2020-06-03T15:16:41Z</time>
      </trkpt>
      <trkpt lat="46.60072" lon="-1.83594">
        <ele>8.4</ele>
        <time>2020-06-03T15:16:42Z</time>
      </trkpt>
      <trkpt lat="46.60075" lon="-1.83599">
        <ele>8.5</ele>
        <time>2020-06-03T15:16:43Z</time>
      </trkpt>
      <trkpt lat="46.60078" lon="-1.83603">
        <ele>8.5</ele>
        <time>2020-06-03T15:16:44Z</time>
      </trkpt>
      <trkpt lat="46.6008" lon="-1.83607">
        <ele>8.6</ele>
        <time>2020-06-03T15:16:45Z</time>
      </trkpt>
      <trkpt lat="46.60083" lon="-1.83612">
        <ele>8.7</ele>
        <time>2020-06-03T15:16:46Z</time>
      </trkpt>
      <trkpt lat="46.60086" lon="-1.83616">
        <ele>8.7</ele>
        <time>2020-06-03T15:16:47Z</time>
      </trkpt>
      <trkpt lat="46.60089" lon="-1.8362">
        <ele>8.8</ele>
        <time>2020-06-03T15:16:48Z</time>
      </trkpt>
      <trkpt lat="46.60093" lon="-1.83625">
        <ele>8.8</ele>
        <time>2020-06-03T15:16:49Z</time>
      </trkpt>
      <trkpt lat="46.60097" lon="-1.83629">
        <ele>8.8</ele>
        <time>2020-06-03T15:16:50Z</time>
      </trkpt>
      <trkpt lat="46.60101" lon="-1.83632">
        <ele>8.8</ele>
        <time>2020-06-03T15:16:51Z</time>
      </trkpt>
      <trkpt lat="46.60105" lon="-1.83635">
        <ele>8.8</ele>
        <time>2020-06-03T15:16:52Z</time>
      </trkpt>
      <trkpt lat="46.6011" lon="-1.83638">
        <ele>8.8</ele>
        <time>2020-06-03T15:16:53Z</time>
      </trkpt>
      <trkpt lat="46.60115" lon="-1.8364">
        <ele>8.8</ele>
        <time>2020-06-03T15:16:54Z</time>
      </trkpt>
      <trkpt lat="46.60121" lon="-1.83641">
        <ele>8.8</ele>
        <time>2020-06-03T15:16:55Z</time>
      </trkpt>
      <trkpt lat="46.60127" lon="-1.83641">
        <ele>8.8</ele>
        <time>2020-06-03T15:16:56Z</time>
      </trkpt>
      <trkpt lat="46.60133" lon="-1.83641">
        <ele>8.8</ele>
        <time>2020-06-03T15:16:57Z</time>
      </trkpt>
      <trkpt lat="46.60139" lon="-1.8364">
        <ele>8.8</ele>
        <time>2020-06-03T15:16:58Z</time>
      </trkpt>
      <trkpt lat="46.60145" lon="-1.83639">
        <ele>8.8</ele>
        <time>2020-06-03T15:16:59Z</time>
      </trkpt>
      <trkpt lat="46.6015" lon="-1.83639">
        <ele>8.8</ele>
        <time>2020-06-03T15:17:00Z</time>
      </trkpt>
      <trkpt lat="46.60156" lon="-1.83639">
        <ele>8.8</ele>
        <time>2020-06-03T15:17:01Z</time>
      </trkpt>
      <trkpt lat="46.60161" lon="-1.83639">
        <ele>8.7</ele>
        <time>2020-06-03T15:17:02Z</time>
      </trkpt>
      <trkpt lat="46.60166" lon="-1.83642">
        <ele>8.6</ele>
        <time>2020-06-03T15:17:03Z</time>
      </trkpt>
      <trkpt lat="46.60171" lon="-1.83647">
        <ele>8.6</ele>
        <time>2020-06-03T15:17:04Z</time>
      </trkpt>
      <trkpt lat="46.60176" lon="-1.8365">
        <ele>8.5</ele>
        <time>2020-06-03T15:17:05Z</time>
      </trkpt>
      <trkpt lat="46.60181" lon="-1.83655">
        <ele>8.4</ele>
        <time>2020-06-03T15:17:06Z</time>
      </trkpt>
      <trkpt lat="46.60185" lon="-1.83659">
        <ele>8.3</ele>
        <time>2020-06-03T15:17:07Z</time>
      </trkpt>
      <trkpt lat="46.60189" lon="-1.83664">
        <ele>8.2</ele>
        <time>2020-06-03T15:17:08Z</time>
      </trkpt>
      <trkpt lat="46.60193" lon="-1.8367">
        <ele>8</ele>
        <time>2020-06-03T15:17:09Z</time>
      </trkpt>
      <trkpt lat="46.60196" lon="-1.83676">
        <ele>7.9</ele>
        <time>2020-06-03T15:17:10Z</time>
      </trkpt>
      <trkpt lat="46.60199" lon="-1.83681">
        <ele>7.8</ele>
        <time>2020-06-03T15:17:11Z</time>
      </trkpt>
      <trkpt lat="46.60201" lon="-1.83687">
        <ele>7.8</ele>
        <time>2020-06-03T15:17:12Z</time>
      </trkpt>
      <trkpt lat="46.60205" lon="-1.83692">
        <ele>7.7</ele>
        <time>2020-06-03T15:17:13Z</time>
      </trkpt>
      <trkpt lat="46.60208" lon="-1.83698">
        <ele>7.6</ele>
        <time>2020-06-03T15:17:14Z</time>
      </trkpt>
      <trkpt lat="46.60211" lon="-1.83704">
        <ele>7.4</ele>
        <time>2020-06-03T15:17:15Z</time>
      </trkpt>
      <trkpt lat="46.60215" lon="-1.83709">
        <ele>7.4</ele>
        <time>2020-06-03T15:17:16Z</time>
      </trkpt>
      <trkpt lat="46.60218" lon="-1.83715">
        <ele>7.3</ele>
        <time>2020-06-03T15:17:17Z</time>
      </trkpt>
      <trkpt lat="46.60222" lon="-1.83719">
        <ele>7.2</ele>
        <time>2020-06-03T15:17:18Z</time>
      </trkpt>
      <trkpt lat="46.60226" lon="-1.83725">
        <ele>7.1</ele>
        <time>2020-06-03T15:17:19Z</time>
      </trkpt>
      <trkpt lat="46.6023" lon="-1.8373">
        <ele>7.1</ele>
        <time>2020-06-03T15:17:20Z</time>
      </trkpt>
      <trkpt lat="46.60233" lon="-1.83735">
        <ele>7</ele>
        <time>2020-06-03T15:17:21Z</time>
      </trkpt>
      <trkpt lat="46.60237" lon="-1.83739">
        <ele>6.9</ele>
        <time>2020-06-03T15:17:22Z</time>
      </trkpt>
      <trkpt lat="46.60241" lon="-1.83744">
        <ele>6.9</ele>
        <time>2020-06-03T15:17:23Z</time>
      </trkpt>
      <trkpt lat="46.60245" lon="-1.83749">
        <ele>6.8</ele>
        <time>2020-06-03T15:17:24Z</time>
      </trkpt>
      <trkpt lat="46.60249" lon="-1.83754">
        <ele>6.7</ele>
        <time>2020-06-03T15:17:25Z</time>
      </trkpt>
      <trkpt lat="46.60254" lon="-1.83761">
        <ele>6.6</ele>
        <time>2020-06-03T15:17:26Z</time>
      </trkpt>
      <trkpt lat="46.60257" lon="-1.83769">
        <ele>6.5</ele>
        <time>2020-06-03T15:17:27Z</time>
      </trkpt>
      <trkpt lat="46.60261" lon="-1.83776">
        <ele>6.4</ele>
        <time>2020-06-03T15:17:28Z</time>
      </trkpt>
      <trkpt lat="46.60265" lon="-1.83784">
        <ele>6.3</ele>
        <time>2020-06-03T15:17:29Z</time>
      </trkpt>
      <trkpt lat="46.60269" lon="-1.83791">
        <ele>6.2</ele>
        <time>2020-06-03T15:17:30Z</time>
      </trkpt>
      <trkpt lat="46.60272" lon="-1.83798">
        <ele>6.1</ele>
        <time>2020-06-03T15:17:31Z</time>
      </trkpt>
      <trkpt lat="46.60275" lon="-1.83806">
        <ele>6.1</ele>
        <time>2020-06-03T15:17:32Z</time>
      </trkpt>
      <trkpt lat="46.60278" lon="-1.83814">
        <ele>6</ele>
        <time>2020-06-03T15:17:33Z</time>
      </trkpt>
      <trkpt lat="46.60281" lon="-1.83821">
        <ele>6</ele>
        <time>2020-06-03T15:17:34Z</time>
      </trkpt>
      <trkpt lat="46.60284" lon="-1.83828">
        <ele>6</ele>
        <time>2020-06-03T15:17:35Z</time>
      </trkpt>
      <trkpt lat="46.60287" lon="-1.83834">
        <ele>6</ele>
        <time>2020-06-03T15:17:36Z</time>
      </trkpt>
      <trkpt lat="46.60289" lon="-1.83841">
        <ele>5.9</ele>
        <time>2020-06-03T15:17:37Z</time>
      </trkpt>
      <trkpt lat="46.60291" lon="-1.83848">
        <ele>5.9</ele>
        <time>2020-06-03T15:17:38Z</time>
      </trkpt>
      <trkpt lat="46.60293" lon="-1.83856">
        <ele>5.9</ele>
        <time>2020-06-03T15:17:39Z</time>
      </trkpt>
      <trkpt lat="46.60295" lon="-1.83862">
        <ele>5.9</ele>
        <time>2020-06-03T15:17:40Z</time>
      </trkpt>
      <trkpt lat="46.60296" lon="-1.83868">
        <ele>5.9</ele>
        <time>2020-06-03T15:17:41Z</time>
      </trkpt>
      <trkpt lat="46.60298" lon="-1.83873">
        <ele>5.8</ele>
        <time>2020-06-03T15:17:42Z</time>
      </trkpt>
      <trkpt lat="46.60301" lon="-1.83878">
        <ele>5.8</ele>
        <time>2020-06-03T15:17:43Z</time>
      </trkpt>
      <trkpt lat="46.60304" lon="-1.83884">
        <ele>5.8</ele>
        <time>2020-06-03T15:17:44Z</time>
      </trkpt>
      <trkpt lat="46.60306" lon="-1.8389">
        <ele>5.8</ele>
        <time>2020-06-03T15:17:45Z</time>
      </trkpt>
      <trkpt lat="46.60308" lon="-1.83896">
        <ele>5.9</ele>
        <time>2020-06-03T15:17:46Z</time>
      </trkpt>
      <trkpt lat="46.60311" lon="-1.83903">
        <ele>5.9</ele>
        <time>2020-06-03T15:17:47Z</time>
      </trkpt>
      <trkpt lat="46.60313" lon="-1.83911">
        <ele>5.9</ele>
        <time>2020-06-03T15:17:48Z</time>
      </trkpt>
      <trkpt lat="46.60315" lon="-1.83918">
        <ele>5.9</ele>
        <time>2020-06-03T15:17:49Z</time>
      </trkpt>
      <trkpt lat="46.60317" lon="-1.83926">
        <ele>5.9</ele>
        <time>2020-06-03T15:17:50Z</time>
      </trkpt>
      <trkpt lat="46.60319" lon="-1.83933">
        <ele>5.9</ele>
        <time>2020-06-03T15:17:51Z</time>
      </trkpt>
      <trkpt lat="46.60321" lon="-1.8394">
        <ele>5.9</ele>
        <time>2020-06-03T15:17:52Z</time>
      </trkpt>
      <trkpt lat="46.60323" lon="-1.83947">
        <ele>5.9</ele>
        <time>2020-06-03T15:17:53Z</time>
      </trkpt>
      <trkpt lat="46.60325" lon="-1.83954">
        <ele>5.9</ele>
        <time>2020-06-03T15:17:54Z</time>
      </trkpt>
      <trkpt lat="46.60327" lon="-1.8396">
        <ele>6</ele>
        <time>2020-06-03T15:17:55Z</time>
      </trkpt>
      <trkpt lat="46.60328" lon="-1.83966">
        <ele>6</ele>
        <time>2020-06-03T15:17:56Z</time>
      </trkpt>
      <trkpt lat="46.6033" lon="-1.83971">
        <ele>6</ele>
        <time>2020-06-03T15:17:57Z</time>
      </trkpt>
      <trkpt lat="46.60332" lon="-1.83977">
        <ele>6</ele>
        <time>2020-06-03T15:17:58Z</time>
      </trkpt>
      <trkpt lat="46.60335" lon="-1.83983">
        <ele>6</ele>
        <time>2020-06-03T15:17:59Z</time>
      </trkpt>
      <trkpt lat="46.60337" lon="-1.83988">
        <ele>6</ele>
        <time>2020-06-03T15:18:00Z</time>
      </trkpt>
      <trkpt lat="46.60341" lon="-1.83993">
        <ele>6</ele>
        <time>2020-06-03T15:18:01Z</time>
      </trkpt>
      <trkpt lat="46.60345" lon="-1.83997">
        <ele>6.1</ele>
        <time>2020-06-03T15:18:02Z</time>
      </trkpt>
      <trkpt lat="46.60349" lon="-1.84001">
        <ele>6.1</ele>
        <time>2020-06-03T15:18:03Z</time>
      </trkpt>
      <trkpt lat="46.60353" lon="-1.84006">
        <ele>6.1</ele>
        <time>2020-06-03T15:18:04Z</time>
      </trkpt>
      <trkpt lat="46.60358" lon="-1.84009">
        <ele>6.1</ele>
        <time>2020-06-03T15:18:05Z</time>
      </trkpt>
      <trkpt lat="46.60363" lon="-1.84012">
        <ele>6.1</ele>
        <time>2020-06-03T15:18:06Z</time>
      </trkpt>
      <trkpt lat="46.60368" lon="-1.84016">
        <ele>6.1</ele>
        <time>2020-06-03T15:18:07Z</time>
      </trkpt>
      <trkpt lat="46.60372" lon="-1.84019">
        <ele>6.1</ele>
        <time>2020-06-03T15:18:08Z</time>
      </trkpt>
      <trkpt lat="46.60376" lon="-1.84022">
        <ele>6.2</ele>
        <time>2020-06-03T15:18:09Z</time>
      </trkpt>
      <trkpt lat="46.60379" lon="-1.84025">
        <ele>6.2</ele>
        <time>2020-06-03T15:18:10Z</time>
      </trkpt>
      <trkpt lat="46.60383" lon="-1.84027">
        <ele>6.2</ele>
        <time>2020-06-03T15:18:11Z</time>
      </trkpt>
      <trkpt lat="46.60388" lon="-1.8403">
        <ele>6.3</ele>
        <time>2020-06-03T15:18:12Z</time>
      </trkpt>
      <trkpt lat="46.60392" lon="-1.84033">
        <ele>6.3</ele>
        <time>2020-06-03T15:18:13Z</time>
      </trkpt>
      <trkpt lat="46.60396" lon="-1.84037">
        <ele>6.3</ele>
        <time>2020-06-03T15:18:14Z</time>
      </trkpt>
      <trkpt lat="46.604" lon="-1.84043">
        <ele>6.4</ele>
        <time>2020-06-03T15:18:15Z</time>
      </trkpt>
      <trkpt lat="46.60403" lon="-1.84049">
        <ele>6.7</ele>
        <time>2020-06-03T15:18:16Z</time>
      </trkpt>
      <trkpt lat="46.60405" lon="-1.84055">
        <ele>6.8</ele>
        <time>2020-06-03T15:18:17Z</time>
      </trkpt>
      <trkpt lat="46.60405" lon="-1.84062">
        <ele>6.8</ele>
        <time>2020-06-03T15:18:18Z</time>
      </trkpt>
      <trkpt lat="46.60406" lon="-1.84069">
        <ele>6.8</ele>
        <time>2020-06-03T15:18:19Z</time>
      </trkpt>
      <trkpt lat="46.60406" lon="-1.84076">
        <ele>6.7</ele>
        <time>2020-06-03T15:18:20Z</time>
      </trkpt>
      <trkpt lat="46.60405" lon="-1.84083">
        <ele>6.6</ele>
        <time>2020-06-03T15:18:21Z</time>
      </trkpt>
      <trkpt lat="46.60404" lon="-1.84091">
        <ele>6.6</ele>
        <time>2020-06-03T15:18:22Z</time>
      </trkpt>
      <trkpt lat="46.60404" lon="-1.84098">
        <ele>6.5</ele>
        <time>2020-06-03T15:18:23Z</time>
      </trkpt>
      <trkpt lat="46.60404" lon="-1.84105">
        <ele>6.5</ele>
        <time>2020-06-03T15:18:24Z</time>
      </trkpt>
      <trkpt lat="46.60404" lon="-1.84112">
        <ele>6.4</ele>
        <time>2020-06-03T15:18:25Z</time>
      </trkpt>
      <trkpt lat="46.60405" lon="-1.8412">
        <ele>6.4</ele>
        <time>2020-06-03T15:18:26Z</time>
      </trkpt>
      <trkpt lat="46.60405" lon="-1.84127">
        <ele>6.3</ele>
        <time>2020-06-03T15:18:27Z</time>
      </trkpt>
      <trkpt lat="46.60405" lon="-1.84134">
        <ele>6.2</ele>
        <time>2020-06-03T15:18:28Z</time>
      </trkpt>
      <trkpt lat="46.60405" lon="-1.84142">
        <ele>6.2</ele>
        <time>2020-06-03T15:18:29Z</time>
      </trkpt>
      <trkpt lat="46.60405" lon="-1.8415">
        <ele>6.2</ele>
        <time>2020-06-03T15:18:30Z</time>
      </trkpt>
      <trkpt lat="46.60405" lon="-1.84158">
        <ele>6.1</ele>
        <time>2020-06-03T15:18:31Z</time>
      </trkpt>
      <trkpt lat="46.60404" lon="-1.84165">
        <ele>6.1</ele>
        <time>2020-06-03T15:18:32Z</time>
      </trkpt>
      <trkpt lat="46.60405" lon="-1.84173">
        <ele>6</ele>
        <time>2020-06-03T15:18:33Z</time>
      </trkpt>
      <trkpt lat="46.60405" lon="-1.84181">
        <ele>6</ele>
        <time>2020-06-03T15:18:34Z</time>
      </trkpt>
      <trkpt lat="46.60404" lon="-1.84189">
        <ele>5.9</ele>
        <time>2020-06-03T15:18:35Z</time>
      </trkpt>
      <trkpt lat="46.60405" lon="-1.84197">
        <ele>5.9</ele>
        <time>2020-06-03T15:18:36Z</time>
      </trkpt>
      <trkpt lat="46.60404" lon="-1.84205">
        <ele>5.8</ele>
        <time>2020-06-03T15:18:37Z</time>
      </trkpt>
      <trkpt lat="46.60404" lon="-1.84212">
        <ele>5.8</ele>
        <time>2020-06-03T15:18:38Z</time>
      </trkpt>
      <trkpt lat="46.60403" lon="-1.84219">
        <ele>5.9</ele>
        <time>2020-06-03T15:18:39Z</time>
      </trkpt>
      <trkpt lat="46.60402" lon="-1.84226">
        <ele>5.9</ele>
        <time>2020-06-03T15:18:40Z</time>
      </trkpt>
      <trkpt lat="46.604" lon="-1.84232">
        <ele>5.9</ele>
        <time>2020-06-03T15:18:41Z</time>
      </trkpt>
      <trkpt lat="46.60398" lon="-1.84238">
        <ele>5.9</ele>
        <time>2020-06-03T15:18:42Z</time>
      </trkpt>
      <trkpt lat="46.60397" lon="-1.84245">
        <ele>5.9</ele>
        <time>2020-06-03T15:18:43Z</time>
      </trkpt>
      <trkpt lat="46.60395" lon="-1.8425">
        <ele>5.9</ele>
        <time>2020-06-03T15:18:44Z</time>
      </trkpt>
      <trkpt lat="46.60394" lon="-1.84256">
        <ele>5.9</ele>
        <time>2020-06-03T15:18:45Z</time>
      </trkpt>
      <trkpt lat="46.60392" lon="-1.84263">
        <ele>5.9</ele>
        <time>2020-06-03T15:18:46Z</time>
      </trkpt>
      <trkpt lat="46.60392" lon="-1.84269">
        <ele>5.9</ele>
        <time>2020-06-03T15:18:47Z</time>
      </trkpt>
      <trkpt lat="46.60391" lon="-1.84277">
        <ele>5.8</ele>
        <time>2020-06-03T15:18:48Z</time>
      </trkpt>
      <trkpt lat="46.60389" lon="-1.84283">
        <ele>5.8</ele>
        <time>2020-06-03T15:18:49Z</time>
      </trkpt>
      <trkpt lat="46.60387" lon="-1.8429">
        <ele>5.7</ele>
        <time>2020-06-03T15:18:50Z</time>
      </trkpt>
      <trkpt lat="46.60387" lon="-1.84297">
        <ele>5.7</ele>
        <time>2020-06-03T15:18:51Z</time>
      </trkpt>
      <trkpt lat="46.60387" lon="-1.84305">
        <ele>5.6</ele>
        <time>2020-06-03T15:18:52Z</time>
      </trkpt>
      <trkpt lat="46.60387" lon="-1.84313">
        <ele>5.6</ele>
        <time>2020-06-03T15:18:53Z</time>
      </trkpt>
      <trkpt lat="46.60387" lon="-1.84321">
        <ele>5.5</ele>
        <time>2020-06-03T15:18:54Z</time>
      </trkpt>
      <trkpt lat="46.60386" lon="-1.84329">
        <ele>5.5</ele>
        <time>2020-06-03T15:18:55Z</time>
      </trkpt>
      <trkpt lat="46.60386" lon="-1.84338">
        <ele>5.5</ele>
        <time>2020-06-03T15:18:56Z</time>
      </trkpt>
      <trkpt lat="46.60388" lon="-1.84346">
        <ele>5.5</ele>
        <time>2020-06-03T15:18:57Z</time>
      </trkpt>
      <trkpt lat="46.6039" lon="-1.84354">
        <ele>5.5</ele>
        <time>2020-06-03T15:18:58Z</time>
      </trkpt>
      <trkpt lat="46.6039" lon="-1.84362">
        <ele>5.5</ele>
        <time>2020-06-03T15:18:59Z</time>
      </trkpt>
      <trkpt lat="46.6039" lon="-1.8437">
        <ele>5.5</ele>
        <time>2020-06-03T15:19:00Z</time>
      </trkpt>
      <trkpt lat="46.60391" lon="-1.84379">
        <ele>5.4</ele>
        <time>2020-06-03T15:19:01Z</time>
      </trkpt>
      <trkpt lat="46.60391" lon="-1.84388">
        <ele>5.3</ele>
        <time>2020-06-03T15:19:02Z</time>
      </trkpt>
      <trkpt lat="46.6039" lon="-1.84396">
        <ele>5.2</ele>
        <time>2020-06-03T15:19:03Z</time>
      </trkpt>
      <trkpt lat="46.6039" lon="-1.84405">
        <ele>5.1</ele>
        <time>2020-06-03T15:19:04Z</time>
      </trkpt>
      <trkpt lat="46.60389" lon="-1.84413">
        <ele>5</ele>
        <time>2020-06-03T15:19:05Z</time>
      </trkpt>
      <trkpt lat="46.60389" lon="-1.84422">
        <ele>4.9</ele>
        <time>2020-06-03T15:19:06Z</time>
      </trkpt>
      <trkpt lat="46.60389" lon="-1.84431">
        <ele>4.7</ele>
        <time>2020-06-03T15:19:07Z</time>
      </trkpt>
      <trkpt lat="46.60387" lon="-1.84439">
        <ele>4.6</ele>
        <time>2020-06-03T15:19:08Z</time>
      </trkpt>
      <trkpt lat="46.60386" lon="-1.84447">
        <ele>4.5</ele>
        <time>2020-06-03T15:19:09Z</time>
      </trkpt>
      <trkpt lat="46.60384" lon="-1.84455">
        <ele>4.3</ele>
        <time>2020-06-03T15:19:10Z</time>
      </trkpt>
      <trkpt lat="46.60381" lon="-1.84462">
        <ele>4.2</ele>
        <time>2020-06-03T15:19:11Z</time>
      </trkpt>
      <trkpt lat="46.60376" lon="-1.84467">
        <ele>4.1</ele>
        <time>2020-06-03T15:19:12Z</time>
      </trkpt>
      <trkpt lat="46.60371" lon="-1.84472">
        <ele>4</ele>
        <time>2020-06-03T15:19:13Z</time>
      </trkpt>
      <trkpt lat="46.60366" lon="-1.84478">
        <ele>3.7</ele>
        <time>2020-06-03T15:19:14Z</time>
      </trkpt>
      <trkpt lat="46.60363" lon="-1.84484">
        <ele>3.7</ele>
        <time>2020-06-03T15:19:15Z</time>
      </trkpt>
      <trkpt lat="46.6036" lon="-1.84489">
        <ele>3.7</ele>
        <time>2020-06-03T15:19:16Z</time>
      </trkpt>
      <trkpt lat="46.6036" lon="-1.84495">
        <ele>3.7</ele>
        <time>2020-06-03T15:19:17Z</time>
      </trkpt>
      <trkpt lat="46.60359" lon="-1.84501">
        <ele>3.7</ele>
        <time>2020-06-03T15:19:18Z</time>
      </trkpt>
      <trkpt lat="46.60358" lon="-1.84508">
        <ele>3.7</ele>
        <time>2020-06-03T15:19:19Z</time>
      </trkpt>
      <trkpt lat="46.60357" lon="-1.84516">
        <ele>3.7</ele>
        <time>2020-06-03T15:19:20Z</time>
      </trkpt>
      <trkpt lat="46.60358" lon="-1.84523">
        <ele>3.7</ele>
        <time>2020-06-03T15:19:21Z</time>
      </trkpt>
      <trkpt lat="46.60358" lon="-1.8453">
        <ele>3.7</ele>
        <time>2020-06-03T15:19:22Z</time>
      </trkpt>
      <trkpt lat="46.60358" lon="-1.84538">
        <ele>3.7</ele>
        <time>2020-06-03T15:19:23Z</time>
      </trkpt>
      <trkpt lat="46.60358" lon="-1.84545">
        <ele>3.7</ele>
        <time>2020-06-03T15:19:24Z</time>
      </trkpt>
      <trkpt lat="46.60358" lon="-1.84553">
        <ele>3.7</ele>
        <time>2020-06-03T15:19:25Z</time>
      </trkpt>
      <trkpt lat="46.60359" lon="-1.8456">
        <ele>3.7</ele>
        <time>2020-06-03T15:19:26Z</time>
      </trkpt>
      <trkpt lat="46.60359" lon="-1.84567">
        <ele>3.7</ele>
        <time>2020-06-03T15:19:27Z</time>
      </trkpt>
      <trkpt lat="46.60359" lon="-1.84573">
        <ele>3.7</ele>
        <time>2020-06-03T15:19:28Z</time>
      </trkpt>
      <trkpt lat="46.60358" lon="-1.84579">
        <ele>3.8</ele>
        <time>2020-06-03T15:19:29Z</time>
      </trkpt>
      <trkpt lat="46.60358" lon="-1.84585">
        <ele>3.8</ele>
        <time>2020-06-03T15:19:30Z</time>
      </trkpt>
      <trkpt lat="46.60357" lon="-1.84591">
        <ele>3.8</ele>
        <time>2020-06-03T15:19:31Z</time>
      </trkpt>
      <trkpt lat="46.60356" lon="-1.84599">
        <ele>3.9</ele>
        <time>2020-06-03T15:19:32Z</time>
      </trkpt>
      <trkpt lat="46.60355" lon="-1.84605">
        <ele>3.9</ele>
        <time>2020-06-03T15:19:33Z</time>
      </trkpt>
      <trkpt lat="46.60354" lon="-1.84611">
        <ele>3.9</ele>
        <time>2020-06-03T15:19:34Z</time>
      </trkpt>
      <trkpt lat="46.60352" lon="-1.84617">
        <ele>4</ele>
        <time>2020-06-03T15:19:35Z</time>
      </trkpt>
      <trkpt lat="46.60351" lon="-1.84623">
        <ele>4</ele>
        <time>2020-06-03T15:19:36Z</time>
      </trkpt>
      <trkpt lat="46.6035" lon="-1.84629">
        <ele>4</ele>
        <time>2020-06-03T15:19:37Z</time>
      </trkpt>
      <trkpt lat="46.60349" lon="-1.84634">
        <ele>4.1</ele>
        <time>2020-06-03T15:19:38Z</time>
      </trkpt>
      <trkpt lat="46.60349" lon="-1.8464">
        <ele>4.1</ele>
        <time>2020-06-03T15:19:39Z</time>
      </trkpt>
      <trkpt lat="46.60349" lon="-1.84646">
        <ele>4.1</ele>
        <time>2020-06-03T15:19:40Z</time>
      </trkpt>
      <trkpt lat="46.60349" lon="-1.84653">
        <ele>4.2</ele>
        <time>2020-06-03T15:19:41Z</time>
      </trkpt>
      <trkpt lat="46.60348" lon="-1.84658">
        <ele>4.2</ele>
        <time>2020-06-03T15:19:42Z</time>
      </trkpt>
      <trkpt lat="46.60348" lon="-1.84664">
        <ele>4.2</ele>
        <time>2020-06-03T15:19:43Z</time>
      </trkpt>
      <trkpt lat="46.60347" lon="-1.8467">
        <ele>4.2</ele>
        <time>2020-06-03T15:19:44Z</time>
      </trkpt>
      <trkpt lat="46.60347" lon="-1.84677">
        <ele>4.3</ele>
        <time>2020-06-03T15:19:45Z</time>
      </trkpt>
      <trkpt lat="46.60346" lon="-1.84683">
        <ele>4.3</ele>
        <time>2020-06-03T15:19:46Z</time>
      </trkpt>
      <trkpt lat="46.60345" lon="-1.84687">
        <ele>4.3</ele>
        <time>2020-06-03T15:19:47Z</time>
      </trkpt>
      <trkpt lat="46.60344" lon="-1.84693">
        <ele>4.3</ele>
        <time>2020-06-03T15:19:48Z</time>
      </trkpt>
      <trkpt lat="46.60342" lon="-1.84698">
        <ele>4.3</ele>
        <time>2020-06-03T15:19:49Z</time>
      </trkpt>
      <trkpt lat="46.60339" lon="-1.84702">
        <ele>4.4</ele>
        <time>2020-06-03T15:19:50Z</time>
      </trkpt>
      <trkpt lat="46.60338" lon="-1.84706">
        <ele>4.4</ele>
        <time>2020-06-03T15:19:51Z</time>
      </trkpt>
      <trkpt lat="46.60335" lon="-1.8471">
        <ele>4.4</ele>
        <time>2020-06-03T15:19:52Z</time>
      </trkpt>
      <trkpt lat="46.60333" lon="-1.84712">
        <ele>4.4</ele>
        <time>2020-06-03T15:19:53Z</time>
      </trkpt>
      <trkpt lat="46.60332" lon="-1.84716">
        <ele>4.4</ele>
        <time>2020-06-03T15:19:54Z</time>
      </trkpt>
      <trkpt lat="46.6033" lon="-1.8472">
        <ele>4.5</ele>
        <time>2020-06-03T15:19:55Z</time>
      </trkpt>
      <trkpt lat="46.60327" lon="-1.84724">
        <ele>4.5</ele>
        <time>2020-06-03T15:19:56Z</time>
      </trkpt>
      <trkpt lat="46.60324" lon="-1.84728">
        <ele>4.6</ele>
        <time>2020-06-03T15:19:57Z</time>
      </trkpt>
      <trkpt lat="46.60322" lon="-1.84733">
        <ele>4.6</ele>
        <time>2020-06-03T15:19:58Z</time>
      </trkpt>
      <trkpt lat="46.60321" lon="-1.84738">
        <ele>4.6</ele>
        <time>2020-06-03T15:19:59Z</time>
      </trkpt>
      <trkpt lat="46.60318" lon="-1.84743">
        <ele>4.7</ele>
        <time>2020-06-03T15:20:00Z</time>
      </trkpt>
      <trkpt lat="46.60317" lon="-1.84748">
        <ele>4.7</ele>
        <time>2020-06-03T15:20:01Z</time>
      </trkpt>
      <trkpt lat="46.60315" lon="-1.84755">
        <ele>4.8</ele>
        <time>2020-06-03T15:20:02Z</time>
      </trkpt>
      <trkpt lat="46.60314" lon="-1.8476">
        <ele>4.8</ele>
        <time>2020-06-03T15:20:03Z</time>
      </trkpt>
      <trkpt lat="46.60313" lon="-1.84765">
        <ele>4.8</ele>
        <time>2020-06-03T15:20:04Z</time>
      </trkpt>
      <trkpt lat="46.60311" lon="-1.84771">
        <ele>4.9</ele>
        <time>2020-06-03T15:20:05Z</time>
      </trkpt>
      <trkpt lat="46.6031" lon="-1.84776">
        <ele>4.9</ele>
        <time>2020-06-03T15:20:06Z</time>
      </trkpt>
      <trkpt lat="46.60309" lon="-1.84782">
        <ele>4.9</ele>
        <time>2020-06-03T15:20:07Z</time>
      </trkpt>
      <trkpt lat="46.60307" lon="-1.84787">
        <ele>4.9</ele>
        <time>2020-06-03T15:20:08Z</time>
      </trkpt>
      <trkpt lat="46.60306" lon="-1.84793">
        <ele>4.9</ele>
        <time>2020-06-03T15:20:09Z</time>
      </trkpt>
      <trkpt lat="46.60305" lon="-1.84798">
        <ele>4.9</ele>
        <time>2020-06-03T15:20:10Z</time>
      </trkpt>
      <trkpt lat="46.60305" lon="-1.84804">
        <ele>5</ele>
        <time>2020-06-03T15:20:11Z</time>
      </trkpt>
      <trkpt lat="46.60304" lon="-1.84808">
        <ele>5</ele>
        <time>2020-06-03T15:20:12Z</time>
      </trkpt>
      <trkpt lat="46.60303" lon="-1.84813">
        <ele>5</ele>
        <time>2020-06-03T15:20:13Z</time>
      </trkpt>
      <trkpt lat="46.60302" lon="-1.8482">
        <ele>5.1</ele>
        <time>2020-06-03T15:20:14Z</time>
      </trkpt>
      <trkpt lat="46.603" lon="-1.84826">
        <ele>5.1</ele>
        <time>2020-06-03T15:20:15Z</time>
      </trkpt>
      <trkpt lat="46.60299" lon="-1.84833">
        <ele>5.1</ele>
        <time>2020-06-03T15:20:16Z</time>
      </trkpt>
      <trkpt lat="46.60299" lon="-1.84838">
        <ele>5.2</ele>
        <time>2020-06-03T15:20:17Z</time>
      </trkpt>
      <trkpt lat="46.60298" lon="-1.84843">
        <ele>5.2</ele>
        <time>2020-06-03T15:20:18Z</time>
      </trkpt>
      <trkpt lat="46.60297" lon="-1.84848">
        <ele>5.2</ele>
        <time>2020-06-03T15:20:19Z</time>
      </trkpt>
      <trkpt lat="46.60297" lon="-1.84853">
        <ele>5.3</ele>
        <time>2020-06-03T15:20:20Z</time>
      </trkpt>
      <trkpt lat="46.60296" lon="-1.84857">
        <ele>5.3</ele>
        <time>2020-06-03T15:20:21Z</time>
      </trkpt>
      <trkpt lat="46.60295" lon="-1.84861">
        <ele>5.3</ele>
        <time>2020-06-03T15:20:22Z</time>
      </trkpt>
      <trkpt lat="46.60294" lon="-1.84867">
        <ele>5.3</ele>
        <time>2020-06-03T15:20:23Z</time>
      </trkpt>
      <trkpt lat="46.60293" lon="-1.84871">
        <ele>5.3</ele>
        <time>2020-06-03T15:20:24Z</time>
      </trkpt>
      <trkpt lat="46.60292" lon="-1.84876">
        <ele>5.4</ele>
        <time>2020-06-03T15:20:25Z</time>
      </trkpt>
      <trkpt lat="46.60291" lon="-1.84882">
        <ele>5.4</ele>
        <time>2020-06-03T15:20:26Z</time>
      </trkpt>
      <trkpt lat="46.6029" lon="-1.84887">
        <ele>5.4</ele>
        <time>2020-06-03T15:20:27Z</time>
      </trkpt>
      <trkpt lat="46.60289" lon="-1.84892">
        <ele>5.4</ele>
        <time>2020-06-03T15:20:28Z</time>
      </trkpt>
      <trkpt lat="46.60288" lon="-1.84898">
        <ele>5.4</ele>
        <time>2020-06-03T15:20:29Z</time>
      </trkpt>
      <trkpt lat="46.60287" lon="-1.84902">
        <ele>5.4</ele>
        <time>2020-06-03T15:20:30Z</time>
      </trkpt>
      <trkpt lat="46.60286" lon="-1.84907">
        <ele>5.4</ele>
        <time>2020-06-03T15:20:31Z</time>
      </trkpt>
      <trkpt lat="46.60285" lon="-1.84913">
        <ele>5.4</ele>
        <time>2020-06-03T15:20:32Z</time>
      </trkpt>
      <trkpt lat="46.60284" lon="-1.84919">
        <ele>5.4</ele>
        <time>2020-06-03T15:20:33Z</time>
      </trkpt>
      <trkpt lat="46.60283" lon="-1.84925">
        <ele>5.4</ele>
        <time>2020-06-03T15:20:34Z</time>
      </trkpt>
      <trkpt lat="46.60282" lon="-1.8493">
        <ele>5.4</ele>
        <time>2020-06-03T15:20:35Z</time>
      </trkpt>
      <trkpt lat="46.6028" lon="-1.84936">
        <ele>5.4</ele>
        <time>2020-06-03T15:20:36Z</time>
      </trkpt>
      <trkpt lat="46.6028" lon="-1.84941">
        <ele>5.5</ele>
        <time>2020-06-03T15:20:37Z</time>
      </trkpt>
      <trkpt lat="46.60278" lon="-1.84947">
        <ele>5.5</ele>
        <time>2020-06-03T15:20:38Z</time>
      </trkpt>
      <trkpt lat="46.60278" lon="-1.84954">
        <ele>5.6</ele>
        <time>2020-06-03T15:20:39Z</time>
      </trkpt>
      <trkpt lat="46.60276" lon="-1.84961">
        <ele>5.7</ele>
        <time>2020-06-03T15:20:40Z</time>
      </trkpt>
      <trkpt lat="46.60275" lon="-1.84967">
        <ele>5.8</ele>
        <time>2020-06-03T15:20:41Z</time>
      </trkpt>
      <trkpt lat="46.60273" lon="-1.84974">
        <ele>5.9</ele>
        <time>2020-06-03T15:20:42Z</time>
      </trkpt>
      <trkpt lat="46.60272" lon="-1.8498">
        <ele>6</ele>
        <time>2020-06-03T15:20:43Z</time>
      </trkpt>
      <trkpt lat="46.60271" lon="-1.84987">
        <ele>6.1</ele>
        <time>2020-06-03T15:20:44Z</time>
      </trkpt>
      <trkpt lat="46.6027" lon="-1.84993">
        <ele>6.2</ele>
        <time>2020-06-03T15:20:45Z</time>
      </trkpt>
      <trkpt lat="46.60269" lon="-1.84999">
        <ele>6.4</ele>
        <time>2020-06-03T15:20:46Z</time>
      </trkpt>
      <trkpt lat="46.60268" lon="-1.85005">
        <ele>6.4</ele>
        <time>2020-06-03T15:20:47Z</time>
      </trkpt>
      <trkpt lat="46.60268" lon="-1.85011">
        <ele>6.4</ele>
        <time>2020-06-03T15:20:48Z</time>
      </trkpt>
      <trkpt lat="46.60267" lon="-1.85015">
        <ele>6.4</ele>
        <time>2020-06-03T15:20:49Z</time>
      </trkpt>
      <trkpt lat="46.60267" lon="-1.85017">
        <ele>6.4</ele>
        <time>2020-06-03T15:20:50Z</time>
      </trkpt>
      <trkpt lat="46.60267" lon="-1.8502">
        <ele>6.4</ele>
        <time>2020-06-03T15:20:51Z</time>
      </trkpt>
      <trkpt lat="46.60268" lon="-1.85022">
        <ele>6.5</ele>
        <time>2020-06-03T15:20:52Z</time>
      </trkpt>
      <trkpt lat="46.60268" lon="-1.85024">
        <ele>6.5</ele>
        <time>2020-06-03T15:20:53Z</time>
      </trkpt>
      <trkpt lat="46.60269" lon="-1.85025">
        <ele>6.5</ele>
        <time>2020-06-03T15:20:54Z</time>
      </trkpt>
      <trkpt lat="46.60269" lon="-1.85028">
        <ele>6.5</ele>
        <time>2020-06-03T15:20:55Z</time>
      </trkpt>
      <trkpt lat="46.60269" lon="-1.8503">
        <ele>6.5</ele>
        <time>2020-06-03T15:20:56Z</time>
      </trkpt>
      <trkpt lat="46.60268" lon="-1.85032">
        <ele>6.5</ele>
        <time>2020-06-03T15:20:57Z</time>
      </trkpt>
      <trkpt lat="46.60268" lon="-1.85034">
        <ele>6.5</ele>
        <time>2020-06-03T15:20:58Z</time>
      </trkpt>
      <trkpt lat="46.60267" lon="-1.85036">
        <ele>6.5</ele>
        <time>2020-06-03T15:20:59Z</time>
      </trkpt>
      <trkpt lat="46.60268" lon="-1.85039">
        <ele>6.5</ele>
        <time>2020-06-03T15:21:00Z</time>
      </trkpt>
      <trkpt lat="46.60269" lon="-1.85041">
        <ele>6.5</ele>
        <time>2020-06-03T15:21:01Z</time>
      </trkpt>
      <trkpt lat="46.60269" lon="-1.85044">
        <ele>6.5</ele>
        <time>2020-06-03T15:21:02Z</time>
      </trkpt>
      <trkpt lat="46.6027" lon="-1.85044">
        <ele>6.5</ele>
        <time>2020-06-03T15:21:03Z</time>
      </trkpt>
      <trkpt lat="46.60271" lon="-1.85043">
        <ele>6.5</ele>
        <time>2020-06-03T15:21:04Z</time>
      </trkpt>
      <trkpt lat="46.60271" lon="-1.85043">
        <ele>6.5</ele>
        <time>2020-06-03T15:21:05Z</time>
      </trkpt>
      <trkpt lat="46.60272" lon="-1.85042">
        <ele>6.5</ele>
        <time>2020-06-03T15:21:06Z</time>
      </trkpt>
      <trkpt lat="46.60272" lon="-1.85041">
        <ele>6.5</ele>
        <time>2020-06-03T15:21:07Z</time>
      </trkpt>
      <trkpt lat="46.60273" lon="-1.8504">
        <ele>6.6</ele>
        <time>2020-06-03T15:21:08Z</time>
      </trkpt>
      <trkpt lat="46.60273" lon="-1.8504">
        <ele>6.6</ele>
        <time>2020-06-03T15:21:09Z</time>
      </trkpt>
      <trkpt lat="46.60274" lon="-1.85039">
        <ele>6.6</ele>
        <time>2020-06-03T15:21:10Z</time>
      </trkpt>
      <trkpt lat="46.60274" lon="-1.85038">
        <ele>6.6</ele>
        <time>2020-06-03T15:21:11Z</time>
      </trkpt>
      <trkpt lat="46.60275" lon="-1.85038">
        <ele>6.6</ele>
        <time>2020-06-03T15:21:12Z</time>
      </trkpt>
      <trkpt lat="46.60275" lon="-1.85037">
        <ele>6.6</ele>
        <time>2020-06-03T15:21:13Z</time>
      </trkpt>
      <trkpt lat="46.60276" lon="-1.85036">
        <ele>6.6</ele>
        <time>2020-06-03T15:21:14Z</time>
      </trkpt>
      <trkpt lat="46.60276" lon="-1.85036">
        <ele>6.5</ele>
        <time>2020-06-03T15:21:31Z</time>
      </trkpt>
      <trkpt lat="46.60277" lon="-1.85035">
        <ele>6.5</ele>
        <time>2020-06-03T15:21:32Z</time>
      </trkpt>
      <trkpt lat="46.60277" lon="-1.85034">
        <ele>6.5</ele>
        <time>2020-06-03T15:21:33Z</time>
      </trkpt>
      <trkpt lat="46.60279" lon="-1.8503">
        <ele>6.5</ele>
        <time>2020-06-03T15:21:34Z</time>
      </trkpt>
      <trkpt lat="46.6028" lon="-1.8503">
        <ele>6.5</ele>
        <time>2020-06-03T15:21:35Z</time>
      </trkpt>
      <trkpt lat="46.60283" lon="-1.85029">
        <ele>6.5</ele>
        <time>2020-06-03T15:21:36Z</time>
      </trkpt>
      <trkpt lat="46.60284" lon="-1.85028">
        <ele>6.5</ele>
        <time>2020-06-03T15:21:37Z</time>
      </trkpt>
      <trkpt lat="46.60286" lon="-1.85028">
        <ele>6.5</ele>
        <time>2020-06-03T15:21:38Z</time>
      </trkpt>
      <trkpt lat="46.60287" lon="-1.85028">
        <ele>6.5</ele>
        <time>2020-06-03T15:21:39Z</time>
      </trkpt>
      <trkpt lat="46.60291" lon="-1.85028">
        <ele>6.5</ele>
        <time>2020-06-03T15:21:40Z</time>
      </trkpt>
      <trkpt lat="46.60293" lon="-1.85028">
        <ele>6.5</ele>
        <time>2020-06-03T15:21:41Z</time>
      </trkpt>
      <trkpt lat="46.60296" lon="-1.85029">
        <ele>6.5</ele>
        <time>2020-06-03T15:21:42Z</time>
      </trkpt>
      <trkpt lat="46.60299" lon="-1.85032">
        <ele>6.5</ele>
        <time>2020-06-03T15:21:43Z</time>
      </trkpt>
      <trkpt lat="46.60303" lon="-1.85033">
        <ele>6.5</ele>
        <time>2020-06-03T15:21:44Z</time>
      </trkpt>
      <trkpt lat="46.60306" lon="-1.85035">
        <ele>6.5</ele>
        <time>2020-06-03T15:21:45Z</time>
      </trkpt>
      <trkpt lat="46.60309" lon="-1.85036">
        <ele>6.5</ele>
        <time>2020-06-03T15:21:46Z</time>
      </trkpt>
      <trkpt lat="46.60309" lon="-1.85036">
        <ele>6.5</ele>
        <time>2020-06-03T15:21:47Z</time>
      </trkpt>
      <trkpt lat="46.60312" lon="-1.85037">
        <ele>6.4</ele>
        <time>2020-06-03T15:21:48Z</time>
      </trkpt>
      <trkpt lat="46.60313" lon="-1.85037">
        <ele>6.4</ele>
        <time>2020-06-03T15:21:49Z</time>
      </trkpt>
      <trkpt lat="46.60317" lon="-1.85038">
        <ele>6.4</ele>
        <time>2020-06-03T15:21:50Z</time>
      </trkpt>
      <trkpt lat="46.60318" lon="-1.85039">
        <ele>6.4</ele>
        <time>2020-06-03T15:21:51Z</time>
      </trkpt>
      <trkpt lat="46.60321" lon="-1.8504">
        <ele>6.5</ele>
        <time>2020-06-03T15:21:52Z</time>
      </trkpt>
      <trkpt lat="46.60324" lon="-1.85042">
        <ele>6.5</ele>
        <time>2020-06-03T15:21:53Z</time>
      </trkpt>
      <trkpt lat="46.60327" lon="-1.85044">
        <ele>6.5</ele>
        <time>2020-06-03T15:21:54Z</time>
      </trkpt>
      <trkpt lat="46.6033" lon="-1.85046">
        <ele>6.5</ele>
        <time>2020-06-03T15:21:55Z</time>
      </trkpt>
      <trkpt lat="46.60333" lon="-1.85048">
        <ele>6.6</ele>
        <time>2020-06-03T15:21:56Z</time>
      </trkpt>
      <trkpt lat="46.60337" lon="-1.85049">
        <ele>6.6</ele>
        <time>2020-06-03T15:21:57Z</time>
      </trkpt>
      <trkpt lat="46.6034" lon="-1.85049">
        <ele>6.7</ele>
        <time>2020-06-03T15:21:58Z</time>
      </trkpt>
      <trkpt lat="46.60342" lon="-1.85051">
        <ele>6.7</ele>
        <time>2020-06-03T15:21:59Z</time>
      </trkpt>
      <trkpt lat="46.60345" lon="-1.85053">
        <ele>6.8</ele>
        <time>2020-06-03T15:22:00Z</time>
      </trkpt>
      <trkpt lat="46.60347" lon="-1.85054">
        <ele>6.9</ele>
        <time>2020-06-03T15:22:01Z</time>
      </trkpt>
      <trkpt lat="46.6035" lon="-1.85056">
        <ele>6.9</ele>
        <time>2020-06-03T15:22:02Z</time>
      </trkpt>
      <trkpt lat="46.60354" lon="-1.85057">
        <ele>7</ele>
        <time>2020-06-03T15:22:03Z</time>
      </trkpt>
      <trkpt lat="46.60356" lon="-1.85059">
        <ele>7.1</ele>
        <time>2020-06-03T15:22:04Z</time>
      </trkpt>
      <trkpt lat="46.60359" lon="-1.8506">
        <ele>7.1</ele>
        <time>2020-06-03T15:22:05Z</time>
      </trkpt>
      <trkpt lat="46.60362" lon="-1.85061">
        <ele>7.2</ele>
        <time>2020-06-03T15:22:06Z</time>
      </trkpt>
      <trkpt lat="46.60366" lon="-1.85062">
        <ele>7.3</ele>
        <time>2020-06-03T15:22:07Z</time>
      </trkpt>
      <trkpt lat="46.60369" lon="-1.85063">
        <ele>7.4</ele>
        <time>2020-06-03T15:22:08Z</time>
      </trkpt>
      <trkpt lat="46.60372" lon="-1.85065">
        <ele>7.5</ele>
        <time>2020-06-03T15:22:09Z</time>
      </trkpt>
      <trkpt lat="46.60375" lon="-1.85066">
        <ele>7.5</ele>
        <time>2020-06-03T15:22:10Z</time>
      </trkpt>
      <trkpt lat="46.60378" lon="-1.85068">
        <ele>7.6</ele>
        <time>2020-06-03T15:22:11Z</time>
      </trkpt>
      <trkpt lat="46.60382" lon="-1.8507">
        <ele>7.7</ele>
        <time>2020-06-03T15:22:12Z</time>
      </trkpt>
      <trkpt lat="46.60383" lon="-1.85071">
        <ele>7.7</ele>
        <time>2020-06-03T15:22:13Z</time>
      </trkpt>
      <trkpt lat="46.60386" lon="-1.85073">
        <ele>7.8</ele>
        <time>2020-06-03T15:22:14Z</time>
      </trkpt>
      <trkpt lat="46.60389" lon="-1.85075">
        <ele>7.8</ele>
        <time>2020-06-03T15:22:15Z</time>
      </trkpt>
      <trkpt lat="46.60392" lon="-1.85076">
        <ele>7.8</ele>
        <time>2020-06-03T15:22:16Z</time>
      </trkpt>
      <trkpt lat="46.60396" lon="-1.85077">
        <ele>7.9</ele>
        <time>2020-06-03T15:22:17Z</time>
      </trkpt>
      <trkpt lat="46.60399" lon="-1.85078">
        <ele>7.9</ele>
        <time>2020-06-03T15:22:18Z</time>
      </trkpt>
      <trkpt lat="46.60402" lon="-1.85079">
        <ele>8</ele>
        <time>2020-06-03T15:22:19Z</time>
      </trkpt>
      <trkpt lat="46.60405" lon="-1.85081">
        <ele>8</ele>
        <time>2020-06-03T15:22:20Z</time>
      </trkpt>
      <trkpt lat="46.60408" lon="-1.85082">
        <ele>8</ele>
        <time>2020-06-03T15:22:21Z</time>
      </trkpt>
      <trkpt lat="46.60411" lon="-1.85083">
        <ele>8.1</ele>
        <time>2020-06-03T15:22:22Z</time>
      </trkpt>
      <trkpt lat="46.60414" lon="-1.85085">
        <ele>8.1</ele>
        <time>2020-06-03T15:22:23Z</time>
      </trkpt>
      <trkpt lat="46.60418" lon="-1.85087">
        <ele>8.1</ele>
        <time>2020-06-03T15:22:24Z</time>
      </trkpt>
      <trkpt lat="46.60422" lon="-1.85089">
        <ele>8.2</ele>
        <time>2020-06-03T15:22:25Z</time>
      </trkpt>
      <trkpt lat="46.60426" lon="-1.85091">
        <ele>8.2</ele>
        <time>2020-06-03T15:22:26Z</time>
      </trkpt>
      <trkpt lat="46.6043" lon="-1.85093">
        <ele>8.2</ele>
        <time>2020-06-03T15:22:27Z</time>
      </trkpt>
      <trkpt lat="46.60434" lon="-1.85095">
        <ele>8.2</ele>
        <time>2020-06-03T15:22:28Z</time>
      </trkpt>
      <trkpt lat="46.60437" lon="-1.85098">
        <ele>8.2</ele>
        <time>2020-06-03T15:22:29Z</time>
      </trkpt>
      <trkpt lat="46.60442" lon="-1.851">
        <ele>8.2</ele>
        <time>2020-06-03T15:22:30Z</time>
      </trkpt>
      <trkpt lat="46.60447" lon="-1.85103">
        <ele>8.2</ele>
        <time>2020-06-03T15:22:31Z</time>
      </trkpt>
      <trkpt lat="46.6045" lon="-1.85105">
        <ele>8.2</ele>
        <time>2020-06-03T15:22:32Z</time>
      </trkpt>
      <trkpt lat="46.60455" lon="-1.85107">
        <ele>8.2</ele>
        <time>2020-06-03T15:22:33Z</time>
      </trkpt>
      <trkpt lat="46.60459" lon="-1.85108">
        <ele>8.2</ele>
        <time>2020-06-03T15:22:34Z</time>
      </trkpt>
      <trkpt lat="46.60463" lon="-1.85109">
        <ele>8.2</ele>
        <time>2020-06-03T15:22:35Z</time>
      </trkpt>
      <trkpt lat="46.60468" lon="-1.85111">
        <ele>8.1</ele>
        <time>2020-06-03T15:22:36Z</time>
      </trkpt>
      <trkpt lat="46.60472" lon="-1.85112">
        <ele>8.1</ele>
        <time>2020-06-03T15:22:37Z</time>
      </trkpt>
      <trkpt lat="46.60476" lon="-1.85114">
        <ele>8.1</ele>
        <time>2020-06-03T15:22:38Z</time>
      </trkpt>
      <trkpt lat="46.6048" lon="-1.85117">
        <ele>8.1</ele>
        <time>2020-06-03T15:22:39Z</time>
      </trkpt>
      <trkpt lat="46.60485" lon="-1.85119">
        <ele>8.1</ele>
        <time>2020-06-03T15:22:40Z</time>
      </trkpt>
      <trkpt lat="46.60489" lon="-1.85121">
        <ele>8</ele>
        <time>2020-06-03T15:22:41Z</time>
      </trkpt>
      <trkpt lat="46.60493" lon="-1.85124">
        <ele>8</ele>
        <time>2020-06-03T15:22:42Z</time>
      </trkpt>
      <trkpt lat="46.60497" lon="-1.85125">
        <ele>8</ele>
        <time>2020-06-03T15:22:43Z</time>
      </trkpt>
      <trkpt lat="46.60501" lon="-1.85127">
        <ele>8</ele>
        <time>2020-06-03T15:22:44Z</time>
      </trkpt>
      <trkpt lat="46.60505" lon="-1.85128">
        <ele>8</ele>
        <time>2020-06-03T15:22:45Z</time>
      </trkpt>
      <trkpt lat="46.6051" lon="-1.85131">
        <ele>8</ele>
        <time>2020-06-03T15:22:46Z</time>
      </trkpt>
      <trkpt lat="46.60514" lon="-1.85133">
        <ele>8</ele>
        <time>2020-06-03T15:22:47Z</time>
      </trkpt>
      <trkpt lat="46.60518" lon="-1.85134">
        <ele>8</ele>
        <time>2020-06-03T15:22:48Z</time>
      </trkpt>
      <trkpt lat="46.60522" lon="-1.85136">
        <ele>8</ele>
        <time>2020-06-03T15:22:49Z</time>
      </trkpt>
      <trkpt lat="46.60526" lon="-1.85138">
        <ele>8</ele>
        <time>2020-06-03T15:22:50Z</time>
      </trkpt>
      <trkpt lat="46.60531" lon="-1.8514">
        <ele>8</ele>
        <time>2020-06-03T15:22:51Z</time>
      </trkpt>
      <trkpt lat="46.60535" lon="-1.85142">
        <ele>8</ele>
        <time>2020-06-03T15:22:52Z</time>
      </trkpt>
      <trkpt lat="46.60541" lon="-1.85145">
        <ele>8.1</ele>
        <time>2020-06-03T15:22:53Z</time>
      </trkpt>
      <trkpt lat="46.60546" lon="-1.85148">
        <ele>8.1</ele>
        <time>2020-06-03T15:22:54Z</time>
      </trkpt>
      <trkpt lat="46.60551" lon="-1.85149">
        <ele>8.1</ele>
        <time>2020-06-03T15:22:55Z</time>
      </trkpt>
      <trkpt lat="46.60555" lon="-1.85151">
        <ele>8.1</ele>
        <time>2020-06-03T15:22:56Z</time>
      </trkpt>
      <trkpt lat="46.6056" lon="-1.85154">
        <ele>8.2</ele>
        <time>2020-06-03T15:22:57Z</time>
      </trkpt>
      <trkpt lat="46.60564" lon="-1.85156">
        <ele>8.2</ele>
        <time>2020-06-03T15:22:58Z</time>
      </trkpt>
      <trkpt lat="46.60569" lon="-1.85159">
        <ele>8.3</ele>
        <time>2020-06-03T15:22:59Z</time>
      </trkpt>
      <trkpt lat="46.60574" lon="-1.85161">
        <ele>8.3</ele>
        <time>2020-06-03T15:23:00Z</time>
      </trkpt>
      <trkpt lat="46.60578" lon="-1.85163">
        <ele>8.4</ele>
        <time>2020-06-03T15:23:01Z</time>
      </trkpt>
      <trkpt lat="46.60582" lon="-1.85165">
        <ele>8.4</ele>
        <time>2020-06-03T15:23:02Z</time>
      </trkpt>
      <trkpt lat="46.60586" lon="-1.85167">
        <ele>8.5</ele>
        <time>2020-06-03T15:23:03Z</time>
      </trkpt>
      <trkpt lat="46.6059" lon="-1.85169">
        <ele>8.5</ele>
        <time>2020-06-03T15:23:04Z</time>
      </trkpt>
      <trkpt lat="46.60595" lon="-1.85171">
        <ele>8.6</ele>
        <time>2020-06-03T15:23:05Z</time>
      </trkpt>
      <trkpt lat="46.606" lon="-1.85173">
        <ele>8.7</ele>
        <time>2020-06-03T15:23:06Z</time>
      </trkpt>
      <trkpt lat="46.60605" lon="-1.85176">
        <ele>8.8</ele>
        <time>2020-06-03T15:23:07Z</time>
      </trkpt>
      <trkpt lat="46.6061" lon="-1.85178">
        <ele>8.8</ele>
        <time>2020-06-03T15:23:08Z</time>
      </trkpt>
      <trkpt lat="46.60615" lon="-1.8518">
        <ele>8.9</ele>
        <time>2020-06-03T15:23:09Z</time>
      </trkpt>
      <trkpt lat="46.6062" lon="-1.85182">
        <ele>9</ele>
        <time>2020-06-03T15:23:10Z</time>
      </trkpt>
      <trkpt lat="46.60626" lon="-1.85185">
        <ele>9</ele>
        <time>2020-06-03T15:23:11Z</time>
      </trkpt>
      <trkpt lat="46.60631" lon="-1.85187">
        <ele>9.1</ele>
        <time>2020-06-03T15:23:12Z</time>
      </trkpt>
      <trkpt lat="46.60636" lon="-1.85189">
        <ele>9.1</ele>
        <time>2020-06-03T15:23:13Z</time>
      </trkpt>
      <trkpt lat="46.6064" lon="-1.85191">
        <ele>9.1</ele>
        <time>2020-06-03T15:23:14Z</time>
      </trkpt>
      <trkpt lat="46.60645" lon="-1.85193">
        <ele>9.2</ele>
        <time>2020-06-03T15:23:15Z</time>
      </trkpt>
      <trkpt lat="46.6065" lon="-1.85195">
        <ele>9.2</ele>
        <time>2020-06-03T15:23:16Z</time>
      </trkpt>
      <trkpt lat="46.60655" lon="-1.85198">
        <ele>9.2</ele>
        <time>2020-06-03T15:23:17Z</time>
      </trkpt>
      <trkpt lat="46.6066" lon="-1.852">
        <ele>9.2</ele>
        <time>2020-06-03T15:23:18Z</time>
      </trkpt>
      <trkpt lat="46.60664" lon="-1.85203">
        <ele>9.3</ele>
        <time>2020-06-03T15:23:19Z</time>
      </trkpt>
      <trkpt lat="46.60669" lon="-1.85206">
        <ele>9.4</ele>
        <time>2020-06-03T15:23:20Z</time>
      </trkpt>
      <trkpt lat="46.60673" lon="-1.85208">
        <ele>9.5</ele>
        <time>2020-06-03T15:23:21Z</time>
      </trkpt>
      <trkpt lat="46.60678" lon="-1.8521">
        <ele>9.6</ele>
        <time>2020-06-03T15:23:22Z</time>
      </trkpt>
      <trkpt lat="46.60682" lon="-1.85212">
        <ele>9.7</ele>
        <time>2020-06-03T15:23:23Z</time>
      </trkpt>
      <trkpt lat="46.60686" lon="-1.85213">
        <ele>9.8</ele>
        <time>2020-06-03T15:23:24Z</time>
      </trkpt>
      <trkpt lat="46.60689" lon="-1.85215">
        <ele>9.9</ele>
        <time>2020-06-03T15:23:25Z</time>
      </trkpt>
      <trkpt lat="46.60693" lon="-1.85216">
        <ele>10</ele>
        <time>2020-06-03T15:23:26Z</time>
      </trkpt>
      <trkpt lat="46.60697" lon="-1.85218">
        <ele>10</ele>
        <time>2020-06-03T15:23:27Z</time>
      </trkpt>
      <trkpt lat="46.60701" lon="-1.8522">
        <ele>10.1</ele>
        <time>2020-06-03T15:23:28Z</time>
      </trkpt>
      <trkpt lat="46.60705" lon="-1.85222">
        <ele>10.2</ele>
        <time>2020-06-03T15:23:29Z</time>
      </trkpt>
      <trkpt lat="46.60709" lon="-1.85224">
        <ele>10.2</ele>
        <time>2020-06-03T15:23:30Z</time>
      </trkpt>
      <trkpt lat="46.60714" lon="-1.85226">
        <ele>10.3</ele>
        <time>2020-06-03T15:23:31Z</time>
      </trkpt>
      <trkpt lat="46.60719" lon="-1.85229">
        <ele>10.3</ele>
        <time>2020-06-03T15:23:32Z</time>
      </trkpt>
      <trkpt lat="46.60724" lon="-1.85231">
        <ele>10.4</ele>
        <time>2020-06-03T15:23:33Z</time>
      </trkpt>
      <trkpt lat="46.60729" lon="-1.85233">
        <ele>10.4</ele>
        <time>2020-06-03T15:23:34Z</time>
      </trkpt>
      <trkpt lat="46.60734" lon="-1.85235">
        <ele>10.4</ele>
        <time>2020-06-03T15:23:35Z</time>
      </trkpt>
      <trkpt lat="46.60739" lon="-1.85236">
        <ele>10.4</ele>
        <time>2020-06-03T15:23:36Z</time>
      </trkpt>
      <trkpt lat="46.60743" lon="-1.85238">
        <ele>10.5</ele>
        <time>2020-06-03T15:23:37Z</time>
      </trkpt>
      <trkpt lat="46.60746" lon="-1.8524">
        <ele>10.5</ele>
        <time>2020-06-03T15:23:38Z</time>
      </trkpt>
      <trkpt lat="46.6075" lon="-1.85241">
        <ele>10.5</ele>
        <time>2020-06-03T15:23:39Z</time>
      </trkpt>
      <trkpt lat="46.60754" lon="-1.85242">
        <ele>10.5</ele>
        <time>2020-06-03T15:23:40Z</time>
      </trkpt>
      <trkpt lat="46.60757" lon="-1.85243">
        <ele>10.5</ele>
        <time>2020-06-03T15:23:41Z</time>
      </trkpt>
      <trkpt lat="46.6076" lon="-1.85245">
        <ele>10.5</ele>
        <time>2020-06-03T15:23:42Z</time>
      </trkpt>
      <trkpt lat="46.60761" lon="-1.85245">
        <ele>10.5</ele>
        <time>2020-06-03T15:23:43Z</time>
      </trkpt>
      <trkpt lat="46.60763" lon="-1.85245">
        <ele>10.5</ele>
        <time>2020-06-03T15:23:44Z</time>
      </trkpt>
      <trkpt lat="46.60764" lon="-1.85245">
        <ele>10.5</ele>
        <time>2020-06-03T15:23:45Z</time>
      </trkpt>
      <trkpt lat="46.60765" lon="-1.85246">
        <ele>10.5</ele>
        <time>2020-06-03T15:23:46Z</time>
      </trkpt>
      <trkpt lat="46.60767" lon="-1.85248">
        <ele>10.6</ele>
        <time>2020-06-03T15:23:47Z</time>
      </trkpt>
      <trkpt lat="46.60769" lon="-1.85251">
        <ele>10.6</ele>
        <time>2020-06-03T15:23:48Z</time>
      </trkpt>
      <trkpt lat="46.6077" lon="-1.85253">
        <ele>10.6</ele>
        <time>2020-06-03T15:23:49Z</time>
      </trkpt>
      <trkpt lat="46.6077" lon="-1.85257">
        <ele>10.6</ele>
        <time>2020-06-03T15:23:50Z</time>
      </trkpt>
      <trkpt lat="46.60771" lon="-1.85263">
        <ele>10.5</ele>
        <time>2020-06-03T15:23:51Z</time>
      </trkpt>
      <trkpt lat="46.60771" lon="-1.85265">
        <ele>10.5</ele>
        <time>2020-06-03T15:23:52Z</time>
      </trkpt>
      <trkpt lat="46.60769" lon="-1.8527">
        <ele>10.5</ele>
        <time>2020-06-03T15:23:53Z</time>
      </trkpt>
      <trkpt lat="46.60769" lon="-1.85271">
        <ele>10.5</ele>
        <time>2020-06-03T15:23:54Z</time>
      </trkpt>
      <trkpt lat="46.60767" lon="-1.85276">
        <ele>10.4</ele>
        <time>2020-06-03T15:23:55Z</time>
      </trkpt>
      <trkpt lat="46.60766" lon="-1.85281">
        <ele>10.4</ele>
        <time>2020-06-03T15:23:56Z</time>
      </trkpt>
      <trkpt lat="46.60764" lon="-1.85286">
        <ele>10.3</ele>
        <time>2020-06-03T15:23:57Z</time>
      </trkpt>
      <trkpt lat="46.60763" lon="-1.85292">
        <ele>10.2</ele>
        <time>2020-06-03T15:23:58Z</time>
      </trkpt>
      <trkpt lat="46.60762" lon="-1.85297">
        <ele>10.2</ele>
        <time>2020-06-03T15:23:59Z</time>
      </trkpt>
      <trkpt lat="46.60761" lon="-1.85303">
        <ele>10.1</ele>
        <time>2020-06-03T15:24:00Z</time>
      </trkpt>
      <trkpt lat="46.6076" lon="-1.85309">
        <ele>10.1</ele>
        <time>2020-06-03T15:24:01Z</time>
      </trkpt>
      <trkpt lat="46.60759" lon="-1.85313">
        <ele>10.1</ele>
        <time>2020-06-03T15:24:02Z</time>
      </trkpt>
      <trkpt lat="46.60758" lon="-1.85318">
        <ele>10</ele>
        <time>2020-06-03T15:24:03Z</time>
      </trkpt>
      <trkpt lat="46.60758" lon="-1.85325">
        <ele>10</ele>
        <time>2020-06-03T15:24:04Z</time>
      </trkpt>
      <trkpt lat="46.60758" lon="-1.8533">
        <ele>9.9</ele>
        <time>2020-06-03T15:24:05Z</time>
      </trkpt>
      <trkpt lat="46.60757" lon="-1.85336">
        <ele>9.9</ele>
        <time>2020-06-03T15:24:06Z</time>
      </trkpt>
      <trkpt lat="46.60756" lon="-1.85342">
        <ele>9.8</ele>
        <time>2020-06-03T15:24:07Z</time>
      </trkpt>
      <trkpt lat="46.60755" lon="-1.85347">
        <ele>9.8</ele>
        <time>2020-06-03T15:24:08Z</time>
      </trkpt>
      <trkpt lat="46.60754" lon="-1.85352">
        <ele>9.7</ele>
        <time>2020-06-03T15:24:09Z</time>
      </trkpt>
      <trkpt lat="46.60753" lon="-1.85358">
        <ele>9.6</ele>
        <time>2020-06-03T15:24:10Z</time>
      </trkpt>
      <trkpt lat="46.60752" lon="-1.85363">
        <ele>9.6</ele>
        <time>2020-06-03T15:24:11Z</time>
      </trkpt>
      <trkpt lat="46.6075" lon="-1.85369">
        <ele>9.5</ele>
        <time>2020-06-03T15:24:12Z</time>
      </trkpt>
      <trkpt lat="46.60749" lon="-1.85375">
        <ele>9.4</ele>
        <time>2020-06-03T15:24:13Z</time>
      </trkpt>
      <trkpt lat="46.60748" lon="-1.85381">
        <ele>9.3</ele>
        <time>2020-06-03T15:24:14Z</time>
      </trkpt>
      <trkpt lat="46.60747" lon="-1.85386">
        <ele>9.2</ele>
        <time>2020-06-03T15:24:15Z</time>
      </trkpt>
      <trkpt lat="46.60746" lon="-1.85391">
        <ele>9.1</ele>
        <time>2020-06-03T15:24:16Z</time>
      </trkpt>
      <trkpt lat="46.60745" lon="-1.85395">
        <ele>9</ele>
        <time>2020-06-03T15:24:17Z</time>
      </trkpt>
      <trkpt lat="46.60744" lon="-1.854">
        <ele>8.9</ele>
        <time>2020-06-03T15:24:18Z</time>
      </trkpt>
      <trkpt lat="46.60743" lon="-1.85406">
        <ele>8.8</ele>
        <time>2020-06-03T15:24:19Z</time>
      </trkpt>
      <trkpt lat="46.60741" lon="-1.85411">
        <ele>8.7</ele>
        <time>2020-06-03T15:24:20Z</time>
      </trkpt>
      <trkpt lat="46.6074" lon="-1.85417">
        <ele>8.5</ele>
        <time>2020-06-03T15:24:21Z</time>
      </trkpt>
      <trkpt lat="46.60738" lon="-1.85421">
        <ele>8.4</ele>
        <time>2020-06-03T15:24:22Z</time>
      </trkpt>
      <trkpt lat="46.60736" lon="-1.85427">
        <ele>8.3</ele>
        <time>2020-06-03T15:24:23Z</time>
      </trkpt>
      <trkpt lat="46.60735" lon="-1.8543">
        <ele>8.2</ele>
        <time>2020-06-03T15:24:24Z</time>
      </trkpt>
      <trkpt lat="46.60734" lon="-1.85435">
        <ele>8.1</ele>
        <time>2020-06-03T15:24:25Z</time>
      </trkpt>
      <trkpt lat="46.60733" lon="-1.85436">
        <ele>8.1</ele>
        <time>2020-06-03T15:24:26Z</time>
      </trkpt>
      <trkpt lat="46.60733" lon="-1.85441">
        <ele>8</ele>
        <time>2020-06-03T15:24:27Z</time>
      </trkpt>
      <trkpt lat="46.60732" lon="-1.85443">
        <ele>8</ele>
        <time>2020-06-03T15:24:28Z</time>
      </trkpt>
      <trkpt lat="46.60731" lon="-1.85449">
        <ele>7.9</ele>
        <time>2020-06-03T15:24:29Z</time>
      </trkpt>
      <trkpt lat="46.60731" lon="-1.85451">
        <ele>7.8</ele>
        <time>2020-06-03T15:24:30Z</time>
      </trkpt>
      <trkpt lat="46.6073" lon="-1.85455">
        <ele>7.7</ele>
        <time>2020-06-03T15:24:31Z</time>
      </trkpt>
      <trkpt lat="46.6073" lon="-1.85459">
        <ele>7.7</ele>
        <time>2020-06-03T15:24:32Z</time>
      </trkpt>
      <trkpt lat="46.60729" lon="-1.85463">
        <ele>7.6</ele>
        <time>2020-06-03T15:24:33Z</time>
      </trkpt>
      <trkpt lat="46.60729" lon="-1.85465">
        <ele>7.6</ele>
        <time>2020-06-03T15:24:34Z</time>
      </trkpt>
      <trkpt lat="46.60728" lon="-1.85469">
        <ele>7.5</ele>
        <time>2020-06-03T15:24:35Z</time>
      </trkpt>
      <trkpt lat="46.60726" lon="-1.85473">
        <ele>7.4</ele>
        <time>2020-06-03T15:24:36Z</time>
      </trkpt>
      <trkpt lat="46.60725" lon="-1.85474">
        <ele>7.4</ele>
        <time>2020-06-03T15:24:37Z</time>
      </trkpt>
      <trkpt lat="46.60724" lon="-1.85477">
        <ele>7.3</ele>
        <time>2020-06-03T15:24:38Z</time>
      </trkpt>
      <trkpt lat="46.60723" lon="-1.85479">
        <ele>7.3</ele>
        <time>2020-06-03T15:24:39Z</time>
      </trkpt>
      <trkpt lat="46.60722" lon="-1.85484">
        <ele>7.2</ele>
        <time>2020-06-03T15:24:40Z</time>
      </trkpt>
      <trkpt lat="46.60721" lon="-1.85485">
        <ele>7.1</ele>
        <time>2020-06-03T15:24:41Z</time>
      </trkpt>
      <trkpt lat="46.6072" lon="-1.85489">
        <ele>7.1</ele>
        <time>2020-06-03T15:24:42Z</time>
      </trkpt>
      <trkpt lat="46.60718" lon="-1.85493">
        <ele>7</ele>
        <time>2020-06-03T15:24:43Z</time>
      </trkpt>
      <trkpt lat="46.60718" lon="-1.85494">
        <ele>7</ele>
        <time>2020-06-03T15:24:44Z</time>
      </trkpt>
      <trkpt lat="46.60716" lon="-1.85498">
        <ele>6.9</ele>
        <time>2020-06-03T15:24:45Z</time>
      </trkpt>
      <trkpt lat="46.60715" lon="-1.85498">
        <ele>6.9</ele>
        <time>2020-06-03T15:24:46Z</time>
      </trkpt>
      <trkpt lat="46.60714" lon="-1.85499">
        <ele>6.8</ele>
        <time>2020-06-03T15:24:47Z</time>
      </trkpt>
      <trkpt lat="46.60714" lon="-1.85501">
        <ele>6.8</ele>
        <time>2020-06-03T15:24:48Z</time>
      </trkpt>
      <trkpt lat="46.60713" lon="-1.85502">
        <ele>6.8</ele>
        <time>2020-06-03T15:24:49Z</time>
      </trkpt>
      <trkpt lat="46.60713" lon="-1.85501">
        <ele>6.8</ele>
        <time>2020-06-03T15:24:50Z</time>
      </trkpt>
      <trkpt lat="46.60713" lon="-1.85501">
        <ele>6.8</ele>
        <time>2020-06-03T15:24:51Z</time>
      </trkpt>
      <trkpt lat="46.60713" lon="-1.85501">
        <ele>6.8</ele>
        <time>2020-06-03T15:24:52Z</time>
      </trkpt>
      <trkpt lat="46.60713" lon="-1.85501">
        <ele>6.7</ele>
        <time>2020-06-03T15:24:53Z</time>
      </trkpt>
      <trkpt lat="46.60713" lon="-1.855">
        <ele>6.7</ele>
        <time>2020-06-03T15:24:54Z</time>
      </trkpt>
      <trkpt lat="46.60714" lon="-1.855">
        <ele>6.7</ele>
        <time>2020-06-03T15:24:55Z</time>
      </trkpt>
      <trkpt lat="46.60713" lon="-1.855">
        <ele>6.7</ele>
        <time>2020-06-03T15:24:56Z</time>
      </trkpt>
      <trkpt lat="46.60713" lon="-1.855">
        <ele>6.7</ele>
        <time>2020-06-03T15:24:57Z</time>
      </trkpt>
      <trkpt lat="46.60712" lon="-1.85501">
        <ele>6.7</ele>
        <time>2020-06-03T15:24:58Z</time>
      </trkpt>
      <trkpt lat="46.60712" lon="-1.85501">
        <ele>6.7</ele>
        <time>2020-06-03T15:24:59Z</time>
      </trkpt>
      <trkpt lat="46.60711" lon="-1.855">
        <ele>6.6</ele>
        <time>2020-06-03T15:25:00Z</time>
      </trkpt>
      <trkpt lat="46.60707" lon="-1.85494">
        <ele>6.5</ele>
        <time>2020-06-03T15:30:44Z</time>
      </trkpt>
      <trkpt lat="46.60707" lon="-1.85492">
        <ele>6.4</ele>
        <time>2020-06-03T15:30:45Z</time>
      </trkpt>
      <trkpt lat="46.60707" lon="-1.8549">
        <ele>6.4</ele>
        <time>2020-06-03T15:30:46Z</time>
      </trkpt>
      <trkpt lat="46.60707" lon="-1.85488">
        <ele>6.3</ele>
        <time>2020-06-03T15:30:47Z</time>
      </trkpt>
      <trkpt lat="46.60707" lon="-1.85486">
        <ele>6.4</ele>
        <time>2020-06-03T15:30:48Z</time>
      </trkpt>
      <trkpt lat="46.60708" lon="-1.85484">
        <ele>6.4</ele>
        <time>2020-06-03T15:30:49Z</time>
      </trkpt>
      <trkpt lat="46.60709" lon="-1.85482">
        <ele>6.5</ele>
        <time>2020-06-03T15:30:50Z</time>
      </trkpt>
      <trkpt lat="46.6071" lon="-1.85481">
        <ele>6.5</ele>
        <time>2020-06-03T15:30:51Z</time>
      </trkpt>
      <trkpt lat="46.6071" lon="-1.8548">
        <ele>6.6</ele>
        <time>2020-06-03T15:30:52Z</time>
      </trkpt>
      <trkpt lat="46.60711" lon="-1.85478">
        <ele>6.6</ele>
        <time>2020-06-03T15:30:53Z</time>
      </trkpt>
      <trkpt lat="46.60712" lon="-1.85476">
        <ele>6.7</ele>
        <time>2020-06-03T15:30:54Z</time>
      </trkpt>
      <trkpt lat="46.60713" lon="-1.85475">
        <ele>6.7</ele>
        <time>2020-06-03T15:30:55Z</time>
      </trkpt>
      <trkpt lat="46.60713" lon="-1.85474">
        <ele>6.7</ele>
        <time>2020-06-03T15:30:56Z</time>
      </trkpt>
      <trkpt lat="46.60714" lon="-1.85473">
        <ele>6.8</ele>
        <time>2020-06-03T15:30:57Z</time>
      </trkpt>
      <trkpt lat="46.60715" lon="-1.85472">
        <ele>6.8</ele>
        <time>2020-06-03T15:30:58Z</time>
      </trkpt>
      <trkpt lat="46.60716" lon="-1.85471">
        <ele>6.8</ele>
        <time>2020-06-03T15:30:59Z</time>
      </trkpt>
      <trkpt lat="46.60716" lon="-1.85469">
        <ele>6.9</ele>
        <time>2020-06-03T15:31:00Z</time>
      </trkpt>
      <trkpt lat="46.60718" lon="-1.85468">
        <ele>6.9</ele>
        <time>2020-06-03T15:31:01Z</time>
      </trkpt>
      <trkpt lat="46.6072" lon="-1.85464">
        <ele>7</ele>
        <time>2020-06-03T15:31:02Z</time>
      </trkpt>
      <trkpt lat="46.60721" lon="-1.85463">
        <ele>7</ele>
        <time>2020-06-03T15:31:03Z</time>
      </trkpt>
      <trkpt lat="46.60723" lon="-1.8546">
        <ele>7.1</ele>
        <time>2020-06-03T15:31:04Z</time>
      </trkpt>
      <trkpt lat="46.60723" lon="-1.85459">
        <ele>7.1</ele>
        <time>2020-06-03T15:31:05Z</time>
      </trkpt>
      <trkpt lat="46.60725" lon="-1.85455">
        <ele>7.2</ele>
        <time>2020-06-03T15:31:06Z</time>
      </trkpt>
      <trkpt lat="46.60726" lon="-1.85454">
        <ele>7.3</ele>
        <time>2020-06-03T15:31:07Z</time>
      </trkpt>
      <trkpt lat="46.60727" lon="-1.8545">
        <ele>7.4</ele>
        <time>2020-06-03T15:31:08Z</time>
      </trkpt>
      <trkpt lat="46.60728" lon="-1.85448">
        <ele>7.4</ele>
        <time>2020-06-03T15:31:09Z</time>
      </trkpt>
      <trkpt lat="46.60729" lon="-1.85446">
        <ele>7.5</ele>
        <time>2020-06-03T15:31:10Z</time>
      </trkpt>
      <trkpt lat="46.60729" lon="-1.85444">
        <ele>7.5</ele>
        <time>2020-06-03T15:31:11Z</time>
      </trkpt>
      <trkpt lat="46.6073" lon="-1.8544">
        <ele>7.6</ele>
        <time>2020-06-03T15:31:12Z</time>
      </trkpt>
      <trkpt lat="46.6073" lon="-1.85439">
        <ele>7.6</ele>
        <time>2020-06-03T15:31:13Z</time>
      </trkpt>
      <trkpt lat="46.60731" lon="-1.85435">
        <ele>7.7</ele>
        <time>2020-06-03T15:31:14Z</time>
      </trkpt>
      <trkpt lat="46.60731" lon="-1.85433">
        <ele>7.7</ele>
        <time>2020-06-03T15:31:15Z</time>
      </trkpt>
      <trkpt lat="46.60732" lon="-1.8543">
        <ele>7.8</ele>
        <time>2020-06-03T15:31:16Z</time>
      </trkpt>
      <trkpt lat="46.60733" lon="-1.85429">
        <ele>7.8</ele>
        <time>2020-06-03T15:31:17Z</time>
      </trkpt>
      <trkpt lat="46.60733" lon="-1.85428">
        <ele>7.8</ele>
        <time>2020-06-03T15:31:18Z</time>
      </trkpt>
      <trkpt lat="46.60734" lon="-1.85426">
        <ele>7.9</ele>
        <time>2020-06-03T15:31:19Z</time>
      </trkpt>
      <trkpt lat="46.60735" lon="-1.85424">
        <ele>8</ele>
        <time>2020-06-03T15:31:20Z</time>
      </trkpt>
      <trkpt lat="46.60736" lon="-1.85421">
        <ele>8</ele>
        <time>2020-06-03T15:31:21Z</time>
      </trkpt>
      <trkpt lat="46.60737" lon="-1.8542">
        <ele>8.1</ele>
        <time>2020-06-03T15:31:22Z</time>
      </trkpt>
      <trkpt lat="46.60738" lon="-1.85416">
        <ele>8.2</ele>
        <time>2020-06-03T15:31:23Z</time>
      </trkpt>
      <trkpt lat="46.60738" lon="-1.85414">
        <ele>8.2</ele>
        <time>2020-06-03T15:31:24Z</time>
      </trkpt>
      <trkpt lat="46.6074" lon="-1.8541">
        <ele>8.3</ele>
        <time>2020-06-03T15:31:25Z</time>
      </trkpt>
      <trkpt lat="46.6074" lon="-1.85408">
        <ele>8.3</ele>
        <time>2020-06-03T15:31:26Z</time>
      </trkpt>
      <trkpt lat="46.60741" lon="-1.85404">
        <ele>8.4</ele>
        <time>2020-06-03T15:31:27Z</time>
      </trkpt>
      <trkpt lat="46.60742" lon="-1.85403">
        <ele>8.5</ele>
        <time>2020-06-03T15:31:28Z</time>
      </trkpt>
      <trkpt lat="46.60744" lon="-1.85399">
        <ele>8.6</ele>
        <time>2020-06-03T15:31:29Z</time>
      </trkpt>
      <trkpt lat="46.60745" lon="-1.85398">
        <ele>8.6</ele>
        <time>2020-06-03T15:31:30Z</time>
      </trkpt>
      <trkpt lat="46.60746" lon="-1.85393">
        <ele>8.8</ele>
        <time>2020-06-03T15:31:31Z</time>
      </trkpt>
      <trkpt lat="46.60746" lon="-1.85392">
        <ele>8.8</ele>
        <time>2020-06-03T15:31:32Z</time>
      </trkpt>
      <trkpt lat="46.60746" lon="-1.8539">
        <ele>8.8</ele>
        <time>2020-06-03T15:31:33Z</time>
      </trkpt>
      <trkpt lat="46.60746" lon="-1.85388">
        <ele>8.9</ele>
        <time>2020-06-03T15:31:34Z</time>
      </trkpt>
      <trkpt lat="46.60747" lon="-1.85383">
        <ele>9</ele>
        <time>2020-06-03T15:31:35Z</time>
      </trkpt>
      <trkpt lat="46.60747" lon="-1.85382">
        <ele>9</ele>
        <time>2020-06-03T15:31:36Z</time>
      </trkpt>
      <trkpt lat="46.60747" lon="-1.8538">
        <ele>9.1</ele>
        <time>2020-06-03T15:31:37Z</time>
      </trkpt>
      <trkpt lat="46.60747" lon="-1.85378">
        <ele>9.1</ele>
        <time>2020-06-03T15:31:38Z</time>
      </trkpt>
      <trkpt lat="46.60747" lon="-1.85376">
        <ele>9.1</ele>
        <time>2020-06-03T15:31:39Z</time>
      </trkpt>
      <trkpt lat="46.60748" lon="-1.85375">
        <ele>9.2</ele>
        <time>2020-06-03T15:31:40Z</time>
      </trkpt>
      <trkpt lat="46.60749" lon="-1.85374">
        <ele>9.2</ele>
        <time>2020-06-03T15:31:41Z</time>
      </trkpt>
      <trkpt lat="46.60749" lon="-1.85372">
        <ele>9.2</ele>
        <time>2020-06-03T15:31:42Z</time>
      </trkpt>
      <trkpt lat="46.6075" lon="-1.8537">
        <ele>9.3</ele>
        <time>2020-06-03T15:31:43Z</time>
      </trkpt>
      <trkpt lat="46.6075" lon="-1.85369">
        <ele>9.3</ele>
        <time>2020-06-03T15:31:44Z</time>
      </trkpt>
      <trkpt lat="46.60751" lon="-1.85368">
        <ele>9.4</ele>
        <time>2020-06-03T15:31:45Z</time>
      </trkpt>
      <trkpt lat="46.60751" lon="-1.85367">
        <ele>9.4</ele>
        <time>2020-06-03T15:31:46Z</time>
      </trkpt>
      <trkpt lat="46.60752" lon="-1.85365">
        <ele>9.4</ele>
        <time>2020-06-03T15:31:47Z</time>
      </trkpt>
      <trkpt lat="46.60753" lon="-1.85363">
        <ele>9.5</ele>
        <time>2020-06-03T15:31:48Z</time>
      </trkpt>
      <trkpt lat="46.60753" lon="-1.85361">
        <ele>9.5</ele>
        <time>2020-06-03T15:31:49Z</time>
      </trkpt>
      <trkpt lat="46.60754" lon="-1.8536">
        <ele>9.5</ele>
        <time>2020-06-03T15:31:50Z</time>
      </trkpt>
      <trkpt lat="46.60755" lon="-1.85358">
        <ele>9.5</ele>
        <time>2020-06-03T15:31:51Z</time>
      </trkpt>
      <trkpt lat="46.60756" lon="-1.85356">
        <ele>9.6</ele>
        <time>2020-06-03T15:31:52Z</time>
      </trkpt>
      <trkpt lat="46.60757" lon="-1.85353">
        <ele>9.6</ele>
        <time>2020-06-03T15:31:53Z</time>
      </trkpt>
      <trkpt lat="46.60757" lon="-1.85352">
        <ele>9.6</ele>
        <time>2020-06-03T15:31:54Z</time>
      </trkpt>
      <trkpt lat="46.60757" lon="-1.85351">
        <ele>9.7</ele>
        <time>2020-06-03T15:31:55Z</time>
      </trkpt>
      <trkpt lat="46.60757" lon="-1.85348">
        <ele>9.7</ele>
        <time>2020-06-03T15:31:56Z</time>
      </trkpt>
      <trkpt lat="46.60757" lon="-1.85346">
        <ele>9.7</ele>
        <time>2020-06-03T15:31:57Z</time>
      </trkpt>
      <trkpt lat="46.60758" lon="-1.85344">
        <ele>9.7</ele>
        <time>2020-06-03T15:31:58Z</time>
      </trkpt>
      <trkpt lat="46.60759" lon="-1.85341">
        <ele>9.8</ele>
        <time>2020-06-03T15:31:59Z</time>
      </trkpt>
      <trkpt lat="46.60759" lon="-1.8534">
        <ele>9.8</ele>
        <time>2020-06-03T15:32:00Z</time>
      </trkpt>
      <trkpt lat="46.60759" lon="-1.85338">
        <ele>9.8</ele>
        <time>2020-06-03T15:32:01Z</time>
      </trkpt>
      <trkpt lat="46.60759" lon="-1.85337">
        <ele>9.8</ele>
        <time>2020-06-03T15:32:02Z</time>
      </trkpt>
      <trkpt lat="46.60759" lon="-1.85335">
        <ele>9.8</ele>
        <time>2020-06-03T15:32:03Z</time>
      </trkpt>
      <trkpt lat="46.60759" lon="-1.85334">
        <ele>9.8</ele>
        <time>2020-06-03T15:32:04Z</time>
      </trkpt>
      <trkpt lat="46.60759" lon="-1.85332">
        <ele>9.9</ele>
        <time>2020-06-03T15:32:05Z</time>
      </trkpt>
      <trkpt lat="46.60761" lon="-1.85329">
        <ele>9.9</ele>
        <time>2020-06-03T15:32:06Z</time>
      </trkpt>
      <trkpt lat="46.60761" lon="-1.85327">
        <ele>9.9</ele>
        <time>2020-06-03T15:32:07Z</time>
      </trkpt>
      <trkpt lat="46.60762" lon="-1.85326">
        <ele>9.9</ele>
        <time>2020-06-03T15:32:08Z</time>
      </trkpt>
      <trkpt lat="46.60763" lon="-1.85324">
        <ele>10</ele>
        <time>2020-06-03T15:32:09Z</time>
      </trkpt>
      <trkpt lat="46.60764" lon="-1.85323">
        <ele>10</ele>
        <time>2020-06-03T15:32:10Z</time>
      </trkpt>
      <trkpt lat="46.60764" lon="-1.85322">
        <ele>10</ele>
        <time>2020-06-03T15:32:11Z</time>
      </trkpt>
      <trkpt lat="46.60765" lon="-1.8532">
        <ele>10</ele>
        <time>2020-06-03T15:32:12Z</time>
      </trkpt>
      <trkpt lat="46.60767" lon="-1.85318">
        <ele>10</ele>
        <time>2020-06-03T15:32:13Z</time>
      </trkpt>
      <trkpt lat="46.60767" lon="-1.85316">
        <ele>10.1</ele>
        <time>2020-06-03T15:32:14Z</time>
      </trkpt>
      <trkpt lat="46.60768" lon="-1.85314">
        <ele>10.1</ele>
        <time>2020-06-03T15:32:15Z</time>
      </trkpt>
      <trkpt lat="46.60769" lon="-1.85312">
        <ele>10.1</ele>
        <time>2020-06-03T15:32:16Z</time>
      </trkpt>
      <trkpt lat="46.6077" lon="-1.85309">
        <ele>10.2</ele>
        <time>2020-06-03T15:32:17Z</time>
      </trkpt>
      <trkpt lat="46.60771" lon="-1.85307">
        <ele>10.2</ele>
        <time>2020-06-03T15:32:18Z</time>
      </trkpt>
      <trkpt lat="46.60771" lon="-1.85305">
        <ele>10.2</ele>
        <time>2020-06-03T15:32:19Z</time>
      </trkpt>
      <trkpt lat="46.60771" lon="-1.85302">
        <ele>10.2</ele>
        <time>2020-06-03T15:32:20Z</time>
      </trkpt>
      <trkpt lat="46.60772" lon="-1.85298">
        <ele>10.2</ele>
        <time>2020-06-03T15:32:21Z</time>
      </trkpt>
      <trkpt lat="46.60772" lon="-1.85297">
        <ele>10.3</ele>
        <time>2020-06-03T15:32:22Z</time>
      </trkpt>
      <trkpt lat="46.60772" lon="-1.85295">
        <ele>10.3</ele>
        <time>2020-06-03T15:32:23Z</time>
      </trkpt>
      <trkpt lat="46.60772" lon="-1.85292">
        <ele>10.3</ele>
        <time>2020-06-03T15:32:24Z</time>
      </trkpt>
      <trkpt lat="46.60774" lon="-1.85288">
        <ele>10.3</ele>
        <time>2020-06-03T15:32:25Z</time>
      </trkpt>
      <trkpt lat="46.60774" lon="-1.85286">
        <ele>10.3</ele>
        <time>2020-06-03T15:32:26Z</time>
      </trkpt>
      <trkpt lat="46.60775" lon="-1.85284">
        <ele>10.4</ele>
        <time>2020-06-03T15:32:27Z</time>
      </trkpt>
      <trkpt lat="46.60775" lon="-1.85282">
        <ele>10.4</ele>
        <time>2020-06-03T15:32:28Z</time>
      </trkpt>
      <trkpt lat="46.60776" lon="-1.8528">
        <ele>10.4</ele>
        <time>2020-06-03T15:32:29Z</time>
      </trkpt>
      <trkpt lat="46.60776" lon="-1.85277">
        <ele>10.4</ele>
        <time>2020-06-03T15:32:30Z</time>
      </trkpt>
      <trkpt lat="46.60776" lon="-1.85275">
        <ele>10.5</ele>
        <time>2020-06-03T15:32:31Z</time>
      </trkpt>
      <trkpt lat="46.60777" lon="-1.85273">
        <ele>10.5</ele>
        <time>2020-06-03T15:32:32Z</time>
      </trkpt>
      <trkpt lat="46.60777" lon="-1.85271">
        <ele>10.5</ele>
        <time>2020-06-03T15:32:33Z</time>
      </trkpt>
      <trkpt lat="46.60777" lon="-1.8527">
        <ele>10.5</ele>
        <time>2020-06-03T15:32:34Z</time>
      </trkpt>
      <trkpt lat="46.60777" lon="-1.85269">
        <ele>10.5</ele>
        <time>2020-06-03T15:32:35Z</time>
      </trkpt>
      <trkpt lat="46.60777" lon="-1.85269">
        <ele>10.5</ele>
        <time>2020-06-03T15:32:36Z</time>
      </trkpt>
      <trkpt lat="46.60778" lon="-1.85269">
        <ele>10.6</ele>
        <time>2020-06-03T15:32:37Z</time>
      </trkpt>
      <trkpt lat="46.60779" lon="-1.85269">
        <ele>10.6</ele>
        <time>2020-06-03T15:32:38Z</time>
      </trkpt>
      <trkpt lat="46.6078" lon="-1.85269">
        <ele>10.6</ele>
        <time>2020-06-03T15:32:39Z</time>
      </trkpt>
      <trkpt lat="46.60781" lon="-1.85268">
        <ele>10.6</ele>
        <time>2020-06-03T15:32:40Z</time>
      </trkpt>
      <trkpt lat="46.60782" lon="-1.85269">
        <ele>10.6</ele>
        <time>2020-06-03T15:32:41Z</time>
      </trkpt>
      <trkpt lat="46.60783" lon="-1.8527">
        <ele>10.6</ele>
        <time>2020-06-03T15:32:42Z</time>
      </trkpt>
      <trkpt lat="46.60785" lon="-1.85271">
        <ele>10.6</ele>
        <time>2020-06-03T15:32:43Z</time>
      </trkpt>
      <trkpt lat="46.60785" lon="-1.85271">
        <ele>10.6</ele>
        <time>2020-06-03T15:32:44Z</time>
      </trkpt>
      <trkpt lat="46.60786" lon="-1.85272">
        <ele>10.7</ele>
        <time>2020-06-03T15:32:45Z</time>
      </trkpt>
      <trkpt lat="46.60786" lon="-1.85272">
        <ele>10.7</ele>
        <time>2020-06-03T15:32:46Z</time>
      </trkpt>
      <trkpt lat="46.60787" lon="-1.85273">
        <ele>10.7</ele>
        <time>2020-06-03T15:32:47Z</time>
      </trkpt>
      <trkpt lat="46.60787" lon="-1.85273">
        <ele>10.7</ele>
        <time>2020-06-03T15:32:48Z</time>
      </trkpt>
      <trkpt lat="46.60788" lon="-1.85274">
        <ele>10.7</ele>
        <time>2020-06-03T15:32:49Z</time>
      </trkpt>
      <trkpt lat="46.60789" lon="-1.85274">
        <ele>10.7</ele>
        <time>2020-06-03T15:32:50Z</time>
      </trkpt>
      <trkpt lat="46.60789" lon="-1.85275">
        <ele>10.7</ele>
        <time>2020-06-03T15:32:51Z</time>
      </trkpt>
      <trkpt lat="46.6079" lon="-1.85275">
        <ele>10.7</ele>
        <time>2020-06-03T15:32:52Z</time>
      </trkpt>
      <trkpt lat="46.6079" lon="-1.85276">
        <ele>10.7</ele>
        <time>2020-06-03T15:32:53Z</time>
      </trkpt>
      <trkpt lat="46.60791" lon="-1.85276">
        <ele>10.7</ele>
        <time>2020-06-03T15:32:54Z</time>
      </trkpt>
      <trkpt lat="46.60791" lon="-1.85277">
        <ele>10.7</ele>
        <time>2020-06-03T15:32:55Z</time>
      </trkpt>
      <trkpt lat="46.60792" lon="-1.85277">
        <ele>10.7</ele>
        <time>2020-06-03T15:33:13Z</time>
      </trkpt>
      <trkpt lat="46.60792" lon="-1.85278">
        <ele>10.7</ele>
        <time>2020-06-03T15:33:14Z</time>
      </trkpt>
      <trkpt lat="46.60795" lon="-1.8528">
        <ele>10.7</ele>
        <time>2020-06-03T15:33:15Z</time>
      </trkpt>
      <trkpt lat="46.60796" lon="-1.85281">
        <ele>10.7</ele>
        <time>2020-06-03T15:33:16Z</time>
      </trkpt>
      <trkpt lat="46.60799" lon="-1.85284">
        <ele>10.7</ele>
        <time>2020-06-03T15:33:17Z</time>
      </trkpt>
      <trkpt lat="46.60802" lon="-1.85286">
        <ele>10.8</ele>
        <time>2020-06-03T15:33:18Z</time>
      </trkpt>
      <trkpt lat="46.60805" lon="-1.85289">
        <ele>10.8</ele>
        <time>2020-06-03T15:33:19Z</time>
      </trkpt>
      <trkpt lat="46.60809" lon="-1.85293">
        <ele>10.8</ele>
        <time>2020-06-03T15:33:20Z</time>
      </trkpt>
      <trkpt lat="46.60812" lon="-1.85296">
        <ele>10.8</ele>
        <time>2020-06-03T15:33:21Z</time>
      </trkpt>
      <trkpt lat="46.60816" lon="-1.85299">
        <ele>10.9</ele>
        <time>2020-06-03T15:33:22Z</time>
      </trkpt>
      <trkpt lat="46.60819" lon="-1.85302">
        <ele>10.9</ele>
        <time>2020-06-03T15:33:23Z</time>
      </trkpt>
      <trkpt lat="46.60823" lon="-1.85305">
        <ele>10.9</ele>
        <time>2020-06-03T15:33:24Z</time>
      </trkpt>
      <trkpt lat="46.60827" lon="-1.85307">
        <ele>10.9</ele>
        <time>2020-06-03T15:33:25Z</time>
      </trkpt>
      <trkpt lat="46.6083" lon="-1.85311">
        <ele>10.9</ele>
        <time>2020-06-03T15:33:26Z</time>
      </trkpt>
      <trkpt lat="46.60834" lon="-1.85313">
        <ele>11</ele>
        <time>2020-06-03T15:33:27Z</time>
      </trkpt>
      <trkpt lat="46.60838" lon="-1.85316">
        <ele>11</ele>
        <time>2020-06-03T15:33:28Z</time>
      </trkpt>
      <trkpt lat="46.60841" lon="-1.85319">
        <ele>11</ele>
        <time>2020-06-03T15:33:29Z</time>
      </trkpt>
      <trkpt lat="46.60845" lon="-1.85323">
        <ele>11</ele>
        <time>2020-06-03T15:33:30Z</time>
      </trkpt>
      <trkpt lat="46.60849" lon="-1.85327">
        <ele>11</ele>
        <time>2020-06-03T15:33:31Z</time>
      </trkpt>
      <trkpt lat="46.60852" lon="-1.85329">
        <ele>11.1</ele>
        <time>2020-06-03T15:33:32Z</time>
      </trkpt>
      <trkpt lat="46.60856" lon="-1.85333">
        <ele>11.1</ele>
        <time>2020-06-03T15:33:33Z</time>
      </trkpt>
      <trkpt lat="46.6086" lon="-1.85336">
        <ele>11.1</ele>
        <time>2020-06-03T15:33:34Z</time>
      </trkpt>
      <trkpt lat="46.60864" lon="-1.85341">
        <ele>11.2</ele>
        <time>2020-06-03T15:33:35Z</time>
      </trkpt>
      <trkpt lat="46.60867" lon="-1.85345">
        <ele>11.2</ele>
        <time>2020-06-03T15:33:36Z</time>
      </trkpt>
      <trkpt lat="46.60871" lon="-1.85349">
        <ele>11.2</ele>
        <time>2020-06-03T15:33:37Z</time>
      </trkpt>
      <trkpt lat="46.60876" lon="-1.85354">
        <ele>11.3</ele>
        <time>2020-06-03T15:33:38Z</time>
      </trkpt>
      <trkpt lat="46.60881" lon="-1.85359">
        <ele>11.3</ele>
        <time>2020-06-03T15:33:39Z</time>
      </trkpt>
      <trkpt lat="46.60886" lon="-1.85362">
        <ele>11.4</ele>
        <time>2020-06-03T15:33:40Z</time>
      </trkpt>
      <trkpt lat="46.6089" lon="-1.85367">
        <ele>11.4</ele>
        <time>2020-06-03T15:33:41Z</time>
      </trkpt>
      <trkpt lat="46.60895" lon="-1.8537">
        <ele>11.5</ele>
        <time>2020-06-03T15:33:42Z</time>
      </trkpt>
      <trkpt lat="46.60901" lon="-1.85372">
        <ele>11.6</ele>
        <time>2020-06-03T15:33:43Z</time>
      </trkpt>
      <trkpt lat="46.60906" lon="-1.85374">
        <ele>11.6</ele>
        <time>2020-06-03T15:33:44Z</time>
      </trkpt>
      <trkpt lat="46.60911" lon="-1.85376">
        <ele>11.6</ele>
        <time>2020-06-03T15:33:45Z</time>
      </trkpt>
      <trkpt lat="46.60916" lon="-1.85378">
        <ele>11.7</ele>
        <time>2020-06-03T15:33:46Z</time>
      </trkpt>
      <trkpt lat="46.6092" lon="-1.8538">
        <ele>11.7</ele>
        <time>2020-06-03T15:33:47Z</time>
      </trkpt>
      <trkpt lat="46.60924" lon="-1.85383">
        <ele>11.7</ele>
        <time>2020-06-03T15:33:48Z</time>
      </trkpt>
      <trkpt lat="46.60929" lon="-1.85385">
        <ele>11.7</ele>
        <time>2020-06-03T15:33:49Z</time>
      </trkpt>
      <trkpt lat="46.60933" lon="-1.85387">
        <ele>11.6</ele>
        <time>2020-06-03T15:33:50Z</time>
      </trkpt>
      <trkpt lat="46.60938" lon="-1.85389">
        <ele>11.6</ele>
        <time>2020-06-03T15:33:51Z</time>
      </trkpt>
      <trkpt lat="46.60943" lon="-1.85391">
        <ele>11.6</ele>
        <time>2020-06-03T15:33:52Z</time>
      </trkpt>
      <trkpt lat="46.60948" lon="-1.85393">
        <ele>11.6</ele>
        <time>2020-06-03T15:33:53Z</time>
      </trkpt>
      <trkpt lat="46.60952" lon="-1.85395">
        <ele>11.6</ele>
        <time>2020-06-03T15:33:54Z</time>
      </trkpt>
      <trkpt lat="46.60956" lon="-1.85396">
        <ele>11.5</ele>
        <time>2020-06-03T15:33:55Z</time>
      </trkpt>
      <trkpt lat="46.60959" lon="-1.85399">
        <ele>11.5</ele>
        <time>2020-06-03T15:33:56Z</time>
      </trkpt>
      <trkpt lat="46.60963" lon="-1.85401">
        <ele>11.5</ele>
        <time>2020-06-03T15:33:57Z</time>
      </trkpt>
      <trkpt lat="46.60967" lon="-1.85403">
        <ele>11.5</ele>
        <time>2020-06-03T15:33:58Z</time>
      </trkpt>
      <trkpt lat="46.6097" lon="-1.85405">
        <ele>11.5</ele>
        <time>2020-06-03T15:33:59Z</time>
      </trkpt>
      <trkpt lat="46.60974" lon="-1.85407">
        <ele>11.5</ele>
        <time>2020-06-03T15:34:00Z</time>
      </trkpt>
      <trkpt lat="46.60979" lon="-1.85409">
        <ele>11.5</ele>
        <time>2020-06-03T15:34:01Z</time>
      </trkpt>
      <trkpt lat="46.60984" lon="-1.85411">
        <ele>11.5</ele>
        <time>2020-06-03T15:34:02Z</time>
      </trkpt>
      <trkpt lat="46.60988" lon="-1.85413">
        <ele>11.5</ele>
        <time>2020-06-03T15:34:03Z</time>
      </trkpt>
      <trkpt lat="46.60992" lon="-1.85415">
        <ele>11.5</ele>
        <time>2020-06-03T15:34:04Z</time>
      </trkpt>
      <trkpt lat="46.60996" lon="-1.85417">
        <ele>11.5</ele>
        <time>2020-06-03T15:34:05Z</time>
      </trkpt>
      <trkpt lat="46.61" lon="-1.85419">
        <ele>11.6</ele>
        <time>2020-06-03T15:34:06Z</time>
      </trkpt>
      <trkpt lat="46.61004" lon="-1.8542">
        <ele>11.6</ele>
        <time>2020-06-03T15:34:07Z</time>
      </trkpt>
      <trkpt lat="46.61007" lon="-1.85422">
        <ele>11.6</ele>
        <time>2020-06-03T15:34:08Z</time>
      </trkpt>
      <trkpt lat="46.61011" lon="-1.85423">
        <ele>11.6</ele>
        <time>2020-06-03T15:34:09Z</time>
      </trkpt>
      <trkpt lat="46.61015" lon="-1.85425">
        <ele>11.6</ele>
        <time>2020-06-03T15:34:10Z</time>
      </trkpt>
      <trkpt lat="46.61019" lon="-1.85426">
        <ele>11.6</ele>
        <time>2020-06-03T15:34:11Z</time>
      </trkpt>
      <trkpt lat="46.61022" lon="-1.85428">
        <ele>11.6</ele>
        <time>2020-06-03T15:34:12Z</time>
      </trkpt>
      <trkpt lat="46.61026" lon="-1.85429">
        <ele>11.7</ele>
        <time>2020-06-03T15:34:13Z</time>
      </trkpt>
      <trkpt lat="46.6103" lon="-1.85431">
        <ele>11.7</ele>
        <time>2020-06-03T15:34:14Z</time>
      </trkpt>
      <trkpt lat="46.61035" lon="-1.85433">
        <ele>11.7</ele>
        <time>2020-06-03T15:34:15Z</time>
      </trkpt>
      <trkpt lat="46.6104" lon="-1.85436">
        <ele>11.7</ele>
        <time>2020-06-03T15:34:16Z</time>
      </trkpt>
      <trkpt lat="46.61046" lon="-1.85439">
        <ele>11.8</ele>
        <time>2020-06-03T15:34:17Z</time>
      </trkpt>
      <trkpt lat="46.61051" lon="-1.85442">
        <ele>11.8</ele>
        <time>2020-06-03T15:34:18Z</time>
      </trkpt>
      <trkpt lat="46.61056" lon="-1.85445">
        <ele>11.8</ele>
        <time>2020-06-03T15:34:19Z</time>
      </trkpt>
      <trkpt lat="46.61061" lon="-1.85448">
        <ele>11.9</ele>
        <time>2020-06-03T15:34:20Z</time>
      </trkpt>
      <trkpt lat="46.61066" lon="-1.8545">
        <ele>11.9</ele>
        <time>2020-06-03T15:34:21Z</time>
      </trkpt>
      <trkpt lat="46.61071" lon="-1.85452">
        <ele>11.9</ele>
        <time>2020-06-03T15:34:22Z</time>
      </trkpt>
      <trkpt lat="46.61076" lon="-1.85455">
        <ele>12</ele>
        <time>2020-06-03T15:34:23Z</time>
      </trkpt>
      <trkpt lat="46.6108" lon="-1.85458">
        <ele>12</ele>
        <time>2020-06-03T15:34:24Z</time>
      </trkpt>
      <trkpt lat="46.61085" lon="-1.85462">
        <ele>12.1</ele>
        <time>2020-06-03T15:34:25Z</time>
      </trkpt>
      <trkpt lat="46.61089" lon="-1.85467">
        <ele>12.1</ele>
        <time>2020-06-03T15:34:26Z</time>
      </trkpt>
      <trkpt lat="46.61092" lon="-1.85473">
        <ele>12.1</ele>
        <time>2020-06-03T15:34:27Z</time>
      </trkpt>
      <trkpt lat="46.61095" lon="-1.85478">
        <ele>12.1</ele>
        <time>2020-06-03T15:34:28Z</time>
      </trkpt>
      <trkpt lat="46.61097" lon="-1.85483">
        <ele>12.2</ele>
        <time>2020-06-03T15:34:29Z</time>
      </trkpt>
      <trkpt lat="46.61099" lon="-1.85487">
        <ele>12.2</ele>
        <time>2020-06-03T15:34:30Z</time>
      </trkpt>
      <trkpt lat="46.61099" lon="-1.85488">
        <ele>12.2</ele>
        <time>2020-06-03T15:34:31Z</time>
      </trkpt>
      <trkpt lat="46.611" lon="-1.85491">
        <ele>12.2</ele>
        <time>2020-06-03T15:34:32Z</time>
      </trkpt>
      <trkpt lat="46.611" lon="-1.85492">
        <ele>12.2</ele>
        <time>2020-06-03T15:34:33Z</time>
      </trkpt>
      <trkpt lat="46.61102" lon="-1.85495">
        <ele>12.2</ele>
        <time>2020-06-03T15:34:34Z</time>
      </trkpt>
      <trkpt lat="46.61103" lon="-1.85497">
        <ele>12.2</ele>
        <time>2020-06-03T15:34:35Z</time>
      </trkpt>
      <trkpt lat="46.61107" lon="-1.85498">
        <ele>12.2</ele>
        <time>2020-06-03T15:34:36Z</time>
      </trkpt>
      <trkpt lat="46.61111" lon="-1.855">
        <ele>12.2</ele>
        <time>2020-06-03T15:34:37Z</time>
      </trkpt>
      <trkpt lat="46.61116" lon="-1.85501">
        <ele>12.1</ele>
        <time>2020-06-03T15:34:38Z</time>
      </trkpt>
      <trkpt lat="46.61121" lon="-1.85508">
        <ele>12.1</ele>
        <time>2020-06-03T15:34:39Z</time>
      </trkpt>
      <trkpt lat="46.61126" lon="-1.85515">
        <ele>12.1</ele>
        <time>2020-06-03T15:34:40Z</time>
      </trkpt>
      <trkpt lat="46.61129" lon="-1.85523">
        <ele>12</ele>
        <time>2020-06-03T15:34:41Z</time>
      </trkpt>
      <trkpt lat="46.61133" lon="-1.8553">
        <ele>12</ele>
        <time>2020-06-03T15:34:42Z</time>
      </trkpt>
      <trkpt lat="46.61138" lon="-1.85534">
        <ele>11.9</ele>
        <time>2020-06-03T15:34:43Z</time>
      </trkpt>
      <trkpt lat="46.61142" lon="-1.85537">
        <ele>11.9</ele>
        <time>2020-06-03T15:34:44Z</time>
      </trkpt>
      <trkpt lat="46.61147" lon="-1.85539">
        <ele>11.9</ele>
        <time>2020-06-03T15:34:45Z</time>
      </trkpt>
      <trkpt lat="46.61151" lon="-1.8554">
        <ele>11.9</ele>
        <time>2020-06-03T15:34:46Z</time>
      </trkpt>
      <trkpt lat="46.61155" lon="-1.85542">
        <ele>11.9</ele>
        <time>2020-06-03T15:34:47Z</time>
      </trkpt>
      <trkpt lat="46.61159" lon="-1.85544">
        <ele>11.9</ele>
        <time>2020-06-03T15:34:48Z</time>
      </trkpt>
      <trkpt lat="46.61163" lon="-1.85547">
        <ele>11.9</ele>
        <time>2020-06-03T15:34:49Z</time>
      </trkpt>
      <trkpt lat="46.61167" lon="-1.85552">
        <ele>11.8</ele>
        <time>2020-06-03T15:34:50Z</time>
      </trkpt>
      <trkpt lat="46.6117" lon="-1.85558">
        <ele>11.8</ele>
        <time>2020-06-03T15:34:51Z</time>
      </trkpt>
      <trkpt lat="46.61173" lon="-1.85563">
        <ele>11.7</ele>
        <time>2020-06-03T15:34:52Z</time>
      </trkpt>
      <trkpt lat="46.61176" lon="-1.85569">
        <ele>11.7</ele>
        <time>2020-06-03T15:34:53Z</time>
      </trkpt>
      <trkpt lat="46.61178" lon="-1.85574">
        <ele>11.7</ele>
        <time>2020-06-03T15:34:54Z</time>
      </trkpt>
      <trkpt lat="46.61181" lon="-1.85581">
        <ele>11.7</ele>
        <time>2020-06-03T15:34:55Z</time>
      </trkpt>
      <trkpt lat="46.61182" lon="-1.85589">
        <ele>11.6</ele>
        <time>2020-06-03T15:34:56Z</time>
      </trkpt>
      <trkpt lat="46.61183" lon="-1.85598">
        <ele>11.6</ele>
        <time>2020-06-03T15:34:57Z</time>
      </trkpt>
      <trkpt lat="46.61184" lon="-1.85607">
        <ele>11.5</ele>
        <time>2020-06-03T15:34:58Z</time>
      </trkpt>
      <trkpt lat="46.61185" lon="-1.85614">
        <ele>11.4</ele>
        <time>2020-06-03T15:34:59Z</time>
      </trkpt>
      <trkpt lat="46.61186" lon="-1.85623">
        <ele>11.4</ele>
        <time>2020-06-03T15:35:00Z</time>
      </trkpt>
      <trkpt lat="46.61187" lon="-1.85631">
        <ele>11.3</ele>
        <time>2020-06-03T15:35:01Z</time>
      </trkpt>
      <trkpt lat="46.61188" lon="-1.8564">
        <ele>11.2</ele>
        <time>2020-06-03T15:35:02Z</time>
      </trkpt>
      <trkpt lat="46.61189" lon="-1.85649">
        <ele>11.1</ele>
        <time>2020-06-03T15:35:03Z</time>
      </trkpt>
      <trkpt lat="46.61191" lon="-1.85657">
        <ele>11.1</ele>
        <time>2020-06-03T15:35:04Z</time>
      </trkpt>
      <trkpt lat="46.61193" lon="-1.85665">
        <ele>11.1</ele>
        <time>2020-06-03T15:35:05Z</time>
      </trkpt>
      <trkpt lat="46.61195" lon="-1.85672">
        <ele>11.1</ele>
        <time>2020-06-03T15:35:06Z</time>
      </trkpt>
      <trkpt lat="46.61198" lon="-1.85678">
        <ele>11.1</ele>
        <time>2020-06-03T15:35:07Z</time>
      </trkpt>
      <trkpt lat="46.61201" lon="-1.85683">
        <ele>11.1</ele>
        <time>2020-06-03T15:35:08Z</time>
      </trkpt>
      <trkpt lat="46.61203" lon="-1.85689">
        <ele>11.1</ele>
        <time>2020-06-03T15:35:09Z</time>
      </trkpt>
      <trkpt lat="46.61205" lon="-1.85694">
        <ele>11.1</ele>
        <time>2020-06-03T15:35:10Z</time>
      </trkpt>
      <trkpt lat="46.61207" lon="-1.857">
        <ele>11.1</ele>
        <time>2020-06-03T15:35:11Z</time>
      </trkpt>
      <trkpt lat="46.61209" lon="-1.85705">
        <ele>11.1</ele>
        <time>2020-06-03T15:35:12Z</time>
      </trkpt>
      <trkpt lat="46.61211" lon="-1.8571">
        <ele>11.1</ele>
        <time>2020-06-03T15:35:13Z</time>
      </trkpt>
      <trkpt lat="46.61212" lon="-1.85715">
        <ele>11.1</ele>
        <time>2020-06-03T15:35:14Z</time>
      </trkpt>
      <trkpt lat="46.61214" lon="-1.8572">
        <ele>11.1</ele>
        <time>2020-06-03T15:35:15Z</time>
      </trkpt>
      <trkpt lat="46.61215" lon="-1.85727">
        <ele>11.1</ele>
        <time>2020-06-03T15:35:16Z</time>
      </trkpt>
      <trkpt lat="46.61216" lon="-1.85733">
        <ele>11.1</ele>
        <time>2020-06-03T15:35:17Z</time>
      </trkpt>
      <trkpt lat="46.61217" lon="-1.8574">
        <ele>11.1</ele>
        <time>2020-06-03T15:35:18Z</time>
      </trkpt>
      <trkpt lat="46.61218" lon="-1.85747">
        <ele>11.1</ele>
        <time>2020-06-03T15:35:19Z</time>
      </trkpt>
      <trkpt lat="46.61218" lon="-1.85753">
        <ele>11</ele>
        <time>2020-06-03T15:35:20Z</time>
      </trkpt>
      <trkpt lat="46.61219" lon="-1.85759">
        <ele>11</ele>
        <time>2020-06-03T15:35:21Z</time>
      </trkpt>
      <trkpt lat="46.61219" lon="-1.85764">
        <ele>10.9</ele>
        <time>2020-06-03T15:35:22Z</time>
      </trkpt>
      <trkpt lat="46.6122" lon="-1.85769">
        <ele>10.8</ele>
        <time>2020-06-03T15:35:23Z</time>
      </trkpt>
      <trkpt lat="46.61221" lon="-1.85774">
        <ele>10.7</ele>
        <time>2020-06-03T15:35:24Z</time>
      </trkpt>
      <trkpt lat="46.61222" lon="-1.8578">
        <ele>10.6</ele>
        <time>2020-06-03T15:35:25Z</time>
      </trkpt>
      <trkpt lat="46.61223" lon="-1.85786">
        <ele>10.5</ele>
        <time>2020-06-03T15:35:26Z</time>
      </trkpt>
      <trkpt lat="46.61225" lon="-1.85793">
        <ele>10.3</ele>
        <time>2020-06-03T15:35:27Z</time>
      </trkpt>
      <trkpt lat="46.61226" lon="-1.858">
        <ele>10.2</ele>
        <time>2020-06-03T15:35:28Z</time>
      </trkpt>
      <trkpt lat="46.61227" lon="-1.8581">
        <ele>10</ele>
        <time>2020-06-03T15:35:29Z</time>
      </trkpt>
      <trkpt lat="46.6123" lon="-1.8582">
        <ele>9.8</ele>
        <time>2020-06-03T15:35:30Z</time>
      </trkpt>
      <trkpt lat="46.61231" lon="-1.85829">
        <ele>9.6</ele>
        <time>2020-06-03T15:35:31Z</time>
      </trkpt>
      <trkpt lat="46.61234" lon="-1.85838">
        <ele>9.5</ele>
        <time>2020-06-03T15:35:32Z</time>
      </trkpt>
      <trkpt lat="46.61237" lon="-1.85845">
        <ele>9.5</ele>
        <time>2020-06-03T15:35:33Z</time>
      </trkpt>
      <trkpt lat="46.61239" lon="-1.85854">
        <ele>9.4</ele>
        <time>2020-06-03T15:35:34Z</time>
      </trkpt>
      <trkpt lat="46.61242" lon="-1.85863">
        <ele>9.4</ele>
        <time>2020-06-03T15:35:35Z</time>
      </trkpt>
      <trkpt lat="46.61245" lon="-1.85872">
        <ele>9.4</ele>
        <time>2020-06-03T15:35:36Z</time>
      </trkpt>
      <trkpt lat="46.61248" lon="-1.85881">
        <ele>9.4</ele>
        <time>2020-06-03T15:35:37Z</time>
      </trkpt>
      <trkpt lat="46.6125" lon="-1.85888">
        <ele>9.4</ele>
        <time>2020-06-03T15:35:38Z</time>
      </trkpt>
      <trkpt lat="46.61253" lon="-1.85897">
        <ele>9.3</ele>
        <time>2020-06-03T15:35:39Z</time>
      </trkpt>
      <trkpt lat="46.61255" lon="-1.85902">
        <ele>9.3</ele>
        <time>2020-06-03T15:35:40Z</time>
      </trkpt>
      <trkpt lat="46.61255" lon="-1.85908">
        <ele>9.3</ele>
        <time>2020-06-03T15:35:41Z</time>
      </trkpt>
      <trkpt lat="46.61254" lon="-1.85914">
        <ele>9.2</ele>
        <time>2020-06-03T15:35:42Z</time>
      </trkpt>
      <trkpt lat="46.61254" lon="-1.8592">
        <ele>9.2</ele>
        <time>2020-06-03T15:35:43Z</time>
      </trkpt>
      <trkpt lat="46.61254" lon="-1.85926">
        <ele>9.2</ele>
        <time>2020-06-03T15:35:44Z</time>
      </trkpt>
      <trkpt lat="46.61254" lon="-1.85932">
        <ele>9.1</ele>
        <time>2020-06-03T15:35:45Z</time>
      </trkpt>
      <trkpt lat="46.61255" lon="-1.85937">
        <ele>9.1</ele>
        <time>2020-06-03T15:35:46Z</time>
      </trkpt>
      <trkpt lat="46.61256" lon="-1.85943">
        <ele>9.1</ele>
        <time>2020-06-03T15:35:47Z</time>
      </trkpt>
      <trkpt lat="46.61258" lon="-1.85948">
        <ele>9</ele>
        <time>2020-06-03T15:35:48Z</time>
      </trkpt>
      <trkpt lat="46.6126" lon="-1.85952">
        <ele>9</ele>
        <time>2020-06-03T15:35:49Z</time>
      </trkpt>
      <trkpt lat="46.61261" lon="-1.85957">
        <ele>9</ele>
        <time>2020-06-03T15:35:50Z</time>
      </trkpt>
      <trkpt lat="46.61263" lon="-1.85962">
        <ele>8.9</ele>
        <time>2020-06-03T15:35:51Z</time>
      </trkpt>
      <trkpt lat="46.61265" lon="-1.85968">
        <ele>8.8</ele>
        <time>2020-06-03T15:35:52Z</time>
      </trkpt>
      <trkpt lat="46.61267" lon="-1.85974">
        <ele>8.7</ele>
        <time>2020-06-03T15:35:53Z</time>
      </trkpt>
      <trkpt lat="46.61269" lon="-1.85982">
        <ele>8.5</ele>
        <time>2020-06-03T15:35:54Z</time>
      </trkpt>
      <trkpt lat="46.61271" lon="-1.85988">
        <ele>8.4</ele>
        <time>2020-06-03T15:35:55Z</time>
      </trkpt>
      <trkpt lat="46.61273" lon="-1.85995">
        <ele>8.1</ele>
        <time>2020-06-03T15:35:56Z</time>
      </trkpt>
      <trkpt lat="46.61275" lon="-1.86002">
        <ele>7.8</ele>
        <time>2020-06-03T15:35:57Z</time>
      </trkpt>
      <trkpt lat="46.61278" lon="-1.86008">
        <ele>7.6</ele>
        <time>2020-06-03T15:35:58Z</time>
      </trkpt>
      <trkpt lat="46.6128" lon="-1.86013">
        <ele>7.4</ele>
        <time>2020-06-03T15:35:59Z</time>
      </trkpt>
      <trkpt lat="46.61282" lon="-1.86019">
        <ele>7.2</ele>
        <time>2020-06-03T15:36:00Z</time>
      </trkpt>
      <trkpt lat="46.61285" lon="-1.86024">
        <ele>7</ele>
        <time>2020-06-03T15:36:01Z</time>
      </trkpt>
      <trkpt lat="46.61288" lon="-1.86029">
        <ele>6.8</ele>
        <time>2020-06-03T15:36:02Z</time>
      </trkpt>
      <trkpt lat="46.6129" lon="-1.86033">
        <ele>6.7</ele>
        <time>2020-06-03T15:36:03Z</time>
      </trkpt>
      <trkpt lat="46.61292" lon="-1.86035">
        <ele>6.7</ele>
        <time>2020-06-03T15:36:04Z</time>
      </trkpt>
      <trkpt lat="46.61293" lon="-1.86036">
        <ele>6.6</ele>
        <time>2020-06-03T15:36:05Z</time>
      </trkpt>
      <trkpt lat="46.61294" lon="-1.86037">
        <ele>6.6</ele>
        <time>2020-06-03T15:36:06Z</time>
      </trkpt>
      <trkpt lat="46.61295" lon="-1.86039">
        <ele>6.6</ele>
        <time>2020-06-03T15:36:07Z</time>
      </trkpt>
      <trkpt lat="46.61296" lon="-1.86041">
        <ele>6.5</ele>
        <time>2020-06-03T15:36:08Z</time>
      </trkpt>
      <trkpt lat="46.61298" lon="-1.86045">
        <ele>6.5</ele>
        <time>2020-06-03T15:36:09Z</time>
      </trkpt>
      <trkpt lat="46.61298" lon="-1.86046">
        <ele>6.4</ele>
        <time>2020-06-03T15:36:10Z</time>
      </trkpt>
      <trkpt lat="46.61299" lon="-1.86049">
        <ele>6.4</ele>
        <time>2020-06-03T15:36:11Z</time>
      </trkpt>
      <trkpt lat="46.61299" lon="-1.86049">
        <ele>6.4</ele>
        <time>2020-06-03T15:36:12Z</time>
      </trkpt>
      <trkpt lat="46.61299" lon="-1.86049">
        <ele>6.4</ele>
        <time>2020-06-03T15:36:13Z</time>
      </trkpt>
      <trkpt lat="46.61298" lon="-1.86049">
        <ele>6.4</ele>
        <time>2020-06-03T15:36:14Z</time>
      </trkpt>
      <trkpt lat="46.61298" lon="-1.86049">
        <ele>6.4</ele>
        <time>2020-06-03T15:36:15Z</time>
      </trkpt>
      <trkpt lat="46.61298" lon="-1.86049">
        <ele>6.4</ele>
        <time>2020-06-03T15:36:16Z</time>
      </trkpt>
      <trkpt lat="46.61298" lon="-1.86049">
        <ele>6.4</ele>
        <time>2020-06-03T15:36:17Z</time>
      </trkpt>
      <trkpt lat="46.61298" lon="-1.86049">
        <ele>6.4</ele>
        <time>2020-06-03T15:36:18Z</time>
      </trkpt>
      <trkpt lat="46.61298" lon="-1.86049">
        <ele>6.4</ele>
        <time>2020-06-03T15:36:19Z</time>
      </trkpt>
      <trkpt lat="46.61299" lon="-1.86049">
        <ele>6.4</ele>
        <time>2020-06-03T15:36:20Z</time>
      </trkpt>
      <trkpt lat="46.61299" lon="-1.8605">
        <ele>6.4</ele>
        <time>2020-06-03T15:36:21Z</time>
      </trkpt>
      <trkpt lat="46.613" lon="-1.86053">
        <ele>6.3</ele>
        <time>2020-06-03T15:36:22Z</time>
      </trkpt>
      <trkpt lat="46.61301" lon="-1.86054">
        <ele>6.3</ele>
        <time>2020-06-03T15:36:23Z</time>
      </trkpt>
      <trkpt lat="46.61301" lon="-1.86055">
        <ele>6.3</ele>
        <time>2020-06-03T15:36:24Z</time>
      </trkpt>
      <trkpt lat="46.61304" lon="-1.86058">
        <ele>6.3</ele>
        <time>2020-06-03T15:36:25Z</time>
      </trkpt>
      <trkpt lat="46.61305" lon="-1.8606">
        <ele>6.3</ele>
        <time>2020-06-03T15:36:26Z</time>
      </trkpt>
      <trkpt lat="46.61307" lon="-1.86063">
        <ele>6.3</ele>
        <time>2020-06-03T15:36:27Z</time>
      </trkpt>
      <trkpt lat="46.61307" lon="-1.86064">
        <ele>6.3</ele>
        <time>2020-06-03T15:36:28Z</time>
      </trkpt>
      <trkpt lat="46.6131" lon="-1.86066">
        <ele>6.3</ele>
        <time>2020-06-03T15:36:29Z</time>
      </trkpt>
      <trkpt lat="46.61312" lon="-1.86069">
        <ele>6.2</ele>
        <time>2020-06-03T15:36:30Z</time>
      </trkpt>
      <trkpt lat="46.61313" lon="-1.86069">
        <ele>6.2</ele>
        <time>2020-06-03T15:36:31Z</time>
      </trkpt>
      <trkpt lat="46.61316" lon="-1.86072">
        <ele>6.2</ele>
        <time>2020-06-03T15:36:32Z</time>
      </trkpt>
      <trkpt lat="46.61317" lon="-1.86073">
        <ele>6.2</ele>
        <time>2020-06-03T15:36:33Z</time>
      </trkpt>
      <trkpt lat="46.6132" lon="-1.86074">
        <ele>6.2</ele>
        <time>2020-06-03T15:36:34Z</time>
      </trkpt>
      <trkpt lat="46.61321" lon="-1.86075">
        <ele>6.2</ele>
        <time>2020-06-03T15:36:35Z</time>
      </trkpt>
      <trkpt lat="46.61325" lon="-1.86075">
        <ele>6.2</ele>
        <time>2020-06-03T15:36:36Z</time>
      </trkpt>
      <trkpt lat="46.61326" lon="-1.86074">
        <ele>6.2</ele>
        <time>2020-06-03T15:36:37Z</time>
      </trkpt>
      <trkpt lat="46.61329" lon="-1.86072">
        <ele>6.2</ele>
        <time>2020-06-03T15:36:38Z</time>
      </trkpt>
      <trkpt lat="46.6133" lon="-1.86071">
        <ele>6.1</ele>
        <time>2020-06-03T15:36:39Z</time>
      </trkpt>
      <trkpt lat="46.61332" lon="-1.86067">
        <ele>6.1</ele>
        <time>2020-06-03T15:36:40Z</time>
      </trkpt>
      <trkpt lat="46.61333" lon="-1.86066">
        <ele>6.1</ele>
        <time>2020-06-03T15:36:41Z</time>
      </trkpt>
      <trkpt lat="46.61336" lon="-1.86063">
        <ele>6.1</ele>
        <time>2020-06-03T15:36:42Z</time>
      </trkpt>
      <trkpt lat="46.61339" lon="-1.86059">
        <ele>6.1</ele>
        <time>2020-06-03T15:36:43Z</time>
      </trkpt>
      <trkpt lat="46.61341" lon="-1.86055">
        <ele>6.1</ele>
        <time>2020-06-03T15:36:44Z</time>
      </trkpt>
      <trkpt lat="46.61344" lon="-1.86052">
        <ele>6.2</ele>
        <time>2020-06-03T15:36:45Z</time>
      </trkpt>
      <trkpt lat="46.61346" lon="-1.86049">
        <ele>6.2</ele>
        <time>2020-06-03T15:36:46Z</time>
      </trkpt>
      <trkpt lat="46.6135" lon="-1.86044">
        <ele>6.2</ele>
        <time>2020-06-03T15:36:47Z</time>
      </trkpt>
      <trkpt lat="46.61352" lon="-1.86041">
        <ele>6.2</ele>
        <time>2020-06-03T15:36:48Z</time>
      </trkpt>
      <trkpt lat="46.61354" lon="-1.86037">
        <ele>6.3</ele>
        <time>2020-06-03T15:36:49Z</time>
      </trkpt>
      <trkpt lat="46.61357" lon="-1.86031">
        <ele>6.3</ele>
        <time>2020-06-03T15:36:50Z</time>
      </trkpt>
      <trkpt lat="46.61359" lon="-1.86026">
        <ele>6.4</ele>
        <time>2020-06-03T15:36:51Z</time>
      </trkpt>
      <trkpt lat="46.61362" lon="-1.86021">
        <ele>6.5</ele>
        <time>2020-06-03T15:36:52Z</time>
      </trkpt>
      <trkpt lat="46.61365" lon="-1.86017">
        <ele>6.5</ele>
        <time>2020-06-03T15:36:53Z</time>
      </trkpt>
      <trkpt lat="46.61367" lon="-1.86013">
        <ele>6.6</ele>
        <time>2020-06-03T15:36:54Z</time>
      </trkpt>
      <trkpt lat="46.61369" lon="-1.86007">
        <ele>6.7</ele>
        <time>2020-06-03T15:36:55Z</time>
      </trkpt>
      <trkpt lat="46.61371" lon="-1.86003">
        <ele>6.8</ele>
        <time>2020-06-03T15:36:56Z</time>
      </trkpt>
      <trkpt lat="46.61373" lon="-1.85998">
        <ele>6.9</ele>
        <time>2020-06-03T15:36:57Z</time>
      </trkpt>
      <trkpt lat="46.61375" lon="-1.85993">
        <ele>7</ele>
        <time>2020-06-03T15:36:58Z</time>
      </trkpt>
      <trkpt lat="46.61377" lon="-1.85989">
        <ele>7.1</ele>
        <time>2020-06-03T15:36:59Z</time>
      </trkpt>
      <trkpt lat="46.61379" lon="-1.85984">
        <ele>7.2</ele>
        <time>2020-06-03T15:37:00Z</time>
      </trkpt>
      <trkpt lat="46.61382" lon="-1.8598">
        <ele>7.3</ele>
        <time>2020-06-03T15:37:01Z</time>
      </trkpt>
      <trkpt lat="46.61384" lon="-1.85975">
        <ele>7.4</ele>
        <time>2020-06-03T15:37:02Z</time>
      </trkpt>
      <trkpt lat="46.61386" lon="-1.85969">
        <ele>7.5</ele>
        <time>2020-06-03T15:37:03Z</time>
      </trkpt>
      <trkpt lat="46.61388" lon="-1.85965">
        <ele>7.6</ele>
        <time>2020-06-03T15:37:04Z</time>
      </trkpt>
      <trkpt lat="46.6139" lon="-1.85959">
        <ele>7.6</ele>
        <time>2020-06-03T15:37:05Z</time>
      </trkpt>
      <trkpt lat="46.61391" lon="-1.85954">
        <ele>7.7</ele>
        <time>2020-06-03T15:37:06Z</time>
      </trkpt>
      <trkpt lat="46.61393" lon="-1.85948">
        <ele>7.7</ele>
        <time>2020-06-03T15:37:07Z</time>
      </trkpt>
      <trkpt lat="46.61395" lon="-1.85943">
        <ele>7.8</ele>
        <time>2020-06-03T15:37:08Z</time>
      </trkpt>
      <trkpt lat="46.61398" lon="-1.85937">
        <ele>7.8</ele>
        <time>2020-06-03T15:37:09Z</time>
      </trkpt>
      <trkpt lat="46.61401" lon="-1.85932">
        <ele>7.9</ele>
        <time>2020-06-03T15:37:10Z</time>
      </trkpt>
      <trkpt lat="46.61403" lon="-1.85927">
        <ele>7.9</ele>
        <time>2020-06-03T15:37:11Z</time>
      </trkpt>
      <trkpt lat="46.61406" lon="-1.85921">
        <ele>7.9</ele>
        <time>2020-06-03T15:37:12Z</time>
      </trkpt>
      <trkpt lat="46.61408" lon="-1.85915">
        <ele>7.9</ele>
        <time>2020-06-03T15:37:13Z</time>
      </trkpt>
      <trkpt lat="46.6141" lon="-1.85909">
        <ele>7.9</ele>
        <time>2020-06-03T15:37:14Z</time>
      </trkpt>
      <trkpt lat="46.61412" lon="-1.85903">
        <ele>7.9</ele>
        <time>2020-06-03T15:37:15Z</time>
      </trkpt>
      <trkpt lat="46.61414" lon="-1.85897">
        <ele>7.9</ele>
        <time>2020-06-03T15:37:16Z</time>
      </trkpt>
      <trkpt lat="46.61415" lon="-1.85891">
        <ele>7.8</ele>
        <time>2020-06-03T15:37:17Z</time>
      </trkpt>
      <trkpt lat="46.61416" lon="-1.85887">
        <ele>7.8</ele>
        <time>2020-06-03T15:37:18Z</time>
      </trkpt>
      <trkpt lat="46.61417" lon="-1.85882">
        <ele>7.8</ele>
        <time>2020-06-03T15:37:19Z</time>
      </trkpt>
      <trkpt lat="46.61419" lon="-1.85878">
        <ele>7.7</ele>
        <time>2020-06-03T15:37:20Z</time>
      </trkpt>
      <trkpt lat="46.6142" lon="-1.85874">
        <ele>7.8</ele>
        <time>2020-06-03T15:37:21Z</time>
      </trkpt>
      <trkpt lat="46.61422" lon="-1.8587">
        <ele>7.7</ele>
        <time>2020-06-03T15:37:22Z</time>
      </trkpt>
      <trkpt lat="46.61423" lon="-1.85869">
        <ele>7.7</ele>
        <time>2020-06-03T15:37:23Z</time>
      </trkpt>
      <trkpt lat="46.61424" lon="-1.8587">
        <ele>7.7</ele>
        <time>2020-06-03T15:37:24Z</time>
      </trkpt>
      <trkpt lat="46.61425" lon="-1.85871">
        <ele>7.7</ele>
        <time>2020-06-03T15:37:25Z</time>
      </trkpt>
      <trkpt lat="46.61426" lon="-1.85873">
        <ele>7.8</ele>
        <time>2020-06-03T15:37:26Z</time>
      </trkpt>
      <trkpt lat="46.61426" lon="-1.85874">
        <ele>7.8</ele>
        <time>2020-06-03T15:37:27Z</time>
      </trkpt>
      <trkpt lat="46.61428" lon="-1.8588">
        <ele>7.8</ele>
        <time>2020-06-03T15:37:28Z</time>
      </trkpt>
      <trkpt lat="46.61428" lon="-1.85887">
        <ele>7.8</ele>
        <time>2020-06-03T15:37:29Z</time>
      </trkpt>
      <trkpt lat="46.61427" lon="-1.85893">
        <ele>7.8</ele>
        <time>2020-06-03T15:37:30Z</time>
      </trkpt>
      <trkpt lat="46.61427" lon="-1.859">
        <ele>7.7</ele>
        <time>2020-06-03T15:37:31Z</time>
      </trkpt>
      <trkpt lat="46.61428" lon="-1.85906">
        <ele>7.7</ele>
        <time>2020-06-03T15:37:32Z</time>
      </trkpt>
      <trkpt lat="46.61428" lon="-1.85913">
        <ele>7.7</ele>
        <time>2020-06-03T15:37:33Z</time>
      </trkpt>
      <trkpt lat="46.61429" lon="-1.8592">
        <ele>7.7</ele>
        <time>2020-06-03T15:37:34Z</time>
      </trkpt>
      <trkpt lat="46.61429" lon="-1.85927">
        <ele>7.7</ele>
        <time>2020-06-03T15:37:35Z</time>
      </trkpt>
      <trkpt lat="46.61429" lon="-1.85935">
        <ele>7.7</ele>
        <time>2020-06-03T15:37:36Z</time>
      </trkpt>
      <trkpt lat="46.6143" lon="-1.85942">
        <ele>7.6</ele>
        <time>2020-06-03T15:37:37Z</time>
      </trkpt>
      <trkpt lat="46.61431" lon="-1.8595">
        <ele>7.6</ele>
        <time>2020-06-03T15:37:38Z</time>
      </trkpt>
      <trkpt lat="46.61432" lon="-1.85957">
        <ele>7.6</ele>
        <time>2020-06-03T15:37:39Z</time>
      </trkpt>
      <trkpt lat="46.61433" lon="-1.85963">
        <ele>7.6</ele>
        <time>2020-06-03T15:37:40Z</time>
      </trkpt>
      <trkpt lat="46.61434" lon="-1.85969">
        <ele>7.6</ele>
        <time>2020-06-03T15:37:41Z</time>
      </trkpt>
      <trkpt lat="46.61434" lon="-1.85974">
        <ele>7.5</ele>
        <time>2020-06-03T15:37:42Z</time>
      </trkpt>
      <trkpt lat="46.61435" lon="-1.8598">
        <ele>7.5</ele>
        <time>2020-06-03T15:37:43Z</time>
      </trkpt>
      <trkpt lat="46.61436" lon="-1.85984">
        <ele>7.5</ele>
        <time>2020-06-03T15:37:44Z</time>
      </trkpt>
      <trkpt lat="46.61436" lon="-1.85989">
        <ele>7.5</ele>
        <time>2020-06-03T15:37:45Z</time>
      </trkpt>
      <trkpt lat="46.61437" lon="-1.85993">
        <ele>7.5</ele>
        <time>2020-06-03T15:37:46Z</time>
      </trkpt>
      <trkpt lat="46.61437" lon="-1.85997">
        <ele>7.5</ele>
        <time>2020-06-03T15:37:47Z</time>
      </trkpt>
      <trkpt lat="46.61438" lon="-1.86002">
        <ele>7.5</ele>
        <time>2020-06-03T15:37:48Z</time>
      </trkpt>
      <trkpt lat="46.61438" lon="-1.86008">
        <ele>7.5</ele>
        <time>2020-06-03T15:37:49Z</time>
      </trkpt>
      <trkpt lat="46.61439" lon="-1.86013">
        <ele>7.5</ele>
        <time>2020-06-03T15:37:50Z</time>
      </trkpt>
      <trkpt lat="46.6144" lon="-1.86018">
        <ele>7.5</ele>
        <time>2020-06-03T15:37:51Z</time>
      </trkpt>
      <trkpt lat="46.6144" lon="-1.86024">
        <ele>7.4</ele>
        <time>2020-06-03T15:37:52Z</time>
      </trkpt>
      <trkpt lat="46.61441" lon="-1.8603">
        <ele>7.4</ele>
        <time>2020-06-03T15:37:53Z</time>
      </trkpt>
      <trkpt lat="46.61442" lon="-1.86036">
        <ele>7.4</ele>
        <time>2020-06-03T15:37:54Z</time>
      </trkpt>
      <trkpt lat="46.61442" lon="-1.86043">
        <ele>7.4</ele>
        <time>2020-06-03T15:37:55Z</time>
      </trkpt>
      <trkpt lat="46.61443" lon="-1.86049">
        <ele>7.4</ele>
        <time>2020-06-03T15:37:56Z</time>
      </trkpt>
      <trkpt lat="46.61444" lon="-1.86055">
        <ele>7.4</ele>
        <time>2020-06-03T15:37:57Z</time>
      </trkpt>
      <trkpt lat="46.61445" lon="-1.86062">
        <ele>7.4</ele>
        <time>2020-06-03T15:37:58Z</time>
      </trkpt>
      <trkpt lat="46.61446" lon="-1.86068">
        <ele>7.5</ele>
        <time>2020-06-03T15:37:59Z</time>
      </trkpt>
      <trkpt lat="46.61448" lon="-1.86074">
        <ele>7.5</ele>
        <time>2020-06-03T15:38:00Z</time>
      </trkpt>
      <trkpt lat="46.6145" lon="-1.86079">
        <ele>7.7</ele>
        <time>2020-06-03T15:38:01Z</time>
      </trkpt>
      <trkpt lat="46.61452" lon="-1.86086">
        <ele>7.8</ele>
        <time>2020-06-03T15:38:02Z</time>
      </trkpt>
      <trkpt lat="46.61453" lon="-1.86092">
        <ele>7.9</ele>
        <time>2020-06-03T15:38:03Z</time>
      </trkpt>
      <trkpt lat="46.61455" lon="-1.86098">
        <ele>8.1</ele>
        <time>2020-06-03T15:38:04Z</time>
      </trkpt>
      <trkpt lat="46.61457" lon="-1.86103">
        <ele>8.2</ele>
        <time>2020-06-03T15:38:05Z</time>
      </trkpt>
      <trkpt lat="46.61458" lon="-1.86109">
        <ele>8.3</ele>
        <time>2020-06-03T15:38:06Z</time>
      </trkpt>
      <trkpt lat="46.6146" lon="-1.86114">
        <ele>8.4</ele>
        <time>2020-06-03T15:38:07Z</time>
      </trkpt>
      <trkpt lat="46.61461" lon="-1.86119">
        <ele>8.5</ele>
        <time>2020-06-03T15:38:08Z</time>
      </trkpt>
      <trkpt lat="46.61463" lon="-1.86125">
        <ele>8.6</ele>
        <time>2020-06-03T15:38:09Z</time>
      </trkpt>
      <trkpt lat="46.61465" lon="-1.8613">
        <ele>8.7</ele>
        <time>2020-06-03T15:38:10Z</time>
      </trkpt>
      <trkpt lat="46.61467" lon="-1.86134">
        <ele>8.8</ele>
        <time>2020-06-03T15:38:11Z</time>
      </trkpt>
      <trkpt lat="46.61468" lon="-1.86139">
        <ele>8.8</ele>
        <time>2020-06-03T15:38:12Z</time>
      </trkpt>
      <trkpt lat="46.6147" lon="-1.86142">
        <ele>8.8</ele>
        <time>2020-06-03T15:38:13Z</time>
      </trkpt>
      <trkpt lat="46.61472" lon="-1.86146">
        <ele>8.8</ele>
        <time>2020-06-03T15:38:14Z</time>
      </trkpt>
      <trkpt lat="46.61473" lon="-1.86148">
        <ele>8.8</ele>
        <time>2020-06-03T15:38:15Z</time>
      </trkpt>
      <trkpt lat="46.61474" lon="-1.8615">
        <ele>8.8</ele>
        <time>2020-06-03T15:38:16Z</time>
      </trkpt>
      <trkpt lat="46.61475" lon="-1.86154">
        <ele>8.9</ele>
        <time>2020-06-03T15:38:17Z</time>
      </trkpt>
      <trkpt lat="46.61475" lon="-1.86156">
        <ele>8.9</ele>
        <time>2020-06-03T15:38:18Z</time>
      </trkpt>
      <trkpt lat="46.61476" lon="-1.86161">
        <ele>8.9</ele>
        <time>2020-06-03T15:38:19Z</time>
      </trkpt>
      <trkpt lat="46.61479" lon="-1.86167">
        <ele>8.9</ele>
        <time>2020-06-03T15:38:20Z</time>
      </trkpt>
      <trkpt lat="46.61483" lon="-1.8617">
        <ele>9</ele>
        <time>2020-06-03T15:38:21Z</time>
      </trkpt>
      <trkpt lat="46.61488" lon="-1.86172">
        <ele>9</ele>
        <time>2020-06-03T15:38:22Z</time>
      </trkpt>
      <trkpt lat="46.61492" lon="-1.86173">
        <ele>9</ele>
        <time>2020-06-03T15:38:23Z</time>
      </trkpt>
      <trkpt lat="46.61497" lon="-1.86172">
        <ele>9</ele>
        <time>2020-06-03T15:38:24Z</time>
      </trkpt>
      <trkpt lat="46.61501" lon="-1.8617">
        <ele>9</ele>
        <time>2020-06-03T15:38:25Z</time>
      </trkpt>
      <trkpt lat="46.61506" lon="-1.86167">
        <ele>9</ele>
        <time>2020-06-03T15:38:26Z</time>
      </trkpt>
      <trkpt lat="46.61511" lon="-1.86164">
        <ele>9</ele>
        <time>2020-06-03T15:38:27Z</time>
      </trkpt>
      <trkpt lat="46.61515" lon="-1.86162">
        <ele>9</ele>
        <time>2020-06-03T15:38:28Z</time>
      </trkpt>
      <trkpt lat="46.6152" lon="-1.8616">
        <ele>9</ele>
        <time>2020-06-03T15:38:29Z</time>
      </trkpt>
      <trkpt lat="46.61525" lon="-1.86159">
        <ele>9</ele>
        <time>2020-06-03T15:38:30Z</time>
      </trkpt>
      <trkpt lat="46.61531" lon="-1.8616">
        <ele>9</ele>
        <time>2020-06-03T15:38:31Z</time>
      </trkpt>
      <trkpt lat="46.61536" lon="-1.86163">
        <ele>9</ele>
        <time>2020-06-03T15:38:32Z</time>
      </trkpt>
      <trkpt lat="46.6154" lon="-1.86167">
        <ele>9</ele>
        <time>2020-06-03T15:38:33Z</time>
      </trkpt>
      <trkpt lat="46.61544" lon="-1.86174">
        <ele>9</ele>
        <time>2020-06-03T15:38:34Z</time>
      </trkpt>
      <trkpt lat="46.61547" lon="-1.86181">
        <ele>9</ele>
        <time>2020-06-03T15:38:35Z</time>
      </trkpt>
      <trkpt lat="46.6155" lon="-1.86188">
        <ele>9</ele>
        <time>2020-06-03T15:38:36Z</time>
      </trkpt>
      <trkpt lat="46.61553" lon="-1.86193">
        <ele>9</ele>
        <time>2020-06-03T15:38:37Z</time>
      </trkpt>
      <trkpt lat="46.61557" lon="-1.86197">
        <ele>9</ele>
        <time>2020-06-03T15:38:38Z</time>
      </trkpt>
      <trkpt lat="46.61561" lon="-1.86199">
        <ele>9</ele>
        <time>2020-06-03T15:38:39Z</time>
      </trkpt>
      <trkpt lat="46.61565" lon="-1.86199">
        <ele>9</ele>
        <time>2020-06-03T15:38:40Z</time>
      </trkpt>
      <trkpt lat="46.61569" lon="-1.86197">
        <ele>9</ele>
        <time>2020-06-03T15:38:41Z</time>
      </trkpt>
      <trkpt lat="46.61573" lon="-1.86194">
        <ele>9</ele>
        <time>2020-06-03T15:38:42Z</time>
      </trkpt>
      <trkpt lat="46.61577" lon="-1.86192">
        <ele>9</ele>
        <time>2020-06-03T15:38:43Z</time>
      </trkpt>
      <trkpt lat="46.61581" lon="-1.86189">
        <ele>8.9</ele>
        <time>2020-06-03T15:38:44Z</time>
      </trkpt>
      <trkpt lat="46.61585" lon="-1.86188">
        <ele>8.9</ele>
        <time>2020-06-03T15:38:45Z</time>
      </trkpt>
      <trkpt lat="46.61589" lon="-1.86189">
        <ele>8.9</ele>
        <time>2020-06-03T15:38:46Z</time>
      </trkpt>
      <trkpt lat="46.61593" lon="-1.86191">
        <ele>8.9</ele>
        <time>2020-06-03T15:38:47Z</time>
      </trkpt>
      <trkpt lat="46.61597" lon="-1.86195">
        <ele>8.9</ele>
        <time>2020-06-03T15:38:48Z</time>
      </trkpt>
      <trkpt lat="46.616" lon="-1.86199">
        <ele>8.8</ele>
        <time>2020-06-03T15:38:49Z</time>
      </trkpt>
      <trkpt lat="46.61603" lon="-1.86205">
        <ele>8.8</ele>
        <time>2020-06-03T15:38:50Z</time>
      </trkpt>
      <trkpt lat="46.61605" lon="-1.86212">
        <ele>8.8</ele>
        <time>2020-06-03T15:38:51Z</time>
      </trkpt>
      <trkpt lat="46.61607" lon="-1.86218">
        <ele>8.7</ele>
        <time>2020-06-03T15:38:52Z</time>
      </trkpt>
      <trkpt lat="46.61609" lon="-1.86224">
        <ele>8.7</ele>
        <time>2020-06-03T15:38:53Z</time>
      </trkpt>
      <trkpt lat="46.6161" lon="-1.86231">
        <ele>8.6</ele>
        <time>2020-06-03T15:38:54Z</time>
      </trkpt>
      <trkpt lat="46.61611" lon="-1.86239">
        <ele>8.6</ele>
        <time>2020-06-03T15:38:55Z</time>
      </trkpt>
      <trkpt lat="46.61612" lon="-1.86248">
        <ele>8.6</ele>
        <time>2020-06-03T15:38:56Z</time>
      </trkpt>
      <trkpt lat="46.61612" lon="-1.86255">
        <ele>8.5</ele>
        <time>2020-06-03T15:38:57Z</time>
      </trkpt>
      <trkpt lat="46.61613" lon="-1.86261">
        <ele>8.5</ele>
        <time>2020-06-03T15:38:58Z</time>
      </trkpt>
      <trkpt lat="46.61613" lon="-1.86268">
        <ele>8.5</ele>
        <time>2020-06-03T15:38:59Z</time>
      </trkpt>
      <trkpt lat="46.61613" lon="-1.86273">
        <ele>8.5</ele>
        <time>2020-06-03T15:39:00Z</time>
      </trkpt>
      <trkpt lat="46.61614" lon="-1.86278">
        <ele>8.4</ele>
        <time>2020-06-03T15:39:01Z</time>
      </trkpt>
      <trkpt lat="46.61615" lon="-1.86281">
        <ele>8.2</ele>
        <time>2020-06-03T15:39:02Z</time>
      </trkpt>
      <trkpt lat="46.61617" lon="-1.86286">
        <ele>8.1</ele>
        <time>2020-06-03T15:39:03Z</time>
      </trkpt>
      <trkpt lat="46.61618" lon="-1.86289">
        <ele>8.1</ele>
        <time>2020-06-03T15:39:04Z</time>
      </trkpt>
      <trkpt lat="46.61619" lon="-1.86295">
        <ele>8.1</ele>
        <time>2020-06-03T15:39:05Z</time>
      </trkpt>
      <trkpt lat="46.6162" lon="-1.86301">
        <ele>8.1</ele>
        <time>2020-06-03T15:39:06Z</time>
      </trkpt>
      <trkpt lat="46.61622" lon="-1.86307">
        <ele>8.1</ele>
        <time>2020-06-03T15:39:07Z</time>
      </trkpt>
      <trkpt lat="46.61624" lon="-1.86312">
        <ele>8.1</ele>
        <time>2020-06-03T15:39:08Z</time>
      </trkpt>
      <trkpt lat="46.61625" lon="-1.86316">
        <ele>8.1</ele>
        <time>2020-06-03T15:39:09Z</time>
      </trkpt>
      <trkpt lat="46.61627" lon="-1.86322">
        <ele>8.1</ele>
        <time>2020-06-03T15:39:10Z</time>
      </trkpt>
      <trkpt lat="46.6163" lon="-1.86326">
        <ele>8.1</ele>
        <time>2020-06-03T15:39:11Z</time>
      </trkpt>
      <trkpt lat="46.61632" lon="-1.86331">
        <ele>8.1</ele>
        <time>2020-06-03T15:39:12Z</time>
      </trkpt>
      <trkpt lat="46.61634" lon="-1.86335">
        <ele>8.1</ele>
        <time>2020-06-03T15:39:13Z</time>
      </trkpt>
      <trkpt lat="46.61636" lon="-1.86339">
        <ele>8.1</ele>
        <time>2020-06-03T15:39:14Z</time>
      </trkpt>
      <trkpt lat="46.61636" lon="-1.86344">
        <ele>8</ele>
        <time>2020-06-03T15:39:15Z</time>
      </trkpt>
      <trkpt lat="46.61634" lon="-1.86347">
        <ele>8</ele>
        <time>2020-06-03T15:39:16Z</time>
      </trkpt>
      <trkpt lat="46.61631" lon="-1.86349">
        <ele>7.9</ele>
        <time>2020-06-03T15:39:17Z</time>
      </trkpt>
      <trkpt lat="46.61628" lon="-1.86351">
        <ele>7.8</ele>
        <time>2020-06-03T15:39:18Z</time>
      </trkpt>
      <trkpt lat="46.61624" lon="-1.86353">
        <ele>7.8</ele>
        <time>2020-06-03T15:39:19Z</time>
      </trkpt>
      <trkpt lat="46.6162" lon="-1.86356">
        <ele>7.6</ele>
        <time>2020-06-03T15:39:20Z</time>
      </trkpt>
      <trkpt lat="46.61616" lon="-1.86358">
        <ele>7.5</ele>
        <time>2020-06-03T15:39:21Z</time>
      </trkpt>
      <trkpt lat="46.61612" lon="-1.86361">
        <ele>7.4</ele>
        <time>2020-06-03T15:39:22Z</time>
      </trkpt>
      <trkpt lat="46.61607" lon="-1.86364">
        <ele>7.2</ele>
        <time>2020-06-03T15:39:23Z</time>
      </trkpt>
      <trkpt lat="46.61603" lon="-1.86368">
        <ele>7.1</ele>
        <time>2020-06-03T15:39:24Z</time>
      </trkpt>
      <trkpt lat="46.61598" lon="-1.86371">
        <ele>6.9</ele>
        <time>2020-06-03T15:39:25Z</time>
      </trkpt>
      <trkpt lat="46.61594" lon="-1.86374">
        <ele>6.8</ele>
        <time>2020-06-03T15:39:26Z</time>
      </trkpt>
      <trkpt lat="46.6159" lon="-1.86377">
        <ele>6.7</ele>
        <time>2020-06-03T15:39:27Z</time>
      </trkpt>
      <trkpt lat="46.61587" lon="-1.8638">
        <ele>6.7</ele>
        <time>2020-06-03T15:39:28Z</time>
      </trkpt>
      <trkpt lat="46.61584" lon="-1.86383">
        <ele>6.6</ele>
        <time>2020-06-03T15:39:29Z</time>
      </trkpt>
      <trkpt lat="46.61584" lon="-1.86388">
        <ele>6.6</ele>
        <time>2020-06-03T15:39:30Z</time>
      </trkpt>
      <trkpt lat="46.61584" lon="-1.86393">
        <ele>6.7</ele>
        <time>2020-06-03T15:39:31Z</time>
      </trkpt>
      <trkpt lat="46.61586" lon="-1.86397">
        <ele>6.7</ele>
        <time>2020-06-03T15:39:32Z</time>
      </trkpt>
      <trkpt lat="46.61588" lon="-1.86403">
        <ele>6.8</ele>
        <time>2020-06-03T15:39:33Z</time>
      </trkpt>
      <trkpt lat="46.6159" lon="-1.86408">
        <ele>6.8</ele>
        <time>2020-06-03T15:39:34Z</time>
      </trkpt>
      <trkpt lat="46.61591" lon="-1.86414">
        <ele>6.8</ele>
        <time>2020-06-03T15:39:35Z</time>
      </trkpt>
      <trkpt lat="46.61593" lon="-1.86418">
        <ele>6.9</ele>
        <time>2020-06-03T15:39:36Z</time>
      </trkpt>
      <trkpt lat="46.61594" lon="-1.86423">
        <ele>6.9</ele>
        <time>2020-06-03T15:39:37Z</time>
      </trkpt>
      <trkpt lat="46.61595" lon="-1.86427">
        <ele>7</ele>
        <time>2020-06-03T15:39:38Z</time>
      </trkpt>
      <trkpt lat="46.61597" lon="-1.8643">
        <ele>7</ele>
        <time>2020-06-03T15:39:39Z</time>
      </trkpt>
      <trkpt lat="46.61599" lon="-1.86434">
        <ele>7</ele>
        <time>2020-06-03T15:39:40Z</time>
      </trkpt>
      <trkpt lat="46.61601" lon="-1.86438">
        <ele>7.1</ele>
        <time>2020-06-03T15:39:41Z</time>
      </trkpt>
      <trkpt lat="46.61602" lon="-1.8644">
        <ele>7.1</ele>
        <time>2020-06-03T15:39:42Z</time>
      </trkpt>
      <trkpt lat="46.61604" lon="-1.86444">
        <ele>7.2</ele>
        <time>2020-06-03T15:39:43Z</time>
      </trkpt>
      <trkpt lat="46.61607" lon="-1.86446">
        <ele>7.2</ele>
        <time>2020-06-03T15:39:44Z</time>
      </trkpt>
      <trkpt lat="46.61609" lon="-1.86448">
        <ele>7.2</ele>
        <time>2020-06-03T15:39:45Z</time>
      </trkpt>
      <trkpt lat="46.61612" lon="-1.86449">
        <ele>7.3</ele>
        <time>2020-06-03T15:39:46Z</time>
      </trkpt>
      <trkpt lat="46.61615" lon="-1.86452">
        <ele>7.3</ele>
        <time>2020-06-03T15:39:47Z</time>
      </trkpt>
      <trkpt lat="46.61618" lon="-1.86455">
        <ele>7.4</ele>
        <time>2020-06-03T15:39:48Z</time>
      </trkpt>
      <trkpt lat="46.6162" lon="-1.8646">
        <ele>7.3</ele>
        <time>2020-06-03T15:39:49Z</time>
      </trkpt>
      <trkpt lat="46.61622" lon="-1.86464">
        <ele>7.3</ele>
        <time>2020-06-03T15:39:50Z</time>
      </trkpt>
      <trkpt lat="46.61622" lon="-1.86468">
        <ele>7.3</ele>
        <time>2020-06-03T15:39:51Z</time>
      </trkpt>
      <trkpt lat="46.6162" lon="-1.86473">
        <ele>7.3</ele>
        <time>2020-06-03T15:39:52Z</time>
      </trkpt>
      <trkpt lat="46.61619" lon="-1.86475">
        <ele>7.3</ele>
        <time>2020-06-03T15:39:53Z</time>
      </trkpt>
      <trkpt lat="46.61617" lon="-1.86478">
        <ele>7.2</ele>
        <time>2020-06-03T15:39:54Z</time>
      </trkpt>
      <trkpt lat="46.61614" lon="-1.86481">
        <ele>7.1</ele>
        <time>2020-06-03T15:39:55Z</time>
      </trkpt>
      <trkpt lat="46.61612" lon="-1.86484">
        <ele>7</ele>
        <time>2020-06-03T15:39:56Z</time>
      </trkpt>
      <trkpt lat="46.61609" lon="-1.86488">
        <ele>6.8</ele>
        <time>2020-06-03T15:39:57Z</time>
      </trkpt>
      <trkpt lat="46.61608" lon="-1.8649">
        <ele>6.8</ele>
        <time>2020-06-03T15:39:58Z</time>
      </trkpt>
      <trkpt lat="46.61608" lon="-1.86495">
        <ele>6.7</ele>
        <time>2020-06-03T15:39:59Z</time>
      </trkpt>
      <trkpt lat="46.61608" lon="-1.865">
        <ele>6.7</ele>
        <time>2020-06-03T15:40:00Z</time>
      </trkpt>
      <trkpt lat="46.61608" lon="-1.86506">
        <ele>6.6</ele>
        <time>2020-06-03T15:40:01Z</time>
      </trkpt>
      <trkpt lat="46.61609" lon="-1.86511">
        <ele>6.5</ele>
        <time>2020-06-03T15:40:02Z</time>
      </trkpt>
      <trkpt lat="46.6161" lon="-1.86518">
        <ele>6.3</ele>
        <time>2020-06-03T15:40:03Z</time>
      </trkpt>
      <trkpt lat="46.61611" lon="-1.86524">
        <ele>6.2</ele>
        <time>2020-06-03T15:40:04Z</time>
      </trkpt>
      <trkpt lat="46.61613" lon="-1.8653">
        <ele>6.1</ele>
        <time>2020-06-03T15:40:05Z</time>
      </trkpt>
      <trkpt lat="46.61614" lon="-1.86536">
        <ele>6</ele>
        <time>2020-06-03T15:40:06Z</time>
      </trkpt>
      <trkpt lat="46.61614" lon="-1.86538">
        <ele>5.9</ele>
        <time>2020-06-03T15:40:07Z</time>
      </trkpt>
      <trkpt lat="46.61614" lon="-1.86543">
        <ele>5.9</ele>
        <time>2020-06-03T15:40:08Z</time>
      </trkpt>
      <trkpt lat="46.61614" lon="-1.86549">
        <ele>5.7</ele>
        <time>2020-06-03T15:40:09Z</time>
      </trkpt>
      <trkpt lat="46.61614" lon="-1.86556">
        <ele>5.7</ele>
        <time>2020-06-03T15:40:10Z</time>
      </trkpt>
      <trkpt lat="46.61614" lon="-1.86564">
        <ele>5.7</ele>
        <time>2020-06-03T15:40:11Z</time>
      </trkpt>
      <trkpt lat="46.61614" lon="-1.86571">
        <ele>5.7</ele>
        <time>2020-06-03T15:40:12Z</time>
      </trkpt>
      <trkpt lat="46.61615" lon="-1.86578">
        <ele>5.7</ele>
        <time>2020-06-03T15:40:13Z</time>
      </trkpt>
      <trkpt lat="46.61615" lon="-1.86586">
        <ele>5.7</ele>
        <time>2020-06-03T15:40:14Z</time>
      </trkpt>
      <trkpt lat="46.61614" lon="-1.86593">
        <ele>5.7</ele>
        <time>2020-06-03T15:40:15Z</time>
      </trkpt>
      <trkpt lat="46.61613" lon="-1.86599">
        <ele>5.7</ele>
        <time>2020-06-03T15:40:16Z</time>
      </trkpt>
      <trkpt lat="46.61613" lon="-1.86607">
        <ele>5.7</ele>
        <time>2020-06-03T15:40:17Z</time>
      </trkpt>
      <trkpt lat="46.61612" lon="-1.86614">
        <ele>5.7</ele>
        <time>2020-06-03T15:40:18Z</time>
      </trkpt>
      <trkpt lat="46.61611" lon="-1.86621">
        <ele>5.7</ele>
        <time>2020-06-03T15:40:19Z</time>
      </trkpt>
      <trkpt lat="46.61611" lon="-1.86627">
        <ele>5.8</ele>
        <time>2020-06-03T15:40:20Z</time>
      </trkpt>
      <trkpt lat="46.61611" lon="-1.86634">
        <ele>5.8</ele>
        <time>2020-06-03T15:40:21Z</time>
      </trkpt>
      <trkpt lat="46.6161" lon="-1.8664">
        <ele>5.9</ele>
        <time>2020-06-03T15:40:22Z</time>
      </trkpt>
      <trkpt lat="46.6161" lon="-1.86646">
        <ele>5.9</ele>
        <time>2020-06-03T15:40:23Z</time>
      </trkpt>
      <trkpt lat="46.6161" lon="-1.86653">
        <ele>6</ele>
        <time>2020-06-03T15:40:24Z</time>
      </trkpt>
      <trkpt lat="46.61611" lon="-1.86658">
        <ele>6</ele>
        <time>2020-06-03T15:40:25Z</time>
      </trkpt>
      <trkpt lat="46.61611" lon="-1.86664">
        <ele>6.1</ele>
        <time>2020-06-03T15:40:26Z</time>
      </trkpt>
      <trkpt lat="46.61612" lon="-1.8667">
        <ele>6.1</ele>
        <time>2020-06-03T15:40:27Z</time>
      </trkpt>
      <trkpt lat="46.61613" lon="-1.86675">
        <ele>6.2</ele>
        <time>2020-06-03T15:40:28Z</time>
      </trkpt>
      <trkpt lat="46.61615" lon="-1.86681">
        <ele>6.2</ele>
        <time>2020-06-03T15:40:29Z</time>
      </trkpt>
      <trkpt lat="46.61617" lon="-1.86686">
        <ele>6.2</ele>
        <time>2020-06-03T15:40:30Z</time>
      </trkpt>
      <trkpt lat="46.61619" lon="-1.86691">
        <ele>6.2</ele>
        <time>2020-06-03T15:40:31Z</time>
      </trkpt>
      <trkpt lat="46.61621" lon="-1.86695">
        <ele>6.2</ele>
        <time>2020-06-03T15:40:32Z</time>
      </trkpt>
      <trkpt lat="46.61623" lon="-1.867">
        <ele>6.2</ele>
        <time>2020-06-03T15:40:33Z</time>
      </trkpt>
      <trkpt lat="46.61625" lon="-1.86705">
        <ele>6.2</ele>
        <time>2020-06-03T15:40:34Z</time>
      </trkpt>
      <trkpt lat="46.61627" lon="-1.86711">
        <ele>6.2</ele>
        <time>2020-06-03T15:40:35Z</time>
      </trkpt>
      <trkpt lat="46.61629" lon="-1.86717">
        <ele>6.2</ele>
        <time>2020-06-03T15:40:36Z</time>
      </trkpt>
      <trkpt lat="46.6163" lon="-1.86723">
        <ele>6.2</ele>
        <time>2020-06-03T15:40:37Z</time>
      </trkpt>
      <trkpt lat="46.61631" lon="-1.8673">
        <ele>6.3</ele>
        <time>2020-06-03T15:40:38Z</time>
      </trkpt>
      <trkpt lat="46.61632" lon="-1.86737">
        <ele>6.3</ele>
        <time>2020-06-03T15:40:39Z</time>
      </trkpt>
      <trkpt lat="46.61633" lon="-1.86743">
        <ele>6.3</ele>
        <time>2020-06-03T15:40:40Z</time>
      </trkpt>
      <trkpt lat="46.61634" lon="-1.86749">
        <ele>6.4</ele>
        <time>2020-06-03T15:40:41Z</time>
      </trkpt>
      <trkpt lat="46.61635" lon="-1.86756">
        <ele>6.4</ele>
        <time>2020-06-03T15:40:42Z</time>
      </trkpt>
      <trkpt lat="46.61635" lon="-1.86762">
        <ele>6.4</ele>
        <time>2020-06-03T15:40:43Z</time>
      </trkpt>
      <trkpt lat="46.61636" lon="-1.86769">
        <ele>6.4</ele>
        <time>2020-06-03T15:40:44Z</time>
      </trkpt>
      <trkpt lat="46.61637" lon="-1.86776">
        <ele>6.5</ele>
        <time>2020-06-03T15:40:45Z</time>
      </trkpt>
      <trkpt lat="46.61639" lon="-1.86783">
        <ele>6.5</ele>
        <time>2020-06-03T15:40:46Z</time>
      </trkpt>
      <trkpt lat="46.6164" lon="-1.8679">
        <ele>6.5</ele>
        <time>2020-06-03T15:40:47Z</time>
      </trkpt>
      <trkpt lat="46.61641" lon="-1.86797">
        <ele>6.5</ele>
        <time>2020-06-03T15:40:48Z</time>
      </trkpt>
      <trkpt lat="46.61642" lon="-1.86803">
        <ele>6.6</ele>
        <time>2020-06-03T15:40:49Z</time>
      </trkpt>
      <trkpt lat="46.61644" lon="-1.8681">
        <ele>6.6</ele>
        <time>2020-06-03T15:40:50Z</time>
      </trkpt>
      <trkpt lat="46.61644" lon="-1.86815">
        <ele>6.6</ele>
        <time>2020-06-03T15:40:51Z</time>
      </trkpt>
      <trkpt lat="46.61646" lon="-1.86821">
        <ele>6.7</ele>
        <time>2020-06-03T15:40:52Z</time>
      </trkpt>
      <trkpt lat="46.61647" lon="-1.86827">
        <ele>6.7</ele>
        <time>2020-06-03T15:40:53Z</time>
      </trkpt>
      <trkpt lat="46.61649" lon="-1.86833">
        <ele>6.8</ele>
        <time>2020-06-03T15:40:54Z</time>
      </trkpt>
      <trkpt lat="46.6165" lon="-1.86839">
        <ele>6.8</ele>
        <time>2020-06-03T15:40:55Z</time>
      </trkpt>
      <trkpt lat="46.61653" lon="-1.86845">
        <ele>6.9</ele>
        <time>2020-06-03T15:40:56Z</time>
      </trkpt>
      <trkpt lat="46.61654" lon="-1.86853">
        <ele>6.9</ele>
        <time>2020-06-03T15:40:57Z</time>
      </trkpt>
      <trkpt lat="46.61656" lon="-1.8686">
        <ele>7</ele>
        <time>2020-06-03T15:40:58Z</time>
      </trkpt>
      <trkpt lat="46.61657" lon="-1.86866">
        <ele>7</ele>
        <time>2020-06-03T15:40:59Z</time>
      </trkpt>
      <trkpt lat="46.61658" lon="-1.86872">
        <ele>7</ele>
        <time>2020-06-03T15:41:00Z</time>
      </trkpt>
      <trkpt lat="46.61659" lon="-1.86879">
        <ele>7.1</ele>
        <time>2020-06-03T15:41:01Z</time>
      </trkpt>
      <trkpt lat="46.61661" lon="-1.86884">
        <ele>7.1</ele>
        <time>2020-06-03T15:41:02Z</time>
      </trkpt>
      <trkpt lat="46.61663" lon="-1.86889">
        <ele>7.1</ele>
        <time>2020-06-03T15:41:03Z</time>
      </trkpt>
      <trkpt lat="46.61665" lon="-1.86895">
        <ele>7.3</ele>
        <time>2020-06-03T15:41:04Z</time>
      </trkpt>
      <trkpt lat="46.61667" lon="-1.86899">
        <ele>7.3</ele>
        <time>2020-06-03T15:41:05Z</time>
      </trkpt>
      <trkpt lat="46.61669" lon="-1.86904">
        <ele>7.3</ele>
        <time>2020-06-03T15:41:06Z</time>
      </trkpt>
      <trkpt lat="46.61671" lon="-1.86909">
        <ele>7.3</ele>
        <time>2020-06-03T15:41:07Z</time>
      </trkpt>
      <trkpt lat="46.61673" lon="-1.86914">
        <ele>7.4</ele>
        <time>2020-06-03T15:41:08Z</time>
      </trkpt>
      <trkpt lat="46.61676" lon="-1.86919">
        <ele>7.4</ele>
        <time>2020-06-03T15:41:09Z</time>
      </trkpt>
      <trkpt lat="46.61678" lon="-1.86923">
        <ele>7.4</ele>
        <time>2020-06-03T15:41:10Z</time>
      </trkpt>
      <trkpt lat="46.61679" lon="-1.86929">
        <ele>7.4</ele>
        <time>2020-06-03T15:41:11Z</time>
      </trkpt>
      <trkpt lat="46.61681" lon="-1.86934">
        <ele>7.5</ele>
        <time>2020-06-03T15:41:12Z</time>
      </trkpt>
      <trkpt lat="46.61683" lon="-1.8694">
        <ele>7.6</ele>
        <time>2020-06-03T15:41:13Z</time>
      </trkpt>
      <trkpt lat="46.61685" lon="-1.86943">
        <ele>7.6</ele>
        <time>2020-06-03T15:41:14Z</time>
      </trkpt>
      <trkpt lat="46.61687" lon="-1.86947">
        <ele>7.6</ele>
        <time>2020-06-03T15:41:15Z</time>
      </trkpt>
      <trkpt lat="46.61689" lon="-1.86951">
        <ele>7.7</ele>
        <time>2020-06-03T15:41:16Z</time>
      </trkpt>
      <trkpt lat="46.61691" lon="-1.86956">
        <ele>7.7</ele>
        <time>2020-06-03T15:41:17Z</time>
      </trkpt>
      <trkpt lat="46.61693" lon="-1.8696">
        <ele>7.8</ele>
        <time>2020-06-03T15:41:18Z</time>
      </trkpt>
      <trkpt lat="46.61696" lon="-1.86964">
        <ele>7.8</ele>
        <time>2020-06-03T15:41:19Z</time>
      </trkpt>
      <trkpt lat="46.61699" lon="-1.86968">
        <ele>7.9</ele>
        <time>2020-06-03T15:41:20Z</time>
      </trkpt>
      <trkpt lat="46.61702" lon="-1.86972">
        <ele>7.9</ele>
        <time>2020-06-03T15:41:21Z</time>
      </trkpt>
      <trkpt lat="46.61706" lon="-1.86976">
        <ele>8</ele>
        <time>2020-06-03T15:41:22Z</time>
      </trkpt>
      <trkpt lat="46.61709" lon="-1.86979">
        <ele>8</ele>
        <time>2020-06-03T15:41:23Z</time>
      </trkpt>
      <trkpt lat="46.61712" lon="-1.86983">
        <ele>8</ele>
        <time>2020-06-03T15:41:24Z</time>
      </trkpt>
      <trkpt lat="46.61715" lon="-1.86986">
        <ele>8.1</ele>
        <time>2020-06-03T15:41:25Z</time>
      </trkpt>
      <trkpt lat="46.61718" lon="-1.8699">
        <ele>8.1</ele>
        <time>2020-06-03T15:41:26Z</time>
      </trkpt>
      <trkpt lat="46.61721" lon="-1.86993">
        <ele>8.1</ele>
        <time>2020-06-03T15:41:27Z</time>
      </trkpt>
      <trkpt lat="46.61724" lon="-1.86995">
        <ele>8.1</ele>
        <time>2020-06-03T15:41:28Z</time>
      </trkpt>
      <trkpt lat="46.61726" lon="-1.86997">
        <ele>8.1</ele>
        <time>2020-06-03T15:41:29Z</time>
      </trkpt>
      <trkpt lat="46.61729" lon="-1.87">
        <ele>8.1</ele>
        <time>2020-06-03T15:41:30Z</time>
      </trkpt>
      <trkpt lat="46.61732" lon="-1.87003">
        <ele>8.1</ele>
        <time>2020-06-03T15:41:31Z</time>
      </trkpt>
      <trkpt lat="46.61735" lon="-1.87006">
        <ele>8.1</ele>
        <time>2020-06-03T15:41:32Z</time>
      </trkpt>
      <trkpt lat="46.61738" lon="-1.87009">
        <ele>8</ele>
        <time>2020-06-03T15:41:33Z</time>
      </trkpt>
      <trkpt lat="46.6174" lon="-1.87013">
        <ele>8</ele>
        <time>2020-06-03T15:41:34Z</time>
      </trkpt>
      <trkpt lat="46.61742" lon="-1.87018">
        <ele>8</ele>
        <time>2020-06-03T15:41:35Z</time>
      </trkpt>
      <trkpt lat="46.61744" lon="-1.87025">
        <ele>7.9</ele>
        <time>2020-06-03T15:41:36Z</time>
      </trkpt>
      <trkpt lat="46.61746" lon="-1.87031">
        <ele>7.9</ele>
        <time>2020-06-03T15:41:37Z</time>
      </trkpt>
      <trkpt lat="46.61748" lon="-1.87036">
        <ele>7.8</ele>
        <time>2020-06-03T15:41:38Z</time>
      </trkpt>
      <trkpt lat="46.61752" lon="-1.8704">
        <ele>7.8</ele>
        <time>2020-06-03T15:41:39Z</time>
      </trkpt>
      <trkpt lat="46.61755" lon="-1.87045">
        <ele>7.7</ele>
        <time>2020-06-03T15:41:40Z</time>
      </trkpt>
      <trkpt lat="46.61759" lon="-1.87049">
        <ele>7.7</ele>
        <time>2020-06-03T15:41:41Z</time>
      </trkpt>
      <trkpt lat="46.61763" lon="-1.87053">
        <ele>7.7</ele>
        <time>2020-06-03T15:41:42Z</time>
      </trkpt>
      <trkpt lat="46.61767" lon="-1.87056">
        <ele>7.7</ele>
        <time>2020-06-03T15:41:43Z</time>
      </trkpt>
      <trkpt lat="46.6177" lon="-1.87059">
        <ele>7.7</ele>
        <time>2020-06-03T15:41:44Z</time>
      </trkpt>
      <trkpt lat="46.61774" lon="-1.87062">
        <ele>7.7</ele>
        <time>2020-06-03T15:41:45Z</time>
      </trkpt>
      <trkpt lat="46.61778" lon="-1.87065">
        <ele>7.7</ele>
        <time>2020-06-03T15:41:46Z</time>
      </trkpt>
      <trkpt lat="46.61782" lon="-1.87069">
        <ele>7.7</ele>
        <time>2020-06-03T15:41:47Z</time>
      </trkpt>
      <trkpt lat="46.61786" lon="-1.87073">
        <ele>7.7</ele>
        <time>2020-06-03T15:41:48Z</time>
      </trkpt>
      <trkpt lat="46.6179" lon="-1.87077">
        <ele>7.7</ele>
        <time>2020-06-03T15:41:49Z</time>
      </trkpt>
      <trkpt lat="46.61794" lon="-1.8708">
        <ele>7.7</ele>
        <time>2020-06-03T15:41:50Z</time>
      </trkpt>
      <trkpt lat="46.61798" lon="-1.87084">
        <ele>7.6</ele>
        <time>2020-06-03T15:41:51Z</time>
      </trkpt>
      <trkpt lat="46.61803" lon="-1.87087">
        <ele>7.6</ele>
        <time>2020-06-03T15:41:52Z</time>
      </trkpt>
      <trkpt lat="46.61806" lon="-1.8709">
        <ele>7.6</ele>
        <time>2020-06-03T15:41:53Z</time>
      </trkpt>
      <trkpt lat="46.6181" lon="-1.87093">
        <ele>7.5</ele>
        <time>2020-06-03T15:41:54Z</time>
      </trkpt>
      <trkpt lat="46.61815" lon="-1.87096">
        <ele>7.5</ele>
        <time>2020-06-03T15:41:55Z</time>
      </trkpt>
      <trkpt lat="46.6182" lon="-1.87096">
        <ele>7.4</ele>
        <time>2020-06-03T15:41:56Z</time>
      </trkpt>
      <trkpt lat="46.61824" lon="-1.87094">
        <ele>7.4</ele>
        <time>2020-06-03T15:41:57Z</time>
      </trkpt>
      <trkpt lat="46.61828" lon="-1.87093">
        <ele>7.4</ele>
        <time>2020-06-03T15:41:58Z</time>
      </trkpt>
      <trkpt lat="46.6183" lon="-1.87091">
        <ele>7.4</ele>
        <time>2020-06-03T15:41:59Z</time>
      </trkpt>
      <trkpt lat="46.61834" lon="-1.87091">
        <ele>7.4</ele>
        <time>2020-06-03T15:42:00Z</time>
      </trkpt>
      <trkpt lat="46.61835" lon="-1.87091">
        <ele>7.4</ele>
        <time>2020-06-03T15:42:01Z</time>
      </trkpt>
      <trkpt lat="46.61838" lon="-1.87093">
        <ele>7.4</ele>
        <time>2020-06-03T15:42:02Z</time>
      </trkpt>
      <trkpt lat="46.6184" lon="-1.87094">
        <ele>7.4</ele>
        <time>2020-06-03T15:42:03Z</time>
      </trkpt>
      <trkpt lat="46.61843" lon="-1.87096">
        <ele>7.4</ele>
        <time>2020-06-03T15:42:04Z</time>
      </trkpt>
      <trkpt lat="46.61845" lon="-1.87098">
        <ele>7.4</ele>
        <time>2020-06-03T15:42:05Z</time>
      </trkpt>
      <trkpt lat="46.61848" lon="-1.87101">
        <ele>7.5</ele>
        <time>2020-06-03T15:42:06Z</time>
      </trkpt>
      <trkpt lat="46.61851" lon="-1.87106">
        <ele>7.5</ele>
        <time>2020-06-03T15:42:07Z</time>
      </trkpt>
      <trkpt lat="46.61854" lon="-1.87112">
        <ele>7.6</ele>
        <time>2020-06-03T15:42:08Z</time>
      </trkpt>
      <trkpt lat="46.61856" lon="-1.87119">
        <ele>7.6</ele>
        <time>2020-06-03T15:42:09Z</time>
      </trkpt>
      <trkpt lat="46.61858" lon="-1.87125">
        <ele>7.7</ele>
        <time>2020-06-03T15:42:10Z</time>
      </trkpt>
      <trkpt lat="46.6186" lon="-1.87131">
        <ele>7.8</ele>
        <time>2020-06-03T15:42:11Z</time>
      </trkpt>
      <trkpt lat="46.61862" lon="-1.87135">
        <ele>7.8</ele>
        <time>2020-06-03T15:42:12Z</time>
      </trkpt>
      <trkpt lat="46.61864" lon="-1.8714">
        <ele>7.9</ele>
        <time>2020-06-03T15:42:13Z</time>
      </trkpt>
      <trkpt lat="46.61867" lon="-1.87144">
        <ele>8</ele>
        <time>2020-06-03T15:42:14Z</time>
      </trkpt>
      <trkpt lat="46.6187" lon="-1.87148">
        <ele>8.1</ele>
        <time>2020-06-03T15:42:15Z</time>
      </trkpt>
      <trkpt lat="46.61874" lon="-1.87152">
        <ele>8.2</ele>
        <time>2020-06-03T15:42:16Z</time>
      </trkpt>
      <trkpt lat="46.61877" lon="-1.87155">
        <ele>8.2</ele>
        <time>2020-06-03T15:42:17Z</time>
      </trkpt>
      <trkpt lat="46.61881" lon="-1.87156">
        <ele>8.3</ele>
        <time>2020-06-03T15:42:18Z</time>
      </trkpt>
      <trkpt lat="46.61885" lon="-1.87159">
        <ele>8.4</ele>
        <time>2020-06-03T15:42:19Z</time>
      </trkpt>
      <trkpt lat="46.61889" lon="-1.87162">
        <ele>8.4</ele>
        <time>2020-06-03T15:42:20Z</time>
      </trkpt>
      <trkpt lat="46.61893" lon="-1.87164">
        <ele>8.5</ele>
        <time>2020-06-03T15:42:21Z</time>
      </trkpt>
      <trkpt lat="46.61897" lon="-1.87166">
        <ele>8.5</ele>
        <time>2020-06-03T15:42:22Z</time>
      </trkpt>
      <trkpt lat="46.61901" lon="-1.87167">
        <ele>8.5</ele>
        <time>2020-06-03T15:42:23Z</time>
      </trkpt>
      <trkpt lat="46.61904" lon="-1.8717">
        <ele>8.5</ele>
        <time>2020-06-03T15:42:24Z</time>
      </trkpt>
      <trkpt lat="46.61909" lon="-1.87173">
        <ele>8.6</ele>
        <time>2020-06-03T15:42:25Z</time>
      </trkpt>
      <trkpt lat="46.61912" lon="-1.87175">
        <ele>8.6</ele>
        <time>2020-06-03T15:42:26Z</time>
      </trkpt>
      <trkpt lat="46.61916" lon="-1.87178">
        <ele>8.6</ele>
        <time>2020-06-03T15:42:27Z</time>
      </trkpt>
      <trkpt lat="46.6192" lon="-1.87181">
        <ele>8.6</ele>
        <time>2020-06-03T15:42:28Z</time>
      </trkpt>
      <trkpt lat="46.61924" lon="-1.87184">
        <ele>8.7</ele>
        <time>2020-06-03T15:42:29Z</time>
      </trkpt>
      <trkpt lat="46.61928" lon="-1.87186">
        <ele>8.7</ele>
        <time>2020-06-03T15:42:30Z</time>
      </trkpt>
      <trkpt lat="46.61932" lon="-1.87189">
        <ele>8.7</ele>
        <time>2020-06-03T15:42:31Z</time>
      </trkpt>
      <trkpt lat="46.61936" lon="-1.87191">
        <ele>8.7</ele>
        <time>2020-06-03T15:42:32Z</time>
      </trkpt>
      <trkpt lat="46.6194" lon="-1.87193">
        <ele>8.7</ele>
        <time>2020-06-03T15:42:33Z</time>
      </trkpt>
      <trkpt lat="46.61943" lon="-1.87196">
        <ele>8.7</ele>
        <time>2020-06-03T15:42:34Z</time>
      </trkpt>
      <trkpt lat="46.61948" lon="-1.87198">
        <ele>8.7</ele>
        <time>2020-06-03T15:42:35Z</time>
      </trkpt>
      <trkpt lat="46.61951" lon="-1.872">
        <ele>8.7</ele>
        <time>2020-06-03T15:42:36Z</time>
      </trkpt>
      <trkpt lat="46.61954" lon="-1.87202">
        <ele>8.7</ele>
        <time>2020-06-03T15:42:37Z</time>
      </trkpt>
      <trkpt lat="46.61958" lon="-1.87205">
        <ele>8.7</ele>
        <time>2020-06-03T15:42:38Z</time>
      </trkpt>
      <trkpt lat="46.61962" lon="-1.87207">
        <ele>8.7</ele>
        <time>2020-06-03T15:42:39Z</time>
      </trkpt>
      <trkpt lat="46.61966" lon="-1.87209">
        <ele>8.6</ele>
        <time>2020-06-03T15:42:40Z</time>
      </trkpt>
      <trkpt lat="46.61971" lon="-1.87212">
        <ele>8.6</ele>
        <time>2020-06-03T15:42:41Z</time>
      </trkpt>
      <trkpt lat="46.61975" lon="-1.87215">
        <ele>8.5</ele>
        <time>2020-06-03T15:42:42Z</time>
      </trkpt>
      <trkpt lat="46.61979" lon="-1.87219">
        <ele>8.4</ele>
        <time>2020-06-03T15:42:43Z</time>
      </trkpt>
      <trkpt lat="46.61984" lon="-1.87222">
        <ele>8.4</ele>
        <time>2020-06-03T15:42:44Z</time>
      </trkpt>
      <trkpt lat="46.61989" lon="-1.87225">
        <ele>8.3</ele>
        <time>2020-06-03T15:42:45Z</time>
      </trkpt>
      <trkpt lat="46.61994" lon="-1.87228">
        <ele>8.2</ele>
        <time>2020-06-03T15:42:46Z</time>
      </trkpt>
      <trkpt lat="46.61998" lon="-1.8723">
        <ele>8.1</ele>
        <time>2020-06-03T15:42:47Z</time>
      </trkpt>
      <trkpt lat="46.62003" lon="-1.87232">
        <ele>8.1</ele>
        <time>2020-06-03T15:42:48Z</time>
      </trkpt>
      <trkpt lat="46.62008" lon="-1.87234">
        <ele>8</ele>
        <time>2020-06-03T15:42:49Z</time>
      </trkpt>
      <trkpt lat="46.62013" lon="-1.87235">
        <ele>8</ele>
        <time>2020-06-03T15:42:50Z</time>
      </trkpt>
      <trkpt lat="46.62017" lon="-1.87237">
        <ele>7.9</ele>
        <time>2020-06-03T15:42:51Z</time>
      </trkpt>
      <trkpt lat="46.62021" lon="-1.87238">
        <ele>7.9</ele>
        <time>2020-06-03T15:42:52Z</time>
      </trkpt>
      <trkpt lat="46.62025" lon="-1.8724">
        <ele>7.8</ele>
        <time>2020-06-03T15:42:53Z</time>
      </trkpt>
      <trkpt lat="46.6203" lon="-1.87242">
        <ele>7.8</ele>
        <time>2020-06-03T15:42:54Z</time>
      </trkpt>
      <trkpt lat="46.62035" lon="-1.87244">
        <ele>7.7</ele>
        <time>2020-06-03T15:42:55Z</time>
      </trkpt>
      <trkpt lat="46.6204" lon="-1.87246">
        <ele>7.6</ele>
        <time>2020-06-03T15:42:56Z</time>
      </trkpt>
      <trkpt lat="46.62044" lon="-1.87248">
        <ele>7.6</ele>
        <time>2020-06-03T15:42:57Z</time>
      </trkpt>
      <trkpt lat="46.62048" lon="-1.8725">
        <ele>7.5</ele>
        <time>2020-06-03T15:42:58Z</time>
      </trkpt>
      <trkpt lat="46.62053" lon="-1.8725">
        <ele>7.5</ele>
        <time>2020-06-03T15:42:59Z</time>
      </trkpt>
      <trkpt lat="46.62058" lon="-1.8725">
        <ele>7.4</ele>
        <time>2020-06-03T15:43:00Z</time>
      </trkpt>
      <trkpt lat="46.62063" lon="-1.8725">
        <ele>7.3</ele>
        <time>2020-06-03T15:43:01Z</time>
      </trkpt>
      <trkpt lat="46.62068" lon="-1.87249">
        <ele>7.3</ele>
        <time>2020-06-03T15:43:02Z</time>
      </trkpt>
      <trkpt lat="46.62072" lon="-1.87247">
        <ele>7.2</ele>
        <time>2020-06-03T15:43:03Z</time>
      </trkpt>
      <trkpt lat="46.62077" lon="-1.87245">
        <ele>7.1</ele>
        <time>2020-06-03T15:43:04Z</time>
      </trkpt>
      <trkpt lat="46.62081" lon="-1.87243">
        <ele>7.1</ele>
        <time>2020-06-03T15:43:05Z</time>
      </trkpt>
      <trkpt lat="46.62085" lon="-1.87241">
        <ele>7</ele>
        <time>2020-06-03T15:43:06Z</time>
      </trkpt>
      <trkpt lat="46.62089" lon="-1.87239">
        <ele>7</ele>
        <time>2020-06-03T15:43:07Z</time>
      </trkpt>
      <trkpt lat="46.62094" lon="-1.87236">
        <ele>7</ele>
        <time>2020-06-03T15:43:08Z</time>
      </trkpt>
      <trkpt lat="46.62099" lon="-1.87234">
        <ele>7</ele>
        <time>2020-06-03T15:43:09Z</time>
      </trkpt>
      <trkpt lat="46.62104" lon="-1.87231">
        <ele>7</ele>
        <time>2020-06-03T15:43:10Z</time>
      </trkpt>
      <trkpt lat="46.6211" lon="-1.87229">
        <ele>7</ele>
        <time>2020-06-03T15:43:11Z</time>
      </trkpt>
      <trkpt lat="46.62115" lon="-1.87227">
        <ele>7.1</ele>
        <time>2020-06-03T15:43:12Z</time>
      </trkpt>
      <trkpt lat="46.62121" lon="-1.87226">
        <ele>7.2</ele>
        <time>2020-06-03T15:43:13Z</time>
      </trkpt>
      <trkpt lat="46.62126" lon="-1.87224">
        <ele>7.3</ele>
        <time>2020-06-03T15:43:14Z</time>
      </trkpt>
      <trkpt lat="46.62131" lon="-1.87223">
        <ele>7.3</ele>
        <time>2020-06-03T15:43:15Z</time>
      </trkpt>
      <trkpt lat="46.62135" lon="-1.87223">
        <ele>7.4</ele>
        <time>2020-06-03T15:43:16Z</time>
      </trkpt>
      <trkpt lat="46.6214" lon="-1.87222">
        <ele>7.4</ele>
        <time>2020-06-03T15:43:17Z</time>
      </trkpt>
      <trkpt lat="46.62144" lon="-1.87222">
        <ele>7.5</ele>
        <time>2020-06-03T15:43:18Z</time>
      </trkpt>
      <trkpt lat="46.62148" lon="-1.87223">
        <ele>7.5</ele>
        <time>2020-06-03T15:43:19Z</time>
      </trkpt>
      <trkpt lat="46.62152" lon="-1.87225">
        <ele>7.5</ele>
        <time>2020-06-03T15:43:20Z</time>
      </trkpt>
      <trkpt lat="46.62156" lon="-1.87228">
        <ele>7.5</ele>
        <time>2020-06-03T15:43:21Z</time>
      </trkpt>
      <trkpt lat="46.6216" lon="-1.87231">
        <ele>7.5</ele>
        <time>2020-06-03T15:43:22Z</time>
      </trkpt>
      <trkpt lat="46.62163" lon="-1.87233">
        <ele>7.5</ele>
        <time>2020-06-03T15:43:23Z</time>
      </trkpt>
      <trkpt lat="46.62167" lon="-1.87234">
        <ele>7.5</ele>
        <time>2020-06-03T15:43:24Z</time>
      </trkpt>
      <trkpt lat="46.62171" lon="-1.87235">
        <ele>7.5</ele>
        <time>2020-06-03T15:43:25Z</time>
      </trkpt>
      <trkpt lat="46.62175" lon="-1.87236">
        <ele>7.5</ele>
        <time>2020-06-03T15:43:26Z</time>
      </trkpt>
      <trkpt lat="46.62179" lon="-1.87238">
        <ele>7.8</ele>
        <time>2020-06-03T15:43:27Z</time>
      </trkpt>
      <trkpt lat="46.62183" lon="-1.87238">
        <ele>7.8</ele>
        <time>2020-06-03T15:43:28Z</time>
      </trkpt>
      <trkpt lat="46.62187" lon="-1.87238">
        <ele>7.8</ele>
        <time>2020-06-03T15:43:29Z</time>
      </trkpt>
      <trkpt lat="46.62191" lon="-1.8724">
        <ele>7.8</ele>
        <time>2020-06-03T15:43:30Z</time>
      </trkpt>
      <trkpt lat="46.62195" lon="-1.87243">
        <ele>7.8</ele>
        <time>2020-06-03T15:43:31Z</time>
      </trkpt>
      <trkpt lat="46.62199" lon="-1.87246">
        <ele>7.8</ele>
        <time>2020-06-03T15:43:32Z</time>
      </trkpt>
      <trkpt lat="46.62203" lon="-1.8725">
        <ele>7.8</ele>
        <time>2020-06-03T15:43:33Z</time>
      </trkpt>
      <trkpt lat="46.62207" lon="-1.87254">
        <ele>7.8</ele>
        <time>2020-06-03T15:43:34Z</time>
      </trkpt>
      <trkpt lat="46.62212" lon="-1.87257">
        <ele>7.9</ele>
        <time>2020-06-03T15:43:35Z</time>
      </trkpt>
      <trkpt lat="46.62216" lon="-1.8726">
        <ele>7.9</ele>
        <time>2020-06-03T15:43:36Z</time>
      </trkpt>
      <trkpt lat="46.6222" lon="-1.87263">
        <ele>8</ele>
        <time>2020-06-03T15:43:37Z</time>
      </trkpt>
      <trkpt lat="46.62224" lon="-1.87263">
        <ele>8.1</ele>
        <time>2020-06-03T15:43:38Z</time>
      </trkpt>
      <trkpt lat="46.62228" lon="-1.87266">
        <ele>8.1</ele>
        <time>2020-06-03T15:43:39Z</time>
      </trkpt>
      <trkpt lat="46.62231" lon="-1.87268">
        <ele>8.2</ele>
        <time>2020-06-03T15:43:40Z</time>
      </trkpt>
      <trkpt lat="46.62235" lon="-1.87271">
        <ele>8.3</ele>
        <time>2020-06-03T15:43:41Z</time>
      </trkpt>
      <trkpt lat="46.62239" lon="-1.87272">
        <ele>8.4</ele>
        <time>2020-06-03T15:43:42Z</time>
      </trkpt>
      <trkpt lat="46.62244" lon="-1.87276">
        <ele>8.5</ele>
        <time>2020-06-03T15:43:43Z</time>
      </trkpt>
      <trkpt lat="46.62248" lon="-1.87278">
        <ele>8.6</ele>
        <time>2020-06-03T15:43:44Z</time>
      </trkpt>
      <trkpt lat="46.62252" lon="-1.8728">
        <ele>8.6</ele>
        <time>2020-06-03T15:43:45Z</time>
      </trkpt>
      <trkpt lat="46.62256" lon="-1.87282">
        <ele>8.7</ele>
        <time>2020-06-03T15:43:46Z</time>
      </trkpt>
      <trkpt lat="46.62261" lon="-1.87285">
        <ele>8.7</ele>
        <time>2020-06-03T15:43:47Z</time>
      </trkpt>
      <trkpt lat="46.62264" lon="-1.87287">
        <ele>8.7</ele>
        <time>2020-06-03T15:43:48Z</time>
      </trkpt>
      <trkpt lat="46.62267" lon="-1.8729">
        <ele>8.8</ele>
        <time>2020-06-03T15:43:49Z</time>
      </trkpt>
      <trkpt lat="46.62272" lon="-1.87292">
        <ele>8.8</ele>
        <time>2020-06-03T15:43:50Z</time>
      </trkpt>
      <trkpt lat="46.62276" lon="-1.87296">
        <ele>8.8</ele>
        <time>2020-06-03T15:43:51Z</time>
      </trkpt>
      <trkpt lat="46.62281" lon="-1.87299">
        <ele>8.8</ele>
        <time>2020-06-03T15:43:52Z</time>
      </trkpt>
      <trkpt lat="46.62284" lon="-1.87302">
        <ele>8.7</ele>
        <time>2020-06-03T15:43:53Z</time>
      </trkpt>
      <trkpt lat="46.62288" lon="-1.87305">
        <ele>8.7</ele>
        <time>2020-06-03T15:43:54Z</time>
      </trkpt>
      <trkpt lat="46.62291" lon="-1.87308">
        <ele>8.7</ele>
        <time>2020-06-03T15:43:55Z</time>
      </trkpt>
      <trkpt lat="46.62295" lon="-1.87311">
        <ele>8.7</ele>
        <time>2020-06-03T15:43:56Z</time>
      </trkpt>
      <trkpt lat="46.62299" lon="-1.87313">
        <ele>8.7</ele>
        <time>2020-06-03T15:43:57Z</time>
      </trkpt>
      <trkpt lat="46.62303" lon="-1.87315">
        <ele>8.7</ele>
        <time>2020-06-03T15:43:58Z</time>
      </trkpt>
      <trkpt lat="46.62308" lon="-1.87317">
        <ele>8.7</ele>
        <time>2020-06-03T15:43:59Z</time>
      </trkpt>
      <trkpt lat="46.62312" lon="-1.87319">
        <ele>8.7</ele>
        <time>2020-06-03T15:44:00Z</time>
      </trkpt>
      <trkpt lat="46.62316" lon="-1.8732">
        <ele>8.7</ele>
        <time>2020-06-03T15:44:01Z</time>
      </trkpt>
      <trkpt lat="46.62319" lon="-1.87322">
        <ele>8.7</ele>
        <time>2020-06-03T15:44:02Z</time>
      </trkpt>
      <trkpt lat="46.62322" lon="-1.87324">
        <ele>8.6</ele>
        <time>2020-06-03T15:44:03Z</time>
      </trkpt>
      <trkpt lat="46.62326" lon="-1.87326">
        <ele>8.6</ele>
        <time>2020-06-03T15:44:04Z</time>
      </trkpt>
      <trkpt lat="46.6233" lon="-1.87327">
        <ele>8.6</ele>
        <time>2020-06-03T15:44:05Z</time>
      </trkpt>
      <trkpt lat="46.62335" lon="-1.87328">
        <ele>8.6</ele>
        <time>2020-06-03T15:44:06Z</time>
      </trkpt>
      <trkpt lat="46.62339" lon="-1.87329">
        <ele>8.6</ele>
        <time>2020-06-03T15:44:07Z</time>
      </trkpt>
      <trkpt lat="46.62342" lon="-1.87329">
        <ele>8.6</ele>
        <time>2020-06-03T15:44:08Z</time>
      </trkpt>
      <trkpt lat="46.62346" lon="-1.87331">
        <ele>8.6</ele>
        <time>2020-06-03T15:44:09Z</time>
      </trkpt>
      <trkpt lat="46.62351" lon="-1.87334">
        <ele>8.6</ele>
        <time>2020-06-03T15:44:10Z</time>
      </trkpt>
      <trkpt lat="46.62355" lon="-1.87335">
        <ele>8.6</ele>
        <time>2020-06-03T15:44:11Z</time>
      </trkpt>
      <trkpt lat="46.62361" lon="-1.87337">
        <ele>8.6</ele>
        <time>2020-06-03T15:44:12Z</time>
      </trkpt>
      <trkpt lat="46.62365" lon="-1.87339">
        <ele>8.6</ele>
        <time>2020-06-03T15:44:13Z</time>
      </trkpt>
      <trkpt lat="46.62369" lon="-1.87341">
        <ele>8.6</ele>
        <time>2020-06-03T15:44:14Z</time>
      </trkpt>
      <trkpt lat="46.62373" lon="-1.87343">
        <ele>8.6</ele>
        <time>2020-06-03T15:44:15Z</time>
      </trkpt>
      <trkpt lat="46.62377" lon="-1.87344">
        <ele>8.5</ele>
        <time>2020-06-03T15:44:16Z</time>
      </trkpt>
      <trkpt lat="46.62381" lon="-1.87346">
        <ele>8.5</ele>
        <time>2020-06-03T15:44:17Z</time>
      </trkpt>
      <trkpt lat="46.62384" lon="-1.87347">
        <ele>8.5</ele>
        <time>2020-06-03T15:44:18Z</time>
      </trkpt>
      <trkpt lat="46.62389" lon="-1.87348">
        <ele>8.5</ele>
        <time>2020-06-03T15:44:19Z</time>
      </trkpt>
      <trkpt lat="46.62393" lon="-1.8735">
        <ele>8.5</ele>
        <time>2020-06-03T15:44:20Z</time>
      </trkpt>
      <trkpt lat="46.62398" lon="-1.87352">
        <ele>8.5</ele>
        <time>2020-06-03T15:44:21Z</time>
      </trkpt>
      <trkpt lat="46.62403" lon="-1.87354">
        <ele>8.5</ele>
        <time>2020-06-03T15:44:22Z</time>
      </trkpt>
      <trkpt lat="46.62407" lon="-1.87356">
        <ele>8.5</ele>
        <time>2020-06-03T15:44:23Z</time>
      </trkpt>
      <trkpt lat="46.62411" lon="-1.87357">
        <ele>8.5</ele>
        <time>2020-06-03T15:44:24Z</time>
      </trkpt>
      <trkpt lat="46.62415" lon="-1.87358">
        <ele>8.4</ele>
        <time>2020-06-03T15:44:25Z</time>
      </trkpt>
      <trkpt lat="46.6242" lon="-1.87359">
        <ele>8.4</ele>
        <time>2020-06-03T15:44:26Z</time>
      </trkpt>
      <trkpt lat="46.62425" lon="-1.87361">
        <ele>8.4</ele>
        <time>2020-06-03T15:44:27Z</time>
      </trkpt>
      <trkpt lat="46.62429" lon="-1.87362">
        <ele>8.4</ele>
        <time>2020-06-03T15:44:28Z</time>
      </trkpt>
      <trkpt lat="46.62435" lon="-1.87362">
        <ele>8.4</ele>
        <time>2020-06-03T15:44:29Z</time>
      </trkpt>
      <trkpt lat="46.6244" lon="-1.87362">
        <ele>8.4</ele>
        <time>2020-06-03T15:44:30Z</time>
      </trkpt>
      <trkpt lat="46.62444" lon="-1.87362">
        <ele>8.3</ele>
        <time>2020-06-03T15:44:31Z</time>
      </trkpt>
      <trkpt lat="46.62449" lon="-1.87361">
        <ele>8.3</ele>
        <time>2020-06-03T15:44:32Z</time>
      </trkpt>
      <trkpt lat="46.62453" lon="-1.87361">
        <ele>8.2</ele>
        <time>2020-06-03T15:44:33Z</time>
      </trkpt>
      <trkpt lat="46.62458" lon="-1.87362">
        <ele>8.1</ele>
        <time>2020-06-03T15:44:34Z</time>
      </trkpt>
      <trkpt lat="46.62463" lon="-1.87364">
        <ele>8</ele>
        <time>2020-06-03T15:44:35Z</time>
      </trkpt>
      <trkpt lat="46.62469" lon="-1.87365">
        <ele>8</ele>
        <time>2020-06-03T15:44:36Z</time>
      </trkpt>
      <trkpt lat="46.62474" lon="-1.87366">
        <ele>7.9</ele>
        <time>2020-06-03T15:44:37Z</time>
      </trkpt>
      <trkpt lat="46.62479" lon="-1.87366">
        <ele>7.8</ele>
        <time>2020-06-03T15:44:38Z</time>
      </trkpt>
      <trkpt lat="46.62483" lon="-1.87365">
        <ele>7.7</ele>
        <time>2020-06-03T15:44:39Z</time>
      </trkpt>
      <trkpt lat="46.62487" lon="-1.87365">
        <ele>7.7</ele>
        <time>2020-06-03T15:44:40Z</time>
      </trkpt>
      <trkpt lat="46.62492" lon="-1.87365">
        <ele>7.6</ele>
        <time>2020-06-03T15:44:41Z</time>
      </trkpt>
      <trkpt lat="46.62496" lon="-1.87364">
        <ele>7.5</ele>
        <time>2020-06-03T15:44:42Z</time>
      </trkpt>
      <trkpt lat="46.62501" lon="-1.87363">
        <ele>7.5</ele>
        <time>2020-06-03T15:44:43Z</time>
      </trkpt>
      <trkpt lat="46.62506" lon="-1.87363">
        <ele>7.4</ele>
        <time>2020-06-03T15:44:44Z</time>
      </trkpt>
      <trkpt lat="46.62511" lon="-1.87364">
        <ele>7.3</ele>
        <time>2020-06-03T15:44:45Z</time>
      </trkpt>
      <trkpt lat="46.62516" lon="-1.87365">
        <ele>7.2</ele>
        <time>2020-06-03T15:44:46Z</time>
      </trkpt>
      <trkpt lat="46.62521" lon="-1.87366">
        <ele>7.2</ele>
        <time>2020-06-03T15:44:47Z</time>
      </trkpt>
      <trkpt lat="46.62526" lon="-1.87367">
        <ele>7.1</ele>
        <time>2020-06-03T15:44:48Z</time>
      </trkpt>
      <trkpt lat="46.6253" lon="-1.87368">
        <ele>7.1</ele>
        <time>2020-06-03T15:44:49Z</time>
      </trkpt>
      <trkpt lat="46.62534" lon="-1.87369">
        <ele>7</ele>
        <time>2020-06-03T15:44:50Z</time>
      </trkpt>
      <trkpt lat="46.62538" lon="-1.87368">
        <ele>7</ele>
        <time>2020-06-03T15:44:51Z</time>
      </trkpt>
      <trkpt lat="46.62542" lon="-1.87368">
        <ele>6.9</ele>
        <time>2020-06-03T15:44:52Z</time>
      </trkpt>
      <trkpt lat="46.62546" lon="-1.87369">
        <ele>6.9</ele>
        <time>2020-06-03T15:44:53Z</time>
      </trkpt>
      <trkpt lat="46.6255" lon="-1.8737">
        <ele>6.8</ele>
        <time>2020-06-03T15:44:54Z</time>
      </trkpt>
      <trkpt lat="46.62554" lon="-1.87371">
        <ele>6.8</ele>
        <time>2020-06-03T15:44:55Z</time>
      </trkpt>
      <trkpt lat="46.62558" lon="-1.87371">
        <ele>6.8</ele>
        <time>2020-06-03T15:44:56Z</time>
      </trkpt>
      <trkpt lat="46.62562" lon="-1.8737">
        <ele>6.8</ele>
        <time>2020-06-03T15:44:57Z</time>
      </trkpt>
      <trkpt lat="46.62565" lon="-1.8737">
        <ele>6.7</ele>
        <time>2020-06-03T15:44:58Z</time>
      </trkpt>
      <trkpt lat="46.62568" lon="-1.87369">
        <ele>6.7</ele>
        <time>2020-06-03T15:44:59Z</time>
      </trkpt>
      <trkpt lat="46.62571" lon="-1.87368">
        <ele>6.7</ele>
        <time>2020-06-03T15:45:00Z</time>
      </trkpt>
      <trkpt lat="46.62574" lon="-1.87367">
        <ele>6.6</ele>
        <time>2020-06-03T15:45:01Z</time>
      </trkpt>
      <trkpt lat="46.62577" lon="-1.87365">
        <ele>6.6</ele>
        <time>2020-06-03T15:45:02Z</time>
      </trkpt>
      <trkpt lat="46.6258" lon="-1.87362">
        <ele>6.6</ele>
        <time>2020-06-03T15:45:03Z</time>
      </trkpt>
      <trkpt lat="46.62583" lon="-1.87361">
        <ele>6.5</ele>
        <time>2020-06-03T15:45:04Z</time>
      </trkpt>
      <trkpt lat="46.62586" lon="-1.8736">
        <ele>6.5</ele>
        <time>2020-06-03T15:45:05Z</time>
      </trkpt>
      <trkpt lat="46.62589" lon="-1.87359">
        <ele>6.5</ele>
        <time>2020-06-03T15:45:06Z</time>
      </trkpt>
      <trkpt lat="46.62593" lon="-1.87356">
        <ele>6.5</ele>
        <time>2020-06-03T15:45:07Z</time>
      </trkpt>
      <trkpt lat="46.62596" lon="-1.87354">
        <ele>6.4</ele>
        <time>2020-06-03T15:45:08Z</time>
      </trkpt>
      <trkpt lat="46.626" lon="-1.87352">
        <ele>6.4</ele>
        <time>2020-06-03T15:45:09Z</time>
      </trkpt>
      <trkpt lat="46.62604" lon="-1.8735">
        <ele>6.4</ele>
        <time>2020-06-03T15:45:10Z</time>
      </trkpt>
      <trkpt lat="46.62609" lon="-1.87347">
        <ele>6.3</ele>
        <time>2020-06-03T15:45:11Z</time>
      </trkpt>
      <trkpt lat="46.62613" lon="-1.87345">
        <ele>6.3</ele>
        <time>2020-06-03T15:45:12Z</time>
      </trkpt>
      <trkpt lat="46.62617" lon="-1.87343">
        <ele>6.3</ele>
        <time>2020-06-03T15:45:13Z</time>
      </trkpt>
      <trkpt lat="46.62622" lon="-1.87343">
        <ele>6.4</ele>
        <time>2020-06-03T15:45:14Z</time>
      </trkpt>
      <trkpt lat="46.62627" lon="-1.87343">
        <ele>6.4</ele>
        <time>2020-06-03T15:45:15Z</time>
      </trkpt>
      <trkpt lat="46.62631" lon="-1.87346">
        <ele>6.5</ele>
        <time>2020-06-03T15:45:16Z</time>
      </trkpt>
      <trkpt lat="46.62634" lon="-1.87347">
        <ele>6.6</ele>
        <time>2020-06-03T15:45:17Z</time>
      </trkpt>
      <trkpt lat="46.62639" lon="-1.8735">
        <ele>6.7</ele>
        <time>2020-06-03T15:45:18Z</time>
      </trkpt>
      <trkpt lat="46.62644" lon="-1.87354">
        <ele>6.9</ele>
        <time>2020-06-03T15:45:19Z</time>
      </trkpt>
      <trkpt lat="46.62649" lon="-1.87356">
        <ele>7.1</ele>
        <time>2020-06-03T15:45:20Z</time>
      </trkpt>
      <trkpt lat="46.62655" lon="-1.87358">
        <ele>7.2</ele>
        <time>2020-06-03T15:45:21Z</time>
      </trkpt>
      <trkpt lat="46.62661" lon="-1.87359">
        <ele>7.3</ele>
        <time>2020-06-03T15:45:22Z</time>
      </trkpt>
      <trkpt lat="46.62666" lon="-1.8736">
        <ele>7.3</ele>
        <time>2020-06-03T15:45:23Z</time>
      </trkpt>
      <trkpt lat="46.62671" lon="-1.87362">
        <ele>7.4</ele>
        <time>2020-06-03T15:45:24Z</time>
      </trkpt>
      <trkpt lat="46.62676" lon="-1.87366">
        <ele>7.5</ele>
        <time>2020-06-03T15:45:25Z</time>
      </trkpt>
      <trkpt lat="46.6268" lon="-1.87369">
        <ele>7.7</ele>
        <time>2020-06-03T15:45:26Z</time>
      </trkpt>
      <trkpt lat="46.62684" lon="-1.87375">
        <ele>7.8</ele>
        <time>2020-06-03T15:45:27Z</time>
      </trkpt>
      <trkpt lat="46.62688" lon="-1.87383">
        <ele>8</ele>
        <time>2020-06-03T15:45:28Z</time>
      </trkpt>
      <trkpt lat="46.62691" lon="-1.8739">
        <ele>8</ele>
        <time>2020-06-03T15:45:29Z</time>
      </trkpt>
      <trkpt lat="46.62693" lon="-1.87396">
        <ele>8.1</ele>
        <time>2020-06-03T15:45:30Z</time>
      </trkpt>
      <trkpt lat="46.62696" lon="-1.87402">
        <ele>8.1</ele>
        <time>2020-06-03T15:45:31Z</time>
      </trkpt>
      <trkpt lat="46.62699" lon="-1.87406">
        <ele>8.1</ele>
        <time>2020-06-03T15:45:32Z</time>
      </trkpt>
      <trkpt lat="46.62702" lon="-1.87411">
        <ele>8.1</ele>
        <time>2020-06-03T15:45:33Z</time>
      </trkpt>
      <trkpt lat="46.62706" lon="-1.87415">
        <ele>8.2</ele>
        <time>2020-06-03T15:45:34Z</time>
      </trkpt>
      <trkpt lat="46.62709" lon="-1.87418">
        <ele>8.2</ele>
        <time>2020-06-03T15:45:35Z</time>
      </trkpt>
      <trkpt lat="46.62713" lon="-1.87422">
        <ele>8.3</ele>
        <time>2020-06-03T15:45:36Z</time>
      </trkpt>
      <trkpt lat="46.62717" lon="-1.87426">
        <ele>8.4</ele>
        <time>2020-06-03T15:45:37Z</time>
      </trkpt>
      <trkpt lat="46.62722" lon="-1.87428">
        <ele>8.4</ele>
        <time>2020-06-03T15:45:38Z</time>
      </trkpt>
      <trkpt lat="46.62726" lon="-1.87431">
        <ele>8.5</ele>
        <time>2020-06-03T15:45:39Z</time>
      </trkpt>
      <trkpt lat="46.62731" lon="-1.87434">
        <ele>8.5</ele>
        <time>2020-06-03T15:45:40Z</time>
      </trkpt>
      <trkpt lat="46.62736" lon="-1.87437">
        <ele>8.6</ele>
        <time>2020-06-03T15:45:41Z</time>
      </trkpt>
      <trkpt lat="46.62741" lon="-1.8744">
        <ele>8.6</ele>
        <time>2020-06-03T15:45:42Z</time>
      </trkpt>
      <trkpt lat="46.62745" lon="-1.87443">
        <ele>8.6</ele>
        <time>2020-06-03T15:45:43Z</time>
      </trkpt>
      <trkpt lat="46.6275" lon="-1.87444">
        <ele>8.7</ele>
        <time>2020-06-03T15:45:44Z</time>
      </trkpt>
      <trkpt lat="46.62754" lon="-1.87446">
        <ele>8.7</ele>
        <time>2020-06-03T15:45:45Z</time>
      </trkpt>
      <trkpt lat="46.62759" lon="-1.87449">
        <ele>8.7</ele>
        <time>2020-06-03T15:45:46Z</time>
      </trkpt>
      <trkpt lat="46.62764" lon="-1.87451">
        <ele>8.7</ele>
        <time>2020-06-03T15:45:47Z</time>
      </trkpt>
      <trkpt lat="46.62769" lon="-1.87454">
        <ele>8.7</ele>
        <time>2020-06-03T15:45:48Z</time>
      </trkpt>
      <trkpt lat="46.62773" lon="-1.87456">
        <ele>8.7</ele>
        <time>2020-06-03T15:45:49Z</time>
      </trkpt>
      <trkpt lat="46.62777" lon="-1.87459">
        <ele>8.7</ele>
        <time>2020-06-03T15:45:50Z</time>
      </trkpt>
      <trkpt lat="46.62782" lon="-1.87461">
        <ele>8.7</ele>
        <time>2020-06-03T15:45:51Z</time>
      </trkpt>
      <trkpt lat="46.62786" lon="-1.87463">
        <ele>8.7</ele>
        <time>2020-06-03T15:45:52Z</time>
      </trkpt>
      <trkpt lat="46.62791" lon="-1.87465">
        <ele>8.7</ele>
        <time>2020-06-03T15:45:53Z</time>
      </trkpt>
      <trkpt lat="46.62794" lon="-1.87468">
        <ele>8.7</ele>
        <time>2020-06-03T15:45:54Z</time>
      </trkpt>
      <trkpt lat="46.62798" lon="-1.8747">
        <ele>8.7</ele>
        <time>2020-06-03T15:45:55Z</time>
      </trkpt>
      <trkpt lat="46.62802" lon="-1.87472">
        <ele>8.7</ele>
        <time>2020-06-03T15:45:56Z</time>
      </trkpt>
      <trkpt lat="46.62806" lon="-1.87475">
        <ele>8.8</ele>
        <time>2020-06-03T15:45:57Z</time>
      </trkpt>
      <trkpt lat="46.62811" lon="-1.87477">
        <ele>8.8</ele>
        <time>2020-06-03T15:45:58Z</time>
      </trkpt>
      <trkpt lat="46.62815" lon="-1.8748">
        <ele>8.8</ele>
        <time>2020-06-03T15:45:59Z</time>
      </trkpt>
      <trkpt lat="46.6282" lon="-1.87483">
        <ele>8.9</ele>
        <time>2020-06-03T15:46:00Z</time>
      </trkpt>
      <trkpt lat="46.62825" lon="-1.87486">
        <ele>8.9</ele>
        <time>2020-06-03T15:46:01Z</time>
      </trkpt>
      <trkpt lat="46.62829" lon="-1.87489">
        <ele>9</ele>
        <time>2020-06-03T15:46:02Z</time>
      </trkpt>
      <trkpt lat="46.62834" lon="-1.87493">
        <ele>9</ele>
        <time>2020-06-03T15:46:03Z</time>
      </trkpt>
      <trkpt lat="46.62838" lon="-1.87496">
        <ele>9.1</ele>
        <time>2020-06-03T15:46:04Z</time>
      </trkpt>
      <trkpt lat="46.62841" lon="-1.875">
        <ele>9.1</ele>
        <time>2020-06-03T15:46:05Z</time>
      </trkpt>
      <trkpt lat="46.62845" lon="-1.87504">
        <ele>9.1</ele>
        <time>2020-06-03T15:46:06Z</time>
      </trkpt>
      <trkpt lat="46.62849" lon="-1.87508">
        <ele>9.2</ele>
        <time>2020-06-03T15:46:07Z</time>
      </trkpt>
      <trkpt lat="46.62853" lon="-1.87512">
        <ele>9.2</ele>
        <time>2020-06-03T15:46:08Z</time>
      </trkpt>
      <trkpt lat="46.62856" lon="-1.87518">
        <ele>9.3</ele>
        <time>2020-06-03T15:46:09Z</time>
      </trkpt>
      <trkpt lat="46.6286" lon="-1.87523">
        <ele>9.3</ele>
        <time>2020-06-03T15:46:10Z</time>
      </trkpt>
      <trkpt lat="46.62863" lon="-1.87529">
        <ele>9.4</ele>
        <time>2020-06-03T15:46:11Z</time>
      </trkpt>
      <trkpt lat="46.62865" lon="-1.87535">
        <ele>9.4</ele>
        <time>2020-06-03T15:46:12Z</time>
      </trkpt>
      <trkpt lat="46.62868" lon="-1.87541">
        <ele>9.5</ele>
        <time>2020-06-03T15:46:13Z</time>
      </trkpt>
      <trkpt lat="46.62871" lon="-1.87547">
        <ele>9.5</ele>
        <time>2020-06-03T15:46:14Z</time>
      </trkpt>
      <trkpt lat="46.62873" lon="-1.87554">
        <ele>9.6</ele>
        <time>2020-06-03T15:46:15Z</time>
      </trkpt>
      <trkpt lat="46.62875" lon="-1.87558">
        <ele>9.6</ele>
        <time>2020-06-03T15:46:16Z</time>
      </trkpt>
      <trkpt lat="46.62878" lon="-1.87562">
        <ele>9.6</ele>
        <time>2020-06-03T15:46:17Z</time>
      </trkpt>
      <trkpt lat="46.6288" lon="-1.87567">
        <ele>9.7</ele>
        <time>2020-06-03T15:46:18Z</time>
      </trkpt>
      <trkpt lat="46.62883" lon="-1.87572">
        <ele>9.7</ele>
        <time>2020-06-03T15:46:19Z</time>
      </trkpt>
      <trkpt lat="46.62884" lon="-1.87577">
        <ele>9.8</ele>
        <time>2020-06-03T15:46:20Z</time>
      </trkpt>
      <trkpt lat="46.62887" lon="-1.87582">
        <ele>9.8</ele>
        <time>2020-06-03T15:46:21Z</time>
      </trkpt>
      <trkpt lat="46.62889" lon="-1.87588">
        <ele>9.9</ele>
        <time>2020-06-03T15:46:22Z</time>
      </trkpt>
      <trkpt lat="46.62892" lon="-1.87592">
        <ele>9.9</ele>
        <time>2020-06-03T15:46:23Z</time>
      </trkpt>
      <trkpt lat="46.62894" lon="-1.87595">
        <ele>9.9</ele>
        <time>2020-06-03T15:46:24Z</time>
      </trkpt>
      <trkpt lat="46.62896" lon="-1.876">
        <ele>10</ele>
        <time>2020-06-03T15:46:25Z</time>
      </trkpt>
      <trkpt lat="46.62896" lon="-1.87602">
        <ele>10</ele>
        <time>2020-06-03T15:46:26Z</time>
      </trkpt>
      <trkpt lat="46.62895" lon="-1.87607">
        <ele>9.6</ele>
        <time>2020-06-03T15:46:27Z</time>
      </trkpt>
      <trkpt lat="46.62893" lon="-1.87611">
        <ele>9.6</ele>
        <time>2020-06-03T15:46:28Z</time>
      </trkpt>
      <trkpt lat="46.6289" lon="-1.87616">
        <ele>9.7</ele>
        <time>2020-06-03T15:46:29Z</time>
      </trkpt>
      <trkpt lat="46.62888" lon="-1.87621">
        <ele>9.7</ele>
        <time>2020-06-03T15:46:30Z</time>
      </trkpt>
      <trkpt lat="46.62887" lon="-1.87625">
        <ele>9.8</ele>
        <time>2020-06-03T15:46:31Z</time>
      </trkpt>
      <trkpt lat="46.62887" lon="-1.8763">
        <ele>9.8</ele>
        <time>2020-06-03T15:46:32Z</time>
      </trkpt>
      <trkpt lat="46.62888" lon="-1.87635">
        <ele>9.9</ele>
        <time>2020-06-03T15:46:33Z</time>
      </trkpt>
      <trkpt lat="46.6289" lon="-1.8764">
        <ele>10</ele>
        <time>2020-06-03T15:46:34Z</time>
      </trkpt>
      <trkpt lat="46.62892" lon="-1.87646">
        <ele>10.1</ele>
        <time>2020-06-03T15:46:35Z</time>
      </trkpt>
      <trkpt lat="46.62895" lon="-1.87651">
        <ele>10.2</ele>
        <time>2020-06-03T15:46:36Z</time>
      </trkpt>
      <trkpt lat="46.62897" lon="-1.87658">
        <ele>10.2</ele>
        <time>2020-06-03T15:46:37Z</time>
      </trkpt>
      <trkpt lat="46.62899" lon="-1.87663">
        <ele>10.3</ele>
        <time>2020-06-03T15:46:38Z</time>
      </trkpt>
      <trkpt lat="46.62902" lon="-1.87668">
        <ele>10.3</ele>
        <time>2020-06-03T15:46:39Z</time>
      </trkpt>
      <trkpt lat="46.62905" lon="-1.87673">
        <ele>10.3</ele>
        <time>2020-06-03T15:46:40Z</time>
      </trkpt>
      <trkpt lat="46.62907" lon="-1.87677">
        <ele>10.4</ele>
        <time>2020-06-03T15:46:41Z</time>
      </trkpt>
      <trkpt lat="46.6291" lon="-1.87682">
        <ele>10.4</ele>
        <time>2020-06-03T15:46:42Z</time>
      </trkpt>
      <trkpt lat="46.62914" lon="-1.87686">
        <ele>10.5</ele>
        <time>2020-06-03T15:46:43Z</time>
      </trkpt>
      <trkpt lat="46.62917" lon="-1.8769">
        <ele>10.6</ele>
        <time>2020-06-03T15:46:44Z</time>
      </trkpt>
      <trkpt lat="46.62921" lon="-1.87694">
        <ele>10.6</ele>
        <time>2020-06-03T15:46:45Z</time>
      </trkpt>
      <trkpt lat="46.62924" lon="-1.87699">
        <ele>10.7</ele>
        <time>2020-06-03T15:46:46Z</time>
      </trkpt>
      <trkpt lat="46.62927" lon="-1.87703">
        <ele>10.7</ele>
        <time>2020-06-03T15:46:47Z</time>
      </trkpt>
      <trkpt lat="46.6293" lon="-1.87706">
        <ele>10.8</ele>
        <time>2020-06-03T15:46:48Z</time>
      </trkpt>
      <trkpt lat="46.62933" lon="-1.87709">
        <ele>10.8</ele>
        <time>2020-06-03T15:46:49Z</time>
      </trkpt>
      <trkpt lat="46.62936" lon="-1.87711">
        <ele>10.9</ele>
        <time>2020-06-03T15:46:50Z</time>
      </trkpt>
      <trkpt lat="46.6294" lon="-1.8771">
        <ele>11.1</ele>
        <time>2020-06-03T15:46:51Z</time>
      </trkpt>
      <trkpt lat="46.62944" lon="-1.8771">
        <ele>11.2</ele>
        <time>2020-06-03T15:46:52Z</time>
      </trkpt>
      <trkpt lat="46.62947" lon="-1.8771">
        <ele>11.3</ele>
        <time>2020-06-03T15:46:53Z</time>
      </trkpt>
      <trkpt lat="46.6295" lon="-1.87711">
        <ele>11.4</ele>
        <time>2020-06-03T15:46:54Z</time>
      </trkpt>
      <trkpt lat="46.62954" lon="-1.87713">
        <ele>11.5</ele>
        <time>2020-06-03T15:46:55Z</time>
      </trkpt>
      <trkpt lat="46.62957" lon="-1.87717">
        <ele>11.7</ele>
        <time>2020-06-03T15:46:56Z</time>
      </trkpt>
      <trkpt lat="46.6296" lon="-1.87721">
        <ele>11.8</ele>
        <time>2020-06-03T15:46:57Z</time>
      </trkpt>
      <trkpt lat="46.62962" lon="-1.87726">
        <ele>11.9</ele>
        <time>2020-06-03T15:46:58Z</time>
      </trkpt>
      <trkpt lat="46.62964" lon="-1.87731">
        <ele>12</ele>
        <time>2020-06-03T15:46:59Z</time>
      </trkpt>
      <trkpt lat="46.62967" lon="-1.87736">
        <ele>12.1</ele>
        <time>2020-06-03T15:47:00Z</time>
      </trkpt>
      <trkpt lat="46.6297" lon="-1.8774">
        <ele>12.2</ele>
        <time>2020-06-03T15:47:01Z</time>
      </trkpt>
      <trkpt lat="46.62972" lon="-1.87746">
        <ele>12.3</ele>
        <time>2020-06-03T15:47:02Z</time>
      </trkpt>
      <trkpt lat="46.62975" lon="-1.87752">
        <ele>12.4</ele>
        <time>2020-06-03T15:47:03Z</time>
      </trkpt>
      <trkpt lat="46.62978" lon="-1.87759">
        <ele>12.6</ele>
        <time>2020-06-03T15:47:04Z</time>
      </trkpt>
      <trkpt lat="46.62981" lon="-1.87764">
        <ele>12.5</ele>
        <time>2020-06-03T15:47:05Z</time>
      </trkpt>
      <trkpt lat="46.62983" lon="-1.8777">
        <ele>12.5</ele>
        <time>2020-06-03T15:47:06Z</time>
      </trkpt>
      <trkpt lat="46.62986" lon="-1.87776">
        <ele>12.6</ele>
        <time>2020-06-03T15:47:07Z</time>
      </trkpt>
      <trkpt lat="46.62988" lon="-1.87782">
        <ele>12.6</ele>
        <time>2020-06-03T15:47:08Z</time>
      </trkpt>
      <trkpt lat="46.6299" lon="-1.87787">
        <ele>12.6</ele>
        <time>2020-06-03T15:47:09Z</time>
      </trkpt>
      <trkpt lat="46.62993" lon="-1.87793">
        <ele>12.6</ele>
        <time>2020-06-03T15:47:10Z</time>
      </trkpt>
      <trkpt lat="46.62996" lon="-1.87798">
        <ele>12.6</ele>
        <time>2020-06-03T15:47:11Z</time>
      </trkpt>
      <trkpt lat="46.62998" lon="-1.87804">
        <ele>12.7</ele>
        <time>2020-06-03T15:47:12Z</time>
      </trkpt>
      <trkpt lat="46.63" lon="-1.87809">
        <ele>12.7</ele>
        <time>2020-06-03T15:47:13Z</time>
      </trkpt>
      <trkpt lat="46.63001" lon="-1.87815">
        <ele>12.7</ele>
        <time>2020-06-03T15:47:14Z</time>
      </trkpt>
      <trkpt lat="46.63003" lon="-1.87821">
        <ele>12.7</ele>
        <time>2020-06-03T15:47:15Z</time>
      </trkpt>
      <trkpt lat="46.63005" lon="-1.87826">
        <ele>12.7</ele>
        <time>2020-06-03T15:47:16Z</time>
      </trkpt>
      <trkpt lat="46.63008" lon="-1.87831">
        <ele>12.8</ele>
        <time>2020-06-03T15:47:17Z</time>
      </trkpt>
      <trkpt lat="46.63009" lon="-1.87837">
        <ele>12.8</ele>
        <time>2020-06-03T15:47:18Z</time>
      </trkpt>
      <trkpt lat="46.6301" lon="-1.87843">
        <ele>12.8</ele>
        <time>2020-06-03T15:47:19Z</time>
      </trkpt>
      <trkpt lat="46.63011" lon="-1.8785">
        <ele>12.9</ele>
        <time>2020-06-03T15:47:20Z</time>
      </trkpt>
      <trkpt lat="46.63012" lon="-1.87857">
        <ele>13</ele>
        <time>2020-06-03T15:47:21Z</time>
      </trkpt>
      <trkpt lat="46.63013" lon="-1.87866">
        <ele>13.1</ele>
        <time>2020-06-03T15:47:22Z</time>
      </trkpt>
      <trkpt lat="46.63015" lon="-1.87874">
        <ele>13.3</ele>
        <time>2020-06-03T15:47:23Z</time>
      </trkpt>
      <trkpt lat="46.63017" lon="-1.87881">
        <ele>13.4</ele>
        <time>2020-06-03T15:47:24Z</time>
      </trkpt>
      <trkpt lat="46.6302" lon="-1.87888">
        <ele>13.6</ele>
        <time>2020-06-03T15:47:25Z</time>
      </trkpt>
      <trkpt lat="46.63022" lon="-1.87895">
        <ele>13.7</ele>
        <time>2020-06-03T15:47:26Z</time>
      </trkpt>
      <trkpt lat="46.63023" lon="-1.87901">
        <ele>13.8</ele>
        <time>2020-06-03T15:47:27Z</time>
      </trkpt>
      <trkpt lat="46.63026" lon="-1.87908">
        <ele>13.9</ele>
        <time>2020-06-03T15:47:28Z</time>
      </trkpt>
      <trkpt lat="46.63027" lon="-1.87914">
        <ele>14</ele>
        <time>2020-06-03T15:47:29Z</time>
      </trkpt>
      <trkpt lat="46.63029" lon="-1.87921">
        <ele>14.1</ele>
        <time>2020-06-03T15:47:30Z</time>
      </trkpt>
      <trkpt lat="46.63031" lon="-1.87927">
        <ele>14.2</ele>
        <time>2020-06-03T15:47:31Z</time>
      </trkpt>
      <trkpt lat="46.63033" lon="-1.87933">
        <ele>14.2</ele>
        <time>2020-06-03T15:47:32Z</time>
      </trkpt>
      <trkpt lat="46.63035" lon="-1.87939">
        <ele>14.3</ele>
        <time>2020-06-03T15:47:33Z</time>
      </trkpt>
      <trkpt lat="46.63037" lon="-1.87946">
        <ele>14.3</ele>
        <time>2020-06-03T15:47:34Z</time>
      </trkpt>
      <trkpt lat="46.63039" lon="-1.87951">
        <ele>14.3</ele>
        <time>2020-06-03T15:47:35Z</time>
      </trkpt>
      <trkpt lat="46.63041" lon="-1.87957">
        <ele>14.3</ele>
        <time>2020-06-03T15:47:36Z</time>
      </trkpt>
      <trkpt lat="46.63043" lon="-1.87963">
        <ele>14.2</ele>
        <time>2020-06-03T15:47:37Z</time>
      </trkpt>
      <trkpt lat="46.63045" lon="-1.87968">
        <ele>14.2</ele>
        <time>2020-06-03T15:47:38Z</time>
      </trkpt>
      <trkpt lat="46.63047" lon="-1.87972">
        <ele>14.1</ele>
        <time>2020-06-03T15:47:39Z</time>
      </trkpt>
      <trkpt lat="46.6305" lon="-1.87978">
        <ele>14</ele>
        <time>2020-06-03T15:47:40Z</time>
      </trkpt>
      <trkpt lat="46.63052" lon="-1.87983">
        <ele>14</ele>
        <time>2020-06-03T15:47:41Z</time>
      </trkpt>
      <trkpt lat="46.63053" lon="-1.87988">
        <ele>13.9</ele>
        <time>2020-06-03T15:47:42Z</time>
      </trkpt>
      <trkpt lat="46.63055" lon="-1.87995">
        <ele>13.9</ele>
        <time>2020-06-03T15:47:43Z</time>
      </trkpt>
      <trkpt lat="46.63057" lon="-1.88001">
        <ele>13.9</ele>
        <time>2020-06-03T15:47:44Z</time>
      </trkpt>
      <trkpt lat="46.6306" lon="-1.88006">
        <ele>13.8</ele>
        <time>2020-06-03T15:47:45Z</time>
      </trkpt>
      <trkpt lat="46.63062" lon="-1.88012">
        <ele>13.7</ele>
        <time>2020-06-03T15:47:46Z</time>
      </trkpt>
      <trkpt lat="46.63066" lon="-1.88017">
        <ele>13.6</ele>
        <time>2020-06-03T15:47:47Z</time>
      </trkpt>
      <trkpt lat="46.6307" lon="-1.88022">
        <ele>13.4</ele>
        <time>2020-06-03T15:47:48Z</time>
      </trkpt>
      <trkpt lat="46.63073" lon="-1.88027">
        <ele>13.3</ele>
        <time>2020-06-03T15:47:49Z</time>
      </trkpt>
      <trkpt lat="46.63078" lon="-1.88032">
        <ele>13.2</ele>
        <time>2020-06-03T15:47:50Z</time>
      </trkpt>
      <trkpt lat="46.63082" lon="-1.88037">
        <ele>13</ele>
        <time>2020-06-03T15:47:51Z</time>
      </trkpt>
      <trkpt lat="46.63087" lon="-1.88043">
        <ele>12.9</ele>
        <time>2020-06-03T15:47:52Z</time>
      </trkpt>
      <trkpt lat="46.63092" lon="-1.88049">
        <ele>12.7</ele>
        <time>2020-06-03T15:47:53Z</time>
      </trkpt>
      <trkpt lat="46.63097" lon="-1.88054">
        <ele>12.5</ele>
        <time>2020-06-03T15:47:54Z</time>
      </trkpt>
      <trkpt lat="46.63101" lon="-1.88058">
        <ele>12.3</ele>
        <time>2020-06-03T15:47:55Z</time>
      </trkpt>
      <trkpt lat="46.63106" lon="-1.88063">
        <ele>12.2</ele>
        <time>2020-06-03T15:47:56Z</time>
      </trkpt>
      <trkpt lat="46.6311" lon="-1.88067">
        <ele>12</ele>
        <time>2020-06-03T15:47:57Z</time>
      </trkpt>
      <trkpt lat="46.63114" lon="-1.88073">
        <ele>11.8</ele>
        <time>2020-06-03T15:47:58Z</time>
      </trkpt>
      <trkpt lat="46.63117" lon="-1.88078">
        <ele>11.7</ele>
        <time>2020-06-03T15:47:59Z</time>
      </trkpt>
      <trkpt lat="46.6312" lon="-1.88084">
        <ele>11.6</ele>
        <time>2020-06-03T15:48:00Z</time>
      </trkpt>
      <trkpt lat="46.63123" lon="-1.88089">
        <ele>11.4</ele>
        <time>2020-06-03T15:48:01Z</time>
      </trkpt>
      <trkpt lat="46.63126" lon="-1.88096">
        <ele>11.3</ele>
        <time>2020-06-03T15:48:02Z</time>
      </trkpt>
      <trkpt lat="46.63129" lon="-1.88103">
        <ele>11.1</ele>
        <time>2020-06-03T15:48:03Z</time>
      </trkpt>
      <trkpt lat="46.6313" lon="-1.88112">
        <ele>10.9</ele>
        <time>2020-06-03T15:48:04Z</time>
      </trkpt>
      <trkpt lat="46.6313" lon="-1.88121">
        <ele>10.7</ele>
        <time>2020-06-03T15:48:05Z</time>
      </trkpt>
      <trkpt lat="46.6313" lon="-1.8813">
        <ele>10.5</ele>
        <time>2020-06-03T15:48:06Z</time>
      </trkpt>
      <trkpt lat="46.63131" lon="-1.88137">
        <ele>10.4</ele>
        <time>2020-06-03T15:48:07Z</time>
      </trkpt>
      <trkpt lat="46.63132" lon="-1.88144">
        <ele>10.2</ele>
        <time>2020-06-03T15:48:08Z</time>
      </trkpt>
      <trkpt lat="46.63133" lon="-1.88151">
        <ele>10.1</ele>
        <time>2020-06-03T15:48:09Z</time>
      </trkpt>
      <trkpt lat="46.63134" lon="-1.88158">
        <ele>9.9</ele>
        <time>2020-06-03T15:48:10Z</time>
      </trkpt>
      <trkpt lat="46.63136" lon="-1.88167">
        <ele>9.8</ele>
        <time>2020-06-03T15:48:11Z</time>
      </trkpt>
      <trkpt lat="46.63136" lon="-1.88175">
        <ele>9.6</ele>
        <time>2020-06-03T15:48:12Z</time>
      </trkpt>
      <trkpt lat="46.63136" lon="-1.88183">
        <ele>9.4</ele>
        <time>2020-06-03T15:48:13Z</time>
      </trkpt>
      <trkpt lat="46.63136" lon="-1.88191">
        <ele>9.3</ele>
        <time>2020-06-03T15:48:14Z</time>
      </trkpt>
      <trkpt lat="46.63137" lon="-1.88199">
        <ele>9.2</ele>
        <time>2020-06-03T15:48:15Z</time>
      </trkpt>
      <trkpt lat="46.63139" lon="-1.88207">
        <ele>9.2</ele>
        <time>2020-06-03T15:48:16Z</time>
      </trkpt>
      <trkpt lat="46.63141" lon="-1.88214">
        <ele>9.1</ele>
        <time>2020-06-03T15:48:17Z</time>
      </trkpt>
      <trkpt lat="46.63143" lon="-1.8822">
        <ele>9.1</ele>
        <time>2020-06-03T15:48:18Z</time>
      </trkpt>
      <trkpt lat="46.63146" lon="-1.88225">
        <ele>9.1</ele>
        <time>2020-06-03T15:48:19Z</time>
      </trkpt>
      <trkpt lat="46.63149" lon="-1.88229">
        <ele>9.1</ele>
        <time>2020-06-03T15:48:20Z</time>
      </trkpt>
      <trkpt lat="46.63152" lon="-1.88232">
        <ele>9</ele>
        <time>2020-06-03T15:48:21Z</time>
      </trkpt>
      <trkpt lat="46.63155" lon="-1.88236">
        <ele>9</ele>
        <time>2020-06-03T15:48:22Z</time>
      </trkpt>
      <trkpt lat="46.63157" lon="-1.88241">
        <ele>9</ele>
        <time>2020-06-03T15:48:23Z</time>
      </trkpt>
      <trkpt lat="46.6316" lon="-1.88248">
        <ele>9</ele>
        <time>2020-06-03T15:48:24Z</time>
      </trkpt>
      <trkpt lat="46.63162" lon="-1.88253">
        <ele>9</ele>
        <time>2020-06-03T15:48:25Z</time>
      </trkpt>
      <trkpt lat="46.63163" lon="-1.88259">
        <ele>8.9</ele>
        <time>2020-06-03T15:48:26Z</time>
      </trkpt>
      <trkpt lat="46.63164" lon="-1.88265">
        <ele>8.9</ele>
        <time>2020-06-03T15:48:27Z</time>
      </trkpt>
      <trkpt lat="46.63166" lon="-1.88272">
        <ele>8.9</ele>
        <time>2020-06-03T15:48:28Z</time>
      </trkpt>
      <trkpt lat="46.63167" lon="-1.88279">
        <ele>8.9</ele>
        <time>2020-06-03T15:48:29Z</time>
      </trkpt>
      <trkpt lat="46.63169" lon="-1.88286">
        <ele>8.9</ele>
        <time>2020-06-03T15:48:30Z</time>
      </trkpt>
      <trkpt lat="46.6317" lon="-1.88293">
        <ele>8.9</ele>
        <time>2020-06-03T15:48:31Z</time>
      </trkpt>
      <trkpt lat="46.6317" lon="-1.88299">
        <ele>8.9</ele>
        <time>2020-06-03T15:48:32Z</time>
      </trkpt>
      <trkpt lat="46.6317" lon="-1.88305">
        <ele>8.9</ele>
        <time>2020-06-03T15:48:33Z</time>
      </trkpt>
      <trkpt lat="46.6317" lon="-1.88312">
        <ele>9</ele>
        <time>2020-06-03T15:48:34Z</time>
      </trkpt>
      <trkpt lat="46.63171" lon="-1.88319">
        <ele>9</ele>
        <time>2020-06-03T15:48:35Z</time>
      </trkpt>
      <trkpt lat="46.63172" lon="-1.88325">
        <ele>9</ele>
        <time>2020-06-03T15:48:36Z</time>
      </trkpt>
      <trkpt lat="46.63172" lon="-1.88333">
        <ele>9.1</ele>
        <time>2020-06-03T15:48:37Z</time>
      </trkpt>
      <trkpt lat="46.63173" lon="-1.8834">
        <ele>9.1</ele>
        <time>2020-06-03T15:48:38Z</time>
      </trkpt>
      <trkpt lat="46.63173" lon="-1.88348">
        <ele>9.1</ele>
        <time>2020-06-03T15:48:39Z</time>
      </trkpt>
      <trkpt lat="46.63174" lon="-1.88355">
        <ele>9.1</ele>
        <time>2020-06-03T15:48:40Z</time>
      </trkpt>
      <trkpt lat="46.63173" lon="-1.88361">
        <ele>9.1</ele>
        <time>2020-06-03T15:48:41Z</time>
      </trkpt>
      <trkpt lat="46.63172" lon="-1.88368">
        <ele>9.1</ele>
        <time>2020-06-03T15:48:42Z</time>
      </trkpt>
      <trkpt lat="46.63172" lon="-1.88374">
        <ele>9.1</ele>
        <time>2020-06-03T15:48:43Z</time>
      </trkpt>
      <trkpt lat="46.63171" lon="-1.88382">
        <ele>9</ele>
        <time>2020-06-03T15:48:44Z</time>
      </trkpt>
      <trkpt lat="46.63171" lon="-1.88388">
        <ele>8.9</ele>
        <time>2020-06-03T15:48:45Z</time>
      </trkpt>
      <trkpt lat="46.6317" lon="-1.88394">
        <ele>8.8</ele>
        <time>2020-06-03T15:48:46Z</time>
      </trkpt>
      <trkpt lat="46.6317" lon="-1.88401">
        <ele>8.8</ele>
        <time>2020-06-03T15:48:47Z</time>
      </trkpt>
      <trkpt lat="46.63169" lon="-1.88408">
        <ele>8.7</ele>
        <time>2020-06-03T15:48:48Z</time>
      </trkpt>
      <trkpt lat="46.63169" lon="-1.88415">
        <ele>8.6</ele>
        <time>2020-06-03T15:48:49Z</time>
      </trkpt>
      <trkpt lat="46.63171" lon="-1.88422">
        <ele>8.5</ele>
        <time>2020-06-03T15:48:50Z</time>
      </trkpt>
      <trkpt lat="46.63172" lon="-1.88429">
        <ele>8.4</ele>
        <time>2020-06-03T15:48:51Z</time>
      </trkpt>
      <trkpt lat="46.63175" lon="-1.88435">
        <ele>8.3</ele>
        <time>2020-06-03T15:48:52Z</time>
      </trkpt>
      <trkpt lat="46.63178" lon="-1.88442">
        <ele>8.3</ele>
        <time>2020-06-03T15:48:53Z</time>
      </trkpt>
      <trkpt lat="46.63181" lon="-1.88448">
        <ele>8.2</ele>
        <time>2020-06-03T15:48:54Z</time>
      </trkpt>
      <trkpt lat="46.63185" lon="-1.88454">
        <ele>8.2</ele>
        <time>2020-06-03T15:48:55Z</time>
      </trkpt>
      <trkpt lat="46.63188" lon="-1.88461">
        <ele>8.2</ele>
        <time>2020-06-03T15:48:56Z</time>
      </trkpt>
      <trkpt lat="46.63192" lon="-1.88468">
        <ele>8.2</ele>
        <time>2020-06-03T15:48:57Z</time>
      </trkpt>
      <trkpt lat="46.63196" lon="-1.88474">
        <ele>8.2</ele>
        <time>2020-06-03T15:48:58Z</time>
      </trkpt>
      <trkpt lat="46.632" lon="-1.88479">
        <ele>8.2</ele>
        <time>2020-06-03T15:48:59Z</time>
      </trkpt>
      <trkpt lat="46.63204" lon="-1.88484">
        <ele>8.2</ele>
        <time>2020-06-03T15:49:00Z</time>
      </trkpt>
      <trkpt lat="46.63207" lon="-1.88489">
        <ele>8.1</ele>
        <time>2020-06-03T15:49:01Z</time>
      </trkpt>
      <trkpt lat="46.6321" lon="-1.88494">
        <ele>8.1</ele>
        <time>2020-06-03T15:49:02Z</time>
      </trkpt>
      <trkpt lat="46.63214" lon="-1.885">
        <ele>8</ele>
        <time>2020-06-03T15:49:03Z</time>
      </trkpt>
      <trkpt lat="46.63217" lon="-1.88507">
        <ele>7.9</ele>
        <time>2020-06-03T15:49:04Z</time>
      </trkpt>
      <trkpt lat="46.63219" lon="-1.88513">
        <ele>7.8</ele>
        <time>2020-06-03T15:49:05Z</time>
      </trkpt>
      <trkpt lat="46.63221" lon="-1.88518">
        <ele>7.8</ele>
        <time>2020-06-03T15:49:06Z</time>
      </trkpt>
      <trkpt lat="46.63224" lon="-1.88524">
        <ele>7.8</ele>
        <time>2020-06-03T15:49:07Z</time>
      </trkpt>
      <trkpt lat="46.63227" lon="-1.8853">
        <ele>7.7</ele>
        <time>2020-06-03T15:49:08Z</time>
      </trkpt>
      <trkpt lat="46.6323" lon="-1.88536">
        <ele>7.7</ele>
        <time>2020-06-03T15:49:09Z</time>
      </trkpt>
      <trkpt lat="46.63234" lon="-1.8854">
        <ele>7.7</ele>
        <time>2020-06-03T15:49:10Z</time>
      </trkpt>
      <trkpt lat="46.63238" lon="-1.88546">
        <ele>7.7</ele>
        <time>2020-06-03T15:49:11Z</time>
      </trkpt>
      <trkpt lat="46.63242" lon="-1.88551">
        <ele>7.7</ele>
        <time>2020-06-03T15:49:12Z</time>
      </trkpt>
      <trkpt lat="46.63247" lon="-1.88554">
        <ele>7.7</ele>
        <time>2020-06-03T15:49:13Z</time>
      </trkpt>
      <trkpt lat="46.63251" lon="-1.88558">
        <ele>7.7</ele>
        <time>2020-06-03T15:49:14Z</time>
      </trkpt>
      <trkpt lat="46.63255" lon="-1.88563">
        <ele>7.7</ele>
        <time>2020-06-03T15:49:15Z</time>
      </trkpt>
      <trkpt lat="46.63258" lon="-1.88568">
        <ele>7.7</ele>
        <time>2020-06-03T15:49:16Z</time>
      </trkpt>
      <trkpt lat="46.63262" lon="-1.88574">
        <ele>7.7</ele>
        <time>2020-06-03T15:49:17Z</time>
      </trkpt>
      <trkpt lat="46.63265" lon="-1.88581">
        <ele>7.7</ele>
        <time>2020-06-03T15:49:18Z</time>
      </trkpt>
      <trkpt lat="46.63269" lon="-1.88587">
        <ele>7.7</ele>
        <time>2020-06-03T15:49:19Z</time>
      </trkpt>
      <trkpt lat="46.63272" lon="-1.88592">
        <ele>7.7</ele>
        <time>2020-06-03T15:49:20Z</time>
      </trkpt>
      <trkpt lat="46.63274" lon="-1.88598">
        <ele>7.7</ele>
        <time>2020-06-03T15:49:21Z</time>
      </trkpt>
      <trkpt lat="46.63278" lon="-1.88604">
        <ele>7.7</ele>
        <time>2020-06-03T15:49:22Z</time>
      </trkpt>
      <trkpt lat="46.6328" lon="-1.88609">
        <ele>7.7</ele>
        <time>2020-06-03T15:49:23Z</time>
      </trkpt>
      <trkpt lat="46.63283" lon="-1.88615">
        <ele>7.7</ele>
        <time>2020-06-03T15:49:24Z</time>
      </trkpt>
      <trkpt lat="46.63286" lon="-1.88621">
        <ele>7.8</ele>
        <time>2020-06-03T15:49:25Z</time>
      </trkpt>
      <trkpt lat="46.63289" lon="-1.88627">
        <ele>7.8</ele>
        <time>2020-06-03T15:49:26Z</time>
      </trkpt>
      <trkpt lat="46.63291" lon="-1.88633">
        <ele>7.9</ele>
        <time>2020-06-03T15:49:27Z</time>
      </trkpt>
      <trkpt lat="46.63295" lon="-1.88639">
        <ele>7.9</ele>
        <time>2020-06-03T15:49:28Z</time>
      </trkpt>
      <trkpt lat="46.63298" lon="-1.88645">
        <ele>8</ele>
        <time>2020-06-03T15:49:29Z</time>
      </trkpt>
      <trkpt lat="46.63301" lon="-1.88651">
        <ele>8.1</ele>
        <time>2020-06-03T15:49:30Z</time>
      </trkpt>
      <trkpt lat="46.63305" lon="-1.88657">
        <ele>8.1</ele>
        <time>2020-06-03T15:49:31Z</time>
      </trkpt>
      <trkpt lat="46.63307" lon="-1.88663">
        <ele>8.2</ele>
        <time>2020-06-03T15:49:32Z</time>
      </trkpt>
      <trkpt lat="46.6331" lon="-1.88668">
        <ele>8.3</ele>
        <time>2020-06-03T15:49:33Z</time>
      </trkpt>
      <trkpt lat="46.63314" lon="-1.88673">
        <ele>8.4</ele>
        <time>2020-06-03T15:49:34Z</time>
      </trkpt>
      <trkpt lat="46.63317" lon="-1.88677">
        <ele>8.4</ele>
        <time>2020-06-03T15:49:35Z</time>
      </trkpt>
      <trkpt lat="46.63321" lon="-1.88682">
        <ele>8.5</ele>
        <time>2020-06-03T15:49:36Z</time>
      </trkpt>
      <trkpt lat="46.63325" lon="-1.88687">
        <ele>8.6</ele>
        <time>2020-06-03T15:49:37Z</time>
      </trkpt>
      <trkpt lat="46.63329" lon="-1.88691">
        <ele>8.6</ele>
        <time>2020-06-03T15:49:38Z</time>
      </trkpt>
      <trkpt lat="46.63333" lon="-1.88696">
        <ele>8.7</ele>
        <time>2020-06-03T15:49:39Z</time>
      </trkpt>
      <trkpt lat="46.63337" lon="-1.887">
        <ele>8.7</ele>
        <time>2020-06-03T15:49:40Z</time>
      </trkpt>
      <trkpt lat="46.6334" lon="-1.88705">
        <ele>8.8</ele>
        <time>2020-06-03T15:49:41Z</time>
      </trkpt>
      <trkpt lat="46.63344" lon="-1.88708">
        <ele>8.8</ele>
        <time>2020-06-03T15:49:42Z</time>
      </trkpt>
      <trkpt lat="46.63349" lon="-1.88712">
        <ele>8.9</ele>
        <time>2020-06-03T15:49:43Z</time>
      </trkpt>
      <trkpt lat="46.63354" lon="-1.88716">
        <ele>8.9</ele>
        <time>2020-06-03T15:49:44Z</time>
      </trkpt>
      <trkpt lat="46.63358" lon="-1.8872">
        <ele>9</ele>
        <time>2020-06-03T15:49:45Z</time>
      </trkpt>
      <trkpt lat="46.63363" lon="-1.88723">
        <ele>9.1</ele>
        <time>2020-06-03T15:49:46Z</time>
      </trkpt>
      <trkpt lat="46.63368" lon="-1.88727">
        <ele>9.1</ele>
        <time>2020-06-03T15:49:47Z</time>
      </trkpt>
      <trkpt lat="46.63372" lon="-1.88731">
        <ele>9.2</ele>
        <time>2020-06-03T15:49:48Z</time>
      </trkpt>
      <trkpt lat="46.63376" lon="-1.88734">
        <ele>9.2</ele>
        <time>2020-06-03T15:49:49Z</time>
      </trkpt>
      <trkpt lat="46.6338" lon="-1.88737">
        <ele>9.3</ele>
        <time>2020-06-03T15:49:50Z</time>
      </trkpt>
      <trkpt lat="46.63385" lon="-1.8874">
        <ele>9.3</ele>
        <time>2020-06-03T15:49:51Z</time>
      </trkpt>
      <trkpt lat="46.63389" lon="-1.88744">
        <ele>9.4</ele>
        <time>2020-06-03T15:49:52Z</time>
      </trkpt>
      <trkpt lat="46.63394" lon="-1.88748">
        <ele>9.4</ele>
        <time>2020-06-03T15:49:53Z</time>
      </trkpt>
      <trkpt lat="46.63398" lon="-1.88751">
        <ele>9.4</ele>
        <time>2020-06-03T15:49:54Z</time>
      </trkpt>
      <trkpt lat="46.63402" lon="-1.88755">
        <ele>9.5</ele>
        <time>2020-06-03T15:49:55Z</time>
      </trkpt>
      <trkpt lat="46.63405" lon="-1.88761">
        <ele>9.5</ele>
        <time>2020-06-03T15:49:56Z</time>
      </trkpt>
      <trkpt lat="46.63409" lon="-1.88766">
        <ele>9.5</ele>
        <time>2020-06-03T15:49:57Z</time>
      </trkpt>
      <trkpt lat="46.63412" lon="-1.88771">
        <ele>9.5</ele>
        <time>2020-06-03T15:49:58Z</time>
      </trkpt>
      <trkpt lat="46.63415" lon="-1.88777">
        <ele>9.5</ele>
        <time>2020-06-03T15:49:59Z</time>
      </trkpt>
      <trkpt lat="46.63418" lon="-1.88782">
        <ele>9.5</ele>
        <time>2020-06-03T15:50:00Z</time>
      </trkpt>
      <trkpt lat="46.6342" lon="-1.88788">
        <ele>9.6</ele>
        <time>2020-06-03T15:50:01Z</time>
      </trkpt>
      <trkpt lat="46.63424" lon="-1.88794">
        <ele>9.6</ele>
        <time>2020-06-03T15:50:02Z</time>
      </trkpt>
      <trkpt lat="46.63426" lon="-1.88799">
        <ele>9.6</ele>
        <time>2020-06-03T15:50:03Z</time>
      </trkpt>
      <trkpt lat="46.63429" lon="-1.88804">
        <ele>9.6</ele>
        <time>2020-06-03T15:50:04Z</time>
      </trkpt>
      <trkpt lat="46.63432" lon="-1.8881">
        <ele>9.6</ele>
        <time>2020-06-03T15:50:05Z</time>
      </trkpt>
      <trkpt lat="46.63435" lon="-1.88816">
        <ele>9.6</ele>
        <time>2020-06-03T15:50:06Z</time>
      </trkpt>
      <trkpt lat="46.63438" lon="-1.88823">
        <ele>9.6</ele>
        <time>2020-06-03T15:50:07Z</time>
      </trkpt>
      <trkpt lat="46.63441" lon="-1.88829">
        <ele>9.6</ele>
        <time>2020-06-03T15:50:08Z</time>
      </trkpt>
      <trkpt lat="46.63443" lon="-1.88836">
        <ele>9.5</ele>
        <time>2020-06-03T15:50:09Z</time>
      </trkpt>
      <trkpt lat="46.63445" lon="-1.88842">
        <ele>9.5</ele>
        <time>2020-06-03T15:50:10Z</time>
      </trkpt>
      <trkpt lat="46.63448" lon="-1.88848">
        <ele>9.4</ele>
        <time>2020-06-03T15:50:11Z</time>
      </trkpt>
      <trkpt lat="46.6345" lon="-1.88854">
        <ele>9.4</ele>
        <time>2020-06-03T15:50:12Z</time>
      </trkpt>
      <trkpt lat="46.63452" lon="-1.8886">
        <ele>9.3</ele>
        <time>2020-06-03T15:50:13Z</time>
      </trkpt>
      <trkpt lat="46.63455" lon="-1.88866">
        <ele>9.3</ele>
        <time>2020-06-03T15:50:14Z</time>
      </trkpt>
      <trkpt lat="46.63456" lon="-1.88872">
        <ele>9.2</ele>
        <time>2020-06-03T15:50:15Z</time>
      </trkpt>
      <trkpt lat="46.63457" lon="-1.88878">
        <ele>9.2</ele>
        <time>2020-06-03T15:50:16Z</time>
      </trkpt>
      <trkpt lat="46.63458" lon="-1.88885">
        <ele>9.1</ele>
        <time>2020-06-03T15:50:17Z</time>
      </trkpt>
      <trkpt lat="46.6346" lon="-1.88891">
        <ele>9.1</ele>
        <time>2020-06-03T15:50:18Z</time>
      </trkpt>
      <trkpt lat="46.63462" lon="-1.88898">
        <ele>9.1</ele>
        <time>2020-06-03T15:50:19Z</time>
      </trkpt>
      <trkpt lat="46.63465" lon="-1.88903">
        <ele>9</ele>
        <time>2020-06-03T15:50:20Z</time>
      </trkpt>
      <trkpt lat="46.63467" lon="-1.88909">
        <ele>9</ele>
        <time>2020-06-03T15:50:21Z</time>
      </trkpt>
      <trkpt lat="46.6347" lon="-1.88914">
        <ele>8.9</ele>
        <time>2020-06-03T15:50:22Z</time>
      </trkpt>
      <trkpt lat="46.63472" lon="-1.8892">
        <ele>8.9</ele>
        <time>2020-06-03T15:50:23Z</time>
      </trkpt>
      <trkpt lat="46.63474" lon="-1.88924">
        <ele>8.9</ele>
        <time>2020-06-03T15:50:24Z</time>
      </trkpt>
      <trkpt lat="46.63476" lon="-1.88928">
        <ele>8.8</ele>
        <time>2020-06-03T15:50:25Z</time>
      </trkpt>
      <trkpt lat="46.63479" lon="-1.88932">
        <ele>8.8</ele>
        <time>2020-06-03T15:50:26Z</time>
      </trkpt>
      <trkpt lat="46.6348" lon="-1.88935">
        <ele>8.8</ele>
        <time>2020-06-03T15:50:27Z</time>
      </trkpt>
      <trkpt lat="46.63482" lon="-1.8894">
        <ele>8.8</ele>
        <time>2020-06-03T15:50:28Z</time>
      </trkpt>
      <trkpt lat="46.63484" lon="-1.88944">
        <ele>8.8</ele>
        <time>2020-06-03T15:50:29Z</time>
      </trkpt>
      <trkpt lat="46.63487" lon="-1.88949">
        <ele>8.8</ele>
        <time>2020-06-03T15:50:30Z</time>
      </trkpt>
      <trkpt lat="46.63489" lon="-1.88954">
        <ele>8.9</ele>
        <time>2020-06-03T15:50:31Z</time>
      </trkpt>
      <trkpt lat="46.6349" lon="-1.88958">
        <ele>8.9</ele>
        <time>2020-06-03T15:50:32Z</time>
      </trkpt>
      <trkpt lat="46.63492" lon="-1.88963">
        <ele>8.9</ele>
        <time>2020-06-03T15:50:33Z</time>
      </trkpt>
      <trkpt lat="46.63493" lon="-1.88967">
        <ele>8.9</ele>
        <time>2020-06-03T15:50:34Z</time>
      </trkpt>
      <trkpt lat="46.63495" lon="-1.88972">
        <ele>9</ele>
        <time>2020-06-03T15:50:35Z</time>
      </trkpt>
      <trkpt lat="46.63497" lon="-1.88977">
        <ele>9</ele>
        <time>2020-06-03T15:50:36Z</time>
      </trkpt>
      <trkpt lat="46.63499" lon="-1.88982">
        <ele>9</ele>
        <time>2020-06-03T15:50:37Z</time>
      </trkpt>
      <trkpt lat="46.63502" lon="-1.88988">
        <ele>9.1</ele>
        <time>2020-06-03T15:50:38Z</time>
      </trkpt>
      <trkpt lat="46.63503" lon="-1.88993">
        <ele>9.1</ele>
        <time>2020-06-03T15:50:39Z</time>
      </trkpt>
      <trkpt lat="46.63505" lon="-1.88999">
        <ele>9</ele>
        <time>2020-06-03T15:50:40Z</time>
      </trkpt>
      <trkpt lat="46.63508" lon="-1.89005">
        <ele>9</ele>
        <time>2020-06-03T15:50:41Z</time>
      </trkpt>
      <trkpt lat="46.6351" lon="-1.89012">
        <ele>9</ele>
        <time>2020-06-03T15:50:42Z</time>
      </trkpt>
      <trkpt lat="46.63512" lon="-1.89018">
        <ele>9</ele>
        <time>2020-06-03T15:50:43Z</time>
      </trkpt>
      <trkpt lat="46.63514" lon="-1.89024">
        <ele>8.9</ele>
        <time>2020-06-03T15:50:44Z</time>
      </trkpt>
      <trkpt lat="46.63517" lon="-1.89031">
        <ele>8.9</ele>
        <time>2020-06-03T15:50:45Z</time>
      </trkpt>
      <trkpt lat="46.6352" lon="-1.89037">
        <ele>8.9</ele>
        <time>2020-06-03T15:50:46Z</time>
      </trkpt>
      <trkpt lat="46.63524" lon="-1.89043">
        <ele>8.9</ele>
        <time>2020-06-03T15:50:47Z</time>
      </trkpt>
      <trkpt lat="46.63527" lon="-1.89049">
        <ele>8.8</ele>
        <time>2020-06-03T15:50:48Z</time>
      </trkpt>
      <trkpt lat="46.63531" lon="-1.89055">
        <ele>8.8</ele>
        <time>2020-06-03T15:50:49Z</time>
      </trkpt>
      <trkpt lat="46.63535" lon="-1.89061">
        <ele>8.8</ele>
        <time>2020-06-03T15:50:50Z</time>
      </trkpt>
      <trkpt lat="46.6354" lon="-1.89067">
        <ele>8.8</ele>
        <time>2020-06-03T15:50:51Z</time>
      </trkpt>
      <trkpt lat="46.63544" lon="-1.89072">
        <ele>8.8</ele>
        <time>2020-06-03T15:50:52Z</time>
      </trkpt>
      <trkpt lat="46.63548" lon="-1.89077">
        <ele>8.8</ele>
        <time>2020-06-03T15:50:53Z</time>
      </trkpt>
      <trkpt lat="46.63552" lon="-1.89081">
        <ele>8.8</ele>
        <time>2020-06-03T15:50:54Z</time>
      </trkpt>
      <trkpt lat="46.63557" lon="-1.89085">
        <ele>8.9</ele>
        <time>2020-06-03T15:50:55Z</time>
      </trkpt>
      <trkpt lat="46.63561" lon="-1.89089">
        <ele>8.9</ele>
        <time>2020-06-03T15:50:56Z</time>
      </trkpt>
      <trkpt lat="46.63566" lon="-1.89092">
        <ele>9</ele>
        <time>2020-06-03T15:50:57Z</time>
      </trkpt>
      <trkpt lat="46.63571" lon="-1.89097">
        <ele>9</ele>
        <time>2020-06-03T15:50:58Z</time>
      </trkpt>
      <trkpt lat="46.63575" lon="-1.89101">
        <ele>9.1</ele>
        <time>2020-06-03T15:50:59Z</time>
      </trkpt>
      <trkpt lat="46.63579" lon="-1.89105">
        <ele>9.2</ele>
        <time>2020-06-03T15:51:00Z</time>
      </trkpt>
      <trkpt lat="46.63583" lon="-1.89109">
        <ele>9.2</ele>
        <time>2020-06-03T15:51:01Z</time>
      </trkpt>
      <trkpt lat="46.63586" lon="-1.89113">
        <ele>9.3</ele>
        <time>2020-06-03T15:51:02Z</time>
      </trkpt>
      <trkpt lat="46.63589" lon="-1.89115">
        <ele>9.3</ele>
        <time>2020-06-03T15:51:03Z</time>
      </trkpt>
      <trkpt lat="46.63592" lon="-1.89118">
        <ele>9.3</ele>
        <time>2020-06-03T15:51:04Z</time>
      </trkpt>
      <trkpt lat="46.63594" lon="-1.8912">
        <ele>9.3</ele>
        <time>2020-06-03T15:51:05Z</time>
      </trkpt>
      <trkpt lat="46.63597" lon="-1.89123">
        <ele>9.4</ele>
        <time>2020-06-03T15:51:06Z</time>
      </trkpt>
      <trkpt lat="46.63598" lon="-1.89124">
        <ele>9.4</ele>
        <time>2020-06-03T15:51:07Z</time>
      </trkpt>
      <trkpt lat="46.63599" lon="-1.89126">
        <ele>9.4</ele>
        <time>2020-06-03T15:51:08Z</time>
      </trkpt>
      <trkpt lat="46.63598" lon="-1.89128">
        <ele>9.4</ele>
        <time>2020-06-03T15:51:09Z</time>
      </trkpt>
      <trkpt lat="46.63599" lon="-1.89128">
        <ele>9.4</ele>
        <time>2020-06-03T15:51:10Z</time>
      </trkpt>
      <trkpt lat="46.63598" lon="-1.8913">
        <ele>9.4</ele>
        <time>2020-06-03T15:51:11Z</time>
      </trkpt>
      <trkpt lat="46.63598" lon="-1.89131">
        <ele>9.4</ele>
        <time>2020-06-03T15:51:12Z</time>
      </trkpt>
      <trkpt lat="46.63598" lon="-1.8913">
        <ele>9.4</ele>
        <time>2020-06-03T15:51:13Z</time>
      </trkpt>
      <trkpt lat="46.63598" lon="-1.89131">
        <ele>9.4</ele>
        <time>2020-06-03T15:51:14Z</time>
      </trkpt>
      <trkpt lat="46.63597" lon="-1.89131">
        <ele>9.4</ele>
        <time>2020-06-03T15:51:15Z</time>
      </trkpt>
      <trkpt lat="46.63597" lon="-1.89131">
        <ele>9.4</ele>
        <time>2020-06-03T15:51:16Z</time>
      </trkpt>
      <trkpt lat="46.63597" lon="-1.89131">
        <ele>9.4</ele>
        <time>2020-06-03T15:51:17Z</time>
      </trkpt>
      <trkpt lat="46.63597" lon="-1.89131">
        <ele>9.4</ele>
        <time>2020-06-03T15:51:18Z</time>
      </trkpt>
      <trkpt lat="46.63598" lon="-1.89131">
        <ele>9.4</ele>
        <time>2020-06-03T15:51:19Z</time>
      </trkpt>
      <trkpt lat="46.63598" lon="-1.89131">
        <ele>9.4</ele>
        <time>2020-06-03T15:51:20Z</time>
      </trkpt>
      <trkpt lat="46.63598" lon="-1.89131">
        <ele>9.4</ele>
        <time>2020-06-03T15:51:21Z</time>
      </trkpt>
      <trkpt lat="46.63599" lon="-1.89131">
        <ele>9.4</ele>
        <time>2020-06-03T15:51:22Z</time>
      </trkpt>
      <trkpt lat="46.63599" lon="-1.89131">
        <ele>9.4</ele>
        <time>2020-06-03T15:51:23Z</time>
      </trkpt>
      <trkpt lat="46.636" lon="-1.89131">
        <ele>9.4</ele>
        <time>2020-06-03T15:51:24Z</time>
      </trkpt>
      <trkpt lat="46.636" lon="-1.89131">
        <ele>9.4</ele>
        <time>2020-06-03T15:51:25Z</time>
      </trkpt>
      <trkpt lat="46.636" lon="-1.89131">
        <ele>9.4</ele>
        <time>2020-06-03T15:51:26Z</time>
      </trkpt>
      <trkpt lat="46.63601" lon="-1.89131">
        <ele>9.4</ele>
        <time>2020-06-03T15:51:27Z</time>
      </trkpt>
      <trkpt lat="46.63601" lon="-1.89131">
        <ele>9.4</ele>
        <time>2020-06-03T15:51:28Z</time>
      </trkpt>
      <trkpt lat="46.63602" lon="-1.89131">
        <ele>9.4</ele>
        <time>2020-06-03T15:51:29Z</time>
      </trkpt>
      <trkpt lat="46.63602" lon="-1.89132">
        <ele>9.4</ele>
        <time>2020-06-03T15:51:30Z</time>
      </trkpt>
      <trkpt lat="46.63602" lon="-1.89132">
        <ele>9.4</ele>
        <time>2020-06-03T15:51:31Z</time>
      </trkpt>
      <trkpt lat="46.63603" lon="-1.89132">
        <ele>9.4</ele>
        <time>2020-06-03T15:51:32Z</time>
      </trkpt>
      <trkpt lat="46.63603" lon="-1.89132">
        <ele>9.4</ele>
        <time>2020-06-03T15:52:56Z</time>
      </trkpt>
      <trkpt lat="46.63604" lon="-1.89132">
        <ele>9.4</ele>
        <time>2020-06-03T15:52:57Z</time>
      </trkpt>
      <trkpt lat="46.63605" lon="-1.89133">
        <ele>9.4</ele>
        <time>2020-06-03T15:52:58Z</time>
      </trkpt>
      <trkpt lat="46.63606" lon="-1.89134">
        <ele>9.4</ele>
        <time>2020-06-03T15:52:59Z</time>
      </trkpt>
      <trkpt lat="46.63609" lon="-1.89135">
        <ele>9.4</ele>
        <time>2020-06-03T15:53:00Z</time>
      </trkpt>
      <trkpt lat="46.6361" lon="-1.89136">
        <ele>9.4</ele>
        <time>2020-06-03T15:53:01Z</time>
      </trkpt>
      <trkpt lat="46.63614" lon="-1.89137">
        <ele>9.4</ele>
        <time>2020-06-03T15:53:02Z</time>
      </trkpt>
      <trkpt lat="46.63616" lon="-1.89139">
        <ele>9.4</ele>
        <time>2020-06-03T15:53:03Z</time>
      </trkpt>
      <trkpt lat="46.6362" lon="-1.8914">
        <ele>9.4</ele>
        <time>2020-06-03T15:53:04Z</time>
      </trkpt>
      <trkpt lat="46.63623" lon="-1.89141">
        <ele>9.4</ele>
        <time>2020-06-03T15:53:05Z</time>
      </trkpt>
      <trkpt lat="46.63625" lon="-1.89142">
        <ele>9.4</ele>
        <time>2020-06-03T15:53:06Z</time>
      </trkpt>
      <trkpt lat="46.63629" lon="-1.89144">
        <ele>9.4</ele>
        <time>2020-06-03T15:53:07Z</time>
      </trkpt>
      <trkpt lat="46.63632" lon="-1.89146">
        <ele>9.3</ele>
        <time>2020-06-03T15:53:08Z</time>
      </trkpt>
      <trkpt lat="46.63634" lon="-1.89147">
        <ele>9.3</ele>
        <time>2020-06-03T15:53:09Z</time>
      </trkpt>
      <trkpt lat="46.63638" lon="-1.89149">
        <ele>9.3</ele>
        <time>2020-06-03T15:53:10Z</time>
      </trkpt>
      <trkpt lat="46.6364" lon="-1.89151">
        <ele>9.2</ele>
        <time>2020-06-03T15:53:11Z</time>
      </trkpt>
      <trkpt lat="46.63644" lon="-1.89152">
        <ele>9.2</ele>
        <time>2020-06-03T15:53:12Z</time>
      </trkpt>
      <trkpt lat="46.63645" lon="-1.89153">
        <ele>9.2</ele>
        <time>2020-06-03T15:53:13Z</time>
      </trkpt>
      <trkpt lat="46.63648" lon="-1.89155">
        <ele>9.1</ele>
        <time>2020-06-03T15:53:14Z</time>
      </trkpt>
      <trkpt lat="46.63651" lon="-1.89157">
        <ele>9.1</ele>
        <time>2020-06-03T15:53:15Z</time>
      </trkpt>
      <trkpt lat="46.63655" lon="-1.89159">
        <ele>9</ele>
        <time>2020-06-03T15:53:16Z</time>
      </trkpt>
      <trkpt lat="46.63657" lon="-1.8916">
        <ele>9</ele>
        <time>2020-06-03T15:53:17Z</time>
      </trkpt>
      <trkpt lat="46.63661" lon="-1.8916">
        <ele>8.9</ele>
        <time>2020-06-03T15:53:18Z</time>
      </trkpt>
      <trkpt lat="46.63664" lon="-1.89161">
        <ele>8.8</ele>
        <time>2020-06-03T15:53:19Z</time>
      </trkpt>
      <trkpt lat="46.63667" lon="-1.89162">
        <ele>8.8</ele>
        <time>2020-06-03T15:53:20Z</time>
      </trkpt>
      <trkpt lat="46.63671" lon="-1.89164">
        <ele>8.7</ele>
        <time>2020-06-03T15:53:21Z</time>
      </trkpt>
      <trkpt lat="46.63675" lon="-1.89166">
        <ele>8.6</ele>
        <time>2020-06-03T15:53:22Z</time>
      </trkpt>
      <trkpt lat="46.63679" lon="-1.89169">
        <ele>8.5</ele>
        <time>2020-06-03T15:53:23Z</time>
      </trkpt>
      <trkpt lat="46.63682" lon="-1.89171">
        <ele>8.5</ele>
        <time>2020-06-03T15:53:24Z</time>
      </trkpt>
      <trkpt lat="46.63686" lon="-1.89173">
        <ele>8.4</ele>
        <time>2020-06-03T15:53:25Z</time>
      </trkpt>
      <trkpt lat="46.63689" lon="-1.89176">
        <ele>8.3</ele>
        <time>2020-06-03T15:53:26Z</time>
      </trkpt>
      <trkpt lat="46.63693" lon="-1.89177">
        <ele>8.3</ele>
        <time>2020-06-03T15:53:27Z</time>
      </trkpt>
      <trkpt lat="46.63697" lon="-1.89181">
        <ele>8.2</ele>
        <time>2020-06-03T15:53:28Z</time>
      </trkpt>
      <trkpt lat="46.63701" lon="-1.89183">
        <ele>8.2</ele>
        <time>2020-06-03T15:53:29Z</time>
      </trkpt>
      <trkpt lat="46.63704" lon="-1.89186">
        <ele>8.1</ele>
        <time>2020-06-03T15:53:30Z</time>
      </trkpt>
      <trkpt lat="46.63708" lon="-1.89188">
        <ele>8.1</ele>
        <time>2020-06-03T15:53:31Z</time>
      </trkpt>
      <trkpt lat="46.63711" lon="-1.89189">
        <ele>8</ele>
        <time>2020-06-03T15:53:32Z</time>
      </trkpt>
      <trkpt lat="46.63714" lon="-1.89191">
        <ele>8</ele>
        <time>2020-06-03T15:53:33Z</time>
      </trkpt>
      <trkpt lat="46.63718" lon="-1.89195">
        <ele>7.9</ele>
        <time>2020-06-03T15:53:34Z</time>
      </trkpt>
      <trkpt lat="46.63722" lon="-1.89198">
        <ele>7.9</ele>
        <time>2020-06-03T15:53:35Z</time>
      </trkpt>
      <trkpt lat="46.63726" lon="-1.89201">
        <ele>7.8</ele>
        <time>2020-06-03T15:53:36Z</time>
      </trkpt>
      <trkpt lat="46.63731" lon="-1.89204">
        <ele>7.8</ele>
        <time>2020-06-03T15:53:37Z</time>
      </trkpt>
      <trkpt lat="46.63734" lon="-1.89206">
        <ele>7.7</ele>
        <time>2020-06-03T15:53:38Z</time>
      </trkpt>
      <trkpt lat="46.63739" lon="-1.89208">
        <ele>7.7</ele>
        <time>2020-06-03T15:53:39Z</time>
      </trkpt>
      <trkpt lat="46.63744" lon="-1.89212">
        <ele>7.7</ele>
        <time>2020-06-03T15:53:40Z</time>
      </trkpt>
      <trkpt lat="46.63748" lon="-1.89215">
        <ele>7.7</ele>
        <time>2020-06-03T15:53:41Z</time>
      </trkpt>
      <trkpt lat="46.63753" lon="-1.89218">
        <ele>7.7</ele>
        <time>2020-06-03T15:53:42Z</time>
      </trkpt>
      <trkpt lat="46.63758" lon="-1.89222">
        <ele>7.6</ele>
        <time>2020-06-03T15:53:43Z</time>
      </trkpt>
      <trkpt lat="46.63762" lon="-1.89224">
        <ele>7.6</ele>
        <time>2020-06-03T15:53:44Z</time>
      </trkpt>
      <trkpt lat="46.63767" lon="-1.89228">
        <ele>7.6</ele>
        <time>2020-06-03T15:53:45Z</time>
      </trkpt>
      <trkpt lat="46.63771" lon="-1.89231">
        <ele>7.6</ele>
        <time>2020-06-03T15:53:46Z</time>
      </trkpt>
      <trkpt lat="46.63775" lon="-1.89234">
        <ele>7.6</ele>
        <time>2020-06-03T15:53:47Z</time>
      </trkpt>
      <trkpt lat="46.63779" lon="-1.89237">
        <ele>7.6</ele>
        <time>2020-06-03T15:53:48Z</time>
      </trkpt>
      <trkpt lat="46.63784" lon="-1.8924">
        <ele>7.7</ele>
        <time>2020-06-03T15:53:49Z</time>
      </trkpt>
      <trkpt lat="46.63788" lon="-1.89244">
        <ele>7.7</ele>
        <time>2020-06-03T15:53:50Z</time>
      </trkpt>
      <trkpt lat="46.63792" lon="-1.89248">
        <ele>7.7</ele>
        <time>2020-06-03T15:53:51Z</time>
      </trkpt>
      <trkpt lat="46.63795" lon="-1.89254">
        <ele>7.8</ele>
        <time>2020-06-03T15:53:52Z</time>
      </trkpt>
      <trkpt lat="46.63798" lon="-1.89259">
        <ele>7.8</ele>
        <time>2020-06-03T15:53:53Z</time>
      </trkpt>
      <trkpt lat="46.638" lon="-1.89265">
        <ele>7.9</ele>
        <time>2020-06-03T15:53:54Z</time>
      </trkpt>
      <trkpt lat="46.63802" lon="-1.89273">
        <ele>7.9</ele>
        <time>2020-06-03T15:53:55Z</time>
      </trkpt>
      <trkpt lat="46.63804" lon="-1.89278">
        <ele>8</ele>
        <time>2020-06-03T15:53:56Z</time>
      </trkpt>
      <trkpt lat="46.63808" lon="-1.89283">
        <ele>8</ele>
        <time>2020-06-03T15:53:57Z</time>
      </trkpt>
      <trkpt lat="46.63812" lon="-1.89289">
        <ele>8</ele>
        <time>2020-06-03T15:53:58Z</time>
      </trkpt>
      <trkpt lat="46.63814" lon="-1.89296">
        <ele>8.1</ele>
        <time>2020-06-03T15:53:59Z</time>
      </trkpt>
      <trkpt lat="46.63817" lon="-1.89302">
        <ele>8.1</ele>
        <time>2020-06-03T15:54:00Z</time>
      </trkpt>
      <trkpt lat="46.6382" lon="-1.89307">
        <ele>8.1</ele>
        <time>2020-06-03T15:54:01Z</time>
      </trkpt>
      <trkpt lat="46.63823" lon="-1.89312">
        <ele>8.1</ele>
        <time>2020-06-03T15:54:02Z</time>
      </trkpt>
      <trkpt lat="46.63826" lon="-1.89316">
        <ele>8.1</ele>
        <time>2020-06-03T15:54:03Z</time>
      </trkpt>
      <trkpt lat="46.6383" lon="-1.89321">
        <ele>8.2</ele>
        <time>2020-06-03T15:54:04Z</time>
      </trkpt>
      <trkpt lat="46.63833" lon="-1.89325">
        <ele>8.2</ele>
        <time>2020-06-03T15:54:05Z</time>
      </trkpt>
      <trkpt lat="46.63836" lon="-1.89329">
        <ele>8.2</ele>
        <time>2020-06-03T15:54:06Z</time>
      </trkpt>
      <trkpt lat="46.63839" lon="-1.89334">
        <ele>8.2</ele>
        <time>2020-06-03T15:54:07Z</time>
      </trkpt>
      <trkpt lat="46.63842" lon="-1.8934">
        <ele>8.2</ele>
        <time>2020-06-03T15:54:08Z</time>
      </trkpt>
      <trkpt lat="46.63845" lon="-1.89345">
        <ele>8.2</ele>
        <time>2020-06-03T15:54:09Z</time>
      </trkpt>
      <trkpt lat="46.63849" lon="-1.89351">
        <ele>8.1</ele>
        <time>2020-06-03T15:54:10Z</time>
      </trkpt>
      <trkpt lat="46.63852" lon="-1.89356">
        <ele>8.1</ele>
        <time>2020-06-03T15:54:11Z</time>
      </trkpt>
      <trkpt lat="46.63856" lon="-1.89362">
        <ele>8.1</ele>
        <time>2020-06-03T15:54:12Z</time>
      </trkpt>
      <trkpt lat="46.63859" lon="-1.89367">
        <ele>8</ele>
        <time>2020-06-03T15:54:13Z</time>
      </trkpt>
      <trkpt lat="46.63863" lon="-1.89373">
        <ele>8</ele>
        <time>2020-06-03T15:54:14Z</time>
      </trkpt>
      <trkpt lat="46.63866" lon="-1.89377">
        <ele>8</ele>
        <time>2020-06-03T15:54:15Z</time>
      </trkpt>
      <trkpt lat="46.6387" lon="-1.89381">
        <ele>7.9</ele>
        <time>2020-06-03T15:54:16Z</time>
      </trkpt>
      <trkpt lat="46.63874" lon="-1.89386">
        <ele>7.9</ele>
        <time>2020-06-03T15:54:17Z</time>
      </trkpt>
      <trkpt lat="46.63877" lon="-1.89391">
        <ele>7.9</ele>
        <time>2020-06-03T15:54:18Z</time>
      </trkpt>
      <trkpt lat="46.63881" lon="-1.89396">
        <ele>7.8</ele>
        <time>2020-06-03T15:54:19Z</time>
      </trkpt>
      <trkpt lat="46.63884" lon="-1.89402">
        <ele>7.8</ele>
        <time>2020-06-03T15:54:20Z</time>
      </trkpt>
      <trkpt lat="46.63888" lon="-1.89407">
        <ele>7.8</ele>
        <time>2020-06-03T15:54:21Z</time>
      </trkpt>
      <trkpt lat="46.63892" lon="-1.89412">
        <ele>7.7</ele>
        <time>2020-06-03T15:54:22Z</time>
      </trkpt>
      <trkpt lat="46.63895" lon="-1.89416">
        <ele>7.7</ele>
        <time>2020-06-03T15:54:23Z</time>
      </trkpt>
      <trkpt lat="46.63899" lon="-1.8942">
        <ele>7.6</ele>
        <time>2020-06-03T15:54:24Z</time>
      </trkpt>
      <trkpt lat="46.63902" lon="-1.89424">
        <ele>7.5</ele>
        <time>2020-06-03T15:54:25Z</time>
      </trkpt>
      <trkpt lat="46.63906" lon="-1.89428">
        <ele>7.4</ele>
        <time>2020-06-03T15:54:26Z</time>
      </trkpt>
      <trkpt lat="46.63909" lon="-1.8943">
        <ele>7.3</ele>
        <time>2020-06-03T15:54:27Z</time>
      </trkpt>
      <trkpt lat="46.63913" lon="-1.89433">
        <ele>7.3</ele>
        <time>2020-06-03T15:54:28Z</time>
      </trkpt>
      <trkpt lat="46.63917" lon="-1.89435">
        <ele>7.2</ele>
        <time>2020-06-03T15:54:29Z</time>
      </trkpt>
      <trkpt lat="46.63922" lon="-1.89438">
        <ele>7.1</ele>
        <time>2020-06-03T15:54:30Z</time>
      </trkpt>
      <trkpt lat="46.63926" lon="-1.89441">
        <ele>7</ele>
        <time>2020-06-03T15:54:31Z</time>
      </trkpt>
      <trkpt lat="46.6393" lon="-1.89442">
        <ele>6.9</ele>
        <time>2020-06-03T15:54:32Z</time>
      </trkpt>
      <trkpt lat="46.63934" lon="-1.89443">
        <ele>6.9</ele>
        <time>2020-06-03T15:54:33Z</time>
      </trkpt>
      <trkpt lat="46.63938" lon="-1.89443">
        <ele>6.9</ele>
        <time>2020-06-03T15:54:34Z</time>
      </trkpt>
      <trkpt lat="46.63943" lon="-1.89443">
        <ele>6.9</ele>
        <time>2020-06-03T15:54:35Z</time>
      </trkpt>
      <trkpt lat="46.63947" lon="-1.89444">
        <ele>7</ele>
        <time>2020-06-03T15:54:36Z</time>
      </trkpt>
      <trkpt lat="46.63951" lon="-1.89446">
        <ele>7</ele>
        <time>2020-06-03T15:54:37Z</time>
      </trkpt>
      <trkpt lat="46.63955" lon="-1.89447">
        <ele>7</ele>
        <time>2020-06-03T15:54:38Z</time>
      </trkpt>
      <trkpt lat="46.63957" lon="-1.89448">
        <ele>7</ele>
        <time>2020-06-03T15:54:39Z</time>
      </trkpt>
      <trkpt lat="46.63961" lon="-1.89446">
        <ele>7</ele>
        <time>2020-06-03T15:54:40Z</time>
      </trkpt>
      <trkpt lat="46.63962" lon="-1.89445">
        <ele>7</ele>
        <time>2020-06-03T15:54:41Z</time>
      </trkpt>
      <trkpt lat="46.63966" lon="-1.89444">
        <ele>7</ele>
        <time>2020-06-03T15:54:42Z</time>
      </trkpt>
      <trkpt lat="46.63968" lon="-1.89443">
        <ele>7</ele>
        <time>2020-06-03T15:54:43Z</time>
      </trkpt>
      <trkpt lat="46.63971" lon="-1.89443">
        <ele>7</ele>
        <time>2020-06-03T15:54:44Z</time>
      </trkpt>
      <trkpt lat="46.63975" lon="-1.89441">
        <ele>7</ele>
        <time>2020-06-03T15:54:45Z</time>
      </trkpt>
      <trkpt lat="46.63979" lon="-1.8944">
        <ele>7</ele>
        <time>2020-06-03T15:54:46Z</time>
      </trkpt>
      <trkpt lat="46.63983" lon="-1.8944">
        <ele>7</ele>
        <time>2020-06-03T15:54:47Z</time>
      </trkpt>
      <trkpt lat="46.63988" lon="-1.89439">
        <ele>7.1</ele>
        <time>2020-06-03T15:54:48Z</time>
      </trkpt>
      <trkpt lat="46.63993" lon="-1.89439">
        <ele>7.2</ele>
        <time>2020-06-03T15:54:49Z</time>
      </trkpt>
      <trkpt lat="46.63996" lon="-1.89439">
        <ele>7.3</ele>
        <time>2020-06-03T15:54:50Z</time>
      </trkpt>
      <trkpt lat="46.64" lon="-1.89439">
        <ele>7.4</ele>
        <time>2020-06-03T15:54:51Z</time>
      </trkpt>
      <trkpt lat="46.64003" lon="-1.89437">
        <ele>7.6</ele>
        <time>2020-06-03T15:54:52Z</time>
      </trkpt>
      <trkpt lat="46.64005" lon="-1.89436">
        <ele>7.6</ele>
        <time>2020-06-03T15:54:53Z</time>
      </trkpt>
      <trkpt lat="46.64008" lon="-1.89434">
        <ele>7.8</ele>
        <time>2020-06-03T15:54:54Z</time>
      </trkpt>
      <trkpt lat="46.64012" lon="-1.89431">
        <ele>8</ele>
        <time>2020-06-03T15:54:55Z</time>
      </trkpt>
      <trkpt lat="46.64015" lon="-1.8943">
        <ele>8.1</ele>
        <time>2020-06-03T15:54:56Z</time>
      </trkpt>
      <trkpt lat="46.6402" lon="-1.89428">
        <ele>8.3</ele>
        <time>2020-06-03T15:54:57Z</time>
      </trkpt>
      <trkpt lat="46.64025" lon="-1.89428">
        <ele>8.5</ele>
        <time>2020-06-03T15:54:58Z</time>
      </trkpt>
      <trkpt lat="46.64029" lon="-1.89427">
        <ele>8.7</ele>
        <time>2020-06-03T15:54:59Z</time>
      </trkpt>
      <trkpt lat="46.64034" lon="-1.89426">
        <ele>8.9</ele>
        <time>2020-06-03T15:55:00Z</time>
      </trkpt>
      <trkpt lat="46.6404" lon="-1.89426">
        <ele>9.1</ele>
        <time>2020-06-03T15:55:01Z</time>
      </trkpt>
      <trkpt lat="46.64045" lon="-1.89425">
        <ele>9.3</ele>
        <time>2020-06-03T15:55:02Z</time>
      </trkpt>
      <trkpt lat="46.6405" lon="-1.89424">
        <ele>9.5</ele>
        <time>2020-06-03T15:55:03Z</time>
      </trkpt>
      <trkpt lat="46.64056" lon="-1.89423">
        <ele>9.7</ele>
        <time>2020-06-03T15:55:04Z</time>
      </trkpt>
      <trkpt lat="46.64062" lon="-1.89423">
        <ele>9.9</ele>
        <time>2020-06-03T15:55:05Z</time>
      </trkpt>
      <trkpt lat="46.64069" lon="-1.89423">
        <ele>10.1</ele>
        <time>2020-06-03T15:55:06Z</time>
      </trkpt>
      <trkpt lat="46.64075" lon="-1.89424">
        <ele>10.3</ele>
        <time>2020-06-03T15:55:07Z</time>
      </trkpt>
      <trkpt lat="46.64081" lon="-1.89424">
        <ele>10.5</ele>
        <time>2020-06-03T15:55:08Z</time>
      </trkpt>
      <trkpt lat="46.64088" lon="-1.89426">
        <ele>10.8</ele>
        <time>2020-06-03T15:55:09Z</time>
      </trkpt>
      <trkpt lat="46.64095" lon="-1.89428">
        <ele>11</ele>
        <time>2020-06-03T15:55:10Z</time>
      </trkpt>
      <trkpt lat="46.64101" lon="-1.89429">
        <ele>11.2</ele>
        <time>2020-06-03T15:55:11Z</time>
      </trkpt>
      <trkpt lat="46.64107" lon="-1.8943">
        <ele>11.3</ele>
        <time>2020-06-03T15:55:12Z</time>
      </trkpt>
      <trkpt lat="46.64112" lon="-1.89431">
        <ele>11.4</ele>
        <time>2020-06-03T15:55:13Z</time>
      </trkpt>
      <trkpt lat="46.64117" lon="-1.89432">
        <ele>11.5</ele>
        <time>2020-06-03T15:55:14Z</time>
      </trkpt>
      <trkpt lat="46.64122" lon="-1.89433">
        <ele>11.6</ele>
        <time>2020-06-03T15:55:15Z</time>
      </trkpt>
      <trkpt lat="46.64127" lon="-1.89434">
        <ele>11.6</ele>
        <time>2020-06-03T15:55:16Z</time>
      </trkpt>
      <trkpt lat="46.64132" lon="-1.89434">
        <ele>11.7</ele>
        <time>2020-06-03T15:55:17Z</time>
      </trkpt>
      <trkpt lat="46.64137" lon="-1.89436">
        <ele>11.8</ele>
        <time>2020-06-03T15:55:18Z</time>
      </trkpt>
      <trkpt lat="46.64142" lon="-1.89437">
        <ele>11.9</ele>
        <time>2020-06-03T15:55:19Z</time>
      </trkpt>
      <trkpt lat="46.64146" lon="-1.89439">
        <ele>12</ele>
        <time>2020-06-03T15:55:20Z</time>
      </trkpt>
      <trkpt lat="46.64151" lon="-1.89439">
        <ele>12.1</ele>
        <time>2020-06-03T15:55:21Z</time>
      </trkpt>
      <trkpt lat="46.64156" lon="-1.8944">
        <ele>12.1</ele>
        <time>2020-06-03T15:55:22Z</time>
      </trkpt>
      <trkpt lat="46.6416" lon="-1.89441">
        <ele>12.2</ele>
        <time>2020-06-03T15:55:23Z</time>
      </trkpt>
      <trkpt lat="46.64166" lon="-1.89444">
        <ele>12.3</ele>
        <time>2020-06-03T15:55:24Z</time>
      </trkpt>
      <trkpt lat="46.6417" lon="-1.89446">
        <ele>12.3</ele>
        <time>2020-06-03T15:55:25Z</time>
      </trkpt>
      <trkpt lat="46.64174" lon="-1.89447">
        <ele>12.4</ele>
        <time>2020-06-03T15:55:26Z</time>
      </trkpt>
      <trkpt lat="46.64178" lon="-1.89448">
        <ele>12.4</ele>
        <time>2020-06-03T15:55:27Z</time>
      </trkpt>
      <trkpt lat="46.64183" lon="-1.89448">
        <ele>12.5</ele>
        <time>2020-06-03T15:55:28Z</time>
      </trkpt>
      <trkpt lat="46.64187" lon="-1.89449">
        <ele>12.5</ele>
        <time>2020-06-03T15:55:29Z</time>
      </trkpt>
      <trkpt lat="46.64191" lon="-1.89451">
        <ele>12.6</ele>
        <time>2020-06-03T15:55:30Z</time>
      </trkpt>
      <trkpt lat="46.64196" lon="-1.89452">
        <ele>12.6</ele>
        <time>2020-06-03T15:55:31Z</time>
      </trkpt>
      <trkpt lat="46.64201" lon="-1.89454">
        <ele>12.7</ele>
        <time>2020-06-03T15:55:32Z</time>
      </trkpt>
      <trkpt lat="46.64204" lon="-1.89455">
        <ele>12.7</ele>
        <time>2020-06-03T15:55:33Z</time>
      </trkpt>
      <trkpt lat="46.6421" lon="-1.89456">
        <ele>12.7</ele>
        <time>2020-06-03T15:55:34Z</time>
      </trkpt>
      <trkpt lat="46.64215" lon="-1.89457">
        <ele>12.8</ele>
        <time>2020-06-03T15:55:35Z</time>
      </trkpt>
      <trkpt lat="46.6422" lon="-1.89459">
        <ele>12.9</ele>
        <time>2020-06-03T15:55:36Z</time>
      </trkpt>
      <trkpt lat="46.64226" lon="-1.89461">
        <ele>13</ele>
        <time>2020-06-03T15:55:37Z</time>
      </trkpt>
      <trkpt lat="46.64231" lon="-1.89463">
        <ele>13.2</ele>
        <time>2020-06-03T15:55:38Z</time>
      </trkpt>
      <trkpt lat="46.64236" lon="-1.89464">
        <ele>13.3</ele>
        <time>2020-06-03T15:55:39Z</time>
      </trkpt>
      <trkpt lat="46.6424" lon="-1.89466">
        <ele>13.4</ele>
        <time>2020-06-03T15:55:40Z</time>
      </trkpt>
      <trkpt lat="46.64244" lon="-1.89467">
        <ele>13.5</ele>
        <time>2020-06-03T15:55:41Z</time>
      </trkpt>
      <trkpt lat="46.64249" lon="-1.89468">
        <ele>13.7</ele>
        <time>2020-06-03T15:55:42Z</time>
      </trkpt>
      <trkpt lat="46.64253" lon="-1.89469">
        <ele>13.8</ele>
        <time>2020-06-03T15:55:43Z</time>
      </trkpt>
      <trkpt lat="46.64257" lon="-1.89471">
        <ele>13.9</ele>
        <time>2020-06-03T15:55:44Z</time>
      </trkpt>
      <trkpt lat="46.64261" lon="-1.89472">
        <ele>13.9</ele>
        <time>2020-06-03T15:55:45Z</time>
      </trkpt>
      <trkpt lat="46.64265" lon="-1.89474">
        <ele>14</ele>
        <time>2020-06-03T15:55:46Z</time>
      </trkpt>
      <trkpt lat="46.64268" lon="-1.89476">
        <ele>14</ele>
        <time>2020-06-03T15:55:47Z</time>
      </trkpt>
      <trkpt lat="46.64272" lon="-1.89477">
        <ele>14.2</ele>
        <time>2020-06-03T15:55:48Z</time>
      </trkpt>
      <trkpt lat="46.64274" lon="-1.89478">
        <ele>14.2</ele>
        <time>2020-06-03T15:55:49Z</time>
      </trkpt>
      <trkpt lat="46.64277" lon="-1.89478">
        <ele>14.2</ele>
        <time>2020-06-03T15:55:50Z</time>
      </trkpt>
      <trkpt lat="46.64278" lon="-1.89477">
        <ele>14.2</ele>
        <time>2020-06-03T15:55:51Z</time>
      </trkpt>
      <trkpt lat="46.6428" lon="-1.89472">
        <ele>14.3</ele>
        <time>2020-06-03T15:55:52Z</time>
      </trkpt>
      <trkpt lat="46.64281" lon="-1.89471">
        <ele>14.3</ele>
        <time>2020-06-03T15:55:53Z</time>
      </trkpt>
      <trkpt lat="46.64282" lon="-1.89467">
        <ele>14.4</ele>
        <time>2020-06-03T15:55:54Z</time>
      </trkpt>
      <trkpt lat="46.64282" lon="-1.89465">
        <ele>14.4</ele>
        <time>2020-06-03T15:55:55Z</time>
      </trkpt>
      <trkpt lat="46.64282" lon="-1.89463">
        <ele>14.4</ele>
        <time>2020-06-03T15:55:56Z</time>
      </trkpt>
      <trkpt lat="46.64282" lon="-1.8946">
        <ele>14.4</ele>
        <time>2020-06-03T15:55:57Z</time>
      </trkpt>
      <trkpt lat="46.64283" lon="-1.89456">
        <ele>14.5</ele>
        <time>2020-06-03T15:55:58Z</time>
      </trkpt>
      <trkpt lat="46.64282" lon="-1.89455">
        <ele>14.5</ele>
        <time>2020-06-03T15:55:59Z</time>
      </trkpt>
      <trkpt lat="46.64282" lon="-1.89451">
        <ele>14.5</ele>
        <time>2020-06-03T15:56:00Z</time>
      </trkpt>
      <trkpt lat="46.64282" lon="-1.89449">
        <ele>14.5</ele>
        <time>2020-06-03T15:56:01Z</time>
      </trkpt>
      <trkpt lat="46.64283" lon="-1.89446">
        <ele>14.6</ele>
        <time>2020-06-03T15:56:02Z</time>
      </trkpt>
      <trkpt lat="46.64283" lon="-1.89444">
        <ele>14.6</ele>
        <time>2020-06-03T15:56:03Z</time>
      </trkpt>
      <trkpt lat="46.64282" lon="-1.89442">
        <ele>14.6</ele>
        <time>2020-06-03T15:56:04Z</time>
      </trkpt>
      <trkpt lat="46.64282" lon="-1.8944">
        <ele>14.6</ele>
        <time>2020-06-03T15:56:05Z</time>
      </trkpt>
      <trkpt lat="46.64282" lon="-1.89438">
        <ele>14.6</ele>
        <time>2020-06-03T15:56:06Z</time>
      </trkpt>
      <trkpt lat="46.64282" lon="-1.89436">
        <ele>14.7</ele>
        <time>2020-06-03T15:56:07Z</time>
      </trkpt>
      <trkpt lat="46.64282" lon="-1.89434">
        <ele>14.7</ele>
        <time>2020-06-03T15:56:08Z</time>
      </trkpt>
      <trkpt lat="46.64282" lon="-1.89434">
        <ele>14.7</ele>
        <time>2020-06-03T15:56:09Z</time>
      </trkpt>
      <trkpt lat="46.64282" lon="-1.89433">
        <ele>14.7</ele>
        <time>2020-06-03T15:56:10Z</time>
      </trkpt>
      <trkpt lat="46.64282" lon="-1.89432">
        <ele>14.7</ele>
        <time>2020-06-03T15:56:11Z</time>
      </trkpt>
      <trkpt lat="46.64283" lon="-1.89431">
        <ele>14.7</ele>
        <time>2020-06-03T15:56:12Z</time>
      </trkpt>
      <trkpt lat="46.64283" lon="-1.89431">
        <ele>14.7</ele>
        <time>2020-06-03T15:56:13Z</time>
      </trkpt>
      <trkpt lat="46.64283" lon="-1.8943">
        <ele>14.7</ele>
        <time>2020-06-03T15:56:14Z</time>
      </trkpt>
      <trkpt lat="46.64283" lon="-1.89429">
        <ele>14.7</ele>
        <time>2020-06-03T15:56:15Z</time>
      </trkpt>
      <trkpt lat="46.64283" lon="-1.89429">
        <ele>14.7</ele>
        <time>2020-06-03T15:56:16Z</time>
      </trkpt>
      <trkpt lat="46.64283" lon="-1.89428">
        <ele>14.7</ele>
        <time>2020-06-03T15:56:17Z</time>
      </trkpt>
      <trkpt lat="46.64284" lon="-1.89427">
        <ele>14.7</ele>
        <time>2020-06-03T15:56:18Z</time>
      </trkpt>
      <trkpt lat="46.64284" lon="-1.89427">
        <ele>14.7</ele>
        <time>2020-06-03T15:56:19Z</time>
      </trkpt>
      <trkpt lat="46.64284" lon="-1.89426">
        <ele>14.7</ele>
        <time>2020-06-03T15:56:20Z</time>
      </trkpt>
      <trkpt lat="46.64284" lon="-1.89425">
        <ele>14.7</ele>
        <time>2020-06-03T15:56:45Z</time>
      </trkpt>
      <trkpt lat="46.64284" lon="-1.89424">
        <ele>14.8</ele>
        <time>2020-06-03T15:56:46Z</time>
      </trkpt>
      <trkpt lat="46.64286" lon="-1.89419">
        <ele>14.8</ele>
        <time>2020-06-03T15:56:47Z</time>
      </trkpt>
      <trkpt lat="46.64286" lon="-1.89416">
        <ele>14.8</ele>
        <time>2020-06-03T15:56:48Z</time>
      </trkpt>
      <trkpt lat="46.64289" lon="-1.89411">
        <ele>14.9</ele>
        <time>2020-06-03T15:56:49Z</time>
      </trkpt>
      <trkpt lat="46.64292" lon="-1.89405">
        <ele>14.9</ele>
        <time>2020-06-03T15:56:50Z</time>
      </trkpt>
      <trkpt lat="46.64295" lon="-1.89398">
        <ele>15</ele>
        <time>2020-06-03T15:56:51Z</time>
      </trkpt>
      <trkpt lat="46.64298" lon="-1.8939">
        <ele>15</ele>
        <time>2020-06-03T15:56:52Z</time>
      </trkpt>
      <trkpt lat="46.64302" lon="-1.89383">
        <ele>15</ele>
        <time>2020-06-03T15:56:53Z</time>
      </trkpt>
      <trkpt lat="46.64305" lon="-1.89376">
        <ele>15.1</ele>
        <time>2020-06-03T15:56:54Z</time>
      </trkpt>
      <trkpt lat="46.64308" lon="-1.89371">
        <ele>15.1</ele>
        <time>2020-06-03T15:56:55Z</time>
      </trkpt>
      <trkpt lat="46.64313" lon="-1.89367">
        <ele>15.1</ele>
        <time>2020-06-03T15:56:56Z</time>
      </trkpt>
      <trkpt lat="46.64318" lon="-1.89364">
        <ele>15.1</ele>
        <time>2020-06-03T15:56:57Z</time>
      </trkpt>
      <trkpt lat="46.64323" lon="-1.89361">
        <ele>15</ele>
        <time>2020-06-03T15:56:58Z</time>
      </trkpt>
      <trkpt lat="46.64329" lon="-1.8936">
        <ele>15</ele>
        <time>2020-06-03T15:56:59Z</time>
      </trkpt>
      <trkpt lat="46.64335" lon="-1.89358">
        <ele>15</ele>
        <time>2020-06-03T15:57:00Z</time>
      </trkpt>
      <trkpt lat="46.6434" lon="-1.89356">
        <ele>15</ele>
        <time>2020-06-03T15:57:01Z</time>
      </trkpt>
      <trkpt lat="46.64345" lon="-1.89353">
        <ele>15</ele>
        <time>2020-06-03T15:57:02Z</time>
      </trkpt>
      <trkpt lat="46.6435" lon="-1.8935">
        <ele>15</ele>
        <time>2020-06-03T15:57:03Z</time>
      </trkpt>
      <trkpt lat="46.64355" lon="-1.89347">
        <ele>15</ele>
        <time>2020-06-03T15:57:04Z</time>
      </trkpt>
      <trkpt lat="46.6436" lon="-1.89345">
        <ele>15</ele>
        <time>2020-06-03T15:57:05Z</time>
      </trkpt>
      <trkpt lat="46.64364" lon="-1.89344">
        <ele>15</ele>
        <time>2020-06-03T15:57:06Z</time>
      </trkpt>
      <trkpt lat="46.64367" lon="-1.89344">
        <ele>15</ele>
        <time>2020-06-03T15:57:07Z</time>
      </trkpt>
      <trkpt lat="46.6437" lon="-1.89345">
        <ele>15</ele>
        <time>2020-06-03T15:57:08Z</time>
      </trkpt>
      <trkpt lat="46.64372" lon="-1.89346">
        <ele>14.9</ele>
        <time>2020-06-03T15:57:09Z</time>
      </trkpt>
      <trkpt lat="46.64376" lon="-1.89347">
        <ele>14.9</ele>
        <time>2020-06-03T15:57:10Z</time>
      </trkpt>
      <trkpt lat="46.64378" lon="-1.89347">
        <ele>14.9</ele>
        <time>2020-06-03T15:57:11Z</time>
      </trkpt>
      <trkpt lat="46.64381" lon="-1.89347">
        <ele>14.9</ele>
        <time>2020-06-03T15:57:12Z</time>
      </trkpt>
      <trkpt lat="46.64384" lon="-1.89347">
        <ele>14.9</ele>
        <time>2020-06-03T15:57:13Z</time>
      </trkpt>
      <trkpt lat="46.64389" lon="-1.89349">
        <ele>15</ele>
        <time>2020-06-03T15:57:14Z</time>
      </trkpt>
      <trkpt lat="46.64393" lon="-1.89353">
        <ele>15</ele>
        <time>2020-06-03T15:57:15Z</time>
      </trkpt>
      <trkpt lat="46.64396" lon="-1.89357">
        <ele>15</ele>
        <time>2020-06-03T15:57:16Z</time>
      </trkpt>
      <trkpt lat="46.644" lon="-1.89359">
        <ele>15</ele>
        <time>2020-06-03T15:57:17Z</time>
      </trkpt>
      <trkpt lat="46.64403" lon="-1.8936">
        <ele>15.1</ele>
        <time>2020-06-03T15:57:18Z</time>
      </trkpt>
      <trkpt lat="46.64406" lon="-1.89362">
        <ele>15.1</ele>
        <time>2020-06-03T15:57:19Z</time>
      </trkpt>
      <trkpt lat="46.64411" lon="-1.89365">
        <ele>15.1</ele>
        <time>2020-06-03T15:57:20Z</time>
      </trkpt>
      <trkpt lat="46.64416" lon="-1.89367">
        <ele>15.1</ele>
        <time>2020-06-03T15:57:21Z</time>
      </trkpt>
      <trkpt lat="46.6442" lon="-1.8937">
        <ele>15.2</ele>
        <time>2020-06-03T15:57:22Z</time>
      </trkpt>
      <trkpt lat="46.64424" lon="-1.89372">
        <ele>15.2</ele>
        <time>2020-06-03T15:57:23Z</time>
      </trkpt>
      <trkpt lat="46.64428" lon="-1.89373">
        <ele>15.2</ele>
        <time>2020-06-03T15:57:24Z</time>
      </trkpt>
      <trkpt lat="46.64432" lon="-1.89373">
        <ele>15.3</ele>
        <time>2020-06-03T15:57:25Z</time>
      </trkpt>
      <trkpt lat="46.64436" lon="-1.89372">
        <ele>15.3</ele>
        <time>2020-06-03T15:57:26Z</time>
      </trkpt>
      <trkpt lat="46.6444" lon="-1.89371">
        <ele>15.3</ele>
        <time>2020-06-03T15:57:27Z</time>
      </trkpt>
      <trkpt lat="46.64444" lon="-1.89371">
        <ele>15.4</ele>
        <time>2020-06-03T15:57:28Z</time>
      </trkpt>
      <trkpt lat="46.64447" lon="-1.8937">
        <ele>15.5</ele>
        <time>2020-06-03T15:57:29Z</time>
      </trkpt>
      <trkpt lat="46.64451" lon="-1.8937">
        <ele>15.5</ele>
        <time>2020-06-03T15:57:30Z</time>
      </trkpt>
      <trkpt lat="46.64457" lon="-1.8937">
        <ele>15.6</ele>
        <time>2020-06-03T15:57:31Z</time>
      </trkpt>
      <trkpt lat="46.64462" lon="-1.89371">
        <ele>15.7</ele>
        <time>2020-06-03T15:57:32Z</time>
      </trkpt>
      <trkpt lat="46.64467" lon="-1.89371">
        <ele>15.8</ele>
        <time>2020-06-03T15:57:33Z</time>
      </trkpt>
      <trkpt lat="46.64474" lon="-1.89373">
        <ele>15.8</ele>
        <time>2020-06-03T15:57:34Z</time>
      </trkpt>
      <trkpt lat="46.64478" lon="-1.89374">
        <ele>15.8</ele>
        <time>2020-06-03T15:57:35Z</time>
      </trkpt>
      <trkpt lat="46.64483" lon="-1.89374">
        <ele>15.9</ele>
        <time>2020-06-03T15:57:36Z</time>
      </trkpt>
      <trkpt lat="46.64487" lon="-1.89374">
        <ele>15.9</ele>
        <time>2020-06-03T15:57:37Z</time>
      </trkpt>
      <trkpt lat="46.64491" lon="-1.89372">
        <ele>15.9</ele>
        <time>2020-06-03T15:57:38Z</time>
      </trkpt>
      <trkpt lat="46.64494" lon="-1.89371">
        <ele>15.9</ele>
        <time>2020-06-03T15:57:39Z</time>
      </trkpt>
      <trkpt lat="46.64498" lon="-1.89368">
        <ele>16</ele>
        <time>2020-06-03T15:57:40Z</time>
      </trkpt>
      <trkpt lat="46.645" lon="-1.89365">
        <ele>16</ele>
        <time>2020-06-03T15:57:41Z</time>
      </trkpt>
      <trkpt lat="46.64504" lon="-1.89361">
        <ele>16</ele>
        <time>2020-06-03T15:57:42Z</time>
      </trkpt>
      <trkpt lat="46.64509" lon="-1.89359">
        <ele>16.1</ele>
        <time>2020-06-03T15:57:43Z</time>
      </trkpt>
      <trkpt lat="46.64514" lon="-1.89358">
        <ele>16.2</ele>
        <time>2020-06-03T15:57:44Z</time>
      </trkpt>
      <trkpt lat="46.64518" lon="-1.89354">
        <ele>16.3</ele>
        <time>2020-06-03T15:57:45Z</time>
      </trkpt>
      <trkpt lat="46.64522" lon="-1.89351">
        <ele>16.3</ele>
        <time>2020-06-03T15:57:46Z</time>
      </trkpt>
      <trkpt lat="46.64526" lon="-1.89348">
        <ele>16.4</ele>
        <time>2020-06-03T15:57:47Z</time>
      </trkpt>
      <trkpt lat="46.6453" lon="-1.89344">
        <ele>16.6</ele>
        <time>2020-06-03T15:57:48Z</time>
      </trkpt>
      <trkpt lat="46.64535" lon="-1.89341">
        <ele>16.7</ele>
        <time>2020-06-03T15:57:49Z</time>
      </trkpt>
      <trkpt lat="46.64539" lon="-1.8934">
        <ele>16.8</ele>
        <time>2020-06-03T15:57:50Z</time>
      </trkpt>
      <trkpt lat="46.64543" lon="-1.89338">
        <ele>16.9</ele>
        <time>2020-06-03T15:57:51Z</time>
      </trkpt>
      <trkpt lat="46.64547" lon="-1.89338">
        <ele>17</ele>
        <time>2020-06-03T15:57:52Z</time>
      </trkpt>
      <trkpt lat="46.64553" lon="-1.89339">
        <ele>17</ele>
        <time>2020-06-03T15:57:53Z</time>
      </trkpt>
      <trkpt lat="46.64558" lon="-1.89342">
        <ele>17.1</ele>
        <time>2020-06-03T15:57:54Z</time>
      </trkpt>
      <trkpt lat="46.64562" lon="-1.89346">
        <ele>17.1</ele>
        <time>2020-06-03T15:57:55Z</time>
      </trkpt>
      <trkpt lat="46.64567" lon="-1.89349">
        <ele>17.2</ele>
        <time>2020-06-03T15:57:56Z</time>
      </trkpt>
      <trkpt lat="46.64572" lon="-1.89349">
        <ele>17.2</ele>
        <time>2020-06-03T15:57:57Z</time>
      </trkpt>
      <trkpt lat="46.64576" lon="-1.89351">
        <ele>17.2</ele>
        <time>2020-06-03T15:57:58Z</time>
      </trkpt>
      <trkpt lat="46.64581" lon="-1.89352">
        <ele>17.1</ele>
        <time>2020-06-03T15:57:59Z</time>
      </trkpt>
      <trkpt lat="46.64586" lon="-1.89353">
        <ele>17.1</ele>
        <time>2020-06-03T15:58:00Z</time>
      </trkpt>
      <trkpt lat="46.64593" lon="-1.89354">
        <ele>17.1</ele>
        <time>2020-06-03T15:58:01Z</time>
      </trkpt>
      <trkpt lat="46.64601" lon="-1.89355">
        <ele>17.1</ele>
        <time>2020-06-03T15:58:02Z</time>
      </trkpt>
      <trkpt lat="46.64608" lon="-1.89357">
        <ele>17</ele>
        <time>2020-06-03T15:58:03Z</time>
      </trkpt>
      <trkpt lat="46.64615" lon="-1.89359">
        <ele>17.1</ele>
        <time>2020-06-03T15:58:04Z</time>
      </trkpt>
      <trkpt lat="46.64621" lon="-1.89362">
        <ele>17.1</ele>
        <time>2020-06-03T15:58:05Z</time>
      </trkpt>
      <trkpt lat="46.64626" lon="-1.89367">
        <ele>17.2</ele>
        <time>2020-06-03T15:58:06Z</time>
      </trkpt>
      <trkpt lat="46.6463" lon="-1.89371">
        <ele>17.3</ele>
        <time>2020-06-03T15:58:07Z</time>
      </trkpt>
      <trkpt lat="46.64633" lon="-1.89377">
        <ele>17.4</ele>
        <time>2020-06-03T15:58:08Z</time>
      </trkpt>
      <trkpt lat="46.64636" lon="-1.89383">
        <ele>17.5</ele>
        <time>2020-06-03T15:58:09Z</time>
      </trkpt>
      <trkpt lat="46.6464" lon="-1.8939">
        <ele>17.7</ele>
        <time>2020-06-03T15:58:10Z</time>
      </trkpt>
      <trkpt lat="46.64643" lon="-1.89394">
        <ele>17.8</ele>
        <time>2020-06-03T15:58:11Z</time>
      </trkpt>
      <trkpt lat="46.64646" lon="-1.89398">
        <ele>17.8</ele>
        <time>2020-06-03T15:58:12Z</time>
      </trkpt>
      <trkpt lat="46.64649" lon="-1.89402">
        <ele>17.9</ele>
        <time>2020-06-03T15:58:13Z</time>
      </trkpt>
      <trkpt lat="46.64653" lon="-1.89406">
        <ele>17.9</ele>
        <time>2020-06-03T15:58:14Z</time>
      </trkpt>
      <trkpt lat="46.64658" lon="-1.89409">
        <ele>17.9</ele>
        <time>2020-06-03T15:58:15Z</time>
      </trkpt>
      <trkpt lat="46.64664" lon="-1.89412">
        <ele>17.9</ele>
        <time>2020-06-03T15:58:16Z</time>
      </trkpt>
      <trkpt lat="46.64669" lon="-1.89415">
        <ele>17.8</ele>
        <time>2020-06-03T15:58:17Z</time>
      </trkpt>
      <trkpt lat="46.64674" lon="-1.89419">
        <ele>17.8</ele>
        <time>2020-06-03T15:58:18Z</time>
      </trkpt>
      <trkpt lat="46.64679" lon="-1.89423">
        <ele>17.7</ele>
        <time>2020-06-03T15:58:19Z</time>
      </trkpt>
      <trkpt lat="46.64685" lon="-1.89426">
        <ele>17.5</ele>
        <time>2020-06-03T15:58:20Z</time>
      </trkpt>
      <trkpt lat="46.64691" lon="-1.89429">
        <ele>17.4</ele>
        <time>2020-06-03T15:58:21Z</time>
      </trkpt>
      <trkpt lat="46.64697" lon="-1.89431">
        <ele>17.2</ele>
        <time>2020-06-03T15:58:22Z</time>
      </trkpt>
      <trkpt lat="46.64702" lon="-1.89433">
        <ele>17</ele>
        <time>2020-06-03T15:58:23Z</time>
      </trkpt>
      <trkpt lat="46.64708" lon="-1.89435">
        <ele>16.8</ele>
        <time>2020-06-03T15:58:24Z</time>
      </trkpt>
      <trkpt lat="46.64715" lon="-1.89438">
        <ele>16.5</ele>
        <time>2020-06-03T15:58:25Z</time>
      </trkpt>
      <trkpt lat="46.64722" lon="-1.89439">
        <ele>16.3</ele>
        <time>2020-06-03T15:58:26Z</time>
      </trkpt>
      <trkpt lat="46.64729" lon="-1.89439">
        <ele>16.2</ele>
        <time>2020-06-03T15:58:27Z</time>
      </trkpt>
      <trkpt lat="46.64735" lon="-1.89441">
        <ele>16.1</ele>
        <time>2020-06-03T15:58:28Z</time>
      </trkpt>
      <trkpt lat="46.64741" lon="-1.89443">
        <ele>16</ele>
        <time>2020-06-03T15:58:29Z</time>
      </trkpt>
      <trkpt lat="46.64746" lon="-1.89444">
        <ele>15.9</ele>
        <time>2020-06-03T15:58:30Z</time>
      </trkpt>
      <trkpt lat="46.64751" lon="-1.89445">
        <ele>15.8</ele>
        <time>2020-06-03T15:58:31Z</time>
      </trkpt>
      <trkpt lat="46.64757" lon="-1.89447">
        <ele>15.8</ele>
        <time>2020-06-03T15:58:32Z</time>
      </trkpt>
      <trkpt lat="46.64762" lon="-1.89447">
        <ele>15.8</ele>
        <time>2020-06-03T15:58:33Z</time>
      </trkpt>
      <trkpt lat="46.64766" lon="-1.89446">
        <ele>15.7</ele>
        <time>2020-06-03T15:58:34Z</time>
      </trkpt>
      <trkpt lat="46.6477" lon="-1.89444">
        <ele>15.7</ele>
        <time>2020-06-03T15:58:35Z</time>
      </trkpt>
      <trkpt lat="46.64774" lon="-1.89439">
        <ele>15.7</ele>
        <time>2020-06-03T15:58:36Z</time>
      </trkpt>
      <trkpt lat="46.64777" lon="-1.89431">
        <ele>15.8</ele>
        <time>2020-06-03T15:58:37Z</time>
      </trkpt>
      <trkpt lat="46.6478" lon="-1.89426">
        <ele>15.8</ele>
        <time>2020-06-03T15:58:38Z</time>
      </trkpt>
      <trkpt lat="46.64782" lon="-1.89422">
        <ele>15.8</ele>
        <time>2020-06-03T15:58:39Z</time>
      </trkpt>
      <trkpt lat="46.64785" lon="-1.89416">
        <ele>15.9</ele>
        <time>2020-06-03T15:58:40Z</time>
      </trkpt>
      <trkpt lat="46.64788" lon="-1.89411">
        <ele>16</ele>
        <time>2020-06-03T15:58:41Z</time>
      </trkpt>
      <trkpt lat="46.64792" lon="-1.89407">
        <ele>16</ele>
        <time>2020-06-03T15:58:42Z</time>
      </trkpt>
      <trkpt lat="46.64797" lon="-1.89406">
        <ele>16.1</ele>
        <time>2020-06-03T15:58:43Z</time>
      </trkpt>
      <trkpt lat="46.64801" lon="-1.89403">
        <ele>16.2</ele>
        <time>2020-06-03T15:58:44Z</time>
      </trkpt>
      <trkpt lat="46.64804" lon="-1.894">
        <ele>16.2</ele>
        <time>2020-06-03T15:58:45Z</time>
      </trkpt>
      <trkpt lat="46.64806" lon="-1.89394">
        <ele>16.3</ele>
        <time>2020-06-03T15:58:46Z</time>
      </trkpt>
      <trkpt lat="46.64806" lon="-1.89388">
        <ele>16.3</ele>
        <time>2020-06-03T15:58:47Z</time>
      </trkpt>
      <trkpt lat="46.64808" lon="-1.89383">
        <ele>16.4</ele>
        <time>2020-06-03T15:58:48Z</time>
      </trkpt>
      <trkpt lat="46.64811" lon="-1.89377">
        <ele>16.4</ele>
        <time>2020-06-03T15:58:49Z</time>
      </trkpt>
      <trkpt lat="46.64814" lon="-1.8937">
        <ele>16.4</ele>
        <time>2020-06-03T15:58:50Z</time>
      </trkpt>
      <trkpt lat="46.64818" lon="-1.89365">
        <ele>16.3</ele>
        <time>2020-06-03T15:58:51Z</time>
      </trkpt>
      <trkpt lat="46.64822" lon="-1.89362">
        <ele>16.3</ele>
        <time>2020-06-03T15:58:52Z</time>
      </trkpt>
      <trkpt lat="46.64826" lon="-1.89359">
        <ele>16.2</ele>
        <time>2020-06-03T15:58:53Z</time>
      </trkpt>
      <trkpt lat="46.64831" lon="-1.89354">
        <ele>16.1</ele>
        <time>2020-06-03T15:58:54Z</time>
      </trkpt>
      <trkpt lat="46.64836" lon="-1.89349">
        <ele>16</ele>
        <time>2020-06-03T15:58:55Z</time>
      </trkpt>
      <trkpt lat="46.64841" lon="-1.89345">
        <ele>15.9</ele>
        <time>2020-06-03T15:58:56Z</time>
      </trkpt>
      <trkpt lat="46.64846" lon="-1.89341">
        <ele>15.8</ele>
        <time>2020-06-03T15:58:57Z</time>
      </trkpt>
      <trkpt lat="46.6485" lon="-1.89338">
        <ele>15.7</ele>
        <time>2020-06-03T15:58:58Z</time>
      </trkpt>
      <trkpt lat="46.64854" lon="-1.89337">
        <ele>15.7</ele>
        <time>2020-06-03T15:58:59Z</time>
      </trkpt>
      <trkpt lat="46.64856" lon="-1.89336">
        <ele>15.7</ele>
        <time>2020-06-03T15:59:00Z</time>
      </trkpt>
      <trkpt lat="46.64859" lon="-1.89335">
        <ele>15.7</ele>
        <time>2020-06-03T15:59:01Z</time>
      </trkpt>
      <trkpt lat="46.64862" lon="-1.89334">
        <ele>15.7</ele>
        <time>2020-06-03T15:59:02Z</time>
      </trkpt>
      <trkpt lat="46.64865" lon="-1.89331">
        <ele>15.7</ele>
        <time>2020-06-03T15:59:03Z</time>
      </trkpt>
      <trkpt lat="46.64868" lon="-1.89328">
        <ele>15.7</ele>
        <time>2020-06-03T15:59:04Z</time>
      </trkpt>
      <trkpt lat="46.64871" lon="-1.89327">
        <ele>15.7</ele>
        <time>2020-06-03T15:59:05Z</time>
      </trkpt>
      <trkpt lat="46.64875" lon="-1.89324">
        <ele>15.7</ele>
        <time>2020-06-03T15:59:06Z</time>
      </trkpt>
      <trkpt lat="46.64876" lon="-1.89323">
        <ele>15.7</ele>
        <time>2020-06-03T15:59:07Z</time>
      </trkpt>
      <trkpt lat="46.6488" lon="-1.8932">
        <ele>15.7</ele>
        <time>2020-06-03T15:59:08Z</time>
      </trkpt>
      <trkpt lat="46.64884" lon="-1.89317">
        <ele>15.6</ele>
        <time>2020-06-03T15:59:09Z</time>
      </trkpt>
      <trkpt lat="46.64888" lon="-1.89316">
        <ele>15.6</ele>
        <time>2020-06-03T15:59:10Z</time>
      </trkpt>
      <trkpt lat="46.64892" lon="-1.89316">
        <ele>15.6</ele>
        <time>2020-06-03T15:59:11Z</time>
      </trkpt>
      <trkpt lat="46.64896" lon="-1.89319">
        <ele>15.5</ele>
        <time>2020-06-03T15:59:12Z</time>
      </trkpt>
      <trkpt lat="46.64899" lon="-1.89323">
        <ele>15.3</ele>
        <time>2020-06-03T15:59:13Z</time>
      </trkpt>
      <trkpt lat="46.64902" lon="-1.89327">
        <ele>15.3</ele>
        <time>2020-06-03T15:59:14Z</time>
      </trkpt>
      <trkpt lat="46.64905" lon="-1.89331">
        <ele>15.2</ele>
        <time>2020-06-03T15:59:15Z</time>
      </trkpt>
      <trkpt lat="46.64909" lon="-1.89336">
        <ele>15.2</ele>
        <time>2020-06-03T15:59:16Z</time>
      </trkpt>
      <trkpt lat="46.64913" lon="-1.89339">
        <ele>15.1</ele>
        <time>2020-06-03T15:59:17Z</time>
      </trkpt>
      <trkpt lat="46.64916" lon="-1.89344">
        <ele>15.1</ele>
        <time>2020-06-03T15:59:18Z</time>
      </trkpt>
      <trkpt lat="46.64919" lon="-1.89348">
        <ele>15.1</ele>
        <time>2020-06-03T15:59:19Z</time>
      </trkpt>
      <trkpt lat="46.64921" lon="-1.89351">
        <ele>15</ele>
        <time>2020-06-03T15:59:20Z</time>
      </trkpt>
      <trkpt lat="46.64923" lon="-1.89354">
        <ele>15</ele>
        <time>2020-06-03T15:59:21Z</time>
      </trkpt>
      <trkpt lat="46.64924" lon="-1.89358">
        <ele>15</ele>
        <time>2020-06-03T15:59:22Z</time>
      </trkpt>
      <trkpt lat="46.64925" lon="-1.89362">
        <ele>14.9</ele>
        <time>2020-06-03T15:59:23Z</time>
      </trkpt>
      <trkpt lat="46.64926" lon="-1.8937">
        <ele>14.9</ele>
        <time>2020-06-03T15:59:24Z</time>
      </trkpt>
      <trkpt lat="46.64928" lon="-1.89378">
        <ele>14.8</ele>
        <time>2020-06-03T15:59:25Z</time>
      </trkpt>
      <trkpt lat="46.6493" lon="-1.89387">
        <ele>14.7</ele>
        <time>2020-06-03T15:59:26Z</time>
      </trkpt>
      <trkpt lat="46.64933" lon="-1.89396">
        <ele>14.6</ele>
        <time>2020-06-03T15:59:27Z</time>
      </trkpt>
      <trkpt lat="46.64935" lon="-1.89404">
        <ele>14.6</ele>
        <time>2020-06-03T15:59:28Z</time>
      </trkpt>
      <trkpt lat="46.64938" lon="-1.89411">
        <ele>14.5</ele>
        <time>2020-06-03T15:59:29Z</time>
      </trkpt>
      <trkpt lat="46.64941" lon="-1.89419">
        <ele>14.4</ele>
        <time>2020-06-03T15:59:30Z</time>
      </trkpt>
      <trkpt lat="46.64945" lon="-1.89429">
        <ele>14.4</ele>
        <time>2020-06-03T15:59:31Z</time>
      </trkpt>
      <trkpt lat="46.64948" lon="-1.89437">
        <ele>14.3</ele>
        <time>2020-06-03T15:59:32Z</time>
      </trkpt>
      <trkpt lat="46.64952" lon="-1.89443">
        <ele>14.3</ele>
        <time>2020-06-03T15:59:33Z</time>
      </trkpt>
      <trkpt lat="46.64956" lon="-1.89449">
        <ele>14.2</ele>
        <time>2020-06-03T15:59:34Z</time>
      </trkpt>
      <trkpt lat="46.6496" lon="-1.89456">
        <ele>14.2</ele>
        <time>2020-06-03T15:59:35Z</time>
      </trkpt>
      <trkpt lat="46.64963" lon="-1.89463">
        <ele>14.1</ele>
        <time>2020-06-03T15:59:36Z</time>
      </trkpt>
      <trkpt lat="46.64967" lon="-1.89469">
        <ele>14.1</ele>
        <time>2020-06-03T15:59:37Z</time>
      </trkpt>
      <trkpt lat="46.64971" lon="-1.89476">
        <ele>14.1</ele>
        <time>2020-06-03T15:59:38Z</time>
      </trkpt>
      <trkpt lat="46.64974" lon="-1.89482">
        <ele>14.1</ele>
        <time>2020-06-03T15:59:39Z</time>
      </trkpt>
      <trkpt lat="46.64977" lon="-1.89489">
        <ele>14.1</ele>
        <time>2020-06-03T15:59:40Z</time>
      </trkpt>
      <trkpt lat="46.6498" lon="-1.89497">
        <ele>14.2</ele>
        <time>2020-06-03T15:59:41Z</time>
      </trkpt>
      <trkpt lat="46.64983" lon="-1.89506">
        <ele>14.1</ele>
        <time>2020-06-03T15:59:42Z</time>
      </trkpt>
      <trkpt lat="46.64984" lon="-1.89516">
        <ele>14.1</ele>
        <time>2020-06-03T15:59:43Z</time>
      </trkpt>
      <trkpt lat="46.64986" lon="-1.89524">
        <ele>14.1</ele>
        <time>2020-06-03T15:59:44Z</time>
      </trkpt>
      <trkpt lat="46.64989" lon="-1.89531">
        <ele>14.1</ele>
        <time>2020-06-03T15:59:45Z</time>
      </trkpt>
      <trkpt lat="46.64992" lon="-1.89539">
        <ele>14.1</ele>
        <time>2020-06-03T15:59:46Z</time>
      </trkpt>
      <trkpt lat="46.64995" lon="-1.89547">
        <ele>14</ele>
        <time>2020-06-03T15:59:47Z</time>
      </trkpt>
      <trkpt lat="46.64998" lon="-1.89555">
        <ele>14</ele>
        <time>2020-06-03T15:59:48Z</time>
      </trkpt>
      <trkpt lat="46.65" lon="-1.89563">
        <ele>14</ele>
        <time>2020-06-03T15:59:49Z</time>
      </trkpt>
      <trkpt lat="46.65002" lon="-1.89572">
        <ele>13.9</ele>
        <time>2020-06-03T15:59:50Z</time>
      </trkpt>
      <trkpt lat="46.65005" lon="-1.89579">
        <ele>13.8</ele>
        <time>2020-06-03T15:59:51Z</time>
      </trkpt>
      <trkpt lat="46.65008" lon="-1.89587">
        <ele>13.7</ele>
        <time>2020-06-03T15:59:52Z</time>
      </trkpt>
      <trkpt lat="46.65011" lon="-1.89595">
        <ele>13.6</ele>
        <time>2020-06-03T15:59:53Z</time>
      </trkpt>
      <trkpt lat="46.65014" lon="-1.89601">
        <ele>13.5</ele>
        <time>2020-06-03T15:59:54Z</time>
      </trkpt>
      <trkpt lat="46.65018" lon="-1.89608">
        <ele>13.5</ele>
        <time>2020-06-03T15:59:55Z</time>
      </trkpt>
      <trkpt lat="46.65022" lon="-1.89616">
        <ele>13.4</ele>
        <time>2020-06-03T15:59:56Z</time>
      </trkpt>
      <trkpt lat="46.65026" lon="-1.89622">
        <ele>13.3</ele>
        <time>2020-06-03T15:59:57Z</time>
      </trkpt>
      <trkpt lat="46.65031" lon="-1.89628">
        <ele>13.3</ele>
        <time>2020-06-03T15:59:58Z</time>
      </trkpt>
      <trkpt lat="46.65035" lon="-1.89633">
        <ele>13.3</ele>
        <time>2020-06-03T15:59:59Z</time>
      </trkpt>
      <trkpt lat="46.6504" lon="-1.8964">
        <ele>13.3</ele>
        <time>2020-06-03T16:00:00Z</time>
      </trkpt>
      <trkpt lat="46.65044" lon="-1.89647">
        <ele>13.3</ele>
        <time>2020-06-03T16:00:01Z</time>
      </trkpt>
      <trkpt lat="46.65047" lon="-1.89652">
        <ele>13.3</ele>
        <time>2020-06-03T16:00:02Z</time>
      </trkpt>
      <trkpt lat="46.6505" lon="-1.89657">
        <ele>13.3</ele>
        <time>2020-06-03T16:00:03Z</time>
      </trkpt>
      <trkpt lat="46.65052" lon="-1.89664">
        <ele>13.3</ele>
        <time>2020-06-03T16:00:04Z</time>
      </trkpt>
      <trkpt lat="46.65055" lon="-1.8967">
        <ele>13.3</ele>
        <time>2020-06-03T16:00:05Z</time>
      </trkpt>
      <trkpt lat="46.65057" lon="-1.89675">
        <ele>13.3</ele>
        <time>2020-06-03T16:00:06Z</time>
      </trkpt>
      <trkpt lat="46.65059" lon="-1.89678">
        <ele>13.3</ele>
        <time>2020-06-03T16:00:07Z</time>
      </trkpt>
      <trkpt lat="46.65059" lon="-1.89678">
        <ele>13.3</ele>
        <time>2020-06-03T16:00:08Z</time>
      </trkpt>
      <trkpt lat="46.65062" lon="-1.89682">
        <ele>13.3</ele>
        <time>2020-06-03T16:00:09Z</time>
      </trkpt>
      <trkpt lat="46.65063" lon="-1.89683">
        <ele>13.3</ele>
        <time>2020-06-03T16:00:10Z</time>
      </trkpt>
      <trkpt lat="46.65065" lon="-1.89688">
        <ele>13.3</ele>
        <time>2020-06-03T16:00:11Z</time>
      </trkpt>
      <trkpt lat="46.65065" lon="-1.8969">
        <ele>13.3</ele>
        <time>2020-06-03T16:00:12Z</time>
      </trkpt>
      <trkpt lat="46.65066" lon="-1.89694">
        <ele>13.3</ele>
        <time>2020-06-03T16:00:13Z</time>
      </trkpt>
      <trkpt lat="46.65066" lon="-1.89696">
        <ele>13.3</ele>
        <time>2020-06-03T16:00:14Z</time>
      </trkpt>
      <trkpt lat="46.65066" lon="-1.89697">
        <ele>13.3</ele>
        <time>2020-06-03T16:00:15Z</time>
      </trkpt>
      <trkpt lat="46.65067" lon="-1.89698">
        <ele>13.3</ele>
        <time>2020-06-03T16:00:16Z</time>
      </trkpt>
      <trkpt lat="46.65068" lon="-1.89699">
        <ele>13.1</ele>
        <time>2020-06-03T16:00:17Z</time>
      </trkpt>
      <trkpt lat="46.65069" lon="-1.89699">
        <ele>13.1</ele>
        <time>2020-06-03T16:00:18Z</time>
      </trkpt>
      <trkpt lat="46.65071" lon="-1.897">
        <ele>13</ele>
        <time>2020-06-03T16:00:19Z</time>
      </trkpt>
      <trkpt lat="46.65074" lon="-1.897">
        <ele>12.9</ele>
        <time>2020-06-03T16:00:20Z</time>
      </trkpt>
      <trkpt lat="46.65075" lon="-1.89701">
        <ele>12.9</ele>
        <time>2020-06-03T16:00:21Z</time>
      </trkpt>
      <trkpt lat="46.65079" lon="-1.89704">
        <ele>12.7</ele>
        <time>2020-06-03T16:00:22Z</time>
      </trkpt>
      <trkpt lat="46.6508" lon="-1.89705">
        <ele>12.6</ele>
        <time>2020-06-03T16:00:23Z</time>
      </trkpt>
      <trkpt lat="46.65084" lon="-1.89708">
        <ele>12.5</ele>
        <time>2020-06-03T16:00:24Z</time>
      </trkpt>
      <trkpt lat="46.65086" lon="-1.89714">
        <ele>12.3</ele>
        <time>2020-06-03T16:00:25Z</time>
      </trkpt>
      <trkpt lat="46.65088" lon="-1.89719">
        <ele>12.1</ele>
        <time>2020-06-03T16:00:26Z</time>
      </trkpt>
      <trkpt lat="46.65091" lon="-1.89725">
        <ele>12</ele>
        <time>2020-06-03T16:00:27Z</time>
      </trkpt>
      <trkpt lat="46.65094" lon="-1.8973">
        <ele>11.8</ele>
        <time>2020-06-03T16:00:28Z</time>
      </trkpt>
      <trkpt lat="46.65097" lon="-1.89734">
        <ele>11.7</ele>
        <time>2020-06-03T16:00:29Z</time>
      </trkpt>
      <trkpt lat="46.651" lon="-1.89738">
        <ele>11.6</ele>
        <time>2020-06-03T16:00:30Z</time>
      </trkpt>
      <trkpt lat="46.65105" lon="-1.89741">
        <ele>11.4</ele>
        <time>2020-06-03T16:00:31Z</time>
      </trkpt>
      <trkpt lat="46.6511" lon="-1.89744">
        <ele>11.3</ele>
        <time>2020-06-03T16:00:32Z</time>
      </trkpt>
      <trkpt lat="46.65115" lon="-1.89748">
        <ele>11.1</ele>
        <time>2020-06-03T16:00:33Z</time>
      </trkpt>
      <trkpt lat="46.65121" lon="-1.89752">
        <ele>11</ele>
        <time>2020-06-03T16:00:34Z</time>
      </trkpt>
      <trkpt lat="46.65127" lon="-1.89754">
        <ele>10.9</ele>
        <time>2020-06-03T16:00:35Z</time>
      </trkpt>
      <trkpt lat="46.65135" lon="-1.89756">
        <ele>10.7</ele>
        <time>2020-06-03T16:00:36Z</time>
      </trkpt>
      <trkpt lat="46.65142" lon="-1.89756">
        <ele>10.6</ele>
        <time>2020-06-03T16:00:37Z</time>
      </trkpt>
      <trkpt lat="46.65149" lon="-1.89753">
        <ele>10.5</ele>
        <time>2020-06-03T16:00:38Z</time>
      </trkpt>
      <trkpt lat="46.65155" lon="-1.89751">
        <ele>10.4</ele>
        <time>2020-06-03T16:00:39Z</time>
      </trkpt>
      <trkpt lat="46.65161" lon="-1.89746">
        <ele>10.3</ele>
        <time>2020-06-03T16:00:40Z</time>
      </trkpt>
      <trkpt lat="46.65166" lon="-1.89741">
        <ele>10.2</ele>
        <time>2020-06-03T16:00:41Z</time>
      </trkpt>
      <trkpt lat="46.65172" lon="-1.89736">
        <ele>10</ele>
        <time>2020-06-03T16:00:42Z</time>
      </trkpt>
      <trkpt lat="46.65176" lon="-1.89731">
        <ele>9.9</ele>
        <time>2020-06-03T16:00:43Z</time>
      </trkpt>
      <trkpt lat="46.65181" lon="-1.89725">
        <ele>9.7</ele>
        <time>2020-06-03T16:00:44Z</time>
      </trkpt>
      <trkpt lat="46.65186" lon="-1.8972">
        <ele>9.6</ele>
        <time>2020-06-03T16:00:45Z</time>
      </trkpt>
      <trkpt lat="46.65191" lon="-1.89714">
        <ele>9.5</ele>
        <time>2020-06-03T16:00:46Z</time>
      </trkpt>
      <trkpt lat="46.65197" lon="-1.8971">
        <ele>9.3</ele>
        <time>2020-06-03T16:00:47Z</time>
      </trkpt>
      <trkpt lat="46.65204" lon="-1.89707">
        <ele>9.2</ele>
        <time>2020-06-03T16:00:48Z</time>
      </trkpt>
      <trkpt lat="46.6521" lon="-1.89705">
        <ele>9.1</ele>
        <time>2020-06-03T16:00:49Z</time>
      </trkpt>
      <trkpt lat="46.65217" lon="-1.89704">
        <ele>9.1</ele>
        <time>2020-06-03T16:00:50Z</time>
      </trkpt>
      <trkpt lat="46.65224" lon="-1.89704">
        <ele>9.1</ele>
        <time>2020-06-03T16:00:51Z</time>
      </trkpt>
      <trkpt lat="46.65229" lon="-1.89706">
        <ele>9.1</ele>
        <time>2020-06-03T16:00:52Z</time>
      </trkpt>
      <trkpt lat="46.65235" lon="-1.89707">
        <ele>9.1</ele>
        <time>2020-06-03T16:00:53Z</time>
      </trkpt>
      <trkpt lat="46.6524" lon="-1.89708">
        <ele>9.1</ele>
        <time>2020-06-03T16:00:54Z</time>
      </trkpt>
      <trkpt lat="46.65246" lon="-1.8971">
        <ele>9.1</ele>
        <time>2020-06-03T16:00:55Z</time>
      </trkpt>
      <trkpt lat="46.65252" lon="-1.89713">
        <ele>9.2</ele>
        <time>2020-06-03T16:00:56Z</time>
      </trkpt>
      <trkpt lat="46.65257" lon="-1.89716">
        <ele>9.2</ele>
        <time>2020-06-03T16:00:57Z</time>
      </trkpt>
      <trkpt lat="46.65263" lon="-1.8972">
        <ele>9.2</ele>
        <time>2020-06-03T16:00:58Z</time>
      </trkpt>
      <trkpt lat="46.65269" lon="-1.89725">
        <ele>9.2</ele>
        <time>2020-06-03T16:00:59Z</time>
      </trkpt>
      <trkpt lat="46.65273" lon="-1.8973">
        <ele>9.2</ele>
        <time>2020-06-03T16:01:00Z</time>
      </trkpt>
      <trkpt lat="46.65279" lon="-1.89736">
        <ele>9.2</ele>
        <time>2020-06-03T16:01:01Z</time>
      </trkpt>
      <trkpt lat="46.65284" lon="-1.89741">
        <ele>9.1</ele>
        <time>2020-06-03T16:01:02Z</time>
      </trkpt>
      <trkpt lat="46.65288" lon="-1.89746">
        <ele>9.1</ele>
        <time>2020-06-03T16:01:03Z</time>
      </trkpt>
      <trkpt lat="46.65293" lon="-1.89751">
        <ele>9.1</ele>
        <time>2020-06-03T16:01:04Z</time>
      </trkpt>
      <trkpt lat="46.65297" lon="-1.89757">
        <ele>9.1</ele>
        <time>2020-06-03T16:01:05Z</time>
      </trkpt>
      <trkpt lat="46.65301" lon="-1.89762">
        <ele>9.1</ele>
        <time>2020-06-03T16:01:06Z</time>
      </trkpt>
      <trkpt lat="46.65305" lon="-1.89767">
        <ele>9.1</ele>
        <time>2020-06-03T16:01:07Z</time>
      </trkpt>
      <trkpt lat="46.6531" lon="-1.89767">
        <ele>9.1</ele>
        <time>2020-06-03T16:01:08Z</time>
      </trkpt>
      <trkpt lat="46.65314" lon="-1.89767">
        <ele>9</ele>
        <time>2020-06-03T16:01:09Z</time>
      </trkpt>
      <trkpt lat="46.65317" lon="-1.89766">
        <ele>9</ele>
        <time>2020-06-03T16:01:10Z</time>
      </trkpt>
      <trkpt lat="46.65321" lon="-1.89762">
        <ele>9</ele>
        <time>2020-06-03T16:01:11Z</time>
      </trkpt>
      <trkpt lat="46.65325" lon="-1.89758">
        <ele>8.9</ele>
        <time>2020-06-03T16:01:12Z</time>
      </trkpt>
      <trkpt lat="46.6533" lon="-1.89754">
        <ele>8.8</ele>
        <time>2020-06-03T16:01:13Z</time>
      </trkpt>
      <trkpt lat="46.65334" lon="-1.8975">
        <ele>8.7</ele>
        <time>2020-06-03T16:01:14Z</time>
      </trkpt>
      <trkpt lat="46.65338" lon="-1.89746">
        <ele>8.6</ele>
        <time>2020-06-03T16:01:15Z</time>
      </trkpt>
      <trkpt lat="46.65344" lon="-1.89741">
        <ele>8.4</ele>
        <time>2020-06-03T16:01:16Z</time>
      </trkpt>
      <trkpt lat="46.65349" lon="-1.89736">
        <ele>8.3</ele>
        <time>2020-06-03T16:01:17Z</time>
      </trkpt>
      <trkpt lat="46.65354" lon="-1.89732">
        <ele>8.1</ele>
        <time>2020-06-03T16:01:18Z</time>
      </trkpt>
      <trkpt lat="46.65359" lon="-1.89727">
        <ele>8</ele>
        <time>2020-06-03T16:01:19Z</time>
      </trkpt>
      <trkpt lat="46.65363" lon="-1.89723">
        <ele>7.8</ele>
        <time>2020-06-03T16:01:20Z</time>
      </trkpt>
      <trkpt lat="46.65368" lon="-1.89718">
        <ele>7.7</ele>
        <time>2020-06-03T16:01:21Z</time>
      </trkpt>
      <trkpt lat="46.65372" lon="-1.89713">
        <ele>7.6</ele>
        <time>2020-06-03T16:01:22Z</time>
      </trkpt>
      <trkpt lat="46.65377" lon="-1.89708">
        <ele>7.5</ele>
        <time>2020-06-03T16:01:23Z</time>
      </trkpt>
      <trkpt lat="46.65382" lon="-1.897">
        <ele>7.3</ele>
        <time>2020-06-03T16:01:24Z</time>
      </trkpt>
      <trkpt lat="46.65386" lon="-1.89693">
        <ele>7.2</ele>
        <time>2020-06-03T16:01:25Z</time>
      </trkpt>
      <trkpt lat="46.65389" lon="-1.89685">
        <ele>7.1</ele>
        <time>2020-06-03T16:01:26Z</time>
      </trkpt>
      <trkpt lat="46.65393" lon="-1.89678">
        <ele>6.9</ele>
        <time>2020-06-03T16:01:27Z</time>
      </trkpt>
      <trkpt lat="46.65397" lon="-1.89671">
        <ele>6.8</ele>
        <time>2020-06-03T16:01:28Z</time>
      </trkpt>
      <trkpt lat="46.65401" lon="-1.89663">
        <ele>6.7</ele>
        <time>2020-06-03T16:01:29Z</time>
      </trkpt>
      <trkpt lat="46.65404" lon="-1.89656">
        <ele>6.6</ele>
        <time>2020-06-03T16:01:30Z</time>
      </trkpt>
      <trkpt lat="46.65408" lon="-1.8965">
        <ele>6.6</ele>
        <time>2020-06-03T16:01:31Z</time>
      </trkpt>
      <trkpt lat="46.65412" lon="-1.89644">
        <ele>6.5</ele>
        <time>2020-06-03T16:01:32Z</time>
      </trkpt>
      <trkpt lat="46.65416" lon="-1.89638">
        <ele>6.5</ele>
        <time>2020-06-03T16:01:33Z</time>
      </trkpt>
      <trkpt lat="46.6542" lon="-1.89634">
        <ele>6.4</ele>
        <time>2020-06-03T16:01:34Z</time>
      </trkpt>
      <trkpt lat="46.65424" lon="-1.89628">
        <ele>6.3</ele>
        <time>2020-06-03T16:01:35Z</time>
      </trkpt>
      <trkpt lat="46.65427" lon="-1.89624">
        <ele>6.2</ele>
        <time>2020-06-03T16:01:36Z</time>
      </trkpt>
      <trkpt lat="46.6543" lon="-1.8962">
        <ele>6.2</ele>
        <time>2020-06-03T16:01:37Z</time>
      </trkpt>
      <trkpt lat="46.65434" lon="-1.89617">
        <ele>6.1</ele>
        <time>2020-06-03T16:01:38Z</time>
      </trkpt>
      <trkpt lat="46.65438" lon="-1.89614">
        <ele>6</ele>
        <time>2020-06-03T16:01:39Z</time>
      </trkpt>
      <trkpt lat="46.65442" lon="-1.89611">
        <ele>5.9</ele>
        <time>2020-06-03T16:01:40Z</time>
      </trkpt>
      <trkpt lat="46.65448" lon="-1.89609">
        <ele>5.8</ele>
        <time>2020-06-03T16:01:41Z</time>
      </trkpt>
      <trkpt lat="46.65453" lon="-1.89608">
        <ele>5.8</ele>
        <time>2020-06-03T16:01:42Z</time>
      </trkpt>
      <trkpt lat="46.65459" lon="-1.89609">
        <ele>5.8</ele>
        <time>2020-06-03T16:01:43Z</time>
      </trkpt>
      <trkpt lat="46.65465" lon="-1.89611">
        <ele>5.8</ele>
        <time>2020-06-03T16:01:44Z</time>
      </trkpt>
      <trkpt lat="46.65471" lon="-1.89613">
        <ele>5.7</ele>
        <time>2020-06-03T16:01:45Z</time>
      </trkpt>
      <trkpt lat="46.65477" lon="-1.89616">
        <ele>5.7</ele>
        <time>2020-06-03T16:01:46Z</time>
      </trkpt>
      <trkpt lat="46.65482" lon="-1.89618">
        <ele>5.7</ele>
        <time>2020-06-03T16:01:47Z</time>
      </trkpt>
      <trkpt lat="46.65487" lon="-1.89621">
        <ele>5.7</ele>
        <time>2020-06-03T16:01:48Z</time>
      </trkpt>
      <trkpt lat="46.65493" lon="-1.89624">
        <ele>5.7</ele>
        <time>2020-06-03T16:01:49Z</time>
      </trkpt>
      <trkpt lat="46.65499" lon="-1.89627">
        <ele>5.7</ele>
        <time>2020-06-03T16:01:50Z</time>
      </trkpt>
      <trkpt lat="46.65505" lon="-1.8963">
        <ele>5.7</ele>
        <time>2020-06-03T16:01:51Z</time>
      </trkpt>
      <trkpt lat="46.65511" lon="-1.89635">
        <ele>5.7</ele>
        <time>2020-06-03T16:01:52Z</time>
      </trkpt>
      <trkpt lat="46.65517" lon="-1.8964">
        <ele>5.7</ele>
        <time>2020-06-03T16:01:53Z</time>
      </trkpt>
      <trkpt lat="46.65523" lon="-1.89645">
        <ele>5.6</ele>
        <time>2020-06-03T16:01:54Z</time>
      </trkpt>
      <trkpt lat="46.65528" lon="-1.8965">
        <ele>5.6</ele>
        <time>2020-06-03T16:01:55Z</time>
      </trkpt>
      <trkpt lat="46.65533" lon="-1.89655">
        <ele>5.5</ele>
        <time>2020-06-03T16:01:56Z</time>
      </trkpt>
      <trkpt lat="46.65538" lon="-1.8966">
        <ele>5.5</ele>
        <time>2020-06-03T16:01:57Z</time>
      </trkpt>
      <trkpt lat="46.65544" lon="-1.89665">
        <ele>5.5</ele>
        <time>2020-06-03T16:01:58Z</time>
      </trkpt>
      <trkpt lat="46.65549" lon="-1.89668">
        <ele>5.5</ele>
        <time>2020-06-03T16:01:59Z</time>
      </trkpt>
      <trkpt lat="46.65555" lon="-1.89673">
        <ele>5.5</ele>
        <time>2020-06-03T16:02:00Z</time>
      </trkpt>
      <trkpt lat="46.65561" lon="-1.89677">
        <ele>5.5</ele>
        <time>2020-06-03T16:02:01Z</time>
      </trkpt>
      <trkpt lat="46.65566" lon="-1.8968">
        <ele>5.5</ele>
        <time>2020-06-03T16:02:02Z</time>
      </trkpt>
      <trkpt lat="46.65571" lon="-1.89685">
        <ele>5.5</ele>
        <time>2020-06-03T16:02:03Z</time>
      </trkpt>
      <trkpt lat="46.65577" lon="-1.89689">
        <ele>5.5</ele>
        <time>2020-06-03T16:02:04Z</time>
      </trkpt>
      <trkpt lat="46.65582" lon="-1.89692">
        <ele>5.4</ele>
        <time>2020-06-03T16:02:05Z</time>
      </trkpt>
      <trkpt lat="46.65587" lon="-1.89696">
        <ele>5.4</ele>
        <time>2020-06-03T16:02:06Z</time>
      </trkpt>
      <trkpt lat="46.65592" lon="-1.89699">
        <ele>5.3</ele>
        <time>2020-06-03T16:02:07Z</time>
      </trkpt>
      <trkpt lat="46.65596" lon="-1.89702">
        <ele>5.2</ele>
        <time>2020-06-03T16:02:08Z</time>
      </trkpt>
      <trkpt lat="46.65602" lon="-1.89705">
        <ele>5.2</ele>
        <time>2020-06-03T16:02:09Z</time>
      </trkpt>
      <trkpt lat="46.65606" lon="-1.89708">
        <ele>5.1</ele>
        <time>2020-06-03T16:02:10Z</time>
      </trkpt>
      <trkpt lat="46.65611" lon="-1.89711">
        <ele>5</ele>
        <time>2020-06-03T16:02:11Z</time>
      </trkpt>
      <trkpt lat="46.65615" lon="-1.89714">
        <ele>5</ele>
        <time>2020-06-03T16:02:12Z</time>
      </trkpt>
      <trkpt lat="46.65619" lon="-1.89716">
        <ele>4.9</ele>
        <time>2020-06-03T16:02:13Z</time>
      </trkpt>
      <trkpt lat="46.65622" lon="-1.89718">
        <ele>4.9</ele>
        <time>2020-06-03T16:02:14Z</time>
      </trkpt>
      <trkpt lat="46.65625" lon="-1.89719">
        <ele>4.9</ele>
        <time>2020-06-03T16:02:15Z</time>
      </trkpt>
      <trkpt lat="46.65626" lon="-1.8972">
        <ele>4.9</ele>
        <time>2020-06-03T16:02:16Z</time>
      </trkpt>
      <trkpt lat="46.6563" lon="-1.89721">
        <ele>4.9</ele>
        <time>2020-06-03T16:02:17Z</time>
      </trkpt>
      <trkpt lat="46.65634" lon="-1.89725">
        <ele>4.8</ele>
        <time>2020-06-03T16:02:18Z</time>
      </trkpt>
      <trkpt lat="46.65639" lon="-1.89729">
        <ele>4.8</ele>
        <time>2020-06-03T16:02:19Z</time>
      </trkpt>
      <trkpt lat="46.65646" lon="-1.89734">
        <ele>4.8</ele>
        <time>2020-06-03T16:02:20Z</time>
      </trkpt>
      <trkpt lat="46.65652" lon="-1.89739">
        <ele>4.8</ele>
        <time>2020-06-03T16:02:21Z</time>
      </trkpt>
      <trkpt lat="46.65659" lon="-1.89744">
        <ele>4.8</ele>
        <time>2020-06-03T16:02:22Z</time>
      </trkpt>
      <trkpt lat="46.65664" lon="-1.89748">
        <ele>4.8</ele>
        <time>2020-06-03T16:02:23Z</time>
      </trkpt>
      <trkpt lat="46.65669" lon="-1.8975">
        <ele>4.8</ele>
        <time>2020-06-03T16:02:24Z</time>
      </trkpt>
      <trkpt lat="46.65673" lon="-1.89753">
        <ele>4.8</ele>
        <time>2020-06-03T16:02:25Z</time>
      </trkpt>
      <trkpt lat="46.65678" lon="-1.89756">
        <ele>4.8</ele>
        <time>2020-06-03T16:02:26Z</time>
      </trkpt>
      <trkpt lat="46.65682" lon="-1.89758">
        <ele>4.7</ele>
        <time>2020-06-03T16:02:27Z</time>
      </trkpt>
      <trkpt lat="46.65686" lon="-1.89761">
        <ele>4.7</ele>
        <time>2020-06-03T16:02:28Z</time>
      </trkpt>
      <trkpt lat="46.6569" lon="-1.89764">
        <ele>4.7</ele>
        <time>2020-06-03T16:02:29Z</time>
      </trkpt>
      <trkpt lat="46.65694" lon="-1.89767">
        <ele>4.6</ele>
        <time>2020-06-03T16:02:30Z</time>
      </trkpt>
      <trkpt lat="46.65698" lon="-1.8977">
        <ele>4.6</ele>
        <time>2020-06-03T16:02:31Z</time>
      </trkpt>
      <trkpt lat="46.65702" lon="-1.89776">
        <ele>4.5</ele>
        <time>2020-06-03T16:02:32Z</time>
      </trkpt>
      <trkpt lat="46.65706" lon="-1.89781">
        <ele>4.5</ele>
        <time>2020-06-03T16:02:33Z</time>
      </trkpt>
      <trkpt lat="46.65711" lon="-1.89785">
        <ele>4.4</ele>
        <time>2020-06-03T16:02:34Z</time>
      </trkpt>
      <trkpt lat="46.65716" lon="-1.89789">
        <ele>4.4</ele>
        <time>2020-06-03T16:02:35Z</time>
      </trkpt>
      <trkpt lat="46.65722" lon="-1.89792">
        <ele>4.4</ele>
        <time>2020-06-03T16:02:36Z</time>
      </trkpt>
      <trkpt lat="46.65728" lon="-1.89796">
        <ele>4.3</ele>
        <time>2020-06-03T16:02:37Z</time>
      </trkpt>
      <trkpt lat="46.65735" lon="-1.898">
        <ele>4.3</ele>
        <time>2020-06-03T16:02:38Z</time>
      </trkpt>
      <trkpt lat="46.6574" lon="-1.89804">
        <ele>4.3</ele>
        <time>2020-06-03T16:02:39Z</time>
      </trkpt>
      <trkpt lat="46.65746" lon="-1.89807">
        <ele>4.3</ele>
        <time>2020-06-03T16:02:40Z</time>
      </trkpt>
      <trkpt lat="46.65752" lon="-1.8981">
        <ele>4.3</ele>
        <time>2020-06-03T16:02:41Z</time>
      </trkpt>
      <trkpt lat="46.65758" lon="-1.89813">
        <ele>4.2</ele>
        <time>2020-06-03T16:02:42Z</time>
      </trkpt>
      <trkpt lat="46.65763" lon="-1.89816">
        <ele>4.2</ele>
        <time>2020-06-03T16:02:43Z</time>
      </trkpt>
      <trkpt lat="46.65768" lon="-1.89818">
        <ele>4.2</ele>
        <time>2020-06-03T16:02:44Z</time>
      </trkpt>
      <trkpt lat="46.65773" lon="-1.8982">
        <ele>4.1</ele>
        <time>2020-06-03T16:02:45Z</time>
      </trkpt>
      <trkpt lat="46.65779" lon="-1.89823">
        <ele>4.1</ele>
        <time>2020-06-03T16:02:46Z</time>
      </trkpt>
      <trkpt lat="46.65785" lon="-1.89826">
        <ele>4</ele>
        <time>2020-06-03T16:02:47Z</time>
      </trkpt>
      <trkpt lat="46.65791" lon="-1.89828">
        <ele>4</ele>
        <time>2020-06-03T16:02:48Z</time>
      </trkpt>
      <trkpt lat="46.65796" lon="-1.89832">
        <ele>3.9</ele>
        <time>2020-06-03T16:02:49Z</time>
      </trkpt>
      <trkpt lat="46.65802" lon="-1.89836">
        <ele>3.9</ele>
        <time>2020-06-03T16:02:50Z</time>
      </trkpt>
      <trkpt lat="46.65808" lon="-1.8984">
        <ele>3.8</ele>
        <time>2020-06-03T16:02:51Z</time>
      </trkpt>
      <trkpt lat="46.65814" lon="-1.89844">
        <ele>3.8</ele>
        <time>2020-06-03T16:02:52Z</time>
      </trkpt>
      <trkpt lat="46.65819" lon="-1.89849">
        <ele>3.8</ele>
        <time>2020-06-03T16:02:53Z</time>
      </trkpt>
      <trkpt lat="46.65824" lon="-1.89853">
        <ele>3.8</ele>
        <time>2020-06-03T16:02:54Z</time>
      </trkpt>
      <trkpt lat="46.6583" lon="-1.89858">
        <ele>3.8</ele>
        <time>2020-06-03T16:02:55Z</time>
      </trkpt>
      <trkpt lat="46.65835" lon="-1.89864">
        <ele>3.8</ele>
        <time>2020-06-03T16:02:56Z</time>
      </trkpt>
      <trkpt lat="46.6584" lon="-1.89869">
        <ele>3.8</ele>
        <time>2020-06-03T16:02:57Z</time>
      </trkpt>
      <trkpt lat="46.65845" lon="-1.89873">
        <ele>3.8</ele>
        <time>2020-06-03T16:02:58Z</time>
      </trkpt>
      <trkpt lat="46.65851" lon="-1.89877">
        <ele>3.8</ele>
        <time>2020-06-03T16:02:59Z</time>
      </trkpt>
      <trkpt lat="46.65857" lon="-1.89881">
        <ele>3.8</ele>
        <time>2020-06-03T16:03:00Z</time>
      </trkpt>
      <trkpt lat="46.65863" lon="-1.89885">
        <ele>3.8</ele>
        <time>2020-06-03T16:03:01Z</time>
      </trkpt>
      <trkpt lat="46.65868" lon="-1.89889">
        <ele>3.8</ele>
        <time>2020-06-03T16:03:02Z</time>
      </trkpt>
      <trkpt lat="46.65873" lon="-1.89893">
        <ele>3.8</ele>
        <time>2020-06-03T16:03:03Z</time>
      </trkpt>
      <trkpt lat="46.65877" lon="-1.89894">
        <ele>3.8</ele>
        <time>2020-06-03T16:03:04Z</time>
      </trkpt>
      <trkpt lat="46.65882" lon="-1.89896">
        <ele>3.8</ele>
        <time>2020-06-03T16:03:05Z</time>
      </trkpt>
      <trkpt lat="46.65886" lon="-1.89898">
        <ele>3.8</ele>
        <time>2020-06-03T16:03:06Z</time>
      </trkpt>
      <trkpt lat="46.65892" lon="-1.899">
        <ele>3.7</ele>
        <time>2020-06-03T16:03:07Z</time>
      </trkpt>
      <trkpt lat="46.65897" lon="-1.89903">
        <ele>3.8</ele>
        <time>2020-06-03T16:03:08Z</time>
      </trkpt>
      <trkpt lat="46.65902" lon="-1.89907">
        <ele>3.8</ele>
        <time>2020-06-03T16:03:09Z</time>
      </trkpt>
      <trkpt lat="46.65908" lon="-1.89911">
        <ele>3.8</ele>
        <time>2020-06-03T16:03:10Z</time>
      </trkpt>
      <trkpt lat="46.65913" lon="-1.89914">
        <ele>3.9</ele>
        <time>2020-06-03T16:03:11Z</time>
      </trkpt>
      <trkpt lat="46.6592" lon="-1.89917">
        <ele>4.1</ele>
        <time>2020-06-03T16:03:12Z</time>
      </trkpt>
      <trkpt lat="46.65927" lon="-1.8992">
        <ele>4.4</ele>
        <time>2020-06-03T16:03:13Z</time>
      </trkpt>
      <trkpt lat="46.65933" lon="-1.89924">
        <ele>4.7</ele>
        <time>2020-06-03T16:03:14Z</time>
      </trkpt>
      <trkpt lat="46.65937" lon="-1.89928">
        <ele>4.9</ele>
        <time>2020-06-03T16:03:15Z</time>
      </trkpt>
      <trkpt lat="46.65941" lon="-1.89931">
        <ele>5.1</ele>
        <time>2020-06-03T16:03:16Z</time>
      </trkpt>
      <trkpt lat="46.65946" lon="-1.89934">
        <ele>5.3</ele>
        <time>2020-06-03T16:03:17Z</time>
      </trkpt>
      <trkpt lat="46.65951" lon="-1.89937">
        <ele>5.5</ele>
        <time>2020-06-03T16:03:18Z</time>
      </trkpt>
      <trkpt lat="46.65956" lon="-1.8994">
        <ele>5.6</ele>
        <time>2020-06-03T16:03:19Z</time>
      </trkpt>
      <trkpt lat="46.65961" lon="-1.89942">
        <ele>5.7</ele>
        <time>2020-06-03T16:03:20Z</time>
      </trkpt>
      <trkpt lat="46.65966" lon="-1.89943">
        <ele>5.7</ele>
        <time>2020-06-03T16:03:21Z</time>
      </trkpt>
      <trkpt lat="46.65971" lon="-1.89944">
        <ele>5.6</ele>
        <time>2020-06-03T16:03:22Z</time>
      </trkpt>
      <trkpt lat="46.65979" lon="-1.89947">
        <ele>5.5</ele>
        <time>2020-06-03T16:03:23Z</time>
      </trkpt>
      <trkpt lat="46.65987" lon="-1.8995">
        <ele>5.3</ele>
        <time>2020-06-03T16:03:24Z</time>
      </trkpt>
      <trkpt lat="46.65993" lon="-1.89955">
        <ele>5.1</ele>
        <time>2020-06-03T16:03:25Z</time>
      </trkpt>
      <trkpt lat="46.65998" lon="-1.89961">
        <ele>5</ele>
        <time>2020-06-03T16:03:26Z</time>
      </trkpt>
      <trkpt lat="46.66004" lon="-1.89967">
        <ele>4.9</ele>
        <time>2020-06-03T16:03:27Z</time>
      </trkpt>
      <trkpt lat="46.6601" lon="-1.89972">
        <ele>4.8</ele>
        <time>2020-06-03T16:03:28Z</time>
      </trkpt>
      <trkpt lat="46.66016" lon="-1.89977">
        <ele>4.8</ele>
        <time>2020-06-03T16:03:29Z</time>
      </trkpt>
      <trkpt lat="46.66021" lon="-1.8998">
        <ele>4.7</ele>
        <time>2020-06-03T16:03:30Z</time>
      </trkpt>
      <trkpt lat="46.66026" lon="-1.89982">
        <ele>4.7</ele>
        <time>2020-06-03T16:03:31Z</time>
      </trkpt>
      <trkpt lat="46.66031" lon="-1.89982">
        <ele>4.7</ele>
        <time>2020-06-03T16:03:32Z</time>
      </trkpt>
      <trkpt lat="46.66035" lon="-1.89983">
        <ele>4.6</ele>
        <time>2020-06-03T16:03:33Z</time>
      </trkpt>
      <trkpt lat="46.66039" lon="-1.89985">
        <ele>4.6</ele>
        <time>2020-06-03T16:03:34Z</time>
      </trkpt>
      <trkpt lat="46.66043" lon="-1.89988">
        <ele>4.5</ele>
        <time>2020-06-03T16:03:35Z</time>
      </trkpt>
      <trkpt lat="46.66046" lon="-1.89992">
        <ele>4.4</ele>
        <time>2020-06-03T16:03:36Z</time>
      </trkpt>
      <trkpt lat="46.6605" lon="-1.89996">
        <ele>4.4</ele>
        <time>2020-06-03T16:03:37Z</time>
      </trkpt>
      <trkpt lat="46.66054" lon="-1.90001">
        <ele>4.3</ele>
        <time>2020-06-03T16:03:38Z</time>
      </trkpt>
      <trkpt lat="46.66058" lon="-1.90009">
        <ele>4.2</ele>
        <time>2020-06-03T16:03:39Z</time>
      </trkpt>
      <trkpt lat="46.66062" lon="-1.90017">
        <ele>4.1</ele>
        <time>2020-06-03T16:03:40Z</time>
      </trkpt>
      <trkpt lat="46.66065" lon="-1.90024">
        <ele>4</ele>
        <time>2020-06-03T16:03:41Z</time>
      </trkpt>
      <trkpt lat="46.66068" lon="-1.9003">
        <ele>4</ele>
        <time>2020-06-03T16:03:42Z</time>
      </trkpt>
      <trkpt lat="46.66071" lon="-1.90035">
        <ele>4</ele>
        <time>2020-06-03T16:03:43Z</time>
      </trkpt>
      <trkpt lat="46.66074" lon="-1.90041">
        <ele>4</ele>
        <time>2020-06-03T16:03:44Z</time>
      </trkpt>
      <trkpt lat="46.66078" lon="-1.90046">
        <ele>4</ele>
        <time>2020-06-03T16:03:45Z</time>
      </trkpt>
      <trkpt lat="46.6608" lon="-1.9005">
        <ele>4</ele>
        <time>2020-06-03T16:03:46Z</time>
      </trkpt>
      <trkpt lat="46.66084" lon="-1.90055">
        <ele>4</ele>
        <time>2020-06-03T16:03:47Z</time>
      </trkpt>
      <trkpt lat="46.66088" lon="-1.90061">
        <ele>4</ele>
        <time>2020-06-03T16:03:48Z</time>
      </trkpt>
      <trkpt lat="46.66092" lon="-1.90066">
        <ele>4</ele>
        <time>2020-06-03T16:03:49Z</time>
      </trkpt>
      <trkpt lat="46.66095" lon="-1.9007">
        <ele>4</ele>
        <time>2020-06-03T16:03:50Z</time>
      </trkpt>
      <trkpt lat="46.66098" lon="-1.90075">
        <ele>4</ele>
        <time>2020-06-03T16:03:51Z</time>
      </trkpt>
      <trkpt lat="46.661" lon="-1.90084">
        <ele>4</ele>
        <time>2020-06-03T16:03:52Z</time>
      </trkpt>
      <trkpt lat="46.66102" lon="-1.90093">
        <ele>4</ele>
        <time>2020-06-03T16:03:53Z</time>
      </trkpt>
      <trkpt lat="46.66104" lon="-1.90101">
        <ele>4.1</ele>
        <time>2020-06-03T16:03:54Z</time>
      </trkpt>
      <trkpt lat="46.66105" lon="-1.90108">
        <ele>4.2</ele>
        <time>2020-06-03T16:03:55Z</time>
      </trkpt>
      <trkpt lat="46.66105" lon="-1.90114">
        <ele>4.2</ele>
        <time>2020-06-03T16:03:56Z</time>
      </trkpt>
      <trkpt lat="46.66107" lon="-1.9012">
        <ele>4.3</ele>
        <time>2020-06-03T16:03:57Z</time>
      </trkpt>
      <trkpt lat="46.6611" lon="-1.90126">
        <ele>4.4</ele>
        <time>2020-06-03T16:03:58Z</time>
      </trkpt>
      <trkpt lat="46.66111" lon="-1.90132">
        <ele>4.5</ele>
        <time>2020-06-03T16:03:59Z</time>
      </trkpt>
      <trkpt lat="46.66113" lon="-1.90139">
        <ele>4.6</ele>
        <time>2020-06-03T16:04:00Z</time>
      </trkpt>
      <trkpt lat="46.66114" lon="-1.90145">
        <ele>4.7</ele>
        <time>2020-06-03T16:04:01Z</time>
      </trkpt>
      <trkpt lat="46.66114" lon="-1.90151">
        <ele>4.7</ele>
        <time>2020-06-03T16:04:02Z</time>
      </trkpt>
      <trkpt lat="46.66114" lon="-1.90156">
        <ele>4.8</ele>
        <time>2020-06-03T16:04:03Z</time>
      </trkpt>
      <trkpt lat="46.66115" lon="-1.90161">
        <ele>4.8</ele>
        <time>2020-06-03T16:04:04Z</time>
      </trkpt>
      <trkpt lat="46.66116" lon="-1.90167">
        <ele>4.8</ele>
        <time>2020-06-03T16:04:05Z</time>
      </trkpt>
      <trkpt lat="46.66117" lon="-1.90173">
        <ele>4.9</ele>
        <time>2020-06-03T16:04:06Z</time>
      </trkpt>
      <trkpt lat="46.66116" lon="-1.90178">
        <ele>4.9</ele>
        <time>2020-06-03T16:04:07Z</time>
      </trkpt>
      <trkpt lat="46.66114" lon="-1.90184">
        <ele>4.9</ele>
        <time>2020-06-03T16:04:08Z</time>
      </trkpt>
      <trkpt lat="46.66112" lon="-1.9019">
        <ele>4.9</ele>
        <time>2020-06-03T16:04:09Z</time>
      </trkpt>
      <trkpt lat="46.6611" lon="-1.90197">
        <ele>4.9</ele>
        <time>2020-06-03T16:04:10Z</time>
      </trkpt>
      <trkpt lat="46.6611" lon="-1.90204">
        <ele>5</ele>
        <time>2020-06-03T16:04:11Z</time>
      </trkpt>
      <trkpt lat="46.66109" lon="-1.90209">
        <ele>5</ele>
        <time>2020-06-03T16:04:12Z</time>
      </trkpt>
      <trkpt lat="46.66109" lon="-1.90214">
        <ele>5</ele>
        <time>2020-06-03T16:04:13Z</time>
      </trkpt>
      <trkpt lat="46.66108" lon="-1.9022">
        <ele>5</ele>
        <time>2020-06-03T16:04:14Z</time>
      </trkpt>
      <trkpt lat="46.66106" lon="-1.90227">
        <ele>5.1</ele>
        <time>2020-06-03T16:04:15Z</time>
      </trkpt>
      <trkpt lat="46.66105" lon="-1.90234">
        <ele>5.1</ele>
        <time>2020-06-03T16:04:16Z</time>
      </trkpt>
      <trkpt lat="46.66101" lon="-1.90242">
        <ele>5.2</ele>
        <time>2020-06-03T16:04:17Z</time>
      </trkpt>
      <trkpt lat="46.66098" lon="-1.90251">
        <ele>5.2</ele>
        <time>2020-06-03T16:04:18Z</time>
      </trkpt>
      <trkpt lat="46.66095" lon="-1.90258">
        <ele>5.3</ele>
        <time>2020-06-03T16:04:19Z</time>
      </trkpt>
      <trkpt lat="46.66093" lon="-1.90265">
        <ele>5.3</ele>
        <time>2020-06-03T16:04:20Z</time>
      </trkpt>
      <trkpt lat="46.66091" lon="-1.90272">
        <ele>5.4</ele>
        <time>2020-06-03T16:04:21Z</time>
      </trkpt>
      <trkpt lat="46.6609" lon="-1.90279">
        <ele>5.4</ele>
        <time>2020-06-03T16:04:22Z</time>
      </trkpt>
      <trkpt lat="46.66091" lon="-1.9029">
        <ele>5.4</ele>
        <time>2020-06-03T16:04:23Z</time>
      </trkpt>
      <trkpt lat="46.66092" lon="-1.90298">
        <ele>5.4</ele>
        <time>2020-06-03T16:04:24Z</time>
      </trkpt>
      <trkpt lat="46.66093" lon="-1.90305">
        <ele>5.4</ele>
        <time>2020-06-03T16:04:25Z</time>
      </trkpt>
      <trkpt lat="46.66093" lon="-1.90313">
        <ele>5.3</ele>
        <time>2020-06-03T16:04:26Z</time>
      </trkpt>
      <trkpt lat="46.66093" lon="-1.9032">
        <ele>5.2</ele>
        <time>2020-06-03T16:04:27Z</time>
      </trkpt>
      <trkpt lat="46.66093" lon="-1.90328">
        <ele>5.1</ele>
        <time>2020-06-03T16:04:28Z</time>
      </trkpt>
      <trkpt lat="46.66091" lon="-1.90337">
        <ele>4.9</ele>
        <time>2020-06-03T16:04:29Z</time>
      </trkpt>
      <trkpt lat="46.66092" lon="-1.90345">
        <ele>4.8</ele>
        <time>2020-06-03T16:04:30Z</time>
      </trkpt>
      <trkpt lat="46.66093" lon="-1.90354">
        <ele>4.6</ele>
        <time>2020-06-03T16:04:31Z</time>
      </trkpt>
      <trkpt lat="46.66093" lon="-1.90362">
        <ele>4.5</ele>
        <time>2020-06-03T16:04:32Z</time>
      </trkpt>
      <trkpt lat="46.66094" lon="-1.90373">
        <ele>4.3</ele>
        <time>2020-06-03T16:04:33Z</time>
      </trkpt>
      <trkpt lat="46.66095" lon="-1.90383">
        <ele>4.1</ele>
        <time>2020-06-03T16:04:34Z</time>
      </trkpt>
      <trkpt lat="46.66096" lon="-1.90393">
        <ele>4</ele>
        <time>2020-06-03T16:04:35Z</time>
      </trkpt>
      <trkpt lat="46.66096" lon="-1.90402">
        <ele>4</ele>
        <time>2020-06-03T16:04:36Z</time>
      </trkpt>
      <trkpt lat="46.66096" lon="-1.90413">
        <ele>4</ele>
        <time>2020-06-03T16:04:37Z</time>
      </trkpt>
      <trkpt lat="46.66096" lon="-1.90426">
        <ele>3.9</ele>
        <time>2020-06-03T16:04:38Z</time>
      </trkpt>
      <trkpt lat="46.66096" lon="-1.90438">
        <ele>3.9</ele>
        <time>2020-06-03T16:04:39Z</time>
      </trkpt>
      <trkpt lat="46.66098" lon="-1.90447">
        <ele>3.9</ele>
        <time>2020-06-03T16:04:40Z</time>
      </trkpt>
      <trkpt lat="46.661" lon="-1.90456">
        <ele>3.9</ele>
        <time>2020-06-03T16:04:41Z</time>
      </trkpt>
      <trkpt lat="46.66102" lon="-1.90464">
        <ele>3.8</ele>
        <time>2020-06-03T16:04:42Z</time>
      </trkpt>
      <trkpt lat="46.66105" lon="-1.90475">
        <ele>3.8</ele>
        <time>2020-06-03T16:04:43Z</time>
      </trkpt>
      <trkpt lat="46.66107" lon="-1.90486">
        <ele>3.7</ele>
        <time>2020-06-03T16:04:44Z</time>
      </trkpt>
      <trkpt lat="46.66109" lon="-1.90496">
        <ele>3.7</ele>
        <time>2020-06-03T16:04:45Z</time>
      </trkpt>
      <trkpt lat="46.66111" lon="-1.90507">
        <ele>3.6</ele>
        <time>2020-06-03T16:04:46Z</time>
      </trkpt>
      <trkpt lat="46.66112" lon="-1.90518">
        <ele>3.6</ele>
        <time>2020-06-03T16:04:47Z</time>
      </trkpt>
      <trkpt lat="46.66113" lon="-1.90526">
        <ele>3.6</ele>
        <time>2020-06-03T16:04:48Z</time>
      </trkpt>
      <trkpt lat="46.66116" lon="-1.90532">
        <ele>3.5</ele>
        <time>2020-06-03T16:04:49Z</time>
      </trkpt>
      <trkpt lat="46.6612" lon="-1.90538">
        <ele>3.5</ele>
        <time>2020-06-03T16:04:50Z</time>
      </trkpt>
      <trkpt lat="46.66123" lon="-1.90543">
        <ele>3.5</ele>
        <time>2020-06-03T16:04:51Z</time>
      </trkpt>
      <trkpt lat="46.66127" lon="-1.90553">
        <ele>3.5</ele>
        <time>2020-06-03T16:04:52Z</time>
      </trkpt>
      <trkpt lat="46.6613" lon="-1.90562">
        <ele>3.5</ele>
        <time>2020-06-03T16:04:53Z</time>
      </trkpt>
      <trkpt lat="46.66133" lon="-1.9057">
        <ele>3.5</ele>
        <time>2020-06-03T16:04:54Z</time>
      </trkpt>
      <trkpt lat="46.66138" lon="-1.90577">
        <ele>3.4</ele>
        <time>2020-06-03T16:04:55Z</time>
      </trkpt>
      <trkpt lat="46.66142" lon="-1.90583">
        <ele>3.4</ele>
        <time>2020-06-03T16:04:56Z</time>
      </trkpt>
      <trkpt lat="46.66146" lon="-1.90588">
        <ele>3.4</ele>
        <time>2020-06-03T16:04:57Z</time>
      </trkpt>
      <trkpt lat="46.66149" lon="-1.90594">
        <ele>3.4</ele>
        <time>2020-06-03T16:04:58Z</time>
      </trkpt>
      <trkpt lat="46.66152" lon="-1.90598">
        <ele>3.4</ele>
        <time>2020-06-03T16:04:59Z</time>
      </trkpt>
      <trkpt lat="46.66156" lon="-1.906">
        <ele>3.4</ele>
        <time>2020-06-03T16:05:00Z</time>
      </trkpt>
      <trkpt lat="46.6616" lon="-1.90602">
        <ele>3.4</ele>
        <time>2020-06-03T16:05:01Z</time>
      </trkpt>
      <trkpt lat="46.66165" lon="-1.90603">
        <ele>3.4</ele>
        <time>2020-06-03T16:05:02Z</time>
      </trkpt>
      <trkpt lat="46.66169" lon="-1.90603">
        <ele>3.3</ele>
        <time>2020-06-03T16:05:03Z</time>
      </trkpt>
      <trkpt lat="46.66175" lon="-1.90603">
        <ele>3.3</ele>
        <time>2020-06-03T16:05:04Z</time>
      </trkpt>
      <trkpt lat="46.66181" lon="-1.90602">
        <ele>3.3</ele>
        <time>2020-06-03T16:05:05Z</time>
      </trkpt>
      <trkpt lat="46.66188" lon="-1.90602">
        <ele>3.3</ele>
        <time>2020-06-03T16:05:06Z</time>
      </trkpt>
      <trkpt lat="46.66196" lon="-1.90604">
        <ele>3.3</ele>
        <time>2020-06-03T16:05:07Z</time>
      </trkpt>
      <trkpt lat="46.66202" lon="-1.90605">
        <ele>3.3</ele>
        <time>2020-06-03T16:05:08Z</time>
      </trkpt>
      <trkpt lat="46.66209" lon="-1.90606">
        <ele>3.3</ele>
        <time>2020-06-03T16:05:09Z</time>
      </trkpt>
      <trkpt lat="46.66216" lon="-1.90608">
        <ele>3.2</ele>
        <time>2020-06-03T16:05:10Z</time>
      </trkpt>
      <trkpt lat="46.66222" lon="-1.90611">
        <ele>3.2</ele>
        <time>2020-06-03T16:05:11Z</time>
      </trkpt>
      <trkpt lat="46.66229" lon="-1.90612">
        <ele>3.2</ele>
        <time>2020-06-03T16:05:12Z</time>
      </trkpt>
      <trkpt lat="46.66235" lon="-1.90615">
        <ele>3.2</ele>
        <time>2020-06-03T16:05:13Z</time>
      </trkpt>
      <trkpt lat="46.6624" lon="-1.90617">
        <ele>3.2</ele>
        <time>2020-06-03T16:05:14Z</time>
      </trkpt>
      <trkpt lat="46.66245" lon="-1.90618">
        <ele>3.1</ele>
        <time>2020-06-03T16:05:15Z</time>
      </trkpt>
      <trkpt lat="46.66251" lon="-1.9062">
        <ele>3.1</ele>
        <time>2020-06-03T16:05:16Z</time>
      </trkpt>
      <trkpt lat="46.66255" lon="-1.90621">
        <ele>3.1</ele>
        <time>2020-06-03T16:05:17Z</time>
      </trkpt>
      <trkpt lat="46.6626" lon="-1.90621">
        <ele>3.1</ele>
        <time>2020-06-03T16:05:18Z</time>
      </trkpt>
      <trkpt lat="46.66264" lon="-1.90622">
        <ele>3</ele>
        <time>2020-06-03T16:05:19Z</time>
      </trkpt>
      <trkpt lat="46.66268" lon="-1.90622">
        <ele>3</ele>
        <time>2020-06-03T16:05:20Z</time>
      </trkpt>
      <trkpt lat="46.66272" lon="-1.90622">
        <ele>3</ele>
        <time>2020-06-03T16:05:21Z</time>
      </trkpt>
      <trkpt lat="46.66276" lon="-1.90623">
        <ele>3</ele>
        <time>2020-06-03T16:05:22Z</time>
      </trkpt>
      <trkpt lat="46.6628" lon="-1.90623">
        <ele>2.9</ele>
        <time>2020-06-03T16:05:23Z</time>
      </trkpt>
      <trkpt lat="46.66285" lon="-1.90622">
        <ele>2.9</ele>
        <time>2020-06-03T16:05:24Z</time>
      </trkpt>
      <trkpt lat="46.6629" lon="-1.90623">
        <ele>2.9</ele>
        <time>2020-06-03T16:05:25Z</time>
      </trkpt>
      <trkpt lat="46.66296" lon="-1.90625">
        <ele>2.8</ele>
        <time>2020-06-03T16:05:26Z</time>
      </trkpt>
      <trkpt lat="46.66302" lon="-1.90627">
        <ele>2.8</ele>
        <time>2020-06-03T16:05:27Z</time>
      </trkpt>
      <trkpt lat="46.66309" lon="-1.90629">
        <ele>2.8</ele>
        <time>2020-06-03T16:05:28Z</time>
      </trkpt>
      <trkpt lat="46.66315" lon="-1.90632">
        <ele>2.8</ele>
        <time>2020-06-03T16:05:29Z</time>
      </trkpt>
      <trkpt lat="46.66321" lon="-1.90633">
        <ele>2.8</ele>
        <time>2020-06-03T16:05:30Z</time>
      </trkpt>
      <trkpt lat="46.66326" lon="-1.90635">
        <ele>2.8</ele>
        <time>2020-06-03T16:05:31Z</time>
      </trkpt>
      <trkpt lat="46.66332" lon="-1.90637">
        <ele>2.8</ele>
        <time>2020-06-03T16:05:32Z</time>
      </trkpt>
      <trkpt lat="46.66338" lon="-1.90638">
        <ele>2.8</ele>
        <time>2020-06-03T16:05:33Z</time>
      </trkpt>
      <trkpt lat="46.66344" lon="-1.90638">
        <ele>2.9</ele>
        <time>2020-06-03T16:05:34Z</time>
      </trkpt>
      <trkpt lat="46.6635" lon="-1.90638">
        <ele>2.9</ele>
        <time>2020-06-03T16:05:35Z</time>
      </trkpt>
      <trkpt lat="46.66356" lon="-1.90638">
        <ele>3</ele>
        <time>2020-06-03T16:05:36Z</time>
      </trkpt>
      <trkpt lat="46.6636" lon="-1.90638">
        <ele>3</ele>
        <time>2020-06-03T16:05:37Z</time>
      </trkpt>
      <trkpt lat="46.66365" lon="-1.90638">
        <ele>3</ele>
        <time>2020-06-03T16:05:38Z</time>
      </trkpt>
      <trkpt lat="46.66368" lon="-1.90635">
        <ele>3.1</ele>
        <time>2020-06-03T16:05:39Z</time>
      </trkpt>
      <trkpt lat="46.66373" lon="-1.90631">
        <ele>3.1</ele>
        <time>2020-06-03T16:05:40Z</time>
      </trkpt>
      <trkpt lat="46.66376" lon="-1.90626">
        <ele>3.1</ele>
        <time>2020-06-03T16:05:41Z</time>
      </trkpt>
      <trkpt lat="46.66381" lon="-1.9062">
        <ele>3.2</ele>
        <time>2020-06-03T16:05:42Z</time>
      </trkpt>
      <trkpt lat="46.66385" lon="-1.90615">
        <ele>3.2</ele>
        <time>2020-06-03T16:05:43Z</time>
      </trkpt>
      <trkpt lat="46.6639" lon="-1.9061">
        <ele>3.2</ele>
        <time>2020-06-03T16:05:44Z</time>
      </trkpt>
      <trkpt lat="46.66395" lon="-1.90606">
        <ele>3.3</ele>
        <time>2020-06-03T16:05:45Z</time>
      </trkpt>
      <trkpt lat="46.664" lon="-1.90607">
        <ele>3.3</ele>
        <time>2020-06-03T16:05:46Z</time>
      </trkpt>
      <trkpt lat="46.66404" lon="-1.90607">
        <ele>3.3</ele>
        <time>2020-06-03T16:05:47Z</time>
      </trkpt>
      <trkpt lat="46.66409" lon="-1.90606">
        <ele>3.3</ele>
        <time>2020-06-03T16:05:48Z</time>
      </trkpt>
      <trkpt lat="46.66414" lon="-1.90603">
        <ele>3.3</ele>
        <time>2020-06-03T16:05:49Z</time>
      </trkpt>
      <trkpt lat="46.66419" lon="-1.906">
        <ele>3.3</ele>
        <time>2020-06-03T16:05:50Z</time>
      </trkpt>
      <trkpt lat="46.66425" lon="-1.90598">
        <ele>3.3</ele>
        <time>2020-06-03T16:05:51Z</time>
      </trkpt>
      <trkpt lat="46.6643" lon="-1.90594">
        <ele>3.3</ele>
        <time>2020-06-03T16:05:52Z</time>
      </trkpt>
      <trkpt lat="46.66437" lon="-1.90591">
        <ele>3.2</ele>
        <time>2020-06-03T16:05:53Z</time>
      </trkpt>
      <trkpt lat="46.66443" lon="-1.90588">
        <ele>3.2</ele>
        <time>2020-06-03T16:05:54Z</time>
      </trkpt>
      <trkpt lat="46.66449" lon="-1.90587">
        <ele>3.2</ele>
        <time>2020-06-03T16:05:55Z</time>
      </trkpt>
      <trkpt lat="46.66455" lon="-1.90587">
        <ele>3.1</ele>
        <time>2020-06-03T16:05:56Z</time>
      </trkpt>
      <trkpt lat="46.66462" lon="-1.90587">
        <ele>3</ele>
        <time>2020-06-03T16:05:57Z</time>
      </trkpt>
      <trkpt lat="46.66468" lon="-1.90588">
        <ele>2.9</ele>
        <time>2020-06-03T16:05:58Z</time>
      </trkpt>
      <trkpt lat="46.66475" lon="-1.9059">
        <ele>2.8</ele>
        <time>2020-06-03T16:05:59Z</time>
      </trkpt>
      <trkpt lat="46.6648" lon="-1.90593">
        <ele>2.7</ele>
        <time>2020-06-03T16:06:00Z</time>
      </trkpt>
      <trkpt lat="46.66485" lon="-1.90595">
        <ele>2.6</ele>
        <time>2020-06-03T16:06:01Z</time>
      </trkpt>
      <trkpt lat="46.6649" lon="-1.90597">
        <ele>2.5</ele>
        <time>2020-06-03T16:06:02Z</time>
      </trkpt>
      <trkpt lat="46.66494" lon="-1.90599">
        <ele>2.5</ele>
        <time>2020-06-03T16:06:03Z</time>
      </trkpt>
      <trkpt lat="46.66497" lon="-1.906">
        <ele>2.5</ele>
        <time>2020-06-03T16:06:04Z</time>
      </trkpt>
      <trkpt lat="46.66502" lon="-1.90602">
        <ele>2.4</ele>
        <time>2020-06-03T16:06:05Z</time>
      </trkpt>
      <trkpt lat="46.66506" lon="-1.90603">
        <ele>2.4</ele>
        <time>2020-06-03T16:06:06Z</time>
      </trkpt>
      <trkpt lat="46.66512" lon="-1.90605">
        <ele>2.5</ele>
        <time>2020-06-03T16:06:07Z</time>
      </trkpt>
      <trkpt lat="46.66516" lon="-1.90606">
        <ele>2.5</ele>
        <time>2020-06-03T16:06:08Z</time>
      </trkpt>
      <trkpt lat="46.6652" lon="-1.90607">
        <ele>2.5</ele>
        <time>2020-06-03T16:06:09Z</time>
      </trkpt>
      <trkpt lat="46.66526" lon="-1.90609">
        <ele>2.6</ele>
        <time>2020-06-03T16:06:10Z</time>
      </trkpt>
      <trkpt lat="46.66532" lon="-1.90609">
        <ele>2.7</ele>
        <time>2020-06-03T16:06:11Z</time>
      </trkpt>
      <trkpt lat="46.66537" lon="-1.9061">
        <ele>2.7</ele>
        <time>2020-06-03T16:06:12Z</time>
      </trkpt>
      <trkpt lat="46.66543" lon="-1.90611">
        <ele>2.8</ele>
        <time>2020-06-03T16:06:13Z</time>
      </trkpt>
      <trkpt lat="46.66548" lon="-1.90611">
        <ele>2.9</ele>
        <time>2020-06-03T16:06:14Z</time>
      </trkpt>
      <trkpt lat="46.66554" lon="-1.9061">
        <ele>2.9</ele>
        <time>2020-06-03T16:06:15Z</time>
      </trkpt>
      <trkpt lat="46.6656" lon="-1.90608">
        <ele>3</ele>
        <time>2020-06-03T16:06:16Z</time>
      </trkpt>
      <trkpt lat="46.66566" lon="-1.90607">
        <ele>3</ele>
        <time>2020-06-03T16:06:17Z</time>
      </trkpt>
      <trkpt lat="46.6657" lon="-1.90606">
        <ele>3</ele>
        <time>2020-06-03T16:06:18Z</time>
      </trkpt>
      <trkpt lat="46.66576" lon="-1.90605">
        <ele>3.1</ele>
        <time>2020-06-03T16:06:19Z</time>
      </trkpt>
      <trkpt lat="46.66582" lon="-1.90605">
        <ele>3.2</ele>
        <time>2020-06-03T16:06:20Z</time>
      </trkpt>
      <trkpt lat="46.66587" lon="-1.90608">
        <ele>3.3</ele>
        <time>2020-06-03T16:06:21Z</time>
      </trkpt>
      <trkpt lat="46.66591" lon="-1.90611">
        <ele>3.4</ele>
        <time>2020-06-03T16:06:22Z</time>
      </trkpt>
      <trkpt lat="46.66595" lon="-1.90613">
        <ele>3.4</ele>
        <time>2020-06-03T16:06:23Z</time>
      </trkpt>
      <trkpt lat="46.66599" lon="-1.90614">
        <ele>3.5</ele>
        <time>2020-06-03T16:06:24Z</time>
      </trkpt>
      <trkpt lat="46.66604" lon="-1.90613">
        <ele>3.6</ele>
        <time>2020-06-03T16:06:25Z</time>
      </trkpt>
      <trkpt lat="46.66609" lon="-1.90613">
        <ele>3.6</ele>
        <time>2020-06-03T16:06:26Z</time>
      </trkpt>
      <trkpt lat="46.66615" lon="-1.90612">
        <ele>3.6</ele>
        <time>2020-06-03T16:06:27Z</time>
      </trkpt>
      <trkpt lat="46.6662" lon="-1.90611">
        <ele>3.6</ele>
        <time>2020-06-03T16:06:28Z</time>
      </trkpt>
      <trkpt lat="46.66625" lon="-1.9061">
        <ele>3.6</ele>
        <time>2020-06-03T16:06:29Z</time>
      </trkpt>
      <trkpt lat="46.66629" lon="-1.9061">
        <ele>3.5</ele>
        <time>2020-06-03T16:06:30Z</time>
      </trkpt>
      <trkpt lat="46.66635" lon="-1.90609">
        <ele>3.4</ele>
        <time>2020-06-03T16:06:31Z</time>
      </trkpt>
      <trkpt lat="46.66641" lon="-1.90611">
        <ele>3.2</ele>
        <time>2020-06-03T16:06:32Z</time>
      </trkpt>
      <trkpt lat="46.66648" lon="-1.90612">
        <ele>3</ele>
        <time>2020-06-03T16:06:33Z</time>
      </trkpt>
      <trkpt lat="46.66654" lon="-1.90616">
        <ele>2.9</ele>
        <time>2020-06-03T16:06:34Z</time>
      </trkpt>
      <trkpt lat="46.66659" lon="-1.9062">
        <ele>2.7</ele>
        <time>2020-06-03T16:06:35Z</time>
      </trkpt>
      <trkpt lat="46.66664" lon="-1.90627">
        <ele>2.5</ele>
        <time>2020-06-03T16:06:36Z</time>
      </trkpt>
      <trkpt lat="46.66668" lon="-1.90635">
        <ele>2.4</ele>
        <time>2020-06-03T16:06:37Z</time>
      </trkpt>
      <trkpt lat="46.66671" lon="-1.90643">
        <ele>2.4</ele>
        <time>2020-06-03T16:06:38Z</time>
      </trkpt>
      <trkpt lat="46.66675" lon="-1.90652">
        <ele>2.3</ele>
        <time>2020-06-03T16:06:39Z</time>
      </trkpt>
      <trkpt lat="46.66679" lon="-1.90662">
        <ele>2.3</ele>
        <time>2020-06-03T16:06:40Z</time>
      </trkpt>
      <trkpt lat="46.66681" lon="-1.9067">
        <ele>2.3</ele>
        <time>2020-06-03T16:06:41Z</time>
      </trkpt>
      <trkpt lat="46.66684" lon="-1.90678">
        <ele>2.3</ele>
        <time>2020-06-03T16:06:42Z</time>
      </trkpt>
      <trkpt lat="46.66686" lon="-1.90685">
        <ele>2.3</ele>
        <time>2020-06-03T16:06:43Z</time>
      </trkpt>
      <trkpt lat="46.66688" lon="-1.90693">
        <ele>2.3</ele>
        <time>2020-06-03T16:06:44Z</time>
      </trkpt>
      <trkpt lat="46.6669" lon="-1.90701">
        <ele>2.3</ele>
        <time>2020-06-03T16:06:45Z</time>
      </trkpt>
      <trkpt lat="46.66691" lon="-1.90708">
        <ele>2.2</ele>
        <time>2020-06-03T16:06:46Z</time>
      </trkpt>
      <trkpt lat="46.66693" lon="-1.90717">
        <ele>2.2</ele>
        <time>2020-06-03T16:06:47Z</time>
      </trkpt>
      <trkpt lat="46.66695" lon="-1.90725">
        <ele>2.2</ele>
        <time>2020-06-03T16:06:48Z</time>
      </trkpt>
      <trkpt lat="46.66696" lon="-1.90733">
        <ele>2.2</ele>
        <time>2020-06-03T16:06:49Z</time>
      </trkpt>
      <trkpt lat="46.66697" lon="-1.90742">
        <ele>2.2</ele>
        <time>2020-06-03T16:06:50Z</time>
      </trkpt>
      <trkpt lat="46.66696" lon="-1.90752">
        <ele>2.2</ele>
        <time>2020-06-03T16:06:51Z</time>
      </trkpt>
      <trkpt lat="46.66696" lon="-1.90761">
        <ele>2.2</ele>
        <time>2020-06-03T16:06:52Z</time>
      </trkpt>
      <trkpt lat="46.66695" lon="-1.90771">
        <ele>2.2</ele>
        <time>2020-06-03T16:06:53Z</time>
      </trkpt>
      <trkpt lat="46.66695" lon="-1.90781">
        <ele>2.2</ele>
        <time>2020-06-03T16:06:54Z</time>
      </trkpt>
      <trkpt lat="46.66695" lon="-1.90792">
        <ele>2.2</ele>
        <time>2020-06-03T16:06:55Z</time>
      </trkpt>
      <trkpt lat="46.66695" lon="-1.90802">
        <ele>2.1</ele>
        <time>2020-06-03T16:06:56Z</time>
      </trkpt>
      <trkpt lat="46.66695" lon="-1.90813">
        <ele>2.1</ele>
        <time>2020-06-03T16:06:57Z</time>
      </trkpt>
      <trkpt lat="46.66695" lon="-1.90823">
        <ele>2.2</ele>
        <time>2020-06-03T16:06:58Z</time>
      </trkpt>
      <trkpt lat="46.66695" lon="-1.90833">
        <ele>2.2</ele>
        <time>2020-06-03T16:06:59Z</time>
      </trkpt>
      <trkpt lat="46.66696" lon="-1.90842">
        <ele>2.2</ele>
        <time>2020-06-03T16:07:00Z</time>
      </trkpt>
      <trkpt lat="46.66697" lon="-1.90854">
        <ele>2.3</ele>
        <time>2020-06-03T16:07:01Z</time>
      </trkpt>
      <trkpt lat="46.66697" lon="-1.90864">
        <ele>2.3</ele>
        <time>2020-06-03T16:07:02Z</time>
      </trkpt>
      <trkpt lat="46.66696" lon="-1.90874">
        <ele>2.4</ele>
        <time>2020-06-03T16:07:03Z</time>
      </trkpt>
      <trkpt lat="46.66695" lon="-1.90884">
        <ele>2.4</ele>
        <time>2020-06-03T16:07:04Z</time>
      </trkpt>
      <trkpt lat="46.66694" lon="-1.90893">
        <ele>2.5</ele>
        <time>2020-06-03T16:07:05Z</time>
      </trkpt>
      <trkpt lat="46.66692" lon="-1.90901">
        <ele>2.5</ele>
        <time>2020-06-03T16:07:06Z</time>
      </trkpt>
      <trkpt lat="46.6669" lon="-1.90909">
        <ele>2.6</ele>
        <time>2020-06-03T16:07:07Z</time>
      </trkpt>
      <trkpt lat="46.66688" lon="-1.90916">
        <ele>2.6</ele>
        <time>2020-06-03T16:07:08Z</time>
      </trkpt>
      <trkpt lat="46.66687" lon="-1.90923">
        <ele>2.7</ele>
        <time>2020-06-03T16:07:09Z</time>
      </trkpt>
      <trkpt lat="46.66687" lon="-1.90929">
        <ele>2.7</ele>
        <time>2020-06-03T16:07:10Z</time>
      </trkpt>
      <trkpt lat="46.66688" lon="-1.90936">
        <ele>2.7</ele>
        <time>2020-06-03T16:07:11Z</time>
      </trkpt>
      <trkpt lat="46.66689" lon="-1.90944">
        <ele>2.8</ele>
        <time>2020-06-03T16:07:12Z</time>
      </trkpt>
      <trkpt lat="46.66689" lon="-1.90953">
        <ele>2.8</ele>
        <time>2020-06-03T16:07:13Z</time>
      </trkpt>
      <trkpt lat="46.6669" lon="-1.90961">
        <ele>2.9</ele>
        <time>2020-06-03T16:07:14Z</time>
      </trkpt>
      <trkpt lat="46.6669" lon="-1.9097">
        <ele>2.9</ele>
        <time>2020-06-03T16:07:15Z</time>
      </trkpt>
      <trkpt lat="46.66689" lon="-1.90979">
        <ele>3</ele>
        <time>2020-06-03T16:07:16Z</time>
      </trkpt>
      <trkpt lat="46.66687" lon="-1.90987">
        <ele>3</ele>
        <time>2020-06-03T16:07:17Z</time>
      </trkpt>
      <trkpt lat="46.66684" lon="-1.90994">
        <ele>3</ele>
        <time>2020-06-03T16:07:18Z</time>
      </trkpt>
      <trkpt lat="46.66682" lon="-1.91">
        <ele>3</ele>
        <time>2020-06-03T16:07:19Z</time>
      </trkpt>
      <trkpt lat="46.6668" lon="-1.91005">
        <ele>3.1</ele>
        <time>2020-06-03T16:07:20Z</time>
      </trkpt>
      <trkpt lat="46.66678" lon="-1.9101">
        <ele>3.1</ele>
        <time>2020-06-03T16:07:21Z</time>
      </trkpt>
      <trkpt lat="46.66678" lon="-1.91012">
        <ele>3.1</ele>
        <time>2020-06-03T16:07:22Z</time>
      </trkpt>
      <trkpt lat="46.66677" lon="-1.91017">
        <ele>3.1</ele>
        <time>2020-06-03T16:07:23Z</time>
      </trkpt>
      <trkpt lat="46.66678" lon="-1.91021">
        <ele>3.1</ele>
        <time>2020-06-03T16:07:24Z</time>
      </trkpt>
      <trkpt lat="46.66678" lon="-1.91028">
        <ele>3.1</ele>
        <time>2020-06-03T16:07:25Z</time>
      </trkpt>
      <trkpt lat="46.6668" lon="-1.91036">
        <ele>3.1</ele>
        <time>2020-06-03T16:07:26Z</time>
      </trkpt>
      <trkpt lat="46.6668" lon="-1.91043">
        <ele>3.1</ele>
        <time>2020-06-03T16:07:27Z</time>
      </trkpt>
      <trkpt lat="46.6668" lon="-1.9105">
        <ele>3.1</ele>
        <time>2020-06-03T16:07:28Z</time>
      </trkpt>
      <trkpt lat="46.66681" lon="-1.91057">
        <ele>3.1</ele>
        <time>2020-06-03T16:07:29Z</time>
      </trkpt>
      <trkpt lat="46.66682" lon="-1.91064">
        <ele>3.1</ele>
        <time>2020-06-03T16:07:30Z</time>
      </trkpt>
      <trkpt lat="46.66684" lon="-1.91071">
        <ele>3.1</ele>
        <time>2020-06-03T16:07:31Z</time>
      </trkpt>
      <trkpt lat="46.66685" lon="-1.91077">
        <ele>3</ele>
        <time>2020-06-03T16:07:32Z</time>
      </trkpt>
      <trkpt lat="46.66686" lon="-1.91084">
        <ele>3</ele>
        <time>2020-06-03T16:07:33Z</time>
      </trkpt>
      <trkpt lat="46.66689" lon="-1.91089">
        <ele>3</ele>
        <time>2020-06-03T16:07:34Z</time>
      </trkpt>
      <trkpt lat="46.66691" lon="-1.91094">
        <ele>3</ele>
        <time>2020-06-03T16:07:35Z</time>
      </trkpt>
      <trkpt lat="46.66694" lon="-1.91097">
        <ele>3</ele>
        <time>2020-06-03T16:07:36Z</time>
      </trkpt>
      <trkpt lat="46.66697" lon="-1.911">
        <ele>3</ele>
        <time>2020-06-03T16:07:37Z</time>
      </trkpt>
      <trkpt lat="46.667" lon="-1.91101">
        <ele>3</ele>
        <time>2020-06-03T16:07:38Z</time>
      </trkpt>
      <trkpt lat="46.66702" lon="-1.911">
        <ele>3</ele>
        <time>2020-06-03T16:07:39Z</time>
      </trkpt>
      <trkpt lat="46.66706" lon="-1.91097">
        <ele>3</ele>
        <time>2020-06-03T16:07:40Z</time>
      </trkpt>
      <trkpt lat="46.66708" lon="-1.91096">
        <ele>3</ele>
        <time>2020-06-03T16:07:41Z</time>
      </trkpt>
      <trkpt lat="46.66711" lon="-1.91093">
        <ele>2.9</ele>
        <time>2020-06-03T16:07:42Z</time>
      </trkpt>
      <trkpt lat="46.66714" lon="-1.91089">
        <ele>2.9</ele>
        <time>2020-06-03T16:07:43Z</time>
      </trkpt>
      <trkpt lat="46.66717" lon="-1.91085">
        <ele>2.9</ele>
        <time>2020-06-03T16:07:44Z</time>
      </trkpt>
      <trkpt lat="46.66721" lon="-1.9108">
        <ele>2.9</ele>
        <time>2020-06-03T16:07:45Z</time>
      </trkpt>
      <trkpt lat="46.66725" lon="-1.91076">
        <ele>2.9</ele>
        <time>2020-06-03T16:07:46Z</time>
      </trkpt>
      <trkpt lat="46.66728" lon="-1.91071">
        <ele>2.8</ele>
        <time>2020-06-03T16:07:47Z</time>
      </trkpt>
      <trkpt lat="46.66732" lon="-1.91066">
        <ele>2.8</ele>
        <time>2020-06-03T16:07:48Z</time>
      </trkpt>
      <trkpt lat="46.66734" lon="-1.91061">
        <ele>2.8</ele>
        <time>2020-06-03T16:07:49Z</time>
      </trkpt>
      <trkpt lat="46.66737" lon="-1.91056">
        <ele>2.8</ele>
        <time>2020-06-03T16:07:50Z</time>
      </trkpt>
      <trkpt lat="46.6674" lon="-1.91052">
        <ele>2.8</ele>
        <time>2020-06-03T16:07:51Z</time>
      </trkpt>
      <trkpt lat="46.66742" lon="-1.91048">
        <ele>2.8</ele>
        <time>2020-06-03T16:07:52Z</time>
      </trkpt>
      <trkpt lat="46.66742" lon="-1.91047">
        <ele>2.8</ele>
        <time>2020-06-03T16:07:53Z</time>
      </trkpt>
      <trkpt lat="46.66742" lon="-1.91042">
        <ele>2.8</ele>
        <time>2020-06-03T16:07:54Z</time>
      </trkpt>
      <trkpt lat="46.66742" lon="-1.9104">
        <ele>2.8</ele>
        <time>2020-06-03T16:07:55Z</time>
      </trkpt>
      <trkpt lat="46.66742" lon="-1.91034">
        <ele>2.8</ele>
        <time>2020-06-03T16:07:56Z</time>
      </trkpt>
      <trkpt lat="46.66743" lon="-1.91029">
        <ele>2.8</ele>
        <time>2020-06-03T16:07:57Z</time>
      </trkpt>
      <trkpt lat="46.66745" lon="-1.91024">
        <ele>2.8</ele>
        <time>2020-06-03T16:07:58Z</time>
      </trkpt>
      <trkpt lat="46.66748" lon="-1.91018">
        <ele>2.8</ele>
        <time>2020-06-03T16:07:59Z</time>
      </trkpt>
      <trkpt lat="46.6675" lon="-1.91013">
        <ele>2.7</ele>
        <time>2020-06-03T16:08:00Z</time>
      </trkpt>
      <trkpt lat="46.66752" lon="-1.91008">
        <ele>2.7</ele>
        <time>2020-06-03T16:08:01Z</time>
      </trkpt>
      <trkpt lat="46.66755" lon="-1.91002">
        <ele>2.7</ele>
        <time>2020-06-03T16:08:02Z</time>
      </trkpt>
      <trkpt lat="46.66757" lon="-1.90996">
        <ele>2.7</ele>
        <time>2020-06-03T16:08:03Z</time>
      </trkpt>
      <trkpt lat="46.66759" lon="-1.90991">
        <ele>2.7</ele>
        <time>2020-06-03T16:08:04Z</time>
      </trkpt>
      <trkpt lat="46.6676" lon="-1.90986">
        <ele>2.7</ele>
        <time>2020-06-03T16:08:05Z</time>
      </trkpt>
      <trkpt lat="46.66761" lon="-1.90979">
        <ele>2.7</ele>
        <time>2020-06-03T16:08:06Z</time>
      </trkpt>
      <trkpt lat="46.66762" lon="-1.90974">
        <ele>2.7</ele>
        <time>2020-06-03T16:08:07Z</time>
      </trkpt>
      <trkpt lat="46.66763" lon="-1.9097">
        <ele>2.7</ele>
        <time>2020-06-03T16:08:08Z</time>
      </trkpt>
      <trkpt lat="46.66766" lon="-1.90965">
        <ele>2.6</ele>
        <time>2020-06-03T16:08:09Z</time>
      </trkpt>
      <trkpt lat="46.66767" lon="-1.90962">
        <ele>2.6</ele>
        <time>2020-06-03T16:08:10Z</time>
      </trkpt>
      <trkpt lat="46.6677" lon="-1.90956">
        <ele>2.6</ele>
        <time>2020-06-03T16:08:11Z</time>
      </trkpt>
      <trkpt lat="46.66774" lon="-1.9095">
        <ele>2.6</ele>
        <time>2020-06-03T16:08:12Z</time>
      </trkpt>
      <trkpt lat="46.66778" lon="-1.90947">
        <ele>2.6</ele>
        <time>2020-06-03T16:08:13Z</time>
      </trkpt>
      <trkpt lat="46.66782" lon="-1.90943">
        <ele>2.6</ele>
        <time>2020-06-03T16:08:14Z</time>
      </trkpt>
      <trkpt lat="46.66785" lon="-1.9094">
        <ele>2.6</ele>
        <time>2020-06-03T16:08:15Z</time>
      </trkpt>
      <trkpt lat="46.66789" lon="-1.90938">
        <ele>2.6</ele>
        <time>2020-06-03T16:08:16Z</time>
      </trkpt>
      <trkpt lat="46.66792" lon="-1.90935">
        <ele>2.6</ele>
        <time>2020-06-03T16:08:17Z</time>
      </trkpt>
      <trkpt lat="46.66796" lon="-1.90931">
        <ele>2.7</ele>
        <time>2020-06-03T16:08:18Z</time>
      </trkpt>
      <trkpt lat="46.668" lon="-1.90928">
        <ele>2.7</ele>
        <time>2020-06-03T16:08:19Z</time>
      </trkpt>
      <trkpt lat="46.66804" lon="-1.90926">
        <ele>2.7</ele>
        <time>2020-06-03T16:08:20Z</time>
      </trkpt>
      <trkpt lat="46.66808" lon="-1.90923">
        <ele>2.7</ele>
        <time>2020-06-03T16:08:21Z</time>
      </trkpt>
      <trkpt lat="46.66812" lon="-1.9092">
        <ele>2.7</ele>
        <time>2020-06-03T16:08:22Z</time>
      </trkpt>
      <trkpt lat="46.66816" lon="-1.90917">
        <ele>2.8</ele>
        <time>2020-06-03T16:08:23Z</time>
      </trkpt>
      <trkpt lat="46.6682" lon="-1.90913">
        <ele>2.8</ele>
        <time>2020-06-03T16:08:24Z</time>
      </trkpt>
      <trkpt lat="46.66824" lon="-1.9091">
        <ele>2.8</ele>
        <time>2020-06-03T16:08:25Z</time>
      </trkpt>
      <trkpt lat="46.66829" lon="-1.90906">
        <ele>2.9</ele>
        <time>2020-06-03T16:08:26Z</time>
      </trkpt>
      <trkpt lat="46.66833" lon="-1.90901">
        <ele>2.9</ele>
        <time>2020-06-03T16:08:27Z</time>
      </trkpt>
      <trkpt lat="46.66836" lon="-1.90898">
        <ele>2.9</ele>
        <time>2020-06-03T16:08:28Z</time>
      </trkpt>
      <trkpt lat="46.66839" lon="-1.90895">
        <ele>2.9</ele>
        <time>2020-06-03T16:08:29Z</time>
      </trkpt>
      <trkpt lat="46.66842" lon="-1.90891">
        <ele>3</ele>
        <time>2020-06-03T16:08:30Z</time>
      </trkpt>
      <trkpt lat="46.66845" lon="-1.90887">
        <ele>3</ele>
        <time>2020-06-03T16:08:31Z</time>
      </trkpt>
      <trkpt lat="46.6685" lon="-1.9088">
        <ele>3</ele>
        <time>2020-06-03T16:08:32Z</time>
      </trkpt>
      <trkpt lat="46.66856" lon="-1.90873">
        <ele>3</ele>
        <time>2020-06-03T16:08:33Z</time>
      </trkpt>
      <trkpt lat="46.66862" lon="-1.90867">
        <ele>3.1</ele>
        <time>2020-06-03T16:08:34Z</time>
      </trkpt>
      <trkpt lat="46.66869" lon="-1.90861">
        <ele>3.1</ele>
        <time>2020-06-03T16:08:35Z</time>
      </trkpt>
      <trkpt lat="46.66874" lon="-1.90857">
        <ele>3.1</ele>
        <time>2020-06-03T16:08:36Z</time>
      </trkpt>
      <trkpt lat="46.6688" lon="-1.90852">
        <ele>3.1</ele>
        <time>2020-06-03T16:08:37Z</time>
      </trkpt>
      <trkpt lat="46.66886" lon="-1.90849">
        <ele>3.2</ele>
        <time>2020-06-03T16:08:38Z</time>
      </trkpt>
      <trkpt lat="46.66891" lon="-1.90845">
        <ele>3.2</ele>
        <time>2020-06-03T16:08:39Z</time>
      </trkpt>
      <trkpt lat="46.66896" lon="-1.90843">
        <ele>3.2</ele>
        <time>2020-06-03T16:08:40Z</time>
      </trkpt>
      <trkpt lat="46.669" lon="-1.9084">
        <ele>3.2</ele>
        <time>2020-06-03T16:08:41Z</time>
      </trkpt>
      <trkpt lat="46.66905" lon="-1.90838">
        <ele>3.3</ele>
        <time>2020-06-03T16:08:42Z</time>
      </trkpt>
      <trkpt lat="46.6691" lon="-1.90835">
        <ele>3.3</ele>
        <time>2020-06-03T16:08:43Z</time>
      </trkpt>
      <trkpt lat="46.66916" lon="-1.90832">
        <ele>3.3</ele>
        <time>2020-06-03T16:08:44Z</time>
      </trkpt>
      <trkpt lat="46.66922" lon="-1.90829">
        <ele>3.3</ele>
        <time>2020-06-03T16:08:45Z</time>
      </trkpt>
      <trkpt lat="46.66928" lon="-1.90825">
        <ele>3.3</ele>
        <time>2020-06-03T16:08:46Z</time>
      </trkpt>
      <trkpt lat="46.66934" lon="-1.90822">
        <ele>3.3</ele>
        <time>2020-06-03T16:08:47Z</time>
      </trkpt>
      <trkpt lat="46.6694" lon="-1.9082">
        <ele>3.3</ele>
        <time>2020-06-03T16:08:48Z</time>
      </trkpt>
      <trkpt lat="46.66945" lon="-1.90821">
        <ele>3.3</ele>
        <time>2020-06-03T16:08:49Z</time>
      </trkpt>
      <trkpt lat="46.66951" lon="-1.90822">
        <ele>3.3</ele>
        <time>2020-06-03T16:08:50Z</time>
      </trkpt>
      <trkpt lat="46.66957" lon="-1.90824">
        <ele>3.3</ele>
        <time>2020-06-03T16:08:51Z</time>
      </trkpt>
      <trkpt lat="46.66963" lon="-1.90826">
        <ele>3.3</ele>
        <time>2020-06-03T16:08:52Z</time>
      </trkpt>
      <trkpt lat="46.66969" lon="-1.90825">
        <ele>3.3</ele>
        <time>2020-06-03T16:08:53Z</time>
      </trkpt>
      <trkpt lat="46.66973" lon="-1.90825">
        <ele>3.3</ele>
        <time>2020-06-03T16:08:54Z</time>
      </trkpt>
      <trkpt lat="46.66979" lon="-1.90824">
        <ele>3.3</ele>
        <time>2020-06-03T16:08:55Z</time>
      </trkpt>
      <trkpt lat="46.66985" lon="-1.90826">
        <ele>3.3</ele>
        <time>2020-06-03T16:08:56Z</time>
      </trkpt>
      <trkpt lat="46.66991" lon="-1.90826">
        <ele>3.3</ele>
        <time>2020-06-03T16:08:57Z</time>
      </trkpt>
      <trkpt lat="46.66998" lon="-1.90828">
        <ele>3.3</ele>
        <time>2020-06-03T16:08:58Z</time>
      </trkpt>
      <trkpt lat="46.67003" lon="-1.90829">
        <ele>3.3</ele>
        <time>2020-06-03T16:08:59Z</time>
      </trkpt>
      <trkpt lat="46.67008" lon="-1.90831">
        <ele>3.3</ele>
        <time>2020-06-03T16:09:00Z</time>
      </trkpt>
      <trkpt lat="46.67013" lon="-1.90832">
        <ele>3.3</ele>
        <time>2020-06-03T16:09:01Z</time>
      </trkpt>
      <trkpt lat="46.67018" lon="-1.90834">
        <ele>3.3</ele>
        <time>2020-06-03T16:09:02Z</time>
      </trkpt>
      <trkpt lat="46.67023" lon="-1.90835">
        <ele>3.3</ele>
        <time>2020-06-03T16:09:03Z</time>
      </trkpt>
      <trkpt lat="46.6703" lon="-1.90837">
        <ele>3.2</ele>
        <time>2020-06-03T16:09:04Z</time>
      </trkpt>
      <trkpt lat="46.67038" lon="-1.90838">
        <ele>3.2</ele>
        <time>2020-06-03T16:09:05Z</time>
      </trkpt>
      <trkpt lat="46.67045" lon="-1.9084">
        <ele>3.2</ele>
        <time>2020-06-03T16:09:06Z</time>
      </trkpt>
      <trkpt lat="46.67052" lon="-1.90842">
        <ele>3.2</ele>
        <time>2020-06-03T16:09:07Z</time>
      </trkpt>
      <trkpt lat="46.67059" lon="-1.90845">
        <ele>3.2</ele>
        <time>2020-06-03T16:09:08Z</time>
      </trkpt>
      <trkpt lat="46.67066" lon="-1.90846">
        <ele>3.2</ele>
        <time>2020-06-03T16:09:09Z</time>
      </trkpt>
      <trkpt lat="46.67073" lon="-1.90848">
        <ele>3.2</ele>
        <time>2020-06-03T16:09:10Z</time>
      </trkpt>
      <trkpt lat="46.67078" lon="-1.90852">
        <ele>3.2</ele>
        <time>2020-06-03T16:09:11Z</time>
      </trkpt>
      <trkpt lat="46.67083" lon="-1.90857">
        <ele>3.2</ele>
        <time>2020-06-03T16:09:12Z</time>
      </trkpt>
      <trkpt lat="46.67088" lon="-1.90859">
        <ele>3.2</ele>
        <time>2020-06-03T16:09:13Z</time>
      </trkpt>
      <trkpt lat="46.67091" lon="-1.9086">
        <ele>3.2</ele>
        <time>2020-06-03T16:09:14Z</time>
      </trkpt>
      <trkpt lat="46.67095" lon="-1.90861">
        <ele>3.2</ele>
        <time>2020-06-03T16:09:15Z</time>
      </trkpt>
      <trkpt lat="46.67099" lon="-1.90858">
        <ele>3.2</ele>
        <time>2020-06-03T16:09:16Z</time>
      </trkpt>
      <trkpt lat="46.67103" lon="-1.90853">
        <ele>3.2</ele>
        <time>2020-06-03T16:09:17Z</time>
      </trkpt>
      <trkpt lat="46.67106" lon="-1.90849">
        <ele>3.2</ele>
        <time>2020-06-03T16:09:18Z</time>
      </trkpt>
      <trkpt lat="46.6711" lon="-1.90845">
        <ele>3.2</ele>
        <time>2020-06-03T16:09:19Z</time>
      </trkpt>
      <trkpt lat="46.67113" lon="-1.9084">
        <ele>3.2</ele>
        <time>2020-06-03T16:09:20Z</time>
      </trkpt>
      <trkpt lat="46.67117" lon="-1.90835">
        <ele>3.2</ele>
        <time>2020-06-03T16:09:21Z</time>
      </trkpt>
      <trkpt lat="46.6712" lon="-1.90831">
        <ele>3.2</ele>
        <time>2020-06-03T16:09:22Z</time>
      </trkpt>
      <trkpt lat="46.67123" lon="-1.90826">
        <ele>3.2</ele>
        <time>2020-06-03T16:09:23Z</time>
      </trkpt>
      <trkpt lat="46.67127" lon="-1.90822">
        <ele>3.2</ele>
        <time>2020-06-03T16:09:24Z</time>
      </trkpt>
      <trkpt lat="46.6713" lon="-1.90819">
        <ele>3.2</ele>
        <time>2020-06-03T16:09:25Z</time>
      </trkpt>
      <trkpt lat="46.67134" lon="-1.90814">
        <ele>3.2</ele>
        <time>2020-06-03T16:09:26Z</time>
      </trkpt>
      <trkpt lat="46.67138" lon="-1.90809">
        <ele>3.2</ele>
        <time>2020-06-03T16:09:27Z</time>
      </trkpt>
      <trkpt lat="46.67141" lon="-1.90805">
        <ele>3.2</ele>
        <time>2020-06-03T16:09:28Z</time>
      </trkpt>
      <trkpt lat="46.67144" lon="-1.90801">
        <ele>3.2</ele>
        <time>2020-06-03T16:09:29Z</time>
      </trkpt>
      <trkpt lat="46.67147" lon="-1.90798">
        <ele>3.2</ele>
        <time>2020-06-03T16:09:30Z</time>
      </trkpt>
      <trkpt lat="46.67149" lon="-1.90797">
        <ele>3.2</ele>
        <time>2020-06-03T16:09:31Z</time>
      </trkpt>
      <trkpt lat="46.6715" lon="-1.90797">
        <ele>3.2</ele>
        <time>2020-06-03T16:09:32Z</time>
      </trkpt>
      <trkpt lat="46.67152" lon="-1.90801">
        <ele>3.2</ele>
        <time>2020-06-03T16:09:33Z</time>
      </trkpt>
      <trkpt lat="46.67152" lon="-1.90803">
        <ele>3.2</ele>
        <time>2020-06-03T16:09:34Z</time>
      </trkpt>
      <trkpt lat="46.67154" lon="-1.90808">
        <ele>3.2</ele>
        <time>2020-06-03T16:09:35Z</time>
      </trkpt>
      <trkpt lat="46.67156" lon="-1.90812">
        <ele>3.2</ele>
        <time>2020-06-03T16:09:36Z</time>
      </trkpt>
      <trkpt lat="46.67158" lon="-1.90815">
        <ele>3.2</ele>
        <time>2020-06-03T16:09:37Z</time>
      </trkpt>
      <trkpt lat="46.6716" lon="-1.90819">
        <ele>3.2</ele>
        <time>2020-06-03T16:09:38Z</time>
      </trkpt>
      <trkpt lat="46.67163" lon="-1.90824">
        <ele>3.2</ele>
        <time>2020-06-03T16:09:39Z</time>
      </trkpt>
      <trkpt lat="46.67165" lon="-1.90829">
        <ele>3.2</ele>
        <time>2020-06-03T16:09:40Z</time>
      </trkpt>
      <trkpt lat="46.67168" lon="-1.90834">
        <ele>3.2</ele>
        <time>2020-06-03T16:09:41Z</time>
      </trkpt>
      <trkpt lat="46.6717" lon="-1.90839">
        <ele>3.3</ele>
        <time>2020-06-03T16:09:42Z</time>
      </trkpt>
      <trkpt lat="46.67173" lon="-1.90845">
        <ele>3.3</ele>
        <time>2020-06-03T16:09:43Z</time>
      </trkpt>
      <trkpt lat="46.67176" lon="-1.9085">
        <ele>3.3</ele>
        <time>2020-06-03T16:09:44Z</time>
      </trkpt>
      <trkpt lat="46.67179" lon="-1.90857">
        <ele>3.3</ele>
        <time>2020-06-03T16:09:45Z</time>
      </trkpt>
      <trkpt lat="46.67183" lon="-1.90864">
        <ele>3.3</ele>
        <time>2020-06-03T16:09:46Z</time>
      </trkpt>
      <trkpt lat="46.67185" lon="-1.90871">
        <ele>3.2</ele>
        <time>2020-06-03T16:09:47Z</time>
      </trkpt>
      <trkpt lat="46.67188" lon="-1.90878">
        <ele>3.2</ele>
        <time>2020-06-03T16:09:48Z</time>
      </trkpt>
      <trkpt lat="46.67192" lon="-1.90886">
        <ele>3.2</ele>
        <time>2020-06-03T16:09:49Z</time>
      </trkpt>
      <trkpt lat="46.67195" lon="-1.90892">
        <ele>3.2</ele>
        <time>2020-06-03T16:09:50Z</time>
      </trkpt>
      <trkpt lat="46.67199" lon="-1.90898">
        <ele>3.1</ele>
        <time>2020-06-03T16:09:51Z</time>
      </trkpt>
      <trkpt lat="46.67203" lon="-1.90903">
        <ele>3.1</ele>
        <time>2020-06-03T16:09:52Z</time>
      </trkpt>
      <trkpt lat="46.67207" lon="-1.90909">
        <ele>3.1</ele>
        <time>2020-06-03T16:09:53Z</time>
      </trkpt>
      <trkpt lat="46.67211" lon="-1.90915">
        <ele>3</ele>
        <time>2020-06-03T16:09:54Z</time>
      </trkpt>
      <trkpt lat="46.67215" lon="-1.90921">
        <ele>2.9</ele>
        <time>2020-06-03T16:09:55Z</time>
      </trkpt>
      <trkpt lat="46.67219" lon="-1.90927">
        <ele>2.8</ele>
        <time>2020-06-03T16:09:56Z</time>
      </trkpt>
      <trkpt lat="46.67223" lon="-1.90933">
        <ele>2.8</ele>
        <time>2020-06-03T16:09:57Z</time>
      </trkpt>
      <trkpt lat="46.67227" lon="-1.90939">
        <ele>2.7</ele>
        <time>2020-06-03T16:09:58Z</time>
      </trkpt>
      <trkpt lat="46.67232" lon="-1.90945">
        <ele>2.6</ele>
        <time>2020-06-03T16:09:59Z</time>
      </trkpt>
      <trkpt lat="46.67236" lon="-1.90952">
        <ele>2.6</ele>
        <time>2020-06-03T16:10:00Z</time>
      </trkpt>
      <trkpt lat="46.67241" lon="-1.90958">
        <ele>2.5</ele>
        <time>2020-06-03T16:10:01Z</time>
      </trkpt>
      <trkpt lat="46.67246" lon="-1.90965">
        <ele>2.4</ele>
        <time>2020-06-03T16:10:02Z</time>
      </trkpt>
      <trkpt lat="46.67251" lon="-1.90971">
        <ele>2.4</ele>
        <time>2020-06-03T16:10:03Z</time>
      </trkpt>
      <trkpt lat="46.67256" lon="-1.90977">
        <ele>2.4</ele>
        <time>2020-06-03T16:10:04Z</time>
      </trkpt>
      <trkpt lat="46.6726" lon="-1.90983">
        <ele>2.3</ele>
        <time>2020-06-03T16:10:05Z</time>
      </trkpt>
      <trkpt lat="46.67264" lon="-1.90989">
        <ele>2.3</ele>
        <time>2020-06-03T16:10:06Z</time>
      </trkpt>
      <trkpt lat="46.67268" lon="-1.90995">
        <ele>2.3</ele>
        <time>2020-06-03T16:10:07Z</time>
      </trkpt>
      <trkpt lat="46.67272" lon="-1.91001">
        <ele>2.3</ele>
        <time>2020-06-03T16:10:08Z</time>
      </trkpt>
      <trkpt lat="46.67276" lon="-1.91008">
        <ele>2.3</ele>
        <time>2020-06-03T16:10:09Z</time>
      </trkpt>
      <trkpt lat="46.6728" lon="-1.91016">
        <ele>2.2</ele>
        <time>2020-06-03T16:10:10Z</time>
      </trkpt>
      <trkpt lat="46.67283" lon="-1.91023">
        <ele>2.2</ele>
        <time>2020-06-03T16:10:11Z</time>
      </trkpt>
      <trkpt lat="46.67287" lon="-1.91029">
        <ele>2.2</ele>
        <time>2020-06-03T16:10:12Z</time>
      </trkpt>
      <trkpt lat="46.67291" lon="-1.91035">
        <ele>2.2</ele>
        <time>2020-06-03T16:10:13Z</time>
      </trkpt>
      <trkpt lat="46.67295" lon="-1.91042">
        <ele>2.2</ele>
        <time>2020-06-03T16:10:14Z</time>
      </trkpt>
      <trkpt lat="46.67298" lon="-1.9105">
        <ele>2.2</ele>
        <time>2020-06-03T16:10:15Z</time>
      </trkpt>
      <trkpt lat="46.67301" lon="-1.91057">
        <ele>2.2</ele>
        <time>2020-06-03T16:10:16Z</time>
      </trkpt>
      <trkpt lat="46.67303" lon="-1.91064">
        <ele>2.2</ele>
        <time>2020-06-03T16:10:17Z</time>
      </trkpt>
      <trkpt lat="46.67306" lon="-1.9107">
        <ele>2.2</ele>
        <time>2020-06-03T16:10:18Z</time>
      </trkpt>
      <trkpt lat="46.67307" lon="-1.91077">
        <ele>2.2</ele>
        <time>2020-06-03T16:10:19Z</time>
      </trkpt>
      <trkpt lat="46.67311" lon="-1.91082">
        <ele>2.2</ele>
        <time>2020-06-03T16:10:20Z</time>
      </trkpt>
      <trkpt lat="46.67314" lon="-1.91088">
        <ele>2.2</ele>
        <time>2020-06-03T16:10:21Z</time>
      </trkpt>
      <trkpt lat="46.67318" lon="-1.91094">
        <ele>2.2</ele>
        <time>2020-06-03T16:10:22Z</time>
      </trkpt>
      <trkpt lat="46.67321" lon="-1.911">
        <ele>2.2</ele>
        <time>2020-06-03T16:10:23Z</time>
      </trkpt>
      <trkpt lat="46.67325" lon="-1.91107">
        <ele>2.2</ele>
        <time>2020-06-03T16:10:24Z</time>
      </trkpt>
      <trkpt lat="46.67329" lon="-1.91114">
        <ele>2.2</ele>
        <time>2020-06-03T16:10:25Z</time>
      </trkpt>
      <trkpt lat="46.67332" lon="-1.9112">
        <ele>2.2</ele>
        <time>2020-06-03T16:10:26Z</time>
      </trkpt>
      <trkpt lat="46.67335" lon="-1.91126">
        <ele>2.2</ele>
        <time>2020-06-03T16:10:27Z</time>
      </trkpt>
      <trkpt lat="46.67339" lon="-1.91133">
        <ele>2.2</ele>
        <time>2020-06-03T16:10:28Z</time>
      </trkpt>
      <trkpt lat="46.67342" lon="-1.91139">
        <ele>2.2</ele>
        <time>2020-06-03T16:10:29Z</time>
      </trkpt>
      <trkpt lat="46.67344" lon="-1.91145">
        <ele>2.2</ele>
        <time>2020-06-03T16:10:30Z</time>
      </trkpt>
      <trkpt lat="46.67347" lon="-1.91152">
        <ele>2.2</ele>
        <time>2020-06-03T16:10:31Z</time>
      </trkpt>
      <trkpt lat="46.67349" lon="-1.91159">
        <ele>2.2</ele>
        <time>2020-06-03T16:10:32Z</time>
      </trkpt>
      <trkpt lat="46.67352" lon="-1.91165">
        <ele>2.2</ele>
        <time>2020-06-03T16:10:33Z</time>
      </trkpt>
      <trkpt lat="46.67355" lon="-1.91172">
        <ele>2.2</ele>
        <time>2020-06-03T16:10:34Z</time>
      </trkpt>
      <trkpt lat="46.67357" lon="-1.91178">
        <ele>2.2</ele>
        <time>2020-06-03T16:10:35Z</time>
      </trkpt>
      <trkpt lat="46.67358" lon="-1.91183">
        <ele>2.2</ele>
        <time>2020-06-03T16:10:36Z</time>
      </trkpt>
      <trkpt lat="46.6736" lon="-1.91189">
        <ele>2.2</ele>
        <time>2020-06-03T16:10:37Z</time>
      </trkpt>
      <trkpt lat="46.67362" lon="-1.91194">
        <ele>2.2</ele>
        <time>2020-06-03T16:10:38Z</time>
      </trkpt>
      <trkpt lat="46.67365" lon="-1.91202">
        <ele>2.2</ele>
        <time>2020-06-03T16:10:39Z</time>
      </trkpt>
      <trkpt lat="46.67368" lon="-1.91209">
        <ele>2.2</ele>
        <time>2020-06-03T16:10:40Z</time>
      </trkpt>
      <trkpt lat="46.6737" lon="-1.91216">
        <ele>2.2</ele>
        <time>2020-06-03T16:10:41Z</time>
      </trkpt>
      <trkpt lat="46.67372" lon="-1.91223">
        <ele>2.2</ele>
        <time>2020-06-03T16:10:42Z</time>
      </trkpt>
      <trkpt lat="46.67374" lon="-1.91229">
        <ele>2.2</ele>
        <time>2020-06-03T16:10:43Z</time>
      </trkpt>
      <trkpt lat="46.67376" lon="-1.91235">
        <ele>2.3</ele>
        <time>2020-06-03T16:10:44Z</time>
      </trkpt>
      <trkpt lat="46.67378" lon="-1.9124">
        <ele>2.3</ele>
        <time>2020-06-03T16:10:45Z</time>
      </trkpt>
      <trkpt lat="46.67381" lon="-1.91244">
        <ele>2.4</ele>
        <time>2020-06-03T16:10:46Z</time>
      </trkpt>
      <trkpt lat="46.67384" lon="-1.91249">
        <ele>2.4</ele>
        <time>2020-06-03T16:10:47Z</time>
      </trkpt>
      <trkpt lat="46.67386" lon="-1.91255">
        <ele>2.4</ele>
        <time>2020-06-03T16:10:48Z</time>
      </trkpt>
      <trkpt lat="46.67389" lon="-1.91259">
        <ele>2.5</ele>
        <time>2020-06-03T16:10:49Z</time>
      </trkpt>
      <trkpt lat="46.67391" lon="-1.91265">
        <ele>2.5</ele>
        <time>2020-06-03T16:10:50Z</time>
      </trkpt>
      <trkpt lat="46.67394" lon="-1.91271">
        <ele>2.6</ele>
        <time>2020-06-03T16:10:51Z</time>
      </trkpt>
      <trkpt lat="46.67396" lon="-1.91277">
        <ele>2.6</ele>
        <time>2020-06-03T16:10:52Z</time>
      </trkpt>
      <trkpt lat="46.67398" lon="-1.91283">
        <ele>2.7</ele>
        <time>2020-06-03T16:10:53Z</time>
      </trkpt>
      <trkpt lat="46.67401" lon="-1.91289">
        <ele>2.7</ele>
        <time>2020-06-03T16:10:54Z</time>
      </trkpt>
      <trkpt lat="46.67405" lon="-1.91295">
        <ele>2.8</ele>
        <time>2020-06-03T16:10:55Z</time>
      </trkpt>
      <trkpt lat="46.67408" lon="-1.913">
        <ele>2.9</ele>
        <time>2020-06-03T16:10:56Z</time>
      </trkpt>
      <trkpt lat="46.67411" lon="-1.91305">
        <ele>2.9</ele>
        <time>2020-06-03T16:10:57Z</time>
      </trkpt>
      <trkpt lat="46.67415" lon="-1.91311">
        <ele>3</ele>
        <time>2020-06-03T16:10:58Z</time>
      </trkpt>
      <trkpt lat="46.67419" lon="-1.91317">
        <ele>3.1</ele>
        <time>2020-06-03T16:10:59Z</time>
      </trkpt>
      <trkpt lat="46.67422" lon="-1.91324">
        <ele>3.2</ele>
        <time>2020-06-03T16:11:00Z</time>
      </trkpt>
      <trkpt lat="46.67426" lon="-1.91331">
        <ele>3.3</ele>
        <time>2020-06-03T16:11:01Z</time>
      </trkpt>
      <trkpt lat="46.67429" lon="-1.91337">
        <ele>3.4</ele>
        <time>2020-06-03T16:11:02Z</time>
      </trkpt>
      <trkpt lat="46.67432" lon="-1.91342">
        <ele>3.5</ele>
        <time>2020-06-03T16:11:03Z</time>
      </trkpt>
      <trkpt lat="46.67436" lon="-1.91348">
        <ele>3.6</ele>
        <time>2020-06-03T16:11:04Z</time>
      </trkpt>
      <trkpt lat="46.6744" lon="-1.91353">
        <ele>3.7</ele>
        <time>2020-06-03T16:11:05Z</time>
      </trkpt>
      <trkpt lat="46.67443" lon="-1.91357">
        <ele>3.8</ele>
        <time>2020-06-03T16:11:06Z</time>
      </trkpt>
      <trkpt lat="46.67445" lon="-1.91362">
        <ele>3.9</ele>
        <time>2020-06-03T16:11:07Z</time>
      </trkpt>
      <trkpt lat="46.67447" lon="-1.91367">
        <ele>3.9</ele>
        <time>2020-06-03T16:11:08Z</time>
      </trkpt>
      <trkpt lat="46.6745" lon="-1.9137">
        <ele>4</ele>
        <time>2020-06-03T16:11:09Z</time>
      </trkpt>
      <trkpt lat="46.67453" lon="-1.91373">
        <ele>4</ele>
        <time>2020-06-03T16:11:10Z</time>
      </trkpt>
      <trkpt lat="46.67455" lon="-1.91377">
        <ele>4.1</ele>
        <time>2020-06-03T16:11:11Z</time>
      </trkpt>
      <trkpt lat="46.67456" lon="-1.91379">
        <ele>4.1</ele>
        <time>2020-06-03T16:11:12Z</time>
      </trkpt>
      <trkpt lat="46.67458" lon="-1.9138">
        <ele>4.1</ele>
        <time>2020-06-03T16:11:13Z</time>
      </trkpt>
      <trkpt lat="46.67461" lon="-1.91381">
        <ele>4.1</ele>
        <time>2020-06-03T16:11:14Z</time>
      </trkpt>
      <trkpt lat="46.67463" lon="-1.91382">
        <ele>4.1</ele>
        <time>2020-06-03T16:11:15Z</time>
      </trkpt>
      <trkpt lat="46.67465" lon="-1.91383">
        <ele>4.1</ele>
        <time>2020-06-03T16:11:16Z</time>
      </trkpt>
      <trkpt lat="46.67466" lon="-1.91384">
        <ele>4.2</ele>
        <time>2020-06-03T16:11:17Z</time>
      </trkpt>
      <trkpt lat="46.67469" lon="-1.91387">
        <ele>4.1</ele>
        <time>2020-06-03T16:11:18Z</time>
      </trkpt>
      <trkpt lat="46.67469" lon="-1.91388">
        <ele>4.1</ele>
        <time>2020-06-03T16:11:19Z</time>
      </trkpt>
      <trkpt lat="46.67471" lon="-1.91393">
        <ele>4.1</ele>
        <time>2020-06-03T16:11:20Z</time>
      </trkpt>
      <trkpt lat="46.67472" lon="-1.91394">
        <ele>4.1</ele>
        <time>2020-06-03T16:11:21Z</time>
      </trkpt>
      <trkpt lat="46.67473" lon="-1.91397">
        <ele>4.1</ele>
        <time>2020-06-03T16:11:22Z</time>
      </trkpt>
      <trkpt lat="46.67474" lon="-1.91398">
        <ele>4.1</ele>
        <time>2020-06-03T16:11:23Z</time>
      </trkpt>
      <trkpt lat="46.67477" lon="-1.914">
        <ele>4.1</ele>
        <time>2020-06-03T16:11:24Z</time>
      </trkpt>
      <trkpt lat="46.6748" lon="-1.91404">
        <ele>4.1</ele>
        <time>2020-06-03T16:11:25Z</time>
      </trkpt>
      <trkpt lat="46.67481" lon="-1.91406">
        <ele>4.1</ele>
        <time>2020-06-03T16:11:26Z</time>
      </trkpt>
      <trkpt lat="46.67482" lon="-1.91411">
        <ele>4.1</ele>
        <time>2020-06-03T16:11:27Z</time>
      </trkpt>
      <trkpt lat="46.67483" lon="-1.91416">
        <ele>4.1</ele>
        <time>2020-06-03T16:11:28Z</time>
      </trkpt>
      <trkpt lat="46.67484" lon="-1.91421">
        <ele>4.1</ele>
        <time>2020-06-03T16:11:29Z</time>
      </trkpt>
      <trkpt lat="46.67486" lon="-1.91426">
        <ele>4.1</ele>
        <time>2020-06-03T16:11:30Z</time>
      </trkpt>
      <trkpt lat="46.67487" lon="-1.9143">
        <ele>4.1</ele>
        <time>2020-06-03T16:11:31Z</time>
      </trkpt>
      <trkpt lat="46.67489" lon="-1.91434">
        <ele>4.1</ele>
        <time>2020-06-03T16:11:32Z</time>
      </trkpt>
      <trkpt lat="46.6749" lon="-1.91439">
        <ele>4.1</ele>
        <time>2020-06-03T16:11:33Z</time>
      </trkpt>
      <trkpt lat="46.67492" lon="-1.91444">
        <ele>4.1</ele>
        <time>2020-06-03T16:11:34Z</time>
      </trkpt>
      <trkpt lat="46.67496" lon="-1.91449">
        <ele>4</ele>
        <time>2020-06-03T16:11:35Z</time>
      </trkpt>
      <trkpt lat="46.675" lon="-1.91455">
        <ele>4</ele>
        <time>2020-06-03T16:11:36Z</time>
      </trkpt>
      <trkpt lat="46.67503" lon="-1.91462">
        <ele>4</ele>
        <time>2020-06-03T16:11:37Z</time>
      </trkpt>
      <trkpt lat="46.67506" lon="-1.91469">
        <ele>4</ele>
        <time>2020-06-03T16:11:38Z</time>
      </trkpt>
      <trkpt lat="46.67509" lon="-1.91474">
        <ele>4</ele>
        <time>2020-06-03T16:11:39Z</time>
      </trkpt>
      <trkpt lat="46.67513" lon="-1.91479">
        <ele>4</ele>
        <time>2020-06-03T16:11:40Z</time>
      </trkpt>
      <trkpt lat="46.67516" lon="-1.91485">
        <ele>4</ele>
        <time>2020-06-03T16:11:41Z</time>
      </trkpt>
      <trkpt lat="46.6752" lon="-1.91491">
        <ele>3.9</ele>
        <time>2020-06-03T16:11:42Z</time>
      </trkpt>
      <trkpt lat="46.67523" lon="-1.91497">
        <ele>3.9</ele>
        <time>2020-06-03T16:11:43Z</time>
      </trkpt>
      <trkpt lat="46.67527" lon="-1.91503">
        <ele>3.9</ele>
        <time>2020-06-03T16:11:44Z</time>
      </trkpt>
      <trkpt lat="46.6753" lon="-1.91509">
        <ele>3.9</ele>
        <time>2020-06-03T16:11:45Z</time>
      </trkpt>
      <trkpt lat="46.67532" lon="-1.91514">
        <ele>3.9</ele>
        <time>2020-06-03T16:11:46Z</time>
      </trkpt>
      <trkpt lat="46.67535" lon="-1.9152">
        <ele>3.9</ele>
        <time>2020-06-03T16:11:47Z</time>
      </trkpt>
      <trkpt lat="46.67538" lon="-1.91526">
        <ele>3.9</ele>
        <time>2020-06-03T16:11:48Z</time>
      </trkpt>
      <trkpt lat="46.67542" lon="-1.91532">
        <ele>4</ele>
        <time>2020-06-03T16:11:49Z</time>
      </trkpt>
      <trkpt lat="46.67544" lon="-1.91538">
        <ele>4</ele>
        <time>2020-06-03T16:11:50Z</time>
      </trkpt>
      <trkpt lat="46.67547" lon="-1.91544">
        <ele>4</ele>
        <time>2020-06-03T16:11:51Z</time>
      </trkpt>
      <trkpt lat="46.6755" lon="-1.91549">
        <ele>4</ele>
        <time>2020-06-03T16:11:52Z</time>
      </trkpt>
      <trkpt lat="46.67552" lon="-1.91553">
        <ele>4</ele>
        <time>2020-06-03T16:11:53Z</time>
      </trkpt>
      <trkpt lat="46.67555" lon="-1.91558">
        <ele>4.1</ele>
        <time>2020-06-03T16:11:54Z</time>
      </trkpt>
      <trkpt lat="46.67558" lon="-1.91563">
        <ele>4.1</ele>
        <time>2020-06-03T16:11:55Z</time>
      </trkpt>
      <trkpt lat="46.67561" lon="-1.9157">
        <ele>4.1</ele>
        <time>2020-06-03T16:11:56Z</time>
      </trkpt>
      <trkpt lat="46.67565" lon="-1.91575">
        <ele>4.1</ele>
        <time>2020-06-03T16:11:57Z</time>
      </trkpt>
      <trkpt lat="46.67567" lon="-1.9158">
        <ele>4.2</ele>
        <time>2020-06-03T16:11:58Z</time>
      </trkpt>
      <trkpt lat="46.6757" lon="-1.91586">
        <ele>4.2</ele>
        <time>2020-06-03T16:11:59Z</time>
      </trkpt>
      <trkpt lat="46.67572" lon="-1.91592">
        <ele>4.2</ele>
        <time>2020-06-03T16:12:00Z</time>
      </trkpt>
      <trkpt lat="46.67575" lon="-1.91598">
        <ele>4.2</ele>
        <time>2020-06-03T16:12:01Z</time>
      </trkpt>
      <trkpt lat="46.67578" lon="-1.91605">
        <ele>4.3</ele>
        <time>2020-06-03T16:12:02Z</time>
      </trkpt>
      <trkpt lat="46.67581" lon="-1.91612">
        <ele>4.3</ele>
        <time>2020-06-03T16:12:03Z</time>
      </trkpt>
      <trkpt lat="46.67583" lon="-1.9162">
        <ele>4.3</ele>
        <time>2020-06-03T16:12:04Z</time>
      </trkpt>
      <trkpt lat="46.67586" lon="-1.91627">
        <ele>4.4</ele>
        <time>2020-06-03T16:12:05Z</time>
      </trkpt>
      <trkpt lat="46.67589" lon="-1.91636">
        <ele>4.4</ele>
        <time>2020-06-03T16:12:06Z</time>
      </trkpt>
      <trkpt lat="46.67592" lon="-1.91643">
        <ele>4.4</ele>
        <time>2020-06-03T16:12:07Z</time>
      </trkpt>
      <trkpt lat="46.67595" lon="-1.91649">
        <ele>4.4</ele>
        <time>2020-06-03T16:12:08Z</time>
      </trkpt>
      <trkpt lat="46.67598" lon="-1.91656">
        <ele>4.5</ele>
        <time>2020-06-03T16:12:09Z</time>
      </trkpt>
      <trkpt lat="46.67601" lon="-1.91663">
        <ele>4.5</ele>
        <time>2020-06-03T16:12:10Z</time>
      </trkpt>
      <trkpt lat="46.67605" lon="-1.9167">
        <ele>4.5</ele>
        <time>2020-06-03T16:12:11Z</time>
      </trkpt>
      <trkpt lat="46.67608" lon="-1.91677">
        <ele>4.4</ele>
        <time>2020-06-03T16:12:12Z</time>
      </trkpt>
      <trkpt lat="46.67612" lon="-1.91685">
        <ele>4.4</ele>
        <time>2020-06-03T16:12:13Z</time>
      </trkpt>
      <trkpt lat="46.67616" lon="-1.91692">
        <ele>4.4</ele>
        <time>2020-06-03T16:12:14Z</time>
      </trkpt>
      <trkpt lat="46.6762" lon="-1.91698">
        <ele>4.3</ele>
        <time>2020-06-03T16:12:15Z</time>
      </trkpt>
      <trkpt lat="46.67623" lon="-1.91705">
        <ele>4.3</ele>
        <time>2020-06-03T16:12:16Z</time>
      </trkpt>
      <trkpt lat="46.67627" lon="-1.91711">
        <ele>4.2</ele>
        <time>2020-06-03T16:12:17Z</time>
      </trkpt>
      <trkpt lat="46.67631" lon="-1.91718">
        <ele>4.1</ele>
        <time>2020-06-03T16:12:18Z</time>
      </trkpt>
      <trkpt lat="46.67635" lon="-1.91725">
        <ele>4.1</ele>
        <time>2020-06-03T16:12:19Z</time>
      </trkpt>
      <trkpt lat="46.67639" lon="-1.91733">
        <ele>4</ele>
        <time>2020-06-03T16:12:20Z</time>
      </trkpt>
      <trkpt lat="46.67643" lon="-1.91741">
        <ele>3.9</ele>
        <time>2020-06-03T16:12:21Z</time>
      </trkpt>
      <trkpt lat="46.67646" lon="-1.91748">
        <ele>3.8</ele>
        <time>2020-06-03T16:12:22Z</time>
      </trkpt>
      <trkpt lat="46.6765" lon="-1.91755">
        <ele>3.8</ele>
        <time>2020-06-03T16:12:23Z</time>
      </trkpt>
      <trkpt lat="46.67654" lon="-1.91762">
        <ele>3.7</ele>
        <time>2020-06-03T16:12:24Z</time>
      </trkpt>
      <trkpt lat="46.67658" lon="-1.91769">
        <ele>3.7</ele>
        <time>2020-06-03T16:12:25Z</time>
      </trkpt>
      <trkpt lat="46.67663" lon="-1.91777">
        <ele>3.6</ele>
        <time>2020-06-03T16:12:26Z</time>
      </trkpt>
      <trkpt lat="46.67666" lon="-1.91785">
        <ele>3.6</ele>
        <time>2020-06-03T16:12:27Z</time>
      </trkpt>
      <trkpt lat="46.67671" lon="-1.91792">
        <ele>3.6</ele>
        <time>2020-06-03T16:12:28Z</time>
      </trkpt>
      <trkpt lat="46.67675" lon="-1.91799">
        <ele>3.6</ele>
        <time>2020-06-03T16:12:29Z</time>
      </trkpt>
      <trkpt lat="46.67679" lon="-1.91806">
        <ele>3.6</ele>
        <time>2020-06-03T16:12:30Z</time>
      </trkpt>
      <trkpt lat="46.67683" lon="-1.91813">
        <ele>3.7</ele>
        <time>2020-06-03T16:12:31Z</time>
      </trkpt>
      <trkpt lat="46.67687" lon="-1.91821">
        <ele>3.7</ele>
        <time>2020-06-03T16:12:32Z</time>
      </trkpt>
      <trkpt lat="46.6769" lon="-1.91829">
        <ele>3.7</ele>
        <time>2020-06-03T16:12:33Z</time>
      </trkpt>
      <trkpt lat="46.67693" lon="-1.91835">
        <ele>3.7</ele>
        <time>2020-06-03T16:12:34Z</time>
      </trkpt>
      <trkpt lat="46.67695" lon="-1.9184">
        <ele>3.7</ele>
        <time>2020-06-03T16:12:35Z</time>
      </trkpt>
      <trkpt lat="46.67697" lon="-1.91847">
        <ele>3.7</ele>
        <time>2020-06-03T16:12:36Z</time>
      </trkpt>
      <trkpt lat="46.677" lon="-1.91854">
        <ele>3.7</ele>
        <time>2020-06-03T16:12:37Z</time>
      </trkpt>
      <trkpt lat="46.67703" lon="-1.9186">
        <ele>3.7</ele>
        <time>2020-06-03T16:12:38Z</time>
      </trkpt>
      <trkpt lat="46.67707" lon="-1.91865">
        <ele>3.7</ele>
        <time>2020-06-03T16:12:39Z</time>
      </trkpt>
      <trkpt lat="46.67711" lon="-1.91871">
        <ele>3.7</ele>
        <time>2020-06-03T16:12:40Z</time>
      </trkpt>
      <trkpt lat="46.67713" lon="-1.91876">
        <ele>3.7</ele>
        <time>2020-06-03T16:12:41Z</time>
      </trkpt>
      <trkpt lat="46.67716" lon="-1.91882">
        <ele>3.7</ele>
        <time>2020-06-03T16:12:42Z</time>
      </trkpt>
      <trkpt lat="46.67719" lon="-1.91887">
        <ele>3.7</ele>
        <time>2020-06-03T16:12:43Z</time>
      </trkpt>
      <trkpt lat="46.67722" lon="-1.91892">
        <ele>3.7</ele>
        <time>2020-06-03T16:12:44Z</time>
      </trkpt>
      <trkpt lat="46.67725" lon="-1.91896">
        <ele>3.6</ele>
        <time>2020-06-03T16:12:45Z</time>
      </trkpt>
      <trkpt lat="46.67728" lon="-1.91901">
        <ele>3.6</ele>
        <time>2020-06-03T16:12:46Z</time>
      </trkpt>
      <trkpt lat="46.6773" lon="-1.91906">
        <ele>3.6</ele>
        <time>2020-06-03T16:12:47Z</time>
      </trkpt>
      <trkpt lat="46.67732" lon="-1.91911">
        <ele>3.5</ele>
        <time>2020-06-03T16:12:48Z</time>
      </trkpt>
      <trkpt lat="46.67735" lon="-1.91915">
        <ele>3.5</ele>
        <time>2020-06-03T16:12:49Z</time>
      </trkpt>
      <trkpt lat="46.67737" lon="-1.91919">
        <ele>3.5</ele>
        <time>2020-06-03T16:12:50Z</time>
      </trkpt>
      <trkpt lat="46.67739" lon="-1.91924">
        <ele>3.4</ele>
        <time>2020-06-03T16:12:51Z</time>
      </trkpt>
      <trkpt lat="46.67742" lon="-1.91926">
        <ele>3.4</ele>
        <time>2020-06-03T16:12:52Z</time>
      </trkpt>
      <trkpt lat="46.67745" lon="-1.91929">
        <ele>3.4</ele>
        <time>2020-06-03T16:12:53Z</time>
      </trkpt>
      <trkpt lat="46.67747" lon="-1.91933">
        <ele>3.4</ele>
        <time>2020-06-03T16:12:54Z</time>
      </trkpt>
      <trkpt lat="46.6775" lon="-1.91938">
        <ele>3.4</ele>
        <time>2020-06-03T16:12:55Z</time>
      </trkpt>
      <trkpt lat="46.67752" lon="-1.91941">
        <ele>3.4</ele>
        <time>2020-06-03T16:12:56Z</time>
      </trkpt>
      <trkpt lat="46.67755" lon="-1.91945">
        <ele>3.4</ele>
        <time>2020-06-03T16:12:57Z</time>
      </trkpt>
      <trkpt lat="46.67757" lon="-1.91948">
        <ele>3.4</ele>
        <time>2020-06-03T16:12:58Z</time>
      </trkpt>
      <trkpt lat="46.67759" lon="-1.91951">
        <ele>3.4</ele>
        <time>2020-06-03T16:12:59Z</time>
      </trkpt>
      <trkpt lat="46.67761" lon="-1.91955">
        <ele>3.4</ele>
        <time>2020-06-03T16:13:00Z</time>
      </trkpt>
      <trkpt lat="46.67762" lon="-1.91957">
        <ele>3.4</ele>
        <time>2020-06-03T16:13:01Z</time>
      </trkpt>
      <trkpt lat="46.67764" lon="-1.91959">
        <ele>3.4</ele>
        <time>2020-06-03T16:13:02Z</time>
      </trkpt>
      <trkpt lat="46.67766" lon="-1.91962">
        <ele>3.4</ele>
        <time>2020-06-03T16:13:03Z</time>
      </trkpt>
      <trkpt lat="46.67769" lon="-1.91966">
        <ele>3.4</ele>
        <time>2020-06-03T16:13:04Z</time>
      </trkpt>
      <trkpt lat="46.6777" lon="-1.91967">
        <ele>3.4</ele>
        <time>2020-06-03T16:13:05Z</time>
      </trkpt>
      <trkpt lat="46.67773" lon="-1.91971">
        <ele>3.4</ele>
        <time>2020-06-03T16:13:06Z</time>
      </trkpt>
      <trkpt lat="46.67775" lon="-1.91975">
        <ele>3.4</ele>
        <time>2020-06-03T16:13:07Z</time>
      </trkpt>
      <trkpt lat="46.67777" lon="-1.91978">
        <ele>3.4</ele>
        <time>2020-06-03T16:13:08Z</time>
      </trkpt>
      <trkpt lat="46.6778" lon="-1.91982">
        <ele>3.4</ele>
        <time>2020-06-03T16:13:09Z</time>
      </trkpt>
      <trkpt lat="46.67783" lon="-1.91986">
        <ele>3.4</ele>
        <time>2020-06-03T16:13:10Z</time>
      </trkpt>
      <trkpt lat="46.67785" lon="-1.91989">
        <ele>3.5</ele>
        <time>2020-06-03T16:13:11Z</time>
      </trkpt>
      <trkpt lat="46.67788" lon="-1.91993">
        <ele>3.5</ele>
        <time>2020-06-03T16:13:12Z</time>
      </trkpt>
      <trkpt lat="46.67789" lon="-1.91996">
        <ele>3.5</ele>
        <time>2020-06-03T16:13:13Z</time>
      </trkpt>
      <trkpt lat="46.67791" lon="-1.92">
        <ele>3.5</ele>
        <time>2020-06-03T16:13:14Z</time>
      </trkpt>
      <trkpt lat="46.67794" lon="-1.92004">
        <ele>3.5</ele>
        <time>2020-06-03T16:13:15Z</time>
      </trkpt>
      <trkpt lat="46.67796" lon="-1.92007">
        <ele>3.5</ele>
        <time>2020-06-03T16:13:16Z</time>
      </trkpt>
      <trkpt lat="46.67799" lon="-1.92012">
        <ele>3.5</ele>
        <time>2020-06-03T16:13:17Z</time>
      </trkpt>
      <trkpt lat="46.678" lon="-1.92013">
        <ele>3.5</ele>
        <time>2020-06-03T16:13:18Z</time>
      </trkpt>
      <trkpt lat="46.67803" lon="-1.92018">
        <ele>3.5</ele>
        <time>2020-06-03T16:13:19Z</time>
      </trkpt>
      <trkpt lat="46.67808" lon="-1.92023">
        <ele>3.5</ele>
        <time>2020-06-03T16:13:20Z</time>
      </trkpt>
      <trkpt lat="46.67812" lon="-1.92028">
        <ele>3.5</ele>
        <time>2020-06-03T16:13:21Z</time>
      </trkpt>
      <trkpt lat="46.67816" lon="-1.92034">
        <ele>3.5</ele>
        <time>2020-06-03T16:13:22Z</time>
      </trkpt>
      <trkpt lat="46.67818" lon="-1.9204">
        <ele>3.5</ele>
        <time>2020-06-03T16:13:23Z</time>
      </trkpt>
      <trkpt lat="46.6782" lon="-1.92046">
        <ele>3.5</ele>
        <time>2020-06-03T16:13:24Z</time>
      </trkpt>
      <trkpt lat="46.67823" lon="-1.92051">
        <ele>3.5</ele>
        <time>2020-06-03T16:13:25Z</time>
      </trkpt>
      <trkpt lat="46.67825" lon="-1.92056">
        <ele>3.5</ele>
        <time>2020-06-03T16:13:26Z</time>
      </trkpt>
      <trkpt lat="46.67826" lon="-1.92063">
        <ele>3.5</ele>
        <time>2020-06-03T16:13:27Z</time>
      </trkpt>
      <trkpt lat="46.67828" lon="-1.9207">
        <ele>3.5</ele>
        <time>2020-06-03T16:13:28Z</time>
      </trkpt>
      <trkpt lat="46.6783" lon="-1.92076">
        <ele>3.6</ele>
        <time>2020-06-03T16:13:29Z</time>
      </trkpt>
      <trkpt lat="46.67831" lon="-1.92082">
        <ele>3.6</ele>
        <time>2020-06-03T16:13:30Z</time>
      </trkpt>
      <trkpt lat="46.67832" lon="-1.92088">
        <ele>3.6</ele>
        <time>2020-06-03T16:13:31Z</time>
      </trkpt>
      <trkpt lat="46.67833" lon="-1.92094">
        <ele>3.6</ele>
        <time>2020-06-03T16:13:32Z</time>
      </trkpt>
      <trkpt lat="46.67835" lon="-1.92102">
        <ele>3.6</ele>
        <time>2020-06-03T16:13:33Z</time>
      </trkpt>
      <trkpt lat="46.67835" lon="-1.92109">
        <ele>3.6</ele>
        <time>2020-06-03T16:13:34Z</time>
      </trkpt>
      <trkpt lat="46.67836" lon="-1.92116">
        <ele>3.6</ele>
        <time>2020-06-03T16:13:35Z</time>
      </trkpt>
      <trkpt lat="46.67837" lon="-1.92124">
        <ele>3.6</ele>
        <time>2020-06-03T16:13:36Z</time>
      </trkpt>
      <trkpt lat="46.67839" lon="-1.92131">
        <ele>3.6</ele>
        <time>2020-06-03T16:13:37Z</time>
      </trkpt>
      <trkpt lat="46.6784" lon="-1.92139">
        <ele>3.7</ele>
        <time>2020-06-03T16:13:38Z</time>
      </trkpt>
      <trkpt lat="46.67841" lon="-1.92146">
        <ele>3.7</ele>
        <time>2020-06-03T16:13:39Z</time>
      </trkpt>
      <trkpt lat="46.67843" lon="-1.92151">
        <ele>3.7</ele>
        <time>2020-06-03T16:13:40Z</time>
      </trkpt>
      <trkpt lat="46.67846" lon="-1.92157">
        <ele>3.7</ele>
        <time>2020-06-03T16:13:41Z</time>
      </trkpt>
      <trkpt lat="46.67849" lon="-1.92162">
        <ele>3.7</ele>
        <time>2020-06-03T16:13:42Z</time>
      </trkpt>
      <trkpt lat="46.67852" lon="-1.92168">
        <ele>3.7</ele>
        <time>2020-06-03T16:13:43Z</time>
      </trkpt>
      <trkpt lat="46.67855" lon="-1.92173">
        <ele>3.7</ele>
        <time>2020-06-03T16:13:44Z</time>
      </trkpt>
      <trkpt lat="46.67858" lon="-1.92179">
        <ele>3.7</ele>
        <time>2020-06-03T16:13:45Z</time>
      </trkpt>
      <trkpt lat="46.67863" lon="-1.92184">
        <ele>3.7</ele>
        <time>2020-06-03T16:13:46Z</time>
      </trkpt>
      <trkpt lat="46.67867" lon="-1.92187">
        <ele>3.7</ele>
        <time>2020-06-03T16:13:47Z</time>
      </trkpt>
      <trkpt lat="46.6787" lon="-1.92191">
        <ele>3.7</ele>
        <time>2020-06-03T16:13:48Z</time>
      </trkpt>
      <trkpt lat="46.67874" lon="-1.92195">
        <ele>3.8</ele>
        <time>2020-06-03T16:13:49Z</time>
      </trkpt>
      <trkpt lat="46.67878" lon="-1.92198">
        <ele>3.8</ele>
        <time>2020-06-03T16:13:50Z</time>
      </trkpt>
      <trkpt lat="46.67882" lon="-1.92201">
        <ele>3.8</ele>
        <time>2020-06-03T16:13:51Z</time>
      </trkpt>
      <trkpt lat="46.67886" lon="-1.92203">
        <ele>3.8</ele>
        <time>2020-06-03T16:13:52Z</time>
      </trkpt>
      <trkpt lat="46.6789" lon="-1.92206">
        <ele>3.8</ele>
        <time>2020-06-03T16:13:53Z</time>
      </trkpt>
      <trkpt lat="46.67893" lon="-1.92209">
        <ele>3.8</ele>
        <time>2020-06-03T16:13:54Z</time>
      </trkpt>
      <trkpt lat="46.67896" lon="-1.92211">
        <ele>3.8</ele>
        <time>2020-06-03T16:13:55Z</time>
      </trkpt>
      <trkpt lat="46.67898" lon="-1.92213">
        <ele>3.8</ele>
        <time>2020-06-03T16:13:56Z</time>
      </trkpt>
      <trkpt lat="46.67902" lon="-1.92216">
        <ele>3.9</ele>
        <time>2020-06-03T16:13:57Z</time>
      </trkpt>
      <trkpt lat="46.67906" lon="-1.92217">
        <ele>3.9</ele>
        <time>2020-06-03T16:13:58Z</time>
      </trkpt>
      <trkpt lat="46.6791" lon="-1.92219">
        <ele>3.9</ele>
        <time>2020-06-03T16:13:59Z</time>
      </trkpt>
      <trkpt lat="46.67913" lon="-1.92222">
        <ele>3.9</ele>
        <time>2020-06-03T16:14:00Z</time>
      </trkpt>
      <trkpt lat="46.67917" lon="-1.92225">
        <ele>3.9</ele>
        <time>2020-06-03T16:14:01Z</time>
      </trkpt>
      <trkpt lat="46.67921" lon="-1.92228">
        <ele>3.9</ele>
        <time>2020-06-03T16:14:02Z</time>
      </trkpt>
      <trkpt lat="46.67924" lon="-1.92231">
        <ele>3.9</ele>
        <time>2020-06-03T16:14:03Z</time>
      </trkpt>
      <trkpt lat="46.67928" lon="-1.92235">
        <ele>4</ele>
        <time>2020-06-03T16:14:04Z</time>
      </trkpt>
      <trkpt lat="46.67932" lon="-1.92239">
        <ele>4</ele>
        <time>2020-06-03T16:14:05Z</time>
      </trkpt>
      <trkpt lat="46.67936" lon="-1.92241">
        <ele>4</ele>
        <time>2020-06-03T16:14:06Z</time>
      </trkpt>
      <trkpt lat="46.67939" lon="-1.92244">
        <ele>4</ele>
        <time>2020-06-03T16:14:07Z</time>
      </trkpt>
      <trkpt lat="46.67942" lon="-1.92247">
        <ele>4</ele>
        <time>2020-06-03T16:14:08Z</time>
      </trkpt>
      <trkpt lat="46.67945" lon="-1.92251">
        <ele>4</ele>
        <time>2020-06-03T16:14:09Z</time>
      </trkpt>
      <trkpt lat="46.67949" lon="-1.92255">
        <ele>4.1</ele>
        <time>2020-06-03T16:14:10Z</time>
      </trkpt>
      <trkpt lat="46.67953" lon="-1.92259">
        <ele>4.1</ele>
        <time>2020-06-03T16:14:11Z</time>
      </trkpt>
      <trkpt lat="46.67957" lon="-1.92263">
        <ele>4.2</ele>
        <time>2020-06-03T16:14:12Z</time>
      </trkpt>
      <trkpt lat="46.67961" lon="-1.92267">
        <ele>4.3</ele>
        <time>2020-06-03T16:14:13Z</time>
      </trkpt>
      <trkpt lat="46.67965" lon="-1.92273">
        <ele>4.3</ele>
        <time>2020-06-03T16:14:14Z</time>
      </trkpt>
      <trkpt lat="46.67969" lon="-1.92278">
        <ele>4.4</ele>
        <time>2020-06-03T16:14:15Z</time>
      </trkpt>
      <trkpt lat="46.67972" lon="-1.92281">
        <ele>4.4</ele>
        <time>2020-06-03T16:14:16Z</time>
      </trkpt>
      <trkpt lat="46.67976" lon="-1.92284">
        <ele>4.5</ele>
        <time>2020-06-03T16:14:17Z</time>
      </trkpt>
      <trkpt lat="46.6798" lon="-1.92288">
        <ele>4.6</ele>
        <time>2020-06-03T16:14:18Z</time>
      </trkpt>
      <trkpt lat="46.67984" lon="-1.92292">
        <ele>4.6</ele>
        <time>2020-06-03T16:14:19Z</time>
      </trkpt>
      <trkpt lat="46.67988" lon="-1.92298">
        <ele>4.7</ele>
        <time>2020-06-03T16:14:20Z</time>
      </trkpt>
      <trkpt lat="46.67991" lon="-1.92303">
        <ele>4.8</ele>
        <time>2020-06-03T16:14:21Z</time>
      </trkpt>
      <trkpt lat="46.67994" lon="-1.92307">
        <ele>4.9</ele>
        <time>2020-06-03T16:14:22Z</time>
      </trkpt>
      <trkpt lat="46.67997" lon="-1.92312">
        <ele>4.9</ele>
        <time>2020-06-03T16:14:23Z</time>
      </trkpt>
      <trkpt lat="46.68001" lon="-1.92317">
        <ele>5</ele>
        <time>2020-06-03T16:14:24Z</time>
      </trkpt>
      <trkpt lat="46.68005" lon="-1.92322">
        <ele>5.1</ele>
        <time>2020-06-03T16:14:25Z</time>
      </trkpt>
      <trkpt lat="46.68008" lon="-1.92326">
        <ele>5.2</ele>
        <time>2020-06-03T16:14:26Z</time>
      </trkpt>
      <trkpt lat="46.68012" lon="-1.92331">
        <ele>5.2</ele>
        <time>2020-06-03T16:14:27Z</time>
      </trkpt>
      <trkpt lat="46.68016" lon="-1.92335">
        <ele>5.3</ele>
        <time>2020-06-03T16:14:28Z</time>
      </trkpt>
      <trkpt lat="46.6802" lon="-1.92339">
        <ele>5.4</ele>
        <time>2020-06-03T16:14:29Z</time>
      </trkpt>
      <trkpt lat="46.68023" lon="-1.92344">
        <ele>5.5</ele>
        <time>2020-06-03T16:14:30Z</time>
      </trkpt>
      <trkpt lat="46.68026" lon="-1.92348">
        <ele>5.6</ele>
        <time>2020-06-03T16:14:31Z</time>
      </trkpt>
      <trkpt lat="46.6803" lon="-1.92352">
        <ele>5.8</ele>
        <time>2020-06-03T16:14:32Z</time>
      </trkpt>
      <trkpt lat="46.68033" lon="-1.92356">
        <ele>5.9</ele>
        <time>2020-06-03T16:14:33Z</time>
      </trkpt>
      <trkpt lat="46.68037" lon="-1.9236">
        <ele>6</ele>
        <time>2020-06-03T16:14:34Z</time>
      </trkpt>
      <trkpt lat="46.6804" lon="-1.92364">
        <ele>6.2</ele>
        <time>2020-06-03T16:14:35Z</time>
      </trkpt>
      <trkpt lat="46.68044" lon="-1.92368">
        <ele>6.3</ele>
        <time>2020-06-03T16:14:36Z</time>
      </trkpt>
      <trkpt lat="46.68047" lon="-1.92372">
        <ele>6.4</ele>
        <time>2020-06-03T16:14:37Z</time>
      </trkpt>
      <trkpt lat="46.68052" lon="-1.92372">
        <ele>6.5</ele>
        <time>2020-06-03T16:14:38Z</time>
      </trkpt>
      <trkpt lat="46.68055" lon="-1.92374">
        <ele>6.5</ele>
        <time>2020-06-03T16:14:39Z</time>
      </trkpt>
      <trkpt lat="46.68059" lon="-1.92378">
        <ele>6.6</ele>
        <time>2020-06-03T16:14:40Z</time>
      </trkpt>
      <trkpt lat="46.68061" lon="-1.92381">
        <ele>6.6</ele>
        <time>2020-06-03T16:14:41Z</time>
      </trkpt>
      <trkpt lat="46.68062" lon="-1.92386">
        <ele>6.5</ele>
        <time>2020-06-03T16:14:42Z</time>
      </trkpt>
      <trkpt lat="46.68064" lon="-1.92391">
        <ele>6.5</ele>
        <time>2020-06-03T16:14:43Z</time>
      </trkpt>
      <trkpt lat="46.68067" lon="-1.92397">
        <ele>6.5</ele>
        <time>2020-06-03T16:14:44Z</time>
      </trkpt>
      <trkpt lat="46.68069" lon="-1.92403">
        <ele>6.5</ele>
        <time>2020-06-03T16:14:45Z</time>
      </trkpt>
      <trkpt lat="46.68071" lon="-1.92408">
        <ele>6.4</ele>
        <time>2020-06-03T16:14:46Z</time>
      </trkpt>
      <trkpt lat="46.68073" lon="-1.92412">
        <ele>6.4</ele>
        <time>2020-06-03T16:14:47Z</time>
      </trkpt>
      <trkpt lat="46.68075" lon="-1.92417">
        <ele>6.4</ele>
        <time>2020-06-03T16:14:48Z</time>
      </trkpt>
      <trkpt lat="46.68078" lon="-1.92422">
        <ele>6.4</ele>
        <time>2020-06-03T16:14:49Z</time>
      </trkpt>
      <trkpt lat="46.6808" lon="-1.92427">
        <ele>6.4</ele>
        <time>2020-06-03T16:14:50Z</time>
      </trkpt>
      <trkpt lat="46.68082" lon="-1.92432">
        <ele>6.3</ele>
        <time>2020-06-03T16:14:51Z</time>
      </trkpt>
      <trkpt lat="46.68084" lon="-1.92438">
        <ele>6.3</ele>
        <time>2020-06-03T16:14:52Z</time>
      </trkpt>
      <trkpt lat="46.68087" lon="-1.92443">
        <ele>6.3</ele>
        <time>2020-06-03T16:14:53Z</time>
      </trkpt>
      <trkpt lat="46.68089" lon="-1.92449">
        <ele>6.3</ele>
        <time>2020-06-03T16:14:54Z</time>
      </trkpt>
      <trkpt lat="46.68092" lon="-1.92454">
        <ele>6.3</ele>
        <time>2020-06-03T16:14:55Z</time>
      </trkpt>
      <trkpt lat="46.68095" lon="-1.92458">
        <ele>6.3</ele>
        <time>2020-06-03T16:14:56Z</time>
      </trkpt>
      <trkpt lat="46.68098" lon="-1.92463">
        <ele>6.2</ele>
        <time>2020-06-03T16:14:57Z</time>
      </trkpt>
      <trkpt lat="46.68101" lon="-1.92468">
        <ele>6.2</ele>
        <time>2020-06-03T16:14:58Z</time>
      </trkpt>
      <trkpt lat="46.68104" lon="-1.92474">
        <ele>6.2</ele>
        <time>2020-06-03T16:14:59Z</time>
      </trkpt>
      <trkpt lat="46.68107" lon="-1.9248">
        <ele>6.2</ele>
        <time>2020-06-03T16:15:00Z</time>
      </trkpt>
      <trkpt lat="46.68109" lon="-1.92485">
        <ele>6.2</ele>
        <time>2020-06-03T16:15:01Z</time>
      </trkpt>
      <trkpt lat="46.68112" lon="-1.9249">
        <ele>6.2</ele>
        <time>2020-06-03T16:15:02Z</time>
      </trkpt>
      <trkpt lat="46.68114" lon="-1.92495">
        <ele>6.1</ele>
        <time>2020-06-03T16:15:03Z</time>
      </trkpt>
      <trkpt lat="46.68116" lon="-1.925">
        <ele>6.1</ele>
        <time>2020-06-03T16:15:04Z</time>
      </trkpt>
      <trkpt lat="46.68118" lon="-1.92506">
        <ele>6.1</ele>
        <time>2020-06-03T16:15:05Z</time>
      </trkpt>
      <trkpt lat="46.68121" lon="-1.92513">
        <ele>6.1</ele>
        <time>2020-06-03T16:15:06Z</time>
      </trkpt>
      <trkpt lat="46.68124" lon="-1.92519">
        <ele>6.1</ele>
        <time>2020-06-03T16:15:07Z</time>
      </trkpt>
      <trkpt lat="46.68126" lon="-1.92525">
        <ele>6.1</ele>
        <time>2020-06-03T16:15:08Z</time>
      </trkpt>
      <trkpt lat="46.68129" lon="-1.9253">
        <ele>6</ele>
        <time>2020-06-03T16:15:09Z</time>
      </trkpt>
      <trkpt lat="46.68131" lon="-1.92535">
        <ele>6</ele>
        <time>2020-06-03T16:15:10Z</time>
      </trkpt>
      <trkpt lat="46.68135" lon="-1.9254">
        <ele>5.9</ele>
        <time>2020-06-03T16:15:11Z</time>
      </trkpt>
      <trkpt lat="46.68137" lon="-1.92544">
        <ele>5.8</ele>
        <time>2020-06-03T16:15:12Z</time>
      </trkpt>
      <trkpt lat="46.6814" lon="-1.9255">
        <ele>5.7</ele>
        <time>2020-06-03T16:15:13Z</time>
      </trkpt>
      <trkpt lat="46.68143" lon="-1.92554">
        <ele>5.7</ele>
        <time>2020-06-03T16:15:14Z</time>
      </trkpt>
      <trkpt lat="46.68146" lon="-1.92559">
        <ele>5.6</ele>
        <time>2020-06-03T16:15:15Z</time>
      </trkpt>
      <trkpt lat="46.68148" lon="-1.92563">
        <ele>5.5</ele>
        <time>2020-06-03T16:15:16Z</time>
      </trkpt>
      <trkpt lat="46.6815" lon="-1.92567">
        <ele>5.4</ele>
        <time>2020-06-03T16:15:17Z</time>
      </trkpt>
      <trkpt lat="46.68152" lon="-1.92571">
        <ele>5.4</ele>
        <time>2020-06-03T16:15:18Z</time>
      </trkpt>
      <trkpt lat="46.68154" lon="-1.92574">
        <ele>5.3</ele>
        <time>2020-06-03T16:15:19Z</time>
      </trkpt>
      <trkpt lat="46.68157" lon="-1.92578">
        <ele>5.2</ele>
        <time>2020-06-03T16:15:20Z</time>
      </trkpt>
      <trkpt lat="46.68159" lon="-1.92581">
        <ele>5.2</ele>
        <time>2020-06-03T16:15:21Z</time>
      </trkpt>
      <trkpt lat="46.68161" lon="-1.92584">
        <ele>5.1</ele>
        <time>2020-06-03T16:15:22Z</time>
      </trkpt>
      <trkpt lat="46.68164" lon="-1.92587">
        <ele>5.1</ele>
        <time>2020-06-03T16:15:23Z</time>
      </trkpt>
      <trkpt lat="46.68166" lon="-1.92591">
        <ele>5</ele>
        <time>2020-06-03T16:15:24Z</time>
      </trkpt>
      <trkpt lat="46.68167" lon="-1.92592">
        <ele>5</ele>
        <time>2020-06-03T16:15:25Z</time>
      </trkpt>
      <trkpt lat="46.68169" lon="-1.92597">
        <ele>4.9</ele>
        <time>2020-06-03T16:15:26Z</time>
      </trkpt>
      <trkpt lat="46.68169" lon="-1.92598">
        <ele>4.9</ele>
        <time>2020-06-03T16:15:27Z</time>
      </trkpt>
      <trkpt lat="46.68171" lon="-1.92602">
        <ele>4.9</ele>
        <time>2020-06-03T16:15:28Z</time>
      </trkpt>
      <trkpt lat="46.68173" lon="-1.92607">
        <ele>4.8</ele>
        <time>2020-06-03T16:15:29Z</time>
      </trkpt>
      <trkpt lat="46.68173" lon="-1.92609">
        <ele>4.8</ele>
        <time>2020-06-03T16:15:30Z</time>
      </trkpt>
      <trkpt lat="46.68174" lon="-1.92614">
        <ele>4.7</ele>
        <time>2020-06-03T16:15:31Z</time>
      </trkpt>
      <trkpt lat="46.68174" lon="-1.92616">
        <ele>4.7</ele>
        <time>2020-06-03T16:15:32Z</time>
      </trkpt>
      <trkpt lat="46.68176" lon="-1.92621">
        <ele>4.7</ele>
        <time>2020-06-03T16:15:33Z</time>
      </trkpt>
      <trkpt lat="46.68176" lon="-1.92623">
        <ele>4.8</ele>
        <time>2020-06-03T16:15:34Z</time>
      </trkpt>
      <trkpt lat="46.68178" lon="-1.92626">
        <ele>4.8</ele>
        <time>2020-06-03T16:15:35Z</time>
      </trkpt>
      <trkpt lat="46.6818" lon="-1.92631">
        <ele>4.8</ele>
        <time>2020-06-03T16:15:36Z</time>
      </trkpt>
      <trkpt lat="46.68182" lon="-1.92633">
        <ele>4.8</ele>
        <time>2020-06-03T16:15:37Z</time>
      </trkpt>
      <trkpt lat="46.68185" lon="-1.92637">
        <ele>4.8</ele>
        <time>2020-06-03T16:15:38Z</time>
      </trkpt>
      <trkpt lat="46.68187" lon="-1.92641">
        <ele>4.8</ele>
        <time>2020-06-03T16:15:39Z</time>
      </trkpt>
      <trkpt lat="46.68189" lon="-1.92646">
        <ele>4.9</ele>
        <time>2020-06-03T16:15:40Z</time>
      </trkpt>
      <trkpt lat="46.68191" lon="-1.92651">
        <ele>4.9</ele>
        <time>2020-06-03T16:15:41Z</time>
      </trkpt>
      <trkpt lat="46.68193" lon="-1.92656">
        <ele>4.9</ele>
        <time>2020-06-03T16:15:42Z</time>
      </trkpt>
      <trkpt lat="46.68196" lon="-1.92661">
        <ele>4.9</ele>
        <time>2020-06-03T16:15:43Z</time>
      </trkpt>
      <trkpt lat="46.68198" lon="-1.92665">
        <ele>5</ele>
        <time>2020-06-03T16:15:44Z</time>
      </trkpt>
      <trkpt lat="46.68202" lon="-1.9267">
        <ele>5</ele>
        <time>2020-06-03T16:15:45Z</time>
      </trkpt>
      <trkpt lat="46.68205" lon="-1.92675">
        <ele>5</ele>
        <time>2020-06-03T16:15:46Z</time>
      </trkpt>
      <trkpt lat="46.68208" lon="-1.9268">
        <ele>5.1</ele>
        <time>2020-06-03T16:15:47Z</time>
      </trkpt>
      <trkpt lat="46.68212" lon="-1.92684">
        <ele>5.1</ele>
        <time>2020-06-03T16:15:48Z</time>
      </trkpt>
      <trkpt lat="46.68215" lon="-1.92689">
        <ele>5.2</ele>
        <time>2020-06-03T16:15:49Z</time>
      </trkpt>
      <trkpt lat="46.68218" lon="-1.92692">
        <ele>5.2</ele>
        <time>2020-06-03T16:15:50Z</time>
      </trkpt>
      <trkpt lat="46.68221" lon="-1.92696">
        <ele>5.2</ele>
        <time>2020-06-03T16:15:51Z</time>
      </trkpt>
      <trkpt lat="46.68224" lon="-1.927">
        <ele>5.3</ele>
        <time>2020-06-03T16:15:52Z</time>
      </trkpt>
      <trkpt lat="46.68228" lon="-1.92704">
        <ele>5.3</ele>
        <time>2020-06-03T16:15:53Z</time>
      </trkpt>
      <trkpt lat="46.68232" lon="-1.92707">
        <ele>5.3</ele>
        <time>2020-06-03T16:15:54Z</time>
      </trkpt>
      <trkpt lat="46.68236" lon="-1.9271">
        <ele>5.4</ele>
        <time>2020-06-03T16:15:55Z</time>
      </trkpt>
      <trkpt lat="46.6824" lon="-1.92713">
        <ele>5.4</ele>
        <time>2020-06-03T16:15:56Z</time>
      </trkpt>
      <trkpt lat="46.68244" lon="-1.92717">
        <ele>5.4</ele>
        <time>2020-06-03T16:15:57Z</time>
      </trkpt>
      <trkpt lat="46.68247" lon="-1.92721">
        <ele>5.4</ele>
        <time>2020-06-03T16:15:58Z</time>
      </trkpt>
      <trkpt lat="46.68251" lon="-1.92724">
        <ele>5.5</ele>
        <time>2020-06-03T16:15:59Z</time>
      </trkpt>
      <trkpt lat="46.68254" lon="-1.92727">
        <ele>5.5</ele>
        <time>2020-06-03T16:16:00Z</time>
      </trkpt>
      <trkpt lat="46.68258" lon="-1.92731">
        <ele>5.5</ele>
        <time>2020-06-03T16:16:01Z</time>
      </trkpt>
      <trkpt lat="46.68262" lon="-1.92735">
        <ele>5.5</ele>
        <time>2020-06-03T16:16:02Z</time>
      </trkpt>
      <trkpt lat="46.68266" lon="-1.92739">
        <ele>5.6</ele>
        <time>2020-06-03T16:16:03Z</time>
      </trkpt>
      <trkpt lat="46.6827" lon="-1.92743">
        <ele>5.5</ele>
        <time>2020-06-03T16:16:04Z</time>
      </trkpt>
      <trkpt lat="46.68273" lon="-1.92747">
        <ele>5.5</ele>
        <time>2020-06-03T16:16:05Z</time>
      </trkpt>
      <trkpt lat="46.68277" lon="-1.92752">
        <ele>5.5</ele>
        <time>2020-06-03T16:16:06Z</time>
      </trkpt>
      <trkpt lat="46.68281" lon="-1.92756">
        <ele>5.5</ele>
        <time>2020-06-03T16:16:07Z</time>
      </trkpt>
      <trkpt lat="46.68284" lon="-1.92761">
        <ele>5.5</ele>
        <time>2020-06-03T16:16:08Z</time>
      </trkpt>
      <trkpt lat="46.68286" lon="-1.92766">
        <ele>5.5</ele>
        <time>2020-06-03T16:16:09Z</time>
      </trkpt>
      <trkpt lat="46.68289" lon="-1.9277">
        <ele>5.5</ele>
        <time>2020-06-03T16:16:10Z</time>
      </trkpt>
      <trkpt lat="46.68292" lon="-1.92775">
        <ele>5.5</ele>
        <time>2020-06-03T16:16:11Z</time>
      </trkpt>
      <trkpt lat="46.68295" lon="-1.9278">
        <ele>5.5</ele>
        <time>2020-06-03T16:16:12Z</time>
      </trkpt>
      <trkpt lat="46.68298" lon="-1.92785">
        <ele>5.4</ele>
        <time>2020-06-03T16:16:13Z</time>
      </trkpt>
      <trkpt lat="46.683" lon="-1.92789">
        <ele>5.4</ele>
        <time>2020-06-03T16:16:14Z</time>
      </trkpt>
      <trkpt lat="46.68302" lon="-1.92793">
        <ele>5.4</ele>
        <time>2020-06-03T16:16:15Z</time>
      </trkpt>
      <trkpt lat="46.68304" lon="-1.92797">
        <ele>5.4</ele>
        <time>2020-06-03T16:16:16Z</time>
      </trkpt>
      <trkpt lat="46.68306" lon="-1.92802">
        <ele>5.4</ele>
        <time>2020-06-03T16:16:17Z</time>
      </trkpt>
      <trkpt lat="46.68308" lon="-1.92807">
        <ele>5.4</ele>
        <time>2020-06-03T16:16:18Z</time>
      </trkpt>
      <trkpt lat="46.6831" lon="-1.92812">
        <ele>5.3</ele>
        <time>2020-06-03T16:16:19Z</time>
      </trkpt>
      <trkpt lat="46.68312" lon="-1.92815">
        <ele>5.3</ele>
        <time>2020-06-03T16:16:20Z</time>
      </trkpt>
      <trkpt lat="46.68314" lon="-1.9282">
        <ele>5.3</ele>
        <time>2020-06-03T16:16:21Z</time>
      </trkpt>
      <trkpt lat="46.68316" lon="-1.92824">
        <ele>5.3</ele>
        <time>2020-06-03T16:16:22Z</time>
      </trkpt>
      <trkpt lat="46.68319" lon="-1.92829">
        <ele>5.2</ele>
        <time>2020-06-03T16:16:23Z</time>
      </trkpt>
      <trkpt lat="46.68322" lon="-1.92834">
        <ele>5.2</ele>
        <time>2020-06-03T16:16:24Z</time>
      </trkpt>
      <trkpt lat="46.68325" lon="-1.92838">
        <ele>5.2</ele>
        <time>2020-06-03T16:16:25Z</time>
      </trkpt>
      <trkpt lat="46.68326" lon="-1.92843">
        <ele>5.1</ele>
        <time>2020-06-03T16:16:26Z</time>
      </trkpt>
      <trkpt lat="46.68329" lon="-1.92848">
        <ele>5.1</ele>
        <time>2020-06-03T16:16:27Z</time>
      </trkpt>
      <trkpt lat="46.68333" lon="-1.92852">
        <ele>5</ele>
        <time>2020-06-03T16:16:28Z</time>
      </trkpt>
      <trkpt lat="46.68336" lon="-1.92857">
        <ele>5</ele>
        <time>2020-06-03T16:16:29Z</time>
      </trkpt>
      <trkpt lat="46.68339" lon="-1.92861">
        <ele>4.9</ele>
        <time>2020-06-03T16:16:30Z</time>
      </trkpt>
      <trkpt lat="46.68342" lon="-1.92865">
        <ele>4.9</ele>
        <time>2020-06-03T16:16:31Z</time>
      </trkpt>
      <trkpt lat="46.68345" lon="-1.9287">
        <ele>4.8</ele>
        <time>2020-06-03T16:16:32Z</time>
      </trkpt>
      <trkpt lat="46.68348" lon="-1.92875">
        <ele>4.7</ele>
        <time>2020-06-03T16:16:33Z</time>
      </trkpt>
      <trkpt lat="46.68351" lon="-1.9288">
        <ele>4.7</ele>
        <time>2020-06-03T16:16:34Z</time>
      </trkpt>
      <trkpt lat="46.68354" lon="-1.92884">
        <ele>4.6</ele>
        <time>2020-06-03T16:16:35Z</time>
      </trkpt>
      <trkpt lat="46.68358" lon="-1.92888">
        <ele>4.6</ele>
        <time>2020-06-03T16:16:36Z</time>
      </trkpt>
      <trkpt lat="46.6836" lon="-1.92892">
        <ele>4.5</ele>
        <time>2020-06-03T16:16:37Z</time>
      </trkpt>
      <trkpt lat="46.68364" lon="-1.92895">
        <ele>4.4</ele>
        <time>2020-06-03T16:16:38Z</time>
      </trkpt>
      <trkpt lat="46.68367" lon="-1.92899">
        <ele>4.4</ele>
        <time>2020-06-03T16:16:39Z</time>
      </trkpt>
      <trkpt lat="46.68371" lon="-1.92903">
        <ele>4.3</ele>
        <time>2020-06-03T16:16:40Z</time>
      </trkpt>
      <trkpt lat="46.68374" lon="-1.92907">
        <ele>4.2</ele>
        <time>2020-06-03T16:16:41Z</time>
      </trkpt>
      <trkpt lat="46.68378" lon="-1.92912">
        <ele>4.2</ele>
        <time>2020-06-03T16:16:42Z</time>
      </trkpt>
      <trkpt lat="46.68381" lon="-1.92916">
        <ele>4.1</ele>
        <time>2020-06-03T16:16:43Z</time>
      </trkpt>
      <trkpt lat="46.68385" lon="-1.92921">
        <ele>4.1</ele>
        <time>2020-06-03T16:16:44Z</time>
      </trkpt>
      <trkpt lat="46.68389" lon="-1.92924">
        <ele>4</ele>
        <time>2020-06-03T16:16:45Z</time>
      </trkpt>
      <trkpt lat="46.68391" lon="-1.92929">
        <ele>4</ele>
        <time>2020-06-03T16:16:46Z</time>
      </trkpt>
      <trkpt lat="46.68394" lon="-1.92933">
        <ele>4</ele>
        <time>2020-06-03T16:16:47Z</time>
      </trkpt>
      <trkpt lat="46.68396" lon="-1.92936">
        <ele>4</ele>
        <time>2020-06-03T16:16:48Z</time>
      </trkpt>
      <trkpt lat="46.68399" lon="-1.9294">
        <ele>3.9</ele>
        <time>2020-06-03T16:16:49Z</time>
      </trkpt>
      <trkpt lat="46.68402" lon="-1.92944">
        <ele>3.9</ele>
        <time>2020-06-03T16:16:50Z</time>
      </trkpt>
      <trkpt lat="46.68405" lon="-1.92948">
        <ele>3.9</ele>
        <time>2020-06-03T16:16:51Z</time>
      </trkpt>
      <trkpt lat="46.68408" lon="-1.92952">
        <ele>3.9</ele>
        <time>2020-06-03T16:16:52Z</time>
      </trkpt>
      <trkpt lat="46.68411" lon="-1.92956">
        <ele>3.8</ele>
        <time>2020-06-03T16:16:53Z</time>
      </trkpt>
      <trkpt lat="46.68413" lon="-1.9296">
        <ele>3.8</ele>
        <time>2020-06-03T16:16:54Z</time>
      </trkpt>
      <trkpt lat="46.68417" lon="-1.92964">
        <ele>3.8</ele>
        <time>2020-06-03T16:16:55Z</time>
      </trkpt>
      <trkpt lat="46.68419" lon="-1.92968">
        <ele>3.8</ele>
        <time>2020-06-03T16:16:56Z</time>
      </trkpt>
      <trkpt lat="46.68422" lon="-1.92973">
        <ele>3.8</ele>
        <time>2020-06-03T16:16:57Z</time>
      </trkpt>
      <trkpt lat="46.68425" lon="-1.92977">
        <ele>3.7</ele>
        <time>2020-06-03T16:16:58Z</time>
      </trkpt>
      <trkpt lat="46.68428" lon="-1.92981">
        <ele>3.7</ele>
        <time>2020-06-03T16:16:59Z</time>
      </trkpt>
      <trkpt lat="46.6843" lon="-1.92984">
        <ele>3.7</ele>
        <time>2020-06-03T16:17:00Z</time>
      </trkpt>
      <trkpt lat="46.68433" lon="-1.92988">
        <ele>3.7</ele>
        <time>2020-06-03T16:17:01Z</time>
      </trkpt>
      <trkpt lat="46.68436" lon="-1.92992">
        <ele>3.7</ele>
        <time>2020-06-03T16:17:02Z</time>
      </trkpt>
      <trkpt lat="46.68438" lon="-1.92996">
        <ele>3.7</ele>
        <time>2020-06-03T16:17:03Z</time>
      </trkpt>
      <trkpt lat="46.68441" lon="-1.93">
        <ele>3.7</ele>
        <time>2020-06-03T16:17:04Z</time>
      </trkpt>
      <trkpt lat="46.68444" lon="-1.93005">
        <ele>3.7</ele>
        <time>2020-06-03T16:17:05Z</time>
      </trkpt>
      <trkpt lat="46.68447" lon="-1.93009">
        <ele>3.7</ele>
        <time>2020-06-03T16:17:06Z</time>
      </trkpt>
      <trkpt lat="46.6845" lon="-1.93013">
        <ele>3.7</ele>
        <time>2020-06-03T16:17:07Z</time>
      </trkpt>
      <trkpt lat="46.68454" lon="-1.93018">
        <ele>3.7</ele>
        <time>2020-06-03T16:17:08Z</time>
      </trkpt>
      <trkpt lat="46.68458" lon="-1.93022">
        <ele>3.7</ele>
        <time>2020-06-03T16:17:09Z</time>
      </trkpt>
      <trkpt lat="46.68462" lon="-1.93027">
        <ele>3.7</ele>
        <time>2020-06-03T16:17:10Z</time>
      </trkpt>
      <trkpt lat="46.68466" lon="-1.93032">
        <ele>3.7</ele>
        <time>2020-06-03T16:17:11Z</time>
      </trkpt>
      <trkpt lat="46.6847" lon="-1.93035">
        <ele>3.7</ele>
        <time>2020-06-03T16:17:12Z</time>
      </trkpt>
      <trkpt lat="46.68474" lon="-1.93039">
        <ele>3.7</ele>
        <time>2020-06-03T16:17:13Z</time>
      </trkpt>
      <trkpt lat="46.68478" lon="-1.93043">
        <ele>3.8</ele>
        <time>2020-06-03T16:17:14Z</time>
      </trkpt>
      <trkpt lat="46.68482" lon="-1.93047">
        <ele>3.8</ele>
        <time>2020-06-03T16:17:15Z</time>
      </trkpt>
      <trkpt lat="46.68486" lon="-1.93051">
        <ele>3.8</ele>
        <time>2020-06-03T16:17:16Z</time>
      </trkpt>
      <trkpt lat="46.6849" lon="-1.93055">
        <ele>3.8</ele>
        <time>2020-06-03T16:17:17Z</time>
      </trkpt>
      <trkpt lat="46.68495" lon="-1.93059">
        <ele>3.8</ele>
        <time>2020-06-03T16:17:18Z</time>
      </trkpt>
      <trkpt lat="46.68499" lon="-1.93063">
        <ele>3.8</ele>
        <time>2020-06-03T16:17:19Z</time>
      </trkpt>
      <trkpt lat="46.68503" lon="-1.93068">
        <ele>3.8</ele>
        <time>2020-06-03T16:17:20Z</time>
      </trkpt>
      <trkpt lat="46.68507" lon="-1.93072">
        <ele>3.9</ele>
        <time>2020-06-03T16:17:21Z</time>
      </trkpt>
      <trkpt lat="46.68512" lon="-1.93076">
        <ele>3.9</ele>
        <time>2020-06-03T16:17:22Z</time>
      </trkpt>
      <trkpt lat="46.68516" lon="-1.9308">
        <ele>3.9</ele>
        <time>2020-06-03T16:17:23Z</time>
      </trkpt>
      <trkpt lat="46.6852" lon="-1.93083">
        <ele>3.9</ele>
        <time>2020-06-03T16:17:24Z</time>
      </trkpt>
      <trkpt lat="46.68525" lon="-1.93087">
        <ele>4</ele>
        <time>2020-06-03T16:17:25Z</time>
      </trkpt>
      <trkpt lat="46.68528" lon="-1.9309">
        <ele>4</ele>
        <time>2020-06-03T16:17:26Z</time>
      </trkpt>
      <trkpt lat="46.68532" lon="-1.93093">
        <ele>4</ele>
        <time>2020-06-03T16:17:27Z</time>
      </trkpt>
      <trkpt lat="46.68536" lon="-1.93097">
        <ele>4.1</ele>
        <time>2020-06-03T16:17:28Z</time>
      </trkpt>
      <trkpt lat="46.6854" lon="-1.93101">
        <ele>4.1</ele>
        <time>2020-06-03T16:17:29Z</time>
      </trkpt>
      <trkpt lat="46.68544" lon="-1.93105">
        <ele>4.1</ele>
        <time>2020-06-03T16:17:30Z</time>
      </trkpt>
      <trkpt lat="46.68548" lon="-1.93109">
        <ele>4.2</ele>
        <time>2020-06-03T16:17:31Z</time>
      </trkpt>
      <trkpt lat="46.68553" lon="-1.93113">
        <ele>4.2</ele>
        <time>2020-06-03T16:17:32Z</time>
      </trkpt>
      <trkpt lat="46.68557" lon="-1.93117">
        <ele>4.2</ele>
        <time>2020-06-03T16:17:33Z</time>
      </trkpt>
      <trkpt lat="46.68561" lon="-1.93121">
        <ele>4.3</ele>
        <time>2020-06-03T16:17:34Z</time>
      </trkpt>
      <trkpt lat="46.68566" lon="-1.93125">
        <ele>4.3</ele>
        <time>2020-06-03T16:17:35Z</time>
      </trkpt>
      <trkpt lat="46.6857" lon="-1.93129">
        <ele>4.3</ele>
        <time>2020-06-03T16:17:36Z</time>
      </trkpt>
      <trkpt lat="46.68575" lon="-1.93133">
        <ele>4.3</ele>
        <time>2020-06-03T16:17:37Z</time>
      </trkpt>
      <trkpt lat="46.68579" lon="-1.93136">
        <ele>4.3</ele>
        <time>2020-06-03T16:17:38Z</time>
      </trkpt>
      <trkpt lat="46.68583" lon="-1.9314">
        <ele>4.3</ele>
        <time>2020-06-03T16:17:39Z</time>
      </trkpt>
      <trkpt lat="46.68587" lon="-1.93144">
        <ele>4.3</ele>
        <time>2020-06-03T16:17:40Z</time>
      </trkpt>
      <trkpt lat="46.68591" lon="-1.93147">
        <ele>4.3</ele>
        <time>2020-06-03T16:17:41Z</time>
      </trkpt>
      <trkpt lat="46.68595" lon="-1.93151">
        <ele>4.3</ele>
        <time>2020-06-03T16:17:42Z</time>
      </trkpt>
      <trkpt lat="46.68598" lon="-1.93154">
        <ele>4.3</ele>
        <time>2020-06-03T16:17:43Z</time>
      </trkpt>
      <trkpt lat="46.68602" lon="-1.93158">
        <ele>4.3</ele>
        <time>2020-06-03T16:17:44Z</time>
      </trkpt>
      <trkpt lat="46.68605" lon="-1.93161">
        <ele>4.3</ele>
        <time>2020-06-03T16:17:45Z</time>
      </trkpt>
      <trkpt lat="46.68608" lon="-1.93163">
        <ele>4.3</ele>
        <time>2020-06-03T16:17:46Z</time>
      </trkpt>
      <trkpt lat="46.68612" lon="-1.93166">
        <ele>4.3</ele>
        <time>2020-06-03T16:17:47Z</time>
      </trkpt>
      <trkpt lat="46.68616" lon="-1.9317">
        <ele>4.3</ele>
        <time>2020-06-03T16:17:48Z</time>
      </trkpt>
      <trkpt lat="46.6862" lon="-1.93173">
        <ele>4.3</ele>
        <time>2020-06-03T16:17:49Z</time>
      </trkpt>
      <trkpt lat="46.68623" lon="-1.93176">
        <ele>4.3</ele>
        <time>2020-06-03T16:17:50Z</time>
      </trkpt>
      <trkpt lat="46.68626" lon="-1.93179">
        <ele>4.3</ele>
        <time>2020-06-03T16:17:51Z</time>
      </trkpt>
      <trkpt lat="46.68629" lon="-1.93181">
        <ele>4.3</ele>
        <time>2020-06-03T16:17:52Z</time>
      </trkpt>
      <trkpt lat="46.68632" lon="-1.93185">
        <ele>4.3</ele>
        <time>2020-06-03T16:17:53Z</time>
      </trkpt>
      <trkpt lat="46.68634" lon="-1.93187">
        <ele>4.3</ele>
        <time>2020-06-03T16:17:54Z</time>
      </trkpt>
      <trkpt lat="46.68637" lon="-1.93188">
        <ele>4.3</ele>
        <time>2020-06-03T16:17:55Z</time>
      </trkpt>
      <trkpt lat="46.68641" lon="-1.93189">
        <ele>4.3</ele>
        <time>2020-06-03T16:17:56Z</time>
      </trkpt>
      <trkpt lat="46.68642" lon="-1.93189">
        <ele>4.3</ele>
        <time>2020-06-03T16:17:57Z</time>
      </trkpt>
      <trkpt lat="46.68644" lon="-1.9319">
        <ele>4.3</ele>
        <time>2020-06-03T16:17:58Z</time>
      </trkpt>
      <trkpt lat="46.68645" lon="-1.93191">
        <ele>4.3</ele>
        <time>2020-06-03T16:17:59Z</time>
      </trkpt>
      <trkpt lat="46.68649" lon="-1.93192">
        <ele>4.2</ele>
        <time>2020-06-03T16:18:00Z</time>
      </trkpt>
      <trkpt lat="46.6865" lon="-1.93193">
        <ele>4.2</ele>
        <time>2020-06-03T16:18:01Z</time>
      </trkpt>
      <trkpt lat="46.68654" lon="-1.93195">
        <ele>4.2</ele>
        <time>2020-06-03T16:18:02Z</time>
      </trkpt>
      <trkpt lat="46.68656" lon="-1.93197">
        <ele>4.2</ele>
        <time>2020-06-03T16:18:03Z</time>
      </trkpt>
      <trkpt lat="46.6866" lon="-1.932">
        <ele>4.2</ele>
        <time>2020-06-03T16:18:04Z</time>
      </trkpt>
      <trkpt lat="46.68664" lon="-1.93202">
        <ele>4.1</ele>
        <time>2020-06-03T16:18:05Z</time>
      </trkpt>
      <trkpt lat="46.68668" lon="-1.93205">
        <ele>4.1</ele>
        <time>2020-06-03T16:18:06Z</time>
      </trkpt>
      <trkpt lat="46.68671" lon="-1.93207">
        <ele>4</ele>
        <time>2020-06-03T16:18:07Z</time>
      </trkpt>
      <trkpt lat="46.68676" lon="-1.9321">
        <ele>4</ele>
        <time>2020-06-03T16:18:08Z</time>
      </trkpt>
      <trkpt lat="46.68681" lon="-1.93213">
        <ele>3.9</ele>
        <time>2020-06-03T16:18:09Z</time>
      </trkpt>
      <trkpt lat="46.68686" lon="-1.93215">
        <ele>3.9</ele>
        <time>2020-06-03T16:18:10Z</time>
      </trkpt>
      <trkpt lat="46.68691" lon="-1.93218">
        <ele>3.8</ele>
        <time>2020-06-03T16:18:11Z</time>
      </trkpt>
      <trkpt lat="46.68697" lon="-1.9322">
        <ele>3.8</ele>
        <time>2020-06-03T16:18:12Z</time>
      </trkpt>
      <trkpt lat="46.68702" lon="-1.93222">
        <ele>3.8</ele>
        <time>2020-06-03T16:18:13Z</time>
      </trkpt>
      <trkpt lat="46.68707" lon="-1.93223">
        <ele>3.7</ele>
        <time>2020-06-03T16:18:14Z</time>
      </trkpt>
      <trkpt lat="46.68712" lon="-1.93224">
        <ele>3.7</ele>
        <time>2020-06-03T16:18:15Z</time>
      </trkpt>
      <trkpt lat="46.68717" lon="-1.93226">
        <ele>3.7</ele>
        <time>2020-06-03T16:18:16Z</time>
      </trkpt>
      <trkpt lat="46.68722" lon="-1.93228">
        <ele>3.7</ele>
        <time>2020-06-03T16:18:17Z</time>
      </trkpt>
      <trkpt lat="46.68727" lon="-1.93229">
        <ele>3.7</ele>
        <time>2020-06-03T16:18:18Z</time>
      </trkpt>
      <trkpt lat="46.68732" lon="-1.9323">
        <ele>3.6</ele>
        <time>2020-06-03T16:18:19Z</time>
      </trkpt>
      <trkpt lat="46.68738" lon="-1.93232">
        <ele>3.6</ele>
        <time>2020-06-03T16:18:20Z</time>
      </trkpt>
      <trkpt lat="46.68743" lon="-1.93233">
        <ele>3.6</ele>
        <time>2020-06-03T16:18:21Z</time>
      </trkpt>
      <trkpt lat="46.6875" lon="-1.93235">
        <ele>3.6</ele>
        <time>2020-06-03T16:18:22Z</time>
      </trkpt>
      <trkpt lat="46.68755" lon="-1.93236">
        <ele>3.6</ele>
        <time>2020-06-03T16:18:23Z</time>
      </trkpt>
      <trkpt lat="46.68762" lon="-1.93238">
        <ele>3.6</ele>
        <time>2020-06-03T16:18:24Z</time>
      </trkpt>
      <trkpt lat="46.68768" lon="-1.93239">
        <ele>3.5</ele>
        <time>2020-06-03T16:18:25Z</time>
      </trkpt>
      <trkpt lat="46.68773" lon="-1.9324">
        <ele>3.5</ele>
        <time>2020-06-03T16:18:26Z</time>
      </trkpt>
      <trkpt lat="46.68779" lon="-1.93243">
        <ele>3.5</ele>
        <time>2020-06-03T16:18:27Z</time>
      </trkpt>
      <trkpt lat="46.68785" lon="-1.93243">
        <ele>3.5</ele>
        <time>2020-06-03T16:18:28Z</time>
      </trkpt>
      <trkpt lat="46.68791" lon="-1.93243">
        <ele>3.5</ele>
        <time>2020-06-03T16:18:29Z</time>
      </trkpt>
      <trkpt lat="46.68797" lon="-1.93243">
        <ele>3.5</ele>
        <time>2020-06-03T16:18:30Z</time>
      </trkpt>
      <trkpt lat="46.68803" lon="-1.93242">
        <ele>3.5</ele>
        <time>2020-06-03T16:18:31Z</time>
      </trkpt>
      <trkpt lat="46.68808" lon="-1.93241">
        <ele>3.4</ele>
        <time>2020-06-03T16:18:32Z</time>
      </trkpt>
      <trkpt lat="46.68814" lon="-1.93239">
        <ele>3.4</ele>
        <time>2020-06-03T16:18:33Z</time>
      </trkpt>
      <trkpt lat="46.6882" lon="-1.93237">
        <ele>3.4</ele>
        <time>2020-06-03T16:18:34Z</time>
      </trkpt>
      <trkpt lat="46.68825" lon="-1.93234">
        <ele>3.4</ele>
        <time>2020-06-03T16:18:35Z</time>
      </trkpt>
      <trkpt lat="46.6883" lon="-1.93232">
        <ele>3.5</ele>
        <time>2020-06-03T16:18:36Z</time>
      </trkpt>
      <trkpt lat="46.68835" lon="-1.93229">
        <ele>3.5</ele>
        <time>2020-06-03T16:18:37Z</time>
      </trkpt>
      <trkpt lat="46.6884" lon="-1.93225">
        <ele>3.5</ele>
        <time>2020-06-03T16:18:38Z</time>
      </trkpt>
      <trkpt lat="46.68846" lon="-1.93222">
        <ele>3.4</ele>
        <time>2020-06-03T16:18:39Z</time>
      </trkpt>
      <trkpt lat="46.68851" lon="-1.93219">
        <ele>3.3</ele>
        <time>2020-06-03T16:18:40Z</time>
      </trkpt>
      <trkpt lat="46.68855" lon="-1.93216">
        <ele>3.3</ele>
        <time>2020-06-03T16:18:41Z</time>
      </trkpt>
      <trkpt lat="46.68861" lon="-1.93213">
        <ele>3.2</ele>
        <time>2020-06-03T16:18:42Z</time>
      </trkpt>
      <trkpt lat="46.68867" lon="-1.93208">
        <ele>3.1</ele>
        <time>2020-06-03T16:18:43Z</time>
      </trkpt>
      <trkpt lat="46.68873" lon="-1.93205">
        <ele>3</ele>
        <time>2020-06-03T16:18:44Z</time>
      </trkpt>
      <trkpt lat="46.68878" lon="-1.93201">
        <ele>2.9</ele>
        <time>2020-06-03T16:18:45Z</time>
      </trkpt>
      <trkpt lat="46.68884" lon="-1.93197">
        <ele>2.7</ele>
        <time>2020-06-03T16:18:46Z</time>
      </trkpt>
      <trkpt lat="46.68889" lon="-1.93193">
        <ele>2.7</ele>
        <time>2020-06-03T16:18:47Z</time>
      </trkpt>
      <trkpt lat="46.68895" lon="-1.93189">
        <ele>2.7</ele>
        <time>2020-06-03T16:18:48Z</time>
      </trkpt>
      <trkpt lat="46.689" lon="-1.93184">
        <ele>2.6</ele>
        <time>2020-06-03T16:18:49Z</time>
      </trkpt>
      <trkpt lat="46.68906" lon="-1.9318">
        <ele>2.5</ele>
        <time>2020-06-03T16:18:50Z</time>
      </trkpt>
      <trkpt lat="46.68911" lon="-1.93177">
        <ele>2.5</ele>
        <time>2020-06-03T16:18:51Z</time>
      </trkpt>
      <trkpt lat="46.68917" lon="-1.93174">
        <ele>2.5</ele>
        <time>2020-06-03T16:18:52Z</time>
      </trkpt>
      <trkpt lat="46.68922" lon="-1.93172">
        <ele>2.4</ele>
        <time>2020-06-03T16:18:53Z</time>
      </trkpt>
      <trkpt lat="46.68928" lon="-1.93171">
        <ele>2.4</ele>
        <time>2020-06-03T16:18:54Z</time>
      </trkpt>
      <trkpt lat="46.68933" lon="-1.9317">
        <ele>2.4</ele>
        <time>2020-06-03T16:18:55Z</time>
      </trkpt>
      <trkpt lat="46.68939" lon="-1.93168">
        <ele>2.4</ele>
        <time>2020-06-03T16:18:56Z</time>
      </trkpt>
      <trkpt lat="46.68944" lon="-1.93166">
        <ele>2.4</ele>
        <time>2020-06-03T16:18:57Z</time>
      </trkpt>
      <trkpt lat="46.68949" lon="-1.93165">
        <ele>2.3</ele>
        <time>2020-06-03T16:18:58Z</time>
      </trkpt>
      <trkpt lat="46.68955" lon="-1.93164">
        <ele>2.3</ele>
        <time>2020-06-03T16:18:59Z</time>
      </trkpt>
      <trkpt lat="46.68961" lon="-1.93163">
        <ele>2.3</ele>
        <time>2020-06-03T16:19:00Z</time>
      </trkpt>
      <trkpt lat="46.68967" lon="-1.93162">
        <ele>2.3</ele>
        <time>2020-06-03T16:19:01Z</time>
      </trkpt>
      <trkpt lat="46.68972" lon="-1.93161">
        <ele>2.3</ele>
        <time>2020-06-03T16:19:02Z</time>
      </trkpt>
      <trkpt lat="46.68978" lon="-1.93161">
        <ele>2.2</ele>
        <time>2020-06-03T16:19:03Z</time>
      </trkpt>
      <trkpt lat="46.68984" lon="-1.9316">
        <ele>2.2</ele>
        <time>2020-06-03T16:19:04Z</time>
      </trkpt>
      <trkpt lat="46.68989" lon="-1.93158">
        <ele>2.2</ele>
        <time>2020-06-03T16:19:05Z</time>
      </trkpt>
      <trkpt lat="46.68994" lon="-1.93158">
        <ele>2.2</ele>
        <time>2020-06-03T16:19:06Z</time>
      </trkpt>
      <trkpt lat="46.69" lon="-1.93158">
        <ele>2.1</ele>
        <time>2020-06-03T16:19:07Z</time>
      </trkpt>
      <trkpt lat="46.69006" lon="-1.93158">
        <ele>2.2</ele>
        <time>2020-06-03T16:19:08Z</time>
      </trkpt>
      <trkpt lat="46.6901" lon="-1.93157">
        <ele>2.2</ele>
        <time>2020-06-03T16:19:09Z</time>
      </trkpt>
      <trkpt lat="46.69015" lon="-1.93158">
        <ele>2.2</ele>
        <time>2020-06-03T16:19:10Z</time>
      </trkpt>
      <trkpt lat="46.6902" lon="-1.93157">
        <ele>2.2</ele>
        <time>2020-06-03T16:19:11Z</time>
      </trkpt>
      <trkpt lat="46.69025" lon="-1.93156">
        <ele>2.2</ele>
        <time>2020-06-03T16:19:12Z</time>
      </trkpt>
      <trkpt lat="46.6903" lon="-1.93156">
        <ele>2.3</ele>
        <time>2020-06-03T16:19:13Z</time>
      </trkpt>
      <trkpt lat="46.69036" lon="-1.93155">
        <ele>2.3</ele>
        <time>2020-06-03T16:19:14Z</time>
      </trkpt>
      <trkpt lat="46.69042" lon="-1.93155">
        <ele>2.3</ele>
        <time>2020-06-03T16:19:15Z</time>
      </trkpt>
      <trkpt lat="46.69048" lon="-1.93155">
        <ele>2.4</ele>
        <time>2020-06-03T16:19:16Z</time>
      </trkpt>
      <trkpt lat="46.69053" lon="-1.93155">
        <ele>2.4</ele>
        <time>2020-06-03T16:19:17Z</time>
      </trkpt>
      <trkpt lat="46.69058" lon="-1.93155">
        <ele>2.5</ele>
        <time>2020-06-03T16:19:18Z</time>
      </trkpt>
      <trkpt lat="46.69064" lon="-1.93155">
        <ele>2.5</ele>
        <time>2020-06-03T16:19:19Z</time>
      </trkpt>
      <trkpt lat="46.69068" lon="-1.93156">
        <ele>2.5</ele>
        <time>2020-06-03T16:19:20Z</time>
      </trkpt>
      <trkpt lat="46.69074" lon="-1.93159">
        <ele>2.6</ele>
        <time>2020-06-03T16:19:21Z</time>
      </trkpt>
      <trkpt lat="46.69079" lon="-1.93164">
        <ele>2.6</ele>
        <time>2020-06-03T16:19:22Z</time>
      </trkpt>
      <trkpt lat="46.69084" lon="-1.93168">
        <ele>2.7</ele>
        <time>2020-06-03T16:19:23Z</time>
      </trkpt>
      <trkpt lat="46.6909" lon="-1.93173">
        <ele>2.7</ele>
        <time>2020-06-03T16:19:24Z</time>
      </trkpt>
      <trkpt lat="46.69094" lon="-1.93177">
        <ele>2.7</ele>
        <time>2020-06-03T16:19:25Z</time>
      </trkpt>
      <trkpt lat="46.69099" lon="-1.93183">
        <ele>2.8</ele>
        <time>2020-06-03T16:19:26Z</time>
      </trkpt>
      <trkpt lat="46.69103" lon="-1.93189">
        <ele>2.8</ele>
        <time>2020-06-03T16:19:27Z</time>
      </trkpt>
      <trkpt lat="46.69108" lon="-1.93194">
        <ele>2.8</ele>
        <time>2020-06-03T16:19:28Z</time>
      </trkpt>
      <trkpt lat="46.69111" lon="-1.932">
        <ele>2.8</ele>
        <time>2020-06-03T16:19:29Z</time>
      </trkpt>
      <trkpt lat="46.69115" lon="-1.93205">
        <ele>2.8</ele>
        <time>2020-06-03T16:19:30Z</time>
      </trkpt>
      <trkpt lat="46.69118" lon="-1.93212">
        <ele>2.9</ele>
        <time>2020-06-03T16:19:31Z</time>
      </trkpt>
      <trkpt lat="46.69122" lon="-1.93218">
        <ele>2.9</ele>
        <time>2020-06-03T16:19:32Z</time>
      </trkpt>
      <trkpt lat="46.69125" lon="-1.93224">
        <ele>2.9</ele>
        <time>2020-06-03T16:19:33Z</time>
      </trkpt>
      <trkpt lat="46.69128" lon="-1.9323">
        <ele>3</ele>
        <time>2020-06-03T16:19:34Z</time>
      </trkpt>
      <trkpt lat="46.69131" lon="-1.93236">
        <ele>3</ele>
        <time>2020-06-03T16:19:35Z</time>
      </trkpt>
      <trkpt lat="46.69133" lon="-1.93241">
        <ele>3.1</ele>
        <time>2020-06-03T16:19:36Z</time>
      </trkpt>
      <trkpt lat="46.69135" lon="-1.93247">
        <ele>3.1</ele>
        <time>2020-06-03T16:19:37Z</time>
      </trkpt>
      <trkpt lat="46.69139" lon="-1.93252">
        <ele>3.2</ele>
        <time>2020-06-03T16:19:38Z</time>
      </trkpt>
      <trkpt lat="46.69141" lon="-1.93258">
        <ele>3.2</ele>
        <time>2020-06-03T16:19:39Z</time>
      </trkpt>
      <trkpt lat="46.69144" lon="-1.93262">
        <ele>3.3</ele>
        <time>2020-06-03T16:19:40Z</time>
      </trkpt>
      <trkpt lat="46.69147" lon="-1.93266">
        <ele>3.3</ele>
        <time>2020-06-03T16:19:41Z</time>
      </trkpt>
      <trkpt lat="46.6915" lon="-1.9327">
        <ele>3.3</ele>
        <time>2020-06-03T16:19:42Z</time>
      </trkpt>
      <trkpt lat="46.69152" lon="-1.93274">
        <ele>3.3</ele>
        <time>2020-06-03T16:19:43Z</time>
      </trkpt>
      <trkpt lat="46.69154" lon="-1.93278">
        <ele>3.3</ele>
        <time>2020-06-03T16:19:44Z</time>
      </trkpt>
      <trkpt lat="46.69156" lon="-1.93282">
        <ele>3.3</ele>
        <time>2020-06-03T16:19:45Z</time>
      </trkpt>
      <trkpt lat="46.69158" lon="-1.93285">
        <ele>3.3</ele>
        <time>2020-06-03T16:19:46Z</time>
      </trkpt>
      <trkpt lat="46.6916" lon="-1.93289">
        <ele>3.3</ele>
        <time>2020-06-03T16:19:47Z</time>
      </trkpt>
      <trkpt lat="46.69162" lon="-1.93292">
        <ele>3.3</ele>
        <time>2020-06-03T16:19:48Z</time>
      </trkpt>
      <trkpt lat="46.69164" lon="-1.93296">
        <ele>3.3</ele>
        <time>2020-06-03T16:19:49Z</time>
      </trkpt>
      <trkpt lat="46.69165" lon="-1.93301">
        <ele>3.3</ele>
        <time>2020-06-03T16:19:50Z</time>
      </trkpt>
      <trkpt lat="46.69166" lon="-1.93303">
        <ele>3.3</ele>
        <time>2020-06-03T16:19:51Z</time>
      </trkpt>
      <trkpt lat="46.69166" lon="-1.93307">
        <ele>3.3</ele>
        <time>2020-06-03T16:19:52Z</time>
      </trkpt>
      <trkpt lat="46.69167" lon="-1.9331">
        <ele>3.3</ele>
        <time>2020-06-03T16:19:53Z</time>
      </trkpt>
      <trkpt lat="46.69167" lon="-1.93311">
        <ele>3.3</ele>
        <time>2020-06-03T16:19:54Z</time>
      </trkpt>
      <trkpt lat="46.69167" lon="-1.93312">
        <ele>3.3</ele>
        <time>2020-06-03T16:19:55Z</time>
      </trkpt>
      <trkpt lat="46.69168" lon="-1.93312">
        <ele>3.3</ele>
        <time>2020-06-03T16:19:56Z</time>
      </trkpt>
      <trkpt lat="46.69168" lon="-1.93312">
        <ele>3.3</ele>
        <time>2020-06-03T16:19:57Z</time>
      </trkpt>
      <trkpt lat="46.69169" lon="-1.93312">
        <ele>3.3</ele>
        <time>2020-06-03T16:19:58Z</time>
      </trkpt>
      <trkpt lat="46.69169" lon="-1.93313">
        <ele>3.3</ele>
        <time>2020-06-03T16:19:59Z</time>
      </trkpt>
      <trkpt lat="46.69169" lon="-1.93312">
        <ele>3.3</ele>
        <time>2020-06-03T16:20:00Z</time>
      </trkpt>
      <trkpt lat="46.69169" lon="-1.93312">
        <ele>3.3</ele>
        <time>2020-06-03T16:20:01Z</time>
      </trkpt>
      <trkpt lat="46.69168" lon="-1.93312">
        <ele>3.3</ele>
        <time>2020-06-03T16:20:02Z</time>
      </trkpt>
      <trkpt lat="46.69168" lon="-1.93313">
        <ele>3.3</ele>
        <time>2020-06-03T16:20:03Z</time>
      </trkpt>
      <trkpt lat="46.69168" lon="-1.93314">
        <ele>3.3</ele>
        <time>2020-06-03T16:20:04Z</time>
      </trkpt>
      <trkpt lat="46.69167" lon="-1.93314">
        <ele>3.3</ele>
        <time>2020-06-03T16:20:05Z</time>
      </trkpt>
      <trkpt lat="46.69169" lon="-1.93312">
        <ele>3.3</ele>
        <time>2020-06-03T16:27:20Z</time>
      </trkpt>
      <trkpt lat="46.6917" lon="-1.9331">
        <ele>3.3</ele>
        <time>2020-06-03T16:27:21Z</time>
      </trkpt>
      <trkpt lat="46.69169" lon="-1.93305">
        <ele>3.3</ele>
        <time>2020-06-03T16:27:22Z</time>
      </trkpt>
      <trkpt lat="46.69169" lon="-1.93303">
        <ele>3.3</ele>
        <time>2020-06-03T16:27:23Z</time>
      </trkpt>
      <trkpt lat="46.69169" lon="-1.93299">
        <ele>3.3</ele>
        <time>2020-06-03T16:27:24Z</time>
      </trkpt>
      <trkpt lat="46.69169" lon="-1.93295">
        <ele>3.4</ele>
        <time>2020-06-03T16:27:25Z</time>
      </trkpt>
      <trkpt lat="46.69168" lon="-1.93291">
        <ele>3.4</ele>
        <time>2020-06-03T16:27:26Z</time>
      </trkpt>
      <trkpt lat="46.69168" lon="-1.93287">
        <ele>3.4</ele>
        <time>2020-06-03T16:27:27Z</time>
      </trkpt>
      <trkpt lat="46.69167" lon="-1.9328">
        <ele>3.5</ele>
        <time>2020-06-03T16:27:28Z</time>
      </trkpt>
      <trkpt lat="46.69167" lon="-1.93273">
        <ele>3.5</ele>
        <time>2020-06-03T16:27:29Z</time>
      </trkpt>
      <trkpt lat="46.69167" lon="-1.93264">
        <ele>3.6</ele>
        <time>2020-06-03T16:27:30Z</time>
      </trkpt>
      <trkpt lat="46.69167" lon="-1.93257">
        <ele>3.6</ele>
        <time>2020-06-03T16:27:31Z</time>
      </trkpt>
      <trkpt lat="46.69168" lon="-1.9325">
        <ele>3.6</ele>
        <time>2020-06-03T16:27:32Z</time>
      </trkpt>
      <trkpt lat="46.69169" lon="-1.93243">
        <ele>3.6</ele>
        <time>2020-06-03T16:27:33Z</time>
      </trkpt>
      <trkpt lat="46.6917" lon="-1.93237">
        <ele>3.7</ele>
        <time>2020-06-03T16:27:34Z</time>
      </trkpt>
      <trkpt lat="46.69171" lon="-1.93231">
        <ele>3.7</ele>
        <time>2020-06-03T16:27:35Z</time>
      </trkpt>
      <trkpt lat="46.69172" lon="-1.93224">
        <ele>3.7</ele>
        <time>2020-06-03T16:27:36Z</time>
      </trkpt>
      <trkpt lat="46.69173" lon="-1.93217">
        <ele>3.8</ele>
        <time>2020-06-03T16:27:37Z</time>
      </trkpt>
      <trkpt lat="46.69175" lon="-1.93211">
        <ele>3.8</ele>
        <time>2020-06-03T16:27:38Z</time>
      </trkpt>
      <trkpt lat="46.69176" lon="-1.93204">
        <ele>3.9</ele>
        <time>2020-06-03T16:27:39Z</time>
      </trkpt>
      <trkpt lat="46.69177" lon="-1.93198">
        <ele>3.9</ele>
        <time>2020-06-03T16:27:40Z</time>
      </trkpt>
      <trkpt lat="46.69178" lon="-1.93191">
        <ele>3.9</ele>
        <time>2020-06-03T16:27:41Z</time>
      </trkpt>
      <trkpt lat="46.6918" lon="-1.93184">
        <ele>4</ele>
        <time>2020-06-03T16:27:42Z</time>
      </trkpt>
      <trkpt lat="46.6918" lon="-1.93178">
        <ele>4</ele>
        <time>2020-06-03T16:27:43Z</time>
      </trkpt>
      <trkpt lat="46.69181" lon="-1.93171">
        <ele>4</ele>
        <time>2020-06-03T16:27:44Z</time>
      </trkpt>
      <trkpt lat="46.69183" lon="-1.93164">
        <ele>4</ele>
        <time>2020-06-03T16:27:45Z</time>
      </trkpt>
      <trkpt lat="46.69183" lon="-1.93156">
        <ele>4</ele>
        <time>2020-06-03T16:27:46Z</time>
      </trkpt>
      <trkpt lat="46.69185" lon="-1.93149">
        <ele>4</ele>
        <time>2020-06-03T16:27:47Z</time>
      </trkpt>
      <trkpt lat="46.69187" lon="-1.93142">
        <ele>4</ele>
        <time>2020-06-03T16:27:48Z</time>
      </trkpt>
      <trkpt lat="46.69188" lon="-1.93135">
        <ele>4</ele>
        <time>2020-06-03T16:27:49Z</time>
      </trkpt>
      <trkpt lat="46.6919" lon="-1.93128">
        <ele>3.9</ele>
        <time>2020-06-03T16:27:50Z</time>
      </trkpt>
      <trkpt lat="46.69193" lon="-1.93121">
        <ele>3.9</ele>
        <time>2020-06-03T16:27:51Z</time>
      </trkpt>
      <trkpt lat="46.69196" lon="-1.93115">
        <ele>3.9</ele>
        <time>2020-06-03T16:27:52Z</time>
      </trkpt>
      <trkpt lat="46.69199" lon="-1.93108">
        <ele>3.9</ele>
        <time>2020-06-03T16:27:53Z</time>
      </trkpt>
      <trkpt lat="46.69203" lon="-1.93102">
        <ele>3.9</ele>
        <time>2020-06-03T16:27:54Z</time>
      </trkpt>
      <trkpt lat="46.69206" lon="-1.93096">
        <ele>3.9</ele>
        <time>2020-06-03T16:27:55Z</time>
      </trkpt>
      <trkpt lat="46.69208" lon="-1.9309">
        <ele>3.8</ele>
        <time>2020-06-03T16:27:56Z</time>
      </trkpt>
      <trkpt lat="46.69211" lon="-1.93085">
        <ele>3.8</ele>
        <time>2020-06-03T16:27:57Z</time>
      </trkpt>
      <trkpt lat="46.69214" lon="-1.9308">
        <ele>3.8</ele>
        <time>2020-06-03T16:27:58Z</time>
      </trkpt>
      <trkpt lat="46.69216" lon="-1.93076">
        <ele>3.8</ele>
        <time>2020-06-03T16:27:59Z</time>
      </trkpt>
      <trkpt lat="46.69218" lon="-1.9307">
        <ele>3.8</ele>
        <time>2020-06-03T16:28:00Z</time>
      </trkpt>
      <trkpt lat="46.69219" lon="-1.93064">
        <ele>3.8</ele>
        <time>2020-06-03T16:28:01Z</time>
      </trkpt>
      <trkpt lat="46.69218" lon="-1.93059">
        <ele>3.8</ele>
        <time>2020-06-03T16:28:02Z</time>
      </trkpt>
      <trkpt lat="46.69216" lon="-1.93054">
        <ele>3.8</ele>
        <time>2020-06-03T16:28:03Z</time>
      </trkpt>
      <trkpt lat="46.69214" lon="-1.93049">
        <ele>3.8</ele>
        <time>2020-06-03T16:28:04Z</time>
      </trkpt>
      <trkpt lat="46.6921" lon="-1.93044">
        <ele>3.8</ele>
        <time>2020-06-03T16:28:05Z</time>
      </trkpt>
      <trkpt lat="46.69205" lon="-1.93039">
        <ele>3.8</ele>
        <time>2020-06-03T16:28:06Z</time>
      </trkpt>
      <trkpt lat="46.69201" lon="-1.93035">
        <ele>3.8</ele>
        <time>2020-06-03T16:28:07Z</time>
      </trkpt>
      <trkpt lat="46.69196" lon="-1.9303">
        <ele>3.8</ele>
        <time>2020-06-03T16:28:08Z</time>
      </trkpt>
      <trkpt lat="46.69192" lon="-1.93026">
        <ele>3.8</ele>
        <time>2020-06-03T16:28:09Z</time>
      </trkpt>
      <trkpt lat="46.69187" lon="-1.93023">
        <ele>3.9</ele>
        <time>2020-06-03T16:28:10Z</time>
      </trkpt>
      <trkpt lat="46.69183" lon="-1.93019">
        <ele>3.9</ele>
        <time>2020-06-03T16:28:11Z</time>
      </trkpt>
      <trkpt lat="46.69179" lon="-1.93015">
        <ele>3.9</ele>
        <time>2020-06-03T16:28:12Z</time>
      </trkpt>
      <trkpt lat="46.69175" lon="-1.93011">
        <ele>3.9</ele>
        <time>2020-06-03T16:28:13Z</time>
      </trkpt>
      <trkpt lat="46.69171" lon="-1.93007">
        <ele>3.9</ele>
        <time>2020-06-03T16:28:14Z</time>
      </trkpt>
      <trkpt lat="46.69169" lon="-1.93002">
        <ele>4</ele>
        <time>2020-06-03T16:28:15Z</time>
      </trkpt>
      <trkpt lat="46.69168" lon="-1.92997">
        <ele>4</ele>
        <time>2020-06-03T16:28:16Z</time>
      </trkpt>
      <trkpt lat="46.69169" lon="-1.92991">
        <ele>4.1</ele>
        <time>2020-06-03T16:28:17Z</time>
      </trkpt>
      <trkpt lat="46.69171" lon="-1.92986">
        <ele>4.2</ele>
        <time>2020-06-03T16:28:18Z</time>
      </trkpt>
      <trkpt lat="46.69173" lon="-1.9298">
        <ele>4.2</ele>
        <time>2020-06-03T16:28:19Z</time>
      </trkpt>
      <trkpt lat="46.69174" lon="-1.92973">
        <ele>4.3</ele>
        <time>2020-06-03T16:28:20Z</time>
      </trkpt>
      <trkpt lat="46.69176" lon="-1.92967">
        <ele>4.4</ele>
        <time>2020-06-03T16:28:21Z</time>
      </trkpt>
      <trkpt lat="46.69178" lon="-1.92959">
        <ele>4.5</ele>
        <time>2020-06-03T16:28:22Z</time>
      </trkpt>
      <trkpt lat="46.69179" lon="-1.92952">
        <ele>4.6</ele>
        <time>2020-06-03T16:28:23Z</time>
      </trkpt>
      <trkpt lat="46.6918" lon="-1.92945">
        <ele>4.7</ele>
        <time>2020-06-03T16:28:24Z</time>
      </trkpt>
      <trkpt lat="46.69181" lon="-1.92938">
        <ele>4.8</ele>
        <time>2020-06-03T16:28:25Z</time>
      </trkpt>
      <trkpt lat="46.69182" lon="-1.9293">
        <ele>4.8</ele>
        <time>2020-06-03T16:28:26Z</time>
      </trkpt>
      <trkpt lat="46.69183" lon="-1.92923">
        <ele>4.9</ele>
        <time>2020-06-03T16:28:27Z</time>
      </trkpt>
      <trkpt lat="46.69184" lon="-1.92916">
        <ele>5</ele>
        <time>2020-06-03T16:28:28Z</time>
      </trkpt>
      <trkpt lat="46.69184" lon="-1.92909">
        <ele>5</ele>
        <time>2020-06-03T16:28:29Z</time>
      </trkpt>
      <trkpt lat="46.69185" lon="-1.92903">
        <ele>5.1</ele>
        <time>2020-06-03T16:28:30Z</time>
      </trkpt>
      <trkpt lat="46.69186" lon="-1.92896">
        <ele>5.2</ele>
        <time>2020-06-03T16:28:31Z</time>
      </trkpt>
      <trkpt lat="46.69187" lon="-1.92889">
        <ele>5.2</ele>
        <time>2020-06-03T16:28:32Z</time>
      </trkpt>
      <trkpt lat="46.69187" lon="-1.92881">
        <ele>5.3</ele>
        <time>2020-06-03T16:28:33Z</time>
      </trkpt>
      <trkpt lat="46.69188" lon="-1.92874">
        <ele>5.4</ele>
        <time>2020-06-03T16:28:34Z</time>
      </trkpt>
      <trkpt lat="46.69188" lon="-1.92867">
        <ele>5.5</ele>
        <time>2020-06-03T16:28:35Z</time>
      </trkpt>
      <trkpt lat="46.69189" lon="-1.9286">
        <ele>5.5</ele>
        <time>2020-06-03T16:28:36Z</time>
      </trkpt>
      <trkpt lat="46.6919" lon="-1.92852">
        <ele>5.6</ele>
        <time>2020-06-03T16:28:37Z</time>
      </trkpt>
      <trkpt lat="46.6919" lon="-1.92846">
        <ele>5.6</ele>
        <time>2020-06-03T16:28:38Z</time>
      </trkpt>
      <trkpt lat="46.69191" lon="-1.92839">
        <ele>5.8</ele>
        <time>2020-06-03T16:28:39Z</time>
      </trkpt>
      <trkpt lat="46.69192" lon="-1.92832">
        <ele>5.9</ele>
        <time>2020-06-03T16:28:40Z</time>
      </trkpt>
      <trkpt lat="46.69193" lon="-1.92825">
        <ele>6</ele>
        <time>2020-06-03T16:28:41Z</time>
      </trkpt>
      <trkpt lat="46.69194" lon="-1.92819">
        <ele>6.1</ele>
        <time>2020-06-03T16:28:42Z</time>
      </trkpt>
      <trkpt lat="46.69195" lon="-1.92812">
        <ele>6.2</ele>
        <time>2020-06-03T16:28:43Z</time>
      </trkpt>
      <trkpt lat="46.69196" lon="-1.92805">
        <ele>6.4</ele>
        <time>2020-06-03T16:28:44Z</time>
      </trkpt>
      <trkpt lat="46.69197" lon="-1.92798">
        <ele>6.5</ele>
        <time>2020-06-03T16:28:45Z</time>
      </trkpt>
      <trkpt lat="46.69198" lon="-1.92792">
        <ele>6.6</ele>
        <time>2020-06-03T16:28:46Z</time>
      </trkpt>
      <trkpt lat="46.69199" lon="-1.92787">
        <ele>6.8</ele>
        <time>2020-06-03T16:28:47Z</time>
      </trkpt>
      <trkpt lat="46.692" lon="-1.92781">
        <ele>6.9</ele>
        <time>2020-06-03T16:28:48Z</time>
      </trkpt>
      <trkpt lat="46.69201" lon="-1.92775">
        <ele>7</ele>
        <time>2020-06-03T16:28:49Z</time>
      </trkpt>
      <trkpt lat="46.69201" lon="-1.92768">
        <ele>7.2</ele>
        <time>2020-06-03T16:28:50Z</time>
      </trkpt>
      <trkpt lat="46.69202" lon="-1.9276">
        <ele>7.3</ele>
        <time>2020-06-03T16:28:51Z</time>
      </trkpt>
      <trkpt lat="46.69202" lon="-1.92753">
        <ele>7.4</ele>
        <time>2020-06-03T16:28:52Z</time>
      </trkpt>
      <trkpt lat="46.69202" lon="-1.92745">
        <ele>7.5</ele>
        <time>2020-06-03T16:28:53Z</time>
      </trkpt>
      <trkpt lat="46.69203" lon="-1.92738">
        <ele>7.6</ele>
        <time>2020-06-03T16:28:54Z</time>
      </trkpt>
      <trkpt lat="46.69204" lon="-1.9273">
        <ele>7.7</ele>
        <time>2020-06-03T16:28:55Z</time>
      </trkpt>
      <trkpt lat="46.69204" lon="-1.92722">
        <ele>7.8</ele>
        <time>2020-06-03T16:28:56Z</time>
      </trkpt>
      <trkpt lat="46.69205" lon="-1.92716">
        <ele>7.9</ele>
        <time>2020-06-03T16:28:57Z</time>
      </trkpt>
      <trkpt lat="46.69207" lon="-1.9271">
        <ele>8</ele>
        <time>2020-06-03T16:28:58Z</time>
      </trkpt>
      <trkpt lat="46.69208" lon="-1.92703">
        <ele>8.1</ele>
        <time>2020-06-03T16:28:59Z</time>
      </trkpt>
      <trkpt lat="46.6921" lon="-1.92697">
        <ele>8.1</ele>
        <time>2020-06-03T16:29:00Z</time>
      </trkpt>
      <trkpt lat="46.69212" lon="-1.9269">
        <ele>8.2</ele>
        <time>2020-06-03T16:29:01Z</time>
      </trkpt>
      <trkpt lat="46.69215" lon="-1.92684">
        <ele>8.3</ele>
        <time>2020-06-03T16:29:02Z</time>
      </trkpt>
      <trkpt lat="46.69216" lon="-1.92679">
        <ele>8.4</ele>
        <time>2020-06-03T16:29:03Z</time>
      </trkpt>
      <trkpt lat="46.69218" lon="-1.92673">
        <ele>8.5</ele>
        <time>2020-06-03T16:29:04Z</time>
      </trkpt>
      <trkpt lat="46.69219" lon="-1.92666">
        <ele>8.6</ele>
        <time>2020-06-03T16:29:05Z</time>
      </trkpt>
      <trkpt lat="46.6922" lon="-1.9266">
        <ele>8.7</ele>
        <time>2020-06-03T16:29:06Z</time>
      </trkpt>
      <trkpt lat="46.69222" lon="-1.92654">
        <ele>8.8</ele>
        <time>2020-06-03T16:29:07Z</time>
      </trkpt>
      <trkpt lat="46.69224" lon="-1.92648">
        <ele>8.9</ele>
        <time>2020-06-03T16:29:08Z</time>
      </trkpt>
      <trkpt lat="46.69226" lon="-1.92642">
        <ele>9</ele>
        <time>2020-06-03T16:29:09Z</time>
      </trkpt>
      <trkpt lat="46.69226" lon="-1.92635">
        <ele>9.1</ele>
        <time>2020-06-03T16:29:10Z</time>
      </trkpt>
      <trkpt lat="46.69227" lon="-1.92629">
        <ele>9.2</ele>
        <time>2020-06-03T16:29:11Z</time>
      </trkpt>
      <trkpt lat="46.69228" lon="-1.92623">
        <ele>9.3</ele>
        <time>2020-06-03T16:29:12Z</time>
      </trkpt>
      <trkpt lat="46.69229" lon="-1.92618">
        <ele>9.3</ele>
        <time>2020-06-03T16:29:13Z</time>
      </trkpt>
      <trkpt lat="46.6923" lon="-1.92612">
        <ele>9.4</ele>
        <time>2020-06-03T16:29:14Z</time>
      </trkpt>
      <trkpt lat="46.69232" lon="-1.92607">
        <ele>9.4</ele>
        <time>2020-06-03T16:29:15Z</time>
      </trkpt>
      <trkpt lat="46.69234" lon="-1.92601">
        <ele>9.5</ele>
        <time>2020-06-03T16:29:16Z</time>
      </trkpt>
      <trkpt lat="46.69234" lon="-1.92596">
        <ele>9.5</ele>
        <time>2020-06-03T16:29:17Z</time>
      </trkpt>
      <trkpt lat="46.69234" lon="-1.9259">
        <ele>9.5</ele>
        <time>2020-06-03T16:29:18Z</time>
      </trkpt>
      <trkpt lat="46.69234" lon="-1.92584">
        <ele>9.6</ele>
        <time>2020-06-03T16:29:19Z</time>
      </trkpt>
      <trkpt lat="46.69233" lon="-1.92577">
        <ele>9.8</ele>
        <time>2020-06-03T16:29:20Z</time>
      </trkpt>
      <trkpt lat="46.69233" lon="-1.9257">
        <ele>9.9</ele>
        <time>2020-06-03T16:29:21Z</time>
      </trkpt>
      <trkpt lat="46.69232" lon="-1.92563">
        <ele>10</ele>
        <time>2020-06-03T16:29:22Z</time>
      </trkpt>
      <trkpt lat="46.69231" lon="-1.92557">
        <ele>10.1</ele>
        <time>2020-06-03T16:29:23Z</time>
      </trkpt>
      <trkpt lat="46.69231" lon="-1.92549">
        <ele>10.2</ele>
        <time>2020-06-03T16:29:24Z</time>
      </trkpt>
      <trkpt lat="46.69232" lon="-1.92543">
        <ele>10.3</ele>
        <time>2020-06-03T16:29:25Z</time>
      </trkpt>
      <trkpt lat="46.69231" lon="-1.92538">
        <ele>10.4</ele>
        <time>2020-06-03T16:29:26Z</time>
      </trkpt>
      <trkpt lat="46.6923" lon="-1.92532">
        <ele>10.5</ele>
        <time>2020-06-03T16:29:27Z</time>
      </trkpt>
      <trkpt lat="46.6923" lon="-1.92528">
        <ele>10.5</ele>
        <time>2020-06-03T16:29:28Z</time>
      </trkpt>
      <trkpt lat="46.69229" lon="-1.92522">
        <ele>10.6</ele>
        <time>2020-06-03T16:29:29Z</time>
      </trkpt>
      <trkpt lat="46.69226" lon="-1.92516">
        <ele>10.7</ele>
        <time>2020-06-03T16:29:30Z</time>
      </trkpt>
      <trkpt lat="46.69224" lon="-1.9251">
        <ele>10.9</ele>
        <time>2020-06-03T16:29:31Z</time>
      </trkpt>
      <trkpt lat="46.69223" lon="-1.92504">
        <ele>11</ele>
        <time>2020-06-03T16:29:32Z</time>
      </trkpt>
      <trkpt lat="46.69221" lon="-1.92498">
        <ele>11.1</ele>
        <time>2020-06-03T16:29:33Z</time>
      </trkpt>
      <trkpt lat="46.6922" lon="-1.92491">
        <ele>11.2</ele>
        <time>2020-06-03T16:29:34Z</time>
      </trkpt>
      <trkpt lat="46.69219" lon="-1.92484">
        <ele>11.3</ele>
        <time>2020-06-03T16:29:35Z</time>
      </trkpt>
      <trkpt lat="46.69218" lon="-1.92477">
        <ele>11.4</ele>
        <time>2020-06-03T16:29:36Z</time>
      </trkpt>
      <trkpt lat="46.69216" lon="-1.92471">
        <ele>11.4</ele>
        <time>2020-06-03T16:29:37Z</time>
      </trkpt>
      <trkpt lat="46.69216" lon="-1.92465">
        <ele>11.5</ele>
        <time>2020-06-03T16:29:38Z</time>
      </trkpt>
      <trkpt lat="46.69214" lon="-1.9246">
        <ele>11.5</ele>
        <time>2020-06-03T16:29:39Z</time>
      </trkpt>
      <trkpt lat="46.69212" lon="-1.92454">
        <ele>11.5</ele>
        <time>2020-06-03T16:29:40Z</time>
      </trkpt>
      <trkpt lat="46.6921" lon="-1.92448">
        <ele>11.6</ele>
        <time>2020-06-03T16:29:41Z</time>
      </trkpt>
      <trkpt lat="46.69209" lon="-1.92442">
        <ele>11.7</ele>
        <time>2020-06-03T16:29:42Z</time>
      </trkpt>
      <trkpt lat="46.69208" lon="-1.92435">
        <ele>11.8</ele>
        <time>2020-06-03T16:29:43Z</time>
      </trkpt>
      <trkpt lat="46.69206" lon="-1.92429">
        <ele>11.9</ele>
        <time>2020-06-03T16:29:44Z</time>
      </trkpt>
      <trkpt lat="46.69205" lon="-1.92422">
        <ele>12</ele>
        <time>2020-06-03T16:29:45Z</time>
      </trkpt>
      <trkpt lat="46.69204" lon="-1.92415">
        <ele>12.1</ele>
        <time>2020-06-03T16:29:46Z</time>
      </trkpt>
      <trkpt lat="46.69203" lon="-1.92409">
        <ele>12.2</ele>
        <time>2020-06-03T16:29:47Z</time>
      </trkpt>
      <trkpt lat="46.69202" lon="-1.92403">
        <ele>12.3</ele>
        <time>2020-06-03T16:29:48Z</time>
      </trkpt>
      <trkpt lat="46.69201" lon="-1.92397">
        <ele>12.4</ele>
        <time>2020-06-03T16:29:49Z</time>
      </trkpt>
      <trkpt lat="46.69201" lon="-1.9239">
        <ele>12.4</ele>
        <time>2020-06-03T16:29:50Z</time>
      </trkpt>
      <trkpt lat="46.692" lon="-1.92384">
        <ele>12.4</ele>
        <time>2020-06-03T16:29:51Z</time>
      </trkpt>
      <trkpt lat="46.69199" lon="-1.92378">
        <ele>12.5</ele>
        <time>2020-06-03T16:29:52Z</time>
      </trkpt>
      <trkpt lat="46.69198" lon="-1.92371">
        <ele>12.6</ele>
        <time>2020-06-03T16:29:53Z</time>
      </trkpt>
      <trkpt lat="46.69197" lon="-1.92365">
        <ele>12.6</ele>
        <time>2020-06-03T16:29:54Z</time>
      </trkpt>
      <trkpt lat="46.69198" lon="-1.92357">
        <ele>12.7</ele>
        <time>2020-06-03T16:29:55Z</time>
      </trkpt>
      <trkpt lat="46.69197" lon="-1.92351">
        <ele>12.8</ele>
        <time>2020-06-03T16:29:56Z</time>
      </trkpt>
      <trkpt lat="46.69196" lon="-1.92344">
        <ele>12.8</ele>
        <time>2020-06-03T16:29:57Z</time>
      </trkpt>
      <trkpt lat="46.69195" lon="-1.92337">
        <ele>12.9</ele>
        <time>2020-06-03T16:29:58Z</time>
      </trkpt>
      <trkpt lat="46.69194" lon="-1.9233">
        <ele>13</ele>
        <time>2020-06-03T16:29:59Z</time>
      </trkpt>
      <trkpt lat="46.69193" lon="-1.92323">
        <ele>13.1</ele>
        <time>2020-06-03T16:30:00Z</time>
      </trkpt>
      <trkpt lat="46.69192" lon="-1.92316">
        <ele>13.2</ele>
        <time>2020-06-03T16:30:01Z</time>
      </trkpt>
      <trkpt lat="46.69191" lon="-1.9231">
        <ele>13.3</ele>
        <time>2020-06-03T16:30:02Z</time>
      </trkpt>
      <trkpt lat="46.6919" lon="-1.92303">
        <ele>13.4</ele>
        <time>2020-06-03T16:30:03Z</time>
      </trkpt>
      <trkpt lat="46.69191" lon="-1.92296">
        <ele>13.5</ele>
        <time>2020-06-03T16:30:04Z</time>
      </trkpt>
      <trkpt lat="46.69191" lon="-1.9229">
        <ele>13.6</ele>
        <time>2020-06-03T16:30:05Z</time>
      </trkpt>
      <trkpt lat="46.69191" lon="-1.92283">
        <ele>13.7</ele>
        <time>2020-06-03T16:30:06Z</time>
      </trkpt>
      <trkpt lat="46.69191" lon="-1.92277">
        <ele>13.8</ele>
        <time>2020-06-03T16:30:07Z</time>
      </trkpt>
      <trkpt lat="46.6919" lon="-1.9227">
        <ele>13.9</ele>
        <time>2020-06-03T16:30:08Z</time>
      </trkpt>
      <trkpt lat="46.69189" lon="-1.92263">
        <ele>14</ele>
        <time>2020-06-03T16:30:09Z</time>
      </trkpt>
      <trkpt lat="46.69189" lon="-1.92256">
        <ele>14.2</ele>
        <time>2020-06-03T16:30:10Z</time>
      </trkpt>
      <trkpt lat="46.69189" lon="-1.9225">
        <ele>14.3</ele>
        <time>2020-06-03T16:30:11Z</time>
      </trkpt>
      <trkpt lat="46.69188" lon="-1.92244">
        <ele>14.4</ele>
        <time>2020-06-03T16:30:12Z</time>
      </trkpt>
      <trkpt lat="46.69187" lon="-1.92238">
        <ele>14.6</ele>
        <time>2020-06-03T16:30:13Z</time>
      </trkpt>
      <trkpt lat="46.69187" lon="-1.92232">
        <ele>14.7</ele>
        <time>2020-06-03T16:30:14Z</time>
      </trkpt>
      <trkpt lat="46.69187" lon="-1.92226">
        <ele>14.8</ele>
        <time>2020-06-03T16:30:15Z</time>
      </trkpt>
      <trkpt lat="46.69186" lon="-1.9222">
        <ele>14.9</ele>
        <time>2020-06-03T16:30:16Z</time>
      </trkpt>
      <trkpt lat="46.69187" lon="-1.92214">
        <ele>14.9</ele>
        <time>2020-06-03T16:30:17Z</time>
      </trkpt>
      <trkpt lat="46.69187" lon="-1.92208">
        <ele>15</ele>
        <time>2020-06-03T16:30:18Z</time>
      </trkpt>
      <trkpt lat="46.69186" lon="-1.92202">
        <ele>15.1</ele>
        <time>2020-06-03T16:30:19Z</time>
      </trkpt>
      <trkpt lat="46.69186" lon="-1.92195">
        <ele>15.2</ele>
        <time>2020-06-03T16:30:20Z</time>
      </trkpt>
      <trkpt lat="46.69186" lon="-1.92188">
        <ele>15.3</ele>
        <time>2020-06-03T16:30:21Z</time>
      </trkpt>
      <trkpt lat="46.69185" lon="-1.92182">
        <ele>15.4</ele>
        <time>2020-06-03T16:30:22Z</time>
      </trkpt>
      <trkpt lat="46.69185" lon="-1.92176">
        <ele>15.5</ele>
        <time>2020-06-03T16:30:23Z</time>
      </trkpt>
      <trkpt lat="46.69185" lon="-1.92169">
        <ele>15.6</ele>
        <time>2020-06-03T16:30:24Z</time>
      </trkpt>
      <trkpt lat="46.69185" lon="-1.92163">
        <ele>15.7</ele>
        <time>2020-06-03T16:30:25Z</time>
      </trkpt>
      <trkpt lat="46.69186" lon="-1.92157">
        <ele>15.8</ele>
        <time>2020-06-03T16:30:26Z</time>
      </trkpt>
      <trkpt lat="46.69186" lon="-1.92151">
        <ele>15.9</ele>
        <time>2020-06-03T16:30:27Z</time>
      </trkpt>
      <trkpt lat="46.69186" lon="-1.92145">
        <ele>16</ele>
        <time>2020-06-03T16:30:28Z</time>
      </trkpt>
      <trkpt lat="46.69187" lon="-1.92139">
        <ele>16</ele>
        <time>2020-06-03T16:30:29Z</time>
      </trkpt>
      <trkpt lat="46.69187" lon="-1.92132">
        <ele>16.1</ele>
        <time>2020-06-03T16:30:30Z</time>
      </trkpt>
      <trkpt lat="46.69187" lon="-1.92124">
        <ele>16.2</ele>
        <time>2020-06-03T16:30:31Z</time>
      </trkpt>
      <trkpt lat="46.69186" lon="-1.92118">
        <ele>16.3</ele>
        <time>2020-06-03T16:30:32Z</time>
      </trkpt>
      <trkpt lat="46.69186" lon="-1.9211">
        <ele>16.3</ele>
        <time>2020-06-03T16:30:33Z</time>
      </trkpt>
      <trkpt lat="46.69187" lon="-1.92104">
        <ele>16.4</ele>
        <time>2020-06-03T16:30:34Z</time>
      </trkpt>
      <trkpt lat="46.69188" lon="-1.92098">
        <ele>16.4</ele>
        <time>2020-06-03T16:30:35Z</time>
      </trkpt>
      <trkpt lat="46.69189" lon="-1.92091">
        <ele>16.5</ele>
        <time>2020-06-03T16:30:36Z</time>
      </trkpt>
      <trkpt lat="46.6919" lon="-1.92085">
        <ele>16.5</ele>
        <time>2020-06-03T16:30:37Z</time>
      </trkpt>
      <trkpt lat="46.6919" lon="-1.92079">
        <ele>16.6</ele>
        <time>2020-06-03T16:30:38Z</time>
      </trkpt>
      <trkpt lat="46.69191" lon="-1.92072">
        <ele>16.6</ele>
        <time>2020-06-03T16:30:39Z</time>
      </trkpt>
      <trkpt lat="46.69193" lon="-1.92066">
        <ele>16.6</ele>
        <time>2020-06-03T16:30:40Z</time>
      </trkpt>
      <trkpt lat="46.69194" lon="-1.9206">
        <ele>16.7</ele>
        <time>2020-06-03T16:30:41Z</time>
      </trkpt>
      <trkpt lat="46.69195" lon="-1.92054">
        <ele>16.8</ele>
        <time>2020-06-03T16:30:42Z</time>
      </trkpt>
      <trkpt lat="46.69197" lon="-1.92047">
        <ele>16.9</ele>
        <time>2020-06-03T16:30:43Z</time>
      </trkpt>
      <trkpt lat="46.69198" lon="-1.92041">
        <ele>17.1</ele>
        <time>2020-06-03T16:30:44Z</time>
      </trkpt>
      <trkpt lat="46.69201" lon="-1.92035">
        <ele>17.2</ele>
        <time>2020-06-03T16:30:45Z</time>
      </trkpt>
      <trkpt lat="46.69202" lon="-1.9203">
        <ele>17.2</ele>
        <time>2020-06-03T16:30:46Z</time>
      </trkpt>
      <trkpt lat="46.69203" lon="-1.92023">
        <ele>17.3</ele>
        <time>2020-06-03T16:30:47Z</time>
      </trkpt>
      <trkpt lat="46.69204" lon="-1.92017">
        <ele>17.3</ele>
        <time>2020-06-03T16:30:48Z</time>
      </trkpt>
      <trkpt lat="46.69204" lon="-1.9201">
        <ele>17.3</ele>
        <time>2020-06-03T16:30:49Z</time>
      </trkpt>
      <trkpt lat="46.69204" lon="-1.92004">
        <ele>17.4</ele>
        <time>2020-06-03T16:30:50Z</time>
      </trkpt>
      <trkpt lat="46.69204" lon="-1.91997">
        <ele>17.5</ele>
        <time>2020-06-03T16:30:51Z</time>
      </trkpt>
      <trkpt lat="46.69202" lon="-1.91991">
        <ele>17.6</ele>
        <time>2020-06-03T16:30:52Z</time>
      </trkpt>
      <trkpt lat="46.69201" lon="-1.91984">
        <ele>17.7</ele>
        <time>2020-06-03T16:30:53Z</time>
      </trkpt>
      <trkpt lat="46.69201" lon="-1.91977">
        <ele>17.8</ele>
        <time>2020-06-03T16:30:54Z</time>
      </trkpt>
      <trkpt lat="46.692" lon="-1.91972">
        <ele>17.9</ele>
        <time>2020-06-03T16:30:55Z</time>
      </trkpt>
      <trkpt lat="46.69199" lon="-1.91965">
        <ele>17.9</ele>
        <time>2020-06-03T16:30:56Z</time>
      </trkpt>
      <trkpt lat="46.692" lon="-1.91958">
        <ele>18</ele>
        <time>2020-06-03T16:30:57Z</time>
      </trkpt>
      <trkpt lat="46.69199" lon="-1.91952">
        <ele>18.1</ele>
        <time>2020-06-03T16:30:58Z</time>
      </trkpt>
      <trkpt lat="46.69199" lon="-1.91946">
        <ele>18.2</ele>
        <time>2020-06-03T16:30:59Z</time>
      </trkpt>
      <trkpt lat="46.69199" lon="-1.91938">
        <ele>18.3</ele>
        <time>2020-06-03T16:31:00Z</time>
      </trkpt>
      <trkpt lat="46.69199" lon="-1.91931">
        <ele>18.4</ele>
        <time>2020-06-03T16:31:01Z</time>
      </trkpt>
      <trkpt lat="46.69199" lon="-1.91924">
        <ele>18.4</ele>
        <time>2020-06-03T16:31:02Z</time>
      </trkpt>
      <trkpt lat="46.69199" lon="-1.91917">
        <ele>18.5</ele>
        <time>2020-06-03T16:31:03Z</time>
      </trkpt>
      <trkpt lat="46.69199" lon="-1.9191">
        <ele>18.6</ele>
        <time>2020-06-03T16:31:04Z</time>
      </trkpt>
      <trkpt lat="46.69199" lon="-1.91903">
        <ele>18.7</ele>
        <time>2020-06-03T16:31:05Z</time>
      </trkpt>
      <trkpt lat="46.69199" lon="-1.91896">
        <ele>18.8</ele>
        <time>2020-06-03T16:31:06Z</time>
      </trkpt>
      <trkpt lat="46.69198" lon="-1.9189">
        <ele>18.9</ele>
        <time>2020-06-03T16:31:07Z</time>
      </trkpt>
      <trkpt lat="46.69198" lon="-1.91881">
        <ele>18.9</ele>
        <time>2020-06-03T16:31:08Z</time>
      </trkpt>
      <trkpt lat="46.69199" lon="-1.91874">
        <ele>18.9</ele>
        <time>2020-06-03T16:31:09Z</time>
      </trkpt>
      <trkpt lat="46.69198" lon="-1.91868">
        <ele>19</ele>
        <time>2020-06-03T16:31:10Z</time>
      </trkpt>
      <trkpt lat="46.69198" lon="-1.9186">
        <ele>19</ele>
        <time>2020-06-03T16:31:11Z</time>
      </trkpt>
      <trkpt lat="46.69198" lon="-1.91853">
        <ele>19.1</ele>
        <time>2020-06-03T16:31:12Z</time>
      </trkpt>
      <trkpt lat="46.69199" lon="-1.91847">
        <ele>19.1</ele>
        <time>2020-06-03T16:31:13Z</time>
      </trkpt>
      <trkpt lat="46.69199" lon="-1.9184">
        <ele>19.2</ele>
        <time>2020-06-03T16:31:14Z</time>
      </trkpt>
      <trkpt lat="46.69198" lon="-1.91832">
        <ele>19.2</ele>
        <time>2020-06-03T16:31:15Z</time>
      </trkpt>
      <trkpt lat="46.69199" lon="-1.91824">
        <ele>19.2</ele>
        <time>2020-06-03T16:31:16Z</time>
      </trkpt>
      <trkpt lat="46.69199" lon="-1.91817">
        <ele>19.3</ele>
        <time>2020-06-03T16:31:17Z</time>
      </trkpt>
      <trkpt lat="46.69198" lon="-1.91811">
        <ele>19.3</ele>
        <time>2020-06-03T16:31:18Z</time>
      </trkpt>
      <trkpt lat="46.69198" lon="-1.91804">
        <ele>19.3</ele>
        <time>2020-06-03T16:31:19Z</time>
      </trkpt>
      <trkpt lat="46.69198" lon="-1.91796">
        <ele>19.3</ele>
        <time>2020-06-03T16:31:20Z</time>
      </trkpt>
      <trkpt lat="46.69198" lon="-1.91789">
        <ele>19.3</ele>
        <time>2020-06-03T16:31:21Z</time>
      </trkpt>
      <trkpt lat="46.69198" lon="-1.91782">
        <ele>19.3</ele>
        <time>2020-06-03T16:31:22Z</time>
      </trkpt>
      <trkpt lat="46.69198" lon="-1.91776">
        <ele>19.3</ele>
        <time>2020-06-03T16:31:23Z</time>
      </trkpt>
      <trkpt lat="46.69198" lon="-1.9177">
        <ele>19.3</ele>
        <time>2020-06-03T16:31:24Z</time>
      </trkpt>
      <trkpt lat="46.69197" lon="-1.91762">
        <ele>19.4</ele>
        <time>2020-06-03T16:31:25Z</time>
      </trkpt>
      <trkpt lat="46.69197" lon="-1.91755">
        <ele>19.4</ele>
        <time>2020-06-03T16:31:26Z</time>
      </trkpt>
      <trkpt lat="46.69196" lon="-1.91746">
        <ele>19.4</ele>
        <time>2020-06-03T16:31:27Z</time>
      </trkpt>
      <trkpt lat="46.69195" lon="-1.91738">
        <ele>19.4</ele>
        <time>2020-06-03T16:31:28Z</time>
      </trkpt>
      <trkpt lat="46.69194" lon="-1.9173">
        <ele>19.4</ele>
        <time>2020-06-03T16:31:29Z</time>
      </trkpt>
      <trkpt lat="46.69193" lon="-1.91723">
        <ele>19.4</ele>
        <time>2020-06-03T16:31:30Z</time>
      </trkpt>
      <trkpt lat="46.69192" lon="-1.91716">
        <ele>19.4</ele>
        <time>2020-06-03T16:31:31Z</time>
      </trkpt>
      <trkpt lat="46.6919" lon="-1.91709">
        <ele>19.4</ele>
        <time>2020-06-03T16:31:32Z</time>
      </trkpt>
      <trkpt lat="46.69189" lon="-1.91702">
        <ele>19.4</ele>
        <time>2020-06-03T16:31:33Z</time>
      </trkpt>
      <trkpt lat="46.69188" lon="-1.91694">
        <ele>19.4</ele>
        <time>2020-06-03T16:31:34Z</time>
      </trkpt>
      <trkpt lat="46.69186" lon="-1.91688">
        <ele>19.3</ele>
        <time>2020-06-03T16:31:35Z</time>
      </trkpt>
      <trkpt lat="46.69186" lon="-1.91681">
        <ele>19.3</ele>
        <time>2020-06-03T16:31:36Z</time>
      </trkpt>
      <trkpt lat="46.69184" lon="-1.91674">
        <ele>19.3</ele>
        <time>2020-06-03T16:31:37Z</time>
      </trkpt>
      <trkpt lat="46.69182" lon="-1.91668">
        <ele>19.2</ele>
        <time>2020-06-03T16:31:38Z</time>
      </trkpt>
      <trkpt lat="46.6918" lon="-1.91661">
        <ele>19.2</ele>
        <time>2020-06-03T16:31:39Z</time>
      </trkpt>
      <trkpt lat="46.69177" lon="-1.91654">
        <ele>19.2</ele>
        <time>2020-06-03T16:31:40Z</time>
      </trkpt>
      <trkpt lat="46.69176" lon="-1.91646">
        <ele>19.1</ele>
        <time>2020-06-03T16:31:41Z</time>
      </trkpt>
      <trkpt lat="46.69174" lon="-1.91639">
        <ele>19.1</ele>
        <time>2020-06-03T16:31:42Z</time>
      </trkpt>
      <trkpt lat="46.69171" lon="-1.91632">
        <ele>19.1</ele>
        <time>2020-06-03T16:31:43Z</time>
      </trkpt>
      <trkpt lat="46.6917" lon="-1.91626">
        <ele>19.1</ele>
        <time>2020-06-03T16:31:44Z</time>
      </trkpt>
      <trkpt lat="46.69168" lon="-1.91619">
        <ele>19.1</ele>
        <time>2020-06-03T16:31:45Z</time>
      </trkpt>
      <trkpt lat="46.69166" lon="-1.91612">
        <ele>19.1</ele>
        <time>2020-06-03T16:31:46Z</time>
      </trkpt>
      <trkpt lat="46.69163" lon="-1.91604">
        <ele>19</ele>
        <time>2020-06-03T16:31:47Z</time>
      </trkpt>
      <trkpt lat="46.69161" lon="-1.91596">
        <ele>18.9</ele>
        <time>2020-06-03T16:31:48Z</time>
      </trkpt>
      <trkpt lat="46.69159" lon="-1.91588">
        <ele>18.8</ele>
        <time>2020-06-03T16:31:49Z</time>
      </trkpt>
      <trkpt lat="46.69157" lon="-1.9158">
        <ele>18.7</ele>
        <time>2020-06-03T16:31:50Z</time>
      </trkpt>
      <trkpt lat="46.69155" lon="-1.91572">
        <ele>18.6</ele>
        <time>2020-06-03T16:31:51Z</time>
      </trkpt>
      <trkpt lat="46.69153" lon="-1.91565">
        <ele>18.5</ele>
        <time>2020-06-03T16:31:52Z</time>
      </trkpt>
      <trkpt lat="46.69151" lon="-1.91557">
        <ele>18.5</ele>
        <time>2020-06-03T16:31:53Z</time>
      </trkpt>
      <trkpt lat="46.6915" lon="-1.91549">
        <ele>18.4</ele>
        <time>2020-06-03T16:31:54Z</time>
      </trkpt>
      <trkpt lat="46.69148" lon="-1.91541">
        <ele>18.3</ele>
        <time>2020-06-03T16:31:55Z</time>
      </trkpt>
      <trkpt lat="46.69147" lon="-1.91533">
        <ele>18.3</ele>
        <time>2020-06-03T16:31:56Z</time>
      </trkpt>
      <trkpt lat="46.69146" lon="-1.91526">
        <ele>18.2</ele>
        <time>2020-06-03T16:31:57Z</time>
      </trkpt>
      <trkpt lat="46.69144" lon="-1.91519">
        <ele>18.2</ele>
        <time>2020-06-03T16:31:58Z</time>
      </trkpt>
      <trkpt lat="46.69143" lon="-1.91512">
        <ele>18.1</ele>
        <time>2020-06-03T16:31:59Z</time>
      </trkpt>
      <trkpt lat="46.69141" lon="-1.91505">
        <ele>18.1</ele>
        <time>2020-06-03T16:32:00Z</time>
      </trkpt>
      <trkpt lat="46.6914" lon="-1.91498">
        <ele>18</ele>
        <time>2020-06-03T16:32:01Z</time>
      </trkpt>
      <trkpt lat="46.69139" lon="-1.91492">
        <ele>18</ele>
        <time>2020-06-03T16:32:02Z</time>
      </trkpt>
      <trkpt lat="46.69139" lon="-1.91487">
        <ele>18</ele>
        <time>2020-06-03T16:32:03Z</time>
      </trkpt>
      <trkpt lat="46.69137" lon="-1.91484">
        <ele>17.9</ele>
        <time>2020-06-03T16:32:04Z</time>
      </trkpt>
      <trkpt lat="46.69136" lon="-1.91479">
        <ele>17.9</ele>
        <time>2020-06-03T16:32:05Z</time>
      </trkpt>
      <trkpt lat="46.69136" lon="-1.91478">
        <ele>17.9</ele>
        <time>2020-06-03T16:32:06Z</time>
      </trkpt>
      <trkpt lat="46.69135" lon="-1.91476">
        <ele>17.9</ele>
        <time>2020-06-03T16:32:07Z</time>
      </trkpt>
      <trkpt lat="46.69136" lon="-1.91475">
        <ele>17.9</ele>
        <time>2020-06-03T16:32:08Z</time>
      </trkpt>
      <trkpt lat="46.69136" lon="-1.91474">
        <ele>17.9</ele>
        <time>2020-06-03T16:32:09Z</time>
      </trkpt>
      <trkpt lat="46.69136" lon="-1.91473">
        <ele>17.9</ele>
        <time>2020-06-03T16:32:10Z</time>
      </trkpt>
      <trkpt lat="46.69136" lon="-1.91472">
        <ele>17.9</ele>
        <time>2020-06-03T16:32:11Z</time>
      </trkpt>
      <trkpt lat="46.6914" lon="-1.9147">
        <ele>17.8</ele>
        <time>2020-06-03T16:32:12Z</time>
      </trkpt>
      <trkpt lat="46.69141" lon="-1.9147">
        <ele>17.8</ele>
        <time>2020-06-03T16:32:13Z</time>
      </trkpt>
      <trkpt lat="46.69144" lon="-1.91468">
        <ele>17.7</ele>
        <time>2020-06-03T16:32:14Z</time>
      </trkpt>
      <trkpt lat="46.69147" lon="-1.91467">
        <ele>17.7</ele>
        <time>2020-06-03T16:32:15Z</time>
      </trkpt>
      <trkpt lat="46.6915" lon="-1.91464">
        <ele>17.6</ele>
        <time>2020-06-03T16:32:16Z</time>
      </trkpt>
      <trkpt lat="46.69154" lon="-1.91462">
        <ele>17.5</ele>
        <time>2020-06-03T16:32:17Z</time>
      </trkpt>
      <trkpt lat="46.69158" lon="-1.91459">
        <ele>17.5</ele>
        <time>2020-06-03T16:32:18Z</time>
      </trkpt>
      <trkpt lat="46.69161" lon="-1.91455">
        <ele>17.4</ele>
        <time>2020-06-03T16:32:19Z</time>
      </trkpt>
      <trkpt lat="46.69165" lon="-1.91453">
        <ele>17.3</ele>
        <time>2020-06-03T16:32:20Z</time>
      </trkpt>
      <trkpt lat="46.69171" lon="-1.91451">
        <ele>17.2</ele>
        <time>2020-06-03T16:32:21Z</time>
      </trkpt>
      <trkpt lat="46.69175" lon="-1.91448">
        <ele>17.1</ele>
        <time>2020-06-03T16:32:22Z</time>
      </trkpt>
      <trkpt lat="46.6918" lon="-1.91445">
        <ele>17</ele>
        <time>2020-06-03T16:32:23Z</time>
      </trkpt>
      <trkpt lat="46.69185" lon="-1.91442">
        <ele>16.9</ele>
        <time>2020-06-03T16:32:24Z</time>
      </trkpt>
      <trkpt lat="46.6919" lon="-1.9144">
        <ele>16.8</ele>
        <time>2020-06-03T16:32:25Z</time>
      </trkpt>
      <trkpt lat="46.69196" lon="-1.91437">
        <ele>16.7</ele>
        <time>2020-06-03T16:32:26Z</time>
      </trkpt>
      <trkpt lat="46.69202" lon="-1.91434">
        <ele>16.6</ele>
        <time>2020-06-03T16:32:27Z</time>
      </trkpt>
      <trkpt lat="46.69207" lon="-1.91431">
        <ele>16.5</ele>
        <time>2020-06-03T16:32:28Z</time>
      </trkpt>
      <trkpt lat="46.69213" lon="-1.91428">
        <ele>16.5</ele>
        <time>2020-06-03T16:32:29Z</time>
      </trkpt>
      <trkpt lat="46.69218" lon="-1.91426">
        <ele>16.4</ele>
        <time>2020-06-03T16:32:30Z</time>
      </trkpt>
      <trkpt lat="46.69224" lon="-1.91425">
        <ele>16.4</ele>
        <time>2020-06-03T16:32:31Z</time>
      </trkpt>
      <trkpt lat="46.69229" lon="-1.91421">
        <ele>16.4</ele>
        <time>2020-06-03T16:32:32Z</time>
      </trkpt>
      <trkpt lat="46.69235" lon="-1.91418">
        <ele>16.4</ele>
        <time>2020-06-03T16:32:33Z</time>
      </trkpt>
      <trkpt lat="46.6924" lon="-1.91415">
        <ele>16.3</ele>
        <time>2020-06-03T16:32:34Z</time>
      </trkpt>
      <trkpt lat="46.69246" lon="-1.91413">
        <ele>16.3</ele>
        <time>2020-06-03T16:32:35Z</time>
      </trkpt>
      <trkpt lat="46.6925" lon="-1.9141">
        <ele>16.2</ele>
        <time>2020-06-03T16:32:36Z</time>
      </trkpt>
      <trkpt lat="46.69255" lon="-1.91406">
        <ele>16.2</ele>
        <time>2020-06-03T16:32:37Z</time>
      </trkpt>
      <trkpt lat="46.69258" lon="-1.91403">
        <ele>16.2</ele>
        <time>2020-06-03T16:32:38Z</time>
      </trkpt>
      <trkpt lat="46.69261" lon="-1.91399">
        <ele>16.2</ele>
        <time>2020-06-03T16:32:39Z</time>
      </trkpt>
      <trkpt lat="46.69263" lon="-1.91397">
        <ele>16.2</ele>
        <time>2020-06-03T16:32:40Z</time>
      </trkpt>
      <trkpt lat="46.69262" lon="-1.91396">
        <ele>16.2</ele>
        <time>2020-06-03T16:32:41Z</time>
      </trkpt>
      <trkpt lat="46.69262" lon="-1.91395">
        <ele>16.2</ele>
        <time>2020-06-03T16:32:42Z</time>
      </trkpt>
      <trkpt lat="46.69261" lon="-1.91393">
        <ele>16.2</ele>
        <time>2020-06-03T16:32:43Z</time>
      </trkpt>
      <trkpt lat="46.69262" lon="-1.91392">
        <ele>16.2</ele>
        <time>2020-06-03T16:32:44Z</time>
      </trkpt>
      <trkpt lat="46.69262" lon="-1.9139">
        <ele>16.2</ele>
        <time>2020-06-03T16:32:45Z</time>
      </trkpt>
      <trkpt lat="46.69262" lon="-1.91389">
        <ele>16.2</ele>
        <time>2020-06-03T16:32:46Z</time>
      </trkpt>
      <trkpt lat="46.69263" lon="-1.91385">
        <ele>16.2</ele>
        <time>2020-06-03T16:32:47Z</time>
      </trkpt>
      <trkpt lat="46.69264" lon="-1.91381">
        <ele>16.2</ele>
        <time>2020-06-03T16:32:48Z</time>
      </trkpt>
      <trkpt lat="46.69266" lon="-1.91375">
        <ele>16.5</ele>
        <time>2020-06-03T16:32:49Z</time>
      </trkpt>
      <trkpt lat="46.69268" lon="-1.9137">
        <ele>16.5</ele>
        <time>2020-06-03T16:32:50Z</time>
      </trkpt>
      <trkpt lat="46.69271" lon="-1.91367">
        <ele>16.4</ele>
        <time>2020-06-03T16:32:51Z</time>
      </trkpt>
      <trkpt lat="46.69275" lon="-1.91365">
        <ele>16.5</ele>
        <time>2020-06-03T16:32:52Z</time>
      </trkpt>
      <trkpt lat="46.6928" lon="-1.91365">
        <ele>16.5</ele>
        <time>2020-06-03T16:32:53Z</time>
      </trkpt>
      <trkpt lat="46.69286" lon="-1.91368">
        <ele>16.5</ele>
        <time>2020-06-03T16:32:54Z</time>
      </trkpt>
      <trkpt lat="46.69291" lon="-1.91371">
        <ele>16.6</ele>
        <time>2020-06-03T16:32:55Z</time>
      </trkpt>
      <trkpt lat="46.69296" lon="-1.91372">
        <ele>16.6</ele>
        <time>2020-06-03T16:32:56Z</time>
      </trkpt>
      <trkpt lat="46.69301" lon="-1.91374">
        <ele>16.6</ele>
        <time>2020-06-03T16:32:57Z</time>
      </trkpt>
      <trkpt lat="46.69306" lon="-1.91375">
        <ele>16.6</ele>
        <time>2020-06-03T16:32:58Z</time>
      </trkpt>
      <trkpt lat="46.69311" lon="-1.91376">
        <ele>16.6</ele>
        <time>2020-06-03T16:32:59Z</time>
      </trkpt>
      <trkpt lat="46.69316" lon="-1.91377">
        <ele>16.6</ele>
        <time>2020-06-03T16:33:00Z</time>
      </trkpt>
      <trkpt lat="46.69321" lon="-1.91378">
        <ele>16.7</ele>
        <time>2020-06-03T16:33:01Z</time>
      </trkpt>
      <trkpt lat="46.69326" lon="-1.91379">
        <ele>16.7</ele>
        <time>2020-06-03T16:33:02Z</time>
      </trkpt>
      <trkpt lat="46.69331" lon="-1.9138">
        <ele>16.7</ele>
        <time>2020-06-03T16:33:03Z</time>
      </trkpt>
      <trkpt lat="46.69336" lon="-1.91381">
        <ele>16.7</ele>
        <time>2020-06-03T16:33:04Z</time>
      </trkpt>
      <trkpt lat="46.69341" lon="-1.91382">
        <ele>16.8</ele>
        <time>2020-06-03T16:33:05Z</time>
      </trkpt>
      <trkpt lat="46.69346" lon="-1.91382">
        <ele>16.8</ele>
        <time>2020-06-03T16:33:06Z</time>
      </trkpt>
      <trkpt lat="46.69351" lon="-1.91385">
        <ele>16.8</ele>
        <time>2020-06-03T16:33:07Z</time>
      </trkpt>
      <trkpt lat="46.69355" lon="-1.91386">
        <ele>16.8</ele>
        <time>2020-06-03T16:33:08Z</time>
      </trkpt>
      <trkpt lat="46.69359" lon="-1.91387">
        <ele>16.7</ele>
        <time>2020-06-03T16:33:09Z</time>
      </trkpt>
      <trkpt lat="46.69364" lon="-1.91387">
        <ele>16.6</ele>
        <time>2020-06-03T16:33:10Z</time>
      </trkpt>
      <trkpt lat="46.69368" lon="-1.91388">
        <ele>16.6</ele>
        <time>2020-06-03T16:33:11Z</time>
      </trkpt>
      <trkpt lat="46.69373" lon="-1.91389">
        <ele>16.5</ele>
        <time>2020-06-03T16:33:12Z</time>
      </trkpt>
      <trkpt lat="46.69378" lon="-1.9139">
        <ele>16.4</ele>
        <time>2020-06-03T16:33:13Z</time>
      </trkpt>
      <trkpt lat="46.69383" lon="-1.91391">
        <ele>16.3</ele>
        <time>2020-06-03T16:33:14Z</time>
      </trkpt>
      <trkpt lat="46.69389" lon="-1.91391">
        <ele>16.2</ele>
        <time>2020-06-03T16:33:15Z</time>
      </trkpt>
      <trkpt lat="46.69393" lon="-1.91393">
        <ele>16.1</ele>
        <time>2020-06-03T16:33:16Z</time>
      </trkpt>
      <trkpt lat="46.69398" lon="-1.91394">
        <ele>16</ele>
        <time>2020-06-03T16:33:17Z</time>
      </trkpt>
      <trkpt lat="46.69403" lon="-1.91396">
        <ele>15.9</ele>
        <time>2020-06-03T16:33:18Z</time>
      </trkpt>
      <trkpt lat="46.69407" lon="-1.91397">
        <ele>15.8</ele>
        <time>2020-06-03T16:33:19Z</time>
      </trkpt>
      <trkpt lat="46.69412" lon="-1.91398">
        <ele>15.7</ele>
        <time>2020-06-03T16:33:20Z</time>
      </trkpt>
      <trkpt lat="46.69416" lon="-1.914">
        <ele>15.6</ele>
        <time>2020-06-03T16:33:21Z</time>
      </trkpt>
      <trkpt lat="46.69421" lon="-1.91402">
        <ele>15.5</ele>
        <time>2020-06-03T16:33:22Z</time>
      </trkpt>
      <trkpt lat="46.69425" lon="-1.91403">
        <ele>15.4</ele>
        <time>2020-06-03T16:33:23Z</time>
      </trkpt>
      <trkpt lat="46.6943" lon="-1.91404">
        <ele>15.3</ele>
        <time>2020-06-03T16:33:24Z</time>
      </trkpt>
      <trkpt lat="46.69434" lon="-1.91404">
        <ele>15.1</ele>
        <time>2020-06-03T16:33:25Z</time>
      </trkpt>
      <trkpt lat="46.69437" lon="-1.914">
        <ele>15</ele>
        <time>2020-06-03T16:33:26Z</time>
      </trkpt>
      <trkpt lat="46.69441" lon="-1.91396">
        <ele>14.9</ele>
        <time>2020-06-03T16:33:27Z</time>
      </trkpt>
      <trkpt lat="46.69444" lon="-1.91391">
        <ele>14.8</ele>
        <time>2020-06-03T16:33:28Z</time>
      </trkpt>
      <trkpt lat="46.69447" lon="-1.91386">
        <ele>14.7</ele>
        <time>2020-06-03T16:33:29Z</time>
      </trkpt>
      <trkpt lat="46.69451" lon="-1.91381">
        <ele>14.6</ele>
        <time>2020-06-03T16:33:30Z</time>
      </trkpt>
      <trkpt lat="46.69455" lon="-1.91378">
        <ele>14.4</ele>
        <time>2020-06-03T16:33:31Z</time>
      </trkpt>
      <trkpt lat="46.6946" lon="-1.91375">
        <ele>14.1</ele>
        <time>2020-06-03T16:33:32Z</time>
      </trkpt>
      <trkpt lat="46.69464" lon="-1.91373">
        <ele>13.8</ele>
        <time>2020-06-03T16:33:33Z</time>
      </trkpt>
      <trkpt lat="46.69469" lon="-1.91372">
        <ele>13.7</ele>
        <time>2020-06-03T16:33:34Z</time>
      </trkpt>
      <trkpt lat="46.69475" lon="-1.91372">
        <ele>13.7</ele>
        <time>2020-06-03T16:33:35Z</time>
      </trkpt>
      <trkpt lat="46.6948" lon="-1.91374">
        <ele>13.6</ele>
        <time>2020-06-03T16:33:36Z</time>
      </trkpt>
      <trkpt lat="46.69486" lon="-1.91376">
        <ele>13.5</ele>
        <time>2020-06-03T16:33:37Z</time>
      </trkpt>
      <trkpt lat="46.6949" lon="-1.91379">
        <ele>13.4</ele>
        <time>2020-06-03T16:33:38Z</time>
      </trkpt>
      <trkpt lat="46.69496" lon="-1.91381">
        <ele>13.2</ele>
        <time>2020-06-03T16:33:39Z</time>
      </trkpt>
      <trkpt lat="46.69502" lon="-1.91382">
        <ele>13.1</ele>
        <time>2020-06-03T16:33:40Z</time>
      </trkpt>
      <trkpt lat="46.69506" lon="-1.91383">
        <ele>12.9</ele>
        <time>2020-06-03T16:33:41Z</time>
      </trkpt>
      <trkpt lat="46.69511" lon="-1.91384">
        <ele>12.7</ele>
        <time>2020-06-03T16:33:42Z</time>
      </trkpt>
      <trkpt lat="46.69516" lon="-1.91385">
        <ele>12.6</ele>
        <time>2020-06-03T16:33:43Z</time>
      </trkpt>
      <trkpt lat="46.69521" lon="-1.91386">
        <ele>12.5</ele>
        <time>2020-06-03T16:33:44Z</time>
      </trkpt>
      <trkpt lat="46.69525" lon="-1.91386">
        <ele>12.4</ele>
        <time>2020-06-03T16:33:45Z</time>
      </trkpt>
      <trkpt lat="46.6953" lon="-1.91386">
        <ele>12.4</ele>
        <time>2020-06-03T16:33:46Z</time>
      </trkpt>
      <trkpt lat="46.69535" lon="-1.91385">
        <ele>12.3</ele>
        <time>2020-06-03T16:33:47Z</time>
      </trkpt>
      <trkpt lat="46.6954" lon="-1.91385">
        <ele>12.2</ele>
        <time>2020-06-03T16:33:48Z</time>
      </trkpt>
      <trkpt lat="46.69544" lon="-1.91384">
        <ele>12.2</ele>
        <time>2020-06-03T16:33:49Z</time>
      </trkpt>
      <trkpt lat="46.69549" lon="-1.91384">
        <ele>12.1</ele>
        <time>2020-06-03T16:33:50Z</time>
      </trkpt>
      <trkpt lat="46.69553" lon="-1.91384">
        <ele>12</ele>
        <time>2020-06-03T16:33:51Z</time>
      </trkpt>
      <trkpt lat="46.69557" lon="-1.91384">
        <ele>11.8</ele>
        <time>2020-06-03T16:33:52Z</time>
      </trkpt>
      <trkpt lat="46.69561" lon="-1.91382">
        <ele>11.6</ele>
        <time>2020-06-03T16:33:53Z</time>
      </trkpt>
      <trkpt lat="46.69565" lon="-1.91378">
        <ele>11.4</ele>
        <time>2020-06-03T16:33:54Z</time>
      </trkpt>
      <trkpt lat="46.6957" lon="-1.91375">
        <ele>11.2</ele>
        <time>2020-06-03T16:33:55Z</time>
      </trkpt>
      <trkpt lat="46.69575" lon="-1.91372">
        <ele>11</ele>
        <time>2020-06-03T16:33:56Z</time>
      </trkpt>
      <trkpt lat="46.6958" lon="-1.91371">
        <ele>10.9</ele>
        <time>2020-06-03T16:33:57Z</time>
      </trkpt>
      <trkpt lat="46.69584" lon="-1.91369">
        <ele>10.8</ele>
        <time>2020-06-03T16:33:58Z</time>
      </trkpt>
      <trkpt lat="46.69588" lon="-1.91367">
        <ele>10.4</ele>
        <time>2020-06-03T16:33:59Z</time>
      </trkpt>
      <trkpt lat="46.69592" lon="-1.91362">
        <ele>10.3</ele>
        <time>2020-06-03T16:34:00Z</time>
      </trkpt>
      <trkpt lat="46.69595" lon="-1.91358">
        <ele>10.1</ele>
        <time>2020-06-03T16:34:01Z</time>
      </trkpt>
      <trkpt lat="46.69598" lon="-1.91354">
        <ele>9.8</ele>
        <time>2020-06-03T16:34:02Z</time>
      </trkpt>
      <trkpt lat="46.69602" lon="-1.91351">
        <ele>9.7</ele>
        <time>2020-06-03T16:34:03Z</time>
      </trkpt>
      <trkpt lat="46.69606" lon="-1.91349">
        <ele>9.6</ele>
        <time>2020-06-03T16:34:04Z</time>
      </trkpt>
      <trkpt lat="46.6961" lon="-1.91349">
        <ele>9.4</ele>
        <time>2020-06-03T16:34:05Z</time>
      </trkpt>
      <trkpt lat="46.69614" lon="-1.91348">
        <ele>9.3</ele>
        <time>2020-06-03T16:34:06Z</time>
      </trkpt>
      <trkpt lat="46.69618" lon="-1.91348">
        <ele>9.2</ele>
        <time>2020-06-03T16:34:07Z</time>
      </trkpt>
      <trkpt lat="46.69623" lon="-1.91348">
        <ele>9</ele>
        <time>2020-06-03T16:34:08Z</time>
      </trkpt>
      <trkpt lat="46.69628" lon="-1.91348">
        <ele>8.9</ele>
        <time>2020-06-03T16:34:09Z</time>
      </trkpt>
      <trkpt lat="46.69632" lon="-1.91348">
        <ele>8.8</ele>
        <time>2020-06-03T16:34:10Z</time>
      </trkpt>
      <trkpt lat="46.69637" lon="-1.91347">
        <ele>8.7</ele>
        <time>2020-06-03T16:34:11Z</time>
      </trkpt>
      <trkpt lat="46.69642" lon="-1.91347">
        <ele>8.5</ele>
        <time>2020-06-03T16:34:12Z</time>
      </trkpt>
      <trkpt lat="46.69647" lon="-1.91346">
        <ele>8.4</ele>
        <time>2020-06-03T16:34:13Z</time>
      </trkpt>
      <trkpt lat="46.69651" lon="-1.91345">
        <ele>8.3</ele>
        <time>2020-06-03T16:34:14Z</time>
      </trkpt>
      <trkpt lat="46.69656" lon="-1.91345">
        <ele>8.2</ele>
        <time>2020-06-03T16:34:15Z</time>
      </trkpt>
      <trkpt lat="46.6966" lon="-1.91344">
        <ele>8.2</ele>
        <time>2020-06-03T16:34:16Z</time>
      </trkpt>
      <trkpt lat="46.69665" lon="-1.91344">
        <ele>8.1</ele>
        <time>2020-06-03T16:34:17Z</time>
      </trkpt>
      <trkpt lat="46.6967" lon="-1.91344">
        <ele>8</ele>
        <time>2020-06-03T16:34:18Z</time>
      </trkpt>
      <trkpt lat="46.69675" lon="-1.91343">
        <ele>8</ele>
        <time>2020-06-03T16:34:19Z</time>
      </trkpt>
      <trkpt lat="46.6968" lon="-1.91343">
        <ele>7.9</ele>
        <time>2020-06-03T16:34:20Z</time>
      </trkpt>
      <trkpt lat="46.69685" lon="-1.91343">
        <ele>7.9</ele>
        <time>2020-06-03T16:34:21Z</time>
      </trkpt>
      <trkpt lat="46.6969" lon="-1.91344">
        <ele>7.9</ele>
        <time>2020-06-03T16:34:22Z</time>
      </trkpt>
      <trkpt lat="46.69695" lon="-1.91345">
        <ele>7.9</ele>
        <time>2020-06-03T16:34:23Z</time>
      </trkpt>
      <trkpt lat="46.69699" lon="-1.91345">
        <ele>7.9</ele>
        <time>2020-06-03T16:34:24Z</time>
      </trkpt>
      <trkpt lat="46.69703" lon="-1.91345">
        <ele>7.9</ele>
        <time>2020-06-03T16:34:25Z</time>
      </trkpt>
      <trkpt lat="46.69706" lon="-1.91346">
        <ele>7.9</ele>
        <time>2020-06-03T16:34:26Z</time>
      </trkpt>
      <trkpt lat="46.69709" lon="-1.91346">
        <ele>7.9</ele>
        <time>2020-06-03T16:34:27Z</time>
      </trkpt>
      <trkpt lat="46.69713" lon="-1.91346">
        <ele>7.9</ele>
        <time>2020-06-03T16:34:28Z</time>
      </trkpt>
      <trkpt lat="46.69716" lon="-1.91347">
        <ele>8.1</ele>
        <time>2020-06-03T16:34:29Z</time>
      </trkpt>
      <trkpt lat="46.6972" lon="-1.91348">
        <ele>8.2</ele>
        <time>2020-06-03T16:34:30Z</time>
      </trkpt>
      <trkpt lat="46.69722" lon="-1.91348">
        <ele>8.2</ele>
        <time>2020-06-03T16:34:31Z</time>
      </trkpt>
      <trkpt lat="46.69724" lon="-1.91345">
        <ele>8.2</ele>
        <time>2020-06-03T16:34:32Z</time>
      </trkpt>
      <trkpt lat="46.69726" lon="-1.9134">
        <ele>8.2</ele>
        <time>2020-06-03T16:34:33Z</time>
      </trkpt>
      <trkpt lat="46.69727" lon="-1.91338">
        <ele>8.2</ele>
        <time>2020-06-03T16:34:34Z</time>
      </trkpt>
      <trkpt lat="46.69728" lon="-1.91333">
        <ele>8.3</ele>
        <time>2020-06-03T16:34:35Z</time>
      </trkpt>
      <trkpt lat="46.6973" lon="-1.9133">
        <ele>8.3</ele>
        <time>2020-06-03T16:34:36Z</time>
      </trkpt>
      <trkpt lat="46.69732" lon="-1.91326">
        <ele>8.4</ele>
        <time>2020-06-03T16:34:37Z</time>
      </trkpt>
      <trkpt lat="46.69734" lon="-1.91323">
        <ele>8.4</ele>
        <time>2020-06-03T16:34:38Z</time>
      </trkpt>
      <trkpt lat="46.69736" lon="-1.91319">
        <ele>8.5</ele>
        <time>2020-06-03T16:34:39Z</time>
      </trkpt>
      <trkpt lat="46.69737" lon="-1.91314">
        <ele>8.5</ele>
        <time>2020-06-03T16:34:40Z</time>
      </trkpt>
      <trkpt lat="46.69738" lon="-1.91312">
        <ele>8.6</ele>
        <time>2020-06-03T16:34:41Z</time>
      </trkpt>
      <trkpt lat="46.69738" lon="-1.91308">
        <ele>8.6</ele>
        <time>2020-06-03T16:34:42Z</time>
      </trkpt>
      <trkpt lat="46.69739" lon="-1.91304">
        <ele>8.7</ele>
        <time>2020-06-03T16:34:43Z</time>
      </trkpt>
      <trkpt lat="46.6974" lon="-1.91299">
        <ele>8.7</ele>
        <time>2020-06-03T16:34:44Z</time>
      </trkpt>
      <trkpt lat="46.6974" lon="-1.91295">
        <ele>8.8</ele>
        <time>2020-06-03T16:34:45Z</time>
      </trkpt>
      <trkpt lat="46.69742" lon="-1.9129">
        <ele>8.9</ele>
        <time>2020-06-03T16:34:46Z</time>
      </trkpt>
      <trkpt lat="46.69742" lon="-1.91289">
        <ele>8.9</ele>
        <time>2020-06-03T16:34:47Z</time>
      </trkpt>
      <trkpt lat="46.69743" lon="-1.91287">
        <ele>8.9</ele>
        <time>2020-06-03T16:34:48Z</time>
      </trkpt>
      <trkpt lat="46.69744" lon="-1.91285">
        <ele>9.1</ele>
        <time>2020-06-03T16:34:49Z</time>
      </trkpt>
      <trkpt lat="46.69745" lon="-1.91283">
        <ele>9.1</ele>
        <time>2020-06-03T16:34:50Z</time>
      </trkpt>
      <trkpt lat="46.69746" lon="-1.91282">
        <ele>9.1</ele>
        <time>2020-06-03T16:34:51Z</time>
      </trkpt>
      <trkpt lat="46.69747" lon="-1.91282">
        <ele>9.3</ele>
        <time>2020-06-03T16:34:52Z</time>
      </trkpt>
      <trkpt lat="46.69749" lon="-1.91282">
        <ele>9.3</ele>
        <time>2020-06-03T16:34:53Z</time>
      </trkpt>
      <trkpt lat="46.69751" lon="-1.91282">
        <ele>9.4</ele>
        <time>2020-06-03T16:34:54Z</time>
      </trkpt>
      <trkpt lat="46.69752" lon="-1.91282">
        <ele>9.4</ele>
        <time>2020-06-03T16:34:55Z</time>
      </trkpt>
      <trkpt lat="46.69756" lon="-1.91283">
        <ele>9.4</ele>
        <time>2020-06-03T16:34:56Z</time>
      </trkpt>
      <trkpt lat="46.69756" lon="-1.91283">
        <ele>9.4</ele>
        <time>2020-06-03T16:34:57Z</time>
      </trkpt>
      <trkpt lat="46.69759" lon="-1.91285">
        <ele>9.5</ele>
        <time>2020-06-03T16:34:58Z</time>
      </trkpt>
      <trkpt lat="46.6976" lon="-1.91286">
        <ele>9.5</ele>
        <time>2020-06-03T16:34:59Z</time>
      </trkpt>
      <trkpt lat="46.69762" lon="-1.91289">
        <ele>9.4</ele>
        <time>2020-06-03T16:35:00Z</time>
      </trkpt>
      <trkpt lat="46.69765" lon="-1.91294">
        <ele>9.4</ele>
        <time>2020-06-03T16:35:01Z</time>
      </trkpt>
      <trkpt lat="46.69766" lon="-1.91295">
        <ele>9.4</ele>
        <time>2020-06-03T16:35:02Z</time>
      </trkpt>
      <trkpt lat="46.69767" lon="-1.91297">
        <ele>9.2</ele>
        <time>2020-06-03T16:35:03Z</time>
      </trkpt>
      <trkpt lat="46.69767" lon="-1.91298">
        <ele>9.3</ele>
        <time>2020-06-03T16:35:04Z</time>
      </trkpt>
      <trkpt lat="46.69768" lon="-1.91299">
        <ele>9.3</ele>
        <time>2020-06-03T16:35:05Z</time>
      </trkpt>
      <trkpt lat="46.69768" lon="-1.91299">
        <ele>9.3</ele>
        <time>2020-06-03T16:35:06Z</time>
      </trkpt>
      <trkpt lat="46.69767" lon="-1.91299">
        <ele>9.2</ele>
        <time>2020-06-03T16:35:07Z</time>
      </trkpt>
      <trkpt lat="46.69766" lon="-1.913">
        <ele>9.1</ele>
        <time>2020-06-03T16:35:08Z</time>
      </trkpt>
      <trkpt lat="46.69766" lon="-1.91299">
        <ele>9.3</ele>
        <time>2020-06-03T16:35:09Z</time>
      </trkpt>
      <trkpt lat="46.69766" lon="-1.913">
        <ele>9.1</ele>
        <time>2020-06-03T16:35:10Z</time>
      </trkpt>
      <trkpt lat="46.69765" lon="-1.91301">
        <ele>9.1</ele>
        <time>2020-06-03T16:35:11Z</time>
      </trkpt>
      <trkpt lat="46.69766" lon="-1.91306">
        <ele>9</ele>
        <time>2020-06-03T16:35:12Z</time>
      </trkpt>
      <trkpt lat="46.69767" lon="-1.91306">
        <ele>9</ele>
        <time>2020-06-03T16:35:13Z</time>
      </trkpt>
      <trkpt lat="46.69766" lon="-1.91307">
        <ele>9</ele>
        <time>2020-06-03T16:35:14Z</time>
      </trkpt>
      <trkpt lat="46.69766" lon="-1.91305">
        <ele>9</ele>
        <time>2020-06-03T16:35:15Z</time>
      </trkpt>
      <trkpt lat="46.69766" lon="-1.91304">
        <ele>9</ele>
        <time>2020-06-03T16:35:16Z</time>
      </trkpt>
      <trkpt lat="46.69768" lon="-1.91305">
        <ele>9</ele>
        <time>2020-06-03T16:35:17Z</time>
      </trkpt>
      <trkpt lat="46.69769" lon="-1.91307">
        <ele>9</ele>
        <time>2020-06-03T16:35:18Z</time>
      </trkpt>
      <trkpt lat="46.69769" lon="-1.91307">
        <ele>9</ele>
        <time>2020-06-03T16:35:19Z</time>
      </trkpt>
      <trkpt lat="46.69767" lon="-1.91306">
        <ele>9</ele>
        <time>2020-06-03T16:35:20Z</time>
      </trkpt>
      <trkpt lat="46.69767" lon="-1.91307">
        <ele>9.1</ele>
        <time>2020-06-03T16:35:21Z</time>
      </trkpt>
      <trkpt lat="46.69766" lon="-1.91308">
        <ele>9</ele>
        <time>2020-06-03T16:35:22Z</time>
      </trkpt>
      <trkpt lat="46.69766" lon="-1.91309">
        <ele>8.9</ele>
        <time>2020-06-03T16:35:23Z</time>
      </trkpt>
      <trkpt lat="46.69765" lon="-1.9131">
        <ele>8.9</ele>
        <time>2020-06-03T16:35:24Z</time>
      </trkpt>
      <trkpt lat="46.69765" lon="-1.9131">
        <ele>8.9</ele>
        <time>2020-06-03T16:35:25Z</time>
      </trkpt>
      <trkpt lat="46.69779" lon="-1.91303">
        <ele>9.4</ele>
        <time>2020-06-03T16:37:15Z</time>
      </trkpt>
      <trkpt lat="46.69779" lon="-1.91303">
        <ele>9.5</ele>
        <time>2020-06-03T16:37:16Z</time>
      </trkpt>
      <trkpt lat="46.69779" lon="-1.91303">
        <ele>9.5</ele>
        <time>2020-06-03T16:37:17Z</time>
      </trkpt>
      <trkpt lat="46.69779" lon="-1.91303">
        <ele>9.5</ele>
        <time>2020-06-03T16:37:18Z</time>
      </trkpt>
      <trkpt lat="46.69779" lon="-1.91303">
        <ele>9.5</ele>
        <time>2020-06-03T16:37:19Z</time>
      </trkpt>
      <trkpt lat="46.69779" lon="-1.91303">
        <ele>9.5</ele>
        <time>2020-06-03T16:37:20Z</time>
      </trkpt>
      <trkpt lat="46.69779" lon="-1.91303">
        <ele>9.5</ele>
        <time>2020-06-03T16:37:21Z</time>
      </trkpt>
      <trkpt lat="46.69779" lon="-1.91303">
        <ele>9.5</ele>
        <time>2020-06-03T16:37:22Z</time>
      </trkpt>
      <trkpt lat="46.69779" lon="-1.91303">
        <ele>9.5</ele>
        <time>2020-06-03T16:37:23Z</time>
      </trkpt>
      <trkpt lat="46.69779" lon="-1.91303">
        <ele>9.5</ele>
        <time>2020-06-03T16:37:24Z</time>
      </trkpt>
      <trkpt lat="46.6978" lon="-1.91302">
        <ele>9.5</ele>
        <time>2020-06-03T16:37:25Z</time>
      </trkpt>
      <trkpt lat="46.6978" lon="-1.91304">
        <ele>9.3</ele>
        <time>2020-06-03T16:37:26Z</time>
      </trkpt>
      <trkpt lat="46.6978" lon="-1.91305">
        <ele>9.3</ele>
        <time>2020-06-03T16:37:27Z</time>
      </trkpt>
      <trkpt lat="46.6978" lon="-1.91305">
        <ele>9.3</ele>
        <time>2020-06-03T16:37:28Z</time>
      </trkpt>
      <trkpt lat="46.69781" lon="-1.91306">
        <ele>9.3</ele>
        <time>2020-06-03T16:37:29Z</time>
      </trkpt>
      <trkpt lat="46.69782" lon="-1.91306">
        <ele>9.4</ele>
        <time>2020-06-03T16:37:30Z</time>
      </trkpt>
      <trkpt lat="46.69782" lon="-1.91305">
        <ele>9.4</ele>
        <time>2020-06-03T16:37:31Z</time>
      </trkpt>
      <trkpt lat="46.69782" lon="-1.91303">
        <ele>9.6</ele>
        <time>2020-06-03T16:37:32Z</time>
      </trkpt>
      <trkpt lat="46.69782" lon="-1.91302">
        <ele>9.6</ele>
        <time>2020-06-03T16:37:33Z</time>
      </trkpt>
      <trkpt lat="46.69783" lon="-1.91302">
        <ele>9.6</ele>
        <time>2020-06-03T16:37:34Z</time>
      </trkpt>
      <trkpt lat="46.69783" lon="-1.91302">
        <ele>9.6</ele>
        <time>2020-06-03T16:37:35Z</time>
      </trkpt>
      <trkpt lat="46.69783" lon="-1.91302">
        <ele>9.6</ele>
        <time>2020-06-03T16:37:36Z</time>
      </trkpt>
      <trkpt lat="46.69783" lon="-1.91302">
        <ele>9.6</ele>
        <time>2020-06-03T16:37:37Z</time>
      </trkpt>
      <trkpt lat="46.69783" lon="-1.91302">
        <ele>9.6</ele>
        <time>2020-06-03T16:37:38Z</time>
      </trkpt>
      <trkpt lat="46.69783" lon="-1.91302">
        <ele>9.6</ele>
        <time>2020-06-03T16:37:39Z</time>
      </trkpt>
      <trkpt lat="46.69783" lon="-1.91302">
        <ele>9.6</ele>
        <time>2020-06-03T16:37:40Z</time>
      </trkpt>
      <trkpt lat="46.69783" lon="-1.91302">
        <ele>9.6</ele>
        <time>2020-06-03T16:37:41Z</time>
      </trkpt>
      <trkpt lat="46.69756" lon="-1.91302">
        <ele>9.1</ele>
        <time>2020-06-03T17:08:47Z</time>
      </trkpt>
      <trkpt lat="46.69756" lon="-1.91301">
        <ele>9.1</ele>
        <time>2020-06-03T17:08:48Z</time>
      </trkpt>
      <trkpt lat="46.69757" lon="-1.91302">
        <ele>9.2</ele>
        <time>2020-06-03T17:08:49Z</time>
      </trkpt>
      <trkpt lat="46.69758" lon="-1.91301">
        <ele>9.2</ele>
        <time>2020-06-03T17:08:50Z</time>
      </trkpt>
      <trkpt lat="46.69759" lon="-1.913">
        <ele>9.2</ele>
        <time>2020-06-03T17:08:51Z</time>
      </trkpt>
      <trkpt lat="46.69759" lon="-1.91299">
        <ele>9.4</ele>
        <time>2020-06-03T17:08:52Z</time>
      </trkpt>
      <trkpt lat="46.69759" lon="-1.91299">
        <ele>9.4</ele>
        <time>2020-06-03T17:08:53Z</time>
      </trkpt>
      <trkpt lat="46.6976" lon="-1.91299">
        <ele>9.4</ele>
        <time>2020-06-03T17:08:54Z</time>
      </trkpt>
      <trkpt lat="46.6976" lon="-1.91298">
        <ele>9.4</ele>
        <time>2020-06-03T17:08:55Z</time>
      </trkpt>
      <trkpt lat="46.6976" lon="-1.91298">
        <ele>9.4</ele>
        <time>2020-06-03T17:08:56Z</time>
      </trkpt>
      <trkpt lat="46.69759" lon="-1.91299">
        <ele>9.4</ele>
        <time>2020-06-03T17:08:57Z</time>
      </trkpt>
      <trkpt lat="46.69752" lon="-1.91275">
        <ele>9.9</ele>
        <time>2020-06-03T17:09:09Z</time>
      </trkpt>
      <trkpt lat="46.69751" lon="-1.91275">
        <ele>9.9</ele>
        <time>2020-06-03T17:09:10Z</time>
      </trkpt>
      <trkpt lat="46.69749" lon="-1.91274">
        <ele>10</ele>
        <time>2020-06-03T17:09:11Z</time>
      </trkpt>
      <trkpt lat="46.69748" lon="-1.91272">
        <ele>9.9</ele>
        <time>2020-06-03T17:09:12Z</time>
      </trkpt>
      <trkpt lat="46.69747" lon="-1.91271">
        <ele>9.9</ele>
        <time>2020-06-03T17:09:13Z</time>
      </trkpt>
      <trkpt lat="46.69746" lon="-1.9127">
        <ele>9.8</ele>
        <time>2020-06-03T17:09:14Z</time>
      </trkpt>
      <trkpt lat="46.69744" lon="-1.91267">
        <ele>10</ele>
        <time>2020-06-03T17:09:15Z</time>
      </trkpt>
      <trkpt lat="46.69743" lon="-1.91266">
        <ele>9.9</ele>
        <time>2020-06-03T17:09:16Z</time>
      </trkpt>
      <trkpt lat="46.69741" lon="-1.91263">
        <ele>10</ele>
        <time>2020-06-03T17:09:17Z</time>
      </trkpt>
      <trkpt lat="46.69739" lon="-1.9126">
        <ele>10.1</ele>
        <time>2020-06-03T17:09:18Z</time>
      </trkpt>
      <trkpt lat="46.69738" lon="-1.91259">
        <ele>10.1</ele>
        <time>2020-06-03T17:09:19Z</time>
      </trkpt>
      <trkpt lat="46.69737" lon="-1.91255">
        <ele>10.1</ele>
        <time>2020-06-03T17:09:20Z</time>
      </trkpt>
      <trkpt lat="46.69736" lon="-1.91254">
        <ele>10.1</ele>
        <time>2020-06-03T17:09:21Z</time>
      </trkpt>
      <trkpt lat="46.69736" lon="-1.91249">
        <ele>10.3</ele>
        <time>2020-06-03T17:09:22Z</time>
      </trkpt>
      <trkpt lat="46.69736" lon="-1.91248">
        <ele>10.3</ele>
        <time>2020-06-03T17:09:23Z</time>
      </trkpt>
      <trkpt lat="46.69735" lon="-1.91246">
        <ele>10.4</ele>
        <time>2020-06-03T17:09:24Z</time>
      </trkpt>
      <trkpt lat="46.69734" lon="-1.91244">
        <ele>10.3</ele>
        <time>2020-06-03T17:09:25Z</time>
      </trkpt>
      <trkpt lat="46.69734" lon="-1.9124">
        <ele>10.4</ele>
        <time>2020-06-03T17:09:26Z</time>
      </trkpt>
      <trkpt lat="46.69733" lon="-1.91239">
        <ele>10.5</ele>
        <time>2020-06-03T17:09:27Z</time>
      </trkpt>
      <trkpt lat="46.69733" lon="-1.91236">
        <ele>10.6</ele>
        <time>2020-06-03T17:09:28Z</time>
      </trkpt>
      <trkpt lat="46.69733" lon="-1.91234">
        <ele>10.7</ele>
        <time>2020-06-03T17:09:29Z</time>
      </trkpt>
      <trkpt lat="46.69732" lon="-1.91232">
        <ele>10.7</ele>
        <time>2020-06-03T17:09:30Z</time>
      </trkpt>
      <trkpt lat="46.69732" lon="-1.91228">
        <ele>10.8</ele>
        <time>2020-06-03T17:09:31Z</time>
      </trkpt>
      <trkpt lat="46.69732" lon="-1.91226">
        <ele>10.9</ele>
        <time>2020-06-03T17:09:32Z</time>
      </trkpt>
      <trkpt lat="46.69732" lon="-1.91221">
        <ele>11</ele>
        <time>2020-06-03T17:09:33Z</time>
      </trkpt>
      <trkpt lat="46.69732" lon="-1.91219">
        <ele>11</ele>
        <time>2020-06-03T17:09:34Z</time>
      </trkpt>
      <trkpt lat="46.69731" lon="-1.91215">
        <ele>11</ele>
        <time>2020-06-03T17:09:35Z</time>
      </trkpt>
      <trkpt lat="46.6973" lon="-1.9121">
        <ele>11.1</ele>
        <time>2020-06-03T17:09:36Z</time>
      </trkpt>
      <trkpt lat="46.69729" lon="-1.91206">
        <ele>11.2</ele>
        <time>2020-06-03T17:09:37Z</time>
      </trkpt>
      <trkpt lat="46.6973" lon="-1.91202">
        <ele>11.3</ele>
        <time>2020-06-03T17:09:38Z</time>
      </trkpt>
      <trkpt lat="46.69732" lon="-1.91196">
        <ele>11.6</ele>
        <time>2020-06-03T17:09:39Z</time>
      </trkpt>
      <trkpt lat="46.69733" lon="-1.91192">
        <ele>11.7</ele>
        <time>2020-06-03T17:09:40Z</time>
      </trkpt>
      <trkpt lat="46.69734" lon="-1.91186">
        <ele>11.8</ele>
        <time>2020-06-03T17:09:41Z</time>
      </trkpt>
      <trkpt lat="46.69736" lon="-1.91181">
        <ele>11.9</ele>
        <time>2020-06-03T17:09:42Z</time>
      </trkpt>
      <trkpt lat="46.69737" lon="-1.91179">
        <ele>12</ele>
        <time>2020-06-03T17:09:43Z</time>
      </trkpt>
      <trkpt lat="46.69739" lon="-1.91176">
        <ele>12.1</ele>
        <time>2020-06-03T17:09:44Z</time>
      </trkpt>
      <trkpt lat="46.69742" lon="-1.91173">
        <ele>12.3</ele>
        <time>2020-06-03T17:09:45Z</time>
      </trkpt>
      <trkpt lat="46.69745" lon="-1.91169">
        <ele>12.4</ele>
        <time>2020-06-03T17:09:46Z</time>
      </trkpt>
      <trkpt lat="46.69749" lon="-1.91167">
        <ele>12.6</ele>
        <time>2020-06-03T17:09:47Z</time>
      </trkpt>
      <trkpt lat="46.69752" lon="-1.91164">
        <ele>12.8</ele>
        <time>2020-06-03T17:09:48Z</time>
      </trkpt>
      <trkpt lat="46.69756" lon="-1.91161">
        <ele>12.9</ele>
        <time>2020-06-03T17:09:49Z</time>
      </trkpt>
      <trkpt lat="46.69759" lon="-1.91158">
        <ele>13.1</ele>
        <time>2020-06-03T17:09:50Z</time>
      </trkpt>
      <trkpt lat="46.69763" lon="-1.91155">
        <ele>13.2</ele>
        <time>2020-06-03T17:09:51Z</time>
      </trkpt>
      <trkpt lat="46.69766" lon="-1.91152">
        <ele>13.3</ele>
        <time>2020-06-03T17:09:52Z</time>
      </trkpt>
      <trkpt lat="46.6977" lon="-1.91149">
        <ele>13.5</ele>
        <time>2020-06-03T17:09:53Z</time>
      </trkpt>
      <trkpt lat="46.69774" lon="-1.91146">
        <ele>13.6</ele>
        <time>2020-06-03T17:09:54Z</time>
      </trkpt>
      <trkpt lat="46.69777" lon="-1.91143">
        <ele>13.7</ele>
        <time>2020-06-03T17:09:55Z</time>
      </trkpt>
      <trkpt lat="46.69781" lon="-1.9114">
        <ele>13.8</ele>
        <time>2020-06-03T17:09:56Z</time>
      </trkpt>
      <trkpt lat="46.69785" lon="-1.91137">
        <ele>13.9</ele>
        <time>2020-06-03T17:09:57Z</time>
      </trkpt>
      <trkpt lat="46.69789" lon="-1.91134">
        <ele>14</ele>
        <time>2020-06-03T17:09:58Z</time>
      </trkpt>
      <trkpt lat="46.69792" lon="-1.9113">
        <ele>14.1</ele>
        <time>2020-06-03T17:09:59Z</time>
      </trkpt>
      <trkpt lat="46.69796" lon="-1.91127">
        <ele>14.1</ele>
        <time>2020-06-03T17:10:00Z</time>
      </trkpt>
      <trkpt lat="46.69801" lon="-1.91124">
        <ele>14.2</ele>
        <time>2020-06-03T17:10:01Z</time>
      </trkpt>
      <trkpt lat="46.69805" lon="-1.91118">
        <ele>14.3</ele>
        <time>2020-06-03T17:10:02Z</time>
      </trkpt>
      <trkpt lat="46.6981" lon="-1.91114">
        <ele>14.4</ele>
        <time>2020-06-03T17:10:03Z</time>
      </trkpt>
      <trkpt lat="46.69814" lon="-1.9111">
        <ele>14.4</ele>
        <time>2020-06-03T17:10:04Z</time>
      </trkpt>
      <trkpt lat="46.69819" lon="-1.91105">
        <ele>14.5</ele>
        <time>2020-06-03T17:10:05Z</time>
      </trkpt>
      <trkpt lat="46.69822" lon="-1.91101">
        <ele>14.5</ele>
        <time>2020-06-03T17:10:06Z</time>
      </trkpt>
      <trkpt lat="46.69826" lon="-1.91097">
        <ele>14.6</ele>
        <time>2020-06-03T17:10:07Z</time>
      </trkpt>
      <trkpt lat="46.6983" lon="-1.91092">
        <ele>14.6</ele>
        <time>2020-06-03T17:10:08Z</time>
      </trkpt>
      <trkpt lat="46.69832" lon="-1.91089">
        <ele>14.7</ele>
        <time>2020-06-03T17:10:09Z</time>
      </trkpt>
      <trkpt lat="46.69835" lon="-1.91083">
        <ele>14.7</ele>
        <time>2020-06-03T17:10:10Z</time>
      </trkpt>
      <trkpt lat="46.6984" lon="-1.91075">
        <ele>14.8</ele>
        <time>2020-06-03T17:10:11Z</time>
      </trkpt>
      <trkpt lat="46.69843" lon="-1.91069">
        <ele>14.8</ele>
        <time>2020-06-03T17:10:12Z</time>
      </trkpt>
      <trkpt lat="46.69845" lon="-1.91063">
        <ele>14.9</ele>
        <time>2020-06-03T17:10:13Z</time>
      </trkpt>
      <trkpt lat="46.69848" lon="-1.91056">
        <ele>15</ele>
        <time>2020-06-03T17:10:14Z</time>
      </trkpt>
      <trkpt lat="46.69851" lon="-1.91049">
        <ele>15.1</ele>
        <time>2020-06-03T17:10:15Z</time>
      </trkpt>
      <trkpt lat="46.69854" lon="-1.91043">
        <ele>15.2</ele>
        <time>2020-06-03T17:10:16Z</time>
      </trkpt>
      <trkpt lat="46.69857" lon="-1.91038">
        <ele>15.3</ele>
        <time>2020-06-03T17:10:17Z</time>
      </trkpt>
      <trkpt lat="46.6986" lon="-1.91032">
        <ele>15.3</ele>
        <time>2020-06-03T17:10:18Z</time>
      </trkpt>
      <trkpt lat="46.69864" lon="-1.91026">
        <ele>15.4</ele>
        <time>2020-06-03T17:10:19Z</time>
      </trkpt>
      <trkpt lat="46.69868" lon="-1.9102">
        <ele>15.5</ele>
        <time>2020-06-03T17:10:20Z</time>
      </trkpt>
      <trkpt lat="46.69872" lon="-1.91013">
        <ele>15.6</ele>
        <time>2020-06-03T17:10:21Z</time>
      </trkpt>
      <trkpt lat="46.69876" lon="-1.91006">
        <ele>15.8</ele>
        <time>2020-06-03T17:10:22Z</time>
      </trkpt>
      <trkpt lat="46.6988" lon="-1.91">
        <ele>15.9</ele>
        <time>2020-06-03T17:10:23Z</time>
      </trkpt>
      <trkpt lat="46.69884" lon="-1.90993">
        <ele>16</ele>
        <time>2020-06-03T17:10:24Z</time>
      </trkpt>
      <trkpt lat="46.69888" lon="-1.90986">
        <ele>16.1</ele>
        <time>2020-06-03T17:10:25Z</time>
      </trkpt>
      <trkpt lat="46.69892" lon="-1.90979">
        <ele>16.2</ele>
        <time>2020-06-03T17:10:26Z</time>
      </trkpt>
      <trkpt lat="46.69896" lon="-1.90973">
        <ele>16.3</ele>
        <time>2020-06-03T17:10:27Z</time>
      </trkpt>
      <trkpt lat="46.699" lon="-1.90967">
        <ele>16.4</ele>
        <time>2020-06-03T17:10:28Z</time>
      </trkpt>
      <trkpt lat="46.69905" lon="-1.90961">
        <ele>16.4</ele>
        <time>2020-06-03T17:10:29Z</time>
      </trkpt>
      <trkpt lat="46.69909" lon="-1.90954">
        <ele>16.4</ele>
        <time>2020-06-03T17:10:30Z</time>
      </trkpt>
      <trkpt lat="46.69913" lon="-1.90948">
        <ele>16.5</ele>
        <time>2020-06-03T17:10:31Z</time>
      </trkpt>
      <trkpt lat="46.69917" lon="-1.9094">
        <ele>16.5</ele>
        <time>2020-06-03T17:10:32Z</time>
      </trkpt>
      <trkpt lat="46.6992" lon="-1.90934">
        <ele>16.5</ele>
        <time>2020-06-03T17:10:33Z</time>
      </trkpt>
      <trkpt lat="46.69923" lon="-1.90928">
        <ele>16.5</ele>
        <time>2020-06-03T17:10:34Z</time>
      </trkpt>
      <trkpt lat="46.69926" lon="-1.90921">
        <ele>16.5</ele>
        <time>2020-06-03T17:10:35Z</time>
      </trkpt>
      <trkpt lat="46.69928" lon="-1.90914">
        <ele>16.6</ele>
        <time>2020-06-03T17:10:36Z</time>
      </trkpt>
      <trkpt lat="46.69931" lon="-1.90908">
        <ele>16.6</ele>
        <time>2020-06-03T17:10:37Z</time>
      </trkpt>
      <trkpt lat="46.69933" lon="-1.90902">
        <ele>16.6</ele>
        <time>2020-06-03T17:10:38Z</time>
      </trkpt>
      <trkpt lat="46.69936" lon="-1.90895">
        <ele>16.7</ele>
        <time>2020-06-03T17:10:39Z</time>
      </trkpt>
      <trkpt lat="46.69938" lon="-1.90888">
        <ele>16.7</ele>
        <time>2020-06-03T17:10:40Z</time>
      </trkpt>
      <trkpt lat="46.69941" lon="-1.90881">
        <ele>16.7</ele>
        <time>2020-06-03T17:10:41Z</time>
      </trkpt>
      <trkpt lat="46.69944" lon="-1.90874">
        <ele>16.8</ele>
        <time>2020-06-03T17:10:42Z</time>
      </trkpt>
      <trkpt lat="46.69946" lon="-1.90866">
        <ele>16.8</ele>
        <time>2020-06-03T17:10:43Z</time>
      </trkpt>
      <trkpt lat="46.69947" lon="-1.90859">
        <ele>16.9</ele>
        <time>2020-06-03T17:10:44Z</time>
      </trkpt>
      <trkpt lat="46.69947" lon="-1.9085">
        <ele>16.9</ele>
        <time>2020-06-03T17:10:45Z</time>
      </trkpt>
      <trkpt lat="46.69947" lon="-1.90841">
        <ele>17</ele>
        <time>2020-06-03T17:10:46Z</time>
      </trkpt>
      <trkpt lat="46.69945" lon="-1.90834">
        <ele>17</ele>
        <time>2020-06-03T17:10:47Z</time>
      </trkpt>
      <trkpt lat="46.69944" lon="-1.90827">
        <ele>17</ele>
        <time>2020-06-03T17:10:48Z</time>
      </trkpt>
      <trkpt lat="46.69943" lon="-1.90819">
        <ele>17.1</ele>
        <time>2020-06-03T17:10:49Z</time>
      </trkpt>
      <trkpt lat="46.69942" lon="-1.90812">
        <ele>17.1</ele>
        <time>2020-06-03T17:10:50Z</time>
      </trkpt>
      <trkpt lat="46.69941" lon="-1.90805">
        <ele>17.2</ele>
        <time>2020-06-03T17:10:51Z</time>
      </trkpt>
      <trkpt lat="46.69941" lon="-1.90797">
        <ele>17.2</ele>
        <time>2020-06-03T17:10:52Z</time>
      </trkpt>
      <trkpt lat="46.6994" lon="-1.90789">
        <ele>17.2</ele>
        <time>2020-06-03T17:10:53Z</time>
      </trkpt>
      <trkpt lat="46.69941" lon="-1.90781">
        <ele>17.2</ele>
        <time>2020-06-03T17:10:54Z</time>
      </trkpt>
      <trkpt lat="46.69942" lon="-1.90773">
        <ele>17.2</ele>
        <time>2020-06-03T17:10:55Z</time>
      </trkpt>
      <trkpt lat="46.69943" lon="-1.90765">
        <ele>17.2</ele>
        <time>2020-06-03T17:10:56Z</time>
      </trkpt>
      <trkpt lat="46.69944" lon="-1.90756">
        <ele>17.2</ele>
        <time>2020-06-03T17:10:57Z</time>
      </trkpt>
      <trkpt lat="46.69944" lon="-1.90747">
        <ele>17.2</ele>
        <time>2020-06-03T17:10:58Z</time>
      </trkpt>
      <trkpt lat="46.69946" lon="-1.90738">
        <ele>17.1</ele>
        <time>2020-06-03T17:10:59Z</time>
      </trkpt>
      <trkpt lat="46.69947" lon="-1.90729">
        <ele>17.1</ele>
        <time>2020-06-03T17:11:00Z</time>
      </trkpt>
      <trkpt lat="46.69948" lon="-1.90721">
        <ele>17</ele>
        <time>2020-06-03T17:11:01Z</time>
      </trkpt>
      <trkpt lat="46.69949" lon="-1.90713">
        <ele>16.9</ele>
        <time>2020-06-03T17:11:02Z</time>
      </trkpt>
      <trkpt lat="46.6995" lon="-1.90704">
        <ele>16.8</ele>
        <time>2020-06-03T17:11:03Z</time>
      </trkpt>
      <trkpt lat="46.69951" lon="-1.90695">
        <ele>16.6</ele>
        <time>2020-06-03T17:11:04Z</time>
      </trkpt>
      <trkpt lat="46.69953" lon="-1.90686">
        <ele>16.5</ele>
        <time>2020-06-03T17:11:05Z</time>
      </trkpt>
      <trkpt lat="46.69955" lon="-1.90677">
        <ele>16.3</ele>
        <time>2020-06-03T17:11:06Z</time>
      </trkpt>
      <trkpt lat="46.69956" lon="-1.90667">
        <ele>16.1</ele>
        <time>2020-06-03T17:11:07Z</time>
      </trkpt>
      <trkpt lat="46.69959" lon="-1.90657">
        <ele>16</ele>
        <time>2020-06-03T17:11:08Z</time>
      </trkpt>
      <trkpt lat="46.69962" lon="-1.90647">
        <ele>15.9</ele>
        <time>2020-06-03T17:11:09Z</time>
      </trkpt>
      <trkpt lat="46.69965" lon="-1.90637">
        <ele>15.9</ele>
        <time>2020-06-03T17:11:10Z</time>
      </trkpt>
      <trkpt lat="46.6997" lon="-1.90628">
        <ele>15.8</ele>
        <time>2020-06-03T17:11:11Z</time>
      </trkpt>
      <trkpt lat="46.69974" lon="-1.90619">
        <ele>15.7</ele>
        <time>2020-06-03T17:11:12Z</time>
      </trkpt>
      <trkpt lat="46.6998" lon="-1.9061">
        <ele>15.5</ele>
        <time>2020-06-03T17:11:13Z</time>
      </trkpt>
      <trkpt lat="46.69984" lon="-1.90604">
        <ele>15.4</ele>
        <time>2020-06-03T17:11:14Z</time>
      </trkpt>
      <trkpt lat="46.69989" lon="-1.90599">
        <ele>15.2</ele>
        <time>2020-06-03T17:11:15Z</time>
      </trkpt>
      <trkpt lat="46.69995" lon="-1.90594">
        <ele>15</ele>
        <time>2020-06-03T17:11:16Z</time>
      </trkpt>
      <trkpt lat="46.7" lon="-1.90588">
        <ele>14.8</ele>
        <time>2020-06-03T17:11:17Z</time>
      </trkpt>
      <trkpt lat="46.70008" lon="-1.90584">
        <ele>14.5</ele>
        <time>2020-06-03T17:11:18Z</time>
      </trkpt>
      <trkpt lat="46.70016" lon="-1.90579">
        <ele>14.1</ele>
        <time>2020-06-03T17:11:19Z</time>
      </trkpt>
      <trkpt lat="46.70026" lon="-1.90576">
        <ele>13.7</ele>
        <time>2020-06-03T17:11:20Z</time>
      </trkpt>
      <trkpt lat="46.70036" lon="-1.90573">
        <ele>13.5</ele>
        <time>2020-06-03T17:11:21Z</time>
      </trkpt>
      <trkpt lat="46.70048" lon="-1.90572">
        <ele>13.2</ele>
        <time>2020-06-03T17:11:22Z</time>
      </trkpt>
      <trkpt lat="46.70058" lon="-1.90571">
        <ele>13</ele>
        <time>2020-06-03T17:11:23Z</time>
      </trkpt>
      <trkpt lat="46.70067" lon="-1.9057">
        <ele>13</ele>
        <time>2020-06-03T17:11:24Z</time>
      </trkpt>
      <trkpt lat="46.70077" lon="-1.90566">
        <ele>13.2</ele>
        <time>2020-06-03T17:11:25Z</time>
      </trkpt>
      <trkpt lat="46.70087" lon="-1.90562">
        <ele>13.3</ele>
        <time>2020-06-03T17:11:26Z</time>
      </trkpt>
      <trkpt lat="46.70099" lon="-1.90556">
        <ele>13.4</ele>
        <time>2020-06-03T17:11:27Z</time>
      </trkpt>
      <trkpt lat="46.70111" lon="-1.90548">
        <ele>13.7</ele>
        <time>2020-06-03T17:11:28Z</time>
      </trkpt>
      <trkpt lat="46.70118" lon="-1.90541">
        <ele>14</ele>
        <time>2020-06-03T17:11:29Z</time>
      </trkpt>
      <trkpt lat="46.70126" lon="-1.90535">
        <ele>14.3</ele>
        <time>2020-06-03T17:11:30Z</time>
      </trkpt>
      <trkpt lat="46.70132" lon="-1.90529">
        <ele>14.6</ele>
        <time>2020-06-03T17:11:31Z</time>
      </trkpt>
      <trkpt lat="46.70138" lon="-1.90525">
        <ele>14.9</ele>
        <time>2020-06-03T17:11:32Z</time>
      </trkpt>
      <trkpt lat="46.70145" lon="-1.9052">
        <ele>15.1</ele>
        <time>2020-06-03T17:11:33Z</time>
      </trkpt>
      <trkpt lat="46.70151" lon="-1.90515">
        <ele>15.4</ele>
        <time>2020-06-03T17:11:34Z</time>
      </trkpt>
      <trkpt lat="46.70157" lon="-1.9051">
        <ele>15.9</ele>
        <time>2020-06-03T17:11:35Z</time>
      </trkpt>
      <trkpt lat="46.70163" lon="-1.90506">
        <ele>16</ele>
        <time>2020-06-03T17:11:36Z</time>
      </trkpt>
      <trkpt lat="46.7017" lon="-1.90501">
        <ele>16.2</ele>
        <time>2020-06-03T17:11:37Z</time>
      </trkpt>
      <trkpt lat="46.70175" lon="-1.90497">
        <ele>16.4</ele>
        <time>2020-06-03T17:11:38Z</time>
      </trkpt>
      <trkpt lat="46.70181" lon="-1.90492">
        <ele>16.6</ele>
        <time>2020-06-03T17:11:39Z</time>
      </trkpt>
      <trkpt lat="46.70187" lon="-1.90487">
        <ele>16.8</ele>
        <time>2020-06-03T17:11:40Z</time>
      </trkpt>
      <trkpt lat="46.70192" lon="-1.90482">
        <ele>17</ele>
        <time>2020-06-03T17:11:41Z</time>
      </trkpt>
      <trkpt lat="46.70197" lon="-1.90477">
        <ele>17.2</ele>
        <time>2020-06-03T17:11:42Z</time>
      </trkpt>
      <trkpt lat="46.70201" lon="-1.90473">
        <ele>17.4</ele>
        <time>2020-06-03T17:11:43Z</time>
      </trkpt>
      <trkpt lat="46.70206" lon="-1.90469">
        <ele>17.5</ele>
        <time>2020-06-03T17:11:44Z</time>
      </trkpt>
      <trkpt lat="46.7021" lon="-1.90465">
        <ele>17.7</ele>
        <time>2020-06-03T17:11:45Z</time>
      </trkpt>
      <trkpt lat="46.70213" lon="-1.90461">
        <ele>17.8</ele>
        <time>2020-06-03T17:11:46Z</time>
      </trkpt>
      <trkpt lat="46.70218" lon="-1.90457">
        <ele>17.9</ele>
        <time>2020-06-03T17:11:47Z</time>
      </trkpt>
      <trkpt lat="46.70221" lon="-1.90453">
        <ele>18</ele>
        <time>2020-06-03T17:11:48Z</time>
      </trkpt>
      <trkpt lat="46.70224" lon="-1.9045">
        <ele>18.1</ele>
        <time>2020-06-03T17:11:49Z</time>
      </trkpt>
      <trkpt lat="46.70227" lon="-1.90447">
        <ele>18.2</ele>
        <time>2020-06-03T17:11:50Z</time>
      </trkpt>
      <trkpt lat="46.7023" lon="-1.90444">
        <ele>18.3</ele>
        <time>2020-06-03T17:11:51Z</time>
      </trkpt>
      <trkpt lat="46.70233" lon="-1.9044">
        <ele>18.3</ele>
        <time>2020-06-03T17:11:52Z</time>
      </trkpt>
      <trkpt lat="46.70236" lon="-1.90436">
        <ele>18.4</ele>
        <time>2020-06-03T17:11:53Z</time>
      </trkpt>
      <trkpt lat="46.70238" lon="-1.90433">
        <ele>18.5</ele>
        <time>2020-06-03T17:11:54Z</time>
      </trkpt>
      <trkpt lat="46.70241" lon="-1.90429">
        <ele>18.5</ele>
        <time>2020-06-03T17:11:55Z</time>
      </trkpt>
      <trkpt lat="46.70244" lon="-1.90424">
        <ele>18.6</ele>
        <time>2020-06-03T17:11:56Z</time>
      </trkpt>
      <trkpt lat="46.70247" lon="-1.90421">
        <ele>18.7</ele>
        <time>2020-06-03T17:11:57Z</time>
      </trkpt>
      <trkpt lat="46.7025" lon="-1.90416">
        <ele>18.7</ele>
        <time>2020-06-03T17:11:58Z</time>
      </trkpt>
      <trkpt lat="46.70252" lon="-1.90412">
        <ele>18.8</ele>
        <time>2020-06-03T17:11:59Z</time>
      </trkpt>
      <trkpt lat="46.70255" lon="-1.9041">
        <ele>18.8</ele>
        <time>2020-06-03T17:12:00Z</time>
      </trkpt>
      <trkpt lat="46.70257" lon="-1.90406">
        <ele>18.8</ele>
        <time>2020-06-03T17:12:01Z</time>
      </trkpt>
      <trkpt lat="46.70259" lon="-1.90402">
        <ele>18.8</ele>
        <time>2020-06-03T17:12:02Z</time>
      </trkpt>
      <trkpt lat="46.70262" lon="-1.90398">
        <ele>18.8</ele>
        <time>2020-06-03T17:12:03Z</time>
      </trkpt>
      <trkpt lat="46.70264" lon="-1.90394">
        <ele>18.9</ele>
        <time>2020-06-03T17:12:04Z</time>
      </trkpt>
      <trkpt lat="46.70267" lon="-1.9039">
        <ele>18.9</ele>
        <time>2020-06-03T17:12:05Z</time>
      </trkpt>
      <trkpt lat="46.7027" lon="-1.90386">
        <ele>18.9</ele>
        <time>2020-06-03T17:12:06Z</time>
      </trkpt>
      <trkpt lat="46.70273" lon="-1.90381">
        <ele>18.9</ele>
        <time>2020-06-03T17:12:07Z</time>
      </trkpt>
      <trkpt lat="46.70275" lon="-1.90377">
        <ele>18.9</ele>
        <time>2020-06-03T17:12:08Z</time>
      </trkpt>
      <trkpt lat="46.70278" lon="-1.90372">
        <ele>18.9</ele>
        <time>2020-06-03T17:12:09Z</time>
      </trkpt>
      <trkpt lat="46.70281" lon="-1.90367">
        <ele>19</ele>
        <time>2020-06-03T17:12:10Z</time>
      </trkpt>
      <trkpt lat="46.70284" lon="-1.90362">
        <ele>19</ele>
        <time>2020-06-03T17:12:11Z</time>
      </trkpt>
      <trkpt lat="46.70287" lon="-1.90358">
        <ele>19</ele>
        <time>2020-06-03T17:12:12Z</time>
      </trkpt>
      <trkpt lat="46.7029" lon="-1.90354">
        <ele>19.1</ele>
        <time>2020-06-03T17:12:13Z</time>
      </trkpt>
      <trkpt lat="46.70293" lon="-1.9035">
        <ele>19.1</ele>
        <time>2020-06-03T17:12:14Z</time>
      </trkpt>
      <trkpt lat="46.70297" lon="-1.90346">
        <ele>19.2</ele>
        <time>2020-06-03T17:12:15Z</time>
      </trkpt>
      <trkpt lat="46.703" lon="-1.90342">
        <ele>19.2</ele>
        <time>2020-06-03T17:12:16Z</time>
      </trkpt>
      <trkpt lat="46.70303" lon="-1.90338">
        <ele>19.3</ele>
        <time>2020-06-03T17:12:17Z</time>
      </trkpt>
      <trkpt lat="46.70307" lon="-1.90334">
        <ele>19.3</ele>
        <time>2020-06-03T17:12:18Z</time>
      </trkpt>
      <trkpt lat="46.7031" lon="-1.9033">
        <ele>19.3</ele>
        <time>2020-06-03T17:12:19Z</time>
      </trkpt>
      <trkpt lat="46.70313" lon="-1.90327">
        <ele>19.3</ele>
        <time>2020-06-03T17:12:20Z</time>
      </trkpt>
      <trkpt lat="46.70316" lon="-1.90324">
        <ele>19.3</ele>
        <time>2020-06-03T17:12:21Z</time>
      </trkpt>
      <trkpt lat="46.7032" lon="-1.90322">
        <ele>19.3</ele>
        <time>2020-06-03T17:12:22Z</time>
      </trkpt>
      <trkpt lat="46.70323" lon="-1.90319">
        <ele>19.3</ele>
        <time>2020-06-03T17:12:23Z</time>
      </trkpt>
      <trkpt lat="46.70326" lon="-1.90317">
        <ele>19.3</ele>
        <time>2020-06-03T17:12:24Z</time>
      </trkpt>
      <trkpt lat="46.70329" lon="-1.90313">
        <ele>19.3</ele>
        <time>2020-06-03T17:12:25Z</time>
      </trkpt>
      <trkpt lat="46.70332" lon="-1.9031">
        <ele>19.3</ele>
        <time>2020-06-03T17:12:26Z</time>
      </trkpt>
      <trkpt lat="46.70335" lon="-1.90306">
        <ele>19.2</ele>
        <time>2020-06-03T17:12:27Z</time>
      </trkpt>
      <trkpt lat="46.70336" lon="-1.90303">
        <ele>19.2</ele>
        <time>2020-06-03T17:12:28Z</time>
      </trkpt>
      <trkpt lat="46.70339" lon="-1.90298">
        <ele>19.3</ele>
        <time>2020-06-03T17:12:29Z</time>
      </trkpt>
      <trkpt lat="46.7034" lon="-1.90295">
        <ele>19.3</ele>
        <time>2020-06-03T17:12:30Z</time>
      </trkpt>
      <trkpt lat="46.70342" lon="-1.90291">
        <ele>19.3</ele>
        <time>2020-06-03T17:12:31Z</time>
      </trkpt>
      <trkpt lat="46.70345" lon="-1.90287">
        <ele>19.3</ele>
        <time>2020-06-03T17:12:32Z</time>
      </trkpt>
      <trkpt lat="46.70349" lon="-1.90284">
        <ele>19.4</ele>
        <time>2020-06-03T17:12:33Z</time>
      </trkpt>
      <trkpt lat="46.70353" lon="-1.90281">
        <ele>19.4</ele>
        <time>2020-06-03T17:12:34Z</time>
      </trkpt>
      <trkpt lat="46.70356" lon="-1.90277">
        <ele>19.4</ele>
        <time>2020-06-03T17:12:35Z</time>
      </trkpt>
      <trkpt lat="46.70358" lon="-1.90274">
        <ele>19.5</ele>
        <time>2020-06-03T17:12:36Z</time>
      </trkpt>
      <trkpt lat="46.70361" lon="-1.90271">
        <ele>19.5</ele>
        <time>2020-06-03T17:12:37Z</time>
      </trkpt>
      <trkpt lat="46.70364" lon="-1.90267">
        <ele>19.5</ele>
        <time>2020-06-03T17:12:38Z</time>
      </trkpt>
      <trkpt lat="46.70367" lon="-1.90264">
        <ele>19.6</ele>
        <time>2020-06-03T17:12:39Z</time>
      </trkpt>
      <trkpt lat="46.7037" lon="-1.90261">
        <ele>19.6</ele>
        <time>2020-06-03T17:12:40Z</time>
      </trkpt>
      <trkpt lat="46.70372" lon="-1.90259">
        <ele>19.6</ele>
        <time>2020-06-03T17:12:41Z</time>
      </trkpt>
      <trkpt lat="46.70375" lon="-1.90255">
        <ele>19.6</ele>
        <time>2020-06-03T17:12:42Z</time>
      </trkpt>
      <trkpt lat="46.70377" lon="-1.90252">
        <ele>19.6</ele>
        <time>2020-06-03T17:12:43Z</time>
      </trkpt>
      <trkpt lat="46.70379" lon="-1.90249">
        <ele>19.7</ele>
        <time>2020-06-03T17:12:44Z</time>
      </trkpt>
      <trkpt lat="46.7038" lon="-1.90246">
        <ele>19.7</ele>
        <time>2020-06-03T17:12:45Z</time>
      </trkpt>
      <trkpt lat="46.70382" lon="-1.90241">
        <ele>19.7</ele>
        <time>2020-06-03T17:12:46Z</time>
      </trkpt>
      <trkpt lat="46.70383" lon="-1.9024">
        <ele>19.7</ele>
        <time>2020-06-03T17:12:47Z</time>
      </trkpt>
      <trkpt lat="46.70384" lon="-1.90236">
        <ele>19.7</ele>
        <time>2020-06-03T17:12:48Z</time>
      </trkpt>
      <trkpt lat="46.70384" lon="-1.90235">
        <ele>19.7</ele>
        <time>2020-06-03T17:12:49Z</time>
      </trkpt>
      <trkpt lat="46.70385" lon="-1.90233">
        <ele>19.7</ele>
        <time>2020-06-03T17:12:50Z</time>
      </trkpt>
      <trkpt lat="46.70385" lon="-1.90231">
        <ele>19.8</ele>
        <time>2020-06-03T17:12:51Z</time>
      </trkpt>
      <trkpt lat="46.70386" lon="-1.90225">
        <ele>19.8</ele>
        <time>2020-06-03T17:12:52Z</time>
      </trkpt>
      <trkpt lat="46.70386" lon="-1.90223">
        <ele>19.8</ele>
        <time>2020-06-03T17:12:53Z</time>
      </trkpt>
      <trkpt lat="46.70388" lon="-1.90218">
        <ele>19.8</ele>
        <time>2020-06-03T17:12:54Z</time>
      </trkpt>
      <trkpt lat="46.7039" lon="-1.90215">
        <ele>19.8</ele>
        <time>2020-06-03T17:12:55Z</time>
      </trkpt>
      <trkpt lat="46.70391" lon="-1.90211">
        <ele>19.8</ele>
        <time>2020-06-03T17:12:56Z</time>
      </trkpt>
      <trkpt lat="46.70392" lon="-1.9021">
        <ele>19.8</ele>
        <time>2020-06-03T17:12:57Z</time>
      </trkpt>
      <trkpt lat="46.70393" lon="-1.9021">
        <ele>19.8</ele>
        <time>2020-06-03T17:12:58Z</time>
      </trkpt>
      <trkpt lat="46.70394" lon="-1.90211">
        <ele>19.8</ele>
        <time>2020-06-03T17:12:59Z</time>
      </trkpt>
      <trkpt lat="46.70394" lon="-1.90211">
        <ele>19.8</ele>
        <time>2020-06-03T17:13:00Z</time>
      </trkpt>
      <trkpt lat="46.70394" lon="-1.90213">
        <ele>19.8</ele>
        <time>2020-06-03T17:13:01Z</time>
      </trkpt>
      <trkpt lat="46.70393" lon="-1.90215">
        <ele>19.8</ele>
        <time>2020-06-03T17:13:02Z</time>
      </trkpt>
      <trkpt lat="46.70392" lon="-1.9022">
        <ele>19.8</ele>
        <time>2020-06-03T17:13:03Z</time>
      </trkpt>
      <trkpt lat="46.70392" lon="-1.90221">
        <ele>19.8</ele>
        <time>2020-06-03T17:13:04Z</time>
      </trkpt>
      <trkpt lat="46.70391" lon="-1.90226">
        <ele>19.7</ele>
        <time>2020-06-03T17:13:05Z</time>
      </trkpt>
      <trkpt lat="46.7039" lon="-1.90227">
        <ele>19.7</ele>
        <time>2020-06-03T17:13:06Z</time>
      </trkpt>
      <trkpt lat="46.7039" lon="-1.90232">
        <ele>19.7</ele>
        <time>2020-06-03T17:13:07Z</time>
      </trkpt>
      <trkpt lat="46.70389" lon="-1.90234">
        <ele>19.7</ele>
        <time>2020-06-03T17:13:08Z</time>
      </trkpt>
      <trkpt lat="46.70389" lon="-1.90238">
        <ele>19.7</ele>
        <time>2020-06-03T17:13:09Z</time>
      </trkpt>
      <trkpt lat="46.70388" lon="-1.90242">
        <ele>19.6</ele>
        <time>2020-06-03T17:13:10Z</time>
      </trkpt>
      <trkpt lat="46.70387" lon="-1.90247">
        <ele>19.6</ele>
        <time>2020-06-03T17:13:11Z</time>
      </trkpt>
      <trkpt lat="46.70385" lon="-1.90251">
        <ele>19.6</ele>
        <time>2020-06-03T17:13:12Z</time>
      </trkpt>
      <trkpt lat="46.70384" lon="-1.90256">
        <ele>19.5</ele>
        <time>2020-06-03T17:13:13Z</time>
      </trkpt>
      <trkpt lat="46.70383" lon="-1.9026">
        <ele>19.4</ele>
        <time>2020-06-03T17:13:14Z</time>
      </trkpt>
      <trkpt lat="46.70382" lon="-1.90265">
        <ele>19.3</ele>
        <time>2020-06-03T17:13:15Z</time>
      </trkpt>
      <trkpt lat="46.7038" lon="-1.9027">
        <ele>19.3</ele>
        <time>2020-06-03T17:13:16Z</time>
      </trkpt>
      <trkpt lat="46.70379" lon="-1.90275">
        <ele>19.2</ele>
        <time>2020-06-03T17:13:17Z</time>
      </trkpt>
      <trkpt lat="46.70377" lon="-1.9028">
        <ele>19.1</ele>
        <time>2020-06-03T17:13:18Z</time>
      </trkpt>
      <trkpt lat="46.70376" lon="-1.90285">
        <ele>19</ele>
        <time>2020-06-03T17:13:19Z</time>
      </trkpt>
      <trkpt lat="46.70375" lon="-1.9029">
        <ele>18.9</ele>
        <time>2020-06-03T17:13:20Z</time>
      </trkpt>
      <trkpt lat="46.70374" lon="-1.90295">
        <ele>18.9</ele>
        <time>2020-06-03T17:13:21Z</time>
      </trkpt>
      <trkpt lat="46.70373" lon="-1.90299">
        <ele>18.8</ele>
        <time>2020-06-03T17:13:22Z</time>
      </trkpt>
      <trkpt lat="46.70372" lon="-1.90304">
        <ele>18.8</ele>
        <time>2020-06-03T17:13:23Z</time>
      </trkpt>
      <trkpt lat="46.70371" lon="-1.90308">
        <ele>18.8</ele>
        <time>2020-06-03T17:13:24Z</time>
      </trkpt>
      <trkpt lat="46.7037" lon="-1.90313">
        <ele>18.7</ele>
        <time>2020-06-03T17:13:25Z</time>
      </trkpt>
      <trkpt lat="46.7037" lon="-1.90315">
        <ele>18.7</ele>
        <time>2020-06-03T17:13:26Z</time>
      </trkpt>
      <trkpt lat="46.70371" lon="-1.90317">
        <ele>18.7</ele>
        <time>2020-06-03T17:13:27Z</time>
      </trkpt>
      <trkpt lat="46.70372" lon="-1.90319">
        <ele>18.7</ele>
        <time>2020-06-03T17:13:28Z</time>
      </trkpt>
      <trkpt lat="46.70373" lon="-1.90321">
        <ele>18.7</ele>
        <time>2020-06-03T17:13:29Z</time>
      </trkpt>
      <trkpt lat="46.70374" lon="-1.90322">
        <ele>18.7</ele>
        <time>2020-06-03T17:13:30Z</time>
      </trkpt>
      <trkpt lat="46.70375" lon="-1.90323">
        <ele>18.7</ele>
        <time>2020-06-03T17:13:31Z</time>
      </trkpt>
      <trkpt lat="46.70376" lon="-1.90328">
        <ele>18.7</ele>
        <time>2020-06-03T17:13:32Z</time>
      </trkpt>
      <trkpt lat="46.70377" lon="-1.9033">
        <ele>18.7</ele>
        <time>2020-06-03T17:13:33Z</time>
      </trkpt>
      <trkpt lat="46.70379" lon="-1.90334">
        <ele>18.6</ele>
        <time>2020-06-03T17:13:34Z</time>
      </trkpt>
      <trkpt lat="46.70382" lon="-1.90337">
        <ele>18.6</ele>
        <time>2020-06-03T17:13:35Z</time>
      </trkpt>
      <trkpt lat="46.70386" lon="-1.90341">
        <ele>18.6</ele>
        <time>2020-06-03T17:13:36Z</time>
      </trkpt>
      <trkpt lat="46.70391" lon="-1.90344">
        <ele>18.6</ele>
        <time>2020-06-03T17:13:37Z</time>
      </trkpt>
      <trkpt lat="46.70395" lon="-1.90346">
        <ele>18.6</ele>
        <time>2020-06-03T17:13:38Z</time>
      </trkpt>
      <trkpt lat="46.70399" lon="-1.90349">
        <ele>18.6</ele>
        <time>2020-06-03T17:13:39Z</time>
      </trkpt>
      <trkpt lat="46.70403" lon="-1.90351">
        <ele>18.6</ele>
        <time>2020-06-03T17:13:40Z</time>
      </trkpt>
      <trkpt lat="46.70405" lon="-1.90354">
        <ele>18.6</ele>
        <time>2020-06-03T17:13:41Z</time>
      </trkpt>
      <trkpt lat="46.70408" lon="-1.90358">
        <ele>18.6</ele>
        <time>2020-06-03T17:13:42Z</time>
      </trkpt>
      <trkpt lat="46.7041" lon="-1.90364">
        <ele>18.6</ele>
        <time>2020-06-03T17:13:43Z</time>
      </trkpt>
      <trkpt lat="46.70412" lon="-1.90371">
        <ele>18.6</ele>
        <time>2020-06-03T17:13:44Z</time>
      </trkpt>
      <trkpt lat="46.70414" lon="-1.9038">
        <ele>18.5</ele>
        <time>2020-06-03T17:13:45Z</time>
      </trkpt>
      <trkpt lat="46.70414" lon="-1.90388">
        <ele>18.3</ele>
        <time>2020-06-03T17:13:46Z</time>
      </trkpt>
      <trkpt lat="46.70415" lon="-1.90395">
        <ele>18.2</ele>
        <time>2020-06-03T17:13:47Z</time>
      </trkpt>
      <trkpt lat="46.70417" lon="-1.90404">
        <ele>17.9</ele>
        <time>2020-06-03T17:13:48Z</time>
      </trkpt>
      <trkpt lat="46.70418" lon="-1.90412">
        <ele>17.6</ele>
        <time>2020-06-03T17:13:49Z</time>
      </trkpt>
      <trkpt lat="46.70418" lon="-1.90421">
        <ele>17.3</ele>
        <time>2020-06-03T17:13:50Z</time>
      </trkpt>
      <trkpt lat="46.70418" lon="-1.9043">
        <ele>17</ele>
        <time>2020-06-03T17:13:51Z</time>
      </trkpt>
      <trkpt lat="46.70418" lon="-1.9044">
        <ele>16.6</ele>
        <time>2020-06-03T17:13:52Z</time>
      </trkpt>
      <trkpt lat="46.70418" lon="-1.9045">
        <ele>16.3</ele>
        <time>2020-06-03T17:13:53Z</time>
      </trkpt>
      <trkpt lat="46.70418" lon="-1.90461">
        <ele>16</ele>
        <time>2020-06-03T17:13:54Z</time>
      </trkpt>
      <trkpt lat="46.70418" lon="-1.90471">
        <ele>15.7</ele>
        <time>2020-06-03T17:13:55Z</time>
      </trkpt>
      <trkpt lat="46.70417" lon="-1.90483">
        <ele>15.3</ele>
        <time>2020-06-03T17:13:56Z</time>
      </trkpt>
      <trkpt lat="46.70415" lon="-1.90495">
        <ele>15</ele>
        <time>2020-06-03T17:13:57Z</time>
      </trkpt>
      <trkpt lat="46.70416" lon="-1.90507">
        <ele>14.7</ele>
        <time>2020-06-03T17:13:58Z</time>
      </trkpt>
      <trkpt lat="46.70414" lon="-1.90519">
        <ele>14.4</ele>
        <time>2020-06-03T17:13:59Z</time>
      </trkpt>
      <trkpt lat="46.70414" lon="-1.9053">
        <ele>14.2</ele>
        <time>2020-06-03T17:14:00Z</time>
      </trkpt>
      <trkpt lat="46.70413" lon="-1.90541">
        <ele>14.1</ele>
        <time>2020-06-03T17:14:01Z</time>
      </trkpt>
      <trkpt lat="46.70412" lon="-1.90553">
        <ele>14</ele>
        <time>2020-06-03T17:14:02Z</time>
      </trkpt>
      <trkpt lat="46.70412" lon="-1.90565">
        <ele>14</ele>
        <time>2020-06-03T17:14:03Z</time>
      </trkpt>
      <trkpt lat="46.70412" lon="-1.90576">
        <ele>14</ele>
        <time>2020-06-03T17:14:04Z</time>
      </trkpt>
      <trkpt lat="46.70413" lon="-1.90587">
        <ele>14</ele>
        <time>2020-06-03T17:14:05Z</time>
      </trkpt>
      <trkpt lat="46.70413" lon="-1.90597">
        <ele>14</ele>
        <time>2020-06-03T17:14:06Z</time>
      </trkpt>
      <trkpt lat="46.70413" lon="-1.90606">
        <ele>14.2</ele>
        <time>2020-06-03T17:14:07Z</time>
      </trkpt>
      <trkpt lat="46.70414" lon="-1.90616">
        <ele>14.5</ele>
        <time>2020-06-03T17:14:08Z</time>
      </trkpt>
      <trkpt lat="46.70415" lon="-1.90626">
        <ele>14.7</ele>
        <time>2020-06-03T17:14:09Z</time>
      </trkpt>
      <trkpt lat="46.70415" lon="-1.90636">
        <ele>15</ele>
        <time>2020-06-03T17:14:10Z</time>
      </trkpt>
      <trkpt lat="46.70417" lon="-1.90644">
        <ele>15.3</ele>
        <time>2020-06-03T17:14:11Z</time>
      </trkpt>
      <trkpt lat="46.70418" lon="-1.90652">
        <ele>15.5</ele>
        <time>2020-06-03T17:14:12Z</time>
      </trkpt>
      <trkpt lat="46.70419" lon="-1.90659">
        <ele>15.7</ele>
        <time>2020-06-03T17:14:13Z</time>
      </trkpt>
      <trkpt lat="46.7042" lon="-1.90667">
        <ele>16</ele>
        <time>2020-06-03T17:14:14Z</time>
      </trkpt>
      <trkpt lat="46.70422" lon="-1.90674">
        <ele>16.2</ele>
        <time>2020-06-03T17:14:15Z</time>
      </trkpt>
      <trkpt lat="46.70424" lon="-1.9068">
        <ele>16.4</ele>
        <time>2020-06-03T17:14:16Z</time>
      </trkpt>
      <trkpt lat="46.70427" lon="-1.90686">
        <ele>16.6</ele>
        <time>2020-06-03T17:14:17Z</time>
      </trkpt>
      <trkpt lat="46.70429" lon="-1.90692">
        <ele>16.8</ele>
        <time>2020-06-03T17:14:18Z</time>
      </trkpt>
      <trkpt lat="46.70431" lon="-1.90699">
        <ele>16.9</ele>
        <time>2020-06-03T17:14:19Z</time>
      </trkpt>
      <trkpt lat="46.70433" lon="-1.90705">
        <ele>17.1</ele>
        <time>2020-06-03T17:14:20Z</time>
      </trkpt>
      <trkpt lat="46.70435" lon="-1.90711">
        <ele>17.2</ele>
        <time>2020-06-03T17:14:21Z</time>
      </trkpt>
      <trkpt lat="46.70438" lon="-1.90718">
        <ele>17.3</ele>
        <time>2020-06-03T17:14:22Z</time>
      </trkpt>
      <trkpt lat="46.7044" lon="-1.90723">
        <ele>17.4</ele>
        <time>2020-06-03T17:14:23Z</time>
      </trkpt>
      <trkpt lat="46.70441" lon="-1.90729">
        <ele>17.5</ele>
        <time>2020-06-03T17:14:24Z</time>
      </trkpt>
      <trkpt lat="46.70443" lon="-1.90733">
        <ele>17.6</ele>
        <time>2020-06-03T17:14:25Z</time>
      </trkpt>
      <trkpt lat="46.70444" lon="-1.90738">
        <ele>17.7</ele>
        <time>2020-06-03T17:14:26Z</time>
      </trkpt>
      <trkpt lat="46.70446" lon="-1.90743">
        <ele>17.7</ele>
        <time>2020-06-03T17:14:27Z</time>
      </trkpt>
      <trkpt lat="46.70447" lon="-1.90748">
        <ele>17.8</ele>
        <time>2020-06-03T17:14:28Z</time>
      </trkpt>
      <trkpt lat="46.70449" lon="-1.90753">
        <ele>17.9</ele>
        <time>2020-06-03T17:14:29Z</time>
      </trkpt>
      <trkpt lat="46.70451" lon="-1.90758">
        <ele>17.9</ele>
        <time>2020-06-03T17:14:30Z</time>
      </trkpt>
      <trkpt lat="46.70453" lon="-1.90764">
        <ele>18</ele>
        <time>2020-06-03T17:14:31Z</time>
      </trkpt>
      <trkpt lat="46.70455" lon="-1.9077">
        <ele>18.1</ele>
        <time>2020-06-03T17:14:32Z</time>
      </trkpt>
      <trkpt lat="46.70457" lon="-1.90775">
        <ele>18.2</ele>
        <time>2020-06-03T17:14:33Z</time>
      </trkpt>
      <trkpt lat="46.70459" lon="-1.9078">
        <ele>18.3</ele>
        <time>2020-06-03T17:14:34Z</time>
      </trkpt>
      <trkpt lat="46.70462" lon="-1.90786">
        <ele>18.4</ele>
        <time>2020-06-03T17:14:35Z</time>
      </trkpt>
      <trkpt lat="46.70464" lon="-1.90792">
        <ele>18.4</ele>
        <time>2020-06-03T17:14:36Z</time>
      </trkpt>
      <trkpt lat="46.70466" lon="-1.90797">
        <ele>18.5</ele>
        <time>2020-06-03T17:14:37Z</time>
      </trkpt>
      <trkpt lat="46.70468" lon="-1.90804">
        <ele>18.6</ele>
        <time>2020-06-03T17:14:38Z</time>
      </trkpt>
      <trkpt lat="46.70471" lon="-1.9081">
        <ele>18.7</ele>
        <time>2020-06-03T17:14:39Z</time>
      </trkpt>
      <trkpt lat="46.70473" lon="-1.90816">
        <ele>18.8</ele>
        <time>2020-06-03T17:14:40Z</time>
      </trkpt>
      <trkpt lat="46.70475" lon="-1.90822">
        <ele>18.9</ele>
        <time>2020-06-03T17:14:41Z</time>
      </trkpt>
      <trkpt lat="46.70477" lon="-1.90828">
        <ele>18.9</ele>
        <time>2020-06-03T17:14:42Z</time>
      </trkpt>
      <trkpt lat="46.70479" lon="-1.90834">
        <ele>19</ele>
        <time>2020-06-03T17:14:43Z</time>
      </trkpt>
      <trkpt lat="46.70481" lon="-1.90841">
        <ele>19.1</ele>
        <time>2020-06-03T17:14:44Z</time>
      </trkpt>
      <trkpt lat="46.70483" lon="-1.90847">
        <ele>19.2</ele>
        <time>2020-06-03T17:14:45Z</time>
      </trkpt>
      <trkpt lat="46.70485" lon="-1.90854">
        <ele>19.3</ele>
        <time>2020-06-03T17:14:46Z</time>
      </trkpt>
      <trkpt lat="46.70487" lon="-1.90861">
        <ele>19.4</ele>
        <time>2020-06-03T17:14:47Z</time>
      </trkpt>
      <trkpt lat="46.70489" lon="-1.90868">
        <ele>19.5</ele>
        <time>2020-06-03T17:14:48Z</time>
      </trkpt>
      <trkpt lat="46.7049" lon="-1.90874">
        <ele>19.6</ele>
        <time>2020-06-03T17:14:49Z</time>
      </trkpt>
      <trkpt lat="46.70492" lon="-1.9088">
        <ele>19.7</ele>
        <time>2020-06-03T17:14:50Z</time>
      </trkpt>
      <trkpt lat="46.70493" lon="-1.90885">
        <ele>19.8</ele>
        <time>2020-06-03T17:14:51Z</time>
      </trkpt>
      <trkpt lat="46.70495" lon="-1.90891">
        <ele>19.9</ele>
        <time>2020-06-03T17:14:52Z</time>
      </trkpt>
      <trkpt lat="46.70496" lon="-1.90896">
        <ele>20</ele>
        <time>2020-06-03T17:14:53Z</time>
      </trkpt>
      <trkpt lat="46.70498" lon="-1.90901">
        <ele>20.1</ele>
        <time>2020-06-03T17:14:54Z</time>
      </trkpt>
      <trkpt lat="46.70499" lon="-1.90906">
        <ele>20.1</ele>
        <time>2020-06-03T17:14:55Z</time>
      </trkpt>
      <trkpt lat="46.705" lon="-1.90911">
        <ele>20.2</ele>
        <time>2020-06-03T17:14:56Z</time>
      </trkpt>
      <trkpt lat="46.70502" lon="-1.90916">
        <ele>20.3</ele>
        <time>2020-06-03T17:14:57Z</time>
      </trkpt>
      <trkpt lat="46.70503" lon="-1.90921">
        <ele>20.4</ele>
        <time>2020-06-03T17:14:58Z</time>
      </trkpt>
      <trkpt lat="46.70505" lon="-1.90925">
        <ele>20.4</ele>
        <time>2020-06-03T17:14:59Z</time>
      </trkpt>
      <trkpt lat="46.70507" lon="-1.90932">
        <ele>20.5</ele>
        <time>2020-06-03T17:15:00Z</time>
      </trkpt>
      <trkpt lat="46.70509" lon="-1.90939">
        <ele>20.6</ele>
        <time>2020-06-03T17:15:01Z</time>
      </trkpt>
      <trkpt lat="46.70511" lon="-1.90946">
        <ele>20.7</ele>
        <time>2020-06-03T17:15:02Z</time>
      </trkpt>
      <trkpt lat="46.70513" lon="-1.90952">
        <ele>20.7</ele>
        <time>2020-06-03T17:15:03Z</time>
      </trkpt>
      <trkpt lat="46.70515" lon="-1.9096">
        <ele>20.8</ele>
        <time>2020-06-03T17:15:04Z</time>
      </trkpt>
      <trkpt lat="46.70517" lon="-1.90967">
        <ele>20.9</ele>
        <time>2020-06-03T17:15:05Z</time>
      </trkpt>
      <trkpt lat="46.70518" lon="-1.90976">
        <ele>21</ele>
        <time>2020-06-03T17:15:06Z</time>
      </trkpt>
      <trkpt lat="46.7052" lon="-1.90983">
        <ele>21.1</ele>
        <time>2020-06-03T17:15:07Z</time>
      </trkpt>
      <trkpt lat="46.70521" lon="-1.90992">
        <ele>21.2</ele>
        <time>2020-06-03T17:15:08Z</time>
      </trkpt>
      <trkpt lat="46.70523" lon="-1.90999">
        <ele>21.2</ele>
        <time>2020-06-03T17:15:09Z</time>
      </trkpt>
      <trkpt lat="46.70525" lon="-1.91006">
        <ele>21.3</ele>
        <time>2020-06-03T17:15:10Z</time>
      </trkpt>
      <trkpt lat="46.70526" lon="-1.91012">
        <ele>21.4</ele>
        <time>2020-06-03T17:15:11Z</time>
      </trkpt>
      <trkpt lat="46.70527" lon="-1.91019">
        <ele>21.4</ele>
        <time>2020-06-03T17:15:12Z</time>
      </trkpt>
      <trkpt lat="46.70528" lon="-1.91025">
        <ele>21.5</ele>
        <time>2020-06-03T17:15:13Z</time>
      </trkpt>
      <trkpt lat="46.7053" lon="-1.91031">
        <ele>21.5</ele>
        <time>2020-06-03T17:15:14Z</time>
      </trkpt>
      <trkpt lat="46.70532" lon="-1.91038">
        <ele>21.6</ele>
        <time>2020-06-03T17:15:15Z</time>
      </trkpt>
      <trkpt lat="46.70533" lon="-1.91045">
        <ele>21.6</ele>
        <time>2020-06-03T17:15:16Z</time>
      </trkpt>
      <trkpt lat="46.70534" lon="-1.91052">
        <ele>21.7</ele>
        <time>2020-06-03T17:15:17Z</time>
      </trkpt>
      <trkpt lat="46.70536" lon="-1.91059">
        <ele>21.8</ele>
        <time>2020-06-03T17:15:18Z</time>
      </trkpt>
      <trkpt lat="46.70537" lon="-1.91065">
        <ele>21.8</ele>
        <time>2020-06-03T17:15:19Z</time>
      </trkpt>
      <trkpt lat="46.70539" lon="-1.91072">
        <ele>21.9</ele>
        <time>2020-06-03T17:15:20Z</time>
      </trkpt>
      <trkpt lat="46.70541" lon="-1.91079">
        <ele>21.9</ele>
        <time>2020-06-03T17:15:21Z</time>
      </trkpt>
      <trkpt lat="46.70543" lon="-1.91086">
        <ele>21.9</ele>
        <time>2020-06-03T17:15:22Z</time>
      </trkpt>
      <trkpt lat="46.70545" lon="-1.91093">
        <ele>21.9</ele>
        <time>2020-06-03T17:15:23Z</time>
      </trkpt>
      <trkpt lat="46.70547" lon="-1.91099">
        <ele>22</ele>
        <time>2020-06-03T17:15:24Z</time>
      </trkpt>
      <trkpt lat="46.70549" lon="-1.91105">
        <ele>22</ele>
        <time>2020-06-03T17:15:25Z</time>
      </trkpt>
      <trkpt lat="46.70552" lon="-1.91111">
        <ele>22</ele>
        <time>2020-06-03T17:15:26Z</time>
      </trkpt>
      <trkpt lat="46.70554" lon="-1.91116">
        <ele>22</ele>
        <time>2020-06-03T17:15:27Z</time>
      </trkpt>
      <trkpt lat="46.70556" lon="-1.91121">
        <ele>22</ele>
        <time>2020-06-03T17:15:28Z</time>
      </trkpt>
      <trkpt lat="46.70557" lon="-1.91127">
        <ele>22</ele>
        <time>2020-06-03T17:15:29Z</time>
      </trkpt>
      <trkpt lat="46.70559" lon="-1.91132">
        <ele>22.1</ele>
        <time>2020-06-03T17:15:30Z</time>
      </trkpt>
      <trkpt lat="46.70561" lon="-1.91137">
        <ele>22.1</ele>
        <time>2020-06-03T17:15:31Z</time>
      </trkpt>
      <trkpt lat="46.70563" lon="-1.91142">
        <ele>22.1</ele>
        <time>2020-06-03T17:15:32Z</time>
      </trkpt>
      <trkpt lat="46.70566" lon="-1.91147">
        <ele>22.1</ele>
        <time>2020-06-03T17:15:33Z</time>
      </trkpt>
      <trkpt lat="46.7057" lon="-1.91149">
        <ele>22.1</ele>
        <time>2020-06-03T17:15:34Z</time>
      </trkpt>
      <trkpt lat="46.70574" lon="-1.91147">
        <ele>22.1</ele>
        <time>2020-06-03T17:15:35Z</time>
      </trkpt>
      <trkpt lat="46.70577" lon="-1.91142">
        <ele>22.1</ele>
        <time>2020-06-03T17:15:36Z</time>
      </trkpt>
      <trkpt lat="46.70579" lon="-1.91138">
        <ele>22.1</ele>
        <time>2020-06-03T17:15:37Z</time>
      </trkpt>
      <trkpt lat="46.70581" lon="-1.91133">
        <ele>22.1</ele>
        <time>2020-06-03T17:15:38Z</time>
      </trkpt>
      <trkpt lat="46.70582" lon="-1.91126">
        <ele>22.1</ele>
        <time>2020-06-03T17:15:39Z</time>
      </trkpt>
      <trkpt lat="46.70584" lon="-1.91121">
        <ele>22.1</ele>
        <time>2020-06-03T17:15:40Z</time>
      </trkpt>
      <trkpt lat="46.70586" lon="-1.91114">
        <ele>22</ele>
        <time>2020-06-03T17:15:41Z</time>
      </trkpt>
      <trkpt lat="46.70588" lon="-1.91108">
        <ele>22</ele>
        <time>2020-06-03T17:15:42Z</time>
      </trkpt>
      <trkpt lat="46.7059" lon="-1.911">
        <ele>22</ele>
        <time>2020-06-03T17:15:43Z</time>
      </trkpt>
      <trkpt lat="46.70592" lon="-1.91092">
        <ele>22</ele>
        <time>2020-06-03T17:15:44Z</time>
      </trkpt>
      <trkpt lat="46.70593" lon="-1.91086">
        <ele>22</ele>
        <time>2020-06-03T17:15:45Z</time>
      </trkpt>
      <trkpt lat="46.70596" lon="-1.9108">
        <ele>22</ele>
        <time>2020-06-03T17:15:46Z</time>
      </trkpt>
      <trkpt lat="46.70598" lon="-1.91074">
        <ele>22</ele>
        <time>2020-06-03T17:15:47Z</time>
      </trkpt>
      <trkpt lat="46.70601" lon="-1.91069">
        <ele>21.9</ele>
        <time>2020-06-03T17:15:48Z</time>
      </trkpt>
      <trkpt lat="46.70604" lon="-1.91065">
        <ele>21.9</ele>
        <time>2020-06-03T17:15:49Z</time>
      </trkpt>
      <trkpt lat="46.70608" lon="-1.9106">
        <ele>21.9</ele>
        <time>2020-06-03T17:15:50Z</time>
      </trkpt>
      <trkpt lat="46.70611" lon="-1.91055">
        <ele>21.9</ele>
        <time>2020-06-03T17:15:51Z</time>
      </trkpt>
      <trkpt lat="46.70614" lon="-1.9105">
        <ele>21.9</ele>
        <time>2020-06-03T17:15:52Z</time>
      </trkpt>
      <trkpt lat="46.70617" lon="-1.91044">
        <ele>21.8</ele>
        <time>2020-06-03T17:15:53Z</time>
      </trkpt>
      <trkpt lat="46.70621" lon="-1.91037">
        <ele>21.8</ele>
        <time>2020-06-03T17:15:54Z</time>
      </trkpt>
      <trkpt lat="46.70623" lon="-1.91033">
        <ele>21.8</ele>
        <time>2020-06-03T17:15:55Z</time>
      </trkpt>
      <trkpt lat="46.70627" lon="-1.91029">
        <ele>21.8</ele>
        <time>2020-06-03T17:15:56Z</time>
      </trkpt>
      <trkpt lat="46.70631" lon="-1.91024">
        <ele>21.8</ele>
        <time>2020-06-03T17:15:57Z</time>
      </trkpt>
      <trkpt lat="46.70635" lon="-1.9102">
        <ele>21.8</ele>
        <time>2020-06-03T17:15:58Z</time>
      </trkpt>
      <trkpt lat="46.70638" lon="-1.91015">
        <ele>21.8</ele>
        <time>2020-06-03T17:15:59Z</time>
      </trkpt>
      <trkpt lat="46.7064" lon="-1.91012">
        <ele>21.8</ele>
        <time>2020-06-03T17:16:00Z</time>
      </trkpt>
      <trkpt lat="46.70643" lon="-1.9101">
        <ele>21.8</ele>
        <time>2020-06-03T17:16:01Z</time>
      </trkpt>
      <trkpt lat="46.70643" lon="-1.91009">
        <ele>21.8</ele>
        <time>2020-06-03T17:16:02Z</time>
      </trkpt>
      <trkpt lat="46.70644" lon="-1.9101">
        <ele>21.8</ele>
        <time>2020-06-03T17:16:03Z</time>
      </trkpt>
      <trkpt lat="46.70645" lon="-1.9101">
        <ele>21.8</ele>
        <time>2020-06-03T17:16:04Z</time>
      </trkpt>
      <trkpt lat="46.70645" lon="-1.91012">
        <ele>21.7</ele>
        <time>2020-06-03T17:16:05Z</time>
      </trkpt>
      <trkpt lat="46.70644" lon="-1.91012">
        <ele>21.7</ele>
        <time>2020-06-03T17:16:06Z</time>
      </trkpt>
      <trkpt lat="46.70643" lon="-1.91014">
        <ele>21.7</ele>
        <time>2020-06-03T17:16:07Z</time>
      </trkpt>
      <trkpt lat="46.7064" lon="-1.91018">
        <ele>21.7</ele>
        <time>2020-06-03T17:16:08Z</time>
      </trkpt>
      <trkpt lat="46.70639" lon="-1.9102">
        <ele>21.7</ele>
        <time>2020-06-03T17:16:09Z</time>
      </trkpt>
      <trkpt lat="46.70636" lon="-1.91023">
        <ele>21.7</ele>
        <time>2020-06-03T17:16:10Z</time>
      </trkpt>
      <trkpt lat="46.70633" lon="-1.91027">
        <ele>21.7</ele>
        <time>2020-06-03T17:16:11Z</time>
      </trkpt>
      <trkpt lat="46.70629" lon="-1.9103">
        <ele>21.7</ele>
        <time>2020-06-03T17:16:12Z</time>
      </trkpt>
      <trkpt lat="46.70626" lon="-1.91034">
        <ele>21.7</ele>
        <time>2020-06-03T17:16:13Z</time>
      </trkpt>
      <trkpt lat="46.70622" lon="-1.91038">
        <ele>21.7</ele>
        <time>2020-06-03T17:16:14Z</time>
      </trkpt>
      <trkpt lat="46.70618" lon="-1.91042">
        <ele>21.6</ele>
        <time>2020-06-03T17:16:15Z</time>
      </trkpt>
      <trkpt lat="46.70614" lon="-1.91046">
        <ele>21.6</ele>
        <time>2020-06-03T17:16:16Z</time>
      </trkpt>
      <trkpt lat="46.7061" lon="-1.91049">
        <ele>21.6</ele>
        <time>2020-06-03T17:16:17Z</time>
      </trkpt>
      <trkpt lat="46.70607" lon="-1.91054">
        <ele>21.5</ele>
        <time>2020-06-03T17:16:18Z</time>
      </trkpt>
      <trkpt lat="46.70605" lon="-1.9106">
        <ele>21.5</ele>
        <time>2020-06-03T17:16:19Z</time>
      </trkpt>
      <trkpt lat="46.70603" lon="-1.91064">
        <ele>21.5</ele>
        <time>2020-06-03T17:16:20Z</time>
      </trkpt>
      <trkpt lat="46.70601" lon="-1.91067">
        <ele>21.5</ele>
        <time>2020-06-03T17:16:21Z</time>
      </trkpt>
      <trkpt lat="46.70601" lon="-1.91068">
        <ele>21.5</ele>
        <time>2020-06-03T17:16:22Z</time>
      </trkpt>
      <trkpt lat="46.70601" lon="-1.91067">
        <ele>21.5</ele>
        <time>2020-06-03T17:16:23Z</time>
      </trkpt>
      <trkpt lat="46.70602" lon="-1.91066">
        <ele>21.5</ele>
        <time>2020-06-03T17:16:24Z</time>
      </trkpt>
      <trkpt lat="46.70602" lon="-1.91065">
        <ele>21.4</ele>
        <time>2020-06-03T17:16:25Z</time>
      </trkpt>
      <trkpt lat="46.70603" lon="-1.91065">
        <ele>21.4</ele>
        <time>2020-06-03T17:16:26Z</time>
      </trkpt>
      <trkpt lat="46.70603" lon="-1.91064">
        <ele>21.4</ele>
        <time>2020-06-03T17:16:27Z</time>
      </trkpt>
      <trkpt lat="46.70603" lon="-1.91063">
        <ele>21.4</ele>
        <time>2020-06-03T17:16:28Z</time>
      </trkpt>
      <trkpt lat="46.70604" lon="-1.91062">
        <ele>21.4</ele>
        <time>2020-06-03T17:16:29Z</time>
      </trkpt>
      <trkpt lat="46.70604" lon="-1.91062">
        <ele>21.4</ele>
        <time>2020-06-03T17:16:30Z</time>
      </trkpt>
      <trkpt lat="46.70607" lon="-1.91056">
        <ele>21.4</ele>
        <time>2020-06-03T17:16:31Z</time>
      </trkpt>
      <trkpt lat="46.7061" lon="-1.91052">
        <ele>21.4</ele>
        <time>2020-06-03T17:16:32Z</time>
      </trkpt>
      <trkpt lat="46.70613" lon="-1.91049">
        <ele>21.3</ele>
        <time>2020-06-03T17:16:33Z</time>
      </trkpt>
      <trkpt lat="46.70616" lon="-1.91044">
        <ele>21.3</ele>
        <time>2020-06-03T17:16:34Z</time>
      </trkpt>
      <trkpt lat="46.70619" lon="-1.9104">
        <ele>21.3</ele>
        <time>2020-06-03T17:16:35Z</time>
      </trkpt>
      <trkpt lat="46.70623" lon="-1.91035">
        <ele>21.3</ele>
        <time>2020-06-03T17:16:36Z</time>
      </trkpt>
      <trkpt lat="46.70626" lon="-1.91031">
        <ele>21.3</ele>
        <time>2020-06-03T17:16:37Z</time>
      </trkpt>
      <trkpt lat="46.7063" lon="-1.91028">
        <ele>21.2</ele>
        <time>2020-06-03T17:16:38Z</time>
      </trkpt>
      <trkpt lat="46.70632" lon="-1.91024">
        <ele>21.2</ele>
        <time>2020-06-03T17:16:39Z</time>
      </trkpt>
      <trkpt lat="46.70636" lon="-1.9102">
        <ele>21.2</ele>
        <time>2020-06-03T17:16:40Z</time>
      </trkpt>
      <trkpt lat="46.70639" lon="-1.91016">
        <ele>21.2</ele>
        <time>2020-06-03T17:16:41Z</time>
      </trkpt>
      <trkpt lat="46.70641" lon="-1.91013">
        <ele>21.2</ele>
        <time>2020-06-03T17:16:42Z</time>
      </trkpt>
      <trkpt lat="46.70643" lon="-1.9101">
        <ele>21.1</ele>
        <time>2020-06-03T17:16:43Z</time>
      </trkpt>
      <trkpt lat="46.70645" lon="-1.91007">
        <ele>21.1</ele>
        <time>2020-06-03T17:16:44Z</time>
      </trkpt>
      <trkpt lat="46.70648" lon="-1.91003">
        <ele>21.1</ele>
        <time>2020-06-03T17:16:45Z</time>
      </trkpt>
      <trkpt lat="46.70649" lon="-1.91001">
        <ele>21.1</ele>
        <time>2020-06-03T17:16:46Z</time>
      </trkpt>
      <trkpt lat="46.70652" lon="-1.90998">
        <ele>21.1</ele>
        <time>2020-06-03T17:16:47Z</time>
      </trkpt>
      <trkpt lat="46.70656" lon="-1.90993">
        <ele>21</ele>
        <time>2020-06-03T17:16:48Z</time>
      </trkpt>
      <trkpt lat="46.70659" lon="-1.9099">
        <ele>21</ele>
        <time>2020-06-03T17:16:49Z</time>
      </trkpt>
      <trkpt lat="46.70662" lon="-1.90987">
        <ele>21</ele>
        <time>2020-06-03T17:16:50Z</time>
      </trkpt>
      <trkpt lat="46.70665" lon="-1.90984">
        <ele>21</ele>
        <time>2020-06-03T17:16:51Z</time>
      </trkpt>
      <trkpt lat="46.70669" lon="-1.9098">
        <ele>20.9</ele>
        <time>2020-06-03T17:16:52Z</time>
      </trkpt>
      <trkpt lat="46.70672" lon="-1.90977">
        <ele>20.9</ele>
        <time>2020-06-03T17:16:53Z</time>
      </trkpt>
      <trkpt lat="46.70675" lon="-1.90974">
        <ele>20.9</ele>
        <time>2020-06-03T17:16:54Z</time>
      </trkpt>
      <trkpt lat="46.70679" lon="-1.9097">
        <ele>20.9</ele>
        <time>2020-06-03T17:16:55Z</time>
      </trkpt>
      <trkpt lat="46.70683" lon="-1.90966">
        <ele>20.9</ele>
        <time>2020-06-03T17:16:56Z</time>
      </trkpt>
      <trkpt lat="46.70687" lon="-1.90961">
        <ele>20.9</ele>
        <time>2020-06-03T17:16:57Z</time>
      </trkpt>
      <trkpt lat="46.70691" lon="-1.90956">
        <ele>20.9</ele>
        <time>2020-06-03T17:16:58Z</time>
      </trkpt>
      <trkpt lat="46.70695" lon="-1.90951">
        <ele>20.8</ele>
        <time>2020-06-03T17:16:59Z</time>
      </trkpt>
      <trkpt lat="46.707" lon="-1.90947">
        <ele>20.8</ele>
        <time>2020-06-03T17:17:00Z</time>
      </trkpt>
      <trkpt lat="46.70705" lon="-1.90942">
        <ele>20.8</ele>
        <time>2020-06-03T17:17:01Z</time>
      </trkpt>
      <trkpt lat="46.70709" lon="-1.90937">
        <ele>20.8</ele>
        <time>2020-06-03T17:17:02Z</time>
      </trkpt>
      <trkpt lat="46.70714" lon="-1.90933">
        <ele>20.7</ele>
        <time>2020-06-03T17:17:03Z</time>
      </trkpt>
      <trkpt lat="46.70718" lon="-1.90929">
        <ele>20.7</ele>
        <time>2020-06-03T17:17:04Z</time>
      </trkpt>
      <trkpt lat="46.70723" lon="-1.90924">
        <ele>20.6</ele>
        <time>2020-06-03T17:17:05Z</time>
      </trkpt>
      <trkpt lat="46.70728" lon="-1.9092">
        <ele>20.5</ele>
        <time>2020-06-03T17:17:06Z</time>
      </trkpt>
      <trkpt lat="46.70733" lon="-1.90917">
        <ele>20.5</ele>
        <time>2020-06-03T17:17:07Z</time>
      </trkpt>
      <trkpt lat="46.70738" lon="-1.90913">
        <ele>20.4</ele>
        <time>2020-06-03T17:17:08Z</time>
      </trkpt>
      <trkpt lat="46.70743" lon="-1.9091">
        <ele>20.4</ele>
        <time>2020-06-03T17:17:09Z</time>
      </trkpt>
      <trkpt lat="46.70747" lon="-1.90905">
        <ele>20.3</ele>
        <time>2020-06-03T17:17:10Z</time>
      </trkpt>
      <trkpt lat="46.70751" lon="-1.909">
        <ele>20.2</ele>
        <time>2020-06-03T17:17:11Z</time>
      </trkpt>
      <trkpt lat="46.70756" lon="-1.90896">
        <ele>20.2</ele>
        <time>2020-06-03T17:17:12Z</time>
      </trkpt>
      <trkpt lat="46.7076" lon="-1.90892">
        <ele>20.1</ele>
        <time>2020-06-03T17:17:13Z</time>
      </trkpt>
      <trkpt lat="46.70763" lon="-1.90888">
        <ele>20.1</ele>
        <time>2020-06-03T17:17:14Z</time>
      </trkpt>
      <trkpt lat="46.70767" lon="-1.90885">
        <ele>20.1</ele>
        <time>2020-06-03T17:17:15Z</time>
      </trkpt>
      <trkpt lat="46.70771" lon="-1.90881">
        <ele>20</ele>
        <time>2020-06-03T17:17:16Z</time>
      </trkpt>
      <trkpt lat="46.70775" lon="-1.90877">
        <ele>20</ele>
        <time>2020-06-03T17:17:17Z</time>
      </trkpt>
      <trkpt lat="46.70779" lon="-1.90873">
        <ele>19.9</ele>
        <time>2020-06-03T17:17:18Z</time>
      </trkpt>
      <trkpt lat="46.70784" lon="-1.90868">
        <ele>19.9</ele>
        <time>2020-06-03T17:17:19Z</time>
      </trkpt>
      <trkpt lat="46.70789" lon="-1.90864">
        <ele>19.8</ele>
        <time>2020-06-03T17:17:20Z</time>
      </trkpt>
      <trkpt lat="46.70794" lon="-1.9086">
        <ele>19.8</ele>
        <time>2020-06-03T17:17:21Z</time>
      </trkpt>
      <trkpt lat="46.70799" lon="-1.90857">
        <ele>19.7</ele>
        <time>2020-06-03T17:17:22Z</time>
      </trkpt>
      <trkpt lat="46.70804" lon="-1.90854">
        <ele>19.7</ele>
        <time>2020-06-03T17:17:23Z</time>
      </trkpt>
      <trkpt lat="46.7081" lon="-1.90851">
        <ele>19.6</ele>
        <time>2020-06-03T17:17:24Z</time>
      </trkpt>
      <trkpt lat="46.70815" lon="-1.90847">
        <ele>19.5</ele>
        <time>2020-06-03T17:17:25Z</time>
      </trkpt>
      <trkpt lat="46.7082" lon="-1.90844">
        <ele>19.5</ele>
        <time>2020-06-03T17:17:26Z</time>
      </trkpt>
      <trkpt lat="46.70825" lon="-1.90841">
        <ele>19.4</ele>
        <time>2020-06-03T17:17:27Z</time>
      </trkpt>
      <trkpt lat="46.70829" lon="-1.90838">
        <ele>19.3</ele>
        <time>2020-06-03T17:17:28Z</time>
      </trkpt>
      <trkpt lat="46.70834" lon="-1.90836">
        <ele>19.3</ele>
        <time>2020-06-03T17:17:29Z</time>
      </trkpt>
      <trkpt lat="46.70839" lon="-1.90833">
        <ele>19.2</ele>
        <time>2020-06-03T17:17:30Z</time>
      </trkpt>
      <trkpt lat="46.70844" lon="-1.90829">
        <ele>19.2</ele>
        <time>2020-06-03T17:17:31Z</time>
      </trkpt>
      <trkpt lat="46.70848" lon="-1.90825">
        <ele>19.1</ele>
        <time>2020-06-03T17:17:32Z</time>
      </trkpt>
      <trkpt lat="46.70853" lon="-1.90822">
        <ele>19.1</ele>
        <time>2020-06-03T17:17:33Z</time>
      </trkpt>
      <trkpt lat="46.70858" lon="-1.90819">
        <ele>19.1</ele>
        <time>2020-06-03T17:17:34Z</time>
      </trkpt>
      <trkpt lat="46.70864" lon="-1.90816">
        <ele>19.1</ele>
        <time>2020-06-03T17:17:35Z</time>
      </trkpt>
      <trkpt lat="46.70869" lon="-1.90812">
        <ele>19.2</ele>
        <time>2020-06-03T17:17:36Z</time>
      </trkpt>
      <trkpt lat="46.70874" lon="-1.9081">
        <ele>19.2</ele>
        <time>2020-06-03T17:17:37Z</time>
      </trkpt>
      <trkpt lat="46.70879" lon="-1.90806">
        <ele>19.2</ele>
        <time>2020-06-03T17:17:38Z</time>
      </trkpt>
      <trkpt lat="46.70884" lon="-1.90803">
        <ele>19.2</ele>
        <time>2020-06-03T17:17:39Z</time>
      </trkpt>
      <trkpt lat="46.70889" lon="-1.908">
        <ele>19.2</ele>
        <time>2020-06-03T17:17:40Z</time>
      </trkpt>
      <trkpt lat="46.70893" lon="-1.90797">
        <ele>19.2</ele>
        <time>2020-06-03T17:17:41Z</time>
      </trkpt>
      <trkpt lat="46.70897" lon="-1.90795">
        <ele>19.1</ele>
        <time>2020-06-03T17:17:42Z</time>
      </trkpt>
      <trkpt lat="46.70902" lon="-1.90792">
        <ele>19.1</ele>
        <time>2020-06-03T17:17:43Z</time>
      </trkpt>
      <trkpt lat="46.70906" lon="-1.9079">
        <ele>19.1</ele>
        <time>2020-06-03T17:17:44Z</time>
      </trkpt>
      <trkpt lat="46.70909" lon="-1.90786">
        <ele>19.1</ele>
        <time>2020-06-03T17:17:45Z</time>
      </trkpt>
      <trkpt lat="46.70913" lon="-1.90783">
        <ele>19</ele>
        <time>2020-06-03T17:17:46Z</time>
      </trkpt>
      <trkpt lat="46.70917" lon="-1.9078">
        <ele>19</ele>
        <time>2020-06-03T17:17:47Z</time>
      </trkpt>
      <trkpt lat="46.7092" lon="-1.90777">
        <ele>19</ele>
        <time>2020-06-03T17:17:48Z</time>
      </trkpt>
      <trkpt lat="46.70925" lon="-1.90773">
        <ele>19</ele>
        <time>2020-06-03T17:17:49Z</time>
      </trkpt>
      <trkpt lat="46.70929" lon="-1.90769">
        <ele>19.1</ele>
        <time>2020-06-03T17:17:50Z</time>
      </trkpt>
      <trkpt lat="46.70934" lon="-1.90765">
        <ele>19.1</ele>
        <time>2020-06-03T17:17:51Z</time>
      </trkpt>
      <trkpt lat="46.70938" lon="-1.90759">
        <ele>19.1</ele>
        <time>2020-06-03T17:17:52Z</time>
      </trkpt>
      <trkpt lat="46.70942" lon="-1.90755">
        <ele>19.2</ele>
        <time>2020-06-03T17:17:53Z</time>
      </trkpt>
      <trkpt lat="46.70946" lon="-1.90751">
        <ele>19.2</ele>
        <time>2020-06-03T17:17:54Z</time>
      </trkpt>
      <trkpt lat="46.7095" lon="-1.90748">
        <ele>19.2</ele>
        <time>2020-06-03T17:17:55Z</time>
      </trkpt>
      <trkpt lat="46.70954" lon="-1.90744">
        <ele>19.2</ele>
        <time>2020-06-03T17:17:56Z</time>
      </trkpt>
      <trkpt lat="46.70958" lon="-1.9074">
        <ele>19.2</ele>
        <time>2020-06-03T17:17:57Z</time>
      </trkpt>
      <trkpt lat="46.70962" lon="-1.90735">
        <ele>19.1</ele>
        <time>2020-06-03T17:17:58Z</time>
      </trkpt>
      <trkpt lat="46.70966" lon="-1.9073">
        <ele>19.1</ele>
        <time>2020-06-03T17:17:59Z</time>
      </trkpt>
      <trkpt lat="46.7097" lon="-1.90726">
        <ele>19.1</ele>
        <time>2020-06-03T17:18:00Z</time>
      </trkpt>
      <trkpt lat="46.70974" lon="-1.90722">
        <ele>19.1</ele>
        <time>2020-06-03T17:18:01Z</time>
      </trkpt>
      <trkpt lat="46.70978" lon="-1.90718">
        <ele>19.1</ele>
        <time>2020-06-03T17:18:02Z</time>
      </trkpt>
      <trkpt lat="46.70982" lon="-1.90713">
        <ele>19.1</ele>
        <time>2020-06-03T17:18:03Z</time>
      </trkpt>
      <trkpt lat="46.70986" lon="-1.90709">
        <ele>19.1</ele>
        <time>2020-06-03T17:18:04Z</time>
      </trkpt>
      <trkpt lat="46.7099" lon="-1.90704">
        <ele>19.1</ele>
        <time>2020-06-03T17:18:05Z</time>
      </trkpt>
      <trkpt lat="46.70994" lon="-1.907">
        <ele>19.1</ele>
        <time>2020-06-03T17:18:06Z</time>
      </trkpt>
      <trkpt lat="46.70998" lon="-1.90695">
        <ele>19.1</ele>
        <time>2020-06-03T17:18:07Z</time>
      </trkpt>
      <trkpt lat="46.71003" lon="-1.9069">
        <ele>19</ele>
        <time>2020-06-03T17:18:08Z</time>
      </trkpt>
      <trkpt lat="46.71007" lon="-1.90686">
        <ele>19</ele>
        <time>2020-06-03T17:18:09Z</time>
      </trkpt>
      <trkpt lat="46.71011" lon="-1.90682">
        <ele>19</ele>
        <time>2020-06-03T17:18:10Z</time>
      </trkpt>
      <trkpt lat="46.71016" lon="-1.90677">
        <ele>19</ele>
        <time>2020-06-03T17:18:11Z</time>
      </trkpt>
      <trkpt lat="46.7102" lon="-1.90674">
        <ele>19</ele>
        <time>2020-06-03T17:18:12Z</time>
      </trkpt>
      <trkpt lat="46.71024" lon="-1.9067">
        <ele>18.9</ele>
        <time>2020-06-03T17:18:13Z</time>
      </trkpt>
      <trkpt lat="46.71028" lon="-1.90667">
        <ele>18.9</ele>
        <time>2020-06-03T17:18:14Z</time>
      </trkpt>
      <trkpt lat="46.71033" lon="-1.90663">
        <ele>18.9</ele>
        <time>2020-06-03T17:18:15Z</time>
      </trkpt>
      <trkpt lat="46.71037" lon="-1.9066">
        <ele>18.9</ele>
        <time>2020-06-03T17:18:16Z</time>
      </trkpt>
      <trkpt lat="46.71041" lon="-1.90657">
        <ele>18.8</ele>
        <time>2020-06-03T17:18:17Z</time>
      </trkpt>
      <trkpt lat="46.71045" lon="-1.90654">
        <ele>18.8</ele>
        <time>2020-06-03T17:18:18Z</time>
      </trkpt>
      <trkpt lat="46.7105" lon="-1.90651">
        <ele>18.7</ele>
        <time>2020-06-03T17:18:19Z</time>
      </trkpt>
      <trkpt lat="46.71055" lon="-1.90649">
        <ele>18.7</ele>
        <time>2020-06-03T17:18:20Z</time>
      </trkpt>
      <trkpt lat="46.71061" lon="-1.90648">
        <ele>18.6</ele>
        <time>2020-06-03T17:18:21Z</time>
      </trkpt>
      <trkpt lat="46.71067" lon="-1.90647">
        <ele>18.5</ele>
        <time>2020-06-03T17:18:22Z</time>
      </trkpt>
      <trkpt lat="46.71072" lon="-1.90646">
        <ele>18.4</ele>
        <time>2020-06-03T17:18:23Z</time>
      </trkpt>
      <trkpt lat="46.71079" lon="-1.90645">
        <ele>18.3</ele>
        <time>2020-06-03T17:18:24Z</time>
      </trkpt>
      <trkpt lat="46.71085" lon="-1.90644">
        <ele>18.2</ele>
        <time>2020-06-03T17:18:25Z</time>
      </trkpt>
      <trkpt lat="46.71091" lon="-1.90644">
        <ele>18.1</ele>
        <time>2020-06-03T17:18:26Z</time>
      </trkpt>
      <trkpt lat="46.71097" lon="-1.90643">
        <ele>18</ele>
        <time>2020-06-03T17:18:27Z</time>
      </trkpt>
      <trkpt lat="46.71102" lon="-1.90641">
        <ele>17.9</ele>
        <time>2020-06-03T17:18:28Z</time>
      </trkpt>
      <trkpt lat="46.71109" lon="-1.9064">
        <ele>17.8</ele>
        <time>2020-06-03T17:18:29Z</time>
      </trkpt>
      <trkpt lat="46.71115" lon="-1.90639">
        <ele>17.7</ele>
        <time>2020-06-03T17:18:30Z</time>
      </trkpt>
      <trkpt lat="46.7112" lon="-1.90637">
        <ele>17.6</ele>
        <time>2020-06-03T17:18:31Z</time>
      </trkpt>
      <trkpt lat="46.71126" lon="-1.90636">
        <ele>17.6</ele>
        <time>2020-06-03T17:18:32Z</time>
      </trkpt>
      <trkpt lat="46.71133" lon="-1.90634">
        <ele>17.5</ele>
        <time>2020-06-03T17:18:33Z</time>
      </trkpt>
      <trkpt lat="46.7114" lon="-1.90631">
        <ele>17.4</ele>
        <time>2020-06-03T17:18:34Z</time>
      </trkpt>
      <trkpt lat="46.71145" lon="-1.90629">
        <ele>17.3</ele>
        <time>2020-06-03T17:18:35Z</time>
      </trkpt>
      <trkpt lat="46.7115" lon="-1.90626">
        <ele>17.3</ele>
        <time>2020-06-03T17:18:36Z</time>
      </trkpt>
      <trkpt lat="46.71155" lon="-1.90625">
        <ele>17.2</ele>
        <time>2020-06-03T17:18:37Z</time>
      </trkpt>
      <trkpt lat="46.71161" lon="-1.90623">
        <ele>17.1</ele>
        <time>2020-06-03T17:18:38Z</time>
      </trkpt>
      <trkpt lat="46.71167" lon="-1.90621">
        <ele>17.1</ele>
        <time>2020-06-03T17:18:39Z</time>
      </trkpt>
      <trkpt lat="46.71173" lon="-1.9062">
        <ele>17</ele>
        <time>2020-06-03T17:18:40Z</time>
      </trkpt>
      <trkpt lat="46.71178" lon="-1.90619">
        <ele>16.9</ele>
        <time>2020-06-03T17:18:41Z</time>
      </trkpt>
      <trkpt lat="46.71184" lon="-1.90618">
        <ele>16.9</ele>
        <time>2020-06-03T17:18:42Z</time>
      </trkpt>
      <trkpt lat="46.71189" lon="-1.90618">
        <ele>16.8</ele>
        <time>2020-06-03T17:18:43Z</time>
      </trkpt>
      <trkpt lat="46.71196" lon="-1.90617">
        <ele>16.8</ele>
        <time>2020-06-03T17:18:44Z</time>
      </trkpt>
      <trkpt lat="46.71204" lon="-1.90618">
        <ele>16.7</ele>
        <time>2020-06-03T17:18:45Z</time>
      </trkpt>
      <trkpt lat="46.7121" lon="-1.90618">
        <ele>16.6</ele>
        <time>2020-06-03T17:18:46Z</time>
      </trkpt>
      <trkpt lat="46.71215" lon="-1.90619">
        <ele>16.6</ele>
        <time>2020-06-03T17:18:47Z</time>
      </trkpt>
      <trkpt lat="46.7122" lon="-1.90619">
        <ele>16.5</ele>
        <time>2020-06-03T17:18:48Z</time>
      </trkpt>
      <trkpt lat="46.71226" lon="-1.90618">
        <ele>16.5</ele>
        <time>2020-06-03T17:18:49Z</time>
      </trkpt>
      <trkpt lat="46.71232" lon="-1.90617">
        <ele>16.4</ele>
        <time>2020-06-03T17:18:50Z</time>
      </trkpt>
      <trkpt lat="46.71239" lon="-1.90617">
        <ele>16.3</ele>
        <time>2020-06-03T17:18:51Z</time>
      </trkpt>
      <trkpt lat="46.71245" lon="-1.90617">
        <ele>16.2</ele>
        <time>2020-06-03T17:18:52Z</time>
      </trkpt>
      <trkpt lat="46.71251" lon="-1.90616">
        <ele>16.1</ele>
        <time>2020-06-03T17:18:53Z</time>
      </trkpt>
      <trkpt lat="46.71257" lon="-1.90616">
        <ele>16</ele>
        <time>2020-06-03T17:18:54Z</time>
      </trkpt>
      <trkpt lat="46.71262" lon="-1.90614">
        <ele>15.9</ele>
        <time>2020-06-03T17:18:55Z</time>
      </trkpt>
      <trkpt lat="46.71266" lon="-1.90613">
        <ele>15.8</ele>
        <time>2020-06-03T17:18:56Z</time>
      </trkpt>
      <trkpt lat="46.71271" lon="-1.90613">
        <ele>15.8</ele>
        <time>2020-06-03T17:18:57Z</time>
      </trkpt>
      <trkpt lat="46.71276" lon="-1.90613">
        <ele>15.7</ele>
        <time>2020-06-03T17:18:58Z</time>
      </trkpt>
      <trkpt lat="46.71282" lon="-1.90613">
        <ele>15.6</ele>
        <time>2020-06-03T17:18:59Z</time>
      </trkpt>
      <trkpt lat="46.71287" lon="-1.90614">
        <ele>15.6</ele>
        <time>2020-06-03T17:19:00Z</time>
      </trkpt>
      <trkpt lat="46.71291" lon="-1.90614">
        <ele>15.5</ele>
        <time>2020-06-03T17:19:01Z</time>
      </trkpt>
      <trkpt lat="46.71295" lon="-1.90613">
        <ele>15.5</ele>
        <time>2020-06-03T17:19:02Z</time>
      </trkpt>
      <trkpt lat="46.71299" lon="-1.90613">
        <ele>15.4</ele>
        <time>2020-06-03T17:19:03Z</time>
      </trkpt>
      <trkpt lat="46.71304" lon="-1.90613">
        <ele>15.3</ele>
        <time>2020-06-03T17:19:04Z</time>
      </trkpt>
      <trkpt lat="46.71308" lon="-1.90613">
        <ele>15.3</ele>
        <time>2020-06-03T17:19:05Z</time>
      </trkpt>
      <trkpt lat="46.71312" lon="-1.90613">
        <ele>15.2</ele>
        <time>2020-06-03T17:19:06Z</time>
      </trkpt>
      <trkpt lat="46.71317" lon="-1.90613">
        <ele>15.1</ele>
        <time>2020-06-03T17:19:07Z</time>
      </trkpt>
      <trkpt lat="46.71322" lon="-1.90614">
        <ele>15.1</ele>
        <time>2020-06-03T17:19:08Z</time>
      </trkpt>
      <trkpt lat="46.71325" lon="-1.90613">
        <ele>15.1</ele>
        <time>2020-06-03T17:19:09Z</time>
      </trkpt>
      <trkpt lat="46.7133" lon="-1.90613">
        <ele>15.1</ele>
        <time>2020-06-03T17:19:10Z</time>
      </trkpt>
      <trkpt lat="46.71334" lon="-1.90613">
        <ele>15</ele>
        <time>2020-06-03T17:19:11Z</time>
      </trkpt>
      <trkpt lat="46.71339" lon="-1.90612">
        <ele>15</ele>
        <time>2020-06-03T17:19:12Z</time>
      </trkpt>
      <trkpt lat="46.71343" lon="-1.90612">
        <ele>14.9</ele>
        <time>2020-06-03T17:19:13Z</time>
      </trkpt>
      <trkpt lat="46.71347" lon="-1.90611">
        <ele>14.9</ele>
        <time>2020-06-03T17:19:14Z</time>
      </trkpt>
      <trkpt lat="46.71351" lon="-1.9061">
        <ele>14.8</ele>
        <time>2020-06-03T17:19:15Z</time>
      </trkpt>
      <trkpt lat="46.71356" lon="-1.9061">
        <ele>14.7</ele>
        <time>2020-06-03T17:19:16Z</time>
      </trkpt>
      <trkpt lat="46.7136" lon="-1.9061">
        <ele>14.6</ele>
        <time>2020-06-03T17:19:17Z</time>
      </trkpt>
      <trkpt lat="46.71364" lon="-1.90611">
        <ele>14.5</ele>
        <time>2020-06-03T17:19:18Z</time>
      </trkpt>
      <trkpt lat="46.71369" lon="-1.90611">
        <ele>14.4</ele>
        <time>2020-06-03T17:19:19Z</time>
      </trkpt>
      <trkpt lat="46.71373" lon="-1.9061">
        <ele>14.3</ele>
        <time>2020-06-03T17:19:20Z</time>
      </trkpt>
      <trkpt lat="46.71377" lon="-1.90609">
        <ele>14.2</ele>
        <time>2020-06-03T17:19:21Z</time>
      </trkpt>
      <trkpt lat="46.71381" lon="-1.90609">
        <ele>14.1</ele>
        <time>2020-06-03T17:19:22Z</time>
      </trkpt>
      <trkpt lat="46.71385" lon="-1.90608">
        <ele>14</ele>
        <time>2020-06-03T17:19:23Z</time>
      </trkpt>
      <trkpt lat="46.71388" lon="-1.90608">
        <ele>13.9</ele>
        <time>2020-06-03T17:19:24Z</time>
      </trkpt>
      <trkpt lat="46.71393" lon="-1.90607">
        <ele>13.8</ele>
        <time>2020-06-03T17:19:25Z</time>
      </trkpt>
      <trkpt lat="46.71397" lon="-1.90607">
        <ele>13.7</ele>
        <time>2020-06-03T17:19:26Z</time>
      </trkpt>
      <trkpt lat="46.71401" lon="-1.90607">
        <ele>13.6</ele>
        <time>2020-06-03T17:19:27Z</time>
      </trkpt>
      <trkpt lat="46.71405" lon="-1.90607">
        <ele>13.5</ele>
        <time>2020-06-03T17:19:28Z</time>
      </trkpt>
      <trkpt lat="46.71409" lon="-1.90607">
        <ele>13.4</ele>
        <time>2020-06-03T17:19:29Z</time>
      </trkpt>
      <trkpt lat="46.71413" lon="-1.90607">
        <ele>13.3</ele>
        <time>2020-06-03T17:19:30Z</time>
      </trkpt>
      <trkpt lat="46.71417" lon="-1.90607">
        <ele>13.2</ele>
        <time>2020-06-03T17:19:31Z</time>
      </trkpt>
      <trkpt lat="46.71422" lon="-1.90607">
        <ele>13.1</ele>
        <time>2020-06-03T17:19:32Z</time>
      </trkpt>
      <trkpt lat="46.71426" lon="-1.90607">
        <ele>13</ele>
        <time>2020-06-03T17:19:33Z</time>
      </trkpt>
      <trkpt lat="46.71431" lon="-1.90607">
        <ele>12.9</ele>
        <time>2020-06-03T17:19:34Z</time>
      </trkpt>
      <trkpt lat="46.71435" lon="-1.90608">
        <ele>12.8</ele>
        <time>2020-06-03T17:19:35Z</time>
      </trkpt>
      <trkpt lat="46.71439" lon="-1.90609">
        <ele>12.7</ele>
        <time>2020-06-03T17:19:36Z</time>
      </trkpt>
      <trkpt lat="46.71443" lon="-1.9061">
        <ele>12.6</ele>
        <time>2020-06-03T17:19:37Z</time>
      </trkpt>
      <trkpt lat="46.71447" lon="-1.90611">
        <ele>12.6</ele>
        <time>2020-06-03T17:19:38Z</time>
      </trkpt>
      <trkpt lat="46.71451" lon="-1.90613">
        <ele>12.5</ele>
        <time>2020-06-03T17:19:39Z</time>
      </trkpt>
      <trkpt lat="46.71455" lon="-1.90616">
        <ele>12.4</ele>
        <time>2020-06-03T17:19:40Z</time>
      </trkpt>
      <trkpt lat="46.7146" lon="-1.90619">
        <ele>12.3</ele>
        <time>2020-06-03T17:19:41Z</time>
      </trkpt>
      <trkpt lat="46.71465" lon="-1.90624">
        <ele>12.1</ele>
        <time>2020-06-03T17:19:42Z</time>
      </trkpt>
      <trkpt lat="46.71469" lon="-1.90626">
        <ele>12.1</ele>
        <time>2020-06-03T17:19:43Z</time>
      </trkpt>
      <trkpt lat="46.71473" lon="-1.90628">
        <ele>12</ele>
        <time>2020-06-03T17:19:44Z</time>
      </trkpt>
      <trkpt lat="46.71476" lon="-1.90631">
        <ele>11.9</ele>
        <time>2020-06-03T17:19:45Z</time>
      </trkpt>
      <trkpt lat="46.7148" lon="-1.90635">
        <ele>11.8</ele>
        <time>2020-06-03T17:19:46Z</time>
      </trkpt>
      <trkpt lat="46.71484" lon="-1.90637">
        <ele>11.7</ele>
        <time>2020-06-03T17:19:47Z</time>
      </trkpt>
      <trkpt lat="46.71487" lon="-1.90643">
        <ele>11.6</ele>
        <time>2020-06-03T17:19:48Z</time>
      </trkpt>
      <trkpt lat="46.7149" lon="-1.90647">
        <ele>11.6</ele>
        <time>2020-06-03T17:19:49Z</time>
      </trkpt>
      <trkpt lat="46.71492" lon="-1.9065">
        <ele>11.5</ele>
        <time>2020-06-03T17:19:50Z</time>
      </trkpt>
      <trkpt lat="46.71495" lon="-1.90654">
        <ele>11.4</ele>
        <time>2020-06-03T17:19:51Z</time>
      </trkpt>
      <trkpt lat="46.71501" lon="-1.90658">
        <ele>11.3</ele>
        <time>2020-06-03T17:19:52Z</time>
      </trkpt>
      <trkpt lat="46.71505" lon="-1.90662">
        <ele>11.2</ele>
        <time>2020-06-03T17:19:53Z</time>
      </trkpt>
      <trkpt lat="46.71509" lon="-1.90666">
        <ele>11.1</ele>
        <time>2020-06-03T17:19:54Z</time>
      </trkpt>
      <trkpt lat="46.71513" lon="-1.90671">
        <ele>11</ele>
        <time>2020-06-03T17:19:55Z</time>
      </trkpt>
      <trkpt lat="46.71517" lon="-1.90675">
        <ele>10.9</ele>
        <time>2020-06-03T17:19:56Z</time>
      </trkpt>
      <trkpt lat="46.7152" lon="-1.90679">
        <ele>10.8</ele>
        <time>2020-06-03T17:19:57Z</time>
      </trkpt>
      <trkpt lat="46.71523" lon="-1.90682">
        <ele>10.7</ele>
        <time>2020-06-03T17:19:58Z</time>
      </trkpt>
      <trkpt lat="46.71527" lon="-1.90686">
        <ele>10.6</ele>
        <time>2020-06-03T17:19:59Z</time>
      </trkpt>
      <trkpt lat="46.71529" lon="-1.90689">
        <ele>10.6</ele>
        <time>2020-06-03T17:20:00Z</time>
      </trkpt>
      <trkpt lat="46.71533" lon="-1.90693">
        <ele>10.5</ele>
        <time>2020-06-03T17:20:01Z</time>
      </trkpt>
      <trkpt lat="46.71536" lon="-1.90697">
        <ele>10.3</ele>
        <time>2020-06-03T17:20:02Z</time>
      </trkpt>
      <trkpt lat="46.71539" lon="-1.90701">
        <ele>10.3</ele>
        <time>2020-06-03T17:20:03Z</time>
      </trkpt>
      <trkpt lat="46.71542" lon="-1.90704">
        <ele>10.3</ele>
        <time>2020-06-03T17:20:04Z</time>
      </trkpt>
      <trkpt lat="46.71545" lon="-1.90704">
        <ele>10.3</ele>
        <time>2020-06-03T17:20:05Z</time>
      </trkpt>
      <trkpt lat="46.71548" lon="-1.90704">
        <ele>10.2</ele>
        <time>2020-06-03T17:20:06Z</time>
      </trkpt>
      <trkpt lat="46.71551" lon="-1.90703">
        <ele>10.2</ele>
        <time>2020-06-03T17:20:07Z</time>
      </trkpt>
      <trkpt lat="46.71554" lon="-1.907">
        <ele>10.2</ele>
        <time>2020-06-03T17:20:08Z</time>
      </trkpt>
      <trkpt lat="46.71558" lon="-1.90695">
        <ele>10.2</ele>
        <time>2020-06-03T17:20:09Z</time>
      </trkpt>
      <trkpt lat="46.71561" lon="-1.9069">
        <ele>10.1</ele>
        <time>2020-06-03T17:20:10Z</time>
      </trkpt>
      <trkpt lat="46.71565" lon="-1.90684">
        <ele>10.1</ele>
        <time>2020-06-03T17:20:11Z</time>
      </trkpt>
      <trkpt lat="46.7157" lon="-1.90678">
        <ele>10.1</ele>
        <time>2020-06-03T17:20:12Z</time>
      </trkpt>
      <trkpt lat="46.71574" lon="-1.90672">
        <ele>10.1</ele>
        <time>2020-06-03T17:20:13Z</time>
      </trkpt>
      <trkpt lat="46.71577" lon="-1.90667">
        <ele>10</ele>
        <time>2020-06-03T17:20:14Z</time>
      </trkpt>
      <trkpt lat="46.71581" lon="-1.90662">
        <ele>10</ele>
        <time>2020-06-03T17:20:15Z</time>
      </trkpt>
      <trkpt lat="46.71585" lon="-1.90656">
        <ele>10</ele>
        <time>2020-06-03T17:20:16Z</time>
      </trkpt>
      <trkpt lat="46.71589" lon="-1.90649">
        <ele>10</ele>
        <time>2020-06-03T17:20:17Z</time>
      </trkpt>
      <trkpt lat="46.71593" lon="-1.90642">
        <ele>9.9</ele>
        <time>2020-06-03T17:20:18Z</time>
      </trkpt>
      <trkpt lat="46.71598" lon="-1.90636">
        <ele>9.9</ele>
        <time>2020-06-03T17:20:19Z</time>
      </trkpt>
      <trkpt lat="46.71602" lon="-1.9063">
        <ele>9.9</ele>
        <time>2020-06-03T17:20:20Z</time>
      </trkpt>
      <trkpt lat="46.71608" lon="-1.90624">
        <ele>9.8</ele>
        <time>2020-06-03T17:20:21Z</time>
      </trkpt>
      <trkpt lat="46.71613" lon="-1.90618">
        <ele>9.8</ele>
        <time>2020-06-03T17:20:22Z</time>
      </trkpt>
      <trkpt lat="46.71617" lon="-1.90612">
        <ele>9.7</ele>
        <time>2020-06-03T17:20:23Z</time>
      </trkpt>
      <trkpt lat="46.71622" lon="-1.90606">
        <ele>9.6</ele>
        <time>2020-06-03T17:20:24Z</time>
      </trkpt>
      <trkpt lat="46.71627" lon="-1.906">
        <ele>9.5</ele>
        <time>2020-06-03T17:20:25Z</time>
      </trkpt>
      <trkpt lat="46.71633" lon="-1.90593">
        <ele>9.3</ele>
        <time>2020-06-03T17:20:26Z</time>
      </trkpt>
      <trkpt lat="46.71638" lon="-1.90586">
        <ele>9.2</ele>
        <time>2020-06-03T17:20:27Z</time>
      </trkpt>
      <trkpt lat="46.71643" lon="-1.90579">
        <ele>9.1</ele>
        <time>2020-06-03T17:20:28Z</time>
      </trkpt>
      <trkpt lat="46.71649" lon="-1.90573">
        <ele>9</ele>
        <time>2020-06-03T17:20:29Z</time>
      </trkpt>
      <trkpt lat="46.71654" lon="-1.90567">
        <ele>8.9</ele>
        <time>2020-06-03T17:20:30Z</time>
      </trkpt>
      <trkpt lat="46.71659" lon="-1.9056">
        <ele>8.8</ele>
        <time>2020-06-03T17:20:31Z</time>
      </trkpt>
      <trkpt lat="46.71665" lon="-1.90554">
        <ele>8.7</ele>
        <time>2020-06-03T17:20:32Z</time>
      </trkpt>
      <trkpt lat="46.71671" lon="-1.90547">
        <ele>8.6</ele>
        <time>2020-06-03T17:20:33Z</time>
      </trkpt>
      <trkpt lat="46.71676" lon="-1.90541">
        <ele>8.5</ele>
        <time>2020-06-03T17:20:34Z</time>
      </trkpt>
      <trkpt lat="46.7168" lon="-1.90534">
        <ele>8.5</ele>
        <time>2020-06-03T17:20:35Z</time>
      </trkpt>
      <trkpt lat="46.71685" lon="-1.90528">
        <ele>8.4</ele>
        <time>2020-06-03T17:20:36Z</time>
      </trkpt>
      <trkpt lat="46.71689" lon="-1.90522">
        <ele>8.4</ele>
        <time>2020-06-03T17:20:37Z</time>
      </trkpt>
      <trkpt lat="46.71694" lon="-1.90517">
        <ele>8.3</ele>
        <time>2020-06-03T17:20:38Z</time>
      </trkpt>
      <trkpt lat="46.71699" lon="-1.90511">
        <ele>8.1</ele>
        <time>2020-06-03T17:20:39Z</time>
      </trkpt>
      <trkpt lat="46.71705" lon="-1.90505">
        <ele>8</ele>
        <time>2020-06-03T17:20:40Z</time>
      </trkpt>
      <trkpt lat="46.71709" lon="-1.90499">
        <ele>7.9</ele>
        <time>2020-06-03T17:20:41Z</time>
      </trkpt>
      <trkpt lat="46.71714" lon="-1.90493">
        <ele>7.7</ele>
        <time>2020-06-03T17:20:42Z</time>
      </trkpt>
      <trkpt lat="46.71719" lon="-1.90487">
        <ele>7.6</ele>
        <time>2020-06-03T17:20:43Z</time>
      </trkpt>
      <trkpt lat="46.71724" lon="-1.90481">
        <ele>7.4</ele>
        <time>2020-06-03T17:20:44Z</time>
      </trkpt>
      <trkpt lat="46.71729" lon="-1.90475">
        <ele>7.3</ele>
        <time>2020-06-03T17:20:45Z</time>
      </trkpt>
      <trkpt lat="46.71735" lon="-1.90468">
        <ele>7.1</ele>
        <time>2020-06-03T17:20:46Z</time>
      </trkpt>
      <trkpt lat="46.7174" lon="-1.90462">
        <ele>7</ele>
        <time>2020-06-03T17:20:47Z</time>
      </trkpt>
      <trkpt lat="46.71745" lon="-1.90456">
        <ele>6.9</ele>
        <time>2020-06-03T17:20:48Z</time>
      </trkpt>
      <trkpt lat="46.7175" lon="-1.9045">
        <ele>6.9</ele>
        <time>2020-06-03T17:20:49Z</time>
      </trkpt>
      <trkpt lat="46.71755" lon="-1.90443">
        <ele>6.8</ele>
        <time>2020-06-03T17:20:50Z</time>
      </trkpt>
      <trkpt lat="46.7176" lon="-1.90436">
        <ele>6.8</ele>
        <time>2020-06-03T17:20:51Z</time>
      </trkpt>
      <trkpt lat="46.71765" lon="-1.9043">
        <ele>6.7</ele>
        <time>2020-06-03T17:20:52Z</time>
      </trkpt>
      <trkpt lat="46.7177" lon="-1.90424">
        <ele>6.6</ele>
        <time>2020-06-03T17:20:53Z</time>
      </trkpt>
      <trkpt lat="46.71776" lon="-1.90418">
        <ele>6.5</ele>
        <time>2020-06-03T17:20:54Z</time>
      </trkpt>
      <trkpt lat="46.71782" lon="-1.90411">
        <ele>6.4</ele>
        <time>2020-06-03T17:20:55Z</time>
      </trkpt>
      <trkpt lat="46.71787" lon="-1.90405">
        <ele>6.3</ele>
        <time>2020-06-03T17:20:56Z</time>
      </trkpt>
      <trkpt lat="46.71792" lon="-1.904">
        <ele>6.1</ele>
        <time>2020-06-03T17:20:57Z</time>
      </trkpt>
      <trkpt lat="46.71797" lon="-1.90395">
        <ele>6</ele>
        <time>2020-06-03T17:20:58Z</time>
      </trkpt>
      <trkpt lat="46.71802" lon="-1.90389">
        <ele>5.9</ele>
        <time>2020-06-03T17:20:59Z</time>
      </trkpt>
      <trkpt lat="46.71806" lon="-1.90384">
        <ele>5.8</ele>
        <time>2020-06-03T17:21:00Z</time>
      </trkpt>
      <trkpt lat="46.71811" lon="-1.90378">
        <ele>5.7</ele>
        <time>2020-06-03T17:21:01Z</time>
      </trkpt>
      <trkpt lat="46.71816" lon="-1.90373">
        <ele>5.6</ele>
        <time>2020-06-03T17:21:02Z</time>
      </trkpt>
      <trkpt lat="46.7182" lon="-1.90368">
        <ele>5.6</ele>
        <time>2020-06-03T17:21:03Z</time>
      </trkpt>
      <trkpt lat="46.71825" lon="-1.90362">
        <ele>5.5</ele>
        <time>2020-06-03T17:21:04Z</time>
      </trkpt>
      <trkpt lat="46.71829" lon="-1.90357">
        <ele>5.5</ele>
        <time>2020-06-03T17:21:05Z</time>
      </trkpt>
      <trkpt lat="46.71833" lon="-1.90352">
        <ele>5.5</ele>
        <time>2020-06-03T17:21:06Z</time>
      </trkpt>
      <trkpt lat="46.71838" lon="-1.90349">
        <ele>5.4</ele>
        <time>2020-06-03T17:21:07Z</time>
      </trkpt>
      <trkpt lat="46.71841" lon="-1.90348">
        <ele>5.4</ele>
        <time>2020-06-03T17:21:08Z</time>
      </trkpt>
      <trkpt lat="46.71845" lon="-1.90349">
        <ele>5.4</ele>
        <time>2020-06-03T17:21:09Z</time>
      </trkpt>
      <trkpt lat="46.71849" lon="-1.90353">
        <ele>5.2</ele>
        <time>2020-06-03T17:21:10Z</time>
      </trkpt>
      <trkpt lat="46.71854" lon="-1.9036">
        <ele>5.2</ele>
        <time>2020-06-03T17:21:11Z</time>
      </trkpt>
      <trkpt lat="46.71857" lon="-1.90369">
        <ele>5.1</ele>
        <time>2020-06-03T17:21:12Z</time>
      </trkpt>
      <trkpt lat="46.71859" lon="-1.90376">
        <ele>5.1</ele>
        <time>2020-06-03T17:21:13Z</time>
      </trkpt>
      <trkpt lat="46.7186" lon="-1.90384">
        <ele>5.1</ele>
        <time>2020-06-03T17:21:14Z</time>
      </trkpt>
      <trkpt lat="46.71861" lon="-1.90392">
        <ele>5</ele>
        <time>2020-06-03T17:21:15Z</time>
      </trkpt>
      <trkpt lat="46.71862" lon="-1.90399">
        <ele>5</ele>
        <time>2020-06-03T17:21:16Z</time>
      </trkpt>
      <trkpt lat="46.71861" lon="-1.90405">
        <ele>5</ele>
        <time>2020-06-03T17:21:17Z</time>
      </trkpt>
      <trkpt lat="46.71859" lon="-1.90413">
        <ele>5</ele>
        <time>2020-06-03T17:21:18Z</time>
      </trkpt>
      <trkpt lat="46.71857" lon="-1.90421">
        <ele>4.9</ele>
        <time>2020-06-03T17:21:19Z</time>
      </trkpt>
      <trkpt lat="46.71855" lon="-1.9043">
        <ele>5</ele>
        <time>2020-06-03T17:21:20Z</time>
      </trkpt>
      <trkpt lat="46.71853" lon="-1.90435">
        <ele>5</ele>
        <time>2020-06-03T17:21:21Z</time>
      </trkpt>
      <trkpt lat="46.71852" lon="-1.90441">
        <ele>5</ele>
        <time>2020-06-03T17:21:22Z</time>
      </trkpt>
      <trkpt lat="46.71851" lon="-1.90446">
        <ele>5.1</ele>
        <time>2020-06-03T17:21:23Z</time>
      </trkpt>
      <trkpt lat="46.71852" lon="-1.90451">
        <ele>5.1</ele>
        <time>2020-06-03T17:21:24Z</time>
      </trkpt>
      <trkpt lat="46.71854" lon="-1.90456">
        <ele>5.2</ele>
        <time>2020-06-03T17:21:25Z</time>
      </trkpt>
      <trkpt lat="46.71855" lon="-1.9046">
        <ele>5.2</ele>
        <time>2020-06-03T17:21:26Z</time>
      </trkpt>
      <trkpt lat="46.71858" lon="-1.90465">
        <ele>5.3</ele>
        <time>2020-06-03T17:21:27Z</time>
      </trkpt>
      <trkpt lat="46.7186" lon="-1.90469">
        <ele>5.3</ele>
        <time>2020-06-03T17:21:28Z</time>
      </trkpt>
      <trkpt lat="46.71862" lon="-1.90472">
        <ele>5.3</ele>
        <time>2020-06-03T17:21:29Z</time>
      </trkpt>
      <trkpt lat="46.71865" lon="-1.90477">
        <ele>5.4</ele>
        <time>2020-06-03T17:21:30Z</time>
      </trkpt>
      <trkpt lat="46.71867" lon="-1.90482">
        <ele>5.5</ele>
        <time>2020-06-03T17:21:31Z</time>
      </trkpt>
      <trkpt lat="46.71869" lon="-1.90486">
        <ele>5.5</ele>
        <time>2020-06-03T17:21:32Z</time>
      </trkpt>
      <trkpt lat="46.71871" lon="-1.90492">
        <ele>5.6</ele>
        <time>2020-06-03T17:21:33Z</time>
      </trkpt>
      <trkpt lat="46.71874" lon="-1.90496">
        <ele>5.7</ele>
        <time>2020-06-03T17:21:34Z</time>
      </trkpt>
      <trkpt lat="46.71875" lon="-1.90501">
        <ele>5.8</ele>
        <time>2020-06-03T17:21:35Z</time>
      </trkpt>
      <trkpt lat="46.71877" lon="-1.90507">
        <ele>5.9</ele>
        <time>2020-06-03T17:21:36Z</time>
      </trkpt>
      <trkpt lat="46.7188" lon="-1.90512">
        <ele>5.9</ele>
        <time>2020-06-03T17:21:37Z</time>
      </trkpt>
      <trkpt lat="46.71882" lon="-1.90516">
        <ele>6</ele>
        <time>2020-06-03T17:21:38Z</time>
      </trkpt>
      <trkpt lat="46.71884" lon="-1.90521">
        <ele>6.1</ele>
        <time>2020-06-03T17:21:39Z</time>
      </trkpt>
      <trkpt lat="46.71886" lon="-1.90526">
        <ele>6.2</ele>
        <time>2020-06-03T17:21:40Z</time>
      </trkpt>
      <trkpt lat="46.71888" lon="-1.9053">
        <ele>6.2</ele>
        <time>2020-06-03T17:21:41Z</time>
      </trkpt>
      <trkpt lat="46.7189" lon="-1.90534">
        <ele>6.3</ele>
        <time>2020-06-03T17:21:42Z</time>
      </trkpt>
      <trkpt lat="46.71892" lon="-1.90538">
        <ele>6.3</ele>
        <time>2020-06-03T17:21:43Z</time>
      </trkpt>
      <trkpt lat="46.71894" lon="-1.90542">
        <ele>6.4</ele>
        <time>2020-06-03T17:21:44Z</time>
      </trkpt>
      <trkpt lat="46.71897" lon="-1.90547">
        <ele>6.4</ele>
        <time>2020-06-03T17:21:45Z</time>
      </trkpt>
      <trkpt lat="46.71898" lon="-1.90548">
        <ele>6.5</ele>
        <time>2020-06-03T17:21:46Z</time>
      </trkpt>
      <trkpt lat="46.71901" lon="-1.90551">
        <ele>6.5</ele>
        <time>2020-06-03T17:21:47Z</time>
      </trkpt>
      <trkpt lat="46.71903" lon="-1.90555">
        <ele>6.5</ele>
        <time>2020-06-03T17:21:48Z</time>
      </trkpt>
      <trkpt lat="46.71905" lon="-1.90559">
        <ele>6.6</ele>
        <time>2020-06-03T17:21:49Z</time>
      </trkpt>
      <trkpt lat="46.71907" lon="-1.90563">
        <ele>6.6</ele>
        <time>2020-06-03T17:21:50Z</time>
      </trkpt>
      <trkpt lat="46.71908" lon="-1.90567">
        <ele>6.6</ele>
        <time>2020-06-03T17:21:51Z</time>
      </trkpt>
      <trkpt lat="46.7191" lon="-1.90572">
        <ele>6.6</ele>
        <time>2020-06-03T17:21:52Z</time>
      </trkpt>
      <trkpt lat="46.71912" lon="-1.90575">
        <ele>6.7</ele>
        <time>2020-06-03T17:21:53Z</time>
      </trkpt>
      <trkpt lat="46.71915" lon="-1.9058">
        <ele>6.7</ele>
        <time>2020-06-03T17:21:54Z</time>
      </trkpt>
      <trkpt lat="46.71917" lon="-1.90584">
        <ele>6.7</ele>
        <time>2020-06-03T17:21:55Z</time>
      </trkpt>
      <trkpt lat="46.71918" lon="-1.90589">
        <ele>6.7</ele>
        <time>2020-06-03T17:21:56Z</time>
      </trkpt>
      <trkpt lat="46.71919" lon="-1.90594">
        <ele>6.7</ele>
        <time>2020-06-03T17:21:57Z</time>
      </trkpt>
      <trkpt lat="46.7192" lon="-1.90598">
        <ele>6.7</ele>
        <time>2020-06-03T17:21:58Z</time>
      </trkpt>
      <trkpt lat="46.71922" lon="-1.90601">
        <ele>6.8</ele>
        <time>2020-06-03T17:21:59Z</time>
      </trkpt>
      <trkpt lat="46.71923" lon="-1.90606">
        <ele>6.8</ele>
        <time>2020-06-03T17:22:00Z</time>
      </trkpt>
      <trkpt lat="46.71925" lon="-1.90612">
        <ele>6.8</ele>
        <time>2020-06-03T17:22:01Z</time>
      </trkpt>
      <trkpt lat="46.71927" lon="-1.90617">
        <ele>6.8</ele>
        <time>2020-06-03T17:22:02Z</time>
      </trkpt>
      <trkpt lat="46.71929" lon="-1.90623">
        <ele>6.8</ele>
        <time>2020-06-03T17:22:03Z</time>
      </trkpt>
      <trkpt lat="46.71932" lon="-1.90628">
        <ele>6.8</ele>
        <time>2020-06-03T17:22:04Z</time>
      </trkpt>
      <trkpt lat="46.71934" lon="-1.90634">
        <ele>6.8</ele>
        <time>2020-06-03T17:22:05Z</time>
      </trkpt>
      <trkpt lat="46.71937" lon="-1.90639">
        <ele>6.8</ele>
        <time>2020-06-03T17:22:06Z</time>
      </trkpt>
      <trkpt lat="46.7194" lon="-1.90643">
        <ele>6.8</ele>
        <time>2020-06-03T17:22:07Z</time>
      </trkpt>
      <trkpt lat="46.71943" lon="-1.90648">
        <ele>6.8</ele>
        <time>2020-06-03T17:22:08Z</time>
      </trkpt>
      <trkpt lat="46.71945" lon="-1.90652">
        <ele>6.8</ele>
        <time>2020-06-03T17:22:09Z</time>
      </trkpt>
      <trkpt lat="46.71948" lon="-1.90657">
        <ele>6.8</ele>
        <time>2020-06-03T17:22:10Z</time>
      </trkpt>
      <trkpt lat="46.71949" lon="-1.90662">
        <ele>6.8</ele>
        <time>2020-06-03T17:22:11Z</time>
      </trkpt>
      <trkpt lat="46.71952" lon="-1.90667">
        <ele>6.8</ele>
        <time>2020-06-03T17:22:12Z</time>
      </trkpt>
      <trkpt lat="46.71955" lon="-1.90672">
        <ele>6.8</ele>
        <time>2020-06-03T17:22:13Z</time>
      </trkpt>
      <trkpt lat="46.71957" lon="-1.90677">
        <ele>6.8</ele>
        <time>2020-06-03T17:22:14Z</time>
      </trkpt>
      <trkpt lat="46.71959" lon="-1.90682">
        <ele>6.8</ele>
        <time>2020-06-03T17:22:15Z</time>
      </trkpt>
      <trkpt lat="46.71961" lon="-1.90688">
        <ele>6.7</ele>
        <time>2020-06-03T17:22:16Z</time>
      </trkpt>
      <trkpt lat="46.71964" lon="-1.90693">
        <ele>6.7</ele>
        <time>2020-06-03T17:22:17Z</time>
      </trkpt>
      <trkpt lat="46.71966" lon="-1.907">
        <ele>6.6</ele>
        <time>2020-06-03T17:22:18Z</time>
      </trkpt>
      <trkpt lat="46.71968" lon="-1.90706">
        <ele>6.6</ele>
        <time>2020-06-03T17:22:19Z</time>
      </trkpt>
      <trkpt lat="46.7197" lon="-1.90712">
        <ele>6.5</ele>
        <time>2020-06-03T17:22:20Z</time>
      </trkpt>
      <trkpt lat="46.71972" lon="-1.90716">
        <ele>6.5</ele>
        <time>2020-06-03T17:22:21Z</time>
      </trkpt>
      <trkpt lat="46.71974" lon="-1.90721">
        <ele>6.5</ele>
        <time>2020-06-03T17:22:22Z</time>
      </trkpt>
      <trkpt lat="46.71976" lon="-1.90726">
        <ele>6.4</ele>
        <time>2020-06-03T17:22:23Z</time>
      </trkpt>
      <trkpt lat="46.7198" lon="-1.90731">
        <ele>6.4</ele>
        <time>2020-06-03T17:22:24Z</time>
      </trkpt>
      <trkpt lat="46.71983" lon="-1.90737">
        <ele>6.3</ele>
        <time>2020-06-03T17:22:25Z</time>
      </trkpt>
      <trkpt lat="46.71986" lon="-1.90742">
        <ele>6.3</ele>
        <time>2020-06-03T17:22:26Z</time>
      </trkpt>
      <trkpt lat="46.71989" lon="-1.90747">
        <ele>6.2</ele>
        <time>2020-06-03T17:22:27Z</time>
      </trkpt>
      <trkpt lat="46.71991" lon="-1.90751">
        <ele>6.2</ele>
        <time>2020-06-03T17:22:28Z</time>
      </trkpt>
      <trkpt lat="46.71994" lon="-1.90757">
        <ele>6.2</ele>
        <time>2020-06-03T17:22:29Z</time>
      </trkpt>
      <trkpt lat="46.71997" lon="-1.90762">
        <ele>6.1</ele>
        <time>2020-06-03T17:22:30Z</time>
      </trkpt>
      <trkpt lat="46.71999" lon="-1.90768">
        <ele>6.1</ele>
        <time>2020-06-03T17:22:31Z</time>
      </trkpt>
      <trkpt lat="46.72001" lon="-1.90773">
        <ele>6.1</ele>
        <time>2020-06-03T17:22:32Z</time>
      </trkpt>
      <trkpt lat="46.72004" lon="-1.90778">
        <ele>6</ele>
        <time>2020-06-03T17:22:33Z</time>
      </trkpt>
      <trkpt lat="46.72007" lon="-1.90783">
        <ele>6</ele>
        <time>2020-06-03T17:22:34Z</time>
      </trkpt>
      <trkpt lat="46.72009" lon="-1.90788">
        <ele>5.9</ele>
        <time>2020-06-03T17:22:35Z</time>
      </trkpt>
      <trkpt lat="46.72012" lon="-1.90793">
        <ele>5.9</ele>
        <time>2020-06-03T17:22:36Z</time>
      </trkpt>
      <trkpt lat="46.72015" lon="-1.90799">
        <ele>5.8</ele>
        <time>2020-06-03T17:22:37Z</time>
      </trkpt>
      <trkpt lat="46.72018" lon="-1.90805">
        <ele>5.8</ele>
        <time>2020-06-03T17:22:38Z</time>
      </trkpt>
      <trkpt lat="46.72021" lon="-1.90811">
        <ele>5.7</ele>
        <time>2020-06-03T17:22:39Z</time>
      </trkpt>
      <trkpt lat="46.72023" lon="-1.90817">
        <ele>5.7</ele>
        <time>2020-06-03T17:22:40Z</time>
      </trkpt>
      <trkpt lat="46.72025" lon="-1.90823">
        <ele>5.6</ele>
        <time>2020-06-03T17:22:41Z</time>
      </trkpt>
      <trkpt lat="46.72027" lon="-1.90829">
        <ele>5.6</ele>
        <time>2020-06-03T17:22:42Z</time>
      </trkpt>
      <trkpt lat="46.72029" lon="-1.90835">
        <ele>5.5</ele>
        <time>2020-06-03T17:22:43Z</time>
      </trkpt>
      <trkpt lat="46.72031" lon="-1.9084">
        <ele>5.4</ele>
        <time>2020-06-03T17:22:44Z</time>
      </trkpt>
      <trkpt lat="46.72033" lon="-1.90847">
        <ele>5.4</ele>
        <time>2020-06-03T17:22:45Z</time>
      </trkpt>
      <trkpt lat="46.72036" lon="-1.90853">
        <ele>5.3</ele>
        <time>2020-06-03T17:22:46Z</time>
      </trkpt>
      <trkpt lat="46.72038" lon="-1.9086">
        <ele>5.2</ele>
        <time>2020-06-03T17:22:47Z</time>
      </trkpt>
      <trkpt lat="46.7204" lon="-1.90867">
        <ele>5.1</ele>
        <time>2020-06-03T17:22:48Z</time>
      </trkpt>
      <trkpt lat="46.72042" lon="-1.90874">
        <ele>5</ele>
        <time>2020-06-03T17:22:49Z</time>
      </trkpt>
      <trkpt lat="46.72045" lon="-1.9088">
        <ele>4.9</ele>
        <time>2020-06-03T17:22:50Z</time>
      </trkpt>
      <trkpt lat="46.72048" lon="-1.90886">
        <ele>4.8</ele>
        <time>2020-06-03T17:22:51Z</time>
      </trkpt>
      <trkpt lat="46.7205" lon="-1.90891">
        <ele>4.6</ele>
        <time>2020-06-03T17:22:52Z</time>
      </trkpt>
      <trkpt lat="46.72053" lon="-1.90896">
        <ele>4.5</ele>
        <time>2020-06-03T17:22:53Z</time>
      </trkpt>
      <trkpt lat="46.72057" lon="-1.90902">
        <ele>4.3</ele>
        <time>2020-06-03T17:22:54Z</time>
      </trkpt>
      <trkpt lat="46.7206" lon="-1.90908">
        <ele>4.2</ele>
        <time>2020-06-03T17:22:55Z</time>
      </trkpt>
      <trkpt lat="46.72064" lon="-1.90914">
        <ele>4</ele>
        <time>2020-06-03T17:22:56Z</time>
      </trkpt>
      <trkpt lat="46.72068" lon="-1.90921">
        <ele>3.8</ele>
        <time>2020-06-03T17:22:57Z</time>
      </trkpt>
      <trkpt lat="46.72071" lon="-1.90927">
        <ele>3.6</ele>
        <time>2020-06-03T17:22:58Z</time>
      </trkpt>
      <trkpt lat="46.72075" lon="-1.90933">
        <ele>3.5</ele>
        <time>2020-06-03T17:22:59Z</time>
      </trkpt>
      <trkpt lat="46.72079" lon="-1.90939">
        <ele>3.3</ele>
        <time>2020-06-03T17:23:00Z</time>
      </trkpt>
      <trkpt lat="46.72082" lon="-1.90945">
        <ele>3.2</ele>
        <time>2020-06-03T17:23:01Z</time>
      </trkpt>
      <trkpt lat="46.72086" lon="-1.90952">
        <ele>3</ele>
        <time>2020-06-03T17:23:02Z</time>
      </trkpt>
      <trkpt lat="46.72089" lon="-1.90959">
        <ele>2.8</ele>
        <time>2020-06-03T17:23:03Z</time>
      </trkpt>
      <trkpt lat="46.72093" lon="-1.90966">
        <ele>2.7</ele>
        <time>2020-06-03T17:23:04Z</time>
      </trkpt>
      <trkpt lat="46.72096" lon="-1.90973">
        <ele>2.6</ele>
        <time>2020-06-03T17:23:05Z</time>
      </trkpt>
      <trkpt lat="46.721" lon="-1.9098">
        <ele>2.5</ele>
        <time>2020-06-03T17:23:06Z</time>
      </trkpt>
      <trkpt lat="46.72103" lon="-1.90986">
        <ele>2.4</ele>
        <time>2020-06-03T17:23:07Z</time>
      </trkpt>
      <trkpt lat="46.72107" lon="-1.90992">
        <ele>2.4</ele>
        <time>2020-06-03T17:23:08Z</time>
      </trkpt>
      <trkpt lat="46.7211" lon="-1.90998">
        <ele>2.3</ele>
        <time>2020-06-03T17:23:09Z</time>
      </trkpt>
      <trkpt lat="46.72113" lon="-1.91004">
        <ele>2.3</ele>
        <time>2020-06-03T17:23:10Z</time>
      </trkpt>
      <trkpt lat="46.72116" lon="-1.9101">
        <ele>2.2</ele>
        <time>2020-06-03T17:23:11Z</time>
      </trkpt>
      <trkpt lat="46.72119" lon="-1.91017">
        <ele>2.2</ele>
        <time>2020-06-03T17:23:12Z</time>
      </trkpt>
      <trkpt lat="46.72122" lon="-1.91023">
        <ele>2.2</ele>
        <time>2020-06-03T17:23:13Z</time>
      </trkpt>
      <trkpt lat="46.72125" lon="-1.91029">
        <ele>2.2</ele>
        <time>2020-06-03T17:23:14Z</time>
      </trkpt>
      <trkpt lat="46.72128" lon="-1.91034">
        <ele>2.1</ele>
        <time>2020-06-03T17:23:15Z</time>
      </trkpt>
      <trkpt lat="46.72132" lon="-1.91039">
        <ele>2.1</ele>
        <time>2020-06-03T17:23:16Z</time>
      </trkpt>
      <trkpt lat="46.72136" lon="-1.91044">
        <ele>2</ele>
        <time>2020-06-03T17:23:17Z</time>
      </trkpt>
      <trkpt lat="46.7214" lon="-1.91047">
        <ele>2</ele>
        <time>2020-06-03T17:23:18Z</time>
      </trkpt>
      <trkpt lat="46.72143" lon="-1.91051">
        <ele>1.9</ele>
        <time>2020-06-03T17:23:19Z</time>
      </trkpt>
      <trkpt lat="46.72146" lon="-1.91055">
        <ele>1.8</ele>
        <time>2020-06-03T17:23:20Z</time>
      </trkpt>
      <trkpt lat="46.72149" lon="-1.91059">
        <ele>1.8</ele>
        <time>2020-06-03T17:23:21Z</time>
      </trkpt>
      <trkpt lat="46.72152" lon="-1.91062">
        <ele>1.7</ele>
        <time>2020-06-03T17:23:22Z</time>
      </trkpt>
      <trkpt lat="46.72156" lon="-1.91065">
        <ele>1.7</ele>
        <time>2020-06-03T17:23:23Z</time>
      </trkpt>
      <trkpt lat="46.72159" lon="-1.91067">
        <ele>1.6</ele>
        <time>2020-06-03T17:23:24Z</time>
      </trkpt>
      <trkpt lat="46.72163" lon="-1.9107">
        <ele>1.6</ele>
        <time>2020-06-03T17:23:25Z</time>
      </trkpt>
      <trkpt lat="46.72166" lon="-1.91073">
        <ele>1.5</ele>
        <time>2020-06-03T17:23:26Z</time>
      </trkpt>
      <trkpt lat="46.72169" lon="-1.91075">
        <ele>1.5</ele>
        <time>2020-06-03T17:23:27Z</time>
      </trkpt>
      <trkpt lat="46.72173" lon="-1.91078">
        <ele>1.4</ele>
        <time>2020-06-03T17:23:28Z</time>
      </trkpt>
      <trkpt lat="46.72176" lon="-1.91081">
        <ele>1.4</ele>
        <time>2020-06-03T17:23:29Z</time>
      </trkpt>
      <trkpt lat="46.7218" lon="-1.91085">
        <ele>1.3</ele>
        <time>2020-06-03T17:23:30Z</time>
      </trkpt>
      <trkpt lat="46.72183" lon="-1.91087">
        <ele>1.3</ele>
        <time>2020-06-03T17:23:31Z</time>
      </trkpt>
      <trkpt lat="46.72186" lon="-1.91091">
        <ele>1.3</ele>
        <time>2020-06-03T17:23:32Z</time>
      </trkpt>
      <trkpt lat="46.72189" lon="-1.91093">
        <ele>1.2</ele>
        <time>2020-06-03T17:23:33Z</time>
      </trkpt>
      <trkpt lat="46.72193" lon="-1.91096">
        <ele>1.2</ele>
        <time>2020-06-03T17:23:34Z</time>
      </trkpt>
      <trkpt lat="46.72196" lon="-1.91099">
        <ele>1.2</ele>
        <time>2020-06-03T17:23:35Z</time>
      </trkpt>
      <trkpt lat="46.722" lon="-1.91102">
        <ele>1.1</ele>
        <time>2020-06-03T17:23:36Z</time>
      </trkpt>
      <trkpt lat="46.72204" lon="-1.91105">
        <ele>1.1</ele>
        <time>2020-06-03T17:23:37Z</time>
      </trkpt>
      <trkpt lat="46.72207" lon="-1.91109">
        <ele>1.1</ele>
        <time>2020-06-03T17:23:38Z</time>
      </trkpt>
      <trkpt lat="46.7221" lon="-1.91112">
        <ele>1</ele>
        <time>2020-06-03T17:23:39Z</time>
      </trkpt>
      <trkpt lat="46.72213" lon="-1.91116">
        <ele>1</ele>
        <time>2020-06-03T17:23:40Z</time>
      </trkpt>
      <trkpt lat="46.72217" lon="-1.9112">
        <ele>1</ele>
        <time>2020-06-03T17:23:41Z</time>
      </trkpt>
      <trkpt lat="46.72221" lon="-1.91123">
        <ele>0.9</ele>
        <time>2020-06-03T17:23:42Z</time>
      </trkpt>
      <trkpt lat="46.72225" lon="-1.91127">
        <ele>0.9</ele>
        <time>2020-06-03T17:23:43Z</time>
      </trkpt>
      <trkpt lat="46.72229" lon="-1.91129">
        <ele>0.8</ele>
        <time>2020-06-03T17:23:44Z</time>
      </trkpt>
      <trkpt lat="46.72232" lon="-1.91132">
        <ele>0.8</ele>
        <time>2020-06-03T17:23:45Z</time>
      </trkpt>
      <trkpt lat="46.72235" lon="-1.91135">
        <ele>0.8</ele>
        <time>2020-06-03T17:23:46Z</time>
      </trkpt>
      <trkpt lat="46.72238" lon="-1.91137">
        <ele>0.8</ele>
        <time>2020-06-03T17:23:47Z</time>
      </trkpt>
      <trkpt lat="46.72241" lon="-1.9114">
        <ele>0.8</ele>
        <time>2020-06-03T17:23:48Z</time>
      </trkpt>
      <trkpt lat="46.72245" lon="-1.91143">
        <ele>0.8</ele>
        <time>2020-06-03T17:23:49Z</time>
      </trkpt>
      <trkpt lat="46.72249" lon="-1.91146">
        <ele>0.7</ele>
        <time>2020-06-03T17:23:50Z</time>
      </trkpt>
      <trkpt lat="46.72252" lon="-1.91149">
        <ele>0.7</ele>
        <time>2020-06-03T17:23:51Z</time>
      </trkpt>
      <trkpt lat="46.72256" lon="-1.91152">
        <ele>0.7</ele>
        <time>2020-06-03T17:23:52Z</time>
      </trkpt>
      <trkpt lat="46.72259" lon="-1.91155">
        <ele>0.7</ele>
        <time>2020-06-03T17:23:53Z</time>
      </trkpt>
      <trkpt lat="46.72263" lon="-1.91159">
        <ele>0.6</ele>
        <time>2020-06-03T17:23:54Z</time>
      </trkpt>
      <trkpt lat="46.72266" lon="-1.91162">
        <ele>0.6</ele>
        <time>2020-06-03T17:23:55Z</time>
      </trkpt>
      <trkpt lat="46.72269" lon="-1.91166">
        <ele>0.5</ele>
        <time>2020-06-03T17:23:56Z</time>
      </trkpt>
      <trkpt lat="46.72273" lon="-1.9117">
        <ele>0.5</ele>
        <time>2020-06-03T17:23:57Z</time>
      </trkpt>
      <trkpt lat="46.72277" lon="-1.91173">
        <ele>0.5</ele>
        <time>2020-06-03T17:23:58Z</time>
      </trkpt>
      <trkpt lat="46.72281" lon="-1.91176">
        <ele>0.4</ele>
        <time>2020-06-03T17:23:59Z</time>
      </trkpt>
      <trkpt lat="46.72285" lon="-1.91179">
        <ele>0.4</ele>
        <time>2020-06-03T17:24:00Z</time>
      </trkpt>
      <trkpt lat="46.72289" lon="-1.91182">
        <ele>0.4</ele>
        <time>2020-06-03T17:24:01Z</time>
      </trkpt>
      <trkpt lat="46.72293" lon="-1.91185">
        <ele>0.4</ele>
        <time>2020-06-03T17:24:02Z</time>
      </trkpt>
      <trkpt lat="46.72296" lon="-1.91187">
        <ele>0.3</ele>
        <time>2020-06-03T17:24:03Z</time>
      </trkpt>
      <trkpt lat="46.723" lon="-1.9119">
        <ele>0.3</ele>
        <time>2020-06-03T17:24:04Z</time>
      </trkpt>
      <trkpt lat="46.72304" lon="-1.91194">
        <ele>0.3</ele>
        <time>2020-06-03T17:24:05Z</time>
      </trkpt>
      <trkpt lat="46.72308" lon="-1.91197">
        <ele>0.3</ele>
        <time>2020-06-03T17:24:06Z</time>
      </trkpt>
      <trkpt lat="46.72311" lon="-1.91201">
        <ele>0.3</ele>
        <time>2020-06-03T17:24:07Z</time>
      </trkpt>
      <trkpt lat="46.72315" lon="-1.91205">
        <ele>0.2</ele>
        <time>2020-06-03T17:24:08Z</time>
      </trkpt>
      <trkpt lat="46.72319" lon="-1.91209">
        <ele>0.2</ele>
        <time>2020-06-03T17:24:09Z</time>
      </trkpt>
      <trkpt lat="46.72322" lon="-1.91213">
        <ele>0.2</ele>
        <time>2020-06-03T17:24:10Z</time>
      </trkpt>
      <trkpt lat="46.72327" lon="-1.91216">
        <ele>0.1</ele>
        <time>2020-06-03T17:24:11Z</time>
      </trkpt>
      <trkpt lat="46.72331" lon="-1.91219">
        <ele>0.1</ele>
        <time>2020-06-03T17:24:12Z</time>
      </trkpt>
      <trkpt lat="46.72335" lon="-1.91223">
        <ele>1</ele>
        <time>2020-06-03T17:24:13Z</time>
      </trkpt>
      <trkpt lat="46.7234" lon="-1.91224">
        <ele>1</ele>
        <time>2020-06-03T17:24:14Z</time>
      </trkpt>
      <trkpt lat="46.72343" lon="-1.91224">
        <ele>1</ele>
        <time>2020-06-03T17:24:15Z</time>
      </trkpt>
      <trkpt lat="46.72347" lon="-1.91223">
        <ele>-0.1</ele>
        <time>2020-06-03T17:24:16Z</time>
      </trkpt>
      <trkpt lat="46.72352" lon="-1.91221">
        <ele>-0.1</ele>
        <time>2020-06-03T17:24:17Z</time>
      </trkpt>
      <trkpt lat="46.72356" lon="-1.91218">
        <ele>-0.1</ele>
        <time>2020-06-03T17:24:18Z</time>
      </trkpt>
      <trkpt lat="46.7236" lon="-1.91213">
        <ele>-0.2</ele>
        <time>2020-06-03T17:24:19Z</time>
      </trkpt>
      <trkpt lat="46.72364" lon="-1.91208">
        <ele>-0.2</ele>
        <time>2020-06-03T17:24:20Z</time>
      </trkpt>
      <trkpt lat="46.72366" lon="-1.91203">
        <ele>-0.2</ele>
        <time>2020-06-03T17:24:21Z</time>
      </trkpt>
      <trkpt lat="46.72368" lon="-1.91197">
        <ele>-0.2</ele>
        <time>2020-06-03T17:24:22Z</time>
      </trkpt>
      <trkpt lat="46.72371" lon="-1.91191">
        <ele>-0.2</ele>
        <time>2020-06-03T17:24:23Z</time>
      </trkpt>
      <trkpt lat="46.72374" lon="-1.91185">
        <ele>-0.1</ele>
        <time>2020-06-03T17:24:24Z</time>
      </trkpt>
      <trkpt lat="46.72376" lon="-1.91179">
        <ele>-0.1</ele>
        <time>2020-06-03T17:24:25Z</time>
      </trkpt>
      <trkpt lat="46.72378" lon="-1.91174">
        <ele>-0.1</ele>
        <time>2020-06-03T17:24:26Z</time>
      </trkpt>
      <trkpt lat="46.7238" lon="-1.9117">
        <ele>-0.1</ele>
        <time>2020-06-03T17:24:27Z</time>
      </trkpt>
      <trkpt lat="46.72383" lon="-1.91164">
        <ele>-0.1</ele>
        <time>2020-06-03T17:24:28Z</time>
      </trkpt>
      <trkpt lat="46.72385" lon="-1.91159">
        <ele>1</ele>
        <time>2020-06-03T17:24:29Z</time>
      </trkpt>
      <trkpt lat="46.72388" lon="-1.91155">
        <ele>1</ele>
        <time>2020-06-03T17:24:30Z</time>
      </trkpt>
      <trkpt lat="46.72392" lon="-1.91151">
        <ele>1</ele>
        <time>2020-06-03T17:24:31Z</time>
      </trkpt>
      <trkpt lat="46.72396" lon="-1.91149">
        <ele>0.1</ele>
        <time>2020-06-03T17:24:32Z</time>
      </trkpt>
      <trkpt lat="46.72397" lon="-1.91149">
        <ele>0.1</ele>
        <time>2020-06-03T17:24:33Z</time>
      </trkpt>
      <trkpt lat="46.72401" lon="-1.91147">
        <ele>0.1</ele>
        <time>2020-06-03T17:24:34Z</time>
      </trkpt>
      <trkpt lat="46.72402" lon="-1.91146">
        <ele>0.1</ele>
        <time>2020-06-03T17:24:35Z</time>
      </trkpt>
      <trkpt lat="46.72404" lon="-1.91145">
        <ele>0.1</ele>
        <time>2020-06-03T17:24:36Z</time>
      </trkpt>
      <trkpt lat="46.72405" lon="-1.91145">
        <ele>0.1</ele>
        <time>2020-06-03T17:24:37Z</time>
      </trkpt>
      <trkpt lat="46.72405" lon="-1.91144">
        <ele>0.1</ele>
        <time>2020-06-03T17:24:38Z</time>
      </trkpt>
      <trkpt lat="46.72405" lon="-1.91144">
        <ele>0.1</ele>
        <time>2020-06-03T17:24:39Z</time>
      </trkpt>
      <trkpt lat="46.72405" lon="-1.91144">
        <ele>0.1</ele>
        <time>2020-06-03T17:24:40Z</time>
      </trkpt>
      <trkpt lat="46.72404" lon="-1.91144">
        <ele>0.1</ele>
        <time>2020-06-03T17:24:41Z</time>
      </trkpt>
      <trkpt lat="46.72404" lon="-1.91144">
        <ele>0.1</ele>
        <time>2020-06-03T17:24:42Z</time>
      </trkpt>
      <trkpt lat="46.72404" lon="-1.91144">
        <ele>0.1</ele>
        <time>2020-06-03T17:24:43Z</time>
      </trkpt>
      <trkpt lat="46.72404" lon="-1.91144">
        <ele>0.1</ele>
        <time>2020-06-03T17:24:44Z</time>
      </trkpt>
      <trkpt lat="46.72404" lon="-1.91144">
        <ele>0.1</ele>
        <time>2020-06-03T17:24:45Z</time>
      </trkpt>
      <trkpt lat="46.72404" lon="-1.91144">
        <ele>0.1</ele>
        <time>2020-06-03T17:24:46Z</time>
      </trkpt>
      <trkpt lat="46.72404" lon="-1.91144">
        <ele>0.1</ele>
        <time>2020-06-03T17:24:47Z</time>
      </trkpt>
      <trkpt lat="46.72405" lon="-1.91143">
        <ele>0.1</ele>
        <time>2020-06-03T17:24:48Z</time>
      </trkpt>
      <trkpt lat="46.72404" lon="-1.91142">
        <ele>0.1</ele>
        <time>2020-06-03T17:24:49Z</time>
      </trkpt>
      <trkpt lat="46.72405" lon="-1.91142">
        <ele>0.2</ele>
        <time>2020-06-03T17:24:50Z</time>
      </trkpt>
    </trkseg>
  </trk>
  <trk>
    <name><![CDATA[Jour 5 - Saint Gilles Croix de vie / Pornic]]></name>
    <trkseg>
      <trkpt lat="46.7239" lon="-1.91153">
        <ele>0.1</ele>
        <time>2020-06-04T07:36:01Z</time>
      </trkpt>
      <trkpt lat="46.72391" lon="-1.91161">
        <ele>1</ele>
        <time>2020-06-04T07:36:02Z</time>
      </trkpt>
      <trkpt lat="46.72391" lon="-1.91158">
        <ele>1</ele>
        <time>2020-06-04T07:36:03Z</time>
      </trkpt>
      <trkpt lat="46.72391" lon="-1.91157">
        <ele>1</ele>
        <time>2020-06-04T07:36:04Z</time>
      </trkpt>
      <trkpt lat="46.72391" lon="-1.91153">
        <ele>1</ele>
        <time>2020-06-04T07:36:05Z</time>
      </trkpt>
      <trkpt lat="46.7239" lon="-1.91151">
        <ele>1</ele>
        <time>2020-06-04T07:36:06Z</time>
      </trkpt>
      <trkpt lat="46.7239" lon="-1.91151">
        <ele>1</ele>
        <time>2020-06-04T07:36:07Z</time>
      </trkpt>
      <trkpt lat="46.7239" lon="-1.91151">
        <ele>1</ele>
        <time>2020-06-04T07:36:08Z</time>
      </trkpt>
      <trkpt lat="46.72391" lon="-1.91152">
        <ele>1</ele>
        <time>2020-06-04T07:36:09Z</time>
      </trkpt>
      <trkpt lat="46.72389" lon="-1.91154">
        <ele>1</ele>
        <time>2020-06-04T07:36:10Z</time>
      </trkpt>
      <trkpt lat="46.72389" lon="-1.91155">
        <ele>1</ele>
        <time>2020-06-04T07:36:11Z</time>
      </trkpt>
      <trkpt lat="46.72387" lon="-1.91157">
        <ele>1</ele>
        <time>2020-06-04T07:36:12Z</time>
      </trkpt>
      <trkpt lat="46.72384" lon="-1.9116">
        <ele>-0.1</ele>
        <time>2020-06-04T07:36:13Z</time>
      </trkpt>
      <trkpt lat="46.72382" lon="-1.91161">
        <ele>-0.1</ele>
        <time>2020-06-04T07:36:14Z</time>
      </trkpt>
      <trkpt lat="46.72379" lon="-1.91165">
        <ele>-0.1</ele>
        <time>2020-06-04T07:36:15Z</time>
      </trkpt>
      <trkpt lat="46.72377" lon="-1.9117">
        <ele>-0.1</ele>
        <time>2020-06-04T07:36:16Z</time>
      </trkpt>
      <trkpt lat="46.72374" lon="-1.91175">
        <ele>-0.1</ele>
        <time>2020-06-04T07:36:17Z</time>
      </trkpt>
      <trkpt lat="46.72373" lon="-1.91179">
        <ele>-0.2</ele>
        <time>2020-06-04T07:36:18Z</time>
      </trkpt>
      <trkpt lat="46.72371" lon="-1.91183">
        <ele>-0.2</ele>
        <time>2020-06-04T07:36:19Z</time>
      </trkpt>
      <trkpt lat="46.72369" lon="-1.91186">
        <ele>-0.2</ele>
        <time>2020-06-04T07:36:20Z</time>
      </trkpt>
      <trkpt lat="46.72367" lon="-1.9119">
        <ele>-0.2</ele>
        <time>2020-06-04T07:36:21Z</time>
      </trkpt>
      <trkpt lat="46.72366" lon="-1.91195">
        <ele>-0.2</ele>
        <time>2020-06-04T07:36:22Z</time>
      </trkpt>
      <trkpt lat="46.72364" lon="-1.91199">
        <ele>-0.2</ele>
        <time>2020-06-04T07:36:23Z</time>
      </trkpt>
      <trkpt lat="46.72362" lon="-1.91203">
        <ele>-0.2</ele>
        <time>2020-06-04T07:36:24Z</time>
      </trkpt>
      <trkpt lat="46.7236" lon="-1.91207">
        <ele>-0.1</ele>
        <time>2020-06-04T07:36:25Z</time>
      </trkpt>
      <trkpt lat="46.72359" lon="-1.91211">
        <ele>-0.1</ele>
        <time>2020-06-04T07:36:26Z</time>
      </trkpt>
      <trkpt lat="46.72356" lon="-1.91215">
        <ele>-0.1</ele>
        <time>2020-06-04T07:36:27Z</time>
      </trkpt>
      <trkpt lat="46.72356" lon="-1.91217">
        <ele>-0.1</ele>
        <time>2020-06-04T07:36:28Z</time>
      </trkpt>
      <trkpt lat="46.72353" lon="-1.91221">
        <ele>-0.1</ele>
        <time>2020-06-04T07:36:29Z</time>
      </trkpt>
      <trkpt lat="46.7235" lon="-1.91225">
        <ele>-0.1</ele>
        <time>2020-06-04T07:36:30Z</time>
      </trkpt>
      <trkpt lat="46.72349" lon="-1.91226">
        <ele>1</ele>
        <time>2020-06-04T07:36:31Z</time>
      </trkpt>
      <trkpt lat="46.72345" lon="-1.91227">
        <ele>1</ele>
        <time>2020-06-04T07:36:32Z</time>
      </trkpt>
      <trkpt lat="46.72343" lon="-1.91227">
        <ele>1</ele>
        <time>2020-06-04T07:36:33Z</time>
      </trkpt>
      <trkpt lat="46.7234" lon="-1.91225">
        <ele>1</ele>
        <time>2020-06-04T07:36:34Z</time>
      </trkpt>
      <trkpt lat="46.72337" lon="-1.91223">
        <ele>0.1</ele>
        <time>2020-06-04T07:36:35Z</time>
      </trkpt>
      <trkpt lat="46.72333" lon="-1.91221">
        <ele>0.1</ele>
        <time>2020-06-04T07:36:36Z</time>
      </trkpt>
      <trkpt lat="46.7233" lon="-1.91219">
        <ele>0.1</ele>
        <time>2020-06-04T07:36:37Z</time>
      </trkpt>
      <trkpt lat="46.72327" lon="-1.91217">
        <ele>0.2</ele>
        <time>2020-06-04T07:36:38Z</time>
      </trkpt>
      <trkpt lat="46.72324" lon="-1.91215">
        <ele>0.2</ele>
        <time>2020-06-04T07:36:39Z</time>
      </trkpt>
      <trkpt lat="46.72321" lon="-1.91213">
        <ele>0.2</ele>
        <time>2020-06-04T07:36:40Z</time>
      </trkpt>
      <trkpt lat="46.72319" lon="-1.9121">
        <ele>0.2</ele>
        <time>2020-06-04T07:36:41Z</time>
      </trkpt>
      <trkpt lat="46.72316" lon="-1.91208">
        <ele>0.3</ele>
        <time>2020-06-04T07:36:42Z</time>
      </trkpt>
      <trkpt lat="46.72313" lon="-1.91206">
        <ele>0.3</ele>
        <time>2020-06-04T07:36:43Z</time>
      </trkpt>
      <trkpt lat="46.7231" lon="-1.91203">
        <ele>0.3</ele>
        <time>2020-06-04T07:36:44Z</time>
      </trkpt>
      <trkpt lat="46.72307" lon="-1.91201">
        <ele>0.3</ele>
        <time>2020-06-04T07:36:45Z</time>
      </trkpt>
      <trkpt lat="46.72304" lon="-1.91198">
        <ele>0.3</ele>
        <time>2020-06-04T07:36:46Z</time>
      </trkpt>
      <trkpt lat="46.72302" lon="-1.91197">
        <ele>0.3</ele>
        <time>2020-06-04T07:36:47Z</time>
      </trkpt>
      <trkpt lat="46.723" lon="-1.91194">
        <ele>0.3</ele>
        <time>2020-06-04T07:36:48Z</time>
      </trkpt>
      <trkpt lat="46.72297" lon="-1.91192">
        <ele>0.4</ele>
        <time>2020-06-04T07:36:49Z</time>
      </trkpt>
      <trkpt lat="46.72295" lon="-1.91191">
        <ele>0.4</ele>
        <time>2020-06-04T07:36:50Z</time>
      </trkpt>
      <trkpt lat="46.72292" lon="-1.91188">
        <ele>0.4</ele>
        <time>2020-06-04T07:36:51Z</time>
      </trkpt>
      <trkpt lat="46.72289" lon="-1.91186">
        <ele>0.4</ele>
        <time>2020-06-04T07:36:52Z</time>
      </trkpt>
      <trkpt lat="46.72286" lon="-1.91182">
        <ele>0.4</ele>
        <time>2020-06-04T07:36:53Z</time>
      </trkpt>
      <trkpt lat="46.72284" lon="-1.91181">
        <ele>0.4</ele>
        <time>2020-06-04T07:36:54Z</time>
      </trkpt>
      <trkpt lat="46.72281" lon="-1.91179">
        <ele>0.5</ele>
        <time>2020-06-04T07:36:55Z</time>
      </trkpt>
      <trkpt lat="46.72278" lon="-1.91178">
        <ele>0.5</ele>
        <time>2020-06-04T07:36:56Z</time>
      </trkpt>
      <trkpt lat="46.72275" lon="-1.91175">
        <ele>0.5</ele>
        <time>2020-06-04T07:36:57Z</time>
      </trkpt>
      <trkpt lat="46.72272" lon="-1.91171">
        <ele>0.6</ele>
        <time>2020-06-04T07:36:58Z</time>
      </trkpt>
      <trkpt lat="46.72269" lon="-1.91168">
        <ele>0.6</ele>
        <time>2020-06-04T07:36:59Z</time>
      </trkpt>
      <trkpt lat="46.72266" lon="-1.91166">
        <ele>0.6</ele>
        <time>2020-06-04T07:37:00Z</time>
      </trkpt>
      <trkpt lat="46.72263" lon="-1.91162">
        <ele>0.7</ele>
        <time>2020-06-04T07:37:01Z</time>
      </trkpt>
      <trkpt lat="46.7226" lon="-1.9116">
        <ele>0.7</ele>
        <time>2020-06-04T07:37:02Z</time>
      </trkpt>
      <trkpt lat="46.72257" lon="-1.91157">
        <ele>0.7</ele>
        <time>2020-06-04T07:37:03Z</time>
      </trkpt>
      <trkpt lat="46.72254" lon="-1.91154">
        <ele>0.7</ele>
        <time>2020-06-04T07:37:04Z</time>
      </trkpt>
      <trkpt lat="46.72251" lon="-1.91151">
        <ele>0.7</ele>
        <time>2020-06-04T07:37:05Z</time>
      </trkpt>
      <trkpt lat="46.72247" lon="-1.91149">
        <ele>0.8</ele>
        <time>2020-06-04T07:37:06Z</time>
      </trkpt>
      <trkpt lat="46.72244" lon="-1.91146">
        <ele>0.8</ele>
        <time>2020-06-04T07:37:07Z</time>
      </trkpt>
      <trkpt lat="46.72241" lon="-1.91144">
        <ele>0.8</ele>
        <time>2020-06-04T07:37:08Z</time>
      </trkpt>
      <trkpt lat="46.72238" lon="-1.91141">
        <ele>0.8</ele>
        <time>2020-06-04T07:37:09Z</time>
      </trkpt>
      <trkpt lat="46.72236" lon="-1.91137">
        <ele>0.8</ele>
        <time>2020-06-04T07:37:10Z</time>
      </trkpt>
      <trkpt lat="46.72233" lon="-1.91135">
        <ele>0.8</ele>
        <time>2020-06-04T07:37:11Z</time>
      </trkpt>
      <trkpt lat="46.7223" lon="-1.91132">
        <ele>0.9</ele>
        <time>2020-06-04T07:37:12Z</time>
      </trkpt>
      <trkpt lat="46.72227" lon="-1.9113">
        <ele>0.9</ele>
        <time>2020-06-04T07:37:13Z</time>
      </trkpt>
      <trkpt lat="46.72224" lon="-1.91128">
        <ele>0.9</ele>
        <time>2020-06-04T07:37:14Z</time>
      </trkpt>
      <trkpt lat="46.7222" lon="-1.91125">
        <ele>1</ele>
        <time>2020-06-04T07:37:15Z</time>
      </trkpt>
      <trkpt lat="46.72217" lon="-1.91122">
        <ele>1</ele>
        <time>2020-06-04T07:37:16Z</time>
      </trkpt>
      <trkpt lat="46.72214" lon="-1.9112">
        <ele>1</ele>
        <time>2020-06-04T07:37:17Z</time>
      </trkpt>
      <trkpt lat="46.72212" lon="-1.91118">
        <ele>1</ele>
        <time>2020-06-04T07:37:18Z</time>
      </trkpt>
      <trkpt lat="46.72208" lon="-1.91115">
        <ele>1.1</ele>
        <time>2020-06-04T07:37:19Z</time>
      </trkpt>
      <trkpt lat="46.72206" lon="-1.91114">
        <ele>1.1</ele>
        <time>2020-06-04T07:37:20Z</time>
      </trkpt>
      <trkpt lat="46.72203" lon="-1.91111">
        <ele>1.1</ele>
        <time>2020-06-04T07:37:21Z</time>
      </trkpt>
      <trkpt lat="46.722" lon="-1.91107">
        <ele>1.2</ele>
        <time>2020-06-04T07:37:22Z</time>
      </trkpt>
      <trkpt lat="46.72197" lon="-1.91103">
        <ele>1.2</ele>
        <time>2020-06-04T07:37:23Z</time>
      </trkpt>
      <trkpt lat="46.72194" lon="-1.911">
        <ele>1.2</ele>
        <time>2020-06-04T07:37:24Z</time>
      </trkpt>
      <trkpt lat="46.72192" lon="-1.91098">
        <ele>1.3</ele>
        <time>2020-06-04T07:37:25Z</time>
      </trkpt>
      <trkpt lat="46.72189" lon="-1.91095">
        <ele>1.3</ele>
        <time>2020-06-04T07:37:26Z</time>
      </trkpt>
      <trkpt lat="46.72187" lon="-1.91092">
        <ele>1.3</ele>
        <time>2020-06-04T07:37:27Z</time>
      </trkpt>
      <trkpt lat="46.72184" lon="-1.9109">
        <ele>1.3</ele>
        <time>2020-06-04T07:37:28Z</time>
      </trkpt>
      <trkpt lat="46.72181" lon="-1.91087">
        <ele>1.4</ele>
        <time>2020-06-04T07:37:29Z</time>
      </trkpt>
      <trkpt lat="46.72178" lon="-1.91083">
        <ele>1.4</ele>
        <time>2020-06-04T07:37:30Z</time>
      </trkpt>
      <trkpt lat="46.72175" lon="-1.91079">
        <ele>1.4</ele>
        <time>2020-06-04T07:37:31Z</time>
      </trkpt>
      <trkpt lat="46.72172" lon="-1.91076">
        <ele>1.5</ele>
        <time>2020-06-04T07:37:32Z</time>
      </trkpt>
      <trkpt lat="46.72169" lon="-1.91073">
        <ele>1.5</ele>
        <time>2020-06-04T07:37:33Z</time>
      </trkpt>
      <trkpt lat="46.72166" lon="-1.91071">
        <ele>1.6</ele>
        <time>2020-06-04T07:37:34Z</time>
      </trkpt>
      <trkpt lat="46.72163" lon="-1.91068">
        <ele>1.6</ele>
        <time>2020-06-04T07:37:35Z</time>
      </trkpt>
      <trkpt lat="46.7216" lon="-1.91065">
        <ele>1.7</ele>
        <time>2020-06-04T07:37:36Z</time>
      </trkpt>
      <trkpt lat="46.72157" lon="-1.91062">
        <ele>1.7</ele>
        <time>2020-06-04T07:37:37Z</time>
      </trkpt>
      <trkpt lat="46.72154" lon="-1.91059">
        <ele>1.8</ele>
        <time>2020-06-04T07:37:38Z</time>
      </trkpt>
      <trkpt lat="46.72151" lon="-1.91057">
        <ele>1.8</ele>
        <time>2020-06-04T07:37:39Z</time>
      </trkpt>
      <trkpt lat="46.72148" lon="-1.91054">
        <ele>1.9</ele>
        <time>2020-06-04T07:37:40Z</time>
      </trkpt>
      <trkpt lat="46.72147" lon="-1.91053">
        <ele>1.9</ele>
        <time>2020-06-04T07:37:41Z</time>
      </trkpt>
      <trkpt lat="46.72144" lon="-1.91049">
        <ele>2</ele>
        <time>2020-06-04T07:37:42Z</time>
      </trkpt>
      <trkpt lat="46.72143" lon="-1.91048">
        <ele>2</ele>
        <time>2020-06-04T07:37:43Z</time>
      </trkpt>
      <trkpt lat="46.7214" lon="-1.91046">
        <ele>2</ele>
        <time>2020-06-04T07:37:44Z</time>
      </trkpt>
      <trkpt lat="46.72137" lon="-1.91043">
        <ele>2.1</ele>
        <time>2020-06-04T07:37:45Z</time>
      </trkpt>
      <trkpt lat="46.72135" lon="-1.9104">
        <ele>2.1</ele>
        <time>2020-06-04T07:37:46Z</time>
      </trkpt>
      <trkpt lat="46.72132" lon="-1.91038">
        <ele>2.1</ele>
        <time>2020-06-04T07:37:47Z</time>
      </trkpt>
      <trkpt lat="46.7213" lon="-1.91035">
        <ele>2.1</ele>
        <time>2020-06-04T07:37:48Z</time>
      </trkpt>
      <trkpt lat="46.72127" lon="-1.91033">
        <ele>2.2</ele>
        <time>2020-06-04T07:37:49Z</time>
      </trkpt>
      <trkpt lat="46.72125" lon="-1.91029">
        <ele>2.2</ele>
        <time>2020-06-04T07:37:50Z</time>
      </trkpt>
      <trkpt lat="46.72122" lon="-1.91024">
        <ele>2.2</ele>
        <time>2020-06-04T07:37:51Z</time>
      </trkpt>
      <trkpt lat="46.72121" lon="-1.91023">
        <ele>2.2</ele>
        <time>2020-06-04T07:37:52Z</time>
      </trkpt>
      <trkpt lat="46.72119" lon="-1.91018">
        <ele>2.2</ele>
        <time>2020-06-04T07:37:53Z</time>
      </trkpt>
      <trkpt lat="46.72117" lon="-1.91015">
        <ele>2.2</ele>
        <time>2020-06-04T07:37:54Z</time>
      </trkpt>
      <trkpt lat="46.72114" lon="-1.91011">
        <ele>2.3</ele>
        <time>2020-06-04T07:37:55Z</time>
      </trkpt>
      <trkpt lat="46.72112" lon="-1.91007">
        <ele>2.3</ele>
        <time>2020-06-04T07:37:56Z</time>
      </trkpt>
      <trkpt lat="46.7211" lon="-1.91003">
        <ele>2.3</ele>
        <time>2020-06-04T07:37:57Z</time>
      </trkpt>
      <trkpt lat="46.72108" lon="-1.90998">
        <ele>2.3</ele>
        <time>2020-06-04T07:37:58Z</time>
      </trkpt>
      <trkpt lat="46.72106" lon="-1.90995">
        <ele>2.4</ele>
        <time>2020-06-04T07:37:59Z</time>
      </trkpt>
      <trkpt lat="46.72104" lon="-1.9099">
        <ele>2.4</ele>
        <time>2020-06-04T07:38:00Z</time>
      </trkpt>
      <trkpt lat="46.72102" lon="-1.90986">
        <ele>2.5</ele>
        <time>2020-06-04T07:38:01Z</time>
      </trkpt>
      <trkpt lat="46.721" lon="-1.90982">
        <ele>2.5</ele>
        <time>2020-06-04T07:38:02Z</time>
      </trkpt>
      <trkpt lat="46.72097" lon="-1.90977">
        <ele>2.6</ele>
        <time>2020-06-04T07:38:03Z</time>
      </trkpt>
      <trkpt lat="46.72095" lon="-1.90974">
        <ele>2.7</ele>
        <time>2020-06-04T07:38:04Z</time>
      </trkpt>
      <trkpt lat="46.72093" lon="-1.90969">
        <ele>2.7</ele>
        <time>2020-06-04T07:38:05Z</time>
      </trkpt>
      <trkpt lat="46.7209" lon="-1.90965">
        <ele>2.8</ele>
        <time>2020-06-04T07:38:06Z</time>
      </trkpt>
      <trkpt lat="46.72088" lon="-1.90961">
        <ele>2.9</ele>
        <time>2020-06-04T07:38:07Z</time>
      </trkpt>
      <trkpt lat="46.72086" lon="-1.90957">
        <ele>3</ele>
        <time>2020-06-04T07:38:08Z</time>
      </trkpt>
      <trkpt lat="46.72084" lon="-1.90953">
        <ele>3.1</ele>
        <time>2020-06-04T07:38:09Z</time>
      </trkpt>
      <trkpt lat="46.72082" lon="-1.90949">
        <ele>3.2</ele>
        <time>2020-06-04T07:38:10Z</time>
      </trkpt>
      <trkpt lat="46.72079" lon="-1.90945">
        <ele>3.3</ele>
        <time>2020-06-04T07:38:11Z</time>
      </trkpt>
      <trkpt lat="46.72076" lon="-1.90941">
        <ele>3.4</ele>
        <time>2020-06-04T07:38:12Z</time>
      </trkpt>
      <trkpt lat="46.72074" lon="-1.90937">
        <ele>3.5</ele>
        <time>2020-06-04T07:38:13Z</time>
      </trkpt>
      <trkpt lat="46.72071" lon="-1.90933">
        <ele>3.6</ele>
        <time>2020-06-04T07:38:14Z</time>
      </trkpt>
      <trkpt lat="46.72069" lon="-1.9093">
        <ele>3.7</ele>
        <time>2020-06-04T07:38:15Z</time>
      </trkpt>
      <trkpt lat="46.72067" lon="-1.90926">
        <ele>3.8</ele>
        <time>2020-06-04T07:38:16Z</time>
      </trkpt>
      <trkpt lat="46.72065" lon="-1.90922">
        <ele>3.9</ele>
        <time>2020-06-04T07:38:17Z</time>
      </trkpt>
      <trkpt lat="46.72062" lon="-1.90919">
        <ele>4</ele>
        <time>2020-06-04T07:38:18Z</time>
      </trkpt>
      <trkpt lat="46.7206" lon="-1.90916">
        <ele>4.1</ele>
        <time>2020-06-04T07:38:19Z</time>
      </trkpt>
      <trkpt lat="46.72058" lon="-1.90911">
        <ele>4.2</ele>
        <time>2020-06-04T07:38:20Z</time>
      </trkpt>
      <trkpt lat="46.72055" lon="-1.90908">
        <ele>4.3</ele>
        <time>2020-06-04T07:38:21Z</time>
      </trkpt>
      <trkpt lat="46.72053" lon="-1.90903">
        <ele>4.4</ele>
        <time>2020-06-04T07:38:22Z</time>
      </trkpt>
      <trkpt lat="46.72052" lon="-1.90899">
        <ele>4.5</ele>
        <time>2020-06-04T07:38:23Z</time>
      </trkpt>
      <trkpt lat="46.72049" lon="-1.90894">
        <ele>4.7</ele>
        <time>2020-06-04T07:38:24Z</time>
      </trkpt>
      <trkpt lat="46.72048" lon="-1.90888">
        <ele>4.8</ele>
        <time>2020-06-04T07:38:25Z</time>
      </trkpt>
      <trkpt lat="46.72046" lon="-1.90883">
        <ele>4.9</ele>
        <time>2020-06-04T07:38:26Z</time>
      </trkpt>
      <trkpt lat="46.72044" lon="-1.9088">
        <ele>5</ele>
        <time>2020-06-04T07:38:27Z</time>
      </trkpt>
      <trkpt lat="46.72042" lon="-1.90875">
        <ele>5</ele>
        <time>2020-06-04T07:38:28Z</time>
      </trkpt>
      <trkpt lat="46.7204" lon="-1.90871">
        <ele>5.1</ele>
        <time>2020-06-04T07:38:29Z</time>
      </trkpt>
      <trkpt lat="46.72039" lon="-1.90866">
        <ele>5.2</ele>
        <time>2020-06-04T07:38:30Z</time>
      </trkpt>
      <trkpt lat="46.72037" lon="-1.90861">
        <ele>5.3</ele>
        <time>2020-06-04T07:38:31Z</time>
      </trkpt>
      <trkpt lat="46.72035" lon="-1.90858">
        <ele>5.3</ele>
        <time>2020-06-04T07:38:32Z</time>
      </trkpt>
      <trkpt lat="46.72034" lon="-1.90853">
        <ele>5.4</ele>
        <time>2020-06-04T07:38:33Z</time>
      </trkpt>
      <trkpt lat="46.72032" lon="-1.90847">
        <ele>5.4</ele>
        <time>2020-06-04T07:38:34Z</time>
      </trkpt>
      <trkpt lat="46.72029" lon="-1.90841">
        <ele>5.5</ele>
        <time>2020-06-04T07:38:35Z</time>
      </trkpt>
      <trkpt lat="46.72027" lon="-1.90836">
        <ele>5.5</ele>
        <time>2020-06-04T07:38:36Z</time>
      </trkpt>
      <trkpt lat="46.72026" lon="-1.9083">
        <ele>5.6</ele>
        <time>2020-06-04T07:38:37Z</time>
      </trkpt>
      <trkpt lat="46.72025" lon="-1.90825">
        <ele>5.6</ele>
        <time>2020-06-04T07:38:38Z</time>
      </trkpt>
      <trkpt lat="46.72023" lon="-1.9082">
        <ele>5.7</ele>
        <time>2020-06-04T07:38:39Z</time>
      </trkpt>
      <trkpt lat="46.72021" lon="-1.90815">
        <ele>5.7</ele>
        <time>2020-06-04T07:38:40Z</time>
      </trkpt>
      <trkpt lat="46.72019" lon="-1.9081">
        <ele>5.8</ele>
        <time>2020-06-04T07:38:41Z</time>
      </trkpt>
      <trkpt lat="46.72017" lon="-1.90805">
        <ele>5.8</ele>
        <time>2020-06-04T07:38:42Z</time>
      </trkpt>
      <trkpt lat="46.72014" lon="-1.908">
        <ele>5.8</ele>
        <time>2020-06-04T07:38:43Z</time>
      </trkpt>
      <trkpt lat="46.72013" lon="-1.90795">
        <ele>5.9</ele>
        <time>2020-06-04T07:38:44Z</time>
      </trkpt>
      <trkpt lat="46.7201" lon="-1.9079">
        <ele>5.9</ele>
        <time>2020-06-04T07:38:45Z</time>
      </trkpt>
      <trkpt lat="46.72008" lon="-1.90785">
        <ele>6</ele>
        <time>2020-06-04T07:38:46Z</time>
      </trkpt>
      <trkpt lat="46.72006" lon="-1.9078">
        <ele>6</ele>
        <time>2020-06-04T07:38:47Z</time>
      </trkpt>
      <trkpt lat="46.72004" lon="-1.90775">
        <ele>6</ele>
        <time>2020-06-04T07:38:48Z</time>
      </trkpt>
      <trkpt lat="46.72002" lon="-1.9077">
        <ele>6.1</ele>
        <time>2020-06-04T07:38:49Z</time>
      </trkpt>
      <trkpt lat="46.72" lon="-1.90766">
        <ele>6.1</ele>
        <time>2020-06-04T07:38:50Z</time>
      </trkpt>
      <trkpt lat="46.71997" lon="-1.90762">
        <ele>6.1</ele>
        <time>2020-06-04T07:38:51Z</time>
      </trkpt>
      <trkpt lat="46.71995" lon="-1.90757">
        <ele>6.2</ele>
        <time>2020-06-04T07:38:52Z</time>
      </trkpt>
      <trkpt lat="46.71993" lon="-1.90753">
        <ele>6.2</ele>
        <time>2020-06-04T07:38:53Z</time>
      </trkpt>
      <trkpt lat="46.71991" lon="-1.9075">
        <ele>6.2</ele>
        <time>2020-06-04T07:38:54Z</time>
      </trkpt>
      <trkpt lat="46.7199" lon="-1.90745">
        <ele>6.3</ele>
        <time>2020-06-04T07:38:55Z</time>
      </trkpt>
      <trkpt lat="46.71988" lon="-1.90741">
        <ele>6.3</ele>
        <time>2020-06-04T07:38:56Z</time>
      </trkpt>
      <trkpt lat="46.71986" lon="-1.90736">
        <ele>6.3</ele>
        <time>2020-06-04T07:38:57Z</time>
      </trkpt>
      <trkpt lat="46.71984" lon="-1.9073">
        <ele>6.4</ele>
        <time>2020-06-04T07:38:58Z</time>
      </trkpt>
      <trkpt lat="46.71982" lon="-1.90726">
        <ele>6.4</ele>
        <time>2020-06-04T07:38:59Z</time>
      </trkpt>
      <trkpt lat="46.7198" lon="-1.90722">
        <ele>6.4</ele>
        <time>2020-06-04T07:39:00Z</time>
      </trkpt>
      <trkpt lat="46.71978" lon="-1.90718">
        <ele>6.5</ele>
        <time>2020-06-04T07:39:01Z</time>
      </trkpt>
      <trkpt lat="46.71976" lon="-1.90714">
        <ele>6.5</ele>
        <time>2020-06-04T07:39:02Z</time>
      </trkpt>
      <trkpt lat="46.71974" lon="-1.9071">
        <ele>6.5</ele>
        <time>2020-06-04T07:39:03Z</time>
      </trkpt>
      <trkpt lat="46.71972" lon="-1.90706">
        <ele>6.6</ele>
        <time>2020-06-04T07:39:04Z</time>
      </trkpt>
      <trkpt lat="46.71971" lon="-1.90703">
        <ele>6.6</ele>
        <time>2020-06-04T07:39:05Z</time>
      </trkpt>
      <trkpt lat="46.71969" lon="-1.90698">
        <ele>6.6</ele>
        <time>2020-06-04T07:39:06Z</time>
      </trkpt>
      <trkpt lat="46.71967" lon="-1.90694">
        <ele>6.7</ele>
        <time>2020-06-04T07:39:07Z</time>
      </trkpt>
      <trkpt lat="46.71966" lon="-1.9069">
        <ele>6.7</ele>
        <time>2020-06-04T07:39:08Z</time>
      </trkpt>
      <trkpt lat="46.71964" lon="-1.90687">
        <ele>6.7</ele>
        <time>2020-06-04T07:39:09Z</time>
      </trkpt>
      <trkpt lat="46.71961" lon="-1.90683">
        <ele>6.7</ele>
        <time>2020-06-04T07:39:10Z</time>
      </trkpt>
      <trkpt lat="46.71959" lon="-1.90679">
        <ele>6.8</ele>
        <time>2020-06-04T07:39:11Z</time>
      </trkpt>
      <trkpt lat="46.71957" lon="-1.90673">
        <ele>6.8</ele>
        <time>2020-06-04T07:39:12Z</time>
      </trkpt>
      <trkpt lat="46.71955" lon="-1.90667">
        <ele>6.8</ele>
        <time>2020-06-04T07:39:13Z</time>
      </trkpt>
      <trkpt lat="46.71953" lon="-1.90662">
        <ele>6.8</ele>
        <time>2020-06-04T07:39:14Z</time>
      </trkpt>
      <trkpt lat="46.71951" lon="-1.90656">
        <ele>6.8</ele>
        <time>2020-06-04T07:39:15Z</time>
      </trkpt>
      <trkpt lat="46.71949" lon="-1.90652">
        <ele>6.8</ele>
        <time>2020-06-04T07:39:16Z</time>
      </trkpt>
      <trkpt lat="46.71947" lon="-1.90647">
        <ele>6.8</ele>
        <time>2020-06-04T07:39:17Z</time>
      </trkpt>
      <trkpt lat="46.71945" lon="-1.90643">
        <ele>6.8</ele>
        <time>2020-06-04T07:39:18Z</time>
      </trkpt>
      <trkpt lat="46.71943" lon="-1.90639">
        <ele>6.8</ele>
        <time>2020-06-04T07:39:19Z</time>
      </trkpt>
      <trkpt lat="46.71942" lon="-1.90634">
        <ele>6.8</ele>
        <time>2020-06-04T07:39:20Z</time>
      </trkpt>
      <trkpt lat="46.7194" lon="-1.9063">
        <ele>6.8</ele>
        <time>2020-06-04T07:39:21Z</time>
      </trkpt>
      <trkpt lat="46.71938" lon="-1.90625">
        <ele>6.8</ele>
        <time>2020-06-04T07:39:22Z</time>
      </trkpt>
      <trkpt lat="46.71938" lon="-1.90623">
        <ele>6.8</ele>
        <time>2020-06-04T07:39:23Z</time>
      </trkpt>
      <trkpt lat="46.71936" lon="-1.90619">
        <ele>6.8</ele>
        <time>2020-06-04T07:39:24Z</time>
      </trkpt>
      <trkpt lat="46.71935" lon="-1.90617">
        <ele>6.8</ele>
        <time>2020-06-04T07:39:25Z</time>
      </trkpt>
      <trkpt lat="46.71933" lon="-1.90613">
        <ele>6.8</ele>
        <time>2020-06-04T07:39:26Z</time>
      </trkpt>
      <trkpt lat="46.71931" lon="-1.90608">
        <ele>6.8</ele>
        <time>2020-06-04T07:39:27Z</time>
      </trkpt>
      <trkpt lat="46.71929" lon="-1.90604">
        <ele>6.8</ele>
        <time>2020-06-04T07:39:28Z</time>
      </trkpt>
      <trkpt lat="46.71927" lon="-1.906">
        <ele>6.8</ele>
        <time>2020-06-04T07:39:29Z</time>
      </trkpt>
      <trkpt lat="46.71925" lon="-1.90596">
        <ele>6.8</ele>
        <time>2020-06-04T07:39:30Z</time>
      </trkpt>
      <trkpt lat="46.71922" lon="-1.90593">
        <ele>6.7</ele>
        <time>2020-06-04T07:39:31Z</time>
      </trkpt>
      <trkpt lat="46.71918" lon="-1.9059">
        <ele>6.7</ele>
        <time>2020-06-04T07:39:32Z</time>
      </trkpt>
      <trkpt lat="46.71915" lon="-1.90585">
        <ele>6.7</ele>
        <time>2020-06-04T07:39:33Z</time>
      </trkpt>
      <trkpt lat="46.71913" lon="-1.90581">
        <ele>6.7</ele>
        <time>2020-06-04T07:39:34Z</time>
      </trkpt>
      <trkpt lat="46.71911" lon="-1.90577">
        <ele>6.7</ele>
        <time>2020-06-04T07:39:35Z</time>
      </trkpt>
      <trkpt lat="46.7191" lon="-1.90573">
        <ele>6.7</ele>
        <time>2020-06-04T07:39:36Z</time>
      </trkpt>
      <trkpt lat="46.71909" lon="-1.90569">
        <ele>6.6</ele>
        <time>2020-06-04T07:39:37Z</time>
      </trkpt>
      <trkpt lat="46.71908" lon="-1.90567">
        <ele>6.6</ele>
        <time>2020-06-04T07:39:38Z</time>
      </trkpt>
      <trkpt lat="46.71905" lon="-1.90564">
        <ele>6.6</ele>
        <time>2020-06-04T07:39:39Z</time>
      </trkpt>
      <trkpt lat="46.71904" lon="-1.90563">
        <ele>6.6</ele>
        <time>2020-06-04T07:39:40Z</time>
      </trkpt>
      <trkpt lat="46.71902" lon="-1.9056">
        <ele>6.6</ele>
        <time>2020-06-04T07:39:41Z</time>
      </trkpt>
      <trkpt lat="46.719" lon="-1.90557">
        <ele>6.5</ele>
        <time>2020-06-04T07:39:42Z</time>
      </trkpt>
      <trkpt lat="46.71897" lon="-1.90553">
        <ele>6.5</ele>
        <time>2020-06-04T07:39:43Z</time>
      </trkpt>
      <trkpt lat="46.71896" lon="-1.90552">
        <ele>6.5</ele>
        <time>2020-06-04T07:39:44Z</time>
      </trkpt>
      <trkpt lat="46.71893" lon="-1.90549">
        <ele>6.4</ele>
        <time>2020-06-04T07:39:45Z</time>
      </trkpt>
      <trkpt lat="46.71892" lon="-1.90547">
        <ele>6.4</ele>
        <time>2020-06-04T07:39:46Z</time>
      </trkpt>
      <trkpt lat="46.71891" lon="-1.90543">
        <ele>6.4</ele>
        <time>2020-06-04T07:39:47Z</time>
      </trkpt>
      <trkpt lat="46.7189" lon="-1.90541">
        <ele>6.3</ele>
        <time>2020-06-04T07:39:48Z</time>
      </trkpt>
      <trkpt lat="46.71889" lon="-1.90537">
        <ele>6.3</ele>
        <time>2020-06-04T07:39:49Z</time>
      </trkpt>
      <trkpt lat="46.71887" lon="-1.90534">
        <ele>6.3</ele>
        <time>2020-06-04T07:39:50Z</time>
      </trkpt>
      <trkpt lat="46.71885" lon="-1.9053">
        <ele>6.2</ele>
        <time>2020-06-04T07:39:51Z</time>
      </trkpt>
      <trkpt lat="46.71881" lon="-1.90524">
        <ele>6.1</ele>
        <time>2020-06-04T07:39:52Z</time>
      </trkpt>
      <trkpt lat="46.71879" lon="-1.90522">
        <ele>6.1</ele>
        <time>2020-06-04T07:39:53Z</time>
      </trkpt>
      <trkpt lat="46.71876" lon="-1.90516">
        <ele>6</ele>
        <time>2020-06-04T07:39:54Z</time>
      </trkpt>
      <trkpt lat="46.71873" lon="-1.90509">
        <ele>5.9</ele>
        <time>2020-06-04T07:39:55Z</time>
      </trkpt>
      <trkpt lat="46.71871" lon="-1.90503">
        <ele>5.8</ele>
        <time>2020-06-04T07:39:56Z</time>
      </trkpt>
      <trkpt lat="46.71868" lon="-1.90497">
        <ele>5.7</ele>
        <time>2020-06-04T07:39:57Z</time>
      </trkpt>
      <trkpt lat="46.71865" lon="-1.90492">
        <ele>5.6</ele>
        <time>2020-06-04T07:39:58Z</time>
      </trkpt>
      <trkpt lat="46.71864" lon="-1.90488">
        <ele>5.5</ele>
        <time>2020-06-04T07:39:59Z</time>
      </trkpt>
      <trkpt lat="46.71862" lon="-1.90484">
        <ele>5.5</ele>
        <time>2020-06-04T07:40:00Z</time>
      </trkpt>
      <trkpt lat="46.7186" lon="-1.90481">
        <ele>5.4</ele>
        <time>2020-06-04T07:40:01Z</time>
      </trkpt>
      <trkpt lat="46.71858" lon="-1.90477">
        <ele>5.4</ele>
        <time>2020-06-04T07:40:02Z</time>
      </trkpt>
      <trkpt lat="46.71855" lon="-1.90474">
        <ele>5.3</ele>
        <time>2020-06-04T07:40:03Z</time>
      </trkpt>
      <trkpt lat="46.71852" lon="-1.90471">
        <ele>5.3</ele>
        <time>2020-06-04T07:40:04Z</time>
      </trkpt>
      <trkpt lat="46.71849" lon="-1.90469">
        <ele>5.2</ele>
        <time>2020-06-04T07:40:05Z</time>
      </trkpt>
      <trkpt lat="46.71848" lon="-1.90465">
        <ele>5.2</ele>
        <time>2020-06-04T07:40:06Z</time>
      </trkpt>
      <trkpt lat="46.71846" lon="-1.90461">
        <ele>5.2</ele>
        <time>2020-06-04T07:40:07Z</time>
      </trkpt>
      <trkpt lat="46.71845" lon="-1.9046">
        <ele>5.2</ele>
        <time>2020-06-04T07:40:08Z</time>
      </trkpt>
      <trkpt lat="46.71844" lon="-1.90459">
        <ele>5.1</ele>
        <time>2020-06-04T07:40:09Z</time>
      </trkpt>
      <trkpt lat="46.71843" lon="-1.90459">
        <ele>5.1</ele>
        <time>2020-06-04T07:40:10Z</time>
      </trkpt>
      <trkpt lat="46.71842" lon="-1.9046">
        <ele>5.1</ele>
        <time>2020-06-04T07:40:11Z</time>
      </trkpt>
      <trkpt lat="46.71842" lon="-1.9046">
        <ele>5.1</ele>
        <time>2020-06-04T07:40:12Z</time>
      </trkpt>
      <trkpt lat="46.71842" lon="-1.90459">
        <ele>5.1</ele>
        <time>2020-06-04T07:40:13Z</time>
      </trkpt>
      <trkpt lat="46.71842" lon="-1.90459">
        <ele>5.1</ele>
        <time>2020-06-04T07:40:14Z</time>
      </trkpt>
      <trkpt lat="46.71842" lon="-1.90458">
        <ele>5.1</ele>
        <time>2020-06-04T07:40:15Z</time>
      </trkpt>
      <trkpt lat="46.71842" lon="-1.90458">
        <ele>5.1</ele>
        <time>2020-06-04T07:40:16Z</time>
      </trkpt>
      <trkpt lat="46.71842" lon="-1.90457">
        <ele>5.1</ele>
        <time>2020-06-04T07:40:17Z</time>
      </trkpt>
      <trkpt lat="46.71842" lon="-1.90456">
        <ele>5.1</ele>
        <time>2020-06-04T07:40:18Z</time>
      </trkpt>
      <trkpt lat="46.71842" lon="-1.90456">
        <ele>5.1</ele>
        <time>2020-06-04T07:40:19Z</time>
      </trkpt>
      <trkpt lat="46.71842" lon="-1.90455">
        <ele>5.1</ele>
        <time>2020-06-04T07:40:20Z</time>
      </trkpt>
      <trkpt lat="46.71842" lon="-1.90455">
        <ele>5.1</ele>
        <time>2020-06-04T07:40:21Z</time>
      </trkpt>
      <trkpt lat="46.71842" lon="-1.90454">
        <ele>5.1</ele>
        <time>2020-06-04T07:40:22Z</time>
      </trkpt>
      <trkpt lat="46.71842" lon="-1.90454">
        <ele>5.1</ele>
        <time>2020-06-04T07:40:23Z</time>
      </trkpt>
      <trkpt lat="46.71842" lon="-1.90447">
        <ele>5.1</ele>
        <time>2020-06-04T07:40:24Z</time>
      </trkpt>
      <trkpt lat="46.71843" lon="-1.90442">
        <ele>5</ele>
        <time>2020-06-04T07:40:25Z</time>
      </trkpt>
      <trkpt lat="46.71844" lon="-1.90435">
        <ele>5</ele>
        <time>2020-06-04T07:40:26Z</time>
      </trkpt>
      <trkpt lat="46.71846" lon="-1.90429">
        <ele>5</ele>
        <time>2020-06-04T07:40:27Z</time>
      </trkpt>
      <trkpt lat="46.71846" lon="-1.90422">
        <ele>5</ele>
        <time>2020-06-04T07:40:28Z</time>
      </trkpt>
      <trkpt lat="46.71848" lon="-1.90415">
        <ele>4.9</ele>
        <time>2020-06-04T07:40:29Z</time>
      </trkpt>
      <trkpt lat="46.71848" lon="-1.90407">
        <ele>5</ele>
        <time>2020-06-04T07:40:30Z</time>
      </trkpt>
      <trkpt lat="46.71849" lon="-1.904">
        <ele>5</ele>
        <time>2020-06-04T07:40:31Z</time>
      </trkpt>
      <trkpt lat="46.71849" lon="-1.90394">
        <ele>5</ele>
        <time>2020-06-04T07:40:32Z</time>
      </trkpt>
      <trkpt lat="46.7185" lon="-1.90387">
        <ele>5.1</ele>
        <time>2020-06-04T07:40:33Z</time>
      </trkpt>
      <trkpt lat="46.71851" lon="-1.9038">
        <ele>5.1</ele>
        <time>2020-06-04T07:40:34Z</time>
      </trkpt>
      <trkpt lat="46.71851" lon="-1.90373">
        <ele>5.2</ele>
        <time>2020-06-04T07:40:35Z</time>
      </trkpt>
      <trkpt lat="46.71849" lon="-1.90369">
        <ele>5.2</ele>
        <time>2020-06-04T07:40:36Z</time>
      </trkpt>
      <trkpt lat="46.71847" lon="-1.90365">
        <ele>5.2</ele>
        <time>2020-06-04T07:40:37Z</time>
      </trkpt>
      <trkpt lat="46.71844" lon="-1.90362">
        <ele>5.3</ele>
        <time>2020-06-04T07:40:38Z</time>
      </trkpt>
      <trkpt lat="46.71842" lon="-1.90357">
        <ele>5.3</ele>
        <time>2020-06-04T07:40:39Z</time>
      </trkpt>
      <trkpt lat="46.71841" lon="-1.90356">
        <ele>5.3</ele>
        <time>2020-06-04T07:40:40Z</time>
      </trkpt>
      <trkpt lat="46.71841" lon="-1.90354">
        <ele>5.3</ele>
        <time>2020-06-04T07:40:41Z</time>
      </trkpt>
      <trkpt lat="46.71841" lon="-1.90354">
        <ele>5.3</ele>
        <time>2020-06-04T07:40:42Z</time>
      </trkpt>
      <trkpt lat="46.71842" lon="-1.90355">
        <ele>5.3</ele>
        <time>2020-06-04T07:40:43Z</time>
      </trkpt>
      <trkpt lat="46.71842" lon="-1.90355">
        <ele>5.3</ele>
        <time>2020-06-04T07:40:44Z</time>
      </trkpt>
      <trkpt lat="46.71842" lon="-1.90355">
        <ele>5.3</ele>
        <time>2020-06-04T07:40:45Z</time>
      </trkpt>
      <trkpt lat="46.71842" lon="-1.90355">
        <ele>5.3</ele>
        <time>2020-06-04T07:40:46Z</time>
      </trkpt>
      <trkpt lat="46.71842" lon="-1.90355">
        <ele>5.3</ele>
        <time>2020-06-04T07:40:47Z</time>
      </trkpt>
      <trkpt lat="46.71842" lon="-1.90355">
        <ele>5.3</ele>
        <time>2020-06-04T07:40:48Z</time>
      </trkpt>
      <trkpt lat="46.71842" lon="-1.90355">
        <ele>5.3</ele>
        <time>2020-06-04T07:40:49Z</time>
      </trkpt>
      <trkpt lat="46.71842" lon="-1.90355">
        <ele>5.3</ele>
        <time>2020-06-04T07:40:50Z</time>
      </trkpt>
      <trkpt lat="46.71842" lon="-1.90355">
        <ele>5.3</ele>
        <time>2020-06-04T07:40:51Z</time>
      </trkpt>
      <trkpt lat="46.71843" lon="-1.90349">
        <ele>5.3</ele>
        <time>2020-06-04T07:41:03Z</time>
      </trkpt>
      <trkpt lat="46.71844" lon="-1.90346">
        <ele>5.4</ele>
        <time>2020-06-04T07:41:04Z</time>
      </trkpt>
      <trkpt lat="46.71845" lon="-1.90343">
        <ele>5.4</ele>
        <time>2020-06-04T07:41:05Z</time>
      </trkpt>
      <trkpt lat="46.71847" lon="-1.90339">
        <ele>5.5</ele>
        <time>2020-06-04T07:41:06Z</time>
      </trkpt>
      <trkpt lat="46.71851" lon="-1.90334">
        <ele>5.5</ele>
        <time>2020-06-04T07:41:07Z</time>
      </trkpt>
      <trkpt lat="46.71854" lon="-1.9033">
        <ele>5.6</ele>
        <time>2020-06-04T07:41:08Z</time>
      </trkpt>
      <trkpt lat="46.71857" lon="-1.90326">
        <ele>5.6</ele>
        <time>2020-06-04T07:41:09Z</time>
      </trkpt>
      <trkpt lat="46.71859" lon="-1.90322">
        <ele>5.6</ele>
        <time>2020-06-04T07:41:10Z</time>
      </trkpt>
      <trkpt lat="46.71862" lon="-1.90318">
        <ele>5.7</ele>
        <time>2020-06-04T07:41:11Z</time>
      </trkpt>
      <trkpt lat="46.71865" lon="-1.90314">
        <ele>5.7</ele>
        <time>2020-06-04T07:41:12Z</time>
      </trkpt>
      <trkpt lat="46.71868" lon="-1.9031">
        <ele>5.8</ele>
        <time>2020-06-04T07:41:13Z</time>
      </trkpt>
      <trkpt lat="46.7187" lon="-1.90306">
        <ele>5.8</ele>
        <time>2020-06-04T07:41:14Z</time>
      </trkpt>
      <trkpt lat="46.71872" lon="-1.90301">
        <ele>5.9</ele>
        <time>2020-06-04T07:41:15Z</time>
      </trkpt>
      <trkpt lat="46.71872" lon="-1.90296">
        <ele>5.9</ele>
        <time>2020-06-04T07:41:16Z</time>
      </trkpt>
      <trkpt lat="46.71874" lon="-1.90291">
        <ele>6</ele>
        <time>2020-06-04T07:41:17Z</time>
      </trkpt>
      <trkpt lat="46.71875" lon="-1.90286">
        <ele>6</ele>
        <time>2020-06-04T07:41:18Z</time>
      </trkpt>
      <trkpt lat="46.71876" lon="-1.9028">
        <ele>6</ele>
        <time>2020-06-04T07:41:19Z</time>
      </trkpt>
      <trkpt lat="46.71878" lon="-1.90274">
        <ele>6.1</ele>
        <time>2020-06-04T07:41:20Z</time>
      </trkpt>
      <trkpt lat="46.71879" lon="-1.9027">
        <ele>6.1</ele>
        <time>2020-06-04T07:41:21Z</time>
      </trkpt>
      <trkpt lat="46.7188" lon="-1.90266">
        <ele>6.2</ele>
        <time>2020-06-04T07:41:22Z</time>
      </trkpt>
      <trkpt lat="46.71881" lon="-1.90262">
        <ele>6.2</ele>
        <time>2020-06-04T07:41:23Z</time>
      </trkpt>
      <trkpt lat="46.71883" lon="-1.90259">
        <ele>6.2</ele>
        <time>2020-06-04T07:41:24Z</time>
      </trkpt>
      <trkpt lat="46.71887" lon="-1.90257">
        <ele>6.3</ele>
        <time>2020-06-04T07:41:25Z</time>
      </trkpt>
      <trkpt lat="46.71889" lon="-1.90256">
        <ele>6.2</ele>
        <time>2020-06-04T07:41:26Z</time>
      </trkpt>
      <trkpt lat="46.71892" lon="-1.90255">
        <ele>6.2</ele>
        <time>2020-06-04T07:41:27Z</time>
      </trkpt>
      <trkpt lat="46.71895" lon="-1.90254">
        <ele>6.2</ele>
        <time>2020-06-04T07:41:28Z</time>
      </trkpt>
      <trkpt lat="46.71899" lon="-1.90254">
        <ele>6.2</ele>
        <time>2020-06-04T07:41:29Z</time>
      </trkpt>
      <trkpt lat="46.719" lon="-1.90254">
        <ele>6.2</ele>
        <time>2020-06-04T07:41:30Z</time>
      </trkpt>
      <trkpt lat="46.71904" lon="-1.90252">
        <ele>6.2</ele>
        <time>2020-06-04T07:41:31Z</time>
      </trkpt>
      <trkpt lat="46.71905" lon="-1.90251">
        <ele>6.2</ele>
        <time>2020-06-04T07:41:32Z</time>
      </trkpt>
      <trkpt lat="46.71909" lon="-1.9025">
        <ele>6.2</ele>
        <time>2020-06-04T07:41:33Z</time>
      </trkpt>
      <trkpt lat="46.71911" lon="-1.90249">
        <ele>6.2</ele>
        <time>2020-06-04T07:41:34Z</time>
      </trkpt>
      <trkpt lat="46.71914" lon="-1.90247">
        <ele>6.2</ele>
        <time>2020-06-04T07:41:35Z</time>
      </trkpt>
      <trkpt lat="46.71918" lon="-1.90246">
        <ele>6.1</ele>
        <time>2020-06-04T07:41:36Z</time>
      </trkpt>
      <trkpt lat="46.71921" lon="-1.90244">
        <ele>6.1</ele>
        <time>2020-06-04T07:41:37Z</time>
      </trkpt>
      <trkpt lat="46.71924" lon="-1.90243">
        <ele>6.1</ele>
        <time>2020-06-04T07:41:38Z</time>
      </trkpt>
      <trkpt lat="46.71928" lon="-1.90242">
        <ele>6.1</ele>
        <time>2020-06-04T07:41:39Z</time>
      </trkpt>
      <trkpt lat="46.71931" lon="-1.9024">
        <ele>6</ele>
        <time>2020-06-04T07:41:40Z</time>
      </trkpt>
      <trkpt lat="46.71934" lon="-1.90238">
        <ele>6</ele>
        <time>2020-06-04T07:41:41Z</time>
      </trkpt>
      <trkpt lat="46.71936" lon="-1.90236">
        <ele>6</ele>
        <time>2020-06-04T07:41:42Z</time>
      </trkpt>
      <trkpt lat="46.7194" lon="-1.90233">
        <ele>5.9</ele>
        <time>2020-06-04T07:41:43Z</time>
      </trkpt>
      <trkpt lat="46.71941" lon="-1.90232">
        <ele>5.9</ele>
        <time>2020-06-04T07:41:44Z</time>
      </trkpt>
      <trkpt lat="46.71944" lon="-1.90228">
        <ele>5.9</ele>
        <time>2020-06-04T07:41:45Z</time>
      </trkpt>
      <trkpt lat="46.71945" lon="-1.90227">
        <ele>5.9</ele>
        <time>2020-06-04T07:41:46Z</time>
      </trkpt>
      <trkpt lat="46.71947" lon="-1.90224">
        <ele>5.9</ele>
        <time>2020-06-04T07:41:47Z</time>
      </trkpt>
      <trkpt lat="46.71949" lon="-1.90221">
        <ele>5.8</ele>
        <time>2020-06-04T07:41:48Z</time>
      </trkpt>
      <trkpt lat="46.7195" lon="-1.90217">
        <ele>5.8</ele>
        <time>2020-06-04T07:41:49Z</time>
      </trkpt>
      <trkpt lat="46.71952" lon="-1.90212">
        <ele>5.8</ele>
        <time>2020-06-04T07:41:50Z</time>
      </trkpt>
      <trkpt lat="46.71953" lon="-1.90206">
        <ele>5.8</ele>
        <time>2020-06-04T07:41:51Z</time>
      </trkpt>
      <trkpt lat="46.71954" lon="-1.90201">
        <ele>5.8</ele>
        <time>2020-06-04T07:41:52Z</time>
      </trkpt>
      <trkpt lat="46.71955" lon="-1.90195">
        <ele>5.8</ele>
        <time>2020-06-04T07:41:53Z</time>
      </trkpt>
      <trkpt lat="46.71956" lon="-1.90191">
        <ele>5.9</ele>
        <time>2020-06-04T07:41:54Z</time>
      </trkpt>
      <trkpt lat="46.71956" lon="-1.90186">
        <ele>5.9</ele>
        <time>2020-06-04T07:41:55Z</time>
      </trkpt>
      <trkpt lat="46.71957" lon="-1.9018">
        <ele>5.9</ele>
        <time>2020-06-04T07:41:56Z</time>
      </trkpt>
      <trkpt lat="46.71957" lon="-1.90174">
        <ele>5.9</ele>
        <time>2020-06-04T07:41:57Z</time>
      </trkpt>
      <trkpt lat="46.71958" lon="-1.90168">
        <ele>5.9</ele>
        <time>2020-06-04T07:41:58Z</time>
      </trkpt>
      <trkpt lat="46.71958" lon="-1.90162">
        <ele>5.9</ele>
        <time>2020-06-04T07:41:59Z</time>
      </trkpt>
      <trkpt lat="46.71958" lon="-1.90156">
        <ele>5.9</ele>
        <time>2020-06-04T07:42:00Z</time>
      </trkpt>
      <trkpt lat="46.71958" lon="-1.90152">
        <ele>5.9</ele>
        <time>2020-06-04T07:42:01Z</time>
      </trkpt>
      <trkpt lat="46.71958" lon="-1.90147">
        <ele>5.9</ele>
        <time>2020-06-04T07:42:02Z</time>
      </trkpt>
      <trkpt lat="46.71959" lon="-1.90142">
        <ele>5.9</ele>
        <time>2020-06-04T07:42:03Z</time>
      </trkpt>
      <trkpt lat="46.71959" lon="-1.90138">
        <ele>5.9</ele>
        <time>2020-06-04T07:42:04Z</time>
      </trkpt>
      <trkpt lat="46.71959" lon="-1.90132">
        <ele>5.9</ele>
        <time>2020-06-04T07:42:05Z</time>
      </trkpt>
      <trkpt lat="46.7196" lon="-1.90128">
        <ele>5.9</ele>
        <time>2020-06-04T07:42:06Z</time>
      </trkpt>
      <trkpt lat="46.71962" lon="-1.90123">
        <ele>6</ele>
        <time>2020-06-04T07:42:07Z</time>
      </trkpt>
      <trkpt lat="46.71963" lon="-1.90119">
        <ele>6</ele>
        <time>2020-06-04T07:42:08Z</time>
      </trkpt>
      <trkpt lat="46.71963" lon="-1.90115">
        <ele>6</ele>
        <time>2020-06-04T07:42:09Z</time>
      </trkpt>
      <trkpt lat="46.71964" lon="-1.90109">
        <ele>6</ele>
        <time>2020-06-04T07:42:10Z</time>
      </trkpt>
      <trkpt lat="46.71964" lon="-1.90107">
        <ele>6</ele>
        <time>2020-06-04T07:42:11Z</time>
      </trkpt>
      <trkpt lat="46.71963" lon="-1.90102">
        <ele>6</ele>
        <time>2020-06-04T07:42:12Z</time>
      </trkpt>
      <trkpt lat="46.71963" lon="-1.90098">
        <ele>6.1</ele>
        <time>2020-06-04T07:42:13Z</time>
      </trkpt>
      <trkpt lat="46.71962" lon="-1.90093">
        <ele>6.1</ele>
        <time>2020-06-04T07:42:14Z</time>
      </trkpt>
      <trkpt lat="46.71961" lon="-1.90087">
        <ele>6.1</ele>
        <time>2020-06-04T07:42:15Z</time>
      </trkpt>
      <trkpt lat="46.71961" lon="-1.90085">
        <ele>6.1</ele>
        <time>2020-06-04T07:42:16Z</time>
      </trkpt>
      <trkpt lat="46.71961" lon="-1.90079">
        <ele>6.1</ele>
        <time>2020-06-04T07:42:17Z</time>
      </trkpt>
      <trkpt lat="46.71961" lon="-1.90077">
        <ele>6.1</ele>
        <time>2020-06-04T07:42:18Z</time>
      </trkpt>
      <trkpt lat="46.71962" lon="-1.90074">
        <ele>6.1</ele>
        <time>2020-06-04T07:42:19Z</time>
      </trkpt>
      <trkpt lat="46.71962" lon="-1.90073">
        <ele>6.1</ele>
        <time>2020-06-04T07:42:20Z</time>
      </trkpt>
      <trkpt lat="46.71962" lon="-1.90071">
        <ele>6.1</ele>
        <time>2020-06-04T07:42:21Z</time>
      </trkpt>
      <trkpt lat="46.71963" lon="-1.90068">
        <ele>6.1</ele>
        <time>2020-06-04T07:42:22Z</time>
      </trkpt>
      <trkpt lat="46.71964" lon="-1.90066">
        <ele>6.1</ele>
        <time>2020-06-04T07:42:23Z</time>
      </trkpt>
      <trkpt lat="46.71965" lon="-1.90066">
        <ele>6.1</ele>
        <time>2020-06-04T07:42:24Z</time>
      </trkpt>
      <trkpt lat="46.71966" lon="-1.90065">
        <ele>6.1</ele>
        <time>2020-06-04T07:42:25Z</time>
      </trkpt>
      <trkpt lat="46.71968" lon="-1.90067">
        <ele>6.2</ele>
        <time>2020-06-04T07:42:26Z</time>
      </trkpt>
      <trkpt lat="46.71969" lon="-1.90069">
        <ele>6.2</ele>
        <time>2020-06-04T07:42:27Z</time>
      </trkpt>
      <trkpt lat="46.7197" lon="-1.9007">
        <ele>6.2</ele>
        <time>2020-06-04T07:42:28Z</time>
      </trkpt>
      <trkpt lat="46.7197" lon="-1.90072">
        <ele>6.2</ele>
        <time>2020-06-04T07:42:29Z</time>
      </trkpt>
      <trkpt lat="46.71971" lon="-1.90072">
        <ele>6.2</ele>
        <time>2020-06-04T07:42:30Z</time>
      </trkpt>
      <trkpt lat="46.71971" lon="-1.90074">
        <ele>6.2</ele>
        <time>2020-06-04T07:42:31Z</time>
      </trkpt>
      <trkpt lat="46.71971" lon="-1.90072">
        <ele>6.2</ele>
        <time>2020-06-04T07:42:32Z</time>
      </trkpt>
      <trkpt lat="46.71971" lon="-1.90073">
        <ele>6.2</ele>
        <time>2020-06-04T07:42:33Z</time>
      </trkpt>
      <trkpt lat="46.71972" lon="-1.90074">
        <ele>6.2</ele>
        <time>2020-06-04T07:42:34Z</time>
      </trkpt>
      <trkpt lat="46.71973" lon="-1.90074">
        <ele>6.2</ele>
        <time>2020-06-04T07:42:35Z</time>
      </trkpt>
      <trkpt lat="46.71975" lon="-1.90075">
        <ele>6.2</ele>
        <time>2020-06-04T07:42:36Z</time>
      </trkpt>
      <trkpt lat="46.71976" lon="-1.90076">
        <ele>6.2</ele>
        <time>2020-06-04T07:42:37Z</time>
      </trkpt>
      <trkpt lat="46.71976" lon="-1.90076">
        <ele>6.2</ele>
        <time>2020-06-04T07:42:38Z</time>
      </trkpt>
      <trkpt lat="46.71976" lon="-1.90076">
        <ele>6.2</ele>
        <time>2020-06-04T07:42:39Z</time>
      </trkpt>
      <trkpt lat="46.71975" lon="-1.90075">
        <ele>6.2</ele>
        <time>2020-06-04T07:42:40Z</time>
      </trkpt>
      <trkpt lat="46.71975" lon="-1.90075">
        <ele>6.2</ele>
        <time>2020-06-04T07:42:41Z</time>
      </trkpt>
      <trkpt lat="46.71974" lon="-1.90074">
        <ele>6.2</ele>
        <time>2020-06-04T07:42:42Z</time>
      </trkpt>
      <trkpt lat="46.71974" lon="-1.90073">
        <ele>6.2</ele>
        <time>2020-06-04T07:42:43Z</time>
      </trkpt>
      <trkpt lat="46.71973" lon="-1.90073">
        <ele>6.2</ele>
        <time>2020-06-04T07:42:44Z</time>
      </trkpt>
      <trkpt lat="46.71973" lon="-1.90072">
        <ele>6.2</ele>
        <time>2020-06-04T07:42:45Z</time>
      </trkpt>
      <trkpt lat="46.71972" lon="-1.90072">
        <ele>6.2</ele>
        <time>2020-06-04T07:42:46Z</time>
      </trkpt>
      <trkpt lat="46.71972" lon="-1.90071">
        <ele>6.2</ele>
        <time>2020-06-04T07:42:47Z</time>
      </trkpt>
      <trkpt lat="46.71971" lon="-1.90071">
        <ele>6.2</ele>
        <time>2020-06-04T07:42:48Z</time>
      </trkpt>
      <trkpt lat="46.71971" lon="-1.9007">
        <ele>6.2</ele>
        <time>2020-06-04T08:17:21Z</time>
      </trkpt>
      <trkpt lat="46.7197" lon="-1.9007">
        <ele>6.2</ele>
        <time>2020-06-04T08:17:22Z</time>
      </trkpt>
      <trkpt lat="46.7197" lon="-1.90069">
        <ele>6.2</ele>
        <time>2020-06-04T08:17:23Z</time>
      </trkpt>
      <trkpt lat="46.71969" lon="-1.90069">
        <ele>6.2</ele>
        <time>2020-06-04T08:17:24Z</time>
      </trkpt>
      <trkpt lat="46.71969" lon="-1.90068">
        <ele>6.2</ele>
        <time>2020-06-04T08:17:25Z</time>
      </trkpt>
      <trkpt lat="46.71968" lon="-1.90068">
        <ele>6.2</ele>
        <time>2020-06-04T08:17:26Z</time>
      </trkpt>
      <trkpt lat="46.71968" lon="-1.90067">
        <ele>6.2</ele>
        <time>2020-06-04T08:17:39Z</time>
      </trkpt>
      <trkpt lat="46.71967" lon="-1.90067">
        <ele>6.2</ele>
        <time>2020-06-04T08:17:40Z</time>
      </trkpt>
      <trkpt lat="46.71967" lon="-1.90062">
        <ele>6.2</ele>
        <time>2020-06-04T08:17:41Z</time>
      </trkpt>
      <trkpt lat="46.71968" lon="-1.9006">
        <ele>6.2</ele>
        <time>2020-06-04T08:17:42Z</time>
      </trkpt>
      <trkpt lat="46.71969" lon="-1.90056">
        <ele>6.3</ele>
        <time>2020-06-04T08:17:44Z</time>
      </trkpt>
      <trkpt lat="46.71972" lon="-1.90053">
        <ele>6.3</ele>
        <time>2020-06-04T08:17:45Z</time>
      </trkpt>
      <trkpt lat="46.71974" lon="-1.90049">
        <ele>6.4</ele>
        <time>2020-06-04T08:17:46Z</time>
      </trkpt>
      <trkpt lat="46.71974" lon="-1.90048">
        <ele>6.4</ele>
        <time>2020-06-04T08:17:47Z</time>
      </trkpt>
      <trkpt lat="46.71977" lon="-1.90045">
        <ele>6.4</ele>
        <time>2020-06-04T08:17:48Z</time>
      </trkpt>
      <trkpt lat="46.71979" lon="-1.9004">
        <ele>6.5</ele>
        <time>2020-06-04T08:17:49Z</time>
      </trkpt>
      <trkpt lat="46.71981" lon="-1.90036">
        <ele>6.5</ele>
        <time>2020-06-04T08:17:50Z</time>
      </trkpt>
      <trkpt lat="46.71982" lon="-1.90032">
        <ele>6.6</ele>
        <time>2020-06-04T08:17:51Z</time>
      </trkpt>
      <trkpt lat="46.71984" lon="-1.90028">
        <ele>6.6</ele>
        <time>2020-06-04T08:17:52Z</time>
      </trkpt>
      <trkpt lat="46.71987" lon="-1.90024">
        <ele>6.6</ele>
        <time>2020-06-04T08:17:53Z</time>
      </trkpt>
      <trkpt lat="46.7199" lon="-1.9002">
        <ele>6.7</ele>
        <time>2020-06-04T08:17:54Z</time>
      </trkpt>
      <trkpt lat="46.71991" lon="-1.90017">
        <ele>6.7</ele>
        <time>2020-06-04T08:17:55Z</time>
      </trkpt>
      <trkpt lat="46.71993" lon="-1.90014">
        <ele>6.8</ele>
        <time>2020-06-04T08:17:56Z</time>
      </trkpt>
      <trkpt lat="46.71996" lon="-1.9001">
        <ele>6.8</ele>
        <time>2020-06-04T08:17:57Z</time>
      </trkpt>
      <trkpt lat="46.71999" lon="-1.90006">
        <ele>6.8</ele>
        <time>2020-06-04T08:17:58Z</time>
      </trkpt>
      <trkpt lat="46.72" lon="-1.90004">
        <ele>6.9</ele>
        <time>2020-06-04T08:17:59Z</time>
      </trkpt>
      <trkpt lat="46.72003" lon="-1.89999">
        <ele>6.9</ele>
        <time>2020-06-04T08:18:00Z</time>
      </trkpt>
      <trkpt lat="46.72006" lon="-1.89994">
        <ele>6.9</ele>
        <time>2020-06-04T08:18:01Z</time>
      </trkpt>
      <trkpt lat="46.72009" lon="-1.89989">
        <ele>7</ele>
        <time>2020-06-04T08:18:02Z</time>
      </trkpt>
      <trkpt lat="46.72011" lon="-1.89985">
        <ele>7</ele>
        <time>2020-06-04T08:18:03Z</time>
      </trkpt>
      <trkpt lat="46.72014" lon="-1.8998">
        <ele>7.1</ele>
        <time>2020-06-04T08:18:04Z</time>
      </trkpt>
      <trkpt lat="46.72017" lon="-1.89975">
        <ele>7.2</ele>
        <time>2020-06-04T08:18:05Z</time>
      </trkpt>
      <trkpt lat="46.72019" lon="-1.8997">
        <ele>7.3</ele>
        <time>2020-06-04T08:18:06Z</time>
      </trkpt>
      <trkpt lat="46.72023" lon="-1.89965">
        <ele>7.3</ele>
        <time>2020-06-04T08:18:07Z</time>
      </trkpt>
      <trkpt lat="46.72026" lon="-1.8996">
        <ele>7.4</ele>
        <time>2020-06-04T08:18:08Z</time>
      </trkpt>
      <trkpt lat="46.72028" lon="-1.89955">
        <ele>7.4</ele>
        <time>2020-06-04T08:18:09Z</time>
      </trkpt>
      <trkpt lat="46.72031" lon="-1.89952">
        <ele>7.4</ele>
        <time>2020-06-04T08:18:10Z</time>
      </trkpt>
      <trkpt lat="46.72034" lon="-1.89947">
        <ele>7.5</ele>
        <time>2020-06-04T08:18:11Z</time>
      </trkpt>
      <trkpt lat="46.72036" lon="-1.89942">
        <ele>7.5</ele>
        <time>2020-06-04T08:18:12Z</time>
      </trkpt>
      <trkpt lat="46.72039" lon="-1.89939">
        <ele>7.6</ele>
        <time>2020-06-04T08:18:13Z</time>
      </trkpt>
      <trkpt lat="46.72041" lon="-1.89936">
        <ele>7.6</ele>
        <time>2020-06-04T08:18:14Z</time>
      </trkpt>
      <trkpt lat="46.72044" lon="-1.89934">
        <ele>7.6</ele>
        <time>2020-06-04T08:18:15Z</time>
      </trkpt>
      <trkpt lat="46.72049" lon="-1.89933">
        <ele>7.7</ele>
        <time>2020-06-04T08:18:16Z</time>
      </trkpt>
      <trkpt lat="46.72053" lon="-1.89931">
        <ele>7.7</ele>
        <time>2020-06-04T08:18:17Z</time>
      </trkpt>
      <trkpt lat="46.72056" lon="-1.89929">
        <ele>7.7</ele>
        <time>2020-06-04T08:18:18Z</time>
      </trkpt>
      <trkpt lat="46.72059" lon="-1.89926">
        <ele>7.8</ele>
        <time>2020-06-04T08:18:19Z</time>
      </trkpt>
      <trkpt lat="46.72063" lon="-1.89922">
        <ele>7.8</ele>
        <time>2020-06-04T08:18:20Z</time>
      </trkpt>
      <trkpt lat="46.72066" lon="-1.89919">
        <ele>7.8</ele>
        <time>2020-06-04T08:18:21Z</time>
      </trkpt>
      <trkpt lat="46.7207" lon="-1.89917">
        <ele>7.8</ele>
        <time>2020-06-04T08:18:22Z</time>
      </trkpt>
      <trkpt lat="46.72074" lon="-1.89913">
        <ele>7.8</ele>
        <time>2020-06-04T08:18:23Z</time>
      </trkpt>
      <trkpt lat="46.72077" lon="-1.89909">
        <ele>7.9</ele>
        <time>2020-06-04T08:18:24Z</time>
      </trkpt>
      <trkpt lat="46.72081" lon="-1.89906">
        <ele>7.9</ele>
        <time>2020-06-04T08:18:25Z</time>
      </trkpt>
      <trkpt lat="46.72085" lon="-1.89903">
        <ele>8</ele>
        <time>2020-06-04T08:18:26Z</time>
      </trkpt>
      <trkpt lat="46.72089" lon="-1.899">
        <ele>8</ele>
        <time>2020-06-04T08:18:27Z</time>
      </trkpt>
      <trkpt lat="46.72092" lon="-1.89897">
        <ele>8</ele>
        <time>2020-06-04T08:18:28Z</time>
      </trkpt>
      <trkpt lat="46.72097" lon="-1.89893">
        <ele>8.1</ele>
        <time>2020-06-04T08:18:29Z</time>
      </trkpt>
      <trkpt lat="46.72102" lon="-1.89891">
        <ele>8.2</ele>
        <time>2020-06-04T08:18:30Z</time>
      </trkpt>
      <trkpt lat="46.72107" lon="-1.89888">
        <ele>8.2</ele>
        <time>2020-06-04T08:18:31Z</time>
      </trkpt>
      <trkpt lat="46.7211" lon="-1.89884">
        <ele>8.3</ele>
        <time>2020-06-04T08:18:32Z</time>
      </trkpt>
      <trkpt lat="46.72114" lon="-1.89881">
        <ele>8.3</ele>
        <time>2020-06-04T08:18:33Z</time>
      </trkpt>
      <trkpt lat="46.72117" lon="-1.89878">
        <ele>8.4</ele>
        <time>2020-06-04T08:18:34Z</time>
      </trkpt>
      <trkpt lat="46.72121" lon="-1.89876">
        <ele>8.4</ele>
        <time>2020-06-04T08:18:35Z</time>
      </trkpt>
      <trkpt lat="46.72124" lon="-1.89873">
        <ele>8.4</ele>
        <time>2020-06-04T08:18:36Z</time>
      </trkpt>
      <trkpt lat="46.72128" lon="-1.89869">
        <ele>8.4</ele>
        <time>2020-06-04T08:18:37Z</time>
      </trkpt>
      <trkpt lat="46.72132" lon="-1.89866">
        <ele>8.4</ele>
        <time>2020-06-04T08:18:38Z</time>
      </trkpt>
      <trkpt lat="46.72136" lon="-1.89864">
        <ele>8.4</ele>
        <time>2020-06-04T08:18:39Z</time>
      </trkpt>
      <trkpt lat="46.7214" lon="-1.8986">
        <ele>8.4</ele>
        <time>2020-06-04T08:18:40Z</time>
      </trkpt>
      <trkpt lat="46.72144" lon="-1.89857">
        <ele>8.4</ele>
        <time>2020-06-04T08:18:41Z</time>
      </trkpt>
      <trkpt lat="46.72147" lon="-1.89853">
        <ele>8.4</ele>
        <time>2020-06-04T08:18:42Z</time>
      </trkpt>
      <trkpt lat="46.72151" lon="-1.89849">
        <ele>8.5</ele>
        <time>2020-06-04T08:18:43Z</time>
      </trkpt>
      <trkpt lat="46.72155" lon="-1.89846">
        <ele>8.5</ele>
        <time>2020-06-04T08:18:44Z</time>
      </trkpt>
      <trkpt lat="46.72158" lon="-1.89843">
        <ele>8.5</ele>
        <time>2020-06-04T08:18:45Z</time>
      </trkpt>
      <trkpt lat="46.72163" lon="-1.8984">
        <ele>8.5</ele>
        <time>2020-06-04T08:18:46Z</time>
      </trkpt>
      <trkpt lat="46.72168" lon="-1.89836">
        <ele>8.5</ele>
        <time>2020-06-04T08:18:47Z</time>
      </trkpt>
      <trkpt lat="46.72172" lon="-1.89834">
        <ele>8.5</ele>
        <time>2020-06-04T08:18:48Z</time>
      </trkpt>
      <trkpt lat="46.72176" lon="-1.8983">
        <ele>8.5</ele>
        <time>2020-06-04T08:18:49Z</time>
      </trkpt>
      <trkpt lat="46.7218" lon="-1.89827">
        <ele>8.4</ele>
        <time>2020-06-04T08:18:50Z</time>
      </trkpt>
      <trkpt lat="46.72184" lon="-1.89823">
        <ele>8.4</ele>
        <time>2020-06-04T08:18:51Z</time>
      </trkpt>
      <trkpt lat="46.72187" lon="-1.8982">
        <ele>8.3</ele>
        <time>2020-06-04T08:18:52Z</time>
      </trkpt>
      <trkpt lat="46.7219" lon="-1.89815">
        <ele>8.3</ele>
        <time>2020-06-04T08:18:53Z</time>
      </trkpt>
      <trkpt lat="46.72193" lon="-1.89811">
        <ele>8.2</ele>
        <time>2020-06-04T08:18:54Z</time>
      </trkpt>
      <trkpt lat="46.72197" lon="-1.89808">
        <ele>8.2</ele>
        <time>2020-06-04T08:18:55Z</time>
      </trkpt>
      <trkpt lat="46.72201" lon="-1.89807">
        <ele>8.2</ele>
        <time>2020-06-04T08:18:56Z</time>
      </trkpt>
      <trkpt lat="46.72205" lon="-1.89805">
        <ele>8.1</ele>
        <time>2020-06-04T08:18:57Z</time>
      </trkpt>
      <trkpt lat="46.7221" lon="-1.89803">
        <ele>8</ele>
        <time>2020-06-04T08:18:58Z</time>
      </trkpt>
      <trkpt lat="46.72214" lon="-1.898">
        <ele>8</ele>
        <time>2020-06-04T08:18:59Z</time>
      </trkpt>
      <trkpt lat="46.72219" lon="-1.89796">
        <ele>7.9</ele>
        <time>2020-06-04T08:19:00Z</time>
      </trkpt>
      <trkpt lat="46.72224" lon="-1.89793">
        <ele>7.8</ele>
        <time>2020-06-04T08:19:01Z</time>
      </trkpt>
      <trkpt lat="46.72229" lon="-1.89789">
        <ele>7.7</ele>
        <time>2020-06-04T08:19:02Z</time>
      </trkpt>
      <trkpt lat="46.72233" lon="-1.89785">
        <ele>7.6</ele>
        <time>2020-06-04T08:19:03Z</time>
      </trkpt>
      <trkpt lat="46.72236" lon="-1.89782">
        <ele>7.6</ele>
        <time>2020-06-04T08:19:04Z</time>
      </trkpt>
      <trkpt lat="46.7224" lon="-1.89779">
        <ele>7.5</ele>
        <time>2020-06-04T08:19:05Z</time>
      </trkpt>
      <trkpt lat="46.72243" lon="-1.89777">
        <ele>7.5</ele>
        <time>2020-06-04T08:19:06Z</time>
      </trkpt>
      <trkpt lat="46.72245" lon="-1.89774">
        <ele>7.5</ele>
        <time>2020-06-04T08:19:07Z</time>
      </trkpt>
      <trkpt lat="46.72248" lon="-1.89772">
        <ele>7.4</ele>
        <time>2020-06-04T08:19:08Z</time>
      </trkpt>
      <trkpt lat="46.72251" lon="-1.89771">
        <ele>7.4</ele>
        <time>2020-06-04T08:19:09Z</time>
      </trkpt>
      <trkpt lat="46.72254" lon="-1.89769">
        <ele>7.3</ele>
        <time>2020-06-04T08:19:10Z</time>
      </trkpt>
      <trkpt lat="46.72257" lon="-1.8977">
        <ele>7.3</ele>
        <time>2020-06-04T08:19:11Z</time>
      </trkpt>
      <trkpt lat="46.72259" lon="-1.8977">
        <ele>7.3</ele>
        <time>2020-06-04T08:19:12Z</time>
      </trkpt>
      <trkpt lat="46.72261" lon="-1.89775">
        <ele>7.3</ele>
        <time>2020-06-04T08:19:13Z</time>
      </trkpt>
      <trkpt lat="46.72262" lon="-1.8978">
        <ele>7.3</ele>
        <time>2020-06-04T08:19:14Z</time>
      </trkpt>
      <trkpt lat="46.72263" lon="-1.89787">
        <ele>7.3</ele>
        <time>2020-06-04T08:19:15Z</time>
      </trkpt>
      <trkpt lat="46.72265" lon="-1.89794">
        <ele>7.3</ele>
        <time>2020-06-04T08:19:16Z</time>
      </trkpt>
      <trkpt lat="46.72267" lon="-1.89799">
        <ele>7.3</ele>
        <time>2020-06-04T08:19:17Z</time>
      </trkpt>
      <trkpt lat="46.72269" lon="-1.89805">
        <ele>7.3</ele>
        <time>2020-06-04T08:19:18Z</time>
      </trkpt>
      <trkpt lat="46.7227" lon="-1.89813">
        <ele>7.3</ele>
        <time>2020-06-04T08:19:19Z</time>
      </trkpt>
      <trkpt lat="46.72272" lon="-1.89819">
        <ele>7.3</ele>
        <time>2020-06-04T08:19:20Z</time>
      </trkpt>
      <trkpt lat="46.72274" lon="-1.89825">
        <ele>7.3</ele>
        <time>2020-06-04T08:19:21Z</time>
      </trkpt>
      <trkpt lat="46.72276" lon="-1.89831">
        <ele>7.3</ele>
        <time>2020-06-04T08:19:22Z</time>
      </trkpt>
      <trkpt lat="46.72278" lon="-1.89837">
        <ele>7.3</ele>
        <time>2020-06-04T08:19:23Z</time>
      </trkpt>
      <trkpt lat="46.7228" lon="-1.89842">
        <ele>7.3</ele>
        <time>2020-06-04T08:19:24Z</time>
      </trkpt>
      <trkpt lat="46.72282" lon="-1.89849">
        <ele>7.3</ele>
        <time>2020-06-04T08:19:25Z</time>
      </trkpt>
      <trkpt lat="46.72283" lon="-1.89855">
        <ele>7.3</ele>
        <time>2020-06-04T08:19:26Z</time>
      </trkpt>
      <trkpt lat="46.72286" lon="-1.8986">
        <ele>7.3</ele>
        <time>2020-06-04T08:19:27Z</time>
      </trkpt>
      <trkpt lat="46.72288" lon="-1.89866">
        <ele>7.3</ele>
        <time>2020-06-04T08:19:28Z</time>
      </trkpt>
      <trkpt lat="46.7229" lon="-1.89872">
        <ele>7.3</ele>
        <time>2020-06-04T08:19:29Z</time>
      </trkpt>
      <trkpt lat="46.72292" lon="-1.89879">
        <ele>7.3</ele>
        <time>2020-06-04T08:19:30Z</time>
      </trkpt>
      <trkpt lat="46.72295" lon="-1.89886">
        <ele>7.3</ele>
        <time>2020-06-04T08:19:31Z</time>
      </trkpt>
      <trkpt lat="46.72296" lon="-1.89891">
        <ele>7.3</ele>
        <time>2020-06-04T08:19:32Z</time>
      </trkpt>
      <trkpt lat="46.72298" lon="-1.89899">
        <ele>7.2</ele>
        <time>2020-06-04T08:19:33Z</time>
      </trkpt>
      <trkpt lat="46.72301" lon="-1.89906">
        <ele>7.2</ele>
        <time>2020-06-04T08:19:34Z</time>
      </trkpt>
      <trkpt lat="46.72303" lon="-1.89912">
        <ele>7.2</ele>
        <time>2020-06-04T08:19:35Z</time>
      </trkpt>
      <trkpt lat="46.72305" lon="-1.89919">
        <ele>7.1</ele>
        <time>2020-06-04T08:19:36Z</time>
      </trkpt>
      <trkpt lat="46.72307" lon="-1.89925">
        <ele>7.1</ele>
        <time>2020-06-04T08:19:37Z</time>
      </trkpt>
      <trkpt lat="46.72309" lon="-1.89932">
        <ele>7.1</ele>
        <time>2020-06-04T08:19:38Z</time>
      </trkpt>
      <trkpt lat="46.72311" lon="-1.89939">
        <ele>7</ele>
        <time>2020-06-04T08:19:39Z</time>
      </trkpt>
      <trkpt lat="46.72313" lon="-1.89946">
        <ele>7</ele>
        <time>2020-06-04T08:19:40Z</time>
      </trkpt>
      <trkpt lat="46.72315" lon="-1.89952">
        <ele>7</ele>
        <time>2020-06-04T08:19:41Z</time>
      </trkpt>
      <trkpt lat="46.72318" lon="-1.89957">
        <ele>7</ele>
        <time>2020-06-04T08:19:42Z</time>
      </trkpt>
      <trkpt lat="46.72321" lon="-1.89962">
        <ele>7</ele>
        <time>2020-06-04T08:19:43Z</time>
      </trkpt>
      <trkpt lat="46.72325" lon="-1.89966">
        <ele>7</ele>
        <time>2020-06-04T08:19:44Z</time>
      </trkpt>
      <trkpt lat="46.72328" lon="-1.89971">
        <ele>7</ele>
        <time>2020-06-04T08:19:45Z</time>
      </trkpt>
      <trkpt lat="46.72332" lon="-1.89977">
        <ele>6.9</ele>
        <time>2020-06-04T08:19:46Z</time>
      </trkpt>
      <trkpt lat="46.72336" lon="-1.89982">
        <ele>6.9</ele>
        <time>2020-06-04T08:19:47Z</time>
      </trkpt>
      <trkpt lat="46.72339" lon="-1.89986">
        <ele>6.9</ele>
        <time>2020-06-04T08:19:48Z</time>
      </trkpt>
      <trkpt lat="46.72344" lon="-1.89991">
        <ele>6.9</ele>
        <time>2020-06-04T08:19:49Z</time>
      </trkpt>
      <trkpt lat="46.72347" lon="-1.89996">
        <ele>6.8</ele>
        <time>2020-06-04T08:19:50Z</time>
      </trkpt>
      <trkpt lat="46.72351" lon="-1.90001">
        <ele>6.7</ele>
        <time>2020-06-04T08:19:51Z</time>
      </trkpt>
      <trkpt lat="46.72355" lon="-1.90005">
        <ele>6.6</ele>
        <time>2020-06-04T08:19:52Z</time>
      </trkpt>
      <trkpt lat="46.72358" lon="-1.9001">
        <ele>6.5</ele>
        <time>2020-06-04T08:19:53Z</time>
      </trkpt>
      <trkpt lat="46.7236" lon="-1.90014">
        <ele>6.4</ele>
        <time>2020-06-04T08:19:54Z</time>
      </trkpt>
      <trkpt lat="46.72363" lon="-1.9002">
        <ele>6.3</ele>
        <time>2020-06-04T08:19:55Z</time>
      </trkpt>
      <trkpt lat="46.72365" lon="-1.90025">
        <ele>6.3</ele>
        <time>2020-06-04T08:19:56Z</time>
      </trkpt>
      <trkpt lat="46.72368" lon="-1.90031">
        <ele>6.2</ele>
        <time>2020-06-04T08:19:57Z</time>
      </trkpt>
      <trkpt lat="46.72371" lon="-1.90037">
        <ele>6.1</ele>
        <time>2020-06-04T08:19:58Z</time>
      </trkpt>
      <trkpt lat="46.72374" lon="-1.90043">
        <ele>6</ele>
        <time>2020-06-04T08:19:59Z</time>
      </trkpt>
      <trkpt lat="46.72377" lon="-1.9005">
        <ele>5.9</ele>
        <time>2020-06-04T08:20:00Z</time>
      </trkpt>
      <trkpt lat="46.7238" lon="-1.90056">
        <ele>5.8</ele>
        <time>2020-06-04T08:20:01Z</time>
      </trkpt>
      <trkpt lat="46.72382" lon="-1.90063">
        <ele>5.7</ele>
        <time>2020-06-04T08:20:02Z</time>
      </trkpt>
      <trkpt lat="46.72385" lon="-1.90069">
        <ele>5.6</ele>
        <time>2020-06-04T08:20:03Z</time>
      </trkpt>
      <trkpt lat="46.72388" lon="-1.90076">
        <ele>5.6</ele>
        <time>2020-06-04T08:20:04Z</time>
      </trkpt>
      <trkpt lat="46.7239" lon="-1.90082">
        <ele>5.5</ele>
        <time>2020-06-04T08:20:05Z</time>
      </trkpt>
      <trkpt lat="46.72393" lon="-1.9009">
        <ele>5.4</ele>
        <time>2020-06-04T08:20:06Z</time>
      </trkpt>
      <trkpt lat="46.72396" lon="-1.90098">
        <ele>5.4</ele>
        <time>2020-06-04T08:20:07Z</time>
      </trkpt>
      <trkpt lat="46.72399" lon="-1.90104">
        <ele>5.3</ele>
        <time>2020-06-04T08:20:08Z</time>
      </trkpt>
      <trkpt lat="46.72402" lon="-1.90111">
        <ele>5.3</ele>
        <time>2020-06-04T08:20:09Z</time>
      </trkpt>
      <trkpt lat="46.72405" lon="-1.90118">
        <ele>5.3</ele>
        <time>2020-06-04T08:20:10Z</time>
      </trkpt>
      <trkpt lat="46.72408" lon="-1.90125">
        <ele>5.3</ele>
        <time>2020-06-04T08:20:11Z</time>
      </trkpt>
      <trkpt lat="46.72412" lon="-1.90132">
        <ele>5.3</ele>
        <time>2020-06-04T08:20:12Z</time>
      </trkpt>
      <trkpt lat="46.72415" lon="-1.90138">
        <ele>5.3</ele>
        <time>2020-06-04T08:20:13Z</time>
      </trkpt>
      <trkpt lat="46.72417" lon="-1.90145">
        <ele>5.3</ele>
        <time>2020-06-04T08:20:14Z</time>
      </trkpt>
      <trkpt lat="46.7242" lon="-1.90153">
        <ele>5.2</ele>
        <time>2020-06-04T08:20:15Z</time>
      </trkpt>
      <trkpt lat="46.72423" lon="-1.9016">
        <ele>5.1</ele>
        <time>2020-06-04T08:20:16Z</time>
      </trkpt>
      <trkpt lat="46.72426" lon="-1.90168">
        <ele>4.9</ele>
        <time>2020-06-04T08:20:17Z</time>
      </trkpt>
      <trkpt lat="46.72428" lon="-1.90176">
        <ele>4.8</ele>
        <time>2020-06-04T08:20:18Z</time>
      </trkpt>
      <trkpt lat="46.72431" lon="-1.90184">
        <ele>4.7</ele>
        <time>2020-06-04T08:20:19Z</time>
      </trkpt>
      <trkpt lat="46.72435" lon="-1.90191">
        <ele>4.6</ele>
        <time>2020-06-04T08:20:20Z</time>
      </trkpt>
      <trkpt lat="46.72438" lon="-1.90198">
        <ele>4.5</ele>
        <time>2020-06-04T08:20:21Z</time>
      </trkpt>
      <trkpt lat="46.72441" lon="-1.90206">
        <ele>4.4</ele>
        <time>2020-06-04T08:20:22Z</time>
      </trkpt>
      <trkpt lat="46.72445" lon="-1.90212">
        <ele>4.4</ele>
        <time>2020-06-04T08:20:23Z</time>
      </trkpt>
      <trkpt lat="46.72448" lon="-1.90218">
        <ele>4.4</ele>
        <time>2020-06-04T08:20:24Z</time>
      </trkpt>
      <trkpt lat="46.72452" lon="-1.90225">
        <ele>4.3</ele>
        <time>2020-06-04T08:20:25Z</time>
      </trkpt>
      <trkpt lat="46.72455" lon="-1.90231">
        <ele>4.3</ele>
        <time>2020-06-04T08:20:26Z</time>
      </trkpt>
      <trkpt lat="46.72459" lon="-1.90236">
        <ele>4.3</ele>
        <time>2020-06-04T08:20:27Z</time>
      </trkpt>
      <trkpt lat="46.72463" lon="-1.90242">
        <ele>4.2</ele>
        <time>2020-06-04T08:20:28Z</time>
      </trkpt>
      <trkpt lat="46.72468" lon="-1.90246">
        <ele>4.1</ele>
        <time>2020-06-04T08:20:29Z</time>
      </trkpt>
      <trkpt lat="46.72473" lon="-1.90253">
        <ele>4.1</ele>
        <time>2020-06-04T08:20:30Z</time>
      </trkpt>
      <trkpt lat="46.72477" lon="-1.90257">
        <ele>4</ele>
        <time>2020-06-04T08:20:31Z</time>
      </trkpt>
      <trkpt lat="46.72482" lon="-1.90261">
        <ele>3.9</ele>
        <time>2020-06-04T08:20:32Z</time>
      </trkpt>
      <trkpt lat="46.72486" lon="-1.90265">
        <ele>3.8</ele>
        <time>2020-06-04T08:20:33Z</time>
      </trkpt>
      <trkpt lat="46.72491" lon="-1.90269">
        <ele>3.7</ele>
        <time>2020-06-04T08:20:34Z</time>
      </trkpt>
      <trkpt lat="46.72496" lon="-1.90272">
        <ele>3.6</ele>
        <time>2020-06-04T08:20:35Z</time>
      </trkpt>
      <trkpt lat="46.72501" lon="-1.90276">
        <ele>3.6</ele>
        <time>2020-06-04T08:20:36Z</time>
      </trkpt>
      <trkpt lat="46.72505" lon="-1.9028">
        <ele>3.5</ele>
        <time>2020-06-04T08:20:37Z</time>
      </trkpt>
      <trkpt lat="46.7251" lon="-1.90285">
        <ele>3.5</ele>
        <time>2020-06-04T08:20:38Z</time>
      </trkpt>
      <trkpt lat="46.72514" lon="-1.90288">
        <ele>3.5</ele>
        <time>2020-06-04T08:20:39Z</time>
      </trkpt>
      <trkpt lat="46.72519" lon="-1.90293">
        <ele>3.4</ele>
        <time>2020-06-04T08:20:40Z</time>
      </trkpt>
      <trkpt lat="46.72524" lon="-1.90297">
        <ele>3.4</ele>
        <time>2020-06-04T08:20:41Z</time>
      </trkpt>
      <trkpt lat="46.72529" lon="-1.90302">
        <ele>3.4</ele>
        <time>2020-06-04T08:20:42Z</time>
      </trkpt>
      <trkpt lat="46.72535" lon="-1.90309">
        <ele>3.3</ele>
        <time>2020-06-04T08:20:43Z</time>
      </trkpt>
      <trkpt lat="46.7254" lon="-1.90313">
        <ele>3.3</ele>
        <time>2020-06-04T08:20:44Z</time>
      </trkpt>
      <trkpt lat="46.72545" lon="-1.90318">
        <ele>3.2</ele>
        <time>2020-06-04T08:20:45Z</time>
      </trkpt>
      <trkpt lat="46.72551" lon="-1.90323">
        <ele>3.2</ele>
        <time>2020-06-04T08:20:46Z</time>
      </trkpt>
      <trkpt lat="46.72556" lon="-1.90328">
        <ele>3.1</ele>
        <time>2020-06-04T08:20:47Z</time>
      </trkpt>
      <trkpt lat="46.72561" lon="-1.90332">
        <ele>3.1</ele>
        <time>2020-06-04T08:20:48Z</time>
      </trkpt>
      <trkpt lat="46.72566" lon="-1.90337">
        <ele>3.1</ele>
        <time>2020-06-04T08:20:49Z</time>
      </trkpt>
      <trkpt lat="46.72572" lon="-1.90342">
        <ele>3.1</ele>
        <time>2020-06-04T08:20:50Z</time>
      </trkpt>
      <trkpt lat="46.72576" lon="-1.90346">
        <ele>3.2</ele>
        <time>2020-06-04T08:20:51Z</time>
      </trkpt>
      <trkpt lat="46.72581" lon="-1.90351">
        <ele>3.2</ele>
        <time>2020-06-04T08:20:52Z</time>
      </trkpt>
      <trkpt lat="46.72585" lon="-1.90355">
        <ele>3.2</ele>
        <time>2020-06-04T08:20:53Z</time>
      </trkpt>
      <trkpt lat="46.72588" lon="-1.90358">
        <ele>3.2</ele>
        <time>2020-06-04T08:20:54Z</time>
      </trkpt>
      <trkpt lat="46.72591" lon="-1.90362">
        <ele>3.2</ele>
        <time>2020-06-04T08:20:55Z</time>
      </trkpt>
      <trkpt lat="46.72596" lon="-1.90366">
        <ele>3.2</ele>
        <time>2020-06-04T08:20:56Z</time>
      </trkpt>
      <trkpt lat="46.72601" lon="-1.90373">
        <ele>3.2</ele>
        <time>2020-06-04T08:20:57Z</time>
      </trkpt>
      <trkpt lat="46.72606" lon="-1.90378">
        <ele>3.3</ele>
        <time>2020-06-04T08:20:58Z</time>
      </trkpt>
      <trkpt lat="46.72612" lon="-1.90383">
        <ele>3.3</ele>
        <time>2020-06-04T08:20:59Z</time>
      </trkpt>
      <trkpt lat="46.72617" lon="-1.90388">
        <ele>3.4</ele>
        <time>2020-06-04T08:21:00Z</time>
      </trkpt>
      <trkpt lat="46.72621" lon="-1.90392">
        <ele>3.4</ele>
        <time>2020-06-04T08:21:01Z</time>
      </trkpt>
      <trkpt lat="46.72626" lon="-1.90396">
        <ele>3.4</ele>
        <time>2020-06-04T08:21:02Z</time>
      </trkpt>
      <trkpt lat="46.72631" lon="-1.90401">
        <ele>3.5</ele>
        <time>2020-06-04T08:21:03Z</time>
      </trkpt>
      <trkpt lat="46.72637" lon="-1.90406">
        <ele>3.5</ele>
        <time>2020-06-04T08:21:04Z</time>
      </trkpt>
      <trkpt lat="46.72642" lon="-1.90411">
        <ele>3.5</ele>
        <time>2020-06-04T08:21:05Z</time>
      </trkpt>
      <trkpt lat="46.72647" lon="-1.90416">
        <ele>3.5</ele>
        <time>2020-06-04T08:21:06Z</time>
      </trkpt>
      <trkpt lat="46.72652" lon="-1.90422">
        <ele>3.6</ele>
        <time>2020-06-04T08:21:07Z</time>
      </trkpt>
      <trkpt lat="46.72656" lon="-1.90427">
        <ele>3.6</ele>
        <time>2020-06-04T08:21:08Z</time>
      </trkpt>
      <trkpt lat="46.7266" lon="-1.90431">
        <ele>3.6</ele>
        <time>2020-06-04T08:21:09Z</time>
      </trkpt>
      <trkpt lat="46.72665" lon="-1.90436">
        <ele>3.6</ele>
        <time>2020-06-04T08:21:10Z</time>
      </trkpt>
      <trkpt lat="46.72669" lon="-1.90441">
        <ele>3.6</ele>
        <time>2020-06-04T08:21:11Z</time>
      </trkpt>
      <trkpt lat="46.72674" lon="-1.90445">
        <ele>3.6</ele>
        <time>2020-06-04T08:21:12Z</time>
      </trkpt>
      <trkpt lat="46.72679" lon="-1.9045">
        <ele>3.7</ele>
        <time>2020-06-04T08:21:13Z</time>
      </trkpt>
      <trkpt lat="46.72684" lon="-1.90455">
        <ele>3.7</ele>
        <time>2020-06-04T08:21:14Z</time>
      </trkpt>
      <trkpt lat="46.72689" lon="-1.9046">
        <ele>3.7</ele>
        <time>2020-06-04T08:21:15Z</time>
      </trkpt>
      <trkpt lat="46.72694" lon="-1.90465">
        <ele>3.8</ele>
        <time>2020-06-04T08:21:16Z</time>
      </trkpt>
      <trkpt lat="46.72698" lon="-1.90469">
        <ele>3.8</ele>
        <time>2020-06-04T08:21:17Z</time>
      </trkpt>
      <trkpt lat="46.72703" lon="-1.90473">
        <ele>3.8</ele>
        <time>2020-06-04T08:21:18Z</time>
      </trkpt>
      <trkpt lat="46.72708" lon="-1.90478">
        <ele>3.8</ele>
        <time>2020-06-04T08:21:19Z</time>
      </trkpt>
      <trkpt lat="46.72712" lon="-1.90482">
        <ele>3.8</ele>
        <time>2020-06-04T08:21:20Z</time>
      </trkpt>
      <trkpt lat="46.72718" lon="-1.90487">
        <ele>3.8</ele>
        <time>2020-06-04T08:21:21Z</time>
      </trkpt>
      <trkpt lat="46.72722" lon="-1.90492">
        <ele>3.8</ele>
        <time>2020-06-04T08:21:22Z</time>
      </trkpt>
      <trkpt lat="46.72728" lon="-1.90498">
        <ele>3.7</ele>
        <time>2020-06-04T08:21:23Z</time>
      </trkpt>
      <trkpt lat="46.72733" lon="-1.90502">
        <ele>3.7</ele>
        <time>2020-06-04T08:21:24Z</time>
      </trkpt>
      <trkpt lat="46.72738" lon="-1.90507">
        <ele>3.7</ele>
        <time>2020-06-04T08:21:25Z</time>
      </trkpt>
      <trkpt lat="46.72742" lon="-1.90512">
        <ele>3.7</ele>
        <time>2020-06-04T08:21:26Z</time>
      </trkpt>
      <trkpt lat="46.72747" lon="-1.90516">
        <ele>3.7</ele>
        <time>2020-06-04T08:21:27Z</time>
      </trkpt>
      <trkpt lat="46.72752" lon="-1.90521">
        <ele>3.7</ele>
        <time>2020-06-04T08:21:28Z</time>
      </trkpt>
      <trkpt lat="46.72757" lon="-1.90524">
        <ele>3.7</ele>
        <time>2020-06-04T08:21:29Z</time>
      </trkpt>
      <trkpt lat="46.72763" lon="-1.90529">
        <ele>3.7</ele>
        <time>2020-06-04T08:21:30Z</time>
      </trkpt>
      <trkpt lat="46.72768" lon="-1.90534">
        <ele>3.7</ele>
        <time>2020-06-04T08:21:31Z</time>
      </trkpt>
      <trkpt lat="46.72773" lon="-1.90539">
        <ele>3.7</ele>
        <time>2020-06-04T08:21:32Z</time>
      </trkpt>
      <trkpt lat="46.72778" lon="-1.90544">
        <ele>3.7</ele>
        <time>2020-06-04T08:21:33Z</time>
      </trkpt>
      <trkpt lat="46.72783" lon="-1.9055">
        <ele>3.7</ele>
        <time>2020-06-04T08:21:34Z</time>
      </trkpt>
      <trkpt lat="46.72788" lon="-1.90554">
        <ele>3.6</ele>
        <time>2020-06-04T08:21:35Z</time>
      </trkpt>
      <trkpt lat="46.72793" lon="-1.90558">
        <ele>3.6</ele>
        <time>2020-06-04T08:21:36Z</time>
      </trkpt>
      <trkpt lat="46.72798" lon="-1.90563">
        <ele>3.6</ele>
        <time>2020-06-04T08:21:37Z</time>
      </trkpt>
      <trkpt lat="46.72803" lon="-1.90568">
        <ele>3.6</ele>
        <time>2020-06-04T08:21:38Z</time>
      </trkpt>
      <trkpt lat="46.72808" lon="-1.90574">
        <ele>3.6</ele>
        <time>2020-06-04T08:21:39Z</time>
      </trkpt>
      <trkpt lat="46.72813" lon="-1.9058">
        <ele>3.6</ele>
        <time>2020-06-04T08:21:40Z</time>
      </trkpt>
      <trkpt lat="46.72817" lon="-1.90587">
        <ele>3.6</ele>
        <time>2020-06-04T08:21:41Z</time>
      </trkpt>
      <trkpt lat="46.72821" lon="-1.90594">
        <ele>3.6</ele>
        <time>2020-06-04T08:21:42Z</time>
      </trkpt>
      <trkpt lat="46.72824" lon="-1.906">
        <ele>3.6</ele>
        <time>2020-06-04T08:21:43Z</time>
      </trkpt>
      <trkpt lat="46.72828" lon="-1.90606">
        <ele>3.6</ele>
        <time>2020-06-04T08:21:44Z</time>
      </trkpt>
      <trkpt lat="46.72832" lon="-1.90613">
        <ele>3.6</ele>
        <time>2020-06-04T08:21:45Z</time>
      </trkpt>
      <trkpt lat="46.72836" lon="-1.90619">
        <ele>3.6</ele>
        <time>2020-06-04T08:21:46Z</time>
      </trkpt>
      <trkpt lat="46.72841" lon="-1.90626">
        <ele>3.6</ele>
        <time>2020-06-04T08:21:47Z</time>
      </trkpt>
      <trkpt lat="46.72845" lon="-1.90632">
        <ele>3.6</ele>
        <time>2020-06-04T08:21:48Z</time>
      </trkpt>
      <trkpt lat="46.72848" lon="-1.90637">
        <ele>3.6</ele>
        <time>2020-06-04T08:21:49Z</time>
      </trkpt>
      <trkpt lat="46.72851" lon="-1.90642">
        <ele>3.6</ele>
        <time>2020-06-04T08:21:50Z</time>
      </trkpt>
      <trkpt lat="46.72855" lon="-1.90649">
        <ele>3.6</ele>
        <time>2020-06-04T08:21:51Z</time>
      </trkpt>
      <trkpt lat="46.72859" lon="-1.90655">
        <ele>3.6</ele>
        <time>2020-06-04T08:21:52Z</time>
      </trkpt>
      <trkpt lat="46.72863" lon="-1.90661">
        <ele>3.6</ele>
        <time>2020-06-04T08:21:53Z</time>
      </trkpt>
      <trkpt lat="46.72867" lon="-1.90668">
        <ele>3.6</ele>
        <time>2020-06-04T08:21:54Z</time>
      </trkpt>
      <trkpt lat="46.72871" lon="-1.90674">
        <ele>3.6</ele>
        <time>2020-06-04T08:21:55Z</time>
      </trkpt>
      <trkpt lat="46.72875" lon="-1.90679">
        <ele>3.6</ele>
        <time>2020-06-04T08:21:56Z</time>
      </trkpt>
      <trkpt lat="46.7288" lon="-1.90685">
        <ele>3.6</ele>
        <time>2020-06-04T08:21:57Z</time>
      </trkpt>
      <trkpt lat="46.72885" lon="-1.90692">
        <ele>3.6</ele>
        <time>2020-06-04T08:21:58Z</time>
      </trkpt>
      <trkpt lat="46.72889" lon="-1.907">
        <ele>3.6</ele>
        <time>2020-06-04T08:21:59Z</time>
      </trkpt>
      <trkpt lat="46.72894" lon="-1.90707">
        <ele>3.6</ele>
        <time>2020-06-04T08:22:00Z</time>
      </trkpt>
      <trkpt lat="46.72898" lon="-1.90713">
        <ele>3.6</ele>
        <time>2020-06-04T08:22:01Z</time>
      </trkpt>
      <trkpt lat="46.72902" lon="-1.90719">
        <ele>3.6</ele>
        <time>2020-06-04T08:22:02Z</time>
      </trkpt>
      <trkpt lat="46.72905" lon="-1.90725">
        <ele>3.6</ele>
        <time>2020-06-04T08:22:03Z</time>
      </trkpt>
      <trkpt lat="46.72909" lon="-1.9073">
        <ele>3.6</ele>
        <time>2020-06-04T08:22:04Z</time>
      </trkpt>
      <trkpt lat="46.72913" lon="-1.90735">
        <ele>3.6</ele>
        <time>2020-06-04T08:22:05Z</time>
      </trkpt>
      <trkpt lat="46.72916" lon="-1.9074">
        <ele>3.6</ele>
        <time>2020-06-04T08:22:06Z</time>
      </trkpt>
      <trkpt lat="46.7292" lon="-1.90745">
        <ele>3.6</ele>
        <time>2020-06-04T08:22:07Z</time>
      </trkpt>
      <trkpt lat="46.72923" lon="-1.9075">
        <ele>3.6</ele>
        <time>2020-06-04T08:22:08Z</time>
      </trkpt>
      <trkpt lat="46.72927" lon="-1.90756">
        <ele>3.6</ele>
        <time>2020-06-04T08:22:09Z</time>
      </trkpt>
      <trkpt lat="46.72931" lon="-1.90763">
        <ele>3.6</ele>
        <time>2020-06-04T08:22:10Z</time>
      </trkpt>
      <trkpt lat="46.72934" lon="-1.90769">
        <ele>3.6</ele>
        <time>2020-06-04T08:22:11Z</time>
      </trkpt>
      <trkpt lat="46.72938" lon="-1.90775">
        <ele>3.6</ele>
        <time>2020-06-04T08:22:12Z</time>
      </trkpt>
      <trkpt lat="46.72942" lon="-1.90781">
        <ele>3.6</ele>
        <time>2020-06-04T08:22:13Z</time>
      </trkpt>
      <trkpt lat="46.72946" lon="-1.90787">
        <ele>3.6</ele>
        <time>2020-06-04T08:22:14Z</time>
      </trkpt>
      <trkpt lat="46.7295" lon="-1.90794">
        <ele>3.6</ele>
        <time>2020-06-04T08:22:15Z</time>
      </trkpt>
      <trkpt lat="46.72954" lon="-1.90799">
        <ele>3.6</ele>
        <time>2020-06-04T08:22:16Z</time>
      </trkpt>
      <trkpt lat="46.72958" lon="-1.90805">
        <ele>3.6</ele>
        <time>2020-06-04T08:22:17Z</time>
      </trkpt>
      <trkpt lat="46.72961" lon="-1.90812">
        <ele>3.6</ele>
        <time>2020-06-04T08:22:18Z</time>
      </trkpt>
      <trkpt lat="46.72965" lon="-1.90818">
        <ele>3.6</ele>
        <time>2020-06-04T08:22:19Z</time>
      </trkpt>
      <trkpt lat="46.72969" lon="-1.90823">
        <ele>3.6</ele>
        <time>2020-06-04T08:22:20Z</time>
      </trkpt>
      <trkpt lat="46.72972" lon="-1.9083">
        <ele>3.6</ele>
        <time>2020-06-04T08:22:21Z</time>
      </trkpt>
      <trkpt lat="46.72976" lon="-1.90836">
        <ele>3.6</ele>
        <time>2020-06-04T08:22:22Z</time>
      </trkpt>
      <trkpt lat="46.7298" lon="-1.90842">
        <ele>3.6</ele>
        <time>2020-06-04T08:22:23Z</time>
      </trkpt>
      <trkpt lat="46.72984" lon="-1.90847">
        <ele>3.6</ele>
        <time>2020-06-04T08:22:24Z</time>
      </trkpt>
      <trkpt lat="46.72988" lon="-1.90853">
        <ele>3.6</ele>
        <time>2020-06-04T08:22:25Z</time>
      </trkpt>
      <trkpt lat="46.72992" lon="-1.90859">
        <ele>3.6</ele>
        <time>2020-06-04T08:22:26Z</time>
      </trkpt>
      <trkpt lat="46.72995" lon="-1.90865">
        <ele>3.5</ele>
        <time>2020-06-04T08:22:27Z</time>
      </trkpt>
      <trkpt lat="46.72999" lon="-1.90871">
        <ele>3.5</ele>
        <time>2020-06-04T08:22:28Z</time>
      </trkpt>
      <trkpt lat="46.73002" lon="-1.90875">
        <ele>3.5</ele>
        <time>2020-06-04T08:22:29Z</time>
      </trkpt>
      <trkpt lat="46.73005" lon="-1.9088">
        <ele>3.5</ele>
        <time>2020-06-04T08:22:30Z</time>
      </trkpt>
      <trkpt lat="46.73008" lon="-1.90885">
        <ele>3.5</ele>
        <time>2020-06-04T08:22:31Z</time>
      </trkpt>
      <trkpt lat="46.73012" lon="-1.90891">
        <ele>3.5</ele>
        <time>2020-06-04T08:22:32Z</time>
      </trkpt>
      <trkpt lat="46.73016" lon="-1.90896">
        <ele>3.5</ele>
        <time>2020-06-04T08:22:33Z</time>
      </trkpt>
      <trkpt lat="46.73019" lon="-1.90901">
        <ele>3.5</ele>
        <time>2020-06-04T08:22:34Z</time>
      </trkpt>
      <trkpt lat="46.73023" lon="-1.90907">
        <ele>3.5</ele>
        <time>2020-06-04T08:22:35Z</time>
      </trkpt>
      <trkpt lat="46.73027" lon="-1.90913">
        <ele>3.5</ele>
        <time>2020-06-04T08:22:36Z</time>
      </trkpt>
      <trkpt lat="46.7303" lon="-1.90918">
        <ele>3.5</ele>
        <time>2020-06-04T08:22:37Z</time>
      </trkpt>
      <trkpt lat="46.73033" lon="-1.90924">
        <ele>3.5</ele>
        <time>2020-06-04T08:22:38Z</time>
      </trkpt>
      <trkpt lat="46.73037" lon="-1.9093">
        <ele>3.5</ele>
        <time>2020-06-04T08:22:39Z</time>
      </trkpt>
      <trkpt lat="46.7304" lon="-1.90935">
        <ele>3.6</ele>
        <time>2020-06-04T08:22:40Z</time>
      </trkpt>
      <trkpt lat="46.73043" lon="-1.9094">
        <ele>3.6</ele>
        <time>2020-06-04T08:22:41Z</time>
      </trkpt>
      <trkpt lat="46.73046" lon="-1.90943">
        <ele>3.6</ele>
        <time>2020-06-04T08:22:42Z</time>
      </trkpt>
      <trkpt lat="46.73049" lon="-1.90948">
        <ele>3.6</ele>
        <time>2020-06-04T08:22:43Z</time>
      </trkpt>
      <trkpt lat="46.73052" lon="-1.90954">
        <ele>3.6</ele>
        <time>2020-06-04T08:22:44Z</time>
      </trkpt>
      <trkpt lat="46.73055" lon="-1.90957">
        <ele>3.6</ele>
        <time>2020-06-04T08:22:45Z</time>
      </trkpt>
      <trkpt lat="46.73058" lon="-1.90963">
        <ele>3.6</ele>
        <time>2020-06-04T08:22:46Z</time>
      </trkpt>
      <trkpt lat="46.73061" lon="-1.90969">
        <ele>3.7</ele>
        <time>2020-06-04T08:22:47Z</time>
      </trkpt>
      <trkpt lat="46.73065" lon="-1.90974">
        <ele>3.7</ele>
        <time>2020-06-04T08:22:48Z</time>
      </trkpt>
      <trkpt lat="46.73069" lon="-1.9098">
        <ele>3.7</ele>
        <time>2020-06-04T08:22:49Z</time>
      </trkpt>
      <trkpt lat="46.73072" lon="-1.90985">
        <ele>3.8</ele>
        <time>2020-06-04T08:22:50Z</time>
      </trkpt>
      <trkpt lat="46.73075" lon="-1.9099">
        <ele>3.8</ele>
        <time>2020-06-04T08:22:51Z</time>
      </trkpt>
      <trkpt lat="46.73078" lon="-1.90995">
        <ele>3.8</ele>
        <time>2020-06-04T08:22:52Z</time>
      </trkpt>
      <trkpt lat="46.73081" lon="-1.91001">
        <ele>3.9</ele>
        <time>2020-06-04T08:22:53Z</time>
      </trkpt>
      <trkpt lat="46.73084" lon="-1.91005">
        <ele>3.9</ele>
        <time>2020-06-04T08:22:54Z</time>
      </trkpt>
      <trkpt lat="46.73087" lon="-1.9101">
        <ele>4</ele>
        <time>2020-06-04T08:22:55Z</time>
      </trkpt>
      <trkpt lat="46.73091" lon="-1.91014">
        <ele>4.1</ele>
        <time>2020-06-04T08:22:56Z</time>
      </trkpt>
      <trkpt lat="46.73095" lon="-1.91019">
        <ele>4.1</ele>
        <time>2020-06-04T08:22:57Z</time>
      </trkpt>
      <trkpt lat="46.73098" lon="-1.91024">
        <ele>4.2</ele>
        <time>2020-06-04T08:22:58Z</time>
      </trkpt>
      <trkpt lat="46.73102" lon="-1.91029">
        <ele>4.3</ele>
        <time>2020-06-04T08:22:59Z</time>
      </trkpt>
      <trkpt lat="46.73105" lon="-1.91033">
        <ele>4.4</ele>
        <time>2020-06-04T08:23:00Z</time>
      </trkpt>
      <trkpt lat="46.73109" lon="-1.91038">
        <ele>4.5</ele>
        <time>2020-06-04T08:23:01Z</time>
      </trkpt>
      <trkpt lat="46.73112" lon="-1.91042">
        <ele>4.6</ele>
        <time>2020-06-04T08:23:02Z</time>
      </trkpt>
      <trkpt lat="46.73115" lon="-1.91047">
        <ele>4.6</ele>
        <time>2020-06-04T08:23:03Z</time>
      </trkpt>
      <trkpt lat="46.73118" lon="-1.91051">
        <ele>4.7</ele>
        <time>2020-06-04T08:23:04Z</time>
      </trkpt>
      <trkpt lat="46.73122" lon="-1.91056">
        <ele>4.8</ele>
        <time>2020-06-04T08:23:05Z</time>
      </trkpt>
      <trkpt lat="46.73126" lon="-1.91062">
        <ele>4.9</ele>
        <time>2020-06-04T08:23:06Z</time>
      </trkpt>
      <trkpt lat="46.73129" lon="-1.91068">
        <ele>5</ele>
        <time>2020-06-04T08:23:07Z</time>
      </trkpt>
      <trkpt lat="46.73133" lon="-1.91073">
        <ele>5.1</ele>
        <time>2020-06-04T08:23:08Z</time>
      </trkpt>
      <trkpt lat="46.73136" lon="-1.91077">
        <ele>5.1</ele>
        <time>2020-06-04T08:23:09Z</time>
      </trkpt>
      <trkpt lat="46.73139" lon="-1.91082">
        <ele>5.2</ele>
        <time>2020-06-04T08:23:10Z</time>
      </trkpt>
      <trkpt lat="46.73142" lon="-1.91086">
        <ele>5.3</ele>
        <time>2020-06-04T08:23:11Z</time>
      </trkpt>
      <trkpt lat="46.73145" lon="-1.91093">
        <ele>5.4</ele>
        <time>2020-06-04T08:23:12Z</time>
      </trkpt>
      <trkpt lat="46.73148" lon="-1.91097">
        <ele>5.5</ele>
        <time>2020-06-04T08:23:13Z</time>
      </trkpt>
      <trkpt lat="46.73152" lon="-1.91102">
        <ele>5.5</ele>
        <time>2020-06-04T08:23:14Z</time>
      </trkpt>
      <trkpt lat="46.73156" lon="-1.91107">
        <ele>5.6</ele>
        <time>2020-06-04T08:23:15Z</time>
      </trkpt>
      <trkpt lat="46.73159" lon="-1.91113">
        <ele>5.6</ele>
        <time>2020-06-04T08:23:16Z</time>
      </trkpt>
      <trkpt lat="46.73162" lon="-1.91117">
        <ele>5.6</ele>
        <time>2020-06-04T08:23:17Z</time>
      </trkpt>
      <trkpt lat="46.73165" lon="-1.91122">
        <ele>5.6</ele>
        <time>2020-06-04T08:23:18Z</time>
      </trkpt>
      <trkpt lat="46.73168" lon="-1.91125">
        <ele>5.9</ele>
        <time>2020-06-04T08:23:19Z</time>
      </trkpt>
      <trkpt lat="46.73171" lon="-1.91129">
        <ele>6.1</ele>
        <time>2020-06-04T08:23:20Z</time>
      </trkpt>
      <trkpt lat="46.73175" lon="-1.91133">
        <ele>6.3</ele>
        <time>2020-06-04T08:23:21Z</time>
      </trkpt>
      <trkpt lat="46.73178" lon="-1.91139">
        <ele>6.7</ele>
        <time>2020-06-04T08:23:22Z</time>
      </trkpt>
      <trkpt lat="46.73181" lon="-1.91143">
        <ele>7</ele>
        <time>2020-06-04T08:23:23Z</time>
      </trkpt>
      <trkpt lat="46.73184" lon="-1.91147">
        <ele>7.3</ele>
        <time>2020-06-04T08:23:24Z</time>
      </trkpt>
      <trkpt lat="46.73187" lon="-1.91151">
        <ele>7.6</ele>
        <time>2020-06-04T08:23:25Z</time>
      </trkpt>
      <trkpt lat="46.73189" lon="-1.91155">
        <ele>7.8</ele>
        <time>2020-06-04T08:23:26Z</time>
      </trkpt>
      <trkpt lat="46.73191" lon="-1.9116">
        <ele>8.2</ele>
        <time>2020-06-04T08:23:27Z</time>
      </trkpt>
      <trkpt lat="46.73192" lon="-1.91166">
        <ele>8.5</ele>
        <time>2020-06-04T08:23:28Z</time>
      </trkpt>
      <trkpt lat="46.73195" lon="-1.91172">
        <ele>8.9</ele>
        <time>2020-06-04T08:23:29Z</time>
      </trkpt>
      <trkpt lat="46.73197" lon="-1.91177">
        <ele>9.3</ele>
        <time>2020-06-04T08:23:30Z</time>
      </trkpt>
      <trkpt lat="46.73198" lon="-1.91183">
        <ele>9.6</ele>
        <time>2020-06-04T08:23:31Z</time>
      </trkpt>
      <trkpt lat="46.732" lon="-1.91187">
        <ele>9.9</ele>
        <time>2020-06-04T08:23:32Z</time>
      </trkpt>
      <trkpt lat="46.73203" lon="-1.91191">
        <ele>10.2</ele>
        <time>2020-06-04T08:23:33Z</time>
      </trkpt>
      <trkpt lat="46.73205" lon="-1.91195">
        <ele>10.5</ele>
        <time>2020-06-04T08:23:34Z</time>
      </trkpt>
      <trkpt lat="46.73207" lon="-1.91202">
        <ele>10.9</ele>
        <time>2020-06-04T08:23:35Z</time>
      </trkpt>
      <trkpt lat="46.73209" lon="-1.91206">
        <ele>11.2</ele>
        <time>2020-06-04T08:23:36Z</time>
      </trkpt>
      <trkpt lat="46.73212" lon="-1.91211">
        <ele>11.5</ele>
        <time>2020-06-04T08:23:37Z</time>
      </trkpt>
      <trkpt lat="46.73214" lon="-1.91216">
        <ele>11.8</ele>
        <time>2020-06-04T08:23:38Z</time>
      </trkpt>
      <trkpt lat="46.73217" lon="-1.91222">
        <ele>12.1</ele>
        <time>2020-06-04T08:23:39Z</time>
      </trkpt>
      <trkpt lat="46.7322" lon="-1.91228">
        <ele>12.3</ele>
        <time>2020-06-04T08:23:40Z</time>
      </trkpt>
      <trkpt lat="46.73222" lon="-1.91233">
        <ele>12.4</ele>
        <time>2020-06-04T08:23:41Z</time>
      </trkpt>
      <trkpt lat="46.73225" lon="-1.91239">
        <ele>12.4</ele>
        <time>2020-06-04T08:23:42Z</time>
      </trkpt>
      <trkpt lat="46.73228" lon="-1.91246">
        <ele>12.6</ele>
        <time>2020-06-04T08:23:43Z</time>
      </trkpt>
      <trkpt lat="46.73231" lon="-1.91252">
        <ele>12.7</ele>
        <time>2020-06-04T08:23:44Z</time>
      </trkpt>
      <trkpt lat="46.73234" lon="-1.91258">
        <ele>12.8</ele>
        <time>2020-06-04T08:23:45Z</time>
      </trkpt>
      <trkpt lat="46.73236" lon="-1.91263">
        <ele>12.9</ele>
        <time>2020-06-04T08:23:46Z</time>
      </trkpt>
      <trkpt lat="46.73238" lon="-1.91267">
        <ele>13</ele>
        <time>2020-06-04T08:23:47Z</time>
      </trkpt>
      <trkpt lat="46.73241" lon="-1.9127">
        <ele>13</ele>
        <time>2020-06-04T08:23:48Z</time>
      </trkpt>
      <trkpt lat="46.73243" lon="-1.91275">
        <ele>13.1</ele>
        <time>2020-06-04T08:23:49Z</time>
      </trkpt>
      <trkpt lat="46.73245" lon="-1.91278">
        <ele>13.2</ele>
        <time>2020-06-04T08:23:50Z</time>
      </trkpt>
      <trkpt lat="46.73246" lon="-1.91282">
        <ele>13.3</ele>
        <time>2020-06-04T08:23:51Z</time>
      </trkpt>
      <trkpt lat="46.73248" lon="-1.91286">
        <ele>13.3</ele>
        <time>2020-06-04T08:23:52Z</time>
      </trkpt>
      <trkpt lat="46.7325" lon="-1.9129">
        <ele>13.4</ele>
        <time>2020-06-04T08:23:53Z</time>
      </trkpt>
      <trkpt lat="46.73251" lon="-1.91294">
        <ele>13.4</ele>
        <time>2020-06-04T08:23:54Z</time>
      </trkpt>
      <trkpt lat="46.73254" lon="-1.91299">
        <ele>13.5</ele>
        <time>2020-06-04T08:23:55Z</time>
      </trkpt>
      <trkpt lat="46.73255" lon="-1.91301">
        <ele>13.5</ele>
        <time>2020-06-04T08:23:56Z</time>
      </trkpt>
      <trkpt lat="46.73257" lon="-1.91305">
        <ele>13.5</ele>
        <time>2020-06-04T08:23:57Z</time>
      </trkpt>
      <trkpt lat="46.73258" lon="-1.9131">
        <ele>13.6</ele>
        <time>2020-06-04T08:23:58Z</time>
      </trkpt>
      <trkpt lat="46.73259" lon="-1.91314">
        <ele>13.6</ele>
        <time>2020-06-04T08:23:59Z</time>
      </trkpt>
      <trkpt lat="46.73261" lon="-1.91319">
        <ele>13.6</ele>
        <time>2020-06-04T08:24:00Z</time>
      </trkpt>
      <trkpt lat="46.73262" lon="-1.91321">
        <ele>13.7</ele>
        <time>2020-06-04T08:24:01Z</time>
      </trkpt>
      <trkpt lat="46.73264" lon="-1.91326">
        <ele>13.7</ele>
        <time>2020-06-04T08:24:02Z</time>
      </trkpt>
      <trkpt lat="46.73265" lon="-1.91327">
        <ele>13.7</ele>
        <time>2020-06-04T08:24:03Z</time>
      </trkpt>
      <trkpt lat="46.73266" lon="-1.91331">
        <ele>13.7</ele>
        <time>2020-06-04T08:24:04Z</time>
      </trkpt>
      <trkpt lat="46.73268" lon="-1.91336">
        <ele>13.8</ele>
        <time>2020-06-04T08:24:05Z</time>
      </trkpt>
      <trkpt lat="46.73269" lon="-1.91338">
        <ele>13.8</ele>
        <time>2020-06-04T08:24:06Z</time>
      </trkpt>
      <trkpt lat="46.73271" lon="-1.91342">
        <ele>13.8</ele>
        <time>2020-06-04T08:24:07Z</time>
      </trkpt>
      <trkpt lat="46.73272" lon="-1.91344">
        <ele>13.8</ele>
        <time>2020-06-04T08:24:08Z</time>
      </trkpt>
      <trkpt lat="46.73274" lon="-1.91348">
        <ele>13.8</ele>
        <time>2020-06-04T08:24:09Z</time>
      </trkpt>
      <trkpt lat="46.73274" lon="-1.9135">
        <ele>13.8</ele>
        <time>2020-06-04T08:24:10Z</time>
      </trkpt>
      <trkpt lat="46.73276" lon="-1.91354">
        <ele>13.8</ele>
        <time>2020-06-04T08:24:11Z</time>
      </trkpt>
      <trkpt lat="46.73277" lon="-1.91355">
        <ele>13.8</ele>
        <time>2020-06-04T08:24:12Z</time>
      </trkpt>
      <trkpt lat="46.73279" lon="-1.91359">
        <ele>13.8</ele>
        <time>2020-06-04T08:24:13Z</time>
      </trkpt>
      <trkpt lat="46.73281" lon="-1.91363">
        <ele>13.7</ele>
        <time>2020-06-04T08:24:14Z</time>
      </trkpt>
      <trkpt lat="46.73283" lon="-1.91368">
        <ele>13.7</ele>
        <time>2020-06-04T08:24:15Z</time>
      </trkpt>
      <trkpt lat="46.73284" lon="-1.9137">
        <ele>13.7</ele>
        <time>2020-06-04T08:24:16Z</time>
      </trkpt>
      <trkpt lat="46.73285" lon="-1.91374">
        <ele>13.7</ele>
        <time>2020-06-04T08:24:17Z</time>
      </trkpt>
      <trkpt lat="46.73286" lon="-1.91377">
        <ele>13.7</ele>
        <time>2020-06-04T08:24:18Z</time>
      </trkpt>
      <trkpt lat="46.73287" lon="-1.91379">
        <ele>13.7</ele>
        <time>2020-06-04T08:24:19Z</time>
      </trkpt>
      <trkpt lat="46.73287" lon="-1.9138">
        <ele>13.7</ele>
        <time>2020-06-04T08:24:20Z</time>
      </trkpt>
      <trkpt lat="46.73288" lon="-1.91385">
        <ele>13.7</ele>
        <time>2020-06-04T08:24:21Z</time>
      </trkpt>
      <trkpt lat="46.73289" lon="-1.91386">
        <ele>13.7</ele>
        <time>2020-06-04T08:24:22Z</time>
      </trkpt>
      <trkpt lat="46.7329" lon="-1.91389">
        <ele>13.7</ele>
        <time>2020-06-04T08:24:23Z</time>
      </trkpt>
      <trkpt lat="46.73291" lon="-1.91391">
        <ele>13.7</ele>
        <time>2020-06-04T08:24:24Z</time>
      </trkpt>
      <trkpt lat="46.73293" lon="-1.91395">
        <ele>13.7</ele>
        <time>2020-06-04T08:24:25Z</time>
      </trkpt>
      <trkpt lat="46.73293" lon="-1.91396">
        <ele>13.7</ele>
        <time>2020-06-04T08:24:26Z</time>
      </trkpt>
      <trkpt lat="46.73295" lon="-1.914">
        <ele>13.7</ele>
        <time>2020-06-04T08:24:27Z</time>
      </trkpt>
      <trkpt lat="46.73296" lon="-1.91401">
        <ele>13.7</ele>
        <time>2020-06-04T08:24:28Z</time>
      </trkpt>
      <trkpt lat="46.73297" lon="-1.91403">
        <ele>13.7</ele>
        <time>2020-06-04T08:24:29Z</time>
      </trkpt>
      <trkpt lat="46.73298" lon="-1.91405">
        <ele>13.7</ele>
        <time>2020-06-04T08:24:30Z</time>
      </trkpt>
      <trkpt lat="46.73299" lon="-1.91406">
        <ele>13.7</ele>
        <time>2020-06-04T08:24:31Z</time>
      </trkpt>
      <trkpt lat="46.733" lon="-1.91408">
        <ele>13.7</ele>
        <time>2020-06-04T08:24:32Z</time>
      </trkpt>
      <trkpt lat="46.73301" lon="-1.91411">
        <ele>13.7</ele>
        <time>2020-06-04T08:24:33Z</time>
      </trkpt>
      <trkpt lat="46.73302" lon="-1.91412">
        <ele>13.7</ele>
        <time>2020-06-04T08:24:34Z</time>
      </trkpt>
      <trkpt lat="46.73302" lon="-1.91414">
        <ele>13.7</ele>
        <time>2020-06-04T08:24:35Z</time>
      </trkpt>
      <trkpt lat="46.73304" lon="-1.91417">
        <ele>13.7</ele>
        <time>2020-06-04T08:24:36Z</time>
      </trkpt>
      <trkpt lat="46.73305" lon="-1.91419">
        <ele>13.8</ele>
        <time>2020-06-04T08:24:37Z</time>
      </trkpt>
      <trkpt lat="46.73306" lon="-1.91421">
        <ele>13.8</ele>
        <time>2020-06-04T08:24:38Z</time>
      </trkpt>
      <trkpt lat="46.73306" lon="-1.91422">
        <ele>13.8</ele>
        <time>2020-06-04T08:24:39Z</time>
      </trkpt>
      <trkpt lat="46.73307" lon="-1.91424">
        <ele>13.8</ele>
        <time>2020-06-04T08:24:40Z</time>
      </trkpt>
      <trkpt lat="46.73308" lon="-1.91427">
        <ele>13.8</ele>
        <time>2020-06-04T08:24:41Z</time>
      </trkpt>
      <trkpt lat="46.73309" lon="-1.91428">
        <ele>13.8</ele>
        <time>2020-06-04T08:24:42Z</time>
      </trkpt>
      <trkpt lat="46.7331" lon="-1.91431">
        <ele>13.8</ele>
        <time>2020-06-04T08:24:43Z</time>
      </trkpt>
      <trkpt lat="46.73312" lon="-1.91435">
        <ele>13.8</ele>
        <time>2020-06-04T08:24:44Z</time>
      </trkpt>
      <trkpt lat="46.73313" lon="-1.91436">
        <ele>13.8</ele>
        <time>2020-06-04T08:24:45Z</time>
      </trkpt>
      <trkpt lat="46.73315" lon="-1.9144">
        <ele>13.8</ele>
        <time>2020-06-04T08:24:46Z</time>
      </trkpt>
      <trkpt lat="46.73316" lon="-1.91442">
        <ele>13.8</ele>
        <time>2020-06-04T08:24:47Z</time>
      </trkpt>
      <trkpt lat="46.73317" lon="-1.91445">
        <ele>13.8</ele>
        <time>2020-06-04T08:24:48Z</time>
      </trkpt>
      <trkpt lat="46.73319" lon="-1.91445">
        <ele>13.8</ele>
        <time>2020-06-04T08:24:49Z</time>
      </trkpt>
      <trkpt lat="46.7332" lon="-1.91447">
        <ele>13.9</ele>
        <time>2020-06-04T08:24:50Z</time>
      </trkpt>
      <trkpt lat="46.73322" lon="-1.9145">
        <ele>13.9</ele>
        <time>2020-06-04T08:24:51Z</time>
      </trkpt>
      <trkpt lat="46.73322" lon="-1.91452">
        <ele>13.9</ele>
        <time>2020-06-04T08:24:52Z</time>
      </trkpt>
      <trkpt lat="46.73323" lon="-1.91453">
        <ele>13.9</ele>
        <time>2020-06-04T08:24:53Z</time>
      </trkpt>
      <trkpt lat="46.73324" lon="-1.91455">
        <ele>13.9</ele>
        <time>2020-06-04T08:24:54Z</time>
      </trkpt>
      <trkpt lat="46.73325" lon="-1.91457">
        <ele>13.9</ele>
        <time>2020-06-04T08:24:55Z</time>
      </trkpt>
      <trkpt lat="46.73325" lon="-1.91459">
        <ele>13.9</ele>
        <time>2020-06-04T08:24:56Z</time>
      </trkpt>
      <trkpt lat="46.73325" lon="-1.9146">
        <ele>13.9</ele>
        <time>2020-06-04T08:24:57Z</time>
      </trkpt>
      <trkpt lat="46.73325" lon="-1.91461">
        <ele>13.9</ele>
        <time>2020-06-04T08:24:58Z</time>
      </trkpt>
      <trkpt lat="46.73326" lon="-1.91463">
        <ele>13.9</ele>
        <time>2020-06-04T08:24:59Z</time>
      </trkpt>
      <trkpt lat="46.73326" lon="-1.91465">
        <ele>13.9</ele>
        <time>2020-06-04T08:25:00Z</time>
      </trkpt>
      <trkpt lat="46.73326" lon="-1.91468">
        <ele>13.9</ele>
        <time>2020-06-04T08:25:01Z</time>
      </trkpt>
      <trkpt lat="46.73327" lon="-1.91469">
        <ele>13.9</ele>
        <time>2020-06-04T08:25:02Z</time>
      </trkpt>
      <trkpt lat="46.73328" lon="-1.91471">
        <ele>13.9</ele>
        <time>2020-06-04T08:25:03Z</time>
      </trkpt>
      <trkpt lat="46.7333" lon="-1.91475">
        <ele>13.9</ele>
        <time>2020-06-04T08:25:04Z</time>
      </trkpt>
      <trkpt lat="46.7333" lon="-1.91476">
        <ele>14</ele>
        <time>2020-06-04T08:25:05Z</time>
      </trkpt>
      <trkpt lat="46.73331" lon="-1.91478">
        <ele>14</ele>
        <time>2020-06-04T08:25:06Z</time>
      </trkpt>
      <trkpt lat="46.73331" lon="-1.91479">
        <ele>14</ele>
        <time>2020-06-04T08:25:07Z</time>
      </trkpt>
      <trkpt lat="46.73332" lon="-1.91479">
        <ele>14</ele>
        <time>2020-06-04T08:25:08Z</time>
      </trkpt>
      <trkpt lat="46.73331" lon="-1.91478">
        <ele>14</ele>
        <time>2020-06-04T08:25:09Z</time>
      </trkpt>
      <trkpt lat="46.73332" lon="-1.91478">
        <ele>14</ele>
        <time>2020-06-04T08:25:10Z</time>
      </trkpt>
      <trkpt lat="46.73332" lon="-1.91478">
        <ele>14</ele>
        <time>2020-06-04T08:25:11Z</time>
      </trkpt>
      <trkpt lat="46.73332" lon="-1.91478">
        <ele>14</ele>
        <time>2020-06-04T08:25:12Z</time>
      </trkpt>
      <trkpt lat="46.73332" lon="-1.91478">
        <ele>14</ele>
        <time>2020-06-04T08:25:13Z</time>
      </trkpt>
      <trkpt lat="46.73333" lon="-1.91478">
        <ele>14</ele>
        <time>2020-06-04T08:25:14Z</time>
      </trkpt>
      <trkpt lat="46.73332" lon="-1.91477">
        <ele>14</ele>
        <time>2020-06-04T08:25:15Z</time>
      </trkpt>
      <trkpt lat="46.73332" lon="-1.91478">
        <ele>14</ele>
        <time>2020-06-04T08:25:16Z</time>
      </trkpt>
      <trkpt lat="46.73333" lon="-1.91478">
        <ele>14</ele>
        <time>2020-06-04T08:25:17Z</time>
      </trkpt>
      <trkpt lat="46.73336" lon="-1.91483">
        <ele>14</ele>
        <time>2020-06-04T08:25:24Z</time>
      </trkpt>
      <trkpt lat="46.73336" lon="-1.91485">
        <ele>14</ele>
        <time>2020-06-04T08:25:25Z</time>
      </trkpt>
      <trkpt lat="46.73337" lon="-1.91487">
        <ele>14</ele>
        <time>2020-06-04T08:25:26Z</time>
      </trkpt>
      <trkpt lat="46.73337" lon="-1.91489">
        <ele>14</ele>
        <time>2020-06-04T08:25:27Z</time>
      </trkpt>
      <trkpt lat="46.73337" lon="-1.9149">
        <ele>14</ele>
        <time>2020-06-04T08:25:28Z</time>
      </trkpt>
      <trkpt lat="46.73337" lon="-1.91493">
        <ele>14</ele>
        <time>2020-06-04T08:25:29Z</time>
      </trkpt>
      <trkpt lat="46.73337" lon="-1.91496">
        <ele>14</ele>
        <time>2020-06-04T08:25:30Z</time>
      </trkpt>
      <trkpt lat="46.73337" lon="-1.91497">
        <ele>14</ele>
        <time>2020-06-04T08:25:31Z</time>
      </trkpt>
      <trkpt lat="46.73337" lon="-1.91497">
        <ele>14</ele>
        <time>2020-06-04T08:25:32Z</time>
      </trkpt>
      <trkpt lat="46.73336" lon="-1.91498">
        <ele>14</ele>
        <time>2020-06-04T08:25:33Z</time>
      </trkpt>
      <trkpt lat="46.73336" lon="-1.91499">
        <ele>14</ele>
        <time>2020-06-04T08:25:34Z</time>
      </trkpt>
      <trkpt lat="46.73336" lon="-1.915">
        <ele>14</ele>
        <time>2020-06-04T08:25:35Z</time>
      </trkpt>
      <trkpt lat="46.73335" lon="-1.915">
        <ele>14</ele>
        <time>2020-06-04T08:25:36Z</time>
      </trkpt>
      <trkpt lat="46.73335" lon="-1.91501">
        <ele>14</ele>
        <time>2020-06-04T08:25:37Z</time>
      </trkpt>
      <trkpt lat="46.73335" lon="-1.91502">
        <ele>14</ele>
        <time>2020-06-04T08:25:38Z</time>
      </trkpt>
      <trkpt lat="46.73334" lon="-1.91503">
        <ele>14</ele>
        <time>2020-06-04T08:25:39Z</time>
      </trkpt>
      <trkpt lat="46.73334" lon="-1.91503">
        <ele>14</ele>
        <time>2020-06-04T08:25:40Z</time>
      </trkpt>
      <trkpt lat="46.73334" lon="-1.91504">
        <ele>14</ele>
        <time>2020-06-04T08:25:41Z</time>
      </trkpt>
      <trkpt lat="46.73333" lon="-1.91505">
        <ele>14</ele>
        <time>2020-06-04T08:25:42Z</time>
      </trkpt>
      <trkpt lat="46.73333" lon="-1.91506">
        <ele>14</ele>
        <time>2020-06-04T08:26:16Z</time>
      </trkpt>
      <trkpt lat="46.73333" lon="-1.91506">
        <ele>14</ele>
        <time>2020-06-04T08:26:17Z</time>
      </trkpt>
      <trkpt lat="46.73331" lon="-1.91514">
        <ele>14</ele>
        <time>2020-06-04T08:26:18Z</time>
      </trkpt>
      <trkpt lat="46.7333" lon="-1.9152">
        <ele>14</ele>
        <time>2020-06-04T08:26:19Z</time>
      </trkpt>
      <trkpt lat="46.7333" lon="-1.91526">
        <ele>14</ele>
        <time>2020-06-04T08:26:20Z</time>
      </trkpt>
      <trkpt lat="46.73329" lon="-1.91531">
        <ele>14</ele>
        <time>2020-06-04T08:26:21Z</time>
      </trkpt>
      <trkpt lat="46.73329" lon="-1.91536">
        <ele>14</ele>
        <time>2020-06-04T08:26:22Z</time>
      </trkpt>
      <trkpt lat="46.73328" lon="-1.91543">
        <ele>14</ele>
        <time>2020-06-04T08:26:23Z</time>
      </trkpt>
      <trkpt lat="46.73327" lon="-1.91546">
        <ele>14</ele>
        <time>2020-06-04T08:26:24Z</time>
      </trkpt>
      <trkpt lat="46.73326" lon="-1.91555">
        <ele>14.1</ele>
        <time>2020-06-04T08:26:25Z</time>
      </trkpt>
      <trkpt lat="46.73325" lon="-1.91562">
        <ele>14.1</ele>
        <time>2020-06-04T08:26:26Z</time>
      </trkpt>
      <trkpt lat="46.73323" lon="-1.91571">
        <ele>14.2</ele>
        <time>2020-06-04T08:26:27Z</time>
      </trkpt>
      <trkpt lat="46.73323" lon="-1.91578">
        <ele>14.2</ele>
        <time>2020-06-04T08:26:28Z</time>
      </trkpt>
      <trkpt lat="46.73321" lon="-1.91586">
        <ele>14.2</ele>
        <time>2020-06-04T08:26:29Z</time>
      </trkpt>
      <trkpt lat="46.73321" lon="-1.91592">
        <ele>14.2</ele>
        <time>2020-06-04T08:26:30Z</time>
      </trkpt>
      <trkpt lat="46.73319" lon="-1.91599">
        <ele>14.2</ele>
        <time>2020-06-04T08:26:31Z</time>
      </trkpt>
      <trkpt lat="46.73318" lon="-1.91607">
        <ele>14.2</ele>
        <time>2020-06-04T08:26:32Z</time>
      </trkpt>
      <trkpt lat="46.73317" lon="-1.91614">
        <ele>14.2</ele>
        <time>2020-06-04T08:26:33Z</time>
      </trkpt>
      <trkpt lat="46.73316" lon="-1.91621">
        <ele>14.1</ele>
        <time>2020-06-04T08:26:34Z</time>
      </trkpt>
      <trkpt lat="46.73315" lon="-1.91628">
        <ele>14.1</ele>
        <time>2020-06-04T08:26:35Z</time>
      </trkpt>
      <trkpt lat="46.73313" lon="-1.91634">
        <ele>14.1</ele>
        <time>2020-06-04T08:26:36Z</time>
      </trkpt>
      <trkpt lat="46.73313" lon="-1.91642">
        <ele>14</ele>
        <time>2020-06-04T08:26:37Z</time>
      </trkpt>
      <trkpt lat="46.73314" lon="-1.9165">
        <ele>14</ele>
        <time>2020-06-04T08:26:38Z</time>
      </trkpt>
      <trkpt lat="46.73313" lon="-1.91657">
        <ele>13.9</ele>
        <time>2020-06-04T08:26:39Z</time>
      </trkpt>
      <trkpt lat="46.73313" lon="-1.91664">
        <ele>13.9</ele>
        <time>2020-06-04T08:26:40Z</time>
      </trkpt>
      <trkpt lat="46.73313" lon="-1.91671">
        <ele>13.8</ele>
        <time>2020-06-04T08:26:41Z</time>
      </trkpt>
      <trkpt lat="46.73312" lon="-1.9168">
        <ele>13.8</ele>
        <time>2020-06-04T08:26:42Z</time>
      </trkpt>
      <trkpt lat="46.73312" lon="-1.91688">
        <ele>13.7</ele>
        <time>2020-06-04T08:26:43Z</time>
      </trkpt>
      <trkpt lat="46.73311" lon="-1.91697">
        <ele>13.7</ele>
        <time>2020-06-04T08:26:44Z</time>
      </trkpt>
      <trkpt lat="46.7331" lon="-1.91705">
        <ele>13.7</ele>
        <time>2020-06-04T08:26:45Z</time>
      </trkpt>
      <trkpt lat="46.73309" lon="-1.91713">
        <ele>13.7</ele>
        <time>2020-06-04T08:26:46Z</time>
      </trkpt>
      <trkpt lat="46.73308" lon="-1.91721">
        <ele>13.6</ele>
        <time>2020-06-04T08:26:47Z</time>
      </trkpt>
      <trkpt lat="46.73307" lon="-1.91729">
        <ele>13.6</ele>
        <time>2020-06-04T08:26:48Z</time>
      </trkpt>
      <trkpt lat="46.73306" lon="-1.91738">
        <ele>13.5</ele>
        <time>2020-06-04T08:26:49Z</time>
      </trkpt>
      <trkpt lat="46.73305" lon="-1.91748">
        <ele>13.5</ele>
        <time>2020-06-04T08:26:50Z</time>
      </trkpt>
      <trkpt lat="46.73303" lon="-1.91757">
        <ele>13.5</ele>
        <time>2020-06-04T08:26:51Z</time>
      </trkpt>
      <trkpt lat="46.73303" lon="-1.91766">
        <ele>13.4</ele>
        <time>2020-06-04T08:26:52Z</time>
      </trkpt>
      <trkpt lat="46.73302" lon="-1.91775">
        <ele>13.4</ele>
        <time>2020-06-04T08:26:53Z</time>
      </trkpt>
      <trkpt lat="46.73301" lon="-1.91784">
        <ele>13.3</ele>
        <time>2020-06-04T08:26:54Z</time>
      </trkpt>
      <trkpt lat="46.73299" lon="-1.91795">
        <ele>13.2</ele>
        <time>2020-06-04T08:26:55Z</time>
      </trkpt>
      <trkpt lat="46.73298" lon="-1.91804">
        <ele>13.2</ele>
        <time>2020-06-04T08:26:56Z</time>
      </trkpt>
      <trkpt lat="46.73297" lon="-1.91815">
        <ele>13.1</ele>
        <time>2020-06-04T08:26:57Z</time>
      </trkpt>
      <trkpt lat="46.73296" lon="-1.91824">
        <ele>13.1</ele>
        <time>2020-06-04T08:26:58Z</time>
      </trkpt>
      <trkpt lat="46.73295" lon="-1.91836">
        <ele>13</ele>
        <time>2020-06-04T08:26:59Z</time>
      </trkpt>
      <trkpt lat="46.73295" lon="-1.91846">
        <ele>12.9</ele>
        <time>2020-06-04T08:27:00Z</time>
      </trkpt>
      <trkpt lat="46.73294" lon="-1.91857">
        <ele>12.8</ele>
        <time>2020-06-04T08:27:01Z</time>
      </trkpt>
      <trkpt lat="46.73293" lon="-1.91867">
        <ele>12.8</ele>
        <time>2020-06-04T08:27:02Z</time>
      </trkpt>
      <trkpt lat="46.73292" lon="-1.91877">
        <ele>12.7</ele>
        <time>2020-06-04T08:27:03Z</time>
      </trkpt>
      <trkpt lat="46.73291" lon="-1.91886">
        <ele>12.6</ele>
        <time>2020-06-04T08:27:04Z</time>
      </trkpt>
      <trkpt lat="46.7329" lon="-1.91896">
        <ele>12.5</ele>
        <time>2020-06-04T08:27:05Z</time>
      </trkpt>
      <trkpt lat="46.73289" lon="-1.91905">
        <ele>12.4</ele>
        <time>2020-06-04T08:27:06Z</time>
      </trkpt>
      <trkpt lat="46.73288" lon="-1.91914">
        <ele>12.4</ele>
        <time>2020-06-04T08:27:07Z</time>
      </trkpt>
      <trkpt lat="46.73287" lon="-1.91924">
        <ele>12.3</ele>
        <time>2020-06-04T08:27:08Z</time>
      </trkpt>
      <trkpt lat="46.73287" lon="-1.91933">
        <ele>12.2</ele>
        <time>2020-06-04T08:27:09Z</time>
      </trkpt>
      <trkpt lat="46.73286" lon="-1.91942">
        <ele>12.1</ele>
        <time>2020-06-04T08:27:10Z</time>
      </trkpt>
      <trkpt lat="46.73285" lon="-1.91951">
        <ele>12</ele>
        <time>2020-06-04T08:27:11Z</time>
      </trkpt>
      <trkpt lat="46.73285" lon="-1.9196">
        <ele>11.9</ele>
        <time>2020-06-04T08:27:12Z</time>
      </trkpt>
      <trkpt lat="46.73284" lon="-1.91969">
        <ele>11.8</ele>
        <time>2020-06-04T08:27:13Z</time>
      </trkpt>
      <trkpt lat="46.73284" lon="-1.91978">
        <ele>11.7</ele>
        <time>2020-06-04T08:27:14Z</time>
      </trkpt>
      <trkpt lat="46.73283" lon="-1.91986">
        <ele>11.6</ele>
        <time>2020-06-04T08:27:15Z</time>
      </trkpt>
      <trkpt lat="46.73283" lon="-1.91995">
        <ele>11.5</ele>
        <time>2020-06-04T08:27:16Z</time>
      </trkpt>
      <trkpt lat="46.73282" lon="-1.92003">
        <ele>11.5</ele>
        <time>2020-06-04T08:27:17Z</time>
      </trkpt>
      <trkpt lat="46.73282" lon="-1.92011">
        <ele>11.4</ele>
        <time>2020-06-04T08:27:18Z</time>
      </trkpt>
      <trkpt lat="46.73281" lon="-1.92018">
        <ele>11.3</ele>
        <time>2020-06-04T08:27:19Z</time>
      </trkpt>
      <trkpt lat="46.73279" lon="-1.92025">
        <ele>11.2</ele>
        <time>2020-06-04T08:27:20Z</time>
      </trkpt>
      <trkpt lat="46.73278" lon="-1.92032">
        <ele>11.1</ele>
        <time>2020-06-04T08:27:21Z</time>
      </trkpt>
      <trkpt lat="46.73278" lon="-1.92039">
        <ele>11.1</ele>
        <time>2020-06-04T08:27:22Z</time>
      </trkpt>
      <trkpt lat="46.73277" lon="-1.92047">
        <ele>11</ele>
        <time>2020-06-04T08:27:23Z</time>
      </trkpt>
      <trkpt lat="46.73276" lon="-1.92054">
        <ele>11</ele>
        <time>2020-06-04T08:27:24Z</time>
      </trkpt>
      <trkpt lat="46.73275" lon="-1.92063">
        <ele>10.9</ele>
        <time>2020-06-04T08:27:25Z</time>
      </trkpt>
      <trkpt lat="46.73273" lon="-1.92071">
        <ele>10.8</ele>
        <time>2020-06-04T08:27:26Z</time>
      </trkpt>
      <trkpt lat="46.73271" lon="-1.9208">
        <ele>10.8</ele>
        <time>2020-06-04T08:27:27Z</time>
      </trkpt>
      <trkpt lat="46.7327" lon="-1.92089">
        <ele>10.7</ele>
        <time>2020-06-04T08:27:28Z</time>
      </trkpt>
      <trkpt lat="46.73268" lon="-1.92098">
        <ele>10.6</ele>
        <time>2020-06-04T08:27:29Z</time>
      </trkpt>
      <trkpt lat="46.73267" lon="-1.92106">
        <ele>10.6</ele>
        <time>2020-06-04T08:27:30Z</time>
      </trkpt>
      <trkpt lat="46.73265" lon="-1.92115">
        <ele>10.5</ele>
        <time>2020-06-04T08:27:31Z</time>
      </trkpt>
      <trkpt lat="46.73264" lon="-1.92122">
        <ele>10.4</ele>
        <time>2020-06-04T08:27:32Z</time>
      </trkpt>
      <trkpt lat="46.73263" lon="-1.9213">
        <ele>10.4</ele>
        <time>2020-06-04T08:27:33Z</time>
      </trkpt>
      <trkpt lat="46.73261" lon="-1.92138">
        <ele>10.3</ele>
        <time>2020-06-04T08:27:34Z</time>
      </trkpt>
      <trkpt lat="46.73259" lon="-1.92146">
        <ele>10.3</ele>
        <time>2020-06-04T08:27:35Z</time>
      </trkpt>
      <trkpt lat="46.73258" lon="-1.92154">
        <ele>10.2</ele>
        <time>2020-06-04T08:27:36Z</time>
      </trkpt>
      <trkpt lat="46.73256" lon="-1.92161">
        <ele>10.2</ele>
        <time>2020-06-04T08:27:37Z</time>
      </trkpt>
      <trkpt lat="46.73253" lon="-1.92169">
        <ele>10.1</ele>
        <time>2020-06-04T08:27:38Z</time>
      </trkpt>
      <trkpt lat="46.7325" lon="-1.92177">
        <ele>10</ele>
        <time>2020-06-04T08:27:39Z</time>
      </trkpt>
      <trkpt lat="46.73248" lon="-1.92185">
        <ele>10</ele>
        <time>2020-06-04T08:27:40Z</time>
      </trkpt>
      <trkpt lat="46.73245" lon="-1.92193">
        <ele>9.9</ele>
        <time>2020-06-04T08:27:41Z</time>
      </trkpt>
      <trkpt lat="46.73242" lon="-1.922">
        <ele>9.8</ele>
        <time>2020-06-04T08:27:42Z</time>
      </trkpt>
      <trkpt lat="46.73239" lon="-1.92208">
        <ele>9.7</ele>
        <time>2020-06-04T08:27:43Z</time>
      </trkpt>
      <trkpt lat="46.73236" lon="-1.92216">
        <ele>9.6</ele>
        <time>2020-06-04T08:27:44Z</time>
      </trkpt>
      <trkpt lat="46.73232" lon="-1.92223">
        <ele>9.5</ele>
        <time>2020-06-04T08:27:45Z</time>
      </trkpt>
      <trkpt lat="46.73228" lon="-1.9223">
        <ele>9.4</ele>
        <time>2020-06-04T08:27:46Z</time>
      </trkpt>
      <trkpt lat="46.73224" lon="-1.92236">
        <ele>9.3</ele>
        <time>2020-06-04T08:27:47Z</time>
      </trkpt>
      <trkpt lat="46.73221" lon="-1.92241">
        <ele>9.2</ele>
        <time>2020-06-04T08:27:48Z</time>
      </trkpt>
      <trkpt lat="46.73216" lon="-1.92247">
        <ele>9.1</ele>
        <time>2020-06-04T08:27:49Z</time>
      </trkpt>
      <trkpt lat="46.7321" lon="-1.92253">
        <ele>9</ele>
        <time>2020-06-04T08:27:50Z</time>
      </trkpt>
      <trkpt lat="46.73205" lon="-1.92259">
        <ele>8.9</ele>
        <time>2020-06-04T08:27:51Z</time>
      </trkpt>
      <trkpt lat="46.732" lon="-1.92263">
        <ele>8.8</ele>
        <time>2020-06-04T08:27:52Z</time>
      </trkpt>
      <trkpt lat="46.73194" lon="-1.92266">
        <ele>8.7</ele>
        <time>2020-06-04T08:27:53Z</time>
      </trkpt>
      <trkpt lat="46.73188" lon="-1.92269">
        <ele>8.6</ele>
        <time>2020-06-04T08:27:54Z</time>
      </trkpt>
      <trkpt lat="46.73181" lon="-1.92271">
        <ele>8.4</ele>
        <time>2020-06-04T08:27:55Z</time>
      </trkpt>
      <trkpt lat="46.73174" lon="-1.92274">
        <ele>8.3</ele>
        <time>2020-06-04T08:27:56Z</time>
      </trkpt>
      <trkpt lat="46.73168" lon="-1.92277">
        <ele>8.2</ele>
        <time>2020-06-04T08:27:57Z</time>
      </trkpt>
      <trkpt lat="46.73162" lon="-1.92282">
        <ele>8.1</ele>
        <time>2020-06-04T08:27:58Z</time>
      </trkpt>
      <trkpt lat="46.73156" lon="-1.92289">
        <ele>8</ele>
        <time>2020-06-04T08:27:59Z</time>
      </trkpt>
      <trkpt lat="46.73151" lon="-1.92296">
        <ele>7.9</ele>
        <time>2020-06-04T08:28:00Z</time>
      </trkpt>
      <trkpt lat="46.73146" lon="-1.92303">
        <ele>7.9</ele>
        <time>2020-06-04T08:28:01Z</time>
      </trkpt>
      <trkpt lat="46.73142" lon="-1.9231">
        <ele>7.9</ele>
        <time>2020-06-04T08:28:02Z</time>
      </trkpt>
      <trkpt lat="46.73137" lon="-1.92318">
        <ele>7.9</ele>
        <time>2020-06-04T08:28:03Z</time>
      </trkpt>
      <trkpt lat="46.73134" lon="-1.92326">
        <ele>7.9</ele>
        <time>2020-06-04T08:28:04Z</time>
      </trkpt>
      <trkpt lat="46.7313" lon="-1.92334">
        <ele>7.9</ele>
        <time>2020-06-04T08:28:05Z</time>
      </trkpt>
      <trkpt lat="46.73127" lon="-1.92343">
        <ele>7.9</ele>
        <time>2020-06-04T08:28:06Z</time>
      </trkpt>
      <trkpt lat="46.73124" lon="-1.92352">
        <ele>7.9</ele>
        <time>2020-06-04T08:28:07Z</time>
      </trkpt>
      <trkpt lat="46.73121" lon="-1.92361">
        <ele>8</ele>
        <time>2020-06-04T08:28:08Z</time>
      </trkpt>
      <trkpt lat="46.73118" lon="-1.9237">
        <ele>8</ele>
        <time>2020-06-04T08:28:09Z</time>
      </trkpt>
      <trkpt lat="46.73117" lon="-1.92378">
        <ele>8</ele>
        <time>2020-06-04T08:28:10Z</time>
      </trkpt>
      <trkpt lat="46.73114" lon="-1.92387">
        <ele>8.1</ele>
        <time>2020-06-04T08:28:11Z</time>
      </trkpt>
      <trkpt lat="46.73112" lon="-1.92396">
        <ele>8.1</ele>
        <time>2020-06-04T08:28:12Z</time>
      </trkpt>
      <trkpt lat="46.73112" lon="-1.92405">
        <ele>8.2</ele>
        <time>2020-06-04T08:28:13Z</time>
      </trkpt>
      <trkpt lat="46.73111" lon="-1.92414">
        <ele>8.2</ele>
        <time>2020-06-04T08:28:14Z</time>
      </trkpt>
      <trkpt lat="46.7311" lon="-1.92422">
        <ele>8.3</ele>
        <time>2020-06-04T08:28:15Z</time>
      </trkpt>
      <trkpt lat="46.73109" lon="-1.92431">
        <ele>8.3</ele>
        <time>2020-06-04T08:28:16Z</time>
      </trkpt>
      <trkpt lat="46.73108" lon="-1.9244">
        <ele>8.4</ele>
        <time>2020-06-04T08:28:17Z</time>
      </trkpt>
      <trkpt lat="46.73108" lon="-1.92449">
        <ele>8.4</ele>
        <time>2020-06-04T08:28:18Z</time>
      </trkpt>
      <trkpt lat="46.73109" lon="-1.92457">
        <ele>8.4</ele>
        <time>2020-06-04T08:28:19Z</time>
      </trkpt>
      <trkpt lat="46.73109" lon="-1.92465">
        <ele>8.4</ele>
        <time>2020-06-04T08:28:20Z</time>
      </trkpt>
      <trkpt lat="46.73109" lon="-1.92474">
        <ele>8.4</ele>
        <time>2020-06-04T08:28:21Z</time>
      </trkpt>
      <trkpt lat="46.73109" lon="-1.92482">
        <ele>8.4</ele>
        <time>2020-06-04T08:28:22Z</time>
      </trkpt>
      <trkpt lat="46.73108" lon="-1.9249">
        <ele>8.4</ele>
        <time>2020-06-04T08:28:23Z</time>
      </trkpt>
      <trkpt lat="46.73107" lon="-1.92498">
        <ele>8.4</ele>
        <time>2020-06-04T08:28:24Z</time>
      </trkpt>
      <trkpt lat="46.73106" lon="-1.92505">
        <ele>8.4</ele>
        <time>2020-06-04T08:28:25Z</time>
      </trkpt>
      <trkpt lat="46.73103" lon="-1.92512">
        <ele>8.4</ele>
        <time>2020-06-04T08:28:26Z</time>
      </trkpt>
      <trkpt lat="46.73101" lon="-1.9252">
        <ele>8.5</ele>
        <time>2020-06-04T08:28:27Z</time>
      </trkpt>
      <trkpt lat="46.73097" lon="-1.92527">
        <ele>8.5</ele>
        <time>2020-06-04T08:28:28Z</time>
      </trkpt>
      <trkpt lat="46.73094" lon="-1.92534">
        <ele>8.6</ele>
        <time>2020-06-04T08:28:29Z</time>
      </trkpt>
      <trkpt lat="46.7309" lon="-1.92541">
        <ele>8.6</ele>
        <time>2020-06-04T08:28:30Z</time>
      </trkpt>
      <trkpt lat="46.73086" lon="-1.92549">
        <ele>8.6</ele>
        <time>2020-06-04T08:28:31Z</time>
      </trkpt>
      <trkpt lat="46.73082" lon="-1.92557">
        <ele>8.6</ele>
        <time>2020-06-04T08:28:32Z</time>
      </trkpt>
      <trkpt lat="46.73077" lon="-1.92564">
        <ele>8.6</ele>
        <time>2020-06-04T08:28:33Z</time>
      </trkpt>
      <trkpt lat="46.73074" lon="-1.92572">
        <ele>8.5</ele>
        <time>2020-06-04T08:28:34Z</time>
      </trkpt>
      <trkpt lat="46.7307" lon="-1.9258">
        <ele>8.5</ele>
        <time>2020-06-04T08:28:35Z</time>
      </trkpt>
      <trkpt lat="46.73066" lon="-1.92588">
        <ele>8.5</ele>
        <time>2020-06-04T08:28:36Z</time>
      </trkpt>
      <trkpt lat="46.73063" lon="-1.92596">
        <ele>8.4</ele>
        <time>2020-06-04T08:28:37Z</time>
      </trkpt>
      <trkpt lat="46.7306" lon="-1.92605">
        <ele>8.4</ele>
        <time>2020-06-04T08:28:38Z</time>
      </trkpt>
      <trkpt lat="46.73056" lon="-1.92612">
        <ele>8.4</ele>
        <time>2020-06-04T08:28:39Z</time>
      </trkpt>
      <trkpt lat="46.73053" lon="-1.9262">
        <ele>8.3</ele>
        <time>2020-06-04T08:28:40Z</time>
      </trkpt>
      <trkpt lat="46.7305" lon="-1.92629">
        <ele>8.3</ele>
        <time>2020-06-04T08:28:41Z</time>
      </trkpt>
      <trkpt lat="46.73047" lon="-1.92637">
        <ele>8.3</ele>
        <time>2020-06-04T08:28:42Z</time>
      </trkpt>
      <trkpt lat="46.73043" lon="-1.92645">
        <ele>8.3</ele>
        <time>2020-06-04T08:28:43Z</time>
      </trkpt>
      <trkpt lat="46.7304" lon="-1.92653">
        <ele>8.3</ele>
        <time>2020-06-04T08:28:44Z</time>
      </trkpt>
      <trkpt lat="46.73037" lon="-1.92662">
        <ele>8.2</ele>
        <time>2020-06-04T08:28:45Z</time>
      </trkpt>
      <trkpt lat="46.73035" lon="-1.9267">
        <ele>8.1</ele>
        <time>2020-06-04T08:28:46Z</time>
      </trkpt>
      <trkpt lat="46.73033" lon="-1.92678">
        <ele>8.1</ele>
        <time>2020-06-04T08:28:47Z</time>
      </trkpt>
      <trkpt lat="46.73031" lon="-1.92687">
        <ele>8</ele>
        <time>2020-06-04T08:28:48Z</time>
      </trkpt>
      <trkpt lat="46.7303" lon="-1.92695">
        <ele>7.9</ele>
        <time>2020-06-04T08:28:49Z</time>
      </trkpt>
      <trkpt lat="46.73029" lon="-1.92704">
        <ele>7.9</ele>
        <time>2020-06-04T08:28:50Z</time>
      </trkpt>
      <trkpt lat="46.73027" lon="-1.92713">
        <ele>7.8</ele>
        <time>2020-06-04T08:28:51Z</time>
      </trkpt>
      <trkpt lat="46.73025" lon="-1.92721">
        <ele>7.8</ele>
        <time>2020-06-04T08:28:52Z</time>
      </trkpt>
      <trkpt lat="46.73023" lon="-1.9273">
        <ele>7.7</ele>
        <time>2020-06-04T08:28:53Z</time>
      </trkpt>
      <trkpt lat="46.73021" lon="-1.92739">
        <ele>7.6</ele>
        <time>2020-06-04T08:28:54Z</time>
      </trkpt>
      <trkpt lat="46.73019" lon="-1.92747">
        <ele>7.6</ele>
        <time>2020-06-04T08:28:55Z</time>
      </trkpt>
      <trkpt lat="46.73017" lon="-1.92756">
        <ele>7.5</ele>
        <time>2020-06-04T08:28:56Z</time>
      </trkpt>
      <trkpt lat="46.73015" lon="-1.92765">
        <ele>7.4</ele>
        <time>2020-06-04T08:28:57Z</time>
      </trkpt>
      <trkpt lat="46.73014" lon="-1.92774">
        <ele>7.3</ele>
        <time>2020-06-04T08:28:58Z</time>
      </trkpt>
      <trkpt lat="46.73013" lon="-1.92783">
        <ele>7.2</ele>
        <time>2020-06-04T08:28:59Z</time>
      </trkpt>
      <trkpt lat="46.73012" lon="-1.92792">
        <ele>7</ele>
        <time>2020-06-04T08:29:00Z</time>
      </trkpt>
      <trkpt lat="46.73011" lon="-1.92801">
        <ele>6.9</ele>
        <time>2020-06-04T08:29:01Z</time>
      </trkpt>
      <trkpt lat="46.73009" lon="-1.9281">
        <ele>6.8</ele>
        <time>2020-06-04T08:29:02Z</time>
      </trkpt>
      <trkpt lat="46.73007" lon="-1.92819">
        <ele>6.8</ele>
        <time>2020-06-04T08:29:03Z</time>
      </trkpt>
      <trkpt lat="46.73007" lon="-1.92828">
        <ele>6.8</ele>
        <time>2020-06-04T08:29:04Z</time>
      </trkpt>
      <trkpt lat="46.73007" lon="-1.92838">
        <ele>6.8</ele>
        <time>2020-06-04T08:29:05Z</time>
      </trkpt>
      <trkpt lat="46.73009" lon="-1.92847">
        <ele>6.7</ele>
        <time>2020-06-04T08:29:06Z</time>
      </trkpt>
      <trkpt lat="46.73011" lon="-1.92855">
        <ele>6.7</ele>
        <time>2020-06-04T08:29:07Z</time>
      </trkpt>
      <trkpt lat="46.73014" lon="-1.92861">
        <ele>6.6</ele>
        <time>2020-06-04T08:29:08Z</time>
      </trkpt>
      <trkpt lat="46.73016" lon="-1.92865">
        <ele>6.6</ele>
        <time>2020-06-04T08:29:09Z</time>
      </trkpt>
      <trkpt lat="46.73018" lon="-1.92869">
        <ele>6.5</ele>
        <time>2020-06-04T08:29:10Z</time>
      </trkpt>
      <trkpt lat="46.7302" lon="-1.92873">
        <ele>6.5</ele>
        <time>2020-06-04T08:29:11Z</time>
      </trkpt>
      <trkpt lat="46.73022" lon="-1.92877">
        <ele>6.4</ele>
        <time>2020-06-04T08:29:12Z</time>
      </trkpt>
      <trkpt lat="46.73022" lon="-1.92879">
        <ele>6.4</ele>
        <time>2020-06-04T08:29:13Z</time>
      </trkpt>
      <trkpt lat="46.73022" lon="-1.92884">
        <ele>6.4</ele>
        <time>2020-06-04T08:29:14Z</time>
      </trkpt>
      <trkpt lat="46.73021" lon="-1.9289">
        <ele>6.4</ele>
        <time>2020-06-04T08:29:15Z</time>
      </trkpt>
      <trkpt lat="46.73018" lon="-1.92895">
        <ele>6.4</ele>
        <time>2020-06-04T08:29:16Z</time>
      </trkpt>
      <trkpt lat="46.73015" lon="-1.92901">
        <ele>6.3</ele>
        <time>2020-06-04T08:29:17Z</time>
      </trkpt>
      <trkpt lat="46.73012" lon="-1.92907">
        <ele>6.3</ele>
        <time>2020-06-04T08:29:18Z</time>
      </trkpt>
      <trkpt lat="46.73008" lon="-1.92913">
        <ele>6.3</ele>
        <time>2020-06-04T08:29:19Z</time>
      </trkpt>
      <trkpt lat="46.73005" lon="-1.92918">
        <ele>6.2</ele>
        <time>2020-06-04T08:29:20Z</time>
      </trkpt>
      <trkpt lat="46.73001" lon="-1.92924">
        <ele>6.2</ele>
        <time>2020-06-04T08:29:21Z</time>
      </trkpt>
      <trkpt lat="46.72999" lon="-1.92931">
        <ele>6.1</ele>
        <time>2020-06-04T08:29:22Z</time>
      </trkpt>
      <trkpt lat="46.72996" lon="-1.92938">
        <ele>6.1</ele>
        <time>2020-06-04T08:29:23Z</time>
      </trkpt>
      <trkpt lat="46.72994" lon="-1.92946">
        <ele>6</ele>
        <time>2020-06-04T08:29:24Z</time>
      </trkpt>
      <trkpt lat="46.72992" lon="-1.92955">
        <ele>6</ele>
        <time>2020-06-04T08:29:25Z</time>
      </trkpt>
      <trkpt lat="46.72991" lon="-1.92964">
        <ele>5.9</ele>
        <time>2020-06-04T08:29:26Z</time>
      </trkpt>
      <trkpt lat="46.72989" lon="-1.92973">
        <ele>5.9</ele>
        <time>2020-06-04T08:29:27Z</time>
      </trkpt>
      <trkpt lat="46.72988" lon="-1.92982">
        <ele>5.9</ele>
        <time>2020-06-04T08:29:28Z</time>
      </trkpt>
      <trkpt lat="46.72987" lon="-1.92991">
        <ele>5.9</ele>
        <time>2020-06-04T08:29:29Z</time>
      </trkpt>
      <trkpt lat="46.72986" lon="-1.92999">
        <ele>5.9</ele>
        <time>2020-06-04T08:29:30Z</time>
      </trkpt>
      <trkpt lat="46.72986" lon="-1.93009">
        <ele>5.9</ele>
        <time>2020-06-04T08:29:31Z</time>
      </trkpt>
      <trkpt lat="46.72986" lon="-1.93019">
        <ele>5.8</ele>
        <time>2020-06-04T08:29:32Z</time>
      </trkpt>
      <trkpt lat="46.72987" lon="-1.93028">
        <ele>5.7</ele>
        <time>2020-06-04T08:29:33Z</time>
      </trkpt>
      <trkpt lat="46.72988" lon="-1.93036">
        <ele>5.5</ele>
        <time>2020-06-04T08:29:34Z</time>
      </trkpt>
      <trkpt lat="46.72989" lon="-1.93045">
        <ele>5.4</ele>
        <time>2020-06-04T08:29:35Z</time>
      </trkpt>
      <trkpt lat="46.72989" lon="-1.93054">
        <ele>5.3</ele>
        <time>2020-06-04T08:29:36Z</time>
      </trkpt>
      <trkpt lat="46.7299" lon="-1.93062">
        <ele>5.2</ele>
        <time>2020-06-04T08:29:37Z</time>
      </trkpt>
      <trkpt lat="46.72991" lon="-1.9307">
        <ele>5.1</ele>
        <time>2020-06-04T08:29:38Z</time>
      </trkpt>
      <trkpt lat="46.72992" lon="-1.9308">
        <ele>5</ele>
        <time>2020-06-04T08:29:39Z</time>
      </trkpt>
      <trkpt lat="46.72993" lon="-1.93089">
        <ele>4.9</ele>
        <time>2020-06-04T08:29:40Z</time>
      </trkpt>
      <trkpt lat="46.72994" lon="-1.93099">
        <ele>4.8</ele>
        <time>2020-06-04T08:29:41Z</time>
      </trkpt>
      <trkpt lat="46.72995" lon="-1.93109">
        <ele>4.8</ele>
        <time>2020-06-04T08:29:42Z</time>
      </trkpt>
      <trkpt lat="46.72996" lon="-1.93118">
        <ele>4.7</ele>
        <time>2020-06-04T08:29:43Z</time>
      </trkpt>
      <trkpt lat="46.72998" lon="-1.93127">
        <ele>4.6</ele>
        <time>2020-06-04T08:29:44Z</time>
      </trkpt>
      <trkpt lat="46.72999" lon="-1.93136">
        <ele>4.4</ele>
        <time>2020-06-04T08:29:45Z</time>
      </trkpt>
      <trkpt lat="46.73" lon="-1.93146">
        <ele>4.3</ele>
        <time>2020-06-04T08:29:46Z</time>
      </trkpt>
      <trkpt lat="46.73" lon="-1.93156">
        <ele>4.2</ele>
        <time>2020-06-04T08:29:47Z</time>
      </trkpt>
      <trkpt lat="46.73002" lon="-1.93165">
        <ele>4</ele>
        <time>2020-06-04T08:29:48Z</time>
      </trkpt>
      <trkpt lat="46.73003" lon="-1.93174">
        <ele>3.9</ele>
        <time>2020-06-04T08:29:49Z</time>
      </trkpt>
      <trkpt lat="46.73004" lon="-1.93184">
        <ele>3.8</ele>
        <time>2020-06-04T08:29:50Z</time>
      </trkpt>
      <trkpt lat="46.73006" lon="-1.93193">
        <ele>3.7</ele>
        <time>2020-06-04T08:29:51Z</time>
      </trkpt>
      <trkpt lat="46.73008" lon="-1.93202">
        <ele>3.5</ele>
        <time>2020-06-04T08:29:52Z</time>
      </trkpt>
      <trkpt lat="46.73008" lon="-1.93213">
        <ele>3.4</ele>
        <time>2020-06-04T08:29:53Z</time>
      </trkpt>
      <trkpt lat="46.7301" lon="-1.93223">
        <ele>3.3</ele>
        <time>2020-06-04T08:29:54Z</time>
      </trkpt>
      <trkpt lat="46.73011" lon="-1.93233">
        <ele>3.3</ele>
        <time>2020-06-04T08:29:55Z</time>
      </trkpt>
      <trkpt lat="46.73012" lon="-1.93243">
        <ele>3.2</ele>
        <time>2020-06-04T08:29:56Z</time>
      </trkpt>
      <trkpt lat="46.73013" lon="-1.93253">
        <ele>3.2</ele>
        <time>2020-06-04T08:29:57Z</time>
      </trkpt>
      <trkpt lat="46.73014" lon="-1.93264">
        <ele>3.2</ele>
        <time>2020-06-04T08:29:58Z</time>
      </trkpt>
      <trkpt lat="46.73015" lon="-1.93274">
        <ele>3.2</ele>
        <time>2020-06-04T08:29:59Z</time>
      </trkpt>
      <trkpt lat="46.73015" lon="-1.93284">
        <ele>3.2</ele>
        <time>2020-06-04T08:30:00Z</time>
      </trkpt>
      <trkpt lat="46.73016" lon="-1.93294">
        <ele>3.2</ele>
        <time>2020-06-04T08:30:01Z</time>
      </trkpt>
      <trkpt lat="46.73017" lon="-1.93303">
        <ele>3.2</ele>
        <time>2020-06-04T08:30:02Z</time>
      </trkpt>
      <trkpt lat="46.73017" lon="-1.93313">
        <ele>3.2</ele>
        <time>2020-06-04T08:30:03Z</time>
      </trkpt>
      <trkpt lat="46.73017" lon="-1.93323">
        <ele>3.2</ele>
        <time>2020-06-04T08:30:04Z</time>
      </trkpt>
      <trkpt lat="46.73017" lon="-1.93333">
        <ele>3.2</ele>
        <time>2020-06-04T08:30:05Z</time>
      </trkpt>
      <trkpt lat="46.73016" lon="-1.93343">
        <ele>3.1</ele>
        <time>2020-06-04T08:30:06Z</time>
      </trkpt>
      <trkpt lat="46.73016" lon="-1.93352">
        <ele>3.1</ele>
        <time>2020-06-04T08:30:07Z</time>
      </trkpt>
      <trkpt lat="46.73015" lon="-1.93362">
        <ele>3.1</ele>
        <time>2020-06-04T08:30:08Z</time>
      </trkpt>
      <trkpt lat="46.73014" lon="-1.93372">
        <ele>3.1</ele>
        <time>2020-06-04T08:30:09Z</time>
      </trkpt>
      <trkpt lat="46.73013" lon="-1.93381">
        <ele>3.1</ele>
        <time>2020-06-04T08:30:10Z</time>
      </trkpt>
      <trkpt lat="46.73013" lon="-1.93391">
        <ele>3.1</ele>
        <time>2020-06-04T08:30:11Z</time>
      </trkpt>
      <trkpt lat="46.73011" lon="-1.934">
        <ele>3.1</ele>
        <time>2020-06-04T08:30:12Z</time>
      </trkpt>
      <trkpt lat="46.73011" lon="-1.93409">
        <ele>3.1</ele>
        <time>2020-06-04T08:30:13Z</time>
      </trkpt>
      <trkpt lat="46.73009" lon="-1.93419">
        <ele>3.1</ele>
        <time>2020-06-04T08:30:14Z</time>
      </trkpt>
      <trkpt lat="46.73009" lon="-1.93428">
        <ele>3</ele>
        <time>2020-06-04T08:30:15Z</time>
      </trkpt>
      <trkpt lat="46.73008" lon="-1.93438">
        <ele>3</ele>
        <time>2020-06-04T08:30:16Z</time>
      </trkpt>
      <trkpt lat="46.73008" lon="-1.93447">
        <ele>3</ele>
        <time>2020-06-04T08:30:17Z</time>
      </trkpt>
      <trkpt lat="46.73007" lon="-1.93457">
        <ele>3</ele>
        <time>2020-06-04T08:30:18Z</time>
      </trkpt>
      <trkpt lat="46.73006" lon="-1.93467">
        <ele>3</ele>
        <time>2020-06-04T08:30:19Z</time>
      </trkpt>
      <trkpt lat="46.73006" lon="-1.93476">
        <ele>3</ele>
        <time>2020-06-04T08:30:20Z</time>
      </trkpt>
      <trkpt lat="46.73005" lon="-1.93485">
        <ele>3</ele>
        <time>2020-06-04T08:30:21Z</time>
      </trkpt>
      <trkpt lat="46.73004" lon="-1.93494">
        <ele>3.1</ele>
        <time>2020-06-04T08:30:22Z</time>
      </trkpt>
      <trkpt lat="46.73003" lon="-1.93504">
        <ele>3.1</ele>
        <time>2020-06-04T08:30:23Z</time>
      </trkpt>
      <trkpt lat="46.73002" lon="-1.93513">
        <ele>3.2</ele>
        <time>2020-06-04T08:30:24Z</time>
      </trkpt>
      <trkpt lat="46.73001" lon="-1.93522">
        <ele>3.2</ele>
        <time>2020-06-04T08:30:25Z</time>
      </trkpt>
      <trkpt lat="46.72999" lon="-1.93531">
        <ele>3.3</ele>
        <time>2020-06-04T08:30:26Z</time>
      </trkpt>
      <trkpt lat="46.72998" lon="-1.9354">
        <ele>3.4</ele>
        <time>2020-06-04T08:30:27Z</time>
      </trkpt>
      <trkpt lat="46.72997" lon="-1.93548">
        <ele>3.4</ele>
        <time>2020-06-04T08:30:28Z</time>
      </trkpt>
      <trkpt lat="46.72996" lon="-1.93557">
        <ele>3.5</ele>
        <time>2020-06-04T08:30:29Z</time>
      </trkpt>
      <trkpt lat="46.72994" lon="-1.93566">
        <ele>3.6</ele>
        <time>2020-06-04T08:30:30Z</time>
      </trkpt>
      <trkpt lat="46.72992" lon="-1.93574">
        <ele>3.7</ele>
        <time>2020-06-04T08:30:31Z</time>
      </trkpt>
      <trkpt lat="46.7299" lon="-1.93582">
        <ele>3.7</ele>
        <time>2020-06-04T08:30:32Z</time>
      </trkpt>
      <trkpt lat="46.72987" lon="-1.93589">
        <ele>3.8</ele>
        <time>2020-06-04T08:30:33Z</time>
      </trkpt>
      <trkpt lat="46.72985" lon="-1.93597">
        <ele>3.8</ele>
        <time>2020-06-04T08:30:34Z</time>
      </trkpt>
      <trkpt lat="46.72982" lon="-1.93604">
        <ele>3.8</ele>
        <time>2020-06-04T08:30:35Z</time>
      </trkpt>
      <trkpt lat="46.72978" lon="-1.93611">
        <ele>3.8</ele>
        <time>2020-06-04T08:30:36Z</time>
      </trkpt>
      <trkpt lat="46.72975" lon="-1.93619">
        <ele>3.8</ele>
        <time>2020-06-04T08:30:37Z</time>
      </trkpt>
      <trkpt lat="46.72972" lon="-1.93626">
        <ele>3.7</ele>
        <time>2020-06-04T08:30:38Z</time>
      </trkpt>
      <trkpt lat="46.72969" lon="-1.93634">
        <ele>3.7</ele>
        <time>2020-06-04T08:30:39Z</time>
      </trkpt>
      <trkpt lat="46.72965" lon="-1.93641">
        <ele>3.7</ele>
        <time>2020-06-04T08:30:40Z</time>
      </trkpt>
      <trkpt lat="46.72961" lon="-1.93648">
        <ele>3.6</ele>
        <time>2020-06-04T08:30:41Z</time>
      </trkpt>
      <trkpt lat="46.72956" lon="-1.93655">
        <ele>3.6</ele>
        <time>2020-06-04T08:30:42Z</time>
      </trkpt>
      <trkpt lat="46.72952" lon="-1.93662">
        <ele>3.5</ele>
        <time>2020-06-04T08:30:43Z</time>
      </trkpt>
      <trkpt lat="46.72947" lon="-1.93668">
        <ele>3.5</ele>
        <time>2020-06-04T08:30:44Z</time>
      </trkpt>
      <trkpt lat="46.72943" lon="-1.93676">
        <ele>3.5</ele>
        <time>2020-06-04T08:30:45Z</time>
      </trkpt>
      <trkpt lat="46.72938" lon="-1.93683">
        <ele>3.4</ele>
        <time>2020-06-04T08:30:46Z</time>
      </trkpt>
      <trkpt lat="46.72934" lon="-1.9369">
        <ele>3.4</ele>
        <time>2020-06-04T08:30:47Z</time>
      </trkpt>
      <trkpt lat="46.72929" lon="-1.93697">
        <ele>3.4</ele>
        <time>2020-06-04T08:30:48Z</time>
      </trkpt>
      <trkpt lat="46.72924" lon="-1.93704">
        <ele>3.4</ele>
        <time>2020-06-04T08:30:49Z</time>
      </trkpt>
      <trkpt lat="46.7292" lon="-1.93712">
        <ele>3.4</ele>
        <time>2020-06-04T08:30:50Z</time>
      </trkpt>
      <trkpt lat="46.72915" lon="-1.93719">
        <ele>3.4</ele>
        <time>2020-06-04T08:30:51Z</time>
      </trkpt>
      <trkpt lat="46.72911" lon="-1.93727">
        <ele>3.4</ele>
        <time>2020-06-04T08:30:52Z</time>
      </trkpt>
      <trkpt lat="46.72907" lon="-1.93734">
        <ele>3.4</ele>
        <time>2020-06-04T08:30:53Z</time>
      </trkpt>
      <trkpt lat="46.72902" lon="-1.93741">
        <ele>3.4</ele>
        <time>2020-06-04T08:30:54Z</time>
      </trkpt>
      <trkpt lat="46.72897" lon="-1.93749">
        <ele>3.4</ele>
        <time>2020-06-04T08:30:55Z</time>
      </trkpt>
      <trkpt lat="46.72892" lon="-1.93756">
        <ele>3.4</ele>
        <time>2020-06-04T08:30:56Z</time>
      </trkpt>
      <trkpt lat="46.72887" lon="-1.93762">
        <ele>3.4</ele>
        <time>2020-06-04T08:30:57Z</time>
      </trkpt>
      <trkpt lat="46.72882" lon="-1.93769">
        <ele>3.4</ele>
        <time>2020-06-04T08:30:58Z</time>
      </trkpt>
      <trkpt lat="46.72877" lon="-1.93776">
        <ele>3.3</ele>
        <time>2020-06-04T08:30:59Z</time>
      </trkpt>
      <trkpt lat="46.72872" lon="-1.93783">
        <ele>3.3</ele>
        <time>2020-06-04T08:31:00Z</time>
      </trkpt>
      <trkpt lat="46.72868" lon="-1.9379">
        <ele>3.3</ele>
        <time>2020-06-04T08:31:01Z</time>
      </trkpt>
      <trkpt lat="46.72863" lon="-1.93797">
        <ele>3.3</ele>
        <time>2020-06-04T08:31:02Z</time>
      </trkpt>
      <trkpt lat="46.72858" lon="-1.93803">
        <ele>3.3</ele>
        <time>2020-06-04T08:31:03Z</time>
      </trkpt>
      <trkpt lat="46.72853" lon="-1.93809">
        <ele>3.3</ele>
        <time>2020-06-04T08:31:04Z</time>
      </trkpt>
      <trkpt lat="46.72848" lon="-1.93815">
        <ele>3.3</ele>
        <time>2020-06-04T08:31:05Z</time>
      </trkpt>
      <trkpt lat="46.72842" lon="-1.9382">
        <ele>3.3</ele>
        <time>2020-06-04T08:31:06Z</time>
      </trkpt>
      <trkpt lat="46.72837" lon="-1.93826">
        <ele>3.3</ele>
        <time>2020-06-04T08:31:07Z</time>
      </trkpt>
      <trkpt lat="46.72832" lon="-1.93831">
        <ele>3.3</ele>
        <time>2020-06-04T08:31:08Z</time>
      </trkpt>
      <trkpt lat="46.72826" lon="-1.93836">
        <ele>3.3</ele>
        <time>2020-06-04T08:31:09Z</time>
      </trkpt>
      <trkpt lat="46.72821" lon="-1.93841">
        <ele>3.3</ele>
        <time>2020-06-04T08:31:10Z</time>
      </trkpt>
      <trkpt lat="46.72815" lon="-1.93846">
        <ele>3.2</ele>
        <time>2020-06-04T08:31:11Z</time>
      </trkpt>
      <trkpt lat="46.72809" lon="-1.93851">
        <ele>3.2</ele>
        <time>2020-06-04T08:31:12Z</time>
      </trkpt>
      <trkpt lat="46.72803" lon="-1.93856">
        <ele>3.2</ele>
        <time>2020-06-04T08:31:13Z</time>
      </trkpt>
      <trkpt lat="46.72797" lon="-1.9386">
        <ele>3.2</ele>
        <time>2020-06-04T08:31:14Z</time>
      </trkpt>
      <trkpt lat="46.72792" lon="-1.93866">
        <ele>3.2</ele>
        <time>2020-06-04T08:31:15Z</time>
      </trkpt>
      <trkpt lat="46.72786" lon="-1.93871">
        <ele>3.1</ele>
        <time>2020-06-04T08:31:16Z</time>
      </trkpt>
      <trkpt lat="46.7278" lon="-1.93876">
        <ele>3.1</ele>
        <time>2020-06-04T08:31:17Z</time>
      </trkpt>
      <trkpt lat="46.72775" lon="-1.93881">
        <ele>3</ele>
        <time>2020-06-04T08:31:18Z</time>
      </trkpt>
      <trkpt lat="46.72769" lon="-1.93887">
        <ele>3</ele>
        <time>2020-06-04T08:31:19Z</time>
      </trkpt>
      <trkpt lat="46.72764" lon="-1.93892">
        <ele>3</ele>
        <time>2020-06-04T08:31:20Z</time>
      </trkpt>
      <trkpt lat="46.72758" lon="-1.93897">
        <ele>3</ele>
        <time>2020-06-04T08:31:21Z</time>
      </trkpt>
      <trkpt lat="46.72753" lon="-1.93903">
        <ele>2.9</ele>
        <time>2020-06-04T08:31:22Z</time>
      </trkpt>
      <trkpt lat="46.72748" lon="-1.93909">
        <ele>2.9</ele>
        <time>2020-06-04T08:31:23Z</time>
      </trkpt>
      <trkpt lat="46.72743" lon="-1.93914">
        <ele>2.9</ele>
        <time>2020-06-04T08:31:24Z</time>
      </trkpt>
      <trkpt lat="46.72737" lon="-1.93919">
        <ele>2.9</ele>
        <time>2020-06-04T08:31:25Z</time>
      </trkpt>
      <trkpt lat="46.72731" lon="-1.93923">
        <ele>2.9</ele>
        <time>2020-06-04T08:31:26Z</time>
      </trkpt>
      <trkpt lat="46.72726" lon="-1.93927">
        <ele>2.9</ele>
        <time>2020-06-04T08:31:27Z</time>
      </trkpt>
      <trkpt lat="46.7272" lon="-1.9393">
        <ele>2.9</ele>
        <time>2020-06-04T08:31:28Z</time>
      </trkpt>
      <trkpt lat="46.72714" lon="-1.93935">
        <ele>2.9</ele>
        <time>2020-06-04T08:31:29Z</time>
      </trkpt>
      <trkpt lat="46.72709" lon="-1.93938">
        <ele>2.9</ele>
        <time>2020-06-04T08:31:30Z</time>
      </trkpt>
      <trkpt lat="46.72703" lon="-1.93942">
        <ele>2.9</ele>
        <time>2020-06-04T08:31:31Z</time>
      </trkpt>
      <trkpt lat="46.72698" lon="-1.93946">
        <ele>2.9</ele>
        <time>2020-06-04T08:31:32Z</time>
      </trkpt>
      <trkpt lat="46.72692" lon="-1.9395">
        <ele>2.9</ele>
        <time>2020-06-04T08:31:33Z</time>
      </trkpt>
      <trkpt lat="46.72686" lon="-1.93954">
        <ele>2.9</ele>
        <time>2020-06-04T08:31:34Z</time>
      </trkpt>
      <trkpt lat="46.7268" lon="-1.93958">
        <ele>2.9</ele>
        <time>2020-06-04T08:31:35Z</time>
      </trkpt>
      <trkpt lat="46.72674" lon="-1.93962">
        <ele>2.9</ele>
        <time>2020-06-04T08:31:36Z</time>
      </trkpt>
      <trkpt lat="46.72669" lon="-1.93967">
        <ele>2.9</ele>
        <time>2020-06-04T08:31:37Z</time>
      </trkpt>
      <trkpt lat="46.72663" lon="-1.93973">
        <ele>2.9</ele>
        <time>2020-06-04T08:31:38Z</time>
      </trkpt>
      <trkpt lat="46.72659" lon="-1.9398">
        <ele>2.9</ele>
        <time>2020-06-04T08:31:39Z</time>
      </trkpt>
      <trkpt lat="46.72654" lon="-1.93986">
        <ele>3</ele>
        <time>2020-06-04T08:31:40Z</time>
      </trkpt>
      <trkpt lat="46.7265" lon="-1.93994">
        <ele>3</ele>
        <time>2020-06-04T08:31:41Z</time>
      </trkpt>
      <trkpt lat="46.72646" lon="-1.94002">
        <ele>3</ele>
        <time>2020-06-04T08:31:42Z</time>
      </trkpt>
      <trkpt lat="46.72642" lon="-1.94009">
        <ele>3.1</ele>
        <time>2020-06-04T08:31:43Z</time>
      </trkpt>
      <trkpt lat="46.72638" lon="-1.94016">
        <ele>3.2</ele>
        <time>2020-06-04T08:31:44Z</time>
      </trkpt>
      <trkpt lat="46.72634" lon="-1.94024">
        <ele>3.2</ele>
        <time>2020-06-04T08:31:45Z</time>
      </trkpt>
      <trkpt lat="46.7263" lon="-1.94032">
        <ele>3.3</ele>
        <time>2020-06-04T08:31:46Z</time>
      </trkpt>
      <trkpt lat="46.72627" lon="-1.94039">
        <ele>3.4</ele>
        <time>2020-06-04T08:31:47Z</time>
      </trkpt>
      <trkpt lat="46.72623" lon="-1.94047">
        <ele>3.5</ele>
        <time>2020-06-04T08:31:48Z</time>
      </trkpt>
      <trkpt lat="46.7262" lon="-1.94055">
        <ele>3.5</ele>
        <time>2020-06-04T08:31:49Z</time>
      </trkpt>
      <trkpt lat="46.72616" lon="-1.94063">
        <ele>3.5</ele>
        <time>2020-06-04T08:31:50Z</time>
      </trkpt>
      <trkpt lat="46.72613" lon="-1.94071">
        <ele>3.5</ele>
        <time>2020-06-04T08:31:51Z</time>
      </trkpt>
      <trkpt lat="46.7261" lon="-1.94078">
        <ele>3.6</ele>
        <time>2020-06-04T08:31:52Z</time>
      </trkpt>
      <trkpt lat="46.72606" lon="-1.94086">
        <ele>3.6</ele>
        <time>2020-06-04T08:31:53Z</time>
      </trkpt>
      <trkpt lat="46.72603" lon="-1.94093">
        <ele>3.6</ele>
        <time>2020-06-04T08:31:54Z</time>
      </trkpt>
      <trkpt lat="46.726" lon="-1.94101">
        <ele>3.6</ele>
        <time>2020-06-04T08:31:55Z</time>
      </trkpt>
      <trkpt lat="46.72597" lon="-1.94109">
        <ele>3.5</ele>
        <time>2020-06-04T08:31:56Z</time>
      </trkpt>
      <trkpt lat="46.72594" lon="-1.94118">
        <ele>3.5</ele>
        <time>2020-06-04T08:31:57Z</time>
      </trkpt>
      <trkpt lat="46.72591" lon="-1.94125">
        <ele>3.5</ele>
        <time>2020-06-04T08:31:58Z</time>
      </trkpt>
      <trkpt lat="46.72587" lon="-1.94133">
        <ele>3.6</ele>
        <time>2020-06-04T08:31:59Z</time>
      </trkpt>
      <trkpt lat="46.72584" lon="-1.94141">
        <ele>3.6</ele>
        <time>2020-06-04T08:32:00Z</time>
      </trkpt>
      <trkpt lat="46.72581" lon="-1.94149">
        <ele>3.6</ele>
        <time>2020-06-04T08:32:01Z</time>
      </trkpt>
      <trkpt lat="46.72577" lon="-1.94156">
        <ele>3.6</ele>
        <time>2020-06-04T08:32:02Z</time>
      </trkpt>
      <trkpt lat="46.72574" lon="-1.94164">
        <ele>3.6</ele>
        <time>2020-06-04T08:32:03Z</time>
      </trkpt>
      <trkpt lat="46.72571" lon="-1.94172">
        <ele>3.6</ele>
        <time>2020-06-04T08:32:04Z</time>
      </trkpt>
      <trkpt lat="46.72568" lon="-1.94179">
        <ele>3.7</ele>
        <time>2020-06-04T08:32:05Z</time>
      </trkpt>
      <trkpt lat="46.72565" lon="-1.94186">
        <ele>3.7</ele>
        <time>2020-06-04T08:32:06Z</time>
      </trkpt>
      <trkpt lat="46.72562" lon="-1.94194">
        <ele>3.7</ele>
        <time>2020-06-04T08:32:07Z</time>
      </trkpt>
      <trkpt lat="46.72559" lon="-1.942">
        <ele>3.8</ele>
        <time>2020-06-04T08:32:08Z</time>
      </trkpt>
      <trkpt lat="46.72556" lon="-1.94207">
        <ele>3.8</ele>
        <time>2020-06-04T08:32:09Z</time>
      </trkpt>
      <trkpt lat="46.72553" lon="-1.94215">
        <ele>3.9</ele>
        <time>2020-06-04T08:32:10Z</time>
      </trkpt>
      <trkpt lat="46.72551" lon="-1.94222">
        <ele>3.9</ele>
        <time>2020-06-04T08:32:11Z</time>
      </trkpt>
      <trkpt lat="46.72549" lon="-1.94229">
        <ele>4</ele>
        <time>2020-06-04T08:32:12Z</time>
      </trkpt>
      <trkpt lat="46.72547" lon="-1.94236">
        <ele>4.1</ele>
        <time>2020-06-04T08:32:13Z</time>
      </trkpt>
      <trkpt lat="46.72545" lon="-1.94244">
        <ele>4.3</ele>
        <time>2020-06-04T08:32:14Z</time>
      </trkpt>
      <trkpt lat="46.72543" lon="-1.9425">
        <ele>4.4</ele>
        <time>2020-06-04T08:32:15Z</time>
      </trkpt>
      <trkpt lat="46.72541" lon="-1.94257">
        <ele>4.5</ele>
        <time>2020-06-04T08:32:16Z</time>
      </trkpt>
      <trkpt lat="46.72538" lon="-1.94264">
        <ele>4.6</ele>
        <time>2020-06-04T08:32:17Z</time>
      </trkpt>
      <trkpt lat="46.72536" lon="-1.94272">
        <ele>4.7</ele>
        <time>2020-06-04T08:32:18Z</time>
      </trkpt>
      <trkpt lat="46.72533" lon="-1.94279">
        <ele>4.8</ele>
        <time>2020-06-04T08:32:19Z</time>
      </trkpt>
      <trkpt lat="46.7253" lon="-1.94286">
        <ele>4.9</ele>
        <time>2020-06-04T08:32:20Z</time>
      </trkpt>
      <trkpt lat="46.72526" lon="-1.94292">
        <ele>5</ele>
        <time>2020-06-04T08:32:21Z</time>
      </trkpt>
      <trkpt lat="46.72523" lon="-1.94298">
        <ele>5.1</ele>
        <time>2020-06-04T08:32:22Z</time>
      </trkpt>
      <trkpt lat="46.7252" lon="-1.94303">
        <ele>5.2</ele>
        <time>2020-06-04T08:32:23Z</time>
      </trkpt>
      <trkpt lat="46.72515" lon="-1.94307">
        <ele>5.3</ele>
        <time>2020-06-04T08:32:24Z</time>
      </trkpt>
      <trkpt lat="46.72511" lon="-1.94312">
        <ele>5.4</ele>
        <time>2020-06-04T08:32:25Z</time>
      </trkpt>
      <trkpt lat="46.72506" lon="-1.94315">
        <ele>5.4</ele>
        <time>2020-06-04T08:32:26Z</time>
      </trkpt>
      <trkpt lat="46.72501" lon="-1.94318">
        <ele>5.5</ele>
        <time>2020-06-04T08:32:27Z</time>
      </trkpt>
      <trkpt lat="46.72497" lon="-1.94321">
        <ele>5.6</ele>
        <time>2020-06-04T08:32:28Z</time>
      </trkpt>
      <trkpt lat="46.72493" lon="-1.94323">
        <ele>5.6</ele>
        <time>2020-06-04T08:32:29Z</time>
      </trkpt>
      <trkpt lat="46.7249" lon="-1.94326">
        <ele>5.7</ele>
        <time>2020-06-04T08:32:30Z</time>
      </trkpt>
      <trkpt lat="46.7249" lon="-1.94326">
        <ele>5.7</ele>
        <time>2020-06-04T08:32:31Z</time>
      </trkpt>
      <trkpt lat="46.72489" lon="-1.94328">
        <ele>5.7</ele>
        <time>2020-06-04T08:32:32Z</time>
      </trkpt>
      <trkpt lat="46.72489" lon="-1.94331">
        <ele>5.7</ele>
        <time>2020-06-04T08:32:33Z</time>
      </trkpt>
      <trkpt lat="46.7249" lon="-1.94337">
        <ele>5.7</ele>
        <time>2020-06-04T08:32:34Z</time>
      </trkpt>
      <trkpt lat="46.7249" lon="-1.94339">
        <ele>5.7</ele>
        <time>2020-06-04T08:32:35Z</time>
      </trkpt>
      <trkpt lat="46.72491" lon="-1.94342">
        <ele>5.7</ele>
        <time>2020-06-04T08:32:36Z</time>
      </trkpt>
      <trkpt lat="46.72491" lon="-1.94348">
        <ele>5.7</ele>
        <time>2020-06-04T08:32:37Z</time>
      </trkpt>
      <trkpt lat="46.72492" lon="-1.9435">
        <ele>5.7</ele>
        <time>2020-06-04T08:32:38Z</time>
      </trkpt>
      <trkpt lat="46.72493" lon="-1.94355">
        <ele>5.7</ele>
        <time>2020-06-04T08:32:39Z</time>
      </trkpt>
      <trkpt lat="46.72494" lon="-1.94357">
        <ele>5.7</ele>
        <time>2020-06-04T08:32:40Z</time>
      </trkpt>
      <trkpt lat="46.72496" lon="-1.9436">
        <ele>5.8</ele>
        <time>2020-06-04T08:32:41Z</time>
      </trkpt>
      <trkpt lat="46.72498" lon="-1.94364">
        <ele>5.8</ele>
        <time>2020-06-04T08:32:42Z</time>
      </trkpt>
      <trkpt lat="46.725" lon="-1.94367">
        <ele>5.8</ele>
        <time>2020-06-04T08:32:43Z</time>
      </trkpt>
      <trkpt lat="46.72501" lon="-1.94372">
        <ele>5.8</ele>
        <time>2020-06-04T08:32:44Z</time>
      </trkpt>
      <trkpt lat="46.72503" lon="-1.94376">
        <ele>5.9</ele>
        <time>2020-06-04T08:32:45Z</time>
      </trkpt>
      <trkpt lat="46.72505" lon="-1.9438">
        <ele>5.9</ele>
        <time>2020-06-04T08:32:46Z</time>
      </trkpt>
      <trkpt lat="46.72507" lon="-1.94384">
        <ele>5.9</ele>
        <time>2020-06-04T08:32:47Z</time>
      </trkpt>
      <trkpt lat="46.7251" lon="-1.94389">
        <ele>5.9</ele>
        <time>2020-06-04T08:32:48Z</time>
      </trkpt>
      <trkpt lat="46.72513" lon="-1.94393">
        <ele>5.9</ele>
        <time>2020-06-04T08:32:49Z</time>
      </trkpt>
      <trkpt lat="46.72515" lon="-1.94397">
        <ele>5.9</ele>
        <time>2020-06-04T08:32:50Z</time>
      </trkpt>
      <trkpt lat="46.72518" lon="-1.94402">
        <ele>5.9</ele>
        <time>2020-06-04T08:32:51Z</time>
      </trkpt>
      <trkpt lat="46.72521" lon="-1.94407">
        <ele>5.8</ele>
        <time>2020-06-04T08:32:52Z</time>
      </trkpt>
      <trkpt lat="46.72524" lon="-1.94413">
        <ele>5.8</ele>
        <time>2020-06-04T08:32:53Z</time>
      </trkpt>
      <trkpt lat="46.72528" lon="-1.94418">
        <ele>5.8</ele>
        <time>2020-06-04T08:32:54Z</time>
      </trkpt>
      <trkpt lat="46.72532" lon="-1.94424">
        <ele>5.8</ele>
        <time>2020-06-04T08:32:55Z</time>
      </trkpt>
      <trkpt lat="46.72535" lon="-1.94429">
        <ele>5.7</ele>
        <time>2020-06-04T08:32:56Z</time>
      </trkpt>
      <trkpt lat="46.72539" lon="-1.94436">
        <ele>5.7</ele>
        <time>2020-06-04T08:32:57Z</time>
      </trkpt>
      <trkpt lat="46.72542" lon="-1.94442">
        <ele>5.6</ele>
        <time>2020-06-04T08:32:58Z</time>
      </trkpt>
      <trkpt lat="46.72545" lon="-1.94449">
        <ele>5.6</ele>
        <time>2020-06-04T08:32:59Z</time>
      </trkpt>
      <trkpt lat="46.72548" lon="-1.94456">
        <ele>5.5</ele>
        <time>2020-06-04T08:33:00Z</time>
      </trkpt>
      <trkpt lat="46.72551" lon="-1.94462">
        <ele>5.4</ele>
        <time>2020-06-04T08:33:01Z</time>
      </trkpt>
      <trkpt lat="46.72554" lon="-1.9447">
        <ele>5.4</ele>
        <time>2020-06-04T08:33:02Z</time>
      </trkpt>
      <trkpt lat="46.72558" lon="-1.94477">
        <ele>5.3</ele>
        <time>2020-06-04T08:33:03Z</time>
      </trkpt>
      <trkpt lat="46.72562" lon="-1.94482">
        <ele>5.2</ele>
        <time>2020-06-04T08:33:04Z</time>
      </trkpt>
      <trkpt lat="46.72566" lon="-1.94488">
        <ele>5.1</ele>
        <time>2020-06-04T08:33:05Z</time>
      </trkpt>
      <trkpt lat="46.7257" lon="-1.94495">
        <ele>5</ele>
        <time>2020-06-04T08:33:06Z</time>
      </trkpt>
      <trkpt lat="46.72573" lon="-1.94502">
        <ele>4.9</ele>
        <time>2020-06-04T08:33:07Z</time>
      </trkpt>
      <trkpt lat="46.72576" lon="-1.94509">
        <ele>4.8</ele>
        <time>2020-06-04T08:33:08Z</time>
      </trkpt>
      <trkpt lat="46.7258" lon="-1.94516">
        <ele>4.7</ele>
        <time>2020-06-04T08:33:09Z</time>
      </trkpt>
      <trkpt lat="46.72584" lon="-1.94522">
        <ele>4.7</ele>
        <time>2020-06-04T08:33:10Z</time>
      </trkpt>
      <trkpt lat="46.72587" lon="-1.94529">
        <ele>4.6</ele>
        <time>2020-06-04T08:33:11Z</time>
      </trkpt>
      <trkpt lat="46.7259" lon="-1.94536">
        <ele>4.6</ele>
        <time>2020-06-04T08:33:12Z</time>
      </trkpt>
      <trkpt lat="46.72594" lon="-1.94543">
        <ele>4.6</ele>
        <time>2020-06-04T08:33:13Z</time>
      </trkpt>
      <trkpt lat="46.72597" lon="-1.94548">
        <ele>4.6</ele>
        <time>2020-06-04T08:33:14Z</time>
      </trkpt>
      <trkpt lat="46.72601" lon="-1.94555">
        <ele>4.6</ele>
        <time>2020-06-04T08:33:15Z</time>
      </trkpt>
      <trkpt lat="46.72605" lon="-1.94561">
        <ele>4.6</ele>
        <time>2020-06-04T08:33:16Z</time>
      </trkpt>
      <trkpt lat="46.72608" lon="-1.94567">
        <ele>4.6</ele>
        <time>2020-06-04T08:33:17Z</time>
      </trkpt>
      <trkpt lat="46.72612" lon="-1.94574">
        <ele>4.6</ele>
        <time>2020-06-04T08:33:18Z</time>
      </trkpt>
      <trkpt lat="46.72616" lon="-1.9458">
        <ele>4.6</ele>
        <time>2020-06-04T08:33:19Z</time>
      </trkpt>
      <trkpt lat="46.7262" lon="-1.94586">
        <ele>4.5</ele>
        <time>2020-06-04T08:33:20Z</time>
      </trkpt>
      <trkpt lat="46.72623" lon="-1.94593">
        <ele>4.4</ele>
        <time>2020-06-04T08:33:21Z</time>
      </trkpt>
      <trkpt lat="46.72627" lon="-1.94599">
        <ele>4.4</ele>
        <time>2020-06-04T08:33:22Z</time>
      </trkpt>
      <trkpt lat="46.72631" lon="-1.94606">
        <ele>4.3</ele>
        <time>2020-06-04T08:33:23Z</time>
      </trkpt>
      <trkpt lat="46.72635" lon="-1.94613">
        <ele>4.2</ele>
        <time>2020-06-04T08:33:24Z</time>
      </trkpt>
      <trkpt lat="46.72639" lon="-1.9462">
        <ele>4.1</ele>
        <time>2020-06-04T08:33:25Z</time>
      </trkpt>
      <trkpt lat="46.72643" lon="-1.94627">
        <ele>4</ele>
        <time>2020-06-04T08:33:26Z</time>
      </trkpt>
      <trkpt lat="46.72647" lon="-1.94635">
        <ele>4</ele>
        <time>2020-06-04T08:33:27Z</time>
      </trkpt>
      <trkpt lat="46.7265" lon="-1.94642">
        <ele>3.9</ele>
        <time>2020-06-04T08:33:28Z</time>
      </trkpt>
      <trkpt lat="46.72655" lon="-1.9465">
        <ele>3.9</ele>
        <time>2020-06-04T08:33:29Z</time>
      </trkpt>
      <trkpt lat="46.72659" lon="-1.94657">
        <ele>3.9</ele>
        <time>2020-06-04T08:33:30Z</time>
      </trkpt>
      <trkpt lat="46.72663" lon="-1.94664">
        <ele>3.9</ele>
        <time>2020-06-04T08:33:31Z</time>
      </trkpt>
      <trkpt lat="46.72666" lon="-1.94671">
        <ele>3.9</ele>
        <time>2020-06-04T08:33:32Z</time>
      </trkpt>
      <trkpt lat="46.7267" lon="-1.94677">
        <ele>3.9</ele>
        <time>2020-06-04T08:33:33Z</time>
      </trkpt>
      <trkpt lat="46.72673" lon="-1.94684">
        <ele>3.9</ele>
        <time>2020-06-04T08:33:34Z</time>
      </trkpt>
      <trkpt lat="46.72677" lon="-1.94691">
        <ele>3.9</ele>
        <time>2020-06-04T08:33:35Z</time>
      </trkpt>
      <trkpt lat="46.72681" lon="-1.94697">
        <ele>3.9</ele>
        <time>2020-06-04T08:33:36Z</time>
      </trkpt>
      <trkpt lat="46.72686" lon="-1.94704">
        <ele>3.9</ele>
        <time>2020-06-04T08:33:37Z</time>
      </trkpt>
      <trkpt lat="46.72689" lon="-1.94711">
        <ele>4</ele>
        <time>2020-06-04T08:33:38Z</time>
      </trkpt>
      <trkpt lat="46.72693" lon="-1.94717">
        <ele>4</ele>
        <time>2020-06-04T08:33:39Z</time>
      </trkpt>
      <trkpt lat="46.72697" lon="-1.94724">
        <ele>4</ele>
        <time>2020-06-04T08:33:40Z</time>
      </trkpt>
      <trkpt lat="46.72701" lon="-1.94731">
        <ele>4</ele>
        <time>2020-06-04T08:33:41Z</time>
      </trkpt>
      <trkpt lat="46.72704" lon="-1.94738">
        <ele>4</ele>
        <time>2020-06-04T08:33:42Z</time>
      </trkpt>
      <trkpt lat="46.72708" lon="-1.94745">
        <ele>4.1</ele>
        <time>2020-06-04T08:33:43Z</time>
      </trkpt>
      <trkpt lat="46.72713" lon="-1.9475">
        <ele>4.1</ele>
        <time>2020-06-04T08:33:44Z</time>
      </trkpt>
      <trkpt lat="46.72717" lon="-1.94755">
        <ele>4.1</ele>
        <time>2020-06-04T08:33:45Z</time>
      </trkpt>
      <trkpt lat="46.7272" lon="-1.94761">
        <ele>4.2</ele>
        <time>2020-06-04T08:33:46Z</time>
      </trkpt>
      <trkpt lat="46.72724" lon="-1.94766">
        <ele>4.2</ele>
        <time>2020-06-04T08:33:47Z</time>
      </trkpt>
      <trkpt lat="46.72728" lon="-1.94772">
        <ele>4.2</ele>
        <time>2020-06-04T08:33:48Z</time>
      </trkpt>
      <trkpt lat="46.72731" lon="-1.94778">
        <ele>4.2</ele>
        <time>2020-06-04T08:33:49Z</time>
      </trkpt>
      <trkpt lat="46.72734" lon="-1.94784">
        <ele>4.2</ele>
        <time>2020-06-04T08:33:50Z</time>
      </trkpt>
      <trkpt lat="46.72737" lon="-1.94791">
        <ele>4.3</ele>
        <time>2020-06-04T08:33:51Z</time>
      </trkpt>
      <trkpt lat="46.72741" lon="-1.94797">
        <ele>4.3</ele>
        <time>2020-06-04T08:33:52Z</time>
      </trkpt>
      <trkpt lat="46.72745" lon="-1.94803">
        <ele>4.3</ele>
        <time>2020-06-04T08:33:53Z</time>
      </trkpt>
      <trkpt lat="46.72748" lon="-1.94809">
        <ele>4.3</ele>
        <time>2020-06-04T08:33:54Z</time>
      </trkpt>
      <trkpt lat="46.72752" lon="-1.94816">
        <ele>4.3</ele>
        <time>2020-06-04T08:33:55Z</time>
      </trkpt>
      <trkpt lat="46.72755" lon="-1.94822">
        <ele>4.4</ele>
        <time>2020-06-04T08:33:56Z</time>
      </trkpt>
      <trkpt lat="46.72759" lon="-1.94829">
        <ele>4.4</ele>
        <time>2020-06-04T08:33:57Z</time>
      </trkpt>
      <trkpt lat="46.72762" lon="-1.94836">
        <ele>4.5</ele>
        <time>2020-06-04T08:33:58Z</time>
      </trkpt>
      <trkpt lat="46.72765" lon="-1.94842">
        <ele>4.5</ele>
        <time>2020-06-04T08:33:59Z</time>
      </trkpt>
      <trkpt lat="46.72768" lon="-1.94846">
        <ele>4.6</ele>
        <time>2020-06-04T08:34:00Z</time>
      </trkpt>
      <trkpt lat="46.7277" lon="-1.94849">
        <ele>4.6</ele>
        <time>2020-06-04T08:34:01Z</time>
      </trkpt>
      <trkpt lat="46.72771" lon="-1.94851">
        <ele>4.7</ele>
        <time>2020-06-04T08:34:02Z</time>
      </trkpt>
      <trkpt lat="46.7277" lon="-1.94852">
        <ele>4.9</ele>
        <time>2020-06-04T08:34:03Z</time>
      </trkpt>
      <trkpt lat="46.72769" lon="-1.94853">
        <ele>5</ele>
        <time>2020-06-04T08:34:04Z</time>
      </trkpt>
      <trkpt lat="46.72766" lon="-1.94854">
        <ele>5</ele>
        <time>2020-06-04T08:34:05Z</time>
      </trkpt>
      <trkpt lat="46.72765" lon="-1.94854">
        <ele>5</ele>
        <time>2020-06-04T08:34:06Z</time>
      </trkpt>
      <trkpt lat="46.72762" lon="-1.94856">
        <ele>5</ele>
        <time>2020-06-04T08:34:07Z</time>
      </trkpt>
      <trkpt lat="46.72761" lon="-1.94857">
        <ele>5</ele>
        <time>2020-06-04T08:34:08Z</time>
      </trkpt>
      <trkpt lat="46.72758" lon="-1.94859">
        <ele>5.1</ele>
        <time>2020-06-04T08:34:09Z</time>
      </trkpt>
      <trkpt lat="46.72754" lon="-1.9486">
        <ele>5.1</ele>
        <time>2020-06-04T08:34:10Z</time>
      </trkpt>
      <trkpt lat="46.72751" lon="-1.94861">
        <ele>5</ele>
        <time>2020-06-04T08:34:11Z</time>
      </trkpt>
      <trkpt lat="46.72747" lon="-1.94863">
        <ele>5</ele>
        <time>2020-06-04T08:34:12Z</time>
      </trkpt>
      <trkpt lat="46.72746" lon="-1.94867">
        <ele>5</ele>
        <time>2020-06-04T08:34:13Z</time>
      </trkpt>
      <trkpt lat="46.72745" lon="-1.94874">
        <ele>5</ele>
        <time>2020-06-04T08:34:14Z</time>
      </trkpt>
      <trkpt lat="46.72745" lon="-1.9488">
        <ele>5</ele>
        <time>2020-06-04T08:34:15Z</time>
      </trkpt>
      <trkpt lat="46.72744" lon="-1.94885">
        <ele>4.9</ele>
        <time>2020-06-04T08:34:16Z</time>
      </trkpt>
      <trkpt lat="46.72744" lon="-1.94891">
        <ele>4.9</ele>
        <time>2020-06-04T08:34:17Z</time>
      </trkpt>
      <trkpt lat="46.72743" lon="-1.94896">
        <ele>4.9</ele>
        <time>2020-06-04T08:34:18Z</time>
      </trkpt>
      <trkpt lat="46.72742" lon="-1.949">
        <ele>4.9</ele>
        <time>2020-06-04T08:34:19Z</time>
      </trkpt>
      <trkpt lat="46.72741" lon="-1.94904">
        <ele>4.9</ele>
        <time>2020-06-04T08:34:20Z</time>
      </trkpt>
      <trkpt lat="46.7274" lon="-1.94908">
        <ele>4.9</ele>
        <time>2020-06-04T08:34:21Z</time>
      </trkpt>
      <trkpt lat="46.72738" lon="-1.94911">
        <ele>4.9</ele>
        <time>2020-06-04T08:34:22Z</time>
      </trkpt>
      <trkpt lat="46.72736" lon="-1.94913">
        <ele>4.9</ele>
        <time>2020-06-04T08:34:23Z</time>
      </trkpt>
      <trkpt lat="46.72733" lon="-1.94918">
        <ele>4.9</ele>
        <time>2020-06-04T08:34:24Z</time>
      </trkpt>
      <trkpt lat="46.72733" lon="-1.94919">
        <ele>4.9</ele>
        <time>2020-06-04T08:34:25Z</time>
      </trkpt>
      <trkpt lat="46.72732" lon="-1.94923">
        <ele>4.8</ele>
        <time>2020-06-04T08:34:26Z</time>
      </trkpt>
      <trkpt lat="46.72729" lon="-1.94927">
        <ele>4.8</ele>
        <time>2020-06-04T08:34:27Z</time>
      </trkpt>
      <trkpt lat="46.72729" lon="-1.94929">
        <ele>4.8</ele>
        <time>2020-06-04T08:34:28Z</time>
      </trkpt>
      <trkpt lat="46.72727" lon="-1.94933">
        <ele>4.8</ele>
        <time>2020-06-04T08:34:29Z</time>
      </trkpt>
      <trkpt lat="46.72726" lon="-1.94934">
        <ele>4.8</ele>
        <time>2020-06-04T08:34:30Z</time>
      </trkpt>
      <trkpt lat="46.72725" lon="-1.94936">
        <ele>4.8</ele>
        <time>2020-06-04T08:34:31Z</time>
      </trkpt>
      <trkpt lat="46.72724" lon="-1.94938">
        <ele>4.8</ele>
        <time>2020-06-04T08:34:32Z</time>
      </trkpt>
      <trkpt lat="46.72722" lon="-1.94939">
        <ele>4.8</ele>
        <time>2020-06-04T08:34:33Z</time>
      </trkpt>
      <trkpt lat="46.72721" lon="-1.94939">
        <ele>4.8</ele>
        <time>2020-06-04T08:34:34Z</time>
      </trkpt>
      <trkpt lat="46.72719" lon="-1.9494">
        <ele>4.8</ele>
        <time>2020-06-04T08:34:35Z</time>
      </trkpt>
      <trkpt lat="46.72719" lon="-1.94941">
        <ele>4.8</ele>
        <time>2020-06-04T08:34:36Z</time>
      </trkpt>
      <trkpt lat="46.72718" lon="-1.94941">
        <ele>4.8</ele>
        <time>2020-06-04T08:34:37Z</time>
      </trkpt>
      <trkpt lat="46.72717" lon="-1.94941">
        <ele>4.8</ele>
        <time>2020-06-04T08:34:38Z</time>
      </trkpt>
      <trkpt lat="46.72717" lon="-1.9494">
        <ele>4.8</ele>
        <time>2020-06-04T08:34:39Z</time>
      </trkpt>
      <trkpt lat="46.72717" lon="-1.94941">
        <ele>4.8</ele>
        <time>2020-06-04T08:34:40Z</time>
      </trkpt>
      <trkpt lat="46.72718" lon="-1.94941">
        <ele>4.8</ele>
        <time>2020-06-04T08:34:41Z</time>
      </trkpt>
      <trkpt lat="46.72719" lon="-1.94942">
        <ele>4.7</ele>
        <time>2020-06-04T08:34:42Z</time>
      </trkpt>
      <trkpt lat="46.7272" lon="-1.94943">
        <ele>4.7</ele>
        <time>2020-06-04T08:34:43Z</time>
      </trkpt>
      <trkpt lat="46.7272" lon="-1.94943">
        <ele>4.7</ele>
        <time>2020-06-04T08:34:44Z</time>
      </trkpt>
      <trkpt lat="46.7272" lon="-1.94942">
        <ele>4.7</ele>
        <time>2020-06-04T08:34:45Z</time>
      </trkpt>
      <trkpt lat="46.7272" lon="-1.94943">
        <ele>4.7</ele>
        <time>2020-06-04T08:34:46Z</time>
      </trkpt>
      <trkpt lat="46.7272" lon="-1.94943">
        <ele>4.7</ele>
        <time>2020-06-04T08:34:47Z</time>
      </trkpt>
      <trkpt lat="46.72719" lon="-1.94944">
        <ele>4.7</ele>
        <time>2020-06-04T08:34:48Z</time>
      </trkpt>
      <trkpt lat="46.72719" lon="-1.94954">
        <ele>4.7</ele>
        <time>2020-06-04T08:35:06Z</time>
      </trkpt>
      <trkpt lat="46.72719" lon="-1.94957">
        <ele>4.7</ele>
        <time>2020-06-04T08:35:07Z</time>
      </trkpt>
      <trkpt lat="46.72717" lon="-1.9496">
        <ele>4.7</ele>
        <time>2020-06-04T08:35:08Z</time>
      </trkpt>
      <trkpt lat="46.72716" lon="-1.94965">
        <ele>4.7</ele>
        <time>2020-06-04T08:35:09Z</time>
      </trkpt>
      <trkpt lat="46.72716" lon="-1.94969">
        <ele>4.7</ele>
        <time>2020-06-04T08:35:10Z</time>
      </trkpt>
      <trkpt lat="46.72716" lon="-1.94974">
        <ele>4.7</ele>
        <time>2020-06-04T08:35:11Z</time>
      </trkpt>
      <trkpt lat="46.72717" lon="-1.9498">
        <ele>4.8</ele>
        <time>2020-06-04T08:35:12Z</time>
      </trkpt>
      <trkpt lat="46.72717" lon="-1.94985">
        <ele>4.8</ele>
        <time>2020-06-04T08:35:13Z</time>
      </trkpt>
      <trkpt lat="46.72718" lon="-1.9499">
        <ele>4.8</ele>
        <time>2020-06-04T08:35:14Z</time>
      </trkpt>
      <trkpt lat="46.72719" lon="-1.94996">
        <ele>4.8</ele>
        <time>2020-06-04T08:35:15Z</time>
      </trkpt>
      <trkpt lat="46.72719" lon="-1.95002">
        <ele>4.8</ele>
        <time>2020-06-04T08:35:16Z</time>
      </trkpt>
      <trkpt lat="46.72719" lon="-1.95008">
        <ele>4.8</ele>
        <time>2020-06-04T08:35:17Z</time>
      </trkpt>
      <trkpt lat="46.72719" lon="-1.95014">
        <ele>4.9</ele>
        <time>2020-06-04T08:35:18Z</time>
      </trkpt>
      <trkpt lat="46.72719" lon="-1.9502">
        <ele>4.9</ele>
        <time>2020-06-04T08:35:19Z</time>
      </trkpt>
      <trkpt lat="46.72719" lon="-1.95027">
        <ele>4.9</ele>
        <time>2020-06-04T08:35:20Z</time>
      </trkpt>
      <trkpt lat="46.72719" lon="-1.95034">
        <ele>4.9</ele>
        <time>2020-06-04T08:35:21Z</time>
      </trkpt>
      <trkpt lat="46.72719" lon="-1.95041">
        <ele>4.9</ele>
        <time>2020-06-04T08:35:22Z</time>
      </trkpt>
      <trkpt lat="46.72719" lon="-1.95048">
        <ele>4.9</ele>
        <time>2020-06-04T08:35:23Z</time>
      </trkpt>
      <trkpt lat="46.72719" lon="-1.95055">
        <ele>4.9</ele>
        <time>2020-06-04T08:35:24Z</time>
      </trkpt>
      <trkpt lat="46.72719" lon="-1.95062">
        <ele>4.9</ele>
        <time>2020-06-04T08:35:25Z</time>
      </trkpt>
      <trkpt lat="46.7272" lon="-1.95069">
        <ele>4.9</ele>
        <time>2020-06-04T08:35:26Z</time>
      </trkpt>
      <trkpt lat="46.7272" lon="-1.95076">
        <ele>5</ele>
        <time>2020-06-04T08:35:27Z</time>
      </trkpt>
      <trkpt lat="46.7272" lon="-1.95082">
        <ele>5</ele>
        <time>2020-06-04T08:35:28Z</time>
      </trkpt>
      <trkpt lat="46.7272" lon="-1.95089">
        <ele>5</ele>
        <time>2020-06-04T08:35:29Z</time>
      </trkpt>
      <trkpt lat="46.72721" lon="-1.95096">
        <ele>5</ele>
        <time>2020-06-04T08:35:30Z</time>
      </trkpt>
      <trkpt lat="46.72721" lon="-1.95102">
        <ele>5</ele>
        <time>2020-06-04T08:35:31Z</time>
      </trkpt>
      <trkpt lat="46.72721" lon="-1.95109">
        <ele>5</ele>
        <time>2020-06-04T08:35:32Z</time>
      </trkpt>
      <trkpt lat="46.72722" lon="-1.95116">
        <ele>4.9</ele>
        <time>2020-06-04T08:35:33Z</time>
      </trkpt>
      <trkpt lat="46.72722" lon="-1.95123">
        <ele>4.9</ele>
        <time>2020-06-04T08:35:34Z</time>
      </trkpt>
      <trkpt lat="46.72722" lon="-1.9513">
        <ele>4.9</ele>
        <time>2020-06-04T08:35:35Z</time>
      </trkpt>
      <trkpt lat="46.72722" lon="-1.95137">
        <ele>4.9</ele>
        <time>2020-06-04T08:35:36Z</time>
      </trkpt>
      <trkpt lat="46.72722" lon="-1.95144">
        <ele>4.9</ele>
        <time>2020-06-04T08:35:37Z</time>
      </trkpt>
      <trkpt lat="46.72723" lon="-1.95151">
        <ele>5</ele>
        <time>2020-06-04T08:35:38Z</time>
      </trkpt>
      <trkpt lat="46.72723" lon="-1.95158">
        <ele>5</ele>
        <time>2020-06-04T08:35:39Z</time>
      </trkpt>
      <trkpt lat="46.72723" lon="-1.95165">
        <ele>5</ele>
        <time>2020-06-04T08:35:40Z</time>
      </trkpt>
      <trkpt lat="46.72723" lon="-1.95171">
        <ele>5</ele>
        <time>2020-06-04T08:35:41Z</time>
      </trkpt>
      <trkpt lat="46.72723" lon="-1.95178">
        <ele>5</ele>
        <time>2020-06-04T08:35:42Z</time>
      </trkpt>
      <trkpt lat="46.72724" lon="-1.95184">
        <ele>4.9</ele>
        <time>2020-06-04T08:35:43Z</time>
      </trkpt>
      <trkpt lat="46.72723" lon="-1.95191">
        <ele>4.9</ele>
        <time>2020-06-04T08:35:44Z</time>
      </trkpt>
      <trkpt lat="46.72723" lon="-1.95198">
        <ele>4.9</ele>
        <time>2020-06-04T08:35:45Z</time>
      </trkpt>
      <trkpt lat="46.72722" lon="-1.95204">
        <ele>4.8</ele>
        <time>2020-06-04T08:35:46Z</time>
      </trkpt>
      <trkpt lat="46.72722" lon="-1.95211">
        <ele>4.8</ele>
        <time>2020-06-04T08:35:47Z</time>
      </trkpt>
      <trkpt lat="46.72721" lon="-1.95217">
        <ele>4.7</ele>
        <time>2020-06-04T08:35:48Z</time>
      </trkpt>
      <trkpt lat="46.7272" lon="-1.95223">
        <ele>4.7</ele>
        <time>2020-06-04T08:35:49Z</time>
      </trkpt>
      <trkpt lat="46.72719" lon="-1.95229">
        <ele>4.7</ele>
        <time>2020-06-04T08:35:50Z</time>
      </trkpt>
      <trkpt lat="46.72717" lon="-1.95236">
        <ele>4.6</ele>
        <time>2020-06-04T08:35:51Z</time>
      </trkpt>
      <trkpt lat="46.72715" lon="-1.95242">
        <ele>4.6</ele>
        <time>2020-06-04T08:35:52Z</time>
      </trkpt>
      <trkpt lat="46.72713" lon="-1.95249">
        <ele>4.6</ele>
        <time>2020-06-04T08:35:53Z</time>
      </trkpt>
      <trkpt lat="46.72712" lon="-1.95256">
        <ele>4.5</ele>
        <time>2020-06-04T08:35:54Z</time>
      </trkpt>
      <trkpt lat="46.72711" lon="-1.95262">
        <ele>4.5</ele>
        <time>2020-06-04T08:35:55Z</time>
      </trkpt>
      <trkpt lat="46.7271" lon="-1.95269">
        <ele>4.5</ele>
        <time>2020-06-04T08:35:56Z</time>
      </trkpt>
      <trkpt lat="46.72708" lon="-1.95275">
        <ele>4.5</ele>
        <time>2020-06-04T08:35:57Z</time>
      </trkpt>
      <trkpt lat="46.72707" lon="-1.95282">
        <ele>4.4</ele>
        <time>2020-06-04T08:35:58Z</time>
      </trkpt>
      <trkpt lat="46.72705" lon="-1.95288">
        <ele>4.4</ele>
        <time>2020-06-04T08:35:59Z</time>
      </trkpt>
      <trkpt lat="46.72704" lon="-1.95295">
        <ele>4.4</ele>
        <time>2020-06-04T08:36:00Z</time>
      </trkpt>
      <trkpt lat="46.72702" lon="-1.95302">
        <ele>4.3</ele>
        <time>2020-06-04T08:36:01Z</time>
      </trkpt>
      <trkpt lat="46.727" lon="-1.95309">
        <ele>4.3</ele>
        <time>2020-06-04T08:36:02Z</time>
      </trkpt>
      <trkpt lat="46.72699" lon="-1.95315">
        <ele>4.2</ele>
        <time>2020-06-04T08:36:03Z</time>
      </trkpt>
      <trkpt lat="46.72697" lon="-1.95322">
        <ele>4.2</ele>
        <time>2020-06-04T08:36:04Z</time>
      </trkpt>
      <trkpt lat="46.72696" lon="-1.95329">
        <ele>4.2</ele>
        <time>2020-06-04T08:36:05Z</time>
      </trkpt>
      <trkpt lat="46.72695" lon="-1.95336">
        <ele>4.2</ele>
        <time>2020-06-04T08:36:06Z</time>
      </trkpt>
      <trkpt lat="46.72694" lon="-1.95343">
        <ele>4.1</ele>
        <time>2020-06-04T08:36:07Z</time>
      </trkpt>
      <trkpt lat="46.72692" lon="-1.95349">
        <ele>4.1</ele>
        <time>2020-06-04T08:36:08Z</time>
      </trkpt>
      <trkpt lat="46.7269" lon="-1.95355">
        <ele>4.1</ele>
        <time>2020-06-04T08:36:09Z</time>
      </trkpt>
      <trkpt lat="46.72688" lon="-1.95361">
        <ele>4.1</ele>
        <time>2020-06-04T08:36:10Z</time>
      </trkpt>
      <trkpt lat="46.72685" lon="-1.95366">
        <ele>4.1</ele>
        <time>2020-06-04T08:36:11Z</time>
      </trkpt>
      <trkpt lat="46.72682" lon="-1.9537">
        <ele>4.1</ele>
        <time>2020-06-04T08:36:12Z</time>
      </trkpt>
      <trkpt lat="46.72678" lon="-1.95373">
        <ele>4.1</ele>
        <time>2020-06-04T08:36:13Z</time>
      </trkpt>
      <trkpt lat="46.72674" lon="-1.95374">
        <ele>4.1</ele>
        <time>2020-06-04T08:36:14Z</time>
      </trkpt>
      <trkpt lat="46.7267" lon="-1.95374">
        <ele>4.1</ele>
        <time>2020-06-04T08:36:15Z</time>
      </trkpt>
      <trkpt lat="46.72667" lon="-1.95374">
        <ele>4.1</ele>
        <time>2020-06-04T08:36:16Z</time>
      </trkpt>
      <trkpt lat="46.72664" lon="-1.95375">
        <ele>4.1</ele>
        <time>2020-06-04T08:36:17Z</time>
      </trkpt>
      <trkpt lat="46.7266" lon="-1.95376">
        <ele>4.1</ele>
        <time>2020-06-04T08:36:18Z</time>
      </trkpt>
      <trkpt lat="46.72659" lon="-1.95376">
        <ele>4.1</ele>
        <time>2020-06-04T08:36:19Z</time>
      </trkpt>
      <trkpt lat="46.72655" lon="-1.95377">
        <ele>4.1</ele>
        <time>2020-06-04T08:36:20Z</time>
      </trkpt>
      <trkpt lat="46.72654" lon="-1.95377">
        <ele>4.1</ele>
        <time>2020-06-04T08:36:21Z</time>
      </trkpt>
      <trkpt lat="46.7265" lon="-1.95379">
        <ele>4.1</ele>
        <time>2020-06-04T08:36:22Z</time>
      </trkpt>
      <trkpt lat="46.72649" lon="-1.95379">
        <ele>4.1</ele>
        <time>2020-06-04T08:36:23Z</time>
      </trkpt>
      <trkpt lat="46.72646" lon="-1.95381">
        <ele>4.1</ele>
        <time>2020-06-04T08:36:24Z</time>
      </trkpt>
      <trkpt lat="46.72643" lon="-1.95383">
        <ele>4.1</ele>
        <time>2020-06-04T08:36:25Z</time>
      </trkpt>
      <trkpt lat="46.7264" lon="-1.95384">
        <ele>4.2</ele>
        <time>2020-06-04T08:36:26Z</time>
      </trkpt>
      <trkpt lat="46.72636" lon="-1.95386">
        <ele>4.2</ele>
        <time>2020-06-04T08:36:27Z</time>
      </trkpt>
      <trkpt lat="46.72633" lon="-1.95387">
        <ele>4.2</ele>
        <time>2020-06-04T08:36:28Z</time>
      </trkpt>
      <trkpt lat="46.7263" lon="-1.95388">
        <ele>4.2</ele>
        <time>2020-06-04T08:36:29Z</time>
      </trkpt>
      <trkpt lat="46.72626" lon="-1.95389">
        <ele>4.3</ele>
        <time>2020-06-04T08:36:30Z</time>
      </trkpt>
      <trkpt lat="46.72623" lon="-1.9539">
        <ele>4.3</ele>
        <time>2020-06-04T08:36:31Z</time>
      </trkpt>
      <trkpt lat="46.7262" lon="-1.9539">
        <ele>4.3</ele>
        <time>2020-06-04T08:36:32Z</time>
      </trkpt>
      <trkpt lat="46.72616" lon="-1.95391">
        <ele>4.4</ele>
        <time>2020-06-04T08:36:33Z</time>
      </trkpt>
      <trkpt lat="46.72615" lon="-1.95391">
        <ele>4.4</ele>
        <time>2020-06-04T08:36:34Z</time>
      </trkpt>
      <trkpt lat="46.72612" lon="-1.95392">
        <ele>4.4</ele>
        <time>2020-06-04T08:36:35Z</time>
      </trkpt>
      <trkpt lat="46.72609" lon="-1.95392">
        <ele>4.4</ele>
        <time>2020-06-04T08:36:36Z</time>
      </trkpt>
      <trkpt lat="46.72606" lon="-1.95393">
        <ele>4.5</ele>
        <time>2020-06-04T08:36:37Z</time>
      </trkpt>
      <trkpt lat="46.72603" lon="-1.95394">
        <ele>4.5</ele>
        <time>2020-06-04T08:36:38Z</time>
      </trkpt>
      <trkpt lat="46.726" lon="-1.95394">
        <ele>4.5</ele>
        <time>2020-06-04T08:36:39Z</time>
      </trkpt>
      <trkpt lat="46.72596" lon="-1.95393">
        <ele>4.6</ele>
        <time>2020-06-04T08:36:40Z</time>
      </trkpt>
      <trkpt lat="46.72592" lon="-1.95395">
        <ele>4.6</ele>
        <time>2020-06-04T08:36:41Z</time>
      </trkpt>
      <trkpt lat="46.72588" lon="-1.95396">
        <ele>4.6</ele>
        <time>2020-06-04T08:36:42Z</time>
      </trkpt>
      <trkpt lat="46.72585" lon="-1.95397">
        <ele>4.6</ele>
        <time>2020-06-04T08:36:43Z</time>
      </trkpt>
      <trkpt lat="46.72581" lon="-1.95399">
        <ele>4.7</ele>
        <time>2020-06-04T08:36:44Z</time>
      </trkpt>
      <trkpt lat="46.72578" lon="-1.954">
        <ele>4.7</ele>
        <time>2020-06-04T08:36:45Z</time>
      </trkpt>
      <trkpt lat="46.72575" lon="-1.95401">
        <ele>4.7</ele>
        <time>2020-06-04T08:36:46Z</time>
      </trkpt>
      <trkpt lat="46.72572" lon="-1.95401">
        <ele>4.7</ele>
        <time>2020-06-04T08:36:47Z</time>
      </trkpt>
      <trkpt lat="46.72569" lon="-1.95402">
        <ele>4.8</ele>
        <time>2020-06-04T08:36:48Z</time>
      </trkpt>
      <trkpt lat="46.72565" lon="-1.95402">
        <ele>4.8</ele>
        <time>2020-06-04T08:36:49Z</time>
      </trkpt>
      <trkpt lat="46.72562" lon="-1.95403">
        <ele>4.8</ele>
        <time>2020-06-04T08:36:50Z</time>
      </trkpt>
      <trkpt lat="46.72559" lon="-1.95403">
        <ele>4.9</ele>
        <time>2020-06-04T08:36:51Z</time>
      </trkpt>
      <trkpt lat="46.72556" lon="-1.95403">
        <ele>4.9</ele>
        <time>2020-06-04T08:36:52Z</time>
      </trkpt>
      <trkpt lat="46.72552" lon="-1.95402">
        <ele>4.9</ele>
        <time>2020-06-04T08:36:53Z</time>
      </trkpt>
      <trkpt lat="46.72549" lon="-1.954">
        <ele>5</ele>
        <time>2020-06-04T08:36:54Z</time>
      </trkpt>
      <trkpt lat="46.72546" lon="-1.95399">
        <ele>5</ele>
        <time>2020-06-04T08:36:55Z</time>
      </trkpt>
      <trkpt lat="46.72542" lon="-1.95398">
        <ele>5.1</ele>
        <time>2020-06-04T08:36:56Z</time>
      </trkpt>
      <trkpt lat="46.72539" lon="-1.95398">
        <ele>5.1</ele>
        <time>2020-06-04T08:36:57Z</time>
      </trkpt>
      <trkpt lat="46.72536" lon="-1.95397">
        <ele>5.2</ele>
        <time>2020-06-04T08:36:58Z</time>
      </trkpt>
      <trkpt lat="46.72532" lon="-1.95398">
        <ele>5.3</ele>
        <time>2020-06-04T08:36:59Z</time>
      </trkpt>
      <trkpt lat="46.72528" lon="-1.95398">
        <ele>5.3</ele>
        <time>2020-06-04T08:37:00Z</time>
      </trkpt>
      <trkpt lat="46.72525" lon="-1.95398">
        <ele>5.4</ele>
        <time>2020-06-04T08:37:01Z</time>
      </trkpt>
      <trkpt lat="46.72521" lon="-1.95398">
        <ele>5.4</ele>
        <time>2020-06-04T08:37:02Z</time>
      </trkpt>
      <trkpt lat="46.72518" lon="-1.95399">
        <ele>5.5</ele>
        <time>2020-06-04T08:37:03Z</time>
      </trkpt>
      <trkpt lat="46.72515" lon="-1.954">
        <ele>5.5</ele>
        <time>2020-06-04T08:37:04Z</time>
      </trkpt>
      <trkpt lat="46.72511" lon="-1.95401">
        <ele>5.6</ele>
        <time>2020-06-04T08:37:05Z</time>
      </trkpt>
      <trkpt lat="46.72507" lon="-1.95402">
        <ele>5.6</ele>
        <time>2020-06-04T08:37:06Z</time>
      </trkpt>
      <trkpt lat="46.72503" lon="-1.95402">
        <ele>5.7</ele>
        <time>2020-06-04T08:37:07Z</time>
      </trkpt>
      <trkpt lat="46.725" lon="-1.95403">
        <ele>5.7</ele>
        <time>2020-06-04T08:37:08Z</time>
      </trkpt>
      <trkpt lat="46.72496" lon="-1.95403">
        <ele>5.7</ele>
        <time>2020-06-04T08:37:09Z</time>
      </trkpt>
      <trkpt lat="46.72492" lon="-1.95403">
        <ele>5.8</ele>
        <time>2020-06-04T08:37:10Z</time>
      </trkpt>
      <trkpt lat="46.72488" lon="-1.95404">
        <ele>5.8</ele>
        <time>2020-06-04T08:37:11Z</time>
      </trkpt>
      <trkpt lat="46.72484" lon="-1.95404">
        <ele>5.9</ele>
        <time>2020-06-04T08:37:12Z</time>
      </trkpt>
      <trkpt lat="46.72481" lon="-1.95406">
        <ele>5.9</ele>
        <time>2020-06-04T08:37:13Z</time>
      </trkpt>
      <trkpt lat="46.72478" lon="-1.95408">
        <ele>6</ele>
        <time>2020-06-04T08:37:14Z</time>
      </trkpt>
      <trkpt lat="46.72475" lon="-1.95408">
        <ele>6</ele>
        <time>2020-06-04T08:37:15Z</time>
      </trkpt>
      <trkpt lat="46.72471" lon="-1.95408">
        <ele>6.1</ele>
        <time>2020-06-04T08:37:16Z</time>
      </trkpt>
      <trkpt lat="46.72467" lon="-1.95409">
        <ele>6.1</ele>
        <time>2020-06-04T08:37:17Z</time>
      </trkpt>
      <trkpt lat="46.72465" lon="-1.95411">
        <ele>6.1</ele>
        <time>2020-06-04T08:37:18Z</time>
      </trkpt>
      <trkpt lat="46.72462" lon="-1.95412">
        <ele>6.1</ele>
        <time>2020-06-04T08:37:19Z</time>
      </trkpt>
      <trkpt lat="46.72459" lon="-1.95412">
        <ele>6.2</ele>
        <time>2020-06-04T08:37:20Z</time>
      </trkpt>
      <trkpt lat="46.72456" lon="-1.95412">
        <ele>6.2</ele>
        <time>2020-06-04T08:37:21Z</time>
      </trkpt>
      <trkpt lat="46.72453" lon="-1.95411">
        <ele>6.2</ele>
        <time>2020-06-04T08:37:22Z</time>
      </trkpt>
      <trkpt lat="46.7245" lon="-1.95411">
        <ele>6.2</ele>
        <time>2020-06-04T08:37:23Z</time>
      </trkpt>
      <trkpt lat="46.72449" lon="-1.95412">
        <ele>6.2</ele>
        <time>2020-06-04T08:37:24Z</time>
      </trkpt>
      <trkpt lat="46.72447" lon="-1.95412">
        <ele>6.2</ele>
        <time>2020-06-04T08:37:25Z</time>
      </trkpt>
      <trkpt lat="46.72447" lon="-1.95412">
        <ele>6.2</ele>
        <time>2020-06-04T08:37:26Z</time>
      </trkpt>
      <trkpt lat="46.72447" lon="-1.95412">
        <ele>6.2</ele>
        <time>2020-06-04T08:37:27Z</time>
      </trkpt>
      <trkpt lat="46.72447" lon="-1.95412">
        <ele>6.2</ele>
        <time>2020-06-04T08:37:28Z</time>
      </trkpt>
      <trkpt lat="46.72446" lon="-1.95412">
        <ele>6.2</ele>
        <time>2020-06-04T08:37:29Z</time>
      </trkpt>
      <trkpt lat="46.72446" lon="-1.95413">
        <ele>6.3</ele>
        <time>2020-06-04T08:37:30Z</time>
      </trkpt>
      <trkpt lat="46.72444" lon="-1.95418">
        <ele>6.3</ele>
        <time>2020-06-04T08:37:31Z</time>
      </trkpt>
      <trkpt lat="46.72444" lon="-1.9542">
        <ele>6.3</ele>
        <time>2020-06-04T08:37:32Z</time>
      </trkpt>
      <trkpt lat="46.72444" lon="-1.95425">
        <ele>6.4</ele>
        <time>2020-06-04T08:37:33Z</time>
      </trkpt>
      <trkpt lat="46.72444" lon="-1.9543">
        <ele>6.4</ele>
        <time>2020-06-04T08:37:34Z</time>
      </trkpt>
      <trkpt lat="46.72445" lon="-1.95436">
        <ele>6.4</ele>
        <time>2020-06-04T08:37:35Z</time>
      </trkpt>
      <trkpt lat="46.72446" lon="-1.95442">
        <ele>6.5</ele>
        <time>2020-06-04T08:37:36Z</time>
      </trkpt>
      <trkpt lat="46.72446" lon="-1.95448">
        <ele>6.5</ele>
        <time>2020-06-04T08:37:37Z</time>
      </trkpt>
      <trkpt lat="46.72446" lon="-1.95455">
        <ele>6.5</ele>
        <time>2020-06-04T08:37:38Z</time>
      </trkpt>
      <trkpt lat="46.72447" lon="-1.95461">
        <ele>6.6</ele>
        <time>2020-06-04T08:37:39Z</time>
      </trkpt>
      <trkpt lat="46.72447" lon="-1.95468">
        <ele>6.6</ele>
        <time>2020-06-04T08:37:40Z</time>
      </trkpt>
      <trkpt lat="46.72449" lon="-1.95475">
        <ele>6.6</ele>
        <time>2020-06-04T08:37:41Z</time>
      </trkpt>
      <trkpt lat="46.72449" lon="-1.95482">
        <ele>6.6</ele>
        <time>2020-06-04T08:37:42Z</time>
      </trkpt>
      <trkpt lat="46.7245" lon="-1.95489">
        <ele>6.6</ele>
        <time>2020-06-04T08:37:43Z</time>
      </trkpt>
      <trkpt lat="46.7245" lon="-1.95496">
        <ele>6.7</ele>
        <time>2020-06-04T08:37:44Z</time>
      </trkpt>
      <trkpt lat="46.72449" lon="-1.95504">
        <ele>6.7</ele>
        <time>2020-06-04T08:37:45Z</time>
      </trkpt>
      <trkpt lat="46.72449" lon="-1.95511">
        <ele>6.7</ele>
        <time>2020-06-04T08:37:46Z</time>
      </trkpt>
      <trkpt lat="46.72448" lon="-1.95519">
        <ele>6.7</ele>
        <time>2020-06-04T08:37:47Z</time>
      </trkpt>
      <trkpt lat="46.72447" lon="-1.95526">
        <ele>6.7</ele>
        <time>2020-06-04T08:37:48Z</time>
      </trkpt>
      <trkpt lat="46.72448" lon="-1.95534">
        <ele>6.7</ele>
        <time>2020-06-04T08:37:49Z</time>
      </trkpt>
      <trkpt lat="46.72448" lon="-1.95542">
        <ele>6.7</ele>
        <time>2020-06-04T08:37:50Z</time>
      </trkpt>
      <trkpt lat="46.72447" lon="-1.9555">
        <ele>6.7</ele>
        <time>2020-06-04T08:37:51Z</time>
      </trkpt>
      <trkpt lat="46.72446" lon="-1.95557">
        <ele>6.7</ele>
        <time>2020-06-04T08:37:52Z</time>
      </trkpt>
      <trkpt lat="46.72446" lon="-1.95564">
        <ele>6.7</ele>
        <time>2020-06-04T08:37:53Z</time>
      </trkpt>
      <trkpt lat="46.72445" lon="-1.95571">
        <ele>6.7</ele>
        <time>2020-06-04T08:37:54Z</time>
      </trkpt>
      <trkpt lat="46.72444" lon="-1.95578">
        <ele>6.7</ele>
        <time>2020-06-04T08:37:55Z</time>
      </trkpt>
      <trkpt lat="46.72443" lon="-1.95585">
        <ele>6.7</ele>
        <time>2020-06-04T08:37:56Z</time>
      </trkpt>
      <trkpt lat="46.7244" lon="-1.95591">
        <ele>6.7</ele>
        <time>2020-06-04T08:37:57Z</time>
      </trkpt>
      <trkpt lat="46.72436" lon="-1.95596">
        <ele>6.8</ele>
        <time>2020-06-04T08:37:58Z</time>
      </trkpt>
      <trkpt lat="46.72431" lon="-1.956">
        <ele>6.8</ele>
        <time>2020-06-04T08:37:59Z</time>
      </trkpt>
      <trkpt lat="46.72427" lon="-1.95603">
        <ele>6.8</ele>
        <time>2020-06-04T08:38:00Z</time>
      </trkpt>
      <trkpt lat="46.72422" lon="-1.95606">
        <ele>6.8</ele>
        <time>2020-06-04T08:38:01Z</time>
      </trkpt>
      <trkpt lat="46.72417" lon="-1.95608">
        <ele>6.9</ele>
        <time>2020-06-04T08:38:02Z</time>
      </trkpt>
      <trkpt lat="46.72412" lon="-1.95609">
        <ele>6.9</ele>
        <time>2020-06-04T08:38:03Z</time>
      </trkpt>
      <trkpt lat="46.72407" lon="-1.9561">
        <ele>6.9</ele>
        <time>2020-06-04T08:38:04Z</time>
      </trkpt>
      <trkpt lat="46.72401" lon="-1.95611">
        <ele>7</ele>
        <time>2020-06-04T08:38:05Z</time>
      </trkpt>
      <trkpt lat="46.72396" lon="-1.95613">
        <ele>7</ele>
        <time>2020-06-04T08:38:06Z</time>
      </trkpt>
      <trkpt lat="46.72392" lon="-1.95613">
        <ele>7</ele>
        <time>2020-06-04T08:38:07Z</time>
      </trkpt>
      <trkpt lat="46.72387" lon="-1.95614">
        <ele>7</ele>
        <time>2020-06-04T08:38:08Z</time>
      </trkpt>
      <trkpt lat="46.72382" lon="-1.95614">
        <ele>7.1</ele>
        <time>2020-06-04T08:38:09Z</time>
      </trkpt>
      <trkpt lat="46.72377" lon="-1.95614">
        <ele>7.2</ele>
        <time>2020-06-04T08:38:10Z</time>
      </trkpt>
      <trkpt lat="46.72372" lon="-1.95617">
        <ele>7.4</ele>
        <time>2020-06-04T08:38:11Z</time>
      </trkpt>
      <trkpt lat="46.72367" lon="-1.95617">
        <ele>7.6</ele>
        <time>2020-06-04T08:38:12Z</time>
      </trkpt>
      <trkpt lat="46.72362" lon="-1.95618">
        <ele>7.8</ele>
        <time>2020-06-04T08:38:13Z</time>
      </trkpt>
      <trkpt lat="46.72357" lon="-1.9562">
        <ele>8</ele>
        <time>2020-06-04T08:38:14Z</time>
      </trkpt>
      <trkpt lat="46.72352" lon="-1.95619">
        <ele>8.3</ele>
        <time>2020-06-04T08:38:15Z</time>
      </trkpt>
      <trkpt lat="46.72347" lon="-1.95619">
        <ele>8.5</ele>
        <time>2020-06-04T08:38:16Z</time>
      </trkpt>
      <trkpt lat="46.72342" lon="-1.95619">
        <ele>8.7</ele>
        <time>2020-06-04T08:38:17Z</time>
      </trkpt>
      <trkpt lat="46.72337" lon="-1.9562">
        <ele>8.9</ele>
        <time>2020-06-04T08:38:18Z</time>
      </trkpt>
      <trkpt lat="46.72332" lon="-1.95622">
        <ele>9.1</ele>
        <time>2020-06-04T08:38:19Z</time>
      </trkpt>
      <trkpt lat="46.72327" lon="-1.95624">
        <ele>9.3</ele>
        <time>2020-06-04T08:38:20Z</time>
      </trkpt>
      <trkpt lat="46.72322" lon="-1.95626">
        <ele>9.5</ele>
        <time>2020-06-04T08:38:21Z</time>
      </trkpt>
      <trkpt lat="46.72317" lon="-1.95626">
        <ele>9.7</ele>
        <time>2020-06-04T08:38:22Z</time>
      </trkpt>
      <trkpt lat="46.72313" lon="-1.95626">
        <ele>9.8</ele>
        <time>2020-06-04T08:38:23Z</time>
      </trkpt>
      <trkpt lat="46.72308" lon="-1.95626">
        <ele>9.9</ele>
        <time>2020-06-04T08:38:24Z</time>
      </trkpt>
      <trkpt lat="46.72303" lon="-1.95625">
        <ele>9.9</ele>
        <time>2020-06-04T08:38:25Z</time>
      </trkpt>
      <trkpt lat="46.72298" lon="-1.95625">
        <ele>9.9</ele>
        <time>2020-06-04T08:38:26Z</time>
      </trkpt>
      <trkpt lat="46.72294" lon="-1.95627">
        <ele>9.9</ele>
        <time>2020-06-04T08:38:27Z</time>
      </trkpt>
      <trkpt lat="46.72289" lon="-1.95628">
        <ele>9.9</ele>
        <time>2020-06-04T08:38:28Z</time>
      </trkpt>
      <trkpt lat="46.72285" lon="-1.95629">
        <ele>10</ele>
        <time>2020-06-04T08:38:29Z</time>
      </trkpt>
      <trkpt lat="46.7228" lon="-1.95629">
        <ele>10</ele>
        <time>2020-06-04T08:38:30Z</time>
      </trkpt>
      <trkpt lat="46.72275" lon="-1.95628">
        <ele>10.1</ele>
        <time>2020-06-04T08:38:31Z</time>
      </trkpt>
      <trkpt lat="46.7227" lon="-1.95626">
        <ele>10.2</ele>
        <time>2020-06-04T08:38:32Z</time>
      </trkpt>
      <trkpt lat="46.72266" lon="-1.95627">
        <ele>10.3</ele>
        <time>2020-06-04T08:38:33Z</time>
      </trkpt>
      <trkpt lat="46.72261" lon="-1.95627">
        <ele>10.3</ele>
        <time>2020-06-04T08:38:34Z</time>
      </trkpt>
      <trkpt lat="46.72256" lon="-1.95628">
        <ele>10.4</ele>
        <time>2020-06-04T08:38:35Z</time>
      </trkpt>
      <trkpt lat="46.72252" lon="-1.9563">
        <ele>10.5</ele>
        <time>2020-06-04T08:38:36Z</time>
      </trkpt>
      <trkpt lat="46.72247" lon="-1.95634">
        <ele>10.5</ele>
        <time>2020-06-04T08:38:37Z</time>
      </trkpt>
      <trkpt lat="46.72242" lon="-1.95636">
        <ele>10.6</ele>
        <time>2020-06-04T08:38:38Z</time>
      </trkpt>
      <trkpt lat="46.72238" lon="-1.95637">
        <ele>10.6</ele>
        <time>2020-06-04T08:38:39Z</time>
      </trkpt>
      <trkpt lat="46.72233" lon="-1.95639">
        <ele>10.6</ele>
        <time>2020-06-04T08:38:40Z</time>
      </trkpt>
      <trkpt lat="46.72228" lon="-1.95641">
        <ele>10.7</ele>
        <time>2020-06-04T08:38:41Z</time>
      </trkpt>
      <trkpt lat="46.72223" lon="-1.95643">
        <ele>10.7</ele>
        <time>2020-06-04T08:38:42Z</time>
      </trkpt>
      <trkpt lat="46.72218" lon="-1.95645">
        <ele>10.7</ele>
        <time>2020-06-04T08:38:43Z</time>
      </trkpt>
      <trkpt lat="46.72214" lon="-1.95649">
        <ele>10.7</ele>
        <time>2020-06-04T08:38:44Z</time>
      </trkpt>
      <trkpt lat="46.72209" lon="-1.95652">
        <ele>10.8</ele>
        <time>2020-06-04T08:38:45Z</time>
      </trkpt>
      <trkpt lat="46.72205" lon="-1.95656">
        <ele>10.9</ele>
        <time>2020-06-04T08:38:46Z</time>
      </trkpt>
      <trkpt lat="46.72202" lon="-1.9566">
        <ele>11</ele>
        <time>2020-06-04T08:38:47Z</time>
      </trkpt>
      <trkpt lat="46.72198" lon="-1.95664">
        <ele>11</ele>
        <time>2020-06-04T08:38:48Z</time>
      </trkpt>
      <trkpt lat="46.72194" lon="-1.9567">
        <ele>11.1</ele>
        <time>2020-06-04T08:38:49Z</time>
      </trkpt>
      <trkpt lat="46.72191" lon="-1.95674">
        <ele>11.2</ele>
        <time>2020-06-04T08:38:50Z</time>
      </trkpt>
      <trkpt lat="46.72187" lon="-1.9568">
        <ele>11.2</ele>
        <time>2020-06-04T08:38:51Z</time>
      </trkpt>
      <trkpt lat="46.72183" lon="-1.95684">
        <ele>11.3</ele>
        <time>2020-06-04T08:38:52Z</time>
      </trkpt>
      <trkpt lat="46.72179" lon="-1.95689">
        <ele>11.4</ele>
        <time>2020-06-04T08:38:53Z</time>
      </trkpt>
      <trkpt lat="46.72176" lon="-1.95694">
        <ele>11.4</ele>
        <time>2020-06-04T08:38:54Z</time>
      </trkpt>
      <trkpt lat="46.72172" lon="-1.95699">
        <ele>11.5</ele>
        <time>2020-06-04T08:38:55Z</time>
      </trkpt>
      <trkpt lat="46.72169" lon="-1.95704">
        <ele>11.5</ele>
        <time>2020-06-04T08:38:56Z</time>
      </trkpt>
      <trkpt lat="46.72165" lon="-1.95708">
        <ele>11.6</ele>
        <time>2020-06-04T08:38:57Z</time>
      </trkpt>
      <trkpt lat="46.72162" lon="-1.95713">
        <ele>11.6</ele>
        <time>2020-06-04T08:38:58Z</time>
      </trkpt>
      <trkpt lat="46.72159" lon="-1.95718">
        <ele>11.7</ele>
        <time>2020-06-04T08:38:59Z</time>
      </trkpt>
      <trkpt lat="46.72155" lon="-1.95723">
        <ele>11.8</ele>
        <time>2020-06-04T08:39:00Z</time>
      </trkpt>
      <trkpt lat="46.72152" lon="-1.95727">
        <ele>11.8</ele>
        <time>2020-06-04T08:39:01Z</time>
      </trkpt>
      <trkpt lat="46.72148" lon="-1.95733">
        <ele>11.9</ele>
        <time>2020-06-04T08:39:02Z</time>
      </trkpt>
      <trkpt lat="46.72144" lon="-1.95737">
        <ele>12</ele>
        <time>2020-06-04T08:39:03Z</time>
      </trkpt>
      <trkpt lat="46.72139" lon="-1.95741">
        <ele>12</ele>
        <time>2020-06-04T08:39:04Z</time>
      </trkpt>
      <trkpt lat="46.72135" lon="-1.95746">
        <ele>12.1</ele>
        <time>2020-06-04T08:39:05Z</time>
      </trkpt>
      <trkpt lat="46.7213" lon="-1.95751">
        <ele>12.1</ele>
        <time>2020-06-04T08:39:06Z</time>
      </trkpt>
      <trkpt lat="46.72126" lon="-1.95755">
        <ele>12.1</ele>
        <time>2020-06-04T08:39:07Z</time>
      </trkpt>
      <trkpt lat="46.72122" lon="-1.9576">
        <ele>12.2</ele>
        <time>2020-06-04T08:39:08Z</time>
      </trkpt>
      <trkpt lat="46.72117" lon="-1.95765">
        <ele>12.2</ele>
        <time>2020-06-04T08:39:09Z</time>
      </trkpt>
      <trkpt lat="46.72113" lon="-1.95769">
        <ele>12.2</ele>
        <time>2020-06-04T08:39:10Z</time>
      </trkpt>
      <trkpt lat="46.7211" lon="-1.95774">
        <ele>12.2</ele>
        <time>2020-06-04T08:39:11Z</time>
      </trkpt>
      <trkpt lat="46.72106" lon="-1.9578">
        <ele>12.3</ele>
        <time>2020-06-04T08:39:12Z</time>
      </trkpt>
      <trkpt lat="46.72102" lon="-1.95785">
        <ele>12.3</ele>
        <time>2020-06-04T08:39:13Z</time>
      </trkpt>
      <trkpt lat="46.72099" lon="-1.9579">
        <ele>12.4</ele>
        <time>2020-06-04T08:39:14Z</time>
      </trkpt>
      <trkpt lat="46.72095" lon="-1.95796">
        <ele>12.4</ele>
        <time>2020-06-04T08:39:15Z</time>
      </trkpt>
      <trkpt lat="46.72092" lon="-1.958">
        <ele>12.5</ele>
        <time>2020-06-04T08:39:16Z</time>
      </trkpt>
      <trkpt lat="46.72089" lon="-1.95807">
        <ele>12.5</ele>
        <time>2020-06-04T08:39:17Z</time>
      </trkpt>
      <trkpt lat="46.72087" lon="-1.95813">
        <ele>12.6</ele>
        <time>2020-06-04T08:39:18Z</time>
      </trkpt>
      <trkpt lat="46.72084" lon="-1.95819">
        <ele>12.6</ele>
        <time>2020-06-04T08:39:19Z</time>
      </trkpt>
      <trkpt lat="46.72082" lon="-1.95825">
        <ele>12.6</ele>
        <time>2020-06-04T08:39:20Z</time>
      </trkpt>
      <trkpt lat="46.7208" lon="-1.95831">
        <ele>12.6</ele>
        <time>2020-06-04T08:39:21Z</time>
      </trkpt>
      <trkpt lat="46.72078" lon="-1.95837">
        <ele>12.7</ele>
        <time>2020-06-04T08:39:22Z</time>
      </trkpt>
      <trkpt lat="46.72076" lon="-1.95844">
        <ele>12.7</ele>
        <time>2020-06-04T08:39:23Z</time>
      </trkpt>
      <trkpt lat="46.72073" lon="-1.95851">
        <ele>12.7</ele>
        <time>2020-06-04T08:39:24Z</time>
      </trkpt>
      <trkpt lat="46.72071" lon="-1.95858">
        <ele>12.8</ele>
        <time>2020-06-04T08:39:25Z</time>
      </trkpt>
      <trkpt lat="46.72069" lon="-1.95864">
        <ele>12.8</ele>
        <time>2020-06-04T08:39:26Z</time>
      </trkpt>
      <trkpt lat="46.72067" lon="-1.95871">
        <ele>12.8</ele>
        <time>2020-06-04T08:39:27Z</time>
      </trkpt>
      <trkpt lat="46.72065" lon="-1.95878">
        <ele>12.9</ele>
        <time>2020-06-04T08:39:28Z</time>
      </trkpt>
      <trkpt lat="46.72063" lon="-1.95885">
        <ele>12.9</ele>
        <time>2020-06-04T08:39:29Z</time>
      </trkpt>
      <trkpt lat="46.72061" lon="-1.95893">
        <ele>13</ele>
        <time>2020-06-04T08:39:30Z</time>
      </trkpt>
      <trkpt lat="46.7206" lon="-1.959">
        <ele>13</ele>
        <time>2020-06-04T08:39:31Z</time>
      </trkpt>
      <trkpt lat="46.72058" lon="-1.95906">
        <ele>13.1</ele>
        <time>2020-06-04T08:39:32Z</time>
      </trkpt>
      <trkpt lat="46.72055" lon="-1.95913">
        <ele>13.1</ele>
        <time>2020-06-04T08:39:33Z</time>
      </trkpt>
      <trkpt lat="46.72053" lon="-1.9592">
        <ele>13.2</ele>
        <time>2020-06-04T08:39:34Z</time>
      </trkpt>
      <trkpt lat="46.72051" lon="-1.95927">
        <ele>13.2</ele>
        <time>2020-06-04T08:39:35Z</time>
      </trkpt>
      <trkpt lat="46.7205" lon="-1.95934">
        <ele>13.3</ele>
        <time>2020-06-04T08:39:36Z</time>
      </trkpt>
      <trkpt lat="46.72048" lon="-1.95941">
        <ele>13.3</ele>
        <time>2020-06-04T08:39:37Z</time>
      </trkpt>
      <trkpt lat="46.72047" lon="-1.95947">
        <ele>13.4</ele>
        <time>2020-06-04T08:39:38Z</time>
      </trkpt>
      <trkpt lat="46.72045" lon="-1.95954">
        <ele>13.4</ele>
        <time>2020-06-04T08:39:39Z</time>
      </trkpt>
      <trkpt lat="46.72043" lon="-1.9596">
        <ele>13.5</ele>
        <time>2020-06-04T08:39:40Z</time>
      </trkpt>
      <trkpt lat="46.72041" lon="-1.95967">
        <ele>13.6</ele>
        <time>2020-06-04T08:39:41Z</time>
      </trkpt>
      <trkpt lat="46.72038" lon="-1.95973">
        <ele>13.6</ele>
        <time>2020-06-04T08:39:42Z</time>
      </trkpt>
      <trkpt lat="46.72035" lon="-1.95979">
        <ele>13.7</ele>
        <time>2020-06-04T08:39:43Z</time>
      </trkpt>
      <trkpt lat="46.72033" lon="-1.95985">
        <ele>13.8</ele>
        <time>2020-06-04T08:39:44Z</time>
      </trkpt>
      <trkpt lat="46.72031" lon="-1.95992">
        <ele>13.8</ele>
        <time>2020-06-04T08:39:45Z</time>
      </trkpt>
      <trkpt lat="46.72029" lon="-1.95999">
        <ele>13.9</ele>
        <time>2020-06-04T08:39:46Z</time>
      </trkpt>
      <trkpt lat="46.72027" lon="-1.96006">
        <ele>13.9</ele>
        <time>2020-06-04T08:39:47Z</time>
      </trkpt>
      <trkpt lat="46.72026" lon="-1.96014">
        <ele>13.9</ele>
        <time>2020-06-04T08:39:48Z</time>
      </trkpt>
      <trkpt lat="46.72025" lon="-1.96022">
        <ele>13.9</ele>
        <time>2020-06-04T08:39:49Z</time>
      </trkpt>
      <trkpt lat="46.72024" lon="-1.9603">
        <ele>13.9</ele>
        <time>2020-06-04T08:39:50Z</time>
      </trkpt>
      <trkpt lat="46.72022" lon="-1.96037">
        <ele>13.9</ele>
        <time>2020-06-04T08:39:51Z</time>
      </trkpt>
      <trkpt lat="46.7202" lon="-1.96046">
        <ele>13.8</ele>
        <time>2020-06-04T08:39:52Z</time>
      </trkpt>
      <trkpt lat="46.72019" lon="-1.96054">
        <ele>13.8</ele>
        <time>2020-06-04T08:39:53Z</time>
      </trkpt>
      <trkpt lat="46.72017" lon="-1.96062">
        <ele>13.7</ele>
        <time>2020-06-04T08:39:54Z</time>
      </trkpt>
      <trkpt lat="46.72015" lon="-1.9607">
        <ele>13.7</ele>
        <time>2020-06-04T08:39:55Z</time>
      </trkpt>
      <trkpt lat="46.72013" lon="-1.96079">
        <ele>13.6</ele>
        <time>2020-06-04T08:39:56Z</time>
      </trkpt>
      <trkpt lat="46.72011" lon="-1.96087">
        <ele>13.6</ele>
        <time>2020-06-04T08:39:57Z</time>
      </trkpt>
      <trkpt lat="46.72009" lon="-1.96095">
        <ele>13.6</ele>
        <time>2020-06-04T08:39:58Z</time>
      </trkpt>
      <trkpt lat="46.72006" lon="-1.96102">
        <ele>13.5</ele>
        <time>2020-06-04T08:39:59Z</time>
      </trkpt>
      <trkpt lat="46.72003" lon="-1.96109">
        <ele>13.5</ele>
        <time>2020-06-04T08:40:00Z</time>
      </trkpt>
      <trkpt lat="46.72" lon="-1.96117">
        <ele>13.5</ele>
        <time>2020-06-04T08:40:01Z</time>
      </trkpt>
      <trkpt lat="46.71997" lon="-1.96125">
        <ele>13.5</ele>
        <time>2020-06-04T08:40:02Z</time>
      </trkpt>
      <trkpt lat="46.71995" lon="-1.96133">
        <ele>13.4</ele>
        <time>2020-06-04T08:40:03Z</time>
      </trkpt>
      <trkpt lat="46.71994" lon="-1.96141">
        <ele>13.4</ele>
        <time>2020-06-04T08:40:04Z</time>
      </trkpt>
      <trkpt lat="46.71991" lon="-1.96149">
        <ele>13.3</ele>
        <time>2020-06-04T08:40:05Z</time>
      </trkpt>
      <trkpt lat="46.71989" lon="-1.96157">
        <ele>13.2</ele>
        <time>2020-06-04T08:40:06Z</time>
      </trkpt>
      <trkpt lat="46.71987" lon="-1.96165">
        <ele>13.1</ele>
        <time>2020-06-04T08:40:07Z</time>
      </trkpt>
      <trkpt lat="46.71986" lon="-1.96173">
        <ele>13.1</ele>
        <time>2020-06-04T08:40:08Z</time>
      </trkpt>
      <trkpt lat="46.71983" lon="-1.96181">
        <ele>13</ele>
        <time>2020-06-04T08:40:09Z</time>
      </trkpt>
      <trkpt lat="46.71982" lon="-1.96189">
        <ele>12.9</ele>
        <time>2020-06-04T08:40:10Z</time>
      </trkpt>
      <trkpt lat="46.7198" lon="-1.96197">
        <ele>12.8</ele>
        <time>2020-06-04T08:40:11Z</time>
      </trkpt>
      <trkpt lat="46.71978" lon="-1.96204">
        <ele>12.7</ele>
        <time>2020-06-04T08:40:12Z</time>
      </trkpt>
      <trkpt lat="46.71976" lon="-1.96211">
        <ele>12.7</ele>
        <time>2020-06-04T08:40:13Z</time>
      </trkpt>
      <trkpt lat="46.71974" lon="-1.96219">
        <ele>12.7</ele>
        <time>2020-06-04T08:40:14Z</time>
      </trkpt>
      <trkpt lat="46.71971" lon="-1.96226">
        <ele>12.6</ele>
        <time>2020-06-04T08:40:15Z</time>
      </trkpt>
      <trkpt lat="46.71969" lon="-1.96233">
        <ele>12.6</ele>
        <time>2020-06-04T08:40:16Z</time>
      </trkpt>
      <trkpt lat="46.71969" lon="-1.96243">
        <ele>12.6</ele>
        <time>2020-06-04T08:40:17Z</time>
      </trkpt>
      <trkpt lat="46.71967" lon="-1.9625">
        <ele>12.6</ele>
        <time>2020-06-04T08:40:18Z</time>
      </trkpt>
      <trkpt lat="46.71965" lon="-1.96256">
        <ele>12.7</ele>
        <time>2020-06-04T08:40:19Z</time>
      </trkpt>
      <trkpt lat="46.71962" lon="-1.96263">
        <ele>12.7</ele>
        <time>2020-06-04T08:40:20Z</time>
      </trkpt>
      <trkpt lat="46.7196" lon="-1.96271">
        <ele>12.6</ele>
        <time>2020-06-04T08:40:21Z</time>
      </trkpt>
      <trkpt lat="46.71957" lon="-1.96278">
        <ele>12.6</ele>
        <time>2020-06-04T08:40:22Z</time>
      </trkpt>
      <trkpt lat="46.71953" lon="-1.96285">
        <ele>12.6</ele>
        <time>2020-06-04T08:40:23Z</time>
      </trkpt>
      <trkpt lat="46.7195" lon="-1.96291">
        <ele>12.5</ele>
        <time>2020-06-04T08:40:24Z</time>
      </trkpt>
      <trkpt lat="46.71946" lon="-1.96297">
        <ele>12.5</ele>
        <time>2020-06-04T08:40:25Z</time>
      </trkpt>
      <trkpt lat="46.71943" lon="-1.96303">
        <ele>12.5</ele>
        <time>2020-06-04T08:40:26Z</time>
      </trkpt>
      <trkpt lat="46.71939" lon="-1.96308">
        <ele>12.5</ele>
        <time>2020-06-04T08:40:27Z</time>
      </trkpt>
      <trkpt lat="46.71935" lon="-1.96314">
        <ele>12.5</ele>
        <time>2020-06-04T08:40:28Z</time>
      </trkpt>
      <trkpt lat="46.7193" lon="-1.96319">
        <ele>12.5</ele>
        <time>2020-06-04T08:40:29Z</time>
      </trkpt>
      <trkpt lat="46.71926" lon="-1.96325">
        <ele>12.5</ele>
        <time>2020-06-04T08:40:30Z</time>
      </trkpt>
      <trkpt lat="46.71922" lon="-1.96331">
        <ele>12.5</ele>
        <time>2020-06-04T08:40:31Z</time>
      </trkpt>
      <trkpt lat="46.71919" lon="-1.96337">
        <ele>12.5</ele>
        <time>2020-06-04T08:40:32Z</time>
      </trkpt>
      <trkpt lat="46.71916" lon="-1.96344">
        <ele>12.5</ele>
        <time>2020-06-04T08:40:33Z</time>
      </trkpt>
      <trkpt lat="46.71912" lon="-1.96351">
        <ele>12.5</ele>
        <time>2020-06-04T08:40:34Z</time>
      </trkpt>
      <trkpt lat="46.71908" lon="-1.96356">
        <ele>12.5</ele>
        <time>2020-06-04T08:40:35Z</time>
      </trkpt>
      <trkpt lat="46.71903" lon="-1.9636">
        <ele>12.5</ele>
        <time>2020-06-04T08:40:36Z</time>
      </trkpt>
      <trkpt lat="46.719" lon="-1.96365">
        <ele>12.5</ele>
        <time>2020-06-04T08:40:37Z</time>
      </trkpt>
      <trkpt lat="46.71897" lon="-1.9637">
        <ele>12.5</ele>
        <time>2020-06-04T08:40:38Z</time>
      </trkpt>
      <trkpt lat="46.71895" lon="-1.96375">
        <ele>12.5</ele>
        <time>2020-06-04T08:40:39Z</time>
      </trkpt>
      <trkpt lat="46.71892" lon="-1.9638">
        <ele>12.5</ele>
        <time>2020-06-04T08:40:40Z</time>
      </trkpt>
      <trkpt lat="46.7189" lon="-1.96386">
        <ele>12.5</ele>
        <time>2020-06-04T08:40:41Z</time>
      </trkpt>
      <trkpt lat="46.71887" lon="-1.96391">
        <ele>12.5</ele>
        <time>2020-06-04T08:40:42Z</time>
      </trkpt>
      <trkpt lat="46.71884" lon="-1.96396">
        <ele>12.5</ele>
        <time>2020-06-04T08:40:43Z</time>
      </trkpt>
      <trkpt lat="46.71882" lon="-1.96401">
        <ele>12.5</ele>
        <time>2020-06-04T08:40:44Z</time>
      </trkpt>
      <trkpt lat="46.7188" lon="-1.96407">
        <ele>12.6</ele>
        <time>2020-06-04T08:40:45Z</time>
      </trkpt>
      <trkpt lat="46.71878" lon="-1.96412">
        <ele>12.5</ele>
        <time>2020-06-04T08:40:46Z</time>
      </trkpt>
      <trkpt lat="46.71875" lon="-1.96417">
        <ele>12.5</ele>
        <time>2020-06-04T08:40:47Z</time>
      </trkpt>
      <trkpt lat="46.71872" lon="-1.96422">
        <ele>12.5</ele>
        <time>2020-06-04T08:40:48Z</time>
      </trkpt>
      <trkpt lat="46.7187" lon="-1.96428">
        <ele>12.5</ele>
        <time>2020-06-04T08:40:49Z</time>
      </trkpt>
      <trkpt lat="46.71869" lon="-1.96435">
        <ele>12.5</ele>
        <time>2020-06-04T08:40:50Z</time>
      </trkpt>
      <trkpt lat="46.71867" lon="-1.96442">
        <ele>12.5</ele>
        <time>2020-06-04T08:40:51Z</time>
      </trkpt>
      <trkpt lat="46.71866" lon="-1.96449">
        <ele>12.5</ele>
        <time>2020-06-04T08:40:52Z</time>
      </trkpt>
      <trkpt lat="46.71865" lon="-1.96456">
        <ele>12.5</ele>
        <time>2020-06-04T08:40:53Z</time>
      </trkpt>
      <trkpt lat="46.71866" lon="-1.96463">
        <ele>12.5</ele>
        <time>2020-06-04T08:40:54Z</time>
      </trkpt>
      <trkpt lat="46.71866" lon="-1.96471">
        <ele>12.5</ele>
        <time>2020-06-04T08:40:55Z</time>
      </trkpt>
      <trkpt lat="46.71865" lon="-1.96477">
        <ele>12.5</ele>
        <time>2020-06-04T08:40:56Z</time>
      </trkpt>
      <trkpt lat="46.71865" lon="-1.96484">
        <ele>12.4</ele>
        <time>2020-06-04T08:40:57Z</time>
      </trkpt>
      <trkpt lat="46.71864" lon="-1.96489">
        <ele>12.4</ele>
        <time>2020-06-04T08:40:58Z</time>
      </trkpt>
      <trkpt lat="46.71862" lon="-1.96495">
        <ele>12.4</ele>
        <time>2020-06-04T08:40:59Z</time>
      </trkpt>
      <trkpt lat="46.71861" lon="-1.965">
        <ele>12.4</ele>
        <time>2020-06-04T08:41:00Z</time>
      </trkpt>
      <trkpt lat="46.7186" lon="-1.96506">
        <ele>12.4</ele>
        <time>2020-06-04T08:41:01Z</time>
      </trkpt>
      <trkpt lat="46.71859" lon="-1.96512">
        <ele>12.4</ele>
        <time>2020-06-04T08:41:02Z</time>
      </trkpt>
      <trkpt lat="46.71857" lon="-1.96518">
        <ele>12.4</ele>
        <time>2020-06-04T08:41:03Z</time>
      </trkpt>
      <trkpt lat="46.71855" lon="-1.96524">
        <ele>12.4</ele>
        <time>2020-06-04T08:41:04Z</time>
      </trkpt>
      <trkpt lat="46.71854" lon="-1.96531">
        <ele>12.3</ele>
        <time>2020-06-04T08:41:05Z</time>
      </trkpt>
      <trkpt lat="46.71853" lon="-1.96538">
        <ele>12.3</ele>
        <time>2020-06-04T08:41:06Z</time>
      </trkpt>
      <trkpt lat="46.71852" lon="-1.96544">
        <ele>12.3</ele>
        <time>2020-06-04T08:41:07Z</time>
      </trkpt>
      <trkpt lat="46.71852" lon="-1.96551">
        <ele>12.3</ele>
        <time>2020-06-04T08:41:08Z</time>
      </trkpt>
      <trkpt lat="46.71851" lon="-1.96557">
        <ele>12.3</ele>
        <time>2020-06-04T08:41:09Z</time>
      </trkpt>
      <trkpt lat="46.71851" lon="-1.96564">
        <ele>12.3</ele>
        <time>2020-06-04T08:41:10Z</time>
      </trkpt>
      <trkpt lat="46.71851" lon="-1.96571">
        <ele>12.3</ele>
        <time>2020-06-04T08:41:11Z</time>
      </trkpt>
      <trkpt lat="46.71851" lon="-1.96578">
        <ele>12.3</ele>
        <time>2020-06-04T08:41:12Z</time>
      </trkpt>
      <trkpt lat="46.71851" lon="-1.96585">
        <ele>12.3</ele>
        <time>2020-06-04T08:41:13Z</time>
      </trkpt>
      <trkpt lat="46.71852" lon="-1.96592">
        <ele>12.4</ele>
        <time>2020-06-04T08:41:14Z</time>
      </trkpt>
      <trkpt lat="46.71852" lon="-1.966">
        <ele>12.4</ele>
        <time>2020-06-04T08:41:15Z</time>
      </trkpt>
      <trkpt lat="46.71851" lon="-1.96607">
        <ele>12.4</ele>
        <time>2020-06-04T08:41:16Z</time>
      </trkpt>
      <trkpt lat="46.71849" lon="-1.96614">
        <ele>12.5</ele>
        <time>2020-06-04T08:41:17Z</time>
      </trkpt>
      <trkpt lat="46.7185" lon="-1.9662">
        <ele>12.5</ele>
        <time>2020-06-04T08:41:18Z</time>
      </trkpt>
      <trkpt lat="46.71851" lon="-1.96627">
        <ele>12.5</ele>
        <time>2020-06-04T08:41:19Z</time>
      </trkpt>
      <trkpt lat="46.71851" lon="-1.96635">
        <ele>12.5</ele>
        <time>2020-06-04T08:41:20Z</time>
      </trkpt>
      <trkpt lat="46.71852" lon="-1.96642">
        <ele>12.5</ele>
        <time>2020-06-04T08:41:21Z</time>
      </trkpt>
      <trkpt lat="46.71851" lon="-1.9665">
        <ele>12.5</ele>
        <time>2020-06-04T08:41:22Z</time>
      </trkpt>
      <trkpt lat="46.71852" lon="-1.96657">
        <ele>12.5</ele>
        <time>2020-06-04T08:41:23Z</time>
      </trkpt>
      <trkpt lat="46.71852" lon="-1.96664">
        <ele>12.5</ele>
        <time>2020-06-04T08:41:24Z</time>
      </trkpt>
      <trkpt lat="46.71853" lon="-1.96671">
        <ele>12.5</ele>
        <time>2020-06-04T08:41:25Z</time>
      </trkpt>
      <trkpt lat="46.71853" lon="-1.96678">
        <ele>12.5</ele>
        <time>2020-06-04T08:41:26Z</time>
      </trkpt>
      <trkpt lat="46.71853" lon="-1.96685">
        <ele>12.5</ele>
        <time>2020-06-04T08:41:27Z</time>
      </trkpt>
      <trkpt lat="46.71853" lon="-1.96691">
        <ele>12.5</ele>
        <time>2020-06-04T08:41:28Z</time>
      </trkpt>
      <trkpt lat="46.71854" lon="-1.96698">
        <ele>12.5</ele>
        <time>2020-06-04T08:41:29Z</time>
      </trkpt>
      <trkpt lat="46.71855" lon="-1.96705">
        <ele>12.5</ele>
        <time>2020-06-04T08:41:30Z</time>
      </trkpt>
      <trkpt lat="46.71854" lon="-1.96711">
        <ele>12.5</ele>
        <time>2020-06-04T08:41:31Z</time>
      </trkpt>
      <trkpt lat="46.71854" lon="-1.96718">
        <ele>12.5</ele>
        <time>2020-06-04T08:41:32Z</time>
      </trkpt>
      <trkpt lat="46.71855" lon="-1.96724">
        <ele>12.4</ele>
        <time>2020-06-04T08:41:33Z</time>
      </trkpt>
      <trkpt lat="46.71855" lon="-1.9673">
        <ele>12.4</ele>
        <time>2020-06-04T08:41:34Z</time>
      </trkpt>
      <trkpt lat="46.71856" lon="-1.96736">
        <ele>12.4</ele>
        <time>2020-06-04T08:41:35Z</time>
      </trkpt>
      <trkpt lat="46.71857" lon="-1.96742">
        <ele>12.4</ele>
        <time>2020-06-04T08:41:36Z</time>
      </trkpt>
      <trkpt lat="46.71858" lon="-1.96747">
        <ele>12.3</ele>
        <time>2020-06-04T08:41:37Z</time>
      </trkpt>
      <trkpt lat="46.71859" lon="-1.96752">
        <ele>12.3</ele>
        <time>2020-06-04T08:41:38Z</time>
      </trkpt>
      <trkpt lat="46.71859" lon="-1.96757">
        <ele>12.3</ele>
        <time>2020-06-04T08:41:39Z</time>
      </trkpt>
      <trkpt lat="46.7186" lon="-1.96762">
        <ele>12.2</ele>
        <time>2020-06-04T08:41:40Z</time>
      </trkpt>
      <trkpt lat="46.7186" lon="-1.96766">
        <ele>12.2</ele>
        <time>2020-06-04T08:41:41Z</time>
      </trkpt>
      <trkpt lat="46.7186" lon="-1.96771">
        <ele>12.2</ele>
        <time>2020-06-04T08:41:42Z</time>
      </trkpt>
      <trkpt lat="46.7186" lon="-1.96776">
        <ele>12.2</ele>
        <time>2020-06-04T08:41:43Z</time>
      </trkpt>
      <trkpt lat="46.71859" lon="-1.9678">
        <ele>12.2</ele>
        <time>2020-06-04T08:41:44Z</time>
      </trkpt>
      <trkpt lat="46.71859" lon="-1.96786">
        <ele>12.2</ele>
        <time>2020-06-04T08:41:45Z</time>
      </trkpt>
      <trkpt lat="46.71861" lon="-1.96791">
        <ele>12.2</ele>
        <time>2020-06-04T08:41:46Z</time>
      </trkpt>
      <trkpt lat="46.71862" lon="-1.96796">
        <ele>12.2</ele>
        <time>2020-06-04T08:41:47Z</time>
      </trkpt>
      <trkpt lat="46.71864" lon="-1.968">
        <ele>12.2</ele>
        <time>2020-06-04T08:41:48Z</time>
      </trkpt>
      <trkpt lat="46.71865" lon="-1.96806">
        <ele>12.1</ele>
        <time>2020-06-04T08:41:49Z</time>
      </trkpt>
      <trkpt lat="46.71866" lon="-1.96811">
        <ele>12.1</ele>
        <time>2020-06-04T08:41:50Z</time>
      </trkpt>
      <trkpt lat="46.71867" lon="-1.96817">
        <ele>12.1</ele>
        <time>2020-06-04T08:41:51Z</time>
      </trkpt>
      <trkpt lat="46.71869" lon="-1.96823">
        <ele>12.1</ele>
        <time>2020-06-04T08:41:52Z</time>
      </trkpt>
      <trkpt lat="46.71871" lon="-1.96828">
        <ele>12.1</ele>
        <time>2020-06-04T08:41:53Z</time>
      </trkpt>
      <trkpt lat="46.71872" lon="-1.96834">
        <ele>12.1</ele>
        <time>2020-06-04T08:41:54Z</time>
      </trkpt>
      <trkpt lat="46.71874" lon="-1.9684">
        <ele>12</ele>
        <time>2020-06-04T08:41:55Z</time>
      </trkpt>
      <trkpt lat="46.71875" lon="-1.96846">
        <ele>12</ele>
        <time>2020-06-04T08:41:56Z</time>
      </trkpt>
      <trkpt lat="46.71876" lon="-1.96852">
        <ele>12</ele>
        <time>2020-06-04T08:41:57Z</time>
      </trkpt>
      <trkpt lat="46.71875" lon="-1.96856">
        <ele>12</ele>
        <time>2020-06-04T08:41:58Z</time>
      </trkpt>
      <trkpt lat="46.71875" lon="-1.9686">
        <ele>11.9</ele>
        <time>2020-06-04T08:41:59Z</time>
      </trkpt>
      <trkpt lat="46.71874" lon="-1.96865">
        <ele>11.9</ele>
        <time>2020-06-04T08:42:00Z</time>
      </trkpt>
      <trkpt lat="46.71875" lon="-1.96869">
        <ele>11.8</ele>
        <time>2020-06-04T08:42:01Z</time>
      </trkpt>
      <trkpt lat="46.71876" lon="-1.96874">
        <ele>11.7</ele>
        <time>2020-06-04T08:42:02Z</time>
      </trkpt>
      <trkpt lat="46.71877" lon="-1.9688">
        <ele>11.6</ele>
        <time>2020-06-04T08:42:03Z</time>
      </trkpt>
      <trkpt lat="46.71878" lon="-1.96885">
        <ele>11.5</ele>
        <time>2020-06-04T08:42:04Z</time>
      </trkpt>
      <trkpt lat="46.71879" lon="-1.96889">
        <ele>11.5</ele>
        <time>2020-06-04T08:42:05Z</time>
      </trkpt>
      <trkpt lat="46.71879" lon="-1.96893">
        <ele>11.5</ele>
        <time>2020-06-04T08:42:06Z</time>
      </trkpt>
      <trkpt lat="46.7188" lon="-1.96894">
        <ele>11.5</ele>
        <time>2020-06-04T08:42:07Z</time>
      </trkpt>
      <trkpt lat="46.71879" lon="-1.96897">
        <ele>11.5</ele>
        <time>2020-06-04T08:42:08Z</time>
      </trkpt>
      <trkpt lat="46.71879" lon="-1.96899">
        <ele>11.5</ele>
        <time>2020-06-04T08:42:09Z</time>
      </trkpt>
      <trkpt lat="46.71881" lon="-1.96901">
        <ele>11.4</ele>
        <time>2020-06-04T08:42:10Z</time>
      </trkpt>
      <trkpt lat="46.71881" lon="-1.96903">
        <ele>11.4</ele>
        <time>2020-06-04T08:42:11Z</time>
      </trkpt>
      <trkpt lat="46.71882" lon="-1.96904">
        <ele>11.4</ele>
        <time>2020-06-04T08:42:12Z</time>
      </trkpt>
      <trkpt lat="46.71882" lon="-1.96905">
        <ele>11.4</ele>
        <time>2020-06-04T08:42:13Z</time>
      </trkpt>
      <trkpt lat="46.71882" lon="-1.96905">
        <ele>11.4</ele>
        <time>2020-06-04T08:42:14Z</time>
      </trkpt>
      <trkpt lat="46.71883" lon="-1.96906">
        <ele>11.4</ele>
        <time>2020-06-04T08:42:15Z</time>
      </trkpt>
      <trkpt lat="46.71883" lon="-1.96906">
        <ele>11.4</ele>
        <time>2020-06-04T08:42:16Z</time>
      </trkpt>
      <trkpt lat="46.71884" lon="-1.96907">
        <ele>11.4</ele>
        <time>2020-06-04T08:42:17Z</time>
      </trkpt>
      <trkpt lat="46.71884" lon="-1.96908">
        <ele>11.4</ele>
        <time>2020-06-04T08:42:18Z</time>
      </trkpt>
      <trkpt lat="46.71884" lon="-1.96908">
        <ele>11.4</ele>
        <time>2020-06-04T08:42:19Z</time>
      </trkpt>
      <trkpt lat="46.71885" lon="-1.96909">
        <ele>11.4</ele>
        <time>2020-06-04T08:42:20Z</time>
      </trkpt>
      <trkpt lat="46.71885" lon="-1.96909">
        <ele>11.4</ele>
        <time>2020-06-04T08:42:21Z</time>
      </trkpt>
      <trkpt lat="46.71886" lon="-1.9691">
        <ele>11.4</ele>
        <time>2020-06-04T08:42:22Z</time>
      </trkpt>
      <trkpt lat="46.71886" lon="-1.96911">
        <ele>11.4</ele>
        <time>2020-06-04T08:42:23Z</time>
      </trkpt>
      <trkpt lat="46.71887" lon="-1.96911">
        <ele>11.4</ele>
        <time>2020-06-04T08:42:32Z</time>
      </trkpt>
      <trkpt lat="46.71887" lon="-1.96912">
        <ele>11.4</ele>
        <time>2020-06-04T08:42:33Z</time>
      </trkpt>
      <trkpt lat="46.71889" lon="-1.96915">
        <ele>11.3</ele>
        <time>2020-06-04T08:42:34Z</time>
      </trkpt>
      <trkpt lat="46.71891" lon="-1.96919">
        <ele>11.3</ele>
        <time>2020-06-04T08:42:35Z</time>
      </trkpt>
      <trkpt lat="46.71893" lon="-1.96923">
        <ele>11.2</ele>
        <time>2020-06-04T08:42:36Z</time>
      </trkpt>
      <trkpt lat="46.71895" lon="-1.96927">
        <ele>11.2</ele>
        <time>2020-06-04T08:42:37Z</time>
      </trkpt>
      <trkpt lat="46.71897" lon="-1.96932">
        <ele>11.1</ele>
        <time>2020-06-04T08:42:38Z</time>
      </trkpt>
      <trkpt lat="46.719" lon="-1.96937">
        <ele>11</ele>
        <time>2020-06-04T08:42:39Z</time>
      </trkpt>
      <trkpt lat="46.71903" lon="-1.96942">
        <ele>11</ele>
        <time>2020-06-04T08:42:40Z</time>
      </trkpt>
      <trkpt lat="46.71906" lon="-1.96946">
        <ele>10.9</ele>
        <time>2020-06-04T08:42:41Z</time>
      </trkpt>
      <trkpt lat="46.71909" lon="-1.96951">
        <ele>10.8</ele>
        <time>2020-06-04T08:42:42Z</time>
      </trkpt>
      <trkpt lat="46.71912" lon="-1.96957">
        <ele>10.7</ele>
        <time>2020-06-04T08:42:43Z</time>
      </trkpt>
      <trkpt lat="46.71915" lon="-1.96963">
        <ele>10.5</ele>
        <time>2020-06-04T08:42:44Z</time>
      </trkpt>
      <trkpt lat="46.71918" lon="-1.96968">
        <ele>10.4</ele>
        <time>2020-06-04T08:42:45Z</time>
      </trkpt>
      <trkpt lat="46.7192" lon="-1.96974">
        <ele>10.3</ele>
        <time>2020-06-04T08:42:46Z</time>
      </trkpt>
      <trkpt lat="46.71923" lon="-1.96979">
        <ele>10.2</ele>
        <time>2020-06-04T08:42:47Z</time>
      </trkpt>
      <trkpt lat="46.71926" lon="-1.96985">
        <ele>10.1</ele>
        <time>2020-06-04T08:42:48Z</time>
      </trkpt>
      <trkpt lat="46.71928" lon="-1.96991">
        <ele>10</ele>
        <time>2020-06-04T08:42:49Z</time>
      </trkpt>
      <trkpt lat="46.71931" lon="-1.96996">
        <ele>10</ele>
        <time>2020-06-04T08:42:50Z</time>
      </trkpt>
      <trkpt lat="46.71934" lon="-1.97002">
        <ele>9.9</ele>
        <time>2020-06-04T08:42:51Z</time>
      </trkpt>
      <trkpt lat="46.71937" lon="-1.97008">
        <ele>9.8</ele>
        <time>2020-06-04T08:42:52Z</time>
      </trkpt>
      <trkpt lat="46.7194" lon="-1.97014">
        <ele>9.8</ele>
        <time>2020-06-04T08:42:53Z</time>
      </trkpt>
      <trkpt lat="46.71944" lon="-1.97019">
        <ele>9.8</ele>
        <time>2020-06-04T08:42:54Z</time>
      </trkpt>
      <trkpt lat="46.71947" lon="-1.97025">
        <ele>9.6</ele>
        <time>2020-06-04T08:42:55Z</time>
      </trkpt>
      <trkpt lat="46.71951" lon="-1.97031">
        <ele>9.6</ele>
        <time>2020-06-04T08:42:56Z</time>
      </trkpt>
      <trkpt lat="46.71955" lon="-1.97037">
        <ele>9.5</ele>
        <time>2020-06-04T08:42:57Z</time>
      </trkpt>
      <trkpt lat="46.71957" lon="-1.97043">
        <ele>9.4</ele>
        <time>2020-06-04T08:42:58Z</time>
      </trkpt>
      <trkpt lat="46.71961" lon="-1.9705">
        <ele>9.3</ele>
        <time>2020-06-04T08:42:59Z</time>
      </trkpt>
      <trkpt lat="46.71964" lon="-1.97056">
        <ele>9.2</ele>
        <time>2020-06-04T08:43:00Z</time>
      </trkpt>
      <trkpt lat="46.71968" lon="-1.97062">
        <ele>9.1</ele>
        <time>2020-06-04T08:43:01Z</time>
      </trkpt>
      <trkpt lat="46.71971" lon="-1.97068">
        <ele>9.1</ele>
        <time>2020-06-04T08:43:02Z</time>
      </trkpt>
      <trkpt lat="46.71974" lon="-1.97074">
        <ele>9</ele>
        <time>2020-06-04T08:43:03Z</time>
      </trkpt>
      <trkpt lat="46.71977" lon="-1.9708">
        <ele>8.9</ele>
        <time>2020-06-04T08:43:04Z</time>
      </trkpt>
      <trkpt lat="46.71979" lon="-1.97086">
        <ele>8.8</ele>
        <time>2020-06-04T08:43:05Z</time>
      </trkpt>
      <trkpt lat="46.71982" lon="-1.97092">
        <ele>8.8</ele>
        <time>2020-06-04T08:43:06Z</time>
      </trkpt>
      <trkpt lat="46.71984" lon="-1.97098">
        <ele>8.7</ele>
        <time>2020-06-04T08:43:07Z</time>
      </trkpt>
      <trkpt lat="46.71987" lon="-1.97104">
        <ele>8.6</ele>
        <time>2020-06-04T08:43:08Z</time>
      </trkpt>
      <trkpt lat="46.7199" lon="-1.9711">
        <ele>8.6</ele>
        <time>2020-06-04T08:43:09Z</time>
      </trkpt>
      <trkpt lat="46.71993" lon="-1.97116">
        <ele>8.6</ele>
        <time>2020-06-04T08:43:10Z</time>
      </trkpt>
      <trkpt lat="46.71996" lon="-1.97121">
        <ele>8.6</ele>
        <time>2020-06-04T08:43:11Z</time>
      </trkpt>
      <trkpt lat="46.71999" lon="-1.97128">
        <ele>8.5</ele>
        <time>2020-06-04T08:43:12Z</time>
      </trkpt>
      <trkpt lat="46.72002" lon="-1.97135">
        <ele>8.5</ele>
        <time>2020-06-04T08:43:13Z</time>
      </trkpt>
      <trkpt lat="46.72007" lon="-1.97141">
        <ele>8.4</ele>
        <time>2020-06-04T08:43:14Z</time>
      </trkpt>
      <trkpt lat="46.7201" lon="-1.97148">
        <ele>8.2</ele>
        <time>2020-06-04T08:43:15Z</time>
      </trkpt>
      <trkpt lat="46.72013" lon="-1.97154">
        <ele>8.1</ele>
        <time>2020-06-04T08:43:16Z</time>
      </trkpt>
      <trkpt lat="46.72017" lon="-1.97161">
        <ele>8</ele>
        <time>2020-06-04T08:43:17Z</time>
      </trkpt>
      <trkpt lat="46.7202" lon="-1.97169">
        <ele>7.9</ele>
        <time>2020-06-04T08:43:18Z</time>
      </trkpt>
      <trkpt lat="46.72025" lon="-1.97176">
        <ele>7.8</ele>
        <time>2020-06-04T08:43:19Z</time>
      </trkpt>
      <trkpt lat="46.72028" lon="-1.97184">
        <ele>7.7</ele>
        <time>2020-06-04T08:43:20Z</time>
      </trkpt>
      <trkpt lat="46.72032" lon="-1.97192">
        <ele>7.7</ele>
        <time>2020-06-04T08:43:21Z</time>
      </trkpt>
      <trkpt lat="46.72036" lon="-1.972">
        <ele>7.6</ele>
        <time>2020-06-04T08:43:22Z</time>
      </trkpt>
      <trkpt lat="46.72039" lon="-1.97208">
        <ele>7.5</ele>
        <time>2020-06-04T08:43:23Z</time>
      </trkpt>
      <trkpt lat="46.72043" lon="-1.97216">
        <ele>7.5</ele>
        <time>2020-06-04T08:43:24Z</time>
      </trkpt>
      <trkpt lat="46.72047" lon="-1.97224">
        <ele>7.4</ele>
        <time>2020-06-04T08:43:25Z</time>
      </trkpt>
      <trkpt lat="46.72051" lon="-1.97231">
        <ele>7.3</ele>
        <time>2020-06-04T08:43:26Z</time>
      </trkpt>
      <trkpt lat="46.72055" lon="-1.97238">
        <ele>7.2</ele>
        <time>2020-06-04T08:43:27Z</time>
      </trkpt>
      <trkpt lat="46.72059" lon="-1.97244">
        <ele>7.2</ele>
        <time>2020-06-04T08:43:28Z</time>
      </trkpt>
      <trkpt lat="46.72062" lon="-1.97251">
        <ele>7.1</ele>
        <time>2020-06-04T08:43:29Z</time>
      </trkpt>
      <trkpt lat="46.72066" lon="-1.97258">
        <ele>7</ele>
        <time>2020-06-04T08:43:30Z</time>
      </trkpt>
      <trkpt lat="46.72069" lon="-1.97265">
        <ele>7</ele>
        <time>2020-06-04T08:43:31Z</time>
      </trkpt>
      <trkpt lat="46.72072" lon="-1.97271">
        <ele>6.9</ele>
        <time>2020-06-04T08:43:32Z</time>
      </trkpt>
      <trkpt lat="46.72076" lon="-1.97276">
        <ele>6.9</ele>
        <time>2020-06-04T08:43:33Z</time>
      </trkpt>
      <trkpt lat="46.72079" lon="-1.97282">
        <ele>6.8</ele>
        <time>2020-06-04T08:43:34Z</time>
      </trkpt>
      <trkpt lat="46.72082" lon="-1.97289">
        <ele>6.8</ele>
        <time>2020-06-04T08:43:35Z</time>
      </trkpt>
      <trkpt lat="46.72086" lon="-1.97296">
        <ele>6.8</ele>
        <time>2020-06-04T08:43:36Z</time>
      </trkpt>
      <trkpt lat="46.72089" lon="-1.97303">
        <ele>6.7</ele>
        <time>2020-06-04T08:43:37Z</time>
      </trkpt>
      <trkpt lat="46.72093" lon="-1.9731">
        <ele>6.7</ele>
        <time>2020-06-04T08:43:38Z</time>
      </trkpt>
      <trkpt lat="46.72097" lon="-1.97318">
        <ele>6.7</ele>
        <time>2020-06-04T08:43:39Z</time>
      </trkpt>
      <trkpt lat="46.72101" lon="-1.97325">
        <ele>6.7</ele>
        <time>2020-06-04T08:43:40Z</time>
      </trkpt>
      <trkpt lat="46.72105" lon="-1.97332">
        <ele>6.6</ele>
        <time>2020-06-04T08:43:41Z</time>
      </trkpt>
      <trkpt lat="46.72109" lon="-1.97338">
        <ele>6.6</ele>
        <time>2020-06-04T08:43:42Z</time>
      </trkpt>
      <trkpt lat="46.72113" lon="-1.97345">
        <ele>6.6</ele>
        <time>2020-06-04T08:43:43Z</time>
      </trkpt>
      <trkpt lat="46.72117" lon="-1.97352">
        <ele>6.5</ele>
        <time>2020-06-04T08:43:44Z</time>
      </trkpt>
      <trkpt lat="46.72121" lon="-1.97357">
        <ele>6.5</ele>
        <time>2020-06-04T08:43:45Z</time>
      </trkpt>
      <trkpt lat="46.72125" lon="-1.97364">
        <ele>6.5</ele>
        <time>2020-06-04T08:43:46Z</time>
      </trkpt>
      <trkpt lat="46.72128" lon="-1.97372">
        <ele>6.5</ele>
        <time>2020-06-04T08:43:47Z</time>
      </trkpt>
      <trkpt lat="46.72132" lon="-1.97379">
        <ele>6.5</ele>
        <time>2020-06-04T08:43:48Z</time>
      </trkpt>
      <trkpt lat="46.72135" lon="-1.97386">
        <ele>6.4</ele>
        <time>2020-06-04T08:43:49Z</time>
      </trkpt>
      <trkpt lat="46.72138" lon="-1.97393">
        <ele>6.4</ele>
        <time>2020-06-04T08:43:50Z</time>
      </trkpt>
      <trkpt lat="46.72142" lon="-1.97399">
        <ele>6.4</ele>
        <time>2020-06-04T08:43:51Z</time>
      </trkpt>
      <trkpt lat="46.72146" lon="-1.97406">
        <ele>6.4</ele>
        <time>2020-06-04T08:43:52Z</time>
      </trkpt>
      <trkpt lat="46.7215" lon="-1.97413">
        <ele>6.4</ele>
        <time>2020-06-04T08:43:53Z</time>
      </trkpt>
      <trkpt lat="46.72153" lon="-1.9742">
        <ele>6.4</ele>
        <time>2020-06-04T08:43:54Z</time>
      </trkpt>
      <trkpt lat="46.72157" lon="-1.97428">
        <ele>6.4</ele>
        <time>2020-06-04T08:43:55Z</time>
      </trkpt>
      <trkpt lat="46.72161" lon="-1.97435">
        <ele>6.3</ele>
        <time>2020-06-04T08:43:56Z</time>
      </trkpt>
      <trkpt lat="46.72165" lon="-1.97442">
        <ele>6.3</ele>
        <time>2020-06-04T08:43:57Z</time>
      </trkpt>
      <trkpt lat="46.72169" lon="-1.97448">
        <ele>6.3</ele>
        <time>2020-06-04T08:43:58Z</time>
      </trkpt>
      <trkpt lat="46.72172" lon="-1.97455">
        <ele>6.3</ele>
        <time>2020-06-04T08:43:59Z</time>
      </trkpt>
      <trkpt lat="46.72176" lon="-1.97462">
        <ele>6.3</ele>
        <time>2020-06-04T08:44:00Z</time>
      </trkpt>
      <trkpt lat="46.72179" lon="-1.9747">
        <ele>6.2</ele>
        <time>2020-06-04T08:44:01Z</time>
      </trkpt>
      <trkpt lat="46.72184" lon="-1.97476">
        <ele>6.2</ele>
        <time>2020-06-04T08:44:02Z</time>
      </trkpt>
      <trkpt lat="46.72189" lon="-1.97482">
        <ele>6.2</ele>
        <time>2020-06-04T08:44:03Z</time>
      </trkpt>
      <trkpt lat="46.72194" lon="-1.97489">
        <ele>6.2</ele>
        <time>2020-06-04T08:44:04Z</time>
      </trkpt>
      <trkpt lat="46.72199" lon="-1.97496">
        <ele>6.2</ele>
        <time>2020-06-04T08:44:05Z</time>
      </trkpt>
      <trkpt lat="46.72205" lon="-1.97502">
        <ele>6.2</ele>
        <time>2020-06-04T08:44:06Z</time>
      </trkpt>
      <trkpt lat="46.72209" lon="-1.97509">
        <ele>6.1</ele>
        <time>2020-06-04T08:44:07Z</time>
      </trkpt>
      <trkpt lat="46.72214" lon="-1.97515">
        <ele>6.1</ele>
        <time>2020-06-04T08:44:08Z</time>
      </trkpt>
      <trkpt lat="46.72217" lon="-1.97521">
        <ele>6.1</ele>
        <time>2020-06-04T08:44:09Z</time>
      </trkpt>
      <trkpt lat="46.7222" lon="-1.97528">
        <ele>6.1</ele>
        <time>2020-06-04T08:44:10Z</time>
      </trkpt>
      <trkpt lat="46.72225" lon="-1.97535">
        <ele>6</ele>
        <time>2020-06-04T08:44:11Z</time>
      </trkpt>
      <trkpt lat="46.72229" lon="-1.97543">
        <ele>6</ele>
        <time>2020-06-04T08:44:12Z</time>
      </trkpt>
      <trkpt lat="46.72233" lon="-1.9755">
        <ele>6</ele>
        <time>2020-06-04T08:44:13Z</time>
      </trkpt>
      <trkpt lat="46.72237" lon="-1.97557">
        <ele>5.9</ele>
        <time>2020-06-04T08:44:14Z</time>
      </trkpt>
      <trkpt lat="46.72241" lon="-1.97564">
        <ele>5.9</ele>
        <time>2020-06-04T08:44:15Z</time>
      </trkpt>
      <trkpt lat="46.72245" lon="-1.97571">
        <ele>5.9</ele>
        <time>2020-06-04T08:44:16Z</time>
      </trkpt>
      <trkpt lat="46.72249" lon="-1.97579">
        <ele>5.9</ele>
        <time>2020-06-04T08:44:17Z</time>
      </trkpt>
      <trkpt lat="46.72253" lon="-1.97586">
        <ele>5.8</ele>
        <time>2020-06-04T08:44:18Z</time>
      </trkpt>
      <trkpt lat="46.72257" lon="-1.97593">
        <ele>5.7</ele>
        <time>2020-06-04T08:44:19Z</time>
      </trkpt>
      <trkpt lat="46.72261" lon="-1.976">
        <ele>5.7</ele>
        <time>2020-06-04T08:44:20Z</time>
      </trkpt>
      <trkpt lat="46.72265" lon="-1.97607">
        <ele>5.6</ele>
        <time>2020-06-04T08:44:21Z</time>
      </trkpt>
      <trkpt lat="46.72268" lon="-1.97613">
        <ele>5.6</ele>
        <time>2020-06-04T08:44:22Z</time>
      </trkpt>
      <trkpt lat="46.72272" lon="-1.97618">
        <ele>5.6</ele>
        <time>2020-06-04T08:44:23Z</time>
      </trkpt>
      <trkpt lat="46.72275" lon="-1.97625">
        <ele>5.5</ele>
        <time>2020-06-04T08:44:24Z</time>
      </trkpt>
      <trkpt lat="46.7228" lon="-1.97629">
        <ele>5.5</ele>
        <time>2020-06-04T08:44:25Z</time>
      </trkpt>
      <trkpt lat="46.72285" lon="-1.97637">
        <ele>5.5</ele>
        <time>2020-06-04T08:44:26Z</time>
      </trkpt>
      <trkpt lat="46.72289" lon="-1.97645">
        <ele>5.5</ele>
        <time>2020-06-04T08:44:27Z</time>
      </trkpt>
      <trkpt lat="46.72292" lon="-1.97651">
        <ele>5.4</ele>
        <time>2020-06-04T08:44:28Z</time>
      </trkpt>
      <trkpt lat="46.72296" lon="-1.97657">
        <ele>5.4</ele>
        <time>2020-06-04T08:44:29Z</time>
      </trkpt>
      <trkpt lat="46.723" lon="-1.97664">
        <ele>5.4</ele>
        <time>2020-06-04T08:44:30Z</time>
      </trkpt>
      <trkpt lat="46.72304" lon="-1.9767">
        <ele>5.4</ele>
        <time>2020-06-04T08:44:31Z</time>
      </trkpt>
      <trkpt lat="46.72308" lon="-1.97677">
        <ele>5.4</ele>
        <time>2020-06-04T08:44:32Z</time>
      </trkpt>
      <trkpt lat="46.72312" lon="-1.97682">
        <ele>5.3</ele>
        <time>2020-06-04T08:44:33Z</time>
      </trkpt>
      <trkpt lat="46.72316" lon="-1.97687">
        <ele>5.3</ele>
        <time>2020-06-04T08:44:34Z</time>
      </trkpt>
      <trkpt lat="46.72321" lon="-1.97695">
        <ele>5.3</ele>
        <time>2020-06-04T08:44:35Z</time>
      </trkpt>
      <trkpt lat="46.72325" lon="-1.97702">
        <ele>5.3</ele>
        <time>2020-06-04T08:44:36Z</time>
      </trkpt>
      <trkpt lat="46.72329" lon="-1.97708">
        <ele>5.3</ele>
        <time>2020-06-04T08:44:37Z</time>
      </trkpt>
      <trkpt lat="46.72333" lon="-1.97714">
        <ele>5.3</ele>
        <time>2020-06-04T08:44:38Z</time>
      </trkpt>
      <trkpt lat="46.72336" lon="-1.97719">
        <ele>5.3</ele>
        <time>2020-06-04T08:44:39Z</time>
      </trkpt>
      <trkpt lat="46.7234" lon="-1.97724">
        <ele>5.3</ele>
        <time>2020-06-04T08:44:40Z</time>
      </trkpt>
      <trkpt lat="46.72343" lon="-1.97729">
        <ele>5.3</ele>
        <time>2020-06-04T08:44:41Z</time>
      </trkpt>
      <trkpt lat="46.72348" lon="-1.97736">
        <ele>5.3</ele>
        <time>2020-06-04T08:44:42Z</time>
      </trkpt>
      <trkpt lat="46.72353" lon="-1.97743">
        <ele>5.3</ele>
        <time>2020-06-04T08:44:43Z</time>
      </trkpt>
      <trkpt lat="46.72358" lon="-1.97749">
        <ele>5.3</ele>
        <time>2020-06-04T08:44:44Z</time>
      </trkpt>
      <trkpt lat="46.72362" lon="-1.97755">
        <ele>5.2</ele>
        <time>2020-06-04T08:44:45Z</time>
      </trkpt>
      <trkpt lat="46.72365" lon="-1.97762">
        <ele>5.2</ele>
        <time>2020-06-04T08:44:46Z</time>
      </trkpt>
      <trkpt lat="46.72368" lon="-1.97768">
        <ele>5.2</ele>
        <time>2020-06-04T08:44:47Z</time>
      </trkpt>
      <trkpt lat="46.72372" lon="-1.97773">
        <ele>5.2</ele>
        <time>2020-06-04T08:44:48Z</time>
      </trkpt>
      <trkpt lat="46.72375" lon="-1.97779">
        <ele>5.2</ele>
        <time>2020-06-04T08:44:49Z</time>
      </trkpt>
      <trkpt lat="46.72378" lon="-1.97784">
        <ele>5.2</ele>
        <time>2020-06-04T08:44:50Z</time>
      </trkpt>
      <trkpt lat="46.72381" lon="-1.97793">
        <ele>5.2</ele>
        <time>2020-06-04T08:44:51Z</time>
      </trkpt>
      <trkpt lat="46.72384" lon="-1.978">
        <ele>5.2</ele>
        <time>2020-06-04T08:44:52Z</time>
      </trkpt>
      <trkpt lat="46.72386" lon="-1.97807">
        <ele>5.2</ele>
        <time>2020-06-04T08:44:53Z</time>
      </trkpt>
      <trkpt lat="46.72389" lon="-1.97813">
        <ele>5.2</ele>
        <time>2020-06-04T08:44:54Z</time>
      </trkpt>
      <trkpt lat="46.72392" lon="-1.9782">
        <ele>5.2</ele>
        <time>2020-06-04T08:44:55Z</time>
      </trkpt>
      <trkpt lat="46.72395" lon="-1.97825">
        <ele>5.2</ele>
        <time>2020-06-04T08:44:56Z</time>
      </trkpt>
      <trkpt lat="46.72396" lon="-1.97828">
        <ele>5.2</ele>
        <time>2020-06-04T08:44:57Z</time>
      </trkpt>
      <trkpt lat="46.72398" lon="-1.97834">
        <ele>5.2</ele>
        <time>2020-06-04T08:44:58Z</time>
      </trkpt>
      <trkpt lat="46.72397" lon="-1.97841">
        <ele>5</ele>
        <time>2020-06-04T08:44:59Z</time>
      </trkpt>
      <trkpt lat="46.72395" lon="-1.97845">
        <ele>5</ele>
        <time>2020-06-04T08:45:00Z</time>
      </trkpt>
      <trkpt lat="46.72395" lon="-1.9785">
        <ele>5</ele>
        <time>2020-06-04T08:45:01Z</time>
      </trkpt>
      <trkpt lat="46.72396" lon="-1.97852">
        <ele>5</ele>
        <time>2020-06-04T08:45:02Z</time>
      </trkpt>
      <trkpt lat="46.72399" lon="-1.97854">
        <ele>5.1</ele>
        <time>2020-06-04T08:45:03Z</time>
      </trkpt>
      <trkpt lat="46.72402" lon="-1.97855">
        <ele>5.1</ele>
        <time>2020-06-04T08:45:04Z</time>
      </trkpt>
      <trkpt lat="46.72405" lon="-1.97854">
        <ele>5.1</ele>
        <time>2020-06-04T08:45:05Z</time>
      </trkpt>
      <trkpt lat="46.72408" lon="-1.97855">
        <ele>5.1</ele>
        <time>2020-06-04T08:45:06Z</time>
      </trkpt>
      <trkpt lat="46.72411" lon="-1.97855">
        <ele>5</ele>
        <time>2020-06-04T08:45:07Z</time>
      </trkpt>
      <trkpt lat="46.72414" lon="-1.97856">
        <ele>5</ele>
        <time>2020-06-04T08:45:08Z</time>
      </trkpt>
      <trkpt lat="46.72418" lon="-1.97858">
        <ele>5</ele>
        <time>2020-06-04T08:45:09Z</time>
      </trkpt>
      <trkpt lat="46.72422" lon="-1.97863">
        <ele>5</ele>
        <time>2020-06-04T08:45:10Z</time>
      </trkpt>
      <trkpt lat="46.72426" lon="-1.9787">
        <ele>5</ele>
        <time>2020-06-04T08:45:11Z</time>
      </trkpt>
      <trkpt lat="46.7243" lon="-1.97876">
        <ele>5</ele>
        <time>2020-06-04T08:45:12Z</time>
      </trkpt>
      <trkpt lat="46.72434" lon="-1.97881">
        <ele>5</ele>
        <time>2020-06-04T08:45:13Z</time>
      </trkpt>
      <trkpt lat="46.72438" lon="-1.97886">
        <ele>5</ele>
        <time>2020-06-04T08:45:14Z</time>
      </trkpt>
      <trkpt lat="46.72442" lon="-1.97892">
        <ele>5</ele>
        <time>2020-06-04T08:45:15Z</time>
      </trkpt>
      <trkpt lat="46.72445" lon="-1.97897">
        <ele>5</ele>
        <time>2020-06-04T08:45:16Z</time>
      </trkpt>
      <trkpt lat="46.72449" lon="-1.97903">
        <ele>5</ele>
        <time>2020-06-04T08:45:17Z</time>
      </trkpt>
      <trkpt lat="46.72452" lon="-1.97908">
        <ele>5</ele>
        <time>2020-06-04T08:45:18Z</time>
      </trkpt>
      <trkpt lat="46.72455" lon="-1.97911">
        <ele>5</ele>
        <time>2020-06-04T08:45:19Z</time>
      </trkpt>
      <trkpt lat="46.72458" lon="-1.97916">
        <ele>5</ele>
        <time>2020-06-04T08:45:20Z</time>
      </trkpt>
      <trkpt lat="46.72461" lon="-1.97919">
        <ele>5</ele>
        <time>2020-06-04T08:45:21Z</time>
      </trkpt>
      <trkpt lat="46.72465" lon="-1.97922">
        <ele>5</ele>
        <time>2020-06-04T08:45:22Z</time>
      </trkpt>
      <trkpt lat="46.72468" lon="-1.97927">
        <ele>5</ele>
        <time>2020-06-04T08:45:23Z</time>
      </trkpt>
      <trkpt lat="46.72471" lon="-1.97931">
        <ele>5</ele>
        <time>2020-06-04T08:45:24Z</time>
      </trkpt>
      <trkpt lat="46.72474" lon="-1.97936">
        <ele>5</ele>
        <time>2020-06-04T08:45:25Z</time>
      </trkpt>
      <trkpt lat="46.72479" lon="-1.97942">
        <ele>5</ele>
        <time>2020-06-04T08:45:26Z</time>
      </trkpt>
      <trkpt lat="46.72483" lon="-1.97947">
        <ele>5</ele>
        <time>2020-06-04T08:45:27Z</time>
      </trkpt>
      <trkpt lat="46.72487" lon="-1.9795">
        <ele>5</ele>
        <time>2020-06-04T08:45:28Z</time>
      </trkpt>
      <trkpt lat="46.72491" lon="-1.97954">
        <ele>5</ele>
        <time>2020-06-04T08:45:29Z</time>
      </trkpt>
      <trkpt lat="46.72495" lon="-1.97958">
        <ele>5</ele>
        <time>2020-06-04T08:45:30Z</time>
      </trkpt>
      <trkpt lat="46.72498" lon="-1.97964">
        <ele>5</ele>
        <time>2020-06-04T08:45:31Z</time>
      </trkpt>
      <trkpt lat="46.72501" lon="-1.97968">
        <ele>5</ele>
        <time>2020-06-04T08:45:32Z</time>
      </trkpt>
      <trkpt lat="46.72505" lon="-1.97972">
        <ele>4.9</ele>
        <time>2020-06-04T08:45:33Z</time>
      </trkpt>
      <trkpt lat="46.72509" lon="-1.97976">
        <ele>4.9</ele>
        <time>2020-06-04T08:45:34Z</time>
      </trkpt>
      <trkpt lat="46.72514" lon="-1.9798">
        <ele>4.8</ele>
        <time>2020-06-04T08:45:35Z</time>
      </trkpt>
      <trkpt lat="46.72517" lon="-1.97984">
        <ele>4.8</ele>
        <time>2020-06-04T08:45:36Z</time>
      </trkpt>
      <trkpt lat="46.72521" lon="-1.97986">
        <ele>4.7</ele>
        <time>2020-06-04T08:45:37Z</time>
      </trkpt>
      <trkpt lat="46.72525" lon="-1.9799">
        <ele>4.6</ele>
        <time>2020-06-04T08:45:38Z</time>
      </trkpt>
      <trkpt lat="46.7253" lon="-1.97992">
        <ele>4.6</ele>
        <time>2020-06-04T08:45:39Z</time>
      </trkpt>
      <trkpt lat="46.72534" lon="-1.97995">
        <ele>4.5</ele>
        <time>2020-06-04T08:45:40Z</time>
      </trkpt>
      <trkpt lat="46.72538" lon="-1.97998">
        <ele>4.4</ele>
        <time>2020-06-04T08:45:41Z</time>
      </trkpt>
      <trkpt lat="46.72543" lon="-1.98001">
        <ele>4.4</ele>
        <time>2020-06-04T08:45:42Z</time>
      </trkpt>
      <trkpt lat="46.72547" lon="-1.98004">
        <ele>4.4</ele>
        <time>2020-06-04T08:45:43Z</time>
      </trkpt>
      <trkpt lat="46.72553" lon="-1.98007">
        <ele>4.3</ele>
        <time>2020-06-04T08:45:44Z</time>
      </trkpt>
      <trkpt lat="46.72559" lon="-1.9801">
        <ele>4.3</ele>
        <time>2020-06-04T08:45:45Z</time>
      </trkpt>
      <trkpt lat="46.72565" lon="-1.98012">
        <ele>4.3</ele>
        <time>2020-06-04T08:45:46Z</time>
      </trkpt>
      <trkpt lat="46.7257" lon="-1.98015">
        <ele>4.3</ele>
        <time>2020-06-04T08:45:47Z</time>
      </trkpt>
      <trkpt lat="46.72576" lon="-1.98018">
        <ele>4.3</ele>
        <time>2020-06-04T08:45:48Z</time>
      </trkpt>
      <trkpt lat="46.72582" lon="-1.9802">
        <ele>4.3</ele>
        <time>2020-06-04T08:45:49Z</time>
      </trkpt>
      <trkpt lat="46.72586" lon="-1.98024">
        <ele>4.3</ele>
        <time>2020-06-04T08:45:50Z</time>
      </trkpt>
      <trkpt lat="46.72591" lon="-1.98029">
        <ele>4.3</ele>
        <time>2020-06-04T08:45:51Z</time>
      </trkpt>
      <trkpt lat="46.72595" lon="-1.98033">
        <ele>4.3</ele>
        <time>2020-06-04T08:45:52Z</time>
      </trkpt>
      <trkpt lat="46.72599" lon="-1.98037">
        <ele>4.3</ele>
        <time>2020-06-04T08:45:53Z</time>
      </trkpt>
      <trkpt lat="46.72603" lon="-1.9804">
        <ele>4.3</ele>
        <time>2020-06-04T08:45:54Z</time>
      </trkpt>
      <trkpt lat="46.72608" lon="-1.98044">
        <ele>4.3</ele>
        <time>2020-06-04T08:45:55Z</time>
      </trkpt>
      <trkpt lat="46.72612" lon="-1.98046">
        <ele>4.3</ele>
        <time>2020-06-04T08:45:56Z</time>
      </trkpt>
      <trkpt lat="46.72618" lon="-1.98049">
        <ele>4.2</ele>
        <time>2020-06-04T08:45:57Z</time>
      </trkpt>
      <trkpt lat="46.72623" lon="-1.98052">
        <ele>4.2</ele>
        <time>2020-06-04T08:45:58Z</time>
      </trkpt>
      <trkpt lat="46.72628" lon="-1.98055">
        <ele>4.2</ele>
        <time>2020-06-04T08:45:59Z</time>
      </trkpt>
      <trkpt lat="46.72633" lon="-1.98059">
        <ele>4.2</ele>
        <time>2020-06-04T08:46:00Z</time>
      </trkpt>
      <trkpt lat="46.72638" lon="-1.98063">
        <ele>4.2</ele>
        <time>2020-06-04T08:46:01Z</time>
      </trkpt>
      <trkpt lat="46.72643" lon="-1.98067">
        <ele>4.2</ele>
        <time>2020-06-04T08:46:02Z</time>
      </trkpt>
      <trkpt lat="46.72649" lon="-1.98071">
        <ele>4.2</ele>
        <time>2020-06-04T08:46:03Z</time>
      </trkpt>
      <trkpt lat="46.72654" lon="-1.98074">
        <ele>4.2</ele>
        <time>2020-06-04T08:46:04Z</time>
      </trkpt>
      <trkpt lat="46.72659" lon="-1.98077">
        <ele>4.2</ele>
        <time>2020-06-04T08:46:05Z</time>
      </trkpt>
      <trkpt lat="46.72663" lon="-1.98079">
        <ele>4.2</ele>
        <time>2020-06-04T08:46:06Z</time>
      </trkpt>
      <trkpt lat="46.72668" lon="-1.98082">
        <ele>4.2</ele>
        <time>2020-06-04T08:46:07Z</time>
      </trkpt>
      <trkpt lat="46.72673" lon="-1.98085">
        <ele>4.2</ele>
        <time>2020-06-04T08:46:08Z</time>
      </trkpt>
      <trkpt lat="46.72678" lon="-1.9809">
        <ele>4.2</ele>
        <time>2020-06-04T08:46:09Z</time>
      </trkpt>
      <trkpt lat="46.72683" lon="-1.98094">
        <ele>4.2</ele>
        <time>2020-06-04T08:46:10Z</time>
      </trkpt>
      <trkpt lat="46.72687" lon="-1.98098">
        <ele>4.2</ele>
        <time>2020-06-04T08:46:11Z</time>
      </trkpt>
      <trkpt lat="46.72692" lon="-1.98102">
        <ele>4.2</ele>
        <time>2020-06-04T08:46:12Z</time>
      </trkpt>
      <trkpt lat="46.72697" lon="-1.98105">
        <ele>4.2</ele>
        <time>2020-06-04T08:46:13Z</time>
      </trkpt>
      <trkpt lat="46.72702" lon="-1.98108">
        <ele>4.2</ele>
        <time>2020-06-04T08:46:14Z</time>
      </trkpt>
      <trkpt lat="46.72707" lon="-1.98112">
        <ele>4.3</ele>
        <time>2020-06-04T08:46:15Z</time>
      </trkpt>
      <trkpt lat="46.72713" lon="-1.98114">
        <ele>4.3</ele>
        <time>2020-06-04T08:46:16Z</time>
      </trkpt>
      <trkpt lat="46.72717" lon="-1.98116">
        <ele>4.3</ele>
        <time>2020-06-04T08:46:17Z</time>
      </trkpt>
      <trkpt lat="46.72721" lon="-1.98119">
        <ele>4.3</ele>
        <time>2020-06-04T08:46:18Z</time>
      </trkpt>
      <trkpt lat="46.72726" lon="-1.98121">
        <ele>4.4</ele>
        <time>2020-06-04T08:46:19Z</time>
      </trkpt>
      <trkpt lat="46.72731" lon="-1.98122">
        <ele>4.4</ele>
        <time>2020-06-04T08:46:20Z</time>
      </trkpt>
      <trkpt lat="46.72735" lon="-1.98124">
        <ele>4.4</ele>
        <time>2020-06-04T08:46:21Z</time>
      </trkpt>
      <trkpt lat="46.72739" lon="-1.98126">
        <ele>4.4</ele>
        <time>2020-06-04T08:46:22Z</time>
      </trkpt>
      <trkpt lat="46.72743" lon="-1.9813">
        <ele>4.3</ele>
        <time>2020-06-04T08:46:23Z</time>
      </trkpt>
      <trkpt lat="46.72748" lon="-1.98132">
        <ele>4.3</ele>
        <time>2020-06-04T08:46:24Z</time>
      </trkpt>
      <trkpt lat="46.72754" lon="-1.98134">
        <ele>4.3</ele>
        <time>2020-06-04T08:46:25Z</time>
      </trkpt>
      <trkpt lat="46.72759" lon="-1.98136">
        <ele>4.3</ele>
        <time>2020-06-04T08:46:26Z</time>
      </trkpt>
      <trkpt lat="46.72764" lon="-1.98138">
        <ele>4.3</ele>
        <time>2020-06-04T08:46:27Z</time>
      </trkpt>
      <trkpt lat="46.72769" lon="-1.98139">
        <ele>4.3</ele>
        <time>2020-06-04T08:46:28Z</time>
      </trkpt>
      <trkpt lat="46.72773" lon="-1.98141">
        <ele>4.3</ele>
        <time>2020-06-04T08:46:29Z</time>
      </trkpt>
      <trkpt lat="46.72777" lon="-1.98143">
        <ele>4.3</ele>
        <time>2020-06-04T08:46:30Z</time>
      </trkpt>
      <trkpt lat="46.72782" lon="-1.98145">
        <ele>4.3</ele>
        <time>2020-06-04T08:46:31Z</time>
      </trkpt>
      <trkpt lat="46.72788" lon="-1.98147">
        <ele>4.3</ele>
        <time>2020-06-04T08:46:32Z</time>
      </trkpt>
      <trkpt lat="46.72794" lon="-1.9815">
        <ele>4.4</ele>
        <time>2020-06-04T08:46:33Z</time>
      </trkpt>
      <trkpt lat="46.72801" lon="-1.98152">
        <ele>4.4</ele>
        <time>2020-06-04T08:46:34Z</time>
      </trkpt>
      <trkpt lat="46.72807" lon="-1.98155">
        <ele>4.4</ele>
        <time>2020-06-04T08:46:35Z</time>
      </trkpt>
      <trkpt lat="46.72813" lon="-1.98157">
        <ele>4.4</ele>
        <time>2020-06-04T08:46:36Z</time>
      </trkpt>
      <trkpt lat="46.72819" lon="-1.98159">
        <ele>4.4</ele>
        <time>2020-06-04T08:46:37Z</time>
      </trkpt>
      <trkpt lat="46.72825" lon="-1.98161">
        <ele>4.5</ele>
        <time>2020-06-04T08:46:38Z</time>
      </trkpt>
      <trkpt lat="46.7283" lon="-1.98163">
        <ele>4.5</ele>
        <time>2020-06-04T08:46:39Z</time>
      </trkpt>
      <trkpt lat="46.72835" lon="-1.98165">
        <ele>4.5</ele>
        <time>2020-06-04T08:46:40Z</time>
      </trkpt>
      <trkpt lat="46.72839" lon="-1.98167">
        <ele>4.5</ele>
        <time>2020-06-04T08:46:41Z</time>
      </trkpt>
      <trkpt lat="46.72843" lon="-1.98169">
        <ele>4.5</ele>
        <time>2020-06-04T08:46:42Z</time>
      </trkpt>
      <trkpt lat="46.72848" lon="-1.9817">
        <ele>4.5</ele>
        <time>2020-06-04T08:46:43Z</time>
      </trkpt>
      <trkpt lat="46.72853" lon="-1.98172">
        <ele>4.5</ele>
        <time>2020-06-04T08:46:44Z</time>
      </trkpt>
      <trkpt lat="46.72858" lon="-1.98174">
        <ele>4.5</ele>
        <time>2020-06-04T08:46:45Z</time>
      </trkpt>
      <trkpt lat="46.72863" lon="-1.98177">
        <ele>4.5</ele>
        <time>2020-06-04T08:46:46Z</time>
      </trkpt>
      <trkpt lat="46.72867" lon="-1.9818">
        <ele>4.5</ele>
        <time>2020-06-04T08:46:47Z</time>
      </trkpt>
      <trkpt lat="46.72871" lon="-1.98182">
        <ele>4.5</ele>
        <time>2020-06-04T08:46:48Z</time>
      </trkpt>
      <trkpt lat="46.72877" lon="-1.98183">
        <ele>4.5</ele>
        <time>2020-06-04T08:46:49Z</time>
      </trkpt>
      <trkpt lat="46.72881" lon="-1.98185">
        <ele>4.5</ele>
        <time>2020-06-04T08:46:50Z</time>
      </trkpt>
      <trkpt lat="46.72886" lon="-1.98186">
        <ele>4.6</ele>
        <time>2020-06-04T08:46:51Z</time>
      </trkpt>
      <trkpt lat="46.72891" lon="-1.98187">
        <ele>4.6</ele>
        <time>2020-06-04T08:46:52Z</time>
      </trkpt>
      <trkpt lat="46.72895" lon="-1.9819">
        <ele>4.6</ele>
        <time>2020-06-04T08:46:53Z</time>
      </trkpt>
      <trkpt lat="46.72899" lon="-1.98192">
        <ele>4.6</ele>
        <time>2020-06-04T08:46:54Z</time>
      </trkpt>
      <trkpt lat="46.72904" lon="-1.98194">
        <ele>4.6</ele>
        <time>2020-06-04T08:46:55Z</time>
      </trkpt>
      <trkpt lat="46.7291" lon="-1.98196">
        <ele>4.6</ele>
        <time>2020-06-04T08:46:56Z</time>
      </trkpt>
      <trkpt lat="46.72915" lon="-1.98199">
        <ele>4.6</ele>
        <time>2020-06-04T08:46:57Z</time>
      </trkpt>
      <trkpt lat="46.7292" lon="-1.98202">
        <ele>4.6</ele>
        <time>2020-06-04T08:46:58Z</time>
      </trkpt>
      <trkpt lat="46.72925" lon="-1.98204">
        <ele>4.6</ele>
        <time>2020-06-04T08:46:59Z</time>
      </trkpt>
      <trkpt lat="46.7293" lon="-1.98206">
        <ele>4.6</ele>
        <time>2020-06-04T08:47:00Z</time>
      </trkpt>
      <trkpt lat="46.72934" lon="-1.98208">
        <ele>4.7</ele>
        <time>2020-06-04T08:47:01Z</time>
      </trkpt>
      <trkpt lat="46.72939" lon="-1.9821">
        <ele>4.7</ele>
        <time>2020-06-04T08:47:02Z</time>
      </trkpt>
      <trkpt lat="46.72944" lon="-1.98212">
        <ele>4.7</ele>
        <time>2020-06-04T08:47:03Z</time>
      </trkpt>
      <trkpt lat="46.7295" lon="-1.98215">
        <ele>4.8</ele>
        <time>2020-06-04T08:47:04Z</time>
      </trkpt>
      <trkpt lat="46.72955" lon="-1.98217">
        <ele>4.8</ele>
        <time>2020-06-04T08:47:05Z</time>
      </trkpt>
      <trkpt lat="46.72959" lon="-1.98221">
        <ele>4.8</ele>
        <time>2020-06-04T08:47:06Z</time>
      </trkpt>
      <trkpt lat="46.72964" lon="-1.98224">
        <ele>4.8</ele>
        <time>2020-06-04T08:47:07Z</time>
      </trkpt>
      <trkpt lat="46.72969" lon="-1.98227">
        <ele>4.9</ele>
        <time>2020-06-04T08:47:08Z</time>
      </trkpt>
      <trkpt lat="46.72975" lon="-1.98229">
        <ele>4.9</ele>
        <time>2020-06-04T08:47:09Z</time>
      </trkpt>
      <trkpt lat="46.72981" lon="-1.98231">
        <ele>4.9</ele>
        <time>2020-06-04T08:47:10Z</time>
      </trkpt>
      <trkpt lat="46.72987" lon="-1.98234">
        <ele>4.9</ele>
        <time>2020-06-04T08:47:11Z</time>
      </trkpt>
      <trkpt lat="46.72993" lon="-1.98236">
        <ele>5</ele>
        <time>2020-06-04T08:47:12Z</time>
      </trkpt>
      <trkpt lat="46.72998" lon="-1.98238">
        <ele>5</ele>
        <time>2020-06-04T08:47:13Z</time>
      </trkpt>
      <trkpt lat="46.73003" lon="-1.98239">
        <ele>5</ele>
        <time>2020-06-04T08:47:14Z</time>
      </trkpt>
      <trkpt lat="46.73008" lon="-1.98242">
        <ele>5</ele>
        <time>2020-06-04T08:47:15Z</time>
      </trkpt>
      <trkpt lat="46.73012" lon="-1.98244">
        <ele>5</ele>
        <time>2020-06-04T08:47:16Z</time>
      </trkpt>
      <trkpt lat="46.73016" lon="-1.98246">
        <ele>5</ele>
        <time>2020-06-04T08:47:17Z</time>
      </trkpt>
      <trkpt lat="46.7302" lon="-1.98247">
        <ele>5.1</ele>
        <time>2020-06-04T08:47:18Z</time>
      </trkpt>
      <trkpt lat="46.73025" lon="-1.98249">
        <ele>5.1</ele>
        <time>2020-06-04T08:47:19Z</time>
      </trkpt>
      <trkpt lat="46.73029" lon="-1.9825">
        <ele>5.1</ele>
        <time>2020-06-04T08:47:20Z</time>
      </trkpt>
      <trkpt lat="46.73033" lon="-1.98252">
        <ele>5.1</ele>
        <time>2020-06-04T08:47:21Z</time>
      </trkpt>
      <trkpt lat="46.73037" lon="-1.98254">
        <ele>5.2</ele>
        <time>2020-06-04T08:47:22Z</time>
      </trkpt>
      <trkpt lat="46.73041" lon="-1.98256">
        <ele>5.2</ele>
        <time>2020-06-04T08:47:23Z</time>
      </trkpt>
      <trkpt lat="46.73045" lon="-1.98258">
        <ele>5.2</ele>
        <time>2020-06-04T08:47:24Z</time>
      </trkpt>
      <trkpt lat="46.7305" lon="-1.98259">
        <ele>5.3</ele>
        <time>2020-06-04T08:47:25Z</time>
      </trkpt>
      <trkpt lat="46.73054" lon="-1.98261">
        <ele>5.3</ele>
        <time>2020-06-04T08:47:26Z</time>
      </trkpt>
      <trkpt lat="46.73059" lon="-1.98264">
        <ele>5.3</ele>
        <time>2020-06-04T08:47:27Z</time>
      </trkpt>
      <trkpt lat="46.73064" lon="-1.98266">
        <ele>5.3</ele>
        <time>2020-06-04T08:47:28Z</time>
      </trkpt>
      <trkpt lat="46.73069" lon="-1.98269">
        <ele>5.4</ele>
        <time>2020-06-04T08:47:29Z</time>
      </trkpt>
      <trkpt lat="46.73074" lon="-1.98272">
        <ele>5.4</ele>
        <time>2020-06-04T08:47:30Z</time>
      </trkpt>
      <trkpt lat="46.73079" lon="-1.98274">
        <ele>5.4</ele>
        <time>2020-06-04T08:47:31Z</time>
      </trkpt>
      <trkpt lat="46.73085" lon="-1.98276">
        <ele>5.4</ele>
        <time>2020-06-04T08:47:32Z</time>
      </trkpt>
      <trkpt lat="46.73091" lon="-1.98278">
        <ele>5.4</ele>
        <time>2020-06-04T08:47:33Z</time>
      </trkpt>
      <trkpt lat="46.73097" lon="-1.98279">
        <ele>5.4</ele>
        <time>2020-06-04T08:47:34Z</time>
      </trkpt>
      <trkpt lat="46.73103" lon="-1.9828">
        <ele>5.4</ele>
        <time>2020-06-04T08:47:35Z</time>
      </trkpt>
      <trkpt lat="46.73108" lon="-1.98282">
        <ele>5.4</ele>
        <time>2020-06-04T08:47:36Z</time>
      </trkpt>
      <trkpt lat="46.73113" lon="-1.98285">
        <ele>5.4</ele>
        <time>2020-06-04T08:47:37Z</time>
      </trkpt>
      <trkpt lat="46.73118" lon="-1.98287">
        <ele>5.4</ele>
        <time>2020-06-04T08:47:38Z</time>
      </trkpt>
      <trkpt lat="46.73122" lon="-1.98289">
        <ele>5.4</ele>
        <time>2020-06-04T08:47:39Z</time>
      </trkpt>
      <trkpt lat="46.73127" lon="-1.98293">
        <ele>5.4</ele>
        <time>2020-06-04T08:47:40Z</time>
      </trkpt>
      <trkpt lat="46.73132" lon="-1.98295">
        <ele>5.4</ele>
        <time>2020-06-04T08:47:41Z</time>
      </trkpt>
      <trkpt lat="46.73137" lon="-1.98297">
        <ele>5.4</ele>
        <time>2020-06-04T08:47:42Z</time>
      </trkpt>
      <trkpt lat="46.73142" lon="-1.983">
        <ele>5.4</ele>
        <time>2020-06-04T08:47:43Z</time>
      </trkpt>
      <trkpt lat="46.73147" lon="-1.98303">
        <ele>5.4</ele>
        <time>2020-06-04T08:47:44Z</time>
      </trkpt>
      <trkpt lat="46.73152" lon="-1.98305">
        <ele>5.4</ele>
        <time>2020-06-04T08:47:45Z</time>
      </trkpt>
      <trkpt lat="46.73157" lon="-1.98309">
        <ele>5.4</ele>
        <time>2020-06-04T08:47:46Z</time>
      </trkpt>
      <trkpt lat="46.73162" lon="-1.98312">
        <ele>5.4</ele>
        <time>2020-06-04T08:47:47Z</time>
      </trkpt>
      <trkpt lat="46.73167" lon="-1.98315">
        <ele>5.4</ele>
        <time>2020-06-04T08:47:48Z</time>
      </trkpt>
      <trkpt lat="46.73172" lon="-1.98318">
        <ele>5.5</ele>
        <time>2020-06-04T08:47:49Z</time>
      </trkpt>
      <trkpt lat="46.73177" lon="-1.98322">
        <ele>5.5</ele>
        <time>2020-06-04T08:47:50Z</time>
      </trkpt>
      <trkpt lat="46.73181" lon="-1.98324">
        <ele>5.5</ele>
        <time>2020-06-04T08:47:51Z</time>
      </trkpt>
      <trkpt lat="46.73185" lon="-1.98328">
        <ele>5.5</ele>
        <time>2020-06-04T08:47:52Z</time>
      </trkpt>
      <trkpt lat="46.73189" lon="-1.98332">
        <ele>5.5</ele>
        <time>2020-06-04T08:47:53Z</time>
      </trkpt>
      <trkpt lat="46.73193" lon="-1.98335">
        <ele>5.5</ele>
        <time>2020-06-04T08:47:54Z</time>
      </trkpt>
      <trkpt lat="46.73196" lon="-1.98339">
        <ele>5.5</ele>
        <time>2020-06-04T08:47:55Z</time>
      </trkpt>
      <trkpt lat="46.73201" lon="-1.98343">
        <ele>5.5</ele>
        <time>2020-06-04T08:47:56Z</time>
      </trkpt>
      <trkpt lat="46.73205" lon="-1.98347">
        <ele>5.5</ele>
        <time>2020-06-04T08:47:57Z</time>
      </trkpt>
      <trkpt lat="46.73209" lon="-1.98352">
        <ele>5.5</ele>
        <time>2020-06-04T08:47:58Z</time>
      </trkpt>
      <trkpt lat="46.73214" lon="-1.98357">
        <ele>5.5</ele>
        <time>2020-06-04T08:47:59Z</time>
      </trkpt>
      <trkpt lat="46.73219" lon="-1.98361">
        <ele>5.5</ele>
        <time>2020-06-04T08:48:00Z</time>
      </trkpt>
      <trkpt lat="46.73223" lon="-1.98365">
        <ele>5.5</ele>
        <time>2020-06-04T08:48:01Z</time>
      </trkpt>
      <trkpt lat="46.73228" lon="-1.9837">
        <ele>5.5</ele>
        <time>2020-06-04T08:48:02Z</time>
      </trkpt>
      <trkpt lat="46.73233" lon="-1.98375">
        <ele>5.5</ele>
        <time>2020-06-04T08:48:03Z</time>
      </trkpt>
      <trkpt lat="46.73238" lon="-1.98379">
        <ele>5.5</ele>
        <time>2020-06-04T08:48:04Z</time>
      </trkpt>
      <trkpt lat="46.73242" lon="-1.98383">
        <ele>5.5</ele>
        <time>2020-06-04T08:48:05Z</time>
      </trkpt>
      <trkpt lat="46.73247" lon="-1.98388">
        <ele>5.6</ele>
        <time>2020-06-04T08:48:06Z</time>
      </trkpt>
      <trkpt lat="46.73252" lon="-1.98392">
        <ele>5.6</ele>
        <time>2020-06-04T08:48:07Z</time>
      </trkpt>
      <trkpt lat="46.73257" lon="-1.98395">
        <ele>5.7</ele>
        <time>2020-06-04T08:48:08Z</time>
      </trkpt>
      <trkpt lat="46.73262" lon="-1.98399">
        <ele>5.7</ele>
        <time>2020-06-04T08:48:09Z</time>
      </trkpt>
      <trkpt lat="46.73266" lon="-1.98403">
        <ele>5.8</ele>
        <time>2020-06-04T08:48:10Z</time>
      </trkpt>
      <trkpt lat="46.7327" lon="-1.98407">
        <ele>5.9</ele>
        <time>2020-06-04T08:48:11Z</time>
      </trkpt>
      <trkpt lat="46.73274" lon="-1.98411">
        <ele>5.9</ele>
        <time>2020-06-04T08:48:12Z</time>
      </trkpt>
      <trkpt lat="46.73277" lon="-1.98415">
        <ele>5.9</ele>
        <time>2020-06-04T08:48:13Z</time>
      </trkpt>
      <trkpt lat="46.73281" lon="-1.98419">
        <ele>6</ele>
        <time>2020-06-04T08:48:14Z</time>
      </trkpt>
      <trkpt lat="46.73285" lon="-1.98424">
        <ele>6</ele>
        <time>2020-06-04T08:48:15Z</time>
      </trkpt>
      <trkpt lat="46.73289" lon="-1.98428">
        <ele>6.1</ele>
        <time>2020-06-04T08:48:16Z</time>
      </trkpt>
      <trkpt lat="46.73293" lon="-1.98433">
        <ele>6.1</ele>
        <time>2020-06-04T08:48:17Z</time>
      </trkpt>
      <trkpt lat="46.73297" lon="-1.98437">
        <ele>6.2</ele>
        <time>2020-06-04T08:48:18Z</time>
      </trkpt>
      <trkpt lat="46.73302" lon="-1.98442">
        <ele>6.3</ele>
        <time>2020-06-04T08:48:19Z</time>
      </trkpt>
      <trkpt lat="46.73307" lon="-1.98445">
        <ele>6.4</ele>
        <time>2020-06-04T08:48:20Z</time>
      </trkpt>
      <trkpt lat="46.7331" lon="-1.98449">
        <ele>6.4</ele>
        <time>2020-06-04T08:48:21Z</time>
      </trkpt>
      <trkpt lat="46.73315" lon="-1.98454">
        <ele>6.5</ele>
        <time>2020-06-04T08:48:22Z</time>
      </trkpt>
      <trkpt lat="46.73319" lon="-1.98458">
        <ele>6.5</ele>
        <time>2020-06-04T08:48:23Z</time>
      </trkpt>
      <trkpt lat="46.73323" lon="-1.98462">
        <ele>6.5</ele>
        <time>2020-06-04T08:48:24Z</time>
      </trkpt>
      <trkpt lat="46.73327" lon="-1.98466">
        <ele>6.5</ele>
        <time>2020-06-04T08:48:25Z</time>
      </trkpt>
      <trkpt lat="46.73331" lon="-1.98469">
        <ele>6.6</ele>
        <time>2020-06-04T08:48:26Z</time>
      </trkpt>
      <trkpt lat="46.73335" lon="-1.98472">
        <ele>6.6</ele>
        <time>2020-06-04T08:48:27Z</time>
      </trkpt>
      <trkpt lat="46.73339" lon="-1.98477">
        <ele>6.6</ele>
        <time>2020-06-04T08:48:28Z</time>
      </trkpt>
      <trkpt lat="46.73344" lon="-1.98481">
        <ele>6.6</ele>
        <time>2020-06-04T08:48:29Z</time>
      </trkpt>
      <trkpt lat="46.73348" lon="-1.98485">
        <ele>6.6</ele>
        <time>2020-06-04T08:48:30Z</time>
      </trkpt>
      <trkpt lat="46.73352" lon="-1.98491">
        <ele>6.6</ele>
        <time>2020-06-04T08:48:31Z</time>
      </trkpt>
      <trkpt lat="46.73355" lon="-1.98496">
        <ele>6.6</ele>
        <time>2020-06-04T08:48:32Z</time>
      </trkpt>
      <trkpt lat="46.73358" lon="-1.98502">
        <ele>6.6</ele>
        <time>2020-06-04T08:48:33Z</time>
      </trkpt>
      <trkpt lat="46.73362" lon="-1.98509">
        <ele>6.7</ele>
        <time>2020-06-04T08:48:34Z</time>
      </trkpt>
      <trkpt lat="46.73364" lon="-1.98516">
        <ele>6.7</ele>
        <time>2020-06-04T08:48:35Z</time>
      </trkpt>
      <trkpt lat="46.73367" lon="-1.98524">
        <ele>6.7</ele>
        <time>2020-06-04T08:48:36Z</time>
      </trkpt>
      <trkpt lat="46.73371" lon="-1.98531">
        <ele>6.7</ele>
        <time>2020-06-04T08:48:37Z</time>
      </trkpt>
      <trkpt lat="46.73374" lon="-1.98539">
        <ele>6.7</ele>
        <time>2020-06-04T08:48:38Z</time>
      </trkpt>
      <trkpt lat="46.73377" lon="-1.98546">
        <ele>6.7</ele>
        <time>2020-06-04T08:48:39Z</time>
      </trkpt>
      <trkpt lat="46.73379" lon="-1.98554">
        <ele>6.8</ele>
        <time>2020-06-04T08:48:40Z</time>
      </trkpt>
      <trkpt lat="46.73382" lon="-1.98562">
        <ele>6.8</ele>
        <time>2020-06-04T08:48:41Z</time>
      </trkpt>
      <trkpt lat="46.73384" lon="-1.9857">
        <ele>6.8</ele>
        <time>2020-06-04T08:48:42Z</time>
      </trkpt>
      <trkpt lat="46.73385" lon="-1.98578">
        <ele>6.8</ele>
        <time>2020-06-04T08:48:43Z</time>
      </trkpt>
      <trkpt lat="46.73387" lon="-1.98587">
        <ele>6.9</ele>
        <time>2020-06-04T08:48:44Z</time>
      </trkpt>
      <trkpt lat="46.73388" lon="-1.98595">
        <ele>6.9</ele>
        <time>2020-06-04T08:48:45Z</time>
      </trkpt>
      <trkpt lat="46.73388" lon="-1.98604">
        <ele>6.9</ele>
        <time>2020-06-04T08:48:46Z</time>
      </trkpt>
      <trkpt lat="46.73388" lon="-1.98609">
        <ele>6.9</ele>
        <time>2020-06-04T08:48:47Z</time>
      </trkpt>
      <trkpt lat="46.73389" lon="-1.98618">
        <ele>6.9</ele>
        <time>2020-06-04T08:48:48Z</time>
      </trkpt>
      <trkpt lat="46.73389" lon="-1.98627">
        <ele>6.9</ele>
        <time>2020-06-04T08:48:49Z</time>
      </trkpt>
      <trkpt lat="46.73388" lon="-1.98634">
        <ele>6.9</ele>
        <time>2020-06-04T08:48:50Z</time>
      </trkpt>
      <trkpt lat="46.73387" lon="-1.98641">
        <ele>7</ele>
        <time>2020-06-04T08:48:51Z</time>
      </trkpt>
      <trkpt lat="46.73387" lon="-1.98648">
        <ele>7</ele>
        <time>2020-06-04T08:48:52Z</time>
      </trkpt>
      <trkpt lat="46.73385" lon="-1.98655">
        <ele>7</ele>
        <time>2020-06-04T08:48:53Z</time>
      </trkpt>
      <trkpt lat="46.73384" lon="-1.98661">
        <ele>7.1</ele>
        <time>2020-06-04T08:48:54Z</time>
      </trkpt>
      <trkpt lat="46.73384" lon="-1.98667">
        <ele>7.1</ele>
        <time>2020-06-04T08:48:55Z</time>
      </trkpt>
      <trkpt lat="46.73383" lon="-1.98673">
        <ele>7.1</ele>
        <time>2020-06-04T08:48:56Z</time>
      </trkpt>
      <trkpt lat="46.73382" lon="-1.98678">
        <ele>7.2</ele>
        <time>2020-06-04T08:48:57Z</time>
      </trkpt>
      <trkpt lat="46.73382" lon="-1.98686">
        <ele>7.2</ele>
        <time>2020-06-04T08:48:58Z</time>
      </trkpt>
      <trkpt lat="46.73382" lon="-1.98692">
        <ele>7.2</ele>
        <time>2020-06-04T08:48:59Z</time>
      </trkpt>
      <trkpt lat="46.73382" lon="-1.98699">
        <ele>7.3</ele>
        <time>2020-06-04T08:49:00Z</time>
      </trkpt>
      <trkpt lat="46.73382" lon="-1.98702">
        <ele>7.3</ele>
        <time>2020-06-04T08:49:01Z</time>
      </trkpt>
      <trkpt lat="46.73384" lon="-1.98707">
        <ele>7.3</ele>
        <time>2020-06-04T08:49:02Z</time>
      </trkpt>
      <trkpt lat="46.73387" lon="-1.98708">
        <ele>7.3</ele>
        <time>2020-06-04T08:49:03Z</time>
      </trkpt>
      <trkpt lat="46.7339" lon="-1.9871">
        <ele>7.2</ele>
        <time>2020-06-04T08:49:04Z</time>
      </trkpt>
      <trkpt lat="46.73394" lon="-1.98711">
        <ele>7.1</ele>
        <time>2020-06-04T08:49:05Z</time>
      </trkpt>
      <trkpt lat="46.73397" lon="-1.98713">
        <ele>7.1</ele>
        <time>2020-06-04T08:49:06Z</time>
      </trkpt>
      <trkpt lat="46.734" lon="-1.98715">
        <ele>7</ele>
        <time>2020-06-04T08:49:07Z</time>
      </trkpt>
      <trkpt lat="46.73404" lon="-1.98717">
        <ele>7</ele>
        <time>2020-06-04T08:49:08Z</time>
      </trkpt>
      <trkpt lat="46.73407" lon="-1.98719">
        <ele>6.9</ele>
        <time>2020-06-04T08:49:09Z</time>
      </trkpt>
      <trkpt lat="46.73411" lon="-1.98723">
        <ele>6.8</ele>
        <time>2020-06-04T08:49:10Z</time>
      </trkpt>
      <trkpt lat="46.73415" lon="-1.98727">
        <ele>6.8</ele>
        <time>2020-06-04T08:49:11Z</time>
      </trkpt>
      <trkpt lat="46.73419" lon="-1.98731">
        <ele>6.8</ele>
        <time>2020-06-04T08:49:12Z</time>
      </trkpt>
      <trkpt lat="46.73422" lon="-1.98736">
        <ele>6.7</ele>
        <time>2020-06-04T08:49:13Z</time>
      </trkpt>
      <trkpt lat="46.73427" lon="-1.9874">
        <ele>6.7</ele>
        <time>2020-06-04T08:49:14Z</time>
      </trkpt>
      <trkpt lat="46.73432" lon="-1.98745">
        <ele>6.7</ele>
        <time>2020-06-04T08:49:15Z</time>
      </trkpt>
      <trkpt lat="46.73437" lon="-1.98749">
        <ele>6.6</ele>
        <time>2020-06-04T08:49:16Z</time>
      </trkpt>
      <trkpt lat="46.73442" lon="-1.98753">
        <ele>6.6</ele>
        <time>2020-06-04T08:49:17Z</time>
      </trkpt>
      <trkpt lat="46.73447" lon="-1.98759">
        <ele>6.6</ele>
        <time>2020-06-04T08:49:18Z</time>
      </trkpt>
      <trkpt lat="46.73452" lon="-1.98764">
        <ele>6.6</ele>
        <time>2020-06-04T08:49:19Z</time>
      </trkpt>
      <trkpt lat="46.73457" lon="-1.98769">
        <ele>6.6</ele>
        <time>2020-06-04T08:49:20Z</time>
      </trkpt>
      <trkpt lat="46.73463" lon="-1.98775">
        <ele>6.6</ele>
        <time>2020-06-04T08:49:21Z</time>
      </trkpt>
      <trkpt lat="46.73468" lon="-1.98781">
        <ele>6.7</ele>
        <time>2020-06-04T08:49:22Z</time>
      </trkpt>
      <trkpt lat="46.73473" lon="-1.98786">
        <ele>6.7</ele>
        <time>2020-06-04T08:49:23Z</time>
      </trkpt>
      <trkpt lat="46.73477" lon="-1.98791">
        <ele>6.7</ele>
        <time>2020-06-04T08:49:24Z</time>
      </trkpt>
      <trkpt lat="46.73482" lon="-1.98796">
        <ele>6.7</ele>
        <time>2020-06-04T08:49:25Z</time>
      </trkpt>
      <trkpt lat="46.73487" lon="-1.98801">
        <ele>6.7</ele>
        <time>2020-06-04T08:49:26Z</time>
      </trkpt>
      <trkpt lat="46.73492" lon="-1.98806">
        <ele>6.8</ele>
        <time>2020-06-04T08:49:27Z</time>
      </trkpt>
      <trkpt lat="46.73495" lon="-1.9881">
        <ele>6.8</ele>
        <time>2020-06-04T08:49:28Z</time>
      </trkpt>
      <trkpt lat="46.73499" lon="-1.98814">
        <ele>6.8</ele>
        <time>2020-06-04T08:49:29Z</time>
      </trkpt>
      <trkpt lat="46.73504" lon="-1.98818">
        <ele>6.8</ele>
        <time>2020-06-04T08:49:30Z</time>
      </trkpt>
      <trkpt lat="46.73508" lon="-1.98823">
        <ele>6.9</ele>
        <time>2020-06-04T08:49:31Z</time>
      </trkpt>
      <trkpt lat="46.73513" lon="-1.98828">
        <ele>6.9</ele>
        <time>2020-06-04T08:49:32Z</time>
      </trkpt>
      <trkpt lat="46.73517" lon="-1.98832">
        <ele>6.9</ele>
        <time>2020-06-04T08:49:33Z</time>
      </trkpt>
      <trkpt lat="46.73521" lon="-1.98836">
        <ele>6.9</ele>
        <time>2020-06-04T08:49:34Z</time>
      </trkpt>
      <trkpt lat="46.73525" lon="-1.9884">
        <ele>6.9</ele>
        <time>2020-06-04T08:49:35Z</time>
      </trkpt>
      <trkpt lat="46.7353" lon="-1.98844">
        <ele>6.9</ele>
        <time>2020-06-04T08:49:36Z</time>
      </trkpt>
      <trkpt lat="46.73534" lon="-1.98849">
        <ele>7</ele>
        <time>2020-06-04T08:49:37Z</time>
      </trkpt>
      <trkpt lat="46.73539" lon="-1.98854">
        <ele>7</ele>
        <time>2020-06-04T08:49:38Z</time>
      </trkpt>
      <trkpt lat="46.73543" lon="-1.98858">
        <ele>7</ele>
        <time>2020-06-04T08:49:39Z</time>
      </trkpt>
      <trkpt lat="46.73548" lon="-1.98863">
        <ele>7</ele>
        <time>2020-06-04T08:49:40Z</time>
      </trkpt>
      <trkpt lat="46.73552" lon="-1.98867">
        <ele>7</ele>
        <time>2020-06-04T08:49:41Z</time>
      </trkpt>
      <trkpt lat="46.73557" lon="-1.98872">
        <ele>7</ele>
        <time>2020-06-04T08:49:42Z</time>
      </trkpt>
      <trkpt lat="46.73561" lon="-1.98876">
        <ele>7</ele>
        <time>2020-06-04T08:49:43Z</time>
      </trkpt>
      <trkpt lat="46.73565" lon="-1.9888">
        <ele>6.9</ele>
        <time>2020-06-04T08:49:44Z</time>
      </trkpt>
      <trkpt lat="46.7357" lon="-1.98884">
        <ele>6.9</ele>
        <time>2020-06-04T08:49:45Z</time>
      </trkpt>
      <trkpt lat="46.73574" lon="-1.98888">
        <ele>6.9</ele>
        <time>2020-06-04T08:49:46Z</time>
      </trkpt>
      <trkpt lat="46.73578" lon="-1.98892">
        <ele>6.9</ele>
        <time>2020-06-04T08:49:47Z</time>
      </trkpt>
      <trkpt lat="46.73583" lon="-1.98897">
        <ele>6.9</ele>
        <time>2020-06-04T08:49:48Z</time>
      </trkpt>
      <trkpt lat="46.73589" lon="-1.98902">
        <ele>6.8</ele>
        <time>2020-06-04T08:49:49Z</time>
      </trkpt>
      <trkpt lat="46.73594" lon="-1.98907">
        <ele>6.8</ele>
        <time>2020-06-04T08:49:50Z</time>
      </trkpt>
      <trkpt lat="46.73599" lon="-1.98912">
        <ele>6.8</ele>
        <time>2020-06-04T08:49:51Z</time>
      </trkpt>
      <trkpt lat="46.73604" lon="-1.98917">
        <ele>6.8</ele>
        <time>2020-06-04T08:49:52Z</time>
      </trkpt>
      <trkpt lat="46.73609" lon="-1.98922">
        <ele>6.8</ele>
        <time>2020-06-04T08:49:53Z</time>
      </trkpt>
      <trkpt lat="46.73614" lon="-1.98927">
        <ele>6.8</ele>
        <time>2020-06-04T08:49:54Z</time>
      </trkpt>
      <trkpt lat="46.73618" lon="-1.98932">
        <ele>6.8</ele>
        <time>2020-06-04T08:49:55Z</time>
      </trkpt>
      <trkpt lat="46.73622" lon="-1.98936">
        <ele>6.8</ele>
        <time>2020-06-04T08:49:56Z</time>
      </trkpt>
      <trkpt lat="46.73627" lon="-1.98941">
        <ele>6.7</ele>
        <time>2020-06-04T08:49:57Z</time>
      </trkpt>
      <trkpt lat="46.73631" lon="-1.98945">
        <ele>6.7</ele>
        <time>2020-06-04T08:49:58Z</time>
      </trkpt>
      <trkpt lat="46.73637" lon="-1.98951">
        <ele>6.7</ele>
        <time>2020-06-04T08:49:59Z</time>
      </trkpt>
      <trkpt lat="46.73642" lon="-1.98955">
        <ele>6.7</ele>
        <time>2020-06-04T08:50:00Z</time>
      </trkpt>
      <trkpt lat="46.73646" lon="-1.98959">
        <ele>6.7</ele>
        <time>2020-06-04T08:50:01Z</time>
      </trkpt>
      <trkpt lat="46.7365" lon="-1.98963">
        <ele>6.6</ele>
        <time>2020-06-04T08:50:02Z</time>
      </trkpt>
      <trkpt lat="46.73654" lon="-1.98967">
        <ele>6.7</ele>
        <time>2020-06-04T08:50:03Z</time>
      </trkpt>
      <trkpt lat="46.73658" lon="-1.98971">
        <ele>6.7</ele>
        <time>2020-06-04T08:50:04Z</time>
      </trkpt>
      <trkpt lat="46.73661" lon="-1.98974">
        <ele>6.7</ele>
        <time>2020-06-04T08:50:05Z</time>
      </trkpt>
      <trkpt lat="46.73666" lon="-1.98979">
        <ele>6.7</ele>
        <time>2020-06-04T08:50:06Z</time>
      </trkpt>
      <trkpt lat="46.7367" lon="-1.98984">
        <ele>6.7</ele>
        <time>2020-06-04T08:50:07Z</time>
      </trkpt>
      <trkpt lat="46.73674" lon="-1.98987">
        <ele>6.7</ele>
        <time>2020-06-04T08:50:08Z</time>
      </trkpt>
      <trkpt lat="46.73678" lon="-1.98991">
        <ele>6.7</ele>
        <time>2020-06-04T08:50:09Z</time>
      </trkpt>
      <trkpt lat="46.73683" lon="-1.98995">
        <ele>6.7</ele>
        <time>2020-06-04T08:50:10Z</time>
      </trkpt>
      <trkpt lat="46.73688" lon="-1.98999">
        <ele>6.7</ele>
        <time>2020-06-04T08:50:11Z</time>
      </trkpt>
      <trkpt lat="46.73692" lon="-1.99004">
        <ele>6.8</ele>
        <time>2020-06-04T08:50:12Z</time>
      </trkpt>
      <trkpt lat="46.73697" lon="-1.99008">
        <ele>6.8</ele>
        <time>2020-06-04T08:50:13Z</time>
      </trkpt>
      <trkpt lat="46.73701" lon="-1.99011">
        <ele>6.8</ele>
        <time>2020-06-04T08:50:14Z</time>
      </trkpt>
      <trkpt lat="46.73706" lon="-1.99014">
        <ele>6.8</ele>
        <time>2020-06-04T08:50:15Z</time>
      </trkpt>
      <trkpt lat="46.73711" lon="-1.99017">
        <ele>6.9</ele>
        <time>2020-06-04T08:50:16Z</time>
      </trkpt>
      <trkpt lat="46.73716" lon="-1.99022">
        <ele>6.9</ele>
        <time>2020-06-04T08:50:17Z</time>
      </trkpt>
      <trkpt lat="46.73721" lon="-1.99025">
        <ele>6.9</ele>
        <time>2020-06-04T08:50:18Z</time>
      </trkpt>
      <trkpt lat="46.73726" lon="-1.9903">
        <ele>6.9</ele>
        <time>2020-06-04T08:50:19Z</time>
      </trkpt>
      <trkpt lat="46.7373" lon="-1.99034">
        <ele>6.9</ele>
        <time>2020-06-04T08:50:20Z</time>
      </trkpt>
      <trkpt lat="46.73735" lon="-1.99039">
        <ele>6.9</ele>
        <time>2020-06-04T08:50:21Z</time>
      </trkpt>
      <trkpt lat="46.7374" lon="-1.99043">
        <ele>6.8</ele>
        <time>2020-06-04T08:50:22Z</time>
      </trkpt>
      <trkpt lat="46.73743" lon="-1.99046">
        <ele>6.8</ele>
        <time>2020-06-04T08:50:23Z</time>
      </trkpt>
      <trkpt lat="46.73747" lon="-1.99051">
        <ele>6.7</ele>
        <time>2020-06-04T08:50:24Z</time>
      </trkpt>
      <trkpt lat="46.73752" lon="-1.99056">
        <ele>6.6</ele>
        <time>2020-06-04T08:50:25Z</time>
      </trkpt>
      <trkpt lat="46.73757" lon="-1.99062">
        <ele>6.5</ele>
        <time>2020-06-04T08:50:26Z</time>
      </trkpt>
      <trkpt lat="46.73761" lon="-1.99067">
        <ele>6.4</ele>
        <time>2020-06-04T08:50:27Z</time>
      </trkpt>
      <trkpt lat="46.73766" lon="-1.99074">
        <ele>6.3</ele>
        <time>2020-06-04T08:50:28Z</time>
      </trkpt>
      <trkpt lat="46.73771" lon="-1.9908">
        <ele>6.1</ele>
        <time>2020-06-04T08:50:29Z</time>
      </trkpt>
      <trkpt lat="46.73776" lon="-1.99085">
        <ele>6</ele>
        <time>2020-06-04T08:50:30Z</time>
      </trkpt>
      <trkpt lat="46.73781" lon="-1.99091">
        <ele>5.9</ele>
        <time>2020-06-04T08:50:31Z</time>
      </trkpt>
      <trkpt lat="46.73787" lon="-1.99098">
        <ele>5.7</ele>
        <time>2020-06-04T08:50:32Z</time>
      </trkpt>
      <trkpt lat="46.73793" lon="-1.99103">
        <ele>5.6</ele>
        <time>2020-06-04T08:50:33Z</time>
      </trkpt>
      <trkpt lat="46.73798" lon="-1.99108">
        <ele>5.5</ele>
        <time>2020-06-04T08:50:34Z</time>
      </trkpt>
      <trkpt lat="46.73804" lon="-1.99114">
        <ele>5.3</ele>
        <time>2020-06-04T08:50:35Z</time>
      </trkpt>
      <trkpt lat="46.73809" lon="-1.9912">
        <ele>5.2</ele>
        <time>2020-06-04T08:50:36Z</time>
      </trkpt>
      <trkpt lat="46.73815" lon="-1.99126">
        <ele>5.1</ele>
        <time>2020-06-04T08:50:37Z</time>
      </trkpt>
      <trkpt lat="46.73821" lon="-1.99132">
        <ele>4.9</ele>
        <time>2020-06-04T08:50:38Z</time>
      </trkpt>
      <trkpt lat="46.73827" lon="-1.99137">
        <ele>4.8</ele>
        <time>2020-06-04T08:50:39Z</time>
      </trkpt>
      <trkpt lat="46.73832" lon="-1.99143">
        <ele>4.7</ele>
        <time>2020-06-04T08:50:40Z</time>
      </trkpt>
      <trkpt lat="46.73838" lon="-1.99149">
        <ele>4.7</ele>
        <time>2020-06-04T08:50:41Z</time>
      </trkpt>
      <trkpt lat="46.73844" lon="-1.99154">
        <ele>4.6</ele>
        <time>2020-06-04T08:50:42Z</time>
      </trkpt>
      <trkpt lat="46.73849" lon="-1.99159">
        <ele>4.6</ele>
        <time>2020-06-04T08:50:43Z</time>
      </trkpt>
      <trkpt lat="46.73854" lon="-1.99164">
        <ele>4.5</ele>
        <time>2020-06-04T08:50:44Z</time>
      </trkpt>
      <trkpt lat="46.73858" lon="-1.99168">
        <ele>4.5</ele>
        <time>2020-06-04T08:50:45Z</time>
      </trkpt>
      <trkpt lat="46.73862" lon="-1.99171">
        <ele>4.5</ele>
        <time>2020-06-04T08:50:46Z</time>
      </trkpt>
      <trkpt lat="46.73866" lon="-1.99174">
        <ele>4.4</ele>
        <time>2020-06-04T08:50:47Z</time>
      </trkpt>
      <trkpt lat="46.7387" lon="-1.99177">
        <ele>4.4</ele>
        <time>2020-06-04T08:50:48Z</time>
      </trkpt>
      <trkpt lat="46.73874" lon="-1.99181">
        <ele>4.3</ele>
        <time>2020-06-04T08:50:49Z</time>
      </trkpt>
      <trkpt lat="46.73879" lon="-1.99185">
        <ele>4.3</ele>
        <time>2020-06-04T08:50:50Z</time>
      </trkpt>
      <trkpt lat="46.73884" lon="-1.9919">
        <ele>4.3</ele>
        <time>2020-06-04T08:50:51Z</time>
      </trkpt>
      <trkpt lat="46.73888" lon="-1.99195">
        <ele>4.3</ele>
        <time>2020-06-04T08:50:52Z</time>
      </trkpt>
      <trkpt lat="46.73893" lon="-1.992">
        <ele>4.3</ele>
        <time>2020-06-04T08:50:53Z</time>
      </trkpt>
      <trkpt lat="46.73897" lon="-1.99205">
        <ele>4.3</ele>
        <time>2020-06-04T08:50:54Z</time>
      </trkpt>
      <trkpt lat="46.73901" lon="-1.99209">
        <ele>4.3</ele>
        <time>2020-06-04T08:50:55Z</time>
      </trkpt>
      <trkpt lat="46.73904" lon="-1.99213">
        <ele>4.3</ele>
        <time>2020-06-04T08:50:56Z</time>
      </trkpt>
      <trkpt lat="46.73908" lon="-1.99218">
        <ele>4.3</ele>
        <time>2020-06-04T08:50:57Z</time>
      </trkpt>
      <trkpt lat="46.73912" lon="-1.99221">
        <ele>4.3</ele>
        <time>2020-06-04T08:50:58Z</time>
      </trkpt>
      <trkpt lat="46.73917" lon="-1.99225">
        <ele>4.3</ele>
        <time>2020-06-04T08:50:59Z</time>
      </trkpt>
      <trkpt lat="46.73922" lon="-1.99228">
        <ele>4.3</ele>
        <time>2020-06-04T08:51:00Z</time>
      </trkpt>
      <trkpt lat="46.73928" lon="-1.99232">
        <ele>4.4</ele>
        <time>2020-06-04T08:51:01Z</time>
      </trkpt>
      <trkpt lat="46.73933" lon="-1.99234">
        <ele>4.4</ele>
        <time>2020-06-04T08:51:02Z</time>
      </trkpt>
      <trkpt lat="46.73938" lon="-1.99239">
        <ele>4.4</ele>
        <time>2020-06-04T08:51:03Z</time>
      </trkpt>
      <trkpt lat="46.73944" lon="-1.99241">
        <ele>4.4</ele>
        <time>2020-06-04T08:51:04Z</time>
      </trkpt>
      <trkpt lat="46.73949" lon="-1.99244">
        <ele>4.4</ele>
        <time>2020-06-04T08:51:05Z</time>
      </trkpt>
      <trkpt lat="46.73954" lon="-1.99246">
        <ele>4.5</ele>
        <time>2020-06-04T08:51:06Z</time>
      </trkpt>
      <trkpt lat="46.73957" lon="-1.99248">
        <ele>4.5</ele>
        <time>2020-06-04T08:51:07Z</time>
      </trkpt>
      <trkpt lat="46.73961" lon="-1.9925">
        <ele>4.5</ele>
        <time>2020-06-04T08:51:08Z</time>
      </trkpt>
      <trkpt lat="46.73966" lon="-1.99252">
        <ele>4.6</ele>
        <time>2020-06-04T08:51:09Z</time>
      </trkpt>
      <trkpt lat="46.73971" lon="-1.99254">
        <ele>4.6</ele>
        <time>2020-06-04T08:51:10Z</time>
      </trkpt>
      <trkpt lat="46.73975" lon="-1.99255">
        <ele>4.6</ele>
        <time>2020-06-04T08:51:11Z</time>
      </trkpt>
      <trkpt lat="46.73979" lon="-1.99256">
        <ele>4.6</ele>
        <time>2020-06-04T08:51:12Z</time>
      </trkpt>
      <trkpt lat="46.73984" lon="-1.99256">
        <ele>4.7</ele>
        <time>2020-06-04T08:51:13Z</time>
      </trkpt>
      <trkpt lat="46.73989" lon="-1.99258">
        <ele>4.7</ele>
        <time>2020-06-04T08:51:14Z</time>
      </trkpt>
      <trkpt lat="46.73993" lon="-1.99259">
        <ele>4.7</ele>
        <time>2020-06-04T08:51:15Z</time>
      </trkpt>
      <trkpt lat="46.73998" lon="-1.9926">
        <ele>4.7</ele>
        <time>2020-06-04T08:51:16Z</time>
      </trkpt>
      <trkpt lat="46.74002" lon="-1.99262">
        <ele>4.7</ele>
        <time>2020-06-04T08:51:17Z</time>
      </trkpt>
      <trkpt lat="46.74007" lon="-1.99263">
        <ele>4.8</ele>
        <time>2020-06-04T08:51:18Z</time>
      </trkpt>
      <trkpt lat="46.74012" lon="-1.99265">
        <ele>4.8</ele>
        <time>2020-06-04T08:51:19Z</time>
      </trkpt>
      <trkpt lat="46.74016" lon="-1.99267">
        <ele>4.8</ele>
        <time>2020-06-04T08:51:20Z</time>
      </trkpt>
      <trkpt lat="46.74021" lon="-1.99267">
        <ele>4.8</ele>
        <time>2020-06-04T08:51:21Z</time>
      </trkpt>
      <trkpt lat="46.74026" lon="-1.99268">
        <ele>4.8</ele>
        <time>2020-06-04T08:51:22Z</time>
      </trkpt>
      <trkpt lat="46.7403" lon="-1.99267">
        <ele>4.8</ele>
        <time>2020-06-04T08:51:23Z</time>
      </trkpt>
      <trkpt lat="46.74035" lon="-1.99267">
        <ele>4.8</ele>
        <time>2020-06-04T08:51:24Z</time>
      </trkpt>
      <trkpt lat="46.74041" lon="-1.99267">
        <ele>4.8</ele>
        <time>2020-06-04T08:51:25Z</time>
      </trkpt>
      <trkpt lat="46.74045" lon="-1.99268">
        <ele>4.8</ele>
        <time>2020-06-04T08:51:26Z</time>
      </trkpt>
      <trkpt lat="46.74049" lon="-1.99269">
        <ele>4.8</ele>
        <time>2020-06-04T08:51:27Z</time>
      </trkpt>
      <trkpt lat="46.74053" lon="-1.99271">
        <ele>4.8</ele>
        <time>2020-06-04T08:51:28Z</time>
      </trkpt>
      <trkpt lat="46.74057" lon="-1.99273">
        <ele>4.8</ele>
        <time>2020-06-04T08:51:29Z</time>
      </trkpt>
      <trkpt lat="46.7406" lon="-1.99275">
        <ele>4.7</ele>
        <time>2020-06-04T08:51:30Z</time>
      </trkpt>
      <trkpt lat="46.74063" lon="-1.99276">
        <ele>4.7</ele>
        <time>2020-06-04T08:51:31Z</time>
      </trkpt>
      <trkpt lat="46.74067" lon="-1.99276">
        <ele>4.7</ele>
        <time>2020-06-04T08:51:32Z</time>
      </trkpt>
      <trkpt lat="46.74072" lon="-1.99275">
        <ele>4.7</ele>
        <time>2020-06-04T08:51:33Z</time>
      </trkpt>
      <trkpt lat="46.74076" lon="-1.99275">
        <ele>4.6</ele>
        <time>2020-06-04T08:51:34Z</time>
      </trkpt>
      <trkpt lat="46.7408" lon="-1.99276">
        <ele>4.6</ele>
        <time>2020-06-04T08:51:35Z</time>
      </trkpt>
      <trkpt lat="46.74085" lon="-1.99277">
        <ele>4.6</ele>
        <time>2020-06-04T08:51:36Z</time>
      </trkpt>
      <trkpt lat="46.74089" lon="-1.99277">
        <ele>4.6</ele>
        <time>2020-06-04T08:51:37Z</time>
      </trkpt>
      <trkpt lat="46.74095" lon="-1.99276">
        <ele>4.5</ele>
        <time>2020-06-04T08:51:38Z</time>
      </trkpt>
      <trkpt lat="46.74098" lon="-1.99276">
        <ele>4.5</ele>
        <time>2020-06-04T08:51:39Z</time>
      </trkpt>
      <trkpt lat="46.74102" lon="-1.99276">
        <ele>4.5</ele>
        <time>2020-06-04T08:51:40Z</time>
      </trkpt>
      <trkpt lat="46.74105" lon="-1.99277">
        <ele>4.4</ele>
        <time>2020-06-04T08:51:41Z</time>
      </trkpt>
      <trkpt lat="46.74108" lon="-1.99279">
        <ele>4.4</ele>
        <time>2020-06-04T08:51:42Z</time>
      </trkpt>
      <trkpt lat="46.74112" lon="-1.99282">
        <ele>4.4</ele>
        <time>2020-06-04T08:51:43Z</time>
      </trkpt>
      <trkpt lat="46.74115" lon="-1.99286">
        <ele>4.4</ele>
        <time>2020-06-04T08:51:44Z</time>
      </trkpt>
      <trkpt lat="46.74118" lon="-1.99287">
        <ele>4.4</ele>
        <time>2020-06-04T08:51:45Z</time>
      </trkpt>
      <trkpt lat="46.74122" lon="-1.99288">
        <ele>4.4</ele>
        <time>2020-06-04T08:51:46Z</time>
      </trkpt>
      <trkpt lat="46.74127" lon="-1.99289">
        <ele>4.4</ele>
        <time>2020-06-04T08:51:47Z</time>
      </trkpt>
      <trkpt lat="46.74131" lon="-1.99288">
        <ele>4.4</ele>
        <time>2020-06-04T08:51:48Z</time>
      </trkpt>
      <trkpt lat="46.74135" lon="-1.99289">
        <ele>4.4</ele>
        <time>2020-06-04T08:51:49Z</time>
      </trkpt>
      <trkpt lat="46.7414" lon="-1.9929">
        <ele>4.4</ele>
        <time>2020-06-04T08:51:50Z</time>
      </trkpt>
      <trkpt lat="46.74144" lon="-1.99293">
        <ele>4.3</ele>
        <time>2020-06-04T08:51:51Z</time>
      </trkpt>
      <trkpt lat="46.74147" lon="-1.99295">
        <ele>4.3</ele>
        <time>2020-06-04T08:51:52Z</time>
      </trkpt>
      <trkpt lat="46.74148" lon="-1.99299">
        <ele>4.3</ele>
        <time>2020-06-04T08:51:53Z</time>
      </trkpt>
      <trkpt lat="46.74149" lon="-1.99304">
        <ele>4.3</ele>
        <time>2020-06-04T08:51:54Z</time>
      </trkpt>
      <trkpt lat="46.74151" lon="-1.9931">
        <ele>4.3</ele>
        <time>2020-06-04T08:51:55Z</time>
      </trkpt>
      <trkpt lat="46.74154" lon="-1.99314">
        <ele>4.3</ele>
        <time>2020-06-04T08:51:56Z</time>
      </trkpt>
      <trkpt lat="46.74158" lon="-1.99315">
        <ele>4.2</ele>
        <time>2020-06-04T08:51:57Z</time>
      </trkpt>
      <trkpt lat="46.74163" lon="-1.99318">
        <ele>4.2</ele>
        <time>2020-06-04T08:51:58Z</time>
      </trkpt>
      <trkpt lat="46.74167" lon="-1.99322">
        <ele>4.2</ele>
        <time>2020-06-04T08:51:59Z</time>
      </trkpt>
      <trkpt lat="46.74169" lon="-1.99325">
        <ele>4</ele>
        <time>2020-06-04T08:52:00Z</time>
      </trkpt>
      <trkpt lat="46.74171" lon="-1.99328">
        <ele>4</ele>
        <time>2020-06-04T08:52:01Z</time>
      </trkpt>
      <trkpt lat="46.74173" lon="-1.99331">
        <ele>4</ele>
        <time>2020-06-04T08:52:02Z</time>
      </trkpt>
      <trkpt lat="46.74175" lon="-1.99333">
        <ele>4</ele>
        <time>2020-06-04T08:52:03Z</time>
      </trkpt>
      <trkpt lat="46.74179" lon="-1.99335">
        <ele>4</ele>
        <time>2020-06-04T08:52:04Z</time>
      </trkpt>
      <trkpt lat="46.74183" lon="-1.99336">
        <ele>4</ele>
        <time>2020-06-04T08:52:05Z</time>
      </trkpt>
      <trkpt lat="46.74187" lon="-1.9934">
        <ele>4</ele>
        <time>2020-06-04T08:52:06Z</time>
      </trkpt>
      <trkpt lat="46.74192" lon="-1.99343">
        <ele>4</ele>
        <time>2020-06-04T08:52:07Z</time>
      </trkpt>
      <trkpt lat="46.74197" lon="-1.99344">
        <ele>4</ele>
        <time>2020-06-04T08:52:08Z</time>
      </trkpt>
      <trkpt lat="46.74203" lon="-1.99345">
        <ele>4</ele>
        <time>2020-06-04T08:52:09Z</time>
      </trkpt>
      <trkpt lat="46.74206" lon="-1.99347">
        <ele>4.1</ele>
        <time>2020-06-04T08:52:10Z</time>
      </trkpt>
      <trkpt lat="46.74209" lon="-1.99351">
        <ele>4.1</ele>
        <time>2020-06-04T08:52:11Z</time>
      </trkpt>
      <trkpt lat="46.74212" lon="-1.99358">
        <ele>4.2</ele>
        <time>2020-06-04T08:52:12Z</time>
      </trkpt>
      <trkpt lat="46.74213" lon="-1.99364">
        <ele>4.2</ele>
        <time>2020-06-04T08:52:13Z</time>
      </trkpt>
      <trkpt lat="46.74215" lon="-1.99371">
        <ele>4.2</ele>
        <time>2020-06-04T08:52:14Z</time>
      </trkpt>
      <trkpt lat="46.74216" lon="-1.99378">
        <ele>4.2</ele>
        <time>2020-06-04T08:52:15Z</time>
      </trkpt>
      <trkpt lat="46.74216" lon="-1.99386">
        <ele>4.3</ele>
        <time>2020-06-04T08:52:16Z</time>
      </trkpt>
      <trkpt lat="46.74216" lon="-1.99394">
        <ele>4.3</ele>
        <time>2020-06-04T08:52:17Z</time>
      </trkpt>
      <trkpt lat="46.74215" lon="-1.99403">
        <ele>4.3</ele>
        <time>2020-06-04T08:52:18Z</time>
      </trkpt>
      <trkpt lat="46.74215" lon="-1.99411">
        <ele>4.3</ele>
        <time>2020-06-04T08:52:19Z</time>
      </trkpt>
      <trkpt lat="46.74213" lon="-1.99418">
        <ele>4.3</ele>
        <time>2020-06-04T08:52:20Z</time>
      </trkpt>
      <trkpt lat="46.74212" lon="-1.99425">
        <ele>4.3</ele>
        <time>2020-06-04T08:52:21Z</time>
      </trkpt>
      <trkpt lat="46.74211" lon="-1.9943">
        <ele>4.3</ele>
        <time>2020-06-04T08:52:22Z</time>
      </trkpt>
      <trkpt lat="46.7421" lon="-1.99436">
        <ele>4.3</ele>
        <time>2020-06-04T08:52:23Z</time>
      </trkpt>
      <trkpt lat="46.74209" lon="-1.99443">
        <ele>4.3</ele>
        <time>2020-06-04T08:52:24Z</time>
      </trkpt>
      <trkpt lat="46.74208" lon="-1.99451">
        <ele>4.3</ele>
        <time>2020-06-04T08:52:25Z</time>
      </trkpt>
      <trkpt lat="46.74207" lon="-1.99459">
        <ele>4.2</ele>
        <time>2020-06-04T08:52:26Z</time>
      </trkpt>
      <trkpt lat="46.74206" lon="-1.99466">
        <ele>4.2</ele>
        <time>2020-06-04T08:52:27Z</time>
      </trkpt>
      <trkpt lat="46.74203" lon="-1.99473">
        <ele>4.2</ele>
        <time>2020-06-04T08:52:28Z</time>
      </trkpt>
      <trkpt lat="46.74201" lon="-1.9948">
        <ele>4.2</ele>
        <time>2020-06-04T08:52:29Z</time>
      </trkpt>
      <trkpt lat="46.742" lon="-1.99488">
        <ele>4.2</ele>
        <time>2020-06-04T08:52:30Z</time>
      </trkpt>
      <trkpt lat="46.74198" lon="-1.99494">
        <ele>4.2</ele>
        <time>2020-06-04T08:52:31Z</time>
      </trkpt>
      <trkpt lat="46.74197" lon="-1.99501">
        <ele>4.2</ele>
        <time>2020-06-04T08:52:32Z</time>
      </trkpt>
      <trkpt lat="46.74194" lon="-1.99508">
        <ele>4.2</ele>
        <time>2020-06-04T08:52:33Z</time>
      </trkpt>
      <trkpt lat="46.74191" lon="-1.99515">
        <ele>4.2</ele>
        <time>2020-06-04T08:52:34Z</time>
      </trkpt>
      <trkpt lat="46.74189" lon="-1.99524">
        <ele>4.2</ele>
        <time>2020-06-04T08:52:35Z</time>
      </trkpt>
      <trkpt lat="46.74188" lon="-1.99531">
        <ele>4.2</ele>
        <time>2020-06-04T08:52:36Z</time>
      </trkpt>
      <trkpt lat="46.74186" lon="-1.99538">
        <ele>4.2</ele>
        <time>2020-06-04T08:52:37Z</time>
      </trkpt>
      <trkpt lat="46.74183" lon="-1.99545">
        <ele>4.2</ele>
        <time>2020-06-04T08:52:38Z</time>
      </trkpt>
      <trkpt lat="46.74182" lon="-1.99552">
        <ele>4.2</ele>
        <time>2020-06-04T08:52:39Z</time>
      </trkpt>
      <trkpt lat="46.74181" lon="-1.99558">
        <ele>4.2</ele>
        <time>2020-06-04T08:52:40Z</time>
      </trkpt>
      <trkpt lat="46.74179" lon="-1.99566">
        <ele>4.2</ele>
        <time>2020-06-04T08:52:41Z</time>
      </trkpt>
      <trkpt lat="46.74178" lon="-1.99574">
        <ele>4.2</ele>
        <time>2020-06-04T08:52:42Z</time>
      </trkpt>
      <trkpt lat="46.74176" lon="-1.99581">
        <ele>4.2</ele>
        <time>2020-06-04T08:52:43Z</time>
      </trkpt>
      <trkpt lat="46.74174" lon="-1.99589">
        <ele>4.2</ele>
        <time>2020-06-04T08:52:44Z</time>
      </trkpt>
      <trkpt lat="46.74172" lon="-1.99597">
        <ele>4.2</ele>
        <time>2020-06-04T08:52:45Z</time>
      </trkpt>
      <trkpt lat="46.7417" lon="-1.99604">
        <ele>4.2</ele>
        <time>2020-06-04T08:52:46Z</time>
      </trkpt>
      <trkpt lat="46.74167" lon="-1.99612">
        <ele>4.2</ele>
        <time>2020-06-04T08:52:47Z</time>
      </trkpt>
      <trkpt lat="46.74165" lon="-1.9962">
        <ele>4.1</ele>
        <time>2020-06-04T08:52:48Z</time>
      </trkpt>
      <trkpt lat="46.74162" lon="-1.99627">
        <ele>4.1</ele>
        <time>2020-06-04T08:52:49Z</time>
      </trkpt>
      <trkpt lat="46.7416" lon="-1.99635">
        <ele>4.1</ele>
        <time>2020-06-04T08:52:50Z</time>
      </trkpt>
      <trkpt lat="46.74159" lon="-1.99643">
        <ele>4.1</ele>
        <time>2020-06-04T08:52:51Z</time>
      </trkpt>
      <trkpt lat="46.74158" lon="-1.9965">
        <ele>4.1</ele>
        <time>2020-06-04T08:52:52Z</time>
      </trkpt>
      <trkpt lat="46.74157" lon="-1.99659">
        <ele>4.1</ele>
        <time>2020-06-04T08:52:53Z</time>
      </trkpt>
      <trkpt lat="46.74156" lon="-1.99667">
        <ele>4.1</ele>
        <time>2020-06-04T08:52:54Z</time>
      </trkpt>
      <trkpt lat="46.74154" lon="-1.99676">
        <ele>4.1</ele>
        <time>2020-06-04T08:52:55Z</time>
      </trkpt>
      <trkpt lat="46.74153" lon="-1.99684">
        <ele>4.1</ele>
        <time>2020-06-04T08:52:56Z</time>
      </trkpt>
      <trkpt lat="46.74151" lon="-1.99693">
        <ele>4.1</ele>
        <time>2020-06-04T08:52:57Z</time>
      </trkpt>
      <trkpt lat="46.74151" lon="-1.99701">
        <ele>4.1</ele>
        <time>2020-06-04T08:52:58Z</time>
      </trkpt>
      <trkpt lat="46.74151" lon="-1.9971">
        <ele>4.1</ele>
        <time>2020-06-04T08:52:59Z</time>
      </trkpt>
      <trkpt lat="46.7415" lon="-1.99719">
        <ele>4.1</ele>
        <time>2020-06-04T08:53:00Z</time>
      </trkpt>
      <trkpt lat="46.7415" lon="-1.99726">
        <ele>4.1</ele>
        <time>2020-06-04T08:53:01Z</time>
      </trkpt>
      <trkpt lat="46.7415" lon="-1.99734">
        <ele>4.1</ele>
        <time>2020-06-04T08:53:02Z</time>
      </trkpt>
      <trkpt lat="46.7415" lon="-1.99743">
        <ele>4</ele>
        <time>2020-06-04T08:53:03Z</time>
      </trkpt>
      <trkpt lat="46.7415" lon="-1.99751">
        <ele>4</ele>
        <time>2020-06-04T08:53:04Z</time>
      </trkpt>
      <trkpt lat="46.7415" lon="-1.99759">
        <ele>4</ele>
        <time>2020-06-04T08:53:05Z</time>
      </trkpt>
      <trkpt lat="46.74149" lon="-1.99766">
        <ele>4</ele>
        <time>2020-06-04T08:53:06Z</time>
      </trkpt>
      <trkpt lat="46.74147" lon="-1.99773">
        <ele>4</ele>
        <time>2020-06-04T08:53:07Z</time>
      </trkpt>
      <trkpt lat="46.74147" lon="-1.99781">
        <ele>4</ele>
        <time>2020-06-04T08:53:08Z</time>
      </trkpt>
      <trkpt lat="46.74146" lon="-1.9979">
        <ele>3.9</ele>
        <time>2020-06-04T08:53:09Z</time>
      </trkpt>
      <trkpt lat="46.74145" lon="-1.99797">
        <ele>3.9</ele>
        <time>2020-06-04T08:53:10Z</time>
      </trkpt>
      <trkpt lat="46.74144" lon="-1.99804">
        <ele>3.9</ele>
        <time>2020-06-04T08:53:11Z</time>
      </trkpt>
      <trkpt lat="46.74144" lon="-1.99812">
        <ele>3.9</ele>
        <time>2020-06-04T08:53:12Z</time>
      </trkpt>
      <trkpt lat="46.74143" lon="-1.99819">
        <ele>3.9</ele>
        <time>2020-06-04T08:53:13Z</time>
      </trkpt>
      <trkpt lat="46.74143" lon="-1.99827">
        <ele>3.8</ele>
        <time>2020-06-04T08:53:14Z</time>
      </trkpt>
      <trkpt lat="46.74143" lon="-1.99835">
        <ele>3.8</ele>
        <time>2020-06-04T08:53:15Z</time>
      </trkpt>
      <trkpt lat="46.74144" lon="-1.99843">
        <ele>3.8</ele>
        <time>2020-06-04T08:53:16Z</time>
      </trkpt>
      <trkpt lat="46.74142" lon="-1.99851">
        <ele>3.8</ele>
        <time>2020-06-04T08:53:17Z</time>
      </trkpt>
      <trkpt lat="46.74141" lon="-1.9986">
        <ele>3.8</ele>
        <time>2020-06-04T08:53:18Z</time>
      </trkpt>
      <trkpt lat="46.74141" lon="-1.99869">
        <ele>3.8</ele>
        <time>2020-06-04T08:53:19Z</time>
      </trkpt>
      <trkpt lat="46.74141" lon="-1.99878">
        <ele>3.7</ele>
        <time>2020-06-04T08:53:20Z</time>
      </trkpt>
      <trkpt lat="46.7414" lon="-1.99887">
        <ele>3.7</ele>
        <time>2020-06-04T08:53:21Z</time>
      </trkpt>
      <trkpt lat="46.7414" lon="-1.99896">
        <ele>3.7</ele>
        <time>2020-06-04T08:53:22Z</time>
      </trkpt>
      <trkpt lat="46.74139" lon="-1.99904">
        <ele>3.7</ele>
        <time>2020-06-04T08:53:23Z</time>
      </trkpt>
      <trkpt lat="46.74139" lon="-1.99911">
        <ele>3.7</ele>
        <time>2020-06-04T08:53:24Z</time>
      </trkpt>
      <trkpt lat="46.74138" lon="-1.99917">
        <ele>3.7</ele>
        <time>2020-06-04T08:53:25Z</time>
      </trkpt>
      <trkpt lat="46.74137" lon="-1.99925">
        <ele>3.7</ele>
        <time>2020-06-04T08:53:26Z</time>
      </trkpt>
      <trkpt lat="46.74137" lon="-1.99933">
        <ele>3.6</ele>
        <time>2020-06-04T08:53:27Z</time>
      </trkpt>
      <trkpt lat="46.74136" lon="-1.99941">
        <ele>3.6</ele>
        <time>2020-06-04T08:53:28Z</time>
      </trkpt>
      <trkpt lat="46.74137" lon="-1.9995">
        <ele>3.6</ele>
        <time>2020-06-04T08:53:29Z</time>
      </trkpt>
      <trkpt lat="46.74135" lon="-1.99959">
        <ele>3.6</ele>
        <time>2020-06-04T08:53:30Z</time>
      </trkpt>
      <trkpt lat="46.74134" lon="-1.99966">
        <ele>3.6</ele>
        <time>2020-06-04T08:53:31Z</time>
      </trkpt>
      <trkpt lat="46.74134" lon="-1.99975">
        <ele>3.6</ele>
        <time>2020-06-04T08:53:32Z</time>
      </trkpt>
      <trkpt lat="46.74134" lon="-1.99984">
        <ele>3.5</ele>
        <time>2020-06-04T08:53:33Z</time>
      </trkpt>
      <trkpt lat="46.74132" lon="-1.99992">
        <ele>3.5</ele>
        <time>2020-06-04T08:53:34Z</time>
      </trkpt>
      <trkpt lat="46.74131" lon="-2.00001">
        <ele>3.5</ele>
        <time>2020-06-04T08:53:35Z</time>
      </trkpt>
      <trkpt lat="46.7413" lon="-2.00009">
        <ele>3.5</ele>
        <time>2020-06-04T08:53:36Z</time>
      </trkpt>
      <trkpt lat="46.74129" lon="-2.00016">
        <ele>3.4</ele>
        <time>2020-06-04T08:53:37Z</time>
      </trkpt>
      <trkpt lat="46.74129" lon="-2.00024">
        <ele>3.4</ele>
        <time>2020-06-04T08:53:38Z</time>
      </trkpt>
      <trkpt lat="46.74128" lon="-2.0003">
        <ele>3.4</ele>
        <time>2020-06-04T08:53:39Z</time>
      </trkpt>
      <trkpt lat="46.74126" lon="-2.00035">
        <ele>3.4</ele>
        <time>2020-06-04T08:53:40Z</time>
      </trkpt>
      <trkpt lat="46.74126" lon="-2.00043">
        <ele>3.4</ele>
        <time>2020-06-04T08:53:41Z</time>
      </trkpt>
      <trkpt lat="46.74125" lon="-2.0005">
        <ele>3.4</ele>
        <time>2020-06-04T08:53:42Z</time>
      </trkpt>
      <trkpt lat="46.74125" lon="-2.00058">
        <ele>3.4</ele>
        <time>2020-06-04T08:53:43Z</time>
      </trkpt>
      <trkpt lat="46.74123" lon="-2.00065">
        <ele>3.4</ele>
        <time>2020-06-04T08:53:44Z</time>
      </trkpt>
      <trkpt lat="46.74121" lon="-2.00073">
        <ele>3.3</ele>
        <time>2020-06-04T08:53:45Z</time>
      </trkpt>
      <trkpt lat="46.7412" lon="-2.0008">
        <ele>3.3</ele>
        <time>2020-06-04T08:53:46Z</time>
      </trkpt>
      <trkpt lat="46.7412" lon="-2.00087">
        <ele>3.3</ele>
        <time>2020-06-04T08:53:47Z</time>
      </trkpt>
      <trkpt lat="46.74119" lon="-2.00095">
        <ele>3.3</ele>
        <time>2020-06-04T08:53:48Z</time>
      </trkpt>
      <trkpt lat="46.74119" lon="-2.00102">
        <ele>3.3</ele>
        <time>2020-06-04T08:53:49Z</time>
      </trkpt>
      <trkpt lat="46.74118" lon="-2.0011">
        <ele>3.3</ele>
        <time>2020-06-04T08:53:50Z</time>
      </trkpt>
      <trkpt lat="46.74116" lon="-2.00117">
        <ele>3.3</ele>
        <time>2020-06-04T08:53:51Z</time>
      </trkpt>
      <trkpt lat="46.74116" lon="-2.00124">
        <ele>3.3</ele>
        <time>2020-06-04T08:53:52Z</time>
      </trkpt>
      <trkpt lat="46.74114" lon="-2.00132">
        <ele>3.3</ele>
        <time>2020-06-04T08:53:53Z</time>
      </trkpt>
      <trkpt lat="46.74113" lon="-2.0014">
        <ele>3.3</ele>
        <time>2020-06-04T08:53:54Z</time>
      </trkpt>
      <trkpt lat="46.74112" lon="-2.00148">
        <ele>3.3</ele>
        <time>2020-06-04T08:53:55Z</time>
      </trkpt>
      <trkpt lat="46.74111" lon="-2.00156">
        <ele>3.3</ele>
        <time>2020-06-04T08:53:56Z</time>
      </trkpt>
      <trkpt lat="46.74109" lon="-2.00163">
        <ele>3.3</ele>
        <time>2020-06-04T08:53:57Z</time>
      </trkpt>
      <trkpt lat="46.74107" lon="-2.0017">
        <ele>3.4</ele>
        <time>2020-06-04T08:53:58Z</time>
      </trkpt>
      <trkpt lat="46.74106" lon="-2.00179">
        <ele>3.4</ele>
        <time>2020-06-04T08:53:59Z</time>
      </trkpt>
      <trkpt lat="46.74103" lon="-2.00187">
        <ele>3.4</ele>
        <time>2020-06-04T08:54:00Z</time>
      </trkpt>
      <trkpt lat="46.74101" lon="-2.00194">
        <ele>3.4</ele>
        <time>2020-06-04T08:54:01Z</time>
      </trkpt>
      <trkpt lat="46.74099" lon="-2.00202">
        <ele>3.4</ele>
        <time>2020-06-04T08:54:02Z</time>
      </trkpt>
      <trkpt lat="46.74097" lon="-2.0021">
        <ele>3.4</ele>
        <time>2020-06-04T08:54:03Z</time>
      </trkpt>
      <trkpt lat="46.74095" lon="-2.00218">
        <ele>3.5</ele>
        <time>2020-06-04T08:54:04Z</time>
      </trkpt>
      <trkpt lat="46.74092" lon="-2.00226">
        <ele>3.5</ele>
        <time>2020-06-04T08:54:05Z</time>
      </trkpt>
      <trkpt lat="46.7409" lon="-2.00235">
        <ele>3.5</ele>
        <time>2020-06-04T08:54:06Z</time>
      </trkpt>
      <trkpt lat="46.74088" lon="-2.00242">
        <ele>3.5</ele>
        <time>2020-06-04T08:54:07Z</time>
      </trkpt>
      <trkpt lat="46.74085" lon="-2.0025">
        <ele>3.5</ele>
        <time>2020-06-04T08:54:08Z</time>
      </trkpt>
      <trkpt lat="46.74083" lon="-2.00257">
        <ele>3.5</ele>
        <time>2020-06-04T08:54:09Z</time>
      </trkpt>
      <trkpt lat="46.7408" lon="-2.00264">
        <ele>3.5</ele>
        <time>2020-06-04T08:54:10Z</time>
      </trkpt>
      <trkpt lat="46.74078" lon="-2.00271">
        <ele>3.6</ele>
        <time>2020-06-04T08:54:11Z</time>
      </trkpt>
      <trkpt lat="46.74077" lon="-2.00277">
        <ele>3.6</ele>
        <time>2020-06-04T08:54:12Z</time>
      </trkpt>
      <trkpt lat="46.74075" lon="-2.00284">
        <ele>3.5</ele>
        <time>2020-06-04T08:54:13Z</time>
      </trkpt>
      <trkpt lat="46.74075" lon="-2.0029">
        <ele>3.5</ele>
        <time>2020-06-04T08:54:14Z</time>
      </trkpt>
      <trkpt lat="46.74073" lon="-2.00296">
        <ele>3.5</ele>
        <time>2020-06-04T08:54:15Z</time>
      </trkpt>
      <trkpt lat="46.74072" lon="-2.00302">
        <ele>3.5</ele>
        <time>2020-06-04T08:54:16Z</time>
      </trkpt>
      <trkpt lat="46.74071" lon="-2.00308">
        <ele>3.5</ele>
        <time>2020-06-04T08:54:17Z</time>
      </trkpt>
      <trkpt lat="46.74069" lon="-2.00314">
        <ele>3.5</ele>
        <time>2020-06-04T08:54:18Z</time>
      </trkpt>
      <trkpt lat="46.74067" lon="-2.0032">
        <ele>3.6</ele>
        <time>2020-06-04T08:54:19Z</time>
      </trkpt>
      <trkpt lat="46.74065" lon="-2.00326">
        <ele>3.6</ele>
        <time>2020-06-04T08:54:20Z</time>
      </trkpt>
      <trkpt lat="46.74063" lon="-2.00332">
        <ele>3.6</ele>
        <time>2020-06-04T08:54:21Z</time>
      </trkpt>
      <trkpt lat="46.74061" lon="-2.00337">
        <ele>3.6</ele>
        <time>2020-06-04T08:54:22Z</time>
      </trkpt>
      <trkpt lat="46.7406" lon="-2.00344">
        <ele>3.6</ele>
        <time>2020-06-04T08:54:23Z</time>
      </trkpt>
      <trkpt lat="46.74058" lon="-2.0035">
        <ele>3.6</ele>
        <time>2020-06-04T08:54:24Z</time>
      </trkpt>
      <trkpt lat="46.74057" lon="-2.00357">
        <ele>3.6</ele>
        <time>2020-06-04T08:54:25Z</time>
      </trkpt>
      <trkpt lat="46.74056" lon="-2.00364">
        <ele>3.6</ele>
        <time>2020-06-04T08:54:26Z</time>
      </trkpt>
      <trkpt lat="46.74055" lon="-2.00372">
        <ele>3.5</ele>
        <time>2020-06-04T08:54:27Z</time>
      </trkpt>
      <trkpt lat="46.74055" lon="-2.00379">
        <ele>3.5</ele>
        <time>2020-06-04T08:54:28Z</time>
      </trkpt>
      <trkpt lat="46.74054" lon="-2.00386">
        <ele>3.5</ele>
        <time>2020-06-04T08:54:29Z</time>
      </trkpt>
      <trkpt lat="46.74052" lon="-2.00394">
        <ele>3.5</ele>
        <time>2020-06-04T08:54:30Z</time>
      </trkpt>
      <trkpt lat="46.74052" lon="-2.004">
        <ele>3.5</ele>
        <time>2020-06-04T08:54:31Z</time>
      </trkpt>
      <trkpt lat="46.74052" lon="-2.00407">
        <ele>3.5</ele>
        <time>2020-06-04T08:54:32Z</time>
      </trkpt>
      <trkpt lat="46.74051" lon="-2.00413">
        <ele>3.5</ele>
        <time>2020-06-04T08:54:33Z</time>
      </trkpt>
      <trkpt lat="46.74051" lon="-2.0042">
        <ele>3.5</ele>
        <time>2020-06-04T08:54:34Z</time>
      </trkpt>
      <trkpt lat="46.74049" lon="-2.00426">
        <ele>3.5</ele>
        <time>2020-06-04T08:54:35Z</time>
      </trkpt>
      <trkpt lat="46.74049" lon="-2.00434">
        <ele>3.5</ele>
        <time>2020-06-04T08:54:36Z</time>
      </trkpt>
      <trkpt lat="46.74048" lon="-2.00441">
        <ele>3.5</ele>
        <time>2020-06-04T08:54:37Z</time>
      </trkpt>
      <trkpt lat="46.74046" lon="-2.00448">
        <ele>3.5</ele>
        <time>2020-06-04T08:54:38Z</time>
      </trkpt>
      <trkpt lat="46.74045" lon="-2.00455">
        <ele>3.5</ele>
        <time>2020-06-04T08:54:39Z</time>
      </trkpt>
      <trkpt lat="46.74043" lon="-2.00462">
        <ele>3.5</ele>
        <time>2020-06-04T08:54:40Z</time>
      </trkpt>
      <trkpt lat="46.74042" lon="-2.00469">
        <ele>3.5</ele>
        <time>2020-06-04T08:54:41Z</time>
      </trkpt>
      <trkpt lat="46.74041" lon="-2.00478">
        <ele>3.5</ele>
        <time>2020-06-04T08:54:42Z</time>
      </trkpt>
      <trkpt lat="46.74041" lon="-2.00486">
        <ele>3.5</ele>
        <time>2020-06-04T08:54:43Z</time>
      </trkpt>
      <trkpt lat="46.7404" lon="-2.00494">
        <ele>3.4</ele>
        <time>2020-06-04T08:54:44Z</time>
      </trkpt>
      <trkpt lat="46.74039" lon="-2.00501">
        <ele>3.4</ele>
        <time>2020-06-04T08:54:45Z</time>
      </trkpt>
      <trkpt lat="46.74038" lon="-2.00506">
        <ele>3.4</ele>
        <time>2020-06-04T08:54:46Z</time>
      </trkpt>
      <trkpt lat="46.74037" lon="-2.00512">
        <ele>3.4</ele>
        <time>2020-06-04T08:54:47Z</time>
      </trkpt>
      <trkpt lat="46.74035" lon="-2.00518">
        <ele>3.4</ele>
        <time>2020-06-04T08:54:48Z</time>
      </trkpt>
      <trkpt lat="46.74035" lon="-2.00525">
        <ele>3.4</ele>
        <time>2020-06-04T08:54:49Z</time>
      </trkpt>
      <trkpt lat="46.74033" lon="-2.00532">
        <ele>3.4</ele>
        <time>2020-06-04T08:54:50Z</time>
      </trkpt>
      <trkpt lat="46.74033" lon="-2.00539">
        <ele>3.4</ele>
        <time>2020-06-04T08:54:51Z</time>
      </trkpt>
      <trkpt lat="46.74032" lon="-2.00546">
        <ele>3.4</ele>
        <time>2020-06-04T08:54:52Z</time>
      </trkpt>
      <trkpt lat="46.7403" lon="-2.00552">
        <ele>3.4</ele>
        <time>2020-06-04T08:54:53Z</time>
      </trkpt>
      <trkpt lat="46.74029" lon="-2.00558">
        <ele>3.4</ele>
        <time>2020-06-04T08:54:54Z</time>
      </trkpt>
      <trkpt lat="46.74026" lon="-2.00563">
        <ele>3.4</ele>
        <time>2020-06-04T08:54:55Z</time>
      </trkpt>
      <trkpt lat="46.74025" lon="-2.00571">
        <ele>3.4</ele>
        <time>2020-06-04T08:54:56Z</time>
      </trkpt>
      <trkpt lat="46.74024" lon="-2.00579">
        <ele>3.3</ele>
        <time>2020-06-04T08:54:57Z</time>
      </trkpt>
      <trkpt lat="46.74023" lon="-2.00586">
        <ele>3.3</ele>
        <time>2020-06-04T08:54:58Z</time>
      </trkpt>
      <trkpt lat="46.74022" lon="-2.00594">
        <ele>3.3</ele>
        <time>2020-06-04T08:54:59Z</time>
      </trkpt>
      <trkpt lat="46.7402" lon="-2.006">
        <ele>3.3</ele>
        <time>2020-06-04T08:55:00Z</time>
      </trkpt>
      <trkpt lat="46.74019" lon="-2.00607">
        <ele>3.2</ele>
        <time>2020-06-04T08:55:01Z</time>
      </trkpt>
      <trkpt lat="46.74018" lon="-2.00614">
        <ele>3.2</ele>
        <time>2020-06-04T08:55:02Z</time>
      </trkpt>
      <trkpt lat="46.74017" lon="-2.0062">
        <ele>3.2</ele>
        <time>2020-06-04T08:55:03Z</time>
      </trkpt>
      <trkpt lat="46.74017" lon="-2.00627">
        <ele>3.2</ele>
        <time>2020-06-04T08:55:04Z</time>
      </trkpt>
      <trkpt lat="46.74018" lon="-2.00632">
        <ele>3.2</ele>
        <time>2020-06-04T08:55:05Z</time>
      </trkpt>
      <trkpt lat="46.74018" lon="-2.00638">
        <ele>3.2</ele>
        <time>2020-06-04T08:55:06Z</time>
      </trkpt>
      <trkpt lat="46.74017" lon="-2.00643">
        <ele>3.2</ele>
        <time>2020-06-04T08:55:07Z</time>
      </trkpt>
      <trkpt lat="46.74015" lon="-2.00648">
        <ele>3.2</ele>
        <time>2020-06-04T08:55:08Z</time>
      </trkpt>
      <trkpt lat="46.74015" lon="-2.00654">
        <ele>3.2</ele>
        <time>2020-06-04T08:55:09Z</time>
      </trkpt>
      <trkpt lat="46.74015" lon="-2.00661">
        <ele>3.1</ele>
        <time>2020-06-04T08:55:10Z</time>
      </trkpt>
      <trkpt lat="46.74016" lon="-2.00666">
        <ele>3.1</ele>
        <time>2020-06-04T08:55:11Z</time>
      </trkpt>
      <trkpt lat="46.74017" lon="-2.00672">
        <ele>3.1</ele>
        <time>2020-06-04T08:55:12Z</time>
      </trkpt>
      <trkpt lat="46.7402" lon="-2.00676">
        <ele>3.1</ele>
        <time>2020-06-04T08:55:13Z</time>
      </trkpt>
      <trkpt lat="46.74025" lon="-2.00676">
        <ele>3.1</ele>
        <time>2020-06-04T08:55:14Z</time>
      </trkpt>
      <trkpt lat="46.7403" lon="-2.00677">
        <ele>3.1</ele>
        <time>2020-06-04T08:55:15Z</time>
      </trkpt>
      <trkpt lat="46.74034" lon="-2.00677">
        <ele>3.2</ele>
        <time>2020-06-04T08:55:16Z</time>
      </trkpt>
      <trkpt lat="46.74038" lon="-2.00678">
        <ele>3.2</ele>
        <time>2020-06-04T08:55:17Z</time>
      </trkpt>
      <trkpt lat="46.74042" lon="-2.0068">
        <ele>3.2</ele>
        <time>2020-06-04T08:55:18Z</time>
      </trkpt>
      <trkpt lat="46.74046" lon="-2.0068">
        <ele>3.2</ele>
        <time>2020-06-04T08:55:19Z</time>
      </trkpt>
      <trkpt lat="46.7405" lon="-2.00679">
        <ele>3.3</ele>
        <time>2020-06-04T08:55:20Z</time>
      </trkpt>
      <trkpt lat="46.74056" lon="-2.00678">
        <ele>3.3</ele>
        <time>2020-06-04T08:55:21Z</time>
      </trkpt>
      <trkpt lat="46.7406" lon="-2.00678">
        <ele>3.3</ele>
        <time>2020-06-04T08:55:22Z</time>
      </trkpt>
      <trkpt lat="46.74064" lon="-2.00678">
        <ele>3.3</ele>
        <time>2020-06-04T08:55:23Z</time>
      </trkpt>
      <trkpt lat="46.74069" lon="-2.00678">
        <ele>3.3</ele>
        <time>2020-06-04T08:55:24Z</time>
      </trkpt>
      <trkpt lat="46.74072" lon="-2.00677">
        <ele>3.3</ele>
        <time>2020-06-04T08:55:25Z</time>
      </trkpt>
      <trkpt lat="46.74076" lon="-2.00678">
        <ele>3.3</ele>
        <time>2020-06-04T08:55:26Z</time>
      </trkpt>
      <trkpt lat="46.7408" lon="-2.00678">
        <ele>3.3</ele>
        <time>2020-06-04T08:55:27Z</time>
      </trkpt>
      <trkpt lat="46.74083" lon="-2.00679">
        <ele>3.3</ele>
        <time>2020-06-04T08:55:28Z</time>
      </trkpt>
      <trkpt lat="46.74087" lon="-2.0068">
        <ele>3.3</ele>
        <time>2020-06-04T08:55:29Z</time>
      </trkpt>
      <trkpt lat="46.74091" lon="-2.00682">
        <ele>3.3</ele>
        <time>2020-06-04T08:55:30Z</time>
      </trkpt>
      <trkpt lat="46.74095" lon="-2.00685">
        <ele>3.3</ele>
        <time>2020-06-04T08:55:31Z</time>
      </trkpt>
      <trkpt lat="46.741" lon="-2.00687">
        <ele>3.3</ele>
        <time>2020-06-04T08:55:32Z</time>
      </trkpt>
      <trkpt lat="46.74105" lon="-2.00689">
        <ele>3.3</ele>
        <time>2020-06-04T08:55:33Z</time>
      </trkpt>
      <trkpt lat="46.7411" lon="-2.00691">
        <ele>3.3</ele>
        <time>2020-06-04T08:55:34Z</time>
      </trkpt>
      <trkpt lat="46.74115" lon="-2.00694">
        <ele>3.3</ele>
        <time>2020-06-04T08:55:35Z</time>
      </trkpt>
      <trkpt lat="46.74121" lon="-2.00696">
        <ele>3.4</ele>
        <time>2020-06-04T08:55:36Z</time>
      </trkpt>
      <trkpt lat="46.74126" lon="-2.00701">
        <ele>3.4</ele>
        <time>2020-06-04T08:55:37Z</time>
      </trkpt>
      <trkpt lat="46.74131" lon="-2.00705">
        <ele>3.4</ele>
        <time>2020-06-04T08:55:38Z</time>
      </trkpt>
      <trkpt lat="46.74136" lon="-2.00708">
        <ele>3.4</ele>
        <time>2020-06-04T08:55:39Z</time>
      </trkpt>
      <trkpt lat="46.74141" lon="-2.00711">
        <ele>3.3</ele>
        <time>2020-06-04T08:55:40Z</time>
      </trkpt>
      <trkpt lat="46.74146" lon="-2.00714">
        <ele>3.3</ele>
        <time>2020-06-04T08:55:41Z</time>
      </trkpt>
      <trkpt lat="46.74151" lon="-2.00716">
        <ele>3.3</ele>
        <time>2020-06-04T08:55:42Z</time>
      </trkpt>
      <trkpt lat="46.74156" lon="-2.00719">
        <ele>3.3</ele>
        <time>2020-06-04T08:55:43Z</time>
      </trkpt>
      <trkpt lat="46.74159" lon="-2.00722">
        <ele>3.3</ele>
        <time>2020-06-04T08:55:44Z</time>
      </trkpt>
      <trkpt lat="46.74163" lon="-2.00724">
        <ele>3.3</ele>
        <time>2020-06-04T08:55:45Z</time>
      </trkpt>
      <trkpt lat="46.74167" lon="-2.00727">
        <ele>3.3</ele>
        <time>2020-06-04T08:55:46Z</time>
      </trkpt>
      <trkpt lat="46.74172" lon="-2.00731">
        <ele>3.3</ele>
        <time>2020-06-04T08:55:47Z</time>
      </trkpt>
      <trkpt lat="46.74176" lon="-2.00734">
        <ele>3.3</ele>
        <time>2020-06-04T08:55:48Z</time>
      </trkpt>
      <trkpt lat="46.74181" lon="-2.00738">
        <ele>3.3</ele>
        <time>2020-06-04T08:55:49Z</time>
      </trkpt>
      <trkpt lat="46.74186" lon="-2.00741">
        <ele>3.3</ele>
        <time>2020-06-04T08:55:50Z</time>
      </trkpt>
      <trkpt lat="46.7419" lon="-2.00743">
        <ele>3.3</ele>
        <time>2020-06-04T08:55:51Z</time>
      </trkpt>
      <trkpt lat="46.74194" lon="-2.00746">
        <ele>3.3</ele>
        <time>2020-06-04T08:55:52Z</time>
      </trkpt>
      <trkpt lat="46.74198" lon="-2.00749">
        <ele>3.3</ele>
        <time>2020-06-04T08:55:53Z</time>
      </trkpt>
      <trkpt lat="46.74203" lon="-2.00751">
        <ele>3.3</ele>
        <time>2020-06-04T08:55:54Z</time>
      </trkpt>
      <trkpt lat="46.74208" lon="-2.00754">
        <ele>3.2</ele>
        <time>2020-06-04T08:55:55Z</time>
      </trkpt>
      <trkpt lat="46.74212" lon="-2.00756">
        <ele>3.2</ele>
        <time>2020-06-04T08:55:56Z</time>
      </trkpt>
      <trkpt lat="46.74217" lon="-2.00759">
        <ele>3.2</ele>
        <time>2020-06-04T08:55:57Z</time>
      </trkpt>
      <trkpt lat="46.74221" lon="-2.00762">
        <ele>3.2</ele>
        <time>2020-06-04T08:55:58Z</time>
      </trkpt>
      <trkpt lat="46.74226" lon="-2.00763">
        <ele>3.2</ele>
        <time>2020-06-04T08:55:59Z</time>
      </trkpt>
      <trkpt lat="46.7423" lon="-2.00766">
        <ele>3.1</ele>
        <time>2020-06-04T08:56:00Z</time>
      </trkpt>
      <trkpt lat="46.74235" lon="-2.00769">
        <ele>3.1</ele>
        <time>2020-06-04T08:56:01Z</time>
      </trkpt>
      <trkpt lat="46.74239" lon="-2.00772">
        <ele>3.1</ele>
        <time>2020-06-04T08:56:02Z</time>
      </trkpt>
      <trkpt lat="46.74243" lon="-2.00774">
        <ele>3.1</ele>
        <time>2020-06-04T08:56:03Z</time>
      </trkpt>
      <trkpt lat="46.74248" lon="-2.00776">
        <ele>3.1</ele>
        <time>2020-06-04T08:56:04Z</time>
      </trkpt>
      <trkpt lat="46.74253" lon="-2.00779">
        <ele>3.1</ele>
        <time>2020-06-04T08:56:05Z</time>
      </trkpt>
      <trkpt lat="46.74257" lon="-2.00782">
        <ele>3.1</ele>
        <time>2020-06-04T08:56:06Z</time>
      </trkpt>
      <trkpt lat="46.74262" lon="-2.00785">
        <ele>3.1</ele>
        <time>2020-06-04T08:56:07Z</time>
      </trkpt>
      <trkpt lat="46.74267" lon="-2.00788">
        <ele>3.1</ele>
        <time>2020-06-04T08:56:08Z</time>
      </trkpt>
      <trkpt lat="46.74271" lon="-2.00791">
        <ele>3.1</ele>
        <time>2020-06-04T08:56:09Z</time>
      </trkpt>
      <trkpt lat="46.74275" lon="-2.00795">
        <ele>3.1</ele>
        <time>2020-06-04T08:56:10Z</time>
      </trkpt>
      <trkpt lat="46.7428" lon="-2.00797">
        <ele>3.1</ele>
        <time>2020-06-04T08:56:11Z</time>
      </trkpt>
      <trkpt lat="46.74285" lon="-2.00799">
        <ele>3.1</ele>
        <time>2020-06-04T08:56:12Z</time>
      </trkpt>
      <trkpt lat="46.7429" lon="-2.00801">
        <ele>3.1</ele>
        <time>2020-06-04T08:56:13Z</time>
      </trkpt>
      <trkpt lat="46.74294" lon="-2.00803">
        <ele>3.1</ele>
        <time>2020-06-04T08:56:14Z</time>
      </trkpt>
      <trkpt lat="46.74298" lon="-2.00806">
        <ele>3.1</ele>
        <time>2020-06-04T08:56:15Z</time>
      </trkpt>
      <trkpt lat="46.74302" lon="-2.00808">
        <ele>3.1</ele>
        <time>2020-06-04T08:56:16Z</time>
      </trkpt>
      <trkpt lat="46.74306" lon="-2.0081">
        <ele>3.1</ele>
        <time>2020-06-04T08:56:17Z</time>
      </trkpt>
      <trkpt lat="46.74309" lon="-2.00813">
        <ele>3.1</ele>
        <time>2020-06-04T08:56:18Z</time>
      </trkpt>
      <trkpt lat="46.74311" lon="-2.00816">
        <ele>3.1</ele>
        <time>2020-06-04T08:56:19Z</time>
      </trkpt>
      <trkpt lat="46.74312" lon="-2.00821">
        <ele>3.1</ele>
        <time>2020-06-04T08:56:20Z</time>
      </trkpt>
      <trkpt lat="46.74314" lon="-2.00825">
        <ele>3.1</ele>
        <time>2020-06-04T08:56:21Z</time>
      </trkpt>
      <trkpt lat="46.74316" lon="-2.00829">
        <ele>3.1</ele>
        <time>2020-06-04T08:56:22Z</time>
      </trkpt>
      <trkpt lat="46.74318" lon="-2.00835">
        <ele>3.1</ele>
        <time>2020-06-04T08:56:23Z</time>
      </trkpt>
      <trkpt lat="46.74321" lon="-2.0084">
        <ele>3.2</ele>
        <time>2020-06-04T08:56:24Z</time>
      </trkpt>
      <trkpt lat="46.74324" lon="-2.00845">
        <ele>3.2</ele>
        <time>2020-06-04T08:56:25Z</time>
      </trkpt>
      <trkpt lat="46.74327" lon="-2.0085">
        <ele>3.2</ele>
        <time>2020-06-04T08:56:26Z</time>
      </trkpt>
      <trkpt lat="46.7433" lon="-2.00856">
        <ele>3.2</ele>
        <time>2020-06-04T08:56:27Z</time>
      </trkpt>
      <trkpt lat="46.74335" lon="-2.00861">
        <ele>3.2</ele>
        <time>2020-06-04T08:56:28Z</time>
      </trkpt>
      <trkpt lat="46.74339" lon="-2.00865">
        <ele>3.2</ele>
        <time>2020-06-04T08:56:29Z</time>
      </trkpt>
      <trkpt lat="46.74343" lon="-2.00869">
        <ele>3.2</ele>
        <time>2020-06-04T08:56:30Z</time>
      </trkpt>
      <trkpt lat="46.74347" lon="-2.00875">
        <ele>3.2</ele>
        <time>2020-06-04T08:56:31Z</time>
      </trkpt>
      <trkpt lat="46.74351" lon="-2.00879">
        <ele>3.2</ele>
        <time>2020-06-04T08:56:32Z</time>
      </trkpt>
      <trkpt lat="46.74354" lon="-2.00884">
        <ele>3.3</ele>
        <time>2020-06-04T08:56:33Z</time>
      </trkpt>
      <trkpt lat="46.74358" lon="-2.00889">
        <ele>3.3</ele>
        <time>2020-06-04T08:56:34Z</time>
      </trkpt>
      <trkpt lat="46.74362" lon="-2.00893">
        <ele>3.3</ele>
        <time>2020-06-04T08:56:35Z</time>
      </trkpt>
      <trkpt lat="46.74366" lon="-2.00897">
        <ele>3.3</ele>
        <time>2020-06-04T08:56:36Z</time>
      </trkpt>
      <trkpt lat="46.7437" lon="-2.009">
        <ele>3.3</ele>
        <time>2020-06-04T08:56:37Z</time>
      </trkpt>
      <trkpt lat="46.74374" lon="-2.00904">
        <ele>3.3</ele>
        <time>2020-06-04T08:56:38Z</time>
      </trkpt>
      <trkpt lat="46.74378" lon="-2.00908">
        <ele>3.3</ele>
        <time>2020-06-04T08:56:39Z</time>
      </trkpt>
      <trkpt lat="46.74383" lon="-2.00912">
        <ele>3.4</ele>
        <time>2020-06-04T08:56:40Z</time>
      </trkpt>
      <trkpt lat="46.74386" lon="-2.00916">
        <ele>3.4</ele>
        <time>2020-06-04T08:56:41Z</time>
      </trkpt>
      <trkpt lat="46.7439" lon="-2.00919">
        <ele>3.4</ele>
        <time>2020-06-04T08:56:42Z</time>
      </trkpt>
      <trkpt lat="46.74394" lon="-2.00922">
        <ele>3.4</ele>
        <time>2020-06-04T08:56:43Z</time>
      </trkpt>
      <trkpt lat="46.74398" lon="-2.00925">
        <ele>3.4</ele>
        <time>2020-06-04T08:56:44Z</time>
      </trkpt>
      <trkpt lat="46.74402" lon="-2.00929">
        <ele>3.5</ele>
        <time>2020-06-04T08:56:45Z</time>
      </trkpt>
      <trkpt lat="46.74407" lon="-2.00932">
        <ele>3.5</ele>
        <time>2020-06-04T08:56:46Z</time>
      </trkpt>
      <trkpt lat="46.74411" lon="-2.00935">
        <ele>3.5</ele>
        <time>2020-06-04T08:56:47Z</time>
      </trkpt>
      <trkpt lat="46.74416" lon="-2.00937">
        <ele>3.5</ele>
        <time>2020-06-04T08:56:48Z</time>
      </trkpt>
      <trkpt lat="46.7442" lon="-2.0094">
        <ele>3.5</ele>
        <time>2020-06-04T08:56:49Z</time>
      </trkpt>
      <trkpt lat="46.74424" lon="-2.00944">
        <ele>3.5</ele>
        <time>2020-06-04T08:56:50Z</time>
      </trkpt>
      <trkpt lat="46.74429" lon="-2.00947">
        <ele>3.6</ele>
        <time>2020-06-04T08:56:51Z</time>
      </trkpt>
      <trkpt lat="46.74432" lon="-2.0095">
        <ele>3.6</ele>
        <time>2020-06-04T08:56:52Z</time>
      </trkpt>
      <trkpt lat="46.74435" lon="-2.00953">
        <ele>3.6</ele>
        <time>2020-06-04T08:56:53Z</time>
      </trkpt>
      <trkpt lat="46.74439" lon="-2.00956">
        <ele>3.6</ele>
        <time>2020-06-04T08:56:54Z</time>
      </trkpt>
      <trkpt lat="46.74442" lon="-2.0096">
        <ele>3.6</ele>
        <time>2020-06-04T08:56:55Z</time>
      </trkpt>
      <trkpt lat="46.74446" lon="-2.00962">
        <ele>3.6</ele>
        <time>2020-06-04T08:56:56Z</time>
      </trkpt>
      <trkpt lat="46.7445" lon="-2.00966">
        <ele>3.6</ele>
        <time>2020-06-04T08:56:57Z</time>
      </trkpt>
      <trkpt lat="46.74454" lon="-2.00969">
        <ele>3.6</ele>
        <time>2020-06-04T08:56:58Z</time>
      </trkpt>
      <trkpt lat="46.74458" lon="-2.00972">
        <ele>3.7</ele>
        <time>2020-06-04T08:56:59Z</time>
      </trkpt>
      <trkpt lat="46.74462" lon="-2.00975">
        <ele>3.7</ele>
        <time>2020-06-04T08:57:00Z</time>
      </trkpt>
      <trkpt lat="46.74465" lon="-2.00979">
        <ele>3.7</ele>
        <time>2020-06-04T08:57:01Z</time>
      </trkpt>
      <trkpt lat="46.74469" lon="-2.00982">
        <ele>3.7</ele>
        <time>2020-06-04T08:57:02Z</time>
      </trkpt>
      <trkpt lat="46.74473" lon="-2.00987">
        <ele>3.7</ele>
        <time>2020-06-04T08:57:03Z</time>
      </trkpt>
      <trkpt lat="46.74477" lon="-2.0099">
        <ele>3.7</ele>
        <time>2020-06-04T08:57:04Z</time>
      </trkpt>
      <trkpt lat="46.7448" lon="-2.00993">
        <ele>3.7</ele>
        <time>2020-06-04T08:57:05Z</time>
      </trkpt>
      <trkpt lat="46.74484" lon="-2.00997">
        <ele>3.7</ele>
        <time>2020-06-04T08:57:06Z</time>
      </trkpt>
      <trkpt lat="46.74488" lon="-2.01001">
        <ele>3.7</ele>
        <time>2020-06-04T08:57:07Z</time>
      </trkpt>
      <trkpt lat="46.74492" lon="-2.01005">
        <ele>3.8</ele>
        <time>2020-06-04T08:57:08Z</time>
      </trkpt>
      <trkpt lat="46.74497" lon="-2.01008">
        <ele>3.8</ele>
        <time>2020-06-04T08:57:09Z</time>
      </trkpt>
      <trkpt lat="46.74501" lon="-2.01011">
        <ele>3.8</ele>
        <time>2020-06-04T08:57:10Z</time>
      </trkpt>
      <trkpt lat="46.74505" lon="-2.01014">
        <ele>3.8</ele>
        <time>2020-06-04T08:57:11Z</time>
      </trkpt>
      <trkpt lat="46.74508" lon="-2.01017">
        <ele>3.8</ele>
        <time>2020-06-04T08:57:12Z</time>
      </trkpt>
      <trkpt lat="46.74512" lon="-2.0102">
        <ele>3.9</ele>
        <time>2020-06-04T08:57:13Z</time>
      </trkpt>
      <trkpt lat="46.74516" lon="-2.01023">
        <ele>3.9</ele>
        <time>2020-06-04T08:57:14Z</time>
      </trkpt>
      <trkpt lat="46.7452" lon="-2.01026">
        <ele>3.9</ele>
        <time>2020-06-04T08:57:15Z</time>
      </trkpt>
      <trkpt lat="46.74524" lon="-2.0103">
        <ele>3.9</ele>
        <time>2020-06-04T08:57:16Z</time>
      </trkpt>
      <trkpt lat="46.74528" lon="-2.01034">
        <ele>3.9</ele>
        <time>2020-06-04T08:57:17Z</time>
      </trkpt>
      <trkpt lat="46.74531" lon="-2.01037">
        <ele>4</ele>
        <time>2020-06-04T08:57:18Z</time>
      </trkpt>
      <trkpt lat="46.74534" lon="-2.01041">
        <ele>4</ele>
        <time>2020-06-04T08:57:19Z</time>
      </trkpt>
      <trkpt lat="46.74537" lon="-2.01046">
        <ele>4</ele>
        <time>2020-06-04T08:57:20Z</time>
      </trkpt>
      <trkpt lat="46.74541" lon="-2.0105">
        <ele>4</ele>
        <time>2020-06-04T08:57:21Z</time>
      </trkpt>
      <trkpt lat="46.74544" lon="-2.01054">
        <ele>4</ele>
        <time>2020-06-04T08:57:22Z</time>
      </trkpt>
      <trkpt lat="46.74549" lon="-2.01059">
        <ele>4</ele>
        <time>2020-06-04T08:57:23Z</time>
      </trkpt>
      <trkpt lat="46.74553" lon="-2.01063">
        <ele>4</ele>
        <time>2020-06-04T08:57:24Z</time>
      </trkpt>
      <trkpt lat="46.74558" lon="-2.01069">
        <ele>4.1</ele>
        <time>2020-06-04T08:57:25Z</time>
      </trkpt>
      <trkpt lat="46.74563" lon="-2.01072">
        <ele>4.1</ele>
        <time>2020-06-04T08:57:26Z</time>
      </trkpt>
      <trkpt lat="46.74567" lon="-2.01077">
        <ele>4.2</ele>
        <time>2020-06-04T08:57:27Z</time>
      </trkpt>
      <trkpt lat="46.7457" lon="-2.01081">
        <ele>4.2</ele>
        <time>2020-06-04T08:57:28Z</time>
      </trkpt>
      <trkpt lat="46.74573" lon="-2.01085">
        <ele>4.2</ele>
        <time>2020-06-04T08:57:29Z</time>
      </trkpt>
      <trkpt lat="46.74576" lon="-2.01089">
        <ele>4.3</ele>
        <time>2020-06-04T08:57:30Z</time>
      </trkpt>
      <trkpt lat="46.7458" lon="-2.01094">
        <ele>4.4</ele>
        <time>2020-06-04T08:57:31Z</time>
      </trkpt>
      <trkpt lat="46.74584" lon="-2.01098">
        <ele>4.4</ele>
        <time>2020-06-04T08:57:32Z</time>
      </trkpt>
      <trkpt lat="46.74588" lon="-2.01103">
        <ele>4.5</ele>
        <time>2020-06-04T08:57:33Z</time>
      </trkpt>
      <trkpt lat="46.74592" lon="-2.01107">
        <ele>4.6</ele>
        <time>2020-06-04T08:57:34Z</time>
      </trkpt>
      <trkpt lat="46.74596" lon="-2.01111">
        <ele>4.7</ele>
        <time>2020-06-04T08:57:35Z</time>
      </trkpt>
      <trkpt lat="46.746" lon="-2.01115">
        <ele>4.8</ele>
        <time>2020-06-04T08:57:36Z</time>
      </trkpt>
      <trkpt lat="46.74603" lon="-2.0112">
        <ele>4.8</ele>
        <time>2020-06-04T08:57:37Z</time>
      </trkpt>
      <trkpt lat="46.74606" lon="-2.01125">
        <ele>4.9</ele>
        <time>2020-06-04T08:57:38Z</time>
      </trkpt>
      <trkpt lat="46.7461" lon="-2.0113">
        <ele>4.9</ele>
        <time>2020-06-04T08:57:39Z</time>
      </trkpt>
      <trkpt lat="46.74614" lon="-2.01135">
        <ele>5</ele>
        <time>2020-06-04T08:57:40Z</time>
      </trkpt>
      <trkpt lat="46.74618" lon="-2.0114">
        <ele>5</ele>
        <time>2020-06-04T08:57:41Z</time>
      </trkpt>
      <trkpt lat="46.74623" lon="-2.01145">
        <ele>5</ele>
        <time>2020-06-04T08:57:42Z</time>
      </trkpt>
      <trkpt lat="46.74626" lon="-2.01149">
        <ele>5</ele>
        <time>2020-06-04T08:57:43Z</time>
      </trkpt>
      <trkpt lat="46.74629" lon="-2.01153">
        <ele>5.1</ele>
        <time>2020-06-04T08:57:44Z</time>
      </trkpt>
      <trkpt lat="46.74632" lon="-2.01156">
        <ele>5.1</ele>
        <time>2020-06-04T08:57:45Z</time>
      </trkpt>
      <trkpt lat="46.74636" lon="-2.01161">
        <ele>5.1</ele>
        <time>2020-06-04T08:57:46Z</time>
      </trkpt>
      <trkpt lat="46.74639" lon="-2.01165">
        <ele>5.1</ele>
        <time>2020-06-04T08:57:47Z</time>
      </trkpt>
      <trkpt lat="46.74641" lon="-2.0117">
        <ele>5.1</ele>
        <time>2020-06-04T08:57:48Z</time>
      </trkpt>
      <trkpt lat="46.74644" lon="-2.01174">
        <ele>5.1</ele>
        <time>2020-06-04T08:57:49Z</time>
      </trkpt>
      <trkpt lat="46.74648" lon="-2.01178">
        <ele>5.1</ele>
        <time>2020-06-04T08:57:50Z</time>
      </trkpt>
      <trkpt lat="46.74652" lon="-2.01181">
        <ele>5.1</ele>
        <time>2020-06-04T08:57:51Z</time>
      </trkpt>
      <trkpt lat="46.74655" lon="-2.01185">
        <ele>5.1</ele>
        <time>2020-06-04T08:57:52Z</time>
      </trkpt>
      <trkpt lat="46.74659" lon="-2.01189">
        <ele>5.1</ele>
        <time>2020-06-04T08:57:53Z</time>
      </trkpt>
      <trkpt lat="46.74663" lon="-2.01192">
        <ele>5.1</ele>
        <time>2020-06-04T08:57:54Z</time>
      </trkpt>
      <trkpt lat="46.74666" lon="-2.01196">
        <ele>5.1</ele>
        <time>2020-06-04T08:57:55Z</time>
      </trkpt>
      <trkpt lat="46.74671" lon="-2.01199">
        <ele>5.1</ele>
        <time>2020-06-04T08:57:56Z</time>
      </trkpt>
      <trkpt lat="46.74675" lon="-2.01202">
        <ele>5.2</ele>
        <time>2020-06-04T08:57:57Z</time>
      </trkpt>
      <trkpt lat="46.74679" lon="-2.01205">
        <ele>5.2</ele>
        <time>2020-06-04T08:57:58Z</time>
      </trkpt>
      <trkpt lat="46.74683" lon="-2.01207">
        <ele>5.3</ele>
        <time>2020-06-04T08:57:59Z</time>
      </trkpt>
      <trkpt lat="46.74686" lon="-2.0121">
        <ele>5.3</ele>
        <time>2020-06-04T08:58:00Z</time>
      </trkpt>
      <trkpt lat="46.74691" lon="-2.01212">
        <ele>5.3</ele>
        <time>2020-06-04T08:58:01Z</time>
      </trkpt>
      <trkpt lat="46.74696" lon="-2.01216">
        <ele>5.4</ele>
        <time>2020-06-04T08:58:02Z</time>
      </trkpt>
      <trkpt lat="46.747" lon="-2.0122">
        <ele>5.4</ele>
        <time>2020-06-04T08:58:03Z</time>
      </trkpt>
      <trkpt lat="46.74705" lon="-2.01223">
        <ele>5.4</ele>
        <time>2020-06-04T08:58:04Z</time>
      </trkpt>
      <trkpt lat="46.74709" lon="-2.01226">
        <ele>5.4</ele>
        <time>2020-06-04T08:58:05Z</time>
      </trkpt>
      <trkpt lat="46.74713" lon="-2.01229">
        <ele>5.4</ele>
        <time>2020-06-04T08:58:06Z</time>
      </trkpt>
      <trkpt lat="46.74716" lon="-2.01232">
        <ele>5.4</ele>
        <time>2020-06-04T08:58:07Z</time>
      </trkpt>
      <trkpt lat="46.74721" lon="-2.01234">
        <ele>5.4</ele>
        <time>2020-06-04T08:58:08Z</time>
      </trkpt>
      <trkpt lat="46.74724" lon="-2.01236">
        <ele>5.4</ele>
        <time>2020-06-04T08:58:09Z</time>
      </trkpt>
      <trkpt lat="46.74728" lon="-2.01239">
        <ele>5.4</ele>
        <time>2020-06-04T08:58:10Z</time>
      </trkpt>
      <trkpt lat="46.74733" lon="-2.01242">
        <ele>5.4</ele>
        <time>2020-06-04T08:58:11Z</time>
      </trkpt>
      <trkpt lat="46.74737" lon="-2.01245">
        <ele>5.4</ele>
        <time>2020-06-04T08:58:12Z</time>
      </trkpt>
      <trkpt lat="46.74742" lon="-2.01248">
        <ele>5.4</ele>
        <time>2020-06-04T08:58:13Z</time>
      </trkpt>
      <trkpt lat="46.74747" lon="-2.0125">
        <ele>5.4</ele>
        <time>2020-06-04T08:58:14Z</time>
      </trkpt>
      <trkpt lat="46.74752" lon="-2.01253">
        <ele>5.4</ele>
        <time>2020-06-04T08:58:15Z</time>
      </trkpt>
      <trkpt lat="46.74757" lon="-2.01255">
        <ele>5.4</ele>
        <time>2020-06-04T08:58:16Z</time>
      </trkpt>
      <trkpt lat="46.74762" lon="-2.01258">
        <ele>5.4</ele>
        <time>2020-06-04T08:58:17Z</time>
      </trkpt>
      <trkpt lat="46.74766" lon="-2.01261">
        <ele>5.4</ele>
        <time>2020-06-04T08:58:18Z</time>
      </trkpt>
      <trkpt lat="46.7477" lon="-2.01264">
        <ele>5.4</ele>
        <time>2020-06-04T08:58:19Z</time>
      </trkpt>
      <trkpt lat="46.74774" lon="-2.01269">
        <ele>5.4</ele>
        <time>2020-06-04T08:58:20Z</time>
      </trkpt>
      <trkpt lat="46.74778" lon="-2.01272">
        <ele>5.4</ele>
        <time>2020-06-04T08:58:21Z</time>
      </trkpt>
      <trkpt lat="46.74782" lon="-2.01276">
        <ele>5.4</ele>
        <time>2020-06-04T08:58:22Z</time>
      </trkpt>
      <trkpt lat="46.74787" lon="-2.01278">
        <ele>5.4</ele>
        <time>2020-06-04T08:58:23Z</time>
      </trkpt>
      <trkpt lat="46.74791" lon="-2.0128">
        <ele>5.3</ele>
        <time>2020-06-04T08:58:24Z</time>
      </trkpt>
      <trkpt lat="46.74795" lon="-2.01284">
        <ele>5.3</ele>
        <time>2020-06-04T08:58:25Z</time>
      </trkpt>
      <trkpt lat="46.74799" lon="-2.01287">
        <ele>5.3</ele>
        <time>2020-06-04T08:58:26Z</time>
      </trkpt>
      <trkpt lat="46.74805" lon="-2.01289">
        <ele>5.3</ele>
        <time>2020-06-04T08:58:27Z</time>
      </trkpt>
      <trkpt lat="46.7481" lon="-2.01291">
        <ele>5.3</ele>
        <time>2020-06-04T08:58:28Z</time>
      </trkpt>
      <trkpt lat="46.74815" lon="-2.01294">
        <ele>5.3</ele>
        <time>2020-06-04T08:58:29Z</time>
      </trkpt>
      <trkpt lat="46.74819" lon="-2.01296">
        <ele>5.3</ele>
        <time>2020-06-04T08:58:30Z</time>
      </trkpt>
      <trkpt lat="46.74823" lon="-2.01299">
        <ele>5.3</ele>
        <time>2020-06-04T08:58:31Z</time>
      </trkpt>
      <trkpt lat="46.74829" lon="-2.013">
        <ele>5.3</ele>
        <time>2020-06-04T08:58:32Z</time>
      </trkpt>
      <trkpt lat="46.74833" lon="-2.01303">
        <ele>5.3</ele>
        <time>2020-06-04T08:58:33Z</time>
      </trkpt>
      <trkpt lat="46.74837" lon="-2.01305">
        <ele>5.3</ele>
        <time>2020-06-04T08:58:34Z</time>
      </trkpt>
      <trkpt lat="46.74842" lon="-2.01306">
        <ele>5.3</ele>
        <time>2020-06-04T08:58:35Z</time>
      </trkpt>
      <trkpt lat="46.74846" lon="-2.01308">
        <ele>5.3</ele>
        <time>2020-06-04T08:58:36Z</time>
      </trkpt>
      <trkpt lat="46.74851" lon="-2.0131">
        <ele>5.2</ele>
        <time>2020-06-04T08:58:37Z</time>
      </trkpt>
      <trkpt lat="46.74855" lon="-2.01312">
        <ele>5.2</ele>
        <time>2020-06-04T08:58:38Z</time>
      </trkpt>
      <trkpt lat="46.7486" lon="-2.01315">
        <ele>5.2</ele>
        <time>2020-06-04T08:58:39Z</time>
      </trkpt>
      <trkpt lat="46.74865" lon="-2.01317">
        <ele>5.2</ele>
        <time>2020-06-04T08:58:40Z</time>
      </trkpt>
      <trkpt lat="46.74869" lon="-2.0132">
        <ele>5.2</ele>
        <time>2020-06-04T08:58:41Z</time>
      </trkpt>
      <trkpt lat="46.74874" lon="-2.01322">
        <ele>5.1</ele>
        <time>2020-06-04T08:58:42Z</time>
      </trkpt>
      <trkpt lat="46.7488" lon="-2.01324">
        <ele>5.1</ele>
        <time>2020-06-04T08:58:43Z</time>
      </trkpt>
      <trkpt lat="46.74885" lon="-2.01326">
        <ele>5.1</ele>
        <time>2020-06-04T08:58:44Z</time>
      </trkpt>
      <trkpt lat="46.74889" lon="-2.01328">
        <ele>5</ele>
        <time>2020-06-04T08:58:45Z</time>
      </trkpt>
      <trkpt lat="46.74893" lon="-2.0133">
        <ele>5</ele>
        <time>2020-06-04T08:58:46Z</time>
      </trkpt>
      <trkpt lat="46.74898" lon="-2.01332">
        <ele>4.9</ele>
        <time>2020-06-04T08:58:47Z</time>
      </trkpt>
      <trkpt lat="46.74903" lon="-2.01336">
        <ele>4.8</ele>
        <time>2020-06-04T08:58:48Z</time>
      </trkpt>
      <trkpt lat="46.74908" lon="-2.01339">
        <ele>4.8</ele>
        <time>2020-06-04T08:58:49Z</time>
      </trkpt>
      <trkpt lat="46.74912" lon="-2.01343">
        <ele>4.7</ele>
        <time>2020-06-04T08:58:50Z</time>
      </trkpt>
      <trkpt lat="46.74917" lon="-2.01346">
        <ele>4.6</ele>
        <time>2020-06-04T08:58:51Z</time>
      </trkpt>
      <trkpt lat="46.74922" lon="-2.01349">
        <ele>4.6</ele>
        <time>2020-06-04T08:58:52Z</time>
      </trkpt>
      <trkpt lat="46.74926" lon="-2.01352">
        <ele>4.5</ele>
        <time>2020-06-04T08:58:53Z</time>
      </trkpt>
      <trkpt lat="46.74931" lon="-2.01355">
        <ele>4.5</ele>
        <time>2020-06-04T08:58:54Z</time>
      </trkpt>
      <trkpt lat="46.74936" lon="-2.01358">
        <ele>4.4</ele>
        <time>2020-06-04T08:58:55Z</time>
      </trkpt>
      <trkpt lat="46.74942" lon="-2.01361">
        <ele>4.4</ele>
        <time>2020-06-04T08:58:56Z</time>
      </trkpt>
      <trkpt lat="46.74947" lon="-2.01366">
        <ele>4.3</ele>
        <time>2020-06-04T08:58:57Z</time>
      </trkpt>
      <trkpt lat="46.74951" lon="-2.01371">
        <ele>4.3</ele>
        <time>2020-06-04T08:58:58Z</time>
      </trkpt>
      <trkpt lat="46.74956" lon="-2.01376">
        <ele>4.2</ele>
        <time>2020-06-04T08:58:59Z</time>
      </trkpt>
      <trkpt lat="46.74961" lon="-2.01382">
        <ele>4.2</ele>
        <time>2020-06-04T08:59:00Z</time>
      </trkpt>
      <trkpt lat="46.74966" lon="-2.01389">
        <ele>4.2</ele>
        <time>2020-06-04T08:59:01Z</time>
      </trkpt>
      <trkpt lat="46.7497" lon="-2.01396">
        <ele>4.2</ele>
        <time>2020-06-04T08:59:02Z</time>
      </trkpt>
      <trkpt lat="46.74974" lon="-2.01403">
        <ele>4.2</ele>
        <time>2020-06-04T08:59:03Z</time>
      </trkpt>
      <trkpt lat="46.74977" lon="-2.0141">
        <ele>4.2</ele>
        <time>2020-06-04T08:59:04Z</time>
      </trkpt>
      <trkpt lat="46.7498" lon="-2.01417">
        <ele>4.2</ele>
        <time>2020-06-04T08:59:05Z</time>
      </trkpt>
      <trkpt lat="46.74984" lon="-2.01423">
        <ele>4.3</ele>
        <time>2020-06-04T08:59:06Z</time>
      </trkpt>
      <trkpt lat="46.74987" lon="-2.0143">
        <ele>4.3</ele>
        <time>2020-06-04T08:59:07Z</time>
      </trkpt>
      <trkpt lat="46.74991" lon="-2.01435">
        <ele>4.3</ele>
        <time>2020-06-04T08:59:08Z</time>
      </trkpt>
      <trkpt lat="46.74994" lon="-2.01441">
        <ele>4.3</ele>
        <time>2020-06-04T08:59:09Z</time>
      </trkpt>
      <trkpt lat="46.74997" lon="-2.01446">
        <ele>4.2</ele>
        <time>2020-06-04T08:59:10Z</time>
      </trkpt>
      <trkpt lat="46.75" lon="-2.01453">
        <ele>4.2</ele>
        <time>2020-06-04T08:59:11Z</time>
      </trkpt>
      <trkpt lat="46.75003" lon="-2.01459">
        <ele>4.2</ele>
        <time>2020-06-04T08:59:12Z</time>
      </trkpt>
      <trkpt lat="46.75006" lon="-2.01464">
        <ele>4.2</ele>
        <time>2020-06-04T08:59:13Z</time>
      </trkpt>
      <trkpt lat="46.7501" lon="-2.01471">
        <ele>4.2</ele>
        <time>2020-06-04T08:59:14Z</time>
      </trkpt>
      <trkpt lat="46.75012" lon="-2.01477">
        <ele>4.2</ele>
        <time>2020-06-04T08:59:15Z</time>
      </trkpt>
      <trkpt lat="46.75012" lon="-2.01482">
        <ele>4.2</ele>
        <time>2020-06-04T08:59:16Z</time>
      </trkpt>
      <trkpt lat="46.75011" lon="-2.01487">
        <ele>4.2</ele>
        <time>2020-06-04T08:59:17Z</time>
      </trkpt>
      <trkpt lat="46.75012" lon="-2.01489">
        <ele>4.2</ele>
        <time>2020-06-04T08:59:18Z</time>
      </trkpt>
      <trkpt lat="46.75014" lon="-2.01491">
        <ele>4.2</ele>
        <time>2020-06-04T08:59:19Z</time>
      </trkpt>
      <trkpt lat="46.75015" lon="-2.01494">
        <ele>4.1</ele>
        <time>2020-06-04T08:59:20Z</time>
      </trkpt>
      <trkpt lat="46.75016" lon="-2.01495">
        <ele>4.1</ele>
        <time>2020-06-04T08:59:21Z</time>
      </trkpt>
      <trkpt lat="46.75017" lon="-2.01496">
        <ele>4.1</ele>
        <time>2020-06-04T08:59:22Z</time>
      </trkpt>
      <trkpt lat="46.75019" lon="-2.01497">
        <ele>4.1</ele>
        <time>2020-06-04T08:59:23Z</time>
      </trkpt>
      <trkpt lat="46.75021" lon="-2.01498">
        <ele>4.1</ele>
        <time>2020-06-04T08:59:24Z</time>
      </trkpt>
      <trkpt lat="46.75022" lon="-2.01499">
        <ele>4.1</ele>
        <time>2020-06-04T08:59:25Z</time>
      </trkpt>
      <trkpt lat="46.75023" lon="-2.01499">
        <ele>4.1</ele>
        <time>2020-06-04T08:59:26Z</time>
      </trkpt>
      <trkpt lat="46.75025" lon="-2.01502">
        <ele>4.1</ele>
        <time>2020-06-04T08:59:27Z</time>
      </trkpt>
      <trkpt lat="46.75028" lon="-2.01506">
        <ele>4.1</ele>
        <time>2020-06-04T08:59:28Z</time>
      </trkpt>
      <trkpt lat="46.75032" lon="-2.01511">
        <ele>4</ele>
        <time>2020-06-04T08:59:29Z</time>
      </trkpt>
      <trkpt lat="46.75035" lon="-2.01516">
        <ele>4</ele>
        <time>2020-06-04T08:59:30Z</time>
      </trkpt>
      <trkpt lat="46.75037" lon="-2.01522">
        <ele>4</ele>
        <time>2020-06-04T08:59:31Z</time>
      </trkpt>
      <trkpt lat="46.75041" lon="-2.01528">
        <ele>4.1</ele>
        <time>2020-06-04T08:59:32Z</time>
      </trkpt>
      <trkpt lat="46.75045" lon="-2.01533">
        <ele>4.1</ele>
        <time>2020-06-04T08:59:33Z</time>
      </trkpt>
      <trkpt lat="46.75048" lon="-2.01538">
        <ele>4.1</ele>
        <time>2020-06-04T08:59:34Z</time>
      </trkpt>
      <trkpt lat="46.75053" lon="-2.01542">
        <ele>4.1</ele>
        <time>2020-06-04T08:59:35Z</time>
      </trkpt>
      <trkpt lat="46.75058" lon="-2.01546">
        <ele>4.1</ele>
        <time>2020-06-04T08:59:36Z</time>
      </trkpt>
      <trkpt lat="46.75062" lon="-2.0155">
        <ele>4.1</ele>
        <time>2020-06-04T08:59:37Z</time>
      </trkpt>
      <trkpt lat="46.75065" lon="-2.01553">
        <ele>4.1</ele>
        <time>2020-06-04T08:59:38Z</time>
      </trkpt>
      <trkpt lat="46.75068" lon="-2.01557">
        <ele>4.1</ele>
        <time>2020-06-04T08:59:39Z</time>
      </trkpt>
      <trkpt lat="46.75071" lon="-2.01561">
        <ele>4.1</ele>
        <time>2020-06-04T08:59:40Z</time>
      </trkpt>
      <trkpt lat="46.75075" lon="-2.01565">
        <ele>4.1</ele>
        <time>2020-06-04T08:59:41Z</time>
      </trkpt>
      <trkpt lat="46.75077" lon="-2.01569">
        <ele>4.1</ele>
        <time>2020-06-04T08:59:42Z</time>
      </trkpt>
      <trkpt lat="46.7508" lon="-2.01572">
        <ele>4.1</ele>
        <time>2020-06-04T08:59:43Z</time>
      </trkpt>
      <trkpt lat="46.75082" lon="-2.01574">
        <ele>4.1</ele>
        <time>2020-06-04T08:59:44Z</time>
      </trkpt>
      <trkpt lat="46.75085" lon="-2.01577">
        <ele>4.1</ele>
        <time>2020-06-04T08:59:45Z</time>
      </trkpt>
      <trkpt lat="46.75087" lon="-2.01581">
        <ele>4.1</ele>
        <time>2020-06-04T08:59:46Z</time>
      </trkpt>
      <trkpt lat="46.75088" lon="-2.01583">
        <ele>4.1</ele>
        <time>2020-06-04T08:59:47Z</time>
      </trkpt>
      <trkpt lat="46.75091" lon="-2.01586">
        <ele>4</ele>
        <time>2020-06-04T08:59:48Z</time>
      </trkpt>
      <trkpt lat="46.75093" lon="-2.01587">
        <ele>4</ele>
        <time>2020-06-04T08:59:49Z</time>
      </trkpt>
      <trkpt lat="46.75096" lon="-2.01589">
        <ele>4</ele>
        <time>2020-06-04T08:59:50Z</time>
      </trkpt>
      <trkpt lat="46.75097" lon="-2.0159">
        <ele>4</ele>
        <time>2020-06-04T08:59:51Z</time>
      </trkpt>
      <trkpt lat="46.75101" lon="-2.01593">
        <ele>4</ele>
        <time>2020-06-04T08:59:52Z</time>
      </trkpt>
      <trkpt lat="46.75102" lon="-2.01595">
        <ele>4</ele>
        <time>2020-06-04T08:59:53Z</time>
      </trkpt>
      <trkpt lat="46.75105" lon="-2.016">
        <ele>4.1</ele>
        <time>2020-06-04T08:59:54Z</time>
      </trkpt>
      <trkpt lat="46.75106" lon="-2.01603">
        <ele>4.1</ele>
        <time>2020-06-04T08:59:55Z</time>
      </trkpt>
      <trkpt lat="46.75106" lon="-2.0161">
        <ele>4.1</ele>
        <time>2020-06-04T08:59:56Z</time>
      </trkpt>
      <trkpt lat="46.75105" lon="-2.01616">
        <ele>4.2</ele>
        <time>2020-06-04T08:59:57Z</time>
      </trkpt>
      <trkpt lat="46.75106" lon="-2.0162">
        <ele>4.2</ele>
        <time>2020-06-04T08:59:58Z</time>
      </trkpt>
      <trkpt lat="46.75107" lon="-2.01625">
        <ele>4.2</ele>
        <time>2020-06-04T08:59:59Z</time>
      </trkpt>
      <trkpt lat="46.75107" lon="-2.01629">
        <ele>4.2</ele>
        <time>2020-06-04T09:00:00Z</time>
      </trkpt>
      <trkpt lat="46.75107" lon="-2.01633">
        <ele>4.3</ele>
        <time>2020-06-04T09:00:01Z</time>
      </trkpt>
      <trkpt lat="46.7511" lon="-2.01635">
        <ele>4.3</ele>
        <time>2020-06-04T09:00:02Z</time>
      </trkpt>
      <trkpt lat="46.75111" lon="-2.01636">
        <ele>4.3</ele>
        <time>2020-06-04T09:00:03Z</time>
      </trkpt>
      <trkpt lat="46.75112" lon="-2.01637">
        <ele>4.3</ele>
        <time>2020-06-04T09:00:04Z</time>
      </trkpt>
      <trkpt lat="46.75114" lon="-2.01638">
        <ele>4.3</ele>
        <time>2020-06-04T09:00:05Z</time>
      </trkpt>
      <trkpt lat="46.75117" lon="-2.0164">
        <ele>4.3</ele>
        <time>2020-06-04T09:00:06Z</time>
      </trkpt>
      <trkpt lat="46.75119" lon="-2.01641">
        <ele>4.3</ele>
        <time>2020-06-04T09:00:07Z</time>
      </trkpt>
      <trkpt lat="46.7512" lon="-2.01646">
        <ele>4.3</ele>
        <time>2020-06-04T09:00:08Z</time>
      </trkpt>
      <trkpt lat="46.7512" lon="-2.01649">
        <ele>4.3</ele>
        <time>2020-06-04T09:00:09Z</time>
      </trkpt>
      <trkpt lat="46.7512" lon="-2.01651">
        <ele>4.3</ele>
        <time>2020-06-04T09:00:10Z</time>
      </trkpt>
      <trkpt lat="46.75119" lon="-2.01652">
        <ele>4.3</ele>
        <time>2020-06-04T09:00:11Z</time>
      </trkpt>
      <trkpt lat="46.75119" lon="-2.01653">
        <ele>4.3</ele>
        <time>2020-06-04T09:00:12Z</time>
      </trkpt>
      <trkpt lat="46.75119" lon="-2.01654">
        <ele>4.3</ele>
        <time>2020-06-04T09:00:13Z</time>
      </trkpt>
      <trkpt lat="46.75118" lon="-2.01656">
        <ele>4.3</ele>
        <time>2020-06-04T09:00:14Z</time>
      </trkpt>
      <trkpt lat="46.75117" lon="-2.01656">
        <ele>4.3</ele>
        <time>2020-06-04T09:00:15Z</time>
      </trkpt>
      <trkpt lat="46.75117" lon="-2.01656">
        <ele>4.3</ele>
        <time>2020-06-04T09:00:16Z</time>
      </trkpt>
      <trkpt lat="46.75117" lon="-2.01655">
        <ele>4.3</ele>
        <time>2020-06-04T09:00:17Z</time>
      </trkpt>
      <trkpt lat="46.75117" lon="-2.01654">
        <ele>4.3</ele>
        <time>2020-06-04T09:00:18Z</time>
      </trkpt>
      <trkpt lat="46.75117" lon="-2.01654">
        <ele>4.3</ele>
        <time>2020-06-04T09:00:19Z</time>
      </trkpt>
      <trkpt lat="46.75116" lon="-2.01654">
        <ele>4.3</ele>
        <time>2020-06-04T09:00:20Z</time>
      </trkpt>
      <trkpt lat="46.75116" lon="-2.01654">
        <ele>4.3</ele>
        <time>2020-06-04T09:00:21Z</time>
      </trkpt>
      <trkpt lat="46.75116" lon="-2.01654">
        <ele>4.3</ele>
        <time>2020-06-04T09:00:22Z</time>
      </trkpt>
      <trkpt lat="46.75116" lon="-2.01654">
        <ele>4.3</ele>
        <time>2020-06-04T09:00:23Z</time>
      </trkpt>
      <trkpt lat="46.75116" lon="-2.01654">
        <ele>4.3</ele>
        <time>2020-06-04T09:00:24Z</time>
      </trkpt>
      <trkpt lat="46.75116" lon="-2.01654">
        <ele>4.3</ele>
        <time>2020-06-04T09:00:25Z</time>
      </trkpt>
      <trkpt lat="46.75111" lon="-2.01644">
        <ele>4.3</ele>
        <time>2020-06-04T09:00:33Z</time>
      </trkpt>
      <trkpt lat="46.75109" lon="-2.01639">
        <ele>4.3</ele>
        <time>2020-06-04T09:00:34Z</time>
      </trkpt>
      <trkpt lat="46.75107" lon="-2.01634">
        <ele>4.3</ele>
        <time>2020-06-04T09:00:35Z</time>
      </trkpt>
      <trkpt lat="46.75105" lon="-2.01629">
        <ele>4.2</ele>
        <time>2020-06-04T09:00:36Z</time>
      </trkpt>
      <trkpt lat="46.75104" lon="-2.01624">
        <ele>4.2</ele>
        <time>2020-06-04T09:00:37Z</time>
      </trkpt>
      <trkpt lat="46.75103" lon="-2.01618">
        <ele>4.2</ele>
        <time>2020-06-04T09:00:38Z</time>
      </trkpt>
      <trkpt lat="46.75102" lon="-2.01613">
        <ele>4.2</ele>
        <time>2020-06-04T09:00:39Z</time>
      </trkpt>
      <trkpt lat="46.75101" lon="-2.01608">
        <ele>4.2</ele>
        <time>2020-06-04T09:00:40Z</time>
      </trkpt>
      <trkpt lat="46.75101" lon="-2.01603">
        <ele>4.1</ele>
        <time>2020-06-04T09:00:41Z</time>
      </trkpt>
      <trkpt lat="46.75101" lon="-2.01597">
        <ele>4.1</ele>
        <time>2020-06-04T09:00:42Z</time>
      </trkpt>
      <trkpt lat="46.751" lon="-2.01592">
        <ele>4.1</ele>
        <time>2020-06-04T09:00:43Z</time>
      </trkpt>
      <trkpt lat="46.75098" lon="-2.01587">
        <ele>4.1</ele>
        <time>2020-06-04T09:00:44Z</time>
      </trkpt>
      <trkpt lat="46.75096" lon="-2.01584">
        <ele>4.1</ele>
        <time>2020-06-04T09:00:45Z</time>
      </trkpt>
      <trkpt lat="46.75098" lon="-2.01579">
        <ele>4.1</ele>
        <time>2020-06-04T09:00:46Z</time>
      </trkpt>
      <trkpt lat="46.75099" lon="-2.01578">
        <ele>4</ele>
        <time>2020-06-04T09:00:47Z</time>
      </trkpt>
      <trkpt lat="46.75102" lon="-2.01575">
        <ele>4</ele>
        <time>2020-06-04T09:00:48Z</time>
      </trkpt>
      <trkpt lat="46.75104" lon="-2.01577">
        <ele>4</ele>
        <time>2020-06-04T09:00:49Z</time>
      </trkpt>
      <trkpt lat="46.75107" lon="-2.01578">
        <ele>3.9</ele>
        <time>2020-06-04T09:00:50Z</time>
      </trkpt>
      <trkpt lat="46.7511" lon="-2.01579">
        <ele>3.9</ele>
        <time>2020-06-04T09:00:51Z</time>
      </trkpt>
      <trkpt lat="46.75113" lon="-2.01578">
        <ele>3.9</ele>
        <time>2020-06-04T09:00:52Z</time>
      </trkpt>
      <trkpt lat="46.75116" lon="-2.01577">
        <ele>3.8</ele>
        <time>2020-06-04T09:00:53Z</time>
      </trkpt>
      <trkpt lat="46.75119" lon="-2.01577">
        <ele>3.7</ele>
        <time>2020-06-04T09:00:54Z</time>
      </trkpt>
      <trkpt lat="46.75122" lon="-2.01577">
        <ele>3.7</ele>
        <time>2020-06-04T09:00:55Z</time>
      </trkpt>
      <trkpt lat="46.75126" lon="-2.01576">
        <ele>3.7</ele>
        <time>2020-06-04T09:00:56Z</time>
      </trkpt>
      <trkpt lat="46.75127" lon="-2.01576">
        <ele>3.7</ele>
        <time>2020-06-04T09:00:57Z</time>
      </trkpt>
      <trkpt lat="46.7513" lon="-2.01575">
        <ele>3.7</ele>
        <time>2020-06-04T09:00:58Z</time>
      </trkpt>
      <trkpt lat="46.75133" lon="-2.01571">
        <ele>3.7</ele>
        <time>2020-06-04T09:00:59Z</time>
      </trkpt>
      <trkpt lat="46.75135" lon="-2.0157">
        <ele>3.7</ele>
        <time>2020-06-04T09:01:00Z</time>
      </trkpt>
      <trkpt lat="46.75138" lon="-2.01567">
        <ele>3.7</ele>
        <time>2020-06-04T09:01:01Z</time>
      </trkpt>
      <trkpt lat="46.75139" lon="-2.01567">
        <ele>3.7</ele>
        <time>2020-06-04T09:01:02Z</time>
      </trkpt>
      <trkpt lat="46.75141" lon="-2.01572">
        <ele>3.7</ele>
        <time>2020-06-04T09:01:03Z</time>
      </trkpt>
      <trkpt lat="46.75142" lon="-2.01578">
        <ele>3.6</ele>
        <time>2020-06-04T09:01:04Z</time>
      </trkpt>
      <trkpt lat="46.75142" lon="-2.01584">
        <ele>3.7</ele>
        <time>2020-06-04T09:01:05Z</time>
      </trkpt>
      <trkpt lat="46.75141" lon="-2.01586">
        <ele>3.7</ele>
        <time>2020-06-04T09:01:06Z</time>
      </trkpt>
      <trkpt lat="46.75139" lon="-2.01589">
        <ele>3.7</ele>
        <time>2020-06-04T09:01:07Z</time>
      </trkpt>
      <trkpt lat="46.75138" lon="-2.01593">
        <ele>3.8</ele>
        <time>2020-06-04T09:01:08Z</time>
      </trkpt>
      <trkpt lat="46.75138" lon="-2.01598">
        <ele>3.8</ele>
        <time>2020-06-04T09:01:09Z</time>
      </trkpt>
      <trkpt lat="46.75138" lon="-2.01602">
        <ele>3.8</ele>
        <time>2020-06-04T09:01:10Z</time>
      </trkpt>
      <trkpt lat="46.75138" lon="-2.01608">
        <ele>3.9</ele>
        <time>2020-06-04T09:01:11Z</time>
      </trkpt>
      <trkpt lat="46.75138" lon="-2.01609">
        <ele>3.9</ele>
        <time>2020-06-04T09:01:12Z</time>
      </trkpt>
      <trkpt lat="46.75138" lon="-2.01614">
        <ele>3.9</ele>
        <time>2020-06-04T09:01:13Z</time>
      </trkpt>
      <trkpt lat="46.75138" lon="-2.01616">
        <ele>4</ele>
        <time>2020-06-04T09:01:14Z</time>
      </trkpt>
      <trkpt lat="46.75138" lon="-2.01621">
        <ele>4</ele>
        <time>2020-06-04T09:01:15Z</time>
      </trkpt>
      <trkpt lat="46.75138" lon="-2.01622">
        <ele>4</ele>
        <time>2020-06-04T09:01:16Z</time>
      </trkpt>
      <trkpt lat="46.75138" lon="-2.01625">
        <ele>4.1</ele>
        <time>2020-06-04T09:01:17Z</time>
      </trkpt>
      <trkpt lat="46.75137" lon="-2.01627">
        <ele>4.1</ele>
        <time>2020-06-04T09:01:18Z</time>
      </trkpt>
      <trkpt lat="46.75138" lon="-2.01629">
        <ele>4.1</ele>
        <time>2020-06-04T09:01:19Z</time>
      </trkpt>
      <trkpt lat="46.75138" lon="-2.01631">
        <ele>4.1</ele>
        <time>2020-06-04T09:01:20Z</time>
      </trkpt>
      <trkpt lat="46.75139" lon="-2.01632">
        <ele>4.1</ele>
        <time>2020-06-04T09:01:21Z</time>
      </trkpt>
      <trkpt lat="46.75139" lon="-2.01632">
        <ele>4.1</ele>
        <time>2020-06-04T09:01:22Z</time>
      </trkpt>
      <trkpt lat="46.75139" lon="-2.01633">
        <ele>4.1</ele>
        <time>2020-06-04T09:01:23Z</time>
      </trkpt>
      <trkpt lat="46.75139" lon="-2.01634">
        <ele>4.1</ele>
        <time>2020-06-04T09:01:24Z</time>
      </trkpt>
      <trkpt lat="46.75139" lon="-2.01634">
        <ele>4.1</ele>
        <time>2020-06-04T09:01:25Z</time>
      </trkpt>
      <trkpt lat="46.7514" lon="-2.01634">
        <ele>4.1</ele>
        <time>2020-06-04T09:01:26Z</time>
      </trkpt>
      <trkpt lat="46.75139" lon="-2.01634">
        <ele>4.1</ele>
        <time>2020-06-04T09:01:27Z</time>
      </trkpt>
      <trkpt lat="46.75139" lon="-2.01634">
        <ele>4.1</ele>
        <time>2020-06-04T09:01:28Z</time>
      </trkpt>
      <trkpt lat="46.7514" lon="-2.01634">
        <ele>4.1</ele>
        <time>2020-06-04T09:01:29Z</time>
      </trkpt>
      <trkpt lat="46.75139" lon="-2.01634">
        <ele>4.1</ele>
        <time>2020-06-04T09:01:30Z</time>
      </trkpt>
      <trkpt lat="46.75139" lon="-2.01635">
        <ele>4.1</ele>
        <time>2020-06-04T09:01:31Z</time>
      </trkpt>
      <trkpt lat="46.75139" lon="-2.01636">
        <ele>4.1</ele>
        <time>2020-06-04T09:01:32Z</time>
      </trkpt>
      <trkpt lat="46.75139" lon="-2.01638">
        <ele>4.1</ele>
        <time>2020-06-04T09:01:33Z</time>
      </trkpt>
      <trkpt lat="46.7514" lon="-2.0164">
        <ele>4.1</ele>
        <time>2020-06-04T09:01:34Z</time>
      </trkpt>
      <trkpt lat="46.75143" lon="-2.01644">
        <ele>4.1</ele>
        <time>2020-06-04T09:01:35Z</time>
      </trkpt>
      <trkpt lat="46.75144" lon="-2.01645">
        <ele>4.1</ele>
        <time>2020-06-04T09:01:36Z</time>
      </trkpt>
      <trkpt lat="46.75146" lon="-2.01649">
        <ele>4.1</ele>
        <time>2020-06-04T09:01:37Z</time>
      </trkpt>
      <trkpt lat="46.75149" lon="-2.01653">
        <ele>4</ele>
        <time>2020-06-04T09:01:38Z</time>
      </trkpt>
      <trkpt lat="46.75151" lon="-2.01658">
        <ele>4</ele>
        <time>2020-06-04T09:01:39Z</time>
      </trkpt>
      <trkpt lat="46.75152" lon="-2.01661">
        <ele>4</ele>
        <time>2020-06-04T09:01:40Z</time>
      </trkpt>
      <trkpt lat="46.75155" lon="-2.01666">
        <ele>4</ele>
        <time>2020-06-04T09:01:41Z</time>
      </trkpt>
      <trkpt lat="46.75159" lon="-2.01671">
        <ele>4</ele>
        <time>2020-06-04T09:01:42Z</time>
      </trkpt>
      <trkpt lat="46.75162" lon="-2.01676">
        <ele>4</ele>
        <time>2020-06-04T09:01:43Z</time>
      </trkpt>
      <trkpt lat="46.75167" lon="-2.01682">
        <ele>4</ele>
        <time>2020-06-04T09:01:44Z</time>
      </trkpt>
      <trkpt lat="46.7517" lon="-2.01688">
        <ele>3.9</ele>
        <time>2020-06-04T09:01:45Z</time>
      </trkpt>
      <trkpt lat="46.75174" lon="-2.01695">
        <ele>3.9</ele>
        <time>2020-06-04T09:01:46Z</time>
      </trkpt>
      <trkpt lat="46.75179" lon="-2.017">
        <ele>3.8</ele>
        <time>2020-06-04T09:01:47Z</time>
      </trkpt>
      <trkpt lat="46.75182" lon="-2.01707">
        <ele>3.8</ele>
        <time>2020-06-04T09:01:48Z</time>
      </trkpt>
      <trkpt lat="46.75186" lon="-2.01712">
        <ele>3.7</ele>
        <time>2020-06-04T09:01:49Z</time>
      </trkpt>
      <trkpt lat="46.7519" lon="-2.01718">
        <ele>3.7</ele>
        <time>2020-06-04T09:01:50Z</time>
      </trkpt>
      <trkpt lat="46.75193" lon="-2.01723">
        <ele>3.6</ele>
        <time>2020-06-04T09:01:51Z</time>
      </trkpt>
      <trkpt lat="46.75198" lon="-2.01729">
        <ele>3.5</ele>
        <time>2020-06-04T09:01:52Z</time>
      </trkpt>
      <trkpt lat="46.75202" lon="-2.01736">
        <ele>3.5</ele>
        <time>2020-06-04T09:01:53Z</time>
      </trkpt>
      <trkpt lat="46.75206" lon="-2.01741">
        <ele>3.4</ele>
        <time>2020-06-04T09:01:54Z</time>
      </trkpt>
      <trkpt lat="46.7521" lon="-2.01746">
        <ele>3.4</ele>
        <time>2020-06-04T09:01:55Z</time>
      </trkpt>
      <trkpt lat="46.75214" lon="-2.0175">
        <ele>3.4</ele>
        <time>2020-06-04T09:01:56Z</time>
      </trkpt>
      <trkpt lat="46.75217" lon="-2.01753">
        <ele>3.3</ele>
        <time>2020-06-04T09:01:57Z</time>
      </trkpt>
      <trkpt lat="46.7522" lon="-2.01758">
        <ele>3.3</ele>
        <time>2020-06-04T09:01:58Z</time>
      </trkpt>
      <trkpt lat="46.75224" lon="-2.01764">
        <ele>3.2</ele>
        <time>2020-06-04T09:01:59Z</time>
      </trkpt>
      <trkpt lat="46.75228" lon="-2.0177">
        <ele>3.2</ele>
        <time>2020-06-04T09:02:00Z</time>
      </trkpt>
      <trkpt lat="46.75231" lon="-2.01776">
        <ele>3.1</ele>
        <time>2020-06-04T09:02:01Z</time>
      </trkpt>
      <trkpt lat="46.75235" lon="-2.01781">
        <ele>3.1</ele>
        <time>2020-06-04T09:02:02Z</time>
      </trkpt>
      <trkpt lat="46.75239" lon="-2.01787">
        <ele>3</ele>
        <time>2020-06-04T09:02:03Z</time>
      </trkpt>
      <trkpt lat="46.75244" lon="-2.01792">
        <ele>3</ele>
        <time>2020-06-04T09:02:04Z</time>
      </trkpt>
      <trkpt lat="46.75248" lon="-2.01797">
        <ele>3</ele>
        <time>2020-06-04T09:02:05Z</time>
      </trkpt>
      <trkpt lat="46.75252" lon="-2.01803">
        <ele>2.9</ele>
        <time>2020-06-04T09:02:06Z</time>
      </trkpt>
      <trkpt lat="46.75256" lon="-2.01809">
        <ele>2.9</ele>
        <time>2020-06-04T09:02:07Z</time>
      </trkpt>
      <trkpt lat="46.7526" lon="-2.01815">
        <ele>2.9</ele>
        <time>2020-06-04T09:02:08Z</time>
      </trkpt>
      <trkpt lat="46.75265" lon="-2.01821">
        <ele>3</ele>
        <time>2020-06-04T09:02:09Z</time>
      </trkpt>
      <trkpt lat="46.75269" lon="-2.01827">
        <ele>3</ele>
        <time>2020-06-04T09:02:10Z</time>
      </trkpt>
      <trkpt lat="46.75274" lon="-2.01833">
        <ele>3</ele>
        <time>2020-06-04T09:02:11Z</time>
      </trkpt>
      <trkpt lat="46.75278" lon="-2.01839">
        <ele>3</ele>
        <time>2020-06-04T09:02:12Z</time>
      </trkpt>
      <trkpt lat="46.75282" lon="-2.01845">
        <ele>3.1</ele>
        <time>2020-06-04T09:02:13Z</time>
      </trkpt>
      <trkpt lat="46.75287" lon="-2.01851">
        <ele>3.1</ele>
        <time>2020-06-04T09:02:14Z</time>
      </trkpt>
      <trkpt lat="46.75292" lon="-2.01858">
        <ele>3.1</ele>
        <time>2020-06-04T09:02:15Z</time>
      </trkpt>
      <trkpt lat="46.75297" lon="-2.01865">
        <ele>3.1</ele>
        <time>2020-06-04T09:02:16Z</time>
      </trkpt>
      <trkpt lat="46.75302" lon="-2.01874">
        <ele>3.1</ele>
        <time>2020-06-04T09:02:17Z</time>
      </trkpt>
      <trkpt lat="46.75305" lon="-2.01881">
        <ele>3.1</ele>
        <time>2020-06-04T09:02:18Z</time>
      </trkpt>
      <trkpt lat="46.7531" lon="-2.01889">
        <ele>3.1</ele>
        <time>2020-06-04T09:02:19Z</time>
      </trkpt>
      <trkpt lat="46.75313" lon="-2.01895">
        <ele>3.1</ele>
        <time>2020-06-04T09:02:20Z</time>
      </trkpt>
      <trkpt lat="46.75319" lon="-2.01904">
        <ele>3.1</ele>
        <time>2020-06-04T09:02:21Z</time>
      </trkpt>
      <trkpt lat="46.75324" lon="-2.01913">
        <ele>3.1</ele>
        <time>2020-06-04T09:02:22Z</time>
      </trkpt>
      <trkpt lat="46.7533" lon="-2.01922">
        <ele>3.1</ele>
        <time>2020-06-04T09:02:23Z</time>
      </trkpt>
      <trkpt lat="46.75335" lon="-2.0193">
        <ele>3.1</ele>
        <time>2020-06-04T09:02:24Z</time>
      </trkpt>
      <trkpt lat="46.7534" lon="-2.01939">
        <ele>3.1</ele>
        <time>2020-06-04T09:02:25Z</time>
      </trkpt>
      <trkpt lat="46.75345" lon="-2.01946">
        <ele>3.1</ele>
        <time>2020-06-04T09:02:26Z</time>
      </trkpt>
      <trkpt lat="46.7535" lon="-2.01953">
        <ele>3.1</ele>
        <time>2020-06-04T09:02:27Z</time>
      </trkpt>
      <trkpt lat="46.75354" lon="-2.01961">
        <ele>3.1</ele>
        <time>2020-06-04T09:02:28Z</time>
      </trkpt>
      <trkpt lat="46.75358" lon="-2.01968">
        <ele>3.2</ele>
        <time>2020-06-04T09:02:29Z</time>
      </trkpt>
      <trkpt lat="46.75362" lon="-2.01975">
        <ele>3.2</ele>
        <time>2020-06-04T09:02:30Z</time>
      </trkpt>
      <trkpt lat="46.75366" lon="-2.01981">
        <ele>3.2</ele>
        <time>2020-06-04T09:02:31Z</time>
      </trkpt>
      <trkpt lat="46.75369" lon="-2.01988">
        <ele>3.2</ele>
        <time>2020-06-04T09:02:32Z</time>
      </trkpt>
      <trkpt lat="46.75371" lon="-2.01992">
        <ele>3.2</ele>
        <time>2020-06-04T09:02:33Z</time>
      </trkpt>
      <trkpt lat="46.75373" lon="-2.01996">
        <ele>3.2</ele>
        <time>2020-06-04T09:02:34Z</time>
      </trkpt>
      <trkpt lat="46.75375" lon="-2.02001">
        <ele>3.2</ele>
        <time>2020-06-04T09:02:35Z</time>
      </trkpt>
      <trkpt lat="46.75377" lon="-2.02005">
        <ele>3.2</ele>
        <time>2020-06-04T09:02:36Z</time>
      </trkpt>
      <trkpt lat="46.75381" lon="-2.02008">
        <ele>3.2</ele>
        <time>2020-06-04T09:02:37Z</time>
      </trkpt>
      <trkpt lat="46.75384" lon="-2.02011">
        <ele>3.2</ele>
        <time>2020-06-04T09:02:38Z</time>
      </trkpt>
      <trkpt lat="46.75388" lon="-2.02014">
        <ele>3.2</ele>
        <time>2020-06-04T09:02:39Z</time>
      </trkpt>
      <trkpt lat="46.7539" lon="-2.02017">
        <ele>3.2</ele>
        <time>2020-06-04T09:02:40Z</time>
      </trkpt>
      <trkpt lat="46.75393" lon="-2.02021">
        <ele>3.2</ele>
        <time>2020-06-04T09:02:41Z</time>
      </trkpt>
      <trkpt lat="46.75395" lon="-2.02025">
        <ele>3.2</ele>
        <time>2020-06-04T09:02:42Z</time>
      </trkpt>
      <trkpt lat="46.75399" lon="-2.02028">
        <ele>3.2</ele>
        <time>2020-06-04T09:02:43Z</time>
      </trkpt>
      <trkpt lat="46.75401" lon="-2.0203">
        <ele>3.2</ele>
        <time>2020-06-04T09:02:44Z</time>
      </trkpt>
      <trkpt lat="46.75404" lon="-2.02033">
        <ele>3.3</ele>
        <time>2020-06-04T09:02:45Z</time>
      </trkpt>
      <trkpt lat="46.75405" lon="-2.02035">
        <ele>3.3</ele>
        <time>2020-06-04T09:02:46Z</time>
      </trkpt>
      <trkpt lat="46.75408" lon="-2.02038">
        <ele>3.3</ele>
        <time>2020-06-04T09:02:47Z</time>
      </trkpt>
      <trkpt lat="46.7541" lon="-2.02041">
        <ele>3.3</ele>
        <time>2020-06-04T09:02:48Z</time>
      </trkpt>
      <trkpt lat="46.75413" lon="-2.02045">
        <ele>3.3</ele>
        <time>2020-06-04T09:02:49Z</time>
      </trkpt>
      <trkpt lat="46.75416" lon="-2.02048">
        <ele>3.3</ele>
        <time>2020-06-04T09:02:50Z</time>
      </trkpt>
      <trkpt lat="46.75419" lon="-2.02052">
        <ele>3.4</ele>
        <time>2020-06-04T09:02:51Z</time>
      </trkpt>
      <trkpt lat="46.7542" lon="-2.02054">
        <ele>3.4</ele>
        <time>2020-06-04T09:02:52Z</time>
      </trkpt>
      <trkpt lat="46.75423" lon="-2.02058">
        <ele>3.4</ele>
        <time>2020-06-04T09:02:53Z</time>
      </trkpt>
      <trkpt lat="46.75426" lon="-2.02062">
        <ele>3.4</ele>
        <time>2020-06-04T09:02:54Z</time>
      </trkpt>
      <trkpt lat="46.75429" lon="-2.02066">
        <ele>3.5</ele>
        <time>2020-06-04T09:02:55Z</time>
      </trkpt>
      <trkpt lat="46.75432" lon="-2.02071">
        <ele>3.5</ele>
        <time>2020-06-04T09:02:56Z</time>
      </trkpt>
      <trkpt lat="46.75436" lon="-2.02076">
        <ele>3.6</ele>
        <time>2020-06-04T09:02:57Z</time>
      </trkpt>
      <trkpt lat="46.75439" lon="-2.02081">
        <ele>3.6</ele>
        <time>2020-06-04T09:02:58Z</time>
      </trkpt>
      <trkpt lat="46.75443" lon="-2.02086">
        <ele>3.7</ele>
        <time>2020-06-04T09:02:59Z</time>
      </trkpt>
      <trkpt lat="46.75447" lon="-2.02091">
        <ele>3.7</ele>
        <time>2020-06-04T09:03:00Z</time>
      </trkpt>
      <trkpt lat="46.7545" lon="-2.02096">
        <ele>3.8</ele>
        <time>2020-06-04T09:03:01Z</time>
      </trkpt>
      <trkpt lat="46.75453" lon="-2.02101">
        <ele>3.8</ele>
        <time>2020-06-04T09:03:02Z</time>
      </trkpt>
      <trkpt lat="46.75456" lon="-2.02106">
        <ele>3.8</ele>
        <time>2020-06-04T09:03:03Z</time>
      </trkpt>
      <trkpt lat="46.75458" lon="-2.02109">
        <ele>3.9</ele>
        <time>2020-06-04T09:03:04Z</time>
      </trkpt>
      <trkpt lat="46.7546" lon="-2.02114">
        <ele>3.9</ele>
        <time>2020-06-04T09:03:05Z</time>
      </trkpt>
      <trkpt lat="46.75463" lon="-2.02119">
        <ele>3.9</ele>
        <time>2020-06-04T09:03:06Z</time>
      </trkpt>
      <trkpt lat="46.75466" lon="-2.02124">
        <ele>3.9</ele>
        <time>2020-06-04T09:03:07Z</time>
      </trkpt>
      <trkpt lat="46.75468" lon="-2.0213">
        <ele>3.9</ele>
        <time>2020-06-04T09:03:08Z</time>
      </trkpt>
      <trkpt lat="46.7547" lon="-2.02135">
        <ele>3.9</ele>
        <time>2020-06-04T09:03:09Z</time>
      </trkpt>
      <trkpt lat="46.75474" lon="-2.02143">
        <ele>4</ele>
        <time>2020-06-04T09:03:10Z</time>
      </trkpt>
      <trkpt lat="46.75477" lon="-2.02149">
        <ele>4</ele>
        <time>2020-06-04T09:03:11Z</time>
      </trkpt>
      <trkpt lat="46.75479" lon="-2.02155">
        <ele>4</ele>
        <time>2020-06-04T09:03:12Z</time>
      </trkpt>
      <trkpt lat="46.75481" lon="-2.02162">
        <ele>4</ele>
        <time>2020-06-04T09:03:13Z</time>
      </trkpt>
      <trkpt lat="46.75483" lon="-2.02168">
        <ele>4</ele>
        <time>2020-06-04T09:03:14Z</time>
      </trkpt>
      <trkpt lat="46.75485" lon="-2.02173">
        <ele>4</ele>
        <time>2020-06-04T09:03:15Z</time>
      </trkpt>
      <trkpt lat="46.75487" lon="-2.0218">
        <ele>4</ele>
        <time>2020-06-04T09:03:16Z</time>
      </trkpt>
      <trkpt lat="46.75489" lon="-2.02186">
        <ele>4</ele>
        <time>2020-06-04T09:03:17Z</time>
      </trkpt>
      <trkpt lat="46.75491" lon="-2.02193">
        <ele>4</ele>
        <time>2020-06-04T09:03:18Z</time>
      </trkpt>
      <trkpt lat="46.75493" lon="-2.022">
        <ele>4</ele>
        <time>2020-06-04T09:03:19Z</time>
      </trkpt>
      <trkpt lat="46.75494" lon="-2.02204">
        <ele>4</ele>
        <time>2020-06-04T09:03:20Z</time>
      </trkpt>
      <trkpt lat="46.75495" lon="-2.0221">
        <ele>4</ele>
        <time>2020-06-04T09:03:21Z</time>
      </trkpt>
      <trkpt lat="46.75497" lon="-2.02216">
        <ele>4</ele>
        <time>2020-06-04T09:03:22Z</time>
      </trkpt>
      <trkpt lat="46.75499" lon="-2.02222">
        <ele>4</ele>
        <time>2020-06-04T09:03:23Z</time>
      </trkpt>
      <trkpt lat="46.75501" lon="-2.02229">
        <ele>4.1</ele>
        <time>2020-06-04T09:03:24Z</time>
      </trkpt>
      <trkpt lat="46.75504" lon="-2.02235">
        <ele>4.1</ele>
        <time>2020-06-04T09:03:25Z</time>
      </trkpt>
      <trkpt lat="46.75506" lon="-2.0224">
        <ele>4.1</ele>
        <time>2020-06-04T09:03:26Z</time>
      </trkpt>
      <trkpt lat="46.75509" lon="-2.02245">
        <ele>4.1</ele>
        <time>2020-06-04T09:03:27Z</time>
      </trkpt>
      <trkpt lat="46.75512" lon="-2.0225">
        <ele>4.1</ele>
        <time>2020-06-04T09:03:28Z</time>
      </trkpt>
      <trkpt lat="46.75516" lon="-2.02255">
        <ele>4.2</ele>
        <time>2020-06-04T09:03:29Z</time>
      </trkpt>
      <trkpt lat="46.75519" lon="-2.02258">
        <ele>4.2</ele>
        <time>2020-06-04T09:03:30Z</time>
      </trkpt>
      <trkpt lat="46.75522" lon="-2.02262">
        <ele>4.2</ele>
        <time>2020-06-04T09:03:31Z</time>
      </trkpt>
      <trkpt lat="46.75526" lon="-2.02267">
        <ele>4.2</ele>
        <time>2020-06-04T09:03:32Z</time>
      </trkpt>
      <trkpt lat="46.7553" lon="-2.02272">
        <ele>4.2</ele>
        <time>2020-06-04T09:03:33Z</time>
      </trkpt>
      <trkpt lat="46.75535" lon="-2.02275">
        <ele>4.2</ele>
        <time>2020-06-04T09:03:34Z</time>
      </trkpt>
      <trkpt lat="46.75539" lon="-2.02279">
        <ele>4.2</ele>
        <time>2020-06-04T09:03:35Z</time>
      </trkpt>
      <trkpt lat="46.75542" lon="-2.02282">
        <ele>4.2</ele>
        <time>2020-06-04T09:03:36Z</time>
      </trkpt>
      <trkpt lat="46.75543" lon="-2.02283">
        <ele>4.3</ele>
        <time>2020-06-04T09:03:37Z</time>
      </trkpt>
      <trkpt lat="46.75547" lon="-2.02287">
        <ele>4.3</ele>
        <time>2020-06-04T09:03:38Z</time>
      </trkpt>
      <trkpt lat="46.75551" lon="-2.02289">
        <ele>4.3</ele>
        <time>2020-06-04T09:03:39Z</time>
      </trkpt>
      <trkpt lat="46.75555" lon="-2.02291">
        <ele>4.3</ele>
        <time>2020-06-04T09:03:40Z</time>
      </trkpt>
      <trkpt lat="46.7556" lon="-2.02294">
        <ele>4.3</ele>
        <time>2020-06-04T09:03:41Z</time>
      </trkpt>
      <trkpt lat="46.75563" lon="-2.02297">
        <ele>4.3</ele>
        <time>2020-06-04T09:03:42Z</time>
      </trkpt>
      <trkpt lat="46.75566" lon="-2.023">
        <ele>4.3</ele>
        <time>2020-06-04T09:03:43Z</time>
      </trkpt>
      <trkpt lat="46.7557" lon="-2.02303">
        <ele>4.3</ele>
        <time>2020-06-04T09:03:44Z</time>
      </trkpt>
      <trkpt lat="46.75574" lon="-2.02305">
        <ele>4.3</ele>
        <time>2020-06-04T09:03:45Z</time>
      </trkpt>
      <trkpt lat="46.75579" lon="-2.02307">
        <ele>4.3</ele>
        <time>2020-06-04T09:03:46Z</time>
      </trkpt>
      <trkpt lat="46.75582" lon="-2.0231">
        <ele>4.3</ele>
        <time>2020-06-04T09:03:47Z</time>
      </trkpt>
      <trkpt lat="46.75585" lon="-2.02314">
        <ele>4.3</ele>
        <time>2020-06-04T09:03:48Z</time>
      </trkpt>
      <trkpt lat="46.75589" lon="-2.02317">
        <ele>4.4</ele>
        <time>2020-06-04T09:03:49Z</time>
      </trkpt>
      <trkpt lat="46.75593" lon="-2.02321">
        <ele>4.4</ele>
        <time>2020-06-04T09:03:50Z</time>
      </trkpt>
      <trkpt lat="46.75597" lon="-2.02324">
        <ele>4.4</ele>
        <time>2020-06-04T09:03:51Z</time>
      </trkpt>
      <trkpt lat="46.75601" lon="-2.02328">
        <ele>4.4</ele>
        <time>2020-06-04T09:03:52Z</time>
      </trkpt>
      <trkpt lat="46.75605" lon="-2.02332">
        <ele>4.4</ele>
        <time>2020-06-04T09:03:53Z</time>
      </trkpt>
      <trkpt lat="46.7561" lon="-2.02336">
        <ele>4.4</ele>
        <time>2020-06-04T09:03:54Z</time>
      </trkpt>
      <trkpt lat="46.75614" lon="-2.0234">
        <ele>4.4</ele>
        <time>2020-06-04T09:03:55Z</time>
      </trkpt>
      <trkpt lat="46.75618" lon="-2.02343">
        <ele>4.4</ele>
        <time>2020-06-04T09:03:56Z</time>
      </trkpt>
      <trkpt lat="46.75622" lon="-2.02346">
        <ele>4.4</ele>
        <time>2020-06-04T09:03:57Z</time>
      </trkpt>
      <trkpt lat="46.75627" lon="-2.02349">
        <ele>4.4</ele>
        <time>2020-06-04T09:03:58Z</time>
      </trkpt>
      <trkpt lat="46.75631" lon="-2.02353">
        <ele>4.5</ele>
        <time>2020-06-04T09:03:59Z</time>
      </trkpt>
      <trkpt lat="46.75635" lon="-2.02356">
        <ele>4.5</ele>
        <time>2020-06-04T09:04:00Z</time>
      </trkpt>
      <trkpt lat="46.75639" lon="-2.0236">
        <ele>4.5</ele>
        <time>2020-06-04T09:04:01Z</time>
      </trkpt>
      <trkpt lat="46.75643" lon="-2.02364">
        <ele>4.5</ele>
        <time>2020-06-04T09:04:02Z</time>
      </trkpt>
      <trkpt lat="46.75647" lon="-2.02369">
        <ele>4.5</ele>
        <time>2020-06-04T09:04:03Z</time>
      </trkpt>
      <trkpt lat="46.75651" lon="-2.02374">
        <ele>4.5</ele>
        <time>2020-06-04T09:04:04Z</time>
      </trkpt>
      <trkpt lat="46.75654" lon="-2.02378">
        <ele>4.5</ele>
        <time>2020-06-04T09:04:05Z</time>
      </trkpt>
      <trkpt lat="46.75658" lon="-2.02382">
        <ele>4.5</ele>
        <time>2020-06-04T09:04:06Z</time>
      </trkpt>
      <trkpt lat="46.75662" lon="-2.02386">
        <ele>4.6</ele>
        <time>2020-06-04T09:04:07Z</time>
      </trkpt>
      <trkpt lat="46.75666" lon="-2.02391">
        <ele>4.6</ele>
        <time>2020-06-04T09:04:08Z</time>
      </trkpt>
      <trkpt lat="46.7567" lon="-2.02395">
        <ele>4.6</ele>
        <time>2020-06-04T09:04:09Z</time>
      </trkpt>
      <trkpt lat="46.75673" lon="-2.024">
        <ele>4.6</ele>
        <time>2020-06-04T09:04:10Z</time>
      </trkpt>
      <trkpt lat="46.75676" lon="-2.02404">
        <ele>4.6</ele>
        <time>2020-06-04T09:04:11Z</time>
      </trkpt>
      <trkpt lat="46.75678" lon="-2.02408">
        <ele>4.6</ele>
        <time>2020-06-04T09:04:12Z</time>
      </trkpt>
      <trkpt lat="46.75681" lon="-2.02412">
        <ele>4.7</ele>
        <time>2020-06-04T09:04:13Z</time>
      </trkpt>
      <trkpt lat="46.75685" lon="-2.02416">
        <ele>4.7</ele>
        <time>2020-06-04T09:04:14Z</time>
      </trkpt>
      <trkpt lat="46.75687" lon="-2.02419">
        <ele>4.7</ele>
        <time>2020-06-04T09:04:15Z</time>
      </trkpt>
      <trkpt lat="46.7569" lon="-2.02423">
        <ele>4.7</ele>
        <time>2020-06-04T09:04:16Z</time>
      </trkpt>
      <trkpt lat="46.75694" lon="-2.02427">
        <ele>4.7</ele>
        <time>2020-06-04T09:04:17Z</time>
      </trkpt>
      <trkpt lat="46.75697" lon="-2.02431">
        <ele>4.7</ele>
        <time>2020-06-04T09:04:18Z</time>
      </trkpt>
      <trkpt lat="46.75699" lon="-2.02435">
        <ele>4.7</ele>
        <time>2020-06-04T09:04:19Z</time>
      </trkpt>
      <trkpt lat="46.75702" lon="-2.02439">
        <ele>4.8</ele>
        <time>2020-06-04T09:04:20Z</time>
      </trkpt>
      <trkpt lat="46.75704" lon="-2.02442">
        <ele>4.7</ele>
        <time>2020-06-04T09:04:21Z</time>
      </trkpt>
      <trkpt lat="46.75706" lon="-2.02444">
        <ele>4.7</ele>
        <time>2020-06-04T09:04:22Z</time>
      </trkpt>
      <trkpt lat="46.75709" lon="-2.02446">
        <ele>4.7</ele>
        <time>2020-06-04T09:04:23Z</time>
      </trkpt>
      <trkpt lat="46.75711" lon="-2.02449">
        <ele>4.7</ele>
        <time>2020-06-04T09:04:24Z</time>
      </trkpt>
      <trkpt lat="46.75714" lon="-2.02451">
        <ele>4.6</ele>
        <time>2020-06-04T09:04:25Z</time>
      </trkpt>
      <trkpt lat="46.75717" lon="-2.02453">
        <ele>4.6</ele>
        <time>2020-06-04T09:04:26Z</time>
      </trkpt>
      <trkpt lat="46.7572" lon="-2.02455">
        <ele>4.6</ele>
        <time>2020-06-04T09:04:27Z</time>
      </trkpt>
      <trkpt lat="46.75724" lon="-2.02458">
        <ele>4.6</ele>
        <time>2020-06-04T09:04:28Z</time>
      </trkpt>
      <trkpt lat="46.75729" lon="-2.0246">
        <ele>4.6</ele>
        <time>2020-06-04T09:04:29Z</time>
      </trkpt>
      <trkpt lat="46.75734" lon="-2.02463">
        <ele>4.5</ele>
        <time>2020-06-04T09:04:30Z</time>
      </trkpt>
      <trkpt lat="46.75739" lon="-2.02465">
        <ele>4.5</ele>
        <time>2020-06-04T09:04:31Z</time>
      </trkpt>
      <trkpt lat="46.75743" lon="-2.02466">
        <ele>4.5</ele>
        <time>2020-06-04T09:04:32Z</time>
      </trkpt>
      <trkpt lat="46.75747" lon="-2.02467">
        <ele>4.5</ele>
        <time>2020-06-04T09:04:33Z</time>
      </trkpt>
      <trkpt lat="46.75752" lon="-2.02468">
        <ele>4.5</ele>
        <time>2020-06-04T09:04:34Z</time>
      </trkpt>
      <trkpt lat="46.75757" lon="-2.02471">
        <ele>4.4</ele>
        <time>2020-06-04T09:04:35Z</time>
      </trkpt>
      <trkpt lat="46.75762" lon="-2.02472">
        <ele>4.4</ele>
        <time>2020-06-04T09:04:36Z</time>
      </trkpt>
      <trkpt lat="46.75767" lon="-2.02474">
        <ele>4.4</ele>
        <time>2020-06-04T09:04:37Z</time>
      </trkpt>
      <trkpt lat="46.75772" lon="-2.02474">
        <ele>4.4</ele>
        <time>2020-06-04T09:04:38Z</time>
      </trkpt>
      <trkpt lat="46.75777" lon="-2.02476">
        <ele>4.4</ele>
        <time>2020-06-04T09:04:39Z</time>
      </trkpt>
      <trkpt lat="46.75783" lon="-2.02475">
        <ele>4.4</ele>
        <time>2020-06-04T09:04:40Z</time>
      </trkpt>
      <trkpt lat="46.75788" lon="-2.02475">
        <ele>4.4</ele>
        <time>2020-06-04T09:04:41Z</time>
      </trkpt>
      <trkpt lat="46.75792" lon="-2.02475">
        <ele>4.4</ele>
        <time>2020-06-04T09:04:42Z</time>
      </trkpt>
      <trkpt lat="46.75797" lon="-2.02473">
        <ele>4.4</ele>
        <time>2020-06-04T09:04:43Z</time>
      </trkpt>
      <trkpt lat="46.75801" lon="-2.02471">
        <ele>4.4</ele>
        <time>2020-06-04T09:04:44Z</time>
      </trkpt>
      <trkpt lat="46.75803" lon="-2.02471">
        <ele>4.4</ele>
        <time>2020-06-04T09:04:45Z</time>
      </trkpt>
      <trkpt lat="46.75807" lon="-2.0247">
        <ele>4.4</ele>
        <time>2020-06-04T09:04:46Z</time>
      </trkpt>
      <trkpt lat="46.75812" lon="-2.0247">
        <ele>4.4</ele>
        <time>2020-06-04T09:04:47Z</time>
      </trkpt>
      <trkpt lat="46.75817" lon="-2.02471">
        <ele>4.5</ele>
        <time>2020-06-04T09:04:48Z</time>
      </trkpt>
      <trkpt lat="46.75821" lon="-2.02474">
        <ele>4.5</ele>
        <time>2020-06-04T09:04:49Z</time>
      </trkpt>
      <trkpt lat="46.75824" lon="-2.02478">
        <ele>4.5</ele>
        <time>2020-06-04T09:04:50Z</time>
      </trkpt>
      <trkpt lat="46.75829" lon="-2.0248">
        <ele>4.6</ele>
        <time>2020-06-04T09:04:51Z</time>
      </trkpt>
      <trkpt lat="46.75834" lon="-2.02481">
        <ele>4.6</ele>
        <time>2020-06-04T09:04:52Z</time>
      </trkpt>
      <trkpt lat="46.75839" lon="-2.02482">
        <ele>4.6</ele>
        <time>2020-06-04T09:04:53Z</time>
      </trkpt>
      <trkpt lat="46.75845" lon="-2.02484">
        <ele>4.6</ele>
        <time>2020-06-04T09:04:54Z</time>
      </trkpt>
      <trkpt lat="46.7585" lon="-2.02486">
        <ele>4.6</ele>
        <time>2020-06-04T09:04:55Z</time>
      </trkpt>
      <trkpt lat="46.75855" lon="-2.02488">
        <ele>4.7</ele>
        <time>2020-06-04T09:04:56Z</time>
      </trkpt>
      <trkpt lat="46.75859" lon="-2.02489">
        <ele>4.7</ele>
        <time>2020-06-04T09:04:57Z</time>
      </trkpt>
      <trkpt lat="46.75864" lon="-2.0249">
        <ele>4.7</ele>
        <time>2020-06-04T09:04:58Z</time>
      </trkpt>
      <trkpt lat="46.75868" lon="-2.02491">
        <ele>4.7</ele>
        <time>2020-06-04T09:04:59Z</time>
      </trkpt>
      <trkpt lat="46.75873" lon="-2.02492">
        <ele>4.8</ele>
        <time>2020-06-04T09:05:00Z</time>
      </trkpt>
      <trkpt lat="46.75876" lon="-2.02493">
        <ele>4.8</ele>
        <time>2020-06-04T09:05:01Z</time>
      </trkpt>
      <trkpt lat="46.7588" lon="-2.02494">
        <ele>4.8</ele>
        <time>2020-06-04T09:05:02Z</time>
      </trkpt>
      <trkpt lat="46.75884" lon="-2.02494">
        <ele>4.9</ele>
        <time>2020-06-04T09:05:03Z</time>
      </trkpt>
      <trkpt lat="46.75888" lon="-2.02494">
        <ele>5</ele>
        <time>2020-06-04T09:05:04Z</time>
      </trkpt>
      <trkpt lat="46.75892" lon="-2.02496">
        <ele>5</ele>
        <time>2020-06-04T09:05:05Z</time>
      </trkpt>
      <trkpt lat="46.75896" lon="-2.02498">
        <ele>5.1</ele>
        <time>2020-06-04T09:05:06Z</time>
      </trkpt>
      <trkpt lat="46.75899" lon="-2.02501">
        <ele>5.2</ele>
        <time>2020-06-04T09:05:07Z</time>
      </trkpt>
      <trkpt lat="46.75903" lon="-2.02503">
        <ele>5.3</ele>
        <time>2020-06-04T09:05:08Z</time>
      </trkpt>
      <trkpt lat="46.75906" lon="-2.02505">
        <ele>5.3</ele>
        <time>2020-06-04T09:05:09Z</time>
      </trkpt>
      <trkpt lat="46.75909" lon="-2.02506">
        <ele>5.4</ele>
        <time>2020-06-04T09:05:10Z</time>
      </trkpt>
      <trkpt lat="46.75913" lon="-2.02507">
        <ele>5.5</ele>
        <time>2020-06-04T09:05:11Z</time>
      </trkpt>
      <trkpt lat="46.75916" lon="-2.02508">
        <ele>5.5</ele>
        <time>2020-06-04T09:05:12Z</time>
      </trkpt>
      <trkpt lat="46.7592" lon="-2.02509">
        <ele>5.6</ele>
        <time>2020-06-04T09:05:13Z</time>
      </trkpt>
      <trkpt lat="46.75923" lon="-2.0251">
        <ele>5.6</ele>
        <time>2020-06-04T09:05:14Z</time>
      </trkpt>
      <trkpt lat="46.75927" lon="-2.02512">
        <ele>5.7</ele>
        <time>2020-06-04T09:05:15Z</time>
      </trkpt>
      <trkpt lat="46.75931" lon="-2.02515">
        <ele>5.8</ele>
        <time>2020-06-04T09:05:16Z</time>
      </trkpt>
      <trkpt lat="46.75934" lon="-2.02518">
        <ele>5.8</ele>
        <time>2020-06-04T09:05:17Z</time>
      </trkpt>
      <trkpt lat="46.75938" lon="-2.0252">
        <ele>5.9</ele>
        <time>2020-06-04T09:05:18Z</time>
      </trkpt>
      <trkpt lat="46.7594" lon="-2.02523">
        <ele>5.9</ele>
        <time>2020-06-04T09:05:19Z</time>
      </trkpt>
      <trkpt lat="46.75942" lon="-2.02525">
        <ele>6</ele>
        <time>2020-06-04T09:05:20Z</time>
      </trkpt>
      <trkpt lat="46.75946" lon="-2.02527">
        <ele>6</ele>
        <time>2020-06-04T09:05:21Z</time>
      </trkpt>
      <trkpt lat="46.75949" lon="-2.02529">
        <ele>6.1</ele>
        <time>2020-06-04T09:05:22Z</time>
      </trkpt>
      <trkpt lat="46.75952" lon="-2.02531">
        <ele>6.1</ele>
        <time>2020-06-04T09:05:23Z</time>
      </trkpt>
      <trkpt lat="46.75954" lon="-2.02534">
        <ele>6.2</ele>
        <time>2020-06-04T09:05:24Z</time>
      </trkpt>
      <trkpt lat="46.75957" lon="-2.02537">
        <ele>6.2</ele>
        <time>2020-06-04T09:05:25Z</time>
      </trkpt>
      <trkpt lat="46.75959" lon="-2.0254">
        <ele>6.2</ele>
        <time>2020-06-04T09:05:26Z</time>
      </trkpt>
      <trkpt lat="46.75962" lon="-2.02544">
        <ele>6.3</ele>
        <time>2020-06-04T09:05:27Z</time>
      </trkpt>
      <trkpt lat="46.75965" lon="-2.02548">
        <ele>6.3</ele>
        <time>2020-06-04T09:05:28Z</time>
      </trkpt>
      <trkpt lat="46.75967" lon="-2.02552">
        <ele>6.3</ele>
        <time>2020-06-04T09:05:29Z</time>
      </trkpt>
      <trkpt lat="46.75967" lon="-2.02558">
        <ele>6.3</ele>
        <time>2020-06-04T09:05:30Z</time>
      </trkpt>
      <trkpt lat="46.75966" lon="-2.02563">
        <ele>6.3</ele>
        <time>2020-06-04T09:05:31Z</time>
      </trkpt>
      <trkpt lat="46.75968" lon="-2.02567">
        <ele>6.4</ele>
        <time>2020-06-04T09:05:32Z</time>
      </trkpt>
      <trkpt lat="46.75968" lon="-2.02567">
        <ele>6.4</ele>
        <time>2020-06-04T09:05:33Z</time>
      </trkpt>
      <trkpt lat="46.75971" lon="-2.02568">
        <ele>6.4</ele>
        <time>2020-06-04T09:05:34Z</time>
      </trkpt>
      <trkpt lat="46.75972" lon="-2.02568">
        <ele>6.4</ele>
        <time>2020-06-04T09:05:35Z</time>
      </trkpt>
      <trkpt lat="46.75975" lon="-2.02567">
        <ele>6.4</ele>
        <time>2020-06-04T09:05:36Z</time>
      </trkpt>
      <trkpt lat="46.75979" lon="-2.02567">
        <ele>6.4</ele>
        <time>2020-06-04T09:05:37Z</time>
      </trkpt>
      <trkpt lat="46.75982" lon="-2.02566">
        <ele>6.4</ele>
        <time>2020-06-04T09:05:38Z</time>
      </trkpt>
      <trkpt lat="46.75985" lon="-2.02567">
        <ele>6.4</ele>
        <time>2020-06-04T09:05:39Z</time>
      </trkpt>
      <trkpt lat="46.75988" lon="-2.02568">
        <ele>6.4</ele>
        <time>2020-06-04T09:05:40Z</time>
      </trkpt>
      <trkpt lat="46.75992" lon="-2.02571">
        <ele>6.4</ele>
        <time>2020-06-04T09:05:41Z</time>
      </trkpt>
      <trkpt lat="46.75995" lon="-2.02575">
        <ele>6.4</ele>
        <time>2020-06-04T09:05:42Z</time>
      </trkpt>
      <trkpt lat="46.75999" lon="-2.0258">
        <ele>6.4</ele>
        <time>2020-06-04T09:05:43Z</time>
      </trkpt>
      <trkpt lat="46.76003" lon="-2.02586">
        <ele>6.5</ele>
        <time>2020-06-04T09:05:44Z</time>
      </trkpt>
      <trkpt lat="46.76007" lon="-2.02591">
        <ele>6.5</ele>
        <time>2020-06-04T09:05:45Z</time>
      </trkpt>
      <trkpt lat="46.76012" lon="-2.02596">
        <ele>6.5</ele>
        <time>2020-06-04T09:05:46Z</time>
      </trkpt>
      <trkpt lat="46.76015" lon="-2.02601">
        <ele>6.5</ele>
        <time>2020-06-04T09:05:47Z</time>
      </trkpt>
      <trkpt lat="46.76019" lon="-2.02604">
        <ele>6.5</ele>
        <time>2020-06-04T09:05:48Z</time>
      </trkpt>
      <trkpt lat="46.76024" lon="-2.0261">
        <ele>6.4</ele>
        <time>2020-06-04T09:05:49Z</time>
      </trkpt>
      <trkpt lat="46.76027" lon="-2.02615">
        <ele>6.3</ele>
        <time>2020-06-04T09:05:50Z</time>
      </trkpt>
      <trkpt lat="46.76032" lon="-2.02622">
        <ele>6.1</ele>
        <time>2020-06-04T09:05:51Z</time>
      </trkpt>
      <trkpt lat="46.76036" lon="-2.02628">
        <ele>6.1</ele>
        <time>2020-06-04T09:05:52Z</time>
      </trkpt>
      <trkpt lat="46.76039" lon="-2.02633">
        <ele>6</ele>
        <time>2020-06-04T09:05:53Z</time>
      </trkpt>
      <trkpt lat="46.76043" lon="-2.02639">
        <ele>5.9</ele>
        <time>2020-06-04T09:05:54Z</time>
      </trkpt>
      <trkpt lat="46.76047" lon="-2.02645">
        <ele>5.9</ele>
        <time>2020-06-04T09:05:55Z</time>
      </trkpt>
      <trkpt lat="46.76051" lon="-2.02651">
        <ele>5.8</ele>
        <time>2020-06-04T09:05:56Z</time>
      </trkpt>
      <trkpt lat="46.76055" lon="-2.02658">
        <ele>5.8</ele>
        <time>2020-06-04T09:05:57Z</time>
      </trkpt>
      <trkpt lat="46.7606" lon="-2.02665">
        <ele>5.8</ele>
        <time>2020-06-04T09:05:58Z</time>
      </trkpt>
      <trkpt lat="46.76064" lon="-2.02671">
        <ele>5.7</ele>
        <time>2020-06-04T09:05:59Z</time>
      </trkpt>
      <trkpt lat="46.76069" lon="-2.02675">
        <ele>5.7</ele>
        <time>2020-06-04T09:06:00Z</time>
      </trkpt>
      <trkpt lat="46.76073" lon="-2.0268">
        <ele>5.7</ele>
        <time>2020-06-04T09:06:01Z</time>
      </trkpt>
      <trkpt lat="46.76078" lon="-2.02685">
        <ele>5.6</ele>
        <time>2020-06-04T09:06:02Z</time>
      </trkpt>
      <trkpt lat="46.76084" lon="-2.02689">
        <ele>5.6</ele>
        <time>2020-06-04T09:06:03Z</time>
      </trkpt>
      <trkpt lat="46.76089" lon="-2.02694">
        <ele>5.6</ele>
        <time>2020-06-04T09:06:04Z</time>
      </trkpt>
      <trkpt lat="46.76095" lon="-2.02699">
        <ele>5.6</ele>
        <time>2020-06-04T09:06:05Z</time>
      </trkpt>
      <trkpt lat="46.76099" lon="-2.02703">
        <ele>5.6</ele>
        <time>2020-06-04T09:06:06Z</time>
      </trkpt>
      <trkpt lat="46.76103" lon="-2.02707">
        <ele>5.6</ele>
        <time>2020-06-04T09:06:07Z</time>
      </trkpt>
      <trkpt lat="46.76107" lon="-2.02711">
        <ele>5.5</ele>
        <time>2020-06-04T09:06:08Z</time>
      </trkpt>
      <trkpt lat="46.7611" lon="-2.02714">
        <ele>5.5</ele>
        <time>2020-06-04T09:06:09Z</time>
      </trkpt>
      <trkpt lat="46.76113" lon="-2.02718">
        <ele>5.5</ele>
        <time>2020-06-04T09:06:10Z</time>
      </trkpt>
      <trkpt lat="46.76117" lon="-2.02722">
        <ele>5.5</ele>
        <time>2020-06-04T09:06:11Z</time>
      </trkpt>
      <trkpt lat="46.76122" lon="-2.02725">
        <ele>5.5</ele>
        <time>2020-06-04T09:06:12Z</time>
      </trkpt>
      <trkpt lat="46.76126" lon="-2.02729">
        <ele>5.5</ele>
        <time>2020-06-04T09:06:13Z</time>
      </trkpt>
      <trkpt lat="46.7613" lon="-2.02733">
        <ele>5.5</ele>
        <time>2020-06-04T09:06:14Z</time>
      </trkpt>
      <trkpt lat="46.76135" lon="-2.02737">
        <ele>5.6</ele>
        <time>2020-06-04T09:06:15Z</time>
      </trkpt>
      <trkpt lat="46.7614" lon="-2.02739">
        <ele>5.6</ele>
        <time>2020-06-04T09:06:16Z</time>
      </trkpt>
      <trkpt lat="46.76145" lon="-2.02742">
        <ele>5.6</ele>
        <time>2020-06-04T09:06:17Z</time>
      </trkpt>
      <trkpt lat="46.76149" lon="-2.02748">
        <ele>5.6</ele>
        <time>2020-06-04T09:06:18Z</time>
      </trkpt>
      <trkpt lat="46.76153" lon="-2.02752">
        <ele>5.6</ele>
        <time>2020-06-04T09:06:19Z</time>
      </trkpt>
      <trkpt lat="46.76157" lon="-2.02757">
        <ele>5.6</ele>
        <time>2020-06-04T09:06:20Z</time>
      </trkpt>
      <trkpt lat="46.76161" lon="-2.02761">
        <ele>5.6</ele>
        <time>2020-06-04T09:06:21Z</time>
      </trkpt>
      <trkpt lat="46.76167" lon="-2.02764">
        <ele>5.6</ele>
        <time>2020-06-04T09:06:22Z</time>
      </trkpt>
      <trkpt lat="46.76172" lon="-2.02766">
        <ele>5.6</ele>
        <time>2020-06-04T09:06:23Z</time>
      </trkpt>
      <trkpt lat="46.76175" lon="-2.02772">
        <ele>5.6</ele>
        <time>2020-06-04T09:06:24Z</time>
      </trkpt>
      <trkpt lat="46.7618" lon="-2.02775">
        <ele>5.6</ele>
        <time>2020-06-04T09:06:25Z</time>
      </trkpt>
      <trkpt lat="46.76185" lon="-2.02778">
        <ele>5.6</ele>
        <time>2020-06-04T09:06:26Z</time>
      </trkpt>
      <trkpt lat="46.7619" lon="-2.0278">
        <ele>5.6</ele>
        <time>2020-06-04T09:06:27Z</time>
      </trkpt>
      <trkpt lat="46.76194" lon="-2.02784">
        <ele>5.6</ele>
        <time>2020-06-04T09:06:28Z</time>
      </trkpt>
      <trkpt lat="46.76199" lon="-2.02787">
        <ele>5.6</ele>
        <time>2020-06-04T09:06:29Z</time>
      </trkpt>
      <trkpt lat="46.76203" lon="-2.0279">
        <ele>5.6</ele>
        <time>2020-06-04T09:06:30Z</time>
      </trkpt>
      <trkpt lat="46.76207" lon="-2.02793">
        <ele>5.7</ele>
        <time>2020-06-04T09:06:31Z</time>
      </trkpt>
      <trkpt lat="46.76211" lon="-2.02795">
        <ele>5.7</ele>
        <time>2020-06-04T09:06:32Z</time>
      </trkpt>
      <trkpt lat="46.76216" lon="-2.02798">
        <ele>5.7</ele>
        <time>2020-06-04T09:06:33Z</time>
      </trkpt>
      <trkpt lat="46.7622" lon="-2.02801">
        <ele>5.7</ele>
        <time>2020-06-04T09:06:34Z</time>
      </trkpt>
      <trkpt lat="46.76224" lon="-2.02807">
        <ele>5.7</ele>
        <time>2020-06-04T09:06:35Z</time>
      </trkpt>
      <trkpt lat="46.76227" lon="-2.02811">
        <ele>5.7</ele>
        <time>2020-06-04T09:06:36Z</time>
      </trkpt>
      <trkpt lat="46.76231" lon="-2.02815">
        <ele>5.7</ele>
        <time>2020-06-04T09:06:37Z</time>
      </trkpt>
      <trkpt lat="46.76235" lon="-2.02818">
        <ele>5.7</ele>
        <time>2020-06-04T09:06:38Z</time>
      </trkpt>
      <trkpt lat="46.76238" lon="-2.02822">
        <ele>5.7</ele>
        <time>2020-06-04T09:06:39Z</time>
      </trkpt>
      <trkpt lat="46.76241" lon="-2.02827">
        <ele>5.7</ele>
        <time>2020-06-04T09:06:40Z</time>
      </trkpt>
      <trkpt lat="46.76244" lon="-2.02831">
        <ele>5.8</ele>
        <time>2020-06-04T09:06:41Z</time>
      </trkpt>
      <trkpt lat="46.76247" lon="-2.02836">
        <ele>5.8</ele>
        <time>2020-06-04T09:06:42Z</time>
      </trkpt>
      <trkpt lat="46.76251" lon="-2.02839">
        <ele>5.8</ele>
        <time>2020-06-04T09:06:43Z</time>
      </trkpt>
      <trkpt lat="46.76254" lon="-2.02843">
        <ele>5.7</ele>
        <time>2020-06-04T09:06:44Z</time>
      </trkpt>
      <trkpt lat="46.76257" lon="-2.02847">
        <ele>5.7</ele>
        <time>2020-06-04T09:06:45Z</time>
      </trkpt>
      <trkpt lat="46.76261" lon="-2.02852">
        <ele>5.7</ele>
        <time>2020-06-04T09:06:46Z</time>
      </trkpt>
      <trkpt lat="46.76266" lon="-2.02855">
        <ele>5.7</ele>
        <time>2020-06-04T09:06:47Z</time>
      </trkpt>
      <trkpt lat="46.7627" lon="-2.02861">
        <ele>5.7</ele>
        <time>2020-06-04T09:06:48Z</time>
      </trkpt>
      <trkpt lat="46.76273" lon="-2.02866">
        <ele>5.7</ele>
        <time>2020-06-04T09:06:49Z</time>
      </trkpt>
      <trkpt lat="46.76277" lon="-2.0287">
        <ele>5.7</ele>
        <time>2020-06-04T09:06:50Z</time>
      </trkpt>
      <trkpt lat="46.76282" lon="-2.02873">
        <ele>5.7</ele>
        <time>2020-06-04T09:06:51Z</time>
      </trkpt>
      <trkpt lat="46.76286" lon="-2.02876">
        <ele>5.7</ele>
        <time>2020-06-04T09:06:52Z</time>
      </trkpt>
      <trkpt lat="46.76291" lon="-2.02879">
        <ele>5.7</ele>
        <time>2020-06-04T09:06:53Z</time>
      </trkpt>
      <trkpt lat="46.76296" lon="-2.02882">
        <ele>5.7</ele>
        <time>2020-06-04T09:06:54Z</time>
      </trkpt>
      <trkpt lat="46.76301" lon="-2.02884">
        <ele>5.7</ele>
        <time>2020-06-04T09:06:55Z</time>
      </trkpt>
      <trkpt lat="46.76307" lon="-2.02888">
        <ele>5.8</ele>
        <time>2020-06-04T09:06:56Z</time>
      </trkpt>
      <trkpt lat="46.76312" lon="-2.02892">
        <ele>5.9</ele>
        <time>2020-06-04T09:06:57Z</time>
      </trkpt>
      <trkpt lat="46.76317" lon="-2.02895">
        <ele>5.9</ele>
        <time>2020-06-04T09:06:58Z</time>
      </trkpt>
      <trkpt lat="46.76322" lon="-2.02898">
        <ele>6</ele>
        <time>2020-06-04T09:06:59Z</time>
      </trkpt>
      <trkpt lat="46.76327" lon="-2.02901">
        <ele>6.1</ele>
        <time>2020-06-04T09:07:00Z</time>
      </trkpt>
      <trkpt lat="46.76332" lon="-2.02905">
        <ele>6.1</ele>
        <time>2020-06-04T09:07:01Z</time>
      </trkpt>
      <trkpt lat="46.76337" lon="-2.0291">
        <ele>6.2</ele>
        <time>2020-06-04T09:07:02Z</time>
      </trkpt>
      <trkpt lat="46.76341" lon="-2.02914">
        <ele>6.2</ele>
        <time>2020-06-04T09:07:03Z</time>
      </trkpt>
      <trkpt lat="46.76346" lon="-2.0292">
        <ele>6.2</ele>
        <time>2020-06-04T09:07:04Z</time>
      </trkpt>
      <trkpt lat="46.7635" lon="-2.02927">
        <ele>6.2</ele>
        <time>2020-06-04T09:07:05Z</time>
      </trkpt>
      <trkpt lat="46.76353" lon="-2.02934">
        <ele>6.2</ele>
        <time>2020-06-04T09:07:06Z</time>
      </trkpt>
      <trkpt lat="46.76357" lon="-2.0294">
        <ele>6.2</ele>
        <time>2020-06-04T09:07:07Z</time>
      </trkpt>
      <trkpt lat="46.7636" lon="-2.02946">
        <ele>6.2</ele>
        <time>2020-06-04T09:07:08Z</time>
      </trkpt>
      <trkpt lat="46.76363" lon="-2.02952">
        <ele>6.2</ele>
        <time>2020-06-04T09:07:09Z</time>
      </trkpt>
      <trkpt lat="46.76366" lon="-2.0296">
        <ele>6.1</ele>
        <time>2020-06-04T09:07:10Z</time>
      </trkpt>
      <trkpt lat="46.76367" lon="-2.02966">
        <ele>6.1</ele>
        <time>2020-06-04T09:07:11Z</time>
      </trkpt>
      <trkpt lat="46.76368" lon="-2.02973">
        <ele>6.1</ele>
        <time>2020-06-04T09:07:12Z</time>
      </trkpt>
      <trkpt lat="46.7637" lon="-2.02982">
        <ele>6</ele>
        <time>2020-06-04T09:07:13Z</time>
      </trkpt>
      <trkpt lat="46.76373" lon="-2.02989">
        <ele>6</ele>
        <time>2020-06-04T09:07:14Z</time>
      </trkpt>
      <trkpt lat="46.76375" lon="-2.02997">
        <ele>6</ele>
        <time>2020-06-04T09:07:15Z</time>
      </trkpt>
      <trkpt lat="46.76375" lon="-2.03005">
        <ele>6</ele>
        <time>2020-06-04T09:07:16Z</time>
      </trkpt>
      <trkpt lat="46.76375" lon="-2.03013">
        <ele>6</ele>
        <time>2020-06-04T09:07:17Z</time>
      </trkpt>
      <trkpt lat="46.76376" lon="-2.03021">
        <ele>6</ele>
        <time>2020-06-04T09:07:18Z</time>
      </trkpt>
      <trkpt lat="46.76376" lon="-2.0303">
        <ele>6</ele>
        <time>2020-06-04T09:07:19Z</time>
      </trkpt>
      <trkpt lat="46.76376" lon="-2.03037">
        <ele>6.1</ele>
        <time>2020-06-04T09:07:20Z</time>
      </trkpt>
      <trkpt lat="46.76377" lon="-2.03045">
        <ele>6.1</ele>
        <time>2020-06-04T09:07:21Z</time>
      </trkpt>
      <trkpt lat="46.76377" lon="-2.03052">
        <ele>6.1</ele>
        <time>2020-06-04T09:07:22Z</time>
      </trkpt>
      <trkpt lat="46.76378" lon="-2.0306">
        <ele>6.2</ele>
        <time>2020-06-04T09:07:23Z</time>
      </trkpt>
      <trkpt lat="46.76379" lon="-2.03068">
        <ele>6.2</ele>
        <time>2020-06-04T09:07:24Z</time>
      </trkpt>
      <trkpt lat="46.76379" lon="-2.03076">
        <ele>6.2</ele>
        <time>2020-06-04T09:07:25Z</time>
      </trkpt>
      <trkpt lat="46.76379" lon="-2.03085">
        <ele>6.2</ele>
        <time>2020-06-04T09:07:26Z</time>
      </trkpt>
      <trkpt lat="46.76378" lon="-2.03092">
        <ele>6.3</ele>
        <time>2020-06-04T09:07:27Z</time>
      </trkpt>
      <trkpt lat="46.76378" lon="-2.03098">
        <ele>6.3</ele>
        <time>2020-06-04T09:07:28Z</time>
      </trkpt>
      <trkpt lat="46.76378" lon="-2.03105">
        <ele>6.3</ele>
        <time>2020-06-04T09:07:29Z</time>
      </trkpt>
      <trkpt lat="46.76379" lon="-2.03111">
        <ele>6.3</ele>
        <time>2020-06-04T09:07:30Z</time>
      </trkpt>
      <trkpt lat="46.7638" lon="-2.03119">
        <ele>6.3</ele>
        <time>2020-06-04T09:07:31Z</time>
      </trkpt>
      <trkpt lat="46.7638" lon="-2.03126">
        <ele>6.3</ele>
        <time>2020-06-04T09:07:32Z</time>
      </trkpt>
      <trkpt lat="46.76379" lon="-2.03133">
        <ele>6.3</ele>
        <time>2020-06-04T09:07:33Z</time>
      </trkpt>
      <trkpt lat="46.76379" lon="-2.03138">
        <ele>6.3</ele>
        <time>2020-06-04T09:07:34Z</time>
      </trkpt>
      <trkpt lat="46.76379" lon="-2.03143">
        <ele>6.3</ele>
        <time>2020-06-04T09:07:35Z</time>
      </trkpt>
      <trkpt lat="46.76381" lon="-2.03149">
        <ele>6.3</ele>
        <time>2020-06-04T09:07:36Z</time>
      </trkpt>
      <trkpt lat="46.76383" lon="-2.03157">
        <ele>6.3</ele>
        <time>2020-06-04T09:07:37Z</time>
      </trkpt>
      <trkpt lat="46.76386" lon="-2.03164">
        <ele>6.2</ele>
        <time>2020-06-04T09:07:38Z</time>
      </trkpt>
      <trkpt lat="46.7639" lon="-2.03171">
        <ele>6.2</ele>
        <time>2020-06-04T09:07:39Z</time>
      </trkpt>
      <trkpt lat="46.76393" lon="-2.03177">
        <ele>6.1</ele>
        <time>2020-06-04T09:07:40Z</time>
      </trkpt>
      <trkpt lat="46.76398" lon="-2.03183">
        <ele>6.1</ele>
        <time>2020-06-04T09:07:41Z</time>
      </trkpt>
      <trkpt lat="46.764" lon="-2.03188">
        <ele>6</ele>
        <time>2020-06-04T09:07:42Z</time>
      </trkpt>
      <trkpt lat="46.76403" lon="-2.03194">
        <ele>5.9</ele>
        <time>2020-06-04T09:07:43Z</time>
      </trkpt>
      <trkpt lat="46.76407" lon="-2.032">
        <ele>5.8</ele>
        <time>2020-06-04T09:07:44Z</time>
      </trkpt>
      <trkpt lat="46.76411" lon="-2.03206">
        <ele>5.7</ele>
        <time>2020-06-04T09:07:45Z</time>
      </trkpt>
      <trkpt lat="46.76415" lon="-2.03212">
        <ele>5.6</ele>
        <time>2020-06-04T09:07:46Z</time>
      </trkpt>
      <trkpt lat="46.76417" lon="-2.03218">
        <ele>5.5</ele>
        <time>2020-06-04T09:07:47Z</time>
      </trkpt>
      <trkpt lat="46.7642" lon="-2.03225">
        <ele>5.4</ele>
        <time>2020-06-04T09:07:48Z</time>
      </trkpt>
      <trkpt lat="46.76423" lon="-2.03232">
        <ele>5.4</ele>
        <time>2020-06-04T09:07:49Z</time>
      </trkpt>
      <trkpt lat="46.76426" lon="-2.03237">
        <ele>5.4</ele>
        <time>2020-06-04T09:07:50Z</time>
      </trkpt>
      <trkpt lat="46.76429" lon="-2.03244">
        <ele>5.3</ele>
        <time>2020-06-04T09:07:51Z</time>
      </trkpt>
      <trkpt lat="46.76433" lon="-2.0325">
        <ele>5.3</ele>
        <time>2020-06-04T09:07:52Z</time>
      </trkpt>
      <trkpt lat="46.76435" lon="-2.03256">
        <ele>5.3</ele>
        <time>2020-06-04T09:07:53Z</time>
      </trkpt>
      <trkpt lat="46.76438" lon="-2.03261">
        <ele>5.3</ele>
        <time>2020-06-04T09:07:54Z</time>
      </trkpt>
      <trkpt lat="46.76441" lon="-2.03267">
        <ele>5.3</ele>
        <time>2020-06-04T09:07:55Z</time>
      </trkpt>
      <trkpt lat="46.76445" lon="-2.03273">
        <ele>5.3</ele>
        <time>2020-06-04T09:07:56Z</time>
      </trkpt>
      <trkpt lat="46.76448" lon="-2.03278">
        <ele>5.3</ele>
        <time>2020-06-04T09:07:57Z</time>
      </trkpt>
      <trkpt lat="46.76451" lon="-2.03283">
        <ele>5.3</ele>
        <time>2020-06-04T09:07:58Z</time>
      </trkpt>
      <trkpt lat="46.76456" lon="-2.03289">
        <ele>5.3</ele>
        <time>2020-06-04T09:07:59Z</time>
      </trkpt>
      <trkpt lat="46.76458" lon="-2.03295">
        <ele>5.3</ele>
        <time>2020-06-04T09:08:00Z</time>
      </trkpt>
      <trkpt lat="46.76461" lon="-2.03302">
        <ele>5.3</ele>
        <time>2020-06-04T09:08:01Z</time>
      </trkpt>
      <trkpt lat="46.76464" lon="-2.03308">
        <ele>5.3</ele>
        <time>2020-06-04T09:08:02Z</time>
      </trkpt>
      <trkpt lat="46.76467" lon="-2.03314">
        <ele>5.3</ele>
        <time>2020-06-04T09:08:03Z</time>
      </trkpt>
      <trkpt lat="46.76471" lon="-2.0332">
        <ele>5.3</ele>
        <time>2020-06-04T09:08:04Z</time>
      </trkpt>
      <trkpt lat="46.76475" lon="-2.03326">
        <ele>5.3</ele>
        <time>2020-06-04T09:08:05Z</time>
      </trkpt>
      <trkpt lat="46.76478" lon="-2.03333">
        <ele>5.4</ele>
        <time>2020-06-04T09:08:06Z</time>
      </trkpt>
      <trkpt lat="46.76482" lon="-2.0334">
        <ele>5.4</ele>
        <time>2020-06-04T09:08:07Z</time>
      </trkpt>
      <trkpt lat="46.76484" lon="-2.03347">
        <ele>5.4</ele>
        <time>2020-06-04T09:08:08Z</time>
      </trkpt>
      <trkpt lat="46.76486" lon="-2.03354">
        <ele>5.4</ele>
        <time>2020-06-04T09:08:09Z</time>
      </trkpt>
      <trkpt lat="46.76488" lon="-2.0336">
        <ele>5.4</ele>
        <time>2020-06-04T09:08:10Z</time>
      </trkpt>
      <trkpt lat="46.7649" lon="-2.03367">
        <ele>5.4</ele>
        <time>2020-06-04T09:08:11Z</time>
      </trkpt>
      <trkpt lat="46.76492" lon="-2.03374">
        <ele>5.4</ele>
        <time>2020-06-04T09:08:12Z</time>
      </trkpt>
      <trkpt lat="46.76493" lon="-2.03381">
        <ele>5.4</ele>
        <time>2020-06-04T09:08:13Z</time>
      </trkpt>
      <trkpt lat="46.76494" lon="-2.03387">
        <ele>5.5</ele>
        <time>2020-06-04T09:08:14Z</time>
      </trkpt>
      <trkpt lat="46.76495" lon="-2.03393">
        <ele>5.5</ele>
        <time>2020-06-04T09:08:15Z</time>
      </trkpt>
      <trkpt lat="46.76496" lon="-2.03399">
        <ele>5.5</ele>
        <time>2020-06-04T09:08:16Z</time>
      </trkpt>
      <trkpt lat="46.76496" lon="-2.03406">
        <ele>5.6</ele>
        <time>2020-06-04T09:08:17Z</time>
      </trkpt>
      <trkpt lat="46.76497" lon="-2.03414">
        <ele>5.6</ele>
        <time>2020-06-04T09:08:18Z</time>
      </trkpt>
      <trkpt lat="46.76498" lon="-2.03421">
        <ele>5.7</ele>
        <time>2020-06-04T09:08:19Z</time>
      </trkpt>
      <trkpt lat="46.765" lon="-2.03427">
        <ele>5.7</ele>
        <time>2020-06-04T09:08:20Z</time>
      </trkpt>
      <trkpt lat="46.76503" lon="-2.03432">
        <ele>5.8</ele>
        <time>2020-06-04T09:08:21Z</time>
      </trkpt>
      <trkpt lat="46.76506" lon="-2.03437">
        <ele>5.8</ele>
        <time>2020-06-04T09:08:22Z</time>
      </trkpt>
      <trkpt lat="46.76508" lon="-2.03442">
        <ele>5.9</ele>
        <time>2020-06-04T09:08:23Z</time>
      </trkpt>
      <trkpt lat="46.76511" lon="-2.03447">
        <ele>5.9</ele>
        <time>2020-06-04T09:08:24Z</time>
      </trkpt>
      <trkpt lat="46.76513" lon="-2.03451">
        <ele>6</ele>
        <time>2020-06-04T09:08:25Z</time>
      </trkpt>
      <trkpt lat="46.76515" lon="-2.03455">
        <ele>6</ele>
        <time>2020-06-04T09:08:26Z</time>
      </trkpt>
      <trkpt lat="46.76517" lon="-2.03459">
        <ele>6.1</ele>
        <time>2020-06-04T09:08:27Z</time>
      </trkpt>
      <trkpt lat="46.7652" lon="-2.03464">
        <ele>6.1</ele>
        <time>2020-06-04T09:08:28Z</time>
      </trkpt>
      <trkpt lat="46.76523" lon="-2.03468">
        <ele>6.2</ele>
        <time>2020-06-04T09:08:29Z</time>
      </trkpt>
      <trkpt lat="46.76525" lon="-2.03473">
        <ele>6.2</ele>
        <time>2020-06-04T09:08:30Z</time>
      </trkpt>
      <trkpt lat="46.76528" lon="-2.03478">
        <ele>6.3</ele>
        <time>2020-06-04T09:08:31Z</time>
      </trkpt>
      <trkpt lat="46.76531" lon="-2.03483">
        <ele>6.3</ele>
        <time>2020-06-04T09:08:32Z</time>
      </trkpt>
      <trkpt lat="46.76534" lon="-2.03489">
        <ele>6.4</ele>
        <time>2020-06-04T09:08:33Z</time>
      </trkpt>
      <trkpt lat="46.76538" lon="-2.03495">
        <ele>6.4</ele>
        <time>2020-06-04T09:08:34Z</time>
      </trkpt>
      <trkpt lat="46.76542" lon="-2.03502">
        <ele>6.5</ele>
        <time>2020-06-04T09:08:35Z</time>
      </trkpt>
      <trkpt lat="46.76545" lon="-2.03508">
        <ele>6.6</ele>
        <time>2020-06-04T09:08:36Z</time>
      </trkpt>
      <trkpt lat="46.76549" lon="-2.03513">
        <ele>6.7</ele>
        <time>2020-06-04T09:08:37Z</time>
      </trkpt>
      <trkpt lat="46.76551" lon="-2.03518">
        <ele>6.7</ele>
        <time>2020-06-04T09:08:38Z</time>
      </trkpt>
      <trkpt lat="46.76554" lon="-2.03522">
        <ele>6.8</ele>
        <time>2020-06-04T09:08:39Z</time>
      </trkpt>
      <trkpt lat="46.76558" lon="-2.03526">
        <ele>6.9</ele>
        <time>2020-06-04T09:08:40Z</time>
      </trkpt>
      <trkpt lat="46.76561" lon="-2.03531">
        <ele>6.9</ele>
        <time>2020-06-04T09:08:41Z</time>
      </trkpt>
      <trkpt lat="46.76564" lon="-2.03536">
        <ele>7</ele>
        <time>2020-06-04T09:08:42Z</time>
      </trkpt>
      <trkpt lat="46.76566" lon="-2.03544">
        <ele>7</ele>
        <time>2020-06-04T09:08:43Z</time>
      </trkpt>
      <trkpt lat="46.76569" lon="-2.0355">
        <ele>7.1</ele>
        <time>2020-06-04T09:08:44Z</time>
      </trkpt>
      <trkpt lat="46.7657" lon="-2.03555">
        <ele>7.2</ele>
        <time>2020-06-04T09:08:45Z</time>
      </trkpt>
      <trkpt lat="46.76573" lon="-2.03561">
        <ele>7.2</ele>
        <time>2020-06-04T09:08:46Z</time>
      </trkpt>
      <trkpt lat="46.76575" lon="-2.03567">
        <ele>7.3</ele>
        <time>2020-06-04T09:08:47Z</time>
      </trkpt>
      <trkpt lat="46.76577" lon="-2.03575">
        <ele>7.3</ele>
        <time>2020-06-04T09:08:48Z</time>
      </trkpt>
      <trkpt lat="46.76578" lon="-2.03581">
        <ele>7.4</ele>
        <time>2020-06-04T09:08:49Z</time>
      </trkpt>
      <trkpt lat="46.7658" lon="-2.03587">
        <ele>7.5</ele>
        <time>2020-06-04T09:08:50Z</time>
      </trkpt>
      <trkpt lat="46.76581" lon="-2.03592">
        <ele>7.5</ele>
        <time>2020-06-04T09:08:51Z</time>
      </trkpt>
      <trkpt lat="46.76581" lon="-2.03597">
        <ele>7.6</ele>
        <time>2020-06-04T09:08:52Z</time>
      </trkpt>
      <trkpt lat="46.76583" lon="-2.03603">
        <ele>7.7</ele>
        <time>2020-06-04T09:08:53Z</time>
      </trkpt>
      <trkpt lat="46.76584" lon="-2.03609">
        <ele>7.8</ele>
        <time>2020-06-04T09:08:54Z</time>
      </trkpt>
      <trkpt lat="46.76587" lon="-2.03616">
        <ele>7.9</ele>
        <time>2020-06-04T09:08:55Z</time>
      </trkpt>
      <trkpt lat="46.76589" lon="-2.03623">
        <ele>7.9</ele>
        <time>2020-06-04T09:08:56Z</time>
      </trkpt>
      <trkpt lat="46.7659" lon="-2.03629">
        <ele>8</ele>
        <time>2020-06-04T09:08:57Z</time>
      </trkpt>
      <trkpt lat="46.76592" lon="-2.03634">
        <ele>8</ele>
        <time>2020-06-04T09:08:58Z</time>
      </trkpt>
      <trkpt lat="46.76592" lon="-2.03641">
        <ele>8</ele>
        <time>2020-06-04T09:08:59Z</time>
      </trkpt>
      <trkpt lat="46.76593" lon="-2.03647">
        <ele>8.1</ele>
        <time>2020-06-04T09:09:00Z</time>
      </trkpt>
      <trkpt lat="46.76594" lon="-2.03654">
        <ele>8.1</ele>
        <time>2020-06-04T09:09:01Z</time>
      </trkpt>
      <trkpt lat="46.76596" lon="-2.0366">
        <ele>8.1</ele>
        <time>2020-06-04T09:09:02Z</time>
      </trkpt>
      <trkpt lat="46.76598" lon="-2.03666">
        <ele>8.1</ele>
        <time>2020-06-04T09:09:03Z</time>
      </trkpt>
      <trkpt lat="46.76599" lon="-2.03672">
        <ele>8.1</ele>
        <time>2020-06-04T09:09:04Z</time>
      </trkpt>
      <trkpt lat="46.76601" lon="-2.03679">
        <ele>8.1</ele>
        <time>2020-06-04T09:09:05Z</time>
      </trkpt>
      <trkpt lat="46.76603" lon="-2.03685">
        <ele>8.1</ele>
        <time>2020-06-04T09:09:06Z</time>
      </trkpt>
      <trkpt lat="46.76604" lon="-2.03693">
        <ele>8</ele>
        <time>2020-06-04T09:09:07Z</time>
      </trkpt>
      <trkpt lat="46.76605" lon="-2.037">
        <ele>8</ele>
        <time>2020-06-04T09:09:08Z</time>
      </trkpt>
      <trkpt lat="46.76605" lon="-2.03708">
        <ele>8</ele>
        <time>2020-06-04T09:09:09Z</time>
      </trkpt>
      <trkpt lat="46.76606" lon="-2.03716">
        <ele>7.9</ele>
        <time>2020-06-04T09:09:10Z</time>
      </trkpt>
      <trkpt lat="46.76606" lon="-2.03723">
        <ele>7.9</ele>
        <time>2020-06-04T09:09:11Z</time>
      </trkpt>
      <trkpt lat="46.76607" lon="-2.03731">
        <ele>7.8</ele>
        <time>2020-06-04T09:09:12Z</time>
      </trkpt>
      <trkpt lat="46.76608" lon="-2.03739">
        <ele>7.6</ele>
        <time>2020-06-04T09:09:13Z</time>
      </trkpt>
      <trkpt lat="46.7661" lon="-2.03746">
        <ele>7.5</ele>
        <time>2020-06-04T09:09:14Z</time>
      </trkpt>
      <trkpt lat="46.76612" lon="-2.03753">
        <ele>7.3</ele>
        <time>2020-06-04T09:09:15Z</time>
      </trkpt>
      <trkpt lat="46.76613" lon="-2.03759">
        <ele>7.2</ele>
        <time>2020-06-04T09:09:16Z</time>
      </trkpt>
      <trkpt lat="46.76615" lon="-2.03767">
        <ele>7.1</ele>
        <time>2020-06-04T09:09:17Z</time>
      </trkpt>
      <trkpt lat="46.76617" lon="-2.03775">
        <ele>6.9</ele>
        <time>2020-06-04T09:09:18Z</time>
      </trkpt>
      <trkpt lat="46.76618" lon="-2.03783">
        <ele>6.8</ele>
        <time>2020-06-04T09:09:19Z</time>
      </trkpt>
      <trkpt lat="46.76619" lon="-2.03791">
        <ele>6.7</ele>
        <time>2020-06-04T09:09:20Z</time>
      </trkpt>
      <trkpt lat="46.76619" lon="-2.03801">
        <ele>6.5</ele>
        <time>2020-06-04T09:09:21Z</time>
      </trkpt>
      <trkpt lat="46.76619" lon="-2.03809">
        <ele>6.3</ele>
        <time>2020-06-04T09:09:22Z</time>
      </trkpt>
      <trkpt lat="46.76618" lon="-2.03819">
        <ele>6.2</ele>
        <time>2020-06-04T09:09:23Z</time>
      </trkpt>
      <trkpt lat="46.76618" lon="-2.03828">
        <ele>6</ele>
        <time>2020-06-04T09:09:24Z</time>
      </trkpt>
      <trkpt lat="46.76616" lon="-2.03836">
        <ele>5.8</ele>
        <time>2020-06-04T09:09:25Z</time>
      </trkpt>
      <trkpt lat="46.76614" lon="-2.03845">
        <ele>5.6</ele>
        <time>2020-06-04T09:09:26Z</time>
      </trkpt>
      <trkpt lat="46.76614" lon="-2.03854">
        <ele>5.4</ele>
        <time>2020-06-04T09:09:27Z</time>
      </trkpt>
      <trkpt lat="46.76614" lon="-2.03863">
        <ele>5.3</ele>
        <time>2020-06-04T09:09:28Z</time>
      </trkpt>
      <trkpt lat="46.76615" lon="-2.03873">
        <ele>5.1</ele>
        <time>2020-06-04T09:09:29Z</time>
      </trkpt>
      <trkpt lat="46.76614" lon="-2.03883">
        <ele>5</ele>
        <time>2020-06-04T09:09:30Z</time>
      </trkpt>
      <trkpt lat="46.76614" lon="-2.03891">
        <ele>4.9</ele>
        <time>2020-06-04T09:09:31Z</time>
      </trkpt>
      <trkpt lat="46.76615" lon="-2.039">
        <ele>4.7</ele>
        <time>2020-06-04T09:09:32Z</time>
      </trkpt>
      <trkpt lat="46.76617" lon="-2.03908">
        <ele>4.6</ele>
        <time>2020-06-04T09:09:33Z</time>
      </trkpt>
      <trkpt lat="46.76617" lon="-2.03916">
        <ele>4.5</ele>
        <time>2020-06-04T09:09:34Z</time>
      </trkpt>
      <trkpt lat="46.76617" lon="-2.03925">
        <ele>4.3</ele>
        <time>2020-06-04T09:09:35Z</time>
      </trkpt>
      <trkpt lat="46.76618" lon="-2.03935">
        <ele>4.2</ele>
        <time>2020-06-04T09:09:36Z</time>
      </trkpt>
      <trkpt lat="46.76617" lon="-2.03943">
        <ele>4.1</ele>
        <time>2020-06-04T09:09:37Z</time>
      </trkpt>
      <trkpt lat="46.76616" lon="-2.03951">
        <ele>3.9</ele>
        <time>2020-06-04T09:09:38Z</time>
      </trkpt>
      <trkpt lat="46.76618" lon="-2.03959">
        <ele>3.8</ele>
        <time>2020-06-04T09:09:39Z</time>
      </trkpt>
      <trkpt lat="46.7662" lon="-2.03969">
        <ele>3.7</ele>
        <time>2020-06-04T09:09:40Z</time>
      </trkpt>
      <trkpt lat="46.76622" lon="-2.0398">
        <ele>3.6</ele>
        <time>2020-06-04T09:09:41Z</time>
      </trkpt>
      <trkpt lat="46.76624" lon="-2.03989">
        <ele>3.5</ele>
        <time>2020-06-04T09:09:42Z</time>
      </trkpt>
      <trkpt lat="46.76628" lon="-2.03999">
        <ele>3.5</ele>
        <time>2020-06-04T09:09:43Z</time>
      </trkpt>
      <trkpt lat="46.76632" lon="-2.04008">
        <ele>3.4</ele>
        <time>2020-06-04T09:09:44Z</time>
      </trkpt>
      <trkpt lat="46.76636" lon="-2.04017">
        <ele>3.3</ele>
        <time>2020-06-04T09:09:45Z</time>
      </trkpt>
      <trkpt lat="46.7664" lon="-2.04026">
        <ele>3.3</ele>
        <time>2020-06-04T09:09:46Z</time>
      </trkpt>
      <trkpt lat="46.76644" lon="-2.04034">
        <ele>3.2</ele>
        <time>2020-06-04T09:09:47Z</time>
      </trkpt>
      <trkpt lat="46.76648" lon="-2.04042">
        <ele>3.2</ele>
        <time>2020-06-04T09:09:48Z</time>
      </trkpt>
      <trkpt lat="46.76651" lon="-2.04051">
        <ele>3.2</ele>
        <time>2020-06-04T09:09:49Z</time>
      </trkpt>
      <trkpt lat="46.76654" lon="-2.04059">
        <ele>3.2</ele>
        <time>2020-06-04T09:09:50Z</time>
      </trkpt>
      <trkpt lat="46.76656" lon="-2.04065">
        <ele>3.2</ele>
        <time>2020-06-04T09:09:51Z</time>
      </trkpt>
      <trkpt lat="46.7666" lon="-2.04074">
        <ele>3.2</ele>
        <time>2020-06-04T09:09:52Z</time>
      </trkpt>
      <trkpt lat="46.76664" lon="-2.04082">
        <ele>3.2</ele>
        <time>2020-06-04T09:09:53Z</time>
      </trkpt>
      <trkpt lat="46.76666" lon="-2.04087">
        <ele>3.2</ele>
        <time>2020-06-04T09:09:54Z</time>
      </trkpt>
      <trkpt lat="46.76669" lon="-2.04093">
        <ele>3.2</ele>
        <time>2020-06-04T09:09:55Z</time>
      </trkpt>
      <trkpt lat="46.76673" lon="-2.04101">
        <ele>3.2</ele>
        <time>2020-06-04T09:09:56Z</time>
      </trkpt>
      <trkpt lat="46.76676" lon="-2.04108">
        <ele>3.2</ele>
        <time>2020-06-04T09:09:57Z</time>
      </trkpt>
      <trkpt lat="46.76678" lon="-2.04114">
        <ele>3.2</ele>
        <time>2020-06-04T09:09:58Z</time>
      </trkpt>
      <trkpt lat="46.7668" lon="-2.04121">
        <ele>3.3</ele>
        <time>2020-06-04T09:09:59Z</time>
      </trkpt>
      <trkpt lat="46.76683" lon="-2.04129">
        <ele>3.3</ele>
        <time>2020-06-04T09:10:00Z</time>
      </trkpt>
      <trkpt lat="46.76686" lon="-2.04135">
        <ele>3.3</ele>
        <time>2020-06-04T09:10:01Z</time>
      </trkpt>
      <trkpt lat="46.76689" lon="-2.0414">
        <ele>3.3</ele>
        <time>2020-06-04T09:10:02Z</time>
      </trkpt>
      <trkpt lat="46.76691" lon="-2.04146">
        <ele>3.3</ele>
        <time>2020-06-04T09:10:03Z</time>
      </trkpt>
      <trkpt lat="46.76693" lon="-2.04152">
        <ele>3.4</ele>
        <time>2020-06-04T09:10:04Z</time>
      </trkpt>
      <trkpt lat="46.76697" lon="-2.04158">
        <ele>3.4</ele>
        <time>2020-06-04T09:10:05Z</time>
      </trkpt>
      <trkpt lat="46.767" lon="-2.04164">
        <ele>3.4</ele>
        <time>2020-06-04T09:10:06Z</time>
      </trkpt>
      <trkpt lat="46.76704" lon="-2.04171">
        <ele>3.4</ele>
        <time>2020-06-04T09:10:07Z</time>
      </trkpt>
      <trkpt lat="46.76706" lon="-2.0418">
        <ele>3.4</ele>
        <time>2020-06-04T09:10:08Z</time>
      </trkpt>
      <trkpt lat="46.76709" lon="-2.04185">
        <ele>3.4</ele>
        <time>2020-06-04T09:10:09Z</time>
      </trkpt>
      <trkpt lat="46.76711" lon="-2.04192">
        <ele>3.4</ele>
        <time>2020-06-04T09:10:10Z</time>
      </trkpt>
      <trkpt lat="46.76714" lon="-2.04198">
        <ele>3.4</ele>
        <time>2020-06-04T09:10:11Z</time>
      </trkpt>
      <trkpt lat="46.76716" lon="-2.04203">
        <ele>3.4</ele>
        <time>2020-06-04T09:10:12Z</time>
      </trkpt>
      <trkpt lat="46.76718" lon="-2.04208">
        <ele>3.4</ele>
        <time>2020-06-04T09:10:13Z</time>
      </trkpt>
      <trkpt lat="46.7672" lon="-2.04213">
        <ele>3.4</ele>
        <time>2020-06-04T09:10:14Z</time>
      </trkpt>
      <trkpt lat="46.76723" lon="-2.04221">
        <ele>3.4</ele>
        <time>2020-06-04T09:10:15Z</time>
      </trkpt>
      <trkpt lat="46.76725" lon="-2.04225">
        <ele>3.4</ele>
        <time>2020-06-04T09:10:16Z</time>
      </trkpt>
      <trkpt lat="46.76727" lon="-2.04229">
        <ele>3.4</ele>
        <time>2020-06-04T09:10:17Z</time>
      </trkpt>
      <trkpt lat="46.76727" lon="-2.0423">
        <ele>3.4</ele>
        <time>2020-06-04T09:10:18Z</time>
      </trkpt>
      <trkpt lat="46.76728" lon="-2.04234">
        <ele>3.4</ele>
        <time>2020-06-04T09:10:19Z</time>
      </trkpt>
      <trkpt lat="46.76729" lon="-2.04235">
        <ele>3.4</ele>
        <time>2020-06-04T09:10:20Z</time>
      </trkpt>
      <trkpt lat="46.76731" lon="-2.04239">
        <ele>3.4</ele>
        <time>2020-06-04T09:10:21Z</time>
      </trkpt>
      <trkpt lat="46.76732" lon="-2.04241">
        <ele>3.4</ele>
        <time>2020-06-04T09:10:22Z</time>
      </trkpt>
      <trkpt lat="46.76735" lon="-2.04244">
        <ele>3.3</ele>
        <time>2020-06-04T09:10:23Z</time>
      </trkpt>
      <trkpt lat="46.76736" lon="-2.04245">
        <ele>3.3</ele>
        <time>2020-06-04T09:10:24Z</time>
      </trkpt>
      <trkpt lat="46.76739" lon="-2.04247">
        <ele>3.3</ele>
        <time>2020-06-04T09:10:25Z</time>
      </trkpt>
      <trkpt lat="46.76741" lon="-2.04247">
        <ele>3.3</ele>
        <time>2020-06-04T09:10:26Z</time>
      </trkpt>
      <trkpt lat="46.76743" lon="-2.0425">
        <ele>3.3</ele>
        <time>2020-06-04T09:10:27Z</time>
      </trkpt>
      <trkpt lat="46.76746" lon="-2.04252">
        <ele>3.4</ele>
        <time>2020-06-04T09:10:28Z</time>
      </trkpt>
      <trkpt lat="46.76749" lon="-2.04256">
        <ele>3.3</ele>
        <time>2020-06-04T09:10:29Z</time>
      </trkpt>
      <trkpt lat="46.76752" lon="-2.04259">
        <ele>3.3</ele>
        <time>2020-06-04T09:10:30Z</time>
      </trkpt>
      <trkpt lat="46.76756" lon="-2.04263">
        <ele>3.3</ele>
        <time>2020-06-04T09:10:31Z</time>
      </trkpt>
      <trkpt lat="46.76759" lon="-2.04268">
        <ele>3.3</ele>
        <time>2020-06-04T09:10:32Z</time>
      </trkpt>
      <trkpt lat="46.76762" lon="-2.04274">
        <ele>3.3</ele>
        <time>2020-06-04T09:10:33Z</time>
      </trkpt>
      <trkpt lat="46.76765" lon="-2.04278">
        <ele>3.3</ele>
        <time>2020-06-04T09:10:34Z</time>
      </trkpt>
      <trkpt lat="46.7677" lon="-2.04283">
        <ele>3.3</ele>
        <time>2020-06-04T09:10:35Z</time>
      </trkpt>
      <trkpt lat="46.76775" lon="-2.04289">
        <ele>3.3</ele>
        <time>2020-06-04T09:10:36Z</time>
      </trkpt>
      <trkpt lat="46.76781" lon="-2.04294">
        <ele>3.3</ele>
        <time>2020-06-04T09:10:37Z</time>
      </trkpt>
      <trkpt lat="46.76785" lon="-2.04298">
        <ele>3.3</ele>
        <time>2020-06-04T09:10:38Z</time>
      </trkpt>
      <trkpt lat="46.76789" lon="-2.04302">
        <ele>3.3</ele>
        <time>2020-06-04T09:10:39Z</time>
      </trkpt>
      <trkpt lat="46.76794" lon="-2.04306">
        <ele>3.3</ele>
        <time>2020-06-04T09:10:40Z</time>
      </trkpt>
      <trkpt lat="46.76798" lon="-2.0431">
        <ele>3.3</ele>
        <time>2020-06-04T09:10:41Z</time>
      </trkpt>
      <trkpt lat="46.76802" lon="-2.04315">
        <ele>3.3</ele>
        <time>2020-06-04T09:10:42Z</time>
      </trkpt>
      <trkpt lat="46.76807" lon="-2.04319">
        <ele>3.2</ele>
        <time>2020-06-04T09:10:43Z</time>
      </trkpt>
      <trkpt lat="46.76812" lon="-2.04324">
        <ele>3.2</ele>
        <time>2020-06-04T09:10:44Z</time>
      </trkpt>
      <trkpt lat="46.76817" lon="-2.04328">
        <ele>3.2</ele>
        <time>2020-06-04T09:10:45Z</time>
      </trkpt>
      <trkpt lat="46.76821" lon="-2.04331">
        <ele>3.2</ele>
        <time>2020-06-04T09:10:46Z</time>
      </trkpt>
      <trkpt lat="46.76827" lon="-2.04335">
        <ele>3.2</ele>
        <time>2020-06-04T09:10:47Z</time>
      </trkpt>
      <trkpt lat="46.76831" lon="-2.0434">
        <ele>3.2</ele>
        <time>2020-06-04T09:10:48Z</time>
      </trkpt>
      <trkpt lat="46.76835" lon="-2.04345">
        <ele>3.2</ele>
        <time>2020-06-04T09:10:49Z</time>
      </trkpt>
      <trkpt lat="46.76839" lon="-2.04349">
        <ele>3.2</ele>
        <time>2020-06-04T09:10:50Z</time>
      </trkpt>
      <trkpt lat="46.76843" lon="-2.04354">
        <ele>3.2</ele>
        <time>2020-06-04T09:10:51Z</time>
      </trkpt>
      <trkpt lat="46.76847" lon="-2.04359">
        <ele>3.2</ele>
        <time>2020-06-04T09:10:52Z</time>
      </trkpt>
      <trkpt lat="46.76851" lon="-2.04364">
        <ele>3.2</ele>
        <time>2020-06-04T09:10:53Z</time>
      </trkpt>
      <trkpt lat="46.76856" lon="-2.04367">
        <ele>3.1</ele>
        <time>2020-06-04T09:10:54Z</time>
      </trkpt>
      <trkpt lat="46.76859" lon="-2.04372">
        <ele>3.1</ele>
        <time>2020-06-04T09:10:55Z</time>
      </trkpt>
      <trkpt lat="46.76864" lon="-2.04377">
        <ele>3.1</ele>
        <time>2020-06-04T09:10:56Z</time>
      </trkpt>
      <trkpt lat="46.76869" lon="-2.04381">
        <ele>3.1</ele>
        <time>2020-06-04T09:10:57Z</time>
      </trkpt>
      <trkpt lat="46.76873" lon="-2.04385">
        <ele>3.1</ele>
        <time>2020-06-04T09:10:58Z</time>
      </trkpt>
      <trkpt lat="46.76877" lon="-2.0439">
        <ele>3.1</ele>
        <time>2020-06-04T09:10:59Z</time>
      </trkpt>
      <trkpt lat="46.76882" lon="-2.04395">
        <ele>3.1</ele>
        <time>2020-06-04T09:11:00Z</time>
      </trkpt>
      <trkpt lat="46.76887" lon="-2.044">
        <ele>3.1</ele>
        <time>2020-06-04T09:11:01Z</time>
      </trkpt>
      <trkpt lat="46.76892" lon="-2.04404">
        <ele>3.1</ele>
        <time>2020-06-04T09:11:02Z</time>
      </trkpt>
      <trkpt lat="46.76896" lon="-2.04409">
        <ele>3.1</ele>
        <time>2020-06-04T09:11:03Z</time>
      </trkpt>
      <trkpt lat="46.76899" lon="-2.04415">
        <ele>3.1</ele>
        <time>2020-06-04T09:11:04Z</time>
      </trkpt>
      <trkpt lat="46.76903" lon="-2.0442">
        <ele>3.1</ele>
        <time>2020-06-04T09:11:05Z</time>
      </trkpt>
      <trkpt lat="46.76907" lon="-2.04426">
        <ele>3.1</ele>
        <time>2020-06-04T09:11:06Z</time>
      </trkpt>
      <trkpt lat="46.76912" lon="-2.04432">
        <ele>3.1</ele>
        <time>2020-06-04T09:11:07Z</time>
      </trkpt>
      <trkpt lat="46.76916" lon="-2.04438">
        <ele>3.1</ele>
        <time>2020-06-04T09:11:08Z</time>
      </trkpt>
      <trkpt lat="46.7692" lon="-2.04444">
        <ele>3.1</ele>
        <time>2020-06-04T09:11:09Z</time>
      </trkpt>
      <trkpt lat="46.76924" lon="-2.0445">
        <ele>3.1</ele>
        <time>2020-06-04T09:11:10Z</time>
      </trkpt>
      <trkpt lat="46.76927" lon="-2.04457">
        <ele>3.1</ele>
        <time>2020-06-04T09:11:11Z</time>
      </trkpt>
      <trkpt lat="46.76931" lon="-2.04463">
        <ele>3.1</ele>
        <time>2020-06-04T09:11:12Z</time>
      </trkpt>
      <trkpt lat="46.76936" lon="-2.0447">
        <ele>3.1</ele>
        <time>2020-06-04T09:11:13Z</time>
      </trkpt>
      <trkpt lat="46.7694" lon="-2.04477">
        <ele>3.1</ele>
        <time>2020-06-04T09:11:14Z</time>
      </trkpt>
      <trkpt lat="46.76945" lon="-2.04483">
        <ele>3.1</ele>
        <time>2020-06-04T09:11:15Z</time>
      </trkpt>
      <trkpt lat="46.76949" lon="-2.04489">
        <ele>3.2</ele>
        <time>2020-06-04T09:11:16Z</time>
      </trkpt>
      <trkpt lat="46.76952" lon="-2.04495">
        <ele>3.2</ele>
        <time>2020-06-04T09:11:17Z</time>
      </trkpt>
      <trkpt lat="46.76955" lon="-2.04501">
        <ele>3.2</ele>
        <time>2020-06-04T09:11:18Z</time>
      </trkpt>
      <trkpt lat="46.76958" lon="-2.04507">
        <ele>3.2</ele>
        <time>2020-06-04T09:11:19Z</time>
      </trkpt>
      <trkpt lat="46.76963" lon="-2.04514">
        <ele>3.2</ele>
        <time>2020-06-04T09:11:20Z</time>
      </trkpt>
      <trkpt lat="46.76968" lon="-2.04521">
        <ele>3.2</ele>
        <time>2020-06-04T09:11:21Z</time>
      </trkpt>
      <trkpt lat="46.76973" lon="-2.04528">
        <ele>3.1</ele>
        <time>2020-06-04T09:11:22Z</time>
      </trkpt>
      <trkpt lat="46.76976" lon="-2.04534">
        <ele>3.1</ele>
        <time>2020-06-04T09:11:23Z</time>
      </trkpt>
      <trkpt lat="46.76981" lon="-2.0454">
        <ele>3.1</ele>
        <time>2020-06-04T09:11:24Z</time>
      </trkpt>
      <trkpt lat="46.76984" lon="-2.04546">
        <ele>3.1</ele>
        <time>2020-06-04T09:11:25Z</time>
      </trkpt>
      <trkpt lat="46.76988" lon="-2.04551">
        <ele>3.1</ele>
        <time>2020-06-04T09:11:26Z</time>
      </trkpt>
      <trkpt lat="46.76992" lon="-2.04556">
        <ele>3.1</ele>
        <time>2020-06-04T09:11:27Z</time>
      </trkpt>
      <trkpt lat="46.76996" lon="-2.04561">
        <ele>3.1</ele>
        <time>2020-06-04T09:11:28Z</time>
      </trkpt>
      <trkpt lat="46.76999" lon="-2.04566">
        <ele>3.1</ele>
        <time>2020-06-04T09:11:29Z</time>
      </trkpt>
      <trkpt lat="46.77003" lon="-2.04572">
        <ele>3.1</ele>
        <time>2020-06-04T09:11:30Z</time>
      </trkpt>
      <trkpt lat="46.77007" lon="-2.04578">
        <ele>3.1</ele>
        <time>2020-06-04T09:11:31Z</time>
      </trkpt>
      <trkpt lat="46.77011" lon="-2.04585">
        <ele>3.1</ele>
        <time>2020-06-04T09:11:32Z</time>
      </trkpt>
      <trkpt lat="46.77015" lon="-2.04591">
        <ele>3.1</ele>
        <time>2020-06-04T09:11:33Z</time>
      </trkpt>
      <trkpt lat="46.77019" lon="-2.04597">
        <ele>3.2</ele>
        <time>2020-06-04T09:11:34Z</time>
      </trkpt>
      <trkpt lat="46.77023" lon="-2.04603">
        <ele>3.2</ele>
        <time>2020-06-04T09:11:35Z</time>
      </trkpt>
      <trkpt lat="46.77026" lon="-2.04609">
        <ele>3.2</ele>
        <time>2020-06-04T09:11:36Z</time>
      </trkpt>
      <trkpt lat="46.7703" lon="-2.04614">
        <ele>3.2</ele>
        <time>2020-06-04T09:11:37Z</time>
      </trkpt>
      <trkpt lat="46.77034" lon="-2.0462">
        <ele>3.2</ele>
        <time>2020-06-04T09:11:38Z</time>
      </trkpt>
      <trkpt lat="46.77038" lon="-2.04626">
        <ele>3.2</ele>
        <time>2020-06-04T09:11:39Z</time>
      </trkpt>
      <trkpt lat="46.7704" lon="-2.04631">
        <ele>3.2</ele>
        <time>2020-06-04T09:11:40Z</time>
      </trkpt>
      <trkpt lat="46.77046" lon="-2.04639">
        <ele>3.2</ele>
        <time>2020-06-04T09:11:41Z</time>
      </trkpt>
      <trkpt lat="46.77049" lon="-2.04645">
        <ele>3.2</ele>
        <time>2020-06-04T09:11:42Z</time>
      </trkpt>
      <trkpt lat="46.77052" lon="-2.04652">
        <ele>3.2</ele>
        <time>2020-06-04T09:11:43Z</time>
      </trkpt>
      <trkpt lat="46.77054" lon="-2.04658">
        <ele>3.2</ele>
        <time>2020-06-04T09:11:44Z</time>
      </trkpt>
      <trkpt lat="46.77057" lon="-2.04665">
        <ele>3.2</ele>
        <time>2020-06-04T09:11:45Z</time>
      </trkpt>
      <trkpt lat="46.77059" lon="-2.0467">
        <ele>3.2</ele>
        <time>2020-06-04T09:11:46Z</time>
      </trkpt>
      <trkpt lat="46.77062" lon="-2.04677">
        <ele>3.2</ele>
        <time>2020-06-04T09:11:47Z</time>
      </trkpt>
      <trkpt lat="46.77065" lon="-2.04685">
        <ele>3.2</ele>
        <time>2020-06-04T09:11:48Z</time>
      </trkpt>
      <trkpt lat="46.77068" lon="-2.04693">
        <ele>3.3</ele>
        <time>2020-06-04T09:11:49Z</time>
      </trkpt>
      <trkpt lat="46.77071" lon="-2.04701">
        <ele>3.3</ele>
        <time>2020-06-04T09:11:50Z</time>
      </trkpt>
      <trkpt lat="46.77073" lon="-2.04707">
        <ele>3.3</ele>
        <time>2020-06-04T09:11:51Z</time>
      </trkpt>
      <trkpt lat="46.77076" lon="-2.04715">
        <ele>3.3</ele>
        <time>2020-06-04T09:11:52Z</time>
      </trkpt>
      <trkpt lat="46.7708" lon="-2.04723">
        <ele>3.3</ele>
        <time>2020-06-04T09:11:53Z</time>
      </trkpt>
      <trkpt lat="46.77082" lon="-2.0473">
        <ele>3.3</ele>
        <time>2020-06-04T09:11:54Z</time>
      </trkpt>
      <trkpt lat="46.77084" lon="-2.04737">
        <ele>3.3</ele>
        <time>2020-06-04T09:11:55Z</time>
      </trkpt>
      <trkpt lat="46.77087" lon="-2.04744">
        <ele>3.3</ele>
        <time>2020-06-04T09:11:56Z</time>
      </trkpt>
      <trkpt lat="46.7709" lon="-2.04751">
        <ele>3.4</ele>
        <time>2020-06-04T09:11:57Z</time>
      </trkpt>
      <trkpt lat="46.77092" lon="-2.04756">
        <ele>3.4</ele>
        <time>2020-06-04T09:11:58Z</time>
      </trkpt>
      <trkpt lat="46.77095" lon="-2.04762">
        <ele>3.4</ele>
        <time>2020-06-04T09:11:59Z</time>
      </trkpt>
      <trkpt lat="46.77097" lon="-2.04769">
        <ele>3.4</ele>
        <time>2020-06-04T09:12:00Z</time>
      </trkpt>
      <trkpt lat="46.77099" lon="-2.04776">
        <ele>3.4</ele>
        <time>2020-06-04T09:12:01Z</time>
      </trkpt>
      <trkpt lat="46.77102" lon="-2.04783">
        <ele>3.4</ele>
        <time>2020-06-04T09:12:02Z</time>
      </trkpt>
      <trkpt lat="46.77104" lon="-2.04789">
        <ele>3.4</ele>
        <time>2020-06-04T09:12:03Z</time>
      </trkpt>
      <trkpt lat="46.77108" lon="-2.04798">
        <ele>3.5</ele>
        <time>2020-06-04T09:12:04Z</time>
      </trkpt>
      <trkpt lat="46.77111" lon="-2.04805">
        <ele>3.5</ele>
        <time>2020-06-04T09:12:05Z</time>
      </trkpt>
      <trkpt lat="46.77114" lon="-2.04811">
        <ele>3.5</ele>
        <time>2020-06-04T09:12:06Z</time>
      </trkpt>
      <trkpt lat="46.77116" lon="-2.04817">
        <ele>3.5</ele>
        <time>2020-06-04T09:12:07Z</time>
      </trkpt>
      <trkpt lat="46.77119" lon="-2.04824">
        <ele>3.6</ele>
        <time>2020-06-04T09:12:08Z</time>
      </trkpt>
      <trkpt lat="46.7712" lon="-2.04829">
        <ele>3.6</ele>
        <time>2020-06-04T09:12:09Z</time>
      </trkpt>
      <trkpt lat="46.77122" lon="-2.04835">
        <ele>3.6</ele>
        <time>2020-06-04T09:12:10Z</time>
      </trkpt>
      <trkpt lat="46.77125" lon="-2.0484">
        <ele>3.6</ele>
        <time>2020-06-04T09:12:11Z</time>
      </trkpt>
      <trkpt lat="46.77126" lon="-2.04845">
        <ele>3.6</ele>
        <time>2020-06-04T09:12:12Z</time>
      </trkpt>
      <trkpt lat="46.77129" lon="-2.04849">
        <ele>3.6</ele>
        <time>2020-06-04T09:12:13Z</time>
      </trkpt>
      <trkpt lat="46.77132" lon="-2.04853">
        <ele>3.6</ele>
        <time>2020-06-04T09:12:14Z</time>
      </trkpt>
      <trkpt lat="46.77136" lon="-2.04856">
        <ele>3.7</ele>
        <time>2020-06-04T09:12:15Z</time>
      </trkpt>
      <trkpt lat="46.77142" lon="-2.04857">
        <ele>3.6</ele>
        <time>2020-06-04T09:12:16Z</time>
      </trkpt>
      <trkpt lat="46.77149" lon="-2.04857">
        <ele>3.6</ele>
        <time>2020-06-04T09:12:17Z</time>
      </trkpt>
      <trkpt lat="46.77155" lon="-2.04856">
        <ele>3.6</ele>
        <time>2020-06-04T09:12:18Z</time>
      </trkpt>
      <trkpt lat="46.77161" lon="-2.04855">
        <ele>3.6</ele>
        <time>2020-06-04T09:12:19Z</time>
      </trkpt>
      <trkpt lat="46.77168" lon="-2.04857">
        <ele>3.6</ele>
        <time>2020-06-04T09:12:20Z</time>
      </trkpt>
      <trkpt lat="46.77174" lon="-2.04859">
        <ele>3.6</ele>
        <time>2020-06-04T09:12:21Z</time>
      </trkpt>
      <trkpt lat="46.77179" lon="-2.04865">
        <ele>3.6</ele>
        <time>2020-06-04T09:12:22Z</time>
      </trkpt>
      <trkpt lat="46.77183" lon="-2.04871">
        <ele>3.6</ele>
        <time>2020-06-04T09:12:23Z</time>
      </trkpt>
      <trkpt lat="46.77185" lon="-2.04878">
        <ele>3.7</ele>
        <time>2020-06-04T09:12:24Z</time>
      </trkpt>
      <trkpt lat="46.77186" lon="-2.04885">
        <ele>3.7</ele>
        <time>2020-06-04T09:12:25Z</time>
      </trkpt>
      <trkpt lat="46.77187" lon="-2.04892">
        <ele>3.8</ele>
        <time>2020-06-04T09:12:26Z</time>
      </trkpt>
      <trkpt lat="46.77187" lon="-2.04898">
        <ele>3.8</ele>
        <time>2020-06-04T09:12:27Z</time>
      </trkpt>
      <trkpt lat="46.77188" lon="-2.04904">
        <ele>3.9</ele>
        <time>2020-06-04T09:12:28Z</time>
      </trkpt>
      <trkpt lat="46.77189" lon="-2.04909">
        <ele>3.9</ele>
        <time>2020-06-04T09:12:29Z</time>
      </trkpt>
      <trkpt lat="46.77191" lon="-2.04913">
        <ele>3.9</ele>
        <time>2020-06-04T09:12:30Z</time>
      </trkpt>
      <trkpt lat="46.77194" lon="-2.04916">
        <ele>3.9</ele>
        <time>2020-06-04T09:12:31Z</time>
      </trkpt>
      <trkpt lat="46.77198" lon="-2.04919">
        <ele>3.9</ele>
        <time>2020-06-04T09:12:32Z</time>
      </trkpt>
      <trkpt lat="46.77202" lon="-2.04921">
        <ele>3.9</ele>
        <time>2020-06-04T09:12:33Z</time>
      </trkpt>
      <trkpt lat="46.77207" lon="-2.04924">
        <ele>3.9</ele>
        <time>2020-06-04T09:12:34Z</time>
      </trkpt>
      <trkpt lat="46.77212" lon="-2.04927">
        <ele>3.9</ele>
        <time>2020-06-04T09:12:35Z</time>
      </trkpt>
      <trkpt lat="46.77217" lon="-2.0493">
        <ele>3.9</ele>
        <time>2020-06-04T09:12:36Z</time>
      </trkpt>
      <trkpt lat="46.77222" lon="-2.04932">
        <ele>3.8</ele>
        <time>2020-06-04T09:12:37Z</time>
      </trkpt>
      <trkpt lat="46.77226" lon="-2.04934">
        <ele>3.8</ele>
        <time>2020-06-04T09:12:38Z</time>
      </trkpt>
      <trkpt lat="46.77232" lon="-2.04937">
        <ele>3.8</ele>
        <time>2020-06-04T09:12:39Z</time>
      </trkpt>
      <trkpt lat="46.77236" lon="-2.04941">
        <ele>3.7</ele>
        <time>2020-06-04T09:12:40Z</time>
      </trkpt>
      <trkpt lat="46.77241" lon="-2.04945">
        <ele>3.7</ele>
        <time>2020-06-04T09:12:41Z</time>
      </trkpt>
      <trkpt lat="46.77247" lon="-2.0495">
        <ele>3.6</ele>
        <time>2020-06-04T09:12:42Z</time>
      </trkpt>
      <trkpt lat="46.77251" lon="-2.04955">
        <ele>3.6</ele>
        <time>2020-06-04T09:12:43Z</time>
      </trkpt>
      <trkpt lat="46.77256" lon="-2.0496">
        <ele>3.6</ele>
        <time>2020-06-04T09:12:44Z</time>
      </trkpt>
      <trkpt lat="46.77261" lon="-2.04965">
        <ele>3.5</ele>
        <time>2020-06-04T09:12:45Z</time>
      </trkpt>
      <trkpt lat="46.77265" lon="-2.0497">
        <ele>3.5</ele>
        <time>2020-06-04T09:12:46Z</time>
      </trkpt>
      <trkpt lat="46.77269" lon="-2.04975">
        <ele>3.5</ele>
        <time>2020-06-04T09:12:47Z</time>
      </trkpt>
      <trkpt lat="46.77273" lon="-2.0498">
        <ele>3.5</ele>
        <time>2020-06-04T09:12:48Z</time>
      </trkpt>
      <trkpt lat="46.77277" lon="-2.04984">
        <ele>3.5</ele>
        <time>2020-06-04T09:12:49Z</time>
      </trkpt>
      <trkpt lat="46.7728" lon="-2.04988">
        <ele>3.5</ele>
        <time>2020-06-04T09:12:50Z</time>
      </trkpt>
      <trkpt lat="46.77283" lon="-2.04992">
        <ele>3.5</ele>
        <time>2020-06-04T09:12:51Z</time>
      </trkpt>
      <trkpt lat="46.77285" lon="-2.04996">
        <ele>3.5</ele>
        <time>2020-06-04T09:12:52Z</time>
      </trkpt>
      <trkpt lat="46.77288" lon="-2.05001">
        <ele>3.5</ele>
        <time>2020-06-04T09:12:53Z</time>
      </trkpt>
      <trkpt lat="46.77291" lon="-2.05006">
        <ele>3.5</ele>
        <time>2020-06-04T09:12:54Z</time>
      </trkpt>
      <trkpt lat="46.77294" lon="-2.05011">
        <ele>3.5</ele>
        <time>2020-06-04T09:12:55Z</time>
      </trkpt>
      <trkpt lat="46.77297" lon="-2.05016">
        <ele>3.5</ele>
        <time>2020-06-04T09:12:56Z</time>
      </trkpt>
      <trkpt lat="46.773" lon="-2.05021">
        <ele>3.5</ele>
        <time>2020-06-04T09:12:57Z</time>
      </trkpt>
      <trkpt lat="46.77303" lon="-2.05027">
        <ele>3.4</ele>
        <time>2020-06-04T09:12:58Z</time>
      </trkpt>
      <trkpt lat="46.77306" lon="-2.05031">
        <ele>3.4</ele>
        <time>2020-06-04T09:12:59Z</time>
      </trkpt>
      <trkpt lat="46.77309" lon="-2.05036">
        <ele>3.4</ele>
        <time>2020-06-04T09:13:00Z</time>
      </trkpt>
      <trkpt lat="46.77313" lon="-2.0504">
        <ele>3.4</ele>
        <time>2020-06-04T09:13:01Z</time>
      </trkpt>
      <trkpt lat="46.77316" lon="-2.05044">
        <ele>3.4</ele>
        <time>2020-06-04T09:13:02Z</time>
      </trkpt>
      <trkpt lat="46.77319" lon="-2.05048">
        <ele>3.4</ele>
        <time>2020-06-04T09:13:03Z</time>
      </trkpt>
      <trkpt lat="46.77322" lon="-2.05052">
        <ele>3.4</ele>
        <time>2020-06-04T09:13:04Z</time>
      </trkpt>
      <trkpt lat="46.77326" lon="-2.05056">
        <ele>3.4</ele>
        <time>2020-06-04T09:13:05Z</time>
      </trkpt>
      <trkpt lat="46.77328" lon="-2.0506">
        <ele>3.4</ele>
        <time>2020-06-04T09:13:06Z</time>
      </trkpt>
      <trkpt lat="46.77331" lon="-2.05064">
        <ele>3.4</ele>
        <time>2020-06-04T09:13:07Z</time>
      </trkpt>
      <trkpt lat="46.77335" lon="-2.05068">
        <ele>3.4</ele>
        <time>2020-06-04T09:13:08Z</time>
      </trkpt>
      <trkpt lat="46.77339" lon="-2.05072">
        <ele>3.4</ele>
        <time>2020-06-04T09:13:09Z</time>
      </trkpt>
      <trkpt lat="46.77342" lon="-2.05076">
        <ele>3.4</ele>
        <time>2020-06-04T09:13:10Z</time>
      </trkpt>
      <trkpt lat="46.77346" lon="-2.05081">
        <ele>3.4</ele>
        <time>2020-06-04T09:13:11Z</time>
      </trkpt>
      <trkpt lat="46.7735" lon="-2.05084">
        <ele>3.4</ele>
        <time>2020-06-04T09:13:12Z</time>
      </trkpt>
      <trkpt lat="46.77353" lon="-2.0509">
        <ele>3.4</ele>
        <time>2020-06-04T09:13:13Z</time>
      </trkpt>
      <trkpt lat="46.77357" lon="-2.05094">
        <ele>3.4</ele>
        <time>2020-06-04T09:13:14Z</time>
      </trkpt>
      <trkpt lat="46.7736" lon="-2.05099">
        <ele>3.5</ele>
        <time>2020-06-04T09:13:15Z</time>
      </trkpt>
      <trkpt lat="46.77364" lon="-2.05104">
        <ele>3.5</ele>
        <time>2020-06-04T09:13:16Z</time>
      </trkpt>
      <trkpt lat="46.77367" lon="-2.0511">
        <ele>3.5</ele>
        <time>2020-06-04T09:13:17Z</time>
      </trkpt>
      <trkpt lat="46.7737" lon="-2.05114">
        <ele>3.5</ele>
        <time>2020-06-04T09:13:18Z</time>
      </trkpt>
      <trkpt lat="46.77373" lon="-2.05119">
        <ele>3.5</ele>
        <time>2020-06-04T09:13:19Z</time>
      </trkpt>
      <trkpt lat="46.77376" lon="-2.05122">
        <ele>3.5</ele>
        <time>2020-06-04T09:13:20Z</time>
      </trkpt>
      <trkpt lat="46.77379" lon="-2.05126">
        <ele>3.5</ele>
        <time>2020-06-04T09:13:21Z</time>
      </trkpt>
      <trkpt lat="46.77382" lon="-2.0513">
        <ele>3.5</ele>
        <time>2020-06-04T09:13:22Z</time>
      </trkpt>
      <trkpt lat="46.77384" lon="-2.05134">
        <ele>3.5</ele>
        <time>2020-06-04T09:13:23Z</time>
      </trkpt>
      <trkpt lat="46.77386" lon="-2.05137">
        <ele>3.5</ele>
        <time>2020-06-04T09:13:24Z</time>
      </trkpt>
      <trkpt lat="46.77389" lon="-2.05141">
        <ele>3.4</ele>
        <time>2020-06-04T09:13:25Z</time>
      </trkpt>
      <trkpt lat="46.77391" lon="-2.05145">
        <ele>3.4</ele>
        <time>2020-06-04T09:13:26Z</time>
      </trkpt>
      <trkpt lat="46.77394" lon="-2.05148">
        <ele>3.4</ele>
        <time>2020-06-04T09:13:27Z</time>
      </trkpt>
      <trkpt lat="46.77397" lon="-2.05152">
        <ele>3.4</ele>
        <time>2020-06-04T09:13:28Z</time>
      </trkpt>
      <trkpt lat="46.774" lon="-2.05157">
        <ele>3.4</ele>
        <time>2020-06-04T09:13:29Z</time>
      </trkpt>
      <trkpt lat="46.77404" lon="-2.05161">
        <ele>3.4</ele>
        <time>2020-06-04T09:13:30Z</time>
      </trkpt>
      <trkpt lat="46.77408" lon="-2.05165">
        <ele>3.4</ele>
        <time>2020-06-04T09:13:31Z</time>
      </trkpt>
      <trkpt lat="46.7741" lon="-2.0517">
        <ele>3.4</ele>
        <time>2020-06-04T09:13:32Z</time>
      </trkpt>
      <trkpt lat="46.77413" lon="-2.05174">
        <ele>3.4</ele>
        <time>2020-06-04T09:13:33Z</time>
      </trkpt>
      <trkpt lat="46.77416" lon="-2.05178">
        <ele>3.4</ele>
        <time>2020-06-04T09:13:34Z</time>
      </trkpt>
      <trkpt lat="46.77419" lon="-2.05181">
        <ele>3.4</ele>
        <time>2020-06-04T09:13:35Z</time>
      </trkpt>
      <trkpt lat="46.77423" lon="-2.05187">
        <ele>3.4</ele>
        <time>2020-06-04T09:13:36Z</time>
      </trkpt>
      <trkpt lat="46.77427" lon="-2.05191">
        <ele>3.4</ele>
        <time>2020-06-04T09:13:37Z</time>
      </trkpt>
      <trkpt lat="46.7743" lon="-2.05196">
        <ele>3.4</ele>
        <time>2020-06-04T09:13:38Z</time>
      </trkpt>
      <trkpt lat="46.77434" lon="-2.05201">
        <ele>3.4</ele>
        <time>2020-06-04T09:13:39Z</time>
      </trkpt>
      <trkpt lat="46.77438" lon="-2.05206">
        <ele>3.3</ele>
        <time>2020-06-04T09:13:40Z</time>
      </trkpt>
      <trkpt lat="46.77442" lon="-2.05212">
        <ele>3.3</ele>
        <time>2020-06-04T09:13:41Z</time>
      </trkpt>
      <trkpt lat="46.77445" lon="-2.05217">
        <ele>3.3</ele>
        <time>2020-06-04T09:13:42Z</time>
      </trkpt>
      <trkpt lat="46.77447" lon="-2.05221">
        <ele>3.3</ele>
        <time>2020-06-04T09:13:43Z</time>
      </trkpt>
      <trkpt lat="46.7745" lon="-2.05227">
        <ele>3.3</ele>
        <time>2020-06-04T09:13:44Z</time>
      </trkpt>
      <trkpt lat="46.77453" lon="-2.0523">
        <ele>3.3</ele>
        <time>2020-06-04T09:13:45Z</time>
      </trkpt>
      <trkpt lat="46.77455" lon="-2.05234">
        <ele>3.3</ele>
        <time>2020-06-04T09:13:46Z</time>
      </trkpt>
      <trkpt lat="46.77458" lon="-2.05238">
        <ele>3.3</ele>
        <time>2020-06-04T09:13:47Z</time>
      </trkpt>
      <trkpt lat="46.77461" lon="-2.05241">
        <ele>3.3</ele>
        <time>2020-06-04T09:13:48Z</time>
      </trkpt>
      <trkpt lat="46.77463" lon="-2.05245">
        <ele>3.3</ele>
        <time>2020-06-04T09:13:49Z</time>
      </trkpt>
      <trkpt lat="46.77465" lon="-2.05249">
        <ele>3.3</ele>
        <time>2020-06-04T09:13:50Z</time>
      </trkpt>
      <trkpt lat="46.77468" lon="-2.05254">
        <ele>3.3</ele>
        <time>2020-06-04T09:13:51Z</time>
      </trkpt>
      <trkpt lat="46.77471" lon="-2.05259">
        <ele>3.3</ele>
        <time>2020-06-04T09:13:52Z</time>
      </trkpt>
      <trkpt lat="46.77474" lon="-2.05263">
        <ele>3.3</ele>
        <time>2020-06-04T09:13:53Z</time>
      </trkpt>
      <trkpt lat="46.77477" lon="-2.05268">
        <ele>3.3</ele>
        <time>2020-06-04T09:13:54Z</time>
      </trkpt>
      <trkpt lat="46.7748" lon="-2.05273">
        <ele>3.3</ele>
        <time>2020-06-04T09:13:55Z</time>
      </trkpt>
      <trkpt lat="46.77484" lon="-2.05278">
        <ele>3.4</ele>
        <time>2020-06-04T09:13:56Z</time>
      </trkpt>
      <trkpt lat="46.77487" lon="-2.05283">
        <ele>3.4</ele>
        <time>2020-06-04T09:13:57Z</time>
      </trkpt>
      <trkpt lat="46.77491" lon="-2.05287">
        <ele>3.4</ele>
        <time>2020-06-04T09:13:58Z</time>
      </trkpt>
      <trkpt lat="46.77495" lon="-2.05292">
        <ele>3.4</ele>
        <time>2020-06-04T09:13:59Z</time>
      </trkpt>
      <trkpt lat="46.77499" lon="-2.05296">
        <ele>3.4</ele>
        <time>2020-06-04T09:14:00Z</time>
      </trkpt>
      <trkpt lat="46.77503" lon="-2.05301">
        <ele>3.5</ele>
        <time>2020-06-04T09:14:01Z</time>
      </trkpt>
      <trkpt lat="46.77506" lon="-2.05305">
        <ele>3.5</ele>
        <time>2020-06-04T09:14:02Z</time>
      </trkpt>
      <trkpt lat="46.7751" lon="-2.0531">
        <ele>3.5</ele>
        <time>2020-06-04T09:14:03Z</time>
      </trkpt>
      <trkpt lat="46.77513" lon="-2.05314">
        <ele>3.5</ele>
        <time>2020-06-04T09:14:04Z</time>
      </trkpt>
      <trkpt lat="46.77517" lon="-2.05318">
        <ele>3.6</ele>
        <time>2020-06-04T09:14:05Z</time>
      </trkpt>
      <trkpt lat="46.77521" lon="-2.05322">
        <ele>3.6</ele>
        <time>2020-06-04T09:14:06Z</time>
      </trkpt>
      <trkpt lat="46.77525" lon="-2.05325">
        <ele>3.6</ele>
        <time>2020-06-04T09:14:07Z</time>
      </trkpt>
      <trkpt lat="46.77527" lon="-2.05329">
        <ele>3.6</ele>
        <time>2020-06-04T09:14:08Z</time>
      </trkpt>
      <trkpt lat="46.77532" lon="-2.05333">
        <ele>3.7</ele>
        <time>2020-06-04T09:14:09Z</time>
      </trkpt>
      <trkpt lat="46.77535" lon="-2.05336">
        <ele>3.7</ele>
        <time>2020-06-04T09:14:10Z</time>
      </trkpt>
      <trkpt lat="46.77539" lon="-2.05341">
        <ele>3.7</ele>
        <time>2020-06-04T09:14:11Z</time>
      </trkpt>
      <trkpt lat="46.77542" lon="-2.05345">
        <ele>3.7</ele>
        <time>2020-06-04T09:14:12Z</time>
      </trkpt>
      <trkpt lat="46.77546" lon="-2.05349">
        <ele>3.7</ele>
        <time>2020-06-04T09:14:13Z</time>
      </trkpt>
      <trkpt lat="46.77549" lon="-2.05354">
        <ele>3.8</ele>
        <time>2020-06-04T09:14:14Z</time>
      </trkpt>
      <trkpt lat="46.77553" lon="-2.05358">
        <ele>3.8</ele>
        <time>2020-06-04T09:14:15Z</time>
      </trkpt>
      <trkpt lat="46.77556" lon="-2.05362">
        <ele>3.8</ele>
        <time>2020-06-04T09:14:16Z</time>
      </trkpt>
      <trkpt lat="46.7756" lon="-2.05367">
        <ele>3.9</ele>
        <time>2020-06-04T09:14:17Z</time>
      </trkpt>
      <trkpt lat="46.77564" lon="-2.05372">
        <ele>3.9</ele>
        <time>2020-06-04T09:14:18Z</time>
      </trkpt>
      <trkpt lat="46.77567" lon="-2.05377">
        <ele>3.9</ele>
        <time>2020-06-04T09:14:19Z</time>
      </trkpt>
      <trkpt lat="46.77571" lon="-2.05381">
        <ele>4</ele>
        <time>2020-06-04T09:14:20Z</time>
      </trkpt>
      <trkpt lat="46.77574" lon="-2.05386">
        <ele>4</ele>
        <time>2020-06-04T09:14:21Z</time>
      </trkpt>
      <trkpt lat="46.77577" lon="-2.05389">
        <ele>4</ele>
        <time>2020-06-04T09:14:22Z</time>
      </trkpt>
      <trkpt lat="46.7758" lon="-2.05393">
        <ele>4.1</ele>
        <time>2020-06-04T09:14:23Z</time>
      </trkpt>
      <trkpt lat="46.77582" lon="-2.05398">
        <ele>4.1</ele>
        <time>2020-06-04T09:14:24Z</time>
      </trkpt>
      <trkpt lat="46.77583" lon="-2.05399">
        <ele>4.1</ele>
        <time>2020-06-04T09:14:25Z</time>
      </trkpt>
      <trkpt lat="46.77585" lon="-2.05402">
        <ele>4.1</ele>
        <time>2020-06-04T09:14:26Z</time>
      </trkpt>
      <trkpt lat="46.77587" lon="-2.05405">
        <ele>4.1</ele>
        <time>2020-06-04T09:14:27Z</time>
      </trkpt>
      <trkpt lat="46.77589" lon="-2.05407">
        <ele>4.1</ele>
        <time>2020-06-04T09:14:28Z</time>
      </trkpt>
      <trkpt lat="46.77592" lon="-2.0541">
        <ele>4.1</ele>
        <time>2020-06-04T09:14:29Z</time>
      </trkpt>
      <trkpt lat="46.77595" lon="-2.05413">
        <ele>4.1</ele>
        <time>2020-06-04T09:14:30Z</time>
      </trkpt>
      <trkpt lat="46.77596" lon="-2.05414">
        <ele>4.1</ele>
        <time>2020-06-04T09:14:31Z</time>
      </trkpt>
      <trkpt lat="46.77598" lon="-2.0542">
        <ele>4.1</ele>
        <time>2020-06-04T09:14:32Z</time>
      </trkpt>
      <trkpt lat="46.77599" lon="-2.05422">
        <ele>4.2</ele>
        <time>2020-06-04T09:14:33Z</time>
      </trkpt>
      <trkpt lat="46.77601" lon="-2.05426">
        <ele>4.2</ele>
        <time>2020-06-04T09:14:34Z</time>
      </trkpt>
      <trkpt lat="46.77603" lon="-2.05429">
        <ele>4.2</ele>
        <time>2020-06-04T09:14:35Z</time>
      </trkpt>
      <trkpt lat="46.77606" lon="-2.05433">
        <ele>4.2</ele>
        <time>2020-06-04T09:14:36Z</time>
      </trkpt>
      <trkpt lat="46.77608" lon="-2.05439">
        <ele>4.2</ele>
        <time>2020-06-04T09:14:37Z</time>
      </trkpt>
      <trkpt lat="46.77611" lon="-2.05444">
        <ele>4.2</ele>
        <time>2020-06-04T09:14:38Z</time>
      </trkpt>
      <trkpt lat="46.77612" lon="-2.05448">
        <ele>4.3</ele>
        <time>2020-06-04T09:14:39Z</time>
      </trkpt>
      <trkpt lat="46.77614" lon="-2.05452">
        <ele>4.3</ele>
        <time>2020-06-04T09:14:40Z</time>
      </trkpt>
      <trkpt lat="46.77617" lon="-2.05457">
        <ele>4.3</ele>
        <time>2020-06-04T09:14:41Z</time>
      </trkpt>
      <trkpt lat="46.7762" lon="-2.05461">
        <ele>4.4</ele>
        <time>2020-06-04T09:14:42Z</time>
      </trkpt>
      <trkpt lat="46.77622" lon="-2.05467">
        <ele>4.4</ele>
        <time>2020-06-04T09:14:43Z</time>
      </trkpt>
      <trkpt lat="46.77624" lon="-2.05471">
        <ele>4.5</ele>
        <time>2020-06-04T09:14:44Z</time>
      </trkpt>
      <trkpt lat="46.77627" lon="-2.05476">
        <ele>4.5</ele>
        <time>2020-06-04T09:14:45Z</time>
      </trkpt>
      <trkpt lat="46.7763" lon="-2.0548">
        <ele>4.6</ele>
        <time>2020-06-04T09:14:46Z</time>
      </trkpt>
      <trkpt lat="46.77632" lon="-2.05484">
        <ele>4.6</ele>
        <time>2020-06-04T09:14:47Z</time>
      </trkpt>
      <trkpt lat="46.77634" lon="-2.05488">
        <ele>4.7</ele>
        <time>2020-06-04T09:14:48Z</time>
      </trkpt>
      <trkpt lat="46.77637" lon="-2.05492">
        <ele>4.7</ele>
        <time>2020-06-04T09:14:49Z</time>
      </trkpt>
      <trkpt lat="46.77641" lon="-2.05497">
        <ele>4.8</ele>
        <time>2020-06-04T09:14:50Z</time>
      </trkpt>
      <trkpt lat="46.77643" lon="-2.05502">
        <ele>4.8</ele>
        <time>2020-06-04T09:14:51Z</time>
      </trkpt>
      <trkpt lat="46.77646" lon="-2.05507">
        <ele>4.8</ele>
        <time>2020-06-04T09:14:52Z</time>
      </trkpt>
      <trkpt lat="46.77649" lon="-2.0551">
        <ele>4.9</ele>
        <time>2020-06-04T09:14:53Z</time>
      </trkpt>
      <trkpt lat="46.77651" lon="-2.05515">
        <ele>4.9</ele>
        <time>2020-06-04T09:14:54Z</time>
      </trkpt>
      <trkpt lat="46.77655" lon="-2.05518">
        <ele>4.9</ele>
        <time>2020-06-04T09:14:55Z</time>
      </trkpt>
      <trkpt lat="46.77658" lon="-2.05521">
        <ele>4.9</ele>
        <time>2020-06-04T09:14:56Z</time>
      </trkpt>
      <trkpt lat="46.77661" lon="-2.05526">
        <ele>4.9</ele>
        <time>2020-06-04T09:14:57Z</time>
      </trkpt>
      <trkpt lat="46.77664" lon="-2.0553">
        <ele>4.9</ele>
        <time>2020-06-04T09:14:58Z</time>
      </trkpt>
      <trkpt lat="46.77668" lon="-2.05534">
        <ele>4.9</ele>
        <time>2020-06-04T09:14:59Z</time>
      </trkpt>
      <trkpt lat="46.77671" lon="-2.05539">
        <ele>4.9</ele>
        <time>2020-06-04T09:15:00Z</time>
      </trkpt>
      <trkpt lat="46.77675" lon="-2.05543">
        <ele>4.9</ele>
        <time>2020-06-04T09:15:01Z</time>
      </trkpt>
      <trkpt lat="46.77678" lon="-2.05546">
        <ele>4.9</ele>
        <time>2020-06-04T09:15:02Z</time>
      </trkpt>
      <trkpt lat="46.77682" lon="-2.05551">
        <ele>4.9</ele>
        <time>2020-06-04T09:15:03Z</time>
      </trkpt>
      <trkpt lat="46.77685" lon="-2.05554">
        <ele>4.9</ele>
        <time>2020-06-04T09:15:04Z</time>
      </trkpt>
      <trkpt lat="46.77687" lon="-2.05557">
        <ele>4.9</ele>
        <time>2020-06-04T09:15:05Z</time>
      </trkpt>
      <trkpt lat="46.7769" lon="-2.0556">
        <ele>4.9</ele>
        <time>2020-06-04T09:15:06Z</time>
      </trkpt>
      <trkpt lat="46.77694" lon="-2.05562">
        <ele>4.9</ele>
        <time>2020-06-04T09:15:07Z</time>
      </trkpt>
      <trkpt lat="46.77698" lon="-2.05564">
        <ele>4.9</ele>
        <time>2020-06-04T09:15:08Z</time>
      </trkpt>
      <trkpt lat="46.777" lon="-2.05564">
        <ele>4.9</ele>
        <time>2020-06-04T09:15:09Z</time>
      </trkpt>
      <trkpt lat="46.77703" lon="-2.05566">
        <ele>4.9</ele>
        <time>2020-06-04T09:15:10Z</time>
      </trkpt>
      <trkpt lat="46.77706" lon="-2.05569">
        <ele>4.9</ele>
        <time>2020-06-04T09:15:11Z</time>
      </trkpt>
      <trkpt lat="46.77707" lon="-2.05574">
        <ele>4.9</ele>
        <time>2020-06-04T09:15:12Z</time>
      </trkpt>
      <trkpt lat="46.77706" lon="-2.0558">
        <ele>4.8</ele>
        <time>2020-06-04T09:15:13Z</time>
      </trkpt>
      <trkpt lat="46.77704" lon="-2.05585">
        <ele>4.8</ele>
        <time>2020-06-04T09:15:14Z</time>
      </trkpt>
      <trkpt lat="46.77702" lon="-2.05589">
        <ele>4.8</ele>
        <time>2020-06-04T09:15:15Z</time>
      </trkpt>
      <trkpt lat="46.77699" lon="-2.05594">
        <ele>4.8</ele>
        <time>2020-06-04T09:15:16Z</time>
      </trkpt>
      <trkpt lat="46.77697" lon="-2.05597">
        <ele>4.7</ele>
        <time>2020-06-04T09:15:17Z</time>
      </trkpt>
      <trkpt lat="46.77693" lon="-2.05601">
        <ele>4.7</ele>
        <time>2020-06-04T09:15:18Z</time>
      </trkpt>
      <trkpt lat="46.77691" lon="-2.05605">
        <ele>4.7</ele>
        <time>2020-06-04T09:15:19Z</time>
      </trkpt>
      <trkpt lat="46.77689" lon="-2.05609">
        <ele>4.7</ele>
        <time>2020-06-04T09:15:20Z</time>
      </trkpt>
      <trkpt lat="46.77686" lon="-2.05611">
        <ele>4.7</ele>
        <time>2020-06-04T09:15:21Z</time>
      </trkpt>
      <trkpt lat="46.77684" lon="-2.05614">
        <ele>4.7</ele>
        <time>2020-06-04T09:15:22Z</time>
      </trkpt>
      <trkpt lat="46.77682" lon="-2.05617">
        <ele>4.7</ele>
        <time>2020-06-04T09:15:23Z</time>
      </trkpt>
      <trkpt lat="46.77681" lon="-2.05622">
        <ele>4.7</ele>
        <time>2020-06-04T09:15:24Z</time>
      </trkpt>
      <trkpt lat="46.77678" lon="-2.05628">
        <ele>4.7</ele>
        <time>2020-06-04T09:15:25Z</time>
      </trkpt>
      <trkpt lat="46.77677" lon="-2.05635">
        <ele>4.6</ele>
        <time>2020-06-04T09:15:26Z</time>
      </trkpt>
      <trkpt lat="46.77675" lon="-2.0564">
        <ele>4.6</ele>
        <time>2020-06-04T09:15:27Z</time>
      </trkpt>
      <trkpt lat="46.77673" lon="-2.05645">
        <ele>4.6</ele>
        <time>2020-06-04T09:15:28Z</time>
      </trkpt>
      <trkpt lat="46.77671" lon="-2.05651">
        <ele>4.6</ele>
        <time>2020-06-04T09:15:29Z</time>
      </trkpt>
      <trkpt lat="46.77669" lon="-2.05657">
        <ele>4.6</ele>
        <time>2020-06-04T09:15:30Z</time>
      </trkpt>
      <trkpt lat="46.77667" lon="-2.05663">
        <ele>4.6</ele>
        <time>2020-06-04T09:15:31Z</time>
      </trkpt>
      <trkpt lat="46.77665" lon="-2.05669">
        <ele>4.6</ele>
        <time>2020-06-04T09:15:32Z</time>
      </trkpt>
      <trkpt lat="46.77663" lon="-2.05675">
        <ele>4.6</ele>
        <time>2020-06-04T09:15:33Z</time>
      </trkpt>
      <trkpt lat="46.77661" lon="-2.0568">
        <ele>4.6</ele>
        <time>2020-06-04T09:15:34Z</time>
      </trkpt>
      <trkpt lat="46.77658" lon="-2.05685">
        <ele>4.6</ele>
        <time>2020-06-04T09:15:35Z</time>
      </trkpt>
      <trkpt lat="46.77657" lon="-2.0569">
        <ele>4.6</ele>
        <time>2020-06-04T09:15:36Z</time>
      </trkpt>
      <trkpt lat="46.77656" lon="-2.05696">
        <ele>4.6</ele>
        <time>2020-06-04T09:15:37Z</time>
      </trkpt>
      <trkpt lat="46.77655" lon="-2.05702">
        <ele>4.6</ele>
        <time>2020-06-04T09:15:38Z</time>
      </trkpt>
      <trkpt lat="46.77653" lon="-2.05708">
        <ele>4.6</ele>
        <time>2020-06-04T09:15:39Z</time>
      </trkpt>
      <trkpt lat="46.77652" lon="-2.05715">
        <ele>4.5</ele>
        <time>2020-06-04T09:15:40Z</time>
      </trkpt>
      <trkpt lat="46.77649" lon="-2.0572">
        <ele>4.5</ele>
        <time>2020-06-04T09:15:41Z</time>
      </trkpt>
      <trkpt lat="46.77648" lon="-2.05726">
        <ele>4.5</ele>
        <time>2020-06-04T09:15:42Z</time>
      </trkpt>
      <trkpt lat="46.77645" lon="-2.05733">
        <ele>4.6</ele>
        <time>2020-06-04T09:15:43Z</time>
      </trkpt>
      <trkpt lat="46.77642" lon="-2.05737">
        <ele>4.7</ele>
        <time>2020-06-04T09:15:44Z</time>
      </trkpt>
      <trkpt lat="46.77641" lon="-2.05744">
        <ele>4.8</ele>
        <time>2020-06-04T09:15:45Z</time>
      </trkpt>
      <trkpt lat="46.77638" lon="-2.0575">
        <ele>4.9</ele>
        <time>2020-06-04T09:15:46Z</time>
      </trkpt>
      <trkpt lat="46.77636" lon="-2.05756">
        <ele>5</ele>
        <time>2020-06-04T09:15:47Z</time>
      </trkpt>
      <trkpt lat="46.77633" lon="-2.05762">
        <ele>5.1</ele>
        <time>2020-06-04T09:15:48Z</time>
      </trkpt>
      <trkpt lat="46.7763" lon="-2.05768">
        <ele>5.3</ele>
        <time>2020-06-04T09:15:49Z</time>
      </trkpt>
      <trkpt lat="46.77627" lon="-2.05774">
        <ele>5.5</ele>
        <time>2020-06-04T09:15:50Z</time>
      </trkpt>
      <trkpt lat="46.77625" lon="-2.05781">
        <ele>5.7</ele>
        <time>2020-06-04T09:15:51Z</time>
      </trkpt>
      <trkpt lat="46.77621" lon="-2.05787">
        <ele>5.9</ele>
        <time>2020-06-04T09:15:52Z</time>
      </trkpt>
      <trkpt lat="46.77619" lon="-2.05792">
        <ele>6.1</ele>
        <time>2020-06-04T09:15:53Z</time>
      </trkpt>
      <trkpt lat="46.77617" lon="-2.05798">
        <ele>6.3</ele>
        <time>2020-06-04T09:15:54Z</time>
      </trkpt>
      <trkpt lat="46.77615" lon="-2.05806">
        <ele>6.6</ele>
        <time>2020-06-04T09:15:55Z</time>
      </trkpt>
      <trkpt lat="46.77613" lon="-2.05813">
        <ele>6.8</ele>
        <time>2020-06-04T09:15:56Z</time>
      </trkpt>
      <trkpt lat="46.77611" lon="-2.05818">
        <ele>7</ele>
        <time>2020-06-04T09:15:57Z</time>
      </trkpt>
      <trkpt lat="46.77609" lon="-2.05825">
        <ele>7.2</ele>
        <time>2020-06-04T09:15:58Z</time>
      </trkpt>
      <trkpt lat="46.77607" lon="-2.05831">
        <ele>7.3</ele>
        <time>2020-06-04T09:15:59Z</time>
      </trkpt>
      <trkpt lat="46.77606" lon="-2.05836">
        <ele>7.4</ele>
        <time>2020-06-04T09:16:00Z</time>
      </trkpt>
      <trkpt lat="46.77604" lon="-2.05842">
        <ele>7.5</ele>
        <time>2020-06-04T09:16:01Z</time>
      </trkpt>
      <trkpt lat="46.77601" lon="-2.05848">
        <ele>7.6</ele>
        <time>2020-06-04T09:16:02Z</time>
      </trkpt>
      <trkpt lat="46.776" lon="-2.05853">
        <ele>7.7</ele>
        <time>2020-06-04T09:16:03Z</time>
      </trkpt>
      <trkpt lat="46.77598" lon="-2.05858">
        <ele>7.8</ele>
        <time>2020-06-04T09:16:04Z</time>
      </trkpt>
      <trkpt lat="46.77597" lon="-2.05862">
        <ele>7.9</ele>
        <time>2020-06-04T09:16:05Z</time>
      </trkpt>
      <trkpt lat="46.77594" lon="-2.05866">
        <ele>7.9</ele>
        <time>2020-06-04T09:16:06Z</time>
      </trkpt>
      <trkpt lat="46.77593" lon="-2.05871">
        <ele>8</ele>
        <time>2020-06-04T09:16:07Z</time>
      </trkpt>
      <trkpt lat="46.77592" lon="-2.05875">
        <ele>8</ele>
        <time>2020-06-04T09:16:08Z</time>
      </trkpt>
      <trkpt lat="46.77593" lon="-2.0588">
        <ele>8</ele>
        <time>2020-06-04T09:16:09Z</time>
      </trkpt>
      <trkpt lat="46.77593" lon="-2.05882">
        <ele>8</ele>
        <time>2020-06-04T09:16:10Z</time>
      </trkpt>
      <trkpt lat="46.77594" lon="-2.05886">
        <ele>7.9</ele>
        <time>2020-06-04T09:16:11Z</time>
      </trkpt>
      <trkpt lat="46.77595" lon="-2.05891">
        <ele>7.9</ele>
        <time>2020-06-04T09:16:12Z</time>
      </trkpt>
      <trkpt lat="46.77598" lon="-2.05897">
        <ele>7.9</ele>
        <time>2020-06-04T09:16:13Z</time>
      </trkpt>
      <trkpt lat="46.77602" lon="-2.05902">
        <ele>7.9</ele>
        <time>2020-06-04T09:16:14Z</time>
      </trkpt>
      <trkpt lat="46.77606" lon="-2.05907">
        <ele>7.9</ele>
        <time>2020-06-04T09:16:15Z</time>
      </trkpt>
      <trkpt lat="46.77609" lon="-2.05912">
        <ele>7.9</ele>
        <time>2020-06-04T09:16:16Z</time>
      </trkpt>
      <trkpt lat="46.77613" lon="-2.05918">
        <ele>7.9</ele>
        <time>2020-06-04T09:16:17Z</time>
      </trkpt>
      <trkpt lat="46.77616" lon="-2.05923">
        <ele>7.9</ele>
        <time>2020-06-04T09:16:18Z</time>
      </trkpt>
      <trkpt lat="46.77619" lon="-2.05928">
        <ele>7.9</ele>
        <time>2020-06-04T09:16:19Z</time>
      </trkpt>
      <trkpt lat="46.77623" lon="-2.05933">
        <ele>7.9</ele>
        <time>2020-06-04T09:16:20Z</time>
      </trkpt>
      <trkpt lat="46.77627" lon="-2.05938">
        <ele>7.9</ele>
        <time>2020-06-04T09:16:21Z</time>
      </trkpt>
      <trkpt lat="46.7763" lon="-2.05942">
        <ele>7.9</ele>
        <time>2020-06-04T09:16:22Z</time>
      </trkpt>
      <trkpt lat="46.77634" lon="-2.05946">
        <ele>7.9</ele>
        <time>2020-06-04T09:16:23Z</time>
      </trkpt>
      <trkpt lat="46.77638" lon="-2.05951">
        <ele>7.9</ele>
        <time>2020-06-04T09:16:24Z</time>
      </trkpt>
      <trkpt lat="46.77642" lon="-2.05957">
        <ele>7.9</ele>
        <time>2020-06-04T09:16:25Z</time>
      </trkpt>
      <trkpt lat="46.77645" lon="-2.05961">
        <ele>7.9</ele>
        <time>2020-06-04T09:16:26Z</time>
      </trkpt>
      <trkpt lat="46.77647" lon="-2.05965">
        <ele>7.9</ele>
        <time>2020-06-04T09:16:27Z</time>
      </trkpt>
      <trkpt lat="46.77648" lon="-2.05969">
        <ele>7.9</ele>
        <time>2020-06-04T09:16:28Z</time>
      </trkpt>
      <trkpt lat="46.77647" lon="-2.05973">
        <ele>7.9</ele>
        <time>2020-06-04T09:16:29Z</time>
      </trkpt>
      <trkpt lat="46.77647" lon="-2.05976">
        <ele>7.9</ele>
        <time>2020-06-04T09:16:30Z</time>
      </trkpt>
      <trkpt lat="46.77645" lon="-2.0598">
        <ele>7.7</ele>
        <time>2020-06-04T09:16:31Z</time>
      </trkpt>
      <trkpt lat="46.77643" lon="-2.05984">
        <ele>7.7</ele>
        <time>2020-06-04T09:16:32Z</time>
      </trkpt>
      <trkpt lat="46.7764" lon="-2.05986">
        <ele>7.7</ele>
        <time>2020-06-04T09:16:33Z</time>
      </trkpt>
      <trkpt lat="46.77637" lon="-2.05988">
        <ele>7.6</ele>
        <time>2020-06-04T09:16:34Z</time>
      </trkpt>
      <trkpt lat="46.77634" lon="-2.0599">
        <ele>7.6</ele>
        <time>2020-06-04T09:16:35Z</time>
      </trkpt>
      <trkpt lat="46.77633" lon="-2.05991">
        <ele>7.6</ele>
        <time>2020-06-04T09:16:36Z</time>
      </trkpt>
      <trkpt lat="46.7763" lon="-2.05993">
        <ele>7.6</ele>
        <time>2020-06-04T09:16:37Z</time>
      </trkpt>
      <trkpt lat="46.77629" lon="-2.05995">
        <ele>7.6</ele>
        <time>2020-06-04T09:16:38Z</time>
      </trkpt>
      <trkpt lat="46.77628" lon="-2.05996">
        <ele>7.6</ele>
        <time>2020-06-04T09:16:39Z</time>
      </trkpt>
      <trkpt lat="46.77627" lon="-2.05996">
        <ele>7.6</ele>
        <time>2020-06-04T09:16:40Z</time>
      </trkpt>
      <trkpt lat="46.77628" lon="-2.05997">
        <ele>7.6</ele>
        <time>2020-06-04T09:16:41Z</time>
      </trkpt>
      <trkpt lat="46.77628" lon="-2.05997">
        <ele>7.6</ele>
        <time>2020-06-04T09:16:42Z</time>
      </trkpt>
      <trkpt lat="46.77628" lon="-2.05996">
        <ele>7.6</ele>
        <time>2020-06-04T09:16:43Z</time>
      </trkpt>
      <trkpt lat="46.77628" lon="-2.05997">
        <ele>7.6</ele>
        <time>2020-06-04T09:16:44Z</time>
      </trkpt>
      <trkpt lat="46.77627" lon="-2.05998">
        <ele>7.6</ele>
        <time>2020-06-04T09:16:45Z</time>
      </trkpt>
      <trkpt lat="46.77628" lon="-2.05998">
        <ele>7.6</ele>
        <time>2020-06-04T09:16:46Z</time>
      </trkpt>
      <trkpt lat="46.77629" lon="-2.05998">
        <ele>7.6</ele>
        <time>2020-06-04T09:16:47Z</time>
      </trkpt>
      <trkpt lat="46.7763" lon="-2.05999">
        <ele>7.6</ele>
        <time>2020-06-04T09:16:48Z</time>
      </trkpt>
      <trkpt lat="46.7763" lon="-2.06">
        <ele>7.6</ele>
        <time>2020-06-04T09:16:49Z</time>
      </trkpt>
      <trkpt lat="46.77631" lon="-2.06">
        <ele>7.6</ele>
        <time>2020-06-04T09:16:50Z</time>
      </trkpt>
      <trkpt lat="46.77632" lon="-2.06001">
        <ele>7.6</ele>
        <time>2020-06-04T09:16:51Z</time>
      </trkpt>
      <trkpt lat="46.77633" lon="-2.06001">
        <ele>7.6</ele>
        <time>2020-06-04T09:16:52Z</time>
      </trkpt>
      <trkpt lat="46.77633" lon="-2.06002">
        <ele>7.6</ele>
        <time>2020-06-04T09:21:27Z</time>
      </trkpt>
      <trkpt lat="46.77634" lon="-2.06002">
        <ele>7.6</ele>
        <time>2020-06-04T09:21:28Z</time>
      </trkpt>
      <trkpt lat="46.77636" lon="-2.06005">
        <ele>7.6</ele>
        <time>2020-06-04T09:21:29Z</time>
      </trkpt>
      <trkpt lat="46.77636" lon="-2.06006">
        <ele>7.6</ele>
        <time>2020-06-04T09:21:30Z</time>
      </trkpt>
      <trkpt lat="46.77637" lon="-2.06007">
        <ele>7.6</ele>
        <time>2020-06-04T09:21:31Z</time>
      </trkpt>
      <trkpt lat="46.77639" lon="-2.06011">
        <ele>7.6</ele>
        <time>2020-06-04T09:21:32Z</time>
      </trkpt>
      <trkpt lat="46.7764" lon="-2.06012">
        <ele>7.6</ele>
        <time>2020-06-04T09:21:33Z</time>
      </trkpt>
      <trkpt lat="46.77643" lon="-2.06017">
        <ele>7.6</ele>
        <time>2020-06-04T09:21:34Z</time>
      </trkpt>
      <trkpt lat="46.77644" lon="-2.06018">
        <ele>7.6</ele>
        <time>2020-06-04T09:21:35Z</time>
      </trkpt>
      <trkpt lat="46.77646" lon="-2.06022">
        <ele>7.6</ele>
        <time>2020-06-04T09:21:36Z</time>
      </trkpt>
      <trkpt lat="46.77646" lon="-2.06023">
        <ele>7.6</ele>
        <time>2020-06-04T09:21:37Z</time>
      </trkpt>
      <trkpt lat="46.7765" lon="-2.06026">
        <ele>7.6</ele>
        <time>2020-06-04T09:21:38Z</time>
      </trkpt>
      <trkpt lat="46.77651" lon="-2.06027">
        <ele>7.6</ele>
        <time>2020-06-04T09:21:39Z</time>
      </trkpt>
      <trkpt lat="46.77653" lon="-2.0603">
        <ele>7.6</ele>
        <time>2020-06-04T09:21:40Z</time>
      </trkpt>
      <trkpt lat="46.77656" lon="-2.06033">
        <ele>7.6</ele>
        <time>2020-06-04T09:21:41Z</time>
      </trkpt>
      <trkpt lat="46.77658" lon="-2.06036">
        <ele>7.5</ele>
        <time>2020-06-04T09:21:42Z</time>
      </trkpt>
      <trkpt lat="46.7766" lon="-2.0604">
        <ele>7.5</ele>
        <time>2020-06-04T09:21:43Z</time>
      </trkpt>
      <trkpt lat="46.77661" lon="-2.06044">
        <ele>7.5</ele>
        <time>2020-06-04T09:21:44Z</time>
      </trkpt>
      <trkpt lat="46.77663" lon="-2.06048">
        <ele>7.5</ele>
        <time>2020-06-04T09:21:45Z</time>
      </trkpt>
      <trkpt lat="46.77665" lon="-2.06052">
        <ele>7.5</ele>
        <time>2020-06-04T09:21:46Z</time>
      </trkpt>
      <trkpt lat="46.77667" lon="-2.06055">
        <ele>7.5</ele>
        <time>2020-06-04T09:21:47Z</time>
      </trkpt>
      <trkpt lat="46.77669" lon="-2.06058">
        <ele>7.5</ele>
        <time>2020-06-04T09:21:48Z</time>
      </trkpt>
      <trkpt lat="46.77672" lon="-2.06062">
        <ele>7.5</ele>
        <time>2020-06-04T09:21:49Z</time>
      </trkpt>
      <trkpt lat="46.77674" lon="-2.06065">
        <ele>7.5</ele>
        <time>2020-06-04T09:21:50Z</time>
      </trkpt>
      <trkpt lat="46.77675" lon="-2.06065">
        <ele>7.5</ele>
        <time>2020-06-04T09:21:51Z</time>
      </trkpt>
      <trkpt lat="46.77678" lon="-2.06067">
        <ele>7.5</ele>
        <time>2020-06-04T09:21:52Z</time>
      </trkpt>
      <trkpt lat="46.77678" lon="-2.06069">
        <ele>7.5</ele>
        <time>2020-06-04T09:21:53Z</time>
      </trkpt>
      <trkpt lat="46.77681" lon="-2.06071">
        <ele>7.5</ele>
        <time>2020-06-04T09:21:54Z</time>
      </trkpt>
      <trkpt lat="46.77684" lon="-2.06075">
        <ele>7.5</ele>
        <time>2020-06-04T09:21:55Z</time>
      </trkpt>
      <trkpt lat="46.77687" lon="-2.06079">
        <ele>7.5</ele>
        <time>2020-06-04T09:21:56Z</time>
      </trkpt>
      <trkpt lat="46.77691" lon="-2.06082">
        <ele>7.5</ele>
        <time>2020-06-04T09:21:57Z</time>
      </trkpt>
      <trkpt lat="46.77694" lon="-2.06086">
        <ele>7.5</ele>
        <time>2020-06-04T09:21:58Z</time>
      </trkpt>
      <trkpt lat="46.77698" lon="-2.06092">
        <ele>7.5</ele>
        <time>2020-06-04T09:21:59Z</time>
      </trkpt>
      <trkpt lat="46.77702" lon="-2.06098">
        <ele>7.5</ele>
        <time>2020-06-04T09:22:00Z</time>
      </trkpt>
      <trkpt lat="46.77705" lon="-2.06103">
        <ele>7.5</ele>
        <time>2020-06-04T09:22:01Z</time>
      </trkpt>
      <trkpt lat="46.77708" lon="-2.06108">
        <ele>7.4</ele>
        <time>2020-06-04T09:22:02Z</time>
      </trkpt>
      <trkpt lat="46.77711" lon="-2.06112">
        <ele>7.4</ele>
        <time>2020-06-04T09:22:03Z</time>
      </trkpt>
      <trkpt lat="46.77715" lon="-2.06117">
        <ele>7.4</ele>
        <time>2020-06-04T09:22:04Z</time>
      </trkpt>
      <trkpt lat="46.77718" lon="-2.06122">
        <ele>7.4</ele>
        <time>2020-06-04T09:22:05Z</time>
      </trkpt>
      <trkpt lat="46.77721" lon="-2.06127">
        <ele>7.4</ele>
        <time>2020-06-04T09:22:06Z</time>
      </trkpt>
      <trkpt lat="46.77725" lon="-2.06132">
        <ele>7.4</ele>
        <time>2020-06-04T09:22:07Z</time>
      </trkpt>
      <trkpt lat="46.77728" lon="-2.06136">
        <ele>7.4</ele>
        <time>2020-06-04T09:22:08Z</time>
      </trkpt>
      <trkpt lat="46.77731" lon="-2.06141">
        <ele>7.4</ele>
        <time>2020-06-04T09:22:09Z</time>
      </trkpt>
      <trkpt lat="46.77735" lon="-2.06146">
        <ele>7.4</ele>
        <time>2020-06-04T09:22:10Z</time>
      </trkpt>
      <trkpt lat="46.77739" lon="-2.06151">
        <ele>7.3</ele>
        <time>2020-06-04T09:22:11Z</time>
      </trkpt>
      <trkpt lat="46.77742" lon="-2.06156">
        <ele>7.3</ele>
        <time>2020-06-04T09:22:12Z</time>
      </trkpt>
      <trkpt lat="46.77745" lon="-2.0616">
        <ele>7.3</ele>
        <time>2020-06-04T09:22:13Z</time>
      </trkpt>
      <trkpt lat="46.77748" lon="-2.06165">
        <ele>7.3</ele>
        <time>2020-06-04T09:22:14Z</time>
      </trkpt>
      <trkpt lat="46.77751" lon="-2.0617">
        <ele>7.3</ele>
        <time>2020-06-04T09:22:15Z</time>
      </trkpt>
      <trkpt lat="46.77754" lon="-2.06175">
        <ele>7.3</ele>
        <time>2020-06-04T09:22:16Z</time>
      </trkpt>
      <trkpt lat="46.77757" lon="-2.0618">
        <ele>7.3</ele>
        <time>2020-06-04T09:22:17Z</time>
      </trkpt>
      <trkpt lat="46.77759" lon="-2.06184">
        <ele>7.3</ele>
        <time>2020-06-04T09:22:18Z</time>
      </trkpt>
      <trkpt lat="46.77762" lon="-2.06189">
        <ele>7.3</ele>
        <time>2020-06-04T09:22:19Z</time>
      </trkpt>
      <trkpt lat="46.77764" lon="-2.06194">
        <ele>7.3</ele>
        <time>2020-06-04T09:22:20Z</time>
      </trkpt>
      <trkpt lat="46.77767" lon="-2.06198">
        <ele>7.3</ele>
        <time>2020-06-04T09:22:21Z</time>
      </trkpt>
      <trkpt lat="46.7777" lon="-2.06203">
        <ele>7.3</ele>
        <time>2020-06-04T09:22:22Z</time>
      </trkpt>
      <trkpt lat="46.77772" lon="-2.06208">
        <ele>7.3</ele>
        <time>2020-06-04T09:22:23Z</time>
      </trkpt>
      <trkpt lat="46.77775" lon="-2.06213">
        <ele>7.3</ele>
        <time>2020-06-04T09:22:24Z</time>
      </trkpt>
      <trkpt lat="46.77778" lon="-2.06219">
        <ele>7.3</ele>
        <time>2020-06-04T09:22:25Z</time>
      </trkpt>
      <trkpt lat="46.77781" lon="-2.06225">
        <ele>7.3</ele>
        <time>2020-06-04T09:22:26Z</time>
      </trkpt>
      <trkpt lat="46.77783" lon="-2.06231">
        <ele>7.3</ele>
        <time>2020-06-04T09:22:27Z</time>
      </trkpt>
      <trkpt lat="46.77785" lon="-2.06236">
        <ele>7.3</ele>
        <time>2020-06-04T09:22:28Z</time>
      </trkpt>
      <trkpt lat="46.77788" lon="-2.06241">
        <ele>7.3</ele>
        <time>2020-06-04T09:22:29Z</time>
      </trkpt>
      <trkpt lat="46.77791" lon="-2.06246">
        <ele>7.3</ele>
        <time>2020-06-04T09:22:30Z</time>
      </trkpt>
      <trkpt lat="46.77794" lon="-2.06251">
        <ele>7.3</ele>
        <time>2020-06-04T09:22:31Z</time>
      </trkpt>
      <trkpt lat="46.77798" lon="-2.06255">
        <ele>7.2</ele>
        <time>2020-06-04T09:22:32Z</time>
      </trkpt>
      <trkpt lat="46.77801" lon="-2.0626">
        <ele>7.2</ele>
        <time>2020-06-04T09:22:33Z</time>
      </trkpt>
      <trkpt lat="46.77804" lon="-2.06264">
        <ele>7.2</ele>
        <time>2020-06-04T09:22:34Z</time>
      </trkpt>
      <trkpt lat="46.77807" lon="-2.06269">
        <ele>7.2</ele>
        <time>2020-06-04T09:22:35Z</time>
      </trkpt>
      <trkpt lat="46.7781" lon="-2.06274">
        <ele>7.2</ele>
        <time>2020-06-04T09:22:36Z</time>
      </trkpt>
      <trkpt lat="46.77813" lon="-2.06279">
        <ele>7.1</ele>
        <time>2020-06-04T09:22:37Z</time>
      </trkpt>
      <trkpt lat="46.77815" lon="-2.06284">
        <ele>7.1</ele>
        <time>2020-06-04T09:22:38Z</time>
      </trkpt>
      <trkpt lat="46.77817" lon="-2.06288">
        <ele>7.1</ele>
        <time>2020-06-04T09:22:39Z</time>
      </trkpt>
      <trkpt lat="46.7782" lon="-2.06294">
        <ele>7.1</ele>
        <time>2020-06-04T09:22:40Z</time>
      </trkpt>
      <trkpt lat="46.77822" lon="-2.063">
        <ele>7</ele>
        <time>2020-06-04T09:22:41Z</time>
      </trkpt>
      <trkpt lat="46.77824" lon="-2.06305">
        <ele>7</ele>
        <time>2020-06-04T09:22:42Z</time>
      </trkpt>
      <trkpt lat="46.77826" lon="-2.0631">
        <ele>6.9</ele>
        <time>2020-06-04T09:22:43Z</time>
      </trkpt>
      <trkpt lat="46.77829" lon="-2.06315">
        <ele>6.9</ele>
        <time>2020-06-04T09:22:44Z</time>
      </trkpt>
      <trkpt lat="46.77832" lon="-2.0632">
        <ele>6.9</ele>
        <time>2020-06-04T09:22:45Z</time>
      </trkpt>
      <trkpt lat="46.77834" lon="-2.06324">
        <ele>6.8</ele>
        <time>2020-06-04T09:22:46Z</time>
      </trkpt>
      <trkpt lat="46.77837" lon="-2.06328">
        <ele>6.8</ele>
        <time>2020-06-04T09:22:47Z</time>
      </trkpt>
      <trkpt lat="46.77839" lon="-2.06334">
        <ele>6.7</ele>
        <time>2020-06-04T09:22:48Z</time>
      </trkpt>
      <trkpt lat="46.77843" lon="-2.06338">
        <ele>6.7</ele>
        <time>2020-06-04T09:22:49Z</time>
      </trkpt>
      <trkpt lat="46.77846" lon="-2.06343">
        <ele>6.6</ele>
        <time>2020-06-04T09:22:50Z</time>
      </trkpt>
      <trkpt lat="46.77849" lon="-2.06348">
        <ele>6.6</ele>
        <time>2020-06-04T09:22:51Z</time>
      </trkpt>
      <trkpt lat="46.77852" lon="-2.06355">
        <ele>6.3</ele>
        <time>2020-06-04T09:22:52Z</time>
      </trkpt>
      <trkpt lat="46.77855" lon="-2.0636">
        <ele>6.3</ele>
        <time>2020-06-04T09:22:53Z</time>
      </trkpt>
      <trkpt lat="46.77857" lon="-2.06366">
        <ele>6.3</ele>
        <time>2020-06-04T09:22:54Z</time>
      </trkpt>
      <trkpt lat="46.77859" lon="-2.06372">
        <ele>6.3</ele>
        <time>2020-06-04T09:22:55Z</time>
      </trkpt>
      <trkpt lat="46.77861" lon="-2.06377">
        <ele>6.3</ele>
        <time>2020-06-04T09:22:56Z</time>
      </trkpt>
      <trkpt lat="46.77863" lon="-2.06383">
        <ele>6.3</ele>
        <time>2020-06-04T09:22:57Z</time>
      </trkpt>
      <trkpt lat="46.77865" lon="-2.06388">
        <ele>6.3</ele>
        <time>2020-06-04T09:22:58Z</time>
      </trkpt>
      <trkpt lat="46.77868" lon="-2.06393">
        <ele>6.3</ele>
        <time>2020-06-04T09:22:59Z</time>
      </trkpt>
      <trkpt lat="46.77871" lon="-2.06398">
        <ele>6.3</ele>
        <time>2020-06-04T09:23:00Z</time>
      </trkpt>
      <trkpt lat="46.77873" lon="-2.06403">
        <ele>6.4</ele>
        <time>2020-06-04T09:23:01Z</time>
      </trkpt>
      <trkpt lat="46.77876" lon="-2.06408">
        <ele>6.4</ele>
        <time>2020-06-04T09:23:02Z</time>
      </trkpt>
      <trkpt lat="46.77878" lon="-2.06412">
        <ele>6.4</ele>
        <time>2020-06-04T09:23:03Z</time>
      </trkpt>
      <trkpt lat="46.7788" lon="-2.06415">
        <ele>6.4</ele>
        <time>2020-06-04T09:23:04Z</time>
      </trkpt>
      <trkpt lat="46.77882" lon="-2.0642">
        <ele>6.4</ele>
        <time>2020-06-04T09:23:05Z</time>
      </trkpt>
      <trkpt lat="46.77882" lon="-2.06421">
        <ele>6.4</ele>
        <time>2020-06-04T09:23:06Z</time>
      </trkpt>
      <trkpt lat="46.77884" lon="-2.06425">
        <ele>6.4</ele>
        <time>2020-06-04T09:23:07Z</time>
      </trkpt>
      <trkpt lat="46.77886" lon="-2.0643">
        <ele>6.4</ele>
        <time>2020-06-04T09:23:08Z</time>
      </trkpt>
      <trkpt lat="46.77888" lon="-2.06434">
        <ele>6.4</ele>
        <time>2020-06-04T09:23:09Z</time>
      </trkpt>
      <trkpt lat="46.7789" lon="-2.06438">
        <ele>6.4</ele>
        <time>2020-06-04T09:23:10Z</time>
      </trkpt>
      <trkpt lat="46.77893" lon="-2.06443">
        <ele>6.4</ele>
        <time>2020-06-04T09:23:11Z</time>
      </trkpt>
      <trkpt lat="46.77895" lon="-2.06446">
        <ele>6.4</ele>
        <time>2020-06-04T09:23:12Z</time>
      </trkpt>
      <trkpt lat="46.77898" lon="-2.0645">
        <ele>6.4</ele>
        <time>2020-06-04T09:23:13Z</time>
      </trkpt>
      <trkpt lat="46.779" lon="-2.06454">
        <ele>6.4</ele>
        <time>2020-06-04T09:23:14Z</time>
      </trkpt>
      <trkpt lat="46.77903" lon="-2.06458">
        <ele>6.4</ele>
        <time>2020-06-04T09:23:15Z</time>
      </trkpt>
      <trkpt lat="46.77906" lon="-2.06462">
        <ele>6.4</ele>
        <time>2020-06-04T09:23:16Z</time>
      </trkpt>
      <trkpt lat="46.77911" lon="-2.06466">
        <ele>6.4</ele>
        <time>2020-06-04T09:23:17Z</time>
      </trkpt>
      <trkpt lat="46.77916" lon="-2.06468">
        <ele>6.4</ele>
        <time>2020-06-04T09:23:18Z</time>
      </trkpt>
      <trkpt lat="46.77921" lon="-2.06471">
        <ele>6.5</ele>
        <time>2020-06-04T09:23:19Z</time>
      </trkpt>
      <trkpt lat="46.77924" lon="-2.06475">
        <ele>6.5</ele>
        <time>2020-06-04T09:23:20Z</time>
      </trkpt>
      <trkpt lat="46.77926" lon="-2.0648">
        <ele>6.5</ele>
        <time>2020-06-04T09:23:21Z</time>
      </trkpt>
      <trkpt lat="46.7793" lon="-2.06483">
        <ele>6.5</ele>
        <time>2020-06-04T09:23:22Z</time>
      </trkpt>
      <trkpt lat="46.77932" lon="-2.06486">
        <ele>6.5</ele>
        <time>2020-06-04T09:23:23Z</time>
      </trkpt>
      <trkpt lat="46.77935" lon="-2.0649">
        <ele>6.5</ele>
        <time>2020-06-04T09:23:24Z</time>
      </trkpt>
      <trkpt lat="46.77938" lon="-2.06494">
        <ele>6.5</ele>
        <time>2020-06-04T09:23:25Z</time>
      </trkpt>
      <trkpt lat="46.77941" lon="-2.06499">
        <ele>6.5</ele>
        <time>2020-06-04T09:23:26Z</time>
      </trkpt>
      <trkpt lat="46.77944" lon="-2.06503">
        <ele>6.5</ele>
        <time>2020-06-04T09:23:27Z</time>
      </trkpt>
      <trkpt lat="46.77945" lon="-2.06508">
        <ele>6.5</ele>
        <time>2020-06-04T09:23:28Z</time>
      </trkpt>
      <trkpt lat="46.77947" lon="-2.06513">
        <ele>6.5</ele>
        <time>2020-06-04T09:23:29Z</time>
      </trkpt>
      <trkpt lat="46.7795" lon="-2.06517">
        <ele>6.6</ele>
        <time>2020-06-04T09:23:30Z</time>
      </trkpt>
      <trkpt lat="46.77953" lon="-2.06522">
        <ele>6.6</ele>
        <time>2020-06-04T09:23:31Z</time>
      </trkpt>
      <trkpt lat="46.77955" lon="-2.06526">
        <ele>6.6</ele>
        <time>2020-06-04T09:23:32Z</time>
      </trkpt>
      <trkpt lat="46.77958" lon="-2.06531">
        <ele>6.6</ele>
        <time>2020-06-04T09:23:33Z</time>
      </trkpt>
      <trkpt lat="46.77961" lon="-2.06534">
        <ele>6.6</ele>
        <time>2020-06-04T09:23:34Z</time>
      </trkpt>
      <trkpt lat="46.77964" lon="-2.06539">
        <ele>7</ele>
        <time>2020-06-04T09:23:35Z</time>
      </trkpt>
      <trkpt lat="46.77968" lon="-2.06543">
        <ele>7</ele>
        <time>2020-06-04T09:23:36Z</time>
      </trkpt>
      <trkpt lat="46.7797" lon="-2.06548">
        <ele>7</ele>
        <time>2020-06-04T09:23:37Z</time>
      </trkpt>
      <trkpt lat="46.77972" lon="-2.06552">
        <ele>7</ele>
        <time>2020-06-04T09:23:38Z</time>
      </trkpt>
      <trkpt lat="46.77974" lon="-2.06557">
        <ele>7</ele>
        <time>2020-06-04T09:23:39Z</time>
      </trkpt>
      <trkpt lat="46.77977" lon="-2.06563">
        <ele>7</ele>
        <time>2020-06-04T09:23:40Z</time>
      </trkpt>
      <trkpt lat="46.77981" lon="-2.06569">
        <ele>7</ele>
        <time>2020-06-04T09:23:41Z</time>
      </trkpt>
      <trkpt lat="46.77984" lon="-2.06574">
        <ele>7</ele>
        <time>2020-06-04T09:23:42Z</time>
      </trkpt>
      <trkpt lat="46.77987" lon="-2.06579">
        <ele>7.1</ele>
        <time>2020-06-04T09:23:43Z</time>
      </trkpt>
      <trkpt lat="46.77989" lon="-2.06584">
        <ele>7.1</ele>
        <time>2020-06-04T09:23:44Z</time>
      </trkpt>
      <trkpt lat="46.77993" lon="-2.06588">
        <ele>7.1</ele>
        <time>2020-06-04T09:23:45Z</time>
      </trkpt>
      <trkpt lat="46.77997" lon="-2.06592">
        <ele>7.1</ele>
        <time>2020-06-04T09:23:46Z</time>
      </trkpt>
      <trkpt lat="46.78002" lon="-2.06594">
        <ele>7.2</ele>
        <time>2020-06-04T09:23:47Z</time>
      </trkpt>
      <trkpt lat="46.78007" lon="-2.06596">
        <ele>7.2</ele>
        <time>2020-06-04T09:23:48Z</time>
      </trkpt>
      <trkpt lat="46.78011" lon="-2.06597">
        <ele>7.2</ele>
        <time>2020-06-04T09:23:49Z</time>
      </trkpt>
      <trkpt lat="46.78015" lon="-2.06599">
        <ele>7.2</ele>
        <time>2020-06-04T09:23:50Z</time>
      </trkpt>
      <trkpt lat="46.78019" lon="-2.06603">
        <ele>7.2</ele>
        <time>2020-06-04T09:23:51Z</time>
      </trkpt>
      <trkpt lat="46.78022" lon="-2.06608">
        <ele>7.2</ele>
        <time>2020-06-04T09:23:52Z</time>
      </trkpt>
      <trkpt lat="46.78025" lon="-2.06614">
        <ele>7.2</ele>
        <time>2020-06-04T09:23:53Z</time>
      </trkpt>
      <trkpt lat="46.78028" lon="-2.06619">
        <ele>7.2</ele>
        <time>2020-06-04T09:23:54Z</time>
      </trkpt>
      <trkpt lat="46.78031" lon="-2.06625">
        <ele>7.1</ele>
        <time>2020-06-04T09:23:55Z</time>
      </trkpt>
      <trkpt lat="46.78033" lon="-2.06631">
        <ele>7.1</ele>
        <time>2020-06-04T09:23:56Z</time>
      </trkpt>
      <trkpt lat="46.78034" lon="-2.06637">
        <ele>7.1</ele>
        <time>2020-06-04T09:23:57Z</time>
      </trkpt>
      <trkpt lat="46.78036" lon="-2.06642">
        <ele>7.1</ele>
        <time>2020-06-04T09:23:58Z</time>
      </trkpt>
      <trkpt lat="46.78038" lon="-2.06649">
        <ele>7</ele>
        <time>2020-06-04T09:23:59Z</time>
      </trkpt>
      <trkpt lat="46.78038" lon="-2.06655">
        <ele>7</ele>
        <time>2020-06-04T09:24:00Z</time>
      </trkpt>
      <trkpt lat="46.7804" lon="-2.06661">
        <ele>7</ele>
        <time>2020-06-04T09:24:01Z</time>
      </trkpt>
      <trkpt lat="46.78041" lon="-2.06666">
        <ele>7</ele>
        <time>2020-06-04T09:24:02Z</time>
      </trkpt>
      <trkpt lat="46.78043" lon="-2.06671">
        <ele>6.9</ele>
        <time>2020-06-04T09:24:03Z</time>
      </trkpt>
      <trkpt lat="46.78045" lon="-2.06676">
        <ele>6.9</ele>
        <time>2020-06-04T09:24:04Z</time>
      </trkpt>
      <trkpt lat="46.78048" lon="-2.06681">
        <ele>6.9</ele>
        <time>2020-06-04T09:24:05Z</time>
      </trkpt>
      <trkpt lat="46.78051" lon="-2.06685">
        <ele>6.9</ele>
        <time>2020-06-04T09:24:06Z</time>
      </trkpt>
      <trkpt lat="46.78053" lon="-2.06688">
        <ele>6.9</ele>
        <time>2020-06-04T09:24:07Z</time>
      </trkpt>
      <trkpt lat="46.78055" lon="-2.06693">
        <ele>6.8</ele>
        <time>2020-06-04T09:24:08Z</time>
      </trkpt>
      <trkpt lat="46.78058" lon="-2.06697">
        <ele>6.8</ele>
        <time>2020-06-04T09:24:09Z</time>
      </trkpt>
      <trkpt lat="46.78059" lon="-2.06702">
        <ele>6.8</ele>
        <time>2020-06-04T09:24:10Z</time>
      </trkpt>
      <trkpt lat="46.78061" lon="-2.06706">
        <ele>6.8</ele>
        <time>2020-06-04T09:24:11Z</time>
      </trkpt>
      <trkpt lat="46.78064" lon="-2.0671">
        <ele>6.8</ele>
        <time>2020-06-04T09:24:12Z</time>
      </trkpt>
      <trkpt lat="46.78067" lon="-2.06713">
        <ele>6.8</ele>
        <time>2020-06-04T09:24:13Z</time>
      </trkpt>
      <trkpt lat="46.7807" lon="-2.06714">
        <ele>6.8</ele>
        <time>2020-06-04T09:24:14Z</time>
      </trkpt>
      <trkpt lat="46.78075" lon="-2.06714">
        <ele>6.8</ele>
        <time>2020-06-04T09:24:15Z</time>
      </trkpt>
      <trkpt lat="46.78079" lon="-2.06715">
        <ele>6.8</ele>
        <time>2020-06-04T09:24:16Z</time>
      </trkpt>
      <trkpt lat="46.78084" lon="-2.06718">
        <ele>6.8</ele>
        <time>2020-06-04T09:24:17Z</time>
      </trkpt>
      <trkpt lat="46.78089" lon="-2.0672">
        <ele>6.8</ele>
        <time>2020-06-04T09:24:18Z</time>
      </trkpt>
      <trkpt lat="46.78093" lon="-2.06723">
        <ele>6.8</ele>
        <time>2020-06-04T09:24:19Z</time>
      </trkpt>
      <trkpt lat="46.78096" lon="-2.06727">
        <ele>6.8</ele>
        <time>2020-06-04T09:24:20Z</time>
      </trkpt>
      <trkpt lat="46.781" lon="-2.06732">
        <ele>6.8</ele>
        <time>2020-06-04T09:24:21Z</time>
      </trkpt>
      <trkpt lat="46.78103" lon="-2.06737">
        <ele>6.8</ele>
        <time>2020-06-04T09:24:22Z</time>
      </trkpt>
      <trkpt lat="46.78105" lon="-2.06742">
        <ele>6.8</ele>
        <time>2020-06-04T09:24:23Z</time>
      </trkpt>
      <trkpt lat="46.78108" lon="-2.06747">
        <ele>6.8</ele>
        <time>2020-06-04T09:24:24Z</time>
      </trkpt>
      <trkpt lat="46.78111" lon="-2.06752">
        <ele>6.8</ele>
        <time>2020-06-04T09:24:25Z</time>
      </trkpt>
      <trkpt lat="46.78113" lon="-2.06757">
        <ele>6.8</ele>
        <time>2020-06-04T09:24:26Z</time>
      </trkpt>
      <trkpt lat="46.78117" lon="-2.06762">
        <ele>6.8</ele>
        <time>2020-06-04T09:24:27Z</time>
      </trkpt>
      <trkpt lat="46.78119" lon="-2.06766">
        <ele>6.8</ele>
        <time>2020-06-04T09:24:28Z</time>
      </trkpt>
      <trkpt lat="46.78122" lon="-2.0677">
        <ele>6.8</ele>
        <time>2020-06-04T09:24:29Z</time>
      </trkpt>
      <trkpt lat="46.78124" lon="-2.06774">
        <ele>6.8</ele>
        <time>2020-06-04T09:24:30Z</time>
      </trkpt>
      <trkpt lat="46.78126" lon="-2.06777">
        <ele>6.8</ele>
        <time>2020-06-04T09:24:31Z</time>
      </trkpt>
      <trkpt lat="46.78127" lon="-2.06779">
        <ele>6.8</ele>
        <time>2020-06-04T09:24:32Z</time>
      </trkpt>
      <trkpt lat="46.78129" lon="-2.06781">
        <ele>6.8</ele>
        <time>2020-06-04T09:24:33Z</time>
      </trkpt>
      <trkpt lat="46.78132" lon="-2.06783">
        <ele>6.8</ele>
        <time>2020-06-04T09:24:34Z</time>
      </trkpt>
      <trkpt lat="46.78134" lon="-2.06786">
        <ele>6.8</ele>
        <time>2020-06-04T09:24:35Z</time>
      </trkpt>
      <trkpt lat="46.78136" lon="-2.0679">
        <ele>6.8</ele>
        <time>2020-06-04T09:24:36Z</time>
      </trkpt>
      <trkpt lat="46.78138" lon="-2.06794">
        <ele>6.8</ele>
        <time>2020-06-04T09:24:37Z</time>
      </trkpt>
      <trkpt lat="46.78139" lon="-2.06799">
        <ele>6.8</ele>
        <time>2020-06-04T09:24:38Z</time>
      </trkpt>
      <trkpt lat="46.78141" lon="-2.06805">
        <ele>6.8</ele>
        <time>2020-06-04T09:24:39Z</time>
      </trkpt>
      <trkpt lat="46.78142" lon="-2.0681">
        <ele>6.8</ele>
        <time>2020-06-04T09:24:40Z</time>
      </trkpt>
      <trkpt lat="46.78144" lon="-2.06815">
        <ele>6.8</ele>
        <time>2020-06-04T09:24:41Z</time>
      </trkpt>
      <trkpt lat="46.78146" lon="-2.0682">
        <ele>6.8</ele>
        <time>2020-06-04T09:24:42Z</time>
      </trkpt>
      <trkpt lat="46.78148" lon="-2.06825">
        <ele>6.8</ele>
        <time>2020-06-04T09:24:43Z</time>
      </trkpt>
      <trkpt lat="46.78149" lon="-2.0683">
        <ele>6.8</ele>
        <time>2020-06-04T09:24:44Z</time>
      </trkpt>
      <trkpt lat="46.78151" lon="-2.06836">
        <ele>6.8</ele>
        <time>2020-06-04T09:24:45Z</time>
      </trkpt>
      <trkpt lat="46.78151" lon="-2.06841">
        <ele>6.8</ele>
        <time>2020-06-04T09:24:46Z</time>
      </trkpt>
      <trkpt lat="46.78152" lon="-2.06847">
        <ele>6.8</ele>
        <time>2020-06-04T09:24:47Z</time>
      </trkpt>
      <trkpt lat="46.78153" lon="-2.06854">
        <ele>6.8</ele>
        <time>2020-06-04T09:24:48Z</time>
      </trkpt>
      <trkpt lat="46.78154" lon="-2.06861">
        <ele>6.8</ele>
        <time>2020-06-04T09:24:49Z</time>
      </trkpt>
      <trkpt lat="46.78155" lon="-2.06866">
        <ele>6.8</ele>
        <time>2020-06-04T09:24:50Z</time>
      </trkpt>
      <trkpt lat="46.78156" lon="-2.06872">
        <ele>6.8</ele>
        <time>2020-06-04T09:24:51Z</time>
      </trkpt>
      <trkpt lat="46.78158" lon="-2.06877">
        <ele>6.8</ele>
        <time>2020-06-04T09:24:52Z</time>
      </trkpt>
      <trkpt lat="46.78161" lon="-2.06882">
        <ele>6.8</ele>
        <time>2020-06-04T09:24:53Z</time>
      </trkpt>
      <trkpt lat="46.78164" lon="-2.06887">
        <ele>6.8</ele>
        <time>2020-06-04T09:24:54Z</time>
      </trkpt>
      <trkpt lat="46.78167" lon="-2.06892">
        <ele>6.8</ele>
        <time>2020-06-04T09:24:55Z</time>
      </trkpt>
      <trkpt lat="46.78169" lon="-2.06896">
        <ele>6.8</ele>
        <time>2020-06-04T09:24:56Z</time>
      </trkpt>
      <trkpt lat="46.78172" lon="-2.069">
        <ele>6.8</ele>
        <time>2020-06-04T09:24:57Z</time>
      </trkpt>
      <trkpt lat="46.78174" lon="-2.06904">
        <ele>6.8</ele>
        <time>2020-06-04T09:24:58Z</time>
      </trkpt>
      <trkpt lat="46.78177" lon="-2.06909">
        <ele>6.8</ele>
        <time>2020-06-04T09:24:59Z</time>
      </trkpt>
      <trkpt lat="46.78179" lon="-2.06913">
        <ele>6.8</ele>
        <time>2020-06-04T09:25:00Z</time>
      </trkpt>
      <trkpt lat="46.78182" lon="-2.06918">
        <ele>6.8</ele>
        <time>2020-06-04T09:25:01Z</time>
      </trkpt>
      <trkpt lat="46.78185" lon="-2.06923">
        <ele>6.8</ele>
        <time>2020-06-04T09:25:02Z</time>
      </trkpt>
      <trkpt lat="46.78187" lon="-2.06929">
        <ele>6.8</ele>
        <time>2020-06-04T09:25:03Z</time>
      </trkpt>
      <trkpt lat="46.7819" lon="-2.06934">
        <ele>6.8</ele>
        <time>2020-06-04T09:25:04Z</time>
      </trkpt>
      <trkpt lat="46.78193" lon="-2.06938">
        <ele>6.8</ele>
        <time>2020-06-04T09:25:05Z</time>
      </trkpt>
      <trkpt lat="46.78195" lon="-2.06942">
        <ele>6.8</ele>
        <time>2020-06-04T09:25:06Z</time>
      </trkpt>
      <trkpt lat="46.78198" lon="-2.06947">
        <ele>6.8</ele>
        <time>2020-06-04T09:25:07Z</time>
      </trkpt>
      <trkpt lat="46.78201" lon="-2.06951">
        <ele>6.8</ele>
        <time>2020-06-04T09:25:08Z</time>
      </trkpt>
      <trkpt lat="46.78203" lon="-2.06956">
        <ele>6.8</ele>
        <time>2020-06-04T09:25:09Z</time>
      </trkpt>
      <trkpt lat="46.78206" lon="-2.06961">
        <ele>6.8</ele>
        <time>2020-06-04T09:25:10Z</time>
      </trkpt>
      <trkpt lat="46.78208" lon="-2.06966">
        <ele>6.8</ele>
        <time>2020-06-04T09:25:11Z</time>
      </trkpt>
      <trkpt lat="46.78211" lon="-2.0697">
        <ele>6.8</ele>
        <time>2020-06-04T09:25:12Z</time>
      </trkpt>
      <trkpt lat="46.78213" lon="-2.06975">
        <ele>6.8</ele>
        <time>2020-06-04T09:25:13Z</time>
      </trkpt>
      <trkpt lat="46.78215" lon="-2.0698">
        <ele>6.8</ele>
        <time>2020-06-04T09:25:14Z</time>
      </trkpt>
      <trkpt lat="46.78218" lon="-2.06984">
        <ele>6.8</ele>
        <time>2020-06-04T09:25:15Z</time>
      </trkpt>
      <trkpt lat="46.78221" lon="-2.06989">
        <ele>6.8</ele>
        <time>2020-06-04T09:25:16Z</time>
      </trkpt>
      <trkpt lat="46.78223" lon="-2.06993">
        <ele>6.8</ele>
        <time>2020-06-04T09:25:17Z</time>
      </trkpt>
      <trkpt lat="46.78226" lon="-2.06998">
        <ele>6.8</ele>
        <time>2020-06-04T09:25:18Z</time>
      </trkpt>
      <trkpt lat="46.78228" lon="-2.07003">
        <ele>6.8</ele>
        <time>2020-06-04T09:25:19Z</time>
      </trkpt>
      <trkpt lat="46.78231" lon="-2.07008">
        <ele>6.8</ele>
        <time>2020-06-04T09:25:20Z</time>
      </trkpt>
      <trkpt lat="46.78234" lon="-2.07013">
        <ele>6.8</ele>
        <time>2020-06-04T09:25:21Z</time>
      </trkpt>
      <trkpt lat="46.78237" lon="-2.07018">
        <ele>6.8</ele>
        <time>2020-06-04T09:25:22Z</time>
      </trkpt>
      <trkpt lat="46.78241" lon="-2.07022">
        <ele>6.9</ele>
        <time>2020-06-04T09:25:23Z</time>
      </trkpt>
      <trkpt lat="46.78244" lon="-2.07026">
        <ele>6.9</ele>
        <time>2020-06-04T09:25:24Z</time>
      </trkpt>
      <trkpt lat="46.78247" lon="-2.07031">
        <ele>6.9</ele>
        <time>2020-06-04T09:25:25Z</time>
      </trkpt>
      <trkpt lat="46.7825" lon="-2.07037">
        <ele>6.9</ele>
        <time>2020-06-04T09:25:26Z</time>
      </trkpt>
      <trkpt lat="46.78253" lon="-2.07042">
        <ele>6.9</ele>
        <time>2020-06-04T09:25:27Z</time>
      </trkpt>
      <trkpt lat="46.78256" lon="-2.07048">
        <ele>6.9</ele>
        <time>2020-06-04T09:25:28Z</time>
      </trkpt>
      <trkpt lat="46.78259" lon="-2.07053">
        <ele>6.9</ele>
        <time>2020-06-04T09:25:29Z</time>
      </trkpt>
      <trkpt lat="46.78261" lon="-2.07058">
        <ele>6.9</ele>
        <time>2020-06-04T09:25:30Z</time>
      </trkpt>
      <trkpt lat="46.78264" lon="-2.07062">
        <ele>6.9</ele>
        <time>2020-06-04T09:25:31Z</time>
      </trkpt>
      <trkpt lat="46.78266" lon="-2.07067">
        <ele>6.9</ele>
        <time>2020-06-04T09:25:32Z</time>
      </trkpt>
      <trkpt lat="46.78269" lon="-2.07072">
        <ele>6.9</ele>
        <time>2020-06-04T09:25:33Z</time>
      </trkpt>
      <trkpt lat="46.78271" lon="-2.07077">
        <ele>6.9</ele>
        <time>2020-06-04T09:25:34Z</time>
      </trkpt>
      <trkpt lat="46.78274" lon="-2.07083">
        <ele>6.9</ele>
        <time>2020-06-04T09:25:35Z</time>
      </trkpt>
      <trkpt lat="46.78276" lon="-2.07087">
        <ele>6.9</ele>
        <time>2020-06-04T09:25:36Z</time>
      </trkpt>
      <trkpt lat="46.78279" lon="-2.07091">
        <ele>6.9</ele>
        <time>2020-06-04T09:25:37Z</time>
      </trkpt>
      <trkpt lat="46.78281" lon="-2.07097">
        <ele>6.9</ele>
        <time>2020-06-04T09:25:38Z</time>
      </trkpt>
      <trkpt lat="46.78283" lon="-2.07103">
        <ele>6.9</ele>
        <time>2020-06-04T09:25:39Z</time>
      </trkpt>
      <trkpt lat="46.78285" lon="-2.07109">
        <ele>6.9</ele>
        <time>2020-06-04T09:25:40Z</time>
      </trkpt>
      <trkpt lat="46.78287" lon="-2.07114">
        <ele>6.9</ele>
        <time>2020-06-04T09:25:41Z</time>
      </trkpt>
      <trkpt lat="46.78289" lon="-2.0712">
        <ele>6.9</ele>
        <time>2020-06-04T09:25:42Z</time>
      </trkpt>
      <trkpt lat="46.78293" lon="-2.07124">
        <ele>6.9</ele>
        <time>2020-06-04T09:25:43Z</time>
      </trkpt>
      <trkpt lat="46.78295" lon="-2.07129">
        <ele>6.9</ele>
        <time>2020-06-04T09:25:44Z</time>
      </trkpt>
      <trkpt lat="46.78298" lon="-2.07134">
        <ele>6.9</ele>
        <time>2020-06-04T09:25:45Z</time>
      </trkpt>
      <trkpt lat="46.783" lon="-2.07139">
        <ele>6.9</ele>
        <time>2020-06-04T09:25:46Z</time>
      </trkpt>
      <trkpt lat="46.78302" lon="-2.07144">
        <ele>6.9</ele>
        <time>2020-06-04T09:25:47Z</time>
      </trkpt>
      <trkpt lat="46.78304" lon="-2.07149">
        <ele>6.9</ele>
        <time>2020-06-04T09:25:48Z</time>
      </trkpt>
      <trkpt lat="46.78307" lon="-2.07153">
        <ele>6.9</ele>
        <time>2020-06-04T09:25:49Z</time>
      </trkpt>
      <trkpt lat="46.78309" lon="-2.07157">
        <ele>6.9</ele>
        <time>2020-06-04T09:25:50Z</time>
      </trkpt>
      <trkpt lat="46.78311" lon="-2.07162">
        <ele>6.8</ele>
        <time>2020-06-04T09:25:51Z</time>
      </trkpt>
      <trkpt lat="46.78313" lon="-2.07167">
        <ele>6.8</ele>
        <time>2020-06-04T09:25:52Z</time>
      </trkpt>
      <trkpt lat="46.78315" lon="-2.07171">
        <ele>6.8</ele>
        <time>2020-06-04T09:25:53Z</time>
      </trkpt>
      <trkpt lat="46.78317" lon="-2.07177">
        <ele>6.8</ele>
        <time>2020-06-04T09:25:54Z</time>
      </trkpt>
      <trkpt lat="46.78319" lon="-2.07182">
        <ele>6.9</ele>
        <time>2020-06-04T09:25:55Z</time>
      </trkpt>
      <trkpt lat="46.78322" lon="-2.07187">
        <ele>6.9</ele>
        <time>2020-06-04T09:25:56Z</time>
      </trkpt>
      <trkpt lat="46.78324" lon="-2.07192">
        <ele>6.9</ele>
        <time>2020-06-04T09:25:57Z</time>
      </trkpt>
      <trkpt lat="46.78326" lon="-2.07196">
        <ele>6.9</ele>
        <time>2020-06-04T09:25:58Z</time>
      </trkpt>
      <trkpt lat="46.78329" lon="-2.07201">
        <ele>6.9</ele>
        <time>2020-06-04T09:25:59Z</time>
      </trkpt>
      <trkpt lat="46.78331" lon="-2.07207">
        <ele>6.9</ele>
        <time>2020-06-04T09:26:00Z</time>
      </trkpt>
      <trkpt lat="46.78333" lon="-2.07212">
        <ele>6.9</ele>
        <time>2020-06-04T09:26:01Z</time>
      </trkpt>
      <trkpt lat="46.78336" lon="-2.07217">
        <ele>6.9</ele>
        <time>2020-06-04T09:26:02Z</time>
      </trkpt>
      <trkpt lat="46.78339" lon="-2.07222">
        <ele>6.9</ele>
        <time>2020-06-04T09:26:03Z</time>
      </trkpt>
      <trkpt lat="46.78341" lon="-2.07227">
        <ele>6.9</ele>
        <time>2020-06-04T09:26:04Z</time>
      </trkpt>
      <trkpt lat="46.78342" lon="-2.07233">
        <ele>6.9</ele>
        <time>2020-06-04T09:26:05Z</time>
      </trkpt>
      <trkpt lat="46.78345" lon="-2.07238">
        <ele>6.9</ele>
        <time>2020-06-04T09:26:06Z</time>
      </trkpt>
      <trkpt lat="46.78348" lon="-2.07242">
        <ele>6.9</ele>
        <time>2020-06-04T09:26:07Z</time>
      </trkpt>
      <trkpt lat="46.7835" lon="-2.07247">
        <ele>6.9</ele>
        <time>2020-06-04T09:26:08Z</time>
      </trkpt>
      <trkpt lat="46.78353" lon="-2.07252">
        <ele>6.9</ele>
        <time>2020-06-04T09:26:09Z</time>
      </trkpt>
      <trkpt lat="46.78356" lon="-2.07256">
        <ele>6.9</ele>
        <time>2020-06-04T09:26:10Z</time>
      </trkpt>
      <trkpt lat="46.78359" lon="-2.0726">
        <ele>7</ele>
        <time>2020-06-04T09:26:11Z</time>
      </trkpt>
      <trkpt lat="46.78361" lon="-2.07264">
        <ele>7</ele>
        <time>2020-06-04T09:26:12Z</time>
      </trkpt>
      <trkpt lat="46.78363" lon="-2.07269">
        <ele>7</ele>
        <time>2020-06-04T09:26:13Z</time>
      </trkpt>
      <trkpt lat="46.78366" lon="-2.07275">
        <ele>7</ele>
        <time>2020-06-04T09:26:14Z</time>
      </trkpt>
      <trkpt lat="46.78368" lon="-2.0728">
        <ele>7</ele>
        <time>2020-06-04T09:26:15Z</time>
      </trkpt>
      <trkpt lat="46.7837" lon="-2.07286">
        <ele>7</ele>
        <time>2020-06-04T09:26:16Z</time>
      </trkpt>
      <trkpt lat="46.78372" lon="-2.07292">
        <ele>7</ele>
        <time>2020-06-04T09:26:17Z</time>
      </trkpt>
      <trkpt lat="46.78375" lon="-2.07297">
        <ele>7</ele>
        <time>2020-06-04T09:26:18Z</time>
      </trkpt>
      <trkpt lat="46.78378" lon="-2.07303">
        <ele>7</ele>
        <time>2020-06-04T09:26:19Z</time>
      </trkpt>
      <trkpt lat="46.7838" lon="-2.07308">
        <ele>7</ele>
        <time>2020-06-04T09:26:20Z</time>
      </trkpt>
      <trkpt lat="46.78383" lon="-2.07313">
        <ele>7</ele>
        <time>2020-06-04T09:26:21Z</time>
      </trkpt>
      <trkpt lat="46.78386" lon="-2.07317">
        <ele>6.9</ele>
        <time>2020-06-04T09:26:22Z</time>
      </trkpt>
      <trkpt lat="46.78388" lon="-2.07322">
        <ele>6.9</ele>
        <time>2020-06-04T09:26:23Z</time>
      </trkpt>
      <trkpt lat="46.7839" lon="-2.07327">
        <ele>6.9</ele>
        <time>2020-06-04T09:26:24Z</time>
      </trkpt>
      <trkpt lat="46.78392" lon="-2.07332">
        <ele>6.9</ele>
        <time>2020-06-04T09:26:25Z</time>
      </trkpt>
      <trkpt lat="46.78395" lon="-2.07338">
        <ele>6.9</ele>
        <time>2020-06-04T09:26:26Z</time>
      </trkpt>
      <trkpt lat="46.78397" lon="-2.07344">
        <ele>6.8</ele>
        <time>2020-06-04T09:26:27Z</time>
      </trkpt>
      <trkpt lat="46.78399" lon="-2.07349">
        <ele>6.8</ele>
        <time>2020-06-04T09:26:28Z</time>
      </trkpt>
      <trkpt lat="46.78401" lon="-2.07354">
        <ele>6.8</ele>
        <time>2020-06-04T09:26:29Z</time>
      </trkpt>
      <trkpt lat="46.78403" lon="-2.0736">
        <ele>6.7</ele>
        <time>2020-06-04T09:26:30Z</time>
      </trkpt>
      <trkpt lat="46.78405" lon="-2.07365">
        <ele>6.7</ele>
        <time>2020-06-04T09:26:31Z</time>
      </trkpt>
      <trkpt lat="46.78407" lon="-2.07371">
        <ele>6.7</ele>
        <time>2020-06-04T09:26:32Z</time>
      </trkpt>
      <trkpt lat="46.7841" lon="-2.07376">
        <ele>6.6</ele>
        <time>2020-06-04T09:26:33Z</time>
      </trkpt>
      <trkpt lat="46.78412" lon="-2.07383">
        <ele>6.6</ele>
        <time>2020-06-04T09:26:34Z</time>
      </trkpt>
      <trkpt lat="46.78415" lon="-2.07388">
        <ele>6.5</ele>
        <time>2020-06-04T09:26:35Z</time>
      </trkpt>
      <trkpt lat="46.78418" lon="-2.07393">
        <ele>6.5</ele>
        <time>2020-06-04T09:26:36Z</time>
      </trkpt>
      <trkpt lat="46.7842" lon="-2.07399">
        <ele>6.4</ele>
        <time>2020-06-04T09:26:37Z</time>
      </trkpt>
      <trkpt lat="46.78423" lon="-2.07404">
        <ele>6.4</ele>
        <time>2020-06-04T09:26:38Z</time>
      </trkpt>
      <trkpt lat="46.78426" lon="-2.0741">
        <ele>6.3</ele>
        <time>2020-06-04T09:26:39Z</time>
      </trkpt>
      <trkpt lat="46.78428" lon="-2.07416">
        <ele>6.2</ele>
        <time>2020-06-04T09:26:40Z</time>
      </trkpt>
      <trkpt lat="46.7843" lon="-2.07422">
        <ele>6.2</ele>
        <time>2020-06-04T09:26:41Z</time>
      </trkpt>
      <trkpt lat="46.78433" lon="-2.07428">
        <ele>6.1</ele>
        <time>2020-06-04T09:26:42Z</time>
      </trkpt>
      <trkpt lat="46.78436" lon="-2.07434">
        <ele>6.1</ele>
        <time>2020-06-04T09:26:43Z</time>
      </trkpt>
      <trkpt lat="46.78438" lon="-2.0744">
        <ele>6</ele>
        <time>2020-06-04T09:26:44Z</time>
      </trkpt>
      <trkpt lat="46.78441" lon="-2.07446">
        <ele>6</ele>
        <time>2020-06-04T09:26:45Z</time>
      </trkpt>
      <trkpt lat="46.78443" lon="-2.07453">
        <ele>5.9</ele>
        <time>2020-06-04T09:26:46Z</time>
      </trkpt>
      <trkpt lat="46.78445" lon="-2.07458">
        <ele>5.9</ele>
        <time>2020-06-04T09:26:47Z</time>
      </trkpt>
      <trkpt lat="46.78447" lon="-2.07464">
        <ele>5.8</ele>
        <time>2020-06-04T09:26:48Z</time>
      </trkpt>
      <trkpt lat="46.78449" lon="-2.0747">
        <ele>5.7</ele>
        <time>2020-06-04T09:26:49Z</time>
      </trkpt>
      <trkpt lat="46.78451" lon="-2.07474">
        <ele>5.7</ele>
        <time>2020-06-04T09:26:50Z</time>
      </trkpt>
      <trkpt lat="46.78454" lon="-2.07479">
        <ele>5.6</ele>
        <time>2020-06-04T09:26:51Z</time>
      </trkpt>
      <trkpt lat="46.78457" lon="-2.07484">
        <ele>5.6</ele>
        <time>2020-06-04T09:26:52Z</time>
      </trkpt>
      <trkpt lat="46.78459" lon="-2.07489">
        <ele>5.5</ele>
        <time>2020-06-04T09:26:53Z</time>
      </trkpt>
      <trkpt lat="46.78461" lon="-2.07494">
        <ele>5.5</ele>
        <time>2020-06-04T09:26:54Z</time>
      </trkpt>
      <trkpt lat="46.78463" lon="-2.075">
        <ele>5.4</ele>
        <time>2020-06-04T09:26:55Z</time>
      </trkpt>
      <trkpt lat="46.78465" lon="-2.07505">
        <ele>5.4</ele>
        <time>2020-06-04T09:26:56Z</time>
      </trkpt>
      <trkpt lat="46.78469" lon="-2.07512">
        <ele>5.4</ele>
        <time>2020-06-04T09:26:57Z</time>
      </trkpt>
      <trkpt lat="46.78471" lon="-2.07519">
        <ele>5.3</ele>
        <time>2020-06-04T09:26:58Z</time>
      </trkpt>
      <trkpt lat="46.78473" lon="-2.07525">
        <ele>5.3</ele>
        <time>2020-06-04T09:26:59Z</time>
      </trkpt>
      <trkpt lat="46.78476" lon="-2.07533">
        <ele>5.3</ele>
        <time>2020-06-04T09:27:00Z</time>
      </trkpt>
      <trkpt lat="46.7848" lon="-2.07541">
        <ele>5.3</ele>
        <time>2020-06-04T09:27:01Z</time>
      </trkpt>
      <trkpt lat="46.78482" lon="-2.07548">
        <ele>5.2</ele>
        <time>2020-06-04T09:27:02Z</time>
      </trkpt>
      <trkpt lat="46.78483" lon="-2.07555">
        <ele>5.2</ele>
        <time>2020-06-04T09:27:03Z</time>
      </trkpt>
      <trkpt lat="46.78485" lon="-2.07561">
        <ele>5.2</ele>
        <time>2020-06-04T09:27:04Z</time>
      </trkpt>
      <trkpt lat="46.78488" lon="-2.07567">
        <ele>5.2</ele>
        <time>2020-06-04T09:27:05Z</time>
      </trkpt>
      <trkpt lat="46.7849" lon="-2.07573">
        <ele>5.2</ele>
        <time>2020-06-04T09:27:06Z</time>
      </trkpt>
      <trkpt lat="46.78494" lon="-2.07577">
        <ele>5.2</ele>
        <time>2020-06-04T09:27:07Z</time>
      </trkpt>
      <trkpt lat="46.78496" lon="-2.07582">
        <ele>5.2</ele>
        <time>2020-06-04T09:27:08Z</time>
      </trkpt>
      <trkpt lat="46.78499" lon="-2.07587">
        <ele>5.2</ele>
        <time>2020-06-04T09:27:09Z</time>
      </trkpt>
      <trkpt lat="46.78503" lon="-2.07592">
        <ele>5.3</ele>
        <time>2020-06-04T09:27:10Z</time>
      </trkpt>
      <trkpt lat="46.78507" lon="-2.07595">
        <ele>5.4</ele>
        <time>2020-06-04T09:27:11Z</time>
      </trkpt>
      <trkpt lat="46.7851" lon="-2.07599">
        <ele>5.5</ele>
        <time>2020-06-04T09:27:12Z</time>
      </trkpt>
      <trkpt lat="46.78512" lon="-2.07604">
        <ele>5.6</ele>
        <time>2020-06-04T09:27:13Z</time>
      </trkpt>
      <trkpt lat="46.78515" lon="-2.07608">
        <ele>5.6</ele>
        <time>2020-06-04T09:27:14Z</time>
      </trkpt>
      <trkpt lat="46.78517" lon="-2.07613">
        <ele>5.9</ele>
        <time>2020-06-04T09:27:15Z</time>
      </trkpt>
      <trkpt lat="46.7852" lon="-2.07618">
        <ele>5.9</ele>
        <time>2020-06-04T09:27:16Z</time>
      </trkpt>
      <trkpt lat="46.78522" lon="-2.07623">
        <ele>6</ele>
        <time>2020-06-04T09:27:17Z</time>
      </trkpt>
      <trkpt lat="46.78524" lon="-2.07628">
        <ele>6</ele>
        <time>2020-06-04T09:27:18Z</time>
      </trkpt>
      <trkpt lat="46.78526" lon="-2.07633">
        <ele>6.1</ele>
        <time>2020-06-04T09:27:19Z</time>
      </trkpt>
      <trkpt lat="46.78528" lon="-2.07638">
        <ele>6.2</ele>
        <time>2020-06-04T09:27:20Z</time>
      </trkpt>
      <trkpt lat="46.7853" lon="-2.07644">
        <ele>6.2</ele>
        <time>2020-06-04T09:27:21Z</time>
      </trkpt>
      <trkpt lat="46.78532" lon="-2.07649">
        <ele>6.3</ele>
        <time>2020-06-04T09:27:22Z</time>
      </trkpt>
      <trkpt lat="46.78534" lon="-2.07654">
        <ele>6.3</ele>
        <time>2020-06-04T09:27:23Z</time>
      </trkpt>
      <trkpt lat="46.78534" lon="-2.07658">
        <ele>6.4</ele>
        <time>2020-06-04T09:27:24Z</time>
      </trkpt>
      <trkpt lat="46.78536" lon="-2.07663">
        <ele>6.4</ele>
        <time>2020-06-04T09:27:25Z</time>
      </trkpt>
      <trkpt lat="46.78538" lon="-2.07668">
        <ele>6.4</ele>
        <time>2020-06-04T09:27:26Z</time>
      </trkpt>
      <trkpt lat="46.7854" lon="-2.07672">
        <ele>6.4</ele>
        <time>2020-06-04T09:27:27Z</time>
      </trkpt>
      <trkpt lat="46.78543" lon="-2.07677">
        <ele>6.4</ele>
        <time>2020-06-04T09:27:28Z</time>
      </trkpt>
      <trkpt lat="46.78545" lon="-2.07682">
        <ele>6.5</ele>
        <time>2020-06-04T09:27:29Z</time>
      </trkpt>
      <trkpt lat="46.78549" lon="-2.07687">
        <ele>6.5</ele>
        <time>2020-06-04T09:27:30Z</time>
      </trkpt>
      <trkpt lat="46.78553" lon="-2.07691">
        <ele>6.5</ele>
        <time>2020-06-04T09:27:31Z</time>
      </trkpt>
      <trkpt lat="46.78555" lon="-2.07697">
        <ele>6.5</ele>
        <time>2020-06-04T09:27:32Z</time>
      </trkpt>
      <trkpt lat="46.78556" lon="-2.07702">
        <ele>6.6</ele>
        <time>2020-06-04T09:27:33Z</time>
      </trkpt>
      <trkpt lat="46.78558" lon="-2.07707">
        <ele>6.6</ele>
        <time>2020-06-04T09:27:34Z</time>
      </trkpt>
      <trkpt lat="46.78561" lon="-2.07712">
        <ele>6.6</ele>
        <time>2020-06-04T09:27:35Z</time>
      </trkpt>
      <trkpt lat="46.78562" lon="-2.07715">
        <ele>6.6</ele>
        <time>2020-06-04T09:27:36Z</time>
      </trkpt>
      <trkpt lat="46.78564" lon="-2.07719">
        <ele>6.6</ele>
        <time>2020-06-04T09:27:37Z</time>
      </trkpt>
      <trkpt lat="46.78565" lon="-2.07724">
        <ele>6.7</ele>
        <time>2020-06-04T09:27:38Z</time>
      </trkpt>
      <trkpt lat="46.78566" lon="-2.07729">
        <ele>6.7</ele>
        <time>2020-06-04T09:27:39Z</time>
      </trkpt>
      <trkpt lat="46.78568" lon="-2.07734">
        <ele>6.7</ele>
        <time>2020-06-04T09:27:40Z</time>
      </trkpt>
      <trkpt lat="46.7857" lon="-2.07739">
        <ele>6.7</ele>
        <time>2020-06-04T09:27:41Z</time>
      </trkpt>
      <trkpt lat="46.78571" lon="-2.07744">
        <ele>6.7</ele>
        <time>2020-06-04T09:27:42Z</time>
      </trkpt>
      <trkpt lat="46.78572" lon="-2.07749">
        <ele>6.7</ele>
        <time>2020-06-04T09:27:43Z</time>
      </trkpt>
      <trkpt lat="46.78575" lon="-2.07751">
        <ele>6.7</ele>
        <time>2020-06-04T09:27:44Z</time>
      </trkpt>
      <trkpt lat="46.78577" lon="-2.07756">
        <ele>6.7</ele>
        <time>2020-06-04T09:27:45Z</time>
      </trkpt>
      <trkpt lat="46.78577" lon="-2.07758">
        <ele>6.7</ele>
        <time>2020-06-04T09:27:46Z</time>
      </trkpt>
      <trkpt lat="46.7858" lon="-2.07762">
        <ele>6.7</ele>
        <time>2020-06-04T09:27:47Z</time>
      </trkpt>
      <trkpt lat="46.78581" lon="-2.07765">
        <ele>6.7</ele>
        <time>2020-06-04T09:27:48Z</time>
      </trkpt>
      <trkpt lat="46.78583" lon="-2.0777">
        <ele>6.7</ele>
        <time>2020-06-04T09:27:49Z</time>
      </trkpt>
      <trkpt lat="46.78584" lon="-2.07771">
        <ele>6.7</ele>
        <time>2020-06-04T09:27:50Z</time>
      </trkpt>
      <trkpt lat="46.78586" lon="-2.07775">
        <ele>6.7</ele>
        <time>2020-06-04T09:27:51Z</time>
      </trkpt>
      <trkpt lat="46.78588" lon="-2.07777">
        <ele>6.7</ele>
        <time>2020-06-04T09:27:52Z</time>
      </trkpt>
      <trkpt lat="46.78589" lon="-2.07783">
        <ele>6.7</ele>
        <time>2020-06-04T09:27:53Z</time>
      </trkpt>
      <trkpt lat="46.7859" lon="-2.07785">
        <ele>6.8</ele>
        <time>2020-06-04T09:27:54Z</time>
      </trkpt>
      <trkpt lat="46.78593" lon="-2.07788">
        <ele>6.8</ele>
        <time>2020-06-04T09:27:55Z</time>
      </trkpt>
      <trkpt lat="46.78593" lon="-2.07794">
        <ele>6.8</ele>
        <time>2020-06-04T09:27:56Z</time>
      </trkpt>
      <trkpt lat="46.78594" lon="-2.07798">
        <ele>6.8</ele>
        <time>2020-06-04T09:27:57Z</time>
      </trkpt>
      <trkpt lat="46.78596" lon="-2.07802">
        <ele>6.8</ele>
        <time>2020-06-04T09:27:58Z</time>
      </trkpt>
      <trkpt lat="46.78598" lon="-2.07806">
        <ele>6.8</ele>
        <time>2020-06-04T09:27:59Z</time>
      </trkpt>
      <trkpt lat="46.786" lon="-2.0781">
        <ele>6.8</ele>
        <time>2020-06-04T09:28:00Z</time>
      </trkpt>
      <trkpt lat="46.78602" lon="-2.07815">
        <ele>6.8</ele>
        <time>2020-06-04T09:28:01Z</time>
      </trkpt>
      <trkpt lat="46.78603" lon="-2.07819">
        <ele>6.8</ele>
        <time>2020-06-04T09:28:02Z</time>
      </trkpt>
      <trkpt lat="46.78606" lon="-2.07824">
        <ele>6.8</ele>
        <time>2020-06-04T09:28:03Z</time>
      </trkpt>
      <trkpt lat="46.78606" lon="-2.0783">
        <ele>6.8</ele>
        <time>2020-06-04T09:28:04Z</time>
      </trkpt>
      <trkpt lat="46.78608" lon="-2.07834">
        <ele>6.8</ele>
        <time>2020-06-04T09:28:05Z</time>
      </trkpt>
      <trkpt lat="46.78609" lon="-2.07839">
        <ele>6.8</ele>
        <time>2020-06-04T09:28:06Z</time>
      </trkpt>
      <trkpt lat="46.78611" lon="-2.07843">
        <ele>6.8</ele>
        <time>2020-06-04T09:28:07Z</time>
      </trkpt>
      <trkpt lat="46.78613" lon="-2.07848">
        <ele>6.8</ele>
        <time>2020-06-04T09:28:08Z</time>
      </trkpt>
      <trkpt lat="46.78616" lon="-2.07852">
        <ele>6.8</ele>
        <time>2020-06-04T09:28:09Z</time>
      </trkpt>
      <trkpt lat="46.78618" lon="-2.07858">
        <ele>6.8</ele>
        <time>2020-06-04T09:28:10Z</time>
      </trkpt>
      <trkpt lat="46.7862" lon="-2.07862">
        <ele>6.8</ele>
        <time>2020-06-04T09:28:11Z</time>
      </trkpt>
      <trkpt lat="46.78622" lon="-2.07867">
        <ele>6.8</ele>
        <time>2020-06-04T09:28:12Z</time>
      </trkpt>
      <trkpt lat="46.78624" lon="-2.07872">
        <ele>6.8</ele>
        <time>2020-06-04T09:28:13Z</time>
      </trkpt>
      <trkpt lat="46.78625" lon="-2.07877">
        <ele>6.8</ele>
        <time>2020-06-04T09:28:14Z</time>
      </trkpt>
      <trkpt lat="46.78627" lon="-2.07882">
        <ele>6.8</ele>
        <time>2020-06-04T09:28:15Z</time>
      </trkpt>
      <trkpt lat="46.78629" lon="-2.07886">
        <ele>6.8</ele>
        <time>2020-06-04T09:28:16Z</time>
      </trkpt>
      <trkpt lat="46.78631" lon="-2.0789">
        <ele>6.8</ele>
        <time>2020-06-04T09:28:17Z</time>
      </trkpt>
      <trkpt lat="46.78633" lon="-2.07894">
        <ele>6.8</ele>
        <time>2020-06-04T09:28:18Z</time>
      </trkpt>
      <trkpt lat="46.78634" lon="-2.07899">
        <ele>6.8</ele>
        <time>2020-06-04T09:28:19Z</time>
      </trkpt>
      <trkpt lat="46.78637" lon="-2.07905">
        <ele>6.8</ele>
        <time>2020-06-04T09:28:20Z</time>
      </trkpt>
      <trkpt lat="46.78639" lon="-2.0791">
        <ele>6.7</ele>
        <time>2020-06-04T09:28:21Z</time>
      </trkpt>
      <trkpt lat="46.7864" lon="-2.07916">
        <ele>6.7</ele>
        <time>2020-06-04T09:28:22Z</time>
      </trkpt>
      <trkpt lat="46.78642" lon="-2.07922">
        <ele>6.6</ele>
        <time>2020-06-04T09:28:23Z</time>
      </trkpt>
      <trkpt lat="46.78644" lon="-2.07926">
        <ele>6.6</ele>
        <time>2020-06-04T09:28:24Z</time>
      </trkpt>
      <trkpt lat="46.78645" lon="-2.0793">
        <ele>6.5</ele>
        <time>2020-06-04T09:28:25Z</time>
      </trkpt>
      <trkpt lat="46.78647" lon="-2.07935">
        <ele>6.5</ele>
        <time>2020-06-04T09:28:26Z</time>
      </trkpt>
      <trkpt lat="46.78649" lon="-2.07941">
        <ele>6.5</ele>
        <time>2020-06-04T09:28:27Z</time>
      </trkpt>
      <trkpt lat="46.78652" lon="-2.07946">
        <ele>6.4</ele>
        <time>2020-06-04T09:28:28Z</time>
      </trkpt>
      <trkpt lat="46.78653" lon="-2.07952">
        <ele>6.4</ele>
        <time>2020-06-04T09:28:29Z</time>
      </trkpt>
      <trkpt lat="46.78655" lon="-2.07957">
        <ele>6.3</ele>
        <time>2020-06-04T09:28:30Z</time>
      </trkpt>
      <trkpt lat="46.78657" lon="-2.07963">
        <ele>6.3</ele>
        <time>2020-06-04T09:28:31Z</time>
      </trkpt>
      <trkpt lat="46.78658" lon="-2.07968">
        <ele>6.3</ele>
        <time>2020-06-04T09:28:32Z</time>
      </trkpt>
      <trkpt lat="46.7866" lon="-2.07973">
        <ele>5.9</ele>
        <time>2020-06-04T09:28:33Z</time>
      </trkpt>
      <trkpt lat="46.78661" lon="-2.07978">
        <ele>5.9</ele>
        <time>2020-06-04T09:28:34Z</time>
      </trkpt>
      <trkpt lat="46.78663" lon="-2.07982">
        <ele>5.9</ele>
        <time>2020-06-04T09:28:35Z</time>
      </trkpt>
      <trkpt lat="46.78664" lon="-2.07987">
        <ele>5.9</ele>
        <time>2020-06-04T09:28:36Z</time>
      </trkpt>
      <trkpt lat="46.78665" lon="-2.07989">
        <ele>5.9</ele>
        <time>2020-06-04T09:28:37Z</time>
      </trkpt>
      <trkpt lat="46.78667" lon="-2.07994">
        <ele>5.9</ele>
        <time>2020-06-04T09:28:38Z</time>
      </trkpt>
      <trkpt lat="46.7867" lon="-2.07999">
        <ele>5.9</ele>
        <time>2020-06-04T09:28:39Z</time>
      </trkpt>
      <trkpt lat="46.78672" lon="-2.08003">
        <ele>6</ele>
        <time>2020-06-04T09:28:40Z</time>
      </trkpt>
      <trkpt lat="46.78674" lon="-2.08008">
        <ele>6</ele>
        <time>2020-06-04T09:28:41Z</time>
      </trkpt>
      <trkpt lat="46.78676" lon="-2.08013">
        <ele>6</ele>
        <time>2020-06-04T09:28:42Z</time>
      </trkpt>
      <trkpt lat="46.78678" lon="-2.08018">
        <ele>6</ele>
        <time>2020-06-04T09:28:43Z</time>
      </trkpt>
      <trkpt lat="46.78681" lon="-2.08023">
        <ele>6</ele>
        <time>2020-06-04T09:28:44Z</time>
      </trkpt>
      <trkpt lat="46.78684" lon="-2.08029">
        <ele>6</ele>
        <time>2020-06-04T09:28:45Z</time>
      </trkpt>
      <trkpt lat="46.78686" lon="-2.08034">
        <ele>5.9</ele>
        <time>2020-06-04T09:28:46Z</time>
      </trkpt>
      <trkpt lat="46.78689" lon="-2.0804">
        <ele>5.9</ele>
        <time>2020-06-04T09:28:47Z</time>
      </trkpt>
      <trkpt lat="46.78691" lon="-2.08046">
        <ele>5.8</ele>
        <time>2020-06-04T09:28:48Z</time>
      </trkpt>
      <trkpt lat="46.78694" lon="-2.08053">
        <ele>5.8</ele>
        <time>2020-06-04T09:28:49Z</time>
      </trkpt>
      <trkpt lat="46.78696" lon="-2.08059">
        <ele>5.7</ele>
        <time>2020-06-04T09:28:50Z</time>
      </trkpt>
      <trkpt lat="46.78699" lon="-2.08065">
        <ele>5.7</ele>
        <time>2020-06-04T09:28:51Z</time>
      </trkpt>
      <trkpt lat="46.78701" lon="-2.08071">
        <ele>5.6</ele>
        <time>2020-06-04T09:28:52Z</time>
      </trkpt>
      <trkpt lat="46.78704" lon="-2.08075">
        <ele>5.5</ele>
        <time>2020-06-04T09:28:53Z</time>
      </trkpt>
      <trkpt lat="46.78706" lon="-2.08081">
        <ele>5.5</ele>
        <time>2020-06-04T09:28:54Z</time>
      </trkpt>
      <trkpt lat="46.78708" lon="-2.08086">
        <ele>5.5</ele>
        <time>2020-06-04T09:28:55Z</time>
      </trkpt>
      <trkpt lat="46.78711" lon="-2.08092">
        <ele>5.5</ele>
        <time>2020-06-04T09:28:56Z</time>
      </trkpt>
      <trkpt lat="46.78714" lon="-2.08098">
        <ele>5.4</ele>
        <time>2020-06-04T09:28:57Z</time>
      </trkpt>
      <trkpt lat="46.78717" lon="-2.08103">
        <ele>5.4</ele>
        <time>2020-06-04T09:28:58Z</time>
      </trkpt>
      <trkpt lat="46.78719" lon="-2.08109">
        <ele>5.4</ele>
        <time>2020-06-04T09:28:59Z</time>
      </trkpt>
      <trkpt lat="46.78721" lon="-2.08115">
        <ele>5.3</ele>
        <time>2020-06-04T09:29:00Z</time>
      </trkpt>
      <trkpt lat="46.78724" lon="-2.08121">
        <ele>5.3</ele>
        <time>2020-06-04T09:29:01Z</time>
      </trkpt>
      <trkpt lat="46.78726" lon="-2.08127">
        <ele>5.2</ele>
        <time>2020-06-04T09:29:02Z</time>
      </trkpt>
      <trkpt lat="46.78728" lon="-2.08134">
        <ele>5.2</ele>
        <time>2020-06-04T09:29:03Z</time>
      </trkpt>
      <trkpt lat="46.78731" lon="-2.0814">
        <ele>5.1</ele>
        <time>2020-06-04T09:29:04Z</time>
      </trkpt>
      <trkpt lat="46.78733" lon="-2.08147">
        <ele>5</ele>
        <time>2020-06-04T09:29:05Z</time>
      </trkpt>
      <trkpt lat="46.78736" lon="-2.08154">
        <ele>4.9</ele>
        <time>2020-06-04T09:29:06Z</time>
      </trkpt>
      <trkpt lat="46.78739" lon="-2.0816">
        <ele>4.8</ele>
        <time>2020-06-04T09:29:07Z</time>
      </trkpt>
      <trkpt lat="46.78742" lon="-2.08167">
        <ele>4.7</ele>
        <time>2020-06-04T09:29:08Z</time>
      </trkpt>
      <trkpt lat="46.78745" lon="-2.08174">
        <ele>4.7</ele>
        <time>2020-06-04T09:29:09Z</time>
      </trkpt>
      <trkpt lat="46.78747" lon="-2.0818">
        <ele>4.6</ele>
        <time>2020-06-04T09:29:10Z</time>
      </trkpt>
      <trkpt lat="46.7875" lon="-2.08185">
        <ele>4.5</ele>
        <time>2020-06-04T09:29:11Z</time>
      </trkpt>
      <trkpt lat="46.78753" lon="-2.08192">
        <ele>4.5</ele>
        <time>2020-06-04T09:29:12Z</time>
      </trkpt>
      <trkpt lat="46.78757" lon="-2.08198">
        <ele>4.4</ele>
        <time>2020-06-04T09:29:13Z</time>
      </trkpt>
      <trkpt lat="46.7876" lon="-2.08204">
        <ele>4.4</ele>
        <time>2020-06-04T09:29:14Z</time>
      </trkpt>
      <trkpt lat="46.78763" lon="-2.0821">
        <ele>4.4</ele>
        <time>2020-06-04T09:29:15Z</time>
      </trkpt>
      <trkpt lat="46.78766" lon="-2.08216">
        <ele>4.3</ele>
        <time>2020-06-04T09:29:16Z</time>
      </trkpt>
      <trkpt lat="46.78769" lon="-2.08222">
        <ele>4.3</ele>
        <time>2020-06-04T09:29:17Z</time>
      </trkpt>
      <trkpt lat="46.78772" lon="-2.08228">
        <ele>4.2</ele>
        <time>2020-06-04T09:29:18Z</time>
      </trkpt>
      <trkpt lat="46.78776" lon="-2.08233">
        <ele>4.1</ele>
        <time>2020-06-04T09:29:19Z</time>
      </trkpt>
      <trkpt lat="46.78779" lon="-2.08239">
        <ele>4.2</ele>
        <time>2020-06-04T09:29:20Z</time>
      </trkpt>
      <trkpt lat="46.78781" lon="-2.08245">
        <ele>4.5</ele>
        <time>2020-06-04T09:29:21Z</time>
      </trkpt>
      <trkpt lat="46.78784" lon="-2.08251">
        <ele>4.5</ele>
        <time>2020-06-04T09:29:22Z</time>
      </trkpt>
      <trkpt lat="46.78787" lon="-2.08256">
        <ele>4.6</ele>
        <time>2020-06-04T09:29:23Z</time>
      </trkpt>
      <trkpt lat="46.7879" lon="-2.08262">
        <ele>4.7</ele>
        <time>2020-06-04T09:29:24Z</time>
      </trkpt>
      <trkpt lat="46.78793" lon="-2.08266">
        <ele>4.8</ele>
        <time>2020-06-04T09:29:25Z</time>
      </trkpt>
      <trkpt lat="46.78795" lon="-2.08269">
        <ele>4.8</ele>
        <time>2020-06-04T09:29:26Z</time>
      </trkpt>
      <trkpt lat="46.78797" lon="-2.08273">
        <ele>4.9</ele>
        <time>2020-06-04T09:29:27Z</time>
      </trkpt>
      <trkpt lat="46.78799" lon="-2.08277">
        <ele>4.9</ele>
        <time>2020-06-04T09:29:28Z</time>
      </trkpt>
      <trkpt lat="46.78801" lon="-2.08281">
        <ele>5</ele>
        <time>2020-06-04T09:29:29Z</time>
      </trkpt>
      <trkpt lat="46.78803" lon="-2.08285">
        <ele>5.1</ele>
        <time>2020-06-04T09:29:30Z</time>
      </trkpt>
      <trkpt lat="46.78806" lon="-2.08288">
        <ele>5.1</ele>
        <time>2020-06-04T09:29:31Z</time>
      </trkpt>
      <trkpt lat="46.78807" lon="-2.08292">
        <ele>5.2</ele>
        <time>2020-06-04T09:29:32Z</time>
      </trkpt>
      <trkpt lat="46.78807" lon="-2.08294">
        <ele>5.2</ele>
        <time>2020-06-04T09:29:33Z</time>
      </trkpt>
      <trkpt lat="46.7881" lon="-2.08299">
        <ele>5.3</ele>
        <time>2020-06-04T09:29:34Z</time>
      </trkpt>
      <trkpt lat="46.78812" lon="-2.08303">
        <ele>5.3</ele>
        <time>2020-06-04T09:29:35Z</time>
      </trkpt>
      <trkpt lat="46.78813" lon="-2.08307">
        <ele>5.4</ele>
        <time>2020-06-04T09:29:36Z</time>
      </trkpt>
      <trkpt lat="46.78815" lon="-2.08311">
        <ele>5.4</ele>
        <time>2020-06-04T09:29:37Z</time>
      </trkpt>
      <trkpt lat="46.78816" lon="-2.08316">
        <ele>5.5</ele>
        <time>2020-06-04T09:29:38Z</time>
      </trkpt>
      <trkpt lat="46.78817" lon="-2.08318">
        <ele>5.5</ele>
        <time>2020-06-04T09:29:39Z</time>
      </trkpt>
      <trkpt lat="46.78819" lon="-2.08323">
        <ele>5.6</ele>
        <time>2020-06-04T09:29:40Z</time>
      </trkpt>
      <trkpt lat="46.7882" lon="-2.08325">
        <ele>5.6</ele>
        <time>2020-06-04T09:29:41Z</time>
      </trkpt>
      <trkpt lat="46.78822" lon="-2.08329">
        <ele>5.6</ele>
        <time>2020-06-04T09:29:42Z</time>
      </trkpt>
      <trkpt lat="46.78824" lon="-2.08332">
        <ele>5.7</ele>
        <time>2020-06-04T09:29:43Z</time>
      </trkpt>
      <trkpt lat="46.78826" lon="-2.08335">
        <ele>5.7</ele>
        <time>2020-06-04T09:29:44Z</time>
      </trkpt>
      <trkpt lat="46.78828" lon="-2.08339">
        <ele>5.8</ele>
        <time>2020-06-04T09:29:45Z</time>
      </trkpt>
      <trkpt lat="46.78829" lon="-2.08343">
        <ele>5.8</ele>
        <time>2020-06-04T09:29:46Z</time>
      </trkpt>
      <trkpt lat="46.78832" lon="-2.08346">
        <ele>5.8</ele>
        <time>2020-06-04T09:29:47Z</time>
      </trkpt>
      <trkpt lat="46.78833" lon="-2.08351">
        <ele>5.9</ele>
        <time>2020-06-04T09:29:48Z</time>
      </trkpt>
      <trkpt lat="46.78835" lon="-2.08356">
        <ele>5.9</ele>
        <time>2020-06-04T09:29:49Z</time>
      </trkpt>
      <trkpt lat="46.78838" lon="-2.08359">
        <ele>6</ele>
        <time>2020-06-04T09:29:50Z</time>
      </trkpt>
      <trkpt lat="46.7884" lon="-2.08361">
        <ele>6</ele>
        <time>2020-06-04T09:29:51Z</time>
      </trkpt>
      <trkpt lat="46.78843" lon="-2.08362">
        <ele>6</ele>
        <time>2020-06-04T09:29:52Z</time>
      </trkpt>
      <trkpt lat="46.78847" lon="-2.08362">
        <ele>5.9</ele>
        <time>2020-06-04T09:29:53Z</time>
      </trkpt>
      <trkpt lat="46.7885" lon="-2.08362">
        <ele>5.9</ele>
        <time>2020-06-04T09:29:54Z</time>
      </trkpt>
      <trkpt lat="46.78855" lon="-2.08361">
        <ele>5.9</ele>
        <time>2020-06-04T09:29:55Z</time>
      </trkpt>
      <trkpt lat="46.78859" lon="-2.08361">
        <ele>5.9</ele>
        <time>2020-06-04T09:29:56Z</time>
      </trkpt>
      <trkpt lat="46.78863" lon="-2.08361">
        <ele>5.9</ele>
        <time>2020-06-04T09:29:57Z</time>
      </trkpt>
      <trkpt lat="46.78868" lon="-2.08362">
        <ele>5.9</ele>
        <time>2020-06-04T09:29:58Z</time>
      </trkpt>
      <trkpt lat="46.78872" lon="-2.08362">
        <ele>5.9</ele>
        <time>2020-06-04T09:29:59Z</time>
      </trkpt>
      <trkpt lat="46.78875" lon="-2.08365">
        <ele>5.9</ele>
        <time>2020-06-04T09:30:00Z</time>
      </trkpt>
      <trkpt lat="46.78878" lon="-2.08368">
        <ele>5.8</ele>
        <time>2020-06-04T09:30:01Z</time>
      </trkpt>
      <trkpt lat="46.78881" lon="-2.08371">
        <ele>5.8</ele>
        <time>2020-06-04T09:30:02Z</time>
      </trkpt>
      <trkpt lat="46.78884" lon="-2.08374">
        <ele>5.8</ele>
        <time>2020-06-04T09:30:03Z</time>
      </trkpt>
      <trkpt lat="46.78888" lon="-2.08374">
        <ele>5.8</ele>
        <time>2020-06-04T09:30:04Z</time>
      </trkpt>
      <trkpt lat="46.78889" lon="-2.08374">
        <ele>5.8</ele>
        <time>2020-06-04T09:30:05Z</time>
      </trkpt>
      <trkpt lat="46.78891" lon="-2.08375">
        <ele>5.8</ele>
        <time>2020-06-04T09:30:06Z</time>
      </trkpt>
      <trkpt lat="46.78895" lon="-2.08377">
        <ele>5.7</ele>
        <time>2020-06-04T09:30:07Z</time>
      </trkpt>
      <trkpt lat="46.78899" lon="-2.0838">
        <ele>5.7</ele>
        <time>2020-06-04T09:30:08Z</time>
      </trkpt>
      <trkpt lat="46.78905" lon="-2.08381">
        <ele>5.7</ele>
        <time>2020-06-04T09:30:09Z</time>
      </trkpt>
      <trkpt lat="46.78911" lon="-2.08382">
        <ele>5.6</ele>
        <time>2020-06-04T09:30:10Z</time>
      </trkpt>
      <trkpt lat="46.78915" lon="-2.08384">
        <ele>5.6</ele>
        <time>2020-06-04T09:30:11Z</time>
      </trkpt>
      <trkpt lat="46.7892" lon="-2.08389">
        <ele>5.6</ele>
        <time>2020-06-04T09:30:12Z</time>
      </trkpt>
      <trkpt lat="46.78923" lon="-2.08395">
        <ele>5.5</ele>
        <time>2020-06-04T09:30:13Z</time>
      </trkpt>
      <trkpt lat="46.78926" lon="-2.08404">
        <ele>5.5</ele>
        <time>2020-06-04T09:30:14Z</time>
      </trkpt>
      <trkpt lat="46.78925" lon="-2.08411">
        <ele>5.5</ele>
        <time>2020-06-04T09:30:15Z</time>
      </trkpt>
      <trkpt lat="46.78922" lon="-2.08416">
        <ele>5.5</ele>
        <time>2020-06-04T09:30:16Z</time>
      </trkpt>
      <trkpt lat="46.7892" lon="-2.08422">
        <ele>5.5</ele>
        <time>2020-06-04T09:30:17Z</time>
      </trkpt>
      <trkpt lat="46.78917" lon="-2.08426">
        <ele>5.5</ele>
        <time>2020-06-04T09:30:18Z</time>
      </trkpt>
      <trkpt lat="46.78915" lon="-2.0843">
        <ele>5.5</ele>
        <time>2020-06-04T09:30:19Z</time>
      </trkpt>
      <trkpt lat="46.78914" lon="-2.08434">
        <ele>5.5</ele>
        <time>2020-06-04T09:30:20Z</time>
      </trkpt>
      <trkpt lat="46.78913" lon="-2.08437">
        <ele>5.5</ele>
        <time>2020-06-04T09:30:21Z</time>
      </trkpt>
      <trkpt lat="46.78912" lon="-2.08442">
        <ele>5.5</ele>
        <time>2020-06-04T09:30:22Z</time>
      </trkpt>
      <trkpt lat="46.78912" lon="-2.08447">
        <ele>5.5</ele>
        <time>2020-06-04T09:30:23Z</time>
      </trkpt>
      <trkpt lat="46.78913" lon="-2.08449">
        <ele>5.5</ele>
        <time>2020-06-04T09:30:24Z</time>
      </trkpt>
      <trkpt lat="46.78912" lon="-2.08453">
        <ele>5.5</ele>
        <time>2020-06-04T09:30:25Z</time>
      </trkpt>
      <trkpt lat="46.78912" lon="-2.08454">
        <ele>5.5</ele>
        <time>2020-06-04T09:30:26Z</time>
      </trkpt>
      <trkpt lat="46.7891" lon="-2.08452">
        <ele>5.5</ele>
        <time>2020-06-04T09:30:27Z</time>
      </trkpt>
      <trkpt lat="46.78909" lon="-2.08451">
        <ele>5.5</ele>
        <time>2020-06-04T09:30:28Z</time>
      </trkpt>
      <trkpt lat="46.78909" lon="-2.08446">
        <ele>5.5</ele>
        <time>2020-06-04T09:30:29Z</time>
      </trkpt>
      <trkpt lat="46.78909" lon="-2.08445">
        <ele>5.5</ele>
        <time>2020-06-04T09:30:30Z</time>
      </trkpt>
      <trkpt lat="46.7891" lon="-2.08443">
        <ele>5.5</ele>
        <time>2020-06-04T09:30:31Z</time>
      </trkpt>
      <trkpt lat="46.78911" lon="-2.08441">
        <ele>5.5</ele>
        <time>2020-06-04T09:30:32Z</time>
      </trkpt>
      <trkpt lat="46.78911" lon="-2.08436">
        <ele>5.5</ele>
        <time>2020-06-04T09:30:33Z</time>
      </trkpt>
      <trkpt lat="46.78913" lon="-2.08431">
        <ele>5.5</ele>
        <time>2020-06-04T09:30:34Z</time>
      </trkpt>
      <trkpt lat="46.78913" lon="-2.08426">
        <ele>5.5</ele>
        <time>2020-06-04T09:30:35Z</time>
      </trkpt>
      <trkpt lat="46.78912" lon="-2.08422">
        <ele>5.5</ele>
        <time>2020-06-04T09:30:36Z</time>
      </trkpt>
      <trkpt lat="46.78911" lon="-2.08417">
        <ele>5.5</ele>
        <time>2020-06-04T09:30:37Z</time>
      </trkpt>
      <trkpt lat="46.78909" lon="-2.0841">
        <ele>5.5</ele>
        <time>2020-06-04T09:30:38Z</time>
      </trkpt>
      <trkpt lat="46.78908" lon="-2.08405">
        <ele>5.5</ele>
        <time>2020-06-04T09:30:39Z</time>
      </trkpt>
      <trkpt lat="46.78907" lon="-2.08399">
        <ele>5.5</ele>
        <time>2020-06-04T09:30:40Z</time>
      </trkpt>
      <trkpt lat="46.78908" lon="-2.08392">
        <ele>5.6</ele>
        <time>2020-06-04T09:30:41Z</time>
      </trkpt>
      <trkpt lat="46.78913" lon="-2.08386">
        <ele>5.6</ele>
        <time>2020-06-04T09:30:42Z</time>
      </trkpt>
      <trkpt lat="46.78917" lon="-2.08384">
        <ele>5.6</ele>
        <time>2020-06-04T09:30:43Z</time>
      </trkpt>
      <trkpt lat="46.78921" lon="-2.08381">
        <ele>5.6</ele>
        <time>2020-06-04T09:30:44Z</time>
      </trkpt>
      <trkpt lat="46.78924" lon="-2.08376">
        <ele>5.6</ele>
        <time>2020-06-04T09:30:45Z</time>
      </trkpt>
      <trkpt lat="46.78927" lon="-2.0837">
        <ele>5.6</ele>
        <time>2020-06-04T09:30:46Z</time>
      </trkpt>
      <trkpt lat="46.78931" lon="-2.08365">
        <ele>5.5</ele>
        <time>2020-06-04T09:30:47Z</time>
      </trkpt>
      <trkpt lat="46.78933" lon="-2.08359">
        <ele>5.5</ele>
        <time>2020-06-04T09:30:48Z</time>
      </trkpt>
      <trkpt lat="46.78935" lon="-2.08354">
        <ele>5.5</ele>
        <time>2020-06-04T09:30:49Z</time>
      </trkpt>
      <trkpt lat="46.78937" lon="-2.08349">
        <ele>5.5</ele>
        <time>2020-06-04T09:30:50Z</time>
      </trkpt>
      <trkpt lat="46.78938" lon="-2.08345">
        <ele>5.4</ele>
        <time>2020-06-04T09:30:51Z</time>
      </trkpt>
      <trkpt lat="46.7894" lon="-2.08345">
        <ele>5.4</ele>
        <time>2020-06-04T09:30:52Z</time>
      </trkpt>
      <trkpt lat="46.78941" lon="-2.08342">
        <ele>5.4</ele>
        <time>2020-06-04T09:30:53Z</time>
      </trkpt>
      <trkpt lat="46.78942" lon="-2.08338">
        <ele>5.4</ele>
        <time>2020-06-04T09:30:54Z</time>
      </trkpt>
      <trkpt lat="46.78942" lon="-2.08337">
        <ele>5.4</ele>
        <time>2020-06-04T09:30:55Z</time>
      </trkpt>
      <trkpt lat="46.78943" lon="-2.08335">
        <ele>5.4</ele>
        <time>2020-06-04T09:30:56Z</time>
      </trkpt>
      <trkpt lat="46.78945" lon="-2.08334">
        <ele>5.4</ele>
        <time>2020-06-04T09:30:57Z</time>
      </trkpt>
      <trkpt lat="46.78948" lon="-2.08332">
        <ele>5.4</ele>
        <time>2020-06-04T09:30:58Z</time>
      </trkpt>
      <trkpt lat="46.78949" lon="-2.08331">
        <ele>5.4</ele>
        <time>2020-06-04T09:30:59Z</time>
      </trkpt>
      <trkpt lat="46.7895" lon="-2.08328">
        <ele>5.3</ele>
        <time>2020-06-04T09:31:00Z</time>
      </trkpt>
      <trkpt lat="46.7895" lon="-2.08327">
        <ele>5.3</ele>
        <time>2020-06-04T09:31:01Z</time>
      </trkpt>
      <trkpt lat="46.7895" lon="-2.08325">
        <ele>5.3</ele>
        <time>2020-06-04T09:31:02Z</time>
      </trkpt>
      <trkpt lat="46.78951" lon="-2.08322">
        <ele>5.3</ele>
        <time>2020-06-04T09:31:03Z</time>
      </trkpt>
      <trkpt lat="46.78952" lon="-2.0832">
        <ele>5.3</ele>
        <time>2020-06-04T09:31:04Z</time>
      </trkpt>
      <trkpt lat="46.78952" lon="-2.08318">
        <ele>5.3</ele>
        <time>2020-06-04T09:31:05Z</time>
      </trkpt>
      <trkpt lat="46.78953" lon="-2.08317">
        <ele>5.3</ele>
        <time>2020-06-04T09:31:06Z</time>
      </trkpt>
      <trkpt lat="46.78953" lon="-2.08315">
        <ele>5.2</ele>
        <time>2020-06-04T09:31:07Z</time>
      </trkpt>
      <trkpt lat="46.78954" lon="-2.08314">
        <ele>5.2</ele>
        <time>2020-06-04T09:31:08Z</time>
      </trkpt>
      <trkpt lat="46.78954" lon="-2.08315">
        <ele>5.2</ele>
        <time>2020-06-04T09:31:09Z</time>
      </trkpt>
      <trkpt lat="46.78955" lon="-2.08315">
        <ele>5.2</ele>
        <time>2020-06-04T09:31:10Z</time>
      </trkpt>
      <trkpt lat="46.78955" lon="-2.08314">
        <ele>5.2</ele>
        <time>2020-06-04T09:31:11Z</time>
      </trkpt>
      <trkpt lat="46.78956" lon="-2.08313">
        <ele>5.2</ele>
        <time>2020-06-04T09:31:12Z</time>
      </trkpt>
      <trkpt lat="46.78956" lon="-2.08311">
        <ele>5.2</ele>
        <time>2020-06-04T09:31:13Z</time>
      </trkpt>
      <trkpt lat="46.78956" lon="-2.08309">
        <ele>5.1</ele>
        <time>2020-06-04T09:31:14Z</time>
      </trkpt>
      <trkpt lat="46.78957" lon="-2.08307">
        <ele>5.1</ele>
        <time>2020-06-04T09:31:15Z</time>
      </trkpt>
      <trkpt lat="46.78957" lon="-2.08306">
        <ele>5.1</ele>
        <time>2020-06-04T09:31:16Z</time>
      </trkpt>
      <trkpt lat="46.78957" lon="-2.08304">
        <ele>5.1</ele>
        <time>2020-06-04T09:31:17Z</time>
      </trkpt>
      <trkpt lat="46.78957" lon="-2.08303">
        <ele>5.1</ele>
        <time>2020-06-04T09:31:18Z</time>
      </trkpt>
      <trkpt lat="46.78959" lon="-2.08301">
        <ele>5.1</ele>
        <time>2020-06-04T09:31:19Z</time>
      </trkpt>
      <trkpt lat="46.7896" lon="-2.083">
        <ele>5.1</ele>
        <time>2020-06-04T09:31:20Z</time>
      </trkpt>
      <trkpt lat="46.78962" lon="-2.08298">
        <ele>5</ele>
        <time>2020-06-04T09:31:21Z</time>
      </trkpt>
      <trkpt lat="46.78963" lon="-2.08298">
        <ele>5</ele>
        <time>2020-06-04T09:31:22Z</time>
      </trkpt>
      <trkpt lat="46.78965" lon="-2.08299">
        <ele>5</ele>
        <time>2020-06-04T09:31:23Z</time>
      </trkpt>
      <trkpt lat="46.78966" lon="-2.08298">
        <ele>5</ele>
        <time>2020-06-04T09:31:24Z</time>
      </trkpt>
      <trkpt lat="46.78969" lon="-2.08294">
        <ele>5</ele>
        <time>2020-06-04T09:31:25Z</time>
      </trkpt>
      <trkpt lat="46.78969" lon="-2.08293">
        <ele>4.9</ele>
        <time>2020-06-04T09:31:26Z</time>
      </trkpt>
      <trkpt lat="46.78971" lon="-2.0829">
        <ele>4.9</ele>
        <time>2020-06-04T09:31:27Z</time>
      </trkpt>
      <trkpt lat="46.78973" lon="-2.08289">
        <ele>4.9</ele>
        <time>2020-06-04T09:31:28Z</time>
      </trkpt>
      <trkpt lat="46.78974" lon="-2.0829">
        <ele>4.9</ele>
        <time>2020-06-04T09:31:29Z</time>
      </trkpt>
      <trkpt lat="46.78976" lon="-2.08292">
        <ele>4.9</ele>
        <time>2020-06-04T09:31:30Z</time>
      </trkpt>
      <trkpt lat="46.78977" lon="-2.08292">
        <ele>4.8</ele>
        <time>2020-06-04T09:31:31Z</time>
      </trkpt>
      <trkpt lat="46.78978" lon="-2.08291">
        <ele>4.8</ele>
        <time>2020-06-04T09:31:32Z</time>
      </trkpt>
      <trkpt lat="46.78978" lon="-2.0829">
        <ele>4.8</ele>
        <time>2020-06-04T09:31:33Z</time>
      </trkpt>
      <trkpt lat="46.78979" lon="-2.08288">
        <ele>4.8</ele>
        <time>2020-06-04T09:31:34Z</time>
      </trkpt>
      <trkpt lat="46.78979" lon="-2.08287">
        <ele>4.8</ele>
        <time>2020-06-04T09:31:35Z</time>
      </trkpt>
      <trkpt lat="46.78979" lon="-2.08286">
        <ele>4.8</ele>
        <time>2020-06-04T09:31:36Z</time>
      </trkpt>
      <trkpt lat="46.7898" lon="-2.08286">
        <ele>4.8</ele>
        <time>2020-06-04T09:31:37Z</time>
      </trkpt>
      <trkpt lat="46.7898" lon="-2.08286">
        <ele>4.8</ele>
        <time>2020-06-04T09:31:38Z</time>
      </trkpt>
      <trkpt lat="46.7898" lon="-2.08286">
        <ele>4.8</ele>
        <time>2020-06-04T09:31:39Z</time>
      </trkpt>
      <trkpt lat="46.78981" lon="-2.08285">
        <ele>4.8</ele>
        <time>2020-06-04T09:31:40Z</time>
      </trkpt>
      <trkpt lat="46.78981" lon="-2.08285">
        <ele>4.8</ele>
        <time>2020-06-04T09:31:41Z</time>
      </trkpt>
      <trkpt lat="46.78981" lon="-2.08285">
        <ele>4.8</ele>
        <time>2020-06-04T09:31:42Z</time>
      </trkpt>
      <trkpt lat="46.78982" lon="-2.08285">
        <ele>4.8</ele>
        <time>2020-06-04T09:31:43Z</time>
      </trkpt>
      <trkpt lat="46.78982" lon="-2.08284">
        <ele>4.8</ele>
        <time>2020-06-04T09:31:44Z</time>
      </trkpt>
      <trkpt lat="46.78986" lon="-2.08285">
        <ele>4.7</ele>
        <time>2020-06-04T09:31:45Z</time>
      </trkpt>
      <trkpt lat="46.78988" lon="-2.08286">
        <ele>4.7</ele>
        <time>2020-06-04T09:31:46Z</time>
      </trkpt>
      <trkpt lat="46.78993" lon="-2.08288">
        <ele>4.6</ele>
        <time>2020-06-04T09:31:47Z</time>
      </trkpt>
      <trkpt lat="46.78998" lon="-2.08292">
        <ele>4.6</ele>
        <time>2020-06-04T09:31:48Z</time>
      </trkpt>
      <trkpt lat="46.79002" lon="-2.08295">
        <ele>4.5</ele>
        <time>2020-06-04T09:31:49Z</time>
      </trkpt>
      <trkpt lat="46.79007" lon="-2.08298">
        <ele>4.5</ele>
        <time>2020-06-04T09:31:50Z</time>
      </trkpt>
      <trkpt lat="46.79011" lon="-2.08301">
        <ele>4.5</ele>
        <time>2020-06-04T09:31:51Z</time>
      </trkpt>
      <trkpt lat="46.79015" lon="-2.08304">
        <ele>4.4</ele>
        <time>2020-06-04T09:31:52Z</time>
      </trkpt>
      <trkpt lat="46.7902" lon="-2.08306">
        <ele>4.4</ele>
        <time>2020-06-04T09:31:53Z</time>
      </trkpt>
      <trkpt lat="46.79024" lon="-2.08309">
        <ele>4.3</ele>
        <time>2020-06-04T09:31:54Z</time>
      </trkpt>
      <trkpt lat="46.79028" lon="-2.08314">
        <ele>4.3</ele>
        <time>2020-06-04T09:31:55Z</time>
      </trkpt>
      <trkpt lat="46.79033" lon="-2.08317">
        <ele>4.3</ele>
        <time>2020-06-04T09:31:56Z</time>
      </trkpt>
      <trkpt lat="46.79037" lon="-2.0832">
        <ele>4.2</ele>
        <time>2020-06-04T09:31:57Z</time>
      </trkpt>
      <trkpt lat="46.79039" lon="-2.08323">
        <ele>4.2</ele>
        <time>2020-06-04T09:31:58Z</time>
      </trkpt>
      <trkpt lat="46.79044" lon="-2.08323">
        <ele>4.1</ele>
        <time>2020-06-04T09:31:59Z</time>
      </trkpt>
      <trkpt lat="46.79049" lon="-2.08322">
        <ele>4.1</ele>
        <time>2020-06-04T09:32:00Z</time>
      </trkpt>
      <trkpt lat="46.79052" lon="-2.08317">
        <ele>4.1</ele>
        <time>2020-06-04T09:32:01Z</time>
      </trkpt>
      <trkpt lat="46.79057" lon="-2.08313">
        <ele>4</ele>
        <time>2020-06-04T09:32:02Z</time>
      </trkpt>
      <trkpt lat="46.79061" lon="-2.08309">
        <ele>4</ele>
        <time>2020-06-04T09:32:03Z</time>
      </trkpt>
      <trkpt lat="46.79065" lon="-2.08306">
        <ele>4</ele>
        <time>2020-06-04T09:32:04Z</time>
      </trkpt>
      <trkpt lat="46.79069" lon="-2.08303">
        <ele>3.9</ele>
        <time>2020-06-04T09:32:05Z</time>
      </trkpt>
      <trkpt lat="46.79073" lon="-2.08299">
        <ele>3.9</ele>
        <time>2020-06-04T09:32:06Z</time>
      </trkpt>
      <trkpt lat="46.79078" lon="-2.08295">
        <ele>3.8</ele>
        <time>2020-06-04T09:32:07Z</time>
      </trkpt>
      <trkpt lat="46.79082" lon="-2.0829">
        <ele>3.7</ele>
        <time>2020-06-04T09:32:08Z</time>
      </trkpt>
      <trkpt lat="46.79086" lon="-2.08285">
        <ele>3.7</ele>
        <time>2020-06-04T09:32:09Z</time>
      </trkpt>
      <trkpt lat="46.79091" lon="-2.08281">
        <ele>3.6</ele>
        <time>2020-06-04T09:32:10Z</time>
      </trkpt>
      <trkpt lat="46.79095" lon="-2.08276">
        <ele>3.6</ele>
        <time>2020-06-04T09:32:11Z</time>
      </trkpt>
      <trkpt lat="46.791" lon="-2.0827">
        <ele>3.6</ele>
        <time>2020-06-04T09:32:12Z</time>
      </trkpt>
      <trkpt lat="46.79103" lon="-2.08265">
        <ele>3.6</ele>
        <time>2020-06-04T09:32:13Z</time>
      </trkpt>
      <trkpt lat="46.79108" lon="-2.08259">
        <ele>3.5</ele>
        <time>2020-06-04T09:32:14Z</time>
      </trkpt>
      <trkpt lat="46.7911" lon="-2.08254">
        <ele>3.5</ele>
        <time>2020-06-04T09:32:15Z</time>
      </trkpt>
      <trkpt lat="46.79113" lon="-2.08248">
        <ele>3.5</ele>
        <time>2020-06-04T09:32:16Z</time>
      </trkpt>
      <trkpt lat="46.79116" lon="-2.08242">
        <ele>3.5</ele>
        <time>2020-06-04T09:32:17Z</time>
      </trkpt>
      <trkpt lat="46.79119" lon="-2.08237">
        <ele>3.5</ele>
        <time>2020-06-04T09:32:18Z</time>
      </trkpt>
      <trkpt lat="46.79121" lon="-2.08232">
        <ele>3.5</ele>
        <time>2020-06-04T09:32:19Z</time>
      </trkpt>
      <trkpt lat="46.79124" lon="-2.08227">
        <ele>3.5</ele>
        <time>2020-06-04T09:32:20Z</time>
      </trkpt>
      <trkpt lat="46.79127" lon="-2.08222">
        <ele>3.4</ele>
        <time>2020-06-04T09:32:21Z</time>
      </trkpt>
      <trkpt lat="46.7913" lon="-2.08217">
        <ele>3.4</ele>
        <time>2020-06-04T09:32:22Z</time>
      </trkpt>
      <trkpt lat="46.79132" lon="-2.08212">
        <ele>3.4</ele>
        <time>2020-06-04T09:32:23Z</time>
      </trkpt>
      <trkpt lat="46.79135" lon="-2.08207">
        <ele>3.4</ele>
        <time>2020-06-04T09:32:24Z</time>
      </trkpt>
      <trkpt lat="46.79138" lon="-2.08202">
        <ele>3.5</ele>
        <time>2020-06-04T09:32:25Z</time>
      </trkpt>
      <trkpt lat="46.7914" lon="-2.08198">
        <ele>3.5</ele>
        <time>2020-06-04T09:32:26Z</time>
      </trkpt>
      <trkpt lat="46.79142" lon="-2.08194">
        <ele>3.5</ele>
        <time>2020-06-04T09:32:27Z</time>
      </trkpt>
      <trkpt lat="46.79144" lon="-2.08188">
        <ele>3.5</ele>
        <time>2020-06-04T09:32:28Z</time>
      </trkpt>
      <trkpt lat="46.79147" lon="-2.08184">
        <ele>3.5</ele>
        <time>2020-06-04T09:32:29Z</time>
      </trkpt>
      <trkpt lat="46.79149" lon="-2.08179">
        <ele>3.6</ele>
        <time>2020-06-04T09:32:30Z</time>
      </trkpt>
      <trkpt lat="46.79151" lon="-2.08175">
        <ele>3.6</ele>
        <time>2020-06-04T09:32:31Z</time>
      </trkpt>
      <trkpt lat="46.79153" lon="-2.08172">
        <ele>3.7</ele>
        <time>2020-06-04T09:32:32Z</time>
      </trkpt>
      <trkpt lat="46.79155" lon="-2.08172">
        <ele>3.7</ele>
        <time>2020-06-04T09:32:33Z</time>
      </trkpt>
      <trkpt lat="46.79157" lon="-2.08172">
        <ele>3.7</ele>
        <time>2020-06-04T09:32:34Z</time>
      </trkpt>
      <trkpt lat="46.7916" lon="-2.08174">
        <ele>3.7</ele>
        <time>2020-06-04T09:32:35Z</time>
      </trkpt>
      <trkpt lat="46.79161" lon="-2.08175">
        <ele>3.7</ele>
        <time>2020-06-04T09:32:36Z</time>
      </trkpt>
      <trkpt lat="46.79164" lon="-2.08176">
        <ele>3.7</ele>
        <time>2020-06-04T09:32:37Z</time>
      </trkpt>
      <trkpt lat="46.79165" lon="-2.08176">
        <ele>3.7</ele>
        <time>2020-06-04T09:32:38Z</time>
      </trkpt>
      <trkpt lat="46.79168" lon="-2.08177">
        <ele>3.7</ele>
        <time>2020-06-04T09:32:39Z</time>
      </trkpt>
      <trkpt lat="46.79169" lon="-2.08177">
        <ele>3.7</ele>
        <time>2020-06-04T09:32:40Z</time>
      </trkpt>
      <trkpt lat="46.7917" lon="-2.08177">
        <ele>3.7</ele>
        <time>2020-06-04T09:32:41Z</time>
      </trkpt>
      <trkpt lat="46.7917" lon="-2.08178">
        <ele>3.7</ele>
        <time>2020-06-04T09:32:42Z</time>
      </trkpt>
      <trkpt lat="46.7917" lon="-2.08178">
        <ele>3.7</ele>
        <time>2020-06-04T09:32:43Z</time>
      </trkpt>
      <trkpt lat="46.7917" lon="-2.08177">
        <ele>3.7</ele>
        <time>2020-06-04T09:32:44Z</time>
      </trkpt>
      <trkpt lat="46.7917" lon="-2.08176">
        <ele>3.7</ele>
        <time>2020-06-04T09:32:45Z</time>
      </trkpt>
      <trkpt lat="46.79171" lon="-2.08174">
        <ele>3.8</ele>
        <time>2020-06-04T09:32:46Z</time>
      </trkpt>
      <trkpt lat="46.79171" lon="-2.08172">
        <ele>3.8</ele>
        <time>2020-06-04T09:32:47Z</time>
      </trkpt>
      <trkpt lat="46.79173" lon="-2.08168">
        <ele>3.8</ele>
        <time>2020-06-04T09:32:48Z</time>
      </trkpt>
      <trkpt lat="46.79173" lon="-2.08167">
        <ele>3.8</ele>
        <time>2020-06-04T09:32:49Z</time>
      </trkpt>
      <trkpt lat="46.79174" lon="-2.08162">
        <ele>3.8</ele>
        <time>2020-06-04T09:32:50Z</time>
      </trkpt>
      <trkpt lat="46.79175" lon="-2.0816">
        <ele>3.8</ele>
        <time>2020-06-04T09:32:51Z</time>
      </trkpt>
      <trkpt lat="46.79176" lon="-2.08155">
        <ele>3.8</ele>
        <time>2020-06-04T09:32:52Z</time>
      </trkpt>
      <trkpt lat="46.79177" lon="-2.0815">
        <ele>3.7</ele>
        <time>2020-06-04T09:32:53Z</time>
      </trkpt>
      <trkpt lat="46.79177" lon="-2.08149">
        <ele>3.7</ele>
        <time>2020-06-04T09:32:54Z</time>
      </trkpt>
      <trkpt lat="46.79178" lon="-2.08147">
        <ele>3.7</ele>
        <time>2020-06-04T09:32:55Z</time>
      </trkpt>
      <trkpt lat="46.79179" lon="-2.08145">
        <ele>3.7</ele>
        <time>2020-06-04T09:32:56Z</time>
      </trkpt>
      <trkpt lat="46.79179" lon="-2.08144">
        <ele>3.7</ele>
        <time>2020-06-04T09:32:57Z</time>
      </trkpt>
      <trkpt lat="46.7918" lon="-2.08144">
        <ele>3.7</ele>
        <time>2020-06-04T09:32:58Z</time>
      </trkpt>
      <trkpt lat="46.7918" lon="-2.08144">
        <ele>3.7</ele>
        <time>2020-06-04T09:32:59Z</time>
      </trkpt>
      <trkpt lat="46.7918" lon="-2.08144">
        <ele>3.7</ele>
        <time>2020-06-04T09:33:00Z</time>
      </trkpt>
      <trkpt lat="46.79181" lon="-2.08144">
        <ele>3.7</ele>
        <time>2020-06-04T09:33:01Z</time>
      </trkpt>
      <trkpt lat="46.7918" lon="-2.08144">
        <ele>3.7</ele>
        <time>2020-06-04T09:33:02Z</time>
      </trkpt>
      <trkpt lat="46.79181" lon="-2.08142">
        <ele>3.8</ele>
        <time>2020-06-04T09:33:03Z</time>
      </trkpt>
      <trkpt lat="46.79181" lon="-2.08142">
        <ele>3.8</ele>
        <time>2020-06-04T09:33:04Z</time>
      </trkpt>
      <trkpt lat="46.7918" lon="-2.08142">
        <ele>3.8</ele>
        <time>2020-06-04T09:33:05Z</time>
      </trkpt>
      <trkpt lat="46.7918" lon="-2.08142">
        <ele>3.8</ele>
        <time>2020-06-04T09:33:06Z</time>
      </trkpt>
      <trkpt lat="46.79179" lon="-2.08141">
        <ele>3.8</ele>
        <time>2020-06-04T09:33:07Z</time>
      </trkpt>
      <trkpt lat="46.79179" lon="-2.08141">
        <ele>3.8</ele>
        <time>2020-06-04T09:33:08Z</time>
      </trkpt>
      <trkpt lat="46.79179" lon="-2.0814">
        <ele>3.8</ele>
        <time>2020-06-04T09:33:09Z</time>
      </trkpt>
      <trkpt lat="46.79179" lon="-2.0814">
        <ele>3.8</ele>
        <time>2020-06-04T09:33:10Z</time>
      </trkpt>
      <trkpt lat="46.7918" lon="-2.08141">
        <ele>3.8</ele>
        <time>2020-06-04T09:33:11Z</time>
      </trkpt>
      <trkpt lat="46.7918" lon="-2.0814">
        <ele>3.8</ele>
        <time>2020-06-04T09:33:12Z</time>
      </trkpt>
      <trkpt lat="46.79181" lon="-2.08139">
        <ele>3.8</ele>
        <time>2020-06-04T09:33:13Z</time>
      </trkpt>
      <trkpt lat="46.79183" lon="-2.08137">
        <ele>3.8</ele>
        <time>2020-06-04T09:33:14Z</time>
      </trkpt>
      <trkpt lat="46.79185" lon="-2.08136">
        <ele>3.8</ele>
        <time>2020-06-04T09:34:09Z</time>
      </trkpt>
      <trkpt lat="46.79187" lon="-2.08134">
        <ele>3.8</ele>
        <time>2020-06-04T09:34:10Z</time>
      </trkpt>
      <trkpt lat="46.79189" lon="-2.08133">
        <ele>3.8</ele>
        <time>2020-06-04T09:34:11Z</time>
      </trkpt>
      <trkpt lat="46.7919" lon="-2.08129">
        <ele>3.8</ele>
        <time>2020-06-04T09:34:12Z</time>
      </trkpt>
      <trkpt lat="46.7919" lon="-2.08127">
        <ele>3.8</ele>
        <time>2020-06-04T09:34:13Z</time>
      </trkpt>
      <trkpt lat="46.79192" lon="-2.08122">
        <ele>3.8</ele>
        <time>2020-06-04T09:34:14Z</time>
      </trkpt>
      <trkpt lat="46.79193" lon="-2.0812">
        <ele>3.9</ele>
        <time>2020-06-04T09:34:15Z</time>
      </trkpt>
      <trkpt lat="46.79194" lon="-2.08116">
        <ele>3.9</ele>
        <time>2020-06-04T09:34:16Z</time>
      </trkpt>
      <trkpt lat="46.79194" lon="-2.08115">
        <ele>3.9</ele>
        <time>2020-06-04T09:34:17Z</time>
      </trkpt>
      <trkpt lat="46.79194" lon="-2.08114">
        <ele>3.9</ele>
        <time>2020-06-04T09:34:18Z</time>
      </trkpt>
      <trkpt lat="46.79195" lon="-2.08111">
        <ele>3.9</ele>
        <time>2020-06-04T09:34:19Z</time>
      </trkpt>
      <trkpt lat="46.79197" lon="-2.08105">
        <ele>3.9</ele>
        <time>2020-06-04T09:34:20Z</time>
      </trkpt>
      <trkpt lat="46.792" lon="-2.08099">
        <ele>4</ele>
        <time>2020-06-04T09:34:21Z</time>
      </trkpt>
      <trkpt lat="46.79203" lon="-2.08096">
        <ele>4</ele>
        <time>2020-06-04T09:34:22Z</time>
      </trkpt>
      <trkpt lat="46.79206" lon="-2.08092">
        <ele>4</ele>
        <time>2020-06-04T09:34:23Z</time>
      </trkpt>
      <trkpt lat="46.79209" lon="-2.08089">
        <ele>4</ele>
        <time>2020-06-04T09:34:24Z</time>
      </trkpt>
      <trkpt lat="46.79211" lon="-2.08085">
        <ele>4.1</ele>
        <time>2020-06-04T09:34:25Z</time>
      </trkpt>
      <trkpt lat="46.79214" lon="-2.08083">
        <ele>4.1</ele>
        <time>2020-06-04T09:34:26Z</time>
      </trkpt>
      <trkpt lat="46.79217" lon="-2.08082">
        <ele>4.1</ele>
        <time>2020-06-04T09:34:27Z</time>
      </trkpt>
      <trkpt lat="46.7922" lon="-2.08078">
        <ele>4.1</ele>
        <time>2020-06-04T09:34:28Z</time>
      </trkpt>
      <trkpt lat="46.79223" lon="-2.08075">
        <ele>4.1</ele>
        <time>2020-06-04T09:34:29Z</time>
      </trkpt>
      <trkpt lat="46.79226" lon="-2.08071">
        <ele>4.1</ele>
        <time>2020-06-04T09:34:30Z</time>
      </trkpt>
      <trkpt lat="46.7923" lon="-2.08068">
        <ele>4.1</ele>
        <time>2020-06-04T09:34:31Z</time>
      </trkpt>
      <trkpt lat="46.79233" lon="-2.08065">
        <ele>4.1</ele>
        <time>2020-06-04T09:34:32Z</time>
      </trkpt>
      <trkpt lat="46.79236" lon="-2.08062">
        <ele>4.1</ele>
        <time>2020-06-04T09:34:33Z</time>
      </trkpt>
      <trkpt lat="46.79238" lon="-2.0806">
        <ele>4.1</ele>
        <time>2020-06-04T09:34:34Z</time>
      </trkpt>
      <trkpt lat="46.79241" lon="-2.08057">
        <ele>4.1</ele>
        <time>2020-06-04T09:34:35Z</time>
      </trkpt>
      <trkpt lat="46.79242" lon="-2.08056">
        <ele>4.1</ele>
        <time>2020-06-04T09:34:36Z</time>
      </trkpt>
      <trkpt lat="46.79244" lon="-2.08052">
        <ele>4</ele>
        <time>2020-06-04T09:34:37Z</time>
      </trkpt>
      <trkpt lat="46.79245" lon="-2.08051">
        <ele>4</ele>
        <time>2020-06-04T09:34:38Z</time>
      </trkpt>
      <trkpt lat="46.79247" lon="-2.08048">
        <ele>4</ele>
        <time>2020-06-04T09:34:39Z</time>
      </trkpt>
      <trkpt lat="46.79251" lon="-2.08044">
        <ele>4</ele>
        <time>2020-06-04T09:34:40Z</time>
      </trkpt>
      <trkpt lat="46.79254" lon="-2.08042">
        <ele>4</ele>
        <time>2020-06-04T09:34:41Z</time>
      </trkpt>
      <trkpt lat="46.79256" lon="-2.08041">
        <ele>4</ele>
        <time>2020-06-04T09:34:42Z</time>
      </trkpt>
      <trkpt lat="46.7926" lon="-2.08039">
        <ele>3.9</ele>
        <time>2020-06-04T09:34:43Z</time>
      </trkpt>
      <trkpt lat="46.79263" lon="-2.08038">
        <ele>3.9</ele>
        <time>2020-06-04T09:34:44Z</time>
      </trkpt>
      <trkpt lat="46.79266" lon="-2.08036">
        <ele>3.9</ele>
        <time>2020-06-04T09:34:45Z</time>
      </trkpt>
      <trkpt lat="46.79269" lon="-2.08034">
        <ele>3.9</ele>
        <time>2020-06-04T09:34:46Z</time>
      </trkpt>
      <trkpt lat="46.79272" lon="-2.08031">
        <ele>3.9</ele>
        <time>2020-06-04T09:34:47Z</time>
      </trkpt>
      <trkpt lat="46.79276" lon="-2.08028">
        <ele>3.9</ele>
        <time>2020-06-04T09:34:48Z</time>
      </trkpt>
      <trkpt lat="46.79279" lon="-2.08025">
        <ele>3.9</ele>
        <time>2020-06-04T09:34:49Z</time>
      </trkpt>
      <trkpt lat="46.79282" lon="-2.0802">
        <ele>3.9</ele>
        <time>2020-06-04T09:34:50Z</time>
      </trkpt>
      <trkpt lat="46.79284" lon="-2.08015">
        <ele>3.9</ele>
        <time>2020-06-04T09:34:51Z</time>
      </trkpt>
      <trkpt lat="46.79285" lon="-2.0801">
        <ele>4</ele>
        <time>2020-06-04T09:34:52Z</time>
      </trkpt>
      <trkpt lat="46.79287" lon="-2.08005">
        <ele>4</ele>
        <time>2020-06-04T09:34:53Z</time>
      </trkpt>
      <trkpt lat="46.7929" lon="-2.08">
        <ele>4</ele>
        <time>2020-06-04T09:34:54Z</time>
      </trkpt>
      <trkpt lat="46.79292" lon="-2.07996">
        <ele>4</ele>
        <time>2020-06-04T09:34:55Z</time>
      </trkpt>
      <trkpt lat="46.79293" lon="-2.07992">
        <ele>4</ele>
        <time>2020-06-04T09:34:56Z</time>
      </trkpt>
      <trkpt lat="46.79294" lon="-2.07992">
        <ele>4</ele>
        <time>2020-06-04T09:34:57Z</time>
      </trkpt>
      <trkpt lat="46.79295" lon="-2.07991">
        <ele>4</ele>
        <time>2020-06-04T09:34:58Z</time>
      </trkpt>
      <trkpt lat="46.79297" lon="-2.07991">
        <ele>4</ele>
        <time>2020-06-04T09:34:59Z</time>
      </trkpt>
      <trkpt lat="46.79298" lon="-2.07991">
        <ele>4</ele>
        <time>2020-06-04T09:35:00Z</time>
      </trkpt>
      <trkpt lat="46.79298" lon="-2.07991">
        <ele>4</ele>
        <time>2020-06-04T09:35:01Z</time>
      </trkpt>
      <trkpt lat="46.79298" lon="-2.07991">
        <ele>4</ele>
        <time>2020-06-04T09:35:02Z</time>
      </trkpt>
      <trkpt lat="46.79299" lon="-2.07991">
        <ele>4</ele>
        <time>2020-06-04T09:35:03Z</time>
      </trkpt>
      <trkpt lat="46.79299" lon="-2.07991">
        <ele>4</ele>
        <time>2020-06-04T09:35:04Z</time>
      </trkpt>
      <trkpt lat="46.79299" lon="-2.07992">
        <ele>4</ele>
        <time>2020-06-04T09:35:05Z</time>
      </trkpt>
      <trkpt lat="46.79299" lon="-2.07993">
        <ele>3.9</ele>
        <time>2020-06-04T09:35:06Z</time>
      </trkpt>
      <trkpt lat="46.79299" lon="-2.07994">
        <ele>3.9</ele>
        <time>2020-06-04T09:35:07Z</time>
      </trkpt>
      <trkpt lat="46.79299" lon="-2.07994">
        <ele>3.9</ele>
        <time>2020-06-04T09:35:08Z</time>
      </trkpt>
      <trkpt lat="46.79298" lon="-2.07995">
        <ele>3.9</ele>
        <time>2020-06-04T09:35:09Z</time>
      </trkpt>
      <trkpt lat="46.79299" lon="-2.07995">
        <ele>3.9</ele>
        <time>2020-06-04T09:35:10Z</time>
      </trkpt>
      <trkpt lat="46.79299" lon="-2.07994">
        <ele>3.9</ele>
        <time>2020-06-04T09:35:11Z</time>
      </trkpt>
      <trkpt lat="46.79299" lon="-2.07993">
        <ele>3.9</ele>
        <time>2020-06-04T09:35:12Z</time>
      </trkpt>
      <trkpt lat="46.79299" lon="-2.07992">
        <ele>3.9</ele>
        <time>2020-06-04T09:35:13Z</time>
      </trkpt>
      <trkpt lat="46.79299" lon="-2.07992">
        <ele>3.9</ele>
        <time>2020-06-04T09:35:14Z</time>
      </trkpt>
      <trkpt lat="46.79298" lon="-2.07992">
        <ele>3.9</ele>
        <time>2020-06-04T09:35:15Z</time>
      </trkpt>
      <trkpt lat="46.79298" lon="-2.07991">
        <ele>3.9</ele>
        <time>2020-06-04T09:35:16Z</time>
      </trkpt>
      <trkpt lat="46.79297" lon="-2.07991">
        <ele>3.9</ele>
        <time>2020-06-04T09:35:17Z</time>
      </trkpt>
      <trkpt lat="46.79296" lon="-2.0799">
        <ele>3.9</ele>
        <time>2020-06-04T09:35:18Z</time>
      </trkpt>
      <trkpt lat="46.79296" lon="-2.07991">
        <ele>3.9</ele>
        <time>2020-06-04T09:35:19Z</time>
      </trkpt>
      <trkpt lat="46.79296" lon="-2.07991">
        <ele>3.9</ele>
        <time>2020-06-04T09:35:20Z</time>
      </trkpt>
      <trkpt lat="46.79295" lon="-2.07991">
        <ele>3.9</ele>
        <time>2020-06-04T09:35:21Z</time>
      </trkpt>
      <trkpt lat="46.79295" lon="-2.07993">
        <ele>3.9</ele>
        <time>2020-06-04T09:35:22Z</time>
      </trkpt>
      <trkpt lat="46.79296" lon="-2.07994">
        <ele>3.9</ele>
        <time>2020-06-04T09:35:23Z</time>
      </trkpt>
      <trkpt lat="46.79297" lon="-2.07995">
        <ele>3.9</ele>
        <time>2020-06-04T09:35:24Z</time>
      </trkpt>
      <trkpt lat="46.79297" lon="-2.07995">
        <ele>3.9</ele>
        <time>2020-06-04T09:35:25Z</time>
      </trkpt>
      <trkpt lat="46.79297" lon="-2.07995">
        <ele>3.9</ele>
        <time>2020-06-04T09:35:26Z</time>
      </trkpt>
      <trkpt lat="46.79297" lon="-2.07995">
        <ele>3.9</ele>
        <time>2020-06-04T09:35:27Z</time>
      </trkpt>
      <trkpt lat="46.79297" lon="-2.07995">
        <ele>3.9</ele>
        <time>2020-06-04T09:35:28Z</time>
      </trkpt>
      <trkpt lat="46.79316" lon="-2.07994">
        <ele>3.9</ele>
        <time>2020-06-04T09:42:48Z</time>
      </trkpt>
      <trkpt lat="46.79316" lon="-2.07993">
        <ele>3.9</ele>
        <time>2020-06-04T09:42:49Z</time>
      </trkpt>
      <trkpt lat="46.79318" lon="-2.07991">
        <ele>3.9</ele>
        <time>2020-06-04T09:42:50Z</time>
      </trkpt>
      <trkpt lat="46.7932" lon="-2.07987">
        <ele>3.9</ele>
        <time>2020-06-04T09:42:51Z</time>
      </trkpt>
      <trkpt lat="46.79321" lon="-2.07985">
        <ele>3.9</ele>
        <time>2020-06-04T09:42:52Z</time>
      </trkpt>
      <trkpt lat="46.79323" lon="-2.07982">
        <ele>3.9</ele>
        <time>2020-06-04T09:42:53Z</time>
      </trkpt>
      <trkpt lat="46.79326" lon="-2.07977">
        <ele>3.9</ele>
        <time>2020-06-04T09:42:54Z</time>
      </trkpt>
      <trkpt lat="46.79328" lon="-2.07971">
        <ele>4</ele>
        <time>2020-06-04T09:42:55Z</time>
      </trkpt>
      <trkpt lat="46.7933" lon="-2.07966">
        <ele>4</ele>
        <time>2020-06-04T09:42:56Z</time>
      </trkpt>
      <trkpt lat="46.79332" lon="-2.07961">
        <ele>4</ele>
        <time>2020-06-04T09:42:57Z</time>
      </trkpt>
      <trkpt lat="46.79333" lon="-2.07956">
        <ele>4</ele>
        <time>2020-06-04T09:42:58Z</time>
      </trkpt>
      <trkpt lat="46.79335" lon="-2.07953">
        <ele>4.1</ele>
        <time>2020-06-04T09:42:59Z</time>
      </trkpt>
      <trkpt lat="46.79337" lon="-2.0795">
        <ele>4.1</ele>
        <time>2020-06-04T09:43:00Z</time>
      </trkpt>
      <trkpt lat="46.79339" lon="-2.07946">
        <ele>4.1</ele>
        <time>2020-06-04T09:43:01Z</time>
      </trkpt>
      <trkpt lat="46.79342" lon="-2.07945">
        <ele>4.2</ele>
        <time>2020-06-04T09:43:02Z</time>
      </trkpt>
      <trkpt lat="46.79346" lon="-2.07942">
        <ele>4.2</ele>
        <time>2020-06-04T09:43:03Z</time>
      </trkpt>
      <trkpt lat="46.7935" lon="-2.0794">
        <ele>4.3</ele>
        <time>2020-06-04T09:43:04Z</time>
      </trkpt>
      <trkpt lat="46.79353" lon="-2.07937">
        <ele>4.3</ele>
        <time>2020-06-04T09:43:05Z</time>
      </trkpt>
      <trkpt lat="46.79357" lon="-2.07934">
        <ele>4.4</ele>
        <time>2020-06-04T09:43:06Z</time>
      </trkpt>
      <trkpt lat="46.7936" lon="-2.07931">
        <ele>4.4</ele>
        <time>2020-06-04T09:43:07Z</time>
      </trkpt>
      <trkpt lat="46.79364" lon="-2.0793">
        <ele>4.5</ele>
        <time>2020-06-04T09:43:08Z</time>
      </trkpt>
      <trkpt lat="46.79369" lon="-2.07928">
        <ele>4.5</ele>
        <time>2020-06-04T09:43:09Z</time>
      </trkpt>
      <trkpt lat="46.79372" lon="-2.07926">
        <ele>4.6</ele>
        <time>2020-06-04T09:43:10Z</time>
      </trkpt>
      <trkpt lat="46.79376" lon="-2.07925">
        <ele>4.6</ele>
        <time>2020-06-04T09:43:11Z</time>
      </trkpt>
      <trkpt lat="46.7938" lon="-2.07923">
        <ele>4.6</ele>
        <time>2020-06-04T09:43:12Z</time>
      </trkpt>
      <trkpt lat="46.79385" lon="-2.07921">
        <ele>4.7</ele>
        <time>2020-06-04T09:43:13Z</time>
      </trkpt>
      <trkpt lat="46.79389" lon="-2.07918">
        <ele>4.7</ele>
        <time>2020-06-04T09:43:14Z</time>
      </trkpt>
      <trkpt lat="46.79394" lon="-2.07913">
        <ele>4.7</ele>
        <time>2020-06-04T09:43:15Z</time>
      </trkpt>
      <trkpt lat="46.79399" lon="-2.07909">
        <ele>4.7</ele>
        <time>2020-06-04T09:43:16Z</time>
      </trkpt>
      <trkpt lat="46.79403" lon="-2.07905">
        <ele>4.7</ele>
        <time>2020-06-04T09:43:17Z</time>
      </trkpt>
      <trkpt lat="46.79407" lon="-2.07903">
        <ele>4.8</ele>
        <time>2020-06-04T09:43:18Z</time>
      </trkpt>
      <trkpt lat="46.79412" lon="-2.079">
        <ele>4.8</ele>
        <time>2020-06-04T09:43:19Z</time>
      </trkpt>
      <trkpt lat="46.79416" lon="-2.07897">
        <ele>4.9</ele>
        <time>2020-06-04T09:43:20Z</time>
      </trkpt>
      <trkpt lat="46.79421" lon="-2.07892">
        <ele>5</ele>
        <time>2020-06-04T09:43:21Z</time>
      </trkpt>
      <trkpt lat="46.79425" lon="-2.07887">
        <ele>5.1</ele>
        <time>2020-06-04T09:43:22Z</time>
      </trkpt>
      <trkpt lat="46.79429" lon="-2.07882">
        <ele>5.2</ele>
        <time>2020-06-04T09:43:23Z</time>
      </trkpt>
      <trkpt lat="46.79433" lon="-2.07879">
        <ele>5.2</ele>
        <time>2020-06-04T09:43:24Z</time>
      </trkpt>
      <trkpt lat="46.79437" lon="-2.07875">
        <ele>5.3</ele>
        <time>2020-06-04T09:43:25Z</time>
      </trkpt>
      <trkpt lat="46.7944" lon="-2.07871">
        <ele>5.4</ele>
        <time>2020-06-04T09:43:26Z</time>
      </trkpt>
      <trkpt lat="46.79444" lon="-2.07867">
        <ele>5.5</ele>
        <time>2020-06-04T09:43:27Z</time>
      </trkpt>
      <trkpt lat="46.79447" lon="-2.07863">
        <ele>5.7</ele>
        <time>2020-06-04T09:43:28Z</time>
      </trkpt>
      <trkpt lat="46.79449" lon="-2.07859">
        <ele>5.8</ele>
        <time>2020-06-04T09:43:29Z</time>
      </trkpt>
      <trkpt lat="46.79451" lon="-2.07855">
        <ele>5.9</ele>
        <time>2020-06-04T09:43:30Z</time>
      </trkpt>
      <trkpt lat="46.79453" lon="-2.0785">
        <ele>6.1</ele>
        <time>2020-06-04T09:43:31Z</time>
      </trkpt>
      <trkpt lat="46.79454" lon="-2.07846">
        <ele>6.2</ele>
        <time>2020-06-04T09:43:32Z</time>
      </trkpt>
      <trkpt lat="46.79455" lon="-2.0784">
        <ele>6.4</ele>
        <time>2020-06-04T09:43:33Z</time>
      </trkpt>
      <trkpt lat="46.79457" lon="-2.07835">
        <ele>6.6</ele>
        <time>2020-06-04T09:43:34Z</time>
      </trkpt>
      <trkpt lat="46.79459" lon="-2.0783">
        <ele>6.8</ele>
        <time>2020-06-04T09:43:35Z</time>
      </trkpt>
      <trkpt lat="46.79461" lon="-2.07824">
        <ele>7</ele>
        <time>2020-06-04T09:43:36Z</time>
      </trkpt>
      <trkpt lat="46.79463" lon="-2.07818">
        <ele>7.2</ele>
        <time>2020-06-04T09:43:37Z</time>
      </trkpt>
      <trkpt lat="46.79465" lon="-2.07813">
        <ele>7.4</ele>
        <time>2020-06-04T09:43:38Z</time>
      </trkpt>
      <trkpt lat="46.79467" lon="-2.07807">
        <ele>7.7</ele>
        <time>2020-06-04T09:43:39Z</time>
      </trkpt>
      <trkpt lat="46.79469" lon="-2.07802">
        <ele>7.9</ele>
        <time>2020-06-04T09:43:40Z</time>
      </trkpt>
      <trkpt lat="46.79472" lon="-2.07797">
        <ele>8.2</ele>
        <time>2020-06-04T09:43:41Z</time>
      </trkpt>
      <trkpt lat="46.79474" lon="-2.07792">
        <ele>8.4</ele>
        <time>2020-06-04T09:43:42Z</time>
      </trkpt>
      <trkpt lat="46.79477" lon="-2.07788">
        <ele>8.7</ele>
        <time>2020-06-04T09:43:43Z</time>
      </trkpt>
      <trkpt lat="46.79481" lon="-2.07784">
        <ele>9</ele>
        <time>2020-06-04T09:43:44Z</time>
      </trkpt>
      <trkpt lat="46.79484" lon="-2.0778">
        <ele>9.2</ele>
        <time>2020-06-04T09:43:45Z</time>
      </trkpt>
      <trkpt lat="46.79487" lon="-2.07776">
        <ele>9.5</ele>
        <time>2020-06-04T09:43:46Z</time>
      </trkpt>
      <trkpt lat="46.79489" lon="-2.07772">
        <ele>9.7</ele>
        <time>2020-06-04T09:43:47Z</time>
      </trkpt>
      <trkpt lat="46.79492" lon="-2.07768">
        <ele>10</ele>
        <time>2020-06-04T09:43:48Z</time>
      </trkpt>
      <trkpt lat="46.79496" lon="-2.07766">
        <ele>10.3</ele>
        <time>2020-06-04T09:43:49Z</time>
      </trkpt>
      <trkpt lat="46.79499" lon="-2.07764">
        <ele>10.5</ele>
        <time>2020-06-04T09:43:50Z</time>
      </trkpt>
      <trkpt lat="46.79502" lon="-2.07762">
        <ele>10.8</ele>
        <time>2020-06-04T09:43:51Z</time>
      </trkpt>
      <trkpt lat="46.79505" lon="-2.0776">
        <ele>11</ele>
        <time>2020-06-04T09:43:52Z</time>
      </trkpt>
      <trkpt lat="46.79507" lon="-2.07758">
        <ele>11.2</ele>
        <time>2020-06-04T09:43:53Z</time>
      </trkpt>
      <trkpt lat="46.79511" lon="-2.07757">
        <ele>11.5</ele>
        <time>2020-06-04T09:43:54Z</time>
      </trkpt>
      <trkpt lat="46.79514" lon="-2.07756">
        <ele>11.8</ele>
        <time>2020-06-04T09:43:55Z</time>
      </trkpt>
      <trkpt lat="46.79517" lon="-2.07756">
        <ele>12.1</ele>
        <time>2020-06-04T09:43:56Z</time>
      </trkpt>
      <trkpt lat="46.79519" lon="-2.07756">
        <ele>12.2</ele>
        <time>2020-06-04T09:43:57Z</time>
      </trkpt>
      <trkpt lat="46.79522" lon="-2.07755">
        <ele>12.5</ele>
        <time>2020-06-04T09:43:58Z</time>
      </trkpt>
      <trkpt lat="46.79523" lon="-2.07755">
        <ele>12.6</ele>
        <time>2020-06-04T09:43:59Z</time>
      </trkpt>
      <trkpt lat="46.79526" lon="-2.07754">
        <ele>12.9</ele>
        <time>2020-06-04T09:44:00Z</time>
      </trkpt>
      <trkpt lat="46.79527" lon="-2.07754">
        <ele>13</ele>
        <time>2020-06-04T09:44:01Z</time>
      </trkpt>
      <trkpt lat="46.7953" lon="-2.07752">
        <ele>13.2</ele>
        <time>2020-06-04T09:44:02Z</time>
      </trkpt>
      <trkpt lat="46.79531" lon="-2.07751">
        <ele>13.3</ele>
        <time>2020-06-04T09:44:03Z</time>
      </trkpt>
      <trkpt lat="46.79532" lon="-2.07751">
        <ele>13.4</ele>
        <time>2020-06-04T09:44:04Z</time>
      </trkpt>
      <trkpt lat="46.79533" lon="-2.0775">
        <ele>13.5</ele>
        <time>2020-06-04T09:44:05Z</time>
      </trkpt>
      <trkpt lat="46.79534" lon="-2.0775">
        <ele>13.6</ele>
        <time>2020-06-04T09:44:06Z</time>
      </trkpt>
      <trkpt lat="46.79536" lon="-2.0775">
        <ele>13.7</ele>
        <time>2020-06-04T09:44:07Z</time>
      </trkpt>
      <trkpt lat="46.79537" lon="-2.0775">
        <ele>13.8</ele>
        <time>2020-06-04T09:44:08Z</time>
      </trkpt>
      <trkpt lat="46.7954" lon="-2.0775">
        <ele>14</ele>
        <time>2020-06-04T09:44:09Z</time>
      </trkpt>
      <trkpt lat="46.79541" lon="-2.0775">
        <ele>14.1</ele>
        <time>2020-06-04T09:44:10Z</time>
      </trkpt>
      <trkpt lat="46.79544" lon="-2.07751">
        <ele>14.3</ele>
        <time>2020-06-04T09:44:11Z</time>
      </trkpt>
      <trkpt lat="46.79546" lon="-2.0775">
        <ele>14.3</ele>
        <time>2020-06-04T09:44:12Z</time>
      </trkpt>
      <trkpt lat="46.79548" lon="-2.07749">
        <ele>14.4</ele>
        <time>2020-06-04T09:44:13Z</time>
      </trkpt>
      <trkpt lat="46.79549" lon="-2.07749">
        <ele>14.5</ele>
        <time>2020-06-04T09:44:14Z</time>
      </trkpt>
      <trkpt lat="46.7955" lon="-2.07749">
        <ele>14.5</ele>
        <time>2020-06-04T09:44:15Z</time>
      </trkpt>
      <trkpt lat="46.79552" lon="-2.07748">
        <ele>14.6</ele>
        <time>2020-06-04T09:44:16Z</time>
      </trkpt>
      <trkpt lat="46.79553" lon="-2.07748">
        <ele>14.6</ele>
        <time>2020-06-04T09:44:17Z</time>
      </trkpt>
      <trkpt lat="46.79555" lon="-2.07748">
        <ele>14.7</ele>
        <time>2020-06-04T09:44:18Z</time>
      </trkpt>
      <trkpt lat="46.79556" lon="-2.07747">
        <ele>14.7</ele>
        <time>2020-06-04T09:44:19Z</time>
      </trkpt>
      <trkpt lat="46.7956" lon="-2.07746">
        <ele>14.8</ele>
        <time>2020-06-04T09:44:20Z</time>
      </trkpt>
      <trkpt lat="46.79561" lon="-2.07745">
        <ele>14.8</ele>
        <time>2020-06-04T09:44:21Z</time>
      </trkpt>
      <trkpt lat="46.79564" lon="-2.07742">
        <ele>14.8</ele>
        <time>2020-06-04T09:44:22Z</time>
      </trkpt>
      <trkpt lat="46.79566" lon="-2.07741">
        <ele>14.8</ele>
        <time>2020-06-04T09:44:23Z</time>
      </trkpt>
      <trkpt lat="46.79569" lon="-2.07739">
        <ele>14.8</ele>
        <time>2020-06-04T09:44:24Z</time>
      </trkpt>
      <trkpt lat="46.79571" lon="-2.07739">
        <ele>14.8</ele>
        <time>2020-06-04T09:44:25Z</time>
      </trkpt>
      <trkpt lat="46.79574" lon="-2.07737">
        <ele>14.7</ele>
        <time>2020-06-04T09:44:26Z</time>
      </trkpt>
      <trkpt lat="46.79579" lon="-2.07736">
        <ele>14.6</ele>
        <time>2020-06-04T09:44:27Z</time>
      </trkpt>
      <trkpt lat="46.79585" lon="-2.07732">
        <ele>14.4</ele>
        <time>2020-06-04T09:44:28Z</time>
      </trkpt>
      <trkpt lat="46.7959" lon="-2.0773">
        <ele>14.2</ele>
        <time>2020-06-04T09:44:29Z</time>
      </trkpt>
      <trkpt lat="46.79595" lon="-2.07728">
        <ele>14</ele>
        <time>2020-06-04T09:44:30Z</time>
      </trkpt>
      <trkpt lat="46.79601" lon="-2.07725">
        <ele>13.8</ele>
        <time>2020-06-04T09:44:31Z</time>
      </trkpt>
      <trkpt lat="46.7961" lon="-2.07722">
        <ele>13.4</ele>
        <time>2020-06-04T09:44:32Z</time>
      </trkpt>
      <trkpt lat="46.79618" lon="-2.07722">
        <ele>13.4</ele>
        <time>2020-06-04T09:44:33Z</time>
      </trkpt>
      <trkpt lat="46.79626" lon="-2.07721">
        <ele>13.4</ele>
        <time>2020-06-04T09:44:34Z</time>
      </trkpt>
      <trkpt lat="46.79633" lon="-2.07719">
        <ele>13.4</ele>
        <time>2020-06-04T09:44:35Z</time>
      </trkpt>
      <trkpt lat="46.79641" lon="-2.07716">
        <ele>13.3</ele>
        <time>2020-06-04T09:44:36Z</time>
      </trkpt>
      <trkpt lat="46.79647" lon="-2.07712">
        <ele>13.2</ele>
        <time>2020-06-04T09:44:37Z</time>
      </trkpt>
      <trkpt lat="46.79653" lon="-2.07708">
        <ele>13.1</ele>
        <time>2020-06-04T09:44:38Z</time>
      </trkpt>
      <trkpt lat="46.79658" lon="-2.07705">
        <ele>13</ele>
        <time>2020-06-04T09:44:39Z</time>
      </trkpt>
      <trkpt lat="46.79664" lon="-2.07701">
        <ele>12.8</ele>
        <time>2020-06-04T09:44:40Z</time>
      </trkpt>
      <trkpt lat="46.79671" lon="-2.07697">
        <ele>12.7</ele>
        <time>2020-06-04T09:44:41Z</time>
      </trkpt>
      <trkpt lat="46.79677" lon="-2.07693">
        <ele>12.5</ele>
        <time>2020-06-04T09:44:42Z</time>
      </trkpt>
      <trkpt lat="46.79683" lon="-2.07689">
        <ele>12.4</ele>
        <time>2020-06-04T09:44:43Z</time>
      </trkpt>
      <trkpt lat="46.79689" lon="-2.07684">
        <ele>12.3</ele>
        <time>2020-06-04T09:44:44Z</time>
      </trkpt>
      <trkpt lat="46.79695" lon="-2.0768">
        <ele>12.2</ele>
        <time>2020-06-04T09:44:45Z</time>
      </trkpt>
      <trkpt lat="46.797" lon="-2.07675">
        <ele>12.1</ele>
        <time>2020-06-04T09:44:46Z</time>
      </trkpt>
      <trkpt lat="46.79706" lon="-2.07672">
        <ele>12</ele>
        <time>2020-06-04T09:44:47Z</time>
      </trkpt>
      <trkpt lat="46.79712" lon="-2.07668">
        <ele>11.9</ele>
        <time>2020-06-04T09:44:48Z</time>
      </trkpt>
      <trkpt lat="46.79719" lon="-2.07665">
        <ele>11.9</ele>
        <time>2020-06-04T09:44:49Z</time>
      </trkpt>
      <trkpt lat="46.79727" lon="-2.07663">
        <ele>11.9</ele>
        <time>2020-06-04T09:44:50Z</time>
      </trkpt>
      <trkpt lat="46.79733" lon="-2.07661">
        <ele>11.9</ele>
        <time>2020-06-04T09:44:51Z</time>
      </trkpt>
      <trkpt lat="46.7974" lon="-2.07661">
        <ele>11.9</ele>
        <time>2020-06-04T09:44:52Z</time>
      </trkpt>
      <trkpt lat="46.79745" lon="-2.07661">
        <ele>11.9</ele>
        <time>2020-06-04T09:44:53Z</time>
      </trkpt>
      <trkpt lat="46.79751" lon="-2.07662">
        <ele>11.9</ele>
        <time>2020-06-04T09:44:54Z</time>
      </trkpt>
      <trkpt lat="46.79757" lon="-2.07663">
        <ele>11.9</ele>
        <time>2020-06-04T09:44:55Z</time>
      </trkpt>
      <trkpt lat="46.79763" lon="-2.07665">
        <ele>11.9</ele>
        <time>2020-06-04T09:44:56Z</time>
      </trkpt>
      <trkpt lat="46.79768" lon="-2.07667">
        <ele>11.9</ele>
        <time>2020-06-04T09:44:57Z</time>
      </trkpt>
      <trkpt lat="46.79775" lon="-2.07669">
        <ele>11.8</ele>
        <time>2020-06-04T09:44:58Z</time>
      </trkpt>
      <trkpt lat="46.79781" lon="-2.07671">
        <ele>11.7</ele>
        <time>2020-06-04T09:44:59Z</time>
      </trkpt>
      <trkpt lat="46.79787" lon="-2.07674">
        <ele>11.6</ele>
        <time>2020-06-04T09:45:00Z</time>
      </trkpt>
      <trkpt lat="46.79793" lon="-2.07675">
        <ele>11.4</ele>
        <time>2020-06-04T09:45:01Z</time>
      </trkpt>
      <trkpt lat="46.798" lon="-2.07677">
        <ele>11.2</ele>
        <time>2020-06-04T09:45:02Z</time>
      </trkpt>
      <trkpt lat="46.79807" lon="-2.0768">
        <ele>11</ele>
        <time>2020-06-04T09:45:03Z</time>
      </trkpt>
      <trkpt lat="46.79812" lon="-2.07684">
        <ele>10.9</ele>
        <time>2020-06-04T09:45:04Z</time>
      </trkpt>
      <trkpt lat="46.79817" lon="-2.07693">
        <ele>10.8</ele>
        <time>2020-06-04T09:45:05Z</time>
      </trkpt>
      <trkpt lat="46.7982" lon="-2.07701">
        <ele>10.7</ele>
        <time>2020-06-04T09:45:06Z</time>
      </trkpt>
      <trkpt lat="46.79821" lon="-2.07709">
        <ele>10.8</ele>
        <time>2020-06-04T09:45:07Z</time>
      </trkpt>
      <trkpt lat="46.79821" lon="-2.07718">
        <ele>10.8</ele>
        <time>2020-06-04T09:45:08Z</time>
      </trkpt>
      <trkpt lat="46.79822" lon="-2.07727">
        <ele>10.8</ele>
        <time>2020-06-04T09:45:09Z</time>
      </trkpt>
      <trkpt lat="46.79822" lon="-2.07735">
        <ele>10.9</ele>
        <time>2020-06-04T09:45:10Z</time>
      </trkpt>
      <trkpt lat="46.79823" lon="-2.07742">
        <ele>10.9</ele>
        <time>2020-06-04T09:45:11Z</time>
      </trkpt>
      <trkpt lat="46.79823" lon="-2.07749">
        <ele>10.9</ele>
        <time>2020-06-04T09:45:12Z</time>
      </trkpt>
      <trkpt lat="46.79824" lon="-2.07756">
        <ele>10.9</ele>
        <time>2020-06-04T09:45:13Z</time>
      </trkpt>
      <trkpt lat="46.79824" lon="-2.07762">
        <ele>11</ele>
        <time>2020-06-04T09:45:14Z</time>
      </trkpt>
      <trkpt lat="46.79825" lon="-2.07768">
        <ele>11</ele>
        <time>2020-06-04T09:45:15Z</time>
      </trkpt>
      <trkpt lat="46.79826" lon="-2.07776">
        <ele>10.9</ele>
        <time>2020-06-04T09:45:16Z</time>
      </trkpt>
      <trkpt lat="46.79828" lon="-2.07783">
        <ele>10.9</ele>
        <time>2020-06-04T09:45:17Z</time>
      </trkpt>
      <trkpt lat="46.7983" lon="-2.07789">
        <ele>10.8</ele>
        <time>2020-06-04T09:45:18Z</time>
      </trkpt>
      <trkpt lat="46.79833" lon="-2.07795">
        <ele>10.7</ele>
        <time>2020-06-04T09:45:19Z</time>
      </trkpt>
      <trkpt lat="46.79835" lon="-2.07802">
        <ele>10.5</ele>
        <time>2020-06-04T09:45:20Z</time>
      </trkpt>
      <trkpt lat="46.79837" lon="-2.07808">
        <ele>10.3</ele>
        <time>2020-06-04T09:45:21Z</time>
      </trkpt>
      <trkpt lat="46.7984" lon="-2.07814">
        <ele>10</ele>
        <time>2020-06-04T09:45:22Z</time>
      </trkpt>
      <trkpt lat="46.79842" lon="-2.07818">
        <ele>9.8</ele>
        <time>2020-06-04T09:45:23Z</time>
      </trkpt>
      <trkpt lat="46.79844" lon="-2.07823">
        <ele>9.6</ele>
        <time>2020-06-04T09:45:24Z</time>
      </trkpt>
      <trkpt lat="46.79847" lon="-2.07828">
        <ele>9.3</ele>
        <time>2020-06-04T09:45:25Z</time>
      </trkpt>
      <trkpt lat="46.7985" lon="-2.07832">
        <ele>9.1</ele>
        <time>2020-06-04T09:45:26Z</time>
      </trkpt>
      <trkpt lat="46.79852" lon="-2.07838">
        <ele>8.8</ele>
        <time>2020-06-04T09:45:27Z</time>
      </trkpt>
      <trkpt lat="46.79855" lon="-2.07844">
        <ele>8.5</ele>
        <time>2020-06-04T09:45:28Z</time>
      </trkpt>
      <trkpt lat="46.79857" lon="-2.07848">
        <ele>8.3</ele>
        <time>2020-06-04T09:45:29Z</time>
      </trkpt>
      <trkpt lat="46.7986" lon="-2.07853">
        <ele>8</ele>
        <time>2020-06-04T09:45:30Z</time>
      </trkpt>
      <trkpt lat="46.79863" lon="-2.07857">
        <ele>7.7</ele>
        <time>2020-06-04T09:45:31Z</time>
      </trkpt>
      <trkpt lat="46.79865" lon="-2.07863">
        <ele>7.5</ele>
        <time>2020-06-04T09:45:32Z</time>
      </trkpt>
      <trkpt lat="46.79869" lon="-2.07868">
        <ele>7.2</ele>
        <time>2020-06-04T09:45:33Z</time>
      </trkpt>
      <trkpt lat="46.79874" lon="-2.07875">
        <ele>6.9</ele>
        <time>2020-06-04T09:45:34Z</time>
      </trkpt>
      <trkpt lat="46.79877" lon="-2.07882">
        <ele>6.6</ele>
        <time>2020-06-04T09:45:35Z</time>
      </trkpt>
      <trkpt lat="46.7988" lon="-2.07888">
        <ele>6.4</ele>
        <time>2020-06-04T09:45:36Z</time>
      </trkpt>
      <trkpt lat="46.79883" lon="-2.07896">
        <ele>6.2</ele>
        <time>2020-06-04T09:45:37Z</time>
      </trkpt>
      <trkpt lat="46.79886" lon="-2.07903">
        <ele>6</ele>
        <time>2020-06-04T09:45:38Z</time>
      </trkpt>
      <trkpt lat="46.79888" lon="-2.0791">
        <ele>5.9</ele>
        <time>2020-06-04T09:45:39Z</time>
      </trkpt>
      <trkpt lat="46.7989" lon="-2.07919">
        <ele>5.7</ele>
        <time>2020-06-04T09:45:40Z</time>
      </trkpt>
      <trkpt lat="46.79893" lon="-2.07928">
        <ele>5.6</ele>
        <time>2020-06-04T09:45:41Z</time>
      </trkpt>
      <trkpt lat="46.79895" lon="-2.07937">
        <ele>5.4</ele>
        <time>2020-06-04T09:45:42Z</time>
      </trkpt>
      <trkpt lat="46.79897" lon="-2.07945">
        <ele>5.3</ele>
        <time>2020-06-04T09:45:43Z</time>
      </trkpt>
      <trkpt lat="46.79899" lon="-2.07953">
        <ele>5.2</ele>
        <time>2020-06-04T09:45:44Z</time>
      </trkpt>
      <trkpt lat="46.79901" lon="-2.07961">
        <ele>5</ele>
        <time>2020-06-04T09:45:45Z</time>
      </trkpt>
      <trkpt lat="46.79903" lon="-2.07967">
        <ele>4.9</ele>
        <time>2020-06-04T09:45:46Z</time>
      </trkpt>
      <trkpt lat="46.79906" lon="-2.07971">
        <ele>4.9</ele>
        <time>2020-06-04T09:45:47Z</time>
      </trkpt>
      <trkpt lat="46.79909" lon="-2.07977">
        <ele>4.8</ele>
        <time>2020-06-04T09:45:48Z</time>
      </trkpt>
      <trkpt lat="46.7991" lon="-2.07983">
        <ele>4.7</ele>
        <time>2020-06-04T09:45:49Z</time>
      </trkpt>
      <trkpt lat="46.79911" lon="-2.0799">
        <ele>4.6</ele>
        <time>2020-06-04T09:45:50Z</time>
      </trkpt>
      <trkpt lat="46.79912" lon="-2.07996">
        <ele>4.5</ele>
        <time>2020-06-04T09:45:51Z</time>
      </trkpt>
      <trkpt lat="46.79914" lon="-2.08002">
        <ele>4.5</ele>
        <time>2020-06-04T09:45:52Z</time>
      </trkpt>
      <trkpt lat="46.79916" lon="-2.08009">
        <ele>4.5</ele>
        <time>2020-06-04T09:45:53Z</time>
      </trkpt>
      <trkpt lat="46.79918" lon="-2.08016">
        <ele>4.4</ele>
        <time>2020-06-04T09:45:54Z</time>
      </trkpt>
      <trkpt lat="46.79921" lon="-2.08024">
        <ele>4.4</ele>
        <time>2020-06-04T09:45:55Z</time>
      </trkpt>
      <trkpt lat="46.79923" lon="-2.08031">
        <ele>4.4</ele>
        <time>2020-06-04T09:45:56Z</time>
      </trkpt>
      <trkpt lat="46.79925" lon="-2.08039">
        <ele>4.4</ele>
        <time>2020-06-04T09:45:57Z</time>
      </trkpt>
      <trkpt lat="46.79927" lon="-2.08048">
        <ele>4.4</ele>
        <time>2020-06-04T09:45:58Z</time>
      </trkpt>
      <trkpt lat="46.79928" lon="-2.08056">
        <ele>4.4</ele>
        <time>2020-06-04T09:45:59Z</time>
      </trkpt>
      <trkpt lat="46.79929" lon="-2.08065">
        <ele>4.5</ele>
        <time>2020-06-04T09:46:00Z</time>
      </trkpt>
      <trkpt lat="46.79929" lon="-2.08074">
        <ele>4.5</ele>
        <time>2020-06-04T09:46:01Z</time>
      </trkpt>
      <trkpt lat="46.79929" lon="-2.08081">
        <ele>4.5</ele>
        <time>2020-06-04T09:46:02Z</time>
      </trkpt>
      <trkpt lat="46.79929" lon="-2.0809">
        <ele>4.5</ele>
        <time>2020-06-04T09:46:03Z</time>
      </trkpt>
      <trkpt lat="46.79929" lon="-2.08099">
        <ele>4.5</ele>
        <time>2020-06-04T09:46:04Z</time>
      </trkpt>
      <trkpt lat="46.7993" lon="-2.08106">
        <ele>4.5</ele>
        <time>2020-06-04T09:46:05Z</time>
      </trkpt>
      <trkpt lat="46.79929" lon="-2.08115">
        <ele>4.6</ele>
        <time>2020-06-04T09:46:06Z</time>
      </trkpt>
      <trkpt lat="46.7993" lon="-2.08122">
        <ele>4.6</ele>
        <time>2020-06-04T09:46:07Z</time>
      </trkpt>
      <trkpt lat="46.7993" lon="-2.08129">
        <ele>4.6</ele>
        <time>2020-06-04T09:46:08Z</time>
      </trkpt>
      <trkpt lat="46.7993" lon="-2.08136">
        <ele>4.6</ele>
        <time>2020-06-04T09:46:09Z</time>
      </trkpt>
      <trkpt lat="46.7993" lon="-2.08143">
        <ele>4.6</ele>
        <time>2020-06-04T09:46:10Z</time>
      </trkpt>
      <trkpt lat="46.79931" lon="-2.08149">
        <ele>4.6</ele>
        <time>2020-06-04T09:46:11Z</time>
      </trkpt>
      <trkpt lat="46.79932" lon="-2.08155">
        <ele>4.6</ele>
        <time>2020-06-04T09:46:12Z</time>
      </trkpt>
      <trkpt lat="46.79933" lon="-2.08161">
        <ele>4.6</ele>
        <time>2020-06-04T09:46:13Z</time>
      </trkpt>
      <trkpt lat="46.79933" lon="-2.08166">
        <ele>4.6</ele>
        <time>2020-06-04T09:46:14Z</time>
      </trkpt>
      <trkpt lat="46.79933" lon="-2.08174">
        <ele>4.6</ele>
        <time>2020-06-04T09:46:15Z</time>
      </trkpt>
      <trkpt lat="46.79934" lon="-2.0818">
        <ele>4.6</ele>
        <time>2020-06-04T09:46:16Z</time>
      </trkpt>
      <trkpt lat="46.79935" lon="-2.08187">
        <ele>4.6</ele>
        <time>2020-06-04T09:46:17Z</time>
      </trkpt>
      <trkpt lat="46.79936" lon="-2.08193">
        <ele>4.6</ele>
        <time>2020-06-04T09:46:18Z</time>
      </trkpt>
      <trkpt lat="46.79937" lon="-2.08199">
        <ele>4.6</ele>
        <time>2020-06-04T09:46:19Z</time>
      </trkpt>
      <trkpt lat="46.79938" lon="-2.08206">
        <ele>4.6</ele>
        <time>2020-06-04T09:46:20Z</time>
      </trkpt>
      <trkpt lat="46.7994" lon="-2.08213">
        <ele>4.6</ele>
        <time>2020-06-04T09:46:21Z</time>
      </trkpt>
      <trkpt lat="46.79941" lon="-2.08219">
        <ele>4.6</ele>
        <time>2020-06-04T09:46:22Z</time>
      </trkpt>
      <trkpt lat="46.79942" lon="-2.08227">
        <ele>4.7</ele>
        <time>2020-06-04T09:46:23Z</time>
      </trkpt>
      <trkpt lat="46.79944" lon="-2.08234">
        <ele>4.7</ele>
        <time>2020-06-04T09:46:24Z</time>
      </trkpt>
      <trkpt lat="46.79946" lon="-2.0824">
        <ele>4.7</ele>
        <time>2020-06-04T09:46:25Z</time>
      </trkpt>
      <trkpt lat="46.79947" lon="-2.08247">
        <ele>4.8</ele>
        <time>2020-06-04T09:46:26Z</time>
      </trkpt>
      <trkpt lat="46.7995" lon="-2.08254">
        <ele>4.8</ele>
        <time>2020-06-04T09:46:27Z</time>
      </trkpt>
      <trkpt lat="46.79952" lon="-2.08262">
        <ele>4.9</ele>
        <time>2020-06-04T09:46:28Z</time>
      </trkpt>
      <trkpt lat="46.79955" lon="-2.0827">
        <ele>5</ele>
        <time>2020-06-04T09:46:29Z</time>
      </trkpt>
      <trkpt lat="46.79958" lon="-2.08277">
        <ele>5.2</ele>
        <time>2020-06-04T09:46:30Z</time>
      </trkpt>
      <trkpt lat="46.7996" lon="-2.08283">
        <ele>5.2</ele>
        <time>2020-06-04T09:46:31Z</time>
      </trkpt>
      <trkpt lat="46.79962" lon="-2.0829">
        <ele>5.3</ele>
        <time>2020-06-04T09:46:32Z</time>
      </trkpt>
      <trkpt lat="46.79965" lon="-2.08296">
        <ele>5.3</ele>
        <time>2020-06-04T09:46:33Z</time>
      </trkpt>
      <trkpt lat="46.79968" lon="-2.08302">
        <ele>5.4</ele>
        <time>2020-06-04T09:46:34Z</time>
      </trkpt>
      <trkpt lat="46.79971" lon="-2.08308">
        <ele>5.4</ele>
        <time>2020-06-04T09:46:35Z</time>
      </trkpt>
      <trkpt lat="46.79972" lon="-2.08315">
        <ele>5.5</ele>
        <time>2020-06-04T09:46:36Z</time>
      </trkpt>
      <trkpt lat="46.79973" lon="-2.0832">
        <ele>5.5</ele>
        <time>2020-06-04T09:46:37Z</time>
      </trkpt>
      <trkpt lat="46.79974" lon="-2.08327">
        <ele>5.5</ele>
        <time>2020-06-04T09:46:38Z</time>
      </trkpt>
      <trkpt lat="46.79976" lon="-2.08334">
        <ele>5.6</ele>
        <time>2020-06-04T09:46:39Z</time>
      </trkpt>
      <trkpt lat="46.79977" lon="-2.08341">
        <ele>5.7</ele>
        <time>2020-06-04T09:46:40Z</time>
      </trkpt>
      <trkpt lat="46.79978" lon="-2.08348">
        <ele>5.7</ele>
        <time>2020-06-04T09:46:41Z</time>
      </trkpt>
      <trkpt lat="46.79979" lon="-2.08354">
        <ele>5.8</ele>
        <time>2020-06-04T09:46:42Z</time>
      </trkpt>
      <trkpt lat="46.79981" lon="-2.0836">
        <ele>5.8</ele>
        <time>2020-06-04T09:46:43Z</time>
      </trkpt>
      <trkpt lat="46.79981" lon="-2.08366">
        <ele>5.9</ele>
        <time>2020-06-04T09:46:44Z</time>
      </trkpt>
      <trkpt lat="46.79982" lon="-2.08371">
        <ele>6</ele>
        <time>2020-06-04T09:46:45Z</time>
      </trkpt>
      <trkpt lat="46.79983" lon="-2.08376">
        <ele>6</ele>
        <time>2020-06-04T09:46:46Z</time>
      </trkpt>
      <trkpt lat="46.79985" lon="-2.08383">
        <ele>6.1</ele>
        <time>2020-06-04T09:46:47Z</time>
      </trkpt>
      <trkpt lat="46.79986" lon="-2.08389">
        <ele>6.1</ele>
        <time>2020-06-04T09:46:48Z</time>
      </trkpt>
      <trkpt lat="46.79988" lon="-2.08394">
        <ele>6.1</ele>
        <time>2020-06-04T09:46:49Z</time>
      </trkpt>
      <trkpt lat="46.79989" lon="-2.08399">
        <ele>6.1</ele>
        <time>2020-06-04T09:46:50Z</time>
      </trkpt>
      <trkpt lat="46.7999" lon="-2.08405">
        <ele>6.1</ele>
        <time>2020-06-04T09:46:51Z</time>
      </trkpt>
      <trkpt lat="46.79992" lon="-2.0841">
        <ele>6.2</ele>
        <time>2020-06-04T09:46:52Z</time>
      </trkpt>
      <trkpt lat="46.79994" lon="-2.08414">
        <ele>6.2</ele>
        <time>2020-06-04T09:46:53Z</time>
      </trkpt>
      <trkpt lat="46.79996" lon="-2.08419">
        <ele>6.2</ele>
        <time>2020-06-04T09:46:54Z</time>
      </trkpt>
      <trkpt lat="46.79998" lon="-2.08425">
        <ele>6.2</ele>
        <time>2020-06-04T09:46:55Z</time>
      </trkpt>
      <trkpt lat="46.8" lon="-2.08431">
        <ele>6.2</ele>
        <time>2020-06-04T09:46:56Z</time>
      </trkpt>
      <trkpt lat="46.80001" lon="-2.08437">
        <ele>6.2</ele>
        <time>2020-06-04T09:46:57Z</time>
      </trkpt>
      <trkpt lat="46.80003" lon="-2.08445">
        <ele>6.2</ele>
        <time>2020-06-04T09:46:58Z</time>
      </trkpt>
      <trkpt lat="46.80005" lon="-2.08451">
        <ele>6.2</ele>
        <time>2020-06-04T09:46:59Z</time>
      </trkpt>
      <trkpt lat="46.80007" lon="-2.0846">
        <ele>6.2</ele>
        <time>2020-06-04T09:47:00Z</time>
      </trkpt>
      <trkpt lat="46.80008" lon="-2.08466">
        <ele>6.2</ele>
        <time>2020-06-04T09:47:01Z</time>
      </trkpt>
      <trkpt lat="46.80009" lon="-2.08472">
        <ele>6.2</ele>
        <time>2020-06-04T09:47:02Z</time>
      </trkpt>
      <trkpt lat="46.8001" lon="-2.08479">
        <ele>6.2</ele>
        <time>2020-06-04T09:47:03Z</time>
      </trkpt>
      <trkpt lat="46.80011" lon="-2.08485">
        <ele>6.1</ele>
        <time>2020-06-04T09:47:04Z</time>
      </trkpt>
      <trkpt lat="46.80012" lon="-2.08492">
        <ele>6.1</ele>
        <time>2020-06-04T09:47:05Z</time>
      </trkpt>
      <trkpt lat="46.80014" lon="-2.08499">
        <ele>6.1</ele>
        <time>2020-06-04T09:47:06Z</time>
      </trkpt>
      <trkpt lat="46.80015" lon="-2.08506">
        <ele>6</ele>
        <time>2020-06-04T09:47:07Z</time>
      </trkpt>
      <trkpt lat="46.80017" lon="-2.08513">
        <ele>6</ele>
        <time>2020-06-04T09:47:08Z</time>
      </trkpt>
      <trkpt lat="46.80018" lon="-2.08521">
        <ele>6</ele>
        <time>2020-06-04T09:47:09Z</time>
      </trkpt>
      <trkpt lat="46.80019" lon="-2.08529">
        <ele>6</ele>
        <time>2020-06-04T09:47:10Z</time>
      </trkpt>
      <trkpt lat="46.80019" lon="-2.08536">
        <ele>6</ele>
        <time>2020-06-04T09:47:11Z</time>
      </trkpt>
      <trkpt lat="46.80019" lon="-2.08542">
        <ele>6</ele>
        <time>2020-06-04T09:47:12Z</time>
      </trkpt>
      <trkpt lat="46.8002" lon="-2.0855">
        <ele>6</ele>
        <time>2020-06-04T09:47:13Z</time>
      </trkpt>
      <trkpt lat="46.8002" lon="-2.08559">
        <ele>6</ele>
        <time>2020-06-04T09:47:14Z</time>
      </trkpt>
      <trkpt lat="46.8002" lon="-2.08566">
        <ele>6</ele>
        <time>2020-06-04T09:47:15Z</time>
      </trkpt>
      <trkpt lat="46.8002" lon="-2.08574">
        <ele>6</ele>
        <time>2020-06-04T09:47:16Z</time>
      </trkpt>
      <trkpt lat="46.8002" lon="-2.08583">
        <ele>6</ele>
        <time>2020-06-04T09:47:17Z</time>
      </trkpt>
      <trkpt lat="46.8002" lon="-2.08592">
        <ele>6</ele>
        <time>2020-06-04T09:47:18Z</time>
      </trkpt>
      <trkpt lat="46.80021" lon="-2.08602">
        <ele>6</ele>
        <time>2020-06-04T09:47:19Z</time>
      </trkpt>
      <trkpt lat="46.80021" lon="-2.0861">
        <ele>5.9</ele>
        <time>2020-06-04T09:47:20Z</time>
      </trkpt>
      <trkpt lat="46.80023" lon="-2.08618">
        <ele>5.9</ele>
        <time>2020-06-04T09:47:21Z</time>
      </trkpt>
      <trkpt lat="46.80024" lon="-2.08624">
        <ele>5.9</ele>
        <time>2020-06-04T09:47:22Z</time>
      </trkpt>
      <trkpt lat="46.80026" lon="-2.08631">
        <ele>5.9</ele>
        <time>2020-06-04T09:47:23Z</time>
      </trkpt>
      <trkpt lat="46.80028" lon="-2.08638">
        <ele>5.8</ele>
        <time>2020-06-04T09:47:24Z</time>
      </trkpt>
      <trkpt lat="46.8003" lon="-2.08646">
        <ele>5.8</ele>
        <time>2020-06-04T09:47:25Z</time>
      </trkpt>
      <trkpt lat="46.80033" lon="-2.08654">
        <ele>5.8</ele>
        <time>2020-06-04T09:47:26Z</time>
      </trkpt>
      <trkpt lat="46.80035" lon="-2.08662">
        <ele>5.8</ele>
        <time>2020-06-04T09:47:27Z</time>
      </trkpt>
      <trkpt lat="46.80037" lon="-2.08669">
        <ele>5.8</ele>
        <time>2020-06-04T09:47:28Z</time>
      </trkpt>
      <trkpt lat="46.80039" lon="-2.08675">
        <ele>5.8</ele>
        <time>2020-06-04T09:47:29Z</time>
      </trkpt>
      <trkpt lat="46.80043" lon="-2.08681">
        <ele>5.8</ele>
        <time>2020-06-04T09:47:30Z</time>
      </trkpt>
      <trkpt lat="46.80047" lon="-2.08688">
        <ele>5.8</ele>
        <time>2020-06-04T09:47:31Z</time>
      </trkpt>
      <trkpt lat="46.80052" lon="-2.08695">
        <ele>5.9</ele>
        <time>2020-06-04T09:47:32Z</time>
      </trkpt>
      <trkpt lat="46.80057" lon="-2.08701">
        <ele>6</ele>
        <time>2020-06-04T09:47:33Z</time>
      </trkpt>
      <trkpt lat="46.80061" lon="-2.08707">
        <ele>6.1</ele>
        <time>2020-06-04T09:47:34Z</time>
      </trkpt>
      <trkpt lat="46.80065" lon="-2.08712">
        <ele>6.2</ele>
        <time>2020-06-04T09:47:35Z</time>
      </trkpt>
      <trkpt lat="46.8007" lon="-2.08716">
        <ele>6.3</ele>
        <time>2020-06-04T09:47:36Z</time>
      </trkpt>
      <trkpt lat="46.80073" lon="-2.08721">
        <ele>6.4</ele>
        <time>2020-06-04T09:47:37Z</time>
      </trkpt>
      <trkpt lat="46.80076" lon="-2.08726">
        <ele>6.5</ele>
        <time>2020-06-04T09:47:38Z</time>
      </trkpt>
      <trkpt lat="46.80079" lon="-2.08733">
        <ele>6.6</ele>
        <time>2020-06-04T09:47:39Z</time>
      </trkpt>
      <trkpt lat="46.80081" lon="-2.08739">
        <ele>6.7</ele>
        <time>2020-06-04T09:47:40Z</time>
      </trkpt>
      <trkpt lat="46.80084" lon="-2.08746">
        <ele>6.9</ele>
        <time>2020-06-04T09:47:41Z</time>
      </trkpt>
      <trkpt lat="46.80086" lon="-2.08753">
        <ele>7</ele>
        <time>2020-06-04T09:47:42Z</time>
      </trkpt>
      <trkpt lat="46.80088" lon="-2.08759">
        <ele>7.2</ele>
        <time>2020-06-04T09:47:43Z</time>
      </trkpt>
      <trkpt lat="46.8009" lon="-2.08764">
        <ele>7.4</ele>
        <time>2020-06-04T09:47:44Z</time>
      </trkpt>
      <trkpt lat="46.80092" lon="-2.0877">
        <ele>7.6</ele>
        <time>2020-06-04T09:47:45Z</time>
      </trkpt>
      <trkpt lat="46.80094" lon="-2.08776">
        <ele>7.9</ele>
        <time>2020-06-04T09:47:46Z</time>
      </trkpt>
      <trkpt lat="46.80095" lon="-2.08782">
        <ele>8.1</ele>
        <time>2020-06-04T09:47:47Z</time>
      </trkpt>
      <trkpt lat="46.80097" lon="-2.08787">
        <ele>8.3</ele>
        <time>2020-06-04T09:47:48Z</time>
      </trkpt>
      <trkpt lat="46.80098" lon="-2.08793">
        <ele>8.5</ele>
        <time>2020-06-04T09:47:49Z</time>
      </trkpt>
      <trkpt lat="46.80099" lon="-2.08798">
        <ele>8.7</ele>
        <time>2020-06-04T09:47:50Z</time>
      </trkpt>
      <trkpt lat="46.801" lon="-2.08804">
        <ele>8.9</ele>
        <time>2020-06-04T09:47:51Z</time>
      </trkpt>
      <trkpt lat="46.801" lon="-2.08809">
        <ele>9.1</ele>
        <time>2020-06-04T09:47:52Z</time>
      </trkpt>
      <trkpt lat="46.80102" lon="-2.08816">
        <ele>9.3</ele>
        <time>2020-06-04T09:47:53Z</time>
      </trkpt>
      <trkpt lat="46.80102" lon="-2.08823">
        <ele>9.4</ele>
        <time>2020-06-04T09:47:54Z</time>
      </trkpt>
      <trkpt lat="46.80103" lon="-2.08828">
        <ele>9.4</ele>
        <time>2020-06-04T09:47:55Z</time>
      </trkpt>
      <trkpt lat="46.80104" lon="-2.08835">
        <ele>9.4</ele>
        <time>2020-06-04T09:47:56Z</time>
      </trkpt>
      <trkpt lat="46.80105" lon="-2.08841">
        <ele>9.6</ele>
        <time>2020-06-04T09:47:57Z</time>
      </trkpt>
      <trkpt lat="46.80105" lon="-2.08846">
        <ele>9.8</ele>
        <time>2020-06-04T09:47:58Z</time>
      </trkpt>
      <trkpt lat="46.80106" lon="-2.08851">
        <ele>10</ele>
        <time>2020-06-04T09:47:59Z</time>
      </trkpt>
      <trkpt lat="46.80107" lon="-2.08856">
        <ele>10.2</ele>
        <time>2020-06-04T09:48:00Z</time>
      </trkpt>
      <trkpt lat="46.80107" lon="-2.08862">
        <ele>10.4</ele>
        <time>2020-06-04T09:48:01Z</time>
      </trkpt>
      <trkpt lat="46.80109" lon="-2.08868">
        <ele>10.8</ele>
        <time>2020-06-04T09:48:02Z</time>
      </trkpt>
      <trkpt lat="46.80111" lon="-2.08874">
        <ele>11</ele>
        <time>2020-06-04T09:48:03Z</time>
      </trkpt>
      <trkpt lat="46.80115" lon="-2.08878">
        <ele>11.3</ele>
        <time>2020-06-04T09:48:04Z</time>
      </trkpt>
      <trkpt lat="46.80118" lon="-2.08883">
        <ele>11.7</ele>
        <time>2020-06-04T09:48:05Z</time>
      </trkpt>
      <trkpt lat="46.80121" lon="-2.08887">
        <ele>12</ele>
        <time>2020-06-04T09:48:06Z</time>
      </trkpt>
      <trkpt lat="46.80123" lon="-2.08893">
        <ele>12.3</ele>
        <time>2020-06-04T09:48:07Z</time>
      </trkpt>
      <trkpt lat="46.80125" lon="-2.08899">
        <ele>12.6</ele>
        <time>2020-06-04T09:48:08Z</time>
      </trkpt>
      <trkpt lat="46.80127" lon="-2.08905">
        <ele>13</ele>
        <time>2020-06-04T09:48:09Z</time>
      </trkpt>
      <trkpt lat="46.80129" lon="-2.08911">
        <ele>13.3</ele>
        <time>2020-06-04T09:48:10Z</time>
      </trkpt>
      <trkpt lat="46.8013" lon="-2.08916">
        <ele>13.6</ele>
        <time>2020-06-04T09:48:11Z</time>
      </trkpt>
      <trkpt lat="46.80132" lon="-2.08922">
        <ele>13.9</ele>
        <time>2020-06-04T09:48:12Z</time>
      </trkpt>
      <trkpt lat="46.80133" lon="-2.08928">
        <ele>14.1</ele>
        <time>2020-06-04T09:48:13Z</time>
      </trkpt>
      <trkpt lat="46.80134" lon="-2.08933">
        <ele>14.4</ele>
        <time>2020-06-04T09:48:14Z</time>
      </trkpt>
      <trkpt lat="46.80135" lon="-2.08938">
        <ele>14.7</ele>
        <time>2020-06-04T09:48:15Z</time>
      </trkpt>
      <trkpt lat="46.80135" lon="-2.08945">
        <ele>15</ele>
        <time>2020-06-04T09:48:16Z</time>
      </trkpt>
      <trkpt lat="46.80136" lon="-2.0895">
        <ele>15.3</ele>
        <time>2020-06-04T09:48:17Z</time>
      </trkpt>
      <trkpt lat="46.80137" lon="-2.08956">
        <ele>15.6</ele>
        <time>2020-06-04T09:48:18Z</time>
      </trkpt>
      <trkpt lat="46.80138" lon="-2.08962">
        <ele>15.8</ele>
        <time>2020-06-04T09:48:19Z</time>
      </trkpt>
      <trkpt lat="46.80139" lon="-2.08967">
        <ele>16.1</ele>
        <time>2020-06-04T09:48:20Z</time>
      </trkpt>
      <trkpt lat="46.80141" lon="-2.08973">
        <ele>16.3</ele>
        <time>2020-06-04T09:48:21Z</time>
      </trkpt>
      <trkpt lat="46.80142" lon="-2.08979">
        <ele>16.6</ele>
        <time>2020-06-04T09:48:22Z</time>
      </trkpt>
      <trkpt lat="46.80143" lon="-2.08984">
        <ele>16.8</ele>
        <time>2020-06-04T09:48:23Z</time>
      </trkpt>
      <trkpt lat="46.80145" lon="-2.0899">
        <ele>17</ele>
        <time>2020-06-04T09:48:24Z</time>
      </trkpt>
      <trkpt lat="46.80147" lon="-2.08995">
        <ele>17.2</ele>
        <time>2020-06-04T09:48:25Z</time>
      </trkpt>
      <trkpt lat="46.80148" lon="-2.09001">
        <ele>17.4</ele>
        <time>2020-06-04T09:48:26Z</time>
      </trkpt>
      <trkpt lat="46.80149" lon="-2.09007">
        <ele>17.6</ele>
        <time>2020-06-04T09:48:27Z</time>
      </trkpt>
      <trkpt lat="46.80149" lon="-2.09013">
        <ele>17.8</ele>
        <time>2020-06-04T09:48:28Z</time>
      </trkpt>
      <trkpt lat="46.80149" lon="-2.09018">
        <ele>18</ele>
        <time>2020-06-04T09:48:29Z</time>
      </trkpt>
      <trkpt lat="46.8015" lon="-2.09025">
        <ele>18.2</ele>
        <time>2020-06-04T09:48:30Z</time>
      </trkpt>
      <trkpt lat="46.80151" lon="-2.09031">
        <ele>18.4</ele>
        <time>2020-06-04T09:48:31Z</time>
      </trkpt>
      <trkpt lat="46.80152" lon="-2.09037">
        <ele>18.6</ele>
        <time>2020-06-04T09:48:32Z</time>
      </trkpt>
      <trkpt lat="46.80152" lon="-2.09043">
        <ele>18.7</ele>
        <time>2020-06-04T09:48:33Z</time>
      </trkpt>
      <trkpt lat="46.80152" lon="-2.0905">
        <ele>18.9</ele>
        <time>2020-06-04T09:48:34Z</time>
      </trkpt>
      <trkpt lat="46.80153" lon="-2.09058">
        <ele>19.2</ele>
        <time>2020-06-04T09:48:35Z</time>
      </trkpt>
      <trkpt lat="46.80153" lon="-2.09066">
        <ele>19.4</ele>
        <time>2020-06-04T09:48:36Z</time>
      </trkpt>
      <trkpt lat="46.80155" lon="-2.09073">
        <ele>19.5</ele>
        <time>2020-06-04T09:48:37Z</time>
      </trkpt>
      <trkpt lat="46.80155" lon="-2.09079">
        <ele>19.6</ele>
        <time>2020-06-04T09:48:38Z</time>
      </trkpt>
      <trkpt lat="46.80156" lon="-2.09084">
        <ele>19.7</ele>
        <time>2020-06-04T09:48:39Z</time>
      </trkpt>
      <trkpt lat="46.80157" lon="-2.0909">
        <ele>19.8</ele>
        <time>2020-06-04T09:48:40Z</time>
      </trkpt>
      <trkpt lat="46.80158" lon="-2.09094">
        <ele>19.8</ele>
        <time>2020-06-04T09:48:41Z</time>
      </trkpt>
      <trkpt lat="46.80159" lon="-2.09099">
        <ele>19.9</ele>
        <time>2020-06-04T09:48:42Z</time>
      </trkpt>
      <trkpt lat="46.80159" lon="-2.09103">
        <ele>19.9</ele>
        <time>2020-06-04T09:48:43Z</time>
      </trkpt>
      <trkpt lat="46.8016" lon="-2.09107">
        <ele>20</ele>
        <time>2020-06-04T09:48:44Z</time>
      </trkpt>
      <trkpt lat="46.80161" lon="-2.09111">
        <ele>20</ele>
        <time>2020-06-04T09:48:45Z</time>
      </trkpt>
      <trkpt lat="46.80161" lon="-2.09115">
        <ele>20</ele>
        <time>2020-06-04T09:48:46Z</time>
      </trkpt>
      <trkpt lat="46.80162" lon="-2.0912">
        <ele>20.1</ele>
        <time>2020-06-04T09:48:47Z</time>
      </trkpt>
      <trkpt lat="46.80162" lon="-2.09122">
        <ele>20.1</ele>
        <time>2020-06-04T09:48:48Z</time>
      </trkpt>
      <trkpt lat="46.80164" lon="-2.09126">
        <ele>20.2</ele>
        <time>2020-06-04T09:48:49Z</time>
      </trkpt>
      <trkpt lat="46.80164" lon="-2.09127">
        <ele>20.2</ele>
        <time>2020-06-04T09:48:50Z</time>
      </trkpt>
      <trkpt lat="46.80166" lon="-2.09131">
        <ele>20.2</ele>
        <time>2020-06-04T09:48:51Z</time>
      </trkpt>
      <trkpt lat="46.80166" lon="-2.09133">
        <ele>20.3</ele>
        <time>2020-06-04T09:48:52Z</time>
      </trkpt>
      <trkpt lat="46.80168" lon="-2.09137">
        <ele>20.3</ele>
        <time>2020-06-04T09:48:53Z</time>
      </trkpt>
      <trkpt lat="46.80168" lon="-2.09139">
        <ele>20.3</ele>
        <time>2020-06-04T09:48:54Z</time>
      </trkpt>
      <trkpt lat="46.8017" lon="-2.09143">
        <ele>20.4</ele>
        <time>2020-06-04T09:48:55Z</time>
      </trkpt>
      <trkpt lat="46.80171" lon="-2.09144">
        <ele>20.4</ele>
        <time>2020-06-04T09:48:56Z</time>
      </trkpt>
      <trkpt lat="46.80172" lon="-2.09145">
        <ele>20.4</ele>
        <time>2020-06-04T09:48:57Z</time>
      </trkpt>
      <trkpt lat="46.80174" lon="-2.09146">
        <ele>20.5</ele>
        <time>2020-06-04T09:48:58Z</time>
      </trkpt>
      <trkpt lat="46.80174" lon="-2.09148">
        <ele>20.5</ele>
        <time>2020-06-04T09:48:59Z</time>
      </trkpt>
      <trkpt lat="46.80175" lon="-2.0915">
        <ele>20.5</ele>
        <time>2020-06-04T09:49:00Z</time>
      </trkpt>
      <trkpt lat="46.80175" lon="-2.09152">
        <ele>20.5</ele>
        <time>2020-06-04T09:49:01Z</time>
      </trkpt>
      <trkpt lat="46.80176" lon="-2.09154">
        <ele>20.5</ele>
        <time>2020-06-04T09:49:02Z</time>
      </trkpt>
      <trkpt lat="46.80177" lon="-2.09157">
        <ele>20.6</ele>
        <time>2020-06-04T09:49:03Z</time>
      </trkpt>
      <trkpt lat="46.80177" lon="-2.09159">
        <ele>20.6</ele>
        <time>2020-06-04T09:49:04Z</time>
      </trkpt>
      <trkpt lat="46.80178" lon="-2.09161">
        <ele>20.6</ele>
        <time>2020-06-04T09:49:05Z</time>
      </trkpt>
      <trkpt lat="46.80178" lon="-2.09163">
        <ele>20.6</ele>
        <time>2020-06-04T09:49:06Z</time>
      </trkpt>
      <trkpt lat="46.8018" lon="-2.09168">
        <ele>20.6</ele>
        <time>2020-06-04T09:49:07Z</time>
      </trkpt>
      <trkpt lat="46.8018" lon="-2.09169">
        <ele>20.6</ele>
        <time>2020-06-04T09:49:08Z</time>
      </trkpt>
      <trkpt lat="46.80181" lon="-2.09174">
        <ele>20.6</ele>
        <time>2020-06-04T09:49:09Z</time>
      </trkpt>
      <trkpt lat="46.80182" lon="-2.09175">
        <ele>20.7</ele>
        <time>2020-06-04T09:49:10Z</time>
      </trkpt>
      <trkpt lat="46.80182" lon="-2.09177">
        <ele>20.7</ele>
        <time>2020-06-04T09:49:11Z</time>
      </trkpt>
      <trkpt lat="46.80183" lon="-2.09179">
        <ele>20.7</ele>
        <time>2020-06-04T09:49:12Z</time>
      </trkpt>
      <trkpt lat="46.80186" lon="-2.09182">
        <ele>20.7</ele>
        <time>2020-06-04T09:49:13Z</time>
      </trkpt>
      <trkpt lat="46.80187" lon="-2.09183">
        <ele>20.7</ele>
        <time>2020-06-04T09:49:14Z</time>
      </trkpt>
      <trkpt lat="46.80189" lon="-2.09187">
        <ele>20.7</ele>
        <time>2020-06-04T09:49:15Z</time>
      </trkpt>
      <trkpt lat="46.80191" lon="-2.09191">
        <ele>20.8</ele>
        <time>2020-06-04T09:49:16Z</time>
      </trkpt>
      <trkpt lat="46.80192" lon="-2.09193">
        <ele>20.8</ele>
        <time>2020-06-04T09:49:17Z</time>
      </trkpt>
      <trkpt lat="46.80193" lon="-2.09197">
        <ele>20.8</ele>
        <time>2020-06-04T09:49:18Z</time>
      </trkpt>
      <trkpt lat="46.80194" lon="-2.09198">
        <ele>20.8</ele>
        <time>2020-06-04T09:49:19Z</time>
      </trkpt>
      <trkpt lat="46.80196" lon="-2.09202">
        <ele>20.8</ele>
        <time>2020-06-04T09:49:20Z</time>
      </trkpt>
      <trkpt lat="46.80196" lon="-2.09203">
        <ele>20.8</ele>
        <time>2020-06-04T09:49:21Z</time>
      </trkpt>
      <trkpt lat="46.80198" lon="-2.09207">
        <ele>20.9</ele>
        <time>2020-06-04T09:49:22Z</time>
      </trkpt>
      <trkpt lat="46.802" lon="-2.09211">
        <ele>20.9</ele>
        <time>2020-06-04T09:49:23Z</time>
      </trkpt>
      <trkpt lat="46.80201" lon="-2.09215">
        <ele>21</ele>
        <time>2020-06-04T09:49:24Z</time>
      </trkpt>
      <trkpt lat="46.80203" lon="-2.09219">
        <ele>21</ele>
        <time>2020-06-04T09:49:25Z</time>
      </trkpt>
      <trkpt lat="46.80204" lon="-2.09223">
        <ele>21.1</ele>
        <time>2020-06-04T09:49:26Z</time>
      </trkpt>
      <trkpt lat="46.80205" lon="-2.09225">
        <ele>21.1</ele>
        <time>2020-06-04T09:49:27Z</time>
      </trkpt>
      <trkpt lat="46.80206" lon="-2.09228">
        <ele>21.2</ele>
        <time>2020-06-04T09:49:28Z</time>
      </trkpt>
      <trkpt lat="46.80208" lon="-2.09233">
        <ele>21.2</ele>
        <time>2020-06-04T09:49:29Z</time>
      </trkpt>
      <trkpt lat="46.80209" lon="-2.09234">
        <ele>21.2</ele>
        <time>2020-06-04T09:49:30Z</time>
      </trkpt>
      <trkpt lat="46.80211" lon="-2.09239">
        <ele>21.3</ele>
        <time>2020-06-04T09:49:31Z</time>
      </trkpt>
      <trkpt lat="46.80211" lon="-2.09241">
        <ele>21.3</ele>
        <time>2020-06-04T09:49:32Z</time>
      </trkpt>
      <trkpt lat="46.80213" lon="-2.09245">
        <ele>21.3</ele>
        <time>2020-06-04T09:49:33Z</time>
      </trkpt>
      <trkpt lat="46.80214" lon="-2.09249">
        <ele>21.4</ele>
        <time>2020-06-04T09:49:34Z</time>
      </trkpt>
      <trkpt lat="46.80216" lon="-2.09253">
        <ele>21.4</ele>
        <time>2020-06-04T09:49:35Z</time>
      </trkpt>
      <trkpt lat="46.80217" lon="-2.09258">
        <ele>21.4</ele>
        <time>2020-06-04T09:49:36Z</time>
      </trkpt>
      <trkpt lat="46.80219" lon="-2.09263">
        <ele>21.4</ele>
        <time>2020-06-04T09:49:37Z</time>
      </trkpt>
      <trkpt lat="46.80221" lon="-2.09268">
        <ele>21.4</ele>
        <time>2020-06-04T09:49:38Z</time>
      </trkpt>
      <trkpt lat="46.80222" lon="-2.09273">
        <ele>21.4</ele>
        <time>2020-06-04T09:49:39Z</time>
      </trkpt>
      <trkpt lat="46.80224" lon="-2.09278">
        <ele>21.4</ele>
        <time>2020-06-04T09:49:40Z</time>
      </trkpt>
      <trkpt lat="46.80226" lon="-2.09284">
        <ele>21.4</ele>
        <time>2020-06-04T09:49:41Z</time>
      </trkpt>
      <trkpt lat="46.80228" lon="-2.0929">
        <ele>21.4</ele>
        <time>2020-06-04T09:49:42Z</time>
      </trkpt>
      <trkpt lat="46.8023" lon="-2.09295">
        <ele>21.4</ele>
        <time>2020-06-04T09:49:43Z</time>
      </trkpt>
      <trkpt lat="46.80233" lon="-2.093">
        <ele>21.4</ele>
        <time>2020-06-04T09:49:44Z</time>
      </trkpt>
      <trkpt lat="46.80235" lon="-2.09305">
        <ele>21.4</ele>
        <time>2020-06-04T09:49:45Z</time>
      </trkpt>
      <trkpt lat="46.80236" lon="-2.0931">
        <ele>21.4</ele>
        <time>2020-06-04T09:49:46Z</time>
      </trkpt>
      <trkpt lat="46.80239" lon="-2.09314">
        <ele>21.4</ele>
        <time>2020-06-04T09:49:47Z</time>
      </trkpt>
      <trkpt lat="46.80241" lon="-2.09319">
        <ele>21.4</ele>
        <time>2020-06-04T09:49:48Z</time>
      </trkpt>
      <trkpt lat="46.80242" lon="-2.09324">
        <ele>21.4</ele>
        <time>2020-06-04T09:49:49Z</time>
      </trkpt>
      <trkpt lat="46.80244" lon="-2.09329">
        <ele>21.4</ele>
        <time>2020-06-04T09:49:50Z</time>
      </trkpt>
      <trkpt lat="46.80244" lon="-2.09334">
        <ele>21.4</ele>
        <time>2020-06-04T09:49:51Z</time>
      </trkpt>
      <trkpt lat="46.80245" lon="-2.09339">
        <ele>21.4</ele>
        <time>2020-06-04T09:49:52Z</time>
      </trkpt>
      <trkpt lat="46.80247" lon="-2.09344">
        <ele>21.4</ele>
        <time>2020-06-04T09:49:53Z</time>
      </trkpt>
      <trkpt lat="46.80247" lon="-2.09349">
        <ele>21.4</ele>
        <time>2020-06-04T09:49:54Z</time>
      </trkpt>
      <trkpt lat="46.80248" lon="-2.09353">
        <ele>21.4</ele>
        <time>2020-06-04T09:49:55Z</time>
      </trkpt>
      <trkpt lat="46.80248" lon="-2.09357">
        <ele>21.4</ele>
        <time>2020-06-04T09:49:56Z</time>
      </trkpt>
      <trkpt lat="46.80249" lon="-2.09361">
        <ele>21.4</ele>
        <time>2020-06-04T09:49:57Z</time>
      </trkpt>
      <trkpt lat="46.80249" lon="-2.09367">
        <ele>21.3</ele>
        <time>2020-06-04T09:49:58Z</time>
      </trkpt>
      <trkpt lat="46.8025" lon="-2.09373">
        <ele>21.3</ele>
        <time>2020-06-04T09:49:59Z</time>
      </trkpt>
      <trkpt lat="46.80251" lon="-2.09379">
        <ele>21.2</ele>
        <time>2020-06-04T09:50:00Z</time>
      </trkpt>
      <trkpt lat="46.80251" lon="-2.09386">
        <ele>21.2</ele>
        <time>2020-06-04T09:50:01Z</time>
      </trkpt>
      <trkpt lat="46.80252" lon="-2.09392">
        <ele>21.1</ele>
        <time>2020-06-04T09:50:02Z</time>
      </trkpt>
      <trkpt lat="46.80253" lon="-2.09399">
        <ele>21.1</ele>
        <time>2020-06-04T09:50:03Z</time>
      </trkpt>
      <trkpt lat="46.80254" lon="-2.09406">
        <ele>21</ele>
        <time>2020-06-04T09:50:04Z</time>
      </trkpt>
      <trkpt lat="46.80255" lon="-2.09413">
        <ele>20.9</ele>
        <time>2020-06-04T09:50:05Z</time>
      </trkpt>
      <trkpt lat="46.80255" lon="-2.0942">
        <ele>20.8</ele>
        <time>2020-06-04T09:50:06Z</time>
      </trkpt>
      <trkpt lat="46.80256" lon="-2.09426">
        <ele>20.7</ele>
        <time>2020-06-04T09:50:07Z</time>
      </trkpt>
      <trkpt lat="46.80259" lon="-2.09431">
        <ele>20.6</ele>
        <time>2020-06-04T09:50:08Z</time>
      </trkpt>
      <trkpt lat="46.80261" lon="-2.09437">
        <ele>20.5</ele>
        <time>2020-06-04T09:50:09Z</time>
      </trkpt>
      <trkpt lat="46.80264" lon="-2.09443">
        <ele>20.4</ele>
        <time>2020-06-04T09:50:10Z</time>
      </trkpt>
      <trkpt lat="46.80266" lon="-2.0945">
        <ele>20.4</ele>
        <time>2020-06-04T09:50:11Z</time>
      </trkpt>
      <trkpt lat="46.80268" lon="-2.09456">
        <ele>20.3</ele>
        <time>2020-06-04T09:50:12Z</time>
      </trkpt>
      <trkpt lat="46.80269" lon="-2.09463">
        <ele>20.2</ele>
        <time>2020-06-04T09:50:13Z</time>
      </trkpt>
      <trkpt lat="46.80269" lon="-2.0947">
        <ele>20.2</ele>
        <time>2020-06-04T09:50:14Z</time>
      </trkpt>
      <trkpt lat="46.80271" lon="-2.09476">
        <ele>20.2</ele>
        <time>2020-06-04T09:50:15Z</time>
      </trkpt>
      <trkpt lat="46.80273" lon="-2.09483">
        <ele>20.3</ele>
        <time>2020-06-04T09:50:16Z</time>
      </trkpt>
      <trkpt lat="46.80274" lon="-2.09489">
        <ele>20.3</ele>
        <time>2020-06-04T09:50:17Z</time>
      </trkpt>
      <trkpt lat="46.80275" lon="-2.09495">
        <ele>20.3</ele>
        <time>2020-06-04T09:50:18Z</time>
      </trkpt>
      <trkpt lat="46.80277" lon="-2.095">
        <ele>20.3</ele>
        <time>2020-06-04T09:50:19Z</time>
      </trkpt>
      <trkpt lat="46.80279" lon="-2.09506">
        <ele>20.4</ele>
        <time>2020-06-04T09:50:20Z</time>
      </trkpt>
      <trkpt lat="46.8028" lon="-2.09513">
        <ele>20.4</ele>
        <time>2020-06-04T09:50:21Z</time>
      </trkpt>
      <trkpt lat="46.80282" lon="-2.09519">
        <ele>20.4</ele>
        <time>2020-06-04T09:50:22Z</time>
      </trkpt>
      <trkpt lat="46.80284" lon="-2.09524">
        <ele>20.5</ele>
        <time>2020-06-04T09:50:23Z</time>
      </trkpt>
      <trkpt lat="46.80285" lon="-2.0953">
        <ele>20.5</ele>
        <time>2020-06-04T09:50:24Z</time>
      </trkpt>
      <trkpt lat="46.80286" lon="-2.09535">
        <ele>20.5</ele>
        <time>2020-06-04T09:50:25Z</time>
      </trkpt>
      <trkpt lat="46.80287" lon="-2.09542">
        <ele>20.4</ele>
        <time>2020-06-04T09:50:26Z</time>
      </trkpt>
      <trkpt lat="46.80288" lon="-2.09548">
        <ele>20.4</ele>
        <time>2020-06-04T09:50:27Z</time>
      </trkpt>
      <trkpt lat="46.80289" lon="-2.09554">
        <ele>20.3</ele>
        <time>2020-06-04T09:50:28Z</time>
      </trkpt>
      <trkpt lat="46.8029" lon="-2.09561">
        <ele>20.2</ele>
        <time>2020-06-04T09:50:29Z</time>
      </trkpt>
      <trkpt lat="46.80292" lon="-2.09568">
        <ele>20</ele>
        <time>2020-06-04T09:50:30Z</time>
      </trkpt>
      <trkpt lat="46.80294" lon="-2.09575">
        <ele>19.9</ele>
        <time>2020-06-04T09:50:31Z</time>
      </trkpt>
      <trkpt lat="46.80296" lon="-2.09582">
        <ele>19.8</ele>
        <time>2020-06-04T09:50:32Z</time>
      </trkpt>
      <trkpt lat="46.80298" lon="-2.09589">
        <ele>19.7</ele>
        <time>2020-06-04T09:50:33Z</time>
      </trkpt>
      <trkpt lat="46.80301" lon="-2.09596">
        <ele>19.5</ele>
        <time>2020-06-04T09:50:34Z</time>
      </trkpt>
      <trkpt lat="46.80304" lon="-2.09602">
        <ele>19.4</ele>
        <time>2020-06-04T09:50:35Z</time>
      </trkpt>
      <trkpt lat="46.80306" lon="-2.09609">
        <ele>19.3</ele>
        <time>2020-06-04T09:50:36Z</time>
      </trkpt>
      <trkpt lat="46.80309" lon="-2.09614">
        <ele>19.2</ele>
        <time>2020-06-04T09:50:37Z</time>
      </trkpt>
      <trkpt lat="46.80311" lon="-2.09621">
        <ele>19</ele>
        <time>2020-06-04T09:50:38Z</time>
      </trkpt>
      <trkpt lat="46.80314" lon="-2.09627">
        <ele>18.8</ele>
        <time>2020-06-04T09:50:39Z</time>
      </trkpt>
      <trkpt lat="46.80317" lon="-2.09634">
        <ele>18.5</ele>
        <time>2020-06-04T09:50:40Z</time>
      </trkpt>
      <trkpt lat="46.8032" lon="-2.0964">
        <ele>18.3</ele>
        <time>2020-06-04T09:50:41Z</time>
      </trkpt>
      <trkpt lat="46.80324" lon="-2.09646">
        <ele>18</ele>
        <time>2020-06-04T09:50:42Z</time>
      </trkpt>
      <trkpt lat="46.80327" lon="-2.09652">
        <ele>17.7</ele>
        <time>2020-06-04T09:50:43Z</time>
      </trkpt>
      <trkpt lat="46.80331" lon="-2.09658">
        <ele>17.4</ele>
        <time>2020-06-04T09:50:44Z</time>
      </trkpt>
      <trkpt lat="46.80335" lon="-2.09666">
        <ele>17.1</ele>
        <time>2020-06-04T09:50:45Z</time>
      </trkpt>
      <trkpt lat="46.80338" lon="-2.09676">
        <ele>16.8</ele>
        <time>2020-06-04T09:50:46Z</time>
      </trkpt>
      <trkpt lat="46.8034" lon="-2.09687">
        <ele>16.6</ele>
        <time>2020-06-04T09:50:47Z</time>
      </trkpt>
      <trkpt lat="46.80342" lon="-2.09698">
        <ele>16.6</ele>
        <time>2020-06-04T09:50:48Z</time>
      </trkpt>
      <trkpt lat="46.80344" lon="-2.09709">
        <ele>16.5</ele>
        <time>2020-06-04T09:50:49Z</time>
      </trkpt>
      <trkpt lat="46.80347" lon="-2.09722">
        <ele>16.5</ele>
        <time>2020-06-04T09:50:50Z</time>
      </trkpt>
      <trkpt lat="46.8035" lon="-2.09732">
        <ele>16.4</ele>
        <time>2020-06-04T09:50:51Z</time>
      </trkpt>
      <trkpt lat="46.80355" lon="-2.09741">
        <ele>16.4</ele>
        <time>2020-06-04T09:50:52Z</time>
      </trkpt>
      <trkpt lat="46.8036" lon="-2.09751">
        <ele>16.4</ele>
        <time>2020-06-04T09:50:53Z</time>
      </trkpt>
      <trkpt lat="46.80364" lon="-2.09758">
        <ele>16.3</ele>
        <time>2020-06-04T09:50:54Z</time>
      </trkpt>
      <trkpt lat="46.80367" lon="-2.09764">
        <ele>16.4</ele>
        <time>2020-06-04T09:50:55Z</time>
      </trkpt>
      <trkpt lat="46.80371" lon="-2.09772">
        <ele>16.4</ele>
        <time>2020-06-04T09:50:56Z</time>
      </trkpt>
      <trkpt lat="46.80374" lon="-2.09778">
        <ele>16.4</ele>
        <time>2020-06-04T09:50:57Z</time>
      </trkpt>
      <trkpt lat="46.80377" lon="-2.09784">
        <ele>16.4</ele>
        <time>2020-06-04T09:50:58Z</time>
      </trkpt>
      <trkpt lat="46.80378" lon="-2.09791">
        <ele>16.5</ele>
        <time>2020-06-04T09:50:59Z</time>
      </trkpt>
      <trkpt lat="46.80379" lon="-2.09796">
        <ele>16.5</ele>
        <time>2020-06-04T09:51:00Z</time>
      </trkpt>
      <trkpt lat="46.8038" lon="-2.09801">
        <ele>16.5</ele>
        <time>2020-06-04T09:51:01Z</time>
      </trkpt>
      <trkpt lat="46.80381" lon="-2.09806">
        <ele>16.5</ele>
        <time>2020-06-04T09:51:02Z</time>
      </trkpt>
      <trkpt lat="46.80383" lon="-2.09811">
        <ele>16.5</ele>
        <time>2020-06-04T09:51:03Z</time>
      </trkpt>
      <trkpt lat="46.80386" lon="-2.09816">
        <ele>16.5</ele>
        <time>2020-06-04T09:51:04Z</time>
      </trkpt>
      <trkpt lat="46.80388" lon="-2.09821">
        <ele>16.4</ele>
        <time>2020-06-04T09:51:05Z</time>
      </trkpt>
      <trkpt lat="46.80391" lon="-2.09824">
        <ele>16.4</ele>
        <time>2020-06-04T09:51:06Z</time>
      </trkpt>
      <trkpt lat="46.80395" lon="-2.09827">
        <ele>16.4</ele>
        <time>2020-06-04T09:51:07Z</time>
      </trkpt>
      <trkpt lat="46.80399" lon="-2.09829">
        <ele>16.4</ele>
        <time>2020-06-04T09:51:08Z</time>
      </trkpt>
      <trkpt lat="46.80403" lon="-2.09832">
        <ele>16.4</ele>
        <time>2020-06-04T09:51:09Z</time>
      </trkpt>
      <trkpt lat="46.80407" lon="-2.09835">
        <ele>16.3</ele>
        <time>2020-06-04T09:51:10Z</time>
      </trkpt>
      <trkpt lat="46.80412" lon="-2.09838">
        <ele>16.3</ele>
        <time>2020-06-04T09:51:11Z</time>
      </trkpt>
      <trkpt lat="46.80416" lon="-2.09839">
        <ele>16.1</ele>
        <time>2020-06-04T09:51:12Z</time>
      </trkpt>
      <trkpt lat="46.80421" lon="-2.09842">
        <ele>15.9</ele>
        <time>2020-06-04T09:51:13Z</time>
      </trkpt>
      <trkpt lat="46.80425" lon="-2.09845">
        <ele>15.8</ele>
        <time>2020-06-04T09:51:14Z</time>
      </trkpt>
      <trkpt lat="46.80428" lon="-2.09848">
        <ele>15.6</ele>
        <time>2020-06-04T09:51:15Z</time>
      </trkpt>
      <trkpt lat="46.80432" lon="-2.09853">
        <ele>15.3</ele>
        <time>2020-06-04T09:51:16Z</time>
      </trkpt>
      <trkpt lat="46.80436" lon="-2.09857">
        <ele>15</ele>
        <time>2020-06-04T09:51:17Z</time>
      </trkpt>
      <trkpt lat="46.80441" lon="-2.09861">
        <ele>14.7</ele>
        <time>2020-06-04T09:51:18Z</time>
      </trkpt>
      <trkpt lat="46.80445" lon="-2.09866">
        <ele>14.4</ele>
        <time>2020-06-04T09:51:19Z</time>
      </trkpt>
      <trkpt lat="46.80449" lon="-2.09872">
        <ele>14</ele>
        <time>2020-06-04T09:51:20Z</time>
      </trkpt>
      <trkpt lat="46.80453" lon="-2.09879">
        <ele>13.6</ele>
        <time>2020-06-04T09:51:21Z</time>
      </trkpt>
      <trkpt lat="46.80457" lon="-2.09887">
        <ele>13.1</ele>
        <time>2020-06-04T09:51:22Z</time>
      </trkpt>
      <trkpt lat="46.8046" lon="-2.09895">
        <ele>12.6</ele>
        <time>2020-06-04T09:51:23Z</time>
      </trkpt>
      <trkpt lat="46.80464" lon="-2.09904">
        <ele>12.2</ele>
        <time>2020-06-04T09:51:24Z</time>
      </trkpt>
      <trkpt lat="46.80467" lon="-2.09913">
        <ele>11.7</ele>
        <time>2020-06-04T09:51:25Z</time>
      </trkpt>
      <trkpt lat="46.80469" lon="-2.09922">
        <ele>11.2</ele>
        <time>2020-06-04T09:51:26Z</time>
      </trkpt>
      <trkpt lat="46.80471" lon="-2.09933">
        <ele>10.6</ele>
        <time>2020-06-04T09:51:27Z</time>
      </trkpt>
      <trkpt lat="46.80473" lon="-2.09945">
        <ele>10</ele>
        <time>2020-06-04T09:51:28Z</time>
      </trkpt>
      <trkpt lat="46.80475" lon="-2.09955">
        <ele>9.6</ele>
        <time>2020-06-04T09:51:29Z</time>
      </trkpt>
      <trkpt lat="46.80477" lon="-2.09966">
        <ele>9.3</ele>
        <time>2020-06-04T09:51:30Z</time>
      </trkpt>
      <trkpt lat="46.80482" lon="-2.09975">
        <ele>9.1</ele>
        <time>2020-06-04T09:51:31Z</time>
      </trkpt>
      <trkpt lat="46.80485" lon="-2.09986">
        <ele>9</ele>
        <time>2020-06-04T09:51:32Z</time>
      </trkpt>
      <trkpt lat="46.8049" lon="-2.09997">
        <ele>8.9</ele>
        <time>2020-06-04T09:51:33Z</time>
      </trkpt>
      <trkpt lat="46.80494" lon="-2.10008">
        <ele>8.5</ele>
        <time>2020-06-04T09:51:34Z</time>
      </trkpt>
      <trkpt lat="46.80497" lon="-2.10019">
        <ele>8.1</ele>
        <time>2020-06-04T09:51:35Z</time>
      </trkpt>
      <trkpt lat="46.805" lon="-2.1003">
        <ele>7.8</ele>
        <time>2020-06-04T09:51:36Z</time>
      </trkpt>
      <trkpt lat="46.80502" lon="-2.10042">
        <ele>7.4</ele>
        <time>2020-06-04T09:51:37Z</time>
      </trkpt>
      <trkpt lat="46.80504" lon="-2.10053">
        <ele>7</ele>
        <time>2020-06-04T09:51:38Z</time>
      </trkpt>
      <trkpt lat="46.80507" lon="-2.10064">
        <ele>6.7</ele>
        <time>2020-06-04T09:51:39Z</time>
      </trkpt>
      <trkpt lat="46.80508" lon="-2.10073">
        <ele>6.5</ele>
        <time>2020-06-04T09:51:40Z</time>
      </trkpt>
      <trkpt lat="46.80509" lon="-2.10083">
        <ele>6.2</ele>
        <time>2020-06-04T09:51:41Z</time>
      </trkpt>
      <trkpt lat="46.80509" lon="-2.10091">
        <ele>6.1</ele>
        <time>2020-06-04T09:51:42Z</time>
      </trkpt>
      <trkpt lat="46.80509" lon="-2.10098">
        <ele>6</ele>
        <time>2020-06-04T09:51:43Z</time>
      </trkpt>
      <trkpt lat="46.80509" lon="-2.10106">
        <ele>5.9</ele>
        <time>2020-06-04T09:51:44Z</time>
      </trkpt>
      <trkpt lat="46.80508" lon="-2.10113">
        <ele>5.8</ele>
        <time>2020-06-04T09:51:45Z</time>
      </trkpt>
      <trkpt lat="46.80507" lon="-2.10118">
        <ele>5.7</ele>
        <time>2020-06-04T09:51:46Z</time>
      </trkpt>
      <trkpt lat="46.80507" lon="-2.10122">
        <ele>5.7</ele>
        <time>2020-06-04T09:51:47Z</time>
      </trkpt>
      <trkpt lat="46.80507" lon="-2.10123">
        <ele>5.7</ele>
        <time>2020-06-04T09:51:48Z</time>
      </trkpt>
      <trkpt lat="46.80506" lon="-2.10129">
        <ele>5.7</ele>
        <time>2020-06-04T09:51:49Z</time>
      </trkpt>
      <trkpt lat="46.80506" lon="-2.10131">
        <ele>5.7</ele>
        <time>2020-06-04T09:51:50Z</time>
      </trkpt>
      <trkpt lat="46.80508" lon="-2.10135">
        <ele>5.8</ele>
        <time>2020-06-04T09:51:51Z</time>
      </trkpt>
      <trkpt lat="46.80508" lon="-2.10136">
        <ele>5.8</ele>
        <time>2020-06-04T09:51:52Z</time>
      </trkpt>
      <trkpt lat="46.80508" lon="-2.10138">
        <ele>5.8</ele>
        <time>2020-06-04T09:51:53Z</time>
      </trkpt>
      <trkpt lat="46.8051" lon="-2.10139">
        <ele>5.8</ele>
        <time>2020-06-04T09:51:54Z</time>
      </trkpt>
      <trkpt lat="46.80511" lon="-2.1014">
        <ele>5.8</ele>
        <time>2020-06-04T09:51:55Z</time>
      </trkpt>
      <trkpt lat="46.80512" lon="-2.10142">
        <ele>5.8</ele>
        <time>2020-06-04T09:51:56Z</time>
      </trkpt>
      <trkpt lat="46.80514" lon="-2.10147">
        <ele>5.8</ele>
        <time>2020-06-04T09:51:57Z</time>
      </trkpt>
      <trkpt lat="46.80514" lon="-2.10148">
        <ele>5.8</ele>
        <time>2020-06-04T09:51:58Z</time>
      </trkpt>
      <trkpt lat="46.80516" lon="-2.1015">
        <ele>5.8</ele>
        <time>2020-06-04T09:51:59Z</time>
      </trkpt>
      <trkpt lat="46.80516" lon="-2.10151">
        <ele>5.8</ele>
        <time>2020-06-04T09:52:00Z</time>
      </trkpt>
      <trkpt lat="46.80518" lon="-2.10153">
        <ele>5.8</ele>
        <time>2020-06-04T09:52:01Z</time>
      </trkpt>
      <trkpt lat="46.80519" lon="-2.10153">
        <ele>5.8</ele>
        <time>2020-06-04T09:52:02Z</time>
      </trkpt>
      <trkpt lat="46.8052" lon="-2.10154">
        <ele>5.7</ele>
        <time>2020-06-04T09:52:03Z</time>
      </trkpt>
      <trkpt lat="46.80522" lon="-2.10157">
        <ele>5.7</ele>
        <time>2020-06-04T09:52:04Z</time>
      </trkpt>
      <trkpt lat="46.80522" lon="-2.10159">
        <ele>5.7</ele>
        <time>2020-06-04T09:52:05Z</time>
      </trkpt>
      <trkpt lat="46.80524" lon="-2.10164">
        <ele>5.7</ele>
        <time>2020-06-04T09:52:06Z</time>
      </trkpt>
      <trkpt lat="46.80525" lon="-2.10165">
        <ele>5.7</ele>
        <time>2020-06-04T09:52:07Z</time>
      </trkpt>
      <trkpt lat="46.80526" lon="-2.10169">
        <ele>5.7</ele>
        <time>2020-06-04T09:52:08Z</time>
      </trkpt>
      <trkpt lat="46.80527" lon="-2.10174">
        <ele>5.7</ele>
        <time>2020-06-04T09:52:09Z</time>
      </trkpt>
      <trkpt lat="46.80529" lon="-2.10178">
        <ele>5.7</ele>
        <time>2020-06-04T09:52:10Z</time>
      </trkpt>
      <trkpt lat="46.80531" lon="-2.10183">
        <ele>5.7</ele>
        <time>2020-06-04T09:52:11Z</time>
      </trkpt>
      <trkpt lat="46.80533" lon="-2.10186">
        <ele>5.7</ele>
        <time>2020-06-04T09:52:12Z</time>
      </trkpt>
      <trkpt lat="46.80535" lon="-2.10191">
        <ele>5.7</ele>
        <time>2020-06-04T09:52:13Z</time>
      </trkpt>
      <trkpt lat="46.80537" lon="-2.10196">
        <ele>5.7</ele>
        <time>2020-06-04T09:52:14Z</time>
      </trkpt>
      <trkpt lat="46.8054" lon="-2.102">
        <ele>5.7</ele>
        <time>2020-06-04T09:52:15Z</time>
      </trkpt>
      <trkpt lat="46.80541" lon="-2.10204">
        <ele>5.7</ele>
        <time>2020-06-04T09:52:16Z</time>
      </trkpt>
      <trkpt lat="46.80543" lon="-2.10208">
        <ele>5.7</ele>
        <time>2020-06-04T09:52:17Z</time>
      </trkpt>
      <trkpt lat="46.80543" lon="-2.10213">
        <ele>5.7</ele>
        <time>2020-06-04T09:52:18Z</time>
      </trkpt>
      <trkpt lat="46.80546" lon="-2.10216">
        <ele>5.7</ele>
        <time>2020-06-04T09:52:19Z</time>
      </trkpt>
      <trkpt lat="46.80547" lon="-2.10219">
        <ele>5.7</ele>
        <time>2020-06-04T09:52:20Z</time>
      </trkpt>
      <trkpt lat="46.80548" lon="-2.10224">
        <ele>5.8</ele>
        <time>2020-06-04T09:52:21Z</time>
      </trkpt>
      <trkpt lat="46.80548" lon="-2.1023">
        <ele>5.8</ele>
        <time>2020-06-04T09:52:22Z</time>
      </trkpt>
      <trkpt lat="46.80549" lon="-2.10237">
        <ele>5.8</ele>
        <time>2020-06-04T09:52:23Z</time>
      </trkpt>
      <trkpt lat="46.8055" lon="-2.10243">
        <ele>5.8</ele>
        <time>2020-06-04T09:52:24Z</time>
      </trkpt>
      <trkpt lat="46.80551" lon="-2.1025">
        <ele>5.8</ele>
        <time>2020-06-04T09:52:25Z</time>
      </trkpt>
      <trkpt lat="46.80552" lon="-2.10256">
        <ele>5.9</ele>
        <time>2020-06-04T09:52:26Z</time>
      </trkpt>
      <trkpt lat="46.80552" lon="-2.10262">
        <ele>5.9</ele>
        <time>2020-06-04T09:52:27Z</time>
      </trkpt>
      <trkpt lat="46.80553" lon="-2.10267">
        <ele>5.9</ele>
        <time>2020-06-04T09:52:28Z</time>
      </trkpt>
      <trkpt lat="46.80554" lon="-2.10273">
        <ele>6</ele>
        <time>2020-06-04T09:52:29Z</time>
      </trkpt>
      <trkpt lat="46.80556" lon="-2.10278">
        <ele>6</ele>
        <time>2020-06-04T09:52:30Z</time>
      </trkpt>
      <trkpt lat="46.80557" lon="-2.10282">
        <ele>6</ele>
        <time>2020-06-04T09:52:31Z</time>
      </trkpt>
      <trkpt lat="46.80558" lon="-2.10287">
        <ele>6.1</ele>
        <time>2020-06-04T09:52:32Z</time>
      </trkpt>
      <trkpt lat="46.80559" lon="-2.10293">
        <ele>6.2</ele>
        <time>2020-06-04T09:52:33Z</time>
      </trkpt>
      <trkpt lat="46.80561" lon="-2.10299">
        <ele>6.2</ele>
        <time>2020-06-04T09:52:34Z</time>
      </trkpt>
      <trkpt lat="46.80563" lon="-2.10304">
        <ele>6.3</ele>
        <time>2020-06-04T09:52:35Z</time>
      </trkpt>
      <trkpt lat="46.80565" lon="-2.1031">
        <ele>6.4</ele>
        <time>2020-06-04T09:52:36Z</time>
      </trkpt>
      <trkpt lat="46.80567" lon="-2.10315">
        <ele>6.5</ele>
        <time>2020-06-04T09:52:37Z</time>
      </trkpt>
      <trkpt lat="46.80569" lon="-2.10321">
        <ele>6.5</ele>
        <time>2020-06-04T09:52:38Z</time>
      </trkpt>
      <trkpt lat="46.8057" lon="-2.10326">
        <ele>6.6</ele>
        <time>2020-06-04T09:52:39Z</time>
      </trkpt>
      <trkpt lat="46.80572" lon="-2.10331">
        <ele>6.6</ele>
        <time>2020-06-04T09:52:40Z</time>
      </trkpt>
      <trkpt lat="46.80574" lon="-2.10335">
        <ele>6.7</ele>
        <time>2020-06-04T09:52:41Z</time>
      </trkpt>
      <trkpt lat="46.80575" lon="-2.10341">
        <ele>6.7</ele>
        <time>2020-06-04T09:52:42Z</time>
      </trkpt>
      <trkpt lat="46.80576" lon="-2.10347">
        <ele>6.7</ele>
        <time>2020-06-04T09:52:43Z</time>
      </trkpt>
      <trkpt lat="46.80577" lon="-2.10354">
        <ele>6.7</ele>
        <time>2020-06-04T09:52:44Z</time>
      </trkpt>
      <trkpt lat="46.80578" lon="-2.10361">
        <ele>6.7</ele>
        <time>2020-06-04T09:52:45Z</time>
      </trkpt>
      <trkpt lat="46.80578" lon="-2.10368">
        <ele>6.7</ele>
        <time>2020-06-04T09:52:46Z</time>
      </trkpt>
      <trkpt lat="46.80579" lon="-2.10375">
        <ele>6.7</ele>
        <time>2020-06-04T09:52:47Z</time>
      </trkpt>
      <trkpt lat="46.8058" lon="-2.10383">
        <ele>6.7</ele>
        <time>2020-06-04T09:52:48Z</time>
      </trkpt>
      <trkpt lat="46.80578" lon="-2.1039">
        <ele>6.7</ele>
        <time>2020-06-04T09:52:49Z</time>
      </trkpt>
      <trkpt lat="46.80578" lon="-2.10398">
        <ele>6.6</ele>
        <time>2020-06-04T09:52:50Z</time>
      </trkpt>
      <trkpt lat="46.80578" lon="-2.10404">
        <ele>6.6</ele>
        <time>2020-06-04T09:52:51Z</time>
      </trkpt>
      <trkpt lat="46.8058" lon="-2.10411">
        <ele>6.6</ele>
        <time>2020-06-04T09:52:52Z</time>
      </trkpt>
      <trkpt lat="46.80581" lon="-2.10417">
        <ele>6.6</ele>
        <time>2020-06-04T09:52:53Z</time>
      </trkpt>
      <trkpt lat="46.80582" lon="-2.10423">
        <ele>6.6</ele>
        <time>2020-06-04T09:52:54Z</time>
      </trkpt>
      <trkpt lat="46.80583" lon="-2.1043">
        <ele>6.6</ele>
        <time>2020-06-04T09:52:55Z</time>
      </trkpt>
      <trkpt lat="46.80585" lon="-2.10435">
        <ele>6.6</ele>
        <time>2020-06-04T09:52:56Z</time>
      </trkpt>
      <trkpt lat="46.80585" lon="-2.10442">
        <ele>6.7</ele>
        <time>2020-06-04T09:52:57Z</time>
      </trkpt>
      <trkpt lat="46.80586" lon="-2.10448">
        <ele>6.7</ele>
        <time>2020-06-04T09:52:58Z</time>
      </trkpt>
      <trkpt lat="46.80587" lon="-2.10454">
        <ele>6.7</ele>
        <time>2020-06-04T09:52:59Z</time>
      </trkpt>
      <trkpt lat="46.80588" lon="-2.1046">
        <ele>6.8</ele>
        <time>2020-06-04T09:53:00Z</time>
      </trkpt>
      <trkpt lat="46.80588" lon="-2.10467">
        <ele>6.8</ele>
        <time>2020-06-04T09:53:01Z</time>
      </trkpt>
      <trkpt lat="46.80588" lon="-2.10473">
        <ele>6.9</ele>
        <time>2020-06-04T09:53:02Z</time>
      </trkpt>
      <trkpt lat="46.80591" lon="-2.10479">
        <ele>6.9</ele>
        <time>2020-06-04T09:53:03Z</time>
      </trkpt>
      <trkpt lat="46.80591" lon="-2.10485">
        <ele>7</ele>
        <time>2020-06-04T09:53:04Z</time>
      </trkpt>
      <trkpt lat="46.80592" lon="-2.10492">
        <ele>7.1</ele>
        <time>2020-06-04T09:53:05Z</time>
      </trkpt>
      <trkpt lat="46.80592" lon="-2.10498">
        <ele>7.2</ele>
        <time>2020-06-04T09:53:06Z</time>
      </trkpt>
      <trkpt lat="46.80593" lon="-2.10504">
        <ele>7.3</ele>
        <time>2020-06-04T09:53:07Z</time>
      </trkpt>
      <trkpt lat="46.80593" lon="-2.1051">
        <ele>7.4</ele>
        <time>2020-06-04T09:53:08Z</time>
      </trkpt>
      <trkpt lat="46.80593" lon="-2.10516">
        <ele>7.6</ele>
        <time>2020-06-04T09:53:09Z</time>
      </trkpt>
      <trkpt lat="46.80593" lon="-2.10523">
        <ele>7.7</ele>
        <time>2020-06-04T09:53:10Z</time>
      </trkpt>
      <trkpt lat="46.80594" lon="-2.10529">
        <ele>7.9</ele>
        <time>2020-06-04T09:53:11Z</time>
      </trkpt>
      <trkpt lat="46.80594" lon="-2.10536">
        <ele>8</ele>
        <time>2020-06-04T09:53:12Z</time>
      </trkpt>
      <trkpt lat="46.80594" lon="-2.10542">
        <ele>8.2</ele>
        <time>2020-06-04T09:53:13Z</time>
      </trkpt>
      <trkpt lat="46.80595" lon="-2.10549">
        <ele>8.4</ele>
        <time>2020-06-04T09:53:14Z</time>
      </trkpt>
      <trkpt lat="46.80596" lon="-2.10556">
        <ele>8.6</ele>
        <time>2020-06-04T09:53:15Z</time>
      </trkpt>
      <trkpt lat="46.80596" lon="-2.10563">
        <ele>8.8</ele>
        <time>2020-06-04T09:53:16Z</time>
      </trkpt>
      <trkpt lat="46.80596" lon="-2.10569">
        <ele>9</ele>
        <time>2020-06-04T09:53:17Z</time>
      </trkpt>
      <trkpt lat="46.80597" lon="-2.10574">
        <ele>9.2</ele>
        <time>2020-06-04T09:53:18Z</time>
      </trkpt>
      <trkpt lat="46.80599" lon="-2.10579">
        <ele>9.4</ele>
        <time>2020-06-04T09:53:19Z</time>
      </trkpt>
      <trkpt lat="46.80599" lon="-2.10585">
        <ele>9.5</ele>
        <time>2020-06-04T09:53:20Z</time>
      </trkpt>
      <trkpt lat="46.806" lon="-2.1059">
        <ele>9.7</ele>
        <time>2020-06-04T09:53:21Z</time>
      </trkpt>
      <trkpt lat="46.80601" lon="-2.10595">
        <ele>9.8</ele>
        <time>2020-06-04T09:53:22Z</time>
      </trkpt>
      <trkpt lat="46.80601" lon="-2.10599">
        <ele>9.9</ele>
        <time>2020-06-04T09:53:23Z</time>
      </trkpt>
      <trkpt lat="46.80601" lon="-2.10604">
        <ele>10</ele>
        <time>2020-06-04T09:53:24Z</time>
      </trkpt>
      <trkpt lat="46.80602" lon="-2.10609">
        <ele>10.1</ele>
        <time>2020-06-04T09:53:25Z</time>
      </trkpt>
      <trkpt lat="46.80604" lon="-2.10614">
        <ele>10.2</ele>
        <time>2020-06-04T09:53:26Z</time>
      </trkpt>
      <trkpt lat="46.80604" lon="-2.10619">
        <ele>10.3</ele>
        <time>2020-06-04T09:53:27Z</time>
      </trkpt>
      <trkpt lat="46.80604" lon="-2.10625">
        <ele>10.4</ele>
        <time>2020-06-04T09:53:28Z</time>
      </trkpt>
      <trkpt lat="46.80604" lon="-2.1063">
        <ele>10.5</ele>
        <time>2020-06-04T09:53:29Z</time>
      </trkpt>
      <trkpt lat="46.80604" lon="-2.10637">
        <ele>10.5</ele>
        <time>2020-06-04T09:53:30Z</time>
      </trkpt>
      <trkpt lat="46.80606" lon="-2.10643">
        <ele>10.5</ele>
        <time>2020-06-04T09:53:31Z</time>
      </trkpt>
      <trkpt lat="46.80607" lon="-2.10649">
        <ele>10.5</ele>
        <time>2020-06-04T09:53:32Z</time>
      </trkpt>
      <trkpt lat="46.80609" lon="-2.10656">
        <ele>10.4</ele>
        <time>2020-06-04T09:53:33Z</time>
      </trkpt>
      <trkpt lat="46.80611" lon="-2.10665">
        <ele>10.4</ele>
        <time>2020-06-04T09:53:34Z</time>
      </trkpt>
      <trkpt lat="46.80613" lon="-2.10673">
        <ele>10.3</ele>
        <time>2020-06-04T09:53:35Z</time>
      </trkpt>
      <trkpt lat="46.80615" lon="-2.10682">
        <ele>10.2</ele>
        <time>2020-06-04T09:53:36Z</time>
      </trkpt>
      <trkpt lat="46.80617" lon="-2.1069">
        <ele>10</ele>
        <time>2020-06-04T09:53:37Z</time>
      </trkpt>
      <trkpt lat="46.8062" lon="-2.10699">
        <ele>9.8</ele>
        <time>2020-06-04T09:53:38Z</time>
      </trkpt>
      <trkpt lat="46.80624" lon="-2.10711">
        <ele>9.4</ele>
        <time>2020-06-04T09:53:39Z</time>
      </trkpt>
      <trkpt lat="46.80629" lon="-2.10723">
        <ele>9</ele>
        <time>2020-06-04T09:53:40Z</time>
      </trkpt>
      <trkpt lat="46.80635" lon="-2.10732">
        <ele>8.6</ele>
        <time>2020-06-04T09:53:41Z</time>
      </trkpt>
      <trkpt lat="46.80641" lon="-2.1074">
        <ele>8.2</ele>
        <time>2020-06-04T09:53:42Z</time>
      </trkpt>
      <trkpt lat="46.80646" lon="-2.10748">
        <ele>7.9</ele>
        <time>2020-06-04T09:53:43Z</time>
      </trkpt>
      <trkpt lat="46.80652" lon="-2.10758">
        <ele>7.5</ele>
        <time>2020-06-04T09:53:44Z</time>
      </trkpt>
      <trkpt lat="46.80657" lon="-2.10768">
        <ele>7.1</ele>
        <time>2020-06-04T09:53:45Z</time>
      </trkpt>
      <trkpt lat="46.80664" lon="-2.10781">
        <ele>6.6</ele>
        <time>2020-06-04T09:53:46Z</time>
      </trkpt>
      <trkpt lat="46.8067" lon="-2.10793">
        <ele>6.2</ele>
        <time>2020-06-04T09:53:47Z</time>
      </trkpt>
      <trkpt lat="46.80676" lon="-2.10804">
        <ele>6</ele>
        <time>2020-06-04T09:53:48Z</time>
      </trkpt>
      <trkpt lat="46.80681" lon="-2.10812">
        <ele>5.8</ele>
        <time>2020-06-04T09:53:49Z</time>
      </trkpt>
      <trkpt lat="46.80687" lon="-2.10819">
        <ele>5.7</ele>
        <time>2020-06-04T09:53:50Z</time>
      </trkpt>
      <trkpt lat="46.80692" lon="-2.10827">
        <ele>5.7</ele>
        <time>2020-06-04T09:53:51Z</time>
      </trkpt>
      <trkpt lat="46.80697" lon="-2.10836">
        <ele>5.6</ele>
        <time>2020-06-04T09:53:52Z</time>
      </trkpt>
      <trkpt lat="46.807" lon="-2.10844">
        <ele>5.6</ele>
        <time>2020-06-04T09:53:53Z</time>
      </trkpt>
      <trkpt lat="46.80706" lon="-2.10853">
        <ele>5.6</ele>
        <time>2020-06-04T09:53:54Z</time>
      </trkpt>
      <trkpt lat="46.8071" lon="-2.10861">
        <ele>5.6</ele>
        <time>2020-06-04T09:53:55Z</time>
      </trkpt>
      <trkpt lat="46.80714" lon="-2.10867">
        <ele>5.6</ele>
        <time>2020-06-04T09:53:56Z</time>
      </trkpt>
      <trkpt lat="46.80716" lon="-2.10871">
        <ele>5.6</ele>
        <time>2020-06-04T09:53:57Z</time>
      </trkpt>
      <trkpt lat="46.8072" lon="-2.10879">
        <ele>5.7</ele>
        <time>2020-06-04T09:53:58Z</time>
      </trkpt>
      <trkpt lat="46.80723" lon="-2.10885">
        <ele>5.7</ele>
        <time>2020-06-04T09:53:59Z</time>
      </trkpt>
      <trkpt lat="46.80726" lon="-2.10891">
        <ele>5.8</ele>
        <time>2020-06-04T09:54:00Z</time>
      </trkpt>
      <trkpt lat="46.80731" lon="-2.10897">
        <ele>5.9</ele>
        <time>2020-06-04T09:54:01Z</time>
      </trkpt>
      <trkpt lat="46.80734" lon="-2.10903">
        <ele>6</ele>
        <time>2020-06-04T09:54:02Z</time>
      </trkpt>
      <trkpt lat="46.80737" lon="-2.10907">
        <ele>6.1</ele>
        <time>2020-06-04T09:54:03Z</time>
      </trkpt>
      <trkpt lat="46.80742" lon="-2.10911">
        <ele>6.1</ele>
        <time>2020-06-04T09:54:04Z</time>
      </trkpt>
      <trkpt lat="46.80746" lon="-2.10916">
        <ele>6.1</ele>
        <time>2020-06-04T09:54:05Z</time>
      </trkpt>
      <trkpt lat="46.80749" lon="-2.10921">
        <ele>6.1</ele>
        <time>2020-06-04T09:54:06Z</time>
      </trkpt>
      <trkpt lat="46.80752" lon="-2.10927">
        <ele>6.1</ele>
        <time>2020-06-04T09:54:07Z</time>
      </trkpt>
      <trkpt lat="46.80757" lon="-2.10933">
        <ele>6.1</ele>
        <time>2020-06-04T09:54:08Z</time>
      </trkpt>
      <trkpt lat="46.80761" lon="-2.1094">
        <ele>6</ele>
        <time>2020-06-04T09:54:09Z</time>
      </trkpt>
      <trkpt lat="46.80765" lon="-2.10946">
        <ele>6</ele>
        <time>2020-06-04T09:54:10Z</time>
      </trkpt>
      <trkpt lat="46.80769" lon="-2.10953">
        <ele>5.9</ele>
        <time>2020-06-04T09:54:11Z</time>
      </trkpt>
      <trkpt lat="46.80773" lon="-2.1096">
        <ele>5.9</ele>
        <time>2020-06-04T09:54:12Z</time>
      </trkpt>
      <trkpt lat="46.80776" lon="-2.10966">
        <ele>5.9</ele>
        <time>2020-06-04T09:54:13Z</time>
      </trkpt>
      <trkpt lat="46.8078" lon="-2.10974">
        <ele>5.9</ele>
        <time>2020-06-04T09:54:14Z</time>
      </trkpt>
      <trkpt lat="46.80782" lon="-2.10982">
        <ele>6</ele>
        <time>2020-06-04T09:54:15Z</time>
      </trkpt>
      <trkpt lat="46.80785" lon="-2.1099">
        <ele>6.1</ele>
        <time>2020-06-04T09:54:16Z</time>
      </trkpt>
      <trkpt lat="46.80788" lon="-2.10997">
        <ele>6.2</ele>
        <time>2020-06-04T09:54:17Z</time>
      </trkpt>
      <trkpt lat="46.8079" lon="-2.11004">
        <ele>6.3</ele>
        <time>2020-06-04T09:54:18Z</time>
      </trkpt>
      <trkpt lat="46.80792" lon="-2.11011">
        <ele>6.5</ele>
        <time>2020-06-04T09:54:19Z</time>
      </trkpt>
      <trkpt lat="46.80794" lon="-2.11019">
        <ele>6.7</ele>
        <time>2020-06-04T09:54:20Z</time>
      </trkpt>
      <trkpt lat="46.80796" lon="-2.11026">
        <ele>6.9</ele>
        <time>2020-06-04T09:54:21Z</time>
      </trkpt>
      <trkpt lat="46.80797" lon="-2.11033">
        <ele>7.2</ele>
        <time>2020-06-04T09:54:22Z</time>
      </trkpt>
      <trkpt lat="46.80799" lon="-2.11039">
        <ele>7.4</ele>
        <time>2020-06-04T09:54:23Z</time>
      </trkpt>
      <trkpt lat="46.80801" lon="-2.11047">
        <ele>7.6</ele>
        <time>2020-06-04T09:54:24Z</time>
      </trkpt>
      <trkpt lat="46.80803" lon="-2.11053">
        <ele>7.8</ele>
        <time>2020-06-04T09:54:25Z</time>
      </trkpt>
      <trkpt lat="46.80804" lon="-2.11057">
        <ele>7.9</ele>
        <time>2020-06-04T09:54:26Z</time>
      </trkpt>
      <trkpt lat="46.80805" lon="-2.11063">
        <ele>8.1</ele>
        <time>2020-06-04T09:54:27Z</time>
      </trkpt>
      <trkpt lat="46.80805" lon="-2.11065">
        <ele>8.1</ele>
        <time>2020-06-04T09:54:28Z</time>
      </trkpt>
      <trkpt lat="46.80806" lon="-2.11069">
        <ele>8.2</ele>
        <time>2020-06-04T09:54:29Z</time>
      </trkpt>
      <trkpt lat="46.80807" lon="-2.11073">
        <ele>8.3</ele>
        <time>2020-06-04T09:54:30Z</time>
      </trkpt>
      <trkpt lat="46.80809" lon="-2.11077">
        <ele>8.3</ele>
        <time>2020-06-04T09:54:31Z</time>
      </trkpt>
      <trkpt lat="46.80809" lon="-2.11078">
        <ele>8.4</ele>
        <time>2020-06-04T09:54:32Z</time>
      </trkpt>
      <trkpt lat="46.80809" lon="-2.11079">
        <ele>8.4</ele>
        <time>2020-06-04T09:54:33Z</time>
      </trkpt>
      <trkpt lat="46.8081" lon="-2.1108">
        <ele>8.4</ele>
        <time>2020-06-04T09:54:34Z</time>
      </trkpt>
      <trkpt lat="46.80811" lon="-2.11081">
        <ele>8.4</ele>
        <time>2020-06-04T09:54:35Z</time>
      </trkpt>
      <trkpt lat="46.80811" lon="-2.11082">
        <ele>8.4</ele>
        <time>2020-06-04T09:54:36Z</time>
      </trkpt>
      <trkpt lat="46.80812" lon="-2.11084">
        <ele>8.4</ele>
        <time>2020-06-04T09:54:37Z</time>
      </trkpt>
      <trkpt lat="46.80813" lon="-2.11086">
        <ele>8.4</ele>
        <time>2020-06-04T09:54:38Z</time>
      </trkpt>
      <trkpt lat="46.80815" lon="-2.1109">
        <ele>8.4</ele>
        <time>2020-06-04T09:54:39Z</time>
      </trkpt>
      <trkpt lat="46.80816" lon="-2.11091">
        <ele>8.4</ele>
        <time>2020-06-04T09:54:40Z</time>
      </trkpt>
      <trkpt lat="46.80817" lon="-2.11096">
        <ele>8.4</ele>
        <time>2020-06-04T09:54:41Z</time>
      </trkpt>
      <trkpt lat="46.80818" lon="-2.11098">
        <ele>8.3</ele>
        <time>2020-06-04T09:54:42Z</time>
      </trkpt>
      <trkpt lat="46.80819" lon="-2.11102">
        <ele>8.3</ele>
        <time>2020-06-04T09:54:43Z</time>
      </trkpt>
      <trkpt lat="46.80819" lon="-2.11104">
        <ele>8.3</ele>
        <time>2020-06-04T09:54:44Z</time>
      </trkpt>
      <trkpt lat="46.80821" lon="-2.11109">
        <ele>8.2</ele>
        <time>2020-06-04T09:54:45Z</time>
      </trkpt>
      <trkpt lat="46.80821" lon="-2.11111">
        <ele>8.1</ele>
        <time>2020-06-04T09:54:46Z</time>
      </trkpt>
      <trkpt lat="46.80822" lon="-2.11116">
        <ele>8</ele>
        <time>2020-06-04T09:54:47Z</time>
      </trkpt>
      <trkpt lat="46.80824" lon="-2.11121">
        <ele>7.9</ele>
        <time>2020-06-04T09:54:48Z</time>
      </trkpt>
      <trkpt lat="46.80825" lon="-2.11126">
        <ele>7.8</ele>
        <time>2020-06-04T09:54:49Z</time>
      </trkpt>
      <trkpt lat="46.80826" lon="-2.11132">
        <ele>7.6</ele>
        <time>2020-06-04T09:54:50Z</time>
      </trkpt>
      <trkpt lat="46.80827" lon="-2.11138">
        <ele>7.5</ele>
        <time>2020-06-04T09:54:51Z</time>
      </trkpt>
      <trkpt lat="46.80828" lon="-2.11144">
        <ele>7.3</ele>
        <time>2020-06-04T09:54:52Z</time>
      </trkpt>
      <trkpt lat="46.8083" lon="-2.11148">
        <ele>7.2</ele>
        <time>2020-06-04T09:54:53Z</time>
      </trkpt>
      <trkpt lat="46.80831" lon="-2.11153">
        <ele>7</ele>
        <time>2020-06-04T09:54:54Z</time>
      </trkpt>
      <trkpt lat="46.80832" lon="-2.11158">
        <ele>6.9</ele>
        <time>2020-06-04T09:54:55Z</time>
      </trkpt>
      <trkpt lat="46.80833" lon="-2.11163">
        <ele>6.8</ele>
        <time>2020-06-04T09:54:56Z</time>
      </trkpt>
      <trkpt lat="46.80835" lon="-2.11168">
        <ele>6.7</ele>
        <time>2020-06-04T09:54:57Z</time>
      </trkpt>
      <trkpt lat="46.80836" lon="-2.11171">
        <ele>6.6</ele>
        <time>2020-06-04T09:54:58Z</time>
      </trkpt>
      <trkpt lat="46.80839" lon="-2.11174">
        <ele>6.5</ele>
        <time>2020-06-04T09:54:59Z</time>
      </trkpt>
      <trkpt lat="46.80841" lon="-2.11175">
        <ele>6.5</ele>
        <time>2020-06-04T09:55:00Z</time>
      </trkpt>
      <trkpt lat="46.80844" lon="-2.11176">
        <ele>6.4</ele>
        <time>2020-06-04T09:55:01Z</time>
      </trkpt>
      <trkpt lat="46.80845" lon="-2.11177">
        <ele>6.4</ele>
        <time>2020-06-04T09:55:02Z</time>
      </trkpt>
      <trkpt lat="46.80847" lon="-2.11179">
        <ele>6.4</ele>
        <time>2020-06-04T09:55:03Z</time>
      </trkpt>
      <trkpt lat="46.80847" lon="-2.1118">
        <ele>6.4</ele>
        <time>2020-06-04T09:55:04Z</time>
      </trkpt>
      <trkpt lat="46.80848" lon="-2.11184">
        <ele>6.3</ele>
        <time>2020-06-04T09:55:05Z</time>
      </trkpt>
      <trkpt lat="46.80851" lon="-2.11188">
        <ele>6.3</ele>
        <time>2020-06-04T09:55:06Z</time>
      </trkpt>
      <trkpt lat="46.80852" lon="-2.11191">
        <ele>6.3</ele>
        <time>2020-06-04T09:55:07Z</time>
      </trkpt>
      <trkpt lat="46.80854" lon="-2.11195">
        <ele>6.3</ele>
        <time>2020-06-04T09:55:08Z</time>
      </trkpt>
      <trkpt lat="46.80855" lon="-2.11197">
        <ele>6.3</ele>
        <time>2020-06-04T09:55:09Z</time>
      </trkpt>
      <trkpt lat="46.80856" lon="-2.112">
        <ele>6.3</ele>
        <time>2020-06-04T09:55:10Z</time>
      </trkpt>
      <trkpt lat="46.80858" lon="-2.11204">
        <ele>6.3</ele>
        <time>2020-06-04T09:55:11Z</time>
      </trkpt>
      <trkpt lat="46.8086" lon="-2.11207">
        <ele>6.3</ele>
        <time>2020-06-04T09:55:12Z</time>
      </trkpt>
      <trkpt lat="46.80862" lon="-2.1121">
        <ele>6.3</ele>
        <time>2020-06-04T09:55:13Z</time>
      </trkpt>
      <trkpt lat="46.80864" lon="-2.11214">
        <ele>6.3</ele>
        <time>2020-06-04T09:55:14Z</time>
      </trkpt>
      <trkpt lat="46.80866" lon="-2.11217">
        <ele>6.3</ele>
        <time>2020-06-04T09:55:15Z</time>
      </trkpt>
      <trkpt lat="46.80868" lon="-2.11221">
        <ele>6.2</ele>
        <time>2020-06-04T09:55:16Z</time>
      </trkpt>
      <trkpt lat="46.8087" lon="-2.11225">
        <ele>6.2</ele>
        <time>2020-06-04T09:55:17Z</time>
      </trkpt>
      <trkpt lat="46.80872" lon="-2.11229">
        <ele>6.2</ele>
        <time>2020-06-04T09:55:18Z</time>
      </trkpt>
      <trkpt lat="46.80874" lon="-2.11235">
        <ele>6.2</ele>
        <time>2020-06-04T09:55:19Z</time>
      </trkpt>
      <trkpt lat="46.80875" lon="-2.1124">
        <ele>6.2</ele>
        <time>2020-06-04T09:55:20Z</time>
      </trkpt>
      <trkpt lat="46.80877" lon="-2.11246">
        <ele>6.1</ele>
        <time>2020-06-04T09:55:21Z</time>
      </trkpt>
      <trkpt lat="46.80878" lon="-2.11251">
        <ele>6.1</ele>
        <time>2020-06-04T09:55:22Z</time>
      </trkpt>
      <trkpt lat="46.80879" lon="-2.11256">
        <ele>6.1</ele>
        <time>2020-06-04T09:55:23Z</time>
      </trkpt>
      <trkpt lat="46.8088" lon="-2.11262">
        <ele>6.1</ele>
        <time>2020-06-04T09:55:24Z</time>
      </trkpt>
      <trkpt lat="46.8088" lon="-2.11268">
        <ele>6.1</ele>
        <time>2020-06-04T09:55:25Z</time>
      </trkpt>
      <trkpt lat="46.80882" lon="-2.11273">
        <ele>6.1</ele>
        <time>2020-06-04T09:55:26Z</time>
      </trkpt>
      <trkpt lat="46.80882" lon="-2.11278">
        <ele>6.1</ele>
        <time>2020-06-04T09:55:27Z</time>
      </trkpt>
      <trkpt lat="46.80884" lon="-2.11284">
        <ele>6.1</ele>
        <time>2020-06-04T09:55:28Z</time>
      </trkpt>
      <trkpt lat="46.80885" lon="-2.1129">
        <ele>6.1</ele>
        <time>2020-06-04T09:55:29Z</time>
      </trkpt>
      <trkpt lat="46.80886" lon="-2.11296">
        <ele>6</ele>
        <time>2020-06-04T09:55:30Z</time>
      </trkpt>
      <trkpt lat="46.80888" lon="-2.11302">
        <ele>6</ele>
        <time>2020-06-04T09:55:31Z</time>
      </trkpt>
      <trkpt lat="46.8089" lon="-2.11306">
        <ele>6</ele>
        <time>2020-06-04T09:55:32Z</time>
      </trkpt>
      <trkpt lat="46.80891" lon="-2.11311">
        <ele>5.9</ele>
        <time>2020-06-04T09:55:33Z</time>
      </trkpt>
      <trkpt lat="46.80892" lon="-2.11316">
        <ele>5.9</ele>
        <time>2020-06-04T09:55:34Z</time>
      </trkpt>
      <trkpt lat="46.80895" lon="-2.11321">
        <ele>5.9</ele>
        <time>2020-06-04T09:55:35Z</time>
      </trkpt>
      <trkpt lat="46.80896" lon="-2.11326">
        <ele>5.8</ele>
        <time>2020-06-04T09:55:36Z</time>
      </trkpt>
      <trkpt lat="46.80897" lon="-2.11331">
        <ele>5.8</ele>
        <time>2020-06-04T09:55:37Z</time>
      </trkpt>
      <trkpt lat="46.80899" lon="-2.11336">
        <ele>5.7</ele>
        <time>2020-06-04T09:55:38Z</time>
      </trkpt>
      <trkpt lat="46.809" lon="-2.11341">
        <ele>5.7</ele>
        <time>2020-06-04T09:55:39Z</time>
      </trkpt>
      <trkpt lat="46.80902" lon="-2.11346">
        <ele>5.7</ele>
        <time>2020-06-04T09:55:40Z</time>
      </trkpt>
      <trkpt lat="46.80904" lon="-2.11352">
        <ele>5.6</ele>
        <time>2020-06-04T09:55:41Z</time>
      </trkpt>
      <trkpt lat="46.80906" lon="-2.11358">
        <ele>5.6</ele>
        <time>2020-06-04T09:55:42Z</time>
      </trkpt>
      <trkpt lat="46.80907" lon="-2.11365">
        <ele>5.6</ele>
        <time>2020-06-04T09:55:43Z</time>
      </trkpt>
      <trkpt lat="46.80909" lon="-2.11371">
        <ele>5.6</ele>
        <time>2020-06-04T09:55:44Z</time>
      </trkpt>
      <trkpt lat="46.80911" lon="-2.11377">
        <ele>5.6</ele>
        <time>2020-06-04T09:55:45Z</time>
      </trkpt>
      <trkpt lat="46.80914" lon="-2.11382">
        <ele>5.5</ele>
        <time>2020-06-04T09:55:46Z</time>
      </trkpt>
      <trkpt lat="46.80916" lon="-2.11388">
        <ele>5.5</ele>
        <time>2020-06-04T09:55:47Z</time>
      </trkpt>
      <trkpt lat="46.80918" lon="-2.11393">
        <ele>5.5</ele>
        <time>2020-06-04T09:55:48Z</time>
      </trkpt>
      <trkpt lat="46.8092" lon="-2.11399">
        <ele>5.5</ele>
        <time>2020-06-04T09:55:49Z</time>
      </trkpt>
      <trkpt lat="46.80922" lon="-2.11405">
        <ele>5.5</ele>
        <time>2020-06-04T09:55:50Z</time>
      </trkpt>
      <trkpt lat="46.80925" lon="-2.11411">
        <ele>5.5</ele>
        <time>2020-06-04T09:55:51Z</time>
      </trkpt>
      <trkpt lat="46.80926" lon="-2.11417">
        <ele>5.6</ele>
        <time>2020-06-04T09:55:52Z</time>
      </trkpt>
      <trkpt lat="46.80929" lon="-2.11424">
        <ele>5.6</ele>
        <time>2020-06-04T09:55:53Z</time>
      </trkpt>
      <trkpt lat="46.80931" lon="-2.11429">
        <ele>5.7</ele>
        <time>2020-06-04T09:55:54Z</time>
      </trkpt>
      <trkpt lat="46.80933" lon="-2.11434">
        <ele>5.7</ele>
        <time>2020-06-04T09:55:55Z</time>
      </trkpt>
      <trkpt lat="46.80935" lon="-2.1144">
        <ele>5.8</ele>
        <time>2020-06-04T09:55:56Z</time>
      </trkpt>
      <trkpt lat="46.80936" lon="-2.11446">
        <ele>5.8</ele>
        <time>2020-06-04T09:55:57Z</time>
      </trkpt>
      <trkpt lat="46.80938" lon="-2.11451">
        <ele>5.9</ele>
        <time>2020-06-04T09:55:58Z</time>
      </trkpt>
      <trkpt lat="46.8094" lon="-2.11457">
        <ele>6</ele>
        <time>2020-06-04T09:55:59Z</time>
      </trkpt>
      <trkpt lat="46.80942" lon="-2.11463">
        <ele>6</ele>
        <time>2020-06-04T09:56:00Z</time>
      </trkpt>
      <trkpt lat="46.80943" lon="-2.11469">
        <ele>6.1</ele>
        <time>2020-06-04T09:56:01Z</time>
      </trkpt>
      <trkpt lat="46.80945" lon="-2.11475">
        <ele>6.2</ele>
        <time>2020-06-04T09:56:02Z</time>
      </trkpt>
      <trkpt lat="46.80947" lon="-2.1148">
        <ele>6.2</ele>
        <time>2020-06-04T09:56:03Z</time>
      </trkpt>
      <trkpt lat="46.8095" lon="-2.11485">
        <ele>6.3</ele>
        <time>2020-06-04T09:56:04Z</time>
      </trkpt>
      <trkpt lat="46.80953" lon="-2.1149">
        <ele>6.3</ele>
        <time>2020-06-04T09:56:05Z</time>
      </trkpt>
      <trkpt lat="46.80955" lon="-2.11497">
        <ele>6.3</ele>
        <time>2020-06-04T09:56:06Z</time>
      </trkpt>
      <trkpt lat="46.80958" lon="-2.11501">
        <ele>6.3</ele>
        <time>2020-06-04T09:56:07Z</time>
      </trkpt>
      <trkpt lat="46.80961" lon="-2.11507">
        <ele>6.4</ele>
        <time>2020-06-04T09:56:08Z</time>
      </trkpt>
      <trkpt lat="46.80964" lon="-2.11512">
        <ele>6.4</ele>
        <time>2020-06-04T09:56:09Z</time>
      </trkpt>
      <trkpt lat="46.80966" lon="-2.11517">
        <ele>6.4</ele>
        <time>2020-06-04T09:56:10Z</time>
      </trkpt>
      <trkpt lat="46.80968" lon="-2.11523">
        <ele>6.4</ele>
        <time>2020-06-04T09:56:11Z</time>
      </trkpt>
      <trkpt lat="46.8097" lon="-2.11528">
        <ele>6.4</ele>
        <time>2020-06-04T09:56:12Z</time>
      </trkpt>
      <trkpt lat="46.80971" lon="-2.11534">
        <ele>6.4</ele>
        <time>2020-06-04T09:56:13Z</time>
      </trkpt>
      <trkpt lat="46.80973" lon="-2.11539">
        <ele>6.4</ele>
        <time>2020-06-04T09:56:14Z</time>
      </trkpt>
      <trkpt lat="46.80975" lon="-2.11544">
        <ele>6.3</ele>
        <time>2020-06-04T09:56:15Z</time>
      </trkpt>
      <trkpt lat="46.80977" lon="-2.1155">
        <ele>6.3</ele>
        <time>2020-06-04T09:56:16Z</time>
      </trkpt>
      <trkpt lat="46.80979" lon="-2.11556">
        <ele>6.3</ele>
        <time>2020-06-04T09:56:17Z</time>
      </trkpt>
      <trkpt lat="46.80981" lon="-2.11564">
        <ele>6.3</ele>
        <time>2020-06-04T09:56:18Z</time>
      </trkpt>
      <trkpt lat="46.80984" lon="-2.11572">
        <ele>6.3</ele>
        <time>2020-06-04T09:56:19Z</time>
      </trkpt>
      <trkpt lat="46.80987" lon="-2.11578">
        <ele>6.3</ele>
        <time>2020-06-04T09:56:20Z</time>
      </trkpt>
      <trkpt lat="46.80989" lon="-2.11584">
        <ele>6.3</ele>
        <time>2020-06-04T09:56:21Z</time>
      </trkpt>
      <trkpt lat="46.80991" lon="-2.1159">
        <ele>6.3</ele>
        <time>2020-06-04T09:56:22Z</time>
      </trkpt>
      <trkpt lat="46.80993" lon="-2.11597">
        <ele>6.3</ele>
        <time>2020-06-04T09:56:23Z</time>
      </trkpt>
      <trkpt lat="46.80995" lon="-2.11603">
        <ele>6.3</ele>
        <time>2020-06-04T09:56:24Z</time>
      </trkpt>
      <trkpt lat="46.80998" lon="-2.11608">
        <ele>6.3</ele>
        <time>2020-06-04T09:56:25Z</time>
      </trkpt>
      <trkpt lat="46.81" lon="-2.11615">
        <ele>6.3</ele>
        <time>2020-06-04T09:56:26Z</time>
      </trkpt>
      <trkpt lat="46.81002" lon="-2.11621">
        <ele>6.3</ele>
        <time>2020-06-04T09:56:27Z</time>
      </trkpt>
      <trkpt lat="46.81003" lon="-2.11628">
        <ele>6.3</ele>
        <time>2020-06-04T09:56:28Z</time>
      </trkpt>
      <trkpt lat="46.81004" lon="-2.11634">
        <ele>6.3</ele>
        <time>2020-06-04T09:56:29Z</time>
      </trkpt>
      <trkpt lat="46.81004" lon="-2.11642">
        <ele>6.3</ele>
        <time>2020-06-04T09:56:30Z</time>
      </trkpt>
      <trkpt lat="46.81005" lon="-2.11648">
        <ele>6.4</ele>
        <time>2020-06-04T09:56:31Z</time>
      </trkpt>
      <trkpt lat="46.81006" lon="-2.11655">
        <ele>6.4</ele>
        <time>2020-06-04T09:56:32Z</time>
      </trkpt>
      <trkpt lat="46.81007" lon="-2.11664">
        <ele>6.5</ele>
        <time>2020-06-04T09:56:33Z</time>
      </trkpt>
      <trkpt lat="46.81008" lon="-2.11671">
        <ele>6.5</ele>
        <time>2020-06-04T09:56:34Z</time>
      </trkpt>
      <trkpt lat="46.81007" lon="-2.11677">
        <ele>6.5</ele>
        <time>2020-06-04T09:56:35Z</time>
      </trkpt>
      <trkpt lat="46.81007" lon="-2.11684">
        <ele>6.6</ele>
        <time>2020-06-04T09:56:36Z</time>
      </trkpt>
      <trkpt lat="46.81007" lon="-2.1169">
        <ele>6.6</ele>
        <time>2020-06-04T09:56:37Z</time>
      </trkpt>
      <trkpt lat="46.81008" lon="-2.11695">
        <ele>6.7</ele>
        <time>2020-06-04T09:56:38Z</time>
      </trkpt>
      <trkpt lat="46.81009" lon="-2.11701">
        <ele>6.7</ele>
        <time>2020-06-04T09:56:39Z</time>
      </trkpt>
      <trkpt lat="46.81009" lon="-2.11707">
        <ele>6.8</ele>
        <time>2020-06-04T09:56:40Z</time>
      </trkpt>
      <trkpt lat="46.8101" lon="-2.11712">
        <ele>6.8</ele>
        <time>2020-06-04T09:56:41Z</time>
      </trkpt>
      <trkpt lat="46.81011" lon="-2.11718">
        <ele>6.9</ele>
        <time>2020-06-04T09:56:42Z</time>
      </trkpt>
      <trkpt lat="46.81012" lon="-2.11721">
        <ele>6.9</ele>
        <time>2020-06-04T09:56:43Z</time>
      </trkpt>
      <trkpt lat="46.81015" lon="-2.11725">
        <ele>7</ele>
        <time>2020-06-04T09:56:44Z</time>
      </trkpt>
      <trkpt lat="46.81017" lon="-2.11729">
        <ele>7</ele>
        <time>2020-06-04T09:56:45Z</time>
      </trkpt>
      <trkpt lat="46.81019" lon="-2.11734">
        <ele>7.1</ele>
        <time>2020-06-04T09:56:46Z</time>
      </trkpt>
      <trkpt lat="46.81021" lon="-2.11739">
        <ele>7.1</ele>
        <time>2020-06-04T09:56:47Z</time>
      </trkpt>
      <trkpt lat="46.81023" lon="-2.11743">
        <ele>7.2</ele>
        <time>2020-06-04T09:56:48Z</time>
      </trkpt>
      <trkpt lat="46.81025" lon="-2.11748">
        <ele>7.2</ele>
        <time>2020-06-04T09:56:49Z</time>
      </trkpt>
      <trkpt lat="46.81027" lon="-2.11754">
        <ele>7.3</ele>
        <time>2020-06-04T09:56:50Z</time>
      </trkpt>
      <trkpt lat="46.81029" lon="-2.11759">
        <ele>7.3</ele>
        <time>2020-06-04T09:56:51Z</time>
      </trkpt>
      <trkpt lat="46.81031" lon="-2.11764">
        <ele>7.4</ele>
        <time>2020-06-04T09:56:52Z</time>
      </trkpt>
      <trkpt lat="46.81034" lon="-2.11769">
        <ele>7.4</ele>
        <time>2020-06-04T09:56:53Z</time>
      </trkpt>
      <trkpt lat="46.81037" lon="-2.11775">
        <ele>7.4</ele>
        <time>2020-06-04T09:56:54Z</time>
      </trkpt>
      <trkpt lat="46.81039" lon="-2.11779">
        <ele>7.4</ele>
        <time>2020-06-04T09:56:55Z</time>
      </trkpt>
      <trkpt lat="46.81041" lon="-2.11784">
        <ele>7.5</ele>
        <time>2020-06-04T09:56:56Z</time>
      </trkpt>
      <trkpt lat="46.81043" lon="-2.11788">
        <ele>7.5</ele>
        <time>2020-06-04T09:56:57Z</time>
      </trkpt>
      <trkpt lat="46.81045" lon="-2.11793">
        <ele>7.5</ele>
        <time>2020-06-04T09:56:58Z</time>
      </trkpt>
      <trkpt lat="46.81047" lon="-2.11798">
        <ele>7.5</ele>
        <time>2020-06-04T09:56:59Z</time>
      </trkpt>
      <trkpt lat="46.81049" lon="-2.11803">
        <ele>7.5</ele>
        <time>2020-06-04T09:57:00Z</time>
      </trkpt>
      <trkpt lat="46.81051" lon="-2.11807">
        <ele>7.6</ele>
        <time>2020-06-04T09:57:01Z</time>
      </trkpt>
      <trkpt lat="46.81054" lon="-2.11813">
        <ele>7.6</ele>
        <time>2020-06-04T09:57:02Z</time>
      </trkpt>
      <trkpt lat="46.81056" lon="-2.11818">
        <ele>7.6</ele>
        <time>2020-06-04T09:57:03Z</time>
      </trkpt>
      <trkpt lat="46.81058" lon="-2.11823">
        <ele>7.6</ele>
        <time>2020-06-04T09:57:04Z</time>
      </trkpt>
      <trkpt lat="46.81059" lon="-2.11824">
        <ele>7.6</ele>
        <time>2020-06-04T09:57:05Z</time>
      </trkpt>
      <trkpt lat="46.81062" lon="-2.11827">
        <ele>7.7</ele>
        <time>2020-06-04T09:57:06Z</time>
      </trkpt>
      <trkpt lat="46.81065" lon="-2.1183">
        <ele>7.7</ele>
        <time>2020-06-04T09:57:07Z</time>
      </trkpt>
      <trkpt lat="46.81068" lon="-2.11833">
        <ele>7.7</ele>
        <time>2020-06-04T09:57:08Z</time>
      </trkpt>
      <trkpt lat="46.81072" lon="-2.11834">
        <ele>7.7</ele>
        <time>2020-06-04T09:57:09Z</time>
      </trkpt>
      <trkpt lat="46.81076" lon="-2.11836">
        <ele>7.7</ele>
        <time>2020-06-04T09:57:10Z</time>
      </trkpt>
      <trkpt lat="46.81078" lon="-2.11835">
        <ele>7.7</ele>
        <time>2020-06-04T09:57:11Z</time>
      </trkpt>
      <trkpt lat="46.81081" lon="-2.11837">
        <ele>7.7</ele>
        <time>2020-06-04T09:57:12Z</time>
      </trkpt>
      <trkpt lat="46.81082" lon="-2.11837">
        <ele>7.6</ele>
        <time>2020-06-04T09:57:13Z</time>
      </trkpt>
      <trkpt lat="46.81086" lon="-2.11838">
        <ele>7.6</ele>
        <time>2020-06-04T09:57:14Z</time>
      </trkpt>
      <trkpt lat="46.81089" lon="-2.1184">
        <ele>7.5</ele>
        <time>2020-06-04T09:57:15Z</time>
      </trkpt>
      <trkpt lat="46.81092" lon="-2.11843">
        <ele>7.4</ele>
        <time>2020-06-04T09:57:16Z</time>
      </trkpt>
      <trkpt lat="46.81096" lon="-2.11845">
        <ele>7.3</ele>
        <time>2020-06-04T09:57:17Z</time>
      </trkpt>
      <trkpt lat="46.81099" lon="-2.11847">
        <ele>7.2</ele>
        <time>2020-06-04T09:57:18Z</time>
      </trkpt>
      <trkpt lat="46.81103" lon="-2.11849">
        <ele>7.1</ele>
        <time>2020-06-04T09:57:19Z</time>
      </trkpt>
      <trkpt lat="46.81107" lon="-2.11851">
        <ele>7</ele>
        <time>2020-06-04T09:57:20Z</time>
      </trkpt>
      <trkpt lat="46.81112" lon="-2.11854">
        <ele>6.9</ele>
        <time>2020-06-04T09:57:21Z</time>
      </trkpt>
      <trkpt lat="46.81116" lon="-2.11856">
        <ele>6.7</ele>
        <time>2020-06-04T09:57:22Z</time>
      </trkpt>
      <trkpt lat="46.81121" lon="-2.11858">
        <ele>6.6</ele>
        <time>2020-06-04T09:57:23Z</time>
      </trkpt>
      <trkpt lat="46.81127" lon="-2.11861">
        <ele>6.5</ele>
        <time>2020-06-04T09:57:24Z</time>
      </trkpt>
      <trkpt lat="46.81133" lon="-2.11861">
        <ele>6.3</ele>
        <time>2020-06-04T09:57:25Z</time>
      </trkpt>
      <trkpt lat="46.81139" lon="-2.11862">
        <ele>6.2</ele>
        <time>2020-06-04T09:57:26Z</time>
      </trkpt>
      <trkpt lat="46.81144" lon="-2.11864">
        <ele>6</ele>
        <time>2020-06-04T09:57:27Z</time>
      </trkpt>
      <trkpt lat="46.81148" lon="-2.11866">
        <ele>5.9</ele>
        <time>2020-06-04T09:57:28Z</time>
      </trkpt>
      <trkpt lat="46.81153" lon="-2.11868">
        <ele>5.8</ele>
        <time>2020-06-04T09:57:29Z</time>
      </trkpt>
      <trkpt lat="46.81159" lon="-2.11871">
        <ele>5.7</ele>
        <time>2020-06-04T09:57:30Z</time>
      </trkpt>
      <trkpt lat="46.81165" lon="-2.11873">
        <ele>5.7</ele>
        <time>2020-06-04T09:57:31Z</time>
      </trkpt>
      <trkpt lat="46.81171" lon="-2.11877">
        <ele>5.6</ele>
        <time>2020-06-04T09:57:32Z</time>
      </trkpt>
      <trkpt lat="46.81177" lon="-2.11879">
        <ele>5.5</ele>
        <time>2020-06-04T09:57:33Z</time>
      </trkpt>
      <trkpt lat="46.81181" lon="-2.11881">
        <ele>5.5</ele>
        <time>2020-06-04T09:57:34Z</time>
      </trkpt>
      <trkpt lat="46.81185" lon="-2.11886">
        <ele>5.5</ele>
        <time>2020-06-04T09:57:35Z</time>
      </trkpt>
      <trkpt lat="46.81191" lon="-2.11889">
        <ele>5.4</ele>
        <time>2020-06-04T09:57:36Z</time>
      </trkpt>
      <trkpt lat="46.81194" lon="-2.11895">
        <ele>5.4</ele>
        <time>2020-06-04T09:57:37Z</time>
      </trkpt>
      <trkpt lat="46.81198" lon="-2.11901">
        <ele>5.4</ele>
        <time>2020-06-04T09:57:38Z</time>
      </trkpt>
      <trkpt lat="46.81201" lon="-2.11906">
        <ele>5.4</ele>
        <time>2020-06-04T09:57:39Z</time>
      </trkpt>
      <trkpt lat="46.81204" lon="-2.11912">
        <ele>5.4</ele>
        <time>2020-06-04T09:57:40Z</time>
      </trkpt>
      <trkpt lat="46.81207" lon="-2.11917">
        <ele>5.4</ele>
        <time>2020-06-04T09:57:41Z</time>
      </trkpt>
      <trkpt lat="46.8121" lon="-2.11923">
        <ele>5.5</ele>
        <time>2020-06-04T09:57:42Z</time>
      </trkpt>
      <trkpt lat="46.81213" lon="-2.1193">
        <ele>5.5</ele>
        <time>2020-06-04T09:57:43Z</time>
      </trkpt>
      <trkpt lat="46.81215" lon="-2.11936">
        <ele>5.5</ele>
        <time>2020-06-04T09:57:44Z</time>
      </trkpt>
      <trkpt lat="46.81218" lon="-2.11941">
        <ele>5.6</ele>
        <time>2020-06-04T09:57:45Z</time>
      </trkpt>
      <trkpt lat="46.8122" lon="-2.11946">
        <ele>5.6</ele>
        <time>2020-06-04T09:57:46Z</time>
      </trkpt>
      <trkpt lat="46.81223" lon="-2.11952">
        <ele>5.6</ele>
        <time>2020-06-04T09:57:47Z</time>
      </trkpt>
      <trkpt lat="46.81227" lon="-2.11956">
        <ele>5.7</ele>
        <time>2020-06-04T09:57:48Z</time>
      </trkpt>
      <trkpt lat="46.8123" lon="-2.11961">
        <ele>5.7</ele>
        <time>2020-06-04T09:57:49Z</time>
      </trkpt>
      <trkpt lat="46.81233" lon="-2.11967">
        <ele>5.8</ele>
        <time>2020-06-04T09:57:50Z</time>
      </trkpt>
      <trkpt lat="46.81236" lon="-2.11972">
        <ele>5.8</ele>
        <time>2020-06-04T09:57:51Z</time>
      </trkpt>
      <trkpt lat="46.81239" lon="-2.11978">
        <ele>5.9</ele>
        <time>2020-06-04T09:57:52Z</time>
      </trkpt>
      <trkpt lat="46.81243" lon="-2.11983">
        <ele>5.9</ele>
        <time>2020-06-04T09:57:53Z</time>
      </trkpt>
      <trkpt lat="46.81246" lon="-2.11988">
        <ele>6</ele>
        <time>2020-06-04T09:57:54Z</time>
      </trkpt>
      <trkpt lat="46.81249" lon="-2.11993">
        <ele>6</ele>
        <time>2020-06-04T09:57:55Z</time>
      </trkpt>
      <trkpt lat="46.81252" lon="-2.11999">
        <ele>6</ele>
        <time>2020-06-04T09:57:56Z</time>
      </trkpt>
      <trkpt lat="46.81254" lon="-2.12005">
        <ele>6</ele>
        <time>2020-06-04T09:57:57Z</time>
      </trkpt>
      <trkpt lat="46.81256" lon="-2.12012">
        <ele>6</ele>
        <time>2020-06-04T09:57:58Z</time>
      </trkpt>
      <trkpt lat="46.81258" lon="-2.12017">
        <ele>6</ele>
        <time>2020-06-04T09:57:59Z</time>
      </trkpt>
      <trkpt lat="46.81261" lon="-2.12024">
        <ele>6</ele>
        <time>2020-06-04T09:58:00Z</time>
      </trkpt>
      <trkpt lat="46.81263" lon="-2.1203">
        <ele>6</ele>
        <time>2020-06-04T09:58:01Z</time>
      </trkpt>
      <trkpt lat="46.81265" lon="-2.12035">
        <ele>6</ele>
        <time>2020-06-04T09:58:02Z</time>
      </trkpt>
      <trkpt lat="46.81267" lon="-2.12039">
        <ele>6</ele>
        <time>2020-06-04T09:58:03Z</time>
      </trkpt>
      <trkpt lat="46.81269" lon="-2.12043">
        <ele>6</ele>
        <time>2020-06-04T09:58:04Z</time>
      </trkpt>
      <trkpt lat="46.8127" lon="-2.12048">
        <ele>6</ele>
        <time>2020-06-04T09:58:05Z</time>
      </trkpt>
      <trkpt lat="46.81272" lon="-2.12053">
        <ele>6</ele>
        <time>2020-06-04T09:58:06Z</time>
      </trkpt>
      <trkpt lat="46.81274" lon="-2.12059">
        <ele>6</ele>
        <time>2020-06-04T09:58:07Z</time>
      </trkpt>
      <trkpt lat="46.81276" lon="-2.12065">
        <ele>6</ele>
        <time>2020-06-04T09:58:08Z</time>
      </trkpt>
      <trkpt lat="46.81279" lon="-2.12071">
        <ele>6</ele>
        <time>2020-06-04T09:58:09Z</time>
      </trkpt>
      <trkpt lat="46.81281" lon="-2.12076">
        <ele>6</ele>
        <time>2020-06-04T09:58:10Z</time>
      </trkpt>
      <trkpt lat="46.81284" lon="-2.1208">
        <ele>6</ele>
        <time>2020-06-04T09:58:11Z</time>
      </trkpt>
      <trkpt lat="46.81287" lon="-2.12085">
        <ele>6</ele>
        <time>2020-06-04T09:58:12Z</time>
      </trkpt>
      <trkpt lat="46.81289" lon="-2.1209">
        <ele>6</ele>
        <time>2020-06-04T09:58:13Z</time>
      </trkpt>
      <trkpt lat="46.81292" lon="-2.12095">
        <ele>6</ele>
        <time>2020-06-04T09:58:14Z</time>
      </trkpt>
      <trkpt lat="46.81296" lon="-2.121">
        <ele>5.9</ele>
        <time>2020-06-04T09:58:15Z</time>
      </trkpt>
      <trkpt lat="46.81297" lon="-2.12105">
        <ele>5.9</ele>
        <time>2020-06-04T09:58:16Z</time>
      </trkpt>
      <trkpt lat="46.813" lon="-2.12111">
        <ele>5.8</ele>
        <time>2020-06-04T09:58:17Z</time>
      </trkpt>
      <trkpt lat="46.81301" lon="-2.12115">
        <ele>5.7</ele>
        <time>2020-06-04T09:58:18Z</time>
      </trkpt>
      <trkpt lat="46.81304" lon="-2.1212">
        <ele>5.7</ele>
        <time>2020-06-04T09:58:19Z</time>
      </trkpt>
      <trkpt lat="46.81306" lon="-2.12125">
        <ele>5.6</ele>
        <time>2020-06-04T09:58:20Z</time>
      </trkpt>
      <trkpt lat="46.81309" lon="-2.1213">
        <ele>5.6</ele>
        <time>2020-06-04T09:58:21Z</time>
      </trkpt>
      <trkpt lat="46.81311" lon="-2.12135">
        <ele>5.5</ele>
        <time>2020-06-04T09:58:22Z</time>
      </trkpt>
      <trkpt lat="46.81313" lon="-2.12139">
        <ele>5.4</ele>
        <time>2020-06-04T09:58:23Z</time>
      </trkpt>
      <trkpt lat="46.81316" lon="-2.12144">
        <ele>5.3</ele>
        <time>2020-06-04T09:58:24Z</time>
      </trkpt>
      <trkpt lat="46.81318" lon="-2.12149">
        <ele>5.3</ele>
        <time>2020-06-04T09:58:25Z</time>
      </trkpt>
      <trkpt lat="46.81319" lon="-2.12153">
        <ele>5.2</ele>
        <time>2020-06-04T09:58:26Z</time>
      </trkpt>
      <trkpt lat="46.81322" lon="-2.12158">
        <ele>5.1</ele>
        <time>2020-06-04T09:58:27Z</time>
      </trkpt>
      <trkpt lat="46.81325" lon="-2.12162">
        <ele>5</ele>
        <time>2020-06-04T09:58:28Z</time>
      </trkpt>
      <trkpt lat="46.81327" lon="-2.12166">
        <ele>5</ele>
        <time>2020-06-04T09:58:29Z</time>
      </trkpt>
      <trkpt lat="46.81328" lon="-2.1217">
        <ele>5</ele>
        <time>2020-06-04T09:58:30Z</time>
      </trkpt>
      <trkpt lat="46.8133" lon="-2.12176">
        <ele>5</ele>
        <time>2020-06-04T09:58:31Z</time>
      </trkpt>
      <trkpt lat="46.81332" lon="-2.12181">
        <ele>5</ele>
        <time>2020-06-04T09:58:32Z</time>
      </trkpt>
      <trkpt lat="46.81335" lon="-2.12185">
        <ele>5</ele>
        <time>2020-06-04T09:58:33Z</time>
      </trkpt>
      <trkpt lat="46.81334" lon="-2.1219">
        <ele>5</ele>
        <time>2020-06-04T09:58:34Z</time>
      </trkpt>
      <trkpt lat="46.81334" lon="-2.12192">
        <ele>5.1</ele>
        <time>2020-06-04T09:58:35Z</time>
      </trkpt>
      <trkpt lat="46.81333" lon="-2.12196">
        <ele>5.1</ele>
        <time>2020-06-04T09:58:36Z</time>
      </trkpt>
      <trkpt lat="46.81331" lon="-2.12201">
        <ele>5.2</ele>
        <time>2020-06-04T09:58:37Z</time>
      </trkpt>
      <trkpt lat="46.81329" lon="-2.12202">
        <ele>5.3</ele>
        <time>2020-06-04T09:58:38Z</time>
      </trkpt>
      <trkpt lat="46.81327" lon="-2.12204">
        <ele>5.3</ele>
        <time>2020-06-04T09:58:39Z</time>
      </trkpt>
      <trkpt lat="46.81324" lon="-2.12206">
        <ele>5.4</ele>
        <time>2020-06-04T09:58:40Z</time>
      </trkpt>
      <trkpt lat="46.81323" lon="-2.12207">
        <ele>5.5</ele>
        <time>2020-06-04T09:58:41Z</time>
      </trkpt>
      <trkpt lat="46.8132" lon="-2.1221">
        <ele>5.6</ele>
        <time>2020-06-04T09:58:42Z</time>
      </trkpt>
      <trkpt lat="46.81319" lon="-2.12211">
        <ele>5.6</ele>
        <time>2020-06-04T09:58:43Z</time>
      </trkpt>
      <trkpt lat="46.81316" lon="-2.12214">
        <ele>5.7</ele>
        <time>2020-06-04T09:58:44Z</time>
      </trkpt>
      <trkpt lat="46.81312" lon="-2.12218">
        <ele>5.9</ele>
        <time>2020-06-04T09:58:45Z</time>
      </trkpt>
      <trkpt lat="46.81311" lon="-2.12219">
        <ele>5.9</ele>
        <time>2020-06-04T09:58:46Z</time>
      </trkpt>
      <trkpt lat="46.81308" lon="-2.12223">
        <ele>6</ele>
        <time>2020-06-04T09:58:47Z</time>
      </trkpt>
      <trkpt lat="46.81306" lon="-2.12228">
        <ele>6.1</ele>
        <time>2020-06-04T09:58:48Z</time>
      </trkpt>
      <trkpt lat="46.81304" lon="-2.12231">
        <ele>6.2</ele>
        <time>2020-06-04T09:58:49Z</time>
      </trkpt>
      <trkpt lat="46.81302" lon="-2.12234">
        <ele>6.2</ele>
        <time>2020-06-04T09:58:50Z</time>
      </trkpt>
      <trkpt lat="46.813" lon="-2.12237">
        <ele>6.3</ele>
        <time>2020-06-04T09:58:51Z</time>
      </trkpt>
      <trkpt lat="46.81298" lon="-2.12242">
        <ele>6.4</ele>
        <time>2020-06-04T09:58:52Z</time>
      </trkpt>
      <trkpt lat="46.81297" lon="-2.12246">
        <ele>6.5</ele>
        <time>2020-06-04T09:58:53Z</time>
      </trkpt>
      <trkpt lat="46.81295" lon="-2.12251">
        <ele>6.5</ele>
        <time>2020-06-04T09:58:54Z</time>
      </trkpt>
      <trkpt lat="46.81292" lon="-2.12255">
        <ele>6.6</ele>
        <time>2020-06-04T09:58:55Z</time>
      </trkpt>
      <trkpt lat="46.8129" lon="-2.1226">
        <ele>6.7</ele>
        <time>2020-06-04T09:58:56Z</time>
      </trkpt>
      <trkpt lat="46.81288" lon="-2.12265">
        <ele>6.8</ele>
        <time>2020-06-04T09:58:57Z</time>
      </trkpt>
      <trkpt lat="46.81286" lon="-2.12269">
        <ele>6.9</ele>
        <time>2020-06-04T09:58:58Z</time>
      </trkpt>
      <trkpt lat="46.81283" lon="-2.12274">
        <ele>6.9</ele>
        <time>2020-06-04T09:58:59Z</time>
      </trkpt>
      <trkpt lat="46.8128" lon="-2.12278">
        <ele>7</ele>
        <time>2020-06-04T09:59:00Z</time>
      </trkpt>
      <trkpt lat="46.81278" lon="-2.12282">
        <ele>7</ele>
        <time>2020-06-04T09:59:01Z</time>
      </trkpt>
      <trkpt lat="46.81276" lon="-2.12286">
        <ele>7.1</ele>
        <time>2020-06-04T09:59:02Z</time>
      </trkpt>
      <trkpt lat="46.81274" lon="-2.12292">
        <ele>7.1</ele>
        <time>2020-06-04T09:59:03Z</time>
      </trkpt>
      <trkpt lat="46.81273" lon="-2.12297">
        <ele>7.1</ele>
        <time>2020-06-04T09:59:04Z</time>
      </trkpt>
      <trkpt lat="46.81274" lon="-2.12298">
        <ele>7.1</ele>
        <time>2020-06-04T09:59:05Z</time>
      </trkpt>
      <trkpt lat="46.81276" lon="-2.12301">
        <ele>7.1</ele>
        <time>2020-06-04T09:59:06Z</time>
      </trkpt>
      <trkpt lat="46.81277" lon="-2.12302">
        <ele>7.1</ele>
        <time>2020-06-04T09:59:07Z</time>
      </trkpt>
      <trkpt lat="46.81279" lon="-2.12305">
        <ele>7.1</ele>
        <time>2020-06-04T09:59:08Z</time>
      </trkpt>
      <trkpt lat="46.8128" lon="-2.12307">
        <ele>7.1</ele>
        <time>2020-06-04T09:59:09Z</time>
      </trkpt>
      <trkpt lat="46.81282" lon="-2.1231">
        <ele>7.2</ele>
        <time>2020-06-04T09:59:10Z</time>
      </trkpt>
      <trkpt lat="46.81284" lon="-2.12313">
        <ele>7.2</ele>
        <time>2020-06-04T09:59:11Z</time>
      </trkpt>
      <trkpt lat="46.81287" lon="-2.12315">
        <ele>7.2</ele>
        <time>2020-06-04T09:59:12Z</time>
      </trkpt>
      <trkpt lat="46.81288" lon="-2.1232">
        <ele>7.3</ele>
        <time>2020-06-04T09:59:13Z</time>
      </trkpt>
      <trkpt lat="46.81289" lon="-2.12322">
        <ele>7.3</ele>
        <time>2020-06-04T09:59:14Z</time>
      </trkpt>
      <trkpt lat="46.8129" lon="-2.12326">
        <ele>7.4</ele>
        <time>2020-06-04T09:59:15Z</time>
      </trkpt>
      <trkpt lat="46.81291" lon="-2.12328">
        <ele>7.4</ele>
        <time>2020-06-04T09:59:16Z</time>
      </trkpt>
      <trkpt lat="46.81292" lon="-2.12333">
        <ele>7.5</ele>
        <time>2020-06-04T09:59:17Z</time>
      </trkpt>
      <trkpt lat="46.81292" lon="-2.12335">
        <ele>7.5</ele>
        <time>2020-06-04T09:59:18Z</time>
      </trkpt>
      <trkpt lat="46.81295" lon="-2.12338">
        <ele>7.5</ele>
        <time>2020-06-04T09:59:19Z</time>
      </trkpt>
      <trkpt lat="46.81295" lon="-2.12339">
        <ele>7.6</ele>
        <time>2020-06-04T09:59:20Z</time>
      </trkpt>
      <trkpt lat="46.81297" lon="-2.12343">
        <ele>7.6</ele>
        <time>2020-06-04T09:59:21Z</time>
      </trkpt>
      <trkpt lat="46.81298" lon="-2.12348">
        <ele>7.7</ele>
        <time>2020-06-04T09:59:22Z</time>
      </trkpt>
      <trkpt lat="46.81299" lon="-2.1235">
        <ele>7.7</ele>
        <time>2020-06-04T09:59:23Z</time>
      </trkpt>
      <trkpt lat="46.81301" lon="-2.12354">
        <ele>7.8</ele>
        <time>2020-06-04T09:59:24Z</time>
      </trkpt>
      <trkpt lat="46.81303" lon="-2.12358">
        <ele>7.9</ele>
        <time>2020-06-04T09:59:25Z</time>
      </trkpt>
      <trkpt lat="46.81304" lon="-2.12362">
        <ele>7.9</ele>
        <time>2020-06-04T09:59:26Z</time>
      </trkpt>
      <trkpt lat="46.81306" lon="-2.12367">
        <ele>8</ele>
        <time>2020-06-04T09:59:27Z</time>
      </trkpt>
      <trkpt lat="46.81307" lon="-2.12373">
        <ele>8.1</ele>
        <time>2020-06-04T09:59:28Z</time>
      </trkpt>
      <trkpt lat="46.81309" lon="-2.12378">
        <ele>8.2</ele>
        <time>2020-06-04T09:59:29Z</time>
      </trkpt>
      <trkpt lat="46.81312" lon="-2.12382">
        <ele>8.4</ele>
        <time>2020-06-04T09:59:30Z</time>
      </trkpt>
      <trkpt lat="46.81315" lon="-2.12386">
        <ele>8.5</ele>
        <time>2020-06-04T09:59:31Z</time>
      </trkpt>
      <trkpt lat="46.81318" lon="-2.12389">
        <ele>8.7</ele>
        <time>2020-06-04T09:59:32Z</time>
      </trkpt>
      <trkpt lat="46.81321" lon="-2.12392">
        <ele>8.8</ele>
        <time>2020-06-04T09:59:33Z</time>
      </trkpt>
      <trkpt lat="46.81325" lon="-2.12392">
        <ele>8.9</ele>
        <time>2020-06-04T09:59:34Z</time>
      </trkpt>
      <trkpt lat="46.81329" lon="-2.12391">
        <ele>9</ele>
        <time>2020-06-04T09:59:35Z</time>
      </trkpt>
      <trkpt lat="46.81332" lon="-2.12389">
        <ele>9.1</ele>
        <time>2020-06-04T09:59:36Z</time>
      </trkpt>
      <trkpt lat="46.81335" lon="-2.12386">
        <ele>9.2</ele>
        <time>2020-06-04T09:59:37Z</time>
      </trkpt>
      <trkpt lat="46.81337" lon="-2.12384">
        <ele>9.3</ele>
        <time>2020-06-04T09:59:38Z</time>
      </trkpt>
      <trkpt lat="46.8134" lon="-2.12382">
        <ele>9.4</ele>
        <time>2020-06-04T09:59:39Z</time>
      </trkpt>
      <trkpt lat="46.81344" lon="-2.12381">
        <ele>9.5</ele>
        <time>2020-06-04T09:59:40Z</time>
      </trkpt>
      <trkpt lat="46.81347" lon="-2.1238">
        <ele>9.6</ele>
        <time>2020-06-04T09:59:41Z</time>
      </trkpt>
      <trkpt lat="46.81351" lon="-2.12378">
        <ele>9.6</ele>
        <time>2020-06-04T09:59:42Z</time>
      </trkpt>
      <trkpt lat="46.81354" lon="-2.12378">
        <ele>9.7</ele>
        <time>2020-06-04T09:59:43Z</time>
      </trkpt>
      <trkpt lat="46.81357" lon="-2.12376">
        <ele>9.8</ele>
        <time>2020-06-04T09:59:44Z</time>
      </trkpt>
      <trkpt lat="46.81361" lon="-2.12376">
        <ele>9.9</ele>
        <time>2020-06-04T09:59:45Z</time>
      </trkpt>
      <trkpt lat="46.81364" lon="-2.12376">
        <ele>10</ele>
        <time>2020-06-04T09:59:46Z</time>
      </trkpt>
      <trkpt lat="46.81367" lon="-2.12376">
        <ele>10.1</ele>
        <time>2020-06-04T09:59:47Z</time>
      </trkpt>
      <trkpt lat="46.8137" lon="-2.12377">
        <ele>10.2</ele>
        <time>2020-06-04T09:59:48Z</time>
      </trkpt>
      <trkpt lat="46.81371" lon="-2.12377">
        <ele>10.3</ele>
        <time>2020-06-04T09:59:49Z</time>
      </trkpt>
      <trkpt lat="46.81374" lon="-2.12379">
        <ele>10.4</ele>
        <time>2020-06-04T09:59:50Z</time>
      </trkpt>
      <trkpt lat="46.81375" lon="-2.12379">
        <ele>10.4</ele>
        <time>2020-06-04T09:59:51Z</time>
      </trkpt>
      <trkpt lat="46.81379" lon="-2.12381">
        <ele>10.5</ele>
        <time>2020-06-04T09:59:52Z</time>
      </trkpt>
      <trkpt lat="46.8138" lon="-2.12382">
        <ele>10.5</ele>
        <time>2020-06-04T09:59:53Z</time>
      </trkpt>
      <trkpt lat="46.81384" lon="-2.12384">
        <ele>10.7</ele>
        <time>2020-06-04T09:59:54Z</time>
      </trkpt>
      <trkpt lat="46.81385" lon="-2.12385">
        <ele>10.7</ele>
        <time>2020-06-04T09:59:55Z</time>
      </trkpt>
      <trkpt lat="46.81389" lon="-2.12387">
        <ele>10.8</ele>
        <time>2020-06-04T09:59:56Z</time>
      </trkpt>
      <trkpt lat="46.81392" lon="-2.1239">
        <ele>10.8</ele>
        <time>2020-06-04T09:59:57Z</time>
      </trkpt>
      <trkpt lat="46.81393" lon="-2.12391">
        <ele>10.8</ele>
        <time>2020-06-04T09:59:58Z</time>
      </trkpt>
      <trkpt lat="46.81395" lon="-2.12394">
        <ele>10.9</ele>
        <time>2020-06-04T09:59:59Z</time>
      </trkpt>
      <trkpt lat="46.81397" lon="-2.12398">
        <ele>10.9</ele>
        <time>2020-06-04T10:00:00Z</time>
      </trkpt>
      <trkpt lat="46.81399" lon="-2.12402">
        <ele>10.9</ele>
        <time>2020-06-04T10:00:01Z</time>
      </trkpt>
      <trkpt lat="46.81401" lon="-2.12405">
        <ele>10.9</ele>
        <time>2020-06-04T10:00:02Z</time>
      </trkpt>
      <trkpt lat="46.81403" lon="-2.1241">
        <ele>10.9</ele>
        <time>2020-06-04T10:00:03Z</time>
      </trkpt>
      <trkpt lat="46.81403" lon="-2.12412">
        <ele>10.9</ele>
        <time>2020-06-04T10:00:04Z</time>
      </trkpt>
      <trkpt lat="46.81405" lon="-2.12416">
        <ele>10.9</ele>
        <time>2020-06-04T10:00:05Z</time>
      </trkpt>
      <trkpt lat="46.81406" lon="-2.12418">
        <ele>10.9</ele>
        <time>2020-06-04T10:00:06Z</time>
      </trkpt>
      <trkpt lat="46.81409" lon="-2.12424">
        <ele>10.8</ele>
        <time>2020-06-04T10:00:07Z</time>
      </trkpt>
      <trkpt lat="46.81411" lon="-2.12428">
        <ele>10.8</ele>
        <time>2020-06-04T10:00:08Z</time>
      </trkpt>
      <trkpt lat="46.81413" lon="-2.12431">
        <ele>10.7</ele>
        <time>2020-06-04T10:00:09Z</time>
      </trkpt>
      <trkpt lat="46.81414" lon="-2.12432">
        <ele>10.7</ele>
        <time>2020-06-04T10:00:10Z</time>
      </trkpt>
      <trkpt lat="46.81418" lon="-2.12435">
        <ele>10.6</ele>
        <time>2020-06-04T10:00:11Z</time>
      </trkpt>
      <trkpt lat="46.81419" lon="-2.12436">
        <ele>10.5</ele>
        <time>2020-06-04T10:00:12Z</time>
      </trkpt>
      <trkpt lat="46.81424" lon="-2.12439">
        <ele>10.4</ele>
        <time>2020-06-04T10:00:13Z</time>
      </trkpt>
      <trkpt lat="46.8143" lon="-2.12442">
        <ele>10.2</ele>
        <time>2020-06-04T10:00:14Z</time>
      </trkpt>
      <trkpt lat="46.81432" lon="-2.12445">
        <ele>10</ele>
        <time>2020-06-04T10:00:15Z</time>
      </trkpt>
      <trkpt lat="46.81436" lon="-2.12448">
        <ele>9.8</ele>
        <time>2020-06-04T10:00:16Z</time>
      </trkpt>
      <trkpt lat="46.81442" lon="-2.1245">
        <ele>9.5</ele>
        <time>2020-06-04T10:00:17Z</time>
      </trkpt>
      <trkpt lat="46.81449" lon="-2.12453">
        <ele>9.1</ele>
        <time>2020-06-04T10:00:18Z</time>
      </trkpt>
      <trkpt lat="46.81456" lon="-2.12456">
        <ele>8.6</ele>
        <time>2020-06-04T10:00:19Z</time>
      </trkpt>
      <trkpt lat="46.81462" lon="-2.12459">
        <ele>8.2</ele>
        <time>2020-06-04T10:00:20Z</time>
      </trkpt>
      <trkpt lat="46.81468" lon="-2.12463">
        <ele>7.8</ele>
        <time>2020-06-04T10:00:21Z</time>
      </trkpt>
      <trkpt lat="46.81476" lon="-2.12468">
        <ele>7.4</ele>
        <time>2020-06-04T10:00:22Z</time>
      </trkpt>
      <trkpt lat="46.81482" lon="-2.12472">
        <ele>7.1</ele>
        <time>2020-06-04T10:00:23Z</time>
      </trkpt>
      <trkpt lat="46.81489" lon="-2.12476">
        <ele>6.9</ele>
        <time>2020-06-04T10:00:24Z</time>
      </trkpt>
      <trkpt lat="46.81495" lon="-2.1248">
        <ele>6.6</ele>
        <time>2020-06-04T10:00:25Z</time>
      </trkpt>
      <trkpt lat="46.81501" lon="-2.12484">
        <ele>6.4</ele>
        <time>2020-06-04T10:00:26Z</time>
      </trkpt>
      <trkpt lat="46.81507" lon="-2.12489">
        <ele>6.3</ele>
        <time>2020-06-04T10:00:27Z</time>
      </trkpt>
      <trkpt lat="46.81513" lon="-2.12495">
        <ele>6.3</ele>
        <time>2020-06-04T10:00:28Z</time>
      </trkpt>
      <trkpt lat="46.81519" lon="-2.12502">
        <ele>6.3</ele>
        <time>2020-06-04T10:00:29Z</time>
      </trkpt>
      <trkpt lat="46.81525" lon="-2.12509">
        <ele>6.3</ele>
        <time>2020-06-04T10:00:30Z</time>
      </trkpt>
      <trkpt lat="46.8153" lon="-2.12515">
        <ele>6.4</ele>
        <time>2020-06-04T10:00:31Z</time>
      </trkpt>
      <trkpt lat="46.81535" lon="-2.12521">
        <ele>6.4</ele>
        <time>2020-06-04T10:00:32Z</time>
      </trkpt>
      <trkpt lat="46.81539" lon="-2.12528">
        <ele>6.5</ele>
        <time>2020-06-04T10:00:33Z</time>
      </trkpt>
      <trkpt lat="46.81544" lon="-2.12536">
        <ele>6.5</ele>
        <time>2020-06-04T10:00:34Z</time>
      </trkpt>
      <trkpt lat="46.81549" lon="-2.12545">
        <ele>6.4</ele>
        <time>2020-06-04T10:00:35Z</time>
      </trkpt>
      <trkpt lat="46.81553" lon="-2.12552">
        <ele>6.4</ele>
        <time>2020-06-04T10:00:36Z</time>
      </trkpt>
      <trkpt lat="46.81557" lon="-2.12559">
        <ele>6.3</ele>
        <time>2020-06-04T10:00:37Z</time>
      </trkpt>
      <trkpt lat="46.81561" lon="-2.12565">
        <ele>6.2</ele>
        <time>2020-06-04T10:00:38Z</time>
      </trkpt>
      <trkpt lat="46.81567" lon="-2.12572">
        <ele>6.1</ele>
        <time>2020-06-04T10:00:39Z</time>
      </trkpt>
      <trkpt lat="46.81572" lon="-2.12578">
        <ele>6</ele>
        <time>2020-06-04T10:00:40Z</time>
      </trkpt>
      <trkpt lat="46.81577" lon="-2.12584">
        <ele>6</ele>
        <time>2020-06-04T10:00:41Z</time>
      </trkpt>
      <trkpt lat="46.81584" lon="-2.12591">
        <ele>6</ele>
        <time>2020-06-04T10:00:42Z</time>
      </trkpt>
      <trkpt lat="46.81589" lon="-2.12596">
        <ele>6</ele>
        <time>2020-06-04T10:00:43Z</time>
      </trkpt>
      <trkpt lat="46.81594" lon="-2.12603">
        <ele>6</ele>
        <time>2020-06-04T10:00:44Z</time>
      </trkpt>
      <trkpt lat="46.81598" lon="-2.1261">
        <ele>6</ele>
        <time>2020-06-04T10:00:45Z</time>
      </trkpt>
      <trkpt lat="46.81602" lon="-2.12617">
        <ele>5.9</ele>
        <time>2020-06-04T10:00:46Z</time>
      </trkpt>
      <trkpt lat="46.81605" lon="-2.12625">
        <ele>5.9</ele>
        <time>2020-06-04T10:00:47Z</time>
      </trkpt>
      <trkpt lat="46.81607" lon="-2.12632">
        <ele>5.8</ele>
        <time>2020-06-04T10:00:48Z</time>
      </trkpt>
      <trkpt lat="46.81609" lon="-2.12639">
        <ele>5.7</ele>
        <time>2020-06-04T10:00:49Z</time>
      </trkpt>
      <trkpt lat="46.81613" lon="-2.12645">
        <ele>5.5</ele>
        <time>2020-06-04T10:00:50Z</time>
      </trkpt>
      <trkpt lat="46.81618" lon="-2.12651">
        <ele>5.4</ele>
        <time>2020-06-04T10:00:51Z</time>
      </trkpt>
      <trkpt lat="46.81621" lon="-2.12658">
        <ele>5.3</ele>
        <time>2020-06-04T10:00:52Z</time>
      </trkpt>
      <trkpt lat="46.81625" lon="-2.12666">
        <ele>5.1</ele>
        <time>2020-06-04T10:00:53Z</time>
      </trkpt>
      <trkpt lat="46.8163" lon="-2.12674">
        <ele>4.9</ele>
        <time>2020-06-04T10:00:54Z</time>
      </trkpt>
      <trkpt lat="46.81634" lon="-2.12684">
        <ele>4.7</ele>
        <time>2020-06-04T10:00:55Z</time>
      </trkpt>
      <trkpt lat="46.81638" lon="-2.12694">
        <ele>4.6</ele>
        <time>2020-06-04T10:00:56Z</time>
      </trkpt>
      <trkpt lat="46.81641" lon="-2.12704">
        <ele>4.4</ele>
        <time>2020-06-04T10:00:57Z</time>
      </trkpt>
      <trkpt lat="46.81643" lon="-2.12716">
        <ele>4.3</ele>
        <time>2020-06-04T10:00:58Z</time>
      </trkpt>
      <trkpt lat="46.81644" lon="-2.12727">
        <ele>4.2</ele>
        <time>2020-06-04T10:00:59Z</time>
      </trkpt>
      <trkpt lat="46.81645" lon="-2.12738">
        <ele>4.1</ele>
        <time>2020-06-04T10:01:00Z</time>
      </trkpt>
      <trkpt lat="46.81648" lon="-2.1275">
        <ele>4</ele>
        <time>2020-06-04T10:01:01Z</time>
      </trkpt>
      <trkpt lat="46.81652" lon="-2.1276">
        <ele>4</ele>
        <time>2020-06-04T10:01:02Z</time>
      </trkpt>
      <trkpt lat="46.81656" lon="-2.1277">
        <ele>3.9</ele>
        <time>2020-06-04T10:01:03Z</time>
      </trkpt>
      <trkpt lat="46.8166" lon="-2.1278">
        <ele>3.8</ele>
        <time>2020-06-04T10:01:04Z</time>
      </trkpt>
      <trkpt lat="46.81664" lon="-2.12791">
        <ele>3.8</ele>
        <time>2020-06-04T10:01:05Z</time>
      </trkpt>
      <trkpt lat="46.81667" lon="-2.12799">
        <ele>3.8</ele>
        <time>2020-06-04T10:01:06Z</time>
      </trkpt>
      <trkpt lat="46.81671" lon="-2.12808">
        <ele>3.9</ele>
        <time>2020-06-04T10:01:07Z</time>
      </trkpt>
      <trkpt lat="46.81675" lon="-2.12817">
        <ele>4.1</ele>
        <time>2020-06-04T10:01:08Z</time>
      </trkpt>
      <trkpt lat="46.81679" lon="-2.12827">
        <ele>4.2</ele>
        <time>2020-06-04T10:01:09Z</time>
      </trkpt>
      <trkpt lat="46.81682" lon="-2.12833">
        <ele>4.3</ele>
        <time>2020-06-04T10:01:10Z</time>
      </trkpt>
      <trkpt lat="46.81685" lon="-2.12841">
        <ele>4.4</ele>
        <time>2020-06-04T10:01:11Z</time>
      </trkpt>
      <trkpt lat="46.81688" lon="-2.12849">
        <ele>4.5</ele>
        <time>2020-06-04T10:01:12Z</time>
      </trkpt>
      <trkpt lat="46.81692" lon="-2.12857">
        <ele>4.5</ele>
        <time>2020-06-04T10:01:13Z</time>
      </trkpt>
      <trkpt lat="46.81695" lon="-2.12866">
        <ele>4.6</ele>
        <time>2020-06-04T10:01:14Z</time>
      </trkpt>
      <trkpt lat="46.81699" lon="-2.12874">
        <ele>4.6</ele>
        <time>2020-06-04T10:01:15Z</time>
      </trkpt>
      <trkpt lat="46.81704" lon="-2.12882">
        <ele>4.6</ele>
        <time>2020-06-04T10:01:16Z</time>
      </trkpt>
      <trkpt lat="46.81708" lon="-2.12888">
        <ele>4.6</ele>
        <time>2020-06-04T10:01:17Z</time>
      </trkpt>
      <trkpt lat="46.81712" lon="-2.12895">
        <ele>4.6</ele>
        <time>2020-06-04T10:01:18Z</time>
      </trkpt>
      <trkpt lat="46.81716" lon="-2.12902">
        <ele>4.6</ele>
        <time>2020-06-04T10:01:19Z</time>
      </trkpt>
      <trkpt lat="46.8172" lon="-2.12909">
        <ele>4.5</ele>
        <time>2020-06-04T10:01:20Z</time>
      </trkpt>
      <trkpt lat="46.81725" lon="-2.12915">
        <ele>4.5</ele>
        <time>2020-06-04T10:01:21Z</time>
      </trkpt>
      <trkpt lat="46.81731" lon="-2.12921">
        <ele>4.4</ele>
        <time>2020-06-04T10:01:22Z</time>
      </trkpt>
      <trkpt lat="46.81735" lon="-2.12928">
        <ele>4.3</ele>
        <time>2020-06-04T10:01:23Z</time>
      </trkpt>
      <trkpt lat="46.8174" lon="-2.12933">
        <ele>4.3</ele>
        <time>2020-06-04T10:01:24Z</time>
      </trkpt>
      <trkpt lat="46.81745" lon="-2.12939">
        <ele>4.2</ele>
        <time>2020-06-04T10:01:25Z</time>
      </trkpt>
      <trkpt lat="46.8175" lon="-2.12946">
        <ele>4.2</ele>
        <time>2020-06-04T10:01:26Z</time>
      </trkpt>
      <trkpt lat="46.81755" lon="-2.12954">
        <ele>4.1</ele>
        <time>2020-06-04T10:01:27Z</time>
      </trkpt>
      <trkpt lat="46.8176" lon="-2.12961">
        <ele>4.1</ele>
        <time>2020-06-04T10:01:28Z</time>
      </trkpt>
      <trkpt lat="46.81765" lon="-2.12969">
        <ele>4.1</ele>
        <time>2020-06-04T10:01:29Z</time>
      </trkpt>
      <trkpt lat="46.81769" lon="-2.12976">
        <ele>4.1</ele>
        <time>2020-06-04T10:01:30Z</time>
      </trkpt>
      <trkpt lat="46.81774" lon="-2.12984">
        <ele>4.1</ele>
        <time>2020-06-04T10:01:31Z</time>
      </trkpt>
      <trkpt lat="46.81779" lon="-2.12991">
        <ele>4.2</ele>
        <time>2020-06-04T10:01:32Z</time>
      </trkpt>
      <trkpt lat="46.81783" lon="-2.12998">
        <ele>4.3</ele>
        <time>2020-06-04T10:01:33Z</time>
      </trkpt>
      <trkpt lat="46.81787" lon="-2.13004">
        <ele>4.4</ele>
        <time>2020-06-04T10:01:34Z</time>
      </trkpt>
      <trkpt lat="46.8179" lon="-2.13009">
        <ele>4.5</ele>
        <time>2020-06-04T10:01:35Z</time>
      </trkpt>
      <trkpt lat="46.81793" lon="-2.13014">
        <ele>4.6</ele>
        <time>2020-06-04T10:01:36Z</time>
      </trkpt>
      <trkpt lat="46.81796" lon="-2.13018">
        <ele>4.6</ele>
        <time>2020-06-04T10:01:37Z</time>
      </trkpt>
      <trkpt lat="46.818" lon="-2.13023">
        <ele>4.7</ele>
        <time>2020-06-04T10:01:38Z</time>
      </trkpt>
      <trkpt lat="46.81802" lon="-2.13026">
        <ele>4.7</ele>
        <time>2020-06-04T10:01:39Z</time>
      </trkpt>
      <trkpt lat="46.81805" lon="-2.13031">
        <ele>4.7</ele>
        <time>2020-06-04T10:01:40Z</time>
      </trkpt>
      <trkpt lat="46.81808" lon="-2.13034">
        <ele>4.7</ele>
        <time>2020-06-04T10:01:41Z</time>
      </trkpt>
      <trkpt lat="46.81811" lon="-2.13037">
        <ele>4.8</ele>
        <time>2020-06-04T10:01:42Z</time>
      </trkpt>
      <trkpt lat="46.81812" lon="-2.13038">
        <ele>4.8</ele>
        <time>2020-06-04T10:01:43Z</time>
      </trkpt>
      <trkpt lat="46.81813" lon="-2.13038">
        <ele>4.8</ele>
        <time>2020-06-04T10:01:44Z</time>
      </trkpt>
      <trkpt lat="46.81815" lon="-2.13038">
        <ele>4.8</ele>
        <time>2020-06-04T10:01:45Z</time>
      </trkpt>
      <trkpt lat="46.81817" lon="-2.13041">
        <ele>4.8</ele>
        <time>2020-06-04T10:01:46Z</time>
      </trkpt>
      <trkpt lat="46.81817" lon="-2.13041">
        <ele>4.8</ele>
        <time>2020-06-04T10:01:47Z</time>
      </trkpt>
      <trkpt lat="46.81818" lon="-2.13042">
        <ele>4.8</ele>
        <time>2020-06-04T10:01:48Z</time>
      </trkpt>
      <trkpt lat="46.81821" lon="-2.13044">
        <ele>4.8</ele>
        <time>2020-06-04T10:01:49Z</time>
      </trkpt>
      <trkpt lat="46.81821" lon="-2.13044">
        <ele>4.8</ele>
        <time>2020-06-04T10:01:50Z</time>
      </trkpt>
      <trkpt lat="46.81824" lon="-2.13047">
        <ele>4.8</ele>
        <time>2020-06-04T10:01:51Z</time>
      </trkpt>
      <trkpt lat="46.81825" lon="-2.13048">
        <ele>4.8</ele>
        <time>2020-06-04T10:01:52Z</time>
      </trkpt>
      <trkpt lat="46.81829" lon="-2.1305">
        <ele>4.7</ele>
        <time>2020-06-04T10:01:53Z</time>
      </trkpt>
      <trkpt lat="46.8183" lon="-2.1305">
        <ele>4.7</ele>
        <time>2020-06-04T10:01:54Z</time>
      </trkpt>
      <trkpt lat="46.81833" lon="-2.13052">
        <ele>4.7</ele>
        <time>2020-06-04T10:01:55Z</time>
      </trkpt>
      <trkpt lat="46.81835" lon="-2.13053">
        <ele>4.7</ele>
        <time>2020-06-04T10:01:56Z</time>
      </trkpt>
      <trkpt lat="46.81839" lon="-2.13054">
        <ele>4.7</ele>
        <time>2020-06-04T10:01:57Z</time>
      </trkpt>
      <trkpt lat="46.81843" lon="-2.13056">
        <ele>4.6</ele>
        <time>2020-06-04T10:01:58Z</time>
      </trkpt>
      <trkpt lat="46.81846" lon="-2.13058">
        <ele>4.6</ele>
        <time>2020-06-04T10:01:59Z</time>
      </trkpt>
      <trkpt lat="46.8185" lon="-2.13059">
        <ele>4.5</ele>
        <time>2020-06-04T10:02:00Z</time>
      </trkpt>
      <trkpt lat="46.81853" lon="-2.13062">
        <ele>4.4</ele>
        <time>2020-06-04T10:02:01Z</time>
      </trkpt>
      <trkpt lat="46.81857" lon="-2.13064">
        <ele>4.4</ele>
        <time>2020-06-04T10:02:02Z</time>
      </trkpt>
      <trkpt lat="46.81861" lon="-2.13065">
        <ele>4.3</ele>
        <time>2020-06-04T10:02:03Z</time>
      </trkpt>
      <trkpt lat="46.81866" lon="-2.13064">
        <ele>4.2</ele>
        <time>2020-06-04T10:02:04Z</time>
      </trkpt>
      <trkpt lat="46.81871" lon="-2.13065">
        <ele>4.2</ele>
        <time>2020-06-04T10:02:05Z</time>
      </trkpt>
      <trkpt lat="46.81875" lon="-2.13067">
        <ele>4.1</ele>
        <time>2020-06-04T10:02:06Z</time>
      </trkpt>
      <trkpt lat="46.81878" lon="-2.1307">
        <ele>4.1</ele>
        <time>2020-06-04T10:02:07Z</time>
      </trkpt>
      <trkpt lat="46.81882" lon="-2.13074">
        <ele>4.1</ele>
        <time>2020-06-04T10:02:08Z</time>
      </trkpt>
      <trkpt lat="46.81887" lon="-2.13077">
        <ele>4.1</ele>
        <time>2020-06-04T10:02:09Z</time>
      </trkpt>
      <trkpt lat="46.8189" lon="-2.13082">
        <ele>4</ele>
        <time>2020-06-04T10:02:10Z</time>
      </trkpt>
      <trkpt lat="46.81893" lon="-2.13086">
        <ele>4</ele>
        <time>2020-06-04T10:02:11Z</time>
      </trkpt>
      <trkpt lat="46.81895" lon="-2.13091">
        <ele>4</ele>
        <time>2020-06-04T10:02:12Z</time>
      </trkpt>
      <trkpt lat="46.81897" lon="-2.13095">
        <ele>4.1</ele>
        <time>2020-06-04T10:02:13Z</time>
      </trkpt>
      <trkpt lat="46.819" lon="-2.13099">
        <ele>4.1</ele>
        <time>2020-06-04T10:02:14Z</time>
      </trkpt>
      <trkpt lat="46.81902" lon="-2.13102">
        <ele>4.1</ele>
        <time>2020-06-04T10:02:15Z</time>
      </trkpt>
      <trkpt lat="46.81904" lon="-2.13105">
        <ele>4.1</ele>
        <time>2020-06-04T10:02:16Z</time>
      </trkpt>
      <trkpt lat="46.81906" lon="-2.13109">
        <ele>4.2</ele>
        <time>2020-06-04T10:02:17Z</time>
      </trkpt>
      <trkpt lat="46.81908" lon="-2.13112">
        <ele>4.2</ele>
        <time>2020-06-04T10:02:18Z</time>
      </trkpt>
      <trkpt lat="46.8191" lon="-2.13116">
        <ele>4.2</ele>
        <time>2020-06-04T10:02:19Z</time>
      </trkpt>
      <trkpt lat="46.81912" lon="-2.13119">
        <ele>4.3</ele>
        <time>2020-06-04T10:02:20Z</time>
      </trkpt>
      <trkpt lat="46.81915" lon="-2.13122">
        <ele>4.3</ele>
        <time>2020-06-04T10:02:21Z</time>
      </trkpt>
      <trkpt lat="46.81918" lon="-2.13126">
        <ele>4.4</ele>
        <time>2020-06-04T10:02:22Z</time>
      </trkpt>
      <trkpt lat="46.8192" lon="-2.13129">
        <ele>4.5</ele>
        <time>2020-06-04T10:02:23Z</time>
      </trkpt>
      <trkpt lat="46.81923" lon="-2.13131">
        <ele>4.6</ele>
        <time>2020-06-04T10:02:24Z</time>
      </trkpt>
      <trkpt lat="46.81926" lon="-2.13134">
        <ele>4.7</ele>
        <time>2020-06-04T10:02:25Z</time>
      </trkpt>
      <trkpt lat="46.81927" lon="-2.13135">
        <ele>4.7</ele>
        <time>2020-06-04T10:02:26Z</time>
      </trkpt>
      <trkpt lat="46.8193" lon="-2.13135">
        <ele>4.8</ele>
        <time>2020-06-04T10:02:27Z</time>
      </trkpt>
      <trkpt lat="46.81933" lon="-2.13137">
        <ele>4.9</ele>
        <time>2020-06-04T10:02:28Z</time>
      </trkpt>
      <trkpt lat="46.81934" lon="-2.13139">
        <ele>5</ele>
        <time>2020-06-04T10:02:29Z</time>
      </trkpt>
      <trkpt lat="46.81937" lon="-2.13142">
        <ele>5.1</ele>
        <time>2020-06-04T10:02:30Z</time>
      </trkpt>
      <trkpt lat="46.8194" lon="-2.13144">
        <ele>5.2</ele>
        <time>2020-06-04T10:02:31Z</time>
      </trkpt>
      <trkpt lat="46.81942" lon="-2.13149">
        <ele>5.3</ele>
        <time>2020-06-04T10:02:32Z</time>
      </trkpt>
      <trkpt lat="46.81945" lon="-2.13153">
        <ele>5.4</ele>
        <time>2020-06-04T10:02:33Z</time>
      </trkpt>
      <trkpt lat="46.81948" lon="-2.13159">
        <ele>5.6</ele>
        <time>2020-06-04T10:02:34Z</time>
      </trkpt>
      <trkpt lat="46.81952" lon="-2.13164">
        <ele>5.7</ele>
        <time>2020-06-04T10:02:35Z</time>
      </trkpt>
      <trkpt lat="46.81955" lon="-2.13168">
        <ele>5.8</ele>
        <time>2020-06-04T10:02:36Z</time>
      </trkpt>
      <trkpt lat="46.81958" lon="-2.13172">
        <ele>5.9</ele>
        <time>2020-06-04T10:02:37Z</time>
      </trkpt>
      <trkpt lat="46.81961" lon="-2.13178">
        <ele>5.9</ele>
        <time>2020-06-04T10:02:38Z</time>
      </trkpt>
      <trkpt lat="46.81963" lon="-2.13185">
        <ele>5.9</ele>
        <time>2020-06-04T10:02:39Z</time>
      </trkpt>
      <trkpt lat="46.81966" lon="-2.13191">
        <ele>5.9</ele>
        <time>2020-06-04T10:02:40Z</time>
      </trkpt>
      <trkpt lat="46.81969" lon="-2.13196">
        <ele>5.8</ele>
        <time>2020-06-04T10:02:41Z</time>
      </trkpt>
      <trkpt lat="46.81971" lon="-2.132">
        <ele>5.8</ele>
        <time>2020-06-04T10:02:42Z</time>
      </trkpt>
      <trkpt lat="46.81973" lon="-2.13205">
        <ele>5.7</ele>
        <time>2020-06-04T10:02:43Z</time>
      </trkpt>
      <trkpt lat="46.81977" lon="-2.13214">
        <ele>5.5</ele>
        <time>2020-06-04T10:02:44Z</time>
      </trkpt>
      <trkpt lat="46.81981" lon="-2.13227">
        <ele>5.3</ele>
        <time>2020-06-04T10:02:45Z</time>
      </trkpt>
      <trkpt lat="46.81983" lon="-2.13239">
        <ele>5.1</ele>
        <time>2020-06-04T10:02:46Z</time>
      </trkpt>
      <trkpt lat="46.81983" lon="-2.13249">
        <ele>5.1</ele>
        <time>2020-06-04T10:02:47Z</time>
      </trkpt>
      <trkpt lat="46.81982" lon="-2.13257">
        <ele>5</ele>
        <time>2020-06-04T10:02:48Z</time>
      </trkpt>
      <trkpt lat="46.81982" lon="-2.13267">
        <ele>5</ele>
        <time>2020-06-04T10:02:49Z</time>
      </trkpt>
      <trkpt lat="46.81982" lon="-2.13278">
        <ele>5</ele>
        <time>2020-06-04T10:02:50Z</time>
      </trkpt>
      <trkpt lat="46.81982" lon="-2.13288">
        <ele>5.1</ele>
        <time>2020-06-04T10:02:51Z</time>
      </trkpt>
      <trkpt lat="46.81983" lon="-2.13301">
        <ele>5.2</ele>
        <time>2020-06-04T10:02:52Z</time>
      </trkpt>
      <trkpt lat="46.81982" lon="-2.1331">
        <ele>5.3</ele>
        <time>2020-06-04T10:02:53Z</time>
      </trkpt>
      <trkpt lat="46.81981" lon="-2.13317">
        <ele>5.4</ele>
        <time>2020-06-04T10:02:54Z</time>
      </trkpt>
      <trkpt lat="46.81982" lon="-2.13324">
        <ele>5.4</ele>
        <time>2020-06-04T10:02:55Z</time>
      </trkpt>
      <trkpt lat="46.81982" lon="-2.1333">
        <ele>5.5</ele>
        <time>2020-06-04T10:02:56Z</time>
      </trkpt>
      <trkpt lat="46.81982" lon="-2.13338">
        <ele>5.6</ele>
        <time>2020-06-04T10:02:57Z</time>
      </trkpt>
      <trkpt lat="46.81981" lon="-2.13345">
        <ele>5.7</ele>
        <time>2020-06-04T10:02:58Z</time>
      </trkpt>
      <trkpt lat="46.81981" lon="-2.13349">
        <ele>5.8</ele>
        <time>2020-06-04T10:02:59Z</time>
      </trkpt>
      <trkpt lat="46.8198" lon="-2.13355">
        <ele>5.9</ele>
        <time>2020-06-04T10:03:00Z</time>
      </trkpt>
      <trkpt lat="46.8198" lon="-2.13357">
        <ele>5.9</ele>
        <time>2020-06-04T10:03:01Z</time>
      </trkpt>
      <trkpt lat="46.8198" lon="-2.13364">
        <ele>6.1</ele>
        <time>2020-06-04T10:03:02Z</time>
      </trkpt>
      <trkpt lat="46.8198" lon="-2.13368">
        <ele>6.1</ele>
        <time>2020-06-04T10:03:03Z</time>
      </trkpt>
      <trkpt lat="46.8198" lon="-2.13373">
        <ele>6.3</ele>
        <time>2020-06-04T10:03:04Z</time>
      </trkpt>
      <trkpt lat="46.8198" lon="-2.13375">
        <ele>6.3</ele>
        <time>2020-06-04T10:03:05Z</time>
      </trkpt>
      <trkpt lat="46.81979" lon="-2.1338">
        <ele>6.4</ele>
        <time>2020-06-04T10:03:06Z</time>
      </trkpt>
      <trkpt lat="46.81978" lon="-2.13381">
        <ele>6.5</ele>
        <time>2020-06-04T10:03:07Z</time>
      </trkpt>
      <trkpt lat="46.81977" lon="-2.13388">
        <ele>6.6</ele>
        <time>2020-06-04T10:03:08Z</time>
      </trkpt>
      <trkpt lat="46.81976" lon="-2.13394">
        <ele>6.8</ele>
        <time>2020-06-04T10:03:09Z</time>
      </trkpt>
      <trkpt lat="46.81976" lon="-2.13398">
        <ele>6.9</ele>
        <time>2020-06-04T10:03:10Z</time>
      </trkpt>
      <trkpt lat="46.81975" lon="-2.13402">
        <ele>7</ele>
        <time>2020-06-04T10:03:11Z</time>
      </trkpt>
      <trkpt lat="46.81974" lon="-2.13406">
        <ele>7.1</ele>
        <time>2020-06-04T10:03:12Z</time>
      </trkpt>
      <trkpt lat="46.81974" lon="-2.13412">
        <ele>7.2</ele>
        <time>2020-06-04T10:03:13Z</time>
      </trkpt>
      <trkpt lat="46.81974" lon="-2.13413">
        <ele>7.2</ele>
        <time>2020-06-04T10:03:14Z</time>
      </trkpt>
      <trkpt lat="46.81974" lon="-2.13417">
        <ele>7.3</ele>
        <time>2020-06-04T10:03:15Z</time>
      </trkpt>
      <trkpt lat="46.81974" lon="-2.13419">
        <ele>7.3</ele>
        <time>2020-06-04T10:03:16Z</time>
      </trkpt>
      <trkpt lat="46.81974" lon="-2.13423">
        <ele>7.3</ele>
        <time>2020-06-04T10:03:17Z</time>
      </trkpt>
      <trkpt lat="46.81974" lon="-2.13425">
        <ele>7.4</ele>
        <time>2020-06-04T10:03:18Z</time>
      </trkpt>
      <trkpt lat="46.81974" lon="-2.13427">
        <ele>7.4</ele>
        <time>2020-06-04T10:03:19Z</time>
      </trkpt>
      <trkpt lat="46.81974" lon="-2.1343">
        <ele>7.4</ele>
        <time>2020-06-04T10:03:20Z</time>
      </trkpt>
      <trkpt lat="46.81976" lon="-2.13434">
        <ele>7.5</ele>
        <time>2020-06-04T10:03:21Z</time>
      </trkpt>
      <trkpt lat="46.81976" lon="-2.13436">
        <ele>7.5</ele>
        <time>2020-06-04T10:03:22Z</time>
      </trkpt>
      <trkpt lat="46.81977" lon="-2.13442">
        <ele>7.6</ele>
        <time>2020-06-04T10:03:23Z</time>
      </trkpt>
      <trkpt lat="46.81977" lon="-2.13445">
        <ele>7.6</ele>
        <time>2020-06-04T10:03:24Z</time>
      </trkpt>
      <trkpt lat="46.81978" lon="-2.1345">
        <ele>7.7</ele>
        <time>2020-06-04T10:03:25Z</time>
      </trkpt>
      <trkpt lat="46.81977" lon="-2.13451">
        <ele>7.7</ele>
        <time>2020-06-04T10:03:26Z</time>
      </trkpt>
      <trkpt lat="46.81978" lon="-2.13457">
        <ele>7.7</ele>
        <time>2020-06-04T10:03:27Z</time>
      </trkpt>
      <trkpt lat="46.81979" lon="-2.1346">
        <ele>7.7</ele>
        <time>2020-06-04T10:03:28Z</time>
      </trkpt>
      <trkpt lat="46.8198" lon="-2.13464">
        <ele>7.8</ele>
        <time>2020-06-04T10:03:29Z</time>
      </trkpt>
      <trkpt lat="46.81981" lon="-2.13467">
        <ele>7.8</ele>
        <time>2020-06-04T10:03:30Z</time>
      </trkpt>
      <trkpt lat="46.81982" lon="-2.13471">
        <ele>7.8</ele>
        <time>2020-06-04T10:03:31Z</time>
      </trkpt>
      <trkpt lat="46.81984" lon="-2.13475">
        <ele>7.8</ele>
        <time>2020-06-04T10:03:32Z</time>
      </trkpt>
      <trkpt lat="46.81985" lon="-2.1348">
        <ele>7.9</ele>
        <time>2020-06-04T10:03:33Z</time>
      </trkpt>
      <trkpt lat="46.81986" lon="-2.13481">
        <ele>7.9</ele>
        <time>2020-06-04T10:03:34Z</time>
      </trkpt>
      <trkpt lat="46.81986" lon="-2.13486">
        <ele>7.9</ele>
        <time>2020-06-04T10:03:35Z</time>
      </trkpt>
      <trkpt lat="46.81986" lon="-2.13489">
        <ele>7.9</ele>
        <time>2020-06-04T10:03:36Z</time>
      </trkpt>
      <trkpt lat="46.81988" lon="-2.13493">
        <ele>8</ele>
        <time>2020-06-04T10:03:37Z</time>
      </trkpt>
      <trkpt lat="46.81988" lon="-2.13498">
        <ele>8</ele>
        <time>2020-06-04T10:03:38Z</time>
      </trkpt>
      <trkpt lat="46.81989" lon="-2.135">
        <ele>8</ele>
        <time>2020-06-04T10:03:39Z</time>
      </trkpt>
      <trkpt lat="46.8199" lon="-2.13503">
        <ele>8.1</ele>
        <time>2020-06-04T10:03:40Z</time>
      </trkpt>
      <trkpt lat="46.8199" lon="-2.13505">
        <ele>8.1</ele>
        <time>2020-06-04T10:03:41Z</time>
      </trkpt>
      <trkpt lat="46.81991" lon="-2.13509">
        <ele>8.1</ele>
        <time>2020-06-04T10:03:42Z</time>
      </trkpt>
      <trkpt lat="46.81992" lon="-2.13514">
        <ele>8.2</ele>
        <time>2020-06-04T10:03:43Z</time>
      </trkpt>
      <trkpt lat="46.81993" lon="-2.13519">
        <ele>8.2</ele>
        <time>2020-06-04T10:03:44Z</time>
      </trkpt>
      <trkpt lat="46.81993" lon="-2.13521">
        <ele>8.2</ele>
        <time>2020-06-04T10:03:45Z</time>
      </trkpt>
      <trkpt lat="46.81994" lon="-2.13525">
        <ele>8.3</ele>
        <time>2020-06-04T10:03:46Z</time>
      </trkpt>
      <trkpt lat="46.81995" lon="-2.1353">
        <ele>8.3</ele>
        <time>2020-06-04T10:03:47Z</time>
      </trkpt>
      <trkpt lat="46.81995" lon="-2.13532">
        <ele>8.3</ele>
        <time>2020-06-04T10:03:48Z</time>
      </trkpt>
      <trkpt lat="46.81996" lon="-2.13536">
        <ele>8.4</ele>
        <time>2020-06-04T10:03:49Z</time>
      </trkpt>
      <trkpt lat="46.81997" lon="-2.13541">
        <ele>8.4</ele>
        <time>2020-06-04T10:03:50Z</time>
      </trkpt>
      <trkpt lat="46.81998" lon="-2.13545">
        <ele>8.5</ele>
        <time>2020-06-04T10:03:51Z</time>
      </trkpt>
      <trkpt lat="46.81999" lon="-2.13549">
        <ele>8.5</ele>
        <time>2020-06-04T10:03:52Z</time>
      </trkpt>
      <trkpt lat="46.82" lon="-2.13553">
        <ele>8.5</ele>
        <time>2020-06-04T10:03:53Z</time>
      </trkpt>
      <trkpt lat="46.82002" lon="-2.13557">
        <ele>8.5</ele>
        <time>2020-06-04T10:03:54Z</time>
      </trkpt>
      <trkpt lat="46.82003" lon="-2.13562">
        <ele>8.5</ele>
        <time>2020-06-04T10:03:55Z</time>
      </trkpt>
      <trkpt lat="46.82005" lon="-2.13567">
        <ele>8.5</ele>
        <time>2020-06-04T10:03:56Z</time>
      </trkpt>
      <trkpt lat="46.82006" lon="-2.13573">
        <ele>8.5</ele>
        <time>2020-06-04T10:03:57Z</time>
      </trkpt>
      <trkpt lat="46.82008" lon="-2.13577">
        <ele>8.5</ele>
        <time>2020-06-04T10:03:58Z</time>
      </trkpt>
      <trkpt lat="46.8201" lon="-2.13583">
        <ele>8.5</ele>
        <time>2020-06-04T10:03:59Z</time>
      </trkpt>
      <trkpt lat="46.82011" lon="-2.13588">
        <ele>8.5</ele>
        <time>2020-06-04T10:04:00Z</time>
      </trkpt>
      <trkpt lat="46.82012" lon="-2.13593">
        <ele>8.5</ele>
        <time>2020-06-04T10:04:01Z</time>
      </trkpt>
      <trkpt lat="46.82013" lon="-2.13597">
        <ele>8.5</ele>
        <time>2020-06-04T10:04:02Z</time>
      </trkpt>
      <trkpt lat="46.82014" lon="-2.13601">
        <ele>8.5</ele>
        <time>2020-06-04T10:04:03Z</time>
      </trkpt>
      <trkpt lat="46.82015" lon="-2.13605">
        <ele>8.5</ele>
        <time>2020-06-04T10:04:04Z</time>
      </trkpt>
      <trkpt lat="46.82017" lon="-2.13609">
        <ele>8.5</ele>
        <time>2020-06-04T10:04:05Z</time>
      </trkpt>
      <trkpt lat="46.82018" lon="-2.13613">
        <ele>8.5</ele>
        <time>2020-06-04T10:04:06Z</time>
      </trkpt>
      <trkpt lat="46.82019" lon="-2.13618">
        <ele>8.5</ele>
        <time>2020-06-04T10:04:07Z</time>
      </trkpt>
      <trkpt lat="46.82021" lon="-2.13624">
        <ele>8.5</ele>
        <time>2020-06-04T10:04:08Z</time>
      </trkpt>
      <trkpt lat="46.82021" lon="-2.1363">
        <ele>8.5</ele>
        <time>2020-06-04T10:04:09Z</time>
      </trkpt>
      <trkpt lat="46.82023" lon="-2.13635">
        <ele>8.5</ele>
        <time>2020-06-04T10:04:10Z</time>
      </trkpt>
      <trkpt lat="46.82024" lon="-2.1364">
        <ele>8.5</ele>
        <time>2020-06-04T10:04:11Z</time>
      </trkpt>
      <trkpt lat="46.82024" lon="-2.13645">
        <ele>8.5</ele>
        <time>2020-06-04T10:04:12Z</time>
      </trkpt>
      <trkpt lat="46.82025" lon="-2.1365">
        <ele>8.5</ele>
        <time>2020-06-04T10:04:13Z</time>
      </trkpt>
      <trkpt lat="46.82027" lon="-2.13655">
        <ele>8.5</ele>
        <time>2020-06-04T10:04:14Z</time>
      </trkpt>
      <trkpt lat="46.82029" lon="-2.1366">
        <ele>8.5</ele>
        <time>2020-06-04T10:04:15Z</time>
      </trkpt>
      <trkpt lat="46.8203" lon="-2.13664">
        <ele>8.5</ele>
        <time>2020-06-04T10:04:16Z</time>
      </trkpt>
      <trkpt lat="46.8203" lon="-2.13668">
        <ele>8.6</ele>
        <time>2020-06-04T10:04:17Z</time>
      </trkpt>
      <trkpt lat="46.82031" lon="-2.13672">
        <ele>8.6</ele>
        <time>2020-06-04T10:04:18Z</time>
      </trkpt>
      <trkpt lat="46.82033" lon="-2.13675">
        <ele>8.6</ele>
        <time>2020-06-04T10:04:19Z</time>
      </trkpt>
      <trkpt lat="46.82035" lon="-2.13676">
        <ele>8.6</ele>
        <time>2020-06-04T10:04:20Z</time>
      </trkpt>
      <trkpt lat="46.82036" lon="-2.13678">
        <ele>8.6</ele>
        <time>2020-06-04T10:04:21Z</time>
      </trkpt>
      <trkpt lat="46.82036" lon="-2.13683">
        <ele>8.6</ele>
        <time>2020-06-04T10:04:22Z</time>
      </trkpt>
      <trkpt lat="46.82036" lon="-2.13684">
        <ele>8.6</ele>
        <time>2020-06-04T10:04:23Z</time>
      </trkpt>
      <trkpt lat="46.82037" lon="-2.13686">
        <ele>8.6</ele>
        <time>2020-06-04T10:04:24Z</time>
      </trkpt>
      <trkpt lat="46.82038" lon="-2.1369">
        <ele>8.6</ele>
        <time>2020-06-04T10:04:25Z</time>
      </trkpt>
      <trkpt lat="46.82039" lon="-2.13694">
        <ele>8.6</ele>
        <time>2020-06-04T10:04:26Z</time>
      </trkpt>
      <trkpt lat="46.8204" lon="-2.13699">
        <ele>8.6</ele>
        <time>2020-06-04T10:04:27Z</time>
      </trkpt>
      <trkpt lat="46.82041" lon="-2.137">
        <ele>8.6</ele>
        <time>2020-06-04T10:04:28Z</time>
      </trkpt>
      <trkpt lat="46.82042" lon="-2.13702">
        <ele>8.6</ele>
        <time>2020-06-04T10:04:29Z</time>
      </trkpt>
      <trkpt lat="46.82043" lon="-2.13704">
        <ele>8.6</ele>
        <time>2020-06-04T10:04:30Z</time>
      </trkpt>
      <trkpt lat="46.82044" lon="-2.13704">
        <ele>8.6</ele>
        <time>2020-06-04T10:04:31Z</time>
      </trkpt>
      <trkpt lat="46.82044" lon="-2.13706">
        <ele>8.6</ele>
        <time>2020-06-04T10:04:32Z</time>
      </trkpt>
      <trkpt lat="46.82045" lon="-2.13707">
        <ele>8.6</ele>
        <time>2020-06-04T10:04:33Z</time>
      </trkpt>
      <trkpt lat="46.82045" lon="-2.13711">
        <ele>8.6</ele>
        <time>2020-06-04T10:04:34Z</time>
      </trkpt>
      <trkpt lat="46.82046" lon="-2.13712">
        <ele>8.6</ele>
        <time>2020-06-04T10:04:35Z</time>
      </trkpt>
      <trkpt lat="46.82047" lon="-2.13713">
        <ele>8.5</ele>
        <time>2020-06-04T10:04:36Z</time>
      </trkpt>
      <trkpt lat="46.82048" lon="-2.13714">
        <ele>8.5</ele>
        <time>2020-06-04T10:04:37Z</time>
      </trkpt>
      <trkpt lat="46.8205" lon="-2.13717">
        <ele>8.5</ele>
        <time>2020-06-04T10:04:38Z</time>
      </trkpt>
      <trkpt lat="46.82051" lon="-2.13718">
        <ele>8.5</ele>
        <time>2020-06-04T10:04:39Z</time>
      </trkpt>
      <trkpt lat="46.82054" lon="-2.13721">
        <ele>8.4</ele>
        <time>2020-06-04T10:04:40Z</time>
      </trkpt>
      <trkpt lat="46.82055" lon="-2.13721">
        <ele>8.4</ele>
        <time>2020-06-04T10:04:41Z</time>
      </trkpt>
      <trkpt lat="46.82057" lon="-2.13724">
        <ele>8.4</ele>
        <time>2020-06-04T10:04:42Z</time>
      </trkpt>
      <trkpt lat="46.82058" lon="-2.13725">
        <ele>8.3</ele>
        <time>2020-06-04T10:04:43Z</time>
      </trkpt>
      <trkpt lat="46.8206" lon="-2.13727">
        <ele>8.3</ele>
        <time>2020-06-04T10:04:44Z</time>
      </trkpt>
      <trkpt lat="46.82064" lon="-2.13729">
        <ele>8.2</ele>
        <time>2020-06-04T10:04:45Z</time>
      </trkpt>
      <trkpt lat="46.82069" lon="-2.13731">
        <ele>8.1</ele>
        <time>2020-06-04T10:04:46Z</time>
      </trkpt>
      <trkpt lat="46.82072" lon="-2.13733">
        <ele>8</ele>
        <time>2020-06-04T10:04:47Z</time>
      </trkpt>
      <trkpt lat="46.82076" lon="-2.13735">
        <ele>7.9</ele>
        <time>2020-06-04T10:04:48Z</time>
      </trkpt>
      <trkpt lat="46.82079" lon="-2.13738">
        <ele>7.9</ele>
        <time>2020-06-04T10:04:49Z</time>
      </trkpt>
      <trkpt lat="46.82083" lon="-2.1374">
        <ele>7.9</ele>
        <time>2020-06-04T10:04:50Z</time>
      </trkpt>
      <trkpt lat="46.82085" lon="-2.13741">
        <ele>7.9</ele>
        <time>2020-06-04T10:04:51Z</time>
      </trkpt>
      <trkpt lat="46.82089" lon="-2.13742">
        <ele>7.8</ele>
        <time>2020-06-04T10:04:52Z</time>
      </trkpt>
      <trkpt lat="46.8209" lon="-2.13743">
        <ele>7.8</ele>
        <time>2020-06-04T10:04:53Z</time>
      </trkpt>
      <trkpt lat="46.82093" lon="-2.13744">
        <ele>7.9</ele>
        <time>2020-06-04T10:04:54Z</time>
      </trkpt>
      <trkpt lat="46.82094" lon="-2.13745">
        <ele>7.9</ele>
        <time>2020-06-04T10:04:55Z</time>
      </trkpt>
      <trkpt lat="46.82097" lon="-2.13747">
        <ele>7.9</ele>
        <time>2020-06-04T10:04:56Z</time>
      </trkpt>
      <trkpt lat="46.82098" lon="-2.13748">
        <ele>7.9</ele>
        <time>2020-06-04T10:04:57Z</time>
      </trkpt>
      <trkpt lat="46.82101" lon="-2.13749">
        <ele>8</ele>
        <time>2020-06-04T10:04:58Z</time>
      </trkpt>
      <trkpt lat="46.82104" lon="-2.13751">
        <ele>8</ele>
        <time>2020-06-04T10:04:59Z</time>
      </trkpt>
      <trkpt lat="46.82105" lon="-2.13752">
        <ele>8</ele>
        <time>2020-06-04T10:05:00Z</time>
      </trkpt>
      <trkpt lat="46.82108" lon="-2.13755">
        <ele>8.1</ele>
        <time>2020-06-04T10:05:01Z</time>
      </trkpt>
      <trkpt lat="46.8211" lon="-2.13757">
        <ele>8.1</ele>
        <time>2020-06-04T10:05:02Z</time>
      </trkpt>
      <trkpt lat="46.82112" lon="-2.13761">
        <ele>8.2</ele>
        <time>2020-06-04T10:05:03Z</time>
      </trkpt>
      <trkpt lat="46.82116" lon="-2.13763">
        <ele>8.2</ele>
        <time>2020-06-04T10:05:04Z</time>
      </trkpt>
      <trkpt lat="46.8212" lon="-2.13765">
        <ele>8.3</ele>
        <time>2020-06-04T10:05:05Z</time>
      </trkpt>
      <trkpt lat="46.82123" lon="-2.13767">
        <ele>8.3</ele>
        <time>2020-06-04T10:05:06Z</time>
      </trkpt>
      <trkpt lat="46.82126" lon="-2.13768">
        <ele>8.4</ele>
        <time>2020-06-04T10:05:07Z</time>
      </trkpt>
      <trkpt lat="46.82128" lon="-2.13769">
        <ele>8.4</ele>
        <time>2020-06-04T10:05:08Z</time>
      </trkpt>
      <trkpt lat="46.82131" lon="-2.13771">
        <ele>8.4</ele>
        <time>2020-06-04T10:05:09Z</time>
      </trkpt>
      <trkpt lat="46.82134" lon="-2.13774">
        <ele>8.4</ele>
        <time>2020-06-04T10:05:10Z</time>
      </trkpt>
      <trkpt lat="46.82136" lon="-2.13776">
        <ele>8.4</ele>
        <time>2020-06-04T10:05:11Z</time>
      </trkpt>
      <trkpt lat="46.82138" lon="-2.13779">
        <ele>8.4</ele>
        <time>2020-06-04T10:05:12Z</time>
      </trkpt>
      <trkpt lat="46.82139" lon="-2.13779">
        <ele>8.4</ele>
        <time>2020-06-04T10:05:13Z</time>
      </trkpt>
      <trkpt lat="46.82143" lon="-2.13782">
        <ele>8.3</ele>
        <time>2020-06-04T10:05:14Z</time>
      </trkpt>
      <trkpt lat="46.82146" lon="-2.13787">
        <ele>8.2</ele>
        <time>2020-06-04T10:05:15Z</time>
      </trkpt>
      <trkpt lat="46.82149" lon="-2.1379">
        <ele>8.1</ele>
        <time>2020-06-04T10:05:16Z</time>
      </trkpt>
      <trkpt lat="46.82153" lon="-2.1379">
        <ele>8</ele>
        <time>2020-06-04T10:05:17Z</time>
      </trkpt>
      <trkpt lat="46.82157" lon="-2.1379">
        <ele>7.8</ele>
        <time>2020-06-04T10:05:18Z</time>
      </trkpt>
      <trkpt lat="46.8216" lon="-2.13793">
        <ele>7.7</ele>
        <time>2020-06-04T10:05:19Z</time>
      </trkpt>
      <trkpt lat="46.82163" lon="-2.13794">
        <ele>7.5</ele>
        <time>2020-06-04T10:05:20Z</time>
      </trkpt>
      <trkpt lat="46.82166" lon="-2.13795">
        <ele>7.4</ele>
        <time>2020-06-04T10:05:21Z</time>
      </trkpt>
      <trkpt lat="46.82169" lon="-2.13796">
        <ele>7.2</ele>
        <time>2020-06-04T10:05:22Z</time>
      </trkpt>
      <trkpt lat="46.82173" lon="-2.13798">
        <ele>7</ele>
        <time>2020-06-04T10:05:23Z</time>
      </trkpt>
      <trkpt lat="46.82177" lon="-2.13799">
        <ele>6.8</ele>
        <time>2020-06-04T10:05:24Z</time>
      </trkpt>
      <trkpt lat="46.82181" lon="-2.138">
        <ele>6.7</ele>
        <time>2020-06-04T10:05:25Z</time>
      </trkpt>
      <trkpt lat="46.82185" lon="-2.138">
        <ele>6.6</ele>
        <time>2020-06-04T10:05:26Z</time>
      </trkpt>
      <trkpt lat="46.82189" lon="-2.13801">
        <ele>6.5</ele>
        <time>2020-06-04T10:05:27Z</time>
      </trkpt>
      <trkpt lat="46.82192" lon="-2.13802">
        <ele>6.4</ele>
        <time>2020-06-04T10:05:28Z</time>
      </trkpt>
      <trkpt lat="46.82197" lon="-2.13803">
        <ele>6.4</ele>
        <time>2020-06-04T10:05:29Z</time>
      </trkpt>
      <trkpt lat="46.82202" lon="-2.13805">
        <ele>6.4</ele>
        <time>2020-06-04T10:05:30Z</time>
      </trkpt>
      <trkpt lat="46.82208" lon="-2.13807">
        <ele>6.4</ele>
        <time>2020-06-04T10:05:31Z</time>
      </trkpt>
      <trkpt lat="46.82212" lon="-2.13808">
        <ele>6.4</ele>
        <time>2020-06-04T10:05:32Z</time>
      </trkpt>
      <trkpt lat="46.82216" lon="-2.1381">
        <ele>6.4</ele>
        <time>2020-06-04T10:05:33Z</time>
      </trkpt>
      <trkpt lat="46.82222" lon="-2.13815">
        <ele>6.4</ele>
        <time>2020-06-04T10:05:34Z</time>
      </trkpt>
      <trkpt lat="46.82228" lon="-2.13817">
        <ele>6.5</ele>
        <time>2020-06-04T10:05:35Z</time>
      </trkpt>
      <trkpt lat="46.82232" lon="-2.13818">
        <ele>6.5</ele>
        <time>2020-06-04T10:05:36Z</time>
      </trkpt>
      <trkpt lat="46.82236" lon="-2.13817">
        <ele>6.6</ele>
        <time>2020-06-04T10:05:37Z</time>
      </trkpt>
      <trkpt lat="46.82241" lon="-2.13816">
        <ele>6.6</ele>
        <time>2020-06-04T10:05:38Z</time>
      </trkpt>
      <trkpt lat="46.82245" lon="-2.13815">
        <ele>6.7</ele>
        <time>2020-06-04T10:05:39Z</time>
      </trkpt>
      <trkpt lat="46.8225" lon="-2.13814">
        <ele>6.7</ele>
        <time>2020-06-04T10:05:40Z</time>
      </trkpt>
      <trkpt lat="46.82254" lon="-2.13812">
        <ele>6.7</ele>
        <time>2020-06-04T10:05:41Z</time>
      </trkpt>
      <trkpt lat="46.82258" lon="-2.13814">
        <ele>6.8</ele>
        <time>2020-06-04T10:05:42Z</time>
      </trkpt>
      <trkpt lat="46.82262" lon="-2.13814">
        <ele>6.8</ele>
        <time>2020-06-04T10:05:43Z</time>
      </trkpt>
      <trkpt lat="46.82267" lon="-2.13816">
        <ele>6.8</ele>
        <time>2020-06-04T10:05:44Z</time>
      </trkpt>
      <trkpt lat="46.82272" lon="-2.13819">
        <ele>6.8</ele>
        <time>2020-06-04T10:05:45Z</time>
      </trkpt>
      <trkpt lat="46.82277" lon="-2.13819">
        <ele>6.8</ele>
        <time>2020-06-04T10:05:46Z</time>
      </trkpt>
      <trkpt lat="46.82281" lon="-2.13821">
        <ele>6.8</ele>
        <time>2020-06-04T10:05:47Z</time>
      </trkpt>
      <trkpt lat="46.82285" lon="-2.13822">
        <ele>6.8</ele>
        <time>2020-06-04T10:05:48Z</time>
      </trkpt>
      <trkpt lat="46.82289" lon="-2.13823">
        <ele>6.7</ele>
        <time>2020-06-04T10:05:49Z</time>
      </trkpt>
      <trkpt lat="46.82292" lon="-2.13825">
        <ele>6.7</ele>
        <time>2020-06-04T10:05:50Z</time>
      </trkpt>
      <trkpt lat="46.82297" lon="-2.13826">
        <ele>6.7</ele>
        <time>2020-06-04T10:05:51Z</time>
      </trkpt>
      <trkpt lat="46.82299" lon="-2.13827">
        <ele>6.7</ele>
        <time>2020-06-04T10:05:52Z</time>
      </trkpt>
      <trkpt lat="46.82302" lon="-2.13828">
        <ele>6.7</ele>
        <time>2020-06-04T10:05:53Z</time>
      </trkpt>
      <trkpt lat="46.82306" lon="-2.13828">
        <ele>6.6</ele>
        <time>2020-06-04T10:05:54Z</time>
      </trkpt>
      <trkpt lat="46.82311" lon="-2.13828">
        <ele>6.6</ele>
        <time>2020-06-04T10:05:55Z</time>
      </trkpt>
      <trkpt lat="46.82315" lon="-2.13829">
        <ele>6.6</ele>
        <time>2020-06-04T10:05:56Z</time>
      </trkpt>
      <trkpt lat="46.82319" lon="-2.13831">
        <ele>6.7</ele>
        <time>2020-06-04T10:05:57Z</time>
      </trkpt>
      <trkpt lat="46.82324" lon="-2.13832">
        <ele>6.7</ele>
        <time>2020-06-04T10:05:58Z</time>
      </trkpt>
      <trkpt lat="46.82327" lon="-2.13833">
        <ele>6.7</ele>
        <time>2020-06-04T10:05:59Z</time>
      </trkpt>
      <trkpt lat="46.82331" lon="-2.13835">
        <ele>6.8</ele>
        <time>2020-06-04T10:06:00Z</time>
      </trkpt>
      <trkpt lat="46.82334" lon="-2.13836">
        <ele>6.8</ele>
        <time>2020-06-04T10:06:01Z</time>
      </trkpt>
      <trkpt lat="46.82337" lon="-2.13837">
        <ele>6.8</ele>
        <time>2020-06-04T10:06:02Z</time>
      </trkpt>
      <trkpt lat="46.82341" lon="-2.13839">
        <ele>6.9</ele>
        <time>2020-06-04T10:06:03Z</time>
      </trkpt>
      <trkpt lat="46.82345" lon="-2.1384">
        <ele>6.9</ele>
        <time>2020-06-04T10:06:04Z</time>
      </trkpt>
      <trkpt lat="46.8235" lon="-2.1384">
        <ele>7</ele>
        <time>2020-06-04T10:06:05Z</time>
      </trkpt>
      <trkpt lat="46.82355" lon="-2.1384">
        <ele>7</ele>
        <time>2020-06-04T10:06:06Z</time>
      </trkpt>
      <trkpt lat="46.8236" lon="-2.13841">
        <ele>7</ele>
        <time>2020-06-04T10:06:07Z</time>
      </trkpt>
      <trkpt lat="46.82365" lon="-2.1384">
        <ele>7</ele>
        <time>2020-06-04T10:06:08Z</time>
      </trkpt>
      <trkpt lat="46.8237" lon="-2.13841">
        <ele>7</ele>
        <time>2020-06-04T10:06:09Z</time>
      </trkpt>
      <trkpt lat="46.82374" lon="-2.13842">
        <ele>6.9</ele>
        <time>2020-06-04T10:06:10Z</time>
      </trkpt>
      <trkpt lat="46.82378" lon="-2.13842">
        <ele>6.9</ele>
        <time>2020-06-04T10:06:11Z</time>
      </trkpt>
      <trkpt lat="46.82382" lon="-2.13844">
        <ele>6.8</ele>
        <time>2020-06-04T10:06:12Z</time>
      </trkpt>
      <trkpt lat="46.82386" lon="-2.13845">
        <ele>6.7</ele>
        <time>2020-06-04T10:06:13Z</time>
      </trkpt>
      <trkpt lat="46.82391" lon="-2.13846">
        <ele>6.6</ele>
        <time>2020-06-04T10:06:14Z</time>
      </trkpt>
      <trkpt lat="46.82396" lon="-2.13846">
        <ele>6.6</ele>
        <time>2020-06-04T10:06:15Z</time>
      </trkpt>
      <trkpt lat="46.824" lon="-2.13847">
        <ele>6.5</ele>
        <time>2020-06-04T10:06:16Z</time>
      </trkpt>
      <trkpt lat="46.82405" lon="-2.13849">
        <ele>6.5</ele>
        <time>2020-06-04T10:06:17Z</time>
      </trkpt>
      <trkpt lat="46.82409" lon="-2.1385">
        <ele>6.5</ele>
        <time>2020-06-04T10:06:18Z</time>
      </trkpt>
      <trkpt lat="46.82412" lon="-2.1385">
        <ele>6.5</ele>
        <time>2020-06-04T10:06:19Z</time>
      </trkpt>
      <trkpt lat="46.82416" lon="-2.13853">
        <ele>6.5</ele>
        <time>2020-06-04T10:06:20Z</time>
      </trkpt>
      <trkpt lat="46.82421" lon="-2.13855">
        <ele>6.5</ele>
        <time>2020-06-04T10:06:21Z</time>
      </trkpt>
      <trkpt lat="46.82426" lon="-2.13856">
        <ele>6.5</ele>
        <time>2020-06-04T10:06:22Z</time>
      </trkpt>
      <trkpt lat="46.82432" lon="-2.13856">
        <ele>6.5</ele>
        <time>2020-06-04T10:06:23Z</time>
      </trkpt>
      <trkpt lat="46.82438" lon="-2.13856">
        <ele>6.4</ele>
        <time>2020-06-04T10:06:24Z</time>
      </trkpt>
      <trkpt lat="46.82444" lon="-2.13857">
        <ele>6.3</ele>
        <time>2020-06-04T10:06:25Z</time>
      </trkpt>
      <trkpt lat="46.82451" lon="-2.1386">
        <ele>6.2</ele>
        <time>2020-06-04T10:06:26Z</time>
      </trkpt>
      <trkpt lat="46.82457" lon="-2.13861">
        <ele>6</ele>
        <time>2020-06-04T10:06:27Z</time>
      </trkpt>
      <trkpt lat="46.82463" lon="-2.13863">
        <ele>5.9</ele>
        <time>2020-06-04T10:06:28Z</time>
      </trkpt>
      <trkpt lat="46.82471" lon="-2.13865">
        <ele>5.7</ele>
        <time>2020-06-04T10:06:29Z</time>
      </trkpt>
      <trkpt lat="46.82477" lon="-2.13866">
        <ele>5.7</ele>
        <time>2020-06-04T10:06:30Z</time>
      </trkpt>
      <trkpt lat="46.82482" lon="-2.13867">
        <ele>5.7</ele>
        <time>2020-06-04T10:06:31Z</time>
      </trkpt>
      <trkpt lat="46.82487" lon="-2.13867">
        <ele>5.8</ele>
        <time>2020-06-04T10:06:32Z</time>
      </trkpt>
      <trkpt lat="46.82493" lon="-2.13869">
        <ele>5.9</ele>
        <time>2020-06-04T10:06:33Z</time>
      </trkpt>
      <trkpt lat="46.82498" lon="-2.13869">
        <ele>6</ele>
        <time>2020-06-04T10:06:34Z</time>
      </trkpt>
      <trkpt lat="46.82503" lon="-2.1387">
        <ele>6.1</ele>
        <time>2020-06-04T10:06:35Z</time>
      </trkpt>
      <trkpt lat="46.82508" lon="-2.13871">
        <ele>6.2</ele>
        <time>2020-06-04T10:06:36Z</time>
      </trkpt>
      <trkpt lat="46.82513" lon="-2.13872">
        <ele>6.4</ele>
        <time>2020-06-04T10:06:37Z</time>
      </trkpt>
      <trkpt lat="46.82518" lon="-2.13873">
        <ele>6.4</ele>
        <time>2020-06-04T10:06:38Z</time>
      </trkpt>
      <trkpt lat="46.82523" lon="-2.13873">
        <ele>6.5</ele>
        <time>2020-06-04T10:06:39Z</time>
      </trkpt>
      <trkpt lat="46.82529" lon="-2.13875">
        <ele>6.6</ele>
        <time>2020-06-04T10:06:40Z</time>
      </trkpt>
      <trkpt lat="46.82533" lon="-2.13876">
        <ele>6.6</ele>
        <time>2020-06-04T10:06:41Z</time>
      </trkpt>
      <trkpt lat="46.82536" lon="-2.13876">
        <ele>6.6</ele>
        <time>2020-06-04T10:06:42Z</time>
      </trkpt>
      <trkpt lat="46.8254" lon="-2.13878">
        <ele>6.6</ele>
        <time>2020-06-04T10:06:43Z</time>
      </trkpt>
      <trkpt lat="46.82544" lon="-2.1388">
        <ele>6.5</ele>
        <time>2020-06-04T10:06:44Z</time>
      </trkpt>
      <trkpt lat="46.82549" lon="-2.13882">
        <ele>6.4</ele>
        <time>2020-06-04T10:06:45Z</time>
      </trkpt>
      <trkpt lat="46.82553" lon="-2.13884">
        <ele>6.2</ele>
        <time>2020-06-04T10:06:46Z</time>
      </trkpt>
      <trkpt lat="46.82557" lon="-2.13885">
        <ele>6.1</ele>
        <time>2020-06-04T10:06:47Z</time>
      </trkpt>
      <trkpt lat="46.82561" lon="-2.13887">
        <ele>6</ele>
        <time>2020-06-04T10:06:48Z</time>
      </trkpt>
      <trkpt lat="46.82564" lon="-2.13889">
        <ele>5.8</ele>
        <time>2020-06-04T10:06:49Z</time>
      </trkpt>
      <trkpt lat="46.82568" lon="-2.13891">
        <ele>5.7</ele>
        <time>2020-06-04T10:06:50Z</time>
      </trkpt>
      <trkpt lat="46.8257" lon="-2.13891">
        <ele>5.7</ele>
        <time>2020-06-04T10:06:51Z</time>
      </trkpt>
      <trkpt lat="46.82571" lon="-2.13891">
        <ele>5.6</ele>
        <time>2020-06-04T10:06:52Z</time>
      </trkpt>
      <trkpt lat="46.82574" lon="-2.13893">
        <ele>5.6</ele>
        <time>2020-06-04T10:06:53Z</time>
      </trkpt>
      <trkpt lat="46.82576" lon="-2.13894">
        <ele>5.5</ele>
        <time>2020-06-04T10:06:54Z</time>
      </trkpt>
      <trkpt lat="46.82579" lon="-2.13894">
        <ele>5.5</ele>
        <time>2020-06-04T10:06:55Z</time>
      </trkpt>
      <trkpt lat="46.82583" lon="-2.13895">
        <ele>5.5</ele>
        <time>2020-06-04T10:06:56Z</time>
      </trkpt>
      <trkpt lat="46.82587" lon="-2.13895">
        <ele>5.5</ele>
        <time>2020-06-04T10:06:57Z</time>
      </trkpt>
      <trkpt lat="46.8259" lon="-2.13896">
        <ele>5.5</ele>
        <time>2020-06-04T10:06:58Z</time>
      </trkpt>
      <trkpt lat="46.82593" lon="-2.13896">
        <ele>5.5</ele>
        <time>2020-06-04T10:06:59Z</time>
      </trkpt>
      <trkpt lat="46.82596" lon="-2.13897">
        <ele>5.4</ele>
        <time>2020-06-04T10:07:00Z</time>
      </trkpt>
      <trkpt lat="46.82597" lon="-2.13898">
        <ele>5.4</ele>
        <time>2020-06-04T10:07:01Z</time>
      </trkpt>
      <trkpt lat="46.82601" lon="-2.13898">
        <ele>5.4</ele>
        <time>2020-06-04T10:07:02Z</time>
      </trkpt>
      <trkpt lat="46.82602" lon="-2.13898">
        <ele>5.4</ele>
        <time>2020-06-04T10:07:03Z</time>
      </trkpt>
      <trkpt lat="46.82606" lon="-2.139">
        <ele>5.4</ele>
        <time>2020-06-04T10:07:04Z</time>
      </trkpt>
      <trkpt lat="46.82607" lon="-2.139">
        <ele>5.4</ele>
        <time>2020-06-04T10:07:05Z</time>
      </trkpt>
      <trkpt lat="46.8261" lon="-2.13901">
        <ele>5.3</ele>
        <time>2020-06-04T10:07:06Z</time>
      </trkpt>
      <trkpt lat="46.82612" lon="-2.13904">
        <ele>5.3</ele>
        <time>2020-06-04T10:07:07Z</time>
      </trkpt>
      <trkpt lat="46.82616" lon="-2.13908">
        <ele>5.3</ele>
        <time>2020-06-04T10:07:08Z</time>
      </trkpt>
      <trkpt lat="46.8262" lon="-2.1391">
        <ele>5.3</ele>
        <time>2020-06-04T10:07:09Z</time>
      </trkpt>
      <trkpt lat="46.82623" lon="-2.13912">
        <ele>5.2</ele>
        <time>2020-06-04T10:07:10Z</time>
      </trkpt>
      <trkpt lat="46.82626" lon="-2.13915">
        <ele>5.2</ele>
        <time>2020-06-04T10:07:11Z</time>
      </trkpt>
      <trkpt lat="46.82629" lon="-2.13918">
        <ele>5.2</ele>
        <time>2020-06-04T10:07:12Z</time>
      </trkpt>
      <trkpt lat="46.82632" lon="-2.13922">
        <ele>5.3</ele>
        <time>2020-06-04T10:07:13Z</time>
      </trkpt>
      <trkpt lat="46.82635" lon="-2.13923">
        <ele>5.3</ele>
        <time>2020-06-04T10:07:14Z</time>
      </trkpt>
      <trkpt lat="46.82638" lon="-2.13923">
        <ele>5.3</ele>
        <time>2020-06-04T10:07:15Z</time>
      </trkpt>
      <trkpt lat="46.82641" lon="-2.13925">
        <ele>5.3</ele>
        <time>2020-06-04T10:07:16Z</time>
      </trkpt>
      <trkpt lat="46.82644" lon="-2.13926">
        <ele>5.3</ele>
        <time>2020-06-04T10:07:17Z</time>
      </trkpt>
      <trkpt lat="46.82646" lon="-2.13927">
        <ele>5.3</ele>
        <time>2020-06-04T10:07:18Z</time>
      </trkpt>
      <trkpt lat="46.8265" lon="-2.13929">
        <ele>5.3</ele>
        <time>2020-06-04T10:07:19Z</time>
      </trkpt>
      <trkpt lat="46.82651" lon="-2.1393">
        <ele>5.3</ele>
        <time>2020-06-04T10:07:20Z</time>
      </trkpt>
      <trkpt lat="46.82654" lon="-2.13931">
        <ele>5.3</ele>
        <time>2020-06-04T10:07:21Z</time>
      </trkpt>
      <trkpt lat="46.82657" lon="-2.13932">
        <ele>5.3</ele>
        <time>2020-06-04T10:07:22Z</time>
      </trkpt>
      <trkpt lat="46.8266" lon="-2.13933">
        <ele>5.3</ele>
        <time>2020-06-04T10:07:23Z</time>
      </trkpt>
      <trkpt lat="46.82664" lon="-2.13934">
        <ele>5.3</ele>
        <time>2020-06-04T10:07:24Z</time>
      </trkpt>
      <trkpt lat="46.82668" lon="-2.13936">
        <ele>5.3</ele>
        <time>2020-06-04T10:07:25Z</time>
      </trkpt>
      <trkpt lat="46.82671" lon="-2.13937">
        <ele>5.4</ele>
        <time>2020-06-04T10:07:26Z</time>
      </trkpt>
      <trkpt lat="46.82675" lon="-2.13938">
        <ele>5.4</ele>
        <time>2020-06-04T10:07:27Z</time>
      </trkpt>
      <trkpt lat="46.82678" lon="-2.13941">
        <ele>5.4</ele>
        <time>2020-06-04T10:07:28Z</time>
      </trkpt>
      <trkpt lat="46.82682" lon="-2.13942">
        <ele>5.5</ele>
        <time>2020-06-04T10:07:29Z</time>
      </trkpt>
      <trkpt lat="46.82686" lon="-2.13945">
        <ele>5.6</ele>
        <time>2020-06-04T10:07:30Z</time>
      </trkpt>
      <trkpt lat="46.82691" lon="-2.13948">
        <ele>5.7</ele>
        <time>2020-06-04T10:07:31Z</time>
      </trkpt>
      <trkpt lat="46.82695" lon="-2.13949">
        <ele>5.8</ele>
        <time>2020-06-04T10:07:32Z</time>
      </trkpt>
      <trkpt lat="46.82698" lon="-2.13951">
        <ele>5.9</ele>
        <time>2020-06-04T10:07:33Z</time>
      </trkpt>
      <trkpt lat="46.82703" lon="-2.13951">
        <ele>6.1</ele>
        <time>2020-06-04T10:07:34Z</time>
      </trkpt>
      <trkpt lat="46.82707" lon="-2.13951">
        <ele>6.2</ele>
        <time>2020-06-04T10:07:35Z</time>
      </trkpt>
      <trkpt lat="46.82711" lon="-2.13952">
        <ele>6.4</ele>
        <time>2020-06-04T10:07:36Z</time>
      </trkpt>
      <trkpt lat="46.82718" lon="-2.13951">
        <ele>6.7</ele>
        <time>2020-06-04T10:07:37Z</time>
      </trkpt>
      <trkpt lat="46.82725" lon="-2.13952">
        <ele>7</ele>
        <time>2020-06-04T10:07:38Z</time>
      </trkpt>
      <trkpt lat="46.82731" lon="-2.13953">
        <ele>7.3</ele>
        <time>2020-06-04T10:07:39Z</time>
      </trkpt>
      <trkpt lat="46.82737" lon="-2.13954">
        <ele>7.6</ele>
        <time>2020-06-04T10:07:40Z</time>
      </trkpt>
      <trkpt lat="46.82742" lon="-2.13954">
        <ele>7.8</ele>
        <time>2020-06-04T10:07:41Z</time>
      </trkpt>
      <trkpt lat="46.82746" lon="-2.13953">
        <ele>8</ele>
        <time>2020-06-04T10:07:42Z</time>
      </trkpt>
      <trkpt lat="46.8275" lon="-2.13954">
        <ele>8.2</ele>
        <time>2020-06-04T10:07:43Z</time>
      </trkpt>
      <trkpt lat="46.82755" lon="-2.13955">
        <ele>8.4</ele>
        <time>2020-06-04T10:07:44Z</time>
      </trkpt>
      <trkpt lat="46.82759" lon="-2.13955">
        <ele>8.5</ele>
        <time>2020-06-04T10:07:45Z</time>
      </trkpt>
      <trkpt lat="46.82763" lon="-2.13956">
        <ele>8.7</ele>
        <time>2020-06-04T10:07:46Z</time>
      </trkpt>
      <trkpt lat="46.82766" lon="-2.13952">
        <ele>8.8</ele>
        <time>2020-06-04T10:07:47Z</time>
      </trkpt>
      <trkpt lat="46.82769" lon="-2.13953">
        <ele>8.9</ele>
        <time>2020-06-04T10:07:48Z</time>
      </trkpt>
      <trkpt lat="46.82773" lon="-2.13956">
        <ele>9</ele>
        <time>2020-06-04T10:07:49Z</time>
      </trkpt>
      <trkpt lat="46.82775" lon="-2.13958">
        <ele>9.1</ele>
        <time>2020-06-04T10:07:50Z</time>
      </trkpt>
      <trkpt lat="46.82778" lon="-2.13959">
        <ele>9.1</ele>
        <time>2020-06-04T10:07:51Z</time>
      </trkpt>
      <trkpt lat="46.82782" lon="-2.13959">
        <ele>9.2</ele>
        <time>2020-06-04T10:07:52Z</time>
      </trkpt>
      <trkpt lat="46.82786" lon="-2.13958">
        <ele>9.3</ele>
        <time>2020-06-04T10:07:53Z</time>
      </trkpt>
      <trkpt lat="46.8279" lon="-2.13958">
        <ele>9.3</ele>
        <time>2020-06-04T10:07:54Z</time>
      </trkpt>
      <trkpt lat="46.82795" lon="-2.13958">
        <ele>9.4</ele>
        <time>2020-06-04T10:07:55Z</time>
      </trkpt>
      <trkpt lat="46.82799" lon="-2.13961">
        <ele>9.5</ele>
        <time>2020-06-04T10:07:56Z</time>
      </trkpt>
      <trkpt lat="46.82803" lon="-2.13963">
        <ele>9.5</ele>
        <time>2020-06-04T10:07:57Z</time>
      </trkpt>
      <trkpt lat="46.82807" lon="-2.13964">
        <ele>9.5</ele>
        <time>2020-06-04T10:07:58Z</time>
      </trkpt>
      <trkpt lat="46.8281" lon="-2.13964">
        <ele>9.6</ele>
        <time>2020-06-04T10:07:59Z</time>
      </trkpt>
      <trkpt lat="46.82813" lon="-2.13964">
        <ele>9.6</ele>
        <time>2020-06-04T10:08:00Z</time>
      </trkpt>
      <trkpt lat="46.82816" lon="-2.13964">
        <ele>9.6</ele>
        <time>2020-06-04T10:08:01Z</time>
      </trkpt>
      <trkpt lat="46.82817" lon="-2.13963">
        <ele>9.6</ele>
        <time>2020-06-04T10:08:02Z</time>
      </trkpt>
      <trkpt lat="46.82817" lon="-2.13961">
        <ele>9.6</ele>
        <time>2020-06-04T10:08:03Z</time>
      </trkpt>
      <trkpt lat="46.82817" lon="-2.1396">
        <ele>9.6</ele>
        <time>2020-06-04T10:08:04Z</time>
      </trkpt>
      <trkpt lat="46.82817" lon="-2.13959">
        <ele>9.6</ele>
        <time>2020-06-04T10:08:05Z</time>
      </trkpt>
      <trkpt lat="46.82817" lon="-2.13959">
        <ele>9.6</ele>
        <time>2020-06-04T10:08:06Z</time>
      </trkpt>
      <trkpt lat="46.82818" lon="-2.13959">
        <ele>9.6</ele>
        <time>2020-06-04T10:08:07Z</time>
      </trkpt>
      <trkpt lat="46.82818" lon="-2.13959">
        <ele>9.6</ele>
        <time>2020-06-04T10:08:08Z</time>
      </trkpt>
      <trkpt lat="46.82818" lon="-2.13959">
        <ele>9.6</ele>
        <time>2020-06-04T10:08:09Z</time>
      </trkpt>
      <trkpt lat="46.82819" lon="-2.13959">
        <ele>9.6</ele>
        <time>2020-06-04T10:08:10Z</time>
      </trkpt>
      <trkpt lat="46.82819" lon="-2.1396">
        <ele>9.6</ele>
        <time>2020-06-04T10:08:11Z</time>
      </trkpt>
      <trkpt lat="46.8282" lon="-2.1396">
        <ele>9.6</ele>
        <time>2020-06-04T10:08:12Z</time>
      </trkpt>
      <trkpt lat="46.8282" lon="-2.1396">
        <ele>9.6</ele>
        <time>2020-06-04T10:08:13Z</time>
      </trkpt>
      <trkpt lat="46.82831" lon="-2.13966">
        <ele>9.6</ele>
        <time>2020-06-04T10:13:40Z</time>
      </trkpt>
      <trkpt lat="46.82834" lon="-2.13966">
        <ele>9.5</ele>
        <time>2020-06-04T10:13:41Z</time>
      </trkpt>
      <trkpt lat="46.82837" lon="-2.13964">
        <ele>9.5</ele>
        <time>2020-06-04T10:13:42Z</time>
      </trkpt>
      <trkpt lat="46.8284" lon="-2.13962">
        <ele>9.5</ele>
        <time>2020-06-04T10:13:43Z</time>
      </trkpt>
      <trkpt lat="46.82844" lon="-2.13962">
        <ele>9.4</ele>
        <time>2020-06-04T10:13:44Z</time>
      </trkpt>
      <trkpt lat="46.82845" lon="-2.13962">
        <ele>9.4</ele>
        <time>2020-06-04T10:13:45Z</time>
      </trkpt>
      <trkpt lat="46.82849" lon="-2.13963">
        <ele>9.3</ele>
        <time>2020-06-04T10:13:46Z</time>
      </trkpt>
      <trkpt lat="46.82853" lon="-2.13965">
        <ele>9.2</ele>
        <time>2020-06-04T10:13:47Z</time>
      </trkpt>
      <trkpt lat="46.82857" lon="-2.13969">
        <ele>9.1</ele>
        <time>2020-06-04T10:13:48Z</time>
      </trkpt>
      <trkpt lat="46.82861" lon="-2.13969">
        <ele>9</ele>
        <time>2020-06-04T10:13:49Z</time>
      </trkpt>
      <trkpt lat="46.82862" lon="-2.13969">
        <ele>9</ele>
        <time>2020-06-04T10:13:50Z</time>
      </trkpt>
      <trkpt lat="46.82865" lon="-2.13969">
        <ele>8.9</ele>
        <time>2020-06-04T10:13:51Z</time>
      </trkpt>
      <trkpt lat="46.82868" lon="-2.13967">
        <ele>8.8</ele>
        <time>2020-06-04T10:13:52Z</time>
      </trkpt>
      <trkpt lat="46.82871" lon="-2.13964">
        <ele>8.7</ele>
        <time>2020-06-04T10:13:53Z</time>
      </trkpt>
      <trkpt lat="46.82872" lon="-2.13963">
        <ele>8.7</ele>
        <time>2020-06-04T10:13:54Z</time>
      </trkpt>
      <trkpt lat="46.82875" lon="-2.13961">
        <ele>8.6</ele>
        <time>2020-06-04T10:13:55Z</time>
      </trkpt>
      <trkpt lat="46.82878" lon="-2.13958">
        <ele>8.6</ele>
        <time>2020-06-04T10:13:56Z</time>
      </trkpt>
      <trkpt lat="46.82879" lon="-2.13957">
        <ele>8.5</ele>
        <time>2020-06-04T10:13:57Z</time>
      </trkpt>
      <trkpt lat="46.82882" lon="-2.13956">
        <ele>8.3</ele>
        <time>2020-06-04T10:13:58Z</time>
      </trkpt>
      <trkpt lat="46.82886" lon="-2.13957">
        <ele>8.2</ele>
        <time>2020-06-04T10:13:59Z</time>
      </trkpt>
      <trkpt lat="46.8289" lon="-2.13959">
        <ele>8.1</ele>
        <time>2020-06-04T10:14:00Z</time>
      </trkpt>
      <trkpt lat="46.82894" lon="-2.1396">
        <ele>8.1</ele>
        <time>2020-06-04T10:14:01Z</time>
      </trkpt>
      <trkpt lat="46.82899" lon="-2.13961">
        <ele>8</ele>
        <time>2020-06-04T10:14:02Z</time>
      </trkpt>
      <trkpt lat="46.82904" lon="-2.13962">
        <ele>7.9</ele>
        <time>2020-06-04T10:14:03Z</time>
      </trkpt>
      <trkpt lat="46.82908" lon="-2.13963">
        <ele>7.8</ele>
        <time>2020-06-04T10:14:04Z</time>
      </trkpt>
      <trkpt lat="46.82913" lon="-2.13967">
        <ele>7.7</ele>
        <time>2020-06-04T10:14:05Z</time>
      </trkpt>
      <trkpt lat="46.82919" lon="-2.1397">
        <ele>7.6</ele>
        <time>2020-06-04T10:14:06Z</time>
      </trkpt>
      <trkpt lat="46.82925" lon="-2.13972">
        <ele>7.5</ele>
        <time>2020-06-04T10:14:07Z</time>
      </trkpt>
      <trkpt lat="46.8293" lon="-2.13975">
        <ele>7.5</ele>
        <time>2020-06-04T10:14:08Z</time>
      </trkpt>
      <trkpt lat="46.82937" lon="-2.13977">
        <ele>7.4</ele>
        <time>2020-06-04T10:14:09Z</time>
      </trkpt>
      <trkpt lat="46.82943" lon="-2.13977">
        <ele>7.3</ele>
        <time>2020-06-04T10:14:10Z</time>
      </trkpt>
      <trkpt lat="46.82949" lon="-2.13978">
        <ele>7.3</ele>
        <time>2020-06-04T10:14:11Z</time>
      </trkpt>
      <trkpt lat="46.82956" lon="-2.13979">
        <ele>7.2</ele>
        <time>2020-06-04T10:14:12Z</time>
      </trkpt>
      <trkpt lat="46.82963" lon="-2.1398">
        <ele>7.2</ele>
        <time>2020-06-04T10:14:13Z</time>
      </trkpt>
      <trkpt lat="46.8297" lon="-2.13979">
        <ele>7.1</ele>
        <time>2020-06-04T10:14:14Z</time>
      </trkpt>
      <trkpt lat="46.82978" lon="-2.13979">
        <ele>7.1</ele>
        <time>2020-06-04T10:14:15Z</time>
      </trkpt>
      <trkpt lat="46.82985" lon="-2.1398">
        <ele>7.1</ele>
        <time>2020-06-04T10:14:16Z</time>
      </trkpt>
      <trkpt lat="46.82993" lon="-2.13984">
        <ele>7.1</ele>
        <time>2020-06-04T10:14:17Z</time>
      </trkpt>
      <trkpt lat="46.82999" lon="-2.13987">
        <ele>7.1</ele>
        <time>2020-06-04T10:14:18Z</time>
      </trkpt>
      <trkpt lat="46.83007" lon="-2.1399">
        <ele>7.1</ele>
        <time>2020-06-04T10:14:19Z</time>
      </trkpt>
      <trkpt lat="46.83015" lon="-2.13993">
        <ele>7.2</ele>
        <time>2020-06-04T10:14:20Z</time>
      </trkpt>
      <trkpt lat="46.83022" lon="-2.13996">
        <ele>7.2</ele>
        <time>2020-06-04T10:14:21Z</time>
      </trkpt>
      <trkpt lat="46.83028" lon="-2.13999">
        <ele>7.3</ele>
        <time>2020-06-04T10:14:22Z</time>
      </trkpt>
      <trkpt lat="46.83034" lon="-2.14001">
        <ele>7.4</ele>
        <time>2020-06-04T10:14:23Z</time>
      </trkpt>
      <trkpt lat="46.83042" lon="-2.14002">
        <ele>7.5</ele>
        <time>2020-06-04T10:14:24Z</time>
      </trkpt>
      <trkpt lat="46.83049" lon="-2.14003">
        <ele>7.6</ele>
        <time>2020-06-04T10:14:25Z</time>
      </trkpt>
      <trkpt lat="46.83056" lon="-2.14004">
        <ele>7.8</ele>
        <time>2020-06-04T10:14:26Z</time>
      </trkpt>
      <trkpt lat="46.83063" lon="-2.14008">
        <ele>8</ele>
        <time>2020-06-04T10:14:27Z</time>
      </trkpt>
      <trkpt lat="46.83069" lon="-2.1401">
        <ele>8.2</ele>
        <time>2020-06-04T10:14:28Z</time>
      </trkpt>
      <trkpt lat="46.83076" lon="-2.14011">
        <ele>8.4</ele>
        <time>2020-06-04T10:14:29Z</time>
      </trkpt>
      <trkpt lat="46.83081" lon="-2.14012">
        <ele>8.5</ele>
        <time>2020-06-04T10:14:30Z</time>
      </trkpt>
      <trkpt lat="46.83086" lon="-2.14014">
        <ele>8.6</ele>
        <time>2020-06-04T10:14:31Z</time>
      </trkpt>
      <trkpt lat="46.83091" lon="-2.14014">
        <ele>8.6</ele>
        <time>2020-06-04T10:14:32Z</time>
      </trkpt>
      <trkpt lat="46.83097" lon="-2.14013">
        <ele>8.6</ele>
        <time>2020-06-04T10:14:33Z</time>
      </trkpt>
      <trkpt lat="46.83101" lon="-2.14011">
        <ele>8.6</ele>
        <time>2020-06-04T10:14:34Z</time>
      </trkpt>
      <trkpt lat="46.83105" lon="-2.1401">
        <ele>8.6</ele>
        <time>2020-06-04T10:14:35Z</time>
      </trkpt>
      <trkpt lat="46.83109" lon="-2.1401">
        <ele>8.6</ele>
        <time>2020-06-04T10:14:36Z</time>
      </trkpt>
      <trkpt lat="46.83113" lon="-2.14005">
        <ele>7.9</ele>
        <time>2020-06-04T10:14:37Z</time>
      </trkpt>
      <trkpt lat="46.83118" lon="-2.14002">
        <ele>7.9</ele>
        <time>2020-06-04T10:14:38Z</time>
      </trkpt>
      <trkpt lat="46.83123" lon="-2.13998">
        <ele>8</ele>
        <time>2020-06-04T10:14:39Z</time>
      </trkpt>
      <trkpt lat="46.83127" lon="-2.13996">
        <ele>8</ele>
        <time>2020-06-04T10:14:40Z</time>
      </trkpt>
      <trkpt lat="46.83132" lon="-2.13995">
        <ele>8</ele>
        <time>2020-06-04T10:14:41Z</time>
      </trkpt>
      <trkpt lat="46.83136" lon="-2.13992">
        <ele>8</ele>
        <time>2020-06-04T10:14:42Z</time>
      </trkpt>
      <trkpt lat="46.83141" lon="-2.13987">
        <ele>8</ele>
        <time>2020-06-04T10:14:43Z</time>
      </trkpt>
      <trkpt lat="46.83145" lon="-2.13983">
        <ele>8</ele>
        <time>2020-06-04T10:14:44Z</time>
      </trkpt>
      <trkpt lat="46.83149" lon="-2.13977">
        <ele>8</ele>
        <time>2020-06-04T10:14:45Z</time>
      </trkpt>
      <trkpt lat="46.83154" lon="-2.13972">
        <ele>7.9</ele>
        <time>2020-06-04T10:14:46Z</time>
      </trkpt>
      <trkpt lat="46.83158" lon="-2.13968">
        <ele>7.9</ele>
        <time>2020-06-04T10:14:47Z</time>
      </trkpt>
      <trkpt lat="46.83164" lon="-2.13964">
        <ele>7.9</ele>
        <time>2020-06-04T10:14:48Z</time>
      </trkpt>
      <trkpt lat="46.83169" lon="-2.1396">
        <ele>7.8</ele>
        <time>2020-06-04T10:14:49Z</time>
      </trkpt>
      <trkpt lat="46.83175" lon="-2.13957">
        <ele>7.8</ele>
        <time>2020-06-04T10:14:50Z</time>
      </trkpt>
      <trkpt lat="46.83181" lon="-2.13953">
        <ele>7.7</ele>
        <time>2020-06-04T10:14:51Z</time>
      </trkpt>
      <trkpt lat="46.83186" lon="-2.13947">
        <ele>7.6</ele>
        <time>2020-06-04T10:14:52Z</time>
      </trkpt>
      <trkpt lat="46.83192" lon="-2.13942">
        <ele>7.6</ele>
        <time>2020-06-04T10:14:53Z</time>
      </trkpt>
      <trkpt lat="46.83199" lon="-2.13939">
        <ele>7.5</ele>
        <time>2020-06-04T10:14:54Z</time>
      </trkpt>
      <trkpt lat="46.83206" lon="-2.13934">
        <ele>7.5</ele>
        <time>2020-06-04T10:14:55Z</time>
      </trkpt>
      <trkpt lat="46.83213" lon="-2.13928">
        <ele>7.5</ele>
        <time>2020-06-04T10:14:56Z</time>
      </trkpt>
      <trkpt lat="46.83219" lon="-2.13924">
        <ele>7.5</ele>
        <time>2020-06-04T10:14:57Z</time>
      </trkpt>
      <trkpt lat="46.83225" lon="-2.13917">
        <ele>7.5</ele>
        <time>2020-06-04T10:14:58Z</time>
      </trkpt>
      <trkpt lat="46.83232" lon="-2.13912">
        <ele>7.5</ele>
        <time>2020-06-04T10:14:59Z</time>
      </trkpt>
      <trkpt lat="46.83239" lon="-2.13908">
        <ele>7.5</ele>
        <time>2020-06-04T10:15:00Z</time>
      </trkpt>
      <trkpt lat="46.83245" lon="-2.13903">
        <ele>7.5</ele>
        <time>2020-06-04T10:15:01Z</time>
      </trkpt>
      <trkpt lat="46.83252" lon="-2.13898">
        <ele>7.5</ele>
        <time>2020-06-04T10:15:02Z</time>
      </trkpt>
      <trkpt lat="46.83259" lon="-2.13891">
        <ele>7.5</ele>
        <time>2020-06-04T10:15:03Z</time>
      </trkpt>
      <trkpt lat="46.83266" lon="-2.13887">
        <ele>7.5</ele>
        <time>2020-06-04T10:15:04Z</time>
      </trkpt>
      <trkpt lat="46.83274" lon="-2.13882">
        <ele>7.5</ele>
        <time>2020-06-04T10:15:05Z</time>
      </trkpt>
      <trkpt lat="46.83282" lon="-2.13876">
        <ele>7.4</ele>
        <time>2020-06-04T10:15:06Z</time>
      </trkpt>
      <trkpt lat="46.8329" lon="-2.13872">
        <ele>7.4</ele>
        <time>2020-06-04T10:15:07Z</time>
      </trkpt>
      <trkpt lat="46.83297" lon="-2.13868">
        <ele>7.3</ele>
        <time>2020-06-04T10:15:08Z</time>
      </trkpt>
      <trkpt lat="46.83303" lon="-2.13865">
        <ele>7.4</ele>
        <time>2020-06-04T10:15:09Z</time>
      </trkpt>
      <trkpt lat="46.83309" lon="-2.13861">
        <ele>7.4</ele>
        <time>2020-06-04T10:15:10Z</time>
      </trkpt>
      <trkpt lat="46.83315" lon="-2.13858">
        <ele>7.4</ele>
        <time>2020-06-04T10:15:11Z</time>
      </trkpt>
      <trkpt lat="46.8332" lon="-2.13854">
        <ele>7.5</ele>
        <time>2020-06-04T10:15:12Z</time>
      </trkpt>
      <trkpt lat="46.83327" lon="-2.13851">
        <ele>7.5</ele>
        <time>2020-06-04T10:15:13Z</time>
      </trkpt>
      <trkpt lat="46.83333" lon="-2.1385">
        <ele>7.6</ele>
        <time>2020-06-04T10:15:14Z</time>
      </trkpt>
      <trkpt lat="46.8334" lon="-2.13848">
        <ele>7.6</ele>
        <time>2020-06-04T10:15:15Z</time>
      </trkpt>
      <trkpt lat="46.83345" lon="-2.13846">
        <ele>7.6</ele>
        <time>2020-06-04T10:15:16Z</time>
      </trkpt>
      <trkpt lat="46.83351" lon="-2.13845">
        <ele>7.6</ele>
        <time>2020-06-04T10:15:17Z</time>
      </trkpt>
      <trkpt lat="46.83355" lon="-2.13842">
        <ele>7.6</ele>
        <time>2020-06-04T10:15:18Z</time>
      </trkpt>
      <trkpt lat="46.8336" lon="-2.13838">
        <ele>7.5</ele>
        <time>2020-06-04T10:15:19Z</time>
      </trkpt>
      <trkpt lat="46.83366" lon="-2.13835">
        <ele>7.5</ele>
        <time>2020-06-04T10:15:20Z</time>
      </trkpt>
      <trkpt lat="46.83371" lon="-2.13832">
        <ele>7.4</ele>
        <time>2020-06-04T10:15:21Z</time>
      </trkpt>
      <trkpt lat="46.83377" lon="-2.13827">
        <ele>7.3</ele>
        <time>2020-06-04T10:15:22Z</time>
      </trkpt>
      <trkpt lat="46.83382" lon="-2.13823">
        <ele>7.2</ele>
        <time>2020-06-04T10:15:23Z</time>
      </trkpt>
      <trkpt lat="46.83385" lon="-2.1382">
        <ele>7.2</ele>
        <time>2020-06-04T10:15:24Z</time>
      </trkpt>
      <trkpt lat="46.83388" lon="-2.13816">
        <ele>7.1</ele>
        <time>2020-06-04T10:15:25Z</time>
      </trkpt>
      <trkpt lat="46.83392" lon="-2.13812">
        <ele>7.1</ele>
        <time>2020-06-04T10:15:26Z</time>
      </trkpt>
      <trkpt lat="46.83396" lon="-2.13807">
        <ele>7</ele>
        <time>2020-06-04T10:15:27Z</time>
      </trkpt>
      <trkpt lat="46.83399" lon="-2.13805">
        <ele>6.9</ele>
        <time>2020-06-04T10:15:28Z</time>
      </trkpt>
      <trkpt lat="46.83404" lon="-2.13802">
        <ele>6.9</ele>
        <time>2020-06-04T10:15:29Z</time>
      </trkpt>
      <trkpt lat="46.83408" lon="-2.13802">
        <ele>6.8</ele>
        <time>2020-06-04T10:15:30Z</time>
      </trkpt>
      <trkpt lat="46.83413" lon="-2.13802">
        <ele>6.8</ele>
        <time>2020-06-04T10:15:31Z</time>
      </trkpt>
      <trkpt lat="46.83417" lon="-2.13804">
        <ele>6.9</ele>
        <time>2020-06-04T10:15:32Z</time>
      </trkpt>
      <trkpt lat="46.83421" lon="-2.13807">
        <ele>7</ele>
        <time>2020-06-04T10:15:33Z</time>
      </trkpt>
      <trkpt lat="46.83424" lon="-2.13811">
        <ele>7.1</ele>
        <time>2020-06-04T10:15:34Z</time>
      </trkpt>
      <trkpt lat="46.83427" lon="-2.13815">
        <ele>7.2</ele>
        <time>2020-06-04T10:15:35Z</time>
      </trkpt>
      <trkpt lat="46.8343" lon="-2.13816">
        <ele>7.7</ele>
        <time>2020-06-04T10:15:36Z</time>
      </trkpt>
      <trkpt lat="46.83433" lon="-2.13815">
        <ele>7.7</ele>
        <time>2020-06-04T10:15:37Z</time>
      </trkpt>
      <trkpt lat="46.83437" lon="-2.13814">
        <ele>7.7</ele>
        <time>2020-06-04T10:15:38Z</time>
      </trkpt>
      <trkpt lat="46.83441" lon="-2.13814">
        <ele>7.7</ele>
        <time>2020-06-04T10:15:39Z</time>
      </trkpt>
      <trkpt lat="46.83444" lon="-2.13814">
        <ele>7.7</ele>
        <time>2020-06-04T10:15:40Z</time>
      </trkpt>
      <trkpt lat="46.83448" lon="-2.13813">
        <ele>7.7</ele>
        <time>2020-06-04T10:15:41Z</time>
      </trkpt>
      <trkpt lat="46.83452" lon="-2.13814">
        <ele>7.7</ele>
        <time>2020-06-04T10:15:42Z</time>
      </trkpt>
      <trkpt lat="46.83455" lon="-2.13815">
        <ele>7.8</ele>
        <time>2020-06-04T10:15:43Z</time>
      </trkpt>
      <trkpt lat="46.83459" lon="-2.13815">
        <ele>7.8</ele>
        <time>2020-06-04T10:15:44Z</time>
      </trkpt>
      <trkpt lat="46.83463" lon="-2.13815">
        <ele>7.8</ele>
        <time>2020-06-04T10:15:45Z</time>
      </trkpt>
      <trkpt lat="46.83467" lon="-2.13815">
        <ele>7.8</ele>
        <time>2020-06-04T10:15:46Z</time>
      </trkpt>
      <trkpt lat="46.83471" lon="-2.13814">
        <ele>7.8</ele>
        <time>2020-06-04T10:15:47Z</time>
      </trkpt>
      <trkpt lat="46.83475" lon="-2.13814">
        <ele>7.8</ele>
        <time>2020-06-04T10:15:48Z</time>
      </trkpt>
      <trkpt lat="46.83479" lon="-2.13814">
        <ele>7.8</ele>
        <time>2020-06-04T10:15:49Z</time>
      </trkpt>
      <trkpt lat="46.83483" lon="-2.13816">
        <ele>7.7</ele>
        <time>2020-06-04T10:15:50Z</time>
      </trkpt>
      <trkpt lat="46.83488" lon="-2.13817">
        <ele>7.7</ele>
        <time>2020-06-04T10:15:51Z</time>
      </trkpt>
      <trkpt lat="46.83492" lon="-2.13818">
        <ele>7.7</ele>
        <time>2020-06-04T10:15:52Z</time>
      </trkpt>
      <trkpt lat="46.83497" lon="-2.13818">
        <ele>7.6</ele>
        <time>2020-06-04T10:15:53Z</time>
      </trkpt>
      <trkpt lat="46.83501" lon="-2.13817">
        <ele>7.6</ele>
        <time>2020-06-04T10:15:54Z</time>
      </trkpt>
      <trkpt lat="46.83505" lon="-2.13816">
        <ele>7.6</ele>
        <time>2020-06-04T10:15:55Z</time>
      </trkpt>
      <trkpt lat="46.83509" lon="-2.13815">
        <ele>7.6</ele>
        <time>2020-06-04T10:15:56Z</time>
      </trkpt>
      <trkpt lat="46.83513" lon="-2.13814">
        <ele>7.6</ele>
        <time>2020-06-04T10:15:57Z</time>
      </trkpt>
      <trkpt lat="46.83517" lon="-2.13814">
        <ele>7.6</ele>
        <time>2020-06-04T10:15:58Z</time>
      </trkpt>
      <trkpt lat="46.83521" lon="-2.13815">
        <ele>7.6</ele>
        <time>2020-06-04T10:15:59Z</time>
      </trkpt>
      <trkpt lat="46.83526" lon="-2.13815">
        <ele>7.6</ele>
        <time>2020-06-04T10:16:00Z</time>
      </trkpt>
      <trkpt lat="46.8353" lon="-2.13815">
        <ele>7.6</ele>
        <time>2020-06-04T10:16:01Z</time>
      </trkpt>
      <trkpt lat="46.83533" lon="-2.13814">
        <ele>7.6</ele>
        <time>2020-06-04T10:16:02Z</time>
      </trkpt>
      <trkpt lat="46.83537" lon="-2.13811">
        <ele>7.6</ele>
        <time>2020-06-04T10:16:03Z</time>
      </trkpt>
      <trkpt lat="46.83539" lon="-2.13809">
        <ele>7.6</ele>
        <time>2020-06-04T10:16:04Z</time>
      </trkpt>
      <trkpt lat="46.83543" lon="-2.13806">
        <ele>7.6</ele>
        <time>2020-06-04T10:16:05Z</time>
      </trkpt>
      <trkpt lat="46.83544" lon="-2.13805">
        <ele>7.6</ele>
        <time>2020-06-04T10:16:06Z</time>
      </trkpt>
      <trkpt lat="46.83548" lon="-2.13803">
        <ele>7.6</ele>
        <time>2020-06-04T10:16:07Z</time>
      </trkpt>
      <trkpt lat="46.83552" lon="-2.13802">
        <ele>7.6</ele>
        <time>2020-06-04T10:16:08Z</time>
      </trkpt>
      <trkpt lat="46.83558" lon="-2.138">
        <ele>7.6</ele>
        <time>2020-06-04T10:16:09Z</time>
      </trkpt>
      <trkpt lat="46.83563" lon="-2.13798">
        <ele>7.6</ele>
        <time>2020-06-04T10:16:10Z</time>
      </trkpt>
      <trkpt lat="46.83569" lon="-2.13797">
        <ele>7.5</ele>
        <time>2020-06-04T10:16:11Z</time>
      </trkpt>
      <trkpt lat="46.83574" lon="-2.13794">
        <ele>7.4</ele>
        <time>2020-06-04T10:16:12Z</time>
      </trkpt>
      <trkpt lat="46.83579" lon="-2.13792">
        <ele>7.4</ele>
        <time>2020-06-04T10:16:13Z</time>
      </trkpt>
      <trkpt lat="46.83585" lon="-2.13789">
        <ele>7.3</ele>
        <time>2020-06-04T10:16:14Z</time>
      </trkpt>
      <trkpt lat="46.83591" lon="-2.13787">
        <ele>7.2</ele>
        <time>2020-06-04T10:16:15Z</time>
      </trkpt>
      <trkpt lat="46.83596" lon="-2.13785">
        <ele>7.2</ele>
        <time>2020-06-04T10:16:16Z</time>
      </trkpt>
      <trkpt lat="46.83602" lon="-2.13784">
        <ele>7.1</ele>
        <time>2020-06-04T10:16:17Z</time>
      </trkpt>
      <trkpt lat="46.83607" lon="-2.13784">
        <ele>7.1</ele>
        <time>2020-06-04T10:16:18Z</time>
      </trkpt>
      <trkpt lat="46.83611" lon="-2.13783">
        <ele>7.1</ele>
        <time>2020-06-04T10:16:19Z</time>
      </trkpt>
      <trkpt lat="46.83615" lon="-2.13782">
        <ele>7.1</ele>
        <time>2020-06-04T10:16:20Z</time>
      </trkpt>
      <trkpt lat="46.83619" lon="-2.13781">
        <ele>7.2</ele>
        <time>2020-06-04T10:16:21Z</time>
      </trkpt>
      <trkpt lat="46.83623" lon="-2.13779">
        <ele>7.2</ele>
        <time>2020-06-04T10:16:22Z</time>
      </trkpt>
      <trkpt lat="46.83627" lon="-2.13778">
        <ele>7.3</ele>
        <time>2020-06-04T10:16:23Z</time>
      </trkpt>
      <trkpt lat="46.83632" lon="-2.13777">
        <ele>7.3</ele>
        <time>2020-06-04T10:16:24Z</time>
      </trkpt>
      <trkpt lat="46.83636" lon="-2.13776">
        <ele>7.3</ele>
        <time>2020-06-04T10:16:25Z</time>
      </trkpt>
      <trkpt lat="46.8364" lon="-2.13774">
        <ele>7.3</ele>
        <time>2020-06-04T10:16:26Z</time>
      </trkpt>
      <trkpt lat="46.83645" lon="-2.13771">
        <ele>7.3</ele>
        <time>2020-06-04T10:16:27Z</time>
      </trkpt>
      <trkpt lat="46.8365" lon="-2.1377">
        <ele>7.2</ele>
        <time>2020-06-04T10:16:28Z</time>
      </trkpt>
      <trkpt lat="46.83655" lon="-2.13768">
        <ele>7.1</ele>
        <time>2020-06-04T10:16:29Z</time>
      </trkpt>
      <trkpt lat="46.8366" lon="-2.13766">
        <ele>7</ele>
        <time>2020-06-04T10:16:30Z</time>
      </trkpt>
      <trkpt lat="46.83664" lon="-2.13765">
        <ele>6.9</ele>
        <time>2020-06-04T10:16:31Z</time>
      </trkpt>
      <trkpt lat="46.83667" lon="-2.13764">
        <ele>6.8</ele>
        <time>2020-06-04T10:16:32Z</time>
      </trkpt>
      <trkpt lat="46.8367" lon="-2.13763">
        <ele>6.7</ele>
        <time>2020-06-04T10:16:33Z</time>
      </trkpt>
      <trkpt lat="46.83674" lon="-2.13761">
        <ele>6.6</ele>
        <time>2020-06-04T10:16:34Z</time>
      </trkpt>
      <trkpt lat="46.83677" lon="-2.13759">
        <ele>6.6</ele>
        <time>2020-06-04T10:16:35Z</time>
      </trkpt>
      <trkpt lat="46.83679" lon="-2.13759">
        <ele>6.5</ele>
        <time>2020-06-04T10:16:36Z</time>
      </trkpt>
      <trkpt lat="46.83682" lon="-2.13761">
        <ele>6.5</ele>
        <time>2020-06-04T10:16:37Z</time>
      </trkpt>
      <trkpt lat="46.83686" lon="-2.13763">
        <ele>6.4</ele>
        <time>2020-06-04T10:16:38Z</time>
      </trkpt>
      <trkpt lat="46.83687" lon="-2.13764">
        <ele>6.4</ele>
        <time>2020-06-04T10:16:39Z</time>
      </trkpt>
      <trkpt lat="46.8369" lon="-2.13766">
        <ele>6.4</ele>
        <time>2020-06-04T10:16:40Z</time>
      </trkpt>
      <trkpt lat="46.83692" lon="-2.13767">
        <ele>6.4</ele>
        <time>2020-06-04T10:16:41Z</time>
      </trkpt>
      <trkpt lat="46.83694" lon="-2.13769">
        <ele>6.4</ele>
        <time>2020-06-04T10:16:42Z</time>
      </trkpt>
      <trkpt lat="46.83697" lon="-2.1377">
        <ele>6.4</ele>
        <time>2020-06-04T10:16:43Z</time>
      </trkpt>
      <trkpt lat="46.83701" lon="-2.13773">
        <ele>6.4</ele>
        <time>2020-06-04T10:16:44Z</time>
      </trkpt>
      <trkpt lat="46.83703" lon="-2.13774">
        <ele>6.4</ele>
        <time>2020-06-04T10:16:45Z</time>
      </trkpt>
      <trkpt lat="46.83706" lon="-2.13776">
        <ele>6.3</ele>
        <time>2020-06-04T10:16:46Z</time>
      </trkpt>
      <trkpt lat="46.83709" lon="-2.13777">
        <ele>6.3</ele>
        <time>2020-06-04T10:16:47Z</time>
      </trkpt>
      <trkpt lat="46.83711" lon="-2.13778">
        <ele>6.3</ele>
        <time>2020-06-04T10:16:48Z</time>
      </trkpt>
      <trkpt lat="46.83715" lon="-2.1378">
        <ele>6.4</ele>
        <time>2020-06-04T10:16:49Z</time>
      </trkpt>
      <trkpt lat="46.83716" lon="-2.13781">
        <ele>6.4</ele>
        <time>2020-06-04T10:16:50Z</time>
      </trkpt>
      <trkpt lat="46.83719" lon="-2.13782">
        <ele>6.4</ele>
        <time>2020-06-04T10:16:51Z</time>
      </trkpt>
      <trkpt lat="46.83723" lon="-2.13785">
        <ele>6.4</ele>
        <time>2020-06-04T10:16:52Z</time>
      </trkpt>
      <trkpt lat="46.83726" lon="-2.13788">
        <ele>6.4</ele>
        <time>2020-06-04T10:16:53Z</time>
      </trkpt>
      <trkpt lat="46.8373" lon="-2.13791">
        <ele>6.5</ele>
        <time>2020-06-04T10:16:54Z</time>
      </trkpt>
      <trkpt lat="46.83734" lon="-2.13793">
        <ele>6.5</ele>
        <time>2020-06-04T10:16:55Z</time>
      </trkpt>
      <trkpt lat="46.83737" lon="-2.13795">
        <ele>6.4</ele>
        <time>2020-06-04T10:16:56Z</time>
      </trkpt>
      <trkpt lat="46.83741" lon="-2.13797">
        <ele>6.4</ele>
        <time>2020-06-04T10:16:57Z</time>
      </trkpt>
      <trkpt lat="46.83745" lon="-2.13799">
        <ele>6.3</ele>
        <time>2020-06-04T10:16:58Z</time>
      </trkpt>
      <trkpt lat="46.83749" lon="-2.13801">
        <ele>6.3</ele>
        <time>2020-06-04T10:16:59Z</time>
      </trkpt>
      <trkpt lat="46.83753" lon="-2.13803">
        <ele>6.2</ele>
        <time>2020-06-04T10:17:00Z</time>
      </trkpt>
      <trkpt lat="46.83757" lon="-2.13805">
        <ele>6.1</ele>
        <time>2020-06-04T10:17:01Z</time>
      </trkpt>
      <trkpt lat="46.8376" lon="-2.13807">
        <ele>6.1</ele>
        <time>2020-06-04T10:17:02Z</time>
      </trkpt>
      <trkpt lat="46.83764" lon="-2.1381">
        <ele>6</ele>
        <time>2020-06-04T10:17:03Z</time>
      </trkpt>
      <trkpt lat="46.83768" lon="-2.13812">
        <ele>5.9</ele>
        <time>2020-06-04T10:17:04Z</time>
      </trkpt>
      <trkpt lat="46.8377" lon="-2.13817">
        <ele>5.8</ele>
        <time>2020-06-04T10:17:05Z</time>
      </trkpt>
      <trkpt lat="46.83773" lon="-2.13821">
        <ele>5.8</ele>
        <time>2020-06-04T10:17:06Z</time>
      </trkpt>
      <trkpt lat="46.83777" lon="-2.13825">
        <ele>5.7</ele>
        <time>2020-06-04T10:17:07Z</time>
      </trkpt>
      <trkpt lat="46.83781" lon="-2.13827">
        <ele>5.7</ele>
        <time>2020-06-04T10:17:08Z</time>
      </trkpt>
      <trkpt lat="46.83785" lon="-2.13829">
        <ele>5.6</ele>
        <time>2020-06-04T10:17:09Z</time>
      </trkpt>
      <trkpt lat="46.83789" lon="-2.13831">
        <ele>5.6</ele>
        <time>2020-06-04T10:17:10Z</time>
      </trkpt>
      <trkpt lat="46.83793" lon="-2.13833">
        <ele>5.6</ele>
        <time>2020-06-04T10:17:11Z</time>
      </trkpt>
      <trkpt lat="46.83797" lon="-2.13834">
        <ele>5.6</ele>
        <time>2020-06-04T10:17:12Z</time>
      </trkpt>
      <trkpt lat="46.838" lon="-2.13835">
        <ele>5.6</ele>
        <time>2020-06-04T10:17:13Z</time>
      </trkpt>
      <trkpt lat="46.83804" lon="-2.13835">
        <ele>5.5</ele>
        <time>2020-06-04T10:17:14Z</time>
      </trkpt>
      <trkpt lat="46.83808" lon="-2.13834">
        <ele>5.5</ele>
        <time>2020-06-04T10:17:15Z</time>
      </trkpt>
      <trkpt lat="46.83812" lon="-2.13835">
        <ele>5.5</ele>
        <time>2020-06-04T10:17:16Z</time>
      </trkpt>
      <trkpt lat="46.83817" lon="-2.13835">
        <ele>5.5</ele>
        <time>2020-06-04T10:17:17Z</time>
      </trkpt>
      <trkpt lat="46.83821" lon="-2.13833">
        <ele>5.5</ele>
        <time>2020-06-04T10:17:18Z</time>
      </trkpt>
      <trkpt lat="46.83826" lon="-2.13833">
        <ele>5.6</ele>
        <time>2020-06-04T10:17:19Z</time>
      </trkpt>
      <trkpt lat="46.83831" lon="-2.13833">
        <ele>5.6</ele>
        <time>2020-06-04T10:17:20Z</time>
      </trkpt>
      <trkpt lat="46.83836" lon="-2.13833">
        <ele>5.7</ele>
        <time>2020-06-04T10:17:21Z</time>
      </trkpt>
      <trkpt lat="46.83842" lon="-2.13833">
        <ele>5.7</ele>
        <time>2020-06-04T10:17:22Z</time>
      </trkpt>
      <trkpt lat="46.83846" lon="-2.13834">
        <ele>5.8</ele>
        <time>2020-06-04T10:17:23Z</time>
      </trkpt>
      <trkpt lat="46.83854" lon="-2.13837">
        <ele>5.9</ele>
        <time>2020-06-04T10:17:24Z</time>
      </trkpt>
      <trkpt lat="46.83858" lon="-2.1384">
        <ele>5.9</ele>
        <time>2020-06-04T10:17:25Z</time>
      </trkpt>
      <trkpt lat="46.83861" lon="-2.13844">
        <ele>5.9</ele>
        <time>2020-06-04T10:17:26Z</time>
      </trkpt>
      <trkpt lat="46.83864" lon="-2.13849">
        <ele>6</ele>
        <time>2020-06-04T10:17:27Z</time>
      </trkpt>
      <trkpt lat="46.83866" lon="-2.13853">
        <ele>6</ele>
        <time>2020-06-04T10:17:28Z</time>
      </trkpt>
      <trkpt lat="46.83868" lon="-2.13855">
        <ele>6</ele>
        <time>2020-06-04T10:17:29Z</time>
      </trkpt>
      <trkpt lat="46.8387" lon="-2.13858">
        <ele>6</ele>
        <time>2020-06-04T10:17:30Z</time>
      </trkpt>
      <trkpt lat="46.83874" lon="-2.13862">
        <ele>6</ele>
        <time>2020-06-04T10:17:31Z</time>
      </trkpt>
      <trkpt lat="46.83878" lon="-2.13865">
        <ele>6</ele>
        <time>2020-06-04T10:17:32Z</time>
      </trkpt>
      <trkpt lat="46.83881" lon="-2.13868">
        <ele>6</ele>
        <time>2020-06-04T10:17:33Z</time>
      </trkpt>
      <trkpt lat="46.83884" lon="-2.1387">
        <ele>5.9</ele>
        <time>2020-06-04T10:17:34Z</time>
      </trkpt>
      <trkpt lat="46.83888" lon="-2.13873">
        <ele>5.9</ele>
        <time>2020-06-04T10:17:35Z</time>
      </trkpt>
      <trkpt lat="46.83892" lon="-2.13875">
        <ele>5.8</ele>
        <time>2020-06-04T10:17:36Z</time>
      </trkpt>
      <trkpt lat="46.83896" lon="-2.13877">
        <ele>5.8</ele>
        <time>2020-06-04T10:17:37Z</time>
      </trkpt>
      <trkpt lat="46.839" lon="-2.13879">
        <ele>5.6</ele>
        <time>2020-06-04T10:17:38Z</time>
      </trkpt>
      <trkpt lat="46.83906" lon="-2.13879">
        <ele>5.4</ele>
        <time>2020-06-04T10:17:39Z</time>
      </trkpt>
      <trkpt lat="46.83913" lon="-2.13881">
        <ele>5.2</ele>
        <time>2020-06-04T10:17:40Z</time>
      </trkpt>
      <trkpt lat="46.83918" lon="-2.13883">
        <ele>5.1</ele>
        <time>2020-06-04T10:17:41Z</time>
      </trkpt>
      <trkpt lat="46.83923" lon="-2.13885">
        <ele>4.9</ele>
        <time>2020-06-04T10:17:42Z</time>
      </trkpt>
      <trkpt lat="46.83928" lon="-2.13887">
        <ele>4.8</ele>
        <time>2020-06-04T10:17:43Z</time>
      </trkpt>
      <trkpt lat="46.83934" lon="-2.13887">
        <ele>4.8</ele>
        <time>2020-06-04T10:17:44Z</time>
      </trkpt>
      <trkpt lat="46.83938" lon="-2.13886">
        <ele>4.7</ele>
        <time>2020-06-04T10:17:45Z</time>
      </trkpt>
      <trkpt lat="46.83943" lon="-2.13888">
        <ele>4.7</ele>
        <time>2020-06-04T10:17:46Z</time>
      </trkpt>
      <trkpt lat="46.83949" lon="-2.1389">
        <ele>4.8</ele>
        <time>2020-06-04T10:17:47Z</time>
      </trkpt>
      <trkpt lat="46.83955" lon="-2.13891">
        <ele>4.9</ele>
        <time>2020-06-04T10:17:48Z</time>
      </trkpt>
      <trkpt lat="46.8396" lon="-2.13891">
        <ele>5</ele>
        <time>2020-06-04T10:17:49Z</time>
      </trkpt>
      <trkpt lat="46.83967" lon="-2.13891">
        <ele>5.1</ele>
        <time>2020-06-04T10:17:50Z</time>
      </trkpt>
      <trkpt lat="46.83974" lon="-2.13893">
        <ele>5.2</ele>
        <time>2020-06-04T10:17:51Z</time>
      </trkpt>
      <trkpt lat="46.8398" lon="-2.13894">
        <ele>5.3</ele>
        <time>2020-06-04T10:17:52Z</time>
      </trkpt>
      <trkpt lat="46.83987" lon="-2.13895">
        <ele>5.4</ele>
        <time>2020-06-04T10:17:53Z</time>
      </trkpt>
      <trkpt lat="46.83994" lon="-2.13895">
        <ele>5.5</ele>
        <time>2020-06-04T10:17:54Z</time>
      </trkpt>
      <trkpt lat="46.84002" lon="-2.13895">
        <ele>5.6</ele>
        <time>2020-06-04T10:17:55Z</time>
      </trkpt>
      <trkpt lat="46.84008" lon="-2.13894">
        <ele>5.6</ele>
        <time>2020-06-04T10:17:56Z</time>
      </trkpt>
      <trkpt lat="46.84014" lon="-2.13894">
        <ele>5.5</ele>
        <time>2020-06-04T10:17:57Z</time>
      </trkpt>
      <trkpt lat="46.84018" lon="-2.13895">
        <ele>5.5</ele>
        <time>2020-06-04T10:17:58Z</time>
      </trkpt>
      <trkpt lat="46.84024" lon="-2.13896">
        <ele>5.5</ele>
        <time>2020-06-04T10:17:59Z</time>
      </trkpt>
      <trkpt lat="46.8403" lon="-2.13897">
        <ele>5.4</ele>
        <time>2020-06-04T10:18:00Z</time>
      </trkpt>
      <trkpt lat="46.84036" lon="-2.13899">
        <ele>5.4</ele>
        <time>2020-06-04T10:18:01Z</time>
      </trkpt>
      <trkpt lat="46.84041" lon="-2.13901">
        <ele>5.3</ele>
        <time>2020-06-04T10:18:02Z</time>
      </trkpt>
      <trkpt lat="46.84047" lon="-2.13903">
        <ele>5.4</ele>
        <time>2020-06-04T10:18:03Z</time>
      </trkpt>
      <trkpt lat="46.8405" lon="-2.13905">
        <ele>5.4</ele>
        <time>2020-06-04T10:18:04Z</time>
      </trkpt>
      <trkpt lat="46.84055" lon="-2.13907">
        <ele>5.5</ele>
        <time>2020-06-04T10:18:05Z</time>
      </trkpt>
      <trkpt lat="46.84059" lon="-2.13909">
        <ele>5.5</ele>
        <time>2020-06-04T10:18:06Z</time>
      </trkpt>
      <trkpt lat="46.84064" lon="-2.1391">
        <ele>5.6</ele>
        <time>2020-06-04T10:18:07Z</time>
      </trkpt>
      <trkpt lat="46.84068" lon="-2.13912">
        <ele>5.6</ele>
        <time>2020-06-04T10:18:08Z</time>
      </trkpt>
      <trkpt lat="46.84072" lon="-2.13913">
        <ele>5.7</ele>
        <time>2020-06-04T10:18:09Z</time>
      </trkpt>
      <trkpt lat="46.84075" lon="-2.13914">
        <ele>5.7</ele>
        <time>2020-06-04T10:18:10Z</time>
      </trkpt>
      <trkpt lat="46.84079" lon="-2.13914">
        <ele>5.7</ele>
        <time>2020-06-04T10:18:11Z</time>
      </trkpt>
      <trkpt lat="46.84082" lon="-2.13914">
        <ele>5.8</ele>
        <time>2020-06-04T10:18:12Z</time>
      </trkpt>
      <trkpt lat="46.84085" lon="-2.13915">
        <ele>5.8</ele>
        <time>2020-06-04T10:18:13Z</time>
      </trkpt>
      <trkpt lat="46.84089" lon="-2.13916">
        <ele>5.8</ele>
        <time>2020-06-04T10:18:14Z</time>
      </trkpt>
      <trkpt lat="46.84093" lon="-2.13917">
        <ele>5.8</ele>
        <time>2020-06-04T10:18:15Z</time>
      </trkpt>
      <trkpt lat="46.84097" lon="-2.13917">
        <ele>5.8</ele>
        <time>2020-06-04T10:18:16Z</time>
      </trkpt>
      <trkpt lat="46.841" lon="-2.13917">
        <ele>5.8</ele>
        <time>2020-06-04T10:18:17Z</time>
      </trkpt>
      <trkpt lat="46.84104" lon="-2.13917">
        <ele>5.8</ele>
        <time>2020-06-04T10:18:18Z</time>
      </trkpt>
      <trkpt lat="46.84109" lon="-2.13917">
        <ele>5.8</ele>
        <time>2020-06-04T10:18:19Z</time>
      </trkpt>
      <trkpt lat="46.84114" lon="-2.13917">
        <ele>5.7</ele>
        <time>2020-06-04T10:18:20Z</time>
      </trkpt>
      <trkpt lat="46.84118" lon="-2.13918">
        <ele>5.7</ele>
        <time>2020-06-04T10:18:21Z</time>
      </trkpt>
      <trkpt lat="46.84123" lon="-2.1392">
        <ele>5.6</ele>
        <time>2020-06-04T10:18:22Z</time>
      </trkpt>
      <trkpt lat="46.84127" lon="-2.13921">
        <ele>5.5</ele>
        <time>2020-06-04T10:18:23Z</time>
      </trkpt>
      <trkpt lat="46.8413" lon="-2.13922">
        <ele>5.5</ele>
        <time>2020-06-04T10:18:24Z</time>
      </trkpt>
      <trkpt lat="46.84135" lon="-2.13922">
        <ele>5.4</ele>
        <time>2020-06-04T10:18:25Z</time>
      </trkpt>
      <trkpt lat="46.84139" lon="-2.13922">
        <ele>5.3</ele>
        <time>2020-06-04T10:18:26Z</time>
      </trkpt>
      <trkpt lat="46.84143" lon="-2.13921">
        <ele>5.2</ele>
        <time>2020-06-04T10:18:27Z</time>
      </trkpt>
      <trkpt lat="46.84147" lon="-2.13922">
        <ele>5.2</ele>
        <time>2020-06-04T10:18:28Z</time>
      </trkpt>
      <trkpt lat="46.8415" lon="-2.13919">
        <ele>5.1</ele>
        <time>2020-06-04T10:18:29Z</time>
      </trkpt>
      <trkpt lat="46.84153" lon="-2.13917">
        <ele>5.1</ele>
        <time>2020-06-04T10:18:30Z</time>
      </trkpt>
      <trkpt lat="46.84156" lon="-2.13914">
        <ele>5.1</ele>
        <time>2020-06-04T10:18:31Z</time>
      </trkpt>
      <trkpt lat="46.84158" lon="-2.1391">
        <ele>5</ele>
        <time>2020-06-04T10:18:32Z</time>
      </trkpt>
      <trkpt lat="46.84161" lon="-2.13908">
        <ele>5</ele>
        <time>2020-06-04T10:18:33Z</time>
      </trkpt>
      <trkpt lat="46.84162" lon="-2.13903">
        <ele>5</ele>
        <time>2020-06-04T10:18:34Z</time>
      </trkpt>
      <trkpt lat="46.84162" lon="-2.13901">
        <ele>5</ele>
        <time>2020-06-04T10:18:35Z</time>
      </trkpt>
      <trkpt lat="46.84164" lon="-2.13898">
        <ele>5</ele>
        <time>2020-06-04T10:18:36Z</time>
      </trkpt>
      <trkpt lat="46.84165" lon="-2.13893">
        <ele>4.9</ele>
        <time>2020-06-04T10:18:37Z</time>
      </trkpt>
      <trkpt lat="46.84166" lon="-2.13891">
        <ele>4.9</ele>
        <time>2020-06-04T10:18:38Z</time>
      </trkpt>
      <trkpt lat="46.84167" lon="-2.13887">
        <ele>4.9</ele>
        <time>2020-06-04T10:18:39Z</time>
      </trkpt>
      <trkpt lat="46.84167" lon="-2.13883">
        <ele>4.9</ele>
        <time>2020-06-04T10:18:40Z</time>
      </trkpt>
      <trkpt lat="46.84167" lon="-2.13877">
        <ele>4.9</ele>
        <time>2020-06-04T10:18:41Z</time>
      </trkpt>
      <trkpt lat="46.84166" lon="-2.13876">
        <ele>4.9</ele>
        <time>2020-06-04T10:18:42Z</time>
      </trkpt>
      <trkpt lat="46.84166" lon="-2.13872">
        <ele>4.9</ele>
        <time>2020-06-04T10:18:43Z</time>
      </trkpt>
      <trkpt lat="46.84166" lon="-2.13866">
        <ele>4.8</ele>
        <time>2020-06-04T10:18:44Z</time>
      </trkpt>
      <trkpt lat="46.84165" lon="-2.13865">
        <ele>4.8</ele>
        <time>2020-06-04T10:18:45Z</time>
      </trkpt>
      <trkpt lat="46.84165" lon="-2.1386">
        <ele>4.8</ele>
        <time>2020-06-04T10:18:46Z</time>
      </trkpt>
      <trkpt lat="46.84165" lon="-2.13858">
        <ele>4.8</ele>
        <time>2020-06-04T10:18:47Z</time>
      </trkpt>
      <trkpt lat="46.84164" lon="-2.13854">
        <ele>4.7</ele>
        <time>2020-06-04T10:18:48Z</time>
      </trkpt>
      <trkpt lat="46.84164" lon="-2.13852">
        <ele>4.7</ele>
        <time>2020-06-04T10:18:49Z</time>
      </trkpt>
      <trkpt lat="46.84163" lon="-2.13848">
        <ele>4.6</ele>
        <time>2020-06-04T10:18:50Z</time>
      </trkpt>
      <trkpt lat="46.84163" lon="-2.13846">
        <ele>4.6</ele>
        <time>2020-06-04T10:18:51Z</time>
      </trkpt>
      <trkpt lat="46.84162" lon="-2.13841">
        <ele>4.6</ele>
        <time>2020-06-04T10:18:52Z</time>
      </trkpt>
      <trkpt lat="46.84163" lon="-2.13839">
        <ele>4.6</ele>
        <time>2020-06-04T10:18:53Z</time>
      </trkpt>
      <trkpt lat="46.84162" lon="-2.13834">
        <ele>4.5</ele>
        <time>2020-06-04T10:18:54Z</time>
      </trkpt>
      <trkpt lat="46.84162" lon="-2.13833">
        <ele>4.5</ele>
        <time>2020-06-04T10:18:55Z</time>
      </trkpt>
      <trkpt lat="46.84162" lon="-2.13827">
        <ele>4.5</ele>
        <time>2020-06-04T10:18:56Z</time>
      </trkpt>
      <trkpt lat="46.84162" lon="-2.13825">
        <ele>4.4</ele>
        <time>2020-06-04T10:18:57Z</time>
      </trkpt>
      <trkpt lat="46.84162" lon="-2.13821">
        <ele>4.4</ele>
        <time>2020-06-04T10:18:58Z</time>
      </trkpt>
      <trkpt lat="46.84161" lon="-2.13817">
        <ele>4.4</ele>
        <time>2020-06-04T10:18:59Z</time>
      </trkpt>
      <trkpt lat="46.84161" lon="-2.13812">
        <ele>4.3</ele>
        <time>2020-06-04T10:19:00Z</time>
      </trkpt>
      <trkpt lat="46.8416" lon="-2.13806">
        <ele>4.3</ele>
        <time>2020-06-04T10:19:01Z</time>
      </trkpt>
      <trkpt lat="46.8416" lon="-2.138">
        <ele>4.3</ele>
        <time>2020-06-04T10:19:02Z</time>
      </trkpt>
      <trkpt lat="46.8416" lon="-2.13794">
        <ele>4.2</ele>
        <time>2020-06-04T10:19:03Z</time>
      </trkpt>
      <trkpt lat="46.8416" lon="-2.13787">
        <ele>4.2</ele>
        <time>2020-06-04T10:19:04Z</time>
      </trkpt>
      <trkpt lat="46.84161" lon="-2.13781">
        <ele>4.2</ele>
        <time>2020-06-04T10:19:05Z</time>
      </trkpt>
      <trkpt lat="46.84161" lon="-2.13775">
        <ele>4.2</ele>
        <time>2020-06-04T10:19:06Z</time>
      </trkpt>
      <trkpt lat="46.84162" lon="-2.1377">
        <ele>4.1</ele>
        <time>2020-06-04T10:19:07Z</time>
      </trkpt>
      <trkpt lat="46.84163" lon="-2.13765">
        <ele>4.1</ele>
        <time>2020-06-04T10:19:08Z</time>
      </trkpt>
      <trkpt lat="46.84163" lon="-2.13759">
        <ele>4.1</ele>
        <time>2020-06-04T10:19:09Z</time>
      </trkpt>
      <trkpt lat="46.84163" lon="-2.13753">
        <ele>4.1</ele>
        <time>2020-06-04T10:19:10Z</time>
      </trkpt>
      <trkpt lat="46.84162" lon="-2.13746">
        <ele>4.1</ele>
        <time>2020-06-04T10:19:11Z</time>
      </trkpt>
      <trkpt lat="46.84161" lon="-2.13738">
        <ele>4.1</ele>
        <time>2020-06-04T10:19:12Z</time>
      </trkpt>
      <trkpt lat="46.84161" lon="-2.13731">
        <ele>4.1</ele>
        <time>2020-06-04T10:19:13Z</time>
      </trkpt>
      <trkpt lat="46.8416" lon="-2.13723">
        <ele>4</ele>
        <time>2020-06-04T10:19:14Z</time>
      </trkpt>
      <trkpt lat="46.8416" lon="-2.13714">
        <ele>4</ele>
        <time>2020-06-04T10:19:15Z</time>
      </trkpt>
      <trkpt lat="46.8416" lon="-2.13707">
        <ele>4</ele>
        <time>2020-06-04T10:19:16Z</time>
      </trkpt>
      <trkpt lat="46.8416" lon="-2.13701">
        <ele>4</ele>
        <time>2020-06-04T10:19:17Z</time>
      </trkpt>
      <trkpt lat="46.8416" lon="-2.13694">
        <ele>4</ele>
        <time>2020-06-04T10:19:18Z</time>
      </trkpt>
      <trkpt lat="46.8416" lon="-2.13688">
        <ele>4</ele>
        <time>2020-06-04T10:19:19Z</time>
      </trkpt>
      <trkpt lat="46.8416" lon="-2.13682">
        <ele>4</ele>
        <time>2020-06-04T10:19:20Z</time>
      </trkpt>
      <trkpt lat="46.8416" lon="-2.13676">
        <ele>4</ele>
        <time>2020-06-04T10:19:21Z</time>
      </trkpt>
      <trkpt lat="46.84159" lon="-2.1367">
        <ele>4</ele>
        <time>2020-06-04T10:19:22Z</time>
      </trkpt>
      <trkpt lat="46.8416" lon="-2.13664">
        <ele>4</ele>
        <time>2020-06-04T10:19:23Z</time>
      </trkpt>
      <trkpt lat="46.84161" lon="-2.13657">
        <ele>4</ele>
        <time>2020-06-04T10:19:24Z</time>
      </trkpt>
      <trkpt lat="46.84162" lon="-2.13649">
        <ele>3.9</ele>
        <time>2020-06-04T10:19:25Z</time>
      </trkpt>
      <trkpt lat="46.84163" lon="-2.13641">
        <ele>3.9</ele>
        <time>2020-06-04T10:19:26Z</time>
      </trkpt>
      <trkpt lat="46.84164" lon="-2.13635">
        <ele>3.9</ele>
        <time>2020-06-04T10:19:27Z</time>
      </trkpt>
      <trkpt lat="46.84163" lon="-2.1363">
        <ele>3.9</ele>
        <time>2020-06-04T10:19:28Z</time>
      </trkpt>
      <trkpt lat="46.84163" lon="-2.13624">
        <ele>3.9</ele>
        <time>2020-06-04T10:19:29Z</time>
      </trkpt>
      <trkpt lat="46.84163" lon="-2.13618">
        <ele>3.9</ele>
        <time>2020-06-04T10:19:30Z</time>
      </trkpt>
      <trkpt lat="46.84163" lon="-2.13612">
        <ele>3.9</ele>
        <time>2020-06-04T10:19:31Z</time>
      </trkpt>
      <trkpt lat="46.84163" lon="-2.13607">
        <ele>3.9</ele>
        <time>2020-06-04T10:19:32Z</time>
      </trkpt>
      <trkpt lat="46.84162" lon="-2.13602">
        <ele>3.9</ele>
        <time>2020-06-04T10:19:33Z</time>
      </trkpt>
      <trkpt lat="46.84162" lon="-2.13597">
        <ele>4</ele>
        <time>2020-06-04T10:19:34Z</time>
      </trkpt>
      <trkpt lat="46.84162" lon="-2.13592">
        <ele>4</ele>
        <time>2020-06-04T10:19:35Z</time>
      </trkpt>
      <trkpt lat="46.84163" lon="-2.13588">
        <ele>4</ele>
        <time>2020-06-04T10:19:36Z</time>
      </trkpt>
      <trkpt lat="46.84163" lon="-2.13584">
        <ele>4</ele>
        <time>2020-06-04T10:19:37Z</time>
      </trkpt>
      <trkpt lat="46.84165" lon="-2.13578">
        <ele>4.1</ele>
        <time>2020-06-04T10:19:38Z</time>
      </trkpt>
      <trkpt lat="46.84165" lon="-2.13576">
        <ele>4.1</ele>
        <time>2020-06-04T10:19:39Z</time>
      </trkpt>
      <trkpt lat="46.84165" lon="-2.1357">
        <ele>4.1</ele>
        <time>2020-06-04T10:19:40Z</time>
      </trkpt>
      <trkpt lat="46.84165" lon="-2.13565">
        <ele>4.1</ele>
        <time>2020-06-04T10:19:41Z</time>
      </trkpt>
      <trkpt lat="46.84166" lon="-2.13558">
        <ele>4.2</ele>
        <time>2020-06-04T10:19:42Z</time>
      </trkpt>
      <trkpt lat="46.84165" lon="-2.13553">
        <ele>4.2</ele>
        <time>2020-06-04T10:19:43Z</time>
      </trkpt>
      <trkpt lat="46.84165" lon="-2.13549">
        <ele>4.3</ele>
        <time>2020-06-04T10:19:44Z</time>
      </trkpt>
      <trkpt lat="46.84166" lon="-2.13544">
        <ele>4.3</ele>
        <time>2020-06-04T10:19:45Z</time>
      </trkpt>
      <trkpt lat="46.84167" lon="-2.13543">
        <ele>4.3</ele>
        <time>2020-06-04T10:19:46Z</time>
      </trkpt>
      <trkpt lat="46.84168" lon="-2.13538">
        <ele>4.4</ele>
        <time>2020-06-04T10:19:47Z</time>
      </trkpt>
      <trkpt lat="46.84169" lon="-2.13537">
        <ele>4.4</ele>
        <time>2020-06-04T10:19:48Z</time>
      </trkpt>
      <trkpt lat="46.84169" lon="-2.13531">
        <ele>4.4</ele>
        <time>2020-06-04T10:19:49Z</time>
      </trkpt>
      <trkpt lat="46.84168" lon="-2.1353">
        <ele>4.4</ele>
        <time>2020-06-04T10:19:50Z</time>
      </trkpt>
      <trkpt lat="46.84169" lon="-2.13526">
        <ele>4.5</ele>
        <time>2020-06-04T10:19:51Z</time>
      </trkpt>
      <trkpt lat="46.84171" lon="-2.13523">
        <ele>4.5</ele>
        <time>2020-06-04T10:19:52Z</time>
      </trkpt>
      <trkpt lat="46.84174" lon="-2.13519">
        <ele>4.6</ele>
        <time>2020-06-04T10:19:53Z</time>
      </trkpt>
      <trkpt lat="46.84177" lon="-2.13514">
        <ele>4.6</ele>
        <time>2020-06-04T10:19:54Z</time>
      </trkpt>
      <trkpt lat="46.84181" lon="-2.1351">
        <ele>5.3</ele>
        <time>2020-06-04T10:19:55Z</time>
      </trkpt>
      <trkpt lat="46.84184" lon="-2.13508">
        <ele>5.4</ele>
        <time>2020-06-04T10:19:56Z</time>
      </trkpt>
      <trkpt lat="46.84187" lon="-2.13504">
        <ele>5.5</ele>
        <time>2020-06-04T10:19:57Z</time>
      </trkpt>
      <trkpt lat="46.8419" lon="-2.135">
        <ele>5.7</ele>
        <time>2020-06-04T10:19:58Z</time>
      </trkpt>
      <trkpt lat="46.84194" lon="-2.13495">
        <ele>5.9</ele>
        <time>2020-06-04T10:19:59Z</time>
      </trkpt>
      <trkpt lat="46.84198" lon="-2.13491">
        <ele>6.1</ele>
        <time>2020-06-04T10:20:00Z</time>
      </trkpt>
      <trkpt lat="46.84202" lon="-2.13487">
        <ele>6.2</ele>
        <time>2020-06-04T10:20:01Z</time>
      </trkpt>
      <trkpt lat="46.84206" lon="-2.13483">
        <ele>6.4</ele>
        <time>2020-06-04T10:20:02Z</time>
      </trkpt>
      <trkpt lat="46.84209" lon="-2.1348">
        <ele>6.6</ele>
        <time>2020-06-04T10:20:03Z</time>
      </trkpt>
      <trkpt lat="46.84212" lon="-2.13477">
        <ele>6.7</ele>
        <time>2020-06-04T10:20:04Z</time>
      </trkpt>
      <trkpt lat="46.84216" lon="-2.13473">
        <ele>6.8</ele>
        <time>2020-06-04T10:20:05Z</time>
      </trkpt>
      <trkpt lat="46.84219" lon="-2.13469">
        <ele>7</ele>
        <time>2020-06-04T10:20:06Z</time>
      </trkpt>
      <trkpt lat="46.84222" lon="-2.13466">
        <ele>7.1</ele>
        <time>2020-06-04T10:20:07Z</time>
      </trkpt>
      <trkpt lat="46.84225" lon="-2.13463">
        <ele>7.1</ele>
        <time>2020-06-04T10:20:08Z</time>
      </trkpt>
      <trkpt lat="46.84229" lon="-2.13457">
        <ele>7.2</ele>
        <time>2020-06-04T10:20:09Z</time>
      </trkpt>
      <trkpt lat="46.84233" lon="-2.13454">
        <ele>7.3</ele>
        <time>2020-06-04T10:20:10Z</time>
      </trkpt>
      <trkpt lat="46.84236" lon="-2.1345">
        <ele>7.3</ele>
        <time>2020-06-04T10:20:11Z</time>
      </trkpt>
      <trkpt lat="46.8424" lon="-2.13447">
        <ele>7.4</ele>
        <time>2020-06-04T10:20:12Z</time>
      </trkpt>
      <trkpt lat="46.84244" lon="-2.13444">
        <ele>7.4</ele>
        <time>2020-06-04T10:20:13Z</time>
      </trkpt>
      <trkpt lat="46.84247" lon="-2.13442">
        <ele>7.4</ele>
        <time>2020-06-04T10:20:14Z</time>
      </trkpt>
      <trkpt lat="46.84251" lon="-2.1344">
        <ele>7.4</ele>
        <time>2020-06-04T10:20:15Z</time>
      </trkpt>
      <trkpt lat="46.84255" lon="-2.13438">
        <ele>7.4</ele>
        <time>2020-06-04T10:20:16Z</time>
      </trkpt>
      <trkpt lat="46.84259" lon="-2.13436">
        <ele>7.4</ele>
        <time>2020-06-04T10:20:17Z</time>
      </trkpt>
      <trkpt lat="46.84262" lon="-2.13434">
        <ele>7.4</ele>
        <time>2020-06-04T10:20:18Z</time>
      </trkpt>
      <trkpt lat="46.84266" lon="-2.13432">
        <ele>7.4</ele>
        <time>2020-06-04T10:20:19Z</time>
      </trkpt>
      <trkpt lat="46.84268" lon="-2.1343">
        <ele>7.3</ele>
        <time>2020-06-04T10:20:20Z</time>
      </trkpt>
      <trkpt lat="46.84271" lon="-2.13428">
        <ele>7.3</ele>
        <time>2020-06-04T10:20:21Z</time>
      </trkpt>
      <trkpt lat="46.84274" lon="-2.13426">
        <ele>7.3</ele>
        <time>2020-06-04T10:20:22Z</time>
      </trkpt>
      <trkpt lat="46.84276" lon="-2.13423">
        <ele>7.2</ele>
        <time>2020-06-04T10:20:23Z</time>
      </trkpt>
      <trkpt lat="46.84279" lon="-2.1342">
        <ele>7.2</ele>
        <time>2020-06-04T10:20:24Z</time>
      </trkpt>
      <trkpt lat="46.84283" lon="-2.13416">
        <ele>7.1</ele>
        <time>2020-06-04T10:20:25Z</time>
      </trkpt>
      <trkpt lat="46.84286" lon="-2.13413">
        <ele>7.1</ele>
        <time>2020-06-04T10:20:26Z</time>
      </trkpt>
      <trkpt lat="46.84289" lon="-2.13409">
        <ele>7</ele>
        <time>2020-06-04T10:20:27Z</time>
      </trkpt>
      <trkpt lat="46.84293" lon="-2.13406">
        <ele>6.9</ele>
        <time>2020-06-04T10:20:28Z</time>
      </trkpt>
      <trkpt lat="46.84296" lon="-2.13403">
        <ele>6.9</ele>
        <time>2020-06-04T10:20:29Z</time>
      </trkpt>
      <trkpt lat="46.84299" lon="-2.134">
        <ele>6.9</ele>
        <time>2020-06-04T10:20:30Z</time>
      </trkpt>
      <trkpt lat="46.84302" lon="-2.13398">
        <ele>6.8</ele>
        <time>2020-06-04T10:20:31Z</time>
      </trkpt>
      <trkpt lat="46.84304" lon="-2.13394">
        <ele>6.8</ele>
        <time>2020-06-04T10:20:32Z</time>
      </trkpt>
      <trkpt lat="46.84307" lon="-2.1339">
        <ele>6.8</ele>
        <time>2020-06-04T10:20:33Z</time>
      </trkpt>
      <trkpt lat="46.84311" lon="-2.13386">
        <ele>6.8</ele>
        <time>2020-06-04T10:20:34Z</time>
      </trkpt>
      <trkpt lat="46.84313" lon="-2.13381">
        <ele>6.7</ele>
        <time>2020-06-04T10:20:35Z</time>
      </trkpt>
      <trkpt lat="46.84316" lon="-2.13377">
        <ele>6.7</ele>
        <time>2020-06-04T10:20:36Z</time>
      </trkpt>
      <trkpt lat="46.84318" lon="-2.13373">
        <ele>6.7</ele>
        <time>2020-06-04T10:20:37Z</time>
      </trkpt>
      <trkpt lat="46.8432" lon="-2.13369">
        <ele>6.7</ele>
        <time>2020-06-04T10:20:38Z</time>
      </trkpt>
      <trkpt lat="46.84322" lon="-2.13366">
        <ele>6.8</ele>
        <time>2020-06-04T10:20:39Z</time>
      </trkpt>
      <trkpt lat="46.84325" lon="-2.13361">
        <ele>6.8</ele>
        <time>2020-06-04T10:20:40Z</time>
      </trkpt>
      <trkpt lat="46.84329" lon="-2.13358">
        <ele>6.8</ele>
        <time>2020-06-04T10:20:41Z</time>
      </trkpt>
      <trkpt lat="46.84332" lon="-2.13355">
        <ele>6.8</ele>
        <time>2020-06-04T10:20:42Z</time>
      </trkpt>
      <trkpt lat="46.84334" lon="-2.13351">
        <ele>6.8</ele>
        <time>2020-06-04T10:20:43Z</time>
      </trkpt>
      <trkpt lat="46.84338" lon="-2.13348">
        <ele>6.8</ele>
        <time>2020-06-04T10:20:44Z</time>
      </trkpt>
      <trkpt lat="46.84343" lon="-2.13343">
        <ele>6.8</ele>
        <time>2020-06-04T10:20:45Z</time>
      </trkpt>
      <trkpt lat="46.84347" lon="-2.1334">
        <ele>6.8</ele>
        <time>2020-06-04T10:20:46Z</time>
      </trkpt>
      <trkpt lat="46.84351" lon="-2.13337">
        <ele>6.8</ele>
        <time>2020-06-04T10:20:47Z</time>
      </trkpt>
      <trkpt lat="46.84355" lon="-2.13334">
        <ele>6.8</ele>
        <time>2020-06-04T10:20:48Z</time>
      </trkpt>
      <trkpt lat="46.84359" lon="-2.13332">
        <ele>6.9</ele>
        <time>2020-06-04T10:20:49Z</time>
      </trkpt>
      <trkpt lat="46.84362" lon="-2.13331">
        <ele>7</ele>
        <time>2020-06-04T10:20:50Z</time>
      </trkpt>
      <trkpt lat="46.84366" lon="-2.13329">
        <ele>7.1</ele>
        <time>2020-06-04T10:20:51Z</time>
      </trkpt>
      <trkpt lat="46.8437" lon="-2.13329">
        <ele>7.2</ele>
        <time>2020-06-04T10:20:52Z</time>
      </trkpt>
      <trkpt lat="46.84373" lon="-2.13328">
        <ele>7.3</ele>
        <time>2020-06-04T10:20:53Z</time>
      </trkpt>
      <trkpt lat="46.84377" lon="-2.13327">
        <ele>7.4</ele>
        <time>2020-06-04T10:20:54Z</time>
      </trkpt>
      <trkpt lat="46.84379" lon="-2.13326">
        <ele>7.4</ele>
        <time>2020-06-04T10:20:55Z</time>
      </trkpt>
      <trkpt lat="46.84383" lon="-2.13325">
        <ele>7.5</ele>
        <time>2020-06-04T10:20:56Z</time>
      </trkpt>
      <trkpt lat="46.84384" lon="-2.13325">
        <ele>7.6</ele>
        <time>2020-06-04T10:20:57Z</time>
      </trkpt>
      <trkpt lat="46.84387" lon="-2.13323">
        <ele>7.7</ele>
        <time>2020-06-04T10:20:58Z</time>
      </trkpt>
      <trkpt lat="46.8439" lon="-2.13321">
        <ele>7.8</ele>
        <time>2020-06-04T10:20:59Z</time>
      </trkpt>
      <trkpt lat="46.84393" lon="-2.13321">
        <ele>7.9</ele>
        <time>2020-06-04T10:21:00Z</time>
      </trkpt>
      <trkpt lat="46.84397" lon="-2.13319">
        <ele>8.1</ele>
        <time>2020-06-04T10:21:01Z</time>
      </trkpt>
      <trkpt lat="46.84399" lon="-2.13318">
        <ele>8.2</ele>
        <time>2020-06-04T10:21:02Z</time>
      </trkpt>
      <trkpt lat="46.84403" lon="-2.13316">
        <ele>8.3</ele>
        <time>2020-06-04T10:21:03Z</time>
      </trkpt>
      <trkpt lat="46.84405" lon="-2.13315">
        <ele>8.4</ele>
        <time>2020-06-04T10:21:04Z</time>
      </trkpt>
      <trkpt lat="46.84408" lon="-2.13315">
        <ele>8.5</ele>
        <time>2020-06-04T10:21:05Z</time>
      </trkpt>
      <trkpt lat="46.84411" lon="-2.13315">
        <ele>8.6</ele>
        <time>2020-06-04T10:21:06Z</time>
      </trkpt>
      <trkpt lat="46.84415" lon="-2.13315">
        <ele>8.7</ele>
        <time>2020-06-04T10:21:07Z</time>
      </trkpt>
      <trkpt lat="46.84418" lon="-2.13316">
        <ele>8.8</ele>
        <time>2020-06-04T10:21:08Z</time>
      </trkpt>
      <trkpt lat="46.84422" lon="-2.13315">
        <ele>9</ele>
        <time>2020-06-04T10:21:09Z</time>
      </trkpt>
      <trkpt lat="46.84425" lon="-2.13314">
        <ele>9.1</ele>
        <time>2020-06-04T10:21:10Z</time>
      </trkpt>
      <trkpt lat="46.84429" lon="-2.13312">
        <ele>9.3</ele>
        <time>2020-06-04T10:21:11Z</time>
      </trkpt>
      <trkpt lat="46.84431" lon="-2.1331">
        <ele>9.4</ele>
        <time>2020-06-04T10:21:12Z</time>
      </trkpt>
      <trkpt lat="46.84433" lon="-2.13307">
        <ele>9.5</ele>
        <time>2020-06-04T10:21:13Z</time>
      </trkpt>
      <trkpt lat="46.84435" lon="-2.13304">
        <ele>9.7</ele>
        <time>2020-06-04T10:21:14Z</time>
      </trkpt>
      <trkpt lat="46.84437" lon="-2.13299">
        <ele>9.8</ele>
        <time>2020-06-04T10:21:15Z</time>
      </trkpt>
      <trkpt lat="46.8444" lon="-2.13296">
        <ele>9.9</ele>
        <time>2020-06-04T10:21:16Z</time>
      </trkpt>
      <trkpt lat="46.84444" lon="-2.13292">
        <ele>10</ele>
        <time>2020-06-04T10:21:17Z</time>
      </trkpt>
      <trkpt lat="46.84446" lon="-2.13289">
        <ele>10.1</ele>
        <time>2020-06-04T10:21:18Z</time>
      </trkpt>
      <trkpt lat="46.84448" lon="-2.13286">
        <ele>10.2</ele>
        <time>2020-06-04T10:21:19Z</time>
      </trkpt>
      <trkpt lat="46.84452" lon="-2.13283">
        <ele>10.3</ele>
        <time>2020-06-04T10:21:20Z</time>
      </trkpt>
      <trkpt lat="46.84457" lon="-2.1328">
        <ele>10.3</ele>
        <time>2020-06-04T10:21:21Z</time>
      </trkpt>
      <trkpt lat="46.84459" lon="-2.13277">
        <ele>10.3</ele>
        <time>2020-06-04T10:21:22Z</time>
      </trkpt>
      <trkpt lat="46.84462" lon="-2.13274">
        <ele>10.4</ele>
        <time>2020-06-04T10:21:23Z</time>
      </trkpt>
      <trkpt lat="46.84465" lon="-2.13271">
        <ele>10.4</ele>
        <time>2020-06-04T10:21:24Z</time>
      </trkpt>
      <trkpt lat="46.84466" lon="-2.1327">
        <ele>10.4</ele>
        <time>2020-06-04T10:21:25Z</time>
      </trkpt>
      <trkpt lat="46.8447" lon="-2.13269">
        <ele>10.4</ele>
        <time>2020-06-04T10:21:26Z</time>
      </trkpt>
      <trkpt lat="46.84471" lon="-2.13268">
        <ele>10.3</ele>
        <time>2020-06-04T10:21:27Z</time>
      </trkpt>
      <trkpt lat="46.84475" lon="-2.13266">
        <ele>10.3</ele>
        <time>2020-06-04T10:21:28Z</time>
      </trkpt>
      <trkpt lat="46.84478" lon="-2.13264">
        <ele>10.2</ele>
        <time>2020-06-04T10:21:29Z</time>
      </trkpt>
      <trkpt lat="46.84481" lon="-2.13263">
        <ele>10.2</ele>
        <time>2020-06-04T10:21:30Z</time>
      </trkpt>
      <trkpt lat="46.84484" lon="-2.13262">
        <ele>10.1</ele>
        <time>2020-06-04T10:21:31Z</time>
      </trkpt>
      <trkpt lat="46.84487" lon="-2.1326">
        <ele>10.1</ele>
        <time>2020-06-04T10:21:32Z</time>
      </trkpt>
      <trkpt lat="46.8449" lon="-2.13259">
        <ele>10</ele>
        <time>2020-06-04T10:21:33Z</time>
      </trkpt>
      <trkpt lat="46.84493" lon="-2.13258">
        <ele>9.9</ele>
        <time>2020-06-04T10:21:34Z</time>
      </trkpt>
      <trkpt lat="46.84497" lon="-2.13257">
        <ele>9.9</ele>
        <time>2020-06-04T10:21:35Z</time>
      </trkpt>
      <trkpt lat="46.845" lon="-2.13256">
        <ele>9.8</ele>
        <time>2020-06-04T10:21:36Z</time>
      </trkpt>
      <trkpt lat="46.84502" lon="-2.13255">
        <ele>9.7</ele>
        <time>2020-06-04T10:21:37Z</time>
      </trkpt>
      <trkpt lat="46.84505" lon="-2.13254">
        <ele>9.6</ele>
        <time>2020-06-04T10:21:38Z</time>
      </trkpt>
      <trkpt lat="46.84509" lon="-2.13253">
        <ele>9.6</ele>
        <time>2020-06-04T10:21:39Z</time>
      </trkpt>
      <trkpt lat="46.84512" lon="-2.13252">
        <ele>9.5</ele>
        <time>2020-06-04T10:21:40Z</time>
      </trkpt>
      <trkpt lat="46.84513" lon="-2.13252">
        <ele>9.4</ele>
        <time>2020-06-04T10:21:41Z</time>
      </trkpt>
      <trkpt lat="46.84516" lon="-2.1325">
        <ele>9.4</ele>
        <time>2020-06-04T10:21:42Z</time>
      </trkpt>
      <trkpt lat="46.84517" lon="-2.1325">
        <ele>9.4</ele>
        <time>2020-06-04T10:21:43Z</time>
      </trkpt>
      <trkpt lat="46.84521" lon="-2.13249">
        <ele>9.3</ele>
        <time>2020-06-04T10:21:44Z</time>
      </trkpt>
      <trkpt lat="46.84521" lon="-2.13249">
        <ele>9.3</ele>
        <time>2020-06-04T10:21:45Z</time>
      </trkpt>
      <trkpt lat="46.84525" lon="-2.13248">
        <ele>9.2</ele>
        <time>2020-06-04T10:21:46Z</time>
      </trkpt>
      <trkpt lat="46.84526" lon="-2.13248">
        <ele>9.2</ele>
        <time>2020-06-04T10:21:47Z</time>
      </trkpt>
      <trkpt lat="46.84529" lon="-2.13247">
        <ele>9.2</ele>
        <time>2020-06-04T10:21:48Z</time>
      </trkpt>
      <trkpt lat="46.84532" lon="-2.13246">
        <ele>9.1</ele>
        <time>2020-06-04T10:21:49Z</time>
      </trkpt>
      <trkpt lat="46.84533" lon="-2.13244">
        <ele>9.1</ele>
        <time>2020-06-04T10:21:50Z</time>
      </trkpt>
      <trkpt lat="46.84534" lon="-2.13243">
        <ele>9.1</ele>
        <time>2020-06-04T10:21:51Z</time>
      </trkpt>
      <trkpt lat="46.84537" lon="-2.1324">
        <ele>9</ele>
        <time>2020-06-04T10:21:52Z</time>
      </trkpt>
      <trkpt lat="46.8454" lon="-2.13239">
        <ele>9</ele>
        <time>2020-06-04T10:21:53Z</time>
      </trkpt>
      <trkpt lat="46.84541" lon="-2.13239">
        <ele>8.9</ele>
        <time>2020-06-04T10:21:54Z</time>
      </trkpt>
      <trkpt lat="46.84543" lon="-2.13238">
        <ele>8.9</ele>
        <time>2020-06-04T10:21:55Z</time>
      </trkpt>
      <trkpt lat="46.84545" lon="-2.13237">
        <ele>8.9</ele>
        <time>2020-06-04T10:21:56Z</time>
      </trkpt>
      <trkpt lat="46.84547" lon="-2.13234">
        <ele>8.8</ele>
        <time>2020-06-04T10:21:57Z</time>
      </trkpt>
      <trkpt lat="46.84548" lon="-2.13233">
        <ele>8.8</ele>
        <time>2020-06-04T10:21:58Z</time>
      </trkpt>
      <trkpt lat="46.8455" lon="-2.1323">
        <ele>8.7</ele>
        <time>2020-06-04T10:21:59Z</time>
      </trkpt>
      <trkpt lat="46.84551" lon="-2.13229">
        <ele>8.7</ele>
        <time>2020-06-04T10:22:00Z</time>
      </trkpt>
      <trkpt lat="46.84554" lon="-2.13224">
        <ele>8.6</ele>
        <time>2020-06-04T10:22:01Z</time>
      </trkpt>
      <trkpt lat="46.84556" lon="-2.13223">
        <ele>8.5</ele>
        <time>2020-06-04T10:22:02Z</time>
      </trkpt>
      <trkpt lat="46.84558" lon="-2.13221">
        <ele>8.5</ele>
        <time>2020-06-04T10:22:03Z</time>
      </trkpt>
      <trkpt lat="46.84562" lon="-2.13218">
        <ele>8.4</ele>
        <time>2020-06-04T10:22:04Z</time>
      </trkpt>
      <trkpt lat="46.84566" lon="-2.13214">
        <ele>8.3</ele>
        <time>2020-06-04T10:22:05Z</time>
      </trkpt>
      <trkpt lat="46.84569" lon="-2.1321">
        <ele>8.2</ele>
        <time>2020-06-04T10:22:06Z</time>
      </trkpt>
      <trkpt lat="46.84569" lon="-2.13208">
        <ele>8.2</ele>
        <time>2020-06-04T10:22:07Z</time>
      </trkpt>
      <trkpt lat="46.84571" lon="-2.13204">
        <ele>8.1</ele>
        <time>2020-06-04T10:22:08Z</time>
      </trkpt>
      <trkpt lat="46.84573" lon="-2.132">
        <ele>8.1</ele>
        <time>2020-06-04T10:22:09Z</time>
      </trkpt>
      <trkpt lat="46.84575" lon="-2.13196">
        <ele>8</ele>
        <time>2020-06-04T10:22:10Z</time>
      </trkpt>
      <trkpt lat="46.84577" lon="-2.13193">
        <ele>8</ele>
        <time>2020-06-04T10:22:11Z</time>
      </trkpt>
      <trkpt lat="46.8458" lon="-2.13189">
        <ele>7.9</ele>
        <time>2020-06-04T10:22:12Z</time>
      </trkpt>
      <trkpt lat="46.84584" lon="-2.13184">
        <ele>7.9</ele>
        <time>2020-06-04T10:22:13Z</time>
      </trkpt>
      <trkpt lat="46.84587" lon="-2.13182">
        <ele>7.8</ele>
        <time>2020-06-04T10:22:14Z</time>
      </trkpt>
      <trkpt lat="46.84591" lon="-2.13181">
        <ele>7.7</ele>
        <time>2020-06-04T10:22:15Z</time>
      </trkpt>
      <trkpt lat="46.84594" lon="-2.13181">
        <ele>7.6</ele>
        <time>2020-06-04T10:22:16Z</time>
      </trkpt>
      <trkpt lat="46.84596" lon="-2.13182">
        <ele>7.5</ele>
        <time>2020-06-04T10:22:17Z</time>
      </trkpt>
      <trkpt lat="46.84597" lon="-2.13181">
        <ele>7.5</ele>
        <time>2020-06-04T10:22:18Z</time>
      </trkpt>
      <trkpt lat="46.84599" lon="-2.1318">
        <ele>7.4</ele>
        <time>2020-06-04T10:22:19Z</time>
      </trkpt>
      <trkpt lat="46.84601" lon="-2.13176">
        <ele>7.3</ele>
        <time>2020-06-04T10:22:20Z</time>
      </trkpt>
      <trkpt lat="46.84603" lon="-2.13171">
        <ele>7.2</ele>
        <time>2020-06-04T10:22:21Z</time>
      </trkpt>
      <trkpt lat="46.84604" lon="-2.13167">
        <ele>7.1</ele>
        <time>2020-06-04T10:22:22Z</time>
      </trkpt>
      <trkpt lat="46.84605" lon="-2.13161">
        <ele>7</ele>
        <time>2020-06-04T10:22:23Z</time>
      </trkpt>
      <trkpt lat="46.84612" lon="-2.13152">
        <ele>6.9</ele>
        <time>2020-06-04T10:22:24Z</time>
      </trkpt>
      <trkpt lat="46.84614" lon="-2.13148">
        <ele>6.9</ele>
        <time>2020-06-04T10:22:25Z</time>
      </trkpt>
      <trkpt lat="46.84615" lon="-2.13144">
        <ele>6.9</ele>
        <time>2020-06-04T10:22:26Z</time>
      </trkpt>
      <trkpt lat="46.84616" lon="-2.13139">
        <ele>6.9</ele>
        <time>2020-06-04T10:22:27Z</time>
      </trkpt>
      <trkpt lat="46.84618" lon="-2.13135">
        <ele>6.8</ele>
        <time>2020-06-04T10:22:28Z</time>
      </trkpt>
      <trkpt lat="46.84619" lon="-2.13131">
        <ele>6.8</ele>
        <time>2020-06-04T10:22:29Z</time>
      </trkpt>
      <trkpt lat="46.84622" lon="-2.13127">
        <ele>6.8</ele>
        <time>2020-06-04T10:22:30Z</time>
      </trkpt>
      <trkpt lat="46.84624" lon="-2.13122">
        <ele>6.8</ele>
        <time>2020-06-04T10:22:31Z</time>
      </trkpt>
      <trkpt lat="46.84625" lon="-2.13116">
        <ele>6.8</ele>
        <time>2020-06-04T10:22:32Z</time>
      </trkpt>
      <trkpt lat="46.84627" lon="-2.1311">
        <ele>6.7</ele>
        <time>2020-06-04T10:22:33Z</time>
      </trkpt>
      <trkpt lat="46.84629" lon="-2.13106">
        <ele>6.7</ele>
        <time>2020-06-04T10:22:34Z</time>
      </trkpt>
      <trkpt lat="46.84631" lon="-2.13104">
        <ele>6.7</ele>
        <time>2020-06-04T10:22:35Z</time>
      </trkpt>
      <trkpt lat="46.84634" lon="-2.13101">
        <ele>6.7</ele>
        <time>2020-06-04T10:22:36Z</time>
      </trkpt>
      <trkpt lat="46.84637" lon="-2.13101">
        <ele>6.7</ele>
        <time>2020-06-04T10:22:37Z</time>
      </trkpt>
      <trkpt lat="46.84645" lon="-2.131">
        <ele>6.6</ele>
        <time>2020-06-04T10:22:38Z</time>
      </trkpt>
      <trkpt lat="46.84648" lon="-2.131">
        <ele>6.6</ele>
        <time>2020-06-04T10:22:39Z</time>
      </trkpt>
      <trkpt lat="46.8465" lon="-2.13102">
        <ele>6.6</ele>
        <time>2020-06-04T10:22:40Z</time>
      </trkpt>
      <trkpt lat="46.84653" lon="-2.13103">
        <ele>6.6</ele>
        <time>2020-06-04T10:22:41Z</time>
      </trkpt>
      <trkpt lat="46.84657" lon="-2.13105">
        <ele>6.6</ele>
        <time>2020-06-04T10:22:42Z</time>
      </trkpt>
      <trkpt lat="46.8466" lon="-2.13106">
        <ele>6.6</ele>
        <time>2020-06-04T10:22:43Z</time>
      </trkpt>
      <trkpt lat="46.84661" lon="-2.13106">
        <ele>6.6</ele>
        <time>2020-06-04T10:22:44Z</time>
      </trkpt>
      <trkpt lat="46.84665" lon="-2.13105">
        <ele>6.6</ele>
        <time>2020-06-04T10:22:45Z</time>
      </trkpt>
      <trkpt lat="46.84666" lon="-2.13104">
        <ele>6.6</ele>
        <time>2020-06-04T10:22:46Z</time>
      </trkpt>
      <trkpt lat="46.84669" lon="-2.13102">
        <ele>6.3</ele>
        <time>2020-06-04T10:22:47Z</time>
      </trkpt>
      <trkpt lat="46.84672" lon="-2.13099">
        <ele>6.2</ele>
        <time>2020-06-04T10:22:48Z</time>
      </trkpt>
      <trkpt lat="46.84673" lon="-2.13099">
        <ele>6.2</ele>
        <time>2020-06-04T10:22:49Z</time>
      </trkpt>
      <trkpt lat="46.84676" lon="-2.13097">
        <ele>6.2</ele>
        <time>2020-06-04T10:22:50Z</time>
      </trkpt>
      <trkpt lat="46.84679" lon="-2.13096">
        <ele>6.1</ele>
        <time>2020-06-04T10:22:51Z</time>
      </trkpt>
      <trkpt lat="46.84682" lon="-2.13094">
        <ele>6.1</ele>
        <time>2020-06-04T10:22:52Z</time>
      </trkpt>
      <trkpt lat="46.84686" lon="-2.13093">
        <ele>6</ele>
        <time>2020-06-04T10:22:53Z</time>
      </trkpt>
      <trkpt lat="46.84689" lon="-2.13091">
        <ele>6</ele>
        <time>2020-06-04T10:22:54Z</time>
      </trkpt>
      <trkpt lat="46.84693" lon="-2.13091">
        <ele>6</ele>
        <time>2020-06-04T10:22:55Z</time>
      </trkpt>
      <trkpt lat="46.84696" lon="-2.13088">
        <ele>5.9</ele>
        <time>2020-06-04T10:22:56Z</time>
      </trkpt>
      <trkpt lat="46.84699" lon="-2.13085">
        <ele>5.9</ele>
        <time>2020-06-04T10:22:57Z</time>
      </trkpt>
      <trkpt lat="46.84714" lon="-2.13072">
        <ele>6</ele>
        <time>2020-06-04T10:22:58Z</time>
      </trkpt>
      <trkpt lat="46.84716" lon="-2.13069">
        <ele>6</ele>
        <time>2020-06-04T10:22:59Z</time>
      </trkpt>
      <trkpt lat="46.84719" lon="-2.13068">
        <ele>6</ele>
        <time>2020-06-04T10:23:00Z</time>
      </trkpt>
      <trkpt lat="46.84723" lon="-2.13066">
        <ele>6</ele>
        <time>2020-06-04T10:23:01Z</time>
      </trkpt>
      <trkpt lat="46.84726" lon="-2.13063">
        <ele>6</ele>
        <time>2020-06-04T10:23:02Z</time>
      </trkpt>
      <trkpt lat="46.84729" lon="-2.1306">
        <ele>6.1</ele>
        <time>2020-06-04T10:23:03Z</time>
      </trkpt>
      <trkpt lat="46.84733" lon="-2.13056">
        <ele>6.1</ele>
        <time>2020-06-04T10:23:04Z</time>
      </trkpt>
      <trkpt lat="46.84736" lon="-2.13053">
        <ele>6.1</ele>
        <time>2020-06-04T10:23:05Z</time>
      </trkpt>
      <trkpt lat="46.8474" lon="-2.1305">
        <ele>6.1</ele>
        <time>2020-06-04T10:23:06Z</time>
      </trkpt>
      <trkpt lat="46.84741" lon="-2.13049">
        <ele>6.1</ele>
        <time>2020-06-04T10:23:07Z</time>
      </trkpt>
      <trkpt lat="46.84748" lon="-2.13047">
        <ele>6.1</ele>
        <time>2020-06-04T10:23:08Z</time>
      </trkpt>
      <trkpt lat="46.84753" lon="-2.13046">
        <ele>6.1</ele>
        <time>2020-06-04T10:23:09Z</time>
      </trkpt>
      <trkpt lat="46.84756" lon="-2.13045">
        <ele>6.1</ele>
        <time>2020-06-04T10:23:10Z</time>
      </trkpt>
      <trkpt lat="46.8476" lon="-2.13043">
        <ele>6.1</ele>
        <time>2020-06-04T10:23:11Z</time>
      </trkpt>
      <trkpt lat="46.84761" lon="-2.13042">
        <ele>6.1</ele>
        <time>2020-06-04T10:23:12Z</time>
      </trkpt>
      <trkpt lat="46.84764" lon="-2.13041">
        <ele>6.2</ele>
        <time>2020-06-04T10:23:13Z</time>
      </trkpt>
      <trkpt lat="46.84767" lon="-2.13041">
        <ele>6.2</ele>
        <time>2020-06-04T10:23:14Z</time>
      </trkpt>
      <trkpt lat="46.8477" lon="-2.1304">
        <ele>6.2</ele>
        <time>2020-06-04T10:23:15Z</time>
      </trkpt>
      <trkpt lat="46.84773" lon="-2.13039">
        <ele>6.2</ele>
        <time>2020-06-04T10:23:16Z</time>
      </trkpt>
      <trkpt lat="46.84776" lon="-2.13038">
        <ele>6.2</ele>
        <time>2020-06-04T10:23:17Z</time>
      </trkpt>
      <trkpt lat="46.84779" lon="-2.13036">
        <ele>6.2</ele>
        <time>2020-06-04T10:23:18Z</time>
      </trkpt>
      <trkpt lat="46.84783" lon="-2.13033">
        <ele>6.2</ele>
        <time>2020-06-04T10:23:19Z</time>
      </trkpt>
      <trkpt lat="46.84787" lon="-2.13031">
        <ele>6.2</ele>
        <time>2020-06-04T10:23:20Z</time>
      </trkpt>
      <trkpt lat="46.84791" lon="-2.13029">
        <ele>6.2</ele>
        <time>2020-06-04T10:23:21Z</time>
      </trkpt>
      <trkpt lat="46.84795" lon="-2.13027">
        <ele>6.2</ele>
        <time>2020-06-04T10:23:22Z</time>
      </trkpt>
      <trkpt lat="46.84798" lon="-2.13025">
        <ele>6.1</ele>
        <time>2020-06-04T10:23:23Z</time>
      </trkpt>
      <trkpt lat="46.84802" lon="-2.13023">
        <ele>6.1</ele>
        <time>2020-06-04T10:23:24Z</time>
      </trkpt>
      <trkpt lat="46.84804" lon="-2.13021">
        <ele>6.1</ele>
        <time>2020-06-04T10:23:25Z</time>
      </trkpt>
      <trkpt lat="46.84807" lon="-2.13019">
        <ele>6.1</ele>
        <time>2020-06-04T10:23:26Z</time>
      </trkpt>
      <trkpt lat="46.8481" lon="-2.13017">
        <ele>6.1</ele>
        <time>2020-06-04T10:23:27Z</time>
      </trkpt>
      <trkpt lat="46.84812" lon="-2.13015">
        <ele>6.1</ele>
        <time>2020-06-04T10:23:28Z</time>
      </trkpt>
      <trkpt lat="46.84815" lon="-2.13013">
        <ele>6.1</ele>
        <time>2020-06-04T10:23:29Z</time>
      </trkpt>
      <trkpt lat="46.84816" lon="-2.13012">
        <ele>6.1</ele>
        <time>2020-06-04T10:23:30Z</time>
      </trkpt>
      <trkpt lat="46.8482" lon="-2.1301">
        <ele>6.1</ele>
        <time>2020-06-04T10:23:31Z</time>
      </trkpt>
      <trkpt lat="46.84821" lon="-2.13008">
        <ele>6.2</ele>
        <time>2020-06-04T10:23:32Z</time>
      </trkpt>
      <trkpt lat="46.84824" lon="-2.13006">
        <ele>6.2</ele>
        <time>2020-06-04T10:23:33Z</time>
      </trkpt>
      <trkpt lat="46.84827" lon="-2.13004">
        <ele>6.2</ele>
        <time>2020-06-04T10:23:34Z</time>
      </trkpt>
      <trkpt lat="46.84828" lon="-2.13003">
        <ele>6.2</ele>
        <time>2020-06-04T10:23:35Z</time>
      </trkpt>
      <trkpt lat="46.8483" lon="-2.13003">
        <ele>6.2</ele>
        <time>2020-06-04T10:23:36Z</time>
      </trkpt>
      <trkpt lat="46.84831" lon="-2.13002">
        <ele>6.2</ele>
        <time>2020-06-04T10:23:37Z</time>
      </trkpt>
      <trkpt lat="46.84834" lon="-2.12998">
        <ele>6.3</ele>
        <time>2020-06-04T10:23:38Z</time>
      </trkpt>
      <trkpt lat="46.84835" lon="-2.12998">
        <ele>6.3</ele>
        <time>2020-06-04T10:23:39Z</time>
      </trkpt>
      <trkpt lat="46.84836" lon="-2.12997">
        <ele>6.3</ele>
        <time>2020-06-04T10:23:40Z</time>
      </trkpt>
      <trkpt lat="46.84838" lon="-2.12997">
        <ele>6.4</ele>
        <time>2020-06-04T10:23:41Z</time>
      </trkpt>
      <trkpt lat="46.84839" lon="-2.12996">
        <ele>6.4</ele>
        <time>2020-06-04T10:23:42Z</time>
      </trkpt>
      <trkpt lat="46.84841" lon="-2.12995">
        <ele>6.4</ele>
        <time>2020-06-04T10:23:43Z</time>
      </trkpt>
      <trkpt lat="46.84843" lon="-2.12994">
        <ele>6.5</ele>
        <time>2020-06-04T10:23:44Z</time>
      </trkpt>
      <trkpt lat="46.84843" lon="-2.12993">
        <ele>6.3</ele>
        <time>2020-06-04T10:23:45Z</time>
      </trkpt>
      <trkpt lat="46.84844" lon="-2.12992">
        <ele>6.1</ele>
        <time>2020-06-04T10:23:46Z</time>
      </trkpt>
      <trkpt lat="46.84846" lon="-2.12988">
        <ele>6</ele>
        <time>2020-06-04T10:23:47Z</time>
      </trkpt>
      <trkpt lat="46.84848" lon="-2.12985">
        <ele>5.9</ele>
        <time>2020-06-04T10:23:48Z</time>
      </trkpt>
      <trkpt lat="46.84849" lon="-2.12983">
        <ele>5.6</ele>
        <time>2020-06-04T10:23:49Z</time>
      </trkpt>
      <trkpt lat="46.84849" lon="-2.12982">
        <ele>5.5</ele>
        <time>2020-06-04T10:23:50Z</time>
      </trkpt>
      <trkpt lat="46.8485" lon="-2.12982">
        <ele>5.4</ele>
        <time>2020-06-04T10:23:51Z</time>
      </trkpt>
      <trkpt lat="46.8485" lon="-2.1298">
        <ele>5.2</ele>
        <time>2020-06-04T10:23:52Z</time>
      </trkpt>
      <trkpt lat="46.84851" lon="-2.1298">
        <ele>5.2</ele>
        <time>2020-06-04T10:23:53Z</time>
      </trkpt>
      <trkpt lat="46.84852" lon="-2.12979">
        <ele>5</ele>
        <time>2020-06-04T10:23:54Z</time>
      </trkpt>
      <trkpt lat="46.84854" lon="-2.12976">
        <ele>4.8</ele>
        <time>2020-06-04T10:23:55Z</time>
      </trkpt>
      <trkpt lat="46.84855" lon="-2.12975">
        <ele>4.6</ele>
        <time>2020-06-04T10:23:56Z</time>
      </trkpt>
      <trkpt lat="46.84855" lon="-2.12972">
        <ele>4.5</ele>
        <time>2020-06-04T10:23:57Z</time>
      </trkpt>
      <trkpt lat="46.84856" lon="-2.1297">
        <ele>4.5</ele>
        <time>2020-06-04T10:23:58Z</time>
      </trkpt>
      <trkpt lat="46.84857" lon="-2.12969">
        <ele>4.5</ele>
        <time>2020-06-04T10:23:59Z</time>
      </trkpt>
      <trkpt lat="46.84857" lon="-2.12967">
        <ele>4.5</ele>
        <time>2020-06-04T10:24:00Z</time>
      </trkpt>
      <trkpt lat="46.84858" lon="-2.12967">
        <ele>4.5</ele>
        <time>2020-06-04T10:24:01Z</time>
      </trkpt>
      <trkpt lat="46.84857" lon="-2.12966">
        <ele>4.5</ele>
        <time>2020-06-04T10:24:02Z</time>
      </trkpt>
      <trkpt lat="46.8486" lon="-2.12965">
        <ele>4.5</ele>
        <time>2020-06-04T10:24:03Z</time>
      </trkpt>
      <trkpt lat="46.8486" lon="-2.12965">
        <ele>4.5</ele>
        <time>2020-06-04T10:24:04Z</time>
      </trkpt>
      <trkpt lat="46.8486" lon="-2.12966">
        <ele>4.5</ele>
        <time>2020-06-04T10:24:05Z</time>
      </trkpt>
      <trkpt lat="46.84861" lon="-2.12969">
        <ele>4.5</ele>
        <time>2020-06-04T10:24:06Z</time>
      </trkpt>
      <trkpt lat="46.84861" lon="-2.12968">
        <ele>4.5</ele>
        <time>2020-06-04T10:24:07Z</time>
      </trkpt>
      <trkpt lat="46.84862" lon="-2.12969">
        <ele>4.5</ele>
        <time>2020-06-04T10:24:08Z</time>
      </trkpt>
      <trkpt lat="46.84862" lon="-2.12969">
        <ele>4.5</ele>
        <time>2020-06-04T10:24:09Z</time>
      </trkpt>
      <trkpt lat="46.84862" lon="-2.12969">
        <ele>4.5</ele>
        <time>2020-06-04T10:24:10Z</time>
      </trkpt>
      <trkpt lat="46.84862" lon="-2.12969">
        <ele>4.5</ele>
        <time>2020-06-04T10:24:11Z</time>
      </trkpt>
      <trkpt lat="46.84913" lon="-2.12898">
        <ele>4.4</ele>
        <time>2020-06-04T10:24:53Z</time>
      </trkpt>
      <trkpt lat="46.84919" lon="-2.12892">
        <ele>4.4</ele>
        <time>2020-06-04T10:24:54Z</time>
      </trkpt>
      <trkpt lat="46.84932" lon="-2.12884">
        <ele>4.4</ele>
        <time>2020-06-04T10:24:55Z</time>
      </trkpt>
      <trkpt lat="46.84938" lon="-2.12881">
        <ele>4.4</ele>
        <time>2020-06-04T10:24:56Z</time>
      </trkpt>
      <trkpt lat="46.84943" lon="-2.12878">
        <ele>4.4</ele>
        <time>2020-06-04T10:24:57Z</time>
      </trkpt>
      <trkpt lat="46.84949" lon="-2.12875">
        <ele>4.4</ele>
        <time>2020-06-04T10:24:58Z</time>
      </trkpt>
      <trkpt lat="46.84955" lon="-2.12872">
        <ele>4.4</ele>
        <time>2020-06-04T10:24:59Z</time>
      </trkpt>
      <trkpt lat="46.8496" lon="-2.1287">
        <ele>4.4</ele>
        <time>2020-06-04T10:25:00Z</time>
      </trkpt>
      <trkpt lat="46.84966" lon="-2.12867">
        <ele>4.4</ele>
        <time>2020-06-04T10:25:01Z</time>
      </trkpt>
      <trkpt lat="46.84971" lon="-2.12864">
        <ele>4.4</ele>
        <time>2020-06-04T10:25:02Z</time>
      </trkpt>
      <trkpt lat="46.84977" lon="-2.12861">
        <ele>4.4</ele>
        <time>2020-06-04T10:25:03Z</time>
      </trkpt>
      <trkpt lat="46.84982" lon="-2.12858">
        <ele>4.4</ele>
        <time>2020-06-04T10:25:04Z</time>
      </trkpt>
      <trkpt lat="46.84994" lon="-2.12855">
        <ele>4.3</ele>
        <time>2020-06-04T10:25:05Z</time>
      </trkpt>
      <trkpt lat="46.85" lon="-2.12853">
        <ele>4.3</ele>
        <time>2020-06-04T10:25:06Z</time>
      </trkpt>
      <trkpt lat="46.85005" lon="-2.12851">
        <ele>4.3</ele>
        <time>2020-06-04T10:25:07Z</time>
      </trkpt>
      <trkpt lat="46.85013" lon="-2.12846">
        <ele>4.3</ele>
        <time>2020-06-04T10:25:08Z</time>
      </trkpt>
      <trkpt lat="46.8502" lon="-2.1284">
        <ele>4.2</ele>
        <time>2020-06-04T10:25:09Z</time>
      </trkpt>
      <trkpt lat="46.85025" lon="-2.12832">
        <ele>4.2</ele>
        <time>2020-06-04T10:25:10Z</time>
      </trkpt>
      <trkpt lat="46.85034" lon="-2.12827">
        <ele>4.2</ele>
        <time>2020-06-04T10:25:11Z</time>
      </trkpt>
      <trkpt lat="46.8504" lon="-2.1282">
        <ele>4.2</ele>
        <time>2020-06-04T10:25:12Z</time>
      </trkpt>
      <trkpt lat="46.85046" lon="-2.12813">
        <ele>4.1</ele>
        <time>2020-06-04T10:25:13Z</time>
      </trkpt>
      <trkpt lat="46.85055" lon="-2.12806">
        <ele>4.1</ele>
        <time>2020-06-04T10:25:14Z</time>
      </trkpt>
      <trkpt lat="46.85059" lon="-2.128">
        <ele>4.1</ele>
        <time>2020-06-04T10:25:15Z</time>
      </trkpt>
      <trkpt lat="46.85067" lon="-2.12793">
        <ele>4</ele>
        <time>2020-06-04T10:25:16Z</time>
      </trkpt>
      <trkpt lat="46.8508" lon="-2.12783">
        <ele>3.9</ele>
        <time>2020-06-04T10:25:17Z</time>
      </trkpt>
      <trkpt lat="46.85087" lon="-2.12778">
        <ele>3.9</ele>
        <time>2020-06-04T10:25:18Z</time>
      </trkpt>
      <trkpt lat="46.85095" lon="-2.1277">
        <ele>3.9</ele>
        <time>2020-06-04T10:25:19Z</time>
      </trkpt>
      <trkpt lat="46.85101" lon="-2.12765">
        <ele>3.9</ele>
        <time>2020-06-04T10:25:20Z</time>
      </trkpt>
      <trkpt lat="46.85106" lon="-2.1276">
        <ele>3.9</ele>
        <time>2020-06-04T10:25:21Z</time>
      </trkpt>
      <trkpt lat="46.85111" lon="-2.12757">
        <ele>3.9</ele>
        <time>2020-06-04T10:25:22Z</time>
      </trkpt>
      <trkpt lat="46.85123" lon="-2.12747">
        <ele>3.9</ele>
        <time>2020-06-04T10:25:23Z</time>
      </trkpt>
      <trkpt lat="46.85135" lon="-2.12735">
        <ele>3.8</ele>
        <time>2020-06-04T10:25:24Z</time>
      </trkpt>
      <trkpt lat="46.85147" lon="-2.12721">
        <ele>3.8</ele>
        <time>2020-06-04T10:25:25Z</time>
      </trkpt>
      <trkpt lat="46.85161" lon="-2.12709">
        <ele>3.7</ele>
        <time>2020-06-04T10:25:26Z</time>
      </trkpt>
      <trkpt lat="46.85172" lon="-2.127">
        <ele>3.6</ele>
        <time>2020-06-04T10:25:27Z</time>
      </trkpt>
      <trkpt lat="46.8518" lon="-2.12695">
        <ele>3.6</ele>
        <time>2020-06-04T10:25:28Z</time>
      </trkpt>
      <trkpt lat="46.85189" lon="-2.12687">
        <ele>3.6</ele>
        <time>2020-06-04T10:25:29Z</time>
      </trkpt>
      <trkpt lat="46.85197" lon="-2.1268">
        <ele>3.5</ele>
        <time>2020-06-04T10:25:30Z</time>
      </trkpt>
      <trkpt lat="46.85203" lon="-2.12672">
        <ele>3.5</ele>
        <time>2020-06-04T10:25:31Z</time>
      </trkpt>
      <trkpt lat="46.8521" lon="-2.12664">
        <ele>3.5</ele>
        <time>2020-06-04T10:25:32Z</time>
      </trkpt>
      <trkpt lat="46.85215" lon="-2.12659">
        <ele>3.5</ele>
        <time>2020-06-04T10:25:33Z</time>
      </trkpt>
      <trkpt lat="46.85221" lon="-2.12655">
        <ele>4.7</ele>
        <time>2020-06-04T10:25:34Z</time>
      </trkpt>
      <trkpt lat="46.85228" lon="-2.1265">
        <ele>4.7</ele>
        <time>2020-06-04T10:25:35Z</time>
      </trkpt>
      <trkpt lat="46.85234" lon="-2.12645">
        <ele>5.6</ele>
        <time>2020-06-04T10:25:36Z</time>
      </trkpt>
      <trkpt lat="46.85239" lon="-2.1264">
        <ele>5.6</ele>
        <time>2020-06-04T10:25:37Z</time>
      </trkpt>
      <trkpt lat="46.85245" lon="-2.12635">
        <ele>5.6</ele>
        <time>2020-06-04T10:25:38Z</time>
      </trkpt>
      <trkpt lat="46.8525" lon="-2.12629">
        <ele>5.6</ele>
        <time>2020-06-04T10:25:39Z</time>
      </trkpt>
      <trkpt lat="46.85255" lon="-2.12624">
        <ele>5.6</ele>
        <time>2020-06-04T10:25:40Z</time>
      </trkpt>
      <trkpt lat="46.85261" lon="-2.12617">
        <ele>5.6</ele>
        <time>2020-06-04T10:25:41Z</time>
      </trkpt>
      <trkpt lat="46.85266" lon="-2.1261">
        <ele>5.6</ele>
        <time>2020-06-04T10:25:42Z</time>
      </trkpt>
      <trkpt lat="46.85272" lon="-2.12604">
        <ele>5.6</ele>
        <time>2020-06-04T10:25:43Z</time>
      </trkpt>
      <trkpt lat="46.85278" lon="-2.126">
        <ele>5.7</ele>
        <time>2020-06-04T10:25:44Z</time>
      </trkpt>
      <trkpt lat="46.85283" lon="-2.12594">
        <ele>5.7</ele>
        <time>2020-06-04T10:25:45Z</time>
      </trkpt>
      <trkpt lat="46.85289" lon="-2.12588">
        <ele>5.7</ele>
        <time>2020-06-04T10:25:46Z</time>
      </trkpt>
      <trkpt lat="46.85296" lon="-2.12582">
        <ele>5.7</ele>
        <time>2020-06-04T10:25:47Z</time>
      </trkpt>
      <trkpt lat="46.85302" lon="-2.12576">
        <ele>5.7</ele>
        <time>2020-06-04T10:25:48Z</time>
      </trkpt>
      <trkpt lat="46.85308" lon="-2.12569">
        <ele>5.7</ele>
        <time>2020-06-04T10:25:49Z</time>
      </trkpt>
      <trkpt lat="46.85315" lon="-2.12562">
        <ele>5.7</ele>
        <time>2020-06-04T10:25:50Z</time>
      </trkpt>
      <trkpt lat="46.8532" lon="-2.12556">
        <ele>5.7</ele>
        <time>2020-06-04T10:25:51Z</time>
      </trkpt>
      <trkpt lat="46.85326" lon="-2.12548">
        <ele>5.7</ele>
        <time>2020-06-04T10:25:52Z</time>
      </trkpt>
      <trkpt lat="46.85333" lon="-2.12542">
        <ele>5.8</ele>
        <time>2020-06-04T10:25:53Z</time>
      </trkpt>
      <trkpt lat="46.8534" lon="-2.12536">
        <ele>5.8</ele>
        <time>2020-06-04T10:25:54Z</time>
      </trkpt>
      <trkpt lat="46.85346" lon="-2.12531">
        <ele>5.9</ele>
        <time>2020-06-04T10:25:55Z</time>
      </trkpt>
      <trkpt lat="46.85352" lon="-2.12527">
        <ele>6</ele>
        <time>2020-06-04T10:25:56Z</time>
      </trkpt>
      <trkpt lat="46.85358" lon="-2.12522">
        <ele>6.1</ele>
        <time>2020-06-04T10:25:57Z</time>
      </trkpt>
      <trkpt lat="46.85365" lon="-2.12515">
        <ele>6.2</ele>
        <time>2020-06-04T10:25:58Z</time>
      </trkpt>
      <trkpt lat="46.85371" lon="-2.1251">
        <ele>6.3</ele>
        <time>2020-06-04T10:25:59Z</time>
      </trkpt>
      <trkpt lat="46.85377" lon="-2.12505">
        <ele>6.4</ele>
        <time>2020-06-04T10:26:00Z</time>
      </trkpt>
      <trkpt lat="46.85381" lon="-2.12502">
        <ele>6.4</ele>
        <time>2020-06-04T10:26:01Z</time>
      </trkpt>
      <trkpt lat="46.85385" lon="-2.12498">
        <ele>6.5</ele>
        <time>2020-06-04T10:26:02Z</time>
      </trkpt>
      <trkpt lat="46.85389" lon="-2.1249">
        <ele>6.5</ele>
        <time>2020-06-04T10:26:03Z</time>
      </trkpt>
      <trkpt lat="46.85392" lon="-2.12485">
        <ele>6.5</ele>
        <time>2020-06-04T10:26:04Z</time>
      </trkpt>
      <trkpt lat="46.85396" lon="-2.12481">
        <ele>6.4</ele>
        <time>2020-06-04T10:26:05Z</time>
      </trkpt>
      <trkpt lat="46.85401" lon="-2.1248">
        <ele>6.4</ele>
        <time>2020-06-04T10:26:06Z</time>
      </trkpt>
      <trkpt lat="46.85406" lon="-2.1248">
        <ele>6.4</ele>
        <time>2020-06-04T10:26:07Z</time>
      </trkpt>
      <trkpt lat="46.8541" lon="-2.12478">
        <ele>6.4</ele>
        <time>2020-06-04T10:26:08Z</time>
      </trkpt>
      <trkpt lat="46.85416" lon="-2.12476">
        <ele>6.4</ele>
        <time>2020-06-04T10:26:09Z</time>
      </trkpt>
      <trkpt lat="46.8542" lon="-2.12471">
        <ele>6.4</ele>
        <time>2020-06-04T10:26:10Z</time>
      </trkpt>
      <trkpt lat="46.85425" lon="-2.12465">
        <ele>6.3</ele>
        <time>2020-06-04T10:26:11Z</time>
      </trkpt>
      <trkpt lat="46.8543" lon="-2.12458">
        <ele>6.3</ele>
        <time>2020-06-04T10:26:12Z</time>
      </trkpt>
      <trkpt lat="46.85435" lon="-2.12452">
        <ele>6.2</ele>
        <time>2020-06-04T10:26:13Z</time>
      </trkpt>
      <trkpt lat="46.8544" lon="-2.12445">
        <ele>6.2</ele>
        <time>2020-06-04T10:26:14Z</time>
      </trkpt>
      <trkpt lat="46.85444" lon="-2.12439">
        <ele>6.1</ele>
        <time>2020-06-04T10:26:15Z</time>
      </trkpt>
      <trkpt lat="46.85449" lon="-2.12434">
        <ele>6</ele>
        <time>2020-06-04T10:26:16Z</time>
      </trkpt>
      <trkpt lat="46.85454" lon="-2.12427">
        <ele>6</ele>
        <time>2020-06-04T10:26:17Z</time>
      </trkpt>
      <trkpt lat="46.85461" lon="-2.12418">
        <ele>5.9</ele>
        <time>2020-06-04T10:26:18Z</time>
      </trkpt>
      <trkpt lat="46.85467" lon="-2.12409">
        <ele>5.9</ele>
        <time>2020-06-04T10:26:19Z</time>
      </trkpt>
      <trkpt lat="46.85473" lon="-2.12402">
        <ele>5.9</ele>
        <time>2020-06-04T10:26:20Z</time>
      </trkpt>
      <trkpt lat="46.85478" lon="-2.12395">
        <ele>5.9</ele>
        <time>2020-06-04T10:26:21Z</time>
      </trkpt>
      <trkpt lat="46.85484" lon="-2.1239">
        <ele>5.9</ele>
        <time>2020-06-04T10:26:22Z</time>
      </trkpt>
      <trkpt lat="46.8549" lon="-2.12384">
        <ele>5.9</ele>
        <time>2020-06-04T10:26:23Z</time>
      </trkpt>
      <trkpt lat="46.85496" lon="-2.12377">
        <ele>5.9</ele>
        <time>2020-06-04T10:26:24Z</time>
      </trkpt>
      <trkpt lat="46.85501" lon="-2.12371">
        <ele>5.9</ele>
        <time>2020-06-04T10:26:25Z</time>
      </trkpt>
      <trkpt lat="46.85506" lon="-2.12366">
        <ele>5.9</ele>
        <time>2020-06-04T10:26:26Z</time>
      </trkpt>
      <trkpt lat="46.8551" lon="-2.12361">
        <ele>5.9</ele>
        <time>2020-06-04T10:26:27Z</time>
      </trkpt>
      <trkpt lat="46.85515" lon="-2.12356">
        <ele>5.9</ele>
        <time>2020-06-04T10:26:28Z</time>
      </trkpt>
      <trkpt lat="46.8552" lon="-2.12349">
        <ele>5.9</ele>
        <time>2020-06-04T10:26:29Z</time>
      </trkpt>
      <trkpt lat="46.85526" lon="-2.12343">
        <ele>5.9</ele>
        <time>2020-06-04T10:26:30Z</time>
      </trkpt>
      <trkpt lat="46.85532" lon="-2.12336">
        <ele>5.9</ele>
        <time>2020-06-04T10:26:31Z</time>
      </trkpt>
      <trkpt lat="46.85539" lon="-2.1233">
        <ele>5.9</ele>
        <time>2020-06-04T10:26:32Z</time>
      </trkpt>
      <trkpt lat="46.85545" lon="-2.12325">
        <ele>5.8</ele>
        <time>2020-06-04T10:26:33Z</time>
      </trkpt>
      <trkpt lat="46.8555" lon="-2.1232">
        <ele>5.8</ele>
        <time>2020-06-04T10:26:34Z</time>
      </trkpt>
      <trkpt lat="46.85555" lon="-2.12314">
        <ele>5.8</ele>
        <time>2020-06-04T10:26:35Z</time>
      </trkpt>
      <trkpt lat="46.8556" lon="-2.12309">
        <ele>5.8</ele>
        <time>2020-06-04T10:26:36Z</time>
      </trkpt>
      <trkpt lat="46.85565" lon="-2.12306">
        <ele>5.7</ele>
        <time>2020-06-04T10:26:37Z</time>
      </trkpt>
      <trkpt lat="46.85573" lon="-2.12302">
        <ele>5.7</ele>
        <time>2020-06-04T10:26:38Z</time>
      </trkpt>
      <trkpt lat="46.85577" lon="-2.123">
        <ele>5.7</ele>
        <time>2020-06-04T10:26:39Z</time>
      </trkpt>
      <trkpt lat="46.85584" lon="-2.123">
        <ele>5.6</ele>
        <time>2020-06-04T10:26:40Z</time>
      </trkpt>
      <trkpt lat="46.8559" lon="-2.123">
        <ele>5.6</ele>
        <time>2020-06-04T10:26:41Z</time>
      </trkpt>
      <trkpt lat="46.85598" lon="-2.12299">
        <ele>5.6</ele>
        <time>2020-06-04T10:26:42Z</time>
      </trkpt>
      <trkpt lat="46.85604" lon="-2.12298">
        <ele>5.6</ele>
        <time>2020-06-04T10:26:43Z</time>
      </trkpt>
      <trkpt lat="46.85611" lon="-2.12296">
        <ele>5.6</ele>
        <time>2020-06-04T10:26:44Z</time>
      </trkpt>
      <trkpt lat="46.85621" lon="-2.12295">
        <ele>5.7</ele>
        <time>2020-06-04T10:26:45Z</time>
      </trkpt>
      <trkpt lat="46.85629" lon="-2.12296">
        <ele>5.9</ele>
        <time>2020-06-04T10:26:46Z</time>
      </trkpt>
      <trkpt lat="46.85637" lon="-2.12298">
        <ele>6</ele>
        <time>2020-06-04T10:26:47Z</time>
      </trkpt>
      <trkpt lat="46.85643" lon="-2.12299">
        <ele>6.2</ele>
        <time>2020-06-04T10:26:48Z</time>
      </trkpt>
      <trkpt lat="46.85648" lon="-2.123">
        <ele>6.3</ele>
        <time>2020-06-04T10:26:49Z</time>
      </trkpt>
      <trkpt lat="46.85657" lon="-2.12297">
        <ele>6.5</ele>
        <time>2020-06-04T10:26:50Z</time>
      </trkpt>
      <trkpt lat="46.85664" lon="-2.12293">
        <ele>6.7</ele>
        <time>2020-06-04T10:26:51Z</time>
      </trkpt>
      <trkpt lat="46.85669" lon="-2.1229">
        <ele>6.7</ele>
        <time>2020-06-04T10:26:52Z</time>
      </trkpt>
      <trkpt lat="46.85674" lon="-2.12286">
        <ele>6.7</ele>
        <time>2020-06-04T10:26:53Z</time>
      </trkpt>
      <trkpt lat="46.85678" lon="-2.12281">
        <ele>6.7</ele>
        <time>2020-06-04T10:26:54Z</time>
      </trkpt>
      <trkpt lat="46.8568" lon="-2.12278">
        <ele>6.7</ele>
        <time>2020-06-04T10:26:55Z</time>
      </trkpt>
      <trkpt lat="46.85683" lon="-2.12273">
        <ele>6.6</ele>
        <time>2020-06-04T10:26:56Z</time>
      </trkpt>
      <trkpt lat="46.85684" lon="-2.12266">
        <ele>6.6</ele>
        <time>2020-06-04T10:26:57Z</time>
      </trkpt>
      <trkpt lat="46.85683" lon="-2.12259">
        <ele>6.5</ele>
        <time>2020-06-04T10:26:58Z</time>
      </trkpt>
      <trkpt lat="46.85682" lon="-2.12251">
        <ele>6.4</ele>
        <time>2020-06-04T10:26:59Z</time>
      </trkpt>
      <trkpt lat="46.8568" lon="-2.12243">
        <ele>6.4</ele>
        <time>2020-06-04T10:27:00Z</time>
      </trkpt>
      <trkpt lat="46.85677" lon="-2.12233">
        <ele>6.3</ele>
        <time>2020-06-04T10:27:01Z</time>
      </trkpt>
      <trkpt lat="46.85675" lon="-2.12223">
        <ele>6.2</ele>
        <time>2020-06-04T10:27:02Z</time>
      </trkpt>
      <trkpt lat="46.85675" lon="-2.12213">
        <ele>6.1</ele>
        <time>2020-06-04T10:27:03Z</time>
      </trkpt>
      <trkpt lat="46.85676" lon="-2.12203">
        <ele>6.1</ele>
        <time>2020-06-04T10:27:04Z</time>
      </trkpt>
      <trkpt lat="46.85676" lon="-2.12195">
        <ele>6.1</ele>
        <time>2020-06-04T10:27:05Z</time>
      </trkpt>
      <trkpt lat="46.85676" lon="-2.12185">
        <ele>6.1</ele>
        <time>2020-06-04T10:27:06Z</time>
      </trkpt>
      <trkpt lat="46.85675" lon="-2.12178">
        <ele>6.1</ele>
        <time>2020-06-04T10:27:07Z</time>
      </trkpt>
      <trkpt lat="46.85677" lon="-2.12169">
        <ele>6.1</ele>
        <time>2020-06-04T10:27:08Z</time>
      </trkpt>
      <trkpt lat="46.8568" lon="-2.12161">
        <ele>6.2</ele>
        <time>2020-06-04T10:27:09Z</time>
      </trkpt>
      <trkpt lat="46.85684" lon="-2.12151">
        <ele>6.3</ele>
        <time>2020-06-04T10:27:10Z</time>
      </trkpt>
      <trkpt lat="46.85689" lon="-2.12144">
        <ele>6.4</ele>
        <time>2020-06-04T10:27:11Z</time>
      </trkpt>
      <trkpt lat="46.85693" lon="-2.12136">
        <ele>6.6</ele>
        <time>2020-06-04T10:27:12Z</time>
      </trkpt>
      <trkpt lat="46.85698" lon="-2.12129">
        <ele>6.8</ele>
        <time>2020-06-04T10:27:13Z</time>
      </trkpt>
      <trkpt lat="46.85702" lon="-2.12125">
        <ele>7</ele>
        <time>2020-06-04T10:27:14Z</time>
      </trkpt>
      <trkpt lat="46.85704" lon="-2.12121">
        <ele>7.1</ele>
        <time>2020-06-04T10:27:15Z</time>
      </trkpt>
      <trkpt lat="46.85706" lon="-2.12117">
        <ele>7.2</ele>
        <time>2020-06-04T10:27:16Z</time>
      </trkpt>
      <trkpt lat="46.85708" lon="-2.12115">
        <ele>7.3</ele>
        <time>2020-06-04T10:27:17Z</time>
      </trkpt>
      <trkpt lat="46.8571" lon="-2.12112">
        <ele>7.4</ele>
        <time>2020-06-04T10:27:18Z</time>
      </trkpt>
      <trkpt lat="46.85712" lon="-2.12109">
        <ele>7.5</ele>
        <time>2020-06-04T10:27:19Z</time>
      </trkpt>
      <trkpt lat="46.85715" lon="-2.12104">
        <ele>7.6</ele>
        <time>2020-06-04T10:27:20Z</time>
      </trkpt>
      <trkpt lat="46.85716" lon="-2.12102">
        <ele>7.7</ele>
        <time>2020-06-04T10:27:21Z</time>
      </trkpt>
      <trkpt lat="46.8572" lon="-2.12097">
        <ele>7.8</ele>
        <time>2020-06-04T10:27:22Z</time>
      </trkpt>
      <trkpt lat="46.85724" lon="-2.12094">
        <ele>8</ele>
        <time>2020-06-04T10:27:23Z</time>
      </trkpt>
      <trkpt lat="46.85726" lon="-2.12091">
        <ele>8</ele>
        <time>2020-06-04T10:27:24Z</time>
      </trkpt>
      <trkpt lat="46.85729" lon="-2.12087">
        <ele>8.1</ele>
        <time>2020-06-04T10:27:25Z</time>
      </trkpt>
      <trkpt lat="46.8573" lon="-2.12079">
        <ele>8.2</ele>
        <time>2020-06-04T10:27:26Z</time>
      </trkpt>
      <trkpt lat="46.85732" lon="-2.12077">
        <ele>8.3</ele>
        <time>2020-06-04T10:27:27Z</time>
      </trkpt>
      <trkpt lat="46.85735" lon="-2.12074">
        <ele>8.3</ele>
        <time>2020-06-04T10:27:28Z</time>
      </trkpt>
      <trkpt lat="46.85739" lon="-2.12071">
        <ele>8.4</ele>
        <time>2020-06-04T10:27:29Z</time>
      </trkpt>
      <trkpt lat="46.85742" lon="-2.12068">
        <ele>8.4</ele>
        <time>2020-06-04T10:27:30Z</time>
      </trkpt>
      <trkpt lat="46.85744" lon="-2.12065">
        <ele>8.4</ele>
        <time>2020-06-04T10:27:31Z</time>
      </trkpt>
      <trkpt lat="46.85748" lon="-2.12061">
        <ele>8.4</ele>
        <time>2020-06-04T10:27:32Z</time>
      </trkpt>
      <trkpt lat="46.8575" lon="-2.12058">
        <ele>8.4</ele>
        <time>2020-06-04T10:27:33Z</time>
      </trkpt>
      <trkpt lat="46.85755" lon="-2.12053">
        <ele>8.4</ele>
        <time>2020-06-04T10:27:34Z</time>
      </trkpt>
      <trkpt lat="46.85759" lon="-2.12049">
        <ele>8.4</ele>
        <time>2020-06-04T10:27:35Z</time>
      </trkpt>
      <trkpt lat="46.85763" lon="-2.12047">
        <ele>8.4</ele>
        <time>2020-06-04T10:27:36Z</time>
      </trkpt>
      <trkpt lat="46.85764" lon="-2.12046">
        <ele>8.4</ele>
        <time>2020-06-04T10:27:37Z</time>
      </trkpt>
      <trkpt lat="46.85771" lon="-2.12041">
        <ele>8.4</ele>
        <time>2020-06-04T10:27:38Z</time>
      </trkpt>
      <trkpt lat="46.85777" lon="-2.12038">
        <ele>8.3</ele>
        <time>2020-06-04T10:27:39Z</time>
      </trkpt>
      <trkpt lat="46.85781" lon="-2.12035">
        <ele>8.4</ele>
        <time>2020-06-04T10:27:40Z</time>
      </trkpt>
      <trkpt lat="46.85788" lon="-2.1203">
        <ele>8.4</ele>
        <time>2020-06-04T10:27:41Z</time>
      </trkpt>
      <trkpt lat="46.85793" lon="-2.12023">
        <ele>8.6</ele>
        <time>2020-06-04T10:27:42Z</time>
      </trkpt>
      <trkpt lat="46.85796" lon="-2.12018">
        <ele>8.7</ele>
        <time>2020-06-04T10:27:43Z</time>
      </trkpt>
      <trkpt lat="46.85801" lon="-2.12014">
        <ele>8.8</ele>
        <time>2020-06-04T10:27:44Z</time>
      </trkpt>
      <trkpt lat="46.85804" lon="-2.1201">
        <ele>9</ele>
        <time>2020-06-04T10:27:45Z</time>
      </trkpt>
      <trkpt lat="46.85807" lon="-2.12006">
        <ele>9.1</ele>
        <time>2020-06-04T10:27:46Z</time>
      </trkpt>
      <trkpt lat="46.8581" lon="-2.12003">
        <ele>9.2</ele>
        <time>2020-06-04T10:27:47Z</time>
      </trkpt>
      <trkpt lat="46.85813" lon="-2.11999">
        <ele>9.3</ele>
        <time>2020-06-04T10:27:48Z</time>
      </trkpt>
      <trkpt lat="46.85815" lon="-2.11996">
        <ele>9.5</ele>
        <time>2020-06-04T10:27:49Z</time>
      </trkpt>
      <trkpt lat="46.85819" lon="-2.11992">
        <ele>9.6</ele>
        <time>2020-06-04T10:27:50Z</time>
      </trkpt>
      <trkpt lat="46.85822" lon="-2.11989">
        <ele>9.6</ele>
        <time>2020-06-04T10:27:51Z</time>
      </trkpt>
      <trkpt lat="46.85823" lon="-2.11988">
        <ele>9.7</ele>
        <time>2020-06-04T10:27:52Z</time>
      </trkpt>
      <trkpt lat="46.85826" lon="-2.11985">
        <ele>9.8</ele>
        <time>2020-06-04T10:27:53Z</time>
      </trkpt>
      <trkpt lat="46.85829" lon="-2.11981">
        <ele>9.8</ele>
        <time>2020-06-04T10:27:54Z</time>
      </trkpt>
      <trkpt lat="46.85832" lon="-2.11977">
        <ele>9.9</ele>
        <time>2020-06-04T10:27:55Z</time>
      </trkpt>
      <trkpt lat="46.85835" lon="-2.11973">
        <ele>9.9</ele>
        <time>2020-06-04T10:27:56Z</time>
      </trkpt>
      <trkpt lat="46.85838" lon="-2.11969">
        <ele>10</ele>
        <time>2020-06-04T10:27:57Z</time>
      </trkpt>
      <trkpt lat="46.8584" lon="-2.11966">
        <ele>10</ele>
        <time>2020-06-04T10:27:58Z</time>
      </trkpt>
      <trkpt lat="46.85843" lon="-2.11963">
        <ele>9.8</ele>
        <time>2020-06-04T10:27:59Z</time>
      </trkpt>
      <trkpt lat="46.85846" lon="-2.11959">
        <ele>9.7</ele>
        <time>2020-06-04T10:28:00Z</time>
      </trkpt>
      <trkpt lat="46.85849" lon="-2.11955">
        <ele>9.6</ele>
        <time>2020-06-04T10:28:01Z</time>
      </trkpt>
      <trkpt lat="46.85852" lon="-2.1195">
        <ele>9.5</ele>
        <time>2020-06-04T10:28:02Z</time>
      </trkpt>
      <trkpt lat="46.85856" lon="-2.11944">
        <ele>9.3</ele>
        <time>2020-06-04T10:28:03Z</time>
      </trkpt>
      <trkpt lat="46.85858" lon="-2.11937">
        <ele>9.2</ele>
        <time>2020-06-04T10:28:04Z</time>
      </trkpt>
      <trkpt lat="46.85858" lon="-2.11928">
        <ele>9.1</ele>
        <time>2020-06-04T10:28:05Z</time>
      </trkpt>
      <trkpt lat="46.85858" lon="-2.11919">
        <ele>8.9</ele>
        <time>2020-06-04T10:28:06Z</time>
      </trkpt>
      <trkpt lat="46.85858" lon="-2.11909">
        <ele>8.8</ele>
        <time>2020-06-04T10:28:07Z</time>
      </trkpt>
      <trkpt lat="46.8586" lon="-2.11899">
        <ele>8.6</ele>
        <time>2020-06-04T10:28:08Z</time>
      </trkpt>
      <trkpt lat="46.85864" lon="-2.11891">
        <ele>8.3</ele>
        <time>2020-06-04T10:28:09Z</time>
      </trkpt>
      <trkpt lat="46.85868" lon="-2.11885">
        <ele>8.1</ele>
        <time>2020-06-04T10:28:10Z</time>
      </trkpt>
      <trkpt lat="46.85872" lon="-2.11875">
        <ele>7.7</ele>
        <time>2020-06-04T10:28:11Z</time>
      </trkpt>
      <trkpt lat="46.85877" lon="-2.11867">
        <ele>7.5</ele>
        <time>2020-06-04T10:28:12Z</time>
      </trkpt>
      <trkpt lat="46.85881" lon="-2.11859">
        <ele>7.2</ele>
        <time>2020-06-04T10:28:13Z</time>
      </trkpt>
      <trkpt lat="46.85886" lon="-2.11851">
        <ele>7</ele>
        <time>2020-06-04T10:28:14Z</time>
      </trkpt>
      <trkpt lat="46.85891" lon="-2.11842">
        <ele>6.7</ele>
        <time>2020-06-04T10:28:15Z</time>
      </trkpt>
      <trkpt lat="46.85896" lon="-2.11833">
        <ele>6.6</ele>
        <time>2020-06-04T10:28:16Z</time>
      </trkpt>
      <trkpt lat="46.85901" lon="-2.11824">
        <ele>6.4</ele>
        <time>2020-06-04T10:28:17Z</time>
      </trkpt>
      <trkpt lat="46.85905" lon="-2.11816">
        <ele>6.3</ele>
        <time>2020-06-04T10:28:18Z</time>
      </trkpt>
      <trkpt lat="46.85909" lon="-2.11812">
        <ele>6.3</ele>
        <time>2020-06-04T10:28:19Z</time>
      </trkpt>
      <trkpt lat="46.85914" lon="-2.1181">
        <ele>6.2</ele>
        <time>2020-06-04T10:28:20Z</time>
      </trkpt>
      <trkpt lat="46.85918" lon="-2.1181">
        <ele>6.2</ele>
        <time>2020-06-04T10:28:21Z</time>
      </trkpt>
      <trkpt lat="46.85923" lon="-2.11812">
        <ele>6.2</ele>
        <time>2020-06-04T10:28:22Z</time>
      </trkpt>
      <trkpt lat="46.85927" lon="-2.11814">
        <ele>6.1</ele>
        <time>2020-06-04T10:28:23Z</time>
      </trkpt>
      <trkpt lat="46.85931" lon="-2.11817">
        <ele>6.1</ele>
        <time>2020-06-04T10:28:24Z</time>
      </trkpt>
      <trkpt lat="46.85935" lon="-2.1182">
        <ele>6.1</ele>
        <time>2020-06-04T10:28:25Z</time>
      </trkpt>
      <trkpt lat="46.85938" lon="-2.11826">
        <ele>6.1</ele>
        <time>2020-06-04T10:28:26Z</time>
      </trkpt>
      <trkpt lat="46.85942" lon="-2.11831">
        <ele>6</ele>
        <time>2020-06-04T10:28:27Z</time>
      </trkpt>
      <trkpt lat="46.85945" lon="-2.11835">
        <ele>6</ele>
        <time>2020-06-04T10:28:28Z</time>
      </trkpt>
      <trkpt lat="46.85948" lon="-2.11841">
        <ele>6</ele>
        <time>2020-06-04T10:28:29Z</time>
      </trkpt>
      <trkpt lat="46.85951" lon="-2.11847">
        <ele>5.9</ele>
        <time>2020-06-04T10:28:30Z</time>
      </trkpt>
      <trkpt lat="46.85956" lon="-2.11854">
        <ele>5.9</ele>
        <time>2020-06-04T10:28:31Z</time>
      </trkpt>
      <trkpt lat="46.8596" lon="-2.1186">
        <ele>5.8</ele>
        <time>2020-06-04T10:28:32Z</time>
      </trkpt>
      <trkpt lat="46.85964" lon="-2.11866">
        <ele>5.8</ele>
        <time>2020-06-04T10:28:33Z</time>
      </trkpt>
      <trkpt lat="46.85968" lon="-2.1187">
        <ele>5.8</ele>
        <time>2020-06-04T10:28:34Z</time>
      </trkpt>
      <trkpt lat="46.85972" lon="-2.11874">
        <ele>5.8</ele>
        <time>2020-06-04T10:28:35Z</time>
      </trkpt>
      <trkpt lat="46.85976" lon="-2.11878">
        <ele>5.8</ele>
        <time>2020-06-04T10:28:36Z</time>
      </trkpt>
      <trkpt lat="46.85981" lon="-2.11883">
        <ele>5.8</ele>
        <time>2020-06-04T10:28:37Z</time>
      </trkpt>
      <trkpt lat="46.85986" lon="-2.11886">
        <ele>5.8</ele>
        <time>2020-06-04T10:28:38Z</time>
      </trkpt>
      <trkpt lat="46.85991" lon="-2.11891">
        <ele>5.8</ele>
        <time>2020-06-04T10:28:39Z</time>
      </trkpt>
      <trkpt lat="46.85995" lon="-2.11894">
        <ele>5.8</ele>
        <time>2020-06-04T10:28:40Z</time>
      </trkpt>
      <trkpt lat="46.85999" lon="-2.11895">
        <ele>5.8</ele>
        <time>2020-06-04T10:28:41Z</time>
      </trkpt>
      <trkpt lat="46.86003" lon="-2.11897">
        <ele>5.8</ele>
        <time>2020-06-04T10:28:42Z</time>
      </trkpt>
      <trkpt lat="46.86007" lon="-2.119">
        <ele>5.8</ele>
        <time>2020-06-04T10:28:43Z</time>
      </trkpt>
      <trkpt lat="46.8601" lon="-2.11903">
        <ele>5.7</ele>
        <time>2020-06-04T10:28:44Z</time>
      </trkpt>
      <trkpt lat="46.86014" lon="-2.11906">
        <ele>5.7</ele>
        <time>2020-06-04T10:28:45Z</time>
      </trkpt>
      <trkpt lat="46.86018" lon="-2.11911">
        <ele>5.7</ele>
        <time>2020-06-04T10:28:46Z</time>
      </trkpt>
      <trkpt lat="46.86021" lon="-2.11915">
        <ele>5.7</ele>
        <time>2020-06-04T10:28:47Z</time>
      </trkpt>
      <trkpt lat="46.86025" lon="-2.11921">
        <ele>5.6</ele>
        <time>2020-06-04T10:28:48Z</time>
      </trkpt>
      <trkpt lat="46.86028" lon="-2.11926">
        <ele>5.6</ele>
        <time>2020-06-04T10:28:49Z</time>
      </trkpt>
      <trkpt lat="46.86031" lon="-2.1193">
        <ele>5.6</ele>
        <time>2020-06-04T10:28:50Z</time>
      </trkpt>
      <trkpt lat="46.86035" lon="-2.11935">
        <ele>5.5</ele>
        <time>2020-06-04T10:28:51Z</time>
      </trkpt>
      <trkpt lat="46.86038" lon="-2.11939">
        <ele>5.5</ele>
        <time>2020-06-04T10:28:52Z</time>
      </trkpt>
      <trkpt lat="46.86041" lon="-2.11943">
        <ele>5.5</ele>
        <time>2020-06-04T10:28:53Z</time>
      </trkpt>
      <trkpt lat="46.86046" lon="-2.11948">
        <ele>5.4</ele>
        <time>2020-06-04T10:28:54Z</time>
      </trkpt>
      <trkpt lat="46.86051" lon="-2.11953">
        <ele>5.4</ele>
        <time>2020-06-04T10:28:55Z</time>
      </trkpt>
      <trkpt lat="46.86054" lon="-2.11957">
        <ele>5.4</ele>
        <time>2020-06-04T10:28:56Z</time>
      </trkpt>
      <trkpt lat="46.86057" lon="-2.11961">
        <ele>5.4</ele>
        <time>2020-06-04T10:28:57Z</time>
      </trkpt>
      <trkpt lat="46.8606" lon="-2.11965">
        <ele>5.4</ele>
        <time>2020-06-04T10:28:58Z</time>
      </trkpt>
      <trkpt lat="46.86062" lon="-2.11969">
        <ele>5.5</ele>
        <time>2020-06-04T10:28:59Z</time>
      </trkpt>
      <trkpt lat="46.86066" lon="-2.11972">
        <ele>5.5</ele>
        <time>2020-06-04T10:29:00Z</time>
      </trkpt>
      <trkpt lat="46.86071" lon="-2.11975">
        <ele>5.5</ele>
        <time>2020-06-04T10:29:01Z</time>
      </trkpt>
      <trkpt lat="46.86076" lon="-2.11979">
        <ele>5.5</ele>
        <time>2020-06-04T10:29:02Z</time>
      </trkpt>
      <trkpt lat="46.8608" lon="-2.11983">
        <ele>5.5</ele>
        <time>2020-06-04T10:29:03Z</time>
      </trkpt>
      <trkpt lat="46.86084" lon="-2.11987">
        <ele>5.5</ele>
        <time>2020-06-04T10:29:04Z</time>
      </trkpt>
      <trkpt lat="46.86087" lon="-2.11991">
        <ele>5.5</ele>
        <time>2020-06-04T10:29:05Z</time>
      </trkpt>
      <trkpt lat="46.8609" lon="-2.11995">
        <ele>5.5</ele>
        <time>2020-06-04T10:29:06Z</time>
      </trkpt>
      <trkpt lat="46.86093" lon="-2.12001">
        <ele>5.6</ele>
        <time>2020-06-04T10:29:07Z</time>
      </trkpt>
      <trkpt lat="46.86096" lon="-2.12006">
        <ele>5.6</ele>
        <time>2020-06-04T10:29:08Z</time>
      </trkpt>
      <trkpt lat="46.86098" lon="-2.1201">
        <ele>5.7</ele>
        <time>2020-06-04T10:29:09Z</time>
      </trkpt>
      <trkpt lat="46.86103" lon="-2.12015">
        <ele>5.7</ele>
        <time>2020-06-04T10:29:10Z</time>
      </trkpt>
      <trkpt lat="46.86107" lon="-2.12017">
        <ele>5.7</ele>
        <time>2020-06-04T10:29:11Z</time>
      </trkpt>
      <trkpt lat="46.86111" lon="-2.12017">
        <ele>5.8</ele>
        <time>2020-06-04T10:29:12Z</time>
      </trkpt>
      <trkpt lat="46.86114" lon="-2.1202">
        <ele>5.8</ele>
        <time>2020-06-04T10:29:13Z</time>
      </trkpt>
      <trkpt lat="46.86119" lon="-2.12021">
        <ele>5.9</ele>
        <time>2020-06-04T10:29:14Z</time>
      </trkpt>
      <trkpt lat="46.86123" lon="-2.12022">
        <ele>5.9</ele>
        <time>2020-06-04T10:29:15Z</time>
      </trkpt>
      <trkpt lat="46.86126" lon="-2.12023">
        <ele>5.9</ele>
        <time>2020-06-04T10:29:16Z</time>
      </trkpt>
      <trkpt lat="46.86131" lon="-2.12024">
        <ele>6</ele>
        <time>2020-06-04T10:29:17Z</time>
      </trkpt>
      <trkpt lat="46.86135" lon="-2.12025">
        <ele>6</ele>
        <time>2020-06-04T10:29:18Z</time>
      </trkpt>
      <trkpt lat="46.86139" lon="-2.12026">
        <ele>6</ele>
        <time>2020-06-04T10:29:19Z</time>
      </trkpt>
      <trkpt lat="46.86142" lon="-2.12027">
        <ele>6</ele>
        <time>2020-06-04T10:29:20Z</time>
      </trkpt>
      <trkpt lat="46.86145" lon="-2.12028">
        <ele>6.1</ele>
        <time>2020-06-04T10:29:21Z</time>
      </trkpt>
      <trkpt lat="46.86149" lon="-2.12029">
        <ele>6.1</ele>
        <time>2020-06-04T10:29:22Z</time>
      </trkpt>
      <trkpt lat="46.86153" lon="-2.1203">
        <ele>6.1</ele>
        <time>2020-06-04T10:29:23Z</time>
      </trkpt>
      <trkpt lat="46.86157" lon="-2.12031">
        <ele>6.1</ele>
        <time>2020-06-04T10:29:24Z</time>
      </trkpt>
      <trkpt lat="46.86165" lon="-2.12031">
        <ele>6.2</ele>
        <time>2020-06-04T10:29:25Z</time>
      </trkpt>
      <trkpt lat="46.86171" lon="-2.12033">
        <ele>6.2</ele>
        <time>2020-06-04T10:29:26Z</time>
      </trkpt>
      <trkpt lat="46.86177" lon="-2.12035">
        <ele>6.3</ele>
        <time>2020-06-04T10:29:27Z</time>
      </trkpt>
      <trkpt lat="46.86183" lon="-2.12036">
        <ele>6.5</ele>
        <time>2020-06-04T10:29:28Z</time>
      </trkpt>
      <trkpt lat="46.86188" lon="-2.12038">
        <ele>6.6</ele>
        <time>2020-06-04T10:29:29Z</time>
      </trkpt>
      <trkpt lat="46.86192" lon="-2.12039">
        <ele>6.8</ele>
        <time>2020-06-04T10:29:30Z</time>
      </trkpt>
      <trkpt lat="46.86196" lon="-2.12041">
        <ele>7</ele>
        <time>2020-06-04T10:29:31Z</time>
      </trkpt>
      <trkpt lat="46.86201" lon="-2.12042">
        <ele>7.1</ele>
        <time>2020-06-04T10:29:32Z</time>
      </trkpt>
      <trkpt lat="46.86206" lon="-2.12044">
        <ele>7.3</ele>
        <time>2020-06-04T10:29:33Z</time>
      </trkpt>
      <trkpt lat="46.86209" lon="-2.12047">
        <ele>7.5</ele>
        <time>2020-06-04T10:29:34Z</time>
      </trkpt>
      <trkpt lat="46.86212" lon="-2.12051">
        <ele>7.6</ele>
        <time>2020-06-04T10:29:35Z</time>
      </trkpt>
      <trkpt lat="46.86214" lon="-2.12055">
        <ele>7.7</ele>
        <time>2020-06-04T10:29:36Z</time>
      </trkpt>
      <trkpt lat="46.86217" lon="-2.12058">
        <ele>7.8</ele>
        <time>2020-06-04T10:29:37Z</time>
      </trkpt>
      <trkpt lat="46.86219" lon="-2.12062">
        <ele>7.8</ele>
        <time>2020-06-04T10:29:38Z</time>
      </trkpt>
      <trkpt lat="46.86221" lon="-2.12067">
        <ele>7.9</ele>
        <time>2020-06-04T10:29:39Z</time>
      </trkpt>
      <trkpt lat="46.86222" lon="-2.12071">
        <ele>7.9</ele>
        <time>2020-06-04T10:29:40Z</time>
      </trkpt>
      <trkpt lat="46.86223" lon="-2.12077">
        <ele>7.9</ele>
        <time>2020-06-04T10:29:41Z</time>
      </trkpt>
      <trkpt lat="46.86224" lon="-2.12082">
        <ele>7.9</ele>
        <time>2020-06-04T10:29:42Z</time>
      </trkpt>
      <trkpt lat="46.86224" lon="-2.12083">
        <ele>7.9</ele>
        <time>2020-06-04T10:29:43Z</time>
      </trkpt>
      <trkpt lat="46.86225" lon="-2.1209">
        <ele>7.8</ele>
        <time>2020-06-04T10:29:44Z</time>
      </trkpt>
      <trkpt lat="46.86227" lon="-2.12096">
        <ele>7.8</ele>
        <time>2020-06-04T10:29:45Z</time>
      </trkpt>
      <trkpt lat="46.86228" lon="-2.12102">
        <ele>7.7</ele>
        <time>2020-06-04T10:29:46Z</time>
      </trkpt>
      <trkpt lat="46.86228" lon="-2.12108">
        <ele>7.7</ele>
        <time>2020-06-04T10:29:47Z</time>
      </trkpt>
      <trkpt lat="46.86225" lon="-2.12116">
        <ele>7.6</ele>
        <time>2020-06-04T10:29:48Z</time>
      </trkpt>
      <trkpt lat="46.86224" lon="-2.12124">
        <ele>7.5</ele>
        <time>2020-06-04T10:29:49Z</time>
      </trkpt>
      <trkpt lat="46.86223" lon="-2.12133">
        <ele>7.4</ele>
        <time>2020-06-04T10:29:50Z</time>
      </trkpt>
      <trkpt lat="46.86221" lon="-2.12143">
        <ele>7.3</ele>
        <time>2020-06-04T10:29:51Z</time>
      </trkpt>
      <trkpt lat="46.8622" lon="-2.12148">
        <ele>7.2</ele>
        <time>2020-06-04T10:29:52Z</time>
      </trkpt>
      <trkpt lat="46.86217" lon="-2.12152">
        <ele>7.1</ele>
        <time>2020-06-04T10:29:53Z</time>
      </trkpt>
      <trkpt lat="46.86215" lon="-2.12156">
        <ele>7.1</ele>
        <time>2020-06-04T10:29:54Z</time>
      </trkpt>
      <trkpt lat="46.86214" lon="-2.1216">
        <ele>7</ele>
        <time>2020-06-04T10:29:55Z</time>
      </trkpt>
      <trkpt lat="46.86214" lon="-2.12165">
        <ele>7</ele>
        <time>2020-06-04T10:29:56Z</time>
      </trkpt>
      <trkpt lat="46.86212" lon="-2.12171">
        <ele>6.9</ele>
        <time>2020-06-04T10:29:57Z</time>
      </trkpt>
      <trkpt lat="46.86211" lon="-2.12177">
        <ele>6.8</ele>
        <time>2020-06-04T10:29:58Z</time>
      </trkpt>
      <trkpt lat="46.86211" lon="-2.12184">
        <ele>6.7</ele>
        <time>2020-06-04T10:29:59Z</time>
      </trkpt>
      <trkpt lat="46.86213" lon="-2.12189">
        <ele>6.6</ele>
        <time>2020-06-04T10:30:00Z</time>
      </trkpt>
      <trkpt lat="46.86215" lon="-2.12195">
        <ele>6.5</ele>
        <time>2020-06-04T10:30:01Z</time>
      </trkpt>
      <trkpt lat="46.86218" lon="-2.12199">
        <ele>6.5</ele>
        <time>2020-06-04T10:30:02Z</time>
      </trkpt>
      <trkpt lat="46.8622" lon="-2.12202">
        <ele>6.4</ele>
        <time>2020-06-04T10:30:03Z</time>
      </trkpt>
      <trkpt lat="46.86223" lon="-2.12206">
        <ele>6.4</ele>
        <time>2020-06-04T10:30:04Z</time>
      </trkpt>
      <trkpt lat="46.86227" lon="-2.12208">
        <ele>6.3</ele>
        <time>2020-06-04T10:30:05Z</time>
      </trkpt>
      <trkpt lat="46.8623" lon="-2.12211">
        <ele>6.3</ele>
        <time>2020-06-04T10:30:06Z</time>
      </trkpt>
      <trkpt lat="46.86234" lon="-2.12216">
        <ele>6.3</ele>
        <time>2020-06-04T10:30:07Z</time>
      </trkpt>
      <trkpt lat="46.86238" lon="-2.12221">
        <ele>6.3</ele>
        <time>2020-06-04T10:30:08Z</time>
      </trkpt>
      <trkpt lat="46.86242" lon="-2.12228">
        <ele>6.3</ele>
        <time>2020-06-04T10:30:09Z</time>
      </trkpt>
      <trkpt lat="46.86246" lon="-2.12234">
        <ele>6.3</ele>
        <time>2020-06-04T10:30:10Z</time>
      </trkpt>
      <trkpt lat="46.86249" lon="-2.12238">
        <ele>6.3</ele>
        <time>2020-06-04T10:30:11Z</time>
      </trkpt>
      <trkpt lat="46.86251" lon="-2.12242">
        <ele>6.3</ele>
        <time>2020-06-04T10:30:12Z</time>
      </trkpt>
      <trkpt lat="46.86254" lon="-2.12247">
        <ele>6.3</ele>
        <time>2020-06-04T10:30:13Z</time>
      </trkpt>
      <trkpt lat="46.86257" lon="-2.1225">
        <ele>6.3</ele>
        <time>2020-06-04T10:30:14Z</time>
      </trkpt>
      <trkpt lat="46.8626" lon="-2.12257">
        <ele>6.2</ele>
        <time>2020-06-04T10:30:15Z</time>
      </trkpt>
      <trkpt lat="46.86264" lon="-2.12265">
        <ele>6.2</ele>
        <time>2020-06-04T10:30:16Z</time>
      </trkpt>
      <trkpt lat="46.86266" lon="-2.12274">
        <ele>6.2</ele>
        <time>2020-06-04T10:30:17Z</time>
      </trkpt>
      <trkpt lat="46.86268" lon="-2.12281">
        <ele>6.1</ele>
        <time>2020-06-04T10:30:18Z</time>
      </trkpt>
      <trkpt lat="46.86269" lon="-2.12288">
        <ele>6.1</ele>
        <time>2020-06-04T10:30:19Z</time>
      </trkpt>
      <trkpt lat="46.86271" lon="-2.12295">
        <ele>6.1</ele>
        <time>2020-06-04T10:30:20Z</time>
      </trkpt>
      <trkpt lat="46.86272" lon="-2.12302">
        <ele>6</ele>
        <time>2020-06-04T10:30:21Z</time>
      </trkpt>
      <trkpt lat="46.86274" lon="-2.12309">
        <ele>6</ele>
        <time>2020-06-04T10:30:22Z</time>
      </trkpt>
      <trkpt lat="46.86276" lon="-2.12317">
        <ele>6</ele>
        <time>2020-06-04T10:30:23Z</time>
      </trkpt>
      <trkpt lat="46.86277" lon="-2.12323">
        <ele>5.9</ele>
        <time>2020-06-04T10:30:24Z</time>
      </trkpt>
      <trkpt lat="46.8628" lon="-2.1233">
        <ele>5.9</ele>
        <time>2020-06-04T10:30:25Z</time>
      </trkpt>
      <trkpt lat="46.86283" lon="-2.12337">
        <ele>5.9</ele>
        <time>2020-06-04T10:30:26Z</time>
      </trkpt>
      <trkpt lat="46.86286" lon="-2.12345">
        <ele>6</ele>
        <time>2020-06-04T10:30:27Z</time>
      </trkpt>
      <trkpt lat="46.86288" lon="-2.12352">
        <ele>6</ele>
        <time>2020-06-04T10:30:28Z</time>
      </trkpt>
      <trkpt lat="46.8629" lon="-2.12359">
        <ele>6.1</ele>
        <time>2020-06-04T10:30:29Z</time>
      </trkpt>
      <trkpt lat="46.86291" lon="-2.12365">
        <ele>6.1</ele>
        <time>2020-06-04T10:30:30Z</time>
      </trkpt>
      <trkpt lat="46.86294" lon="-2.12372">
        <ele>6.2</ele>
        <time>2020-06-04T10:30:31Z</time>
      </trkpt>
      <trkpt lat="46.86297" lon="-2.12378">
        <ele>6.3</ele>
        <time>2020-06-04T10:30:32Z</time>
      </trkpt>
      <trkpt lat="46.86299" lon="-2.12383">
        <ele>6.4</ele>
        <time>2020-06-04T10:30:33Z</time>
      </trkpt>
      <trkpt lat="46.86301" lon="-2.12387">
        <ele>6.5</ele>
        <time>2020-06-04T10:30:34Z</time>
      </trkpt>
      <trkpt lat="46.86302" lon="-2.12391">
        <ele>6.5</ele>
        <time>2020-06-04T10:30:35Z</time>
      </trkpt>
      <trkpt lat="46.86304" lon="-2.12394">
        <ele>6.6</ele>
        <time>2020-06-04T10:30:36Z</time>
      </trkpt>
      <trkpt lat="46.86305" lon="-2.12398">
        <ele>6.6</ele>
        <time>2020-06-04T10:30:37Z</time>
      </trkpt>
      <trkpt lat="46.86308" lon="-2.12402">
        <ele>6.7</ele>
        <time>2020-06-04T10:30:38Z</time>
      </trkpt>
      <trkpt lat="46.86311" lon="-2.12406">
        <ele>6.8</ele>
        <time>2020-06-04T10:30:39Z</time>
      </trkpt>
      <trkpt lat="46.86314" lon="-2.12411">
        <ele>6.8</ele>
        <time>2020-06-04T10:30:40Z</time>
      </trkpt>
      <trkpt lat="46.86318" lon="-2.12417">
        <ele>6.8</ele>
        <time>2020-06-04T10:30:41Z</time>
      </trkpt>
      <trkpt lat="46.86321" lon="-2.12423">
        <ele>6.8</ele>
        <time>2020-06-04T10:30:42Z</time>
      </trkpt>
      <trkpt lat="46.86323" lon="-2.12429">
        <ele>6.7</ele>
        <time>2020-06-04T10:30:43Z</time>
      </trkpt>
      <trkpt lat="46.86326" lon="-2.12435">
        <ele>6.7</ele>
        <time>2020-06-04T10:30:44Z</time>
      </trkpt>
      <trkpt lat="46.86328" lon="-2.12442">
        <ele>6.6</ele>
        <time>2020-06-04T10:30:45Z</time>
      </trkpt>
      <trkpt lat="46.8633" lon="-2.12447">
        <ele>6.5</ele>
        <time>2020-06-04T10:30:46Z</time>
      </trkpt>
      <trkpt lat="46.86332" lon="-2.12453">
        <ele>6.4</ele>
        <time>2020-06-04T10:30:47Z</time>
      </trkpt>
      <trkpt lat="46.86335" lon="-2.1246">
        <ele>6.2</ele>
        <time>2020-06-04T10:30:48Z</time>
      </trkpt>
      <trkpt lat="46.86338" lon="-2.12466">
        <ele>6.1</ele>
        <time>2020-06-04T10:30:49Z</time>
      </trkpt>
      <trkpt lat="46.8634" lon="-2.12471">
        <ele>5.9</ele>
        <time>2020-06-04T10:30:50Z</time>
      </trkpt>
      <trkpt lat="46.86343" lon="-2.12476">
        <ele>5.8</ele>
        <time>2020-06-04T10:30:51Z</time>
      </trkpt>
      <trkpt lat="46.86345" lon="-2.12482">
        <ele>5.7</ele>
        <time>2020-06-04T10:30:52Z</time>
      </trkpt>
      <trkpt lat="46.86348" lon="-2.12489">
        <ele>5.6</ele>
        <time>2020-06-04T10:30:53Z</time>
      </trkpt>
      <trkpt lat="46.86351" lon="-2.12498">
        <ele>5.6</ele>
        <time>2020-06-04T10:30:54Z</time>
      </trkpt>
      <trkpt lat="46.86353" lon="-2.12503">
        <ele>5.6</ele>
        <time>2020-06-04T10:30:55Z</time>
      </trkpt>
      <trkpt lat="46.86355" lon="-2.12505">
        <ele>5.5</ele>
        <time>2020-06-04T10:30:56Z</time>
      </trkpt>
      <trkpt lat="46.86359" lon="-2.12505">
        <ele>5.5</ele>
        <time>2020-06-04T10:30:57Z</time>
      </trkpt>
      <trkpt lat="46.86361" lon="-2.12503">
        <ele>5.5</ele>
        <time>2020-06-04T10:30:58Z</time>
      </trkpt>
      <trkpt lat="46.86365" lon="-2.12502">
        <ele>5.5</ele>
        <time>2020-06-04T10:30:59Z</time>
      </trkpt>
      <trkpt lat="46.86366" lon="-2.12501">
        <ele>5.5</ele>
        <time>2020-06-04T10:31:00Z</time>
      </trkpt>
      <trkpt lat="46.86369" lon="-2.12501">
        <ele>5.4</ele>
        <time>2020-06-04T10:31:01Z</time>
      </trkpt>
      <trkpt lat="46.86371" lon="-2.12502">
        <ele>5.4</ele>
        <time>2020-06-04T10:31:02Z</time>
      </trkpt>
      <trkpt lat="46.86372" lon="-2.12502">
        <ele>5.4</ele>
        <time>2020-06-04T10:31:03Z</time>
      </trkpt>
      <trkpt lat="46.86376" lon="-2.12502">
        <ele>5.4</ele>
        <time>2020-06-04T10:31:04Z</time>
      </trkpt>
      <trkpt lat="46.86377" lon="-2.12502">
        <ele>5.4</ele>
        <time>2020-06-04T10:31:05Z</time>
      </trkpt>
      <trkpt lat="46.86381" lon="-2.12501">
        <ele>5.4</ele>
        <time>2020-06-04T10:31:06Z</time>
      </trkpt>
      <trkpt lat="46.86382" lon="-2.125">
        <ele>5.4</ele>
        <time>2020-06-04T10:31:07Z</time>
      </trkpt>
      <trkpt lat="46.86385" lon="-2.12498">
        <ele>5.3</ele>
        <time>2020-06-04T10:31:08Z</time>
      </trkpt>
      <trkpt lat="46.86388" lon="-2.12495">
        <ele>5.3</ele>
        <time>2020-06-04T10:31:09Z</time>
      </trkpt>
      <trkpt lat="46.86388" lon="-2.12495">
        <ele>5.3</ele>
        <time>2020-06-04T10:31:10Z</time>
      </trkpt>
      <trkpt lat="46.86392" lon="-2.12495">
        <ele>5.3</ele>
        <time>2020-06-04T10:31:11Z</time>
      </trkpt>
      <trkpt lat="46.86394" lon="-2.12495">
        <ele>5.3</ele>
        <time>2020-06-04T10:31:12Z</time>
      </trkpt>
      <trkpt lat="46.86398" lon="-2.12494">
        <ele>5.3</ele>
        <time>2020-06-04T10:31:13Z</time>
      </trkpt>
      <trkpt lat="46.86402" lon="-2.12494">
        <ele>5.2</ele>
        <time>2020-06-04T10:31:14Z</time>
      </trkpt>
      <trkpt lat="46.86407" lon="-2.12493">
        <ele>5.2</ele>
        <time>2020-06-04T10:31:15Z</time>
      </trkpt>
      <trkpt lat="46.8641" lon="-2.12494">
        <ele>5.2</ele>
        <time>2020-06-04T10:31:16Z</time>
      </trkpt>
      <trkpt lat="46.86414" lon="-2.12496">
        <ele>5.2</ele>
        <time>2020-06-04T10:31:17Z</time>
      </trkpt>
      <trkpt lat="46.86417" lon="-2.12496">
        <ele>5.2</ele>
        <time>2020-06-04T10:31:18Z</time>
      </trkpt>
      <trkpt lat="46.86421" lon="-2.12496">
        <ele>5.2</ele>
        <time>2020-06-04T10:31:19Z</time>
      </trkpt>
      <trkpt lat="46.86424" lon="-2.12496">
        <ele>5.2</ele>
        <time>2020-06-04T10:31:20Z</time>
      </trkpt>
      <trkpt lat="46.86428" lon="-2.12498">
        <ele>5.2</ele>
        <time>2020-06-04T10:31:21Z</time>
      </trkpt>
      <trkpt lat="46.86432" lon="-2.125">
        <ele>5.2</ele>
        <time>2020-06-04T10:31:22Z</time>
      </trkpt>
      <trkpt lat="46.86436" lon="-2.12502">
        <ele>5.2</ele>
        <time>2020-06-04T10:31:23Z</time>
      </trkpt>
      <trkpt lat="46.8644" lon="-2.12503">
        <ele>5.2</ele>
        <time>2020-06-04T10:31:24Z</time>
      </trkpt>
      <trkpt lat="46.86445" lon="-2.12503">
        <ele>5.2</ele>
        <time>2020-06-04T10:31:25Z</time>
      </trkpt>
      <trkpt lat="46.8645" lon="-2.12502">
        <ele>5.2</ele>
        <time>2020-06-04T10:31:26Z</time>
      </trkpt>
      <trkpt lat="46.86453" lon="-2.12501">
        <ele>5.2</ele>
        <time>2020-06-04T10:31:27Z</time>
      </trkpt>
      <trkpt lat="46.86458" lon="-2.12497">
        <ele>5.3</ele>
        <time>2020-06-04T10:31:28Z</time>
      </trkpt>
      <trkpt lat="46.86461" lon="-2.12492">
        <ele>5.3</ele>
        <time>2020-06-04T10:31:29Z</time>
      </trkpt>
      <trkpt lat="46.86466" lon="-2.12485">
        <ele>5.3</ele>
        <time>2020-06-04T10:31:30Z</time>
      </trkpt>
      <trkpt lat="46.8647" lon="-2.1248">
        <ele>5.3</ele>
        <time>2020-06-04T10:31:31Z</time>
      </trkpt>
      <trkpt lat="46.86474" lon="-2.12472">
        <ele>5.3</ele>
        <time>2020-06-04T10:31:32Z</time>
      </trkpt>
      <trkpt lat="46.86477" lon="-2.12467">
        <ele>5.4</ele>
        <time>2020-06-04T10:31:33Z</time>
      </trkpt>
      <trkpt lat="46.86482" lon="-2.12461">
        <ele>5.4</ele>
        <time>2020-06-04T10:31:34Z</time>
      </trkpt>
      <trkpt lat="46.86485" lon="-2.12457">
        <ele>5.4</ele>
        <time>2020-06-04T10:31:35Z</time>
      </trkpt>
      <trkpt lat="46.8649" lon="-2.12453">
        <ele>5.4</ele>
        <time>2020-06-04T10:31:36Z</time>
      </trkpt>
      <trkpt lat="46.86494" lon="-2.1245">
        <ele>5.4</ele>
        <time>2020-06-04T10:31:37Z</time>
      </trkpt>
      <trkpt lat="46.86498" lon="-2.1245">
        <ele>5.5</ele>
        <time>2020-06-04T10:31:38Z</time>
      </trkpt>
      <trkpt lat="46.86503" lon="-2.1245">
        <ele>5.5</ele>
        <time>2020-06-04T10:31:39Z</time>
      </trkpt>
      <trkpt lat="46.86507" lon="-2.1245">
        <ele>5.6</ele>
        <time>2020-06-04T10:31:40Z</time>
      </trkpt>
      <trkpt lat="46.86511" lon="-2.1245">
        <ele>5.6</ele>
        <time>2020-06-04T10:31:41Z</time>
      </trkpt>
      <trkpt lat="46.86515" lon="-2.12451">
        <ele>5.7</ele>
        <time>2020-06-04T10:31:42Z</time>
      </trkpt>
      <trkpt lat="46.86519" lon="-2.12452">
        <ele>5.7</ele>
        <time>2020-06-04T10:31:43Z</time>
      </trkpt>
      <trkpt lat="46.86522" lon="-2.12452">
        <ele>5.8</ele>
        <time>2020-06-04T10:31:44Z</time>
      </trkpt>
      <trkpt lat="46.86525" lon="-2.12452">
        <ele>5.8</ele>
        <time>2020-06-04T10:31:45Z</time>
      </trkpt>
      <trkpt lat="46.86529" lon="-2.1245">
        <ele>5.9</ele>
        <time>2020-06-04T10:31:46Z</time>
      </trkpt>
      <trkpt lat="46.86532" lon="-2.12448">
        <ele>5.9</ele>
        <time>2020-06-04T10:31:47Z</time>
      </trkpt>
      <trkpt lat="46.86536" lon="-2.12446">
        <ele>5.9</ele>
        <time>2020-06-04T10:31:48Z</time>
      </trkpt>
      <trkpt lat="46.86539" lon="-2.12444">
        <ele>6</ele>
        <time>2020-06-04T10:31:49Z</time>
      </trkpt>
      <trkpt lat="46.86543" lon="-2.12442">
        <ele>6</ele>
        <time>2020-06-04T10:31:50Z</time>
      </trkpt>
      <trkpt lat="46.86547" lon="-2.12438">
        <ele>6</ele>
        <time>2020-06-04T10:31:51Z</time>
      </trkpt>
      <trkpt lat="46.86552" lon="-2.12435">
        <ele>6.1</ele>
        <time>2020-06-04T10:31:52Z</time>
      </trkpt>
      <trkpt lat="46.86556" lon="-2.12432">
        <ele>6.1</ele>
        <time>2020-06-04T10:31:53Z</time>
      </trkpt>
      <trkpt lat="46.8656" lon="-2.12429">
        <ele>6.2</ele>
        <time>2020-06-04T10:31:54Z</time>
      </trkpt>
      <trkpt lat="46.86564" lon="-2.12426">
        <ele>6.3</ele>
        <time>2020-06-04T10:31:55Z</time>
      </trkpt>
      <trkpt lat="46.86568" lon="-2.12423">
        <ele>6.4</ele>
        <time>2020-06-04T10:31:56Z</time>
      </trkpt>
      <trkpt lat="46.86573" lon="-2.12421">
        <ele>6.5</ele>
        <time>2020-06-04T10:31:57Z</time>
      </trkpt>
      <trkpt lat="46.86577" lon="-2.12419">
        <ele>6.6</ele>
        <time>2020-06-04T10:31:58Z</time>
      </trkpt>
      <trkpt lat="46.86581" lon="-2.12416">
        <ele>6.7</ele>
        <time>2020-06-04T10:31:59Z</time>
      </trkpt>
      <trkpt lat="46.86584" lon="-2.12413">
        <ele>6.8</ele>
        <time>2020-06-04T10:32:00Z</time>
      </trkpt>
      <trkpt lat="46.86588" lon="-2.12412">
        <ele>6.8</ele>
        <time>2020-06-04T10:32:01Z</time>
      </trkpt>
      <trkpt lat="46.86591" lon="-2.1241">
        <ele>6.9</ele>
        <time>2020-06-04T10:32:02Z</time>
      </trkpt>
      <trkpt lat="46.86595" lon="-2.12411">
        <ele>7</ele>
        <time>2020-06-04T10:32:03Z</time>
      </trkpt>
      <trkpt lat="46.86598" lon="-2.12409">
        <ele>7</ele>
        <time>2020-06-04T10:32:04Z</time>
      </trkpt>
      <trkpt lat="46.866" lon="-2.12408">
        <ele>7</ele>
        <time>2020-06-04T10:32:05Z</time>
      </trkpt>
      <trkpt lat="46.86603" lon="-2.12405">
        <ele>7.1</ele>
        <time>2020-06-04T10:32:06Z</time>
      </trkpt>
      <trkpt lat="46.86605" lon="-2.12405">
        <ele>7.1</ele>
        <time>2020-06-04T10:32:07Z</time>
      </trkpt>
      <trkpt lat="46.86608" lon="-2.12405">
        <ele>7.1</ele>
        <time>2020-06-04T10:32:08Z</time>
      </trkpt>
      <trkpt lat="46.86613" lon="-2.12403">
        <ele>7</ele>
        <time>2020-06-04T10:32:09Z</time>
      </trkpt>
      <trkpt lat="46.86616" lon="-2.124">
        <ele>7</ele>
        <time>2020-06-04T10:32:10Z</time>
      </trkpt>
      <trkpt lat="46.8662" lon="-2.12397">
        <ele>7</ele>
        <time>2020-06-04T10:32:11Z</time>
      </trkpt>
      <trkpt lat="46.86624" lon="-2.12394">
        <ele>6.9</ele>
        <time>2020-06-04T10:32:12Z</time>
      </trkpt>
      <trkpt lat="46.86629" lon="-2.12391">
        <ele>6.8</ele>
        <time>2020-06-04T10:32:13Z</time>
      </trkpt>
      <trkpt lat="46.86634" lon="-2.12388">
        <ele>6.7</ele>
        <time>2020-06-04T10:32:14Z</time>
      </trkpt>
      <trkpt lat="46.8664" lon="-2.12386">
        <ele>6.6</ele>
        <time>2020-06-04T10:32:15Z</time>
      </trkpt>
      <trkpt lat="46.86646" lon="-2.12386">
        <ele>6.4</ele>
        <time>2020-06-04T10:32:16Z</time>
      </trkpt>
      <trkpt lat="46.86652" lon="-2.12385">
        <ele>6.3</ele>
        <time>2020-06-04T10:32:17Z</time>
      </trkpt>
      <trkpt lat="46.86658" lon="-2.12387">
        <ele>6.2</ele>
        <time>2020-06-04T10:32:18Z</time>
      </trkpt>
      <trkpt lat="46.86663" lon="-2.12392">
        <ele>6</ele>
        <time>2020-06-04T10:32:19Z</time>
      </trkpt>
      <trkpt lat="46.86668" lon="-2.12399">
        <ele>5.9</ele>
        <time>2020-06-04T10:32:20Z</time>
      </trkpt>
      <trkpt lat="46.86673" lon="-2.12404">
        <ele>5.8</ele>
        <time>2020-06-04T10:32:21Z</time>
      </trkpt>
      <trkpt lat="46.86678" lon="-2.12408">
        <ele>5.8</ele>
        <time>2020-06-04T10:32:22Z</time>
      </trkpt>
      <trkpt lat="46.86683" lon="-2.12411">
        <ele>5.8</ele>
        <time>2020-06-04T10:32:23Z</time>
      </trkpt>
      <trkpt lat="46.86687" lon="-2.12414">
        <ele>5.7</ele>
        <time>2020-06-04T10:32:24Z</time>
      </trkpt>
      <trkpt lat="46.86691" lon="-2.12418">
        <ele>5.7</ele>
        <time>2020-06-04T10:32:25Z</time>
      </trkpt>
      <trkpt lat="46.86694" lon="-2.1242">
        <ele>5.7</ele>
        <time>2020-06-04T10:32:26Z</time>
      </trkpt>
      <trkpt lat="46.86697" lon="-2.12423">
        <ele>5.7</ele>
        <time>2020-06-04T10:32:27Z</time>
      </trkpt>
      <trkpt lat="46.86701" lon="-2.12427">
        <ele>5.7</ele>
        <time>2020-06-04T10:32:28Z</time>
      </trkpt>
      <trkpt lat="46.86705" lon="-2.12432">
        <ele>5.7</ele>
        <time>2020-06-04T10:32:29Z</time>
      </trkpt>
      <trkpt lat="46.8671" lon="-2.12436">
        <ele>5.7</ele>
        <time>2020-06-04T10:32:30Z</time>
      </trkpt>
      <trkpt lat="46.86715" lon="-2.1244">
        <ele>5.7</ele>
        <time>2020-06-04T10:32:31Z</time>
      </trkpt>
      <trkpt lat="46.86719" lon="-2.12445">
        <ele>5.7</ele>
        <time>2020-06-04T10:32:32Z</time>
      </trkpt>
      <trkpt lat="46.86724" lon="-2.1245">
        <ele>5.7</ele>
        <time>2020-06-04T10:32:33Z</time>
      </trkpt>
      <trkpt lat="46.86727" lon="-2.12454">
        <ele>5.7</ele>
        <time>2020-06-04T10:32:34Z</time>
      </trkpt>
      <trkpt lat="46.86731" lon="-2.12457">
        <ele>5.7</ele>
        <time>2020-06-04T10:32:35Z</time>
      </trkpt>
      <trkpt lat="46.86735" lon="-2.1246">
        <ele>5.7</ele>
        <time>2020-06-04T10:32:37Z</time>
      </trkpt>
      <trkpt lat="46.86739" lon="-2.12463">
        <ele>5.7</ele>
        <time>2020-06-04T10:32:38Z</time>
      </trkpt>
      <trkpt lat="46.86743" lon="-2.12467">
        <ele>5.7</ele>
        <time>2020-06-04T10:32:39Z</time>
      </trkpt>
      <trkpt lat="46.86748" lon="-2.12469">
        <ele>5.8</ele>
        <time>2020-06-04T10:32:40Z</time>
      </trkpt>
      <trkpt lat="46.86752" lon="-2.12471">
        <ele>5.8</ele>
        <time>2020-06-04T10:32:41Z</time>
      </trkpt>
      <trkpt lat="46.86757" lon="-2.12473">
        <ele>5.8</ele>
        <time>2020-06-04T10:32:42Z</time>
      </trkpt>
      <trkpt lat="46.86761" lon="-2.12475">
        <ele>5.8</ele>
        <time>2020-06-04T10:32:43Z</time>
      </trkpt>
      <trkpt lat="46.86766" lon="-2.12477">
        <ele>5.8</ele>
        <time>2020-06-04T10:32:44Z</time>
      </trkpt>
      <trkpt lat="46.86771" lon="-2.12478">
        <ele>5.8</ele>
        <time>2020-06-04T10:32:45Z</time>
      </trkpt>
      <trkpt lat="46.86778" lon="-2.12478">
        <ele>5.8</ele>
        <time>2020-06-04T10:32:46Z</time>
      </trkpt>
      <trkpt lat="46.86783" lon="-2.1248">
        <ele>5.8</ele>
        <time>2020-06-04T10:32:47Z</time>
      </trkpt>
      <trkpt lat="46.86787" lon="-2.12483">
        <ele>5.8</ele>
        <time>2020-06-04T10:32:48Z</time>
      </trkpt>
      <trkpt lat="46.86792" lon="-2.12484">
        <ele>5.8</ele>
        <time>2020-06-04T10:32:49Z</time>
      </trkpt>
      <trkpt lat="46.86795" lon="-2.12485">
        <ele>5.8</ele>
        <time>2020-06-04T10:32:50Z</time>
      </trkpt>
      <trkpt lat="46.868" lon="-2.12487">
        <ele>5.8</ele>
        <time>2020-06-04T10:32:51Z</time>
      </trkpt>
      <trkpt lat="46.86808" lon="-2.12487">
        <ele>5.8</ele>
        <time>2020-06-04T10:32:52Z</time>
      </trkpt>
      <trkpt lat="46.86812" lon="-2.12487">
        <ele>5.8</ele>
        <time>2020-06-04T10:32:53Z</time>
      </trkpt>
      <trkpt lat="46.86818" lon="-2.12485">
        <ele>5.8</ele>
        <time>2020-06-04T10:32:54Z</time>
      </trkpt>
      <trkpt lat="46.86823" lon="-2.12484">
        <ele>5.8</ele>
        <time>2020-06-04T10:32:55Z</time>
      </trkpt>
      <trkpt lat="46.86828" lon="-2.12482">
        <ele>5.8</ele>
        <time>2020-06-04T10:32:56Z</time>
      </trkpt>
      <trkpt lat="46.86833" lon="-2.1248">
        <ele>5.8</ele>
        <time>2020-06-04T10:32:57Z</time>
      </trkpt>
      <trkpt lat="46.86838" lon="-2.12478">
        <ele>5.8</ele>
        <time>2020-06-04T10:32:58Z</time>
      </trkpt>
      <trkpt lat="46.86844" lon="-2.12476">
        <ele>5.8</ele>
        <time>2020-06-04T10:32:59Z</time>
      </trkpt>
      <trkpt lat="46.86849" lon="-2.12475">
        <ele>5.8</ele>
        <time>2020-06-04T10:33:00Z</time>
      </trkpt>
      <trkpt lat="46.86854" lon="-2.12475">
        <ele>5.8</ele>
        <time>2020-06-04T10:33:01Z</time>
      </trkpt>
      <trkpt lat="46.86859" lon="-2.12478">
        <ele>5.8</ele>
        <time>2020-06-04T10:33:02Z</time>
      </trkpt>
      <trkpt lat="46.86862" lon="-2.1248">
        <ele>5.8</ele>
        <time>2020-06-04T10:33:03Z</time>
      </trkpt>
      <trkpt lat="46.86866" lon="-2.12481">
        <ele>5.9</ele>
        <time>2020-06-04T10:33:04Z</time>
      </trkpt>
      <trkpt lat="46.86869" lon="-2.12482">
        <ele>5.9</ele>
        <time>2020-06-04T10:33:05Z</time>
      </trkpt>
      <trkpt lat="46.86874" lon="-2.12482">
        <ele>5.9</ele>
        <time>2020-06-04T10:33:06Z</time>
      </trkpt>
      <trkpt lat="46.86878" lon="-2.12484">
        <ele>5.9</ele>
        <time>2020-06-04T10:33:07Z</time>
      </trkpt>
      <trkpt lat="46.86883" lon="-2.12486">
        <ele>5.9</ele>
        <time>2020-06-04T10:33:08Z</time>
      </trkpt>
      <trkpt lat="46.86887" lon="-2.12487">
        <ele>6</ele>
        <time>2020-06-04T10:33:09Z</time>
      </trkpt>
      <trkpt lat="46.8689" lon="-2.12488">
        <ele>6</ele>
        <time>2020-06-04T10:33:10Z</time>
      </trkpt>
      <trkpt lat="46.86895" lon="-2.12487">
        <ele>5.9</ele>
        <time>2020-06-04T10:33:11Z</time>
      </trkpt>
      <trkpt lat="46.86899" lon="-2.12486">
        <ele>5.9</ele>
        <time>2020-06-04T10:33:12Z</time>
      </trkpt>
      <trkpt lat="46.86903" lon="-2.12485">
        <ele>5.9</ele>
        <time>2020-06-04T10:33:13Z</time>
      </trkpt>
      <trkpt lat="46.86907" lon="-2.12484">
        <ele>5.9</ele>
        <time>2020-06-04T10:33:14Z</time>
      </trkpt>
      <trkpt lat="46.86911" lon="-2.12482">
        <ele>5.9</ele>
        <time>2020-06-04T10:33:15Z</time>
      </trkpt>
      <trkpt lat="46.86916" lon="-2.12481">
        <ele>5.9</ele>
        <time>2020-06-04T10:33:16Z</time>
      </trkpt>
      <trkpt lat="46.86922" lon="-2.12479">
        <ele>5.9</ele>
        <time>2020-06-04T10:33:17Z</time>
      </trkpt>
      <trkpt lat="46.86928" lon="-2.12476">
        <ele>5.8</ele>
        <time>2020-06-04T10:33:18Z</time>
      </trkpt>
      <trkpt lat="46.86933" lon="-2.12473">
        <ele>5.8</ele>
        <time>2020-06-04T10:33:19Z</time>
      </trkpt>
      <trkpt lat="46.86939" lon="-2.12471">
        <ele>5.8</ele>
        <time>2020-06-04T10:33:20Z</time>
      </trkpt>
      <trkpt lat="46.86943" lon="-2.1247">
        <ele>5.8</ele>
        <time>2020-06-04T10:33:21Z</time>
      </trkpt>
      <trkpt lat="46.86948" lon="-2.12466">
        <ele>5.8</ele>
        <time>2020-06-04T10:33:22Z</time>
      </trkpt>
      <trkpt lat="46.86952" lon="-2.12462">
        <ele>5.8</ele>
        <time>2020-06-04T10:33:23Z</time>
      </trkpt>
      <trkpt lat="46.86955" lon="-2.12459">
        <ele>5.8</ele>
        <time>2020-06-04T10:33:24Z</time>
      </trkpt>
      <trkpt lat="46.86958" lon="-2.12455">
        <ele>5.8</ele>
        <time>2020-06-04T10:33:25Z</time>
      </trkpt>
      <trkpt lat="46.86961" lon="-2.12451">
        <ele>5.8</ele>
        <time>2020-06-04T10:33:26Z</time>
      </trkpt>
      <trkpt lat="46.86962" lon="-2.12451">
        <ele>5.8</ele>
        <time>2020-06-04T10:33:27Z</time>
      </trkpt>
      <trkpt lat="46.86965" lon="-2.12447">
        <ele>5.8</ele>
        <time>2020-06-04T10:33:28Z</time>
      </trkpt>
      <trkpt lat="46.86966" lon="-2.12446">
        <ele>5.8</ele>
        <time>2020-06-04T10:33:29Z</time>
      </trkpt>
      <trkpt lat="46.86968" lon="-2.12442">
        <ele>5.8</ele>
        <time>2020-06-04T10:33:30Z</time>
      </trkpt>
      <trkpt lat="46.8697" lon="-2.12439">
        <ele>5.8</ele>
        <time>2020-06-04T10:33:31Z</time>
      </trkpt>
      <trkpt lat="46.86971" lon="-2.12435">
        <ele>5.8</ele>
        <time>2020-06-04T10:33:32Z</time>
      </trkpt>
      <trkpt lat="46.86973" lon="-2.1243">
        <ele>5.9</ele>
        <time>2020-06-04T10:33:33Z</time>
      </trkpt>
      <trkpt lat="46.86976" lon="-2.12428">
        <ele>5.9</ele>
        <time>2020-06-04T10:33:34Z</time>
      </trkpt>
      <trkpt lat="46.86978" lon="-2.12425">
        <ele>5.9</ele>
        <time>2020-06-04T10:33:35Z</time>
      </trkpt>
      <trkpt lat="46.86982" lon="-2.12422">
        <ele>5.9</ele>
        <time>2020-06-04T10:33:36Z</time>
      </trkpt>
      <trkpt lat="46.86986" lon="-2.1242">
        <ele>5.9</ele>
        <time>2020-06-04T10:33:37Z</time>
      </trkpt>
      <trkpt lat="46.86989" lon="-2.12417">
        <ele>5.9</ele>
        <time>2020-06-04T10:33:38Z</time>
      </trkpt>
      <trkpt lat="46.86991" lon="-2.12414">
        <ele>5.9</ele>
        <time>2020-06-04T10:33:39Z</time>
      </trkpt>
      <trkpt lat="46.86994" lon="-2.12412">
        <ele>5.9</ele>
        <time>2020-06-04T10:33:40Z</time>
      </trkpt>
      <trkpt lat="46.86997" lon="-2.12409">
        <ele>5.9</ele>
        <time>2020-06-04T10:33:41Z</time>
      </trkpt>
      <trkpt lat="46.87" lon="-2.12406">
        <ele>5.8</ele>
        <time>2020-06-04T10:33:42Z</time>
      </trkpt>
      <trkpt lat="46.87004" lon="-2.12401">
        <ele>5.8</ele>
        <time>2020-06-04T10:33:43Z</time>
      </trkpt>
      <trkpt lat="46.87009" lon="-2.12396">
        <ele>5.7</ele>
        <time>2020-06-04T10:33:44Z</time>
      </trkpt>
      <trkpt lat="46.87014" lon="-2.12391">
        <ele>5.6</ele>
        <time>2020-06-04T10:33:45Z</time>
      </trkpt>
      <trkpt lat="46.87019" lon="-2.12386">
        <ele>5.6</ele>
        <time>2020-06-04T10:33:46Z</time>
      </trkpt>
      <trkpt lat="46.87024" lon="-2.12383">
        <ele>5.5</ele>
        <time>2020-06-04T10:33:47Z</time>
      </trkpt>
      <trkpt lat="46.87027" lon="-2.12381">
        <ele>5.4</ele>
        <time>2020-06-04T10:33:48Z</time>
      </trkpt>
      <trkpt lat="46.87031" lon="-2.12379">
        <ele>5.4</ele>
        <time>2020-06-04T10:33:49Z</time>
      </trkpt>
      <trkpt lat="46.87035" lon="-2.12375">
        <ele>5.4</ele>
        <time>2020-06-04T10:33:50Z</time>
      </trkpt>
      <trkpt lat="46.87039" lon="-2.12374">
        <ele>5.3</ele>
        <time>2020-06-04T10:33:51Z</time>
      </trkpt>
      <trkpt lat="46.87044" lon="-2.12371">
        <ele>5.2</ele>
        <time>2020-06-04T10:33:52Z</time>
      </trkpt>
      <trkpt lat="46.87048" lon="-2.12368">
        <ele>5.2</ele>
        <time>2020-06-04T10:33:53Z</time>
      </trkpt>
      <trkpt lat="46.87053" lon="-2.12365">
        <ele>5.2</ele>
        <time>2020-06-04T10:33:54Z</time>
      </trkpt>
      <trkpt lat="46.87059" lon="-2.12362">
        <ele>5.1</ele>
        <time>2020-06-04T10:33:55Z</time>
      </trkpt>
      <trkpt lat="46.87064" lon="-2.1236">
        <ele>5.1</ele>
        <time>2020-06-04T10:33:56Z</time>
      </trkpt>
      <trkpt lat="46.87068" lon="-2.12356">
        <ele>5.1</ele>
        <time>2020-06-04T10:33:57Z</time>
      </trkpt>
      <trkpt lat="46.87074" lon="-2.12353">
        <ele>5.2</ele>
        <time>2020-06-04T10:33:58Z</time>
      </trkpt>
      <trkpt lat="46.87078" lon="-2.1235">
        <ele>5.2</ele>
        <time>2020-06-04T10:33:59Z</time>
      </trkpt>
      <trkpt lat="46.87083" lon="-2.12349">
        <ele>5.2</ele>
        <time>2020-06-04T10:34:00Z</time>
      </trkpt>
      <trkpt lat="46.87087" lon="-2.12348">
        <ele>5.3</ele>
        <time>2020-06-04T10:34:01Z</time>
      </trkpt>
      <trkpt lat="46.87092" lon="-2.12346">
        <ele>5.3</ele>
        <time>2020-06-04T10:34:02Z</time>
      </trkpt>
      <trkpt lat="46.87097" lon="-2.12346">
        <ele>5.4</ele>
        <time>2020-06-04T10:34:03Z</time>
      </trkpt>
      <trkpt lat="46.87103" lon="-2.12351">
        <ele>5.4</ele>
        <time>2020-06-04T10:34:04Z</time>
      </trkpt>
      <trkpt lat="46.87109" lon="-2.12351">
        <ele>5.5</ele>
        <time>2020-06-04T10:34:05Z</time>
      </trkpt>
      <trkpt lat="46.87114" lon="-2.1235">
        <ele>5.6</ele>
        <time>2020-06-04T10:34:06Z</time>
      </trkpt>
      <trkpt lat="46.87119" lon="-2.1235">
        <ele>5.6</ele>
        <time>2020-06-04T10:34:07Z</time>
      </trkpt>
      <trkpt lat="46.87123" lon="-2.12351">
        <ele>5.6</ele>
        <time>2020-06-04T10:34:08Z</time>
      </trkpt>
      <trkpt lat="46.87128" lon="-2.12351">
        <ele>5.7</ele>
        <time>2020-06-04T10:34:09Z</time>
      </trkpt>
      <trkpt lat="46.87132" lon="-2.12352">
        <ele>5.7</ele>
        <time>2020-06-04T10:34:10Z</time>
      </trkpt>
      <trkpt lat="46.87137" lon="-2.12354">
        <ele>5.7</ele>
        <time>2020-06-04T10:34:11Z</time>
      </trkpt>
      <trkpt lat="46.87143" lon="-2.12357">
        <ele>5.7</ele>
        <time>2020-06-04T10:34:12Z</time>
      </trkpt>
      <trkpt lat="46.87148" lon="-2.12359">
        <ele>5.7</ele>
        <time>2020-06-04T10:34:13Z</time>
      </trkpt>
      <trkpt lat="46.87152" lon="-2.1236">
        <ele>5.7</ele>
        <time>2020-06-04T10:34:14Z</time>
      </trkpt>
      <trkpt lat="46.87157" lon="-2.12362">
        <ele>5.7</ele>
        <time>2020-06-04T10:34:15Z</time>
      </trkpt>
      <trkpt lat="46.87161" lon="-2.12364">
        <ele>5.7</ele>
        <time>2020-06-04T10:34:16Z</time>
      </trkpt>
      <trkpt lat="46.87166" lon="-2.12364">
        <ele>5.7</ele>
        <time>2020-06-04T10:34:17Z</time>
      </trkpt>
      <trkpt lat="46.87171" lon="-2.12365">
        <ele>5.7</ele>
        <time>2020-06-04T10:34:18Z</time>
      </trkpt>
      <trkpt lat="46.87177" lon="-2.12366">
        <ele>5.7</ele>
        <time>2020-06-04T10:34:19Z</time>
      </trkpt>
      <trkpt lat="46.87183" lon="-2.12369">
        <ele>5.8</ele>
        <time>2020-06-04T10:34:20Z</time>
      </trkpt>
      <trkpt lat="46.8719" lon="-2.12372">
        <ele>5.8</ele>
        <time>2020-06-04T10:34:21Z</time>
      </trkpt>
      <trkpt lat="46.87196" lon="-2.12375">
        <ele>5.9</ele>
        <time>2020-06-04T10:34:22Z</time>
      </trkpt>
      <trkpt lat="46.87203" lon="-2.12377">
        <ele>5.9</ele>
        <time>2020-06-04T10:34:23Z</time>
      </trkpt>
      <trkpt lat="46.87209" lon="-2.1238">
        <ele>6</ele>
        <time>2020-06-04T10:34:24Z</time>
      </trkpt>
      <trkpt lat="46.87214" lon="-2.12384">
        <ele>6.1</ele>
        <time>2020-06-04T10:34:25Z</time>
      </trkpt>
      <trkpt lat="46.87219" lon="-2.12388">
        <ele>6.2</ele>
        <time>2020-06-04T10:34:26Z</time>
      </trkpt>
      <trkpt lat="46.87222" lon="-2.12392">
        <ele>6.3</ele>
        <time>2020-06-04T10:34:27Z</time>
      </trkpt>
      <trkpt lat="46.87226" lon="-2.12396">
        <ele>6.4</ele>
        <time>2020-06-04T10:34:28Z</time>
      </trkpt>
      <trkpt lat="46.8723" lon="-2.12397">
        <ele>6.5</ele>
        <time>2020-06-04T10:34:29Z</time>
      </trkpt>
      <trkpt lat="46.87233" lon="-2.12401">
        <ele>6.5</ele>
        <time>2020-06-04T10:34:30Z</time>
      </trkpt>
      <trkpt lat="46.87238" lon="-2.12402">
        <ele>6.6</ele>
        <time>2020-06-04T10:34:31Z</time>
      </trkpt>
      <trkpt lat="46.87241" lon="-2.12404">
        <ele>6.7</ele>
        <time>2020-06-04T10:34:32Z</time>
      </trkpt>
      <trkpt lat="46.87245" lon="-2.12405">
        <ele>6.7</ele>
        <time>2020-06-04T10:34:33Z</time>
      </trkpt>
      <trkpt lat="46.87248" lon="-2.12407">
        <ele>6.8</ele>
        <time>2020-06-04T10:34:34Z</time>
      </trkpt>
      <trkpt lat="46.87251" lon="-2.12408">
        <ele>6.8</ele>
        <time>2020-06-04T10:34:35Z</time>
      </trkpt>
      <trkpt lat="46.87254" lon="-2.1241">
        <ele>6.8</ele>
        <time>2020-06-04T10:34:36Z</time>
      </trkpt>
      <trkpt lat="46.87254" lon="-2.12409">
        <ele>6.8</ele>
        <time>2020-06-04T10:34:37Z</time>
      </trkpt>
      <trkpt lat="46.87255" lon="-2.12407">
        <ele>6.8</ele>
        <time>2020-06-04T10:34:38Z</time>
      </trkpt>
      <trkpt lat="46.87255" lon="-2.12407">
        <ele>6.8</ele>
        <time>2020-06-04T10:34:39Z</time>
      </trkpt>
      <trkpt lat="46.87255" lon="-2.12407">
        <ele>6.8</ele>
        <time>2020-06-04T10:34:40Z</time>
      </trkpt>
      <trkpt lat="46.87255" lon="-2.12407">
        <ele>6.8</ele>
        <time>2020-06-04T10:34:41Z</time>
      </trkpt>
      <trkpt lat="46.87255" lon="-2.12407">
        <ele>6.8</ele>
        <time>2020-06-04T10:34:42Z</time>
      </trkpt>
      <trkpt lat="46.87255" lon="-2.12407">
        <ele>6.8</ele>
        <time>2020-06-04T10:34:43Z</time>
      </trkpt>
      <trkpt lat="46.87255" lon="-2.12406">
        <ele>6.8</ele>
        <time>2020-06-04T10:34:44Z</time>
      </trkpt>
      <trkpt lat="46.87255" lon="-2.12404">
        <ele>6.8</ele>
        <time>2020-06-04T10:34:45Z</time>
      </trkpt>
      <trkpt lat="46.87255" lon="-2.12404">
        <ele>6.8</ele>
        <time>2020-06-04T10:34:46Z</time>
      </trkpt>
      <trkpt lat="46.87255" lon="-2.12404">
        <ele>6.8</ele>
        <time>2020-06-04T10:34:47Z</time>
      </trkpt>
      <trkpt lat="46.87255" lon="-2.12404">
        <ele>6.8</ele>
        <time>2020-06-04T10:34:48Z</time>
      </trkpt>
      <trkpt lat="46.87255" lon="-2.12404">
        <ele>6.8</ele>
        <time>2020-06-04T10:34:49Z</time>
      </trkpt>
      <trkpt lat="46.87255" lon="-2.12404">
        <ele>6.8</ele>
        <time>2020-06-04T10:34:50Z</time>
      </trkpt>
      <trkpt lat="46.87255" lon="-2.12404">
        <ele>6.8</ele>
        <time>2020-06-04T10:34:51Z</time>
      </trkpt>
      <trkpt lat="46.87255" lon="-2.12404">
        <ele>6.8</ele>
        <time>2020-06-04T10:34:52Z</time>
      </trkpt>
      <trkpt lat="46.87256" lon="-2.12404">
        <ele>6.8</ele>
        <time>2020-06-04T10:34:53Z</time>
      </trkpt>
      <trkpt lat="46.87256" lon="-2.12404">
        <ele>6.8</ele>
        <time>2020-06-04T10:34:54Z</time>
      </trkpt>
      <trkpt lat="46.87257" lon="-2.12405">
        <ele>6.8</ele>
        <time>2020-06-04T10:34:55Z</time>
      </trkpt>
      <trkpt lat="46.87257" lon="-2.12407">
        <ele>6.8</ele>
        <time>2020-06-04T10:34:56Z</time>
      </trkpt>
      <trkpt lat="46.87259" lon="-2.12406">
        <ele>6.8</ele>
        <time>2020-06-04T10:34:57Z</time>
      </trkpt>
      <trkpt lat="46.87259" lon="-2.12409">
        <ele>6.8</ele>
        <time>2020-06-04T10:34:58Z</time>
      </trkpt>
      <trkpt lat="46.87259" lon="-2.12411">
        <ele>6.8</ele>
        <time>2020-06-04T10:34:59Z</time>
      </trkpt>
      <trkpt lat="46.87261" lon="-2.12411">
        <ele>6.8</ele>
        <time>2020-06-04T10:35:00Z</time>
      </trkpt>
      <trkpt lat="46.87261" lon="-2.12411">
        <ele>6.8</ele>
        <time>2020-06-04T10:35:01Z</time>
      </trkpt>
      <trkpt lat="46.87262" lon="-2.12412">
        <ele>6.8</ele>
        <time>2020-06-04T10:35:02Z</time>
      </trkpt>
      <trkpt lat="46.87263" lon="-2.12412">
        <ele>6.8</ele>
        <time>2020-06-04T10:35:03Z</time>
      </trkpt>
      <trkpt lat="46.87264" lon="-2.12412">
        <ele>6.8</ele>
        <time>2020-06-04T10:35:04Z</time>
      </trkpt>
      <trkpt lat="46.87265" lon="-2.12412">
        <ele>6.8</ele>
        <time>2020-06-04T10:35:05Z</time>
      </trkpt>
      <trkpt lat="46.87265" lon="-2.12413">
        <ele>6.8</ele>
        <time>2020-06-04T10:35:06Z</time>
      </trkpt>
      <trkpt lat="46.87266" lon="-2.12413">
        <ele>6.8</ele>
        <time>2020-06-04T10:35:07Z</time>
      </trkpt>
      <trkpt lat="46.87267" lon="-2.12413">
        <ele>6.8</ele>
        <time>2020-06-04T10:35:08Z</time>
      </trkpt>
      <trkpt lat="46.87268" lon="-2.12413">
        <ele>6.8</ele>
        <time>2020-06-04T10:35:09Z</time>
      </trkpt>
      <trkpt lat="46.87268" lon="-2.12414">
        <ele>6.8</ele>
        <time>2020-06-04T10:35:10Z</time>
      </trkpt>
      <trkpt lat="46.87269" lon="-2.12414">
        <ele>6.8</ele>
        <time>2020-06-04T10:35:11Z</time>
      </trkpt>
      <trkpt lat="46.8727" lon="-2.12414">
        <ele>6.8</ele>
        <time>2020-06-04T10:35:12Z</time>
      </trkpt>
      <trkpt lat="46.87271" lon="-2.12414">
        <ele>6.8</ele>
        <time>2020-06-04T10:35:13Z</time>
      </trkpt>
      <trkpt lat="46.87271" lon="-2.12415">
        <ele>6.8</ele>
        <time>2020-06-04T10:35:14Z</time>
      </trkpt>
      <trkpt lat="46.87272" lon="-2.12415">
        <ele>6.7</ele>
        <time>2020-06-04T10:35:15Z</time>
      </trkpt>
      <trkpt lat="46.87273" lon="-2.12415">
        <ele>6.7</ele>
        <time>2020-06-04T10:35:16Z</time>
      </trkpt>
      <trkpt lat="46.87274" lon="-2.12415">
        <ele>6.7</ele>
        <time>2020-06-04T10:35:17Z</time>
      </trkpt>
      <trkpt lat="46.87275" lon="-2.12416">
        <ele>6.7</ele>
        <time>2020-06-04T10:35:18Z</time>
      </trkpt>
      <trkpt lat="46.87275" lon="-2.12416">
        <ele>6.7</ele>
        <time>2020-06-04T10:39:00Z</time>
      </trkpt>
      <trkpt lat="46.87276" lon="-2.12416">
        <ele>6.7</ele>
        <time>2020-06-04T10:39:01Z</time>
      </trkpt>
      <trkpt lat="46.87279" lon="-2.12418">
        <ele>6.7</ele>
        <time>2020-06-04T10:39:02Z</time>
      </trkpt>
      <trkpt lat="46.87282" lon="-2.12419">
        <ele>6.7</ele>
        <time>2020-06-04T10:39:03Z</time>
      </trkpt>
      <trkpt lat="46.87285" lon="-2.12423">
        <ele>6.6</ele>
        <time>2020-06-04T10:39:04Z</time>
      </trkpt>
      <trkpt lat="46.87288" lon="-2.12425">
        <ele>6.6</ele>
        <time>2020-06-04T10:39:05Z</time>
      </trkpt>
      <trkpt lat="46.87291" lon="-2.12427">
        <ele>6.6</ele>
        <time>2020-06-04T10:39:06Z</time>
      </trkpt>
      <trkpt lat="46.87295" lon="-2.12427">
        <ele>6.6</ele>
        <time>2020-06-04T10:39:07Z</time>
      </trkpt>
      <trkpt lat="46.873" lon="-2.12428">
        <ele>6.5</ele>
        <time>2020-06-04T10:39:08Z</time>
      </trkpt>
      <trkpt lat="46.87304" lon="-2.12428">
        <ele>6.5</ele>
        <time>2020-06-04T10:39:09Z</time>
      </trkpt>
      <trkpt lat="46.87308" lon="-2.12427">
        <ele>6.4</ele>
        <time>2020-06-04T10:39:10Z</time>
      </trkpt>
      <trkpt lat="46.87312" lon="-2.12427">
        <ele>6.4</ele>
        <time>2020-06-04T10:39:11Z</time>
      </trkpt>
      <trkpt lat="46.87315" lon="-2.12429">
        <ele>6.4</ele>
        <time>2020-06-04T10:39:12Z</time>
      </trkpt>
      <trkpt lat="46.87319" lon="-2.1243">
        <ele>6.3</ele>
        <time>2020-06-04T10:39:13Z</time>
      </trkpt>
      <trkpt lat="46.87323" lon="-2.12431">
        <ele>6.3</ele>
        <time>2020-06-04T10:39:14Z</time>
      </trkpt>
      <trkpt lat="46.87326" lon="-2.12433">
        <ele>6.2</ele>
        <time>2020-06-04T10:39:15Z</time>
      </trkpt>
      <trkpt lat="46.87329" lon="-2.12434">
        <ele>6.2</ele>
        <time>2020-06-04T10:39:16Z</time>
      </trkpt>
      <trkpt lat="46.87334" lon="-2.12434">
        <ele>6.2</ele>
        <time>2020-06-04T10:39:17Z</time>
      </trkpt>
      <trkpt lat="46.87339" lon="-2.12434">
        <ele>6.2</ele>
        <time>2020-06-04T10:39:18Z</time>
      </trkpt>
      <trkpt lat="46.87345" lon="-2.12435">
        <ele>6.2</ele>
        <time>2020-06-04T10:39:19Z</time>
      </trkpt>
      <trkpt lat="46.87351" lon="-2.12436">
        <ele>6.3</ele>
        <time>2020-06-04T10:39:20Z</time>
      </trkpt>
      <trkpt lat="46.87357" lon="-2.12437">
        <ele>6.4</ele>
        <time>2020-06-04T10:39:21Z</time>
      </trkpt>
      <trkpt lat="46.87362" lon="-2.12436">
        <ele>6.6</ele>
        <time>2020-06-04T10:39:22Z</time>
      </trkpt>
      <trkpt lat="46.87367" lon="-2.12437">
        <ele>6.7</ele>
        <time>2020-06-04T10:39:23Z</time>
      </trkpt>
      <trkpt lat="46.8737" lon="-2.12436">
        <ele>6.8</ele>
        <time>2020-06-04T10:39:24Z</time>
      </trkpt>
      <trkpt lat="46.87373" lon="-2.12435">
        <ele>7</ele>
        <time>2020-06-04T10:39:25Z</time>
      </trkpt>
      <trkpt lat="46.87376" lon="-2.12433">
        <ele>7.1</ele>
        <time>2020-06-04T10:39:26Z</time>
      </trkpt>
      <trkpt lat="46.87379" lon="-2.1243">
        <ele>7.2</ele>
        <time>2020-06-04T10:39:27Z</time>
      </trkpt>
      <trkpt lat="46.87382" lon="-2.12426">
        <ele>7.3</ele>
        <time>2020-06-04T10:39:28Z</time>
      </trkpt>
      <trkpt lat="46.87387" lon="-2.12422">
        <ele>7.4</ele>
        <time>2020-06-04T10:39:29Z</time>
      </trkpt>
      <trkpt lat="46.87392" lon="-2.12417">
        <ele>7.6</ele>
        <time>2020-06-04T10:39:30Z</time>
      </trkpt>
      <trkpt lat="46.87396" lon="-2.12412">
        <ele>7.7</ele>
        <time>2020-06-04T10:39:31Z</time>
      </trkpt>
      <trkpt lat="46.874" lon="-2.12406">
        <ele>7.7</ele>
        <time>2020-06-04T10:39:32Z</time>
      </trkpt>
      <trkpt lat="46.87403" lon="-2.12402">
        <ele>7.8</ele>
        <time>2020-06-04T10:39:33Z</time>
      </trkpt>
      <trkpt lat="46.87407" lon="-2.12399">
        <ele>7.9</ele>
        <time>2020-06-04T10:39:34Z</time>
      </trkpt>
      <trkpt lat="46.8741" lon="-2.12394">
        <ele>7.9</ele>
        <time>2020-06-04T10:39:35Z</time>
      </trkpt>
      <trkpt lat="46.87415" lon="-2.1239">
        <ele>8</ele>
        <time>2020-06-04T10:39:36Z</time>
      </trkpt>
      <trkpt lat="46.87418" lon="-2.12386">
        <ele>8.1</ele>
        <time>2020-06-04T10:39:37Z</time>
      </trkpt>
      <trkpt lat="46.87421" lon="-2.12381">
        <ele>8.1</ele>
        <time>2020-06-04T10:39:38Z</time>
      </trkpt>
      <trkpt lat="46.87424" lon="-2.12375">
        <ele>8.2</ele>
        <time>2020-06-04T10:39:39Z</time>
      </trkpt>
      <trkpt lat="46.87426" lon="-2.12371">
        <ele>8.2</ele>
        <time>2020-06-04T10:39:40Z</time>
      </trkpt>
      <trkpt lat="46.8743" lon="-2.12368">
        <ele>8.3</ele>
        <time>2020-06-04T10:39:41Z</time>
      </trkpt>
      <trkpt lat="46.87432" lon="-2.12366">
        <ele>8.3</ele>
        <time>2020-06-04T10:39:42Z</time>
      </trkpt>
      <trkpt lat="46.87435" lon="-2.12365">
        <ele>8.3</ele>
        <time>2020-06-04T10:39:43Z</time>
      </trkpt>
      <trkpt lat="46.87438" lon="-2.12365">
        <ele>8.3</ele>
        <time>2020-06-04T10:39:44Z</time>
      </trkpt>
      <trkpt lat="46.87441" lon="-2.12364">
        <ele>8.3</ele>
        <time>2020-06-04T10:39:45Z</time>
      </trkpt>
      <trkpt lat="46.87444" lon="-2.12362">
        <ele>8.4</ele>
        <time>2020-06-04T10:39:46Z</time>
      </trkpt>
      <trkpt lat="46.87448" lon="-2.1236">
        <ele>8.4</ele>
        <time>2020-06-04T10:39:47Z</time>
      </trkpt>
      <trkpt lat="46.87451" lon="-2.12359">
        <ele>8.4</ele>
        <time>2020-06-04T10:39:48Z</time>
      </trkpt>
      <trkpt lat="46.87455" lon="-2.12358">
        <ele>8.4</ele>
        <time>2020-06-04T10:39:49Z</time>
      </trkpt>
      <trkpt lat="46.87459" lon="-2.12357">
        <ele>8.4</ele>
        <time>2020-06-04T10:39:50Z</time>
      </trkpt>
      <trkpt lat="46.87463" lon="-2.12356">
        <ele>8.4</ele>
        <time>2020-06-04T10:39:51Z</time>
      </trkpt>
      <trkpt lat="46.87466" lon="-2.12356">
        <ele>8.4</ele>
        <time>2020-06-04T10:39:52Z</time>
      </trkpt>
      <trkpt lat="46.8747" lon="-2.12355">
        <ele>8.4</ele>
        <time>2020-06-04T10:39:53Z</time>
      </trkpt>
      <trkpt lat="46.87473" lon="-2.12354">
        <ele>8.5</ele>
        <time>2020-06-04T10:39:54Z</time>
      </trkpt>
      <trkpt lat="46.87477" lon="-2.12352">
        <ele>8.5</ele>
        <time>2020-06-04T10:39:55Z</time>
      </trkpt>
      <trkpt lat="46.87481" lon="-2.1235">
        <ele>8.5</ele>
        <time>2020-06-04T10:39:56Z</time>
      </trkpt>
      <trkpt lat="46.87485" lon="-2.12349">
        <ele>8.5</ele>
        <time>2020-06-04T10:39:57Z</time>
      </trkpt>
      <trkpt lat="46.8749" lon="-2.12348">
        <ele>8.5</ele>
        <time>2020-06-04T10:39:58Z</time>
      </trkpt>
      <trkpt lat="46.87494" lon="-2.12348">
        <ele>8.5</ele>
        <time>2020-06-04T10:39:59Z</time>
      </trkpt>
      <trkpt lat="46.87499" lon="-2.12348">
        <ele>8.5</ele>
        <time>2020-06-04T10:40:00Z</time>
      </trkpt>
      <trkpt lat="46.87504" lon="-2.12348">
        <ele>8.5</ele>
        <time>2020-06-04T10:40:01Z</time>
      </trkpt>
      <trkpt lat="46.87508" lon="-2.12349">
        <ele>8.5</ele>
        <time>2020-06-04T10:40:02Z</time>
      </trkpt>
      <trkpt lat="46.87512" lon="-2.12349">
        <ele>8.5</ele>
        <time>2020-06-04T10:40:03Z</time>
      </trkpt>
      <trkpt lat="46.87516" lon="-2.1235">
        <ele>8.3</ele>
        <time>2020-06-04T10:40:04Z</time>
      </trkpt>
      <trkpt lat="46.87522" lon="-2.12351">
        <ele>8.1</ele>
        <time>2020-06-04T10:40:05Z</time>
      </trkpt>
      <trkpt lat="46.87527" lon="-2.12354">
        <ele>8</ele>
        <time>2020-06-04T10:40:06Z</time>
      </trkpt>
      <trkpt lat="46.87531" lon="-2.12357">
        <ele>7.8</ele>
        <time>2020-06-04T10:40:07Z</time>
      </trkpt>
      <trkpt lat="46.87535" lon="-2.12361">
        <ele>7.6</ele>
        <time>2020-06-04T10:40:08Z</time>
      </trkpt>
      <trkpt lat="46.87541" lon="-2.12364">
        <ele>7.4</ele>
        <time>2020-06-04T10:40:09Z</time>
      </trkpt>
      <trkpt lat="46.87547" lon="-2.1237">
        <ele>7.2</ele>
        <time>2020-06-04T10:40:10Z</time>
      </trkpt>
      <trkpt lat="46.87554" lon="-2.12377">
        <ele>6.9</ele>
        <time>2020-06-04T10:40:11Z</time>
      </trkpt>
      <trkpt lat="46.87559" lon="-2.12382">
        <ele>6.8</ele>
        <time>2020-06-04T10:40:12Z</time>
      </trkpt>
      <trkpt lat="46.87563" lon="-2.12387">
        <ele>6.7</ele>
        <time>2020-06-04T10:40:13Z</time>
      </trkpt>
      <trkpt lat="46.87569" lon="-2.12392">
        <ele>6.7</ele>
        <time>2020-06-04T10:40:14Z</time>
      </trkpt>
      <trkpt lat="46.87573" lon="-2.12398">
        <ele>6.7</ele>
        <time>2020-06-04T10:40:15Z</time>
      </trkpt>
      <trkpt lat="46.87577" lon="-2.12404">
        <ele>6.7</ele>
        <time>2020-06-04T10:40:16Z</time>
      </trkpt>
      <trkpt lat="46.87581" lon="-2.12407">
        <ele>6.7</ele>
        <time>2020-06-04T10:40:17Z</time>
      </trkpt>
      <trkpt lat="46.87585" lon="-2.12408">
        <ele>6.7</ele>
        <time>2020-06-04T10:40:18Z</time>
      </trkpt>
      <trkpt lat="46.87589" lon="-2.12409">
        <ele>6.8</ele>
        <time>2020-06-04T10:40:19Z</time>
      </trkpt>
      <trkpt lat="46.87593" lon="-2.1241">
        <ele>6.8</ele>
        <time>2020-06-04T10:40:20Z</time>
      </trkpt>
      <trkpt lat="46.87597" lon="-2.12411">
        <ele>6.8</ele>
        <time>2020-06-04T10:40:21Z</time>
      </trkpt>
      <trkpt lat="46.87602" lon="-2.12413">
        <ele>6.8</ele>
        <time>2020-06-04T10:40:22Z</time>
      </trkpt>
      <trkpt lat="46.87608" lon="-2.12415">
        <ele>6.8</ele>
        <time>2020-06-04T10:40:23Z</time>
      </trkpt>
      <trkpt lat="46.87612" lon="-2.12417">
        <ele>6.9</ele>
        <time>2020-06-04T10:40:24Z</time>
      </trkpt>
      <trkpt lat="46.87617" lon="-2.12419">
        <ele>6.9</ele>
        <time>2020-06-04T10:40:25Z</time>
      </trkpt>
      <trkpt lat="46.87621" lon="-2.12422">
        <ele>6.9</ele>
        <time>2020-06-04T10:40:26Z</time>
      </trkpt>
      <trkpt lat="46.87626" lon="-2.12424">
        <ele>6.9</ele>
        <time>2020-06-04T10:40:27Z</time>
      </trkpt>
      <trkpt lat="46.8763" lon="-2.12426">
        <ele>6.9</ele>
        <time>2020-06-04T10:40:28Z</time>
      </trkpt>
      <trkpt lat="46.87635" lon="-2.12429">
        <ele>6.8</ele>
        <time>2020-06-04T10:40:29Z</time>
      </trkpt>
      <trkpt lat="46.8764" lon="-2.12431">
        <ele>6.8</ele>
        <time>2020-06-04T10:40:30Z</time>
      </trkpt>
      <trkpt lat="46.87645" lon="-2.12434">
        <ele>6.8</ele>
        <time>2020-06-04T10:40:31Z</time>
      </trkpt>
      <trkpt lat="46.8765" lon="-2.12437">
        <ele>6.7</ele>
        <time>2020-06-04T10:40:32Z</time>
      </trkpt>
      <trkpt lat="46.87655" lon="-2.1244">
        <ele>6.6</ele>
        <time>2020-06-04T10:40:33Z</time>
      </trkpt>
      <trkpt lat="46.8766" lon="-2.12444">
        <ele>6.5</ele>
        <time>2020-06-04T10:40:34Z</time>
      </trkpt>
      <trkpt lat="46.87665" lon="-2.1245">
        <ele>6.4</ele>
        <time>2020-06-04T10:40:35Z</time>
      </trkpt>
      <trkpt lat="46.8767" lon="-2.12455">
        <ele>6.4</ele>
        <time>2020-06-04T10:40:36Z</time>
      </trkpt>
      <trkpt lat="46.87675" lon="-2.12459">
        <ele>6.4</ele>
        <time>2020-06-04T10:40:37Z</time>
      </trkpt>
      <trkpt lat="46.87681" lon="-2.12462">
        <ele>6.3</ele>
        <time>2020-06-04T10:40:38Z</time>
      </trkpt>
      <trkpt lat="46.87687" lon="-2.12464">
        <ele>6.3</ele>
        <time>2020-06-04T10:40:39Z</time>
      </trkpt>
      <trkpt lat="46.87693" lon="-2.12466">
        <ele>6.3</ele>
        <time>2020-06-04T10:40:40Z</time>
      </trkpt>
      <trkpt lat="46.87699" lon="-2.12469">
        <ele>6.2</ele>
        <time>2020-06-04T10:40:41Z</time>
      </trkpt>
      <trkpt lat="46.87704" lon="-2.1247">
        <ele>6.2</ele>
        <time>2020-06-04T10:40:42Z</time>
      </trkpt>
      <trkpt lat="46.87709" lon="-2.12471">
        <ele>6.2</ele>
        <time>2020-06-04T10:40:43Z</time>
      </trkpt>
      <trkpt lat="46.87714" lon="-2.12473">
        <ele>6.3</ele>
        <time>2020-06-04T10:40:44Z</time>
      </trkpt>
      <trkpt lat="46.8772" lon="-2.12475">
        <ele>6.3</ele>
        <time>2020-06-04T10:40:45Z</time>
      </trkpt>
      <trkpt lat="46.87725" lon="-2.12476">
        <ele>6.3</ele>
        <time>2020-06-04T10:40:46Z</time>
      </trkpt>
      <trkpt lat="46.8773" lon="-2.12477">
        <ele>6.3</ele>
        <time>2020-06-04T10:40:47Z</time>
      </trkpt>
      <trkpt lat="46.87735" lon="-2.12479">
        <ele>6.3</ele>
        <time>2020-06-04T10:40:48Z</time>
      </trkpt>
      <trkpt lat="46.87741" lon="-2.12482">
        <ele>6.3</ele>
        <time>2020-06-04T10:40:49Z</time>
      </trkpt>
      <trkpt lat="46.87747" lon="-2.12483">
        <ele>6.3</ele>
        <time>2020-06-04T10:40:50Z</time>
      </trkpt>
      <trkpt lat="46.87752" lon="-2.12485">
        <ele>6.4</ele>
        <time>2020-06-04T10:40:51Z</time>
      </trkpt>
      <trkpt lat="46.87757" lon="-2.12486">
        <ele>6.4</ele>
        <time>2020-06-04T10:40:52Z</time>
      </trkpt>
      <trkpt lat="46.87762" lon="-2.12487">
        <ele>6.5</ele>
        <time>2020-06-04T10:40:53Z</time>
      </trkpt>
      <trkpt lat="46.87767" lon="-2.12488">
        <ele>6.6</ele>
        <time>2020-06-04T10:40:54Z</time>
      </trkpt>
      <trkpt lat="46.87771" lon="-2.1249">
        <ele>6.7</ele>
        <time>2020-06-04T10:40:55Z</time>
      </trkpt>
      <trkpt lat="46.87775" lon="-2.12493">
        <ele>6.8</ele>
        <time>2020-06-04T10:40:56Z</time>
      </trkpt>
      <trkpt lat="46.87779" lon="-2.12494">
        <ele>6.8</ele>
        <time>2020-06-04T10:40:57Z</time>
      </trkpt>
      <trkpt lat="46.87784" lon="-2.12495">
        <ele>6.9</ele>
        <time>2020-06-04T10:40:58Z</time>
      </trkpt>
      <trkpt lat="46.87789" lon="-2.12494">
        <ele>6.9</ele>
        <time>2020-06-04T10:40:59Z</time>
      </trkpt>
      <trkpt lat="46.87794" lon="-2.12494">
        <ele>7</ele>
        <time>2020-06-04T10:41:00Z</time>
      </trkpt>
      <trkpt lat="46.878" lon="-2.12495">
        <ele>7.2</ele>
        <time>2020-06-04T10:41:01Z</time>
      </trkpt>
      <trkpt lat="46.87804" lon="-2.12494">
        <ele>7.3</ele>
        <time>2020-06-04T10:41:02Z</time>
      </trkpt>
      <trkpt lat="46.87808" lon="-2.12495">
        <ele>7.5</ele>
        <time>2020-06-04T10:41:03Z</time>
      </trkpt>
      <trkpt lat="46.87811" lon="-2.12496">
        <ele>7.6</ele>
        <time>2020-06-04T10:41:04Z</time>
      </trkpt>
      <trkpt lat="46.87812" lon="-2.12496">
        <ele>7.7</ele>
        <time>2020-06-04T10:41:05Z</time>
      </trkpt>
      <trkpt lat="46.87816" lon="-2.12496">
        <ele>7.8</ele>
        <time>2020-06-04T10:41:06Z</time>
      </trkpt>
      <trkpt lat="46.8782" lon="-2.12496">
        <ele>8</ele>
        <time>2020-06-04T10:41:07Z</time>
      </trkpt>
      <trkpt lat="46.87823" lon="-2.12497">
        <ele>8.1</ele>
        <time>2020-06-04T10:41:08Z</time>
      </trkpt>
      <trkpt lat="46.87827" lon="-2.12498">
        <ele>8.3</ele>
        <time>2020-06-04T10:41:09Z</time>
      </trkpt>
      <trkpt lat="46.87831" lon="-2.12498">
        <ele>8.5</ele>
        <time>2020-06-04T10:41:10Z</time>
      </trkpt>
      <trkpt lat="46.87834" lon="-2.12498">
        <ele>8.6</ele>
        <time>2020-06-04T10:41:11Z</time>
      </trkpt>
      <trkpt lat="46.87838" lon="-2.125">
        <ele>8.7</ele>
        <time>2020-06-04T10:41:12Z</time>
      </trkpt>
      <trkpt lat="46.8784" lon="-2.12504">
        <ele>8.8</ele>
        <time>2020-06-04T10:41:13Z</time>
      </trkpt>
      <trkpt lat="46.87842" lon="-2.12508">
        <ele>9</ele>
        <time>2020-06-04T10:41:14Z</time>
      </trkpt>
      <trkpt lat="46.87842" lon="-2.12509">
        <ele>9.1</ele>
        <time>2020-06-04T10:41:15Z</time>
      </trkpt>
      <trkpt lat="46.87843" lon="-2.12514">
        <ele>9.3</ele>
        <time>2020-06-04T10:41:16Z</time>
      </trkpt>
      <trkpt lat="46.87845" lon="-2.12519">
        <ele>9.6</ele>
        <time>2020-06-04T10:41:17Z</time>
      </trkpt>
      <trkpt lat="46.87845" lon="-2.12523">
        <ele>9.8</ele>
        <time>2020-06-04T10:41:18Z</time>
      </trkpt>
      <trkpt lat="46.87847" lon="-2.12526">
        <ele>10.1</ele>
        <time>2020-06-04T10:41:19Z</time>
      </trkpt>
      <trkpt lat="46.87849" lon="-2.12531">
        <ele>10.4</ele>
        <time>2020-06-04T10:41:20Z</time>
      </trkpt>
      <trkpt lat="46.87851" lon="-2.12535">
        <ele>10.8</ele>
        <time>2020-06-04T10:41:21Z</time>
      </trkpt>
      <trkpt lat="46.87852" lon="-2.1254">
        <ele>11.1</ele>
        <time>2020-06-04T10:41:22Z</time>
      </trkpt>
      <trkpt lat="46.87853" lon="-2.12545">
        <ele>11.5</ele>
        <time>2020-06-04T10:41:23Z</time>
      </trkpt>
      <trkpt lat="46.87854" lon="-2.12549">
        <ele>11.8</ele>
        <time>2020-06-04T10:41:24Z</time>
      </trkpt>
      <trkpt lat="46.87856" lon="-2.12554">
        <ele>12.2</ele>
        <time>2020-06-04T10:41:25Z</time>
      </trkpt>
      <trkpt lat="46.87856" lon="-2.12556">
        <ele>12.3</ele>
        <time>2020-06-04T10:41:26Z</time>
      </trkpt>
      <trkpt lat="46.87856" lon="-2.1256">
        <ele>12.6</ele>
        <time>2020-06-04T10:41:27Z</time>
      </trkpt>
      <trkpt lat="46.87857" lon="-2.12566">
        <ele>12.9</ele>
        <time>2020-06-04T10:41:28Z</time>
      </trkpt>
      <trkpt lat="46.87857" lon="-2.12568">
        <ele>13</ele>
        <time>2020-06-04T10:41:29Z</time>
      </trkpt>
      <trkpt lat="46.87858" lon="-2.12574">
        <ele>13.3</ele>
        <time>2020-06-04T10:41:30Z</time>
      </trkpt>
      <trkpt lat="46.87858" lon="-2.12576">
        <ele>13.4</ele>
        <time>2020-06-04T10:41:31Z</time>
      </trkpt>
      <trkpt lat="46.87858" lon="-2.1258">
        <ele>13.6</ele>
        <time>2020-06-04T10:41:32Z</time>
      </trkpt>
      <trkpt lat="46.87859" lon="-2.12585">
        <ele>13.7</ele>
        <time>2020-06-04T10:41:33Z</time>
      </trkpt>
      <trkpt lat="46.87859" lon="-2.12589">
        <ele>13.9</ele>
        <time>2020-06-04T10:41:34Z</time>
      </trkpt>
      <trkpt lat="46.87859" lon="-2.12593">
        <ele>14.1</ele>
        <time>2020-06-04T10:41:35Z</time>
      </trkpt>
      <trkpt lat="46.87859" lon="-2.12599">
        <ele>14.2</ele>
        <time>2020-06-04T10:41:36Z</time>
      </trkpt>
      <trkpt lat="46.87859" lon="-2.12604">
        <ele>14.3</ele>
        <time>2020-06-04T10:41:37Z</time>
      </trkpt>
      <trkpt lat="46.87858" lon="-2.12608">
        <ele>14.4</ele>
        <time>2020-06-04T10:41:38Z</time>
      </trkpt>
      <trkpt lat="46.87858" lon="-2.12613">
        <ele>14.5</ele>
        <time>2020-06-04T10:41:39Z</time>
      </trkpt>
      <trkpt lat="46.87859" lon="-2.12617">
        <ele>14.5</ele>
        <time>2020-06-04T10:41:40Z</time>
      </trkpt>
      <trkpt lat="46.87859" lon="-2.12621">
        <ele>14.5</ele>
        <time>2020-06-04T10:41:41Z</time>
      </trkpt>
      <trkpt lat="46.87859" lon="-2.12623">
        <ele>14.5</ele>
        <time>2020-06-04T10:41:42Z</time>
      </trkpt>
      <trkpt lat="46.87857" lon="-2.12627">
        <ele>14.5</ele>
        <time>2020-06-04T10:41:43Z</time>
      </trkpt>
      <trkpt lat="46.87857" lon="-2.12628">
        <ele>14.5</ele>
        <time>2020-06-04T10:41:44Z</time>
      </trkpt>
      <trkpt lat="46.87856" lon="-2.12632">
        <ele>14.5</ele>
        <time>2020-06-04T10:41:45Z</time>
      </trkpt>
      <trkpt lat="46.87856" lon="-2.12634">
        <ele>14.5</ele>
        <time>2020-06-04T10:41:46Z</time>
      </trkpt>
      <trkpt lat="46.87855" lon="-2.12639">
        <ele>14.4</ele>
        <time>2020-06-04T10:41:47Z</time>
      </trkpt>
      <trkpt lat="46.87854" lon="-2.12645">
        <ele>14.3</ele>
        <time>2020-06-04T10:41:48Z</time>
      </trkpt>
      <trkpt lat="46.87853" lon="-2.12652">
        <ele>14.2</ele>
        <time>2020-06-04T10:41:49Z</time>
      </trkpt>
      <trkpt lat="46.87853" lon="-2.12658">
        <ele>14.1</ele>
        <time>2020-06-04T10:41:50Z</time>
      </trkpt>
      <trkpt lat="46.87852" lon="-2.12667">
        <ele>14</ele>
        <time>2020-06-04T10:41:51Z</time>
      </trkpt>
      <trkpt lat="46.87851" lon="-2.12676">
        <ele>13.5</ele>
        <time>2020-06-04T10:41:52Z</time>
      </trkpt>
      <trkpt lat="46.8785" lon="-2.12686">
        <ele>12.9</ele>
        <time>2020-06-04T10:41:53Z</time>
      </trkpt>
      <trkpt lat="46.8785" lon="-2.12697">
        <ele>12.2</ele>
        <time>2020-06-04T10:41:54Z</time>
      </trkpt>
      <trkpt lat="46.87848" lon="-2.12708">
        <ele>11.5</ele>
        <time>2020-06-04T10:41:55Z</time>
      </trkpt>
      <trkpt lat="46.87846" lon="-2.12719">
        <ele>10.7</ele>
        <time>2020-06-04T10:41:56Z</time>
      </trkpt>
      <trkpt lat="46.87844" lon="-2.12731">
        <ele>9.9</ele>
        <time>2020-06-04T10:41:57Z</time>
      </trkpt>
      <trkpt lat="46.87843" lon="-2.12745">
        <ele>9</ele>
        <time>2020-06-04T10:41:58Z</time>
      </trkpt>
      <trkpt lat="46.87843" lon="-2.1276">
        <ele>8.2</ele>
        <time>2020-06-04T10:41:59Z</time>
      </trkpt>
      <trkpt lat="46.87845" lon="-2.12774">
        <ele>7.7</ele>
        <time>2020-06-04T10:42:00Z</time>
      </trkpt>
      <trkpt lat="46.87845" lon="-2.12791">
        <ele>7.3</ele>
        <time>2020-06-04T10:42:01Z</time>
      </trkpt>
      <trkpt lat="46.87846" lon="-2.12808">
        <ele>7.2</ele>
        <time>2020-06-04T10:42:02Z</time>
      </trkpt>
      <trkpt lat="46.87847" lon="-2.12826">
        <ele>7.3</ele>
        <time>2020-06-04T10:42:03Z</time>
      </trkpt>
      <trkpt lat="46.87848" lon="-2.12839">
        <ele>7.4</ele>
        <time>2020-06-04T10:42:04Z</time>
      </trkpt>
      <trkpt lat="46.87848" lon="-2.1285">
        <ele>7.5</ele>
        <time>2020-06-04T10:42:05Z</time>
      </trkpt>
      <trkpt lat="46.87848" lon="-2.1286">
        <ele>7.6</ele>
        <time>2020-06-04T10:42:06Z</time>
      </trkpt>
      <trkpt lat="46.87847" lon="-2.12869">
        <ele>7.6</ele>
        <time>2020-06-04T10:42:07Z</time>
      </trkpt>
      <trkpt lat="46.87848" lon="-2.12878">
        <ele>7.7</ele>
        <time>2020-06-04T10:42:08Z</time>
      </trkpt>
      <trkpt lat="46.87848" lon="-2.12887">
        <ele>7.7</ele>
        <time>2020-06-04T10:42:09Z</time>
      </trkpt>
      <trkpt lat="46.87849" lon="-2.12896">
        <ele>7.8</ele>
        <time>2020-06-04T10:42:10Z</time>
      </trkpt>
      <trkpt lat="46.8785" lon="-2.12906">
        <ele>7.8</ele>
        <time>2020-06-04T10:42:11Z</time>
      </trkpt>
      <trkpt lat="46.8785" lon="-2.12917">
        <ele>7.9</ele>
        <time>2020-06-04T10:42:12Z</time>
      </trkpt>
      <trkpt lat="46.87851" lon="-2.12927">
        <ele>8</ele>
        <time>2020-06-04T10:42:13Z</time>
      </trkpt>
      <trkpt lat="46.87852" lon="-2.12937">
        <ele>8.2</ele>
        <time>2020-06-04T10:42:14Z</time>
      </trkpt>
      <trkpt lat="46.87852" lon="-2.12946">
        <ele>8.4</ele>
        <time>2020-06-04T10:42:15Z</time>
      </trkpt>
      <trkpt lat="46.87853" lon="-2.12955">
        <ele>8.6</ele>
        <time>2020-06-04T10:42:16Z</time>
      </trkpt>
      <trkpt lat="46.87854" lon="-2.12964">
        <ele>9</ele>
        <time>2020-06-04T10:42:17Z</time>
      </trkpt>
      <trkpt lat="46.87855" lon="-2.12971">
        <ele>9.4</ele>
        <time>2020-06-04T10:42:18Z</time>
      </trkpt>
      <trkpt lat="46.87856" lon="-2.12978">
        <ele>9.7</ele>
        <time>2020-06-04T10:42:19Z</time>
      </trkpt>
      <trkpt lat="46.87856" lon="-2.12985">
        <ele>10.1</ele>
        <time>2020-06-04T10:42:20Z</time>
      </trkpt>
      <trkpt lat="46.87856" lon="-2.12991">
        <ele>10.5</ele>
        <time>2020-06-04T10:42:21Z</time>
      </trkpt>
      <trkpt lat="46.87857" lon="-2.12997">
        <ele>10.8</ele>
        <time>2020-06-04T10:42:22Z</time>
      </trkpt>
      <trkpt lat="46.87856" lon="-2.13002">
        <ele>11</ele>
        <time>2020-06-04T10:42:23Z</time>
      </trkpt>
      <trkpt lat="46.87855" lon="-2.13007">
        <ele>11.3</ele>
        <time>2020-06-04T10:42:24Z</time>
      </trkpt>
      <trkpt lat="46.87854" lon="-2.1301">
        <ele>11.5</ele>
        <time>2020-06-04T10:42:25Z</time>
      </trkpt>
      <trkpt lat="46.87852" lon="-2.13014">
        <ele>11.6</ele>
        <time>2020-06-04T10:42:26Z</time>
      </trkpt>
      <trkpt lat="46.8785" lon="-2.13019">
        <ele>11.8</ele>
        <time>2020-06-04T10:42:27Z</time>
      </trkpt>
      <trkpt lat="46.87847" lon="-2.13023">
        <ele>11.9</ele>
        <time>2020-06-04T10:42:28Z</time>
      </trkpt>
      <trkpt lat="46.87845" lon="-2.13027">
        <ele>12</ele>
        <time>2020-06-04T10:42:29Z</time>
      </trkpt>
      <trkpt lat="46.87843" lon="-2.13032">
        <ele>12.1</ele>
        <time>2020-06-04T10:42:30Z</time>
      </trkpt>
      <trkpt lat="46.87841" lon="-2.13036">
        <ele>12.1</ele>
        <time>2020-06-04T10:42:31Z</time>
      </trkpt>
      <trkpt lat="46.8784" lon="-2.13043">
        <ele>12</ele>
        <time>2020-06-04T10:42:32Z</time>
      </trkpt>
      <trkpt lat="46.87838" lon="-2.13048">
        <ele>11.9</ele>
        <time>2020-06-04T10:42:33Z</time>
      </trkpt>
      <trkpt lat="46.87836" lon="-2.13053">
        <ele>11.8</ele>
        <time>2020-06-04T10:42:34Z</time>
      </trkpt>
      <trkpt lat="46.87834" lon="-2.13058">
        <ele>11.7</ele>
        <time>2020-06-04T10:42:35Z</time>
      </trkpt>
      <trkpt lat="46.87831" lon="-2.13062">
        <ele>11.5</ele>
        <time>2020-06-04T10:42:36Z</time>
      </trkpt>
      <trkpt lat="46.87828" lon="-2.13067">
        <ele>11.3</ele>
        <time>2020-06-04T10:42:37Z</time>
      </trkpt>
      <trkpt lat="46.87825" lon="-2.1307">
        <ele>11.2</ele>
        <time>2020-06-04T10:42:38Z</time>
      </trkpt>
      <trkpt lat="46.87823" lon="-2.13074">
        <ele>11.1</ele>
        <time>2020-06-04T10:42:39Z</time>
      </trkpt>
      <trkpt lat="46.87822" lon="-2.13079">
        <ele>10.9</ele>
        <time>2020-06-04T10:42:40Z</time>
      </trkpt>
      <trkpt lat="46.87822" lon="-2.13084">
        <ele>10.8</ele>
        <time>2020-06-04T10:42:41Z</time>
      </trkpt>
      <trkpt lat="46.87821" lon="-2.13089">
        <ele>10.6</ele>
        <time>2020-06-04T10:42:42Z</time>
      </trkpt>
      <trkpt lat="46.87819" lon="-2.13094">
        <ele>10.4</ele>
        <time>2020-06-04T10:42:43Z</time>
      </trkpt>
      <trkpt lat="46.87817" lon="-2.13098">
        <ele>10.2</ele>
        <time>2020-06-04T10:42:44Z</time>
      </trkpt>
      <trkpt lat="46.87815" lon="-2.13104">
        <ele>10</ele>
        <time>2020-06-04T10:42:45Z</time>
      </trkpt>
      <trkpt lat="46.87813" lon="-2.13109">
        <ele>9.8</ele>
        <time>2020-06-04T10:42:46Z</time>
      </trkpt>
      <trkpt lat="46.87812" lon="-2.13115">
        <ele>9.5</ele>
        <time>2020-06-04T10:42:47Z</time>
      </trkpt>
      <trkpt lat="46.87811" lon="-2.1312">
        <ele>9.2</ele>
        <time>2020-06-04T10:42:48Z</time>
      </trkpt>
      <trkpt lat="46.8781" lon="-2.13125">
        <ele>9</ele>
        <time>2020-06-04T10:42:49Z</time>
      </trkpt>
      <trkpt lat="46.8781" lon="-2.1313">
        <ele>8.8</ele>
        <time>2020-06-04T10:42:50Z</time>
      </trkpt>
      <trkpt lat="46.8781" lon="-2.13136">
        <ele>8.6</ele>
        <time>2020-06-04T10:42:51Z</time>
      </trkpt>
      <trkpt lat="46.8781" lon="-2.13142">
        <ele>8.3</ele>
        <time>2020-06-04T10:42:52Z</time>
      </trkpt>
      <trkpt lat="46.8781" lon="-2.13149">
        <ele>8</ele>
        <time>2020-06-04T10:42:53Z</time>
      </trkpt>
      <trkpt lat="46.8781" lon="-2.13155">
        <ele>7.8</ele>
        <time>2020-06-04T10:42:54Z</time>
      </trkpt>
      <trkpt lat="46.8781" lon="-2.13162">
        <ele>7.5</ele>
        <time>2020-06-04T10:42:55Z</time>
      </trkpt>
      <trkpt lat="46.87811" lon="-2.13168">
        <ele>7.3</ele>
        <time>2020-06-04T10:42:56Z</time>
      </trkpt>
      <trkpt lat="46.87812" lon="-2.13173">
        <ele>7.2</ele>
        <time>2020-06-04T10:42:57Z</time>
      </trkpt>
      <trkpt lat="46.87812" lon="-2.13179">
        <ele>6.9</ele>
        <time>2020-06-04T10:42:58Z</time>
      </trkpt>
      <trkpt lat="46.87814" lon="-2.13185">
        <ele>6.8</ele>
        <time>2020-06-04T10:42:59Z</time>
      </trkpt>
      <trkpt lat="46.87815" lon="-2.13192">
        <ele>6.7</ele>
        <time>2020-06-04T10:43:00Z</time>
      </trkpt>
      <trkpt lat="46.87816" lon="-2.13198">
        <ele>6.5</ele>
        <time>2020-06-04T10:43:01Z</time>
      </trkpt>
      <trkpt lat="46.87819" lon="-2.13205">
        <ele>6.2</ele>
        <time>2020-06-04T10:43:02Z</time>
      </trkpt>
      <trkpt lat="46.87822" lon="-2.13213">
        <ele>6</ele>
        <time>2020-06-04T10:43:03Z</time>
      </trkpt>
      <trkpt lat="46.87825" lon="-2.1322">
        <ele>5.8</ele>
        <time>2020-06-04T10:43:04Z</time>
      </trkpt>
      <trkpt lat="46.87827" lon="-2.13228">
        <ele>5.6</ele>
        <time>2020-06-04T10:43:05Z</time>
      </trkpt>
      <trkpt lat="46.87829" lon="-2.13238">
        <ele>5.4</ele>
        <time>2020-06-04T10:43:06Z</time>
      </trkpt>
      <trkpt lat="46.87832" lon="-2.13246">
        <ele>5.2</ele>
        <time>2020-06-04T10:43:07Z</time>
      </trkpt>
      <trkpt lat="46.87836" lon="-2.13253">
        <ele>5</ele>
        <time>2020-06-04T10:43:08Z</time>
      </trkpt>
      <trkpt lat="46.87838" lon="-2.13262">
        <ele>4.9</ele>
        <time>2020-06-04T10:43:09Z</time>
      </trkpt>
      <trkpt lat="46.87841" lon="-2.1327">
        <ele>4.8</ele>
        <time>2020-06-04T10:43:10Z</time>
      </trkpt>
      <trkpt lat="46.87844" lon="-2.13279">
        <ele>4.7</ele>
        <time>2020-06-04T10:43:11Z</time>
      </trkpt>
      <trkpt lat="46.87847" lon="-2.13287">
        <ele>4.6</ele>
        <time>2020-06-04T10:43:12Z</time>
      </trkpt>
      <trkpt lat="46.87849" lon="-2.13295">
        <ele>4.5</ele>
        <time>2020-06-04T10:43:13Z</time>
      </trkpt>
      <trkpt lat="46.87852" lon="-2.13303">
        <ele>4.4</ele>
        <time>2020-06-04T10:43:14Z</time>
      </trkpt>
      <trkpt lat="46.87854" lon="-2.13312">
        <ele>4.4</ele>
        <time>2020-06-04T10:43:15Z</time>
      </trkpt>
      <trkpt lat="46.87855" lon="-2.13321">
        <ele>4.3</ele>
        <time>2020-06-04T10:43:16Z</time>
      </trkpt>
      <trkpt lat="46.87857" lon="-2.13329">
        <ele>4.3</ele>
        <time>2020-06-04T10:43:17Z</time>
      </trkpt>
      <trkpt lat="46.87858" lon="-2.13337">
        <ele>4.3</ele>
        <time>2020-06-04T10:43:18Z</time>
      </trkpt>
      <trkpt lat="46.87859" lon="-2.13345">
        <ele>4.3</ele>
        <time>2020-06-04T10:43:19Z</time>
      </trkpt>
      <trkpt lat="46.8786" lon="-2.13352">
        <ele>4.3</ele>
        <time>2020-06-04T10:43:20Z</time>
      </trkpt>
      <trkpt lat="46.87861" lon="-2.13358">
        <ele>4.3</ele>
        <time>2020-06-04T10:43:21Z</time>
      </trkpt>
      <trkpt lat="46.87862" lon="-2.13363">
        <ele>4.4</ele>
        <time>2020-06-04T10:43:22Z</time>
      </trkpt>
      <trkpt lat="46.87862" lon="-2.13369">
        <ele>4.4</ele>
        <time>2020-06-04T10:43:23Z</time>
      </trkpt>
      <trkpt lat="46.87864" lon="-2.13375">
        <ele>4.5</ele>
        <time>2020-06-04T10:43:24Z</time>
      </trkpt>
      <trkpt lat="46.87866" lon="-2.1338">
        <ele>4.6</ele>
        <time>2020-06-04T10:43:25Z</time>
      </trkpt>
      <trkpt lat="46.87867" lon="-2.13386">
        <ele>4.7</ele>
        <time>2020-06-04T10:43:26Z</time>
      </trkpt>
      <trkpt lat="46.87868" lon="-2.1339">
        <ele>4.8</ele>
        <time>2020-06-04T10:43:27Z</time>
      </trkpt>
      <trkpt lat="46.87869" lon="-2.13396">
        <ele>4.8</ele>
        <time>2020-06-04T10:43:28Z</time>
      </trkpt>
      <trkpt lat="46.8787" lon="-2.13401">
        <ele>4.9</ele>
        <time>2020-06-04T10:43:29Z</time>
      </trkpt>
      <trkpt lat="46.8787" lon="-2.13407">
        <ele>5</ele>
        <time>2020-06-04T10:43:30Z</time>
      </trkpt>
      <trkpt lat="46.87872" lon="-2.13411">
        <ele>5.1</ele>
        <time>2020-06-04T10:43:31Z</time>
      </trkpt>
      <trkpt lat="46.87873" lon="-2.13417">
        <ele>5.1</ele>
        <time>2020-06-04T10:43:32Z</time>
      </trkpt>
      <trkpt lat="46.87875" lon="-2.13422">
        <ele>5.2</ele>
        <time>2020-06-04T10:43:33Z</time>
      </trkpt>
      <trkpt lat="46.87875" lon="-2.13428">
        <ele>5.3</ele>
        <time>2020-06-04T10:43:34Z</time>
      </trkpt>
      <trkpt lat="46.87876" lon="-2.13434">
        <ele>5.4</ele>
        <time>2020-06-04T10:43:35Z</time>
      </trkpt>
      <trkpt lat="46.87878" lon="-2.1344">
        <ele>5.5</ele>
        <time>2020-06-04T10:43:36Z</time>
      </trkpt>
      <trkpt lat="46.87879" lon="-2.13445">
        <ele>5.6</ele>
        <time>2020-06-04T10:43:37Z</time>
      </trkpt>
      <trkpt lat="46.87881" lon="-2.13451">
        <ele>5.7</ele>
        <time>2020-06-04T10:43:38Z</time>
      </trkpt>
      <trkpt lat="46.87883" lon="-2.13457">
        <ele>5.8</ele>
        <time>2020-06-04T10:43:39Z</time>
      </trkpt>
      <trkpt lat="46.87883" lon="-2.13463">
        <ele>5.8</ele>
        <time>2020-06-04T10:43:40Z</time>
      </trkpt>
      <trkpt lat="46.87884" lon="-2.13467">
        <ele>5.9</ele>
        <time>2020-06-04T10:43:41Z</time>
      </trkpt>
      <trkpt lat="46.87886" lon="-2.13471">
        <ele>5.9</ele>
        <time>2020-06-04T10:43:42Z</time>
      </trkpt>
      <trkpt lat="46.87886" lon="-2.13475">
        <ele>6</ele>
        <time>2020-06-04T10:43:43Z</time>
      </trkpt>
      <trkpt lat="46.87885" lon="-2.1348">
        <ele>6.1</ele>
        <time>2020-06-04T10:43:44Z</time>
      </trkpt>
      <trkpt lat="46.87881" lon="-2.13483">
        <ele>6.1</ele>
        <time>2020-06-04T10:43:45Z</time>
      </trkpt>
      <trkpt lat="46.87878" lon="-2.13486">
        <ele>6.1</ele>
        <time>2020-06-04T10:43:46Z</time>
      </trkpt>
      <trkpt lat="46.87876" lon="-2.1349">
        <ele>6</ele>
        <time>2020-06-04T10:43:47Z</time>
      </trkpt>
      <trkpt lat="46.87874" lon="-2.13495">
        <ele>6</ele>
        <time>2020-06-04T10:43:48Z</time>
      </trkpt>
      <trkpt lat="46.87874" lon="-2.135">
        <ele>6</ele>
        <time>2020-06-04T10:43:49Z</time>
      </trkpt>
      <trkpt lat="46.87873" lon="-2.13505">
        <ele>6</ele>
        <time>2020-06-04T10:43:50Z</time>
      </trkpt>
      <trkpt lat="46.87873" lon="-2.1351">
        <ele>6.1</ele>
        <time>2020-06-04T10:43:51Z</time>
      </trkpt>
      <trkpt lat="46.87872" lon="-2.13515">
        <ele>6.1</ele>
        <time>2020-06-04T10:43:52Z</time>
      </trkpt>
      <trkpt lat="46.87871" lon="-2.13519">
        <ele>6.1</ele>
        <time>2020-06-04T10:43:53Z</time>
      </trkpt>
      <trkpt lat="46.8787" lon="-2.13525">
        <ele>6.1</ele>
        <time>2020-06-04T10:43:54Z</time>
      </trkpt>
      <trkpt lat="46.8787" lon="-2.13532">
        <ele>6.1</ele>
        <time>2020-06-04T10:43:55Z</time>
      </trkpt>
      <trkpt lat="46.8787" lon="-2.13538">
        <ele>6.1</ele>
        <time>2020-06-04T10:43:56Z</time>
      </trkpt>
      <trkpt lat="46.87869" lon="-2.13544">
        <ele>6.2</ele>
        <time>2020-06-04T10:43:57Z</time>
      </trkpt>
      <trkpt lat="46.87869" lon="-2.1355">
        <ele>6.2</ele>
        <time>2020-06-04T10:43:58Z</time>
      </trkpt>
      <trkpt lat="46.87869" lon="-2.13556">
        <ele>6.2</ele>
        <time>2020-06-04T10:43:59Z</time>
      </trkpt>
      <trkpt lat="46.87869" lon="-2.13562">
        <ele>6.2</ele>
        <time>2020-06-04T10:44:00Z</time>
      </trkpt>
      <trkpt lat="46.87869" lon="-2.13569">
        <ele>6.1</ele>
        <time>2020-06-04T10:44:01Z</time>
      </trkpt>
      <trkpt lat="46.8787" lon="-2.13576">
        <ele>6.1</ele>
        <time>2020-06-04T10:44:02Z</time>
      </trkpt>
      <trkpt lat="46.87873" lon="-2.13584">
        <ele>6</ele>
        <time>2020-06-04T10:44:03Z</time>
      </trkpt>
      <trkpt lat="46.87874" lon="-2.13591">
        <ele>5.9</ele>
        <time>2020-06-04T10:44:04Z</time>
      </trkpt>
      <trkpt lat="46.87876" lon="-2.13598">
        <ele>5.8</ele>
        <time>2020-06-04T10:44:05Z</time>
      </trkpt>
      <trkpt lat="46.87877" lon="-2.13605">
        <ele>5.7</ele>
        <time>2020-06-04T10:44:06Z</time>
      </trkpt>
      <trkpt lat="46.87878" lon="-2.13612">
        <ele>5.6</ele>
        <time>2020-06-04T10:44:07Z</time>
      </trkpt>
      <trkpt lat="46.87879" lon="-2.13618">
        <ele>5.6</ele>
        <time>2020-06-04T10:44:08Z</time>
      </trkpt>
      <trkpt lat="46.8788" lon="-2.13625">
        <ele>5.5</ele>
        <time>2020-06-04T10:44:09Z</time>
      </trkpt>
      <trkpt lat="46.87882" lon="-2.13631">
        <ele>5.4</ele>
        <time>2020-06-04T10:44:10Z</time>
      </trkpt>
      <trkpt lat="46.87884" lon="-2.13638">
        <ele>5.4</ele>
        <time>2020-06-04T10:44:11Z</time>
      </trkpt>
      <trkpt lat="46.87887" lon="-2.13644">
        <ele>5.3</ele>
        <time>2020-06-04T10:44:12Z</time>
      </trkpt>
      <trkpt lat="46.87889" lon="-2.1365">
        <ele>5.3</ele>
        <time>2020-06-04T10:44:13Z</time>
      </trkpt>
      <trkpt lat="46.87889" lon="-2.13657">
        <ele>5.3</ele>
        <time>2020-06-04T10:44:14Z</time>
      </trkpt>
      <trkpt lat="46.87888" lon="-2.13665">
        <ele>5.3</ele>
        <time>2020-06-04T10:44:15Z</time>
      </trkpt>
      <trkpt lat="46.87889" lon="-2.13672">
        <ele>5.3</ele>
        <time>2020-06-04T10:44:16Z</time>
      </trkpt>
      <trkpt lat="46.8789" lon="-2.1368">
        <ele>5.3</ele>
        <time>2020-06-04T10:44:17Z</time>
      </trkpt>
      <trkpt lat="46.8789" lon="-2.13687">
        <ele>5.3</ele>
        <time>2020-06-04T10:44:18Z</time>
      </trkpt>
      <trkpt lat="46.87891" lon="-2.13694">
        <ele>5.3</ele>
        <time>2020-06-04T10:44:19Z</time>
      </trkpt>
      <trkpt lat="46.87892" lon="-2.137">
        <ele>5.3</ele>
        <time>2020-06-04T10:44:20Z</time>
      </trkpt>
      <trkpt lat="46.87893" lon="-2.13706">
        <ele>5.3</ele>
        <time>2020-06-04T10:44:21Z</time>
      </trkpt>
      <trkpt lat="46.87895" lon="-2.13713">
        <ele>5.3</ele>
        <time>2020-06-04T10:44:22Z</time>
      </trkpt>
      <trkpt lat="46.87896" lon="-2.13719">
        <ele>5.3</ele>
        <time>2020-06-04T10:44:23Z</time>
      </trkpt>
      <trkpt lat="46.87897" lon="-2.13726">
        <ele>5.3</ele>
        <time>2020-06-04T10:44:24Z</time>
      </trkpt>
      <trkpt lat="46.87897" lon="-2.13733">
        <ele>5.3</ele>
        <time>2020-06-04T10:44:25Z</time>
      </trkpt>
      <trkpt lat="46.87898" lon="-2.13742">
        <ele>5.2</ele>
        <time>2020-06-04T10:44:26Z</time>
      </trkpt>
      <trkpt lat="46.87899" lon="-2.13749">
        <ele>5.2</ele>
        <time>2020-06-04T10:44:27Z</time>
      </trkpt>
      <trkpt lat="46.879" lon="-2.13759">
        <ele>5.2</ele>
        <time>2020-06-04T10:44:28Z</time>
      </trkpt>
      <trkpt lat="46.87901" lon="-2.1377">
        <ele>5.1</ele>
        <time>2020-06-04T10:44:29Z</time>
      </trkpt>
      <trkpt lat="46.87902" lon="-2.13779">
        <ele>5.1</ele>
        <time>2020-06-04T10:44:30Z</time>
      </trkpt>
      <trkpt lat="46.87901" lon="-2.13786">
        <ele>5.1</ele>
        <time>2020-06-04T10:44:31Z</time>
      </trkpt>
      <trkpt lat="46.87902" lon="-2.13798">
        <ele>5</ele>
        <time>2020-06-04T10:44:32Z</time>
      </trkpt>
      <trkpt lat="46.87902" lon="-2.13811">
        <ele>4.9</ele>
        <time>2020-06-04T10:44:33Z</time>
      </trkpt>
      <trkpt lat="46.87902" lon="-2.13823">
        <ele>4.9</ele>
        <time>2020-06-04T10:44:34Z</time>
      </trkpt>
      <trkpt lat="46.87901" lon="-2.13831">
        <ele>4.8</ele>
        <time>2020-06-04T10:44:35Z</time>
      </trkpt>
      <trkpt lat="46.879" lon="-2.1384">
        <ele>4.8</ele>
        <time>2020-06-04T10:44:36Z</time>
      </trkpt>
      <trkpt lat="46.87899" lon="-2.1385">
        <ele>4.8</ele>
        <time>2020-06-04T10:44:37Z</time>
      </trkpt>
      <trkpt lat="46.87899" lon="-2.1386">
        <ele>4.8</ele>
        <time>2020-06-04T10:44:38Z</time>
      </trkpt>
      <trkpt lat="46.87898" lon="-2.13869">
        <ele>4.8</ele>
        <time>2020-06-04T10:44:39Z</time>
      </trkpt>
      <trkpt lat="46.87898" lon="-2.13881">
        <ele>4.8</ele>
        <time>2020-06-04T10:44:40Z</time>
      </trkpt>
      <trkpt lat="46.87898" lon="-2.13891">
        <ele>4.8</ele>
        <time>2020-06-04T10:44:41Z</time>
      </trkpt>
      <trkpt lat="46.87897" lon="-2.13903">
        <ele>4.8</ele>
        <time>2020-06-04T10:44:42Z</time>
      </trkpt>
      <trkpt lat="46.87897" lon="-2.13911">
        <ele>4.8</ele>
        <time>2020-06-04T10:44:43Z</time>
      </trkpt>
      <trkpt lat="46.87898" lon="-2.13921">
        <ele>4.8</ele>
        <time>2020-06-04T10:44:44Z</time>
      </trkpt>
      <trkpt lat="46.87898" lon="-2.13929">
        <ele>4.7</ele>
        <time>2020-06-04T10:44:45Z</time>
      </trkpt>
      <trkpt lat="46.87898" lon="-2.13938">
        <ele>4.7</ele>
        <time>2020-06-04T10:44:46Z</time>
      </trkpt>
      <trkpt lat="46.87897" lon="-2.13945">
        <ele>4.7</ele>
        <time>2020-06-04T10:44:47Z</time>
      </trkpt>
      <trkpt lat="46.87897" lon="-2.13952">
        <ele>4.7</ele>
        <time>2020-06-04T10:44:48Z</time>
      </trkpt>
      <trkpt lat="46.87897" lon="-2.13959">
        <ele>4.7</ele>
        <time>2020-06-04T10:44:49Z</time>
      </trkpt>
      <trkpt lat="46.87893" lon="-2.13972">
        <ele>4.6</ele>
        <time>2020-06-04T10:44:50Z</time>
      </trkpt>
      <trkpt lat="46.87891" lon="-2.13983">
        <ele>4.6</ele>
        <time>2020-06-04T10:44:51Z</time>
      </trkpt>
      <trkpt lat="46.87889" lon="-2.13993">
        <ele>4.6</ele>
        <time>2020-06-04T10:44:52Z</time>
      </trkpt>
      <trkpt lat="46.87887" lon="-2.14">
        <ele>4.6</ele>
        <time>2020-06-04T10:44:53Z</time>
      </trkpt>
      <trkpt lat="46.87885" lon="-2.14007">
        <ele>4.6</ele>
        <time>2020-06-04T10:44:54Z</time>
      </trkpt>
      <trkpt lat="46.87884" lon="-2.14017">
        <ele>4.6</ele>
        <time>2020-06-04T10:44:55Z</time>
      </trkpt>
      <trkpt lat="46.87882" lon="-2.14023">
        <ele>4.6</ele>
        <time>2020-06-04T10:44:56Z</time>
      </trkpt>
      <trkpt lat="46.87881" lon="-2.14031">
        <ele>4.6</ele>
        <time>2020-06-04T10:44:57Z</time>
      </trkpt>
      <trkpt lat="46.8788" lon="-2.14039">
        <ele>4.6</ele>
        <time>2020-06-04T10:44:58Z</time>
      </trkpt>
      <trkpt lat="46.8788" lon="-2.14049">
        <ele>4.7</ele>
        <time>2020-06-04T10:44:59Z</time>
      </trkpt>
      <trkpt lat="46.87881" lon="-2.14056">
        <ele>4.7</ele>
        <time>2020-06-04T10:45:00Z</time>
      </trkpt>
      <trkpt lat="46.87882" lon="-2.14063">
        <ele>4.7</ele>
        <time>2020-06-04T10:45:01Z</time>
      </trkpt>
      <trkpt lat="46.87882" lon="-2.14072">
        <ele>4.7</ele>
        <time>2020-06-04T10:45:02Z</time>
      </trkpt>
      <trkpt lat="46.87883" lon="-2.14078">
        <ele>4.7</ele>
        <time>2020-06-04T10:45:03Z</time>
      </trkpt>
      <trkpt lat="46.87886" lon="-2.14087">
        <ele>4.7</ele>
        <time>2020-06-04T10:45:04Z</time>
      </trkpt>
      <trkpt lat="46.87887" lon="-2.14096">
        <ele>4.7</ele>
        <time>2020-06-04T10:45:05Z</time>
      </trkpt>
      <trkpt lat="46.87888" lon="-2.14103">
        <ele>4.7</ele>
        <time>2020-06-04T10:45:06Z</time>
      </trkpt>
      <trkpt lat="46.8789" lon="-2.14111">
        <ele>4.6</ele>
        <time>2020-06-04T10:45:07Z</time>
      </trkpt>
      <trkpt lat="46.87892" lon="-2.14117">
        <ele>4.6</ele>
        <time>2020-06-04T10:45:08Z</time>
      </trkpt>
      <trkpt lat="46.87894" lon="-2.14123">
        <ele>4.6</ele>
        <time>2020-06-04T10:45:09Z</time>
      </trkpt>
      <trkpt lat="46.87896" lon="-2.1413">
        <ele>4.5</ele>
        <time>2020-06-04T10:45:10Z</time>
      </trkpt>
      <trkpt lat="46.87898" lon="-2.14136">
        <ele>4.5</ele>
        <time>2020-06-04T10:45:11Z</time>
      </trkpt>
      <trkpt lat="46.879" lon="-2.14141">
        <ele>4.5</ele>
        <time>2020-06-04T10:45:12Z</time>
      </trkpt>
      <trkpt lat="46.87901" lon="-2.14146">
        <ele>4.5</ele>
        <time>2020-06-04T10:45:13Z</time>
      </trkpt>
      <trkpt lat="46.87904" lon="-2.14153">
        <ele>4.5</ele>
        <time>2020-06-04T10:45:14Z</time>
      </trkpt>
      <trkpt lat="46.87906" lon="-2.14157">
        <ele>4.5</ele>
        <time>2020-06-04T10:45:15Z</time>
      </trkpt>
      <trkpt lat="46.87908" lon="-2.1416">
        <ele>4.5</ele>
        <time>2020-06-04T10:45:16Z</time>
      </trkpt>
      <trkpt lat="46.8791" lon="-2.14165">
        <ele>4.4</ele>
        <time>2020-06-04T10:45:17Z</time>
      </trkpt>
      <trkpt lat="46.87912" lon="-2.1417">
        <ele>4.4</ele>
        <time>2020-06-04T10:45:18Z</time>
      </trkpt>
      <trkpt lat="46.87914" lon="-2.14173">
        <ele>4.4</ele>
        <time>2020-06-04T10:45:19Z</time>
      </trkpt>
      <trkpt lat="46.87917" lon="-2.14176">
        <ele>4.4</ele>
        <time>2020-06-04T10:45:20Z</time>
      </trkpt>
      <trkpt lat="46.8792" lon="-2.14179">
        <ele>4.4</ele>
        <time>2020-06-04T10:45:21Z</time>
      </trkpt>
      <trkpt lat="46.87921" lon="-2.14181">
        <ele>4.4</ele>
        <time>2020-06-04T10:45:22Z</time>
      </trkpt>
      <trkpt lat="46.87924" lon="-2.14183">
        <ele>4.5</ele>
        <time>2020-06-04T10:45:23Z</time>
      </trkpt>
      <trkpt lat="46.87926" lon="-2.14184">
        <ele>4.5</ele>
        <time>2020-06-04T10:45:24Z</time>
      </trkpt>
      <trkpt lat="46.87928" lon="-2.14186">
        <ele>4.5</ele>
        <time>2020-06-04T10:45:25Z</time>
      </trkpt>
      <trkpt lat="46.8793" lon="-2.1419">
        <ele>4.5</ele>
        <time>2020-06-04T10:45:26Z</time>
      </trkpt>
      <trkpt lat="46.87932" lon="-2.14194">
        <ele>4.5</ele>
        <time>2020-06-04T10:45:27Z</time>
      </trkpt>
      <trkpt lat="46.87934" lon="-2.14196">
        <ele>4.5</ele>
        <time>2020-06-04T10:45:28Z</time>
      </trkpt>
      <trkpt lat="46.87935" lon="-2.14196">
        <ele>4.6</ele>
        <time>2020-06-04T10:45:29Z</time>
      </trkpt>
      <trkpt lat="46.87938" lon="-2.14198">
        <ele>4.6</ele>
        <time>2020-06-04T10:45:30Z</time>
      </trkpt>
      <trkpt lat="46.87939" lon="-2.14198">
        <ele>4.7</ele>
        <time>2020-06-04T10:45:31Z</time>
      </trkpt>
      <trkpt lat="46.87943" lon="-2.14199">
        <ele>4.8</ele>
        <time>2020-06-04T10:45:32Z</time>
      </trkpt>
      <trkpt lat="46.87944" lon="-2.142">
        <ele>4.8</ele>
        <time>2020-06-04T10:45:33Z</time>
      </trkpt>
      <trkpt lat="46.87948" lon="-2.142">
        <ele>4.9</ele>
        <time>2020-06-04T10:45:34Z</time>
      </trkpt>
      <trkpt lat="46.87949" lon="-2.142">
        <ele>4.9</ele>
        <time>2020-06-04T10:45:35Z</time>
      </trkpt>
      <trkpt lat="46.87952" lon="-2.142">
        <ele>5</ele>
        <time>2020-06-04T10:45:36Z</time>
      </trkpt>
      <trkpt lat="46.87955" lon="-2.14202">
        <ele>5</ele>
        <time>2020-06-04T10:45:37Z</time>
      </trkpt>
      <trkpt lat="46.87958" lon="-2.14203">
        <ele>5.1</ele>
        <time>2020-06-04T10:45:38Z</time>
      </trkpt>
      <trkpt lat="46.87961" lon="-2.14203">
        <ele>5.2</ele>
        <time>2020-06-04T10:45:39Z</time>
      </trkpt>
      <trkpt lat="46.87965" lon="-2.14203">
        <ele>5.2</ele>
        <time>2020-06-04T10:45:40Z</time>
      </trkpt>
      <trkpt lat="46.87968" lon="-2.14202">
        <ele>5.3</ele>
        <time>2020-06-04T10:45:41Z</time>
      </trkpt>
      <trkpt lat="46.87971" lon="-2.14203">
        <ele>5.3</ele>
        <time>2020-06-04T10:45:42Z</time>
      </trkpt>
      <trkpt lat="46.87975" lon="-2.14206">
        <ele>5.4</ele>
        <time>2020-06-04T10:45:43Z</time>
      </trkpt>
      <trkpt lat="46.87978" lon="-2.14207">
        <ele>5.4</ele>
        <time>2020-06-04T10:45:44Z</time>
      </trkpt>
      <trkpt lat="46.87982" lon="-2.14207">
        <ele>5.5</ele>
        <time>2020-06-04T10:45:45Z</time>
      </trkpt>
      <trkpt lat="46.87986" lon="-2.14208">
        <ele>5.5</ele>
        <time>2020-06-04T10:45:46Z</time>
      </trkpt>
      <trkpt lat="46.8799" lon="-2.14209">
        <ele>5.5</ele>
        <time>2020-06-04T10:45:47Z</time>
      </trkpt>
      <trkpt lat="46.87994" lon="-2.1421">
        <ele>5.6</ele>
        <time>2020-06-04T10:45:48Z</time>
      </trkpt>
      <trkpt lat="46.87998" lon="-2.14211">
        <ele>5.6</ele>
        <time>2020-06-04T10:45:49Z</time>
      </trkpt>
      <trkpt lat="46.88002" lon="-2.14212">
        <ele>5.6</ele>
        <time>2020-06-04T10:45:50Z</time>
      </trkpt>
      <trkpt lat="46.88006" lon="-2.14213">
        <ele>5.6</ele>
        <time>2020-06-04T10:45:51Z</time>
      </trkpt>
      <trkpt lat="46.8801" lon="-2.14212">
        <ele>5.6</ele>
        <time>2020-06-04T10:45:52Z</time>
      </trkpt>
      <trkpt lat="46.88014" lon="-2.14214">
        <ele>5.6</ele>
        <time>2020-06-04T10:45:53Z</time>
      </trkpt>
      <trkpt lat="46.88018" lon="-2.14215">
        <ele>5.7</ele>
        <time>2020-06-04T10:45:54Z</time>
      </trkpt>
      <trkpt lat="46.88021" lon="-2.14215">
        <ele>5.7</ele>
        <time>2020-06-04T10:45:55Z</time>
      </trkpt>
      <trkpt lat="46.88025" lon="-2.14217">
        <ele>5.7</ele>
        <time>2020-06-04T10:45:56Z</time>
      </trkpt>
      <trkpt lat="46.88028" lon="-2.14217">
        <ele>5.7</ele>
        <time>2020-06-04T10:45:57Z</time>
      </trkpt>
      <trkpt lat="46.88031" lon="-2.14217">
        <ele>5.7</ele>
        <time>2020-06-04T10:45:58Z</time>
      </trkpt>
      <trkpt lat="46.88035" lon="-2.14217">
        <ele>5.7</ele>
        <time>2020-06-04T10:45:59Z</time>
      </trkpt>
      <trkpt lat="46.88039" lon="-2.14218">
        <ele>5.7</ele>
        <time>2020-06-04T10:46:00Z</time>
      </trkpt>
      <trkpt lat="46.88043" lon="-2.14218">
        <ele>5.7</ele>
        <time>2020-06-04T10:46:01Z</time>
      </trkpt>
      <trkpt lat="46.88047" lon="-2.14219">
        <ele>5.8</ele>
        <time>2020-06-04T10:46:02Z</time>
      </trkpt>
      <trkpt lat="46.88051" lon="-2.14221">
        <ele>5.8</ele>
        <time>2020-06-04T10:46:03Z</time>
      </trkpt>
      <trkpt lat="46.88055" lon="-2.14221">
        <ele>5.8</ele>
        <time>2020-06-04T10:46:04Z</time>
      </trkpt>
      <trkpt lat="46.88059" lon="-2.14221">
        <ele>5.9</ele>
        <time>2020-06-04T10:46:05Z</time>
      </trkpt>
      <trkpt lat="46.88062" lon="-2.14221">
        <ele>5.9</ele>
        <time>2020-06-04T10:46:06Z</time>
      </trkpt>
      <trkpt lat="46.88066" lon="-2.14223">
        <ele>6</ele>
        <time>2020-06-04T10:46:07Z</time>
      </trkpt>
      <trkpt lat="46.8807" lon="-2.14224">
        <ele>6</ele>
        <time>2020-06-04T10:46:08Z</time>
      </trkpt>
      <trkpt lat="46.88074" lon="-2.14223">
        <ele>6.1</ele>
        <time>2020-06-04T10:46:09Z</time>
      </trkpt>
      <trkpt lat="46.88078" lon="-2.14223">
        <ele>6.1</ele>
        <time>2020-06-04T10:46:10Z</time>
      </trkpt>
      <trkpt lat="46.88081" lon="-2.14224">
        <ele>6.1</ele>
        <time>2020-06-04T10:46:11Z</time>
      </trkpt>
      <trkpt lat="46.88085" lon="-2.14224">
        <ele>6.2</ele>
        <time>2020-06-04T10:46:12Z</time>
      </trkpt>
      <trkpt lat="46.88089" lon="-2.14225">
        <ele>6.2</ele>
        <time>2020-06-04T10:46:13Z</time>
      </trkpt>
      <trkpt lat="46.88093" lon="-2.14226">
        <ele>6.3</ele>
        <time>2020-06-04T10:46:14Z</time>
      </trkpt>
      <trkpt lat="46.88096" lon="-2.14226">
        <ele>6.3</ele>
        <time>2020-06-04T10:46:15Z</time>
      </trkpt>
      <trkpt lat="46.881" lon="-2.14228">
        <ele>6.3</ele>
        <time>2020-06-04T10:46:16Z</time>
      </trkpt>
      <trkpt lat="46.88103" lon="-2.14229">
        <ele>6.4</ele>
        <time>2020-06-04T10:46:17Z</time>
      </trkpt>
      <trkpt lat="46.88106" lon="-2.1423">
        <ele>6.4</ele>
        <time>2020-06-04T10:46:18Z</time>
      </trkpt>
      <trkpt lat="46.8811" lon="-2.14231">
        <ele>6.4</ele>
        <time>2020-06-04T10:46:19Z</time>
      </trkpt>
      <trkpt lat="46.88113" lon="-2.14232">
        <ele>6.4</ele>
        <time>2020-06-04T10:46:20Z</time>
      </trkpt>
      <trkpt lat="46.88117" lon="-2.14233">
        <ele>6.4</ele>
        <time>2020-06-04T10:46:21Z</time>
      </trkpt>
      <trkpt lat="46.88121" lon="-2.14234">
        <ele>6.5</ele>
        <time>2020-06-04T10:46:22Z</time>
      </trkpt>
      <trkpt lat="46.88125" lon="-2.14234">
        <ele>6.4</ele>
        <time>2020-06-04T10:46:23Z</time>
      </trkpt>
      <trkpt lat="46.88128" lon="-2.14235">
        <ele>6.4</ele>
        <time>2020-06-04T10:46:24Z</time>
      </trkpt>
      <trkpt lat="46.88132" lon="-2.14235">
        <ele>6.4</ele>
        <time>2020-06-04T10:46:25Z</time>
      </trkpt>
      <trkpt lat="46.88136" lon="-2.14236">
        <ele>6.4</ele>
        <time>2020-06-04T10:46:26Z</time>
      </trkpt>
      <trkpt lat="46.8814" lon="-2.14236">
        <ele>6.3</ele>
        <time>2020-06-04T10:46:27Z</time>
      </trkpt>
      <trkpt lat="46.88144" lon="-2.14236">
        <ele>6.3</ele>
        <time>2020-06-04T10:46:28Z</time>
      </trkpt>
      <trkpt lat="46.88148" lon="-2.14236">
        <ele>6.2</ele>
        <time>2020-06-04T10:46:29Z</time>
      </trkpt>
      <trkpt lat="46.88153" lon="-2.14235">
        <ele>6.1</ele>
        <time>2020-06-04T10:46:30Z</time>
      </trkpt>
      <trkpt lat="46.88158" lon="-2.14235">
        <ele>6</ele>
        <time>2020-06-04T10:46:31Z</time>
      </trkpt>
      <trkpt lat="46.88163" lon="-2.14236">
        <ele>5.9</ele>
        <time>2020-06-04T10:46:32Z</time>
      </trkpt>
      <trkpt lat="46.88168" lon="-2.14236">
        <ele>5.8</ele>
        <time>2020-06-04T10:46:33Z</time>
      </trkpt>
      <trkpt lat="46.88173" lon="-2.14237">
        <ele>5.6</ele>
        <time>2020-06-04T10:46:34Z</time>
      </trkpt>
      <trkpt lat="46.88178" lon="-2.14238">
        <ele>5.4</ele>
        <time>2020-06-04T10:46:35Z</time>
      </trkpt>
      <trkpt lat="46.88183" lon="-2.14239">
        <ele>5.3</ele>
        <time>2020-06-04T10:46:36Z</time>
      </trkpt>
      <trkpt lat="46.88188" lon="-2.14239">
        <ele>5.1</ele>
        <time>2020-06-04T10:46:37Z</time>
      </trkpt>
      <trkpt lat="46.88194" lon="-2.1424">
        <ele>4.9</ele>
        <time>2020-06-04T10:46:38Z</time>
      </trkpt>
      <trkpt lat="46.88199" lon="-2.14241">
        <ele>4.8</ele>
        <time>2020-06-04T10:46:39Z</time>
      </trkpt>
      <trkpt lat="46.88204" lon="-2.14243">
        <ele>4.6</ele>
        <time>2020-06-04T10:46:40Z</time>
      </trkpt>
      <trkpt lat="46.8821" lon="-2.14244">
        <ele>4.5</ele>
        <time>2020-06-04T10:46:41Z</time>
      </trkpt>
      <trkpt lat="46.88215" lon="-2.14245">
        <ele>4.4</ele>
        <time>2020-06-04T10:46:42Z</time>
      </trkpt>
      <trkpt lat="46.8822" lon="-2.14244">
        <ele>4.2</ele>
        <time>2020-06-04T10:46:43Z</time>
      </trkpt>
      <trkpt lat="46.88225" lon="-2.14242">
        <ele>4.1</ele>
        <time>2020-06-04T10:46:44Z</time>
      </trkpt>
      <trkpt lat="46.88231" lon="-2.14241">
        <ele>4</ele>
        <time>2020-06-04T10:46:45Z</time>
      </trkpt>
      <trkpt lat="46.88237" lon="-2.14241">
        <ele>3.8</ele>
        <time>2020-06-04T10:46:46Z</time>
      </trkpt>
      <trkpt lat="46.88243" lon="-2.1424">
        <ele>3.7</ele>
        <time>2020-06-04T10:46:47Z</time>
      </trkpt>
      <trkpt lat="46.88248" lon="-2.1424">
        <ele>3.7</ele>
        <time>2020-06-04T10:46:48Z</time>
      </trkpt>
      <trkpt lat="46.88253" lon="-2.1424">
        <ele>3.6</ele>
        <time>2020-06-04T10:46:49Z</time>
      </trkpt>
      <trkpt lat="46.88257" lon="-2.14239">
        <ele>3.6</ele>
        <time>2020-06-04T10:46:50Z</time>
      </trkpt>
      <trkpt lat="46.88262" lon="-2.14241">
        <ele>3.6</ele>
        <time>2020-06-04T10:46:51Z</time>
      </trkpt>
      <trkpt lat="46.88266" lon="-2.14243">
        <ele>3.6</ele>
        <time>2020-06-04T10:46:52Z</time>
      </trkpt>
      <trkpt lat="46.8827" lon="-2.14244">
        <ele>3.5</ele>
        <time>2020-06-04T10:46:53Z</time>
      </trkpt>
      <trkpt lat="46.88274" lon="-2.14245">
        <ele>3.5</ele>
        <time>2020-06-04T10:46:54Z</time>
      </trkpt>
      <trkpt lat="46.88278" lon="-2.14247">
        <ele>3.5</ele>
        <time>2020-06-04T10:46:55Z</time>
      </trkpt>
      <trkpt lat="46.88282" lon="-2.14251">
        <ele>3.5</ele>
        <time>2020-06-04T10:46:56Z</time>
      </trkpt>
      <trkpt lat="46.88287" lon="-2.14252">
        <ele>3.4</ele>
        <time>2020-06-04T10:46:57Z</time>
      </trkpt>
      <trkpt lat="46.88292" lon="-2.14255">
        <ele>3.4</ele>
        <time>2020-06-04T10:46:58Z</time>
      </trkpt>
      <trkpt lat="46.88296" lon="-2.14255">
        <ele>3.4</ele>
        <time>2020-06-04T10:46:59Z</time>
      </trkpt>
      <trkpt lat="46.88301" lon="-2.14257">
        <ele>3.4</ele>
        <time>2020-06-04T10:47:00Z</time>
      </trkpt>
      <trkpt lat="46.88304" lon="-2.14257">
        <ele>3.4</ele>
        <time>2020-06-04T10:47:01Z</time>
      </trkpt>
      <trkpt lat="46.88308" lon="-2.14256">
        <ele>3.4</ele>
        <time>2020-06-04T10:47:02Z</time>
      </trkpt>
      <trkpt lat="46.88312" lon="-2.14255">
        <ele>3.4</ele>
        <time>2020-06-04T10:47:03Z</time>
      </trkpt>
      <trkpt lat="46.88316" lon="-2.14255">
        <ele>3.4</ele>
        <time>2020-06-04T10:47:04Z</time>
      </trkpt>
      <trkpt lat="46.88321" lon="-2.14257">
        <ele>3.4</ele>
        <time>2020-06-04T10:47:05Z</time>
      </trkpt>
      <trkpt lat="46.88324" lon="-2.14261">
        <ele>3.4</ele>
        <time>2020-06-04T10:47:06Z</time>
      </trkpt>
      <trkpt lat="46.88327" lon="-2.14266">
        <ele>3.3</ele>
        <time>2020-06-04T10:47:07Z</time>
      </trkpt>
      <trkpt lat="46.88329" lon="-2.14271">
        <ele>3.3</ele>
        <time>2020-06-04T10:47:08Z</time>
      </trkpt>
      <trkpt lat="46.88332" lon="-2.14277">
        <ele>3.3</ele>
        <time>2020-06-04T10:47:09Z</time>
      </trkpt>
      <trkpt lat="46.88334" lon="-2.14284">
        <ele>3.3</ele>
        <time>2020-06-04T10:47:10Z</time>
      </trkpt>
      <trkpt lat="46.88335" lon="-2.14291">
        <ele>3.3</ele>
        <time>2020-06-04T10:47:11Z</time>
      </trkpt>
      <trkpt lat="46.88338" lon="-2.14298">
        <ele>3.3</ele>
        <time>2020-06-04T10:47:12Z</time>
      </trkpt>
      <trkpt lat="46.8834" lon="-2.14304">
        <ele>3.3</ele>
        <time>2020-06-04T10:47:13Z</time>
      </trkpt>
      <trkpt lat="46.88341" lon="-2.14311">
        <ele>3.3</ele>
        <time>2020-06-04T10:47:14Z</time>
      </trkpt>
      <trkpt lat="46.88342" lon="-2.14317">
        <ele>3.3</ele>
        <time>2020-06-04T10:47:15Z</time>
      </trkpt>
      <trkpt lat="46.88343" lon="-2.14323">
        <ele>3.3</ele>
        <time>2020-06-04T10:47:16Z</time>
      </trkpt>
      <trkpt lat="46.88344" lon="-2.14329">
        <ele>3.3</ele>
        <time>2020-06-04T10:47:17Z</time>
      </trkpt>
      <trkpt lat="46.88345" lon="-2.14336">
        <ele>3.3</ele>
        <time>2020-06-04T10:47:18Z</time>
      </trkpt>
      <trkpt lat="46.88346" lon="-2.14343">
        <ele>3.3</ele>
        <time>2020-06-04T10:47:19Z</time>
      </trkpt>
      <trkpt lat="46.88348" lon="-2.1435">
        <ele>3.3</ele>
        <time>2020-06-04T10:47:20Z</time>
      </trkpt>
      <trkpt lat="46.8835" lon="-2.14357">
        <ele>3.2</ele>
        <time>2020-06-04T10:47:21Z</time>
      </trkpt>
      <trkpt lat="46.88352" lon="-2.14363">
        <ele>3.2</ele>
        <time>2020-06-04T10:47:22Z</time>
      </trkpt>
      <trkpt lat="46.88355" lon="-2.1437">
        <ele>3.2</ele>
        <time>2020-06-04T10:47:23Z</time>
      </trkpt>
      <trkpt lat="46.88357" lon="-2.14376">
        <ele>3.2</ele>
        <time>2020-06-04T10:47:24Z</time>
      </trkpt>
      <trkpt lat="46.88359" lon="-2.14382">
        <ele>3.2</ele>
        <time>2020-06-04T10:47:25Z</time>
      </trkpt>
      <trkpt lat="46.88362" lon="-2.14388">
        <ele>3.2</ele>
        <time>2020-06-04T10:47:26Z</time>
      </trkpt>
      <trkpt lat="46.88364" lon="-2.14394">
        <ele>3.2</ele>
        <time>2020-06-04T10:47:27Z</time>
      </trkpt>
      <trkpt lat="46.88366" lon="-2.144">
        <ele>3.2</ele>
        <time>2020-06-04T10:47:28Z</time>
      </trkpt>
      <trkpt lat="46.88368" lon="-2.14406">
        <ele>3.2</ele>
        <time>2020-06-04T10:47:29Z</time>
      </trkpt>
      <trkpt lat="46.88369" lon="-2.14412">
        <ele>3.2</ele>
        <time>2020-06-04T10:47:30Z</time>
      </trkpt>
      <trkpt lat="46.88369" lon="-2.14419">
        <ele>3.2</ele>
        <time>2020-06-04T10:47:31Z</time>
      </trkpt>
      <trkpt lat="46.8837" lon="-2.14425">
        <ele>3.2</ele>
        <time>2020-06-04T10:47:32Z</time>
      </trkpt>
      <trkpt lat="46.8837" lon="-2.14432">
        <ele>3.2</ele>
        <time>2020-06-04T10:47:33Z</time>
      </trkpt>
      <trkpt lat="46.88371" lon="-2.14439">
        <ele>3.2</ele>
        <time>2020-06-04T10:47:34Z</time>
      </trkpt>
      <trkpt lat="46.88371" lon="-2.14446">
        <ele>3.2</ele>
        <time>2020-06-04T10:47:35Z</time>
      </trkpt>
      <trkpt lat="46.88372" lon="-2.14452">
        <ele>3.2</ele>
        <time>2020-06-04T10:47:36Z</time>
      </trkpt>
      <trkpt lat="46.88373" lon="-2.14458">
        <ele>3.2</ele>
        <time>2020-06-04T10:47:37Z</time>
      </trkpt>
      <trkpt lat="46.88375" lon="-2.14464">
        <ele>3.2</ele>
        <time>2020-06-04T10:47:38Z</time>
      </trkpt>
      <trkpt lat="46.88375" lon="-2.14472">
        <ele>3.2</ele>
        <time>2020-06-04T10:47:39Z</time>
      </trkpt>
      <trkpt lat="46.88377" lon="-2.14478">
        <ele>3.3</ele>
        <time>2020-06-04T10:47:40Z</time>
      </trkpt>
      <trkpt lat="46.88378" lon="-2.14485">
        <ele>3.3</ele>
        <time>2020-06-04T10:47:41Z</time>
      </trkpt>
      <trkpt lat="46.88379" lon="-2.14493">
        <ele>3.3</ele>
        <time>2020-06-04T10:47:42Z</time>
      </trkpt>
      <trkpt lat="46.8838" lon="-2.145">
        <ele>3.3</ele>
        <time>2020-06-04T10:47:43Z</time>
      </trkpt>
      <trkpt lat="46.88381" lon="-2.14506">
        <ele>3.3</ele>
        <time>2020-06-04T10:47:44Z</time>
      </trkpt>
      <trkpt lat="46.88381" lon="-2.14513">
        <ele>3.4</ele>
        <time>2020-06-04T10:47:45Z</time>
      </trkpt>
      <trkpt lat="46.88383" lon="-2.14519">
        <ele>3.4</ele>
        <time>2020-06-04T10:47:46Z</time>
      </trkpt>
      <trkpt lat="46.88386" lon="-2.14524">
        <ele>3.4</ele>
        <time>2020-06-04T10:47:47Z</time>
      </trkpt>
      <trkpt lat="46.88387" lon="-2.1453">
        <ele>3.4</ele>
        <time>2020-06-04T10:47:48Z</time>
      </trkpt>
      <trkpt lat="46.88389" lon="-2.14536">
        <ele>3.4</ele>
        <time>2020-06-04T10:47:49Z</time>
      </trkpt>
      <trkpt lat="46.88391" lon="-2.14543">
        <ele>3.4</ele>
        <time>2020-06-04T10:47:50Z</time>
      </trkpt>
      <trkpt lat="46.88392" lon="-2.14549">
        <ele>3.5</ele>
        <time>2020-06-04T10:47:51Z</time>
      </trkpt>
      <trkpt lat="46.88393" lon="-2.14556">
        <ele>3.5</ele>
        <time>2020-06-04T10:47:52Z</time>
      </trkpt>
      <trkpt lat="46.88394" lon="-2.14563">
        <ele>3.5</ele>
        <time>2020-06-04T10:47:53Z</time>
      </trkpt>
      <trkpt lat="46.88395" lon="-2.1457">
        <ele>3.6</ele>
        <time>2020-06-04T10:47:54Z</time>
      </trkpt>
      <trkpt lat="46.88395" lon="-2.14576">
        <ele>3.6</ele>
        <time>2020-06-04T10:47:55Z</time>
      </trkpt>
      <trkpt lat="46.88395" lon="-2.14582">
        <ele>3.7</ele>
        <time>2020-06-04T10:47:56Z</time>
      </trkpt>
      <trkpt lat="46.88397" lon="-2.14588">
        <ele>3.7</ele>
        <time>2020-06-04T10:47:57Z</time>
      </trkpt>
      <trkpt lat="46.88398" lon="-2.14594">
        <ele>3.7</ele>
        <time>2020-06-04T10:47:58Z</time>
      </trkpt>
      <trkpt lat="46.88398" lon="-2.14602">
        <ele>3.8</ele>
        <time>2020-06-04T10:47:59Z</time>
      </trkpt>
      <trkpt lat="46.88399" lon="-2.14609">
        <ele>3.9</ele>
        <time>2020-06-04T10:48:00Z</time>
      </trkpt>
      <trkpt lat="46.884" lon="-2.14617">
        <ele>3.9</ele>
        <time>2020-06-04T10:48:01Z</time>
      </trkpt>
      <trkpt lat="46.88401" lon="-2.14624">
        <ele>4</ele>
        <time>2020-06-04T10:48:02Z</time>
      </trkpt>
      <trkpt lat="46.88402" lon="-2.14632">
        <ele>4.1</ele>
        <time>2020-06-04T10:48:03Z</time>
      </trkpt>
      <trkpt lat="46.88402" lon="-2.14639">
        <ele>4.2</ele>
        <time>2020-06-04T10:48:04Z</time>
      </trkpt>
      <trkpt lat="46.884" lon="-2.14646">
        <ele>4.2</ele>
        <time>2020-06-04T10:48:05Z</time>
      </trkpt>
      <trkpt lat="46.88399" lon="-2.14652">
        <ele>4.3</ele>
        <time>2020-06-04T10:48:06Z</time>
      </trkpt>
      <trkpt lat="46.88399" lon="-2.14657">
        <ele>4.3</ele>
        <time>2020-06-04T10:48:07Z</time>
      </trkpt>
      <trkpt lat="46.884" lon="-2.14663">
        <ele>4.4</ele>
        <time>2020-06-04T10:48:08Z</time>
      </trkpt>
      <trkpt lat="46.884" lon="-2.14668">
        <ele>4.4</ele>
        <time>2020-06-04T10:48:09Z</time>
      </trkpt>
      <trkpt lat="46.884" lon="-2.14675">
        <ele>4.4</ele>
        <time>2020-06-04T10:48:10Z</time>
      </trkpt>
      <trkpt lat="46.884" lon="-2.14683">
        <ele>4.5</ele>
        <time>2020-06-04T10:48:11Z</time>
      </trkpt>
      <trkpt lat="46.88401" lon="-2.1469">
        <ele>4.5</ele>
        <time>2020-06-04T10:48:12Z</time>
      </trkpt>
      <trkpt lat="46.88401" lon="-2.14697">
        <ele>4.5</ele>
        <time>2020-06-04T10:48:13Z</time>
      </trkpt>
      <trkpt lat="46.88402" lon="-2.14704">
        <ele>4.5</ele>
        <time>2020-06-04T10:48:14Z</time>
      </trkpt>
      <trkpt lat="46.88402" lon="-2.14711">
        <ele>4.6</ele>
        <time>2020-06-04T10:48:15Z</time>
      </trkpt>
      <trkpt lat="46.88402" lon="-2.14718">
        <ele>4.6</ele>
        <time>2020-06-04T10:48:16Z</time>
      </trkpt>
      <trkpt lat="46.88402" lon="-2.14725">
        <ele>4.6</ele>
        <time>2020-06-04T10:48:17Z</time>
      </trkpt>
      <trkpt lat="46.88402" lon="-2.14733">
        <ele>4.6</ele>
        <time>2020-06-04T10:48:18Z</time>
      </trkpt>
      <trkpt lat="46.88404" lon="-2.1474">
        <ele>4.6</ele>
        <time>2020-06-04T10:48:19Z</time>
      </trkpt>
      <trkpt lat="46.88405" lon="-2.14747">
        <ele>4.6</ele>
        <time>2020-06-04T10:48:20Z</time>
      </trkpt>
      <trkpt lat="46.88408" lon="-2.14755">
        <ele>4.6</ele>
        <time>2020-06-04T10:48:21Z</time>
      </trkpt>
      <trkpt lat="46.8841" lon="-2.14763">
        <ele>4.7</ele>
        <time>2020-06-04T10:48:22Z</time>
      </trkpt>
      <trkpt lat="46.88411" lon="-2.14772">
        <ele>4.7</ele>
        <time>2020-06-04T10:48:23Z</time>
      </trkpt>
      <trkpt lat="46.88413" lon="-2.1478">
        <ele>4.7</ele>
        <time>2020-06-04T10:48:24Z</time>
      </trkpt>
      <trkpt lat="46.88414" lon="-2.14788">
        <ele>4.8</ele>
        <time>2020-06-04T10:48:25Z</time>
      </trkpt>
      <trkpt lat="46.88416" lon="-2.14795">
        <ele>4.8</ele>
        <time>2020-06-04T10:48:26Z</time>
      </trkpt>
      <trkpt lat="46.88417" lon="-2.14803">
        <ele>4.9</ele>
        <time>2020-06-04T10:48:27Z</time>
      </trkpt>
      <trkpt lat="46.88419" lon="-2.1481">
        <ele>5</ele>
        <time>2020-06-04T10:48:28Z</time>
      </trkpt>
      <trkpt lat="46.88421" lon="-2.14817">
        <ele>5</ele>
        <time>2020-06-04T10:48:29Z</time>
      </trkpt>
      <trkpt lat="46.88423" lon="-2.14823">
        <ele>5.1</ele>
        <time>2020-06-04T10:48:30Z</time>
      </trkpt>
      <trkpt lat="46.88425" lon="-2.14829">
        <ele>5.2</ele>
        <time>2020-06-04T10:48:31Z</time>
      </trkpt>
      <trkpt lat="46.88428" lon="-2.14835">
        <ele>5.3</ele>
        <time>2020-06-04T10:48:32Z</time>
      </trkpt>
      <trkpt lat="46.88429" lon="-2.14842">
        <ele>5.4</ele>
        <time>2020-06-04T10:48:33Z</time>
      </trkpt>
      <trkpt lat="46.88431" lon="-2.14848">
        <ele>5.6</ele>
        <time>2020-06-04T10:48:34Z</time>
      </trkpt>
      <trkpt lat="46.88434" lon="-2.14854">
        <ele>5.8</ele>
        <time>2020-06-04T10:48:35Z</time>
      </trkpt>
      <trkpt lat="46.88436" lon="-2.14859">
        <ele>5.9</ele>
        <time>2020-06-04T10:48:36Z</time>
      </trkpt>
      <trkpt lat="46.88439" lon="-2.14863">
        <ele>6.1</ele>
        <time>2020-06-04T10:48:37Z</time>
      </trkpt>
      <trkpt lat="46.88441" lon="-2.14868">
        <ele>6.3</ele>
        <time>2020-06-04T10:48:38Z</time>
      </trkpt>
      <trkpt lat="46.88442" lon="-2.14872">
        <ele>6.5</ele>
        <time>2020-06-04T10:48:39Z</time>
      </trkpt>
      <trkpt lat="46.88444" lon="-2.14876">
        <ele>6.6</ele>
        <time>2020-06-04T10:48:40Z</time>
      </trkpt>
      <trkpt lat="46.88446" lon="-2.14879">
        <ele>6.8</ele>
        <time>2020-06-04T10:48:41Z</time>
      </trkpt>
      <trkpt lat="46.88448" lon="-2.14882">
        <ele>6.9</ele>
        <time>2020-06-04T10:48:42Z</time>
      </trkpt>
      <trkpt lat="46.8845" lon="-2.14885">
        <ele>7.1</ele>
        <time>2020-06-04T10:48:43Z</time>
      </trkpt>
      <trkpt lat="46.88452" lon="-2.14889">
        <ele>7.2</ele>
        <time>2020-06-04T10:48:44Z</time>
      </trkpt>
      <trkpt lat="46.88454" lon="-2.14893">
        <ele>7.4</ele>
        <time>2020-06-04T10:48:45Z</time>
      </trkpt>
      <trkpt lat="46.88454" lon="-2.14898">
        <ele>7.5</ele>
        <time>2020-06-04T10:48:46Z</time>
      </trkpt>
      <trkpt lat="46.88454" lon="-2.14903">
        <ele>7.6</ele>
        <time>2020-06-04T10:48:47Z</time>
      </trkpt>
      <trkpt lat="46.88455" lon="-2.14908">
        <ele>7.7</ele>
        <time>2020-06-04T10:48:48Z</time>
      </trkpt>
      <trkpt lat="46.88456" lon="-2.14912">
        <ele>7.8</ele>
        <time>2020-06-04T10:48:49Z</time>
      </trkpt>
      <trkpt lat="46.88456" lon="-2.14914">
        <ele>7.8</ele>
        <time>2020-06-04T10:48:50Z</time>
      </trkpt>
      <trkpt lat="46.88457" lon="-2.14919">
        <ele>7.7</ele>
        <time>2020-06-04T10:48:51Z</time>
      </trkpt>
      <trkpt lat="46.88457" lon="-2.14922">
        <ele>7.7</ele>
        <time>2020-06-04T10:48:52Z</time>
      </trkpt>
      <trkpt lat="46.88457" lon="-2.14927">
        <ele>7.6</ele>
        <time>2020-06-04T10:48:53Z</time>
      </trkpt>
      <trkpt lat="46.88457" lon="-2.14929">
        <ele>7.6</ele>
        <time>2020-06-04T10:48:54Z</time>
      </trkpt>
      <trkpt lat="46.88457" lon="-2.14935">
        <ele>7.4</ele>
        <time>2020-06-04T10:48:55Z</time>
      </trkpt>
      <trkpt lat="46.88459" lon="-2.14938">
        <ele>7.3</ele>
        <time>2020-06-04T10:48:56Z</time>
      </trkpt>
      <trkpt lat="46.88462" lon="-2.14942">
        <ele>7.1</ele>
        <time>2020-06-04T10:48:57Z</time>
      </trkpt>
      <trkpt lat="46.88465" lon="-2.14946">
        <ele>6.9</ele>
        <time>2020-06-04T10:48:58Z</time>
      </trkpt>
      <trkpt lat="46.88467" lon="-2.14952">
        <ele>6.7</ele>
        <time>2020-06-04T10:48:59Z</time>
      </trkpt>
      <trkpt lat="46.8847" lon="-2.14957">
        <ele>6.5</ele>
        <time>2020-06-04T10:49:00Z</time>
      </trkpt>
      <trkpt lat="46.88473" lon="-2.14962">
        <ele>6.3</ele>
        <time>2020-06-04T10:49:01Z</time>
      </trkpt>
      <trkpt lat="46.88476" lon="-2.14967">
        <ele>6.1</ele>
        <time>2020-06-04T10:49:02Z</time>
      </trkpt>
      <trkpt lat="46.88479" lon="-2.14972">
        <ele>5.9</ele>
        <time>2020-06-04T10:49:03Z</time>
      </trkpt>
      <trkpt lat="46.88482" lon="-2.14977">
        <ele>5.8</ele>
        <time>2020-06-04T10:49:04Z</time>
      </trkpt>
      <trkpt lat="46.88485" lon="-2.14982">
        <ele>5.7</ele>
        <time>2020-06-04T10:49:05Z</time>
      </trkpt>
      <trkpt lat="46.88488" lon="-2.14988">
        <ele>5.5</ele>
        <time>2020-06-04T10:49:06Z</time>
      </trkpt>
      <trkpt lat="46.88492" lon="-2.14993">
        <ele>5.4</ele>
        <time>2020-06-04T10:49:07Z</time>
      </trkpt>
      <trkpt lat="46.88496" lon="-2.14998">
        <ele>5.4</ele>
        <time>2020-06-04T10:49:08Z</time>
      </trkpt>
      <trkpt lat="46.885" lon="-2.15003">
        <ele>5.3</ele>
        <time>2020-06-04T10:49:09Z</time>
      </trkpt>
      <trkpt lat="46.88504" lon="-2.15008">
        <ele>5.2</ele>
        <time>2020-06-04T10:49:10Z</time>
      </trkpt>
      <trkpt lat="46.88507" lon="-2.15013">
        <ele>5.2</ele>
        <time>2020-06-04T10:49:11Z</time>
      </trkpt>
      <trkpt lat="46.88511" lon="-2.15018">
        <ele>5.1</ele>
        <time>2020-06-04T10:49:12Z</time>
      </trkpt>
      <trkpt lat="46.88514" lon="-2.15022">
        <ele>5.1</ele>
        <time>2020-06-04T10:49:13Z</time>
      </trkpt>
      <trkpt lat="46.88517" lon="-2.15025">
        <ele>5</ele>
        <time>2020-06-04T10:49:14Z</time>
      </trkpt>
      <trkpt lat="46.88519" lon="-2.15026">
        <ele>4.9</ele>
        <time>2020-06-04T10:49:15Z</time>
      </trkpt>
      <trkpt lat="46.88522" lon="-2.15024">
        <ele>4.9</ele>
        <time>2020-06-04T10:49:16Z</time>
      </trkpt>
      <trkpt lat="46.88524" lon="-2.1502">
        <ele>4.9</ele>
        <time>2020-06-04T10:49:17Z</time>
      </trkpt>
      <trkpt lat="46.88525" lon="-2.15015">
        <ele>4.9</ele>
        <time>2020-06-04T10:49:18Z</time>
      </trkpt>
      <trkpt lat="46.88525" lon="-2.15014">
        <ele>4.9</ele>
        <time>2020-06-04T10:49:19Z</time>
      </trkpt>
      <trkpt lat="46.88524" lon="-2.15013">
        <ele>4.8</ele>
        <time>2020-06-04T10:49:20Z</time>
      </trkpt>
      <trkpt lat="46.88524" lon="-2.15012">
        <ele>4.8</ele>
        <time>2020-06-04T10:49:21Z</time>
      </trkpt>
      <trkpt lat="46.88524" lon="-2.15006">
        <ele>4.8</ele>
        <time>2020-06-04T10:49:22Z</time>
      </trkpt>
      <trkpt lat="46.88524" lon="-2.15">
        <ele>4.8</ele>
        <time>2020-06-04T10:49:23Z</time>
      </trkpt>
      <trkpt lat="46.88525" lon="-2.14991">
        <ele>4.7</ele>
        <time>2020-06-04T10:49:24Z</time>
      </trkpt>
      <trkpt lat="46.88526" lon="-2.14981">
        <ele>4.6</ele>
        <time>2020-06-04T10:49:25Z</time>
      </trkpt>
      <trkpt lat="46.88527" lon="-2.1497">
        <ele>4.6</ele>
        <time>2020-06-04T10:49:26Z</time>
      </trkpt>
      <trkpt lat="46.88527" lon="-2.14959">
        <ele>4.5</ele>
        <time>2020-06-04T10:49:27Z</time>
      </trkpt>
      <trkpt lat="46.88527" lon="-2.1495">
        <ele>4.5</ele>
        <time>2020-06-04T10:49:28Z</time>
      </trkpt>
      <trkpt lat="46.88526" lon="-2.14941">
        <ele>4.5</ele>
        <time>2020-06-04T10:49:29Z</time>
      </trkpt>
      <trkpt lat="46.88525" lon="-2.14932">
        <ele>4.6</ele>
        <time>2020-06-04T10:49:30Z</time>
      </trkpt>
      <trkpt lat="46.88525" lon="-2.14924">
        <ele>4.6</ele>
        <time>2020-06-04T10:49:31Z</time>
      </trkpt>
      <trkpt lat="46.88525" lon="-2.14918">
        <ele>4.6</ele>
        <time>2020-06-04T10:49:32Z</time>
      </trkpt>
      <trkpt lat="46.88525" lon="-2.14911">
        <ele>4.6</ele>
        <time>2020-06-04T10:49:33Z</time>
      </trkpt>
      <trkpt lat="46.88524" lon="-2.14905">
        <ele>4.6</ele>
        <time>2020-06-04T10:49:34Z</time>
      </trkpt>
      <trkpt lat="46.88523" lon="-2.14897">
        <ele>4.6</ele>
        <time>2020-06-04T10:49:35Z</time>
      </trkpt>
      <trkpt lat="46.88522" lon="-2.14891">
        <ele>4.6</ele>
        <time>2020-06-04T10:49:36Z</time>
      </trkpt>
      <trkpt lat="46.88521" lon="-2.14883">
        <ele>4.6</ele>
        <time>2020-06-04T10:49:37Z</time>
      </trkpt>
      <trkpt lat="46.88521" lon="-2.14875">
        <ele>4.5</ele>
        <time>2020-06-04T10:49:38Z</time>
      </trkpt>
      <trkpt lat="46.88521" lon="-2.14867">
        <ele>4.5</ele>
        <time>2020-06-04T10:49:39Z</time>
      </trkpt>
      <trkpt lat="46.88521" lon="-2.14859">
        <ele>4.4</ele>
        <time>2020-06-04T10:49:40Z</time>
      </trkpt>
      <trkpt lat="46.88521" lon="-2.14851">
        <ele>4.3</ele>
        <time>2020-06-04T10:49:41Z</time>
      </trkpt>
      <trkpt lat="46.88522" lon="-2.14842">
        <ele>4.3</ele>
        <time>2020-06-04T10:49:42Z</time>
      </trkpt>
      <trkpt lat="46.88523" lon="-2.14835">
        <ele>4.2</ele>
        <time>2020-06-04T10:49:43Z</time>
      </trkpt>
      <trkpt lat="46.88523" lon="-2.14828">
        <ele>4.2</ele>
        <time>2020-06-04T10:49:44Z</time>
      </trkpt>
      <trkpt lat="46.88523" lon="-2.14822">
        <ele>4.2</ele>
        <time>2020-06-04T10:49:45Z</time>
      </trkpt>
      <trkpt lat="46.88524" lon="-2.14814">
        <ele>4.2</ele>
        <time>2020-06-04T10:49:46Z</time>
      </trkpt>
      <trkpt lat="46.88525" lon="-2.14804">
        <ele>4.2</ele>
        <time>2020-06-04T10:49:47Z</time>
      </trkpt>
      <trkpt lat="46.88525" lon="-2.14796">
        <ele>4.2</ele>
        <time>2020-06-04T10:49:48Z</time>
      </trkpt>
      <trkpt lat="46.88525" lon="-2.14788">
        <ele>4.2</ele>
        <time>2020-06-04T10:49:49Z</time>
      </trkpt>
      <trkpt lat="46.88526" lon="-2.1478">
        <ele>4.2</ele>
        <time>2020-06-04T10:49:50Z</time>
      </trkpt>
      <trkpt lat="46.88525" lon="-2.14773">
        <ele>4.2</ele>
        <time>2020-06-04T10:49:51Z</time>
      </trkpt>
      <trkpt lat="46.88524" lon="-2.14767">
        <ele>4.2</ele>
        <time>2020-06-04T10:49:52Z</time>
      </trkpt>
      <trkpt lat="46.88523" lon="-2.1476">
        <ele>4.2</ele>
        <time>2020-06-04T10:49:53Z</time>
      </trkpt>
      <trkpt lat="46.88521" lon="-2.14754">
        <ele>4.2</ele>
        <time>2020-06-04T10:49:54Z</time>
      </trkpt>
      <trkpt lat="46.88519" lon="-2.14749">
        <ele>4.2</ele>
        <time>2020-06-04T10:49:55Z</time>
      </trkpt>
      <trkpt lat="46.88517" lon="-2.14742">
        <ele>4.2</ele>
        <time>2020-06-04T10:49:56Z</time>
      </trkpt>
      <trkpt lat="46.88516" lon="-2.14737">
        <ele>4.2</ele>
        <time>2020-06-04T10:49:57Z</time>
      </trkpt>
      <trkpt lat="46.88514" lon="-2.14731">
        <ele>4.2</ele>
        <time>2020-06-04T10:49:58Z</time>
      </trkpt>
      <trkpt lat="46.88513" lon="-2.14727">
        <ele>4.2</ele>
        <time>2020-06-04T10:49:59Z</time>
      </trkpt>
      <trkpt lat="46.88512" lon="-2.14722">
        <ele>4.2</ele>
        <time>2020-06-04T10:50:00Z</time>
      </trkpt>
      <trkpt lat="46.88511" lon="-2.14715">
        <ele>4.2</ele>
        <time>2020-06-04T10:50:01Z</time>
      </trkpt>
      <trkpt lat="46.88509" lon="-2.14708">
        <ele>4.2</ele>
        <time>2020-06-04T10:50:02Z</time>
      </trkpt>
      <trkpt lat="46.88508" lon="-2.14702">
        <ele>4.3</ele>
        <time>2020-06-04T10:50:03Z</time>
      </trkpt>
      <trkpt lat="46.88507" lon="-2.14697">
        <ele>4.3</ele>
        <time>2020-06-04T10:50:04Z</time>
      </trkpt>
      <trkpt lat="46.88506" lon="-2.14691">
        <ele>4.3</ele>
        <time>2020-06-04T10:50:05Z</time>
      </trkpt>
      <trkpt lat="46.88506" lon="-2.14683">
        <ele>4.3</ele>
        <time>2020-06-04T10:50:06Z</time>
      </trkpt>
      <trkpt lat="46.88505" lon="-2.14676">
        <ele>4.3</ele>
        <time>2020-06-04T10:50:07Z</time>
      </trkpt>
      <trkpt lat="46.88504" lon="-2.14669">
        <ele>4.3</ele>
        <time>2020-06-04T10:50:08Z</time>
      </trkpt>
      <trkpt lat="46.88504" lon="-2.14662">
        <ele>4.3</ele>
        <time>2020-06-04T10:50:09Z</time>
      </trkpt>
      <trkpt lat="46.88504" lon="-2.14657">
        <ele>4.3</ele>
        <time>2020-06-04T10:50:10Z</time>
      </trkpt>
      <trkpt lat="46.88504" lon="-2.14652">
        <ele>4.2</ele>
        <time>2020-06-04T10:50:11Z</time>
      </trkpt>
      <trkpt lat="46.88504" lon="-2.14647">
        <ele>4.2</ele>
        <time>2020-06-04T10:50:12Z</time>
      </trkpt>
      <trkpt lat="46.88503" lon="-2.14641">
        <ele>4.2</ele>
        <time>2020-06-04T10:50:13Z</time>
      </trkpt>
      <trkpt lat="46.88503" lon="-2.14637">
        <ele>4.1</ele>
        <time>2020-06-04T10:50:14Z</time>
      </trkpt>
      <trkpt lat="46.88503" lon="-2.14632">
        <ele>4.1</ele>
        <time>2020-06-04T10:50:15Z</time>
      </trkpt>
      <trkpt lat="46.88504" lon="-2.14625">
        <ele>4</ele>
        <time>2020-06-04T10:50:16Z</time>
      </trkpt>
      <trkpt lat="46.88504" lon="-2.14616">
        <ele>3.9</ele>
        <time>2020-06-04T10:50:17Z</time>
      </trkpt>
      <trkpt lat="46.88504" lon="-2.14605">
        <ele>3.8</ele>
        <time>2020-06-04T10:50:18Z</time>
      </trkpt>
      <trkpt lat="46.88504" lon="-2.14595">
        <ele>3.7</ele>
        <time>2020-06-04T10:50:19Z</time>
      </trkpt>
      <trkpt lat="46.88504" lon="-2.14584">
        <ele>3.6</ele>
        <time>2020-06-04T10:50:20Z</time>
      </trkpt>
      <trkpt lat="46.88504" lon="-2.14574">
        <ele>3.6</ele>
        <time>2020-06-04T10:50:21Z</time>
      </trkpt>
      <trkpt lat="46.88505" lon="-2.14565">
        <ele>3.5</ele>
        <time>2020-06-04T10:50:22Z</time>
      </trkpt>
      <trkpt lat="46.88505" lon="-2.14555">
        <ele>3.4</ele>
        <time>2020-06-04T10:50:23Z</time>
      </trkpt>
      <trkpt lat="46.88506" lon="-2.14545">
        <ele>3.4</ele>
        <time>2020-06-04T10:50:24Z</time>
      </trkpt>
      <trkpt lat="46.88508" lon="-2.14538">
        <ele>3.4</ele>
        <time>2020-06-04T10:50:25Z</time>
      </trkpt>
      <trkpt lat="46.8851" lon="-2.14531">
        <ele>3.3</ele>
        <time>2020-06-04T10:50:26Z</time>
      </trkpt>
      <trkpt lat="46.88511" lon="-2.14523">
        <ele>3.3</ele>
        <time>2020-06-04T10:50:27Z</time>
      </trkpt>
      <trkpt lat="46.88513" lon="-2.14516">
        <ele>3.3</ele>
        <time>2020-06-04T10:50:28Z</time>
      </trkpt>
      <trkpt lat="46.88514" lon="-2.14508">
        <ele>3.2</ele>
        <time>2020-06-04T10:50:29Z</time>
      </trkpt>
      <trkpt lat="46.88514" lon="-2.14501">
        <ele>3.2</ele>
        <time>2020-06-04T10:50:30Z</time>
      </trkpt>
      <trkpt lat="46.88514" lon="-2.14491">
        <ele>3.2</ele>
        <time>2020-06-04T10:50:31Z</time>
      </trkpt>
      <trkpt lat="46.88513" lon="-2.14483">
        <ele>3.2</ele>
        <time>2020-06-04T10:50:32Z</time>
      </trkpt>
      <trkpt lat="46.88513" lon="-2.14475">
        <ele>3.2</ele>
        <time>2020-06-04T10:50:33Z</time>
      </trkpt>
      <trkpt lat="46.88513" lon="-2.14468">
        <ele>3.2</ele>
        <time>2020-06-04T10:50:34Z</time>
      </trkpt>
      <trkpt lat="46.88512" lon="-2.1446">
        <ele>3.2</ele>
        <time>2020-06-04T10:50:35Z</time>
      </trkpt>
      <trkpt lat="46.88513" lon="-2.14456">
        <ele>3.2</ele>
        <time>2020-06-04T10:50:36Z</time>
      </trkpt>
      <trkpt lat="46.88513" lon="-2.1445">
        <ele>3.2</ele>
        <time>2020-06-04T10:50:37Z</time>
      </trkpt>
      <trkpt lat="46.88513" lon="-2.14443">
        <ele>3.2</ele>
        <time>2020-06-04T10:50:38Z</time>
      </trkpt>
      <trkpt lat="46.88514" lon="-2.14435">
        <ele>3.3</ele>
        <time>2020-06-04T10:50:39Z</time>
      </trkpt>
      <trkpt lat="46.88516" lon="-2.14428">
        <ele>3.3</ele>
        <time>2020-06-04T10:50:40Z</time>
      </trkpt>
      <trkpt lat="46.88517" lon="-2.14423">
        <ele>3.3</ele>
        <time>2020-06-04T10:50:41Z</time>
      </trkpt>
      <trkpt lat="46.88518" lon="-2.14416">
        <ele>3.4</ele>
        <time>2020-06-04T10:50:42Z</time>
      </trkpt>
      <trkpt lat="46.8852" lon="-2.14409">
        <ele>3.4</ele>
        <time>2020-06-04T10:50:43Z</time>
      </trkpt>
      <trkpt lat="46.88522" lon="-2.14404">
        <ele>3.4</ele>
        <time>2020-06-04T10:50:44Z</time>
      </trkpt>
      <trkpt lat="46.88526" lon="-2.14401">
        <ele>3.4</ele>
        <time>2020-06-04T10:50:45Z</time>
      </trkpt>
      <trkpt lat="46.8853" lon="-2.144">
        <ele>3.4</ele>
        <time>2020-06-04T10:50:46Z</time>
      </trkpt>
      <trkpt lat="46.88534" lon="-2.14397">
        <ele>3.5</ele>
        <time>2020-06-04T10:50:47Z</time>
      </trkpt>
      <trkpt lat="46.88538" lon="-2.14393">
        <ele>3.5</ele>
        <time>2020-06-04T10:50:48Z</time>
      </trkpt>
      <trkpt lat="46.88541" lon="-2.14389">
        <ele>3.5</ele>
        <time>2020-06-04T10:50:49Z</time>
      </trkpt>
      <trkpt lat="46.88546" lon="-2.14384">
        <ele>3.6</ele>
        <time>2020-06-04T10:50:50Z</time>
      </trkpt>
      <trkpt lat="46.8855" lon="-2.14379">
        <ele>3.6</ele>
        <time>2020-06-04T10:50:51Z</time>
      </trkpt>
      <trkpt lat="46.88553" lon="-2.14375">
        <ele>3.6</ele>
        <time>2020-06-04T10:50:52Z</time>
      </trkpt>
      <trkpt lat="46.88558" lon="-2.14372">
        <ele>3.7</ele>
        <time>2020-06-04T10:50:53Z</time>
      </trkpt>
      <trkpt lat="46.88561" lon="-2.14369">
        <ele>3.7</ele>
        <time>2020-06-04T10:50:54Z</time>
      </trkpt>
      <trkpt lat="46.88565" lon="-2.14367">
        <ele>3.7</ele>
        <time>2020-06-04T10:50:55Z</time>
      </trkpt>
      <trkpt lat="46.88567" lon="-2.14364">
        <ele>3.7</ele>
        <time>2020-06-04T10:50:56Z</time>
      </trkpt>
      <trkpt lat="46.88568" lon="-2.1436">
        <ele>3.7</ele>
        <time>2020-06-04T10:50:57Z</time>
      </trkpt>
      <trkpt lat="46.88566" lon="-2.14354">
        <ele>3.7</ele>
        <time>2020-06-04T10:50:58Z</time>
      </trkpt>
      <trkpt lat="46.88565" lon="-2.14346">
        <ele>3.7</ele>
        <time>2020-06-04T10:50:59Z</time>
      </trkpt>
      <trkpt lat="46.88565" lon="-2.14342">
        <ele>3.7</ele>
        <time>2020-06-04T10:51:00Z</time>
      </trkpt>
      <trkpt lat="46.88565" lon="-2.14335">
        <ele>3.7</ele>
        <time>2020-06-04T10:51:01Z</time>
      </trkpt>
      <trkpt lat="46.88566" lon="-2.14328">
        <ele>3.7</ele>
        <time>2020-06-04T10:51:02Z</time>
      </trkpt>
      <trkpt lat="46.88568" lon="-2.1432">
        <ele>3.6</ele>
        <time>2020-06-04T10:51:03Z</time>
      </trkpt>
      <trkpt lat="46.88568" lon="-2.14313">
        <ele>3.6</ele>
        <time>2020-06-04T10:51:04Z</time>
      </trkpt>
      <trkpt lat="46.88569" lon="-2.14306">
        <ele>3.6</ele>
        <time>2020-06-04T10:51:05Z</time>
      </trkpt>
      <trkpt lat="46.8857" lon="-2.143">
        <ele>3.6</ele>
        <time>2020-06-04T10:51:06Z</time>
      </trkpt>
      <trkpt lat="46.8857" lon="-2.14295">
        <ele>3.6</ele>
        <time>2020-06-04T10:51:07Z</time>
      </trkpt>
      <trkpt lat="46.8857" lon="-2.1429">
        <ele>3.6</ele>
        <time>2020-06-04T10:51:08Z</time>
      </trkpt>
      <trkpt lat="46.8857" lon="-2.14285">
        <ele>3.6</ele>
        <time>2020-06-04T10:51:09Z</time>
      </trkpt>
      <trkpt lat="46.88568" lon="-2.14283">
        <ele>3.6</ele>
        <time>2020-06-04T10:51:10Z</time>
      </trkpt>
      <trkpt lat="46.88569" lon="-2.1428">
        <ele>3.6</ele>
        <time>2020-06-04T10:51:11Z</time>
      </trkpt>
      <trkpt lat="46.8857" lon="-2.14279">
        <ele>3.6</ele>
        <time>2020-06-04T10:51:12Z</time>
      </trkpt>
      <trkpt lat="46.88571" lon="-2.14278">
        <ele>3.6</ele>
        <time>2020-06-04T10:51:13Z</time>
      </trkpt>
      <trkpt lat="46.88572" lon="-2.14277">
        <ele>3.6</ele>
        <time>2020-06-04T10:51:14Z</time>
      </trkpt>
      <trkpt lat="46.88573" lon="-2.14276">
        <ele>3.6</ele>
        <time>2020-06-04T10:51:15Z</time>
      </trkpt>
      <trkpt lat="46.88576" lon="-2.14277">
        <ele>3.6</ele>
        <time>2020-06-04T10:51:16Z</time>
      </trkpt>
      <trkpt lat="46.88578" lon="-2.14279">
        <ele>3.6</ele>
        <time>2020-06-04T10:51:17Z</time>
      </trkpt>
      <trkpt lat="46.8858" lon="-2.14282">
        <ele>3.6</ele>
        <time>2020-06-04T10:51:18Z</time>
      </trkpt>
      <trkpt lat="46.88583" lon="-2.14285">
        <ele>3.7</ele>
        <time>2020-06-04T10:51:19Z</time>
      </trkpt>
      <trkpt lat="46.88584" lon="-2.14285">
        <ele>3.7</ele>
        <time>2020-06-04T10:51:20Z</time>
      </trkpt>
      <trkpt lat="46.88587" lon="-2.14284">
        <ele>3.7</ele>
        <time>2020-06-04T10:51:21Z</time>
      </trkpt>
      <trkpt lat="46.8859" lon="-2.14283">
        <ele>3.7</ele>
        <time>2020-06-04T10:51:22Z</time>
      </trkpt>
      <trkpt lat="46.88591" lon="-2.14282">
        <ele>3.7</ele>
        <time>2020-06-04T10:51:23Z</time>
      </trkpt>
      <trkpt lat="46.88592" lon="-2.14282">
        <ele>3.7</ele>
        <time>2020-06-04T10:51:24Z</time>
      </trkpt>
      <trkpt lat="46.88593" lon="-2.14282">
        <ele>3.7</ele>
        <time>2020-06-04T10:51:25Z</time>
      </trkpt>
      <trkpt lat="46.88594" lon="-2.14282">
        <ele>3.7</ele>
        <time>2020-06-04T10:51:26Z</time>
      </trkpt>
      <trkpt lat="46.88597" lon="-2.14285">
        <ele>3.7</ele>
        <time>2020-06-04T10:51:27Z</time>
      </trkpt>
      <trkpt lat="46.88598" lon="-2.14286">
        <ele>3.7</ele>
        <time>2020-06-04T10:51:28Z</time>
      </trkpt>
      <trkpt lat="46.88598" lon="-2.14284">
        <ele>3.7</ele>
        <time>2020-06-04T10:51:29Z</time>
      </trkpt>
      <trkpt lat="46.88598" lon="-2.14284">
        <ele>3.7</ele>
        <time>2020-06-04T10:51:30Z</time>
      </trkpt>
      <trkpt lat="46.88598" lon="-2.14285">
        <ele>3.7</ele>
        <time>2020-06-04T10:51:31Z</time>
      </trkpt>
      <trkpt lat="46.88598" lon="-2.14285">
        <ele>3.7</ele>
        <time>2020-06-04T10:51:32Z</time>
      </trkpt>
      <trkpt lat="46.88598" lon="-2.14285">
        <ele>3.7</ele>
        <time>2020-06-04T10:51:33Z</time>
      </trkpt>
      <trkpt lat="46.88598" lon="-2.14285">
        <ele>3.7</ele>
        <time>2020-06-04T10:51:34Z</time>
      </trkpt>
      <trkpt lat="46.88598" lon="-2.14285">
        <ele>3.7</ele>
        <time>2020-06-04T10:51:35Z</time>
      </trkpt>
      <trkpt lat="46.88598" lon="-2.14285">
        <ele>3.7</ele>
        <time>2020-06-04T10:51:36Z</time>
      </trkpt>
      <trkpt lat="46.88598" lon="-2.14285">
        <ele>3.7</ele>
        <time>2020-06-04T10:51:37Z</time>
      </trkpt>
      <trkpt lat="46.88598" lon="-2.14285">
        <ele>3.7</ele>
        <time>2020-06-04T10:51:38Z</time>
      </trkpt>
      <trkpt lat="46.88598" lon="-2.14284">
        <ele>3.7</ele>
        <time>2020-06-04T10:51:39Z</time>
      </trkpt>
      <trkpt lat="46.88604" lon="-2.14282">
        <ele>3.7</ele>
        <time>2020-06-04T10:52:06Z</time>
      </trkpt>
      <trkpt lat="46.88605" lon="-2.14281">
        <ele>3.7</ele>
        <time>2020-06-04T10:52:07Z</time>
      </trkpt>
      <trkpt lat="46.88608" lon="-2.14279">
        <ele>3.6</ele>
        <time>2020-06-04T10:52:08Z</time>
      </trkpt>
      <trkpt lat="46.88609" lon="-2.14279">
        <ele>3.6</ele>
        <time>2020-06-04T10:52:09Z</time>
      </trkpt>
      <trkpt lat="46.88613" lon="-2.14279">
        <ele>3.6</ele>
        <time>2020-06-04T10:52:10Z</time>
      </trkpt>
      <trkpt lat="46.88614" lon="-2.14279">
        <ele>3.6</ele>
        <time>2020-06-04T10:52:11Z</time>
      </trkpt>
      <trkpt lat="46.88617" lon="-2.1428">
        <ele>3.6</ele>
        <time>2020-06-04T10:52:12Z</time>
      </trkpt>
      <trkpt lat="46.88619" lon="-2.1428">
        <ele>3.5</ele>
        <time>2020-06-04T10:52:13Z</time>
      </trkpt>
      <trkpt lat="46.88622" lon="-2.1428">
        <ele>3.5</ele>
        <time>2020-06-04T10:52:14Z</time>
      </trkpt>
      <trkpt lat="46.88624" lon="-2.1428">
        <ele>3.5</ele>
        <time>2020-06-04T10:52:15Z</time>
      </trkpt>
      <trkpt lat="46.88627" lon="-2.14281">
        <ele>3.5</ele>
        <time>2020-06-04T10:52:16Z</time>
      </trkpt>
      <trkpt lat="46.8863" lon="-2.14282">
        <ele>3.5</ele>
        <time>2020-06-04T10:52:17Z</time>
      </trkpt>
      <trkpt lat="46.88633" lon="-2.14282">
        <ele>3.5</ele>
        <time>2020-06-04T10:52:18Z</time>
      </trkpt>
      <trkpt lat="46.88636" lon="-2.14285">
        <ele>3.4</ele>
        <time>2020-06-04T10:52:19Z</time>
      </trkpt>
      <trkpt lat="46.88641" lon="-2.14286">
        <ele>3.5</ele>
        <time>2020-06-04T10:52:20Z</time>
      </trkpt>
      <trkpt lat="46.88646" lon="-2.14287">
        <ele>3.5</ele>
        <time>2020-06-04T10:52:21Z</time>
      </trkpt>
      <trkpt lat="46.88649" lon="-2.14289">
        <ele>3.5</ele>
        <time>2020-06-04T10:52:22Z</time>
      </trkpt>
      <trkpt lat="46.88653" lon="-2.1429">
        <ele>3.5</ele>
        <time>2020-06-04T10:52:23Z</time>
      </trkpt>
      <trkpt lat="46.88657" lon="-2.14291">
        <ele>3.5</ele>
        <time>2020-06-04T10:52:24Z</time>
      </trkpt>
      <trkpt lat="46.88662" lon="-2.14292">
        <ele>3.5</ele>
        <time>2020-06-04T10:52:25Z</time>
      </trkpt>
      <trkpt lat="46.88666" lon="-2.14292">
        <ele>3.5</ele>
        <time>2020-06-04T10:52:26Z</time>
      </trkpt>
      <trkpt lat="46.88671" lon="-2.14292">
        <ele>3.6</ele>
        <time>2020-06-04T10:52:27Z</time>
      </trkpt>
      <trkpt lat="46.88675" lon="-2.14292">
        <ele>3.6</ele>
        <time>2020-06-04T10:52:28Z</time>
      </trkpt>
      <trkpt lat="46.88679" lon="-2.14293">
        <ele>3.6</ele>
        <time>2020-06-04T10:52:29Z</time>
      </trkpt>
      <trkpt lat="46.88683" lon="-2.14293">
        <ele>3.6</ele>
        <time>2020-06-04T10:52:30Z</time>
      </trkpt>
      <trkpt lat="46.88687" lon="-2.14295">
        <ele>3.6</ele>
        <time>2020-06-04T10:52:31Z</time>
      </trkpt>
      <trkpt lat="46.88692" lon="-2.14296">
        <ele>3.7</ele>
        <time>2020-06-04T10:52:32Z</time>
      </trkpt>
      <trkpt lat="46.88696" lon="-2.14296">
        <ele>3.7</ele>
        <time>2020-06-04T10:52:33Z</time>
      </trkpt>
      <trkpt lat="46.887" lon="-2.14296">
        <ele>3.7</ele>
        <time>2020-06-04T10:52:34Z</time>
      </trkpt>
      <trkpt lat="46.88704" lon="-2.14296">
        <ele>3.7</ele>
        <time>2020-06-04T10:52:35Z</time>
      </trkpt>
      <trkpt lat="46.88708" lon="-2.14295">
        <ele>3.8</ele>
        <time>2020-06-04T10:52:36Z</time>
      </trkpt>
      <trkpt lat="46.88712" lon="-2.14295">
        <ele>3.8</ele>
        <time>2020-06-04T10:52:37Z</time>
      </trkpt>
      <trkpt lat="46.88717" lon="-2.14296">
        <ele>3.9</ele>
        <time>2020-06-04T10:52:38Z</time>
      </trkpt>
      <trkpt lat="46.88722" lon="-2.14297">
        <ele>3.9</ele>
        <time>2020-06-04T10:52:39Z</time>
      </trkpt>
      <trkpt lat="46.88727" lon="-2.14296">
        <ele>4</ele>
        <time>2020-06-04T10:52:40Z</time>
      </trkpt>
      <trkpt lat="46.88732" lon="-2.14296">
        <ele>4.1</ele>
        <time>2020-06-04T10:52:41Z</time>
      </trkpt>
      <trkpt lat="46.88735" lon="-2.14295">
        <ele>4.1</ele>
        <time>2020-06-04T10:52:42Z</time>
      </trkpt>
      <trkpt lat="46.88739" lon="-2.14296">
        <ele>4.2</ele>
        <time>2020-06-04T10:52:43Z</time>
      </trkpt>
      <trkpt lat="46.88744" lon="-2.14296">
        <ele>4.3</ele>
        <time>2020-06-04T10:52:44Z</time>
      </trkpt>
      <trkpt lat="46.88747" lon="-2.14297">
        <ele>4.3</ele>
        <time>2020-06-04T10:52:45Z</time>
      </trkpt>
      <trkpt lat="46.88751" lon="-2.14299">
        <ele>4.3</ele>
        <time>2020-06-04T10:52:46Z</time>
      </trkpt>
      <trkpt lat="46.88755" lon="-2.143">
        <ele>4.4</ele>
        <time>2020-06-04T10:52:47Z</time>
      </trkpt>
      <trkpt lat="46.88758" lon="-2.14301">
        <ele>4.4</ele>
        <time>2020-06-04T10:52:48Z</time>
      </trkpt>
      <trkpt lat="46.88762" lon="-2.14303">
        <ele>4.4</ele>
        <time>2020-06-04T10:52:49Z</time>
      </trkpt>
      <trkpt lat="46.88765" lon="-2.14303">
        <ele>4.4</ele>
        <time>2020-06-04T10:52:50Z</time>
      </trkpt>
      <trkpt lat="46.88769" lon="-2.14304">
        <ele>4.4</ele>
        <time>2020-06-04T10:52:51Z</time>
      </trkpt>
      <trkpt lat="46.88773" lon="-2.14304">
        <ele>4.4</ele>
        <time>2020-06-04T10:52:52Z</time>
      </trkpt>
      <trkpt lat="46.88778" lon="-2.14305">
        <ele>4.4</ele>
        <time>2020-06-04T10:52:53Z</time>
      </trkpt>
      <trkpt lat="46.88782" lon="-2.14306">
        <ele>4.4</ele>
        <time>2020-06-04T10:52:54Z</time>
      </trkpt>
      <trkpt lat="46.88786" lon="-2.14307">
        <ele>4.4</ele>
        <time>2020-06-04T10:52:55Z</time>
      </trkpt>
      <trkpt lat="46.8879" lon="-2.14307">
        <ele>4.4</ele>
        <time>2020-06-04T10:52:56Z</time>
      </trkpt>
      <trkpt lat="46.88795" lon="-2.14307">
        <ele>4.5</ele>
        <time>2020-06-04T10:52:57Z</time>
      </trkpt>
      <trkpt lat="46.888" lon="-2.14308">
        <ele>4.5</ele>
        <time>2020-06-04T10:52:58Z</time>
      </trkpt>
      <trkpt lat="46.88804" lon="-2.14308">
        <ele>4.5</ele>
        <time>2020-06-04T10:52:59Z</time>
      </trkpt>
      <trkpt lat="46.88808" lon="-2.14309">
        <ele>4.5</ele>
        <time>2020-06-04T10:53:00Z</time>
      </trkpt>
      <trkpt lat="46.88813" lon="-2.14309">
        <ele>4.6</ele>
        <time>2020-06-04T10:53:01Z</time>
      </trkpt>
      <trkpt lat="46.88818" lon="-2.1431">
        <ele>4.6</ele>
        <time>2020-06-04T10:53:02Z</time>
      </trkpt>
      <trkpt lat="46.88825" lon="-2.14311">
        <ele>4.8</ele>
        <time>2020-06-04T10:53:03Z</time>
      </trkpt>
      <trkpt lat="46.88831" lon="-2.14312">
        <ele>4.9</ele>
        <time>2020-06-04T10:53:04Z</time>
      </trkpt>
      <trkpt lat="46.88838" lon="-2.14313">
        <ele>5.2</ele>
        <time>2020-06-04T10:53:05Z</time>
      </trkpt>
      <trkpt lat="46.88845" lon="-2.14312">
        <ele>5.5</ele>
        <time>2020-06-04T10:53:06Z</time>
      </trkpt>
      <trkpt lat="46.8885" lon="-2.14312">
        <ele>5.8</ele>
        <time>2020-06-04T10:53:07Z</time>
      </trkpt>
      <trkpt lat="46.88855" lon="-2.14312">
        <ele>6.1</ele>
        <time>2020-06-04T10:53:08Z</time>
      </trkpt>
      <trkpt lat="46.88858" lon="-2.14311">
        <ele>6.4</ele>
        <time>2020-06-04T10:53:09Z</time>
      </trkpt>
      <trkpt lat="46.88862" lon="-2.14311">
        <ele>6.7</ele>
        <time>2020-06-04T10:53:10Z</time>
      </trkpt>
      <trkpt lat="46.88867" lon="-2.14311">
        <ele>7</ele>
        <time>2020-06-04T10:53:11Z</time>
      </trkpt>
      <trkpt lat="46.8887" lon="-2.14311">
        <ele>7.2</ele>
        <time>2020-06-04T10:53:12Z</time>
      </trkpt>
      <trkpt lat="46.88874" lon="-2.1431">
        <ele>7.5</ele>
        <time>2020-06-04T10:53:13Z</time>
      </trkpt>
      <trkpt lat="46.88875" lon="-2.1431">
        <ele>7.5</ele>
        <time>2020-06-04T10:53:14Z</time>
      </trkpt>
      <trkpt lat="46.8888" lon="-2.14309">
        <ele>7.7</ele>
        <time>2020-06-04T10:53:15Z</time>
      </trkpt>
      <trkpt lat="46.88881" lon="-2.14309">
        <ele>7.8</ele>
        <time>2020-06-04T10:53:16Z</time>
      </trkpt>
      <trkpt lat="46.88885" lon="-2.14307">
        <ele>8</ele>
        <time>2020-06-04T10:53:17Z</time>
      </trkpt>
      <trkpt lat="46.88889" lon="-2.14306">
        <ele>8.1</ele>
        <time>2020-06-04T10:53:18Z</time>
      </trkpt>
      <trkpt lat="46.88892" lon="-2.14306">
        <ele>8.2</ele>
        <time>2020-06-04T10:53:19Z</time>
      </trkpt>
      <trkpt lat="46.88896" lon="-2.14307">
        <ele>8.4</ele>
        <time>2020-06-04T10:53:20Z</time>
      </trkpt>
      <trkpt lat="46.88899" lon="-2.14309">
        <ele>8.5</ele>
        <time>2020-06-04T10:53:21Z</time>
      </trkpt>
      <trkpt lat="46.88902" lon="-2.14309">
        <ele>8.6</ele>
        <time>2020-06-04T10:53:22Z</time>
      </trkpt>
      <trkpt lat="46.88905" lon="-2.1431">
        <ele>8.7</ele>
        <time>2020-06-04T10:53:23Z</time>
      </trkpt>
      <trkpt lat="46.88908" lon="-2.14309">
        <ele>8.8</ele>
        <time>2020-06-04T10:53:24Z</time>
      </trkpt>
      <trkpt lat="46.88911" lon="-2.14309">
        <ele>8.9</ele>
        <time>2020-06-04T10:53:25Z</time>
      </trkpt>
      <trkpt lat="46.88914" lon="-2.1431">
        <ele>9</ele>
        <time>2020-06-04T10:53:26Z</time>
      </trkpt>
      <trkpt lat="46.88916" lon="-2.1431">
        <ele>9</ele>
        <time>2020-06-04T10:53:27Z</time>
      </trkpt>
      <trkpt lat="46.88919" lon="-2.14309">
        <ele>9.1</ele>
        <time>2020-06-04T10:53:28Z</time>
      </trkpt>
      <trkpt lat="46.88923" lon="-2.14309">
        <ele>9.2</ele>
        <time>2020-06-04T10:53:29Z</time>
      </trkpt>
      <trkpt lat="46.88926" lon="-2.14307">
        <ele>9.3</ele>
        <time>2020-06-04T10:53:30Z</time>
      </trkpt>
      <trkpt lat="46.88929" lon="-2.14305">
        <ele>9.4</ele>
        <time>2020-06-04T10:53:31Z</time>
      </trkpt>
      <trkpt lat="46.8893" lon="-2.14304">
        <ele>9.4</ele>
        <time>2020-06-04T10:53:32Z</time>
      </trkpt>
      <trkpt lat="46.88931" lon="-2.14302">
        <ele>9.4</ele>
        <time>2020-06-04T10:53:33Z</time>
      </trkpt>
      <trkpt lat="46.88932" lon="-2.143">
        <ele>9.4</ele>
        <time>2020-06-04T10:53:34Z</time>
      </trkpt>
      <trkpt lat="46.88932" lon="-2.14298">
        <ele>9.4</ele>
        <time>2020-06-04T10:53:35Z</time>
      </trkpt>
      <trkpt lat="46.88933" lon="-2.14296">
        <ele>9.4</ele>
        <time>2020-06-04T10:53:36Z</time>
      </trkpt>
      <trkpt lat="46.88934" lon="-2.14294">
        <ele>9.4</ele>
        <time>2020-06-04T10:53:37Z</time>
      </trkpt>
      <trkpt lat="46.88935" lon="-2.14293">
        <ele>9.4</ele>
        <time>2020-06-04T10:53:38Z</time>
      </trkpt>
      <trkpt lat="46.88936" lon="-2.14293">
        <ele>9.4</ele>
        <time>2020-06-04T10:53:39Z</time>
      </trkpt>
      <trkpt lat="46.88938" lon="-2.14293">
        <ele>9.4</ele>
        <time>2020-06-04T10:53:40Z</time>
      </trkpt>
      <trkpt lat="46.8894" lon="-2.14294">
        <ele>9.2</ele>
        <time>2020-06-04T10:53:41Z</time>
      </trkpt>
      <trkpt lat="46.8894" lon="-2.14294">
        <ele>9.2</ele>
        <time>2020-06-04T10:53:42Z</time>
      </trkpt>
      <trkpt lat="46.88941" lon="-2.14295">
        <ele>9.2</ele>
        <time>2020-06-04T10:53:43Z</time>
      </trkpt>
      <trkpt lat="46.88945" lon="-2.14293">
        <ele>9.1</ele>
        <time>2020-06-04T10:53:44Z</time>
      </trkpt>
      <trkpt lat="46.88946" lon="-2.14293">
        <ele>9.1</ele>
        <time>2020-06-04T10:53:45Z</time>
      </trkpt>
      <trkpt lat="46.88949" lon="-2.14295">
        <ele>9</ele>
        <time>2020-06-04T10:53:46Z</time>
      </trkpt>
      <trkpt lat="46.88951" lon="-2.14297">
        <ele>8.9</ele>
        <time>2020-06-04T10:53:47Z</time>
      </trkpt>
      <trkpt lat="46.88954" lon="-2.143">
        <ele>8.8</ele>
        <time>2020-06-04T10:53:48Z</time>
      </trkpt>
      <trkpt lat="46.88957" lon="-2.14302">
        <ele>8.8</ele>
        <time>2020-06-04T10:53:49Z</time>
      </trkpt>
      <trkpt lat="46.8896" lon="-2.14303">
        <ele>8.7</ele>
        <time>2020-06-04T10:53:50Z</time>
      </trkpt>
      <trkpt lat="46.88963" lon="-2.14305">
        <ele>8.6</ele>
        <time>2020-06-04T10:53:51Z</time>
      </trkpt>
      <trkpt lat="46.88965" lon="-2.14305">
        <ele>8.6</ele>
        <time>2020-06-04T10:53:52Z</time>
      </trkpt>
      <trkpt lat="46.88966" lon="-2.14304">
        <ele>8.5</ele>
        <time>2020-06-04T10:53:53Z</time>
      </trkpt>
      <trkpt lat="46.88969" lon="-2.143">
        <ele>8.4</ele>
        <time>2020-06-04T10:53:54Z</time>
      </trkpt>
      <trkpt lat="46.88972" lon="-2.14298">
        <ele>8.3</ele>
        <time>2020-06-04T10:53:55Z</time>
      </trkpt>
      <trkpt lat="46.88976" lon="-2.14299">
        <ele>8.2</ele>
        <time>2020-06-04T10:53:56Z</time>
      </trkpt>
      <trkpt lat="46.88977" lon="-2.14301">
        <ele>8.2</ele>
        <time>2020-06-04T10:53:57Z</time>
      </trkpt>
      <trkpt lat="46.8898" lon="-2.14303">
        <ele>8.2</ele>
        <time>2020-06-04T10:53:58Z</time>
      </trkpt>
      <trkpt lat="46.88983" lon="-2.14306">
        <ele>8.2</ele>
        <time>2020-06-04T10:53:59Z</time>
      </trkpt>
      <trkpt lat="46.88983" lon="-2.14307">
        <ele>8.2</ele>
        <time>2020-06-04T10:54:00Z</time>
      </trkpt>
      <trkpt lat="46.88985" lon="-2.14311">
        <ele>8.1</ele>
        <time>2020-06-04T10:54:01Z</time>
      </trkpt>
      <trkpt lat="46.88988" lon="-2.14315">
        <ele>8.1</ele>
        <time>2020-06-04T10:54:02Z</time>
      </trkpt>
      <trkpt lat="46.88991" lon="-2.14317">
        <ele>8</ele>
        <time>2020-06-04T10:54:03Z</time>
      </trkpt>
      <trkpt lat="46.88994" lon="-2.14321">
        <ele>8</ele>
        <time>2020-06-04T10:54:04Z</time>
      </trkpt>
      <trkpt lat="46.88996" lon="-2.14325">
        <ele>7.9</ele>
        <time>2020-06-04T10:54:05Z</time>
      </trkpt>
      <trkpt lat="46.88999" lon="-2.1433">
        <ele>7.9</ele>
        <time>2020-06-04T10:54:06Z</time>
      </trkpt>
      <trkpt lat="46.89002" lon="-2.14335">
        <ele>7.8</ele>
        <time>2020-06-04T10:54:07Z</time>
      </trkpt>
      <trkpt lat="46.89004" lon="-2.14341">
        <ele>7.8</ele>
        <time>2020-06-04T10:54:08Z</time>
      </trkpt>
      <trkpt lat="46.89006" lon="-2.14345">
        <ele>7.7</ele>
        <time>2020-06-04T10:54:09Z</time>
      </trkpt>
      <trkpt lat="46.89008" lon="-2.14349">
        <ele>7.7</ele>
        <time>2020-06-04T10:54:10Z</time>
      </trkpt>
      <trkpt lat="46.89011" lon="-2.14354">
        <ele>7.5</ele>
        <time>2020-06-04T10:54:11Z</time>
      </trkpt>
      <trkpt lat="46.89014" lon="-2.14358">
        <ele>7.5</ele>
        <time>2020-06-04T10:54:12Z</time>
      </trkpt>
      <trkpt lat="46.89016" lon="-2.14362">
        <ele>7.5</ele>
        <time>2020-06-04T10:54:13Z</time>
      </trkpt>
      <trkpt lat="46.89019" lon="-2.14364">
        <ele>7.5</ele>
        <time>2020-06-04T10:54:14Z</time>
      </trkpt>
      <trkpt lat="46.8902" lon="-2.14364">
        <ele>7.5</ele>
        <time>2020-06-04T10:54:15Z</time>
      </trkpt>
      <trkpt lat="46.89024" lon="-2.14361">
        <ele>7.5</ele>
        <time>2020-06-04T10:54:16Z</time>
      </trkpt>
      <trkpt lat="46.89025" lon="-2.14359">
        <ele>7.4</ele>
        <time>2020-06-04T10:54:17Z</time>
      </trkpt>
      <trkpt lat="46.89028" lon="-2.14356">
        <ele>7.4</ele>
        <time>2020-06-04T10:54:18Z</time>
      </trkpt>
      <trkpt lat="46.8903" lon="-2.14351">
        <ele>7.4</ele>
        <time>2020-06-04T10:54:19Z</time>
      </trkpt>
      <trkpt lat="46.89033" lon="-2.14348">
        <ele>7.4</ele>
        <time>2020-06-04T10:54:20Z</time>
      </trkpt>
      <trkpt lat="46.89036" lon="-2.14345">
        <ele>7.4</ele>
        <time>2020-06-04T10:54:21Z</time>
      </trkpt>
      <trkpt lat="46.89039" lon="-2.1434">
        <ele>7.4</ele>
        <time>2020-06-04T10:54:22Z</time>
      </trkpt>
      <trkpt lat="46.8904" lon="-2.14337">
        <ele>7.4</ele>
        <time>2020-06-04T10:54:23Z</time>
      </trkpt>
      <trkpt lat="46.89041" lon="-2.14334">
        <ele>7.3</ele>
        <time>2020-06-04T10:54:24Z</time>
      </trkpt>
      <trkpt lat="46.89043" lon="-2.14329">
        <ele>7.3</ele>
        <time>2020-06-04T10:54:25Z</time>
      </trkpt>
      <trkpt lat="46.89045" lon="-2.14325">
        <ele>7.3</ele>
        <time>2020-06-04T10:54:26Z</time>
      </trkpt>
      <trkpt lat="46.89046" lon="-2.14324">
        <ele>7.3</ele>
        <time>2020-06-04T10:54:27Z</time>
      </trkpt>
      <trkpt lat="46.89047" lon="-2.14318">
        <ele>7.3</ele>
        <time>2020-06-04T10:54:28Z</time>
      </trkpt>
      <trkpt lat="46.89049" lon="-2.14313">
        <ele>7.2</ele>
        <time>2020-06-04T10:54:29Z</time>
      </trkpt>
      <trkpt lat="46.89051" lon="-2.14308">
        <ele>7.2</ele>
        <time>2020-06-04T10:54:30Z</time>
      </trkpt>
      <trkpt lat="46.89053" lon="-2.14304">
        <ele>7.2</ele>
        <time>2020-06-04T10:54:31Z</time>
      </trkpt>
      <trkpt lat="46.89053" lon="-2.14302">
        <ele>7.2</ele>
        <time>2020-06-04T10:54:32Z</time>
      </trkpt>
      <trkpt lat="46.89056" lon="-2.14298">
        <ele>7.1</ele>
        <time>2020-06-04T10:54:33Z</time>
      </trkpt>
      <trkpt lat="46.89058" lon="-2.14294">
        <ele>7.1</ele>
        <time>2020-06-04T10:54:34Z</time>
      </trkpt>
      <trkpt lat="46.89059" lon="-2.1429">
        <ele>7.1</ele>
        <time>2020-06-04T10:54:35Z</time>
      </trkpt>
      <trkpt lat="46.89062" lon="-2.14286">
        <ele>7.1</ele>
        <time>2020-06-04T10:54:36Z</time>
      </trkpt>
      <trkpt lat="46.89063" lon="-2.14284">
        <ele>7.1</ele>
        <time>2020-06-04T10:54:37Z</time>
      </trkpt>
      <trkpt lat="46.89065" lon="-2.14281">
        <ele>7</ele>
        <time>2020-06-04T10:54:38Z</time>
      </trkpt>
      <trkpt lat="46.89068" lon="-2.14278">
        <ele>7</ele>
        <time>2020-06-04T10:54:39Z</time>
      </trkpt>
      <trkpt lat="46.89068" lon="-2.14277">
        <ele>7</ele>
        <time>2020-06-04T10:54:40Z</time>
      </trkpt>
      <trkpt lat="46.8907" lon="-2.14272">
        <ele>7</ele>
        <time>2020-06-04T10:54:41Z</time>
      </trkpt>
      <trkpt lat="46.89071" lon="-2.14271">
        <ele>7</ele>
        <time>2020-06-04T10:54:42Z</time>
      </trkpt>
      <trkpt lat="46.89073" lon="-2.14267">
        <ele>7</ele>
        <time>2020-06-04T10:54:43Z</time>
      </trkpt>
      <trkpt lat="46.89074" lon="-2.14263">
        <ele>6.9</ele>
        <time>2020-06-04T10:54:44Z</time>
      </trkpt>
      <trkpt lat="46.89077" lon="-2.14259">
        <ele>6.9</ele>
        <time>2020-06-04T10:54:45Z</time>
      </trkpt>
      <trkpt lat="46.89078" lon="-2.14254">
        <ele>6.9</ele>
        <time>2020-06-04T10:54:46Z</time>
      </trkpt>
      <trkpt lat="46.89081" lon="-2.14251">
        <ele>6.9</ele>
        <time>2020-06-04T10:54:47Z</time>
      </trkpt>
      <trkpt lat="46.89083" lon="-2.14248">
        <ele>6.9</ele>
        <time>2020-06-04T10:54:48Z</time>
      </trkpt>
      <trkpt lat="46.89085" lon="-2.14245">
        <ele>6.9</ele>
        <time>2020-06-04T10:54:49Z</time>
      </trkpt>
      <trkpt lat="46.89087" lon="-2.1424">
        <ele>6.9</ele>
        <time>2020-06-04T10:54:50Z</time>
      </trkpt>
      <trkpt lat="46.89088" lon="-2.14236">
        <ele>6.9</ele>
        <time>2020-06-04T10:54:51Z</time>
      </trkpt>
      <trkpt lat="46.89091" lon="-2.14232">
        <ele>6.8</ele>
        <time>2020-06-04T10:54:52Z</time>
      </trkpt>
      <trkpt lat="46.89093" lon="-2.14227">
        <ele>6.8</ele>
        <time>2020-06-04T10:54:53Z</time>
      </trkpt>
      <trkpt lat="46.89095" lon="-2.14223">
        <ele>6.8</ele>
        <time>2020-06-04T10:54:54Z</time>
      </trkpt>
      <trkpt lat="46.89098" lon="-2.14218">
        <ele>6.8</ele>
        <time>2020-06-04T10:54:55Z</time>
      </trkpt>
      <trkpt lat="46.891" lon="-2.14214">
        <ele>6.7</ele>
        <time>2020-06-04T10:54:56Z</time>
      </trkpt>
      <trkpt lat="46.89102" lon="-2.1421">
        <ele>6.7</ele>
        <time>2020-06-04T10:54:57Z</time>
      </trkpt>
      <trkpt lat="46.89103" lon="-2.14206">
        <ele>6.7</ele>
        <time>2020-06-04T10:54:58Z</time>
      </trkpt>
      <trkpt lat="46.89105" lon="-2.14201">
        <ele>6.7</ele>
        <time>2020-06-04T10:54:59Z</time>
      </trkpt>
      <trkpt lat="46.89106" lon="-2.14197">
        <ele>6.6</ele>
        <time>2020-06-04T10:55:00Z</time>
      </trkpt>
      <trkpt lat="46.89109" lon="-2.14194">
        <ele>6.6</ele>
        <time>2020-06-04T10:55:01Z</time>
      </trkpt>
      <trkpt lat="46.89111" lon="-2.1419">
        <ele>6.6</ele>
        <time>2020-06-04T10:55:02Z</time>
      </trkpt>
      <trkpt lat="46.89111" lon="-2.14188">
        <ele>6.5</ele>
        <time>2020-06-04T10:55:03Z</time>
      </trkpt>
      <trkpt lat="46.89114" lon="-2.14184">
        <ele>6.5</ele>
        <time>2020-06-04T10:55:04Z</time>
      </trkpt>
      <trkpt lat="46.89115" lon="-2.14183">
        <ele>6.5</ele>
        <time>2020-06-04T10:55:05Z</time>
      </trkpt>
      <trkpt lat="46.89116" lon="-2.14179">
        <ele>6.5</ele>
        <time>2020-06-04T10:55:06Z</time>
      </trkpt>
      <trkpt lat="46.89118" lon="-2.14174">
        <ele>6.4</ele>
        <time>2020-06-04T10:55:07Z</time>
      </trkpt>
      <trkpt lat="46.8912" lon="-2.14169">
        <ele>6.4</ele>
        <time>2020-06-04T10:55:08Z</time>
      </trkpt>
      <trkpt lat="46.89122" lon="-2.14164">
        <ele>6.4</ele>
        <time>2020-06-04T10:55:09Z</time>
      </trkpt>
      <trkpt lat="46.89124" lon="-2.14161">
        <ele>6.3</ele>
        <time>2020-06-04T10:55:10Z</time>
      </trkpt>
      <trkpt lat="46.89125" lon="-2.14157">
        <ele>6.3</ele>
        <time>2020-06-04T10:55:11Z</time>
      </trkpt>
      <trkpt lat="46.89126" lon="-2.14154">
        <ele>6.2</ele>
        <time>2020-06-04T10:55:12Z</time>
      </trkpt>
      <trkpt lat="46.89128" lon="-2.14149">
        <ele>6.2</ele>
        <time>2020-06-04T10:55:13Z</time>
      </trkpt>
      <trkpt lat="46.8913" lon="-2.14144">
        <ele>6.2</ele>
        <time>2020-06-04T10:55:14Z</time>
      </trkpt>
      <trkpt lat="46.8913" lon="-2.1414">
        <ele>6.1</ele>
        <time>2020-06-04T10:55:15Z</time>
      </trkpt>
      <trkpt lat="46.89131" lon="-2.14136">
        <ele>6.1</ele>
        <time>2020-06-04T10:55:16Z</time>
      </trkpt>
      <trkpt lat="46.89132" lon="-2.14132">
        <ele>6</ele>
        <time>2020-06-04T10:55:17Z</time>
      </trkpt>
      <trkpt lat="46.89134" lon="-2.14127">
        <ele>6</ele>
        <time>2020-06-04T10:55:18Z</time>
      </trkpt>
      <trkpt lat="46.89136" lon="-2.14122">
        <ele>5.9</ele>
        <time>2020-06-04T10:55:19Z</time>
      </trkpt>
      <trkpt lat="46.89137" lon="-2.1412">
        <ele>5.9</ele>
        <time>2020-06-04T10:55:20Z</time>
      </trkpt>
      <trkpt lat="46.8914" lon="-2.14114">
        <ele>5.9</ele>
        <time>2020-06-04T10:55:21Z</time>
      </trkpt>
      <trkpt lat="46.89142" lon="-2.14109">
        <ele>5.8</ele>
        <time>2020-06-04T10:55:22Z</time>
      </trkpt>
      <trkpt lat="46.89144" lon="-2.14103">
        <ele>5.8</ele>
        <time>2020-06-04T10:55:23Z</time>
      </trkpt>
      <trkpt lat="46.89147" lon="-2.14099">
        <ele>5.7</ele>
        <time>2020-06-04T10:55:24Z</time>
      </trkpt>
      <trkpt lat="46.89149" lon="-2.14093">
        <ele>5.7</ele>
        <time>2020-06-04T10:55:25Z</time>
      </trkpt>
      <trkpt lat="46.8915" lon="-2.14088">
        <ele>5.7</ele>
        <time>2020-06-04T10:55:26Z</time>
      </trkpt>
      <trkpt lat="46.89152" lon="-2.14083">
        <ele>5.6</ele>
        <time>2020-06-04T10:55:27Z</time>
      </trkpt>
      <trkpt lat="46.89155" lon="-2.14079">
        <ele>5.6</ele>
        <time>2020-06-04T10:55:28Z</time>
      </trkpt>
      <trkpt lat="46.89157" lon="-2.14074">
        <ele>5.6</ele>
        <time>2020-06-04T10:55:29Z</time>
      </trkpt>
      <trkpt lat="46.89158" lon="-2.14069">
        <ele>5.6</ele>
        <time>2020-06-04T10:55:30Z</time>
      </trkpt>
      <trkpt lat="46.8916" lon="-2.14065">
        <ele>5.6</ele>
        <time>2020-06-04T10:55:31Z</time>
      </trkpt>
      <trkpt lat="46.89162" lon="-2.1406">
        <ele>5.5</ele>
        <time>2020-06-04T10:55:32Z</time>
      </trkpt>
      <trkpt lat="46.89164" lon="-2.14056">
        <ele>5.5</ele>
        <time>2020-06-04T10:55:33Z</time>
      </trkpt>
      <trkpt lat="46.89166" lon="-2.1405">
        <ele>5.5</ele>
        <time>2020-06-04T10:55:34Z</time>
      </trkpt>
      <trkpt lat="46.89167" lon="-2.14045">
        <ele>5.5</ele>
        <time>2020-06-04T10:55:35Z</time>
      </trkpt>
      <trkpt lat="46.89169" lon="-2.14039">
        <ele>5.4</ele>
        <time>2020-06-04T10:55:36Z</time>
      </trkpt>
      <trkpt lat="46.89171" lon="-2.14034">
        <ele>5.4</ele>
        <time>2020-06-04T10:55:37Z</time>
      </trkpt>
      <trkpt lat="46.89174" lon="-2.14029">
        <ele>5.3</ele>
        <time>2020-06-04T10:55:38Z</time>
      </trkpt>
      <trkpt lat="46.89176" lon="-2.14024">
        <ele>5.3</ele>
        <time>2020-06-04T10:55:39Z</time>
      </trkpt>
      <trkpt lat="46.89178" lon="-2.1402">
        <ele>5.2</ele>
        <time>2020-06-04T10:55:40Z</time>
      </trkpt>
      <trkpt lat="46.8918" lon="-2.14016">
        <ele>5.2</ele>
        <time>2020-06-04T10:55:41Z</time>
      </trkpt>
      <trkpt lat="46.89182" lon="-2.14011">
        <ele>5.1</ele>
        <time>2020-06-04T10:55:42Z</time>
      </trkpt>
      <trkpt lat="46.89184" lon="-2.14006">
        <ele>5.1</ele>
        <time>2020-06-04T10:55:43Z</time>
      </trkpt>
      <trkpt lat="46.89186" lon="-2.14001">
        <ele>5</ele>
        <time>2020-06-04T10:55:44Z</time>
      </trkpt>
      <trkpt lat="46.89188" lon="-2.13996">
        <ele>5</ele>
        <time>2020-06-04T10:55:45Z</time>
      </trkpt>
      <trkpt lat="46.8919" lon="-2.1399">
        <ele>4.9</ele>
        <time>2020-06-04T10:55:46Z</time>
      </trkpt>
      <trkpt lat="46.89191" lon="-2.13985">
        <ele>4.8</ele>
        <time>2020-06-04T10:55:47Z</time>
      </trkpt>
      <trkpt lat="46.89193" lon="-2.13979">
        <ele>4.8</ele>
        <time>2020-06-04T10:55:48Z</time>
      </trkpt>
      <trkpt lat="46.89195" lon="-2.13974">
        <ele>4.7</ele>
        <time>2020-06-04T10:55:49Z</time>
      </trkpt>
      <trkpt lat="46.89197" lon="-2.1397">
        <ele>4.6</ele>
        <time>2020-06-04T10:55:50Z</time>
      </trkpt>
      <trkpt lat="46.89199" lon="-2.13964">
        <ele>4.6</ele>
        <time>2020-06-04T10:55:51Z</time>
      </trkpt>
      <trkpt lat="46.892" lon="-2.1396">
        <ele>4.5</ele>
        <time>2020-06-04T10:55:52Z</time>
      </trkpt>
      <trkpt lat="46.89202" lon="-2.13955">
        <ele>4.4</ele>
        <time>2020-06-04T10:55:53Z</time>
      </trkpt>
      <trkpt lat="46.89204" lon="-2.13949">
        <ele>4.3</ele>
        <time>2020-06-04T10:55:54Z</time>
      </trkpt>
      <trkpt lat="46.89206" lon="-2.13945">
        <ele>4.2</ele>
        <time>2020-06-04T10:55:55Z</time>
      </trkpt>
      <trkpt lat="46.89209" lon="-2.13942">
        <ele>4.1</ele>
        <time>2020-06-04T10:55:56Z</time>
      </trkpt>
      <trkpt lat="46.89211" lon="-2.13937">
        <ele>4</ele>
        <time>2020-06-04T10:55:57Z</time>
      </trkpt>
      <trkpt lat="46.89212" lon="-2.13936">
        <ele>4</ele>
        <time>2020-06-04T10:55:58Z</time>
      </trkpt>
      <trkpt lat="46.89213" lon="-2.13932">
        <ele>3.9</ele>
        <time>2020-06-04T10:55:59Z</time>
      </trkpt>
      <trkpt lat="46.89213" lon="-2.1393">
        <ele>3.8</ele>
        <time>2020-06-04T10:56:00Z</time>
      </trkpt>
      <trkpt lat="46.89215" lon="-2.13927">
        <ele>3.7</ele>
        <time>2020-06-04T10:56:01Z</time>
      </trkpt>
      <trkpt lat="46.89216" lon="-2.13925">
        <ele>3.7</ele>
        <time>2020-06-04T10:56:02Z</time>
      </trkpt>
      <trkpt lat="46.89216" lon="-2.1392">
        <ele>3.5</ele>
        <time>2020-06-04T10:56:03Z</time>
      </trkpt>
      <trkpt lat="46.89216" lon="-2.13917">
        <ele>3.4</ele>
        <time>2020-06-04T10:56:04Z</time>
      </trkpt>
      <trkpt lat="46.89217" lon="-2.13913">
        <ele>3.4</ele>
        <time>2020-06-04T10:56:05Z</time>
      </trkpt>
      <trkpt lat="46.89216" lon="-2.13911">
        <ele>3.4</ele>
        <time>2020-06-04T10:56:06Z</time>
      </trkpt>
      <trkpt lat="46.89214" lon="-2.13907">
        <ele>3.4</ele>
        <time>2020-06-04T10:56:07Z</time>
      </trkpt>
      <trkpt lat="46.89211" lon="-2.13904">
        <ele>3.4</ele>
        <time>2020-06-04T10:56:08Z</time>
      </trkpt>
      <trkpt lat="46.89207" lon="-2.13901">
        <ele>3.4</ele>
        <time>2020-06-04T10:56:09Z</time>
      </trkpt>
      <trkpt lat="46.89205" lon="-2.13898">
        <ele>3.4</ele>
        <time>2020-06-04T10:56:10Z</time>
      </trkpt>
      <trkpt lat="46.89203" lon="-2.13895">
        <ele>3.4</ele>
        <time>2020-06-04T10:56:11Z</time>
      </trkpt>
      <trkpt lat="46.89201" lon="-2.13891">
        <ele>3.4</ele>
        <time>2020-06-04T10:56:12Z</time>
      </trkpt>
      <trkpt lat="46.89199" lon="-2.13887">
        <ele>3.4</ele>
        <time>2020-06-04T10:56:13Z</time>
      </trkpt>
      <trkpt lat="46.89198" lon="-2.13885">
        <ele>3.4</ele>
        <time>2020-06-04T10:56:14Z</time>
      </trkpt>
      <trkpt lat="46.89195" lon="-2.1388">
        <ele>3.4</ele>
        <time>2020-06-04T10:56:15Z</time>
      </trkpt>
      <trkpt lat="46.89194" lon="-2.13878">
        <ele>3.3</ele>
        <time>2020-06-04T10:56:16Z</time>
      </trkpt>
      <trkpt lat="46.89194" lon="-2.13873">
        <ele>3.3</ele>
        <time>2020-06-04T10:56:17Z</time>
      </trkpt>
      <trkpt lat="46.89197" lon="-2.1387">
        <ele>3.3</ele>
        <time>2020-06-04T10:56:18Z</time>
      </trkpt>
      <trkpt lat="46.89199" lon="-2.13866">
        <ele>3.3</ele>
        <time>2020-06-04T10:56:19Z</time>
      </trkpt>
      <trkpt lat="46.892" lon="-2.13864">
        <ele>3.3</ele>
        <time>2020-06-04T10:56:20Z</time>
      </trkpt>
      <trkpt lat="46.89201" lon="-2.13863">
        <ele>3.3</ele>
        <time>2020-06-04T10:56:21Z</time>
      </trkpt>
      <trkpt lat="46.89201" lon="-2.13863">
        <ele>3.3</ele>
        <time>2020-06-04T10:56:22Z</time>
      </trkpt>
      <trkpt lat="46.89201" lon="-2.13863">
        <ele>3.3</ele>
        <time>2020-06-04T10:56:23Z</time>
      </trkpt>
      <trkpt lat="46.89201" lon="-2.13863">
        <ele>3.3</ele>
        <time>2020-06-04T10:56:24Z</time>
      </trkpt>
      <trkpt lat="46.89201" lon="-2.13863">
        <ele>3.3</ele>
        <time>2020-06-04T10:56:25Z</time>
      </trkpt>
      <trkpt lat="46.89202" lon="-2.13862">
        <ele>3.3</ele>
        <time>2020-06-04T10:56:26Z</time>
      </trkpt>
      <trkpt lat="46.89202" lon="-2.13861">
        <ele>3.3</ele>
        <time>2020-06-04T10:56:27Z</time>
      </trkpt>
      <trkpt lat="46.89202" lon="-2.13859">
        <ele>3.3</ele>
        <time>2020-06-04T10:56:28Z</time>
      </trkpt>
      <trkpt lat="46.89203" lon="-2.1386">
        <ele>3.3</ele>
        <time>2020-06-04T10:56:29Z</time>
      </trkpt>
      <trkpt lat="46.89203" lon="-2.1386">
        <ele>3.3</ele>
        <time>2020-06-04T10:56:30Z</time>
      </trkpt>
      <trkpt lat="46.89203" lon="-2.1386">
        <ele>3.3</ele>
        <time>2020-06-04T10:56:31Z</time>
      </trkpt>
      <trkpt lat="46.89203" lon="-2.1386">
        <ele>3.3</ele>
        <time>2020-06-04T10:56:32Z</time>
      </trkpt>
      <trkpt lat="46.89203" lon="-2.13859">
        <ele>3.3</ele>
        <time>2020-06-04T10:56:33Z</time>
      </trkpt>
      <trkpt lat="46.89203" lon="-2.13859">
        <ele>3.3</ele>
        <time>2020-06-04T10:56:34Z</time>
      </trkpt>
      <trkpt lat="46.89203" lon="-2.13859">
        <ele>3.3</ele>
        <time>2020-06-04T10:56:35Z</time>
      </trkpt>
      <trkpt lat="46.89203" lon="-2.13859">
        <ele>3.3</ele>
        <time>2020-06-04T10:56:36Z</time>
      </trkpt>
      <trkpt lat="46.89203" lon="-2.13859">
        <ele>3.3</ele>
        <time>2020-06-04T10:56:37Z</time>
      </trkpt>
      <trkpt lat="46.89203" lon="-2.13859">
        <ele>3.3</ele>
        <time>2020-06-04T10:56:38Z</time>
      </trkpt>
      <trkpt lat="46.89198" lon="-2.13891">
        <ele>3.3</ele>
        <time>2020-06-04T12:12:46Z</time>
      </trkpt>
      <trkpt lat="46.89209" lon="-2.13938">
        <ele>3.4</ele>
        <time>2020-06-04T12:12:47Z</time>
      </trkpt>
      <trkpt lat="46.89208" lon="-2.13939">
        <ele>3.4</ele>
        <time>2020-06-04T12:12:48Z</time>
      </trkpt>
      <trkpt lat="46.89212" lon="-2.13937">
        <ele>3.4</ele>
        <time>2020-06-04T12:12:49Z</time>
      </trkpt>
      <trkpt lat="46.89212" lon="-2.13936">
        <ele>3.4</ele>
        <time>2020-06-04T12:12:50Z</time>
      </trkpt>
      <trkpt lat="46.8921" lon="-2.13944">
        <ele>3.4</ele>
        <time>2020-06-04T12:12:52Z</time>
      </trkpt>
      <trkpt lat="46.89211" lon="-2.13945">
        <ele>3.4</ele>
        <time>2020-06-04T12:12:53Z</time>
      </trkpt>
      <trkpt lat="46.89211" lon="-2.13944">
        <ele>3.4</ele>
        <time>2020-06-04T12:12:54Z</time>
      </trkpt>
      <trkpt lat="46.89211" lon="-2.13943">
        <ele>3.4</ele>
        <time>2020-06-04T12:12:55Z</time>
      </trkpt>
      <trkpt lat="46.89211" lon="-2.1394">
        <ele>3.4</ele>
        <time>2020-06-04T12:12:56Z</time>
      </trkpt>
      <trkpt lat="46.89211" lon="-2.13938">
        <ele>3.4</ele>
        <time>2020-06-04T12:12:57Z</time>
      </trkpt>
      <trkpt lat="46.89211" lon="-2.13935">
        <ele>3.4</ele>
        <time>2020-06-04T12:12:58Z</time>
      </trkpt>
      <trkpt lat="46.89212" lon="-2.13931">
        <ele>3.4</ele>
        <time>2020-06-04T12:12:59Z</time>
      </trkpt>
      <trkpt lat="46.89213" lon="-2.1393">
        <ele>3.4</ele>
        <time>2020-06-04T12:13:00Z</time>
      </trkpt>
      <trkpt lat="46.89214" lon="-2.13926">
        <ele>3.4</ele>
        <time>2020-06-04T12:13:01Z</time>
      </trkpt>
      <trkpt lat="46.89214" lon="-2.13925">
        <ele>3.4</ele>
        <time>2020-06-04T12:13:02Z</time>
      </trkpt>
      <trkpt lat="46.89216" lon="-2.13922">
        <ele>3.4</ele>
        <time>2020-06-04T12:13:03Z</time>
      </trkpt>
      <trkpt lat="46.89216" lon="-2.13921">
        <ele>3.4</ele>
        <time>2020-06-04T12:13:04Z</time>
      </trkpt>
      <trkpt lat="46.89216" lon="-2.13919">
        <ele>3.4</ele>
        <time>2020-06-04T12:13:05Z</time>
      </trkpt>
      <trkpt lat="46.89216" lon="-2.13916">
        <ele>3.4</ele>
        <time>2020-06-04T12:13:06Z</time>
      </trkpt>
      <trkpt lat="46.89216" lon="-2.13914">
        <ele>3.4</ele>
        <time>2020-06-04T12:13:08Z</time>
      </trkpt>
      <trkpt lat="46.89215" lon="-2.1391">
        <ele>3.4</ele>
        <time>2020-06-04T12:13:09Z</time>
      </trkpt>
      <trkpt lat="46.89214" lon="-2.13909">
        <ele>3.4</ele>
        <time>2020-06-04T12:13:10Z</time>
      </trkpt>
      <trkpt lat="46.89214" lon="-2.13907">
        <ele>3.4</ele>
        <time>2020-06-04T12:13:11Z</time>
      </trkpt>
      <trkpt lat="46.89214" lon="-2.13905">
        <ele>3.4</ele>
        <time>2020-06-04T12:13:12Z</time>
      </trkpt>
      <trkpt lat="46.89213" lon="-2.139">
        <ele>3.4</ele>
        <time>2020-06-04T12:13:13Z</time>
      </trkpt>
      <trkpt lat="46.89212" lon="-2.13899">
        <ele>3.4</ele>
        <time>2020-06-04T12:13:14Z</time>
      </trkpt>
      <trkpt lat="46.89209" lon="-2.13895">
        <ele>3.4</ele>
        <time>2020-06-04T12:13:15Z</time>
      </trkpt>
      <trkpt lat="46.89208" lon="-2.13894">
        <ele>3.4</ele>
        <time>2020-06-04T12:13:16Z</time>
      </trkpt>
      <trkpt lat="46.89206" lon="-2.13891">
        <ele>3.4</ele>
        <time>2020-06-04T12:13:17Z</time>
      </trkpt>
      <trkpt lat="46.89202" lon="-2.1389">
        <ele>3.4</ele>
        <time>2020-06-04T12:13:18Z</time>
      </trkpt>
      <trkpt lat="46.89201" lon="-2.13889">
        <ele>3.4</ele>
        <time>2020-06-04T12:13:19Z</time>
      </trkpt>
      <trkpt lat="46.89199" lon="-2.13889">
        <ele>3.4</ele>
        <time>2020-06-04T12:13:20Z</time>
      </trkpt>
      <trkpt lat="46.89199" lon="-2.13889">
        <ele>3.4</ele>
        <time>2020-06-04T12:13:21Z</time>
      </trkpt>
      <trkpt lat="46.89198" lon="-2.13889">
        <ele>3.4</ele>
        <time>2020-06-04T12:13:22Z</time>
      </trkpt>
      <trkpt lat="46.89199" lon="-2.13889">
        <ele>3.4</ele>
        <time>2020-06-04T12:13:23Z</time>
      </trkpt>
      <trkpt lat="46.89198" lon="-2.13889">
        <ele>3.4</ele>
        <time>2020-06-04T12:13:24Z</time>
      </trkpt>
      <trkpt lat="46.89198" lon="-2.13889">
        <ele>3.4</ele>
        <time>2020-06-04T12:13:25Z</time>
      </trkpt>
      <trkpt lat="46.89198" lon="-2.13889">
        <ele>3.4</ele>
        <time>2020-06-04T12:13:26Z</time>
      </trkpt>
      <trkpt lat="46.89198" lon="-2.13889">
        <ele>3.4</ele>
        <time>2020-06-04T12:13:27Z</time>
      </trkpt>
      <trkpt lat="46.89198" lon="-2.13889">
        <ele>3.4</ele>
        <time>2020-06-04T12:13:28Z</time>
      </trkpt>
      <trkpt lat="46.89198" lon="-2.13889">
        <ele>3.4</ele>
        <time>2020-06-04T12:13:29Z</time>
      </trkpt>
      <trkpt lat="46.89198" lon="-2.13889">
        <ele>3.4</ele>
        <time>2020-06-04T12:13:30Z</time>
      </trkpt>
      <trkpt lat="46.89198" lon="-2.13889">
        <ele>3.4</ele>
        <time>2020-06-04T12:13:31Z</time>
      </trkpt>
      <trkpt lat="46.89198" lon="-2.13889">
        <ele>3.4</ele>
        <time>2020-06-04T12:13:32Z</time>
      </trkpt>
      <trkpt lat="46.89198" lon="-2.13889">
        <ele>3.4</ele>
        <time>2020-06-04T12:13:33Z</time>
      </trkpt>
      <trkpt lat="46.89195" lon="-2.13892">
        <ele>3.4</ele>
        <time>2020-06-04T12:14:06Z</time>
      </trkpt>
      <trkpt lat="46.89193" lon="-2.1389">
        <ele>3.4</ele>
        <time>2020-06-04T12:14:07Z</time>
      </trkpt>
      <trkpt lat="46.89191" lon="-2.13888">
        <ele>3.4</ele>
        <time>2020-06-04T12:14:08Z</time>
      </trkpt>
      <trkpt lat="46.89187" lon="-2.13885">
        <ele>3.3</ele>
        <time>2020-06-04T12:14:09Z</time>
      </trkpt>
      <trkpt lat="46.89185" lon="-2.13882">
        <ele>3.3</ele>
        <time>2020-06-04T12:14:10Z</time>
      </trkpt>
      <trkpt lat="46.89182" lon="-2.13878">
        <ele>3.3</ele>
        <time>2020-06-04T12:14:11Z</time>
      </trkpt>
      <trkpt lat="46.89181" lon="-2.13877">
        <ele>3.3</ele>
        <time>2020-06-04T12:14:12Z</time>
      </trkpt>
      <trkpt lat="46.89179" lon="-2.13874">
        <ele>3.3</ele>
        <time>2020-06-04T12:14:13Z</time>
      </trkpt>
      <trkpt lat="46.89178" lon="-2.13872">
        <ele>3.2</ele>
        <time>2020-06-04T12:14:14Z</time>
      </trkpt>
      <trkpt lat="46.89177" lon="-2.13868">
        <ele>3.2</ele>
        <time>2020-06-04T12:14:15Z</time>
      </trkpt>
      <trkpt lat="46.89176" lon="-2.13867">
        <ele>3.2</ele>
        <time>2020-06-04T12:14:16Z</time>
      </trkpt>
      <trkpt lat="46.89175" lon="-2.1386">
        <ele>3.2</ele>
        <time>2020-06-04T12:14:17Z</time>
      </trkpt>
      <trkpt lat="46.89173" lon="-2.13855">
        <ele>3.2</ele>
        <time>2020-06-04T12:14:18Z</time>
      </trkpt>
      <trkpt lat="46.89172" lon="-2.1385">
        <ele>3.2</ele>
        <time>2020-06-04T12:14:19Z</time>
      </trkpt>
      <trkpt lat="46.89171" lon="-2.13846">
        <ele>3.2</ele>
        <time>2020-06-04T12:14:20Z</time>
      </trkpt>
      <trkpt lat="46.8917" lon="-2.13844">
        <ele>3.1</ele>
        <time>2020-06-04T12:14:21Z</time>
      </trkpt>
      <trkpt lat="46.8917" lon="-2.13839">
        <ele>3.1</ele>
        <time>2020-06-04T12:14:22Z</time>
      </trkpt>
      <trkpt lat="46.89168" lon="-2.13835">
        <ele>3.1</ele>
        <time>2020-06-04T12:14:23Z</time>
      </trkpt>
      <trkpt lat="46.89168" lon="-2.13831">
        <ele>3.1</ele>
        <time>2020-06-04T12:14:24Z</time>
      </trkpt>
      <trkpt lat="46.89168" lon="-2.13827">
        <ele>3.1</ele>
        <time>2020-06-04T12:14:25Z</time>
      </trkpt>
      <trkpt lat="46.89169" lon="-2.13822">
        <ele>3.1</ele>
        <time>2020-06-04T12:14:26Z</time>
      </trkpt>
      <trkpt lat="46.89168" lon="-2.13815">
        <ele>3</ele>
        <time>2020-06-04T12:14:27Z</time>
      </trkpt>
      <trkpt lat="46.89168" lon="-2.13812">
        <ele>3</ele>
        <time>2020-06-04T12:14:28Z</time>
      </trkpt>
      <trkpt lat="46.89167" lon="-2.13807">
        <ele>3</ele>
        <time>2020-06-04T12:14:29Z</time>
      </trkpt>
      <trkpt lat="46.89166" lon="-2.13801">
        <ele>2.9</ele>
        <time>2020-06-04T12:14:30Z</time>
      </trkpt>
      <trkpt lat="46.89166" lon="-2.13795">
        <ele>2.9</ele>
        <time>2020-06-04T12:14:31Z</time>
      </trkpt>
      <trkpt lat="46.89166" lon="-2.1379">
        <ele>2.9</ele>
        <time>2020-06-04T12:14:32Z</time>
      </trkpt>
      <trkpt lat="46.89164" lon="-2.13785">
        <ele>2.9</ele>
        <time>2020-06-04T12:14:33Z</time>
      </trkpt>
      <trkpt lat="46.89165" lon="-2.1378">
        <ele>2.9</ele>
        <time>2020-06-04T12:14:34Z</time>
      </trkpt>
      <trkpt lat="46.89165" lon="-2.13779">
        <ele>2.9</ele>
        <time>2020-06-04T12:14:35Z</time>
      </trkpt>
      <trkpt lat="46.89163" lon="-2.13773">
        <ele>3</ele>
        <time>2020-06-04T12:14:36Z</time>
      </trkpt>
      <trkpt lat="46.89163" lon="-2.1377">
        <ele>3</ele>
        <time>2020-06-04T12:14:37Z</time>
      </trkpt>
      <trkpt lat="46.89162" lon="-2.13765">
        <ele>3</ele>
        <time>2020-06-04T12:14:38Z</time>
      </trkpt>
      <trkpt lat="46.8916" lon="-2.13761">
        <ele>3</ele>
        <time>2020-06-04T12:14:39Z</time>
      </trkpt>
      <trkpt lat="46.8916" lon="-2.13754">
        <ele>3</ele>
        <time>2020-06-04T12:14:40Z</time>
      </trkpt>
      <trkpt lat="46.89159" lon="-2.13749">
        <ele>3.1</ele>
        <time>2020-06-04T12:14:41Z</time>
      </trkpt>
      <trkpt lat="46.89158" lon="-2.13742">
        <ele>3.1</ele>
        <time>2020-06-04T12:14:42Z</time>
      </trkpt>
      <trkpt lat="46.89158" lon="-2.13737">
        <ele>3.1</ele>
        <time>2020-06-04T12:14:43Z</time>
      </trkpt>
      <trkpt lat="46.89156" lon="-2.13734">
        <ele>3.1</ele>
        <time>2020-06-04T12:14:44Z</time>
      </trkpt>
      <trkpt lat="46.89155" lon="-2.13728">
        <ele>3.1</ele>
        <time>2020-06-04T12:14:45Z</time>
      </trkpt>
      <trkpt lat="46.89154" lon="-2.13726">
        <ele>3.1</ele>
        <time>2020-06-04T12:14:46Z</time>
      </trkpt>
      <trkpt lat="46.8915" lon="-2.13724">
        <ele>3.1</ele>
        <time>2020-06-04T12:14:47Z</time>
      </trkpt>
      <trkpt lat="46.89146" lon="-2.13725">
        <ele>3.2</ele>
        <time>2020-06-04T12:14:48Z</time>
      </trkpt>
      <trkpt lat="46.89142" lon="-2.13723">
        <ele>3.2</ele>
        <time>2020-06-04T12:14:49Z</time>
      </trkpt>
      <trkpt lat="46.89139" lon="-2.13722">
        <ele>3.2</ele>
        <time>2020-06-04T12:14:50Z</time>
      </trkpt>
      <trkpt lat="46.89135" lon="-2.13721">
        <ele>3.3</ele>
        <time>2020-06-04T12:14:51Z</time>
      </trkpt>
      <trkpt lat="46.89132" lon="-2.1372">
        <ele>3.3</ele>
        <time>2020-06-04T12:14:52Z</time>
      </trkpt>
      <trkpt lat="46.8913" lon="-2.13719">
        <ele>3.4</ele>
        <time>2020-06-04T12:14:53Z</time>
      </trkpt>
      <trkpt lat="46.89129" lon="-2.13718">
        <ele>3.4</ele>
        <time>2020-06-04T12:14:54Z</time>
      </trkpt>
      <trkpt lat="46.89128" lon="-2.13714">
        <ele>3.4</ele>
        <time>2020-06-04T12:14:55Z</time>
      </trkpt>
      <trkpt lat="46.89128" lon="-2.13713">
        <ele>3.4</ele>
        <time>2020-06-04T12:14:56Z</time>
      </trkpt>
      <trkpt lat="46.89129" lon="-2.13709">
        <ele>3.5</ele>
        <time>2020-06-04T12:14:57Z</time>
      </trkpt>
      <trkpt lat="46.89129" lon="-2.13705">
        <ele>3.5</ele>
        <time>2020-06-04T12:14:58Z</time>
      </trkpt>
      <trkpt lat="46.8913" lon="-2.137">
        <ele>3.6</ele>
        <time>2020-06-04T12:14:59Z</time>
      </trkpt>
      <trkpt lat="46.89131" lon="-2.13699">
        <ele>3.6</ele>
        <time>2020-06-04T12:15:00Z</time>
      </trkpt>
      <trkpt lat="46.89132" lon="-2.13693">
        <ele>3.7</ele>
        <time>2020-06-04T12:15:01Z</time>
      </trkpt>
      <trkpt lat="46.89133" lon="-2.13691">
        <ele>3.7</ele>
        <time>2020-06-04T12:15:02Z</time>
      </trkpt>
      <trkpt lat="46.89131" lon="-2.13686">
        <ele>3.8</ele>
        <time>2020-06-04T12:15:03Z</time>
      </trkpt>
      <trkpt lat="46.8913" lon="-2.1368">
        <ele>3.9</ele>
        <time>2020-06-04T12:15:04Z</time>
      </trkpt>
      <trkpt lat="46.89129" lon="-2.13678">
        <ele>3.9</ele>
        <time>2020-06-04T12:15:05Z</time>
      </trkpt>
      <trkpt lat="46.89129" lon="-2.13673">
        <ele>3.9</ele>
        <time>2020-06-04T12:15:06Z</time>
      </trkpt>
      <trkpt lat="46.89129" lon="-2.13667">
        <ele>4</ele>
        <time>2020-06-04T12:15:07Z</time>
      </trkpt>
      <trkpt lat="46.8913" lon="-2.13659">
        <ele>4.1</ele>
        <time>2020-06-04T12:15:08Z</time>
      </trkpt>
      <trkpt lat="46.8913" lon="-2.13652">
        <ele>4.1</ele>
        <time>2020-06-04T12:15:09Z</time>
      </trkpt>
      <trkpt lat="46.8913" lon="-2.13644">
        <ele>4.2</ele>
        <time>2020-06-04T12:15:10Z</time>
      </trkpt>
      <trkpt lat="46.8913" lon="-2.13639">
        <ele>4.2</ele>
        <time>2020-06-04T12:15:11Z</time>
      </trkpt>
      <trkpt lat="46.8913" lon="-2.13634">
        <ele>4.2</ele>
        <time>2020-06-04T12:15:12Z</time>
      </trkpt>
      <trkpt lat="46.89131" lon="-2.1363">
        <ele>4.2</ele>
        <time>2020-06-04T12:15:13Z</time>
      </trkpt>
      <trkpt lat="46.89132" lon="-2.13625">
        <ele>4.3</ele>
        <time>2020-06-04T12:15:14Z</time>
      </trkpt>
      <trkpt lat="46.89132" lon="-2.13623">
        <ele>4.3</ele>
        <time>2020-06-04T12:15:15Z</time>
      </trkpt>
      <trkpt lat="46.89133" lon="-2.1362">
        <ele>4.3</ele>
        <time>2020-06-04T12:15:16Z</time>
      </trkpt>
      <trkpt lat="46.89133" lon="-2.13616">
        <ele>4.3</ele>
        <time>2020-06-04T12:15:17Z</time>
      </trkpt>
      <trkpt lat="46.89133" lon="-2.13615">
        <ele>4.3</ele>
        <time>2020-06-04T12:15:18Z</time>
      </trkpt>
      <trkpt lat="46.89132" lon="-2.1361">
        <ele>4.3</ele>
        <time>2020-06-04T12:15:19Z</time>
      </trkpt>
      <trkpt lat="46.89132" lon="-2.13606">
        <ele>4.4</ele>
        <time>2020-06-04T12:15:20Z</time>
      </trkpt>
      <trkpt lat="46.89131" lon="-2.13604">
        <ele>4.4</ele>
        <time>2020-06-04T12:15:21Z</time>
      </trkpt>
      <trkpt lat="46.89129" lon="-2.136">
        <ele>4.4</ele>
        <time>2020-06-04T12:15:22Z</time>
      </trkpt>
      <trkpt lat="46.89129" lon="-2.13595">
        <ele>4.4</ele>
        <time>2020-06-04T12:15:23Z</time>
      </trkpt>
      <trkpt lat="46.89129" lon="-2.1359">
        <ele>4.4</ele>
        <time>2020-06-04T12:15:24Z</time>
      </trkpt>
      <trkpt lat="46.8913" lon="-2.13586">
        <ele>4.4</ele>
        <time>2020-06-04T12:15:25Z</time>
      </trkpt>
      <trkpt lat="46.89131" lon="-2.13584">
        <ele>4.4</ele>
        <time>2020-06-04T12:15:26Z</time>
      </trkpt>
      <trkpt lat="46.89132" lon="-2.13583">
        <ele>4.4</ele>
        <time>2020-06-04T12:15:27Z</time>
      </trkpt>
      <trkpt lat="46.89133" lon="-2.13582">
        <ele>4.4</ele>
        <time>2020-06-04T12:15:28Z</time>
      </trkpt>
      <trkpt lat="46.89134" lon="-2.13583">
        <ele>4.4</ele>
        <time>2020-06-04T12:15:29Z</time>
      </trkpt>
      <trkpt lat="46.89135" lon="-2.13583">
        <ele>4.4</ele>
        <time>2020-06-04T12:15:30Z</time>
      </trkpt>
      <trkpt lat="46.89136" lon="-2.1358">
        <ele>4.3</ele>
        <time>2020-06-04T12:15:31Z</time>
      </trkpt>
      <trkpt lat="46.89138" lon="-2.13579">
        <ele>4.3</ele>
        <time>2020-06-04T12:15:32Z</time>
      </trkpt>
      <trkpt lat="46.89139" lon="-2.13578">
        <ele>4.3</ele>
        <time>2020-06-04T12:15:33Z</time>
      </trkpt>
      <trkpt lat="46.89142" lon="-2.13578">
        <ele>4.3</ele>
        <time>2020-06-04T12:15:34Z</time>
      </trkpt>
      <trkpt lat="46.89143" lon="-2.13579">
        <ele>4.3</ele>
        <time>2020-06-04T12:15:35Z</time>
      </trkpt>
      <trkpt lat="46.89147" lon="-2.13581">
        <ele>4.2</ele>
        <time>2020-06-04T12:15:36Z</time>
      </trkpt>
      <trkpt lat="46.8915" lon="-2.13584">
        <ele>4.2</ele>
        <time>2020-06-04T12:15:37Z</time>
      </trkpt>
      <trkpt lat="46.89153" lon="-2.13589">
        <ele>4.1</ele>
        <time>2020-06-04T12:15:38Z</time>
      </trkpt>
      <trkpt lat="46.89154" lon="-2.13595">
        <ele>4.1</ele>
        <time>2020-06-04T12:15:39Z</time>
      </trkpt>
      <trkpt lat="46.89154" lon="-2.13601">
        <ele>4.1</ele>
        <time>2020-06-04T12:15:40Z</time>
      </trkpt>
      <trkpt lat="46.89152" lon="-2.13608">
        <ele>4.1</ele>
        <time>2020-06-04T12:15:41Z</time>
      </trkpt>
      <trkpt lat="46.8915" lon="-2.13612">
        <ele>4.1</ele>
        <time>2020-06-04T12:15:42Z</time>
      </trkpt>
      <trkpt lat="46.89146" lon="-2.13615">
        <ele>4.2</ele>
        <time>2020-06-04T12:15:43Z</time>
      </trkpt>
      <trkpt lat="46.89142" lon="-2.13616">
        <ele>4.2</ele>
        <time>2020-06-04T12:15:44Z</time>
      </trkpt>
      <trkpt lat="46.89138" lon="-2.13615">
        <ele>4.2</ele>
        <time>2020-06-04T12:15:45Z</time>
      </trkpt>
      <trkpt lat="46.89135" lon="-2.13614">
        <ele>4.4</ele>
        <time>2020-06-04T12:15:46Z</time>
      </trkpt>
      <trkpt lat="46.89131" lon="-2.13613">
        <ele>4.4</ele>
        <time>2020-06-04T12:15:47Z</time>
      </trkpt>
      <trkpt lat="46.89128" lon="-2.13611">
        <ele>4.4</ele>
        <time>2020-06-04T12:15:48Z</time>
      </trkpt>
      <trkpt lat="46.89126" lon="-2.13609">
        <ele>4.4</ele>
        <time>2020-06-04T12:15:49Z</time>
      </trkpt>
      <trkpt lat="46.89122" lon="-2.13609">
        <ele>4.4</ele>
        <time>2020-06-04T12:15:50Z</time>
      </trkpt>
      <trkpt lat="46.89121" lon="-2.13609">
        <ele>4.4</ele>
        <time>2020-06-04T12:15:51Z</time>
      </trkpt>
      <trkpt lat="46.89118" lon="-2.13611">
        <ele>4.4</ele>
        <time>2020-06-04T12:15:52Z</time>
      </trkpt>
      <trkpt lat="46.89115" lon="-2.13615">
        <ele>4.4</ele>
        <time>2020-06-04T12:15:53Z</time>
      </trkpt>
      <trkpt lat="46.89112" lon="-2.13619">
        <ele>4.4</ele>
        <time>2020-06-04T12:15:54Z</time>
      </trkpt>
      <trkpt lat="46.89111" lon="-2.13621">
        <ele>4.5</ele>
        <time>2020-06-04T12:15:55Z</time>
      </trkpt>
      <trkpt lat="46.89107" lon="-2.13624">
        <ele>4.5</ele>
        <time>2020-06-04T12:15:56Z</time>
      </trkpt>
      <trkpt lat="46.89106" lon="-2.13626">
        <ele>4.5</ele>
        <time>2020-06-04T12:15:57Z</time>
      </trkpt>
      <trkpt lat="46.89105" lon="-2.13626">
        <ele>4.5</ele>
        <time>2020-06-04T12:15:58Z</time>
      </trkpt>
      <trkpt lat="46.89103" lon="-2.13628">
        <ele>4.5</ele>
        <time>2020-06-04T12:15:59Z</time>
      </trkpt>
      <trkpt lat="46.891" lon="-2.13629">
        <ele>4.5</ele>
        <time>2020-06-04T12:16:00Z</time>
      </trkpt>
      <trkpt lat="46.89099" lon="-2.13629">
        <ele>4.5</ele>
        <time>2020-06-04T12:16:01Z</time>
      </trkpt>
      <trkpt lat="46.89095" lon="-2.1363">
        <ele>4.5</ele>
        <time>2020-06-04T12:16:02Z</time>
      </trkpt>
      <trkpt lat="46.89093" lon="-2.1363">
        <ele>4.5</ele>
        <time>2020-06-04T12:16:03Z</time>
      </trkpt>
      <trkpt lat="46.8909" lon="-2.1363">
        <ele>4.5</ele>
        <time>2020-06-04T12:16:04Z</time>
      </trkpt>
      <trkpt lat="46.89089" lon="-2.13629">
        <ele>4.5</ele>
        <time>2020-06-04T12:16:05Z</time>
      </trkpt>
      <trkpt lat="46.89086" lon="-2.13629">
        <ele>4.5</ele>
        <time>2020-06-04T12:16:06Z</time>
      </trkpt>
      <trkpt lat="46.89085" lon="-2.1363">
        <ele>4.5</ele>
        <time>2020-06-04T12:16:07Z</time>
      </trkpt>
      <trkpt lat="46.89081" lon="-2.1363">
        <ele>4.5</ele>
        <time>2020-06-04T12:16:08Z</time>
      </trkpt>
      <trkpt lat="46.8908" lon="-2.1363">
        <ele>4.5</ele>
        <time>2020-06-04T12:16:09Z</time>
      </trkpt>
      <trkpt lat="46.89077" lon="-2.13633">
        <ele>4.5</ele>
        <time>2020-06-04T12:16:10Z</time>
      </trkpt>
      <trkpt lat="46.89076" lon="-2.13635">
        <ele>4.5</ele>
        <time>2020-06-04T12:16:11Z</time>
      </trkpt>
      <trkpt lat="46.89074" lon="-2.13639">
        <ele>4.5</ele>
        <time>2020-06-04T12:16:12Z</time>
      </trkpt>
      <trkpt lat="46.89073" lon="-2.1364">
        <ele>4.5</ele>
        <time>2020-06-04T12:16:13Z</time>
      </trkpt>
      <trkpt lat="46.8907" lon="-2.13638">
        <ele>4.5</ele>
        <time>2020-06-04T12:16:14Z</time>
      </trkpt>
      <trkpt lat="46.89069" lon="-2.13637">
        <ele>4.5</ele>
        <time>2020-06-04T12:16:15Z</time>
      </trkpt>
      <trkpt lat="46.89069" lon="-2.13635">
        <ele>4.5</ele>
        <time>2020-06-04T12:16:16Z</time>
      </trkpt>
      <trkpt lat="46.8907" lon="-2.13634">
        <ele>4.5</ele>
        <time>2020-06-04T12:16:17Z</time>
      </trkpt>
      <trkpt lat="46.89071" lon="-2.13633">
        <ele>4.5</ele>
        <time>2020-06-04T12:16:18Z</time>
      </trkpt>
      <trkpt lat="46.89072" lon="-2.13632">
        <ele>4.5</ele>
        <time>2020-06-04T12:16:19Z</time>
      </trkpt>
      <trkpt lat="46.89075" lon="-2.13631">
        <ele>4.5</ele>
        <time>2020-06-04T12:16:20Z</time>
      </trkpt>
      <trkpt lat="46.89079" lon="-2.13629">
        <ele>4.5</ele>
        <time>2020-06-04T12:16:21Z</time>
      </trkpt>
      <trkpt lat="46.89081" lon="-2.13629">
        <ele>4.5</ele>
        <time>2020-06-04T12:16:22Z</time>
      </trkpt>
      <trkpt lat="46.89085" lon="-2.13627">
        <ele>4.5</ele>
        <time>2020-06-04T12:16:23Z</time>
      </trkpt>
      <trkpt lat="46.89088" lon="-2.13625">
        <ele>4.5</ele>
        <time>2020-06-04T12:16:24Z</time>
      </trkpt>
      <trkpt lat="46.89092" lon="-2.13624">
        <ele>4.5</ele>
        <time>2020-06-04T12:16:25Z</time>
      </trkpt>
      <trkpt lat="46.89095" lon="-2.13624">
        <ele>4.5</ele>
        <time>2020-06-04T12:16:26Z</time>
      </trkpt>
      <trkpt lat="46.89099" lon="-2.13621">
        <ele>4.5</ele>
        <time>2020-06-04T12:16:27Z</time>
      </trkpt>
      <trkpt lat="46.89101" lon="-2.13618">
        <ele>4.5</ele>
        <time>2020-06-04T12:16:28Z</time>
      </trkpt>
      <trkpt lat="46.89104" lon="-2.13617">
        <ele>4.5</ele>
        <time>2020-06-04T12:16:29Z</time>
      </trkpt>
      <trkpt lat="46.89107" lon="-2.13614">
        <ele>4.5</ele>
        <time>2020-06-04T12:16:30Z</time>
      </trkpt>
      <trkpt lat="46.89109" lon="-2.13611">
        <ele>4.5</ele>
        <time>2020-06-04T12:16:31Z</time>
      </trkpt>
      <trkpt lat="46.89113" lon="-2.13607">
        <ele>4.5</ele>
        <time>2020-06-04T12:16:32Z</time>
      </trkpt>
      <trkpt lat="46.89117" lon="-2.13604">
        <ele>4.5</ele>
        <time>2020-06-04T12:16:33Z</time>
      </trkpt>
      <trkpt lat="46.8912" lon="-2.13601">
        <ele>4.5</ele>
        <time>2020-06-04T12:16:34Z</time>
      </trkpt>
      <trkpt lat="46.89123" lon="-2.13599">
        <ele>4.4</ele>
        <time>2020-06-04T12:16:35Z</time>
      </trkpt>
      <trkpt lat="46.89127" lon="-2.13596">
        <ele>4.4</ele>
        <time>2020-06-04T12:16:36Z</time>
      </trkpt>
      <trkpt lat="46.8913" lon="-2.13592">
        <ele>4.4</ele>
        <time>2020-06-04T12:16:37Z</time>
      </trkpt>
      <trkpt lat="46.89132" lon="-2.13586">
        <ele>4.4</ele>
        <time>2020-06-04T12:16:38Z</time>
      </trkpt>
      <trkpt lat="46.89134" lon="-2.1358">
        <ele>4.4</ele>
        <time>2020-06-04T12:16:39Z</time>
      </trkpt>
      <trkpt lat="46.89134" lon="-2.13575">
        <ele>4.4</ele>
        <time>2020-06-04T12:16:40Z</time>
      </trkpt>
      <trkpt lat="46.89133" lon="-2.13568">
        <ele>4.4</ele>
        <time>2020-06-04T12:16:41Z</time>
      </trkpt>
      <trkpt lat="46.89133" lon="-2.1356">
        <ele>4.4</ele>
        <time>2020-06-04T12:16:42Z</time>
      </trkpt>
      <trkpt lat="46.89131" lon="-2.13552">
        <ele>4.4</ele>
        <time>2020-06-04T12:16:43Z</time>
      </trkpt>
      <trkpt lat="46.89131" lon="-2.13544">
        <ele>4.4</ele>
        <time>2020-06-04T12:16:44Z</time>
      </trkpt>
      <trkpt lat="46.8913" lon="-2.13537">
        <ele>4.4</ele>
        <time>2020-06-04T12:16:45Z</time>
      </trkpt>
      <trkpt lat="46.89129" lon="-2.13529">
        <ele>4.4</ele>
        <time>2020-06-04T12:16:46Z</time>
      </trkpt>
      <trkpt lat="46.89129" lon="-2.13522">
        <ele>4.4</ele>
        <time>2020-06-04T12:16:47Z</time>
      </trkpt>
      <trkpt lat="46.89128" lon="-2.13516">
        <ele>4.3</ele>
        <time>2020-06-04T12:16:48Z</time>
      </trkpt>
      <trkpt lat="46.89127" lon="-2.13509">
        <ele>4.3</ele>
        <time>2020-06-04T12:16:49Z</time>
      </trkpt>
      <trkpt lat="46.89126" lon="-2.13502">
        <ele>4.3</ele>
        <time>2020-06-04T12:16:50Z</time>
      </trkpt>
      <trkpt lat="46.89124" lon="-2.13498">
        <ele>4.3</ele>
        <time>2020-06-04T12:16:51Z</time>
      </trkpt>
      <trkpt lat="46.89121" lon="-2.13495">
        <ele>4.3</ele>
        <time>2020-06-04T12:16:52Z</time>
      </trkpt>
      <trkpt lat="46.89118" lon="-2.13497">
        <ele>4.4</ele>
        <time>2020-06-04T12:16:53Z</time>
      </trkpt>
      <trkpt lat="46.89113" lon="-2.13501">
        <ele>4.5</ele>
        <time>2020-06-04T12:16:54Z</time>
      </trkpt>
      <trkpt lat="46.89108" lon="-2.13504">
        <ele>4.6</ele>
        <time>2020-06-04T12:16:55Z</time>
      </trkpt>
      <trkpt lat="46.89103" lon="-2.13504">
        <ele>4.8</ele>
        <time>2020-06-04T12:16:56Z</time>
      </trkpt>
      <trkpt lat="46.89097" lon="-2.13504">
        <ele>4.9</ele>
        <time>2020-06-04T12:16:57Z</time>
      </trkpt>
      <trkpt lat="46.89091" lon="-2.13505">
        <ele>5</ele>
        <time>2020-06-04T12:16:58Z</time>
      </trkpt>
      <trkpt lat="46.89086" lon="-2.13506">
        <ele>5.1</ele>
        <time>2020-06-04T12:16:59Z</time>
      </trkpt>
      <trkpt lat="46.89082" lon="-2.13509">
        <ele>5.2</ele>
        <time>2020-06-04T12:17:00Z</time>
      </trkpt>
      <trkpt lat="46.89077" lon="-2.13512">
        <ele>5.3</ele>
        <time>2020-06-04T12:17:01Z</time>
      </trkpt>
      <trkpt lat="46.89071" lon="-2.13514">
        <ele>5.4</ele>
        <time>2020-06-04T12:17:02Z</time>
      </trkpt>
      <trkpt lat="46.89067" lon="-2.13516">
        <ele>5.5</ele>
        <time>2020-06-04T12:17:03Z</time>
      </trkpt>
      <trkpt lat="46.89062" lon="-2.13516">
        <ele>5.5</ele>
        <time>2020-06-04T12:17:04Z</time>
      </trkpt>
      <trkpt lat="46.89059" lon="-2.13517">
        <ele>5.6</ele>
        <time>2020-06-04T12:17:05Z</time>
      </trkpt>
      <trkpt lat="46.89056" lon="-2.13518">
        <ele>5.7</ele>
        <time>2020-06-04T12:17:06Z</time>
      </trkpt>
      <trkpt lat="46.89052" lon="-2.13518">
        <ele>5.7</ele>
        <time>2020-06-04T12:17:07Z</time>
      </trkpt>
      <trkpt lat="46.89049" lon="-2.13517">
        <ele>5.8</ele>
        <time>2020-06-04T12:17:08Z</time>
      </trkpt>
      <trkpt lat="46.89047" lon="-2.13514">
        <ele>5.8</ele>
        <time>2020-06-04T12:17:09Z</time>
      </trkpt>
      <trkpt lat="46.89047" lon="-2.13512">
        <ele>5.8</ele>
        <time>2020-06-04T12:17:10Z</time>
      </trkpt>
      <trkpt lat="46.89045" lon="-2.13509">
        <ele>5.8</ele>
        <time>2020-06-04T12:17:11Z</time>
      </trkpt>
      <trkpt lat="46.89044" lon="-2.13508">
        <ele>5.9</ele>
        <time>2020-06-04T12:17:12Z</time>
      </trkpt>
      <trkpt lat="46.89044" lon="-2.13507">
        <ele>5.9</ele>
        <time>2020-06-04T12:17:13Z</time>
      </trkpt>
      <trkpt lat="46.89044" lon="-2.13506">
        <ele>5.9</ele>
        <time>2020-06-04T12:17:14Z</time>
      </trkpt>
      <trkpt lat="46.89044" lon="-2.13506">
        <ele>5.9</ele>
        <time>2020-06-04T12:17:15Z</time>
      </trkpt>
      <trkpt lat="46.89044" lon="-2.13507">
        <ele>5.9</ele>
        <time>2020-06-04T12:17:16Z</time>
      </trkpt>
      <trkpt lat="46.89045" lon="-2.13508">
        <ele>5.9</ele>
        <time>2020-06-04T12:17:17Z</time>
      </trkpt>
      <trkpt lat="46.89045" lon="-2.13508">
        <ele>5.9</ele>
        <time>2020-06-04T12:17:18Z</time>
      </trkpt>
      <trkpt lat="46.89045" lon="-2.13508">
        <ele>5.9</ele>
        <time>2020-06-04T12:17:19Z</time>
      </trkpt>
      <trkpt lat="46.89045" lon="-2.13508">
        <ele>5.9</ele>
        <time>2020-06-04T12:17:20Z</time>
      </trkpt>
      <trkpt lat="46.89045" lon="-2.13508">
        <ele>5.9</ele>
        <time>2020-06-04T12:17:21Z</time>
      </trkpt>
      <trkpt lat="46.89045" lon="-2.13508">
        <ele>5.9</ele>
        <time>2020-06-04T12:17:22Z</time>
      </trkpt>
      <trkpt lat="46.89045" lon="-2.13508">
        <ele>5.9</ele>
        <time>2020-06-04T12:17:23Z</time>
      </trkpt>
      <trkpt lat="46.89041" lon="-2.13503">
        <ele>5.9</ele>
        <time>2020-06-04T12:17:28Z</time>
      </trkpt>
      <trkpt lat="46.8904" lon="-2.13501">
        <ele>5.9</ele>
        <time>2020-06-04T12:17:29Z</time>
      </trkpt>
      <trkpt lat="46.89038" lon="-2.13496">
        <ele>6</ele>
        <time>2020-06-04T12:17:30Z</time>
      </trkpt>
      <trkpt lat="46.89038" lon="-2.13494">
        <ele>6</ele>
        <time>2020-06-04T12:17:31Z</time>
      </trkpt>
      <trkpt lat="46.89038" lon="-2.13491">
        <ele>6</ele>
        <time>2020-06-04T12:17:32Z</time>
      </trkpt>
      <trkpt lat="46.89038" lon="-2.13489">
        <ele>6</ele>
        <time>2020-06-04T12:17:33Z</time>
      </trkpt>
      <trkpt lat="46.89038" lon="-2.13484">
        <ele>6</ele>
        <time>2020-06-04T12:17:34Z</time>
      </trkpt>
      <trkpt lat="46.89038" lon="-2.13482">
        <ele>6</ele>
        <time>2020-06-04T12:17:35Z</time>
      </trkpt>
      <trkpt lat="46.89039" lon="-2.13477">
        <ele>5.9</ele>
        <time>2020-06-04T12:17:36Z</time>
      </trkpt>
      <trkpt lat="46.89039" lon="-2.13471">
        <ele>5.9</ele>
        <time>2020-06-04T12:17:37Z</time>
      </trkpt>
      <trkpt lat="46.8904" lon="-2.13465">
        <ele>5.8</ele>
        <time>2020-06-04T12:17:38Z</time>
      </trkpt>
      <trkpt lat="46.8904" lon="-2.13457">
        <ele>5.7</ele>
        <time>2020-06-04T12:17:39Z</time>
      </trkpt>
      <trkpt lat="46.8904" lon="-2.13451">
        <ele>5.6</ele>
        <time>2020-06-04T12:17:40Z</time>
      </trkpt>
      <trkpt lat="46.8904" lon="-2.13444">
        <ele>5.5</ele>
        <time>2020-06-04T12:17:41Z</time>
      </trkpt>
      <trkpt lat="46.89041" lon="-2.13437">
        <ele>5.4</ele>
        <time>2020-06-04T12:17:42Z</time>
      </trkpt>
      <trkpt lat="46.89041" lon="-2.13428">
        <ele>5.2</ele>
        <time>2020-06-04T12:17:43Z</time>
      </trkpt>
      <trkpt lat="46.8904" lon="-2.1342">
        <ele>5</ele>
        <time>2020-06-04T12:17:44Z</time>
      </trkpt>
      <trkpt lat="46.8904" lon="-2.13413">
        <ele>4.9</ele>
        <time>2020-06-04T12:17:45Z</time>
      </trkpt>
      <trkpt lat="46.89039" lon="-2.13404">
        <ele>4.8</ele>
        <time>2020-06-04T12:17:46Z</time>
      </trkpt>
      <trkpt lat="46.89038" lon="-2.13395">
        <ele>4.7</ele>
        <time>2020-06-04T12:17:47Z</time>
      </trkpt>
      <trkpt lat="46.89037" lon="-2.13386">
        <ele>4.6</ele>
        <time>2020-06-04T12:17:48Z</time>
      </trkpt>
      <trkpt lat="46.89036" lon="-2.13378">
        <ele>4.5</ele>
        <time>2020-06-04T12:17:49Z</time>
      </trkpt>
      <trkpt lat="46.89035" lon="-2.1337">
        <ele>4.5</ele>
        <time>2020-06-04T12:17:50Z</time>
      </trkpt>
      <trkpt lat="46.89034" lon="-2.13361">
        <ele>4.5</ele>
        <time>2020-06-04T12:17:51Z</time>
      </trkpt>
      <trkpt lat="46.89033" lon="-2.13353">
        <ele>4.4</ele>
        <time>2020-06-04T12:17:52Z</time>
      </trkpt>
      <trkpt lat="46.89033" lon="-2.13347">
        <ele>4.4</ele>
        <time>2020-06-04T12:17:53Z</time>
      </trkpt>
      <trkpt lat="46.89032" lon="-2.13339">
        <ele>4.5</ele>
        <time>2020-06-04T12:17:54Z</time>
      </trkpt>
      <trkpt lat="46.89032" lon="-2.13333">
        <ele>4.5</ele>
        <time>2020-06-04T12:17:55Z</time>
      </trkpt>
      <trkpt lat="46.8903" lon="-2.13325">
        <ele>4.5</ele>
        <time>2020-06-04T12:17:56Z</time>
      </trkpt>
      <trkpt lat="46.8903" lon="-2.13319">
        <ele>4.5</ele>
        <time>2020-06-04T12:17:57Z</time>
      </trkpt>
      <trkpt lat="46.89029" lon="-2.13314">
        <ele>4.5</ele>
        <time>2020-06-04T12:17:58Z</time>
      </trkpt>
      <trkpt lat="46.89028" lon="-2.13308">
        <ele>4.5</ele>
        <time>2020-06-04T12:17:59Z</time>
      </trkpt>
      <trkpt lat="46.89025" lon="-2.13301">
        <ele>4.5</ele>
        <time>2020-06-04T12:18:00Z</time>
      </trkpt>
      <trkpt lat="46.89024" lon="-2.13296">
        <ele>4.5</ele>
        <time>2020-06-04T12:18:01Z</time>
      </trkpt>
      <trkpt lat="46.89023" lon="-2.13291">
        <ele>4.4</ele>
        <time>2020-06-04T12:18:02Z</time>
      </trkpt>
      <trkpt lat="46.89023" lon="-2.13288">
        <ele>4.4</ele>
        <time>2020-06-04T12:18:03Z</time>
      </trkpt>
      <trkpt lat="46.89023" lon="-2.13283">
        <ele>4.4</ele>
        <time>2020-06-04T12:18:04Z</time>
      </trkpt>
      <trkpt lat="46.89025" lon="-2.13278">
        <ele>4.4</ele>
        <time>2020-06-04T12:18:05Z</time>
      </trkpt>
      <trkpt lat="46.89025" lon="-2.13276">
        <ele>4.4</ele>
        <time>2020-06-04T12:18:06Z</time>
      </trkpt>
      <trkpt lat="46.89025" lon="-2.13271">
        <ele>4.4</ele>
        <time>2020-06-04T12:18:07Z</time>
      </trkpt>
      <trkpt lat="46.89025" lon="-2.13269">
        <ele>4.4</ele>
        <time>2020-06-04T12:18:08Z</time>
      </trkpt>
      <trkpt lat="46.89026" lon="-2.13263">
        <ele>4.4</ele>
        <time>2020-06-04T12:18:09Z</time>
      </trkpt>
      <trkpt lat="46.89026" lon="-2.13258">
        <ele>4.4</ele>
        <time>2020-06-04T12:18:10Z</time>
      </trkpt>
      <trkpt lat="46.89026" lon="-2.13253">
        <ele>4.4</ele>
        <time>2020-06-04T12:18:11Z</time>
      </trkpt>
      <trkpt lat="46.89026" lon="-2.13248">
        <ele>4.4</ele>
        <time>2020-06-04T12:18:12Z</time>
      </trkpt>
      <trkpt lat="46.89025" lon="-2.13242">
        <ele>4.3</ele>
        <time>2020-06-04T12:18:13Z</time>
      </trkpt>
      <trkpt lat="46.89025" lon="-2.13238">
        <ele>4.3</ele>
        <time>2020-06-04T12:18:14Z</time>
      </trkpt>
      <trkpt lat="46.89024" lon="-2.13233">
        <ele>4.3</ele>
        <time>2020-06-04T12:18:15Z</time>
      </trkpt>
      <trkpt lat="46.89022" lon="-2.1323">
        <ele>4.3</ele>
        <time>2020-06-04T12:18:16Z</time>
      </trkpt>
      <trkpt lat="46.89021" lon="-2.13229">
        <ele>4.3</ele>
        <time>2020-06-04T12:18:17Z</time>
      </trkpt>
      <trkpt lat="46.89022" lon="-2.13227">
        <ele>4.2</ele>
        <time>2020-06-04T12:18:18Z</time>
      </trkpt>
      <trkpt lat="46.89022" lon="-2.13224">
        <ele>4.2</ele>
        <time>2020-06-04T12:18:19Z</time>
      </trkpt>
      <trkpt lat="46.89022" lon="-2.1322">
        <ele>4.2</ele>
        <time>2020-06-04T12:18:20Z</time>
      </trkpt>
      <trkpt lat="46.89022" lon="-2.13219">
        <ele>4.2</ele>
        <time>2020-06-04T12:18:21Z</time>
      </trkpt>
      <trkpt lat="46.89022" lon="-2.13216">
        <ele>4.2</ele>
        <time>2020-06-04T12:18:22Z</time>
      </trkpt>
      <trkpt lat="46.89023" lon="-2.13214">
        <ele>4.2</ele>
        <time>2020-06-04T12:18:23Z</time>
      </trkpt>
      <trkpt lat="46.89023" lon="-2.13212">
        <ele>4.2</ele>
        <time>2020-06-04T12:18:24Z</time>
      </trkpt>
      <trkpt lat="46.89022" lon="-2.1321">
        <ele>4.2</ele>
        <time>2020-06-04T12:18:25Z</time>
      </trkpt>
      <trkpt lat="46.89022" lon="-2.13208">
        <ele>4.1</ele>
        <time>2020-06-04T12:18:26Z</time>
      </trkpt>
      <trkpt lat="46.89022" lon="-2.13207">
        <ele>4.1</ele>
        <time>2020-06-04T12:18:27Z</time>
      </trkpt>
      <trkpt lat="46.89022" lon="-2.13207">
        <ele>4.1</ele>
        <time>2020-06-04T12:18:28Z</time>
      </trkpt>
      <trkpt lat="46.89022" lon="-2.13207">
        <ele>4.1</ele>
        <time>2020-06-04T12:18:29Z</time>
      </trkpt>
      <trkpt lat="46.89022" lon="-2.13207">
        <ele>4.1</ele>
        <time>2020-06-04T12:18:30Z</time>
      </trkpt>
      <trkpt lat="46.89022" lon="-2.13206">
        <ele>4.1</ele>
        <time>2020-06-04T12:18:31Z</time>
      </trkpt>
      <trkpt lat="46.89022" lon="-2.13206">
        <ele>4.1</ele>
        <time>2020-06-04T12:18:32Z</time>
      </trkpt>
      <trkpt lat="46.89022" lon="-2.13206">
        <ele>4.1</ele>
        <time>2020-06-04T12:18:33Z</time>
      </trkpt>
      <trkpt lat="46.89022" lon="-2.13206">
        <ele>4.1</ele>
        <time>2020-06-04T12:18:34Z</time>
      </trkpt>
      <trkpt lat="46.89022" lon="-2.13206">
        <ele>4.1</ele>
        <time>2020-06-04T12:18:35Z</time>
      </trkpt>
      <trkpt lat="46.89022" lon="-2.13205">
        <ele>4.1</ele>
        <time>2020-06-04T12:18:36Z</time>
      </trkpt>
      <trkpt lat="46.89022" lon="-2.13205">
        <ele>4.1</ele>
        <time>2020-06-04T12:18:37Z</time>
      </trkpt>
      <trkpt lat="46.89021" lon="-2.13209">
        <ele>4.1</ele>
        <time>2020-06-04T12:19:27Z</time>
      </trkpt>
      <trkpt lat="46.89021" lon="-2.13213">
        <ele>4.1</ele>
        <time>2020-06-04T12:19:28Z</time>
      </trkpt>
      <trkpt lat="46.89021" lon="-2.13218">
        <ele>4.1</ele>
        <time>2020-06-04T12:19:29Z</time>
      </trkpt>
      <trkpt lat="46.89021" lon="-2.13223">
        <ele>4.1</ele>
        <time>2020-06-04T12:19:30Z</time>
      </trkpt>
      <trkpt lat="46.89021" lon="-2.13227">
        <ele>4.2</ele>
        <time>2020-06-04T12:19:31Z</time>
      </trkpt>
      <trkpt lat="46.89021" lon="-2.13232">
        <ele>4.2</ele>
        <time>2020-06-04T12:19:32Z</time>
      </trkpt>
      <trkpt lat="46.89022" lon="-2.13238">
        <ele>4.2</ele>
        <time>2020-06-04T12:19:33Z</time>
      </trkpt>
      <trkpt lat="46.89022" lon="-2.13245">
        <ele>4.3</ele>
        <time>2020-06-04T12:19:34Z</time>
      </trkpt>
      <trkpt lat="46.89023" lon="-2.13252">
        <ele>4.3</ele>
        <time>2020-06-04T12:19:35Z</time>
      </trkpt>
      <trkpt lat="46.89023" lon="-2.13258">
        <ele>4.3</ele>
        <time>2020-06-04T12:19:36Z</time>
      </trkpt>
      <trkpt lat="46.89023" lon="-2.13264">
        <ele>4.4</ele>
        <time>2020-06-04T12:19:37Z</time>
      </trkpt>
      <trkpt lat="46.89024" lon="-2.1327">
        <ele>4.4</ele>
        <time>2020-06-04T12:19:38Z</time>
      </trkpt>
      <trkpt lat="46.89024" lon="-2.13276">
        <ele>4.4</ele>
        <time>2020-06-04T12:19:39Z</time>
      </trkpt>
      <trkpt lat="46.89025" lon="-2.13282">
        <ele>4.4</ele>
        <time>2020-06-04T12:19:40Z</time>
      </trkpt>
      <trkpt lat="46.89025" lon="-2.13288">
        <ele>4.4</ele>
        <time>2020-06-04T12:19:41Z</time>
      </trkpt>
      <trkpt lat="46.89026" lon="-2.13294">
        <ele>4.4</ele>
        <time>2020-06-04T12:19:42Z</time>
      </trkpt>
      <trkpt lat="46.89028" lon="-2.133">
        <ele>4.4</ele>
        <time>2020-06-04T12:19:43Z</time>
      </trkpt>
      <trkpt lat="46.89029" lon="-2.13307">
        <ele>4.5</ele>
        <time>2020-06-04T12:19:44Z</time>
      </trkpt>
      <trkpt lat="46.8903" lon="-2.13314">
        <ele>4.5</ele>
        <time>2020-06-04T12:19:45Z</time>
      </trkpt>
      <trkpt lat="46.89031" lon="-2.13321">
        <ele>4.5</ele>
        <time>2020-06-04T12:19:46Z</time>
      </trkpt>
      <trkpt lat="46.89032" lon="-2.13327">
        <ele>4.5</ele>
        <time>2020-06-04T12:19:47Z</time>
      </trkpt>
      <trkpt lat="46.89032" lon="-2.13334">
        <ele>4.5</ele>
        <time>2020-06-04T12:19:48Z</time>
      </trkpt>
      <trkpt lat="46.89033" lon="-2.1334">
        <ele>4.5</ele>
        <time>2020-06-04T12:19:49Z</time>
      </trkpt>
      <trkpt lat="46.89034" lon="-2.13346">
        <ele>4.5</ele>
        <time>2020-06-04T12:19:50Z</time>
      </trkpt>
      <trkpt lat="46.89034" lon="-2.13353">
        <ele>4.4</ele>
        <time>2020-06-04T12:19:51Z</time>
      </trkpt>
      <trkpt lat="46.89034" lon="-2.13361">
        <ele>4.4</ele>
        <time>2020-06-04T12:19:52Z</time>
      </trkpt>
      <trkpt lat="46.89035" lon="-2.13369">
        <ele>4.5</ele>
        <time>2020-06-04T12:19:53Z</time>
      </trkpt>
      <trkpt lat="46.89035" lon="-2.13377">
        <ele>4.5</ele>
        <time>2020-06-04T12:19:54Z</time>
      </trkpt>
      <trkpt lat="46.89036" lon="-2.13385">
        <ele>4.6</ele>
        <time>2020-06-04T12:19:55Z</time>
      </trkpt>
      <trkpt lat="46.89037" lon="-2.13394">
        <ele>4.6</ele>
        <time>2020-06-04T12:19:56Z</time>
      </trkpt>
      <trkpt lat="46.89039" lon="-2.13404">
        <ele>4.7</ele>
        <time>2020-06-04T12:19:57Z</time>
      </trkpt>
      <trkpt lat="46.8904" lon="-2.13415">
        <ele>4.9</ele>
        <time>2020-06-04T12:19:58Z</time>
      </trkpt>
      <trkpt lat="46.89039" lon="-2.13424">
        <ele>5.1</ele>
        <time>2020-06-04T12:19:59Z</time>
      </trkpt>
      <trkpt lat="46.89038" lon="-2.13434">
        <ele>5.3</ele>
        <time>2020-06-04T12:20:00Z</time>
      </trkpt>
      <trkpt lat="46.89037" lon="-2.13443">
        <ele>5.5</ele>
        <time>2020-06-04T12:20:01Z</time>
      </trkpt>
      <trkpt lat="46.89037" lon="-2.1345">
        <ele>5.6</ele>
        <time>2020-06-04T12:20:02Z</time>
      </trkpt>
      <trkpt lat="46.89037" lon="-2.13458">
        <ele>5.7</ele>
        <time>2020-06-04T12:20:03Z</time>
      </trkpt>
      <trkpt lat="46.89037" lon="-2.13464">
        <ele>5.8</ele>
        <time>2020-06-04T12:20:04Z</time>
      </trkpt>
      <trkpt lat="46.89037" lon="-2.13471">
        <ele>5.9</ele>
        <time>2020-06-04T12:20:05Z</time>
      </trkpt>
      <trkpt lat="46.89037" lon="-2.13476">
        <ele>5.9</ele>
        <time>2020-06-04T12:20:06Z</time>
      </trkpt>
      <trkpt lat="46.89037" lon="-2.13479">
        <ele>5.9</ele>
        <time>2020-06-04T12:20:07Z</time>
      </trkpt>
      <trkpt lat="46.89035" lon="-2.13482">
        <ele>6</ele>
        <time>2020-06-04T12:20:08Z</time>
      </trkpt>
      <trkpt lat="46.89036" lon="-2.13488">
        <ele>6</ele>
        <time>2020-06-04T12:20:09Z</time>
      </trkpt>
      <trkpt lat="46.89037" lon="-2.1349">
        <ele>6</ele>
        <time>2020-06-04T12:20:10Z</time>
      </trkpt>
      <trkpt lat="46.8904" lon="-2.13493">
        <ele>5.9</ele>
        <time>2020-06-04T12:20:11Z</time>
      </trkpt>
      <trkpt lat="46.89042" lon="-2.13496">
        <ele>5.9</ele>
        <time>2020-06-04T12:20:12Z</time>
      </trkpt>
      <trkpt lat="46.89045" lon="-2.13498">
        <ele>5.9</ele>
        <time>2020-06-04T12:20:13Z</time>
      </trkpt>
      <trkpt lat="46.89048" lon="-2.13502">
        <ele>5.9</ele>
        <time>2020-06-04T12:20:14Z</time>
      </trkpt>
      <trkpt lat="46.89049" lon="-2.13504">
        <ele>5.8</ele>
        <time>2020-06-04T12:20:15Z</time>
      </trkpt>
      <trkpt lat="46.8905" lon="-2.13506">
        <ele>5.8</ele>
        <time>2020-06-04T12:20:16Z</time>
      </trkpt>
      <trkpt lat="46.89051" lon="-2.13507">
        <ele>5.8</ele>
        <time>2020-06-04T12:20:17Z</time>
      </trkpt>
      <trkpt lat="46.89051" lon="-2.13508">
        <ele>5.8</ele>
        <time>2020-06-04T12:20:18Z</time>
      </trkpt>
      <trkpt lat="46.89053" lon="-2.1351">
        <ele>5.8</ele>
        <time>2020-06-04T12:20:19Z</time>
      </trkpt>
      <trkpt lat="46.89053" lon="-2.1351">
        <ele>5.8</ele>
        <time>2020-06-04T12:20:20Z</time>
      </trkpt>
      <trkpt lat="46.89054" lon="-2.13509">
        <ele>5.8</ele>
        <time>2020-06-04T12:20:21Z</time>
      </trkpt>
      <trkpt lat="46.89055" lon="-2.13509">
        <ele>5.7</ele>
        <time>2020-06-04T12:20:22Z</time>
      </trkpt>
      <trkpt lat="46.89058" lon="-2.13508">
        <ele>5.6</ele>
        <time>2020-06-04T12:20:23Z</time>
      </trkpt>
      <trkpt lat="46.89059" lon="-2.13508">
        <ele>5.6</ele>
        <time>2020-06-04T12:20:24Z</time>
      </trkpt>
      <trkpt lat="46.89062" lon="-2.13507">
        <ele>5.6</ele>
        <time>2020-06-04T12:20:25Z</time>
      </trkpt>
      <trkpt lat="46.89063" lon="-2.13507">
        <ele>5.5</ele>
        <time>2020-06-04T12:20:26Z</time>
      </trkpt>
      <trkpt lat="46.89065" lon="-2.13507">
        <ele>5.5</ele>
        <time>2020-06-04T12:20:27Z</time>
      </trkpt>
      <trkpt lat="46.89066" lon="-2.13507">
        <ele>5.5</ele>
        <time>2020-06-04T12:20:28Z</time>
      </trkpt>
      <trkpt lat="46.89067" lon="-2.13507">
        <ele>5.5</ele>
        <time>2020-06-04T12:20:29Z</time>
      </trkpt>
      <trkpt lat="46.89067" lon="-2.13507">
        <ele>5.5</ele>
        <time>2020-06-04T12:20:30Z</time>
      </trkpt>
      <trkpt lat="46.89068" lon="-2.13507">
        <ele>5.5</ele>
        <time>2020-06-04T12:20:31Z</time>
      </trkpt>
      <trkpt lat="46.89068" lon="-2.13507">
        <ele>5.4</ele>
        <time>2020-06-04T12:20:32Z</time>
      </trkpt>
      <trkpt lat="46.89068" lon="-2.13506">
        <ele>5.4</ele>
        <time>2020-06-04T12:20:33Z</time>
      </trkpt>
      <trkpt lat="46.89069" lon="-2.13506">
        <ele>5.4</ele>
        <time>2020-06-04T12:20:34Z</time>
      </trkpt>
      <trkpt lat="46.89068" lon="-2.13506">
        <ele>5.4</ele>
        <time>2020-06-04T12:20:35Z</time>
      </trkpt>
      <trkpt lat="46.89068" lon="-2.13505">
        <ele>5.4</ele>
        <time>2020-06-04T12:20:36Z</time>
      </trkpt>
      <trkpt lat="46.89068" lon="-2.13505">
        <ele>5.4</ele>
        <time>2020-06-04T12:20:37Z</time>
      </trkpt>
      <trkpt lat="46.89069" lon="-2.13505">
        <ele>5.4</ele>
        <time>2020-06-04T12:20:38Z</time>
      </trkpt>
      <trkpt lat="46.89069" lon="-2.13506">
        <ele>5.4</ele>
        <time>2020-06-04T12:20:39Z</time>
      </trkpt>
      <trkpt lat="46.89069" lon="-2.13506">
        <ele>5.4</ele>
        <time>2020-06-04T12:20:40Z</time>
      </trkpt>
      <trkpt lat="46.89072" lon="-2.13508">
        <ele>5.4</ele>
        <time>2020-06-04T12:20:41Z</time>
      </trkpt>
      <trkpt lat="46.89074" lon="-2.1351">
        <ele>5.3</ele>
        <time>2020-06-04T12:22:59Z</time>
      </trkpt>
      <trkpt lat="46.89076" lon="-2.13513">
        <ele>5.2</ele>
        <time>2020-06-04T12:23:00Z</time>
      </trkpt>
      <trkpt lat="46.8908" lon="-2.13513">
        <ele>5.2</ele>
        <time>2020-06-04T12:23:01Z</time>
      </trkpt>
      <trkpt lat="46.89083" lon="-2.13513">
        <ele>5.1</ele>
        <time>2020-06-04T12:23:02Z</time>
      </trkpt>
      <trkpt lat="46.89087" lon="-2.13512">
        <ele>5.1</ele>
        <time>2020-06-04T12:23:03Z</time>
      </trkpt>
      <trkpt lat="46.89091" lon="-2.13511">
        <ele>5</ele>
        <time>2020-06-04T12:23:04Z</time>
      </trkpt>
      <trkpt lat="46.89095" lon="-2.13511">
        <ele>5</ele>
        <time>2020-06-04T12:23:05Z</time>
      </trkpt>
      <trkpt lat="46.89098" lon="-2.1351">
        <ele>4.9</ele>
        <time>2020-06-04T12:23:06Z</time>
      </trkpt>
      <trkpt lat="46.89102" lon="-2.13509">
        <ele>4.8</ele>
        <time>2020-06-04T12:23:07Z</time>
      </trkpt>
      <trkpt lat="46.89105" lon="-2.13507">
        <ele>4.7</ele>
        <time>2020-06-04T12:23:08Z</time>
      </trkpt>
      <trkpt lat="46.89108" lon="-2.13506">
        <ele>4.7</ele>
        <time>2020-06-04T12:23:09Z</time>
      </trkpt>
      <trkpt lat="46.89111" lon="-2.13504">
        <ele>4.6</ele>
        <time>2020-06-04T12:23:10Z</time>
      </trkpt>
      <trkpt lat="46.89115" lon="-2.135">
        <ele>4.5</ele>
        <time>2020-06-04T12:23:11Z</time>
      </trkpt>
      <trkpt lat="46.89118" lon="-2.13498">
        <ele>4.4</ele>
        <time>2020-06-04T12:23:12Z</time>
      </trkpt>
      <trkpt lat="46.89121" lon="-2.13494">
        <ele>4.4</ele>
        <time>2020-06-04T12:23:13Z</time>
      </trkpt>
      <trkpt lat="46.89121" lon="-2.13492">
        <ele>4.4</ele>
        <time>2020-06-04T12:23:14Z</time>
      </trkpt>
      <trkpt lat="46.89121" lon="-2.13489">
        <ele>4.5</ele>
        <time>2020-06-04T12:23:15Z</time>
      </trkpt>
      <trkpt lat="46.89121" lon="-2.13488">
        <ele>4.5</ele>
        <time>2020-06-04T12:23:16Z</time>
      </trkpt>
      <trkpt lat="46.89121" lon="-2.13489">
        <ele>4.5</ele>
        <time>2020-06-04T12:23:17Z</time>
      </trkpt>
      <trkpt lat="46.89121" lon="-2.1349">
        <ele>4.5</ele>
        <time>2020-06-04T12:23:18Z</time>
      </trkpt>
      <trkpt lat="46.89121" lon="-2.1349">
        <ele>4.5</ele>
        <time>2020-06-04T12:23:19Z</time>
      </trkpt>
      <trkpt lat="46.89121" lon="-2.13491">
        <ele>4.5</ele>
        <time>2020-06-04T12:23:20Z</time>
      </trkpt>
      <trkpt lat="46.89121" lon="-2.13492">
        <ele>4.5</ele>
        <time>2020-06-04T12:23:21Z</time>
      </trkpt>
      <trkpt lat="46.89121" lon="-2.13493">
        <ele>4.5</ele>
        <time>2020-06-04T12:23:22Z</time>
      </trkpt>
      <trkpt lat="46.89122" lon="-2.13494">
        <ele>4.5</ele>
        <time>2020-06-04T12:23:23Z</time>
      </trkpt>
      <trkpt lat="46.89122" lon="-2.13495">
        <ele>4.5</ele>
        <time>2020-06-04T12:23:24Z</time>
      </trkpt>
      <trkpt lat="46.89122" lon="-2.13495">
        <ele>4.6</ele>
        <time>2020-06-04T12:23:25Z</time>
      </trkpt>
      <trkpt lat="46.89122" lon="-2.13496">
        <ele>4.6</ele>
        <time>2020-06-04T12:23:26Z</time>
      </trkpt>
      <trkpt lat="46.89122" lon="-2.13497">
        <ele>4.6</ele>
        <time>2020-06-04T12:24:26Z</time>
      </trkpt>
      <trkpt lat="46.89122" lon="-2.13498">
        <ele>4.6</ele>
        <time>2020-06-04T12:24:27Z</time>
      </trkpt>
      <trkpt lat="46.8912" lon="-2.13502">
        <ele>4.6</ele>
        <time>2020-06-04T12:24:28Z</time>
      </trkpt>
      <trkpt lat="46.89118" lon="-2.13502">
        <ele>4.6</ele>
        <time>2020-06-04T12:24:29Z</time>
      </trkpt>
      <trkpt lat="46.89114" lon="-2.13502">
        <ele>4.7</ele>
        <time>2020-06-04T12:24:30Z</time>
      </trkpt>
      <trkpt lat="46.8911" lon="-2.13501">
        <ele>4.7</ele>
        <time>2020-06-04T12:24:31Z</time>
      </trkpt>
      <trkpt lat="46.89106" lon="-2.135">
        <ele>4.8</ele>
        <time>2020-06-04T12:24:32Z</time>
      </trkpt>
      <trkpt lat="46.89102" lon="-2.13501">
        <ele>4.9</ele>
        <time>2020-06-04T12:24:33Z</time>
      </trkpt>
      <trkpt lat="46.89097" lon="-2.13503">
        <ele>4.9</ele>
        <time>2020-06-04T12:24:34Z</time>
      </trkpt>
      <trkpt lat="46.89093" lon="-2.13504">
        <ele>5</ele>
        <time>2020-06-04T12:24:35Z</time>
      </trkpt>
      <trkpt lat="46.89088" lon="-2.13505">
        <ele>5.1</ele>
        <time>2020-06-04T12:24:36Z</time>
      </trkpt>
      <trkpt lat="46.89084" lon="-2.13507">
        <ele>5.1</ele>
        <time>2020-06-04T12:24:37Z</time>
      </trkpt>
      <trkpt lat="46.89079" lon="-2.13507">
        <ele>5.2</ele>
        <time>2020-06-04T12:24:38Z</time>
      </trkpt>
      <trkpt lat="46.89074" lon="-2.13508">
        <ele>5.3</ele>
        <time>2020-06-04T12:24:39Z</time>
      </trkpt>
      <trkpt lat="46.8907" lon="-2.13508">
        <ele>5.4</ele>
        <time>2020-06-04T12:24:40Z</time>
      </trkpt>
      <trkpt lat="46.89066" lon="-2.1351">
        <ele>5.5</ele>
        <time>2020-06-04T12:24:41Z</time>
      </trkpt>
      <trkpt lat="46.89062" lon="-2.13512">
        <ele>5.6</ele>
        <time>2020-06-04T12:24:42Z</time>
      </trkpt>
      <trkpt lat="46.89059" lon="-2.13513">
        <ele>5.6</ele>
        <time>2020-06-04T12:24:43Z</time>
      </trkpt>
      <trkpt lat="46.89056" lon="-2.13514">
        <ele>5.7</ele>
        <time>2020-06-04T12:24:44Z</time>
      </trkpt>
      <trkpt lat="46.89053" lon="-2.13515">
        <ele>5.7</ele>
        <time>2020-06-04T12:24:45Z</time>
      </trkpt>
      <trkpt lat="46.8905" lon="-2.13514">
        <ele>5.8</ele>
        <time>2020-06-04T12:24:46Z</time>
      </trkpt>
      <trkpt lat="46.89049" lon="-2.13513">
        <ele>5.8</ele>
        <time>2020-06-04T12:24:47Z</time>
      </trkpt>
      <trkpt lat="46.89047" lon="-2.1351">
        <ele>5.8</ele>
        <time>2020-06-04T12:24:48Z</time>
      </trkpt>
      <trkpt lat="46.89045" lon="-2.13506">
        <ele>5.9</ele>
        <time>2020-06-04T12:24:49Z</time>
      </trkpt>
      <trkpt lat="46.89042" lon="-2.13503">
        <ele>5.9</ele>
        <time>2020-06-04T12:24:50Z</time>
      </trkpt>
      <trkpt lat="46.89041" lon="-2.13502">
        <ele>5.9</ele>
        <time>2020-06-04T12:24:51Z</time>
      </trkpt>
      <trkpt lat="46.8904" lon="-2.13497">
        <ele>5.9</ele>
        <time>2020-06-04T12:24:52Z</time>
      </trkpt>
      <trkpt lat="46.89039" lon="-2.13496">
        <ele>5.9</ele>
        <time>2020-06-04T12:24:53Z</time>
      </trkpt>
      <trkpt lat="46.89038" lon="-2.1349">
        <ele>6</ele>
        <time>2020-06-04T12:24:54Z</time>
      </trkpt>
      <trkpt lat="46.89038" lon="-2.13489">
        <ele>6</ele>
        <time>2020-06-04T12:24:55Z</time>
      </trkpt>
      <trkpt lat="46.89038" lon="-2.13483">
        <ele>6</ele>
        <time>2020-06-04T12:24:56Z</time>
      </trkpt>
      <trkpt lat="46.89038" lon="-2.13481">
        <ele>6</ele>
        <time>2020-06-04T12:24:57Z</time>
      </trkpt>
      <trkpt lat="46.89037" lon="-2.13477">
        <ele>5.9</ele>
        <time>2020-06-04T12:24:58Z</time>
      </trkpt>
      <trkpt lat="46.89038" lon="-2.1347">
        <ele>5.9</ele>
        <time>2020-06-04T12:24:59Z</time>
      </trkpt>
      <trkpt lat="46.89038" lon="-2.13464">
        <ele>5.8</ele>
        <time>2020-06-04T12:25:00Z</time>
      </trkpt>
      <trkpt lat="46.89038" lon="-2.13458">
        <ele>5.7</ele>
        <time>2020-06-04T12:25:01Z</time>
      </trkpt>
      <trkpt lat="46.89039" lon="-2.13452">
        <ele>5.7</ele>
        <time>2020-06-04T12:25:02Z</time>
      </trkpt>
      <trkpt lat="46.89039" lon="-2.13446">
        <ele>5.5</ele>
        <time>2020-06-04T12:25:03Z</time>
      </trkpt>
      <trkpt lat="46.89039" lon="-2.13439">
        <ele>5.4</ele>
        <time>2020-06-04T12:25:04Z</time>
      </trkpt>
      <trkpt lat="46.89039" lon="-2.13432">
        <ele>5.3</ele>
        <time>2020-06-04T12:25:05Z</time>
      </trkpt>
      <trkpt lat="46.89039" lon="-2.13425">
        <ele>5.1</ele>
        <time>2020-06-04T12:25:06Z</time>
      </trkpt>
      <trkpt lat="46.89039" lon="-2.13418">
        <ele>5</ele>
        <time>2020-06-04T12:25:07Z</time>
      </trkpt>
      <trkpt lat="46.89038" lon="-2.1341">
        <ele>4.8</ele>
        <time>2020-06-04T12:25:08Z</time>
      </trkpt>
      <trkpt lat="46.89038" lon="-2.13402">
        <ele>4.7</ele>
        <time>2020-06-04T12:25:09Z</time>
      </trkpt>
      <trkpt lat="46.89038" lon="-2.13395">
        <ele>4.6</ele>
        <time>2020-06-04T12:25:10Z</time>
      </trkpt>
      <trkpt lat="46.89038" lon="-2.13389">
        <ele>4.6</ele>
        <time>2020-06-04T12:25:11Z</time>
      </trkpt>
      <trkpt lat="46.89038" lon="-2.13381">
        <ele>4.5</ele>
        <time>2020-06-04T12:25:12Z</time>
      </trkpt>
      <trkpt lat="46.89037" lon="-2.13372">
        <ele>4.5</ele>
        <time>2020-06-04T12:25:13Z</time>
      </trkpt>
      <trkpt lat="46.89036" lon="-2.13366">
        <ele>4.5</ele>
        <time>2020-06-04T12:25:14Z</time>
      </trkpt>
      <trkpt lat="46.89035" lon="-2.13358">
        <ele>4.4</ele>
        <time>2020-06-04T12:25:15Z</time>
      </trkpt>
      <trkpt lat="46.89035" lon="-2.13351">
        <ele>4.4</ele>
        <time>2020-06-04T12:25:16Z</time>
      </trkpt>
      <trkpt lat="46.89036" lon="-2.13342">
        <ele>4.5</ele>
        <time>2020-06-04T12:25:17Z</time>
      </trkpt>
      <trkpt lat="46.89035" lon="-2.13336">
        <ele>4.5</ele>
        <time>2020-06-04T12:25:18Z</time>
      </trkpt>
      <trkpt lat="46.89035" lon="-2.13329">
        <ele>4.5</ele>
        <time>2020-06-04T12:25:19Z</time>
      </trkpt>
      <trkpt lat="46.89035" lon="-2.13321">
        <ele>4.5</ele>
        <time>2020-06-04T12:25:20Z</time>
      </trkpt>
      <trkpt lat="46.89034" lon="-2.13315">
        <ele>4.5</ele>
        <time>2020-06-04T12:25:21Z</time>
      </trkpt>
      <trkpt lat="46.89033" lon="-2.13308">
        <ele>4.5</ele>
        <time>2020-06-04T12:25:22Z</time>
      </trkpt>
      <trkpt lat="46.89032" lon="-2.13301">
        <ele>4.4</ele>
        <time>2020-06-04T12:25:23Z</time>
      </trkpt>
      <trkpt lat="46.89031" lon="-2.13295">
        <ele>4.4</ele>
        <time>2020-06-04T12:25:24Z</time>
      </trkpt>
      <trkpt lat="46.8903" lon="-2.13289">
        <ele>4.4</ele>
        <time>2020-06-04T12:25:25Z</time>
      </trkpt>
      <trkpt lat="46.89029" lon="-2.13283">
        <ele>4.4</ele>
        <time>2020-06-04T12:25:26Z</time>
      </trkpt>
      <trkpt lat="46.89028" lon="-2.13277">
        <ele>4.4</ele>
        <time>2020-06-04T12:25:27Z</time>
      </trkpt>
      <trkpt lat="46.89027" lon="-2.1327">
        <ele>4.4</ele>
        <time>2020-06-04T12:25:28Z</time>
      </trkpt>
      <trkpt lat="46.89026" lon="-2.13263">
        <ele>4.4</ele>
        <time>2020-06-04T12:25:29Z</time>
      </trkpt>
      <trkpt lat="46.89025" lon="-2.13258">
        <ele>4.3</ele>
        <time>2020-06-04T12:25:30Z</time>
      </trkpt>
      <trkpt lat="46.89023" lon="-2.13251">
        <ele>4.3</ele>
        <time>2020-06-04T12:25:31Z</time>
      </trkpt>
      <trkpt lat="46.89023" lon="-2.13242">
        <ele>4.3</ele>
        <time>2020-06-04T12:25:32Z</time>
      </trkpt>
      <trkpt lat="46.89023" lon="-2.13235">
        <ele>4.2</ele>
        <time>2020-06-04T12:25:33Z</time>
      </trkpt>
      <trkpt lat="46.89022" lon="-2.13227">
        <ele>4.2</ele>
        <time>2020-06-04T12:25:34Z</time>
      </trkpt>
      <trkpt lat="46.89021" lon="-2.1322">
        <ele>4.1</ele>
        <time>2020-06-04T12:25:35Z</time>
      </trkpt>
      <trkpt lat="46.8902" lon="-2.13212">
        <ele>4.1</ele>
        <time>2020-06-04T12:25:36Z</time>
      </trkpt>
      <trkpt lat="46.89019" lon="-2.13205">
        <ele>4.1</ele>
        <time>2020-06-04T12:25:37Z</time>
      </trkpt>
      <trkpt lat="46.89017" lon="-2.13198">
        <ele>4.1</ele>
        <time>2020-06-04T12:25:38Z</time>
      </trkpt>
      <trkpt lat="46.89017" lon="-2.13191">
        <ele>4.1</ele>
        <time>2020-06-04T12:25:39Z</time>
      </trkpt>
      <trkpt lat="46.89016" lon="-2.13183">
        <ele>4.1</ele>
        <time>2020-06-04T12:25:40Z</time>
      </trkpt>
      <trkpt lat="46.89015" lon="-2.13177">
        <ele>4.1</ele>
        <time>2020-06-04T12:25:41Z</time>
      </trkpt>
      <trkpt lat="46.89015" lon="-2.13171">
        <ele>4.1</ele>
        <time>2020-06-04T12:25:42Z</time>
      </trkpt>
      <trkpt lat="46.89013" lon="-2.13164">
        <ele>4.1</ele>
        <time>2020-06-04T12:25:43Z</time>
      </trkpt>
      <trkpt lat="46.89013" lon="-2.13157">
        <ele>4</ele>
        <time>2020-06-04T12:25:44Z</time>
      </trkpt>
      <trkpt lat="46.89011" lon="-2.1315">
        <ele>4</ele>
        <time>2020-06-04T12:25:45Z</time>
      </trkpt>
      <trkpt lat="46.89009" lon="-2.13144">
        <ele>4</ele>
        <time>2020-06-04T12:25:46Z</time>
      </trkpt>
      <trkpt lat="46.89009" lon="-2.13136">
        <ele>4</ele>
        <time>2020-06-04T12:25:47Z</time>
      </trkpt>
      <trkpt lat="46.89009" lon="-2.13129">
        <ele>3.9</ele>
        <time>2020-06-04T12:25:48Z</time>
      </trkpt>
      <trkpt lat="46.89007" lon="-2.13121">
        <ele>3.9</ele>
        <time>2020-06-04T12:25:49Z</time>
      </trkpt>
      <trkpt lat="46.89004" lon="-2.13115">
        <ele>3.8</ele>
        <time>2020-06-04T12:25:50Z</time>
      </trkpt>
      <trkpt lat="46.89001" lon="-2.13108">
        <ele>3.7</ele>
        <time>2020-06-04T12:25:51Z</time>
      </trkpt>
      <trkpt lat="46.88997" lon="-2.13101">
        <ele>3.6</ele>
        <time>2020-06-04T12:25:52Z</time>
      </trkpt>
      <trkpt lat="46.88993" lon="-2.13093">
        <ele>3.5</ele>
        <time>2020-06-04T12:25:53Z</time>
      </trkpt>
      <trkpt lat="46.8899" lon="-2.13085">
        <ele>3.4</ele>
        <time>2020-06-04T12:25:54Z</time>
      </trkpt>
      <trkpt lat="46.88986" lon="-2.13077">
        <ele>3.3</ele>
        <time>2020-06-04T12:25:55Z</time>
      </trkpt>
      <trkpt lat="46.88982" lon="-2.13071">
        <ele>3.3</ele>
        <time>2020-06-04T12:25:56Z</time>
      </trkpt>
      <trkpt lat="46.8898" lon="-2.13066">
        <ele>3.2</ele>
        <time>2020-06-04T12:25:57Z</time>
      </trkpt>
      <trkpt lat="46.88976" lon="-2.13062">
        <ele>3.2</ele>
        <time>2020-06-04T12:25:58Z</time>
      </trkpt>
      <trkpt lat="46.88973" lon="-2.13059">
        <ele>3.2</ele>
        <time>2020-06-04T12:25:59Z</time>
      </trkpt>
      <trkpt lat="46.88971" lon="-2.13055">
        <ele>3.2</ele>
        <time>2020-06-04T12:26:00Z</time>
      </trkpt>
      <trkpt lat="46.88969" lon="-2.1305">
        <ele>3.2</ele>
        <time>2020-06-04T12:26:01Z</time>
      </trkpt>
      <trkpt lat="46.88967" lon="-2.13046">
        <ele>3.1</ele>
        <time>2020-06-04T12:26:02Z</time>
      </trkpt>
      <trkpt lat="46.88965" lon="-2.13043">
        <ele>3.1</ele>
        <time>2020-06-04T12:26:03Z</time>
      </trkpt>
      <trkpt lat="46.88962" lon="-2.13038">
        <ele>3.1</ele>
        <time>2020-06-04T12:26:04Z</time>
      </trkpt>
      <trkpt lat="46.88961" lon="-2.13035">
        <ele>3.1</ele>
        <time>2020-06-04T12:26:05Z</time>
      </trkpt>
      <trkpt lat="46.88957" lon="-2.13031">
        <ele>3.1</ele>
        <time>2020-06-04T12:26:06Z</time>
      </trkpt>
      <trkpt lat="46.88954" lon="-2.13027">
        <ele>3.1</ele>
        <time>2020-06-04T12:26:07Z</time>
      </trkpt>
      <trkpt lat="46.88952" lon="-2.13021">
        <ele>3.1</ele>
        <time>2020-06-04T12:26:08Z</time>
      </trkpt>
      <trkpt lat="46.88949" lon="-2.13016">
        <ele>3.1</ele>
        <time>2020-06-04T12:26:09Z</time>
      </trkpt>
      <trkpt lat="46.88946" lon="-2.13013">
        <ele>3.1</ele>
        <time>2020-06-04T12:26:10Z</time>
      </trkpt>
      <trkpt lat="46.88943" lon="-2.13009">
        <ele>3.1</ele>
        <time>2020-06-04T12:26:11Z</time>
      </trkpt>
      <trkpt lat="46.88939" lon="-2.13005">
        <ele>3.1</ele>
        <time>2020-06-04T12:26:12Z</time>
      </trkpt>
      <trkpt lat="46.88936" lon="-2.13002">
        <ele>3.1</ele>
        <time>2020-06-04T12:26:13Z</time>
      </trkpt>
      <trkpt lat="46.88933" lon="-2.12997">
        <ele>3</ele>
        <time>2020-06-04T12:26:14Z</time>
      </trkpt>
      <trkpt lat="46.8893" lon="-2.12992">
        <ele>3</ele>
        <time>2020-06-04T12:26:15Z</time>
      </trkpt>
      <trkpt lat="46.88927" lon="-2.12986">
        <ele>3</ele>
        <time>2020-06-04T12:26:16Z</time>
      </trkpt>
      <trkpt lat="46.88925" lon="-2.1298">
        <ele>3</ele>
        <time>2020-06-04T12:26:17Z</time>
      </trkpt>
      <trkpt lat="46.88921" lon="-2.12976">
        <ele>3</ele>
        <time>2020-06-04T12:26:18Z</time>
      </trkpt>
      <trkpt lat="46.88919" lon="-2.12971">
        <ele>3</ele>
        <time>2020-06-04T12:26:19Z</time>
      </trkpt>
      <trkpt lat="46.88916" lon="-2.12966">
        <ele>2.9</ele>
        <time>2020-06-04T12:26:20Z</time>
      </trkpt>
      <trkpt lat="46.88913" lon="-2.1296">
        <ele>2.9</ele>
        <time>2020-06-04T12:26:21Z</time>
      </trkpt>
      <trkpt lat="46.88909" lon="-2.12953">
        <ele>2.9</ele>
        <time>2020-06-04T12:26:22Z</time>
      </trkpt>
      <trkpt lat="46.88905" lon="-2.12947">
        <ele>2.8</ele>
        <time>2020-06-04T12:26:23Z</time>
      </trkpt>
      <trkpt lat="46.88902" lon="-2.12942">
        <ele>2.8</ele>
        <time>2020-06-04T12:26:24Z</time>
      </trkpt>
      <trkpt lat="46.88899" lon="-2.12936">
        <ele>2.8</ele>
        <time>2020-06-04T12:26:25Z</time>
      </trkpt>
      <trkpt lat="46.88898" lon="-2.12932">
        <ele>2.8</ele>
        <time>2020-06-04T12:26:26Z</time>
      </trkpt>
      <trkpt lat="46.88896" lon="-2.12928">
        <ele>2.8</ele>
        <time>2020-06-04T12:26:27Z</time>
      </trkpt>
      <trkpt lat="46.88893" lon="-2.12922">
        <ele>2.7</ele>
        <time>2020-06-04T12:26:28Z</time>
      </trkpt>
      <trkpt lat="46.88891" lon="-2.12916">
        <ele>2.7</ele>
        <time>2020-06-04T12:26:29Z</time>
      </trkpt>
      <trkpt lat="46.88887" lon="-2.12911">
        <ele>2.6</ele>
        <time>2020-06-04T12:26:30Z</time>
      </trkpt>
      <trkpt lat="46.88884" lon="-2.12906">
        <ele>2.6</ele>
        <time>2020-06-04T12:26:31Z</time>
      </trkpt>
      <trkpt lat="46.88881" lon="-2.12902">
        <ele>2.6</ele>
        <time>2020-06-04T12:26:32Z</time>
      </trkpt>
      <trkpt lat="46.88878" lon="-2.12898">
        <ele>2.5</ele>
        <time>2020-06-04T12:26:33Z</time>
      </trkpt>
      <trkpt lat="46.88876" lon="-2.12895">
        <ele>2.5</ele>
        <time>2020-06-04T12:26:34Z</time>
      </trkpt>
      <trkpt lat="46.88875" lon="-2.12891">
        <ele>2.5</ele>
        <time>2020-06-04T12:26:35Z</time>
      </trkpt>
      <trkpt lat="46.88872" lon="-2.12889">
        <ele>2.5</ele>
        <time>2020-06-04T12:26:36Z</time>
      </trkpt>
      <trkpt lat="46.8887" lon="-2.12885">
        <ele>2.5</ele>
        <time>2020-06-04T12:26:37Z</time>
      </trkpt>
      <trkpt lat="46.88868" lon="-2.12881">
        <ele>2.5</ele>
        <time>2020-06-04T12:26:38Z</time>
      </trkpt>
      <trkpt lat="46.88867" lon="-2.12876">
        <ele>2.5</ele>
        <time>2020-06-04T12:26:39Z</time>
      </trkpt>
      <trkpt lat="46.88866" lon="-2.12874">
        <ele>2.5</ele>
        <time>2020-06-04T12:26:40Z</time>
      </trkpt>
      <trkpt lat="46.88865" lon="-2.1287">
        <ele>2.5</ele>
        <time>2020-06-04T12:26:41Z</time>
      </trkpt>
      <trkpt lat="46.88863" lon="-2.12867">
        <ele>2.5</ele>
        <time>2020-06-04T12:26:42Z</time>
      </trkpt>
      <trkpt lat="46.88862" lon="-2.12866">
        <ele>2.5</ele>
        <time>2020-06-04T12:26:43Z</time>
      </trkpt>
      <trkpt lat="46.8886" lon="-2.12863">
        <ele>2.5</ele>
        <time>2020-06-04T12:26:44Z</time>
      </trkpt>
      <trkpt lat="46.88857" lon="-2.1286">
        <ele>2.5</ele>
        <time>2020-06-04T12:26:45Z</time>
      </trkpt>
      <trkpt lat="46.88855" lon="-2.12856">
        <ele>2.5</ele>
        <time>2020-06-04T12:26:46Z</time>
      </trkpt>
      <trkpt lat="46.88852" lon="-2.12854">
        <ele>2.5</ele>
        <time>2020-06-04T12:26:47Z</time>
      </trkpt>
      <trkpt lat="46.8885" lon="-2.12849">
        <ele>2.6</ele>
        <time>2020-06-04T12:26:48Z</time>
      </trkpt>
      <trkpt lat="46.88849" lon="-2.12848">
        <ele>2.6</ele>
        <time>2020-06-04T12:26:49Z</time>
      </trkpt>
      <trkpt lat="46.88846" lon="-2.12843">
        <ele>2.6</ele>
        <time>2020-06-04T12:26:50Z</time>
      </trkpt>
      <trkpt lat="46.88844" lon="-2.12837">
        <ele>2.6</ele>
        <time>2020-06-04T12:26:51Z</time>
      </trkpt>
      <trkpt lat="46.88842" lon="-2.12832">
        <ele>2.7</ele>
        <time>2020-06-04T12:26:52Z</time>
      </trkpt>
      <trkpt lat="46.8884" lon="-2.12826">
        <ele>2.7</ele>
        <time>2020-06-04T12:26:53Z</time>
      </trkpt>
      <trkpt lat="46.88837" lon="-2.12819">
        <ele>2.8</ele>
        <time>2020-06-04T12:26:54Z</time>
      </trkpt>
      <trkpt lat="46.88835" lon="-2.12812">
        <ele>2.8</ele>
        <time>2020-06-04T12:26:55Z</time>
      </trkpt>
      <trkpt lat="46.88832" lon="-2.12807">
        <ele>2.9</ele>
        <time>2020-06-04T12:26:56Z</time>
      </trkpt>
      <trkpt lat="46.8883" lon="-2.12801">
        <ele>3</ele>
        <time>2020-06-04T12:26:57Z</time>
      </trkpt>
      <trkpt lat="46.88828" lon="-2.12795">
        <ele>3</ele>
        <time>2020-06-04T12:26:58Z</time>
      </trkpt>
      <trkpt lat="46.88825" lon="-2.1279">
        <ele>3.1</ele>
        <time>2020-06-04T12:26:59Z</time>
      </trkpt>
      <trkpt lat="46.88822" lon="-2.12786">
        <ele>3.2</ele>
        <time>2020-06-04T12:27:00Z</time>
      </trkpt>
      <trkpt lat="46.8882" lon="-2.12781">
        <ele>3.3</ele>
        <time>2020-06-04T12:27:01Z</time>
      </trkpt>
      <trkpt lat="46.88818" lon="-2.12777">
        <ele>3.4</ele>
        <time>2020-06-04T12:27:02Z</time>
      </trkpt>
      <trkpt lat="46.88816" lon="-2.12771">
        <ele>3.5</ele>
        <time>2020-06-04T12:27:03Z</time>
      </trkpt>
      <trkpt lat="46.88813" lon="-2.12767">
        <ele>3.6</ele>
        <time>2020-06-04T12:27:04Z</time>
      </trkpt>
      <trkpt lat="46.88811" lon="-2.12762">
        <ele>3.8</ele>
        <time>2020-06-04T12:27:05Z</time>
      </trkpt>
      <trkpt lat="46.88809" lon="-2.12758">
        <ele>3.9</ele>
        <time>2020-06-04T12:27:06Z</time>
      </trkpt>
      <trkpt lat="46.88807" lon="-2.12753">
        <ele>4</ele>
        <time>2020-06-04T12:27:07Z</time>
      </trkpt>
      <trkpt lat="46.88804" lon="-2.12748">
        <ele>4.2</ele>
        <time>2020-06-04T12:27:08Z</time>
      </trkpt>
      <trkpt lat="46.88803" lon="-2.12743">
        <ele>4.3</ele>
        <time>2020-06-04T12:27:09Z</time>
      </trkpt>
      <trkpt lat="46.88801" lon="-2.12739">
        <ele>4.4</ele>
        <time>2020-06-04T12:27:10Z</time>
      </trkpt>
      <trkpt lat="46.888" lon="-2.12735">
        <ele>4.5</ele>
        <time>2020-06-04T12:27:11Z</time>
      </trkpt>
      <trkpt lat="46.88798" lon="-2.12731">
        <ele>4.6</ele>
        <time>2020-06-04T12:27:12Z</time>
      </trkpt>
      <trkpt lat="46.88796" lon="-2.12727">
        <ele>4.7</ele>
        <time>2020-06-04T12:27:13Z</time>
      </trkpt>
      <trkpt lat="46.88794" lon="-2.12723">
        <ele>4.8</ele>
        <time>2020-06-04T12:27:14Z</time>
      </trkpt>
      <trkpt lat="46.88792" lon="-2.12719">
        <ele>4.9</ele>
        <time>2020-06-04T12:27:15Z</time>
      </trkpt>
      <trkpt lat="46.8879" lon="-2.12716">
        <ele>5</ele>
        <time>2020-06-04T12:27:16Z</time>
      </trkpt>
      <trkpt lat="46.88788" lon="-2.12712">
        <ele>5.1</ele>
        <time>2020-06-04T12:27:17Z</time>
      </trkpt>
      <trkpt lat="46.88787" lon="-2.12708">
        <ele>5.1</ele>
        <time>2020-06-04T12:27:18Z</time>
      </trkpt>
      <trkpt lat="46.88785" lon="-2.12703">
        <ele>5.2</ele>
        <time>2020-06-04T12:27:19Z</time>
      </trkpt>
      <trkpt lat="46.88782" lon="-2.12698">
        <ele>5.2</ele>
        <time>2020-06-04T12:27:20Z</time>
      </trkpt>
      <trkpt lat="46.88779" lon="-2.12694">
        <ele>5.3</ele>
        <time>2020-06-04T12:27:21Z</time>
      </trkpt>
      <trkpt lat="46.88776" lon="-2.12689">
        <ele>5.3</ele>
        <time>2020-06-04T12:27:22Z</time>
      </trkpt>
      <trkpt lat="46.88773" lon="-2.12684">
        <ele>5.3</ele>
        <time>2020-06-04T12:27:23Z</time>
      </trkpt>
      <trkpt lat="46.8877" lon="-2.12678">
        <ele>5.3</ele>
        <time>2020-06-04T12:27:24Z</time>
      </trkpt>
      <trkpt lat="46.88766" lon="-2.12674">
        <ele>5.3</ele>
        <time>2020-06-04T12:27:25Z</time>
      </trkpt>
      <trkpt lat="46.88763" lon="-2.12668">
        <ele>5.3</ele>
        <time>2020-06-04T12:27:26Z</time>
      </trkpt>
      <trkpt lat="46.88759" lon="-2.12661">
        <ele>5.3</ele>
        <time>2020-06-04T12:27:27Z</time>
      </trkpt>
      <trkpt lat="46.88756" lon="-2.12653">
        <ele>5.3</ele>
        <time>2020-06-04T12:27:28Z</time>
      </trkpt>
      <trkpt lat="46.88752" lon="-2.12646">
        <ele>5.4</ele>
        <time>2020-06-04T12:27:29Z</time>
      </trkpt>
      <trkpt lat="46.88749" lon="-2.12639">
        <ele>5.4</ele>
        <time>2020-06-04T12:27:30Z</time>
      </trkpt>
      <trkpt lat="46.88746" lon="-2.12632">
        <ele>5.5</ele>
        <time>2020-06-04T12:27:31Z</time>
      </trkpt>
      <trkpt lat="46.88743" lon="-2.12625">
        <ele>5.6</ele>
        <time>2020-06-04T12:27:32Z</time>
      </trkpt>
      <trkpt lat="46.8874" lon="-2.12618">
        <ele>5.8</ele>
        <time>2020-06-04T12:27:33Z</time>
      </trkpt>
      <trkpt lat="46.88737" lon="-2.12611">
        <ele>5.9</ele>
        <time>2020-06-04T12:27:34Z</time>
      </trkpt>
      <trkpt lat="46.88734" lon="-2.12605">
        <ele>6.1</ele>
        <time>2020-06-04T12:27:35Z</time>
      </trkpt>
      <trkpt lat="46.88731" lon="-2.12599">
        <ele>6.2</ele>
        <time>2020-06-04T12:27:36Z</time>
      </trkpt>
      <trkpt lat="46.88729" lon="-2.12595">
        <ele>6.3</ele>
        <time>2020-06-04T12:27:37Z</time>
      </trkpt>
      <trkpt lat="46.88726" lon="-2.1259">
        <ele>6.4</ele>
        <time>2020-06-04T12:27:38Z</time>
      </trkpt>
      <trkpt lat="46.88724" lon="-2.12584">
        <ele>6.6</ele>
        <time>2020-06-04T12:27:39Z</time>
      </trkpt>
      <trkpt lat="46.88721" lon="-2.12577">
        <ele>6.8</ele>
        <time>2020-06-04T12:27:40Z</time>
      </trkpt>
      <trkpt lat="46.88719" lon="-2.1257">
        <ele>7</ele>
        <time>2020-06-04T12:27:41Z</time>
      </trkpt>
      <trkpt lat="46.88717" lon="-2.12564">
        <ele>7.2</ele>
        <time>2020-06-04T12:27:42Z</time>
      </trkpt>
      <trkpt lat="46.88716" lon="-2.12558">
        <ele>7.3</ele>
        <time>2020-06-04T12:27:43Z</time>
      </trkpt>
      <trkpt lat="46.88714" lon="-2.12553">
        <ele>7.5</ele>
        <time>2020-06-04T12:27:44Z</time>
      </trkpt>
      <trkpt lat="46.88713" lon="-2.12546">
        <ele>7.7</ele>
        <time>2020-06-04T12:27:45Z</time>
      </trkpt>
      <trkpt lat="46.88711" lon="-2.12541">
        <ele>7.8</ele>
        <time>2020-06-04T12:27:46Z</time>
      </trkpt>
      <trkpt lat="46.8871" lon="-2.12536">
        <ele>8</ele>
        <time>2020-06-04T12:27:47Z</time>
      </trkpt>
      <trkpt lat="46.88709" lon="-2.1253">
        <ele>8.1</ele>
        <time>2020-06-04T12:27:48Z</time>
      </trkpt>
      <trkpt lat="46.88708" lon="-2.12525">
        <ele>8.1</ele>
        <time>2020-06-04T12:27:49Z</time>
      </trkpt>
      <trkpt lat="46.88707" lon="-2.1252">
        <ele>8.2</ele>
        <time>2020-06-04T12:27:50Z</time>
      </trkpt>
      <trkpt lat="46.88707" lon="-2.12516">
        <ele>8.2</ele>
        <time>2020-06-04T12:27:51Z</time>
      </trkpt>
      <trkpt lat="46.88705" lon="-2.1251">
        <ele>8.2</ele>
        <time>2020-06-04T12:27:52Z</time>
      </trkpt>
      <trkpt lat="46.88705" lon="-2.12505">
        <ele>8.3</ele>
        <time>2020-06-04T12:27:53Z</time>
      </trkpt>
      <trkpt lat="46.88704" lon="-2.125">
        <ele>8.3</ele>
        <time>2020-06-04T12:27:54Z</time>
      </trkpt>
      <trkpt lat="46.88703" lon="-2.12495">
        <ele>8.3</ele>
        <time>2020-06-04T12:27:55Z</time>
      </trkpt>
      <trkpt lat="46.88702" lon="-2.12489">
        <ele>8.3</ele>
        <time>2020-06-04T12:27:56Z</time>
      </trkpt>
      <trkpt lat="46.887" lon="-2.12485">
        <ele>8.3</ele>
        <time>2020-06-04T12:27:57Z</time>
      </trkpt>
      <trkpt lat="46.88699" lon="-2.12481">
        <ele>8.3</ele>
        <time>2020-06-04T12:27:58Z</time>
      </trkpt>
      <trkpt lat="46.88697" lon="-2.12476">
        <ele>8.3</ele>
        <time>2020-06-04T12:27:59Z</time>
      </trkpt>
      <trkpt lat="46.88696" lon="-2.12474">
        <ele>8.3</ele>
        <time>2020-06-04T12:28:00Z</time>
      </trkpt>
      <trkpt lat="46.88696" lon="-2.12472">
        <ele>8.3</ele>
        <time>2020-06-04T12:28:01Z</time>
      </trkpt>
      <trkpt lat="46.88695" lon="-2.1247">
        <ele>8.3</ele>
        <time>2020-06-04T12:28:02Z</time>
      </trkpt>
      <trkpt lat="46.88695" lon="-2.12469">
        <ele>8.3</ele>
        <time>2020-06-04T12:28:03Z</time>
      </trkpt>
      <trkpt lat="46.88696" lon="-2.12466">
        <ele>8.3</ele>
        <time>2020-06-04T12:28:04Z</time>
      </trkpt>
      <trkpt lat="46.88696" lon="-2.12464">
        <ele>8</ele>
        <time>2020-06-04T12:28:05Z</time>
      </trkpt>
      <trkpt lat="46.88696" lon="-2.12461">
        <ele>7.9</ele>
        <time>2020-06-04T12:28:06Z</time>
      </trkpt>
      <trkpt lat="46.88696" lon="-2.12455">
        <ele>7.8</ele>
        <time>2020-06-04T12:28:07Z</time>
      </trkpt>
      <trkpt lat="46.88696" lon="-2.12448">
        <ele>7.6</ele>
        <time>2020-06-04T12:28:08Z</time>
      </trkpt>
      <trkpt lat="46.88695" lon="-2.12439">
        <ele>7.5</ele>
        <time>2020-06-04T12:28:09Z</time>
      </trkpt>
      <trkpt lat="46.88694" lon="-2.1243">
        <ele>7.1</ele>
        <time>2020-06-04T12:28:10Z</time>
      </trkpt>
      <trkpt lat="46.88695" lon="-2.12421">
        <ele>7.1</ele>
        <time>2020-06-04T12:28:11Z</time>
      </trkpt>
      <trkpt lat="46.88695" lon="-2.12413">
        <ele>7</ele>
        <time>2020-06-04T12:28:12Z</time>
      </trkpt>
      <trkpt lat="46.88695" lon="-2.12404">
        <ele>7</ele>
        <time>2020-06-04T12:28:13Z</time>
      </trkpt>
      <trkpt lat="46.88695" lon="-2.12394">
        <ele>6.9</ele>
        <time>2020-06-04T12:28:14Z</time>
      </trkpt>
      <trkpt lat="46.88694" lon="-2.12386">
        <ele>6.9</ele>
        <time>2020-06-04T12:28:15Z</time>
      </trkpt>
      <trkpt lat="46.88694" lon="-2.12378">
        <ele>6.8</ele>
        <time>2020-06-04T12:28:16Z</time>
      </trkpt>
      <trkpt lat="46.88693" lon="-2.12369">
        <ele>6.8</ele>
        <time>2020-06-04T12:28:17Z</time>
      </trkpt>
      <trkpt lat="46.88692" lon="-2.12361">
        <ele>6.8</ele>
        <time>2020-06-04T12:28:18Z</time>
      </trkpt>
      <trkpt lat="46.88691" lon="-2.12354">
        <ele>6.8</ele>
        <time>2020-06-04T12:28:19Z</time>
      </trkpt>
      <trkpt lat="46.88689" lon="-2.12345">
        <ele>6.8</ele>
        <time>2020-06-04T12:28:20Z</time>
      </trkpt>
      <trkpt lat="46.88688" lon="-2.12338">
        <ele>6.8</ele>
        <time>2020-06-04T12:28:21Z</time>
      </trkpt>
      <trkpt lat="46.88686" lon="-2.12329">
        <ele>6.8</ele>
        <time>2020-06-04T12:28:22Z</time>
      </trkpt>
      <trkpt lat="46.88683" lon="-2.12321">
        <ele>6.7</ele>
        <time>2020-06-04T12:28:23Z</time>
      </trkpt>
      <trkpt lat="46.8868" lon="-2.12313">
        <ele>6.6</ele>
        <time>2020-06-04T12:28:24Z</time>
      </trkpt>
      <trkpt lat="46.88677" lon="-2.12306">
        <ele>6.5</ele>
        <time>2020-06-04T12:28:25Z</time>
      </trkpt>
      <trkpt lat="46.88673" lon="-2.12299">
        <ele>6.5</ele>
        <time>2020-06-04T12:28:26Z</time>
      </trkpt>
      <trkpt lat="46.88668" lon="-2.12293">
        <ele>6.4</ele>
        <time>2020-06-04T12:28:27Z</time>
      </trkpt>
      <trkpt lat="46.88665" lon="-2.12287">
        <ele>6.3</ele>
        <time>2020-06-04T12:28:28Z</time>
      </trkpt>
      <trkpt lat="46.88663" lon="-2.12282">
        <ele>6.3</ele>
        <time>2020-06-04T12:28:29Z</time>
      </trkpt>
      <trkpt lat="46.88662" lon="-2.12278">
        <ele>6.3</ele>
        <time>2020-06-04T12:28:30Z</time>
      </trkpt>
      <trkpt lat="46.8866" lon="-2.12274">
        <ele>6.2</ele>
        <time>2020-06-04T12:28:31Z</time>
      </trkpt>
      <trkpt lat="46.88659" lon="-2.1227">
        <ele>6</ele>
        <time>2020-06-04T12:28:32Z</time>
      </trkpt>
      <trkpt lat="46.88657" lon="-2.12265">
        <ele>6</ele>
        <time>2020-06-04T12:28:33Z</time>
      </trkpt>
      <trkpt lat="46.88657" lon="-2.12263">
        <ele>6</ele>
        <time>2020-06-04T12:28:34Z</time>
      </trkpt>
      <trkpt lat="46.88661" lon="-2.1226">
        <ele>6</ele>
        <time>2020-06-04T12:28:35Z</time>
      </trkpt>
      <trkpt lat="46.88663" lon="-2.12258">
        <ele>6</ele>
        <time>2020-06-04T12:28:36Z</time>
      </trkpt>
      <trkpt lat="46.88667" lon="-2.12254">
        <ele>6</ele>
        <time>2020-06-04T12:28:37Z</time>
      </trkpt>
      <trkpt lat="46.88671" lon="-2.1225">
        <ele>6</ele>
        <time>2020-06-04T12:28:38Z</time>
      </trkpt>
      <trkpt lat="46.88675" lon="-2.12246">
        <ele>5.9</ele>
        <time>2020-06-04T12:28:39Z</time>
      </trkpt>
      <trkpt lat="46.8868" lon="-2.12242">
        <ele>5.9</ele>
        <time>2020-06-04T12:28:40Z</time>
      </trkpt>
      <trkpt lat="46.88685" lon="-2.12238">
        <ele>5.8</ele>
        <time>2020-06-04T12:28:41Z</time>
      </trkpt>
      <trkpt lat="46.88691" lon="-2.12234">
        <ele>5.8</ele>
        <time>2020-06-04T12:28:42Z</time>
      </trkpt>
      <trkpt lat="46.88696" lon="-2.12229">
        <ele>5.7</ele>
        <time>2020-06-04T12:28:43Z</time>
      </trkpt>
      <trkpt lat="46.88701" lon="-2.12224">
        <ele>5.7</ele>
        <time>2020-06-04T12:28:44Z</time>
      </trkpt>
      <trkpt lat="46.88706" lon="-2.12222">
        <ele>5.7</ele>
        <time>2020-06-04T12:28:45Z</time>
      </trkpt>
      <trkpt lat="46.88711" lon="-2.12219">
        <ele>5.7</ele>
        <time>2020-06-04T12:28:46Z</time>
      </trkpt>
      <trkpt lat="46.88715" lon="-2.12217">
        <ele>5.7</ele>
        <time>2020-06-04T12:28:47Z</time>
      </trkpt>
      <trkpt lat="46.88719" lon="-2.12213">
        <ele>5.7</ele>
        <time>2020-06-04T12:28:48Z</time>
      </trkpt>
      <trkpt lat="46.88724" lon="-2.12211">
        <ele>5.6</ele>
        <time>2020-06-04T12:28:49Z</time>
      </trkpt>
      <trkpt lat="46.8873" lon="-2.12208">
        <ele>5.6</ele>
        <time>2020-06-04T12:28:50Z</time>
      </trkpt>
      <trkpt lat="46.88735" lon="-2.12204">
        <ele>5.6</ele>
        <time>2020-06-04T12:28:51Z</time>
      </trkpt>
      <trkpt lat="46.8874" lon="-2.12202">
        <ele>5.6</ele>
        <time>2020-06-04T12:28:52Z</time>
      </trkpt>
      <trkpt lat="46.88745" lon="-2.12199">
        <ele>5.6</ele>
        <time>2020-06-04T12:28:53Z</time>
      </trkpt>
      <trkpt lat="46.88751" lon="-2.12196">
        <ele>5.5</ele>
        <time>2020-06-04T12:28:54Z</time>
      </trkpt>
      <trkpt lat="46.88755" lon="-2.12194">
        <ele>5.5</ele>
        <time>2020-06-04T12:28:55Z</time>
      </trkpt>
      <trkpt lat="46.8876" lon="-2.12192">
        <ele>5.4</ele>
        <time>2020-06-04T12:28:56Z</time>
      </trkpt>
      <trkpt lat="46.88765" lon="-2.12189">
        <ele>5.3</ele>
        <time>2020-06-04T12:28:57Z</time>
      </trkpt>
      <trkpt lat="46.8877" lon="-2.12187">
        <ele>5.3</ele>
        <time>2020-06-04T12:28:58Z</time>
      </trkpt>
      <trkpt lat="46.88775" lon="-2.12184">
        <ele>5.2</ele>
        <time>2020-06-04T12:28:59Z</time>
      </trkpt>
      <trkpt lat="46.88779" lon="-2.12181">
        <ele>5.1</ele>
        <time>2020-06-04T12:29:00Z</time>
      </trkpt>
      <trkpt lat="46.88784" lon="-2.12177">
        <ele>5.1</ele>
        <time>2020-06-04T12:29:01Z</time>
      </trkpt>
      <trkpt lat="46.88788" lon="-2.12173">
        <ele>5</ele>
        <time>2020-06-04T12:29:02Z</time>
      </trkpt>
      <trkpt lat="46.88793" lon="-2.12169">
        <ele>4.9</ele>
        <time>2020-06-04T12:29:03Z</time>
      </trkpt>
      <trkpt lat="46.88797" lon="-2.12166">
        <ele>4.9</ele>
        <time>2020-06-04T12:29:04Z</time>
      </trkpt>
      <trkpt lat="46.88802" lon="-2.12163">
        <ele>4.9</ele>
        <time>2020-06-04T12:29:05Z</time>
      </trkpt>
      <trkpt lat="46.88807" lon="-2.12161">
        <ele>4.9</ele>
        <time>2020-06-04T12:29:06Z</time>
      </trkpt>
      <trkpt lat="46.88811" lon="-2.12159">
        <ele>4.9</ele>
        <time>2020-06-04T12:29:07Z</time>
      </trkpt>
      <trkpt lat="46.88816" lon="-2.12157">
        <ele>4.8</ele>
        <time>2020-06-04T12:29:08Z</time>
      </trkpt>
      <trkpt lat="46.88821" lon="-2.12154">
        <ele>4.8</ele>
        <time>2020-06-04T12:29:09Z</time>
      </trkpt>
      <trkpt lat="46.88825" lon="-2.12152">
        <ele>4.8</ele>
        <time>2020-06-04T12:29:10Z</time>
      </trkpt>
      <trkpt lat="46.8883" lon="-2.12149">
        <ele>4.8</ele>
        <time>2020-06-04T12:29:11Z</time>
      </trkpt>
      <trkpt lat="46.88834" lon="-2.12147">
        <ele>4.8</ele>
        <time>2020-06-04T12:29:12Z</time>
      </trkpt>
      <trkpt lat="46.88839" lon="-2.12145">
        <ele>4.8</ele>
        <time>2020-06-04T12:29:13Z</time>
      </trkpt>
      <trkpt lat="46.88844" lon="-2.12143">
        <ele>4.7</ele>
        <time>2020-06-04T12:29:14Z</time>
      </trkpt>
      <trkpt lat="46.88849" lon="-2.12141">
        <ele>4.7</ele>
        <time>2020-06-04T12:29:15Z</time>
      </trkpt>
      <trkpt lat="46.88853" lon="-2.1214">
        <ele>4.7</ele>
        <time>2020-06-04T12:29:16Z</time>
      </trkpt>
      <trkpt lat="46.88858" lon="-2.12138">
        <ele>4.7</ele>
        <time>2020-06-04T12:29:17Z</time>
      </trkpt>
      <trkpt lat="46.88862" lon="-2.12136">
        <ele>4.7</ele>
        <time>2020-06-04T12:29:18Z</time>
      </trkpt>
      <trkpt lat="46.88866" lon="-2.12133">
        <ele>4.6</ele>
        <time>2020-06-04T12:29:19Z</time>
      </trkpt>
      <trkpt lat="46.88871" lon="-2.12132">
        <ele>4.6</ele>
        <time>2020-06-04T12:29:20Z</time>
      </trkpt>
      <trkpt lat="46.88875" lon="-2.12131">
        <ele>4.6</ele>
        <time>2020-06-04T12:29:21Z</time>
      </trkpt>
      <trkpt lat="46.88878" lon="-2.12129">
        <ele>4.5</ele>
        <time>2020-06-04T12:29:22Z</time>
      </trkpt>
      <trkpt lat="46.88881" lon="-2.12128">
        <ele>4.5</ele>
        <time>2020-06-04T12:29:23Z</time>
      </trkpt>
      <trkpt lat="46.88884" lon="-2.12127">
        <ele>4.5</ele>
        <time>2020-06-04T12:29:24Z</time>
      </trkpt>
      <trkpt lat="46.88887" lon="-2.12126">
        <ele>4.5</ele>
        <time>2020-06-04T12:29:25Z</time>
      </trkpt>
      <trkpt lat="46.8889" lon="-2.12124">
        <ele>4.5</ele>
        <time>2020-06-04T12:29:26Z</time>
      </trkpt>
      <trkpt lat="46.88893" lon="-2.12122">
        <ele>4.4</ele>
        <time>2020-06-04T12:29:27Z</time>
      </trkpt>
      <trkpt lat="46.88897" lon="-2.12119">
        <ele>4.4</ele>
        <time>2020-06-04T12:29:28Z</time>
      </trkpt>
      <trkpt lat="46.88901" lon="-2.12116">
        <ele>4.4</ele>
        <time>2020-06-04T12:29:29Z</time>
      </trkpt>
      <trkpt lat="46.88905" lon="-2.12112">
        <ele>4.3</ele>
        <time>2020-06-04T12:29:30Z</time>
      </trkpt>
      <trkpt lat="46.88909" lon="-2.12107">
        <ele>4.3</ele>
        <time>2020-06-04T12:29:31Z</time>
      </trkpt>
      <trkpt lat="46.88913" lon="-2.12102">
        <ele>4.2</ele>
        <time>2020-06-04T12:29:32Z</time>
      </trkpt>
      <trkpt lat="46.88917" lon="-2.12097">
        <ele>4.2</ele>
        <time>2020-06-04T12:29:33Z</time>
      </trkpt>
      <trkpt lat="46.88921" lon="-2.12092">
        <ele>4.1</ele>
        <time>2020-06-04T12:29:34Z</time>
      </trkpt>
      <trkpt lat="46.88924" lon="-2.12088">
        <ele>4.1</ele>
        <time>2020-06-04T12:29:35Z</time>
      </trkpt>
      <trkpt lat="46.88928" lon="-2.12084">
        <ele>4</ele>
        <time>2020-06-04T12:29:36Z</time>
      </trkpt>
      <trkpt lat="46.88931" lon="-2.12081">
        <ele>3.9</ele>
        <time>2020-06-04T12:29:37Z</time>
      </trkpt>
      <trkpt lat="46.88934" lon="-2.12079">
        <ele>3.9</ele>
        <time>2020-06-04T12:29:38Z</time>
      </trkpt>
      <trkpt lat="46.88936" lon="-2.12075">
        <ele>3.7</ele>
        <time>2020-06-04T12:29:39Z</time>
      </trkpt>
      <trkpt lat="46.88937" lon="-2.12069">
        <ele>3.7</ele>
        <time>2020-06-04T12:29:40Z</time>
      </trkpt>
      <trkpt lat="46.88937" lon="-2.12064">
        <ele>3.7</ele>
        <time>2020-06-04T12:29:41Z</time>
      </trkpt>
      <trkpt lat="46.88937" lon="-2.1206">
        <ele>3.7</ele>
        <time>2020-06-04T12:29:42Z</time>
      </trkpt>
      <trkpt lat="46.88938" lon="-2.12056">
        <ele>3.7</ele>
        <time>2020-06-04T12:29:43Z</time>
      </trkpt>
      <trkpt lat="46.88938" lon="-2.12051">
        <ele>3.6</ele>
        <time>2020-06-04T12:29:44Z</time>
      </trkpt>
      <trkpt lat="46.88938" lon="-2.12046">
        <ele>3.6</ele>
        <time>2020-06-04T12:29:45Z</time>
      </trkpt>
      <trkpt lat="46.88938" lon="-2.1204">
        <ele>3.6</ele>
        <time>2020-06-04T12:29:46Z</time>
      </trkpt>
      <trkpt lat="46.88938" lon="-2.12034">
        <ele>3.7</ele>
        <time>2020-06-04T12:29:47Z</time>
      </trkpt>
      <trkpt lat="46.88937" lon="-2.12027">
        <ele>3.7</ele>
        <time>2020-06-04T12:29:48Z</time>
      </trkpt>
      <trkpt lat="46.88937" lon="-2.12018">
        <ele>3.7</ele>
        <time>2020-06-04T12:29:49Z</time>
      </trkpt>
      <trkpt lat="46.88936" lon="-2.12009">
        <ele>3.6</ele>
        <time>2020-06-04T12:29:50Z</time>
      </trkpt>
      <trkpt lat="46.88935" lon="-2.12">
        <ele>3.6</ele>
        <time>2020-06-04T12:29:51Z</time>
      </trkpt>
      <trkpt lat="46.88934" lon="-2.11991">
        <ele>3.6</ele>
        <time>2020-06-04T12:29:52Z</time>
      </trkpt>
      <trkpt lat="46.88934" lon="-2.11981">
        <ele>3.5</ele>
        <time>2020-06-04T12:29:53Z</time>
      </trkpt>
      <trkpt lat="46.88933" lon="-2.1197">
        <ele>3.4</ele>
        <time>2020-06-04T12:29:54Z</time>
      </trkpt>
      <trkpt lat="46.88933" lon="-2.11959">
        <ele>3.3</ele>
        <time>2020-06-04T12:29:55Z</time>
      </trkpt>
      <trkpt lat="46.88933" lon="-2.11947">
        <ele>3.3</ele>
        <time>2020-06-04T12:29:56Z</time>
      </trkpt>
      <trkpt lat="46.88932" lon="-2.11937">
        <ele>3.3</ele>
        <time>2020-06-04T12:29:57Z</time>
      </trkpt>
      <trkpt lat="46.88931" lon="-2.11926">
        <ele>3.3</ele>
        <time>2020-06-04T12:29:58Z</time>
      </trkpt>
      <trkpt lat="46.88931" lon="-2.11916">
        <ele>3.3</ele>
        <time>2020-06-04T12:29:59Z</time>
      </trkpt>
      <trkpt lat="46.8893" lon="-2.11907">
        <ele>3.2</ele>
        <time>2020-06-04T12:30:00Z</time>
      </trkpt>
      <trkpt lat="46.88929" lon="-2.11896">
        <ele>3</ele>
        <time>2020-06-04T12:30:01Z</time>
      </trkpt>
      <trkpt lat="46.88929" lon="-2.11886">
        <ele>2.9</ele>
        <time>2020-06-04T12:30:02Z</time>
      </trkpt>
      <trkpt lat="46.88928" lon="-2.11876">
        <ele>2.7</ele>
        <time>2020-06-04T12:30:03Z</time>
      </trkpt>
      <trkpt lat="46.88928" lon="-2.11866">
        <ele>2.7</ele>
        <time>2020-06-04T12:30:04Z</time>
      </trkpt>
      <trkpt lat="46.88927" lon="-2.11857">
        <ele>2.6</ele>
        <time>2020-06-04T12:30:05Z</time>
      </trkpt>
      <trkpt lat="46.88927" lon="-2.11847">
        <ele>2.6</ele>
        <time>2020-06-04T12:30:06Z</time>
      </trkpt>
      <trkpt lat="46.88927" lon="-2.11838">
        <ele>2.6</ele>
        <time>2020-06-04T12:30:07Z</time>
      </trkpt>
      <trkpt lat="46.88927" lon="-2.11828">
        <ele>2.7</ele>
        <time>2020-06-04T12:30:08Z</time>
      </trkpt>
      <trkpt lat="46.88926" lon="-2.11819">
        <ele>2.7</ele>
        <time>2020-06-04T12:30:09Z</time>
      </trkpt>
      <trkpt lat="46.88926" lon="-2.11809">
        <ele>2.6</ele>
        <time>2020-06-04T12:30:10Z</time>
      </trkpt>
      <trkpt lat="46.88926" lon="-2.11799">
        <ele>2.6</ele>
        <time>2020-06-04T12:30:11Z</time>
      </trkpt>
      <trkpt lat="46.88925" lon="-2.1179">
        <ele>2.5</ele>
        <time>2020-06-04T12:30:12Z</time>
      </trkpt>
      <trkpt lat="46.88925" lon="-2.1178">
        <ele>2.4</ele>
        <time>2020-06-04T12:30:13Z</time>
      </trkpt>
      <trkpt lat="46.88924" lon="-2.11771">
        <ele>2.3</ele>
        <time>2020-06-04T12:30:14Z</time>
      </trkpt>
      <trkpt lat="46.88922" lon="-2.11761">
        <ele>2.3</ele>
        <time>2020-06-04T12:30:15Z</time>
      </trkpt>
      <trkpt lat="46.88922" lon="-2.11752">
        <ele>2.3</ele>
        <time>2020-06-04T12:30:16Z</time>
      </trkpt>
      <trkpt lat="46.88922" lon="-2.11742">
        <ele>2.3</ele>
        <time>2020-06-04T12:30:17Z</time>
      </trkpt>
      <trkpt lat="46.88922" lon="-2.11733">
        <ele>2.2</ele>
        <time>2020-06-04T12:30:18Z</time>
      </trkpt>
      <trkpt lat="46.88922" lon="-2.11723">
        <ele>2.2</ele>
        <time>2020-06-04T12:30:19Z</time>
      </trkpt>
      <trkpt lat="46.88921" lon="-2.11714">
        <ele>2.3</ele>
        <time>2020-06-04T12:30:20Z</time>
      </trkpt>
      <trkpt lat="46.8892" lon="-2.11704">
        <ele>2.3</ele>
        <time>2020-06-04T12:30:21Z</time>
      </trkpt>
      <trkpt lat="46.8892" lon="-2.11695">
        <ele>2.3</ele>
        <time>2020-06-04T12:30:22Z</time>
      </trkpt>
      <trkpt lat="46.8892" lon="-2.11686">
        <ele>2.4</ele>
        <time>2020-06-04T12:30:23Z</time>
      </trkpt>
      <trkpt lat="46.88919" lon="-2.11676">
        <ele>2.4</ele>
        <time>2020-06-04T12:30:24Z</time>
      </trkpt>
      <trkpt lat="46.88918" lon="-2.11666">
        <ele>2.5</ele>
        <time>2020-06-04T12:30:25Z</time>
      </trkpt>
      <trkpt lat="46.88918" lon="-2.11656">
        <ele>2.6</ele>
        <time>2020-06-04T12:30:26Z</time>
      </trkpt>
      <trkpt lat="46.88917" lon="-2.11646">
        <ele>2.6</ele>
        <time>2020-06-04T12:30:27Z</time>
      </trkpt>
      <trkpt lat="46.88916" lon="-2.11636">
        <ele>2.6</ele>
        <time>2020-06-04T12:30:28Z</time>
      </trkpt>
      <trkpt lat="46.88915" lon="-2.11627">
        <ele>2.6</ele>
        <time>2020-06-04T12:30:29Z</time>
      </trkpt>
      <trkpt lat="46.88914" lon="-2.11617">
        <ele>2.6</ele>
        <time>2020-06-04T12:30:30Z</time>
      </trkpt>
      <trkpt lat="46.88914" lon="-2.11607">
        <ele>2.7</ele>
        <time>2020-06-04T12:30:31Z</time>
      </trkpt>
      <trkpt lat="46.88913" lon="-2.11597">
        <ele>2.7</ele>
        <time>2020-06-04T12:30:32Z</time>
      </trkpt>
      <trkpt lat="46.88913" lon="-2.11587">
        <ele>2.7</ele>
        <time>2020-06-04T12:30:33Z</time>
      </trkpt>
      <trkpt lat="46.88913" lon="-2.11578">
        <ele>2.6</ele>
        <time>2020-06-04T12:30:34Z</time>
      </trkpt>
      <trkpt lat="46.88913" lon="-2.11568">
        <ele>2.6</ele>
        <time>2020-06-04T12:30:35Z</time>
      </trkpt>
      <trkpt lat="46.88914" lon="-2.11559">
        <ele>2.6</ele>
        <time>2020-06-04T12:30:36Z</time>
      </trkpt>
      <trkpt lat="46.88913" lon="-2.1155">
        <ele>2.6</ele>
        <time>2020-06-04T12:30:37Z</time>
      </trkpt>
      <trkpt lat="46.88912" lon="-2.11542">
        <ele>2.6</ele>
        <time>2020-06-04T12:30:38Z</time>
      </trkpt>
      <trkpt lat="46.88912" lon="-2.11534">
        <ele>2.6</ele>
        <time>2020-06-04T12:30:39Z</time>
      </trkpt>
      <trkpt lat="46.88911" lon="-2.11526">
        <ele>2.5</ele>
        <time>2020-06-04T12:30:40Z</time>
      </trkpt>
      <trkpt lat="46.8891" lon="-2.11518">
        <ele>2.5</ele>
        <time>2020-06-04T12:30:41Z</time>
      </trkpt>
      <trkpt lat="46.88909" lon="-2.1151">
        <ele>2.5</ele>
        <time>2020-06-04T12:30:42Z</time>
      </trkpt>
      <trkpt lat="46.88908" lon="-2.11503">
        <ele>2.5</ele>
        <time>2020-06-04T12:30:43Z</time>
      </trkpt>
      <trkpt lat="46.88907" lon="-2.11497">
        <ele>2.5</ele>
        <time>2020-06-04T12:30:44Z</time>
      </trkpt>
      <trkpt lat="46.88908" lon="-2.11492">
        <ele>2.5</ele>
        <time>2020-06-04T12:30:45Z</time>
      </trkpt>
      <trkpt lat="46.88909" lon="-2.1149">
        <ele>2.5</ele>
        <time>2020-06-04T12:30:46Z</time>
      </trkpt>
      <trkpt lat="46.8891" lon="-2.11489">
        <ele>2.5</ele>
        <time>2020-06-04T12:30:47Z</time>
      </trkpt>
      <trkpt lat="46.88911" lon="-2.11492">
        <ele>2.5</ele>
        <time>2020-06-04T12:30:48Z</time>
      </trkpt>
      <trkpt lat="46.88912" lon="-2.11493">
        <ele>2.5</ele>
        <time>2020-06-04T12:30:49Z</time>
      </trkpt>
      <trkpt lat="46.88914" lon="-2.11497">
        <ele>2.5</ele>
        <time>2020-06-04T12:30:50Z</time>
      </trkpt>
      <trkpt lat="46.88916" lon="-2.11501">
        <ele>2.5</ele>
        <time>2020-06-04T12:30:51Z</time>
      </trkpt>
      <trkpt lat="46.88916" lon="-2.11505">
        <ele>2.5</ele>
        <time>2020-06-04T12:30:52Z</time>
      </trkpt>
      <trkpt lat="46.88917" lon="-2.11509">
        <ele>2.5</ele>
        <time>2020-06-04T12:30:53Z</time>
      </trkpt>
      <trkpt lat="46.88917" lon="-2.11515">
        <ele>2.5</ele>
        <time>2020-06-04T12:30:54Z</time>
      </trkpt>
      <trkpt lat="46.88917" lon="-2.1152">
        <ele>2.5</ele>
        <time>2020-06-04T12:30:55Z</time>
      </trkpt>
      <trkpt lat="46.88918" lon="-2.11526">
        <ele>2.5</ele>
        <time>2020-06-04T12:30:56Z</time>
      </trkpt>
      <trkpt lat="46.88919" lon="-2.11532">
        <ele>2.5</ele>
        <time>2020-06-04T12:30:57Z</time>
      </trkpt>
      <trkpt lat="46.88918" lon="-2.11538">
        <ele>2.6</ele>
        <time>2020-06-04T12:30:58Z</time>
      </trkpt>
      <trkpt lat="46.88918" lon="-2.11545">
        <ele>2.6</ele>
        <time>2020-06-04T12:30:59Z</time>
      </trkpt>
      <trkpt lat="46.88918" lon="-2.11552">
        <ele>2.6</ele>
        <time>2020-06-04T12:31:00Z</time>
      </trkpt>
      <trkpt lat="46.88918" lon="-2.11558">
        <ele>2.6</ele>
        <time>2020-06-04T12:31:01Z</time>
      </trkpt>
      <trkpt lat="46.88918" lon="-2.11564">
        <ele>2.6</ele>
        <time>2020-06-04T12:31:02Z</time>
      </trkpt>
      <trkpt lat="46.88918" lon="-2.1157">
        <ele>2.6</ele>
        <time>2020-06-04T12:31:03Z</time>
      </trkpt>
      <trkpt lat="46.88918" lon="-2.11576">
        <ele>2.6</ele>
        <time>2020-06-04T12:31:04Z</time>
      </trkpt>
      <trkpt lat="46.88918" lon="-2.11582">
        <ele>2.6</ele>
        <time>2020-06-04T12:31:05Z</time>
      </trkpt>
      <trkpt lat="46.88919" lon="-2.11587">
        <ele>2.7</ele>
        <time>2020-06-04T12:31:06Z</time>
      </trkpt>
      <trkpt lat="46.8892" lon="-2.11592">
        <ele>2.7</ele>
        <time>2020-06-04T12:31:07Z</time>
      </trkpt>
      <trkpt lat="46.88924" lon="-2.11592">
        <ele>2.8</ele>
        <time>2020-06-04T12:31:08Z</time>
      </trkpt>
      <trkpt lat="46.88925" lon="-2.11592">
        <ele>2.8</ele>
        <time>2020-06-04T12:31:09Z</time>
      </trkpt>
      <trkpt lat="46.88928" lon="-2.11591">
        <ele>2.8</ele>
        <time>2020-06-04T12:31:10Z</time>
      </trkpt>
      <trkpt lat="46.88931" lon="-2.1159">
        <ele>2.8</ele>
        <time>2020-06-04T12:31:11Z</time>
      </trkpt>
      <trkpt lat="46.88935" lon="-2.11589">
        <ele>2.9</ele>
        <time>2020-06-04T12:31:12Z</time>
      </trkpt>
      <trkpt lat="46.88939" lon="-2.11588">
        <ele>2.9</ele>
        <time>2020-06-04T12:31:13Z</time>
      </trkpt>
      <trkpt lat="46.88944" lon="-2.11588">
        <ele>3</ele>
        <time>2020-06-04T12:31:14Z</time>
      </trkpt>
      <trkpt lat="46.88949" lon="-2.11592">
        <ele>3.1</ele>
        <time>2020-06-04T12:31:15Z</time>
      </trkpt>
      <trkpt lat="46.88953" lon="-2.11591">
        <ele>3.1</ele>
        <time>2020-06-04T12:31:16Z</time>
      </trkpt>
      <trkpt lat="46.88957" lon="-2.11591">
        <ele>3.2</ele>
        <time>2020-06-04T12:31:17Z</time>
      </trkpt>
      <trkpt lat="46.8896" lon="-2.1159">
        <ele>3.2</ele>
        <time>2020-06-04T12:31:18Z</time>
      </trkpt>
      <trkpt lat="46.88962" lon="-2.11585">
        <ele>3.2</ele>
        <time>2020-06-04T12:31:19Z</time>
      </trkpt>
      <trkpt lat="46.88963" lon="-2.11581">
        <ele>3.3</ele>
        <time>2020-06-04T12:31:20Z</time>
      </trkpt>
      <trkpt lat="46.88965" lon="-2.11575">
        <ele>3.3</ele>
        <time>2020-06-04T12:31:21Z</time>
      </trkpt>
      <trkpt lat="46.88966" lon="-2.11571">
        <ele>3.3</ele>
        <time>2020-06-04T12:31:22Z</time>
      </trkpt>
      <trkpt lat="46.88967" lon="-2.11567">
        <ele>3.3</ele>
        <time>2020-06-04T12:31:23Z</time>
      </trkpt>
      <trkpt lat="46.88966" lon="-2.11563">
        <ele>3.3</ele>
        <time>2020-06-04T12:31:24Z</time>
      </trkpt>
      <trkpt lat="46.88966" lon="-2.11561">
        <ele>3.3</ele>
        <time>2020-06-04T12:31:25Z</time>
      </trkpt>
      <trkpt lat="46.88965" lon="-2.11556">
        <ele>3.3</ele>
        <time>2020-06-04T12:31:26Z</time>
      </trkpt>
      <trkpt lat="46.88965" lon="-2.11554">
        <ele>3.3</ele>
        <time>2020-06-04T12:31:27Z</time>
      </trkpt>
      <trkpt lat="46.88964" lon="-2.11549">
        <ele>3.3</ele>
        <time>2020-06-04T12:31:28Z</time>
      </trkpt>
      <trkpt lat="46.88964" lon="-2.11547">
        <ele>3.3</ele>
        <time>2020-06-04T12:31:29Z</time>
      </trkpt>
      <trkpt lat="46.88963" lon="-2.11542">
        <ele>3.3</ele>
        <time>2020-06-04T12:31:30Z</time>
      </trkpt>
      <trkpt lat="46.88962" lon="-2.1154">
        <ele>3.3</ele>
        <time>2020-06-04T12:31:31Z</time>
      </trkpt>
      <trkpt lat="46.88961" lon="-2.11535">
        <ele>3.3</ele>
        <time>2020-06-04T12:31:32Z</time>
      </trkpt>
      <trkpt lat="46.88961" lon="-2.11534">
        <ele>3.3</ele>
        <time>2020-06-04T12:31:33Z</time>
      </trkpt>
      <trkpt lat="46.8896" lon="-2.11529">
        <ele>3.3</ele>
        <time>2020-06-04T12:31:34Z</time>
      </trkpt>
      <trkpt lat="46.88959" lon="-2.11527">
        <ele>3.3</ele>
        <time>2020-06-04T12:31:35Z</time>
      </trkpt>
      <trkpt lat="46.88959" lon="-2.11523">
        <ele>3.3</ele>
        <time>2020-06-04T12:31:36Z</time>
      </trkpt>
      <trkpt lat="46.88957" lon="-2.11515">
        <ele>3.3</ele>
        <time>2020-06-04T12:31:37Z</time>
      </trkpt>
      <trkpt lat="46.88956" lon="-2.11507">
        <ele>3.3</ele>
        <time>2020-06-04T12:31:38Z</time>
      </trkpt>
      <trkpt lat="46.88956" lon="-2.115">
        <ele>3.3</ele>
        <time>2020-06-04T12:31:39Z</time>
      </trkpt>
      <trkpt lat="46.88955" lon="-2.11493">
        <ele>3.3</ele>
        <time>2020-06-04T12:31:40Z</time>
      </trkpt>
      <trkpt lat="46.88955" lon="-2.11486">
        <ele>3.3</ele>
        <time>2020-06-04T12:31:41Z</time>
      </trkpt>
      <trkpt lat="46.88955" lon="-2.11479">
        <ele>3.3</ele>
        <time>2020-06-04T12:31:42Z</time>
      </trkpt>
      <trkpt lat="46.88957" lon="-2.11471">
        <ele>3.3</ele>
        <time>2020-06-04T12:31:43Z</time>
      </trkpt>
      <trkpt lat="46.88958" lon="-2.11463">
        <ele>3.3</ele>
        <time>2020-06-04T12:31:44Z</time>
      </trkpt>
      <trkpt lat="46.8896" lon="-2.11457">
        <ele>3.3</ele>
        <time>2020-06-04T12:31:45Z</time>
      </trkpt>
      <trkpt lat="46.88961" lon="-2.11449">
        <ele>3.3</ele>
        <time>2020-06-04T12:31:46Z</time>
      </trkpt>
      <trkpt lat="46.88963" lon="-2.11442">
        <ele>3.3</ele>
        <time>2020-06-04T12:31:47Z</time>
      </trkpt>
      <trkpt lat="46.88964" lon="-2.11435">
        <ele>3.2</ele>
        <time>2020-06-04T12:31:48Z</time>
      </trkpt>
      <trkpt lat="46.88965" lon="-2.11428">
        <ele>3.2</ele>
        <time>2020-06-04T12:31:49Z</time>
      </trkpt>
      <trkpt lat="46.88968" lon="-2.11422">
        <ele>3.2</ele>
        <time>2020-06-04T12:31:50Z</time>
      </trkpt>
      <trkpt lat="46.88969" lon="-2.11415">
        <ele>3.2</ele>
        <time>2020-06-04T12:31:51Z</time>
      </trkpt>
      <trkpt lat="46.8897" lon="-2.11408">
        <ele>3.2</ele>
        <time>2020-06-04T12:31:52Z</time>
      </trkpt>
      <trkpt lat="46.88971" lon="-2.11402">
        <ele>3.2</ele>
        <time>2020-06-04T12:31:53Z</time>
      </trkpt>
      <trkpt lat="46.88972" lon="-2.11395">
        <ele>3.2</ele>
        <time>2020-06-04T12:31:54Z</time>
      </trkpt>
      <trkpt lat="46.88973" lon="-2.11389">
        <ele>3.1</ele>
        <time>2020-06-04T12:31:55Z</time>
      </trkpt>
      <trkpt lat="46.88973" lon="-2.11382">
        <ele>3.1</ele>
        <time>2020-06-04T12:31:56Z</time>
      </trkpt>
      <trkpt lat="46.88974" lon="-2.11375">
        <ele>3.1</ele>
        <time>2020-06-04T12:31:57Z</time>
      </trkpt>
      <trkpt lat="46.88974" lon="-2.11367">
        <ele>3.1</ele>
        <time>2020-06-04T12:31:58Z</time>
      </trkpt>
      <trkpt lat="46.88974" lon="-2.11359">
        <ele>3.1</ele>
        <time>2020-06-04T12:31:59Z</time>
      </trkpt>
      <trkpt lat="46.88974" lon="-2.11352">
        <ele>3.1</ele>
        <time>2020-06-04T12:32:00Z</time>
      </trkpt>
      <trkpt lat="46.88974" lon="-2.11344">
        <ele>3</ele>
        <time>2020-06-04T12:32:01Z</time>
      </trkpt>
      <trkpt lat="46.88973" lon="-2.11336">
        <ele>3</ele>
        <time>2020-06-04T12:32:02Z</time>
      </trkpt>
      <trkpt lat="46.88973" lon="-2.11328">
        <ele>3</ele>
        <time>2020-06-04T12:32:03Z</time>
      </trkpt>
      <trkpt lat="46.88972" lon="-2.11321">
        <ele>3</ele>
        <time>2020-06-04T12:32:04Z</time>
      </trkpt>
      <trkpt lat="46.8897" lon="-2.11313">
        <ele>3</ele>
        <time>2020-06-04T12:32:05Z</time>
      </trkpt>
      <trkpt lat="46.88969" lon="-2.11306">
        <ele>3</ele>
        <time>2020-06-04T12:32:06Z</time>
      </trkpt>
      <trkpt lat="46.88967" lon="-2.11298">
        <ele>3</ele>
        <time>2020-06-04T12:32:07Z</time>
      </trkpt>
      <trkpt lat="46.88966" lon="-2.11292">
        <ele>3</ele>
        <time>2020-06-04T12:32:08Z</time>
      </trkpt>
      <trkpt lat="46.88964" lon="-2.11285">
        <ele>3</ele>
        <time>2020-06-04T12:32:09Z</time>
      </trkpt>
      <trkpt lat="46.88963" lon="-2.11279">
        <ele>3</ele>
        <time>2020-06-04T12:32:10Z</time>
      </trkpt>
      <trkpt lat="46.88962" lon="-2.11272">
        <ele>3.1</ele>
        <time>2020-06-04T12:32:11Z</time>
      </trkpt>
      <trkpt lat="46.88961" lon="-2.11265">
        <ele>3.1</ele>
        <time>2020-06-04T12:32:12Z</time>
      </trkpt>
      <trkpt lat="46.8896" lon="-2.11257">
        <ele>3.1</ele>
        <time>2020-06-04T12:32:13Z</time>
      </trkpt>
      <trkpt lat="46.88959" lon="-2.1125">
        <ele>3.1</ele>
        <time>2020-06-04T12:32:14Z</time>
      </trkpt>
      <trkpt lat="46.88958" lon="-2.11243">
        <ele>3.2</ele>
        <time>2020-06-04T12:32:15Z</time>
      </trkpt>
      <trkpt lat="46.88957" lon="-2.11236">
        <ele>3.2</ele>
        <time>2020-06-04T12:32:16Z</time>
      </trkpt>
      <trkpt lat="46.88956" lon="-2.11229">
        <ele>3.2</ele>
        <time>2020-06-04T12:32:17Z</time>
      </trkpt>
      <trkpt lat="46.88955" lon="-2.11222">
        <ele>3.3</ele>
        <time>2020-06-04T12:32:18Z</time>
      </trkpt>
      <trkpt lat="46.88954" lon="-2.11215">
        <ele>3.3</ele>
        <time>2020-06-04T12:32:19Z</time>
      </trkpt>
      <trkpt lat="46.88953" lon="-2.11208">
        <ele>3.3</ele>
        <time>2020-06-04T12:32:20Z</time>
      </trkpt>
      <trkpt lat="46.88952" lon="-2.11201">
        <ele>3.4</ele>
        <time>2020-06-04T12:32:21Z</time>
      </trkpt>
      <trkpt lat="46.88952" lon="-2.11195">
        <ele>3.4</ele>
        <time>2020-06-04T12:32:22Z</time>
      </trkpt>
      <trkpt lat="46.88951" lon="-2.1119">
        <ele>3.5</ele>
        <time>2020-06-04T12:32:23Z</time>
      </trkpt>
      <trkpt lat="46.8895" lon="-2.11185">
        <ele>3.4</ele>
        <time>2020-06-04T12:32:24Z</time>
      </trkpt>
      <trkpt lat="46.8895" lon="-2.11184">
        <ele>3.4</ele>
        <time>2020-06-04T12:32:25Z</time>
      </trkpt>
      <trkpt lat="46.8895" lon="-2.11179">
        <ele>3.4</ele>
        <time>2020-06-04T12:32:26Z</time>
      </trkpt>
      <trkpt lat="46.88951" lon="-2.11177">
        <ele>3.4</ele>
        <time>2020-06-04T12:32:27Z</time>
      </trkpt>
      <trkpt lat="46.8895" lon="-2.11172">
        <ele>3.4</ele>
        <time>2020-06-04T12:32:28Z</time>
      </trkpt>
      <trkpt lat="46.88951" lon="-2.11166">
        <ele>3.4</ele>
        <time>2020-06-04T12:32:29Z</time>
      </trkpt>
      <trkpt lat="46.8895" lon="-2.1116">
        <ele>3.4</ele>
        <time>2020-06-04T12:32:30Z</time>
      </trkpt>
      <trkpt lat="46.8895" lon="-2.11156">
        <ele>3.4</ele>
        <time>2020-06-04T12:32:31Z</time>
      </trkpt>
      <trkpt lat="46.88949" lon="-2.11153">
        <ele>3.4</ele>
        <time>2020-06-04T12:32:32Z</time>
      </trkpt>
      <trkpt lat="46.88948" lon="-2.11152">
        <ele>3.4</ele>
        <time>2020-06-04T12:32:33Z</time>
      </trkpt>
      <trkpt lat="46.88945" lon="-2.1115">
        <ele>3.4</ele>
        <time>2020-06-04T12:32:34Z</time>
      </trkpt>
      <trkpt lat="46.88945" lon="-2.11144">
        <ele>3.4</ele>
        <time>2020-06-04T12:32:35Z</time>
      </trkpt>
      <trkpt lat="46.88946" lon="-2.11142">
        <ele>3.4</ele>
        <time>2020-06-04T12:32:36Z</time>
      </trkpt>
      <trkpt lat="46.88946" lon="-2.1114">
        <ele>3.4</ele>
        <time>2020-06-04T12:32:37Z</time>
      </trkpt>
      <trkpt lat="46.88947" lon="-2.11139">
        <ele>3.4</ele>
        <time>2020-06-04T12:32:38Z</time>
      </trkpt>
      <trkpt lat="46.88947" lon="-2.11139">
        <ele>3.4</ele>
        <time>2020-06-04T12:32:39Z</time>
      </trkpt>
      <trkpt lat="46.88947" lon="-2.11142">
        <ele>3.4</ele>
        <time>2020-06-04T12:32:40Z</time>
      </trkpt>
      <trkpt lat="46.88947" lon="-2.11142">
        <ele>3.4</ele>
        <time>2020-06-04T12:32:41Z</time>
      </trkpt>
      <trkpt lat="46.88947" lon="-2.11144">
        <ele>3.5</ele>
        <time>2020-06-04T12:32:42Z</time>
      </trkpt>
      <trkpt lat="46.88948" lon="-2.11145">
        <ele>3.5</ele>
        <time>2020-06-04T12:32:43Z</time>
      </trkpt>
      <trkpt lat="46.88949" lon="-2.11149">
        <ele>3.5</ele>
        <time>2020-06-04T12:32:44Z</time>
      </trkpt>
      <trkpt lat="46.88949" lon="-2.11151">
        <ele>3.5</ele>
        <time>2020-06-04T12:32:45Z</time>
      </trkpt>
      <trkpt lat="46.8895" lon="-2.11155">
        <ele>3.4</ele>
        <time>2020-06-04T12:32:46Z</time>
      </trkpt>
      <trkpt lat="46.8895" lon="-2.1116">
        <ele>3.4</ele>
        <time>2020-06-04T12:32:47Z</time>
      </trkpt>
      <trkpt lat="46.88951" lon="-2.11166">
        <ele>3.4</ele>
        <time>2020-06-04T12:32:48Z</time>
      </trkpt>
      <trkpt lat="46.88952" lon="-2.11168">
        <ele>3.4</ele>
        <time>2020-06-04T12:32:49Z</time>
      </trkpt>
      <trkpt lat="46.88952" lon="-2.11173">
        <ele>3.4</ele>
        <time>2020-06-04T12:32:50Z</time>
      </trkpt>
      <trkpt lat="46.88953" lon="-2.11177">
        <ele>3.4</ele>
        <time>2020-06-04T12:32:51Z</time>
      </trkpt>
      <trkpt lat="46.88953" lon="-2.11181">
        <ele>3.4</ele>
        <time>2020-06-04T12:32:52Z</time>
      </trkpt>
      <trkpt lat="46.88951" lon="-2.11187">
        <ele>3.4</ele>
        <time>2020-06-04T12:32:53Z</time>
      </trkpt>
      <trkpt lat="46.8895" lon="-2.11188">
        <ele>3.4</ele>
        <time>2020-06-04T12:32:54Z</time>
      </trkpt>
      <trkpt lat="46.88947" lon="-2.11187">
        <ele>3.4</ele>
        <time>2020-06-04T12:32:55Z</time>
      </trkpt>
      <trkpt lat="46.88944" lon="-2.11187">
        <ele>3.4</ele>
        <time>2020-06-04T12:32:56Z</time>
      </trkpt>
      <trkpt lat="46.88943" lon="-2.11187">
        <ele>3.5</ele>
        <time>2020-06-04T12:32:57Z</time>
      </trkpt>
      <trkpt lat="46.8894" lon="-2.11187">
        <ele>3.6</ele>
        <time>2020-06-04T12:32:58Z</time>
      </trkpt>
      <trkpt lat="46.88938" lon="-2.11187">
        <ele>3.6</ele>
        <time>2020-06-04T12:32:59Z</time>
      </trkpt>
      <trkpt lat="46.88935" lon="-2.11188">
        <ele>3.6</ele>
        <time>2020-06-04T12:33:00Z</time>
      </trkpt>
      <trkpt lat="46.88934" lon="-2.11188">
        <ele>3.6</ele>
        <time>2020-06-04T12:33:01Z</time>
      </trkpt>
      <trkpt lat="46.88933" lon="-2.11189">
        <ele>3.7</ele>
        <time>2020-06-04T12:33:02Z</time>
      </trkpt>
      <trkpt lat="46.88932" lon="-2.1119">
        <ele>3.7</ele>
        <time>2020-06-04T12:33:03Z</time>
      </trkpt>
      <trkpt lat="46.88929" lon="-2.11191">
        <ele>3.7</ele>
        <time>2020-06-04T12:33:04Z</time>
      </trkpt>
      <trkpt lat="46.88926" lon="-2.11192">
        <ele>3.8</ele>
        <time>2020-06-04T12:33:05Z</time>
      </trkpt>
      <trkpt lat="46.88923" lon="-2.11191">
        <ele>3.8</ele>
        <time>2020-06-04T12:33:06Z</time>
      </trkpt>
      <trkpt lat="46.88919" lon="-2.11192">
        <ele>3.8</ele>
        <time>2020-06-04T12:33:07Z</time>
      </trkpt>
      <trkpt lat="46.88915" lon="-2.11194">
        <ele>3.8</ele>
        <time>2020-06-04T12:33:08Z</time>
      </trkpt>
      <trkpt lat="46.88911" lon="-2.11196">
        <ele>3.9</ele>
        <time>2020-06-04T12:33:09Z</time>
      </trkpt>
      <trkpt lat="46.88908" lon="-2.11197">
        <ele>3.9</ele>
        <time>2020-06-04T12:33:10Z</time>
      </trkpt>
      <trkpt lat="46.88904" lon="-2.11198">
        <ele>3.9</ele>
        <time>2020-06-04T12:33:11Z</time>
      </trkpt>
      <trkpt lat="46.88903" lon="-2.11198">
        <ele>3.9</ele>
        <time>2020-06-04T12:33:12Z</time>
      </trkpt>
      <trkpt lat="46.889" lon="-2.11195">
        <ele>3.9</ele>
        <time>2020-06-04T12:33:13Z</time>
      </trkpt>
      <trkpt lat="46.88899" lon="-2.11194">
        <ele>3.9</ele>
        <time>2020-06-04T12:33:14Z</time>
      </trkpt>
      <trkpt lat="46.88897" lon="-2.11191">
        <ele>3.9</ele>
        <time>2020-06-04T12:33:15Z</time>
      </trkpt>
      <trkpt lat="46.88894" lon="-2.11189">
        <ele>4.1</ele>
        <time>2020-06-04T12:33:16Z</time>
      </trkpt>
      <trkpt lat="46.88891" lon="-2.11188">
        <ele>4.1</ele>
        <time>2020-06-04T12:33:17Z</time>
      </trkpt>
      <trkpt lat="46.88887" lon="-2.11187">
        <ele>4.1</ele>
        <time>2020-06-04T12:33:18Z</time>
      </trkpt>
      <trkpt lat="46.88882" lon="-2.11184">
        <ele>4.1</ele>
        <time>2020-06-04T12:33:19Z</time>
      </trkpt>
      <trkpt lat="46.88879" lon="-2.1118">
        <ele>4.1</ele>
        <time>2020-06-04T12:33:20Z</time>
      </trkpt>
      <trkpt lat="46.88877" lon="-2.11175">
        <ele>4.2</ele>
        <time>2020-06-04T12:33:21Z</time>
      </trkpt>
      <trkpt lat="46.88877" lon="-2.11168">
        <ele>4.2</ele>
        <time>2020-06-04T12:33:22Z</time>
      </trkpt>
      <trkpt lat="46.88876" lon="-2.11162">
        <ele>4.3</ele>
        <time>2020-06-04T12:33:23Z</time>
      </trkpt>
      <trkpt lat="46.88876" lon="-2.11153">
        <ele>4.3</ele>
        <time>2020-06-04T12:33:24Z</time>
      </trkpt>
      <trkpt lat="46.88877" lon="-2.11146">
        <ele>4.3</ele>
        <time>2020-06-04T12:33:25Z</time>
      </trkpt>
      <trkpt lat="46.88878" lon="-2.1114">
        <ele>4.4</ele>
        <time>2020-06-04T12:33:26Z</time>
      </trkpt>
      <trkpt lat="46.8888" lon="-2.11134">
        <ele>4.4</ele>
        <time>2020-06-04T12:33:27Z</time>
      </trkpt>
      <trkpt lat="46.88882" lon="-2.11127">
        <ele>4.4</ele>
        <time>2020-06-04T12:33:28Z</time>
      </trkpt>
      <trkpt lat="46.88885" lon="-2.11121">
        <ele>4.5</ele>
        <time>2020-06-04T12:33:29Z</time>
      </trkpt>
      <trkpt lat="46.88889" lon="-2.11115">
        <ele>4.5</ele>
        <time>2020-06-04T12:33:30Z</time>
      </trkpt>
      <trkpt lat="46.88893" lon="-2.11109">
        <ele>4.5</ele>
        <time>2020-06-04T12:33:31Z</time>
      </trkpt>
      <trkpt lat="46.88896" lon="-2.11102">
        <ele>4.5</ele>
        <time>2020-06-04T12:33:32Z</time>
      </trkpt>
      <trkpt lat="46.88899" lon="-2.11094">
        <ele>4.5</ele>
        <time>2020-06-04T12:33:33Z</time>
      </trkpt>
      <trkpt lat="46.88901" lon="-2.11087">
        <ele>4.5</ele>
        <time>2020-06-04T12:33:34Z</time>
      </trkpt>
      <trkpt lat="46.88903" lon="-2.11081">
        <ele>4.4</ele>
        <time>2020-06-04T12:33:35Z</time>
      </trkpt>
      <trkpt lat="46.88904" lon="-2.11075">
        <ele>4.4</ele>
        <time>2020-06-04T12:33:36Z</time>
      </trkpt>
      <trkpt lat="46.88906" lon="-2.1107">
        <ele>4.4</ele>
        <time>2020-06-04T12:33:37Z</time>
      </trkpt>
      <trkpt lat="46.88909" lon="-2.11065">
        <ele>4.3</ele>
        <time>2020-06-04T12:33:38Z</time>
      </trkpt>
      <trkpt lat="46.8891" lon="-2.11061">
        <ele>4.3</ele>
        <time>2020-06-04T12:33:39Z</time>
      </trkpt>
      <trkpt lat="46.88911" lon="-2.11056">
        <ele>4.3</ele>
        <time>2020-06-04T12:33:40Z</time>
      </trkpt>
      <trkpt lat="46.88913" lon="-2.11051">
        <ele>4.3</ele>
        <time>2020-06-04T12:33:41Z</time>
      </trkpt>
      <trkpt lat="46.88914" lon="-2.11046">
        <ele>4.3</ele>
        <time>2020-06-04T12:33:42Z</time>
      </trkpt>
      <trkpt lat="46.88915" lon="-2.11041">
        <ele>4.2</ele>
        <time>2020-06-04T12:33:43Z</time>
      </trkpt>
      <trkpt lat="46.88916" lon="-2.11038">
        <ele>4.2</ele>
        <time>2020-06-04T12:33:44Z</time>
      </trkpt>
      <trkpt lat="46.88917" lon="-2.11033">
        <ele>4.1</ele>
        <time>2020-06-04T12:33:45Z</time>
      </trkpt>
      <trkpt lat="46.88918" lon="-2.11031">
        <ele>3.6</ele>
        <time>2020-06-04T12:33:46Z</time>
      </trkpt>
      <trkpt lat="46.88918" lon="-2.11025">
        <ele>3.6</ele>
        <time>2020-06-04T12:33:47Z</time>
      </trkpt>
      <trkpt lat="46.88919" lon="-2.11019">
        <ele>3.6</ele>
        <time>2020-06-04T12:33:48Z</time>
      </trkpt>
      <trkpt lat="46.88919" lon="-2.11013">
        <ele>3.6</ele>
        <time>2020-06-04T12:33:49Z</time>
      </trkpt>
      <trkpt lat="46.88919" lon="-2.11007">
        <ele>3.6</ele>
        <time>2020-06-04T12:33:50Z</time>
      </trkpt>
      <trkpt lat="46.88918" lon="-2.11001">
        <ele>3.6</ele>
        <time>2020-06-04T12:33:51Z</time>
      </trkpt>
      <trkpt lat="46.88916" lon="-2.10999">
        <ele>3.5</ele>
        <time>2020-06-04T12:33:52Z</time>
      </trkpt>
      <trkpt lat="46.88911" lon="-2.10999">
        <ele>3.5</ele>
        <time>2020-06-04T12:33:53Z</time>
      </trkpt>
      <trkpt lat="46.88907" lon="-2.10998">
        <ele>3.5</ele>
        <time>2020-06-04T12:33:54Z</time>
      </trkpt>
      <trkpt lat="46.88903" lon="-2.10997">
        <ele>3.5</ele>
        <time>2020-06-04T12:33:55Z</time>
      </trkpt>
      <trkpt lat="46.88899" lon="-2.10995">
        <ele>3.5</ele>
        <time>2020-06-04T12:33:56Z</time>
      </trkpt>
      <trkpt lat="46.88895" lon="-2.10995">
        <ele>3.5</ele>
        <time>2020-06-04T12:33:57Z</time>
      </trkpt>
      <trkpt lat="46.88892" lon="-2.10993">
        <ele>3.5</ele>
        <time>2020-06-04T12:33:58Z</time>
      </trkpt>
      <trkpt lat="46.88891" lon="-2.10993">
        <ele>3.5</ele>
        <time>2020-06-04T12:33:59Z</time>
      </trkpt>
      <trkpt lat="46.8889" lon="-2.10993">
        <ele>3.5</ele>
        <time>2020-06-04T12:34:00Z</time>
      </trkpt>
      <trkpt lat="46.8889" lon="-2.10993">
        <ele>3.5</ele>
        <time>2020-06-04T12:34:01Z</time>
      </trkpt>
      <trkpt lat="46.88888" lon="-2.10992">
        <ele>3.5</ele>
        <time>2020-06-04T12:34:02Z</time>
      </trkpt>
      <trkpt lat="46.88886" lon="-2.10991">
        <ele>3.5</ele>
        <time>2020-06-04T12:34:03Z</time>
      </trkpt>
      <trkpt lat="46.88884" lon="-2.10991">
        <ele>3.5</ele>
        <time>2020-06-04T12:34:04Z</time>
      </trkpt>
      <trkpt lat="46.88882" lon="-2.10989">
        <ele>3.5</ele>
        <time>2020-06-04T12:34:05Z</time>
      </trkpt>
      <trkpt lat="46.88879" lon="-2.10988">
        <ele>3.5</ele>
        <time>2020-06-04T12:34:06Z</time>
      </trkpt>
      <trkpt lat="46.88873" lon="-2.10986">
        <ele>3.5</ele>
        <time>2020-06-04T12:34:07Z</time>
      </trkpt>
      <trkpt lat="46.88869" lon="-2.10985">
        <ele>3.4</ele>
        <time>2020-06-04T12:34:08Z</time>
      </trkpt>
      <trkpt lat="46.88865" lon="-2.10984">
        <ele>3.4</ele>
        <time>2020-06-04T12:34:09Z</time>
      </trkpt>
      <trkpt lat="46.88862" lon="-2.10984">
        <ele>3.4</ele>
        <time>2020-06-04T12:34:10Z</time>
      </trkpt>
      <trkpt lat="46.88859" lon="-2.10985">
        <ele>3.4</ele>
        <time>2020-06-04T12:34:11Z</time>
      </trkpt>
      <trkpt lat="46.88856" lon="-2.10985">
        <ele>3.4</ele>
        <time>2020-06-04T12:34:12Z</time>
      </trkpt>
      <trkpt lat="46.88853" lon="-2.10987">
        <ele>3.4</ele>
        <time>2020-06-04T12:34:13Z</time>
      </trkpt>
      <trkpt lat="46.88848" lon="-2.10989">
        <ele>3.4</ele>
        <time>2020-06-04T12:34:14Z</time>
      </trkpt>
      <trkpt lat="46.88846" lon="-2.10991">
        <ele>3.4</ele>
        <time>2020-06-04T12:34:15Z</time>
      </trkpt>
      <trkpt lat="46.88843" lon="-2.10991">
        <ele>3.4</ele>
        <time>2020-06-04T12:34:16Z</time>
      </trkpt>
      <trkpt lat="46.8884" lon="-2.10991">
        <ele>3.4</ele>
        <time>2020-06-04T12:34:17Z</time>
      </trkpt>
      <trkpt lat="46.88837" lon="-2.1099">
        <ele>3.4</ele>
        <time>2020-06-04T12:34:18Z</time>
      </trkpt>
      <trkpt lat="46.88834" lon="-2.10989">
        <ele>3.4</ele>
        <time>2020-06-04T12:34:19Z</time>
      </trkpt>
      <trkpt lat="46.88831" lon="-2.10986">
        <ele>3.3</ele>
        <time>2020-06-04T12:34:20Z</time>
      </trkpt>
      <trkpt lat="46.8883" lon="-2.10985">
        <ele>3.3</ele>
        <time>2020-06-04T12:34:21Z</time>
      </trkpt>
      <trkpt lat="46.88827" lon="-2.10982">
        <ele>3.3</ele>
        <time>2020-06-04T12:34:22Z</time>
      </trkpt>
      <trkpt lat="46.88827" lon="-2.10981">
        <ele>3.3</ele>
        <time>2020-06-04T12:34:23Z</time>
      </trkpt>
      <trkpt lat="46.88825" lon="-2.10977">
        <ele>3.3</ele>
        <time>2020-06-04T12:34:24Z</time>
      </trkpt>
      <trkpt lat="46.88824" lon="-2.10977">
        <ele>3.3</ele>
        <time>2020-06-04T12:34:25Z</time>
      </trkpt>
      <trkpt lat="46.88823" lon="-2.10975">
        <ele>3.3</ele>
        <time>2020-06-04T12:34:26Z</time>
      </trkpt>
      <trkpt lat="46.88821" lon="-2.10974">
        <ele>3.3</ele>
        <time>2020-06-04T12:34:27Z</time>
      </trkpt>
      <trkpt lat="46.88818" lon="-2.10973">
        <ele>3.3</ele>
        <time>2020-06-04T12:34:28Z</time>
      </trkpt>
      <trkpt lat="46.88817" lon="-2.10973">
        <ele>3.3</ele>
        <time>2020-06-04T12:34:29Z</time>
      </trkpt>
      <trkpt lat="46.88816" lon="-2.10973">
        <ele>3.3</ele>
        <time>2020-06-04T12:34:30Z</time>
      </trkpt>
      <trkpt lat="46.88814" lon="-2.10973">
        <ele>3.3</ele>
        <time>2020-06-04T12:34:31Z</time>
      </trkpt>
      <trkpt lat="46.88813" lon="-2.10973">
        <ele>3.3</ele>
        <time>2020-06-04T12:34:32Z</time>
      </trkpt>
      <trkpt lat="46.88811" lon="-2.10973">
        <ele>3.3</ele>
        <time>2020-06-04T12:34:33Z</time>
      </trkpt>
      <trkpt lat="46.88808" lon="-2.10974">
        <ele>3.3</ele>
        <time>2020-06-04T12:34:34Z</time>
      </trkpt>
      <trkpt lat="46.88807" lon="-2.10974">
        <ele>3.3</ele>
        <time>2020-06-04T12:34:35Z</time>
      </trkpt>
      <trkpt lat="46.88804" lon="-2.10974">
        <ele>3.3</ele>
        <time>2020-06-04T12:34:36Z</time>
      </trkpt>
      <trkpt lat="46.88803" lon="-2.10974">
        <ele>3.3</ele>
        <time>2020-06-04T12:34:37Z</time>
      </trkpt>
      <trkpt lat="46.888" lon="-2.10974">
        <ele>3.3</ele>
        <time>2020-06-04T12:34:38Z</time>
      </trkpt>
      <trkpt lat="46.88799" lon="-2.10974">
        <ele>3.3</ele>
        <time>2020-06-04T12:34:39Z</time>
      </trkpt>
      <trkpt lat="46.88798" lon="-2.10974">
        <ele>3.3</ele>
        <time>2020-06-04T12:34:40Z</time>
      </trkpt>
      <trkpt lat="46.88796" lon="-2.10975">
        <ele>3.3</ele>
        <time>2020-06-04T12:34:41Z</time>
      </trkpt>
      <trkpt lat="46.88795" lon="-2.10976">
        <ele>3.3</ele>
        <time>2020-06-04T12:34:42Z</time>
      </trkpt>
      <trkpt lat="46.88793" lon="-2.10976">
        <ele>3.3</ele>
        <time>2020-06-04T12:34:43Z</time>
      </trkpt>
      <trkpt lat="46.88789" lon="-2.10977">
        <ele>3.3</ele>
        <time>2020-06-04T12:34:44Z</time>
      </trkpt>
      <trkpt lat="46.88788" lon="-2.10977">
        <ele>3.3</ele>
        <time>2020-06-04T12:34:45Z</time>
      </trkpt>
      <trkpt lat="46.88784" lon="-2.10978">
        <ele>3.3</ele>
        <time>2020-06-04T12:34:46Z</time>
      </trkpt>
      <trkpt lat="46.88782" lon="-2.10978">
        <ele>3.3</ele>
        <time>2020-06-04T12:34:47Z</time>
      </trkpt>
      <trkpt lat="46.88778" lon="-2.10979">
        <ele>3.3</ele>
        <time>2020-06-04T12:34:48Z</time>
      </trkpt>
      <trkpt lat="46.88777" lon="-2.10979">
        <ele>3.3</ele>
        <time>2020-06-04T12:34:49Z</time>
      </trkpt>
      <trkpt lat="46.88773" lon="-2.10979">
        <ele>3.3</ele>
        <time>2020-06-04T12:34:50Z</time>
      </trkpt>
      <trkpt lat="46.88772" lon="-2.10979">
        <ele>3.3</ele>
        <time>2020-06-04T12:34:51Z</time>
      </trkpt>
      <trkpt lat="46.88769" lon="-2.10979">
        <ele>3.3</ele>
        <time>2020-06-04T12:34:52Z</time>
      </trkpt>
      <trkpt lat="46.88765" lon="-2.10978">
        <ele>3.3</ele>
        <time>2020-06-04T12:34:53Z</time>
      </trkpt>
      <trkpt lat="46.88763" lon="-2.10978">
        <ele>3.3</ele>
        <time>2020-06-04T12:34:54Z</time>
      </trkpt>
      <trkpt lat="46.8876" lon="-2.10978">
        <ele>3.3</ele>
        <time>2020-06-04T12:34:55Z</time>
      </trkpt>
      <trkpt lat="46.88756" lon="-2.10978">
        <ele>3.3</ele>
        <time>2020-06-04T12:34:56Z</time>
      </trkpt>
      <trkpt lat="46.88753" lon="-2.10978">
        <ele>3.3</ele>
        <time>2020-06-04T12:34:57Z</time>
      </trkpt>
      <trkpt lat="46.88752" lon="-2.10978">
        <ele>3.3</ele>
        <time>2020-06-04T12:34:58Z</time>
      </trkpt>
      <trkpt lat="46.88749" lon="-2.1098">
        <ele>3.3</ele>
        <time>2020-06-04T12:34:59Z</time>
      </trkpt>
      <trkpt lat="46.88748" lon="-2.1098">
        <ele>3.3</ele>
        <time>2020-06-04T12:35:00Z</time>
      </trkpt>
      <trkpt lat="46.88745" lon="-2.1098">
        <ele>3.3</ele>
        <time>2020-06-04T12:35:01Z</time>
      </trkpt>
      <trkpt lat="46.88741" lon="-2.10979">
        <ele>3.3</ele>
        <time>2020-06-04T12:35:02Z</time>
      </trkpt>
      <trkpt lat="46.8874" lon="-2.10978">
        <ele>3.3</ele>
        <time>2020-06-04T12:35:03Z</time>
      </trkpt>
      <trkpt lat="46.88736" lon="-2.10978">
        <ele>3.3</ele>
        <time>2020-06-04T12:35:04Z</time>
      </trkpt>
      <trkpt lat="46.88735" lon="-2.10978">
        <ele>3.3</ele>
        <time>2020-06-04T12:35:05Z</time>
      </trkpt>
      <trkpt lat="46.88732" lon="-2.10977">
        <ele>3.3</ele>
        <time>2020-06-04T12:35:06Z</time>
      </trkpt>
      <trkpt lat="46.88729" lon="-2.10976">
        <ele>3.3</ele>
        <time>2020-06-04T12:35:07Z</time>
      </trkpt>
      <trkpt lat="46.88728" lon="-2.10976">
        <ele>3.3</ele>
        <time>2020-06-04T12:35:08Z</time>
      </trkpt>
      <trkpt lat="46.88725" lon="-2.10976">
        <ele>3.3</ele>
        <time>2020-06-04T12:35:09Z</time>
      </trkpt>
      <trkpt lat="46.88723" lon="-2.10975">
        <ele>3.3</ele>
        <time>2020-06-04T12:35:10Z</time>
      </trkpt>
      <trkpt lat="46.8872" lon="-2.10974">
        <ele>3.3</ele>
        <time>2020-06-04T12:35:11Z</time>
      </trkpt>
      <trkpt lat="46.88719" lon="-2.10973">
        <ele>3.3</ele>
        <time>2020-06-04T12:35:12Z</time>
      </trkpt>
      <trkpt lat="46.88716" lon="-2.10971">
        <ele>3.3</ele>
        <time>2020-06-04T12:35:13Z</time>
      </trkpt>
      <trkpt lat="46.88714" lon="-2.10968">
        <ele>3.3</ele>
        <time>2020-06-04T12:35:14Z</time>
      </trkpt>
      <trkpt lat="46.88711" lon="-2.10963">
        <ele>3.3</ele>
        <time>2020-06-04T12:35:15Z</time>
      </trkpt>
      <trkpt lat="46.8871" lon="-2.10962">
        <ele>3.3</ele>
        <time>2020-06-04T12:35:16Z</time>
      </trkpt>
      <trkpt lat="46.88709" lon="-2.10958">
        <ele>3.3</ele>
        <time>2020-06-04T12:35:17Z</time>
      </trkpt>
      <trkpt lat="46.88707" lon="-2.10953">
        <ele>3.3</ele>
        <time>2020-06-04T12:35:18Z</time>
      </trkpt>
      <trkpt lat="46.88707" lon="-2.10951">
        <ele>3.3</ele>
        <time>2020-06-04T12:35:19Z</time>
      </trkpt>
      <trkpt lat="46.88705" lon="-2.10945">
        <ele>3.2</ele>
        <time>2020-06-04T12:35:20Z</time>
      </trkpt>
      <trkpt lat="46.88704" lon="-2.10943">
        <ele>3.2</ele>
        <time>2020-06-04T12:35:21Z</time>
      </trkpt>
      <trkpt lat="46.88703" lon="-2.10939">
        <ele>3.2</ele>
        <time>2020-06-04T12:35:22Z</time>
      </trkpt>
      <trkpt lat="46.88703" lon="-2.10935">
        <ele>3.2</ele>
        <time>2020-06-04T12:35:23Z</time>
      </trkpt>
      <trkpt lat="46.88702" lon="-2.10931">
        <ele>3.2</ele>
        <time>2020-06-04T12:35:24Z</time>
      </trkpt>
      <trkpt lat="46.88701" lon="-2.10928">
        <ele>3.2</ele>
        <time>2020-06-04T12:35:25Z</time>
      </trkpt>
      <trkpt lat="46.88699" lon="-2.10924">
        <ele>3.2</ele>
        <time>2020-06-04T12:35:26Z</time>
      </trkpt>
      <trkpt lat="46.88698" lon="-2.1092">
        <ele>3.2</ele>
        <time>2020-06-04T12:35:27Z</time>
      </trkpt>
      <trkpt lat="46.88697" lon="-2.10915">
        <ele>3.2</ele>
        <time>2020-06-04T12:35:28Z</time>
      </trkpt>
      <trkpt lat="46.88697" lon="-2.10913">
        <ele>3.2</ele>
        <time>2020-06-04T12:35:29Z</time>
      </trkpt>
      <trkpt lat="46.88696" lon="-2.10909">
        <ele>3.2</ele>
        <time>2020-06-04T12:35:30Z</time>
      </trkpt>
      <trkpt lat="46.88696" lon="-2.10907">
        <ele>3.2</ele>
        <time>2020-06-04T12:35:31Z</time>
      </trkpt>
      <trkpt lat="46.88696" lon="-2.10902">
        <ele>3.2</ele>
        <time>2020-06-04T12:35:32Z</time>
      </trkpt>
      <trkpt lat="46.88695" lon="-2.109">
        <ele>3.1</ele>
        <time>2020-06-04T12:35:33Z</time>
      </trkpt>
      <trkpt lat="46.88696" lon="-2.10896">
        <ele>3.1</ele>
        <time>2020-06-04T12:35:34Z</time>
      </trkpt>
      <trkpt lat="46.88695" lon="-2.10894">
        <ele>3.1</ele>
        <time>2020-06-04T12:35:35Z</time>
      </trkpt>
      <trkpt lat="46.88696" lon="-2.1089">
        <ele>3.1</ele>
        <time>2020-06-04T12:35:36Z</time>
      </trkpt>
      <trkpt lat="46.88696" lon="-2.10889">
        <ele>3.1</ele>
        <time>2020-06-04T12:35:37Z</time>
      </trkpt>
      <trkpt lat="46.88695" lon="-2.10884">
        <ele>3.1</ele>
        <time>2020-06-04T12:35:38Z</time>
      </trkpt>
      <trkpt lat="46.88695" lon="-2.10882">
        <ele>3.1</ele>
        <time>2020-06-04T12:35:39Z</time>
      </trkpt>
      <trkpt lat="46.88694" lon="-2.10877">
        <ele>3.1</ele>
        <time>2020-06-04T12:35:40Z</time>
      </trkpt>
      <trkpt lat="46.88694" lon="-2.10876">
        <ele>3.1</ele>
        <time>2020-06-04T12:35:41Z</time>
      </trkpt>
      <trkpt lat="46.88694" lon="-2.10872">
        <ele>3.1</ele>
        <time>2020-06-04T12:35:42Z</time>
      </trkpt>
      <trkpt lat="46.88693" lon="-2.1087">
        <ele>3.1</ele>
        <time>2020-06-04T12:35:43Z</time>
      </trkpt>
      <trkpt lat="46.88692" lon="-2.10865">
        <ele>3.1</ele>
        <time>2020-06-04T12:35:44Z</time>
      </trkpt>
      <trkpt lat="46.88691" lon="-2.10863">
        <ele>3.1</ele>
        <time>2020-06-04T12:35:45Z</time>
      </trkpt>
      <trkpt lat="46.8869" lon="-2.10859">
        <ele>3.1</ele>
        <time>2020-06-04T12:35:46Z</time>
      </trkpt>
      <trkpt lat="46.88689" lon="-2.10855">
        <ele>3.1</ele>
        <time>2020-06-04T12:35:47Z</time>
      </trkpt>
      <trkpt lat="46.88688" lon="-2.10851">
        <ele>3.1</ele>
        <time>2020-06-04T12:35:48Z</time>
      </trkpt>
      <trkpt lat="46.88688" lon="-2.10845">
        <ele>3.1</ele>
        <time>2020-06-04T12:35:49Z</time>
      </trkpt>
      <trkpt lat="46.88687" lon="-2.10843">
        <ele>3.1</ele>
        <time>2020-06-04T12:35:50Z</time>
      </trkpt>
      <trkpt lat="46.88687" lon="-2.10841">
        <ele>3.1</ele>
        <time>2020-06-04T12:35:51Z</time>
      </trkpt>
      <trkpt lat="46.88688" lon="-2.10838">
        <ele>3.1</ele>
        <time>2020-06-04T12:35:52Z</time>
      </trkpt>
      <trkpt lat="46.88689" lon="-2.10838">
        <ele>3.1</ele>
        <time>2020-06-04T12:35:53Z</time>
      </trkpt>
      <trkpt lat="46.88691" lon="-2.10836">
        <ele>3.1</ele>
        <time>2020-06-04T12:35:54Z</time>
      </trkpt>
      <trkpt lat="46.88692" lon="-2.10834">
        <ele>3.1</ele>
        <time>2020-06-04T12:35:55Z</time>
      </trkpt>
      <trkpt lat="46.88693" lon="-2.10833">
        <ele>3.1</ele>
        <time>2020-06-04T12:35:56Z</time>
      </trkpt>
      <trkpt lat="46.88694" lon="-2.10832">
        <ele>3.1</ele>
        <time>2020-06-04T12:35:57Z</time>
      </trkpt>
      <trkpt lat="46.88696" lon="-2.10832">
        <ele>3.1</ele>
        <time>2020-06-04T12:35:58Z</time>
      </trkpt>
      <trkpt lat="46.88697" lon="-2.1083">
        <ele>3.1</ele>
        <time>2020-06-04T12:35:59Z</time>
      </trkpt>
      <trkpt lat="46.88699" lon="-2.10827">
        <ele>3.1</ele>
        <time>2020-06-04T12:36:00Z</time>
      </trkpt>
      <trkpt lat="46.88699" lon="-2.10826">
        <ele>3.1</ele>
        <time>2020-06-04T12:36:01Z</time>
      </trkpt>
      <trkpt lat="46.887" lon="-2.10825">
        <ele>3.1</ele>
        <time>2020-06-04T12:36:02Z</time>
      </trkpt>
      <trkpt lat="46.887" lon="-2.1082">
        <ele>3.1</ele>
        <time>2020-06-04T12:36:03Z</time>
      </trkpt>
      <trkpt lat="46.887" lon="-2.10818">
        <ele>3.1</ele>
        <time>2020-06-04T12:36:04Z</time>
      </trkpt>
      <trkpt lat="46.88698" lon="-2.10813">
        <ele>3.1</ele>
        <time>2020-06-04T12:36:05Z</time>
      </trkpt>
      <trkpt lat="46.88696" lon="-2.10809">
        <ele>3.1</ele>
        <time>2020-06-04T12:36:06Z</time>
      </trkpt>
      <trkpt lat="46.88695" lon="-2.10804">
        <ele>3.1</ele>
        <time>2020-06-04T12:36:07Z</time>
      </trkpt>
      <trkpt lat="46.88694" lon="-2.10799">
        <ele>3.1</ele>
        <time>2020-06-04T12:36:08Z</time>
      </trkpt>
      <trkpt lat="46.88692" lon="-2.10794">
        <ele>3.1</ele>
        <time>2020-06-04T12:36:09Z</time>
      </trkpt>
      <trkpt lat="46.88691" lon="-2.10788">
        <ele>3.1</ele>
        <time>2020-06-04T12:36:10Z</time>
      </trkpt>
      <trkpt lat="46.88689" lon="-2.10783">
        <ele>3</ele>
        <time>2020-06-04T12:36:11Z</time>
      </trkpt>
      <trkpt lat="46.88687" lon="-2.10778">
        <ele>3</ele>
        <time>2020-06-04T12:36:12Z</time>
      </trkpt>
      <trkpt lat="46.88685" lon="-2.10773">
        <ele>3</ele>
        <time>2020-06-04T12:36:13Z</time>
      </trkpt>
      <trkpt lat="46.88684" lon="-2.10767">
        <ele>2.9</ele>
        <time>2020-06-04T12:36:14Z</time>
      </trkpt>
      <trkpt lat="46.88682" lon="-2.1076">
        <ele>2.9</ele>
        <time>2020-06-04T12:36:15Z</time>
      </trkpt>
      <trkpt lat="46.88679" lon="-2.10754">
        <ele>2.8</ele>
        <time>2020-06-04T12:36:16Z</time>
      </trkpt>
      <trkpt lat="46.88677" lon="-2.10749">
        <ele>2.8</ele>
        <time>2020-06-04T12:36:17Z</time>
      </trkpt>
      <trkpt lat="46.88675" lon="-2.10744">
        <ele>2.8</ele>
        <time>2020-06-04T12:36:18Z</time>
      </trkpt>
      <trkpt lat="46.88672" lon="-2.1074">
        <ele>2.8</ele>
        <time>2020-06-04T12:36:19Z</time>
      </trkpt>
      <trkpt lat="46.8867" lon="-2.10736">
        <ele>2.7</ele>
        <time>2020-06-04T12:36:20Z</time>
      </trkpt>
      <trkpt lat="46.88668" lon="-2.10733">
        <ele>2.7</ele>
        <time>2020-06-04T12:36:21Z</time>
      </trkpt>
      <trkpt lat="46.88665" lon="-2.1073">
        <ele>2.7</ele>
        <time>2020-06-04T12:36:22Z</time>
      </trkpt>
      <trkpt lat="46.88662" lon="-2.10727">
        <ele>2.7</ele>
        <time>2020-06-04T12:36:23Z</time>
      </trkpt>
      <trkpt lat="46.88658" lon="-2.10725">
        <ele>2.7</ele>
        <time>2020-06-04T12:36:24Z</time>
      </trkpt>
      <trkpt lat="46.88655" lon="-2.10724">
        <ele>2.7</ele>
        <time>2020-06-04T12:36:25Z</time>
      </trkpt>
      <trkpt lat="46.8865" lon="-2.10723">
        <ele>2.7</ele>
        <time>2020-06-04T12:36:26Z</time>
      </trkpt>
      <trkpt lat="46.88646" lon="-2.10722">
        <ele>2.7</ele>
        <time>2020-06-04T12:36:27Z</time>
      </trkpt>
      <trkpt lat="46.88641" lon="-2.10722">
        <ele>2.6</ele>
        <time>2020-06-04T12:36:28Z</time>
      </trkpt>
      <trkpt lat="46.88636" lon="-2.10723">
        <ele>2.6</ele>
        <time>2020-06-04T12:36:29Z</time>
      </trkpt>
      <trkpt lat="46.88632" lon="-2.10724">
        <ele>2.6</ele>
        <time>2020-06-04T12:36:30Z</time>
      </trkpt>
      <trkpt lat="46.88627" lon="-2.10724">
        <ele>2.6</ele>
        <time>2020-06-04T12:36:31Z</time>
      </trkpt>
      <trkpt lat="46.88623" lon="-2.10725">
        <ele>2.6</ele>
        <time>2020-06-04T12:36:32Z</time>
      </trkpt>
      <trkpt lat="46.88618" lon="-2.10726">
        <ele>2.6</ele>
        <time>2020-06-04T12:36:33Z</time>
      </trkpt>
      <trkpt lat="46.88614" lon="-2.10728">
        <ele>2.5</ele>
        <time>2020-06-04T12:36:34Z</time>
      </trkpt>
      <trkpt lat="46.88609" lon="-2.10728">
        <ele>2.5</ele>
        <time>2020-06-04T12:36:35Z</time>
      </trkpt>
      <trkpt lat="46.88605" lon="-2.10727">
        <ele>2.5</ele>
        <time>2020-06-04T12:36:36Z</time>
      </trkpt>
      <trkpt lat="46.88601" lon="-2.10726">
        <ele>2.5</ele>
        <time>2020-06-04T12:36:37Z</time>
      </trkpt>
      <trkpt lat="46.88598" lon="-2.10724">
        <ele>2.5</ele>
        <time>2020-06-04T12:36:38Z</time>
      </trkpt>
      <trkpt lat="46.88594" lon="-2.10719">
        <ele>2.5</ele>
        <time>2020-06-04T12:36:39Z</time>
      </trkpt>
      <trkpt lat="46.88591" lon="-2.10714">
        <ele>2.5</ele>
        <time>2020-06-04T12:36:40Z</time>
      </trkpt>
      <trkpt lat="46.88588" lon="-2.1071">
        <ele>2.5</ele>
        <time>2020-06-04T12:36:41Z</time>
      </trkpt>
      <trkpt lat="46.88585" lon="-2.10704">
        <ele>2.5</ele>
        <time>2020-06-04T12:36:42Z</time>
      </trkpt>
      <trkpt lat="46.88582" lon="-2.10699">
        <ele>2.5</ele>
        <time>2020-06-04T12:36:43Z</time>
      </trkpt>
      <trkpt lat="46.8858" lon="-2.10693">
        <ele>2.6</ele>
        <time>2020-06-04T12:36:44Z</time>
      </trkpt>
      <trkpt lat="46.88578" lon="-2.10687">
        <ele>2.6</ele>
        <time>2020-06-04T12:36:45Z</time>
      </trkpt>
      <trkpt lat="46.88575" lon="-2.10682">
        <ele>2.6</ele>
        <time>2020-06-04T12:36:46Z</time>
      </trkpt>
      <trkpt lat="46.88573" lon="-2.10677">
        <ele>2.6</ele>
        <time>2020-06-04T12:36:47Z</time>
      </trkpt>
      <trkpt lat="46.88568" lon="-2.10673">
        <ele>2.7</ele>
        <time>2020-06-04T12:36:48Z</time>
      </trkpt>
      <trkpt lat="46.88563" lon="-2.10669">
        <ele>2.7</ele>
        <time>2020-06-04T12:36:49Z</time>
      </trkpt>
      <trkpt lat="46.88558" lon="-2.10668">
        <ele>2.7</ele>
        <time>2020-06-04T12:36:50Z</time>
      </trkpt>
      <trkpt lat="46.88553" lon="-2.10667">
        <ele>2.7</ele>
        <time>2020-06-04T12:36:51Z</time>
      </trkpt>
      <trkpt lat="46.88548" lon="-2.10665">
        <ele>2.7</ele>
        <time>2020-06-04T12:36:52Z</time>
      </trkpt>
      <trkpt lat="46.88545" lon="-2.10664">
        <ele>2.7</ele>
        <time>2020-06-04T12:36:53Z</time>
      </trkpt>
      <trkpt lat="46.88541" lon="-2.10663">
        <ele>2.7</ele>
        <time>2020-06-04T12:36:54Z</time>
      </trkpt>
      <trkpt lat="46.88537" lon="-2.10661">
        <ele>2.7</ele>
        <time>2020-06-04T12:36:55Z</time>
      </trkpt>
      <trkpt lat="46.88533" lon="-2.10659">
        <ele>2.7</ele>
        <time>2020-06-04T12:36:56Z</time>
      </trkpt>
      <trkpt lat="46.88529" lon="-2.10657">
        <ele>2.7</ele>
        <time>2020-06-04T12:36:57Z</time>
      </trkpt>
      <trkpt lat="46.88524" lon="-2.10656">
        <ele>2.7</ele>
        <time>2020-06-04T12:36:58Z</time>
      </trkpt>
      <trkpt lat="46.88519" lon="-2.10655">
        <ele>2.6</ele>
        <time>2020-06-04T12:36:59Z</time>
      </trkpt>
      <trkpt lat="46.88514" lon="-2.10653">
        <ele>2.6</ele>
        <time>2020-06-04T12:37:00Z</time>
      </trkpt>
      <trkpt lat="46.8851" lon="-2.10652">
        <ele>2.6</ele>
        <time>2020-06-04T12:37:01Z</time>
      </trkpt>
      <trkpt lat="46.88505" lon="-2.1065">
        <ele>2.6</ele>
        <time>2020-06-04T12:37:02Z</time>
      </trkpt>
      <trkpt lat="46.88501" lon="-2.10648">
        <ele>2.6</ele>
        <time>2020-06-04T12:37:03Z</time>
      </trkpt>
      <trkpt lat="46.88497" lon="-2.10647">
        <ele>2.6</ele>
        <time>2020-06-04T12:37:04Z</time>
      </trkpt>
      <trkpt lat="46.88493" lon="-2.10645">
        <ele>2.6</ele>
        <time>2020-06-04T12:37:05Z</time>
      </trkpt>
      <trkpt lat="46.88489" lon="-2.10641">
        <ele>2.5</ele>
        <time>2020-06-04T12:37:06Z</time>
      </trkpt>
      <trkpt lat="46.88484" lon="-2.10638">
        <ele>2.5</ele>
        <time>2020-06-04T12:37:07Z</time>
      </trkpt>
      <trkpt lat="46.8848" lon="-2.10634">
        <ele>2.5</ele>
        <time>2020-06-04T12:37:08Z</time>
      </trkpt>
      <trkpt lat="46.88476" lon="-2.1063">
        <ele>2.5</ele>
        <time>2020-06-04T12:37:09Z</time>
      </trkpt>
      <trkpt lat="46.88472" lon="-2.10625">
        <ele>2.5</ele>
        <time>2020-06-04T12:37:10Z</time>
      </trkpt>
      <trkpt lat="46.88469" lon="-2.10621">
        <ele>2.5</ele>
        <time>2020-06-04T12:37:11Z</time>
      </trkpt>
      <trkpt lat="46.88465" lon="-2.10617">
        <ele>2.5</ele>
        <time>2020-06-04T12:37:12Z</time>
      </trkpt>
      <trkpt lat="46.88461" lon="-2.10613">
        <ele>2.4</ele>
        <time>2020-06-04T12:37:13Z</time>
      </trkpt>
      <trkpt lat="46.88457" lon="-2.10609">
        <ele>2.4</ele>
        <time>2020-06-04T12:37:14Z</time>
      </trkpt>
      <trkpt lat="46.88452" lon="-2.10606">
        <ele>2.4</ele>
        <time>2020-06-04T12:37:15Z</time>
      </trkpt>
      <trkpt lat="46.88448" lon="-2.10602">
        <ele>2.4</ele>
        <time>2020-06-04T12:37:16Z</time>
      </trkpt>
      <trkpt lat="46.88443" lon="-2.10601">
        <ele>2.4</ele>
        <time>2020-06-04T12:37:17Z</time>
      </trkpt>
      <trkpt lat="46.88438" lon="-2.10601">
        <ele>2.4</ele>
        <time>2020-06-04T12:37:18Z</time>
      </trkpt>
      <trkpt lat="46.88433" lon="-2.10601">
        <ele>2.4</ele>
        <time>2020-06-04T12:37:19Z</time>
      </trkpt>
      <trkpt lat="46.88428" lon="-2.10602">
        <ele>2.4</ele>
        <time>2020-06-04T12:37:20Z</time>
      </trkpt>
      <trkpt lat="46.88424" lon="-2.10605">
        <ele>2.4</ele>
        <time>2020-06-04T12:37:21Z</time>
      </trkpt>
      <trkpt lat="46.88419" lon="-2.10607">
        <ele>2.4</ele>
        <time>2020-06-04T12:37:22Z</time>
      </trkpt>
      <trkpt lat="46.88414" lon="-2.10608">
        <ele>2.4</ele>
        <time>2020-06-04T12:37:23Z</time>
      </trkpt>
      <trkpt lat="46.8841" lon="-2.10609">
        <ele>2.4</ele>
        <time>2020-06-04T12:37:24Z</time>
      </trkpt>
      <trkpt lat="46.88405" lon="-2.1061">
        <ele>2.4</ele>
        <time>2020-06-04T12:37:25Z</time>
      </trkpt>
      <trkpt lat="46.884" lon="-2.10612">
        <ele>2.4</ele>
        <time>2020-06-04T12:37:26Z</time>
      </trkpt>
      <trkpt lat="46.88395" lon="-2.10611">
        <ele>2.4</ele>
        <time>2020-06-04T12:37:27Z</time>
      </trkpt>
      <trkpt lat="46.8839" lon="-2.1061">
        <ele>2.4</ele>
        <time>2020-06-04T12:37:28Z</time>
      </trkpt>
      <trkpt lat="46.88386" lon="-2.10606">
        <ele>2.4</ele>
        <time>2020-06-04T12:37:29Z</time>
      </trkpt>
      <trkpt lat="46.88381" lon="-2.10602">
        <ele>2.4</ele>
        <time>2020-06-04T12:37:30Z</time>
      </trkpt>
      <trkpt lat="46.88377" lon="-2.10598">
        <ele>2.4</ele>
        <time>2020-06-04T12:37:31Z</time>
      </trkpt>
      <trkpt lat="46.88372" lon="-2.10595">
        <ele>2.4</ele>
        <time>2020-06-04T12:37:32Z</time>
      </trkpt>
      <trkpt lat="46.88367" lon="-2.10591">
        <ele>2.4</ele>
        <time>2020-06-04T12:37:33Z</time>
      </trkpt>
      <trkpt lat="46.88362" lon="-2.10589">
        <ele>2.4</ele>
        <time>2020-06-04T12:37:34Z</time>
      </trkpt>
      <trkpt lat="46.88356" lon="-2.10587">
        <ele>2.4</ele>
        <time>2020-06-04T12:37:35Z</time>
      </trkpt>
      <trkpt lat="46.8835" lon="-2.10588">
        <ele>2.4</ele>
        <time>2020-06-04T12:37:36Z</time>
      </trkpt>
      <trkpt lat="46.88344" lon="-2.10589">
        <ele>2.4</ele>
        <time>2020-06-04T12:37:37Z</time>
      </trkpt>
      <trkpt lat="46.88338" lon="-2.1059">
        <ele>2.4</ele>
        <time>2020-06-04T12:37:38Z</time>
      </trkpt>
      <trkpt lat="46.88333" lon="-2.10593">
        <ele>2.4</ele>
        <time>2020-06-04T12:37:39Z</time>
      </trkpt>
      <trkpt lat="46.88328" lon="-2.10594">
        <ele>2.3</ele>
        <time>2020-06-04T12:37:40Z</time>
      </trkpt>
      <trkpt lat="46.88324" lon="-2.10597">
        <ele>2.3</ele>
        <time>2020-06-04T12:37:41Z</time>
      </trkpt>
      <trkpt lat="46.8832" lon="-2.106">
        <ele>2.3</ele>
        <time>2020-06-04T12:37:42Z</time>
      </trkpt>
      <trkpt lat="46.88315" lon="-2.10602">
        <ele>2.3</ele>
        <time>2020-06-04T12:37:43Z</time>
      </trkpt>
      <trkpt lat="46.8831" lon="-2.10605">
        <ele>2.3</ele>
        <time>2020-06-04T12:37:44Z</time>
      </trkpt>
      <trkpt lat="46.88306" lon="-2.10609">
        <ele>2.3</ele>
        <time>2020-06-04T12:37:45Z</time>
      </trkpt>
      <trkpt lat="46.88302" lon="-2.10613">
        <ele>2.3</ele>
        <time>2020-06-04T12:37:46Z</time>
      </trkpt>
      <trkpt lat="46.88298" lon="-2.10616">
        <ele>2.3</ele>
        <time>2020-06-04T12:37:47Z</time>
      </trkpt>
      <trkpt lat="46.88293" lon="-2.1062">
        <ele>2.3</ele>
        <time>2020-06-04T12:37:48Z</time>
      </trkpt>
      <trkpt lat="46.88289" lon="-2.10625">
        <ele>2.3</ele>
        <time>2020-06-04T12:37:49Z</time>
      </trkpt>
      <trkpt lat="46.88284" lon="-2.10629">
        <ele>2.3</ele>
        <time>2020-06-04T12:37:50Z</time>
      </trkpt>
      <trkpt lat="46.88279" lon="-2.10632">
        <ele>2.3</ele>
        <time>2020-06-04T12:37:51Z</time>
      </trkpt>
      <trkpt lat="46.88275" lon="-2.10636">
        <ele>2.3</ele>
        <time>2020-06-04T12:37:52Z</time>
      </trkpt>
      <trkpt lat="46.8827" lon="-2.10641">
        <ele>2.3</ele>
        <time>2020-06-04T12:37:53Z</time>
      </trkpt>
      <trkpt lat="46.88266" lon="-2.10644">
        <ele>2.3</ele>
        <time>2020-06-04T12:37:54Z</time>
      </trkpt>
      <trkpt lat="46.88261" lon="-2.1065">
        <ele>2.3</ele>
        <time>2020-06-04T12:37:55Z</time>
      </trkpt>
      <trkpt lat="46.88257" lon="-2.10655">
        <ele>2.3</ele>
        <time>2020-06-04T12:37:56Z</time>
      </trkpt>
      <trkpt lat="46.88253" lon="-2.10661">
        <ele>2.3</ele>
        <time>2020-06-04T12:37:57Z</time>
      </trkpt>
      <trkpt lat="46.88248" lon="-2.10665">
        <ele>2.3</ele>
        <time>2020-06-04T12:37:58Z</time>
      </trkpt>
      <trkpt lat="46.88244" lon="-2.10669">
        <ele>2.3</ele>
        <time>2020-06-04T12:37:59Z</time>
      </trkpt>
      <trkpt lat="46.88239" lon="-2.10673">
        <ele>2.3</ele>
        <time>2020-06-04T12:38:00Z</time>
      </trkpt>
      <trkpt lat="46.88235" lon="-2.10676">
        <ele>2.3</ele>
        <time>2020-06-04T12:38:01Z</time>
      </trkpt>
      <trkpt lat="46.88229" lon="-2.10678">
        <ele>2.2</ele>
        <time>2020-06-04T12:38:02Z</time>
      </trkpt>
      <trkpt lat="46.88224" lon="-2.10679">
        <ele>2.2</ele>
        <time>2020-06-04T12:38:03Z</time>
      </trkpt>
      <trkpt lat="46.88218" lon="-2.1068">
        <ele>2.2</ele>
        <time>2020-06-04T12:38:04Z</time>
      </trkpt>
      <trkpt lat="46.88213" lon="-2.10681">
        <ele>2.2</ele>
        <time>2020-06-04T12:38:05Z</time>
      </trkpt>
      <trkpt lat="46.88208" lon="-2.10682">
        <ele>2.2</ele>
        <time>2020-06-04T12:38:06Z</time>
      </trkpt>
      <trkpt lat="46.88203" lon="-2.10683">
        <ele>2.2</ele>
        <time>2020-06-04T12:38:07Z</time>
      </trkpt>
      <trkpt lat="46.88198" lon="-2.10684">
        <ele>2.2</ele>
        <time>2020-06-04T12:38:08Z</time>
      </trkpt>
      <trkpt lat="46.88193" lon="-2.10686">
        <ele>2.2</ele>
        <time>2020-06-04T12:38:09Z</time>
      </trkpt>
      <trkpt lat="46.88188" lon="-2.10688">
        <ele>2.1</ele>
        <time>2020-06-04T12:38:10Z</time>
      </trkpt>
      <trkpt lat="46.88183" lon="-2.1069">
        <ele>2.1</ele>
        <time>2020-06-04T12:38:11Z</time>
      </trkpt>
      <trkpt lat="46.88178" lon="-2.10691">
        <ele>2.1</ele>
        <time>2020-06-04T12:38:12Z</time>
      </trkpt>
      <trkpt lat="46.88173" lon="-2.10693">
        <ele>2.1</ele>
        <time>2020-06-04T12:38:13Z</time>
      </trkpt>
      <trkpt lat="46.88168" lon="-2.10695">
        <ele>2.1</ele>
        <time>2020-06-04T12:38:14Z</time>
      </trkpt>
      <trkpt lat="46.88163" lon="-2.10698">
        <ele>2.1</ele>
        <time>2020-06-04T12:38:15Z</time>
      </trkpt>
      <trkpt lat="46.88159" lon="-2.10699">
        <ele>2.1</ele>
        <time>2020-06-04T12:38:16Z</time>
      </trkpt>
      <trkpt lat="46.88154" lon="-2.10701">
        <ele>2.1</ele>
        <time>2020-06-04T12:38:17Z</time>
      </trkpt>
      <trkpt lat="46.88149" lon="-2.10704">
        <ele>2.1</ele>
        <time>2020-06-04T12:38:18Z</time>
      </trkpt>
      <trkpt lat="46.88145" lon="-2.10705">
        <ele>2.1</ele>
        <time>2020-06-04T12:38:19Z</time>
      </trkpt>
      <trkpt lat="46.8814" lon="-2.10707">
        <ele>2</ele>
        <time>2020-06-04T12:38:20Z</time>
      </trkpt>
      <trkpt lat="46.88134" lon="-2.1071">
        <ele>2</ele>
        <time>2020-06-04T12:38:21Z</time>
      </trkpt>
      <trkpt lat="46.88129" lon="-2.10712">
        <ele>2</ele>
        <time>2020-06-04T12:38:22Z</time>
      </trkpt>
      <trkpt lat="46.88123" lon="-2.10714">
        <ele>2</ele>
        <time>2020-06-04T12:38:23Z</time>
      </trkpt>
      <trkpt lat="46.88118" lon="-2.10717">
        <ele>2</ele>
        <time>2020-06-04T12:38:24Z</time>
      </trkpt>
      <trkpt lat="46.88112" lon="-2.1072">
        <ele>2</ele>
        <time>2020-06-04T12:38:25Z</time>
      </trkpt>
      <trkpt lat="46.88108" lon="-2.10724">
        <ele>2</ele>
        <time>2020-06-04T12:38:26Z</time>
      </trkpt>
      <trkpt lat="46.88103" lon="-2.10729">
        <ele>2</ele>
        <time>2020-06-04T12:38:27Z</time>
      </trkpt>
      <trkpt lat="46.88099" lon="-2.10733">
        <ele>2</ele>
        <time>2020-06-04T12:38:28Z</time>
      </trkpt>
      <trkpt lat="46.88093" lon="-2.10738">
        <ele>1.9</ele>
        <time>2020-06-04T12:38:29Z</time>
      </trkpt>
      <trkpt lat="46.88088" lon="-2.1074">
        <ele>1.9</ele>
        <time>2020-06-04T12:38:30Z</time>
      </trkpt>
      <trkpt lat="46.88083" lon="-2.10744">
        <ele>1.9</ele>
        <time>2020-06-04T12:38:31Z</time>
      </trkpt>
      <trkpt lat="46.88079" lon="-2.10746">
        <ele>1.9</ele>
        <time>2020-06-04T12:38:32Z</time>
      </trkpt>
      <trkpt lat="46.88074" lon="-2.10749">
        <ele>1.9</ele>
        <time>2020-06-04T12:38:33Z</time>
      </trkpt>
      <trkpt lat="46.8807" lon="-2.10751">
        <ele>1.9</ele>
        <time>2020-06-04T12:38:34Z</time>
      </trkpt>
      <trkpt lat="46.88065" lon="-2.10753">
        <ele>1.9</ele>
        <time>2020-06-04T12:38:35Z</time>
      </trkpt>
      <trkpt lat="46.8806" lon="-2.10754">
        <ele>1.9</ele>
        <time>2020-06-04T12:38:36Z</time>
      </trkpt>
      <trkpt lat="46.88057" lon="-2.10753">
        <ele>1.9</ele>
        <time>2020-06-04T12:38:37Z</time>
      </trkpt>
      <trkpt lat="46.88052" lon="-2.1075">
        <ele>1.9</ele>
        <time>2020-06-04T12:38:38Z</time>
      </trkpt>
      <trkpt lat="46.88048" lon="-2.10744">
        <ele>1.8</ele>
        <time>2020-06-04T12:38:39Z</time>
      </trkpt>
      <trkpt lat="46.88044" lon="-2.1074">
        <ele>1.8</ele>
        <time>2020-06-04T12:38:40Z</time>
      </trkpt>
      <trkpt lat="46.88041" lon="-2.10737">
        <ele>1.8</ele>
        <time>2020-06-04T12:38:41Z</time>
      </trkpt>
      <trkpt lat="46.88038" lon="-2.10733">
        <ele>1.8</ele>
        <time>2020-06-04T12:38:42Z</time>
      </trkpt>
      <trkpt lat="46.88036" lon="-2.1073">
        <ele>1.8</ele>
        <time>2020-06-04T12:38:43Z</time>
      </trkpt>
      <trkpt lat="46.88033" lon="-2.10727">
        <ele>1.8</ele>
        <time>2020-06-04T12:38:44Z</time>
      </trkpt>
      <trkpt lat="46.88031" lon="-2.10724">
        <ele>1.8</ele>
        <time>2020-06-04T12:38:45Z</time>
      </trkpt>
      <trkpt lat="46.88029" lon="-2.1072">
        <ele>1.8</ele>
        <time>2020-06-04T12:38:46Z</time>
      </trkpt>
      <trkpt lat="46.88027" lon="-2.10716">
        <ele>1.8</ele>
        <time>2020-06-04T12:38:47Z</time>
      </trkpt>
      <trkpt lat="46.88026" lon="-2.10712">
        <ele>1.8</ele>
        <time>2020-06-04T12:38:48Z</time>
      </trkpt>
      <trkpt lat="46.88024" lon="-2.10708">
        <ele>1.8</ele>
        <time>2020-06-04T12:38:49Z</time>
      </trkpt>
      <trkpt lat="46.88022" lon="-2.10705">
        <ele>1.8</ele>
        <time>2020-06-04T12:38:50Z</time>
      </trkpt>
      <trkpt lat="46.8802" lon="-2.10701">
        <ele>1.8</ele>
        <time>2020-06-04T12:38:51Z</time>
      </trkpt>
      <trkpt lat="46.88018" lon="-2.10696">
        <ele>1.8</ele>
        <time>2020-06-04T12:38:52Z</time>
      </trkpt>
      <trkpt lat="46.88017" lon="-2.10692">
        <ele>1.8</ele>
        <time>2020-06-04T12:38:53Z</time>
      </trkpt>
      <trkpt lat="46.88015" lon="-2.10689">
        <ele>1.8</ele>
        <time>2020-06-04T12:38:54Z</time>
      </trkpt>
      <trkpt lat="46.88013" lon="-2.10685">
        <ele>1.8</ele>
        <time>2020-06-04T12:38:55Z</time>
      </trkpt>
      <trkpt lat="46.88011" lon="-2.10681">
        <ele>1.8</ele>
        <time>2020-06-04T12:38:56Z</time>
      </trkpt>
      <trkpt lat="46.88008" lon="-2.10678">
        <ele>1.8</ele>
        <time>2020-06-04T12:38:57Z</time>
      </trkpt>
      <trkpt lat="46.88006" lon="-2.10675">
        <ele>1.8</ele>
        <time>2020-06-04T12:38:58Z</time>
      </trkpt>
      <trkpt lat="46.88002" lon="-2.10672">
        <ele>1.8</ele>
        <time>2020-06-04T12:38:59Z</time>
      </trkpt>
      <trkpt lat="46.87999" lon="-2.10671">
        <ele>1.7</ele>
        <time>2020-06-04T12:39:00Z</time>
      </trkpt>
      <trkpt lat="46.87996" lon="-2.10666">
        <ele>1.7</ele>
        <time>2020-06-04T12:39:01Z</time>
      </trkpt>
      <trkpt lat="46.87993" lon="-2.10661">
        <ele>1.7</ele>
        <time>2020-06-04T12:39:02Z</time>
      </trkpt>
      <trkpt lat="46.87989" lon="-2.10657">
        <ele>1.7</ele>
        <time>2020-06-04T12:39:03Z</time>
      </trkpt>
      <trkpt lat="46.87986" lon="-2.10652">
        <ele>1.7</ele>
        <time>2020-06-04T12:39:04Z</time>
      </trkpt>
      <trkpt lat="46.87983" lon="-2.10647">
        <ele>1.7</ele>
        <time>2020-06-04T12:39:05Z</time>
      </trkpt>
      <trkpt lat="46.87979" lon="-2.10642">
        <ele>1.7</ele>
        <time>2020-06-04T12:39:06Z</time>
      </trkpt>
      <trkpt lat="46.87975" lon="-2.10637">
        <ele>1.7</ele>
        <time>2020-06-04T12:39:07Z</time>
      </trkpt>
      <trkpt lat="46.87971" lon="-2.10631">
        <ele>1.7</ele>
        <time>2020-06-04T12:39:08Z</time>
      </trkpt>
      <trkpt lat="46.87968" lon="-2.10627">
        <ele>1.7</ele>
        <time>2020-06-04T12:39:09Z</time>
      </trkpt>
      <trkpt lat="46.87964" lon="-2.10622">
        <ele>1.7</ele>
        <time>2020-06-04T12:39:10Z</time>
      </trkpt>
      <trkpt lat="46.8796" lon="-2.10617">
        <ele>1.7</ele>
        <time>2020-06-04T12:39:11Z</time>
      </trkpt>
      <trkpt lat="46.87956" lon="-2.10612">
        <ele>1.7</ele>
        <time>2020-06-04T12:39:12Z</time>
      </trkpt>
      <trkpt lat="46.87951" lon="-2.10606">
        <ele>1.7</ele>
        <time>2020-06-04T12:39:13Z</time>
      </trkpt>
      <trkpt lat="46.87947" lon="-2.10601">
        <ele>1.6</ele>
        <time>2020-06-04T12:39:14Z</time>
      </trkpt>
      <trkpt lat="46.87942" lon="-2.10596">
        <ele>1.6</ele>
        <time>2020-06-04T12:39:15Z</time>
      </trkpt>
      <trkpt lat="46.87938" lon="-2.10591">
        <ele>1.6</ele>
        <time>2020-06-04T12:39:16Z</time>
      </trkpt>
      <trkpt lat="46.87934" lon="-2.10585">
        <ele>1.6</ele>
        <time>2020-06-04T12:39:17Z</time>
      </trkpt>
      <trkpt lat="46.8793" lon="-2.1058">
        <ele>1.6</ele>
        <time>2020-06-04T12:39:18Z</time>
      </trkpt>
      <trkpt lat="46.87926" lon="-2.10575">
        <ele>1.6</ele>
        <time>2020-06-04T12:39:19Z</time>
      </trkpt>
      <trkpt lat="46.87922" lon="-2.10571">
        <ele>1.6</ele>
        <time>2020-06-04T12:39:20Z</time>
      </trkpt>
      <trkpt lat="46.87918" lon="-2.10566">
        <ele>1.6</ele>
        <time>2020-06-04T12:39:21Z</time>
      </trkpt>
      <trkpt lat="46.87914" lon="-2.10561">
        <ele>1.6</ele>
        <time>2020-06-04T12:39:22Z</time>
      </trkpt>
      <trkpt lat="46.8791" lon="-2.10558">
        <ele>1.6</ele>
        <time>2020-06-04T12:39:23Z</time>
      </trkpt>
      <trkpt lat="46.87906" lon="-2.10554">
        <ele>1.6</ele>
        <time>2020-06-04T12:39:24Z</time>
      </trkpt>
      <trkpt lat="46.87903" lon="-2.1055">
        <ele>1.6</ele>
        <time>2020-06-04T12:39:25Z</time>
      </trkpt>
      <trkpt lat="46.87899" lon="-2.10544">
        <ele>1.6</ele>
        <time>2020-06-04T12:39:26Z</time>
      </trkpt>
      <trkpt lat="46.87896" lon="-2.10539">
        <ele>1.5</ele>
        <time>2020-06-04T12:39:27Z</time>
      </trkpt>
      <trkpt lat="46.87892" lon="-2.10535">
        <ele>1.5</ele>
        <time>2020-06-04T12:39:28Z</time>
      </trkpt>
      <trkpt lat="46.87889" lon="-2.10531">
        <ele>1.5</ele>
        <time>2020-06-04T12:39:29Z</time>
      </trkpt>
      <trkpt lat="46.87885" lon="-2.10527">
        <ele>1.5</ele>
        <time>2020-06-04T12:39:30Z</time>
      </trkpt>
      <trkpt lat="46.87882" lon="-2.10522">
        <ele>1.5</ele>
        <time>2020-06-04T12:39:31Z</time>
      </trkpt>
      <trkpt lat="46.87878" lon="-2.10517">
        <ele>1.5</ele>
        <time>2020-06-04T12:39:32Z</time>
      </trkpt>
      <trkpt lat="46.87874" lon="-2.10512">
        <ele>1.5</ele>
        <time>2020-06-04T12:39:33Z</time>
      </trkpt>
      <trkpt lat="46.8787" lon="-2.10507">
        <ele>1.5</ele>
        <time>2020-06-04T12:39:34Z</time>
      </trkpt>
      <trkpt lat="46.87866" lon="-2.10501">
        <ele>1.5</ele>
        <time>2020-06-04T12:39:35Z</time>
      </trkpt>
      <trkpt lat="46.87863" lon="-2.10496">
        <ele>1.5</ele>
        <time>2020-06-04T12:39:36Z</time>
      </trkpt>
      <trkpt lat="46.87859" lon="-2.1049">
        <ele>1.5</ele>
        <time>2020-06-04T12:39:37Z</time>
      </trkpt>
      <trkpt lat="46.87855" lon="-2.10485">
        <ele>1.5</ele>
        <time>2020-06-04T12:39:38Z</time>
      </trkpt>
      <trkpt lat="46.87851" lon="-2.1048">
        <ele>1.5</ele>
        <time>2020-06-04T12:39:39Z</time>
      </trkpt>
      <trkpt lat="46.87847" lon="-2.10475">
        <ele>1.4</ele>
        <time>2020-06-04T12:39:40Z</time>
      </trkpt>
      <trkpt lat="46.87844" lon="-2.10471">
        <ele>1.4</ele>
        <time>2020-06-04T12:39:41Z</time>
      </trkpt>
      <trkpt lat="46.8784" lon="-2.10465">
        <ele>1.4</ele>
        <time>2020-06-04T12:39:42Z</time>
      </trkpt>
      <trkpt lat="46.87837" lon="-2.10463">
        <ele>1.4</ele>
        <time>2020-06-04T12:39:43Z</time>
      </trkpt>
      <trkpt lat="46.87834" lon="-2.1046">
        <ele>1.4</ele>
        <time>2020-06-04T12:39:44Z</time>
      </trkpt>
      <trkpt lat="46.87831" lon="-2.10457">
        <ele>1.4</ele>
        <time>2020-06-04T12:39:45Z</time>
      </trkpt>
      <trkpt lat="46.8783" lon="-2.10456">
        <ele>1.4</ele>
        <time>2020-06-04T12:39:46Z</time>
      </trkpt>
      <trkpt lat="46.87827" lon="-2.10453">
        <ele>1.4</ele>
        <time>2020-06-04T12:39:47Z</time>
      </trkpt>
      <trkpt lat="46.87826" lon="-2.10453">
        <ele>1.4</ele>
        <time>2020-06-04T12:39:48Z</time>
      </trkpt>
      <trkpt lat="46.87823" lon="-2.10451">
        <ele>1.4</ele>
        <time>2020-06-04T12:39:49Z</time>
      </trkpt>
      <trkpt lat="46.87819" lon="-2.10448">
        <ele>1.4</ele>
        <time>2020-06-04T12:39:50Z</time>
      </trkpt>
      <trkpt lat="46.87815" lon="-2.10445">
        <ele>1.4</ele>
        <time>2020-06-04T12:39:51Z</time>
      </trkpt>
      <trkpt lat="46.87809" lon="-2.10444">
        <ele>1.4</ele>
        <time>2020-06-04T12:39:52Z</time>
      </trkpt>
      <trkpt lat="46.87803" lon="-2.10445">
        <ele>1.4</ele>
        <time>2020-06-04T12:39:53Z</time>
      </trkpt>
      <trkpt lat="46.87797" lon="-2.10445">
        <ele>1.4</ele>
        <time>2020-06-04T12:39:54Z</time>
      </trkpt>
      <trkpt lat="46.87791" lon="-2.10446">
        <ele>1.4</ele>
        <time>2020-06-04T12:39:55Z</time>
      </trkpt>
      <trkpt lat="46.87786" lon="-2.10447">
        <ele>1.4</ele>
        <time>2020-06-04T12:39:56Z</time>
      </trkpt>
      <trkpt lat="46.8778" lon="-2.10448">
        <ele>1.4</ele>
        <time>2020-06-04T12:39:57Z</time>
      </trkpt>
      <trkpt lat="46.87775" lon="-2.10449">
        <ele>1.4</ele>
        <time>2020-06-04T12:39:58Z</time>
      </trkpt>
      <trkpt lat="46.87769" lon="-2.1045">
        <ele>1.4</ele>
        <time>2020-06-04T12:39:59Z</time>
      </trkpt>
      <trkpt lat="46.87763" lon="-2.10451">
        <ele>1.4</ele>
        <time>2020-06-04T12:40:00Z</time>
      </trkpt>
      <trkpt lat="46.87757" lon="-2.10451">
        <ele>1.4</ele>
        <time>2020-06-04T12:40:01Z</time>
      </trkpt>
      <trkpt lat="46.87751" lon="-2.10451">
        <ele>1.4</ele>
        <time>2020-06-04T12:40:02Z</time>
      </trkpt>
      <trkpt lat="46.87746" lon="-2.1045">
        <ele>1.4</ele>
        <time>2020-06-04T12:40:03Z</time>
      </trkpt>
      <trkpt lat="46.8774" lon="-2.1045">
        <ele>1.4</ele>
        <time>2020-06-04T12:40:04Z</time>
      </trkpt>
      <trkpt lat="46.87734" lon="-2.10451">
        <ele>1.4</ele>
        <time>2020-06-04T12:40:05Z</time>
      </trkpt>
      <trkpt lat="46.87728" lon="-2.10451">
        <ele>1.4</ele>
        <time>2020-06-04T12:40:06Z</time>
      </trkpt>
      <trkpt lat="46.87723" lon="-2.10452">
        <ele>1.4</ele>
        <time>2020-06-04T12:40:07Z</time>
      </trkpt>
      <trkpt lat="46.87716" lon="-2.10455">
        <ele>1.5</ele>
        <time>2020-06-04T12:40:08Z</time>
      </trkpt>
      <trkpt lat="46.8771" lon="-2.10457">
        <ele>1.5</ele>
        <time>2020-06-04T12:40:09Z</time>
      </trkpt>
      <trkpt lat="46.87704" lon="-2.10461">
        <ele>1.5</ele>
        <time>2020-06-04T12:40:10Z</time>
      </trkpt>
      <trkpt lat="46.87699" lon="-2.10464">
        <ele>1.4</ele>
        <time>2020-06-04T12:40:11Z</time>
      </trkpt>
      <trkpt lat="46.87693" lon="-2.10468">
        <ele>1.4</ele>
        <time>2020-06-04T12:40:12Z</time>
      </trkpt>
      <trkpt lat="46.87688" lon="-2.10472">
        <ele>1.3</ele>
        <time>2020-06-04T12:40:13Z</time>
      </trkpt>
      <trkpt lat="46.87681" lon="-2.10474">
        <ele>1.3</ele>
        <time>2020-06-04T12:40:14Z</time>
      </trkpt>
      <trkpt lat="46.87675" lon="-2.10475">
        <ele>1.2</ele>
        <time>2020-06-04T12:40:15Z</time>
      </trkpt>
      <trkpt lat="46.87669" lon="-2.10476">
        <ele>1.2</ele>
        <time>2020-06-04T12:40:16Z</time>
      </trkpt>
      <trkpt lat="46.87662" lon="-2.10477">
        <ele>1.1</ele>
        <time>2020-06-04T12:40:17Z</time>
      </trkpt>
      <trkpt lat="46.87656" lon="-2.10477">
        <ele>1.1</ele>
        <time>2020-06-04T12:40:18Z</time>
      </trkpt>
      <trkpt lat="46.87649" lon="-2.10476">
        <ele>1.1</ele>
        <time>2020-06-04T12:40:19Z</time>
      </trkpt>
      <trkpt lat="46.87643" lon="-2.10475">
        <ele>1.1</ele>
        <time>2020-06-04T12:40:20Z</time>
      </trkpt>
      <trkpt lat="46.87637" lon="-2.10475">
        <ele>1</ele>
        <time>2020-06-04T12:40:21Z</time>
      </trkpt>
      <trkpt lat="46.87631" lon="-2.10474">
        <ele>1</ele>
        <time>2020-06-04T12:40:22Z</time>
      </trkpt>
      <trkpt lat="46.87624" lon="-2.10473">
        <ele>1</ele>
        <time>2020-06-04T12:40:23Z</time>
      </trkpt>
      <trkpt lat="46.87617" lon="-2.10471">
        <ele>1</ele>
        <time>2020-06-04T12:40:24Z</time>
      </trkpt>
      <trkpt lat="46.8761" lon="-2.10471">
        <ele>1</ele>
        <time>2020-06-04T12:40:25Z</time>
      </trkpt>
      <trkpt lat="46.87603" lon="-2.1047">
        <ele>0.9</ele>
        <time>2020-06-04T12:40:26Z</time>
      </trkpt>
      <trkpt lat="46.87596" lon="-2.10469">
        <ele>0.9</ele>
        <time>2020-06-04T12:40:27Z</time>
      </trkpt>
      <trkpt lat="46.87589" lon="-2.10469">
        <ele>0.9</ele>
        <time>2020-06-04T12:40:28Z</time>
      </trkpt>
      <trkpt lat="46.87582" lon="-2.10468">
        <ele>0.9</ele>
        <time>2020-06-04T12:40:29Z</time>
      </trkpt>
      <trkpt lat="46.87575" lon="-2.10467">
        <ele>0.8</ele>
        <time>2020-06-04T12:40:30Z</time>
      </trkpt>
      <trkpt lat="46.87568" lon="-2.10465">
        <ele>0.8</ele>
        <time>2020-06-04T12:40:31Z</time>
      </trkpt>
      <trkpt lat="46.87562" lon="-2.10464">
        <ele>0.8</ele>
        <time>2020-06-04T12:40:32Z</time>
      </trkpt>
      <trkpt lat="46.87555" lon="-2.10463">
        <ele>0.8</ele>
        <time>2020-06-04T12:40:33Z</time>
      </trkpt>
      <trkpt lat="46.87549" lon="-2.10462">
        <ele>0.9</ele>
        <time>2020-06-04T12:40:34Z</time>
      </trkpt>
      <trkpt lat="46.87543" lon="-2.10462">
        <ele>0.9</ele>
        <time>2020-06-04T12:40:35Z</time>
      </trkpt>
      <trkpt lat="46.87536" lon="-2.10461">
        <ele>0.9</ele>
        <time>2020-06-04T12:40:36Z</time>
      </trkpt>
      <trkpt lat="46.8753" lon="-2.10459">
        <ele>0.9</ele>
        <time>2020-06-04T12:40:37Z</time>
      </trkpt>
      <trkpt lat="46.87524" lon="-2.10456">
        <ele>0.9</ele>
        <time>2020-06-04T12:40:38Z</time>
      </trkpt>
      <trkpt lat="46.87519" lon="-2.10454">
        <ele>1</ele>
        <time>2020-06-04T12:40:39Z</time>
      </trkpt>
      <trkpt lat="46.87513" lon="-2.10451">
        <ele>1</ele>
        <time>2020-06-04T12:40:40Z</time>
      </trkpt>
      <trkpt lat="46.87507" lon="-2.10446">
        <ele>1</ele>
        <time>2020-06-04T12:40:41Z</time>
      </trkpt>
      <trkpt lat="46.87502" lon="-2.10442">
        <ele>1</ele>
        <time>2020-06-04T12:40:42Z</time>
      </trkpt>
      <trkpt lat="46.87496" lon="-2.10438">
        <ele>1</ele>
        <time>2020-06-04T12:40:43Z</time>
      </trkpt>
      <trkpt lat="46.8749" lon="-2.10434">
        <ele>1.1</ele>
        <time>2020-06-04T12:40:44Z</time>
      </trkpt>
      <trkpt lat="46.87484" lon="-2.10431">
        <ele>1.1</ele>
        <time>2020-06-04T12:40:45Z</time>
      </trkpt>
      <trkpt lat="46.87478" lon="-2.10429">
        <ele>1.1</ele>
        <time>2020-06-04T12:40:46Z</time>
      </trkpt>
      <trkpt lat="46.87471" lon="-2.10427">
        <ele>1.1</ele>
        <time>2020-06-04T12:40:47Z</time>
      </trkpt>
      <trkpt lat="46.87465" lon="-2.10426">
        <ele>1.2</ele>
        <time>2020-06-04T12:40:48Z</time>
      </trkpt>
      <trkpt lat="46.87458" lon="-2.10426">
        <ele>1.2</ele>
        <time>2020-06-04T12:40:49Z</time>
      </trkpt>
      <trkpt lat="46.87451" lon="-2.10424">
        <ele>1.2</ele>
        <time>2020-06-04T12:40:50Z</time>
      </trkpt>
      <trkpt lat="46.87445" lon="-2.10422">
        <ele>1.3</ele>
        <time>2020-06-04T12:40:51Z</time>
      </trkpt>
      <trkpt lat="46.87439" lon="-2.10418">
        <ele>1.3</ele>
        <time>2020-06-04T12:40:52Z</time>
      </trkpt>
      <trkpt lat="46.87433" lon="-2.10413">
        <ele>1.3</ele>
        <time>2020-06-04T12:40:53Z</time>
      </trkpt>
      <trkpt lat="46.87427" lon="-2.10408">
        <ele>1.4</ele>
        <time>2020-06-04T12:40:54Z</time>
      </trkpt>
      <trkpt lat="46.87422" lon="-2.10403">
        <ele>1.4</ele>
        <time>2020-06-04T12:40:55Z</time>
      </trkpt>
      <trkpt lat="46.87416" lon="-2.10397">
        <ele>1.4</ele>
        <time>2020-06-04T12:40:56Z</time>
      </trkpt>
      <trkpt lat="46.8741" lon="-2.10393">
        <ele>1.4</ele>
        <time>2020-06-04T12:40:57Z</time>
      </trkpt>
      <trkpt lat="46.87405" lon="-2.10389">
        <ele>1.4</ele>
        <time>2020-06-04T12:40:58Z</time>
      </trkpt>
      <trkpt lat="46.87399" lon="-2.10388">
        <ele>1.5</ele>
        <time>2020-06-04T12:40:59Z</time>
      </trkpt>
      <trkpt lat="46.87392" lon="-2.10385">
        <ele>1.5</ele>
        <time>2020-06-04T12:41:00Z</time>
      </trkpt>
      <trkpt lat="46.87386" lon="-2.10383">
        <ele>1.5</ele>
        <time>2020-06-04T12:41:01Z</time>
      </trkpt>
      <trkpt lat="46.87381" lon="-2.10379">
        <ele>1.5</ele>
        <time>2020-06-04T12:41:02Z</time>
      </trkpt>
      <trkpt lat="46.87375" lon="-2.10375">
        <ele>1.5</ele>
        <time>2020-06-04T12:41:03Z</time>
      </trkpt>
      <trkpt lat="46.87369" lon="-2.10371">
        <ele>1.5</ele>
        <time>2020-06-04T12:41:04Z</time>
      </trkpt>
      <trkpt lat="46.87363" lon="-2.10368">
        <ele>1.5</ele>
        <time>2020-06-04T12:41:05Z</time>
      </trkpt>
      <trkpt lat="46.87357" lon="-2.10365">
        <ele>1.4</ele>
        <time>2020-06-04T12:41:06Z</time>
      </trkpt>
      <trkpt lat="46.87352" lon="-2.10362">
        <ele>1.3</ele>
        <time>2020-06-04T12:41:07Z</time>
      </trkpt>
      <trkpt lat="46.87346" lon="-2.10359">
        <ele>1.2</ele>
        <time>2020-06-04T12:41:08Z</time>
      </trkpt>
      <trkpt lat="46.8734" lon="-2.10358">
        <ele>1.2</ele>
        <time>2020-06-04T12:41:09Z</time>
      </trkpt>
      <trkpt lat="46.87335" lon="-2.10358">
        <ele>1.2</ele>
        <time>2020-06-04T12:41:10Z</time>
      </trkpt>
      <trkpt lat="46.8733" lon="-2.10359">
        <ele>1.2</ele>
        <time>2020-06-04T12:41:11Z</time>
      </trkpt>
      <trkpt lat="46.87326" lon="-2.10359">
        <ele>1.2</ele>
        <time>2020-06-04T12:41:12Z</time>
      </trkpt>
      <trkpt lat="46.87322" lon="-2.10358">
        <ele>1.2</ele>
        <time>2020-06-04T12:41:13Z</time>
      </trkpt>
      <trkpt lat="46.8732" lon="-2.10357">
        <ele>1.2</ele>
        <time>2020-06-04T12:41:14Z</time>
      </trkpt>
      <trkpt lat="46.87316" lon="-2.10355">
        <ele>1.3</ele>
        <time>2020-06-04T12:41:15Z</time>
      </trkpt>
      <trkpt lat="46.87315" lon="-2.10355">
        <ele>1.3</ele>
        <time>2020-06-04T12:41:16Z</time>
      </trkpt>
      <trkpt lat="46.87312" lon="-2.10354">
        <ele>1.3</ele>
        <time>2020-06-04T12:41:17Z</time>
      </trkpt>
      <trkpt lat="46.87311" lon="-2.10354">
        <ele>1.3</ele>
        <time>2020-06-04T12:41:18Z</time>
      </trkpt>
      <trkpt lat="46.87307" lon="-2.10354">
        <ele>1.3</ele>
        <time>2020-06-04T12:41:19Z</time>
      </trkpt>
      <trkpt lat="46.87306" lon="-2.10354">
        <ele>1.3</ele>
        <time>2020-06-04T12:41:20Z</time>
      </trkpt>
      <trkpt lat="46.87304" lon="-2.10354">
        <ele>1.3</ele>
        <time>2020-06-04T12:41:21Z</time>
      </trkpt>
      <trkpt lat="46.87303" lon="-2.10353">
        <ele>1.3</ele>
        <time>2020-06-04T12:41:22Z</time>
      </trkpt>
      <trkpt lat="46.87304" lon="-2.10352">
        <ele>1.3</ele>
        <time>2020-06-04T12:41:23Z</time>
      </trkpt>
      <trkpt lat="46.87305" lon="-2.10352">
        <ele>1.3</ele>
        <time>2020-06-04T12:41:24Z</time>
      </trkpt>
      <trkpt lat="46.87306" lon="-2.10351">
        <ele>1.3</ele>
        <time>2020-06-04T12:41:25Z</time>
      </trkpt>
      <trkpt lat="46.87307" lon="-2.10351">
        <ele>1.3</ele>
        <time>2020-06-04T12:41:26Z</time>
      </trkpt>
      <trkpt lat="46.87308" lon="-2.10351">
        <ele>1.3</ele>
        <time>2020-06-04T12:41:27Z</time>
      </trkpt>
      <trkpt lat="46.8731" lon="-2.1035">
        <ele>1.3</ele>
        <time>2020-06-04T12:41:28Z</time>
      </trkpt>
      <trkpt lat="46.87312" lon="-2.1035">
        <ele>1.3</ele>
        <time>2020-06-04T12:41:29Z</time>
      </trkpt>
      <trkpt lat="46.87313" lon="-2.1035">
        <ele>1.3</ele>
        <time>2020-06-04T12:41:30Z</time>
      </trkpt>
      <trkpt lat="46.87317" lon="-2.10351">
        <ele>1.3</ele>
        <time>2020-06-04T12:41:31Z</time>
      </trkpt>
      <trkpt lat="46.87319" lon="-2.10352">
        <ele>1.3</ele>
        <time>2020-06-04T12:41:32Z</time>
      </trkpt>
      <trkpt lat="46.87321" lon="-2.10353">
        <ele>1.3</ele>
        <time>2020-06-04T12:41:33Z</time>
      </trkpt>
      <trkpt lat="46.87324" lon="-2.10353">
        <ele>1.3</ele>
        <time>2020-06-04T12:41:34Z</time>
      </trkpt>
      <trkpt lat="46.87327" lon="-2.10354">
        <ele>1.3</ele>
        <time>2020-06-04T12:41:35Z</time>
      </trkpt>
      <trkpt lat="46.8733" lon="-2.10354">
        <ele>1.3</ele>
        <time>2020-06-04T12:41:36Z</time>
      </trkpt>
      <trkpt lat="46.87333" lon="-2.10355">
        <ele>1.3</ele>
        <time>2020-06-04T12:41:37Z</time>
      </trkpt>
      <trkpt lat="46.87336" lon="-2.10356">
        <ele>1.3</ele>
        <time>2020-06-04T12:41:38Z</time>
      </trkpt>
      <trkpt lat="46.87337" lon="-2.10356">
        <ele>1.3</ele>
        <time>2020-06-04T12:41:39Z</time>
      </trkpt>
      <trkpt lat="46.87338" lon="-2.10358">
        <ele>1.3</ele>
        <time>2020-06-04T12:41:40Z</time>
      </trkpt>
      <trkpt lat="46.87339" lon="-2.10359">
        <ele>1.3</ele>
        <time>2020-06-04T12:41:41Z</time>
      </trkpt>
      <trkpt lat="46.8734" lon="-2.1036">
        <ele>1.3</ele>
        <time>2020-06-04T12:41:42Z</time>
      </trkpt>
      <trkpt lat="46.8734" lon="-2.10363">
        <ele>1.4</ele>
        <time>2020-06-04T12:41:43Z</time>
      </trkpt>
      <trkpt lat="46.8734" lon="-2.10366">
        <ele>1.4</ele>
        <time>2020-06-04T12:41:44Z</time>
      </trkpt>
      <trkpt lat="46.87339" lon="-2.10367">
        <ele>1.4</ele>
        <time>2020-06-04T12:41:45Z</time>
      </trkpt>
      <trkpt lat="46.87336" lon="-2.10363">
        <ele>1.4</ele>
        <time>2020-06-04T12:41:46Z</time>
      </trkpt>
      <trkpt lat="46.87335" lon="-2.10362">
        <ele>1.4</ele>
        <time>2020-06-04T12:41:47Z</time>
      </trkpt>
      <trkpt lat="46.87332" lon="-2.10359">
        <ele>1.4</ele>
        <time>2020-06-04T12:41:48Z</time>
      </trkpt>
      <trkpt lat="46.87331" lon="-2.10359">
        <ele>1.4</ele>
        <time>2020-06-04T12:41:49Z</time>
      </trkpt>
      <trkpt lat="46.87328" lon="-2.10358">
        <ele>1.4</ele>
        <time>2020-06-04T12:41:50Z</time>
      </trkpt>
      <trkpt lat="46.87325" lon="-2.10358">
        <ele>1.4</ele>
        <time>2020-06-04T12:41:51Z</time>
      </trkpt>
      <trkpt lat="46.87322" lon="-2.10357">
        <ele>1.4</ele>
        <time>2020-06-04T12:41:52Z</time>
      </trkpt>
      <trkpt lat="46.87319" lon="-2.10357">
        <ele>1.4</ele>
        <time>2020-06-04T12:41:53Z</time>
      </trkpt>
      <trkpt lat="46.87316" lon="-2.10357">
        <ele>1.4</ele>
        <time>2020-06-04T12:41:54Z</time>
      </trkpt>
      <trkpt lat="46.87312" lon="-2.10358">
        <ele>1.4</ele>
        <time>2020-06-04T12:41:55Z</time>
      </trkpt>
      <trkpt lat="46.87308" lon="-2.10358">
        <ele>1.4</ele>
        <time>2020-06-04T12:41:56Z</time>
      </trkpt>
      <trkpt lat="46.87305" lon="-2.10357">
        <ele>1.4</ele>
        <time>2020-06-04T12:41:57Z</time>
      </trkpt>
      <trkpt lat="46.87301" lon="-2.10357">
        <ele>1.4</ele>
        <time>2020-06-04T12:41:58Z</time>
      </trkpt>
      <trkpt lat="46.87296" lon="-2.10356">
        <ele>1.4</ele>
        <time>2020-06-04T12:41:59Z</time>
      </trkpt>
      <trkpt lat="46.87292" lon="-2.10356">
        <ele>1.5</ele>
        <time>2020-06-04T12:42:00Z</time>
      </trkpt>
      <trkpt lat="46.87288" lon="-2.10355">
        <ele>1.5</ele>
        <time>2020-06-04T12:42:01Z</time>
      </trkpt>
      <trkpt lat="46.87284" lon="-2.10355">
        <ele>1.5</ele>
        <time>2020-06-04T12:42:02Z</time>
      </trkpt>
      <trkpt lat="46.8728" lon="-2.10354">
        <ele>1.5</ele>
        <time>2020-06-04T12:42:03Z</time>
      </trkpt>
      <trkpt lat="46.87275" lon="-2.10354">
        <ele>1.5</ele>
        <time>2020-06-04T12:42:04Z</time>
      </trkpt>
      <trkpt lat="46.87271" lon="-2.10353">
        <ele>1.6</ele>
        <time>2020-06-04T12:42:05Z</time>
      </trkpt>
      <trkpt lat="46.87267" lon="-2.10352">
        <ele>1.6</ele>
        <time>2020-06-04T12:42:06Z</time>
      </trkpt>
      <trkpt lat="46.87263" lon="-2.10351">
        <ele>1.6</ele>
        <time>2020-06-04T12:42:07Z</time>
      </trkpt>
      <trkpt lat="46.87259" lon="-2.10351">
        <ele>1.6</ele>
        <time>2020-06-04T12:42:08Z</time>
      </trkpt>
      <trkpt lat="46.87255" lon="-2.1035">
        <ele>1.6</ele>
        <time>2020-06-04T12:42:09Z</time>
      </trkpt>
      <trkpt lat="46.8725" lon="-2.1035">
        <ele>1.7</ele>
        <time>2020-06-04T12:42:10Z</time>
      </trkpt>
      <trkpt lat="46.87245" lon="-2.10349">
        <ele>1.7</ele>
        <time>2020-06-04T12:42:11Z</time>
      </trkpt>
      <trkpt lat="46.8724" lon="-2.10348">
        <ele>1.7</ele>
        <time>2020-06-04T12:42:12Z</time>
      </trkpt>
      <trkpt lat="46.87235" lon="-2.10347">
        <ele>1.7</ele>
        <time>2020-06-04T12:42:13Z</time>
      </trkpt>
      <trkpt lat="46.8723" lon="-2.10346">
        <ele>1.7</ele>
        <time>2020-06-04T12:42:14Z</time>
      </trkpt>
      <trkpt lat="46.87225" lon="-2.10344">
        <ele>1.8</ele>
        <time>2020-06-04T12:42:15Z</time>
      </trkpt>
      <trkpt lat="46.8722" lon="-2.10342">
        <ele>1.8</ele>
        <time>2020-06-04T12:42:16Z</time>
      </trkpt>
      <trkpt lat="46.87215" lon="-2.10341">
        <ele>1.8</ele>
        <time>2020-06-04T12:42:17Z</time>
      </trkpt>
      <trkpt lat="46.8721" lon="-2.10339">
        <ele>1.8</ele>
        <time>2020-06-04T12:42:18Z</time>
      </trkpt>
      <trkpt lat="46.87205" lon="-2.10336">
        <ele>1.8</ele>
        <time>2020-06-04T12:42:19Z</time>
      </trkpt>
      <trkpt lat="46.872" lon="-2.10335">
        <ele>1.8</ele>
        <time>2020-06-04T12:42:20Z</time>
      </trkpt>
      <trkpt lat="46.87196" lon="-2.10334">
        <ele>1.8</ele>
        <time>2020-06-04T12:42:21Z</time>
      </trkpt>
      <trkpt lat="46.87191" lon="-2.10331">
        <ele>1.8</ele>
        <time>2020-06-04T12:42:22Z</time>
      </trkpt>
      <trkpt lat="46.87186" lon="-2.1033">
        <ele>1.8</ele>
        <time>2020-06-04T12:42:23Z</time>
      </trkpt>
      <trkpt lat="46.87181" lon="-2.10328">
        <ele>1.8</ele>
        <time>2020-06-04T12:42:24Z</time>
      </trkpt>
      <trkpt lat="46.87176" lon="-2.10324">
        <ele>1.9</ele>
        <time>2020-06-04T12:42:25Z</time>
      </trkpt>
      <trkpt lat="46.87171" lon="-2.10319">
        <ele>1.9</ele>
        <time>2020-06-04T12:42:26Z</time>
      </trkpt>
      <trkpt lat="46.8717" lon="-2.10311">
        <ele>1.9</ele>
        <time>2020-06-04T12:42:27Z</time>
      </trkpt>
      <trkpt lat="46.87169" lon="-2.10304">
        <ele>1.9</ele>
        <time>2020-06-04T12:42:28Z</time>
      </trkpt>
      <trkpt lat="46.87169" lon="-2.10295">
        <ele>1.9</ele>
        <time>2020-06-04T12:42:29Z</time>
      </trkpt>
      <trkpt lat="46.87169" lon="-2.10287">
        <ele>1.9</ele>
        <time>2020-06-04T12:42:30Z</time>
      </trkpt>
      <trkpt lat="46.87169" lon="-2.10279">
        <ele>1.9</ele>
        <time>2020-06-04T12:42:31Z</time>
      </trkpt>
      <trkpt lat="46.87169" lon="-2.10271">
        <ele>1.9</ele>
        <time>2020-06-04T12:42:32Z</time>
      </trkpt>
      <trkpt lat="46.87169" lon="-2.10262">
        <ele>1.9</ele>
        <time>2020-06-04T12:42:33Z</time>
      </trkpt>
      <trkpt lat="46.87169" lon="-2.10254">
        <ele>1.9</ele>
        <time>2020-06-04T12:42:34Z</time>
      </trkpt>
      <trkpt lat="46.87168" lon="-2.10246">
        <ele>1.9</ele>
        <time>2020-06-04T12:42:35Z</time>
      </trkpt>
      <trkpt lat="46.87167" lon="-2.10237">
        <ele>1.9</ele>
        <time>2020-06-04T12:42:36Z</time>
      </trkpt>
      <trkpt lat="46.87166" lon="-2.10229">
        <ele>1.9</ele>
        <time>2020-06-04T12:42:37Z</time>
      </trkpt>
      <trkpt lat="46.87165" lon="-2.10221">
        <ele>1.9</ele>
        <time>2020-06-04T12:42:38Z</time>
      </trkpt>
      <trkpt lat="46.87163" lon="-2.10214">
        <ele>2</ele>
        <time>2020-06-04T12:42:39Z</time>
      </trkpt>
      <trkpt lat="46.87161" lon="-2.10207">
        <ele>2</ele>
        <time>2020-06-04T12:42:40Z</time>
      </trkpt>
      <trkpt lat="46.87159" lon="-2.10199">
        <ele>2</ele>
        <time>2020-06-04T12:42:41Z</time>
      </trkpt>
      <trkpt lat="46.87157" lon="-2.10192">
        <ele>2</ele>
        <time>2020-06-04T12:42:42Z</time>
      </trkpt>
      <trkpt lat="46.87156" lon="-2.10184">
        <ele>2</ele>
        <time>2020-06-04T12:42:43Z</time>
      </trkpt>
      <trkpt lat="46.87154" lon="-2.10177">
        <ele>2</ele>
        <time>2020-06-04T12:42:44Z</time>
      </trkpt>
      <trkpt lat="46.87152" lon="-2.10169">
        <ele>2</ele>
        <time>2020-06-04T12:42:45Z</time>
      </trkpt>
      <trkpt lat="46.8715" lon="-2.10162">
        <ele>2</ele>
        <time>2020-06-04T12:42:46Z</time>
      </trkpt>
      <trkpt lat="46.87147" lon="-2.10154">
        <ele>2.1</ele>
        <time>2020-06-04T12:42:47Z</time>
      </trkpt>
      <trkpt lat="46.87145" lon="-2.10146">
        <ele>2.1</ele>
        <time>2020-06-04T12:42:48Z</time>
      </trkpt>
      <trkpt lat="46.87143" lon="-2.10139">
        <ele>2.2</ele>
        <time>2020-06-04T12:42:49Z</time>
      </trkpt>
      <trkpt lat="46.87141" lon="-2.10131">
        <ele>2.2</ele>
        <time>2020-06-04T12:42:50Z</time>
      </trkpt>
      <trkpt lat="46.87138" lon="-2.10124">
        <ele>2.2</ele>
        <time>2020-06-04T12:42:51Z</time>
      </trkpt>
      <trkpt lat="46.87135" lon="-2.10117">
        <ele>2.3</ele>
        <time>2020-06-04T12:42:52Z</time>
      </trkpt>
      <trkpt lat="46.87132" lon="-2.10111">
        <ele>2.3</ele>
        <time>2020-06-04T12:42:53Z</time>
      </trkpt>
      <trkpt lat="46.87128" lon="-2.10104">
        <ele>2.3</ele>
        <time>2020-06-04T12:42:54Z</time>
      </trkpt>
      <trkpt lat="46.87126" lon="-2.10097">
        <ele>2.3</ele>
        <time>2020-06-04T12:42:55Z</time>
      </trkpt>
      <trkpt lat="46.87124" lon="-2.10091">
        <ele>2.3</ele>
        <time>2020-06-04T12:42:56Z</time>
      </trkpt>
      <trkpt lat="46.87122" lon="-2.10084">
        <ele>2.3</ele>
        <time>2020-06-04T12:42:57Z</time>
      </trkpt>
      <trkpt lat="46.87123" lon="-2.10079">
        <ele>2.3</ele>
        <time>2020-06-04T12:42:58Z</time>
      </trkpt>
      <trkpt lat="46.87127" lon="-2.10074">
        <ele>2.3</ele>
        <time>2020-06-04T12:42:59Z</time>
      </trkpt>
      <trkpt lat="46.87131" lon="-2.10069">
        <ele>2.3</ele>
        <time>2020-06-04T12:43:00Z</time>
      </trkpt>
      <trkpt lat="46.87135" lon="-2.10063">
        <ele>2.3</ele>
        <time>2020-06-04T12:43:01Z</time>
      </trkpt>
      <trkpt lat="46.8714" lon="-2.10058">
        <ele>2.3</ele>
        <time>2020-06-04T12:43:02Z</time>
      </trkpt>
      <trkpt lat="46.87144" lon="-2.10053">
        <ele>2.3</ele>
        <time>2020-06-04T12:43:03Z</time>
      </trkpt>
      <trkpt lat="46.87148" lon="-2.10049">
        <ele>2.3</ele>
        <time>2020-06-04T12:43:04Z</time>
      </trkpt>
      <trkpt lat="46.87152" lon="-2.10044">
        <ele>2.3</ele>
        <time>2020-06-04T12:43:05Z</time>
      </trkpt>
      <trkpt lat="46.87156" lon="-2.10038">
        <ele>2.3</ele>
        <time>2020-06-04T12:43:06Z</time>
      </trkpt>
      <trkpt lat="46.8716" lon="-2.10033">
        <ele>2.3</ele>
        <time>2020-06-04T12:43:07Z</time>
      </trkpt>
      <trkpt lat="46.87163" lon="-2.10027">
        <ele>2.3</ele>
        <time>2020-06-04T12:43:08Z</time>
      </trkpt>
      <trkpt lat="46.87167" lon="-2.1002">
        <ele>2.3</ele>
        <time>2020-06-04T12:43:09Z</time>
      </trkpt>
      <trkpt lat="46.87171" lon="-2.10013">
        <ele>2.4</ele>
        <time>2020-06-04T12:43:10Z</time>
      </trkpt>
      <trkpt lat="46.87175" lon="-2.10006">
        <ele>2.5</ele>
        <time>2020-06-04T12:43:11Z</time>
      </trkpt>
      <trkpt lat="46.87178" lon="-2.1">
        <ele>2.6</ele>
        <time>2020-06-04T12:43:12Z</time>
      </trkpt>
      <trkpt lat="46.87182" lon="-2.09995">
        <ele>2.7</ele>
        <time>2020-06-04T12:43:13Z</time>
      </trkpt>
      <trkpt lat="46.87186" lon="-2.09989">
        <ele>2.8</ele>
        <time>2020-06-04T12:43:14Z</time>
      </trkpt>
      <trkpt lat="46.87189" lon="-2.09985">
        <ele>2.8</ele>
        <time>2020-06-04T12:43:15Z</time>
      </trkpt>
      <trkpt lat="46.87193" lon="-2.0998">
        <ele>2.9</ele>
        <time>2020-06-04T12:43:16Z</time>
      </trkpt>
      <trkpt lat="46.87197" lon="-2.09976">
        <ele>2.9</ele>
        <time>2020-06-04T12:43:17Z</time>
      </trkpt>
      <trkpt lat="46.87202" lon="-2.09973">
        <ele>2.9</ele>
        <time>2020-06-04T12:43:18Z</time>
      </trkpt>
      <trkpt lat="46.87208" lon="-2.0997">
        <ele>2.9</ele>
        <time>2020-06-04T12:43:19Z</time>
      </trkpt>
      <trkpt lat="46.87213" lon="-2.09968">
        <ele>3</ele>
        <time>2020-06-04T12:43:20Z</time>
      </trkpt>
      <trkpt lat="46.87217" lon="-2.09964">
        <ele>2.9</ele>
        <time>2020-06-04T12:43:21Z</time>
      </trkpt>
      <trkpt lat="46.87222" lon="-2.09962">
        <ele>2.9</ele>
        <time>2020-06-04T12:43:22Z</time>
      </trkpt>
      <trkpt lat="46.87227" lon="-2.09959">
        <ele>2.9</ele>
        <time>2020-06-04T12:43:23Z</time>
      </trkpt>
      <trkpt lat="46.87231" lon="-2.09956">
        <ele>2.9</ele>
        <time>2020-06-04T12:43:24Z</time>
      </trkpt>
      <trkpt lat="46.87236" lon="-2.09953">
        <ele>2.9</ele>
        <time>2020-06-04T12:43:25Z</time>
      </trkpt>
      <trkpt lat="46.87241" lon="-2.0995">
        <ele>2.9</ele>
        <time>2020-06-04T12:43:26Z</time>
      </trkpt>
      <trkpt lat="46.87245" lon="-2.09948">
        <ele>2.8</ele>
        <time>2020-06-04T12:43:27Z</time>
      </trkpt>
      <trkpt lat="46.8725" lon="-2.09946">
        <ele>2.8</ele>
        <time>2020-06-04T12:43:28Z</time>
      </trkpt>
      <trkpt lat="46.87255" lon="-2.09943">
        <ele>2.7</ele>
        <time>2020-06-04T12:43:29Z</time>
      </trkpt>
      <trkpt lat="46.87259" lon="-2.0994">
        <ele>2.7</ele>
        <time>2020-06-04T12:43:30Z</time>
      </trkpt>
      <trkpt lat="46.87264" lon="-2.09937">
        <ele>2.6</ele>
        <time>2020-06-04T12:43:31Z</time>
      </trkpt>
      <trkpt lat="46.87269" lon="-2.09934">
        <ele>2.6</ele>
        <time>2020-06-04T12:43:32Z</time>
      </trkpt>
      <trkpt lat="46.87273" lon="-2.0993">
        <ele>2.5</ele>
        <time>2020-06-04T12:43:33Z</time>
      </trkpt>
      <trkpt lat="46.87277" lon="-2.09926">
        <ele>2.5</ele>
        <time>2020-06-04T12:43:34Z</time>
      </trkpt>
      <trkpt lat="46.87279" lon="-2.09919">
        <ele>2.5</ele>
        <time>2020-06-04T12:43:35Z</time>
      </trkpt>
      <trkpt lat="46.87278" lon="-2.09911">
        <ele>2.4</ele>
        <time>2020-06-04T12:43:36Z</time>
      </trkpt>
      <trkpt lat="46.87274" lon="-2.09903">
        <ele>2.4</ele>
        <time>2020-06-04T12:43:37Z</time>
      </trkpt>
      <trkpt lat="46.8727" lon="-2.09895">
        <ele>2.4</ele>
        <time>2020-06-04T12:43:38Z</time>
      </trkpt>
      <trkpt lat="46.87265" lon="-2.09889">
        <ele>2.4</ele>
        <time>2020-06-04T12:43:39Z</time>
      </trkpt>
      <trkpt lat="46.8726" lon="-2.09884">
        <ele>2.4</ele>
        <time>2020-06-04T12:43:40Z</time>
      </trkpt>
      <trkpt lat="46.87254" lon="-2.09878">
        <ele>2.4</ele>
        <time>2020-06-04T12:43:41Z</time>
      </trkpt>
      <trkpt lat="46.87249" lon="-2.09873">
        <ele>2.4</ele>
        <time>2020-06-04T12:43:42Z</time>
      </trkpt>
      <trkpt lat="46.87243" lon="-2.09867">
        <ele>2.4</ele>
        <time>2020-06-04T12:43:43Z</time>
      </trkpt>
      <trkpt lat="46.87237" lon="-2.09862">
        <ele>2.4</ele>
        <time>2020-06-04T12:43:44Z</time>
      </trkpt>
      <trkpt lat="46.87231" lon="-2.09857">
        <ele>2.4</ele>
        <time>2020-06-04T12:43:45Z</time>
      </trkpt>
      <trkpt lat="46.87226" lon="-2.09852">
        <ele>2.3</ele>
        <time>2020-06-04T12:43:46Z</time>
      </trkpt>
      <trkpt lat="46.87221" lon="-2.09847">
        <ele>2.3</ele>
        <time>2020-06-04T12:43:47Z</time>
      </trkpt>
      <trkpt lat="46.87215" lon="-2.09842">
        <ele>2.3</ele>
        <time>2020-06-04T12:43:48Z</time>
      </trkpt>
      <trkpt lat="46.8721" lon="-2.09838">
        <ele>2.3</ele>
        <time>2020-06-04T12:43:49Z</time>
      </trkpt>
      <trkpt lat="46.87204" lon="-2.09831">
        <ele>2.3</ele>
        <time>2020-06-04T12:43:50Z</time>
      </trkpt>
      <trkpt lat="46.87198" lon="-2.09824">
        <ele>2.3</ele>
        <time>2020-06-04T12:43:51Z</time>
      </trkpt>
      <trkpt lat="46.87194" lon="-2.09818">
        <ele>2.3</ele>
        <time>2020-06-04T12:43:52Z</time>
      </trkpt>
      <trkpt lat="46.87189" lon="-2.09811">
        <ele>2.2</ele>
        <time>2020-06-04T12:43:53Z</time>
      </trkpt>
      <trkpt lat="46.87184" lon="-2.09806">
        <ele>2.2</ele>
        <time>2020-06-04T12:43:54Z</time>
      </trkpt>
      <trkpt lat="46.87179" lon="-2.09801">
        <ele>2.2</ele>
        <time>2020-06-04T12:43:55Z</time>
      </trkpt>
      <trkpt lat="46.87174" lon="-2.09795">
        <ele>2.2</ele>
        <time>2020-06-04T12:43:56Z</time>
      </trkpt>
      <trkpt lat="46.87169" lon="-2.0979">
        <ele>2.2</ele>
        <time>2020-06-04T12:43:57Z</time>
      </trkpt>
      <trkpt lat="46.87164" lon="-2.09784">
        <ele>2.2</ele>
        <time>2020-06-04T12:43:58Z</time>
      </trkpt>
      <trkpt lat="46.87159" lon="-2.09778">
        <ele>2.2</ele>
        <time>2020-06-04T12:43:59Z</time>
      </trkpt>
      <trkpt lat="46.87155" lon="-2.09772">
        <ele>2.2</ele>
        <time>2020-06-04T12:44:00Z</time>
      </trkpt>
      <trkpt lat="46.87151" lon="-2.09765">
        <ele>2.2</ele>
        <time>2020-06-04T12:44:01Z</time>
      </trkpt>
      <trkpt lat="46.87147" lon="-2.09758">
        <ele>2.2</ele>
        <time>2020-06-04T12:44:02Z</time>
      </trkpt>
      <trkpt lat="46.87143" lon="-2.09751">
        <ele>2.2</ele>
        <time>2020-06-04T12:44:03Z</time>
      </trkpt>
      <trkpt lat="46.87138" lon="-2.09743">
        <ele>2.2</ele>
        <time>2020-06-04T12:44:04Z</time>
      </trkpt>
      <trkpt lat="46.87135" lon="-2.09736">
        <ele>2.2</ele>
        <time>2020-06-04T12:44:05Z</time>
      </trkpt>
      <trkpt lat="46.87131" lon="-2.09728">
        <ele>2.2</ele>
        <time>2020-06-04T12:44:06Z</time>
      </trkpt>
      <trkpt lat="46.87127" lon="-2.09721">
        <ele>2.1</ele>
        <time>2020-06-04T12:44:07Z</time>
      </trkpt>
      <trkpt lat="46.87123" lon="-2.09712">
        <ele>2.1</ele>
        <time>2020-06-04T12:44:08Z</time>
      </trkpt>
      <trkpt lat="46.87119" lon="-2.09704">
        <ele>2.1</ele>
        <time>2020-06-04T12:44:09Z</time>
      </trkpt>
      <trkpt lat="46.87115" lon="-2.09695">
        <ele>2.1</ele>
        <time>2020-06-04T12:44:10Z</time>
      </trkpt>
      <trkpt lat="46.87112" lon="-2.09687">
        <ele>2.1</ele>
        <time>2020-06-04T12:44:11Z</time>
      </trkpt>
      <trkpt lat="46.8711" lon="-2.09679">
        <ele>2.1</ele>
        <time>2020-06-04T12:44:12Z</time>
      </trkpt>
      <trkpt lat="46.87106" lon="-2.0967">
        <ele>2.1</ele>
        <time>2020-06-04T12:44:13Z</time>
      </trkpt>
      <trkpt lat="46.87103" lon="-2.09663">
        <ele>2.1</ele>
        <time>2020-06-04T12:44:14Z</time>
      </trkpt>
      <trkpt lat="46.87099" lon="-2.09655">
        <ele>2.1</ele>
        <time>2020-06-04T12:44:15Z</time>
      </trkpt>
      <trkpt lat="46.87096" lon="-2.09647">
        <ele>2.2</ele>
        <time>2020-06-04T12:44:16Z</time>
      </trkpt>
      <trkpt lat="46.87092" lon="-2.0964">
        <ele>2.2</ele>
        <time>2020-06-04T12:44:17Z</time>
      </trkpt>
      <trkpt lat="46.87089" lon="-2.09632">
        <ele>2.2</ele>
        <time>2020-06-04T12:44:18Z</time>
      </trkpt>
      <trkpt lat="46.87085" lon="-2.09624">
        <ele>2.2</ele>
        <time>2020-06-04T12:44:19Z</time>
      </trkpt>
      <trkpt lat="46.87082" lon="-2.09617">
        <ele>2.2</ele>
        <time>2020-06-04T12:44:20Z</time>
      </trkpt>
      <trkpt lat="46.87078" lon="-2.0961">
        <ele>2.2</ele>
        <time>2020-06-04T12:44:21Z</time>
      </trkpt>
      <trkpt lat="46.87074" lon="-2.09603">
        <ele>2.2</ele>
        <time>2020-06-04T12:44:22Z</time>
      </trkpt>
      <trkpt lat="46.87071" lon="-2.09596">
        <ele>2.2</ele>
        <time>2020-06-04T12:44:23Z</time>
      </trkpt>
      <trkpt lat="46.87068" lon="-2.09589">
        <ele>2.1</ele>
        <time>2020-06-04T12:44:24Z</time>
      </trkpt>
      <trkpt lat="46.87065" lon="-2.09582">
        <ele>2.1</ele>
        <time>2020-06-04T12:44:25Z</time>
      </trkpt>
      <trkpt lat="46.87061" lon="-2.09576">
        <ele>2.1</ele>
        <time>2020-06-04T12:44:26Z</time>
      </trkpt>
      <trkpt lat="46.87058" lon="-2.09569">
        <ele>2.1</ele>
        <time>2020-06-04T12:44:27Z</time>
      </trkpt>
      <trkpt lat="46.87055" lon="-2.09561">
        <ele>2.1</ele>
        <time>2020-06-04T12:44:28Z</time>
      </trkpt>
      <trkpt lat="46.87052" lon="-2.09554">
        <ele>2.1</ele>
        <time>2020-06-04T12:44:29Z</time>
      </trkpt>
      <trkpt lat="46.87048" lon="-2.09547">
        <ele>2.1</ele>
        <time>2020-06-04T12:44:30Z</time>
      </trkpt>
      <trkpt lat="46.87045" lon="-2.09539">
        <ele>2.2</ele>
        <time>2020-06-04T12:44:31Z</time>
      </trkpt>
      <trkpt lat="46.87042" lon="-2.09532">
        <ele>2.2</ele>
        <time>2020-06-04T12:44:32Z</time>
      </trkpt>
      <trkpt lat="46.87038" lon="-2.09524">
        <ele>2.2</ele>
        <time>2020-06-04T12:44:33Z</time>
      </trkpt>
      <trkpt lat="46.87034" lon="-2.09517">
        <ele>2.2</ele>
        <time>2020-06-04T12:44:34Z</time>
      </trkpt>
      <trkpt lat="46.87031" lon="-2.0951">
        <ele>2.2</ele>
        <time>2020-06-04T12:44:35Z</time>
      </trkpt>
      <trkpt lat="46.87027" lon="-2.09503">
        <ele>2.2</ele>
        <time>2020-06-04T12:44:36Z</time>
      </trkpt>
      <trkpt lat="46.87024" lon="-2.09495">
        <ele>2.2</ele>
        <time>2020-06-04T12:44:37Z</time>
      </trkpt>
      <trkpt lat="46.8702" lon="-2.09487">
        <ele>2.2</ele>
        <time>2020-06-04T12:44:38Z</time>
      </trkpt>
      <trkpt lat="46.87016" lon="-2.09479">
        <ele>2.2</ele>
        <time>2020-06-04T12:44:39Z</time>
      </trkpt>
      <trkpt lat="46.87013" lon="-2.09471">
        <ele>2.2</ele>
        <time>2020-06-04T12:44:40Z</time>
      </trkpt>
      <trkpt lat="46.87009" lon="-2.09464">
        <ele>2.2</ele>
        <time>2020-06-04T12:44:41Z</time>
      </trkpt>
      <trkpt lat="46.87005" lon="-2.09456">
        <ele>2.2</ele>
        <time>2020-06-04T12:44:42Z</time>
      </trkpt>
      <trkpt lat="46.87002" lon="-2.09448">
        <ele>2.3</ele>
        <time>2020-06-04T12:44:43Z</time>
      </trkpt>
      <trkpt lat="46.86998" lon="-2.0944">
        <ele>2.3</ele>
        <time>2020-06-04T12:44:44Z</time>
      </trkpt>
      <trkpt lat="46.86995" lon="-2.09431">
        <ele>2.3</ele>
        <time>2020-06-04T12:44:45Z</time>
      </trkpt>
      <trkpt lat="46.86992" lon="-2.09423">
        <ele>2.3</ele>
        <time>2020-06-04T12:44:46Z</time>
      </trkpt>
      <trkpt lat="46.86988" lon="-2.09415">
        <ele>2.3</ele>
        <time>2020-06-04T12:44:47Z</time>
      </trkpt>
      <trkpt lat="46.86985" lon="-2.09407">
        <ele>2.3</ele>
        <time>2020-06-04T12:44:48Z</time>
      </trkpt>
      <trkpt lat="46.86982" lon="-2.09399">
        <ele>2.3</ele>
        <time>2020-06-04T12:44:49Z</time>
      </trkpt>
      <trkpt lat="46.86979" lon="-2.09391">
        <ele>2.3</ele>
        <time>2020-06-04T12:44:50Z</time>
      </trkpt>
      <trkpt lat="46.86976" lon="-2.09384">
        <ele>2.3</ele>
        <time>2020-06-04T12:44:51Z</time>
      </trkpt>
      <trkpt lat="46.86973" lon="-2.09376">
        <ele>2.3</ele>
        <time>2020-06-04T12:44:52Z</time>
      </trkpt>
      <trkpt lat="46.86971" lon="-2.09369">
        <ele>2.3</ele>
        <time>2020-06-04T12:44:53Z</time>
      </trkpt>
      <trkpt lat="46.86968" lon="-2.09361">
        <ele>2.3</ele>
        <time>2020-06-04T12:44:54Z</time>
      </trkpt>
      <trkpt lat="46.86965" lon="-2.09354">
        <ele>2.3</ele>
        <time>2020-06-04T12:44:55Z</time>
      </trkpt>
      <trkpt lat="46.86963" lon="-2.09347">
        <ele>2.2</ele>
        <time>2020-06-04T12:44:56Z</time>
      </trkpt>
      <trkpt lat="46.8696" lon="-2.0934">
        <ele>2.2</ele>
        <time>2020-06-04T12:44:57Z</time>
      </trkpt>
      <trkpt lat="46.86957" lon="-2.09333">
        <ele>2.2</ele>
        <time>2020-06-04T12:44:58Z</time>
      </trkpt>
      <trkpt lat="46.86954" lon="-2.09326">
        <ele>2.2</ele>
        <time>2020-06-04T12:44:59Z</time>
      </trkpt>
      <trkpt lat="46.8695" lon="-2.0932">
        <ele>2.1</ele>
        <time>2020-06-04T12:45:00Z</time>
      </trkpt>
      <trkpt lat="46.86947" lon="-2.09312">
        <ele>2.1</ele>
        <time>2020-06-04T12:45:01Z</time>
      </trkpt>
      <trkpt lat="46.86944" lon="-2.09306">
        <ele>2.1</ele>
        <time>2020-06-04T12:45:02Z</time>
      </trkpt>
      <trkpt lat="46.86941" lon="-2.09299">
        <ele>2.1</ele>
        <time>2020-06-04T12:45:03Z</time>
      </trkpt>
      <trkpt lat="46.86938" lon="-2.09291">
        <ele>2.1</ele>
        <time>2020-06-04T12:45:04Z</time>
      </trkpt>
      <trkpt lat="46.86935" lon="-2.09284">
        <ele>2.2</ele>
        <time>2020-06-04T12:45:05Z</time>
      </trkpt>
      <trkpt lat="46.86932" lon="-2.09277">
        <ele>2.2</ele>
        <time>2020-06-04T12:45:06Z</time>
      </trkpt>
      <trkpt lat="46.86929" lon="-2.09269">
        <ele>2.2</ele>
        <time>2020-06-04T12:45:07Z</time>
      </trkpt>
      <trkpt lat="46.86926" lon="-2.09262">
        <ele>2.2</ele>
        <time>2020-06-04T12:45:08Z</time>
      </trkpt>
      <trkpt lat="46.86923" lon="-2.09255">
        <ele>2.2</ele>
        <time>2020-06-04T12:45:09Z</time>
      </trkpt>
      <trkpt lat="46.8692" lon="-2.09247">
        <ele>2.2</ele>
        <time>2020-06-04T12:45:10Z</time>
      </trkpt>
      <trkpt lat="46.86917" lon="-2.0924">
        <ele>2.2</ele>
        <time>2020-06-04T12:45:11Z</time>
      </trkpt>
      <trkpt lat="46.86913" lon="-2.09233">
        <ele>2.2</ele>
        <time>2020-06-04T12:45:12Z</time>
      </trkpt>
      <trkpt lat="46.8691" lon="-2.09226">
        <ele>2.3</ele>
        <time>2020-06-04T12:45:13Z</time>
      </trkpt>
      <trkpt lat="46.86907" lon="-2.09219">
        <ele>2.3</ele>
        <time>2020-06-04T12:45:14Z</time>
      </trkpt>
      <trkpt lat="46.86903" lon="-2.09212">
        <ele>2.3</ele>
        <time>2020-06-04T12:45:15Z</time>
      </trkpt>
      <trkpt lat="46.869" lon="-2.09205">
        <ele>2.3</ele>
        <time>2020-06-04T12:45:16Z</time>
      </trkpt>
      <trkpt lat="46.86896" lon="-2.09198">
        <ele>2.3</ele>
        <time>2020-06-04T12:45:17Z</time>
      </trkpt>
      <trkpt lat="46.86893" lon="-2.09191">
        <ele>2.3</ele>
        <time>2020-06-04T12:45:18Z</time>
      </trkpt>
      <trkpt lat="46.8689" lon="-2.09184">
        <ele>2.3</ele>
        <time>2020-06-04T12:45:19Z</time>
      </trkpt>
      <trkpt lat="46.86886" lon="-2.09177">
        <ele>2.3</ele>
        <time>2020-06-04T12:45:20Z</time>
      </trkpt>
      <trkpt lat="46.86883" lon="-2.09169">
        <ele>2.3</ele>
        <time>2020-06-04T12:45:21Z</time>
      </trkpt>
      <trkpt lat="46.8688" lon="-2.09162">
        <ele>2.3</ele>
        <time>2020-06-04T12:45:22Z</time>
      </trkpt>
      <trkpt lat="46.86877" lon="-2.09154">
        <ele>2.3</ele>
        <time>2020-06-04T12:45:23Z</time>
      </trkpt>
      <trkpt lat="46.86874" lon="-2.09147">
        <ele>2.3</ele>
        <time>2020-06-04T12:45:24Z</time>
      </trkpt>
      <trkpt lat="46.86871" lon="-2.09139">
        <ele>2.3</ele>
        <time>2020-06-04T12:45:25Z</time>
      </trkpt>
      <trkpt lat="46.86868" lon="-2.0913">
        <ele>2.3</ele>
        <time>2020-06-04T12:45:26Z</time>
      </trkpt>
      <trkpt lat="46.86865" lon="-2.09122">
        <ele>2.3</ele>
        <time>2020-06-04T12:45:27Z</time>
      </trkpt>
      <trkpt lat="46.86862" lon="-2.09115">
        <ele>2.3</ele>
        <time>2020-06-04T12:45:28Z</time>
      </trkpt>
      <trkpt lat="46.86859" lon="-2.09106">
        <ele>2.3</ele>
        <time>2020-06-04T12:45:29Z</time>
      </trkpt>
      <trkpt lat="46.86857" lon="-2.09098">
        <ele>2.3</ele>
        <time>2020-06-04T12:45:30Z</time>
      </trkpt>
      <trkpt lat="46.86854" lon="-2.0909">
        <ele>2.3</ele>
        <time>2020-06-04T12:45:31Z</time>
      </trkpt>
      <trkpt lat="46.86851" lon="-2.09083">
        <ele>2.3</ele>
        <time>2020-06-04T12:45:32Z</time>
      </trkpt>
      <trkpt lat="46.86848" lon="-2.09075">
        <ele>2.3</ele>
        <time>2020-06-04T12:45:33Z</time>
      </trkpt>
      <trkpt lat="46.86845" lon="-2.09067">
        <ele>2.3</ele>
        <time>2020-06-04T12:45:34Z</time>
      </trkpt>
      <trkpt lat="46.86842" lon="-2.09059">
        <ele>2.3</ele>
        <time>2020-06-04T12:45:35Z</time>
      </trkpt>
      <trkpt lat="46.8684" lon="-2.09052">
        <ele>2.3</ele>
        <time>2020-06-04T12:45:36Z</time>
      </trkpt>
      <trkpt lat="46.86837" lon="-2.09044">
        <ele>2.3</ele>
        <time>2020-06-04T12:45:37Z</time>
      </trkpt>
      <trkpt lat="46.86834" lon="-2.09036">
        <ele>2.3</ele>
        <time>2020-06-04T12:45:38Z</time>
      </trkpt>
      <trkpt lat="46.86831" lon="-2.09028">
        <ele>2.3</ele>
        <time>2020-06-04T12:45:39Z</time>
      </trkpt>
      <trkpt lat="46.86827" lon="-2.09021">
        <ele>2.3</ele>
        <time>2020-06-04T12:45:40Z</time>
      </trkpt>
      <trkpt lat="46.86824" lon="-2.09013">
        <ele>2.3</ele>
        <time>2020-06-04T12:45:41Z</time>
      </trkpt>
      <trkpt lat="46.86822" lon="-2.09005">
        <ele>2.3</ele>
        <time>2020-06-04T12:45:42Z</time>
      </trkpt>
      <trkpt lat="46.86819" lon="-2.08997">
        <ele>2.3</ele>
        <time>2020-06-04T12:45:43Z</time>
      </trkpt>
      <trkpt lat="46.86816" lon="-2.08989">
        <ele>2.3</ele>
        <time>2020-06-04T12:45:44Z</time>
      </trkpt>
      <trkpt lat="46.86814" lon="-2.08981">
        <ele>2.3</ele>
        <time>2020-06-04T12:45:45Z</time>
      </trkpt>
      <trkpt lat="46.86811" lon="-2.08974">
        <ele>2.3</ele>
        <time>2020-06-04T12:45:46Z</time>
      </trkpt>
      <trkpt lat="46.86808" lon="-2.08966">
        <ele>2.3</ele>
        <time>2020-06-04T12:45:47Z</time>
      </trkpt>
      <trkpt lat="46.86804" lon="-2.08959">
        <ele>2.3</ele>
        <time>2020-06-04T12:45:48Z</time>
      </trkpt>
      <trkpt lat="46.86802" lon="-2.08951">
        <ele>2.3</ele>
        <time>2020-06-04T12:45:49Z</time>
      </trkpt>
      <trkpt lat="46.86799" lon="-2.08943">
        <ele>2.3</ele>
        <time>2020-06-04T12:45:50Z</time>
      </trkpt>
      <trkpt lat="46.86797" lon="-2.08935">
        <ele>2.3</ele>
        <time>2020-06-04T12:45:51Z</time>
      </trkpt>
      <trkpt lat="46.86794" lon="-2.08926">
        <ele>2.3</ele>
        <time>2020-06-04T12:45:52Z</time>
      </trkpt>
      <trkpt lat="46.86791" lon="-2.08918">
        <ele>2.3</ele>
        <time>2020-06-04T12:45:53Z</time>
      </trkpt>
      <trkpt lat="46.86789" lon="-2.0891">
        <ele>2.3</ele>
        <time>2020-06-04T12:45:54Z</time>
      </trkpt>
      <trkpt lat="46.86786" lon="-2.08902">
        <ele>2.3</ele>
        <time>2020-06-04T12:45:55Z</time>
      </trkpt>
      <trkpt lat="46.86783" lon="-2.08893">
        <ele>2.2</ele>
        <time>2020-06-04T12:45:56Z</time>
      </trkpt>
      <trkpt lat="46.8678" lon="-2.08885">
        <ele>2.2</ele>
        <time>2020-06-04T12:45:57Z</time>
      </trkpt>
      <trkpt lat="46.86777" lon="-2.08876">
        <ele>2.2</ele>
        <time>2020-06-04T12:45:58Z</time>
      </trkpt>
      <trkpt lat="46.86774" lon="-2.08868">
        <ele>2.1</ele>
        <time>2020-06-04T12:45:59Z</time>
      </trkpt>
      <trkpt lat="46.86771" lon="-2.0886">
        <ele>2.1</ele>
        <time>2020-06-04T12:46:00Z</time>
      </trkpt>
      <trkpt lat="46.86768" lon="-2.08852">
        <ele>2.1</ele>
        <time>2020-06-04T12:46:01Z</time>
      </trkpt>
      <trkpt lat="46.86765" lon="-2.08844">
        <ele>2.1</ele>
        <time>2020-06-04T12:46:02Z</time>
      </trkpt>
      <trkpt lat="46.86761" lon="-2.08836">
        <ele>2.2</ele>
        <time>2020-06-04T12:46:03Z</time>
      </trkpt>
      <trkpt lat="46.86758" lon="-2.08828">
        <ele>2.2</ele>
        <time>2020-06-04T12:46:04Z</time>
      </trkpt>
      <trkpt lat="46.86755" lon="-2.0882">
        <ele>2.2</ele>
        <time>2020-06-04T12:46:05Z</time>
      </trkpt>
      <trkpt lat="46.86752" lon="-2.08813">
        <ele>2.2</ele>
        <time>2020-06-04T12:46:06Z</time>
      </trkpt>
      <trkpt lat="46.86748" lon="-2.08806">
        <ele>2.2</ele>
        <time>2020-06-04T12:46:07Z</time>
      </trkpt>
      <trkpt lat="46.86745" lon="-2.088">
        <ele>2.2</ele>
        <time>2020-06-04T12:46:08Z</time>
      </trkpt>
      <trkpt lat="46.86742" lon="-2.08792">
        <ele>2.2</ele>
        <time>2020-06-04T12:46:09Z</time>
      </trkpt>
      <trkpt lat="46.86739" lon="-2.08785">
        <ele>2.2</ele>
        <time>2020-06-04T12:46:10Z</time>
      </trkpt>
      <trkpt lat="46.86736" lon="-2.08777">
        <ele>2.2</ele>
        <time>2020-06-04T12:46:11Z</time>
      </trkpt>
      <trkpt lat="46.86732" lon="-2.08769">
        <ele>2.2</ele>
        <time>2020-06-04T12:46:12Z</time>
      </trkpt>
      <trkpt lat="46.8673" lon="-2.08761">
        <ele>2.2</ele>
        <time>2020-06-04T12:46:13Z</time>
      </trkpt>
      <trkpt lat="46.86727" lon="-2.08753">
        <ele>2.2</ele>
        <time>2020-06-04T12:46:14Z</time>
      </trkpt>
      <trkpt lat="46.86724" lon="-2.08745">
        <ele>2.2</ele>
        <time>2020-06-04T12:46:15Z</time>
      </trkpt>
      <trkpt lat="46.86722" lon="-2.08736">
        <ele>2.2</ele>
        <time>2020-06-04T12:46:16Z</time>
      </trkpt>
      <trkpt lat="46.86719" lon="-2.08728">
        <ele>2.2</ele>
        <time>2020-06-04T12:46:17Z</time>
      </trkpt>
      <trkpt lat="46.86716" lon="-2.08719">
        <ele>2.3</ele>
        <time>2020-06-04T12:46:18Z</time>
      </trkpt>
      <trkpt lat="46.86713" lon="-2.08711">
        <ele>2.3</ele>
        <time>2020-06-04T12:46:19Z</time>
      </trkpt>
      <trkpt lat="46.8671" lon="-2.08703">
        <ele>2.3</ele>
        <time>2020-06-04T12:46:20Z</time>
      </trkpt>
      <trkpt lat="46.86707" lon="-2.08695">
        <ele>2.3</ele>
        <time>2020-06-04T12:46:21Z</time>
      </trkpt>
      <trkpt lat="46.86704" lon="-2.08687">
        <ele>2.3</ele>
        <time>2020-06-04T12:46:22Z</time>
      </trkpt>
      <trkpt lat="46.86702" lon="-2.08679">
        <ele>2.3</ele>
        <time>2020-06-04T12:46:23Z</time>
      </trkpt>
      <trkpt lat="46.86699" lon="-2.08672">
        <ele>2.3</ele>
        <time>2020-06-04T12:46:24Z</time>
      </trkpt>
      <trkpt lat="46.86696" lon="-2.08665">
        <ele>2.3</ele>
        <time>2020-06-04T12:46:25Z</time>
      </trkpt>
      <trkpt lat="46.86692" lon="-2.08659">
        <ele>2.3</ele>
        <time>2020-06-04T12:46:26Z</time>
      </trkpt>
      <trkpt lat="46.8669" lon="-2.08652">
        <ele>2.3</ele>
        <time>2020-06-04T12:46:27Z</time>
      </trkpt>
      <trkpt lat="46.86688" lon="-2.08646">
        <ele>2.3</ele>
        <time>2020-06-04T12:46:28Z</time>
      </trkpt>
      <trkpt lat="46.86686" lon="-2.08639">
        <ele>2.2</ele>
        <time>2020-06-04T12:46:29Z</time>
      </trkpt>
      <trkpt lat="46.86684" lon="-2.08633">
        <ele>2.2</ele>
        <time>2020-06-04T12:46:30Z</time>
      </trkpt>
      <trkpt lat="46.86682" lon="-2.08626">
        <ele>2.2</ele>
        <time>2020-06-04T12:46:31Z</time>
      </trkpt>
      <trkpt lat="46.8668" lon="-2.0862">
        <ele>2.2</ele>
        <time>2020-06-04T12:46:32Z</time>
      </trkpt>
      <trkpt lat="46.86678" lon="-2.08613">
        <ele>2.2</ele>
        <time>2020-06-04T12:46:33Z</time>
      </trkpt>
      <trkpt lat="46.86675" lon="-2.08607">
        <ele>2.2</ele>
        <time>2020-06-04T12:46:34Z</time>
      </trkpt>
      <trkpt lat="46.86671" lon="-2.086">
        <ele>2.2</ele>
        <time>2020-06-04T12:46:35Z</time>
      </trkpt>
      <trkpt lat="46.86667" lon="-2.08592">
        <ele>2.2</ele>
        <time>2020-06-04T12:46:36Z</time>
      </trkpt>
      <trkpt lat="46.86663" lon="-2.08585">
        <ele>2.2</ele>
        <time>2020-06-04T12:46:37Z</time>
      </trkpt>
      <trkpt lat="46.86659" lon="-2.08578">
        <ele>2.2</ele>
        <time>2020-06-04T12:46:38Z</time>
      </trkpt>
      <trkpt lat="46.86655" lon="-2.08571">
        <ele>2.2</ele>
        <time>2020-06-04T12:46:39Z</time>
      </trkpt>
      <trkpt lat="46.86651" lon="-2.08564">
        <ele>2.2</ele>
        <time>2020-06-04T12:46:40Z</time>
      </trkpt>
      <trkpt lat="46.86648" lon="-2.08557">
        <ele>2.2</ele>
        <time>2020-06-04T12:46:41Z</time>
      </trkpt>
      <trkpt lat="46.86645" lon="-2.08549">
        <ele>2.2</ele>
        <time>2020-06-04T12:46:42Z</time>
      </trkpt>
      <trkpt lat="46.86642" lon="-2.08542">
        <ele>2.2</ele>
        <time>2020-06-04T12:46:43Z</time>
      </trkpt>
      <trkpt lat="46.86639" lon="-2.08535">
        <ele>2.2</ele>
        <time>2020-06-04T12:46:44Z</time>
      </trkpt>
      <trkpt lat="46.86636" lon="-2.08528">
        <ele>2.1</ele>
        <time>2020-06-04T12:46:45Z</time>
      </trkpt>
      <trkpt lat="46.86631" lon="-2.08521">
        <ele>2.1</ele>
        <time>2020-06-04T12:46:46Z</time>
      </trkpt>
      <trkpt lat="46.86628" lon="-2.08513">
        <ele>2.1</ele>
        <time>2020-06-04T12:46:47Z</time>
      </trkpt>
      <trkpt lat="46.86624" lon="-2.08506">
        <ele>2.1</ele>
        <time>2020-06-04T12:46:48Z</time>
      </trkpt>
      <trkpt lat="46.8662" lon="-2.08497">
        <ele>2.1</ele>
        <time>2020-06-04T12:46:49Z</time>
      </trkpt>
      <trkpt lat="46.86616" lon="-2.08489">
        <ele>2.1</ele>
        <time>2020-06-04T12:46:50Z</time>
      </trkpt>
      <trkpt lat="46.86613" lon="-2.0848">
        <ele>2.1</ele>
        <time>2020-06-04T12:46:51Z</time>
      </trkpt>
      <trkpt lat="46.86609" lon="-2.08472">
        <ele>2.1</ele>
        <time>2020-06-04T12:46:52Z</time>
      </trkpt>
      <trkpt lat="46.86606" lon="-2.08463">
        <ele>2.1</ele>
        <time>2020-06-04T12:46:53Z</time>
      </trkpt>
      <trkpt lat="46.86603" lon="-2.08454">
        <ele>2.1</ele>
        <time>2020-06-04T12:46:54Z</time>
      </trkpt>
      <trkpt lat="46.866" lon="-2.08445">
        <ele>2.1</ele>
        <time>2020-06-04T12:46:55Z</time>
      </trkpt>
      <trkpt lat="46.86597" lon="-2.08436">
        <ele>2.1</ele>
        <time>2020-06-04T12:46:56Z</time>
      </trkpt>
      <trkpt lat="46.86593" lon="-2.08428">
        <ele>2.1</ele>
        <time>2020-06-04T12:46:57Z</time>
      </trkpt>
      <trkpt lat="46.8659" lon="-2.0842">
        <ele>2.1</ele>
        <time>2020-06-04T12:46:58Z</time>
      </trkpt>
      <trkpt lat="46.86586" lon="-2.08412">
        <ele>2.1</ele>
        <time>2020-06-04T12:46:59Z</time>
      </trkpt>
      <trkpt lat="46.86583" lon="-2.08403">
        <ele>2.1</ele>
        <time>2020-06-04T12:47:00Z</time>
      </trkpt>
      <trkpt lat="46.86579" lon="-2.08395">
        <ele>2.1</ele>
        <time>2020-06-04T12:47:01Z</time>
      </trkpt>
      <trkpt lat="46.86577" lon="-2.08386">
        <ele>2.1</ele>
        <time>2020-06-04T12:47:02Z</time>
      </trkpt>
      <trkpt lat="46.86573" lon="-2.08377">
        <ele>2.1</ele>
        <time>2020-06-04T12:47:03Z</time>
      </trkpt>
      <trkpt lat="46.8657" lon="-2.08369">
        <ele>2.1</ele>
        <time>2020-06-04T12:47:04Z</time>
      </trkpt>
      <trkpt lat="46.86567" lon="-2.0836">
        <ele>2.1</ele>
        <time>2020-06-04T12:47:05Z</time>
      </trkpt>
      <trkpt lat="46.86564" lon="-2.08351">
        <ele>2.1</ele>
        <time>2020-06-04T12:47:06Z</time>
      </trkpt>
      <trkpt lat="46.86561" lon="-2.08343">
        <ele>2.1</ele>
        <time>2020-06-04T12:47:07Z</time>
      </trkpt>
      <trkpt lat="46.86558" lon="-2.08334">
        <ele>2.1</ele>
        <time>2020-06-04T12:47:08Z</time>
      </trkpt>
      <trkpt lat="46.86554" lon="-2.08326">
        <ele>2.1</ele>
        <time>2020-06-04T12:47:09Z</time>
      </trkpt>
      <trkpt lat="46.86551" lon="-2.08318">
        <ele>2.1</ele>
        <time>2020-06-04T12:47:10Z</time>
      </trkpt>
      <trkpt lat="46.86548" lon="-2.08309">
        <ele>2.1</ele>
        <time>2020-06-04T12:47:11Z</time>
      </trkpt>
      <trkpt lat="46.86545" lon="-2.083">
        <ele>2</ele>
        <time>2020-06-04T12:47:12Z</time>
      </trkpt>
      <trkpt lat="46.86542" lon="-2.08292">
        <ele>2</ele>
        <time>2020-06-04T12:47:13Z</time>
      </trkpt>
      <trkpt lat="46.86539" lon="-2.08284">
        <ele>2</ele>
        <time>2020-06-04T12:47:14Z</time>
      </trkpt>
      <trkpt lat="46.86536" lon="-2.08276">
        <ele>2</ele>
        <time>2020-06-04T12:47:15Z</time>
      </trkpt>
      <trkpt lat="46.86533" lon="-2.08268">
        <ele>2</ele>
        <time>2020-06-04T12:47:16Z</time>
      </trkpt>
      <trkpt lat="46.8653" lon="-2.0826">
        <ele>2</ele>
        <time>2020-06-04T12:47:17Z</time>
      </trkpt>
      <trkpt lat="46.86527" lon="-2.08253">
        <ele>2</ele>
        <time>2020-06-04T12:47:18Z</time>
      </trkpt>
      <trkpt lat="46.86524" lon="-2.08245">
        <ele>2</ele>
        <time>2020-06-04T12:47:19Z</time>
      </trkpt>
      <trkpt lat="46.86521" lon="-2.08238">
        <ele>2</ele>
        <time>2020-06-04T12:47:20Z</time>
      </trkpt>
      <trkpt lat="46.86519" lon="-2.08231">
        <ele>2</ele>
        <time>2020-06-04T12:47:21Z</time>
      </trkpt>
      <trkpt lat="46.86516" lon="-2.08223">
        <ele>2</ele>
        <time>2020-06-04T12:47:22Z</time>
      </trkpt>
      <trkpt lat="46.86514" lon="-2.08216">
        <ele>2</ele>
        <time>2020-06-04T12:47:23Z</time>
      </trkpt>
      <trkpt lat="46.8651" lon="-2.08209">
        <ele>2</ele>
        <time>2020-06-04T12:47:24Z</time>
      </trkpt>
      <trkpt lat="46.86508" lon="-2.08201">
        <ele>2</ele>
        <time>2020-06-04T12:47:25Z</time>
      </trkpt>
      <trkpt lat="46.86505" lon="-2.08193">
        <ele>2</ele>
        <time>2020-06-04T12:47:26Z</time>
      </trkpt>
      <trkpt lat="46.86502" lon="-2.08184">
        <ele>2</ele>
        <time>2020-06-04T12:47:27Z</time>
      </trkpt>
      <trkpt lat="46.865" lon="-2.08176">
        <ele>2</ele>
        <time>2020-06-04T12:47:28Z</time>
      </trkpt>
      <trkpt lat="46.86496" lon="-2.08168">
        <ele>2</ele>
        <time>2020-06-04T12:47:29Z</time>
      </trkpt>
      <trkpt lat="46.86493" lon="-2.0816">
        <ele>2</ele>
        <time>2020-06-04T12:47:30Z</time>
      </trkpt>
      <trkpt lat="46.86489" lon="-2.08153">
        <ele>2</ele>
        <time>2020-06-04T12:47:31Z</time>
      </trkpt>
      <trkpt lat="46.86485" lon="-2.08146">
        <ele>2</ele>
        <time>2020-06-04T12:47:32Z</time>
      </trkpt>
      <trkpt lat="46.86481" lon="-2.0814">
        <ele>2</ele>
        <time>2020-06-04T12:47:33Z</time>
      </trkpt>
      <trkpt lat="46.86477" lon="-2.08133">
        <ele>2</ele>
        <time>2020-06-04T12:47:34Z</time>
      </trkpt>
      <trkpt lat="46.86473" lon="-2.08126">
        <ele>1.9</ele>
        <time>2020-06-04T12:47:35Z</time>
      </trkpt>
      <trkpt lat="46.86468" lon="-2.08119">
        <ele>1.9</ele>
        <time>2020-06-04T12:47:36Z</time>
      </trkpt>
      <trkpt lat="46.86464" lon="-2.08112">
        <ele>1.9</ele>
        <time>2020-06-04T12:47:37Z</time>
      </trkpt>
      <trkpt lat="46.86459" lon="-2.08105">
        <ele>1.9</ele>
        <time>2020-06-04T12:47:38Z</time>
      </trkpt>
      <trkpt lat="46.86454" lon="-2.08098">
        <ele>1.9</ele>
        <time>2020-06-04T12:47:39Z</time>
      </trkpt>
      <trkpt lat="46.86449" lon="-2.08092">
        <ele>1.9</ele>
        <time>2020-06-04T12:47:40Z</time>
      </trkpt>
      <trkpt lat="46.86445" lon="-2.08085">
        <ele>1.9</ele>
        <time>2020-06-04T12:47:41Z</time>
      </trkpt>
      <trkpt lat="46.8644" lon="-2.08077">
        <ele>1.9</ele>
        <time>2020-06-04T12:47:42Z</time>
      </trkpt>
      <trkpt lat="46.86435" lon="-2.0807">
        <ele>1.8</ele>
        <time>2020-06-04T12:47:43Z</time>
      </trkpt>
      <trkpt lat="46.86431" lon="-2.08062">
        <ele>1.8</ele>
        <time>2020-06-04T12:47:44Z</time>
      </trkpt>
      <trkpt lat="46.86426" lon="-2.08054">
        <ele>1.8</ele>
        <time>2020-06-04T12:47:45Z</time>
      </trkpt>
      <trkpt lat="46.86421" lon="-2.08047">
        <ele>1.8</ele>
        <time>2020-06-04T12:47:46Z</time>
      </trkpt>
      <trkpt lat="46.86418" lon="-2.08039">
        <ele>1.8</ele>
        <time>2020-06-04T12:47:47Z</time>
      </trkpt>
      <trkpt lat="46.86414" lon="-2.0803">
        <ele>1.8</ele>
        <time>2020-06-04T12:47:48Z</time>
      </trkpt>
      <trkpt lat="46.86411" lon="-2.08022">
        <ele>1.8</ele>
        <time>2020-06-04T12:47:49Z</time>
      </trkpt>
      <trkpt lat="46.86407" lon="-2.08014">
        <ele>1.8</ele>
        <time>2020-06-04T12:47:50Z</time>
      </trkpt>
      <trkpt lat="46.86404" lon="-2.08005">
        <ele>1.7</ele>
        <time>2020-06-04T12:47:51Z</time>
      </trkpt>
      <trkpt lat="46.86401" lon="-2.07997">
        <ele>1.7</ele>
        <time>2020-06-04T12:47:52Z</time>
      </trkpt>
      <trkpt lat="46.86397" lon="-2.07989">
        <ele>1.7</ele>
        <time>2020-06-04T12:47:53Z</time>
      </trkpt>
      <trkpt lat="46.86393" lon="-2.07981">
        <ele>1.7</ele>
        <time>2020-06-04T12:47:54Z</time>
      </trkpt>
      <trkpt lat="46.8639" lon="-2.07972">
        <ele>1.7</ele>
        <time>2020-06-04T12:47:55Z</time>
      </trkpt>
      <trkpt lat="46.86386" lon="-2.07964">
        <ele>1.7</ele>
        <time>2020-06-04T12:47:56Z</time>
      </trkpt>
      <trkpt lat="46.86383" lon="-2.07956">
        <ele>1.7</ele>
        <time>2020-06-04T12:47:57Z</time>
      </trkpt>
      <trkpt lat="46.8638" lon="-2.07948">
        <ele>1.6</ele>
        <time>2020-06-04T12:47:58Z</time>
      </trkpt>
      <trkpt lat="46.86376" lon="-2.0794">
        <ele>1.6</ele>
        <time>2020-06-04T12:47:59Z</time>
      </trkpt>
      <trkpt lat="46.86372" lon="-2.07932">
        <ele>1.6</ele>
        <time>2020-06-04T12:48:00Z</time>
      </trkpt>
      <trkpt lat="46.86369" lon="-2.07924">
        <ele>1.6</ele>
        <time>2020-06-04T12:48:01Z</time>
      </trkpt>
      <trkpt lat="46.86365" lon="-2.07916">
        <ele>1.5</ele>
        <time>2020-06-04T12:48:02Z</time>
      </trkpt>
      <trkpt lat="46.86362" lon="-2.07908">
        <ele>1.5</ele>
        <time>2020-06-04T12:48:03Z</time>
      </trkpt>
      <trkpt lat="46.86358" lon="-2.07901">
        <ele>1.5</ele>
        <time>2020-06-04T12:48:04Z</time>
      </trkpt>
      <trkpt lat="46.86354" lon="-2.07894">
        <ele>1.5</ele>
        <time>2020-06-04T12:48:05Z</time>
      </trkpt>
      <trkpt lat="46.86349" lon="-2.07888">
        <ele>1.5</ele>
        <time>2020-06-04T12:48:06Z</time>
      </trkpt>
      <trkpt lat="46.86344" lon="-2.07882">
        <ele>1.4</ele>
        <time>2020-06-04T12:48:07Z</time>
      </trkpt>
      <trkpt lat="46.86339" lon="-2.07877">
        <ele>1.4</ele>
        <time>2020-06-04T12:48:08Z</time>
      </trkpt>
      <trkpt lat="46.86333" lon="-2.07872">
        <ele>1.4</ele>
        <time>2020-06-04T12:48:09Z</time>
      </trkpt>
      <trkpt lat="46.86328" lon="-2.07868">
        <ele>1.4</ele>
        <time>2020-06-04T12:48:10Z</time>
      </trkpt>
      <trkpt lat="46.86322" lon="-2.07865">
        <ele>1.4</ele>
        <time>2020-06-04T12:48:11Z</time>
      </trkpt>
      <trkpt lat="46.86317" lon="-2.07861">
        <ele>1.4</ele>
        <time>2020-06-04T12:48:12Z</time>
      </trkpt>
      <trkpt lat="46.86311" lon="-2.07858">
        <ele>1.4</ele>
        <time>2020-06-04T12:48:13Z</time>
      </trkpt>
      <trkpt lat="46.86306" lon="-2.07854">
        <ele>1.4</ele>
        <time>2020-06-04T12:48:14Z</time>
      </trkpt>
      <trkpt lat="46.863" lon="-2.0785">
        <ele>1.3</ele>
        <time>2020-06-04T12:48:15Z</time>
      </trkpt>
      <trkpt lat="46.86294" lon="-2.07847">
        <ele>1.3</ele>
        <time>2020-06-04T12:48:16Z</time>
      </trkpt>
      <trkpt lat="46.86288" lon="-2.07843">
        <ele>1.3</ele>
        <time>2020-06-04T12:48:17Z</time>
      </trkpt>
      <trkpt lat="46.86283" lon="-2.07838">
        <ele>1.3</ele>
        <time>2020-06-04T12:48:18Z</time>
      </trkpt>
      <trkpt lat="46.86278" lon="-2.07833">
        <ele>1.3</ele>
        <time>2020-06-04T12:48:19Z</time>
      </trkpt>
      <trkpt lat="46.86274" lon="-2.07827">
        <ele>1.3</ele>
        <time>2020-06-04T12:48:20Z</time>
      </trkpt>
      <trkpt lat="46.86269" lon="-2.07821">
        <ele>1.3</ele>
        <time>2020-06-04T12:48:21Z</time>
      </trkpt>
      <trkpt lat="46.86265" lon="-2.07815">
        <ele>1.3</ele>
        <time>2020-06-04T12:48:22Z</time>
      </trkpt>
      <trkpt lat="46.86261" lon="-2.07809">
        <ele>1.3</ele>
        <time>2020-06-04T12:48:23Z</time>
      </trkpt>
      <trkpt lat="46.86258" lon="-2.07802">
        <ele>1.2</ele>
        <time>2020-06-04T12:48:24Z</time>
      </trkpt>
      <trkpt lat="46.86257" lon="-2.07797">
        <ele>1.2</ele>
        <time>2020-06-04T12:48:25Z</time>
      </trkpt>
      <trkpt lat="46.86256" lon="-2.07792">
        <ele>1.2</ele>
        <time>2020-06-04T12:48:26Z</time>
      </trkpt>
      <trkpt lat="46.86256" lon="-2.07791">
        <ele>1.2</ele>
        <time>2020-06-04T12:48:27Z</time>
      </trkpt>
      <trkpt lat="46.86255" lon="-2.07789">
        <ele>1.2</ele>
        <time>2020-06-04T12:48:28Z</time>
      </trkpt>
      <trkpt lat="46.86255" lon="-2.07787">
        <ele>1.2</ele>
        <time>2020-06-04T12:48:29Z</time>
      </trkpt>
      <trkpt lat="46.86254" lon="-2.07784">
        <ele>1.2</ele>
        <time>2020-06-04T12:48:30Z</time>
      </trkpt>
      <trkpt lat="46.86254" lon="-2.07782">
        <ele>1.2</ele>
        <time>2020-06-04T12:48:31Z</time>
      </trkpt>
      <trkpt lat="46.86254" lon="-2.0778">
        <ele>1.2</ele>
        <time>2020-06-04T12:48:32Z</time>
      </trkpt>
      <trkpt lat="46.86253" lon="-2.07777">
        <ele>1.2</ele>
        <time>2020-06-04T12:48:33Z</time>
      </trkpt>
      <trkpt lat="46.86252" lon="-2.07775">
        <ele>1.2</ele>
        <time>2020-06-04T12:48:34Z</time>
      </trkpt>
      <trkpt lat="46.86252" lon="-2.07772">
        <ele>1.2</ele>
        <time>2020-06-04T12:48:35Z</time>
      </trkpt>
      <trkpt lat="46.86251" lon="-2.07768">
        <ele>1.2</ele>
        <time>2020-06-04T12:48:36Z</time>
      </trkpt>
      <trkpt lat="46.86251" lon="-2.07766">
        <ele>1.2</ele>
        <time>2020-06-04T12:48:37Z</time>
      </trkpt>
      <trkpt lat="46.86249" lon="-2.07761">
        <ele>1.2</ele>
        <time>2020-06-04T12:48:38Z</time>
      </trkpt>
      <trkpt lat="46.86248" lon="-2.07759">
        <ele>1.2</ele>
        <time>2020-06-04T12:48:39Z</time>
      </trkpt>
      <trkpt lat="46.86245" lon="-2.07756">
        <ele>1.2</ele>
        <time>2020-06-04T12:48:40Z</time>
      </trkpt>
      <trkpt lat="46.86244" lon="-2.0775">
        <ele>1.2</ele>
        <time>2020-06-04T12:48:41Z</time>
      </trkpt>
      <trkpt lat="46.86243" lon="-2.07745">
        <ele>1.2</ele>
        <time>2020-06-04T12:48:42Z</time>
      </trkpt>
      <trkpt lat="46.86242" lon="-2.07741">
        <ele>1.2</ele>
        <time>2020-06-04T12:48:43Z</time>
      </trkpt>
      <trkpt lat="46.8624" lon="-2.07738">
        <ele>1.2</ele>
        <time>2020-06-04T12:48:44Z</time>
      </trkpt>
      <trkpt lat="46.86239" lon="-2.07734">
        <ele>1.2</ele>
        <time>2020-06-04T12:48:45Z</time>
      </trkpt>
      <trkpt lat="46.86238" lon="-2.0773">
        <ele>1.2</ele>
        <time>2020-06-04T12:48:46Z</time>
      </trkpt>
      <trkpt lat="46.86237" lon="-2.07725">
        <ele>1.2</ele>
        <time>2020-06-04T12:48:47Z</time>
      </trkpt>
      <trkpt lat="46.86236" lon="-2.07721">
        <ele>1.2</ele>
        <time>2020-06-04T12:48:48Z</time>
      </trkpt>
      <trkpt lat="46.86234" lon="-2.07716">
        <ele>1.2</ele>
        <time>2020-06-04T12:48:49Z</time>
      </trkpt>
      <trkpt lat="46.86232" lon="-2.07711">
        <ele>1.2</ele>
        <time>2020-06-04T12:48:50Z</time>
      </trkpt>
      <trkpt lat="46.86229" lon="-2.07704">
        <ele>1.2</ele>
        <time>2020-06-04T12:48:51Z</time>
      </trkpt>
      <trkpt lat="46.86227" lon="-2.07698">
        <ele>1.2</ele>
        <time>2020-06-04T12:48:52Z</time>
      </trkpt>
      <trkpt lat="46.86224" lon="-2.07691">
        <ele>1.2</ele>
        <time>2020-06-04T12:48:53Z</time>
      </trkpt>
      <trkpt lat="46.86221" lon="-2.07684">
        <ele>1.2</ele>
        <time>2020-06-04T12:48:54Z</time>
      </trkpt>
      <trkpt lat="46.86218" lon="-2.07678">
        <ele>1.3</ele>
        <time>2020-06-04T12:48:55Z</time>
      </trkpt>
      <trkpt lat="46.86214" lon="-2.07672">
        <ele>1.3</ele>
        <time>2020-06-04T12:48:56Z</time>
      </trkpt>
      <trkpt lat="46.86211" lon="-2.07665">
        <ele>1.3</ele>
        <time>2020-06-04T12:48:57Z</time>
      </trkpt>
      <trkpt lat="46.86208" lon="-2.07658">
        <ele>1.3</ele>
        <time>2020-06-04T12:48:58Z</time>
      </trkpt>
      <trkpt lat="46.86205" lon="-2.07651">
        <ele>1.3</ele>
        <time>2020-06-04T12:48:59Z</time>
      </trkpt>
      <trkpt lat="46.86202" lon="-2.07643">
        <ele>1.3</ele>
        <time>2020-06-04T12:49:00Z</time>
      </trkpt>
      <trkpt lat="46.862" lon="-2.07634">
        <ele>1.3</ele>
        <time>2020-06-04T12:49:01Z</time>
      </trkpt>
      <trkpt lat="46.86197" lon="-2.07626">
        <ele>1.3</ele>
        <time>2020-06-04T12:49:02Z</time>
      </trkpt>
      <trkpt lat="46.86193" lon="-2.07618">
        <ele>1.3</ele>
        <time>2020-06-04T12:49:03Z</time>
      </trkpt>
      <trkpt lat="46.86191" lon="-2.0761">
        <ele>1.4</ele>
        <time>2020-06-04T12:49:04Z</time>
      </trkpt>
      <trkpt lat="46.86187" lon="-2.07602">
        <ele>1.4</ele>
        <time>2020-06-04T12:49:05Z</time>
      </trkpt>
      <trkpt lat="46.86184" lon="-2.07594">
        <ele>1.4</ele>
        <time>2020-06-04T12:49:06Z</time>
      </trkpt>
      <trkpt lat="46.8618" lon="-2.07587">
        <ele>1.4</ele>
        <time>2020-06-04T12:49:07Z</time>
      </trkpt>
      <trkpt lat="46.86177" lon="-2.07579">
        <ele>1.4</ele>
        <time>2020-06-04T12:49:08Z</time>
      </trkpt>
      <trkpt lat="46.86173" lon="-2.07571">
        <ele>1.4</ele>
        <time>2020-06-04T12:49:09Z</time>
      </trkpt>
      <trkpt lat="46.8617" lon="-2.07564">
        <ele>1.4</ele>
        <time>2020-06-04T12:49:10Z</time>
      </trkpt>
      <trkpt lat="46.86167" lon="-2.07556">
        <ele>1.4</ele>
        <time>2020-06-04T12:49:11Z</time>
      </trkpt>
      <trkpt lat="46.86164" lon="-2.07549">
        <ele>1.3</ele>
        <time>2020-06-04T12:49:12Z</time>
      </trkpt>
      <trkpt lat="46.8616" lon="-2.07542">
        <ele>1.3</ele>
        <time>2020-06-04T12:49:13Z</time>
      </trkpt>
      <trkpt lat="46.86157" lon="-2.07535">
        <ele>1.3</ele>
        <time>2020-06-04T12:49:14Z</time>
      </trkpt>
      <trkpt lat="46.86154" lon="-2.07528">
        <ele>1.3</ele>
        <time>2020-06-04T12:49:15Z</time>
      </trkpt>
      <trkpt lat="46.8615" lon="-2.07522">
        <ele>1.3</ele>
        <time>2020-06-04T12:49:16Z</time>
      </trkpt>
      <trkpt lat="46.86147" lon="-2.07515">
        <ele>1.3</ele>
        <time>2020-06-04T12:49:17Z</time>
      </trkpt>
      <trkpt lat="46.86145" lon="-2.07508">
        <ele>1.3</ele>
        <time>2020-06-04T12:49:18Z</time>
      </trkpt>
      <trkpt lat="46.86142" lon="-2.07501">
        <ele>1.3</ele>
        <time>2020-06-04T12:49:19Z</time>
      </trkpt>
      <trkpt lat="46.8614" lon="-2.07494">
        <ele>1.3</ele>
        <time>2020-06-04T12:49:20Z</time>
      </trkpt>
      <trkpt lat="46.86138" lon="-2.07487">
        <ele>1.3</ele>
        <time>2020-06-04T12:49:21Z</time>
      </trkpt>
      <trkpt lat="46.86135" lon="-2.0748">
        <ele>1.3</ele>
        <time>2020-06-04T12:49:22Z</time>
      </trkpt>
      <trkpt lat="46.86134" lon="-2.07472">
        <ele>1.3</ele>
        <time>2020-06-04T12:49:23Z</time>
      </trkpt>
      <trkpt lat="46.86132" lon="-2.07464">
        <ele>1.4</ele>
        <time>2020-06-04T12:49:24Z</time>
      </trkpt>
      <trkpt lat="46.86132" lon="-2.07455">
        <ele>1.4</ele>
        <time>2020-06-04T12:49:25Z</time>
      </trkpt>
      <trkpt lat="46.86133" lon="-2.07445">
        <ele>1.5</ele>
        <time>2020-06-04T12:49:26Z</time>
      </trkpt>
      <trkpt lat="46.86134" lon="-2.07435">
        <ele>1.5</ele>
        <time>2020-06-04T12:49:27Z</time>
      </trkpt>
      <trkpt lat="46.86135" lon="-2.07426">
        <ele>1.5</ele>
        <time>2020-06-04T12:49:28Z</time>
      </trkpt>
      <trkpt lat="46.86137" lon="-2.07417">
        <ele>1.5</ele>
        <time>2020-06-04T12:49:29Z</time>
      </trkpt>
      <trkpt lat="46.86137" lon="-2.07408">
        <ele>1.5</ele>
        <time>2020-06-04T12:49:30Z</time>
      </trkpt>
      <trkpt lat="46.86138" lon="-2.07399">
        <ele>1.5</ele>
        <time>2020-06-04T12:49:31Z</time>
      </trkpt>
      <trkpt lat="46.8614" lon="-2.0739">
        <ele>1.5</ele>
        <time>2020-06-04T12:49:32Z</time>
      </trkpt>
      <trkpt lat="46.86141" lon="-2.07382">
        <ele>1.5</ele>
        <time>2020-06-04T12:49:33Z</time>
      </trkpt>
      <trkpt lat="46.86142" lon="-2.07374">
        <ele>1.4</ele>
        <time>2020-06-04T12:49:34Z</time>
      </trkpt>
      <trkpt lat="46.86143" lon="-2.07366">
        <ele>1.4</ele>
        <time>2020-06-04T12:49:35Z</time>
      </trkpt>
      <trkpt lat="46.86143" lon="-2.07357">
        <ele>1.4</ele>
        <time>2020-06-04T12:49:36Z</time>
      </trkpt>
      <trkpt lat="46.86146" lon="-2.0735">
        <ele>1.4</ele>
        <time>2020-06-04T12:49:37Z</time>
      </trkpt>
      <trkpt lat="46.86148" lon="-2.07341">
        <ele>1.4</ele>
        <time>2020-06-04T12:49:38Z</time>
      </trkpt>
      <trkpt lat="46.8615" lon="-2.07332">
        <ele>1.4</ele>
        <time>2020-06-04T12:49:39Z</time>
      </trkpt>
      <trkpt lat="46.86151" lon="-2.07323">
        <ele>1.4</ele>
        <time>2020-06-04T12:49:40Z</time>
      </trkpt>
      <trkpt lat="46.86152" lon="-2.07314">
        <ele>1.4</ele>
        <time>2020-06-04T12:49:41Z</time>
      </trkpt>
      <trkpt lat="46.86154" lon="-2.07305">
        <ele>1.4</ele>
        <time>2020-06-04T12:49:42Z</time>
      </trkpt>
      <trkpt lat="46.86156" lon="-2.07296">
        <ele>1.4</ele>
        <time>2020-06-04T12:49:43Z</time>
      </trkpt>
      <trkpt lat="46.86158" lon="-2.07288">
        <ele>1.4</ele>
        <time>2020-06-04T12:49:44Z</time>
      </trkpt>
      <trkpt lat="46.8616" lon="-2.0728">
        <ele>1.4</ele>
        <time>2020-06-04T12:49:45Z</time>
      </trkpt>
      <trkpt lat="46.86163" lon="-2.07273">
        <ele>1.5</ele>
        <time>2020-06-04T12:49:46Z</time>
      </trkpt>
      <trkpt lat="46.86166" lon="-2.07264">
        <ele>1.5</ele>
        <time>2020-06-04T12:49:47Z</time>
      </trkpt>
      <trkpt lat="46.86168" lon="-2.07256">
        <ele>1.5</ele>
        <time>2020-06-04T12:49:48Z</time>
      </trkpt>
      <trkpt lat="46.8617" lon="-2.07247">
        <ele>1.5</ele>
        <time>2020-06-04T12:49:49Z</time>
      </trkpt>
      <trkpt lat="46.86173" lon="-2.0724">
        <ele>1.5</ele>
        <time>2020-06-04T12:49:50Z</time>
      </trkpt>
      <trkpt lat="46.86177" lon="-2.07233">
        <ele>1.5</ele>
        <time>2020-06-04T12:49:51Z</time>
      </trkpt>
      <trkpt lat="46.86181" lon="-2.07227">
        <ele>1.5</ele>
        <time>2020-06-04T12:49:52Z</time>
      </trkpt>
      <trkpt lat="46.86182" lon="-2.07218">
        <ele>1.5</ele>
        <time>2020-06-04T12:49:53Z</time>
      </trkpt>
      <trkpt lat="46.86186" lon="-2.07212">
        <ele>1.5</ele>
        <time>2020-06-04T12:49:54Z</time>
      </trkpt>
      <trkpt lat="46.86189" lon="-2.07205">
        <ele>1.5</ele>
        <time>2020-06-04T12:49:55Z</time>
      </trkpt>
      <trkpt lat="46.86193" lon="-2.07198">
        <ele>1.5</ele>
        <time>2020-06-04T12:49:56Z</time>
      </trkpt>
      <trkpt lat="46.86195" lon="-2.07191">
        <ele>1.5</ele>
        <time>2020-06-04T12:49:57Z</time>
      </trkpt>
      <trkpt lat="46.86198" lon="-2.07184">
        <ele>1.5</ele>
        <time>2020-06-04T12:49:58Z</time>
      </trkpt>
      <trkpt lat="46.862" lon="-2.07177">
        <ele>1.5</ele>
        <time>2020-06-04T12:49:59Z</time>
      </trkpt>
      <trkpt lat="46.86201" lon="-2.07169">
        <ele>1.5</ele>
        <time>2020-06-04T12:50:00Z</time>
      </trkpt>
      <trkpt lat="46.86204" lon="-2.07161">
        <ele>1.5</ele>
        <time>2020-06-04T12:50:01Z</time>
      </trkpt>
      <trkpt lat="46.86205" lon="-2.07153">
        <ele>1.5</ele>
        <time>2020-06-04T12:50:02Z</time>
      </trkpt>
      <trkpt lat="46.86207" lon="-2.07145">
        <ele>1.5</ele>
        <time>2020-06-04T12:50:03Z</time>
      </trkpt>
      <trkpt lat="46.86209" lon="-2.07137">
        <ele>1.5</ele>
        <time>2020-06-04T12:50:04Z</time>
      </trkpt>
      <trkpt lat="46.86211" lon="-2.0713">
        <ele>1.5</ele>
        <time>2020-06-04T12:50:05Z</time>
      </trkpt>
      <trkpt lat="46.86213" lon="-2.07123">
        <ele>1.5</ele>
        <time>2020-06-04T12:50:06Z</time>
      </trkpt>
      <trkpt lat="46.86215" lon="-2.07116">
        <ele>1.5</ele>
        <time>2020-06-04T12:50:07Z</time>
      </trkpt>
      <trkpt lat="46.86218" lon="-2.07109">
        <ele>1.5</ele>
        <time>2020-06-04T12:50:08Z</time>
      </trkpt>
      <trkpt lat="46.8622" lon="-2.071">
        <ele>1.5</ele>
        <time>2020-06-04T12:50:09Z</time>
      </trkpt>
      <trkpt lat="46.86222" lon="-2.07093">
        <ele>1.5</ele>
        <time>2020-06-04T12:50:10Z</time>
      </trkpt>
      <trkpt lat="46.86223" lon="-2.07086">
        <ele>1.5</ele>
        <time>2020-06-04T12:50:11Z</time>
      </trkpt>
      <trkpt lat="46.86223" lon="-2.07077">
        <ele>1.5</ele>
        <time>2020-06-04T12:50:12Z</time>
      </trkpt>
      <trkpt lat="46.86225" lon="-2.0707">
        <ele>1.5</ele>
        <time>2020-06-04T12:50:13Z</time>
      </trkpt>
      <trkpt lat="46.86226" lon="-2.07062">
        <ele>1.5</ele>
        <time>2020-06-04T12:50:14Z</time>
      </trkpt>
      <trkpt lat="46.86227" lon="-2.07054">
        <ele>1.5</ele>
        <time>2020-06-04T12:50:15Z</time>
      </trkpt>
      <trkpt lat="46.86228" lon="-2.07045">
        <ele>1.5</ele>
        <time>2020-06-04T12:50:16Z</time>
      </trkpt>
      <trkpt lat="46.8623" lon="-2.07037">
        <ele>1.5</ele>
        <time>2020-06-04T12:50:17Z</time>
      </trkpt>
      <trkpt lat="46.86233" lon="-2.07029">
        <ele>1.5</ele>
        <time>2020-06-04T12:50:18Z</time>
      </trkpt>
      <trkpt lat="46.86236" lon="-2.07022">
        <ele>1.5</ele>
        <time>2020-06-04T12:50:19Z</time>
      </trkpt>
      <trkpt lat="46.86239" lon="-2.07014">
        <ele>1.5</ele>
        <time>2020-06-04T12:50:20Z</time>
      </trkpt>
      <trkpt lat="46.86243" lon="-2.07008">
        <ele>1.5</ele>
        <time>2020-06-04T12:50:21Z</time>
      </trkpt>
      <trkpt lat="46.86246" lon="-2.07001">
        <ele>1.5</ele>
        <time>2020-06-04T12:50:22Z</time>
      </trkpt>
      <trkpt lat="46.8625" lon="-2.06993">
        <ele>1.5</ele>
        <time>2020-06-04T12:50:23Z</time>
      </trkpt>
      <trkpt lat="46.86254" lon="-2.06987">
        <ele>1.4</ele>
        <time>2020-06-04T12:50:24Z</time>
      </trkpt>
      <trkpt lat="46.86257" lon="-2.0698">
        <ele>1.4</ele>
        <time>2020-06-04T12:50:25Z</time>
      </trkpt>
      <trkpt lat="46.8626" lon="-2.06972">
        <ele>1.4</ele>
        <time>2020-06-04T12:50:26Z</time>
      </trkpt>
      <trkpt lat="46.86263" lon="-2.06966">
        <ele>1.4</ele>
        <time>2020-06-04T12:50:27Z</time>
      </trkpt>
      <trkpt lat="46.86266" lon="-2.06959">
        <ele>1.4</ele>
        <time>2020-06-04T12:50:28Z</time>
      </trkpt>
      <trkpt lat="46.86269" lon="-2.06952">
        <ele>1.4</ele>
        <time>2020-06-04T12:50:29Z</time>
      </trkpt>
      <trkpt lat="46.86271" lon="-2.06945">
        <ele>1.4</ele>
        <time>2020-06-04T12:50:30Z</time>
      </trkpt>
      <trkpt lat="46.86274" lon="-2.06938">
        <ele>1.4</ele>
        <time>2020-06-04T12:50:31Z</time>
      </trkpt>
      <trkpt lat="46.86277" lon="-2.06931">
        <ele>1.4</ele>
        <time>2020-06-04T12:50:32Z</time>
      </trkpt>
      <trkpt lat="46.8628" lon="-2.06924">
        <ele>1.4</ele>
        <time>2020-06-04T12:50:33Z</time>
      </trkpt>
      <trkpt lat="46.86283" lon="-2.06917">
        <ele>1.4</ele>
        <time>2020-06-04T12:50:34Z</time>
      </trkpt>
      <trkpt lat="46.86285" lon="-2.06909">
        <ele>1.4</ele>
        <time>2020-06-04T12:50:35Z</time>
      </trkpt>
      <trkpt lat="46.86288" lon="-2.06903">
        <ele>1.3</ele>
        <time>2020-06-04T12:50:36Z</time>
      </trkpt>
      <trkpt lat="46.8629" lon="-2.06896">
        <ele>1.3</ele>
        <time>2020-06-04T12:50:37Z</time>
      </trkpt>
      <trkpt lat="46.86292" lon="-2.0689">
        <ele>1.3</ele>
        <time>2020-06-04T12:50:38Z</time>
      </trkpt>
      <trkpt lat="46.86295" lon="-2.06883">
        <ele>1.3</ele>
        <time>2020-06-04T12:50:39Z</time>
      </trkpt>
      <trkpt lat="46.86297" lon="-2.06876">
        <ele>1.3</ele>
        <time>2020-06-04T12:50:40Z</time>
      </trkpt>
      <trkpt lat="46.86299" lon="-2.0687">
        <ele>1.3</ele>
        <time>2020-06-04T12:50:41Z</time>
      </trkpt>
      <trkpt lat="46.86303" lon="-2.06864">
        <ele>1.3</ele>
        <time>2020-06-04T12:50:42Z</time>
      </trkpt>
      <trkpt lat="46.86305" lon="-2.06858">
        <ele>1.3</ele>
        <time>2020-06-04T12:50:43Z</time>
      </trkpt>
      <trkpt lat="46.86307" lon="-2.06852">
        <ele>1.2</ele>
        <time>2020-06-04T12:50:44Z</time>
      </trkpt>
      <trkpt lat="46.86308" lon="-2.06844">
        <ele>1.2</ele>
        <time>2020-06-04T12:50:45Z</time>
      </trkpt>
      <trkpt lat="46.86308" lon="-2.06835">
        <ele>1.2</ele>
        <time>2020-06-04T12:50:46Z</time>
      </trkpt>
      <trkpt lat="46.86308" lon="-2.06827">
        <ele>1.2</ele>
        <time>2020-06-04T12:50:47Z</time>
      </trkpt>
      <trkpt lat="46.86308" lon="-2.06819">
        <ele>1.2</ele>
        <time>2020-06-04T12:50:48Z</time>
      </trkpt>
      <trkpt lat="46.86308" lon="-2.06811">
        <ele>1.2</ele>
        <time>2020-06-04T12:50:49Z</time>
      </trkpt>
      <trkpt lat="46.86309" lon="-2.06803">
        <ele>1.2</ele>
        <time>2020-06-04T12:50:50Z</time>
      </trkpt>
      <trkpt lat="46.8631" lon="-2.06795">
        <ele>1.2</ele>
        <time>2020-06-04T12:50:51Z</time>
      </trkpt>
      <trkpt lat="46.8631" lon="-2.06787">
        <ele>1.2</ele>
        <time>2020-06-04T12:50:52Z</time>
      </trkpt>
      <trkpt lat="46.8631" lon="-2.06779">
        <ele>1.2</ele>
        <time>2020-06-04T12:50:53Z</time>
      </trkpt>
      <trkpt lat="46.8631" lon="-2.06771">
        <ele>1.2</ele>
        <time>2020-06-04T12:50:54Z</time>
      </trkpt>
      <trkpt lat="46.8631" lon="-2.06763">
        <ele>1.2</ele>
        <time>2020-06-04T12:50:55Z</time>
      </trkpt>
      <trkpt lat="46.86311" lon="-2.06754">
        <ele>1.2</ele>
        <time>2020-06-04T12:50:56Z</time>
      </trkpt>
      <trkpt lat="46.86311" lon="-2.06746">
        <ele>1.2</ele>
        <time>2020-06-04T12:50:57Z</time>
      </trkpt>
      <trkpt lat="46.86312" lon="-2.06738">
        <ele>1.2</ele>
        <time>2020-06-04T12:50:58Z</time>
      </trkpt>
      <trkpt lat="46.86314" lon="-2.0673">
        <ele>1.2</ele>
        <time>2020-06-04T12:50:59Z</time>
      </trkpt>
      <trkpt lat="46.86315" lon="-2.06722">
        <ele>1.2</ele>
        <time>2020-06-04T12:51:00Z</time>
      </trkpt>
      <trkpt lat="46.86317" lon="-2.06714">
        <ele>1.2</ele>
        <time>2020-06-04T12:51:01Z</time>
      </trkpt>
      <trkpt lat="46.86318" lon="-2.06707">
        <ele>1.2</ele>
        <time>2020-06-04T12:51:02Z</time>
      </trkpt>
      <trkpt lat="46.8632" lon="-2.06699">
        <ele>1.2</ele>
        <time>2020-06-04T12:51:03Z</time>
      </trkpt>
      <trkpt lat="46.86322" lon="-2.06691">
        <ele>1.1</ele>
        <time>2020-06-04T12:51:04Z</time>
      </trkpt>
      <trkpt lat="46.86324" lon="-2.06684">
        <ele>1.1</ele>
        <time>2020-06-04T12:51:05Z</time>
      </trkpt>
      <trkpt lat="46.86327" lon="-2.06677">
        <ele>1.1</ele>
        <time>2020-06-04T12:51:06Z</time>
      </trkpt>
      <trkpt lat="46.86329" lon="-2.0667">
        <ele>1.2</ele>
        <time>2020-06-04T12:51:07Z</time>
      </trkpt>
      <trkpt lat="46.86333" lon="-2.06663">
        <ele>1.2</ele>
        <time>2020-06-04T12:51:08Z</time>
      </trkpt>
      <trkpt lat="46.86336" lon="-2.06656">
        <ele>1.2</ele>
        <time>2020-06-04T12:51:09Z</time>
      </trkpt>
      <trkpt lat="46.86338" lon="-2.06648">
        <ele>1.2</ele>
        <time>2020-06-04T12:51:10Z</time>
      </trkpt>
      <trkpt lat="46.86341" lon="-2.06641">
        <ele>1.2</ele>
        <time>2020-06-04T12:51:11Z</time>
      </trkpt>
      <trkpt lat="46.86345" lon="-2.06634">
        <ele>1.2</ele>
        <time>2020-06-04T12:51:12Z</time>
      </trkpt>
      <trkpt lat="46.86348" lon="-2.06627">
        <ele>1.2</ele>
        <time>2020-06-04T12:51:13Z</time>
      </trkpt>
      <trkpt lat="46.8635" lon="-2.06618">
        <ele>1.2</ele>
        <time>2020-06-04T12:51:14Z</time>
      </trkpt>
      <trkpt lat="46.86353" lon="-2.0661">
        <ele>1.2</ele>
        <time>2020-06-04T12:51:15Z</time>
      </trkpt>
      <trkpt lat="46.86356" lon="-2.06604">
        <ele>1.2</ele>
        <time>2020-06-04T12:51:16Z</time>
      </trkpt>
      <trkpt lat="46.86358" lon="-2.06595">
        <ele>1.3</ele>
        <time>2020-06-04T12:51:17Z</time>
      </trkpt>
      <trkpt lat="46.86359" lon="-2.06587">
        <ele>1.3</ele>
        <time>2020-06-04T12:51:18Z</time>
      </trkpt>
      <trkpt lat="46.86363" lon="-2.0658">
        <ele>1.3</ele>
        <time>2020-06-04T12:51:19Z</time>
      </trkpt>
      <trkpt lat="46.86366" lon="-2.06573">
        <ele>1.3</ele>
        <time>2020-06-04T12:51:20Z</time>
      </trkpt>
      <trkpt lat="46.86369" lon="-2.06565">
        <ele>1.4</ele>
        <time>2020-06-04T12:51:21Z</time>
      </trkpt>
      <trkpt lat="46.86371" lon="-2.06557">
        <ele>1.4</ele>
        <time>2020-06-04T12:51:22Z</time>
      </trkpt>
      <trkpt lat="46.86374" lon="-2.0655">
        <ele>1.4</ele>
        <time>2020-06-04T12:51:23Z</time>
      </trkpt>
      <trkpt lat="46.86377" lon="-2.06543">
        <ele>1.4</ele>
        <time>2020-06-04T12:51:24Z</time>
      </trkpt>
      <trkpt lat="46.8638" lon="-2.06536">
        <ele>1.4</ele>
        <time>2020-06-04T12:51:25Z</time>
      </trkpt>
      <trkpt lat="46.86383" lon="-2.0653">
        <ele>1.4</ele>
        <time>2020-06-04T12:51:26Z</time>
      </trkpt>
      <trkpt lat="46.86384" lon="-2.06521">
        <ele>1.4</ele>
        <time>2020-06-04T12:51:27Z</time>
      </trkpt>
      <trkpt lat="46.86387" lon="-2.06514">
        <ele>1.4</ele>
        <time>2020-06-04T12:51:28Z</time>
      </trkpt>
      <trkpt lat="46.8639" lon="-2.06507">
        <ele>1.4</ele>
        <time>2020-06-04T12:51:29Z</time>
      </trkpt>
      <trkpt lat="46.86393" lon="-2.065">
        <ele>1.4</ele>
        <time>2020-06-04T12:51:30Z</time>
      </trkpt>
      <trkpt lat="46.86395" lon="-2.06493">
        <ele>1.4</ele>
        <time>2020-06-04T12:51:31Z</time>
      </trkpt>
      <trkpt lat="46.86398" lon="-2.06486">
        <ele>1.4</ele>
        <time>2020-06-04T12:51:32Z</time>
      </trkpt>
      <trkpt lat="46.864" lon="-2.06479">
        <ele>1.4</ele>
        <time>2020-06-04T12:51:33Z</time>
      </trkpt>
      <trkpt lat="46.86401" lon="-2.06472">
        <ele>1.4</ele>
        <time>2020-06-04T12:51:34Z</time>
      </trkpt>
      <trkpt lat="46.86403" lon="-2.06465">
        <ele>1.4</ele>
        <time>2020-06-04T12:51:35Z</time>
      </trkpt>
      <trkpt lat="46.86405" lon="-2.06457">
        <ele>1.4</ele>
        <time>2020-06-04T12:51:36Z</time>
      </trkpt>
      <trkpt lat="46.86406" lon="-2.06449">
        <ele>1.4</ele>
        <time>2020-06-04T12:51:37Z</time>
      </trkpt>
      <trkpt lat="46.86407" lon="-2.06441">
        <ele>1.4</ele>
        <time>2020-06-04T12:51:38Z</time>
      </trkpt>
      <trkpt lat="46.86407" lon="-2.06433">
        <ele>1.4</ele>
        <time>2020-06-04T12:51:39Z</time>
      </trkpt>
      <trkpt lat="46.86408" lon="-2.06424">
        <ele>1.4</ele>
        <time>2020-06-04T12:51:40Z</time>
      </trkpt>
      <trkpt lat="46.8641" lon="-2.06417">
        <ele>1.4</ele>
        <time>2020-06-04T12:51:41Z</time>
      </trkpt>
      <trkpt lat="46.86412" lon="-2.06408">
        <ele>1.4</ele>
        <time>2020-06-04T12:51:42Z</time>
      </trkpt>
      <trkpt lat="46.86413" lon="-2.064">
        <ele>1.5</ele>
        <time>2020-06-04T12:51:43Z</time>
      </trkpt>
      <trkpt lat="46.86413" lon="-2.06391">
        <ele>1.5</ele>
        <time>2020-06-04T12:51:44Z</time>
      </trkpt>
      <trkpt lat="46.86413" lon="-2.06382">
        <ele>1.5</ele>
        <time>2020-06-04T12:51:45Z</time>
      </trkpt>
      <trkpt lat="46.86415" lon="-2.06373">
        <ele>1.5</ele>
        <time>2020-06-04T12:51:46Z</time>
      </trkpt>
      <trkpt lat="46.86417" lon="-2.06364">
        <ele>1.5</ele>
        <time>2020-06-04T12:51:47Z</time>
      </trkpt>
      <trkpt lat="46.86418" lon="-2.06356">
        <ele>1.5</ele>
        <time>2020-06-04T12:51:48Z</time>
      </trkpt>
      <trkpt lat="46.8642" lon="-2.06347">
        <ele>1.5</ele>
        <time>2020-06-04T12:51:49Z</time>
      </trkpt>
      <trkpt lat="46.86421" lon="-2.06339">
        <ele>1.5</ele>
        <time>2020-06-04T12:51:50Z</time>
      </trkpt>
      <trkpt lat="46.86423" lon="-2.06331">
        <ele>1.5</ele>
        <time>2020-06-04T12:51:51Z</time>
      </trkpt>
      <trkpt lat="46.86425" lon="-2.06323">
        <ele>1.5</ele>
        <time>2020-06-04T12:51:52Z</time>
      </trkpt>
      <trkpt lat="46.86426" lon="-2.06314">
        <ele>1.5</ele>
        <time>2020-06-04T12:51:53Z</time>
      </trkpt>
      <trkpt lat="46.86428" lon="-2.06306">
        <ele>1.5</ele>
        <time>2020-06-04T12:51:54Z</time>
      </trkpt>
      <trkpt lat="46.86429" lon="-2.06298">
        <ele>1.6</ele>
        <time>2020-06-04T12:51:55Z</time>
      </trkpt>
      <trkpt lat="46.8643" lon="-2.0629">
        <ele>1.6</ele>
        <time>2020-06-04T12:51:56Z</time>
      </trkpt>
      <trkpt lat="46.86432" lon="-2.06282">
        <ele>1.6</ele>
        <time>2020-06-04T12:51:57Z</time>
      </trkpt>
      <trkpt lat="46.86434" lon="-2.06273">
        <ele>1.6</ele>
        <time>2020-06-04T12:51:58Z</time>
      </trkpt>
      <trkpt lat="46.86436" lon="-2.06263">
        <ele>1.6</ele>
        <time>2020-06-04T12:51:59Z</time>
      </trkpt>
      <trkpt lat="46.86438" lon="-2.06255">
        <ele>1.6</ele>
        <time>2020-06-04T12:52:00Z</time>
      </trkpt>
      <trkpt lat="46.8644" lon="-2.06247">
        <ele>1.6</ele>
        <time>2020-06-04T12:52:01Z</time>
      </trkpt>
      <trkpt lat="46.86442" lon="-2.06233">
        <ele>1.6</ele>
        <time>2020-06-04T12:52:02Z</time>
      </trkpt>
      <trkpt lat="46.86444" lon="-2.06228">
        <ele>1.6</ele>
        <time>2020-06-04T12:52:03Z</time>
      </trkpt>
      <trkpt lat="46.86446" lon="-2.06217">
        <ele>1.6</ele>
        <time>2020-06-04T12:52:04Z</time>
      </trkpt>
      <trkpt lat="46.86449" lon="-2.06206">
        <ele>1.6</ele>
        <time>2020-06-04T12:52:05Z</time>
      </trkpt>
      <trkpt lat="46.8645" lon="-2.06194">
        <ele>1.6</ele>
        <time>2020-06-04T12:52:06Z</time>
      </trkpt>
      <trkpt lat="46.86453" lon="-2.06185">
        <ele>1.6</ele>
        <time>2020-06-04T12:52:07Z</time>
      </trkpt>
      <trkpt lat="46.86456" lon="-2.06176">
        <ele>1.6</ele>
        <time>2020-06-04T12:52:08Z</time>
      </trkpt>
      <trkpt lat="46.86457" lon="-2.06166">
        <ele>1.6</ele>
        <time>2020-06-04T12:52:09Z</time>
      </trkpt>
      <trkpt lat="46.86459" lon="-2.06158">
        <ele>1.7</ele>
        <time>2020-06-04T12:52:10Z</time>
      </trkpt>
      <trkpt lat="46.86461" lon="-2.0615">
        <ele>1.7</ele>
        <time>2020-06-04T12:52:11Z</time>
      </trkpt>
      <trkpt lat="46.86463" lon="-2.06147">
        <ele>1.7</ele>
        <time>2020-06-04T12:52:12Z</time>
      </trkpt>
      <trkpt lat="46.86465" lon="-2.0614">
        <ele>1.7</ele>
        <time>2020-06-04T12:52:13Z</time>
      </trkpt>
      <trkpt lat="46.86467" lon="-2.06133">
        <ele>1.7</ele>
        <time>2020-06-04T12:52:14Z</time>
      </trkpt>
      <trkpt lat="46.86467" lon="-2.06126">
        <ele>1.7</ele>
        <time>2020-06-04T12:52:15Z</time>
      </trkpt>
      <trkpt lat="46.86469" lon="-2.0612">
        <ele>1.7</ele>
        <time>2020-06-04T12:52:16Z</time>
      </trkpt>
      <trkpt lat="46.86471" lon="-2.06113">
        <ele>1.7</ele>
        <time>2020-06-04T12:52:17Z</time>
      </trkpt>
      <trkpt lat="46.86472" lon="-2.06107">
        <ele>1.7</ele>
        <time>2020-06-04T12:52:18Z</time>
      </trkpt>
      <trkpt lat="46.86474" lon="-2.06096">
        <ele>1.7</ele>
        <time>2020-06-04T12:52:19Z</time>
      </trkpt>
      <trkpt lat="46.86475" lon="-2.06089">
        <ele>1.7</ele>
        <time>2020-06-04T12:52:20Z</time>
      </trkpt>
      <trkpt lat="46.86477" lon="-2.06084">
        <ele>1.7</ele>
        <time>2020-06-04T12:52:21Z</time>
      </trkpt>
      <trkpt lat="46.86478" lon="-2.06079">
        <ele>1.7</ele>
        <time>2020-06-04T12:52:22Z</time>
      </trkpt>
      <trkpt lat="46.8648" lon="-2.06073">
        <ele>1.7</ele>
        <time>2020-06-04T12:52:23Z</time>
      </trkpt>
      <trkpt lat="46.86483" lon="-2.06066">
        <ele>1.8</ele>
        <time>2020-06-04T12:52:24Z</time>
      </trkpt>
      <trkpt lat="46.86485" lon="-2.06058">
        <ele>1.8</ele>
        <time>2020-06-04T12:52:25Z</time>
      </trkpt>
      <trkpt lat="46.86487" lon="-2.0605">
        <ele>1.8</ele>
        <time>2020-06-04T12:52:26Z</time>
      </trkpt>
      <trkpt lat="46.86489" lon="-2.06044">
        <ele>1.8</ele>
        <time>2020-06-04T12:52:27Z</time>
      </trkpt>
      <trkpt lat="46.86491" lon="-2.06037">
        <ele>1.8</ele>
        <time>2020-06-04T12:52:28Z</time>
      </trkpt>
      <trkpt lat="46.86492" lon="-2.06028">
        <ele>1.8</ele>
        <time>2020-06-04T12:52:29Z</time>
      </trkpt>
      <trkpt lat="46.86494" lon="-2.06022">
        <ele>1.8</ele>
        <time>2020-06-04T12:52:30Z</time>
      </trkpt>
      <trkpt lat="46.86497" lon="-2.06017">
        <ele>1.8</ele>
        <time>2020-06-04T12:52:31Z</time>
      </trkpt>
      <trkpt lat="46.86498" lon="-2.06011">
        <ele>1.8</ele>
        <time>2020-06-04T12:52:32Z</time>
      </trkpt>
      <trkpt lat="46.86499" lon="-2.06006">
        <ele>1.8</ele>
        <time>2020-06-04T12:52:33Z</time>
      </trkpt>
      <trkpt lat="46.865" lon="-2.06005">
        <ele>1.8</ele>
        <time>2020-06-04T12:52:34Z</time>
      </trkpt>
      <trkpt lat="46.86502" lon="-2.05999">
        <ele>1.9</ele>
        <time>2020-06-04T12:52:35Z</time>
      </trkpt>
      <trkpt lat="46.86503" lon="-2.05998">
        <ele>1.9</ele>
        <time>2020-06-04T12:52:36Z</time>
      </trkpt>
      <trkpt lat="46.86507" lon="-2.05994">
        <ele>1.9</ele>
        <time>2020-06-04T12:52:37Z</time>
      </trkpt>
      <trkpt lat="46.86509" lon="-2.05991">
        <ele>1.9</ele>
        <time>2020-06-04T12:52:38Z</time>
      </trkpt>
      <trkpt lat="46.86513" lon="-2.05987">
        <ele>1.9</ele>
        <time>2020-06-04T12:52:39Z</time>
      </trkpt>
      <trkpt lat="46.86516" lon="-2.05982">
        <ele>1.9</ele>
        <time>2020-06-04T12:52:40Z</time>
      </trkpt>
      <trkpt lat="46.86518" lon="-2.0598">
        <ele>1.9</ele>
        <time>2020-06-04T12:52:41Z</time>
      </trkpt>
      <trkpt lat="46.86522" lon="-2.05978">
        <ele>1.9</ele>
        <time>2020-06-04T12:52:42Z</time>
      </trkpt>
      <trkpt lat="46.86524" lon="-2.05976">
        <ele>1.9</ele>
        <time>2020-06-04T12:52:43Z</time>
      </trkpt>
      <trkpt lat="46.86526" lon="-2.05972">
        <ele>1.9</ele>
        <time>2020-06-04T12:52:44Z</time>
      </trkpt>
      <trkpt lat="46.86531" lon="-2.05969">
        <ele>1.9</ele>
        <time>2020-06-04T12:52:45Z</time>
      </trkpt>
      <trkpt lat="46.86534" lon="-2.05965">
        <ele>1.9</ele>
        <time>2020-06-04T12:52:46Z</time>
      </trkpt>
      <trkpt lat="46.86538" lon="-2.05962">
        <ele>1.9</ele>
        <time>2020-06-04T12:52:47Z</time>
      </trkpt>
      <trkpt lat="46.86543" lon="-2.05959">
        <ele>1.8</ele>
        <time>2020-06-04T12:52:48Z</time>
      </trkpt>
      <trkpt lat="46.86547" lon="-2.05955">
        <ele>1.8</ele>
        <time>2020-06-04T12:52:49Z</time>
      </trkpt>
      <trkpt lat="46.86551" lon="-2.05951">
        <ele>1.8</ele>
        <time>2020-06-04T12:52:50Z</time>
      </trkpt>
      <trkpt lat="46.86555" lon="-2.05947">
        <ele>1.8</ele>
        <time>2020-06-04T12:52:51Z</time>
      </trkpt>
      <trkpt lat="46.86559" lon="-2.05943">
        <ele>1.8</ele>
        <time>2020-06-04T12:52:52Z</time>
      </trkpt>
      <trkpt lat="46.86562" lon="-2.05939">
        <ele>1.8</ele>
        <time>2020-06-04T12:52:53Z</time>
      </trkpt>
      <trkpt lat="46.86565" lon="-2.05935">
        <ele>1.8</ele>
        <time>2020-06-04T12:52:54Z</time>
      </trkpt>
      <trkpt lat="46.86569" lon="-2.05931">
        <ele>1.8</ele>
        <time>2020-06-04T12:52:55Z</time>
      </trkpt>
      <trkpt lat="46.86572" lon="-2.05928">
        <ele>1.8</ele>
        <time>2020-06-04T12:52:56Z</time>
      </trkpt>
      <trkpt lat="46.86576" lon="-2.05924">
        <ele>1.7</ele>
        <time>2020-06-04T12:52:57Z</time>
      </trkpt>
      <trkpt lat="46.86578" lon="-2.05921">
        <ele>1.7</ele>
        <time>2020-06-04T12:52:58Z</time>
      </trkpt>
      <trkpt lat="46.86581" lon="-2.05917">
        <ele>1.7</ele>
        <time>2020-06-04T12:52:59Z</time>
      </trkpt>
      <trkpt lat="46.86585" lon="-2.05913">
        <ele>1.7</ele>
        <time>2020-06-04T12:53:00Z</time>
      </trkpt>
      <trkpt lat="46.86589" lon="-2.05909">
        <ele>1.7</ele>
        <time>2020-06-04T12:53:01Z</time>
      </trkpt>
      <trkpt lat="46.86591" lon="-2.05907">
        <ele>1.7</ele>
        <time>2020-06-04T12:53:02Z</time>
      </trkpt>
      <trkpt lat="46.86595" lon="-2.05903">
        <ele>1.7</ele>
        <time>2020-06-04T12:53:03Z</time>
      </trkpt>
      <trkpt lat="46.86599" lon="-2.05898">
        <ele>1.7</ele>
        <time>2020-06-04T12:53:04Z</time>
      </trkpt>
      <trkpt lat="46.86604" lon="-2.05893">
        <ele>1.7</ele>
        <time>2020-06-04T12:53:05Z</time>
      </trkpt>
      <trkpt lat="46.86608" lon="-2.05888">
        <ele>1.7</ele>
        <time>2020-06-04T12:53:06Z</time>
      </trkpt>
      <trkpt lat="46.86612" lon="-2.05883">
        <ele>1.7</ele>
        <time>2020-06-04T12:53:07Z</time>
      </trkpt>
      <trkpt lat="46.86617" lon="-2.05877">
        <ele>1.7</ele>
        <time>2020-06-04T12:53:08Z</time>
      </trkpt>
      <trkpt lat="46.8662" lon="-2.0587">
        <ele>1.7</ele>
        <time>2020-06-04T12:53:09Z</time>
      </trkpt>
      <trkpt lat="46.86625" lon="-2.05865">
        <ele>1.6</ele>
        <time>2020-06-04T12:53:10Z</time>
      </trkpt>
      <trkpt lat="46.86629" lon="-2.0586">
        <ele>1.6</ele>
        <time>2020-06-04T12:53:11Z</time>
      </trkpt>
      <trkpt lat="46.86632" lon="-2.05854">
        <ele>1.6</ele>
        <time>2020-06-04T12:53:12Z</time>
      </trkpt>
      <trkpt lat="46.86637" lon="-2.05848">
        <ele>1.6</ele>
        <time>2020-06-04T12:53:13Z</time>
      </trkpt>
      <trkpt lat="46.86639" lon="-2.0584">
        <ele>1.7</ele>
        <time>2020-06-04T12:53:14Z</time>
      </trkpt>
      <trkpt lat="46.86643" lon="-2.05833">
        <ele>1.7</ele>
        <time>2020-06-04T12:53:15Z</time>
      </trkpt>
      <trkpt lat="46.86646" lon="-2.05826">
        <ele>1.7</ele>
        <time>2020-06-04T12:53:16Z</time>
      </trkpt>
      <trkpt lat="46.86649" lon="-2.0582">
        <ele>1.7</ele>
        <time>2020-06-04T12:53:17Z</time>
      </trkpt>
      <trkpt lat="46.86652" lon="-2.05815">
        <ele>1.7</ele>
        <time>2020-06-04T12:53:18Z</time>
      </trkpt>
      <trkpt lat="46.86654" lon="-2.05808">
        <ele>1.7</ele>
        <time>2020-06-04T12:53:19Z</time>
      </trkpt>
      <trkpt lat="46.86657" lon="-2.05801">
        <ele>1.7</ele>
        <time>2020-06-04T12:53:20Z</time>
      </trkpt>
      <trkpt lat="46.8666" lon="-2.05792">
        <ele>1.7</ele>
        <time>2020-06-04T12:53:21Z</time>
      </trkpt>
      <trkpt lat="46.86662" lon="-2.05784">
        <ele>1.7</ele>
        <time>2020-06-04T12:53:22Z</time>
      </trkpt>
      <trkpt lat="46.86663" lon="-2.05775">
        <ele>1.7</ele>
        <time>2020-06-04T12:53:23Z</time>
      </trkpt>
      <trkpt lat="46.86666" lon="-2.05769">
        <ele>1.7</ele>
        <time>2020-06-04T12:53:24Z</time>
      </trkpt>
      <trkpt lat="46.86669" lon="-2.05761">
        <ele>1.8</ele>
        <time>2020-06-04T12:53:25Z</time>
      </trkpt>
      <trkpt lat="46.86671" lon="-2.05754">
        <ele>1.8</ele>
        <time>2020-06-04T12:53:26Z</time>
      </trkpt>
      <trkpt lat="46.86674" lon="-2.05747">
        <ele>1.8</ele>
        <time>2020-06-04T12:53:27Z</time>
      </trkpt>
      <trkpt lat="46.86677" lon="-2.05741">
        <ele>1.8</ele>
        <time>2020-06-04T12:53:28Z</time>
      </trkpt>
      <trkpt lat="46.86681" lon="-2.05734">
        <ele>1.8</ele>
        <time>2020-06-04T12:53:29Z</time>
      </trkpt>
      <trkpt lat="46.86684" lon="-2.05727">
        <ele>1.8</ele>
        <time>2020-06-04T12:53:30Z</time>
      </trkpt>
      <trkpt lat="46.86687" lon="-2.0572">
        <ele>1.8</ele>
        <time>2020-06-04T12:53:31Z</time>
      </trkpt>
      <trkpt lat="46.8669" lon="-2.05713">
        <ele>1.8</ele>
        <time>2020-06-04T12:53:32Z</time>
      </trkpt>
      <trkpt lat="46.86692" lon="-2.05706">
        <ele>1.8</ele>
        <time>2020-06-04T12:53:33Z</time>
      </trkpt>
      <trkpt lat="46.86695" lon="-2.057">
        <ele>1.8</ele>
        <time>2020-06-04T12:53:34Z</time>
      </trkpt>
      <trkpt lat="46.86698" lon="-2.05693">
        <ele>1.8</ele>
        <time>2020-06-04T12:53:35Z</time>
      </trkpt>
      <trkpt lat="46.86701" lon="-2.05686">
        <ele>1.8</ele>
        <time>2020-06-04T12:53:36Z</time>
      </trkpt>
      <trkpt lat="46.86703" lon="-2.05679">
        <ele>1.8</ele>
        <time>2020-06-04T12:53:37Z</time>
      </trkpt>
      <trkpt lat="46.86705" lon="-2.05673">
        <ele>1.8</ele>
        <time>2020-06-04T12:53:38Z</time>
      </trkpt>
      <trkpt lat="46.86706" lon="-2.05667">
        <ele>1.8</ele>
        <time>2020-06-04T12:53:39Z</time>
      </trkpt>
      <trkpt lat="46.86708" lon="-2.05661">
        <ele>1.8</ele>
        <time>2020-06-04T12:53:40Z</time>
      </trkpt>
      <trkpt lat="46.86709" lon="-2.05652">
        <ele>1.8</ele>
        <time>2020-06-04T12:53:41Z</time>
      </trkpt>
      <trkpt lat="46.8671" lon="-2.05644">
        <ele>1.8</ele>
        <time>2020-06-04T12:53:42Z</time>
      </trkpt>
      <trkpt lat="46.86709" lon="-2.05633">
        <ele>1.8</ele>
        <time>2020-06-04T12:53:43Z</time>
      </trkpt>
      <trkpt lat="46.86709" lon="-2.05625">
        <ele>1.8</ele>
        <time>2020-06-04T12:53:44Z</time>
      </trkpt>
      <trkpt lat="46.86709" lon="-2.05617">
        <ele>1.8</ele>
        <time>2020-06-04T12:53:45Z</time>
      </trkpt>
      <trkpt lat="46.86709" lon="-2.05607">
        <ele>1.8</ele>
        <time>2020-06-04T12:53:46Z</time>
      </trkpt>
      <trkpt lat="46.86709" lon="-2.05599">
        <ele>1.8</ele>
        <time>2020-06-04T12:53:47Z</time>
      </trkpt>
      <trkpt lat="46.86709" lon="-2.0559">
        <ele>1.8</ele>
        <time>2020-06-04T12:53:48Z</time>
      </trkpt>
      <trkpt lat="46.86709" lon="-2.05582">
        <ele>1.9</ele>
        <time>2020-06-04T12:53:49Z</time>
      </trkpt>
      <trkpt lat="46.8671" lon="-2.05573">
        <ele>1.9</ele>
        <time>2020-06-04T12:53:50Z</time>
      </trkpt>
      <trkpt lat="46.8671" lon="-2.05566">
        <ele>1.9</ele>
        <time>2020-06-04T12:53:51Z</time>
      </trkpt>
      <trkpt lat="46.8671" lon="-2.05555">
        <ele>1.9</ele>
        <time>2020-06-04T12:53:52Z</time>
      </trkpt>
      <trkpt lat="46.86711" lon="-2.05546">
        <ele>1.8</ele>
        <time>2020-06-04T12:53:53Z</time>
      </trkpt>
      <trkpt lat="46.86712" lon="-2.05539">
        <ele>1.8</ele>
        <time>2020-06-04T12:53:54Z</time>
      </trkpt>
      <trkpt lat="46.86712" lon="-2.05531">
        <ele>1.8</ele>
        <time>2020-06-04T12:53:55Z</time>
      </trkpt>
      <trkpt lat="46.86712" lon="-2.05521">
        <ele>1.8</ele>
        <time>2020-06-04T12:53:56Z</time>
      </trkpt>
      <trkpt lat="46.86712" lon="-2.05513">
        <ele>1.8</ele>
        <time>2020-06-04T12:53:57Z</time>
      </trkpt>
      <trkpt lat="46.86712" lon="-2.05506">
        <ele>1.8</ele>
        <time>2020-06-04T12:53:58Z</time>
      </trkpt>
      <trkpt lat="46.86712" lon="-2.05498">
        <ele>1.8</ele>
        <time>2020-06-04T12:53:59Z</time>
      </trkpt>
      <trkpt lat="46.86713" lon="-2.05492">
        <ele>1.8</ele>
        <time>2020-06-04T12:54:00Z</time>
      </trkpt>
      <trkpt lat="46.86714" lon="-2.05485">
        <ele>1.8</ele>
        <time>2020-06-04T12:54:01Z</time>
      </trkpt>
      <trkpt lat="46.86715" lon="-2.05479">
        <ele>1.8</ele>
        <time>2020-06-04T12:54:02Z</time>
      </trkpt>
      <trkpt lat="46.86718" lon="-2.05471">
        <ele>1.8</ele>
        <time>2020-06-04T12:54:03Z</time>
      </trkpt>
      <trkpt lat="46.86722" lon="-2.05462">
        <ele>1.8</ele>
        <time>2020-06-04T12:54:04Z</time>
      </trkpt>
      <trkpt lat="46.86725" lon="-2.05453">
        <ele>1.8</ele>
        <time>2020-06-04T12:54:05Z</time>
      </trkpt>
      <trkpt lat="46.86729" lon="-2.05444">
        <ele>1.8</ele>
        <time>2020-06-04T12:54:06Z</time>
      </trkpt>
      <trkpt lat="46.86731" lon="-2.05438">
        <ele>1.8</ele>
        <time>2020-06-04T12:54:07Z</time>
      </trkpt>
      <trkpt lat="46.86734" lon="-2.05432">
        <ele>1.8</ele>
        <time>2020-06-04T12:54:08Z</time>
      </trkpt>
      <trkpt lat="46.86737" lon="-2.05425">
        <ele>1.8</ele>
        <time>2020-06-04T12:54:09Z</time>
      </trkpt>
      <trkpt lat="46.86741" lon="-2.05419">
        <ele>1.8</ele>
        <time>2020-06-04T12:54:10Z</time>
      </trkpt>
      <trkpt lat="46.86745" lon="-2.05414">
        <ele>1.8</ele>
        <time>2020-06-04T12:54:11Z</time>
      </trkpt>
      <trkpt lat="46.86748" lon="-2.05406">
        <ele>1.8</ele>
        <time>2020-06-04T12:54:12Z</time>
      </trkpt>
      <trkpt lat="46.86752" lon="-2.05402">
        <ele>1.8</ele>
        <time>2020-06-04T12:54:13Z</time>
      </trkpt>
      <trkpt lat="46.86755" lon="-2.05398">
        <ele>1.8</ele>
        <time>2020-06-04T12:54:14Z</time>
      </trkpt>
      <trkpt lat="46.8676" lon="-2.05393">
        <ele>1.8</ele>
        <time>2020-06-04T12:54:15Z</time>
      </trkpt>
      <trkpt lat="46.86763" lon="-2.05388">
        <ele>1.8</ele>
        <time>2020-06-04T12:54:16Z</time>
      </trkpt>
      <trkpt lat="46.86766" lon="-2.05383">
        <ele>1.8</ele>
        <time>2020-06-04T12:54:17Z</time>
      </trkpt>
      <trkpt lat="46.8677" lon="-2.05377">
        <ele>1.8</ele>
        <time>2020-06-04T12:54:18Z</time>
      </trkpt>
      <trkpt lat="46.86774" lon="-2.05372">
        <ele>1.8</ele>
        <time>2020-06-04T12:54:19Z</time>
      </trkpt>
      <trkpt lat="46.86778" lon="-2.05364">
        <ele>1.8</ele>
        <time>2020-06-04T12:54:20Z</time>
      </trkpt>
      <trkpt lat="46.86781" lon="-2.05357">
        <ele>1.8</ele>
        <time>2020-06-04T12:54:21Z</time>
      </trkpt>
      <trkpt lat="46.86784" lon="-2.05348">
        <ele>1.8</ele>
        <time>2020-06-04T12:54:22Z</time>
      </trkpt>
      <trkpt lat="46.86788" lon="-2.05341">
        <ele>1.8</ele>
        <time>2020-06-04T12:54:23Z</time>
      </trkpt>
      <trkpt lat="46.86791" lon="-2.05332">
        <ele>1.7</ele>
        <time>2020-06-04T12:54:24Z</time>
      </trkpt>
      <trkpt lat="46.86794" lon="-2.05324">
        <ele>1.7</ele>
        <time>2020-06-04T12:54:25Z</time>
      </trkpt>
      <trkpt lat="46.86796" lon="-2.05318">
        <ele>1.7</ele>
        <time>2020-06-04T12:54:26Z</time>
      </trkpt>
      <trkpt lat="46.86797" lon="-2.05308">
        <ele>1.7</ele>
        <time>2020-06-04T12:54:27Z</time>
      </trkpt>
      <trkpt lat="46.86799" lon="-2.05298">
        <ele>1.7</ele>
        <time>2020-06-04T12:54:28Z</time>
      </trkpt>
      <trkpt lat="46.868" lon="-2.05292">
        <ele>1.7</ele>
        <time>2020-06-04T12:54:29Z</time>
      </trkpt>
      <trkpt lat="46.868" lon="-2.05286">
        <ele>1.7</ele>
        <time>2020-06-04T12:54:30Z</time>
      </trkpt>
      <trkpt lat="46.868" lon="-2.05278">
        <ele>1.7</ele>
        <time>2020-06-04T12:54:31Z</time>
      </trkpt>
      <trkpt lat="46.868" lon="-2.05269">
        <ele>1.7</ele>
        <time>2020-06-04T12:54:32Z</time>
      </trkpt>
      <trkpt lat="46.86799" lon="-2.0526">
        <ele>1.7</ele>
        <time>2020-06-04T12:54:33Z</time>
      </trkpt>
      <trkpt lat="46.86799" lon="-2.05252">
        <ele>1.7</ele>
        <time>2020-06-04T12:54:34Z</time>
      </trkpt>
      <trkpt lat="46.86798" lon="-2.05244">
        <ele>1.7</ele>
        <time>2020-06-04T12:54:35Z</time>
      </trkpt>
      <trkpt lat="46.86797" lon="-2.05236">
        <ele>1.7</ele>
        <time>2020-06-04T12:54:36Z</time>
      </trkpt>
      <trkpt lat="46.86797" lon="-2.05226">
        <ele>1.7</ele>
        <time>2020-06-04T12:54:37Z</time>
      </trkpt>
      <trkpt lat="46.86796" lon="-2.0522">
        <ele>1.7</ele>
        <time>2020-06-04T12:54:38Z</time>
      </trkpt>
      <trkpt lat="46.86794" lon="-2.05212">
        <ele>1.7</ele>
        <time>2020-06-04T12:54:39Z</time>
      </trkpt>
      <trkpt lat="46.86793" lon="-2.05203">
        <ele>1.7</ele>
        <time>2020-06-04T12:54:40Z</time>
      </trkpt>
      <trkpt lat="46.86793" lon="-2.05197">
        <ele>1.7</ele>
        <time>2020-06-04T12:54:41Z</time>
      </trkpt>
      <trkpt lat="46.86793" lon="-2.05192">
        <ele>1.7</ele>
        <time>2020-06-04T12:54:42Z</time>
      </trkpt>
      <trkpt lat="46.86793" lon="-2.05184">
        <ele>1.7</ele>
        <time>2020-06-04T12:54:43Z</time>
      </trkpt>
      <trkpt lat="46.86794" lon="-2.05177">
        <ele>1.6</ele>
        <time>2020-06-04T12:54:44Z</time>
      </trkpt>
      <trkpt lat="46.86795" lon="-2.0517">
        <ele>1.6</ele>
        <time>2020-06-04T12:54:45Z</time>
      </trkpt>
      <trkpt lat="46.86797" lon="-2.05163">
        <ele>1.7</ele>
        <time>2020-06-04T12:54:46Z</time>
      </trkpt>
      <trkpt lat="46.86798" lon="-2.05155">
        <ele>1.7</ele>
        <time>2020-06-04T12:54:47Z</time>
      </trkpt>
      <trkpt lat="46.86801" lon="-2.05148">
        <ele>1.7</ele>
        <time>2020-06-04T12:54:48Z</time>
      </trkpt>
      <trkpt lat="46.86802" lon="-2.0514">
        <ele>1.7</ele>
        <time>2020-06-04T12:54:49Z</time>
      </trkpt>
      <trkpt lat="46.86804" lon="-2.05133">
        <ele>1.7</ele>
        <time>2020-06-04T12:54:50Z</time>
      </trkpt>
      <trkpt lat="46.86805" lon="-2.05126">
        <ele>1.8</ele>
        <time>2020-06-04T12:54:51Z</time>
      </trkpt>
      <trkpt lat="46.86807" lon="-2.0512">
        <ele>1.8</ele>
        <time>2020-06-04T12:54:52Z</time>
      </trkpt>
      <trkpt lat="46.86808" lon="-2.05113">
        <ele>1.8</ele>
        <time>2020-06-04T12:54:53Z</time>
      </trkpt>
      <trkpt lat="46.86809" lon="-2.05106">
        <ele>1.8</ele>
        <time>2020-06-04T12:54:54Z</time>
      </trkpt>
      <trkpt lat="46.86811" lon="-2.051">
        <ele>1.8</ele>
        <time>2020-06-04T12:54:55Z</time>
      </trkpt>
      <trkpt lat="46.86813" lon="-2.05092">
        <ele>1.8</ele>
        <time>2020-06-04T12:54:56Z</time>
      </trkpt>
      <trkpt lat="46.86814" lon="-2.05082">
        <ele>1.9</ele>
        <time>2020-06-04T12:54:57Z</time>
      </trkpt>
      <trkpt lat="46.86816" lon="-2.05072">
        <ele>1.9</ele>
        <time>2020-06-04T12:54:58Z</time>
      </trkpt>
      <trkpt lat="46.86818" lon="-2.05063">
        <ele>1.9</ele>
        <time>2020-06-04T12:54:59Z</time>
      </trkpt>
      <trkpt lat="46.86819" lon="-2.05054">
        <ele>1.9</ele>
        <time>2020-06-04T12:55:00Z</time>
      </trkpt>
      <trkpt lat="46.86822" lon="-2.05046">
        <ele>2</ele>
        <time>2020-06-04T12:55:01Z</time>
      </trkpt>
      <trkpt lat="46.86824" lon="-2.05038">
        <ele>2</ele>
        <time>2020-06-04T12:55:02Z</time>
      </trkpt>
      <trkpt lat="46.86826" lon="-2.0503">
        <ele>2</ele>
        <time>2020-06-04T12:55:03Z</time>
      </trkpt>
      <trkpt lat="46.86828" lon="-2.05023">
        <ele>2</ele>
        <time>2020-06-04T12:55:04Z</time>
      </trkpt>
      <trkpt lat="46.8683" lon="-2.05015">
        <ele>2</ele>
        <time>2020-06-04T12:55:05Z</time>
      </trkpt>
      <trkpt lat="46.86832" lon="-2.05008">
        <ele>2</ele>
        <time>2020-06-04T12:55:06Z</time>
      </trkpt>
      <trkpt lat="46.86834" lon="-2.05001">
        <ele>2</ele>
        <time>2020-06-04T12:55:07Z</time>
      </trkpt>
      <trkpt lat="46.86836" lon="-2.04992">
        <ele>2</ele>
        <time>2020-06-04T12:55:08Z</time>
      </trkpt>
      <trkpt lat="46.86837" lon="-2.04983">
        <ele>1.9</ele>
        <time>2020-06-04T12:55:09Z</time>
      </trkpt>
      <trkpt lat="46.86838" lon="-2.04972">
        <ele>1.9</ele>
        <time>2020-06-04T12:55:10Z</time>
      </trkpt>
      <trkpt lat="46.86839" lon="-2.04964">
        <ele>1.9</ele>
        <time>2020-06-04T12:55:11Z</time>
      </trkpt>
      <trkpt lat="46.86841" lon="-2.04956">
        <ele>1.9</ele>
        <time>2020-06-04T12:55:12Z</time>
      </trkpt>
      <trkpt lat="46.86842" lon="-2.04948">
        <ele>1.8</ele>
        <time>2020-06-04T12:55:13Z</time>
      </trkpt>
      <trkpt lat="46.86844" lon="-2.0494">
        <ele>1.8</ele>
        <time>2020-06-04T12:55:14Z</time>
      </trkpt>
      <trkpt lat="46.86846" lon="-2.04932">
        <ele>1.8</ele>
        <time>2020-06-04T12:55:15Z</time>
      </trkpt>
      <trkpt lat="46.86847" lon="-2.04922">
        <ele>1.7</ele>
        <time>2020-06-04T12:55:16Z</time>
      </trkpt>
      <trkpt lat="46.86848" lon="-2.04913">
        <ele>1.7</ele>
        <time>2020-06-04T12:55:17Z</time>
      </trkpt>
      <trkpt lat="46.8685" lon="-2.04904">
        <ele>1.7</ele>
        <time>2020-06-04T12:55:18Z</time>
      </trkpt>
      <trkpt lat="46.86851" lon="-2.04895">
        <ele>1.7</ele>
        <time>2020-06-04T12:55:19Z</time>
      </trkpt>
      <trkpt lat="46.86854" lon="-2.04887">
        <ele>1.7</ele>
        <time>2020-06-04T12:55:20Z</time>
      </trkpt>
      <trkpt lat="46.86855" lon="-2.0488">
        <ele>1.7</ele>
        <time>2020-06-04T12:55:21Z</time>
      </trkpt>
      <trkpt lat="46.86857" lon="-2.04873">
        <ele>1.7</ele>
        <time>2020-06-04T12:55:22Z</time>
      </trkpt>
      <trkpt lat="46.86859" lon="-2.04866">
        <ele>1.7</ele>
        <time>2020-06-04T12:55:23Z</time>
      </trkpt>
      <trkpt lat="46.86861" lon="-2.0486">
        <ele>1.7</ele>
        <time>2020-06-04T12:55:24Z</time>
      </trkpt>
      <trkpt lat="46.86864" lon="-2.04851">
        <ele>1.7</ele>
        <time>2020-06-04T12:55:25Z</time>
      </trkpt>
      <trkpt lat="46.86865" lon="-2.04843">
        <ele>1.7</ele>
        <time>2020-06-04T12:55:26Z</time>
      </trkpt>
      <trkpt lat="46.86866" lon="-2.04834">
        <ele>1.7</ele>
        <time>2020-06-04T12:55:27Z</time>
      </trkpt>
      <trkpt lat="46.86867" lon="-2.04825">
        <ele>1.7</ele>
        <time>2020-06-04T12:55:28Z</time>
      </trkpt>
      <trkpt lat="46.86869" lon="-2.04817">
        <ele>1.7</ele>
        <time>2020-06-04T12:55:29Z</time>
      </trkpt>
      <trkpt lat="46.8687" lon="-2.04808">
        <ele>1.7</ele>
        <time>2020-06-04T12:55:30Z</time>
      </trkpt>
      <trkpt lat="46.86871" lon="-2.048">
        <ele>1.7</ele>
        <time>2020-06-04T12:55:31Z</time>
      </trkpt>
      <trkpt lat="46.86872" lon="-2.04792">
        <ele>1.7</ele>
        <time>2020-06-04T12:55:32Z</time>
      </trkpt>
      <trkpt lat="46.86874" lon="-2.04785">
        <ele>1.7</ele>
        <time>2020-06-04T12:55:33Z</time>
      </trkpt>
      <trkpt lat="46.86876" lon="-2.04778">
        <ele>1.7</ele>
        <time>2020-06-04T12:55:34Z</time>
      </trkpt>
      <trkpt lat="46.86878" lon="-2.04771">
        <ele>1.7</ele>
        <time>2020-06-04T12:55:35Z</time>
      </trkpt>
      <trkpt lat="46.8688" lon="-2.04764">
        <ele>1.7</ele>
        <time>2020-06-04T12:55:36Z</time>
      </trkpt>
      <trkpt lat="46.86883" lon="-2.04758">
        <ele>1.7</ele>
        <time>2020-06-04T12:55:37Z</time>
      </trkpt>
      <trkpt lat="46.86885" lon="-2.04751">
        <ele>1.7</ele>
        <time>2020-06-04T12:55:38Z</time>
      </trkpt>
      <trkpt lat="46.86888" lon="-2.04744">
        <ele>1.7</ele>
        <time>2020-06-04T12:55:39Z</time>
      </trkpt>
      <trkpt lat="46.86891" lon="-2.04738">
        <ele>1.7</ele>
        <time>2020-06-04T12:55:40Z</time>
      </trkpt>
      <trkpt lat="46.86893" lon="-2.04728">
        <ele>1.7</ele>
        <time>2020-06-04T12:55:41Z</time>
      </trkpt>
      <trkpt lat="46.86896" lon="-2.04723">
        <ele>1.8</ele>
        <time>2020-06-04T12:55:42Z</time>
      </trkpt>
      <trkpt lat="46.86899" lon="-2.04714">
        <ele>1.8</ele>
        <time>2020-06-04T12:55:43Z</time>
      </trkpt>
      <trkpt lat="46.86902" lon="-2.04708">
        <ele>1.8</ele>
        <time>2020-06-04T12:55:44Z</time>
      </trkpt>
      <trkpt lat="46.86905" lon="-2.04701">
        <ele>1.8</ele>
        <time>2020-06-04T12:55:45Z</time>
      </trkpt>
      <trkpt lat="46.86908" lon="-2.04694">
        <ele>1.8</ele>
        <time>2020-06-04T12:55:46Z</time>
      </trkpt>
      <trkpt lat="46.86911" lon="-2.04686">
        <ele>1.8</ele>
        <time>2020-06-04T12:55:47Z</time>
      </trkpt>
      <trkpt lat="46.86915" lon="-2.04681">
        <ele>1.8</ele>
        <time>2020-06-04T12:55:48Z</time>
      </trkpt>
      <trkpt lat="46.86918" lon="-2.04675">
        <ele>1.8</ele>
        <time>2020-06-04T12:55:49Z</time>
      </trkpt>
      <trkpt lat="46.86921" lon="-2.0467">
        <ele>1.8</ele>
        <time>2020-06-04T12:55:50Z</time>
      </trkpt>
      <trkpt lat="46.86925" lon="-2.04666">
        <ele>1.8</ele>
        <time>2020-06-04T12:55:51Z</time>
      </trkpt>
      <trkpt lat="46.86928" lon="-2.0466">
        <ele>1.8</ele>
        <time>2020-06-04T12:55:52Z</time>
      </trkpt>
      <trkpt lat="46.86931" lon="-2.04653">
        <ele>1.8</ele>
        <time>2020-06-04T12:55:53Z</time>
      </trkpt>
      <trkpt lat="46.86933" lon="-2.04644">
        <ele>1.8</ele>
        <time>2020-06-04T12:55:54Z</time>
      </trkpt>
      <trkpt lat="46.86936" lon="-2.04638">
        <ele>1.8</ele>
        <time>2020-06-04T12:55:55Z</time>
      </trkpt>
      <trkpt lat="46.86938" lon="-2.04631">
        <ele>1.8</ele>
        <time>2020-06-04T12:55:56Z</time>
      </trkpt>
      <trkpt lat="46.86941" lon="-2.04624">
        <ele>1.8</ele>
        <time>2020-06-04T12:55:57Z</time>
      </trkpt>
      <trkpt lat="46.86944" lon="-2.04617">
        <ele>1.8</ele>
        <time>2020-06-04T12:55:58Z</time>
      </trkpt>
      <trkpt lat="46.86947" lon="-2.04611">
        <ele>1.8</ele>
        <time>2020-06-04T12:55:59Z</time>
      </trkpt>
      <trkpt lat="46.86951" lon="-2.04605">
        <ele>1.7</ele>
        <time>2020-06-04T12:56:00Z</time>
      </trkpt>
      <trkpt lat="46.86954" lon="-2.046">
        <ele>1.7</ele>
        <time>2020-06-04T12:56:01Z</time>
      </trkpt>
      <trkpt lat="46.86957" lon="-2.04594">
        <ele>1.7</ele>
        <time>2020-06-04T12:56:02Z</time>
      </trkpt>
      <trkpt lat="46.8696" lon="-2.04587">
        <ele>1.7</ele>
        <time>2020-06-04T12:56:03Z</time>
      </trkpt>
      <trkpt lat="46.86963" lon="-2.04581">
        <ele>1.7</ele>
        <time>2020-06-04T12:56:04Z</time>
      </trkpt>
      <trkpt lat="46.86966" lon="-2.04574">
        <ele>1.7</ele>
        <time>2020-06-04T12:56:05Z</time>
      </trkpt>
      <trkpt lat="46.86969" lon="-2.04566">
        <ele>1.7</ele>
        <time>2020-06-04T12:56:06Z</time>
      </trkpt>
      <trkpt lat="46.86972" lon="-2.04559">
        <ele>1.7</ele>
        <time>2020-06-04T12:56:07Z</time>
      </trkpt>
      <trkpt lat="46.86975" lon="-2.04552">
        <ele>1.7</ele>
        <time>2020-06-04T12:56:08Z</time>
      </trkpt>
      <trkpt lat="46.86977" lon="-2.04544">
        <ele>1.7</ele>
        <time>2020-06-04T12:56:09Z</time>
      </trkpt>
      <trkpt lat="46.8698" lon="-2.04537">
        <ele>1.6</ele>
        <time>2020-06-04T12:56:10Z</time>
      </trkpt>
      <trkpt lat="46.86983" lon="-2.04531">
        <ele>1.6</ele>
        <time>2020-06-04T12:56:11Z</time>
      </trkpt>
      <trkpt lat="46.86985" lon="-2.04524">
        <ele>1.6</ele>
        <time>2020-06-04T12:56:12Z</time>
      </trkpt>
      <trkpt lat="46.86989" lon="-2.04519">
        <ele>1.6</ele>
        <time>2020-06-04T12:56:13Z</time>
      </trkpt>
      <trkpt lat="46.86992" lon="-2.04512">
        <ele>1.6</ele>
        <time>2020-06-04T12:56:14Z</time>
      </trkpt>
      <trkpt lat="46.86995" lon="-2.04505">
        <ele>1.6</ele>
        <time>2020-06-04T12:56:15Z</time>
      </trkpt>
      <trkpt lat="46.86997" lon="-2.04498">
        <ele>1.6</ele>
        <time>2020-06-04T12:56:16Z</time>
      </trkpt>
      <trkpt lat="46.87" lon="-2.04491">
        <ele>1.6</ele>
        <time>2020-06-04T12:56:17Z</time>
      </trkpt>
      <trkpt lat="46.87002" lon="-2.04483">
        <ele>1.6</ele>
        <time>2020-06-04T12:56:18Z</time>
      </trkpt>
      <trkpt lat="46.87004" lon="-2.04476">
        <ele>1.6</ele>
        <time>2020-06-04T12:56:19Z</time>
      </trkpt>
      <trkpt lat="46.87006" lon="-2.04464">
        <ele>1.6</ele>
        <time>2020-06-04T12:56:20Z</time>
      </trkpt>
      <trkpt lat="46.87008" lon="-2.04457">
        <ele>1.6</ele>
        <time>2020-06-04T12:56:21Z</time>
      </trkpt>
      <trkpt lat="46.87011" lon="-2.04449">
        <ele>1.6</ele>
        <time>2020-06-04T12:56:22Z</time>
      </trkpt>
      <trkpt lat="46.87012" lon="-2.04442">
        <ele>1.5</ele>
        <time>2020-06-04T12:56:23Z</time>
      </trkpt>
      <trkpt lat="46.87012" lon="-2.04434">
        <ele>1.5</ele>
        <time>2020-06-04T12:56:24Z</time>
      </trkpt>
      <trkpt lat="46.87013" lon="-2.04425">
        <ele>1.5</ele>
        <time>2020-06-04T12:56:25Z</time>
      </trkpt>
      <trkpt lat="46.87015" lon="-2.04417">
        <ele>1.5</ele>
        <time>2020-06-04T12:56:26Z</time>
      </trkpt>
      <trkpt lat="46.87016" lon="-2.04409">
        <ele>1.5</ele>
        <time>2020-06-04T12:56:27Z</time>
      </trkpt>
      <trkpt lat="46.87016" lon="-2.04403">
        <ele>1.5</ele>
        <time>2020-06-04T12:56:28Z</time>
      </trkpt>
      <trkpt lat="46.87018" lon="-2.04396">
        <ele>1.5</ele>
        <time>2020-06-04T12:56:29Z</time>
      </trkpt>
      <trkpt lat="46.87018" lon="-2.04389">
        <ele>1.5</ele>
        <time>2020-06-04T12:56:30Z</time>
      </trkpt>
      <trkpt lat="46.87019" lon="-2.0438">
        <ele>1.5</ele>
        <time>2020-06-04T12:56:31Z</time>
      </trkpt>
      <trkpt lat="46.87019" lon="-2.04372">
        <ele>1.5</ele>
        <time>2020-06-04T12:56:32Z</time>
      </trkpt>
      <trkpt lat="46.8702" lon="-2.04364">
        <ele>1.5</ele>
        <time>2020-06-04T12:56:33Z</time>
      </trkpt>
      <trkpt lat="46.87021" lon="-2.04356">
        <ele>1.5</ele>
        <time>2020-06-04T12:56:34Z</time>
      </trkpt>
      <trkpt lat="46.87022" lon="-2.04348">
        <ele>1.5</ele>
        <time>2020-06-04T12:56:35Z</time>
      </trkpt>
      <trkpt lat="46.87022" lon="-2.04338">
        <ele>1.5</ele>
        <time>2020-06-04T12:56:36Z</time>
      </trkpt>
      <trkpt lat="46.87023" lon="-2.04328">
        <ele>1.5</ele>
        <time>2020-06-04T12:56:37Z</time>
      </trkpt>
      <trkpt lat="46.87024" lon="-2.04319">
        <ele>1.5</ele>
        <time>2020-06-04T12:56:38Z</time>
      </trkpt>
      <trkpt lat="46.87024" lon="-2.0431">
        <ele>1.5</ele>
        <time>2020-06-04T12:56:39Z</time>
      </trkpt>
      <trkpt lat="46.87025" lon="-2.043">
        <ele>1.5</ele>
        <time>2020-06-04T12:56:40Z</time>
      </trkpt>
      <trkpt lat="46.87025" lon="-2.0429">
        <ele>1.5</ele>
        <time>2020-06-04T12:56:41Z</time>
      </trkpt>
      <trkpt lat="46.87026" lon="-2.04282">
        <ele>1.5</ele>
        <time>2020-06-04T12:56:42Z</time>
      </trkpt>
      <trkpt lat="46.87027" lon="-2.04274">
        <ele>1.5</ele>
        <time>2020-06-04T12:56:43Z</time>
      </trkpt>
      <trkpt lat="46.87027" lon="-2.04265">
        <ele>1.5</ele>
        <time>2020-06-04T12:56:44Z</time>
      </trkpt>
      <trkpt lat="46.87028" lon="-2.04257">
        <ele>1.5</ele>
        <time>2020-06-04T12:56:45Z</time>
      </trkpt>
      <trkpt lat="46.87029" lon="-2.04249">
        <ele>1.5</ele>
        <time>2020-06-04T12:56:46Z</time>
      </trkpt>
      <trkpt lat="46.8703" lon="-2.04241">
        <ele>1.5</ele>
        <time>2020-06-04T12:56:47Z</time>
      </trkpt>
      <trkpt lat="46.87031" lon="-2.04233">
        <ele>1.5</ele>
        <time>2020-06-04T12:56:48Z</time>
      </trkpt>
      <trkpt lat="46.87032" lon="-2.04224">
        <ele>1.5</ele>
        <time>2020-06-04T12:56:49Z</time>
      </trkpt>
      <trkpt lat="46.87033" lon="-2.04216">
        <ele>1.5</ele>
        <time>2020-06-04T12:56:50Z</time>
      </trkpt>
      <trkpt lat="46.87033" lon="-2.04208">
        <ele>1.5</ele>
        <time>2020-06-04T12:56:51Z</time>
      </trkpt>
      <trkpt lat="46.87035" lon="-2.04201">
        <ele>1.5</ele>
        <time>2020-06-04T12:56:52Z</time>
      </trkpt>
      <trkpt lat="46.87036" lon="-2.04194">
        <ele>1.5</ele>
        <time>2020-06-04T12:56:53Z</time>
      </trkpt>
      <trkpt lat="46.87037" lon="-2.04187">
        <ele>1.5</ele>
        <time>2020-06-04T12:56:54Z</time>
      </trkpt>
      <trkpt lat="46.87037" lon="-2.04178">
        <ele>1.5</ele>
        <time>2020-06-04T12:56:55Z</time>
      </trkpt>
      <trkpt lat="46.87038" lon="-2.04171">
        <ele>1.5</ele>
        <time>2020-06-04T12:56:56Z</time>
      </trkpt>
      <trkpt lat="46.87039" lon="-2.04164">
        <ele>1.5</ele>
        <time>2020-06-04T12:56:57Z</time>
      </trkpt>
      <trkpt lat="46.87039" lon="-2.04155">
        <ele>1.5</ele>
        <time>2020-06-04T12:56:58Z</time>
      </trkpt>
      <trkpt lat="46.87038" lon="-2.04147">
        <ele>1.5</ele>
        <time>2020-06-04T12:56:59Z</time>
      </trkpt>
      <trkpt lat="46.87039" lon="-2.04139">
        <ele>1.5</ele>
        <time>2020-06-04T12:57:00Z</time>
      </trkpt>
      <trkpt lat="46.8704" lon="-2.04132">
        <ele>1.5</ele>
        <time>2020-06-04T12:57:01Z</time>
      </trkpt>
      <trkpt lat="46.87042" lon="-2.04123">
        <ele>1.5</ele>
        <time>2020-06-04T12:57:02Z</time>
      </trkpt>
      <trkpt lat="46.87042" lon="-2.04113">
        <ele>1.5</ele>
        <time>2020-06-04T12:57:03Z</time>
      </trkpt>
      <trkpt lat="46.87043" lon="-2.04105">
        <ele>1.5</ele>
        <time>2020-06-04T12:57:04Z</time>
      </trkpt>
      <trkpt lat="46.87044" lon="-2.04097">
        <ele>1.5</ele>
        <time>2020-06-04T12:57:05Z</time>
      </trkpt>
      <trkpt lat="46.87045" lon="-2.04089">
        <ele>1.5</ele>
        <time>2020-06-04T12:57:06Z</time>
      </trkpt>
      <trkpt lat="46.87046" lon="-2.0408">
        <ele>1.4</ele>
        <time>2020-06-04T12:57:07Z</time>
      </trkpt>
      <trkpt lat="46.87047" lon="-2.04072">
        <ele>1.4</ele>
        <time>2020-06-04T12:57:08Z</time>
      </trkpt>
      <trkpt lat="46.87047" lon="-2.04065">
        <ele>1.4</ele>
        <time>2020-06-04T12:57:09Z</time>
      </trkpt>
      <trkpt lat="46.87049" lon="-2.04057">
        <ele>1.4</ele>
        <time>2020-06-04T12:57:10Z</time>
      </trkpt>
      <trkpt lat="46.87048" lon="-2.04049">
        <ele>1.4</ele>
        <time>2020-06-04T12:57:11Z</time>
      </trkpt>
      <trkpt lat="46.8705" lon="-2.04042">
        <ele>1.4</ele>
        <time>2020-06-04T12:57:12Z</time>
      </trkpt>
      <trkpt lat="46.87051" lon="-2.04035">
        <ele>1.4</ele>
        <time>2020-06-04T12:57:13Z</time>
      </trkpt>
      <trkpt lat="46.87053" lon="-2.04029">
        <ele>1.4</ele>
        <time>2020-06-04T12:57:14Z</time>
      </trkpt>
      <trkpt lat="46.87053" lon="-2.04022">
        <ele>1.4</ele>
        <time>2020-06-04T12:57:15Z</time>
      </trkpt>
      <trkpt lat="46.87054" lon="-2.04015">
        <ele>1.4</ele>
        <time>2020-06-04T12:57:16Z</time>
      </trkpt>
      <trkpt lat="46.87055" lon="-2.04007">
        <ele>1.4</ele>
        <time>2020-06-04T12:57:17Z</time>
      </trkpt>
      <trkpt lat="46.87057" lon="-2.03999">
        <ele>1.4</ele>
        <time>2020-06-04T12:57:18Z</time>
      </trkpt>
      <trkpt lat="46.8706" lon="-2.03991">
        <ele>1.4</ele>
        <time>2020-06-04T12:57:19Z</time>
      </trkpt>
      <trkpt lat="46.87062" lon="-2.03984">
        <ele>1.4</ele>
        <time>2020-06-04T12:57:20Z</time>
      </trkpt>
      <trkpt lat="46.87065" lon="-2.03975">
        <ele>1.4</ele>
        <time>2020-06-04T12:57:21Z</time>
      </trkpt>
      <trkpt lat="46.87068" lon="-2.03968">
        <ele>1.4</ele>
        <time>2020-06-04T12:57:22Z</time>
      </trkpt>
      <trkpt lat="46.87069" lon="-2.0396">
        <ele>1.5</ele>
        <time>2020-06-04T12:57:23Z</time>
      </trkpt>
      <trkpt lat="46.87072" lon="-2.03954">
        <ele>1.5</ele>
        <time>2020-06-04T12:57:24Z</time>
      </trkpt>
      <trkpt lat="46.87074" lon="-2.03946">
        <ele>1.5</ele>
        <time>2020-06-04T12:57:25Z</time>
      </trkpt>
      <trkpt lat="46.87076" lon="-2.03939">
        <ele>1.5</ele>
        <time>2020-06-04T12:57:26Z</time>
      </trkpt>
      <trkpt lat="46.87079" lon="-2.03933">
        <ele>1.5</ele>
        <time>2020-06-04T12:57:27Z</time>
      </trkpt>
      <trkpt lat="46.87081" lon="-2.03926">
        <ele>1.5</ele>
        <time>2020-06-04T12:57:28Z</time>
      </trkpt>
      <trkpt lat="46.87083" lon="-2.03918">
        <ele>1.5</ele>
        <time>2020-06-04T12:57:29Z</time>
      </trkpt>
      <trkpt lat="46.87086" lon="-2.03912">
        <ele>1.5</ele>
        <time>2020-06-04T12:57:30Z</time>
      </trkpt>
      <trkpt lat="46.87089" lon="-2.03906">
        <ele>1.5</ele>
        <time>2020-06-04T12:57:31Z</time>
      </trkpt>
      <trkpt lat="46.87091" lon="-2.03898">
        <ele>1.6</ele>
        <time>2020-06-04T12:57:32Z</time>
      </trkpt>
      <trkpt lat="46.87093" lon="-2.0389">
        <ele>1.6</ele>
        <time>2020-06-04T12:57:33Z</time>
      </trkpt>
      <trkpt lat="46.87095" lon="-2.03882">
        <ele>1.6</ele>
        <time>2020-06-04T12:57:34Z</time>
      </trkpt>
      <trkpt lat="46.87096" lon="-2.03876">
        <ele>1.7</ele>
        <time>2020-06-04T12:57:35Z</time>
      </trkpt>
      <trkpt lat="46.87098" lon="-2.03869">
        <ele>1.7</ele>
        <time>2020-06-04T12:57:36Z</time>
      </trkpt>
      <trkpt lat="46.87101" lon="-2.03862">
        <ele>1.7</ele>
        <time>2020-06-04T12:57:37Z</time>
      </trkpt>
      <trkpt lat="46.87103" lon="-2.03855">
        <ele>1.8</ele>
        <time>2020-06-04T12:57:38Z</time>
      </trkpt>
      <trkpt lat="46.87105" lon="-2.03848">
        <ele>1.8</ele>
        <time>2020-06-04T12:57:39Z</time>
      </trkpt>
      <trkpt lat="46.87108" lon="-2.03842">
        <ele>1.8</ele>
        <time>2020-06-04T12:57:40Z</time>
      </trkpt>
      <trkpt lat="46.8711" lon="-2.03835">
        <ele>1.8</ele>
        <time>2020-06-04T12:57:41Z</time>
      </trkpt>
      <trkpt lat="46.87112" lon="-2.03828">
        <ele>1.8</ele>
        <time>2020-06-04T12:57:42Z</time>
      </trkpt>
      <trkpt lat="46.87113" lon="-2.0382">
        <ele>1.8</ele>
        <time>2020-06-04T12:57:43Z</time>
      </trkpt>
      <trkpt lat="46.87115" lon="-2.03814">
        <ele>1.8</ele>
        <time>2020-06-04T12:57:44Z</time>
      </trkpt>
      <trkpt lat="46.87117" lon="-2.03808">
        <ele>1.8</ele>
        <time>2020-06-04T12:57:45Z</time>
      </trkpt>
      <trkpt lat="46.87118" lon="-2.03802">
        <ele>1.8</ele>
        <time>2020-06-04T12:57:46Z</time>
      </trkpt>
      <trkpt lat="46.87121" lon="-2.03797">
        <ele>1.8</ele>
        <time>2020-06-04T12:57:47Z</time>
      </trkpt>
      <trkpt lat="46.87123" lon="-2.03788">
        <ele>1.8</ele>
        <time>2020-06-04T12:57:48Z</time>
      </trkpt>
      <trkpt lat="46.87126" lon="-2.03782">
        <ele>1.8</ele>
        <time>2020-06-04T12:57:49Z</time>
      </trkpt>
      <trkpt lat="46.87128" lon="-2.03774">
        <ele>1.8</ele>
        <time>2020-06-04T12:57:50Z</time>
      </trkpt>
      <trkpt lat="46.87131" lon="-2.03767">
        <ele>1.8</ele>
        <time>2020-06-04T12:57:51Z</time>
      </trkpt>
      <trkpt lat="46.87134" lon="-2.0376">
        <ele>1.8</ele>
        <time>2020-06-04T12:57:52Z</time>
      </trkpt>
      <trkpt lat="46.87135" lon="-2.03753">
        <ele>1.8</ele>
        <time>2020-06-04T12:57:53Z</time>
      </trkpt>
      <trkpt lat="46.87138" lon="-2.03748">
        <ele>1.9</ele>
        <time>2020-06-04T12:57:54Z</time>
      </trkpt>
      <trkpt lat="46.8714" lon="-2.03743">
        <ele>1.9</ele>
        <time>2020-06-04T12:57:55Z</time>
      </trkpt>
      <trkpt lat="46.87144" lon="-2.03739">
        <ele>1.9</ele>
        <time>2020-06-04T12:57:56Z</time>
      </trkpt>
      <trkpt lat="46.87147" lon="-2.03735">
        <ele>1.9</ele>
        <time>2020-06-04T12:57:57Z</time>
      </trkpt>
      <trkpt lat="46.8715" lon="-2.03731">
        <ele>1.9</ele>
        <time>2020-06-04T12:57:58Z</time>
      </trkpt>
      <trkpt lat="46.87154" lon="-2.03727">
        <ele>1.9</ele>
        <time>2020-06-04T12:57:59Z</time>
      </trkpt>
      <trkpt lat="46.87156" lon="-2.03722">
        <ele>1.9</ele>
        <time>2020-06-04T12:58:00Z</time>
      </trkpt>
      <trkpt lat="46.87158" lon="-2.03717">
        <ele>1.9</ele>
        <time>2020-06-04T12:58:01Z</time>
      </trkpt>
      <trkpt lat="46.87162" lon="-2.03712">
        <ele>1.9</ele>
        <time>2020-06-04T12:58:02Z</time>
      </trkpt>
      <trkpt lat="46.87166" lon="-2.03706">
        <ele>1.9</ele>
        <time>2020-06-04T12:58:03Z</time>
      </trkpt>
      <trkpt lat="46.8717" lon="-2.03703">
        <ele>1.9</ele>
        <time>2020-06-04T12:58:04Z</time>
      </trkpt>
      <trkpt lat="46.87174" lon="-2.03699">
        <ele>1.9</ele>
        <time>2020-06-04T12:58:05Z</time>
      </trkpt>
      <trkpt lat="46.87178" lon="-2.03695">
        <ele>1.9</ele>
        <time>2020-06-04T12:58:06Z</time>
      </trkpt>
      <trkpt lat="46.87181" lon="-2.03692">
        <ele>2</ele>
        <time>2020-06-04T12:58:07Z</time>
      </trkpt>
      <trkpt lat="46.87186" lon="-2.03686">
        <ele>2</ele>
        <time>2020-06-04T12:58:08Z</time>
      </trkpt>
      <trkpt lat="46.8719" lon="-2.03682">
        <ele>2</ele>
        <time>2020-06-04T12:58:09Z</time>
      </trkpt>
      <trkpt lat="46.87195" lon="-2.03676">
        <ele>2</ele>
        <time>2020-06-04T12:58:10Z</time>
      </trkpt>
      <trkpt lat="46.872" lon="-2.03672">
        <ele>2</ele>
        <time>2020-06-04T12:58:11Z</time>
      </trkpt>
      <trkpt lat="46.87205" lon="-2.0367">
        <ele>2</ele>
        <time>2020-06-04T12:58:12Z</time>
      </trkpt>
      <trkpt lat="46.8721" lon="-2.03665">
        <ele>2</ele>
        <time>2020-06-04T12:58:13Z</time>
      </trkpt>
      <trkpt lat="46.87214" lon="-2.0366">
        <ele>2</ele>
        <time>2020-06-04T12:58:14Z</time>
      </trkpt>
      <trkpt lat="46.8722" lon="-2.03658">
        <ele>2</ele>
        <time>2020-06-04T12:58:15Z</time>
      </trkpt>
      <trkpt lat="46.87224" lon="-2.03654">
        <ele>2</ele>
        <time>2020-06-04T12:58:16Z</time>
      </trkpt>
      <trkpt lat="46.87228" lon="-2.0365">
        <ele>2.1</ele>
        <time>2020-06-04T12:58:17Z</time>
      </trkpt>
      <trkpt lat="46.87233" lon="-2.03647">
        <ele>2.1</ele>
        <time>2020-06-04T12:58:18Z</time>
      </trkpt>
      <trkpt lat="46.87236" lon="-2.03643">
        <ele>2.1</ele>
        <time>2020-06-04T12:58:19Z</time>
      </trkpt>
      <trkpt lat="46.87239" lon="-2.03636">
        <ele>2.1</ele>
        <time>2020-06-04T12:58:20Z</time>
      </trkpt>
      <trkpt lat="46.87243" lon="-2.0363">
        <ele>2.1</ele>
        <time>2020-06-04T12:58:21Z</time>
      </trkpt>
      <trkpt lat="46.87246" lon="-2.03625">
        <ele>2.1</ele>
        <time>2020-06-04T12:58:22Z</time>
      </trkpt>
      <trkpt lat="46.87249" lon="-2.03619">
        <ele>2.1</ele>
        <time>2020-06-04T12:58:23Z</time>
      </trkpt>
      <trkpt lat="46.87252" lon="-2.03615">
        <ele>2.1</ele>
        <time>2020-06-04T12:58:24Z</time>
      </trkpt>
      <trkpt lat="46.87254" lon="-2.0361">
        <ele>2.1</ele>
        <time>2020-06-04T12:58:25Z</time>
      </trkpt>
      <trkpt lat="46.87256" lon="-2.03604">
        <ele>2.1</ele>
        <time>2020-06-04T12:58:26Z</time>
      </trkpt>
      <trkpt lat="46.87259" lon="-2.03599">
        <ele>2.1</ele>
        <time>2020-06-04T12:58:27Z</time>
      </trkpt>
      <trkpt lat="46.87257" lon="-2.0359">
        <ele>2.1</ele>
        <time>2020-06-04T12:58:28Z</time>
      </trkpt>
      <trkpt lat="46.87257" lon="-2.03582">
        <ele>2.1</ele>
        <time>2020-06-04T12:58:29Z</time>
      </trkpt>
      <trkpt lat="46.87256" lon="-2.03575">
        <ele>2.1</ele>
        <time>2020-06-04T12:58:30Z</time>
      </trkpt>
      <trkpt lat="46.87254" lon="-2.03567">
        <ele>2.1</ele>
        <time>2020-06-04T12:58:31Z</time>
      </trkpt>
      <trkpt lat="46.87254" lon="-2.03561">
        <ele>2.1</ele>
        <time>2020-06-04T12:58:32Z</time>
      </trkpt>
      <trkpt lat="46.87253" lon="-2.03554">
        <ele>2.1</ele>
        <time>2020-06-04T12:58:33Z</time>
      </trkpt>
      <trkpt lat="46.87253" lon="-2.03548">
        <ele>2.1</ele>
        <time>2020-06-04T12:58:34Z</time>
      </trkpt>
      <trkpt lat="46.87251" lon="-2.03543">
        <ele>2.1</ele>
        <time>2020-06-04T12:58:35Z</time>
      </trkpt>
      <trkpt lat="46.8725" lon="-2.03535">
        <ele>2.1</ele>
        <time>2020-06-04T12:58:36Z</time>
      </trkpt>
      <trkpt lat="46.87252" lon="-2.03529">
        <ele>2.1</ele>
        <time>2020-06-04T12:58:37Z</time>
      </trkpt>
      <trkpt lat="46.87251" lon="-2.03521">
        <ele>2.2</ele>
        <time>2020-06-04T12:58:38Z</time>
      </trkpt>
      <trkpt lat="46.87251" lon="-2.03514">
        <ele>2.2</ele>
        <time>2020-06-04T12:58:39Z</time>
      </trkpt>
      <trkpt lat="46.8725" lon="-2.03506">
        <ele>2.2</ele>
        <time>2020-06-04T12:58:40Z</time>
      </trkpt>
      <trkpt lat="46.8725" lon="-2.03499">
        <ele>2.2</ele>
        <time>2020-06-04T12:58:41Z</time>
      </trkpt>
      <trkpt lat="46.8725" lon="-2.0349">
        <ele>2.2</ele>
        <time>2020-06-04T12:58:42Z</time>
      </trkpt>
      <trkpt lat="46.8725" lon="-2.0348">
        <ele>2.2</ele>
        <time>2020-06-04T12:58:43Z</time>
      </trkpt>
      <trkpt lat="46.87251" lon="-2.03473">
        <ele>2.2</ele>
        <time>2020-06-04T12:58:44Z</time>
      </trkpt>
      <trkpt lat="46.87252" lon="-2.03464">
        <ele>2.2</ele>
        <time>2020-06-04T12:58:45Z</time>
      </trkpt>
      <trkpt lat="46.87255" lon="-2.03456">
        <ele>2.2</ele>
        <time>2020-06-04T12:58:46Z</time>
      </trkpt>
      <trkpt lat="46.87258" lon="-2.03448">
        <ele>2.2</ele>
        <time>2020-06-04T12:58:47Z</time>
      </trkpt>
      <trkpt lat="46.87262" lon="-2.03441">
        <ele>2.2</ele>
        <time>2020-06-04T12:58:48Z</time>
      </trkpt>
      <trkpt lat="46.87265" lon="-2.03434">
        <ele>2.2</ele>
        <time>2020-06-04T12:58:49Z</time>
      </trkpt>
      <trkpt lat="46.87269" lon="-2.03427">
        <ele>2.2</ele>
        <time>2020-06-04T12:58:50Z</time>
      </trkpt>
      <trkpt lat="46.87271" lon="-2.03421">
        <ele>2.2</ele>
        <time>2020-06-04T12:58:51Z</time>
      </trkpt>
      <trkpt lat="46.87275" lon="-2.03414">
        <ele>2.2</ele>
        <time>2020-06-04T12:58:52Z</time>
      </trkpt>
      <trkpt lat="46.87278" lon="-2.03409">
        <ele>2.2</ele>
        <time>2020-06-04T12:58:53Z</time>
      </trkpt>
      <trkpt lat="46.87282" lon="-2.03404">
        <ele>2.2</ele>
        <time>2020-06-04T12:58:54Z</time>
      </trkpt>
      <trkpt lat="46.87286" lon="-2.034">
        <ele>2.2</ele>
        <time>2020-06-04T12:58:55Z</time>
      </trkpt>
      <trkpt lat="46.8729" lon="-2.03394">
        <ele>2.2</ele>
        <time>2020-06-04T12:58:56Z</time>
      </trkpt>
      <trkpt lat="46.87293" lon="-2.03388">
        <ele>2.2</ele>
        <time>2020-06-04T12:58:57Z</time>
      </trkpt>
      <trkpt lat="46.87297" lon="-2.03383">
        <ele>2.2</ele>
        <time>2020-06-04T12:58:58Z</time>
      </trkpt>
      <trkpt lat="46.87301" lon="-2.03378">
        <ele>2.2</ele>
        <time>2020-06-04T12:58:59Z</time>
      </trkpt>
      <trkpt lat="46.87304" lon="-2.03374">
        <ele>2.2</ele>
        <time>2020-06-04T12:59:00Z</time>
      </trkpt>
      <trkpt lat="46.87307" lon="-2.03369">
        <ele>2.2</ele>
        <time>2020-06-04T12:59:01Z</time>
      </trkpt>
      <trkpt lat="46.87311" lon="-2.03365">
        <ele>2.2</ele>
        <time>2020-06-04T12:59:02Z</time>
      </trkpt>
      <trkpt lat="46.87315" lon="-2.0336">
        <ele>2.2</ele>
        <time>2020-06-04T12:59:03Z</time>
      </trkpt>
      <trkpt lat="46.87319" lon="-2.03356">
        <ele>2.2</ele>
        <time>2020-06-04T12:59:04Z</time>
      </trkpt>
      <trkpt lat="46.87323" lon="-2.03351">
        <ele>2.2</ele>
        <time>2020-06-04T12:59:05Z</time>
      </trkpt>
      <trkpt lat="46.87327" lon="-2.03345">
        <ele>2.2</ele>
        <time>2020-06-04T12:59:06Z</time>
      </trkpt>
      <trkpt lat="46.87331" lon="-2.03339">
        <ele>2.2</ele>
        <time>2020-06-04T12:59:07Z</time>
      </trkpt>
      <trkpt lat="46.87334" lon="-2.03332">
        <ele>2.2</ele>
        <time>2020-06-04T12:59:08Z</time>
      </trkpt>
      <trkpt lat="46.87338" lon="-2.03326">
        <ele>2.2</ele>
        <time>2020-06-04T12:59:09Z</time>
      </trkpt>
      <trkpt lat="46.87342" lon="-2.03321">
        <ele>2.2</ele>
        <time>2020-06-04T12:59:10Z</time>
      </trkpt>
      <trkpt lat="46.87345" lon="-2.03314">
        <ele>2.2</ele>
        <time>2020-06-04T12:59:11Z</time>
      </trkpt>
      <trkpt lat="46.87349" lon="-2.03309">
        <ele>2.2</ele>
        <time>2020-06-04T12:59:12Z</time>
      </trkpt>
      <trkpt lat="46.87352" lon="-2.03302">
        <ele>2.2</ele>
        <time>2020-06-04T12:59:13Z</time>
      </trkpt>
      <trkpt lat="46.87355" lon="-2.03296">
        <ele>2.2</ele>
        <time>2020-06-04T12:59:14Z</time>
      </trkpt>
      <trkpt lat="46.87358" lon="-2.03289">
        <ele>2.2</ele>
        <time>2020-06-04T12:59:15Z</time>
      </trkpt>
      <trkpt lat="46.8736" lon="-2.03285">
        <ele>2.2</ele>
        <time>2020-06-04T12:59:16Z</time>
      </trkpt>
      <trkpt lat="46.87363" lon="-2.03279">
        <ele>2.2</ele>
        <time>2020-06-04T12:59:17Z</time>
      </trkpt>
      <trkpt lat="46.87364" lon="-2.0327">
        <ele>2.2</ele>
        <time>2020-06-04T12:59:18Z</time>
      </trkpt>
      <trkpt lat="46.87367" lon="-2.03264">
        <ele>2.2</ele>
        <time>2020-06-04T12:59:19Z</time>
      </trkpt>
      <trkpt lat="46.87371" lon="-2.03256">
        <ele>2.2</ele>
        <time>2020-06-04T12:59:20Z</time>
      </trkpt>
      <trkpt lat="46.87373" lon="-2.0325">
        <ele>2.1</ele>
        <time>2020-06-04T12:59:21Z</time>
      </trkpt>
      <trkpt lat="46.87375" lon="-2.03242">
        <ele>2.1</ele>
        <time>2020-06-04T12:59:22Z</time>
      </trkpt>
      <trkpt lat="46.87378" lon="-2.03233">
        <ele>2.1</ele>
        <time>2020-06-04T12:59:23Z</time>
      </trkpt>
      <trkpt lat="46.8738" lon="-2.03225">
        <ele>2.1</ele>
        <time>2020-06-04T12:59:24Z</time>
      </trkpt>
      <trkpt lat="46.87382" lon="-2.03217">
        <ele>2.1</ele>
        <time>2020-06-04T12:59:25Z</time>
      </trkpt>
      <trkpt lat="46.87384" lon="-2.03209">
        <ele>2</ele>
        <time>2020-06-04T12:59:26Z</time>
      </trkpt>
      <trkpt lat="46.87387" lon="-2.03203">
        <ele>2</ele>
        <time>2020-06-04T12:59:27Z</time>
      </trkpt>
      <trkpt lat="46.87388" lon="-2.03195">
        <ele>2</ele>
        <time>2020-06-04T12:59:28Z</time>
      </trkpt>
      <trkpt lat="46.8739" lon="-2.03188">
        <ele>2</ele>
        <time>2020-06-04T12:59:29Z</time>
      </trkpt>
      <trkpt lat="46.87392" lon="-2.03182">
        <ele>2</ele>
        <time>2020-06-04T12:59:30Z</time>
      </trkpt>
      <trkpt lat="46.87395" lon="-2.03175">
        <ele>1.9</ele>
        <time>2020-06-04T12:59:31Z</time>
      </trkpt>
      <trkpt lat="46.87397" lon="-2.03169">
        <ele>1.9</ele>
        <time>2020-06-04T12:59:32Z</time>
      </trkpt>
      <trkpt lat="46.87399" lon="-2.03161">
        <ele>1.9</ele>
        <time>2020-06-04T12:59:33Z</time>
      </trkpt>
      <trkpt lat="46.87401" lon="-2.03154">
        <ele>1.9</ele>
        <time>2020-06-04T12:59:34Z</time>
      </trkpt>
      <trkpt lat="46.87404" lon="-2.03146">
        <ele>1.9</ele>
        <time>2020-06-04T12:59:35Z</time>
      </trkpt>
      <trkpt lat="46.87407" lon="-2.03139">
        <ele>1.9</ele>
        <time>2020-06-04T12:59:36Z</time>
      </trkpt>
      <trkpt lat="46.8741" lon="-2.03131">
        <ele>2</ele>
        <time>2020-06-04T12:59:37Z</time>
      </trkpt>
      <trkpt lat="46.87413" lon="-2.03124">
        <ele>2</ele>
        <time>2020-06-04T12:59:38Z</time>
      </trkpt>
      <trkpt lat="46.87416" lon="-2.03115">
        <ele>2</ele>
        <time>2020-06-04T12:59:39Z</time>
      </trkpt>
      <trkpt lat="46.87418" lon="-2.03107">
        <ele>2</ele>
        <time>2020-06-04T12:59:40Z</time>
      </trkpt>
      <trkpt lat="46.8742" lon="-2.031">
        <ele>2</ele>
        <time>2020-06-04T12:59:41Z</time>
      </trkpt>
      <trkpt lat="46.87422" lon="-2.03092">
        <ele>2</ele>
        <time>2020-06-04T12:59:42Z</time>
      </trkpt>
      <trkpt lat="46.87424" lon="-2.03083">
        <ele>2</ele>
        <time>2020-06-04T12:59:43Z</time>
      </trkpt>
      <trkpt lat="46.87426" lon="-2.03076">
        <ele>2.1</ele>
        <time>2020-06-04T12:59:44Z</time>
      </trkpt>
      <trkpt lat="46.87427" lon="-2.03069">
        <ele>2.1</ele>
        <time>2020-06-04T12:59:45Z</time>
      </trkpt>
      <trkpt lat="46.87428" lon="-2.03062">
        <ele>2.1</ele>
        <time>2020-06-04T12:59:46Z</time>
      </trkpt>
      <trkpt lat="46.8743" lon="-2.03055">
        <ele>2.1</ele>
        <time>2020-06-04T12:59:47Z</time>
      </trkpt>
      <trkpt lat="46.87433" lon="-2.03048">
        <ele>2.1</ele>
        <time>2020-06-04T12:59:48Z</time>
      </trkpt>
      <trkpt lat="46.87437" lon="-2.0304">
        <ele>2.1</ele>
        <time>2020-06-04T12:59:49Z</time>
      </trkpt>
      <trkpt lat="46.87439" lon="-2.0303">
        <ele>2.1</ele>
        <time>2020-06-04T12:59:50Z</time>
      </trkpt>
      <trkpt lat="46.8744" lon="-2.03021">
        <ele>2.1</ele>
        <time>2020-06-04T12:59:51Z</time>
      </trkpt>
      <trkpt lat="46.87443" lon="-2.03014">
        <ele>2.1</ele>
        <time>2020-06-04T12:59:52Z</time>
      </trkpt>
      <trkpt lat="46.87444" lon="-2.03008">
        <ele>2.1</ele>
        <time>2020-06-04T12:59:53Z</time>
      </trkpt>
      <trkpt lat="46.87447" lon="-2.03001">
        <ele>2.1</ele>
        <time>2020-06-04T12:59:54Z</time>
      </trkpt>
      <trkpt lat="46.87448" lon="-2.02992">
        <ele>2.1</ele>
        <time>2020-06-04T12:59:55Z</time>
      </trkpt>
      <trkpt lat="46.8745" lon="-2.02984">
        <ele>2.1</ele>
        <time>2020-06-04T12:59:56Z</time>
      </trkpt>
      <trkpt lat="46.87452" lon="-2.02977">
        <ele>2.2</ele>
        <time>2020-06-04T12:59:57Z</time>
      </trkpt>
      <trkpt lat="46.87454" lon="-2.02969">
        <ele>2.2</ele>
        <time>2020-06-04T12:59:58Z</time>
      </trkpt>
      <trkpt lat="46.87456" lon="-2.02962">
        <ele>2.2</ele>
        <time>2020-06-04T12:59:59Z</time>
      </trkpt>
      <trkpt lat="46.87457" lon="-2.02955">
        <ele>2.2</ele>
        <time>2020-06-04T13:00:00Z</time>
      </trkpt>
      <trkpt lat="46.87458" lon="-2.02947">
        <ele>2.2</ele>
        <time>2020-06-04T13:00:01Z</time>
      </trkpt>
      <trkpt lat="46.87459" lon="-2.0294">
        <ele>2.2</ele>
        <time>2020-06-04T13:00:02Z</time>
      </trkpt>
      <trkpt lat="46.87461" lon="-2.02931">
        <ele>2.3</ele>
        <time>2020-06-04T13:00:03Z</time>
      </trkpt>
      <trkpt lat="46.87462" lon="-2.02923">
        <ele>2.3</ele>
        <time>2020-06-04T13:00:04Z</time>
      </trkpt>
      <trkpt lat="46.87463" lon="-2.02913">
        <ele>2.3</ele>
        <time>2020-06-04T13:00:05Z</time>
      </trkpt>
      <trkpt lat="46.87464" lon="-2.02905">
        <ele>2.3</ele>
        <time>2020-06-04T13:00:06Z</time>
      </trkpt>
      <trkpt lat="46.87464" lon="-2.02896">
        <ele>2.3</ele>
        <time>2020-06-04T13:00:07Z</time>
      </trkpt>
      <trkpt lat="46.87465" lon="-2.02887">
        <ele>2.3</ele>
        <time>2020-06-04T13:00:08Z</time>
      </trkpt>
      <trkpt lat="46.87466" lon="-2.02878">
        <ele>2.3</ele>
        <time>2020-06-04T13:00:09Z</time>
      </trkpt>
      <trkpt lat="46.87467" lon="-2.02869">
        <ele>2.3</ele>
        <time>2020-06-04T13:00:10Z</time>
      </trkpt>
      <trkpt lat="46.87469" lon="-2.0286">
        <ele>2.3</ele>
        <time>2020-06-04T13:00:11Z</time>
      </trkpt>
      <trkpt lat="46.87471" lon="-2.02851">
        <ele>2.3</ele>
        <time>2020-06-04T13:00:12Z</time>
      </trkpt>
      <trkpt lat="46.87473" lon="-2.02844">
        <ele>2.3</ele>
        <time>2020-06-04T13:00:13Z</time>
      </trkpt>
      <trkpt lat="46.87475" lon="-2.02837">
        <ele>2.3</ele>
        <time>2020-06-04T13:00:14Z</time>
      </trkpt>
      <trkpt lat="46.87476" lon="-2.02829">
        <ele>2.3</ele>
        <time>2020-06-04T13:00:15Z</time>
      </trkpt>
      <trkpt lat="46.87477" lon="-2.02821">
        <ele>2.3</ele>
        <time>2020-06-04T13:00:16Z</time>
      </trkpt>
      <trkpt lat="46.87478" lon="-2.02814">
        <ele>2.3</ele>
        <time>2020-06-04T13:00:17Z</time>
      </trkpt>
      <trkpt lat="46.87478" lon="-2.02806">
        <ele>2.3</ele>
        <time>2020-06-04T13:00:18Z</time>
      </trkpt>
      <trkpt lat="46.87478" lon="-2.02801">
        <ele>2.3</ele>
        <time>2020-06-04T13:00:19Z</time>
      </trkpt>
      <trkpt lat="46.87478" lon="-2.02793">
        <ele>2.3</ele>
        <time>2020-06-04T13:00:20Z</time>
      </trkpt>
      <trkpt lat="46.8748" lon="-2.02784">
        <ele>2.3</ele>
        <time>2020-06-04T13:00:21Z</time>
      </trkpt>
      <trkpt lat="46.87481" lon="-2.02776">
        <ele>2.3</ele>
        <time>2020-06-04T13:00:22Z</time>
      </trkpt>
      <trkpt lat="46.87482" lon="-2.02768">
        <ele>2.3</ele>
        <time>2020-06-04T13:00:23Z</time>
      </trkpt>
      <trkpt lat="46.87484" lon="-2.02762">
        <ele>2.3</ele>
        <time>2020-06-04T13:00:24Z</time>
      </trkpt>
      <trkpt lat="46.87488" lon="-2.02755">
        <ele>2.3</ele>
        <time>2020-06-04T13:00:25Z</time>
      </trkpt>
      <trkpt lat="46.8749" lon="-2.02748">
        <ele>2.3</ele>
        <time>2020-06-04T13:00:26Z</time>
      </trkpt>
      <trkpt lat="46.87493" lon="-2.0274">
        <ele>2.3</ele>
        <time>2020-06-04T13:00:27Z</time>
      </trkpt>
      <trkpt lat="46.87496" lon="-2.02732">
        <ele>2.3</ele>
        <time>2020-06-04T13:00:28Z</time>
      </trkpt>
      <trkpt lat="46.87499" lon="-2.02724">
        <ele>2.3</ele>
        <time>2020-06-04T13:00:29Z</time>
      </trkpt>
      <trkpt lat="46.87501" lon="-2.02717">
        <ele>2.3</ele>
        <time>2020-06-04T13:00:30Z</time>
      </trkpt>
      <trkpt lat="46.87506" lon="-2.0271">
        <ele>2.3</ele>
        <time>2020-06-04T13:00:31Z</time>
      </trkpt>
      <trkpt lat="46.8751" lon="-2.02703">
        <ele>2.3</ele>
        <time>2020-06-04T13:00:32Z</time>
      </trkpt>
      <trkpt lat="46.87513" lon="-2.02697">
        <ele>2.3</ele>
        <time>2020-06-04T13:00:33Z</time>
      </trkpt>
      <trkpt lat="46.87517" lon="-2.02691">
        <ele>2.3</ele>
        <time>2020-06-04T13:00:34Z</time>
      </trkpt>
      <trkpt lat="46.8752" lon="-2.02686">
        <ele>2.3</ele>
        <time>2020-06-04T13:00:35Z</time>
      </trkpt>
      <trkpt lat="46.87523" lon="-2.02681">
        <ele>2.2</ele>
        <time>2020-06-04T13:00:36Z</time>
      </trkpt>
      <trkpt lat="46.87528" lon="-2.02674">
        <ele>2.2</ele>
        <time>2020-06-04T13:00:37Z</time>
      </trkpt>
      <trkpt lat="46.87531" lon="-2.02668">
        <ele>2.2</ele>
        <time>2020-06-04T13:00:38Z</time>
      </trkpt>
      <trkpt lat="46.87535" lon="-2.02662">
        <ele>2.1</ele>
        <time>2020-06-04T13:00:39Z</time>
      </trkpt>
      <trkpt lat="46.87539" lon="-2.02655">
        <ele>2.1</ele>
        <time>2020-06-04T13:00:40Z</time>
      </trkpt>
      <trkpt lat="46.87543" lon="-2.02648">
        <ele>2</ele>
        <time>2020-06-04T13:00:41Z</time>
      </trkpt>
      <trkpt lat="46.87547" lon="-2.02642">
        <ele>2</ele>
        <time>2020-06-04T13:00:42Z</time>
      </trkpt>
      <trkpt lat="46.87551" lon="-2.02635">
        <ele>1.9</ele>
        <time>2020-06-04T13:00:43Z</time>
      </trkpt>
      <trkpt lat="46.87554" lon="-2.0263">
        <ele>1.8</ele>
        <time>2020-06-04T13:00:44Z</time>
      </trkpt>
      <trkpt lat="46.87558" lon="-2.02623">
        <ele>1.8</ele>
        <time>2020-06-04T13:00:45Z</time>
      </trkpt>
      <trkpt lat="46.87561" lon="-2.02616">
        <ele>1.7</ele>
        <time>2020-06-04T13:00:46Z</time>
      </trkpt>
      <trkpt lat="46.87565" lon="-2.0261">
        <ele>1.6</ele>
        <time>2020-06-04T13:00:47Z</time>
      </trkpt>
      <trkpt lat="46.87568" lon="-2.02604">
        <ele>1.6</ele>
        <time>2020-06-04T13:00:48Z</time>
      </trkpt>
      <trkpt lat="46.87571" lon="-2.02597">
        <ele>1.6</ele>
        <time>2020-06-04T13:00:49Z</time>
      </trkpt>
      <trkpt lat="46.87575" lon="-2.02589">
        <ele>1.6</ele>
        <time>2020-06-04T13:00:50Z</time>
      </trkpt>
      <trkpt lat="46.87578" lon="-2.02585">
        <ele>1.6</ele>
        <time>2020-06-04T13:00:51Z</time>
      </trkpt>
      <trkpt lat="46.87581" lon="-2.02578">
        <ele>1.5</ele>
        <time>2020-06-04T13:00:52Z</time>
      </trkpt>
      <trkpt lat="46.87584" lon="-2.02571">
        <ele>1.5</ele>
        <time>2020-06-04T13:00:53Z</time>
      </trkpt>
      <trkpt lat="46.87587" lon="-2.02565">
        <ele>1.5</ele>
        <time>2020-06-04T13:00:54Z</time>
      </trkpt>
      <trkpt lat="46.87589" lon="-2.02558">
        <ele>1.5</ele>
        <time>2020-06-04T13:00:55Z</time>
      </trkpt>
      <trkpt lat="46.87591" lon="-2.02551">
        <ele>1.5</ele>
        <time>2020-06-04T13:00:56Z</time>
      </trkpt>
      <trkpt lat="46.87592" lon="-2.02544">
        <ele>1.5</ele>
        <time>2020-06-04T13:00:57Z</time>
      </trkpt>
      <trkpt lat="46.87593" lon="-2.02537">
        <ele>1.5</ele>
        <time>2020-06-04T13:00:58Z</time>
      </trkpt>
      <trkpt lat="46.87594" lon="-2.0253">
        <ele>1.5</ele>
        <time>2020-06-04T13:00:59Z</time>
      </trkpt>
      <trkpt lat="46.87595" lon="-2.02522">
        <ele>1.5</ele>
        <time>2020-06-04T13:01:00Z</time>
      </trkpt>
      <trkpt lat="46.87597" lon="-2.02517">
        <ele>1.5</ele>
        <time>2020-06-04T13:01:01Z</time>
      </trkpt>
      <trkpt lat="46.87598" lon="-2.0251">
        <ele>1.5</ele>
        <time>2020-06-04T13:01:02Z</time>
      </trkpt>
      <trkpt lat="46.876" lon="-2.02501">
        <ele>1.5</ele>
        <time>2020-06-04T13:01:03Z</time>
      </trkpt>
      <trkpt lat="46.87599" lon="-2.02491">
        <ele>1.5</ele>
        <time>2020-06-04T13:01:04Z</time>
      </trkpt>
      <trkpt lat="46.87601" lon="-2.02482">
        <ele>1.5</ele>
        <time>2020-06-04T13:01:05Z</time>
      </trkpt>
      <trkpt lat="46.87602" lon="-2.02473">
        <ele>1.6</ele>
        <time>2020-06-04T13:01:06Z</time>
      </trkpt>
      <trkpt lat="46.87603" lon="-2.02464">
        <ele>1.6</ele>
        <time>2020-06-04T13:01:07Z</time>
      </trkpt>
      <trkpt lat="46.87603" lon="-2.02454">
        <ele>1.6</ele>
        <time>2020-06-04T13:01:08Z</time>
      </trkpt>
      <trkpt lat="46.87604" lon="-2.02446">
        <ele>1.6</ele>
        <time>2020-06-04T13:01:09Z</time>
      </trkpt>
      <trkpt lat="46.87605" lon="-2.02437">
        <ele>1.6</ele>
        <time>2020-06-04T13:01:10Z</time>
      </trkpt>
      <trkpt lat="46.87606" lon="-2.02429">
        <ele>1.6</ele>
        <time>2020-06-04T13:01:11Z</time>
      </trkpt>
      <trkpt lat="46.87607" lon="-2.02421">
        <ele>1.6</ele>
        <time>2020-06-04T13:01:12Z</time>
      </trkpt>
      <trkpt lat="46.87608" lon="-2.02413">
        <ele>1.6</ele>
        <time>2020-06-04T13:01:13Z</time>
      </trkpt>
      <trkpt lat="46.87609" lon="-2.02404">
        <ele>1.6</ele>
        <time>2020-06-04T13:01:14Z</time>
      </trkpt>
      <trkpt lat="46.8761" lon="-2.02397">
        <ele>1.6</ele>
        <time>2020-06-04T13:01:15Z</time>
      </trkpt>
      <trkpt lat="46.87611" lon="-2.02389">
        <ele>1.5</ele>
        <time>2020-06-04T13:01:16Z</time>
      </trkpt>
      <trkpt lat="46.87613" lon="-2.02382">
        <ele>1.5</ele>
        <time>2020-06-04T13:01:17Z</time>
      </trkpt>
      <trkpt lat="46.87614" lon="-2.02374">
        <ele>1.5</ele>
        <time>2020-06-04T13:01:18Z</time>
      </trkpt>
      <trkpt lat="46.87615" lon="-2.02365">
        <ele>1.5</ele>
        <time>2020-06-04T13:01:19Z</time>
      </trkpt>
      <trkpt lat="46.87616" lon="-2.02357">
        <ele>1.5</ele>
        <time>2020-06-04T13:01:20Z</time>
      </trkpt>
      <trkpt lat="46.87618" lon="-2.02349">
        <ele>1.5</ele>
        <time>2020-06-04T13:01:21Z</time>
      </trkpt>
      <trkpt lat="46.87619" lon="-2.02341">
        <ele>1.5</ele>
        <time>2020-06-04T13:01:22Z</time>
      </trkpt>
      <trkpt lat="46.8762" lon="-2.02332">
        <ele>1.5</ele>
        <time>2020-06-04T13:01:23Z</time>
      </trkpt>
      <trkpt lat="46.87621" lon="-2.02323">
        <ele>1.5</ele>
        <time>2020-06-04T13:01:24Z</time>
      </trkpt>
      <trkpt lat="46.87622" lon="-2.02315">
        <ele>1.5</ele>
        <time>2020-06-04T13:01:25Z</time>
      </trkpt>
      <trkpt lat="46.87623" lon="-2.02307">
        <ele>1.6</ele>
        <time>2020-06-04T13:01:26Z</time>
      </trkpt>
      <trkpt lat="46.87623" lon="-2.02298">
        <ele>1.6</ele>
        <time>2020-06-04T13:01:27Z</time>
      </trkpt>
      <trkpt lat="46.87625" lon="-2.0229">
        <ele>1.6</ele>
        <time>2020-06-04T13:01:28Z</time>
      </trkpt>
      <trkpt lat="46.87625" lon="-2.02281">
        <ele>1.6</ele>
        <time>2020-06-04T13:01:29Z</time>
      </trkpt>
      <trkpt lat="46.87626" lon="-2.02273">
        <ele>1.6</ele>
        <time>2020-06-04T13:01:30Z</time>
      </trkpt>
      <trkpt lat="46.87628" lon="-2.02266">
        <ele>1.6</ele>
        <time>2020-06-04T13:01:31Z</time>
      </trkpt>
      <trkpt lat="46.87629" lon="-2.02257">
        <ele>1.7</ele>
        <time>2020-06-04T13:01:32Z</time>
      </trkpt>
      <trkpt lat="46.8763" lon="-2.02249">
        <ele>1.7</ele>
        <time>2020-06-04T13:01:33Z</time>
      </trkpt>
      <trkpt lat="46.87632" lon="-2.02242">
        <ele>1.7</ele>
        <time>2020-06-04T13:01:34Z</time>
      </trkpt>
      <trkpt lat="46.87633" lon="-2.02233">
        <ele>1.7</ele>
        <time>2020-06-04T13:01:35Z</time>
      </trkpt>
      <trkpt lat="46.87634" lon="-2.02225">
        <ele>1.7</ele>
        <time>2020-06-04T13:01:36Z</time>
      </trkpt>
      <trkpt lat="46.87636" lon="-2.02218">
        <ele>1.7</ele>
        <time>2020-06-04T13:01:37Z</time>
      </trkpt>
      <trkpt lat="46.87638" lon="-2.02211">
        <ele>1.7</ele>
        <time>2020-06-04T13:01:38Z</time>
      </trkpt>
      <trkpt lat="46.87639" lon="-2.02204">
        <ele>1.7</ele>
        <time>2020-06-04T13:01:39Z</time>
      </trkpt>
      <trkpt lat="46.87641" lon="-2.02196">
        <ele>1.7</ele>
        <time>2020-06-04T13:01:40Z</time>
      </trkpt>
      <trkpt lat="46.87644" lon="-2.02189">
        <ele>1.8</ele>
        <time>2020-06-04T13:01:41Z</time>
      </trkpt>
      <trkpt lat="46.87646" lon="-2.02183">
        <ele>1.8</ele>
        <time>2020-06-04T13:01:42Z</time>
      </trkpt>
      <trkpt lat="46.87647" lon="-2.02174">
        <ele>1.8</ele>
        <time>2020-06-04T13:01:43Z</time>
      </trkpt>
      <trkpt lat="46.87649" lon="-2.02167">
        <ele>1.8</ele>
        <time>2020-06-04T13:01:44Z</time>
      </trkpt>
      <trkpt lat="46.87652" lon="-2.02161">
        <ele>1.9</ele>
        <time>2020-06-04T13:01:45Z</time>
      </trkpt>
      <trkpt lat="46.87655" lon="-2.02156">
        <ele>1.9</ele>
        <time>2020-06-04T13:01:46Z</time>
      </trkpt>
      <trkpt lat="46.87657" lon="-2.02149">
        <ele>1.9</ele>
        <time>2020-06-04T13:01:47Z</time>
      </trkpt>
      <trkpt lat="46.8766" lon="-2.02142">
        <ele>1.9</ele>
        <time>2020-06-04T13:01:48Z</time>
      </trkpt>
      <trkpt lat="46.87662" lon="-2.02135">
        <ele>1.9</ele>
        <time>2020-06-04T13:01:49Z</time>
      </trkpt>
      <trkpt lat="46.87664" lon="-2.02128">
        <ele>1.9</ele>
        <time>2020-06-04T13:01:50Z</time>
      </trkpt>
      <trkpt lat="46.87666" lon="-2.0212">
        <ele>1.9</ele>
        <time>2020-06-04T13:01:51Z</time>
      </trkpt>
      <trkpt lat="46.87668" lon="-2.02114">
        <ele>1.9</ele>
        <time>2020-06-04T13:01:52Z</time>
      </trkpt>
      <trkpt lat="46.87671" lon="-2.02106">
        <ele>1.9</ele>
        <time>2020-06-04T13:01:53Z</time>
      </trkpt>
      <trkpt lat="46.87673" lon="-2.02098">
        <ele>1.8</ele>
        <time>2020-06-04T13:01:54Z</time>
      </trkpt>
      <trkpt lat="46.87675" lon="-2.0209">
        <ele>1.8</ele>
        <time>2020-06-04T13:01:55Z</time>
      </trkpt>
      <trkpt lat="46.87676" lon="-2.02083">
        <ele>1.8</ele>
        <time>2020-06-04T13:01:56Z</time>
      </trkpt>
      <trkpt lat="46.87679" lon="-2.02078">
        <ele>1.7</ele>
        <time>2020-06-04T13:01:57Z</time>
      </trkpt>
      <trkpt lat="46.87681" lon="-2.02069">
        <ele>1.7</ele>
        <time>2020-06-04T13:01:58Z</time>
      </trkpt>
      <trkpt lat="46.87684" lon="-2.02061">
        <ele>1.6</ele>
        <time>2020-06-04T13:01:59Z</time>
      </trkpt>
      <trkpt lat="46.87686" lon="-2.02052">
        <ele>1.6</ele>
        <time>2020-06-04T13:02:00Z</time>
      </trkpt>
      <trkpt lat="46.87689" lon="-2.02044">
        <ele>1.6</ele>
        <time>2020-06-04T13:02:01Z</time>
      </trkpt>
      <trkpt lat="46.8769" lon="-2.02036">
        <ele>1.6</ele>
        <time>2020-06-04T13:02:02Z</time>
      </trkpt>
      <trkpt lat="46.87692" lon="-2.02028">
        <ele>1.5</ele>
        <time>2020-06-04T13:02:03Z</time>
      </trkpt>
      <trkpt lat="46.87693" lon="-2.02021">
        <ele>1.5</ele>
        <time>2020-06-04T13:02:04Z</time>
      </trkpt>
      <trkpt lat="46.87693" lon="-2.02013">
        <ele>1.6</ele>
        <time>2020-06-04T13:02:05Z</time>
      </trkpt>
      <trkpt lat="46.87695" lon="-2.02006">
        <ele>1.6</ele>
        <time>2020-06-04T13:02:06Z</time>
      </trkpt>
      <trkpt lat="46.87698" lon="-2.01997">
        <ele>1.7</ele>
        <time>2020-06-04T13:02:07Z</time>
      </trkpt>
      <trkpt lat="46.87701" lon="-2.01991">
        <ele>1.7</ele>
        <time>2020-06-04T13:02:08Z</time>
      </trkpt>
      <trkpt lat="46.87705" lon="-2.01989">
        <ele>1.7</ele>
        <time>2020-06-04T13:02:09Z</time>
      </trkpt>
      <trkpt lat="46.8771" lon="-2.01987">
        <ele>1.7</ele>
        <time>2020-06-04T13:02:10Z</time>
      </trkpt>
      <trkpt lat="46.87714" lon="-2.01986">
        <ele>1.7</ele>
        <time>2020-06-04T13:02:11Z</time>
      </trkpt>
      <trkpt lat="46.87718" lon="-2.01983">
        <ele>1.7</ele>
        <time>2020-06-04T13:02:12Z</time>
      </trkpt>
      <trkpt lat="46.87721" lon="-2.01981">
        <ele>1.7</ele>
        <time>2020-06-04T13:02:13Z</time>
      </trkpt>
      <trkpt lat="46.87724" lon="-2.0198">
        <ele>1.7</ele>
        <time>2020-06-04T13:02:14Z</time>
      </trkpt>
      <trkpt lat="46.87728" lon="-2.0198">
        <ele>1.7</ele>
        <time>2020-06-04T13:02:15Z</time>
      </trkpt>
      <trkpt lat="46.87728" lon="-2.0198">
        <ele>1.7</ele>
        <time>2020-06-04T13:02:16Z</time>
      </trkpt>
      <trkpt lat="46.8773" lon="-2.01981">
        <ele>1.7</ele>
        <time>2020-06-04T13:02:17Z</time>
      </trkpt>
      <trkpt lat="46.8773" lon="-2.01981">
        <ele>1.7</ele>
        <time>2020-06-04T13:02:18Z</time>
      </trkpt>
      <trkpt lat="46.87731" lon="-2.01981">
        <ele>1.7</ele>
        <time>2020-06-04T13:02:19Z</time>
      </trkpt>
      <trkpt lat="46.87732" lon="-2.01981">
        <ele>1.7</ele>
        <time>2020-06-04T13:02:20Z</time>
      </trkpt>
      <trkpt lat="46.87736" lon="-2.01981">
        <ele>1.7</ele>
        <time>2020-06-04T13:02:21Z</time>
      </trkpt>
      <trkpt lat="46.87738" lon="-2.01981">
        <ele>1.7</ele>
        <time>2020-06-04T13:02:22Z</time>
      </trkpt>
      <trkpt lat="46.87741" lon="-2.0198">
        <ele>1.7</ele>
        <time>2020-06-04T13:02:23Z</time>
      </trkpt>
      <trkpt lat="46.87742" lon="-2.01979">
        <ele>1.7</ele>
        <time>2020-06-04T13:02:24Z</time>
      </trkpt>
      <trkpt lat="46.87746" lon="-2.01978">
        <ele>1.8</ele>
        <time>2020-06-04T13:02:25Z</time>
      </trkpt>
      <trkpt lat="46.87747" lon="-2.01978">
        <ele>1.8</ele>
        <time>2020-06-04T13:02:26Z</time>
      </trkpt>
      <trkpt lat="46.8775" lon="-2.01977">
        <ele>1.8</ele>
        <time>2020-06-04T13:02:27Z</time>
      </trkpt>
      <trkpt lat="46.87754" lon="-2.01976">
        <ele>1.8</ele>
        <time>2020-06-04T13:02:28Z</time>
      </trkpt>
      <trkpt lat="46.87755" lon="-2.01975">
        <ele>1.8</ele>
        <time>2020-06-04T13:02:29Z</time>
      </trkpt>
      <trkpt lat="46.87758" lon="-2.01975">
        <ele>1.8</ele>
        <time>2020-06-04T13:02:30Z</time>
      </trkpt>
      <trkpt lat="46.87759" lon="-2.01975">
        <ele>1.8</ele>
        <time>2020-06-04T13:02:31Z</time>
      </trkpt>
      <trkpt lat="46.8776" lon="-2.01976">
        <ele>1.8</ele>
        <time>2020-06-04T13:02:32Z</time>
      </trkpt>
      <trkpt lat="46.87761" lon="-2.01975">
        <ele>1.8</ele>
        <time>2020-06-04T13:02:33Z</time>
      </trkpt>
      <trkpt lat="46.87762" lon="-2.01975">
        <ele>1.8</ele>
        <time>2020-06-04T13:02:34Z</time>
      </trkpt>
      <trkpt lat="46.87763" lon="-2.01975">
        <ele>1.8</ele>
        <time>2020-06-04T13:02:35Z</time>
      </trkpt>
      <trkpt lat="46.87764" lon="-2.01974">
        <ele>1.8</ele>
        <time>2020-06-04T13:02:36Z</time>
      </trkpt>
      <trkpt lat="46.87764" lon="-2.01974">
        <ele>1.8</ele>
        <time>2020-06-04T13:02:37Z</time>
      </trkpt>
      <trkpt lat="46.87765" lon="-2.01974">
        <ele>1.8</ele>
        <time>2020-06-04T13:02:38Z</time>
      </trkpt>
      <trkpt lat="46.87766" lon="-2.01974">
        <ele>1.8</ele>
        <time>2020-06-04T13:02:39Z</time>
      </trkpt>
      <trkpt lat="46.87767" lon="-2.01974">
        <ele>1.8</ele>
        <time>2020-06-04T13:02:40Z</time>
      </trkpt>
      <trkpt lat="46.87767" lon="-2.01974">
        <ele>1.8</ele>
        <time>2020-06-04T13:02:41Z</time>
      </trkpt>
      <trkpt lat="46.87768" lon="-2.01973">
        <ele>1.8</ele>
        <time>2020-06-04T13:02:42Z</time>
      </trkpt>
      <trkpt lat="46.87769" lon="-2.01973">
        <ele>1.8</ele>
        <time>2020-06-04T13:02:43Z</time>
      </trkpt>
      <trkpt lat="46.8777" lon="-2.01973">
        <ele>1.8</ele>
        <time>2020-06-04T13:04:08Z</time>
      </trkpt>
      <trkpt lat="46.8777" lon="-2.01973">
        <ele>1.8</ele>
        <time>2020-06-04T13:04:09Z</time>
      </trkpt>
      <trkpt lat="46.87774" lon="-2.01974">
        <ele>1.8</ele>
        <time>2020-06-04T13:04:10Z</time>
      </trkpt>
      <trkpt lat="46.87775" lon="-2.01974">
        <ele>1.8</ele>
        <time>2020-06-04T13:04:11Z</time>
      </trkpt>
      <trkpt lat="46.87779" lon="-2.01973">
        <ele>1.8</ele>
        <time>2020-06-04T13:04:12Z</time>
      </trkpt>
      <trkpt lat="46.87783" lon="-2.01972">
        <ele>1.8</ele>
        <time>2020-06-04T13:04:13Z</time>
      </trkpt>
      <trkpt lat="46.87789" lon="-2.01972">
        <ele>1.9</ele>
        <time>2020-06-04T13:04:14Z</time>
      </trkpt>
      <trkpt lat="46.87795" lon="-2.0197">
        <ele>1.9</ele>
        <time>2020-06-04T13:04:15Z</time>
      </trkpt>
      <trkpt lat="46.878" lon="-2.01969">
        <ele>1.9</ele>
        <time>2020-06-04T13:04:16Z</time>
      </trkpt>
      <trkpt lat="46.87805" lon="-2.01966">
        <ele>1.9</ele>
        <time>2020-06-04T13:04:17Z</time>
      </trkpt>
      <trkpt lat="46.87809" lon="-2.01962">
        <ele>1.9</ele>
        <time>2020-06-04T13:04:18Z</time>
      </trkpt>
      <trkpt lat="46.87814" lon="-2.01959">
        <ele>1.9</ele>
        <time>2020-06-04T13:04:19Z</time>
      </trkpt>
      <trkpt lat="46.8782" lon="-2.01958">
        <ele>1.9</ele>
        <time>2020-06-04T13:04:20Z</time>
      </trkpt>
      <trkpt lat="46.87825" lon="-2.01956">
        <ele>2</ele>
        <time>2020-06-04T13:04:21Z</time>
      </trkpt>
      <trkpt lat="46.87831" lon="-2.01954">
        <ele>2</ele>
        <time>2020-06-04T13:04:22Z</time>
      </trkpt>
      <trkpt lat="46.87837" lon="-2.01953">
        <ele>2</ele>
        <time>2020-06-04T13:04:23Z</time>
      </trkpt>
      <trkpt lat="46.87843" lon="-2.0195">
        <ele>2</ele>
        <time>2020-06-04T13:04:24Z</time>
      </trkpt>
      <trkpt lat="46.8785" lon="-2.01948">
        <ele>2</ele>
        <time>2020-06-04T13:04:25Z</time>
      </trkpt>
      <trkpt lat="46.87856" lon="-2.01947">
        <ele>2</ele>
        <time>2020-06-04T13:04:26Z</time>
      </trkpt>
      <trkpt lat="46.87861" lon="-2.01945">
        <ele>2</ele>
        <time>2020-06-04T13:04:27Z</time>
      </trkpt>
      <trkpt lat="46.87866" lon="-2.01943">
        <ele>2</ele>
        <time>2020-06-04T13:04:28Z</time>
      </trkpt>
      <trkpt lat="46.87872" lon="-2.0194">
        <ele>2</ele>
        <time>2020-06-04T13:04:29Z</time>
      </trkpt>
      <trkpt lat="46.87876" lon="-2.01938">
        <ele>2.1</ele>
        <time>2020-06-04T13:04:30Z</time>
      </trkpt>
      <trkpt lat="46.87881" lon="-2.01935">
        <ele>2.1</ele>
        <time>2020-06-04T13:04:31Z</time>
      </trkpt>
      <trkpt lat="46.87885" lon="-2.01932">
        <ele>2.1</ele>
        <time>2020-06-04T13:04:32Z</time>
      </trkpt>
      <trkpt lat="46.8789" lon="-2.01929">
        <ele>2.1</ele>
        <time>2020-06-04T13:04:33Z</time>
      </trkpt>
      <trkpt lat="46.87894" lon="-2.01925">
        <ele>2.1</ele>
        <time>2020-06-04T13:04:34Z</time>
      </trkpt>
      <trkpt lat="46.87898" lon="-2.01921">
        <ele>2.1</ele>
        <time>2020-06-04T13:04:35Z</time>
      </trkpt>
      <trkpt lat="46.87902" lon="-2.01918">
        <ele>2.1</ele>
        <time>2020-06-04T13:04:36Z</time>
      </trkpt>
      <trkpt lat="46.87906" lon="-2.01915">
        <ele>2.1</ele>
        <time>2020-06-04T13:04:37Z</time>
      </trkpt>
      <trkpt lat="46.87909" lon="-2.01912">
        <ele>2.1</ele>
        <time>2020-06-04T13:04:38Z</time>
      </trkpt>
      <trkpt lat="46.87912" lon="-2.0191">
        <ele>2.1</ele>
        <time>2020-06-04T13:04:39Z</time>
      </trkpt>
      <trkpt lat="46.87916" lon="-2.01908">
        <ele>2.2</ele>
        <time>2020-06-04T13:04:40Z</time>
      </trkpt>
      <trkpt lat="46.87919" lon="-2.01906">
        <ele>2.2</ele>
        <time>2020-06-04T13:04:41Z</time>
      </trkpt>
      <trkpt lat="46.87922" lon="-2.01905">
        <ele>2.2</ele>
        <time>2020-06-04T13:04:42Z</time>
      </trkpt>
      <trkpt lat="46.87925" lon="-2.01904">
        <ele>2.2</ele>
        <time>2020-06-04T13:04:43Z</time>
      </trkpt>
      <trkpt lat="46.87928" lon="-2.01904">
        <ele>2.2</ele>
        <time>2020-06-04T13:04:44Z</time>
      </trkpt>
      <trkpt lat="46.87931" lon="-2.01908">
        <ele>2.2</ele>
        <time>2020-06-04T13:04:45Z</time>
      </trkpt>
      <trkpt lat="46.87931" lon="-2.0191">
        <ele>2.2</ele>
        <time>2020-06-04T13:04:46Z</time>
      </trkpt>
      <trkpt lat="46.87932" lon="-2.01914">
        <ele>2.2</ele>
        <time>2020-06-04T13:04:47Z</time>
      </trkpt>
      <trkpt lat="46.87933" lon="-2.0192">
        <ele>2.2</ele>
        <time>2020-06-04T13:04:48Z</time>
      </trkpt>
      <trkpt lat="46.87933" lon="-2.01927">
        <ele>2.1</ele>
        <time>2020-06-04T13:04:49Z</time>
      </trkpt>
      <trkpt lat="46.87934" lon="-2.01933">
        <ele>2.1</ele>
        <time>2020-06-04T13:04:50Z</time>
      </trkpt>
      <trkpt lat="46.87934" lon="-2.01939">
        <ele>2.1</ele>
        <time>2020-06-04T13:04:51Z</time>
      </trkpt>
      <trkpt lat="46.87934" lon="-2.01945">
        <ele>2.1</ele>
        <time>2020-06-04T13:04:52Z</time>
      </trkpt>
      <trkpt lat="46.87934" lon="-2.01952">
        <ele>2.1</ele>
        <time>2020-06-04T13:04:53Z</time>
      </trkpt>
      <trkpt lat="46.87935" lon="-2.01958">
        <ele>2</ele>
        <time>2020-06-04T13:04:54Z</time>
      </trkpt>
      <trkpt lat="46.87935" lon="-2.01965">
        <ele>2</ele>
        <time>2020-06-04T13:04:55Z</time>
      </trkpt>
      <trkpt lat="46.87935" lon="-2.01971">
        <ele>2</ele>
        <time>2020-06-04T13:04:56Z</time>
      </trkpt>
      <trkpt lat="46.87935" lon="-2.01978">
        <ele>2</ele>
        <time>2020-06-04T13:04:57Z</time>
      </trkpt>
      <trkpt lat="46.87936" lon="-2.01985">
        <ele>2</ele>
        <time>2020-06-04T13:04:58Z</time>
      </trkpt>
      <trkpt lat="46.87936" lon="-2.01993">
        <ele>1.9</ele>
        <time>2020-06-04T13:04:59Z</time>
      </trkpt>
      <trkpt lat="46.87936" lon="-2.01999">
        <ele>1.9</ele>
        <time>2020-06-04T13:05:00Z</time>
      </trkpt>
      <trkpt lat="46.87937" lon="-2.02006">
        <ele>1.9</ele>
        <time>2020-06-04T13:05:01Z</time>
      </trkpt>
      <trkpt lat="46.87937" lon="-2.02014">
        <ele>1.9</ele>
        <time>2020-06-04T13:05:02Z</time>
      </trkpt>
      <trkpt lat="46.87937" lon="-2.02022">
        <ele>1.8</ele>
        <time>2020-06-04T13:05:03Z</time>
      </trkpt>
      <trkpt lat="46.87937" lon="-2.02029">
        <ele>1.8</ele>
        <time>2020-06-04T13:05:04Z</time>
      </trkpt>
      <trkpt lat="46.87938" lon="-2.02036">
        <ele>1.8</ele>
        <time>2020-06-04T13:05:05Z</time>
      </trkpt>
      <trkpt lat="46.87938" lon="-2.02043">
        <ele>1.8</ele>
        <time>2020-06-04T13:05:06Z</time>
      </trkpt>
      <trkpt lat="46.87938" lon="-2.0205">
        <ele>1.8</ele>
        <time>2020-06-04T13:05:07Z</time>
      </trkpt>
      <trkpt lat="46.87938" lon="-2.02056">
        <ele>1.8</ele>
        <time>2020-06-04T13:05:08Z</time>
      </trkpt>
      <trkpt lat="46.87939" lon="-2.02063">
        <ele>1.8</ele>
        <time>2020-06-04T13:05:09Z</time>
      </trkpt>
      <trkpt lat="46.87939" lon="-2.02069">
        <ele>1.7</ele>
        <time>2020-06-04T13:05:10Z</time>
      </trkpt>
      <trkpt lat="46.87939" lon="-2.02076">
        <ele>1.7</ele>
        <time>2020-06-04T13:05:11Z</time>
      </trkpt>
      <trkpt lat="46.8794" lon="-2.02083">
        <ele>1.7</ele>
        <time>2020-06-04T13:05:12Z</time>
      </trkpt>
      <trkpt lat="46.8794" lon="-2.02089">
        <ele>1.7</ele>
        <time>2020-06-04T13:05:13Z</time>
      </trkpt>
      <trkpt lat="46.8794" lon="-2.02094">
        <ele>1.7</ele>
        <time>2020-06-04T13:05:14Z</time>
      </trkpt>
      <trkpt lat="46.8794" lon="-2.02101">
        <ele>1.7</ele>
        <time>2020-06-04T13:05:15Z</time>
      </trkpt>
      <trkpt lat="46.8794" lon="-2.0211">
        <ele>1.6</ele>
        <time>2020-06-04T13:05:16Z</time>
      </trkpt>
      <trkpt lat="46.8794" lon="-2.02117">
        <ele>1.6</ele>
        <time>2020-06-04T13:05:17Z</time>
      </trkpt>
      <trkpt lat="46.8794" lon="-2.02125">
        <ele>1.6</ele>
        <time>2020-06-04T13:05:18Z</time>
      </trkpt>
      <trkpt lat="46.8794" lon="-2.02133">
        <ele>1.6</ele>
        <time>2020-06-04T13:05:19Z</time>
      </trkpt>
      <trkpt lat="46.8794" lon="-2.02139">
        <ele>1.6</ele>
        <time>2020-06-04T13:05:20Z</time>
      </trkpt>
      <trkpt lat="46.8794" lon="-2.02145">
        <ele>1.6</ele>
        <time>2020-06-04T13:05:21Z</time>
      </trkpt>
      <trkpt lat="46.8794" lon="-2.02152">
        <ele>1.5</ele>
        <time>2020-06-04T13:05:22Z</time>
      </trkpt>
      <trkpt lat="46.8794" lon="-2.0216">
        <ele>1.5</ele>
        <time>2020-06-04T13:05:23Z</time>
      </trkpt>
      <trkpt lat="46.8794" lon="-2.02166">
        <ele>1.5</ele>
        <time>2020-06-04T13:05:24Z</time>
      </trkpt>
      <trkpt lat="46.87941" lon="-2.02173">
        <ele>1.5</ele>
        <time>2020-06-04T13:05:25Z</time>
      </trkpt>
      <trkpt lat="46.87942" lon="-2.0218">
        <ele>1.5</ele>
        <time>2020-06-04T13:05:26Z</time>
      </trkpt>
      <trkpt lat="46.87943" lon="-2.02187">
        <ele>1.5</ele>
        <time>2020-06-04T13:05:27Z</time>
      </trkpt>
      <trkpt lat="46.87944" lon="-2.02195">
        <ele>1.4</ele>
        <time>2020-06-04T13:05:28Z</time>
      </trkpt>
      <trkpt lat="46.87945" lon="-2.02203">
        <ele>1.4</ele>
        <time>2020-06-04T13:05:29Z</time>
      </trkpt>
      <trkpt lat="46.87946" lon="-2.02211">
        <ele>1.4</ele>
        <time>2020-06-04T13:05:30Z</time>
      </trkpt>
      <trkpt lat="46.87948" lon="-2.02219">
        <ele>1.4</ele>
        <time>2020-06-04T13:05:31Z</time>
      </trkpt>
      <trkpt lat="46.87949" lon="-2.02226">
        <ele>1.4</ele>
        <time>2020-06-04T13:05:32Z</time>
      </trkpt>
      <trkpt lat="46.8795" lon="-2.02233">
        <ele>1.3</ele>
        <time>2020-06-04T13:05:33Z</time>
      </trkpt>
      <trkpt lat="46.87951" lon="-2.0224">
        <ele>1.3</ele>
        <time>2020-06-04T13:05:34Z</time>
      </trkpt>
      <trkpt lat="46.87952" lon="-2.02248">
        <ele>1.3</ele>
        <time>2020-06-04T13:05:35Z</time>
      </trkpt>
      <trkpt lat="46.87953" lon="-2.02254">
        <ele>1.3</ele>
        <time>2020-06-04T13:05:36Z</time>
      </trkpt>
      <trkpt lat="46.87954" lon="-2.02261">
        <ele>1.3</ele>
        <time>2020-06-04T13:05:37Z</time>
      </trkpt>
      <trkpt lat="46.87955" lon="-2.02269">
        <ele>1.2</ele>
        <time>2020-06-04T13:05:38Z</time>
      </trkpt>
      <trkpt lat="46.87956" lon="-2.02276">
        <ele>1.2</ele>
        <time>2020-06-04T13:05:39Z</time>
      </trkpt>
      <trkpt lat="46.87957" lon="-2.02284">
        <ele>1.2</ele>
        <time>2020-06-04T13:05:40Z</time>
      </trkpt>
      <trkpt lat="46.87958" lon="-2.02292">
        <ele>1.2</ele>
        <time>2020-06-04T13:05:41Z</time>
      </trkpt>
      <trkpt lat="46.87961" lon="-2.02299">
        <ele>1.2</ele>
        <time>2020-06-04T13:05:42Z</time>
      </trkpt>
      <trkpt lat="46.87963" lon="-2.02305">
        <ele>1.1</ele>
        <time>2020-06-04T13:05:43Z</time>
      </trkpt>
      <trkpt lat="46.87966" lon="-2.02311">
        <ele>1.1</ele>
        <time>2020-06-04T13:05:44Z</time>
      </trkpt>
      <trkpt lat="46.87968" lon="-2.02319">
        <ele>1.1</ele>
        <time>2020-06-04T13:05:45Z</time>
      </trkpt>
      <trkpt lat="46.8797" lon="-2.02326">
        <ele>1.1</ele>
        <time>2020-06-04T13:05:46Z</time>
      </trkpt>
      <trkpt lat="46.87973" lon="-2.02333">
        <ele>1.1</ele>
        <time>2020-06-04T13:05:47Z</time>
      </trkpt>
      <trkpt lat="46.87976" lon="-2.0234">
        <ele>1.1</ele>
        <time>2020-06-04T13:05:48Z</time>
      </trkpt>
      <trkpt lat="46.87978" lon="-2.02347">
        <ele>1.1</ele>
        <time>2020-06-04T13:05:49Z</time>
      </trkpt>
      <trkpt lat="46.87981" lon="-2.02354">
        <ele>1.1</ele>
        <time>2020-06-04T13:05:50Z</time>
      </trkpt>
      <trkpt lat="46.87982" lon="-2.02361">
        <ele>1.1</ele>
        <time>2020-06-04T13:05:51Z</time>
      </trkpt>
      <trkpt lat="46.87984" lon="-2.02367">
        <ele>1.1</ele>
        <time>2020-06-04T13:05:52Z</time>
      </trkpt>
      <trkpt lat="46.87986" lon="-2.02375">
        <ele>1.1</ele>
        <time>2020-06-04T13:05:53Z</time>
      </trkpt>
      <trkpt lat="46.87989" lon="-2.02382">
        <ele>1.1</ele>
        <time>2020-06-04T13:05:54Z</time>
      </trkpt>
      <trkpt lat="46.87991" lon="-2.02389">
        <ele>1.1</ele>
        <time>2020-06-04T13:05:55Z</time>
      </trkpt>
      <trkpt lat="46.87993" lon="-2.02397">
        <ele>1.1</ele>
        <time>2020-06-04T13:05:56Z</time>
      </trkpt>
      <trkpt lat="46.87995" lon="-2.02406">
        <ele>1</ele>
        <time>2020-06-04T13:05:57Z</time>
      </trkpt>
      <trkpt lat="46.87997" lon="-2.02413">
        <ele>1</ele>
        <time>2020-06-04T13:05:58Z</time>
      </trkpt>
      <trkpt lat="46.87998" lon="-2.0242">
        <ele>1</ele>
        <time>2020-06-04T13:05:59Z</time>
      </trkpt>
      <trkpt lat="46.88" lon="-2.02428">
        <ele>1</ele>
        <time>2020-06-04T13:06:00Z</time>
      </trkpt>
      <trkpt lat="46.88001" lon="-2.02436">
        <ele>1</ele>
        <time>2020-06-04T13:06:01Z</time>
      </trkpt>
      <trkpt lat="46.88003" lon="-2.02443">
        <ele>1</ele>
        <time>2020-06-04T13:06:02Z</time>
      </trkpt>
      <trkpt lat="46.88005" lon="-2.0245">
        <ele>1</ele>
        <time>2020-06-04T13:06:03Z</time>
      </trkpt>
      <trkpt lat="46.88006" lon="-2.02457">
        <ele>1</ele>
        <time>2020-06-04T13:06:04Z</time>
      </trkpt>
      <trkpt lat="46.88007" lon="-2.02464">
        <ele>1</ele>
        <time>2020-06-04T13:06:05Z</time>
      </trkpt>
      <trkpt lat="46.88009" lon="-2.02471">
        <ele>1</ele>
        <time>2020-06-04T13:06:06Z</time>
      </trkpt>
      <trkpt lat="46.8801" lon="-2.02477">
        <ele>1</ele>
        <time>2020-06-04T13:06:07Z</time>
      </trkpt>
      <trkpt lat="46.88012" lon="-2.02484">
        <ele>1</ele>
        <time>2020-06-04T13:06:08Z</time>
      </trkpt>
      <trkpt lat="46.88014" lon="-2.0249">
        <ele>1</ele>
        <time>2020-06-04T13:06:09Z</time>
      </trkpt>
      <trkpt lat="46.88016" lon="-2.02497">
        <ele>1</ele>
        <time>2020-06-04T13:06:10Z</time>
      </trkpt>
      <trkpt lat="46.88017" lon="-2.02503">
        <ele>1</ele>
        <time>2020-06-04T13:06:11Z</time>
      </trkpt>
      <trkpt lat="46.88019" lon="-2.02509">
        <ele>1</ele>
        <time>2020-06-04T13:06:12Z</time>
      </trkpt>
      <trkpt lat="46.8802" lon="-2.02514">
        <ele>1</ele>
        <time>2020-06-04T13:06:13Z</time>
      </trkpt>
      <trkpt lat="46.88022" lon="-2.02518">
        <ele>1</ele>
        <time>2020-06-04T13:06:14Z</time>
      </trkpt>
      <trkpt lat="46.88024" lon="-2.02523">
        <ele>1</ele>
        <time>2020-06-04T13:06:15Z</time>
      </trkpt>
      <trkpt lat="46.88025" lon="-2.02527">
        <ele>1</ele>
        <time>2020-06-04T13:06:16Z</time>
      </trkpt>
      <trkpt lat="46.88027" lon="-2.0253">
        <ele>1</ele>
        <time>2020-06-04T13:06:17Z</time>
      </trkpt>
      <trkpt lat="46.88029" lon="-2.02535">
        <ele>1</ele>
        <time>2020-06-04T13:06:18Z</time>
      </trkpt>
      <trkpt lat="46.88031" lon="-2.02538">
        <ele>1</ele>
        <time>2020-06-04T13:06:19Z</time>
      </trkpt>
      <trkpt lat="46.88034" lon="-2.02541">
        <ele>1</ele>
        <time>2020-06-04T13:06:20Z</time>
      </trkpt>
      <trkpt lat="46.88036" lon="-2.02544">
        <ele>1</ele>
        <time>2020-06-04T13:06:21Z</time>
      </trkpt>
      <trkpt lat="46.8804" lon="-2.02544">
        <ele>1.1</ele>
        <time>2020-06-04T13:06:22Z</time>
      </trkpt>
      <trkpt lat="46.88043" lon="-2.02543">
        <ele>1.1</ele>
        <time>2020-06-04T13:06:23Z</time>
      </trkpt>
      <trkpt lat="46.88047" lon="-2.02543">
        <ele>1.1</ele>
        <time>2020-06-04T13:06:24Z</time>
      </trkpt>
      <trkpt lat="46.88052" lon="-2.02543">
        <ele>1.1</ele>
        <time>2020-06-04T13:06:25Z</time>
      </trkpt>
      <trkpt lat="46.88056" lon="-2.02543">
        <ele>1.1</ele>
        <time>2020-06-04T13:06:26Z</time>
      </trkpt>
      <trkpt lat="46.8806" lon="-2.02543">
        <ele>1.1</ele>
        <time>2020-06-04T13:06:27Z</time>
      </trkpt>
      <trkpt lat="46.88065" lon="-2.02543">
        <ele>1.1</ele>
        <time>2020-06-04T13:06:28Z</time>
      </trkpt>
      <trkpt lat="46.88069" lon="-2.02543">
        <ele>1.1</ele>
        <time>2020-06-04T13:06:29Z</time>
      </trkpt>
      <trkpt lat="46.88073" lon="-2.02543">
        <ele>1.1</ele>
        <time>2020-06-04T13:06:30Z</time>
      </trkpt>
      <trkpt lat="46.88078" lon="-2.02542">
        <ele>1.1</ele>
        <time>2020-06-04T13:06:31Z</time>
      </trkpt>
      <trkpt lat="46.88083" lon="-2.02542">
        <ele>1.1</ele>
        <time>2020-06-04T13:06:32Z</time>
      </trkpt>
      <trkpt lat="46.88087" lon="-2.02542">
        <ele>1.1</ele>
        <time>2020-06-04T13:06:33Z</time>
      </trkpt>
      <trkpt lat="46.88092" lon="-2.02542">
        <ele>1.1</ele>
        <time>2020-06-04T13:06:34Z</time>
      </trkpt>
      <trkpt lat="46.88096" lon="-2.02541">
        <ele>1.1</ele>
        <time>2020-06-04T13:06:35Z</time>
      </trkpt>
      <trkpt lat="46.881" lon="-2.02541">
        <ele>1.1</ele>
        <time>2020-06-04T13:06:36Z</time>
      </trkpt>
      <trkpt lat="46.88105" lon="-2.02541">
        <ele>1.1</ele>
        <time>2020-06-04T13:06:37Z</time>
      </trkpt>
      <trkpt lat="46.8811" lon="-2.02541">
        <ele>1.1</ele>
        <time>2020-06-04T13:06:38Z</time>
      </trkpt>
      <trkpt lat="46.88114" lon="-2.02542">
        <ele>1.1</ele>
        <time>2020-06-04T13:06:39Z</time>
      </trkpt>
      <trkpt lat="46.88119" lon="-2.02542">
        <ele>1.2</ele>
        <time>2020-06-04T13:06:40Z</time>
      </trkpt>
      <trkpt lat="46.88125" lon="-2.02543">
        <ele>1.2</ele>
        <time>2020-06-04T13:06:41Z</time>
      </trkpt>
      <trkpt lat="46.88131" lon="-2.02544">
        <ele>1.2</ele>
        <time>2020-06-04T13:06:42Z</time>
      </trkpt>
      <trkpt lat="46.88136" lon="-2.02543">
        <ele>1.3</ele>
        <time>2020-06-04T13:06:43Z</time>
      </trkpt>
      <trkpt lat="46.88141" lon="-2.02542">
        <ele>1.3</ele>
        <time>2020-06-04T13:06:44Z</time>
      </trkpt>
      <trkpt lat="46.88146" lon="-2.02539">
        <ele>1.4</ele>
        <time>2020-06-04T13:06:45Z</time>
      </trkpt>
      <trkpt lat="46.88152" lon="-2.02538">
        <ele>1.4</ele>
        <time>2020-06-04T13:06:46Z</time>
      </trkpt>
      <trkpt lat="46.88158" lon="-2.02537">
        <ele>1.4</ele>
        <time>2020-06-04T13:06:47Z</time>
      </trkpt>
      <trkpt lat="46.88163" lon="-2.02535">
        <ele>1.5</ele>
        <time>2020-06-04T13:06:48Z</time>
      </trkpt>
      <trkpt lat="46.88169" lon="-2.02534">
        <ele>1.5</ele>
        <time>2020-06-04T13:06:49Z</time>
      </trkpt>
      <trkpt lat="46.88174" lon="-2.02534">
        <ele>1.5</ele>
        <time>2020-06-04T13:06:50Z</time>
      </trkpt>
      <trkpt lat="46.88179" lon="-2.02533">
        <ele>1.6</ele>
        <time>2020-06-04T13:06:51Z</time>
      </trkpt>
      <trkpt lat="46.88184" lon="-2.02532">
        <ele>1.6</ele>
        <time>2020-06-04T13:06:52Z</time>
      </trkpt>
      <trkpt lat="46.88188" lon="-2.02531">
        <ele>1.6</ele>
        <time>2020-06-04T13:06:53Z</time>
      </trkpt>
      <trkpt lat="46.88194" lon="-2.02529">
        <ele>1.7</ele>
        <time>2020-06-04T13:06:54Z</time>
      </trkpt>
      <trkpt lat="46.88199" lon="-2.02527">
        <ele>1.7</ele>
        <time>2020-06-04T13:06:55Z</time>
      </trkpt>
      <trkpt lat="46.88205" lon="-2.02525">
        <ele>1.7</ele>
        <time>2020-06-04T13:06:56Z</time>
      </trkpt>
      <trkpt lat="46.8821" lon="-2.02521">
        <ele>1.7</ele>
        <time>2020-06-04T13:06:57Z</time>
      </trkpt>
      <trkpt lat="46.88216" lon="-2.02518">
        <ele>1.8</ele>
        <time>2020-06-04T13:06:58Z</time>
      </trkpt>
      <trkpt lat="46.88221" lon="-2.02515">
        <ele>1.8</ele>
        <time>2020-06-04T13:06:59Z</time>
      </trkpt>
      <trkpt lat="46.88227" lon="-2.02512">
        <ele>1.8</ele>
        <time>2020-06-04T13:07:00Z</time>
      </trkpt>
      <trkpt lat="46.88232" lon="-2.02511">
        <ele>1.8</ele>
        <time>2020-06-04T13:07:01Z</time>
      </trkpt>
      <trkpt lat="46.88237" lon="-2.02509">
        <ele>1.8</ele>
        <time>2020-06-04T13:07:02Z</time>
      </trkpt>
      <trkpt lat="46.88243" lon="-2.02506">
        <ele>1.8</ele>
        <time>2020-06-04T13:07:03Z</time>
      </trkpt>
      <trkpt lat="46.88248" lon="-2.02502">
        <ele>1.8</ele>
        <time>2020-06-04T13:07:04Z</time>
      </trkpt>
      <trkpt lat="46.88253" lon="-2.02499">
        <ele>1.8</ele>
        <time>2020-06-04T13:07:05Z</time>
      </trkpt>
      <trkpt lat="46.88258" lon="-2.02496">
        <ele>1.8</ele>
        <time>2020-06-04T13:07:06Z</time>
      </trkpt>
      <trkpt lat="46.88263" lon="-2.02492">
        <ele>1.8</ele>
        <time>2020-06-04T13:07:07Z</time>
      </trkpt>
      <trkpt lat="46.88268" lon="-2.02489">
        <ele>1.9</ele>
        <time>2020-06-04T13:07:08Z</time>
      </trkpt>
      <trkpt lat="46.88274" lon="-2.02486">
        <ele>1.9</ele>
        <time>2020-06-04T13:07:09Z</time>
      </trkpt>
      <trkpt lat="46.88278" lon="-2.02484">
        <ele>1.9</ele>
        <time>2020-06-04T13:07:10Z</time>
      </trkpt>
      <trkpt lat="46.88284" lon="-2.02481">
        <ele>2</ele>
        <time>2020-06-04T13:07:11Z</time>
      </trkpt>
      <trkpt lat="46.88289" lon="-2.02478">
        <ele>2.1</ele>
        <time>2020-06-04T13:07:12Z</time>
      </trkpt>
      <trkpt lat="46.88295" lon="-2.02476">
        <ele>2.1</ele>
        <time>2020-06-04T13:07:13Z</time>
      </trkpt>
      <trkpt lat="46.883" lon="-2.02474">
        <ele>2.2</ele>
        <time>2020-06-04T13:07:14Z</time>
      </trkpt>
      <trkpt lat="46.88306" lon="-2.02471">
        <ele>2.2</ele>
        <time>2020-06-04T13:07:15Z</time>
      </trkpt>
      <trkpt lat="46.88311" lon="-2.02469">
        <ele>2.3</ele>
        <time>2020-06-04T13:07:16Z</time>
      </trkpt>
      <trkpt lat="46.88317" lon="-2.02466">
        <ele>2.4</ele>
        <time>2020-06-04T13:07:17Z</time>
      </trkpt>
      <trkpt lat="46.88322" lon="-2.02465">
        <ele>2.4</ele>
        <time>2020-06-04T13:07:18Z</time>
      </trkpt>
      <trkpt lat="46.88327" lon="-2.02462">
        <ele>2.4</ele>
        <time>2020-06-04T13:07:19Z</time>
      </trkpt>
      <trkpt lat="46.88332" lon="-2.0246">
        <ele>2.5</ele>
        <time>2020-06-04T13:07:20Z</time>
      </trkpt>
      <trkpt lat="46.88337" lon="-2.02458">
        <ele>2.5</ele>
        <time>2020-06-04T13:07:21Z</time>
      </trkpt>
      <trkpt lat="46.88342" lon="-2.02456">
        <ele>2.5</ele>
        <time>2020-06-04T13:07:22Z</time>
      </trkpt>
      <trkpt lat="46.88348" lon="-2.02454">
        <ele>2.6</ele>
        <time>2020-06-04T13:07:23Z</time>
      </trkpt>
      <trkpt lat="46.88353" lon="-2.02452">
        <ele>2.6</ele>
        <time>2020-06-04T13:07:24Z</time>
      </trkpt>
      <trkpt lat="46.88357" lon="-2.0245">
        <ele>2.7</ele>
        <time>2020-06-04T13:07:25Z</time>
      </trkpt>
      <trkpt lat="46.88362" lon="-2.02446">
        <ele>2.7</ele>
        <time>2020-06-04T13:07:26Z</time>
      </trkpt>
      <trkpt lat="46.88366" lon="-2.02444">
        <ele>2.7</ele>
        <time>2020-06-04T13:07:27Z</time>
      </trkpt>
      <trkpt lat="46.88371" lon="-2.02442">
        <ele>2.8</ele>
        <time>2020-06-04T13:07:28Z</time>
      </trkpt>
      <trkpt lat="46.88375" lon="-2.02439">
        <ele>2.8</ele>
        <time>2020-06-04T13:07:29Z</time>
      </trkpt>
      <trkpt lat="46.88379" lon="-2.02437">
        <ele>2.8</ele>
        <time>2020-06-04T13:07:30Z</time>
      </trkpt>
      <trkpt lat="46.88384" lon="-2.02434">
        <ele>2.9</ele>
        <time>2020-06-04T13:07:31Z</time>
      </trkpt>
      <trkpt lat="46.88388" lon="-2.02432">
        <ele>2.9</ele>
        <time>2020-06-04T13:07:32Z</time>
      </trkpt>
      <trkpt lat="46.88393" lon="-2.0243">
        <ele>2.9</ele>
        <time>2020-06-04T13:07:33Z</time>
      </trkpt>
      <trkpt lat="46.88397" lon="-2.02427">
        <ele>3</ele>
        <time>2020-06-04T13:07:34Z</time>
      </trkpt>
      <trkpt lat="46.88402" lon="-2.02424">
        <ele>3</ele>
        <time>2020-06-04T13:07:35Z</time>
      </trkpt>
      <trkpt lat="46.88407" lon="-2.02421">
        <ele>3.1</ele>
        <time>2020-06-04T13:07:36Z</time>
      </trkpt>
      <trkpt lat="46.88411" lon="-2.02419">
        <ele>3.2</ele>
        <time>2020-06-04T13:07:37Z</time>
      </trkpt>
      <trkpt lat="46.88415" lon="-2.02416">
        <ele>3.3</ele>
        <time>2020-06-04T13:07:38Z</time>
      </trkpt>
      <trkpt lat="46.8842" lon="-2.02414">
        <ele>3.4</ele>
        <time>2020-06-04T13:07:39Z</time>
      </trkpt>
      <trkpt lat="46.88425" lon="-2.02412">
        <ele>3.4</ele>
        <time>2020-06-04T13:07:40Z</time>
      </trkpt>
      <trkpt lat="46.8843" lon="-2.0241">
        <ele>3.5</ele>
        <time>2020-06-04T13:07:41Z</time>
      </trkpt>
      <trkpt lat="46.88435" lon="-2.02408">
        <ele>3.6</ele>
        <time>2020-06-04T13:07:42Z</time>
      </trkpt>
      <trkpt lat="46.8844" lon="-2.02406">
        <ele>3.7</ele>
        <time>2020-06-04T13:07:43Z</time>
      </trkpt>
      <trkpt lat="46.88445" lon="-2.02404">
        <ele>3.8</ele>
        <time>2020-06-04T13:07:44Z</time>
      </trkpt>
      <trkpt lat="46.8845" lon="-2.02403">
        <ele>3.8</ele>
        <time>2020-06-04T13:07:45Z</time>
      </trkpt>
      <trkpt lat="46.88455" lon="-2.02401">
        <ele>3.9</ele>
        <time>2020-06-04T13:07:46Z</time>
      </trkpt>
      <trkpt lat="46.8846" lon="-2.02399">
        <ele>3.9</ele>
        <time>2020-06-04T13:07:47Z</time>
      </trkpt>
      <trkpt lat="46.88464" lon="-2.02398">
        <ele>4</ele>
        <time>2020-06-04T13:07:48Z</time>
      </trkpt>
      <trkpt lat="46.88468" lon="-2.02396">
        <ele>4</ele>
        <time>2020-06-04T13:07:49Z</time>
      </trkpt>
      <trkpt lat="46.88473" lon="-2.02393">
        <ele>4.1</ele>
        <time>2020-06-04T13:07:50Z</time>
      </trkpt>
      <trkpt lat="46.88477" lon="-2.02391">
        <ele>4.1</ele>
        <time>2020-06-04T13:07:51Z</time>
      </trkpt>
      <trkpt lat="46.88481" lon="-2.02389">
        <ele>4.1</ele>
        <time>2020-06-04T13:07:52Z</time>
      </trkpt>
      <trkpt lat="46.88486" lon="-2.02386">
        <ele>4.1</ele>
        <time>2020-06-04T13:07:53Z</time>
      </trkpt>
      <trkpt lat="46.8849" lon="-2.02383">
        <ele>4.2</ele>
        <time>2020-06-04T13:07:54Z</time>
      </trkpt>
      <trkpt lat="46.88495" lon="-2.02381">
        <ele>4.2</ele>
        <time>2020-06-04T13:07:55Z</time>
      </trkpt>
      <trkpt lat="46.88499" lon="-2.02379">
        <ele>4.2</ele>
        <time>2020-06-04T13:07:56Z</time>
      </trkpt>
      <trkpt lat="46.88503" lon="-2.02377">
        <ele>4.3</ele>
        <time>2020-06-04T13:07:57Z</time>
      </trkpt>
      <trkpt lat="46.88509" lon="-2.02377">
        <ele>4.3</ele>
        <time>2020-06-04T13:07:58Z</time>
      </trkpt>
      <trkpt lat="46.88514" lon="-2.02375">
        <ele>4.3</ele>
        <time>2020-06-04T13:07:59Z</time>
      </trkpt>
      <trkpt lat="46.88518" lon="-2.02373">
        <ele>4.4</ele>
        <time>2020-06-04T13:08:00Z</time>
      </trkpt>
      <trkpt lat="46.88522" lon="-2.02371">
        <ele>4.4</ele>
        <time>2020-06-04T13:08:01Z</time>
      </trkpt>
      <trkpt lat="46.88526" lon="-2.0237">
        <ele>4.4</ele>
        <time>2020-06-04T13:08:02Z</time>
      </trkpt>
      <trkpt lat="46.8853" lon="-2.02368">
        <ele>4.4</ele>
        <time>2020-06-04T13:08:03Z</time>
      </trkpt>
      <trkpt lat="46.88534" lon="-2.02368">
        <ele>4.4</ele>
        <time>2020-06-04T13:08:04Z</time>
      </trkpt>
      <trkpt lat="46.88538" lon="-2.02369">
        <ele>4.4</ele>
        <time>2020-06-04T13:08:05Z</time>
      </trkpt>
      <trkpt lat="46.88543" lon="-2.02369">
        <ele>4.4</ele>
        <time>2020-06-04T13:08:06Z</time>
      </trkpt>
      <trkpt lat="46.88546" lon="-2.02369">
        <ele>4.4</ele>
        <time>2020-06-04T13:08:07Z</time>
      </trkpt>
      <trkpt lat="46.88549" lon="-2.02369">
        <ele>4.4</ele>
        <time>2020-06-04T13:08:08Z</time>
      </trkpt>
      <trkpt lat="46.88553" lon="-2.02369">
        <ele>4.3</ele>
        <time>2020-06-04T13:08:09Z</time>
      </trkpt>
      <trkpt lat="46.88557" lon="-2.02369">
        <ele>4.3</ele>
        <time>2020-06-04T13:08:10Z</time>
      </trkpt>
      <trkpt lat="46.88561" lon="-2.02368">
        <ele>4.3</ele>
        <time>2020-06-04T13:08:11Z</time>
      </trkpt>
      <trkpt lat="46.88565" lon="-2.02367">
        <ele>4.3</ele>
        <time>2020-06-04T13:08:12Z</time>
      </trkpt>
      <trkpt lat="46.8857" lon="-2.02367">
        <ele>4.3</ele>
        <time>2020-06-04T13:08:13Z</time>
      </trkpt>
      <trkpt lat="46.88574" lon="-2.02367">
        <ele>4.3</ele>
        <time>2020-06-04T13:08:14Z</time>
      </trkpt>
      <trkpt lat="46.88579" lon="-2.02365">
        <ele>4.3</ele>
        <time>2020-06-04T13:08:15Z</time>
      </trkpt>
      <trkpt lat="46.88583" lon="-2.02365">
        <ele>4.2</ele>
        <time>2020-06-04T13:08:16Z</time>
      </trkpt>
      <trkpt lat="46.88588" lon="-2.02367">
        <ele>4.2</ele>
        <time>2020-06-04T13:08:17Z</time>
      </trkpt>
      <trkpt lat="46.88592" lon="-2.02367">
        <ele>4.2</ele>
        <time>2020-06-04T13:08:18Z</time>
      </trkpt>
      <trkpt lat="46.88596" lon="-2.02369">
        <ele>4.2</ele>
        <time>2020-06-04T13:08:19Z</time>
      </trkpt>
      <trkpt lat="46.88601" lon="-2.0237">
        <ele>4.2</ele>
        <time>2020-06-04T13:08:20Z</time>
      </trkpt>
      <trkpt lat="46.88606" lon="-2.02372">
        <ele>4.2</ele>
        <time>2020-06-04T13:08:21Z</time>
      </trkpt>
      <trkpt lat="46.88612" lon="-2.02373">
        <ele>4.2</ele>
        <time>2020-06-04T13:08:22Z</time>
      </trkpt>
      <trkpt lat="46.88617" lon="-2.02373">
        <ele>4.2</ele>
        <time>2020-06-04T13:08:23Z</time>
      </trkpt>
      <trkpt lat="46.88622" lon="-2.02372">
        <ele>4.3</ele>
        <time>2020-06-04T13:08:24Z</time>
      </trkpt>
      <trkpt lat="46.88626" lon="-2.02372">
        <ele>4.3</ele>
        <time>2020-06-04T13:08:25Z</time>
      </trkpt>
      <trkpt lat="46.88631" lon="-2.02372">
        <ele>4.3</ele>
        <time>2020-06-04T13:08:26Z</time>
      </trkpt>
      <trkpt lat="46.88634" lon="-2.02374">
        <ele>4.3</ele>
        <time>2020-06-04T13:08:27Z</time>
      </trkpt>
      <trkpt lat="46.88638" lon="-2.02374">
        <ele>4.3</ele>
        <time>2020-06-04T13:08:28Z</time>
      </trkpt>
      <trkpt lat="46.88642" lon="-2.02373">
        <ele>4.3</ele>
        <time>2020-06-04T13:08:29Z</time>
      </trkpt>
      <trkpt lat="46.88645" lon="-2.02371">
        <ele>4.3</ele>
        <time>2020-06-04T13:08:30Z</time>
      </trkpt>
      <trkpt lat="46.88648" lon="-2.0237">
        <ele>4.3</ele>
        <time>2020-06-04T13:08:31Z</time>
      </trkpt>
      <trkpt lat="46.88651" lon="-2.02371">
        <ele>4.3</ele>
        <time>2020-06-04T13:08:32Z</time>
      </trkpt>
      <trkpt lat="46.88655" lon="-2.02371">
        <ele>4.3</ele>
        <time>2020-06-04T13:08:33Z</time>
      </trkpt>
      <trkpt lat="46.88659" lon="-2.02371">
        <ele>4.3</ele>
        <time>2020-06-04T13:08:34Z</time>
      </trkpt>
      <trkpt lat="46.88663" lon="-2.02371">
        <ele>4.3</ele>
        <time>2020-06-04T13:08:35Z</time>
      </trkpt>
      <trkpt lat="46.88666" lon="-2.02372">
        <ele>4.3</ele>
        <time>2020-06-04T13:08:36Z</time>
      </trkpt>
      <trkpt lat="46.8867" lon="-2.02371">
        <ele>4.2</ele>
        <time>2020-06-04T13:08:37Z</time>
      </trkpt>
      <trkpt lat="46.88673" lon="-2.02369">
        <ele>4.2</ele>
        <time>2020-06-04T13:08:38Z</time>
      </trkpt>
      <trkpt lat="46.88675" lon="-2.0237">
        <ele>4.2</ele>
        <time>2020-06-04T13:08:39Z</time>
      </trkpt>
      <trkpt lat="46.88679" lon="-2.02369">
        <ele>4.2</ele>
        <time>2020-06-04T13:08:40Z</time>
      </trkpt>
      <trkpt lat="46.88682" lon="-2.02368">
        <ele>4.2</ele>
        <time>2020-06-04T13:08:41Z</time>
      </trkpt>
      <trkpt lat="46.88683" lon="-2.02369">
        <ele>4.2</ele>
        <time>2020-06-04T13:08:42Z</time>
      </trkpt>
      <trkpt lat="46.88686" lon="-2.02369">
        <ele>4.2</ele>
        <time>2020-06-04T13:08:43Z</time>
      </trkpt>
      <trkpt lat="46.88687" lon="-2.02369">
        <ele>4.2</ele>
        <time>2020-06-04T13:08:44Z</time>
      </trkpt>
      <trkpt lat="46.88687" lon="-2.0237">
        <ele>4.2</ele>
        <time>2020-06-04T13:08:45Z</time>
      </trkpt>
      <trkpt lat="46.88686" lon="-2.02368">
        <ele>4.2</ele>
        <time>2020-06-04T13:08:46Z</time>
      </trkpt>
      <trkpt lat="46.88685" lon="-2.02367">
        <ele>4.2</ele>
        <time>2020-06-04T13:08:47Z</time>
      </trkpt>
      <trkpt lat="46.88685" lon="-2.02367">
        <ele>4.2</ele>
        <time>2020-06-04T13:08:48Z</time>
      </trkpt>
      <trkpt lat="46.88684" lon="-2.02366">
        <ele>4.2</ele>
        <time>2020-06-04T13:08:49Z</time>
      </trkpt>
      <trkpt lat="46.88685" lon="-2.02366">
        <ele>4.2</ele>
        <time>2020-06-04T13:08:50Z</time>
      </trkpt>
      <trkpt lat="46.88685" lon="-2.02366">
        <ele>4.2</ele>
        <time>2020-06-04T13:08:51Z</time>
      </trkpt>
      <trkpt lat="46.88686" lon="-2.02366">
        <ele>4.2</ele>
        <time>2020-06-04T13:08:52Z</time>
      </trkpt>
      <trkpt lat="46.88687" lon="-2.02366">
        <ele>4.2</ele>
        <time>2020-06-04T13:08:53Z</time>
      </trkpt>
      <trkpt lat="46.88687" lon="-2.02366">
        <ele>4.2</ele>
        <time>2020-06-04T13:08:54Z</time>
      </trkpt>
      <trkpt lat="46.88688" lon="-2.02366">
        <ele>4.2</ele>
        <time>2020-06-04T13:08:55Z</time>
      </trkpt>
      <trkpt lat="46.88689" lon="-2.02366">
        <ele>4.2</ele>
        <time>2020-06-04T13:11:31Z</time>
      </trkpt>
      <trkpt lat="46.88689" lon="-2.02366">
        <ele>4.1</ele>
        <time>2020-06-04T13:11:32Z</time>
      </trkpt>
      <trkpt lat="46.88694" lon="-2.02366">
        <ele>4.1</ele>
        <time>2020-06-04T13:11:33Z</time>
      </trkpt>
      <trkpt lat="46.88698" lon="-2.02366">
        <ele>4.1</ele>
        <time>2020-06-04T13:11:34Z</time>
      </trkpt>
      <trkpt lat="46.88702" lon="-2.02366">
        <ele>4.1</ele>
        <time>2020-06-04T13:11:35Z</time>
      </trkpt>
      <trkpt lat="46.88707" lon="-2.02365">
        <ele>4.1</ele>
        <time>2020-06-04T13:11:36Z</time>
      </trkpt>
      <trkpt lat="46.88711" lon="-2.02365">
        <ele>4.1</ele>
        <time>2020-06-04T13:11:37Z</time>
      </trkpt>
      <trkpt lat="46.88715" lon="-2.02366">
        <ele>4.1</ele>
        <time>2020-06-04T13:11:38Z</time>
      </trkpt>
      <trkpt lat="46.88719" lon="-2.02367">
        <ele>4.1</ele>
        <time>2020-06-04T13:11:39Z</time>
      </trkpt>
      <trkpt lat="46.88724" lon="-2.02368">
        <ele>4</ele>
        <time>2020-06-04T13:11:40Z</time>
      </trkpt>
      <trkpt lat="46.88729" lon="-2.02368">
        <ele>4</ele>
        <time>2020-06-04T13:11:41Z</time>
      </trkpt>
      <trkpt lat="46.88734" lon="-2.02368">
        <ele>4</ele>
        <time>2020-06-04T13:11:42Z</time>
      </trkpt>
      <trkpt lat="46.88738" lon="-2.02368">
        <ele>3.9</ele>
        <time>2020-06-04T13:11:43Z</time>
      </trkpt>
      <trkpt lat="46.88743" lon="-2.02369">
        <ele>3.9</ele>
        <time>2020-06-04T13:11:44Z</time>
      </trkpt>
      <trkpt lat="46.88748" lon="-2.0237">
        <ele>3.8</ele>
        <time>2020-06-04T13:11:45Z</time>
      </trkpt>
      <trkpt lat="46.88754" lon="-2.02369">
        <ele>3.8</ele>
        <time>2020-06-04T13:11:46Z</time>
      </trkpt>
      <trkpt lat="46.88758" lon="-2.02371">
        <ele>3.7</ele>
        <time>2020-06-04T13:11:47Z</time>
      </trkpt>
      <trkpt lat="46.88763" lon="-2.02372">
        <ele>3.7</ele>
        <time>2020-06-04T13:11:48Z</time>
      </trkpt>
      <trkpt lat="46.88769" lon="-2.02372">
        <ele>3.7</ele>
        <time>2020-06-04T13:11:49Z</time>
      </trkpt>
      <trkpt lat="46.88775" lon="-2.02372">
        <ele>3.6</ele>
        <time>2020-06-04T13:11:50Z</time>
      </trkpt>
      <trkpt lat="46.88781" lon="-2.02373">
        <ele>3.6</ele>
        <time>2020-06-04T13:11:51Z</time>
      </trkpt>
      <trkpt lat="46.88788" lon="-2.02373">
        <ele>3.6</ele>
        <time>2020-06-04T13:11:52Z</time>
      </trkpt>
      <trkpt lat="46.88794" lon="-2.02373">
        <ele>3.6</ele>
        <time>2020-06-04T13:11:53Z</time>
      </trkpt>
      <trkpt lat="46.888" lon="-2.02373">
        <ele>3.5</ele>
        <time>2020-06-04T13:11:54Z</time>
      </trkpt>
      <trkpt lat="46.88806" lon="-2.02373">
        <ele>3.5</ele>
        <time>2020-06-04T13:11:55Z</time>
      </trkpt>
      <trkpt lat="46.88813" lon="-2.02373">
        <ele>3.5</ele>
        <time>2020-06-04T13:11:56Z</time>
      </trkpt>
      <trkpt lat="46.88819" lon="-2.02374">
        <ele>3.5</ele>
        <time>2020-06-04T13:11:57Z</time>
      </trkpt>
      <trkpt lat="46.88825" lon="-2.02374">
        <ele>3.4</ele>
        <time>2020-06-04T13:11:58Z</time>
      </trkpt>
      <trkpt lat="46.88832" lon="-2.02374">
        <ele>3.4</ele>
        <time>2020-06-04T13:11:59Z</time>
      </trkpt>
      <trkpt lat="46.88838" lon="-2.02375">
        <ele>3.3</ele>
        <time>2020-06-04T13:12:00Z</time>
      </trkpt>
      <trkpt lat="46.88844" lon="-2.02376">
        <ele>3.2</ele>
        <time>2020-06-04T13:12:01Z</time>
      </trkpt>
      <trkpt lat="46.88851" lon="-2.02378">
        <ele>3.1</ele>
        <time>2020-06-04T13:12:02Z</time>
      </trkpt>
      <trkpt lat="46.88858" lon="-2.0238">
        <ele>3</ele>
        <time>2020-06-04T13:12:03Z</time>
      </trkpt>
      <trkpt lat="46.88864" lon="-2.02382">
        <ele>2.8</ele>
        <time>2020-06-04T13:12:04Z</time>
      </trkpt>
      <trkpt lat="46.8887" lon="-2.02384">
        <ele>2.7</ele>
        <time>2020-06-04T13:12:05Z</time>
      </trkpt>
      <trkpt lat="46.88877" lon="-2.02386">
        <ele>2.6</ele>
        <time>2020-06-04T13:12:06Z</time>
      </trkpt>
      <trkpt lat="46.88884" lon="-2.02387">
        <ele>2.6</ele>
        <time>2020-06-04T13:12:07Z</time>
      </trkpt>
      <trkpt lat="46.8889" lon="-2.02388">
        <ele>2.6</ele>
        <time>2020-06-04T13:12:08Z</time>
      </trkpt>
      <trkpt lat="46.88896" lon="-2.02389">
        <ele>2.6</ele>
        <time>2020-06-04T13:12:09Z</time>
      </trkpt>
      <trkpt lat="46.88902" lon="-2.0239">
        <ele>2.6</ele>
        <time>2020-06-04T13:12:10Z</time>
      </trkpt>
      <trkpt lat="46.88908" lon="-2.02391">
        <ele>2.6</ele>
        <time>2020-06-04T13:12:11Z</time>
      </trkpt>
      <trkpt lat="46.88915" lon="-2.02393">
        <ele>2.6</ele>
        <time>2020-06-04T13:12:12Z</time>
      </trkpt>
      <trkpt lat="46.88922" lon="-2.02395">
        <ele>2.6</ele>
        <time>2020-06-04T13:12:13Z</time>
      </trkpt>
      <trkpt lat="46.88928" lon="-2.02395">
        <ele>2.6</ele>
        <time>2020-06-04T13:12:14Z</time>
      </trkpt>
      <trkpt lat="46.88935" lon="-2.02396">
        <ele>2.6</ele>
        <time>2020-06-04T13:12:15Z</time>
      </trkpt>
      <trkpt lat="46.88942" lon="-2.02396">
        <ele>2.6</ele>
        <time>2020-06-04T13:12:16Z</time>
      </trkpt>
      <trkpt lat="46.88948" lon="-2.02398">
        <ele>2.6</ele>
        <time>2020-06-04T13:12:17Z</time>
      </trkpt>
      <trkpt lat="46.88955" lon="-2.02399">
        <ele>2.6</ele>
        <time>2020-06-04T13:12:18Z</time>
      </trkpt>
      <trkpt lat="46.88961" lon="-2.024">
        <ele>2.6</ele>
        <time>2020-06-04T13:12:19Z</time>
      </trkpt>
      <trkpt lat="46.88967" lon="-2.02401">
        <ele>2.6</ele>
        <time>2020-06-04T13:12:20Z</time>
      </trkpt>
      <trkpt lat="46.88974" lon="-2.02402">
        <ele>2.6</ele>
        <time>2020-06-04T13:12:21Z</time>
      </trkpt>
      <trkpt lat="46.88979" lon="-2.02403">
        <ele>2.6</ele>
        <time>2020-06-04T13:12:22Z</time>
      </trkpt>
      <trkpt lat="46.88984" lon="-2.02405">
        <ele>2.6</ele>
        <time>2020-06-04T13:12:23Z</time>
      </trkpt>
      <trkpt lat="46.8899" lon="-2.02406">
        <ele>2.6</ele>
        <time>2020-06-04T13:12:24Z</time>
      </trkpt>
      <trkpt lat="46.88996" lon="-2.02411">
        <ele>2.6</ele>
        <time>2020-06-04T13:12:25Z</time>
      </trkpt>
      <trkpt lat="46.89002" lon="-2.02417">
        <ele>2.6</ele>
        <time>2020-06-04T13:12:26Z</time>
      </trkpt>
      <trkpt lat="46.89008" lon="-2.02424">
        <ele>2.5</ele>
        <time>2020-06-04T13:12:27Z</time>
      </trkpt>
      <trkpt lat="46.8901" lon="-2.02432">
        <ele>2.5</ele>
        <time>2020-06-04T13:12:28Z</time>
      </trkpt>
      <trkpt lat="46.89013" lon="-2.02439">
        <ele>2.5</ele>
        <time>2020-06-04T13:12:29Z</time>
      </trkpt>
      <trkpt lat="46.89014" lon="-2.02445">
        <ele>2.5</ele>
        <time>2020-06-04T13:12:30Z</time>
      </trkpt>
      <trkpt lat="46.89014" lon="-2.02451">
        <ele>2.5</ele>
        <time>2020-06-04T13:12:31Z</time>
      </trkpt>
      <trkpt lat="46.89013" lon="-2.02458">
        <ele>2.5</ele>
        <time>2020-06-04T13:12:32Z</time>
      </trkpt>
      <trkpt lat="46.89012" lon="-2.02466">
        <ele>2.5</ele>
        <time>2020-06-04T13:12:33Z</time>
      </trkpt>
      <trkpt lat="46.8901" lon="-2.0247">
        <ele>2.5</ele>
        <time>2020-06-04T13:12:34Z</time>
      </trkpt>
      <trkpt lat="46.89009" lon="-2.02477">
        <ele>2.5</ele>
        <time>2020-06-04T13:12:35Z</time>
      </trkpt>
      <trkpt lat="46.89008" lon="-2.02483">
        <ele>2.5</ele>
        <time>2020-06-04T13:12:36Z</time>
      </trkpt>
      <trkpt lat="46.89007" lon="-2.0249">
        <ele>2.5</ele>
        <time>2020-06-04T13:12:37Z</time>
      </trkpt>
      <trkpt lat="46.89006" lon="-2.02496">
        <ele>2.5</ele>
        <time>2020-06-04T13:12:38Z</time>
      </trkpt>
      <trkpt lat="46.89006" lon="-2.02503">
        <ele>2.5</ele>
        <time>2020-06-04T13:12:39Z</time>
      </trkpt>
      <trkpt lat="46.89005" lon="-2.02508">
        <ele>2.5</ele>
        <time>2020-06-04T13:12:40Z</time>
      </trkpt>
      <trkpt lat="46.89004" lon="-2.02515">
        <ele>2.5</ele>
        <time>2020-06-04T13:12:41Z</time>
      </trkpt>
      <trkpt lat="46.89004" lon="-2.02521">
        <ele>2.5</ele>
        <time>2020-06-04T13:12:42Z</time>
      </trkpt>
      <trkpt lat="46.89003" lon="-2.02528">
        <ele>2.5</ele>
        <time>2020-06-04T13:12:43Z</time>
      </trkpt>
      <trkpt lat="46.89002" lon="-2.02534">
        <ele>2.5</ele>
        <time>2020-06-04T13:12:44Z</time>
      </trkpt>
      <trkpt lat="46.89001" lon="-2.02539">
        <ele>2.5</ele>
        <time>2020-06-04T13:12:45Z</time>
      </trkpt>
      <trkpt lat="46.89" lon="-2.02546">
        <ele>2.5</ele>
        <time>2020-06-04T13:12:46Z</time>
      </trkpt>
      <trkpt lat="46.88999" lon="-2.02552">
        <ele>2.5</ele>
        <time>2020-06-04T13:12:47Z</time>
      </trkpt>
      <trkpt lat="46.88998" lon="-2.02559">
        <ele>2.5</ele>
        <time>2020-06-04T13:12:48Z</time>
      </trkpt>
      <trkpt lat="46.88997" lon="-2.02565">
        <ele>2.5</ele>
        <time>2020-06-04T13:12:49Z</time>
      </trkpt>
      <trkpt lat="46.88996" lon="-2.0257">
        <ele>2.5</ele>
        <time>2020-06-04T13:12:50Z</time>
      </trkpt>
      <trkpt lat="46.88995" lon="-2.02577">
        <ele>2.5</ele>
        <time>2020-06-04T13:12:51Z</time>
      </trkpt>
      <trkpt lat="46.88994" lon="-2.02585">
        <ele>2.5</ele>
        <time>2020-06-04T13:12:52Z</time>
      </trkpt>
      <trkpt lat="46.88994" lon="-2.02592">
        <ele>2.5</ele>
        <time>2020-06-04T13:12:53Z</time>
      </trkpt>
      <trkpt lat="46.88994" lon="-2.02601">
        <ele>2.5</ele>
        <time>2020-06-04T13:12:54Z</time>
      </trkpt>
      <trkpt lat="46.88993" lon="-2.02609">
        <ele>2.5</ele>
        <time>2020-06-04T13:12:55Z</time>
      </trkpt>
      <trkpt lat="46.88992" lon="-2.02616">
        <ele>2.5</ele>
        <time>2020-06-04T13:12:56Z</time>
      </trkpt>
      <trkpt lat="46.88991" lon="-2.02622">
        <ele>2.5</ele>
        <time>2020-06-04T13:12:57Z</time>
      </trkpt>
      <trkpt lat="46.88991" lon="-2.02629">
        <ele>2.5</ele>
        <time>2020-06-04T13:12:58Z</time>
      </trkpt>
      <trkpt lat="46.88989" lon="-2.02639">
        <ele>2.5</ele>
        <time>2020-06-04T13:12:59Z</time>
      </trkpt>
      <trkpt lat="46.88988" lon="-2.02647">
        <ele>2.5</ele>
        <time>2020-06-04T13:13:00Z</time>
      </trkpt>
      <trkpt lat="46.88986" lon="-2.02655">
        <ele>2.5</ele>
        <time>2020-06-04T13:13:01Z</time>
      </trkpt>
      <trkpt lat="46.88984" lon="-2.02666">
        <ele>2.5</ele>
        <time>2020-06-04T13:13:02Z</time>
      </trkpt>
      <trkpt lat="46.88983" lon="-2.02674">
        <ele>2.5</ele>
        <time>2020-06-04T13:13:03Z</time>
      </trkpt>
      <trkpt lat="46.88981" lon="-2.02683">
        <ele>2.5</ele>
        <time>2020-06-04T13:13:04Z</time>
      </trkpt>
      <trkpt lat="46.88981" lon="-2.02691">
        <ele>2.5</ele>
        <time>2020-06-04T13:13:05Z</time>
      </trkpt>
      <trkpt lat="46.88981" lon="-2.02698">
        <ele>2.5</ele>
        <time>2020-06-04T13:13:06Z</time>
      </trkpt>
      <trkpt lat="46.88982" lon="-2.02705">
        <ele>2.5</ele>
        <time>2020-06-04T13:13:07Z</time>
      </trkpt>
      <trkpt lat="46.88982" lon="-2.02714">
        <ele>2.5</ele>
        <time>2020-06-04T13:13:08Z</time>
      </trkpt>
      <trkpt lat="46.88982" lon="-2.02724">
        <ele>2.5</ele>
        <time>2020-06-04T13:13:09Z</time>
      </trkpt>
      <trkpt lat="46.88982" lon="-2.02732">
        <ele>2.5</ele>
        <time>2020-06-04T13:13:10Z</time>
      </trkpt>
      <trkpt lat="46.88982" lon="-2.02742">
        <ele>2.5</ele>
        <time>2020-06-04T13:13:11Z</time>
      </trkpt>
      <trkpt lat="46.88982" lon="-2.02749">
        <ele>2.5</ele>
        <time>2020-06-04T13:13:12Z</time>
      </trkpt>
      <trkpt lat="46.88982" lon="-2.02755">
        <ele>2.5</ele>
        <time>2020-06-04T13:13:13Z</time>
      </trkpt>
      <trkpt lat="46.88982" lon="-2.02762">
        <ele>2.5</ele>
        <time>2020-06-04T13:13:14Z</time>
      </trkpt>
      <trkpt lat="46.88983" lon="-2.02768">
        <ele>2.5</ele>
        <time>2020-06-04T13:13:15Z</time>
      </trkpt>
      <trkpt lat="46.88983" lon="-2.02776">
        <ele>2.5</ele>
        <time>2020-06-04T13:13:16Z</time>
      </trkpt>
      <trkpt lat="46.88984" lon="-2.02784">
        <ele>2.5</ele>
        <time>2020-06-04T13:13:17Z</time>
      </trkpt>
      <trkpt lat="46.88984" lon="-2.02792">
        <ele>2.6</ele>
        <time>2020-06-04T13:13:18Z</time>
      </trkpt>
      <trkpt lat="46.88984" lon="-2.02801">
        <ele>2.6</ele>
        <time>2020-06-04T13:13:19Z</time>
      </trkpt>
      <trkpt lat="46.88985" lon="-2.0281">
        <ele>2.6</ele>
        <time>2020-06-04T13:13:20Z</time>
      </trkpt>
      <trkpt lat="46.88986" lon="-2.02818">
        <ele>2.6</ele>
        <time>2020-06-04T13:13:21Z</time>
      </trkpt>
      <trkpt lat="46.88986" lon="-2.02825">
        <ele>2.6</ele>
        <time>2020-06-04T13:13:22Z</time>
      </trkpt>
      <trkpt lat="46.88986" lon="-2.02833">
        <ele>2.6</ele>
        <time>2020-06-04T13:13:23Z</time>
      </trkpt>
      <trkpt lat="46.88987" lon="-2.02843">
        <ele>2.6</ele>
        <time>2020-06-04T13:13:24Z</time>
      </trkpt>
      <trkpt lat="46.88987" lon="-2.02851">
        <ele>2.6</ele>
        <time>2020-06-04T13:13:25Z</time>
      </trkpt>
      <trkpt lat="46.88987" lon="-2.0286">
        <ele>2.6</ele>
        <time>2020-06-04T13:13:26Z</time>
      </trkpt>
      <trkpt lat="46.88987" lon="-2.02868">
        <ele>2.6</ele>
        <time>2020-06-04T13:13:27Z</time>
      </trkpt>
      <trkpt lat="46.88987" lon="-2.02876">
        <ele>2.6</ele>
        <time>2020-06-04T13:13:28Z</time>
      </trkpt>
      <trkpt lat="46.88987" lon="-2.02884">
        <ele>2.6</ele>
        <time>2020-06-04T13:13:29Z</time>
      </trkpt>
      <trkpt lat="46.88988" lon="-2.02892">
        <ele>2.6</ele>
        <time>2020-06-04T13:13:30Z</time>
      </trkpt>
      <trkpt lat="46.88988" lon="-2.029">
        <ele>2.6</ele>
        <time>2020-06-04T13:13:31Z</time>
      </trkpt>
      <trkpt lat="46.88989" lon="-2.02909">
        <ele>2.6</ele>
        <time>2020-06-04T13:13:32Z</time>
      </trkpt>
      <trkpt lat="46.88988" lon="-2.02917">
        <ele>2.6</ele>
        <time>2020-06-04T13:13:33Z</time>
      </trkpt>
      <trkpt lat="46.88989" lon="-2.02924">
        <ele>2.6</ele>
        <time>2020-06-04T13:13:34Z</time>
      </trkpt>
      <trkpt lat="46.88988" lon="-2.02932">
        <ele>2.6</ele>
        <time>2020-06-04T13:13:35Z</time>
      </trkpt>
      <trkpt lat="46.88987" lon="-2.02939">
        <ele>2.6</ele>
        <time>2020-06-04T13:13:36Z</time>
      </trkpt>
      <trkpt lat="46.88984" lon="-2.02946">
        <ele>2.6</ele>
        <time>2020-06-04T13:13:37Z</time>
      </trkpt>
      <trkpt lat="46.88982" lon="-2.02955">
        <ele>2.6</ele>
        <time>2020-06-04T13:13:38Z</time>
      </trkpt>
      <trkpt lat="46.88979" lon="-2.02962">
        <ele>2.6</ele>
        <time>2020-06-04T13:13:39Z</time>
      </trkpt>
      <trkpt lat="46.88976" lon="-2.0297">
        <ele>2.6</ele>
        <time>2020-06-04T13:13:40Z</time>
      </trkpt>
      <trkpt lat="46.88974" lon="-2.02977">
        <ele>2.6</ele>
        <time>2020-06-04T13:13:41Z</time>
      </trkpt>
      <trkpt lat="46.88972" lon="-2.02984">
        <ele>2.6</ele>
        <time>2020-06-04T13:13:42Z</time>
      </trkpt>
      <trkpt lat="46.8897" lon="-2.02991">
        <ele>2.6</ele>
        <time>2020-06-04T13:13:43Z</time>
      </trkpt>
      <trkpt lat="46.88969" lon="-2.02998">
        <ele>2.6</ele>
        <time>2020-06-04T13:13:44Z</time>
      </trkpt>
      <trkpt lat="46.88967" lon="-2.03005">
        <ele>2.6</ele>
        <time>2020-06-04T13:13:45Z</time>
      </trkpt>
      <trkpt lat="46.88966" lon="-2.03014">
        <ele>2.6</ele>
        <time>2020-06-04T13:13:46Z</time>
      </trkpt>
      <trkpt lat="46.88964" lon="-2.03023">
        <ele>2.6</ele>
        <time>2020-06-04T13:13:47Z</time>
      </trkpt>
      <trkpt lat="46.88963" lon="-2.03032">
        <ele>2.6</ele>
        <time>2020-06-04T13:13:48Z</time>
      </trkpt>
      <trkpt lat="46.88963" lon="-2.03042">
        <ele>2.6</ele>
        <time>2020-06-04T13:13:49Z</time>
      </trkpt>
      <trkpt lat="46.88964" lon="-2.03051">
        <ele>2.6</ele>
        <time>2020-06-04T13:13:50Z</time>
      </trkpt>
      <trkpt lat="46.88965" lon="-2.03058">
        <ele>2.7</ele>
        <time>2020-06-04T13:13:51Z</time>
      </trkpt>
      <trkpt lat="46.88967" lon="-2.03067">
        <ele>2.7</ele>
        <time>2020-06-04T13:13:52Z</time>
      </trkpt>
      <trkpt lat="46.8897" lon="-2.03075">
        <ele>2.7</ele>
        <time>2020-06-04T13:13:53Z</time>
      </trkpt>
      <trkpt lat="46.88972" lon="-2.03083">
        <ele>2.7</ele>
        <time>2020-06-04T13:13:54Z</time>
      </trkpt>
      <trkpt lat="46.88974" lon="-2.03091">
        <ele>2.7</ele>
        <time>2020-06-04T13:13:55Z</time>
      </trkpt>
      <trkpt lat="46.88976" lon="-2.03099">
        <ele>2.7</ele>
        <time>2020-06-04T13:13:56Z</time>
      </trkpt>
      <trkpt lat="46.88979" lon="-2.03107">
        <ele>2.7</ele>
        <time>2020-06-04T13:13:57Z</time>
      </trkpt>
      <trkpt lat="46.88981" lon="-2.03115">
        <ele>2.7</ele>
        <time>2020-06-04T13:13:58Z</time>
      </trkpt>
      <trkpt lat="46.88984" lon="-2.03122">
        <ele>2.7</ele>
        <time>2020-06-04T13:13:59Z</time>
      </trkpt>
      <trkpt lat="46.88986" lon="-2.0313">
        <ele>2.7</ele>
        <time>2020-06-04T13:14:00Z</time>
      </trkpt>
      <trkpt lat="46.88988" lon="-2.03138">
        <ele>2.7</ele>
        <time>2020-06-04T13:14:01Z</time>
      </trkpt>
      <trkpt lat="46.88991" lon="-2.03146">
        <ele>2.7</ele>
        <time>2020-06-04T13:14:02Z</time>
      </trkpt>
      <trkpt lat="46.88994" lon="-2.03153">
        <ele>2.6</ele>
        <time>2020-06-04T13:14:03Z</time>
      </trkpt>
      <trkpt lat="46.88996" lon="-2.03161">
        <ele>2.6</ele>
        <time>2020-06-04T13:14:04Z</time>
      </trkpt>
      <trkpt lat="46.88999" lon="-2.03169">
        <ele>2.6</ele>
        <time>2020-06-04T13:14:05Z</time>
      </trkpt>
      <trkpt lat="46.89002" lon="-2.03176">
        <ele>2.6</ele>
        <time>2020-06-04T13:14:06Z</time>
      </trkpt>
      <trkpt lat="46.89005" lon="-2.03184">
        <ele>2.6</ele>
        <time>2020-06-04T13:14:07Z</time>
      </trkpt>
      <trkpt lat="46.89009" lon="-2.03191">
        <ele>2.6</ele>
        <time>2020-06-04T13:14:08Z</time>
      </trkpt>
      <trkpt lat="46.89012" lon="-2.03198">
        <ele>2.6</ele>
        <time>2020-06-04T13:14:09Z</time>
      </trkpt>
      <trkpt lat="46.89016" lon="-2.03206">
        <ele>2.6</ele>
        <time>2020-06-04T13:14:10Z</time>
      </trkpt>
      <trkpt lat="46.8902" lon="-2.03214">
        <ele>2.6</ele>
        <time>2020-06-04T13:14:11Z</time>
      </trkpt>
      <trkpt lat="46.89023" lon="-2.03221">
        <ele>2.6</ele>
        <time>2020-06-04T13:14:12Z</time>
      </trkpt>
      <trkpt lat="46.89027" lon="-2.03229">
        <ele>2.6</ele>
        <time>2020-06-04T13:14:13Z</time>
      </trkpt>
      <trkpt lat="46.89031" lon="-2.03236">
        <ele>2.5</ele>
        <time>2020-06-04T13:14:14Z</time>
      </trkpt>
      <trkpt lat="46.89034" lon="-2.03244">
        <ele>2.5</ele>
        <time>2020-06-04T13:14:15Z</time>
      </trkpt>
      <trkpt lat="46.89038" lon="-2.03251">
        <ele>2.5</ele>
        <time>2020-06-04T13:14:16Z</time>
      </trkpt>
      <trkpt lat="46.89042" lon="-2.03258">
        <ele>2.5</ele>
        <time>2020-06-04T13:14:17Z</time>
      </trkpt>
      <trkpt lat="46.89046" lon="-2.03265">
        <ele>2.5</ele>
        <time>2020-06-04T13:14:18Z</time>
      </trkpt>
      <trkpt lat="46.8905" lon="-2.03272">
        <ele>2.5</ele>
        <time>2020-06-04T13:14:19Z</time>
      </trkpt>
      <trkpt lat="46.89054" lon="-2.0328">
        <ele>2.5</ele>
        <time>2020-06-04T13:14:20Z</time>
      </trkpt>
      <trkpt lat="46.89058" lon="-2.03288">
        <ele>2.5</ele>
        <time>2020-06-04T13:14:21Z</time>
      </trkpt>
      <trkpt lat="46.89062" lon="-2.03295">
        <ele>2.6</ele>
        <time>2020-06-04T13:14:22Z</time>
      </trkpt>
      <trkpt lat="46.89066" lon="-2.03302">
        <ele>2.6</ele>
        <time>2020-06-04T13:14:23Z</time>
      </trkpt>
      <trkpt lat="46.8907" lon="-2.0331">
        <ele>2.6</ele>
        <time>2020-06-04T13:14:24Z</time>
      </trkpt>
      <trkpt lat="46.89074" lon="-2.03318">
        <ele>2.6</ele>
        <time>2020-06-04T13:14:25Z</time>
      </trkpt>
      <trkpt lat="46.89078" lon="-2.03325">
        <ele>2.6</ele>
        <time>2020-06-04T13:14:26Z</time>
      </trkpt>
      <trkpt lat="46.89081" lon="-2.03333">
        <ele>2.6</ele>
        <time>2020-06-04T13:14:27Z</time>
      </trkpt>
      <trkpt lat="46.89085" lon="-2.03342">
        <ele>2.6</ele>
        <time>2020-06-04T13:14:28Z</time>
      </trkpt>
      <trkpt lat="46.89089" lon="-2.0335">
        <ele>2.6</ele>
        <time>2020-06-04T13:14:29Z</time>
      </trkpt>
      <trkpt lat="46.89093" lon="-2.03359">
        <ele>2.6</ele>
        <time>2020-06-04T13:14:30Z</time>
      </trkpt>
      <trkpt lat="46.89096" lon="-2.03367">
        <ele>2.6</ele>
        <time>2020-06-04T13:14:31Z</time>
      </trkpt>
      <trkpt lat="46.891" lon="-2.03373">
        <ele>2.6</ele>
        <time>2020-06-04T13:14:32Z</time>
      </trkpt>
      <trkpt lat="46.89103" lon="-2.03381">
        <ele>2.5</ele>
        <time>2020-06-04T13:14:33Z</time>
      </trkpt>
      <trkpt lat="46.89107" lon="-2.03388">
        <ele>2.5</ele>
        <time>2020-06-04T13:14:34Z</time>
      </trkpt>
      <trkpt lat="46.89111" lon="-2.03395">
        <ele>2.5</ele>
        <time>2020-06-04T13:14:35Z</time>
      </trkpt>
      <trkpt lat="46.89114" lon="-2.03403">
        <ele>2.5</ele>
        <time>2020-06-04T13:14:36Z</time>
      </trkpt>
      <trkpt lat="46.89118" lon="-2.0341">
        <ele>2.5</ele>
        <time>2020-06-04T13:14:37Z</time>
      </trkpt>
      <trkpt lat="46.89121" lon="-2.03417">
        <ele>2.5</ele>
        <time>2020-06-04T13:14:38Z</time>
      </trkpt>
      <trkpt lat="46.89125" lon="-2.03425">
        <ele>2.5</ele>
        <time>2020-06-04T13:14:39Z</time>
      </trkpt>
      <trkpt lat="46.89129" lon="-2.03432">
        <ele>2.5</ele>
        <time>2020-06-04T13:14:40Z</time>
      </trkpt>
      <trkpt lat="46.89133" lon="-2.03439">
        <ele>2.5</ele>
        <time>2020-06-04T13:14:41Z</time>
      </trkpt>
      <trkpt lat="46.89136" lon="-2.03446">
        <ele>2.5</ele>
        <time>2020-06-04T13:14:42Z</time>
      </trkpt>
      <trkpt lat="46.89139" lon="-2.03453">
        <ele>2.5</ele>
        <time>2020-06-04T13:14:43Z</time>
      </trkpt>
      <trkpt lat="46.89141" lon="-2.03461">
        <ele>2.5</ele>
        <time>2020-06-04T13:14:44Z</time>
      </trkpt>
      <trkpt lat="46.89145" lon="-2.03469">
        <ele>2.5</ele>
        <time>2020-06-04T13:14:45Z</time>
      </trkpt>
      <trkpt lat="46.89149" lon="-2.03476">
        <ele>2.5</ele>
        <time>2020-06-04T13:14:46Z</time>
      </trkpt>
      <trkpt lat="46.89152" lon="-2.03483">
        <ele>2.5</ele>
        <time>2020-06-04T13:14:47Z</time>
      </trkpt>
      <trkpt lat="46.89156" lon="-2.03491">
        <ele>2.5</ele>
        <time>2020-06-04T13:14:48Z</time>
      </trkpt>
      <trkpt lat="46.8916" lon="-2.03499">
        <ele>2.5</ele>
        <time>2020-06-04T13:14:49Z</time>
      </trkpt>
      <trkpt lat="46.89164" lon="-2.0351">
        <ele>2.5</ele>
        <time>2020-06-04T13:14:50Z</time>
      </trkpt>
      <trkpt lat="46.89169" lon="-2.03519">
        <ele>2.5</ele>
        <time>2020-06-04T13:14:51Z</time>
      </trkpt>
      <trkpt lat="46.89173" lon="-2.03529">
        <ele>2.5</ele>
        <time>2020-06-04T13:14:52Z</time>
      </trkpt>
      <trkpt lat="46.89177" lon="-2.03538">
        <ele>2.5</ele>
        <time>2020-06-04T13:14:53Z</time>
      </trkpt>
      <trkpt lat="46.89182" lon="-2.03547">
        <ele>2.5</ele>
        <time>2020-06-04T13:14:54Z</time>
      </trkpt>
      <trkpt lat="46.89186" lon="-2.03556">
        <ele>2.5</ele>
        <time>2020-06-04T13:14:55Z</time>
      </trkpt>
      <trkpt lat="46.89191" lon="-2.03564">
        <ele>2.5</ele>
        <time>2020-06-04T13:14:56Z</time>
      </trkpt>
      <trkpt lat="46.89196" lon="-2.03574">
        <ele>2.5</ele>
        <time>2020-06-04T13:14:57Z</time>
      </trkpt>
      <trkpt lat="46.89203" lon="-2.03581">
        <ele>2.5</ele>
        <time>2020-06-04T13:14:58Z</time>
      </trkpt>
      <trkpt lat="46.89209" lon="-2.03587">
        <ele>2.5</ele>
        <time>2020-06-04T13:14:59Z</time>
      </trkpt>
      <trkpt lat="46.89217" lon="-2.03591">
        <ele>2.5</ele>
        <time>2020-06-04T13:15:00Z</time>
      </trkpt>
      <trkpt lat="46.89224" lon="-2.03595">
        <ele>2.5</ele>
        <time>2020-06-04T13:15:01Z</time>
      </trkpt>
      <trkpt lat="46.89231" lon="-2.03597">
        <ele>2.5</ele>
        <time>2020-06-04T13:15:02Z</time>
      </trkpt>
      <trkpt lat="46.89238" lon="-2.036">
        <ele>2.5</ele>
        <time>2020-06-04T13:15:03Z</time>
      </trkpt>
      <trkpt lat="46.89244" lon="-2.03602">
        <ele>2.5</ele>
        <time>2020-06-04T13:15:04Z</time>
      </trkpt>
      <trkpt lat="46.89252" lon="-2.03604">
        <ele>2.5</ele>
        <time>2020-06-04T13:15:05Z</time>
      </trkpt>
      <trkpt lat="46.89259" lon="-2.03605">
        <ele>2.5</ele>
        <time>2020-06-04T13:15:06Z</time>
      </trkpt>
      <trkpt lat="46.89267" lon="-2.03606">
        <ele>2.5</ele>
        <time>2020-06-04T13:15:07Z</time>
      </trkpt>
      <trkpt lat="46.89274" lon="-2.03608">
        <ele>2.5</ele>
        <time>2020-06-04T13:15:08Z</time>
      </trkpt>
      <trkpt lat="46.89281" lon="-2.0361">
        <ele>2.5</ele>
        <time>2020-06-04T13:15:09Z</time>
      </trkpt>
      <trkpt lat="46.89288" lon="-2.03612">
        <ele>2.5</ele>
        <time>2020-06-04T13:15:10Z</time>
      </trkpt>
      <trkpt lat="46.89295" lon="-2.03614">
        <ele>2.5</ele>
        <time>2020-06-04T13:15:11Z</time>
      </trkpt>
      <trkpt lat="46.89303" lon="-2.03615">
        <ele>2.5</ele>
        <time>2020-06-04T13:15:12Z</time>
      </trkpt>
      <trkpt lat="46.8931" lon="-2.03617">
        <ele>2.5</ele>
        <time>2020-06-04T13:15:13Z</time>
      </trkpt>
      <trkpt lat="46.89316" lon="-2.03619">
        <ele>2.5</ele>
        <time>2020-06-04T13:15:14Z</time>
      </trkpt>
      <trkpt lat="46.89322" lon="-2.03621">
        <ele>2.5</ele>
        <time>2020-06-04T13:15:15Z</time>
      </trkpt>
      <trkpt lat="46.89328" lon="-2.03624">
        <ele>2.5</ele>
        <time>2020-06-04T13:15:16Z</time>
      </trkpt>
      <trkpt lat="46.89335" lon="-2.03625">
        <ele>2.5</ele>
        <time>2020-06-04T13:15:17Z</time>
      </trkpt>
      <trkpt lat="46.89342" lon="-2.03627">
        <ele>2.5</ele>
        <time>2020-06-04T13:15:18Z</time>
      </trkpt>
      <trkpt lat="46.89348" lon="-2.03629">
        <ele>2.5</ele>
        <time>2020-06-04T13:15:19Z</time>
      </trkpt>
      <trkpt lat="46.89354" lon="-2.03631">
        <ele>2.5</ele>
        <time>2020-06-04T13:15:20Z</time>
      </trkpt>
      <trkpt lat="46.89361" lon="-2.03632">
        <ele>2.5</ele>
        <time>2020-06-04T13:15:21Z</time>
      </trkpt>
      <trkpt lat="46.89367" lon="-2.03634">
        <ele>2.5</ele>
        <time>2020-06-04T13:15:22Z</time>
      </trkpt>
      <trkpt lat="46.89375" lon="-2.03635">
        <ele>2.5</ele>
        <time>2020-06-04T13:15:23Z</time>
      </trkpt>
      <trkpt lat="46.89381" lon="-2.03637">
        <ele>2.5</ele>
        <time>2020-06-04T13:15:24Z</time>
      </trkpt>
      <trkpt lat="46.89388" lon="-2.03639">
        <ele>2.5</ele>
        <time>2020-06-04T13:15:25Z</time>
      </trkpt>
      <trkpt lat="46.89395" lon="-2.0364">
        <ele>2.5</ele>
        <time>2020-06-04T13:15:26Z</time>
      </trkpt>
      <trkpt lat="46.89402" lon="-2.03642">
        <ele>2.5</ele>
        <time>2020-06-04T13:15:27Z</time>
      </trkpt>
      <trkpt lat="46.89409" lon="-2.03644">
        <ele>2.5</ele>
        <time>2020-06-04T13:15:28Z</time>
      </trkpt>
      <trkpt lat="46.89416" lon="-2.03646">
        <ele>2.5</ele>
        <time>2020-06-04T13:15:29Z</time>
      </trkpt>
      <trkpt lat="46.89422" lon="-2.03648">
        <ele>2.5</ele>
        <time>2020-06-04T13:15:30Z</time>
      </trkpt>
      <trkpt lat="46.89429" lon="-2.0365">
        <ele>2.5</ele>
        <time>2020-06-04T13:15:31Z</time>
      </trkpt>
      <trkpt lat="46.89435" lon="-2.03652">
        <ele>2.5</ele>
        <time>2020-06-04T13:15:32Z</time>
      </trkpt>
      <trkpt lat="46.89443" lon="-2.03654">
        <ele>2.5</ele>
        <time>2020-06-04T13:15:33Z</time>
      </trkpt>
      <trkpt lat="46.8945" lon="-2.03657">
        <ele>2.5</ele>
        <time>2020-06-04T13:15:34Z</time>
      </trkpt>
      <trkpt lat="46.89456" lon="-2.03659">
        <ele>2.5</ele>
        <time>2020-06-04T13:15:35Z</time>
      </trkpt>
      <trkpt lat="46.89463" lon="-2.03662">
        <ele>2.5</ele>
        <time>2020-06-04T13:15:36Z</time>
      </trkpt>
      <trkpt lat="46.89469" lon="-2.03664">
        <ele>2.5</ele>
        <time>2020-06-04T13:15:37Z</time>
      </trkpt>
      <trkpt lat="46.89475" lon="-2.03666">
        <ele>2.5</ele>
        <time>2020-06-04T13:15:38Z</time>
      </trkpt>
      <trkpt lat="46.89482" lon="-2.03668">
        <ele>2.5</ele>
        <time>2020-06-04T13:15:39Z</time>
      </trkpt>
      <trkpt lat="46.89488" lon="-2.03669">
        <ele>2.5</ele>
        <time>2020-06-04T13:15:40Z</time>
      </trkpt>
      <trkpt lat="46.89494" lon="-2.03671">
        <ele>2.5</ele>
        <time>2020-06-04T13:15:41Z</time>
      </trkpt>
      <trkpt lat="46.895" lon="-2.03672">
        <ele>2.5</ele>
        <time>2020-06-04T13:15:42Z</time>
      </trkpt>
      <trkpt lat="46.89506" lon="-2.03675">
        <ele>2.5</ele>
        <time>2020-06-04T13:15:43Z</time>
      </trkpt>
      <trkpt lat="46.89511" lon="-2.03677">
        <ele>2.5</ele>
        <time>2020-06-04T13:15:44Z</time>
      </trkpt>
      <trkpt lat="46.89519" lon="-2.03678">
        <ele>2.5</ele>
        <time>2020-06-04T13:15:45Z</time>
      </trkpt>
      <trkpt lat="46.89523" lon="-2.03679">
        <ele>2.4</ele>
        <time>2020-06-04T13:15:46Z</time>
      </trkpt>
      <trkpt lat="46.8953" lon="-2.03679">
        <ele>2.4</ele>
        <time>2020-06-04T13:15:47Z</time>
      </trkpt>
      <trkpt lat="46.89536" lon="-2.03678">
        <ele>2.4</ele>
        <time>2020-06-04T13:15:48Z</time>
      </trkpt>
      <trkpt lat="46.89542" lon="-2.03676">
        <ele>2.4</ele>
        <time>2020-06-04T13:15:49Z</time>
      </trkpt>
      <trkpt lat="46.89548" lon="-2.03675">
        <ele>2.4</ele>
        <time>2020-06-04T13:15:50Z</time>
      </trkpt>
      <trkpt lat="46.89554" lon="-2.03672">
        <ele>2.4</ele>
        <time>2020-06-04T13:15:51Z</time>
      </trkpt>
      <trkpt lat="46.89559" lon="-2.0367">
        <ele>2.4</ele>
        <time>2020-06-04T13:15:52Z</time>
      </trkpt>
      <trkpt lat="46.89565" lon="-2.03667">
        <ele>2.4</ele>
        <time>2020-06-04T13:15:53Z</time>
      </trkpt>
      <trkpt lat="46.89571" lon="-2.03665">
        <ele>2.4</ele>
        <time>2020-06-04T13:15:54Z</time>
      </trkpt>
      <trkpt lat="46.89577" lon="-2.03663">
        <ele>2.4</ele>
        <time>2020-06-04T13:15:55Z</time>
      </trkpt>
      <trkpt lat="46.89583" lon="-2.03659">
        <ele>2.4</ele>
        <time>2020-06-04T13:15:56Z</time>
      </trkpt>
      <trkpt lat="46.89588" lon="-2.03657">
        <ele>2.4</ele>
        <time>2020-06-04T13:15:57Z</time>
      </trkpt>
      <trkpt lat="46.89595" lon="-2.03654">
        <ele>2.4</ele>
        <time>2020-06-04T13:15:58Z</time>
      </trkpt>
      <trkpt lat="46.89602" lon="-2.0365">
        <ele>2.4</ele>
        <time>2020-06-04T13:15:59Z</time>
      </trkpt>
      <trkpt lat="46.89608" lon="-2.03647">
        <ele>2.4</ele>
        <time>2020-06-04T13:16:00Z</time>
      </trkpt>
      <trkpt lat="46.89614" lon="-2.03645">
        <ele>2.3</ele>
        <time>2020-06-04T13:16:01Z</time>
      </trkpt>
      <trkpt lat="46.89621" lon="-2.03643">
        <ele>2.3</ele>
        <time>2020-06-04T13:16:02Z</time>
      </trkpt>
      <trkpt lat="46.89627" lon="-2.03641">
        <ele>2.3</ele>
        <time>2020-06-04T13:16:03Z</time>
      </trkpt>
      <trkpt lat="46.89634" lon="-2.03639">
        <ele>2.3</ele>
        <time>2020-06-04T13:16:04Z</time>
      </trkpt>
      <trkpt lat="46.89641" lon="-2.03637">
        <ele>2.3</ele>
        <time>2020-06-04T13:16:05Z</time>
      </trkpt>
      <trkpt lat="46.89648" lon="-2.03635">
        <ele>2.3</ele>
        <time>2020-06-04T13:16:06Z</time>
      </trkpt>
      <trkpt lat="46.89655" lon="-2.03633">
        <ele>2.3</ele>
        <time>2020-06-04T13:16:07Z</time>
      </trkpt>
      <trkpt lat="46.89661" lon="-2.03632">
        <ele>2.3</ele>
        <time>2020-06-04T13:16:08Z</time>
      </trkpt>
      <trkpt lat="46.89669" lon="-2.0363">
        <ele>2.3</ele>
        <time>2020-06-04T13:16:09Z</time>
      </trkpt>
      <trkpt lat="46.89675" lon="-2.03629">
        <ele>2.3</ele>
        <time>2020-06-04T13:16:10Z</time>
      </trkpt>
      <trkpt lat="46.89681" lon="-2.03627">
        <ele>2.3</ele>
        <time>2020-06-04T13:16:11Z</time>
      </trkpt>
      <trkpt lat="46.89688" lon="-2.03626">
        <ele>2.3</ele>
        <time>2020-06-04T13:16:12Z</time>
      </trkpt>
      <trkpt lat="46.89694" lon="-2.03625">
        <ele>2.3</ele>
        <time>2020-06-04T13:16:13Z</time>
      </trkpt>
      <trkpt lat="46.897" lon="-2.03623">
        <ele>2.3</ele>
        <time>2020-06-04T13:16:14Z</time>
      </trkpt>
      <trkpt lat="46.89706" lon="-2.03623">
        <ele>2.3</ele>
        <time>2020-06-04T13:16:15Z</time>
      </trkpt>
      <trkpt lat="46.89713" lon="-2.03623">
        <ele>2.3</ele>
        <time>2020-06-04T13:16:16Z</time>
      </trkpt>
      <trkpt lat="46.8972" lon="-2.03623">
        <ele>2.3</ele>
        <time>2020-06-04T13:16:17Z</time>
      </trkpt>
      <trkpt lat="46.89725" lon="-2.03623">
        <ele>2.3</ele>
        <time>2020-06-04T13:16:18Z</time>
      </trkpt>
      <trkpt lat="46.89732" lon="-2.03622">
        <ele>2.3</ele>
        <time>2020-06-04T13:16:19Z</time>
      </trkpt>
      <trkpt lat="46.89738" lon="-2.03621">
        <ele>2.2</ele>
        <time>2020-06-04T13:16:20Z</time>
      </trkpt>
      <trkpt lat="46.89744" lon="-2.03618">
        <ele>2.2</ele>
        <time>2020-06-04T13:16:21Z</time>
      </trkpt>
      <trkpt lat="46.89751" lon="-2.03613">
        <ele>2.2</ele>
        <time>2020-06-04T13:16:22Z</time>
      </trkpt>
      <trkpt lat="46.89757" lon="-2.03609">
        <ele>2.2</ele>
        <time>2020-06-04T13:16:23Z</time>
      </trkpt>
      <trkpt lat="46.89763" lon="-2.03605">
        <ele>2.2</ele>
        <time>2020-06-04T13:16:24Z</time>
      </trkpt>
      <trkpt lat="46.89769" lon="-2.03599">
        <ele>2.2</ele>
        <time>2020-06-04T13:16:25Z</time>
      </trkpt>
      <trkpt lat="46.89775" lon="-2.03594">
        <ele>2.2</ele>
        <time>2020-06-04T13:16:26Z</time>
      </trkpt>
      <trkpt lat="46.89782" lon="-2.03587">
        <ele>2.2</ele>
        <time>2020-06-04T13:16:27Z</time>
      </trkpt>
      <trkpt lat="46.89789" lon="-2.03582">
        <ele>2.2</ele>
        <time>2020-06-04T13:16:28Z</time>
      </trkpt>
      <trkpt lat="46.89795" lon="-2.03576">
        <ele>2.3</ele>
        <time>2020-06-04T13:16:29Z</time>
      </trkpt>
      <trkpt lat="46.89801" lon="-2.03569">
        <ele>2.3</ele>
        <time>2020-06-04T13:16:30Z</time>
      </trkpt>
      <trkpt lat="46.89807" lon="-2.03562">
        <ele>2.3</ele>
        <time>2020-06-04T13:16:31Z</time>
      </trkpt>
      <trkpt lat="46.89812" lon="-2.03556">
        <ele>2.2</ele>
        <time>2020-06-04T13:16:32Z</time>
      </trkpt>
      <trkpt lat="46.89818" lon="-2.03551">
        <ele>2.2</ele>
        <time>2020-06-04T13:16:33Z</time>
      </trkpt>
      <trkpt lat="46.89824" lon="-2.03544">
        <ele>2.2</ele>
        <time>2020-06-04T13:16:34Z</time>
      </trkpt>
      <trkpt lat="46.8983" lon="-2.03538">
        <ele>2.2</ele>
        <time>2020-06-04T13:16:35Z</time>
      </trkpt>
      <trkpt lat="46.89837" lon="-2.03533">
        <ele>2.2</ele>
        <time>2020-06-04T13:16:36Z</time>
      </trkpt>
      <trkpt lat="46.89844" lon="-2.03526">
        <ele>2.2</ele>
        <time>2020-06-04T13:16:37Z</time>
      </trkpt>
      <trkpt lat="46.89849" lon="-2.03521">
        <ele>2.2</ele>
        <time>2020-06-04T13:16:38Z</time>
      </trkpt>
      <trkpt lat="46.89855" lon="-2.03515">
        <ele>2.2</ele>
        <time>2020-06-04T13:16:39Z</time>
      </trkpt>
      <trkpt lat="46.89861" lon="-2.03509">
        <ele>2.2</ele>
        <time>2020-06-04T13:16:40Z</time>
      </trkpt>
      <trkpt lat="46.89867" lon="-2.03502">
        <ele>2.2</ele>
        <time>2020-06-04T13:16:41Z</time>
      </trkpt>
      <trkpt lat="46.89873" lon="-2.03495">
        <ele>2.2</ele>
        <time>2020-06-04T13:16:42Z</time>
      </trkpt>
      <trkpt lat="46.89878" lon="-2.03489">
        <ele>2.2</ele>
        <time>2020-06-04T13:16:43Z</time>
      </trkpt>
      <trkpt lat="46.89884" lon="-2.03484">
        <ele>2.2</ele>
        <time>2020-06-04T13:16:44Z</time>
      </trkpt>
      <trkpt lat="46.89889" lon="-2.03478">
        <ele>2.2</ele>
        <time>2020-06-04T13:16:45Z</time>
      </trkpt>
      <trkpt lat="46.89895" lon="-2.03473">
        <ele>2.2</ele>
        <time>2020-06-04T13:16:46Z</time>
      </trkpt>
      <trkpt lat="46.89901" lon="-2.03468">
        <ele>2.2</ele>
        <time>2020-06-04T13:16:47Z</time>
      </trkpt>
      <trkpt lat="46.89908" lon="-2.03462">
        <ele>2.2</ele>
        <time>2020-06-04T13:16:48Z</time>
      </trkpt>
      <trkpt lat="46.89913" lon="-2.03456">
        <ele>2.2</ele>
        <time>2020-06-04T13:16:49Z</time>
      </trkpt>
      <trkpt lat="46.89918" lon="-2.0345">
        <ele>2.2</ele>
        <time>2020-06-04T13:16:50Z</time>
      </trkpt>
      <trkpt lat="46.89925" lon="-2.03446">
        <ele>2.2</ele>
        <time>2020-06-04T13:16:51Z</time>
      </trkpt>
      <trkpt lat="46.89931" lon="-2.03441">
        <ele>2.2</ele>
        <time>2020-06-04T13:16:52Z</time>
      </trkpt>
      <trkpt lat="46.89937" lon="-2.03436">
        <ele>2.2</ele>
        <time>2020-06-04T13:16:53Z</time>
      </trkpt>
      <trkpt lat="46.89944" lon="-2.03432">
        <ele>2.2</ele>
        <time>2020-06-04T13:16:54Z</time>
      </trkpt>
      <trkpt lat="46.8995" lon="-2.03427">
        <ele>2.2</ele>
        <time>2020-06-04T13:16:55Z</time>
      </trkpt>
      <trkpt lat="46.89956" lon="-2.03423">
        <ele>2.2</ele>
        <time>2020-06-04T13:16:56Z</time>
      </trkpt>
      <trkpt lat="46.89963" lon="-2.03419">
        <ele>2.2</ele>
        <time>2020-06-04T13:16:57Z</time>
      </trkpt>
      <trkpt lat="46.89969" lon="-2.03415">
        <ele>2.3</ele>
        <time>2020-06-04T13:16:58Z</time>
      </trkpt>
      <trkpt lat="46.89975" lon="-2.0341">
        <ele>2.3</ele>
        <time>2020-06-04T13:16:59Z</time>
      </trkpt>
      <trkpt lat="46.8998" lon="-2.03406">
        <ele>2.3</ele>
        <time>2020-06-04T13:17:00Z</time>
      </trkpt>
      <trkpt lat="46.89986" lon="-2.03402">
        <ele>2.3</ele>
        <time>2020-06-04T13:17:01Z</time>
      </trkpt>
      <trkpt lat="46.89992" lon="-2.03398">
        <ele>2.3</ele>
        <time>2020-06-04T13:17:02Z</time>
      </trkpt>
      <trkpt lat="46.89997" lon="-2.03394">
        <ele>2.3</ele>
        <time>2020-06-04T13:17:03Z</time>
      </trkpt>
      <trkpt lat="46.90003" lon="-2.03391">
        <ele>2.4</ele>
        <time>2020-06-04T13:17:04Z</time>
      </trkpt>
      <trkpt lat="46.90009" lon="-2.03388">
        <ele>2.4</ele>
        <time>2020-06-04T13:17:05Z</time>
      </trkpt>
      <trkpt lat="46.90016" lon="-2.03386">
        <ele>2.4</ele>
        <time>2020-06-04T13:17:06Z</time>
      </trkpt>
      <trkpt lat="46.90023" lon="-2.03385">
        <ele>2.4</ele>
        <time>2020-06-04T13:17:07Z</time>
      </trkpt>
      <trkpt lat="46.9003" lon="-2.03383">
        <ele>2.4</ele>
        <time>2020-06-04T13:17:08Z</time>
      </trkpt>
      <trkpt lat="46.90038" lon="-2.03381">
        <ele>2.4</ele>
        <time>2020-06-04T13:17:09Z</time>
      </trkpt>
      <trkpt lat="46.90045" lon="-2.03378">
        <ele>2.4</ele>
        <time>2020-06-04T13:17:10Z</time>
      </trkpt>
      <trkpt lat="46.90052" lon="-2.03376">
        <ele>2.4</ele>
        <time>2020-06-04T13:17:11Z</time>
      </trkpt>
      <trkpt lat="46.90059" lon="-2.03374">
        <ele>2.4</ele>
        <time>2020-06-04T13:17:12Z</time>
      </trkpt>
      <trkpt lat="46.90066" lon="-2.03371">
        <ele>2.5</ele>
        <time>2020-06-04T13:17:13Z</time>
      </trkpt>
      <trkpt lat="46.90072" lon="-2.03369">
        <ele>2.5</ele>
        <time>2020-06-04T13:17:14Z</time>
      </trkpt>
      <trkpt lat="46.9008" lon="-2.03367">
        <ele>2.5</ele>
        <time>2020-06-04T13:17:15Z</time>
      </trkpt>
      <trkpt lat="46.90086" lon="-2.03365">
        <ele>2.5</ele>
        <time>2020-06-04T13:17:16Z</time>
      </trkpt>
      <trkpt lat="46.90094" lon="-2.03363">
        <ele>2.5</ele>
        <time>2020-06-04T13:17:17Z</time>
      </trkpt>
      <trkpt lat="46.901" lon="-2.03359">
        <ele>2.6</ele>
        <time>2020-06-04T13:17:18Z</time>
      </trkpt>
      <trkpt lat="46.90106" lon="-2.03355">
        <ele>2.6</ele>
        <time>2020-06-04T13:17:19Z</time>
      </trkpt>
      <trkpt lat="46.90112" lon="-2.0335">
        <ele>2.6</ele>
        <time>2020-06-04T13:17:20Z</time>
      </trkpt>
      <trkpt lat="46.90117" lon="-2.03345">
        <ele>2.6</ele>
        <time>2020-06-04T13:17:21Z</time>
      </trkpt>
      <trkpt lat="46.90121" lon="-2.03337">
        <ele>2.6</ele>
        <time>2020-06-04T13:17:22Z</time>
      </trkpt>
      <trkpt lat="46.90126" lon="-2.03329">
        <ele>2.6</ele>
        <time>2020-06-04T13:17:23Z</time>
      </trkpt>
      <trkpt lat="46.90131" lon="-2.03322">
        <ele>2.6</ele>
        <time>2020-06-04T13:17:24Z</time>
      </trkpt>
      <trkpt lat="46.90136" lon="-2.03316">
        <ele>2.6</ele>
        <time>2020-06-04T13:17:25Z</time>
      </trkpt>
      <trkpt lat="46.90141" lon="-2.03311">
        <ele>2.6</ele>
        <time>2020-06-04T13:17:26Z</time>
      </trkpt>
      <trkpt lat="46.90148" lon="-2.03305">
        <ele>2.7</ele>
        <time>2020-06-04T13:17:27Z</time>
      </trkpt>
      <trkpt lat="46.90155" lon="-2.03303">
        <ele>2.7</ele>
        <time>2020-06-04T13:17:28Z</time>
      </trkpt>
      <trkpt lat="46.90162" lon="-2.03302">
        <ele>2.7</ele>
        <time>2020-06-04T13:17:29Z</time>
      </trkpt>
      <trkpt lat="46.90168" lon="-2.03302">
        <ele>2.7</ele>
        <time>2020-06-04T13:17:30Z</time>
      </trkpt>
      <trkpt lat="46.90176" lon="-2.03302">
        <ele>2.7</ele>
        <time>2020-06-04T13:17:31Z</time>
      </trkpt>
      <trkpt lat="46.90182" lon="-2.03303">
        <ele>2.7</ele>
        <time>2020-06-04T13:17:32Z</time>
      </trkpt>
      <trkpt lat="46.90189" lon="-2.03305">
        <ele>2.7</ele>
        <time>2020-06-04T13:17:33Z</time>
      </trkpt>
      <trkpt lat="46.90196" lon="-2.03306">
        <ele>2.7</ele>
        <time>2020-06-04T13:17:34Z</time>
      </trkpt>
      <trkpt lat="46.90203" lon="-2.03306">
        <ele>2.7</ele>
        <time>2020-06-04T13:17:35Z</time>
      </trkpt>
      <trkpt lat="46.9021" lon="-2.03308">
        <ele>2.7</ele>
        <time>2020-06-04T13:17:36Z</time>
      </trkpt>
      <trkpt lat="46.90216" lon="-2.03309">
        <ele>2.7</ele>
        <time>2020-06-04T13:17:37Z</time>
      </trkpt>
      <trkpt lat="46.90223" lon="-2.0331">
        <ele>2.8</ele>
        <time>2020-06-04T13:17:38Z</time>
      </trkpt>
      <trkpt lat="46.90228" lon="-2.03312">
        <ele>2.8</ele>
        <time>2020-06-04T13:17:39Z</time>
      </trkpt>
      <trkpt lat="46.90235" lon="-2.03313">
        <ele>2.8</ele>
        <time>2020-06-04T13:17:40Z</time>
      </trkpt>
      <trkpt lat="46.90241" lon="-2.03313">
        <ele>2.8</ele>
        <time>2020-06-04T13:17:41Z</time>
      </trkpt>
      <trkpt lat="46.90248" lon="-2.03312">
        <ele>2.8</ele>
        <time>2020-06-04T13:17:42Z</time>
      </trkpt>
      <trkpt lat="46.90255" lon="-2.03312">
        <ele>2.8</ele>
        <time>2020-06-04T13:17:43Z</time>
      </trkpt>
      <trkpt lat="46.90262" lon="-2.03312">
        <ele>2.8</ele>
        <time>2020-06-04T13:17:44Z</time>
      </trkpt>
      <trkpt lat="46.90269" lon="-2.03311">
        <ele>2.8</ele>
        <time>2020-06-04T13:17:45Z</time>
      </trkpt>
      <trkpt lat="46.90276" lon="-2.03311">
        <ele>2.8</ele>
        <time>2020-06-04T13:17:46Z</time>
      </trkpt>
      <trkpt lat="46.90283" lon="-2.0331">
        <ele>2.8</ele>
        <time>2020-06-04T13:17:47Z</time>
      </trkpt>
      <trkpt lat="46.90291" lon="-2.03306">
        <ele>2.8</ele>
        <time>2020-06-04T13:17:48Z</time>
      </trkpt>
      <trkpt lat="46.90298" lon="-2.03305">
        <ele>2.8</ele>
        <time>2020-06-04T13:17:49Z</time>
      </trkpt>
      <trkpt lat="46.90304" lon="-2.03304">
        <ele>2.9</ele>
        <time>2020-06-04T13:17:50Z</time>
      </trkpt>
      <trkpt lat="46.90312" lon="-2.03303">
        <ele>2.9</ele>
        <time>2020-06-04T13:17:51Z</time>
      </trkpt>
      <trkpt lat="46.90319" lon="-2.03304">
        <ele>2.9</ele>
        <time>2020-06-04T13:17:52Z</time>
      </trkpt>
      <trkpt lat="46.90326" lon="-2.03307">
        <ele>2.9</ele>
        <time>2020-06-04T13:17:53Z</time>
      </trkpt>
      <trkpt lat="46.90333" lon="-2.03313">
        <ele>2.9</ele>
        <time>2020-06-04T13:17:54Z</time>
      </trkpt>
      <trkpt lat="46.90339" lon="-2.03318">
        <ele>2.9</ele>
        <time>2020-06-04T13:17:55Z</time>
      </trkpt>
      <trkpt lat="46.90345" lon="-2.03324">
        <ele>3</ele>
        <time>2020-06-04T13:17:56Z</time>
      </trkpt>
      <trkpt lat="46.90349" lon="-2.0333">
        <ele>3</ele>
        <time>2020-06-04T13:17:57Z</time>
      </trkpt>
      <trkpt lat="46.90354" lon="-2.03336">
        <ele>3</ele>
        <time>2020-06-04T13:17:58Z</time>
      </trkpt>
      <trkpt lat="46.9036" lon="-2.03345">
        <ele>3</ele>
        <time>2020-06-04T13:17:59Z</time>
      </trkpt>
      <trkpt lat="46.90364" lon="-2.03352">
        <ele>3</ele>
        <time>2020-06-04T13:18:00Z</time>
      </trkpt>
      <trkpt lat="46.90367" lon="-2.0336">
        <ele>3</ele>
        <time>2020-06-04T13:18:01Z</time>
      </trkpt>
      <trkpt lat="46.90369" lon="-2.03367">
        <ele>3</ele>
        <time>2020-06-04T13:18:02Z</time>
      </trkpt>
      <trkpt lat="46.90371" lon="-2.03375">
        <ele>3.1</ele>
        <time>2020-06-04T13:18:03Z</time>
      </trkpt>
      <trkpt lat="46.90373" lon="-2.03383">
        <ele>3.1</ele>
        <time>2020-06-04T13:18:04Z</time>
      </trkpt>
      <trkpt lat="46.90374" lon="-2.0339">
        <ele>3.1</ele>
        <time>2020-06-04T13:18:05Z</time>
      </trkpt>
      <trkpt lat="46.90375" lon="-2.03398">
        <ele>3.1</ele>
        <time>2020-06-04T13:18:06Z</time>
      </trkpt>
      <trkpt lat="46.90376" lon="-2.03404">
        <ele>3.1</ele>
        <time>2020-06-04T13:18:07Z</time>
      </trkpt>
      <trkpt lat="46.90376" lon="-2.03411">
        <ele>3.1</ele>
        <time>2020-06-04T13:18:08Z</time>
      </trkpt>
      <trkpt lat="46.90377" lon="-2.03419">
        <ele>3.1</ele>
        <time>2020-06-04T13:18:09Z</time>
      </trkpt>
      <trkpt lat="46.90377" lon="-2.03426">
        <ele>3.1</ele>
        <time>2020-06-04T13:18:10Z</time>
      </trkpt>
      <trkpt lat="46.90378" lon="-2.03433">
        <ele>3.2</ele>
        <time>2020-06-04T13:18:11Z</time>
      </trkpt>
      <trkpt lat="46.90379" lon="-2.0344">
        <ele>3.2</ele>
        <time>2020-06-04T13:18:12Z</time>
      </trkpt>
      <trkpt lat="46.9038" lon="-2.03448">
        <ele>3.2</ele>
        <time>2020-06-04T13:18:13Z</time>
      </trkpt>
      <trkpt lat="46.90381" lon="-2.03457">
        <ele>3.2</ele>
        <time>2020-06-04T13:18:14Z</time>
      </trkpt>
      <trkpt lat="46.90381" lon="-2.03463">
        <ele>3.2</ele>
        <time>2020-06-04T13:18:15Z</time>
      </trkpt>
      <trkpt lat="46.9038" lon="-2.0347">
        <ele>3.2</ele>
        <time>2020-06-04T13:18:16Z</time>
      </trkpt>
      <trkpt lat="46.9038" lon="-2.03476">
        <ele>3.2</ele>
        <time>2020-06-04T13:18:17Z</time>
      </trkpt>
      <trkpt lat="46.9038" lon="-2.03482">
        <ele>3.2</ele>
        <time>2020-06-04T13:18:18Z</time>
      </trkpt>
      <trkpt lat="46.9038" lon="-2.03488">
        <ele>3.2</ele>
        <time>2020-06-04T13:18:19Z</time>
      </trkpt>
      <trkpt lat="46.9038" lon="-2.03494">
        <ele>3.2</ele>
        <time>2020-06-04T13:18:20Z</time>
      </trkpt>
      <trkpt lat="46.9038" lon="-2.03502">
        <ele>3.2</ele>
        <time>2020-06-04T13:18:21Z</time>
      </trkpt>
      <trkpt lat="46.9038" lon="-2.03509">
        <ele>3.2</ele>
        <time>2020-06-04T13:18:22Z</time>
      </trkpt>
      <trkpt lat="46.90381" lon="-2.03515">
        <ele>3.2</ele>
        <time>2020-06-04T13:18:23Z</time>
      </trkpt>
      <trkpt lat="46.90381" lon="-2.03522">
        <ele>3.2</ele>
        <time>2020-06-04T13:18:24Z</time>
      </trkpt>
      <trkpt lat="46.90382" lon="-2.03528">
        <ele>3.2</ele>
        <time>2020-06-04T13:18:25Z</time>
      </trkpt>
      <trkpt lat="46.90382" lon="-2.03535">
        <ele>3.2</ele>
        <time>2020-06-04T13:18:26Z</time>
      </trkpt>
      <trkpt lat="46.90383" lon="-2.03541">
        <ele>3.3</ele>
        <time>2020-06-04T13:18:27Z</time>
      </trkpt>
      <trkpt lat="46.90383" lon="-2.03547">
        <ele>3.3</ele>
        <time>2020-06-04T13:18:28Z</time>
      </trkpt>
      <trkpt lat="46.90384" lon="-2.03553">
        <ele>3.3</ele>
        <time>2020-06-04T13:18:29Z</time>
      </trkpt>
      <trkpt lat="46.90385" lon="-2.03559">
        <ele>3.3</ele>
        <time>2020-06-04T13:18:30Z</time>
      </trkpt>
      <trkpt lat="46.90386" lon="-2.03567">
        <ele>3.3</ele>
        <time>2020-06-04T13:18:31Z</time>
      </trkpt>
      <trkpt lat="46.90387" lon="-2.03577">
        <ele>3.3</ele>
        <time>2020-06-04T13:18:32Z</time>
      </trkpt>
      <trkpt lat="46.90389" lon="-2.03584">
        <ele>3.3</ele>
        <time>2020-06-04T13:18:33Z</time>
      </trkpt>
      <trkpt lat="46.90389" lon="-2.03594">
        <ele>3.3</ele>
        <time>2020-06-04T13:18:34Z</time>
      </trkpt>
      <trkpt lat="46.90389" lon="-2.03602">
        <ele>3.3</ele>
        <time>2020-06-04T13:18:35Z</time>
      </trkpt>
      <trkpt lat="46.9039" lon="-2.03612">
        <ele>3.4</ele>
        <time>2020-06-04T13:18:36Z</time>
      </trkpt>
      <trkpt lat="46.9039" lon="-2.03621">
        <ele>3.4</ele>
        <time>2020-06-04T13:18:37Z</time>
      </trkpt>
      <trkpt lat="46.9039" lon="-2.03629">
        <ele>3.4</ele>
        <time>2020-06-04T13:18:38Z</time>
      </trkpt>
      <trkpt lat="46.90391" lon="-2.03637">
        <ele>3.4</ele>
        <time>2020-06-04T13:18:39Z</time>
      </trkpt>
      <trkpt lat="46.90392" lon="-2.03645">
        <ele>3.4</ele>
        <time>2020-06-04T13:18:40Z</time>
      </trkpt>
      <trkpt lat="46.90393" lon="-2.03653">
        <ele>3.4</ele>
        <time>2020-06-04T13:18:41Z</time>
      </trkpt>
      <trkpt lat="46.90395" lon="-2.03661">
        <ele>3.4</ele>
        <time>2020-06-04T13:18:42Z</time>
      </trkpt>
      <trkpt lat="46.90396" lon="-2.03669">
        <ele>3.4</ele>
        <time>2020-06-04T13:18:43Z</time>
      </trkpt>
      <trkpt lat="46.90397" lon="-2.03678">
        <ele>3.5</ele>
        <time>2020-06-04T13:18:44Z</time>
      </trkpt>
      <trkpt lat="46.90399" lon="-2.03687">
        <ele>3.5</ele>
        <time>2020-06-04T13:18:45Z</time>
      </trkpt>
      <trkpt lat="46.904" lon="-2.03695">
        <ele>3.5</ele>
        <time>2020-06-04T13:18:46Z</time>
      </trkpt>
      <trkpt lat="46.90401" lon="-2.03702">
        <ele>3.5</ele>
        <time>2020-06-04T13:18:47Z</time>
      </trkpt>
      <trkpt lat="46.90402" lon="-2.0371">
        <ele>3.5</ele>
        <time>2020-06-04T13:18:48Z</time>
      </trkpt>
      <trkpt lat="46.90404" lon="-2.03718">
        <ele>3.5</ele>
        <time>2020-06-04T13:18:49Z</time>
      </trkpt>
      <trkpt lat="46.90405" lon="-2.03726">
        <ele>3.5</ele>
        <time>2020-06-04T13:18:50Z</time>
      </trkpt>
      <trkpt lat="46.90407" lon="-2.03733">
        <ele>3.6</ele>
        <time>2020-06-04T13:18:51Z</time>
      </trkpt>
      <trkpt lat="46.90409" lon="-2.0374">
        <ele>3.6</ele>
        <time>2020-06-04T13:18:52Z</time>
      </trkpt>
      <trkpt lat="46.90411" lon="-2.03748">
        <ele>3.6</ele>
        <time>2020-06-04T13:18:53Z</time>
      </trkpt>
      <trkpt lat="46.90413" lon="-2.03755">
        <ele>3.6</ele>
        <time>2020-06-04T13:18:54Z</time>
      </trkpt>
      <trkpt lat="46.90415" lon="-2.03763">
        <ele>3.6</ele>
        <time>2020-06-04T13:18:55Z</time>
      </trkpt>
      <trkpt lat="46.90417" lon="-2.03771">
        <ele>3.6</ele>
        <time>2020-06-04T13:18:56Z</time>
      </trkpt>
      <trkpt lat="46.90418" lon="-2.03781">
        <ele>3.6</ele>
        <time>2020-06-04T13:18:57Z</time>
      </trkpt>
      <trkpt lat="46.9042" lon="-2.03789">
        <ele>3.7</ele>
        <time>2020-06-04T13:18:58Z</time>
      </trkpt>
      <trkpt lat="46.90421" lon="-2.03797">
        <ele>3.7</ele>
        <time>2020-06-04T13:18:59Z</time>
      </trkpt>
      <trkpt lat="46.90423" lon="-2.03804">
        <ele>3.7</ele>
        <time>2020-06-04T13:19:00Z</time>
      </trkpt>
      <trkpt lat="46.90423" lon="-2.03812">
        <ele>3.7</ele>
        <time>2020-06-04T13:19:01Z</time>
      </trkpt>
      <trkpt lat="46.90424" lon="-2.03818">
        <ele>3.7</ele>
        <time>2020-06-04T13:19:02Z</time>
      </trkpt>
      <trkpt lat="46.90425" lon="-2.03826">
        <ele>3.7</ele>
        <time>2020-06-04T13:19:03Z</time>
      </trkpt>
      <trkpt lat="46.90425" lon="-2.03834">
        <ele>3.7</ele>
        <time>2020-06-04T13:19:04Z</time>
      </trkpt>
      <trkpt lat="46.90425" lon="-2.03844">
        <ele>3.7</ele>
        <time>2020-06-04T13:19:05Z</time>
      </trkpt>
      <trkpt lat="46.90427" lon="-2.0385">
        <ele>3.8</ele>
        <time>2020-06-04T13:19:06Z</time>
      </trkpt>
      <trkpt lat="46.90428" lon="-2.03857">
        <ele>3.8</ele>
        <time>2020-06-04T13:19:07Z</time>
      </trkpt>
      <trkpt lat="46.90428" lon="-2.03866">
        <ele>3.8</ele>
        <time>2020-06-04T13:19:08Z</time>
      </trkpt>
      <trkpt lat="46.90429" lon="-2.03874">
        <ele>3.8</ele>
        <time>2020-06-04T13:19:09Z</time>
      </trkpt>
      <trkpt lat="46.90429" lon="-2.03882">
        <ele>3.8</ele>
        <time>2020-06-04T13:19:10Z</time>
      </trkpt>
      <trkpt lat="46.90429" lon="-2.0389">
        <ele>3.8</ele>
        <time>2020-06-04T13:19:11Z</time>
      </trkpt>
      <trkpt lat="46.90429" lon="-2.03899">
        <ele>3.7</ele>
        <time>2020-06-04T13:19:12Z</time>
      </trkpt>
      <trkpt lat="46.9043" lon="-2.03908">
        <ele>3.5</ele>
        <time>2020-06-04T13:19:13Z</time>
      </trkpt>
      <trkpt lat="46.90432" lon="-2.03916">
        <ele>3.3</ele>
        <time>2020-06-04T13:19:14Z</time>
      </trkpt>
      <trkpt lat="46.90432" lon="-2.03927">
        <ele>3</ele>
        <time>2020-06-04T13:19:15Z</time>
      </trkpt>
      <trkpt lat="46.90434" lon="-2.03936">
        <ele>2.8</ele>
        <time>2020-06-04T13:19:16Z</time>
      </trkpt>
      <trkpt lat="46.90433" lon="-2.03945">
        <ele>2.5</ele>
        <time>2020-06-04T13:19:17Z</time>
      </trkpt>
      <trkpt lat="46.90432" lon="-2.03954">
        <ele>2.4</ele>
        <time>2020-06-04T13:19:18Z</time>
      </trkpt>
      <trkpt lat="46.90432" lon="-2.03962">
        <ele>2.2</ele>
        <time>2020-06-04T13:19:19Z</time>
      </trkpt>
      <trkpt lat="46.90431" lon="-2.03969">
        <ele>2.1</ele>
        <time>2020-06-04T13:19:20Z</time>
      </trkpt>
      <trkpt lat="46.9043" lon="-2.03977">
        <ele>1.9</ele>
        <time>2020-06-04T13:19:21Z</time>
      </trkpt>
      <trkpt lat="46.90429" lon="-2.03985">
        <ele>1.8</ele>
        <time>2020-06-04T13:19:22Z</time>
      </trkpt>
      <trkpt lat="46.90428" lon="-2.03992">
        <ele>1.7</ele>
        <time>2020-06-04T13:19:23Z</time>
      </trkpt>
      <trkpt lat="46.90427" lon="-2.03998">
        <ele>1.7</ele>
        <time>2020-06-04T13:19:24Z</time>
      </trkpt>
      <trkpt lat="46.90427" lon="-2.04006">
        <ele>1.6</ele>
        <time>2020-06-04T13:19:25Z</time>
      </trkpt>
      <trkpt lat="46.90427" lon="-2.04011">
        <ele>1.6</ele>
        <time>2020-06-04T13:19:26Z</time>
      </trkpt>
      <trkpt lat="46.90426" lon="-2.04019">
        <ele>1.6</ele>
        <time>2020-06-04T13:19:27Z</time>
      </trkpt>
      <trkpt lat="46.90425" lon="-2.04027">
        <ele>1.6</ele>
        <time>2020-06-04T13:19:28Z</time>
      </trkpt>
      <trkpt lat="46.90425" lon="-2.04034">
        <ele>1.6</ele>
        <time>2020-06-04T13:19:29Z</time>
      </trkpt>
      <trkpt lat="46.90425" lon="-2.04041">
        <ele>1.6</ele>
        <time>2020-06-04T13:19:30Z</time>
      </trkpt>
      <trkpt lat="46.90425" lon="-2.04048">
        <ele>1.6</ele>
        <time>2020-06-04T13:19:31Z</time>
      </trkpt>
      <trkpt lat="46.90425" lon="-2.04055">
        <ele>1.6</ele>
        <time>2020-06-04T13:19:32Z</time>
      </trkpt>
      <trkpt lat="46.90426" lon="-2.04062">
        <ele>1.6</ele>
        <time>2020-06-04T13:19:33Z</time>
      </trkpt>
      <trkpt lat="46.90426" lon="-2.0407">
        <ele>1.6</ele>
        <time>2020-06-04T13:19:34Z</time>
      </trkpt>
      <trkpt lat="46.90427" lon="-2.04077">
        <ele>1.6</ele>
        <time>2020-06-04T13:19:35Z</time>
      </trkpt>
      <trkpt lat="46.90428" lon="-2.04085">
        <ele>1.7</ele>
        <time>2020-06-04T13:19:36Z</time>
      </trkpt>
      <trkpt lat="46.9043" lon="-2.04093">
        <ele>1.7</ele>
        <time>2020-06-04T13:19:37Z</time>
      </trkpt>
      <trkpt lat="46.90432" lon="-2.041">
        <ele>1.7</ele>
        <time>2020-06-04T13:19:38Z</time>
      </trkpt>
      <trkpt lat="46.90434" lon="-2.04108">
        <ele>1.7</ele>
        <time>2020-06-04T13:19:39Z</time>
      </trkpt>
      <trkpt lat="46.90437" lon="-2.04115">
        <ele>1.8</ele>
        <time>2020-06-04T13:19:40Z</time>
      </trkpt>
      <trkpt lat="46.9044" lon="-2.04122">
        <ele>1.8</ele>
        <time>2020-06-04T13:19:41Z</time>
      </trkpt>
      <trkpt lat="46.90442" lon="-2.0413">
        <ele>1.8</ele>
        <time>2020-06-04T13:19:42Z</time>
      </trkpt>
      <trkpt lat="46.90443" lon="-2.04138">
        <ele>1.8</ele>
        <time>2020-06-04T13:19:43Z</time>
      </trkpt>
      <trkpt lat="46.90444" lon="-2.04146">
        <ele>1.9</ele>
        <time>2020-06-04T13:19:44Z</time>
      </trkpt>
      <trkpt lat="46.90445" lon="-2.04154">
        <ele>1.9</ele>
        <time>2020-06-04T13:19:45Z</time>
      </trkpt>
      <trkpt lat="46.90446" lon="-2.04163">
        <ele>1.9</ele>
        <time>2020-06-04T13:19:46Z</time>
      </trkpt>
      <trkpt lat="46.90447" lon="-2.0417">
        <ele>1.9</ele>
        <time>2020-06-04T13:19:47Z</time>
      </trkpt>
      <trkpt lat="46.90449" lon="-2.04177">
        <ele>1.9</ele>
        <time>2020-06-04T13:19:48Z</time>
      </trkpt>
      <trkpt lat="46.90451" lon="-2.04182">
        <ele>2</ele>
        <time>2020-06-04T13:19:49Z</time>
      </trkpt>
      <trkpt lat="46.90454" lon="-2.04187">
        <ele>2.1</ele>
        <time>2020-06-04T13:19:50Z</time>
      </trkpt>
      <trkpt lat="46.90456" lon="-2.04188">
        <ele>2.1</ele>
        <time>2020-06-04T13:19:51Z</time>
      </trkpt>
      <trkpt lat="46.90458" lon="-2.04188">
        <ele>2.2</ele>
        <time>2020-06-04T13:19:52Z</time>
      </trkpt>
      <trkpt lat="46.90461" lon="-2.04186">
        <ele>2.3</ele>
        <time>2020-06-04T13:19:53Z</time>
      </trkpt>
      <trkpt lat="46.90463" lon="-2.04184">
        <ele>2.3</ele>
        <time>2020-06-04T13:19:54Z</time>
      </trkpt>
      <trkpt lat="46.90467" lon="-2.04182">
        <ele>2.4</ele>
        <time>2020-06-04T13:19:55Z</time>
      </trkpt>
      <trkpt lat="46.9047" lon="-2.04177">
        <ele>2.5</ele>
        <time>2020-06-04T13:19:56Z</time>
      </trkpt>
      <trkpt lat="46.90475" lon="-2.04175">
        <ele>2.6</ele>
        <time>2020-06-04T13:19:57Z</time>
      </trkpt>
      <trkpt lat="46.90477" lon="-2.04174">
        <ele>2.7</ele>
        <time>2020-06-04T13:19:58Z</time>
      </trkpt>
      <trkpt lat="46.9048" lon="-2.04172">
        <ele>2.8</ele>
        <time>2020-06-04T13:19:59Z</time>
      </trkpt>
      <trkpt lat="46.90484" lon="-2.04172">
        <ele>2.8</ele>
        <time>2020-06-04T13:20:00Z</time>
      </trkpt>
      <trkpt lat="46.90486" lon="-2.0417">
        <ele>2.9</ele>
        <time>2020-06-04T13:20:01Z</time>
      </trkpt>
      <trkpt lat="46.90489" lon="-2.0417">
        <ele>2.9</ele>
        <time>2020-06-04T13:20:02Z</time>
      </trkpt>
      <trkpt lat="46.90493" lon="-2.04168">
        <ele>3</ele>
        <time>2020-06-04T13:20:03Z</time>
      </trkpt>
      <trkpt lat="46.90498" lon="-2.04166">
        <ele>3.1</ele>
        <time>2020-06-04T13:20:04Z</time>
      </trkpt>
      <trkpt lat="46.90501" lon="-2.04165">
        <ele>3.2</ele>
        <time>2020-06-04T13:20:05Z</time>
      </trkpt>
      <trkpt lat="46.90505" lon="-2.04163">
        <ele>3.2</ele>
        <time>2020-06-04T13:20:06Z</time>
      </trkpt>
      <trkpt lat="46.90509" lon="-2.04161">
        <ele>3.3</ele>
        <time>2020-06-04T13:20:07Z</time>
      </trkpt>
      <trkpt lat="46.90513" lon="-2.04159">
        <ele>3.4</ele>
        <time>2020-06-04T13:20:08Z</time>
      </trkpt>
      <trkpt lat="46.90516" lon="-2.04158">
        <ele>3.5</ele>
        <time>2020-06-04T13:20:09Z</time>
      </trkpt>
      <trkpt lat="46.90521" lon="-2.04157">
        <ele>3.6</ele>
        <time>2020-06-04T13:20:10Z</time>
      </trkpt>
      <trkpt lat="46.90524" lon="-2.04157">
        <ele>3.7</ele>
        <time>2020-06-04T13:20:11Z</time>
      </trkpt>
      <trkpt lat="46.90528" lon="-2.04159">
        <ele>3.8</ele>
        <time>2020-06-04T13:20:12Z</time>
      </trkpt>
      <trkpt lat="46.90533" lon="-2.04162">
        <ele>4</ele>
        <time>2020-06-04T13:20:13Z</time>
      </trkpt>
      <trkpt lat="46.90537" lon="-2.04163">
        <ele>4.3</ele>
        <time>2020-06-04T13:20:14Z</time>
      </trkpt>
      <trkpt lat="46.90541" lon="-2.04166">
        <ele>4.5</ele>
        <time>2020-06-04T13:20:15Z</time>
      </trkpt>
      <trkpt lat="46.90545" lon="-2.04168">
        <ele>4.8</ele>
        <time>2020-06-04T13:20:16Z</time>
      </trkpt>
      <trkpt lat="46.90549" lon="-2.04169">
        <ele>5</ele>
        <time>2020-06-04T13:20:17Z</time>
      </trkpt>
      <trkpt lat="46.90553" lon="-2.04169">
        <ele>5.3</ele>
        <time>2020-06-04T13:20:18Z</time>
      </trkpt>
      <trkpt lat="46.90557" lon="-2.04171">
        <ele>5.6</ele>
        <time>2020-06-04T13:20:19Z</time>
      </trkpt>
      <trkpt lat="46.9056" lon="-2.04173">
        <ele>5.8</ele>
        <time>2020-06-04T13:20:20Z</time>
      </trkpt>
      <trkpt lat="46.90565" lon="-2.04173">
        <ele>6.1</ele>
        <time>2020-06-04T13:20:21Z</time>
      </trkpt>
      <trkpt lat="46.90569" lon="-2.04175">
        <ele>6.4</ele>
        <time>2020-06-04T13:20:22Z</time>
      </trkpt>
      <trkpt lat="46.90572" lon="-2.04176">
        <ele>6.7</ele>
        <time>2020-06-04T13:20:23Z</time>
      </trkpt>
      <trkpt lat="46.90576" lon="-2.04175">
        <ele>6.9</ele>
        <time>2020-06-04T13:20:24Z</time>
      </trkpt>
      <trkpt lat="46.90579" lon="-2.04174">
        <ele>7.1</ele>
        <time>2020-06-04T13:20:25Z</time>
      </trkpt>
      <trkpt lat="46.90583" lon="-2.04171">
        <ele>7.5</ele>
        <time>2020-06-04T13:20:26Z</time>
      </trkpt>
      <trkpt lat="46.90587" lon="-2.0417">
        <ele>7.7</ele>
        <time>2020-06-04T13:20:27Z</time>
      </trkpt>
      <trkpt lat="46.90592" lon="-2.04168">
        <ele>8</ele>
        <time>2020-06-04T13:20:28Z</time>
      </trkpt>
      <trkpt lat="46.90595" lon="-2.04167">
        <ele>8.2</ele>
        <time>2020-06-04T13:20:29Z</time>
      </trkpt>
      <trkpt lat="46.906" lon="-2.04165">
        <ele>8.5</ele>
        <time>2020-06-04T13:20:30Z</time>
      </trkpt>
      <trkpt lat="46.90604" lon="-2.04166">
        <ele>8.7</ele>
        <time>2020-06-04T13:20:31Z</time>
      </trkpt>
      <trkpt lat="46.90608" lon="-2.04165">
        <ele>8.9</ele>
        <time>2020-06-04T13:20:32Z</time>
      </trkpt>
      <trkpt lat="46.90613" lon="-2.04163">
        <ele>9.1</ele>
        <time>2020-06-04T13:20:33Z</time>
      </trkpt>
      <trkpt lat="46.90617" lon="-2.04162">
        <ele>9.2</ele>
        <time>2020-06-04T13:20:34Z</time>
      </trkpt>
      <trkpt lat="46.90621" lon="-2.04162">
        <ele>9.3</ele>
        <time>2020-06-04T13:20:35Z</time>
      </trkpt>
      <trkpt lat="46.90624" lon="-2.04162">
        <ele>9.4</ele>
        <time>2020-06-04T13:20:36Z</time>
      </trkpt>
      <trkpt lat="46.90627" lon="-2.04161">
        <ele>9.5</ele>
        <time>2020-06-04T13:20:37Z</time>
      </trkpt>
      <trkpt lat="46.90631" lon="-2.04162">
        <ele>9.6</ele>
        <time>2020-06-04T13:20:38Z</time>
      </trkpt>
      <trkpt lat="46.90635" lon="-2.0416">
        <ele>9.7</ele>
        <time>2020-06-04T13:20:39Z</time>
      </trkpt>
      <trkpt lat="46.90638" lon="-2.0416">
        <ele>9.8</ele>
        <time>2020-06-04T13:20:40Z</time>
      </trkpt>
      <trkpt lat="46.90643" lon="-2.04159">
        <ele>9.9</ele>
        <time>2020-06-04T13:20:41Z</time>
      </trkpt>
      <trkpt lat="46.90647" lon="-2.04158">
        <ele>10</ele>
        <time>2020-06-04T13:20:42Z</time>
      </trkpt>
      <trkpt lat="46.90651" lon="-2.04157">
        <ele>10.1</ele>
        <time>2020-06-04T13:20:43Z</time>
      </trkpt>
      <trkpt lat="46.90655" lon="-2.04157">
        <ele>10.1</ele>
        <time>2020-06-04T13:20:44Z</time>
      </trkpt>
      <trkpt lat="46.90659" lon="-2.04156">
        <ele>10.2</ele>
        <time>2020-06-04T13:20:45Z</time>
      </trkpt>
      <trkpt lat="46.90663" lon="-2.04157">
        <ele>10.2</ele>
        <time>2020-06-04T13:20:46Z</time>
      </trkpt>
      <trkpt lat="46.90667" lon="-2.04157">
        <ele>10.3</ele>
        <time>2020-06-04T13:20:47Z</time>
      </trkpt>
      <trkpt lat="46.9067" lon="-2.04157">
        <ele>10.3</ele>
        <time>2020-06-04T13:20:48Z</time>
      </trkpt>
      <trkpt lat="46.90674" lon="-2.04158">
        <ele>10.3</ele>
        <time>2020-06-04T13:20:49Z</time>
      </trkpt>
      <trkpt lat="46.90679" lon="-2.04156">
        <ele>10.3</ele>
        <time>2020-06-04T13:20:50Z</time>
      </trkpt>
      <trkpt lat="46.90684" lon="-2.04156">
        <ele>10.3</ele>
        <time>2020-06-04T13:20:51Z</time>
      </trkpt>
      <trkpt lat="46.90688" lon="-2.04157">
        <ele>10.3</ele>
        <time>2020-06-04T13:20:52Z</time>
      </trkpt>
      <trkpt lat="46.90692" lon="-2.04156">
        <ele>10.4</ele>
        <time>2020-06-04T13:20:53Z</time>
      </trkpt>
      <trkpt lat="46.90695" lon="-2.04156">
        <ele>10.4</ele>
        <time>2020-06-04T13:20:54Z</time>
      </trkpt>
      <trkpt lat="46.90699" lon="-2.04156">
        <ele>10.4</ele>
        <time>2020-06-04T13:20:55Z</time>
      </trkpt>
      <trkpt lat="46.90704" lon="-2.04156">
        <ele>10.5</ele>
        <time>2020-06-04T13:20:56Z</time>
      </trkpt>
      <trkpt lat="46.90708" lon="-2.04156">
        <ele>10.6</ele>
        <time>2020-06-04T13:20:57Z</time>
      </trkpt>
      <trkpt lat="46.90713" lon="-2.04156">
        <ele>10.6</ele>
        <time>2020-06-04T13:20:58Z</time>
      </trkpt>
      <trkpt lat="46.90718" lon="-2.04154">
        <ele>10.7</ele>
        <time>2020-06-04T13:20:59Z</time>
      </trkpt>
      <trkpt lat="46.90722" lon="-2.04153">
        <ele>10.8</ele>
        <time>2020-06-04T13:21:00Z</time>
      </trkpt>
      <trkpt lat="46.90725" lon="-2.04153">
        <ele>10.8</ele>
        <time>2020-06-04T13:21:01Z</time>
      </trkpt>
      <trkpt lat="46.90729" lon="-2.04152">
        <ele>10.9</ele>
        <time>2020-06-04T13:21:02Z</time>
      </trkpt>
      <trkpt lat="46.90733" lon="-2.04151">
        <ele>10.9</ele>
        <time>2020-06-04T13:21:03Z</time>
      </trkpt>
      <trkpt lat="46.90736" lon="-2.04151">
        <ele>10.9</ele>
        <time>2020-06-04T13:21:04Z</time>
      </trkpt>
      <trkpt lat="46.90739" lon="-2.04152">
        <ele>11</ele>
        <time>2020-06-04T13:21:05Z</time>
      </trkpt>
      <trkpt lat="46.90742" lon="-2.04151">
        <ele>11</ele>
        <time>2020-06-04T13:21:06Z</time>
      </trkpt>
      <trkpt lat="46.90746" lon="-2.04151">
        <ele>11</ele>
        <time>2020-06-04T13:21:07Z</time>
      </trkpt>
      <trkpt lat="46.9075" lon="-2.04151">
        <ele>11.1</ele>
        <time>2020-06-04T13:21:08Z</time>
      </trkpt>
      <trkpt lat="46.90754" lon="-2.0415">
        <ele>11.1</ele>
        <time>2020-06-04T13:21:09Z</time>
      </trkpt>
      <trkpt lat="46.90758" lon="-2.0415">
        <ele>11.2</ele>
        <time>2020-06-04T13:21:10Z</time>
      </trkpt>
      <trkpt lat="46.90763" lon="-2.04149">
        <ele>11.2</ele>
        <time>2020-06-04T13:21:11Z</time>
      </trkpt>
      <trkpt lat="46.90767" lon="-2.04149">
        <ele>11.2</ele>
        <time>2020-06-04T13:21:12Z</time>
      </trkpt>
      <trkpt lat="46.90772" lon="-2.04147">
        <ele>11.3</ele>
        <time>2020-06-04T13:21:13Z</time>
      </trkpt>
      <trkpt lat="46.90776" lon="-2.04146">
        <ele>11.3</ele>
        <time>2020-06-04T13:21:14Z</time>
      </trkpt>
      <trkpt lat="46.90779" lon="-2.04147">
        <ele>11.3</ele>
        <time>2020-06-04T13:21:15Z</time>
      </trkpt>
      <trkpt lat="46.90783" lon="-2.04147">
        <ele>11.3</ele>
        <time>2020-06-04T13:21:16Z</time>
      </trkpt>
      <trkpt lat="46.90787" lon="-2.04147">
        <ele>11.3</ele>
        <time>2020-06-04T13:21:17Z</time>
      </trkpt>
      <trkpt lat="46.90791" lon="-2.04146">
        <ele>11.3</ele>
        <time>2020-06-04T13:21:18Z</time>
      </trkpt>
      <trkpt lat="46.90794" lon="-2.04146">
        <ele>11.3</ele>
        <time>2020-06-04T13:21:19Z</time>
      </trkpt>
      <trkpt lat="46.90798" lon="-2.04146">
        <ele>11.3</ele>
        <time>2020-06-04T13:21:20Z</time>
      </trkpt>
      <trkpt lat="46.90801" lon="-2.04146">
        <ele>11.3</ele>
        <time>2020-06-04T13:21:21Z</time>
      </trkpt>
      <trkpt lat="46.90805" lon="-2.04146">
        <ele>11.3</ele>
        <time>2020-06-04T13:21:22Z</time>
      </trkpt>
      <trkpt lat="46.90808" lon="-2.04145">
        <ele>11.3</ele>
        <time>2020-06-04T13:21:23Z</time>
      </trkpt>
      <trkpt lat="46.90811" lon="-2.04146">
        <ele>11.3</ele>
        <time>2020-06-04T13:21:24Z</time>
      </trkpt>
      <trkpt lat="46.90816" lon="-2.04147">
        <ele>11.3</ele>
        <time>2020-06-04T13:21:25Z</time>
      </trkpt>
      <trkpt lat="46.9082" lon="-2.04148">
        <ele>11.3</ele>
        <time>2020-06-04T13:21:26Z</time>
      </trkpt>
      <trkpt lat="46.90824" lon="-2.04149">
        <ele>11.3</ele>
        <time>2020-06-04T13:21:27Z</time>
      </trkpt>
      <trkpt lat="46.90828" lon="-2.04151">
        <ele>11.3</ele>
        <time>2020-06-04T13:21:28Z</time>
      </trkpt>
      <trkpt lat="46.90832" lon="-2.04152">
        <ele>11.3</ele>
        <time>2020-06-04T13:21:29Z</time>
      </trkpt>
      <trkpt lat="46.90836" lon="-2.04152">
        <ele>11.3</ele>
        <time>2020-06-04T13:21:30Z</time>
      </trkpt>
      <trkpt lat="46.9084" lon="-2.04152">
        <ele>11.3</ele>
        <time>2020-06-04T13:21:31Z</time>
      </trkpt>
      <trkpt lat="46.90845" lon="-2.04151">
        <ele>11.3</ele>
        <time>2020-06-04T13:21:32Z</time>
      </trkpt>
      <trkpt lat="46.90848" lon="-2.04151">
        <ele>11.3</ele>
        <time>2020-06-04T13:21:33Z</time>
      </trkpt>
      <trkpt lat="46.90853" lon="-2.0415">
        <ele>11.3</ele>
        <time>2020-06-04T13:21:34Z</time>
      </trkpt>
      <trkpt lat="46.90857" lon="-2.04149">
        <ele>11.3</ele>
        <time>2020-06-04T13:21:35Z</time>
      </trkpt>
      <trkpt lat="46.90861" lon="-2.04149">
        <ele>11.3</ele>
        <time>2020-06-04T13:21:36Z</time>
      </trkpt>
      <trkpt lat="46.90866" lon="-2.04149">
        <ele>11.2</ele>
        <time>2020-06-04T13:21:37Z</time>
      </trkpt>
      <trkpt lat="46.9087" lon="-2.04149">
        <ele>11.2</ele>
        <time>2020-06-04T13:21:38Z</time>
      </trkpt>
      <trkpt lat="46.90874" lon="-2.04149">
        <ele>11.2</ele>
        <time>2020-06-04T13:21:39Z</time>
      </trkpt>
      <trkpt lat="46.90879" lon="-2.04148">
        <ele>11.2</ele>
        <time>2020-06-04T13:21:40Z</time>
      </trkpt>
      <trkpt lat="46.90883" lon="-2.04148">
        <ele>11.2</ele>
        <time>2020-06-04T13:21:41Z</time>
      </trkpt>
      <trkpt lat="46.90888" lon="-2.04145">
        <ele>11.2</ele>
        <time>2020-06-04T13:21:42Z</time>
      </trkpt>
      <trkpt lat="46.90892" lon="-2.04145">
        <ele>11.2</ele>
        <time>2020-06-04T13:21:43Z</time>
      </trkpt>
      <trkpt lat="46.90896" lon="-2.04145">
        <ele>11.1</ele>
        <time>2020-06-04T13:21:44Z</time>
      </trkpt>
      <trkpt lat="46.909" lon="-2.04145">
        <ele>11.1</ele>
        <time>2020-06-04T13:21:45Z</time>
      </trkpt>
      <trkpt lat="46.90905" lon="-2.04146">
        <ele>11.1</ele>
        <time>2020-06-04T13:21:46Z</time>
      </trkpt>
      <trkpt lat="46.90909" lon="-2.04146">
        <ele>11.1</ele>
        <time>2020-06-04T13:21:47Z</time>
      </trkpt>
      <trkpt lat="46.90914" lon="-2.04147">
        <ele>11.1</ele>
        <time>2020-06-04T13:21:48Z</time>
      </trkpt>
      <trkpt lat="46.90919" lon="-2.04147">
        <ele>11</ele>
        <time>2020-06-04T13:21:49Z</time>
      </trkpt>
      <trkpt lat="46.90924" lon="-2.04146">
        <ele>11</ele>
        <time>2020-06-04T13:21:50Z</time>
      </trkpt>
      <trkpt lat="46.90928" lon="-2.04145">
        <ele>11</ele>
        <time>2020-06-04T13:21:51Z</time>
      </trkpt>
      <trkpt lat="46.90931" lon="-2.04147">
        <ele>10.9</ele>
        <time>2020-06-04T13:21:52Z</time>
      </trkpt>
      <trkpt lat="46.90935" lon="-2.04146">
        <ele>10.8</ele>
        <time>2020-06-04T13:21:53Z</time>
      </trkpt>
      <trkpt lat="46.90941" lon="-2.04145">
        <ele>10.7</ele>
        <time>2020-06-04T13:21:54Z</time>
      </trkpt>
      <trkpt lat="46.90945" lon="-2.04144">
        <ele>10.6</ele>
        <time>2020-06-04T13:21:55Z</time>
      </trkpt>
      <trkpt lat="46.90948" lon="-2.04145">
        <ele>10.5</ele>
        <time>2020-06-04T13:21:56Z</time>
      </trkpt>
      <trkpt lat="46.90953" lon="-2.04144">
        <ele>10.4</ele>
        <time>2020-06-04T13:21:57Z</time>
      </trkpt>
      <trkpt lat="46.90957" lon="-2.04143">
        <ele>10.3</ele>
        <time>2020-06-04T13:21:58Z</time>
      </trkpt>
      <trkpt lat="46.90962" lon="-2.04143">
        <ele>10.1</ele>
        <time>2020-06-04T13:21:59Z</time>
      </trkpt>
      <trkpt lat="46.90966" lon="-2.04142">
        <ele>10</ele>
        <time>2020-06-04T13:22:00Z</time>
      </trkpt>
      <trkpt lat="46.90969" lon="-2.04143">
        <ele>9.9</ele>
        <time>2020-06-04T13:22:01Z</time>
      </trkpt>
      <trkpt lat="46.90972" lon="-2.04143">
        <ele>9.8</ele>
        <time>2020-06-04T13:22:02Z</time>
      </trkpt>
      <trkpt lat="46.90976" lon="-2.04143">
        <ele>9.7</ele>
        <time>2020-06-04T13:22:03Z</time>
      </trkpt>
      <trkpt lat="46.9098" lon="-2.04142">
        <ele>9.6</ele>
        <time>2020-06-04T13:22:04Z</time>
      </trkpt>
      <trkpt lat="46.90985" lon="-2.04143">
        <ele>9.5</ele>
        <time>2020-06-04T13:22:05Z</time>
      </trkpt>
      <trkpt lat="46.90988" lon="-2.04144">
        <ele>9.5</ele>
        <time>2020-06-04T13:22:06Z</time>
      </trkpt>
      <trkpt lat="46.90992" lon="-2.04145">
        <ele>9.4</ele>
        <time>2020-06-04T13:22:07Z</time>
      </trkpt>
      <trkpt lat="46.90996" lon="-2.04145">
        <ele>9.3</ele>
        <time>2020-06-04T13:22:08Z</time>
      </trkpt>
      <trkpt lat="46.91" lon="-2.04145">
        <ele>9.2</ele>
        <time>2020-06-04T13:22:09Z</time>
      </trkpt>
      <trkpt lat="46.91004" lon="-2.04145">
        <ele>9.2</ele>
        <time>2020-06-04T13:22:10Z</time>
      </trkpt>
      <trkpt lat="46.91007" lon="-2.04145">
        <ele>9.1</ele>
        <time>2020-06-04T13:22:11Z</time>
      </trkpt>
      <trkpt lat="46.91011" lon="-2.04145">
        <ele>9.1</ele>
        <time>2020-06-04T13:22:12Z</time>
      </trkpt>
      <trkpt lat="46.91015" lon="-2.04145">
        <ele>9</ele>
        <time>2020-06-04T13:22:13Z</time>
      </trkpt>
      <trkpt lat="46.9102" lon="-2.04145">
        <ele>9</ele>
        <time>2020-06-04T13:22:14Z</time>
      </trkpt>
      <trkpt lat="46.91023" lon="-2.04145">
        <ele>9</ele>
        <time>2020-06-04T13:22:15Z</time>
      </trkpt>
      <trkpt lat="46.91027" lon="-2.04145">
        <ele>8.9</ele>
        <time>2020-06-04T13:22:16Z</time>
      </trkpt>
      <trkpt lat="46.91032" lon="-2.04144">
        <ele>8.9</ele>
        <time>2020-06-04T13:22:17Z</time>
      </trkpt>
      <trkpt lat="46.91035" lon="-2.04144">
        <ele>8.8</ele>
        <time>2020-06-04T13:22:18Z</time>
      </trkpt>
      <trkpt lat="46.91039" lon="-2.04145">
        <ele>8.8</ele>
        <time>2020-06-04T13:22:19Z</time>
      </trkpt>
      <trkpt lat="46.91043" lon="-2.04145">
        <ele>8.8</ele>
        <time>2020-06-04T13:22:20Z</time>
      </trkpt>
      <trkpt lat="46.91047" lon="-2.04144">
        <ele>8.7</ele>
        <time>2020-06-04T13:22:21Z</time>
      </trkpt>
      <trkpt lat="46.91051" lon="-2.04144">
        <ele>8.7</ele>
        <time>2020-06-04T13:22:22Z</time>
      </trkpt>
      <trkpt lat="46.91054" lon="-2.04145">
        <ele>8.7</ele>
        <time>2020-06-04T13:22:23Z</time>
      </trkpt>
      <trkpt lat="46.91057" lon="-2.04147">
        <ele>8.6</ele>
        <time>2020-06-04T13:22:24Z</time>
      </trkpt>
      <trkpt lat="46.91062" lon="-2.04147">
        <ele>8.6</ele>
        <time>2020-06-04T13:22:25Z</time>
      </trkpt>
      <trkpt lat="46.91066" lon="-2.04147">
        <ele>8.6</ele>
        <time>2020-06-04T13:22:26Z</time>
      </trkpt>
      <trkpt lat="46.91071" lon="-2.04148">
        <ele>8.5</ele>
        <time>2020-06-04T13:22:27Z</time>
      </trkpt>
      <trkpt lat="46.91077" lon="-2.04146">
        <ele>8.4</ele>
        <time>2020-06-04T13:22:28Z</time>
      </trkpt>
      <trkpt lat="46.91082" lon="-2.04145">
        <ele>8.4</ele>
        <time>2020-06-04T13:22:29Z</time>
      </trkpt>
      <trkpt lat="46.91085" lon="-2.04144">
        <ele>8.3</ele>
        <time>2020-06-04T13:22:30Z</time>
      </trkpt>
      <trkpt lat="46.91088" lon="-2.04143">
        <ele>8.3</ele>
        <time>2020-06-04T13:22:31Z</time>
      </trkpt>
      <trkpt lat="46.91092" lon="-2.04141">
        <ele>8.2</ele>
        <time>2020-06-04T13:22:32Z</time>
      </trkpt>
      <trkpt lat="46.91095" lon="-2.04139">
        <ele>8.2</ele>
        <time>2020-06-04T13:22:33Z</time>
      </trkpt>
      <trkpt lat="46.91099" lon="-2.04138">
        <ele>8.2</ele>
        <time>2020-06-04T13:22:34Z</time>
      </trkpt>
      <trkpt lat="46.91103" lon="-2.04137">
        <ele>8.1</ele>
        <time>2020-06-04T13:22:35Z</time>
      </trkpt>
      <trkpt lat="46.91106" lon="-2.04136">
        <ele>8.1</ele>
        <time>2020-06-04T13:22:36Z</time>
      </trkpt>
      <trkpt lat="46.9111" lon="-2.04135">
        <ele>8</ele>
        <time>2020-06-04T13:22:37Z</time>
      </trkpt>
      <trkpt lat="46.91113" lon="-2.04134">
        <ele>8</ele>
        <time>2020-06-04T13:22:38Z</time>
      </trkpt>
      <trkpt lat="46.91116" lon="-2.04133">
        <ele>7.9</ele>
        <time>2020-06-04T13:22:39Z</time>
      </trkpt>
      <trkpt lat="46.9112" lon="-2.04132">
        <ele>7.9</ele>
        <time>2020-06-04T13:22:40Z</time>
      </trkpt>
      <trkpt lat="46.91124" lon="-2.0413">
        <ele>7.9</ele>
        <time>2020-06-04T13:22:41Z</time>
      </trkpt>
      <trkpt lat="46.91127" lon="-2.0413">
        <ele>7.8</ele>
        <time>2020-06-04T13:22:42Z</time>
      </trkpt>
      <trkpt lat="46.9113" lon="-2.04131">
        <ele>7.8</ele>
        <time>2020-06-04T13:22:43Z</time>
      </trkpt>
      <trkpt lat="46.91133" lon="-2.04128">
        <ele>7.8</ele>
        <time>2020-06-04T13:22:44Z</time>
      </trkpt>
      <trkpt lat="46.91137" lon="-2.04128">
        <ele>7.7</ele>
        <time>2020-06-04T13:22:45Z</time>
      </trkpt>
      <trkpt lat="46.9114" lon="-2.04127">
        <ele>7.7</ele>
        <time>2020-06-04T13:22:46Z</time>
      </trkpt>
      <trkpt lat="46.91143" lon="-2.04127">
        <ele>7.7</ele>
        <time>2020-06-04T13:22:47Z</time>
      </trkpt>
      <trkpt lat="46.91146" lon="-2.04126">
        <ele>7.7</ele>
        <time>2020-06-04T13:22:48Z</time>
      </trkpt>
      <trkpt lat="46.91149" lon="-2.04125">
        <ele>7.7</ele>
        <time>2020-06-04T13:22:49Z</time>
      </trkpt>
      <trkpt lat="46.91153" lon="-2.04125">
        <ele>7.7</ele>
        <time>2020-06-04T13:22:50Z</time>
      </trkpt>
      <trkpt lat="46.91156" lon="-2.04123">
        <ele>7.7</ele>
        <time>2020-06-04T13:22:51Z</time>
      </trkpt>
      <trkpt lat="46.91159" lon="-2.04122">
        <ele>7.8</ele>
        <time>2020-06-04T13:22:52Z</time>
      </trkpt>
      <trkpt lat="46.91162" lon="-2.04119">
        <ele>7.8</ele>
        <time>2020-06-04T13:22:53Z</time>
      </trkpt>
      <trkpt lat="46.91164" lon="-2.04118">
        <ele>7.8</ele>
        <time>2020-06-04T13:22:54Z</time>
      </trkpt>
      <trkpt lat="46.91167" lon="-2.04115">
        <ele>7.8</ele>
        <time>2020-06-04T13:22:55Z</time>
      </trkpt>
      <trkpt lat="46.91169" lon="-2.04113">
        <ele>7.8</ele>
        <time>2020-06-04T13:22:56Z</time>
      </trkpt>
      <trkpt lat="46.91172" lon="-2.04111">
        <ele>7.8</ele>
        <time>2020-06-04T13:22:57Z</time>
      </trkpt>
      <trkpt lat="46.91174" lon="-2.04109">
        <ele>7.8</ele>
        <time>2020-06-04T13:22:58Z</time>
      </trkpt>
      <trkpt lat="46.91178" lon="-2.04106">
        <ele>7.7</ele>
        <time>2020-06-04T13:22:59Z</time>
      </trkpt>
      <trkpt lat="46.9118" lon="-2.04104">
        <ele>7.7</ele>
        <time>2020-06-04T13:23:00Z</time>
      </trkpt>
      <trkpt lat="46.91183" lon="-2.04102">
        <ele>7.7</ele>
        <time>2020-06-04T13:23:01Z</time>
      </trkpt>
      <trkpt lat="46.91186" lon="-2.04099">
        <ele>7.7</ele>
        <time>2020-06-04T13:23:02Z</time>
      </trkpt>
      <trkpt lat="46.9119" lon="-2.04098">
        <ele>7.7</ele>
        <time>2020-06-04T13:23:03Z</time>
      </trkpt>
      <trkpt lat="46.91192" lon="-2.04095">
        <ele>7.6</ele>
        <time>2020-06-04T13:23:04Z</time>
      </trkpt>
      <trkpt lat="46.91195" lon="-2.04093">
        <ele>7.6</ele>
        <time>2020-06-04T13:23:05Z</time>
      </trkpt>
      <trkpt lat="46.91198" lon="-2.0409">
        <ele>7.6</ele>
        <time>2020-06-04T13:23:06Z</time>
      </trkpt>
      <trkpt lat="46.91201" lon="-2.04089">
        <ele>7.6</ele>
        <time>2020-06-04T13:23:07Z</time>
      </trkpt>
      <trkpt lat="46.91203" lon="-2.04086">
        <ele>7.5</ele>
        <time>2020-06-04T13:23:08Z</time>
      </trkpt>
      <trkpt lat="46.91206" lon="-2.04084">
        <ele>7.5</ele>
        <time>2020-06-04T13:23:09Z</time>
      </trkpt>
      <trkpt lat="46.91209" lon="-2.04079">
        <ele>7.5</ele>
        <time>2020-06-04T13:23:10Z</time>
      </trkpt>
      <trkpt lat="46.91211" lon="-2.04077">
        <ele>7.5</ele>
        <time>2020-06-04T13:23:11Z</time>
      </trkpt>
      <trkpt lat="46.91214" lon="-2.04075">
        <ele>7.5</ele>
        <time>2020-06-04T13:23:12Z</time>
      </trkpt>
      <trkpt lat="46.91217" lon="-2.04072">
        <ele>7.5</ele>
        <time>2020-06-04T13:23:13Z</time>
      </trkpt>
      <trkpt lat="46.91218" lon="-2.0407">
        <ele>7.5</ele>
        <time>2020-06-04T13:23:14Z</time>
      </trkpt>
      <trkpt lat="46.91221" lon="-2.04067">
        <ele>7.5</ele>
        <time>2020-06-04T13:23:15Z</time>
      </trkpt>
      <trkpt lat="46.91222" lon="-2.04066">
        <ele>7.5</ele>
        <time>2020-06-04T13:23:16Z</time>
      </trkpt>
      <trkpt lat="46.91225" lon="-2.04064">
        <ele>7.5</ele>
        <time>2020-06-04T13:23:17Z</time>
      </trkpt>
      <trkpt lat="46.91226" lon="-2.04062">
        <ele>7.5</ele>
        <time>2020-06-04T13:23:18Z</time>
      </trkpt>
      <trkpt lat="46.91229" lon="-2.04061">
        <ele>7.5</ele>
        <time>2020-06-04T13:23:19Z</time>
      </trkpt>
      <trkpt lat="46.91232" lon="-2.04057">
        <ele>7.5</ele>
        <time>2020-06-04T13:23:20Z</time>
      </trkpt>
      <trkpt lat="46.91235" lon="-2.04053">
        <ele>7.5</ele>
        <time>2020-06-04T13:23:21Z</time>
      </trkpt>
      <trkpt lat="46.91238" lon="-2.04051">
        <ele>7.6</ele>
        <time>2020-06-04T13:23:22Z</time>
      </trkpt>
      <trkpt lat="46.91241" lon="-2.04054">
        <ele>7.6</ele>
        <time>2020-06-04T13:23:23Z</time>
      </trkpt>
      <trkpt lat="46.91242" lon="-2.04054">
        <ele>7.6</ele>
        <time>2020-06-04T13:23:24Z</time>
      </trkpt>
      <trkpt lat="46.91245" lon="-2.04058">
        <ele>7.6</ele>
        <time>2020-06-04T13:23:25Z</time>
      </trkpt>
      <trkpt lat="46.91246" lon="-2.04063">
        <ele>7.6</ele>
        <time>2020-06-04T13:23:26Z</time>
      </trkpt>
      <trkpt lat="46.91248" lon="-2.04068">
        <ele>7.7</ele>
        <time>2020-06-04T13:23:27Z</time>
      </trkpt>
      <trkpt lat="46.91249" lon="-2.04073">
        <ele>7.7</ele>
        <time>2020-06-04T13:23:28Z</time>
      </trkpt>
      <trkpt lat="46.91251" lon="-2.04077">
        <ele>7.7</ele>
        <time>2020-06-04T13:23:29Z</time>
      </trkpt>
      <trkpt lat="46.91254" lon="-2.0408">
        <ele>7.7</ele>
        <time>2020-06-04T13:23:30Z</time>
      </trkpt>
      <trkpt lat="46.91256" lon="-2.04087">
        <ele>7.8</ele>
        <time>2020-06-04T13:23:31Z</time>
      </trkpt>
      <trkpt lat="46.91258" lon="-2.04092">
        <ele>7.8</ele>
        <time>2020-06-04T13:23:32Z</time>
      </trkpt>
      <trkpt lat="46.9126" lon="-2.04098">
        <ele>7.8</ele>
        <time>2020-06-04T13:23:33Z</time>
      </trkpt>
      <trkpt lat="46.91261" lon="-2.04103">
        <ele>7.8</ele>
        <time>2020-06-04T13:23:34Z</time>
      </trkpt>
      <trkpt lat="46.91263" lon="-2.04108">
        <ele>7.9</ele>
        <time>2020-06-04T13:23:35Z</time>
      </trkpt>
      <trkpt lat="46.91266" lon="-2.04114">
        <ele>7.9</ele>
        <time>2020-06-04T13:23:36Z</time>
      </trkpt>
      <trkpt lat="46.91268" lon="-2.04118">
        <ele>7.9</ele>
        <time>2020-06-04T13:23:37Z</time>
      </trkpt>
      <trkpt lat="46.9127" lon="-2.04124">
        <ele>8</ele>
        <time>2020-06-04T13:23:38Z</time>
      </trkpt>
      <trkpt lat="46.91273" lon="-2.04129">
        <ele>8</ele>
        <time>2020-06-04T13:23:39Z</time>
      </trkpt>
      <trkpt lat="46.91275" lon="-2.04135">
        <ele>8</ele>
        <time>2020-06-04T13:23:40Z</time>
      </trkpt>
      <trkpt lat="46.91278" lon="-2.04139">
        <ele>8</ele>
        <time>2020-06-04T13:23:41Z</time>
      </trkpt>
      <trkpt lat="46.9128" lon="-2.04144">
        <ele>8.1</ele>
        <time>2020-06-04T13:23:42Z</time>
      </trkpt>
      <trkpt lat="46.91282" lon="-2.04149">
        <ele>8.1</ele>
        <time>2020-06-04T13:23:43Z</time>
      </trkpt>
      <trkpt lat="46.91284" lon="-2.04155">
        <ele>8.1</ele>
        <time>2020-06-04T13:23:44Z</time>
      </trkpt>
      <trkpt lat="46.91286" lon="-2.04161">
        <ele>8.1</ele>
        <time>2020-06-04T13:23:45Z</time>
      </trkpt>
      <trkpt lat="46.91289" lon="-2.04166">
        <ele>8.1</ele>
        <time>2020-06-04T13:23:46Z</time>
      </trkpt>
      <trkpt lat="46.91291" lon="-2.0417">
        <ele>8.1</ele>
        <time>2020-06-04T13:23:47Z</time>
      </trkpt>
      <trkpt lat="46.91294" lon="-2.04175">
        <ele>8.1</ele>
        <time>2020-06-04T13:23:48Z</time>
      </trkpt>
      <trkpt lat="46.91296" lon="-2.04178">
        <ele>8.2</ele>
        <time>2020-06-04T13:23:49Z</time>
      </trkpt>
      <trkpt lat="46.91298" lon="-2.04184">
        <ele>8.2</ele>
        <time>2020-06-04T13:23:50Z</time>
      </trkpt>
      <trkpt lat="46.913" lon="-2.04188">
        <ele>8.2</ele>
        <time>2020-06-04T13:23:51Z</time>
      </trkpt>
      <trkpt lat="46.91302" lon="-2.04194">
        <ele>8.2</ele>
        <time>2020-06-04T13:23:52Z</time>
      </trkpt>
      <trkpt lat="46.91303" lon="-2.042">
        <ele>8.2</ele>
        <time>2020-06-04T13:23:53Z</time>
      </trkpt>
      <trkpt lat="46.91305" lon="-2.04205">
        <ele>8.2</ele>
        <time>2020-06-04T13:23:54Z</time>
      </trkpt>
      <trkpt lat="46.91307" lon="-2.0421">
        <ele>8.2</ele>
        <time>2020-06-04T13:23:55Z</time>
      </trkpt>
      <trkpt lat="46.91309" lon="-2.04215">
        <ele>8.2</ele>
        <time>2020-06-04T13:23:56Z</time>
      </trkpt>
      <trkpt lat="46.91311" lon="-2.04219">
        <ele>8.2</ele>
        <time>2020-06-04T13:23:57Z</time>
      </trkpt>
      <trkpt lat="46.91314" lon="-2.04222">
        <ele>8.2</ele>
        <time>2020-06-04T13:23:58Z</time>
      </trkpt>
      <trkpt lat="46.91316" lon="-2.04227">
        <ele>8.2</ele>
        <time>2020-06-04T13:23:59Z</time>
      </trkpt>
      <trkpt lat="46.9132" lon="-2.04231">
        <ele>8.2</ele>
        <time>2020-06-04T13:24:00Z</time>
      </trkpt>
      <trkpt lat="46.91323" lon="-2.04234">
        <ele>8.1</ele>
        <time>2020-06-04T13:24:01Z</time>
      </trkpt>
      <trkpt lat="46.91326" lon="-2.04237">
        <ele>8.1</ele>
        <time>2020-06-04T13:24:02Z</time>
      </trkpt>
      <trkpt lat="46.91329" lon="-2.04241">
        <ele>8.1</ele>
        <time>2020-06-04T13:24:03Z</time>
      </trkpt>
      <trkpt lat="46.91332" lon="-2.04247">
        <ele>8.1</ele>
        <time>2020-06-04T13:24:04Z</time>
      </trkpt>
      <trkpt lat="46.91335" lon="-2.04252">
        <ele>8</ele>
        <time>2020-06-04T13:24:05Z</time>
      </trkpt>
      <trkpt lat="46.91338" lon="-2.04255">
        <ele>8</ele>
        <time>2020-06-04T13:24:06Z</time>
      </trkpt>
      <trkpt lat="46.91341" lon="-2.04259">
        <ele>8</ele>
        <time>2020-06-04T13:24:07Z</time>
      </trkpt>
      <trkpt lat="46.91344" lon="-2.04261">
        <ele>7.9</ele>
        <time>2020-06-04T13:24:08Z</time>
      </trkpt>
      <trkpt lat="46.91347" lon="-2.04264">
        <ele>7.9</ele>
        <time>2020-06-04T13:24:09Z</time>
      </trkpt>
      <trkpt lat="46.91351" lon="-2.04268">
        <ele>7.9</ele>
        <time>2020-06-04T13:24:10Z</time>
      </trkpt>
      <trkpt lat="46.91354" lon="-2.04271">
        <ele>7.9</ele>
        <time>2020-06-04T13:24:11Z</time>
      </trkpt>
      <trkpt lat="46.91358" lon="-2.04274">
        <ele>7.8</ele>
        <time>2020-06-04T13:24:12Z</time>
      </trkpt>
      <trkpt lat="46.91361" lon="-2.04277">
        <ele>7.8</ele>
        <time>2020-06-04T13:24:13Z</time>
      </trkpt>
      <trkpt lat="46.91363" lon="-2.0428">
        <ele>7.8</ele>
        <time>2020-06-04T13:24:14Z</time>
      </trkpt>
      <trkpt lat="46.91369" lon="-2.04282">
        <ele>7.8</ele>
        <time>2020-06-04T13:24:15Z</time>
      </trkpt>
      <trkpt lat="46.91372" lon="-2.04282">
        <ele>7.7</ele>
        <time>2020-06-04T13:24:16Z</time>
      </trkpt>
      <trkpt lat="46.91376" lon="-2.04282">
        <ele>7.7</ele>
        <time>2020-06-04T13:24:17Z</time>
      </trkpt>
      <trkpt lat="46.91377" lon="-2.04282">
        <ele>7.7</ele>
        <time>2020-06-04T13:24:18Z</time>
      </trkpt>
      <trkpt lat="46.91379" lon="-2.04279">
        <ele>7.7</ele>
        <time>2020-06-04T13:24:19Z</time>
      </trkpt>
      <trkpt lat="46.91383" lon="-2.04275">
        <ele>7.7</ele>
        <time>2020-06-04T13:24:20Z</time>
      </trkpt>
      <trkpt lat="46.91385" lon="-2.0427">
        <ele>7.6</ele>
        <time>2020-06-04T13:24:21Z</time>
      </trkpt>
      <trkpt lat="46.91387" lon="-2.04264">
        <ele>7.6</ele>
        <time>2020-06-04T13:24:22Z</time>
      </trkpt>
      <trkpt lat="46.9139" lon="-2.0426">
        <ele>7.5</ele>
        <time>2020-06-04T13:24:23Z</time>
      </trkpt>
      <trkpt lat="46.91394" lon="-2.04256">
        <ele>7.4</ele>
        <time>2020-06-04T13:24:24Z</time>
      </trkpt>
      <trkpt lat="46.91397" lon="-2.04252">
        <ele>7.4</ele>
        <time>2020-06-04T13:24:25Z</time>
      </trkpt>
      <trkpt lat="46.91401" lon="-2.04247">
        <ele>7.3</ele>
        <time>2020-06-04T13:24:26Z</time>
      </trkpt>
      <trkpt lat="46.91404" lon="-2.04243">
        <ele>7.2</ele>
        <time>2020-06-04T13:24:27Z</time>
      </trkpt>
      <trkpt lat="46.91408" lon="-2.04237">
        <ele>7.1</ele>
        <time>2020-06-04T13:24:28Z</time>
      </trkpt>
      <trkpt lat="46.91412" lon="-2.04233">
        <ele>7</ele>
        <time>2020-06-04T13:24:29Z</time>
      </trkpt>
      <trkpt lat="46.91418" lon="-2.04229">
        <ele>6.9</ele>
        <time>2020-06-04T13:24:30Z</time>
      </trkpt>
      <trkpt lat="46.91421" lon="-2.04227">
        <ele>6.8</ele>
        <time>2020-06-04T13:24:31Z</time>
      </trkpt>
      <trkpt lat="46.91425" lon="-2.04222">
        <ele>6.7</ele>
        <time>2020-06-04T13:24:32Z</time>
      </trkpt>
      <trkpt lat="46.9143" lon="-2.04218">
        <ele>6.7</ele>
        <time>2020-06-04T13:24:33Z</time>
      </trkpt>
      <trkpt lat="46.91434" lon="-2.04214">
        <ele>6.6</ele>
        <time>2020-06-04T13:24:34Z</time>
      </trkpt>
      <trkpt lat="46.91438" lon="-2.04209">
        <ele>6.6</ele>
        <time>2020-06-04T13:24:35Z</time>
      </trkpt>
      <trkpt lat="46.91442" lon="-2.04208">
        <ele>6.5</ele>
        <time>2020-06-04T13:24:36Z</time>
      </trkpt>
      <trkpt lat="46.91446" lon="-2.04206">
        <ele>6.5</ele>
        <time>2020-06-04T13:24:37Z</time>
      </trkpt>
      <trkpt lat="46.9145" lon="-2.04205">
        <ele>6.4</ele>
        <time>2020-06-04T13:24:38Z</time>
      </trkpt>
      <trkpt lat="46.91453" lon="-2.04203">
        <ele>6.4</ele>
        <time>2020-06-04T13:24:39Z</time>
      </trkpt>
      <trkpt lat="46.91458" lon="-2.04201">
        <ele>6.3</ele>
        <time>2020-06-04T13:24:40Z</time>
      </trkpt>
      <trkpt lat="46.91462" lon="-2.04197">
        <ele>6.3</ele>
        <time>2020-06-04T13:24:41Z</time>
      </trkpt>
      <trkpt lat="46.91466" lon="-2.04194">
        <ele>6.2</ele>
        <time>2020-06-04T13:24:42Z</time>
      </trkpt>
      <trkpt lat="46.91471" lon="-2.0419">
        <ele>6.2</ele>
        <time>2020-06-04T13:24:43Z</time>
      </trkpt>
      <trkpt lat="46.91475" lon="-2.04186">
        <ele>6.1</ele>
        <time>2020-06-04T13:24:44Z</time>
      </trkpt>
      <trkpt lat="46.91479" lon="-2.04184">
        <ele>6.1</ele>
        <time>2020-06-04T13:24:45Z</time>
      </trkpt>
      <trkpt lat="46.91483" lon="-2.04182">
        <ele>6.1</ele>
        <time>2020-06-04T13:24:46Z</time>
      </trkpt>
      <trkpt lat="46.91486" lon="-2.0418">
        <ele>6.1</ele>
        <time>2020-06-04T13:24:47Z</time>
      </trkpt>
      <trkpt lat="46.91491" lon="-2.04177">
        <ele>6.1</ele>
        <time>2020-06-04T13:24:48Z</time>
      </trkpt>
      <trkpt lat="46.91495" lon="-2.04171">
        <ele>6.3</ele>
        <time>2020-06-04T13:24:49Z</time>
      </trkpt>
      <trkpt lat="46.91498" lon="-2.04168">
        <ele>6.4</ele>
        <time>2020-06-04T13:24:50Z</time>
      </trkpt>
      <trkpt lat="46.91502" lon="-2.04166">
        <ele>6.6</ele>
        <time>2020-06-04T13:24:51Z</time>
      </trkpt>
      <trkpt lat="46.91505" lon="-2.04164">
        <ele>6.8</ele>
        <time>2020-06-04T13:24:52Z</time>
      </trkpt>
      <trkpt lat="46.91509" lon="-2.04164">
        <ele>6.8</ele>
        <time>2020-06-04T13:24:53Z</time>
      </trkpt>
      <trkpt lat="46.91511" lon="-2.04167">
        <ele>6.9</ele>
        <time>2020-06-04T13:24:54Z</time>
      </trkpt>
      <trkpt lat="46.91513" lon="-2.04172">
        <ele>6.9</ele>
        <time>2020-06-04T13:24:55Z</time>
      </trkpt>
      <trkpt lat="46.91514" lon="-2.04176">
        <ele>6.9</ele>
        <time>2020-06-04T13:24:56Z</time>
      </trkpt>
      <trkpt lat="46.91516" lon="-2.04179">
        <ele>6.9</ele>
        <time>2020-06-04T13:24:57Z</time>
      </trkpt>
      <trkpt lat="46.91519" lon="-2.04183">
        <ele>6.9</ele>
        <time>2020-06-04T13:24:58Z</time>
      </trkpt>
      <trkpt lat="46.91522" lon="-2.04188">
        <ele>6.9</ele>
        <time>2020-06-04T13:24:59Z</time>
      </trkpt>
      <trkpt lat="46.91525" lon="-2.04191">
        <ele>6.9</ele>
        <time>2020-06-04T13:25:00Z</time>
      </trkpt>
      <trkpt lat="46.91529" lon="-2.04194">
        <ele>7</ele>
        <time>2020-06-04T13:25:01Z</time>
      </trkpt>
      <trkpt lat="46.91531" lon="-2.04198">
        <ele>7</ele>
        <time>2020-06-04T13:25:02Z</time>
      </trkpt>
      <trkpt lat="46.91535" lon="-2.04201">
        <ele>7.1</ele>
        <time>2020-06-04T13:25:03Z</time>
      </trkpt>
      <trkpt lat="46.91537" lon="-2.04206">
        <ele>7.1</ele>
        <time>2020-06-04T13:25:04Z</time>
      </trkpt>
      <trkpt lat="46.9154" lon="-2.04211">
        <ele>7.2</ele>
        <time>2020-06-04T13:25:05Z</time>
      </trkpt>
      <trkpt lat="46.91543" lon="-2.04214">
        <ele>7.2</ele>
        <time>2020-06-04T13:25:06Z</time>
      </trkpt>
      <trkpt lat="46.91546" lon="-2.04218">
        <ele>7.3</ele>
        <time>2020-06-04T13:25:07Z</time>
      </trkpt>
      <trkpt lat="46.91548" lon="-2.04224">
        <ele>7.3</ele>
        <time>2020-06-04T13:25:08Z</time>
      </trkpt>
      <trkpt lat="46.91551" lon="-2.04231">
        <ele>7.4</ele>
        <time>2020-06-04T13:25:09Z</time>
      </trkpt>
      <trkpt lat="46.91554" lon="-2.04236">
        <ele>7.4</ele>
        <time>2020-06-04T13:25:10Z</time>
      </trkpt>
      <trkpt lat="46.91556" lon="-2.04243">
        <ele>7.5</ele>
        <time>2020-06-04T13:25:11Z</time>
      </trkpt>
      <trkpt lat="46.91558" lon="-2.0425">
        <ele>7.5</ele>
        <time>2020-06-04T13:25:12Z</time>
      </trkpt>
      <trkpt lat="46.9156" lon="-2.04256">
        <ele>7.5</ele>
        <time>2020-06-04T13:25:13Z</time>
      </trkpt>
      <trkpt lat="46.91562" lon="-2.04262">
        <ele>7.6</ele>
        <time>2020-06-04T13:25:14Z</time>
      </trkpt>
      <trkpt lat="46.91564" lon="-2.04268">
        <ele>7.6</ele>
        <time>2020-06-04T13:25:15Z</time>
      </trkpt>
      <trkpt lat="46.91565" lon="-2.04276">
        <ele>7.6</ele>
        <time>2020-06-04T13:25:16Z</time>
      </trkpt>
      <trkpt lat="46.91567" lon="-2.04281">
        <ele>7.6</ele>
        <time>2020-06-04T13:25:17Z</time>
      </trkpt>
      <trkpt lat="46.91569" lon="-2.04288">
        <ele>7.7</ele>
        <time>2020-06-04T13:25:18Z</time>
      </trkpt>
      <trkpt lat="46.91571" lon="-2.04294">
        <ele>7.7</ele>
        <time>2020-06-04T13:25:19Z</time>
      </trkpt>
      <trkpt lat="46.91573" lon="-2.04299">
        <ele>7.6</ele>
        <time>2020-06-04T13:25:20Z</time>
      </trkpt>
      <trkpt lat="46.91574" lon="-2.04305">
        <ele>7.6</ele>
        <time>2020-06-04T13:25:21Z</time>
      </trkpt>
      <trkpt lat="46.91577" lon="-2.04313">
        <ele>7.5</ele>
        <time>2020-06-04T13:25:22Z</time>
      </trkpt>
      <trkpt lat="46.91579" lon="-2.04317">
        <ele>7.5</ele>
        <time>2020-06-04T13:25:23Z</time>
      </trkpt>
      <trkpt lat="46.91581" lon="-2.04322">
        <ele>7.5</ele>
        <time>2020-06-04T13:25:24Z</time>
      </trkpt>
      <trkpt lat="46.91583" lon="-2.04327">
        <ele>7.4</ele>
        <time>2020-06-04T13:25:25Z</time>
      </trkpt>
      <trkpt lat="46.91586" lon="-2.04333">
        <ele>7.4</ele>
        <time>2020-06-04T13:25:26Z</time>
      </trkpt>
      <trkpt lat="46.91588" lon="-2.04338">
        <ele>7.3</ele>
        <time>2020-06-04T13:25:27Z</time>
      </trkpt>
      <trkpt lat="46.91591" lon="-2.04342">
        <ele>7.3</ele>
        <time>2020-06-04T13:25:28Z</time>
      </trkpt>
      <trkpt lat="46.91594" lon="-2.04345">
        <ele>7.2</ele>
        <time>2020-06-04T13:25:29Z</time>
      </trkpt>
      <trkpt lat="46.91595" lon="-2.04349">
        <ele>7.1</ele>
        <time>2020-06-04T13:25:30Z</time>
      </trkpt>
      <trkpt lat="46.91596" lon="-2.0435">
        <ele>7.1</ele>
        <time>2020-06-04T13:25:31Z</time>
      </trkpt>
      <trkpt lat="46.91598" lon="-2.04354">
        <ele>7</ele>
        <time>2020-06-04T13:25:32Z</time>
      </trkpt>
      <trkpt lat="46.91599" lon="-2.04358">
        <ele>6.9</ele>
        <time>2020-06-04T13:25:33Z</time>
      </trkpt>
      <trkpt lat="46.916" lon="-2.0436">
        <ele>6.9</ele>
        <time>2020-06-04T13:25:34Z</time>
      </trkpt>
      <trkpt lat="46.91602" lon="-2.04363">
        <ele>6.8</ele>
        <time>2020-06-04T13:25:35Z</time>
      </trkpt>
      <trkpt lat="46.91606" lon="-2.04365">
        <ele>6.7</ele>
        <time>2020-06-04T13:25:36Z</time>
      </trkpt>
      <trkpt lat="46.91608" lon="-2.04369">
        <ele>6.6</ele>
        <time>2020-06-04T13:25:37Z</time>
      </trkpt>
      <trkpt lat="46.91611" lon="-2.04374">
        <ele>6.6</ele>
        <time>2020-06-04T13:25:38Z</time>
      </trkpt>
      <trkpt lat="46.91613" lon="-2.0438">
        <ele>6.5</ele>
        <time>2020-06-04T13:25:39Z</time>
      </trkpt>
      <trkpt lat="46.91615" lon="-2.04384">
        <ele>6.5</ele>
        <time>2020-06-04T13:25:40Z</time>
      </trkpt>
      <trkpt lat="46.91618" lon="-2.04389">
        <ele>6.4</ele>
        <time>2020-06-04T13:25:41Z</time>
      </trkpt>
      <trkpt lat="46.91621" lon="-2.04393">
        <ele>6.2</ele>
        <time>2020-06-04T13:25:42Z</time>
      </trkpt>
      <trkpt lat="46.91624" lon="-2.04399">
        <ele>6.1</ele>
        <time>2020-06-04T13:25:43Z</time>
      </trkpt>
      <trkpt lat="46.91626" lon="-2.04403">
        <ele>6</ele>
        <time>2020-06-04T13:25:44Z</time>
      </trkpt>
      <trkpt lat="46.91631" lon="-2.04407">
        <ele>5.9</ele>
        <time>2020-06-04T13:25:45Z</time>
      </trkpt>
      <trkpt lat="46.91635" lon="-2.0441">
        <ele>5.9</ele>
        <time>2020-06-04T13:25:46Z</time>
      </trkpt>
      <trkpt lat="46.91639" lon="-2.04413">
        <ele>5.8</ele>
        <time>2020-06-04T13:25:47Z</time>
      </trkpt>
      <trkpt lat="46.91642" lon="-2.04417">
        <ele>5.7</ele>
        <time>2020-06-04T13:25:48Z</time>
      </trkpt>
      <trkpt lat="46.91646" lon="-2.04421">
        <ele>5.6</ele>
        <time>2020-06-04T13:25:49Z</time>
      </trkpt>
      <trkpt lat="46.91649" lon="-2.04425">
        <ele>5.6</ele>
        <time>2020-06-04T13:25:50Z</time>
      </trkpt>
      <trkpt lat="46.91653" lon="-2.04429">
        <ele>5.6</ele>
        <time>2020-06-04T13:25:51Z</time>
      </trkpt>
      <trkpt lat="46.91656" lon="-2.04435">
        <ele>5.5</ele>
        <time>2020-06-04T13:25:52Z</time>
      </trkpt>
      <trkpt lat="46.9166" lon="-2.04441">
        <ele>5.5</ele>
        <time>2020-06-04T13:25:53Z</time>
      </trkpt>
      <trkpt lat="46.91663" lon="-2.04445">
        <ele>5.5</ele>
        <time>2020-06-04T13:25:54Z</time>
      </trkpt>
      <trkpt lat="46.91667" lon="-2.0445">
        <ele>5.4</ele>
        <time>2020-06-04T13:25:55Z</time>
      </trkpt>
      <trkpt lat="46.91671" lon="-2.04454">
        <ele>5.4</ele>
        <time>2020-06-04T13:25:56Z</time>
      </trkpt>
      <trkpt lat="46.91674" lon="-2.04457">
        <ele>5.3</ele>
        <time>2020-06-04T13:25:57Z</time>
      </trkpt>
      <trkpt lat="46.91679" lon="-2.0446">
        <ele>5.2</ele>
        <time>2020-06-04T13:25:58Z</time>
      </trkpt>
      <trkpt lat="46.91682" lon="-2.04465">
        <ele>5.2</ele>
        <time>2020-06-04T13:25:59Z</time>
      </trkpt>
      <trkpt lat="46.91684" lon="-2.04469">
        <ele>5.1</ele>
        <time>2020-06-04T13:26:00Z</time>
      </trkpt>
      <trkpt lat="46.91688" lon="-2.04474">
        <ele>5.1</ele>
        <time>2020-06-04T13:26:01Z</time>
      </trkpt>
      <trkpt lat="46.91691" lon="-2.0448">
        <ele>5</ele>
        <time>2020-06-04T13:26:02Z</time>
      </trkpt>
      <trkpt lat="46.91695" lon="-2.04484">
        <ele>5</ele>
        <time>2020-06-04T13:26:03Z</time>
      </trkpt>
      <trkpt lat="46.91699" lon="-2.04489">
        <ele>4.9</ele>
        <time>2020-06-04T13:26:04Z</time>
      </trkpt>
      <trkpt lat="46.91703" lon="-2.04493">
        <ele>4.9</ele>
        <time>2020-06-04T13:26:05Z</time>
      </trkpt>
      <trkpt lat="46.91706" lon="-2.04497">
        <ele>4.8</ele>
        <time>2020-06-04T13:26:06Z</time>
      </trkpt>
      <trkpt lat="46.91709" lon="-2.04503">
        <ele>4.8</ele>
        <time>2020-06-04T13:26:07Z</time>
      </trkpt>
      <trkpt lat="46.91712" lon="-2.04507">
        <ele>4.7</ele>
        <time>2020-06-04T13:26:08Z</time>
      </trkpt>
      <trkpt lat="46.91715" lon="-2.04512">
        <ele>4.7</ele>
        <time>2020-06-04T13:26:09Z</time>
      </trkpt>
      <trkpt lat="46.91719" lon="-2.04516">
        <ele>4.6</ele>
        <time>2020-06-04T13:26:10Z</time>
      </trkpt>
      <trkpt lat="46.91722" lon="-2.0452">
        <ele>4.6</ele>
        <time>2020-06-04T13:26:11Z</time>
      </trkpt>
      <trkpt lat="46.91726" lon="-2.04524">
        <ele>4.6</ele>
        <time>2020-06-04T13:26:12Z</time>
      </trkpt>
      <trkpt lat="46.9173" lon="-2.04529">
        <ele>4.5</ele>
        <time>2020-06-04T13:26:13Z</time>
      </trkpt>
      <trkpt lat="46.91732" lon="-2.04532">
        <ele>4.5</ele>
        <time>2020-06-04T13:26:14Z</time>
      </trkpt>
      <trkpt lat="46.91735" lon="-2.04536">
        <ele>4.5</ele>
        <time>2020-06-04T13:26:15Z</time>
      </trkpt>
      <trkpt lat="46.91739" lon="-2.04539">
        <ele>4.5</ele>
        <time>2020-06-04T13:26:16Z</time>
      </trkpt>
      <trkpt lat="46.91741" lon="-2.04543">
        <ele>4.4</ele>
        <time>2020-06-04T13:26:17Z</time>
      </trkpt>
      <trkpt lat="46.91744" lon="-2.04547">
        <ele>4.4</ele>
        <time>2020-06-04T13:26:18Z</time>
      </trkpt>
      <trkpt lat="46.91748" lon="-2.0455">
        <ele>4.4</ele>
        <time>2020-06-04T13:26:19Z</time>
      </trkpt>
      <trkpt lat="46.91751" lon="-2.04553">
        <ele>4.4</ele>
        <time>2020-06-04T13:26:20Z</time>
      </trkpt>
      <trkpt lat="46.91753" lon="-2.04556">
        <ele>4.4</ele>
        <time>2020-06-04T13:26:21Z</time>
      </trkpt>
      <trkpt lat="46.91755" lon="-2.04557">
        <ele>4.4</ele>
        <time>2020-06-04T13:26:22Z</time>
      </trkpt>
      <trkpt lat="46.91756" lon="-2.04558">
        <ele>4.4</ele>
        <time>2020-06-04T13:26:23Z</time>
      </trkpt>
      <trkpt lat="46.91757" lon="-2.04558">
        <ele>4.4</ele>
        <time>2020-06-04T13:26:24Z</time>
      </trkpt>
      <trkpt lat="46.91757" lon="-2.04558">
        <ele>4.4</ele>
        <time>2020-06-04T13:26:25Z</time>
      </trkpt>
      <trkpt lat="46.91758" lon="-2.04557">
        <ele>4.4</ele>
        <time>2020-06-04T13:26:26Z</time>
      </trkpt>
      <trkpt lat="46.91757" lon="-2.04557">
        <ele>4.4</ele>
        <time>2020-06-04T13:26:27Z</time>
      </trkpt>
      <trkpt lat="46.91756" lon="-2.04557">
        <ele>4.4</ele>
        <time>2020-06-04T13:26:28Z</time>
      </trkpt>
      <trkpt lat="46.91755" lon="-2.04554">
        <ele>4.4</ele>
        <time>2020-06-04T13:26:29Z</time>
      </trkpt>
      <trkpt lat="46.91755" lon="-2.04554">
        <ele>4.4</ele>
        <time>2020-06-04T13:26:30Z</time>
      </trkpt>
      <trkpt lat="46.91756" lon="-2.04554">
        <ele>4.4</ele>
        <time>2020-06-04T13:26:31Z</time>
      </trkpt>
      <trkpt lat="46.91756" lon="-2.04555">
        <ele>4.4</ele>
        <time>2020-06-04T13:26:32Z</time>
      </trkpt>
      <trkpt lat="46.91757" lon="-2.04555">
        <ele>4.4</ele>
        <time>2020-06-04T13:26:33Z</time>
      </trkpt>
      <trkpt lat="46.91757" lon="-2.04555">
        <ele>4.4</ele>
        <time>2020-06-04T13:26:34Z</time>
      </trkpt>
      <trkpt lat="46.91758" lon="-2.04556">
        <ele>4.4</ele>
        <time>2020-06-04T13:26:35Z</time>
      </trkpt>
      <trkpt lat="46.91759" lon="-2.04556">
        <ele>4.4</ele>
        <time>2020-06-04T13:26:36Z</time>
      </trkpt>
      <trkpt lat="46.91759" lon="-2.04556">
        <ele>4.4</ele>
        <time>2020-06-04T13:26:37Z</time>
      </trkpt>
      <trkpt lat="46.91761" lon="-2.0456">
        <ele>4.3</ele>
        <time>2020-06-04T13:26:38Z</time>
      </trkpt>
      <trkpt lat="46.91763" lon="-2.04563">
        <ele>4.3</ele>
        <time>2020-06-04T13:26:39Z</time>
      </trkpt>
      <trkpt lat="46.91766" lon="-2.04568">
        <ele>4.2</ele>
        <time>2020-06-04T13:26:40Z</time>
      </trkpt>
      <trkpt lat="46.91769" lon="-2.04573">
        <ele>4.2</ele>
        <time>2020-06-04T13:26:41Z</time>
      </trkpt>
      <trkpt lat="46.91771" lon="-2.04579">
        <ele>4.1</ele>
        <time>2020-06-04T13:26:42Z</time>
      </trkpt>
      <trkpt lat="46.91774" lon="-2.04581">
        <ele>4.1</ele>
        <time>2020-06-04T13:26:43Z</time>
      </trkpt>
      <trkpt lat="46.91778" lon="-2.04586">
        <ele>4</ele>
        <time>2020-06-04T13:26:44Z</time>
      </trkpt>
      <trkpt lat="46.91781" lon="-2.04591">
        <ele>3.9</ele>
        <time>2020-06-04T13:26:45Z</time>
      </trkpt>
      <trkpt lat="46.91784" lon="-2.04597">
        <ele>3.8</ele>
        <time>2020-06-04T13:26:46Z</time>
      </trkpt>
      <trkpt lat="46.91787" lon="-2.04602">
        <ele>3.7</ele>
        <time>2020-06-04T13:26:47Z</time>
      </trkpt>
      <trkpt lat="46.9179" lon="-2.04606">
        <ele>3.6</ele>
        <time>2020-06-04T13:26:48Z</time>
      </trkpt>
      <trkpt lat="46.91794" lon="-2.0461">
        <ele>3.5</ele>
        <time>2020-06-04T13:26:49Z</time>
      </trkpt>
      <trkpt lat="46.91797" lon="-2.04614">
        <ele>3.4</ele>
        <time>2020-06-04T13:26:50Z</time>
      </trkpt>
      <trkpt lat="46.91801" lon="-2.04619">
        <ele>3.3</ele>
        <time>2020-06-04T13:26:51Z</time>
      </trkpt>
      <trkpt lat="46.91805" lon="-2.04624">
        <ele>3.1</ele>
        <time>2020-06-04T13:26:52Z</time>
      </trkpt>
      <trkpt lat="46.91808" lon="-2.0463">
        <ele>3</ele>
        <time>2020-06-04T13:26:53Z</time>
      </trkpt>
      <trkpt lat="46.91812" lon="-2.04636">
        <ele>2.8</ele>
        <time>2020-06-04T13:26:54Z</time>
      </trkpt>
      <trkpt lat="46.91816" lon="-2.0464">
        <ele>2.7</ele>
        <time>2020-06-04T13:26:55Z</time>
      </trkpt>
      <trkpt lat="46.9182" lon="-2.04645">
        <ele>2.6</ele>
        <time>2020-06-04T13:26:56Z</time>
      </trkpt>
      <trkpt lat="46.91824" lon="-2.0465">
        <ele>2.5</ele>
        <time>2020-06-04T13:26:57Z</time>
      </trkpt>
      <trkpt lat="46.91828" lon="-2.04655">
        <ele>2.4</ele>
        <time>2020-06-04T13:26:58Z</time>
      </trkpt>
      <trkpt lat="46.91832" lon="-2.0466">
        <ele>2.3</ele>
        <time>2020-06-04T13:26:59Z</time>
      </trkpt>
      <trkpt lat="46.91836" lon="-2.04665">
        <ele>2.2</ele>
        <time>2020-06-04T13:27:00Z</time>
      </trkpt>
      <trkpt lat="46.91839" lon="-2.0467">
        <ele>2.1</ele>
        <time>2020-06-04T13:27:01Z</time>
      </trkpt>
      <trkpt lat="46.91844" lon="-2.04676">
        <ele>2.1</ele>
        <time>2020-06-04T13:27:02Z</time>
      </trkpt>
      <trkpt lat="46.91849" lon="-2.0468">
        <ele>2.1</ele>
        <time>2020-06-04T13:27:03Z</time>
      </trkpt>
      <trkpt lat="46.91853" lon="-2.04686">
        <ele>2.1</ele>
        <time>2020-06-04T13:27:04Z</time>
      </trkpt>
      <trkpt lat="46.91857" lon="-2.04691">
        <ele>2.1</ele>
        <time>2020-06-04T13:27:05Z</time>
      </trkpt>
      <trkpt lat="46.91862" lon="-2.04694">
        <ele>2.1</ele>
        <time>2020-06-04T13:27:06Z</time>
      </trkpt>
      <trkpt lat="46.91867" lon="-2.04699">
        <ele>2.1</ele>
        <time>2020-06-04T13:27:07Z</time>
      </trkpt>
      <trkpt lat="46.91872" lon="-2.04703">
        <ele>2.1</ele>
        <time>2020-06-04T13:27:08Z</time>
      </trkpt>
      <trkpt lat="46.91876" lon="-2.04708">
        <ele>2.1</ele>
        <time>2020-06-04T13:27:09Z</time>
      </trkpt>
      <trkpt lat="46.91881" lon="-2.04712">
        <ele>2.1</ele>
        <time>2020-06-04T13:27:10Z</time>
      </trkpt>
      <trkpt lat="46.91886" lon="-2.04717">
        <ele>2.1</ele>
        <time>2020-06-04T13:27:11Z</time>
      </trkpt>
      <trkpt lat="46.9189" lon="-2.04721">
        <ele>2.1</ele>
        <time>2020-06-04T13:27:12Z</time>
      </trkpt>
      <trkpt lat="46.91894" lon="-2.04725">
        <ele>2.1</ele>
        <time>2020-06-04T13:27:13Z</time>
      </trkpt>
      <trkpt lat="46.91898" lon="-2.0473">
        <ele>2.2</ele>
        <time>2020-06-04T13:27:14Z</time>
      </trkpt>
      <trkpt lat="46.91902" lon="-2.04734">
        <ele>2.2</ele>
        <time>2020-06-04T13:27:15Z</time>
      </trkpt>
      <trkpt lat="46.91906" lon="-2.04738">
        <ele>2.2</ele>
        <time>2020-06-04T13:27:16Z</time>
      </trkpt>
      <trkpt lat="46.91911" lon="-2.04743">
        <ele>2.2</ele>
        <time>2020-06-04T13:27:17Z</time>
      </trkpt>
      <trkpt lat="46.91915" lon="-2.04748">
        <ele>2.2</ele>
        <time>2020-06-04T13:27:18Z</time>
      </trkpt>
      <trkpt lat="46.91918" lon="-2.04752">
        <ele>2.2</ele>
        <time>2020-06-04T13:27:19Z</time>
      </trkpt>
      <trkpt lat="46.91922" lon="-2.04757">
        <ele>2.2</ele>
        <time>2020-06-04T13:27:20Z</time>
      </trkpt>
      <trkpt lat="46.91926" lon="-2.04762">
        <ele>2.2</ele>
        <time>2020-06-04T13:27:21Z</time>
      </trkpt>
      <trkpt lat="46.9193" lon="-2.04767">
        <ele>2.2</ele>
        <time>2020-06-04T13:27:22Z</time>
      </trkpt>
      <trkpt lat="46.91934" lon="-2.04772">
        <ele>2.2</ele>
        <time>2020-06-04T13:27:23Z</time>
      </trkpt>
      <trkpt lat="46.91937" lon="-2.04777">
        <ele>2.2</ele>
        <time>2020-06-04T13:27:24Z</time>
      </trkpt>
      <trkpt lat="46.91941" lon="-2.04782">
        <ele>2.3</ele>
        <time>2020-06-04T13:27:25Z</time>
      </trkpt>
      <trkpt lat="46.91944" lon="-2.04787">
        <ele>2.3</ele>
        <time>2020-06-04T13:27:26Z</time>
      </trkpt>
      <trkpt lat="46.91947" lon="-2.04792">
        <ele>2.3</ele>
        <time>2020-06-04T13:27:27Z</time>
      </trkpt>
      <trkpt lat="46.91951" lon="-2.04797">
        <ele>2.3</ele>
        <time>2020-06-04T13:27:28Z</time>
      </trkpt>
      <trkpt lat="46.91955" lon="-2.04801">
        <ele>2.3</ele>
        <time>2020-06-04T13:27:29Z</time>
      </trkpt>
      <trkpt lat="46.91959" lon="-2.04805">
        <ele>2.2</ele>
        <time>2020-06-04T13:27:30Z</time>
      </trkpt>
      <trkpt lat="46.91963" lon="-2.04809">
        <ele>2.2</ele>
        <time>2020-06-04T13:27:31Z</time>
      </trkpt>
      <trkpt lat="46.91967" lon="-2.04812">
        <ele>2.2</ele>
        <time>2020-06-04T13:27:32Z</time>
      </trkpt>
      <trkpt lat="46.91973" lon="-2.04813">
        <ele>2.2</ele>
        <time>2020-06-04T13:27:33Z</time>
      </trkpt>
      <trkpt lat="46.91978" lon="-2.04812">
        <ele>2.1</ele>
        <time>2020-06-04T13:27:34Z</time>
      </trkpt>
      <trkpt lat="46.91983" lon="-2.0481">
        <ele>2.1</ele>
        <time>2020-06-04T13:27:35Z</time>
      </trkpt>
      <trkpt lat="46.91988" lon="-2.04808">
        <ele>2.1</ele>
        <time>2020-06-04T13:27:36Z</time>
      </trkpt>
      <trkpt lat="46.91992" lon="-2.04809">
        <ele>2.1</ele>
        <time>2020-06-04T13:27:37Z</time>
      </trkpt>
      <trkpt lat="46.91996" lon="-2.04811">
        <ele>2.1</ele>
        <time>2020-06-04T13:27:38Z</time>
      </trkpt>
      <trkpt lat="46.91997" lon="-2.04817">
        <ele>2.1</ele>
        <time>2020-06-04T13:27:39Z</time>
      </trkpt>
      <trkpt lat="46.91997" lon="-2.04822">
        <ele>2.1</ele>
        <time>2020-06-04T13:27:40Z</time>
      </trkpt>
      <trkpt lat="46.91996" lon="-2.04828">
        <ele>2.1</ele>
        <time>2020-06-04T13:27:41Z</time>
      </trkpt>
      <trkpt lat="46.91996" lon="-2.04833">
        <ele>2.1</ele>
        <time>2020-06-04T13:27:42Z</time>
      </trkpt>
      <trkpt lat="46.91995" lon="-2.0484">
        <ele>2.1</ele>
        <time>2020-06-04T13:27:43Z</time>
      </trkpt>
      <trkpt lat="46.91993" lon="-2.04845">
        <ele>2.1</ele>
        <time>2020-06-04T13:27:44Z</time>
      </trkpt>
      <trkpt lat="46.91992" lon="-2.04851">
        <ele>2.1</ele>
        <time>2020-06-04T13:27:45Z</time>
      </trkpt>
      <trkpt lat="46.9199" lon="-2.04858">
        <ele>2.1</ele>
        <time>2020-06-04T13:27:46Z</time>
      </trkpt>
      <trkpt lat="46.91988" lon="-2.04864">
        <ele>2.1</ele>
        <time>2020-06-04T13:27:47Z</time>
      </trkpt>
      <trkpt lat="46.91986" lon="-2.04872">
        <ele>2.2</ele>
        <time>2020-06-04T13:27:48Z</time>
      </trkpt>
      <trkpt lat="46.91986" lon="-2.04878">
        <ele>2.2</ele>
        <time>2020-06-04T13:27:49Z</time>
      </trkpt>
      <trkpt lat="46.91987" lon="-2.04885">
        <ele>2.2</ele>
        <time>2020-06-04T13:27:50Z</time>
      </trkpt>
      <trkpt lat="46.91988" lon="-2.04891">
        <ele>2.2</ele>
        <time>2020-06-04T13:27:51Z</time>
      </trkpt>
      <trkpt lat="46.9199" lon="-2.04897">
        <ele>2.3</ele>
        <time>2020-06-04T13:27:52Z</time>
      </trkpt>
      <trkpt lat="46.91993" lon="-2.04903">
        <ele>2.3</ele>
        <time>2020-06-04T13:27:53Z</time>
      </trkpt>
      <trkpt lat="46.91996" lon="-2.04907">
        <ele>2.3</ele>
        <time>2020-06-04T13:27:54Z</time>
      </trkpt>
      <trkpt lat="46.92" lon="-2.04911">
        <ele>2.3</ele>
        <time>2020-06-04T13:27:55Z</time>
      </trkpt>
      <trkpt lat="46.92004" lon="-2.04914">
        <ele>2.3</ele>
        <time>2020-06-04T13:27:56Z</time>
      </trkpt>
      <trkpt lat="46.92008" lon="-2.04915">
        <ele>2.3</ele>
        <time>2020-06-04T13:27:57Z</time>
      </trkpt>
      <trkpt lat="46.92012" lon="-2.04918">
        <ele>2.3</ele>
        <time>2020-06-04T13:27:58Z</time>
      </trkpt>
      <trkpt lat="46.92017" lon="-2.0492">
        <ele>2.3</ele>
        <time>2020-06-04T13:27:59Z</time>
      </trkpt>
      <trkpt lat="46.92022" lon="-2.04923">
        <ele>2.3</ele>
        <time>2020-06-04T13:28:00Z</time>
      </trkpt>
      <trkpt lat="46.92025" lon="-2.04925">
        <ele>2.3</ele>
        <time>2020-06-04T13:28:01Z</time>
      </trkpt>
      <trkpt lat="46.9203" lon="-2.04928">
        <ele>2.3</ele>
        <time>2020-06-04T13:28:02Z</time>
      </trkpt>
      <trkpt lat="46.92035" lon="-2.0493">
        <ele>2.4</ele>
        <time>2020-06-04T13:28:03Z</time>
      </trkpt>
      <trkpt lat="46.92039" lon="-2.04934">
        <ele>2.4</ele>
        <time>2020-06-04T13:28:04Z</time>
      </trkpt>
      <trkpt lat="46.92043" lon="-2.04939">
        <ele>2.4</ele>
        <time>2020-06-04T13:28:05Z</time>
      </trkpt>
      <trkpt lat="46.92046" lon="-2.04945">
        <ele>2.5</ele>
        <time>2020-06-04T13:28:06Z</time>
      </trkpt>
      <trkpt lat="46.92047" lon="-2.04952">
        <ele>2.5</ele>
        <time>2020-06-04T13:28:07Z</time>
      </trkpt>
      <trkpt lat="46.92045" lon="-2.04957">
        <ele>2.5</ele>
        <time>2020-06-04T13:28:08Z</time>
      </trkpt>
      <trkpt lat="46.92042" lon="-2.04962">
        <ele>2.6</ele>
        <time>2020-06-04T13:28:09Z</time>
      </trkpt>
      <trkpt lat="46.9204" lon="-2.04968">
        <ele>2.6</ele>
        <time>2020-06-04T13:28:10Z</time>
      </trkpt>
      <trkpt lat="46.92037" lon="-2.04973">
        <ele>2.6</ele>
        <time>2020-06-04T13:28:11Z</time>
      </trkpt>
      <trkpt lat="46.92035" lon="-2.04979">
        <ele>2.6</ele>
        <time>2020-06-04T13:28:12Z</time>
      </trkpt>
      <trkpt lat="46.92033" lon="-2.04984">
        <ele>2.6</ele>
        <time>2020-06-04T13:28:13Z</time>
      </trkpt>
      <trkpt lat="46.92031" lon="-2.04989">
        <ele>2.6</ele>
        <time>2020-06-04T13:28:14Z</time>
      </trkpt>
      <trkpt lat="46.92029" lon="-2.04993">
        <ele>2.6</ele>
        <time>2020-06-04T13:28:15Z</time>
      </trkpt>
      <trkpt lat="46.92027" lon="-2.04998">
        <ele>2.6</ele>
        <time>2020-06-04T13:28:16Z</time>
      </trkpt>
      <trkpt lat="46.92024" lon="-2.05002">
        <ele>2.6</ele>
        <time>2020-06-04T13:28:17Z</time>
      </trkpt>
      <trkpt lat="46.9202" lon="-2.05005">
        <ele>2.6</ele>
        <time>2020-06-04T13:28:18Z</time>
      </trkpt>
      <trkpt lat="46.92017" lon="-2.05009">
        <ele>2.6</ele>
        <time>2020-06-04T13:28:19Z</time>
      </trkpt>
      <trkpt lat="46.92014" lon="-2.05014">
        <ele>2.6</ele>
        <time>2020-06-04T13:28:20Z</time>
      </trkpt>
      <trkpt lat="46.9201" lon="-2.05018">
        <ele>2.7</ele>
        <time>2020-06-04T13:28:21Z</time>
      </trkpt>
      <trkpt lat="46.92006" lon="-2.05022">
        <ele>2.7</ele>
        <time>2020-06-04T13:28:22Z</time>
      </trkpt>
      <trkpt lat="46.92002" lon="-2.05027">
        <ele>2.7</ele>
        <time>2020-06-04T13:28:23Z</time>
      </trkpt>
      <trkpt lat="46.91998" lon="-2.05032">
        <ele>2.7</ele>
        <time>2020-06-04T13:28:24Z</time>
      </trkpt>
      <trkpt lat="46.91995" lon="-2.05037">
        <ele>2.7</ele>
        <time>2020-06-04T13:28:25Z</time>
      </trkpt>
      <trkpt lat="46.91992" lon="-2.05042">
        <ele>2.8</ele>
        <time>2020-06-04T13:28:26Z</time>
      </trkpt>
      <trkpt lat="46.9199" lon="-2.05048">
        <ele>2.8</ele>
        <time>2020-06-04T13:28:27Z</time>
      </trkpt>
      <trkpt lat="46.91987" lon="-2.05055">
        <ele>2.7</ele>
        <time>2020-06-04T13:28:28Z</time>
      </trkpt>
      <trkpt lat="46.91985" lon="-2.05062">
        <ele>2.7</ele>
        <time>2020-06-04T13:28:29Z</time>
      </trkpt>
      <trkpt lat="46.91983" lon="-2.0507">
        <ele>2.7</ele>
        <time>2020-06-04T13:28:30Z</time>
      </trkpt>
      <trkpt lat="46.91982" lon="-2.05075">
        <ele>2.7</ele>
        <time>2020-06-04T13:28:31Z</time>
      </trkpt>
      <trkpt lat="46.9198" lon="-2.05083">
        <ele>2.6</ele>
        <time>2020-06-04T13:28:32Z</time>
      </trkpt>
      <trkpt lat="46.91978" lon="-2.05088">
        <ele>2.6</ele>
        <time>2020-06-04T13:28:33Z</time>
      </trkpt>
      <trkpt lat="46.91977" lon="-2.05093">
        <ele>2.6</ele>
        <time>2020-06-04T13:28:34Z</time>
      </trkpt>
      <trkpt lat="46.91975" lon="-2.05098">
        <ele>2.6</ele>
        <time>2020-06-04T13:28:35Z</time>
      </trkpt>
      <trkpt lat="46.91972" lon="-2.05103">
        <ele>2.6</ele>
        <time>2020-06-04T13:28:36Z</time>
      </trkpt>
      <trkpt lat="46.9197" lon="-2.05111">
        <ele>2.5</ele>
        <time>2020-06-04T13:28:37Z</time>
      </trkpt>
      <trkpt lat="46.91968" lon="-2.05116">
        <ele>2.5</ele>
        <time>2020-06-04T13:28:38Z</time>
      </trkpt>
      <trkpt lat="46.91966" lon="-2.05121">
        <ele>2.5</ele>
        <time>2020-06-04T13:28:39Z</time>
      </trkpt>
      <trkpt lat="46.91962" lon="-2.05125">
        <ele>2.5</ele>
        <time>2020-06-04T13:28:40Z</time>
      </trkpt>
      <trkpt lat="46.91959" lon="-2.05129">
        <ele>2.5</ele>
        <time>2020-06-04T13:28:41Z</time>
      </trkpt>
      <trkpt lat="46.91954" lon="-2.05129">
        <ele>2.5</ele>
        <time>2020-06-04T13:28:42Z</time>
      </trkpt>
      <trkpt lat="46.9195" lon="-2.05129">
        <ele>2.5</ele>
        <time>2020-06-04T13:28:43Z</time>
      </trkpt>
      <trkpt lat="46.91945" lon="-2.05129">
        <ele>2.5</ele>
        <time>2020-06-04T13:28:44Z</time>
      </trkpt>
      <trkpt lat="46.91941" lon="-2.05128">
        <ele>2.5</ele>
        <time>2020-06-04T13:28:45Z</time>
      </trkpt>
      <trkpt lat="46.91937" lon="-2.05127">
        <ele>2.5</ele>
        <time>2020-06-04T13:28:46Z</time>
      </trkpt>
      <trkpt lat="46.91933" lon="-2.05126">
        <ele>2.6</ele>
        <time>2020-06-04T13:28:47Z</time>
      </trkpt>
      <trkpt lat="46.91929" lon="-2.05126">
        <ele>2.6</ele>
        <time>2020-06-04T13:28:48Z</time>
      </trkpt>
      <trkpt lat="46.91925" lon="-2.05125">
        <ele>2.6</ele>
        <time>2020-06-04T13:28:49Z</time>
      </trkpt>
      <trkpt lat="46.9192" lon="-2.05123">
        <ele>2.6</ele>
        <time>2020-06-04T13:28:50Z</time>
      </trkpt>
      <trkpt lat="46.91916" lon="-2.05121">
        <ele>2.6</ele>
        <time>2020-06-04T13:28:51Z</time>
      </trkpt>
      <trkpt lat="46.91913" lon="-2.05115">
        <ele>2.6</ele>
        <time>2020-06-04T13:28:52Z</time>
      </trkpt>
      <trkpt lat="46.91909" lon="-2.05113">
        <ele>2.6</ele>
        <time>2020-06-04T13:28:53Z</time>
      </trkpt>
      <trkpt lat="46.91904" lon="-2.05111">
        <ele>2.6</ele>
        <time>2020-06-04T13:28:54Z</time>
      </trkpt>
      <trkpt lat="46.919" lon="-2.05111">
        <ele>2.6</ele>
        <time>2020-06-04T13:28:55Z</time>
      </trkpt>
      <trkpt lat="46.91896" lon="-2.05113">
        <ele>2.6</ele>
        <time>2020-06-04T13:28:56Z</time>
      </trkpt>
      <trkpt lat="46.91895" lon="-2.05119">
        <ele>2.6</ele>
        <time>2020-06-04T13:28:57Z</time>
      </trkpt>
      <trkpt lat="46.91894" lon="-2.05126">
        <ele>2.6</ele>
        <time>2020-06-04T13:28:58Z</time>
      </trkpt>
      <trkpt lat="46.91891" lon="-2.05131">
        <ele>2.6</ele>
        <time>2020-06-04T13:28:59Z</time>
      </trkpt>
      <trkpt lat="46.9189" lon="-2.05135">
        <ele>2.6</ele>
        <time>2020-06-04T13:29:00Z</time>
      </trkpt>
      <trkpt lat="46.91887" lon="-2.05139">
        <ele>2.6</ele>
        <time>2020-06-04T13:29:01Z</time>
      </trkpt>
      <trkpt lat="46.91885" lon="-2.05144">
        <ele>2.6</ele>
        <time>2020-06-04T13:29:02Z</time>
      </trkpt>
      <trkpt lat="46.91883" lon="-2.05149">
        <ele>2.6</ele>
        <time>2020-06-04T13:29:03Z</time>
      </trkpt>
      <trkpt lat="46.9188" lon="-2.05154">
        <ele>2.6</ele>
        <time>2020-06-04T13:29:04Z</time>
      </trkpt>
      <trkpt lat="46.91878" lon="-2.05159">
        <ele>2.6</ele>
        <time>2020-06-04T13:29:05Z</time>
      </trkpt>
      <trkpt lat="46.91875" lon="-2.05163">
        <ele>2.6</ele>
        <time>2020-06-04T13:29:06Z</time>
      </trkpt>
      <trkpt lat="46.91872" lon="-2.05168">
        <ele>2.6</ele>
        <time>2020-06-04T13:29:07Z</time>
      </trkpt>
      <trkpt lat="46.91869" lon="-2.05172">
        <ele>2.6</ele>
        <time>2020-06-04T13:29:08Z</time>
      </trkpt>
      <trkpt lat="46.91866" lon="-2.05179">
        <ele>2.6</ele>
        <time>2020-06-04T13:29:09Z</time>
      </trkpt>
      <trkpt lat="46.91863" lon="-2.05185">
        <ele>2.6</ele>
        <time>2020-06-04T13:29:10Z</time>
      </trkpt>
      <trkpt lat="46.9186" lon="-2.0519">
        <ele>2.6</ele>
        <time>2020-06-04T13:29:11Z</time>
      </trkpt>
      <trkpt lat="46.91859" lon="-2.05197">
        <ele>2.6</ele>
        <time>2020-06-04T13:29:12Z</time>
      </trkpt>
      <trkpt lat="46.91858" lon="-2.05202">
        <ele>2.6</ele>
        <time>2020-06-04T13:29:13Z</time>
      </trkpt>
      <trkpt lat="46.91857" lon="-2.05208">
        <ele>2.6</ele>
        <time>2020-06-04T13:29:14Z</time>
      </trkpt>
      <trkpt lat="46.91856" lon="-2.05215">
        <ele>2.6</ele>
        <time>2020-06-04T13:29:15Z</time>
      </trkpt>
      <trkpt lat="46.91854" lon="-2.05222">
        <ele>2.6</ele>
        <time>2020-06-04T13:29:16Z</time>
      </trkpt>
      <trkpt lat="46.91853" lon="-2.05229">
        <ele>2.6</ele>
        <time>2020-06-04T13:29:17Z</time>
      </trkpt>
      <trkpt lat="46.91851" lon="-2.05236">
        <ele>2.6</ele>
        <time>2020-06-04T13:29:18Z</time>
      </trkpt>
      <trkpt lat="46.9185" lon="-2.05243">
        <ele>2.6</ele>
        <time>2020-06-04T13:29:19Z</time>
      </trkpt>
      <trkpt lat="46.91848" lon="-2.0525">
        <ele>2.6</ele>
        <time>2020-06-04T13:29:20Z</time>
      </trkpt>
      <trkpt lat="46.91846" lon="-2.05256">
        <ele>2.6</ele>
        <time>2020-06-04T13:29:21Z</time>
      </trkpt>
      <trkpt lat="46.91845" lon="-2.05262">
        <ele>2.6</ele>
        <time>2020-06-04T13:29:22Z</time>
      </trkpt>
      <trkpt lat="46.91843" lon="-2.05269">
        <ele>2.6</ele>
        <time>2020-06-04T13:29:23Z</time>
      </trkpt>
      <trkpt lat="46.91842" lon="-2.05274">
        <ele>2.6</ele>
        <time>2020-06-04T13:29:24Z</time>
      </trkpt>
      <trkpt lat="46.9184" lon="-2.0528">
        <ele>2.6</ele>
        <time>2020-06-04T13:29:25Z</time>
      </trkpt>
      <trkpt lat="46.91839" lon="-2.05288">
        <ele>2.6</ele>
        <time>2020-06-04T13:29:26Z</time>
      </trkpt>
      <trkpt lat="46.91837" lon="-2.05294">
        <ele>2.6</ele>
        <time>2020-06-04T13:29:27Z</time>
      </trkpt>
      <trkpt lat="46.91836" lon="-2.05301">
        <ele>2.6</ele>
        <time>2020-06-04T13:29:28Z</time>
      </trkpt>
      <trkpt lat="46.91835" lon="-2.05308">
        <ele>2.6</ele>
        <time>2020-06-04T13:29:29Z</time>
      </trkpt>
      <trkpt lat="46.91833" lon="-2.05314">
        <ele>2.6</ele>
        <time>2020-06-04T13:29:30Z</time>
      </trkpt>
      <trkpt lat="46.91832" lon="-2.0532">
        <ele>2.6</ele>
        <time>2020-06-04T13:29:31Z</time>
      </trkpt>
      <trkpt lat="46.91831" lon="-2.05326">
        <ele>2.6</ele>
        <time>2020-06-04T13:29:32Z</time>
      </trkpt>
      <trkpt lat="46.91829" lon="-2.05333">
        <ele>2.6</ele>
        <time>2020-06-04T13:29:33Z</time>
      </trkpt>
      <trkpt lat="46.91828" lon="-2.0534">
        <ele>2.6</ele>
        <time>2020-06-04T13:29:34Z</time>
      </trkpt>
      <trkpt lat="46.91826" lon="-2.05346">
        <ele>2.6</ele>
        <time>2020-06-04T13:29:35Z</time>
      </trkpt>
      <trkpt lat="46.91825" lon="-2.05353">
        <ele>2.6</ele>
        <time>2020-06-04T13:29:36Z</time>
      </trkpt>
      <trkpt lat="46.91824" lon="-2.0536">
        <ele>2.6</ele>
        <time>2020-06-04T13:29:37Z</time>
      </trkpt>
      <trkpt lat="46.91824" lon="-2.05366">
        <ele>2.6</ele>
        <time>2020-06-04T13:29:38Z</time>
      </trkpt>
      <trkpt lat="46.91826" lon="-2.05371">
        <ele>2.6</ele>
        <time>2020-06-04T13:29:39Z</time>
      </trkpt>
      <trkpt lat="46.91829" lon="-2.05376">
        <ele>2.6</ele>
        <time>2020-06-04T13:29:40Z</time>
      </trkpt>
      <trkpt lat="46.91832" lon="-2.05377">
        <ele>2.6</ele>
        <time>2020-06-04T13:29:41Z</time>
      </trkpt>
      <trkpt lat="46.91835" lon="-2.05379">
        <ele>2.6</ele>
        <time>2020-06-04T13:29:42Z</time>
      </trkpt>
      <trkpt lat="46.91839" lon="-2.0538">
        <ele>2.6</ele>
        <time>2020-06-04T13:29:43Z</time>
      </trkpt>
      <trkpt lat="46.91842" lon="-2.05382">
        <ele>2.6</ele>
        <time>2020-06-04T13:29:44Z</time>
      </trkpt>
      <trkpt lat="46.91845" lon="-2.05383">
        <ele>2.6</ele>
        <time>2020-06-04T13:29:45Z</time>
      </trkpt>
      <trkpt lat="46.91848" lon="-2.05383">
        <ele>2.6</ele>
        <time>2020-06-04T13:29:46Z</time>
      </trkpt>
      <trkpt lat="46.91851" lon="-2.05385">
        <ele>2.6</ele>
        <time>2020-06-04T13:29:47Z</time>
      </trkpt>
      <trkpt lat="46.91855" lon="-2.05385">
        <ele>2.6</ele>
        <time>2020-06-04T13:29:48Z</time>
      </trkpt>
      <trkpt lat="46.91859" lon="-2.05387">
        <ele>2.6</ele>
        <time>2020-06-04T13:29:49Z</time>
      </trkpt>
      <trkpt lat="46.91864" lon="-2.05388">
        <ele>2.6</ele>
        <time>2020-06-04T13:29:50Z</time>
      </trkpt>
      <trkpt lat="46.91868" lon="-2.05389">
        <ele>2.6</ele>
        <time>2020-06-04T13:29:51Z</time>
      </trkpt>
      <trkpt lat="46.91872" lon="-2.05391">
        <ele>2.6</ele>
        <time>2020-06-04T13:29:52Z</time>
      </trkpt>
      <trkpt lat="46.91876" lon="-2.05394">
        <ele>2.6</ele>
        <time>2020-06-04T13:29:53Z</time>
      </trkpt>
      <trkpt lat="46.91881" lon="-2.05394">
        <ele>2.6</ele>
        <time>2020-06-04T13:29:54Z</time>
      </trkpt>
      <trkpt lat="46.91885" lon="-2.05396">
        <ele>2.6</ele>
        <time>2020-06-04T13:29:55Z</time>
      </trkpt>
      <trkpt lat="46.9189" lon="-2.05399">
        <ele>2.6</ele>
        <time>2020-06-04T13:29:56Z</time>
      </trkpt>
      <trkpt lat="46.91895" lon="-2.05399">
        <ele>2.6</ele>
        <time>2020-06-04T13:29:57Z</time>
      </trkpt>
      <trkpt lat="46.91899" lon="-2.05401">
        <ele>2.6</ele>
        <time>2020-06-04T13:29:58Z</time>
      </trkpt>
      <trkpt lat="46.91903" lon="-2.05402">
        <ele>2.6</ele>
        <time>2020-06-04T13:29:59Z</time>
      </trkpt>
      <trkpt lat="46.91907" lon="-2.05403">
        <ele>2.6</ele>
        <time>2020-06-04T13:30:00Z</time>
      </trkpt>
      <trkpt lat="46.91911" lon="-2.05404">
        <ele>2.6</ele>
        <time>2020-06-04T13:30:01Z</time>
      </trkpt>
      <trkpt lat="46.91916" lon="-2.05405">
        <ele>2.6</ele>
        <time>2020-06-04T13:30:02Z</time>
      </trkpt>
      <trkpt lat="46.91919" lon="-2.05406">
        <ele>2.6</ele>
        <time>2020-06-04T13:30:03Z</time>
      </trkpt>
      <trkpt lat="46.91924" lon="-2.05406">
        <ele>2.6</ele>
        <time>2020-06-04T13:30:04Z</time>
      </trkpt>
      <trkpt lat="46.91929" lon="-2.05402">
        <ele>2.6</ele>
        <time>2020-06-04T13:30:05Z</time>
      </trkpt>
      <trkpt lat="46.91934" lon="-2.054">
        <ele>2.6</ele>
        <time>2020-06-04T13:30:06Z</time>
      </trkpt>
      <trkpt lat="46.91938" lon="-2.05397">
        <ele>2.6</ele>
        <time>2020-06-04T13:30:07Z</time>
      </trkpt>
      <trkpt lat="46.91941" lon="-2.05393">
        <ele>2.6</ele>
        <time>2020-06-04T13:30:08Z</time>
      </trkpt>
      <trkpt lat="46.91944" lon="-2.05388">
        <ele>2.6</ele>
        <time>2020-06-04T13:30:09Z</time>
      </trkpt>
      <trkpt lat="46.91948" lon="-2.05384">
        <ele>2.6</ele>
        <time>2020-06-04T13:30:10Z</time>
      </trkpt>
      <trkpt lat="46.9195" lon="-2.0538">
        <ele>2.6</ele>
        <time>2020-06-04T13:30:11Z</time>
      </trkpt>
      <trkpt lat="46.91953" lon="-2.05376">
        <ele>2.6</ele>
        <time>2020-06-04T13:30:12Z</time>
      </trkpt>
      <trkpt lat="46.91956" lon="-2.05373">
        <ele>2.6</ele>
        <time>2020-06-04T13:30:13Z</time>
      </trkpt>
      <trkpt lat="46.91959" lon="-2.05369">
        <ele>2.6</ele>
        <time>2020-06-04T13:30:14Z</time>
      </trkpt>
      <trkpt lat="46.91962" lon="-2.05366">
        <ele>2.6</ele>
        <time>2020-06-04T13:30:15Z</time>
      </trkpt>
      <trkpt lat="46.91966" lon="-2.05365">
        <ele>2.6</ele>
        <time>2020-06-04T13:30:16Z</time>
      </trkpt>
      <trkpt lat="46.9197" lon="-2.05369">
        <ele>2.6</ele>
        <time>2020-06-04T13:30:17Z</time>
      </trkpt>
      <trkpt lat="46.91974" lon="-2.05372">
        <ele>2.6</ele>
        <time>2020-06-04T13:30:18Z</time>
      </trkpt>
      <trkpt lat="46.91978" lon="-2.05375">
        <ele>2.6</ele>
        <time>2020-06-04T13:30:19Z</time>
      </trkpt>
      <trkpt lat="46.91983" lon="-2.05379">
        <ele>2.6</ele>
        <time>2020-06-04T13:30:20Z</time>
      </trkpt>
      <trkpt lat="46.91986" lon="-2.05383">
        <ele>2.7</ele>
        <time>2020-06-04T13:30:21Z</time>
      </trkpt>
      <trkpt lat="46.91989" lon="-2.05388">
        <ele>2.7</ele>
        <time>2020-06-04T13:30:22Z</time>
      </trkpt>
      <trkpt lat="46.91991" lon="-2.05392">
        <ele>2.7</ele>
        <time>2020-06-04T13:30:23Z</time>
      </trkpt>
      <trkpt lat="46.91993" lon="-2.05397">
        <ele>2.7</ele>
        <time>2020-06-04T13:30:24Z</time>
      </trkpt>
      <trkpt lat="46.91994" lon="-2.05403">
        <ele>2.7</ele>
        <time>2020-06-04T13:30:25Z</time>
      </trkpt>
      <trkpt lat="46.91996" lon="-2.0541">
        <ele>2.7</ele>
        <time>2020-06-04T13:30:26Z</time>
      </trkpt>
      <trkpt lat="46.91997" lon="-2.05416">
        <ele>2.7</ele>
        <time>2020-06-04T13:30:27Z</time>
      </trkpt>
      <trkpt lat="46.91997" lon="-2.05422">
        <ele>2.7</ele>
        <time>2020-06-04T13:30:28Z</time>
      </trkpt>
      <trkpt lat="46.91997" lon="-2.05426">
        <ele>2.7</ele>
        <time>2020-06-04T13:30:29Z</time>
      </trkpt>
      <trkpt lat="46.91997" lon="-2.05432">
        <ele>2.7</ele>
        <time>2020-06-04T13:30:30Z</time>
      </trkpt>
      <trkpt lat="46.91995" lon="-2.05436">
        <ele>2.7</ele>
        <time>2020-06-04T13:30:31Z</time>
      </trkpt>
      <trkpt lat="46.91993" lon="-2.0544">
        <ele>2.8</ele>
        <time>2020-06-04T13:30:32Z</time>
      </trkpt>
      <trkpt lat="46.91991" lon="-2.05445">
        <ele>2.8</ele>
        <time>2020-06-04T13:30:33Z</time>
      </trkpt>
      <trkpt lat="46.91988" lon="-2.05448">
        <ele>2.8</ele>
        <time>2020-06-04T13:30:34Z</time>
      </trkpt>
      <trkpt lat="46.91985" lon="-2.05452">
        <ele>2.8</ele>
        <time>2020-06-04T13:30:35Z</time>
      </trkpt>
      <trkpt lat="46.91982" lon="-2.05456">
        <ele>2.8</ele>
        <time>2020-06-04T13:30:36Z</time>
      </trkpt>
      <trkpt lat="46.9198" lon="-2.0546">
        <ele>2.8</ele>
        <time>2020-06-04T13:30:37Z</time>
      </trkpt>
      <trkpt lat="46.91977" lon="-2.05463">
        <ele>2.8</ele>
        <time>2020-06-04T13:30:38Z</time>
      </trkpt>
      <trkpt lat="46.91974" lon="-2.05466">
        <ele>2.9</ele>
        <time>2020-06-04T13:30:39Z</time>
      </trkpt>
      <trkpt lat="46.91972" lon="-2.05469">
        <ele>2.9</ele>
        <time>2020-06-04T13:30:40Z</time>
      </trkpt>
      <trkpt lat="46.9197" lon="-2.05474">
        <ele>2.9</ele>
        <time>2020-06-04T13:30:41Z</time>
      </trkpt>
      <trkpt lat="46.91967" lon="-2.05476">
        <ele>2.9</ele>
        <time>2020-06-04T13:30:42Z</time>
      </trkpt>
      <trkpt lat="46.91965" lon="-2.05482">
        <ele>2.9</ele>
        <time>2020-06-04T13:30:43Z</time>
      </trkpt>
      <trkpt lat="46.91962" lon="-2.05486">
        <ele>3</ele>
        <time>2020-06-04T13:30:44Z</time>
      </trkpt>
      <trkpt lat="46.91959" lon="-2.0549">
        <ele>3</ele>
        <time>2020-06-04T13:30:45Z</time>
      </trkpt>
      <trkpt lat="46.91957" lon="-2.05495">
        <ele>3</ele>
        <time>2020-06-04T13:30:46Z</time>
      </trkpt>
      <trkpt lat="46.91954" lon="-2.05499">
        <ele>3</ele>
        <time>2020-06-04T13:30:47Z</time>
      </trkpt>
      <trkpt lat="46.91951" lon="-2.05504">
        <ele>3</ele>
        <time>2020-06-04T13:30:48Z</time>
      </trkpt>
      <trkpt lat="46.91947" lon="-2.05509">
        <ele>3</ele>
        <time>2020-06-04T13:30:49Z</time>
      </trkpt>
      <trkpt lat="46.91945" lon="-2.05514">
        <ele>3.1</ele>
        <time>2020-06-04T13:30:50Z</time>
      </trkpt>
      <trkpt lat="46.91943" lon="-2.05521">
        <ele>3.1</ele>
        <time>2020-06-04T13:30:51Z</time>
      </trkpt>
      <trkpt lat="46.91941" lon="-2.05528">
        <ele>3.1</ele>
        <time>2020-06-04T13:30:52Z</time>
      </trkpt>
      <trkpt lat="46.91942" lon="-2.05536">
        <ele>3.1</ele>
        <time>2020-06-04T13:30:53Z</time>
      </trkpt>
      <trkpt lat="46.91942" lon="-2.05544">
        <ele>3</ele>
        <time>2020-06-04T13:30:54Z</time>
      </trkpt>
      <trkpt lat="46.91943" lon="-2.05551">
        <ele>3</ele>
        <time>2020-06-04T13:30:55Z</time>
      </trkpt>
      <trkpt lat="46.91945" lon="-2.05558">
        <ele>3</ele>
        <time>2020-06-04T13:30:56Z</time>
      </trkpt>
      <trkpt lat="46.91948" lon="-2.05564">
        <ele>3</ele>
        <time>2020-06-04T13:30:57Z</time>
      </trkpt>
      <trkpt lat="46.91951" lon="-2.0557">
        <ele>3</ele>
        <time>2020-06-04T13:30:58Z</time>
      </trkpt>
      <trkpt lat="46.91953" lon="-2.05577">
        <ele>3</ele>
        <time>2020-06-04T13:30:59Z</time>
      </trkpt>
      <trkpt lat="46.91955" lon="-2.05583">
        <ele>3</ele>
        <time>2020-06-04T13:31:00Z</time>
      </trkpt>
      <trkpt lat="46.91957" lon="-2.05589">
        <ele>3</ele>
        <time>2020-06-04T13:31:01Z</time>
      </trkpt>
      <trkpt lat="46.9196" lon="-2.05597">
        <ele>2.9</ele>
        <time>2020-06-04T13:31:02Z</time>
      </trkpt>
      <trkpt lat="46.91962" lon="-2.05603">
        <ele>2.9</ele>
        <time>2020-06-04T13:31:03Z</time>
      </trkpt>
      <trkpt lat="46.91963" lon="-2.0561">
        <ele>2.9</ele>
        <time>2020-06-04T13:31:04Z</time>
      </trkpt>
      <trkpt lat="46.91965" lon="-2.05616">
        <ele>2.9</ele>
        <time>2020-06-04T13:31:05Z</time>
      </trkpt>
      <trkpt lat="46.91967" lon="-2.05623">
        <ele>2.9</ele>
        <time>2020-06-04T13:31:06Z</time>
      </trkpt>
      <trkpt lat="46.91968" lon="-2.05629">
        <ele>2.9</ele>
        <time>2020-06-04T13:31:07Z</time>
      </trkpt>
      <trkpt lat="46.91969" lon="-2.05635">
        <ele>2.9</ele>
        <time>2020-06-04T13:31:08Z</time>
      </trkpt>
      <trkpt lat="46.91971" lon="-2.05641">
        <ele>2.9</ele>
        <time>2020-06-04T13:31:09Z</time>
      </trkpt>
      <trkpt lat="46.91972" lon="-2.05647">
        <ele>2.9</ele>
        <time>2020-06-04T13:31:10Z</time>
      </trkpt>
      <trkpt lat="46.91973" lon="-2.05653">
        <ele>2.9</ele>
        <time>2020-06-04T13:31:11Z</time>
      </trkpt>
      <trkpt lat="46.91973" lon="-2.05659">
        <ele>2.9</ele>
        <time>2020-06-04T13:31:12Z</time>
      </trkpt>
      <trkpt lat="46.91971" lon="-2.05664">
        <ele>2.9</ele>
        <time>2020-06-04T13:31:13Z</time>
      </trkpt>
      <trkpt lat="46.91967" lon="-2.05668">
        <ele>2.9</ele>
        <time>2020-06-04T13:31:14Z</time>
      </trkpt>
      <trkpt lat="46.91964" lon="-2.05672">
        <ele>2.9</ele>
        <time>2020-06-04T13:31:15Z</time>
      </trkpt>
      <trkpt lat="46.91961" lon="-2.05677">
        <ele>2.9</ele>
        <time>2020-06-04T13:31:16Z</time>
      </trkpt>
      <trkpt lat="46.91958" lon="-2.05682">
        <ele>2.9</ele>
        <time>2020-06-04T13:31:17Z</time>
      </trkpt>
      <trkpt lat="46.91957" lon="-2.05689">
        <ele>2.9</ele>
        <time>2020-06-04T13:31:18Z</time>
      </trkpt>
      <trkpt lat="46.91956" lon="-2.05696">
        <ele>3</ele>
        <time>2020-06-04T13:31:19Z</time>
      </trkpt>
      <trkpt lat="46.91955" lon="-2.05702">
        <ele>3</ele>
        <time>2020-06-04T13:31:20Z</time>
      </trkpt>
      <trkpt lat="46.91955" lon="-2.05708">
        <ele>3</ele>
        <time>2020-06-04T13:31:21Z</time>
      </trkpt>
      <trkpt lat="46.91955" lon="-2.05715">
        <ele>3</ele>
        <time>2020-06-04T13:31:22Z</time>
      </trkpt>
      <trkpt lat="46.91956" lon="-2.05721">
        <ele>3</ele>
        <time>2020-06-04T13:31:23Z</time>
      </trkpt>
      <trkpt lat="46.91959" lon="-2.05727">
        <ele>3</ele>
        <time>2020-06-04T13:31:24Z</time>
      </trkpt>
      <trkpt lat="46.91961" lon="-2.05733">
        <ele>3</ele>
        <time>2020-06-04T13:31:25Z</time>
      </trkpt>
      <trkpt lat="46.91965" lon="-2.05741">
        <ele>3</ele>
        <time>2020-06-04T13:31:26Z</time>
      </trkpt>
      <trkpt lat="46.91968" lon="-2.05746">
        <ele>3</ele>
        <time>2020-06-04T13:31:27Z</time>
      </trkpt>
      <trkpt lat="46.9197" lon="-2.05751">
        <ele>3</ele>
        <time>2020-06-04T13:31:28Z</time>
      </trkpt>
      <trkpt lat="46.91972" lon="-2.05756">
        <ele>3</ele>
        <time>2020-06-04T13:31:29Z</time>
      </trkpt>
      <trkpt lat="46.91974" lon="-2.05761">
        <ele>3</ele>
        <time>2020-06-04T13:31:30Z</time>
      </trkpt>
      <trkpt lat="46.91977" lon="-2.05766">
        <ele>3</ele>
        <time>2020-06-04T13:31:31Z</time>
      </trkpt>
      <trkpt lat="46.91979" lon="-2.05771">
        <ele>3</ele>
        <time>2020-06-04T13:31:32Z</time>
      </trkpt>
      <trkpt lat="46.91982" lon="-2.05776">
        <ele>3</ele>
        <time>2020-06-04T13:31:33Z</time>
      </trkpt>
      <trkpt lat="46.91986" lon="-2.05781">
        <ele>3</ele>
        <time>2020-06-04T13:31:34Z</time>
      </trkpt>
      <trkpt lat="46.91989" lon="-2.05785">
        <ele>3</ele>
        <time>2020-06-04T13:31:35Z</time>
      </trkpt>
      <trkpt lat="46.91992" lon="-2.05789">
        <ele>3</ele>
        <time>2020-06-04T13:31:36Z</time>
      </trkpt>
      <trkpt lat="46.91995" lon="-2.05793">
        <ele>3</ele>
        <time>2020-06-04T13:31:37Z</time>
      </trkpt>
      <trkpt lat="46.91997" lon="-2.05798">
        <ele>3</ele>
        <time>2020-06-04T13:31:38Z</time>
      </trkpt>
      <trkpt lat="46.92" lon="-2.05803">
        <ele>3</ele>
        <time>2020-06-04T13:31:39Z</time>
      </trkpt>
      <trkpt lat="46.92002" lon="-2.05807">
        <ele>3</ele>
        <time>2020-06-04T13:31:40Z</time>
      </trkpt>
      <trkpt lat="46.92003" lon="-2.05812">
        <ele>3</ele>
        <time>2020-06-04T13:31:41Z</time>
      </trkpt>
      <trkpt lat="46.92002" lon="-2.05813">
        <ele>3.1</ele>
        <time>2020-06-04T13:31:42Z</time>
      </trkpt>
      <trkpt lat="46.92" lon="-2.05814">
        <ele>3.1</ele>
        <time>2020-06-04T13:31:43Z</time>
      </trkpt>
      <trkpt lat="46.91997" lon="-2.05815">
        <ele>3.1</ele>
        <time>2020-06-04T13:31:44Z</time>
      </trkpt>
      <trkpt lat="46.91993" lon="-2.05816">
        <ele>3.1</ele>
        <time>2020-06-04T13:31:45Z</time>
      </trkpt>
      <trkpt lat="46.91989" lon="-2.05817">
        <ele>3.1</ele>
        <time>2020-06-04T13:31:46Z</time>
      </trkpt>
      <trkpt lat="46.91985" lon="-2.05818">
        <ele>3.1</ele>
        <time>2020-06-04T13:31:47Z</time>
      </trkpt>
      <trkpt lat="46.91982" lon="-2.05819">
        <ele>3.2</ele>
        <time>2020-06-04T13:31:48Z</time>
      </trkpt>
      <trkpt lat="46.91978" lon="-2.05821">
        <ele>3.2</ele>
        <time>2020-06-04T13:31:49Z</time>
      </trkpt>
      <trkpt lat="46.91974" lon="-2.05822">
        <ele>3.2</ele>
        <time>2020-06-04T13:31:50Z</time>
      </trkpt>
      <trkpt lat="46.91971" lon="-2.05824">
        <ele>3.2</ele>
        <time>2020-06-04T13:31:51Z</time>
      </trkpt>
      <trkpt lat="46.91967" lon="-2.05824">
        <ele>3.2</ele>
        <time>2020-06-04T13:31:52Z</time>
      </trkpt>
      <trkpt lat="46.91963" lon="-2.05825">
        <ele>3.2</ele>
        <time>2020-06-04T13:31:53Z</time>
      </trkpt>
      <trkpt lat="46.91959" lon="-2.05826">
        <ele>3.2</ele>
        <time>2020-06-04T13:31:54Z</time>
      </trkpt>
      <trkpt lat="46.91954" lon="-2.05828">
        <ele>3.2</ele>
        <time>2020-06-04T13:31:55Z</time>
      </trkpt>
      <trkpt lat="46.9195" lon="-2.05831">
        <ele>3.2</ele>
        <time>2020-06-04T13:31:56Z</time>
      </trkpt>
      <trkpt lat="46.91945" lon="-2.05832">
        <ele>3.1</ele>
        <time>2020-06-04T13:31:57Z</time>
      </trkpt>
      <trkpt lat="46.9194" lon="-2.05835">
        <ele>3.1</ele>
        <time>2020-06-04T13:31:58Z</time>
      </trkpt>
      <trkpt lat="46.91935" lon="-2.05839">
        <ele>3.1</ele>
        <time>2020-06-04T13:31:59Z</time>
      </trkpt>
      <trkpt lat="46.9193" lon="-2.05841">
        <ele>3.1</ele>
        <time>2020-06-04T13:32:00Z</time>
      </trkpt>
      <trkpt lat="46.91926" lon="-2.05845">
        <ele>3.1</ele>
        <time>2020-06-04T13:32:01Z</time>
      </trkpt>
      <trkpt lat="46.91922" lon="-2.05848">
        <ele>3</ele>
        <time>2020-06-04T13:32:02Z</time>
      </trkpt>
      <trkpt lat="46.91918" lon="-2.05851">
        <ele>3</ele>
        <time>2020-06-04T13:32:03Z</time>
      </trkpt>
      <trkpt lat="46.91914" lon="-2.05855">
        <ele>3</ele>
        <time>2020-06-04T13:32:04Z</time>
      </trkpt>
      <trkpt lat="46.9191" lon="-2.05858">
        <ele>3</ele>
        <time>2020-06-04T13:32:05Z</time>
      </trkpt>
      <trkpt lat="46.91906" lon="-2.05862">
        <ele>3</ele>
        <time>2020-06-04T13:32:06Z</time>
      </trkpt>
      <trkpt lat="46.91901" lon="-2.05864">
        <ele>3</ele>
        <time>2020-06-04T13:32:07Z</time>
      </trkpt>
      <trkpt lat="46.91897" lon="-2.05867">
        <ele>3</ele>
        <time>2020-06-04T13:32:08Z</time>
      </trkpt>
      <trkpt lat="46.91891" lon="-2.05866">
        <ele>3</ele>
        <time>2020-06-04T13:32:09Z</time>
      </trkpt>
      <trkpt lat="46.91885" lon="-2.05864">
        <ele>3</ele>
        <time>2020-06-04T13:32:10Z</time>
      </trkpt>
      <trkpt lat="46.91881" lon="-2.05862">
        <ele>3</ele>
        <time>2020-06-04T13:32:11Z</time>
      </trkpt>
      <trkpt lat="46.91876" lon="-2.0586">
        <ele>2.9</ele>
        <time>2020-06-04T13:32:12Z</time>
      </trkpt>
      <trkpt lat="46.91872" lon="-2.05858">
        <ele>2.9</ele>
        <time>2020-06-04T13:32:13Z</time>
      </trkpt>
      <trkpt lat="46.91867" lon="-2.05857">
        <ele>2.9</ele>
        <time>2020-06-04T13:32:14Z</time>
      </trkpt>
      <trkpt lat="46.91863" lon="-2.05855">
        <ele>2.9</ele>
        <time>2020-06-04T13:32:15Z</time>
      </trkpt>
      <trkpt lat="46.91858" lon="-2.05854">
        <ele>2.9</ele>
        <time>2020-06-04T13:32:16Z</time>
      </trkpt>
      <trkpt lat="46.91854" lon="-2.05854">
        <ele>2.9</ele>
        <time>2020-06-04T13:32:17Z</time>
      </trkpt>
      <trkpt lat="46.9185" lon="-2.05854">
        <ele>2.9</ele>
        <time>2020-06-04T13:32:18Z</time>
      </trkpt>
      <trkpt lat="46.91845" lon="-2.05855">
        <ele>2.9</ele>
        <time>2020-06-04T13:32:19Z</time>
      </trkpt>
      <trkpt lat="46.91841" lon="-2.05857">
        <ele>2.8</ele>
        <time>2020-06-04T13:32:20Z</time>
      </trkpt>
      <trkpt lat="46.91836" lon="-2.05859">
        <ele>2.8</ele>
        <time>2020-06-04T13:32:21Z</time>
      </trkpt>
      <trkpt lat="46.91831" lon="-2.05861">
        <ele>2.8</ele>
        <time>2020-06-04T13:32:22Z</time>
      </trkpt>
      <trkpt lat="46.91827" lon="-2.05864">
        <ele>2.8</ele>
        <time>2020-06-04T13:32:23Z</time>
      </trkpt>
      <trkpt lat="46.91823" lon="-2.05867">
        <ele>2.8</ele>
        <time>2020-06-04T13:32:24Z</time>
      </trkpt>
      <trkpt lat="46.91819" lon="-2.0587">
        <ele>2.8</ele>
        <time>2020-06-04T13:32:25Z</time>
      </trkpt>
      <trkpt lat="46.91814" lon="-2.05875">
        <ele>2.7</ele>
        <time>2020-06-04T13:32:26Z</time>
      </trkpt>
      <trkpt lat="46.91809" lon="-2.05878">
        <ele>2.7</ele>
        <time>2020-06-04T13:32:27Z</time>
      </trkpt>
      <trkpt lat="46.91804" lon="-2.05881">
        <ele>2.7</ele>
        <time>2020-06-04T13:32:28Z</time>
      </trkpt>
      <trkpt lat="46.918" lon="-2.05885">
        <ele>2.7</ele>
        <time>2020-06-04T13:32:29Z</time>
      </trkpt>
      <trkpt lat="46.91795" lon="-2.05889">
        <ele>2.7</ele>
        <time>2020-06-04T13:32:30Z</time>
      </trkpt>
      <trkpt lat="46.91791" lon="-2.05892">
        <ele>2.7</ele>
        <time>2020-06-04T13:32:31Z</time>
      </trkpt>
      <trkpt lat="46.91786" lon="-2.05896">
        <ele>2.7</ele>
        <time>2020-06-04T13:32:32Z</time>
      </trkpt>
      <trkpt lat="46.91782" lon="-2.05902">
        <ele>2.7</ele>
        <time>2020-06-04T13:32:33Z</time>
      </trkpt>
      <trkpt lat="46.91777" lon="-2.05906">
        <ele>2.7</ele>
        <time>2020-06-04T13:32:34Z</time>
      </trkpt>
      <trkpt lat="46.91773" lon="-2.05909">
        <ele>2.7</ele>
        <time>2020-06-04T13:32:35Z</time>
      </trkpt>
      <trkpt lat="46.91769" lon="-2.05914">
        <ele>2.7</ele>
        <time>2020-06-04T13:32:36Z</time>
      </trkpt>
      <trkpt lat="46.91764" lon="-2.05917">
        <ele>2.7</ele>
        <time>2020-06-04T13:32:37Z</time>
      </trkpt>
      <trkpt lat="46.9176" lon="-2.05921">
        <ele>2.7</ele>
        <time>2020-06-04T13:32:38Z</time>
      </trkpt>
      <trkpt lat="46.91756" lon="-2.05927">
        <ele>2.7</ele>
        <time>2020-06-04T13:32:39Z</time>
      </trkpt>
      <trkpt lat="46.91752" lon="-2.05931">
        <ele>2.7</ele>
        <time>2020-06-04T13:32:40Z</time>
      </trkpt>
      <trkpt lat="46.91748" lon="-2.05935">
        <ele>2.7</ele>
        <time>2020-06-04T13:32:41Z</time>
      </trkpt>
      <trkpt lat="46.91743" lon="-2.05939">
        <ele>2.7</ele>
        <time>2020-06-04T13:32:42Z</time>
      </trkpt>
      <trkpt lat="46.9174" lon="-2.05944">
        <ele>2.7</ele>
        <time>2020-06-04T13:32:43Z</time>
      </trkpt>
      <trkpt lat="46.91735" lon="-2.05947">
        <ele>2.7</ele>
        <time>2020-06-04T13:32:44Z</time>
      </trkpt>
      <trkpt lat="46.91732" lon="-2.05953">
        <ele>2.6</ele>
        <time>2020-06-04T13:32:45Z</time>
      </trkpt>
      <trkpt lat="46.91728" lon="-2.05958">
        <ele>2.6</ele>
        <time>2020-06-04T13:32:46Z</time>
      </trkpt>
      <trkpt lat="46.91723" lon="-2.05963">
        <ele>2.6</ele>
        <time>2020-06-04T13:32:47Z</time>
      </trkpt>
      <trkpt lat="46.91719" lon="-2.05967">
        <ele>2.5</ele>
        <time>2020-06-04T13:32:48Z</time>
      </trkpt>
      <trkpt lat="46.91715" lon="-2.05971">
        <ele>2.5</ele>
        <time>2020-06-04T13:32:49Z</time>
      </trkpt>
      <trkpt lat="46.91711" lon="-2.05975">
        <ele>2.5</ele>
        <time>2020-06-04T13:32:50Z</time>
      </trkpt>
      <trkpt lat="46.91707" lon="-2.05979">
        <ele>2.5</ele>
        <time>2020-06-04T13:32:51Z</time>
      </trkpt>
      <trkpt lat="46.91703" lon="-2.05983">
        <ele>2.4</ele>
        <time>2020-06-04T13:32:52Z</time>
      </trkpt>
      <trkpt lat="46.917" lon="-2.05987">
        <ele>2.4</ele>
        <time>2020-06-04T13:32:53Z</time>
      </trkpt>
      <trkpt lat="46.91696" lon="-2.0599">
        <ele>2.4</ele>
        <time>2020-06-04T13:32:54Z</time>
      </trkpt>
      <trkpt lat="46.91693" lon="-2.05996">
        <ele>2.4</ele>
        <time>2020-06-04T13:32:55Z</time>
      </trkpt>
      <trkpt lat="46.91689" lon="-2.06001">
        <ele>2.3</ele>
        <time>2020-06-04T13:32:56Z</time>
      </trkpt>
      <trkpt lat="46.91686" lon="-2.06006">
        <ele>2.3</ele>
        <time>2020-06-04T13:32:57Z</time>
      </trkpt>
      <trkpt lat="46.91682" lon="-2.0601">
        <ele>2.3</ele>
        <time>2020-06-04T13:32:58Z</time>
      </trkpt>
      <trkpt lat="46.91678" lon="-2.06012">
        <ele>2.2</ele>
        <time>2020-06-04T13:32:59Z</time>
      </trkpt>
      <trkpt lat="46.91675" lon="-2.06016">
        <ele>2.2</ele>
        <time>2020-06-04T13:33:00Z</time>
      </trkpt>
      <trkpt lat="46.91671" lon="-2.06019">
        <ele>2.2</ele>
        <time>2020-06-04T13:33:01Z</time>
      </trkpt>
      <trkpt lat="46.91667" lon="-2.06021">
        <ele>2.2</ele>
        <time>2020-06-04T13:33:02Z</time>
      </trkpt>
      <trkpt lat="46.91663" lon="-2.06023">
        <ele>2.2</ele>
        <time>2020-06-04T13:33:03Z</time>
      </trkpt>
      <trkpt lat="46.91659" lon="-2.06025">
        <ele>2.1</ele>
        <time>2020-06-04T13:33:04Z</time>
      </trkpt>
      <trkpt lat="46.91654" lon="-2.06023">
        <ele>2.1</ele>
        <time>2020-06-04T13:33:05Z</time>
      </trkpt>
      <trkpt lat="46.91651" lon="-2.0602">
        <ele>2.1</ele>
        <time>2020-06-04T13:33:06Z</time>
      </trkpt>
      <trkpt lat="46.91646" lon="-2.06016">
        <ele>2.1</ele>
        <time>2020-06-04T13:33:07Z</time>
      </trkpt>
      <trkpt lat="46.91643" lon="-2.06012">
        <ele>2.1</ele>
        <time>2020-06-04T13:33:08Z</time>
      </trkpt>
      <trkpt lat="46.9164" lon="-2.06008">
        <ele>2.1</ele>
        <time>2020-06-04T13:33:09Z</time>
      </trkpt>
      <trkpt lat="46.91636" lon="-2.06004">
        <ele>2.1</ele>
        <time>2020-06-04T13:33:10Z</time>
      </trkpt>
      <trkpt lat="46.91631" lon="-2.06">
        <ele>2.1</ele>
        <time>2020-06-04T13:33:11Z</time>
      </trkpt>
      <trkpt lat="46.91628" lon="-2.05996">
        <ele>2.1</ele>
        <time>2020-06-04T13:33:12Z</time>
      </trkpt>
      <trkpt lat="46.91624" lon="-2.05995">
        <ele>2.1</ele>
        <time>2020-06-04T13:33:13Z</time>
      </trkpt>
      <trkpt lat="46.9162" lon="-2.05997">
        <ele>2.1</ele>
        <time>2020-06-04T13:33:14Z</time>
      </trkpt>
      <trkpt lat="46.91617" lon="-2.06002">
        <ele>2.1</ele>
        <time>2020-06-04T13:33:15Z</time>
      </trkpt>
      <trkpt lat="46.91615" lon="-2.06008">
        <ele>2.1</ele>
        <time>2020-06-04T13:33:16Z</time>
      </trkpt>
      <trkpt lat="46.91612" lon="-2.06015">
        <ele>2.1</ele>
        <time>2020-06-04T13:33:17Z</time>
      </trkpt>
      <trkpt lat="46.91609" lon="-2.06023">
        <ele>2.1</ele>
        <time>2020-06-04T13:33:18Z</time>
      </trkpt>
      <trkpt lat="46.91606" lon="-2.0603">
        <ele>2</ele>
        <time>2020-06-04T13:33:19Z</time>
      </trkpt>
      <trkpt lat="46.91605" lon="-2.06038">
        <ele>2</ele>
        <time>2020-06-04T13:33:20Z</time>
      </trkpt>
      <trkpt lat="46.91603" lon="-2.06044">
        <ele>2</ele>
        <time>2020-06-04T13:33:21Z</time>
      </trkpt>
      <trkpt lat="46.916" lon="-2.0605">
        <ele>2</ele>
        <time>2020-06-04T13:33:22Z</time>
      </trkpt>
      <trkpt lat="46.91596" lon="-2.06055">
        <ele>2</ele>
        <time>2020-06-04T13:33:23Z</time>
      </trkpt>
      <trkpt lat="46.91592" lon="-2.06058">
        <ele>2</ele>
        <time>2020-06-04T13:33:24Z</time>
      </trkpt>
      <trkpt lat="46.91587" lon="-2.06061">
        <ele>2</ele>
        <time>2020-06-04T13:33:25Z</time>
      </trkpt>
      <trkpt lat="46.91584" lon="-2.06065">
        <ele>1.9</ele>
        <time>2020-06-04T13:33:26Z</time>
      </trkpt>
      <trkpt lat="46.9158" lon="-2.06068">
        <ele>1.9</ele>
        <time>2020-06-04T13:33:27Z</time>
      </trkpt>
      <trkpt lat="46.91576" lon="-2.06072">
        <ele>1.9</ele>
        <time>2020-06-04T13:33:28Z</time>
      </trkpt>
      <trkpt lat="46.91572" lon="-2.06075">
        <ele>1.9</ele>
        <time>2020-06-04T13:33:29Z</time>
      </trkpt>
      <trkpt lat="46.91567" lon="-2.06079">
        <ele>1.9</ele>
        <time>2020-06-04T13:33:30Z</time>
      </trkpt>
      <trkpt lat="46.91563" lon="-2.06083">
        <ele>1.9</ele>
        <time>2020-06-04T13:33:31Z</time>
      </trkpt>
      <trkpt lat="46.9156" lon="-2.06088">
        <ele>1.9</ele>
        <time>2020-06-04T13:33:32Z</time>
      </trkpt>
      <trkpt lat="46.91557" lon="-2.06091">
        <ele>1.9</ele>
        <time>2020-06-04T13:33:33Z</time>
      </trkpt>
      <trkpt lat="46.91553" lon="-2.06094">
        <ele>1.9</ele>
        <time>2020-06-04T13:33:34Z</time>
      </trkpt>
      <trkpt lat="46.91551" lon="-2.06099">
        <ele>2</ele>
        <time>2020-06-04T13:33:35Z</time>
      </trkpt>
      <trkpt lat="46.91549" lon="-2.06105">
        <ele>2</ele>
        <time>2020-06-04T13:33:36Z</time>
      </trkpt>
      <trkpt lat="46.91548" lon="-2.06109">
        <ele>2</ele>
        <time>2020-06-04T13:33:37Z</time>
      </trkpt>
      <trkpt lat="46.91547" lon="-2.06114">
        <ele>2</ele>
        <time>2020-06-04T13:33:38Z</time>
      </trkpt>
      <trkpt lat="46.91547" lon="-2.06119">
        <ele>2</ele>
        <time>2020-06-04T13:33:39Z</time>
      </trkpt>
      <trkpt lat="46.91546" lon="-2.06123">
        <ele>2.1</ele>
        <time>2020-06-04T13:33:40Z</time>
      </trkpt>
      <trkpt lat="46.91546" lon="-2.06128">
        <ele>2.1</ele>
        <time>2020-06-04T13:33:41Z</time>
      </trkpt>
      <trkpt lat="46.91546" lon="-2.06132">
        <ele>2.1</ele>
        <time>2020-06-04T13:33:42Z</time>
      </trkpt>
      <trkpt lat="46.91545" lon="-2.06136">
        <ele>2.1</ele>
        <time>2020-06-04T13:33:43Z</time>
      </trkpt>
      <trkpt lat="46.91545" lon="-2.06138">
        <ele>2.1</ele>
        <time>2020-06-04T13:33:44Z</time>
      </trkpt>
      <trkpt lat="46.91542" lon="-2.06139">
        <ele>2.2</ele>
        <time>2020-06-04T13:33:45Z</time>
      </trkpt>
      <trkpt lat="46.9154" lon="-2.06138">
        <ele>2.2</ele>
        <time>2020-06-04T13:33:46Z</time>
      </trkpt>
      <trkpt lat="46.91537" lon="-2.0614">
        <ele>2.2</ele>
        <time>2020-06-04T13:33:47Z</time>
      </trkpt>
      <trkpt lat="46.91534" lon="-2.06142">
        <ele>2.2</ele>
        <time>2020-06-04T13:33:48Z</time>
      </trkpt>
      <trkpt lat="46.91531" lon="-2.06146">
        <ele>2.2</ele>
        <time>2020-06-04T13:33:49Z</time>
      </trkpt>
      <trkpt lat="46.91528" lon="-2.06149">
        <ele>2.2</ele>
        <time>2020-06-04T13:33:50Z</time>
      </trkpt>
      <trkpt lat="46.91525" lon="-2.06153">
        <ele>2.2</ele>
        <time>2020-06-04T13:33:51Z</time>
      </trkpt>
      <trkpt lat="46.91521" lon="-2.06157">
        <ele>2.2</ele>
        <time>2020-06-04T13:33:52Z</time>
      </trkpt>
      <trkpt lat="46.91518" lon="-2.06158">
        <ele>2.2</ele>
        <time>2020-06-04T13:33:53Z</time>
      </trkpt>
      <trkpt lat="46.91515" lon="-2.06161">
        <ele>2.2</ele>
        <time>2020-06-04T13:33:54Z</time>
      </trkpt>
      <trkpt lat="46.91511" lon="-2.06166">
        <ele>2.2</ele>
        <time>2020-06-04T13:33:55Z</time>
      </trkpt>
      <trkpt lat="46.91508" lon="-2.06171">
        <ele>2.3</ele>
        <time>2020-06-04T13:33:56Z</time>
      </trkpt>
      <trkpt lat="46.91504" lon="-2.06174">
        <ele>2.3</ele>
        <time>2020-06-04T13:33:57Z</time>
      </trkpt>
      <trkpt lat="46.915" lon="-2.06177">
        <ele>2.3</ele>
        <time>2020-06-04T13:33:58Z</time>
      </trkpt>
      <trkpt lat="46.91497" lon="-2.06181">
        <ele>2.3</ele>
        <time>2020-06-04T13:33:59Z</time>
      </trkpt>
      <trkpt lat="46.91492" lon="-2.06184">
        <ele>2.3</ele>
        <time>2020-06-04T13:34:00Z</time>
      </trkpt>
      <trkpt lat="46.91489" lon="-2.06188">
        <ele>2.4</ele>
        <time>2020-06-04T13:34:01Z</time>
      </trkpt>
      <trkpt lat="46.91485" lon="-2.06192">
        <ele>2.4</ele>
        <time>2020-06-04T13:34:02Z</time>
      </trkpt>
      <trkpt lat="46.91482" lon="-2.06197">
        <ele>2.4</ele>
        <time>2020-06-04T13:34:03Z</time>
      </trkpt>
      <trkpt lat="46.91479" lon="-2.06204">
        <ele>2.4</ele>
        <time>2020-06-04T13:34:04Z</time>
      </trkpt>
      <trkpt lat="46.91477" lon="-2.06211">
        <ele>2.4</ele>
        <time>2020-06-04T13:34:05Z</time>
      </trkpt>
      <trkpt lat="46.91474" lon="-2.06217">
        <ele>2.4</ele>
        <time>2020-06-04T13:34:06Z</time>
      </trkpt>
      <trkpt lat="46.91471" lon="-2.06223">
        <ele>2.5</ele>
        <time>2020-06-04T13:34:07Z</time>
      </trkpt>
      <trkpt lat="46.91468" lon="-2.06229">
        <ele>2.5</ele>
        <time>2020-06-04T13:34:08Z</time>
      </trkpt>
      <trkpt lat="46.91466" lon="-2.06235">
        <ele>2.5</ele>
        <time>2020-06-04T13:34:09Z</time>
      </trkpt>
      <trkpt lat="46.91463" lon="-2.06241">
        <ele>2.5</ele>
        <time>2020-06-04T13:34:10Z</time>
      </trkpt>
      <trkpt lat="46.9146" lon="-2.06248">
        <ele>2.5</ele>
        <time>2020-06-04T13:34:11Z</time>
      </trkpt>
      <trkpt lat="46.91457" lon="-2.06253">
        <ele>2.5</ele>
        <time>2020-06-04T13:34:12Z</time>
      </trkpt>
      <trkpt lat="46.91453" lon="-2.06259">
        <ele>2.5</ele>
        <time>2020-06-04T13:34:13Z</time>
      </trkpt>
      <trkpt lat="46.9145" lon="-2.06264">
        <ele>2.5</ele>
        <time>2020-06-04T13:34:14Z</time>
      </trkpt>
      <trkpt lat="46.91447" lon="-2.06269">
        <ele>2.5</ele>
        <time>2020-06-04T13:34:15Z</time>
      </trkpt>
      <trkpt lat="46.91443" lon="-2.06273">
        <ele>2.5</ele>
        <time>2020-06-04T13:34:16Z</time>
      </trkpt>
      <trkpt lat="46.91439" lon="-2.06278">
        <ele>2.5</ele>
        <time>2020-06-04T13:34:17Z</time>
      </trkpt>
      <trkpt lat="46.91436" lon="-2.06283">
        <ele>2.5</ele>
        <time>2020-06-04T13:34:18Z</time>
      </trkpt>
      <trkpt lat="46.91432" lon="-2.06288">
        <ele>2.5</ele>
        <time>2020-06-04T13:34:19Z</time>
      </trkpt>
      <trkpt lat="46.91429" lon="-2.06293">
        <ele>2.5</ele>
        <time>2020-06-04T13:34:20Z</time>
      </trkpt>
      <trkpt lat="46.91426" lon="-2.06297">
        <ele>2.5</ele>
        <time>2020-06-04T13:34:21Z</time>
      </trkpt>
      <trkpt lat="46.91423" lon="-2.06301">
        <ele>2.5</ele>
        <time>2020-06-04T13:34:22Z</time>
      </trkpt>
      <trkpt lat="46.91419" lon="-2.06305">
        <ele>2.5</ele>
        <time>2020-06-04T13:34:23Z</time>
      </trkpt>
      <trkpt lat="46.91416" lon="-2.06309">
        <ele>2.5</ele>
        <time>2020-06-04T13:34:24Z</time>
      </trkpt>
      <trkpt lat="46.91413" lon="-2.06313">
        <ele>2.5</ele>
        <time>2020-06-04T13:34:25Z</time>
      </trkpt>
      <trkpt lat="46.9141" lon="-2.06317">
        <ele>2.5</ele>
        <time>2020-06-04T13:34:26Z</time>
      </trkpt>
      <trkpt lat="46.91407" lon="-2.0632">
        <ele>2.5</ele>
        <time>2020-06-04T13:34:27Z</time>
      </trkpt>
      <trkpt lat="46.91404" lon="-2.06322">
        <ele>2.5</ele>
        <time>2020-06-04T13:34:28Z</time>
      </trkpt>
      <trkpt lat="46.91401" lon="-2.06326">
        <ele>2.5</ele>
        <time>2020-06-04T13:34:29Z</time>
      </trkpt>
      <trkpt lat="46.91397" lon="-2.06329">
        <ele>2.5</ele>
        <time>2020-06-04T13:34:30Z</time>
      </trkpt>
      <trkpt lat="46.91394" lon="-2.06332">
        <ele>2.5</ele>
        <time>2020-06-04T13:34:31Z</time>
      </trkpt>
      <trkpt lat="46.91391" lon="-2.06335">
        <ele>2.5</ele>
        <time>2020-06-04T13:34:32Z</time>
      </trkpt>
      <trkpt lat="46.91387" lon="-2.06339">
        <ele>2.5</ele>
        <time>2020-06-04T13:34:33Z</time>
      </trkpt>
      <trkpt lat="46.91383" lon="-2.06341">
        <ele>2.5</ele>
        <time>2020-06-04T13:34:34Z</time>
      </trkpt>
      <trkpt lat="46.9138" lon="-2.06344">
        <ele>2.5</ele>
        <time>2020-06-04T13:34:35Z</time>
      </trkpt>
      <trkpt lat="46.91376" lon="-2.06345">
        <ele>2.5</ele>
        <time>2020-06-04T13:34:36Z</time>
      </trkpt>
      <trkpt lat="46.91373" lon="-2.06348">
        <ele>2.5</ele>
        <time>2020-06-04T13:34:37Z</time>
      </trkpt>
      <trkpt lat="46.91369" lon="-2.0635">
        <ele>2.5</ele>
        <time>2020-06-04T13:34:38Z</time>
      </trkpt>
      <trkpt lat="46.91365" lon="-2.06353">
        <ele>2.5</ele>
        <time>2020-06-04T13:34:39Z</time>
      </trkpt>
      <trkpt lat="46.9136" lon="-2.06355">
        <ele>2.5</ele>
        <time>2020-06-04T13:34:40Z</time>
      </trkpt>
      <trkpt lat="46.91356" lon="-2.06357">
        <ele>2.5</ele>
        <time>2020-06-04T13:34:41Z</time>
      </trkpt>
      <trkpt lat="46.91352" lon="-2.06359">
        <ele>2.5</ele>
        <time>2020-06-04T13:34:42Z</time>
      </trkpt>
      <trkpt lat="46.91348" lon="-2.06361">
        <ele>2.4</ele>
        <time>2020-06-04T13:34:43Z</time>
      </trkpt>
      <trkpt lat="46.91344" lon="-2.06362">
        <ele>2.4</ele>
        <time>2020-06-04T13:34:44Z</time>
      </trkpt>
      <trkpt lat="46.9134" lon="-2.06364">
        <ele>2.4</ele>
        <time>2020-06-04T13:34:45Z</time>
      </trkpt>
      <trkpt lat="46.91335" lon="-2.06365">
        <ele>2.4</ele>
        <time>2020-06-04T13:34:46Z</time>
      </trkpt>
      <trkpt lat="46.91331" lon="-2.06367">
        <ele>2.4</ele>
        <time>2020-06-04T13:34:47Z</time>
      </trkpt>
      <trkpt lat="46.91327" lon="-2.0637">
        <ele>2.3</ele>
        <time>2020-06-04T13:34:48Z</time>
      </trkpt>
      <trkpt lat="46.91323" lon="-2.06372">
        <ele>2.3</ele>
        <time>2020-06-04T13:34:49Z</time>
      </trkpt>
      <trkpt lat="46.91318" lon="-2.06374">
        <ele>2.3</ele>
        <time>2020-06-04T13:34:50Z</time>
      </trkpt>
      <trkpt lat="46.91314" lon="-2.06377">
        <ele>2.3</ele>
        <time>2020-06-04T13:34:51Z</time>
      </trkpt>
      <trkpt lat="46.9131" lon="-2.0638">
        <ele>2.3</ele>
        <time>2020-06-04T13:34:52Z</time>
      </trkpt>
      <trkpt lat="46.91307" lon="-2.06384">
        <ele>2.3</ele>
        <time>2020-06-04T13:34:53Z</time>
      </trkpt>
      <trkpt lat="46.91304" lon="-2.06392">
        <ele>2.3</ele>
        <time>2020-06-04T13:34:54Z</time>
      </trkpt>
      <trkpt lat="46.91303" lon="-2.06399">
        <ele>2.3</ele>
        <time>2020-06-04T13:34:55Z</time>
      </trkpt>
      <trkpt lat="46.91303" lon="-2.06406">
        <ele>2.3</ele>
        <time>2020-06-04T13:34:56Z</time>
      </trkpt>
      <trkpt lat="46.91304" lon="-2.06414">
        <ele>2.3</ele>
        <time>2020-06-04T13:34:57Z</time>
      </trkpt>
      <trkpt lat="46.91305" lon="-2.06421">
        <ele>2.3</ele>
        <time>2020-06-04T13:34:58Z</time>
      </trkpt>
      <trkpt lat="46.91306" lon="-2.06428">
        <ele>2.3</ele>
        <time>2020-06-04T13:34:59Z</time>
      </trkpt>
      <trkpt lat="46.91306" lon="-2.06437">
        <ele>2.3</ele>
        <time>2020-06-04T13:35:00Z</time>
      </trkpt>
      <trkpt lat="46.91307" lon="-2.06444">
        <ele>2.3</ele>
        <time>2020-06-04T13:35:01Z</time>
      </trkpt>
      <trkpt lat="46.91308" lon="-2.06452">
        <ele>2.4</ele>
        <time>2020-06-04T13:35:02Z</time>
      </trkpt>
      <trkpt lat="46.91308" lon="-2.06459">
        <ele>2.4</ele>
        <time>2020-06-04T13:35:03Z</time>
      </trkpt>
      <trkpt lat="46.91309" lon="-2.06467">
        <ele>2.4</ele>
        <time>2020-06-04T13:35:04Z</time>
      </trkpt>
      <trkpt lat="46.9131" lon="-2.06475">
        <ele>2.4</ele>
        <time>2020-06-04T13:35:05Z</time>
      </trkpt>
      <trkpt lat="46.91309" lon="-2.0648">
        <ele>2.4</ele>
        <time>2020-06-04T13:35:06Z</time>
      </trkpt>
      <trkpt lat="46.91308" lon="-2.06487">
        <ele>2.4</ele>
        <time>2020-06-04T13:35:07Z</time>
      </trkpt>
      <trkpt lat="46.91308" lon="-2.06493">
        <ele>2.4</ele>
        <time>2020-06-04T13:35:08Z</time>
      </trkpt>
      <trkpt lat="46.91308" lon="-2.065">
        <ele>2.5</ele>
        <time>2020-06-04T13:35:09Z</time>
      </trkpt>
      <trkpt lat="46.91307" lon="-2.06505">
        <ele>2.5</ele>
        <time>2020-06-04T13:35:10Z</time>
      </trkpt>
      <trkpt lat="46.91307" lon="-2.0651">
        <ele>2.5</ele>
        <time>2020-06-04T13:35:11Z</time>
      </trkpt>
      <trkpt lat="46.91306" lon="-2.06516">
        <ele>2.5</ele>
        <time>2020-06-04T13:35:12Z</time>
      </trkpt>
      <trkpt lat="46.91305" lon="-2.06523">
        <ele>2.5</ele>
        <time>2020-06-04T13:35:13Z</time>
      </trkpt>
      <trkpt lat="46.91305" lon="-2.06528">
        <ele>2.5</ele>
        <time>2020-06-04T13:35:14Z</time>
      </trkpt>
      <trkpt lat="46.91304" lon="-2.06534">
        <ele>2.5</ele>
        <time>2020-06-04T13:35:15Z</time>
      </trkpt>
      <trkpt lat="46.91304" lon="-2.06541">
        <ele>2.5</ele>
        <time>2020-06-04T13:35:16Z</time>
      </trkpt>
      <trkpt lat="46.91303" lon="-2.06547">
        <ele>2.5</ele>
        <time>2020-06-04T13:35:17Z</time>
      </trkpt>
      <trkpt lat="46.91302" lon="-2.06553">
        <ele>2.5</ele>
        <time>2020-06-04T13:35:18Z</time>
      </trkpt>
      <trkpt lat="46.91302" lon="-2.0656">
        <ele>2.5</ele>
        <time>2020-06-04T13:35:19Z</time>
      </trkpt>
      <trkpt lat="46.913" lon="-2.06565">
        <ele>2.5</ele>
        <time>2020-06-04T13:35:20Z</time>
      </trkpt>
      <trkpt lat="46.91298" lon="-2.0657">
        <ele>2.5</ele>
        <time>2020-06-04T13:35:21Z</time>
      </trkpt>
      <trkpt lat="46.91297" lon="-2.06576">
        <ele>2.5</ele>
        <time>2020-06-04T13:35:22Z</time>
      </trkpt>
      <trkpt lat="46.91295" lon="-2.06581">
        <ele>2.5</ele>
        <time>2020-06-04T13:35:23Z</time>
      </trkpt>
      <trkpt lat="46.91294" lon="-2.06586">
        <ele>2.5</ele>
        <time>2020-06-04T13:35:24Z</time>
      </trkpt>
      <trkpt lat="46.91291" lon="-2.06591">
        <ele>2.5</ele>
        <time>2020-06-04T13:35:25Z</time>
      </trkpt>
      <trkpt lat="46.9129" lon="-2.06596">
        <ele>2.5</ele>
        <time>2020-06-04T13:35:26Z</time>
      </trkpt>
      <trkpt lat="46.91287" lon="-2.066">
        <ele>2.5</ele>
        <time>2020-06-04T13:35:27Z</time>
      </trkpt>
      <trkpt lat="46.91286" lon="-2.06605">
        <ele>2.5</ele>
        <time>2020-06-04T13:35:28Z</time>
      </trkpt>
      <trkpt lat="46.91284" lon="-2.0661">
        <ele>2.5</ele>
        <time>2020-06-04T13:35:29Z</time>
      </trkpt>
      <trkpt lat="46.91282" lon="-2.06615">
        <ele>2.6</ele>
        <time>2020-06-04T13:35:30Z</time>
      </trkpt>
      <trkpt lat="46.9128" lon="-2.06619">
        <ele>2.6</ele>
        <time>2020-06-04T13:35:31Z</time>
      </trkpt>
      <trkpt lat="46.91278" lon="-2.06624">
        <ele>2.6</ele>
        <time>2020-06-04T13:35:32Z</time>
      </trkpt>
      <trkpt lat="46.91276" lon="-2.06629">
        <ele>2.6</ele>
        <time>2020-06-04T13:35:33Z</time>
      </trkpt>
      <trkpt lat="46.91273" lon="-2.06635">
        <ele>2.6</ele>
        <time>2020-06-04T13:35:34Z</time>
      </trkpt>
      <trkpt lat="46.91271" lon="-2.06642">
        <ele>2.6</ele>
        <time>2020-06-04T13:35:35Z</time>
      </trkpt>
      <trkpt lat="46.91269" lon="-2.06649">
        <ele>2.6</ele>
        <time>2020-06-04T13:35:36Z</time>
      </trkpt>
      <trkpt lat="46.91266" lon="-2.06656">
        <ele>2.6</ele>
        <time>2020-06-04T13:35:37Z</time>
      </trkpt>
      <trkpt lat="46.91263" lon="-2.06663">
        <ele>2.6</ele>
        <time>2020-06-04T13:35:38Z</time>
      </trkpt>
      <trkpt lat="46.91259" lon="-2.06669">
        <ele>2.6</ele>
        <time>2020-06-04T13:35:39Z</time>
      </trkpt>
      <trkpt lat="46.91257" lon="-2.06676">
        <ele>2.6</ele>
        <time>2020-06-04T13:35:40Z</time>
      </trkpt>
      <trkpt lat="46.91255" lon="-2.06683">
        <ele>2.6</ele>
        <time>2020-06-04T13:35:41Z</time>
      </trkpt>
      <trkpt lat="46.91252" lon="-2.0669">
        <ele>2.6</ele>
        <time>2020-06-04T13:35:42Z</time>
      </trkpt>
      <trkpt lat="46.91249" lon="-2.06697">
        <ele>2.5</ele>
        <time>2020-06-04T13:35:43Z</time>
      </trkpt>
      <trkpt lat="46.91246" lon="-2.06704">
        <ele>2.5</ele>
        <time>2020-06-04T13:35:44Z</time>
      </trkpt>
      <trkpt lat="46.91243" lon="-2.0671">
        <ele>2.5</ele>
        <time>2020-06-04T13:35:45Z</time>
      </trkpt>
      <trkpt lat="46.9124" lon="-2.06717">
        <ele>2.5</ele>
        <time>2020-06-04T13:35:46Z</time>
      </trkpt>
      <trkpt lat="46.91237" lon="-2.06723">
        <ele>2.4</ele>
        <time>2020-06-04T13:35:47Z</time>
      </trkpt>
      <trkpt lat="46.91235" lon="-2.06729">
        <ele>2.4</ele>
        <time>2020-06-04T13:35:48Z</time>
      </trkpt>
      <trkpt lat="46.91232" lon="-2.06735">
        <ele>2.4</ele>
        <time>2020-06-04T13:35:49Z</time>
      </trkpt>
      <trkpt lat="46.9123" lon="-2.06743">
        <ele>2.4</ele>
        <time>2020-06-04T13:35:50Z</time>
      </trkpt>
      <trkpt lat="46.91227" lon="-2.06748">
        <ele>2.3</ele>
        <time>2020-06-04T13:35:51Z</time>
      </trkpt>
      <trkpt lat="46.91224" lon="-2.06754">
        <ele>2.3</ele>
        <time>2020-06-04T13:35:52Z</time>
      </trkpt>
      <trkpt lat="46.91221" lon="-2.0676">
        <ele>2.3</ele>
        <time>2020-06-04T13:35:53Z</time>
      </trkpt>
      <trkpt lat="46.91219" lon="-2.06766">
        <ele>2.3</ele>
        <time>2020-06-04T13:35:54Z</time>
      </trkpt>
      <trkpt lat="46.91217" lon="-2.06773">
        <ele>2.3</ele>
        <time>2020-06-04T13:35:55Z</time>
      </trkpt>
      <trkpt lat="46.91214" lon="-2.06779">
        <ele>2.3</ele>
        <time>2020-06-04T13:35:56Z</time>
      </trkpt>
      <trkpt lat="46.91212" lon="-2.06786">
        <ele>2.3</ele>
        <time>2020-06-04T13:35:57Z</time>
      </trkpt>
      <trkpt lat="46.91209" lon="-2.06792">
        <ele>2.3</ele>
        <time>2020-06-04T13:35:58Z</time>
      </trkpt>
      <trkpt lat="46.91206" lon="-2.06798">
        <ele>2.3</ele>
        <time>2020-06-04T13:35:59Z</time>
      </trkpt>
      <trkpt lat="46.91204" lon="-2.06807">
        <ele>2.3</ele>
        <time>2020-06-04T13:36:00Z</time>
      </trkpt>
      <trkpt lat="46.91203" lon="-2.06814">
        <ele>2.2</ele>
        <time>2020-06-04T13:36:01Z</time>
      </trkpt>
      <trkpt lat="46.91201" lon="-2.06821">
        <ele>2.2</ele>
        <time>2020-06-04T13:36:02Z</time>
      </trkpt>
      <trkpt lat="46.91199" lon="-2.06828">
        <ele>2.2</ele>
        <time>2020-06-04T13:36:03Z</time>
      </trkpt>
      <trkpt lat="46.91198" lon="-2.06836">
        <ele>2.2</ele>
        <time>2020-06-04T13:36:04Z</time>
      </trkpt>
      <trkpt lat="46.91197" lon="-2.06844">
        <ele>2.2</ele>
        <time>2020-06-04T13:36:05Z</time>
      </trkpt>
      <trkpt lat="46.91196" lon="-2.06851">
        <ele>2.2</ele>
        <time>2020-06-04T13:36:06Z</time>
      </trkpt>
      <trkpt lat="46.91195" lon="-2.06858">
        <ele>2.2</ele>
        <time>2020-06-04T13:36:07Z</time>
      </trkpt>
      <trkpt lat="46.91194" lon="-2.06866">
        <ele>2.2</ele>
        <time>2020-06-04T13:36:08Z</time>
      </trkpt>
      <trkpt lat="46.91193" lon="-2.06875">
        <ele>2.2</ele>
        <time>2020-06-04T13:36:09Z</time>
      </trkpt>
      <trkpt lat="46.91191" lon="-2.06884">
        <ele>2.2</ele>
        <time>2020-06-04T13:36:10Z</time>
      </trkpt>
      <trkpt lat="46.91191" lon="-2.06893">
        <ele>2.2</ele>
        <time>2020-06-04T13:36:11Z</time>
      </trkpt>
      <trkpt lat="46.91191" lon="-2.06902">
        <ele>2.2</ele>
        <time>2020-06-04T13:36:12Z</time>
      </trkpt>
      <trkpt lat="46.9119" lon="-2.06909">
        <ele>2.2</ele>
        <time>2020-06-04T13:36:13Z</time>
      </trkpt>
      <trkpt lat="46.9119" lon="-2.06917">
        <ele>2.2</ele>
        <time>2020-06-04T13:36:14Z</time>
      </trkpt>
      <trkpt lat="46.91189" lon="-2.06924">
        <ele>2.2</ele>
        <time>2020-06-04T13:36:15Z</time>
      </trkpt>
      <trkpt lat="46.91189" lon="-2.06931">
        <ele>2.2</ele>
        <time>2020-06-04T13:36:16Z</time>
      </trkpt>
      <trkpt lat="46.91188" lon="-2.06938">
        <ele>2.2</ele>
        <time>2020-06-04T13:36:17Z</time>
      </trkpt>
      <trkpt lat="46.91188" lon="-2.06944">
        <ele>2.2</ele>
        <time>2020-06-04T13:36:18Z</time>
      </trkpt>
      <trkpt lat="46.91188" lon="-2.06951">
        <ele>2.2</ele>
        <time>2020-06-04T13:36:19Z</time>
      </trkpt>
      <trkpt lat="46.91187" lon="-2.06957">
        <ele>2.2</ele>
        <time>2020-06-04T13:36:20Z</time>
      </trkpt>
      <trkpt lat="46.91185" lon="-2.06964">
        <ele>2.2</ele>
        <time>2020-06-04T13:36:21Z</time>
      </trkpt>
      <trkpt lat="46.91185" lon="-2.06972">
        <ele>2.2</ele>
        <time>2020-06-04T13:36:22Z</time>
      </trkpt>
      <trkpt lat="46.91184" lon="-2.0698">
        <ele>2.2</ele>
        <time>2020-06-04T13:36:23Z</time>
      </trkpt>
      <trkpt lat="46.91184" lon="-2.06988">
        <ele>2.2</ele>
        <time>2020-06-04T13:36:24Z</time>
      </trkpt>
      <trkpt lat="46.91183" lon="-2.06995">
        <ele>2.2</ele>
        <time>2020-06-04T13:36:25Z</time>
      </trkpt>
      <trkpt lat="46.91183" lon="-2.07003">
        <ele>2.2</ele>
        <time>2020-06-04T13:36:26Z</time>
      </trkpt>
      <trkpt lat="46.91182" lon="-2.07011">
        <ele>2.2</ele>
        <time>2020-06-04T13:36:27Z</time>
      </trkpt>
      <trkpt lat="46.91179" lon="-2.07018">
        <ele>2.2</ele>
        <time>2020-06-04T13:36:28Z</time>
      </trkpt>
      <trkpt lat="46.91178" lon="-2.07026">
        <ele>2.1</ele>
        <time>2020-06-04T13:36:29Z</time>
      </trkpt>
      <trkpt lat="46.91175" lon="-2.07033">
        <ele>2.1</ele>
        <time>2020-06-04T13:36:30Z</time>
      </trkpt>
      <trkpt lat="46.91172" lon="-2.0704">
        <ele>2.1</ele>
        <time>2020-06-04T13:36:31Z</time>
      </trkpt>
      <trkpt lat="46.91168" lon="-2.07048">
        <ele>2.2</ele>
        <time>2020-06-04T13:36:32Z</time>
      </trkpt>
      <trkpt lat="46.91165" lon="-2.07054">
        <ele>2.2</ele>
        <time>2020-06-04T13:36:33Z</time>
      </trkpt>
      <trkpt lat="46.91161" lon="-2.07061">
        <ele>2.2</ele>
        <time>2020-06-04T13:36:34Z</time>
      </trkpt>
      <trkpt lat="46.91158" lon="-2.07069">
        <ele>2.2</ele>
        <time>2020-06-04T13:36:35Z</time>
      </trkpt>
      <trkpt lat="46.91155" lon="-2.07077">
        <ele>2.2</ele>
        <time>2020-06-04T13:36:36Z</time>
      </trkpt>
      <trkpt lat="46.91151" lon="-2.07084">
        <ele>2.2</ele>
        <time>2020-06-04T13:36:37Z</time>
      </trkpt>
      <trkpt lat="46.91147" lon="-2.07089">
        <ele>2.2</ele>
        <time>2020-06-04T13:36:38Z</time>
      </trkpt>
      <trkpt lat="46.91143" lon="-2.07094">
        <ele>2.1</ele>
        <time>2020-06-04T13:36:39Z</time>
      </trkpt>
      <trkpt lat="46.91138" lon="-2.07099">
        <ele>2.1</ele>
        <time>2020-06-04T13:36:40Z</time>
      </trkpt>
      <trkpt lat="46.91133" lon="-2.07102">
        <ele>2.1</ele>
        <time>2020-06-04T13:36:41Z</time>
      </trkpt>
      <trkpt lat="46.91129" lon="-2.07105">
        <ele>2.1</ele>
        <time>2020-06-04T13:36:42Z</time>
      </trkpt>
      <trkpt lat="46.91124" lon="-2.07108">
        <ele>2.1</ele>
        <time>2020-06-04T13:36:43Z</time>
      </trkpt>
      <trkpt lat="46.9112" lon="-2.07112">
        <ele>2.1</ele>
        <time>2020-06-04T13:36:44Z</time>
      </trkpt>
      <trkpt lat="46.91116" lon="-2.07116">
        <ele>2.1</ele>
        <time>2020-06-04T13:36:45Z</time>
      </trkpt>
      <trkpt lat="46.91112" lon="-2.0712">
        <ele>2.1</ele>
        <time>2020-06-04T13:36:46Z</time>
      </trkpt>
      <trkpt lat="46.91108" lon="-2.07124">
        <ele>2.1</ele>
        <time>2020-06-04T13:36:47Z</time>
      </trkpt>
      <trkpt lat="46.91104" lon="-2.07129">
        <ele>2.1</ele>
        <time>2020-06-04T13:36:48Z</time>
      </trkpt>
      <trkpt lat="46.91102" lon="-2.07134">
        <ele>2</ele>
        <time>2020-06-04T13:36:49Z</time>
      </trkpt>
      <trkpt lat="46.911" lon="-2.07139">
        <ele>2</ele>
        <time>2020-06-04T13:36:50Z</time>
      </trkpt>
      <trkpt lat="46.91099" lon="-2.07144">
        <ele>2</ele>
        <time>2020-06-04T13:36:51Z</time>
      </trkpt>
      <trkpt lat="46.91098" lon="-2.07149">
        <ele>2</ele>
        <time>2020-06-04T13:36:52Z</time>
      </trkpt>
      <trkpt lat="46.91097" lon="-2.07155">
        <ele>2</ele>
        <time>2020-06-04T13:36:53Z</time>
      </trkpt>
      <trkpt lat="46.91096" lon="-2.07162">
        <ele>2</ele>
        <time>2020-06-04T13:36:54Z</time>
      </trkpt>
      <trkpt lat="46.91098" lon="-2.07168">
        <ele>2</ele>
        <time>2020-06-04T13:36:55Z</time>
      </trkpt>
      <trkpt lat="46.91099" lon="-2.07174">
        <ele>2</ele>
        <time>2020-06-04T13:36:56Z</time>
      </trkpt>
      <trkpt lat="46.911" lon="-2.07181">
        <ele>2</ele>
        <time>2020-06-04T13:36:57Z</time>
      </trkpt>
      <trkpt lat="46.91101" lon="-2.07188">
        <ele>2.1</ele>
        <time>2020-06-04T13:36:58Z</time>
      </trkpt>
      <trkpt lat="46.91101" lon="-2.07195">
        <ele>2.1</ele>
        <time>2020-06-04T13:36:59Z</time>
      </trkpt>
      <trkpt lat="46.91102" lon="-2.07202">
        <ele>2.1</ele>
        <time>2020-06-04T13:37:00Z</time>
      </trkpt>
      <trkpt lat="46.91103" lon="-2.07209">
        <ele>2.1</ele>
        <time>2020-06-04T13:37:01Z</time>
      </trkpt>
      <trkpt lat="46.91104" lon="-2.07215">
        <ele>2.1</ele>
        <time>2020-06-04T13:37:02Z</time>
      </trkpt>
      <trkpt lat="46.91105" lon="-2.07222">
        <ele>2.1</ele>
        <time>2020-06-04T13:37:03Z</time>
      </trkpt>
      <trkpt lat="46.91106" lon="-2.07229">
        <ele>2.1</ele>
        <time>2020-06-04T13:37:04Z</time>
      </trkpt>
      <trkpt lat="46.91107" lon="-2.07237">
        <ele>2.1</ele>
        <time>2020-06-04T13:37:05Z</time>
      </trkpt>
      <trkpt lat="46.91107" lon="-2.07243">
        <ele>2.1</ele>
        <time>2020-06-04T13:37:06Z</time>
      </trkpt>
      <trkpt lat="46.91107" lon="-2.07251">
        <ele>2.1</ele>
        <time>2020-06-04T13:37:07Z</time>
      </trkpt>
      <trkpt lat="46.91108" lon="-2.07258">
        <ele>2.1</ele>
        <time>2020-06-04T13:37:08Z</time>
      </trkpt>
      <trkpt lat="46.91109" lon="-2.07266">
        <ele>2.1</ele>
        <time>2020-06-04T13:37:09Z</time>
      </trkpt>
      <trkpt lat="46.91109" lon="-2.07272">
        <ele>2.1</ele>
        <time>2020-06-04T13:37:10Z</time>
      </trkpt>
      <trkpt lat="46.9111" lon="-2.0728">
        <ele>2.2</ele>
        <time>2020-06-04T13:37:11Z</time>
      </trkpt>
      <trkpt lat="46.9111" lon="-2.07288">
        <ele>2.2</ele>
        <time>2020-06-04T13:37:12Z</time>
      </trkpt>
      <trkpt lat="46.91111" lon="-2.07296">
        <ele>2.2</ele>
        <time>2020-06-04T13:37:13Z</time>
      </trkpt>
      <trkpt lat="46.91111" lon="-2.07304">
        <ele>2.2</ele>
        <time>2020-06-04T13:37:14Z</time>
      </trkpt>
      <trkpt lat="46.91111" lon="-2.07312">
        <ele>2.2</ele>
        <time>2020-06-04T13:37:15Z</time>
      </trkpt>
      <trkpt lat="46.91111" lon="-2.0732">
        <ele>2.2</ele>
        <time>2020-06-04T13:37:16Z</time>
      </trkpt>
      <trkpt lat="46.9111" lon="-2.07327">
        <ele>2.2</ele>
        <time>2020-06-04T13:37:17Z</time>
      </trkpt>
      <trkpt lat="46.9111" lon="-2.07334">
        <ele>2.2</ele>
        <time>2020-06-04T13:37:18Z</time>
      </trkpt>
      <trkpt lat="46.9111" lon="-2.0734">
        <ele>2.2</ele>
        <time>2020-06-04T13:37:19Z</time>
      </trkpt>
      <trkpt lat="46.9111" lon="-2.07347">
        <ele>2.2</ele>
        <time>2020-06-04T13:37:20Z</time>
      </trkpt>
      <trkpt lat="46.9111" lon="-2.07354">
        <ele>2.2</ele>
        <time>2020-06-04T13:37:21Z</time>
      </trkpt>
      <trkpt lat="46.9111" lon="-2.07362">
        <ele>2.2</ele>
        <time>2020-06-04T13:37:22Z</time>
      </trkpt>
      <trkpt lat="46.9111" lon="-2.07369">
        <ele>2.2</ele>
        <time>2020-06-04T13:37:23Z</time>
      </trkpt>
      <trkpt lat="46.9111" lon="-2.07376">
        <ele>2.2</ele>
        <time>2020-06-04T13:37:24Z</time>
      </trkpt>
      <trkpt lat="46.91109" lon="-2.07383">
        <ele>2.2</ele>
        <time>2020-06-04T13:37:25Z</time>
      </trkpt>
      <trkpt lat="46.91109" lon="-2.0739">
        <ele>2.2</ele>
        <time>2020-06-04T13:37:26Z</time>
      </trkpt>
      <trkpt lat="46.91109" lon="-2.07397">
        <ele>2.2</ele>
        <time>2020-06-04T13:37:27Z</time>
      </trkpt>
      <trkpt lat="46.91108" lon="-2.07405">
        <ele>2.2</ele>
        <time>2020-06-04T13:37:28Z</time>
      </trkpt>
      <trkpt lat="46.91108" lon="-2.07412">
        <ele>2.2</ele>
        <time>2020-06-04T13:37:29Z</time>
      </trkpt>
      <trkpt lat="46.91108" lon="-2.0742">
        <ele>2.2</ele>
        <time>2020-06-04T13:37:30Z</time>
      </trkpt>
      <trkpt lat="46.91107" lon="-2.07428">
        <ele>2.2</ele>
        <time>2020-06-04T13:37:31Z</time>
      </trkpt>
      <trkpt lat="46.91107" lon="-2.07435">
        <ele>2.2</ele>
        <time>2020-06-04T13:37:32Z</time>
      </trkpt>
      <trkpt lat="46.91107" lon="-2.07443">
        <ele>2.2</ele>
        <time>2020-06-04T13:37:33Z</time>
      </trkpt>
      <trkpt lat="46.91107" lon="-2.07449">
        <ele>2.2</ele>
        <time>2020-06-04T13:37:34Z</time>
      </trkpt>
      <trkpt lat="46.91107" lon="-2.07456">
        <ele>2.2</ele>
        <time>2020-06-04T13:37:35Z</time>
      </trkpt>
      <trkpt lat="46.91106" lon="-2.07464">
        <ele>2.2</ele>
        <time>2020-06-04T13:37:36Z</time>
      </trkpt>
      <trkpt lat="46.91106" lon="-2.07472">
        <ele>2.2</ele>
        <time>2020-06-04T13:37:37Z</time>
      </trkpt>
      <trkpt lat="46.91106" lon="-2.07481">
        <ele>2.2</ele>
        <time>2020-06-04T13:37:38Z</time>
      </trkpt>
      <trkpt lat="46.91105" lon="-2.07488">
        <ele>2.2</ele>
        <time>2020-06-04T13:37:39Z</time>
      </trkpt>
      <trkpt lat="46.91105" lon="-2.07496">
        <ele>2.2</ele>
        <time>2020-06-04T13:37:40Z</time>
      </trkpt>
      <trkpt lat="46.91106" lon="-2.07503">
        <ele>2.2</ele>
        <time>2020-06-04T13:37:41Z</time>
      </trkpt>
      <trkpt lat="46.91108" lon="-2.0751">
        <ele>2.2</ele>
        <time>2020-06-04T13:37:42Z</time>
      </trkpt>
      <trkpt lat="46.91109" lon="-2.07516">
        <ele>2.2</ele>
        <time>2020-06-04T13:37:43Z</time>
      </trkpt>
      <trkpt lat="46.91111" lon="-2.07523">
        <ele>2.2</ele>
        <time>2020-06-04T13:37:44Z</time>
      </trkpt>
      <trkpt lat="46.91112" lon="-2.0753">
        <ele>2.2</ele>
        <time>2020-06-04T13:37:45Z</time>
      </trkpt>
      <trkpt lat="46.91114" lon="-2.07538">
        <ele>2.2</ele>
        <time>2020-06-04T13:37:46Z</time>
      </trkpt>
      <trkpt lat="46.91115" lon="-2.07545">
        <ele>2.2</ele>
        <time>2020-06-04T13:37:47Z</time>
      </trkpt>
      <trkpt lat="46.91116" lon="-2.07553">
        <ele>2.2</ele>
        <time>2020-06-04T13:37:48Z</time>
      </trkpt>
      <trkpt lat="46.91117" lon="-2.0756">
        <ele>2.2</ele>
        <time>2020-06-04T13:37:49Z</time>
      </trkpt>
      <trkpt lat="46.91118" lon="-2.07568">
        <ele>2.2</ele>
        <time>2020-06-04T13:37:50Z</time>
      </trkpt>
      <trkpt lat="46.9112" lon="-2.07575">
        <ele>2.2</ele>
        <time>2020-06-04T13:37:51Z</time>
      </trkpt>
      <trkpt lat="46.91122" lon="-2.07582">
        <ele>2.2</ele>
        <time>2020-06-04T13:37:52Z</time>
      </trkpt>
      <trkpt lat="46.91124" lon="-2.07587">
        <ele>2.2</ele>
        <time>2020-06-04T13:37:53Z</time>
      </trkpt>
      <trkpt lat="46.91126" lon="-2.07592">
        <ele>2.2</ele>
        <time>2020-06-04T13:37:54Z</time>
      </trkpt>
      <trkpt lat="46.91127" lon="-2.07598">
        <ele>2.2</ele>
        <time>2020-06-04T13:37:55Z</time>
      </trkpt>
      <trkpt lat="46.91129" lon="-2.07604">
        <ele>2.2</ele>
        <time>2020-06-04T13:37:56Z</time>
      </trkpt>
      <trkpt lat="46.9113" lon="-2.07609">
        <ele>2.2</ele>
        <time>2020-06-04T13:37:57Z</time>
      </trkpt>
      <trkpt lat="46.91132" lon="-2.07613">
        <ele>2.2</ele>
        <time>2020-06-04T13:37:58Z</time>
      </trkpt>
      <trkpt lat="46.91134" lon="-2.07618">
        <ele>2.2</ele>
        <time>2020-06-04T13:37:59Z</time>
      </trkpt>
      <trkpt lat="46.91136" lon="-2.07623">
        <ele>2.2</ele>
        <time>2020-06-04T13:38:00Z</time>
      </trkpt>
      <trkpt lat="46.91139" lon="-2.07628">
        <ele>2.2</ele>
        <time>2020-06-04T13:38:01Z</time>
      </trkpt>
      <trkpt lat="46.9114" lon="-2.07631">
        <ele>2.2</ele>
        <time>2020-06-04T13:38:02Z</time>
      </trkpt>
      <trkpt lat="46.91142" lon="-2.07636">
        <ele>2.2</ele>
        <time>2020-06-04T13:38:03Z</time>
      </trkpt>
      <trkpt lat="46.91145" lon="-2.0764">
        <ele>2.2</ele>
        <time>2020-06-04T13:38:04Z</time>
      </trkpt>
      <trkpt lat="46.91146" lon="-2.07644">
        <ele>2.2</ele>
        <time>2020-06-04T13:38:05Z</time>
      </trkpt>
      <trkpt lat="46.91148" lon="-2.0765">
        <ele>2.2</ele>
        <time>2020-06-04T13:38:06Z</time>
      </trkpt>
      <trkpt lat="46.91149" lon="-2.07655">
        <ele>2.2</ele>
        <time>2020-06-04T13:38:07Z</time>
      </trkpt>
      <trkpt lat="46.91151" lon="-2.0766">
        <ele>2.2</ele>
        <time>2020-06-04T13:38:08Z</time>
      </trkpt>
      <trkpt lat="46.91153" lon="-2.07666">
        <ele>2.2</ele>
        <time>2020-06-04T13:38:09Z</time>
      </trkpt>
      <trkpt lat="46.91155" lon="-2.07672">
        <ele>2.2</ele>
        <time>2020-06-04T13:38:10Z</time>
      </trkpt>
      <trkpt lat="46.91158" lon="-2.07677">
        <ele>2.2</ele>
        <time>2020-06-04T13:38:11Z</time>
      </trkpt>
      <trkpt lat="46.9116" lon="-2.07683">
        <ele>2.2</ele>
        <time>2020-06-04T13:38:12Z</time>
      </trkpt>
      <trkpt lat="46.91162" lon="-2.07688">
        <ele>2.2</ele>
        <time>2020-06-04T13:38:13Z</time>
      </trkpt>
      <trkpt lat="46.91163" lon="-2.07693">
        <ele>2.3</ele>
        <time>2020-06-04T13:38:14Z</time>
      </trkpt>
      <trkpt lat="46.91165" lon="-2.07699">
        <ele>2.3</ele>
        <time>2020-06-04T13:38:15Z</time>
      </trkpt>
      <trkpt lat="46.91167" lon="-2.07705">
        <ele>2.3</ele>
        <time>2020-06-04T13:38:16Z</time>
      </trkpt>
      <trkpt lat="46.9117" lon="-2.0771">
        <ele>2.3</ele>
        <time>2020-06-04T13:38:17Z</time>
      </trkpt>
      <trkpt lat="46.91173" lon="-2.07716">
        <ele>2.3</ele>
        <time>2020-06-04T13:38:18Z</time>
      </trkpt>
      <trkpt lat="46.91176" lon="-2.07722">
        <ele>2.3</ele>
        <time>2020-06-04T13:38:19Z</time>
      </trkpt>
      <trkpt lat="46.91178" lon="-2.07727">
        <ele>2.3</ele>
        <time>2020-06-04T13:38:20Z</time>
      </trkpt>
      <trkpt lat="46.91181" lon="-2.07732">
        <ele>2.3</ele>
        <time>2020-06-04T13:38:21Z</time>
      </trkpt>
      <trkpt lat="46.91183" lon="-2.07738">
        <ele>2.3</ele>
        <time>2020-06-04T13:38:22Z</time>
      </trkpt>
      <trkpt lat="46.91186" lon="-2.07744">
        <ele>2.3</ele>
        <time>2020-06-04T13:38:23Z</time>
      </trkpt>
      <trkpt lat="46.91189" lon="-2.07749">
        <ele>2.3</ele>
        <time>2020-06-04T13:38:24Z</time>
      </trkpt>
      <trkpt lat="46.91191" lon="-2.07756">
        <ele>2.3</ele>
        <time>2020-06-04T13:38:25Z</time>
      </trkpt>
      <trkpt lat="46.91193" lon="-2.07762">
        <ele>2.3</ele>
        <time>2020-06-04T13:38:26Z</time>
      </trkpt>
      <trkpt lat="46.91196" lon="-2.07767">
        <ele>2.3</ele>
        <time>2020-06-04T13:38:27Z</time>
      </trkpt>
      <trkpt lat="46.91199" lon="-2.07772">
        <ele>2.3</ele>
        <time>2020-06-04T13:38:28Z</time>
      </trkpt>
      <trkpt lat="46.91202" lon="-2.07776">
        <ele>2.2</ele>
        <time>2020-06-04T13:38:29Z</time>
      </trkpt>
      <trkpt lat="46.91205" lon="-2.07781">
        <ele>2.2</ele>
        <time>2020-06-04T13:38:30Z</time>
      </trkpt>
      <trkpt lat="46.91208" lon="-2.07785">
        <ele>2.2</ele>
        <time>2020-06-04T13:38:31Z</time>
      </trkpt>
      <trkpt lat="46.91211" lon="-2.0779">
        <ele>2.2</ele>
        <time>2020-06-04T13:38:32Z</time>
      </trkpt>
      <trkpt lat="46.91215" lon="-2.07795">
        <ele>2.2</ele>
        <time>2020-06-04T13:38:33Z</time>
      </trkpt>
      <trkpt lat="46.91218" lon="-2.07799">
        <ele>2.2</ele>
        <time>2020-06-04T13:38:34Z</time>
      </trkpt>
      <trkpt lat="46.91221" lon="-2.07803">
        <ele>2.2</ele>
        <time>2020-06-04T13:38:35Z</time>
      </trkpt>
      <trkpt lat="46.91225" lon="-2.07807">
        <ele>2.2</ele>
        <time>2020-06-04T13:38:36Z</time>
      </trkpt>
      <trkpt lat="46.91227" lon="-2.07812">
        <ele>2.2</ele>
        <time>2020-06-04T13:38:37Z</time>
      </trkpt>
      <trkpt lat="46.9123" lon="-2.07818">
        <ele>2.1</ele>
        <time>2020-06-04T13:38:38Z</time>
      </trkpt>
      <trkpt lat="46.91234" lon="-2.07822">
        <ele>2.1</ele>
        <time>2020-06-04T13:38:39Z</time>
      </trkpt>
      <trkpt lat="46.91238" lon="-2.07826">
        <ele>2.1</ele>
        <time>2020-06-04T13:38:40Z</time>
      </trkpt>
      <trkpt lat="46.9124" lon="-2.07832">
        <ele>2.1</ele>
        <time>2020-06-04T13:38:41Z</time>
      </trkpt>
      <trkpt lat="46.91243" lon="-2.07839">
        <ele>2.1</ele>
        <time>2020-06-04T13:38:42Z</time>
      </trkpt>
      <trkpt lat="46.91244" lon="-2.07846">
        <ele>2.1</ele>
        <time>2020-06-04T13:38:43Z</time>
      </trkpt>
      <trkpt lat="46.91246" lon="-2.07851">
        <ele>2.1</ele>
        <time>2020-06-04T13:38:44Z</time>
      </trkpt>
      <trkpt lat="46.91247" lon="-2.07857">
        <ele>2.1</ele>
        <time>2020-06-04T13:38:45Z</time>
      </trkpt>
      <trkpt lat="46.91248" lon="-2.07864">
        <ele>2.1</ele>
        <time>2020-06-04T13:38:46Z</time>
      </trkpt>
      <trkpt lat="46.91248" lon="-2.0787">
        <ele>2.1</ele>
        <time>2020-06-04T13:38:47Z</time>
      </trkpt>
      <trkpt lat="46.91248" lon="-2.07876">
        <ele>2.1</ele>
        <time>2020-06-04T13:38:48Z</time>
      </trkpt>
      <trkpt lat="46.91248" lon="-2.07882">
        <ele>2.1</ele>
        <time>2020-06-04T13:38:49Z</time>
      </trkpt>
      <trkpt lat="46.91248" lon="-2.07889">
        <ele>2.1</ele>
        <time>2020-06-04T13:38:50Z</time>
      </trkpt>
      <trkpt lat="46.91248" lon="-2.07896">
        <ele>2.1</ele>
        <time>2020-06-04T13:38:51Z</time>
      </trkpt>
      <trkpt lat="46.91247" lon="-2.07902">
        <ele>2</ele>
        <time>2020-06-04T13:38:52Z</time>
      </trkpt>
      <trkpt lat="46.91247" lon="-2.07909">
        <ele>2</ele>
        <time>2020-06-04T13:38:53Z</time>
      </trkpt>
      <trkpt lat="46.91247" lon="-2.07916">
        <ele>2</ele>
        <time>2020-06-04T13:38:54Z</time>
      </trkpt>
      <trkpt lat="46.91247" lon="-2.07923">
        <ele>2</ele>
        <time>2020-06-04T13:38:55Z</time>
      </trkpt>
      <trkpt lat="46.91246" lon="-2.0793">
        <ele>2</ele>
        <time>2020-06-04T13:38:56Z</time>
      </trkpt>
      <trkpt lat="46.91246" lon="-2.07936">
        <ele>2</ele>
        <time>2020-06-04T13:38:57Z</time>
      </trkpt>
      <trkpt lat="46.91246" lon="-2.07941">
        <ele>2</ele>
        <time>2020-06-04T13:38:58Z</time>
      </trkpt>
      <trkpt lat="46.91246" lon="-2.07947">
        <ele>2</ele>
        <time>2020-06-04T13:38:59Z</time>
      </trkpt>
      <trkpt lat="46.91246" lon="-2.07954">
        <ele>2</ele>
        <time>2020-06-04T13:39:00Z</time>
      </trkpt>
      <trkpt lat="46.91246" lon="-2.07961">
        <ele>2</ele>
        <time>2020-06-04T13:39:01Z</time>
      </trkpt>
      <trkpt lat="46.91246" lon="-2.07966">
        <ele>1.9</ele>
        <time>2020-06-04T13:39:02Z</time>
      </trkpt>
      <trkpt lat="46.91245" lon="-2.07973">
        <ele>1.9</ele>
        <time>2020-06-04T13:39:03Z</time>
      </trkpt>
      <trkpt lat="46.91245" lon="-2.07979">
        <ele>1.9</ele>
        <time>2020-06-04T13:39:04Z</time>
      </trkpt>
      <trkpt lat="46.91245" lon="-2.07985">
        <ele>1.9</ele>
        <time>2020-06-04T13:39:05Z</time>
      </trkpt>
      <trkpt lat="46.91246" lon="-2.07991">
        <ele>1.9</ele>
        <time>2020-06-04T13:39:06Z</time>
      </trkpt>
      <trkpt lat="46.91246" lon="-2.07997">
        <ele>1.9</ele>
        <time>2020-06-04T13:39:07Z</time>
      </trkpt>
      <trkpt lat="46.91246" lon="-2.08003">
        <ele>1.9</ele>
        <time>2020-06-04T13:39:08Z</time>
      </trkpt>
      <trkpt lat="46.91246" lon="-2.08009">
        <ele>1.9</ele>
        <time>2020-06-04T13:39:09Z</time>
      </trkpt>
      <trkpt lat="46.91245" lon="-2.08016">
        <ele>1.9</ele>
        <time>2020-06-04T13:39:10Z</time>
      </trkpt>
      <trkpt lat="46.91245" lon="-2.08021">
        <ele>2</ele>
        <time>2020-06-04T13:39:11Z</time>
      </trkpt>
      <trkpt lat="46.91245" lon="-2.08026">
        <ele>2</ele>
        <time>2020-06-04T13:39:12Z</time>
      </trkpt>
      <trkpt lat="46.91244" lon="-2.08031">
        <ele>2</ele>
        <time>2020-06-04T13:39:13Z</time>
      </trkpt>
      <trkpt lat="46.91244" lon="-2.08036">
        <ele>2</ele>
        <time>2020-06-04T13:39:14Z</time>
      </trkpt>
      <trkpt lat="46.91243" lon="-2.08041">
        <ele>2</ele>
        <time>2020-06-04T13:39:15Z</time>
      </trkpt>
      <trkpt lat="46.91243" lon="-2.08046">
        <ele>2</ele>
        <time>2020-06-04T13:39:16Z</time>
      </trkpt>
      <trkpt lat="46.91242" lon="-2.08051">
        <ele>2</ele>
        <time>2020-06-04T13:39:17Z</time>
      </trkpt>
      <trkpt lat="46.91242" lon="-2.08056">
        <ele>1.9</ele>
        <time>2020-06-04T13:39:18Z</time>
      </trkpt>
      <trkpt lat="46.91241" lon="-2.08061">
        <ele>1.9</ele>
        <time>2020-06-04T13:39:19Z</time>
      </trkpt>
      <trkpt lat="46.91241" lon="-2.08067">
        <ele>1.9</ele>
        <time>2020-06-04T13:39:20Z</time>
      </trkpt>
      <trkpt lat="46.91241" lon="-2.08072">
        <ele>1.9</ele>
        <time>2020-06-04T13:39:21Z</time>
      </trkpt>
      <trkpt lat="46.9124" lon="-2.08077">
        <ele>1.9</ele>
        <time>2020-06-04T13:39:22Z</time>
      </trkpt>
      <trkpt lat="46.9124" lon="-2.08081">
        <ele>1.9</ele>
        <time>2020-06-04T13:39:23Z</time>
      </trkpt>
      <trkpt lat="46.9124" lon="-2.08086">
        <ele>1.9</ele>
        <time>2020-06-04T13:39:24Z</time>
      </trkpt>
      <trkpt lat="46.9124" lon="-2.0809">
        <ele>1.9</ele>
        <time>2020-06-04T13:39:25Z</time>
      </trkpt>
      <trkpt lat="46.9124" lon="-2.08095">
        <ele>1.9</ele>
        <time>2020-06-04T13:39:26Z</time>
      </trkpt>
      <trkpt lat="46.9124" lon="-2.08096">
        <ele>1.9</ele>
        <time>2020-06-04T13:39:27Z</time>
      </trkpt>
      <trkpt lat="46.9124" lon="-2.08098">
        <ele>1.9</ele>
        <time>2020-06-04T13:39:28Z</time>
      </trkpt>
      <trkpt lat="46.91241" lon="-2.08099">
        <ele>1.9</ele>
        <time>2020-06-04T13:39:29Z</time>
      </trkpt>
      <trkpt lat="46.91241" lon="-2.08099">
        <ele>1.9</ele>
        <time>2020-06-04T13:39:30Z</time>
      </trkpt>
      <trkpt lat="46.91242" lon="-2.081">
        <ele>1.9</ele>
        <time>2020-06-04T13:39:31Z</time>
      </trkpt>
      <trkpt lat="46.91242" lon="-2.081">
        <ele>1.9</ele>
        <time>2020-06-04T13:39:32Z</time>
      </trkpt>
      <trkpt lat="46.91242" lon="-2.08101">
        <ele>1.9</ele>
        <time>2020-06-04T13:39:33Z</time>
      </trkpt>
      <trkpt lat="46.91243" lon="-2.08101">
        <ele>1.9</ele>
        <time>2020-06-04T13:39:34Z</time>
      </trkpt>
      <trkpt lat="46.91243" lon="-2.08101">
        <ele>1.9</ele>
        <time>2020-06-04T13:39:35Z</time>
      </trkpt>
      <trkpt lat="46.91244" lon="-2.08102">
        <ele>1.9</ele>
        <time>2020-06-04T13:39:36Z</time>
      </trkpt>
      <trkpt lat="46.91244" lon="-2.08102">
        <ele>1.9</ele>
        <time>2020-06-04T13:39:37Z</time>
      </trkpt>
      <trkpt lat="46.91245" lon="-2.08103">
        <ele>1.9</ele>
        <time>2020-06-04T13:39:38Z</time>
      </trkpt>
      <trkpt lat="46.91245" lon="-2.08103">
        <ele>1.9</ele>
        <time>2020-06-04T13:39:39Z</time>
      </trkpt>
      <trkpt lat="46.91246" lon="-2.08104">
        <ele>1.9</ele>
        <time>2020-06-04T13:39:40Z</time>
      </trkpt>
      <trkpt lat="46.91246" lon="-2.08104">
        <ele>1.9</ele>
        <time>2020-06-04T13:45:09Z</time>
      </trkpt>
      <trkpt lat="46.91247" lon="-2.08105">
        <ele>1.9</ele>
        <time>2020-06-04T13:45:10Z</time>
      </trkpt>
      <trkpt lat="46.9125" lon="-2.08106">
        <ele>1.9</ele>
        <time>2020-06-04T13:45:11Z</time>
      </trkpt>
      <trkpt lat="46.91254" lon="-2.08106">
        <ele>1.9</ele>
        <time>2020-06-04T13:45:12Z</time>
      </trkpt>
      <trkpt lat="46.91257" lon="-2.08105">
        <ele>1.9</ele>
        <time>2020-06-04T13:45:13Z</time>
      </trkpt>
      <trkpt lat="46.91261" lon="-2.08106">
        <ele>1.9</ele>
        <time>2020-06-04T13:45:14Z</time>
      </trkpt>
      <trkpt lat="46.91266" lon="-2.08106">
        <ele>1.9</ele>
        <time>2020-06-04T13:45:15Z</time>
      </trkpt>
      <trkpt lat="46.9127" lon="-2.08106">
        <ele>1.9</ele>
        <time>2020-06-04T13:45:16Z</time>
      </trkpt>
      <trkpt lat="46.91274" lon="-2.08107">
        <ele>1.9</ele>
        <time>2020-06-04T13:45:17Z</time>
      </trkpt>
      <trkpt lat="46.91278" lon="-2.08108">
        <ele>1.9</ele>
        <time>2020-06-04T13:45:18Z</time>
      </trkpt>
      <trkpt lat="46.91282" lon="-2.08109">
        <ele>1.9</ele>
        <time>2020-06-04T13:45:19Z</time>
      </trkpt>
      <trkpt lat="46.91287" lon="-2.0811">
        <ele>1.9</ele>
        <time>2020-06-04T13:45:20Z</time>
      </trkpt>
      <trkpt lat="46.91291" lon="-2.0811">
        <ele>1.9</ele>
        <time>2020-06-04T13:45:21Z</time>
      </trkpt>
      <trkpt lat="46.91296" lon="-2.08111">
        <ele>1.9</ele>
        <time>2020-06-04T13:45:22Z</time>
      </trkpt>
      <trkpt lat="46.913" lon="-2.08111">
        <ele>1.9</ele>
        <time>2020-06-04T13:45:23Z</time>
      </trkpt>
      <trkpt lat="46.91304" lon="-2.08112">
        <ele>1.9</ele>
        <time>2020-06-04T13:45:24Z</time>
      </trkpt>
      <trkpt lat="46.91309" lon="-2.08112">
        <ele>1.9</ele>
        <time>2020-06-04T13:45:25Z</time>
      </trkpt>
      <trkpt lat="46.91312" lon="-2.08113">
        <ele>1.9</ele>
        <time>2020-06-04T13:45:26Z</time>
      </trkpt>
      <trkpt lat="46.91317" lon="-2.08112">
        <ele>1.9</ele>
        <time>2020-06-04T13:45:27Z</time>
      </trkpt>
      <trkpt lat="46.91322" lon="-2.0811">
        <ele>1.9</ele>
        <time>2020-06-04T13:45:28Z</time>
      </trkpt>
      <trkpt lat="46.91326" lon="-2.08108">
        <ele>1.9</ele>
        <time>2020-06-04T13:45:29Z</time>
      </trkpt>
      <trkpt lat="46.9133" lon="-2.08105">
        <ele>1.9</ele>
        <time>2020-06-04T13:45:30Z</time>
      </trkpt>
      <trkpt lat="46.91333" lon="-2.08098">
        <ele>1.9</ele>
        <time>2020-06-04T13:45:31Z</time>
      </trkpt>
      <trkpt lat="46.91335" lon="-2.08092">
        <ele>1.9</ele>
        <time>2020-06-04T13:45:32Z</time>
      </trkpt>
      <trkpt lat="46.91337" lon="-2.08084">
        <ele>1.9</ele>
        <time>2020-06-04T13:45:33Z</time>
      </trkpt>
      <trkpt lat="46.91339" lon="-2.08078">
        <ele>1.9</ele>
        <time>2020-06-04T13:45:34Z</time>
      </trkpt>
      <trkpt lat="46.91339" lon="-2.08072">
        <ele>1.9</ele>
        <time>2020-06-04T13:45:35Z</time>
      </trkpt>
      <trkpt lat="46.9134" lon="-2.08066">
        <ele>1.9</ele>
        <time>2020-06-04T13:45:36Z</time>
      </trkpt>
      <trkpt lat="46.91342" lon="-2.0806">
        <ele>2</ele>
        <time>2020-06-04T13:45:37Z</time>
      </trkpt>
      <trkpt lat="46.91343" lon="-2.08054">
        <ele>2</ele>
        <time>2020-06-04T13:45:38Z</time>
      </trkpt>
      <trkpt lat="46.91344" lon="-2.08049">
        <ele>2</ele>
        <time>2020-06-04T13:45:39Z</time>
      </trkpt>
      <trkpt lat="46.91346" lon="-2.08044">
        <ele>2</ele>
        <time>2020-06-04T13:45:40Z</time>
      </trkpt>
      <trkpt lat="46.91348" lon="-2.0804">
        <ele>2</ele>
        <time>2020-06-04T13:45:41Z</time>
      </trkpt>
      <trkpt lat="46.91352" lon="-2.08038">
        <ele>2</ele>
        <time>2020-06-04T13:45:42Z</time>
      </trkpt>
      <trkpt lat="46.91357" lon="-2.08036">
        <ele>2.1</ele>
        <time>2020-06-04T13:45:43Z</time>
      </trkpt>
      <trkpt lat="46.91362" lon="-2.08034">
        <ele>2.1</ele>
        <time>2020-06-04T13:45:44Z</time>
      </trkpt>
      <trkpt lat="46.91367" lon="-2.08034">
        <ele>2.1</ele>
        <time>2020-06-04T13:45:45Z</time>
      </trkpt>
      <trkpt lat="46.91372" lon="-2.08034">
        <ele>2.1</ele>
        <time>2020-06-04T13:45:46Z</time>
      </trkpt>
      <trkpt lat="46.91377" lon="-2.08034">
        <ele>2.1</ele>
        <time>2020-06-04T13:45:47Z</time>
      </trkpt>
      <trkpt lat="46.91381" lon="-2.08035">
        <ele>2.1</ele>
        <time>2020-06-04T13:45:48Z</time>
      </trkpt>
      <trkpt lat="46.91385" lon="-2.08037">
        <ele>2.1</ele>
        <time>2020-06-04T13:45:49Z</time>
      </trkpt>
      <trkpt lat="46.91389" lon="-2.0804">
        <ele>2.2</ele>
        <time>2020-06-04T13:45:50Z</time>
      </trkpt>
      <trkpt lat="46.91394" lon="-2.08043">
        <ele>2.2</ele>
        <time>2020-06-04T13:45:51Z</time>
      </trkpt>
      <trkpt lat="46.91397" lon="-2.08045">
        <ele>2.2</ele>
        <time>2020-06-04T13:45:52Z</time>
      </trkpt>
      <trkpt lat="46.91401" lon="-2.08047">
        <ele>2.2</ele>
        <time>2020-06-04T13:45:53Z</time>
      </trkpt>
      <trkpt lat="46.91406" lon="-2.0805">
        <ele>2.2</ele>
        <time>2020-06-04T13:45:54Z</time>
      </trkpt>
      <trkpt lat="46.91408" lon="-2.08056">
        <ele>2.2</ele>
        <time>2020-06-04T13:45:55Z</time>
      </trkpt>
      <trkpt lat="46.91413" lon="-2.08058">
        <ele>2.2</ele>
        <time>2020-06-04T13:45:56Z</time>
      </trkpt>
      <trkpt lat="46.91417" lon="-2.08061">
        <ele>2.2</ele>
        <time>2020-06-04T13:45:57Z</time>
      </trkpt>
      <trkpt lat="46.91421" lon="-2.08063">
        <ele>2.2</ele>
        <time>2020-06-04T13:45:58Z</time>
      </trkpt>
      <trkpt lat="46.91426" lon="-2.08066">
        <ele>2.2</ele>
        <time>2020-06-04T13:45:59Z</time>
      </trkpt>
      <trkpt lat="46.9143" lon="-2.08068">
        <ele>2.2</ele>
        <time>2020-06-04T13:46:00Z</time>
      </trkpt>
      <trkpt lat="46.91433" lon="-2.0807">
        <ele>2.2</ele>
        <time>2020-06-04T13:46:01Z</time>
      </trkpt>
      <trkpt lat="46.91437" lon="-2.08071">
        <ele>2.2</ele>
        <time>2020-06-04T13:46:02Z</time>
      </trkpt>
      <trkpt lat="46.91441" lon="-2.08073">
        <ele>2.2</ele>
        <time>2020-06-04T13:46:03Z</time>
      </trkpt>
      <trkpt lat="46.91444" lon="-2.08074">
        <ele>2.2</ele>
        <time>2020-06-04T13:46:04Z</time>
      </trkpt>
      <trkpt lat="46.91448" lon="-2.08074">
        <ele>2.2</ele>
        <time>2020-06-04T13:46:05Z</time>
      </trkpt>
      <trkpt lat="46.91452" lon="-2.08075">
        <ele>2.3</ele>
        <time>2020-06-04T13:46:06Z</time>
      </trkpt>
      <trkpt lat="46.91454" lon="-2.08075">
        <ele>2.3</ele>
        <time>2020-06-04T13:46:07Z</time>
      </trkpt>
      <trkpt lat="46.91457" lon="-2.08075">
        <ele>2.3</ele>
        <time>2020-06-04T13:46:08Z</time>
      </trkpt>
      <trkpt lat="46.9146" lon="-2.08075">
        <ele>2.3</ele>
        <time>2020-06-04T13:46:09Z</time>
      </trkpt>
      <trkpt lat="46.91463" lon="-2.08075">
        <ele>2.3</ele>
        <time>2020-06-04T13:46:10Z</time>
      </trkpt>
      <trkpt lat="46.91467" lon="-2.08078">
        <ele>2.3</ele>
        <time>2020-06-04T13:46:11Z</time>
      </trkpt>
      <trkpt lat="46.91468" lon="-2.08079">
        <ele>2.3</ele>
        <time>2020-06-04T13:46:12Z</time>
      </trkpt>
      <trkpt lat="46.9147" lon="-2.08083">
        <ele>2.3</ele>
        <time>2020-06-04T13:46:13Z</time>
      </trkpt>
      <trkpt lat="46.9147" lon="-2.08087">
        <ele>2.3</ele>
        <time>2020-06-04T13:46:14Z</time>
      </trkpt>
      <trkpt lat="46.91471" lon="-2.08092">
        <ele>2.3</ele>
        <time>2020-06-04T13:46:15Z</time>
      </trkpt>
      <trkpt lat="46.91471" lon="-2.08094">
        <ele>2.3</ele>
        <time>2020-06-04T13:46:16Z</time>
      </trkpt>
      <trkpt lat="46.91471" lon="-2.08099">
        <ele>2.3</ele>
        <time>2020-06-04T13:46:17Z</time>
      </trkpt>
      <trkpt lat="46.91471" lon="-2.08103">
        <ele>2.3</ele>
        <time>2020-06-04T13:46:18Z</time>
      </trkpt>
      <trkpt lat="46.91471" lon="-2.08107">
        <ele>2.3</ele>
        <time>2020-06-04T13:46:19Z</time>
      </trkpt>
      <trkpt lat="46.91471" lon="-2.08113">
        <ele>2.3</ele>
        <time>2020-06-04T13:46:20Z</time>
      </trkpt>
      <trkpt lat="46.91472" lon="-2.08117">
        <ele>2.3</ele>
        <time>2020-06-04T13:46:21Z</time>
      </trkpt>
      <trkpt lat="46.91473" lon="-2.08122">
        <ele>2.3</ele>
        <time>2020-06-04T13:46:22Z</time>
      </trkpt>
      <trkpt lat="46.91474" lon="-2.08127">
        <ele>2.3</ele>
        <time>2020-06-04T13:46:23Z</time>
      </trkpt>
      <trkpt lat="46.91475" lon="-2.08132">
        <ele>2.3</ele>
        <time>2020-06-04T13:46:24Z</time>
      </trkpt>
      <trkpt lat="46.91477" lon="-2.08138">
        <ele>2.3</ele>
        <time>2020-06-04T13:46:25Z</time>
      </trkpt>
      <trkpt lat="46.91477" lon="-2.08144">
        <ele>2.3</ele>
        <time>2020-06-04T13:46:26Z</time>
      </trkpt>
      <trkpt lat="46.91479" lon="-2.08149">
        <ele>2.3</ele>
        <time>2020-06-04T13:46:27Z</time>
      </trkpt>
      <trkpt lat="46.9148" lon="-2.08155">
        <ele>2.3</ele>
        <time>2020-06-04T13:46:28Z</time>
      </trkpt>
      <trkpt lat="46.91482" lon="-2.0816">
        <ele>2.3</ele>
        <time>2020-06-04T13:46:29Z</time>
      </trkpt>
      <trkpt lat="46.91483" lon="-2.08166">
        <ele>2.3</ele>
        <time>2020-06-04T13:46:30Z</time>
      </trkpt>
      <trkpt lat="46.91483" lon="-2.08168">
        <ele>2.3</ele>
        <time>2020-06-04T13:46:31Z</time>
      </trkpt>
      <trkpt lat="46.91484" lon="-2.08172">
        <ele>2.3</ele>
        <time>2020-06-04T13:46:32Z</time>
      </trkpt>
      <trkpt lat="46.91484" lon="-2.08179">
        <ele>2.3</ele>
        <time>2020-06-04T13:46:33Z</time>
      </trkpt>
      <trkpt lat="46.91484" lon="-2.08183">
        <ele>2.3</ele>
        <time>2020-06-04T13:46:34Z</time>
      </trkpt>
      <trkpt lat="46.91484" lon="-2.08187">
        <ele>2.3</ele>
        <time>2020-06-04T13:46:35Z</time>
      </trkpt>
      <trkpt lat="46.91484" lon="-2.08191">
        <ele>2.3</ele>
        <time>2020-06-04T13:46:36Z</time>
      </trkpt>
      <trkpt lat="46.91484" lon="-2.08196">
        <ele>2.3</ele>
        <time>2020-06-04T13:46:37Z</time>
      </trkpt>
      <trkpt lat="46.91483" lon="-2.082">
        <ele>2.3</ele>
        <time>2020-06-04T13:46:38Z</time>
      </trkpt>
      <trkpt lat="46.91483" lon="-2.08206">
        <ele>2.3</ele>
        <time>2020-06-04T13:46:39Z</time>
      </trkpt>
      <trkpt lat="46.91483" lon="-2.08211">
        <ele>2.3</ele>
        <time>2020-06-04T13:46:40Z</time>
      </trkpt>
      <trkpt lat="46.91483" lon="-2.08217">
        <ele>2.3</ele>
        <time>2020-06-04T13:46:41Z</time>
      </trkpt>
      <trkpt lat="46.91483" lon="-2.08223">
        <ele>2.3</ele>
        <time>2020-06-04T13:46:42Z</time>
      </trkpt>
      <trkpt lat="46.91483" lon="-2.08229">
        <ele>2.3</ele>
        <time>2020-06-04T13:46:43Z</time>
      </trkpt>
      <trkpt lat="46.91483" lon="-2.08234">
        <ele>2.3</ele>
        <time>2020-06-04T13:46:44Z</time>
      </trkpt>
      <trkpt lat="46.91483" lon="-2.08239">
        <ele>2.3</ele>
        <time>2020-06-04T13:46:45Z</time>
      </trkpt>
      <trkpt lat="46.91483" lon="-2.08245">
        <ele>2.3</ele>
        <time>2020-06-04T13:46:46Z</time>
      </trkpt>
      <trkpt lat="46.91484" lon="-2.08251">
        <ele>2.3</ele>
        <time>2020-06-04T13:46:47Z</time>
      </trkpt>
      <trkpt lat="46.91485" lon="-2.08257">
        <ele>2.3</ele>
        <time>2020-06-04T13:46:48Z</time>
      </trkpt>
      <trkpt lat="46.91486" lon="-2.08264">
        <ele>2.3</ele>
        <time>2020-06-04T13:46:49Z</time>
      </trkpt>
      <trkpt lat="46.91486" lon="-2.0827">
        <ele>2.3</ele>
        <time>2020-06-04T13:46:50Z</time>
      </trkpt>
      <trkpt lat="46.91486" lon="-2.08275">
        <ele>2.3</ele>
        <time>2020-06-04T13:46:51Z</time>
      </trkpt>
      <trkpt lat="46.91487" lon="-2.0828">
        <ele>2.3</ele>
        <time>2020-06-04T13:46:52Z</time>
      </trkpt>
      <trkpt lat="46.91488" lon="-2.08285">
        <ele>2.3</ele>
        <time>2020-06-04T13:46:53Z</time>
      </trkpt>
      <trkpt lat="46.9149" lon="-2.08291">
        <ele>2.3</ele>
        <time>2020-06-04T13:46:54Z</time>
      </trkpt>
      <trkpt lat="46.91493" lon="-2.08293">
        <ele>2.3</ele>
        <time>2020-06-04T13:46:55Z</time>
      </trkpt>
      <trkpt lat="46.91497" lon="-2.08295">
        <ele>2.3</ele>
        <time>2020-06-04T13:46:56Z</time>
      </trkpt>
      <trkpt lat="46.91502" lon="-2.08296">
        <ele>2.3</ele>
        <time>2020-06-04T13:46:57Z</time>
      </trkpt>
      <trkpt lat="46.91507" lon="-2.08295">
        <ele>2.3</ele>
        <time>2020-06-04T13:46:58Z</time>
      </trkpt>
      <trkpt lat="46.91511" lon="-2.08294">
        <ele>2.3</ele>
        <time>2020-06-04T13:46:59Z</time>
      </trkpt>
      <trkpt lat="46.91515" lon="-2.08293">
        <ele>2.3</ele>
        <time>2020-06-04T13:47:00Z</time>
      </trkpt>
      <trkpt lat="46.91519" lon="-2.08291">
        <ele>2.3</ele>
        <time>2020-06-04T13:47:01Z</time>
      </trkpt>
      <trkpt lat="46.91523" lon="-2.0829">
        <ele>2.3</ele>
        <time>2020-06-04T13:47:02Z</time>
      </trkpt>
      <trkpt lat="46.91526" lon="-2.08287">
        <ele>2.3</ele>
        <time>2020-06-04T13:47:03Z</time>
      </trkpt>
      <trkpt lat="46.9153" lon="-2.08283">
        <ele>2.3</ele>
        <time>2020-06-04T13:47:04Z</time>
      </trkpt>
      <trkpt lat="46.91534" lon="-2.08279">
        <ele>2.3</ele>
        <time>2020-06-04T13:47:05Z</time>
      </trkpt>
      <trkpt lat="46.91537" lon="-2.08275">
        <ele>2.3</ele>
        <time>2020-06-04T13:47:06Z</time>
      </trkpt>
      <trkpt lat="46.9154" lon="-2.08271">
        <ele>2.3</ele>
        <time>2020-06-04T13:47:07Z</time>
      </trkpt>
      <trkpt lat="46.91543" lon="-2.08267">
        <ele>2.3</ele>
        <time>2020-06-04T13:47:08Z</time>
      </trkpt>
      <trkpt lat="46.91545" lon="-2.08264">
        <ele>2.4</ele>
        <time>2020-06-04T13:47:09Z</time>
      </trkpt>
      <trkpt lat="46.91548" lon="-2.08261">
        <ele>2.4</ele>
        <time>2020-06-04T13:47:10Z</time>
      </trkpt>
      <trkpt lat="46.9155" lon="-2.08258">
        <ele>2.4</ele>
        <time>2020-06-04T13:47:11Z</time>
      </trkpt>
      <trkpt lat="46.91553" lon="-2.08254">
        <ele>2.4</ele>
        <time>2020-06-04T13:47:12Z</time>
      </trkpt>
      <trkpt lat="46.91556" lon="-2.0825">
        <ele>2.4</ele>
        <time>2020-06-04T13:47:13Z</time>
      </trkpt>
      <trkpt lat="46.91559" lon="-2.08246">
        <ele>2.4</ele>
        <time>2020-06-04T13:47:14Z</time>
      </trkpt>
      <trkpt lat="46.91562" lon="-2.08242">
        <ele>2.4</ele>
        <time>2020-06-04T13:47:15Z</time>
      </trkpt>
      <trkpt lat="46.91565" lon="-2.08239">
        <ele>2.4</ele>
        <time>2020-06-04T13:47:16Z</time>
      </trkpt>
      <trkpt lat="46.91568" lon="-2.08234">
        <ele>2.4</ele>
        <time>2020-06-04T13:47:17Z</time>
      </trkpt>
      <trkpt lat="46.91572" lon="-2.08229">
        <ele>2.5</ele>
        <time>2020-06-04T13:47:18Z</time>
      </trkpt>
      <trkpt lat="46.91575" lon="-2.08225">
        <ele>2.5</ele>
        <time>2020-06-04T13:47:19Z</time>
      </trkpt>
      <trkpt lat="46.91578" lon="-2.08221">
        <ele>2.5</ele>
        <time>2020-06-04T13:47:20Z</time>
      </trkpt>
      <trkpt lat="46.91583" lon="-2.08218">
        <ele>2.5</ele>
        <time>2020-06-04T13:47:21Z</time>
      </trkpt>
      <trkpt lat="46.91589" lon="-2.08217">
        <ele>2.5</ele>
        <time>2020-06-04T13:47:22Z</time>
      </trkpt>
      <trkpt lat="46.91595" lon="-2.08219">
        <ele>2.5</ele>
        <time>2020-06-04T13:47:23Z</time>
      </trkpt>
      <trkpt lat="46.91598" lon="-2.08222">
        <ele>2.5</ele>
        <time>2020-06-04T13:47:24Z</time>
      </trkpt>
      <trkpt lat="46.91602" lon="-2.08226">
        <ele>2.5</ele>
        <time>2020-06-04T13:47:25Z</time>
      </trkpt>
      <trkpt lat="46.91605" lon="-2.08231">
        <ele>2.5</ele>
        <time>2020-06-04T13:47:26Z</time>
      </trkpt>
      <trkpt lat="46.91607" lon="-2.08236">
        <ele>2.5</ele>
        <time>2020-06-04T13:47:27Z</time>
      </trkpt>
      <trkpt lat="46.9161" lon="-2.08241">
        <ele>2.5</ele>
        <time>2020-06-04T13:47:28Z</time>
      </trkpt>
      <trkpt lat="46.91612" lon="-2.08247">
        <ele>2.5</ele>
        <time>2020-06-04T13:47:29Z</time>
      </trkpt>
      <trkpt lat="46.91614" lon="-2.08253">
        <ele>2.5</ele>
        <time>2020-06-04T13:47:30Z</time>
      </trkpt>
      <trkpt lat="46.91616" lon="-2.08259">
        <ele>2.5</ele>
        <time>2020-06-04T13:47:31Z</time>
      </trkpt>
      <trkpt lat="46.91617" lon="-2.08265">
        <ele>2.5</ele>
        <time>2020-06-04T13:47:32Z</time>
      </trkpt>
      <trkpt lat="46.91619" lon="-2.0827">
        <ele>2.5</ele>
        <time>2020-06-04T13:47:33Z</time>
      </trkpt>
      <trkpt lat="46.91621" lon="-2.08276">
        <ele>2.5</ele>
        <time>2020-06-04T13:47:34Z</time>
      </trkpt>
      <trkpt lat="46.91622" lon="-2.08282">
        <ele>2.5</ele>
        <time>2020-06-04T13:47:35Z</time>
      </trkpt>
      <trkpt lat="46.91623" lon="-2.08287">
        <ele>2.5</ele>
        <time>2020-06-04T13:47:36Z</time>
      </trkpt>
      <trkpt lat="46.91625" lon="-2.08293">
        <ele>2.4</ele>
        <time>2020-06-04T13:47:37Z</time>
      </trkpt>
      <trkpt lat="46.91626" lon="-2.08298">
        <ele>2.4</ele>
        <time>2020-06-04T13:47:38Z</time>
      </trkpt>
      <trkpt lat="46.91627" lon="-2.08303">
        <ele>2.4</ele>
        <time>2020-06-04T13:47:39Z</time>
      </trkpt>
      <trkpt lat="46.91628" lon="-2.08307">
        <ele>2.4</ele>
        <time>2020-06-04T13:47:40Z</time>
      </trkpt>
      <trkpt lat="46.9163" lon="-2.08312">
        <ele>2.4</ele>
        <time>2020-06-04T13:47:41Z</time>
      </trkpt>
      <trkpt lat="46.91631" lon="-2.08318">
        <ele>2.4</ele>
        <time>2020-06-04T13:47:42Z</time>
      </trkpt>
      <trkpt lat="46.91632" lon="-2.08323">
        <ele>2.4</ele>
        <time>2020-06-04T13:47:43Z</time>
      </trkpt>
      <trkpt lat="46.91634" lon="-2.08328">
        <ele>2.4</ele>
        <time>2020-06-04T13:47:44Z</time>
      </trkpt>
      <trkpt lat="46.91636" lon="-2.08332">
        <ele>2.4</ele>
        <time>2020-06-04T13:47:45Z</time>
      </trkpt>
      <trkpt lat="46.9164" lon="-2.08333">
        <ele>2.4</ele>
        <time>2020-06-04T13:47:46Z</time>
      </trkpt>
      <trkpt lat="46.91644" lon="-2.08335">
        <ele>2.4</ele>
        <time>2020-06-04T13:47:47Z</time>
      </trkpt>
      <trkpt lat="46.91647" lon="-2.08335">
        <ele>2.4</ele>
        <time>2020-06-04T13:47:48Z</time>
      </trkpt>
      <trkpt lat="46.91651" lon="-2.08334">
        <ele>2.4</ele>
        <time>2020-06-04T13:47:49Z</time>
      </trkpt>
      <trkpt lat="46.91655" lon="-2.08334">
        <ele>2.4</ele>
        <time>2020-06-04T13:47:50Z</time>
      </trkpt>
      <trkpt lat="46.91659" lon="-2.08335">
        <ele>2.4</ele>
        <time>2020-06-04T13:47:51Z</time>
      </trkpt>
      <trkpt lat="46.91664" lon="-2.08335">
        <ele>2.4</ele>
        <time>2020-06-04T13:47:52Z</time>
      </trkpt>
      <trkpt lat="46.91668" lon="-2.08334">
        <ele>2.4</ele>
        <time>2020-06-04T13:47:53Z</time>
      </trkpt>
      <trkpt lat="46.91672" lon="-2.08333">
        <ele>2.5</ele>
        <time>2020-06-04T13:47:54Z</time>
      </trkpt>
      <trkpt lat="46.91676" lon="-2.0833">
        <ele>2.5</ele>
        <time>2020-06-04T13:47:55Z</time>
      </trkpt>
      <trkpt lat="46.9168" lon="-2.08328">
        <ele>2.5</ele>
        <time>2020-06-04T13:47:56Z</time>
      </trkpt>
      <trkpt lat="46.91684" lon="-2.08326">
        <ele>2.5</ele>
        <time>2020-06-04T13:47:57Z</time>
      </trkpt>
      <trkpt lat="46.91688" lon="-2.08324">
        <ele>2.5</ele>
        <time>2020-06-04T13:47:58Z</time>
      </trkpt>
      <trkpt lat="46.91692" lon="-2.08322">
        <ele>2.5</ele>
        <time>2020-06-04T13:47:59Z</time>
      </trkpt>
      <trkpt lat="46.91695" lon="-2.08318">
        <ele>2.5</ele>
        <time>2020-06-04T13:48:00Z</time>
      </trkpt>
      <trkpt lat="46.91699" lon="-2.08316">
        <ele>2.5</ele>
        <time>2020-06-04T13:48:01Z</time>
      </trkpt>
      <trkpt lat="46.91703" lon="-2.08315">
        <ele>2.5</ele>
        <time>2020-06-04T13:48:02Z</time>
      </trkpt>
      <trkpt lat="46.91707" lon="-2.08312">
        <ele>2.5</ele>
        <time>2020-06-04T13:48:03Z</time>
      </trkpt>
      <trkpt lat="46.91711" lon="-2.08309">
        <ele>2.5</ele>
        <time>2020-06-04T13:48:04Z</time>
      </trkpt>
      <trkpt lat="46.91715" lon="-2.08306">
        <ele>2.5</ele>
        <time>2020-06-04T13:48:05Z</time>
      </trkpt>
      <trkpt lat="46.91719" lon="-2.08304">
        <ele>2.5</ele>
        <time>2020-06-04T13:48:06Z</time>
      </trkpt>
      <trkpt lat="46.91722" lon="-2.08301">
        <ele>2.5</ele>
        <time>2020-06-04T13:48:07Z</time>
      </trkpt>
      <trkpt lat="46.91726" lon="-2.08299">
        <ele>2.5</ele>
        <time>2020-06-04T13:48:08Z</time>
      </trkpt>
      <trkpt lat="46.9173" lon="-2.08297">
        <ele>2.5</ele>
        <time>2020-06-04T13:48:09Z</time>
      </trkpt>
      <trkpt lat="46.91734" lon="-2.08295">
        <ele>2.5</ele>
        <time>2020-06-04T13:48:10Z</time>
      </trkpt>
      <trkpt lat="46.91738" lon="-2.08293">
        <ele>2.5</ele>
        <time>2020-06-04T13:48:11Z</time>
      </trkpt>
      <trkpt lat="46.91742" lon="-2.0829">
        <ele>2.5</ele>
        <time>2020-06-04T13:48:12Z</time>
      </trkpt>
      <trkpt lat="46.91747" lon="-2.08288">
        <ele>2.5</ele>
        <time>2020-06-04T13:48:13Z</time>
      </trkpt>
      <trkpt lat="46.9175" lon="-2.08287">
        <ele>2.5</ele>
        <time>2020-06-04T13:48:14Z</time>
      </trkpt>
      <trkpt lat="46.91754" lon="-2.08285">
        <ele>2.4</ele>
        <time>2020-06-04T13:48:15Z</time>
      </trkpt>
      <trkpt lat="46.91759" lon="-2.08284">
        <ele>2.4</ele>
        <time>2020-06-04T13:48:16Z</time>
      </trkpt>
      <trkpt lat="46.91763" lon="-2.08282">
        <ele>2.3</ele>
        <time>2020-06-04T13:48:17Z</time>
      </trkpt>
      <trkpt lat="46.91767" lon="-2.08279">
        <ele>2.3</ele>
        <time>2020-06-04T13:48:18Z</time>
      </trkpt>
      <trkpt lat="46.9177" lon="-2.08276">
        <ele>2.3</ele>
        <time>2020-06-04T13:48:19Z</time>
      </trkpt>
      <trkpt lat="46.91773" lon="-2.08274">
        <ele>2.2</ele>
        <time>2020-06-04T13:48:20Z</time>
      </trkpt>
      <trkpt lat="46.91777" lon="-2.08271">
        <ele>2.2</ele>
        <time>2020-06-04T13:48:21Z</time>
      </trkpt>
      <trkpt lat="46.91781" lon="-2.08268">
        <ele>2.1</ele>
        <time>2020-06-04T13:48:22Z</time>
      </trkpt>
      <trkpt lat="46.91785" lon="-2.08264">
        <ele>2.1</ele>
        <time>2020-06-04T13:48:23Z</time>
      </trkpt>
      <trkpt lat="46.91786" lon="-2.0826">
        <ele>2</ele>
        <time>2020-06-04T13:48:24Z</time>
      </trkpt>
      <trkpt lat="46.9179" lon="-2.08257">
        <ele>2</ele>
        <time>2020-06-04T13:48:25Z</time>
      </trkpt>
      <trkpt lat="46.91791" lon="-2.08254">
        <ele>1.9</ele>
        <time>2020-06-04T13:48:26Z</time>
      </trkpt>
      <trkpt lat="46.91795" lon="-2.0825">
        <ele>1.9</ele>
        <time>2020-06-04T13:48:27Z</time>
      </trkpt>
      <trkpt lat="46.91796" lon="-2.08248">
        <ele>1.8</ele>
        <time>2020-06-04T13:48:28Z</time>
      </trkpt>
      <trkpt lat="46.91799" lon="-2.08244">
        <ele>1.8</ele>
        <time>2020-06-04T13:48:29Z</time>
      </trkpt>
      <trkpt lat="46.91801" lon="-2.08239">
        <ele>1.8</ele>
        <time>2020-06-04T13:48:30Z</time>
      </trkpt>
      <trkpt lat="46.91803" lon="-2.08234">
        <ele>1.7</ele>
        <time>2020-06-04T13:48:31Z</time>
      </trkpt>
      <trkpt lat="46.91805" lon="-2.08227">
        <ele>1.7</ele>
        <time>2020-06-04T13:48:32Z</time>
      </trkpt>
      <trkpt lat="46.91806" lon="-2.08221">
        <ele>1.7</ele>
        <time>2020-06-04T13:48:33Z</time>
      </trkpt>
      <trkpt lat="46.91808" lon="-2.08215">
        <ele>1.6</ele>
        <time>2020-06-04T13:48:34Z</time>
      </trkpt>
      <trkpt lat="46.9181" lon="-2.08209">
        <ele>1.6</ele>
        <time>2020-06-04T13:48:35Z</time>
      </trkpt>
      <trkpt lat="46.91812" lon="-2.08204">
        <ele>1.6</ele>
        <time>2020-06-04T13:48:36Z</time>
      </trkpt>
      <trkpt lat="46.91814" lon="-2.08199">
        <ele>1.6</ele>
        <time>2020-06-04T13:48:37Z</time>
      </trkpt>
      <trkpt lat="46.91817" lon="-2.08195">
        <ele>1.6</ele>
        <time>2020-06-04T13:48:38Z</time>
      </trkpt>
      <trkpt lat="46.9182" lon="-2.08192">
        <ele>1.6</ele>
        <time>2020-06-04T13:48:39Z</time>
      </trkpt>
      <trkpt lat="46.91824" lon="-2.08188">
        <ele>1.6</ele>
        <time>2020-06-04T13:48:40Z</time>
      </trkpt>
      <trkpt lat="46.91828" lon="-2.08185">
        <ele>1.6</ele>
        <time>2020-06-04T13:48:41Z</time>
      </trkpt>
      <trkpt lat="46.91831" lon="-2.08184">
        <ele>1.6</ele>
        <time>2020-06-04T13:48:42Z</time>
      </trkpt>
      <trkpt lat="46.91835" lon="-2.08182">
        <ele>1.6</ele>
        <time>2020-06-04T13:48:43Z</time>
      </trkpt>
      <trkpt lat="46.91838" lon="-2.08179">
        <ele>1.6</ele>
        <time>2020-06-04T13:48:44Z</time>
      </trkpt>
      <trkpt lat="46.91841" lon="-2.08177">
        <ele>1.5</ele>
        <time>2020-06-04T13:48:45Z</time>
      </trkpt>
      <trkpt lat="46.91844" lon="-2.08174">
        <ele>1.5</ele>
        <time>2020-06-04T13:48:46Z</time>
      </trkpt>
      <trkpt lat="46.91846" lon="-2.08171">
        <ele>1.5</ele>
        <time>2020-06-04T13:48:47Z</time>
      </trkpt>
      <trkpt lat="46.91849" lon="-2.08168">
        <ele>1.5</ele>
        <time>2020-06-04T13:48:48Z</time>
      </trkpt>
      <trkpt lat="46.91851" lon="-2.08165">
        <ele>1.5</ele>
        <time>2020-06-04T13:48:49Z</time>
      </trkpt>
      <trkpt lat="46.91852" lon="-2.08163">
        <ele>1.5</ele>
        <time>2020-06-04T13:48:50Z</time>
      </trkpt>
      <trkpt lat="46.91853" lon="-2.08163">
        <ele>1.5</ele>
        <time>2020-06-04T13:48:51Z</time>
      </trkpt>
      <trkpt lat="46.91855" lon="-2.08161">
        <ele>1.5</ele>
        <time>2020-06-04T13:48:52Z</time>
      </trkpt>
      <trkpt lat="46.91858" lon="-2.0816">
        <ele>1.5</ele>
        <time>2020-06-04T13:48:53Z</time>
      </trkpt>
      <trkpt lat="46.91859" lon="-2.0816">
        <ele>1.5</ele>
        <time>2020-06-04T13:48:54Z</time>
      </trkpt>
      <trkpt lat="46.9186" lon="-2.08159">
        <ele>1.5</ele>
        <time>2020-06-04T13:48:55Z</time>
      </trkpt>
      <trkpt lat="46.9186" lon="-2.08158">
        <ele>1.5</ele>
        <time>2020-06-04T13:48:56Z</time>
      </trkpt>
      <trkpt lat="46.9186" lon="-2.08157">
        <ele>1.5</ele>
        <time>2020-06-04T13:48:57Z</time>
      </trkpt>
      <trkpt lat="46.91859" lon="-2.08157">
        <ele>1.5</ele>
        <time>2020-06-04T13:48:58Z</time>
      </trkpt>
      <trkpt lat="46.91859" lon="-2.08156">
        <ele>1.5</ele>
        <time>2020-06-04T13:48:59Z</time>
      </trkpt>
      <trkpt lat="46.91858" lon="-2.08158">
        <ele>1.5</ele>
        <time>2020-06-04T13:49:00Z</time>
      </trkpt>
      <trkpt lat="46.91858" lon="-2.08158">
        <ele>1.5</ele>
        <time>2020-06-04T13:49:01Z</time>
      </trkpt>
      <trkpt lat="46.91857" lon="-2.08159">
        <ele>1.5</ele>
        <time>2020-06-04T13:49:02Z</time>
      </trkpt>
      <trkpt lat="46.91857" lon="-2.08159">
        <ele>1.5</ele>
        <time>2020-06-04T13:49:03Z</time>
      </trkpt>
      <trkpt lat="46.91856" lon="-2.08159">
        <ele>1.5</ele>
        <time>2020-06-04T13:49:04Z</time>
      </trkpt>
      <trkpt lat="46.91857" lon="-2.08161">
        <ele>1.5</ele>
        <time>2020-06-04T13:49:05Z</time>
      </trkpt>
      <trkpt lat="46.91857" lon="-2.08162">
        <ele>1.5</ele>
        <time>2020-06-04T13:49:06Z</time>
      </trkpt>
      <trkpt lat="46.91857" lon="-2.08163">
        <ele>1.5</ele>
        <time>2020-06-04T13:49:07Z</time>
      </trkpt>
      <trkpt lat="46.91858" lon="-2.08164">
        <ele>1.5</ele>
        <time>2020-06-04T13:49:08Z</time>
      </trkpt>
      <trkpt lat="46.91859" lon="-2.08164">
        <ele>1.5</ele>
        <time>2020-06-04T13:49:09Z</time>
      </trkpt>
      <trkpt lat="46.9186" lon="-2.08164">
        <ele>1.5</ele>
        <time>2020-06-04T13:49:10Z</time>
      </trkpt>
      <trkpt lat="46.91861" lon="-2.08164">
        <ele>1.5</ele>
        <time>2020-06-04T13:49:11Z</time>
      </trkpt>
      <trkpt lat="46.91862" lon="-2.08164">
        <ele>1.5</ele>
        <time>2020-06-04T13:49:20Z</time>
      </trkpt>
      <trkpt lat="46.91863" lon="-2.08164">
        <ele>1.5</ele>
        <time>2020-06-04T13:49:21Z</time>
      </trkpt>
      <trkpt lat="46.91867" lon="-2.08163">
        <ele>1.5</ele>
        <time>2020-06-04T13:49:22Z</time>
      </trkpt>
      <trkpt lat="46.91869" lon="-2.08163">
        <ele>1.5</ele>
        <time>2020-06-04T13:49:23Z</time>
      </trkpt>
      <trkpt lat="46.91872" lon="-2.08164">
        <ele>1.5</ele>
        <time>2020-06-04T13:49:24Z</time>
      </trkpt>
      <trkpt lat="46.91877" lon="-2.08165">
        <ele>1.5</ele>
        <time>2020-06-04T13:49:25Z</time>
      </trkpt>
      <trkpt lat="46.9188" lon="-2.08166">
        <ele>1.5</ele>
        <time>2020-06-04T13:49:26Z</time>
      </trkpt>
      <trkpt lat="46.91885" lon="-2.08166">
        <ele>1.5</ele>
        <time>2020-06-04T13:49:27Z</time>
      </trkpt>
      <trkpt lat="46.91888" lon="-2.08166">
        <ele>1.5</ele>
        <time>2020-06-04T13:49:28Z</time>
      </trkpt>
      <trkpt lat="46.91892" lon="-2.08165">
        <ele>1.6</ele>
        <time>2020-06-04T13:49:29Z</time>
      </trkpt>
      <trkpt lat="46.91895" lon="-2.08163">
        <ele>1.7</ele>
        <time>2020-06-04T13:49:30Z</time>
      </trkpt>
      <trkpt lat="46.91898" lon="-2.08159">
        <ele>1.7</ele>
        <time>2020-06-04T13:49:31Z</time>
      </trkpt>
      <trkpt lat="46.919" lon="-2.08155">
        <ele>1.7</ele>
        <time>2020-06-04T13:49:32Z</time>
      </trkpt>
      <trkpt lat="46.91902" lon="-2.08151">
        <ele>1.7</ele>
        <time>2020-06-04T13:49:33Z</time>
      </trkpt>
      <trkpt lat="46.91903" lon="-2.08147">
        <ele>1.8</ele>
        <time>2020-06-04T13:49:34Z</time>
      </trkpt>
      <trkpt lat="46.91905" lon="-2.08142">
        <ele>1.8</ele>
        <time>2020-06-04T13:49:35Z</time>
      </trkpt>
      <trkpt lat="46.91907" lon="-2.08138">
        <ele>1.8</ele>
        <time>2020-06-04T13:49:36Z</time>
      </trkpt>
      <trkpt lat="46.91908" lon="-2.08133">
        <ele>1.8</ele>
        <time>2020-06-04T13:49:37Z</time>
      </trkpt>
      <trkpt lat="46.9191" lon="-2.08128">
        <ele>1.9</ele>
        <time>2020-06-04T13:49:38Z</time>
      </trkpt>
      <trkpt lat="46.91911" lon="-2.08123">
        <ele>1.9</ele>
        <time>2020-06-04T13:49:39Z</time>
      </trkpt>
      <trkpt lat="46.91913" lon="-2.08118">
        <ele>1.9</ele>
        <time>2020-06-04T13:49:40Z</time>
      </trkpt>
      <trkpt lat="46.91914" lon="-2.08111">
        <ele>2</ele>
        <time>2020-06-04T13:49:41Z</time>
      </trkpt>
      <trkpt lat="46.91916" lon="-2.08106">
        <ele>2</ele>
        <time>2020-06-04T13:49:42Z</time>
      </trkpt>
      <trkpt lat="46.91919" lon="-2.08101">
        <ele>2</ele>
        <time>2020-06-04T13:49:43Z</time>
      </trkpt>
      <trkpt lat="46.91921" lon="-2.08095">
        <ele>2.1</ele>
        <time>2020-06-04T13:49:44Z</time>
      </trkpt>
      <trkpt lat="46.91924" lon="-2.08089">
        <ele>2.1</ele>
        <time>2020-06-04T13:49:45Z</time>
      </trkpt>
      <trkpt lat="46.91926" lon="-2.08083">
        <ele>2.2</ele>
        <time>2020-06-04T13:49:46Z</time>
      </trkpt>
      <trkpt lat="46.91927" lon="-2.08077">
        <ele>2.2</ele>
        <time>2020-06-04T13:49:47Z</time>
      </trkpt>
      <trkpt lat="46.9193" lon="-2.08074">
        <ele>2.2</ele>
        <time>2020-06-04T13:49:48Z</time>
      </trkpt>
      <trkpt lat="46.91933" lon="-2.08076">
        <ele>2.2</ele>
        <time>2020-06-04T13:49:49Z</time>
      </trkpt>
      <trkpt lat="46.91933" lon="-2.08077">
        <ele>2.2</ele>
        <time>2020-06-04T13:49:50Z</time>
      </trkpt>
      <trkpt lat="46.91936" lon="-2.08081">
        <ele>2.2</ele>
        <time>2020-06-04T13:49:51Z</time>
      </trkpt>
      <trkpt lat="46.91938" lon="-2.08082">
        <ele>2.2</ele>
        <time>2020-06-04T13:49:52Z</time>
      </trkpt>
      <trkpt lat="46.91941" lon="-2.08085">
        <ele>2.2</ele>
        <time>2020-06-04T13:49:53Z</time>
      </trkpt>
      <trkpt lat="46.91945" lon="-2.08087">
        <ele>2.1</ele>
        <time>2020-06-04T13:49:54Z</time>
      </trkpt>
      <trkpt lat="46.91948" lon="-2.08089">
        <ele>2.1</ele>
        <time>2020-06-04T13:49:55Z</time>
      </trkpt>
      <trkpt lat="46.91952" lon="-2.0809">
        <ele>2.1</ele>
        <time>2020-06-04T13:49:56Z</time>
      </trkpt>
      <trkpt lat="46.91952" lon="-2.08091">
        <ele>2.1</ele>
        <time>2020-06-04T13:49:57Z</time>
      </trkpt>
      <trkpt lat="46.91955" lon="-2.08093">
        <ele>2.1</ele>
        <time>2020-06-04T13:49:58Z</time>
      </trkpt>
      <trkpt lat="46.91959" lon="-2.08094">
        <ele>2.1</ele>
        <time>2020-06-04T13:49:59Z</time>
      </trkpt>
      <trkpt lat="46.9196" lon="-2.08094">
        <ele>2.1</ele>
        <time>2020-06-04T13:50:00Z</time>
      </trkpt>
      <trkpt lat="46.91962" lon="-2.08094">
        <ele>2.1</ele>
        <time>2020-06-04T13:50:01Z</time>
      </trkpt>
      <trkpt lat="46.91968" lon="-2.08096">
        <ele>2.1</ele>
        <time>2020-06-04T13:50:02Z</time>
      </trkpt>
      <trkpt lat="46.91973" lon="-2.08096">
        <ele>2.1</ele>
        <time>2020-06-04T13:50:03Z</time>
      </trkpt>
      <trkpt lat="46.91977" lon="-2.08097">
        <ele>2.1</ele>
        <time>2020-06-04T13:50:04Z</time>
      </trkpt>
      <trkpt lat="46.91982" lon="-2.08097">
        <ele>2.1</ele>
        <time>2020-06-04T13:50:05Z</time>
      </trkpt>
      <trkpt lat="46.91985" lon="-2.08099">
        <ele>2.1</ele>
        <time>2020-06-04T13:50:06Z</time>
      </trkpt>
      <trkpt lat="46.91989" lon="-2.08103">
        <ele>2.1</ele>
        <time>2020-06-04T13:50:07Z</time>
      </trkpt>
      <trkpt lat="46.91992" lon="-2.08109">
        <ele>2.1</ele>
        <time>2020-06-04T13:50:08Z</time>
      </trkpt>
      <trkpt lat="46.91996" lon="-2.08115">
        <ele>2.1</ele>
        <time>2020-06-04T13:50:09Z</time>
      </trkpt>
      <trkpt lat="46.91999" lon="-2.0812">
        <ele>2.1</ele>
        <time>2020-06-04T13:50:10Z</time>
      </trkpt>
      <trkpt lat="46.92002" lon="-2.08126">
        <ele>2.1</ele>
        <time>2020-06-04T13:50:11Z</time>
      </trkpt>
      <trkpt lat="46.92005" lon="-2.0813">
        <ele>2.1</ele>
        <time>2020-06-04T13:50:12Z</time>
      </trkpt>
      <trkpt lat="46.92007" lon="-2.08136">
        <ele>2.1</ele>
        <time>2020-06-04T13:50:13Z</time>
      </trkpt>
      <trkpt lat="46.9201" lon="-2.08142">
        <ele>2.1</ele>
        <time>2020-06-04T13:50:14Z</time>
      </trkpt>
      <trkpt lat="46.92011" lon="-2.08147">
        <ele>2.1</ele>
        <time>2020-06-04T13:50:15Z</time>
      </trkpt>
      <trkpt lat="46.92012" lon="-2.08153">
        <ele>2.1</ele>
        <time>2020-06-04T13:50:16Z</time>
      </trkpt>
      <trkpt lat="46.92014" lon="-2.08159">
        <ele>2.1</ele>
        <time>2020-06-04T13:50:17Z</time>
      </trkpt>
      <trkpt lat="46.92015" lon="-2.08166">
        <ele>2.1</ele>
        <time>2020-06-04T13:50:18Z</time>
      </trkpt>
      <trkpt lat="46.92017" lon="-2.08172">
        <ele>2.1</ele>
        <time>2020-06-04T13:50:19Z</time>
      </trkpt>
      <trkpt lat="46.92019" lon="-2.08177">
        <ele>2.1</ele>
        <time>2020-06-04T13:50:20Z</time>
      </trkpt>
      <trkpt lat="46.92021" lon="-2.08183">
        <ele>2</ele>
        <time>2020-06-04T13:50:21Z</time>
      </trkpt>
      <trkpt lat="46.92024" lon="-2.08188">
        <ele>2</ele>
        <time>2020-06-04T13:50:22Z</time>
      </trkpt>
      <trkpt lat="46.92029" lon="-2.08189">
        <ele>2</ele>
        <time>2020-06-04T13:50:23Z</time>
      </trkpt>
      <trkpt lat="46.92034" lon="-2.0819">
        <ele>2</ele>
        <time>2020-06-04T13:50:24Z</time>
      </trkpt>
      <trkpt lat="46.92038" lon="-2.08191">
        <ele>2</ele>
        <time>2020-06-04T13:50:25Z</time>
      </trkpt>
      <trkpt lat="46.92043" lon="-2.08193">
        <ele>2</ele>
        <time>2020-06-04T13:50:26Z</time>
      </trkpt>
      <trkpt lat="46.92048" lon="-2.08194">
        <ele>2</ele>
        <time>2020-06-04T13:50:27Z</time>
      </trkpt>
      <trkpt lat="46.92052" lon="-2.08196">
        <ele>2</ele>
        <time>2020-06-04T13:50:28Z</time>
      </trkpt>
      <trkpt lat="46.92057" lon="-2.08196">
        <ele>2</ele>
        <time>2020-06-04T13:50:29Z</time>
      </trkpt>
      <trkpt lat="46.92062" lon="-2.08197">
        <ele>2</ele>
        <time>2020-06-04T13:50:30Z</time>
      </trkpt>
      <trkpt lat="46.92067" lon="-2.08197">
        <ele>2</ele>
        <time>2020-06-04T13:50:31Z</time>
      </trkpt>
      <trkpt lat="46.92072" lon="-2.08197">
        <ele>2</ele>
        <time>2020-06-04T13:50:32Z</time>
      </trkpt>
      <trkpt lat="46.92076" lon="-2.08197">
        <ele>2</ele>
        <time>2020-06-04T13:50:33Z</time>
      </trkpt>
      <trkpt lat="46.92081" lon="-2.08196">
        <ele>2</ele>
        <time>2020-06-04T13:50:34Z</time>
      </trkpt>
      <trkpt lat="46.92085" lon="-2.08196">
        <ele>2</ele>
        <time>2020-06-04T13:50:35Z</time>
      </trkpt>
      <trkpt lat="46.92089" lon="-2.08196">
        <ele>2</ele>
        <time>2020-06-04T13:50:36Z</time>
      </trkpt>
      <trkpt lat="46.92093" lon="-2.08196">
        <ele>2</ele>
        <time>2020-06-04T13:50:37Z</time>
      </trkpt>
      <trkpt lat="46.92098" lon="-2.08194">
        <ele>2</ele>
        <time>2020-06-04T13:50:38Z</time>
      </trkpt>
      <trkpt lat="46.92102" lon="-2.08193">
        <ele>2</ele>
        <time>2020-06-04T13:50:39Z</time>
      </trkpt>
      <trkpt lat="46.92106" lon="-2.08191">
        <ele>2</ele>
        <time>2020-06-04T13:50:40Z</time>
      </trkpt>
      <trkpt lat="46.92111" lon="-2.0819">
        <ele>2</ele>
        <time>2020-06-04T13:50:41Z</time>
      </trkpt>
      <trkpt lat="46.92115" lon="-2.08189">
        <ele>2</ele>
        <time>2020-06-04T13:50:42Z</time>
      </trkpt>
      <trkpt lat="46.92119" lon="-2.08187">
        <ele>2</ele>
        <time>2020-06-04T13:50:43Z</time>
      </trkpt>
      <trkpt lat="46.92123" lon="-2.08186">
        <ele>2</ele>
        <time>2020-06-04T13:50:44Z</time>
      </trkpt>
      <trkpt lat="46.92129" lon="-2.08183">
        <ele>2</ele>
        <time>2020-06-04T13:50:45Z</time>
      </trkpt>
      <trkpt lat="46.92132" lon="-2.08182">
        <ele>2</ele>
        <time>2020-06-04T13:50:46Z</time>
      </trkpt>
      <trkpt lat="46.92136" lon="-2.08181">
        <ele>2</ele>
        <time>2020-06-04T13:50:47Z</time>
      </trkpt>
      <trkpt lat="46.9214" lon="-2.0818">
        <ele>2</ele>
        <time>2020-06-04T13:50:48Z</time>
      </trkpt>
      <trkpt lat="46.92144" lon="-2.08177">
        <ele>2</ele>
        <time>2020-06-04T13:50:49Z</time>
      </trkpt>
      <trkpt lat="46.92149" lon="-2.08177">
        <ele>2</ele>
        <time>2020-06-04T13:50:50Z</time>
      </trkpt>
      <trkpt lat="46.92153" lon="-2.08175">
        <ele>2</ele>
        <time>2020-06-04T13:50:51Z</time>
      </trkpt>
      <trkpt lat="46.92157" lon="-2.08173">
        <ele>2</ele>
        <time>2020-06-04T13:50:52Z</time>
      </trkpt>
      <trkpt lat="46.92162" lon="-2.08171">
        <ele>2</ele>
        <time>2020-06-04T13:50:53Z</time>
      </trkpt>
      <trkpt lat="46.92166" lon="-2.0817">
        <ele>2</ele>
        <time>2020-06-04T13:50:54Z</time>
      </trkpt>
      <trkpt lat="46.92171" lon="-2.08168">
        <ele>2</ele>
        <time>2020-06-04T13:50:55Z</time>
      </trkpt>
      <trkpt lat="46.92175" lon="-2.08167">
        <ele>2</ele>
        <time>2020-06-04T13:50:56Z</time>
      </trkpt>
      <trkpt lat="46.9218" lon="-2.08165">
        <ele>2</ele>
        <time>2020-06-04T13:50:57Z</time>
      </trkpt>
      <trkpt lat="46.92185" lon="-2.08163">
        <ele>2</ele>
        <time>2020-06-04T13:50:58Z</time>
      </trkpt>
      <trkpt lat="46.92189" lon="-2.08163">
        <ele>2</ele>
        <time>2020-06-04T13:50:59Z</time>
      </trkpt>
      <trkpt lat="46.92194" lon="-2.08162">
        <ele>2</ele>
        <time>2020-06-04T13:51:00Z</time>
      </trkpt>
      <trkpt lat="46.92198" lon="-2.08161">
        <ele>1.9</ele>
        <time>2020-06-04T13:51:01Z</time>
      </trkpt>
      <trkpt lat="46.92203" lon="-2.0816">
        <ele>1.9</ele>
        <time>2020-06-04T13:51:02Z</time>
      </trkpt>
      <trkpt lat="46.92208" lon="-2.0816">
        <ele>1.9</ele>
        <time>2020-06-04T13:51:03Z</time>
      </trkpt>
      <trkpt lat="46.92211" lon="-2.08159">
        <ele>1.9</ele>
        <time>2020-06-04T13:51:04Z</time>
      </trkpt>
      <trkpt lat="46.92216" lon="-2.08158">
        <ele>1.9</ele>
        <time>2020-06-04T13:51:05Z</time>
      </trkpt>
      <trkpt lat="46.92219" lon="-2.08157">
        <ele>1.9</ele>
        <time>2020-06-04T13:51:06Z</time>
      </trkpt>
      <trkpt lat="46.92223" lon="-2.08157">
        <ele>1.9</ele>
        <time>2020-06-04T13:51:07Z</time>
      </trkpt>
      <trkpt lat="46.92228" lon="-2.08155">
        <ele>1.9</ele>
        <time>2020-06-04T13:51:08Z</time>
      </trkpt>
      <trkpt lat="46.92232" lon="-2.08154">
        <ele>1.9</ele>
        <time>2020-06-04T13:51:09Z</time>
      </trkpt>
      <trkpt lat="46.92235" lon="-2.08152">
        <ele>1.9</ele>
        <time>2020-06-04T13:51:10Z</time>
      </trkpt>
      <trkpt lat="46.92239" lon="-2.0815">
        <ele>1.9</ele>
        <time>2020-06-04T13:51:11Z</time>
      </trkpt>
      <trkpt lat="46.92243" lon="-2.08148">
        <ele>1.9</ele>
        <time>2020-06-04T13:51:12Z</time>
      </trkpt>
      <trkpt lat="46.92248" lon="-2.08146">
        <ele>1.9</ele>
        <time>2020-06-04T13:51:13Z</time>
      </trkpt>
      <trkpt lat="46.92252" lon="-2.08144">
        <ele>1.9</ele>
        <time>2020-06-04T13:51:14Z</time>
      </trkpt>
      <trkpt lat="46.92256" lon="-2.08142">
        <ele>1.9</ele>
        <time>2020-06-04T13:51:15Z</time>
      </trkpt>
      <trkpt lat="46.9226" lon="-2.0814">
        <ele>1.9</ele>
        <time>2020-06-04T13:51:16Z</time>
      </trkpt>
      <trkpt lat="46.92265" lon="-2.08138">
        <ele>1.9</ele>
        <time>2020-06-04T13:51:17Z</time>
      </trkpt>
      <trkpt lat="46.92269" lon="-2.08137">
        <ele>1.9</ele>
        <time>2020-06-04T13:51:18Z</time>
      </trkpt>
      <trkpt lat="46.92273" lon="-2.08137">
        <ele>1.9</ele>
        <time>2020-06-04T13:51:19Z</time>
      </trkpt>
      <trkpt lat="46.92277" lon="-2.08136">
        <ele>1.9</ele>
        <time>2020-06-04T13:51:20Z</time>
      </trkpt>
      <trkpt lat="46.92281" lon="-2.08137">
        <ele>1.9</ele>
        <time>2020-06-04T13:51:21Z</time>
      </trkpt>
      <trkpt lat="46.92285" lon="-2.08137">
        <ele>1.9</ele>
        <time>2020-06-04T13:51:22Z</time>
      </trkpt>
      <trkpt lat="46.92289" lon="-2.08137">
        <ele>1.9</ele>
        <time>2020-06-04T13:51:23Z</time>
      </trkpt>
      <trkpt lat="46.92291" lon="-2.08136">
        <ele>1.9</ele>
        <time>2020-06-04T13:51:24Z</time>
      </trkpt>
      <trkpt lat="46.92295" lon="-2.08136">
        <ele>1.9</ele>
        <time>2020-06-04T13:51:25Z</time>
      </trkpt>
      <trkpt lat="46.92298" lon="-2.08134">
        <ele>1.9</ele>
        <time>2020-06-04T13:51:26Z</time>
      </trkpt>
      <trkpt lat="46.92303" lon="-2.0813">
        <ele>1.9</ele>
        <time>2020-06-04T13:51:27Z</time>
      </trkpt>
      <trkpt lat="46.92306" lon="-2.08127">
        <ele>1.9</ele>
        <time>2020-06-04T13:51:28Z</time>
      </trkpt>
      <trkpt lat="46.9231" lon="-2.08124">
        <ele>1.9</ele>
        <time>2020-06-04T13:51:29Z</time>
      </trkpt>
      <trkpt lat="46.92314" lon="-2.08121">
        <ele>1.9</ele>
        <time>2020-06-04T13:51:30Z</time>
      </trkpt>
      <trkpt lat="46.92318" lon="-2.08119">
        <ele>1.9</ele>
        <time>2020-06-04T13:51:31Z</time>
      </trkpt>
      <trkpt lat="46.92322" lon="-2.08116">
        <ele>1.9</ele>
        <time>2020-06-04T13:51:32Z</time>
      </trkpt>
      <trkpt lat="46.92326" lon="-2.08113">
        <ele>1.9</ele>
        <time>2020-06-04T13:51:33Z</time>
      </trkpt>
      <trkpt lat="46.92328" lon="-2.08111">
        <ele>1.9</ele>
        <time>2020-06-04T13:51:34Z</time>
      </trkpt>
      <trkpt lat="46.92332" lon="-2.08109">
        <ele>1.9</ele>
        <time>2020-06-04T13:51:35Z</time>
      </trkpt>
      <trkpt lat="46.92336" lon="-2.08107">
        <ele>1.9</ele>
        <time>2020-06-04T13:51:36Z</time>
      </trkpt>
      <trkpt lat="46.9234" lon="-2.08104">
        <ele>1.9</ele>
        <time>2020-06-04T13:51:37Z</time>
      </trkpt>
      <trkpt lat="46.92343" lon="-2.08102">
        <ele>1.9</ele>
        <time>2020-06-04T13:51:38Z</time>
      </trkpt>
      <trkpt lat="46.92346" lon="-2.08101">
        <ele>1.9</ele>
        <time>2020-06-04T13:51:39Z</time>
      </trkpt>
      <trkpt lat="46.92349" lon="-2.081">
        <ele>1.9</ele>
        <time>2020-06-04T13:51:40Z</time>
      </trkpt>
      <trkpt lat="46.92352" lon="-2.08098">
        <ele>1.9</ele>
        <time>2020-06-04T13:51:41Z</time>
      </trkpt>
      <trkpt lat="46.92355" lon="-2.08095">
        <ele>1.9</ele>
        <time>2020-06-04T13:51:42Z</time>
      </trkpt>
      <trkpt lat="46.92358" lon="-2.08093">
        <ele>1.9</ele>
        <time>2020-06-04T13:51:43Z</time>
      </trkpt>
      <trkpt lat="46.92362" lon="-2.08091">
        <ele>1.9</ele>
        <time>2020-06-04T13:51:44Z</time>
      </trkpt>
      <trkpt lat="46.92366" lon="-2.0809">
        <ele>1.9</ele>
        <time>2020-06-04T13:51:45Z</time>
      </trkpt>
      <trkpt lat="46.9237" lon="-2.08088">
        <ele>1.9</ele>
        <time>2020-06-04T13:51:46Z</time>
      </trkpt>
      <trkpt lat="46.92374" lon="-2.08087">
        <ele>1.9</ele>
        <time>2020-06-04T13:51:47Z</time>
      </trkpt>
      <trkpt lat="46.92378" lon="-2.08085">
        <ele>1.9</ele>
        <time>2020-06-04T13:51:48Z</time>
      </trkpt>
      <trkpt lat="46.92382" lon="-2.08083">
        <ele>1.9</ele>
        <time>2020-06-04T13:51:49Z</time>
      </trkpt>
      <trkpt lat="46.92386" lon="-2.0808">
        <ele>1.9</ele>
        <time>2020-06-04T13:51:50Z</time>
      </trkpt>
      <trkpt lat="46.9239" lon="-2.08076">
        <ele>1.9</ele>
        <time>2020-06-04T13:51:51Z</time>
      </trkpt>
      <trkpt lat="46.92394" lon="-2.08073">
        <ele>1.9</ele>
        <time>2020-06-04T13:51:52Z</time>
      </trkpt>
      <trkpt lat="46.92397" lon="-2.08071">
        <ele>1.9</ele>
        <time>2020-06-04T13:51:53Z</time>
      </trkpt>
      <trkpt lat="46.92401" lon="-2.08071">
        <ele>1.9</ele>
        <time>2020-06-04T13:51:54Z</time>
      </trkpt>
      <trkpt lat="46.92405" lon="-2.0807">
        <ele>1.9</ele>
        <time>2020-06-04T13:51:55Z</time>
      </trkpt>
      <trkpt lat="46.92409" lon="-2.08069">
        <ele>2</ele>
        <time>2020-06-04T13:51:56Z</time>
      </trkpt>
      <trkpt lat="46.92414" lon="-2.08067">
        <ele>2</ele>
        <time>2020-06-04T13:51:57Z</time>
      </trkpt>
      <trkpt lat="46.92417" lon="-2.08065">
        <ele>2</ele>
        <time>2020-06-04T13:51:58Z</time>
      </trkpt>
      <trkpt lat="46.92421" lon="-2.08063">
        <ele>2</ele>
        <time>2020-06-04T13:51:59Z</time>
      </trkpt>
      <trkpt lat="46.92425" lon="-2.0806">
        <ele>2</ele>
        <time>2020-06-04T13:52:00Z</time>
      </trkpt>
      <trkpt lat="46.92429" lon="-2.08058">
        <ele>2</ele>
        <time>2020-06-04T13:52:01Z</time>
      </trkpt>
      <trkpt lat="46.92433" lon="-2.08054">
        <ele>2</ele>
        <time>2020-06-04T13:52:02Z</time>
      </trkpt>
      <trkpt lat="46.92437" lon="-2.08051">
        <ele>2</ele>
        <time>2020-06-04T13:52:03Z</time>
      </trkpt>
      <trkpt lat="46.92441" lon="-2.08049">
        <ele>2</ele>
        <time>2020-06-04T13:52:04Z</time>
      </trkpt>
      <trkpt lat="46.92444" lon="-2.08046">
        <ele>2</ele>
        <time>2020-06-04T13:52:05Z</time>
      </trkpt>
      <trkpt lat="46.92447" lon="-2.08042">
        <ele>2.1</ele>
        <time>2020-06-04T13:52:06Z</time>
      </trkpt>
      <trkpt lat="46.92451" lon="-2.08039">
        <ele>2.1</ele>
        <time>2020-06-04T13:52:07Z</time>
      </trkpt>
      <trkpt lat="46.92455" lon="-2.08035">
        <ele>2.1</ele>
        <time>2020-06-04T13:52:08Z</time>
      </trkpt>
      <trkpt lat="46.92459" lon="-2.08033">
        <ele>2.1</ele>
        <time>2020-06-04T13:52:09Z</time>
      </trkpt>
      <trkpt lat="46.92463" lon="-2.08031">
        <ele>2.1</ele>
        <time>2020-06-04T13:52:10Z</time>
      </trkpt>
      <trkpt lat="46.92467" lon="-2.08028">
        <ele>2.1</ele>
        <time>2020-06-04T13:52:11Z</time>
      </trkpt>
      <trkpt lat="46.9247" lon="-2.08026">
        <ele>2.1</ele>
        <time>2020-06-04T13:52:12Z</time>
      </trkpt>
      <trkpt lat="46.92474" lon="-2.08023">
        <ele>2.1</ele>
        <time>2020-06-04T13:52:13Z</time>
      </trkpt>
      <trkpt lat="46.92478" lon="-2.08021">
        <ele>2.1</ele>
        <time>2020-06-04T13:52:14Z</time>
      </trkpt>
      <trkpt lat="46.92481" lon="-2.08019">
        <ele>2.1</ele>
        <time>2020-06-04T13:52:15Z</time>
      </trkpt>
      <trkpt lat="46.92485" lon="-2.08017">
        <ele>2.1</ele>
        <time>2020-06-04T13:52:16Z</time>
      </trkpt>
      <trkpt lat="46.92489" lon="-2.08016">
        <ele>2.1</ele>
        <time>2020-06-04T13:52:17Z</time>
      </trkpt>
      <trkpt lat="46.92494" lon="-2.08015">
        <ele>2.1</ele>
        <time>2020-06-04T13:52:18Z</time>
      </trkpt>
      <trkpt lat="46.92498" lon="-2.08012">
        <ele>2.1</ele>
        <time>2020-06-04T13:52:19Z</time>
      </trkpt>
      <trkpt lat="46.92502" lon="-2.08009">
        <ele>2.1</ele>
        <time>2020-06-04T13:52:20Z</time>
      </trkpt>
      <trkpt lat="46.92506" lon="-2.08007">
        <ele>2.1</ele>
        <time>2020-06-04T13:52:21Z</time>
      </trkpt>
      <trkpt lat="46.92509" lon="-2.08004">
        <ele>2.1</ele>
        <time>2020-06-04T13:52:22Z</time>
      </trkpt>
      <trkpt lat="46.92513" lon="-2.08001">
        <ele>2.1</ele>
        <time>2020-06-04T13:52:23Z</time>
      </trkpt>
      <trkpt lat="46.92516" lon="-2.07998">
        <ele>2.1</ele>
        <time>2020-06-04T13:52:24Z</time>
      </trkpt>
      <trkpt lat="46.9252" lon="-2.07995">
        <ele>2.1</ele>
        <time>2020-06-04T13:52:25Z</time>
      </trkpt>
      <trkpt lat="46.92523" lon="-2.07992">
        <ele>2.1</ele>
        <time>2020-06-04T13:52:26Z</time>
      </trkpt>
      <trkpt lat="46.92526" lon="-2.0799">
        <ele>2.1</ele>
        <time>2020-06-04T13:52:27Z</time>
      </trkpt>
      <trkpt lat="46.9253" lon="-2.07988">
        <ele>2.1</ele>
        <time>2020-06-04T13:52:28Z</time>
      </trkpt>
      <trkpt lat="46.92534" lon="-2.07985">
        <ele>2.1</ele>
        <time>2020-06-04T13:52:29Z</time>
      </trkpt>
      <trkpt lat="46.92537" lon="-2.07983">
        <ele>2.1</ele>
        <time>2020-06-04T13:52:30Z</time>
      </trkpt>
      <trkpt lat="46.92541" lon="-2.07981">
        <ele>2.1</ele>
        <time>2020-06-04T13:52:31Z</time>
      </trkpt>
      <trkpt lat="46.92545" lon="-2.07979">
        <ele>2.1</ele>
        <time>2020-06-04T13:52:32Z</time>
      </trkpt>
      <trkpt lat="46.92548" lon="-2.07977">
        <ele>2.1</ele>
        <time>2020-06-04T13:52:33Z</time>
      </trkpt>
      <trkpt lat="46.92552" lon="-2.07974">
        <ele>2.1</ele>
        <time>2020-06-04T13:52:34Z</time>
      </trkpt>
      <trkpt lat="46.92555" lon="-2.07972">
        <ele>2.1</ele>
        <time>2020-06-04T13:52:35Z</time>
      </trkpt>
      <trkpt lat="46.92558" lon="-2.07971">
        <ele>2.1</ele>
        <time>2020-06-04T13:52:36Z</time>
      </trkpt>
      <trkpt lat="46.92561" lon="-2.07969">
        <ele>2.1</ele>
        <time>2020-06-04T13:52:37Z</time>
      </trkpt>
      <trkpt lat="46.92564" lon="-2.07968">
        <ele>2.1</ele>
        <time>2020-06-04T13:52:38Z</time>
      </trkpt>
      <trkpt lat="46.92568" lon="-2.07966">
        <ele>2.1</ele>
        <time>2020-06-04T13:52:39Z</time>
      </trkpt>
      <trkpt lat="46.92571" lon="-2.07966">
        <ele>2.1</ele>
        <time>2020-06-04T13:52:40Z</time>
      </trkpt>
      <trkpt lat="46.92574" lon="-2.07964">
        <ele>2.1</ele>
        <time>2020-06-04T13:52:41Z</time>
      </trkpt>
      <trkpt lat="46.92577" lon="-2.07962">
        <ele>2.1</ele>
        <time>2020-06-04T13:52:42Z</time>
      </trkpt>
      <trkpt lat="46.9258" lon="-2.07961">
        <ele>2.1</ele>
        <time>2020-06-04T13:52:43Z</time>
      </trkpt>
      <trkpt lat="46.92584" lon="-2.07959">
        <ele>2.1</ele>
        <time>2020-06-04T13:52:44Z</time>
      </trkpt>
      <trkpt lat="46.92587" lon="-2.07956">
        <ele>2.1</ele>
        <time>2020-06-04T13:52:45Z</time>
      </trkpt>
      <trkpt lat="46.9259" lon="-2.07955">
        <ele>2.1</ele>
        <time>2020-06-04T13:52:46Z</time>
      </trkpt>
      <trkpt lat="46.92593" lon="-2.07952">
        <ele>2.1</ele>
        <time>2020-06-04T13:52:47Z</time>
      </trkpt>
      <trkpt lat="46.92597" lon="-2.07948">
        <ele>2.1</ele>
        <time>2020-06-04T13:52:48Z</time>
      </trkpt>
      <trkpt lat="46.92601" lon="-2.07945">
        <ele>2.1</ele>
        <time>2020-06-04T13:52:49Z</time>
      </trkpt>
      <trkpt lat="46.92604" lon="-2.07941">
        <ele>2.1</ele>
        <time>2020-06-04T13:52:50Z</time>
      </trkpt>
      <trkpt lat="46.92606" lon="-2.07938">
        <ele>2.1</ele>
        <time>2020-06-04T13:52:51Z</time>
      </trkpt>
      <trkpt lat="46.92608" lon="-2.07933">
        <ele>2.1</ele>
        <time>2020-06-04T13:52:52Z</time>
      </trkpt>
      <trkpt lat="46.92608" lon="-2.07926">
        <ele>2.1</ele>
        <time>2020-06-04T13:52:53Z</time>
      </trkpt>
      <trkpt lat="46.92607" lon="-2.0792">
        <ele>2.2</ele>
        <time>2020-06-04T13:52:54Z</time>
      </trkpt>
      <trkpt lat="46.92605" lon="-2.07915">
        <ele>2.2</ele>
        <time>2020-06-04T13:52:55Z</time>
      </trkpt>
      <trkpt lat="46.92603" lon="-2.0791">
        <ele>2.2</ele>
        <time>2020-06-04T13:52:56Z</time>
      </trkpt>
      <trkpt lat="46.92601" lon="-2.07906">
        <ele>2.2</ele>
        <time>2020-06-04T13:52:57Z</time>
      </trkpt>
      <trkpt lat="46.92598" lon="-2.079">
        <ele>2.3</ele>
        <time>2020-06-04T13:52:58Z</time>
      </trkpt>
      <trkpt lat="46.92595" lon="-2.07894">
        <ele>2.3</ele>
        <time>2020-06-04T13:52:59Z</time>
      </trkpt>
      <trkpt lat="46.92592" lon="-2.07888">
        <ele>2.4</ele>
        <time>2020-06-04T13:53:00Z</time>
      </trkpt>
      <trkpt lat="46.92589" lon="-2.07883">
        <ele>2.4</ele>
        <time>2020-06-04T13:53:01Z</time>
      </trkpt>
      <trkpt lat="46.92586" lon="-2.07877">
        <ele>2.4</ele>
        <time>2020-06-04T13:53:02Z</time>
      </trkpt>
      <trkpt lat="46.92584" lon="-2.07872">
        <ele>2.4</ele>
        <time>2020-06-04T13:53:03Z</time>
      </trkpt>
      <trkpt lat="46.92581" lon="-2.07867">
        <ele>2.5</ele>
        <time>2020-06-04T13:53:04Z</time>
      </trkpt>
      <trkpt lat="46.92579" lon="-2.07862">
        <ele>2.5</ele>
        <time>2020-06-04T13:53:05Z</time>
      </trkpt>
      <trkpt lat="46.92576" lon="-2.07854">
        <ele>2.5</ele>
        <time>2020-06-04T13:53:06Z</time>
      </trkpt>
      <trkpt lat="46.92573" lon="-2.07849">
        <ele>2.6</ele>
        <time>2020-06-04T13:53:07Z</time>
      </trkpt>
      <trkpt lat="46.92571" lon="-2.07842">
        <ele>2.6</ele>
        <time>2020-06-04T13:53:08Z</time>
      </trkpt>
      <trkpt lat="46.92569" lon="-2.07835">
        <ele>2.6</ele>
        <time>2020-06-04T13:53:09Z</time>
      </trkpt>
      <trkpt lat="46.92568" lon="-2.07826">
        <ele>2.6</ele>
        <time>2020-06-04T13:53:10Z</time>
      </trkpt>
      <trkpt lat="46.92566" lon="-2.07817">
        <ele>2.6</ele>
        <time>2020-06-04T13:53:11Z</time>
      </trkpt>
      <trkpt lat="46.92564" lon="-2.07809">
        <ele>2.6</ele>
        <time>2020-06-04T13:53:12Z</time>
      </trkpt>
      <trkpt lat="46.92564" lon="-2.07801">
        <ele>2.6</ele>
        <time>2020-06-04T13:53:13Z</time>
      </trkpt>
      <trkpt lat="46.92563" lon="-2.07795">
        <ele>2.6</ele>
        <time>2020-06-04T13:53:14Z</time>
      </trkpt>
      <trkpt lat="46.92562" lon="-2.07788">
        <ele>2.6</ele>
        <time>2020-06-04T13:53:15Z</time>
      </trkpt>
      <trkpt lat="46.92561" lon="-2.0778">
        <ele>2.7</ele>
        <time>2020-06-04T13:53:16Z</time>
      </trkpt>
      <trkpt lat="46.92561" lon="-2.07771">
        <ele>2.7</ele>
        <time>2020-06-04T13:53:17Z</time>
      </trkpt>
      <trkpt lat="46.9256" lon="-2.07761">
        <ele>2.7</ele>
        <time>2020-06-04T13:53:18Z</time>
      </trkpt>
      <trkpt lat="46.9256" lon="-2.07753">
        <ele>2.7</ele>
        <time>2020-06-04T13:53:19Z</time>
      </trkpt>
      <trkpt lat="46.9256" lon="-2.07745">
        <ele>2.7</ele>
        <time>2020-06-04T13:53:20Z</time>
      </trkpt>
      <trkpt lat="46.92559" lon="-2.07737">
        <ele>2.7</ele>
        <time>2020-06-04T13:53:21Z</time>
      </trkpt>
      <trkpt lat="46.92559" lon="-2.0773">
        <ele>2.8</ele>
        <time>2020-06-04T13:53:22Z</time>
      </trkpt>
      <trkpt lat="46.9256" lon="-2.07723">
        <ele>2.8</ele>
        <time>2020-06-04T13:53:23Z</time>
      </trkpt>
      <trkpt lat="46.9256" lon="-2.07716">
        <ele>2.8</ele>
        <time>2020-06-04T13:53:24Z</time>
      </trkpt>
      <trkpt lat="46.9256" lon="-2.07709">
        <ele>2.8</ele>
        <time>2020-06-04T13:53:25Z</time>
      </trkpt>
      <trkpt lat="46.92559" lon="-2.07702">
        <ele>2.8</ele>
        <time>2020-06-04T13:53:26Z</time>
      </trkpt>
      <trkpt lat="46.9256" lon="-2.07694">
        <ele>2.8</ele>
        <time>2020-06-04T13:53:27Z</time>
      </trkpt>
      <trkpt lat="46.9256" lon="-2.07687">
        <ele>2.8</ele>
        <time>2020-06-04T13:53:28Z</time>
      </trkpt>
      <trkpt lat="46.92561" lon="-2.0768">
        <ele>2.8</ele>
        <time>2020-06-04T13:53:29Z</time>
      </trkpt>
      <trkpt lat="46.92562" lon="-2.07674">
        <ele>2.8</ele>
        <time>2020-06-04T13:53:30Z</time>
      </trkpt>
      <trkpt lat="46.92563" lon="-2.07668">
        <ele>2.8</ele>
        <time>2020-06-04T13:53:31Z</time>
      </trkpt>
      <trkpt lat="46.92565" lon="-2.07662">
        <ele>2.8</ele>
        <time>2020-06-04T13:53:32Z</time>
      </trkpt>
      <trkpt lat="46.92567" lon="-2.07656">
        <ele>2.8</ele>
        <time>2020-06-04T13:53:33Z</time>
      </trkpt>
      <trkpt lat="46.92568" lon="-2.0765">
        <ele>2.8</ele>
        <time>2020-06-04T13:53:34Z</time>
      </trkpt>
      <trkpt lat="46.9257" lon="-2.07642">
        <ele>2.8</ele>
        <time>2020-06-04T13:53:35Z</time>
      </trkpt>
      <trkpt lat="46.92573" lon="-2.07636">
        <ele>2.8</ele>
        <time>2020-06-04T13:53:36Z</time>
      </trkpt>
      <trkpt lat="46.92577" lon="-2.07631">
        <ele>2.8</ele>
        <time>2020-06-04T13:53:37Z</time>
      </trkpt>
      <trkpt lat="46.92581" lon="-2.07627">
        <ele>2.8</ele>
        <time>2020-06-04T13:53:38Z</time>
      </trkpt>
      <trkpt lat="46.92586" lon="-2.07624">
        <ele>2.8</ele>
        <time>2020-06-04T13:53:39Z</time>
      </trkpt>
      <trkpt lat="46.9259" lon="-2.0762">
        <ele>2.8</ele>
        <time>2020-06-04T13:53:40Z</time>
      </trkpt>
      <trkpt lat="46.92593" lon="-2.07615">
        <ele>2.8</ele>
        <time>2020-06-04T13:53:41Z</time>
      </trkpt>
      <trkpt lat="46.92598" lon="-2.0761">
        <ele>2.8</ele>
        <time>2020-06-04T13:53:42Z</time>
      </trkpt>
      <trkpt lat="46.92602" lon="-2.07606">
        <ele>2.8</ele>
        <time>2020-06-04T13:53:43Z</time>
      </trkpt>
      <trkpt lat="46.92606" lon="-2.076">
        <ele>2.8</ele>
        <time>2020-06-04T13:53:44Z</time>
      </trkpt>
      <trkpt lat="46.9261" lon="-2.07595">
        <ele>2.8</ele>
        <time>2020-06-04T13:53:45Z</time>
      </trkpt>
      <trkpt lat="46.92613" lon="-2.0759">
        <ele>2.8</ele>
        <time>2020-06-04T13:53:46Z</time>
      </trkpt>
      <trkpt lat="46.92614" lon="-2.07583">
        <ele>2.8</ele>
        <time>2020-06-04T13:53:47Z</time>
      </trkpt>
      <trkpt lat="46.92615" lon="-2.07576">
        <ele>2.9</ele>
        <time>2020-06-04T13:53:48Z</time>
      </trkpt>
      <trkpt lat="46.92616" lon="-2.0757">
        <ele>2.9</ele>
        <time>2020-06-04T13:53:49Z</time>
      </trkpt>
      <trkpt lat="46.92617" lon="-2.07564">
        <ele>2.9</ele>
        <time>2020-06-04T13:53:50Z</time>
      </trkpt>
      <trkpt lat="46.92618" lon="-2.07558">
        <ele>2.9</ele>
        <time>2020-06-04T13:53:51Z</time>
      </trkpt>
      <trkpt lat="46.92619" lon="-2.07552">
        <ele>2.9</ele>
        <time>2020-06-04T13:53:52Z</time>
      </trkpt>
      <trkpt lat="46.9262" lon="-2.07544">
        <ele>2.9</ele>
        <time>2020-06-04T13:53:53Z</time>
      </trkpt>
      <trkpt lat="46.9262" lon="-2.07538">
        <ele>2.9</ele>
        <time>2020-06-04T13:53:54Z</time>
      </trkpt>
      <trkpt lat="46.9262" lon="-2.07534">
        <ele>2.9</ele>
        <time>2020-06-04T13:53:55Z</time>
      </trkpt>
      <trkpt lat="46.9262" lon="-2.07532">
        <ele>2.9</ele>
        <time>2020-06-04T13:53:56Z</time>
      </trkpt>
      <trkpt lat="46.92621" lon="-2.07531">
        <ele>2.9</ele>
        <time>2020-06-04T13:53:57Z</time>
      </trkpt>
      <trkpt lat="46.92621" lon="-2.07531">
        <ele>2.9</ele>
        <time>2020-06-04T13:53:58Z</time>
      </trkpt>
      <trkpt lat="46.92621" lon="-2.07531">
        <ele>2.9</ele>
        <time>2020-06-04T13:53:59Z</time>
      </trkpt>
      <trkpt lat="46.92622" lon="-2.0753">
        <ele>2.9</ele>
        <time>2020-06-04T13:54:00Z</time>
      </trkpt>
      <trkpt lat="46.92622" lon="-2.0753">
        <ele>2.9</ele>
        <time>2020-06-04T13:54:01Z</time>
      </trkpt>
      <trkpt lat="46.92622" lon="-2.0753">
        <ele>2.9</ele>
        <time>2020-06-04T13:54:02Z</time>
      </trkpt>
      <trkpt lat="46.92623" lon="-2.07529">
        <ele>2.9</ele>
        <time>2020-06-04T13:54:03Z</time>
      </trkpt>
      <trkpt lat="46.92625" lon="-2.07527">
        <ele>2.9</ele>
        <time>2020-06-04T13:54:04Z</time>
      </trkpt>
      <trkpt lat="46.92628" lon="-2.07524">
        <ele>2.8</ele>
        <time>2020-06-04T13:54:05Z</time>
      </trkpt>
      <trkpt lat="46.92631" lon="-2.07522">
        <ele>2.8</ele>
        <time>2020-06-04T13:54:06Z</time>
      </trkpt>
      <trkpt lat="46.92635" lon="-2.07519">
        <ele>2.8</ele>
        <time>2020-06-04T13:54:07Z</time>
      </trkpt>
      <trkpt lat="46.92639" lon="-2.07517">
        <ele>2.8</ele>
        <time>2020-06-04T13:54:08Z</time>
      </trkpt>
      <trkpt lat="46.92642" lon="-2.07516">
        <ele>2.8</ele>
        <time>2020-06-04T13:54:09Z</time>
      </trkpt>
      <trkpt lat="46.92646" lon="-2.07515">
        <ele>2.7</ele>
        <time>2020-06-04T13:54:10Z</time>
      </trkpt>
      <trkpt lat="46.9265" lon="-2.07512">
        <ele>2.7</ele>
        <time>2020-06-04T13:54:11Z</time>
      </trkpt>
      <trkpt lat="46.92654" lon="-2.0751">
        <ele>2.7</ele>
        <time>2020-06-04T13:54:12Z</time>
      </trkpt>
      <trkpt lat="46.92659" lon="-2.07506">
        <ele>2.7</ele>
        <time>2020-06-04T13:54:13Z</time>
      </trkpt>
      <trkpt lat="46.92663" lon="-2.07504">
        <ele>2.7</ele>
        <time>2020-06-04T13:54:14Z</time>
      </trkpt>
      <trkpt lat="46.92668" lon="-2.07501">
        <ele>2.6</ele>
        <time>2020-06-04T13:54:15Z</time>
      </trkpt>
      <trkpt lat="46.92673" lon="-2.07499">
        <ele>2.6</ele>
        <time>2020-06-04T13:54:16Z</time>
      </trkpt>
      <trkpt lat="46.92677" lon="-2.07497">
        <ele>2.6</ele>
        <time>2020-06-04T13:54:17Z</time>
      </trkpt>
      <trkpt lat="46.92681" lon="-2.07494">
        <ele>2.5</ele>
        <time>2020-06-04T13:54:18Z</time>
      </trkpt>
      <trkpt lat="46.92686" lon="-2.07492">
        <ele>2.5</ele>
        <time>2020-06-04T13:54:19Z</time>
      </trkpt>
      <trkpt lat="46.92691" lon="-2.07489">
        <ele>2.5</ele>
        <time>2020-06-04T13:54:20Z</time>
      </trkpt>
      <trkpt lat="46.92696" lon="-2.07487">
        <ele>2.4</ele>
        <time>2020-06-04T13:54:21Z</time>
      </trkpt>
      <trkpt lat="46.927" lon="-2.07485">
        <ele>2.4</ele>
        <time>2020-06-04T13:54:22Z</time>
      </trkpt>
      <trkpt lat="46.92704" lon="-2.07482">
        <ele>2.4</ele>
        <time>2020-06-04T13:54:23Z</time>
      </trkpt>
      <trkpt lat="46.92708" lon="-2.07481">
        <ele>2.3</ele>
        <time>2020-06-04T13:54:24Z</time>
      </trkpt>
      <trkpt lat="46.92712" lon="-2.07479">
        <ele>2.3</ele>
        <time>2020-06-04T13:54:25Z</time>
      </trkpt>
      <trkpt lat="46.92717" lon="-2.07477">
        <ele>2.3</ele>
        <time>2020-06-04T13:54:26Z</time>
      </trkpt>
      <trkpt lat="46.92722" lon="-2.07476">
        <ele>2.2</ele>
        <time>2020-06-04T13:54:27Z</time>
      </trkpt>
      <trkpt lat="46.92727" lon="-2.07473">
        <ele>2.2</ele>
        <time>2020-06-04T13:54:28Z</time>
      </trkpt>
      <trkpt lat="46.92732" lon="-2.0747">
        <ele>2.2</ele>
        <time>2020-06-04T13:54:29Z</time>
      </trkpt>
      <trkpt lat="46.92737" lon="-2.07469">
        <ele>2.1</ele>
        <time>2020-06-04T13:54:30Z</time>
      </trkpt>
      <trkpt lat="46.92741" lon="-2.07466">
        <ele>2.1</ele>
        <time>2020-06-04T13:54:31Z</time>
      </trkpt>
      <trkpt lat="46.92745" lon="-2.07464">
        <ele>2.1</ele>
        <time>2020-06-04T13:54:32Z</time>
      </trkpt>
      <trkpt lat="46.92749" lon="-2.07461">
        <ele>2.1</ele>
        <time>2020-06-04T13:54:33Z</time>
      </trkpt>
      <trkpt lat="46.92753" lon="-2.07458">
        <ele>2.1</ele>
        <time>2020-06-04T13:54:34Z</time>
      </trkpt>
      <trkpt lat="46.92757" lon="-2.07456">
        <ele>2.1</ele>
        <time>2020-06-04T13:54:35Z</time>
      </trkpt>
      <trkpt lat="46.92762" lon="-2.07454">
        <ele>2.1</ele>
        <time>2020-06-04T13:54:36Z</time>
      </trkpt>
      <trkpt lat="46.92767" lon="-2.07452">
        <ele>2.1</ele>
        <time>2020-06-04T13:54:37Z</time>
      </trkpt>
      <trkpt lat="46.92772" lon="-2.0745">
        <ele>2.1</ele>
        <time>2020-06-04T13:54:38Z</time>
      </trkpt>
      <trkpt lat="46.92776" lon="-2.07448">
        <ele>2.1</ele>
        <time>2020-06-04T13:54:39Z</time>
      </trkpt>
      <trkpt lat="46.92781" lon="-2.07447">
        <ele>2.1</ele>
        <time>2020-06-04T13:54:40Z</time>
      </trkpt>
      <trkpt lat="46.92785" lon="-2.07446">
        <ele>2.1</ele>
        <time>2020-06-04T13:54:41Z</time>
      </trkpt>
      <trkpt lat="46.9279" lon="-2.07444">
        <ele>2.1</ele>
        <time>2020-06-04T13:54:42Z</time>
      </trkpt>
      <trkpt lat="46.92795" lon="-2.07442">
        <ele>2.1</ele>
        <time>2020-06-04T13:54:43Z</time>
      </trkpt>
      <trkpt lat="46.928" lon="-2.07441">
        <ele>2.1</ele>
        <time>2020-06-04T13:54:44Z</time>
      </trkpt>
      <trkpt lat="46.92805" lon="-2.07439">
        <ele>2.1</ele>
        <time>2020-06-04T13:54:45Z</time>
      </trkpt>
      <trkpt lat="46.9281" lon="-2.07437">
        <ele>2</ele>
        <time>2020-06-04T13:54:46Z</time>
      </trkpt>
      <trkpt lat="46.92815" lon="-2.07435">
        <ele>2</ele>
        <time>2020-06-04T13:54:47Z</time>
      </trkpt>
      <trkpt lat="46.92819" lon="-2.07433">
        <ele>2</ele>
        <time>2020-06-04T13:54:48Z</time>
      </trkpt>
      <trkpt lat="46.92823" lon="-2.07431">
        <ele>2</ele>
        <time>2020-06-04T13:54:49Z</time>
      </trkpt>
      <trkpt lat="46.92828" lon="-2.07429">
        <ele>2</ele>
        <time>2020-06-04T13:54:50Z</time>
      </trkpt>
      <trkpt lat="46.92832" lon="-2.07428">
        <ele>2</ele>
        <time>2020-06-04T13:54:51Z</time>
      </trkpt>
      <trkpt lat="46.92837" lon="-2.07427">
        <ele>2</ele>
        <time>2020-06-04T13:54:52Z</time>
      </trkpt>
      <trkpt lat="46.92841" lon="-2.07426">
        <ele>2</ele>
        <time>2020-06-04T13:54:53Z</time>
      </trkpt>
      <trkpt lat="46.92846" lon="-2.07424">
        <ele>2</ele>
        <time>2020-06-04T13:54:54Z</time>
      </trkpt>
      <trkpt lat="46.9285" lon="-2.07421">
        <ele>2</ele>
        <time>2020-06-04T13:54:55Z</time>
      </trkpt>
      <trkpt lat="46.92855" lon="-2.07419">
        <ele>2</ele>
        <time>2020-06-04T13:54:56Z</time>
      </trkpt>
      <trkpt lat="46.9286" lon="-2.07416">
        <ele>2</ele>
        <time>2020-06-04T13:54:57Z</time>
      </trkpt>
      <trkpt lat="46.92865" lon="-2.07414">
        <ele>2</ele>
        <time>2020-06-04T13:54:58Z</time>
      </trkpt>
      <trkpt lat="46.9287" lon="-2.07413">
        <ele>2</ele>
        <time>2020-06-04T13:54:59Z</time>
      </trkpt>
      <trkpt lat="46.92874" lon="-2.07411">
        <ele>2</ele>
        <time>2020-06-04T13:55:00Z</time>
      </trkpt>
      <trkpt lat="46.92879" lon="-2.07409">
        <ele>2</ele>
        <time>2020-06-04T13:55:01Z</time>
      </trkpt>
      <trkpt lat="46.92883" lon="-2.07405">
        <ele>2</ele>
        <time>2020-06-04T13:55:02Z</time>
      </trkpt>
      <trkpt lat="46.92887" lon="-2.07403">
        <ele>2</ele>
        <time>2020-06-04T13:55:03Z</time>
      </trkpt>
      <trkpt lat="46.92891" lon="-2.07401">
        <ele>2</ele>
        <time>2020-06-04T13:55:04Z</time>
      </trkpt>
      <trkpt lat="46.92895" lon="-2.07399">
        <ele>2</ele>
        <time>2020-06-04T13:55:05Z</time>
      </trkpt>
      <trkpt lat="46.92899" lon="-2.07397">
        <ele>2</ele>
        <time>2020-06-04T13:55:06Z</time>
      </trkpt>
      <trkpt lat="46.92903" lon="-2.07394">
        <ele>2</ele>
        <time>2020-06-04T13:55:07Z</time>
      </trkpt>
      <trkpt lat="46.92907" lon="-2.07392">
        <ele>2</ele>
        <time>2020-06-04T13:55:08Z</time>
      </trkpt>
      <trkpt lat="46.92912" lon="-2.0739">
        <ele>2</ele>
        <time>2020-06-04T13:55:09Z</time>
      </trkpt>
      <trkpt lat="46.92916" lon="-2.07388">
        <ele>2</ele>
        <time>2020-06-04T13:55:10Z</time>
      </trkpt>
      <trkpt lat="46.92919" lon="-2.07388">
        <ele>2</ele>
        <time>2020-06-04T13:55:11Z</time>
      </trkpt>
      <trkpt lat="46.92924" lon="-2.07387">
        <ele>2</ele>
        <time>2020-06-04T13:55:12Z</time>
      </trkpt>
      <trkpt lat="46.92928" lon="-2.07386">
        <ele>2</ele>
        <time>2020-06-04T13:55:13Z</time>
      </trkpt>
      <trkpt lat="46.92932" lon="-2.07384">
        <ele>2</ele>
        <time>2020-06-04T13:55:14Z</time>
      </trkpt>
      <trkpt lat="46.92936" lon="-2.07381">
        <ele>2</ele>
        <time>2020-06-04T13:55:15Z</time>
      </trkpt>
      <trkpt lat="46.92941" lon="-2.07379">
        <ele>2</ele>
        <time>2020-06-04T13:55:16Z</time>
      </trkpt>
      <trkpt lat="46.92945" lon="-2.07377">
        <ele>2</ele>
        <time>2020-06-04T13:55:17Z</time>
      </trkpt>
      <trkpt lat="46.9295" lon="-2.07375">
        <ele>2</ele>
        <time>2020-06-04T13:55:18Z</time>
      </trkpt>
      <trkpt lat="46.92954" lon="-2.07373">
        <ele>2</ele>
        <time>2020-06-04T13:55:19Z</time>
      </trkpt>
      <trkpt lat="46.92959" lon="-2.07371">
        <ele>2</ele>
        <time>2020-06-04T13:55:20Z</time>
      </trkpt>
      <trkpt lat="46.92963" lon="-2.07369">
        <ele>2</ele>
        <time>2020-06-04T13:55:21Z</time>
      </trkpt>
      <trkpt lat="46.92968" lon="-2.07367">
        <ele>2</ele>
        <time>2020-06-04T13:55:22Z</time>
      </trkpt>
      <trkpt lat="46.92972" lon="-2.07365">
        <ele>2</ele>
        <time>2020-06-04T13:55:23Z</time>
      </trkpt>
      <trkpt lat="46.92976" lon="-2.07361">
        <ele>2</ele>
        <time>2020-06-04T13:55:24Z</time>
      </trkpt>
      <trkpt lat="46.92981" lon="-2.07358">
        <ele>2</ele>
        <time>2020-06-04T13:55:25Z</time>
      </trkpt>
      <trkpt lat="46.92987" lon="-2.07355">
        <ele>2</ele>
        <time>2020-06-04T13:55:26Z</time>
      </trkpt>
      <trkpt lat="46.92992" lon="-2.07352">
        <ele>2</ele>
        <time>2020-06-04T13:55:27Z</time>
      </trkpt>
      <trkpt lat="46.92996" lon="-2.0735">
        <ele>2</ele>
        <time>2020-06-04T13:55:28Z</time>
      </trkpt>
      <trkpt lat="46.93" lon="-2.07349">
        <ele>2</ele>
        <time>2020-06-04T13:55:29Z</time>
      </trkpt>
      <trkpt lat="46.93004" lon="-2.07347">
        <ele>2</ele>
        <time>2020-06-04T13:55:30Z</time>
      </trkpt>
      <trkpt lat="46.93009" lon="-2.07343">
        <ele>2</ele>
        <time>2020-06-04T13:55:31Z</time>
      </trkpt>
      <trkpt lat="46.93015" lon="-2.0734">
        <ele>2</ele>
        <time>2020-06-04T13:55:32Z</time>
      </trkpt>
      <trkpt lat="46.93021" lon="-2.07339">
        <ele>2</ele>
        <time>2020-06-04T13:55:33Z</time>
      </trkpt>
      <trkpt lat="46.93026" lon="-2.07337">
        <ele>2</ele>
        <time>2020-06-04T13:55:34Z</time>
      </trkpt>
      <trkpt lat="46.93032" lon="-2.07336">
        <ele>2</ele>
        <time>2020-06-04T13:55:35Z</time>
      </trkpt>
      <trkpt lat="46.93037" lon="-2.07334">
        <ele>1.9</ele>
        <time>2020-06-04T13:55:36Z</time>
      </trkpt>
      <trkpt lat="46.93042" lon="-2.07332">
        <ele>1.9</ele>
        <time>2020-06-04T13:55:37Z</time>
      </trkpt>
      <trkpt lat="46.93047" lon="-2.07329">
        <ele>1.9</ele>
        <time>2020-06-04T13:55:38Z</time>
      </trkpt>
      <trkpt lat="46.93051" lon="-2.07326">
        <ele>1.9</ele>
        <time>2020-06-04T13:55:39Z</time>
      </trkpt>
      <trkpt lat="46.93056" lon="-2.07325">
        <ele>1.9</ele>
        <time>2020-06-04T13:55:40Z</time>
      </trkpt>
      <trkpt lat="46.93061" lon="-2.07322">
        <ele>1.9</ele>
        <time>2020-06-04T13:55:41Z</time>
      </trkpt>
      <trkpt lat="46.93067" lon="-2.0732">
        <ele>1.9</ele>
        <time>2020-06-04T13:55:42Z</time>
      </trkpt>
      <trkpt lat="46.93072" lon="-2.07318">
        <ele>2</ele>
        <time>2020-06-04T13:55:43Z</time>
      </trkpt>
      <trkpt lat="46.93077" lon="-2.07316">
        <ele>2</ele>
        <time>2020-06-04T13:55:44Z</time>
      </trkpt>
      <trkpt lat="46.93082" lon="-2.07315">
        <ele>2</ele>
        <time>2020-06-04T13:55:45Z</time>
      </trkpt>
      <trkpt lat="46.93087" lon="-2.07312">
        <ele>2</ele>
        <time>2020-06-04T13:55:46Z</time>
      </trkpt>
      <trkpt lat="46.93092" lon="-2.0731">
        <ele>2</ele>
        <time>2020-06-04T13:55:47Z</time>
      </trkpt>
      <trkpt lat="46.93097" lon="-2.07308">
        <ele>2</ele>
        <time>2020-06-04T13:55:48Z</time>
      </trkpt>
      <trkpt lat="46.93102" lon="-2.07305">
        <ele>2</ele>
        <time>2020-06-04T13:55:49Z</time>
      </trkpt>
      <trkpt lat="46.93107" lon="-2.07302">
        <ele>2</ele>
        <time>2020-06-04T13:55:50Z</time>
      </trkpt>
      <trkpt lat="46.93112" lon="-2.073">
        <ele>2</ele>
        <time>2020-06-04T13:55:51Z</time>
      </trkpt>
      <trkpt lat="46.93117" lon="-2.07298">
        <ele>2</ele>
        <time>2020-06-04T13:55:52Z</time>
      </trkpt>
      <trkpt lat="46.93122" lon="-2.07295">
        <ele>2</ele>
        <time>2020-06-04T13:55:53Z</time>
      </trkpt>
      <trkpt lat="46.93127" lon="-2.07293">
        <ele>2</ele>
        <time>2020-06-04T13:55:54Z</time>
      </trkpt>
      <trkpt lat="46.93132" lon="-2.0729">
        <ele>2</ele>
        <time>2020-06-04T13:55:55Z</time>
      </trkpt>
      <trkpt lat="46.93137" lon="-2.07288">
        <ele>2</ele>
        <time>2020-06-04T13:55:56Z</time>
      </trkpt>
      <trkpt lat="46.93142" lon="-2.07285">
        <ele>2</ele>
        <time>2020-06-04T13:55:57Z</time>
      </trkpt>
      <trkpt lat="46.93146" lon="-2.07283">
        <ele>2</ele>
        <time>2020-06-04T13:55:58Z</time>
      </trkpt>
      <trkpt lat="46.93151" lon="-2.07282">
        <ele>2</ele>
        <time>2020-06-04T13:55:59Z</time>
      </trkpt>
      <trkpt lat="46.93155" lon="-2.0728">
        <ele>2</ele>
        <time>2020-06-04T13:56:00Z</time>
      </trkpt>
      <trkpt lat="46.93159" lon="-2.07278">
        <ele>2</ele>
        <time>2020-06-04T13:56:01Z</time>
      </trkpt>
      <trkpt lat="46.93162" lon="-2.07275">
        <ele>2</ele>
        <time>2020-06-04T13:56:02Z</time>
      </trkpt>
      <trkpt lat="46.93167" lon="-2.07272">
        <ele>2</ele>
        <time>2020-06-04T13:56:03Z</time>
      </trkpt>
      <trkpt lat="46.93172" lon="-2.07269">
        <ele>2</ele>
        <time>2020-06-04T13:56:04Z</time>
      </trkpt>
      <trkpt lat="46.93177" lon="-2.07266">
        <ele>2</ele>
        <time>2020-06-04T13:56:05Z</time>
      </trkpt>
      <trkpt lat="46.93182" lon="-2.07263">
        <ele>2</ele>
        <time>2020-06-04T13:56:06Z</time>
      </trkpt>
      <trkpt lat="46.93187" lon="-2.07261">
        <ele>2</ele>
        <time>2020-06-04T13:56:07Z</time>
      </trkpt>
      <trkpt lat="46.93192" lon="-2.0726">
        <ele>2</ele>
        <time>2020-06-04T13:56:08Z</time>
      </trkpt>
      <trkpt lat="46.93197" lon="-2.07259">
        <ele>2</ele>
        <time>2020-06-04T13:56:09Z</time>
      </trkpt>
      <trkpt lat="46.93203" lon="-2.07258">
        <ele>2</ele>
        <time>2020-06-04T13:56:10Z</time>
      </trkpt>
      <trkpt lat="46.93209" lon="-2.07256">
        <ele>2</ele>
        <time>2020-06-04T13:56:11Z</time>
      </trkpt>
      <trkpt lat="46.93214" lon="-2.07253">
        <ele>2</ele>
        <time>2020-06-04T13:56:12Z</time>
      </trkpt>
      <trkpt lat="46.9322" lon="-2.07251">
        <ele>2</ele>
        <time>2020-06-04T13:56:13Z</time>
      </trkpt>
      <trkpt lat="46.93225" lon="-2.07248">
        <ele>2</ele>
        <time>2020-06-04T13:56:14Z</time>
      </trkpt>
      <trkpt lat="46.9323" lon="-2.07245">
        <ele>2</ele>
        <time>2020-06-04T13:56:15Z</time>
      </trkpt>
      <trkpt lat="46.93234" lon="-2.07243">
        <ele>2</ele>
        <time>2020-06-04T13:56:16Z</time>
      </trkpt>
      <trkpt lat="46.93238" lon="-2.07241">
        <ele>2</ele>
        <time>2020-06-04T13:56:17Z</time>
      </trkpt>
      <trkpt lat="46.93243" lon="-2.07239">
        <ele>2</ele>
        <time>2020-06-04T13:56:18Z</time>
      </trkpt>
      <trkpt lat="46.93248" lon="-2.07237">
        <ele>2</ele>
        <time>2020-06-04T13:56:19Z</time>
      </trkpt>
      <trkpt lat="46.93253" lon="-2.07236">
        <ele>2</ele>
        <time>2020-06-04T13:56:20Z</time>
      </trkpt>
      <trkpt lat="46.93257" lon="-2.07232">
        <ele>2.1</ele>
        <time>2020-06-04T13:56:21Z</time>
      </trkpt>
      <trkpt lat="46.93263" lon="-2.07229">
        <ele>2.1</ele>
        <time>2020-06-04T13:56:22Z</time>
      </trkpt>
      <trkpt lat="46.93268" lon="-2.07227">
        <ele>2.1</ele>
        <time>2020-06-04T13:56:23Z</time>
      </trkpt>
      <trkpt lat="46.93273" lon="-2.07224">
        <ele>2.1</ele>
        <time>2020-06-04T13:56:24Z</time>
      </trkpt>
      <trkpt lat="46.93277" lon="-2.07222">
        <ele>2.1</ele>
        <time>2020-06-04T13:56:25Z</time>
      </trkpt>
      <trkpt lat="46.93282" lon="-2.0722">
        <ele>2.1</ele>
        <time>2020-06-04T13:56:26Z</time>
      </trkpt>
      <trkpt lat="46.93287" lon="-2.07216">
        <ele>2.1</ele>
        <time>2020-06-04T13:56:27Z</time>
      </trkpt>
      <trkpt lat="46.93292" lon="-2.07215">
        <ele>2</ele>
        <time>2020-06-04T13:56:28Z</time>
      </trkpt>
      <trkpt lat="46.93296" lon="-2.07214">
        <ele>2</ele>
        <time>2020-06-04T13:56:29Z</time>
      </trkpt>
      <trkpt lat="46.93302" lon="-2.07213">
        <ele>2</ele>
        <time>2020-06-04T13:56:30Z</time>
      </trkpt>
      <trkpt lat="46.93307" lon="-2.0721">
        <ele>2</ele>
        <time>2020-06-04T13:56:31Z</time>
      </trkpt>
      <trkpt lat="46.93312" lon="-2.07209">
        <ele>2</ele>
        <time>2020-06-04T13:56:32Z</time>
      </trkpt>
      <trkpt lat="46.93317" lon="-2.07207">
        <ele>2</ele>
        <time>2020-06-04T13:56:33Z</time>
      </trkpt>
      <trkpt lat="46.93322" lon="-2.07204">
        <ele>2</ele>
        <time>2020-06-04T13:56:34Z</time>
      </trkpt>
      <trkpt lat="46.93326" lon="-2.07203">
        <ele>1.9</ele>
        <time>2020-06-04T13:56:35Z</time>
      </trkpt>
      <trkpt lat="46.93331" lon="-2.072">
        <ele>1.9</ele>
        <time>2020-06-04T13:56:36Z</time>
      </trkpt>
      <trkpt lat="46.93335" lon="-2.07197">
        <ele>1.9</ele>
        <time>2020-06-04T13:56:37Z</time>
      </trkpt>
      <trkpt lat="46.93341" lon="-2.07195">
        <ele>1.9</ele>
        <time>2020-06-04T13:56:38Z</time>
      </trkpt>
      <trkpt lat="46.93347" lon="-2.07193">
        <ele>1.9</ele>
        <time>2020-06-04T13:56:39Z</time>
      </trkpt>
      <trkpt lat="46.93352" lon="-2.0719">
        <ele>1.9</ele>
        <time>2020-06-04T13:56:40Z</time>
      </trkpt>
      <trkpt lat="46.93358" lon="-2.07187">
        <ele>1.9</ele>
        <time>2020-06-04T13:56:41Z</time>
      </trkpt>
      <trkpt lat="46.93363" lon="-2.07185">
        <ele>1.9</ele>
        <time>2020-06-04T13:56:42Z</time>
      </trkpt>
      <trkpt lat="46.93368" lon="-2.07182">
        <ele>1.9</ele>
        <time>2020-06-04T13:56:43Z</time>
      </trkpt>
      <trkpt lat="46.93372" lon="-2.07178">
        <ele>1.8</ele>
        <time>2020-06-04T13:56:44Z</time>
      </trkpt>
      <trkpt lat="46.93377" lon="-2.07176">
        <ele>1.8</ele>
        <time>2020-06-04T13:56:45Z</time>
      </trkpt>
      <trkpt lat="46.93381" lon="-2.07173">
        <ele>1.8</ele>
        <time>2020-06-04T13:56:46Z</time>
      </trkpt>
      <trkpt lat="46.93385" lon="-2.0717">
        <ele>1.8</ele>
        <time>2020-06-04T13:56:47Z</time>
      </trkpt>
      <trkpt lat="46.93389" lon="-2.07167">
        <ele>1.8</ele>
        <time>2020-06-04T13:56:48Z</time>
      </trkpt>
      <trkpt lat="46.93394" lon="-2.07165">
        <ele>1.8</ele>
        <time>2020-06-04T13:56:49Z</time>
      </trkpt>
      <trkpt lat="46.934" lon="-2.07163">
        <ele>1.8</ele>
        <time>2020-06-04T13:56:50Z</time>
      </trkpt>
      <trkpt lat="46.93405" lon="-2.0716">
        <ele>1.8</ele>
        <time>2020-06-04T13:56:51Z</time>
      </trkpt>
      <trkpt lat="46.9341" lon="-2.07156">
        <ele>1.8</ele>
        <time>2020-06-04T13:56:52Z</time>
      </trkpt>
      <trkpt lat="46.93416" lon="-2.07156">
        <ele>1.9</ele>
        <time>2020-06-04T13:56:53Z</time>
      </trkpt>
      <trkpt lat="46.93422" lon="-2.07153">
        <ele>1.9</ele>
        <time>2020-06-04T13:56:54Z</time>
      </trkpt>
      <trkpt lat="46.93426" lon="-2.07151">
        <ele>2</ele>
        <time>2020-06-04T13:56:55Z</time>
      </trkpt>
      <trkpt lat="46.93431" lon="-2.07149">
        <ele>2</ele>
        <time>2020-06-04T13:56:56Z</time>
      </trkpt>
      <trkpt lat="46.93436" lon="-2.07146">
        <ele>2.1</ele>
        <time>2020-06-04T13:56:57Z</time>
      </trkpt>
      <trkpt lat="46.93441" lon="-2.07143">
        <ele>2.1</ele>
        <time>2020-06-04T13:56:58Z</time>
      </trkpt>
      <trkpt lat="46.93446" lon="-2.07141">
        <ele>2.1</ele>
        <time>2020-06-04T13:56:59Z</time>
      </trkpt>
      <trkpt lat="46.93451" lon="-2.0714">
        <ele>2.1</ele>
        <time>2020-06-04T13:57:00Z</time>
      </trkpt>
      <trkpt lat="46.93455" lon="-2.07139">
        <ele>2.1</ele>
        <time>2020-06-04T13:57:01Z</time>
      </trkpt>
      <trkpt lat="46.93458" lon="-2.07136">
        <ele>2.1</ele>
        <time>2020-06-04T13:57:02Z</time>
      </trkpt>
      <trkpt lat="46.93462" lon="-2.07135">
        <ele>2.2</ele>
        <time>2020-06-04T13:57:03Z</time>
      </trkpt>
      <trkpt lat="46.93466" lon="-2.07134">
        <ele>2.2</ele>
        <time>2020-06-04T13:57:04Z</time>
      </trkpt>
      <trkpt lat="46.93469" lon="-2.07133">
        <ele>2.3</ele>
        <time>2020-06-04T13:57:05Z</time>
      </trkpt>
      <trkpt lat="46.93473" lon="-2.07132">
        <ele>2.3</ele>
        <time>2020-06-04T13:57:06Z</time>
      </trkpt>
      <trkpt lat="46.93477" lon="-2.07129">
        <ele>2.4</ele>
        <time>2020-06-04T13:57:07Z</time>
      </trkpt>
      <trkpt lat="46.93481" lon="-2.07127">
        <ele>2.5</ele>
        <time>2020-06-04T13:57:08Z</time>
      </trkpt>
      <trkpt lat="46.93482" lon="-2.07122">
        <ele>2.5</ele>
        <time>2020-06-04T13:57:09Z</time>
      </trkpt>
      <trkpt lat="46.93485" lon="-2.0712">
        <ele>2.5</ele>
        <time>2020-06-04T13:57:10Z</time>
      </trkpt>
      <trkpt lat="46.93489" lon="-2.07116">
        <ele>2.6</ele>
        <time>2020-06-04T13:57:11Z</time>
      </trkpt>
      <trkpt lat="46.93492" lon="-2.07112">
        <ele>2.7</ele>
        <time>2020-06-04T13:57:12Z</time>
      </trkpt>
      <trkpt lat="46.93495" lon="-2.07108">
        <ele>2.7</ele>
        <time>2020-06-04T13:57:13Z</time>
      </trkpt>
      <trkpt lat="46.93499" lon="-2.07104">
        <ele>2.8</ele>
        <time>2020-06-04T13:57:14Z</time>
      </trkpt>
      <trkpt lat="46.93501" lon="-2.07099">
        <ele>2.9</ele>
        <time>2020-06-04T13:57:15Z</time>
      </trkpt>
      <trkpt lat="46.93501" lon="-2.07094">
        <ele>2.9</ele>
        <time>2020-06-04T13:57:16Z</time>
      </trkpt>
      <trkpt lat="46.93502" lon="-2.0709">
        <ele>3</ele>
        <time>2020-06-04T13:57:17Z</time>
      </trkpt>
      <trkpt lat="46.93504" lon="-2.07086">
        <ele>3</ele>
        <time>2020-06-04T13:57:18Z</time>
      </trkpt>
      <trkpt lat="46.93505" lon="-2.07081">
        <ele>3</ele>
        <time>2020-06-04T13:57:19Z</time>
      </trkpt>
      <trkpt lat="46.93505" lon="-2.07079">
        <ele>3</ele>
        <time>2020-06-04T13:57:20Z</time>
      </trkpt>
      <trkpt lat="46.93505" lon="-2.07075">
        <ele>3</ele>
        <time>2020-06-04T13:57:21Z</time>
      </trkpt>
      <trkpt lat="46.93505" lon="-2.07071">
        <ele>3</ele>
        <time>2020-06-04T13:57:22Z</time>
      </trkpt>
      <trkpt lat="46.93505" lon="-2.07067">
        <ele>3</ele>
        <time>2020-06-04T13:57:23Z</time>
      </trkpt>
      <trkpt lat="46.93503" lon="-2.07064">
        <ele>3</ele>
        <time>2020-06-04T13:57:24Z</time>
      </trkpt>
      <trkpt lat="46.93502" lon="-2.0706">
        <ele>3</ele>
        <time>2020-06-04T13:57:25Z</time>
      </trkpt>
      <trkpt lat="46.935" lon="-2.07057">
        <ele>3</ele>
        <time>2020-06-04T13:57:26Z</time>
      </trkpt>
      <trkpt lat="46.93497" lon="-2.07054">
        <ele>3</ele>
        <time>2020-06-04T13:57:27Z</time>
      </trkpt>
      <trkpt lat="46.93495" lon="-2.0705">
        <ele>3</ele>
        <time>2020-06-04T13:57:28Z</time>
      </trkpt>
      <trkpt lat="46.93493" lon="-2.07046">
        <ele>3</ele>
        <time>2020-06-04T13:57:29Z</time>
      </trkpt>
      <trkpt lat="46.93491" lon="-2.07042">
        <ele>3</ele>
        <time>2020-06-04T13:57:30Z</time>
      </trkpt>
      <trkpt lat="46.93489" lon="-2.07039">
        <ele>3</ele>
        <time>2020-06-04T13:57:31Z</time>
      </trkpt>
      <trkpt lat="46.93487" lon="-2.07036">
        <ele>3</ele>
        <time>2020-06-04T13:57:32Z</time>
      </trkpt>
      <trkpt lat="46.93484" lon="-2.07033">
        <ele>3</ele>
        <time>2020-06-04T13:57:33Z</time>
      </trkpt>
      <trkpt lat="46.93482" lon="-2.07029">
        <ele>3</ele>
        <time>2020-06-04T13:57:34Z</time>
      </trkpt>
      <trkpt lat="46.9348" lon="-2.07024">
        <ele>3</ele>
        <time>2020-06-04T13:57:35Z</time>
      </trkpt>
      <trkpt lat="46.93477" lon="-2.07019">
        <ele>3</ele>
        <time>2020-06-04T13:57:36Z</time>
      </trkpt>
      <trkpt lat="46.93474" lon="-2.07015">
        <ele>3</ele>
        <time>2020-06-04T13:57:37Z</time>
      </trkpt>
      <trkpt lat="46.93472" lon="-2.07009">
        <ele>3</ele>
        <time>2020-06-04T13:57:38Z</time>
      </trkpt>
      <trkpt lat="46.9347" lon="-2.07004">
        <ele>3</ele>
        <time>2020-06-04T13:57:39Z</time>
      </trkpt>
      <trkpt lat="46.93468" lon="-2.07">
        <ele>3</ele>
        <time>2020-06-04T13:57:40Z</time>
      </trkpt>
      <trkpt lat="46.93466" lon="-2.06996">
        <ele>3</ele>
        <time>2020-06-04T13:57:41Z</time>
      </trkpt>
      <trkpt lat="46.93464" lon="-2.0699">
        <ele>3</ele>
        <time>2020-06-04T13:57:42Z</time>
      </trkpt>
      <trkpt lat="46.93461" lon="-2.06985">
        <ele>3</ele>
        <time>2020-06-04T13:57:43Z</time>
      </trkpt>
      <trkpt lat="46.93458" lon="-2.0698">
        <ele>3</ele>
        <time>2020-06-04T13:57:44Z</time>
      </trkpt>
      <trkpt lat="46.93457" lon="-2.06974">
        <ele>3</ele>
        <time>2020-06-04T13:57:45Z</time>
      </trkpt>
      <trkpt lat="46.93454" lon="-2.0697">
        <ele>3</ele>
        <time>2020-06-04T13:57:46Z</time>
      </trkpt>
      <trkpt lat="46.93451" lon="-2.06965">
        <ele>2.9</ele>
        <time>2020-06-04T13:57:47Z</time>
      </trkpt>
      <trkpt lat="46.93449" lon="-2.0696">
        <ele>2.9</ele>
        <time>2020-06-04T13:57:48Z</time>
      </trkpt>
      <trkpt lat="46.93447" lon="-2.06956">
        <ele>2.9</ele>
        <time>2020-06-04T13:57:49Z</time>
      </trkpt>
      <trkpt lat="46.93444" lon="-2.06951">
        <ele>2.8</ele>
        <time>2020-06-04T13:57:50Z</time>
      </trkpt>
      <trkpt lat="46.93442" lon="-2.06946">
        <ele>2.8</ele>
        <time>2020-06-04T13:57:51Z</time>
      </trkpt>
      <trkpt lat="46.9344" lon="-2.06942">
        <ele>2.7</ele>
        <time>2020-06-04T13:57:52Z</time>
      </trkpt>
      <trkpt lat="46.93438" lon="-2.06934">
        <ele>2.6</ele>
        <time>2020-06-04T13:57:53Z</time>
      </trkpt>
      <trkpt lat="46.93436" lon="-2.06927">
        <ele>2.6</ele>
        <time>2020-06-04T13:57:54Z</time>
      </trkpt>
      <trkpt lat="46.93434" lon="-2.06921">
        <ele>2.5</ele>
        <time>2020-06-04T13:57:55Z</time>
      </trkpt>
      <trkpt lat="46.93431" lon="-2.06917">
        <ele>2.5</ele>
        <time>2020-06-04T13:57:56Z</time>
      </trkpt>
      <trkpt lat="46.93429" lon="-2.06913">
        <ele>2.4</ele>
        <time>2020-06-04T13:57:57Z</time>
      </trkpt>
      <trkpt lat="46.93427" lon="-2.06909">
        <ele>2.4</ele>
        <time>2020-06-04T13:57:58Z</time>
      </trkpt>
      <trkpt lat="46.93425" lon="-2.06905">
        <ele>2.4</ele>
        <time>2020-06-04T13:57:59Z</time>
      </trkpt>
      <trkpt lat="46.93422" lon="-2.06899">
        <ele>2.4</ele>
        <time>2020-06-04T13:58:00Z</time>
      </trkpt>
      <trkpt lat="46.93419" lon="-2.06892">
        <ele>2.4</ele>
        <time>2020-06-04T13:58:01Z</time>
      </trkpt>
      <trkpt lat="46.93417" lon="-2.06888">
        <ele>2.3</ele>
        <time>2020-06-04T13:58:02Z</time>
      </trkpt>
      <trkpt lat="46.93414" lon="-2.06883">
        <ele>2.3</ele>
        <time>2020-06-04T13:58:03Z</time>
      </trkpt>
      <trkpt lat="46.93411" lon="-2.06879">
        <ele>2.3</ele>
        <time>2020-06-04T13:58:04Z</time>
      </trkpt>
      <trkpt lat="46.93409" lon="-2.06875">
        <ele>2.3</ele>
        <time>2020-06-04T13:58:05Z</time>
      </trkpt>
      <trkpt lat="46.93407" lon="-2.0687">
        <ele>2.3</ele>
        <time>2020-06-04T13:58:06Z</time>
      </trkpt>
      <trkpt lat="46.93405" lon="-2.06866">
        <ele>2.3</ele>
        <time>2020-06-04T13:58:07Z</time>
      </trkpt>
      <trkpt lat="46.93403" lon="-2.0686">
        <ele>2.3</ele>
        <time>2020-06-04T13:58:08Z</time>
      </trkpt>
      <trkpt lat="46.93401" lon="-2.06855">
        <ele>2.3</ele>
        <time>2020-06-04T13:58:09Z</time>
      </trkpt>
      <trkpt lat="46.93398" lon="-2.06849">
        <ele>2.3</ele>
        <time>2020-06-04T13:58:10Z</time>
      </trkpt>
      <trkpt lat="46.93395" lon="-2.06844">
        <ele>2.3</ele>
        <time>2020-06-04T13:58:11Z</time>
      </trkpt>
      <trkpt lat="46.93393" lon="-2.06838">
        <ele>2.3</ele>
        <time>2020-06-04T13:58:12Z</time>
      </trkpt>
      <trkpt lat="46.93389" lon="-2.06832">
        <ele>2.2</ele>
        <time>2020-06-04T13:58:13Z</time>
      </trkpt>
      <trkpt lat="46.93386" lon="-2.06825">
        <ele>2.2</ele>
        <time>2020-06-04T13:58:14Z</time>
      </trkpt>
      <trkpt lat="46.93382" lon="-2.06819">
        <ele>2.2</ele>
        <time>2020-06-04T13:58:15Z</time>
      </trkpt>
      <trkpt lat="46.93379" lon="-2.06813">
        <ele>2.2</ele>
        <time>2020-06-04T13:58:16Z</time>
      </trkpt>
      <trkpt lat="46.93376" lon="-2.06808">
        <ele>2.2</ele>
        <time>2020-06-04T13:58:17Z</time>
      </trkpt>
      <trkpt lat="46.93373" lon="-2.06802">
        <ele>2.1</ele>
        <time>2020-06-04T13:58:18Z</time>
      </trkpt>
      <trkpt lat="46.93369" lon="-2.06797">
        <ele>2.1</ele>
        <time>2020-06-04T13:58:19Z</time>
      </trkpt>
      <trkpt lat="46.93366" lon="-2.06791">
        <ele>2.1</ele>
        <time>2020-06-04T13:58:20Z</time>
      </trkpt>
      <trkpt lat="46.93362" lon="-2.06784">
        <ele>2.1</ele>
        <time>2020-06-04T13:58:21Z</time>
      </trkpt>
      <trkpt lat="46.93359" lon="-2.06778">
        <ele>2</ele>
        <time>2020-06-04T13:58:22Z</time>
      </trkpt>
      <trkpt lat="46.93355" lon="-2.06772">
        <ele>2</ele>
        <time>2020-06-04T13:58:23Z</time>
      </trkpt>
      <trkpt lat="46.93351" lon="-2.06765">
        <ele>2</ele>
        <time>2020-06-04T13:58:24Z</time>
      </trkpt>
      <trkpt lat="46.93348" lon="-2.06758">
        <ele>2</ele>
        <time>2020-06-04T13:58:25Z</time>
      </trkpt>
      <trkpt lat="46.93344" lon="-2.0675">
        <ele>1.9</ele>
        <time>2020-06-04T13:58:26Z</time>
      </trkpt>
      <trkpt lat="46.9334" lon="-2.06743">
        <ele>1.9</ele>
        <time>2020-06-04T13:58:27Z</time>
      </trkpt>
      <trkpt lat="46.93336" lon="-2.06737">
        <ele>1.9</ele>
        <time>2020-06-04T13:58:28Z</time>
      </trkpt>
      <trkpt lat="46.93331" lon="-2.06731">
        <ele>1.9</ele>
        <time>2020-06-04T13:58:29Z</time>
      </trkpt>
      <trkpt lat="46.93328" lon="-2.06724">
        <ele>1.9</ele>
        <time>2020-06-04T13:58:30Z</time>
      </trkpt>
      <trkpt lat="46.93325" lon="-2.06717">
        <ele>1.8</ele>
        <time>2020-06-04T13:58:31Z</time>
      </trkpt>
      <trkpt lat="46.93323" lon="-2.06711">
        <ele>1.8</ele>
        <time>2020-06-04T13:58:32Z</time>
      </trkpt>
      <trkpt lat="46.9332" lon="-2.06703">
        <ele>1.8</ele>
        <time>2020-06-04T13:58:33Z</time>
      </trkpt>
      <trkpt lat="46.93319" lon="-2.06693">
        <ele>1.8</ele>
        <time>2020-06-04T13:58:34Z</time>
      </trkpt>
      <trkpt lat="46.93318" lon="-2.06685">
        <ele>1.8</ele>
        <time>2020-06-04T13:58:35Z</time>
      </trkpt>
      <trkpt lat="46.93317" lon="-2.06676">
        <ele>1.8</ele>
        <time>2020-06-04T13:58:36Z</time>
      </trkpt>
      <trkpt lat="46.93317" lon="-2.06667">
        <ele>1.8</ele>
        <time>2020-06-04T13:58:37Z</time>
      </trkpt>
      <trkpt lat="46.93316" lon="-2.06658">
        <ele>1.8</ele>
        <time>2020-06-04T13:58:38Z</time>
      </trkpt>
      <trkpt lat="46.93316" lon="-2.0665">
        <ele>1.8</ele>
        <time>2020-06-04T13:58:39Z</time>
      </trkpt>
      <trkpt lat="46.93316" lon="-2.06642">
        <ele>1.8</ele>
        <time>2020-06-04T13:58:40Z</time>
      </trkpt>
      <trkpt lat="46.93317" lon="-2.06631">
        <ele>1.8</ele>
        <time>2020-06-04T13:58:41Z</time>
      </trkpt>
      <trkpt lat="46.93317" lon="-2.06622">
        <ele>1.8</ele>
        <time>2020-06-04T13:58:42Z</time>
      </trkpt>
      <trkpt lat="46.93318" lon="-2.06611">
        <ele>1.8</ele>
        <time>2020-06-04T13:58:43Z</time>
      </trkpt>
      <trkpt lat="46.93318" lon="-2.06601">
        <ele>1.8</ele>
        <time>2020-06-04T13:58:44Z</time>
      </trkpt>
      <trkpt lat="46.93318" lon="-2.06592">
        <ele>1.9</ele>
        <time>2020-06-04T13:58:45Z</time>
      </trkpt>
      <trkpt lat="46.93318" lon="-2.06582">
        <ele>2</ele>
        <time>2020-06-04T13:58:46Z</time>
      </trkpt>
      <trkpt lat="46.93318" lon="-2.06573">
        <ele>2</ele>
        <time>2020-06-04T13:58:47Z</time>
      </trkpt>
      <trkpt lat="46.93318" lon="-2.06565">
        <ele>2.1</ele>
        <time>2020-06-04T13:58:48Z</time>
      </trkpt>
      <trkpt lat="46.93319" lon="-2.06557">
        <ele>2.1</ele>
        <time>2020-06-04T13:58:49Z</time>
      </trkpt>
      <trkpt lat="46.9332" lon="-2.06548">
        <ele>2.2</ele>
        <time>2020-06-04T13:58:50Z</time>
      </trkpt>
      <trkpt lat="46.9332" lon="-2.06539">
        <ele>2.2</ele>
        <time>2020-06-04T13:58:51Z</time>
      </trkpt>
      <trkpt lat="46.9332" lon="-2.06531">
        <ele>2.3</ele>
        <time>2020-06-04T13:58:52Z</time>
      </trkpt>
      <trkpt lat="46.9332" lon="-2.06521">
        <ele>2.4</ele>
        <time>2020-06-04T13:58:53Z</time>
      </trkpt>
      <trkpt lat="46.93319" lon="-2.06511">
        <ele>2.4</ele>
        <time>2020-06-04T13:58:54Z</time>
      </trkpt>
      <trkpt lat="46.93319" lon="-2.06502">
        <ele>2.5</ele>
        <time>2020-06-04T13:58:55Z</time>
      </trkpt>
      <trkpt lat="46.93319" lon="-2.06493">
        <ele>2.5</ele>
        <time>2020-06-04T13:58:56Z</time>
      </trkpt>
      <trkpt lat="46.93319" lon="-2.06485">
        <ele>2.6</ele>
        <time>2020-06-04T13:58:57Z</time>
      </trkpt>
      <trkpt lat="46.9332" lon="-2.06476">
        <ele>2.6</ele>
        <time>2020-06-04T13:58:58Z</time>
      </trkpt>
      <trkpt lat="46.9332" lon="-2.06468">
        <ele>2.7</ele>
        <time>2020-06-04T13:58:59Z</time>
      </trkpt>
      <trkpt lat="46.9332" lon="-2.06458">
        <ele>2.7</ele>
        <time>2020-06-04T13:59:00Z</time>
      </trkpt>
      <trkpt lat="46.93319" lon="-2.06453">
        <ele>2.7</ele>
        <time>2020-06-04T13:59:01Z</time>
      </trkpt>
      <trkpt lat="46.93319" lon="-2.06443">
        <ele>2.7</ele>
        <time>2020-06-04T13:59:02Z</time>
      </trkpt>
      <trkpt lat="46.93319" lon="-2.06434">
        <ele>2.7</ele>
        <time>2020-06-04T13:59:03Z</time>
      </trkpt>
      <trkpt lat="46.9332" lon="-2.06426">
        <ele>2.8</ele>
        <time>2020-06-04T13:59:04Z</time>
      </trkpt>
      <trkpt lat="46.9332" lon="-2.06418">
        <ele>2.8</ele>
        <time>2020-06-04T13:59:05Z</time>
      </trkpt>
      <trkpt lat="46.93321" lon="-2.0641">
        <ele>2.8</ele>
        <time>2020-06-04T13:59:06Z</time>
      </trkpt>
      <trkpt lat="46.93322" lon="-2.06402">
        <ele>2.8</ele>
        <time>2020-06-04T13:59:07Z</time>
      </trkpt>
      <trkpt lat="46.93322" lon="-2.06394">
        <ele>2.8</ele>
        <time>2020-06-04T13:59:08Z</time>
      </trkpt>
      <trkpt lat="46.93322" lon="-2.06387">
        <ele>2.7</ele>
        <time>2020-06-04T13:59:09Z</time>
      </trkpt>
      <trkpt lat="46.93321" lon="-2.0638">
        <ele>2.7</ele>
        <time>2020-06-04T13:59:10Z</time>
      </trkpt>
      <trkpt lat="46.93321" lon="-2.06373">
        <ele>2.6</ele>
        <time>2020-06-04T13:59:11Z</time>
      </trkpt>
      <trkpt lat="46.93321" lon="-2.06367">
        <ele>2.6</ele>
        <time>2020-06-04T13:59:12Z</time>
      </trkpt>
      <trkpt lat="46.93321" lon="-2.06361">
        <ele>2.6</ele>
        <time>2020-06-04T13:59:13Z</time>
      </trkpt>
      <trkpt lat="46.93322" lon="-2.06353">
        <ele>2.5</ele>
        <time>2020-06-04T13:59:14Z</time>
      </trkpt>
      <trkpt lat="46.93321" lon="-2.06346">
        <ele>2.5</ele>
        <time>2020-06-04T13:59:15Z</time>
      </trkpt>
      <trkpt lat="46.93321" lon="-2.06337">
        <ele>2.4</ele>
        <time>2020-06-04T13:59:16Z</time>
      </trkpt>
      <trkpt lat="46.93321" lon="-2.0633">
        <ele>2.3</ele>
        <time>2020-06-04T13:59:17Z</time>
      </trkpt>
      <trkpt lat="46.9332" lon="-2.06322">
        <ele>2.3</ele>
        <time>2020-06-04T13:59:18Z</time>
      </trkpt>
      <trkpt lat="46.9332" lon="-2.06314">
        <ele>2.2</ele>
        <time>2020-06-04T13:59:19Z</time>
      </trkpt>
      <trkpt lat="46.93321" lon="-2.06307">
        <ele>2.1</ele>
        <time>2020-06-04T13:59:20Z</time>
      </trkpt>
      <trkpt lat="46.93321" lon="-2.063">
        <ele>2.1</ele>
        <time>2020-06-04T13:59:21Z</time>
      </trkpt>
      <trkpt lat="46.93321" lon="-2.06292">
        <ele>2</ele>
        <time>2020-06-04T13:59:22Z</time>
      </trkpt>
      <trkpt lat="46.93322" lon="-2.06285">
        <ele>2</ele>
        <time>2020-06-04T13:59:23Z</time>
      </trkpt>
      <trkpt lat="46.93322" lon="-2.06278">
        <ele>1.9</ele>
        <time>2020-06-04T13:59:24Z</time>
      </trkpt>
      <trkpt lat="46.93323" lon="-2.06268">
        <ele>1.8</ele>
        <time>2020-06-04T13:59:25Z</time>
      </trkpt>
      <trkpt lat="46.93323" lon="-2.06259">
        <ele>1.8</ele>
        <time>2020-06-04T13:59:26Z</time>
      </trkpt>
      <trkpt lat="46.93324" lon="-2.0625">
        <ele>1.7</ele>
        <time>2020-06-04T13:59:27Z</time>
      </trkpt>
      <trkpt lat="46.93325" lon="-2.06239">
        <ele>1.6</ele>
        <time>2020-06-04T13:59:28Z</time>
      </trkpt>
      <trkpt lat="46.93326" lon="-2.06227">
        <ele>1.6</ele>
        <time>2020-06-04T13:59:29Z</time>
      </trkpt>
      <trkpt lat="46.93328" lon="-2.06214">
        <ele>1.6</ele>
        <time>2020-06-04T13:59:30Z</time>
      </trkpt>
      <trkpt lat="46.93329" lon="-2.06199">
        <ele>1.6</ele>
        <time>2020-06-04T13:59:31Z</time>
      </trkpt>
      <trkpt lat="46.93331" lon="-2.06186">
        <ele>1.5</ele>
        <time>2020-06-04T13:59:32Z</time>
      </trkpt>
      <trkpt lat="46.93333" lon="-2.06173">
        <ele>1.5</ele>
        <time>2020-06-04T13:59:33Z</time>
      </trkpt>
      <trkpt lat="46.93334" lon="-2.0616">
        <ele>1.5</ele>
        <time>2020-06-04T13:59:34Z</time>
      </trkpt>
      <trkpt lat="46.93336" lon="-2.06146">
        <ele>1.5</ele>
        <time>2020-06-04T13:59:35Z</time>
      </trkpt>
      <trkpt lat="46.93337" lon="-2.06133">
        <ele>1.5</ele>
        <time>2020-06-04T13:59:36Z</time>
      </trkpt>
      <trkpt lat="46.93339" lon="-2.06119">
        <ele>1.5</ele>
        <time>2020-06-04T13:59:37Z</time>
      </trkpt>
      <trkpt lat="46.9334" lon="-2.06106">
        <ele>1.5</ele>
        <time>2020-06-04T13:59:38Z</time>
      </trkpt>
      <trkpt lat="46.9334" lon="-2.06093">
        <ele>1.5</ele>
        <time>2020-06-04T13:59:39Z</time>
      </trkpt>
      <trkpt lat="46.93342" lon="-2.06081">
        <ele>1.6</ele>
        <time>2020-06-04T13:59:40Z</time>
      </trkpt>
      <trkpt lat="46.93342" lon="-2.06069">
        <ele>1.6</ele>
        <time>2020-06-04T13:59:41Z</time>
      </trkpt>
      <trkpt lat="46.93343" lon="-2.06058">
        <ele>1.6</ele>
        <time>2020-06-04T13:59:42Z</time>
      </trkpt>
      <trkpt lat="46.93345" lon="-2.06047">
        <ele>1.6</ele>
        <time>2020-06-04T13:59:43Z</time>
      </trkpt>
      <trkpt lat="46.93346" lon="-2.06037">
        <ele>1.6</ele>
        <time>2020-06-04T13:59:44Z</time>
      </trkpt>
      <trkpt lat="46.93347" lon="-2.06027">
        <ele>1.6</ele>
        <time>2020-06-04T13:59:45Z</time>
      </trkpt>
      <trkpt lat="46.93348" lon="-2.06016">
        <ele>1.7</ele>
        <time>2020-06-04T13:59:46Z</time>
      </trkpt>
      <trkpt lat="46.93349" lon="-2.06006">
        <ele>1.7</ele>
        <time>2020-06-04T13:59:47Z</time>
      </trkpt>
      <trkpt lat="46.9335" lon="-2.05996">
        <ele>1.8</ele>
        <time>2020-06-04T13:59:48Z</time>
      </trkpt>
      <trkpt lat="46.93351" lon="-2.05986">
        <ele>1.8</ele>
        <time>2020-06-04T13:59:49Z</time>
      </trkpt>
      <trkpt lat="46.93353" lon="-2.05976">
        <ele>1.8</ele>
        <time>2020-06-04T13:59:50Z</time>
      </trkpt>
      <trkpt lat="46.93354" lon="-2.05966">
        <ele>1.9</ele>
        <time>2020-06-04T13:59:51Z</time>
      </trkpt>
      <trkpt lat="46.93356" lon="-2.05956">
        <ele>1.9</ele>
        <time>2020-06-04T13:59:52Z</time>
      </trkpt>
      <trkpt lat="46.93358" lon="-2.05947">
        <ele>1.9</ele>
        <time>2020-06-04T13:59:53Z</time>
      </trkpt>
      <trkpt lat="46.9336" lon="-2.05939">
        <ele>2</ele>
        <time>2020-06-04T13:59:54Z</time>
      </trkpt>
      <trkpt lat="46.93362" lon="-2.0593">
        <ele>2</ele>
        <time>2020-06-04T13:59:55Z</time>
      </trkpt>
      <trkpt lat="46.93364" lon="-2.05922">
        <ele>2</ele>
        <time>2020-06-04T13:59:56Z</time>
      </trkpt>
      <trkpt lat="46.93367" lon="-2.05915">
        <ele>2</ele>
        <time>2020-06-04T13:59:57Z</time>
      </trkpt>
      <trkpt lat="46.9337" lon="-2.05907">
        <ele>2</ele>
        <time>2020-06-04T13:59:58Z</time>
      </trkpt>
      <trkpt lat="46.93372" lon="-2.05901">
        <ele>2</ele>
        <time>2020-06-04T13:59:59Z</time>
      </trkpt>
      <trkpt lat="46.93376" lon="-2.05895">
        <ele>2</ele>
        <time>2020-06-04T14:00:00Z</time>
      </trkpt>
      <trkpt lat="46.9338" lon="-2.05891">
        <ele>2</ele>
        <time>2020-06-04T14:00:01Z</time>
      </trkpt>
      <trkpt lat="46.93384" lon="-2.05885">
        <ele>2</ele>
        <time>2020-06-04T14:00:02Z</time>
      </trkpt>
      <trkpt lat="46.93387" lon="-2.05879">
        <ele>2.1</ele>
        <time>2020-06-04T14:00:03Z</time>
      </trkpt>
      <trkpt lat="46.93389" lon="-2.05874">
        <ele>2.1</ele>
        <time>2020-06-04T14:00:04Z</time>
      </trkpt>
      <trkpt lat="46.93392" lon="-2.05869">
        <ele>2.1</ele>
        <time>2020-06-04T14:00:05Z</time>
      </trkpt>
      <trkpt lat="46.93395" lon="-2.05864">
        <ele>2.1</ele>
        <time>2020-06-04T14:00:06Z</time>
      </trkpt>
      <trkpt lat="46.93399" lon="-2.0586">
        <ele>2.1</ele>
        <time>2020-06-04T14:00:07Z</time>
      </trkpt>
      <trkpt lat="46.93401" lon="-2.05855">
        <ele>2.1</ele>
        <time>2020-06-04T14:00:08Z</time>
      </trkpt>
      <trkpt lat="46.93404" lon="-2.0585">
        <ele>2.2</ele>
        <time>2020-06-04T14:00:09Z</time>
      </trkpt>
      <trkpt lat="46.93406" lon="-2.05846">
        <ele>2.2</ele>
        <time>2020-06-04T14:00:10Z</time>
      </trkpt>
      <trkpt lat="46.93409" lon="-2.05842">
        <ele>2.2</ele>
        <time>2020-06-04T14:00:11Z</time>
      </trkpt>
      <trkpt lat="46.93412" lon="-2.05838">
        <ele>2.3</ele>
        <time>2020-06-04T14:00:12Z</time>
      </trkpt>
      <trkpt lat="46.93414" lon="-2.05834">
        <ele>2.3</ele>
        <time>2020-06-04T14:00:13Z</time>
      </trkpt>
      <trkpt lat="46.93416" lon="-2.05831">
        <ele>2.4</ele>
        <time>2020-06-04T14:00:14Z</time>
      </trkpt>
      <trkpt lat="46.93418" lon="-2.05827">
        <ele>2.4</ele>
        <time>2020-06-04T14:00:15Z</time>
      </trkpt>
      <trkpt lat="46.93421" lon="-2.05823">
        <ele>2.4</ele>
        <time>2020-06-04T14:00:16Z</time>
      </trkpt>
      <trkpt lat="46.93424" lon="-2.0582">
        <ele>2.5</ele>
        <time>2020-06-04T14:00:17Z</time>
      </trkpt>
      <trkpt lat="46.93426" lon="-2.05816">
        <ele>2.5</ele>
        <time>2020-06-04T14:00:18Z</time>
      </trkpt>
      <trkpt lat="46.93428" lon="-2.05812">
        <ele>2.6</ele>
        <time>2020-06-04T14:00:19Z</time>
      </trkpt>
      <trkpt lat="46.93431" lon="-2.05807">
        <ele>2.6</ele>
        <time>2020-06-04T14:00:20Z</time>
      </trkpt>
      <trkpt lat="46.93433" lon="-2.05803">
        <ele>2.6</ele>
        <time>2020-06-04T14:00:21Z</time>
      </trkpt>
      <trkpt lat="46.93436" lon="-2.05798">
        <ele>2.7</ele>
        <time>2020-06-04T14:00:22Z</time>
      </trkpt>
      <trkpt lat="46.93438" lon="-2.05795">
        <ele>2.7</ele>
        <time>2020-06-04T14:00:23Z</time>
      </trkpt>
      <trkpt lat="46.9344" lon="-2.0579">
        <ele>2.7</ele>
        <time>2020-06-04T14:00:24Z</time>
      </trkpt>
      <trkpt lat="46.93442" lon="-2.05786">
        <ele>2.8</ele>
        <time>2020-06-04T14:00:25Z</time>
      </trkpt>
      <trkpt lat="46.93444" lon="-2.05782">
        <ele>2.8</ele>
        <time>2020-06-04T14:00:26Z</time>
      </trkpt>
      <trkpt lat="46.93443" lon="-2.05777">
        <ele>2.8</ele>
        <time>2020-06-04T14:00:27Z</time>
      </trkpt>
      <trkpt lat="46.93444" lon="-2.05772">
        <ele>2.9</ele>
        <time>2020-06-04T14:00:28Z</time>
      </trkpt>
      <trkpt lat="46.93444" lon="-2.05767">
        <ele>2.9</ele>
        <time>2020-06-04T14:00:29Z</time>
      </trkpt>
      <trkpt lat="46.93445" lon="-2.05763">
        <ele>2.9</ele>
        <time>2020-06-04T14:00:30Z</time>
      </trkpt>
      <trkpt lat="46.93446" lon="-2.05759">
        <ele>2.9</ele>
        <time>2020-06-04T14:00:31Z</time>
      </trkpt>
      <trkpt lat="46.93447" lon="-2.05754">
        <ele>3</ele>
        <time>2020-06-04T14:00:32Z</time>
      </trkpt>
      <trkpt lat="46.93448" lon="-2.0575">
        <ele>3</ele>
        <time>2020-06-04T14:00:33Z</time>
      </trkpt>
      <trkpt lat="46.93449" lon="-2.05746">
        <ele>3</ele>
        <time>2020-06-04T14:00:34Z</time>
      </trkpt>
      <trkpt lat="46.93451" lon="-2.05741">
        <ele>3.1</ele>
        <time>2020-06-04T14:00:35Z</time>
      </trkpt>
      <trkpt lat="46.93453" lon="-2.05736">
        <ele>3</ele>
        <time>2020-06-04T14:00:36Z</time>
      </trkpt>
      <trkpt lat="46.93455" lon="-2.0573">
        <ele>3</ele>
        <time>2020-06-04T14:00:37Z</time>
      </trkpt>
      <trkpt lat="46.93458" lon="-2.05725">
        <ele>3</ele>
        <time>2020-06-04T14:00:38Z</time>
      </trkpt>
      <trkpt lat="46.9346" lon="-2.05719">
        <ele>3</ele>
        <time>2020-06-04T14:00:39Z</time>
      </trkpt>
      <trkpt lat="46.93463" lon="-2.05714">
        <ele>3</ele>
        <time>2020-06-04T14:00:40Z</time>
      </trkpt>
      <trkpt lat="46.93466" lon="-2.05708">
        <ele>3</ele>
        <time>2020-06-04T14:00:41Z</time>
      </trkpt>
      <trkpt lat="46.93468" lon="-2.05702">
        <ele>2.9</ele>
        <time>2020-06-04T14:00:42Z</time>
      </trkpt>
      <trkpt lat="46.93471" lon="-2.05696">
        <ele>2.9</ele>
        <time>2020-06-04T14:00:43Z</time>
      </trkpt>
      <trkpt lat="46.93473" lon="-2.05689">
        <ele>2.9</ele>
        <time>2020-06-04T14:00:44Z</time>
      </trkpt>
      <trkpt lat="46.93475" lon="-2.05682">
        <ele>2.9</ele>
        <time>2020-06-04T14:00:45Z</time>
      </trkpt>
      <trkpt lat="46.93475" lon="-2.05675">
        <ele>2.9</ele>
        <time>2020-06-04T14:00:46Z</time>
      </trkpt>
      <trkpt lat="46.93476" lon="-2.05668">
        <ele>2.9</ele>
        <time>2020-06-04T14:00:47Z</time>
      </trkpt>
      <trkpt lat="46.93478" lon="-2.05662">
        <ele>2.8</ele>
        <time>2020-06-04T14:00:48Z</time>
      </trkpt>
      <trkpt lat="46.9348" lon="-2.05656">
        <ele>2.8</ele>
        <time>2020-06-04T14:00:49Z</time>
      </trkpt>
      <trkpt lat="46.93482" lon="-2.05651">
        <ele>2.8</ele>
        <time>2020-06-04T14:00:50Z</time>
      </trkpt>
      <trkpt lat="46.93484" lon="-2.05646">
        <ele>2.8</ele>
        <time>2020-06-04T14:00:51Z</time>
      </trkpt>
      <trkpt lat="46.93483" lon="-2.0564">
        <ele>2.8</ele>
        <time>2020-06-04T14:00:52Z</time>
      </trkpt>
      <trkpt lat="46.93483" lon="-2.05635">
        <ele>2.8</ele>
        <time>2020-06-04T14:00:53Z</time>
      </trkpt>
      <trkpt lat="46.93484" lon="-2.05631">
        <ele>2.8</ele>
        <time>2020-06-04T14:00:54Z</time>
      </trkpt>
      <trkpt lat="46.93485" lon="-2.0563">
        <ele>2.8</ele>
        <time>2020-06-04T14:00:55Z</time>
      </trkpt>
      <trkpt lat="46.93484" lon="-2.05628">
        <ele>2.8</ele>
        <time>2020-06-04T14:00:56Z</time>
      </trkpt>
      <trkpt lat="46.93484" lon="-2.05627">
        <ele>2.8</ele>
        <time>2020-06-04T14:00:57Z</time>
      </trkpt>
      <trkpt lat="46.93485" lon="-2.05626">
        <ele>2.8</ele>
        <time>2020-06-04T14:00:58Z</time>
      </trkpt>
      <trkpt lat="46.93486" lon="-2.05624">
        <ele>2.8</ele>
        <time>2020-06-04T14:00:59Z</time>
      </trkpt>
      <trkpt lat="46.93486" lon="-2.05622">
        <ele>2.8</ele>
        <time>2020-06-04T14:01:00Z</time>
      </trkpt>
      <trkpt lat="46.93488" lon="-2.0562">
        <ele>2.8</ele>
        <time>2020-06-04T14:01:01Z</time>
      </trkpt>
      <trkpt lat="46.93489" lon="-2.05619">
        <ele>2.8</ele>
        <time>2020-06-04T14:01:02Z</time>
      </trkpt>
      <trkpt lat="46.9349" lon="-2.05618">
        <ele>2.8</ele>
        <time>2020-06-04T14:01:03Z</time>
      </trkpt>
      <trkpt lat="46.93492" lon="-2.05616">
        <ele>2.8</ele>
        <time>2020-06-04T14:01:04Z</time>
      </trkpt>
      <trkpt lat="46.93493" lon="-2.05616">
        <ele>2.8</ele>
        <time>2020-06-04T14:01:05Z</time>
      </trkpt>
      <trkpt lat="46.93495" lon="-2.05616">
        <ele>2.8</ele>
        <time>2020-06-04T14:01:06Z</time>
      </trkpt>
      <trkpt lat="46.93496" lon="-2.05614">
        <ele>2.8</ele>
        <time>2020-06-04T14:01:07Z</time>
      </trkpt>
      <trkpt lat="46.93497" lon="-2.05613">
        <ele>2.8</ele>
        <time>2020-06-04T14:01:08Z</time>
      </trkpt>
      <trkpt lat="46.93498" lon="-2.05611">
        <ele>2.8</ele>
        <time>2020-06-04T14:01:09Z</time>
      </trkpt>
      <trkpt lat="46.93498" lon="-2.05609">
        <ele>2.8</ele>
        <time>2020-06-04T14:01:10Z</time>
      </trkpt>
      <trkpt lat="46.93499" lon="-2.05607">
        <ele>2.8</ele>
        <time>2020-06-04T14:01:11Z</time>
      </trkpt>
      <trkpt lat="46.93501" lon="-2.05606">
        <ele>2.8</ele>
        <time>2020-06-04T14:01:12Z</time>
      </trkpt>
      <trkpt lat="46.93502" lon="-2.05605">
        <ele>2.8</ele>
        <time>2020-06-04T14:01:13Z</time>
      </trkpt>
      <trkpt lat="46.93501" lon="-2.05604">
        <ele>2.8</ele>
        <time>2020-06-04T14:01:14Z</time>
      </trkpt>
      <trkpt lat="46.93501" lon="-2.05604">
        <ele>2.8</ele>
        <time>2020-06-04T14:01:15Z</time>
      </trkpt>
      <trkpt lat="46.93501" lon="-2.05604">
        <ele>2.8</ele>
        <time>2020-06-04T14:01:16Z</time>
      </trkpt>
      <trkpt lat="46.935" lon="-2.05604">
        <ele>2.8</ele>
        <time>2020-06-04T14:01:17Z</time>
      </trkpt>
      <trkpt lat="46.93501" lon="-2.05603">
        <ele>2.8</ele>
        <time>2020-06-04T14:01:18Z</time>
      </trkpt>
      <trkpt lat="46.93501" lon="-2.05603">
        <ele>2.8</ele>
        <time>2020-06-04T14:01:19Z</time>
      </trkpt>
      <trkpt lat="46.93501" lon="-2.05603">
        <ele>2.7</ele>
        <time>2020-06-04T14:01:20Z</time>
      </trkpt>
      <trkpt lat="46.93501" lon="-2.05603">
        <ele>2.7</ele>
        <time>2020-06-04T14:01:21Z</time>
      </trkpt>
      <trkpt lat="46.93501" lon="-2.05603">
        <ele>2.7</ele>
        <time>2020-06-04T14:01:22Z</time>
      </trkpt>
      <trkpt lat="46.935" lon="-2.05602">
        <ele>2.7</ele>
        <time>2020-06-04T14:01:23Z</time>
      </trkpt>
      <trkpt lat="46.935" lon="-2.05601">
        <ele>2.7</ele>
        <time>2020-06-04T14:01:24Z</time>
      </trkpt>
      <trkpt lat="46.93502" lon="-2.056">
        <ele>2.7</ele>
        <time>2020-06-04T14:01:25Z</time>
      </trkpt>
      <trkpt lat="46.93502" lon="-2.056">
        <ele>2.7</ele>
        <time>2020-06-04T14:01:26Z</time>
      </trkpt>
      <trkpt lat="46.93502" lon="-2.05599">
        <ele>2.7</ele>
        <time>2020-06-04T14:01:27Z</time>
      </trkpt>
      <trkpt lat="46.93501" lon="-2.05598">
        <ele>2.7</ele>
        <time>2020-06-04T14:01:28Z</time>
      </trkpt>
      <trkpt lat="46.93502" lon="-2.05598">
        <ele>2.7</ele>
        <time>2020-06-04T14:01:29Z</time>
      </trkpt>
      <trkpt lat="46.93502" lon="-2.05597">
        <ele>2.7</ele>
        <time>2020-06-04T14:01:30Z</time>
      </trkpt>
      <trkpt lat="46.93503" lon="-2.05597">
        <ele>2.7</ele>
        <time>2020-06-04T14:01:31Z</time>
      </trkpt>
      <trkpt lat="46.93502" lon="-2.05597">
        <ele>2.7</ele>
        <time>2020-06-04T14:01:32Z</time>
      </trkpt>
      <trkpt lat="46.93502" lon="-2.05597">
        <ele>2.7</ele>
        <time>2020-06-04T14:01:33Z</time>
      </trkpt>
      <trkpt lat="46.93503" lon="-2.05597">
        <ele>2.7</ele>
        <time>2020-06-04T14:01:34Z</time>
      </trkpt>
      <trkpt lat="46.93503" lon="-2.05597">
        <ele>2.7</ele>
        <time>2020-06-04T14:01:35Z</time>
      </trkpt>
      <trkpt lat="46.93503" lon="-2.05596">
        <ele>2.7</ele>
        <time>2020-06-04T14:01:36Z</time>
      </trkpt>
      <trkpt lat="46.93504" lon="-2.05596">
        <ele>2.7</ele>
        <time>2020-06-04T14:01:37Z</time>
      </trkpt>
      <trkpt lat="46.93503" lon="-2.05596">
        <ele>2.7</ele>
        <time>2020-06-04T14:01:38Z</time>
      </trkpt>
      <trkpt lat="46.93503" lon="-2.05595">
        <ele>2.7</ele>
        <time>2020-06-04T14:01:39Z</time>
      </trkpt>
      <trkpt lat="46.93504" lon="-2.05594">
        <ele>2.7</ele>
        <time>2020-06-04T14:01:40Z</time>
      </trkpt>
      <trkpt lat="46.93504" lon="-2.05593">
        <ele>2.7</ele>
        <time>2020-06-04T14:01:41Z</time>
      </trkpt>
      <trkpt lat="46.93505" lon="-2.05593">
        <ele>2.7</ele>
        <time>2020-06-04T14:01:42Z</time>
      </trkpt>
      <trkpt lat="46.93506" lon="-2.05594">
        <ele>2.7</ele>
        <time>2020-06-04T14:01:43Z</time>
      </trkpt>
      <trkpt lat="46.93506" lon="-2.05595">
        <ele>2.8</ele>
        <time>2020-06-04T14:01:44Z</time>
      </trkpt>
      <trkpt lat="46.93508" lon="-2.05595">
        <ele>2.8</ele>
        <time>2020-06-04T14:01:45Z</time>
      </trkpt>
      <trkpt lat="46.93507" lon="-2.05596">
        <ele>2.8</ele>
        <time>2020-06-04T14:01:46Z</time>
      </trkpt>
      <trkpt lat="46.93506" lon="-2.05596">
        <ele>2.8</ele>
        <time>2020-06-04T14:01:48Z</time>
      </trkpt>
      <trkpt lat="46.93505" lon="-2.05596">
        <ele>2.8</ele>
        <time>2020-06-04T14:01:49Z</time>
      </trkpt>
      <trkpt lat="46.93505" lon="-2.05597">
        <ele>2.8</ele>
        <time>2020-06-04T14:01:50Z</time>
      </trkpt>
      <trkpt lat="46.93504" lon="-2.05597">
        <ele>2.8</ele>
        <time>2020-06-04T14:01:51Z</time>
      </trkpt>
      <trkpt lat="46.93504" lon="-2.05598">
        <ele>2.8</ele>
        <time>2020-06-04T14:01:52Z</time>
      </trkpt>
      <trkpt lat="46.93504" lon="-2.05598">
        <ele>2.8</ele>
        <time>2020-06-04T14:01:53Z</time>
      </trkpt>
      <trkpt lat="46.93504" lon="-2.05599">
        <ele>2.8</ele>
        <time>2020-06-04T14:01:54Z</time>
      </trkpt>
      <trkpt lat="46.93503" lon="-2.05601">
        <ele>2.8</ele>
        <time>2020-06-04T14:01:55Z</time>
      </trkpt>
      <trkpt lat="46.93503" lon="-2.05602">
        <ele>2.8</ele>
        <time>2020-06-04T14:01:56Z</time>
      </trkpt>
      <trkpt lat="46.93502" lon="-2.05603">
        <ele>2.8</ele>
        <time>2020-06-04T14:01:57Z</time>
      </trkpt>
      <trkpt lat="46.93502" lon="-2.05604">
        <ele>2.8</ele>
        <time>2020-06-04T14:01:58Z</time>
      </trkpt>
      <trkpt lat="46.93501" lon="-2.05606">
        <ele>2.8</ele>
        <time>2020-06-04T14:01:59Z</time>
      </trkpt>
      <trkpt lat="46.93501" lon="-2.05607">
        <ele>2.8</ele>
        <time>2020-06-04T14:02:00Z</time>
      </trkpt>
      <trkpt lat="46.935" lon="-2.05608">
        <ele>2.8</ele>
        <time>2020-06-04T14:02:01Z</time>
      </trkpt>
      <trkpt lat="46.935" lon="-2.05609">
        <ele>2.8</ele>
        <time>2020-06-04T14:02:02Z</time>
      </trkpt>
      <trkpt lat="46.93499" lon="-2.0561">
        <ele>2.8</ele>
        <time>2020-06-04T14:02:03Z</time>
      </trkpt>
      <trkpt lat="46.93499" lon="-2.05612">
        <ele>2.8</ele>
        <time>2020-06-04T14:02:04Z</time>
      </trkpt>
      <trkpt lat="46.93498" lon="-2.05613">
        <ele>2.8</ele>
        <time>2020-06-04T14:02:05Z</time>
      </trkpt>
      <trkpt lat="46.93498" lon="-2.05614">
        <ele>2.8</ele>
        <time>2020-06-04T14:02:06Z</time>
      </trkpt>
      <trkpt lat="46.93498" lon="-2.05615">
        <ele>2.8</ele>
        <time>2020-06-04T14:02:07Z</time>
      </trkpt>
      <trkpt lat="46.93497" lon="-2.05616">
        <ele>2.8</ele>
        <time>2020-06-04T14:02:08Z</time>
      </trkpt>
      <trkpt lat="46.93497" lon="-2.05618">
        <ele>2.8</ele>
        <time>2020-06-04T14:02:33Z</time>
      </trkpt>
      <trkpt lat="46.93496" lon="-2.05619">
        <ele>2.8</ele>
        <time>2020-06-04T14:02:34Z</time>
      </trkpt>
      <trkpt lat="46.93496" lon="-2.0562">
        <ele>2.8</ele>
        <time>2020-06-04T14:02:35Z</time>
      </trkpt>
      <trkpt lat="46.93496" lon="-2.05626">
        <ele>2.8</ele>
        <time>2020-06-04T14:02:36Z</time>
      </trkpt>
      <trkpt lat="46.93499" lon="-2.05629">
        <ele>2.7</ele>
        <time>2020-06-04T14:02:37Z</time>
      </trkpt>
      <trkpt lat="46.93502" lon="-2.05632">
        <ele>2.7</ele>
        <time>2020-06-04T14:02:38Z</time>
      </trkpt>
      <trkpt lat="46.93505" lon="-2.05635">
        <ele>2.7</ele>
        <time>2020-06-04T14:02:39Z</time>
      </trkpt>
      <trkpt lat="46.93509" lon="-2.05638">
        <ele>2.7</ele>
        <time>2020-06-04T14:02:40Z</time>
      </trkpt>
      <trkpt lat="46.93512" lon="-2.05642">
        <ele>2.7</ele>
        <time>2020-06-04T14:02:41Z</time>
      </trkpt>
      <trkpt lat="46.93515" lon="-2.05646">
        <ele>2.7</ele>
        <time>2020-06-04T14:02:42Z</time>
      </trkpt>
      <trkpt lat="46.93518" lon="-2.0565">
        <ele>2.6</ele>
        <time>2020-06-04T14:02:43Z</time>
      </trkpt>
      <trkpt lat="46.9352" lon="-2.05656">
        <ele>2.6</ele>
        <time>2020-06-04T14:02:44Z</time>
      </trkpt>
      <trkpt lat="46.9352" lon="-2.05663">
        <ele>2.5</ele>
        <time>2020-06-04T14:02:45Z</time>
      </trkpt>
      <trkpt lat="46.93521" lon="-2.0567">
        <ele>2.5</ele>
        <time>2020-06-04T14:02:46Z</time>
      </trkpt>
      <trkpt lat="46.93522" lon="-2.05677">
        <ele>2.5</ele>
        <time>2020-06-04T14:02:47Z</time>
      </trkpt>
      <trkpt lat="46.93521" lon="-2.05685">
        <ele>2.4</ele>
        <time>2020-06-04T14:02:48Z</time>
      </trkpt>
      <trkpt lat="46.93522" lon="-2.05692">
        <ele>2.3</ele>
        <time>2020-06-04T14:02:49Z</time>
      </trkpt>
      <trkpt lat="46.93525" lon="-2.05697">
        <ele>2.3</ele>
        <time>2020-06-04T14:02:50Z</time>
      </trkpt>
      <trkpt lat="46.9353" lon="-2.05699">
        <ele>2.3</ele>
        <time>2020-06-04T14:02:51Z</time>
      </trkpt>
      <trkpt lat="46.93534" lon="-2.057">
        <ele>2.3</ele>
        <time>2020-06-04T14:02:52Z</time>
      </trkpt>
      <trkpt lat="46.93539" lon="-2.05702">
        <ele>2.2</ele>
        <time>2020-06-04T14:02:53Z</time>
      </trkpt>
      <trkpt lat="46.93543" lon="-2.05704">
        <ele>2.2</ele>
        <time>2020-06-04T14:02:54Z</time>
      </trkpt>
      <trkpt lat="46.93547" lon="-2.05707">
        <ele>2.1</ele>
        <time>2020-06-04T14:02:55Z</time>
      </trkpt>
      <trkpt lat="46.93551" lon="-2.05709">
        <ele>2.1</ele>
        <time>2020-06-04T14:02:56Z</time>
      </trkpt>
      <trkpt lat="46.93556" lon="-2.05711">
        <ele>2.1</ele>
        <time>2020-06-04T14:02:57Z</time>
      </trkpt>
      <trkpt lat="46.9356" lon="-2.05714">
        <ele>2</ele>
        <time>2020-06-04T14:02:58Z</time>
      </trkpt>
      <trkpt lat="46.93564" lon="-2.05716">
        <ele>2</ele>
        <time>2020-06-04T14:02:59Z</time>
      </trkpt>
      <trkpt lat="46.93569" lon="-2.05719">
        <ele>2</ele>
        <time>2020-06-04T14:03:00Z</time>
      </trkpt>
      <trkpt lat="46.93573" lon="-2.0572">
        <ele>2</ele>
        <time>2020-06-04T14:03:01Z</time>
      </trkpt>
      <trkpt lat="46.93577" lon="-2.05723">
        <ele>2</ele>
        <time>2020-06-04T14:03:02Z</time>
      </trkpt>
      <trkpt lat="46.93581" lon="-2.05726">
        <ele>1.9</ele>
        <time>2020-06-04T14:03:03Z</time>
      </trkpt>
      <trkpt lat="46.93586" lon="-2.05727">
        <ele>1.9</ele>
        <time>2020-06-04T14:03:04Z</time>
      </trkpt>
      <trkpt lat="46.93591" lon="-2.0573">
        <ele>1.9</ele>
        <time>2020-06-04T14:03:05Z</time>
      </trkpt>
      <trkpt lat="46.93596" lon="-2.05731">
        <ele>1.8</ele>
        <time>2020-06-04T14:03:06Z</time>
      </trkpt>
      <trkpt lat="46.93602" lon="-2.05733">
        <ele>1.8</ele>
        <time>2020-06-04T14:03:07Z</time>
      </trkpt>
      <trkpt lat="46.93607" lon="-2.05736">
        <ele>1.8</ele>
        <time>2020-06-04T14:03:08Z</time>
      </trkpt>
      <trkpt lat="46.93612" lon="-2.05739">
        <ele>1.7</ele>
        <time>2020-06-04T14:03:09Z</time>
      </trkpt>
      <trkpt lat="46.93618" lon="-2.05743">
        <ele>1.7</ele>
        <time>2020-06-04T14:03:10Z</time>
      </trkpt>
      <trkpt lat="46.93622" lon="-2.05746">
        <ele>1.6</ele>
        <time>2020-06-04T14:03:11Z</time>
      </trkpt>
      <trkpt lat="46.93627" lon="-2.0575">
        <ele>1.6</ele>
        <time>2020-06-04T14:03:12Z</time>
      </trkpt>
      <trkpt lat="46.93632" lon="-2.05752">
        <ele>1.6</ele>
        <time>2020-06-04T14:03:13Z</time>
      </trkpt>
      <trkpt lat="46.93637" lon="-2.05755">
        <ele>1.6</ele>
        <time>2020-06-04T14:03:14Z</time>
      </trkpt>
      <trkpt lat="46.93642" lon="-2.05759">
        <ele>1.6</ele>
        <time>2020-06-04T14:03:15Z</time>
      </trkpt>
      <trkpt lat="46.93647" lon="-2.05761">
        <ele>1.6</ele>
        <time>2020-06-04T14:03:16Z</time>
      </trkpt>
      <trkpt lat="46.93651" lon="-2.05764">
        <ele>1.7</ele>
        <time>2020-06-04T14:03:17Z</time>
      </trkpt>
      <trkpt lat="46.93656" lon="-2.05767">
        <ele>1.7</ele>
        <time>2020-06-04T14:03:18Z</time>
      </trkpt>
      <trkpt lat="46.9366" lon="-2.0577">
        <ele>1.7</ele>
        <time>2020-06-04T14:03:19Z</time>
      </trkpt>
      <trkpt lat="46.93664" lon="-2.05774">
        <ele>1.7</ele>
        <time>2020-06-04T14:03:20Z</time>
      </trkpt>
      <trkpt lat="46.93667" lon="-2.05779">
        <ele>1.7</ele>
        <time>2020-06-04T14:03:21Z</time>
      </trkpt>
      <trkpt lat="46.93668" lon="-2.05785">
        <ele>1.7</ele>
        <time>2020-06-04T14:03:22Z</time>
      </trkpt>
      <trkpt lat="46.93669" lon="-2.05792">
        <ele>1.7</ele>
        <time>2020-06-04T14:03:23Z</time>
      </trkpt>
      <trkpt lat="46.93668" lon="-2.058">
        <ele>1.7</ele>
        <time>2020-06-04T14:03:24Z</time>
      </trkpt>
      <trkpt lat="46.93667" lon="-2.05807">
        <ele>1.7</ele>
        <time>2020-06-04T14:03:25Z</time>
      </trkpt>
      <trkpt lat="46.93666" lon="-2.05814">
        <ele>1.7</ele>
        <time>2020-06-04T14:03:26Z</time>
      </trkpt>
      <trkpt lat="46.93665" lon="-2.05821">
        <ele>1.7</ele>
        <time>2020-06-04T14:03:27Z</time>
      </trkpt>
      <trkpt lat="46.93664" lon="-2.05828">
        <ele>1.7</ele>
        <time>2020-06-04T14:03:28Z</time>
      </trkpt>
      <trkpt lat="46.93662" lon="-2.05835">
        <ele>1.7</ele>
        <time>2020-06-04T14:03:29Z</time>
      </trkpt>
      <trkpt lat="46.93661" lon="-2.05841">
        <ele>1.7</ele>
        <time>2020-06-04T14:03:30Z</time>
      </trkpt>
      <trkpt lat="46.93662" lon="-2.05847">
        <ele>1.7</ele>
        <time>2020-06-04T14:03:31Z</time>
      </trkpt>
      <trkpt lat="46.93663" lon="-2.05852">
        <ele>1.7</ele>
        <time>2020-06-04T14:03:32Z</time>
      </trkpt>
      <trkpt lat="46.93667" lon="-2.05853">
        <ele>1.7</ele>
        <time>2020-06-04T14:03:33Z</time>
      </trkpt>
      <trkpt lat="46.93671" lon="-2.05853">
        <ele>1.8</ele>
        <time>2020-06-04T14:03:34Z</time>
      </trkpt>
      <trkpt lat="46.93675" lon="-2.05852">
        <ele>1.8</ele>
        <time>2020-06-04T14:03:35Z</time>
      </trkpt>
      <trkpt lat="46.9368" lon="-2.0585">
        <ele>1.9</ele>
        <time>2020-06-04T14:03:36Z</time>
      </trkpt>
      <trkpt lat="46.93685" lon="-2.05847">
        <ele>1.9</ele>
        <time>2020-06-04T14:03:37Z</time>
      </trkpt>
      <trkpt lat="46.9369" lon="-2.05846">
        <ele>1.9</ele>
        <time>2020-06-04T14:03:38Z</time>
      </trkpt>
      <trkpt lat="46.93695" lon="-2.05844">
        <ele>2</ele>
        <time>2020-06-04T14:03:39Z</time>
      </trkpt>
      <trkpt lat="46.937" lon="-2.05842">
        <ele>2</ele>
        <time>2020-06-04T14:03:40Z</time>
      </trkpt>
      <trkpt lat="46.93705" lon="-2.05841">
        <ele>2</ele>
        <time>2020-06-04T14:03:41Z</time>
      </trkpt>
      <trkpt lat="46.9371" lon="-2.0584">
        <ele>2.1</ele>
        <time>2020-06-04T14:03:42Z</time>
      </trkpt>
      <trkpt lat="46.93715" lon="-2.05838">
        <ele>2.1</ele>
        <time>2020-06-04T14:03:43Z</time>
      </trkpt>
      <trkpt lat="46.93721" lon="-2.05837">
        <ele>2.1</ele>
        <time>2020-06-04T14:03:44Z</time>
      </trkpt>
      <trkpt lat="46.93725" lon="-2.05837">
        <ele>2.2</ele>
        <time>2020-06-04T14:03:45Z</time>
      </trkpt>
      <trkpt lat="46.93731" lon="-2.05837">
        <ele>2.2</ele>
        <time>2020-06-04T14:03:46Z</time>
      </trkpt>
      <trkpt lat="46.93736" lon="-2.05837">
        <ele>2.3</ele>
        <time>2020-06-04T14:03:47Z</time>
      </trkpt>
      <trkpt lat="46.93741" lon="-2.05838">
        <ele>2.3</ele>
        <time>2020-06-04T14:03:48Z</time>
      </trkpt>
      <trkpt lat="46.93745" lon="-2.05839">
        <ele>2.3</ele>
        <time>2020-06-04T14:03:49Z</time>
      </trkpt>
      <trkpt lat="46.9375" lon="-2.0584">
        <ele>2.4</ele>
        <time>2020-06-04T14:03:50Z</time>
      </trkpt>
      <trkpt lat="46.93755" lon="-2.05842">
        <ele>2.4</ele>
        <time>2020-06-04T14:03:51Z</time>
      </trkpt>
      <trkpt lat="46.9376" lon="-2.05844">
        <ele>2.4</ele>
        <time>2020-06-04T14:03:52Z</time>
      </trkpt>
      <trkpt lat="46.93764" lon="-2.05847">
        <ele>2.5</ele>
        <time>2020-06-04T14:03:53Z</time>
      </trkpt>
      <trkpt lat="46.93768" lon="-2.0585">
        <ele>2.5</ele>
        <time>2020-06-04T14:03:54Z</time>
      </trkpt>
      <trkpt lat="46.93772" lon="-2.05852">
        <ele>2.5</ele>
        <time>2020-06-04T14:03:55Z</time>
      </trkpt>
      <trkpt lat="46.93776" lon="-2.05855">
        <ele>2.5</ele>
        <time>2020-06-04T14:03:56Z</time>
      </trkpt>
      <trkpt lat="46.9378" lon="-2.05857">
        <ele>2.6</ele>
        <time>2020-06-04T14:03:57Z</time>
      </trkpt>
      <trkpt lat="46.93782" lon="-2.05862">
        <ele>2.6</ele>
        <time>2020-06-04T14:03:58Z</time>
      </trkpt>
      <trkpt lat="46.93784" lon="-2.05868">
        <ele>2.6</ele>
        <time>2020-06-04T14:03:59Z</time>
      </trkpt>
      <trkpt lat="46.93785" lon="-2.05874">
        <ele>2.6</ele>
        <time>2020-06-04T14:04:00Z</time>
      </trkpt>
      <trkpt lat="46.93785" lon="-2.0588">
        <ele>2.6</ele>
        <time>2020-06-04T14:04:01Z</time>
      </trkpt>
      <trkpt lat="46.93784" lon="-2.05886">
        <ele>2.6</ele>
        <time>2020-06-04T14:04:02Z</time>
      </trkpt>
      <trkpt lat="46.93782" lon="-2.05891">
        <ele>2.6</ele>
        <time>2020-06-04T14:04:03Z</time>
      </trkpt>
      <trkpt lat="46.93781" lon="-2.05897">
        <ele>2.5</ele>
        <time>2020-06-04T14:04:04Z</time>
      </trkpt>
      <trkpt lat="46.93779" lon="-2.05903">
        <ele>2.5</ele>
        <time>2020-06-04T14:04:05Z</time>
      </trkpt>
      <trkpt lat="46.93777" lon="-2.05909">
        <ele>2.5</ele>
        <time>2020-06-04T14:04:06Z</time>
      </trkpt>
      <trkpt lat="46.93775" lon="-2.05915">
        <ele>2.5</ele>
        <time>2020-06-04T14:04:07Z</time>
      </trkpt>
      <trkpt lat="46.93773" lon="-2.05921">
        <ele>2.5</ele>
        <time>2020-06-04T14:04:08Z</time>
      </trkpt>
      <trkpt lat="46.93771" lon="-2.05927">
        <ele>2.4</ele>
        <time>2020-06-04T14:04:09Z</time>
      </trkpt>
      <trkpt lat="46.93769" lon="-2.05933">
        <ele>2.4</ele>
        <time>2020-06-04T14:04:10Z</time>
      </trkpt>
      <trkpt lat="46.93766" lon="-2.0594">
        <ele>2.4</ele>
        <time>2020-06-04T14:04:11Z</time>
      </trkpt>
      <trkpt lat="46.93763" lon="-2.05946">
        <ele>2.3</ele>
        <time>2020-06-04T14:04:12Z</time>
      </trkpt>
      <trkpt lat="46.93761" lon="-2.05952">
        <ele>2.3</ele>
        <time>2020-06-04T14:04:13Z</time>
      </trkpt>
      <trkpt lat="46.93759" lon="-2.05959">
        <ele>2.2</ele>
        <time>2020-06-04T14:04:14Z</time>
      </trkpt>
      <trkpt lat="46.93757" lon="-2.05966">
        <ele>2.2</ele>
        <time>2020-06-04T14:04:15Z</time>
      </trkpt>
      <trkpt lat="46.93755" lon="-2.05973">
        <ele>2.1</ele>
        <time>2020-06-04T14:04:16Z</time>
      </trkpt>
      <trkpt lat="46.93755" lon="-2.0598">
        <ele>2.1</ele>
        <time>2020-06-04T14:04:17Z</time>
      </trkpt>
      <trkpt lat="46.93755" lon="-2.05988">
        <ele>2</ele>
        <time>2020-06-04T14:04:18Z</time>
      </trkpt>
      <trkpt lat="46.93757" lon="-2.05994">
        <ele>2</ele>
        <time>2020-06-04T14:04:19Z</time>
      </trkpt>
      <trkpt lat="46.93759" lon="-2.06">
        <ele>2</ele>
        <time>2020-06-04T14:04:20Z</time>
      </trkpt>
      <trkpt lat="46.93761" lon="-2.06006">
        <ele>1.9</ele>
        <time>2020-06-04T14:04:21Z</time>
      </trkpt>
      <trkpt lat="46.93764" lon="-2.06011">
        <ele>1.8</ele>
        <time>2020-06-04T14:04:22Z</time>
      </trkpt>
      <trkpt lat="46.93767" lon="-2.06016">
        <ele>1.8</ele>
        <time>2020-06-04T14:04:23Z</time>
      </trkpt>
      <trkpt lat="46.93771" lon="-2.06021">
        <ele>1.7</ele>
        <time>2020-06-04T14:04:24Z</time>
      </trkpt>
      <trkpt lat="46.93775" lon="-2.06025">
        <ele>1.7</ele>
        <time>2020-06-04T14:04:25Z</time>
      </trkpt>
      <trkpt lat="46.93779" lon="-2.06029">
        <ele>1.6</ele>
        <time>2020-06-04T14:04:26Z</time>
      </trkpt>
      <trkpt lat="46.93783" lon="-2.06033">
        <ele>1.6</ele>
        <time>2020-06-04T14:04:27Z</time>
      </trkpt>
      <trkpt lat="46.93787" lon="-2.06037">
        <ele>1.5</ele>
        <time>2020-06-04T14:04:28Z</time>
      </trkpt>
      <trkpt lat="46.93791" lon="-2.0604">
        <ele>1.5</ele>
        <time>2020-06-04T14:04:29Z</time>
      </trkpt>
      <trkpt lat="46.93795" lon="-2.06044">
        <ele>1.4</ele>
        <time>2020-06-04T14:04:30Z</time>
      </trkpt>
      <trkpt lat="46.93798" lon="-2.06048">
        <ele>1.3</ele>
        <time>2020-06-04T14:04:31Z</time>
      </trkpt>
      <trkpt lat="46.93801" lon="-2.06051">
        <ele>1.3</ele>
        <time>2020-06-04T14:04:32Z</time>
      </trkpt>
      <trkpt lat="46.93805" lon="-2.06054">
        <ele>1.2</ele>
        <time>2020-06-04T14:04:33Z</time>
      </trkpt>
      <trkpt lat="46.93808" lon="-2.06056">
        <ele>1.1</ele>
        <time>2020-06-04T14:04:34Z</time>
      </trkpt>
      <trkpt lat="46.93812" lon="-2.06057">
        <ele>1.1</ele>
        <time>2020-06-04T14:04:35Z</time>
      </trkpt>
      <trkpt lat="46.93814" lon="-2.06058">
        <ele>1</ele>
        <time>2020-06-04T14:04:36Z</time>
      </trkpt>
      <trkpt lat="46.93814" lon="-2.06055">
        <ele>1</ele>
        <time>2020-06-04T14:04:37Z</time>
      </trkpt>
      <trkpt lat="46.93816" lon="-2.06051">
        <ele>1</ele>
        <time>2020-06-04T14:04:38Z</time>
      </trkpt>
      <trkpt lat="46.93817" lon="-2.06049">
        <ele>1</ele>
        <time>2020-06-04T14:04:39Z</time>
      </trkpt>
      <trkpt lat="46.93819" lon="-2.06046">
        <ele>1</ele>
        <time>2020-06-04T14:04:40Z</time>
      </trkpt>
      <trkpt lat="46.93821" lon="-2.06042">
        <ele>1</ele>
        <time>2020-06-04T14:04:41Z</time>
      </trkpt>
      <trkpt lat="46.93823" lon="-2.06038">
        <ele>1</ele>
        <time>2020-06-04T14:04:42Z</time>
      </trkpt>
      <trkpt lat="46.93826" lon="-2.06034">
        <ele>1</ele>
        <time>2020-06-04T14:04:43Z</time>
      </trkpt>
      <trkpt lat="46.93828" lon="-2.06031">
        <ele>1</ele>
        <time>2020-06-04T14:04:44Z</time>
      </trkpt>
      <trkpt lat="46.9383" lon="-2.06026">
        <ele>1</ele>
        <time>2020-06-04T14:04:45Z</time>
      </trkpt>
      <trkpt lat="46.93833" lon="-2.06021">
        <ele>1</ele>
        <time>2020-06-04T14:04:46Z</time>
      </trkpt>
      <trkpt lat="46.93835" lon="-2.06016">
        <ele>1</ele>
        <time>2020-06-04T14:04:47Z</time>
      </trkpt>
      <trkpt lat="46.93837" lon="-2.0601">
        <ele>1</ele>
        <time>2020-06-04T14:04:48Z</time>
      </trkpt>
      <trkpt lat="46.9384" lon="-2.06005">
        <ele>1</ele>
        <time>2020-06-04T14:04:49Z</time>
      </trkpt>
      <trkpt lat="46.93842" lon="-2.05999">
        <ele>1</ele>
        <time>2020-06-04T14:04:50Z</time>
      </trkpt>
      <trkpt lat="46.93845" lon="-2.05993">
        <ele>1</ele>
        <time>2020-06-04T14:04:51Z</time>
      </trkpt>
      <trkpt lat="46.93848" lon="-2.05987">
        <ele>1</ele>
        <time>2020-06-04T14:04:52Z</time>
      </trkpt>
      <trkpt lat="46.93851" lon="-2.05982">
        <ele>1</ele>
        <time>2020-06-04T14:04:53Z</time>
      </trkpt>
      <trkpt lat="46.93854" lon="-2.05976">
        <ele>1</ele>
        <time>2020-06-04T14:04:54Z</time>
      </trkpt>
      <trkpt lat="46.93857" lon="-2.05971">
        <ele>1</ele>
        <time>2020-06-04T14:04:55Z</time>
      </trkpt>
      <trkpt lat="46.9386" lon="-2.05966">
        <ele>1</ele>
        <time>2020-06-04T14:04:56Z</time>
      </trkpt>
      <trkpt lat="46.93863" lon="-2.05961">
        <ele>1</ele>
        <time>2020-06-04T14:04:57Z</time>
      </trkpt>
      <trkpt lat="46.93865" lon="-2.05954">
        <ele>1</ele>
        <time>2020-06-04T14:04:58Z</time>
      </trkpt>
      <trkpt lat="46.93868" lon="-2.05949">
        <ele>1</ele>
        <time>2020-06-04T14:04:59Z</time>
      </trkpt>
      <trkpt lat="46.93871" lon="-2.05944">
        <ele>1</ele>
        <time>2020-06-04T14:05:00Z</time>
      </trkpt>
      <trkpt lat="46.93875" lon="-2.05938">
        <ele>1</ele>
        <time>2020-06-04T14:05:01Z</time>
      </trkpt>
      <trkpt lat="46.93878" lon="-2.05934">
        <ele>1</ele>
        <time>2020-06-04T14:05:02Z</time>
      </trkpt>
      <trkpt lat="46.93882" lon="-2.05929">
        <ele>1</ele>
        <time>2020-06-04T14:05:03Z</time>
      </trkpt>
      <trkpt lat="46.93884" lon="-2.05923">
        <ele>1</ele>
        <time>2020-06-04T14:05:04Z</time>
      </trkpt>
      <trkpt lat="46.93888" lon="-2.05918">
        <ele>1</ele>
        <time>2020-06-04T14:05:05Z</time>
      </trkpt>
      <trkpt lat="46.93891" lon="-2.05913">
        <ele>1</ele>
        <time>2020-06-04T14:05:06Z</time>
      </trkpt>
      <trkpt lat="46.93895" lon="-2.05908">
        <ele>1</ele>
        <time>2020-06-04T14:05:07Z</time>
      </trkpt>
      <trkpt lat="46.93899" lon="-2.05903">
        <ele>1</ele>
        <time>2020-06-04T14:05:08Z</time>
      </trkpt>
      <trkpt lat="46.93902" lon="-2.05897">
        <ele>1</ele>
        <time>2020-06-04T14:05:09Z</time>
      </trkpt>
      <trkpt lat="46.93906" lon="-2.05892">
        <ele>1</ele>
        <time>2020-06-04T14:05:10Z</time>
      </trkpt>
      <trkpt lat="46.9391" lon="-2.05887">
        <ele>1</ele>
        <time>2020-06-04T14:05:11Z</time>
      </trkpt>
      <trkpt lat="46.93914" lon="-2.05881">
        <ele>1</ele>
        <time>2020-06-04T14:05:12Z</time>
      </trkpt>
      <trkpt lat="46.93918" lon="-2.05876">
        <ele>1</ele>
        <time>2020-06-04T14:05:13Z</time>
      </trkpt>
      <trkpt lat="46.93922" lon="-2.05871">
        <ele>1</ele>
        <time>2020-06-04T14:05:14Z</time>
      </trkpt>
      <trkpt lat="46.93927" lon="-2.05866">
        <ele>1</ele>
        <time>2020-06-04T14:05:15Z</time>
      </trkpt>
      <trkpt lat="46.93931" lon="-2.05862">
        <ele>1</ele>
        <time>2020-06-04T14:05:16Z</time>
      </trkpt>
      <trkpt lat="46.93935" lon="-2.05856">
        <ele>1</ele>
        <time>2020-06-04T14:05:17Z</time>
      </trkpt>
      <trkpt lat="46.93939" lon="-2.05851">
        <ele>1</ele>
        <time>2020-06-04T14:05:18Z</time>
      </trkpt>
      <trkpt lat="46.93943" lon="-2.05845">
        <ele>1</ele>
        <time>2020-06-04T14:05:19Z</time>
      </trkpt>
      <trkpt lat="46.93947" lon="-2.05839">
        <ele>1</ele>
        <time>2020-06-04T14:05:20Z</time>
      </trkpt>
      <trkpt lat="46.9395" lon="-2.05832">
        <ele>1</ele>
        <time>2020-06-04T14:05:21Z</time>
      </trkpt>
      <trkpt lat="46.93953" lon="-2.05825">
        <ele>1</ele>
        <time>2020-06-04T14:05:22Z</time>
      </trkpt>
      <trkpt lat="46.93957" lon="-2.0582">
        <ele>1</ele>
        <time>2020-06-04T14:05:23Z</time>
      </trkpt>
      <trkpt lat="46.9396" lon="-2.05813">
        <ele>0.9</ele>
        <time>2020-06-04T14:05:24Z</time>
      </trkpt>
      <trkpt lat="46.93963" lon="-2.05806">
        <ele>0.9</ele>
        <time>2020-06-04T14:05:25Z</time>
      </trkpt>
      <trkpt lat="46.93966" lon="-2.05799">
        <ele>0.9</ele>
        <time>2020-06-04T14:05:26Z</time>
      </trkpt>
      <trkpt lat="46.93969" lon="-2.05793">
        <ele>0.9</ele>
        <time>2020-06-04T14:05:27Z</time>
      </trkpt>
      <trkpt lat="46.93972" lon="-2.05786">
        <ele>0.8</ele>
        <time>2020-06-04T14:05:28Z</time>
      </trkpt>
      <trkpt lat="46.93975" lon="-2.05779">
        <ele>0.8</ele>
        <time>2020-06-04T14:05:29Z</time>
      </trkpt>
      <trkpt lat="46.93978" lon="-2.05773">
        <ele>0.8</ele>
        <time>2020-06-04T14:05:30Z</time>
      </trkpt>
      <trkpt lat="46.93981" lon="-2.05768">
        <ele>0.8</ele>
        <time>2020-06-04T14:05:31Z</time>
      </trkpt>
      <trkpt lat="46.93986" lon="-2.05763">
        <ele>0.7</ele>
        <time>2020-06-04T14:05:32Z</time>
      </trkpt>
      <trkpt lat="46.93989" lon="-2.05758">
        <ele>0.7</ele>
        <time>2020-06-04T14:05:33Z</time>
      </trkpt>
      <trkpt lat="46.93994" lon="-2.05753">
        <ele>0.7</ele>
        <time>2020-06-04T14:05:34Z</time>
      </trkpt>
      <trkpt lat="46.93998" lon="-2.05748">
        <ele>0.7</ele>
        <time>2020-06-04T14:05:35Z</time>
      </trkpt>
      <trkpt lat="46.94002" lon="-2.05744">
        <ele>0.6</ele>
        <time>2020-06-04T14:05:36Z</time>
      </trkpt>
      <trkpt lat="46.94006" lon="-2.0574">
        <ele>0.6</ele>
        <time>2020-06-04T14:05:37Z</time>
      </trkpt>
      <trkpt lat="46.94008" lon="-2.05735">
        <ele>0.6</ele>
        <time>2020-06-04T14:05:38Z</time>
      </trkpt>
      <trkpt lat="46.9401" lon="-2.05728">
        <ele>0.6</ele>
        <time>2020-06-04T14:05:39Z</time>
      </trkpt>
      <trkpt lat="46.94011" lon="-2.05721">
        <ele>0.6</ele>
        <time>2020-06-04T14:05:40Z</time>
      </trkpt>
      <trkpt lat="46.94011" lon="-2.05714">
        <ele>0.5</ele>
        <time>2020-06-04T14:05:41Z</time>
      </trkpt>
      <trkpt lat="46.9401" lon="-2.05707">
        <ele>0.5</ele>
        <time>2020-06-04T14:05:42Z</time>
      </trkpt>
      <trkpt lat="46.94009" lon="-2.05699">
        <ele>0.5</ele>
        <time>2020-06-04T14:05:43Z</time>
      </trkpt>
      <trkpt lat="46.94009" lon="-2.05692">
        <ele>0.5</ele>
        <time>2020-06-04T14:05:44Z</time>
      </trkpt>
      <trkpt lat="46.94009" lon="-2.05685">
        <ele>0.5</ele>
        <time>2020-06-04T14:05:45Z</time>
      </trkpt>
      <trkpt lat="46.9401" lon="-2.05677">
        <ele>0.5</ele>
        <time>2020-06-04T14:05:46Z</time>
      </trkpt>
      <trkpt lat="46.94011" lon="-2.0567">
        <ele>0.5</ele>
        <time>2020-06-04T14:05:47Z</time>
      </trkpt>
      <trkpt lat="46.94011" lon="-2.05662">
        <ele>0.4</ele>
        <time>2020-06-04T14:05:48Z</time>
      </trkpt>
      <trkpt lat="46.94011" lon="-2.05654">
        <ele>0.4</ele>
        <time>2020-06-04T14:05:49Z</time>
      </trkpt>
      <trkpt lat="46.94012" lon="-2.05647">
        <ele>0.4</ele>
        <time>2020-06-04T14:05:50Z</time>
      </trkpt>
      <trkpt lat="46.94013" lon="-2.05639">
        <ele>0.4</ele>
        <time>2020-06-04T14:05:51Z</time>
      </trkpt>
      <trkpt lat="46.94013" lon="-2.05632">
        <ele>0.4</ele>
        <time>2020-06-04T14:05:52Z</time>
      </trkpt>
      <trkpt lat="46.94014" lon="-2.05624">
        <ele>0.5</ele>
        <time>2020-06-04T14:05:53Z</time>
      </trkpt>
      <trkpt lat="46.94014" lon="-2.05616">
        <ele>0.5</ele>
        <time>2020-06-04T14:05:54Z</time>
      </trkpt>
      <trkpt lat="46.94015" lon="-2.05609">
        <ele>0.5</ele>
        <time>2020-06-04T14:05:55Z</time>
      </trkpt>
      <trkpt lat="46.94015" lon="-2.05602">
        <ele>0.5</ele>
        <time>2020-06-04T14:05:56Z</time>
      </trkpt>
      <trkpt lat="46.94016" lon="-2.05594">
        <ele>0.5</ele>
        <time>2020-06-04T14:05:57Z</time>
      </trkpt>
      <trkpt lat="46.94016" lon="-2.05587">
        <ele>0.6</ele>
        <time>2020-06-04T14:05:58Z</time>
      </trkpt>
      <trkpt lat="46.94017" lon="-2.0558">
        <ele>0.6</ele>
        <time>2020-06-04T14:05:59Z</time>
      </trkpt>
      <trkpt lat="46.94018" lon="-2.05572">
        <ele>0.6</ele>
        <time>2020-06-04T14:06:00Z</time>
      </trkpt>
      <trkpt lat="46.94018" lon="-2.05565">
        <ele>0.6</ele>
        <time>2020-06-04T14:06:01Z</time>
      </trkpt>
      <trkpt lat="46.94019" lon="-2.05557">
        <ele>0.6</ele>
        <time>2020-06-04T14:06:02Z</time>
      </trkpt>
      <trkpt lat="46.9402" lon="-2.05549">
        <ele>0.6</ele>
        <time>2020-06-04T14:06:03Z</time>
      </trkpt>
      <trkpt lat="46.94021" lon="-2.05541">
        <ele>0.6</ele>
        <time>2020-06-04T14:06:04Z</time>
      </trkpt>
      <trkpt lat="46.94022" lon="-2.05534">
        <ele>0.6</ele>
        <time>2020-06-04T14:06:05Z</time>
      </trkpt>
      <trkpt lat="46.94023" lon="-2.05527">
        <ele>0.6</ele>
        <time>2020-06-04T14:06:06Z</time>
      </trkpt>
      <trkpt lat="46.94025" lon="-2.0552">
        <ele>0.6</ele>
        <time>2020-06-04T14:06:07Z</time>
      </trkpt>
      <trkpt lat="46.94025" lon="-2.05513">
        <ele>0.5</ele>
        <time>2020-06-04T14:06:08Z</time>
      </trkpt>
      <trkpt lat="46.94026" lon="-2.05506">
        <ele>0.5</ele>
        <time>2020-06-04T14:06:09Z</time>
      </trkpt>
      <trkpt lat="46.94027" lon="-2.05499">
        <ele>0.5</ele>
        <time>2020-06-04T14:06:10Z</time>
      </trkpt>
      <trkpt lat="46.94028" lon="-2.05492">
        <ele>0.5</ele>
        <time>2020-06-04T14:06:11Z</time>
      </trkpt>
      <trkpt lat="46.94029" lon="-2.05484">
        <ele>0.5</ele>
        <time>2020-06-04T14:06:12Z</time>
      </trkpt>
      <trkpt lat="46.94029" lon="-2.05476">
        <ele>0.5</ele>
        <time>2020-06-04T14:06:13Z</time>
      </trkpt>
      <trkpt lat="46.94029" lon="-2.05468">
        <ele>0.5</ele>
        <time>2020-06-04T14:06:14Z</time>
      </trkpt>
      <trkpt lat="46.9403" lon="-2.0546">
        <ele>0.5</ele>
        <time>2020-06-04T14:06:15Z</time>
      </trkpt>
      <trkpt lat="46.94032" lon="-2.05453">
        <ele>0.5</ele>
        <time>2020-06-04T14:06:16Z</time>
      </trkpt>
      <trkpt lat="46.94033" lon="-2.05446">
        <ele>0.5</ele>
        <time>2020-06-04T14:06:17Z</time>
      </trkpt>
      <trkpt lat="46.94034" lon="-2.0544">
        <ele>0.5</ele>
        <time>2020-06-04T14:06:18Z</time>
      </trkpt>
      <trkpt lat="46.94035" lon="-2.05434">
        <ele>0.5</ele>
        <time>2020-06-04T14:06:19Z</time>
      </trkpt>
      <trkpt lat="46.94037" lon="-2.05428">
        <ele>0.5</ele>
        <time>2020-06-04T14:06:20Z</time>
      </trkpt>
      <trkpt lat="46.94037" lon="-2.05422">
        <ele>0.5</ele>
        <time>2020-06-04T14:06:21Z</time>
      </trkpt>
      <trkpt lat="46.94038" lon="-2.05416">
        <ele>0.5</ele>
        <time>2020-06-04T14:06:22Z</time>
      </trkpt>
      <trkpt lat="46.94038" lon="-2.0541">
        <ele>0.5</ele>
        <time>2020-06-04T14:06:23Z</time>
      </trkpt>
      <trkpt lat="46.94039" lon="-2.05404">
        <ele>0.5</ele>
        <time>2020-06-04T14:06:24Z</time>
      </trkpt>
      <trkpt lat="46.9404" lon="-2.05399">
        <ele>0.5</ele>
        <time>2020-06-04T14:06:25Z</time>
      </trkpt>
      <trkpt lat="46.94041" lon="-2.05393">
        <ele>0.5</ele>
        <time>2020-06-04T14:06:26Z</time>
      </trkpt>
      <trkpt lat="46.94042" lon="-2.05387">
        <ele>0.5</ele>
        <time>2020-06-04T14:06:27Z</time>
      </trkpt>
      <trkpt lat="46.94043" lon="-2.05381">
        <ele>0.5</ele>
        <time>2020-06-04T14:06:28Z</time>
      </trkpt>
      <trkpt lat="46.94044" lon="-2.05376">
        <ele>0.5</ele>
        <time>2020-06-04T14:06:29Z</time>
      </trkpt>
      <trkpt lat="46.94045" lon="-2.0537">
        <ele>0.5</ele>
        <time>2020-06-04T14:06:30Z</time>
      </trkpt>
      <trkpt lat="46.94046" lon="-2.05365">
        <ele>0.5</ele>
        <time>2020-06-04T14:06:31Z</time>
      </trkpt>
      <trkpt lat="46.94047" lon="-2.05361">
        <ele>0.5</ele>
        <time>2020-06-04T14:06:32Z</time>
      </trkpt>
      <trkpt lat="46.94048" lon="-2.05356">
        <ele>0.5</ele>
        <time>2020-06-04T14:06:33Z</time>
      </trkpt>
      <trkpt lat="46.94048" lon="-2.05351">
        <ele>0.5</ele>
        <time>2020-06-04T14:06:34Z</time>
      </trkpt>
      <trkpt lat="46.94049" lon="-2.05345">
        <ele>0.5</ele>
        <time>2020-06-04T14:06:35Z</time>
      </trkpt>
      <trkpt lat="46.94049" lon="-2.05339">
        <ele>0.5</ele>
        <time>2020-06-04T14:06:36Z</time>
      </trkpt>
      <trkpt lat="46.9405" lon="-2.05332">
        <ele>0.5</ele>
        <time>2020-06-04T14:06:37Z</time>
      </trkpt>
      <trkpt lat="46.94051" lon="-2.05325">
        <ele>0.5</ele>
        <time>2020-06-04T14:06:38Z</time>
      </trkpt>
      <trkpt lat="46.94051" lon="-2.05318">
        <ele>0.5</ele>
        <time>2020-06-04T14:06:39Z</time>
      </trkpt>
      <trkpt lat="46.94052" lon="-2.05311">
        <ele>0.6</ele>
        <time>2020-06-04T14:06:40Z</time>
      </trkpt>
      <trkpt lat="46.94053" lon="-2.05303">
        <ele>0.6</ele>
        <time>2020-06-04T14:06:41Z</time>
      </trkpt>
      <trkpt lat="46.94053" lon="-2.05296">
        <ele>0.6</ele>
        <time>2020-06-04T14:06:42Z</time>
      </trkpt>
      <trkpt lat="46.94055" lon="-2.05288">
        <ele>0.6</ele>
        <time>2020-06-04T14:06:43Z</time>
      </trkpt>
      <trkpt lat="46.94057" lon="-2.05281">
        <ele>0.6</ele>
        <time>2020-06-04T14:06:44Z</time>
      </trkpt>
      <trkpt lat="46.94057" lon="-2.05274">
        <ele>0.6</ele>
        <time>2020-06-04T14:06:45Z</time>
      </trkpt>
      <trkpt lat="46.94058" lon="-2.05267">
        <ele>0.6</ele>
        <time>2020-06-04T14:06:46Z</time>
      </trkpt>
      <trkpt lat="46.9406" lon="-2.0526">
        <ele>0.6</ele>
        <time>2020-06-04T14:06:47Z</time>
      </trkpt>
      <trkpt lat="46.94063" lon="-2.05253">
        <ele>0.6</ele>
        <time>2020-06-04T14:06:48Z</time>
      </trkpt>
      <trkpt lat="46.94067" lon="-2.05248">
        <ele>0.6</ele>
        <time>2020-06-04T14:06:49Z</time>
      </trkpt>
      <trkpt lat="46.94071" lon="-2.05243">
        <ele>0.6</ele>
        <time>2020-06-04T14:06:50Z</time>
      </trkpt>
      <trkpt lat="46.94075" lon="-2.05238">
        <ele>0.7</ele>
        <time>2020-06-04T14:06:51Z</time>
      </trkpt>
      <trkpt lat="46.94079" lon="-2.05232">
        <ele>0.7</ele>
        <time>2020-06-04T14:06:52Z</time>
      </trkpt>
      <trkpt lat="46.94082" lon="-2.05226">
        <ele>0.7</ele>
        <time>2020-06-04T14:06:53Z</time>
      </trkpt>
      <trkpt lat="46.94086" lon="-2.0522">
        <ele>0.7</ele>
        <time>2020-06-04T14:06:54Z</time>
      </trkpt>
      <trkpt lat="46.9409" lon="-2.05215">
        <ele>0.7</ele>
        <time>2020-06-04T14:06:55Z</time>
      </trkpt>
      <trkpt lat="46.94094" lon="-2.05209">
        <ele>0.7</ele>
        <time>2020-06-04T14:06:56Z</time>
      </trkpt>
      <trkpt lat="46.94098" lon="-2.05203">
        <ele>0.7</ele>
        <time>2020-06-04T14:06:57Z</time>
      </trkpt>
      <trkpt lat="46.94102" lon="-2.05197">
        <ele>0.7</ele>
        <time>2020-06-04T14:06:58Z</time>
      </trkpt>
      <trkpt lat="46.94107" lon="-2.05192">
        <ele>0.7</ele>
        <time>2020-06-04T14:06:59Z</time>
      </trkpt>
      <trkpt lat="46.94111" lon="-2.05186">
        <ele>0.7</ele>
        <time>2020-06-04T14:07:00Z</time>
      </trkpt>
      <trkpt lat="46.94115" lon="-2.05181">
        <ele>0.7</ele>
        <time>2020-06-04T14:07:01Z</time>
      </trkpt>
      <trkpt lat="46.94119" lon="-2.05175">
        <ele>0.7</ele>
        <time>2020-06-04T14:07:02Z</time>
      </trkpt>
      <trkpt lat="46.94124" lon="-2.0517">
        <ele>0.7</ele>
        <time>2020-06-04T14:07:03Z</time>
      </trkpt>
      <trkpt lat="46.94128" lon="-2.05163">
        <ele>0.7</ele>
        <time>2020-06-04T14:07:04Z</time>
      </trkpt>
      <trkpt lat="46.94132" lon="-2.05158">
        <ele>0.7</ele>
        <time>2020-06-04T14:07:05Z</time>
      </trkpt>
      <trkpt lat="46.94136" lon="-2.05152">
        <ele>0.7</ele>
        <time>2020-06-04T14:07:06Z</time>
      </trkpt>
      <trkpt lat="46.9414" lon="-2.05148">
        <ele>0.7</ele>
        <time>2020-06-04T14:07:07Z</time>
      </trkpt>
      <trkpt lat="46.94145" lon="-2.05143">
        <ele>0.7</ele>
        <time>2020-06-04T14:07:08Z</time>
      </trkpt>
      <trkpt lat="46.94149" lon="-2.05138">
        <ele>0.7</ele>
        <time>2020-06-04T14:07:09Z</time>
      </trkpt>
      <trkpt lat="46.94152" lon="-2.05134">
        <ele>0.7</ele>
        <time>2020-06-04T14:07:10Z</time>
      </trkpt>
      <trkpt lat="46.94156" lon="-2.05129">
        <ele>0.7</ele>
        <time>2020-06-04T14:07:11Z</time>
      </trkpt>
      <trkpt lat="46.9416" lon="-2.05125">
        <ele>0.7</ele>
        <time>2020-06-04T14:07:12Z</time>
      </trkpt>
      <trkpt lat="46.94164" lon="-2.05124">
        <ele>0.7</ele>
        <time>2020-06-04T14:07:13Z</time>
      </trkpt>
      <trkpt lat="46.94166" lon="-2.05125">
        <ele>0.7</ele>
        <time>2020-06-04T14:07:14Z</time>
      </trkpt>
      <trkpt lat="46.94167" lon="-2.05126">
        <ele>0.7</ele>
        <time>2020-06-04T14:07:15Z</time>
      </trkpt>
      <trkpt lat="46.94167" lon="-2.05126">
        <ele>0.7</ele>
        <time>2020-06-04T14:07:16Z</time>
      </trkpt>
      <trkpt lat="46.94168" lon="-2.05126">
        <ele>0.7</ele>
        <time>2020-06-04T14:07:17Z</time>
      </trkpt>
      <trkpt lat="46.94168" lon="-2.05126">
        <ele>0.7</ele>
        <time>2020-06-04T14:07:18Z</time>
      </trkpt>
      <trkpt lat="46.94168" lon="-2.05126">
        <ele>0.7</ele>
        <time>2020-06-04T14:07:19Z</time>
      </trkpt>
      <trkpt lat="46.94168" lon="-2.05128">
        <ele>0.7</ele>
        <time>2020-06-04T14:07:20Z</time>
      </trkpt>
      <trkpt lat="46.94168" lon="-2.05128">
        <ele>0.7</ele>
        <time>2020-06-04T14:07:21Z</time>
      </trkpt>
      <trkpt lat="46.94169" lon="-2.05129">
        <ele>0.7</ele>
        <time>2020-06-04T14:07:22Z</time>
      </trkpt>
      <trkpt lat="46.94169" lon="-2.05129">
        <ele>0.7</ele>
        <time>2020-06-04T14:07:23Z</time>
      </trkpt>
      <trkpt lat="46.94169" lon="-2.05129">
        <ele>0.7</ele>
        <time>2020-06-04T14:07:24Z</time>
      </trkpt>
      <trkpt lat="46.94169" lon="-2.0513">
        <ele>0.7</ele>
        <time>2020-06-04T14:07:25Z</time>
      </trkpt>
      <trkpt lat="46.94169" lon="-2.05131">
        <ele>0.7</ele>
        <time>2020-06-04T14:07:26Z</time>
      </trkpt>
      <trkpt lat="46.9417" lon="-2.05131">
        <ele>0.7</ele>
        <time>2020-06-04T14:07:27Z</time>
      </trkpt>
      <trkpt lat="46.9417" lon="-2.05132">
        <ele>0.7</ele>
        <time>2020-06-04T14:07:28Z</time>
      </trkpt>
      <trkpt lat="46.94169" lon="-2.05131">
        <ele>0.7</ele>
        <time>2020-06-04T14:07:29Z</time>
      </trkpt>
      <trkpt lat="46.9417" lon="-2.05131">
        <ele>0.7</ele>
        <time>2020-06-04T14:07:30Z</time>
      </trkpt>
      <trkpt lat="46.9417" lon="-2.05132">
        <ele>0.7</ele>
        <time>2020-06-04T14:07:31Z</time>
      </trkpt>
      <trkpt lat="46.9417" lon="-2.05133">
        <ele>0.8</ele>
        <time>2020-06-04T14:07:32Z</time>
      </trkpt>
      <trkpt lat="46.9417" lon="-2.05133">
        <ele>0.8</ele>
        <time>2020-06-04T14:07:33Z</time>
      </trkpt>
      <trkpt lat="46.9417" lon="-2.05133">
        <ele>0.8</ele>
        <time>2020-06-04T14:07:34Z</time>
      </trkpt>
      <trkpt lat="46.9417" lon="-2.05133">
        <ele>0.8</ele>
        <time>2020-06-04T14:07:35Z</time>
      </trkpt>
      <trkpt lat="46.9417" lon="-2.05133">
        <ele>0.8</ele>
        <time>2020-06-04T14:07:36Z</time>
      </trkpt>
      <trkpt lat="46.9417" lon="-2.05132">
        <ele>0.8</ele>
        <time>2020-06-04T14:07:37Z</time>
      </trkpt>
      <trkpt lat="46.9417" lon="-2.05132">
        <ele>0.8</ele>
        <time>2020-06-04T14:07:38Z</time>
      </trkpt>
      <trkpt lat="46.9417" lon="-2.05132">
        <ele>0.8</ele>
        <time>2020-06-04T14:07:39Z</time>
      </trkpt>
      <trkpt lat="46.9417" lon="-2.05132">
        <ele>0.8</ele>
        <time>2020-06-04T14:07:40Z</time>
      </trkpt>
      <trkpt lat="46.94169" lon="-2.05131">
        <ele>0.8</ele>
        <time>2020-06-04T14:07:41Z</time>
      </trkpt>
      <trkpt lat="46.94179" lon="-2.05131">
        <ele>0.8</ele>
        <time>2020-06-04T14:09:29Z</time>
      </trkpt>
      <trkpt lat="46.9418" lon="-2.05133">
        <ele>0.8</ele>
        <time>2020-06-04T14:09:30Z</time>
      </trkpt>
      <trkpt lat="46.94181" lon="-2.05137">
        <ele>0.8</ele>
        <time>2020-06-04T14:09:31Z</time>
      </trkpt>
      <trkpt lat="46.94181" lon="-2.05139">
        <ele>0.8</ele>
        <time>2020-06-04T14:09:32Z</time>
      </trkpt>
      <trkpt lat="46.94183" lon="-2.05142">
        <ele>0.8</ele>
        <time>2020-06-04T14:09:33Z</time>
      </trkpt>
      <trkpt lat="46.94184" lon="-2.05143">
        <ele>0.8</ele>
        <time>2020-06-04T14:09:34Z</time>
      </trkpt>
      <trkpt lat="46.94187" lon="-2.05143">
        <ele>0.9</ele>
        <time>2020-06-04T14:09:35Z</time>
      </trkpt>
      <trkpt lat="46.94188" lon="-2.05144">
        <ele>0.9</ele>
        <time>2020-06-04T14:09:36Z</time>
      </trkpt>
      <trkpt lat="46.94191" lon="-2.05142">
        <ele>0.9</ele>
        <time>2020-06-04T14:09:37Z</time>
      </trkpt>
      <trkpt lat="46.94192" lon="-2.05141">
        <ele>0.9</ele>
        <time>2020-06-04T14:09:38Z</time>
      </trkpt>
      <trkpt lat="46.94195" lon="-2.05138">
        <ele>0.9</ele>
        <time>2020-06-04T14:09:39Z</time>
      </trkpt>
      <trkpt lat="46.94198" lon="-2.05135">
        <ele>0.9</ele>
        <time>2020-06-04T14:09:40Z</time>
      </trkpt>
      <trkpt lat="46.94202" lon="-2.05132">
        <ele>0.9</ele>
        <time>2020-06-04T14:09:41Z</time>
      </trkpt>
      <trkpt lat="46.94206" lon="-2.05129">
        <ele>0.9</ele>
        <time>2020-06-04T14:09:42Z</time>
      </trkpt>
      <trkpt lat="46.9421" lon="-2.05125">
        <ele>0.9</ele>
        <time>2020-06-04T14:09:43Z</time>
      </trkpt>
      <trkpt lat="46.94213" lon="-2.0512">
        <ele>0.9</ele>
        <time>2020-06-04T14:09:44Z</time>
      </trkpt>
      <trkpt lat="46.94216" lon="-2.05116">
        <ele>0.9</ele>
        <time>2020-06-04T14:09:45Z</time>
      </trkpt>
      <trkpt lat="46.9422" lon="-2.05111">
        <ele>0.8</ele>
        <time>2020-06-04T14:09:46Z</time>
      </trkpt>
      <trkpt lat="46.94223" lon="-2.05107">
        <ele>0.8</ele>
        <time>2020-06-04T14:09:47Z</time>
      </trkpt>
      <trkpt lat="46.94227" lon="-2.05103">
        <ele>0.8</ele>
        <time>2020-06-04T14:09:48Z</time>
      </trkpt>
      <trkpt lat="46.9423" lon="-2.05099">
        <ele>0.8</ele>
        <time>2020-06-04T14:09:49Z</time>
      </trkpt>
      <trkpt lat="46.94234" lon="-2.05095">
        <ele>0.7</ele>
        <time>2020-06-04T14:09:50Z</time>
      </trkpt>
      <trkpt lat="46.94237" lon="-2.05092">
        <ele>0.7</ele>
        <time>2020-06-04T14:09:51Z</time>
      </trkpt>
      <trkpt lat="46.9424" lon="-2.05088">
        <ele>0.7</ele>
        <time>2020-06-04T14:09:52Z</time>
      </trkpt>
      <trkpt lat="46.94243" lon="-2.05084">
        <ele>0.7</ele>
        <time>2020-06-04T14:09:53Z</time>
      </trkpt>
      <trkpt lat="46.94246" lon="-2.0508">
        <ele>0.7</ele>
        <time>2020-06-04T14:09:54Z</time>
      </trkpt>
      <trkpt lat="46.94249" lon="-2.05077">
        <ele>0.7</ele>
        <time>2020-06-04T14:09:55Z</time>
      </trkpt>
      <trkpt lat="46.94252" lon="-2.05073">
        <ele>0.7</ele>
        <time>2020-06-04T14:09:56Z</time>
      </trkpt>
      <trkpt lat="46.94256" lon="-2.05068">
        <ele>0.7</ele>
        <time>2020-06-04T14:09:57Z</time>
      </trkpt>
      <trkpt lat="46.94259" lon="-2.05064">
        <ele>0.7</ele>
        <time>2020-06-04T14:09:58Z</time>
      </trkpt>
      <trkpt lat="46.94263" lon="-2.0506">
        <ele>0.7</ele>
        <time>2020-06-04T14:09:59Z</time>
      </trkpt>
      <trkpt lat="46.94267" lon="-2.05055">
        <ele>0.7</ele>
        <time>2020-06-04T14:10:00Z</time>
      </trkpt>
      <trkpt lat="46.94269" lon="-2.05051">
        <ele>0.7</ele>
        <time>2020-06-04T14:10:01Z</time>
      </trkpt>
      <trkpt lat="46.94272" lon="-2.05049">
        <ele>0.7</ele>
        <time>2020-06-04T14:10:02Z</time>
      </trkpt>
      <trkpt lat="46.94277" lon="-2.05044">
        <ele>0.7</ele>
        <time>2020-06-04T14:10:03Z</time>
      </trkpt>
      <trkpt lat="46.9428" lon="-2.05042">
        <ele>0.7</ele>
        <time>2020-06-04T14:10:04Z</time>
      </trkpt>
      <trkpt lat="46.94283" lon="-2.05039">
        <ele>0.7</ele>
        <time>2020-06-04T14:10:05Z</time>
      </trkpt>
      <trkpt lat="46.94286" lon="-2.05036">
        <ele>0.7</ele>
        <time>2020-06-04T14:10:06Z</time>
      </trkpt>
      <trkpt lat="46.9429" lon="-2.05032">
        <ele>0.7</ele>
        <time>2020-06-04T14:10:07Z</time>
      </trkpt>
      <trkpt lat="46.94294" lon="-2.05026">
        <ele>0.7</ele>
        <time>2020-06-04T14:10:08Z</time>
      </trkpt>
      <trkpt lat="46.94297" lon="-2.05021">
        <ele>0.7</ele>
        <time>2020-06-04T14:10:09Z</time>
      </trkpt>
      <trkpt lat="46.94301" lon="-2.05016">
        <ele>0.7</ele>
        <time>2020-06-04T14:10:10Z</time>
      </trkpt>
      <trkpt lat="46.94304" lon="-2.05011">
        <ele>0.7</ele>
        <time>2020-06-04T14:10:11Z</time>
      </trkpt>
      <trkpt lat="46.94308" lon="-2.05008">
        <ele>0.7</ele>
        <time>2020-06-04T14:10:12Z</time>
      </trkpt>
      <trkpt lat="46.94311" lon="-2.05004">
        <ele>0.7</ele>
        <time>2020-06-04T14:10:13Z</time>
      </trkpt>
      <trkpt lat="46.94314" lon="-2.05001">
        <ele>0.7</ele>
        <time>2020-06-04T14:10:14Z</time>
      </trkpt>
      <trkpt lat="46.94316" lon="-2.04998">
        <ele>0.7</ele>
        <time>2020-06-04T14:10:15Z</time>
      </trkpt>
      <trkpt lat="46.9432" lon="-2.04994">
        <ele>0.7</ele>
        <time>2020-06-04T14:10:16Z</time>
      </trkpt>
      <trkpt lat="46.94324" lon="-2.0499">
        <ele>0.7</ele>
        <time>2020-06-04T14:10:17Z</time>
      </trkpt>
      <trkpt lat="46.94327" lon="-2.04987">
        <ele>0.7</ele>
        <time>2020-06-04T14:10:18Z</time>
      </trkpt>
      <trkpt lat="46.94332" lon="-2.04982">
        <ele>0.7</ele>
        <time>2020-06-04T14:10:19Z</time>
      </trkpt>
      <trkpt lat="46.94335" lon="-2.04979">
        <ele>0.7</ele>
        <time>2020-06-04T14:10:20Z</time>
      </trkpt>
      <trkpt lat="46.94339" lon="-2.04974">
        <ele>0.8</ele>
        <time>2020-06-04T14:10:21Z</time>
      </trkpt>
      <trkpt lat="46.94342" lon="-2.04971">
        <ele>0.8</ele>
        <time>2020-06-04T14:10:22Z</time>
      </trkpt>
      <trkpt lat="46.94346" lon="-2.04967">
        <ele>0.8</ele>
        <time>2020-06-04T14:10:23Z</time>
      </trkpt>
      <trkpt lat="46.9435" lon="-2.04963">
        <ele>0.8</ele>
        <time>2020-06-04T14:10:24Z</time>
      </trkpt>
      <trkpt lat="46.94353" lon="-2.04959">
        <ele>0.8</ele>
        <time>2020-06-04T14:10:25Z</time>
      </trkpt>
      <trkpt lat="46.94357" lon="-2.04954">
        <ele>0.8</ele>
        <time>2020-06-04T14:10:26Z</time>
      </trkpt>
      <trkpt lat="46.94361" lon="-2.04949">
        <ele>0.8</ele>
        <time>2020-06-04T14:10:27Z</time>
      </trkpt>
      <trkpt lat="46.94364" lon="-2.04945">
        <ele>0.8</ele>
        <time>2020-06-04T14:10:28Z</time>
      </trkpt>
      <trkpt lat="46.94366" lon="-2.04941">
        <ele>0.8</ele>
        <time>2020-06-04T14:10:29Z</time>
      </trkpt>
      <trkpt lat="46.94368" lon="-2.04938">
        <ele>0.8</ele>
        <time>2020-06-04T14:10:30Z</time>
      </trkpt>
      <trkpt lat="46.94371" lon="-2.04934">
        <ele>0.8</ele>
        <time>2020-06-04T14:10:31Z</time>
      </trkpt>
      <trkpt lat="46.94374" lon="-2.0493">
        <ele>0.8</ele>
        <time>2020-06-04T14:10:32Z</time>
      </trkpt>
      <trkpt lat="46.94376" lon="-2.04926">
        <ele>0.8</ele>
        <time>2020-06-04T14:10:33Z</time>
      </trkpt>
      <trkpt lat="46.94379" lon="-2.04923">
        <ele>0.8</ele>
        <time>2020-06-04T14:10:34Z</time>
      </trkpt>
      <trkpt lat="46.94383" lon="-2.04918">
        <ele>0.8</ele>
        <time>2020-06-04T14:10:35Z</time>
      </trkpt>
      <trkpt lat="46.94386" lon="-2.04913">
        <ele>0.8</ele>
        <time>2020-06-04T14:10:36Z</time>
      </trkpt>
      <trkpt lat="46.94388" lon="-2.04909">
        <ele>0.8</ele>
        <time>2020-06-04T14:10:37Z</time>
      </trkpt>
      <trkpt lat="46.9439" lon="-2.04903">
        <ele>0.8</ele>
        <time>2020-06-04T14:10:38Z</time>
      </trkpt>
      <trkpt lat="46.94393" lon="-2.04898">
        <ele>0.8</ele>
        <time>2020-06-04T14:10:39Z</time>
      </trkpt>
      <trkpt lat="46.94396" lon="-2.04893">
        <ele>0.8</ele>
        <time>2020-06-04T14:10:40Z</time>
      </trkpt>
      <trkpt lat="46.94399" lon="-2.04888">
        <ele>0.8</ele>
        <time>2020-06-04T14:10:41Z</time>
      </trkpt>
      <trkpt lat="46.94401" lon="-2.04884">
        <ele>0.8</ele>
        <time>2020-06-04T14:10:42Z</time>
      </trkpt>
      <trkpt lat="46.94404" lon="-2.04879">
        <ele>0.8</ele>
        <time>2020-06-04T14:10:43Z</time>
      </trkpt>
      <trkpt lat="46.94407" lon="-2.04875">
        <ele>0.8</ele>
        <time>2020-06-04T14:10:44Z</time>
      </trkpt>
      <trkpt lat="46.94409" lon="-2.04871">
        <ele>0.8</ele>
        <time>2020-06-04T14:10:45Z</time>
      </trkpt>
      <trkpt lat="46.94412" lon="-2.04867">
        <ele>0.8</ele>
        <time>2020-06-04T14:10:46Z</time>
      </trkpt>
      <trkpt lat="46.94414" lon="-2.04862">
        <ele>0.8</ele>
        <time>2020-06-04T14:10:47Z</time>
      </trkpt>
      <trkpt lat="46.94417" lon="-2.04856">
        <ele>0.8</ele>
        <time>2020-06-04T14:10:48Z</time>
      </trkpt>
      <trkpt lat="46.94419" lon="-2.04852">
        <ele>0.8</ele>
        <time>2020-06-04T14:10:49Z</time>
      </trkpt>
      <trkpt lat="46.94422" lon="-2.04847">
        <ele>0.8</ele>
        <time>2020-06-04T14:10:50Z</time>
      </trkpt>
      <trkpt lat="46.94424" lon="-2.04843">
        <ele>0.8</ele>
        <time>2020-06-04T14:10:51Z</time>
      </trkpt>
      <trkpt lat="46.94427" lon="-2.04839">
        <ele>0.8</ele>
        <time>2020-06-04T14:10:52Z</time>
      </trkpt>
      <trkpt lat="46.9443" lon="-2.04834">
        <ele>0.8</ele>
        <time>2020-06-04T14:10:53Z</time>
      </trkpt>
      <trkpt lat="46.94433" lon="-2.0483">
        <ele>0.8</ele>
        <time>2020-06-04T14:10:54Z</time>
      </trkpt>
      <trkpt lat="46.94437" lon="-2.04825">
        <ele>0.8</ele>
        <time>2020-06-04T14:10:55Z</time>
      </trkpt>
      <trkpt lat="46.9444" lon="-2.04821">
        <ele>0.9</ele>
        <time>2020-06-04T14:10:56Z</time>
      </trkpt>
      <trkpt lat="46.94444" lon="-2.04817">
        <ele>0.9</ele>
        <time>2020-06-04T14:10:57Z</time>
      </trkpt>
      <trkpt lat="46.94447" lon="-2.04812">
        <ele>0.9</ele>
        <time>2020-06-04T14:10:58Z</time>
      </trkpt>
      <trkpt lat="46.94451" lon="-2.04807">
        <ele>0.9</ele>
        <time>2020-06-04T14:10:59Z</time>
      </trkpt>
      <trkpt lat="46.94455" lon="-2.04803">
        <ele>0.9</ele>
        <time>2020-06-04T14:11:00Z</time>
      </trkpt>
      <trkpt lat="46.94459" lon="-2.04798">
        <ele>1</ele>
        <time>2020-06-04T14:11:01Z</time>
      </trkpt>
      <trkpt lat="46.94463" lon="-2.04793">
        <ele>1</ele>
        <time>2020-06-04T14:11:02Z</time>
      </trkpt>
      <trkpt lat="46.94466" lon="-2.04788">
        <ele>1</ele>
        <time>2020-06-04T14:11:03Z</time>
      </trkpt>
      <trkpt lat="46.9447" lon="-2.04783">
        <ele>1</ele>
        <time>2020-06-04T14:11:04Z</time>
      </trkpt>
      <trkpt lat="46.94473" lon="-2.04777">
        <ele>1</ele>
        <time>2020-06-04T14:11:05Z</time>
      </trkpt>
      <trkpt lat="46.94477" lon="-2.04773">
        <ele>1</ele>
        <time>2020-06-04T14:11:06Z</time>
      </trkpt>
      <trkpt lat="46.94479" lon="-2.04766">
        <ele>1</ele>
        <time>2020-06-04T14:11:07Z</time>
      </trkpt>
      <trkpt lat="46.94482" lon="-2.0476">
        <ele>1</ele>
        <time>2020-06-04T14:11:08Z</time>
      </trkpt>
      <trkpt lat="46.94485" lon="-2.04754">
        <ele>1</ele>
        <time>2020-06-04T14:11:09Z</time>
      </trkpt>
      <trkpt lat="46.94488" lon="-2.04748">
        <ele>1.1</ele>
        <time>2020-06-04T14:11:10Z</time>
      </trkpt>
      <trkpt lat="46.94491" lon="-2.04743">
        <ele>1.1</ele>
        <time>2020-06-04T14:11:11Z</time>
      </trkpt>
      <trkpt lat="46.94494" lon="-2.04736">
        <ele>1.1</ele>
        <time>2020-06-04T14:11:12Z</time>
      </trkpt>
      <trkpt lat="46.94497" lon="-2.0473">
        <ele>1.1</ele>
        <time>2020-06-04T14:11:13Z</time>
      </trkpt>
      <trkpt lat="46.945" lon="-2.04724">
        <ele>1.1</ele>
        <time>2020-06-04T14:11:14Z</time>
      </trkpt>
      <trkpt lat="46.94503" lon="-2.04718">
        <ele>1.1</ele>
        <time>2020-06-04T14:11:15Z</time>
      </trkpt>
      <trkpt lat="46.94506" lon="-2.04711">
        <ele>1.1</ele>
        <time>2020-06-04T14:11:16Z</time>
      </trkpt>
      <trkpt lat="46.94508" lon="-2.04705">
        <ele>1.2</ele>
        <time>2020-06-04T14:11:17Z</time>
      </trkpt>
      <trkpt lat="46.94511" lon="-2.04699">
        <ele>1.2</ele>
        <time>2020-06-04T14:11:18Z</time>
      </trkpt>
      <trkpt lat="46.94514" lon="-2.04693">
        <ele>1.2</ele>
        <time>2020-06-04T14:11:19Z</time>
      </trkpt>
      <trkpt lat="46.94516" lon="-2.04688">
        <ele>1.2</ele>
        <time>2020-06-04T14:11:20Z</time>
      </trkpt>
      <trkpt lat="46.94519" lon="-2.04681">
        <ele>1.2</ele>
        <time>2020-06-04T14:11:21Z</time>
      </trkpt>
      <trkpt lat="46.94521" lon="-2.04675">
        <ele>1.3</ele>
        <time>2020-06-04T14:11:22Z</time>
      </trkpt>
      <trkpt lat="46.94523" lon="-2.04668">
        <ele>1.3</ele>
        <time>2020-06-04T14:11:23Z</time>
      </trkpt>
      <trkpt lat="46.94525" lon="-2.04661">
        <ele>1.3</ele>
        <time>2020-06-04T14:11:24Z</time>
      </trkpt>
      <trkpt lat="46.94527" lon="-2.04654">
        <ele>1.3</ele>
        <time>2020-06-04T14:11:25Z</time>
      </trkpt>
      <trkpt lat="46.94529" lon="-2.04647">
        <ele>1.3</ele>
        <time>2020-06-04T14:11:26Z</time>
      </trkpt>
      <trkpt lat="46.9453" lon="-2.0464">
        <ele>1.3</ele>
        <time>2020-06-04T14:11:27Z</time>
      </trkpt>
      <trkpt lat="46.94531" lon="-2.04632">
        <ele>1.3</ele>
        <time>2020-06-04T14:11:28Z</time>
      </trkpt>
      <trkpt lat="46.94533" lon="-2.04625">
        <ele>1.4</ele>
        <time>2020-06-04T14:11:29Z</time>
      </trkpt>
      <trkpt lat="46.94534" lon="-2.04617">
        <ele>1.4</ele>
        <time>2020-06-04T14:11:30Z</time>
      </trkpt>
      <trkpt lat="46.94535" lon="-2.04609">
        <ele>1.4</ele>
        <time>2020-06-04T14:11:31Z</time>
      </trkpt>
      <trkpt lat="46.94538" lon="-2.04603">
        <ele>1.4</ele>
        <time>2020-06-04T14:11:32Z</time>
      </trkpt>
      <trkpt lat="46.94539" lon="-2.04597">
        <ele>1.4</ele>
        <time>2020-06-04T14:11:33Z</time>
      </trkpt>
      <trkpt lat="46.94542" lon="-2.0459">
        <ele>1.5</ele>
        <time>2020-06-04T14:11:34Z</time>
      </trkpt>
      <trkpt lat="46.94544" lon="-2.04583">
        <ele>1.5</ele>
        <time>2020-06-04T14:11:35Z</time>
      </trkpt>
      <trkpt lat="46.94547" lon="-2.04577">
        <ele>1.5</ele>
        <time>2020-06-04T14:11:36Z</time>
      </trkpt>
      <trkpt lat="46.94549" lon="-2.04572">
        <ele>1.5</ele>
        <time>2020-06-04T14:11:37Z</time>
      </trkpt>
      <trkpt lat="46.94552" lon="-2.04566">
        <ele>1.5</ele>
        <time>2020-06-04T14:11:38Z</time>
      </trkpt>
      <trkpt lat="46.94555" lon="-2.0456">
        <ele>1.5</ele>
        <time>2020-06-04T14:11:39Z</time>
      </trkpt>
      <trkpt lat="46.94558" lon="-2.04553">
        <ele>1.5</ele>
        <time>2020-06-04T14:11:40Z</time>
      </trkpt>
      <trkpt lat="46.94561" lon="-2.04547">
        <ele>1.5</ele>
        <time>2020-06-04T14:11:41Z</time>
      </trkpt>
      <trkpt lat="46.94565" lon="-2.04541">
        <ele>1.6</ele>
        <time>2020-06-04T14:11:42Z</time>
      </trkpt>
      <trkpt lat="46.94568" lon="-2.04535">
        <ele>1.6</ele>
        <time>2020-06-04T14:11:43Z</time>
      </trkpt>
      <trkpt lat="46.94572" lon="-2.04529">
        <ele>1.6</ele>
        <time>2020-06-04T14:11:44Z</time>
      </trkpt>
      <trkpt lat="46.94575" lon="-2.04523">
        <ele>1.6</ele>
        <time>2020-06-04T14:11:45Z</time>
      </trkpt>
      <trkpt lat="46.94579" lon="-2.04517">
        <ele>1.6</ele>
        <time>2020-06-04T14:11:46Z</time>
      </trkpt>
      <trkpt lat="46.94583" lon="-2.04511">
        <ele>1.7</ele>
        <time>2020-06-04T14:11:47Z</time>
      </trkpt>
      <trkpt lat="46.94587" lon="-2.04506">
        <ele>1.7</ele>
        <time>2020-06-04T14:11:48Z</time>
      </trkpt>
      <trkpt lat="46.94591" lon="-2.04502">
        <ele>1.7</ele>
        <time>2020-06-04T14:11:49Z</time>
      </trkpt>
      <trkpt lat="46.94596" lon="-2.04498">
        <ele>1.8</ele>
        <time>2020-06-04T14:11:50Z</time>
      </trkpt>
      <trkpt lat="46.946" lon="-2.04494">
        <ele>1.8</ele>
        <time>2020-06-04T14:11:51Z</time>
      </trkpt>
      <trkpt lat="46.94605" lon="-2.0449">
        <ele>1.8</ele>
        <time>2020-06-04T14:11:52Z</time>
      </trkpt>
      <trkpt lat="46.94609" lon="-2.04487">
        <ele>1.8</ele>
        <time>2020-06-04T14:11:53Z</time>
      </trkpt>
      <trkpt lat="46.94615" lon="-2.04483">
        <ele>1.8</ele>
        <time>2020-06-04T14:11:54Z</time>
      </trkpt>
      <trkpt lat="46.94618" lon="-2.04479">
        <ele>1.8</ele>
        <time>2020-06-04T14:11:55Z</time>
      </trkpt>
      <trkpt lat="46.94622" lon="-2.04475">
        <ele>1.8</ele>
        <time>2020-06-04T14:11:56Z</time>
      </trkpt>
      <trkpt lat="46.94626" lon="-2.04471">
        <ele>1.8</ele>
        <time>2020-06-04T14:11:57Z</time>
      </trkpt>
      <trkpt lat="46.94631" lon="-2.04466">
        <ele>1.8</ele>
        <time>2020-06-04T14:11:58Z</time>
      </trkpt>
      <trkpt lat="46.94635" lon="-2.04462">
        <ele>1.8</ele>
        <time>2020-06-04T14:11:59Z</time>
      </trkpt>
      <trkpt lat="46.94639" lon="-2.04458">
        <ele>1.9</ele>
        <time>2020-06-04T14:12:00Z</time>
      </trkpt>
      <trkpt lat="46.94644" lon="-2.04453">
        <ele>1.9</ele>
        <time>2020-06-04T14:12:01Z</time>
      </trkpt>
      <trkpt lat="46.94648" lon="-2.0445">
        <ele>1.9</ele>
        <time>2020-06-04T14:12:02Z</time>
      </trkpt>
      <trkpt lat="46.94652" lon="-2.04447">
        <ele>1.9</ele>
        <time>2020-06-04T14:12:03Z</time>
      </trkpt>
      <trkpt lat="46.94657" lon="-2.04445">
        <ele>1.9</ele>
        <time>2020-06-04T14:12:04Z</time>
      </trkpt>
      <trkpt lat="46.94661" lon="-2.04442">
        <ele>1.9</ele>
        <time>2020-06-04T14:12:05Z</time>
      </trkpt>
      <trkpt lat="46.94665" lon="-2.04439">
        <ele>1.9</ele>
        <time>2020-06-04T14:12:06Z</time>
      </trkpt>
      <trkpt lat="46.9467" lon="-2.04436">
        <ele>1.9</ele>
        <time>2020-06-04T14:12:07Z</time>
      </trkpt>
      <trkpt lat="46.94675" lon="-2.04433">
        <ele>1.9</ele>
        <time>2020-06-04T14:12:08Z</time>
      </trkpt>
      <trkpt lat="46.94679" lon="-2.04429">
        <ele>1.9</ele>
        <time>2020-06-04T14:12:09Z</time>
      </trkpt>
      <trkpt lat="46.94684" lon="-2.04426">
        <ele>1.9</ele>
        <time>2020-06-04T14:12:10Z</time>
      </trkpt>
      <trkpt lat="46.94688" lon="-2.04423">
        <ele>1.9</ele>
        <time>2020-06-04T14:12:11Z</time>
      </trkpt>
      <trkpt lat="46.94692" lon="-2.0442">
        <ele>1.9</ele>
        <time>2020-06-04T14:12:12Z</time>
      </trkpt>
      <trkpt lat="46.94697" lon="-2.04415">
        <ele>2</ele>
        <time>2020-06-04T14:12:13Z</time>
      </trkpt>
      <trkpt lat="46.94702" lon="-2.04412">
        <ele>2</ele>
        <time>2020-06-04T14:12:14Z</time>
      </trkpt>
      <trkpt lat="46.94707" lon="-2.04408">
        <ele>2</ele>
        <time>2020-06-04T14:12:15Z</time>
      </trkpt>
      <trkpt lat="46.94711" lon="-2.04404">
        <ele>2</ele>
        <time>2020-06-04T14:12:16Z</time>
      </trkpt>
      <trkpt lat="46.94715" lon="-2.044">
        <ele>2</ele>
        <time>2020-06-04T14:12:17Z</time>
      </trkpt>
      <trkpt lat="46.94719" lon="-2.04397">
        <ele>2</ele>
        <time>2020-06-04T14:12:18Z</time>
      </trkpt>
      <trkpt lat="46.94723" lon="-2.04393">
        <ele>2</ele>
        <time>2020-06-04T14:12:19Z</time>
      </trkpt>
      <trkpt lat="46.94727" lon="-2.04388">
        <ele>2</ele>
        <time>2020-06-04T14:12:20Z</time>
      </trkpt>
      <trkpt lat="46.94732" lon="-2.04384">
        <ele>2</ele>
        <time>2020-06-04T14:12:21Z</time>
      </trkpt>
      <trkpt lat="46.94736" lon="-2.0438">
        <ele>2</ele>
        <time>2020-06-04T14:12:22Z</time>
      </trkpt>
      <trkpt lat="46.94741" lon="-2.04376">
        <ele>2</ele>
        <time>2020-06-04T14:12:23Z</time>
      </trkpt>
      <trkpt lat="46.94746" lon="-2.04372">
        <ele>2</ele>
        <time>2020-06-04T14:12:24Z</time>
      </trkpt>
      <trkpt lat="46.9475" lon="-2.04369">
        <ele>2</ele>
        <time>2020-06-04T14:12:25Z</time>
      </trkpt>
      <trkpt lat="46.94754" lon="-2.04366">
        <ele>2</ele>
        <time>2020-06-04T14:12:26Z</time>
      </trkpt>
      <trkpt lat="46.94758" lon="-2.04362">
        <ele>2</ele>
        <time>2020-06-04T14:12:27Z</time>
      </trkpt>
      <trkpt lat="46.94763" lon="-2.04358">
        <ele>2</ele>
        <time>2020-06-04T14:12:28Z</time>
      </trkpt>
      <trkpt lat="46.94767" lon="-2.04354">
        <ele>2</ele>
        <time>2020-06-04T14:12:29Z</time>
      </trkpt>
      <trkpt lat="46.94771" lon="-2.0435">
        <ele>2</ele>
        <time>2020-06-04T14:12:30Z</time>
      </trkpt>
      <trkpt lat="46.94775" lon="-2.04346">
        <ele>2</ele>
        <time>2020-06-04T14:12:31Z</time>
      </trkpt>
      <trkpt lat="46.94779" lon="-2.04343">
        <ele>2</ele>
        <time>2020-06-04T14:12:32Z</time>
      </trkpt>
      <trkpt lat="46.94783" lon="-2.04339">
        <ele>2</ele>
        <time>2020-06-04T14:12:33Z</time>
      </trkpt>
      <trkpt lat="46.94787" lon="-2.04335">
        <ele>2</ele>
        <time>2020-06-04T14:12:34Z</time>
      </trkpt>
      <trkpt lat="46.94791" lon="-2.04334">
        <ele>2</ele>
        <time>2020-06-04T14:12:35Z</time>
      </trkpt>
      <trkpt lat="46.94795" lon="-2.0433">
        <ele>2</ele>
        <time>2020-06-04T14:12:36Z</time>
      </trkpt>
      <trkpt lat="46.94799" lon="-2.04328">
        <ele>2</ele>
        <time>2020-06-04T14:12:37Z</time>
      </trkpt>
      <trkpt lat="46.94804" lon="-2.04328">
        <ele>2</ele>
        <time>2020-06-04T14:12:38Z</time>
      </trkpt>
      <trkpt lat="46.94808" lon="-2.04331">
        <ele>2</ele>
        <time>2020-06-04T14:12:39Z</time>
      </trkpt>
      <trkpt lat="46.94813" lon="-2.04334">
        <ele>1.9</ele>
        <time>2020-06-04T14:12:40Z</time>
      </trkpt>
      <trkpt lat="46.94817" lon="-2.04337">
        <ele>1.8</ele>
        <time>2020-06-04T14:12:41Z</time>
      </trkpt>
      <trkpt lat="46.9482" lon="-2.04341">
        <ele>1.7</ele>
        <time>2020-06-04T14:12:42Z</time>
      </trkpt>
      <trkpt lat="46.94824" lon="-2.04345">
        <ele>1.6</ele>
        <time>2020-06-04T14:12:43Z</time>
      </trkpt>
      <trkpt lat="46.94828" lon="-2.0435">
        <ele>1.5</ele>
        <time>2020-06-04T14:12:44Z</time>
      </trkpt>
      <trkpt lat="46.9483" lon="-2.04357">
        <ele>1.5</ele>
        <time>2020-06-04T14:12:45Z</time>
      </trkpt>
      <trkpt lat="46.94833" lon="-2.04363">
        <ele>1.4</ele>
        <time>2020-06-04T14:12:46Z</time>
      </trkpt>
      <trkpt lat="46.94836" lon="-2.0437">
        <ele>1.4</ele>
        <time>2020-06-04T14:12:47Z</time>
      </trkpt>
      <trkpt lat="46.94838" lon="-2.04376">
        <ele>1.4</ele>
        <time>2020-06-04T14:12:48Z</time>
      </trkpt>
      <trkpt lat="46.9484" lon="-2.04383">
        <ele>1.3</ele>
        <time>2020-06-04T14:12:49Z</time>
      </trkpt>
      <trkpt lat="46.94842" lon="-2.04391">
        <ele>1.3</ele>
        <time>2020-06-04T14:12:50Z</time>
      </trkpt>
      <trkpt lat="46.94844" lon="-2.04398">
        <ele>1.2</ele>
        <time>2020-06-04T14:12:51Z</time>
      </trkpt>
      <trkpt lat="46.94846" lon="-2.04405">
        <ele>1.2</ele>
        <time>2020-06-04T14:12:52Z</time>
      </trkpt>
      <trkpt lat="46.94848" lon="-2.04412">
        <ele>1.2</ele>
        <time>2020-06-04T14:12:53Z</time>
      </trkpt>
      <trkpt lat="46.9485" lon="-2.04418">
        <ele>1.2</ele>
        <time>2020-06-04T14:12:54Z</time>
      </trkpt>
      <trkpt lat="46.94852" lon="-2.04425">
        <ele>1.1</ele>
        <time>2020-06-04T14:12:55Z</time>
      </trkpt>
      <trkpt lat="46.94854" lon="-2.04431">
        <ele>1.1</ele>
        <time>2020-06-04T14:12:56Z</time>
      </trkpt>
      <trkpt lat="46.94856" lon="-2.04436">
        <ele>1.1</ele>
        <time>2020-06-04T14:12:57Z</time>
      </trkpt>
      <trkpt lat="46.94858" lon="-2.04442">
        <ele>1.1</ele>
        <time>2020-06-04T14:12:58Z</time>
      </trkpt>
      <trkpt lat="46.94859" lon="-2.04449">
        <ele>1.1</ele>
        <time>2020-06-04T14:12:59Z</time>
      </trkpt>
      <trkpt lat="46.94861" lon="-2.04455">
        <ele>1.1</ele>
        <time>2020-06-04T14:13:00Z</time>
      </trkpt>
      <trkpt lat="46.94863" lon="-2.04461">
        <ele>1.1</ele>
        <time>2020-06-04T14:13:01Z</time>
      </trkpt>
      <trkpt lat="46.94865" lon="-2.04467">
        <ele>1.1</ele>
        <time>2020-06-04T14:13:02Z</time>
      </trkpt>
      <trkpt lat="46.94867" lon="-2.04473">
        <ele>1.1</ele>
        <time>2020-06-04T14:13:03Z</time>
      </trkpt>
      <trkpt lat="46.94869" lon="-2.04479">
        <ele>1.1</ele>
        <time>2020-06-04T14:13:04Z</time>
      </trkpt>
      <trkpt lat="46.9487" lon="-2.04486">
        <ele>1.1</ele>
        <time>2020-06-04T14:13:05Z</time>
      </trkpt>
      <trkpt lat="46.94872" lon="-2.04492">
        <ele>1.1</ele>
        <time>2020-06-04T14:13:06Z</time>
      </trkpt>
      <trkpt lat="46.94874" lon="-2.04498">
        <ele>1.1</ele>
        <time>2020-06-04T14:13:07Z</time>
      </trkpt>
      <trkpt lat="46.94876" lon="-2.04504">
        <ele>1</ele>
        <time>2020-06-04T14:13:08Z</time>
      </trkpt>
      <trkpt lat="46.94878" lon="-2.0451">
        <ele>1</ele>
        <time>2020-06-04T14:13:09Z</time>
      </trkpt>
      <trkpt lat="46.9488" lon="-2.04516">
        <ele>1</ele>
        <time>2020-06-04T14:13:10Z</time>
      </trkpt>
      <trkpt lat="46.94882" lon="-2.04522">
        <ele>1</ele>
        <time>2020-06-04T14:13:11Z</time>
      </trkpt>
      <trkpt lat="46.94884" lon="-2.04529">
        <ele>0.9</ele>
        <time>2020-06-04T14:13:12Z</time>
      </trkpt>
      <trkpt lat="46.94885" lon="-2.04535">
        <ele>0.9</ele>
        <time>2020-06-04T14:13:13Z</time>
      </trkpt>
      <trkpt lat="46.94887" lon="-2.0454">
        <ele>0.9</ele>
        <time>2020-06-04T14:13:14Z</time>
      </trkpt>
      <trkpt lat="46.94889" lon="-2.04547">
        <ele>0.8</ele>
        <time>2020-06-04T14:13:15Z</time>
      </trkpt>
      <trkpt lat="46.94891" lon="-2.04552">
        <ele>0.8</ele>
        <time>2020-06-04T14:13:16Z</time>
      </trkpt>
      <trkpt lat="46.94894" lon="-2.04558">
        <ele>0.8</ele>
        <time>2020-06-04T14:13:17Z</time>
      </trkpt>
      <trkpt lat="46.94896" lon="-2.04565">
        <ele>0.7</ele>
        <time>2020-06-04T14:13:18Z</time>
      </trkpt>
      <trkpt lat="46.94898" lon="-2.04571">
        <ele>0.7</ele>
        <time>2020-06-04T14:13:19Z</time>
      </trkpt>
      <trkpt lat="46.94902" lon="-2.04577">
        <ele>0.7</ele>
        <time>2020-06-04T14:13:20Z</time>
      </trkpt>
      <trkpt lat="46.94904" lon="-2.04584">
        <ele>0.7</ele>
        <time>2020-06-04T14:13:21Z</time>
      </trkpt>
      <trkpt lat="46.94907" lon="-2.0459">
        <ele>0.7</ele>
        <time>2020-06-04T14:13:22Z</time>
      </trkpt>
      <trkpt lat="46.94908" lon="-2.04597">
        <ele>0.7</ele>
        <time>2020-06-04T14:13:23Z</time>
      </trkpt>
      <trkpt lat="46.9491" lon="-2.04603">
        <ele>0.7</ele>
        <time>2020-06-04T14:13:24Z</time>
      </trkpt>
      <trkpt lat="46.94912" lon="-2.04609">
        <ele>0.7</ele>
        <time>2020-06-04T14:13:25Z</time>
      </trkpt>
      <trkpt lat="46.94913" lon="-2.04614">
        <ele>0.7</ele>
        <time>2020-06-04T14:13:26Z</time>
      </trkpt>
      <trkpt lat="46.94915" lon="-2.04619">
        <ele>0.7</ele>
        <time>2020-06-04T14:13:27Z</time>
      </trkpt>
      <trkpt lat="46.94917" lon="-2.04624">
        <ele>0.7</ele>
        <time>2020-06-04T14:13:28Z</time>
      </trkpt>
      <trkpt lat="46.94919" lon="-2.04631">
        <ele>0.7</ele>
        <time>2020-06-04T14:13:29Z</time>
      </trkpt>
      <trkpt lat="46.94922" lon="-2.04635">
        <ele>0.7</ele>
        <time>2020-06-04T14:13:30Z</time>
      </trkpt>
      <trkpt lat="46.94924" lon="-2.04641">
        <ele>0.7</ele>
        <time>2020-06-04T14:13:31Z</time>
      </trkpt>
      <trkpt lat="46.94925" lon="-2.04645">
        <ele>0.7</ele>
        <time>2020-06-04T14:13:32Z</time>
      </trkpt>
      <trkpt lat="46.94926" lon="-2.04651">
        <ele>0.7</ele>
        <time>2020-06-04T14:13:33Z</time>
      </trkpt>
      <trkpt lat="46.94928" lon="-2.04657">
        <ele>0.7</ele>
        <time>2020-06-04T14:13:34Z</time>
      </trkpt>
      <trkpt lat="46.94929" lon="-2.04663">
        <ele>0.7</ele>
        <time>2020-06-04T14:13:35Z</time>
      </trkpt>
      <trkpt lat="46.9493" lon="-2.04668">
        <ele>0.7</ele>
        <time>2020-06-04T14:13:36Z</time>
      </trkpt>
      <trkpt lat="46.94932" lon="-2.04674">
        <ele>0.7</ele>
        <time>2020-06-04T14:13:37Z</time>
      </trkpt>
      <trkpt lat="46.94933" lon="-2.04679">
        <ele>0.6</ele>
        <time>2020-06-04T14:13:38Z</time>
      </trkpt>
      <trkpt lat="46.94935" lon="-2.04684">
        <ele>0.6</ele>
        <time>2020-06-04T14:13:39Z</time>
      </trkpt>
      <trkpt lat="46.94937" lon="-2.04688">
        <ele>0.6</ele>
        <time>2020-06-04T14:13:40Z</time>
      </trkpt>
      <trkpt lat="46.94939" lon="-2.04691">
        <ele>0.6</ele>
        <time>2020-06-04T14:13:41Z</time>
      </trkpt>
      <trkpt lat="46.9494" lon="-2.04697">
        <ele>0.6</ele>
        <time>2020-06-04T14:13:42Z</time>
      </trkpt>
      <trkpt lat="46.94941" lon="-2.04701">
        <ele>0.6</ele>
        <time>2020-06-04T14:13:43Z</time>
      </trkpt>
      <trkpt lat="46.94942" lon="-2.04705">
        <ele>0.7</ele>
        <time>2020-06-04T14:13:44Z</time>
      </trkpt>
      <trkpt lat="46.94943" lon="-2.04708">
        <ele>0.7</ele>
        <time>2020-06-04T14:13:45Z</time>
      </trkpt>
      <trkpt lat="46.94945" lon="-2.04709">
        <ele>0.7</ele>
        <time>2020-06-04T14:13:46Z</time>
      </trkpt>
      <trkpt lat="46.94945" lon="-2.04709">
        <ele>0.7</ele>
        <time>2020-06-04T14:13:47Z</time>
      </trkpt>
      <trkpt lat="46.94944" lon="-2.0471">
        <ele>0.7</ele>
        <time>2020-06-04T14:13:48Z</time>
      </trkpt>
      <trkpt lat="46.94944" lon="-2.04709">
        <ele>0.7</ele>
        <time>2020-06-04T14:13:49Z</time>
      </trkpt>
      <trkpt lat="46.94945" lon="-2.04707">
        <ele>0.7</ele>
        <time>2020-06-04T14:13:50Z</time>
      </trkpt>
      <trkpt lat="46.94945" lon="-2.04707">
        <ele>0.7</ele>
        <time>2020-06-04T14:13:51Z</time>
      </trkpt>
      <trkpt lat="46.94946" lon="-2.04707">
        <ele>0.7</ele>
        <time>2020-06-04T14:13:52Z</time>
      </trkpt>
      <trkpt lat="46.94946" lon="-2.04706">
        <ele>0.7</ele>
        <time>2020-06-04T14:13:53Z</time>
      </trkpt>
      <trkpt lat="46.94946" lon="-2.04705">
        <ele>0.7</ele>
        <time>2020-06-04T14:13:54Z</time>
      </trkpt>
      <trkpt lat="46.94946" lon="-2.04706">
        <ele>0.7</ele>
        <time>2020-06-04T14:13:55Z</time>
      </trkpt>
      <trkpt lat="46.94946" lon="-2.04707">
        <ele>0.7</ele>
        <time>2020-06-04T14:13:56Z</time>
      </trkpt>
      <trkpt lat="46.94946" lon="-2.04709">
        <ele>0.7</ele>
        <time>2020-06-04T14:13:57Z</time>
      </trkpt>
      <trkpt lat="46.94946" lon="-2.0471">
        <ele>0.8</ele>
        <time>2020-06-04T14:13:58Z</time>
      </trkpt>
      <trkpt lat="46.94946" lon="-2.04711">
        <ele>0.8</ele>
        <time>2020-06-04T14:13:59Z</time>
      </trkpt>
      <trkpt lat="46.94946" lon="-2.04713">
        <ele>0.8</ele>
        <time>2020-06-04T14:14:00Z</time>
      </trkpt>
      <trkpt lat="46.94946" lon="-2.04714">
        <ele>0.8</ele>
        <time>2020-06-04T14:14:01Z</time>
      </trkpt>
      <trkpt lat="46.94946" lon="-2.04715">
        <ele>0.8</ele>
        <time>2020-06-04T14:14:02Z</time>
      </trkpt>
      <trkpt lat="46.94946" lon="-2.04716">
        <ele>0.8</ele>
        <time>2020-06-04T14:14:56Z</time>
      </trkpt>
      <trkpt lat="46.94946" lon="-2.04718">
        <ele>0.8</ele>
        <time>2020-06-04T14:14:57Z</time>
      </trkpt>
      <trkpt lat="46.94948" lon="-2.04722">
        <ele>0.8</ele>
        <time>2020-06-04T14:14:58Z</time>
      </trkpt>
      <trkpt lat="46.94949" lon="-2.04726">
        <ele>0.9</ele>
        <time>2020-06-04T14:14:59Z</time>
      </trkpt>
      <trkpt lat="46.9495" lon="-2.04731">
        <ele>0.9</ele>
        <time>2020-06-04T14:15:00Z</time>
      </trkpt>
      <trkpt lat="46.94952" lon="-2.04735">
        <ele>0.9</ele>
        <time>2020-06-04T14:15:01Z</time>
      </trkpt>
      <trkpt lat="46.94953" lon="-2.0474">
        <ele>0.9</ele>
        <time>2020-06-04T14:15:02Z</time>
      </trkpt>
      <trkpt lat="46.94954" lon="-2.04745">
        <ele>1</ele>
        <time>2020-06-04T14:15:03Z</time>
      </trkpt>
      <trkpt lat="46.94955" lon="-2.04746">
        <ele>1</ele>
        <time>2020-06-04T14:15:04Z</time>
      </trkpt>
      <trkpt lat="46.94956" lon="-2.04747">
        <ele>1</ele>
        <time>2020-06-04T14:15:05Z</time>
      </trkpt>
      <trkpt lat="46.94956" lon="-2.04746">
        <ele>1</ele>
        <time>2020-06-04T14:15:06Z</time>
      </trkpt>
      <trkpt lat="46.94956" lon="-2.04745">
        <ele>1</ele>
        <time>2020-06-04T14:15:07Z</time>
      </trkpt>
      <trkpt lat="46.94956" lon="-2.04745">
        <ele>1</ele>
        <time>2020-06-04T14:15:08Z</time>
      </trkpt>
      <trkpt lat="46.94956" lon="-2.04746">
        <ele>1</ele>
        <time>2020-06-04T14:15:09Z</time>
      </trkpt>
      <trkpt lat="46.94957" lon="-2.04746">
        <ele>1</ele>
        <time>2020-06-04T14:15:10Z</time>
      </trkpt>
      <trkpt lat="46.94958" lon="-2.04745">
        <ele>1</ele>
        <time>2020-06-04T14:15:11Z</time>
      </trkpt>
      <trkpt lat="46.94958" lon="-2.04745">
        <ele>1</ele>
        <time>2020-06-04T14:15:12Z</time>
      </trkpt>
      <trkpt lat="46.94958" lon="-2.04745">
        <ele>1</ele>
        <time>2020-06-04T14:15:13Z</time>
      </trkpt>
      <trkpt lat="46.94958" lon="-2.04745">
        <ele>1</ele>
        <time>2020-06-04T14:15:14Z</time>
      </trkpt>
      <trkpt lat="46.94958" lon="-2.04745">
        <ele>1</ele>
        <time>2020-06-04T14:15:15Z</time>
      </trkpt>
      <trkpt lat="46.94958" lon="-2.04745">
        <ele>1</ele>
        <time>2020-06-04T14:15:16Z</time>
      </trkpt>
      <trkpt lat="46.94958" lon="-2.04745">
        <ele>1</ele>
        <time>2020-06-04T14:15:17Z</time>
      </trkpt>
      <trkpt lat="46.94958" lon="-2.04752">
        <ele>1</ele>
        <time>2020-06-04T14:18:13Z</time>
      </trkpt>
      <trkpt lat="46.94959" lon="-2.04753">
        <ele>1</ele>
        <time>2020-06-04T14:18:14Z</time>
      </trkpt>
      <trkpt lat="46.9496" lon="-2.04755">
        <ele>1</ele>
        <time>2020-06-04T14:18:15Z</time>
      </trkpt>
      <trkpt lat="46.9496" lon="-2.04757">
        <ele>1</ele>
        <time>2020-06-04T14:18:16Z</time>
      </trkpt>
      <trkpt lat="46.94961" lon="-2.04758">
        <ele>1</ele>
        <time>2020-06-04T14:18:17Z</time>
      </trkpt>
      <trkpt lat="46.94962" lon="-2.04758">
        <ele>1.1</ele>
        <time>2020-06-04T14:18:18Z</time>
      </trkpt>
      <trkpt lat="46.94963" lon="-2.04756">
        <ele>1.1</ele>
        <time>2020-06-04T14:18:19Z</time>
      </trkpt>
      <trkpt lat="46.94966" lon="-2.04752">
        <ele>1</ele>
        <time>2020-06-04T14:18:20Z</time>
      </trkpt>
      <trkpt lat="46.94967" lon="-2.04751">
        <ele>1</ele>
        <time>2020-06-04T14:18:21Z</time>
      </trkpt>
      <trkpt lat="46.94969" lon="-2.04748">
        <ele>1</ele>
        <time>2020-06-04T14:18:22Z</time>
      </trkpt>
      <trkpt lat="46.94972" lon="-2.04746">
        <ele>1</ele>
        <time>2020-06-04T14:18:23Z</time>
      </trkpt>
      <trkpt lat="46.94974" lon="-2.04743">
        <ele>1</ele>
        <time>2020-06-04T14:18:24Z</time>
      </trkpt>
      <trkpt lat="46.94976" lon="-2.04741">
        <ele>1</ele>
        <time>2020-06-04T14:18:25Z</time>
      </trkpt>
      <trkpt lat="46.94979" lon="-2.04739">
        <ele>1</ele>
        <time>2020-06-04T14:18:26Z</time>
      </trkpt>
      <trkpt lat="46.94982" lon="-2.04737">
        <ele>1</ele>
        <time>2020-06-04T14:18:27Z</time>
      </trkpt>
      <trkpt lat="46.94984" lon="-2.04734">
        <ele>1</ele>
        <time>2020-06-04T14:18:28Z</time>
      </trkpt>
      <trkpt lat="46.94988" lon="-2.04731">
        <ele>0.9</ele>
        <time>2020-06-04T14:18:29Z</time>
      </trkpt>
      <trkpt lat="46.94991" lon="-2.04728">
        <ele>0.9</ele>
        <time>2020-06-04T14:18:30Z</time>
      </trkpt>
      <trkpt lat="46.94995" lon="-2.04725">
        <ele>0.9</ele>
        <time>2020-06-04T14:18:31Z</time>
      </trkpt>
      <trkpt lat="46.94999" lon="-2.04722">
        <ele>0.9</ele>
        <time>2020-06-04T14:18:32Z</time>
      </trkpt>
      <trkpt lat="46.95003" lon="-2.04719">
        <ele>0.9</ele>
        <time>2020-06-04T14:18:33Z</time>
      </trkpt>
      <trkpt lat="46.95008" lon="-2.04716">
        <ele>0.9</ele>
        <time>2020-06-04T14:18:34Z</time>
      </trkpt>
      <trkpt lat="46.95012" lon="-2.04714">
        <ele>0.9</ele>
        <time>2020-06-04T14:18:35Z</time>
      </trkpt>
      <trkpt lat="46.95016" lon="-2.04712">
        <ele>0.9</ele>
        <time>2020-06-04T14:18:36Z</time>
      </trkpt>
      <trkpt lat="46.95021" lon="-2.0471">
        <ele>0.9</ele>
        <time>2020-06-04T14:18:37Z</time>
      </trkpt>
      <trkpt lat="46.95026" lon="-2.04706">
        <ele>0.9</ele>
        <time>2020-06-04T14:18:38Z</time>
      </trkpt>
      <trkpt lat="46.9503" lon="-2.04703">
        <ele>0.9</ele>
        <time>2020-06-04T14:18:39Z</time>
      </trkpt>
      <trkpt lat="46.95034" lon="-2.04701">
        <ele>1</ele>
        <time>2020-06-04T14:18:40Z</time>
      </trkpt>
      <trkpt lat="46.95039" lon="-2.04699">
        <ele>1</ele>
        <time>2020-06-04T14:18:41Z</time>
      </trkpt>
      <trkpt lat="46.95043" lon="-2.04697">
        <ele>1</ele>
        <time>2020-06-04T14:18:42Z</time>
      </trkpt>
      <trkpt lat="46.95046" lon="-2.04695">
        <ele>1</ele>
        <time>2020-06-04T14:18:43Z</time>
      </trkpt>
      <trkpt lat="46.95051" lon="-2.04692">
        <ele>1</ele>
        <time>2020-06-04T14:18:44Z</time>
      </trkpt>
      <trkpt lat="46.95054" lon="-2.0469">
        <ele>1</ele>
        <time>2020-06-04T14:18:45Z</time>
      </trkpt>
      <trkpt lat="46.95058" lon="-2.04688">
        <ele>1</ele>
        <time>2020-06-04T14:18:46Z</time>
      </trkpt>
      <trkpt lat="46.95062" lon="-2.04686">
        <ele>1</ele>
        <time>2020-06-04T14:18:47Z</time>
      </trkpt>
      <trkpt lat="46.95066" lon="-2.04682">
        <ele>1</ele>
        <time>2020-06-04T14:18:48Z</time>
      </trkpt>
      <trkpt lat="46.95071" lon="-2.04678">
        <ele>1</ele>
        <time>2020-06-04T14:18:49Z</time>
      </trkpt>
      <trkpt lat="46.95076" lon="-2.04675">
        <ele>1</ele>
        <time>2020-06-04T14:18:50Z</time>
      </trkpt>
      <trkpt lat="46.9508" lon="-2.04672">
        <ele>0.9</ele>
        <time>2020-06-04T14:18:51Z</time>
      </trkpt>
      <trkpt lat="46.95085" lon="-2.04667">
        <ele>0.9</ele>
        <time>2020-06-04T14:18:52Z</time>
      </trkpt>
      <trkpt lat="46.9509" lon="-2.04664">
        <ele>0.9</ele>
        <time>2020-06-04T14:18:53Z</time>
      </trkpt>
      <trkpt lat="46.95094" lon="-2.04661">
        <ele>0.9</ele>
        <time>2020-06-04T14:18:54Z</time>
      </trkpt>
      <trkpt lat="46.95099" lon="-2.04657">
        <ele>0.8</ele>
        <time>2020-06-04T14:18:55Z</time>
      </trkpt>
      <trkpt lat="46.95104" lon="-2.04653">
        <ele>0.8</ele>
        <time>2020-06-04T14:18:56Z</time>
      </trkpt>
      <trkpt lat="46.9511" lon="-2.0465">
        <ele>0.8</ele>
        <time>2020-06-04T14:18:57Z</time>
      </trkpt>
      <trkpt lat="46.95115" lon="-2.04646">
        <ele>0.8</ele>
        <time>2020-06-04T14:18:58Z</time>
      </trkpt>
      <trkpt lat="46.95119" lon="-2.04643">
        <ele>0.8</ele>
        <time>2020-06-04T14:18:59Z</time>
      </trkpt>
      <trkpt lat="46.95124" lon="-2.0464">
        <ele>0.8</ele>
        <time>2020-06-04T14:19:00Z</time>
      </trkpt>
      <trkpt lat="46.95128" lon="-2.04638">
        <ele>0.8</ele>
        <time>2020-06-04T14:19:01Z</time>
      </trkpt>
      <trkpt lat="46.95133" lon="-2.04634">
        <ele>0.8</ele>
        <time>2020-06-04T14:19:02Z</time>
      </trkpt>
      <trkpt lat="46.95137" lon="-2.04632">
        <ele>0.9</ele>
        <time>2020-06-04T14:19:03Z</time>
      </trkpt>
      <trkpt lat="46.95142" lon="-2.04629">
        <ele>0.9</ele>
        <time>2020-06-04T14:19:04Z</time>
      </trkpt>
      <trkpt lat="46.95146" lon="-2.04626">
        <ele>0.9</ele>
        <time>2020-06-04T14:19:05Z</time>
      </trkpt>
      <trkpt lat="46.95151" lon="-2.04623">
        <ele>0.9</ele>
        <time>2020-06-04T14:19:06Z</time>
      </trkpt>
      <trkpt lat="46.95155" lon="-2.0462">
        <ele>1</ele>
        <time>2020-06-04T14:19:07Z</time>
      </trkpt>
      <trkpt lat="46.95159" lon="-2.04617">
        <ele>1</ele>
        <time>2020-06-04T14:19:08Z</time>
      </trkpt>
      <trkpt lat="46.95164" lon="-2.04614">
        <ele>1</ele>
        <time>2020-06-04T14:19:09Z</time>
      </trkpt>
      <trkpt lat="46.95168" lon="-2.04612">
        <ele>1</ele>
        <time>2020-06-04T14:19:10Z</time>
      </trkpt>
      <trkpt lat="46.95172" lon="-2.04608">
        <ele>1</ele>
        <time>2020-06-04T14:19:11Z</time>
      </trkpt>
      <trkpt lat="46.95176" lon="-2.04606">
        <ele>1</ele>
        <time>2020-06-04T14:19:12Z</time>
      </trkpt>
      <trkpt lat="46.9518" lon="-2.04603">
        <ele>1</ele>
        <time>2020-06-04T14:19:13Z</time>
      </trkpt>
      <trkpt lat="46.95184" lon="-2.046">
        <ele>1</ele>
        <time>2020-06-04T14:19:14Z</time>
      </trkpt>
      <trkpt lat="46.95188" lon="-2.04597">
        <ele>1</ele>
        <time>2020-06-04T14:19:15Z</time>
      </trkpt>
      <trkpt lat="46.95193" lon="-2.04593">
        <ele>1</ele>
        <time>2020-06-04T14:19:16Z</time>
      </trkpt>
      <trkpt lat="46.95197" lon="-2.0459">
        <ele>1</ele>
        <time>2020-06-04T14:19:17Z</time>
      </trkpt>
      <trkpt lat="46.95201" lon="-2.04587">
        <ele>1</ele>
        <time>2020-06-04T14:19:18Z</time>
      </trkpt>
      <trkpt lat="46.95206" lon="-2.04584">
        <ele>1</ele>
        <time>2020-06-04T14:19:19Z</time>
      </trkpt>
      <trkpt lat="46.9521" lon="-2.04581">
        <ele>1</ele>
        <time>2020-06-04T14:19:20Z</time>
      </trkpt>
      <trkpt lat="46.95214" lon="-2.04577">
        <ele>1</ele>
        <time>2020-06-04T14:19:21Z</time>
      </trkpt>
      <trkpt lat="46.95219" lon="-2.04574">
        <ele>1</ele>
        <time>2020-06-04T14:19:22Z</time>
      </trkpt>
      <trkpt lat="46.95223" lon="-2.04571">
        <ele>1</ele>
        <time>2020-06-04T14:19:23Z</time>
      </trkpt>
      <trkpt lat="46.95229" lon="-2.04568">
        <ele>1</ele>
        <time>2020-06-04T14:19:24Z</time>
      </trkpt>
      <trkpt lat="46.95233" lon="-2.04566">
        <ele>1</ele>
        <time>2020-06-04T14:19:25Z</time>
      </trkpt>
      <trkpt lat="46.95238" lon="-2.04562">
        <ele>1</ele>
        <time>2020-06-04T14:19:26Z</time>
      </trkpt>
      <trkpt lat="46.95242" lon="-2.04559">
        <ele>1</ele>
        <time>2020-06-04T14:19:27Z</time>
      </trkpt>
      <trkpt lat="46.95246" lon="-2.04556">
        <ele>1.1</ele>
        <time>2020-06-04T14:19:28Z</time>
      </trkpt>
      <trkpt lat="46.9525" lon="-2.04553">
        <ele>1.1</ele>
        <time>2020-06-04T14:19:29Z</time>
      </trkpt>
      <trkpt lat="46.95254" lon="-2.0455">
        <ele>1.1</ele>
        <time>2020-06-04T14:19:30Z</time>
      </trkpt>
      <trkpt lat="46.95258" lon="-2.04547">
        <ele>1.1</ele>
        <time>2020-06-04T14:19:31Z</time>
      </trkpt>
      <trkpt lat="46.95262" lon="-2.04544">
        <ele>1.1</ele>
        <time>2020-06-04T14:19:32Z</time>
      </trkpt>
      <trkpt lat="46.95266" lon="-2.04541">
        <ele>1.1</ele>
        <time>2020-06-04T14:19:33Z</time>
      </trkpt>
      <trkpt lat="46.9527" lon="-2.04539">
        <ele>1.1</ele>
        <time>2020-06-04T14:19:34Z</time>
      </trkpt>
      <trkpt lat="46.95274" lon="-2.04535">
        <ele>1.1</ele>
        <time>2020-06-04T14:19:35Z</time>
      </trkpt>
      <trkpt lat="46.95279" lon="-2.04533">
        <ele>1.1</ele>
        <time>2020-06-04T14:19:36Z</time>
      </trkpt>
      <trkpt lat="46.95283" lon="-2.0453">
        <ele>1</ele>
        <time>2020-06-04T14:19:37Z</time>
      </trkpt>
      <trkpt lat="46.95288" lon="-2.04527">
        <ele>0.8</ele>
        <time>2020-06-04T14:19:38Z</time>
      </trkpt>
      <trkpt lat="46.95291" lon="-2.04524">
        <ele>0.8</ele>
        <time>2020-06-04T14:19:39Z</time>
      </trkpt>
      <trkpt lat="46.95295" lon="-2.04521">
        <ele>0.7</ele>
        <time>2020-06-04T14:19:40Z</time>
      </trkpt>
      <trkpt lat="46.95299" lon="-2.04518">
        <ele>0.6</ele>
        <time>2020-06-04T14:19:41Z</time>
      </trkpt>
      <trkpt lat="46.95302" lon="-2.04515">
        <ele>0.5</ele>
        <time>2020-06-04T14:19:42Z</time>
      </trkpt>
      <trkpt lat="46.95306" lon="-2.04512">
        <ele>0.4</ele>
        <time>2020-06-04T14:19:43Z</time>
      </trkpt>
      <trkpt lat="46.95311" lon="-2.04509">
        <ele>0.3</ele>
        <time>2020-06-04T14:19:44Z</time>
      </trkpt>
      <trkpt lat="46.95315" lon="-2.04506">
        <ele>0.3</ele>
        <time>2020-06-04T14:19:45Z</time>
      </trkpt>
      <trkpt lat="46.95318" lon="-2.04503">
        <ele>0.2</ele>
        <time>2020-06-04T14:19:46Z</time>
      </trkpt>
      <trkpt lat="46.95322" lon="-2.045">
        <ele>0.1</ele>
        <time>2020-06-04T14:19:47Z</time>
      </trkpt>
      <trkpt lat="46.95326" lon="-2.04497">
        <ele>0.1</ele>
        <time>2020-06-04T14:19:48Z</time>
      </trkpt>
      <trkpt lat="46.95331" lon="-2.04494">
        <ele>2.9</ele>
        <time>2020-06-04T14:19:49Z</time>
      </trkpt>
      <trkpt lat="46.95335" lon="-2.04491">
        <ele>3</ele>
        <time>2020-06-04T14:19:50Z</time>
      </trkpt>
      <trkpt lat="46.95339" lon="-2.04488">
        <ele>3</ele>
        <time>2020-06-04T14:19:51Z</time>
      </trkpt>
      <trkpt lat="46.95344" lon="-2.04484">
        <ele>3</ele>
        <time>2020-06-04T14:19:52Z</time>
      </trkpt>
      <trkpt lat="46.95349" lon="-2.04481">
        <ele>3</ele>
        <time>2020-06-04T14:19:53Z</time>
      </trkpt>
      <trkpt lat="46.95354" lon="-2.04478">
        <ele>3</ele>
        <time>2020-06-04T14:19:54Z</time>
      </trkpt>
      <trkpt lat="46.95359" lon="-2.04475">
        <ele>3</ele>
        <time>2020-06-04T14:19:55Z</time>
      </trkpt>
      <trkpt lat="46.95364" lon="-2.04471">
        <ele>0.1</ele>
        <time>2020-06-04T14:19:56Z</time>
      </trkpt>
      <trkpt lat="46.95369" lon="-2.04468">
        <ele>0.1</ele>
        <time>2020-06-04T14:19:57Z</time>
      </trkpt>
      <trkpt lat="46.95375" lon="-2.04464">
        <ele>0.1</ele>
        <time>2020-06-04T14:19:58Z</time>
      </trkpt>
      <trkpt lat="46.9538" lon="-2.04459">
        <ele>0.2</ele>
        <time>2020-06-04T14:19:59Z</time>
      </trkpt>
      <trkpt lat="46.95386" lon="-2.04455">
        <ele>0.2</ele>
        <time>2020-06-04T14:20:00Z</time>
      </trkpt>
      <trkpt lat="46.95392" lon="-2.04452">
        <ele>0.2</ele>
        <time>2020-06-04T14:20:01Z</time>
      </trkpt>
      <trkpt lat="46.95397" lon="-2.04449">
        <ele>0.3</ele>
        <time>2020-06-04T14:20:02Z</time>
      </trkpt>
      <trkpt lat="46.95402" lon="-2.04445">
        <ele>0.3</ele>
        <time>2020-06-04T14:20:03Z</time>
      </trkpt>
      <trkpt lat="46.95407" lon="-2.04442">
        <ele>0.4</ele>
        <time>2020-06-04T14:20:04Z</time>
      </trkpt>
      <trkpt lat="46.95412" lon="-2.04439">
        <ele>0.4</ele>
        <time>2020-06-04T14:20:05Z</time>
      </trkpt>
      <trkpt lat="46.95418" lon="-2.04435">
        <ele>0.4</ele>
        <time>2020-06-04T14:20:06Z</time>
      </trkpt>
      <trkpt lat="46.95423" lon="-2.04432">
        <ele>0.4</ele>
        <time>2020-06-04T14:20:07Z</time>
      </trkpt>
      <trkpt lat="46.95428" lon="-2.04429">
        <ele>0.5</ele>
        <time>2020-06-04T14:20:08Z</time>
      </trkpt>
      <trkpt lat="46.95433" lon="-2.04426">
        <ele>0.5</ele>
        <time>2020-06-04T14:20:09Z</time>
      </trkpt>
      <trkpt lat="46.95438" lon="-2.04423">
        <ele>0.5</ele>
        <time>2020-06-04T14:20:10Z</time>
      </trkpt>
      <trkpt lat="46.95444" lon="-2.0442">
        <ele>0.5</ele>
        <time>2020-06-04T14:20:11Z</time>
      </trkpt>
      <trkpt lat="46.95449" lon="-2.04417">
        <ele>0.5</ele>
        <time>2020-06-04T14:20:12Z</time>
      </trkpt>
      <trkpt lat="46.95454" lon="-2.04414">
        <ele>0.5</ele>
        <time>2020-06-04T14:20:13Z</time>
      </trkpt>
      <trkpt lat="46.95459" lon="-2.0441">
        <ele>0.5</ele>
        <time>2020-06-04T14:20:14Z</time>
      </trkpt>
      <trkpt lat="46.95464" lon="-2.04406">
        <ele>0.5</ele>
        <time>2020-06-04T14:20:15Z</time>
      </trkpt>
      <trkpt lat="46.95468" lon="-2.04401">
        <ele>0.5</ele>
        <time>2020-06-04T14:20:16Z</time>
      </trkpt>
      <trkpt lat="46.95472" lon="-2.04398">
        <ele>0.5</ele>
        <time>2020-06-04T14:20:17Z</time>
      </trkpt>
      <trkpt lat="46.95477" lon="-2.04396">
        <ele>0.4</ele>
        <time>2020-06-04T14:20:18Z</time>
      </trkpt>
      <trkpt lat="46.95481" lon="-2.04394">
        <ele>0.4</ele>
        <time>2020-06-04T14:20:19Z</time>
      </trkpt>
      <trkpt lat="46.95486" lon="-2.04392">
        <ele>0.4</ele>
        <time>2020-06-04T14:20:20Z</time>
      </trkpt>
      <trkpt lat="46.95491" lon="-2.04388">
        <ele>0.4</ele>
        <time>2020-06-04T14:20:21Z</time>
      </trkpt>
      <trkpt lat="46.95496" lon="-2.04384">
        <ele>0.5</ele>
        <time>2020-06-04T14:20:22Z</time>
      </trkpt>
      <trkpt lat="46.95501" lon="-2.0438">
        <ele>0.5</ele>
        <time>2020-06-04T14:20:23Z</time>
      </trkpt>
      <trkpt lat="46.95506" lon="-2.04376">
        <ele>0.5</ele>
        <time>2020-06-04T14:20:24Z</time>
      </trkpt>
      <trkpt lat="46.95511" lon="-2.04373">
        <ele>0.6</ele>
        <time>2020-06-04T14:20:25Z</time>
      </trkpt>
      <trkpt lat="46.95516" lon="-2.0437">
        <ele>0.6</ele>
        <time>2020-06-04T14:20:26Z</time>
      </trkpt>
      <trkpt lat="46.95521" lon="-2.04367">
        <ele>0.6</ele>
        <time>2020-06-04T14:20:27Z</time>
      </trkpt>
      <trkpt lat="46.95525" lon="-2.04364">
        <ele>0.7</ele>
        <time>2020-06-04T14:20:28Z</time>
      </trkpt>
      <trkpt lat="46.95529" lon="-2.04362">
        <ele>0.7</ele>
        <time>2020-06-04T14:20:29Z</time>
      </trkpt>
      <trkpt lat="46.95533" lon="-2.04359">
        <ele>0.7</ele>
        <time>2020-06-04T14:20:30Z</time>
      </trkpt>
      <trkpt lat="46.95536" lon="-2.04356">
        <ele>0.7</ele>
        <time>2020-06-04T14:20:31Z</time>
      </trkpt>
      <trkpt lat="46.95539" lon="-2.04353">
        <ele>0.7</ele>
        <time>2020-06-04T14:20:32Z</time>
      </trkpt>
      <trkpt lat="46.95543" lon="-2.0435">
        <ele>0.7</ele>
        <time>2020-06-04T14:20:33Z</time>
      </trkpt>
      <trkpt lat="46.95546" lon="-2.04347">
        <ele>0.7</ele>
        <time>2020-06-04T14:20:34Z</time>
      </trkpt>
      <trkpt lat="46.9555" lon="-2.04344">
        <ele>0.7</ele>
        <time>2020-06-04T14:20:35Z</time>
      </trkpt>
      <trkpt lat="46.95554" lon="-2.0434">
        <ele>0.7</ele>
        <time>2020-06-04T14:20:36Z</time>
      </trkpt>
      <trkpt lat="46.95558" lon="-2.04337">
        <ele>0.7</ele>
        <time>2020-06-04T14:20:37Z</time>
      </trkpt>
      <trkpt lat="46.95562" lon="-2.04333">
        <ele>0.8</ele>
        <time>2020-06-04T14:20:38Z</time>
      </trkpt>
      <trkpt lat="46.95567" lon="-2.0433">
        <ele>0.8</ele>
        <time>2020-06-04T14:20:39Z</time>
      </trkpt>
      <trkpt lat="46.9557" lon="-2.04327">
        <ele>0.8</ele>
        <time>2020-06-04T14:20:40Z</time>
      </trkpt>
      <trkpt lat="46.95575" lon="-2.04323">
        <ele>0.8</ele>
        <time>2020-06-04T14:20:41Z</time>
      </trkpt>
      <trkpt lat="46.95579" lon="-2.0432">
        <ele>0.8</ele>
        <time>2020-06-04T14:20:42Z</time>
      </trkpt>
      <trkpt lat="46.95584" lon="-2.04317">
        <ele>0.9</ele>
        <time>2020-06-04T14:20:43Z</time>
      </trkpt>
      <trkpt lat="46.95588" lon="-2.04313">
        <ele>0.9</ele>
        <time>2020-06-04T14:20:44Z</time>
      </trkpt>
      <trkpt lat="46.95593" lon="-2.04309">
        <ele>0.9</ele>
        <time>2020-06-04T14:20:45Z</time>
      </trkpt>
      <trkpt lat="46.95598" lon="-2.04306">
        <ele>0.9</ele>
        <time>2020-06-04T14:20:46Z</time>
      </trkpt>
      <trkpt lat="46.95603" lon="-2.04303">
        <ele>1</ele>
        <time>2020-06-04T14:20:47Z</time>
      </trkpt>
      <trkpt lat="46.95607" lon="-2.043">
        <ele>1</ele>
        <time>2020-06-04T14:20:48Z</time>
      </trkpt>
      <trkpt lat="46.95612" lon="-2.04297">
        <ele>1</ele>
        <time>2020-06-04T14:20:49Z</time>
      </trkpt>
      <trkpt lat="46.95616" lon="-2.04294">
        <ele>1</ele>
        <time>2020-06-04T14:20:50Z</time>
      </trkpt>
      <trkpt lat="46.95621" lon="-2.04291">
        <ele>1</ele>
        <time>2020-06-04T14:20:51Z</time>
      </trkpt>
      <trkpt lat="46.95625" lon="-2.04288">
        <ele>1</ele>
        <time>2020-06-04T14:20:52Z</time>
      </trkpt>
      <trkpt lat="46.9563" lon="-2.04285">
        <ele>1</ele>
        <time>2020-06-04T14:20:53Z</time>
      </trkpt>
      <trkpt lat="46.95635" lon="-2.04282">
        <ele>1</ele>
        <time>2020-06-04T14:20:54Z</time>
      </trkpt>
      <trkpt lat="46.95639" lon="-2.04279">
        <ele>1</ele>
        <time>2020-06-04T14:20:55Z</time>
      </trkpt>
      <trkpt lat="46.95643" lon="-2.04276">
        <ele>1</ele>
        <time>2020-06-04T14:20:56Z</time>
      </trkpt>
      <trkpt lat="46.95647" lon="-2.04273">
        <ele>1</ele>
        <time>2020-06-04T14:20:57Z</time>
      </trkpt>
      <trkpt lat="46.95651" lon="-2.0427">
        <ele>1</ele>
        <time>2020-06-04T14:20:58Z</time>
      </trkpt>
      <trkpt lat="46.95656" lon="-2.04267">
        <ele>1.1</ele>
        <time>2020-06-04T14:20:59Z</time>
      </trkpt>
      <trkpt lat="46.9566" lon="-2.04264">
        <ele>1.1</ele>
        <time>2020-06-04T14:21:00Z</time>
      </trkpt>
      <trkpt lat="46.95665" lon="-2.04262">
        <ele>1.1</ele>
        <time>2020-06-04T14:21:01Z</time>
      </trkpt>
      <trkpt lat="46.95669" lon="-2.0426">
        <ele>1.1</ele>
        <time>2020-06-04T14:21:02Z</time>
      </trkpt>
      <trkpt lat="46.95674" lon="-2.04257">
        <ele>1.1</ele>
        <time>2020-06-04T14:21:03Z</time>
      </trkpt>
      <trkpt lat="46.95678" lon="-2.04254">
        <ele>1.1</ele>
        <time>2020-06-04T14:21:04Z</time>
      </trkpt>
      <trkpt lat="46.95683" lon="-2.0425">
        <ele>1.1</ele>
        <time>2020-06-04T14:21:05Z</time>
      </trkpt>
      <trkpt lat="46.95688" lon="-2.04247">
        <ele>1.1</ele>
        <time>2020-06-04T14:21:06Z</time>
      </trkpt>
      <trkpt lat="46.95693" lon="-2.04245">
        <ele>1.1</ele>
        <time>2020-06-04T14:21:07Z</time>
      </trkpt>
      <trkpt lat="46.95698" lon="-2.04243">
        <ele>1.1</ele>
        <time>2020-06-04T14:21:08Z</time>
      </trkpt>
      <trkpt lat="46.95704" lon="-2.04243">
        <ele>1.1</ele>
        <time>2020-06-04T14:21:09Z</time>
      </trkpt>
      <trkpt lat="46.95708" lon="-2.04243">
        <ele>1.1</ele>
        <time>2020-06-04T14:21:10Z</time>
      </trkpt>
      <trkpt lat="46.95712" lon="-2.04243">
        <ele>1.1</ele>
        <time>2020-06-04T14:21:11Z</time>
      </trkpt>
      <trkpt lat="46.95717" lon="-2.04242">
        <ele>1.1</ele>
        <time>2020-06-04T14:21:12Z</time>
      </trkpt>
      <trkpt lat="46.95721" lon="-2.04242">
        <ele>1.1</ele>
        <time>2020-06-04T14:21:13Z</time>
      </trkpt>
      <trkpt lat="46.95725" lon="-2.04241">
        <ele>1.1</ele>
        <time>2020-06-04T14:21:14Z</time>
      </trkpt>
      <trkpt lat="46.95729" lon="-2.04241">
        <ele>1.1</ele>
        <time>2020-06-04T14:21:15Z</time>
      </trkpt>
      <trkpt lat="46.95733" lon="-2.04242">
        <ele>1.1</ele>
        <time>2020-06-04T14:21:16Z</time>
      </trkpt>
      <trkpt lat="46.95737" lon="-2.04242">
        <ele>1.2</ele>
        <time>2020-06-04T14:21:17Z</time>
      </trkpt>
      <trkpt lat="46.95742" lon="-2.04243">
        <ele>1.2</ele>
        <time>2020-06-04T14:21:18Z</time>
      </trkpt>
      <trkpt lat="46.95747" lon="-2.04243">
        <ele>1.2</ele>
        <time>2020-06-04T14:21:19Z</time>
      </trkpt>
      <trkpt lat="46.95752" lon="-2.04244">
        <ele>1.2</ele>
        <time>2020-06-04T14:21:20Z</time>
      </trkpt>
      <trkpt lat="46.95757" lon="-2.04245">
        <ele>1.2</ele>
        <time>2020-06-04T14:21:21Z</time>
      </trkpt>
      <trkpt lat="46.95762" lon="-2.04245">
        <ele>1.2</ele>
        <time>2020-06-04T14:21:22Z</time>
      </trkpt>
      <trkpt lat="46.95766" lon="-2.04246">
        <ele>1.2</ele>
        <time>2020-06-04T14:21:23Z</time>
      </trkpt>
      <trkpt lat="46.9577" lon="-2.04247">
        <ele>1.2</ele>
        <time>2020-06-04T14:21:24Z</time>
      </trkpt>
      <trkpt lat="46.95775" lon="-2.04248">
        <ele>1.2</ele>
        <time>2020-06-04T14:21:25Z</time>
      </trkpt>
      <trkpt lat="46.95778" lon="-2.04249">
        <ele>1.2</ele>
        <time>2020-06-04T14:21:26Z</time>
      </trkpt>
      <trkpt lat="46.95782" lon="-2.0425">
        <ele>1.2</ele>
        <time>2020-06-04T14:21:27Z</time>
      </trkpt>
      <trkpt lat="46.95786" lon="-2.04251">
        <ele>1.2</ele>
        <time>2020-06-04T14:21:28Z</time>
      </trkpt>
      <trkpt lat="46.9579" lon="-2.04253">
        <ele>1.2</ele>
        <time>2020-06-04T14:21:29Z</time>
      </trkpt>
      <trkpt lat="46.95795" lon="-2.04253">
        <ele>1.2</ele>
        <time>2020-06-04T14:21:30Z</time>
      </trkpt>
      <trkpt lat="46.95799" lon="-2.04254">
        <ele>1.2</ele>
        <time>2020-06-04T14:21:31Z</time>
      </trkpt>
      <trkpt lat="46.95804" lon="-2.04254">
        <ele>1.2</ele>
        <time>2020-06-04T14:21:32Z</time>
      </trkpt>
      <trkpt lat="46.95809" lon="-2.04255">
        <ele>1.2</ele>
        <time>2020-06-04T14:21:33Z</time>
      </trkpt>
      <trkpt lat="46.95814" lon="-2.04255">
        <ele>1.1</ele>
        <time>2020-06-04T14:21:34Z</time>
      </trkpt>
      <trkpt lat="46.9582" lon="-2.04256">
        <ele>1.1</ele>
        <time>2020-06-04T14:21:35Z</time>
      </trkpt>
      <trkpt lat="46.95826" lon="-2.04256">
        <ele>1.1</ele>
        <time>2020-06-04T14:21:36Z</time>
      </trkpt>
      <trkpt lat="46.95831" lon="-2.04258">
        <ele>1.1</ele>
        <time>2020-06-04T14:21:37Z</time>
      </trkpt>
      <trkpt lat="46.95837" lon="-2.04258">
        <ele>1</ele>
        <time>2020-06-04T14:21:38Z</time>
      </trkpt>
      <trkpt lat="46.95842" lon="-2.04258">
        <ele>1</ele>
        <time>2020-06-04T14:21:39Z</time>
      </trkpt>
      <trkpt lat="46.95847" lon="-2.04258">
        <ele>1</ele>
        <time>2020-06-04T14:21:40Z</time>
      </trkpt>
      <trkpt lat="46.95852" lon="-2.04259">
        <ele>1</ele>
        <time>2020-06-04T14:21:41Z</time>
      </trkpt>
      <trkpt lat="46.95857" lon="-2.0426">
        <ele>1</ele>
        <time>2020-06-04T14:21:42Z</time>
      </trkpt>
      <trkpt lat="46.95862" lon="-2.04261">
        <ele>1</ele>
        <time>2020-06-04T14:21:43Z</time>
      </trkpt>
      <trkpt lat="46.95867" lon="-2.04261">
        <ele>1</ele>
        <time>2020-06-04T14:21:44Z</time>
      </trkpt>
      <trkpt lat="46.95873" lon="-2.04263">
        <ele>1</ele>
        <time>2020-06-04T14:21:45Z</time>
      </trkpt>
      <trkpt lat="46.95878" lon="-2.04264">
        <ele>1</ele>
        <time>2020-06-04T14:21:46Z</time>
      </trkpt>
      <trkpt lat="46.95883" lon="-2.04265">
        <ele>1</ele>
        <time>2020-06-04T14:21:47Z</time>
      </trkpt>
      <trkpt lat="46.95887" lon="-2.04267">
        <ele>1</ele>
        <time>2020-06-04T14:21:48Z</time>
      </trkpt>
      <trkpt lat="46.95891" lon="-2.04267">
        <ele>1</ele>
        <time>2020-06-04T14:21:49Z</time>
      </trkpt>
      <trkpt lat="46.95895" lon="-2.04267">
        <ele>1</ele>
        <time>2020-06-04T14:21:50Z</time>
      </trkpt>
      <trkpt lat="46.95899" lon="-2.04268">
        <ele>1</ele>
        <time>2020-06-04T14:21:51Z</time>
      </trkpt>
      <trkpt lat="46.95903" lon="-2.04268">
        <ele>1</ele>
        <time>2020-06-04T14:21:52Z</time>
      </trkpt>
      <trkpt lat="46.95906" lon="-2.04269">
        <ele>1</ele>
        <time>2020-06-04T14:21:53Z</time>
      </trkpt>
      <trkpt lat="46.95908" lon="-2.0427">
        <ele>1</ele>
        <time>2020-06-04T14:21:54Z</time>
      </trkpt>
      <trkpt lat="46.95912" lon="-2.04271">
        <ele>1.1</ele>
        <time>2020-06-04T14:21:55Z</time>
      </trkpt>
      <trkpt lat="46.95912" lon="-2.04271">
        <ele>1.1</ele>
        <time>2020-06-04T14:21:56Z</time>
      </trkpt>
      <trkpt lat="46.95912" lon="-2.04272">
        <ele>1.1</ele>
        <time>2020-06-04T14:21:57Z</time>
      </trkpt>
      <trkpt lat="46.95911" lon="-2.04272">
        <ele>1.1</ele>
        <time>2020-06-04T14:21:58Z</time>
      </trkpt>
      <trkpt lat="46.95911" lon="-2.04272">
        <ele>1.1</ele>
        <time>2020-06-04T14:21:59Z</time>
      </trkpt>
      <trkpt lat="46.9591" lon="-2.04272">
        <ele>1.1</ele>
        <time>2020-06-04T14:22:00Z</time>
      </trkpt>
      <trkpt lat="46.95911" lon="-2.04272">
        <ele>1.1</ele>
        <time>2020-06-04T14:22:01Z</time>
      </trkpt>
      <trkpt lat="46.95912" lon="-2.04273">
        <ele>1.1</ele>
        <time>2020-06-04T14:22:02Z</time>
      </trkpt>
      <trkpt lat="46.95913" lon="-2.04273">
        <ele>1.1</ele>
        <time>2020-06-04T14:22:03Z</time>
      </trkpt>
      <trkpt lat="46.95914" lon="-2.04273">
        <ele>1.1</ele>
        <time>2020-06-04T14:22:04Z</time>
      </trkpt>
      <trkpt lat="46.95915" lon="-2.04273">
        <ele>1.1</ele>
        <time>2020-06-04T14:22:05Z</time>
      </trkpt>
      <trkpt lat="46.95916" lon="-2.04273">
        <ele>1.1</ele>
        <time>2020-06-04T14:22:06Z</time>
      </trkpt>
      <trkpt lat="46.95917" lon="-2.04273">
        <ele>1.1</ele>
        <time>2020-06-04T14:22:07Z</time>
      </trkpt>
      <trkpt lat="46.95918" lon="-2.04273">
        <ele>1.1</ele>
        <time>2020-06-04T14:22:22Z</time>
      </trkpt>
      <trkpt lat="46.95919" lon="-2.04274">
        <ele>1.1</ele>
        <time>2020-06-04T14:22:23Z</time>
      </trkpt>
      <trkpt lat="46.95923" lon="-2.04273">
        <ele>1.1</ele>
        <time>2020-06-04T14:22:24Z</time>
      </trkpt>
      <trkpt lat="46.95927" lon="-2.04274">
        <ele>1.1</ele>
        <time>2020-06-04T14:22:25Z</time>
      </trkpt>
      <trkpt lat="46.95931" lon="-2.04275">
        <ele>1.1</ele>
        <time>2020-06-04T14:22:26Z</time>
      </trkpt>
      <trkpt lat="46.95935" lon="-2.04276">
        <ele>1.1</ele>
        <time>2020-06-04T14:22:27Z</time>
      </trkpt>
      <trkpt lat="46.95939" lon="-2.04277">
        <ele>1.1</ele>
        <time>2020-06-04T14:22:28Z</time>
      </trkpt>
      <trkpt lat="46.95944" lon="-2.04278">
        <ele>1.1</ele>
        <time>2020-06-04T14:22:29Z</time>
      </trkpt>
      <trkpt lat="46.95949" lon="-2.04279">
        <ele>1.1</ele>
        <time>2020-06-04T14:22:30Z</time>
      </trkpt>
      <trkpt lat="46.95954" lon="-2.0428">
        <ele>1.1</ele>
        <time>2020-06-04T14:22:31Z</time>
      </trkpt>
      <trkpt lat="46.95958" lon="-2.04281">
        <ele>1.1</ele>
        <time>2020-06-04T14:22:32Z</time>
      </trkpt>
      <trkpt lat="46.95964" lon="-2.04281">
        <ele>1.1</ele>
        <time>2020-06-04T14:22:33Z</time>
      </trkpt>
      <trkpt lat="46.95968" lon="-2.04282">
        <ele>1.1</ele>
        <time>2020-06-04T14:22:34Z</time>
      </trkpt>
      <trkpt lat="46.95973" lon="-2.04283">
        <ele>1.1</ele>
        <time>2020-06-04T14:22:35Z</time>
      </trkpt>
      <trkpt lat="46.95978" lon="-2.04284">
        <ele>1.1</ele>
        <time>2020-06-04T14:22:36Z</time>
      </trkpt>
      <trkpt lat="46.95983" lon="-2.04285">
        <ele>1.2</ele>
        <time>2020-06-04T14:22:37Z</time>
      </trkpt>
      <trkpt lat="46.95988" lon="-2.04286">
        <ele>1.2</ele>
        <time>2020-06-04T14:22:38Z</time>
      </trkpt>
      <trkpt lat="46.95992" lon="-2.04287">
        <ele>1.2</ele>
        <time>2020-06-04T14:22:39Z</time>
      </trkpt>
      <trkpt lat="46.95997" lon="-2.04287">
        <ele>1.2</ele>
        <time>2020-06-04T14:22:40Z</time>
      </trkpt>
      <trkpt lat="46.96001" lon="-2.04287">
        <ele>1.2</ele>
        <time>2020-06-04T14:22:41Z</time>
      </trkpt>
      <trkpt lat="46.96006" lon="-2.04288">
        <ele>1.2</ele>
        <time>2020-06-04T14:22:42Z</time>
      </trkpt>
      <trkpt lat="46.9601" lon="-2.04288">
        <ele>1.2</ele>
        <time>2020-06-04T14:22:43Z</time>
      </trkpt>
      <trkpt lat="46.96015" lon="-2.04289">
        <ele>1.2</ele>
        <time>2020-06-04T14:22:44Z</time>
      </trkpt>
      <trkpt lat="46.96019" lon="-2.04289">
        <ele>1.2</ele>
        <time>2020-06-04T14:22:45Z</time>
      </trkpt>
      <trkpt lat="46.96023" lon="-2.0429">
        <ele>1.2</ele>
        <time>2020-06-04T14:22:46Z</time>
      </trkpt>
      <trkpt lat="46.96027" lon="-2.04291">
        <ele>1.2</ele>
        <time>2020-06-04T14:22:47Z</time>
      </trkpt>
      <trkpt lat="46.96031" lon="-2.04291">
        <ele>1.2</ele>
        <time>2020-06-04T14:22:48Z</time>
      </trkpt>
      <trkpt lat="46.96035" lon="-2.04292">
        <ele>1.2</ele>
        <time>2020-06-04T14:22:49Z</time>
      </trkpt>
      <trkpt lat="46.96038" lon="-2.04293">
        <ele>1.2</ele>
        <time>2020-06-04T14:22:50Z</time>
      </trkpt>
      <trkpt lat="46.96043" lon="-2.04292">
        <ele>1.2</ele>
        <time>2020-06-04T14:22:51Z</time>
      </trkpt>
      <trkpt lat="46.96047" lon="-2.04294">
        <ele>1.1</ele>
        <time>2020-06-04T14:22:52Z</time>
      </trkpt>
      <trkpt lat="46.96052" lon="-2.04295">
        <ele>1.1</ele>
        <time>2020-06-04T14:22:53Z</time>
      </trkpt>
      <trkpt lat="46.96056" lon="-2.04296">
        <ele>1.1</ele>
        <time>2020-06-04T14:22:54Z</time>
      </trkpt>
      <trkpt lat="46.96061" lon="-2.04297">
        <ele>1.1</ele>
        <time>2020-06-04T14:22:55Z</time>
      </trkpt>
      <trkpt lat="46.96066" lon="-2.04298">
        <ele>1.1</ele>
        <time>2020-06-04T14:22:56Z</time>
      </trkpt>
      <trkpt lat="46.96071" lon="-2.04298">
        <ele>1.1</ele>
        <time>2020-06-04T14:22:57Z</time>
      </trkpt>
      <trkpt lat="46.96076" lon="-2.043">
        <ele>1</ele>
        <time>2020-06-04T14:22:58Z</time>
      </trkpt>
      <trkpt lat="46.9608" lon="-2.04301">
        <ele>1</ele>
        <time>2020-06-04T14:22:59Z</time>
      </trkpt>
      <trkpt lat="46.96085" lon="-2.04301">
        <ele>1</ele>
        <time>2020-06-04T14:23:00Z</time>
      </trkpt>
      <trkpt lat="46.9609" lon="-2.04302">
        <ele>1</ele>
        <time>2020-06-04T14:23:01Z</time>
      </trkpt>
      <trkpt lat="46.96094" lon="-2.04303">
        <ele>1</ele>
        <time>2020-06-04T14:23:02Z</time>
      </trkpt>
      <trkpt lat="46.96098" lon="-2.04303">
        <ele>1</ele>
        <time>2020-06-04T14:23:03Z</time>
      </trkpt>
      <trkpt lat="46.96103" lon="-2.04304">
        <ele>1</ele>
        <time>2020-06-04T14:23:04Z</time>
      </trkpt>
      <trkpt lat="46.96108" lon="-2.04304">
        <ele>1</ele>
        <time>2020-06-04T14:23:05Z</time>
      </trkpt>
      <trkpt lat="46.96113" lon="-2.04306">
        <ele>1</ele>
        <time>2020-06-04T14:23:06Z</time>
      </trkpt>
      <trkpt lat="46.96119" lon="-2.04307">
        <ele>1</ele>
        <time>2020-06-04T14:23:07Z</time>
      </trkpt>
      <trkpt lat="46.96124" lon="-2.04308">
        <ele>0.9</ele>
        <time>2020-06-04T14:23:08Z</time>
      </trkpt>
      <trkpt lat="46.96129" lon="-2.0431">
        <ele>0.9</ele>
        <time>2020-06-04T14:23:09Z</time>
      </trkpt>
      <trkpt lat="46.96134" lon="-2.04312">
        <ele>0.9</ele>
        <time>2020-06-04T14:23:10Z</time>
      </trkpt>
      <trkpt lat="46.9614" lon="-2.04315">
        <ele>0.9</ele>
        <time>2020-06-04T14:23:11Z</time>
      </trkpt>
      <trkpt lat="46.96144" lon="-2.04317">
        <ele>0.9</ele>
        <time>2020-06-04T14:23:12Z</time>
      </trkpt>
      <trkpt lat="46.96148" lon="-2.04318">
        <ele>0.9</ele>
        <time>2020-06-04T14:23:13Z</time>
      </trkpt>
      <trkpt lat="46.96153" lon="-2.04317">
        <ele>0.9</ele>
        <time>2020-06-04T14:23:14Z</time>
      </trkpt>
      <trkpt lat="46.96157" lon="-2.04316">
        <ele>0.9</ele>
        <time>2020-06-04T14:23:15Z</time>
      </trkpt>
      <trkpt lat="46.96162" lon="-2.04316">
        <ele>0.9</ele>
        <time>2020-06-04T14:23:16Z</time>
      </trkpt>
      <trkpt lat="46.96167" lon="-2.04317">
        <ele>0.9</ele>
        <time>2020-06-04T14:23:17Z</time>
      </trkpt>
      <trkpt lat="46.96172" lon="-2.04317">
        <ele>0.9</ele>
        <time>2020-06-04T14:23:18Z</time>
      </trkpt>
      <trkpt lat="46.96177" lon="-2.04317">
        <ele>0.9</ele>
        <time>2020-06-04T14:23:19Z</time>
      </trkpt>
      <trkpt lat="46.96182" lon="-2.04319">
        <ele>0.9</ele>
        <time>2020-06-04T14:23:20Z</time>
      </trkpt>
      <trkpt lat="46.96186" lon="-2.0432">
        <ele>0.9</ele>
        <time>2020-06-04T14:23:21Z</time>
      </trkpt>
      <trkpt lat="46.96191" lon="-2.04321">
        <ele>0.9</ele>
        <time>2020-06-04T14:23:22Z</time>
      </trkpt>
      <trkpt lat="46.96195" lon="-2.04321">
        <ele>0.9</ele>
        <time>2020-06-04T14:23:23Z</time>
      </trkpt>
      <trkpt lat="46.96198" lon="-2.04323">
        <ele>0.9</ele>
        <time>2020-06-04T14:23:24Z</time>
      </trkpt>
      <trkpt lat="46.96202" lon="-2.04324">
        <ele>0.9</ele>
        <time>2020-06-04T14:23:25Z</time>
      </trkpt>
      <trkpt lat="46.96206" lon="-2.04324">
        <ele>0.9</ele>
        <time>2020-06-04T14:23:26Z</time>
      </trkpt>
      <trkpt lat="46.9621" lon="-2.04324">
        <ele>0.9</ele>
        <time>2020-06-04T14:23:27Z</time>
      </trkpt>
      <trkpt lat="46.96214" lon="-2.04325">
        <ele>0.9</ele>
        <time>2020-06-04T14:23:28Z</time>
      </trkpt>
      <trkpt lat="46.96218" lon="-2.04325">
        <ele>0.9</ele>
        <time>2020-06-04T14:23:29Z</time>
      </trkpt>
      <trkpt lat="46.96223" lon="-2.04325">
        <ele>0.9</ele>
        <time>2020-06-04T14:23:30Z</time>
      </trkpt>
      <trkpt lat="46.96226" lon="-2.04326">
        <ele>1</ele>
        <time>2020-06-04T14:23:31Z</time>
      </trkpt>
      <trkpt lat="46.9623" lon="-2.04327">
        <ele>1</ele>
        <time>2020-06-04T14:23:32Z</time>
      </trkpt>
      <trkpt lat="46.96235" lon="-2.04328">
        <ele>1</ele>
        <time>2020-06-04T14:23:33Z</time>
      </trkpt>
      <trkpt lat="46.96239" lon="-2.04328">
        <ele>1.1</ele>
        <time>2020-06-04T14:23:34Z</time>
      </trkpt>
      <trkpt lat="46.96243" lon="-2.0433">
        <ele>1.1</ele>
        <time>2020-06-04T14:23:35Z</time>
      </trkpt>
      <trkpt lat="46.96247" lon="-2.04331">
        <ele>1.1</ele>
        <time>2020-06-04T14:23:36Z</time>
      </trkpt>
      <trkpt lat="46.96252" lon="-2.04331">
        <ele>1.2</ele>
        <time>2020-06-04T14:23:37Z</time>
      </trkpt>
      <trkpt lat="46.96256" lon="-2.04333">
        <ele>1.2</ele>
        <time>2020-06-04T14:23:38Z</time>
      </trkpt>
      <trkpt lat="46.96261" lon="-2.04334">
        <ele>1.2</ele>
        <time>2020-06-04T14:23:39Z</time>
      </trkpt>
      <trkpt lat="46.96265" lon="-2.04335">
        <ele>1.2</ele>
        <time>2020-06-04T14:23:40Z</time>
      </trkpt>
      <trkpt lat="46.9627" lon="-2.04336">
        <ele>1.3</ele>
        <time>2020-06-04T14:23:41Z</time>
      </trkpt>
      <trkpt lat="46.96274" lon="-2.04337">
        <ele>1.3</ele>
        <time>2020-06-04T14:23:42Z</time>
      </trkpt>
      <trkpt lat="46.9628" lon="-2.04338">
        <ele>1.3</ele>
        <time>2020-06-04T14:23:43Z</time>
      </trkpt>
      <trkpt lat="46.96284" lon="-2.04339">
        <ele>1.3</ele>
        <time>2020-06-04T14:23:44Z</time>
      </trkpt>
      <trkpt lat="46.9629" lon="-2.04339">
        <ele>1.2</ele>
        <time>2020-06-04T14:23:45Z</time>
      </trkpt>
      <trkpt lat="46.96296" lon="-2.04339">
        <ele>1.2</ele>
        <time>2020-06-04T14:23:46Z</time>
      </trkpt>
      <trkpt lat="46.96302" lon="-2.0434">
        <ele>1.2</ele>
        <time>2020-06-04T14:23:47Z</time>
      </trkpt>
      <trkpt lat="46.96306" lon="-2.04342">
        <ele>1.2</ele>
        <time>2020-06-04T14:23:48Z</time>
      </trkpt>
      <trkpt lat="46.96311" lon="-2.04343">
        <ele>1.2</ele>
        <time>2020-06-04T14:23:49Z</time>
      </trkpt>
      <trkpt lat="46.96316" lon="-2.04345">
        <ele>1.1</ele>
        <time>2020-06-04T14:23:50Z</time>
      </trkpt>
      <trkpt lat="46.9632" lon="-2.04346">
        <ele>1.1</ele>
        <time>2020-06-04T14:23:51Z</time>
      </trkpt>
      <trkpt lat="46.96325" lon="-2.04346">
        <ele>1.1</ele>
        <time>2020-06-04T14:23:52Z</time>
      </trkpt>
      <trkpt lat="46.96329" lon="-2.04347">
        <ele>1</ele>
        <time>2020-06-04T14:23:53Z</time>
      </trkpt>
      <trkpt lat="46.96334" lon="-2.04348">
        <ele>1</ele>
        <time>2020-06-04T14:23:54Z</time>
      </trkpt>
      <trkpt lat="46.9634" lon="-2.04347">
        <ele>1</ele>
        <time>2020-06-04T14:23:55Z</time>
      </trkpt>
      <trkpt lat="46.96345" lon="-2.04349">
        <ele>1</ele>
        <time>2020-06-04T14:23:56Z</time>
      </trkpt>
      <trkpt lat="46.9635" lon="-2.04349">
        <ele>1</ele>
        <time>2020-06-04T14:23:57Z</time>
      </trkpt>
      <trkpt lat="46.96356" lon="-2.04349">
        <ele>1</ele>
        <time>2020-06-04T14:23:58Z</time>
      </trkpt>
      <trkpt lat="46.96361" lon="-2.04349">
        <ele>0.9</ele>
        <time>2020-06-04T14:23:59Z</time>
      </trkpt>
      <trkpt lat="46.96367" lon="-2.04349">
        <ele>0.9</ele>
        <time>2020-06-04T14:24:00Z</time>
      </trkpt>
      <trkpt lat="46.96373" lon="-2.0435">
        <ele>0.9</ele>
        <time>2020-06-04T14:24:01Z</time>
      </trkpt>
      <trkpt lat="46.96378" lon="-2.04352">
        <ele>0.9</ele>
        <time>2020-06-04T14:24:02Z</time>
      </trkpt>
      <trkpt lat="46.96383" lon="-2.04354">
        <ele>0.9</ele>
        <time>2020-06-04T14:24:03Z</time>
      </trkpt>
      <trkpt lat="46.96389" lon="-2.04355">
        <ele>0.9</ele>
        <time>2020-06-04T14:24:04Z</time>
      </trkpt>
      <trkpt lat="46.96395" lon="-2.04356">
        <ele>0.9</ele>
        <time>2020-06-04T14:24:05Z</time>
      </trkpt>
      <trkpt lat="46.964" lon="-2.04358">
        <ele>0.9</ele>
        <time>2020-06-04T14:24:06Z</time>
      </trkpt>
      <trkpt lat="46.96405" lon="-2.04359">
        <ele>0.9</ele>
        <time>2020-06-04T14:24:07Z</time>
      </trkpt>
      <trkpt lat="46.96409" lon="-2.04361">
        <ele>0.9</ele>
        <time>2020-06-04T14:24:08Z</time>
      </trkpt>
      <trkpt lat="46.96414" lon="-2.04362">
        <ele>0.8</ele>
        <time>2020-06-04T14:24:09Z</time>
      </trkpt>
      <trkpt lat="46.96418" lon="-2.04364">
        <ele>0.8</ele>
        <time>2020-06-04T14:24:10Z</time>
      </trkpt>
      <trkpt lat="46.96423" lon="-2.04364">
        <ele>0.8</ele>
        <time>2020-06-04T14:24:11Z</time>
      </trkpt>
      <trkpt lat="46.96428" lon="-2.04363">
        <ele>0.8</ele>
        <time>2020-06-04T14:24:12Z</time>
      </trkpt>
      <trkpt lat="46.96434" lon="-2.04362">
        <ele>0.8</ele>
        <time>2020-06-04T14:24:13Z</time>
      </trkpt>
      <trkpt lat="46.9644" lon="-2.04363">
        <ele>0.7</ele>
        <time>2020-06-04T14:24:14Z</time>
      </trkpt>
      <trkpt lat="46.96445" lon="-2.04364">
        <ele>0.7</ele>
        <time>2020-06-04T14:24:15Z</time>
      </trkpt>
      <trkpt lat="46.9645" lon="-2.04365">
        <ele>0.8</ele>
        <time>2020-06-04T14:24:16Z</time>
      </trkpt>
      <trkpt lat="46.96456" lon="-2.04367">
        <ele>0.8</ele>
        <time>2020-06-04T14:24:17Z</time>
      </trkpt>
      <trkpt lat="46.96461" lon="-2.04369">
        <ele>0.8</ele>
        <time>2020-06-04T14:24:18Z</time>
      </trkpt>
      <trkpt lat="46.96465" lon="-2.04371">
        <ele>0.8</ele>
        <time>2020-06-04T14:24:19Z</time>
      </trkpt>
      <trkpt lat="46.96471" lon="-2.04372">
        <ele>0.8</ele>
        <time>2020-06-04T14:24:20Z</time>
      </trkpt>
      <trkpt lat="46.96476" lon="-2.04373">
        <ele>0.8</ele>
        <time>2020-06-04T14:24:21Z</time>
      </trkpt>
      <trkpt lat="46.96481" lon="-2.04374">
        <ele>0.8</ele>
        <time>2020-06-04T14:24:22Z</time>
      </trkpt>
      <trkpt lat="46.96486" lon="-2.04375">
        <ele>0.8</ele>
        <time>2020-06-04T14:24:23Z</time>
      </trkpt>
      <trkpt lat="46.96492" lon="-2.04376">
        <ele>0.8</ele>
        <time>2020-06-04T14:24:24Z</time>
      </trkpt>
      <trkpt lat="46.96497" lon="-2.04377">
        <ele>0.8</ele>
        <time>2020-06-04T14:24:25Z</time>
      </trkpt>
      <trkpt lat="46.96502" lon="-2.04377">
        <ele>0.8</ele>
        <time>2020-06-04T14:24:26Z</time>
      </trkpt>
      <trkpt lat="46.96507" lon="-2.04377">
        <ele>0.8</ele>
        <time>2020-06-04T14:24:27Z</time>
      </trkpt>
      <trkpt lat="46.96512" lon="-2.04378">
        <ele>0.8</ele>
        <time>2020-06-04T14:24:28Z</time>
      </trkpt>
      <trkpt lat="46.96517" lon="-2.04379">
        <ele>0.8</ele>
        <time>2020-06-04T14:24:29Z</time>
      </trkpt>
      <trkpt lat="46.96523" lon="-2.04379">
        <ele>0.9</ele>
        <time>2020-06-04T14:24:30Z</time>
      </trkpt>
      <trkpt lat="46.96529" lon="-2.0438">
        <ele>0.9</ele>
        <time>2020-06-04T14:24:31Z</time>
      </trkpt>
      <trkpt lat="46.96535" lon="-2.04382">
        <ele>0.9</ele>
        <time>2020-06-04T14:24:32Z</time>
      </trkpt>
      <trkpt lat="46.9654" lon="-2.04383">
        <ele>0.9</ele>
        <time>2020-06-04T14:24:33Z</time>
      </trkpt>
      <trkpt lat="46.96545" lon="-2.04383">
        <ele>0.9</ele>
        <time>2020-06-04T14:24:34Z</time>
      </trkpt>
      <trkpt lat="46.96549" lon="-2.04384">
        <ele>0.9</ele>
        <time>2020-06-04T14:24:35Z</time>
      </trkpt>
      <trkpt lat="46.96554" lon="-2.04384">
        <ele>0.9</ele>
        <time>2020-06-04T14:24:36Z</time>
      </trkpt>
      <trkpt lat="46.96559" lon="-2.04385">
        <ele>0.9</ele>
        <time>2020-06-04T14:24:37Z</time>
      </trkpt>
      <trkpt lat="46.96564" lon="-2.04385">
        <ele>0.9</ele>
        <time>2020-06-04T14:24:38Z</time>
      </trkpt>
      <trkpt lat="46.96569" lon="-2.04387">
        <ele>0.9</ele>
        <time>2020-06-04T14:24:39Z</time>
      </trkpt>
      <trkpt lat="46.96574" lon="-2.04388">
        <ele>0.8</ele>
        <time>2020-06-04T14:24:40Z</time>
      </trkpt>
      <trkpt lat="46.96579" lon="-2.04389">
        <ele>0.8</ele>
        <time>2020-06-04T14:24:41Z</time>
      </trkpt>
      <trkpt lat="46.96584" lon="-2.0439">
        <ele>0.8</ele>
        <time>2020-06-04T14:24:42Z</time>
      </trkpt>
      <trkpt lat="46.96589" lon="-2.04391">
        <ele>0.8</ele>
        <time>2020-06-04T14:24:43Z</time>
      </trkpt>
      <trkpt lat="46.96594" lon="-2.04392">
        <ele>0.8</ele>
        <time>2020-06-04T14:24:44Z</time>
      </trkpt>
      <trkpt lat="46.96599" lon="-2.04393">
        <ele>0.8</ele>
        <time>2020-06-04T14:24:45Z</time>
      </trkpt>
      <trkpt lat="46.96603" lon="-2.04394">
        <ele>0.8</ele>
        <time>2020-06-04T14:24:46Z</time>
      </trkpt>
      <trkpt lat="46.96608" lon="-2.04395">
        <ele>0.7</ele>
        <time>2020-06-04T14:24:47Z</time>
      </trkpt>
      <trkpt lat="46.96613" lon="-2.04396">
        <ele>0.7</ele>
        <time>2020-06-04T14:24:48Z</time>
      </trkpt>
      <trkpt lat="46.96618" lon="-2.04397">
        <ele>0.7</ele>
        <time>2020-06-04T14:24:49Z</time>
      </trkpt>
      <trkpt lat="46.96623" lon="-2.04397">
        <ele>0.7</ele>
        <time>2020-06-04T14:24:50Z</time>
      </trkpt>
      <trkpt lat="46.96628" lon="-2.04398">
        <ele>0.8</ele>
        <time>2020-06-04T14:24:51Z</time>
      </trkpt>
      <trkpt lat="46.96634" lon="-2.04399">
        <ele>0.8</ele>
        <time>2020-06-04T14:24:52Z</time>
      </trkpt>
      <trkpt lat="46.96639" lon="-2.044">
        <ele>0.8</ele>
        <time>2020-06-04T14:24:53Z</time>
      </trkpt>
      <trkpt lat="46.96645" lon="-2.04401">
        <ele>0.8</ele>
        <time>2020-06-04T14:24:54Z</time>
      </trkpt>
      <trkpt lat="46.9665" lon="-2.04402">
        <ele>0.8</ele>
        <time>2020-06-04T14:24:55Z</time>
      </trkpt>
      <trkpt lat="46.96655" lon="-2.04402">
        <ele>0.9</ele>
        <time>2020-06-04T14:24:56Z</time>
      </trkpt>
      <trkpt lat="46.96661" lon="-2.04402">
        <ele>0.9</ele>
        <time>2020-06-04T14:24:57Z</time>
      </trkpt>
      <trkpt lat="46.96668" lon="-2.04399">
        <ele>0.9</ele>
        <time>2020-06-04T14:24:58Z</time>
      </trkpt>
      <trkpt lat="46.96674" lon="-2.04396">
        <ele>0.9</ele>
        <time>2020-06-04T14:24:59Z</time>
      </trkpt>
      <trkpt lat="46.9668" lon="-2.04393">
        <ele>0.8</ele>
        <time>2020-06-04T14:25:00Z</time>
      </trkpt>
      <trkpt lat="46.96686" lon="-2.0439">
        <ele>0.8</ele>
        <time>2020-06-04T14:25:01Z</time>
      </trkpt>
      <trkpt lat="46.96692" lon="-2.04387">
        <ele>0.8</ele>
        <time>2020-06-04T14:25:02Z</time>
      </trkpt>
      <trkpt lat="46.96697" lon="-2.04384">
        <ele>0.8</ele>
        <time>2020-06-04T14:25:03Z</time>
      </trkpt>
      <trkpt lat="46.96703" lon="-2.0438">
        <ele>0.8</ele>
        <time>2020-06-04T14:25:04Z</time>
      </trkpt>
      <trkpt lat="46.96707" lon="-2.04377">
        <ele>0.7</ele>
        <time>2020-06-04T14:25:05Z</time>
      </trkpt>
      <trkpt lat="46.96713" lon="-2.04375">
        <ele>0.7</ele>
        <time>2020-06-04T14:25:06Z</time>
      </trkpt>
      <trkpt lat="46.96718" lon="-2.04372">
        <ele>0.7</ele>
        <time>2020-06-04T14:25:07Z</time>
      </trkpt>
      <trkpt lat="46.96723" lon="-2.0437">
        <ele>0.7</ele>
        <time>2020-06-04T14:25:08Z</time>
      </trkpt>
      <trkpt lat="46.96728" lon="-2.04367">
        <ele>0.7</ele>
        <time>2020-06-04T14:25:09Z</time>
      </trkpt>
      <trkpt lat="46.96733" lon="-2.04364">
        <ele>0.7</ele>
        <time>2020-06-04T14:25:10Z</time>
      </trkpt>
      <trkpt lat="46.96738" lon="-2.04362">
        <ele>0.7</ele>
        <time>2020-06-04T14:25:11Z</time>
      </trkpt>
      <trkpt lat="46.96744" lon="-2.04359">
        <ele>0.6</ele>
        <time>2020-06-04T14:25:12Z</time>
      </trkpt>
      <trkpt lat="46.96749" lon="-2.04358">
        <ele>0.6</ele>
        <time>2020-06-04T14:25:13Z</time>
      </trkpt>
      <trkpt lat="46.96753" lon="-2.04356">
        <ele>0.5</ele>
        <time>2020-06-04T14:25:14Z</time>
      </trkpt>
      <trkpt lat="46.96758" lon="-2.04355">
        <ele>0.5</ele>
        <time>2020-06-04T14:25:15Z</time>
      </trkpt>
      <trkpt lat="46.96763" lon="-2.04355">
        <ele>0.5</ele>
        <time>2020-06-04T14:25:16Z</time>
      </trkpt>
      <trkpt lat="46.96768" lon="-2.04355">
        <ele>0.4</ele>
        <time>2020-06-04T14:25:17Z</time>
      </trkpt>
      <trkpt lat="46.96773" lon="-2.04354">
        <ele>0.4</ele>
        <time>2020-06-04T14:25:18Z</time>
      </trkpt>
      <trkpt lat="46.96778" lon="-2.04352">
        <ele>0.4</ele>
        <time>2020-06-04T14:25:19Z</time>
      </trkpt>
      <trkpt lat="46.96784" lon="-2.04349">
        <ele>0.4</ele>
        <time>2020-06-04T14:25:20Z</time>
      </trkpt>
      <trkpt lat="46.96788" lon="-2.04342">
        <ele>0.4</ele>
        <time>2020-06-04T14:25:21Z</time>
      </trkpt>
      <trkpt lat="46.9679" lon="-2.04333">
        <ele>0.4</ele>
        <time>2020-06-04T14:25:22Z</time>
      </trkpt>
      <trkpt lat="46.96791" lon="-2.04325">
        <ele>0.4</ele>
        <time>2020-06-04T14:25:23Z</time>
      </trkpt>
      <trkpt lat="46.96792" lon="-2.04316">
        <ele>0.5</ele>
        <time>2020-06-04T14:25:24Z</time>
      </trkpt>
      <trkpt lat="46.96793" lon="-2.04307">
        <ele>0.5</ele>
        <time>2020-06-04T14:25:25Z</time>
      </trkpt>
      <trkpt lat="46.96794" lon="-2.04298">
        <ele>0.6</ele>
        <time>2020-06-04T14:25:26Z</time>
      </trkpt>
      <trkpt lat="46.96796" lon="-2.04289">
        <ele>0.6</ele>
        <time>2020-06-04T14:25:27Z</time>
      </trkpt>
      <trkpt lat="46.96797" lon="-2.04281">
        <ele>0.7</ele>
        <time>2020-06-04T14:25:28Z</time>
      </trkpt>
      <trkpt lat="46.96798" lon="-2.04272">
        <ele>0.8</ele>
        <time>2020-06-04T14:25:29Z</time>
      </trkpt>
      <trkpt lat="46.96799" lon="-2.04263">
        <ele>0.9</ele>
        <time>2020-06-04T14:25:30Z</time>
      </trkpt>
      <trkpt lat="46.96799" lon="-2.04255">
        <ele>1</ele>
        <time>2020-06-04T14:25:31Z</time>
      </trkpt>
      <trkpt lat="46.968" lon="-2.04247">
        <ele>1.2</ele>
        <time>2020-06-04T14:25:32Z</time>
      </trkpt>
      <trkpt lat="46.968" lon="-2.04239">
        <ele>1.3</ele>
        <time>2020-06-04T14:25:33Z</time>
      </trkpt>
      <trkpt lat="46.968" lon="-2.04231">
        <ele>1.5</ele>
        <time>2020-06-04T14:25:34Z</time>
      </trkpt>
      <trkpt lat="46.96799" lon="-2.04222">
        <ele>1.6</ele>
        <time>2020-06-04T14:25:35Z</time>
      </trkpt>
      <trkpt lat="46.96801" lon="-2.04214">
        <ele>1.7</ele>
        <time>2020-06-04T14:25:36Z</time>
      </trkpt>
      <trkpt lat="46.96803" lon="-2.04207">
        <ele>1.8</ele>
        <time>2020-06-04T14:25:37Z</time>
      </trkpt>
      <trkpt lat="46.96808" lon="-2.04203">
        <ele>1.9</ele>
        <time>2020-06-04T14:25:38Z</time>
      </trkpt>
      <trkpt lat="46.96812" lon="-2.042">
        <ele>1.9</ele>
        <time>2020-06-04T14:25:39Z</time>
      </trkpt>
      <trkpt lat="46.96814" lon="-2.04194">
        <ele>2</ele>
        <time>2020-06-04T14:25:40Z</time>
      </trkpt>
      <trkpt lat="46.96815" lon="-2.04188">
        <ele>2</ele>
        <time>2020-06-04T14:25:41Z</time>
      </trkpt>
      <trkpt lat="46.96816" lon="-2.04181">
        <ele>2.1</ele>
        <time>2020-06-04T14:25:42Z</time>
      </trkpt>
      <trkpt lat="46.96817" lon="-2.04175">
        <ele>2.1</ele>
        <time>2020-06-04T14:25:43Z</time>
      </trkpt>
      <trkpt lat="46.96817" lon="-2.04168">
        <ele>2.1</ele>
        <time>2020-06-04T14:25:44Z</time>
      </trkpt>
      <trkpt lat="46.96818" lon="-2.04161">
        <ele>2.2</ele>
        <time>2020-06-04T14:25:45Z</time>
      </trkpt>
      <trkpt lat="46.96819" lon="-2.04153">
        <ele>2.2</ele>
        <time>2020-06-04T14:25:46Z</time>
      </trkpt>
      <trkpt lat="46.96819" lon="-2.04146">
        <ele>2.2</ele>
        <time>2020-06-04T14:25:47Z</time>
      </trkpt>
      <trkpt lat="46.9682" lon="-2.04139">
        <ele>2.2</ele>
        <time>2020-06-04T14:25:48Z</time>
      </trkpt>
      <trkpt lat="46.9682" lon="-2.04131">
        <ele>2.2</ele>
        <time>2020-06-04T14:25:49Z</time>
      </trkpt>
      <trkpt lat="46.96821" lon="-2.04124">
        <ele>2.2</ele>
        <time>2020-06-04T14:25:50Z</time>
      </trkpt>
      <trkpt lat="46.96822" lon="-2.04117">
        <ele>2.3</ele>
        <time>2020-06-04T14:25:51Z</time>
      </trkpt>
      <trkpt lat="46.96822" lon="-2.04109">
        <ele>2.3</ele>
        <time>2020-06-04T14:25:52Z</time>
      </trkpt>
      <trkpt lat="46.96823" lon="-2.04101">
        <ele>2.3</ele>
        <time>2020-06-04T14:25:53Z</time>
      </trkpt>
      <trkpt lat="46.96823" lon="-2.04092">
        <ele>2.3</ele>
        <time>2020-06-04T14:25:54Z</time>
      </trkpt>
      <trkpt lat="46.96824" lon="-2.04084">
        <ele>2.2</ele>
        <time>2020-06-04T14:25:55Z</time>
      </trkpt>
      <trkpt lat="46.96825" lon="-2.04076">
        <ele>2.2</ele>
        <time>2020-06-04T14:25:56Z</time>
      </trkpt>
      <trkpt lat="46.96825" lon="-2.04067">
        <ele>2.2</ele>
        <time>2020-06-04T14:25:57Z</time>
      </trkpt>
      <trkpt lat="46.96826" lon="-2.04059">
        <ele>2.2</ele>
        <time>2020-06-04T14:25:58Z</time>
      </trkpt>
      <trkpt lat="46.96826" lon="-2.04051">
        <ele>2.2</ele>
        <time>2020-06-04T14:25:59Z</time>
      </trkpt>
      <trkpt lat="46.96827" lon="-2.04043">
        <ele>2.1</ele>
        <time>2020-06-04T14:26:00Z</time>
      </trkpt>
      <trkpt lat="46.96828" lon="-2.04035">
        <ele>2.1</ele>
        <time>2020-06-04T14:26:01Z</time>
      </trkpt>
      <trkpt lat="46.96829" lon="-2.04027">
        <ele>2.1</ele>
        <time>2020-06-04T14:26:02Z</time>
      </trkpt>
      <trkpt lat="46.96829" lon="-2.04019">
        <ele>2</ele>
        <time>2020-06-04T14:26:03Z</time>
      </trkpt>
      <trkpt lat="46.96829" lon="-2.04011">
        <ele>2</ele>
        <time>2020-06-04T14:26:04Z</time>
      </trkpt>
      <trkpt lat="46.9683" lon="-2.04002">
        <ele>2</ele>
        <time>2020-06-04T14:26:05Z</time>
      </trkpt>
      <trkpt lat="46.96831" lon="-2.03994">
        <ele>1.9</ele>
        <time>2020-06-04T14:26:06Z</time>
      </trkpt>
      <trkpt lat="46.96831" lon="-2.03985">
        <ele>1.9</ele>
        <time>2020-06-04T14:26:07Z</time>
      </trkpt>
      <trkpt lat="46.96832" lon="-2.03977">
        <ele>1.9</ele>
        <time>2020-06-04T14:26:08Z</time>
      </trkpt>
      <trkpt lat="46.96833" lon="-2.03968">
        <ele>2</ele>
        <time>2020-06-04T14:26:09Z</time>
      </trkpt>
      <trkpt lat="46.96834" lon="-2.03959">
        <ele>2</ele>
        <time>2020-06-04T14:26:10Z</time>
      </trkpt>
      <trkpt lat="46.96835" lon="-2.0395">
        <ele>2.1</ele>
        <time>2020-06-04T14:26:11Z</time>
      </trkpt>
      <trkpt lat="46.96836" lon="-2.03943">
        <ele>2.2</ele>
        <time>2020-06-04T14:26:12Z</time>
      </trkpt>
      <trkpt lat="46.96837" lon="-2.03935">
        <ele>2.2</ele>
        <time>2020-06-04T14:26:13Z</time>
      </trkpt>
      <trkpt lat="46.96838" lon="-2.03927">
        <ele>2.4</ele>
        <time>2020-06-04T14:26:14Z</time>
      </trkpt>
      <trkpt lat="46.96839" lon="-2.03919">
        <ele>2.5</ele>
        <time>2020-06-04T14:26:15Z</time>
      </trkpt>
      <trkpt lat="46.9684" lon="-2.03911">
        <ele>2.6</ele>
        <time>2020-06-04T14:26:16Z</time>
      </trkpt>
      <trkpt lat="46.9684" lon="-2.03904">
        <ele>2.7</ele>
        <time>2020-06-04T14:26:17Z</time>
      </trkpt>
      <trkpt lat="46.96841" lon="-2.03896">
        <ele>2.7</ele>
        <time>2020-06-04T14:26:18Z</time>
      </trkpt>
      <trkpt lat="46.96842" lon="-2.03892">
        <ele>2.8</ele>
        <time>2020-06-04T14:26:19Z</time>
      </trkpt>
      <trkpt lat="46.96843" lon="-2.03888">
        <ele>2.8</ele>
        <time>2020-06-04T14:26:20Z</time>
      </trkpt>
      <trkpt lat="46.96846" lon="-2.03884">
        <ele>2.8</ele>
        <time>2020-06-04T14:26:21Z</time>
      </trkpt>
      <trkpt lat="46.96848" lon="-2.03881">
        <ele>2.8</ele>
        <time>2020-06-04T14:26:22Z</time>
      </trkpt>
      <trkpt lat="46.9685" lon="-2.03876">
        <ele>2.8</ele>
        <time>2020-06-04T14:26:23Z</time>
      </trkpt>
      <trkpt lat="46.96851" lon="-2.03869">
        <ele>2.8</ele>
        <time>2020-06-04T14:26:24Z</time>
      </trkpt>
      <trkpt lat="46.96852" lon="-2.03861">
        <ele>2.8</ele>
        <time>2020-06-04T14:26:25Z</time>
      </trkpt>
      <trkpt lat="46.96853" lon="-2.03853">
        <ele>2.8</ele>
        <time>2020-06-04T14:26:26Z</time>
      </trkpt>
      <trkpt lat="46.96854" lon="-2.03845">
        <ele>2.8</ele>
        <time>2020-06-04T14:26:27Z</time>
      </trkpt>
      <trkpt lat="46.96856" lon="-2.03837">
        <ele>2.7</ele>
        <time>2020-06-04T14:26:28Z</time>
      </trkpt>
      <trkpt lat="46.96857" lon="-2.0383">
        <ele>2.7</ele>
        <time>2020-06-04T14:26:29Z</time>
      </trkpt>
      <trkpt lat="46.96858" lon="-2.03822">
        <ele>2.7</ele>
        <time>2020-06-04T14:26:30Z</time>
      </trkpt>
      <trkpt lat="46.96859" lon="-2.03814">
        <ele>2.7</ele>
        <time>2020-06-04T14:26:31Z</time>
      </trkpt>
      <trkpt lat="46.9686" lon="-2.03806">
        <ele>2.7</ele>
        <time>2020-06-04T14:26:32Z</time>
      </trkpt>
      <trkpt lat="46.96861" lon="-2.03797">
        <ele>2.7</ele>
        <time>2020-06-04T14:26:33Z</time>
      </trkpt>
      <trkpt lat="46.96862" lon="-2.03789">
        <ele>2.7</ele>
        <time>2020-06-04T14:26:34Z</time>
      </trkpt>
      <trkpt lat="46.96863" lon="-2.0378">
        <ele>2.7</ele>
        <time>2020-06-04T14:26:35Z</time>
      </trkpt>
      <trkpt lat="46.96864" lon="-2.03771">
        <ele>2.7</ele>
        <time>2020-06-04T14:26:36Z</time>
      </trkpt>
      <trkpt lat="46.96865" lon="-2.03764">
        <ele>2.7</ele>
        <time>2020-06-04T14:26:37Z</time>
      </trkpt>
      <trkpt lat="46.96866" lon="-2.03757">
        <ele>2.7</ele>
        <time>2020-06-04T14:26:38Z</time>
      </trkpt>
      <trkpt lat="46.96867" lon="-2.03749">
        <ele>2.7</ele>
        <time>2020-06-04T14:26:39Z</time>
      </trkpt>
      <trkpt lat="46.96868" lon="-2.03742">
        <ele>2.6</ele>
        <time>2020-06-04T14:26:40Z</time>
      </trkpt>
      <trkpt lat="46.96869" lon="-2.03735">
        <ele>2.6</ele>
        <time>2020-06-04T14:26:41Z</time>
      </trkpt>
      <trkpt lat="46.96869" lon="-2.0373">
        <ele>2.6</ele>
        <time>2020-06-04T14:26:42Z</time>
      </trkpt>
      <trkpt lat="46.96871" lon="-2.03724">
        <ele>2.6</ele>
        <time>2020-06-04T14:26:43Z</time>
      </trkpt>
      <trkpt lat="46.96872" lon="-2.03717">
        <ele>2.6</ele>
        <time>2020-06-04T14:26:44Z</time>
      </trkpt>
      <trkpt lat="46.96873" lon="-2.03711">
        <ele>2.6</ele>
        <time>2020-06-04T14:26:45Z</time>
      </trkpt>
      <trkpt lat="46.96874" lon="-2.03704">
        <ele>2.6</ele>
        <time>2020-06-04T14:26:46Z</time>
      </trkpt>
      <trkpt lat="46.96875" lon="-2.03699">
        <ele>2.6</ele>
        <time>2020-06-04T14:26:47Z</time>
      </trkpt>
      <trkpt lat="46.96875" lon="-2.03694">
        <ele>2.6</ele>
        <time>2020-06-04T14:26:48Z</time>
      </trkpt>
      <trkpt lat="46.96876" lon="-2.03689">
        <ele>2.6</ele>
        <time>2020-06-04T14:26:49Z</time>
      </trkpt>
      <trkpt lat="46.96876" lon="-2.03683">
        <ele>2.6</ele>
        <time>2020-06-04T14:26:50Z</time>
      </trkpt>
      <trkpt lat="46.96877" lon="-2.03677">
        <ele>2.6</ele>
        <time>2020-06-04T14:26:51Z</time>
      </trkpt>
      <trkpt lat="46.96878" lon="-2.03671">
        <ele>2.6</ele>
        <time>2020-06-04T14:26:52Z</time>
      </trkpt>
      <trkpt lat="46.96879" lon="-2.03665">
        <ele>2.6</ele>
        <time>2020-06-04T14:26:53Z</time>
      </trkpt>
      <trkpt lat="46.96878" lon="-2.03658">
        <ele>2.6</ele>
        <time>2020-06-04T14:26:54Z</time>
      </trkpt>
      <trkpt lat="46.96879" lon="-2.0365">
        <ele>2.6</ele>
        <time>2020-06-04T14:26:55Z</time>
      </trkpt>
      <trkpt lat="46.96879" lon="-2.03643">
        <ele>2.5</ele>
        <time>2020-06-04T14:26:56Z</time>
      </trkpt>
      <trkpt lat="46.96879" lon="-2.03635">
        <ele>2.5</ele>
        <time>2020-06-04T14:26:57Z</time>
      </trkpt>
      <trkpt lat="46.96879" lon="-2.03626">
        <ele>2.5</ele>
        <time>2020-06-04T14:26:58Z</time>
      </trkpt>
      <trkpt lat="46.96878" lon="-2.03618">
        <ele>2.5</ele>
        <time>2020-06-04T14:26:59Z</time>
      </trkpt>
      <trkpt lat="46.96878" lon="-2.03609">
        <ele>2.5</ele>
        <time>2020-06-04T14:27:00Z</time>
      </trkpt>
      <trkpt lat="46.96879" lon="-2.036">
        <ele>2.5</ele>
        <time>2020-06-04T14:27:01Z</time>
      </trkpt>
      <trkpt lat="46.9688" lon="-2.0359">
        <ele>2.5</ele>
        <time>2020-06-04T14:27:02Z</time>
      </trkpt>
      <trkpt lat="46.9688" lon="-2.03582">
        <ele>2.5</ele>
        <time>2020-06-04T14:27:03Z</time>
      </trkpt>
      <trkpt lat="46.9688" lon="-2.03572">
        <ele>2.4</ele>
        <time>2020-06-04T14:27:04Z</time>
      </trkpt>
      <trkpt lat="46.9688" lon="-2.03563">
        <ele>2.4</ele>
        <time>2020-06-04T14:27:05Z</time>
      </trkpt>
      <trkpt lat="46.96879" lon="-2.03555">
        <ele>2.4</ele>
        <time>2020-06-04T14:27:06Z</time>
      </trkpt>
      <trkpt lat="46.96879" lon="-2.03546">
        <ele>2.4</ele>
        <time>2020-06-04T14:27:07Z</time>
      </trkpt>
      <trkpt lat="46.96879" lon="-2.03537">
        <ele>2.3</ele>
        <time>2020-06-04T14:27:08Z</time>
      </trkpt>
      <trkpt lat="46.9688" lon="-2.03528">
        <ele>2.3</ele>
        <time>2020-06-04T14:27:09Z</time>
      </trkpt>
      <trkpt lat="46.96881" lon="-2.0352">
        <ele>2.2</ele>
        <time>2020-06-04T14:27:10Z</time>
      </trkpt>
      <trkpt lat="46.96881" lon="-2.03511">
        <ele>2.2</ele>
        <time>2020-06-04T14:27:11Z</time>
      </trkpt>
      <trkpt lat="46.96881" lon="-2.03502">
        <ele>2.2</ele>
        <time>2020-06-04T14:27:12Z</time>
      </trkpt>
      <trkpt lat="46.96882" lon="-2.03494">
        <ele>2.2</ele>
        <time>2020-06-04T14:27:13Z</time>
      </trkpt>
      <trkpt lat="46.96882" lon="-2.03486">
        <ele>2.1</ele>
        <time>2020-06-04T14:27:14Z</time>
      </trkpt>
      <trkpt lat="46.96882" lon="-2.03476">
        <ele>2.1</ele>
        <time>2020-06-04T14:27:15Z</time>
      </trkpt>
      <trkpt lat="46.96882" lon="-2.03468">
        <ele>2.1</ele>
        <time>2020-06-04T14:27:16Z</time>
      </trkpt>
      <trkpt lat="46.96883" lon="-2.03459">
        <ele>2.1</ele>
        <time>2020-06-04T14:27:17Z</time>
      </trkpt>
      <trkpt lat="46.96883" lon="-2.03451">
        <ele>2.1</ele>
        <time>2020-06-04T14:27:18Z</time>
      </trkpt>
      <trkpt lat="46.96883" lon="-2.03443">
        <ele>2.1</ele>
        <time>2020-06-04T14:27:19Z</time>
      </trkpt>
      <trkpt lat="46.96883" lon="-2.03434">
        <ele>2.1</ele>
        <time>2020-06-04T14:27:20Z</time>
      </trkpt>
      <trkpt lat="46.96884" lon="-2.03426">
        <ele>2</ele>
        <time>2020-06-04T14:27:21Z</time>
      </trkpt>
      <trkpt lat="46.96884" lon="-2.03417">
        <ele>2</ele>
        <time>2020-06-04T14:27:22Z</time>
      </trkpt>
      <trkpt lat="46.96884" lon="-2.03409">
        <ele>2</ele>
        <time>2020-06-04T14:27:23Z</time>
      </trkpt>
      <trkpt lat="46.96884" lon="-2.03401">
        <ele>2</ele>
        <time>2020-06-04T14:27:24Z</time>
      </trkpt>
      <trkpt lat="46.96885" lon="-2.03393">
        <ele>2</ele>
        <time>2020-06-04T14:27:25Z</time>
      </trkpt>
      <trkpt lat="46.96885" lon="-2.03384">
        <ele>2</ele>
        <time>2020-06-04T14:27:26Z</time>
      </trkpt>
      <trkpt lat="46.96885" lon="-2.03376">
        <ele>2</ele>
        <time>2020-06-04T14:27:27Z</time>
      </trkpt>
      <trkpt lat="46.96885" lon="-2.03369">
        <ele>2</ele>
        <time>2020-06-04T14:27:28Z</time>
      </trkpt>
      <trkpt lat="46.96885" lon="-2.03363">
        <ele>2</ele>
        <time>2020-06-04T14:27:29Z</time>
      </trkpt>
      <trkpt lat="46.96885" lon="-2.03357">
        <ele>2</ele>
        <time>2020-06-04T14:27:30Z</time>
      </trkpt>
      <trkpt lat="46.96884" lon="-2.03351">
        <ele>2</ele>
        <time>2020-06-04T14:27:31Z</time>
      </trkpt>
      <trkpt lat="46.96886" lon="-2.03345">
        <ele>2</ele>
        <time>2020-06-04T14:27:32Z</time>
      </trkpt>
      <trkpt lat="46.96886" lon="-2.03342">
        <ele>2</ele>
        <time>2020-06-04T14:27:33Z</time>
      </trkpt>
      <trkpt lat="46.9689" lon="-2.03341">
        <ele>2.2</ele>
        <time>2020-06-04T14:27:34Z</time>
      </trkpt>
      <trkpt lat="46.96892" lon="-2.03341">
        <ele>2.2</ele>
        <time>2020-06-04T14:27:35Z</time>
      </trkpt>
      <trkpt lat="46.96896" lon="-2.03341">
        <ele>2.2</ele>
        <time>2020-06-04T14:27:36Z</time>
      </trkpt>
      <trkpt lat="46.96901" lon="-2.03342">
        <ele>2.4</ele>
        <time>2020-06-04T14:27:37Z</time>
      </trkpt>
      <trkpt lat="46.96905" lon="-2.03343">
        <ele>2.4</ele>
        <time>2020-06-04T14:27:38Z</time>
      </trkpt>
      <trkpt lat="46.9691" lon="-2.03342">
        <ele>2.5</ele>
        <time>2020-06-04T14:27:39Z</time>
      </trkpt>
      <trkpt lat="46.96915" lon="-2.03342">
        <ele>2.5</ele>
        <time>2020-06-04T14:27:40Z</time>
      </trkpt>
      <trkpt lat="46.96919" lon="-2.03342">
        <ele>2.5</ele>
        <time>2020-06-04T14:27:41Z</time>
      </trkpt>
      <trkpt lat="46.96924" lon="-2.03343">
        <ele>2.6</ele>
        <time>2020-06-04T14:27:42Z</time>
      </trkpt>
      <trkpt lat="46.96928" lon="-2.03344">
        <ele>2.6</ele>
        <time>2020-06-04T14:27:43Z</time>
      </trkpt>
      <trkpt lat="46.96933" lon="-2.03345">
        <ele>2.6</ele>
        <time>2020-06-04T14:27:44Z</time>
      </trkpt>
      <trkpt lat="46.96938" lon="-2.03345">
        <ele>2.6</ele>
        <time>2020-06-04T14:27:45Z</time>
      </trkpt>
      <trkpt lat="46.96943" lon="-2.03346">
        <ele>2.6</ele>
        <time>2020-06-04T14:27:46Z</time>
      </trkpt>
      <trkpt lat="46.96948" lon="-2.03346">
        <ele>2.6</ele>
        <time>2020-06-04T14:27:47Z</time>
      </trkpt>
      <trkpt lat="46.96952" lon="-2.03346">
        <ele>2.6</ele>
        <time>2020-06-04T14:27:48Z</time>
      </trkpt>
      <trkpt lat="46.96957" lon="-2.03347">
        <ele>2.6</ele>
        <time>2020-06-04T14:27:49Z</time>
      </trkpt>
      <trkpt lat="46.96963" lon="-2.03346">
        <ele>2.6</ele>
        <time>2020-06-04T14:27:50Z</time>
      </trkpt>
      <trkpt lat="46.96968" lon="-2.03346">
        <ele>2.6</ele>
        <time>2020-06-04T14:27:51Z</time>
      </trkpt>
      <trkpt lat="46.96974" lon="-2.03345">
        <ele>2.6</ele>
        <time>2020-06-04T14:27:52Z</time>
      </trkpt>
      <trkpt lat="46.96978" lon="-2.03345">
        <ele>2.6</ele>
        <time>2020-06-04T14:27:53Z</time>
      </trkpt>
      <trkpt lat="46.96982" lon="-2.03344">
        <ele>2.6</ele>
        <time>2020-06-04T14:27:54Z</time>
      </trkpt>
      <trkpt lat="46.96986" lon="-2.03344">
        <ele>2.6</ele>
        <time>2020-06-04T14:27:55Z</time>
      </trkpt>
      <trkpt lat="46.9699" lon="-2.03345">
        <ele>2.6</ele>
        <time>2020-06-04T14:27:56Z</time>
      </trkpt>
      <trkpt lat="46.96993" lon="-2.03346">
        <ele>2.6</ele>
        <time>2020-06-04T14:27:57Z</time>
      </trkpt>
      <trkpt lat="46.96997" lon="-2.03346">
        <ele>2.6</ele>
        <time>2020-06-04T14:27:58Z</time>
      </trkpt>
      <trkpt lat="46.97001" lon="-2.03346">
        <ele>2.6</ele>
        <time>2020-06-04T14:27:59Z</time>
      </trkpt>
      <trkpt lat="46.97005" lon="-2.03345">
        <ele>2.6</ele>
        <time>2020-06-04T14:28:00Z</time>
      </trkpt>
      <trkpt lat="46.9701" lon="-2.03344">
        <ele>2.6</ele>
        <time>2020-06-04T14:28:01Z</time>
      </trkpt>
      <trkpt lat="46.97015" lon="-2.03344">
        <ele>2.6</ele>
        <time>2020-06-04T14:28:02Z</time>
      </trkpt>
      <trkpt lat="46.97019" lon="-2.03344">
        <ele>2.6</ele>
        <time>2020-06-04T14:28:03Z</time>
      </trkpt>
      <trkpt lat="46.97024" lon="-2.03343">
        <ele>2.5</ele>
        <time>2020-06-04T14:28:04Z</time>
      </trkpt>
      <trkpt lat="46.97028" lon="-2.03343">
        <ele>2.5</ele>
        <time>2020-06-04T14:28:05Z</time>
      </trkpt>
      <trkpt lat="46.97033" lon="-2.03344">
        <ele>2.5</ele>
        <time>2020-06-04T14:28:06Z</time>
      </trkpt>
      <trkpt lat="46.97039" lon="-2.03343">
        <ele>2.5</ele>
        <time>2020-06-04T14:28:07Z</time>
      </trkpt>
      <trkpt lat="46.97043" lon="-2.03343">
        <ele>2.5</ele>
        <time>2020-06-04T14:28:08Z</time>
      </trkpt>
      <trkpt lat="46.97048" lon="-2.03344">
        <ele>2.5</ele>
        <time>2020-06-04T14:28:09Z</time>
      </trkpt>
      <trkpt lat="46.97054" lon="-2.03345">
        <ele>2.5</ele>
        <time>2020-06-04T14:28:10Z</time>
      </trkpt>
      <trkpt lat="46.97059" lon="-2.03345">
        <ele>2.4</ele>
        <time>2020-06-04T14:28:11Z</time>
      </trkpt>
      <trkpt lat="46.97063" lon="-2.03346">
        <ele>2.4</ele>
        <time>2020-06-04T14:28:12Z</time>
      </trkpt>
      <trkpt lat="46.97068" lon="-2.03347">
        <ele>2.4</ele>
        <time>2020-06-04T14:28:13Z</time>
      </trkpt>
      <trkpt lat="46.97073" lon="-2.03348">
        <ele>2.4</ele>
        <time>2020-06-04T14:28:14Z</time>
      </trkpt>
      <trkpt lat="46.97078" lon="-2.03349">
        <ele>2.3</ele>
        <time>2020-06-04T14:28:15Z</time>
      </trkpt>
      <trkpt lat="46.97082" lon="-2.0335">
        <ele>2.3</ele>
        <time>2020-06-04T14:28:16Z</time>
      </trkpt>
      <trkpt lat="46.97087" lon="-2.03352">
        <ele>2.3</ele>
        <time>2020-06-04T14:28:17Z</time>
      </trkpt>
      <trkpt lat="46.97091" lon="-2.03354">
        <ele>2.4</ele>
        <time>2020-06-04T14:28:18Z</time>
      </trkpt>
      <trkpt lat="46.97096" lon="-2.03358">
        <ele>2.4</ele>
        <time>2020-06-04T14:28:19Z</time>
      </trkpt>
      <trkpt lat="46.97101" lon="-2.03362">
        <ele>2.4</ele>
        <time>2020-06-04T14:28:20Z</time>
      </trkpt>
      <trkpt lat="46.97106" lon="-2.03369">
        <ele>2.5</ele>
        <time>2020-06-04T14:28:21Z</time>
      </trkpt>
      <trkpt lat="46.97111" lon="-2.03375">
        <ele>2.5</ele>
        <time>2020-06-04T14:28:22Z</time>
      </trkpt>
      <trkpt lat="46.97115" lon="-2.0338">
        <ele>2.6</ele>
        <time>2020-06-04T14:28:23Z</time>
      </trkpt>
      <trkpt lat="46.9712" lon="-2.03384">
        <ele>2.6</ele>
        <time>2020-06-04T14:28:24Z</time>
      </trkpt>
      <trkpt lat="46.97124" lon="-2.03388">
        <ele>2.6</ele>
        <time>2020-06-04T14:28:25Z</time>
      </trkpt>
      <trkpt lat="46.9713" lon="-2.03391">
        <ele>2.6</ele>
        <time>2020-06-04T14:28:26Z</time>
      </trkpt>
      <trkpt lat="46.97134" lon="-2.03394">
        <ele>2.7</ele>
        <time>2020-06-04T14:28:27Z</time>
      </trkpt>
      <trkpt lat="46.97141" lon="-2.03395">
        <ele>2.7</ele>
        <time>2020-06-04T14:28:28Z</time>
      </trkpt>
      <trkpt lat="46.97146" lon="-2.03396">
        <ele>2.7</ele>
        <time>2020-06-04T14:28:29Z</time>
      </trkpt>
      <trkpt lat="46.97152" lon="-2.03395">
        <ele>2.8</ele>
        <time>2020-06-04T14:28:30Z</time>
      </trkpt>
      <trkpt lat="46.97158" lon="-2.03394">
        <ele>2.8</ele>
        <time>2020-06-04T14:28:31Z</time>
      </trkpt>
      <trkpt lat="46.97163" lon="-2.03393">
        <ele>2.8</ele>
        <time>2020-06-04T14:28:32Z</time>
      </trkpt>
      <trkpt lat="46.97168" lon="-2.03393">
        <ele>2.8</ele>
        <time>2020-06-04T14:28:33Z</time>
      </trkpt>
      <trkpt lat="46.97174" lon="-2.03392">
        <ele>2.9</ele>
        <time>2020-06-04T14:28:34Z</time>
      </trkpt>
      <trkpt lat="46.9718" lon="-2.03391">
        <ele>2.8</ele>
        <time>2020-06-04T14:28:35Z</time>
      </trkpt>
      <trkpt lat="46.97185" lon="-2.0339">
        <ele>2.8</ele>
        <time>2020-06-04T14:28:36Z</time>
      </trkpt>
      <trkpt lat="46.9719" lon="-2.0339">
        <ele>2.8</ele>
        <time>2020-06-04T14:28:37Z</time>
      </trkpt>
      <trkpt lat="46.97195" lon="-2.03389">
        <ele>2.8</ele>
        <time>2020-06-04T14:28:38Z</time>
      </trkpt>
      <trkpt lat="46.97201" lon="-2.0339">
        <ele>2.7</ele>
        <time>2020-06-04T14:28:39Z</time>
      </trkpt>
      <trkpt lat="46.97207" lon="-2.0339">
        <ele>2.6</ele>
        <time>2020-06-04T14:28:40Z</time>
      </trkpt>
      <trkpt lat="46.97212" lon="-2.03391">
        <ele>2.5</ele>
        <time>2020-06-04T14:28:41Z</time>
      </trkpt>
      <trkpt lat="46.97218" lon="-2.03392">
        <ele>2.5</ele>
        <time>2020-06-04T14:28:42Z</time>
      </trkpt>
      <trkpt lat="46.97224" lon="-2.03393">
        <ele>2.4</ele>
        <time>2020-06-04T14:28:43Z</time>
      </trkpt>
      <trkpt lat="46.97229" lon="-2.03394">
        <ele>2.4</ele>
        <time>2020-06-04T14:28:44Z</time>
      </trkpt>
      <trkpt lat="46.97234" lon="-2.03395">
        <ele>2.4</ele>
        <time>2020-06-04T14:28:45Z</time>
      </trkpt>
      <trkpt lat="46.9724" lon="-2.03396">
        <ele>2.4</ele>
        <time>2020-06-04T14:28:46Z</time>
      </trkpt>
      <trkpt lat="46.97245" lon="-2.03397">
        <ele>2.4</ele>
        <time>2020-06-04T14:28:47Z</time>
      </trkpt>
      <trkpt lat="46.97251" lon="-2.03398">
        <ele>2.5</ele>
        <time>2020-06-04T14:28:48Z</time>
      </trkpt>
      <trkpt lat="46.97257" lon="-2.03398">
        <ele>2.5</ele>
        <time>2020-06-04T14:28:49Z</time>
      </trkpt>
      <trkpt lat="46.97263" lon="-2.03398">
        <ele>2.6</ele>
        <time>2020-06-04T14:28:50Z</time>
      </trkpt>
      <trkpt lat="46.97269" lon="-2.03398">
        <ele>2.6</ele>
        <time>2020-06-04T14:28:51Z</time>
      </trkpt>
      <trkpt lat="46.97275" lon="-2.03397">
        <ele>2.6</ele>
        <time>2020-06-04T14:28:52Z</time>
      </trkpt>
      <trkpt lat="46.97281" lon="-2.03396">
        <ele>2.6</ele>
        <time>2020-06-04T14:28:53Z</time>
      </trkpt>
      <trkpt lat="46.97288" lon="-2.03395">
        <ele>2.5</ele>
        <time>2020-06-04T14:28:54Z</time>
      </trkpt>
      <trkpt lat="46.97293" lon="-2.03393">
        <ele>2.5</ele>
        <time>2020-06-04T14:28:55Z</time>
      </trkpt>
      <trkpt lat="46.97297" lon="-2.03392">
        <ele>2.4</ele>
        <time>2020-06-04T14:28:56Z</time>
      </trkpt>
      <trkpt lat="46.97302" lon="-2.03391">
        <ele>2.3</ele>
        <time>2020-06-04T14:28:57Z</time>
      </trkpt>
      <trkpt lat="46.97307" lon="-2.03388">
        <ele>2.3</ele>
        <time>2020-06-04T14:28:58Z</time>
      </trkpt>
      <trkpt lat="46.97312" lon="-2.03387">
        <ele>2.2</ele>
        <time>2020-06-04T14:28:59Z</time>
      </trkpt>
      <trkpt lat="46.97318" lon="-2.03386">
        <ele>2.2</ele>
        <time>2020-06-04T14:29:00Z</time>
      </trkpt>
      <trkpt lat="46.97324" lon="-2.03384">
        <ele>2.1</ele>
        <time>2020-06-04T14:29:01Z</time>
      </trkpt>
      <trkpt lat="46.9733" lon="-2.03382">
        <ele>2.1</ele>
        <time>2020-06-04T14:29:02Z</time>
      </trkpt>
      <trkpt lat="46.97333" lon="-2.0338">
        <ele>2.1</ele>
        <time>2020-06-04T14:29:03Z</time>
      </trkpt>
      <trkpt lat="46.97338" lon="-2.03377">
        <ele>2</ele>
        <time>2020-06-04T14:29:04Z</time>
      </trkpt>
      <trkpt lat="46.97342" lon="-2.03375">
        <ele>2</ele>
        <time>2020-06-04T14:29:05Z</time>
      </trkpt>
      <trkpt lat="46.97348" lon="-2.03373">
        <ele>2.1</ele>
        <time>2020-06-04T14:29:06Z</time>
      </trkpt>
      <trkpt lat="46.97353" lon="-2.03372">
        <ele>2.1</ele>
        <time>2020-06-04T14:29:07Z</time>
      </trkpt>
      <trkpt lat="46.97359" lon="-2.03371">
        <ele>2.1</ele>
        <time>2020-06-04T14:29:08Z</time>
      </trkpt>
      <trkpt lat="46.97363" lon="-2.03372">
        <ele>2.1</ele>
        <time>2020-06-04T14:29:09Z</time>
      </trkpt>
      <trkpt lat="46.97369" lon="-2.03372">
        <ele>2.1</ele>
        <time>2020-06-04T14:29:10Z</time>
      </trkpt>
      <trkpt lat="46.97377" lon="-2.03372">
        <ele>2.1</ele>
        <time>2020-06-04T14:29:11Z</time>
      </trkpt>
      <trkpt lat="46.97384" lon="-2.03373">
        <ele>2.1</ele>
        <time>2020-06-04T14:29:12Z</time>
      </trkpt>
      <trkpt lat="46.9739" lon="-2.03374">
        <ele>2.1</ele>
        <time>2020-06-04T14:29:13Z</time>
      </trkpt>
      <trkpt lat="46.97396" lon="-2.03375">
        <ele>2.1</ele>
        <time>2020-06-04T14:29:14Z</time>
      </trkpt>
      <trkpt lat="46.97401" lon="-2.03376">
        <ele>2.1</ele>
        <time>2020-06-04T14:29:15Z</time>
      </trkpt>
      <trkpt lat="46.97405" lon="-2.03377">
        <ele>2.1</ele>
        <time>2020-06-04T14:29:16Z</time>
      </trkpt>
      <trkpt lat="46.97411" lon="-2.03378">
        <ele>2.1</ele>
        <time>2020-06-04T14:29:17Z</time>
      </trkpt>
      <trkpt lat="46.97417" lon="-2.03379">
        <ele>2.1</ele>
        <time>2020-06-04T14:29:18Z</time>
      </trkpt>
      <trkpt lat="46.97422" lon="-2.0338">
        <ele>2.1</ele>
        <time>2020-06-04T14:29:19Z</time>
      </trkpt>
      <trkpt lat="46.97426" lon="-2.03381">
        <ele>2.1</ele>
        <time>2020-06-04T14:29:20Z</time>
      </trkpt>
      <trkpt lat="46.9743" lon="-2.03382">
        <ele>2.1</ele>
        <time>2020-06-04T14:29:21Z</time>
      </trkpt>
      <trkpt lat="46.97434" lon="-2.03383">
        <ele>2.1</ele>
        <time>2020-06-04T14:29:22Z</time>
      </trkpt>
      <trkpt lat="46.97439" lon="-2.03384">
        <ele>2</ele>
        <time>2020-06-04T14:29:23Z</time>
      </trkpt>
      <trkpt lat="46.97444" lon="-2.03386">
        <ele>2</ele>
        <time>2020-06-04T14:29:24Z</time>
      </trkpt>
      <trkpt lat="46.97448" lon="-2.03388">
        <ele>2</ele>
        <time>2020-06-04T14:29:25Z</time>
      </trkpt>
      <trkpt lat="46.97453" lon="-2.0339">
        <ele>2</ele>
        <time>2020-06-04T14:29:26Z</time>
      </trkpt>
      <trkpt lat="46.97458" lon="-2.03392">
        <ele>2</ele>
        <time>2020-06-04T14:29:27Z</time>
      </trkpt>
      <trkpt lat="46.97464" lon="-2.03394">
        <ele>2</ele>
        <time>2020-06-04T14:29:28Z</time>
      </trkpt>
      <trkpt lat="46.97469" lon="-2.03395">
        <ele>2</ele>
        <time>2020-06-04T14:29:29Z</time>
      </trkpt>
      <trkpt lat="46.97474" lon="-2.03396">
        <ele>2</ele>
        <time>2020-06-04T14:29:30Z</time>
      </trkpt>
      <trkpt lat="46.9748" lon="-2.03395">
        <ele>2</ele>
        <time>2020-06-04T14:29:31Z</time>
      </trkpt>
      <trkpt lat="46.97485" lon="-2.03397">
        <ele>2</ele>
        <time>2020-06-04T14:29:32Z</time>
      </trkpt>
      <trkpt lat="46.97489" lon="-2.03398">
        <ele>2</ele>
        <time>2020-06-04T14:29:33Z</time>
      </trkpt>
      <trkpt lat="46.97494" lon="-2.034">
        <ele>2</ele>
        <time>2020-06-04T14:29:34Z</time>
      </trkpt>
      <trkpt lat="46.97499" lon="-2.03402">
        <ele>2</ele>
        <time>2020-06-04T14:29:35Z</time>
      </trkpt>
      <trkpt lat="46.97504" lon="-2.03404">
        <ele>2</ele>
        <time>2020-06-04T14:29:36Z</time>
      </trkpt>
      <trkpt lat="46.97509" lon="-2.03406">
        <ele>2</ele>
        <time>2020-06-04T14:29:37Z</time>
      </trkpt>
      <trkpt lat="46.97514" lon="-2.03409">
        <ele>2</ele>
        <time>2020-06-04T14:29:38Z</time>
      </trkpt>
      <trkpt lat="46.97518" lon="-2.03411">
        <ele>2</ele>
        <time>2020-06-04T14:29:39Z</time>
      </trkpt>
      <trkpt lat="46.97522" lon="-2.03413">
        <ele>2</ele>
        <time>2020-06-04T14:29:40Z</time>
      </trkpt>
      <trkpt lat="46.97528" lon="-2.03415">
        <ele>2</ele>
        <time>2020-06-04T14:29:41Z</time>
      </trkpt>
      <trkpt lat="46.97533" lon="-2.03417">
        <ele>2</ele>
        <time>2020-06-04T14:29:42Z</time>
      </trkpt>
      <trkpt lat="46.97537" lon="-2.03419">
        <ele>2</ele>
        <time>2020-06-04T14:29:43Z</time>
      </trkpt>
      <trkpt lat="46.97541" lon="-2.03421">
        <ele>1.9</ele>
        <time>2020-06-04T14:29:44Z</time>
      </trkpt>
      <trkpt lat="46.97545" lon="-2.03424">
        <ele>1.9</ele>
        <time>2020-06-04T14:29:45Z</time>
      </trkpt>
      <trkpt lat="46.9755" lon="-2.03426">
        <ele>1.9</ele>
        <time>2020-06-04T14:29:46Z</time>
      </trkpt>
      <trkpt lat="46.97555" lon="-2.0343">
        <ele>1.9</ele>
        <time>2020-06-04T14:29:47Z</time>
      </trkpt>
      <trkpt lat="46.9756" lon="-2.03433">
        <ele>1.9</ele>
        <time>2020-06-04T14:29:48Z</time>
      </trkpt>
      <trkpt lat="46.97564" lon="-2.03436">
        <ele>1.9</ele>
        <time>2020-06-04T14:29:49Z</time>
      </trkpt>
      <trkpt lat="46.97569" lon="-2.03439">
        <ele>1.9</ele>
        <time>2020-06-04T14:29:50Z</time>
      </trkpt>
      <trkpt lat="46.97574" lon="-2.03442">
        <ele>1.9</ele>
        <time>2020-06-04T14:29:51Z</time>
      </trkpt>
      <trkpt lat="46.97579" lon="-2.03445">
        <ele>1.9</ele>
        <time>2020-06-04T14:29:52Z</time>
      </trkpt>
      <trkpt lat="46.97583" lon="-2.03449">
        <ele>1.9</ele>
        <time>2020-06-04T14:29:53Z</time>
      </trkpt>
      <trkpt lat="46.97586" lon="-2.03452">
        <ele>1.9</ele>
        <time>2020-06-04T14:29:54Z</time>
      </trkpt>
      <trkpt lat="46.9759" lon="-2.03456">
        <ele>1.9</ele>
        <time>2020-06-04T14:29:55Z</time>
      </trkpt>
      <trkpt lat="46.97594" lon="-2.03459">
        <ele>1.9</ele>
        <time>2020-06-04T14:29:56Z</time>
      </trkpt>
      <trkpt lat="46.97598" lon="-2.0346">
        <ele>1.9</ele>
        <time>2020-06-04T14:29:57Z</time>
      </trkpt>
      <trkpt lat="46.97602" lon="-2.03463">
        <ele>1.9</ele>
        <time>2020-06-04T14:29:58Z</time>
      </trkpt>
      <trkpt lat="46.97603" lon="-2.03464">
        <ele>1.9</ele>
        <time>2020-06-04T14:29:59Z</time>
      </trkpt>
      <trkpt lat="46.97607" lon="-2.03466">
        <ele>1.9</ele>
        <time>2020-06-04T14:30:00Z</time>
      </trkpt>
      <trkpt lat="46.97611" lon="-2.03469">
        <ele>1.9</ele>
        <time>2020-06-04T14:30:01Z</time>
      </trkpt>
      <trkpt lat="46.97615" lon="-2.03471">
        <ele>1.9</ele>
        <time>2020-06-04T14:30:02Z</time>
      </trkpt>
      <trkpt lat="46.9762" lon="-2.03474">
        <ele>1.9</ele>
        <time>2020-06-04T14:30:03Z</time>
      </trkpt>
      <trkpt lat="46.97624" lon="-2.03477">
        <ele>2</ele>
        <time>2020-06-04T14:30:04Z</time>
      </trkpt>
      <trkpt lat="46.97628" lon="-2.03479">
        <ele>2</ele>
        <time>2020-06-04T14:30:05Z</time>
      </trkpt>
      <trkpt lat="46.97632" lon="-2.03481">
        <ele>2</ele>
        <time>2020-06-04T14:30:06Z</time>
      </trkpt>
      <trkpt lat="46.97637" lon="-2.03482">
        <ele>2.1</ele>
        <time>2020-06-04T14:30:07Z</time>
      </trkpt>
      <trkpt lat="46.97642" lon="-2.03484">
        <ele>2.1</ele>
        <time>2020-06-04T14:30:08Z</time>
      </trkpt>
      <trkpt lat="46.97646" lon="-2.03486">
        <ele>2.1</ele>
        <time>2020-06-04T14:30:09Z</time>
      </trkpt>
      <trkpt lat="46.97651" lon="-2.03487">
        <ele>2.2</ele>
        <time>2020-06-04T14:30:10Z</time>
      </trkpt>
      <trkpt lat="46.97656" lon="-2.03488">
        <ele>2.2</ele>
        <time>2020-06-04T14:30:11Z</time>
      </trkpt>
      <trkpt lat="46.9766" lon="-2.03489">
        <ele>2.2</ele>
        <time>2020-06-04T14:30:12Z</time>
      </trkpt>
      <trkpt lat="46.97665" lon="-2.0349">
        <ele>2.2</ele>
        <time>2020-06-04T14:30:13Z</time>
      </trkpt>
      <trkpt lat="46.97669" lon="-2.03491">
        <ele>2.2</ele>
        <time>2020-06-04T14:30:14Z</time>
      </trkpt>
      <trkpt lat="46.97674" lon="-2.03491">
        <ele>2.2</ele>
        <time>2020-06-04T14:30:15Z</time>
      </trkpt>
      <trkpt lat="46.97679" lon="-2.03491">
        <ele>2.2</ele>
        <time>2020-06-04T14:30:16Z</time>
      </trkpt>
      <trkpt lat="46.97683" lon="-2.0349">
        <ele>2.2</ele>
        <time>2020-06-04T14:30:17Z</time>
      </trkpt>
      <trkpt lat="46.97689" lon="-2.0349">
        <ele>2.2</ele>
        <time>2020-06-04T14:30:18Z</time>
      </trkpt>
      <trkpt lat="46.97695" lon="-2.0349">
        <ele>2.2</ele>
        <time>2020-06-04T14:30:19Z</time>
      </trkpt>
      <trkpt lat="46.977" lon="-2.0349">
        <ele>2.1</ele>
        <time>2020-06-04T14:30:20Z</time>
      </trkpt>
      <trkpt lat="46.97705" lon="-2.0349">
        <ele>2.1</ele>
        <time>2020-06-04T14:30:21Z</time>
      </trkpt>
      <trkpt lat="46.97709" lon="-2.0349">
        <ele>2.1</ele>
        <time>2020-06-04T14:30:22Z</time>
      </trkpt>
      <trkpt lat="46.97712" lon="-2.0349">
        <ele>2.1</ele>
        <time>2020-06-04T14:30:23Z</time>
      </trkpt>
      <trkpt lat="46.97717" lon="-2.0349">
        <ele>2.1</ele>
        <time>2020-06-04T14:30:24Z</time>
      </trkpt>
      <trkpt lat="46.97723" lon="-2.03489">
        <ele>2.1</ele>
        <time>2020-06-04T14:30:25Z</time>
      </trkpt>
      <trkpt lat="46.97728" lon="-2.03489">
        <ele>2.1</ele>
        <time>2020-06-04T14:30:26Z</time>
      </trkpt>
      <trkpt lat="46.97731" lon="-2.03488">
        <ele>2.1</ele>
        <time>2020-06-04T14:30:27Z</time>
      </trkpt>
      <trkpt lat="46.97735" lon="-2.03488">
        <ele>2.1</ele>
        <time>2020-06-04T14:30:28Z</time>
      </trkpt>
      <trkpt lat="46.97739" lon="-2.03488">
        <ele>2.1</ele>
        <time>2020-06-04T14:30:29Z</time>
      </trkpt>
      <trkpt lat="46.97743" lon="-2.03487">
        <ele>2.2</ele>
        <time>2020-06-04T14:30:30Z</time>
      </trkpt>
      <trkpt lat="46.97748" lon="-2.03486">
        <ele>2.2</ele>
        <time>2020-06-04T14:30:31Z</time>
      </trkpt>
      <trkpt lat="46.97754" lon="-2.03485">
        <ele>2.2</ele>
        <time>2020-06-04T14:30:32Z</time>
      </trkpt>
      <trkpt lat="46.9776" lon="-2.03485">
        <ele>2.3</ele>
        <time>2020-06-04T14:30:33Z</time>
      </trkpt>
      <trkpt lat="46.97765" lon="-2.03486">
        <ele>2.3</ele>
        <time>2020-06-04T14:30:34Z</time>
      </trkpt>
      <trkpt lat="46.97769" lon="-2.03486">
        <ele>2.3</ele>
        <time>2020-06-04T14:30:35Z</time>
      </trkpt>
      <trkpt lat="46.97775" lon="-2.03486">
        <ele>2.3</ele>
        <time>2020-06-04T14:30:36Z</time>
      </trkpt>
      <trkpt lat="46.97779" lon="-2.03486">
        <ele>2.3</ele>
        <time>2020-06-04T14:30:37Z</time>
      </trkpt>
      <trkpt lat="46.97783" lon="-2.03485">
        <ele>2.3</ele>
        <time>2020-06-04T14:30:38Z</time>
      </trkpt>
      <trkpt lat="46.97789" lon="-2.03484">
        <ele>2.3</ele>
        <time>2020-06-04T14:30:39Z</time>
      </trkpt>
      <trkpt lat="46.97794" lon="-2.03483">
        <ele>2.2</ele>
        <time>2020-06-04T14:30:40Z</time>
      </trkpt>
      <trkpt lat="46.978" lon="-2.03481">
        <ele>2.2</ele>
        <time>2020-06-04T14:30:41Z</time>
      </trkpt>
      <trkpt lat="46.97805" lon="-2.03479">
        <ele>2.3</ele>
        <time>2020-06-04T14:30:42Z</time>
      </trkpt>
      <trkpt lat="46.97809" lon="-2.03476">
        <ele>2.3</ele>
        <time>2020-06-04T14:30:43Z</time>
      </trkpt>
      <trkpt lat="46.97813" lon="-2.03474">
        <ele>2.3</ele>
        <time>2020-06-04T14:30:44Z</time>
      </trkpt>
      <trkpt lat="46.97818" lon="-2.0347">
        <ele>2.3</ele>
        <time>2020-06-04T14:30:45Z</time>
      </trkpt>
      <trkpt lat="46.97822" lon="-2.03467">
        <ele>2.3</ele>
        <time>2020-06-04T14:30:46Z</time>
      </trkpt>
      <trkpt lat="46.97826" lon="-2.03464">
        <ele>2.3</ele>
        <time>2020-06-04T14:30:47Z</time>
      </trkpt>
      <trkpt lat="46.97829" lon="-2.03461">
        <ele>2.3</ele>
        <time>2020-06-04T14:30:48Z</time>
      </trkpt>
      <trkpt lat="46.97833" lon="-2.03458">
        <ele>2.3</ele>
        <time>2020-06-04T14:30:49Z</time>
      </trkpt>
      <trkpt lat="46.97837" lon="-2.03456">
        <ele>2.3</ele>
        <time>2020-06-04T14:30:50Z</time>
      </trkpt>
      <trkpt lat="46.9784" lon="-2.03453">
        <ele>2.4</ele>
        <time>2020-06-04T14:30:51Z</time>
      </trkpt>
      <trkpt lat="46.97844" lon="-2.03451">
        <ele>2.4</ele>
        <time>2020-06-04T14:30:52Z</time>
      </trkpt>
      <trkpt lat="46.97849" lon="-2.03448">
        <ele>2.4</ele>
        <time>2020-06-04T14:30:53Z</time>
      </trkpt>
      <trkpt lat="46.97853" lon="-2.03446">
        <ele>2.4</ele>
        <time>2020-06-04T14:30:54Z</time>
      </trkpt>
      <trkpt lat="46.97857" lon="-2.03444">
        <ele>2.4</ele>
        <time>2020-06-04T14:30:55Z</time>
      </trkpt>
      <trkpt lat="46.97861" lon="-2.03441">
        <ele>2.3</ele>
        <time>2020-06-04T14:30:56Z</time>
      </trkpt>
      <trkpt lat="46.97865" lon="-2.03439">
        <ele>2.3</ele>
        <time>2020-06-04T14:30:57Z</time>
      </trkpt>
      <trkpt lat="46.97868" lon="-2.03438">
        <ele>2.3</ele>
        <time>2020-06-04T14:30:58Z</time>
      </trkpt>
      <trkpt lat="46.97872" lon="-2.03435">
        <ele>2.3</ele>
        <time>2020-06-04T14:30:59Z</time>
      </trkpt>
      <trkpt lat="46.97878" lon="-2.03432">
        <ele>2.2</ele>
        <time>2020-06-04T14:31:00Z</time>
      </trkpt>
      <trkpt lat="46.97883" lon="-2.03429">
        <ele>2.2</ele>
        <time>2020-06-04T14:31:01Z</time>
      </trkpt>
      <trkpt lat="46.97888" lon="-2.03426">
        <ele>2.2</ele>
        <time>2020-06-04T14:31:02Z</time>
      </trkpt>
      <trkpt lat="46.97892" lon="-2.03424">
        <ele>2.2</ele>
        <time>2020-06-04T14:31:03Z</time>
      </trkpt>
      <trkpt lat="46.97897" lon="-2.03421">
        <ele>2.1</ele>
        <time>2020-06-04T14:31:04Z</time>
      </trkpt>
      <trkpt lat="46.97901" lon="-2.03419">
        <ele>2.1</ele>
        <time>2020-06-04T14:31:05Z</time>
      </trkpt>
      <trkpt lat="46.97907" lon="-2.03415">
        <ele>2.1</ele>
        <time>2020-06-04T14:31:06Z</time>
      </trkpt>
      <trkpt lat="46.97911" lon="-2.03412">
        <ele>2.1</ele>
        <time>2020-06-04T14:31:07Z</time>
      </trkpt>
      <trkpt lat="46.97915" lon="-2.0341">
        <ele>2.1</ele>
        <time>2020-06-04T14:31:08Z</time>
      </trkpt>
      <trkpt lat="46.97922" lon="-2.03407">
        <ele>2.1</ele>
        <time>2020-06-04T14:31:09Z</time>
      </trkpt>
      <trkpt lat="46.97926" lon="-2.03405">
        <ele>2.1</ele>
        <time>2020-06-04T14:31:10Z</time>
      </trkpt>
      <trkpt lat="46.97931" lon="-2.03403">
        <ele>2.1</ele>
        <time>2020-06-04T14:31:11Z</time>
      </trkpt>
      <trkpt lat="46.97936" lon="-2.03401">
        <ele>2.1</ele>
        <time>2020-06-04T14:31:12Z</time>
      </trkpt>
      <trkpt lat="46.97941" lon="-2.03399">
        <ele>2.1</ele>
        <time>2020-06-04T14:31:13Z</time>
      </trkpt>
      <trkpt lat="46.97945" lon="-2.03396">
        <ele>2.1</ele>
        <time>2020-06-04T14:31:14Z</time>
      </trkpt>
      <trkpt lat="46.9795" lon="-2.03392">
        <ele>2.1</ele>
        <time>2020-06-04T14:31:15Z</time>
      </trkpt>
      <trkpt lat="46.97953" lon="-2.03387">
        <ele>2.1</ele>
        <time>2020-06-04T14:31:16Z</time>
      </trkpt>
      <trkpt lat="46.97956" lon="-2.03379">
        <ele>2.2</ele>
        <time>2020-06-04T14:31:17Z</time>
      </trkpt>
      <trkpt lat="46.97957" lon="-2.03372">
        <ele>2.2</ele>
        <time>2020-06-04T14:31:18Z</time>
      </trkpt>
      <trkpt lat="46.97958" lon="-2.03365">
        <ele>2.2</ele>
        <time>2020-06-04T14:31:19Z</time>
      </trkpt>
      <trkpt lat="46.97959" lon="-2.03358">
        <ele>2.2</ele>
        <time>2020-06-04T14:31:20Z</time>
      </trkpt>
      <trkpt lat="46.9796" lon="-2.03351">
        <ele>2.2</ele>
        <time>2020-06-04T14:31:21Z</time>
      </trkpt>
      <trkpt lat="46.97961" lon="-2.03344">
        <ele>2.3</ele>
        <time>2020-06-04T14:31:22Z</time>
      </trkpt>
      <trkpt lat="46.97961" lon="-2.03337">
        <ele>2.3</ele>
        <time>2020-06-04T14:31:23Z</time>
      </trkpt>
      <trkpt lat="46.97961" lon="-2.03331">
        <ele>2.3</ele>
        <time>2020-06-04T14:31:24Z</time>
      </trkpt>
      <trkpt lat="46.97961" lon="-2.03323">
        <ele>2.3</ele>
        <time>2020-06-04T14:31:25Z</time>
      </trkpt>
      <trkpt lat="46.97962" lon="-2.03316">
        <ele>2.3</ele>
        <time>2020-06-04T14:31:26Z</time>
      </trkpt>
      <trkpt lat="46.97961" lon="-2.03309">
        <ele>2.4</ele>
        <time>2020-06-04T14:31:27Z</time>
      </trkpt>
      <trkpt lat="46.97962" lon="-2.03302">
        <ele>2.4</ele>
        <time>2020-06-04T14:31:28Z</time>
      </trkpt>
      <trkpt lat="46.97963" lon="-2.03295">
        <ele>2.4</ele>
        <time>2020-06-04T14:31:29Z</time>
      </trkpt>
      <trkpt lat="46.97964" lon="-2.03288">
        <ele>2.4</ele>
        <time>2020-06-04T14:31:30Z</time>
      </trkpt>
      <trkpt lat="46.97965" lon="-2.03281">
        <ele>2.4</ele>
        <time>2020-06-04T14:31:31Z</time>
      </trkpt>
      <trkpt lat="46.97966" lon="-2.03273">
        <ele>2.4</ele>
        <time>2020-06-04T14:31:32Z</time>
      </trkpt>
      <trkpt lat="46.97968" lon="-2.03265">
        <ele>2.5</ele>
        <time>2020-06-04T14:31:33Z</time>
      </trkpt>
      <trkpt lat="46.97971" lon="-2.03259">
        <ele>2.5</ele>
        <time>2020-06-04T14:31:34Z</time>
      </trkpt>
      <trkpt lat="46.97974" lon="-2.03252">
        <ele>2.5</ele>
        <time>2020-06-04T14:31:35Z</time>
      </trkpt>
      <trkpt lat="46.97977" lon="-2.03247">
        <ele>2.5</ele>
        <time>2020-06-04T14:31:36Z</time>
      </trkpt>
      <trkpt lat="46.97982" lon="-2.03245">
        <ele>2.5</ele>
        <time>2020-06-04T14:31:37Z</time>
      </trkpt>
      <trkpt lat="46.97987" lon="-2.03243">
        <ele>2.5</ele>
        <time>2020-06-04T14:31:38Z</time>
      </trkpt>
      <trkpt lat="46.97992" lon="-2.03243">
        <ele>2.5</ele>
        <time>2020-06-04T14:31:39Z</time>
      </trkpt>
      <trkpt lat="46.97996" lon="-2.03245">
        <ele>2.5</ele>
        <time>2020-06-04T14:31:40Z</time>
      </trkpt>
      <trkpt lat="46.98001" lon="-2.03245">
        <ele>2.5</ele>
        <time>2020-06-04T14:31:41Z</time>
      </trkpt>
      <trkpt lat="46.98007" lon="-2.03249">
        <ele>2.5</ele>
        <time>2020-06-04T14:31:42Z</time>
      </trkpt>
      <trkpt lat="46.98011" lon="-2.03251">
        <ele>2.5</ele>
        <time>2020-06-04T14:31:43Z</time>
      </trkpt>
      <trkpt lat="46.98015" lon="-2.03252">
        <ele>2.5</ele>
        <time>2020-06-04T14:31:44Z</time>
      </trkpt>
      <trkpt lat="46.9802" lon="-2.03253">
        <ele>2.5</ele>
        <time>2020-06-04T14:31:45Z</time>
      </trkpt>
      <trkpt lat="46.98024" lon="-2.03253">
        <ele>2.5</ele>
        <time>2020-06-04T14:31:46Z</time>
      </trkpt>
      <trkpt lat="46.98029" lon="-2.03255">
        <ele>2.5</ele>
        <time>2020-06-04T14:31:47Z</time>
      </trkpt>
      <trkpt lat="46.98034" lon="-2.03255">
        <ele>2.5</ele>
        <time>2020-06-04T14:31:48Z</time>
      </trkpt>
      <trkpt lat="46.9804" lon="-2.03256">
        <ele>2.5</ele>
        <time>2020-06-04T14:31:49Z</time>
      </trkpt>
      <trkpt lat="46.98044" lon="-2.03257">
        <ele>2.5</ele>
        <time>2020-06-04T14:31:50Z</time>
      </trkpt>
      <trkpt lat="46.98049" lon="-2.03258">
        <ele>2.5</ele>
        <time>2020-06-04T14:31:51Z</time>
      </trkpt>
      <trkpt lat="46.98054" lon="-2.03258">
        <ele>2.5</ele>
        <time>2020-06-04T14:31:52Z</time>
      </trkpt>
      <trkpt lat="46.98059" lon="-2.03258">
        <ele>2.5</ele>
        <time>2020-06-04T14:31:53Z</time>
      </trkpt>
      <trkpt lat="46.98064" lon="-2.03258">
        <ele>2.5</ele>
        <time>2020-06-04T14:31:54Z</time>
      </trkpt>
      <trkpt lat="46.98068" lon="-2.03257">
        <ele>2.5</ele>
        <time>2020-06-04T14:31:55Z</time>
      </trkpt>
      <trkpt lat="46.98074" lon="-2.03256">
        <ele>2.5</ele>
        <time>2020-06-04T14:31:56Z</time>
      </trkpt>
      <trkpt lat="46.98078" lon="-2.03254">
        <ele>2.5</ele>
        <time>2020-06-04T14:31:57Z</time>
      </trkpt>
      <trkpt lat="46.98081" lon="-2.03251">
        <ele>2.5</ele>
        <time>2020-06-04T14:31:58Z</time>
      </trkpt>
      <trkpt lat="46.98084" lon="-2.03248">
        <ele>2.4</ele>
        <time>2020-06-04T14:31:59Z</time>
      </trkpt>
      <trkpt lat="46.98087" lon="-2.03245">
        <ele>2.4</ele>
        <time>2020-06-04T14:32:00Z</time>
      </trkpt>
      <trkpt lat="46.9809" lon="-2.03242">
        <ele>2.4</ele>
        <time>2020-06-04T14:32:01Z</time>
      </trkpt>
      <trkpt lat="46.98093" lon="-2.03239">
        <ele>2.4</ele>
        <time>2020-06-04T14:32:02Z</time>
      </trkpt>
      <trkpt lat="46.98096" lon="-2.03237">
        <ele>2.4</ele>
        <time>2020-06-04T14:32:03Z</time>
      </trkpt>
      <trkpt lat="46.981" lon="-2.03234">
        <ele>2.4</ele>
        <time>2020-06-04T14:32:04Z</time>
      </trkpt>
      <trkpt lat="46.98103" lon="-2.03233">
        <ele>2.4</ele>
        <time>2020-06-04T14:32:05Z</time>
      </trkpt>
      <trkpt lat="46.98107" lon="-2.03232">
        <ele>2.4</ele>
        <time>2020-06-04T14:32:06Z</time>
      </trkpt>
      <trkpt lat="46.98111" lon="-2.03231">
        <ele>2.3</ele>
        <time>2020-06-04T14:32:07Z</time>
      </trkpt>
      <trkpt lat="46.98116" lon="-2.03231">
        <ele>2.3</ele>
        <time>2020-06-04T14:32:08Z</time>
      </trkpt>
      <trkpt lat="46.9812" lon="-2.0323">
        <ele>2.3</ele>
        <time>2020-06-04T14:32:09Z</time>
      </trkpt>
      <trkpt lat="46.98124" lon="-2.03229">
        <ele>2.3</ele>
        <time>2020-06-04T14:32:10Z</time>
      </trkpt>
      <trkpt lat="46.98128" lon="-2.03229">
        <ele>2.3</ele>
        <time>2020-06-04T14:32:11Z</time>
      </trkpt>
      <trkpt lat="46.98132" lon="-2.03229">
        <ele>2.3</ele>
        <time>2020-06-04T14:32:12Z</time>
      </trkpt>
      <trkpt lat="46.98136" lon="-2.03229">
        <ele>2.3</ele>
        <time>2020-06-04T14:32:13Z</time>
      </trkpt>
      <trkpt lat="46.9814" lon="-2.03228">
        <ele>2.2</ele>
        <time>2020-06-04T14:32:14Z</time>
      </trkpt>
      <trkpt lat="46.98143" lon="-2.03226">
        <ele>2.2</ele>
        <time>2020-06-04T14:32:15Z</time>
      </trkpt>
      <trkpt lat="46.98147" lon="-2.03225">
        <ele>2.2</ele>
        <time>2020-06-04T14:32:16Z</time>
      </trkpt>
      <trkpt lat="46.9815" lon="-2.03221">
        <ele>2.2</ele>
        <time>2020-06-04T14:32:17Z</time>
      </trkpt>
      <trkpt lat="46.98154" lon="-2.03218">
        <ele>2.2</ele>
        <time>2020-06-04T14:32:18Z</time>
      </trkpt>
      <trkpt lat="46.98156" lon="-2.03212">
        <ele>2.2</ele>
        <time>2020-06-04T14:32:19Z</time>
      </trkpt>
      <trkpt lat="46.98157" lon="-2.03205">
        <ele>2.2</ele>
        <time>2020-06-04T14:32:20Z</time>
      </trkpt>
      <trkpt lat="46.98158" lon="-2.03199">
        <ele>2.3</ele>
        <time>2020-06-04T14:32:21Z</time>
      </trkpt>
      <trkpt lat="46.98159" lon="-2.03194">
        <ele>2.3</ele>
        <time>2020-06-04T14:32:22Z</time>
      </trkpt>
      <trkpt lat="46.9816" lon="-2.03187">
        <ele>2.3</ele>
        <time>2020-06-04T14:32:23Z</time>
      </trkpt>
      <trkpt lat="46.9816" lon="-2.0318">
        <ele>2.3</ele>
        <time>2020-06-04T14:32:24Z</time>
      </trkpt>
      <trkpt lat="46.9816" lon="-2.03173">
        <ele>2.3</ele>
        <time>2020-06-04T14:32:25Z</time>
      </trkpt>
      <trkpt lat="46.9816" lon="-2.03166">
        <ele>2.3</ele>
        <time>2020-06-04T14:32:26Z</time>
      </trkpt>
      <trkpt lat="46.98161" lon="-2.03159">
        <ele>2.3</ele>
        <time>2020-06-04T14:32:27Z</time>
      </trkpt>
      <trkpt lat="46.98161" lon="-2.0315">
        <ele>2.3</ele>
        <time>2020-06-04T14:32:28Z</time>
      </trkpt>
      <trkpt lat="46.98162" lon="-2.03144">
        <ele>2.3</ele>
        <time>2020-06-04T14:32:29Z</time>
      </trkpt>
      <trkpt lat="46.98162" lon="-2.03137">
        <ele>2.3</ele>
        <time>2020-06-04T14:32:30Z</time>
      </trkpt>
      <trkpt lat="46.98163" lon="-2.03129">
        <ele>2.3</ele>
        <time>2020-06-04T14:32:31Z</time>
      </trkpt>
      <trkpt lat="46.98163" lon="-2.03122">
        <ele>2.3</ele>
        <time>2020-06-04T14:32:32Z</time>
      </trkpt>
      <trkpt lat="46.98163" lon="-2.03115">
        <ele>2.3</ele>
        <time>2020-06-04T14:32:33Z</time>
      </trkpt>
      <trkpt lat="46.98163" lon="-2.03108">
        <ele>2.4</ele>
        <time>2020-06-04T14:32:34Z</time>
      </trkpt>
      <trkpt lat="46.98163" lon="-2.03101">
        <ele>2.4</ele>
        <time>2020-06-04T14:32:35Z</time>
      </trkpt>
      <trkpt lat="46.98164" lon="-2.03095">
        <ele>2.4</ele>
        <time>2020-06-04T14:32:36Z</time>
      </trkpt>
      <trkpt lat="46.98165" lon="-2.03087">
        <ele>2.4</ele>
        <time>2020-06-04T14:32:37Z</time>
      </trkpt>
      <trkpt lat="46.98165" lon="-2.03079">
        <ele>2.4</ele>
        <time>2020-06-04T14:32:38Z</time>
      </trkpt>
      <trkpt lat="46.98169" lon="-2.03073">
        <ele>2.5</ele>
        <time>2020-06-04T14:32:39Z</time>
      </trkpt>
      <trkpt lat="46.98173" lon="-2.0307">
        <ele>2.5</ele>
        <time>2020-06-04T14:32:40Z</time>
      </trkpt>
      <trkpt lat="46.98179" lon="-2.03068">
        <ele>2.5</ele>
        <time>2020-06-04T14:32:41Z</time>
      </trkpt>
      <trkpt lat="46.98184" lon="-2.03066">
        <ele>2.5</ele>
        <time>2020-06-04T14:32:42Z</time>
      </trkpt>
      <trkpt lat="46.98188" lon="-2.03064">
        <ele>2.5</ele>
        <time>2020-06-04T14:32:43Z</time>
      </trkpt>
      <trkpt lat="46.98193" lon="-2.03062">
        <ele>2.5</ele>
        <time>2020-06-04T14:32:44Z</time>
      </trkpt>
      <trkpt lat="46.98197" lon="-2.03059">
        <ele>2.6</ele>
        <time>2020-06-04T14:32:45Z</time>
      </trkpt>
      <trkpt lat="46.98202" lon="-2.03058">
        <ele>2.6</ele>
        <time>2020-06-04T14:32:46Z</time>
      </trkpt>
      <trkpt lat="46.98206" lon="-2.03055">
        <ele>2.5</ele>
        <time>2020-06-04T14:32:47Z</time>
      </trkpt>
      <trkpt lat="46.9821" lon="-2.03054">
        <ele>2.5</ele>
        <time>2020-06-04T14:32:48Z</time>
      </trkpt>
      <trkpt lat="46.98214" lon="-2.03052">
        <ele>2.5</ele>
        <time>2020-06-04T14:32:49Z</time>
      </trkpt>
      <trkpt lat="46.98219" lon="-2.03051">
        <ele>2.4</ele>
        <time>2020-06-04T14:32:50Z</time>
      </trkpt>
      <trkpt lat="46.98223" lon="-2.03049">
        <ele>2.4</ele>
        <time>2020-06-04T14:32:51Z</time>
      </trkpt>
      <trkpt lat="46.98228" lon="-2.03049">
        <ele>2.3</ele>
        <time>2020-06-04T14:32:52Z</time>
      </trkpt>
      <trkpt lat="46.98232" lon="-2.03049">
        <ele>2.2</ele>
        <time>2020-06-04T14:32:53Z</time>
      </trkpt>
      <trkpt lat="46.98236" lon="-2.0305">
        <ele>2.2</ele>
        <time>2020-06-04T14:32:54Z</time>
      </trkpt>
      <trkpt lat="46.9824" lon="-2.03053">
        <ele>2.1</ele>
        <time>2020-06-04T14:32:55Z</time>
      </trkpt>
      <trkpt lat="46.98245" lon="-2.03057">
        <ele>2.1</ele>
        <time>2020-06-04T14:32:56Z</time>
      </trkpt>
      <trkpt lat="46.98249" lon="-2.03064">
        <ele>2.1</ele>
        <time>2020-06-04T14:32:57Z</time>
      </trkpt>
      <trkpt lat="46.9825" lon="-2.03069">
        <ele>2.1</ele>
        <time>2020-06-04T14:32:58Z</time>
      </trkpt>
      <trkpt lat="46.98251" lon="-2.03075">
        <ele>2.1</ele>
        <time>2020-06-04T14:32:59Z</time>
      </trkpt>
      <trkpt lat="46.98251" lon="-2.03082">
        <ele>2.2</ele>
        <time>2020-06-04T14:33:00Z</time>
      </trkpt>
      <trkpt lat="46.98253" lon="-2.03089">
        <ele>2.3</ele>
        <time>2020-06-04T14:33:01Z</time>
      </trkpt>
      <trkpt lat="46.98255" lon="-2.03095">
        <ele>2.3</ele>
        <time>2020-06-04T14:33:02Z</time>
      </trkpt>
      <trkpt lat="46.98257" lon="-2.03101">
        <ele>2.4</ele>
        <time>2020-06-04T14:33:03Z</time>
      </trkpt>
      <trkpt lat="46.9826" lon="-2.03106">
        <ele>2.4</ele>
        <time>2020-06-04T14:33:04Z</time>
      </trkpt>
      <trkpt lat="46.98264" lon="-2.03108">
        <ele>2.4</ele>
        <time>2020-06-04T14:33:05Z</time>
      </trkpt>
      <trkpt lat="46.98268" lon="-2.03109">
        <ele>2.4</ele>
        <time>2020-06-04T14:33:06Z</time>
      </trkpt>
      <trkpt lat="46.98272" lon="-2.03111">
        <ele>2.4</ele>
        <time>2020-06-04T14:33:07Z</time>
      </trkpt>
      <trkpt lat="46.98277" lon="-2.03112">
        <ele>2.4</ele>
        <time>2020-06-04T14:33:08Z</time>
      </trkpt>
      <trkpt lat="46.98282" lon="-2.03111">
        <ele>2.4</ele>
        <time>2020-06-04T14:33:09Z</time>
      </trkpt>
      <trkpt lat="46.98287" lon="-2.0311">
        <ele>2.4</ele>
        <time>2020-06-04T14:33:10Z</time>
      </trkpt>
      <trkpt lat="46.98291" lon="-2.0311">
        <ele>2.4</ele>
        <time>2020-06-04T14:33:11Z</time>
      </trkpt>
      <trkpt lat="46.98296" lon="-2.03111">
        <ele>2.5</ele>
        <time>2020-06-04T14:33:12Z</time>
      </trkpt>
      <trkpt lat="46.98301" lon="-2.03111">
        <ele>2.5</ele>
        <time>2020-06-04T14:33:13Z</time>
      </trkpt>
      <trkpt lat="46.98306" lon="-2.0311">
        <ele>2.5</ele>
        <time>2020-06-04T14:33:14Z</time>
      </trkpt>
      <trkpt lat="46.9831" lon="-2.0311">
        <ele>2.5</ele>
        <time>2020-06-04T14:33:15Z</time>
      </trkpt>
      <trkpt lat="46.98314" lon="-2.03111">
        <ele>2.5</ele>
        <time>2020-06-04T14:33:16Z</time>
      </trkpt>
      <trkpt lat="46.98318" lon="-2.03111">
        <ele>2.5</ele>
        <time>2020-06-04T14:33:17Z</time>
      </trkpt>
      <trkpt lat="46.98322" lon="-2.03111">
        <ele>2.6</ele>
        <time>2020-06-04T14:33:18Z</time>
      </trkpt>
      <trkpt lat="46.98327" lon="-2.03111">
        <ele>2.6</ele>
        <time>2020-06-04T14:33:19Z</time>
      </trkpt>
      <trkpt lat="46.98332" lon="-2.0311">
        <ele>2.6</ele>
        <time>2020-06-04T14:33:20Z</time>
      </trkpt>
      <trkpt lat="46.98337" lon="-2.0311">
        <ele>2.5</ele>
        <time>2020-06-04T14:33:21Z</time>
      </trkpt>
      <trkpt lat="46.9834" lon="-2.03111">
        <ele>2.5</ele>
        <time>2020-06-04T14:33:22Z</time>
      </trkpt>
      <trkpt lat="46.98344" lon="-2.03111">
        <ele>2.5</ele>
        <time>2020-06-04T14:33:23Z</time>
      </trkpt>
      <trkpt lat="46.98348" lon="-2.03111">
        <ele>2.5</ele>
        <time>2020-06-04T14:33:24Z</time>
      </trkpt>
      <trkpt lat="46.98352" lon="-2.03111">
        <ele>2.5</ele>
        <time>2020-06-04T14:33:25Z</time>
      </trkpt>
      <trkpt lat="46.98357" lon="-2.03112">
        <ele>2.5</ele>
        <time>2020-06-04T14:33:26Z</time>
      </trkpt>
      <trkpt lat="46.98361" lon="-2.03112">
        <ele>2.5</ele>
        <time>2020-06-04T14:33:27Z</time>
      </trkpt>
      <trkpt lat="46.98364" lon="-2.03112">
        <ele>2.4</ele>
        <time>2020-06-04T14:33:28Z</time>
      </trkpt>
      <trkpt lat="46.98369" lon="-2.03111">
        <ele>2.4</ele>
        <time>2020-06-04T14:33:29Z</time>
      </trkpt>
      <trkpt lat="46.98373" lon="-2.03112">
        <ele>2.4</ele>
        <time>2020-06-04T14:33:30Z</time>
      </trkpt>
      <trkpt lat="46.98377" lon="-2.03114">
        <ele>2.4</ele>
        <time>2020-06-04T14:33:31Z</time>
      </trkpt>
      <trkpt lat="46.98382" lon="-2.03116">
        <ele>2.3</ele>
        <time>2020-06-04T14:33:32Z</time>
      </trkpt>
      <trkpt lat="46.98385" lon="-2.03117">
        <ele>2.3</ele>
        <time>2020-06-04T14:33:33Z</time>
      </trkpt>
      <trkpt lat="46.98389" lon="-2.03118">
        <ele>2.3</ele>
        <time>2020-06-04T14:33:34Z</time>
      </trkpt>
      <trkpt lat="46.98393" lon="-2.03121">
        <ele>2.3</ele>
        <time>2020-06-04T14:33:35Z</time>
      </trkpt>
      <trkpt lat="46.98397" lon="-2.03123">
        <ele>2.3</ele>
        <time>2020-06-04T14:33:36Z</time>
      </trkpt>
      <trkpt lat="46.98402" lon="-2.03125">
        <ele>2.3</ele>
        <time>2020-06-04T14:33:37Z</time>
      </trkpt>
      <trkpt lat="46.98406" lon="-2.03127">
        <ele>2.3</ele>
        <time>2020-06-04T14:33:38Z</time>
      </trkpt>
      <trkpt lat="46.98411" lon="-2.03129">
        <ele>2.3</ele>
        <time>2020-06-04T14:33:39Z</time>
      </trkpt>
      <trkpt lat="46.98415" lon="-2.03131">
        <ele>2.3</ele>
        <time>2020-06-04T14:33:40Z</time>
      </trkpt>
      <trkpt lat="46.98419" lon="-2.03132">
        <ele>2.3</ele>
        <time>2020-06-04T14:33:41Z</time>
      </trkpt>
      <trkpt lat="46.98424" lon="-2.03133">
        <ele>2.3</ele>
        <time>2020-06-04T14:33:42Z</time>
      </trkpt>
      <trkpt lat="46.98429" lon="-2.03134">
        <ele>2.3</ele>
        <time>2020-06-04T14:33:43Z</time>
      </trkpt>
      <trkpt lat="46.98433" lon="-2.03136">
        <ele>2.3</ele>
        <time>2020-06-04T14:33:44Z</time>
      </trkpt>
      <trkpt lat="46.98437" lon="-2.03138">
        <ele>2.3</ele>
        <time>2020-06-04T14:33:45Z</time>
      </trkpt>
      <trkpt lat="46.98442" lon="-2.03139">
        <ele>2.3</ele>
        <time>2020-06-04T14:33:46Z</time>
      </trkpt>
      <trkpt lat="46.98446" lon="-2.0314">
        <ele>2.3</ele>
        <time>2020-06-04T14:33:47Z</time>
      </trkpt>
      <trkpt lat="46.98451" lon="-2.03141">
        <ele>2.3</ele>
        <time>2020-06-04T14:33:48Z</time>
      </trkpt>
      <trkpt lat="46.98455" lon="-2.03143">
        <ele>2.3</ele>
        <time>2020-06-04T14:33:49Z</time>
      </trkpt>
      <trkpt lat="46.98459" lon="-2.03144">
        <ele>2.3</ele>
        <time>2020-06-04T14:33:50Z</time>
      </trkpt>
      <trkpt lat="46.98463" lon="-2.03145">
        <ele>2.3</ele>
        <time>2020-06-04T14:33:51Z</time>
      </trkpt>
      <trkpt lat="46.98468" lon="-2.03147">
        <ele>2.3</ele>
        <time>2020-06-04T14:33:52Z</time>
      </trkpt>
      <trkpt lat="46.98472" lon="-2.03148">
        <ele>2.3</ele>
        <time>2020-06-04T14:33:53Z</time>
      </trkpt>
      <trkpt lat="46.98477" lon="-2.03149">
        <ele>2.4</ele>
        <time>2020-06-04T14:33:54Z</time>
      </trkpt>
      <trkpt lat="46.98481" lon="-2.03149">
        <ele>2.4</ele>
        <time>2020-06-04T14:33:55Z</time>
      </trkpt>
      <trkpt lat="46.98486" lon="-2.03147">
        <ele>2.4</ele>
        <time>2020-06-04T14:33:56Z</time>
      </trkpt>
      <trkpt lat="46.9849" lon="-2.03142">
        <ele>2.4</ele>
        <time>2020-06-04T14:33:57Z</time>
      </trkpt>
      <trkpt lat="46.98494" lon="-2.03136">
        <ele>2.4</ele>
        <time>2020-06-04T14:33:58Z</time>
      </trkpt>
      <trkpt lat="46.98497" lon="-2.03131">
        <ele>2.4</ele>
        <time>2020-06-04T14:33:59Z</time>
      </trkpt>
      <trkpt lat="46.985" lon="-2.03125">
        <ele>2.5</ele>
        <time>2020-06-04T14:34:00Z</time>
      </trkpt>
      <trkpt lat="46.98502" lon="-2.03119">
        <ele>2.5</ele>
        <time>2020-06-04T14:34:01Z</time>
      </trkpt>
      <trkpt lat="46.98504" lon="-2.03113">
        <ele>2.5</ele>
        <time>2020-06-04T14:34:02Z</time>
      </trkpt>
      <trkpt lat="46.98506" lon="-2.03106">
        <ele>2.5</ele>
        <time>2020-06-04T14:34:03Z</time>
      </trkpt>
      <trkpt lat="46.98508" lon="-2.03099">
        <ele>2.5</ele>
        <time>2020-06-04T14:34:04Z</time>
      </trkpt>
      <trkpt lat="46.98509" lon="-2.03092">
        <ele>2.6</ele>
        <time>2020-06-04T14:34:05Z</time>
      </trkpt>
      <trkpt lat="46.98511" lon="-2.03085">
        <ele>2.6</ele>
        <time>2020-06-04T14:34:06Z</time>
      </trkpt>
      <trkpt lat="46.98512" lon="-2.03078">
        <ele>2.6</ele>
        <time>2020-06-04T14:34:07Z</time>
      </trkpt>
      <trkpt lat="46.98513" lon="-2.03071">
        <ele>2.6</ele>
        <time>2020-06-04T14:34:08Z</time>
      </trkpt>
      <trkpt lat="46.98513" lon="-2.03065">
        <ele>2.6</ele>
        <time>2020-06-04T14:34:09Z</time>
      </trkpt>
      <trkpt lat="46.98514" lon="-2.03059">
        <ele>2.6</ele>
        <time>2020-06-04T14:34:10Z</time>
      </trkpt>
      <trkpt lat="46.98516" lon="-2.03054">
        <ele>2.5</ele>
        <time>2020-06-04T14:34:11Z</time>
      </trkpt>
      <trkpt lat="46.98519" lon="-2.03049">
        <ele>2.5</ele>
        <time>2020-06-04T14:34:12Z</time>
      </trkpt>
      <trkpt lat="46.98521" lon="-2.03043">
        <ele>2.5</ele>
        <time>2020-06-04T14:34:13Z</time>
      </trkpt>
      <trkpt lat="46.98524" lon="-2.03038">
        <ele>2.5</ele>
        <time>2020-06-04T14:34:14Z</time>
      </trkpt>
      <trkpt lat="46.98526" lon="-2.03032">
        <ele>2.4</ele>
        <time>2020-06-04T14:34:15Z</time>
      </trkpt>
      <trkpt lat="46.98529" lon="-2.03026">
        <ele>2.4</ele>
        <time>2020-06-04T14:34:16Z</time>
      </trkpt>
      <trkpt lat="46.98531" lon="-2.03021">
        <ele>2.4</ele>
        <time>2020-06-04T14:34:17Z</time>
      </trkpt>
      <trkpt lat="46.98533" lon="-2.03015">
        <ele>2.4</ele>
        <time>2020-06-04T14:34:18Z</time>
      </trkpt>
      <trkpt lat="46.98536" lon="-2.0301">
        <ele>2.4</ele>
        <time>2020-06-04T14:34:19Z</time>
      </trkpt>
      <trkpt lat="46.98539" lon="-2.03005">
        <ele>2.4</ele>
        <time>2020-06-04T14:34:20Z</time>
      </trkpt>
      <trkpt lat="46.98542" lon="-2.02998">
        <ele>2.4</ele>
        <time>2020-06-04T14:34:21Z</time>
      </trkpt>
      <trkpt lat="46.98545" lon="-2.02992">
        <ele>2.4</ele>
        <time>2020-06-04T14:34:22Z</time>
      </trkpt>
      <trkpt lat="46.98548" lon="-2.02986">
        <ele>2.4</ele>
        <time>2020-06-04T14:34:23Z</time>
      </trkpt>
      <trkpt lat="46.98552" lon="-2.0298">
        <ele>2.4</ele>
        <time>2020-06-04T14:34:24Z</time>
      </trkpt>
      <trkpt lat="46.98555" lon="-2.02975">
        <ele>2.4</ele>
        <time>2020-06-04T14:34:25Z</time>
      </trkpt>
      <trkpt lat="46.98558" lon="-2.02969">
        <ele>2.4</ele>
        <time>2020-06-04T14:34:26Z</time>
      </trkpt>
      <trkpt lat="46.98561" lon="-2.02964">
        <ele>2.4</ele>
        <time>2020-06-04T14:34:27Z</time>
      </trkpt>
      <trkpt lat="46.98564" lon="-2.02958">
        <ele>2.3</ele>
        <time>2020-06-04T14:34:28Z</time>
      </trkpt>
      <trkpt lat="46.98567" lon="-2.02952">
        <ele>2.3</ele>
        <time>2020-06-04T14:34:29Z</time>
      </trkpt>
      <trkpt lat="46.9857" lon="-2.02948">
        <ele>2.3</ele>
        <time>2020-06-04T14:34:30Z</time>
      </trkpt>
      <trkpt lat="46.98573" lon="-2.02943">
        <ele>2.2</ele>
        <time>2020-06-04T14:34:31Z</time>
      </trkpt>
      <trkpt lat="46.98577" lon="-2.02937">
        <ele>2.2</ele>
        <time>2020-06-04T14:34:32Z</time>
      </trkpt>
      <trkpt lat="46.98579" lon="-2.02932">
        <ele>2.2</ele>
        <time>2020-06-04T14:34:33Z</time>
      </trkpt>
      <trkpt lat="46.98582" lon="-2.02926">
        <ele>2.1</ele>
        <time>2020-06-04T14:34:34Z</time>
      </trkpt>
      <trkpt lat="46.98584" lon="-2.02922">
        <ele>2.1</ele>
        <time>2020-06-04T14:34:35Z</time>
      </trkpt>
      <trkpt lat="46.98587" lon="-2.02918">
        <ele>2.1</ele>
        <time>2020-06-04T14:34:36Z</time>
      </trkpt>
      <trkpt lat="46.9859" lon="-2.02914">
        <ele>2.1</ele>
        <time>2020-06-04T14:34:37Z</time>
      </trkpt>
      <trkpt lat="46.98592" lon="-2.02911">
        <ele>2.1</ele>
        <time>2020-06-04T14:34:38Z</time>
      </trkpt>
      <trkpt lat="46.98596" lon="-2.0291">
        <ele>2.1</ele>
        <time>2020-06-04T14:34:39Z</time>
      </trkpt>
      <trkpt lat="46.98599" lon="-2.02913">
        <ele>2.1</ele>
        <time>2020-06-04T14:34:40Z</time>
      </trkpt>
      <trkpt lat="46.98603" lon="-2.02915">
        <ele>2.1</ele>
        <time>2020-06-04T14:34:41Z</time>
      </trkpt>
      <trkpt lat="46.98606" lon="-2.02916">
        <ele>2.1</ele>
        <time>2020-06-04T14:34:42Z</time>
      </trkpt>
      <trkpt lat="46.9861" lon="-2.02917">
        <ele>2.1</ele>
        <time>2020-06-04T14:34:43Z</time>
      </trkpt>
      <trkpt lat="46.98614" lon="-2.02918">
        <ele>2.1</ele>
        <time>2020-06-04T14:34:44Z</time>
      </trkpt>
      <trkpt lat="46.98617" lon="-2.0292">
        <ele>2.1</ele>
        <time>2020-06-04T14:34:45Z</time>
      </trkpt>
      <trkpt lat="46.98621" lon="-2.02921">
        <ele>2.1</ele>
        <time>2020-06-04T14:34:46Z</time>
      </trkpt>
      <trkpt lat="46.98625" lon="-2.02923">
        <ele>2.1</ele>
        <time>2020-06-04T14:34:47Z</time>
      </trkpt>
      <trkpt lat="46.98629" lon="-2.02924">
        <ele>2.1</ele>
        <time>2020-06-04T14:34:48Z</time>
      </trkpt>
      <trkpt lat="46.98634" lon="-2.02925">
        <ele>2.1</ele>
        <time>2020-06-04T14:34:49Z</time>
      </trkpt>
      <trkpt lat="46.98637" lon="-2.02927">
        <ele>2.1</ele>
        <time>2020-06-04T14:34:50Z</time>
      </trkpt>
      <trkpt lat="46.98642" lon="-2.02928">
        <ele>2.1</ele>
        <time>2020-06-04T14:34:51Z</time>
      </trkpt>
      <trkpt lat="46.98647" lon="-2.02929">
        <ele>2.1</ele>
        <time>2020-06-04T14:34:52Z</time>
      </trkpt>
      <trkpt lat="46.98651" lon="-2.02931">
        <ele>2.1</ele>
        <time>2020-06-04T14:34:53Z</time>
      </trkpt>
      <trkpt lat="46.98655" lon="-2.02931">
        <ele>2.1</ele>
        <time>2020-06-04T14:34:54Z</time>
      </trkpt>
      <trkpt lat="46.98659" lon="-2.02932">
        <ele>2.1</ele>
        <time>2020-06-04T14:34:55Z</time>
      </trkpt>
      <trkpt lat="46.98663" lon="-2.02933">
        <ele>2.1</ele>
        <time>2020-06-04T14:34:56Z</time>
      </trkpt>
      <trkpt lat="46.98667" lon="-2.02935">
        <ele>2.1</ele>
        <time>2020-06-04T14:34:57Z</time>
      </trkpt>
      <trkpt lat="46.98671" lon="-2.02938">
        <ele>2.1</ele>
        <time>2020-06-04T14:34:58Z</time>
      </trkpt>
      <trkpt lat="46.98675" lon="-2.02941">
        <ele>2.1</ele>
        <time>2020-06-04T14:34:59Z</time>
      </trkpt>
      <trkpt lat="46.98679" lon="-2.02946">
        <ele>2.1</ele>
        <time>2020-06-04T14:35:00Z</time>
      </trkpt>
      <trkpt lat="46.98683" lon="-2.02951">
        <ele>2.1</ele>
        <time>2020-06-04T14:35:01Z</time>
      </trkpt>
      <trkpt lat="46.98687" lon="-2.02957">
        <ele>2.1</ele>
        <time>2020-06-04T14:35:02Z</time>
      </trkpt>
      <trkpt lat="46.9869" lon="-2.02963">
        <ele>2.1</ele>
        <time>2020-06-04T14:35:03Z</time>
      </trkpt>
      <trkpt lat="46.98694" lon="-2.02968">
        <ele>2.1</ele>
        <time>2020-06-04T14:35:04Z</time>
      </trkpt>
      <trkpt lat="46.98696" lon="-2.02974">
        <ele>2.1</ele>
        <time>2020-06-04T14:35:05Z</time>
      </trkpt>
      <trkpt lat="46.98699" lon="-2.02979">
        <ele>2.1</ele>
        <time>2020-06-04T14:35:06Z</time>
      </trkpt>
      <trkpt lat="46.98702" lon="-2.02983">
        <ele>2.1</ele>
        <time>2020-06-04T14:35:07Z</time>
      </trkpt>
      <trkpt lat="46.98704" lon="-2.02988">
        <ele>2.1</ele>
        <time>2020-06-04T14:35:08Z</time>
      </trkpt>
      <trkpt lat="46.98707" lon="-2.02992">
        <ele>2.1</ele>
        <time>2020-06-04T14:35:09Z</time>
      </trkpt>
      <trkpt lat="46.9871" lon="-2.02996">
        <ele>2.1</ele>
        <time>2020-06-04T14:35:10Z</time>
      </trkpt>
      <trkpt lat="46.98713" lon="-2.03001">
        <ele>2.1</ele>
        <time>2020-06-04T14:35:11Z</time>
      </trkpt>
      <trkpt lat="46.98715" lon="-2.03006">
        <ele>2.1</ele>
        <time>2020-06-04T14:35:12Z</time>
      </trkpt>
      <trkpt lat="46.98719" lon="-2.03009">
        <ele>2.1</ele>
        <time>2020-06-04T14:35:13Z</time>
      </trkpt>
      <trkpt lat="46.98722" lon="-2.03013">
        <ele>2.1</ele>
        <time>2020-06-04T14:35:14Z</time>
      </trkpt>
      <trkpt lat="46.98724" lon="-2.03017">
        <ele>2.2</ele>
        <time>2020-06-04T14:35:15Z</time>
      </trkpt>
      <trkpt lat="46.98728" lon="-2.0302">
        <ele>2.2</ele>
        <time>2020-06-04T14:35:16Z</time>
      </trkpt>
      <trkpt lat="46.98731" lon="-2.03025">
        <ele>2.2</ele>
        <time>2020-06-04T14:35:17Z</time>
      </trkpt>
      <trkpt lat="46.98734" lon="-2.0303">
        <ele>2.2</ele>
        <time>2020-06-04T14:35:18Z</time>
      </trkpt>
      <trkpt lat="46.98738" lon="-2.03034">
        <ele>2.2</ele>
        <time>2020-06-04T14:35:19Z</time>
      </trkpt>
      <trkpt lat="46.98741" lon="-2.03039">
        <ele>2.2</ele>
        <time>2020-06-04T14:35:20Z</time>
      </trkpt>
      <trkpt lat="46.98744" lon="-2.03043">
        <ele>2.2</ele>
        <time>2020-06-04T14:35:21Z</time>
      </trkpt>
      <trkpt lat="46.98747" lon="-2.03049">
        <ele>2.2</ele>
        <time>2020-06-04T14:35:22Z</time>
      </trkpt>
      <trkpt lat="46.9875" lon="-2.03055">
        <ele>2.2</ele>
        <time>2020-06-04T14:35:23Z</time>
      </trkpt>
      <trkpt lat="46.98752" lon="-2.0306">
        <ele>2.2</ele>
        <time>2020-06-04T14:35:24Z</time>
      </trkpt>
      <trkpt lat="46.98755" lon="-2.03066">
        <ele>2.2</ele>
        <time>2020-06-04T14:35:25Z</time>
      </trkpt>
      <trkpt lat="46.98757" lon="-2.03072">
        <ele>2.2</ele>
        <time>2020-06-04T14:35:26Z</time>
      </trkpt>
      <trkpt lat="46.9876" lon="-2.03077">
        <ele>2.2</ele>
        <time>2020-06-04T14:35:27Z</time>
      </trkpt>
      <trkpt lat="46.98763" lon="-2.03082">
        <ele>2.2</ele>
        <time>2020-06-04T14:35:28Z</time>
      </trkpt>
      <trkpt lat="46.98766" lon="-2.03086">
        <ele>2.2</ele>
        <time>2020-06-04T14:35:29Z</time>
      </trkpt>
      <trkpt lat="46.98769" lon="-2.03091">
        <ele>2.2</ele>
        <time>2020-06-04T14:35:30Z</time>
      </trkpt>
      <trkpt lat="46.98772" lon="-2.03095">
        <ele>2.2</ele>
        <time>2020-06-04T14:35:31Z</time>
      </trkpt>
      <trkpt lat="46.98776" lon="-2.03099">
        <ele>2.2</ele>
        <time>2020-06-04T14:35:32Z</time>
      </trkpt>
      <trkpt lat="46.98779" lon="-2.03102">
        <ele>2.2</ele>
        <time>2020-06-04T14:35:33Z</time>
      </trkpt>
      <trkpt lat="46.98783" lon="-2.03104">
        <ele>2.2</ele>
        <time>2020-06-04T14:35:34Z</time>
      </trkpt>
      <trkpt lat="46.98787" lon="-2.03106">
        <ele>2.2</ele>
        <time>2020-06-04T14:35:35Z</time>
      </trkpt>
      <trkpt lat="46.98791" lon="-2.03109">
        <ele>2.2</ele>
        <time>2020-06-04T14:35:36Z</time>
      </trkpt>
      <trkpt lat="46.98795" lon="-2.03111">
        <ele>2.2</ele>
        <time>2020-06-04T14:35:37Z</time>
      </trkpt>
      <trkpt lat="46.98797" lon="-2.03114">
        <ele>2.1</ele>
        <time>2020-06-04T14:35:38Z</time>
      </trkpt>
      <trkpt lat="46.98801" lon="-2.03117">
        <ele>2.1</ele>
        <time>2020-06-04T14:35:39Z</time>
      </trkpt>
      <trkpt lat="46.98805" lon="-2.0312">
        <ele>2.1</ele>
        <time>2020-06-04T14:35:40Z</time>
      </trkpt>
      <trkpt lat="46.98808" lon="-2.03123">
        <ele>2.1</ele>
        <time>2020-06-04T14:35:41Z</time>
      </trkpt>
      <trkpt lat="46.98812" lon="-2.03125">
        <ele>2.1</ele>
        <time>2020-06-04T14:35:42Z</time>
      </trkpt>
      <trkpt lat="46.98817" lon="-2.03128">
        <ele>2.2</ele>
        <time>2020-06-04T14:35:43Z</time>
      </trkpt>
      <trkpt lat="46.9882" lon="-2.03131">
        <ele>2.2</ele>
        <time>2020-06-04T14:35:44Z</time>
      </trkpt>
      <trkpt lat="46.98824" lon="-2.03133">
        <ele>2.2</ele>
        <time>2020-06-04T14:35:45Z</time>
      </trkpt>
      <trkpt lat="46.98828" lon="-2.03135">
        <ele>2.2</ele>
        <time>2020-06-04T14:35:46Z</time>
      </trkpt>
      <trkpt lat="46.98831" lon="-2.03139">
        <ele>2.2</ele>
        <time>2020-06-04T14:35:47Z</time>
      </trkpt>
      <trkpt lat="46.98834" lon="-2.03142">
        <ele>2.2</ele>
        <time>2020-06-04T14:35:48Z</time>
      </trkpt>
      <trkpt lat="46.98838" lon="-2.03143">
        <ele>2.2</ele>
        <time>2020-06-04T14:35:49Z</time>
      </trkpt>
      <trkpt lat="46.98841" lon="-2.03144">
        <ele>2.2</ele>
        <time>2020-06-04T14:35:50Z</time>
      </trkpt>
      <trkpt lat="46.98844" lon="-2.03146">
        <ele>2.3</ele>
        <time>2020-06-04T14:35:51Z</time>
      </trkpt>
      <trkpt lat="46.98847" lon="-2.03148">
        <ele>2.3</ele>
        <time>2020-06-04T14:35:52Z</time>
      </trkpt>
      <trkpt lat="46.9885" lon="-2.03149">
        <ele>2.3</ele>
        <time>2020-06-04T14:35:53Z</time>
      </trkpt>
      <trkpt lat="46.98854" lon="-2.0315">
        <ele>2.3</ele>
        <time>2020-06-04T14:35:54Z</time>
      </trkpt>
      <trkpt lat="46.98856" lon="-2.03151">
        <ele>2.3</ele>
        <time>2020-06-04T14:35:55Z</time>
      </trkpt>
      <trkpt lat="46.98859" lon="-2.03152">
        <ele>2.3</ele>
        <time>2020-06-04T14:35:56Z</time>
      </trkpt>
      <trkpt lat="46.98863" lon="-2.03152">
        <ele>2.3</ele>
        <time>2020-06-04T14:35:57Z</time>
      </trkpt>
      <trkpt lat="46.98866" lon="-2.03152">
        <ele>2.4</ele>
        <time>2020-06-04T14:35:58Z</time>
      </trkpt>
      <trkpt lat="46.9887" lon="-2.03152">
        <ele>2.4</ele>
        <time>2020-06-04T14:35:59Z</time>
      </trkpt>
      <trkpt lat="46.98874" lon="-2.03152">
        <ele>2.4</ele>
        <time>2020-06-04T14:36:00Z</time>
      </trkpt>
      <trkpt lat="46.98878" lon="-2.0315">
        <ele>2.4</ele>
        <time>2020-06-04T14:36:01Z</time>
      </trkpt>
      <trkpt lat="46.98882" lon="-2.03149">
        <ele>2.4</ele>
        <time>2020-06-04T14:36:02Z</time>
      </trkpt>
      <trkpt lat="46.98887" lon="-2.03148">
        <ele>2.4</ele>
        <time>2020-06-04T14:36:03Z</time>
      </trkpt>
      <trkpt lat="46.98891" lon="-2.03146">
        <ele>2.4</ele>
        <time>2020-06-04T14:36:04Z</time>
      </trkpt>
      <trkpt lat="46.98895" lon="-2.03143">
        <ele>2.4</ele>
        <time>2020-06-04T14:36:05Z</time>
      </trkpt>
      <trkpt lat="46.98899" lon="-2.03139">
        <ele>2.5</ele>
        <time>2020-06-04T14:36:06Z</time>
      </trkpt>
      <trkpt lat="46.98903" lon="-2.03135">
        <ele>2.5</ele>
        <time>2020-06-04T14:36:07Z</time>
      </trkpt>
      <trkpt lat="46.98905" lon="-2.0313">
        <ele>2.5</ele>
        <time>2020-06-04T14:36:08Z</time>
      </trkpt>
      <trkpt lat="46.98907" lon="-2.03123">
        <ele>2.5</ele>
        <time>2020-06-04T14:36:09Z</time>
      </trkpt>
      <trkpt lat="46.98909" lon="-2.03118">
        <ele>2.5</ele>
        <time>2020-06-04T14:36:10Z</time>
      </trkpt>
      <trkpt lat="46.98912" lon="-2.03114">
        <ele>2.5</ele>
        <time>2020-06-04T14:36:11Z</time>
      </trkpt>
      <trkpt lat="46.98915" lon="-2.03109">
        <ele>2.6</ele>
        <time>2020-06-04T14:36:12Z</time>
      </trkpt>
      <trkpt lat="46.98917" lon="-2.03104">
        <ele>2.6</ele>
        <time>2020-06-04T14:36:13Z</time>
      </trkpt>
      <trkpt lat="46.98919" lon="-2.03098">
        <ele>2.6</ele>
        <time>2020-06-04T14:36:14Z</time>
      </trkpt>
      <trkpt lat="46.98922" lon="-2.03092">
        <ele>2.6</ele>
        <time>2020-06-04T14:36:15Z</time>
      </trkpt>
      <trkpt lat="46.98924" lon="-2.03085">
        <ele>2.6</ele>
        <time>2020-06-04T14:36:16Z</time>
      </trkpt>
      <trkpt lat="46.98927" lon="-2.0308">
        <ele>2.6</ele>
        <time>2020-06-04T14:36:17Z</time>
      </trkpt>
      <trkpt lat="46.9893" lon="-2.03076">
        <ele>2.7</ele>
        <time>2020-06-04T14:36:18Z</time>
      </trkpt>
      <trkpt lat="46.98932" lon="-2.03071">
        <ele>2.7</ele>
        <time>2020-06-04T14:36:19Z</time>
      </trkpt>
      <trkpt lat="46.98934" lon="-2.03066">
        <ele>2.7</ele>
        <time>2020-06-04T14:36:20Z</time>
      </trkpt>
      <trkpt lat="46.98936" lon="-2.03061">
        <ele>2.6</ele>
        <time>2020-06-04T14:36:21Z</time>
      </trkpt>
      <trkpt lat="46.98938" lon="-2.03058">
        <ele>2.6</ele>
        <time>2020-06-04T14:36:22Z</time>
      </trkpt>
      <trkpt lat="46.98941" lon="-2.03053">
        <ele>2.6</ele>
        <time>2020-06-04T14:36:23Z</time>
      </trkpt>
      <trkpt lat="46.98943" lon="-2.03049">
        <ele>2.6</ele>
        <time>2020-06-04T14:36:24Z</time>
      </trkpt>
      <trkpt lat="46.98946" lon="-2.03046">
        <ele>2.6</ele>
        <time>2020-06-04T14:36:25Z</time>
      </trkpt>
      <trkpt lat="46.9895" lon="-2.03043">
        <ele>2.6</ele>
        <time>2020-06-04T14:36:26Z</time>
      </trkpt>
      <trkpt lat="46.98954" lon="-2.03043">
        <ele>2.6</ele>
        <time>2020-06-04T14:36:27Z</time>
      </trkpt>
      <trkpt lat="46.98957" lon="-2.03043">
        <ele>2.6</ele>
        <time>2020-06-04T14:36:28Z</time>
      </trkpt>
      <trkpt lat="46.98961" lon="-2.03043">
        <ele>2.6</ele>
        <time>2020-06-04T14:36:29Z</time>
      </trkpt>
      <trkpt lat="46.98964" lon="-2.03044">
        <ele>2.6</ele>
        <time>2020-06-04T14:36:30Z</time>
      </trkpt>
      <trkpt lat="46.98967" lon="-2.03044">
        <ele>2.6</ele>
        <time>2020-06-04T14:36:31Z</time>
      </trkpt>
      <trkpt lat="46.98971" lon="-2.03044">
        <ele>2.6</ele>
        <time>2020-06-04T14:36:32Z</time>
      </trkpt>
      <trkpt lat="46.98974" lon="-2.03044">
        <ele>2.6</ele>
        <time>2020-06-04T14:36:33Z</time>
      </trkpt>
      <trkpt lat="46.98977" lon="-2.03045">
        <ele>2.6</ele>
        <time>2020-06-04T14:36:34Z</time>
      </trkpt>
      <trkpt lat="46.9898" lon="-2.03045">
        <ele>2.7</ele>
        <time>2020-06-04T14:36:35Z</time>
      </trkpt>
      <trkpt lat="46.98985" lon="-2.03045">
        <ele>2.7</ele>
        <time>2020-06-04T14:36:36Z</time>
      </trkpt>
      <trkpt lat="46.98988" lon="-2.03044">
        <ele>2.7</ele>
        <time>2020-06-04T14:36:37Z</time>
      </trkpt>
      <trkpt lat="46.98991" lon="-2.03043">
        <ele>2.8</ele>
        <time>2020-06-04T14:36:38Z</time>
      </trkpt>
      <trkpt lat="46.98995" lon="-2.03043">
        <ele>2.8</ele>
        <time>2020-06-04T14:36:39Z</time>
      </trkpt>
      <trkpt lat="46.98999" lon="-2.03041">
        <ele>2.8</ele>
        <time>2020-06-04T14:36:40Z</time>
      </trkpt>
      <trkpt lat="46.99002" lon="-2.03037">
        <ele>2.8</ele>
        <time>2020-06-04T14:36:41Z</time>
      </trkpt>
      <trkpt lat="46.99004" lon="-2.03033">
        <ele>2.9</ele>
        <time>2020-06-04T14:36:42Z</time>
      </trkpt>
      <trkpt lat="46.99006" lon="-2.03029">
        <ele>2.9</ele>
        <time>2020-06-04T14:36:43Z</time>
      </trkpt>
      <trkpt lat="46.99008" lon="-2.03025">
        <ele>2.9</ele>
        <time>2020-06-04T14:36:44Z</time>
      </trkpt>
      <trkpt lat="46.9901" lon="-2.03021">
        <ele>2.9</ele>
        <time>2020-06-04T14:36:45Z</time>
      </trkpt>
      <trkpt lat="46.99012" lon="-2.03018">
        <ele>2.9</ele>
        <time>2020-06-04T14:36:46Z</time>
      </trkpt>
      <trkpt lat="46.99014" lon="-2.03013">
        <ele>2.9</ele>
        <time>2020-06-04T14:36:47Z</time>
      </trkpt>
      <trkpt lat="46.99015" lon="-2.03012">
        <ele>2.9</ele>
        <time>2020-06-04T14:36:48Z</time>
      </trkpt>
      <trkpt lat="46.99018" lon="-2.03008">
        <ele>2.9</ele>
        <time>2020-06-04T14:36:49Z</time>
      </trkpt>
      <trkpt lat="46.9902" lon="-2.03006">
        <ele>2.9</ele>
        <time>2020-06-04T14:36:50Z</time>
      </trkpt>
      <trkpt lat="46.99022" lon="-2.03004">
        <ele>2.9</ele>
        <time>2020-06-04T14:36:51Z</time>
      </trkpt>
      <trkpt lat="46.99026" lon="-2.03003">
        <ele>2.9</ele>
        <time>2020-06-04T14:36:52Z</time>
      </trkpt>
      <trkpt lat="46.99029" lon="-2.03">
        <ele>2.9</ele>
        <time>2020-06-04T14:36:53Z</time>
      </trkpt>
      <trkpt lat="46.99032" lon="-2.02999">
        <ele>2.9</ele>
        <time>2020-06-04T14:36:54Z</time>
      </trkpt>
      <trkpt lat="46.99034" lon="-2.02996">
        <ele>2.9</ele>
        <time>2020-06-04T14:36:55Z</time>
      </trkpt>
      <trkpt lat="46.99037" lon="-2.02994">
        <ele>2.8</ele>
        <time>2020-06-04T14:36:56Z</time>
      </trkpt>
      <trkpt lat="46.99039" lon="-2.02989">
        <ele>2.8</ele>
        <time>2020-06-04T14:36:57Z</time>
      </trkpt>
      <trkpt lat="46.99041" lon="-2.02986">
        <ele>2.8</ele>
        <time>2020-06-04T14:36:58Z</time>
      </trkpt>
      <trkpt lat="46.99043" lon="-2.02982">
        <ele>2.8</ele>
        <time>2020-06-04T14:36:59Z</time>
      </trkpt>
      <trkpt lat="46.99046" lon="-2.02979">
        <ele>2.8</ele>
        <time>2020-06-04T14:37:00Z</time>
      </trkpt>
      <trkpt lat="46.99049" lon="-2.02975">
        <ele>2.8</ele>
        <time>2020-06-04T14:37:01Z</time>
      </trkpt>
      <trkpt lat="46.9905" lon="-2.02974">
        <ele>2.8</ele>
        <time>2020-06-04T14:37:02Z</time>
      </trkpt>
      <trkpt lat="46.99053" lon="-2.02972">
        <ele>2.8</ele>
        <time>2020-06-04T14:37:03Z</time>
      </trkpt>
      <trkpt lat="46.99054" lon="-2.02971">
        <ele>2.8</ele>
        <time>2020-06-04T14:37:04Z</time>
      </trkpt>
      <trkpt lat="46.99057" lon="-2.02969">
        <ele>2.8</ele>
        <time>2020-06-04T14:37:05Z</time>
      </trkpt>
      <trkpt lat="46.99057" lon="-2.02969">
        <ele>2.8</ele>
        <time>2020-06-04T14:37:06Z</time>
      </trkpt>
      <trkpt lat="46.99059" lon="-2.02968">
        <ele>2.8</ele>
        <time>2020-06-04T14:37:07Z</time>
      </trkpt>
      <trkpt lat="46.99061" lon="-2.02967">
        <ele>2.8</ele>
        <time>2020-06-04T14:37:08Z</time>
      </trkpt>
      <trkpt lat="46.99063" lon="-2.02967">
        <ele>2.8</ele>
        <time>2020-06-04T14:37:09Z</time>
      </trkpt>
      <trkpt lat="46.99064" lon="-2.02966">
        <ele>2.8</ele>
        <time>2020-06-04T14:37:10Z</time>
      </trkpt>
      <trkpt lat="46.99067" lon="-2.02964">
        <ele>2.8</ele>
        <time>2020-06-04T14:37:11Z</time>
      </trkpt>
      <trkpt lat="46.99068" lon="-2.02964">
        <ele>2.8</ele>
        <time>2020-06-04T14:37:12Z</time>
      </trkpt>
      <trkpt lat="46.9907" lon="-2.02962">
        <ele>2.8</ele>
        <time>2020-06-04T14:37:13Z</time>
      </trkpt>
      <trkpt lat="46.99073" lon="-2.02961">
        <ele>2.8</ele>
        <time>2020-06-04T14:37:14Z</time>
      </trkpt>
      <trkpt lat="46.99076" lon="-2.02959">
        <ele>2.8</ele>
        <time>2020-06-04T14:37:15Z</time>
      </trkpt>
      <trkpt lat="46.9908" lon="-2.02958">
        <ele>2.8</ele>
        <time>2020-06-04T14:37:16Z</time>
      </trkpt>
      <trkpt lat="46.99082" lon="-2.02956">
        <ele>2.8</ele>
        <time>2020-06-04T14:37:17Z</time>
      </trkpt>
      <trkpt lat="46.99086" lon="-2.02953">
        <ele>2.8</ele>
        <time>2020-06-04T14:37:18Z</time>
      </trkpt>
      <trkpt lat="46.99089" lon="-2.02951">
        <ele>2.8</ele>
        <time>2020-06-04T14:37:19Z</time>
      </trkpt>
      <trkpt lat="46.99092" lon="-2.0295">
        <ele>2.8</ele>
        <time>2020-06-04T14:37:20Z</time>
      </trkpt>
      <trkpt lat="46.99095" lon="-2.02949">
        <ele>2.8</ele>
        <time>2020-06-04T14:37:21Z</time>
      </trkpt>
      <trkpt lat="46.99099" lon="-2.02947">
        <ele>2.8</ele>
        <time>2020-06-04T14:37:22Z</time>
      </trkpt>
      <trkpt lat="46.99103" lon="-2.02944">
        <ele>2.8</ele>
        <time>2020-06-04T14:37:23Z</time>
      </trkpt>
      <trkpt lat="46.99107" lon="-2.02942">
        <ele>2.8</ele>
        <time>2020-06-04T14:37:24Z</time>
      </trkpt>
      <trkpt lat="46.99111" lon="-2.0294">
        <ele>2.8</ele>
        <time>2020-06-04T14:37:25Z</time>
      </trkpt>
      <trkpt lat="46.99116" lon="-2.02937">
        <ele>2.8</ele>
        <time>2020-06-04T14:37:26Z</time>
      </trkpt>
      <trkpt lat="46.9912" lon="-2.02936">
        <ele>2.8</ele>
        <time>2020-06-04T14:37:27Z</time>
      </trkpt>
      <trkpt lat="46.99123" lon="-2.02935">
        <ele>2.8</ele>
        <time>2020-06-04T14:37:28Z</time>
      </trkpt>
      <trkpt lat="46.99128" lon="-2.02932">
        <ele>2.8</ele>
        <time>2020-06-04T14:37:29Z</time>
      </trkpt>
      <trkpt lat="46.99132" lon="-2.0293">
        <ele>2.8</ele>
        <time>2020-06-04T14:37:30Z</time>
      </trkpt>
      <trkpt lat="46.99136" lon="-2.02927">
        <ele>2.8</ele>
        <time>2020-06-04T14:37:31Z</time>
      </trkpt>
      <trkpt lat="46.9914" lon="-2.02926">
        <ele>2.8</ele>
        <time>2020-06-04T14:37:32Z</time>
      </trkpt>
      <trkpt lat="46.99144" lon="-2.02924">
        <ele>2.8</ele>
        <time>2020-06-04T14:37:33Z</time>
      </trkpt>
      <trkpt lat="46.99149" lon="-2.02922">
        <ele>2.9</ele>
        <time>2020-06-04T14:37:34Z</time>
      </trkpt>
      <trkpt lat="46.99152" lon="-2.02922">
        <ele>2.9</ele>
        <time>2020-06-04T14:37:35Z</time>
      </trkpt>
      <trkpt lat="46.99155" lon="-2.02921">
        <ele>2.9</ele>
        <time>2020-06-04T14:37:36Z</time>
      </trkpt>
      <trkpt lat="46.99161" lon="-2.02918">
        <ele>2.9</ele>
        <time>2020-06-04T14:37:37Z</time>
      </trkpt>
      <trkpt lat="46.99166" lon="-2.02915">
        <ele>2.9</ele>
        <time>2020-06-04T14:37:38Z</time>
      </trkpt>
      <trkpt lat="46.99171" lon="-2.02913">
        <ele>2.9</ele>
        <time>2020-06-04T14:37:39Z</time>
      </trkpt>
      <trkpt lat="46.99175" lon="-2.0291">
        <ele>2.9</ele>
        <time>2020-06-04T14:37:40Z</time>
      </trkpt>
      <trkpt lat="46.9918" lon="-2.02907">
        <ele>2.8</ele>
        <time>2020-06-04T14:37:41Z</time>
      </trkpt>
      <trkpt lat="46.99185" lon="-2.02905">
        <ele>2.8</ele>
        <time>2020-06-04T14:37:42Z</time>
      </trkpt>
      <trkpt lat="46.9919" lon="-2.02903">
        <ele>2.8</ele>
        <time>2020-06-04T14:37:43Z</time>
      </trkpt>
      <trkpt lat="46.99195" lon="-2.02899">
        <ele>2.7</ele>
        <time>2020-06-04T14:37:44Z</time>
      </trkpt>
      <trkpt lat="46.99199" lon="-2.02897">
        <ele>2.7</ele>
        <time>2020-06-04T14:37:45Z</time>
      </trkpt>
      <trkpt lat="46.99204" lon="-2.02895">
        <ele>2.6</ele>
        <time>2020-06-04T14:37:46Z</time>
      </trkpt>
      <trkpt lat="46.99209" lon="-2.02893">
        <ele>2.6</ele>
        <time>2020-06-04T14:37:47Z</time>
      </trkpt>
      <trkpt lat="46.99214" lon="-2.02891">
        <ele>2.6</ele>
        <time>2020-06-04T14:37:48Z</time>
      </trkpt>
      <trkpt lat="46.99219" lon="-2.02889">
        <ele>2.5</ele>
        <time>2020-06-04T14:37:49Z</time>
      </trkpt>
      <trkpt lat="46.99224" lon="-2.02886">
        <ele>2.5</ele>
        <time>2020-06-04T14:37:50Z</time>
      </trkpt>
      <trkpt lat="46.99228" lon="-2.02884">
        <ele>2.5</ele>
        <time>2020-06-04T14:37:51Z</time>
      </trkpt>
      <trkpt lat="46.99232" lon="-2.02881">
        <ele>2.4</ele>
        <time>2020-06-04T14:37:52Z</time>
      </trkpt>
      <trkpt lat="46.99237" lon="-2.02879">
        <ele>2.4</ele>
        <time>2020-06-04T14:37:53Z</time>
      </trkpt>
      <trkpt lat="46.99241" lon="-2.02877">
        <ele>2.4</ele>
        <time>2020-06-04T14:37:54Z</time>
      </trkpt>
      <trkpt lat="46.99245" lon="-2.02874">
        <ele>2.4</ele>
        <time>2020-06-04T14:37:55Z</time>
      </trkpt>
      <trkpt lat="46.99249" lon="-2.02871">
        <ele>2.3</ele>
        <time>2020-06-04T14:37:56Z</time>
      </trkpt>
      <trkpt lat="46.99254" lon="-2.02869">
        <ele>2.3</ele>
        <time>2020-06-04T14:37:57Z</time>
      </trkpt>
      <trkpt lat="46.99258" lon="-2.02866">
        <ele>2.3</ele>
        <time>2020-06-04T14:37:58Z</time>
      </trkpt>
      <trkpt lat="46.99262" lon="-2.02864">
        <ele>2.3</ele>
        <time>2020-06-04T14:37:59Z</time>
      </trkpt>
      <trkpt lat="46.99266" lon="-2.02862">
        <ele>2.2</ele>
        <time>2020-06-04T14:38:00Z</time>
      </trkpt>
      <trkpt lat="46.99271" lon="-2.02859">
        <ele>2.2</ele>
        <time>2020-06-04T14:38:01Z</time>
      </trkpt>
      <trkpt lat="46.99275" lon="-2.02857">
        <ele>2.2</ele>
        <time>2020-06-04T14:38:02Z</time>
      </trkpt>
      <trkpt lat="46.99279" lon="-2.02855">
        <ele>2.2</ele>
        <time>2020-06-04T14:38:03Z</time>
      </trkpt>
      <trkpt lat="46.99284" lon="-2.02853">
        <ele>2.1</ele>
        <time>2020-06-04T14:38:04Z</time>
      </trkpt>
      <trkpt lat="46.99289" lon="-2.02851">
        <ele>2.1</ele>
        <time>2020-06-04T14:38:05Z</time>
      </trkpt>
      <trkpt lat="46.99293" lon="-2.02848">
        <ele>2.1</ele>
        <time>2020-06-04T14:38:06Z</time>
      </trkpt>
      <trkpt lat="46.99297" lon="-2.02845">
        <ele>2.1</ele>
        <time>2020-06-04T14:38:07Z</time>
      </trkpt>
      <trkpt lat="46.99302" lon="-2.02843">
        <ele>2</ele>
        <time>2020-06-04T14:38:08Z</time>
      </trkpt>
      <trkpt lat="46.99307" lon="-2.0284">
        <ele>2</ele>
        <time>2020-06-04T14:38:09Z</time>
      </trkpt>
      <trkpt lat="46.99311" lon="-2.02837">
        <ele>2</ele>
        <time>2020-06-04T14:38:10Z</time>
      </trkpt>
      <trkpt lat="46.99317" lon="-2.02835">
        <ele>2</ele>
        <time>2020-06-04T14:38:11Z</time>
      </trkpt>
      <trkpt lat="46.99321" lon="-2.02833">
        <ele>2</ele>
        <time>2020-06-04T14:38:12Z</time>
      </trkpt>
      <trkpt lat="46.99326" lon="-2.0283">
        <ele>2</ele>
        <time>2020-06-04T14:38:13Z</time>
      </trkpt>
      <trkpt lat="46.99331" lon="-2.02827">
        <ele>2</ele>
        <time>2020-06-04T14:38:14Z</time>
      </trkpt>
      <trkpt lat="46.99335" lon="-2.02825">
        <ele>2</ele>
        <time>2020-06-04T14:38:15Z</time>
      </trkpt>
      <trkpt lat="46.99341" lon="-2.02822">
        <ele>2</ele>
        <time>2020-06-04T14:38:16Z</time>
      </trkpt>
      <trkpt lat="46.99346" lon="-2.02819">
        <ele>2</ele>
        <time>2020-06-04T14:38:17Z</time>
      </trkpt>
      <trkpt lat="46.9935" lon="-2.02817">
        <ele>2.1</ele>
        <time>2020-06-04T14:38:18Z</time>
      </trkpt>
      <trkpt lat="46.99355" lon="-2.02815">
        <ele>2.1</ele>
        <time>2020-06-04T14:38:19Z</time>
      </trkpt>
      <trkpt lat="46.9936" lon="-2.02813">
        <ele>2.1</ele>
        <time>2020-06-04T14:38:20Z</time>
      </trkpt>
      <trkpt lat="46.99365" lon="-2.02811">
        <ele>2.1</ele>
        <time>2020-06-04T14:38:21Z</time>
      </trkpt>
      <trkpt lat="46.9937" lon="-2.02809">
        <ele>2.1</ele>
        <time>2020-06-04T14:38:22Z</time>
      </trkpt>
      <trkpt lat="46.99374" lon="-2.02807">
        <ele>2.1</ele>
        <time>2020-06-04T14:38:23Z</time>
      </trkpt>
      <trkpt lat="46.9938" lon="-2.02805">
        <ele>2.2</ele>
        <time>2020-06-04T14:38:24Z</time>
      </trkpt>
      <trkpt lat="46.99385" lon="-2.02801">
        <ele>2.2</ele>
        <time>2020-06-04T14:38:25Z</time>
      </trkpt>
      <trkpt lat="46.99389" lon="-2.02799">
        <ele>2.2</ele>
        <time>2020-06-04T14:38:26Z</time>
      </trkpt>
      <trkpt lat="46.99393" lon="-2.02796">
        <ele>2.2</ele>
        <time>2020-06-04T14:38:27Z</time>
      </trkpt>
      <trkpt lat="46.99398" lon="-2.02793">
        <ele>2.2</ele>
        <time>2020-06-04T14:38:28Z</time>
      </trkpt>
      <trkpt lat="46.99402" lon="-2.02792">
        <ele>2.2</ele>
        <time>2020-06-04T14:38:29Z</time>
      </trkpt>
      <trkpt lat="46.99407" lon="-2.0279">
        <ele>2.3</ele>
        <time>2020-06-04T14:38:30Z</time>
      </trkpt>
      <trkpt lat="46.99412" lon="-2.02789">
        <ele>2.3</ele>
        <time>2020-06-04T14:38:31Z</time>
      </trkpt>
      <trkpt lat="46.99418" lon="-2.02787">
        <ele>2.3</ele>
        <time>2020-06-04T14:38:32Z</time>
      </trkpt>
      <trkpt lat="46.99423" lon="-2.02785">
        <ele>2.3</ele>
        <time>2020-06-04T14:38:33Z</time>
      </trkpt>
      <trkpt lat="46.99427" lon="-2.02781">
        <ele>2.3</ele>
        <time>2020-06-04T14:38:34Z</time>
      </trkpt>
      <trkpt lat="46.99432" lon="-2.02778">
        <ele>2.3</ele>
        <time>2020-06-04T14:38:35Z</time>
      </trkpt>
      <trkpt lat="46.99437" lon="-2.02775">
        <ele>2.3</ele>
        <time>2020-06-04T14:38:36Z</time>
      </trkpt>
      <trkpt lat="46.99442" lon="-2.02773">
        <ele>2.3</ele>
        <time>2020-06-04T14:38:37Z</time>
      </trkpt>
      <trkpt lat="46.99447" lon="-2.0277">
        <ele>2.3</ele>
        <time>2020-06-04T14:38:38Z</time>
      </trkpt>
      <trkpt lat="46.99452" lon="-2.02767">
        <ele>2.3</ele>
        <time>2020-06-04T14:38:39Z</time>
      </trkpt>
      <trkpt lat="46.99456" lon="-2.02765">
        <ele>2.3</ele>
        <time>2020-06-04T14:38:40Z</time>
      </trkpt>
      <trkpt lat="46.99461" lon="-2.02762">
        <ele>2.4</ele>
        <time>2020-06-04T14:38:41Z</time>
      </trkpt>
      <trkpt lat="46.99466" lon="-2.0276">
        <ele>2.4</ele>
        <time>2020-06-04T14:38:42Z</time>
      </trkpt>
      <trkpt lat="46.9947" lon="-2.02757">
        <ele>2.4</ele>
        <time>2020-06-04T14:38:43Z</time>
      </trkpt>
      <trkpt lat="46.99475" lon="-2.02755">
        <ele>2.4</ele>
        <time>2020-06-04T14:38:44Z</time>
      </trkpt>
      <trkpt lat="46.9948" lon="-2.02752">
        <ele>2.4</ele>
        <time>2020-06-04T14:38:45Z</time>
      </trkpt>
      <trkpt lat="46.99485" lon="-2.02749">
        <ele>2.4</ele>
        <time>2020-06-04T14:38:46Z</time>
      </trkpt>
      <trkpt lat="46.99489" lon="-2.02746">
        <ele>2.4</ele>
        <time>2020-06-04T14:38:47Z</time>
      </trkpt>
      <trkpt lat="46.99494" lon="-2.02743">
        <ele>2.5</ele>
        <time>2020-06-04T14:38:48Z</time>
      </trkpt>
      <trkpt lat="46.995" lon="-2.02741">
        <ele>2.5</ele>
        <time>2020-06-04T14:38:49Z</time>
      </trkpt>
      <trkpt lat="46.99505" lon="-2.02739">
        <ele>2.5</ele>
        <time>2020-06-04T14:38:50Z</time>
      </trkpt>
      <trkpt lat="46.99509" lon="-2.02736">
        <ele>2.5</ele>
        <time>2020-06-04T14:38:51Z</time>
      </trkpt>
      <trkpt lat="46.99514" lon="-2.02733">
        <ele>2.5</ele>
        <time>2020-06-04T14:38:52Z</time>
      </trkpt>
      <trkpt lat="46.9952" lon="-2.0273">
        <ele>2.5</ele>
        <time>2020-06-04T14:38:53Z</time>
      </trkpt>
      <trkpt lat="46.99525" lon="-2.02727">
        <ele>2.5</ele>
        <time>2020-06-04T14:38:54Z</time>
      </trkpt>
      <trkpt lat="46.9953" lon="-2.02725">
        <ele>2.5</ele>
        <time>2020-06-04T14:38:55Z</time>
      </trkpt>
      <trkpt lat="46.99535" lon="-2.02722">
        <ele>2.5</ele>
        <time>2020-06-04T14:38:56Z</time>
      </trkpt>
      <trkpt lat="46.99541" lon="-2.02719">
        <ele>2.5</ele>
        <time>2020-06-04T14:38:57Z</time>
      </trkpt>
      <trkpt lat="46.99546" lon="-2.02717">
        <ele>2.5</ele>
        <time>2020-06-04T14:38:58Z</time>
      </trkpt>
      <trkpt lat="46.9955" lon="-2.02715">
        <ele>2.5</ele>
        <time>2020-06-04T14:38:59Z</time>
      </trkpt>
      <trkpt lat="46.99556" lon="-2.02713">
        <ele>2.5</ele>
        <time>2020-06-04T14:39:00Z</time>
      </trkpt>
      <trkpt lat="46.9956" lon="-2.0271">
        <ele>2.5</ele>
        <time>2020-06-04T14:39:01Z</time>
      </trkpt>
      <trkpt lat="46.99564" lon="-2.02708">
        <ele>2.5</ele>
        <time>2020-06-04T14:39:02Z</time>
      </trkpt>
      <trkpt lat="46.99569" lon="-2.02706">
        <ele>2.5</ele>
        <time>2020-06-04T14:39:03Z</time>
      </trkpt>
      <trkpt lat="46.99573" lon="-2.02704">
        <ele>2.5</ele>
        <time>2020-06-04T14:39:04Z</time>
      </trkpt>
      <trkpt lat="46.99578" lon="-2.02702">
        <ele>2.5</ele>
        <time>2020-06-04T14:39:05Z</time>
      </trkpt>
      <trkpt lat="46.99583" lon="-2.02699">
        <ele>2.4</ele>
        <time>2020-06-04T14:39:06Z</time>
      </trkpt>
      <trkpt lat="46.99588" lon="-2.02697">
        <ele>2.4</ele>
        <time>2020-06-04T14:39:07Z</time>
      </trkpt>
      <trkpt lat="46.99593" lon="-2.02694">
        <ele>2.4</ele>
        <time>2020-06-04T14:39:08Z</time>
      </trkpt>
      <trkpt lat="46.99598" lon="-2.02692">
        <ele>2.4</ele>
        <time>2020-06-04T14:39:09Z</time>
      </trkpt>
      <trkpt lat="46.99603" lon="-2.02689">
        <ele>2.4</ele>
        <time>2020-06-04T14:39:10Z</time>
      </trkpt>
      <trkpt lat="46.99607" lon="-2.02688">
        <ele>2.4</ele>
        <time>2020-06-04T14:39:11Z</time>
      </trkpt>
      <trkpt lat="46.99611" lon="-2.02685">
        <ele>2.4</ele>
        <time>2020-06-04T14:39:12Z</time>
      </trkpt>
      <trkpt lat="46.99615" lon="-2.02683">
        <ele>2.4</ele>
        <time>2020-06-04T14:39:13Z</time>
      </trkpt>
      <trkpt lat="46.99619" lon="-2.0268">
        <ele>2.4</ele>
        <time>2020-06-04T14:39:14Z</time>
      </trkpt>
      <trkpt lat="46.99623" lon="-2.02678">
        <ele>2.4</ele>
        <time>2020-06-04T14:39:15Z</time>
      </trkpt>
      <trkpt lat="46.99628" lon="-2.02677">
        <ele>2.4</ele>
        <time>2020-06-04T14:39:16Z</time>
      </trkpt>
      <trkpt lat="46.99632" lon="-2.02677">
        <ele>2.4</ele>
        <time>2020-06-04T14:39:17Z</time>
      </trkpt>
      <trkpt lat="46.99637" lon="-2.02676">
        <ele>2.3</ele>
        <time>2020-06-04T14:39:18Z</time>
      </trkpt>
      <trkpt lat="46.99643" lon="-2.02675">
        <ele>2.3</ele>
        <time>2020-06-04T14:39:19Z</time>
      </trkpt>
      <trkpt lat="46.99648" lon="-2.02675">
        <ele>2.3</ele>
        <time>2020-06-04T14:39:20Z</time>
      </trkpt>
      <trkpt lat="46.99653" lon="-2.02676">
        <ele>2.2</ele>
        <time>2020-06-04T14:39:21Z</time>
      </trkpt>
      <trkpt lat="46.99657" lon="-2.02676">
        <ele>2.2</ele>
        <time>2020-06-04T14:39:22Z</time>
      </trkpt>
      <trkpt lat="46.99662" lon="-2.02676">
        <ele>2.2</ele>
        <time>2020-06-04T14:39:23Z</time>
      </trkpt>
      <trkpt lat="46.99667" lon="-2.02677">
        <ele>2.2</ele>
        <time>2020-06-04T14:39:24Z</time>
      </trkpt>
      <trkpt lat="46.99672" lon="-2.02676">
        <ele>2.2</ele>
        <time>2020-06-04T14:39:25Z</time>
      </trkpt>
      <trkpt lat="46.99677" lon="-2.02676">
        <ele>2.2</ele>
        <time>2020-06-04T14:39:26Z</time>
      </trkpt>
      <trkpt lat="46.99682" lon="-2.02675">
        <ele>2.2</ele>
        <time>2020-06-04T14:39:27Z</time>
      </trkpt>
      <trkpt lat="46.99688" lon="-2.02672">
        <ele>2.2</ele>
        <time>2020-06-04T14:39:28Z</time>
      </trkpt>
      <trkpt lat="46.99693" lon="-2.02671">
        <ele>2.2</ele>
        <time>2020-06-04T14:39:29Z</time>
      </trkpt>
      <trkpt lat="46.99699" lon="-2.02669">
        <ele>2.2</ele>
        <time>2020-06-04T14:39:30Z</time>
      </trkpt>
      <trkpt lat="46.99704" lon="-2.02669">
        <ele>2.2</ele>
        <time>2020-06-04T14:39:31Z</time>
      </trkpt>
      <trkpt lat="46.9971" lon="-2.02668">
        <ele>2.2</ele>
        <time>2020-06-04T14:39:32Z</time>
      </trkpt>
      <trkpt lat="46.99715" lon="-2.02667">
        <ele>2.2</ele>
        <time>2020-06-04T14:39:33Z</time>
      </trkpt>
      <trkpt lat="46.9972" lon="-2.02666">
        <ele>2.2</ele>
        <time>2020-06-04T14:39:34Z</time>
      </trkpt>
      <trkpt lat="46.99724" lon="-2.02665">
        <ele>2.2</ele>
        <time>2020-06-04T14:39:35Z</time>
      </trkpt>
      <trkpt lat="46.99728" lon="-2.02663">
        <ele>2.2</ele>
        <time>2020-06-04T14:39:36Z</time>
      </trkpt>
      <trkpt lat="46.99732" lon="-2.02661">
        <ele>2.2</ele>
        <time>2020-06-04T14:39:37Z</time>
      </trkpt>
      <trkpt lat="46.99735" lon="-2.02658">
        <ele>2.2</ele>
        <time>2020-06-04T14:39:38Z</time>
      </trkpt>
      <trkpt lat="46.99738" lon="-2.02657">
        <ele>2.2</ele>
        <time>2020-06-04T14:39:39Z</time>
      </trkpt>
      <trkpt lat="46.99742" lon="-2.02656">
        <ele>2.2</ele>
        <time>2020-06-04T14:39:40Z</time>
      </trkpt>
      <trkpt lat="46.99744" lon="-2.02655">
        <ele>2.2</ele>
        <time>2020-06-04T14:39:41Z</time>
      </trkpt>
      <trkpt lat="46.99746" lon="-2.0266">
        <ele>2.2</ele>
        <time>2020-06-04T14:39:42Z</time>
      </trkpt>
      <trkpt lat="46.99748" lon="-2.02665">
        <ele>2.2</ele>
        <time>2020-06-04T14:39:43Z</time>
      </trkpt>
      <trkpt lat="46.99748" lon="-2.02672">
        <ele>2.2</ele>
        <time>2020-06-04T14:39:44Z</time>
      </trkpt>
      <trkpt lat="46.9975" lon="-2.02678">
        <ele>2.2</ele>
        <time>2020-06-04T14:39:45Z</time>
      </trkpt>
      <trkpt lat="46.99751" lon="-2.02684">
        <ele>2.2</ele>
        <time>2020-06-04T14:39:46Z</time>
      </trkpt>
      <trkpt lat="46.99752" lon="-2.0269">
        <ele>2.2</ele>
        <time>2020-06-04T14:39:47Z</time>
      </trkpt>
      <trkpt lat="46.99753" lon="-2.02696">
        <ele>2.2</ele>
        <time>2020-06-04T14:39:48Z</time>
      </trkpt>
      <trkpt lat="46.99754" lon="-2.02702">
        <ele>2.2</ele>
        <time>2020-06-04T14:39:49Z</time>
      </trkpt>
      <trkpt lat="46.99755" lon="-2.02708">
        <ele>2.2</ele>
        <time>2020-06-04T14:39:50Z</time>
      </trkpt>
      <trkpt lat="46.99756" lon="-2.02714">
        <ele>2.2</ele>
        <time>2020-06-04T14:39:51Z</time>
      </trkpt>
      <trkpt lat="46.99758" lon="-2.02718">
        <ele>2.2</ele>
        <time>2020-06-04T14:39:52Z</time>
      </trkpt>
      <trkpt lat="46.99759" lon="-2.02722">
        <ele>2.2</ele>
        <time>2020-06-04T14:39:53Z</time>
      </trkpt>
      <trkpt lat="46.9976" lon="-2.02727">
        <ele>2.2</ele>
        <time>2020-06-04T14:39:54Z</time>
      </trkpt>
      <trkpt lat="46.9976" lon="-2.02728">
        <ele>2.2</ele>
        <time>2020-06-04T14:39:55Z</time>
      </trkpt>
      <trkpt lat="46.99759" lon="-2.02728">
        <ele>2.2</ele>
        <time>2020-06-04T14:39:56Z</time>
      </trkpt>
      <trkpt lat="46.99759" lon="-2.02726">
        <ele>2.2</ele>
        <time>2020-06-04T14:39:57Z</time>
      </trkpt>
      <trkpt lat="46.99759" lon="-2.02725">
        <ele>2.2</ele>
        <time>2020-06-04T14:39:58Z</time>
      </trkpt>
      <trkpt lat="46.99759" lon="-2.02724">
        <ele>2.2</ele>
        <time>2020-06-04T14:39:59Z</time>
      </trkpt>
      <trkpt lat="46.99758" lon="-2.02722">
        <ele>2.2</ele>
        <time>2020-06-04T14:40:00Z</time>
      </trkpt>
      <trkpt lat="46.99759" lon="-2.02718">
        <ele>2.2</ele>
        <time>2020-06-04T14:40:01Z</time>
      </trkpt>
      <trkpt lat="46.99759" lon="-2.02712">
        <ele>2.2</ele>
        <time>2020-06-04T14:40:02Z</time>
      </trkpt>
      <trkpt lat="46.99757" lon="-2.02705">
        <ele>2.2</ele>
        <time>2020-06-04T14:40:03Z</time>
      </trkpt>
      <trkpt lat="46.99754" lon="-2.02698">
        <ele>2.2</ele>
        <time>2020-06-04T14:40:04Z</time>
      </trkpt>
      <trkpt lat="46.99753" lon="-2.02692">
        <ele>2.2</ele>
        <time>2020-06-04T14:40:05Z</time>
      </trkpt>
      <trkpt lat="46.99751" lon="-2.02686">
        <ele>2.2</ele>
        <time>2020-06-04T14:40:06Z</time>
      </trkpt>
      <trkpt lat="46.99749" lon="-2.02678">
        <ele>2.2</ele>
        <time>2020-06-04T14:40:07Z</time>
      </trkpt>
      <trkpt lat="46.99746" lon="-2.02672">
        <ele>2.2</ele>
        <time>2020-06-04T14:40:08Z</time>
      </trkpt>
      <trkpt lat="46.99744" lon="-2.02668">
        <ele>2.2</ele>
        <time>2020-06-04T14:40:09Z</time>
      </trkpt>
      <trkpt lat="46.9974" lon="-2.02663">
        <ele>2.2</ele>
        <time>2020-06-04T14:40:10Z</time>
      </trkpt>
      <trkpt lat="46.99737" lon="-2.02663">
        <ele>2.2</ele>
        <time>2020-06-04T14:40:11Z</time>
      </trkpt>
      <trkpt lat="46.99733" lon="-2.02664">
        <ele>2.2</ele>
        <time>2020-06-04T14:40:12Z</time>
      </trkpt>
      <trkpt lat="46.99729" lon="-2.02666">
        <ele>2.2</ele>
        <time>2020-06-04T14:40:13Z</time>
      </trkpt>
      <trkpt lat="46.99725" lon="-2.02667">
        <ele>2.2</ele>
        <time>2020-06-04T14:40:14Z</time>
      </trkpt>
      <trkpt lat="46.9972" lon="-2.02668">
        <ele>2.2</ele>
        <time>2020-06-04T14:40:15Z</time>
      </trkpt>
      <trkpt lat="46.99716" lon="-2.0267">
        <ele>2.2</ele>
        <time>2020-06-04T14:40:16Z</time>
      </trkpt>
      <trkpt lat="46.99711" lon="-2.02671">
        <ele>2.2</ele>
        <time>2020-06-04T14:40:17Z</time>
      </trkpt>
      <trkpt lat="46.99705" lon="-2.02673">
        <ele>2.2</ele>
        <time>2020-06-04T14:40:18Z</time>
      </trkpt>
      <trkpt lat="46.997" lon="-2.02674">
        <ele>2.2</ele>
        <time>2020-06-04T14:40:19Z</time>
      </trkpt>
      <trkpt lat="46.99696" lon="-2.02676">
        <ele>2.2</ele>
        <time>2020-06-04T14:40:20Z</time>
      </trkpt>
      <trkpt lat="46.99691" lon="-2.02678">
        <ele>2.2</ele>
        <time>2020-06-04T14:40:21Z</time>
      </trkpt>
      <trkpt lat="46.99686" lon="-2.02679">
        <ele>2.2</ele>
        <time>2020-06-04T14:40:22Z</time>
      </trkpt>
      <trkpt lat="46.99681" lon="-2.0268">
        <ele>2.2</ele>
        <time>2020-06-04T14:40:23Z</time>
      </trkpt>
      <trkpt lat="46.99677" lon="-2.02681">
        <ele>2.2</ele>
        <time>2020-06-04T14:40:24Z</time>
      </trkpt>
      <trkpt lat="46.99673" lon="-2.02684">
        <ele>2.2</ele>
        <time>2020-06-04T14:40:25Z</time>
      </trkpt>
      <trkpt lat="46.9967" lon="-2.02686">
        <ele>2.2</ele>
        <time>2020-06-04T14:40:26Z</time>
      </trkpt>
      <trkpt lat="46.99668" lon="-2.02685">
        <ele>2.2</ele>
        <time>2020-06-04T14:40:27Z</time>
      </trkpt>
      <trkpt lat="46.99667" lon="-2.02686">
        <ele>2.2</ele>
        <time>2020-06-04T14:40:28Z</time>
      </trkpt>
      <trkpt lat="46.99668" lon="-2.02686">
        <ele>2.2</ele>
        <time>2020-06-04T14:40:29Z</time>
      </trkpt>
      <trkpt lat="46.99667" lon="-2.02687">
        <ele>2.2</ele>
        <time>2020-06-04T14:40:30Z</time>
      </trkpt>
      <trkpt lat="46.99666" lon="-2.02688">
        <ele>2.2</ele>
        <time>2020-06-04T14:40:31Z</time>
      </trkpt>
      <trkpt lat="46.99666" lon="-2.02687">
        <ele>2.2</ele>
        <time>2020-06-04T14:40:32Z</time>
      </trkpt>
      <trkpt lat="46.99666" lon="-2.02688">
        <ele>2.2</ele>
        <time>2020-06-04T14:40:33Z</time>
      </trkpt>
      <trkpt lat="46.99666" lon="-2.02687">
        <ele>2.2</ele>
        <time>2020-06-04T14:40:34Z</time>
      </trkpt>
      <trkpt lat="46.99667" lon="-2.02686">
        <ele>2.2</ele>
        <time>2020-06-04T14:40:35Z</time>
      </trkpt>
      <trkpt lat="46.99667" lon="-2.02685">
        <ele>2.2</ele>
        <time>2020-06-04T14:40:36Z</time>
      </trkpt>
      <trkpt lat="46.99668" lon="-2.02685">
        <ele>2.2</ele>
        <time>2020-06-04T14:40:37Z</time>
      </trkpt>
      <trkpt lat="46.99668" lon="-2.02685">
        <ele>2.2</ele>
        <time>2020-06-04T14:40:38Z</time>
      </trkpt>
      <trkpt lat="46.99668" lon="-2.02685">
        <ele>2.2</ele>
        <time>2020-06-04T14:40:39Z</time>
      </trkpt>
      <trkpt lat="46.99668" lon="-2.02685">
        <ele>2.2</ele>
        <time>2020-06-04T14:40:40Z</time>
      </trkpt>
      <trkpt lat="46.99668" lon="-2.02685">
        <ele>2.2</ele>
        <time>2020-06-04T14:40:41Z</time>
      </trkpt>
      <trkpt lat="46.99668" lon="-2.02685">
        <ele>2.2</ele>
        <time>2020-06-04T14:40:42Z</time>
      </trkpt>
      <trkpt lat="46.99669" lon="-2.0268">
        <ele>2.2</ele>
        <time>2020-06-04T14:51:31Z</time>
      </trkpt>
      <trkpt lat="46.9967" lon="-2.02679">
        <ele>2.2</ele>
        <time>2020-06-04T14:51:32Z</time>
      </trkpt>
      <trkpt lat="46.99673" lon="-2.02678">
        <ele>2.2</ele>
        <time>2020-06-04T14:51:33Z</time>
      </trkpt>
      <trkpt lat="46.99674" lon="-2.02677">
        <ele>2.2</ele>
        <time>2020-06-04T14:51:34Z</time>
      </trkpt>
      <trkpt lat="46.99676" lon="-2.02678">
        <ele>2.2</ele>
        <time>2020-06-04T14:51:35Z</time>
      </trkpt>
      <trkpt lat="46.99677" lon="-2.02678">
        <ele>2.2</ele>
        <time>2020-06-04T14:51:36Z</time>
      </trkpt>
      <trkpt lat="46.99677" lon="-2.02677">
        <ele>2.2</ele>
        <time>2020-06-04T14:51:37Z</time>
      </trkpt>
      <trkpt lat="46.99677" lon="-2.02677">
        <ele>2.2</ele>
        <time>2020-06-04T14:51:38Z</time>
      </trkpt>
      <trkpt lat="46.99677" lon="-2.02677">
        <ele>2.2</ele>
        <time>2020-06-04T14:51:39Z</time>
      </trkpt>
      <trkpt lat="46.99677" lon="-2.02677">
        <ele>2.2</ele>
        <time>2020-06-04T14:51:40Z</time>
      </trkpt>
      <trkpt lat="46.99677" lon="-2.02678">
        <ele>2.2</ele>
        <time>2020-06-04T14:51:41Z</time>
      </trkpt>
      <trkpt lat="46.99677" lon="-2.02678">
        <ele>2.2</ele>
        <time>2020-06-04T14:51:42Z</time>
      </trkpt>
      <trkpt lat="46.99676" lon="-2.02679">
        <ele>2.2</ele>
        <time>2020-06-04T14:51:43Z</time>
      </trkpt>
      <trkpt lat="46.99676" lon="-2.0268">
        <ele>2.2</ele>
        <time>2020-06-04T14:51:44Z</time>
      </trkpt>
      <trkpt lat="46.99674" lon="-2.02681">
        <ele>2.2</ele>
        <time>2020-06-04T14:51:45Z</time>
      </trkpt>
      <trkpt lat="46.99671" lon="-2.02682">
        <ele>2.2</ele>
        <time>2020-06-04T14:51:46Z</time>
      </trkpt>
      <trkpt lat="46.9967" lon="-2.02683">
        <ele>2.2</ele>
        <time>2020-06-04T14:51:47Z</time>
      </trkpt>
      <trkpt lat="46.99669" lon="-2.02684">
        <ele>2.2</ele>
        <time>2020-06-04T14:51:48Z</time>
      </trkpt>
      <trkpt lat="46.99668" lon="-2.02684">
        <ele>2.2</ele>
        <time>2020-06-04T14:51:49Z</time>
      </trkpt>
      <trkpt lat="46.99667" lon="-2.02684">
        <ele>2.2</ele>
        <time>2020-06-04T14:51:50Z</time>
      </trkpt>
      <trkpt lat="46.99666" lon="-2.02684">
        <ele>2.2</ele>
        <time>2020-06-04T14:51:51Z</time>
      </trkpt>
      <trkpt lat="46.99665" lon="-2.02685">
        <ele>2.2</ele>
        <time>2020-06-04T14:51:52Z</time>
      </trkpt>
      <trkpt lat="46.99663" lon="-2.02686">
        <ele>2.2</ele>
        <time>2020-06-04T14:51:53Z</time>
      </trkpt>
      <trkpt lat="46.99662" lon="-2.02686">
        <ele>2.2</ele>
        <time>2020-06-04T14:51:54Z</time>
      </trkpt>
      <trkpt lat="46.99661" lon="-2.02687">
        <ele>2.2</ele>
        <time>2020-06-04T14:51:55Z</time>
      </trkpt>
      <trkpt lat="46.9966" lon="-2.02688">
        <ele>2.2</ele>
        <time>2020-06-04T14:51:56Z</time>
      </trkpt>
      <trkpt lat="46.99659" lon="-2.02688">
        <ele>2.2</ele>
        <time>2020-06-04T14:51:57Z</time>
      </trkpt>
      <trkpt lat="46.99658" lon="-2.02689">
        <ele>2.2</ele>
        <time>2020-06-04T14:51:58Z</time>
      </trkpt>
      <trkpt lat="46.99656" lon="-2.02689">
        <ele>2.2</ele>
        <time>2020-06-04T14:51:59Z</time>
      </trkpt>
      <trkpt lat="46.99655" lon="-2.0269">
        <ele>2.2</ele>
        <time>2020-06-04T15:18:20Z</time>
      </trkpt>
      <trkpt lat="46.99654" lon="-2.02691">
        <ele>2.2</ele>
        <time>2020-06-04T15:18:21Z</time>
      </trkpt>
      <trkpt lat="46.99655" lon="-2.0269">
        <ele>2.2</ele>
        <time>2020-06-04T15:18:22Z</time>
      </trkpt>
      <trkpt lat="46.99655" lon="-2.02689">
        <ele>2.2</ele>
        <time>2020-06-04T15:18:23Z</time>
      </trkpt>
      <trkpt lat="46.99655" lon="-2.02687">
        <ele>2.2</ele>
        <time>2020-06-04T15:18:24Z</time>
      </trkpt>
      <trkpt lat="46.99656" lon="-2.02686">
        <ele>2.2</ele>
        <time>2020-06-04T15:18:25Z</time>
      </trkpt>
      <trkpt lat="46.99656" lon="-2.02686">
        <ele>2.2</ele>
        <time>2020-06-04T15:18:26Z</time>
      </trkpt>
      <trkpt lat="46.99656" lon="-2.02685">
        <ele>2.2</ele>
        <time>2020-06-04T15:18:27Z</time>
      </trkpt>
      <trkpt lat="46.99657" lon="-2.02685">
        <ele>2.2</ele>
        <time>2020-06-04T15:18:28Z</time>
      </trkpt>
      <trkpt lat="46.99657" lon="-2.02684">
        <ele>2.2</ele>
        <time>2020-06-04T15:18:29Z</time>
      </trkpt>
      <trkpt lat="46.99657" lon="-2.02683">
        <ele>2.2</ele>
        <time>2020-06-04T15:18:30Z</time>
      </trkpt>
      <trkpt lat="46.99657" lon="-2.02683">
        <ele>2.2</ele>
        <time>2020-06-04T15:18:31Z</time>
      </trkpt>
      <trkpt lat="46.99658" lon="-2.02681">
        <ele>2.2</ele>
        <time>2020-06-04T15:18:32Z</time>
      </trkpt>
      <trkpt lat="46.99659" lon="-2.02679">
        <ele>2.2</ele>
        <time>2020-06-04T15:18:33Z</time>
      </trkpt>
      <trkpt lat="46.9966" lon="-2.02677">
        <ele>2.2</ele>
        <time>2020-06-04T15:18:34Z</time>
      </trkpt>
      <trkpt lat="46.9966" lon="-2.02677">
        <ele>2.2</ele>
        <time>2020-06-04T15:18:35Z</time>
      </trkpt>
      <trkpt lat="46.9966" lon="-2.02677">
        <ele>2.2</ele>
        <time>2020-06-04T15:18:36Z</time>
      </trkpt>
      <trkpt lat="46.9966" lon="-2.02677">
        <ele>2.2</ele>
        <time>2020-06-04T15:18:37Z</time>
      </trkpt>
      <trkpt lat="46.9966" lon="-2.02676">
        <ele>2.2</ele>
        <time>2020-06-04T15:18:38Z</time>
      </trkpt>
      <trkpt lat="46.9966" lon="-2.02676">
        <ele>2.2</ele>
        <time>2020-06-04T15:18:39Z</time>
      </trkpt>
      <trkpt lat="46.99661" lon="-2.02675">
        <ele>2.2</ele>
        <time>2020-06-04T15:18:40Z</time>
      </trkpt>
      <trkpt lat="46.9966" lon="-2.02676">
        <ele>2.2</ele>
        <time>2020-06-04T15:18:41Z</time>
      </trkpt>
      <trkpt lat="46.99661" lon="-2.02676">
        <ele>2.2</ele>
        <time>2020-06-04T15:18:42Z</time>
      </trkpt>
      <trkpt lat="46.99662" lon="-2.02676">
        <ele>2.2</ele>
        <time>2020-06-04T15:18:43Z</time>
      </trkpt>
      <trkpt lat="46.99662" lon="-2.02676">
        <ele>2.2</ele>
        <time>2020-06-04T15:18:44Z</time>
      </trkpt>
      <trkpt lat="46.99662" lon="-2.02676">
        <ele>2.2</ele>
        <time>2020-06-04T15:18:45Z</time>
      </trkpt>
      <trkpt lat="46.99662" lon="-2.02676">
        <ele>2.2</ele>
        <time>2020-06-04T15:18:46Z</time>
      </trkpt>
      <trkpt lat="46.99662" lon="-2.02676">
        <ele>2.2</ele>
        <time>2020-06-04T15:18:47Z</time>
      </trkpt>
      <trkpt lat="46.99662" lon="-2.02676">
        <ele>2.2</ele>
        <time>2020-06-04T15:18:48Z</time>
      </trkpt>
      <trkpt lat="46.99662" lon="-2.02676">
        <ele>2.2</ele>
        <time>2020-06-04T15:18:49Z</time>
      </trkpt>
      <trkpt lat="46.99662" lon="-2.02676">
        <ele>2.2</ele>
        <time>2020-06-04T15:18:50Z</time>
      </trkpt>
      <trkpt lat="46.99669" lon="-2.02672">
        <ele>2.2</ele>
        <time>2020-06-04T15:19:07Z</time>
      </trkpt>
      <trkpt lat="46.99673" lon="-2.02671">
        <ele>2.2</ele>
        <time>2020-06-04T15:19:08Z</time>
      </trkpt>
      <trkpt lat="46.99676" lon="-2.0267">
        <ele>2.2</ele>
        <time>2020-06-04T15:19:09Z</time>
      </trkpt>
      <trkpt lat="46.99677" lon="-2.02671">
        <ele>2.2</ele>
        <time>2020-06-04T15:19:10Z</time>
      </trkpt>
      <trkpt lat="46.99679" lon="-2.02672">
        <ele>2.2</ele>
        <time>2020-06-04T15:19:11Z</time>
      </trkpt>
      <trkpt lat="46.99679" lon="-2.02672">
        <ele>2.2</ele>
        <time>2020-06-04T15:19:12Z</time>
      </trkpt>
      <trkpt lat="46.99679" lon="-2.02672">
        <ele>2.2</ele>
        <time>2020-06-04T15:19:13Z</time>
      </trkpt>
      <trkpt lat="46.99679" lon="-2.02671">
        <ele>2.2</ele>
        <time>2020-06-04T15:19:14Z</time>
      </trkpt>
      <trkpt lat="46.99679" lon="-2.02671">
        <ele>2.2</ele>
        <time>2020-06-04T15:19:15Z</time>
      </trkpt>
      <trkpt lat="46.99679" lon="-2.02671">
        <ele>2.2</ele>
        <time>2020-06-04T15:19:16Z</time>
      </trkpt>
      <trkpt lat="46.99679" lon="-2.02673">
        <ele>2.2</ele>
        <time>2020-06-04T15:19:17Z</time>
      </trkpt>
      <trkpt lat="46.9968" lon="-2.02673">
        <ele>2.2</ele>
        <time>2020-06-04T15:19:18Z</time>
      </trkpt>
      <trkpt lat="46.9968" lon="-2.02673">
        <ele>2.2</ele>
        <time>2020-06-04T15:19:19Z</time>
      </trkpt>
      <trkpt lat="46.99681" lon="-2.02674">
        <ele>2.2</ele>
        <time>2020-06-04T15:19:20Z</time>
      </trkpt>
      <trkpt lat="46.99682" lon="-2.02674">
        <ele>2.2</ele>
        <time>2020-06-04T15:19:21Z</time>
      </trkpt>
      <trkpt lat="46.99682" lon="-2.02673">
        <ele>2.2</ele>
        <time>2020-06-04T15:19:22Z</time>
      </trkpt>
      <trkpt lat="46.99683" lon="-2.02672">
        <ele>2.2</ele>
        <time>2020-06-04T15:19:23Z</time>
      </trkpt>
      <trkpt lat="46.99684" lon="-2.02671">
        <ele>2.2</ele>
        <time>2020-06-04T15:19:24Z</time>
      </trkpt>
      <trkpt lat="46.99685" lon="-2.02671">
        <ele>2.2</ele>
        <time>2020-06-04T15:19:25Z</time>
      </trkpt>
      <trkpt lat="46.99686" lon="-2.0267">
        <ele>2.2</ele>
        <time>2020-06-04T15:19:26Z</time>
      </trkpt>
      <trkpt lat="46.99686" lon="-2.0267">
        <ele>2.2</ele>
        <time>2020-06-04T15:19:27Z</time>
      </trkpt>
      <trkpt lat="46.99687" lon="-2.02669">
        <ele>2.2</ele>
        <time>2020-06-04T15:19:28Z</time>
      </trkpt>
      <trkpt lat="46.99687" lon="-2.02669">
        <ele>2.2</ele>
        <time>2020-06-04T15:19:29Z</time>
      </trkpt>
      <trkpt lat="46.99688" lon="-2.02669">
        <ele>2.2</ele>
        <time>2020-06-04T15:19:30Z</time>
      </trkpt>
      <trkpt lat="46.99688" lon="-2.02668">
        <ele>2.2</ele>
        <time>2020-06-04T15:19:31Z</time>
      </trkpt>
      <trkpt lat="46.99689" lon="-2.02668">
        <ele>2.2</ele>
        <time>2020-06-04T15:19:32Z</time>
      </trkpt>
      <trkpt lat="46.9969" lon="-2.02667">
        <ele>2.2</ele>
        <time>2020-06-04T15:19:33Z</time>
      </trkpt>
      <trkpt lat="46.9969" lon="-2.02667">
        <ele>2.2</ele>
        <time>2020-06-04T15:19:34Z</time>
      </trkpt>
      <trkpt lat="46.99691" lon="-2.02667">
        <ele>2.2</ele>
        <time>2020-06-04T15:20:00Z</time>
      </trkpt>
      <trkpt lat="46.99691" lon="-2.02666">
        <ele>2.2</ele>
        <time>2020-06-04T15:20:01Z</time>
      </trkpt>
      <trkpt lat="46.99692" lon="-2.02666">
        <ele>2.2</ele>
        <time>2020-06-04T15:20:02Z</time>
      </trkpt>
      <trkpt lat="46.99695" lon="-2.02665">
        <ele>2.2</ele>
        <time>2020-06-04T15:20:03Z</time>
      </trkpt>
      <trkpt lat="46.99696" lon="-2.02665">
        <ele>2.2</ele>
        <time>2020-06-04T15:20:04Z</time>
      </trkpt>
      <trkpt lat="46.99699" lon="-2.02664">
        <ele>2.2</ele>
        <time>2020-06-04T15:20:05Z</time>
      </trkpt>
      <trkpt lat="46.99702" lon="-2.02664">
        <ele>2.2</ele>
        <time>2020-06-04T15:20:06Z</time>
      </trkpt>
      <trkpt lat="46.99705" lon="-2.02663">
        <ele>2.2</ele>
        <time>2020-06-04T15:20:07Z</time>
      </trkpt>
      <trkpt lat="46.99709" lon="-2.02663">
        <ele>2.2</ele>
        <time>2020-06-04T15:20:08Z</time>
      </trkpt>
      <trkpt lat="46.99712" lon="-2.02662">
        <ele>2.2</ele>
        <time>2020-06-04T15:20:09Z</time>
      </trkpt>
      <trkpt lat="46.99716" lon="-2.02661">
        <ele>2.2</ele>
        <time>2020-06-04T15:20:10Z</time>
      </trkpt>
      <trkpt lat="46.99719" lon="-2.0266">
        <ele>2.2</ele>
        <time>2020-06-04T15:20:11Z</time>
      </trkpt>
      <trkpt lat="46.99721" lon="-2.02657">
        <ele>2.2</ele>
        <time>2020-06-04T15:20:12Z</time>
      </trkpt>
      <trkpt lat="46.99724" lon="-2.02656">
        <ele>2.2</ele>
        <time>2020-06-04T15:20:13Z</time>
      </trkpt>
      <trkpt lat="46.99728" lon="-2.02654">
        <ele>2.2</ele>
        <time>2020-06-04T15:20:14Z</time>
      </trkpt>
      <trkpt lat="46.99729" lon="-2.02654">
        <ele>2.2</ele>
        <time>2020-06-04T15:20:15Z</time>
      </trkpt>
      <trkpt lat="46.99732" lon="-2.02653">
        <ele>2.2</ele>
        <time>2020-06-04T15:20:16Z</time>
      </trkpt>
      <trkpt lat="46.99733" lon="-2.02652">
        <ele>2.2</ele>
        <time>2020-06-04T15:20:17Z</time>
      </trkpt>
      <trkpt lat="46.99735" lon="-2.02656">
        <ele>2.2</ele>
        <time>2020-06-04T15:20:18Z</time>
      </trkpt>
      <trkpt lat="46.99737" lon="-2.02661">
        <ele>2.2</ele>
        <time>2020-06-04T15:20:19Z</time>
      </trkpt>
      <trkpt lat="46.99738" lon="-2.02667">
        <ele>2.2</ele>
        <time>2020-06-04T15:20:20Z</time>
      </trkpt>
      <trkpt lat="46.99739" lon="-2.02672">
        <ele>2.2</ele>
        <time>2020-06-04T15:20:21Z</time>
      </trkpt>
      <trkpt lat="46.9974" lon="-2.02678">
        <ele>2.2</ele>
        <time>2020-06-04T15:20:22Z</time>
      </trkpt>
      <trkpt lat="46.99742" lon="-2.02682">
        <ele>2.2</ele>
        <time>2020-06-04T15:20:23Z</time>
      </trkpt>
      <trkpt lat="46.99744" lon="-2.02688">
        <ele>2.2</ele>
        <time>2020-06-04T15:20:24Z</time>
      </trkpt>
      <trkpt lat="46.99745" lon="-2.02695">
        <ele>2.2</ele>
        <time>2020-06-04T15:20:25Z</time>
      </trkpt>
      <trkpt lat="46.99746" lon="-2.02703">
        <ele>2.2</ele>
        <time>2020-06-04T15:20:26Z</time>
      </trkpt>
      <trkpt lat="46.99748" lon="-2.0271">
        <ele>2.2</ele>
        <time>2020-06-04T15:20:27Z</time>
      </trkpt>
      <trkpt lat="46.99751" lon="-2.02716">
        <ele>2.2</ele>
        <time>2020-06-04T15:20:28Z</time>
      </trkpt>
      <trkpt lat="46.99753" lon="-2.02723">
        <ele>2.2</ele>
        <time>2020-06-04T15:20:29Z</time>
      </trkpt>
      <trkpt lat="46.99755" lon="-2.0273">
        <ele>2.2</ele>
        <time>2020-06-04T15:20:30Z</time>
      </trkpt>
      <trkpt lat="46.99757" lon="-2.02737">
        <ele>2.2</ele>
        <time>2020-06-04T15:20:31Z</time>
      </trkpt>
      <trkpt lat="46.99759" lon="-2.02743">
        <ele>2.2</ele>
        <time>2020-06-04T15:20:32Z</time>
      </trkpt>
      <trkpt lat="46.9976" lon="-2.0275">
        <ele>2.2</ele>
        <time>2020-06-04T15:20:33Z</time>
      </trkpt>
      <trkpt lat="46.99761" lon="-2.02759">
        <ele>2.3</ele>
        <time>2020-06-04T15:20:34Z</time>
      </trkpt>
      <trkpt lat="46.99762" lon="-2.02766">
        <ele>2.3</ele>
        <time>2020-06-04T15:20:35Z</time>
      </trkpt>
      <trkpt lat="46.99765" lon="-2.02773">
        <ele>2.3</ele>
        <time>2020-06-04T15:20:36Z</time>
      </trkpt>
      <trkpt lat="46.99768" lon="-2.02779">
        <ele>2.3</ele>
        <time>2020-06-04T15:20:37Z</time>
      </trkpt>
      <trkpt lat="46.9977" lon="-2.02786">
        <ele>2.3</ele>
        <time>2020-06-04T15:20:38Z</time>
      </trkpt>
      <trkpt lat="46.99772" lon="-2.02794">
        <ele>2.3</ele>
        <time>2020-06-04T15:20:39Z</time>
      </trkpt>
      <trkpt lat="46.99774" lon="-2.02802">
        <ele>2.3</ele>
        <time>2020-06-04T15:20:40Z</time>
      </trkpt>
      <trkpt lat="46.99776" lon="-2.02809">
        <ele>2.3</ele>
        <time>2020-06-04T15:20:41Z</time>
      </trkpt>
      <trkpt lat="46.99777" lon="-2.02815">
        <ele>2.3</ele>
        <time>2020-06-04T15:20:42Z</time>
      </trkpt>
      <trkpt lat="46.99779" lon="-2.02823">
        <ele>2.3</ele>
        <time>2020-06-04T15:20:43Z</time>
      </trkpt>
      <trkpt lat="46.99782" lon="-2.0283">
        <ele>2.3</ele>
        <time>2020-06-04T15:20:44Z</time>
      </trkpt>
      <trkpt lat="46.99784" lon="-2.02837">
        <ele>2.3</ele>
        <time>2020-06-04T15:20:45Z</time>
      </trkpt>
      <trkpt lat="46.99788" lon="-2.02842">
        <ele>2.3</ele>
        <time>2020-06-04T15:20:46Z</time>
      </trkpt>
      <trkpt lat="46.9979" lon="-2.02849">
        <ele>2.3</ele>
        <time>2020-06-04T15:20:47Z</time>
      </trkpt>
      <trkpt lat="46.99791" lon="-2.02856">
        <ele>2.3</ele>
        <time>2020-06-04T15:20:48Z</time>
      </trkpt>
      <trkpt lat="46.99792" lon="-2.02863">
        <ele>2.3</ele>
        <time>2020-06-04T15:20:49Z</time>
      </trkpt>
      <trkpt lat="46.99793" lon="-2.02872">
        <ele>2.3</ele>
        <time>2020-06-04T15:20:50Z</time>
      </trkpt>
      <trkpt lat="46.99794" lon="-2.02881">
        <ele>2.4</ele>
        <time>2020-06-04T15:20:51Z</time>
      </trkpt>
      <trkpt lat="46.99795" lon="-2.02889">
        <ele>2.4</ele>
        <time>2020-06-04T15:20:52Z</time>
      </trkpt>
      <trkpt lat="46.99797" lon="-2.02897">
        <ele>2.4</ele>
        <time>2020-06-04T15:20:53Z</time>
      </trkpt>
      <trkpt lat="46.99799" lon="-2.02905">
        <ele>2.4</ele>
        <time>2020-06-04T15:20:54Z</time>
      </trkpt>
      <trkpt lat="46.99801" lon="-2.02914">
        <ele>2.4</ele>
        <time>2020-06-04T15:20:55Z</time>
      </trkpt>
      <trkpt lat="46.99803" lon="-2.02923">
        <ele>2.4</ele>
        <time>2020-06-04T15:20:56Z</time>
      </trkpt>
      <trkpt lat="46.99804" lon="-2.02929">
        <ele>2.4</ele>
        <time>2020-06-04T15:20:57Z</time>
      </trkpt>
      <trkpt lat="46.99806" lon="-2.02932">
        <ele>2.3</ele>
        <time>2020-06-04T15:20:58Z</time>
      </trkpt>
      <trkpt lat="46.99808" lon="-2.02934">
        <ele>2.3</ele>
        <time>2020-06-04T15:20:59Z</time>
      </trkpt>
      <trkpt lat="46.99809" lon="-2.02936">
        <ele>2.3</ele>
        <time>2020-06-04T15:21:00Z</time>
      </trkpt>
      <trkpt lat="46.99807" lon="-2.02936">
        <ele>2.3</ele>
        <time>2020-06-04T15:21:01Z</time>
      </trkpt>
      <trkpt lat="46.99806" lon="-2.02934">
        <ele>2.3</ele>
        <time>2020-06-04T15:21:02Z</time>
      </trkpt>
      <trkpt lat="46.99805" lon="-2.02932">
        <ele>2.3</ele>
        <time>2020-06-04T15:21:03Z</time>
      </trkpt>
      <trkpt lat="46.99805" lon="-2.02931">
        <ele>2.3</ele>
        <time>2020-06-04T15:21:04Z</time>
      </trkpt>
      <trkpt lat="46.99805" lon="-2.02927">
        <ele>2.3</ele>
        <time>2020-06-04T15:21:05Z</time>
      </trkpt>
      <trkpt lat="46.99806" lon="-2.02923">
        <ele>2.3</ele>
        <time>2020-06-04T15:21:06Z</time>
      </trkpt>
      <trkpt lat="46.99806" lon="-2.02917">
        <ele>2.2</ele>
        <time>2020-06-04T15:21:07Z</time>
      </trkpt>
      <trkpt lat="46.99809" lon="-2.02911">
        <ele>2.2</ele>
        <time>2020-06-04T15:21:08Z</time>
      </trkpt>
      <trkpt lat="46.99812" lon="-2.02906">
        <ele>2.2</ele>
        <time>2020-06-04T15:21:09Z</time>
      </trkpt>
      <trkpt lat="46.99816" lon="-2.02903">
        <ele>2.2</ele>
        <time>2020-06-04T15:21:10Z</time>
      </trkpt>
      <trkpt lat="46.99821" lon="-2.02901">
        <ele>2.2</ele>
        <time>2020-06-04T15:21:11Z</time>
      </trkpt>
      <trkpt lat="46.99825" lon="-2.02899">
        <ele>2.2</ele>
        <time>2020-06-04T15:21:12Z</time>
      </trkpt>
      <trkpt lat="46.9983" lon="-2.02898">
        <ele>2.1</ele>
        <time>2020-06-04T15:21:13Z</time>
      </trkpt>
      <trkpt lat="46.99835" lon="-2.02897">
        <ele>2.1</ele>
        <time>2020-06-04T15:21:14Z</time>
      </trkpt>
      <trkpt lat="46.9984" lon="-2.02896">
        <ele>2.1</ele>
        <time>2020-06-04T15:21:15Z</time>
      </trkpt>
      <trkpt lat="46.99845" lon="-2.02895">
        <ele>2.1</ele>
        <time>2020-06-04T15:21:16Z</time>
      </trkpt>
      <trkpt lat="46.9985" lon="-2.02893">
        <ele>2.1</ele>
        <time>2020-06-04T15:21:17Z</time>
      </trkpt>
      <trkpt lat="46.99856" lon="-2.02892">
        <ele>2.1</ele>
        <time>2020-06-04T15:21:18Z</time>
      </trkpt>
      <trkpt lat="46.99861" lon="-2.02889">
        <ele>2.1</ele>
        <time>2020-06-04T15:21:19Z</time>
      </trkpt>
      <trkpt lat="46.99867" lon="-2.02887">
        <ele>2.1</ele>
        <time>2020-06-04T15:21:20Z</time>
      </trkpt>
      <trkpt lat="46.99872" lon="-2.02884">
        <ele>2.1</ele>
        <time>2020-06-04T15:21:21Z</time>
      </trkpt>
      <trkpt lat="46.99876" lon="-2.02881">
        <ele>2.1</ele>
        <time>2020-06-04T15:21:22Z</time>
      </trkpt>
      <trkpt lat="46.99881" lon="-2.02875">
        <ele>2.1</ele>
        <time>2020-06-04T15:21:23Z</time>
      </trkpt>
      <trkpt lat="46.99886" lon="-2.02869">
        <ele>2.1</ele>
        <time>2020-06-04T15:21:24Z</time>
      </trkpt>
      <trkpt lat="46.99891" lon="-2.02862">
        <ele>2.1</ele>
        <time>2020-06-04T15:21:25Z</time>
      </trkpt>
      <trkpt lat="46.99895" lon="-2.02855">
        <ele>2.1</ele>
        <time>2020-06-04T15:21:26Z</time>
      </trkpt>
      <trkpt lat="46.99898" lon="-2.02848">
        <ele>2</ele>
        <time>2020-06-04T15:21:27Z</time>
      </trkpt>
      <trkpt lat="46.99901" lon="-2.02843">
        <ele>2</ele>
        <time>2020-06-04T15:21:28Z</time>
      </trkpt>
      <trkpt lat="46.99904" lon="-2.02837">
        <ele>2</ele>
        <time>2020-06-04T15:21:29Z</time>
      </trkpt>
      <trkpt lat="46.99908" lon="-2.02832">
        <ele>2</ele>
        <time>2020-06-04T15:21:30Z</time>
      </trkpt>
      <trkpt lat="46.99911" lon="-2.02827">
        <ele>2</ele>
        <time>2020-06-04T15:21:31Z</time>
      </trkpt>
      <trkpt lat="46.99916" lon="-2.02822">
        <ele>2</ele>
        <time>2020-06-04T15:21:32Z</time>
      </trkpt>
      <trkpt lat="46.9992" lon="-2.02819">
        <ele>2</ele>
        <time>2020-06-04T15:21:33Z</time>
      </trkpt>
      <trkpt lat="46.99924" lon="-2.02817">
        <ele>2</ele>
        <time>2020-06-04T15:21:34Z</time>
      </trkpt>
      <trkpt lat="46.99929" lon="-2.02816">
        <ele>2</ele>
        <time>2020-06-04T15:21:35Z</time>
      </trkpt>
      <trkpt lat="46.99933" lon="-2.02817">
        <ele>2</ele>
        <time>2020-06-04T15:21:36Z</time>
      </trkpt>
      <trkpt lat="46.99937" lon="-2.02817">
        <ele>2</ele>
        <time>2020-06-04T15:21:37Z</time>
      </trkpt>
      <trkpt lat="46.99942" lon="-2.02817">
        <ele>2</ele>
        <time>2020-06-04T15:21:38Z</time>
      </trkpt>
      <trkpt lat="46.99947" lon="-2.02817">
        <ele>2</ele>
        <time>2020-06-04T15:21:39Z</time>
      </trkpt>
      <trkpt lat="46.99952" lon="-2.02816">
        <ele>2</ele>
        <time>2020-06-04T15:21:40Z</time>
      </trkpt>
      <trkpt lat="46.99956" lon="-2.02817">
        <ele>1.9</ele>
        <time>2020-06-04T15:21:41Z</time>
      </trkpt>
      <trkpt lat="46.99961" lon="-2.02818">
        <ele>1.9</ele>
        <time>2020-06-04T15:21:42Z</time>
      </trkpt>
      <trkpt lat="46.99966" lon="-2.02819">
        <ele>1.9</ele>
        <time>2020-06-04T15:21:43Z</time>
      </trkpt>
      <trkpt lat="46.9997" lon="-2.0282">
        <ele>1.9</ele>
        <time>2020-06-04T15:21:44Z</time>
      </trkpt>
      <trkpt lat="46.99975" lon="-2.0282">
        <ele>1.9</ele>
        <time>2020-06-04T15:21:45Z</time>
      </trkpt>
      <trkpt lat="46.9998" lon="-2.02821">
        <ele>1.9</ele>
        <time>2020-06-04T15:21:46Z</time>
      </trkpt>
      <trkpt lat="46.99986" lon="-2.0282">
        <ele>1.9</ele>
        <time>2020-06-04T15:21:47Z</time>
      </trkpt>
      <trkpt lat="46.99991" lon="-2.02821">
        <ele>1.9</ele>
        <time>2020-06-04T15:21:48Z</time>
      </trkpt>
      <trkpt lat="46.99996" lon="-2.02821">
        <ele>1.9</ele>
        <time>2020-06-04T15:21:49Z</time>
      </trkpt>
      <trkpt lat="47" lon="-2.02822">
        <ele>1.9</ele>
        <time>2020-06-04T15:21:50Z</time>
      </trkpt>
      <trkpt lat="47.00005" lon="-2.02822">
        <ele>1.9</ele>
        <time>2020-06-04T15:21:51Z</time>
      </trkpt>
      <trkpt lat="47.0001" lon="-2.02821">
        <ele>1.9</ele>
        <time>2020-06-04T15:21:52Z</time>
      </trkpt>
      <trkpt lat="47.00015" lon="-2.02822">
        <ele>1.8</ele>
        <time>2020-06-04T15:21:53Z</time>
      </trkpt>
      <trkpt lat="47.0002" lon="-2.02822">
        <ele>1.8</ele>
        <time>2020-06-04T15:21:54Z</time>
      </trkpt>
      <trkpt lat="47.00025" lon="-2.02822">
        <ele>1.8</ele>
        <time>2020-06-04T15:21:55Z</time>
      </trkpt>
      <trkpt lat="47.0003" lon="-2.02822">
        <ele>1.8</ele>
        <time>2020-06-04T15:21:56Z</time>
      </trkpt>
      <trkpt lat="47.00034" lon="-2.02821">
        <ele>1.8</ele>
        <time>2020-06-04T15:21:57Z</time>
      </trkpt>
      <trkpt lat="47.00039" lon="-2.0282">
        <ele>1.8</ele>
        <time>2020-06-04T15:21:58Z</time>
      </trkpt>
      <trkpt lat="47.00044" lon="-2.02819">
        <ele>1.8</ele>
        <time>2020-06-04T15:21:59Z</time>
      </trkpt>
      <trkpt lat="47.00049" lon="-2.02819">
        <ele>1.7</ele>
        <time>2020-06-04T15:22:00Z</time>
      </trkpt>
      <trkpt lat="47.00053" lon="-2.02818">
        <ele>1.7</ele>
        <time>2020-06-04T15:22:01Z</time>
      </trkpt>
      <trkpt lat="47.00058" lon="-2.02816">
        <ele>1.7</ele>
        <time>2020-06-04T15:22:02Z</time>
      </trkpt>
      <trkpt lat="47.00063" lon="-2.02817">
        <ele>1.7</ele>
        <time>2020-06-04T15:22:03Z</time>
      </trkpt>
      <trkpt lat="47.00068" lon="-2.02816">
        <ele>1.7</ele>
        <time>2020-06-04T15:22:04Z</time>
      </trkpt>
      <trkpt lat="47.00073" lon="-2.02815">
        <ele>1.7</ele>
        <time>2020-06-04T15:22:05Z</time>
      </trkpt>
      <trkpt lat="47.00078" lon="-2.02815">
        <ele>1.7</ele>
        <time>2020-06-04T15:22:06Z</time>
      </trkpt>
      <trkpt lat="47.00082" lon="-2.02814">
        <ele>1.6</ele>
        <time>2020-06-04T15:22:07Z</time>
      </trkpt>
      <trkpt lat="47.00087" lon="-2.02813">
        <ele>1.6</ele>
        <time>2020-06-04T15:22:08Z</time>
      </trkpt>
      <trkpt lat="47.00091" lon="-2.02812">
        <ele>1.6</ele>
        <time>2020-06-04T15:22:09Z</time>
      </trkpt>
      <trkpt lat="47.00095" lon="-2.02811">
        <ele>1.6</ele>
        <time>2020-06-04T15:22:10Z</time>
      </trkpt>
      <trkpt lat="47.001" lon="-2.02811">
        <ele>1.6</ele>
        <time>2020-06-04T15:22:11Z</time>
      </trkpt>
      <trkpt lat="47.00106" lon="-2.0281">
        <ele>1.6</ele>
        <time>2020-06-04T15:22:12Z</time>
      </trkpt>
      <trkpt lat="47.00111" lon="-2.02809">
        <ele>1.6</ele>
        <time>2020-06-04T15:22:13Z</time>
      </trkpt>
      <trkpt lat="47.00115" lon="-2.0281">
        <ele>1.6</ele>
        <time>2020-06-04T15:22:14Z</time>
      </trkpt>
      <trkpt lat="47.0012" lon="-2.02809">
        <ele>1.5</ele>
        <time>2020-06-04T15:22:15Z</time>
      </trkpt>
      <trkpt lat="47.00125" lon="-2.02808">
        <ele>1.5</ele>
        <time>2020-06-04T15:22:16Z</time>
      </trkpt>
      <trkpt lat="47.00131" lon="-2.02807">
        <ele>1.5</ele>
        <time>2020-06-04T15:22:17Z</time>
      </trkpt>
      <trkpt lat="47.00136" lon="-2.02806">
        <ele>1.5</ele>
        <time>2020-06-04T15:22:18Z</time>
      </trkpt>
      <trkpt lat="47.00141" lon="-2.02805">
        <ele>1.5</ele>
        <time>2020-06-04T15:22:19Z</time>
      </trkpt>
      <trkpt lat="47.00147" lon="-2.02803">
        <ele>1.4</ele>
        <time>2020-06-04T15:22:20Z</time>
      </trkpt>
      <trkpt lat="47.00151" lon="-2.02803">
        <ele>1.4</ele>
        <time>2020-06-04T15:22:21Z</time>
      </trkpt>
      <trkpt lat="47.00156" lon="-2.02802">
        <ele>1.4</ele>
        <time>2020-06-04T15:22:22Z</time>
      </trkpt>
      <trkpt lat="47.0016" lon="-2.02801">
        <ele>1.4</ele>
        <time>2020-06-04T15:22:23Z</time>
      </trkpt>
      <trkpt lat="47.00165" lon="-2.02798">
        <ele>1.4</ele>
        <time>2020-06-04T15:22:24Z</time>
      </trkpt>
      <trkpt lat="47.0017" lon="-2.02796">
        <ele>1.4</ele>
        <time>2020-06-04T15:22:25Z</time>
      </trkpt>
      <trkpt lat="47.00176" lon="-2.02794">
        <ele>1.4</ele>
        <time>2020-06-04T15:22:26Z</time>
      </trkpt>
      <trkpt lat="47.0018" lon="-2.02791">
        <ele>1.4</ele>
        <time>2020-06-04T15:22:27Z</time>
      </trkpt>
      <trkpt lat="47.00185" lon="-2.02789">
        <ele>1.3</ele>
        <time>2020-06-04T15:22:28Z</time>
      </trkpt>
      <trkpt lat="47.0019" lon="-2.02786">
        <ele>1.3</ele>
        <time>2020-06-04T15:22:29Z</time>
      </trkpt>
      <trkpt lat="47.00194" lon="-2.02783">
        <ele>1.3</ele>
        <time>2020-06-04T15:22:30Z</time>
      </trkpt>
      <trkpt lat="47.002" lon="-2.02781">
        <ele>1.3</ele>
        <time>2020-06-04T15:22:31Z</time>
      </trkpt>
      <trkpt lat="47.00204" lon="-2.02778">
        <ele>1.3</ele>
        <time>2020-06-04T15:22:32Z</time>
      </trkpt>
      <trkpt lat="47.00208" lon="-2.02777">
        <ele>1.3</ele>
        <time>2020-06-04T15:22:33Z</time>
      </trkpt>
      <trkpt lat="47.00212" lon="-2.02775">
        <ele>1.3</ele>
        <time>2020-06-04T15:22:34Z</time>
      </trkpt>
      <trkpt lat="47.00216" lon="-2.02772">
        <ele>1.3</ele>
        <time>2020-06-04T15:22:35Z</time>
      </trkpt>
      <trkpt lat="47.00222" lon="-2.0277">
        <ele>1.3</ele>
        <time>2020-06-04T15:22:36Z</time>
      </trkpt>
      <trkpt lat="47.00226" lon="-2.02768">
        <ele>1.2</ele>
        <time>2020-06-04T15:22:37Z</time>
      </trkpt>
      <trkpt lat="47.0023" lon="-2.02766">
        <ele>1.2</ele>
        <time>2020-06-04T15:22:38Z</time>
      </trkpt>
      <trkpt lat="47.00234" lon="-2.02764">
        <ele>1.2</ele>
        <time>2020-06-04T15:22:39Z</time>
      </trkpt>
      <trkpt lat="47.00239" lon="-2.02763">
        <ele>1.2</ele>
        <time>2020-06-04T15:22:40Z</time>
      </trkpt>
      <trkpt lat="47.00243" lon="-2.0276">
        <ele>1.2</ele>
        <time>2020-06-04T15:22:41Z</time>
      </trkpt>
      <trkpt lat="47.00247" lon="-2.02759">
        <ele>1.2</ele>
        <time>2020-06-04T15:22:42Z</time>
      </trkpt>
      <trkpt lat="47.00252" lon="-2.02756">
        <ele>1.1</ele>
        <time>2020-06-04T15:22:43Z</time>
      </trkpt>
      <trkpt lat="47.00256" lon="-2.02754">
        <ele>1.1</ele>
        <time>2020-06-04T15:22:44Z</time>
      </trkpt>
      <trkpt lat="47.0026" lon="-2.02753">
        <ele>1.1</ele>
        <time>2020-06-04T15:22:45Z</time>
      </trkpt>
      <trkpt lat="47.00264" lon="-2.02751">
        <ele>1.1</ele>
        <time>2020-06-04T15:22:46Z</time>
      </trkpt>
      <trkpt lat="47.00269" lon="-2.02748">
        <ele>1.1</ele>
        <time>2020-06-04T15:22:47Z</time>
      </trkpt>
      <trkpt lat="47.00272" lon="-2.02746">
        <ele>1.1</ele>
        <time>2020-06-04T15:22:48Z</time>
      </trkpt>
      <trkpt lat="47.00276" lon="-2.02743">
        <ele>1.1</ele>
        <time>2020-06-04T15:22:49Z</time>
      </trkpt>
      <trkpt lat="47.0028" lon="-2.02741">
        <ele>1.1</ele>
        <time>2020-06-04T15:22:50Z</time>
      </trkpt>
      <trkpt lat="47.00284" lon="-2.02739">
        <ele>1.1</ele>
        <time>2020-06-04T15:22:51Z</time>
      </trkpt>
      <trkpt lat="47.00289" lon="-2.02737">
        <ele>1.1</ele>
        <time>2020-06-04T15:22:52Z</time>
      </trkpt>
      <trkpt lat="47.00294" lon="-2.02735">
        <ele>1.1</ele>
        <time>2020-06-04T15:22:53Z</time>
      </trkpt>
      <trkpt lat="47.00298" lon="-2.02733">
        <ele>1.1</ele>
        <time>2020-06-04T15:22:54Z</time>
      </trkpt>
      <trkpt lat="47.00303" lon="-2.02731">
        <ele>1.1</ele>
        <time>2020-06-04T15:22:55Z</time>
      </trkpt>
      <trkpt lat="47.00308" lon="-2.02729">
        <ele>1.1</ele>
        <time>2020-06-04T15:22:56Z</time>
      </trkpt>
      <trkpt lat="47.00313" lon="-2.02727">
        <ele>1.1</ele>
        <time>2020-06-04T15:22:57Z</time>
      </trkpt>
      <trkpt lat="47.00318" lon="-2.02724">
        <ele>1.1</ele>
        <time>2020-06-04T15:22:58Z</time>
      </trkpt>
      <trkpt lat="47.00323" lon="-2.02722">
        <ele>1.1</ele>
        <time>2020-06-04T15:22:59Z</time>
      </trkpt>
      <trkpt lat="47.00329" lon="-2.02719">
        <ele>1.1</ele>
        <time>2020-06-04T15:23:00Z</time>
      </trkpt>
      <trkpt lat="47.00333" lon="-2.02718">
        <ele>1.1</ele>
        <time>2020-06-04T15:23:01Z</time>
      </trkpt>
      <trkpt lat="47.00338" lon="-2.02715">
        <ele>1.1</ele>
        <time>2020-06-04T15:23:02Z</time>
      </trkpt>
      <trkpt lat="47.00343" lon="-2.02713">
        <ele>1.1</ele>
        <time>2020-06-04T15:23:03Z</time>
      </trkpt>
      <trkpt lat="47.00347" lon="-2.02711">
        <ele>1.1</ele>
        <time>2020-06-04T15:23:04Z</time>
      </trkpt>
      <trkpt lat="47.00352" lon="-2.02709">
        <ele>1.1</ele>
        <time>2020-06-04T15:23:05Z</time>
      </trkpt>
      <trkpt lat="47.00356" lon="-2.02708">
        <ele>1.1</ele>
        <time>2020-06-04T15:23:06Z</time>
      </trkpt>
      <trkpt lat="47.0036" lon="-2.02704">
        <ele>1.1</ele>
        <time>2020-06-04T15:23:07Z</time>
      </trkpt>
      <trkpt lat="47.00364" lon="-2.02701">
        <ele>1.1</ele>
        <time>2020-06-04T15:23:08Z</time>
      </trkpt>
      <trkpt lat="47.00368" lon="-2.02697">
        <ele>1.1</ele>
        <time>2020-06-04T15:23:09Z</time>
      </trkpt>
      <trkpt lat="47.00373" lon="-2.02694">
        <ele>1.1</ele>
        <time>2020-06-04T15:23:10Z</time>
      </trkpt>
      <trkpt lat="47.00378" lon="-2.02693">
        <ele>1.1</ele>
        <time>2020-06-04T15:23:11Z</time>
      </trkpt>
      <trkpt lat="47.00382" lon="-2.0269">
        <ele>1.1</ele>
        <time>2020-06-04T15:23:12Z</time>
      </trkpt>
      <trkpt lat="47.00386" lon="-2.02687">
        <ele>1.1</ele>
        <time>2020-06-04T15:23:13Z</time>
      </trkpt>
      <trkpt lat="47.00391" lon="-2.02684">
        <ele>1.1</ele>
        <time>2020-06-04T15:23:14Z</time>
      </trkpt>
      <trkpt lat="47.00396" lon="-2.02681">
        <ele>1.1</ele>
        <time>2020-06-04T15:23:15Z</time>
      </trkpt>
      <trkpt lat="47.004" lon="-2.02678">
        <ele>1.1</ele>
        <time>2020-06-04T15:23:16Z</time>
      </trkpt>
      <trkpt lat="47.00405" lon="-2.02676">
        <ele>1.1</ele>
        <time>2020-06-04T15:23:17Z</time>
      </trkpt>
      <trkpt lat="47.00409" lon="-2.02675">
        <ele>1.1</ele>
        <time>2020-06-04T15:23:18Z</time>
      </trkpt>
      <trkpt lat="47.00413" lon="-2.02673">
        <ele>1.1</ele>
        <time>2020-06-04T15:23:19Z</time>
      </trkpt>
      <trkpt lat="47.00418" lon="-2.0267">
        <ele>1.1</ele>
        <time>2020-06-04T15:23:20Z</time>
      </trkpt>
      <trkpt lat="47.00423" lon="-2.02668">
        <ele>1.1</ele>
        <time>2020-06-04T15:23:21Z</time>
      </trkpt>
      <trkpt lat="47.00428" lon="-2.02667">
        <ele>1</ele>
        <time>2020-06-04T15:23:22Z</time>
      </trkpt>
      <trkpt lat="47.00432" lon="-2.02666">
        <ele>1</ele>
        <time>2020-06-04T15:23:23Z</time>
      </trkpt>
      <trkpt lat="47.00437" lon="-2.02664">
        <ele>1</ele>
        <time>2020-06-04T15:23:24Z</time>
      </trkpt>
      <trkpt lat="47.00442" lon="-2.02662">
        <ele>1</ele>
        <time>2020-06-04T15:23:25Z</time>
      </trkpt>
      <trkpt lat="47.00446" lon="-2.02661">
        <ele>1</ele>
        <time>2020-06-04T15:23:26Z</time>
      </trkpt>
      <trkpt lat="47.00452" lon="-2.02658">
        <ele>0.9</ele>
        <time>2020-06-04T15:23:27Z</time>
      </trkpt>
      <trkpt lat="47.00457" lon="-2.02657">
        <ele>0.9</ele>
        <time>2020-06-04T15:23:28Z</time>
      </trkpt>
      <trkpt lat="47.00461" lon="-2.02655">
        <ele>0.9</ele>
        <time>2020-06-04T15:23:29Z</time>
      </trkpt>
      <trkpt lat="47.00466" lon="-2.02652">
        <ele>0.9</ele>
        <time>2020-06-04T15:23:30Z</time>
      </trkpt>
      <trkpt lat="47.00471" lon="-2.02649">
        <ele>0.8</ele>
        <time>2020-06-04T15:23:31Z</time>
      </trkpt>
      <trkpt lat="47.00475" lon="-2.02647">
        <ele>0.8</ele>
        <time>2020-06-04T15:23:32Z</time>
      </trkpt>
      <trkpt lat="47.00478" lon="-2.02645">
        <ele>0.8</ele>
        <time>2020-06-04T15:23:33Z</time>
      </trkpt>
      <trkpt lat="47.00482" lon="-2.02643">
        <ele>0.8</ele>
        <time>2020-06-04T15:23:34Z</time>
      </trkpt>
      <trkpt lat="47.00487" lon="-2.02641">
        <ele>0.8</ele>
        <time>2020-06-04T15:23:35Z</time>
      </trkpt>
      <trkpt lat="47.00491" lon="-2.0264">
        <ele>0.8</ele>
        <time>2020-06-04T15:23:36Z</time>
      </trkpt>
      <trkpt lat="47.00495" lon="-2.02639">
        <ele>0.7</ele>
        <time>2020-06-04T15:23:37Z</time>
      </trkpt>
      <trkpt lat="47.005" lon="-2.02637">
        <ele>0.7</ele>
        <time>2020-06-04T15:23:38Z</time>
      </trkpt>
      <trkpt lat="47.00504" lon="-2.02636">
        <ele>0.8</ele>
        <time>2020-06-04T15:23:39Z</time>
      </trkpt>
      <trkpt lat="47.00508" lon="-2.02633">
        <ele>0.8</ele>
        <time>2020-06-04T15:23:40Z</time>
      </trkpt>
      <trkpt lat="47.00513" lon="-2.02632">
        <ele>0.8</ele>
        <time>2020-06-04T15:23:41Z</time>
      </trkpt>
      <trkpt lat="47.00517" lon="-2.02631">
        <ele>0.8</ele>
        <time>2020-06-04T15:23:42Z</time>
      </trkpt>
      <trkpt lat="47.00521" lon="-2.0263">
        <ele>0.8</ele>
        <time>2020-06-04T15:23:43Z</time>
      </trkpt>
      <trkpt lat="47.00524" lon="-2.02627">
        <ele>0.8</ele>
        <time>2020-06-04T15:23:44Z</time>
      </trkpt>
      <trkpt lat="47.00529" lon="-2.02626">
        <ele>0.8</ele>
        <time>2020-06-04T15:23:45Z</time>
      </trkpt>
      <trkpt lat="47.00533" lon="-2.02624">
        <ele>0.8</ele>
        <time>2020-06-04T15:23:46Z</time>
      </trkpt>
      <trkpt lat="47.00537" lon="-2.02622">
        <ele>0.8</ele>
        <time>2020-06-04T15:23:47Z</time>
      </trkpt>
      <trkpt lat="47.00543" lon="-2.02619">
        <ele>0.9</ele>
        <time>2020-06-04T15:23:48Z</time>
      </trkpt>
      <trkpt lat="47.00547" lon="-2.02617">
        <ele>0.9</ele>
        <time>2020-06-04T15:23:49Z</time>
      </trkpt>
      <trkpt lat="47.00552" lon="-2.02615">
        <ele>0.9</ele>
        <time>2020-06-04T15:23:50Z</time>
      </trkpt>
      <trkpt lat="47.00558" lon="-2.02613">
        <ele>0.9</ele>
        <time>2020-06-04T15:23:51Z</time>
      </trkpt>
      <trkpt lat="47.00563" lon="-2.02611">
        <ele>0.9</ele>
        <time>2020-06-04T15:23:52Z</time>
      </trkpt>
      <trkpt lat="47.00568" lon="-2.0261">
        <ele>0.9</ele>
        <time>2020-06-04T15:23:53Z</time>
      </trkpt>
      <trkpt lat="47.00573" lon="-2.02609">
        <ele>0.9</ele>
        <time>2020-06-04T15:23:54Z</time>
      </trkpt>
      <trkpt lat="47.00577" lon="-2.02607">
        <ele>0.9</ele>
        <time>2020-06-04T15:23:55Z</time>
      </trkpt>
      <trkpt lat="47.00582" lon="-2.02604">
        <ele>0.9</ele>
        <time>2020-06-04T15:23:56Z</time>
      </trkpt>
      <trkpt lat="47.00586" lon="-2.02602">
        <ele>0.9</ele>
        <time>2020-06-04T15:23:57Z</time>
      </trkpt>
      <trkpt lat="47.00592" lon="-2.02601">
        <ele>0.9</ele>
        <time>2020-06-04T15:23:58Z</time>
      </trkpt>
      <trkpt lat="47.00596" lon="-2.026">
        <ele>1</ele>
        <time>2020-06-04T15:23:59Z</time>
      </trkpt>
      <trkpt lat="47.00601" lon="-2.026">
        <ele>1</ele>
        <time>2020-06-04T15:24:00Z</time>
      </trkpt>
      <trkpt lat="47.00605" lon="-2.02599">
        <ele>1</ele>
        <time>2020-06-04T15:24:01Z</time>
      </trkpt>
      <trkpt lat="47.0061" lon="-2.02599">
        <ele>1</ele>
        <time>2020-06-04T15:24:02Z</time>
      </trkpt>
      <trkpt lat="47.00616" lon="-2.02596">
        <ele>1</ele>
        <time>2020-06-04T15:24:03Z</time>
      </trkpt>
      <trkpt lat="47.0062" lon="-2.02596">
        <ele>1</ele>
        <time>2020-06-04T15:24:04Z</time>
      </trkpt>
      <trkpt lat="47.00625" lon="-2.02595">
        <ele>1</ele>
        <time>2020-06-04T15:24:05Z</time>
      </trkpt>
      <trkpt lat="47.0063" lon="-2.02594">
        <ele>1</ele>
        <time>2020-06-04T15:24:06Z</time>
      </trkpt>
      <trkpt lat="47.00634" lon="-2.02592">
        <ele>1</ele>
        <time>2020-06-04T15:24:07Z</time>
      </trkpt>
      <trkpt lat="47.0064" lon="-2.02589">
        <ele>1</ele>
        <time>2020-06-04T15:24:08Z</time>
      </trkpt>
      <trkpt lat="47.00645" lon="-2.02586">
        <ele>1</ele>
        <time>2020-06-04T15:24:09Z</time>
      </trkpt>
      <trkpt lat="47.00649" lon="-2.02583">
        <ele>1</ele>
        <time>2020-06-04T15:24:10Z</time>
      </trkpt>
      <trkpt lat="47.00653" lon="-2.02579">
        <ele>1</ele>
        <time>2020-06-04T15:24:11Z</time>
      </trkpt>
      <trkpt lat="47.00657" lon="-2.02576">
        <ele>1</ele>
        <time>2020-06-04T15:24:12Z</time>
      </trkpt>
      <trkpt lat="47.00661" lon="-2.02573">
        <ele>1</ele>
        <time>2020-06-04T15:24:13Z</time>
      </trkpt>
      <trkpt lat="47.00665" lon="-2.0257">
        <ele>1</ele>
        <time>2020-06-04T15:24:14Z</time>
      </trkpt>
      <trkpt lat="47.00669" lon="-2.02567">
        <ele>1</ele>
        <time>2020-06-04T15:24:15Z</time>
      </trkpt>
      <trkpt lat="47.00674" lon="-2.02567">
        <ele>1</ele>
        <time>2020-06-04T15:24:16Z</time>
      </trkpt>
      <trkpt lat="47.00679" lon="-2.02568">
        <ele>1</ele>
        <time>2020-06-04T15:24:17Z</time>
      </trkpt>
      <trkpt lat="47.00683" lon="-2.02572">
        <ele>1</ele>
        <time>2020-06-04T15:24:18Z</time>
      </trkpt>
      <trkpt lat="47.00688" lon="-2.02576">
        <ele>1</ele>
        <time>2020-06-04T15:24:19Z</time>
      </trkpt>
      <trkpt lat="47.00692" lon="-2.0258">
        <ele>1</ele>
        <time>2020-06-04T15:24:20Z</time>
      </trkpt>
      <trkpt lat="47.00695" lon="-2.02587">
        <ele>0.9</ele>
        <time>2020-06-04T15:24:21Z</time>
      </trkpt>
      <trkpt lat="47.00697" lon="-2.02594">
        <ele>0.9</ele>
        <time>2020-06-04T15:24:22Z</time>
      </trkpt>
      <trkpt lat="47.00698" lon="-2.02603">
        <ele>0.9</ele>
        <time>2020-06-04T15:24:23Z</time>
      </trkpt>
      <trkpt lat="47.007" lon="-2.0261">
        <ele>0.9</ele>
        <time>2020-06-04T15:24:24Z</time>
      </trkpt>
      <trkpt lat="47.00702" lon="-2.02617">
        <ele>0.9</ele>
        <time>2020-06-04T15:24:25Z</time>
      </trkpt>
      <trkpt lat="47.00703" lon="-2.02624">
        <ele>0.9</ele>
        <time>2020-06-04T15:24:26Z</time>
      </trkpt>
      <trkpt lat="47.00705" lon="-2.02631">
        <ele>0.9</ele>
        <time>2020-06-04T15:24:27Z</time>
      </trkpt>
      <trkpt lat="47.00707" lon="-2.02637">
        <ele>0.9</ele>
        <time>2020-06-04T15:24:28Z</time>
      </trkpt>
      <trkpt lat="47.00708" lon="-2.02644">
        <ele>0.9</ele>
        <time>2020-06-04T15:24:29Z</time>
      </trkpt>
      <trkpt lat="47.0071" lon="-2.0265">
        <ele>0.8</ele>
        <time>2020-06-04T15:24:30Z</time>
      </trkpt>
      <trkpt lat="47.00711" lon="-2.02657">
        <ele>0.8</ele>
        <time>2020-06-04T15:24:31Z</time>
      </trkpt>
      <trkpt lat="47.00712" lon="-2.02664">
        <ele>0.8</ele>
        <time>2020-06-04T15:24:32Z</time>
      </trkpt>
      <trkpt lat="47.00713" lon="-2.02672">
        <ele>0.8</ele>
        <time>2020-06-04T15:24:33Z</time>
      </trkpt>
      <trkpt lat="47.00714" lon="-2.0268">
        <ele>0.8</ele>
        <time>2020-06-04T15:24:34Z</time>
      </trkpt>
      <trkpt lat="47.00715" lon="-2.02688">
        <ele>0.8</ele>
        <time>2020-06-04T15:24:35Z</time>
      </trkpt>
      <trkpt lat="47.00716" lon="-2.02696">
        <ele>0.8</ele>
        <time>2020-06-04T15:24:36Z</time>
      </trkpt>
      <trkpt lat="47.00717" lon="-2.02703">
        <ele>0.8</ele>
        <time>2020-06-04T15:24:37Z</time>
      </trkpt>
      <trkpt lat="47.0072" lon="-2.02709">
        <ele>0.8</ele>
        <time>2020-06-04T15:24:38Z</time>
      </trkpt>
      <trkpt lat="47.00723" lon="-2.02715">
        <ele>0.8</ele>
        <time>2020-06-04T15:24:39Z</time>
      </trkpt>
      <trkpt lat="47.00727" lon="-2.0272">
        <ele>0.8</ele>
        <time>2020-06-04T15:24:40Z</time>
      </trkpt>
      <trkpt lat="47.00732" lon="-2.02723">
        <ele>0.8</ele>
        <time>2020-06-04T15:24:41Z</time>
      </trkpt>
      <trkpt lat="47.00738" lon="-2.02721">
        <ele>0.8</ele>
        <time>2020-06-04T15:24:42Z</time>
      </trkpt>
      <trkpt lat="47.00743" lon="-2.0272">
        <ele>0.8</ele>
        <time>2020-06-04T15:24:43Z</time>
      </trkpt>
      <trkpt lat="47.00749" lon="-2.02719">
        <ele>0.8</ele>
        <time>2020-06-04T15:24:44Z</time>
      </trkpt>
      <trkpt lat="47.00755" lon="-2.02718">
        <ele>0.8</ele>
        <time>2020-06-04T15:24:45Z</time>
      </trkpt>
      <trkpt lat="47.0076" lon="-2.02716">
        <ele>0.9</ele>
        <time>2020-06-04T15:24:46Z</time>
      </trkpt>
      <trkpt lat="47.00764" lon="-2.02716">
        <ele>0.9</ele>
        <time>2020-06-04T15:24:47Z</time>
      </trkpt>
      <trkpt lat="47.00769" lon="-2.02715">
        <ele>0.9</ele>
        <time>2020-06-04T15:24:48Z</time>
      </trkpt>
      <trkpt lat="47.00774" lon="-2.02715">
        <ele>0.9</ele>
        <time>2020-06-04T15:24:49Z</time>
      </trkpt>
      <trkpt lat="47.00779" lon="-2.02716">
        <ele>0.9</ele>
        <time>2020-06-04T15:24:50Z</time>
      </trkpt>
      <trkpt lat="47.00783" lon="-2.02717">
        <ele>0.9</ele>
        <time>2020-06-04T15:24:51Z</time>
      </trkpt>
      <trkpt lat="47.00788" lon="-2.02719">
        <ele>1</ele>
        <time>2020-06-04T15:24:52Z</time>
      </trkpt>
      <trkpt lat="47.00792" lon="-2.02721">
        <ele>1</ele>
        <time>2020-06-04T15:24:53Z</time>
      </trkpt>
      <trkpt lat="47.00796" lon="-2.02723">
        <ele>1</ele>
        <time>2020-06-04T15:24:54Z</time>
      </trkpt>
      <trkpt lat="47.008" lon="-2.02725">
        <ele>1</ele>
        <time>2020-06-04T15:24:55Z</time>
      </trkpt>
      <trkpt lat="47.00805" lon="-2.02727">
        <ele>1</ele>
        <time>2020-06-04T15:24:56Z</time>
      </trkpt>
      <trkpt lat="47.0081" lon="-2.02728">
        <ele>1</ele>
        <time>2020-06-04T15:24:57Z</time>
      </trkpt>
      <trkpt lat="47.00815" lon="-2.02731">
        <ele>1</ele>
        <time>2020-06-04T15:24:58Z</time>
      </trkpt>
      <trkpt lat="47.0082" lon="-2.02732">
        <ele>1.1</ele>
        <time>2020-06-04T15:24:59Z</time>
      </trkpt>
      <trkpt lat="47.00824" lon="-2.02734">
        <ele>1.1</ele>
        <time>2020-06-04T15:25:00Z</time>
      </trkpt>
      <trkpt lat="47.0083" lon="-2.02734">
        <ele>1.1</ele>
        <time>2020-06-04T15:25:01Z</time>
      </trkpt>
      <trkpt lat="47.00835" lon="-2.02734">
        <ele>1.1</ele>
        <time>2020-06-04T15:25:02Z</time>
      </trkpt>
      <trkpt lat="47.00839" lon="-2.02736">
        <ele>1.1</ele>
        <time>2020-06-04T15:25:03Z</time>
      </trkpt>
      <trkpt lat="47.00844" lon="-2.02737">
        <ele>1.1</ele>
        <time>2020-06-04T15:25:04Z</time>
      </trkpt>
      <trkpt lat="47.00849" lon="-2.02736">
        <ele>1.2</ele>
        <time>2020-06-04T15:25:05Z</time>
      </trkpt>
      <trkpt lat="47.00854" lon="-2.02736">
        <ele>1.2</ele>
        <time>2020-06-04T15:25:06Z</time>
      </trkpt>
      <trkpt lat="47.00858" lon="-2.02737">
        <ele>1.2</ele>
        <time>2020-06-04T15:25:07Z</time>
      </trkpt>
      <trkpt lat="47.00863" lon="-2.02737">
        <ele>1.2</ele>
        <time>2020-06-04T15:25:08Z</time>
      </trkpt>
      <trkpt lat="47.00868" lon="-2.02737">
        <ele>1.3</ele>
        <time>2020-06-04T15:25:09Z</time>
      </trkpt>
      <trkpt lat="47.00872" lon="-2.02738">
        <ele>1.3</ele>
        <time>2020-06-04T15:25:10Z</time>
      </trkpt>
      <trkpt lat="47.00878" lon="-2.02737">
        <ele>1.3</ele>
        <time>2020-06-04T15:25:11Z</time>
      </trkpt>
      <trkpt lat="47.00883" lon="-2.02738">
        <ele>1.4</ele>
        <time>2020-06-04T15:25:12Z</time>
      </trkpt>
      <trkpt lat="47.00888" lon="-2.02739">
        <ele>1.4</ele>
        <time>2020-06-04T15:25:13Z</time>
      </trkpt>
      <trkpt lat="47.00893" lon="-2.0274">
        <ele>1.4</ele>
        <time>2020-06-04T15:25:14Z</time>
      </trkpt>
      <trkpt lat="47.00897" lon="-2.0274">
        <ele>1.5</ele>
        <time>2020-06-04T15:25:15Z</time>
      </trkpt>
      <trkpt lat="47.00901" lon="-2.0274">
        <ele>1.5</ele>
        <time>2020-06-04T15:25:16Z</time>
      </trkpt>
      <trkpt lat="47.00905" lon="-2.0274">
        <ele>1.5</ele>
        <time>2020-06-04T15:25:17Z</time>
      </trkpt>
      <trkpt lat="47.00909" lon="-2.0274">
        <ele>1.6</ele>
        <time>2020-06-04T15:25:18Z</time>
      </trkpt>
      <trkpt lat="47.00913" lon="-2.02739">
        <ele>1.6</ele>
        <time>2020-06-04T15:25:19Z</time>
      </trkpt>
      <trkpt lat="47.00917" lon="-2.02736">
        <ele>1.6</ele>
        <time>2020-06-04T15:25:20Z</time>
      </trkpt>
      <trkpt lat="47.00918" lon="-2.02731">
        <ele>1.6</ele>
        <time>2020-06-04T15:25:21Z</time>
      </trkpt>
      <trkpt lat="47.00918" lon="-2.02722">
        <ele>1.6</ele>
        <time>2020-06-04T15:25:22Z</time>
      </trkpt>
      <trkpt lat="47.00917" lon="-2.02714">
        <ele>1.6</ele>
        <time>2020-06-04T15:25:23Z</time>
      </trkpt>
      <trkpt lat="47.00916" lon="-2.02706">
        <ele>1.6</ele>
        <time>2020-06-04T15:25:24Z</time>
      </trkpt>
      <trkpt lat="47.00915" lon="-2.02699">
        <ele>1.6</ele>
        <time>2020-06-04T15:25:25Z</time>
      </trkpt>
      <trkpt lat="47.00914" lon="-2.02691">
        <ele>1.6</ele>
        <time>2020-06-04T15:25:26Z</time>
      </trkpt>
      <trkpt lat="47.00913" lon="-2.02681">
        <ele>1.6</ele>
        <time>2020-06-04T15:25:27Z</time>
      </trkpt>
      <trkpt lat="47.00913" lon="-2.02672">
        <ele>1.6</ele>
        <time>2020-06-04T15:25:28Z</time>
      </trkpt>
      <trkpt lat="47.00912" lon="-2.02662">
        <ele>1.6</ele>
        <time>2020-06-04T15:25:29Z</time>
      </trkpt>
      <trkpt lat="47.00912" lon="-2.02653">
        <ele>1.6</ele>
        <time>2020-06-04T15:25:30Z</time>
      </trkpt>
      <trkpt lat="47.00913" lon="-2.02645">
        <ele>1.6</ele>
        <time>2020-06-04T15:25:31Z</time>
      </trkpt>
      <trkpt lat="47.00914" lon="-2.02637">
        <ele>1.6</ele>
        <time>2020-06-04T15:25:32Z</time>
      </trkpt>
      <trkpt lat="47.00915" lon="-2.02629">
        <ele>1.6</ele>
        <time>2020-06-04T15:25:33Z</time>
      </trkpt>
      <trkpt lat="47.00916" lon="-2.0262">
        <ele>1.6</ele>
        <time>2020-06-04T15:25:34Z</time>
      </trkpt>
      <trkpt lat="47.00917" lon="-2.02613">
        <ele>1.6</ele>
        <time>2020-06-04T15:25:35Z</time>
      </trkpt>
      <trkpt lat="47.00918" lon="-2.02606">
        <ele>1.6</ele>
        <time>2020-06-04T15:25:36Z</time>
      </trkpt>
      <trkpt lat="47.00919" lon="-2.02599">
        <ele>1.6</ele>
        <time>2020-06-04T15:25:37Z</time>
      </trkpt>
      <trkpt lat="47.00921" lon="-2.02591">
        <ele>1.6</ele>
        <time>2020-06-04T15:25:38Z</time>
      </trkpt>
      <trkpt lat="47.00922" lon="-2.02584">
        <ele>1.6</ele>
        <time>2020-06-04T15:25:39Z</time>
      </trkpt>
      <trkpt lat="47.00924" lon="-2.02576">
        <ele>1.6</ele>
        <time>2020-06-04T15:25:40Z</time>
      </trkpt>
      <trkpt lat="47.00926" lon="-2.02568">
        <ele>1.6</ele>
        <time>2020-06-04T15:25:41Z</time>
      </trkpt>
      <trkpt lat="47.00928" lon="-2.0256">
        <ele>1.6</ele>
        <time>2020-06-04T15:25:42Z</time>
      </trkpt>
      <trkpt lat="47.0093" lon="-2.02554">
        <ele>1.6</ele>
        <time>2020-06-04T15:25:43Z</time>
      </trkpt>
      <trkpt lat="47.00932" lon="-2.02547">
        <ele>1.6</ele>
        <time>2020-06-04T15:25:44Z</time>
      </trkpt>
      <trkpt lat="47.00934" lon="-2.0254">
        <ele>1.6</ele>
        <time>2020-06-04T15:25:45Z</time>
      </trkpt>
      <trkpt lat="47.00935" lon="-2.02533">
        <ele>1.6</ele>
        <time>2020-06-04T15:25:46Z</time>
      </trkpt>
      <trkpt lat="47.00937" lon="-2.02526">
        <ele>1.6</ele>
        <time>2020-06-04T15:25:47Z</time>
      </trkpt>
      <trkpt lat="47.00939" lon="-2.02519">
        <ele>1.6</ele>
        <time>2020-06-04T15:25:48Z</time>
      </trkpt>
      <trkpt lat="47.00942" lon="-2.02511">
        <ele>1.6</ele>
        <time>2020-06-04T15:25:49Z</time>
      </trkpt>
      <trkpt lat="47.00944" lon="-2.02503">
        <ele>1.6</ele>
        <time>2020-06-04T15:25:50Z</time>
      </trkpt>
      <trkpt lat="47.00946" lon="-2.02497">
        <ele>1.6</ele>
        <time>2020-06-04T15:25:51Z</time>
      </trkpt>
      <trkpt lat="47.00949" lon="-2.0249">
        <ele>1.6</ele>
        <time>2020-06-04T15:25:52Z</time>
      </trkpt>
      <trkpt lat="47.00952" lon="-2.02484">
        <ele>1.6</ele>
        <time>2020-06-04T15:25:53Z</time>
      </trkpt>
      <trkpt lat="47.00954" lon="-2.02477">
        <ele>1.6</ele>
        <time>2020-06-04T15:25:54Z</time>
      </trkpt>
      <trkpt lat="47.00957" lon="-2.02469">
        <ele>1.6</ele>
        <time>2020-06-04T15:25:55Z</time>
      </trkpt>
      <trkpt lat="47.0096" lon="-2.02462">
        <ele>1.6</ele>
        <time>2020-06-04T15:25:56Z</time>
      </trkpt>
      <trkpt lat="47.00962" lon="-2.02455">
        <ele>1.6</ele>
        <time>2020-06-04T15:25:57Z</time>
      </trkpt>
      <trkpt lat="47.00965" lon="-2.02448">
        <ele>1.6</ele>
        <time>2020-06-04T15:25:58Z</time>
      </trkpt>
      <trkpt lat="47.00967" lon="-2.02443">
        <ele>1.6</ele>
        <time>2020-06-04T15:25:59Z</time>
      </trkpt>
      <trkpt lat="47.00969" lon="-2.02437">
        <ele>1.6</ele>
        <time>2020-06-04T15:26:00Z</time>
      </trkpt>
      <trkpt lat="47.00971" lon="-2.02429">
        <ele>1.6</ele>
        <time>2020-06-04T15:26:01Z</time>
      </trkpt>
      <trkpt lat="47.00973" lon="-2.02423">
        <ele>1.6</ele>
        <time>2020-06-04T15:26:02Z</time>
      </trkpt>
      <trkpt lat="47.00975" lon="-2.02416">
        <ele>1.6</ele>
        <time>2020-06-04T15:26:03Z</time>
      </trkpt>
      <trkpt lat="47.00977" lon="-2.0241">
        <ele>1.6</ele>
        <time>2020-06-04T15:26:04Z</time>
      </trkpt>
      <trkpt lat="47.00979" lon="-2.02403">
        <ele>1.7</ele>
        <time>2020-06-04T15:26:05Z</time>
      </trkpt>
      <trkpt lat="47.00981" lon="-2.02396">
        <ele>1.7</ele>
        <time>2020-06-04T15:26:06Z</time>
      </trkpt>
      <trkpt lat="47.00983" lon="-2.02389">
        <ele>1.7</ele>
        <time>2020-06-04T15:26:07Z</time>
      </trkpt>
      <trkpt lat="47.00986" lon="-2.02382">
        <ele>1.7</ele>
        <time>2020-06-04T15:26:08Z</time>
      </trkpt>
      <trkpt lat="47.00988" lon="-2.02374">
        <ele>1.7</ele>
        <time>2020-06-04T15:26:09Z</time>
      </trkpt>
      <trkpt lat="47.0099" lon="-2.02367">
        <ele>1.7</ele>
        <time>2020-06-04T15:26:10Z</time>
      </trkpt>
      <trkpt lat="47.00992" lon="-2.0236">
        <ele>1.7</ele>
        <time>2020-06-04T15:26:11Z</time>
      </trkpt>
      <trkpt lat="47.00995" lon="-2.02356">
        <ele>1.7</ele>
        <time>2020-06-04T15:26:12Z</time>
      </trkpt>
      <trkpt lat="47.00997" lon="-2.02348">
        <ele>1.7</ele>
        <time>2020-06-04T15:26:13Z</time>
      </trkpt>
      <trkpt lat="47.01" lon="-2.02341">
        <ele>1.8</ele>
        <time>2020-06-04T15:26:14Z</time>
      </trkpt>
      <trkpt lat="47.01002" lon="-2.02335">
        <ele>1.8</ele>
        <time>2020-06-04T15:26:15Z</time>
      </trkpt>
      <trkpt lat="47.01004" lon="-2.02328">
        <ele>1.8</ele>
        <time>2020-06-04T15:26:16Z</time>
      </trkpt>
      <trkpt lat="47.01005" lon="-2.02321">
        <ele>1.8</ele>
        <time>2020-06-04T15:26:17Z</time>
      </trkpt>
      <trkpt lat="47.01008" lon="-2.02314">
        <ele>1.9</ele>
        <time>2020-06-04T15:26:18Z</time>
      </trkpt>
      <trkpt lat="47.01009" lon="-2.02307">
        <ele>1.9</ele>
        <time>2020-06-04T15:26:19Z</time>
      </trkpt>
      <trkpt lat="47.01012" lon="-2.023">
        <ele>1.9</ele>
        <time>2020-06-04T15:26:20Z</time>
      </trkpt>
      <trkpt lat="47.01014" lon="-2.02293">
        <ele>1.9</ele>
        <time>2020-06-04T15:26:21Z</time>
      </trkpt>
      <trkpt lat="47.01017" lon="-2.02285">
        <ele>1.9</ele>
        <time>2020-06-04T15:26:22Z</time>
      </trkpt>
      <trkpt lat="47.01019" lon="-2.02279">
        <ele>1.9</ele>
        <time>2020-06-04T15:26:23Z</time>
      </trkpt>
      <trkpt lat="47.01022" lon="-2.02271">
        <ele>1.9</ele>
        <time>2020-06-04T15:26:24Z</time>
      </trkpt>
      <trkpt lat="47.01024" lon="-2.02264">
        <ele>1.9</ele>
        <time>2020-06-04T15:26:25Z</time>
      </trkpt>
      <trkpt lat="47.01027" lon="-2.02257">
        <ele>1.9</ele>
        <time>2020-06-04T15:26:26Z</time>
      </trkpt>
      <trkpt lat="47.01029" lon="-2.02251">
        <ele>1.9</ele>
        <time>2020-06-04T15:26:27Z</time>
      </trkpt>
      <trkpt lat="47.01032" lon="-2.02244">
        <ele>1.9</ele>
        <time>2020-06-04T15:26:28Z</time>
      </trkpt>
      <trkpt lat="47.01034" lon="-2.02238">
        <ele>1.9</ele>
        <time>2020-06-04T15:26:29Z</time>
      </trkpt>
      <trkpt lat="47.01036" lon="-2.02232">
        <ele>1.9</ele>
        <time>2020-06-04T15:26:30Z</time>
      </trkpt>
      <trkpt lat="47.01039" lon="-2.02226">
        <ele>1.9</ele>
        <time>2020-06-04T15:26:31Z</time>
      </trkpt>
      <trkpt lat="47.01041" lon="-2.0222">
        <ele>1.9</ele>
        <time>2020-06-04T15:26:32Z</time>
      </trkpt>
      <trkpt lat="47.01044" lon="-2.02214">
        <ele>1.9</ele>
        <time>2020-06-04T15:26:33Z</time>
      </trkpt>
      <trkpt lat="47.01047" lon="-2.02207">
        <ele>1.9</ele>
        <time>2020-06-04T15:26:34Z</time>
      </trkpt>
      <trkpt lat="47.0105" lon="-2.02199">
        <ele>1.9</ele>
        <time>2020-06-04T15:26:35Z</time>
      </trkpt>
      <trkpt lat="47.01052" lon="-2.02193">
        <ele>1.9</ele>
        <time>2020-06-04T15:26:36Z</time>
      </trkpt>
      <trkpt lat="47.01055" lon="-2.02186">
        <ele>1.9</ele>
        <time>2020-06-04T15:26:37Z</time>
      </trkpt>
      <trkpt lat="47.01058" lon="-2.02178">
        <ele>1.9</ele>
        <time>2020-06-04T15:26:38Z</time>
      </trkpt>
      <trkpt lat="47.0106" lon="-2.02171">
        <ele>1.9</ele>
        <time>2020-06-04T15:26:39Z</time>
      </trkpt>
      <trkpt lat="47.01062" lon="-2.02163">
        <ele>1.8</ele>
        <time>2020-06-04T15:26:40Z</time>
      </trkpt>
      <trkpt lat="47.01064" lon="-2.02155">
        <ele>1.8</ele>
        <time>2020-06-04T15:26:41Z</time>
      </trkpt>
      <trkpt lat="47.01066" lon="-2.02147">
        <ele>1.8</ele>
        <time>2020-06-04T15:26:42Z</time>
      </trkpt>
      <trkpt lat="47.01068" lon="-2.0214">
        <ele>1.8</ele>
        <time>2020-06-04T15:26:43Z</time>
      </trkpt>
      <trkpt lat="47.01071" lon="-2.02132">
        <ele>1.7</ele>
        <time>2020-06-04T15:26:44Z</time>
      </trkpt>
      <trkpt lat="47.01074" lon="-2.02125">
        <ele>1.7</ele>
        <time>2020-06-04T15:26:45Z</time>
      </trkpt>
      <trkpt lat="47.01076" lon="-2.02117">
        <ele>1.7</ele>
        <time>2020-06-04T15:26:46Z</time>
      </trkpt>
      <trkpt lat="47.01078" lon="-2.0211">
        <ele>1.7</ele>
        <time>2020-06-04T15:26:47Z</time>
      </trkpt>
      <trkpt lat="47.01081" lon="-2.02104">
        <ele>1.7</ele>
        <time>2020-06-04T15:26:48Z</time>
      </trkpt>
      <trkpt lat="47.01083" lon="-2.02097">
        <ele>1.8</ele>
        <time>2020-06-04T15:26:49Z</time>
      </trkpt>
      <trkpt lat="47.01085" lon="-2.0209">
        <ele>1.8</ele>
        <time>2020-06-04T15:26:50Z</time>
      </trkpt>
      <trkpt lat="47.01087" lon="-2.02082">
        <ele>1.8</ele>
        <time>2020-06-04T15:26:51Z</time>
      </trkpt>
      <trkpt lat="47.0109" lon="-2.02074">
        <ele>1.8</ele>
        <time>2020-06-04T15:26:52Z</time>
      </trkpt>
      <trkpt lat="47.01093" lon="-2.02067">
        <ele>1.9</ele>
        <time>2020-06-04T15:26:53Z</time>
      </trkpt>
      <trkpt lat="47.01095" lon="-2.0206">
        <ele>1.9</ele>
        <time>2020-06-04T15:26:54Z</time>
      </trkpt>
      <trkpt lat="47.01098" lon="-2.02052">
        <ele>1.9</ele>
        <time>2020-06-04T15:26:55Z</time>
      </trkpt>
      <trkpt lat="47.01101" lon="-2.02045">
        <ele>2</ele>
        <time>2020-06-04T15:26:56Z</time>
      </trkpt>
      <trkpt lat="47.01103" lon="-2.02037">
        <ele>2</ele>
        <time>2020-06-04T15:26:57Z</time>
      </trkpt>
      <trkpt lat="47.01106" lon="-2.0203">
        <ele>2</ele>
        <time>2020-06-04T15:26:58Z</time>
      </trkpt>
      <trkpt lat="47.01109" lon="-2.02023">
        <ele>2.1</ele>
        <time>2020-06-04T15:26:59Z</time>
      </trkpt>
      <trkpt lat="47.01112" lon="-2.02015">
        <ele>2.1</ele>
        <time>2020-06-04T15:27:00Z</time>
      </trkpt>
      <trkpt lat="47.01115" lon="-2.02007">
        <ele>2.1</ele>
        <time>2020-06-04T15:27:01Z</time>
      </trkpt>
      <trkpt lat="47.01117" lon="-2.02">
        <ele>2.2</ele>
        <time>2020-06-04T15:27:02Z</time>
      </trkpt>
      <trkpt lat="47.01121" lon="-2.01994">
        <ele>2.2</ele>
        <time>2020-06-04T15:27:03Z</time>
      </trkpt>
      <trkpt lat="47.01126" lon="-2.01991">
        <ele>2.2</ele>
        <time>2020-06-04T15:27:04Z</time>
      </trkpt>
      <trkpt lat="47.0113" lon="-2.01989">
        <ele>2.2</ele>
        <time>2020-06-04T15:27:05Z</time>
      </trkpt>
      <trkpt lat="47.01134" lon="-2.01987">
        <ele>2.3</ele>
        <time>2020-06-04T15:27:06Z</time>
      </trkpt>
      <trkpt lat="47.01138" lon="-2.01985">
        <ele>2.3</ele>
        <time>2020-06-04T15:27:07Z</time>
      </trkpt>
      <trkpt lat="47.01143" lon="-2.01982">
        <ele>2.3</ele>
        <time>2020-06-04T15:27:08Z</time>
      </trkpt>
      <trkpt lat="47.01147" lon="-2.01979">
        <ele>2.3</ele>
        <time>2020-06-04T15:27:09Z</time>
      </trkpt>
      <trkpt lat="47.01151" lon="-2.01977">
        <ele>2.4</ele>
        <time>2020-06-04T15:27:10Z</time>
      </trkpt>
      <trkpt lat="47.01154" lon="-2.01973">
        <ele>2.4</ele>
        <time>2020-06-04T15:27:11Z</time>
      </trkpt>
      <trkpt lat="47.01159" lon="-2.01969">
        <ele>2.5</ele>
        <time>2020-06-04T15:27:12Z</time>
      </trkpt>
      <trkpt lat="47.01163" lon="-2.01965">
        <ele>2.5</ele>
        <time>2020-06-04T15:27:13Z</time>
      </trkpt>
      <trkpt lat="47.01166" lon="-2.01961">
        <ele>2.6</ele>
        <time>2020-06-04T15:27:14Z</time>
      </trkpt>
      <trkpt lat="47.01168" lon="-2.01956">
        <ele>2.6</ele>
        <time>2020-06-04T15:27:15Z</time>
      </trkpt>
      <trkpt lat="47.0117" lon="-2.0195">
        <ele>2.7</ele>
        <time>2020-06-04T15:27:16Z</time>
      </trkpt>
      <trkpt lat="47.01172" lon="-2.01945">
        <ele>2.7</ele>
        <time>2020-06-04T15:27:17Z</time>
      </trkpt>
      <trkpt lat="47.01174" lon="-2.01939">
        <ele>2.8</ele>
        <time>2020-06-04T15:27:18Z</time>
      </trkpt>
      <trkpt lat="47.01175" lon="-2.01934">
        <ele>2.9</ele>
        <time>2020-06-04T15:27:19Z</time>
      </trkpt>
      <trkpt lat="47.01177" lon="-2.01929">
        <ele>2.9</ele>
        <time>2020-06-04T15:27:20Z</time>
      </trkpt>
      <trkpt lat="47.01178" lon="-2.01924">
        <ele>3</ele>
        <time>2020-06-04T15:27:21Z</time>
      </trkpt>
      <trkpt lat="47.0118" lon="-2.0192">
        <ele>3</ele>
        <time>2020-06-04T15:27:22Z</time>
      </trkpt>
      <trkpt lat="47.01182" lon="-2.01915">
        <ele>3.1</ele>
        <time>2020-06-04T15:27:23Z</time>
      </trkpt>
      <trkpt lat="47.01183" lon="-2.0191">
        <ele>3.1</ele>
        <time>2020-06-04T15:27:24Z</time>
      </trkpt>
      <trkpt lat="47.01186" lon="-2.01904">
        <ele>3.2</ele>
        <time>2020-06-04T15:27:25Z</time>
      </trkpt>
      <trkpt lat="47.01187" lon="-2.01899">
        <ele>3.2</ele>
        <time>2020-06-04T15:27:26Z</time>
      </trkpt>
      <trkpt lat="47.01188" lon="-2.01895">
        <ele>3.2</ele>
        <time>2020-06-04T15:27:27Z</time>
      </trkpt>
      <trkpt lat="47.01189" lon="-2.01889">
        <ele>3.2</ele>
        <time>2020-06-04T15:27:28Z</time>
      </trkpt>
      <trkpt lat="47.01188" lon="-2.01883">
        <ele>3.3</ele>
        <time>2020-06-04T15:27:29Z</time>
      </trkpt>
      <trkpt lat="47.01188" lon="-2.01877">
        <ele>3.3</ele>
        <time>2020-06-04T15:27:30Z</time>
      </trkpt>
      <trkpt lat="47.01187" lon="-2.0187">
        <ele>3.2</ele>
        <time>2020-06-04T15:27:31Z</time>
      </trkpt>
      <trkpt lat="47.01187" lon="-2.01863">
        <ele>3.2</ele>
        <time>2020-06-04T15:27:32Z</time>
      </trkpt>
      <trkpt lat="47.01187" lon="-2.01856">
        <ele>3.2</ele>
        <time>2020-06-04T15:27:33Z</time>
      </trkpt>
      <trkpt lat="47.01187" lon="-2.01848">
        <ele>3.1</ele>
        <time>2020-06-04T15:27:34Z</time>
      </trkpt>
      <trkpt lat="47.01189" lon="-2.01841">
        <ele>3.1</ele>
        <time>2020-06-04T15:27:35Z</time>
      </trkpt>
      <trkpt lat="47.0119" lon="-2.01834">
        <ele>3.1</ele>
        <time>2020-06-04T15:27:36Z</time>
      </trkpt>
      <trkpt lat="47.0119" lon="-2.01826">
        <ele>3</ele>
        <time>2020-06-04T15:27:37Z</time>
      </trkpt>
      <trkpt lat="47.0119" lon="-2.01818">
        <ele>3</ele>
        <time>2020-06-04T15:27:38Z</time>
      </trkpt>
      <trkpt lat="47.0119" lon="-2.01809">
        <ele>2.9</ele>
        <time>2020-06-04T15:27:39Z</time>
      </trkpt>
      <trkpt lat="47.0119" lon="-2.018">
        <ele>2.9</ele>
        <time>2020-06-04T15:27:40Z</time>
      </trkpt>
      <trkpt lat="47.01189" lon="-2.01791">
        <ele>2.8</ele>
        <time>2020-06-04T15:27:41Z</time>
      </trkpt>
      <trkpt lat="47.01188" lon="-2.01781">
        <ele>2.7</ele>
        <time>2020-06-04T15:27:42Z</time>
      </trkpt>
      <trkpt lat="47.01188" lon="-2.01772">
        <ele>2.5</ele>
        <time>2020-06-04T15:27:43Z</time>
      </trkpt>
      <trkpt lat="47.01189" lon="-2.01763">
        <ele>2.4</ele>
        <time>2020-06-04T15:27:44Z</time>
      </trkpt>
      <trkpt lat="47.0119" lon="-2.01752">
        <ele>2.3</ele>
        <time>2020-06-04T15:27:45Z</time>
      </trkpt>
      <trkpt lat="47.0119" lon="-2.01743">
        <ele>2.2</ele>
        <time>2020-06-04T15:27:46Z</time>
      </trkpt>
      <trkpt lat="47.01191" lon="-2.01736">
        <ele>2.1</ele>
        <time>2020-06-04T15:27:47Z</time>
      </trkpt>
      <trkpt lat="47.01192" lon="-2.01729">
        <ele>2.1</ele>
        <time>2020-06-04T15:27:48Z</time>
      </trkpt>
      <trkpt lat="47.01192" lon="-2.01723">
        <ele>2</ele>
        <time>2020-06-04T15:27:49Z</time>
      </trkpt>
      <trkpt lat="47.01193" lon="-2.01718">
        <ele>2</ele>
        <time>2020-06-04T15:27:50Z</time>
      </trkpt>
      <trkpt lat="47.01195" lon="-2.01713">
        <ele>2</ele>
        <time>2020-06-04T15:27:51Z</time>
      </trkpt>
      <trkpt lat="47.01197" lon="-2.01711">
        <ele>2</ele>
        <time>2020-06-04T15:27:52Z</time>
      </trkpt>
      <trkpt lat="47.01201" lon="-2.01711">
        <ele>1.9</ele>
        <time>2020-06-04T15:27:53Z</time>
      </trkpt>
      <trkpt lat="47.01205" lon="-2.01713">
        <ele>1.9</ele>
        <time>2020-06-04T15:27:54Z</time>
      </trkpt>
      <trkpt lat="47.01209" lon="-2.01711">
        <ele>1.9</ele>
        <time>2020-06-04T15:27:55Z</time>
      </trkpt>
      <trkpt lat="47.01212" lon="-2.01709">
        <ele>1.9</ele>
        <time>2020-06-04T15:27:56Z</time>
      </trkpt>
      <trkpt lat="47.01218" lon="-2.01705">
        <ele>1.9</ele>
        <time>2020-06-04T15:27:57Z</time>
      </trkpt>
      <trkpt lat="47.01221" lon="-2.017">
        <ele>1.9</ele>
        <time>2020-06-04T15:27:58Z</time>
      </trkpt>
      <trkpt lat="47.01223" lon="-2.01694">
        <ele>1.9</ele>
        <time>2020-06-04T15:27:59Z</time>
      </trkpt>
      <trkpt lat="47.01226" lon="-2.01687">
        <ele>1.9</ele>
        <time>2020-06-04T15:28:00Z</time>
      </trkpt>
      <trkpt lat="47.01228" lon="-2.01681">
        <ele>1.9</ele>
        <time>2020-06-04T15:28:01Z</time>
      </trkpt>
      <trkpt lat="47.01231" lon="-2.01675">
        <ele>1.9</ele>
        <time>2020-06-04T15:28:02Z</time>
      </trkpt>
      <trkpt lat="47.01233" lon="-2.01669">
        <ele>1.9</ele>
        <time>2020-06-04T15:28:03Z</time>
      </trkpt>
      <trkpt lat="47.01236" lon="-2.01662">
        <ele>1.8</ele>
        <time>2020-06-04T15:28:04Z</time>
      </trkpt>
      <trkpt lat="47.0124" lon="-2.01655">
        <ele>1.8</ele>
        <time>2020-06-04T15:28:05Z</time>
      </trkpt>
      <trkpt lat="47.01242" lon="-2.01649">
        <ele>1.8</ele>
        <time>2020-06-04T15:28:06Z</time>
      </trkpt>
      <trkpt lat="47.01243" lon="-2.01642">
        <ele>1.8</ele>
        <time>2020-06-04T15:28:07Z</time>
      </trkpt>
      <trkpt lat="47.01246" lon="-2.01635">
        <ele>1.8</ele>
        <time>2020-06-04T15:28:08Z</time>
      </trkpt>
      <trkpt lat="47.01248" lon="-2.01629">
        <ele>1.8</ele>
        <time>2020-06-04T15:28:09Z</time>
      </trkpt>
      <trkpt lat="47.01251" lon="-2.01622">
        <ele>1.8</ele>
        <time>2020-06-04T15:28:10Z</time>
      </trkpt>
      <trkpt lat="47.01253" lon="-2.01615">
        <ele>1.8</ele>
        <time>2020-06-04T15:28:11Z</time>
      </trkpt>
      <trkpt lat="47.01255" lon="-2.01608">
        <ele>1.8</ele>
        <time>2020-06-04T15:28:12Z</time>
      </trkpt>
      <trkpt lat="47.01258" lon="-2.01601">
        <ele>1.9</ele>
        <time>2020-06-04T15:28:13Z</time>
      </trkpt>
      <trkpt lat="47.01262" lon="-2.01596">
        <ele>1.9</ele>
        <time>2020-06-04T15:28:14Z</time>
      </trkpt>
      <trkpt lat="47.01265" lon="-2.0159">
        <ele>1.9</ele>
        <time>2020-06-04T15:28:15Z</time>
      </trkpt>
      <trkpt lat="47.01267" lon="-2.01584">
        <ele>1.9</ele>
        <time>2020-06-04T15:28:16Z</time>
      </trkpt>
      <trkpt lat="47.01269" lon="-2.01579">
        <ele>1.9</ele>
        <time>2020-06-04T15:28:17Z</time>
      </trkpt>
      <trkpt lat="47.01272" lon="-2.01573">
        <ele>1.9</ele>
        <time>2020-06-04T15:28:18Z</time>
      </trkpt>
      <trkpt lat="47.01275" lon="-2.01568">
        <ele>1.8</ele>
        <time>2020-06-04T15:28:19Z</time>
      </trkpt>
      <trkpt lat="47.01279" lon="-2.01562">
        <ele>1.8</ele>
        <time>2020-06-04T15:28:20Z</time>
      </trkpt>
      <trkpt lat="47.01283" lon="-2.01556">
        <ele>1.8</ele>
        <time>2020-06-04T15:28:21Z</time>
      </trkpt>
      <trkpt lat="47.01285" lon="-2.01551">
        <ele>1.8</ele>
        <time>2020-06-04T15:28:22Z</time>
      </trkpt>
      <trkpt lat="47.01289" lon="-2.01548">
        <ele>1.8</ele>
        <time>2020-06-04T15:28:23Z</time>
      </trkpt>
      <trkpt lat="47.01291" lon="-2.01543">
        <ele>1.7</ele>
        <time>2020-06-04T15:28:24Z</time>
      </trkpt>
      <trkpt lat="47.01294" lon="-2.01538">
        <ele>1.7</ele>
        <time>2020-06-04T15:28:25Z</time>
      </trkpt>
      <trkpt lat="47.01297" lon="-2.01533">
        <ele>1.7</ele>
        <time>2020-06-04T15:28:26Z</time>
      </trkpt>
      <trkpt lat="47.01301" lon="-2.01528">
        <ele>1.7</ele>
        <time>2020-06-04T15:28:27Z</time>
      </trkpt>
      <trkpt lat="47.01303" lon="-2.01523">
        <ele>1.7</ele>
        <time>2020-06-04T15:28:28Z</time>
      </trkpt>
      <trkpt lat="47.01306" lon="-2.01517">
        <ele>1.7</ele>
        <time>2020-06-04T15:28:29Z</time>
      </trkpt>
      <trkpt lat="47.01308" lon="-2.01512">
        <ele>1.7</ele>
        <time>2020-06-04T15:28:30Z</time>
      </trkpt>
      <trkpt lat="47.01312" lon="-2.01507">
        <ele>1.8</ele>
        <time>2020-06-04T15:28:31Z</time>
      </trkpt>
      <trkpt lat="47.01314" lon="-2.01503">
        <ele>1.8</ele>
        <time>2020-06-04T15:28:32Z</time>
      </trkpt>
      <trkpt lat="47.01315" lon="-2.01499">
        <ele>1.8</ele>
        <time>2020-06-04T15:28:33Z</time>
      </trkpt>
      <trkpt lat="47.01317" lon="-2.01493">
        <ele>1.8</ele>
        <time>2020-06-04T15:28:34Z</time>
      </trkpt>
      <trkpt lat="47.01318" lon="-2.01487">
        <ele>1.8</ele>
        <time>2020-06-04T15:28:35Z</time>
      </trkpt>
      <trkpt lat="47.0132" lon="-2.01481">
        <ele>1.8</ele>
        <time>2020-06-04T15:28:36Z</time>
      </trkpt>
      <trkpt lat="47.01322" lon="-2.01474">
        <ele>1.8</ele>
        <time>2020-06-04T15:28:37Z</time>
      </trkpt>
      <trkpt lat="47.01324" lon="-2.01467">
        <ele>1.8</ele>
        <time>2020-06-04T15:28:38Z</time>
      </trkpt>
      <trkpt lat="47.01326" lon="-2.01461">
        <ele>1.8</ele>
        <time>2020-06-04T15:28:39Z</time>
      </trkpt>
      <trkpt lat="47.01327" lon="-2.01458">
        <ele>1.8</ele>
        <time>2020-06-04T15:28:40Z</time>
      </trkpt>
      <trkpt lat="47.0133" lon="-2.01453">
        <ele>1.7</ele>
        <time>2020-06-04T15:28:41Z</time>
      </trkpt>
      <trkpt lat="47.01332" lon="-2.01447">
        <ele>1.7</ele>
        <time>2020-06-04T15:28:42Z</time>
      </trkpt>
      <trkpt lat="47.01335" lon="-2.01441">
        <ele>1.7</ele>
        <time>2020-06-04T15:28:43Z</time>
      </trkpt>
      <trkpt lat="47.01337" lon="-2.01437">
        <ele>1.7</ele>
        <time>2020-06-04T15:28:44Z</time>
      </trkpt>
      <trkpt lat="47.0134" lon="-2.01431">
        <ele>1.7</ele>
        <time>2020-06-04T15:28:45Z</time>
      </trkpt>
      <trkpt lat="47.01341" lon="-2.01425">
        <ele>1.7</ele>
        <time>2020-06-04T15:28:46Z</time>
      </trkpt>
      <trkpt lat="47.01344" lon="-2.0142">
        <ele>1.7</ele>
        <time>2020-06-04T15:28:47Z</time>
      </trkpt>
      <trkpt lat="47.01346" lon="-2.01416">
        <ele>1.7</ele>
        <time>2020-06-04T15:28:48Z</time>
      </trkpt>
      <trkpt lat="47.0135" lon="-2.0141">
        <ele>1.7</ele>
        <time>2020-06-04T15:28:49Z</time>
      </trkpt>
      <trkpt lat="47.01354" lon="-2.01405">
        <ele>1.7</ele>
        <time>2020-06-04T15:28:50Z</time>
      </trkpt>
      <trkpt lat="47.01357" lon="-2.01399">
        <ele>1.7</ele>
        <time>2020-06-04T15:28:51Z</time>
      </trkpt>
      <trkpt lat="47.01361" lon="-2.01393">
        <ele>1.7</ele>
        <time>2020-06-04T15:28:52Z</time>
      </trkpt>
      <trkpt lat="47.01364" lon="-2.01388">
        <ele>1.7</ele>
        <time>2020-06-04T15:28:53Z</time>
      </trkpt>
      <trkpt lat="47.01368" lon="-2.01382">
        <ele>1.7</ele>
        <time>2020-06-04T15:28:54Z</time>
      </trkpt>
      <trkpt lat="47.01371" lon="-2.01376">
        <ele>1.7</ele>
        <time>2020-06-04T15:28:55Z</time>
      </trkpt>
      <trkpt lat="47.01375" lon="-2.01371">
        <ele>1.7</ele>
        <time>2020-06-04T15:28:56Z</time>
      </trkpt>
      <trkpt lat="47.01378" lon="-2.01366">
        <ele>1.7</ele>
        <time>2020-06-04T15:28:57Z</time>
      </trkpt>
      <trkpt lat="47.0138" lon="-2.0136">
        <ele>1.8</ele>
        <time>2020-06-04T15:28:58Z</time>
      </trkpt>
      <trkpt lat="47.01383" lon="-2.01355">
        <ele>1.8</ele>
        <time>2020-06-04T15:28:59Z</time>
      </trkpt>
      <trkpt lat="47.01386" lon="-2.01349">
        <ele>1.8</ele>
        <time>2020-06-04T15:29:00Z</time>
      </trkpt>
      <trkpt lat="47.01388" lon="-2.01344">
        <ele>1.8</ele>
        <time>2020-06-04T15:29:01Z</time>
      </trkpt>
      <trkpt lat="47.01392" lon="-2.01338">
        <ele>1.9</ele>
        <time>2020-06-04T15:29:02Z</time>
      </trkpt>
      <trkpt lat="47.01395" lon="-2.01333">
        <ele>1.9</ele>
        <time>2020-06-04T15:29:03Z</time>
      </trkpt>
      <trkpt lat="47.01399" lon="-2.01327">
        <ele>2</ele>
        <time>2020-06-04T15:29:04Z</time>
      </trkpt>
      <trkpt lat="47.01404" lon="-2.01322">
        <ele>2.1</ele>
        <time>2020-06-04T15:29:05Z</time>
      </trkpt>
      <trkpt lat="47.01408" lon="-2.01317">
        <ele>2.1</ele>
        <time>2020-06-04T15:29:06Z</time>
      </trkpt>
      <trkpt lat="47.01411" lon="-2.01311">
        <ele>2.2</ele>
        <time>2020-06-04T15:29:07Z</time>
      </trkpt>
      <trkpt lat="47.01415" lon="-2.01308">
        <ele>2.2</ele>
        <time>2020-06-04T15:29:08Z</time>
      </trkpt>
      <trkpt lat="47.01418" lon="-2.01304">
        <ele>2.3</ele>
        <time>2020-06-04T15:29:09Z</time>
      </trkpt>
      <trkpt lat="47.01421" lon="-2.01301">
        <ele>2.3</ele>
        <time>2020-06-04T15:29:10Z</time>
      </trkpt>
      <trkpt lat="47.01424" lon="-2.01298">
        <ele>2.3</ele>
        <time>2020-06-04T15:29:11Z</time>
      </trkpt>
      <trkpt lat="47.01427" lon="-2.01295">
        <ele>2.3</ele>
        <time>2020-06-04T15:29:12Z</time>
      </trkpt>
      <trkpt lat="47.01431" lon="-2.01297">
        <ele>2.2</ele>
        <time>2020-06-04T15:29:13Z</time>
      </trkpt>
      <trkpt lat="47.01432" lon="-2.01297">
        <ele>2.2</ele>
        <time>2020-06-04T15:29:14Z</time>
      </trkpt>
      <trkpt lat="47.01436" lon="-2.01297">
        <ele>2.2</ele>
        <time>2020-06-04T15:29:15Z</time>
      </trkpt>
      <trkpt lat="47.0144" lon="-2.01298">
        <ele>2.1</ele>
        <time>2020-06-04T15:29:16Z</time>
      </trkpt>
      <trkpt lat="47.01444" lon="-2.01298">
        <ele>2.1</ele>
        <time>2020-06-04T15:29:17Z</time>
      </trkpt>
      <trkpt lat="47.01448" lon="-2.01299">
        <ele>2</ele>
        <time>2020-06-04T15:29:18Z</time>
      </trkpt>
      <trkpt lat="47.01451" lon="-2.01299">
        <ele>1.9</ele>
        <time>2020-06-04T15:29:19Z</time>
      </trkpt>
      <trkpt lat="47.01455" lon="-2.01298">
        <ele>1.8</ele>
        <time>2020-06-04T15:29:20Z</time>
      </trkpt>
      <trkpt lat="47.01459" lon="-2.01297">
        <ele>1.7</ele>
        <time>2020-06-04T15:29:21Z</time>
      </trkpt>
      <trkpt lat="47.01463" lon="-2.01296">
        <ele>1.6</ele>
        <time>2020-06-04T15:29:22Z</time>
      </trkpt>
      <trkpt lat="47.01468" lon="-2.01293">
        <ele>1.5</ele>
        <time>2020-06-04T15:29:23Z</time>
      </trkpt>
      <trkpt lat="47.01471" lon="-2.01291">
        <ele>1.5</ele>
        <time>2020-06-04T15:29:24Z</time>
      </trkpt>
      <trkpt lat="47.01475" lon="-2.01286">
        <ele>1.4</ele>
        <time>2020-06-04T15:29:25Z</time>
      </trkpt>
      <trkpt lat="47.01479" lon="-2.0128">
        <ele>1.3</ele>
        <time>2020-06-04T15:29:26Z</time>
      </trkpt>
      <trkpt lat="47.01483" lon="-2.01275">
        <ele>1.3</ele>
        <time>2020-06-04T15:29:27Z</time>
      </trkpt>
      <trkpt lat="47.01486" lon="-2.01269">
        <ele>1.2</ele>
        <time>2020-06-04T15:29:28Z</time>
      </trkpt>
      <trkpt lat="47.01489" lon="-2.01264">
        <ele>1.2</ele>
        <time>2020-06-04T15:29:29Z</time>
      </trkpt>
      <trkpt lat="47.01493" lon="-2.01258">
        <ele>1.2</ele>
        <time>2020-06-04T15:29:30Z</time>
      </trkpt>
      <trkpt lat="47.01497" lon="-2.01254">
        <ele>1.2</ele>
        <time>2020-06-04T15:29:31Z</time>
      </trkpt>
      <trkpt lat="47.01501" lon="-2.01249">
        <ele>1.2</ele>
        <time>2020-06-04T15:29:32Z</time>
      </trkpt>
      <trkpt lat="47.01504" lon="-2.01243">
        <ele>1.2</ele>
        <time>2020-06-04T15:29:33Z</time>
      </trkpt>
      <trkpt lat="47.01508" lon="-2.01236">
        <ele>1.2</ele>
        <time>2020-06-04T15:29:34Z</time>
      </trkpt>
      <trkpt lat="47.01512" lon="-2.0123">
        <ele>1.2</ele>
        <time>2020-06-04T15:29:35Z</time>
      </trkpt>
      <trkpt lat="47.01515" lon="-2.01225">
        <ele>1.2</ele>
        <time>2020-06-04T15:29:36Z</time>
      </trkpt>
      <trkpt lat="47.01518" lon="-2.0122">
        <ele>1.2</ele>
        <time>2020-06-04T15:29:37Z</time>
      </trkpt>
      <trkpt lat="47.01523" lon="-2.01215">
        <ele>1.2</ele>
        <time>2020-06-04T15:29:38Z</time>
      </trkpt>
      <trkpt lat="47.01525" lon="-2.01211">
        <ele>1.2</ele>
        <time>2020-06-04T15:29:39Z</time>
      </trkpt>
      <trkpt lat="47.01528" lon="-2.01204">
        <ele>1.2</ele>
        <time>2020-06-04T15:29:40Z</time>
      </trkpt>
      <trkpt lat="47.01532" lon="-2.01198">
        <ele>1.2</ele>
        <time>2020-06-04T15:29:41Z</time>
      </trkpt>
      <trkpt lat="47.01535" lon="-2.01192">
        <ele>1.2</ele>
        <time>2020-06-04T15:29:42Z</time>
      </trkpt>
      <trkpt lat="47.01538" lon="-2.01187">
        <ele>1.2</ele>
        <time>2020-06-04T15:29:43Z</time>
      </trkpt>
      <trkpt lat="47.01542" lon="-2.01183">
        <ele>1.2</ele>
        <time>2020-06-04T15:29:44Z</time>
      </trkpt>
      <trkpt lat="47.01545" lon="-2.01179">
        <ele>1.2</ele>
        <time>2020-06-04T15:29:45Z</time>
      </trkpt>
      <trkpt lat="47.01549" lon="-2.01174">
        <ele>1.2</ele>
        <time>2020-06-04T15:29:46Z</time>
      </trkpt>
      <trkpt lat="47.01553" lon="-2.01171">
        <ele>1.2</ele>
        <time>2020-06-04T15:29:47Z</time>
      </trkpt>
      <trkpt lat="47.01556" lon="-2.01168">
        <ele>1.2</ele>
        <time>2020-06-04T15:29:48Z</time>
      </trkpt>
      <trkpt lat="47.01561" lon="-2.01163">
        <ele>1.2</ele>
        <time>2020-06-04T15:29:49Z</time>
      </trkpt>
      <trkpt lat="47.01565" lon="-2.01159">
        <ele>1.1</ele>
        <time>2020-06-04T15:29:50Z</time>
      </trkpt>
      <trkpt lat="47.0157" lon="-2.01157">
        <ele>1.1</ele>
        <time>2020-06-04T15:29:51Z</time>
      </trkpt>
      <trkpt lat="47.01574" lon="-2.01154">
        <ele>1.1</ele>
        <time>2020-06-04T15:29:52Z</time>
      </trkpt>
      <trkpt lat="47.01579" lon="-2.01152">
        <ele>1.1</ele>
        <time>2020-06-04T15:29:53Z</time>
      </trkpt>
      <trkpt lat="47.01584" lon="-2.01147">
        <ele>1.1</ele>
        <time>2020-06-04T15:29:54Z</time>
      </trkpt>
      <trkpt lat="47.01588" lon="-2.01145">
        <ele>1.1</ele>
        <time>2020-06-04T15:29:55Z</time>
      </trkpt>
      <trkpt lat="47.01591" lon="-2.01143">
        <ele>1.1</ele>
        <time>2020-06-04T15:29:56Z</time>
      </trkpt>
      <trkpt lat="47.01595" lon="-2.0114">
        <ele>1.1</ele>
        <time>2020-06-04T15:29:57Z</time>
      </trkpt>
      <trkpt lat="47.016" lon="-2.01136">
        <ele>1.1</ele>
        <time>2020-06-04T15:29:58Z</time>
      </trkpt>
      <trkpt lat="47.01604" lon="-2.01133">
        <ele>1.1</ele>
        <time>2020-06-04T15:29:59Z</time>
      </trkpt>
      <trkpt lat="47.01608" lon="-2.0113">
        <ele>1.2</ele>
        <time>2020-06-04T15:30:00Z</time>
      </trkpt>
      <trkpt lat="47.01612" lon="-2.01125">
        <ele>1.2</ele>
        <time>2020-06-04T15:30:01Z</time>
      </trkpt>
      <trkpt lat="47.01613" lon="-2.01117">
        <ele>1.2</ele>
        <time>2020-06-04T15:30:02Z</time>
      </trkpt>
      <trkpt lat="47.01613" lon="-2.01109">
        <ele>1.3</ele>
        <time>2020-06-04T15:30:03Z</time>
      </trkpt>
      <trkpt lat="47.01613" lon="-2.01101">
        <ele>1.4</ele>
        <time>2020-06-04T15:30:04Z</time>
      </trkpt>
      <trkpt lat="47.01613" lon="-2.01094">
        <ele>1.5</ele>
        <time>2020-06-04T15:30:05Z</time>
      </trkpt>
      <trkpt lat="47.01612" lon="-2.01088">
        <ele>1.5</ele>
        <time>2020-06-04T15:30:06Z</time>
      </trkpt>
      <trkpt lat="47.01612" lon="-2.01082">
        <ele>1.6</ele>
        <time>2020-06-04T15:30:07Z</time>
      </trkpt>
      <trkpt lat="47.01613" lon="-2.01076">
        <ele>1.7</ele>
        <time>2020-06-04T15:30:08Z</time>
      </trkpt>
      <trkpt lat="47.01614" lon="-2.0107">
        <ele>1.7</ele>
        <time>2020-06-04T15:30:09Z</time>
      </trkpt>
      <trkpt lat="47.01618" lon="-2.01064">
        <ele>1.7</ele>
        <time>2020-06-04T15:30:10Z</time>
      </trkpt>
      <trkpt lat="47.01623" lon="-2.0106">
        <ele>1.7</ele>
        <time>2020-06-04T15:30:11Z</time>
      </trkpt>
      <trkpt lat="47.01626" lon="-2.01055">
        <ele>1.7</ele>
        <time>2020-06-04T15:30:12Z</time>
      </trkpt>
      <trkpt lat="47.0163" lon="-2.01051">
        <ele>1.7</ele>
        <time>2020-06-04T15:30:13Z</time>
      </trkpt>
      <trkpt lat="47.01633" lon="-2.01047">
        <ele>1.7</ele>
        <time>2020-06-04T15:30:14Z</time>
      </trkpt>
      <trkpt lat="47.01637" lon="-2.01044">
        <ele>1.8</ele>
        <time>2020-06-04T15:30:15Z</time>
      </trkpt>
      <trkpt lat="47.0164" lon="-2.0104">
        <ele>1.8</ele>
        <time>2020-06-04T15:30:16Z</time>
      </trkpt>
      <trkpt lat="47.01644" lon="-2.01036">
        <ele>1.8</ele>
        <time>2020-06-04T15:30:17Z</time>
      </trkpt>
      <trkpt lat="47.01648" lon="-2.01031">
        <ele>1.8</ele>
        <time>2020-06-04T15:30:18Z</time>
      </trkpt>
      <trkpt lat="47.01651" lon="-2.01025">
        <ele>1.8</ele>
        <time>2020-06-04T15:30:19Z</time>
      </trkpt>
      <trkpt lat="47.01653" lon="-2.0102">
        <ele>1.8</ele>
        <time>2020-06-04T15:30:20Z</time>
      </trkpt>
      <trkpt lat="47.01657" lon="-2.01013">
        <ele>1.7</ele>
        <time>2020-06-04T15:30:21Z</time>
      </trkpt>
      <trkpt lat="47.0166" lon="-2.01005">
        <ele>1.7</ele>
        <time>2020-06-04T15:30:22Z</time>
      </trkpt>
      <trkpt lat="47.01663" lon="-2.00999">
        <ele>1.7</ele>
        <time>2020-06-04T15:30:23Z</time>
      </trkpt>
      <trkpt lat="47.01666" lon="-2.00992">
        <ele>1.7</ele>
        <time>2020-06-04T15:30:24Z</time>
      </trkpt>
      <trkpt lat="47.01668" lon="-2.00985">
        <ele>1.7</ele>
        <time>2020-06-04T15:30:25Z</time>
      </trkpt>
      <trkpt lat="47.01667" lon="-2.00978">
        <ele>1.7</ele>
        <time>2020-06-04T15:30:26Z</time>
      </trkpt>
      <trkpt lat="47.01664" lon="-2.0097">
        <ele>1.7</ele>
        <time>2020-06-04T15:30:27Z</time>
      </trkpt>
      <trkpt lat="47.01659" lon="-2.00963">
        <ele>1.7</ele>
        <time>2020-06-04T15:30:28Z</time>
      </trkpt>
      <trkpt lat="47.01652" lon="-2.00957">
        <ele>1.6</ele>
        <time>2020-06-04T15:30:29Z</time>
      </trkpt>
      <trkpt lat="47.01645" lon="-2.00952">
        <ele>1.6</ele>
        <time>2020-06-04T15:30:30Z</time>
      </trkpt>
      <trkpt lat="47.01639" lon="-2.00947">
        <ele>1.5</ele>
        <time>2020-06-04T15:30:31Z</time>
      </trkpt>
      <trkpt lat="47.01633" lon="-2.00943">
        <ele>1.5</ele>
        <time>2020-06-04T15:30:32Z</time>
      </trkpt>
      <trkpt lat="47.01627" lon="-2.00938">
        <ele>1.5</ele>
        <time>2020-06-04T15:30:33Z</time>
      </trkpt>
      <trkpt lat="47.01623" lon="-2.00935">
        <ele>1.5</ele>
        <time>2020-06-04T15:30:34Z</time>
      </trkpt>
      <trkpt lat="47.01617" lon="-2.00931">
        <ele>1.5</ele>
        <time>2020-06-04T15:30:35Z</time>
      </trkpt>
      <trkpt lat="47.01612" lon="-2.00927">
        <ele>1.5</ele>
        <time>2020-06-04T15:30:36Z</time>
      </trkpt>
      <trkpt lat="47.01606" lon="-2.00923">
        <ele>1.5</ele>
        <time>2020-06-04T15:30:37Z</time>
      </trkpt>
      <trkpt lat="47.01602" lon="-2.0092">
        <ele>1.4</ele>
        <time>2020-06-04T15:30:38Z</time>
      </trkpt>
      <trkpt lat="47.01597" lon="-2.00917">
        <ele>1.4</ele>
        <time>2020-06-04T15:30:39Z</time>
      </trkpt>
      <trkpt lat="47.01592" lon="-2.00911">
        <ele>1.4</ele>
        <time>2020-06-04T15:30:40Z</time>
      </trkpt>
      <trkpt lat="47.01589" lon="-2.00904">
        <ele>1.4</ele>
        <time>2020-06-04T15:30:41Z</time>
      </trkpt>
      <trkpt lat="47.01589" lon="-2.00893">
        <ele>1.3</ele>
        <time>2020-06-04T15:30:42Z</time>
      </trkpt>
      <trkpt lat="47.01588" lon="-2.00885">
        <ele>1.3</ele>
        <time>2020-06-04T15:30:43Z</time>
      </trkpt>
      <trkpt lat="47.01587" lon="-2.00877">
        <ele>1.2</ele>
        <time>2020-06-04T15:30:44Z</time>
      </trkpt>
      <trkpt lat="47.01586" lon="-2.0087">
        <ele>1.2</ele>
        <time>2020-06-04T15:30:45Z</time>
      </trkpt>
      <trkpt lat="47.01585" lon="-2.00863">
        <ele>1.2</ele>
        <time>2020-06-04T15:30:46Z</time>
      </trkpt>
      <trkpt lat="47.01584" lon="-2.00855">
        <ele>1.2</ele>
        <time>2020-06-04T15:30:47Z</time>
      </trkpt>
      <trkpt lat="47.01584" lon="-2.00846">
        <ele>1.2</ele>
        <time>2020-06-04T15:30:48Z</time>
      </trkpt>
      <trkpt lat="47.01582" lon="-2.00839">
        <ele>1.1</ele>
        <time>2020-06-04T15:30:49Z</time>
      </trkpt>
      <trkpt lat="47.01582" lon="-2.0083">
        <ele>1.1</ele>
        <time>2020-06-04T15:30:50Z</time>
      </trkpt>
      <trkpt lat="47.01581" lon="-2.00822">
        <ele>1</ele>
        <time>2020-06-04T15:30:51Z</time>
      </trkpt>
      <trkpt lat="47.01581" lon="-2.00812">
        <ele>0.9</ele>
        <time>2020-06-04T15:30:52Z</time>
      </trkpt>
      <trkpt lat="47.0158" lon="-2.00804">
        <ele>0.9</ele>
        <time>2020-06-04T15:30:53Z</time>
      </trkpt>
      <trkpt lat="47.01578" lon="-2.00795">
        <ele>0.8</ele>
        <time>2020-06-04T15:30:54Z</time>
      </trkpt>
      <trkpt lat="47.01578" lon="-2.00788">
        <ele>0.7</ele>
        <time>2020-06-04T15:30:55Z</time>
      </trkpt>
      <trkpt lat="47.01577" lon="-2.0078">
        <ele>0.7</ele>
        <time>2020-06-04T15:30:56Z</time>
      </trkpt>
      <trkpt lat="47.01577" lon="-2.00771">
        <ele>0.7</ele>
        <time>2020-06-04T15:30:57Z</time>
      </trkpt>
      <trkpt lat="47.01577" lon="-2.00765">
        <ele>0.7</ele>
        <time>2020-06-04T15:30:58Z</time>
      </trkpt>
      <trkpt lat="47.01574" lon="-2.00755">
        <ele>0.7</ele>
        <time>2020-06-04T15:30:59Z</time>
      </trkpt>
      <trkpt lat="47.01573" lon="-2.00749">
        <ele>0.7</ele>
        <time>2020-06-04T15:31:00Z</time>
      </trkpt>
      <trkpt lat="47.01572" lon="-2.00743">
        <ele>0.7</ele>
        <time>2020-06-04T15:31:01Z</time>
      </trkpt>
      <trkpt lat="47.01568" lon="-2.00735">
        <ele>0.7</ele>
        <time>2020-06-04T15:31:02Z</time>
      </trkpt>
      <trkpt lat="47.01563" lon="-2.00728">
        <ele>0.7</ele>
        <time>2020-06-04T15:31:03Z</time>
      </trkpt>
      <trkpt lat="47.01558" lon="-2.00721">
        <ele>0.7</ele>
        <time>2020-06-04T15:31:04Z</time>
      </trkpt>
      <trkpt lat="47.01554" lon="-2.00716">
        <ele>0.7</ele>
        <time>2020-06-04T15:31:05Z</time>
      </trkpt>
      <trkpt lat="47.0155" lon="-2.0071">
        <ele>0.7</ele>
        <time>2020-06-04T15:31:06Z</time>
      </trkpt>
      <trkpt lat="47.01545" lon="-2.00705">
        <ele>0.7</ele>
        <time>2020-06-04T15:31:07Z</time>
      </trkpt>
      <trkpt lat="47.01541" lon="-2.00701">
        <ele>0.7</ele>
        <time>2020-06-04T15:31:08Z</time>
      </trkpt>
      <trkpt lat="47.01536" lon="-2.00697">
        <ele>0.7</ele>
        <time>2020-06-04T15:31:09Z</time>
      </trkpt>
      <trkpt lat="47.01531" lon="-2.00694">
        <ele>0.7</ele>
        <time>2020-06-04T15:31:10Z</time>
      </trkpt>
      <trkpt lat="47.01525" lon="-2.00689">
        <ele>0.7</ele>
        <time>2020-06-04T15:31:11Z</time>
      </trkpt>
      <trkpt lat="47.0152" lon="-2.00682">
        <ele>0.7</ele>
        <time>2020-06-04T15:31:12Z</time>
      </trkpt>
      <trkpt lat="47.01515" lon="-2.00675">
        <ele>0.7</ele>
        <time>2020-06-04T15:31:13Z</time>
      </trkpt>
      <trkpt lat="47.01511" lon="-2.00667">
        <ele>0.7</ele>
        <time>2020-06-04T15:31:14Z</time>
      </trkpt>
      <trkpt lat="47.01507" lon="-2.00659">
        <ele>0.7</ele>
        <time>2020-06-04T15:31:15Z</time>
      </trkpt>
      <trkpt lat="47.01504" lon="-2.00651">
        <ele>0.7</ele>
        <time>2020-06-04T15:31:16Z</time>
      </trkpt>
      <trkpt lat="47.01502" lon="-2.00642">
        <ele>0.8</ele>
        <time>2020-06-04T15:31:17Z</time>
      </trkpt>
      <trkpt lat="47.01499" lon="-2.00634">
        <ele>0.8</ele>
        <time>2020-06-04T15:31:18Z</time>
      </trkpt>
      <trkpt lat="47.01497" lon="-2.00627">
        <ele>0.8</ele>
        <time>2020-06-04T15:31:19Z</time>
      </trkpt>
      <trkpt lat="47.01494" lon="-2.00618">
        <ele>0.9</ele>
        <time>2020-06-04T15:31:20Z</time>
      </trkpt>
      <trkpt lat="47.01491" lon="-2.00611">
        <ele>0.9</ele>
        <time>2020-06-04T15:31:21Z</time>
      </trkpt>
      <trkpt lat="47.01489" lon="-2.00603">
        <ele>0.9</ele>
        <time>2020-06-04T15:31:22Z</time>
      </trkpt>
      <trkpt lat="47.01487" lon="-2.00594">
        <ele>0.8</ele>
        <time>2020-06-04T15:31:23Z</time>
      </trkpt>
      <trkpt lat="47.01487" lon="-2.00584">
        <ele>0.8</ele>
        <time>2020-06-04T15:31:24Z</time>
      </trkpt>
      <trkpt lat="47.01485" lon="-2.00575">
        <ele>0.8</ele>
        <time>2020-06-04T15:31:25Z</time>
      </trkpt>
      <trkpt lat="47.01483" lon="-2.00568">
        <ele>0.8</ele>
        <time>2020-06-04T15:31:26Z</time>
      </trkpt>
      <trkpt lat="47.01479" lon="-2.00561">
        <ele>0.8</ele>
        <time>2020-06-04T15:31:27Z</time>
      </trkpt>
      <trkpt lat="47.01475" lon="-2.00556">
        <ele>0.8</ele>
        <time>2020-06-04T15:31:28Z</time>
      </trkpt>
      <trkpt lat="47.0147" lon="-2.00551">
        <ele>0.8</ele>
        <time>2020-06-04T15:31:29Z</time>
      </trkpt>
      <trkpt lat="47.01465" lon="-2.00545">
        <ele>0.8</ele>
        <time>2020-06-04T15:31:30Z</time>
      </trkpt>
      <trkpt lat="47.01461" lon="-2.00538">
        <ele>0.8</ele>
        <time>2020-06-04T15:31:31Z</time>
      </trkpt>
      <trkpt lat="47.01458" lon="-2.00532">
        <ele>0.8</ele>
        <time>2020-06-04T15:31:32Z</time>
      </trkpt>
      <trkpt lat="47.01457" lon="-2.00524">
        <ele>0.8</ele>
        <time>2020-06-04T15:31:33Z</time>
      </trkpt>
      <trkpt lat="47.01456" lon="-2.00516">
        <ele>0.8</ele>
        <time>2020-06-04T15:31:34Z</time>
      </trkpt>
      <trkpt lat="47.01454" lon="-2.00506">
        <ele>0.7</ele>
        <time>2020-06-04T15:31:35Z</time>
      </trkpt>
      <trkpt lat="47.01453" lon="-2.00496">
        <ele>0.7</ele>
        <time>2020-06-04T15:31:36Z</time>
      </trkpt>
      <trkpt lat="47.01451" lon="-2.00487">
        <ele>0.7</ele>
        <time>2020-06-04T15:31:37Z</time>
      </trkpt>
      <trkpt lat="47.01449" lon="-2.00478">
        <ele>0.7</ele>
        <time>2020-06-04T15:31:38Z</time>
      </trkpt>
      <trkpt lat="47.01448" lon="-2.0047">
        <ele>0.7</ele>
        <time>2020-06-04T15:31:39Z</time>
      </trkpt>
      <trkpt lat="47.01447" lon="-2.00461">
        <ele>0.6</ele>
        <time>2020-06-04T15:31:40Z</time>
      </trkpt>
      <trkpt lat="47.01446" lon="-2.00452">
        <ele>0.6</ele>
        <time>2020-06-04T15:31:41Z</time>
      </trkpt>
      <trkpt lat="47.01444" lon="-2.00444">
        <ele>0.6</ele>
        <time>2020-06-04T15:31:42Z</time>
      </trkpt>
      <trkpt lat="47.01443" lon="-2.00436">
        <ele>0.6</ele>
        <time>2020-06-04T15:31:43Z</time>
      </trkpt>
      <trkpt lat="47.01441" lon="-2.00428">
        <ele>0.5</ele>
        <time>2020-06-04T15:31:44Z</time>
      </trkpt>
      <trkpt lat="47.01439" lon="-2.0042">
        <ele>0.5</ele>
        <time>2020-06-04T15:31:45Z</time>
      </trkpt>
      <trkpt lat="47.01436" lon="-2.00412">
        <ele>0.5</ele>
        <time>2020-06-04T15:31:46Z</time>
      </trkpt>
      <trkpt lat="47.01433" lon="-2.00405">
        <ele>0.5</ele>
        <time>2020-06-04T15:31:47Z</time>
      </trkpt>
      <trkpt lat="47.01429" lon="-2.00397">
        <ele>0.5</ele>
        <time>2020-06-04T15:31:48Z</time>
      </trkpt>
      <trkpt lat="47.01426" lon="-2.00391">
        <ele>0.5</ele>
        <time>2020-06-04T15:31:49Z</time>
      </trkpt>
      <trkpt lat="47.01424" lon="-2.00384">
        <ele>0.5</ele>
        <time>2020-06-04T15:31:50Z</time>
      </trkpt>
      <trkpt lat="47.01421" lon="-2.00376">
        <ele>0.5</ele>
        <time>2020-06-04T15:31:51Z</time>
      </trkpt>
      <trkpt lat="47.01417" lon="-2.00367">
        <ele>0.5</ele>
        <time>2020-06-04T15:31:52Z</time>
      </trkpt>
      <trkpt lat="47.01414" lon="-2.0036">
        <ele>0.5</ele>
        <time>2020-06-04T15:31:53Z</time>
      </trkpt>
      <trkpt lat="47.01411" lon="-2.00353">
        <ele>0.4</ele>
        <time>2020-06-04T15:31:54Z</time>
      </trkpt>
      <trkpt lat="47.01407" lon="-2.00346">
        <ele>0.4</ele>
        <time>2020-06-04T15:31:55Z</time>
      </trkpt>
      <trkpt lat="47.01404" lon="-2.00339">
        <ele>0.5</ele>
        <time>2020-06-04T15:31:56Z</time>
      </trkpt>
      <trkpt lat="47.01402" lon="-2.00333">
        <ele>0.5</ele>
        <time>2020-06-04T15:31:57Z</time>
      </trkpt>
      <trkpt lat="47.014" lon="-2.00326">
        <ele>0.5</ele>
        <time>2020-06-04T15:31:58Z</time>
      </trkpt>
      <trkpt lat="47.01397" lon="-2.00318">
        <ele>0.6</ele>
        <time>2020-06-04T15:31:59Z</time>
      </trkpt>
      <trkpt lat="47.01394" lon="-2.00311">
        <ele>0.6</ele>
        <time>2020-06-04T15:32:00Z</time>
      </trkpt>
      <trkpt lat="47.01392" lon="-2.00302">
        <ele>0.7</ele>
        <time>2020-06-04T15:32:01Z</time>
      </trkpt>
      <trkpt lat="47.0139" lon="-2.00296">
        <ele>0.7</ele>
        <time>2020-06-04T15:32:02Z</time>
      </trkpt>
      <trkpt lat="47.01389" lon="-2.00289">
        <ele>0.8</ele>
        <time>2020-06-04T15:32:03Z</time>
      </trkpt>
      <trkpt lat="47.01389" lon="-2.00284">
        <ele>0.8</ele>
        <time>2020-06-04T15:32:04Z</time>
      </trkpt>
      <trkpt lat="47.01392" lon="-2.00277">
        <ele>0.8</ele>
        <time>2020-06-04T15:32:05Z</time>
      </trkpt>
      <trkpt lat="47.01394" lon="-2.00271">
        <ele>0.8</ele>
        <time>2020-06-04T15:32:06Z</time>
      </trkpt>
      <trkpt lat="47.01396" lon="-2.00266">
        <ele>0.8</ele>
        <time>2020-06-04T15:32:07Z</time>
      </trkpt>
      <trkpt lat="47.01397" lon="-2.00261">
        <ele>0.8</ele>
        <time>2020-06-04T15:32:08Z</time>
      </trkpt>
      <trkpt lat="47.01399" lon="-2.00255">
        <ele>0.8</ele>
        <time>2020-06-04T15:32:09Z</time>
      </trkpt>
      <trkpt lat="47.01401" lon="-2.0025">
        <ele>0.8</ele>
        <time>2020-06-04T15:32:10Z</time>
      </trkpt>
      <trkpt lat="47.01403" lon="-2.00244">
        <ele>0.8</ele>
        <time>2020-06-04T15:32:11Z</time>
      </trkpt>
      <trkpt lat="47.01404" lon="-2.00238">
        <ele>0.8</ele>
        <time>2020-06-04T15:32:12Z</time>
      </trkpt>
      <trkpt lat="47.01405" lon="-2.00233">
        <ele>0.8</ele>
        <time>2020-06-04T15:32:13Z</time>
      </trkpt>
      <trkpt lat="47.01408" lon="-2.00226">
        <ele>0.8</ele>
        <time>2020-06-04T15:32:14Z</time>
      </trkpt>
      <trkpt lat="47.01409" lon="-2.0022">
        <ele>0.8</ele>
        <time>2020-06-04T15:32:15Z</time>
      </trkpt>
      <trkpt lat="47.01411" lon="-2.00213">
        <ele>0.8</ele>
        <time>2020-06-04T15:32:16Z</time>
      </trkpt>
      <trkpt lat="47.01413" lon="-2.00206">
        <ele>0.8</ele>
        <time>2020-06-04T15:32:17Z</time>
      </trkpt>
      <trkpt lat="47.01415" lon="-2.00201">
        <ele>0.8</ele>
        <time>2020-06-04T15:32:18Z</time>
      </trkpt>
      <trkpt lat="47.01416" lon="-2.00195">
        <ele>0.8</ele>
        <time>2020-06-04T15:32:19Z</time>
      </trkpt>
      <trkpt lat="47.01418" lon="-2.00187">
        <ele>0.9</ele>
        <time>2020-06-04T15:32:20Z</time>
      </trkpt>
      <trkpt lat="47.0142" lon="-2.0018">
        <ele>0.9</ele>
        <time>2020-06-04T15:32:21Z</time>
      </trkpt>
      <trkpt lat="47.01422" lon="-2.00173">
        <ele>0.9</ele>
        <time>2020-06-04T15:32:22Z</time>
      </trkpt>
      <trkpt lat="47.01425" lon="-2.00166">
        <ele>0.9</ele>
        <time>2020-06-04T15:32:23Z</time>
      </trkpt>
      <trkpt lat="47.01426" lon="-2.00161">
        <ele>0.9</ele>
        <time>2020-06-04T15:32:24Z</time>
      </trkpt>
      <trkpt lat="47.01428" lon="-2.00155">
        <ele>0.9</ele>
        <time>2020-06-04T15:32:25Z</time>
      </trkpt>
      <trkpt lat="47.01429" lon="-2.00151">
        <ele>0.9</ele>
        <time>2020-06-04T15:32:26Z</time>
      </trkpt>
      <trkpt lat="47.01429" lon="-2.00146">
        <ele>0.9</ele>
        <time>2020-06-04T15:32:27Z</time>
      </trkpt>
      <trkpt lat="47.0143" lon="-2.00143">
        <ele>0.9</ele>
        <time>2020-06-04T15:32:28Z</time>
      </trkpt>
      <trkpt lat="47.0143" lon="-2.00143">
        <ele>0.9</ele>
        <time>2020-06-04T15:32:29Z</time>
      </trkpt>
      <trkpt lat="47.0143" lon="-2.00143">
        <ele>0.9</ele>
        <time>2020-06-04T15:32:30Z</time>
      </trkpt>
      <trkpt lat="47.0143" lon="-2.00143">
        <ele>0.9</ele>
        <time>2020-06-04T15:32:31Z</time>
      </trkpt>
      <trkpt lat="47.0143" lon="-2.00144">
        <ele>0.9</ele>
        <time>2020-06-04T15:32:32Z</time>
      </trkpt>
      <trkpt lat="47.01429" lon="-2.00144">
        <ele>0.9</ele>
        <time>2020-06-04T15:32:33Z</time>
      </trkpt>
      <trkpt lat="47.01429" lon="-2.00143">
        <ele>0.9</ele>
        <time>2020-06-04T15:32:34Z</time>
      </trkpt>
      <trkpt lat="47.0143" lon="-2.00143">
        <ele>0.9</ele>
        <time>2020-06-04T15:32:35Z</time>
      </trkpt>
      <trkpt lat="47.0143" lon="-2.00143">
        <ele>0.9</ele>
        <time>2020-06-04T15:32:36Z</time>
      </trkpt>
      <trkpt lat="47.01431" lon="-2.00141">
        <ele>0.9</ele>
        <time>2020-06-04T15:32:37Z</time>
      </trkpt>
      <trkpt lat="47.01432" lon="-2.00139">
        <ele>0.9</ele>
        <time>2020-06-04T15:32:38Z</time>
      </trkpt>
      <trkpt lat="47.01433" lon="-2.00137">
        <ele>0.9</ele>
        <time>2020-06-04T15:32:39Z</time>
      </trkpt>
      <trkpt lat="47.01434" lon="-2.00135">
        <ele>0.9</ele>
        <time>2020-06-04T15:33:57Z</time>
      </trkpt>
      <trkpt lat="47.01435" lon="-2.00133">
        <ele>0.9</ele>
        <time>2020-06-04T15:33:58Z</time>
      </trkpt>
      <trkpt lat="47.01436" lon="-2.00127">
        <ele>0.8</ele>
        <time>2020-06-04T15:33:59Z</time>
      </trkpt>
      <trkpt lat="47.01438" lon="-2.00122">
        <ele>0.8</ele>
        <time>2020-06-04T15:34:00Z</time>
      </trkpt>
      <trkpt lat="47.01439" lon="-2.00116">
        <ele>0.8</ele>
        <time>2020-06-04T15:34:01Z</time>
      </trkpt>
      <trkpt lat="47.0144" lon="-2.0011">
        <ele>0.8</ele>
        <time>2020-06-04T15:34:02Z</time>
      </trkpt>
      <trkpt lat="47.01442" lon="-2.00104">
        <ele>0.8</ele>
        <time>2020-06-04T15:34:03Z</time>
      </trkpt>
      <trkpt lat="47.01443" lon="-2.00098">
        <ele>0.8</ele>
        <time>2020-06-04T15:34:04Z</time>
      </trkpt>
      <trkpt lat="47.01444" lon="-2.00092">
        <ele>0.8</ele>
        <time>2020-06-04T15:34:05Z</time>
      </trkpt>
      <trkpt lat="47.01445" lon="-2.00083">
        <ele>0.7</ele>
        <time>2020-06-04T15:34:06Z</time>
      </trkpt>
      <trkpt lat="47.01444" lon="-2.00077">
        <ele>0.7</ele>
        <time>2020-06-04T15:34:07Z</time>
      </trkpt>
      <trkpt lat="47.01442" lon="-2.00069">
        <ele>0.7</ele>
        <time>2020-06-04T15:34:08Z</time>
      </trkpt>
      <trkpt lat="47.0144" lon="-2.00062">
        <ele>0.8</ele>
        <time>2020-06-04T15:34:09Z</time>
      </trkpt>
      <trkpt lat="47.01438" lon="-2.00055">
        <ele>0.8</ele>
        <time>2020-06-04T15:34:10Z</time>
      </trkpt>
      <trkpt lat="47.01438" lon="-2.00049">
        <ele>0.8</ele>
        <time>2020-06-04T15:34:11Z</time>
      </trkpt>
      <trkpt lat="47.01437" lon="-2.00043">
        <ele>0.8</ele>
        <time>2020-06-04T15:34:12Z</time>
      </trkpt>
      <trkpt lat="47.01436" lon="-2.00036">
        <ele>0.8</ele>
        <time>2020-06-04T15:34:13Z</time>
      </trkpt>
      <trkpt lat="47.01435" lon="-2.00029">
        <ele>0.8</ele>
        <time>2020-06-04T15:34:14Z</time>
      </trkpt>
      <trkpt lat="47.01434" lon="-2.00022">
        <ele>0.8</ele>
        <time>2020-06-04T15:34:15Z</time>
      </trkpt>
      <trkpt lat="47.01433" lon="-2.00014">
        <ele>0.8</ele>
        <time>2020-06-04T15:34:16Z</time>
      </trkpt>
      <trkpt lat="47.01432" lon="-2.00005">
        <ele>0.8</ele>
        <time>2020-06-04T15:34:17Z</time>
      </trkpt>
      <trkpt lat="47.0143" lon="-1.99997">
        <ele>0.8</ele>
        <time>2020-06-04T15:34:18Z</time>
      </trkpt>
      <trkpt lat="47.01429" lon="-1.99989">
        <ele>0.8</ele>
        <time>2020-06-04T15:34:19Z</time>
      </trkpt>
      <trkpt lat="47.01427" lon="-1.99981">
        <ele>0.8</ele>
        <time>2020-06-04T15:34:20Z</time>
      </trkpt>
      <trkpt lat="47.01426" lon="-1.99973">
        <ele>0.8</ele>
        <time>2020-06-04T15:34:21Z</time>
      </trkpt>
      <trkpt lat="47.01425" lon="-1.99965">
        <ele>0.8</ele>
        <time>2020-06-04T15:34:22Z</time>
      </trkpt>
      <trkpt lat="47.01423" lon="-1.99957">
        <ele>0.8</ele>
        <time>2020-06-04T15:34:23Z</time>
      </trkpt>
      <trkpt lat="47.01422" lon="-1.99948">
        <ele>0.9</ele>
        <time>2020-06-04T15:34:24Z</time>
      </trkpt>
      <trkpt lat="47.01421" lon="-1.9994">
        <ele>0.9</ele>
        <time>2020-06-04T15:34:25Z</time>
      </trkpt>
      <trkpt lat="47.01419" lon="-1.99932">
        <ele>1</ele>
        <time>2020-06-04T15:34:26Z</time>
      </trkpt>
      <trkpt lat="47.01418" lon="-1.99923">
        <ele>1</ele>
        <time>2020-06-04T15:34:27Z</time>
      </trkpt>
      <trkpt lat="47.01417" lon="-1.99914">
        <ele>1</ele>
        <time>2020-06-04T15:34:28Z</time>
      </trkpt>
      <trkpt lat="47.01415" lon="-1.99906">
        <ele>1.1</ele>
        <time>2020-06-04T15:34:29Z</time>
      </trkpt>
      <trkpt lat="47.01414" lon="-1.99896">
        <ele>1.1</ele>
        <time>2020-06-04T15:34:30Z</time>
      </trkpt>
      <trkpt lat="47.01413" lon="-1.99888">
        <ele>1.1</ele>
        <time>2020-06-04T15:34:31Z</time>
      </trkpt>
      <trkpt lat="47.01412" lon="-1.99879">
        <ele>1.1</ele>
        <time>2020-06-04T15:34:32Z</time>
      </trkpt>
      <trkpt lat="47.01411" lon="-1.99871">
        <ele>1.1</ele>
        <time>2020-06-04T15:34:33Z</time>
      </trkpt>
      <trkpt lat="47.0141" lon="-1.99862">
        <ele>1.2</ele>
        <time>2020-06-04T15:34:34Z</time>
      </trkpt>
      <trkpt lat="47.01409" lon="-1.99855">
        <ele>1.2</ele>
        <time>2020-06-04T15:34:35Z</time>
      </trkpt>
      <trkpt lat="47.01407" lon="-1.99847">
        <ele>1.2</ele>
        <time>2020-06-04T15:34:36Z</time>
      </trkpt>
      <trkpt lat="47.01406" lon="-1.99839">
        <ele>1.2</ele>
        <time>2020-06-04T15:34:37Z</time>
      </trkpt>
      <trkpt lat="47.01405" lon="-1.99831">
        <ele>1.2</ele>
        <time>2020-06-04T15:34:38Z</time>
      </trkpt>
      <trkpt lat="47.01405" lon="-1.99823">
        <ele>1.2</ele>
        <time>2020-06-04T15:34:39Z</time>
      </trkpt>
      <trkpt lat="47.01404" lon="-1.99815">
        <ele>1.2</ele>
        <time>2020-06-04T15:34:40Z</time>
      </trkpt>
      <trkpt lat="47.01403" lon="-1.99808">
        <ele>1.2</ele>
        <time>2020-06-04T15:34:41Z</time>
      </trkpt>
      <trkpt lat="47.01403" lon="-1.99801">
        <ele>1.2</ele>
        <time>2020-06-04T15:34:42Z</time>
      </trkpt>
      <trkpt lat="47.01401" lon="-1.99794">
        <ele>1.2</ele>
        <time>2020-06-04T15:34:43Z</time>
      </trkpt>
      <trkpt lat="47.014" lon="-1.99785">
        <ele>1.2</ele>
        <time>2020-06-04T15:34:44Z</time>
      </trkpt>
      <trkpt lat="47.01398" lon="-1.99776">
        <ele>1.3</ele>
        <time>2020-06-04T15:34:45Z</time>
      </trkpt>
      <trkpt lat="47.01397" lon="-1.99769">
        <ele>1.3</ele>
        <time>2020-06-04T15:34:46Z</time>
      </trkpt>
      <trkpt lat="47.01396" lon="-1.99761">
        <ele>1.3</ele>
        <time>2020-06-04T15:34:47Z</time>
      </trkpt>
      <trkpt lat="47.01394" lon="-1.99753">
        <ele>1.3</ele>
        <time>2020-06-04T15:34:48Z</time>
      </trkpt>
      <trkpt lat="47.01393" lon="-1.99746">
        <ele>1.3</ele>
        <time>2020-06-04T15:34:49Z</time>
      </trkpt>
      <trkpt lat="47.01392" lon="-1.99738">
        <ele>1.3</ele>
        <time>2020-06-04T15:34:50Z</time>
      </trkpt>
      <trkpt lat="47.01391" lon="-1.9973">
        <ele>1.3</ele>
        <time>2020-06-04T15:34:51Z</time>
      </trkpt>
      <trkpt lat="47.0139" lon="-1.99723">
        <ele>1.3</ele>
        <time>2020-06-04T15:34:52Z</time>
      </trkpt>
      <trkpt lat="47.01389" lon="-1.99716">
        <ele>1.4</ele>
        <time>2020-06-04T15:34:53Z</time>
      </trkpt>
      <trkpt lat="47.01386" lon="-1.9971">
        <ele>1.4</ele>
        <time>2020-06-04T15:34:54Z</time>
      </trkpt>
      <trkpt lat="47.01385" lon="-1.99702">
        <ele>1.4</ele>
        <time>2020-06-04T15:34:55Z</time>
      </trkpt>
      <trkpt lat="47.01385" lon="-1.99694">
        <ele>1.4</ele>
        <time>2020-06-04T15:34:56Z</time>
      </trkpt>
      <trkpt lat="47.01384" lon="-1.99685">
        <ele>1.4</ele>
        <time>2020-06-04T15:34:57Z</time>
      </trkpt>
      <trkpt lat="47.01384" lon="-1.99677">
        <ele>1.5</ele>
        <time>2020-06-04T15:34:58Z</time>
      </trkpt>
      <trkpt lat="47.01383" lon="-1.9967">
        <ele>1.5</ele>
        <time>2020-06-04T15:34:59Z</time>
      </trkpt>
      <trkpt lat="47.01382" lon="-1.99662">
        <ele>1.5</ele>
        <time>2020-06-04T15:35:00Z</time>
      </trkpt>
      <trkpt lat="47.01382" lon="-1.99654">
        <ele>1.5</ele>
        <time>2020-06-04T15:35:01Z</time>
      </trkpt>
      <trkpt lat="47.01382" lon="-1.99645">
        <ele>1.5</ele>
        <time>2020-06-04T15:35:02Z</time>
      </trkpt>
      <trkpt lat="47.01382" lon="-1.99637">
        <ele>1.5</ele>
        <time>2020-06-04T15:35:03Z</time>
      </trkpt>
      <trkpt lat="47.01381" lon="-1.99629">
        <ele>1.5</ele>
        <time>2020-06-04T15:35:04Z</time>
      </trkpt>
      <trkpt lat="47.01381" lon="-1.99621">
        <ele>1.5</ele>
        <time>2020-06-04T15:35:05Z</time>
      </trkpt>
      <trkpt lat="47.01381" lon="-1.99613">
        <ele>1.5</ele>
        <time>2020-06-04T15:35:06Z</time>
      </trkpt>
      <trkpt lat="47.0138" lon="-1.99605">
        <ele>1.5</ele>
        <time>2020-06-04T15:35:07Z</time>
      </trkpt>
      <trkpt lat="47.0138" lon="-1.99596">
        <ele>1.5</ele>
        <time>2020-06-04T15:35:08Z</time>
      </trkpt>
      <trkpt lat="47.0138" lon="-1.99587">
        <ele>1.5</ele>
        <time>2020-06-04T15:35:09Z</time>
      </trkpt>
      <trkpt lat="47.0138" lon="-1.99577">
        <ele>1.6</ele>
        <time>2020-06-04T15:35:10Z</time>
      </trkpt>
      <trkpt lat="47.0138" lon="-1.99569">
        <ele>1.6</ele>
        <time>2020-06-04T15:35:11Z</time>
      </trkpt>
      <trkpt lat="47.01379" lon="-1.99561">
        <ele>1.6</ele>
        <time>2020-06-04T15:35:12Z</time>
      </trkpt>
      <trkpt lat="47.01379" lon="-1.99553">
        <ele>1.6</ele>
        <time>2020-06-04T15:35:13Z</time>
      </trkpt>
      <trkpt lat="47.01378" lon="-1.99545">
        <ele>1.6</ele>
        <time>2020-06-04T15:35:14Z</time>
      </trkpt>
      <trkpt lat="47.01378" lon="-1.99536">
        <ele>1.6</ele>
        <time>2020-06-04T15:35:15Z</time>
      </trkpt>
      <trkpt lat="47.01377" lon="-1.99528">
        <ele>1.5</ele>
        <time>2020-06-04T15:35:16Z</time>
      </trkpt>
      <trkpt lat="47.01377" lon="-1.99519">
        <ele>1.5</ele>
        <time>2020-06-04T15:35:17Z</time>
      </trkpt>
      <trkpt lat="47.01377" lon="-1.99511">
        <ele>1.5</ele>
        <time>2020-06-04T15:35:18Z</time>
      </trkpt>
      <trkpt lat="47.01376" lon="-1.99502">
        <ele>1.5</ele>
        <time>2020-06-04T15:35:19Z</time>
      </trkpt>
      <trkpt lat="47.01376" lon="-1.99492">
        <ele>1.5</ele>
        <time>2020-06-04T15:35:20Z</time>
      </trkpt>
      <trkpt lat="47.01376" lon="-1.99483">
        <ele>1.5</ele>
        <time>2020-06-04T15:35:21Z</time>
      </trkpt>
      <trkpt lat="47.01376" lon="-1.99475">
        <ele>1.5</ele>
        <time>2020-06-04T15:35:22Z</time>
      </trkpt>
      <trkpt lat="47.01376" lon="-1.99466">
        <ele>1.6</ele>
        <time>2020-06-04T15:35:23Z</time>
      </trkpt>
      <trkpt lat="47.01376" lon="-1.99457">
        <ele>1.6</ele>
        <time>2020-06-04T15:35:24Z</time>
      </trkpt>
      <trkpt lat="47.01376" lon="-1.99449">
        <ele>1.6</ele>
        <time>2020-06-04T15:35:25Z</time>
      </trkpt>
      <trkpt lat="47.01376" lon="-1.9944">
        <ele>1.6</ele>
        <time>2020-06-04T15:35:26Z</time>
      </trkpt>
      <trkpt lat="47.01376" lon="-1.99432">
        <ele>1.6</ele>
        <time>2020-06-04T15:35:27Z</time>
      </trkpt>
      <trkpt lat="47.01375" lon="-1.99423">
        <ele>1.7</ele>
        <time>2020-06-04T15:35:28Z</time>
      </trkpt>
      <trkpt lat="47.01375" lon="-1.99415">
        <ele>1.7</ele>
        <time>2020-06-04T15:35:29Z</time>
      </trkpt>
      <trkpt lat="47.01375" lon="-1.99406">
        <ele>1.7</ele>
        <time>2020-06-04T15:35:30Z</time>
      </trkpt>
      <trkpt lat="47.01375" lon="-1.99398">
        <ele>1.7</ele>
        <time>2020-06-04T15:35:31Z</time>
      </trkpt>
      <trkpt lat="47.01374" lon="-1.9939">
        <ele>1.7</ele>
        <time>2020-06-04T15:35:32Z</time>
      </trkpt>
      <trkpt lat="47.01373" lon="-1.99383">
        <ele>1.7</ele>
        <time>2020-06-04T15:35:33Z</time>
      </trkpt>
      <trkpt lat="47.01373" lon="-1.99375">
        <ele>1.7</ele>
        <time>2020-06-04T15:35:34Z</time>
      </trkpt>
      <trkpt lat="47.01373" lon="-1.99367">
        <ele>1.7</ele>
        <time>2020-06-04T15:35:35Z</time>
      </trkpt>
      <trkpt lat="47.01372" lon="-1.99359">
        <ele>1.7</ele>
        <time>2020-06-04T15:35:36Z</time>
      </trkpt>
      <trkpt lat="47.01372" lon="-1.9935">
        <ele>1.7</ele>
        <time>2020-06-04T15:35:37Z</time>
      </trkpt>
      <trkpt lat="47.01371" lon="-1.99342">
        <ele>1.7</ele>
        <time>2020-06-04T15:35:38Z</time>
      </trkpt>
      <trkpt lat="47.01371" lon="-1.99333">
        <ele>1.7</ele>
        <time>2020-06-04T15:35:39Z</time>
      </trkpt>
      <trkpt lat="47.01371" lon="-1.99324">
        <ele>1.7</ele>
        <time>2020-06-04T15:35:40Z</time>
      </trkpt>
      <trkpt lat="47.0137" lon="-1.99316">
        <ele>1.7</ele>
        <time>2020-06-04T15:35:41Z</time>
      </trkpt>
      <trkpt lat="47.0137" lon="-1.99308">
        <ele>1.8</ele>
        <time>2020-06-04T15:35:42Z</time>
      </trkpt>
      <trkpt lat="47.0137" lon="-1.99299">
        <ele>1.8</ele>
        <time>2020-06-04T15:35:43Z</time>
      </trkpt>
      <trkpt lat="47.0137" lon="-1.99291">
        <ele>1.8</ele>
        <time>2020-06-04T15:35:44Z</time>
      </trkpt>
      <trkpt lat="47.01369" lon="-1.99283">
        <ele>1.8</ele>
        <time>2020-06-04T15:35:45Z</time>
      </trkpt>
      <trkpt lat="47.01369" lon="-1.99275">
        <ele>1.8</ele>
        <time>2020-06-04T15:35:46Z</time>
      </trkpt>
      <trkpt lat="47.01369" lon="-1.99267">
        <ele>1.7</ele>
        <time>2020-06-04T15:35:47Z</time>
      </trkpt>
      <trkpt lat="47.01369" lon="-1.99258">
        <ele>1.7</ele>
        <time>2020-06-04T15:35:48Z</time>
      </trkpt>
      <trkpt lat="47.01368" lon="-1.99249">
        <ele>1.7</ele>
        <time>2020-06-04T15:35:49Z</time>
      </trkpt>
      <trkpt lat="47.01367" lon="-1.9924">
        <ele>1.7</ele>
        <time>2020-06-04T15:35:50Z</time>
      </trkpt>
      <trkpt lat="47.01366" lon="-1.99231">
        <ele>1.7</ele>
        <time>2020-06-04T15:35:51Z</time>
      </trkpt>
      <trkpt lat="47.01366" lon="-1.99223">
        <ele>1.7</ele>
        <time>2020-06-04T15:35:52Z</time>
      </trkpt>
      <trkpt lat="47.01366" lon="-1.99214">
        <ele>1.7</ele>
        <time>2020-06-04T15:35:53Z</time>
      </trkpt>
      <trkpt lat="47.01365" lon="-1.99205">
        <ele>1.7</ele>
        <time>2020-06-04T15:35:54Z</time>
      </trkpt>
      <trkpt lat="47.01365" lon="-1.99196">
        <ele>1.6</ele>
        <time>2020-06-04T15:35:55Z</time>
      </trkpt>
      <trkpt lat="47.01365" lon="-1.99187">
        <ele>1.6</ele>
        <time>2020-06-04T15:35:56Z</time>
      </trkpt>
      <trkpt lat="47.01364" lon="-1.99178">
        <ele>1.6</ele>
        <time>2020-06-04T15:35:57Z</time>
      </trkpt>
      <trkpt lat="47.01363" lon="-1.9917">
        <ele>1.6</ele>
        <time>2020-06-04T15:35:58Z</time>
      </trkpt>
      <trkpt lat="47.01362" lon="-1.99161">
        <ele>1.6</ele>
        <time>2020-06-04T15:35:59Z</time>
      </trkpt>
      <trkpt lat="47.01361" lon="-1.99152">
        <ele>1.6</ele>
        <time>2020-06-04T15:36:00Z</time>
      </trkpt>
      <trkpt lat="47.01361" lon="-1.99144">
        <ele>1.6</ele>
        <time>2020-06-04T15:36:01Z</time>
      </trkpt>
      <trkpt lat="47.01361" lon="-1.99134">
        <ele>1.6</ele>
        <time>2020-06-04T15:36:02Z</time>
      </trkpt>
      <trkpt lat="47.01361" lon="-1.99125">
        <ele>1.5</ele>
        <time>2020-06-04T15:36:03Z</time>
      </trkpt>
      <trkpt lat="47.01361" lon="-1.99117">
        <ele>1.5</ele>
        <time>2020-06-04T15:36:04Z</time>
      </trkpt>
      <trkpt lat="47.01361" lon="-1.99109">
        <ele>1.5</ele>
        <time>2020-06-04T15:36:05Z</time>
      </trkpt>
      <trkpt lat="47.01361" lon="-1.99101">
        <ele>1.5</ele>
        <time>2020-06-04T15:36:06Z</time>
      </trkpt>
      <trkpt lat="47.01361" lon="-1.99093">
        <ele>1.5</ele>
        <time>2020-06-04T15:36:07Z</time>
      </trkpt>
      <trkpt lat="47.01361" lon="-1.99084">
        <ele>1.5</ele>
        <time>2020-06-04T15:36:08Z</time>
      </trkpt>
      <trkpt lat="47.0136" lon="-1.99075">
        <ele>1.5</ele>
        <time>2020-06-04T15:36:09Z</time>
      </trkpt>
      <trkpt lat="47.0136" lon="-1.99066">
        <ele>1.4</ele>
        <time>2020-06-04T15:36:10Z</time>
      </trkpt>
      <trkpt lat="47.01359" lon="-1.99057">
        <ele>1.4</ele>
        <time>2020-06-04T15:36:11Z</time>
      </trkpt>
      <trkpt lat="47.01359" lon="-1.99048">
        <ele>1.4</ele>
        <time>2020-06-04T15:36:12Z</time>
      </trkpt>
      <trkpt lat="47.01359" lon="-1.99038">
        <ele>1.4</ele>
        <time>2020-06-04T15:36:13Z</time>
      </trkpt>
      <trkpt lat="47.01358" lon="-1.99029">
        <ele>1.4</ele>
        <time>2020-06-04T15:36:14Z</time>
      </trkpt>
      <trkpt lat="47.01358" lon="-1.99019">
        <ele>1.4</ele>
        <time>2020-06-04T15:36:15Z</time>
      </trkpt>
      <trkpt lat="47.01357" lon="-1.9901">
        <ele>1.4</ele>
        <time>2020-06-04T15:36:16Z</time>
      </trkpt>
      <trkpt lat="47.01357" lon="-1.99">
        <ele>1.4</ele>
        <time>2020-06-04T15:36:17Z</time>
      </trkpt>
      <trkpt lat="47.01356" lon="-1.98991">
        <ele>1.4</ele>
        <time>2020-06-04T15:36:18Z</time>
      </trkpt>
      <trkpt lat="47.01356" lon="-1.98983">
        <ele>1.4</ele>
        <time>2020-06-04T15:36:19Z</time>
      </trkpt>
      <trkpt lat="47.01355" lon="-1.98974">
        <ele>1.4</ele>
        <time>2020-06-04T15:36:20Z</time>
      </trkpt>
      <trkpt lat="47.01355" lon="-1.98966">
        <ele>1.4</ele>
        <time>2020-06-04T15:36:21Z</time>
      </trkpt>
      <trkpt lat="47.01355" lon="-1.98957">
        <ele>1.4</ele>
        <time>2020-06-04T15:36:22Z</time>
      </trkpt>
      <trkpt lat="47.01354" lon="-1.98948">
        <ele>1.4</ele>
        <time>2020-06-04T15:36:23Z</time>
      </trkpt>
      <trkpt lat="47.01354" lon="-1.98939">
        <ele>1.4</ele>
        <time>2020-06-04T15:36:24Z</time>
      </trkpt>
      <trkpt lat="47.01354" lon="-1.98929">
        <ele>1.5</ele>
        <time>2020-06-04T15:36:25Z</time>
      </trkpt>
      <trkpt lat="47.01354" lon="-1.9892">
        <ele>1.5</ele>
        <time>2020-06-04T15:36:26Z</time>
      </trkpt>
      <trkpt lat="47.01354" lon="-1.98911">
        <ele>1.4</ele>
        <time>2020-06-04T15:36:27Z</time>
      </trkpt>
      <trkpt lat="47.01353" lon="-1.98903">
        <ele>1.4</ele>
        <time>2020-06-04T15:36:28Z</time>
      </trkpt>
      <trkpt lat="47.01353" lon="-1.98894">
        <ele>1.4</ele>
        <time>2020-06-04T15:36:29Z</time>
      </trkpt>
      <trkpt lat="47.01353" lon="-1.98884">
        <ele>1.4</ele>
        <time>2020-06-04T15:36:30Z</time>
      </trkpt>
      <trkpt lat="47.01354" lon="-1.98876">
        <ele>1.4</ele>
        <time>2020-06-04T15:36:31Z</time>
      </trkpt>
      <trkpt lat="47.01353" lon="-1.98867">
        <ele>1.4</ele>
        <time>2020-06-04T15:36:32Z</time>
      </trkpt>
      <trkpt lat="47.01353" lon="-1.98859">
        <ele>1.4</ele>
        <time>2020-06-04T15:36:33Z</time>
      </trkpt>
      <trkpt lat="47.01352" lon="-1.98851">
        <ele>1.4</ele>
        <time>2020-06-04T15:36:34Z</time>
      </trkpt>
      <trkpt lat="47.01352" lon="-1.98843">
        <ele>1.3</ele>
        <time>2020-06-04T15:36:35Z</time>
      </trkpt>
      <trkpt lat="47.01352" lon="-1.98836">
        <ele>1.3</ele>
        <time>2020-06-04T15:36:36Z</time>
      </trkpt>
      <trkpt lat="47.01352" lon="-1.98827">
        <ele>1.3</ele>
        <time>2020-06-04T15:36:37Z</time>
      </trkpt>
      <trkpt lat="47.01352" lon="-1.98818">
        <ele>1.3</ele>
        <time>2020-06-04T15:36:38Z</time>
      </trkpt>
      <trkpt lat="47.01352" lon="-1.98811">
        <ele>1.3</ele>
        <time>2020-06-04T15:36:39Z</time>
      </trkpt>
      <trkpt lat="47.01351" lon="-1.98803">
        <ele>1.3</ele>
        <time>2020-06-04T15:36:40Z</time>
      </trkpt>
      <trkpt lat="47.0135" lon="-1.98795">
        <ele>1.3</ele>
        <time>2020-06-04T15:36:41Z</time>
      </trkpt>
      <trkpt lat="47.01349" lon="-1.98787">
        <ele>1.3</ele>
        <time>2020-06-04T15:36:42Z</time>
      </trkpt>
      <trkpt lat="47.01349" lon="-1.98778">
        <ele>1.3</ele>
        <time>2020-06-04T15:36:43Z</time>
      </trkpt>
      <trkpt lat="47.01348" lon="-1.98769">
        <ele>1.3</ele>
        <time>2020-06-04T15:36:44Z</time>
      </trkpt>
      <trkpt lat="47.01348" lon="-1.98761">
        <ele>1.3</ele>
        <time>2020-06-04T15:36:45Z</time>
      </trkpt>
      <trkpt lat="47.01348" lon="-1.98753">
        <ele>1.3</ele>
        <time>2020-06-04T15:36:46Z</time>
      </trkpt>
      <trkpt lat="47.01347" lon="-1.98746">
        <ele>1.3</ele>
        <time>2020-06-04T15:36:47Z</time>
      </trkpt>
      <trkpt lat="47.01347" lon="-1.9874">
        <ele>1.3</ele>
        <time>2020-06-04T15:36:48Z</time>
      </trkpt>
      <trkpt lat="47.01347" lon="-1.98733">
        <ele>1.3</ele>
        <time>2020-06-04T15:36:49Z</time>
      </trkpt>
      <trkpt lat="47.01346" lon="-1.98727">
        <ele>1.4</ele>
        <time>2020-06-04T15:36:50Z</time>
      </trkpt>
      <trkpt lat="47.01346" lon="-1.9872">
        <ele>1.4</ele>
        <time>2020-06-04T15:36:51Z</time>
      </trkpt>
      <trkpt lat="47.01346" lon="-1.98714">
        <ele>1.4</ele>
        <time>2020-06-04T15:36:52Z</time>
      </trkpt>
      <trkpt lat="47.01347" lon="-1.98707">
        <ele>1.4</ele>
        <time>2020-06-04T15:36:53Z</time>
      </trkpt>
      <trkpt lat="47.01347" lon="-1.98702">
        <ele>1.4</ele>
        <time>2020-06-04T15:36:54Z</time>
      </trkpt>
      <trkpt lat="47.01347" lon="-1.98698">
        <ele>1.4</ele>
        <time>2020-06-04T15:36:55Z</time>
      </trkpt>
      <trkpt lat="47.01349" lon="-1.98694">
        <ele>1.4</ele>
        <time>2020-06-04T15:36:56Z</time>
      </trkpt>
      <trkpt lat="47.01354" lon="-1.98693">
        <ele>1.4</ele>
        <time>2020-06-04T15:36:57Z</time>
      </trkpt>
      <trkpt lat="47.01359" lon="-1.98693">
        <ele>1.3</ele>
        <time>2020-06-04T15:36:58Z</time>
      </trkpt>
      <trkpt lat="47.01363" lon="-1.98692">
        <ele>1.3</ele>
        <time>2020-06-04T15:36:59Z</time>
      </trkpt>
      <trkpt lat="47.01367" lon="-1.98694">
        <ele>1.3</ele>
        <time>2020-06-04T15:37:00Z</time>
      </trkpt>
      <trkpt lat="47.01373" lon="-1.98694">
        <ele>1.3</ele>
        <time>2020-06-04T15:37:01Z</time>
      </trkpt>
      <trkpt lat="47.01378" lon="-1.98693">
        <ele>1.3</ele>
        <time>2020-06-04T15:37:02Z</time>
      </trkpt>
      <trkpt lat="47.01382" lon="-1.98694">
        <ele>1.3</ele>
        <time>2020-06-04T15:37:03Z</time>
      </trkpt>
      <trkpt lat="47.01388" lon="-1.98693">
        <ele>1.3</ele>
        <time>2020-06-04T15:37:04Z</time>
      </trkpt>
      <trkpt lat="47.01394" lon="-1.98693">
        <ele>1.2</ele>
        <time>2020-06-04T15:37:05Z</time>
      </trkpt>
      <trkpt lat="47.01399" lon="-1.98694">
        <ele>1.2</ele>
        <time>2020-06-04T15:37:06Z</time>
      </trkpt>
      <trkpt lat="47.01405" lon="-1.98694">
        <ele>1.2</ele>
        <time>2020-06-04T15:37:07Z</time>
      </trkpt>
      <trkpt lat="47.01411" lon="-1.98693">
        <ele>1.1</ele>
        <time>2020-06-04T15:37:08Z</time>
      </trkpt>
      <trkpt lat="47.01416" lon="-1.98692">
        <ele>1.1</ele>
        <time>2020-06-04T15:37:09Z</time>
      </trkpt>
      <trkpt lat="47.01421" lon="-1.98694">
        <ele>1</ele>
        <time>2020-06-04T15:37:10Z</time>
      </trkpt>
      <trkpt lat="47.01427" lon="-1.98695">
        <ele>1</ele>
        <time>2020-06-04T15:37:11Z</time>
      </trkpt>
      <trkpt lat="47.01433" lon="-1.98696">
        <ele>0.9</ele>
        <time>2020-06-04T15:37:12Z</time>
      </trkpt>
      <trkpt lat="47.01439" lon="-1.98694">
        <ele>0.8</ele>
        <time>2020-06-04T15:37:13Z</time>
      </trkpt>
      <trkpt lat="47.01444" lon="-1.98695">
        <ele>0.7</ele>
        <time>2020-06-04T15:37:14Z</time>
      </trkpt>
      <trkpt lat="47.0145" lon="-1.98694">
        <ele>0.7</ele>
        <time>2020-06-04T15:37:15Z</time>
      </trkpt>
      <trkpt lat="47.01456" lon="-1.98694">
        <ele>0.7</ele>
        <time>2020-06-04T15:37:16Z</time>
      </trkpt>
      <trkpt lat="47.01461" lon="-1.98694">
        <ele>0.6</ele>
        <time>2020-06-04T15:37:17Z</time>
      </trkpt>
      <trkpt lat="47.01467" lon="-1.98694">
        <ele>0.6</ele>
        <time>2020-06-04T15:37:18Z</time>
      </trkpt>
      <trkpt lat="47.01473" lon="-1.98694">
        <ele>0.6</ele>
        <time>2020-06-04T15:37:19Z</time>
      </trkpt>
      <trkpt lat="47.0148" lon="-1.98693">
        <ele>0.6</ele>
        <time>2020-06-04T15:37:20Z</time>
      </trkpt>
      <trkpt lat="47.01486" lon="-1.98693">
        <ele>0.5</ele>
        <time>2020-06-04T15:37:21Z</time>
      </trkpt>
      <trkpt lat="47.01493" lon="-1.98693">
        <ele>0.5</ele>
        <time>2020-06-04T15:37:22Z</time>
      </trkpt>
      <trkpt lat="47.01499" lon="-1.98694">
        <ele>0.5</ele>
        <time>2020-06-04T15:37:23Z</time>
      </trkpt>
      <trkpt lat="47.01506" lon="-1.98693">
        <ele>0.4</ele>
        <time>2020-06-04T15:37:24Z</time>
      </trkpt>
      <trkpt lat="47.01511" lon="-1.98693">
        <ele>0.4</ele>
        <time>2020-06-04T15:37:25Z</time>
      </trkpt>
      <trkpt lat="47.01517" lon="-1.98693">
        <ele>0.4</ele>
        <time>2020-06-04T15:37:26Z</time>
      </trkpt>
      <trkpt lat="47.01523" lon="-1.98693">
        <ele>0.3</ele>
        <time>2020-06-04T15:37:27Z</time>
      </trkpt>
      <trkpt lat="47.0153" lon="-1.98694">
        <ele>0.3</ele>
        <time>2020-06-04T15:37:28Z</time>
      </trkpt>
      <trkpt lat="47.01536" lon="-1.98694">
        <ele>0.3</ele>
        <time>2020-06-04T15:37:29Z</time>
      </trkpt>
      <trkpt lat="47.01542" lon="-1.98694">
        <ele>0.2</ele>
        <time>2020-06-04T15:37:30Z</time>
      </trkpt>
      <trkpt lat="47.01548" lon="-1.98694">
        <ele>0.2</ele>
        <time>2020-06-04T15:37:31Z</time>
      </trkpt>
      <trkpt lat="47.01554" lon="-1.98695">
        <ele>0.2</ele>
        <time>2020-06-04T15:37:32Z</time>
      </trkpt>
      <trkpt lat="47.0156" lon="-1.98695">
        <ele>0.2</ele>
        <time>2020-06-04T15:37:33Z</time>
      </trkpt>
      <trkpt lat="47.01567" lon="-1.98695">
        <ele>0.1</ele>
        <time>2020-06-04T15:37:34Z</time>
      </trkpt>
      <trkpt lat="47.01573" lon="-1.98695">
        <ele>0.1</ele>
        <time>2020-06-04T15:37:35Z</time>
      </trkpt>
      <trkpt lat="47.01579" lon="-1.98693">
        <ele>0.1</ele>
        <time>2020-06-04T15:37:36Z</time>
      </trkpt>
      <trkpt lat="47.01585" lon="-1.98693">
        <ele>0.1</ele>
        <time>2020-06-04T15:37:37Z</time>
      </trkpt>
      <trkpt lat="47.01591" lon="-1.9869">
        <ele>0.1</ele>
        <time>2020-06-04T15:37:38Z</time>
      </trkpt>
      <trkpt lat="47.01596" lon="-1.98689">
        <ele>0.1</ele>
        <time>2020-06-04T15:37:39Z</time>
      </trkpt>
      <trkpt lat="47.01603" lon="-1.98685">
        <ele>0.1</ele>
        <time>2020-06-04T15:37:40Z</time>
      </trkpt>
      <trkpt lat="47.01609" lon="-1.98679">
        <ele>0.1</ele>
        <time>2020-06-04T15:37:41Z</time>
      </trkpt>
      <trkpt lat="47.01613" lon="-1.98671">
        <ele>0.1</ele>
        <time>2020-06-04T15:37:42Z</time>
      </trkpt>
      <trkpt lat="47.01618" lon="-1.98663">
        <ele>0.1</ele>
        <time>2020-06-04T15:37:43Z</time>
      </trkpt>
      <trkpt lat="47.01622" lon="-1.98656">
        <ele>0.1</ele>
        <time>2020-06-04T15:37:44Z</time>
      </trkpt>
      <trkpt lat="47.01626" lon="-1.98647">
        <ele>0.1</ele>
        <time>2020-06-04T15:37:45Z</time>
      </trkpt>
      <trkpt lat="47.01629" lon="-1.9864">
        <ele>0.1</ele>
        <time>2020-06-04T15:37:46Z</time>
      </trkpt>
      <trkpt lat="47.01633" lon="-1.98633">
        <ele>0.1</ele>
        <time>2020-06-04T15:37:47Z</time>
      </trkpt>
      <trkpt lat="47.01636" lon="-1.98627">
        <ele>0.1</ele>
        <time>2020-06-04T15:37:48Z</time>
      </trkpt>
      <trkpt lat="47.0164" lon="-1.98618">
        <ele>0.1</ele>
        <time>2020-06-04T15:37:49Z</time>
      </trkpt>
      <trkpt lat="47.01643" lon="-1.98612">
        <ele>0.1</ele>
        <time>2020-06-04T15:37:50Z</time>
      </trkpt>
      <trkpt lat="47.01647" lon="-1.98605">
        <ele>0.1</ele>
        <time>2020-06-04T15:37:51Z</time>
      </trkpt>
      <trkpt lat="47.0165" lon="-1.98597">
        <ele>0.1</ele>
        <time>2020-06-04T15:37:52Z</time>
      </trkpt>
      <trkpt lat="47.01654" lon="-1.9859">
        <ele>0.1</ele>
        <time>2020-06-04T15:37:53Z</time>
      </trkpt>
      <trkpt lat="47.01658" lon="-1.98582">
        <ele>0.1</ele>
        <time>2020-06-04T15:37:54Z</time>
      </trkpt>
      <trkpt lat="47.01661" lon="-1.98575">
        <ele>0.1</ele>
        <time>2020-06-04T15:37:55Z</time>
      </trkpt>
      <trkpt lat="47.01664" lon="-1.98567">
        <ele>0.1</ele>
        <time>2020-06-04T15:37:56Z</time>
      </trkpt>
      <trkpt lat="47.01667" lon="-1.9856">
        <ele>0.1</ele>
        <time>2020-06-04T15:37:57Z</time>
      </trkpt>
      <trkpt lat="47.01671" lon="-1.98554">
        <ele>0.1</ele>
        <time>2020-06-04T15:37:58Z</time>
      </trkpt>
      <trkpt lat="47.01674" lon="-1.98547">
        <ele>0.1</ele>
        <time>2020-06-04T15:37:59Z</time>
      </trkpt>
      <trkpt lat="47.01677" lon="-1.98539">
        <ele>0.1</ele>
        <time>2020-06-04T15:38:00Z</time>
      </trkpt>
      <trkpt lat="47.01681" lon="-1.98532">
        <ele>0.2</ele>
        <time>2020-06-04T15:38:01Z</time>
      </trkpt>
      <trkpt lat="47.01684" lon="-1.98524">
        <ele>0.2</ele>
        <time>2020-06-04T15:38:02Z</time>
      </trkpt>
      <trkpt lat="47.01688" lon="-1.98517">
        <ele>0.2</ele>
        <time>2020-06-04T15:38:03Z</time>
      </trkpt>
      <trkpt lat="47.01691" lon="-1.98511">
        <ele>0.2</ele>
        <time>2020-06-04T15:38:04Z</time>
      </trkpt>
      <trkpt lat="47.01695" lon="-1.98505">
        <ele>0.2</ele>
        <time>2020-06-04T15:38:05Z</time>
      </trkpt>
      <trkpt lat="47.01699" lon="-1.98498">
        <ele>0.2</ele>
        <time>2020-06-04T15:38:06Z</time>
      </trkpt>
      <trkpt lat="47.01704" lon="-1.98489">
        <ele>0.2</ele>
        <time>2020-06-04T15:38:07Z</time>
      </trkpt>
      <trkpt lat="47.01708" lon="-1.98481">
        <ele>0.2</ele>
        <time>2020-06-04T15:38:08Z</time>
      </trkpt>
      <trkpt lat="47.01713" lon="-1.98474">
        <ele>0.2</ele>
        <time>2020-06-04T15:38:09Z</time>
      </trkpt>
      <trkpt lat="47.01716" lon="-1.98467">
        <ele>0.2</ele>
        <time>2020-06-04T15:38:10Z</time>
      </trkpt>
      <trkpt lat="47.01719" lon="-1.9846">
        <ele>0.2</ele>
        <time>2020-06-04T15:38:11Z</time>
      </trkpt>
      <trkpt lat="47.01724" lon="-1.98452">
        <ele>0.2</ele>
        <time>2020-06-04T15:38:12Z</time>
      </trkpt>
      <trkpt lat="47.01728" lon="-1.98445">
        <ele>0.2</ele>
        <time>2020-06-04T15:38:13Z</time>
      </trkpt>
      <trkpt lat="47.01732" lon="-1.98438">
        <ele>0.2</ele>
        <time>2020-06-04T15:38:14Z</time>
      </trkpt>
      <trkpt lat="47.01736" lon="-1.98431">
        <ele>0.1</ele>
        <time>2020-06-04T15:38:15Z</time>
      </trkpt>
      <trkpt lat="47.0174" lon="-1.98423">
        <ele>0.1</ele>
        <time>2020-06-04T15:38:16Z</time>
      </trkpt>
      <trkpt lat="47.01744" lon="-1.98416">
        <ele>0.1</ele>
        <time>2020-06-04T15:38:17Z</time>
      </trkpt>
      <trkpt lat="47.01748" lon="-1.98408">
        <ele>0.1</ele>
        <time>2020-06-04T15:38:18Z</time>
      </trkpt>
      <trkpt lat="47.01752" lon="-1.98401">
        <ele>0.1</ele>
        <time>2020-06-04T15:38:19Z</time>
      </trkpt>
      <trkpt lat="47.01756" lon="-1.98393">
        <ele>0.1</ele>
        <time>2020-06-04T15:38:20Z</time>
      </trkpt>
      <trkpt lat="47.0176" lon="-1.98385">
        <ele>0.1</ele>
        <time>2020-06-04T15:38:21Z</time>
      </trkpt>
      <trkpt lat="47.01764" lon="-1.98378">
        <ele>0.1</ele>
        <time>2020-06-04T15:38:22Z</time>
      </trkpt>
      <trkpt lat="47.01768" lon="-1.9837">
        <ele>0.1</ele>
        <time>2020-06-04T15:38:23Z</time>
      </trkpt>
      <trkpt lat="47.01772" lon="-1.98363">
        <ele>0.1</ele>
        <time>2020-06-04T15:38:24Z</time>
      </trkpt>
      <trkpt lat="47.01776" lon="-1.98355">
        <ele>0.1</ele>
        <time>2020-06-04T15:38:25Z</time>
      </trkpt>
      <trkpt lat="47.0178" lon="-1.98347">
        <ele>0.1</ele>
        <time>2020-06-04T15:38:26Z</time>
      </trkpt>
      <trkpt lat="47.01784" lon="-1.98339">
        <ele>0.1</ele>
        <time>2020-06-04T15:38:27Z</time>
      </trkpt>
      <trkpt lat="47.01788" lon="-1.98331">
        <ele>0.1</ele>
        <time>2020-06-04T15:38:28Z</time>
      </trkpt>
      <trkpt lat="47.01793" lon="-1.98323">
        <ele>0.1</ele>
        <time>2020-06-04T15:38:29Z</time>
      </trkpt>
      <trkpt lat="47.01797" lon="-1.98316">
        <ele>0.1</ele>
        <time>2020-06-04T15:38:30Z</time>
      </trkpt>
      <trkpt lat="47.018" lon="-1.98308">
        <ele>0.1</ele>
        <time>2020-06-04T15:38:31Z</time>
      </trkpt>
      <trkpt lat="47.01804" lon="-1.983">
        <ele>0.1</ele>
        <time>2020-06-04T15:38:32Z</time>
      </trkpt>
      <trkpt lat="47.01808" lon="-1.98292">
        <ele>0.1</ele>
        <time>2020-06-04T15:38:33Z</time>
      </trkpt>
      <trkpt lat="47.01812" lon="-1.98284">
        <ele>0.1</ele>
        <time>2020-06-04T15:38:34Z</time>
      </trkpt>
      <trkpt lat="47.01816" lon="-1.98276">
        <ele>0.1</ele>
        <time>2020-06-04T15:38:35Z</time>
      </trkpt>
      <trkpt lat="47.0182" lon="-1.98269">
        <ele>0.1</ele>
        <time>2020-06-04T15:38:36Z</time>
      </trkpt>
      <trkpt lat="47.01824" lon="-1.98261">
        <ele>0.1</ele>
        <time>2020-06-04T15:38:37Z</time>
      </trkpt>
      <trkpt lat="47.01828" lon="-1.98254">
        <ele>0.2</ele>
        <time>2020-06-04T15:38:38Z</time>
      </trkpt>
      <trkpt lat="47.01832" lon="-1.98247">
        <ele>0.2</ele>
        <time>2020-06-04T15:38:39Z</time>
      </trkpt>
      <trkpt lat="47.01836" lon="-1.98239">
        <ele>0.2</ele>
        <time>2020-06-04T15:38:40Z</time>
      </trkpt>
      <trkpt lat="47.0184" lon="-1.98232">
        <ele>0.2</ele>
        <time>2020-06-04T15:38:41Z</time>
      </trkpt>
      <trkpt lat="47.01844" lon="-1.98224">
        <ele>0.1</ele>
        <time>2020-06-04T15:38:42Z</time>
      </trkpt>
      <trkpt lat="47.01847" lon="-1.98217">
        <ele>0.1</ele>
        <time>2020-06-04T15:38:43Z</time>
      </trkpt>
      <trkpt lat="47.01852" lon="-1.9821">
        <ele>0.1</ele>
        <time>2020-06-04T15:38:44Z</time>
      </trkpt>
      <trkpt lat="47.01855" lon="-1.98202">
        <ele>0.1</ele>
        <time>2020-06-04T15:38:45Z</time>
      </trkpt>
      <trkpt lat="47.01859" lon="-1.98194">
        <ele>0.1</ele>
        <time>2020-06-04T15:38:46Z</time>
      </trkpt>
      <trkpt lat="47.01863" lon="-1.98187">
        <ele>0.1</ele>
        <time>2020-06-04T15:38:47Z</time>
      </trkpt>
      <trkpt lat="47.01867" lon="-1.98179">
        <ele>0.1</ele>
        <time>2020-06-04T15:38:48Z</time>
      </trkpt>
      <trkpt lat="47.01871" lon="-1.98172">
        <ele>0.1</ele>
        <time>2020-06-04T15:38:49Z</time>
      </trkpt>
      <trkpt lat="47.01875" lon="-1.98164">
        <ele>0.1</ele>
        <time>2020-06-04T15:38:50Z</time>
      </trkpt>
      <trkpt lat="47.01879" lon="-1.98157">
        <ele>0.1</ele>
        <time>2020-06-04T15:38:51Z</time>
      </trkpt>
      <trkpt lat="47.01883" lon="-1.98151">
        <ele>0.2</ele>
        <time>2020-06-04T15:38:52Z</time>
      </trkpt>
      <trkpt lat="47.01887" lon="-1.98143">
        <ele>0.2</ele>
        <time>2020-06-04T15:38:53Z</time>
      </trkpt>
      <trkpt lat="47.01891" lon="-1.98136">
        <ele>0.2</ele>
        <time>2020-06-04T15:38:54Z</time>
      </trkpt>
      <trkpt lat="47.01894" lon="-1.98128">
        <ele>0.2</ele>
        <time>2020-06-04T15:38:55Z</time>
      </trkpt>
      <trkpt lat="47.01899" lon="-1.98121">
        <ele>0.3</ele>
        <time>2020-06-04T15:38:56Z</time>
      </trkpt>
      <trkpt lat="47.01902" lon="-1.98114">
        <ele>0.3</ele>
        <time>2020-06-04T15:38:57Z</time>
      </trkpt>
      <trkpt lat="47.01906" lon="-1.98106">
        <ele>0.3</ele>
        <time>2020-06-04T15:38:58Z</time>
      </trkpt>
      <trkpt lat="47.0191" lon="-1.98099">
        <ele>0.3</ele>
        <time>2020-06-04T15:38:59Z</time>
      </trkpt>
      <trkpt lat="47.01914" lon="-1.98092">
        <ele>0.3</ele>
        <time>2020-06-04T15:39:00Z</time>
      </trkpt>
      <trkpt lat="47.01918" lon="-1.98085">
        <ele>0.3</ele>
        <time>2020-06-04T15:39:01Z</time>
      </trkpt>
      <trkpt lat="47.01922" lon="-1.98078">
        <ele>0.3</ele>
        <time>2020-06-04T15:39:02Z</time>
      </trkpt>
      <trkpt lat="47.01926" lon="-1.9807">
        <ele>0.3</ele>
        <time>2020-06-04T15:39:03Z</time>
      </trkpt>
      <trkpt lat="47.01929" lon="-1.98062">
        <ele>0.3</ele>
        <time>2020-06-04T15:39:04Z</time>
      </trkpt>
      <trkpt lat="47.01933" lon="-1.98055">
        <ele>0.3</ele>
        <time>2020-06-04T15:39:05Z</time>
      </trkpt>
      <trkpt lat="47.01937" lon="-1.98048">
        <ele>0.3</ele>
        <time>2020-06-04T15:39:06Z</time>
      </trkpt>
      <trkpt lat="47.0194" lon="-1.9804">
        <ele>0.4</ele>
        <time>2020-06-04T15:39:07Z</time>
      </trkpt>
      <trkpt lat="47.01944" lon="-1.98033">
        <ele>0.4</ele>
        <time>2020-06-04T15:39:08Z</time>
      </trkpt>
      <trkpt lat="47.01948" lon="-1.98026">
        <ele>0.4</ele>
        <time>2020-06-04T15:39:09Z</time>
      </trkpt>
      <trkpt lat="47.01952" lon="-1.98018">
        <ele>0.4</ele>
        <time>2020-06-04T15:39:10Z</time>
      </trkpt>
      <trkpt lat="47.01956" lon="-1.98011">
        <ele>0.4</ele>
        <time>2020-06-04T15:39:11Z</time>
      </trkpt>
      <trkpt lat="47.0196" lon="-1.98004">
        <ele>0.4</ele>
        <time>2020-06-04T15:39:12Z</time>
      </trkpt>
      <trkpt lat="47.01964" lon="-1.97997">
        <ele>0.4</ele>
        <time>2020-06-04T15:39:13Z</time>
      </trkpt>
      <trkpt lat="47.01967" lon="-1.97989">
        <ele>0.4</ele>
        <time>2020-06-04T15:39:14Z</time>
      </trkpt>
      <trkpt lat="47.01971" lon="-1.97982">
        <ele>0.4</ele>
        <time>2020-06-04T15:39:15Z</time>
      </trkpt>
      <trkpt lat="47.01975" lon="-1.97975">
        <ele>0.4</ele>
        <time>2020-06-04T15:39:16Z</time>
      </trkpt>
      <trkpt lat="47.01978" lon="-1.97968">
        <ele>0.4</ele>
        <time>2020-06-04T15:39:17Z</time>
      </trkpt>
      <trkpt lat="47.01982" lon="-1.97961">
        <ele>0.4</ele>
        <time>2020-06-04T15:39:18Z</time>
      </trkpt>
      <trkpt lat="47.01985" lon="-1.97955">
        <ele>0.4</ele>
        <time>2020-06-04T15:39:19Z</time>
      </trkpt>
      <trkpt lat="47.01989" lon="-1.97946">
        <ele>0.4</ele>
        <time>2020-06-04T15:39:20Z</time>
      </trkpt>
      <trkpt lat="47.01994" lon="-1.97939">
        <ele>0.4</ele>
        <time>2020-06-04T15:39:21Z</time>
      </trkpt>
      <trkpt lat="47.01996" lon="-1.97932">
        <ele>0.4</ele>
        <time>2020-06-04T15:39:22Z</time>
      </trkpt>
      <trkpt lat="47.02" lon="-1.97926">
        <ele>0.4</ele>
        <time>2020-06-04T15:39:23Z</time>
      </trkpt>
      <trkpt lat="47.02003" lon="-1.9792">
        <ele>0.4</ele>
        <time>2020-06-04T15:39:24Z</time>
      </trkpt>
      <trkpt lat="47.02007" lon="-1.97914">
        <ele>0.5</ele>
        <time>2020-06-04T15:39:25Z</time>
      </trkpt>
      <trkpt lat="47.02012" lon="-1.97907">
        <ele>0.5</ele>
        <time>2020-06-04T15:39:26Z</time>
      </trkpt>
      <trkpt lat="47.02015" lon="-1.97899">
        <ele>0.5</ele>
        <time>2020-06-04T15:39:27Z</time>
      </trkpt>
      <trkpt lat="47.02019" lon="-1.97893">
        <ele>0.4</ele>
        <time>2020-06-04T15:39:28Z</time>
      </trkpt>
      <trkpt lat="47.02023" lon="-1.97886">
        <ele>0.4</ele>
        <time>2020-06-04T15:39:29Z</time>
      </trkpt>
      <trkpt lat="47.02026" lon="-1.97879">
        <ele>0.4</ele>
        <time>2020-06-04T15:39:30Z</time>
      </trkpt>
      <trkpt lat="47.0203" lon="-1.97872">
        <ele>0.4</ele>
        <time>2020-06-04T15:39:31Z</time>
      </trkpt>
      <trkpt lat="47.02034" lon="-1.97865">
        <ele>0.4</ele>
        <time>2020-06-04T15:39:32Z</time>
      </trkpt>
      <trkpt lat="47.02037" lon="-1.97857">
        <ele>0.4</ele>
        <time>2020-06-04T15:39:33Z</time>
      </trkpt>
      <trkpt lat="47.02041" lon="-1.9785">
        <ele>0.4</ele>
        <time>2020-06-04T15:39:34Z</time>
      </trkpt>
      <trkpt lat="47.02044" lon="-1.97844">
        <ele>0.4</ele>
        <time>2020-06-04T15:39:35Z</time>
      </trkpt>
      <trkpt lat="47.02048" lon="-1.97837">
        <ele>0.5</ele>
        <time>2020-06-04T15:39:36Z</time>
      </trkpt>
      <trkpt lat="47.02051" lon="-1.9783">
        <ele>0.5</ele>
        <time>2020-06-04T15:39:37Z</time>
      </trkpt>
      <trkpt lat="47.02055" lon="-1.97824">
        <ele>0.5</ele>
        <time>2020-06-04T15:39:38Z</time>
      </trkpt>
      <trkpt lat="47.02058" lon="-1.97817">
        <ele>0.5</ele>
        <time>2020-06-04T15:39:39Z</time>
      </trkpt>
      <trkpt lat="47.02062" lon="-1.97811">
        <ele>0.6</ele>
        <time>2020-06-04T15:39:40Z</time>
      </trkpt>
      <trkpt lat="47.02065" lon="-1.97805">
        <ele>0.6</ele>
        <time>2020-06-04T15:39:41Z</time>
      </trkpt>
      <trkpt lat="47.02069" lon="-1.97799">
        <ele>0.6</ele>
        <time>2020-06-04T15:39:42Z</time>
      </trkpt>
      <trkpt lat="47.02073" lon="-1.97791">
        <ele>0.6</ele>
        <time>2020-06-04T15:39:43Z</time>
      </trkpt>
      <trkpt lat="47.02078" lon="-1.97782">
        <ele>0.6</ele>
        <time>2020-06-04T15:39:44Z</time>
      </trkpt>
      <trkpt lat="47.02082" lon="-1.97775">
        <ele>0.6</ele>
        <time>2020-06-04T15:39:45Z</time>
      </trkpt>
      <trkpt lat="47.02085" lon="-1.97767">
        <ele>0.6</ele>
        <time>2020-06-04T15:39:46Z</time>
      </trkpt>
      <trkpt lat="47.02089" lon="-1.9776">
        <ele>0.6</ele>
        <time>2020-06-04T15:39:47Z</time>
      </trkpt>
      <trkpt lat="47.02093" lon="-1.97752">
        <ele>0.6</ele>
        <time>2020-06-04T15:39:48Z</time>
      </trkpt>
      <trkpt lat="47.02096" lon="-1.97745">
        <ele>0.6</ele>
        <time>2020-06-04T15:39:49Z</time>
      </trkpt>
      <trkpt lat="47.021" lon="-1.97738">
        <ele>0.6</ele>
        <time>2020-06-04T15:39:50Z</time>
      </trkpt>
      <trkpt lat="47.02103" lon="-1.97732">
        <ele>0.6</ele>
        <time>2020-06-04T15:39:51Z</time>
      </trkpt>
      <trkpt lat="47.02107" lon="-1.97725">
        <ele>0.6</ele>
        <time>2020-06-04T15:39:52Z</time>
      </trkpt>
      <trkpt lat="47.02111" lon="-1.97719">
        <ele>0.6</ele>
        <time>2020-06-04T15:39:53Z</time>
      </trkpt>
      <trkpt lat="47.02115" lon="-1.97712">
        <ele>0.6</ele>
        <time>2020-06-04T15:39:54Z</time>
      </trkpt>
      <trkpt lat="47.02118" lon="-1.97705">
        <ele>0.6</ele>
        <time>2020-06-04T15:39:55Z</time>
      </trkpt>
      <trkpt lat="47.02122" lon="-1.97698">
        <ele>0.6</ele>
        <time>2020-06-04T15:39:56Z</time>
      </trkpt>
      <trkpt lat="47.02126" lon="-1.97691">
        <ele>0.6</ele>
        <time>2020-06-04T15:39:57Z</time>
      </trkpt>
      <trkpt lat="47.02129" lon="-1.97684">
        <ele>0.6</ele>
        <time>2020-06-04T15:39:58Z</time>
      </trkpt>
      <trkpt lat="47.02132" lon="-1.97677">
        <ele>0.6</ele>
        <time>2020-06-04T15:39:59Z</time>
      </trkpt>
      <trkpt lat="47.02136" lon="-1.9767">
        <ele>0.6</ele>
        <time>2020-06-04T15:40:00Z</time>
      </trkpt>
      <trkpt lat="47.02139" lon="-1.97663">
        <ele>0.6</ele>
        <time>2020-06-04T15:40:01Z</time>
      </trkpt>
      <trkpt lat="47.02143" lon="-1.97655">
        <ele>0.6</ele>
        <time>2020-06-04T15:40:02Z</time>
      </trkpt>
      <trkpt lat="47.02145" lon="-1.97648">
        <ele>0.6</ele>
        <time>2020-06-04T15:40:03Z</time>
      </trkpt>
      <trkpt lat="47.02149" lon="-1.97643">
        <ele>0.6</ele>
        <time>2020-06-04T15:40:04Z</time>
      </trkpt>
      <trkpt lat="47.02152" lon="-1.97637">
        <ele>0.6</ele>
        <time>2020-06-04T15:40:05Z</time>
      </trkpt>
      <trkpt lat="47.02155" lon="-1.9763">
        <ele>0.6</ele>
        <time>2020-06-04T15:40:06Z</time>
      </trkpt>
      <trkpt lat="47.02158" lon="-1.97624">
        <ele>0.6</ele>
        <time>2020-06-04T15:40:07Z</time>
      </trkpt>
      <trkpt lat="47.02162" lon="-1.97618">
        <ele>0.6</ele>
        <time>2020-06-04T15:40:08Z</time>
      </trkpt>
      <trkpt lat="47.02167" lon="-1.97613">
        <ele>0.6</ele>
        <time>2020-06-04T15:40:09Z</time>
      </trkpt>
      <trkpt lat="47.02171" lon="-1.97609">
        <ele>0.6</ele>
        <time>2020-06-04T15:40:10Z</time>
      </trkpt>
      <trkpt lat="47.02175" lon="-1.97606">
        <ele>0.6</ele>
        <time>2020-06-04T15:40:11Z</time>
      </trkpt>
      <trkpt lat="47.0218" lon="-1.97603">
        <ele>0.6</ele>
        <time>2020-06-04T15:40:12Z</time>
      </trkpt>
      <trkpt lat="47.02184" lon="-1.97602">
        <ele>0.6</ele>
        <time>2020-06-04T15:40:13Z</time>
      </trkpt>
      <trkpt lat="47.02189" lon="-1.97601">
        <ele>0.6</ele>
        <time>2020-06-04T15:40:14Z</time>
      </trkpt>
      <trkpt lat="47.02194" lon="-1.976">
        <ele>0.6</ele>
        <time>2020-06-04T15:40:15Z</time>
      </trkpt>
      <trkpt lat="47.02198" lon="-1.976">
        <ele>0.6</ele>
        <time>2020-06-04T15:40:16Z</time>
      </trkpt>
      <trkpt lat="47.02202" lon="-1.976">
        <ele>0.6</ele>
        <time>2020-06-04T15:40:17Z</time>
      </trkpt>
      <trkpt lat="47.02207" lon="-1.97598">
        <ele>0.6</ele>
        <time>2020-06-04T15:40:18Z</time>
      </trkpt>
      <trkpt lat="47.02212" lon="-1.97598">
        <ele>0.6</ele>
        <time>2020-06-04T15:40:19Z</time>
      </trkpt>
      <trkpt lat="47.02217" lon="-1.97598">
        <ele>0.6</ele>
        <time>2020-06-04T15:40:20Z</time>
      </trkpt>
      <trkpt lat="47.02222" lon="-1.97598">
        <ele>0.6</ele>
        <time>2020-06-04T15:40:21Z</time>
      </trkpt>
      <trkpt lat="47.02227" lon="-1.97598">
        <ele>0.6</ele>
        <time>2020-06-04T15:40:22Z</time>
      </trkpt>
      <trkpt lat="47.02231" lon="-1.97598">
        <ele>0.6</ele>
        <time>2020-06-04T15:40:23Z</time>
      </trkpt>
      <trkpt lat="47.02238" lon="-1.97597">
        <ele>0.6</ele>
        <time>2020-06-04T15:40:24Z</time>
      </trkpt>
      <trkpt lat="47.02244" lon="-1.97598">
        <ele>0.6</ele>
        <time>2020-06-04T15:40:25Z</time>
      </trkpt>
      <trkpt lat="47.0225" lon="-1.97599">
        <ele>0.6</ele>
        <time>2020-06-04T15:40:26Z</time>
      </trkpt>
      <trkpt lat="47.02256" lon="-1.97599">
        <ele>0.6</ele>
        <time>2020-06-04T15:40:27Z</time>
      </trkpt>
      <trkpt lat="47.02262" lon="-1.976">
        <ele>0.6</ele>
        <time>2020-06-04T15:40:28Z</time>
      </trkpt>
      <trkpt lat="47.02267" lon="-1.97599">
        <ele>0.6</ele>
        <time>2020-06-04T15:40:29Z</time>
      </trkpt>
      <trkpt lat="47.02272" lon="-1.97599">
        <ele>0.6</ele>
        <time>2020-06-04T15:40:30Z</time>
      </trkpt>
      <trkpt lat="47.02278" lon="-1.97598">
        <ele>0.6</ele>
        <time>2020-06-04T15:40:31Z</time>
      </trkpt>
      <trkpt lat="47.02283" lon="-1.97598">
        <ele>0.6</ele>
        <time>2020-06-04T15:40:32Z</time>
      </trkpt>
      <trkpt lat="47.02288" lon="-1.97598">
        <ele>0.6</ele>
        <time>2020-06-04T15:40:33Z</time>
      </trkpt>
      <trkpt lat="47.02293" lon="-1.97597">
        <ele>0.6</ele>
        <time>2020-06-04T15:40:34Z</time>
      </trkpt>
      <trkpt lat="47.02299" lon="-1.97596">
        <ele>0.6</ele>
        <time>2020-06-04T15:40:35Z</time>
      </trkpt>
      <trkpt lat="47.02305" lon="-1.97596">
        <ele>0.6</ele>
        <time>2020-06-04T15:40:36Z</time>
      </trkpt>
      <trkpt lat="47.0231" lon="-1.97596">
        <ele>0.6</ele>
        <time>2020-06-04T15:40:37Z</time>
      </trkpt>
      <trkpt lat="47.02314" lon="-1.97596">
        <ele>0.6</ele>
        <time>2020-06-04T15:40:38Z</time>
      </trkpt>
      <trkpt lat="47.02319" lon="-1.97596">
        <ele>0.6</ele>
        <time>2020-06-04T15:40:39Z</time>
      </trkpt>
      <trkpt lat="47.02324" lon="-1.97595">
        <ele>0.6</ele>
        <time>2020-06-04T15:40:40Z</time>
      </trkpt>
      <trkpt lat="47.02328" lon="-1.97595">
        <ele>0.6</ele>
        <time>2020-06-04T15:40:41Z</time>
      </trkpt>
      <trkpt lat="47.02332" lon="-1.97594">
        <ele>0.6</ele>
        <time>2020-06-04T15:40:42Z</time>
      </trkpt>
      <trkpt lat="47.02339" lon="-1.97592">
        <ele>0.6</ele>
        <time>2020-06-04T15:40:43Z</time>
      </trkpt>
      <trkpt lat="47.02343" lon="-1.97592">
        <ele>0.6</ele>
        <time>2020-06-04T15:40:44Z</time>
      </trkpt>
      <trkpt lat="47.02348" lon="-1.97592">
        <ele>0.6</ele>
        <time>2020-06-04T15:40:45Z</time>
      </trkpt>
      <trkpt lat="47.02352" lon="-1.9759">
        <ele>0.6</ele>
        <time>2020-06-04T15:40:46Z</time>
      </trkpt>
      <trkpt lat="47.02358" lon="-1.9759">
        <ele>0.6</ele>
        <time>2020-06-04T15:40:47Z</time>
      </trkpt>
      <trkpt lat="47.02363" lon="-1.9759">
        <ele>0.6</ele>
        <time>2020-06-04T15:40:48Z</time>
      </trkpt>
      <trkpt lat="47.02371" lon="-1.97588">
        <ele>0.6</ele>
        <time>2020-06-04T15:40:49Z</time>
      </trkpt>
      <trkpt lat="47.02378" lon="-1.97589">
        <ele>0.6</ele>
        <time>2020-06-04T15:40:50Z</time>
      </trkpt>
      <trkpt lat="47.02384" lon="-1.97589">
        <ele>0.6</ele>
        <time>2020-06-04T15:40:51Z</time>
      </trkpt>
      <trkpt lat="47.02388" lon="-1.97588">
        <ele>0.6</ele>
        <time>2020-06-04T15:40:52Z</time>
      </trkpt>
      <trkpt lat="47.02394" lon="-1.97588">
        <ele>0.6</ele>
        <time>2020-06-04T15:40:53Z</time>
      </trkpt>
      <trkpt lat="47.02399" lon="-1.97588">
        <ele>0.6</ele>
        <time>2020-06-04T15:40:54Z</time>
      </trkpt>
      <trkpt lat="47.02404" lon="-1.97588">
        <ele>0.6</ele>
        <time>2020-06-04T15:40:55Z</time>
      </trkpt>
      <trkpt lat="47.02409" lon="-1.97588">
        <ele>0.6</ele>
        <time>2020-06-04T15:40:56Z</time>
      </trkpt>
      <trkpt lat="47.02414" lon="-1.97587">
        <ele>0.6</ele>
        <time>2020-06-04T15:40:57Z</time>
      </trkpt>
      <trkpt lat="47.0242" lon="-1.97586">
        <ele>0.6</ele>
        <time>2020-06-04T15:40:58Z</time>
      </trkpt>
      <trkpt lat="47.02425" lon="-1.97586">
        <ele>0.6</ele>
        <time>2020-06-04T15:40:59Z</time>
      </trkpt>
      <trkpt lat="47.0243" lon="-1.97586">
        <ele>0.5</ele>
        <time>2020-06-04T15:41:00Z</time>
      </trkpt>
      <trkpt lat="47.02435" lon="-1.97586">
        <ele>0.5</ele>
        <time>2020-06-04T15:41:01Z</time>
      </trkpt>
      <trkpt lat="47.02441" lon="-1.97586">
        <ele>0.5</ele>
        <time>2020-06-04T15:41:02Z</time>
      </trkpt>
      <trkpt lat="47.02447" lon="-1.97585">
        <ele>0.5</ele>
        <time>2020-06-04T15:41:03Z</time>
      </trkpt>
      <trkpt lat="47.02452" lon="-1.97585">
        <ele>0.5</ele>
        <time>2020-06-04T15:41:04Z</time>
      </trkpt>
      <trkpt lat="47.02457" lon="-1.97584">
        <ele>0.5</ele>
        <time>2020-06-04T15:41:05Z</time>
      </trkpt>
      <trkpt lat="47.02463" lon="-1.97584">
        <ele>0.5</ele>
        <time>2020-06-04T15:41:06Z</time>
      </trkpt>
      <trkpt lat="47.02468" lon="-1.97584">
        <ele>0.5</ele>
        <time>2020-06-04T15:41:07Z</time>
      </trkpt>
      <trkpt lat="47.02473" lon="-1.97584">
        <ele>0.5</ele>
        <time>2020-06-04T15:41:08Z</time>
      </trkpt>
      <trkpt lat="47.02479" lon="-1.97583">
        <ele>0.5</ele>
        <time>2020-06-04T15:41:09Z</time>
      </trkpt>
      <trkpt lat="47.02485" lon="-1.97582">
        <ele>0.5</ele>
        <time>2020-06-04T15:41:10Z</time>
      </trkpt>
      <trkpt lat="47.02491" lon="-1.97582">
        <ele>0.5</ele>
        <time>2020-06-04T15:41:11Z</time>
      </trkpt>
      <trkpt lat="47.02496" lon="-1.97581">
        <ele>0.5</ele>
        <time>2020-06-04T15:41:12Z</time>
      </trkpt>
      <trkpt lat="47.02502" lon="-1.97581">
        <ele>0.5</ele>
        <time>2020-06-04T15:41:13Z</time>
      </trkpt>
      <trkpt lat="47.02507" lon="-1.9758">
        <ele>0.5</ele>
        <time>2020-06-04T15:41:14Z</time>
      </trkpt>
      <trkpt lat="47.02513" lon="-1.9758">
        <ele>0.5</ele>
        <time>2020-06-04T15:41:15Z</time>
      </trkpt>
      <trkpt lat="47.02518" lon="-1.97579">
        <ele>0.5</ele>
        <time>2020-06-04T15:41:16Z</time>
      </trkpt>
      <trkpt lat="47.02523" lon="-1.97579">
        <ele>0.5</ele>
        <time>2020-06-04T15:41:17Z</time>
      </trkpt>
      <trkpt lat="47.02529" lon="-1.97578">
        <ele>0.5</ele>
        <time>2020-06-04T15:41:18Z</time>
      </trkpt>
      <trkpt lat="47.02535" lon="-1.97576">
        <ele>0.5</ele>
        <time>2020-06-04T15:41:19Z</time>
      </trkpt>
      <trkpt lat="47.0254" lon="-1.97576">
        <ele>0.5</ele>
        <time>2020-06-04T15:41:20Z</time>
      </trkpt>
      <trkpt lat="47.02546" lon="-1.97575">
        <ele>0.5</ele>
        <time>2020-06-04T15:41:21Z</time>
      </trkpt>
      <trkpt lat="47.02552" lon="-1.97576">
        <ele>0.5</ele>
        <time>2020-06-04T15:41:22Z</time>
      </trkpt>
      <trkpt lat="47.02558" lon="-1.97576">
        <ele>0.5</ele>
        <time>2020-06-04T15:41:23Z</time>
      </trkpt>
      <trkpt lat="47.02563" lon="-1.97576">
        <ele>0.5</ele>
        <time>2020-06-04T15:41:24Z</time>
      </trkpt>
      <trkpt lat="47.02568" lon="-1.97577">
        <ele>0.5</ele>
        <time>2020-06-04T15:41:25Z</time>
      </trkpt>
      <trkpt lat="47.02573" lon="-1.97576">
        <ele>0.5</ele>
        <time>2020-06-04T15:41:26Z</time>
      </trkpt>
      <trkpt lat="47.02579" lon="-1.97575">
        <ele>0.6</ele>
        <time>2020-06-04T15:41:27Z</time>
      </trkpt>
      <trkpt lat="47.02585" lon="-1.97575">
        <ele>0.6</ele>
        <time>2020-06-04T15:41:28Z</time>
      </trkpt>
      <trkpt lat="47.0259" lon="-1.97574">
        <ele>0.6</ele>
        <time>2020-06-04T15:41:29Z</time>
      </trkpt>
      <trkpt lat="47.02596" lon="-1.97574">
        <ele>0.6</ele>
        <time>2020-06-04T15:41:30Z</time>
      </trkpt>
      <trkpt lat="47.02602" lon="-1.97573">
        <ele>0.7</ele>
        <time>2020-06-04T15:41:31Z</time>
      </trkpt>
      <trkpt lat="47.02607" lon="-1.97573">
        <ele>0.7</ele>
        <time>2020-06-04T15:41:32Z</time>
      </trkpt>
      <trkpt lat="47.02613" lon="-1.97574">
        <ele>0.7</ele>
        <time>2020-06-04T15:41:33Z</time>
      </trkpt>
      <trkpt lat="47.02618" lon="-1.97573">
        <ele>0.8</ele>
        <time>2020-06-04T15:41:34Z</time>
      </trkpt>
      <trkpt lat="47.02623" lon="-1.97573">
        <ele>0.8</ele>
        <time>2020-06-04T15:41:35Z</time>
      </trkpt>
      <trkpt lat="47.02628" lon="-1.97573">
        <ele>0.9</ele>
        <time>2020-06-04T15:41:36Z</time>
      </trkpt>
      <trkpt lat="47.02635" lon="-1.97572">
        <ele>0.9</ele>
        <time>2020-06-04T15:41:37Z</time>
      </trkpt>
      <trkpt lat="47.02641" lon="-1.97572">
        <ele>1.1</ele>
        <time>2020-06-04T15:41:38Z</time>
      </trkpt>
      <trkpt lat="47.02646" lon="-1.97571">
        <ele>1.2</ele>
        <time>2020-06-04T15:41:39Z</time>
      </trkpt>
      <trkpt lat="47.0265" lon="-1.97571">
        <ele>1.3</ele>
        <time>2020-06-04T15:41:40Z</time>
      </trkpt>
      <trkpt lat="47.02655" lon="-1.9757">
        <ele>1.4</ele>
        <time>2020-06-04T15:41:41Z</time>
      </trkpt>
      <trkpt lat="47.0266" lon="-1.97569">
        <ele>1.4</ele>
        <time>2020-06-04T15:41:42Z</time>
      </trkpt>
      <trkpt lat="47.02665" lon="-1.97569">
        <ele>1.5</ele>
        <time>2020-06-04T15:41:43Z</time>
      </trkpt>
      <trkpt lat="47.0267" lon="-1.97568">
        <ele>1.5</ele>
        <time>2020-06-04T15:41:44Z</time>
      </trkpt>
      <trkpt lat="47.02675" lon="-1.97567">
        <ele>1.6</ele>
        <time>2020-06-04T15:41:45Z</time>
      </trkpt>
      <trkpt lat="47.02679" lon="-1.97567">
        <ele>1.6</ele>
        <time>2020-06-04T15:41:46Z</time>
      </trkpt>
      <trkpt lat="47.02685" lon="-1.97566">
        <ele>1.6</ele>
        <time>2020-06-04T15:41:47Z</time>
      </trkpt>
      <trkpt lat="47.0269" lon="-1.97562">
        <ele>1.6</ele>
        <time>2020-06-04T15:41:48Z</time>
      </trkpt>
      <trkpt lat="47.02694" lon="-1.97557">
        <ele>1.7</ele>
        <time>2020-06-04T15:41:49Z</time>
      </trkpt>
      <trkpt lat="47.02698" lon="-1.97548">
        <ele>1.7</ele>
        <time>2020-06-04T15:41:50Z</time>
      </trkpt>
      <trkpt lat="47.02701" lon="-1.9754">
        <ele>1.7</ele>
        <time>2020-06-04T15:41:51Z</time>
      </trkpt>
      <trkpt lat="47.02704" lon="-1.97533">
        <ele>1.7</ele>
        <time>2020-06-04T15:41:52Z</time>
      </trkpt>
      <trkpt lat="47.02706" lon="-1.97525">
        <ele>1.7</ele>
        <time>2020-06-04T15:41:53Z</time>
      </trkpt>
      <trkpt lat="47.02709" lon="-1.97517">
        <ele>1.7</ele>
        <time>2020-06-04T15:41:54Z</time>
      </trkpt>
      <trkpt lat="47.02711" lon="-1.97508">
        <ele>1.6</ele>
        <time>2020-06-04T15:41:55Z</time>
      </trkpt>
      <trkpt lat="47.02713" lon="-1.975">
        <ele>1.6</ele>
        <time>2020-06-04T15:41:56Z</time>
      </trkpt>
      <trkpt lat="47.02712" lon="-1.97492">
        <ele>1.6</ele>
        <time>2020-06-04T15:41:57Z</time>
      </trkpt>
      <trkpt lat="47.02713" lon="-1.97484">
        <ele>1.6</ele>
        <time>2020-06-04T15:41:58Z</time>
      </trkpt>
      <trkpt lat="47.02712" lon="-1.97476">
        <ele>1.6</ele>
        <time>2020-06-04T15:41:59Z</time>
      </trkpt>
      <trkpt lat="47.02712" lon="-1.97469">
        <ele>1.6</ele>
        <time>2020-06-04T15:42:00Z</time>
      </trkpt>
      <trkpt lat="47.02712" lon="-1.97462">
        <ele>1.6</ele>
        <time>2020-06-04T15:42:01Z</time>
      </trkpt>
      <trkpt lat="47.02713" lon="-1.97454">
        <ele>1.7</ele>
        <time>2020-06-04T15:42:02Z</time>
      </trkpt>
      <trkpt lat="47.02713" lon="-1.97447">
        <ele>1.7</ele>
        <time>2020-06-04T15:42:03Z</time>
      </trkpt>
      <trkpt lat="47.02713" lon="-1.97439">
        <ele>1.8</ele>
        <time>2020-06-04T15:42:04Z</time>
      </trkpt>
      <trkpt lat="47.02714" lon="-1.97433">
        <ele>1.8</ele>
        <time>2020-06-04T15:42:05Z</time>
      </trkpt>
      <trkpt lat="47.02714" lon="-1.97425">
        <ele>1.9</ele>
        <time>2020-06-04T15:42:06Z</time>
      </trkpt>
      <trkpt lat="47.02714" lon="-1.97418">
        <ele>2</ele>
        <time>2020-06-04T15:42:07Z</time>
      </trkpt>
      <trkpt lat="47.02714" lon="-1.97408">
        <ele>2.1</ele>
        <time>2020-06-04T15:42:08Z</time>
      </trkpt>
      <trkpt lat="47.02714" lon="-1.97398">
        <ele>2.2</ele>
        <time>2020-06-04T15:42:09Z</time>
      </trkpt>
      <trkpt lat="47.02714" lon="-1.97391">
        <ele>2.2</ele>
        <time>2020-06-04T15:42:10Z</time>
      </trkpt>
      <trkpt lat="47.02714" lon="-1.97384">
        <ele>2.3</ele>
        <time>2020-06-04T15:42:11Z</time>
      </trkpt>
      <trkpt lat="47.02715" lon="-1.97375">
        <ele>2.3</ele>
        <time>2020-06-04T15:42:12Z</time>
      </trkpt>
      <trkpt lat="47.02715" lon="-1.97366">
        <ele>2.3</ele>
        <time>2020-06-04T15:42:13Z</time>
      </trkpt>
      <trkpt lat="47.02716" lon="-1.97358">
        <ele>2.3</ele>
        <time>2020-06-04T15:42:14Z</time>
      </trkpt>
      <trkpt lat="47.02716" lon="-1.9735">
        <ele>2.3</ele>
        <time>2020-06-04T15:42:15Z</time>
      </trkpt>
      <trkpt lat="47.02717" lon="-1.97342">
        <ele>2.3</ele>
        <time>2020-06-04T15:42:16Z</time>
      </trkpt>
      <trkpt lat="47.02718" lon="-1.97333">
        <ele>2.3</ele>
        <time>2020-06-04T15:42:17Z</time>
      </trkpt>
      <trkpt lat="47.02718" lon="-1.97325">
        <ele>2.3</ele>
        <time>2020-06-04T15:42:18Z</time>
      </trkpt>
      <trkpt lat="47.02718" lon="-1.97316">
        <ele>2.3</ele>
        <time>2020-06-04T15:42:19Z</time>
      </trkpt>
      <trkpt lat="47.02719" lon="-1.97307">
        <ele>2.2</ele>
        <time>2020-06-04T15:42:20Z</time>
      </trkpt>
      <trkpt lat="47.02719" lon="-1.97299">
        <ele>2.2</ele>
        <time>2020-06-04T15:42:21Z</time>
      </trkpt>
      <trkpt lat="47.02719" lon="-1.9729">
        <ele>2.2</ele>
        <time>2020-06-04T15:42:22Z</time>
      </trkpt>
      <trkpt lat="47.0272" lon="-1.97281">
        <ele>2.2</ele>
        <time>2020-06-04T15:42:23Z</time>
      </trkpt>
      <trkpt lat="47.02722" lon="-1.97273">
        <ele>2.2</ele>
        <time>2020-06-04T15:42:24Z</time>
      </trkpt>
      <trkpt lat="47.02723" lon="-1.97265">
        <ele>2.2</ele>
        <time>2020-06-04T15:42:25Z</time>
      </trkpt>
      <trkpt lat="47.02724" lon="-1.97256">
        <ele>2.2</ele>
        <time>2020-06-04T15:42:26Z</time>
      </trkpt>
      <trkpt lat="47.02726" lon="-1.9725">
        <ele>2.2</ele>
        <time>2020-06-04T15:42:27Z</time>
      </trkpt>
      <trkpt lat="47.02728" lon="-1.97243">
        <ele>2.2</ele>
        <time>2020-06-04T15:42:28Z</time>
      </trkpt>
      <trkpt lat="47.0273" lon="-1.97236">
        <ele>2.2</ele>
        <time>2020-06-04T15:42:29Z</time>
      </trkpt>
      <trkpt lat="47.02732" lon="-1.97229">
        <ele>2.2</ele>
        <time>2020-06-04T15:42:30Z</time>
      </trkpt>
      <trkpt lat="47.02736" lon="-1.97222">
        <ele>2.3</ele>
        <time>2020-06-04T15:42:31Z</time>
      </trkpt>
      <trkpt lat="47.02739" lon="-1.97214">
        <ele>2.3</ele>
        <time>2020-06-04T15:42:32Z</time>
      </trkpt>
      <trkpt lat="47.02742" lon="-1.97207">
        <ele>2.3</ele>
        <time>2020-06-04T15:42:33Z</time>
      </trkpt>
      <trkpt lat="47.02745" lon="-1.97197">
        <ele>2.3</ele>
        <time>2020-06-04T15:42:34Z</time>
      </trkpt>
      <trkpt lat="47.02748" lon="-1.97191">
        <ele>2.3</ele>
        <time>2020-06-04T15:42:35Z</time>
      </trkpt>
      <trkpt lat="47.02751" lon="-1.97184">
        <ele>2.3</ele>
        <time>2020-06-04T15:42:36Z</time>
      </trkpt>
      <trkpt lat="47.02754" lon="-1.97178">
        <ele>2.3</ele>
        <time>2020-06-04T15:42:37Z</time>
      </trkpt>
      <trkpt lat="47.02758" lon="-1.97171">
        <ele>2.3</ele>
        <time>2020-06-04T15:42:38Z</time>
      </trkpt>
      <trkpt lat="47.02761" lon="-1.97165">
        <ele>2.3</ele>
        <time>2020-06-04T15:42:39Z</time>
      </trkpt>
      <trkpt lat="47.02764" lon="-1.97159">
        <ele>2.3</ele>
        <time>2020-06-04T15:42:40Z</time>
      </trkpt>
      <trkpt lat="47.02767" lon="-1.97155">
        <ele>2.3</ele>
        <time>2020-06-04T15:42:41Z</time>
      </trkpt>
      <trkpt lat="47.02771" lon="-1.97148">
        <ele>2.3</ele>
        <time>2020-06-04T15:42:42Z</time>
      </trkpt>
      <trkpt lat="47.02775" lon="-1.97143">
        <ele>2.3</ele>
        <time>2020-06-04T15:42:43Z</time>
      </trkpt>
      <trkpt lat="47.02779" lon="-1.97138">
        <ele>2.3</ele>
        <time>2020-06-04T15:42:44Z</time>
      </trkpt>
      <trkpt lat="47.02783" lon="-1.97133">
        <ele>2.4</ele>
        <time>2020-06-04T15:42:45Z</time>
      </trkpt>
      <trkpt lat="47.02788" lon="-1.97129">
        <ele>2.4</ele>
        <time>2020-06-04T15:42:46Z</time>
      </trkpt>
      <trkpt lat="47.02793" lon="-1.97124">
        <ele>2.5</ele>
        <time>2020-06-04T15:42:47Z</time>
      </trkpt>
      <trkpt lat="47.02798" lon="-1.97119">
        <ele>2.6</ele>
        <time>2020-06-04T15:42:48Z</time>
      </trkpt>
      <trkpt lat="47.02803" lon="-1.97115">
        <ele>2.6</ele>
        <time>2020-06-04T15:42:49Z</time>
      </trkpt>
      <trkpt lat="47.02808" lon="-1.97111">
        <ele>2.7</ele>
        <time>2020-06-04T15:42:50Z</time>
      </trkpt>
      <trkpt lat="47.02813" lon="-1.97107">
        <ele>2.8</ele>
        <time>2020-06-04T15:42:51Z</time>
      </trkpt>
      <trkpt lat="47.02818" lon="-1.97104">
        <ele>2.8</ele>
        <time>2020-06-04T15:42:52Z</time>
      </trkpt>
      <trkpt lat="47.02824" lon="-1.971">
        <ele>2.9</ele>
        <time>2020-06-04T15:42:53Z</time>
      </trkpt>
      <trkpt lat="47.02829" lon="-1.97097">
        <ele>2.9</ele>
        <time>2020-06-04T15:42:54Z</time>
      </trkpt>
      <trkpt lat="47.02835" lon="-1.97094">
        <ele>2.9</ele>
        <time>2020-06-04T15:42:55Z</time>
      </trkpt>
      <trkpt lat="47.0284" lon="-1.97092">
        <ele>2.9</ele>
        <time>2020-06-04T15:42:56Z</time>
      </trkpt>
      <trkpt lat="47.02845" lon="-1.97089">
        <ele>2.9</ele>
        <time>2020-06-04T15:42:57Z</time>
      </trkpt>
      <trkpt lat="47.02849" lon="-1.97088">
        <ele>2.9</ele>
        <time>2020-06-04T15:42:58Z</time>
      </trkpt>
      <trkpt lat="47.02854" lon="-1.97086">
        <ele>2.9</ele>
        <time>2020-06-04T15:42:59Z</time>
      </trkpt>
      <trkpt lat="47.02858" lon="-1.97085">
        <ele>2.9</ele>
        <time>2020-06-04T15:43:00Z</time>
      </trkpt>
      <trkpt lat="47.02862" lon="-1.97083">
        <ele>2.9</ele>
        <time>2020-06-04T15:43:01Z</time>
      </trkpt>
      <trkpt lat="47.02865" lon="-1.97081">
        <ele>2.9</ele>
        <time>2020-06-04T15:43:02Z</time>
      </trkpt>
      <trkpt lat="47.02869" lon="-1.97079">
        <ele>2.9</ele>
        <time>2020-06-04T15:43:03Z</time>
      </trkpt>
      <trkpt lat="47.02873" lon="-1.97077">
        <ele>3</ele>
        <time>2020-06-04T15:43:04Z</time>
      </trkpt>
      <trkpt lat="47.02877" lon="-1.97075">
        <ele>3</ele>
        <time>2020-06-04T15:43:05Z</time>
      </trkpt>
      <trkpt lat="47.0288" lon="-1.97073">
        <ele>3</ele>
        <time>2020-06-04T15:43:06Z</time>
      </trkpt>
      <trkpt lat="47.02883" lon="-1.97071">
        <ele>3</ele>
        <time>2020-06-04T15:43:07Z</time>
      </trkpt>
      <trkpt lat="47.02888" lon="-1.97069">
        <ele>3</ele>
        <time>2020-06-04T15:43:08Z</time>
      </trkpt>
      <trkpt lat="47.02893" lon="-1.97068">
        <ele>2.9</ele>
        <time>2020-06-04T15:43:09Z</time>
      </trkpt>
      <trkpt lat="47.029" lon="-1.97066">
        <ele>2.9</ele>
        <time>2020-06-04T15:43:10Z</time>
      </trkpt>
      <trkpt lat="47.02905" lon="-1.97065">
        <ele>2.9</ele>
        <time>2020-06-04T15:43:11Z</time>
      </trkpt>
      <trkpt lat="47.02911" lon="-1.97065">
        <ele>2.8</ele>
        <time>2020-06-04T15:43:12Z</time>
      </trkpt>
      <trkpt lat="47.02916" lon="-1.97066">
        <ele>2.7</ele>
        <time>2020-06-04T15:43:13Z</time>
      </trkpt>
      <trkpt lat="47.02922" lon="-1.97067">
        <ele>2.6</ele>
        <time>2020-06-04T15:43:14Z</time>
      </trkpt>
      <trkpt lat="47.02928" lon="-1.97069">
        <ele>2.5</ele>
        <time>2020-06-04T15:43:15Z</time>
      </trkpt>
      <trkpt lat="47.02935" lon="-1.9707">
        <ele>2.4</ele>
        <time>2020-06-04T15:43:16Z</time>
      </trkpt>
      <trkpt lat="47.0294" lon="-1.97072">
        <ele>2.4</ele>
        <time>2020-06-04T15:43:17Z</time>
      </trkpt>
      <trkpt lat="47.02945" lon="-1.97073">
        <ele>2.3</ele>
        <time>2020-06-04T15:43:18Z</time>
      </trkpt>
      <trkpt lat="47.02951" lon="-1.97074">
        <ele>2.3</ele>
        <time>2020-06-04T15:43:19Z</time>
      </trkpt>
      <trkpt lat="47.02956" lon="-1.97076">
        <ele>2.3</ele>
        <time>2020-06-04T15:43:20Z</time>
      </trkpt>
      <trkpt lat="47.02962" lon="-1.97077">
        <ele>2.3</ele>
        <time>2020-06-04T15:43:21Z</time>
      </trkpt>
      <trkpt lat="47.02967" lon="-1.97079">
        <ele>2.3</ele>
        <time>2020-06-04T15:43:22Z</time>
      </trkpt>
      <trkpt lat="47.02972" lon="-1.97081">
        <ele>2.3</ele>
        <time>2020-06-04T15:43:23Z</time>
      </trkpt>
      <trkpt lat="47.02977" lon="-1.97083">
        <ele>2.3</ele>
        <time>2020-06-04T15:43:24Z</time>
      </trkpt>
      <trkpt lat="47.02984" lon="-1.97085">
        <ele>2.3</ele>
        <time>2020-06-04T15:43:25Z</time>
      </trkpt>
      <trkpt lat="47.0299" lon="-1.97087">
        <ele>2.3</ele>
        <time>2020-06-04T15:43:26Z</time>
      </trkpt>
      <trkpt lat="47.02997" lon="-1.97088">
        <ele>2.3</ele>
        <time>2020-06-04T15:43:27Z</time>
      </trkpt>
      <trkpt lat="47.03002" lon="-1.97089">
        <ele>2.2</ele>
        <time>2020-06-04T15:43:28Z</time>
      </trkpt>
      <trkpt lat="47.03007" lon="-1.97092">
        <ele>2.2</ele>
        <time>2020-06-04T15:43:29Z</time>
      </trkpt>
      <trkpt lat="47.03012" lon="-1.97094">
        <ele>2.2</ele>
        <time>2020-06-04T15:43:30Z</time>
      </trkpt>
      <trkpt lat="47.03018" lon="-1.97097">
        <ele>2.2</ele>
        <time>2020-06-04T15:43:31Z</time>
      </trkpt>
      <trkpt lat="47.03024" lon="-1.97099">
        <ele>2.2</ele>
        <time>2020-06-04T15:43:32Z</time>
      </trkpt>
      <trkpt lat="47.0303" lon="-1.97101">
        <ele>2.2</ele>
        <time>2020-06-04T15:43:33Z</time>
      </trkpt>
      <trkpt lat="47.03036" lon="-1.97104">
        <ele>2.3</ele>
        <time>2020-06-04T15:43:34Z</time>
      </trkpt>
      <trkpt lat="47.03041" lon="-1.97106">
        <ele>2.3</ele>
        <time>2020-06-04T15:43:35Z</time>
      </trkpt>
      <trkpt lat="47.03046" lon="-1.97107">
        <ele>2.4</ele>
        <time>2020-06-04T15:43:36Z</time>
      </trkpt>
      <trkpt lat="47.03052" lon="-1.97109">
        <ele>2.5</ele>
        <time>2020-06-04T15:43:37Z</time>
      </trkpt>
      <trkpt lat="47.03058" lon="-1.97112">
        <ele>2.5</ele>
        <time>2020-06-04T15:43:38Z</time>
      </trkpt>
      <trkpt lat="47.03064" lon="-1.97113">
        <ele>2.6</ele>
        <time>2020-06-04T15:43:39Z</time>
      </trkpt>
      <trkpt lat="47.03069" lon="-1.97115">
        <ele>2.6</ele>
        <time>2020-06-04T15:43:40Z</time>
      </trkpt>
      <trkpt lat="47.03075" lon="-1.97116">
        <ele>2.7</ele>
        <time>2020-06-04T15:43:41Z</time>
      </trkpt>
      <trkpt lat="47.03081" lon="-1.97117">
        <ele>2.7</ele>
        <time>2020-06-04T15:43:42Z</time>
      </trkpt>
      <trkpt lat="47.03086" lon="-1.97118">
        <ele>2.7</ele>
        <time>2020-06-04T15:43:43Z</time>
      </trkpt>
      <trkpt lat="47.03091" lon="-1.97118">
        <ele>2.7</ele>
        <time>2020-06-04T15:43:44Z</time>
      </trkpt>
      <trkpt lat="47.03097" lon="-1.97119">
        <ele>2.7</ele>
        <time>2020-06-04T15:43:45Z</time>
      </trkpt>
      <trkpt lat="47.03103" lon="-1.9712">
        <ele>2.7</ele>
        <time>2020-06-04T15:43:46Z</time>
      </trkpt>
      <trkpt lat="47.03108" lon="-1.9712">
        <ele>2.7</ele>
        <time>2020-06-04T15:43:47Z</time>
      </trkpt>
      <trkpt lat="47.03115" lon="-1.9712">
        <ele>2.7</ele>
        <time>2020-06-04T15:43:48Z</time>
      </trkpt>
      <trkpt lat="47.0312" lon="-1.97119">
        <ele>2.8</ele>
        <time>2020-06-04T15:43:49Z</time>
      </trkpt>
      <trkpt lat="47.03124" lon="-1.97119">
        <ele>2.8</ele>
        <time>2020-06-04T15:43:50Z</time>
      </trkpt>
      <trkpt lat="47.03129" lon="-1.97119">
        <ele>2.8</ele>
        <time>2020-06-04T15:43:51Z</time>
      </trkpt>
      <trkpt lat="47.03135" lon="-1.9712">
        <ele>2.8</ele>
        <time>2020-06-04T15:43:52Z</time>
      </trkpt>
      <trkpt lat="47.0314" lon="-1.97118">
        <ele>2.8</ele>
        <time>2020-06-04T15:43:53Z</time>
      </trkpt>
      <trkpt lat="47.03146" lon="-1.97116">
        <ele>2.8</ele>
        <time>2020-06-04T15:43:54Z</time>
      </trkpt>
      <trkpt lat="47.03151" lon="-1.97114">
        <ele>2.8</ele>
        <time>2020-06-04T15:43:55Z</time>
      </trkpt>
      <trkpt lat="47.03157" lon="-1.97113">
        <ele>2.8</ele>
        <time>2020-06-04T15:43:56Z</time>
      </trkpt>
      <trkpt lat="47.03162" lon="-1.97111">
        <ele>2.8</ele>
        <time>2020-06-04T15:43:57Z</time>
      </trkpt>
      <trkpt lat="47.03167" lon="-1.9711">
        <ele>2.8</ele>
        <time>2020-06-04T15:43:58Z</time>
      </trkpt>
      <trkpt lat="47.03173" lon="-1.97108">
        <ele>2.8</ele>
        <time>2020-06-04T15:43:59Z</time>
      </trkpt>
      <trkpt lat="47.03179" lon="-1.97106">
        <ele>2.8</ele>
        <time>2020-06-04T15:44:00Z</time>
      </trkpt>
      <trkpt lat="47.03185" lon="-1.97103">
        <ele>2.9</ele>
        <time>2020-06-04T15:44:01Z</time>
      </trkpt>
      <trkpt lat="47.0319" lon="-1.97102">
        <ele>2.9</ele>
        <time>2020-06-04T15:44:02Z</time>
      </trkpt>
      <trkpt lat="47.03194" lon="-1.971">
        <ele>2.9</ele>
        <time>2020-06-04T15:44:03Z</time>
      </trkpt>
      <trkpt lat="47.03199" lon="-1.97098">
        <ele>2.9</ele>
        <time>2020-06-04T15:44:04Z</time>
      </trkpt>
      <trkpt lat="47.03205" lon="-1.97096">
        <ele>2.9</ele>
        <time>2020-06-04T15:44:05Z</time>
      </trkpt>
      <trkpt lat="47.03212" lon="-1.97093">
        <ele>2.9</ele>
        <time>2020-06-04T15:44:06Z</time>
      </trkpt>
      <trkpt lat="47.03217" lon="-1.97092">
        <ele>2.9</ele>
        <time>2020-06-04T15:44:07Z</time>
      </trkpt>
      <trkpt lat="47.03222" lon="-1.9709">
        <ele>3</ele>
        <time>2020-06-04T15:44:08Z</time>
      </trkpt>
      <trkpt lat="47.03227" lon="-1.97087">
        <ele>3</ele>
        <time>2020-06-04T15:44:09Z</time>
      </trkpt>
      <trkpt lat="47.03233" lon="-1.97085">
        <ele>3</ele>
        <time>2020-06-04T15:44:10Z</time>
      </trkpt>
      <trkpt lat="47.03239" lon="-1.97083">
        <ele>3</ele>
        <time>2020-06-04T15:44:11Z</time>
      </trkpt>
      <trkpt lat="47.03245" lon="-1.97082">
        <ele>3</ele>
        <time>2020-06-04T15:44:12Z</time>
      </trkpt>
      <trkpt lat="47.03251" lon="-1.9708">
        <ele>3.1</ele>
        <time>2020-06-04T15:44:13Z</time>
      </trkpt>
      <trkpt lat="47.03257" lon="-1.97079">
        <ele>3.1</ele>
        <time>2020-06-04T15:44:14Z</time>
      </trkpt>
      <trkpt lat="47.03263" lon="-1.97078">
        <ele>3.1</ele>
        <time>2020-06-04T15:44:15Z</time>
      </trkpt>
      <trkpt lat="47.03269" lon="-1.97076">
        <ele>3.1</ele>
        <time>2020-06-04T15:44:16Z</time>
      </trkpt>
      <trkpt lat="47.03275" lon="-1.97075">
        <ele>3.1</ele>
        <time>2020-06-04T15:44:17Z</time>
      </trkpt>
      <trkpt lat="47.0328" lon="-1.97074">
        <ele>3.1</ele>
        <time>2020-06-04T15:44:18Z</time>
      </trkpt>
      <trkpt lat="47.03286" lon="-1.97074">
        <ele>3.1</ele>
        <time>2020-06-04T15:44:19Z</time>
      </trkpt>
      <trkpt lat="47.03291" lon="-1.97073">
        <ele>3.2</ele>
        <time>2020-06-04T15:44:20Z</time>
      </trkpt>
      <trkpt lat="47.03297" lon="-1.97074">
        <ele>3.2</ele>
        <time>2020-06-04T15:44:21Z</time>
      </trkpt>
      <trkpt lat="47.03304" lon="-1.97073">
        <ele>3.2</ele>
        <time>2020-06-04T15:44:22Z</time>
      </trkpt>
      <trkpt lat="47.03308" lon="-1.97073">
        <ele>3.2</ele>
        <time>2020-06-04T15:44:23Z</time>
      </trkpt>
      <trkpt lat="47.03313" lon="-1.97073">
        <ele>3.2</ele>
        <time>2020-06-04T15:44:24Z</time>
      </trkpt>
      <trkpt lat="47.03319" lon="-1.97072">
        <ele>3.2</ele>
        <time>2020-06-04T15:44:25Z</time>
      </trkpt>
      <trkpt lat="47.03325" lon="-1.97072">
        <ele>3.2</ele>
        <time>2020-06-04T15:44:26Z</time>
      </trkpt>
      <trkpt lat="47.0333" lon="-1.97073">
        <ele>3.2</ele>
        <time>2020-06-04T15:44:27Z</time>
      </trkpt>
      <trkpt lat="47.03336" lon="-1.97073">
        <ele>3.2</ele>
        <time>2020-06-04T15:44:28Z</time>
      </trkpt>
      <trkpt lat="47.03341" lon="-1.97073">
        <ele>3.2</ele>
        <time>2020-06-04T15:44:29Z</time>
      </trkpt>
      <trkpt lat="47.03347" lon="-1.97072">
        <ele>3.2</ele>
        <time>2020-06-04T15:44:30Z</time>
      </trkpt>
      <trkpt lat="47.03353" lon="-1.97071">
        <ele>3.2</ele>
        <time>2020-06-04T15:44:31Z</time>
      </trkpt>
      <trkpt lat="47.03358" lon="-1.97069">
        <ele>3.3</ele>
        <time>2020-06-04T15:44:32Z</time>
      </trkpt>
      <trkpt lat="47.03363" lon="-1.97067">
        <ele>3.3</ele>
        <time>2020-06-04T15:44:33Z</time>
      </trkpt>
      <trkpt lat="47.03369" lon="-1.97065">
        <ele>3.3</ele>
        <time>2020-06-04T15:44:34Z</time>
      </trkpt>
      <trkpt lat="47.03374" lon="-1.97062">
        <ele>3.3</ele>
        <time>2020-06-04T15:44:35Z</time>
      </trkpt>
      <trkpt lat="47.03379" lon="-1.97059">
        <ele>3.4</ele>
        <time>2020-06-04T15:44:36Z</time>
      </trkpt>
      <trkpt lat="47.03384" lon="-1.97056">
        <ele>3.4</ele>
        <time>2020-06-04T15:44:37Z</time>
      </trkpt>
      <trkpt lat="47.0339" lon="-1.97053">
        <ele>3.4</ele>
        <time>2020-06-04T15:44:38Z</time>
      </trkpt>
      <trkpt lat="47.03395" lon="-1.9705">
        <ele>3.4</ele>
        <time>2020-06-04T15:44:39Z</time>
      </trkpt>
      <trkpt lat="47.03399" lon="-1.97047">
        <ele>3.4</ele>
        <time>2020-06-04T15:44:40Z</time>
      </trkpt>
      <trkpt lat="47.03403" lon="-1.97043">
        <ele>3.4</ele>
        <time>2020-06-04T15:44:41Z</time>
      </trkpt>
      <trkpt lat="47.03406" lon="-1.9704">
        <ele>3.4</ele>
        <time>2020-06-04T15:44:42Z</time>
      </trkpt>
      <trkpt lat="47.03411" lon="-1.97036">
        <ele>3.4</ele>
        <time>2020-06-04T15:44:43Z</time>
      </trkpt>
      <trkpt lat="47.03416" lon="-1.97034">
        <ele>3.4</ele>
        <time>2020-06-04T15:44:44Z</time>
      </trkpt>
      <trkpt lat="47.03422" lon="-1.97039">
        <ele>3.4</ele>
        <time>2020-06-04T15:44:45Z</time>
      </trkpt>
      <trkpt lat="47.03425" lon="-1.97046">
        <ele>3.5</ele>
        <time>2020-06-04T15:44:46Z</time>
      </trkpt>
      <trkpt lat="47.03426" lon="-1.97052">
        <ele>3.5</ele>
        <time>2020-06-04T15:44:47Z</time>
      </trkpt>
      <trkpt lat="47.03427" lon="-1.97059">
        <ele>3.5</ele>
        <time>2020-06-04T15:44:48Z</time>
      </trkpt>
      <trkpt lat="47.03427" lon="-1.97066">
        <ele>3.5</ele>
        <time>2020-06-04T15:44:49Z</time>
      </trkpt>
      <trkpt lat="47.03428" lon="-1.97073">
        <ele>3.5</ele>
        <time>2020-06-04T15:44:50Z</time>
      </trkpt>
      <trkpt lat="47.03428" lon="-1.97079">
        <ele>3.5</ele>
        <time>2020-06-04T15:44:51Z</time>
      </trkpt>
      <trkpt lat="47.03428" lon="-1.97085">
        <ele>3.5</ele>
        <time>2020-06-04T15:44:52Z</time>
      </trkpt>
      <trkpt lat="47.03429" lon="-1.97091">
        <ele>3.5</ele>
        <time>2020-06-04T15:44:53Z</time>
      </trkpt>
      <trkpt lat="47.03429" lon="-1.97098">
        <ele>3.5</ele>
        <time>2020-06-04T15:44:54Z</time>
      </trkpt>
      <trkpt lat="47.0343" lon="-1.97104">
        <ele>3.6</ele>
        <time>2020-06-04T15:44:55Z</time>
      </trkpt>
      <trkpt lat="47.03429" lon="-1.9711">
        <ele>3.6</ele>
        <time>2020-06-04T15:44:56Z</time>
      </trkpt>
      <trkpt lat="47.03429" lon="-1.97115">
        <ele>3.6</ele>
        <time>2020-06-04T15:44:57Z</time>
      </trkpt>
      <trkpt lat="47.03429" lon="-1.9712">
        <ele>3.6</ele>
        <time>2020-06-04T15:44:58Z</time>
      </trkpt>
      <trkpt lat="47.03425" lon="-1.97125">
        <ele>3.6</ele>
        <time>2020-06-04T15:44:59Z</time>
      </trkpt>
      <trkpt lat="47.03421" lon="-1.97127">
        <ele>3.6</ele>
        <time>2020-06-04T15:45:00Z</time>
      </trkpt>
      <trkpt lat="47.03417" lon="-1.97129">
        <ele>3.6</ele>
        <time>2020-06-04T15:45:01Z</time>
      </trkpt>
      <trkpt lat="47.03413" lon="-1.97132">
        <ele>3.6</ele>
        <time>2020-06-04T15:45:02Z</time>
      </trkpt>
      <trkpt lat="47.0341" lon="-1.97133">
        <ele>3.6</ele>
        <time>2020-06-04T15:45:03Z</time>
      </trkpt>
      <trkpt lat="47.03406" lon="-1.97135">
        <ele>3.6</ele>
        <time>2020-06-04T15:45:04Z</time>
      </trkpt>
      <trkpt lat="47.03403" lon="-1.97137">
        <ele>3.5</ele>
        <time>2020-06-04T15:45:05Z</time>
      </trkpt>
      <trkpt lat="47.03399" lon="-1.97139">
        <ele>3.5</ele>
        <time>2020-06-04T15:45:06Z</time>
      </trkpt>
      <trkpt lat="47.03394" lon="-1.9714">
        <ele>3.5</ele>
        <time>2020-06-04T15:45:07Z</time>
      </trkpt>
      <trkpt lat="47.03391" lon="-1.9714">
        <ele>3.5</ele>
        <time>2020-06-04T15:45:08Z</time>
      </trkpt>
      <trkpt lat="47.03387" lon="-1.97142">
        <ele>3.5</ele>
        <time>2020-06-04T15:45:09Z</time>
      </trkpt>
      <trkpt lat="47.03382" lon="-1.97142">
        <ele>3.5</ele>
        <time>2020-06-04T15:45:10Z</time>
      </trkpt>
      <trkpt lat="47.03378" lon="-1.97143">
        <ele>3.5</ele>
        <time>2020-06-04T15:45:11Z</time>
      </trkpt>
      <trkpt lat="47.03375" lon="-1.97144">
        <ele>3.4</ele>
        <time>2020-06-04T15:45:12Z</time>
      </trkpt>
      <trkpt lat="47.03371" lon="-1.97145">
        <ele>3.4</ele>
        <time>2020-06-04T15:45:13Z</time>
      </trkpt>
      <trkpt lat="47.03366" lon="-1.97146">
        <ele>3.4</ele>
        <time>2020-06-04T15:45:14Z</time>
      </trkpt>
      <trkpt lat="47.03362" lon="-1.97146">
        <ele>3.4</ele>
        <time>2020-06-04T15:45:15Z</time>
      </trkpt>
      <trkpt lat="47.03357" lon="-1.97147">
        <ele>3.4</ele>
        <time>2020-06-04T15:45:16Z</time>
      </trkpt>
      <trkpt lat="47.03353" lon="-1.97147">
        <ele>3.4</ele>
        <time>2020-06-04T15:45:17Z</time>
      </trkpt>
      <trkpt lat="47.03346" lon="-1.97149">
        <ele>3.3</ele>
        <time>2020-06-04T15:45:18Z</time>
      </trkpt>
      <trkpt lat="47.03341" lon="-1.9715">
        <ele>3.3</ele>
        <time>2020-06-04T15:45:19Z</time>
      </trkpt>
      <trkpt lat="47.03337" lon="-1.97151">
        <ele>3.3</ele>
        <time>2020-06-04T15:45:20Z</time>
      </trkpt>
      <trkpt lat="47.03332" lon="-1.97151">
        <ele>3.3</ele>
        <time>2020-06-04T15:45:21Z</time>
      </trkpt>
      <trkpt lat="47.03327" lon="-1.97152">
        <ele>3.2</ele>
        <time>2020-06-04T15:45:22Z</time>
      </trkpt>
      <trkpt lat="47.03323" lon="-1.97153">
        <ele>3.2</ele>
        <time>2020-06-04T15:45:23Z</time>
      </trkpt>
      <trkpt lat="47.03317" lon="-1.97154">
        <ele>3.2</ele>
        <time>2020-06-04T15:45:24Z</time>
      </trkpt>
      <trkpt lat="47.03311" lon="-1.97154">
        <ele>3.2</ele>
        <time>2020-06-04T15:45:25Z</time>
      </trkpt>
      <trkpt lat="47.03305" lon="-1.97155">
        <ele>3.2</ele>
        <time>2020-06-04T15:45:26Z</time>
      </trkpt>
      <trkpt lat="47.033" lon="-1.97154">
        <ele>3.2</ele>
        <time>2020-06-04T15:45:27Z</time>
      </trkpt>
      <trkpt lat="47.03295" lon="-1.97154">
        <ele>3.2</ele>
        <time>2020-06-04T15:45:28Z</time>
      </trkpt>
      <trkpt lat="47.03289" lon="-1.97154">
        <ele>3.2</ele>
        <time>2020-06-04T15:45:29Z</time>
      </trkpt>
      <trkpt lat="47.03283" lon="-1.97154">
        <ele>3.2</ele>
        <time>2020-06-04T15:45:30Z</time>
      </trkpt>
      <trkpt lat="47.03278" lon="-1.97154">
        <ele>3.2</ele>
        <time>2020-06-04T15:45:31Z</time>
      </trkpt>
      <trkpt lat="47.03272" lon="-1.97155">
        <ele>3.2</ele>
        <time>2020-06-04T15:45:32Z</time>
      </trkpt>
      <trkpt lat="47.03266" lon="-1.97156">
        <ele>3.2</ele>
        <time>2020-06-04T15:45:33Z</time>
      </trkpt>
      <trkpt lat="47.0326" lon="-1.97157">
        <ele>3.2</ele>
        <time>2020-06-04T15:45:34Z</time>
      </trkpt>
      <trkpt lat="47.03255" lon="-1.97158">
        <ele>3.2</ele>
        <time>2020-06-04T15:45:35Z</time>
      </trkpt>
      <trkpt lat="47.0325" lon="-1.97159">
        <ele>3.2</ele>
        <time>2020-06-04T15:45:36Z</time>
      </trkpt>
      <trkpt lat="47.03245" lon="-1.9716">
        <ele>3.2</ele>
        <time>2020-06-04T15:45:37Z</time>
      </trkpt>
      <trkpt lat="47.03239" lon="-1.97162">
        <ele>3.2</ele>
        <time>2020-06-04T15:45:38Z</time>
      </trkpt>
      <trkpt lat="47.03233" lon="-1.97164">
        <ele>3.2</ele>
        <time>2020-06-04T15:45:39Z</time>
      </trkpt>
      <trkpt lat="47.03227" lon="-1.97167">
        <ele>3.2</ele>
        <time>2020-06-04T15:45:40Z</time>
      </trkpt>
      <trkpt lat="47.03221" lon="-1.97168">
        <ele>3.2</ele>
        <time>2020-06-04T15:45:41Z</time>
      </trkpt>
      <trkpt lat="47.03216" lon="-1.9717">
        <ele>3.2</ele>
        <time>2020-06-04T15:45:42Z</time>
      </trkpt>
      <trkpt lat="47.03211" lon="-1.97172">
        <ele>3.2</ele>
        <time>2020-06-04T15:45:43Z</time>
      </trkpt>
      <trkpt lat="47.03205" lon="-1.97174">
        <ele>3.2</ele>
        <time>2020-06-04T15:45:44Z</time>
      </trkpt>
      <trkpt lat="47.032" lon="-1.97176">
        <ele>3.2</ele>
        <time>2020-06-04T15:45:45Z</time>
      </trkpt>
      <trkpt lat="47.03194" lon="-1.97178">
        <ele>3.1</ele>
        <time>2020-06-04T15:45:46Z</time>
      </trkpt>
      <trkpt lat="47.03188" lon="-1.9718">
        <ele>3.1</ele>
        <time>2020-06-04T15:45:47Z</time>
      </trkpt>
      <trkpt lat="47.03182" lon="-1.97183">
        <ele>3.1</ele>
        <time>2020-06-04T15:45:48Z</time>
      </trkpt>
      <trkpt lat="47.03177" lon="-1.97185">
        <ele>3</ele>
        <time>2020-06-04T15:45:49Z</time>
      </trkpt>
      <trkpt lat="47.03171" lon="-1.97187">
        <ele>3</ele>
        <time>2020-06-04T15:45:50Z</time>
      </trkpt>
      <trkpt lat="47.03166" lon="-1.97189">
        <ele>3.1</ele>
        <time>2020-06-04T15:45:51Z</time>
      </trkpt>
      <trkpt lat="47.03161" lon="-1.97192">
        <ele>3.1</ele>
        <time>2020-06-04T15:45:52Z</time>
      </trkpt>
      <trkpt lat="47.03155" lon="-1.97194">
        <ele>3.1</ele>
        <time>2020-06-04T15:45:53Z</time>
      </trkpt>
      <trkpt lat="47.0315" lon="-1.97196">
        <ele>3.1</ele>
        <time>2020-06-04T15:45:54Z</time>
      </trkpt>
      <trkpt lat="47.03144" lon="-1.97198">
        <ele>3.1</ele>
        <time>2020-06-04T15:45:55Z</time>
      </trkpt>
      <trkpt lat="47.03138" lon="-1.97199">
        <ele>3.1</ele>
        <time>2020-06-04T15:45:56Z</time>
      </trkpt>
      <trkpt lat="47.03132" lon="-1.97199">
        <ele>3.1</ele>
        <time>2020-06-04T15:45:57Z</time>
      </trkpt>
      <trkpt lat="47.03127" lon="-1.972">
        <ele>3.1</ele>
        <time>2020-06-04T15:45:58Z</time>
      </trkpt>
      <trkpt lat="47.03121" lon="-1.97201">
        <ele>3.1</ele>
        <time>2020-06-04T15:45:59Z</time>
      </trkpt>
      <trkpt lat="47.03115" lon="-1.97201">
        <ele>3.1</ele>
        <time>2020-06-04T15:46:00Z</time>
      </trkpt>
      <trkpt lat="47.0311" lon="-1.97202">
        <ele>3.2</ele>
        <time>2020-06-04T15:46:01Z</time>
      </trkpt>
      <trkpt lat="47.03104" lon="-1.97203">
        <ele>3.2</ele>
        <time>2020-06-04T15:46:02Z</time>
      </trkpt>
      <trkpt lat="47.03098" lon="-1.97203">
        <ele>3.2</ele>
        <time>2020-06-04T15:46:03Z</time>
      </trkpt>
      <trkpt lat="47.03093" lon="-1.97205">
        <ele>3.2</ele>
        <time>2020-06-04T15:46:04Z</time>
      </trkpt>
      <trkpt lat="47.03088" lon="-1.97206">
        <ele>3.2</ele>
        <time>2020-06-04T15:46:05Z</time>
      </trkpt>
      <trkpt lat="47.03083" lon="-1.97208">
        <ele>3.2</ele>
        <time>2020-06-04T15:46:06Z</time>
      </trkpt>
      <trkpt lat="47.03078" lon="-1.97209">
        <ele>3.2</ele>
        <time>2020-06-04T15:46:07Z</time>
      </trkpt>
      <trkpt lat="47.03073" lon="-1.97212">
        <ele>3.2</ele>
        <time>2020-06-04T15:46:08Z</time>
      </trkpt>
      <trkpt lat="47.03069" lon="-1.97213">
        <ele>3.2</ele>
        <time>2020-06-04T15:46:09Z</time>
      </trkpt>
      <trkpt lat="47.03064" lon="-1.97214">
        <ele>3.2</ele>
        <time>2020-06-04T15:46:10Z</time>
      </trkpt>
      <trkpt lat="47.03059" lon="-1.97216">
        <ele>3.2</ele>
        <time>2020-06-04T15:46:11Z</time>
      </trkpt>
      <trkpt lat="47.03054" lon="-1.97218">
        <ele>3.2</ele>
        <time>2020-06-04T15:46:12Z</time>
      </trkpt>
      <trkpt lat="47.03048" lon="-1.97219">
        <ele>3.2</ele>
        <time>2020-06-04T15:46:13Z</time>
      </trkpt>
      <trkpt lat="47.03042" lon="-1.97221">
        <ele>3.2</ele>
        <time>2020-06-04T15:46:14Z</time>
      </trkpt>
      <trkpt lat="47.03035" lon="-1.97223">
        <ele>3.2</ele>
        <time>2020-06-04T15:46:15Z</time>
      </trkpt>
      <trkpt lat="47.03029" lon="-1.97225">
        <ele>3.2</ele>
        <time>2020-06-04T15:46:16Z</time>
      </trkpt>
      <trkpt lat="47.03022" lon="-1.97226">
        <ele>3.2</ele>
        <time>2020-06-04T15:46:17Z</time>
      </trkpt>
      <trkpt lat="47.03016" lon="-1.97228">
        <ele>3.2</ele>
        <time>2020-06-04T15:46:18Z</time>
      </trkpt>
      <trkpt lat="47.0301" lon="-1.9723">
        <ele>3.2</ele>
        <time>2020-06-04T15:46:19Z</time>
      </trkpt>
      <trkpt lat="47.03004" lon="-1.97231">
        <ele>3.2</ele>
        <time>2020-06-04T15:46:20Z</time>
      </trkpt>
      <trkpt lat="47.02998" lon="-1.97233">
        <ele>3.2</ele>
        <time>2020-06-04T15:46:21Z</time>
      </trkpt>
      <trkpt lat="47.02991" lon="-1.97235">
        <ele>3.2</ele>
        <time>2020-06-04T15:46:22Z</time>
      </trkpt>
      <trkpt lat="47.02985" lon="-1.97237">
        <ele>3.2</ele>
        <time>2020-06-04T15:46:23Z</time>
      </trkpt>
      <trkpt lat="47.02979" lon="-1.97239">
        <ele>3.2</ele>
        <time>2020-06-04T15:46:24Z</time>
      </trkpt>
      <trkpt lat="47.02974" lon="-1.97241">
        <ele>3.2</ele>
        <time>2020-06-04T15:46:25Z</time>
      </trkpt>
      <trkpt lat="47.02968" lon="-1.97243">
        <ele>3.2</ele>
        <time>2020-06-04T15:46:26Z</time>
      </trkpt>
      <trkpt lat="47.02963" lon="-1.97245">
        <ele>3.2</ele>
        <time>2020-06-04T15:46:27Z</time>
      </trkpt>
      <trkpt lat="47.02958" lon="-1.97246">
        <ele>3.2</ele>
        <time>2020-06-04T15:46:28Z</time>
      </trkpt>
      <trkpt lat="47.02952" lon="-1.9725">
        <ele>3.2</ele>
        <time>2020-06-04T15:46:29Z</time>
      </trkpt>
      <trkpt lat="47.02946" lon="-1.97252">
        <ele>3.2</ele>
        <time>2020-06-04T15:46:30Z</time>
      </trkpt>
      <trkpt lat="47.02941" lon="-1.97255">
        <ele>3.2</ele>
        <time>2020-06-04T15:46:31Z</time>
      </trkpt>
      <trkpt lat="47.02936" lon="-1.97259">
        <ele>3.2</ele>
        <time>2020-06-04T15:46:32Z</time>
      </trkpt>
      <trkpt lat="47.02931" lon="-1.97263">
        <ele>3.2</ele>
        <time>2020-06-04T15:46:33Z</time>
      </trkpt>
      <trkpt lat="47.02927" lon="-1.97269">
        <ele>3.2</ele>
        <time>2020-06-04T15:46:34Z</time>
      </trkpt>
      <trkpt lat="47.02922" lon="-1.97277">
        <ele>3.2</ele>
        <time>2020-06-04T15:46:35Z</time>
      </trkpt>
      <trkpt lat="47.02918" lon="-1.97285">
        <ele>3.2</ele>
        <time>2020-06-04T15:46:36Z</time>
      </trkpt>
      <trkpt lat="47.02915" lon="-1.97292">
        <ele>3.2</ele>
        <time>2020-06-04T15:46:37Z</time>
      </trkpt>
      <trkpt lat="47.02913" lon="-1.97301">
        <ele>3.2</ele>
        <time>2020-06-04T15:46:38Z</time>
      </trkpt>
      <trkpt lat="47.02911" lon="-1.97308">
        <ele>3.2</ele>
        <time>2020-06-04T15:46:39Z</time>
      </trkpt>
      <trkpt lat="47.02909" lon="-1.97316">
        <ele>3.2</ele>
        <time>2020-06-04T15:46:40Z</time>
      </trkpt>
      <trkpt lat="47.02907" lon="-1.97325">
        <ele>3.2</ele>
        <time>2020-06-04T15:46:41Z</time>
      </trkpt>
      <trkpt lat="47.02905" lon="-1.97334">
        <ele>3.2</ele>
        <time>2020-06-04T15:46:42Z</time>
      </trkpt>
      <trkpt lat="47.02904" lon="-1.97343">
        <ele>3.2</ele>
        <time>2020-06-04T15:46:43Z</time>
      </trkpt>
      <trkpt lat="47.02902" lon="-1.97353">
        <ele>3.2</ele>
        <time>2020-06-04T15:46:44Z</time>
      </trkpt>
      <trkpt lat="47.02903" lon="-1.97359">
        <ele>3.2</ele>
        <time>2020-06-04T15:46:45Z</time>
      </trkpt>
      <trkpt lat="47.02904" lon="-1.97366">
        <ele>3.2</ele>
        <time>2020-06-04T15:46:46Z</time>
      </trkpt>
      <trkpt lat="47.02904" lon="-1.97373">
        <ele>3.2</ele>
        <time>2020-06-04T15:46:47Z</time>
      </trkpt>
      <trkpt lat="47.02905" lon="-1.97379">
        <ele>3.2</ele>
        <time>2020-06-04T15:46:48Z</time>
      </trkpt>
      <trkpt lat="47.02906" lon="-1.97387">
        <ele>3.2</ele>
        <time>2020-06-04T15:46:49Z</time>
      </trkpt>
      <trkpt lat="47.02906" lon="-1.97394">
        <ele>3.2</ele>
        <time>2020-06-04T15:46:50Z</time>
      </trkpt>
      <trkpt lat="47.02906" lon="-1.97401">
        <ele>3.2</ele>
        <time>2020-06-04T15:46:51Z</time>
      </trkpt>
      <trkpt lat="47.02907" lon="-1.97407">
        <ele>3.2</ele>
        <time>2020-06-04T15:46:52Z</time>
      </trkpt>
      <trkpt lat="47.02907" lon="-1.97414">
        <ele>3.2</ele>
        <time>2020-06-04T15:46:53Z</time>
      </trkpt>
      <trkpt lat="47.02907" lon="-1.97421">
        <ele>3.2</ele>
        <time>2020-06-04T15:46:54Z</time>
      </trkpt>
      <trkpt lat="47.02907" lon="-1.97428">
        <ele>3.2</ele>
        <time>2020-06-04T15:46:55Z</time>
      </trkpt>
      <trkpt lat="47.02907" lon="-1.97435">
        <ele>3.2</ele>
        <time>2020-06-04T15:46:56Z</time>
      </trkpt>
      <trkpt lat="47.02908" lon="-1.97441">
        <ele>3.3</ele>
        <time>2020-06-04T15:46:57Z</time>
      </trkpt>
      <trkpt lat="47.02908" lon="-1.97449">
        <ele>3.3</ele>
        <time>2020-06-04T15:46:58Z</time>
      </trkpt>
      <trkpt lat="47.02909" lon="-1.97456">
        <ele>3.3</ele>
        <time>2020-06-04T15:46:59Z</time>
      </trkpt>
      <trkpt lat="47.02909" lon="-1.97464">
        <ele>3.3</ele>
        <time>2020-06-04T15:47:00Z</time>
      </trkpt>
      <trkpt lat="47.02909" lon="-1.97472">
        <ele>3.3</ele>
        <time>2020-06-04T15:47:01Z</time>
      </trkpt>
      <trkpt lat="47.02909" lon="-1.97479">
        <ele>3.3</ele>
        <time>2020-06-04T15:47:02Z</time>
      </trkpt>
      <trkpt lat="47.0291" lon="-1.97485">
        <ele>3.3</ele>
        <time>2020-06-04T15:47:03Z</time>
      </trkpt>
      <trkpt lat="47.0291" lon="-1.97491">
        <ele>3.3</ele>
        <time>2020-06-04T15:47:04Z</time>
      </trkpt>
      <trkpt lat="47.0291" lon="-1.97499">
        <ele>3.3</ele>
        <time>2020-06-04T15:47:05Z</time>
      </trkpt>
      <trkpt lat="47.0291" lon="-1.97507">
        <ele>3.3</ele>
        <time>2020-06-04T15:47:06Z</time>
      </trkpt>
      <trkpt lat="47.0291" lon="-1.97516">
        <ele>3.3</ele>
        <time>2020-06-04T15:47:07Z</time>
      </trkpt>
      <trkpt lat="47.02911" lon="-1.9752">
        <ele>3.4</ele>
        <time>2020-06-04T15:47:08Z</time>
      </trkpt>
      <trkpt lat="47.02911" lon="-1.97527">
        <ele>3.4</ele>
        <time>2020-06-04T15:47:09Z</time>
      </trkpt>
      <trkpt lat="47.02911" lon="-1.97536">
        <ele>3.4</ele>
        <time>2020-06-04T15:47:10Z</time>
      </trkpt>
      <trkpt lat="47.02911" lon="-1.97544">
        <ele>3.4</ele>
        <time>2020-06-04T15:47:11Z</time>
      </trkpt>
      <trkpt lat="47.02911" lon="-1.97551">
        <ele>3.4</ele>
        <time>2020-06-04T15:47:12Z</time>
      </trkpt>
      <trkpt lat="47.02912" lon="-1.97557">
        <ele>3.4</ele>
        <time>2020-06-04T15:47:13Z</time>
      </trkpt>
      <trkpt lat="47.02912" lon="-1.97564">
        <ele>3.4</ele>
        <time>2020-06-04T15:47:14Z</time>
      </trkpt>
      <trkpt lat="47.02912" lon="-1.9757">
        <ele>3.4</ele>
        <time>2020-06-04T15:47:15Z</time>
      </trkpt>
      <trkpt lat="47.02913" lon="-1.97574">
        <ele>3.4</ele>
        <time>2020-06-04T15:47:16Z</time>
      </trkpt>
      <trkpt lat="47.02913" lon="-1.9758">
        <ele>3.4</ele>
        <time>2020-06-04T15:47:17Z</time>
      </trkpt>
      <trkpt lat="47.02914" lon="-1.97583">
        <ele>3.4</ele>
        <time>2020-06-04T15:47:18Z</time>
      </trkpt>
      <trkpt lat="47.02914" lon="-1.97588">
        <ele>3.4</ele>
        <time>2020-06-04T15:47:19Z</time>
      </trkpt>
      <trkpt lat="47.02914" lon="-1.97595">
        <ele>3.4</ele>
        <time>2020-06-04T15:47:20Z</time>
      </trkpt>
      <trkpt lat="47.02915" lon="-1.97601">
        <ele>3.4</ele>
        <time>2020-06-04T15:47:21Z</time>
      </trkpt>
      <trkpt lat="47.02915" lon="-1.97608">
        <ele>3.4</ele>
        <time>2020-06-04T15:47:22Z</time>
      </trkpt>
      <trkpt lat="47.02916" lon="-1.97615">
        <ele>3.4</ele>
        <time>2020-06-04T15:47:23Z</time>
      </trkpt>
      <trkpt lat="47.02916" lon="-1.97621">
        <ele>3.4</ele>
        <time>2020-06-04T15:47:24Z</time>
      </trkpt>
      <trkpt lat="47.02917" lon="-1.97628">
        <ele>3.4</ele>
        <time>2020-06-04T15:47:25Z</time>
      </trkpt>
      <trkpt lat="47.02917" lon="-1.97637">
        <ele>3.4</ele>
        <time>2020-06-04T15:47:26Z</time>
      </trkpt>
      <trkpt lat="47.02917" lon="-1.97645">
        <ele>3.4</ele>
        <time>2020-06-04T15:47:27Z</time>
      </trkpt>
      <trkpt lat="47.02918" lon="-1.97653">
        <ele>3.3</ele>
        <time>2020-06-04T15:47:28Z</time>
      </trkpt>
      <trkpt lat="47.02918" lon="-1.9766">
        <ele>3.3</ele>
        <time>2020-06-04T15:47:29Z</time>
      </trkpt>
      <trkpt lat="47.02918" lon="-1.97667">
        <ele>3.3</ele>
        <time>2020-06-04T15:47:30Z</time>
      </trkpt>
      <trkpt lat="47.02918" lon="-1.97674">
        <ele>3.3</ele>
        <time>2020-06-04T15:47:31Z</time>
      </trkpt>
      <trkpt lat="47.02918" lon="-1.97682">
        <ele>3.3</ele>
        <time>2020-06-04T15:47:32Z</time>
      </trkpt>
      <trkpt lat="47.02919" lon="-1.97692">
        <ele>3.3</ele>
        <time>2020-06-04T15:47:33Z</time>
      </trkpt>
      <trkpt lat="47.0292" lon="-1.977">
        <ele>3.3</ele>
        <time>2020-06-04T15:47:34Z</time>
      </trkpt>
      <trkpt lat="47.0292" lon="-1.9771">
        <ele>3.3</ele>
        <time>2020-06-04T15:47:35Z</time>
      </trkpt>
      <trkpt lat="47.0292" lon="-1.97718">
        <ele>3.3</ele>
        <time>2020-06-04T15:47:36Z</time>
      </trkpt>
      <trkpt lat="47.02921" lon="-1.97726">
        <ele>3.2</ele>
        <time>2020-06-04T15:47:37Z</time>
      </trkpt>
      <trkpt lat="47.02921" lon="-1.97735">
        <ele>3.2</ele>
        <time>2020-06-04T15:47:38Z</time>
      </trkpt>
      <trkpt lat="47.02922" lon="-1.97744">
        <ele>3.2</ele>
        <time>2020-06-04T15:47:39Z</time>
      </trkpt>
      <trkpt lat="47.02923" lon="-1.97754">
        <ele>3.2</ele>
        <time>2020-06-04T15:47:40Z</time>
      </trkpt>
      <trkpt lat="47.02924" lon="-1.9776">
        <ele>3.2</ele>
        <time>2020-06-04T15:47:41Z</time>
      </trkpt>
      <trkpt lat="47.02925" lon="-1.97769">
        <ele>3.2</ele>
        <time>2020-06-04T15:47:42Z</time>
      </trkpt>
      <trkpt lat="47.02927" lon="-1.97776">
        <ele>3.2</ele>
        <time>2020-06-04T15:47:43Z</time>
      </trkpt>
      <trkpt lat="47.02928" lon="-1.97784">
        <ele>3.2</ele>
        <time>2020-06-04T15:47:44Z</time>
      </trkpt>
      <trkpt lat="47.02929" lon="-1.97791">
        <ele>3.2</ele>
        <time>2020-06-04T15:47:45Z</time>
      </trkpt>
      <trkpt lat="47.02931" lon="-1.97796">
        <ele>3.2</ele>
        <time>2020-06-04T15:47:46Z</time>
      </trkpt>
      <trkpt lat="47.02933" lon="-1.97805">
        <ele>3.2</ele>
        <time>2020-06-04T15:47:47Z</time>
      </trkpt>
      <trkpt lat="47.02934" lon="-1.9781">
        <ele>3.2</ele>
        <time>2020-06-04T15:47:48Z</time>
      </trkpt>
      <trkpt lat="47.02936" lon="-1.97817">
        <ele>3.2</ele>
        <time>2020-06-04T15:47:49Z</time>
      </trkpt>
      <trkpt lat="47.02937" lon="-1.97824">
        <ele>3.2</ele>
        <time>2020-06-04T15:47:50Z</time>
      </trkpt>
      <trkpt lat="47.02939" lon="-1.9783">
        <ele>3.2</ele>
        <time>2020-06-04T15:47:51Z</time>
      </trkpt>
      <trkpt lat="47.0294" lon="-1.97837">
        <ele>3.2</ele>
        <time>2020-06-04T15:47:52Z</time>
      </trkpt>
      <trkpt lat="47.02943" lon="-1.97844">
        <ele>3.2</ele>
        <time>2020-06-04T15:47:53Z</time>
      </trkpt>
      <trkpt lat="47.02945" lon="-1.97852">
        <ele>3.2</ele>
        <time>2020-06-04T15:47:54Z</time>
      </trkpt>
      <trkpt lat="47.02947" lon="-1.97859">
        <ele>3.2</ele>
        <time>2020-06-04T15:47:55Z</time>
      </trkpt>
      <trkpt lat="47.0295" lon="-1.97866">
        <ele>3.2</ele>
        <time>2020-06-04T15:47:56Z</time>
      </trkpt>
      <trkpt lat="47.02952" lon="-1.97874">
        <ele>3.2</ele>
        <time>2020-06-04T15:47:57Z</time>
      </trkpt>
      <trkpt lat="47.02955" lon="-1.97882">
        <ele>3.2</ele>
        <time>2020-06-04T15:47:58Z</time>
      </trkpt>
      <trkpt lat="47.02958" lon="-1.97888">
        <ele>3.2</ele>
        <time>2020-06-04T15:47:59Z</time>
      </trkpt>
      <trkpt lat="47.02961" lon="-1.97894">
        <ele>3.2</ele>
        <time>2020-06-04T15:48:00Z</time>
      </trkpt>
      <trkpt lat="47.02964" lon="-1.97898">
        <ele>3.2</ele>
        <time>2020-06-04T15:48:01Z</time>
      </trkpt>
      <trkpt lat="47.02969" lon="-1.97902">
        <ele>3.2</ele>
        <time>2020-06-04T15:48:02Z</time>
      </trkpt>
      <trkpt lat="47.02975" lon="-1.97904">
        <ele>3.2</ele>
        <time>2020-06-04T15:48:03Z</time>
      </trkpt>
      <trkpt lat="47.02981" lon="-1.97907">
        <ele>3.3</ele>
        <time>2020-06-04T15:48:04Z</time>
      </trkpt>
      <trkpt lat="47.02986" lon="-1.9791">
        <ele>3.3</ele>
        <time>2020-06-04T15:48:05Z</time>
      </trkpt>
      <trkpt lat="47.02992" lon="-1.97914">
        <ele>3.3</ele>
        <time>2020-06-04T15:48:06Z</time>
      </trkpt>
      <trkpt lat="47.02997" lon="-1.97917">
        <ele>3.3</ele>
        <time>2020-06-04T15:48:07Z</time>
      </trkpt>
      <trkpt lat="47.03002" lon="-1.9792">
        <ele>3.3</ele>
        <time>2020-06-04T15:48:08Z</time>
      </trkpt>
      <trkpt lat="47.03007" lon="-1.97923">
        <ele>3.3</ele>
        <time>2020-06-04T15:48:09Z</time>
      </trkpt>
      <trkpt lat="47.03013" lon="-1.97928">
        <ele>3.3</ele>
        <time>2020-06-04T15:48:10Z</time>
      </trkpt>
      <trkpt lat="47.03018" lon="-1.97931">
        <ele>3.3</ele>
        <time>2020-06-04T15:48:11Z</time>
      </trkpt>
      <trkpt lat="47.03022" lon="-1.97936">
        <ele>3.3</ele>
        <time>2020-06-04T15:48:12Z</time>
      </trkpt>
      <trkpt lat="47.03026" lon="-1.97939">
        <ele>3.3</ele>
        <time>2020-06-04T15:48:13Z</time>
      </trkpt>
      <trkpt lat="47.03031" lon="-1.97943">
        <ele>3.3</ele>
        <time>2020-06-04T15:48:14Z</time>
      </trkpt>
      <trkpt lat="47.03037" lon="-1.97947">
        <ele>3.3</ele>
        <time>2020-06-04T15:48:15Z</time>
      </trkpt>
      <trkpt lat="47.03042" lon="-1.97951">
        <ele>3.3</ele>
        <time>2020-06-04T15:48:16Z</time>
      </trkpt>
      <trkpt lat="47.03047" lon="-1.97955">
        <ele>3.3</ele>
        <time>2020-06-04T15:48:17Z</time>
      </trkpt>
      <trkpt lat="47.03053" lon="-1.9796">
        <ele>3.3</ele>
        <time>2020-06-04T15:48:18Z</time>
      </trkpt>
      <trkpt lat="47.03058" lon="-1.97964">
        <ele>3.3</ele>
        <time>2020-06-04T15:48:19Z</time>
      </trkpt>
      <trkpt lat="47.03063" lon="-1.9797">
        <ele>3.3</ele>
        <time>2020-06-04T15:48:20Z</time>
      </trkpt>
      <trkpt lat="47.03068" lon="-1.97975">
        <ele>3.3</ele>
        <time>2020-06-04T15:48:21Z</time>
      </trkpt>
      <trkpt lat="47.03073" lon="-1.97979">
        <ele>3.3</ele>
        <time>2020-06-04T15:48:22Z</time>
      </trkpt>
      <trkpt lat="47.03077" lon="-1.97982">
        <ele>3.3</ele>
        <time>2020-06-04T15:48:23Z</time>
      </trkpt>
      <trkpt lat="47.03082" lon="-1.97987">
        <ele>3.3</ele>
        <time>2020-06-04T15:48:24Z</time>
      </trkpt>
      <trkpt lat="47.03087" lon="-1.97992">
        <ele>3.3</ele>
        <time>2020-06-04T15:48:25Z</time>
      </trkpt>
      <trkpt lat="47.03091" lon="-1.97997">
        <ele>3.3</ele>
        <time>2020-06-04T15:48:26Z</time>
      </trkpt>
      <trkpt lat="47.03097" lon="-1.98002">
        <ele>3.3</ele>
        <time>2020-06-04T15:48:27Z</time>
      </trkpt>
      <trkpt lat="47.03102" lon="-1.98008">
        <ele>3.4</ele>
        <time>2020-06-04T15:48:28Z</time>
      </trkpt>
      <trkpt lat="47.03106" lon="-1.98013">
        <ele>3.4</ele>
        <time>2020-06-04T15:48:29Z</time>
      </trkpt>
      <trkpt lat="47.03112" lon="-1.98018">
        <ele>3.4</ele>
        <time>2020-06-04T15:48:30Z</time>
      </trkpt>
      <trkpt lat="47.03117" lon="-1.98023">
        <ele>3.4</ele>
        <time>2020-06-04T15:48:31Z</time>
      </trkpt>
      <trkpt lat="47.03122" lon="-1.9803">
        <ele>3.5</ele>
        <time>2020-06-04T15:48:32Z</time>
      </trkpt>
      <trkpt lat="47.03127" lon="-1.98036">
        <ele>3.5</ele>
        <time>2020-06-04T15:48:33Z</time>
      </trkpt>
      <trkpt lat="47.03132" lon="-1.98041">
        <ele>3.6</ele>
        <time>2020-06-04T15:48:34Z</time>
      </trkpt>
      <trkpt lat="47.03135" lon="-1.98048">
        <ele>3.6</ele>
        <time>2020-06-04T15:48:35Z</time>
      </trkpt>
      <trkpt lat="47.03139" lon="-1.98055">
        <ele>3.7</ele>
        <time>2020-06-04T15:48:36Z</time>
      </trkpt>
      <trkpt lat="47.03143" lon="-1.98062">
        <ele>3.8</ele>
        <time>2020-06-04T15:48:37Z</time>
      </trkpt>
      <trkpt lat="47.03147" lon="-1.98069">
        <ele>3.9</ele>
        <time>2020-06-04T15:48:38Z</time>
      </trkpt>
      <trkpt lat="47.03151" lon="-1.98076">
        <ele>3.9</ele>
        <time>2020-06-04T15:48:39Z</time>
      </trkpt>
      <trkpt lat="47.03155" lon="-1.98083">
        <ele>4</ele>
        <time>2020-06-04T15:48:40Z</time>
      </trkpt>
      <trkpt lat="47.03159" lon="-1.9809">
        <ele>4.1</ele>
        <time>2020-06-04T15:48:41Z</time>
      </trkpt>
      <trkpt lat="47.03163" lon="-1.98097">
        <ele>4.2</ele>
        <time>2020-06-04T15:48:42Z</time>
      </trkpt>
      <trkpt lat="47.03167" lon="-1.98102">
        <ele>4.3</ele>
        <time>2020-06-04T15:48:43Z</time>
      </trkpt>
      <trkpt lat="47.03171" lon="-1.9811">
        <ele>4.4</ele>
        <time>2020-06-04T15:48:44Z</time>
      </trkpt>
      <trkpt lat="47.03174" lon="-1.98116">
        <ele>4.6</ele>
        <time>2020-06-04T15:48:45Z</time>
      </trkpt>
      <trkpt lat="47.03178" lon="-1.98122">
        <ele>4.6</ele>
        <time>2020-06-04T15:48:46Z</time>
      </trkpt>
      <trkpt lat="47.03182" lon="-1.98129">
        <ele>4.7</ele>
        <time>2020-06-04T15:48:47Z</time>
      </trkpt>
      <trkpt lat="47.03185" lon="-1.98135">
        <ele>4.8</ele>
        <time>2020-06-04T15:48:48Z</time>
      </trkpt>
      <trkpt lat="47.03189" lon="-1.98141">
        <ele>4.9</ele>
        <time>2020-06-04T15:48:49Z</time>
      </trkpt>
      <trkpt lat="47.03192" lon="-1.98147">
        <ele>4.9</ele>
        <time>2020-06-04T15:48:50Z</time>
      </trkpt>
      <trkpt lat="47.03196" lon="-1.98152">
        <ele>5</ele>
        <time>2020-06-04T15:48:51Z</time>
      </trkpt>
      <trkpt lat="47.032" lon="-1.98158">
        <ele>5</ele>
        <time>2020-06-04T15:48:52Z</time>
      </trkpt>
      <trkpt lat="47.03204" lon="-1.98163">
        <ele>5.1</ele>
        <time>2020-06-04T15:48:53Z</time>
      </trkpt>
      <trkpt lat="47.0321" lon="-1.98168">
        <ele>5.1</ele>
        <time>2020-06-04T15:48:54Z</time>
      </trkpt>
      <trkpt lat="47.03215" lon="-1.9817">
        <ele>5.2</ele>
        <time>2020-06-04T15:48:55Z</time>
      </trkpt>
      <trkpt lat="47.03221" lon="-1.98172">
        <ele>5.3</ele>
        <time>2020-06-04T15:48:56Z</time>
      </trkpt>
      <trkpt lat="47.03227" lon="-1.98175">
        <ele>5.4</ele>
        <time>2020-06-04T15:48:57Z</time>
      </trkpt>
      <trkpt lat="47.03233" lon="-1.98177">
        <ele>5.5</ele>
        <time>2020-06-04T15:48:58Z</time>
      </trkpt>
      <trkpt lat="47.03238" lon="-1.98181">
        <ele>5.5</ele>
        <time>2020-06-04T15:48:59Z</time>
      </trkpt>
      <trkpt lat="47.03244" lon="-1.98184">
        <ele>5.6</ele>
        <time>2020-06-04T15:49:00Z</time>
      </trkpt>
      <trkpt lat="47.0325" lon="-1.98187">
        <ele>5.7</ele>
        <time>2020-06-04T15:49:01Z</time>
      </trkpt>
      <trkpt lat="47.03255" lon="-1.9819">
        <ele>5.7</ele>
        <time>2020-06-04T15:49:02Z</time>
      </trkpt>
      <trkpt lat="47.03261" lon="-1.98194">
        <ele>5.8</ele>
        <time>2020-06-04T15:49:03Z</time>
      </trkpt>
      <trkpt lat="47.03266" lon="-1.98198">
        <ele>5.9</ele>
        <time>2020-06-04T15:49:04Z</time>
      </trkpt>
      <trkpt lat="47.03272" lon="-1.98203">
        <ele>5.9</ele>
        <time>2020-06-04T15:49:05Z</time>
      </trkpt>
      <trkpt lat="47.03276" lon="-1.98206">
        <ele>5.9</ele>
        <time>2020-06-04T15:49:06Z</time>
      </trkpt>
      <trkpt lat="47.03281" lon="-1.98211">
        <ele>6</ele>
        <time>2020-06-04T15:49:07Z</time>
      </trkpt>
      <trkpt lat="47.03286" lon="-1.98216">
        <ele>6</ele>
        <time>2020-06-04T15:49:08Z</time>
      </trkpt>
      <trkpt lat="47.0329" lon="-1.98219">
        <ele>6</ele>
        <time>2020-06-04T15:49:09Z</time>
      </trkpt>
      <trkpt lat="47.03295" lon="-1.98225">
        <ele>6.1</ele>
        <time>2020-06-04T15:49:10Z</time>
      </trkpt>
      <trkpt lat="47.033" lon="-1.9823">
        <ele>6.1</ele>
        <time>2020-06-04T15:49:11Z</time>
      </trkpt>
      <trkpt lat="47.03305" lon="-1.98236">
        <ele>6.2</ele>
        <time>2020-06-04T15:49:12Z</time>
      </trkpt>
      <trkpt lat="47.03309" lon="-1.98241">
        <ele>6.2</ele>
        <time>2020-06-04T15:49:13Z</time>
      </trkpt>
      <trkpt lat="47.03313" lon="-1.98246">
        <ele>6.2</ele>
        <time>2020-06-04T15:49:14Z</time>
      </trkpt>
      <trkpt lat="47.03318" lon="-1.98251">
        <ele>6.2</ele>
        <time>2020-06-04T15:49:15Z</time>
      </trkpt>
      <trkpt lat="47.03321" lon="-1.98255">
        <ele>6.2</ele>
        <time>2020-06-04T15:49:16Z</time>
      </trkpt>
      <trkpt lat="47.03325" lon="-1.98259">
        <ele>6.2</ele>
        <time>2020-06-04T15:49:17Z</time>
      </trkpt>
      <trkpt lat="47.03329" lon="-1.98264">
        <ele>6.2</ele>
        <time>2020-06-04T15:49:18Z</time>
      </trkpt>
      <trkpt lat="47.03334" lon="-1.98269">
        <ele>6.2</ele>
        <time>2020-06-04T15:49:19Z</time>
      </trkpt>
      <trkpt lat="47.03338" lon="-1.98273">
        <ele>6.3</ele>
        <time>2020-06-04T15:49:20Z</time>
      </trkpt>
      <trkpt lat="47.03342" lon="-1.98278">
        <ele>6.3</ele>
        <time>2020-06-04T15:49:21Z</time>
      </trkpt>
      <trkpt lat="47.03347" lon="-1.98281">
        <ele>6.3</ele>
        <time>2020-06-04T15:49:22Z</time>
      </trkpt>
      <trkpt lat="47.0335" lon="-1.98287">
        <ele>6.3</ele>
        <time>2020-06-04T15:49:23Z</time>
      </trkpt>
      <trkpt lat="47.03355" lon="-1.98292">
        <ele>6.4</ele>
        <time>2020-06-04T15:49:24Z</time>
      </trkpt>
      <trkpt lat="47.0336" lon="-1.98297">
        <ele>6.4</ele>
        <time>2020-06-04T15:49:25Z</time>
      </trkpt>
      <trkpt lat="47.03364" lon="-1.983">
        <ele>6.4</ele>
        <time>2020-06-04T15:49:26Z</time>
      </trkpt>
      <trkpt lat="47.03368" lon="-1.98305">
        <ele>6.4</ele>
        <time>2020-06-04T15:49:27Z</time>
      </trkpt>
      <trkpt lat="47.03372" lon="-1.9831">
        <ele>6.4</ele>
        <time>2020-06-04T15:49:28Z</time>
      </trkpt>
      <trkpt lat="47.03376" lon="-1.98313">
        <ele>6.4</ele>
        <time>2020-06-04T15:49:29Z</time>
      </trkpt>
      <trkpt lat="47.03381" lon="-1.98317">
        <ele>6.4</ele>
        <time>2020-06-04T15:49:30Z</time>
      </trkpt>
      <trkpt lat="47.03387" lon="-1.98322">
        <ele>6.4</ele>
        <time>2020-06-04T15:49:31Z</time>
      </trkpt>
      <trkpt lat="47.03392" lon="-1.98327">
        <ele>6.4</ele>
        <time>2020-06-04T15:49:32Z</time>
      </trkpt>
      <trkpt lat="47.03397" lon="-1.98331">
        <ele>6.4</ele>
        <time>2020-06-04T15:49:33Z</time>
      </trkpt>
      <trkpt lat="47.03401" lon="-1.98335">
        <ele>6.4</ele>
        <time>2020-06-04T15:49:34Z</time>
      </trkpt>
      <trkpt lat="47.03406" lon="-1.98339">
        <ele>6.4</ele>
        <time>2020-06-04T15:49:35Z</time>
      </trkpt>
      <trkpt lat="47.03411" lon="-1.98344">
        <ele>6.4</ele>
        <time>2020-06-04T15:49:36Z</time>
      </trkpt>
      <trkpt lat="47.03416" lon="-1.98348">
        <ele>6.4</ele>
        <time>2020-06-04T15:49:37Z</time>
      </trkpt>
      <trkpt lat="47.03422" lon="-1.98353">
        <ele>6.4</ele>
        <time>2020-06-04T15:49:38Z</time>
      </trkpt>
      <trkpt lat="47.03427" lon="-1.98358">
        <ele>6.4</ele>
        <time>2020-06-04T15:49:39Z</time>
      </trkpt>
      <trkpt lat="47.03431" lon="-1.98362">
        <ele>6.4</ele>
        <time>2020-06-04T15:49:40Z</time>
      </trkpt>
      <trkpt lat="47.03435" lon="-1.98365">
        <ele>6.4</ele>
        <time>2020-06-04T15:49:41Z</time>
      </trkpt>
      <trkpt lat="47.03441" lon="-1.98369">
        <ele>6.4</ele>
        <time>2020-06-04T15:49:42Z</time>
      </trkpt>
      <trkpt lat="47.03446" lon="-1.98374">
        <ele>6.5</ele>
        <time>2020-06-04T15:49:43Z</time>
      </trkpt>
      <trkpt lat="47.03451" lon="-1.98378">
        <ele>6.5</ele>
        <time>2020-06-04T15:49:44Z</time>
      </trkpt>
      <trkpt lat="47.03457" lon="-1.9838">
        <ele>6.5</ele>
        <time>2020-06-04T15:49:45Z</time>
      </trkpt>
      <trkpt lat="47.03461" lon="-1.98384">
        <ele>6.5</ele>
        <time>2020-06-04T15:49:46Z</time>
      </trkpt>
      <trkpt lat="47.03465" lon="-1.9839">
        <ele>6.5</ele>
        <time>2020-06-04T15:49:47Z</time>
      </trkpt>
      <trkpt lat="47.03471" lon="-1.98395">
        <ele>6.5</ele>
        <time>2020-06-04T15:49:48Z</time>
      </trkpt>
      <trkpt lat="47.03475" lon="-1.98399">
        <ele>6.5</ele>
        <time>2020-06-04T15:49:49Z</time>
      </trkpt>
      <trkpt lat="47.03479" lon="-1.98402">
        <ele>6.4</ele>
        <time>2020-06-04T15:49:50Z</time>
      </trkpt>
      <trkpt lat="47.03484" lon="-1.98407">
        <ele>6.4</ele>
        <time>2020-06-04T15:49:51Z</time>
      </trkpt>
      <trkpt lat="47.03489" lon="-1.98411">
        <ele>6.4</ele>
        <time>2020-06-04T15:49:52Z</time>
      </trkpt>
      <trkpt lat="47.03494" lon="-1.98416">
        <ele>6.3</ele>
        <time>2020-06-04T15:49:53Z</time>
      </trkpt>
      <trkpt lat="47.03499" lon="-1.9842">
        <ele>6.3</ele>
        <time>2020-06-04T15:49:54Z</time>
      </trkpt>
      <trkpt lat="47.03504" lon="-1.98423">
        <ele>6.3</ele>
        <time>2020-06-04T15:49:55Z</time>
      </trkpt>
      <trkpt lat="47.03509" lon="-1.98428">
        <ele>6.3</ele>
        <time>2020-06-04T15:49:56Z</time>
      </trkpt>
      <trkpt lat="47.03514" lon="-1.98431">
        <ele>6.2</ele>
        <time>2020-06-04T15:49:57Z</time>
      </trkpt>
      <trkpt lat="47.03517" lon="-1.98435">
        <ele>6.2</ele>
        <time>2020-06-04T15:49:58Z</time>
      </trkpt>
      <trkpt lat="47.03521" lon="-1.98438">
        <ele>6.2</ele>
        <time>2020-06-04T15:49:59Z</time>
      </trkpt>
      <trkpt lat="47.03525" lon="-1.98441">
        <ele>6.1</ele>
        <time>2020-06-04T15:50:00Z</time>
      </trkpt>
      <trkpt lat="47.03528" lon="-1.98445">
        <ele>6.1</ele>
        <time>2020-06-04T15:50:01Z</time>
      </trkpt>
      <trkpt lat="47.03532" lon="-1.98449">
        <ele>6</ele>
        <time>2020-06-04T15:50:02Z</time>
      </trkpt>
      <trkpt lat="47.03535" lon="-1.98452">
        <ele>6</ele>
        <time>2020-06-04T15:50:03Z</time>
      </trkpt>
      <trkpt lat="47.03539" lon="-1.98455">
        <ele>6</ele>
        <time>2020-06-04T15:50:04Z</time>
      </trkpt>
      <trkpt lat="47.03543" lon="-1.98458">
        <ele>5.9</ele>
        <time>2020-06-04T15:50:05Z</time>
      </trkpt>
      <trkpt lat="47.03546" lon="-1.98461">
        <ele>5.9</ele>
        <time>2020-06-04T15:50:06Z</time>
      </trkpt>
      <trkpt lat="47.03549" lon="-1.98464">
        <ele>5.9</ele>
        <time>2020-06-04T15:50:07Z</time>
      </trkpt>
      <trkpt lat="47.03552" lon="-1.98467">
        <ele>5.9</ele>
        <time>2020-06-04T15:50:08Z</time>
      </trkpt>
      <trkpt lat="47.03555" lon="-1.98469">
        <ele>5.9</ele>
        <time>2020-06-04T15:50:09Z</time>
      </trkpt>
      <trkpt lat="47.03558" lon="-1.98471">
        <ele>5.9</ele>
        <time>2020-06-04T15:50:10Z</time>
      </trkpt>
      <trkpt lat="47.03562" lon="-1.98474">
        <ele>5.9</ele>
        <time>2020-06-04T15:50:11Z</time>
      </trkpt>
      <trkpt lat="47.03565" lon="-1.98476">
        <ele>5.8</ele>
        <time>2020-06-04T15:50:12Z</time>
      </trkpt>
      <trkpt lat="47.03567" lon="-1.98479">
        <ele>5.8</ele>
        <time>2020-06-04T15:50:13Z</time>
      </trkpt>
      <trkpt lat="47.0357" lon="-1.98481">
        <ele>5.8</ele>
        <time>2020-06-04T15:50:14Z</time>
      </trkpt>
      <trkpt lat="47.03571" lon="-1.98482">
        <ele>5.8</ele>
        <time>2020-06-04T15:50:15Z</time>
      </trkpt>
      <trkpt lat="47.03575" lon="-1.98485">
        <ele>5.8</ele>
        <time>2020-06-04T15:50:16Z</time>
      </trkpt>
      <trkpt lat="47.03576" lon="-1.98485">
        <ele>5.8</ele>
        <time>2020-06-04T15:50:17Z</time>
      </trkpt>
      <trkpt lat="47.03579" lon="-1.98487">
        <ele>5.8</ele>
        <time>2020-06-04T15:50:18Z</time>
      </trkpt>
      <trkpt lat="47.03582" lon="-1.98488">
        <ele>5.7</ele>
        <time>2020-06-04T15:50:19Z</time>
      </trkpt>
      <trkpt lat="47.03585" lon="-1.9849">
        <ele>5.7</ele>
        <time>2020-06-04T15:50:20Z</time>
      </trkpt>
      <trkpt lat="47.03586" lon="-1.98492">
        <ele>5.7</ele>
        <time>2020-06-04T15:50:21Z</time>
      </trkpt>
      <trkpt lat="47.03589" lon="-1.98495">
        <ele>5.7</ele>
        <time>2020-06-04T15:50:22Z</time>
      </trkpt>
      <trkpt lat="47.03591" lon="-1.98497">
        <ele>5.7</ele>
        <time>2020-06-04T15:50:23Z</time>
      </trkpt>
      <trkpt lat="47.03593" lon="-1.985">
        <ele>5.7</ele>
        <time>2020-06-04T15:50:24Z</time>
      </trkpt>
      <trkpt lat="47.03596" lon="-1.98502">
        <ele>5.6</ele>
        <time>2020-06-04T15:50:25Z</time>
      </trkpt>
      <trkpt lat="47.03597" lon="-1.98503">
        <ele>5.6</ele>
        <time>2020-06-04T15:50:26Z</time>
      </trkpt>
      <trkpt lat="47.03601" lon="-1.98505">
        <ele>5.6</ele>
        <time>2020-06-04T15:50:27Z</time>
      </trkpt>
      <trkpt lat="47.03602" lon="-1.98506">
        <ele>5.6</ele>
        <time>2020-06-04T15:50:28Z</time>
      </trkpt>
      <trkpt lat="47.03604" lon="-1.98508">
        <ele>5.6</ele>
        <time>2020-06-04T15:50:29Z</time>
      </trkpt>
      <trkpt lat="47.03605" lon="-1.98509">
        <ele>5.6</ele>
        <time>2020-06-04T15:50:30Z</time>
      </trkpt>
      <trkpt lat="47.03606" lon="-1.9851">
        <ele>5.5</ele>
        <time>2020-06-04T15:50:31Z</time>
      </trkpt>
      <trkpt lat="47.03609" lon="-1.98513">
        <ele>5.5</ele>
        <time>2020-06-04T15:50:32Z</time>
      </trkpt>
      <trkpt lat="47.03613" lon="-1.98516">
        <ele>5.5</ele>
        <time>2020-06-04T15:50:33Z</time>
      </trkpt>
      <trkpt lat="47.03615" lon="-1.98517">
        <ele>5.4</ele>
        <time>2020-06-04T15:50:34Z</time>
      </trkpt>
      <trkpt lat="47.03618" lon="-1.98519">
        <ele>5.4</ele>
        <time>2020-06-04T15:50:35Z</time>
      </trkpt>
      <trkpt lat="47.0362" lon="-1.98522">
        <ele>5.4</ele>
        <time>2020-06-04T15:50:36Z</time>
      </trkpt>
      <trkpt lat="47.03622" lon="-1.98524">
        <ele>5.3</ele>
        <time>2020-06-04T15:50:37Z</time>
      </trkpt>
      <trkpt lat="47.03625" lon="-1.98526">
        <ele>5.3</ele>
        <time>2020-06-04T15:50:38Z</time>
      </trkpt>
      <trkpt lat="47.03628" lon="-1.98528">
        <ele>5.3</ele>
        <time>2020-06-04T15:50:39Z</time>
      </trkpt>
      <trkpt lat="47.03632" lon="-1.98529">
        <ele>5.2</ele>
        <time>2020-06-04T15:50:40Z</time>
      </trkpt>
      <trkpt lat="47.03635" lon="-1.98531">
        <ele>5.2</ele>
        <time>2020-06-04T15:50:41Z</time>
      </trkpt>
      <trkpt lat="47.03638" lon="-1.98532">
        <ele>5.2</ele>
        <time>2020-06-04T15:50:42Z</time>
      </trkpt>
      <trkpt lat="47.03641" lon="-1.98533">
        <ele>5.1</ele>
        <time>2020-06-04T15:50:43Z</time>
      </trkpt>
      <trkpt lat="47.03645" lon="-1.98534">
        <ele>5.1</ele>
        <time>2020-06-04T15:50:44Z</time>
      </trkpt>
      <trkpt lat="47.03648" lon="-1.98536">
        <ele>5</ele>
        <time>2020-06-04T15:50:45Z</time>
      </trkpt>
      <trkpt lat="47.03652" lon="-1.98537">
        <ele>5</ele>
        <time>2020-06-04T15:50:46Z</time>
      </trkpt>
      <trkpt lat="47.03655" lon="-1.98537">
        <ele>4.9</ele>
        <time>2020-06-04T15:50:47Z</time>
      </trkpt>
      <trkpt lat="47.03661" lon="-1.98536">
        <ele>4.8</ele>
        <time>2020-06-04T15:50:48Z</time>
      </trkpt>
      <trkpt lat="47.03665" lon="-1.98538">
        <ele>4.7</ele>
        <time>2020-06-04T15:50:49Z</time>
      </trkpt>
      <trkpt lat="47.0367" lon="-1.98536">
        <ele>4.6</ele>
        <time>2020-06-04T15:50:50Z</time>
      </trkpt>
      <trkpt lat="47.03674" lon="-1.98538">
        <ele>4.5</ele>
        <time>2020-06-04T15:50:51Z</time>
      </trkpt>
      <trkpt lat="47.03678" lon="-1.98538">
        <ele>4.4</ele>
        <time>2020-06-04T15:50:52Z</time>
      </trkpt>
      <trkpt lat="47.03683" lon="-1.98537">
        <ele>4.3</ele>
        <time>2020-06-04T15:50:53Z</time>
      </trkpt>
      <trkpt lat="47.03687" lon="-1.98536">
        <ele>4.2</ele>
        <time>2020-06-04T15:50:54Z</time>
      </trkpt>
      <trkpt lat="47.03692" lon="-1.98534">
        <ele>4.1</ele>
        <time>2020-06-04T15:50:55Z</time>
      </trkpt>
      <trkpt lat="47.03696" lon="-1.98533">
        <ele>4</ele>
        <time>2020-06-04T15:50:56Z</time>
      </trkpt>
      <trkpt lat="47.03699" lon="-1.98533">
        <ele>3.9</ele>
        <time>2020-06-04T15:50:57Z</time>
      </trkpt>
      <trkpt lat="47.03703" lon="-1.98533">
        <ele>3.9</ele>
        <time>2020-06-04T15:50:58Z</time>
      </trkpt>
      <trkpt lat="47.03706" lon="-1.98531">
        <ele>3.8</ele>
        <time>2020-06-04T15:50:59Z</time>
      </trkpt>
      <trkpt lat="47.03708" lon="-1.98531">
        <ele>3.8</ele>
        <time>2020-06-04T15:51:00Z</time>
      </trkpt>
      <trkpt lat="47.03711" lon="-1.98531">
        <ele>3.7</ele>
        <time>2020-06-04T15:51:01Z</time>
      </trkpt>
      <trkpt lat="47.03714" lon="-1.98531">
        <ele>3.6</ele>
        <time>2020-06-04T15:51:02Z</time>
      </trkpt>
      <trkpt lat="47.03717" lon="-1.9853">
        <ele>3.5</ele>
        <time>2020-06-04T15:51:03Z</time>
      </trkpt>
      <trkpt lat="47.03721" lon="-1.98529">
        <ele>3.4</ele>
        <time>2020-06-04T15:51:04Z</time>
      </trkpt>
      <trkpt lat="47.03725" lon="-1.98528">
        <ele>3.3</ele>
        <time>2020-06-04T15:51:05Z</time>
      </trkpt>
      <trkpt lat="47.03729" lon="-1.98527">
        <ele>3.2</ele>
        <time>2020-06-04T15:51:06Z</time>
      </trkpt>
      <trkpt lat="47.03733" lon="-1.98527">
        <ele>3.1</ele>
        <time>2020-06-04T15:51:07Z</time>
      </trkpt>
      <trkpt lat="47.03737" lon="-1.98526">
        <ele>3.1</ele>
        <time>2020-06-04T15:51:08Z</time>
      </trkpt>
      <trkpt lat="47.03741" lon="-1.98525">
        <ele>3</ele>
        <time>2020-06-04T15:51:09Z</time>
      </trkpt>
      <trkpt lat="47.03746" lon="-1.98523">
        <ele>2.9</ele>
        <time>2020-06-04T15:51:10Z</time>
      </trkpt>
      <trkpt lat="47.0375" lon="-1.98522">
        <ele>2.9</ele>
        <time>2020-06-04T15:51:11Z</time>
      </trkpt>
      <trkpt lat="47.03755" lon="-1.98521">
        <ele>2.8</ele>
        <time>2020-06-04T15:51:12Z</time>
      </trkpt>
      <trkpt lat="47.0376" lon="-1.98521">
        <ele>2.8</ele>
        <time>2020-06-04T15:51:13Z</time>
      </trkpt>
      <trkpt lat="47.03764" lon="-1.98521">
        <ele>2.7</ele>
        <time>2020-06-04T15:51:14Z</time>
      </trkpt>
      <trkpt lat="47.03769" lon="-1.98521">
        <ele>2.7</ele>
        <time>2020-06-04T15:51:15Z</time>
      </trkpt>
      <trkpt lat="47.03773" lon="-1.9852">
        <ele>2.7</ele>
        <time>2020-06-04T15:51:16Z</time>
      </trkpt>
      <trkpt lat="47.03778" lon="-1.98518">
        <ele>2.6</ele>
        <time>2020-06-04T15:51:17Z</time>
      </trkpt>
      <trkpt lat="47.03782" lon="-1.98518">
        <ele>2.6</ele>
        <time>2020-06-04T15:51:18Z</time>
      </trkpt>
      <trkpt lat="47.03786" lon="-1.98517">
        <ele>2.6</ele>
        <time>2020-06-04T15:51:19Z</time>
      </trkpt>
      <trkpt lat="47.0379" lon="-1.98516">
        <ele>2.6</ele>
        <time>2020-06-04T15:51:20Z</time>
      </trkpt>
      <trkpt lat="47.03795" lon="-1.98516">
        <ele>2.6</ele>
        <time>2020-06-04T15:51:21Z</time>
      </trkpt>
      <trkpt lat="47.03799" lon="-1.98516">
        <ele>2.6</ele>
        <time>2020-06-04T15:51:22Z</time>
      </trkpt>
      <trkpt lat="47.03803" lon="-1.98515">
        <ele>2.6</ele>
        <time>2020-06-04T15:51:23Z</time>
      </trkpt>
      <trkpt lat="47.03807" lon="-1.98514">
        <ele>2.5</ele>
        <time>2020-06-04T15:51:24Z</time>
      </trkpt>
      <trkpt lat="47.03811" lon="-1.98513">
        <ele>2.5</ele>
        <time>2020-06-04T15:51:25Z</time>
      </trkpt>
      <trkpt lat="47.03814" lon="-1.98511">
        <ele>2.5</ele>
        <time>2020-06-04T15:51:26Z</time>
      </trkpt>
      <trkpt lat="47.03817" lon="-1.98511">
        <ele>2.4</ele>
        <time>2020-06-04T15:51:27Z</time>
      </trkpt>
      <trkpt lat="47.0382" lon="-1.9851">
        <ele>2.4</ele>
        <time>2020-06-04T15:51:28Z</time>
      </trkpt>
      <trkpt lat="47.03824" lon="-1.98509">
        <ele>2.4</ele>
        <time>2020-06-04T15:51:29Z</time>
      </trkpt>
      <trkpt lat="47.03828" lon="-1.9851">
        <ele>2.4</ele>
        <time>2020-06-04T15:51:30Z</time>
      </trkpt>
      <trkpt lat="47.03831" lon="-1.9851">
        <ele>2.4</ele>
        <time>2020-06-04T15:51:31Z</time>
      </trkpt>
      <trkpt lat="47.03836" lon="-1.98512">
        <ele>2.4</ele>
        <time>2020-06-04T15:51:32Z</time>
      </trkpt>
      <trkpt lat="47.03841" lon="-1.98515">
        <ele>2.5</ele>
        <time>2020-06-04T15:51:33Z</time>
      </trkpt>
      <trkpt lat="47.03846" lon="-1.98515">
        <ele>2.5</ele>
        <time>2020-06-04T15:51:34Z</time>
      </trkpt>
      <trkpt lat="47.0385" lon="-1.98516">
        <ele>2.5</ele>
        <time>2020-06-04T15:51:35Z</time>
      </trkpt>
      <trkpt lat="47.03854" lon="-1.98517">
        <ele>2.5</ele>
        <time>2020-06-04T15:51:36Z</time>
      </trkpt>
      <trkpt lat="47.03858" lon="-1.98519">
        <ele>2.5</ele>
        <time>2020-06-04T15:51:37Z</time>
      </trkpt>
      <trkpt lat="47.03862" lon="-1.98521">
        <ele>2.5</ele>
        <time>2020-06-04T15:51:38Z</time>
      </trkpt>
      <trkpt lat="47.03867" lon="-1.98525">
        <ele>2.5</ele>
        <time>2020-06-04T15:51:39Z</time>
      </trkpt>
      <trkpt lat="47.03871" lon="-1.98528">
        <ele>2.5</ele>
        <time>2020-06-04T15:51:40Z</time>
      </trkpt>
      <trkpt lat="47.03875" lon="-1.98531">
        <ele>2.5</ele>
        <time>2020-06-04T15:51:41Z</time>
      </trkpt>
      <trkpt lat="47.03879" lon="-1.98535">
        <ele>2.5</ele>
        <time>2020-06-04T15:51:42Z</time>
      </trkpt>
      <trkpt lat="47.03883" lon="-1.98539">
        <ele>2.5</ele>
        <time>2020-06-04T15:51:43Z</time>
      </trkpt>
      <trkpt lat="47.03886" lon="-1.98543">
        <ele>2.5</ele>
        <time>2020-06-04T15:51:44Z</time>
      </trkpt>
      <trkpt lat="47.0389" lon="-1.98547">
        <ele>2.5</ele>
        <time>2020-06-04T15:51:45Z</time>
      </trkpt>
      <trkpt lat="47.03893" lon="-1.98552">
        <ele>2.5</ele>
        <time>2020-06-04T15:51:46Z</time>
      </trkpt>
      <trkpt lat="47.03897" lon="-1.98556">
        <ele>2.5</ele>
        <time>2020-06-04T15:51:47Z</time>
      </trkpt>
      <trkpt lat="47.03902" lon="-1.98562">
        <ele>2.5</ele>
        <time>2020-06-04T15:51:48Z</time>
      </trkpt>
      <trkpt lat="47.03906" lon="-1.98566">
        <ele>2.5</ele>
        <time>2020-06-04T15:51:49Z</time>
      </trkpt>
      <trkpt lat="47.0391" lon="-1.9857">
        <ele>2.5</ele>
        <time>2020-06-04T15:51:50Z</time>
      </trkpt>
      <trkpt lat="47.03913" lon="-1.98575">
        <ele>2.4</ele>
        <time>2020-06-04T15:51:51Z</time>
      </trkpt>
      <trkpt lat="47.03918" lon="-1.98579">
        <ele>2.4</ele>
        <time>2020-06-04T15:51:52Z</time>
      </trkpt>
      <trkpt lat="47.03921" lon="-1.98585">
        <ele>2.4</ele>
        <time>2020-06-04T15:51:53Z</time>
      </trkpt>
      <trkpt lat="47.03926" lon="-1.98591">
        <ele>2.4</ele>
        <time>2020-06-04T15:51:54Z</time>
      </trkpt>
      <trkpt lat="47.0393" lon="-1.98595">
        <ele>2.4</ele>
        <time>2020-06-04T15:51:55Z</time>
      </trkpt>
      <trkpt lat="47.03934" lon="-1.98599">
        <ele>2.4</ele>
        <time>2020-06-04T15:51:56Z</time>
      </trkpt>
      <trkpt lat="47.03937" lon="-1.98604">
        <ele>2.4</ele>
        <time>2020-06-04T15:51:57Z</time>
      </trkpt>
      <trkpt lat="47.03941" lon="-1.98608">
        <ele>2.5</ele>
        <time>2020-06-04T15:51:58Z</time>
      </trkpt>
      <trkpt lat="47.03945" lon="-1.98614">
        <ele>2.5</ele>
        <time>2020-06-04T15:51:59Z</time>
      </trkpt>
      <trkpt lat="47.03949" lon="-1.9862">
        <ele>2.5</ele>
        <time>2020-06-04T15:52:00Z</time>
      </trkpt>
      <trkpt lat="47.03952" lon="-1.98626">
        <ele>2.5</ele>
        <time>2020-06-04T15:52:01Z</time>
      </trkpt>
      <trkpt lat="47.03955" lon="-1.9863">
        <ele>2.5</ele>
        <time>2020-06-04T15:52:02Z</time>
      </trkpt>
      <trkpt lat="47.03959" lon="-1.98637">
        <ele>2.6</ele>
        <time>2020-06-04T15:52:03Z</time>
      </trkpt>
      <trkpt lat="47.03962" lon="-1.98644">
        <ele>2.6</ele>
        <time>2020-06-04T15:52:04Z</time>
      </trkpt>
      <trkpt lat="47.03965" lon="-1.9865">
        <ele>2.6</ele>
        <time>2020-06-04T15:52:05Z</time>
      </trkpt>
      <trkpt lat="47.03969" lon="-1.98657">
        <ele>2.6</ele>
        <time>2020-06-04T15:52:06Z</time>
      </trkpt>
      <trkpt lat="47.03972" lon="-1.98663">
        <ele>2.7</ele>
        <time>2020-06-04T15:52:07Z</time>
      </trkpt>
      <trkpt lat="47.03976" lon="-1.98668">
        <ele>2.7</ele>
        <time>2020-06-04T15:52:08Z</time>
      </trkpt>
      <trkpt lat="47.03979" lon="-1.98674">
        <ele>2.7</ele>
        <time>2020-06-04T15:52:09Z</time>
      </trkpt>
      <trkpt lat="47.03983" lon="-1.9868">
        <ele>2.7</ele>
        <time>2020-06-04T15:52:10Z</time>
      </trkpt>
      <trkpt lat="47.03986" lon="-1.98686">
        <ele>2.7</ele>
        <time>2020-06-04T15:52:11Z</time>
      </trkpt>
      <trkpt lat="47.03989" lon="-1.98693">
        <ele>2.7</ele>
        <time>2020-06-04T15:52:12Z</time>
      </trkpt>
      <trkpt lat="47.03993" lon="-1.98699">
        <ele>2.7</ele>
        <time>2020-06-04T15:52:13Z</time>
      </trkpt>
      <trkpt lat="47.03997" lon="-1.98705">
        <ele>2.7</ele>
        <time>2020-06-04T15:52:14Z</time>
      </trkpt>
      <trkpt lat="47.04" lon="-1.98711">
        <ele>2.7</ele>
        <time>2020-06-04T15:52:15Z</time>
      </trkpt>
      <trkpt lat="47.04004" lon="-1.98719">
        <ele>2.7</ele>
        <time>2020-06-04T15:52:16Z</time>
      </trkpt>
      <trkpt lat="47.04007" lon="-1.98725">
        <ele>2.8</ele>
        <time>2020-06-04T15:52:17Z</time>
      </trkpt>
      <trkpt lat="47.04009" lon="-1.98732">
        <ele>2.9</ele>
        <time>2020-06-04T15:52:18Z</time>
      </trkpt>
      <trkpt lat="47.04014" lon="-1.98737">
        <ele>3</ele>
        <time>2020-06-04T15:52:19Z</time>
      </trkpt>
      <trkpt lat="47.04017" lon="-1.98744">
        <ele>3.1</ele>
        <time>2020-06-04T15:52:20Z</time>
      </trkpt>
      <trkpt lat="47.04021" lon="-1.9875">
        <ele>3.2</ele>
        <time>2020-06-04T15:52:21Z</time>
      </trkpt>
      <trkpt lat="47.04024" lon="-1.98756">
        <ele>3.3</ele>
        <time>2020-06-04T15:52:22Z</time>
      </trkpt>
      <trkpt lat="47.04028" lon="-1.98763">
        <ele>3.4</ele>
        <time>2020-06-04T15:52:23Z</time>
      </trkpt>
      <trkpt lat="47.04032" lon="-1.9877">
        <ele>3.5</ele>
        <time>2020-06-04T15:52:24Z</time>
      </trkpt>
      <trkpt lat="47.04036" lon="-1.98775">
        <ele>3.5</ele>
        <time>2020-06-04T15:52:25Z</time>
      </trkpt>
      <trkpt lat="47.04038" lon="-1.98781">
        <ele>3.6</ele>
        <time>2020-06-04T15:52:26Z</time>
      </trkpt>
      <trkpt lat="47.04042" lon="-1.98786">
        <ele>3.6</ele>
        <time>2020-06-04T15:52:27Z</time>
      </trkpt>
      <trkpt lat="47.04045" lon="-1.98793">
        <ele>3.6</ele>
        <time>2020-06-04T15:52:28Z</time>
      </trkpt>
      <trkpt lat="47.04049" lon="-1.988">
        <ele>3.6</ele>
        <time>2020-06-04T15:52:29Z</time>
      </trkpt>
      <trkpt lat="47.04054" lon="-1.98805">
        <ele>3.7</ele>
        <time>2020-06-04T15:52:30Z</time>
      </trkpt>
      <trkpt lat="47.04058" lon="-1.98811">
        <ele>3.7</ele>
        <time>2020-06-04T15:52:31Z</time>
      </trkpt>
      <trkpt lat="47.04062" lon="-1.98817">
        <ele>3.7</ele>
        <time>2020-06-04T15:52:32Z</time>
      </trkpt>
      <trkpt lat="47.04065" lon="-1.98821">
        <ele>3.7</ele>
        <time>2020-06-04T15:52:33Z</time>
      </trkpt>
      <trkpt lat="47.0407" lon="-1.98827">
        <ele>3.7</ele>
        <time>2020-06-04T15:52:34Z</time>
      </trkpt>
      <trkpt lat="47.04073" lon="-1.98833">
        <ele>3.7</ele>
        <time>2020-06-04T15:52:35Z</time>
      </trkpt>
      <trkpt lat="47.04078" lon="-1.98838">
        <ele>3.7</ele>
        <time>2020-06-04T15:52:36Z</time>
      </trkpt>
      <trkpt lat="47.04082" lon="-1.98843">
        <ele>3.7</ele>
        <time>2020-06-04T15:52:37Z</time>
      </trkpt>
      <trkpt lat="47.04087" lon="-1.98847">
        <ele>3.7</ele>
        <time>2020-06-04T15:52:38Z</time>
      </trkpt>
      <trkpt lat="47.04091" lon="-1.98851">
        <ele>3.7</ele>
        <time>2020-06-04T15:52:39Z</time>
      </trkpt>
      <trkpt lat="47.04096" lon="-1.98855">
        <ele>3.7</ele>
        <time>2020-06-04T15:52:40Z</time>
      </trkpt>
      <trkpt lat="47.04101" lon="-1.98858">
        <ele>3.7</ele>
        <time>2020-06-04T15:52:41Z</time>
      </trkpt>
      <trkpt lat="47.04106" lon="-1.98861">
        <ele>3.7</ele>
        <time>2020-06-04T15:52:42Z</time>
      </trkpt>
      <trkpt lat="47.0411" lon="-1.98865">
        <ele>3.7</ele>
        <time>2020-06-04T15:52:43Z</time>
      </trkpt>
      <trkpt lat="47.04115" lon="-1.98868">
        <ele>3.7</ele>
        <time>2020-06-04T15:52:44Z</time>
      </trkpt>
      <trkpt lat="47.0412" lon="-1.9887">
        <ele>3.7</ele>
        <time>2020-06-04T15:52:45Z</time>
      </trkpt>
      <trkpt lat="47.04125" lon="-1.98875">
        <ele>3.7</ele>
        <time>2020-06-04T15:52:46Z</time>
      </trkpt>
      <trkpt lat="47.04131" lon="-1.98878">
        <ele>3.7</ele>
        <time>2020-06-04T15:52:47Z</time>
      </trkpt>
      <trkpt lat="47.04135" lon="-1.98882">
        <ele>3.8</ele>
        <time>2020-06-04T15:52:48Z</time>
      </trkpt>
      <trkpt lat="47.0414" lon="-1.98886">
        <ele>3.8</ele>
        <time>2020-06-04T15:52:49Z</time>
      </trkpt>
      <trkpt lat="47.04145" lon="-1.9889">
        <ele>3.8</ele>
        <time>2020-06-04T15:52:50Z</time>
      </trkpt>
      <trkpt lat="47.04149" lon="-1.98893">
        <ele>3.8</ele>
        <time>2020-06-04T15:52:51Z</time>
      </trkpt>
      <trkpt lat="47.04153" lon="-1.98896">
        <ele>3.8</ele>
        <time>2020-06-04T15:52:52Z</time>
      </trkpt>
      <trkpt lat="47.04157" lon="-1.989">
        <ele>3.7</ele>
        <time>2020-06-04T15:52:53Z</time>
      </trkpt>
      <trkpt lat="47.04161" lon="-1.98903">
        <ele>3.7</ele>
        <time>2020-06-04T15:52:54Z</time>
      </trkpt>
      <trkpt lat="47.04166" lon="-1.98907">
        <ele>3.7</ele>
        <time>2020-06-04T15:52:55Z</time>
      </trkpt>
      <trkpt lat="47.0417" lon="-1.98911">
        <ele>3.7</ele>
        <time>2020-06-04T15:52:56Z</time>
      </trkpt>
      <trkpt lat="47.04175" lon="-1.98915">
        <ele>3.8</ele>
        <time>2020-06-04T15:52:57Z</time>
      </trkpt>
      <trkpt lat="47.04181" lon="-1.98918">
        <ele>3.8</ele>
        <time>2020-06-04T15:52:58Z</time>
      </trkpt>
      <trkpt lat="47.04187" lon="-1.98922">
        <ele>3.8</ele>
        <time>2020-06-04T15:52:59Z</time>
      </trkpt>
      <trkpt lat="47.0419" lon="-1.98926">
        <ele>3.8</ele>
        <time>2020-06-04T15:53:00Z</time>
      </trkpt>
      <trkpt lat="47.04195" lon="-1.9893">
        <ele>3.8</ele>
        <time>2020-06-04T15:53:01Z</time>
      </trkpt>
      <trkpt lat="47.04199" lon="-1.98934">
        <ele>3.8</ele>
        <time>2020-06-04T15:53:02Z</time>
      </trkpt>
      <trkpt lat="47.04204" lon="-1.98938">
        <ele>3.8</ele>
        <time>2020-06-04T15:53:03Z</time>
      </trkpt>
      <trkpt lat="47.04209" lon="-1.98943">
        <ele>3.8</ele>
        <time>2020-06-04T15:53:04Z</time>
      </trkpt>
      <trkpt lat="47.04213" lon="-1.98948">
        <ele>3.8</ele>
        <time>2020-06-04T15:53:05Z</time>
      </trkpt>
      <trkpt lat="47.04219" lon="-1.98952">
        <ele>3.8</ele>
        <time>2020-06-04T15:53:06Z</time>
      </trkpt>
      <trkpt lat="47.04224" lon="-1.98955">
        <ele>3.8</ele>
        <time>2020-06-04T15:53:07Z</time>
      </trkpt>
      <trkpt lat="47.04228" lon="-1.9896">
        <ele>3.8</ele>
        <time>2020-06-04T15:53:08Z</time>
      </trkpt>
      <trkpt lat="47.04233" lon="-1.98964">
        <ele>3.8</ele>
        <time>2020-06-04T15:53:09Z</time>
      </trkpt>
      <trkpt lat="47.04238" lon="-1.98969">
        <ele>3.9</ele>
        <time>2020-06-04T15:53:10Z</time>
      </trkpt>
      <trkpt lat="47.04243" lon="-1.98973">
        <ele>3.9</ele>
        <time>2020-06-04T15:53:11Z</time>
      </trkpt>
      <trkpt lat="47.04249" lon="-1.98975">
        <ele>3.9</ele>
        <time>2020-06-04T15:53:12Z</time>
      </trkpt>
      <trkpt lat="47.04254" lon="-1.98979">
        <ele>3.9</ele>
        <time>2020-06-04T15:53:13Z</time>
      </trkpt>
      <trkpt lat="47.04259" lon="-1.98983">
        <ele>3.9</ele>
        <time>2020-06-04T15:53:14Z</time>
      </trkpt>
      <trkpt lat="47.04264" lon="-1.98986">
        <ele>3.9</ele>
        <time>2020-06-04T15:53:15Z</time>
      </trkpt>
      <trkpt lat="47.04269" lon="-1.9899">
        <ele>3.9</ele>
        <time>2020-06-04T15:53:16Z</time>
      </trkpt>
      <trkpt lat="47.04273" lon="-1.98994">
        <ele>3.9</ele>
        <time>2020-06-04T15:53:17Z</time>
      </trkpt>
      <trkpt lat="47.04278" lon="-1.98999">
        <ele>3.9</ele>
        <time>2020-06-04T15:53:18Z</time>
      </trkpt>
      <trkpt lat="47.04283" lon="-1.99003">
        <ele>3.9</ele>
        <time>2020-06-04T15:53:19Z</time>
      </trkpt>
      <trkpt lat="47.04287" lon="-1.99007">
        <ele>3.9</ele>
        <time>2020-06-04T15:53:20Z</time>
      </trkpt>
      <trkpt lat="47.04293" lon="-1.99011">
        <ele>4</ele>
        <time>2020-06-04T15:53:21Z</time>
      </trkpt>
      <trkpt lat="47.04298" lon="-1.99016">
        <ele>4</ele>
        <time>2020-06-04T15:53:22Z</time>
      </trkpt>
      <trkpt lat="47.04303" lon="-1.99021">
        <ele>4</ele>
        <time>2020-06-04T15:53:23Z</time>
      </trkpt>
      <trkpt lat="47.04308" lon="-1.99026">
        <ele>4.1</ele>
        <time>2020-06-04T15:53:24Z</time>
      </trkpt>
      <trkpt lat="47.04314" lon="-1.99029">
        <ele>4.1</ele>
        <time>2020-06-04T15:53:25Z</time>
      </trkpt>
      <trkpt lat="47.04319" lon="-1.99036">
        <ele>4.1</ele>
        <time>2020-06-04T15:53:26Z</time>
      </trkpt>
      <trkpt lat="47.04324" lon="-1.99041">
        <ele>4.1</ele>
        <time>2020-06-04T15:53:27Z</time>
      </trkpt>
      <trkpt lat="47.0433" lon="-1.99045">
        <ele>4.1</ele>
        <time>2020-06-04T15:53:28Z</time>
      </trkpt>
      <trkpt lat="47.04336" lon="-1.99047">
        <ele>4.1</ele>
        <time>2020-06-04T15:53:29Z</time>
      </trkpt>
      <trkpt lat="47.04342" lon="-1.9905">
        <ele>4.2</ele>
        <time>2020-06-04T15:53:30Z</time>
      </trkpt>
      <trkpt lat="47.04348" lon="-1.99053">
        <ele>4.2</ele>
        <time>2020-06-04T15:53:31Z</time>
      </trkpt>
      <trkpt lat="47.04353" lon="-1.99056">
        <ele>4.2</ele>
        <time>2020-06-04T15:53:32Z</time>
      </trkpt>
      <trkpt lat="47.04358" lon="-1.99058">
        <ele>4.2</ele>
        <time>2020-06-04T15:53:33Z</time>
      </trkpt>
      <trkpt lat="47.04364" lon="-1.99059">
        <ele>4.2</ele>
        <time>2020-06-04T15:53:34Z</time>
      </trkpt>
      <trkpt lat="47.0437" lon="-1.9906">
        <ele>4.3</ele>
        <time>2020-06-04T15:53:35Z</time>
      </trkpt>
      <trkpt lat="47.04376" lon="-1.9906">
        <ele>4.3</ele>
        <time>2020-06-04T15:53:36Z</time>
      </trkpt>
      <trkpt lat="47.04381" lon="-1.99061">
        <ele>4.3</ele>
        <time>2020-06-04T15:53:37Z</time>
      </trkpt>
      <trkpt lat="47.04386" lon="-1.99061">
        <ele>4.3</ele>
        <time>2020-06-04T15:53:38Z</time>
      </trkpt>
      <trkpt lat="47.04392" lon="-1.99061">
        <ele>4.3</ele>
        <time>2020-06-04T15:53:39Z</time>
      </trkpt>
      <trkpt lat="47.04397" lon="-1.99062">
        <ele>4.4</ele>
        <time>2020-06-04T15:53:40Z</time>
      </trkpt>
      <trkpt lat="47.04403" lon="-1.99064">
        <ele>4.4</ele>
        <time>2020-06-04T15:53:41Z</time>
      </trkpt>
      <trkpt lat="47.04408" lon="-1.99066">
        <ele>4.3</ele>
        <time>2020-06-04T15:53:42Z</time>
      </trkpt>
      <trkpt lat="47.04413" lon="-1.99068">
        <ele>4.3</ele>
        <time>2020-06-04T15:53:43Z</time>
      </trkpt>
      <trkpt lat="47.04418" lon="-1.99072">
        <ele>4.3</ele>
        <time>2020-06-04T15:53:44Z</time>
      </trkpt>
      <trkpt lat="47.04423" lon="-1.99075">
        <ele>4.3</ele>
        <time>2020-06-04T15:53:45Z</time>
      </trkpt>
      <trkpt lat="47.04428" lon="-1.9908">
        <ele>4.3</ele>
        <time>2020-06-04T15:53:46Z</time>
      </trkpt>
      <trkpt lat="47.04434" lon="-1.99084">
        <ele>4.3</ele>
        <time>2020-06-04T15:53:47Z</time>
      </trkpt>
      <trkpt lat="47.04439" lon="-1.99089">
        <ele>4.3</ele>
        <time>2020-06-04T15:53:48Z</time>
      </trkpt>
      <trkpt lat="47.04444" lon="-1.99093">
        <ele>4.3</ele>
        <time>2020-06-04T15:53:49Z</time>
      </trkpt>
      <trkpt lat="47.0445" lon="-1.99097">
        <ele>4.2</ele>
        <time>2020-06-04T15:53:50Z</time>
      </trkpt>
      <trkpt lat="47.04456" lon="-1.991">
        <ele>4.2</ele>
        <time>2020-06-04T15:53:51Z</time>
      </trkpt>
      <trkpt lat="47.04461" lon="-1.99104">
        <ele>4.2</ele>
        <time>2020-06-04T15:53:52Z</time>
      </trkpt>
      <trkpt lat="47.04467" lon="-1.99108">
        <ele>4.1</ele>
        <time>2020-06-04T15:53:53Z</time>
      </trkpt>
      <trkpt lat="47.04473" lon="-1.99112">
        <ele>4.1</ele>
        <time>2020-06-04T15:53:54Z</time>
      </trkpt>
      <trkpt lat="47.04479" lon="-1.99116">
        <ele>4.1</ele>
        <time>2020-06-04T15:53:55Z</time>
      </trkpt>
      <trkpt lat="47.04484" lon="-1.99118">
        <ele>4.2</ele>
        <time>2020-06-04T15:53:56Z</time>
      </trkpt>
      <trkpt lat="47.0449" lon="-1.9912">
        <ele>4.2</ele>
        <time>2020-06-04T15:53:57Z</time>
      </trkpt>
      <trkpt lat="47.04497" lon="-1.99121">
        <ele>4.2</ele>
        <time>2020-06-04T15:53:58Z</time>
      </trkpt>
      <trkpt lat="47.04503" lon="-1.99123">
        <ele>4.2</ele>
        <time>2020-06-04T15:53:59Z</time>
      </trkpt>
      <trkpt lat="47.04509" lon="-1.99124">
        <ele>4.1</ele>
        <time>2020-06-04T15:54:00Z</time>
      </trkpt>
      <trkpt lat="47.04515" lon="-1.99124">
        <ele>4.1</ele>
        <time>2020-06-04T15:54:01Z</time>
      </trkpt>
      <trkpt lat="47.04521" lon="-1.99125">
        <ele>4.1</ele>
        <time>2020-06-04T15:54:02Z</time>
      </trkpt>
      <trkpt lat="47.04528" lon="-1.99127">
        <ele>4.1</ele>
        <time>2020-06-04T15:54:03Z</time>
      </trkpt>
      <trkpt lat="47.04535" lon="-1.99128">
        <ele>4</ele>
        <time>2020-06-04T15:54:04Z</time>
      </trkpt>
      <trkpt lat="47.04541" lon="-1.99129">
        <ele>4</ele>
        <time>2020-06-04T15:54:05Z</time>
      </trkpt>
      <trkpt lat="47.04547" lon="-1.99131">
        <ele>3.9</ele>
        <time>2020-06-04T15:54:06Z</time>
      </trkpt>
      <trkpt lat="47.04553" lon="-1.99133">
        <ele>3.8</ele>
        <time>2020-06-04T15:54:07Z</time>
      </trkpt>
      <trkpt lat="47.04559" lon="-1.99135">
        <ele>3.6</ele>
        <time>2020-06-04T15:54:08Z</time>
      </trkpt>
      <trkpt lat="47.04565" lon="-1.99135">
        <ele>3.6</ele>
        <time>2020-06-04T15:54:09Z</time>
      </trkpt>
      <trkpt lat="47.04571" lon="-1.99136">
        <ele>3.5</ele>
        <time>2020-06-04T15:54:10Z</time>
      </trkpt>
      <trkpt lat="47.04577" lon="-1.99137">
        <ele>3.4</ele>
        <time>2020-06-04T15:54:11Z</time>
      </trkpt>
      <trkpt lat="47.04583" lon="-1.99139">
        <ele>3.4</ele>
        <time>2020-06-04T15:54:12Z</time>
      </trkpt>
      <trkpt lat="47.0459" lon="-1.99141">
        <ele>3.3</ele>
        <time>2020-06-04T15:54:13Z</time>
      </trkpt>
      <trkpt lat="47.04597" lon="-1.99142">
        <ele>3.2</ele>
        <time>2020-06-04T15:54:14Z</time>
      </trkpt>
      <trkpt lat="47.04603" lon="-1.99144">
        <ele>3.1</ele>
        <time>2020-06-04T15:54:15Z</time>
      </trkpt>
      <trkpt lat="47.04608" lon="-1.99145">
        <ele>3</ele>
        <time>2020-06-04T15:54:16Z</time>
      </trkpt>
      <trkpt lat="47.04614" lon="-1.99147">
        <ele>2.9</ele>
        <time>2020-06-04T15:54:17Z</time>
      </trkpt>
      <trkpt lat="47.0462" lon="-1.99148">
        <ele>2.8</ele>
        <time>2020-06-04T15:54:18Z</time>
      </trkpt>
      <trkpt lat="47.04626" lon="-1.99149">
        <ele>2.7</ele>
        <time>2020-06-04T15:54:19Z</time>
      </trkpt>
      <trkpt lat="47.04632" lon="-1.99149">
        <ele>2.5</ele>
        <time>2020-06-04T15:54:20Z</time>
      </trkpt>
      <trkpt lat="47.04638" lon="-1.99147">
        <ele>2.4</ele>
        <time>2020-06-04T15:54:21Z</time>
      </trkpt>
      <trkpt lat="47.04645" lon="-1.99146">
        <ele>2.3</ele>
        <time>2020-06-04T15:54:22Z</time>
      </trkpt>
      <trkpt lat="47.04652" lon="-1.99145">
        <ele>2.3</ele>
        <time>2020-06-04T15:54:23Z</time>
      </trkpt>
      <trkpt lat="47.04657" lon="-1.99143">
        <ele>2.3</ele>
        <time>2020-06-04T15:54:24Z</time>
      </trkpt>
      <trkpt lat="47.04663" lon="-1.99142">
        <ele>2.2</ele>
        <time>2020-06-04T15:54:25Z</time>
      </trkpt>
      <trkpt lat="47.04669" lon="-1.99141">
        <ele>2.2</ele>
        <time>2020-06-04T15:54:26Z</time>
      </trkpt>
      <trkpt lat="47.04675" lon="-1.99139">
        <ele>2.2</ele>
        <time>2020-06-04T15:54:27Z</time>
      </trkpt>
      <trkpt lat="47.04683" lon="-1.99136">
        <ele>2.2</ele>
        <time>2020-06-04T15:54:28Z</time>
      </trkpt>
      <trkpt lat="47.04689" lon="-1.99134">
        <ele>2.2</ele>
        <time>2020-06-04T15:54:29Z</time>
      </trkpt>
      <trkpt lat="47.04694" lon="-1.99133">
        <ele>2.2</ele>
        <time>2020-06-04T15:54:30Z</time>
      </trkpt>
      <trkpt lat="47.04699" lon="-1.99132">
        <ele>2.2</ele>
        <time>2020-06-04T15:54:31Z</time>
      </trkpt>
      <trkpt lat="47.04706" lon="-1.9913">
        <ele>2.2</ele>
        <time>2020-06-04T15:54:32Z</time>
      </trkpt>
      <trkpt lat="47.04711" lon="-1.99129">
        <ele>2.2</ele>
        <time>2020-06-04T15:54:33Z</time>
      </trkpt>
      <trkpt lat="47.04717" lon="-1.99129">
        <ele>2.2</ele>
        <time>2020-06-04T15:54:34Z</time>
      </trkpt>
      <trkpt lat="47.0472" lon="-1.9913">
        <ele>2.2</ele>
        <time>2020-06-04T15:54:35Z</time>
      </trkpt>
      <trkpt lat="47.04726" lon="-1.9913">
        <ele>2.2</ele>
        <time>2020-06-04T15:54:36Z</time>
      </trkpt>
      <trkpt lat="47.04731" lon="-1.99129">
        <ele>2.2</ele>
        <time>2020-06-04T15:54:37Z</time>
      </trkpt>
      <trkpt lat="47.04737" lon="-1.99129">
        <ele>2.2</ele>
        <time>2020-06-04T15:54:38Z</time>
      </trkpt>
      <trkpt lat="47.04744" lon="-1.99129">
        <ele>2.2</ele>
        <time>2020-06-04T15:54:39Z</time>
      </trkpt>
      <trkpt lat="47.0475" lon="-1.9913">
        <ele>2.2</ele>
        <time>2020-06-04T15:54:40Z</time>
      </trkpt>
      <trkpt lat="47.04756" lon="-1.9913">
        <ele>2.2</ele>
        <time>2020-06-04T15:54:41Z</time>
      </trkpt>
      <trkpt lat="47.04761" lon="-1.99129">
        <ele>2.2</ele>
        <time>2020-06-04T15:54:42Z</time>
      </trkpt>
      <trkpt lat="47.04768" lon="-1.99129">
        <ele>2.2</ele>
        <time>2020-06-04T15:54:43Z</time>
      </trkpt>
      <trkpt lat="47.04775" lon="-1.99128">
        <ele>2.2</ele>
        <time>2020-06-04T15:54:44Z</time>
      </trkpt>
      <trkpt lat="47.0478" lon="-1.99128">
        <ele>2.2</ele>
        <time>2020-06-04T15:54:45Z</time>
      </trkpt>
      <trkpt lat="47.04786" lon="-1.99127">
        <ele>2.2</ele>
        <time>2020-06-04T15:54:46Z</time>
      </trkpt>
      <trkpt lat="47.04793" lon="-1.99125">
        <ele>2.2</ele>
        <time>2020-06-04T15:54:47Z</time>
      </trkpt>
      <trkpt lat="47.04799" lon="-1.99123">
        <ele>2.2</ele>
        <time>2020-06-04T15:54:48Z</time>
      </trkpt>
      <trkpt lat="47.04803" lon="-1.99122">
        <ele>2.2</ele>
        <time>2020-06-04T15:54:49Z</time>
      </trkpt>
      <trkpt lat="47.04808" lon="-1.9912">
        <ele>2.2</ele>
        <time>2020-06-04T15:54:50Z</time>
      </trkpt>
      <trkpt lat="47.04812" lon="-1.99118">
        <ele>2.2</ele>
        <time>2020-06-04T15:54:51Z</time>
      </trkpt>
      <trkpt lat="47.04818" lon="-1.99117">
        <ele>2.2</ele>
        <time>2020-06-04T15:54:52Z</time>
      </trkpt>
      <trkpt lat="47.04824" lon="-1.99114">
        <ele>2.2</ele>
        <time>2020-06-04T15:54:53Z</time>
      </trkpt>
      <trkpt lat="47.0483" lon="-1.99111">
        <ele>2.2</ele>
        <time>2020-06-04T15:54:54Z</time>
      </trkpt>
      <trkpt lat="47.04836" lon="-1.99109">
        <ele>2.2</ele>
        <time>2020-06-04T15:54:55Z</time>
      </trkpt>
      <trkpt lat="47.04841" lon="-1.99107">
        <ele>2.2</ele>
        <time>2020-06-04T15:54:56Z</time>
      </trkpt>
      <trkpt lat="47.04846" lon="-1.99105">
        <ele>2.2</ele>
        <time>2020-06-04T15:54:57Z</time>
      </trkpt>
      <trkpt lat="47.04851" lon="-1.99103">
        <ele>2.2</ele>
        <time>2020-06-04T15:54:58Z</time>
      </trkpt>
      <trkpt lat="47.04857" lon="-1.99099">
        <ele>2.2</ele>
        <time>2020-06-04T15:54:59Z</time>
      </trkpt>
      <trkpt lat="47.04861" lon="-1.99095">
        <ele>2.2</ele>
        <time>2020-06-04T15:55:00Z</time>
      </trkpt>
      <trkpt lat="47.04865" lon="-1.9909">
        <ele>2.2</ele>
        <time>2020-06-04T15:55:01Z</time>
      </trkpt>
      <trkpt lat="47.04871" lon="-1.99086">
        <ele>2.2</ele>
        <time>2020-06-04T15:55:02Z</time>
      </trkpt>
      <trkpt lat="47.04876" lon="-1.99082">
        <ele>2.2</ele>
        <time>2020-06-04T15:55:03Z</time>
      </trkpt>
      <trkpt lat="47.04881" lon="-1.99079">
        <ele>2.2</ele>
        <time>2020-06-04T15:55:04Z</time>
      </trkpt>
      <trkpt lat="47.04886" lon="-1.99075">
        <ele>2.2</ele>
        <time>2020-06-04T15:55:05Z</time>
      </trkpt>
      <trkpt lat="47.0489" lon="-1.99071">
        <ele>2.2</ele>
        <time>2020-06-04T15:55:06Z</time>
      </trkpt>
      <trkpt lat="47.04895" lon="-1.99067">
        <ele>2.2</ele>
        <time>2020-06-04T15:55:07Z</time>
      </trkpt>
      <trkpt lat="47.04899" lon="-1.99064">
        <ele>2.2</ele>
        <time>2020-06-04T15:55:08Z</time>
      </trkpt>
      <trkpt lat="47.04903" lon="-1.99061">
        <ele>2.2</ele>
        <time>2020-06-04T15:55:09Z</time>
      </trkpt>
      <trkpt lat="47.04909" lon="-1.99058">
        <ele>2.2</ele>
        <time>2020-06-04T15:55:10Z</time>
      </trkpt>
      <trkpt lat="47.04915" lon="-1.99055">
        <ele>2.2</ele>
        <time>2020-06-04T15:55:11Z</time>
      </trkpt>
      <trkpt lat="47.0492" lon="-1.99052">
        <ele>2.2</ele>
        <time>2020-06-04T15:55:12Z</time>
      </trkpt>
      <trkpt lat="47.04925" lon="-1.99051">
        <ele>2.2</ele>
        <time>2020-06-04T15:55:13Z</time>
      </trkpt>
      <trkpt lat="47.0493" lon="-1.99049">
        <ele>2.3</ele>
        <time>2020-06-04T15:55:14Z</time>
      </trkpt>
      <trkpt lat="47.04934" lon="-1.99048">
        <ele>2.3</ele>
        <time>2020-06-04T15:55:15Z</time>
      </trkpt>
      <trkpt lat="47.0494" lon="-1.99049">
        <ele>2.3</ele>
        <time>2020-06-04T15:55:16Z</time>
      </trkpt>
      <trkpt lat="47.04945" lon="-1.9905">
        <ele>2.3</ele>
        <time>2020-06-04T15:55:17Z</time>
      </trkpt>
      <trkpt lat="47.0495" lon="-1.99052">
        <ele>2.3</ele>
        <time>2020-06-04T15:55:18Z</time>
      </trkpt>
      <trkpt lat="47.04954" lon="-1.99051">
        <ele>2.3</ele>
        <time>2020-06-04T15:55:19Z</time>
      </trkpt>
      <trkpt lat="47.04959" lon="-1.99051">
        <ele>2.3</ele>
        <time>2020-06-04T15:55:20Z</time>
      </trkpt>
      <trkpt lat="47.04964" lon="-1.99052">
        <ele>2.4</ele>
        <time>2020-06-04T15:55:21Z</time>
      </trkpt>
      <trkpt lat="47.04969" lon="-1.99053">
        <ele>2.4</ele>
        <time>2020-06-04T15:55:22Z</time>
      </trkpt>
      <trkpt lat="47.04974" lon="-1.99053">
        <ele>2.4</ele>
        <time>2020-06-04T15:55:23Z</time>
      </trkpt>
      <trkpt lat="47.04981" lon="-1.99053">
        <ele>2.4</ele>
        <time>2020-06-04T15:55:24Z</time>
      </trkpt>
      <trkpt lat="47.04986" lon="-1.99053">
        <ele>2.4</ele>
        <time>2020-06-04T15:55:25Z</time>
      </trkpt>
      <trkpt lat="47.04992" lon="-1.99052">
        <ele>2.4</ele>
        <time>2020-06-04T15:55:26Z</time>
      </trkpt>
      <trkpt lat="47.04998" lon="-1.99051">
        <ele>2.4</ele>
        <time>2020-06-04T15:55:27Z</time>
      </trkpt>
      <trkpt lat="47.05003" lon="-1.9905">
        <ele>2.4</ele>
        <time>2020-06-04T15:55:28Z</time>
      </trkpt>
      <trkpt lat="47.05009" lon="-1.99049">
        <ele>2.4</ele>
        <time>2020-06-04T15:55:29Z</time>
      </trkpt>
      <trkpt lat="47.05015" lon="-1.99047">
        <ele>2.4</ele>
        <time>2020-06-04T15:55:30Z</time>
      </trkpt>
      <trkpt lat="47.0502" lon="-1.99046">
        <ele>2.4</ele>
        <time>2020-06-04T15:55:31Z</time>
      </trkpt>
      <trkpt lat="47.05025" lon="-1.99045">
        <ele>2.4</ele>
        <time>2020-06-04T15:55:32Z</time>
      </trkpt>
      <trkpt lat="47.05031" lon="-1.99044">
        <ele>2.4</ele>
        <time>2020-06-04T15:55:33Z</time>
      </trkpt>
      <trkpt lat="47.05036" lon="-1.99044">
        <ele>2.4</ele>
        <time>2020-06-04T15:55:34Z</time>
      </trkpt>
      <trkpt lat="47.05041" lon="-1.99043">
        <ele>2.4</ele>
        <time>2020-06-04T15:55:35Z</time>
      </trkpt>
      <trkpt lat="47.05047" lon="-1.99043">
        <ele>2.4</ele>
        <time>2020-06-04T15:55:36Z</time>
      </trkpt>
      <trkpt lat="47.05051" lon="-1.99043">
        <ele>2.4</ele>
        <time>2020-06-04T15:55:37Z</time>
      </trkpt>
      <trkpt lat="47.05055" lon="-1.99043">
        <ele>2.4</ele>
        <time>2020-06-04T15:55:38Z</time>
      </trkpt>
      <trkpt lat="47.0506" lon="-1.99044">
        <ele>2.4</ele>
        <time>2020-06-04T15:55:39Z</time>
      </trkpt>
      <trkpt lat="47.05065" lon="-1.99046">
        <ele>2.4</ele>
        <time>2020-06-04T15:55:40Z</time>
      </trkpt>
      <trkpt lat="47.05069" lon="-1.99048">
        <ele>2.4</ele>
        <time>2020-06-04T15:55:41Z</time>
      </trkpt>
      <trkpt lat="47.05074" lon="-1.99049">
        <ele>2.4</ele>
        <time>2020-06-04T15:55:42Z</time>
      </trkpt>
      <trkpt lat="47.05079" lon="-1.99049">
        <ele>2.4</ele>
        <time>2020-06-04T15:55:43Z</time>
      </trkpt>
      <trkpt lat="47.05084" lon="-1.99047">
        <ele>2.4</ele>
        <time>2020-06-04T15:55:44Z</time>
      </trkpt>
      <trkpt lat="47.05089" lon="-1.99041">
        <ele>2.4</ele>
        <time>2020-06-04T15:55:45Z</time>
      </trkpt>
      <trkpt lat="47.05094" lon="-1.99036">
        <ele>2.4</ele>
        <time>2020-06-04T15:55:46Z</time>
      </trkpt>
      <trkpt lat="47.05098" lon="-1.99031">
        <ele>2.4</ele>
        <time>2020-06-04T15:55:47Z</time>
      </trkpt>
      <trkpt lat="47.05103" lon="-1.99025">
        <ele>2.4</ele>
        <time>2020-06-04T15:55:48Z</time>
      </trkpt>
      <trkpt lat="47.05107" lon="-1.99019">
        <ele>2.4</ele>
        <time>2020-06-04T15:55:49Z</time>
      </trkpt>
      <trkpt lat="47.05112" lon="-1.99016">
        <ele>2.4</ele>
        <time>2020-06-04T15:55:50Z</time>
      </trkpt>
      <trkpt lat="47.05117" lon="-1.99011">
        <ele>2.4</ele>
        <time>2020-06-04T15:55:51Z</time>
      </trkpt>
      <trkpt lat="47.05123" lon="-1.99009">
        <ele>2.4</ele>
        <time>2020-06-04T15:55:52Z</time>
      </trkpt>
      <trkpt lat="47.05128" lon="-1.99009">
        <ele>2.4</ele>
        <time>2020-06-04T15:55:53Z</time>
      </trkpt>
      <trkpt lat="47.05134" lon="-1.9901">
        <ele>2.4</ele>
        <time>2020-06-04T15:55:54Z</time>
      </trkpt>
      <trkpt lat="47.0514" lon="-1.99012">
        <ele>2.3</ele>
        <time>2020-06-04T15:55:55Z</time>
      </trkpt>
      <trkpt lat="47.05146" lon="-1.99013">
        <ele>2.3</ele>
        <time>2020-06-04T15:55:56Z</time>
      </trkpt>
      <trkpt lat="47.05152" lon="-1.99013">
        <ele>2.3</ele>
        <time>2020-06-04T15:55:57Z</time>
      </trkpt>
      <trkpt lat="47.05157" lon="-1.99013">
        <ele>2.3</ele>
        <time>2020-06-04T15:55:58Z</time>
      </trkpt>
      <trkpt lat="47.05163" lon="-1.99011">
        <ele>2.3</ele>
        <time>2020-06-04T15:55:59Z</time>
      </trkpt>
      <trkpt lat="47.05168" lon="-1.99008">
        <ele>2.3</ele>
        <time>2020-06-04T15:56:00Z</time>
      </trkpt>
      <trkpt lat="47.05173" lon="-1.99002">
        <ele>2.3</ele>
        <time>2020-06-04T15:56:01Z</time>
      </trkpt>
      <trkpt lat="47.05178" lon="-1.98996">
        <ele>2.3</ele>
        <time>2020-06-04T15:56:02Z</time>
      </trkpt>
      <trkpt lat="47.05183" lon="-1.9899">
        <ele>2.3</ele>
        <time>2020-06-04T15:56:03Z</time>
      </trkpt>
      <trkpt lat="47.05187" lon="-1.98985">
        <ele>2.3</ele>
        <time>2020-06-04T15:56:04Z</time>
      </trkpt>
      <trkpt lat="47.05192" lon="-1.98978">
        <ele>2.3</ele>
        <time>2020-06-04T15:56:05Z</time>
      </trkpt>
      <trkpt lat="47.05197" lon="-1.98974">
        <ele>2.3</ele>
        <time>2020-06-04T15:56:06Z</time>
      </trkpt>
      <trkpt lat="47.05202" lon="-1.9897">
        <ele>2.3</ele>
        <time>2020-06-04T15:56:07Z</time>
      </trkpt>
      <trkpt lat="47.05206" lon="-1.98967">
        <ele>2.3</ele>
        <time>2020-06-04T15:56:08Z</time>
      </trkpt>
      <trkpt lat="47.0521" lon="-1.98966">
        <ele>2.3</ele>
        <time>2020-06-04T15:56:09Z</time>
      </trkpt>
      <trkpt lat="47.05214" lon="-1.98964">
        <ele>2.3</ele>
        <time>2020-06-04T15:56:10Z</time>
      </trkpt>
      <trkpt lat="47.05218" lon="-1.98963">
        <ele>2.3</ele>
        <time>2020-06-04T15:56:11Z</time>
      </trkpt>
      <trkpt lat="47.05224" lon="-1.98961">
        <ele>2.3</ele>
        <time>2020-06-04T15:56:12Z</time>
      </trkpt>
      <trkpt lat="47.05228" lon="-1.9896">
        <ele>2.3</ele>
        <time>2020-06-04T15:56:13Z</time>
      </trkpt>
      <trkpt lat="47.05231" lon="-1.9896">
        <ele>2.3</ele>
        <time>2020-06-04T15:56:14Z</time>
      </trkpt>
      <trkpt lat="47.05236" lon="-1.9896">
        <ele>2.3</ele>
        <time>2020-06-04T15:56:15Z</time>
      </trkpt>
      <trkpt lat="47.05242" lon="-1.98958">
        <ele>2.3</ele>
        <time>2020-06-04T15:56:16Z</time>
      </trkpt>
      <trkpt lat="47.05248" lon="-1.98957">
        <ele>2.4</ele>
        <time>2020-06-04T15:56:17Z</time>
      </trkpt>
      <trkpt lat="47.05252" lon="-1.98955">
        <ele>2.4</ele>
        <time>2020-06-04T15:56:18Z</time>
      </trkpt>
      <trkpt lat="47.05257" lon="-1.98953">
        <ele>2.4</ele>
        <time>2020-06-04T15:56:19Z</time>
      </trkpt>
      <trkpt lat="47.05262" lon="-1.98951">
        <ele>2.4</ele>
        <time>2020-06-04T15:56:20Z</time>
      </trkpt>
      <trkpt lat="47.05265" lon="-1.98946">
        <ele>2.4</ele>
        <time>2020-06-04T15:56:21Z</time>
      </trkpt>
      <trkpt lat="47.05269" lon="-1.98943">
        <ele>2.4</ele>
        <time>2020-06-04T15:56:22Z</time>
      </trkpt>
      <trkpt lat="47.05273" lon="-1.9894">
        <ele>2.5</ele>
        <time>2020-06-04T15:56:23Z</time>
      </trkpt>
      <trkpt lat="47.05277" lon="-1.98937">
        <ele>2.5</ele>
        <time>2020-06-04T15:56:24Z</time>
      </trkpt>
      <trkpt lat="47.05282" lon="-1.98934">
        <ele>2.5</ele>
        <time>2020-06-04T15:56:25Z</time>
      </trkpt>
      <trkpt lat="47.05287" lon="-1.9893">
        <ele>2.5</ele>
        <time>2020-06-04T15:56:26Z</time>
      </trkpt>
      <trkpt lat="47.05292" lon="-1.98927">
        <ele>2.5</ele>
        <time>2020-06-04T15:56:27Z</time>
      </trkpt>
      <trkpt lat="47.05296" lon="-1.98924">
        <ele>2.5</ele>
        <time>2020-06-04T15:56:28Z</time>
      </trkpt>
      <trkpt lat="47.053" lon="-1.98922">
        <ele>2.5</ele>
        <time>2020-06-04T15:56:29Z</time>
      </trkpt>
      <trkpt lat="47.05304" lon="-1.9892">
        <ele>2.5</ele>
        <time>2020-06-04T15:56:30Z</time>
      </trkpt>
      <trkpt lat="47.05309" lon="-1.98919">
        <ele>2.5</ele>
        <time>2020-06-04T15:56:31Z</time>
      </trkpt>
      <trkpt lat="47.05316" lon="-1.98915">
        <ele>2.5</ele>
        <time>2020-06-04T15:56:32Z</time>
      </trkpt>
      <trkpt lat="47.05321" lon="-1.98913">
        <ele>2.5</ele>
        <time>2020-06-04T15:56:33Z</time>
      </trkpt>
      <trkpt lat="47.05326" lon="-1.98911">
        <ele>2.5</ele>
        <time>2020-06-04T15:56:34Z</time>
      </trkpt>
      <trkpt lat="47.05332" lon="-1.98909">
        <ele>2.5</ele>
        <time>2020-06-04T15:56:35Z</time>
      </trkpt>
      <trkpt lat="47.05338" lon="-1.98906">
        <ele>2.5</ele>
        <time>2020-06-04T15:56:36Z</time>
      </trkpt>
      <trkpt lat="47.05343" lon="-1.98904">
        <ele>2.5</ele>
        <time>2020-06-04T15:56:37Z</time>
      </trkpt>
      <trkpt lat="47.05347" lon="-1.98903">
        <ele>2.5</ele>
        <time>2020-06-04T15:56:38Z</time>
      </trkpt>
      <trkpt lat="47.05352" lon="-1.989">
        <ele>2.5</ele>
        <time>2020-06-04T15:56:39Z</time>
      </trkpt>
      <trkpt lat="47.05358" lon="-1.98897">
        <ele>2.5</ele>
        <time>2020-06-04T15:56:40Z</time>
      </trkpt>
      <trkpt lat="47.05363" lon="-1.98894">
        <ele>2.5</ele>
        <time>2020-06-04T15:56:41Z</time>
      </trkpt>
      <trkpt lat="47.05368" lon="-1.98891">
        <ele>2.5</ele>
        <time>2020-06-04T15:56:42Z</time>
      </trkpt>
      <trkpt lat="47.05373" lon="-1.98888">
        <ele>2.5</ele>
        <time>2020-06-04T15:56:43Z</time>
      </trkpt>
      <trkpt lat="47.05377" lon="-1.98886">
        <ele>2.5</ele>
        <time>2020-06-04T15:56:44Z</time>
      </trkpt>
      <trkpt lat="47.05384" lon="-1.98882">
        <ele>2.5</ele>
        <time>2020-06-04T15:56:45Z</time>
      </trkpt>
      <trkpt lat="47.05389" lon="-1.98879">
        <ele>2.5</ele>
        <time>2020-06-04T15:56:46Z</time>
      </trkpt>
      <trkpt lat="47.05392" lon="-1.98878">
        <ele>2.5</ele>
        <time>2020-06-04T15:56:47Z</time>
      </trkpt>
      <trkpt lat="47.05398" lon="-1.98875">
        <ele>2.5</ele>
        <time>2020-06-04T15:56:48Z</time>
      </trkpt>
      <trkpt lat="47.05402" lon="-1.98873">
        <ele>2.5</ele>
        <time>2020-06-04T15:56:49Z</time>
      </trkpt>
      <trkpt lat="47.05407" lon="-1.98872">
        <ele>2.5</ele>
        <time>2020-06-04T15:56:50Z</time>
      </trkpt>
      <trkpt lat="47.05413" lon="-1.9887">
        <ele>2.6</ele>
        <time>2020-06-04T15:56:51Z</time>
      </trkpt>
      <trkpt lat="47.05418" lon="-1.98868">
        <ele>2.6</ele>
        <time>2020-06-04T15:56:52Z</time>
      </trkpt>
      <trkpt lat="47.05425" lon="-1.98869">
        <ele>2.6</ele>
        <time>2020-06-04T15:56:53Z</time>
      </trkpt>
      <trkpt lat="47.05431" lon="-1.98872">
        <ele>2.6</ele>
        <time>2020-06-04T15:56:54Z</time>
      </trkpt>
      <trkpt lat="47.05436" lon="-1.98874">
        <ele>2.6</ele>
        <time>2020-06-04T15:56:55Z</time>
      </trkpt>
      <trkpt lat="47.05441" lon="-1.98878">
        <ele>2.6</ele>
        <time>2020-06-04T15:56:56Z</time>
      </trkpt>
      <trkpt lat="47.05445" lon="-1.98882">
        <ele>2.6</ele>
        <time>2020-06-04T15:56:57Z</time>
      </trkpt>
      <trkpt lat="47.05449" lon="-1.98886">
        <ele>2.6</ele>
        <time>2020-06-04T15:56:58Z</time>
      </trkpt>
      <trkpt lat="47.05454" lon="-1.9889">
        <ele>2.7</ele>
        <time>2020-06-04T15:56:59Z</time>
      </trkpt>
      <trkpt lat="47.05459" lon="-1.98893">
        <ele>2.7</ele>
        <time>2020-06-04T15:57:00Z</time>
      </trkpt>
      <trkpt lat="47.05464" lon="-1.98896">
        <ele>2.8</ele>
        <time>2020-06-04T15:57:01Z</time>
      </trkpt>
      <trkpt lat="47.05467" lon="-1.98899">
        <ele>2.9</ele>
        <time>2020-06-04T15:57:02Z</time>
      </trkpt>
      <trkpt lat="47.05473" lon="-1.989">
        <ele>2.9</ele>
        <time>2020-06-04T15:57:03Z</time>
      </trkpt>
      <trkpt lat="47.05479" lon="-1.98901">
        <ele>3</ele>
        <time>2020-06-04T15:57:04Z</time>
      </trkpt>
      <trkpt lat="47.05485" lon="-1.98902">
        <ele>3.1</ele>
        <time>2020-06-04T15:57:05Z</time>
      </trkpt>
      <trkpt lat="47.05489" lon="-1.98902">
        <ele>3.1</ele>
        <time>2020-06-04T15:57:06Z</time>
      </trkpt>
      <trkpt lat="47.05494" lon="-1.98903">
        <ele>3.2</ele>
        <time>2020-06-04T15:57:07Z</time>
      </trkpt>
      <trkpt lat="47.05498" lon="-1.98903">
        <ele>3.2</ele>
        <time>2020-06-04T15:57:08Z</time>
      </trkpt>
      <trkpt lat="47.05504" lon="-1.98902">
        <ele>3.3</ele>
        <time>2020-06-04T15:57:09Z</time>
      </trkpt>
      <trkpt lat="47.05509" lon="-1.98902">
        <ele>3.3</ele>
        <time>2020-06-04T15:57:10Z</time>
      </trkpt>
      <trkpt lat="47.05513" lon="-1.98902">
        <ele>3.3</ele>
        <time>2020-06-04T15:57:11Z</time>
      </trkpt>
      <trkpt lat="47.05518" lon="-1.98903">
        <ele>3.4</ele>
        <time>2020-06-04T15:57:12Z</time>
      </trkpt>
      <trkpt lat="47.05522" lon="-1.98904">
        <ele>3.4</ele>
        <time>2020-06-04T15:57:13Z</time>
      </trkpt>
      <trkpt lat="47.05527" lon="-1.98904">
        <ele>3.4</ele>
        <time>2020-06-04T15:57:14Z</time>
      </trkpt>
      <trkpt lat="47.05531" lon="-1.98903">
        <ele>3.5</ele>
        <time>2020-06-04T15:57:15Z</time>
      </trkpt>
      <trkpt lat="47.05535" lon="-1.98903">
        <ele>3.5</ele>
        <time>2020-06-04T15:57:16Z</time>
      </trkpt>
      <trkpt lat="47.05539" lon="-1.98904">
        <ele>3.5</ele>
        <time>2020-06-04T15:57:17Z</time>
      </trkpt>
      <trkpt lat="47.05542" lon="-1.98904">
        <ele>3.5</ele>
        <time>2020-06-04T15:57:18Z</time>
      </trkpt>
      <trkpt lat="47.05543" lon="-1.98904">
        <ele>3.5</ele>
        <time>2020-06-04T15:57:19Z</time>
      </trkpt>
      <trkpt lat="47.05546" lon="-1.98903">
        <ele>3.5</ele>
        <time>2020-06-04T15:57:20Z</time>
      </trkpt>
      <trkpt lat="47.0555" lon="-1.98904">
        <ele>3.5</ele>
        <time>2020-06-04T15:57:21Z</time>
      </trkpt>
      <trkpt lat="47.05552" lon="-1.98905">
        <ele>3.5</ele>
        <time>2020-06-04T15:57:22Z</time>
      </trkpt>
      <trkpt lat="47.05555" lon="-1.98905">
        <ele>3.5</ele>
        <time>2020-06-04T15:57:23Z</time>
      </trkpt>
      <trkpt lat="47.05558" lon="-1.98905">
        <ele>3.6</ele>
        <time>2020-06-04T15:57:24Z</time>
      </trkpt>
      <trkpt lat="47.05561" lon="-1.98906">
        <ele>3.6</ele>
        <time>2020-06-04T15:57:25Z</time>
      </trkpt>
      <trkpt lat="47.05565" lon="-1.98906">
        <ele>3.6</ele>
        <time>2020-06-04T15:57:26Z</time>
      </trkpt>
      <trkpt lat="47.0557" lon="-1.98905">
        <ele>3.6</ele>
        <time>2020-06-04T15:57:27Z</time>
      </trkpt>
      <trkpt lat="47.05574" lon="-1.98905">
        <ele>3.7</ele>
        <time>2020-06-04T15:57:28Z</time>
      </trkpt>
      <trkpt lat="47.05579" lon="-1.98904">
        <ele>3.7</ele>
        <time>2020-06-04T15:57:29Z</time>
      </trkpt>
      <trkpt lat="47.05582" lon="-1.98904">
        <ele>3.7</ele>
        <time>2020-06-04T15:57:30Z</time>
      </trkpt>
      <trkpt lat="47.05587" lon="-1.98904">
        <ele>3.7</ele>
        <time>2020-06-04T15:57:31Z</time>
      </trkpt>
      <trkpt lat="47.05591" lon="-1.98903">
        <ele>3.7</ele>
        <time>2020-06-04T15:57:32Z</time>
      </trkpt>
      <trkpt lat="47.05595" lon="-1.98903">
        <ele>3.7</ele>
        <time>2020-06-04T15:57:33Z</time>
      </trkpt>
      <trkpt lat="47.05598" lon="-1.98903">
        <ele>3.7</ele>
        <time>2020-06-04T15:57:34Z</time>
      </trkpt>
      <trkpt lat="47.05604" lon="-1.98901">
        <ele>3.7</ele>
        <time>2020-06-04T15:57:35Z</time>
      </trkpt>
      <trkpt lat="47.05608" lon="-1.98901">
        <ele>3.7</ele>
        <time>2020-06-04T15:57:36Z</time>
      </trkpt>
      <trkpt lat="47.05611" lon="-1.98902">
        <ele>3.7</ele>
        <time>2020-06-04T15:57:37Z</time>
      </trkpt>
      <trkpt lat="47.05615" lon="-1.98902">
        <ele>3.7</ele>
        <time>2020-06-04T15:57:38Z</time>
      </trkpt>
      <trkpt lat="47.0562" lon="-1.98902">
        <ele>3.7</ele>
        <time>2020-06-04T15:57:39Z</time>
      </trkpt>
      <trkpt lat="47.05625" lon="-1.98902">
        <ele>3.7</ele>
        <time>2020-06-04T15:57:40Z</time>
      </trkpt>
      <trkpt lat="47.05631" lon="-1.98902">
        <ele>3.6</ele>
        <time>2020-06-04T15:57:41Z</time>
      </trkpt>
      <trkpt lat="47.05636" lon="-1.98901">
        <ele>3.6</ele>
        <time>2020-06-04T15:57:42Z</time>
      </trkpt>
      <trkpt lat="47.0564" lon="-1.98901">
        <ele>3.6</ele>
        <time>2020-06-04T15:57:43Z</time>
      </trkpt>
      <trkpt lat="47.05645" lon="-1.98901">
        <ele>3.6</ele>
        <time>2020-06-04T15:57:44Z</time>
      </trkpt>
      <trkpt lat="47.05649" lon="-1.98901">
        <ele>3.6</ele>
        <time>2020-06-04T15:57:45Z</time>
      </trkpt>
      <trkpt lat="47.05653" lon="-1.98902">
        <ele>3.6</ele>
        <time>2020-06-04T15:57:46Z</time>
      </trkpt>
      <trkpt lat="47.05657" lon="-1.98903">
        <ele>3.6</ele>
        <time>2020-06-04T15:57:47Z</time>
      </trkpt>
      <trkpt lat="47.05662" lon="-1.98903">
        <ele>3.6</ele>
        <time>2020-06-04T15:57:48Z</time>
      </trkpt>
      <trkpt lat="47.05667" lon="-1.98904">
        <ele>3.5</ele>
        <time>2020-06-04T15:57:49Z</time>
      </trkpt>
      <trkpt lat="47.05672" lon="-1.98904">
        <ele>3.5</ele>
        <time>2020-06-04T15:57:50Z</time>
      </trkpt>
      <trkpt lat="47.05678" lon="-1.98904">
        <ele>3.5</ele>
        <time>2020-06-04T15:57:51Z</time>
      </trkpt>
      <trkpt lat="47.05682" lon="-1.98904">
        <ele>3.5</ele>
        <time>2020-06-04T15:57:52Z</time>
      </trkpt>
      <trkpt lat="47.05687" lon="-1.98904">
        <ele>3.5</ele>
        <time>2020-06-04T15:57:53Z</time>
      </trkpt>
      <trkpt lat="47.05692" lon="-1.98904">
        <ele>3.5</ele>
        <time>2020-06-04T15:57:54Z</time>
      </trkpt>
      <trkpt lat="47.05697" lon="-1.98904">
        <ele>3.5</ele>
        <time>2020-06-04T15:57:55Z</time>
      </trkpt>
      <trkpt lat="47.05701" lon="-1.98904">
        <ele>3.5</ele>
        <time>2020-06-04T15:57:56Z</time>
      </trkpt>
      <trkpt lat="47.05706" lon="-1.98904">
        <ele>3.5</ele>
        <time>2020-06-04T15:57:57Z</time>
      </trkpt>
      <trkpt lat="47.05711" lon="-1.98904">
        <ele>3.5</ele>
        <time>2020-06-04T15:57:58Z</time>
      </trkpt>
      <trkpt lat="47.05716" lon="-1.98905">
        <ele>3.5</ele>
        <time>2020-06-04T15:57:59Z</time>
      </trkpt>
      <trkpt lat="47.05721" lon="-1.98906">
        <ele>3.5</ele>
        <time>2020-06-04T15:58:00Z</time>
      </trkpt>
      <trkpt lat="47.05726" lon="-1.98906">
        <ele>3.4</ele>
        <time>2020-06-04T15:58:01Z</time>
      </trkpt>
      <trkpt lat="47.05732" lon="-1.98908">
        <ele>3.4</ele>
        <time>2020-06-04T15:58:02Z</time>
      </trkpt>
      <trkpt lat="47.05735" lon="-1.98908">
        <ele>3.4</ele>
        <time>2020-06-04T15:58:03Z</time>
      </trkpt>
      <trkpt lat="47.05739" lon="-1.98907">
        <ele>3.4</ele>
        <time>2020-06-04T15:58:04Z</time>
      </trkpt>
      <trkpt lat="47.05745" lon="-1.98906">
        <ele>3.4</ele>
        <time>2020-06-04T15:58:05Z</time>
      </trkpt>
      <trkpt lat="47.0575" lon="-1.98906">
        <ele>3.4</ele>
        <time>2020-06-04T15:58:06Z</time>
      </trkpt>
      <trkpt lat="47.05754" lon="-1.98905">
        <ele>3.4</ele>
        <time>2020-06-04T15:58:07Z</time>
      </trkpt>
      <trkpt lat="47.05758" lon="-1.98904">
        <ele>3.4</ele>
        <time>2020-06-04T15:58:08Z</time>
      </trkpt>
      <trkpt lat="47.05762" lon="-1.98904">
        <ele>3.4</ele>
        <time>2020-06-04T15:58:09Z</time>
      </trkpt>
      <trkpt lat="47.05767" lon="-1.98904">
        <ele>3.3</ele>
        <time>2020-06-04T15:58:10Z</time>
      </trkpt>
      <trkpt lat="47.05772" lon="-1.98904">
        <ele>3.3</ele>
        <time>2020-06-04T15:58:11Z</time>
      </trkpt>
      <trkpt lat="47.05776" lon="-1.98904">
        <ele>3.3</ele>
        <time>2020-06-04T15:58:12Z</time>
      </trkpt>
      <trkpt lat="47.05781" lon="-1.98904">
        <ele>3.3</ele>
        <time>2020-06-04T15:58:13Z</time>
      </trkpt>
      <trkpt lat="47.05785" lon="-1.98905">
        <ele>3.3</ele>
        <time>2020-06-04T15:58:14Z</time>
      </trkpt>
      <trkpt lat="47.05788" lon="-1.98906">
        <ele>3.3</ele>
        <time>2020-06-04T15:58:15Z</time>
      </trkpt>
      <trkpt lat="47.05795" lon="-1.98905">
        <ele>3.3</ele>
        <time>2020-06-04T15:58:16Z</time>
      </trkpt>
      <trkpt lat="47.05801" lon="-1.98906">
        <ele>3.3</ele>
        <time>2020-06-04T15:58:17Z</time>
      </trkpt>
      <trkpt lat="47.05806" lon="-1.98906">
        <ele>3.3</ele>
        <time>2020-06-04T15:58:18Z</time>
      </trkpt>
      <trkpt lat="47.05811" lon="-1.98906">
        <ele>3.2</ele>
        <time>2020-06-04T15:58:19Z</time>
      </trkpt>
      <trkpt lat="47.05815" lon="-1.98905">
        <ele>3.2</ele>
        <time>2020-06-04T15:58:20Z</time>
      </trkpt>
      <trkpt lat="47.05819" lon="-1.98905">
        <ele>3.2</ele>
        <time>2020-06-04T15:58:21Z</time>
      </trkpt>
      <trkpt lat="47.05824" lon="-1.98905">
        <ele>3.2</ele>
        <time>2020-06-04T15:58:22Z</time>
      </trkpt>
      <trkpt lat="47.05829" lon="-1.98904">
        <ele>3.2</ele>
        <time>2020-06-04T15:58:23Z</time>
      </trkpt>
      <trkpt lat="47.05835" lon="-1.98902">
        <ele>3.2</ele>
        <time>2020-06-04T15:58:24Z</time>
      </trkpt>
      <trkpt lat="47.05841" lon="-1.989">
        <ele>3.2</ele>
        <time>2020-06-04T15:58:25Z</time>
      </trkpt>
      <trkpt lat="47.05845" lon="-1.98898">
        <ele>3.2</ele>
        <time>2020-06-04T15:58:26Z</time>
      </trkpt>
      <trkpt lat="47.05851" lon="-1.98895">
        <ele>3.1</ele>
        <time>2020-06-04T15:58:27Z</time>
      </trkpt>
      <trkpt lat="47.05855" lon="-1.98893">
        <ele>3.1</ele>
        <time>2020-06-04T15:58:28Z</time>
      </trkpt>
      <trkpt lat="47.05861" lon="-1.98891">
        <ele>3.1</ele>
        <time>2020-06-04T15:58:29Z</time>
      </trkpt>
      <trkpt lat="47.05865" lon="-1.98888">
        <ele>3.1</ele>
        <time>2020-06-04T15:58:30Z</time>
      </trkpt>
      <trkpt lat="47.0587" lon="-1.98884">
        <ele>3.1</ele>
        <time>2020-06-04T15:58:31Z</time>
      </trkpt>
      <trkpt lat="47.05874" lon="-1.98881">
        <ele>3.1</ele>
        <time>2020-06-04T15:58:32Z</time>
      </trkpt>
      <trkpt lat="47.05878" lon="-1.9888">
        <ele>3.1</ele>
        <time>2020-06-04T15:58:33Z</time>
      </trkpt>
      <trkpt lat="47.05882" lon="-1.98878">
        <ele>3</ele>
        <time>2020-06-04T15:58:34Z</time>
      </trkpt>
      <trkpt lat="47.05886" lon="-1.98876">
        <ele>3</ele>
        <time>2020-06-04T15:58:35Z</time>
      </trkpt>
      <trkpt lat="47.05891" lon="-1.98873">
        <ele>3</ele>
        <time>2020-06-04T15:58:36Z</time>
      </trkpt>
      <trkpt lat="47.05896" lon="-1.9887">
        <ele>3</ele>
        <time>2020-06-04T15:58:37Z</time>
      </trkpt>
      <trkpt lat="47.05899" lon="-1.98868">
        <ele>3</ele>
        <time>2020-06-04T15:58:38Z</time>
      </trkpt>
      <trkpt lat="47.05902" lon="-1.98865">
        <ele>2.9</ele>
        <time>2020-06-04T15:58:39Z</time>
      </trkpt>
      <trkpt lat="47.05905" lon="-1.98862">
        <ele>2.9</ele>
        <time>2020-06-04T15:58:40Z</time>
      </trkpt>
      <trkpt lat="47.05908" lon="-1.98859">
        <ele>2.9</ele>
        <time>2020-06-04T15:58:41Z</time>
      </trkpt>
      <trkpt lat="47.05912" lon="-1.98857">
        <ele>2.9</ele>
        <time>2020-06-04T15:58:42Z</time>
      </trkpt>
      <trkpt lat="47.05916" lon="-1.98855">
        <ele>2.9</ele>
        <time>2020-06-04T15:58:43Z</time>
      </trkpt>
      <trkpt lat="47.0592" lon="-1.98851">
        <ele>2.9</ele>
        <time>2020-06-04T15:58:44Z</time>
      </trkpt>
      <trkpt lat="47.05924" lon="-1.98845">
        <ele>2.9</ele>
        <time>2020-06-04T15:58:45Z</time>
      </trkpt>
      <trkpt lat="47.05928" lon="-1.98839">
        <ele>2.9</ele>
        <time>2020-06-04T15:58:46Z</time>
      </trkpt>
      <trkpt lat="47.05932" lon="-1.9883">
        <ele>2.9</ele>
        <time>2020-06-04T15:58:47Z</time>
      </trkpt>
      <trkpt lat="47.05934" lon="-1.98826">
        <ele>2.9</ele>
        <time>2020-06-04T15:58:48Z</time>
      </trkpt>
      <trkpt lat="47.05935" lon="-1.98819">
        <ele>2.9</ele>
        <time>2020-06-04T15:58:49Z</time>
      </trkpt>
      <trkpt lat="47.05937" lon="-1.98811">
        <ele>2.9</ele>
        <time>2020-06-04T15:58:50Z</time>
      </trkpt>
      <trkpt lat="47.05938" lon="-1.98804">
        <ele>2.9</ele>
        <time>2020-06-04T15:58:51Z</time>
      </trkpt>
      <trkpt lat="47.05939" lon="-1.98797">
        <ele>2.9</ele>
        <time>2020-06-04T15:58:52Z</time>
      </trkpt>
      <trkpt lat="47.0594" lon="-1.9879">
        <ele>2.9</ele>
        <time>2020-06-04T15:58:53Z</time>
      </trkpt>
      <trkpt lat="47.0594" lon="-1.98782">
        <ele>2.9</ele>
        <time>2020-06-04T15:58:54Z</time>
      </trkpt>
      <trkpt lat="47.05941" lon="-1.98775">
        <ele>3</ele>
        <time>2020-06-04T15:58:55Z</time>
      </trkpt>
      <trkpt lat="47.05942" lon="-1.9877">
        <ele>3</ele>
        <time>2020-06-04T15:58:56Z</time>
      </trkpt>
      <trkpt lat="47.05943" lon="-1.98765">
        <ele>3</ele>
        <time>2020-06-04T15:58:57Z</time>
      </trkpt>
      <trkpt lat="47.05946" lon="-1.98757">
        <ele>3</ele>
        <time>2020-06-04T15:58:58Z</time>
      </trkpt>
      <trkpt lat="47.05948" lon="-1.98752">
        <ele>3</ele>
        <time>2020-06-04T15:58:59Z</time>
      </trkpt>
      <trkpt lat="47.05952" lon="-1.98748">
        <ele>3</ele>
        <time>2020-06-04T15:59:00Z</time>
      </trkpt>
      <trkpt lat="47.05956" lon="-1.98744">
        <ele>3.1</ele>
        <time>2020-06-04T15:59:01Z</time>
      </trkpt>
      <trkpt lat="47.0596" lon="-1.98741">
        <ele>3.1</ele>
        <time>2020-06-04T15:59:02Z</time>
      </trkpt>
      <trkpt lat="47.05964" lon="-1.98738">
        <ele>3.1</ele>
        <time>2020-06-04T15:59:03Z</time>
      </trkpt>
      <trkpt lat="47.05968" lon="-1.98734">
        <ele>3.1</ele>
        <time>2020-06-04T15:59:04Z</time>
      </trkpt>
      <trkpt lat="47.05972" lon="-1.98732">
        <ele>3.2</ele>
        <time>2020-06-04T15:59:05Z</time>
      </trkpt>
      <trkpt lat="47.05977" lon="-1.98728">
        <ele>3.2</ele>
        <time>2020-06-04T15:59:06Z</time>
      </trkpt>
      <trkpt lat="47.05982" lon="-1.98725">
        <ele>3.2</ele>
        <time>2020-06-04T15:59:07Z</time>
      </trkpt>
      <trkpt lat="47.05985" lon="-1.98723">
        <ele>3.3</ele>
        <time>2020-06-04T15:59:08Z</time>
      </trkpt>
      <trkpt lat="47.05989" lon="-1.98722">
        <ele>3.3</ele>
        <time>2020-06-04T15:59:09Z</time>
      </trkpt>
      <trkpt lat="47.05992" lon="-1.98723">
        <ele>3.3</ele>
        <time>2020-06-04T15:59:10Z</time>
      </trkpt>
      <trkpt lat="47.05996" lon="-1.98728">
        <ele>3.3</ele>
        <time>2020-06-04T15:59:11Z</time>
      </trkpt>
      <trkpt lat="47.05998" lon="-1.98734">
        <ele>3.3</ele>
        <time>2020-06-04T15:59:12Z</time>
      </trkpt>
      <trkpt lat="47.06" lon="-1.98739">
        <ele>3.3</ele>
        <time>2020-06-04T15:59:13Z</time>
      </trkpt>
      <trkpt lat="47.06002" lon="-1.98744">
        <ele>3.2</ele>
        <time>2020-06-04T15:59:14Z</time>
      </trkpt>
      <trkpt lat="47.06005" lon="-1.9875">
        <ele>3.2</ele>
        <time>2020-06-04T15:59:15Z</time>
      </trkpt>
      <trkpt lat="47.06008" lon="-1.98755">
        <ele>3.2</ele>
        <time>2020-06-04T15:59:16Z</time>
      </trkpt>
      <trkpt lat="47.0601" lon="-1.98761">
        <ele>3.2</ele>
        <time>2020-06-04T15:59:17Z</time>
      </trkpt>
      <trkpt lat="47.06013" lon="-1.98767">
        <ele>3.2</ele>
        <time>2020-06-04T15:59:18Z</time>
      </trkpt>
      <trkpt lat="47.06015" lon="-1.98773">
        <ele>3.2</ele>
        <time>2020-06-04T15:59:19Z</time>
      </trkpt>
      <trkpt lat="47.06018" lon="-1.98778">
        <ele>3.2</ele>
        <time>2020-06-04T15:59:20Z</time>
      </trkpt>
      <trkpt lat="47.0602" lon="-1.98783">
        <ele>3.2</ele>
        <time>2020-06-04T15:59:21Z</time>
      </trkpt>
      <trkpt lat="47.06023" lon="-1.98787">
        <ele>3.2</ele>
        <time>2020-06-04T15:59:22Z</time>
      </trkpt>
      <trkpt lat="47.06025" lon="-1.98791">
        <ele>3.2</ele>
        <time>2020-06-04T15:59:23Z</time>
      </trkpt>
      <trkpt lat="47.06027" lon="-1.98796">
        <ele>3.2</ele>
        <time>2020-06-04T15:59:24Z</time>
      </trkpt>
      <trkpt lat="47.06029" lon="-1.988">
        <ele>3.2</ele>
        <time>2020-06-04T15:59:25Z</time>
      </trkpt>
      <trkpt lat="47.06031" lon="-1.98805">
        <ele>3.2</ele>
        <time>2020-06-04T15:59:26Z</time>
      </trkpt>
      <trkpt lat="47.06033" lon="-1.9881">
        <ele>3.2</ele>
        <time>2020-06-04T15:59:27Z</time>
      </trkpt>
      <trkpt lat="47.06035" lon="-1.98814">
        <ele>3.2</ele>
        <time>2020-06-04T15:59:28Z</time>
      </trkpt>
      <trkpt lat="47.06036" lon="-1.98819">
        <ele>3.2</ele>
        <time>2020-06-04T15:59:29Z</time>
      </trkpt>
      <trkpt lat="47.06038" lon="-1.98824">
        <ele>3.2</ele>
        <time>2020-06-04T15:59:30Z</time>
      </trkpt>
      <trkpt lat="47.0604" lon="-1.98829">
        <ele>3.2</ele>
        <time>2020-06-04T15:59:31Z</time>
      </trkpt>
      <trkpt lat="47.06042" lon="-1.98834">
        <ele>3.1</ele>
        <time>2020-06-04T15:59:32Z</time>
      </trkpt>
      <trkpt lat="47.06044" lon="-1.98839">
        <ele>3.1</ele>
        <time>2020-06-04T15:59:33Z</time>
      </trkpt>
      <trkpt lat="47.06046" lon="-1.98844">
        <ele>3.1</ele>
        <time>2020-06-04T15:59:34Z</time>
      </trkpt>
      <trkpt lat="47.06048" lon="-1.98851">
        <ele>3.1</ele>
        <time>2020-06-04T15:59:35Z</time>
      </trkpt>
      <trkpt lat="47.0605" lon="-1.98856">
        <ele>3.1</ele>
        <time>2020-06-04T15:59:36Z</time>
      </trkpt>
      <trkpt lat="47.06052" lon="-1.98862">
        <ele>3.1</ele>
        <time>2020-06-04T15:59:37Z</time>
      </trkpt>
      <trkpt lat="47.06054" lon="-1.98868">
        <ele>3.1</ele>
        <time>2020-06-04T15:59:38Z</time>
      </trkpt>
      <trkpt lat="47.06057" lon="-1.98874">
        <ele>3.1</ele>
        <time>2020-06-04T15:59:39Z</time>
      </trkpt>
      <trkpt lat="47.06059" lon="-1.98881">
        <ele>3.1</ele>
        <time>2020-06-04T15:59:40Z</time>
      </trkpt>
      <trkpt lat="47.06061" lon="-1.98887">
        <ele>3.1</ele>
        <time>2020-06-04T15:59:41Z</time>
      </trkpt>
      <trkpt lat="47.06063" lon="-1.98893">
        <ele>3.1</ele>
        <time>2020-06-04T15:59:42Z</time>
      </trkpt>
      <trkpt lat="47.06065" lon="-1.989">
        <ele>3</ele>
        <time>2020-06-04T15:59:43Z</time>
      </trkpt>
      <trkpt lat="47.06067" lon="-1.98906">
        <ele>3</ele>
        <time>2020-06-04T15:59:44Z</time>
      </trkpt>
      <trkpt lat="47.06069" lon="-1.98912">
        <ele>3</ele>
        <time>2020-06-04T15:59:45Z</time>
      </trkpt>
      <trkpt lat="47.06072" lon="-1.98918">
        <ele>3</ele>
        <time>2020-06-04T15:59:46Z</time>
      </trkpt>
      <trkpt lat="47.06073" lon="-1.98924">
        <ele>3</ele>
        <time>2020-06-04T15:59:47Z</time>
      </trkpt>
      <trkpt lat="47.06075" lon="-1.98932">
        <ele>3</ele>
        <time>2020-06-04T15:59:48Z</time>
      </trkpt>
      <trkpt lat="47.06077" lon="-1.98937">
        <ele>2.9</ele>
        <time>2020-06-04T15:59:49Z</time>
      </trkpt>
      <trkpt lat="47.06079" lon="-1.98943">
        <ele>2.9</ele>
        <time>2020-06-04T15:59:50Z</time>
      </trkpt>
      <trkpt lat="47.06081" lon="-1.9895">
        <ele>2.9</ele>
        <time>2020-06-04T15:59:51Z</time>
      </trkpt>
      <trkpt lat="47.06083" lon="-1.98957">
        <ele>2.8</ele>
        <time>2020-06-04T15:59:52Z</time>
      </trkpt>
      <trkpt lat="47.06084" lon="-1.98964">
        <ele>2.8</ele>
        <time>2020-06-04T15:59:53Z</time>
      </trkpt>
      <trkpt lat="47.06086" lon="-1.98972">
        <ele>2.8</ele>
        <time>2020-06-04T15:59:54Z</time>
      </trkpt>
      <trkpt lat="47.06087" lon="-1.98979">
        <ele>2.8</ele>
        <time>2020-06-04T15:59:55Z</time>
      </trkpt>
      <trkpt lat="47.06089" lon="-1.98987">
        <ele>2.8</ele>
        <time>2020-06-04T15:59:56Z</time>
      </trkpt>
      <trkpt lat="47.06091" lon="-1.98994">
        <ele>2.8</ele>
        <time>2020-06-04T15:59:57Z</time>
      </trkpt>
      <trkpt lat="47.06093" lon="-1.99001">
        <ele>2.8</ele>
        <time>2020-06-04T15:59:58Z</time>
      </trkpt>
      <trkpt lat="47.06095" lon="-1.99009">
        <ele>2.7</ele>
        <time>2020-06-04T15:59:59Z</time>
      </trkpt>
      <trkpt lat="47.06096" lon="-1.99016">
        <ele>2.7</ele>
        <time>2020-06-04T16:00:00Z</time>
      </trkpt>
      <trkpt lat="47.06098" lon="-1.99023">
        <ele>2.7</ele>
        <time>2020-06-04T16:00:01Z</time>
      </trkpt>
      <trkpt lat="47.06099" lon="-1.99031">
        <ele>2.7</ele>
        <time>2020-06-04T16:00:02Z</time>
      </trkpt>
      <trkpt lat="47.06101" lon="-1.99038">
        <ele>2.7</ele>
        <time>2020-06-04T16:00:03Z</time>
      </trkpt>
      <trkpt lat="47.06103" lon="-1.99046">
        <ele>2.7</ele>
        <time>2020-06-04T16:00:04Z</time>
      </trkpt>
      <trkpt lat="47.06104" lon="-1.99053">
        <ele>2.6</ele>
        <time>2020-06-04T16:00:05Z</time>
      </trkpt>
      <trkpt lat="47.06106" lon="-1.99061">
        <ele>2.6</ele>
        <time>2020-06-04T16:00:06Z</time>
      </trkpt>
      <trkpt lat="47.06108" lon="-1.99069">
        <ele>2.6</ele>
        <time>2020-06-04T16:00:07Z</time>
      </trkpt>
      <trkpt lat="47.06109" lon="-1.99076">
        <ele>2.6</ele>
        <time>2020-06-04T16:00:08Z</time>
      </trkpt>
      <trkpt lat="47.06111" lon="-1.99083">
        <ele>2.6</ele>
        <time>2020-06-04T16:00:09Z</time>
      </trkpt>
      <trkpt lat="47.06113" lon="-1.99091">
        <ele>2.6</ele>
        <time>2020-06-04T16:00:10Z</time>
      </trkpt>
      <trkpt lat="47.06115" lon="-1.99098">
        <ele>2.6</ele>
        <time>2020-06-04T16:00:11Z</time>
      </trkpt>
      <trkpt lat="47.06117" lon="-1.99106">
        <ele>2.6</ele>
        <time>2020-06-04T16:00:12Z</time>
      </trkpt>
      <trkpt lat="47.06119" lon="-1.99113">
        <ele>2.6</ele>
        <time>2020-06-04T16:00:13Z</time>
      </trkpt>
      <trkpt lat="47.0612" lon="-1.9912">
        <ele>2.6</ele>
        <time>2020-06-04T16:00:14Z</time>
      </trkpt>
      <trkpt lat="47.06122" lon="-1.99127">
        <ele>2.6</ele>
        <time>2020-06-04T16:00:15Z</time>
      </trkpt>
      <trkpt lat="47.06124" lon="-1.99135">
        <ele>2.6</ele>
        <time>2020-06-04T16:00:16Z</time>
      </trkpt>
      <trkpt lat="47.06125" lon="-1.99143">
        <ele>2.6</ele>
        <time>2020-06-04T16:00:17Z</time>
      </trkpt>
      <trkpt lat="47.06126" lon="-1.99151">
        <ele>2.6</ele>
        <time>2020-06-04T16:00:18Z</time>
      </trkpt>
      <trkpt lat="47.06128" lon="-1.99158">
        <ele>2.6</ele>
        <time>2020-06-04T16:00:19Z</time>
      </trkpt>
      <trkpt lat="47.0613" lon="-1.99165">
        <ele>2.6</ele>
        <time>2020-06-04T16:00:20Z</time>
      </trkpt>
      <trkpt lat="47.06131" lon="-1.99172">
        <ele>2.6</ele>
        <time>2020-06-04T16:00:21Z</time>
      </trkpt>
      <trkpt lat="47.06132" lon="-1.99179">
        <ele>2.6</ele>
        <time>2020-06-04T16:00:22Z</time>
      </trkpt>
      <trkpt lat="47.06133" lon="-1.99187">
        <ele>2.6</ele>
        <time>2020-06-04T16:00:23Z</time>
      </trkpt>
      <trkpt lat="47.06134" lon="-1.99194">
        <ele>2.6</ele>
        <time>2020-06-04T16:00:24Z</time>
      </trkpt>
      <trkpt lat="47.06134" lon="-1.99202">
        <ele>2.6</ele>
        <time>2020-06-04T16:00:25Z</time>
      </trkpt>
      <trkpt lat="47.06135" lon="-1.9921">
        <ele>2.6</ele>
        <time>2020-06-04T16:00:26Z</time>
      </trkpt>
      <trkpt lat="47.06137" lon="-1.99218">
        <ele>2.6</ele>
        <time>2020-06-04T16:00:27Z</time>
      </trkpt>
      <trkpt lat="47.06138" lon="-1.99226">
        <ele>2.6</ele>
        <time>2020-06-04T16:00:28Z</time>
      </trkpt>
      <trkpt lat="47.06139" lon="-1.99233">
        <ele>2.6</ele>
        <time>2020-06-04T16:00:29Z</time>
      </trkpt>
      <trkpt lat="47.0614" lon="-1.99242">
        <ele>2.6</ele>
        <time>2020-06-04T16:00:30Z</time>
      </trkpt>
      <trkpt lat="47.06141" lon="-1.99249">
        <ele>2.6</ele>
        <time>2020-06-04T16:00:31Z</time>
      </trkpt>
      <trkpt lat="47.06142" lon="-1.99257">
        <ele>2.6</ele>
        <time>2020-06-04T16:00:32Z</time>
      </trkpt>
      <trkpt lat="47.06143" lon="-1.99265">
        <ele>2.6</ele>
        <time>2020-06-04T16:00:33Z</time>
      </trkpt>
      <trkpt lat="47.06144" lon="-1.99273">
        <ele>2.6</ele>
        <time>2020-06-04T16:00:34Z</time>
      </trkpt>
      <trkpt lat="47.06145" lon="-1.99281">
        <ele>2.6</ele>
        <time>2020-06-04T16:00:35Z</time>
      </trkpt>
      <trkpt lat="47.06145" lon="-1.99288">
        <ele>2.6</ele>
        <time>2020-06-04T16:00:36Z</time>
      </trkpt>
      <trkpt lat="47.06145" lon="-1.99297">
        <ele>2.6</ele>
        <time>2020-06-04T16:00:37Z</time>
      </trkpt>
      <trkpt lat="47.06145" lon="-1.99305">
        <ele>2.6</ele>
        <time>2020-06-04T16:00:38Z</time>
      </trkpt>
      <trkpt lat="47.06145" lon="-1.99315">
        <ele>2.6</ele>
        <time>2020-06-04T16:00:39Z</time>
      </trkpt>
      <trkpt lat="47.06146" lon="-1.99324">
        <ele>2.5</ele>
        <time>2020-06-04T16:00:40Z</time>
      </trkpt>
      <trkpt lat="47.06146" lon="-1.99332">
        <ele>2.5</ele>
        <time>2020-06-04T16:00:41Z</time>
      </trkpt>
      <trkpt lat="47.06147" lon="-1.99341">
        <ele>2.5</ele>
        <time>2020-06-04T16:00:42Z</time>
      </trkpt>
      <trkpt lat="47.06147" lon="-1.9935">
        <ele>2.5</ele>
        <time>2020-06-04T16:00:43Z</time>
      </trkpt>
      <trkpt lat="47.06147" lon="-1.99358">
        <ele>2.5</ele>
        <time>2020-06-04T16:00:44Z</time>
      </trkpt>
      <trkpt lat="47.06147" lon="-1.99366">
        <ele>2.5</ele>
        <time>2020-06-04T16:00:45Z</time>
      </trkpt>
      <trkpt lat="47.06148" lon="-1.99374">
        <ele>2.5</ele>
        <time>2020-06-04T16:00:46Z</time>
      </trkpt>
      <trkpt lat="47.06148" lon="-1.99381">
        <ele>2.4</ele>
        <time>2020-06-04T16:00:47Z</time>
      </trkpt>
      <trkpt lat="47.06148" lon="-1.99388">
        <ele>2.4</ele>
        <time>2020-06-04T16:00:48Z</time>
      </trkpt>
      <trkpt lat="47.06148" lon="-1.99395">
        <ele>2.4</ele>
        <time>2020-06-04T16:00:49Z</time>
      </trkpt>
      <trkpt lat="47.06148" lon="-1.99403">
        <ele>2.4</ele>
        <time>2020-06-04T16:00:50Z</time>
      </trkpt>
      <trkpt lat="47.06148" lon="-1.99412">
        <ele>2.4</ele>
        <time>2020-06-04T16:00:51Z</time>
      </trkpt>
      <trkpt lat="47.06149" lon="-1.9942">
        <ele>2.4</ele>
        <time>2020-06-04T16:00:52Z</time>
      </trkpt>
      <trkpt lat="47.06149" lon="-1.99429">
        <ele>2.3</ele>
        <time>2020-06-04T16:00:53Z</time>
      </trkpt>
      <trkpt lat="47.0615" lon="-1.99437">
        <ele>2.3</ele>
        <time>2020-06-04T16:00:54Z</time>
      </trkpt>
      <trkpt lat="47.06149" lon="-1.99446">
        <ele>2.3</ele>
        <time>2020-06-04T16:00:55Z</time>
      </trkpt>
      <trkpt lat="47.06148" lon="-1.99455">
        <ele>2.3</ele>
        <time>2020-06-04T16:00:56Z</time>
      </trkpt>
      <trkpt lat="47.06148" lon="-1.99464">
        <ele>2.2</ele>
        <time>2020-06-04T16:00:57Z</time>
      </trkpt>
      <trkpt lat="47.06147" lon="-1.99472">
        <ele>2.2</ele>
        <time>2020-06-04T16:00:58Z</time>
      </trkpt>
      <trkpt lat="47.06147" lon="-1.99481">
        <ele>2.1</ele>
        <time>2020-06-04T16:00:59Z</time>
      </trkpt>
      <trkpt lat="47.06146" lon="-1.99489">
        <ele>2.1</ele>
        <time>2020-06-04T16:01:00Z</time>
      </trkpt>
      <trkpt lat="47.06146" lon="-1.99498">
        <ele>2</ele>
        <time>2020-06-04T16:01:01Z</time>
      </trkpt>
      <trkpt lat="47.06146" lon="-1.99507">
        <ele>2</ele>
        <time>2020-06-04T16:01:02Z</time>
      </trkpt>
      <trkpt lat="47.06146" lon="-1.99515">
        <ele>2</ele>
        <time>2020-06-04T16:01:03Z</time>
      </trkpt>
      <trkpt lat="47.06145" lon="-1.99523">
        <ele>2</ele>
        <time>2020-06-04T16:01:04Z</time>
      </trkpt>
      <trkpt lat="47.06145" lon="-1.99532">
        <ele>2</ele>
        <time>2020-06-04T16:01:05Z</time>
      </trkpt>
      <trkpt lat="47.06145" lon="-1.9954">
        <ele>2</ele>
        <time>2020-06-04T16:01:06Z</time>
      </trkpt>
      <trkpt lat="47.06145" lon="-1.99548">
        <ele>2</ele>
        <time>2020-06-04T16:01:07Z</time>
      </trkpt>
      <trkpt lat="47.06145" lon="-1.99556">
        <ele>2</ele>
        <time>2020-06-04T16:01:08Z</time>
      </trkpt>
      <trkpt lat="47.06146" lon="-1.99565">
        <ele>2</ele>
        <time>2020-06-04T16:01:09Z</time>
      </trkpt>
      <trkpt lat="47.06146" lon="-1.99572">
        <ele>2</ele>
        <time>2020-06-04T16:01:10Z</time>
      </trkpt>
      <trkpt lat="47.06147" lon="-1.9958">
        <ele>2</ele>
        <time>2020-06-04T16:01:11Z</time>
      </trkpt>
      <trkpt lat="47.06146" lon="-1.99588">
        <ele>2</ele>
        <time>2020-06-04T16:01:12Z</time>
      </trkpt>
      <trkpt lat="47.06147" lon="-1.99596">
        <ele>1.9</ele>
        <time>2020-06-04T16:01:13Z</time>
      </trkpt>
      <trkpt lat="47.06147" lon="-1.99604">
        <ele>1.9</ele>
        <time>2020-06-04T16:01:14Z</time>
      </trkpt>
      <trkpt lat="47.06148" lon="-1.99612">
        <ele>1.9</ele>
        <time>2020-06-04T16:01:15Z</time>
      </trkpt>
      <trkpt lat="47.06148" lon="-1.99621">
        <ele>1.8</ele>
        <time>2020-06-04T16:01:16Z</time>
      </trkpt>
      <trkpt lat="47.06149" lon="-1.99629">
        <ele>1.8</ele>
        <time>2020-06-04T16:01:17Z</time>
      </trkpt>
      <trkpt lat="47.06149" lon="-1.99637">
        <ele>1.8</ele>
        <time>2020-06-04T16:01:18Z</time>
      </trkpt>
      <trkpt lat="47.0615" lon="-1.99645">
        <ele>1.8</ele>
        <time>2020-06-04T16:01:19Z</time>
      </trkpt>
      <trkpt lat="47.0615" lon="-1.99653">
        <ele>1.9</ele>
        <time>2020-06-04T16:01:20Z</time>
      </trkpt>
      <trkpt lat="47.0615" lon="-1.99661">
        <ele>1.9</ele>
        <time>2020-06-04T16:01:21Z</time>
      </trkpt>
      <trkpt lat="47.06149" lon="-1.99669">
        <ele>1.9</ele>
        <time>2020-06-04T16:01:22Z</time>
      </trkpt>
      <trkpt lat="47.06149" lon="-1.99677">
        <ele>1.9</ele>
        <time>2020-06-04T16:01:23Z</time>
      </trkpt>
      <trkpt lat="47.06148" lon="-1.99685">
        <ele>2</ele>
        <time>2020-06-04T16:01:24Z</time>
      </trkpt>
      <trkpt lat="47.06149" lon="-1.99693">
        <ele>2</ele>
        <time>2020-06-04T16:01:25Z</time>
      </trkpt>
      <trkpt lat="47.0615" lon="-1.997">
        <ele>2</ele>
        <time>2020-06-04T16:01:26Z</time>
      </trkpt>
      <trkpt lat="47.0615" lon="-1.99708">
        <ele>2</ele>
        <time>2020-06-04T16:01:27Z</time>
      </trkpt>
      <trkpt lat="47.0615" lon="-1.99716">
        <ele>2</ele>
        <time>2020-06-04T16:01:28Z</time>
      </trkpt>
      <trkpt lat="47.0615" lon="-1.99724">
        <ele>2</ele>
        <time>2020-06-04T16:01:29Z</time>
      </trkpt>
      <trkpt lat="47.06149" lon="-1.99733">
        <ele>2</ele>
        <time>2020-06-04T16:01:30Z</time>
      </trkpt>
      <trkpt lat="47.06149" lon="-1.99742">
        <ele>2</ele>
        <time>2020-06-04T16:01:31Z</time>
      </trkpt>
      <trkpt lat="47.06149" lon="-1.99751">
        <ele>2</ele>
        <time>2020-06-04T16:01:32Z</time>
      </trkpt>
      <trkpt lat="47.06148" lon="-1.9976">
        <ele>2</ele>
        <time>2020-06-04T16:01:33Z</time>
      </trkpt>
      <trkpt lat="47.06148" lon="-1.99769">
        <ele>2</ele>
        <time>2020-06-04T16:01:34Z</time>
      </trkpt>
      <trkpt lat="47.06148" lon="-1.99778">
        <ele>2</ele>
        <time>2020-06-04T16:01:35Z</time>
      </trkpt>
      <trkpt lat="47.06147" lon="-1.99786">
        <ele>2</ele>
        <time>2020-06-04T16:01:36Z</time>
      </trkpt>
      <trkpt lat="47.06147" lon="-1.99794">
        <ele>2</ele>
        <time>2020-06-04T16:01:37Z</time>
      </trkpt>
      <trkpt lat="47.06148" lon="-1.99802">
        <ele>2</ele>
        <time>2020-06-04T16:01:38Z</time>
      </trkpt>
      <trkpt lat="47.06148" lon="-1.9981">
        <ele>2</ele>
        <time>2020-06-04T16:01:39Z</time>
      </trkpt>
      <trkpt lat="47.06149" lon="-1.99818">
        <ele>2</ele>
        <time>2020-06-04T16:01:40Z</time>
      </trkpt>
      <trkpt lat="47.06149" lon="-1.99826">
        <ele>2.1</ele>
        <time>2020-06-04T16:01:41Z</time>
      </trkpt>
      <trkpt lat="47.06149" lon="-1.99834">
        <ele>2.1</ele>
        <time>2020-06-04T16:01:42Z</time>
      </trkpt>
      <trkpt lat="47.06151" lon="-1.99842">
        <ele>2</ele>
        <time>2020-06-04T16:01:43Z</time>
      </trkpt>
      <trkpt lat="47.06151" lon="-1.99851">
        <ele>2</ele>
        <time>2020-06-04T16:01:44Z</time>
      </trkpt>
      <trkpt lat="47.06151" lon="-1.99859">
        <ele>2</ele>
        <time>2020-06-04T16:01:45Z</time>
      </trkpt>
      <trkpt lat="47.06152" lon="-1.99865">
        <ele>2</ele>
        <time>2020-06-04T16:01:46Z</time>
      </trkpt>
      <trkpt lat="47.06152" lon="-1.99873">
        <ele>2</ele>
        <time>2020-06-04T16:01:47Z</time>
      </trkpt>
      <trkpt lat="47.06152" lon="-1.99881">
        <ele>2</ele>
        <time>2020-06-04T16:01:48Z</time>
      </trkpt>
      <trkpt lat="47.06153" lon="-1.99888">
        <ele>2</ele>
        <time>2020-06-04T16:01:49Z</time>
      </trkpt>
      <trkpt lat="47.06152" lon="-1.99897">
        <ele>2</ele>
        <time>2020-06-04T16:01:50Z</time>
      </trkpt>
      <trkpt lat="47.06153" lon="-1.99904">
        <ele>2</ele>
        <time>2020-06-04T16:01:51Z</time>
      </trkpt>
      <trkpt lat="47.06153" lon="-1.99911">
        <ele>2.1</ele>
        <time>2020-06-04T16:01:52Z</time>
      </trkpt>
      <trkpt lat="47.06154" lon="-1.99919">
        <ele>2.1</ele>
        <time>2020-06-04T16:01:53Z</time>
      </trkpt>
      <trkpt lat="47.06155" lon="-1.99928">
        <ele>2.1</ele>
        <time>2020-06-04T16:01:54Z</time>
      </trkpt>
      <trkpt lat="47.06156" lon="-1.99935">
        <ele>2.1</ele>
        <time>2020-06-04T16:01:55Z</time>
      </trkpt>
      <trkpt lat="47.06157" lon="-1.99943">
        <ele>2.1</ele>
        <time>2020-06-04T16:01:56Z</time>
      </trkpt>
      <trkpt lat="47.06158" lon="-1.99951">
        <ele>2.2</ele>
        <time>2020-06-04T16:01:57Z</time>
      </trkpt>
      <trkpt lat="47.06159" lon="-1.9996">
        <ele>2.2</ele>
        <time>2020-06-04T16:01:58Z</time>
      </trkpt>
      <trkpt lat="47.0616" lon="-1.99968">
        <ele>2.2</ele>
        <time>2020-06-04T16:01:59Z</time>
      </trkpt>
      <trkpt lat="47.06161" lon="-1.99976">
        <ele>2.2</ele>
        <time>2020-06-04T16:02:00Z</time>
      </trkpt>
      <trkpt lat="47.06161" lon="-1.99985">
        <ele>2.2</ele>
        <time>2020-06-04T16:02:01Z</time>
      </trkpt>
      <trkpt lat="47.06161" lon="-1.99993">
        <ele>2.3</ele>
        <time>2020-06-04T16:02:02Z</time>
      </trkpt>
      <trkpt lat="47.06159" lon="-1.99998">
        <ele>2.3</ele>
        <time>2020-06-04T16:02:03Z</time>
      </trkpt>
      <trkpt lat="47.06157" lon="-2.00002">
        <ele>2.3</ele>
        <time>2020-06-04T16:02:04Z</time>
      </trkpt>
      <trkpt lat="47.06154" lon="-2.00007">
        <ele>2.3</ele>
        <time>2020-06-04T16:02:05Z</time>
      </trkpt>
      <trkpt lat="47.06152" lon="-2.00013">
        <ele>2.3</ele>
        <time>2020-06-04T16:02:06Z</time>
      </trkpt>
      <trkpt lat="47.06151" lon="-2.0002">
        <ele>2.3</ele>
        <time>2020-06-04T16:02:07Z</time>
      </trkpt>
      <trkpt lat="47.06151" lon="-2.00026">
        <ele>2.3</ele>
        <time>2020-06-04T16:02:08Z</time>
      </trkpt>
      <trkpt lat="47.06151" lon="-2.00031">
        <ele>2.3</ele>
        <time>2020-06-04T16:02:09Z</time>
      </trkpt>
      <trkpt lat="47.06151" lon="-2.00037">
        <ele>2.3</ele>
        <time>2020-06-04T16:02:10Z</time>
      </trkpt>
      <trkpt lat="47.06152" lon="-2.00043">
        <ele>2.3</ele>
        <time>2020-06-04T16:02:11Z</time>
      </trkpt>
      <trkpt lat="47.06153" lon="-2.0005">
        <ele>2.3</ele>
        <time>2020-06-04T16:02:12Z</time>
      </trkpt>
      <trkpt lat="47.06155" lon="-2.00057">
        <ele>2.3</ele>
        <time>2020-06-04T16:02:13Z</time>
      </trkpt>
      <trkpt lat="47.06157" lon="-2.00063">
        <ele>2.3</ele>
        <time>2020-06-04T16:02:14Z</time>
      </trkpt>
      <trkpt lat="47.06158" lon="-2.0007">
        <ele>2.3</ele>
        <time>2020-06-04T16:02:15Z</time>
      </trkpt>
      <trkpt lat="47.06159" lon="-2.00077">
        <ele>2.2</ele>
        <time>2020-06-04T16:02:16Z</time>
      </trkpt>
      <trkpt lat="47.0616" lon="-2.00083">
        <ele>2.2</ele>
        <time>2020-06-04T16:02:17Z</time>
      </trkpt>
      <trkpt lat="47.06162" lon="-2.00089">
        <ele>2.2</ele>
        <time>2020-06-04T16:02:18Z</time>
      </trkpt>
      <trkpt lat="47.06163" lon="-2.00095">
        <ele>2.2</ele>
        <time>2020-06-04T16:02:19Z</time>
      </trkpt>
      <trkpt lat="47.06164" lon="-2.00101">
        <ele>2.2</ele>
        <time>2020-06-04T16:02:20Z</time>
      </trkpt>
      <trkpt lat="47.06165" lon="-2.00107">
        <ele>2.2</ele>
        <time>2020-06-04T16:02:21Z</time>
      </trkpt>
      <trkpt lat="47.06168" lon="-2.00111">
        <ele>2.2</ele>
        <time>2020-06-04T16:02:22Z</time>
      </trkpt>
      <trkpt lat="47.06169" lon="-2.00118">
        <ele>2.3</ele>
        <time>2020-06-04T16:02:23Z</time>
      </trkpt>
      <trkpt lat="47.06171" lon="-2.00125">
        <ele>2.3</ele>
        <time>2020-06-04T16:02:24Z</time>
      </trkpt>
      <trkpt lat="47.06172" lon="-2.00132">
        <ele>2.3</ele>
        <time>2020-06-04T16:02:25Z</time>
      </trkpt>
      <trkpt lat="47.06173" lon="-2.00139">
        <ele>2.4</ele>
        <time>2020-06-04T16:02:26Z</time>
      </trkpt>
      <trkpt lat="47.06174" lon="-2.00146">
        <ele>2.4</ele>
        <time>2020-06-04T16:02:27Z</time>
      </trkpt>
      <trkpt lat="47.06175" lon="-2.00152">
        <ele>2.5</ele>
        <time>2020-06-04T16:02:28Z</time>
      </trkpt>
      <trkpt lat="47.06177" lon="-2.00159">
        <ele>2.6</ele>
        <time>2020-06-04T16:02:29Z</time>
      </trkpt>
      <trkpt lat="47.06179" lon="-2.00165">
        <ele>2.6</ele>
        <time>2020-06-04T16:02:30Z</time>
      </trkpt>
      <trkpt lat="47.0618" lon="-2.0017">
        <ele>2.7</ele>
        <time>2020-06-04T16:02:31Z</time>
      </trkpt>
      <trkpt lat="47.06182" lon="-2.00175">
        <ele>2.8</ele>
        <time>2020-06-04T16:02:32Z</time>
      </trkpt>
      <trkpt lat="47.06183" lon="-2.00179">
        <ele>2.8</ele>
        <time>2020-06-04T16:02:33Z</time>
      </trkpt>
      <trkpt lat="47.06184" lon="-2.00184">
        <ele>2.9</ele>
        <time>2020-06-04T16:02:34Z</time>
      </trkpt>
      <trkpt lat="47.06184" lon="-2.00185">
        <ele>2.9</ele>
        <time>2020-06-04T16:02:35Z</time>
      </trkpt>
      <trkpt lat="47.06188" lon="-2.00187">
        <ele>3.1</ele>
        <time>2020-06-04T16:02:36Z</time>
      </trkpt>
      <trkpt lat="47.06188" lon="-2.00188">
        <ele>3.1</ele>
        <time>2020-06-04T16:02:37Z</time>
      </trkpt>
      <trkpt lat="47.06191" lon="-2.00191">
        <ele>3.1</ele>
        <time>2020-06-04T16:02:38Z</time>
      </trkpt>
      <trkpt lat="47.06192" lon="-2.00192">
        <ele>3.2</ele>
        <time>2020-06-04T16:02:39Z</time>
      </trkpt>
      <trkpt lat="47.06196" lon="-2.00191">
        <ele>3.2</ele>
        <time>2020-06-04T16:02:40Z</time>
      </trkpt>
      <trkpt lat="47.06198" lon="-2.00191">
        <ele>3.2</ele>
        <time>2020-06-04T16:02:41Z</time>
      </trkpt>
      <trkpt lat="47.06201" lon="-2.0019">
        <ele>3.3</ele>
        <time>2020-06-04T16:02:42Z</time>
      </trkpt>
      <trkpt lat="47.06204" lon="-2.00189">
        <ele>3.3</ele>
        <time>2020-06-04T16:02:43Z</time>
      </trkpt>
      <trkpt lat="47.06208" lon="-2.00188">
        <ele>3.4</ele>
        <time>2020-06-04T16:02:44Z</time>
      </trkpt>
      <trkpt lat="47.06209" lon="-2.00187">
        <ele>3.4</ele>
        <time>2020-06-04T16:02:45Z</time>
      </trkpt>
      <trkpt lat="47.06211" lon="-2.00186">
        <ele>3.4</ele>
        <time>2020-06-04T16:02:46Z</time>
      </trkpt>
      <trkpt lat="47.06212" lon="-2.00186">
        <ele>3.4</ele>
        <time>2020-06-04T16:02:47Z</time>
      </trkpt>
      <trkpt lat="47.06215" lon="-2.00185">
        <ele>3.5</ele>
        <time>2020-06-04T16:02:48Z</time>
      </trkpt>
      <trkpt lat="47.06216" lon="-2.00184">
        <ele>3.6</ele>
        <time>2020-06-04T16:02:49Z</time>
      </trkpt>
      <trkpt lat="47.06219" lon="-2.00182">
        <ele>3.6</ele>
        <time>2020-06-04T16:02:50Z</time>
      </trkpt>
      <trkpt lat="47.06222" lon="-2.0018">
        <ele>3.7</ele>
        <time>2020-06-04T16:02:51Z</time>
      </trkpt>
      <trkpt lat="47.06224" lon="-2.00176">
        <ele>3.7</ele>
        <time>2020-06-04T16:02:52Z</time>
      </trkpt>
      <trkpt lat="47.06227" lon="-2.00174">
        <ele>3.8</ele>
        <time>2020-06-04T16:02:53Z</time>
      </trkpt>
      <trkpt lat="47.06229" lon="-2.00171">
        <ele>3.8</ele>
        <time>2020-06-04T16:02:54Z</time>
      </trkpt>
      <trkpt lat="47.0623" lon="-2.00169">
        <ele>3.9</ele>
        <time>2020-06-04T16:02:55Z</time>
      </trkpt>
      <trkpt lat="47.06232" lon="-2.00168">
        <ele>3.9</ele>
        <time>2020-06-04T16:02:56Z</time>
      </trkpt>
      <trkpt lat="47.06233" lon="-2.00166">
        <ele>3.9</ele>
        <time>2020-06-04T16:02:57Z</time>
      </trkpt>
      <trkpt lat="47.06234" lon="-2.00164">
        <ele>3.9</ele>
        <time>2020-06-04T16:02:58Z</time>
      </trkpt>
      <trkpt lat="47.06234" lon="-2.00161">
        <ele>4</ele>
        <time>2020-06-04T16:02:59Z</time>
      </trkpt>
      <trkpt lat="47.06233" lon="-2.00157">
        <ele>4</ele>
        <time>2020-06-04T16:03:00Z</time>
      </trkpt>
      <trkpt lat="47.06232" lon="-2.00151">
        <ele>4.1</ele>
        <time>2020-06-04T16:03:01Z</time>
      </trkpt>
      <trkpt lat="47.06232" lon="-2.00145">
        <ele>4.1</ele>
        <time>2020-06-04T16:03:02Z</time>
      </trkpt>
      <trkpt lat="47.06232" lon="-2.00139">
        <ele>4.2</ele>
        <time>2020-06-04T16:03:03Z</time>
      </trkpt>
      <trkpt lat="47.06231" lon="-2.00133">
        <ele>4.2</ele>
        <time>2020-06-04T16:03:04Z</time>
      </trkpt>
      <trkpt lat="47.06233" lon="-2.00129">
        <ele>4.3</ele>
        <time>2020-06-04T16:03:05Z</time>
      </trkpt>
      <trkpt lat="47.06237" lon="-2.00127">
        <ele>4.4</ele>
        <time>2020-06-04T16:03:06Z</time>
      </trkpt>
      <trkpt lat="47.06239" lon="-2.00126">
        <ele>4.4</ele>
        <time>2020-06-04T16:03:07Z</time>
      </trkpt>
      <trkpt lat="47.06242" lon="-2.00125">
        <ele>4.5</ele>
        <time>2020-06-04T16:03:08Z</time>
      </trkpt>
      <trkpt lat="47.06245" lon="-2.00125">
        <ele>4.5</ele>
        <time>2020-06-04T16:03:09Z</time>
      </trkpt>
      <trkpt lat="47.06248" lon="-2.00124">
        <ele>4.6</ele>
        <time>2020-06-04T16:03:10Z</time>
      </trkpt>
      <trkpt lat="47.06251" lon="-2.00123">
        <ele>4.6</ele>
        <time>2020-06-04T16:03:11Z</time>
      </trkpt>
      <trkpt lat="47.06255" lon="-2.00121">
        <ele>4.6</ele>
        <time>2020-06-04T16:03:12Z</time>
      </trkpt>
      <trkpt lat="47.06257" lon="-2.0012">
        <ele>4.7</ele>
        <time>2020-06-04T16:03:13Z</time>
      </trkpt>
      <trkpt lat="47.0626" lon="-2.0012">
        <ele>4.7</ele>
        <time>2020-06-04T16:03:14Z</time>
      </trkpt>
      <trkpt lat="47.06261" lon="-2.00119">
        <ele>4.7</ele>
        <time>2020-06-04T16:03:15Z</time>
      </trkpt>
      <trkpt lat="47.06264" lon="-2.00118">
        <ele>4.7</ele>
        <time>2020-06-04T16:03:16Z</time>
      </trkpt>
      <trkpt lat="47.06267" lon="-2.00117">
        <ele>4.8</ele>
        <time>2020-06-04T16:03:17Z</time>
      </trkpt>
      <trkpt lat="47.0627" lon="-2.00116">
        <ele>4.8</ele>
        <time>2020-06-04T16:03:18Z</time>
      </trkpt>
      <trkpt lat="47.06273" lon="-2.00113">
        <ele>4.9</ele>
        <time>2020-06-04T16:03:19Z</time>
      </trkpt>
      <trkpt lat="47.06277" lon="-2.00112">
        <ele>4.9</ele>
        <time>2020-06-04T16:03:20Z</time>
      </trkpt>
      <trkpt lat="47.0628" lon="-2.00109">
        <ele>4.9</ele>
        <time>2020-06-04T16:03:21Z</time>
      </trkpt>
      <trkpt lat="47.06284" lon="-2.00107">
        <ele>5</ele>
        <time>2020-06-04T16:03:22Z</time>
      </trkpt>
      <trkpt lat="47.06287" lon="-2.00106">
        <ele>5</ele>
        <time>2020-06-04T16:03:23Z</time>
      </trkpt>
      <trkpt lat="47.06289" lon="-2.00106">
        <ele>5</ele>
        <time>2020-06-04T16:03:24Z</time>
      </trkpt>
      <trkpt lat="47.06292" lon="-2.00105">
        <ele>5</ele>
        <time>2020-06-04T16:03:25Z</time>
      </trkpt>
      <trkpt lat="47.06296" lon="-2.00104">
        <ele>5.1</ele>
        <time>2020-06-04T16:03:26Z</time>
      </trkpt>
      <trkpt lat="47.06299" lon="-2.00102">
        <ele>5.1</ele>
        <time>2020-06-04T16:03:27Z</time>
      </trkpt>
      <trkpt lat="47.06303" lon="-2.001">
        <ele>5.1</ele>
        <time>2020-06-04T16:03:28Z</time>
      </trkpt>
      <trkpt lat="47.06305" lon="-2.00098">
        <ele>5.1</ele>
        <time>2020-06-04T16:03:29Z</time>
      </trkpt>
      <trkpt lat="47.06308" lon="-2.00097">
        <ele>5.2</ele>
        <time>2020-06-04T16:03:30Z</time>
      </trkpt>
      <trkpt lat="47.06311" lon="-2.00096">
        <ele>5.2</ele>
        <time>2020-06-04T16:03:31Z</time>
      </trkpt>
      <trkpt lat="47.06312" lon="-2.00096">
        <ele>5.2</ele>
        <time>2020-06-04T16:03:32Z</time>
      </trkpt>
      <trkpt lat="47.06315" lon="-2.00094">
        <ele>5.2</ele>
        <time>2020-06-04T16:03:33Z</time>
      </trkpt>
      <trkpt lat="47.06318" lon="-2.00093">
        <ele>5.2</ele>
        <time>2020-06-04T16:03:34Z</time>
      </trkpt>
      <trkpt lat="47.0632" lon="-2.00091">
        <ele>5.2</ele>
        <time>2020-06-04T16:03:35Z</time>
      </trkpt>
      <trkpt lat="47.06323" lon="-2.00088">
        <ele>5.2</ele>
        <time>2020-06-04T16:03:36Z</time>
      </trkpt>
      <trkpt lat="47.06327" lon="-2.00087">
        <ele>5.2</ele>
        <time>2020-06-04T16:03:37Z</time>
      </trkpt>
      <trkpt lat="47.06328" lon="-2.00087">
        <ele>5.2</ele>
        <time>2020-06-04T16:03:38Z</time>
      </trkpt>
      <trkpt lat="47.06331" lon="-2.00085">
        <ele>5.2</ele>
        <time>2020-06-04T16:03:39Z</time>
      </trkpt>
      <trkpt lat="47.06333" lon="-2.00083">
        <ele>5.2</ele>
        <time>2020-06-04T16:03:40Z</time>
      </trkpt>
      <trkpt lat="47.06336" lon="-2.00082">
        <ele>5.2</ele>
        <time>2020-06-04T16:03:41Z</time>
      </trkpt>
      <trkpt lat="47.06339" lon="-2.00081">
        <ele>5.2</ele>
        <time>2020-06-04T16:03:42Z</time>
      </trkpt>
      <trkpt lat="47.06342" lon="-2.0008">
        <ele>5.2</ele>
        <time>2020-06-04T16:03:43Z</time>
      </trkpt>
      <trkpt lat="47.06346" lon="-2.00078">
        <ele>5.2</ele>
        <time>2020-06-04T16:03:44Z</time>
      </trkpt>
      <trkpt lat="47.06348" lon="-2.00075">
        <ele>5.2</ele>
        <time>2020-06-04T16:03:45Z</time>
      </trkpt>
      <trkpt lat="47.0635" lon="-2.00075">
        <ele>5.2</ele>
        <time>2020-06-04T16:03:46Z</time>
      </trkpt>
      <trkpt lat="47.0635" lon="-2.00074">
        <ele>5.2</ele>
        <time>2020-06-04T16:03:47Z</time>
      </trkpt>
      <trkpt lat="47.06351" lon="-2.00074">
        <ele>5.2</ele>
        <time>2020-06-04T16:03:48Z</time>
      </trkpt>
      <trkpt lat="47.06351" lon="-2.00074">
        <ele>5.2</ele>
        <time>2020-06-04T16:03:49Z</time>
      </trkpt>
      <trkpt lat="47.06351" lon="-2.00074">
        <ele>5.2</ele>
        <time>2020-06-04T16:03:50Z</time>
      </trkpt>
      <trkpt lat="47.06351" lon="-2.00074">
        <ele>5.2</ele>
        <time>2020-06-04T16:03:51Z</time>
      </trkpt>
      <trkpt lat="47.06351" lon="-2.00075">
        <ele>5.1</ele>
        <time>2020-06-04T16:03:52Z</time>
      </trkpt>
      <trkpt lat="47.06351" lon="-2.00075">
        <ele>5.1</ele>
        <time>2020-06-04T16:03:53Z</time>
      </trkpt>
      <trkpt lat="47.06352" lon="-2.00075">
        <ele>5.1</ele>
        <time>2020-06-04T16:03:54Z</time>
      </trkpt>
      <trkpt lat="47.06353" lon="-2.00075">
        <ele>5.1</ele>
        <time>2020-06-04T16:03:55Z</time>
      </trkpt>
      <trkpt lat="47.06353" lon="-2.00075">
        <ele>5.1</ele>
        <time>2020-06-04T16:03:56Z</time>
      </trkpt>
      <trkpt lat="47.06353" lon="-2.00075">
        <ele>5.1</ele>
        <time>2020-06-04T16:03:57Z</time>
      </trkpt>
      <trkpt lat="47.06355" lon="-2.00086">
        <ele>5.1</ele>
        <time>2020-06-04T16:04:09Z</time>
      </trkpt>
      <trkpt lat="47.06356" lon="-2.0009">
        <ele>5.1</ele>
        <time>2020-06-04T16:04:10Z</time>
      </trkpt>
      <trkpt lat="47.06357" lon="-2.00094">
        <ele>5.1</ele>
        <time>2020-06-04T16:04:11Z</time>
      </trkpt>
      <trkpt lat="47.06357" lon="-2.00099">
        <ele>5.1</ele>
        <time>2020-06-04T16:04:12Z</time>
      </trkpt>
      <trkpt lat="47.06356" lon="-2.00101">
        <ele>5.1</ele>
        <time>2020-06-04T16:04:13Z</time>
      </trkpt>
      <trkpt lat="47.06357" lon="-2.00106">
        <ele>5.1</ele>
        <time>2020-06-04T16:04:14Z</time>
      </trkpt>
      <trkpt lat="47.06356" lon="-2.00107">
        <ele>5.1</ele>
        <time>2020-06-04T16:04:15Z</time>
      </trkpt>
      <trkpt lat="47.06357" lon="-2.00112">
        <ele>5.1</ele>
        <time>2020-06-04T16:04:16Z</time>
      </trkpt>
      <trkpt lat="47.06357" lon="-2.00117">
        <ele>5.1</ele>
        <time>2020-06-04T16:04:17Z</time>
      </trkpt>
      <trkpt lat="47.06357" lon="-2.00119">
        <ele>5.1</ele>
        <time>2020-06-04T16:04:18Z</time>
      </trkpt>
      <trkpt lat="47.06359" lon="-2.00123">
        <ele>5.1</ele>
        <time>2020-06-04T16:04:19Z</time>
      </trkpt>
      <trkpt lat="47.0636" lon="-2.00127">
        <ele>5.1</ele>
        <time>2020-06-04T16:04:20Z</time>
      </trkpt>
      <trkpt lat="47.06361" lon="-2.00131">
        <ele>5.1</ele>
        <time>2020-06-04T16:04:21Z</time>
      </trkpt>
      <trkpt lat="47.06363" lon="-2.00135">
        <ele>5.1</ele>
        <time>2020-06-04T16:04:22Z</time>
      </trkpt>
      <trkpt lat="47.06364" lon="-2.00139">
        <ele>5</ele>
        <time>2020-06-04T16:04:23Z</time>
      </trkpt>
      <trkpt lat="47.06366" lon="-2.00144">
        <ele>5</ele>
        <time>2020-06-04T16:04:24Z</time>
      </trkpt>
      <trkpt lat="47.06366" lon="-2.00149">
        <ele>5</ele>
        <time>2020-06-04T16:04:25Z</time>
      </trkpt>
      <trkpt lat="47.06368" lon="-2.00155">
        <ele>5</ele>
        <time>2020-06-04T16:04:26Z</time>
      </trkpt>
      <trkpt lat="47.0637" lon="-2.0016">
        <ele>5</ele>
        <time>2020-06-04T16:04:27Z</time>
      </trkpt>
      <trkpt lat="47.06372" lon="-2.00166">
        <ele>4.9</ele>
        <time>2020-06-04T16:04:28Z</time>
      </trkpt>
      <trkpt lat="47.06374" lon="-2.00172">
        <ele>4.9</ele>
        <time>2020-06-04T16:04:29Z</time>
      </trkpt>
      <trkpt lat="47.06377" lon="-2.00178">
        <ele>4.9</ele>
        <time>2020-06-04T16:04:30Z</time>
      </trkpt>
      <trkpt lat="47.06379" lon="-2.00184">
        <ele>4.9</ele>
        <time>2020-06-04T16:04:31Z</time>
      </trkpt>
      <trkpt lat="47.06381" lon="-2.0019">
        <ele>4.9</ele>
        <time>2020-06-04T16:04:32Z</time>
      </trkpt>
      <trkpt lat="47.06383" lon="-2.00196">
        <ele>4.8</ele>
        <time>2020-06-04T16:04:33Z</time>
      </trkpt>
      <trkpt lat="47.06384" lon="-2.00201">
        <ele>4.8</ele>
        <time>2020-06-04T16:04:34Z</time>
      </trkpt>
      <trkpt lat="47.06386" lon="-2.00208">
        <ele>4.8</ele>
        <time>2020-06-04T16:04:35Z</time>
      </trkpt>
      <trkpt lat="47.06388" lon="-2.00213">
        <ele>4.8</ele>
        <time>2020-06-04T16:04:36Z</time>
      </trkpt>
      <trkpt lat="47.06389" lon="-2.00219">
        <ele>4.8</ele>
        <time>2020-06-04T16:04:37Z</time>
      </trkpt>
      <trkpt lat="47.06391" lon="-2.00226">
        <ele>4.8</ele>
        <time>2020-06-04T16:04:38Z</time>
      </trkpt>
      <trkpt lat="47.06393" lon="-2.00232">
        <ele>4.8</ele>
        <time>2020-06-04T16:04:39Z</time>
      </trkpt>
      <trkpt lat="47.06395" lon="-2.00236">
        <ele>4.8</ele>
        <time>2020-06-04T16:04:40Z</time>
      </trkpt>
      <trkpt lat="47.06398" lon="-2.00241">
        <ele>4.8</ele>
        <time>2020-06-04T16:04:41Z</time>
      </trkpt>
      <trkpt lat="47.064" lon="-2.00247">
        <ele>4.8</ele>
        <time>2020-06-04T16:04:42Z</time>
      </trkpt>
      <trkpt lat="47.06402" lon="-2.00253">
        <ele>4.9</ele>
        <time>2020-06-04T16:04:43Z</time>
      </trkpt>
      <trkpt lat="47.06405" lon="-2.00259">
        <ele>5</ele>
        <time>2020-06-04T16:04:44Z</time>
      </trkpt>
      <trkpt lat="47.06407" lon="-2.00265">
        <ele>5</ele>
        <time>2020-06-04T16:04:45Z</time>
      </trkpt>
      <trkpt lat="47.0641" lon="-2.00271">
        <ele>5.1</ele>
        <time>2020-06-04T16:04:46Z</time>
      </trkpt>
      <trkpt lat="47.06412" lon="-2.00276">
        <ele>5.2</ele>
        <time>2020-06-04T16:04:47Z</time>
      </trkpt>
      <trkpt lat="47.06416" lon="-2.00282">
        <ele>5.3</ele>
        <time>2020-06-04T16:04:48Z</time>
      </trkpt>
      <trkpt lat="47.06419" lon="-2.00287">
        <ele>5.3</ele>
        <time>2020-06-04T16:04:49Z</time>
      </trkpt>
      <trkpt lat="47.06422" lon="-2.00292">
        <ele>5.4</ele>
        <time>2020-06-04T16:04:50Z</time>
      </trkpt>
      <trkpt lat="47.06425" lon="-2.00297">
        <ele>5.5</ele>
        <time>2020-06-04T16:04:51Z</time>
      </trkpt>
      <trkpt lat="47.06428" lon="-2.00303">
        <ele>5.7</ele>
        <time>2020-06-04T16:04:52Z</time>
      </trkpt>
      <trkpt lat="47.06431" lon="-2.00308">
        <ele>5.8</ele>
        <time>2020-06-04T16:04:53Z</time>
      </trkpt>
      <trkpt lat="47.06433" lon="-2.00313">
        <ele>5.9</ele>
        <time>2020-06-04T16:04:54Z</time>
      </trkpt>
      <trkpt lat="47.06436" lon="-2.00318">
        <ele>6</ele>
        <time>2020-06-04T16:04:55Z</time>
      </trkpt>
      <trkpt lat="47.06439" lon="-2.00322">
        <ele>6.1</ele>
        <time>2020-06-04T16:04:56Z</time>
      </trkpt>
      <trkpt lat="47.06442" lon="-2.00326">
        <ele>6.2</ele>
        <time>2020-06-04T16:04:57Z</time>
      </trkpt>
      <trkpt lat="47.06444" lon="-2.00331">
        <ele>6.3</ele>
        <time>2020-06-04T16:04:58Z</time>
      </trkpt>
      <trkpt lat="47.06446" lon="-2.00335">
        <ele>6.3</ele>
        <time>2020-06-04T16:04:59Z</time>
      </trkpt>
      <trkpt lat="47.06448" lon="-2.00339">
        <ele>6.4</ele>
        <time>2020-06-04T16:05:00Z</time>
      </trkpt>
      <trkpt lat="47.0645" lon="-2.00345">
        <ele>6.4</ele>
        <time>2020-06-04T16:05:01Z</time>
      </trkpt>
      <trkpt lat="47.06451" lon="-2.0035">
        <ele>6.5</ele>
        <time>2020-06-04T16:05:02Z</time>
      </trkpt>
      <trkpt lat="47.06454" lon="-2.00354">
        <ele>6.6</ele>
        <time>2020-06-04T16:05:03Z</time>
      </trkpt>
      <trkpt lat="47.06456" lon="-2.00358">
        <ele>6.7</ele>
        <time>2020-06-04T16:05:04Z</time>
      </trkpt>
      <trkpt lat="47.06459" lon="-2.00363">
        <ele>6.9</ele>
        <time>2020-06-04T16:05:05Z</time>
      </trkpt>
      <trkpt lat="47.06461" lon="-2.00368">
        <ele>7</ele>
        <time>2020-06-04T16:05:06Z</time>
      </trkpt>
      <trkpt lat="47.06463" lon="-2.00374">
        <ele>7.1</ele>
        <time>2020-06-04T16:05:07Z</time>
      </trkpt>
      <trkpt lat="47.06466" lon="-2.00379">
        <ele>7.3</ele>
        <time>2020-06-04T16:05:08Z</time>
      </trkpt>
      <trkpt lat="47.06469" lon="-2.00384">
        <ele>7.4</ele>
        <time>2020-06-04T16:05:09Z</time>
      </trkpt>
      <trkpt lat="47.06471" lon="-2.00389">
        <ele>7.5</ele>
        <time>2020-06-04T16:05:10Z</time>
      </trkpt>
      <trkpt lat="47.06473" lon="-2.00394">
        <ele>7.6</ele>
        <time>2020-06-04T16:05:11Z</time>
      </trkpt>
      <trkpt lat="47.06475" lon="-2.00399">
        <ele>7.7</ele>
        <time>2020-06-04T16:05:12Z</time>
      </trkpt>
      <trkpt lat="47.06479" lon="-2.00403">
        <ele>7.8</ele>
        <time>2020-06-04T16:05:13Z</time>
      </trkpt>
      <trkpt lat="47.06482" lon="-2.00406">
        <ele>7.8</ele>
        <time>2020-06-04T16:05:14Z</time>
      </trkpt>
      <trkpt lat="47.06485" lon="-2.0041">
        <ele>7.9</ele>
        <time>2020-06-04T16:05:15Z</time>
      </trkpt>
      <trkpt lat="47.06488" lon="-2.00415">
        <ele>7.9</ele>
        <time>2020-06-04T16:05:16Z</time>
      </trkpt>
      <trkpt lat="47.06489" lon="-2.0042">
        <ele>7.9</ele>
        <time>2020-06-04T16:05:17Z</time>
      </trkpt>
      <trkpt lat="47.06492" lon="-2.00425">
        <ele>8</ele>
        <time>2020-06-04T16:05:18Z</time>
      </trkpt>
      <trkpt lat="47.06493" lon="-2.0043">
        <ele>8</ele>
        <time>2020-06-04T16:05:19Z</time>
      </trkpt>
      <trkpt lat="47.06495" lon="-2.00435">
        <ele>8</ele>
        <time>2020-06-04T16:05:20Z</time>
      </trkpt>
      <trkpt lat="47.06497" lon="-2.0044">
        <ele>8</ele>
        <time>2020-06-04T16:05:21Z</time>
      </trkpt>
      <trkpt lat="47.06498" lon="-2.00446">
        <ele>8.1</ele>
        <time>2020-06-04T16:05:22Z</time>
      </trkpt>
      <trkpt lat="47.065" lon="-2.00451">
        <ele>8.1</ele>
        <time>2020-06-04T16:05:23Z</time>
      </trkpt>
      <trkpt lat="47.06502" lon="-2.00455">
        <ele>8.1</ele>
        <time>2020-06-04T16:05:24Z</time>
      </trkpt>
      <trkpt lat="47.06504" lon="-2.0046">
        <ele>8.2</ele>
        <time>2020-06-04T16:05:25Z</time>
      </trkpt>
      <trkpt lat="47.06506" lon="-2.00464">
        <ele>8.2</ele>
        <time>2020-06-04T16:05:26Z</time>
      </trkpt>
      <trkpt lat="47.06508" lon="-2.00468">
        <ele>8.2</ele>
        <time>2020-06-04T16:05:27Z</time>
      </trkpt>
      <trkpt lat="47.0651" lon="-2.00474">
        <ele>8.2</ele>
        <time>2020-06-04T16:05:28Z</time>
      </trkpt>
      <trkpt lat="47.06512" lon="-2.00477">
        <ele>8.2</ele>
        <time>2020-06-04T16:05:29Z</time>
      </trkpt>
      <trkpt lat="47.06514" lon="-2.00481">
        <ele>8.2</ele>
        <time>2020-06-04T16:05:30Z</time>
      </trkpt>
      <trkpt lat="47.06516" lon="-2.00484">
        <ele>8.2</ele>
        <time>2020-06-04T16:05:31Z</time>
      </trkpt>
      <trkpt lat="47.06518" lon="-2.00487">
        <ele>8.2</ele>
        <time>2020-06-04T16:05:32Z</time>
      </trkpt>
      <trkpt lat="47.06519" lon="-2.00489">
        <ele>8.2</ele>
        <time>2020-06-04T16:05:33Z</time>
      </trkpt>
      <trkpt lat="47.06521" lon="-2.00493">
        <ele>8.2</ele>
        <time>2020-06-04T16:05:34Z</time>
      </trkpt>
      <trkpt lat="47.06521" lon="-2.00494">
        <ele>8.2</ele>
        <time>2020-06-04T16:05:35Z</time>
      </trkpt>
      <trkpt lat="47.06523" lon="-2.00497">
        <ele>8.2</ele>
        <time>2020-06-04T16:05:36Z</time>
      </trkpt>
      <trkpt lat="47.06525" lon="-2.00501">
        <ele>8.2</ele>
        <time>2020-06-04T16:05:37Z</time>
      </trkpt>
      <trkpt lat="47.06527" lon="-2.00506">
        <ele>8.2</ele>
        <time>2020-06-04T16:05:38Z</time>
      </trkpt>
      <trkpt lat="47.06529" lon="-2.0051">
        <ele>8.2</ele>
        <time>2020-06-04T16:05:39Z</time>
      </trkpt>
      <trkpt lat="47.0653" lon="-2.00513">
        <ele>8.3</ele>
        <time>2020-06-04T16:05:40Z</time>
      </trkpt>
      <trkpt lat="47.06532" lon="-2.00518">
        <ele>8.3</ele>
        <time>2020-06-04T16:05:41Z</time>
      </trkpt>
      <trkpt lat="47.06533" lon="-2.00519">
        <ele>8.3</ele>
        <time>2020-06-04T16:05:42Z</time>
      </trkpt>
      <trkpt lat="47.06534" lon="-2.00523">
        <ele>8.3</ele>
        <time>2020-06-04T16:05:43Z</time>
      </trkpt>
      <trkpt lat="47.06536" lon="-2.00526">
        <ele>8.3</ele>
        <time>2020-06-04T16:05:44Z</time>
      </trkpt>
      <trkpt lat="47.06537" lon="-2.0053">
        <ele>8.3</ele>
        <time>2020-06-04T16:05:45Z</time>
      </trkpt>
      <trkpt lat="47.06539" lon="-2.00533">
        <ele>8.3</ele>
        <time>2020-06-04T16:05:46Z</time>
      </trkpt>
      <trkpt lat="47.06541" lon="-2.00538">
        <ele>8.3</ele>
        <time>2020-06-04T16:05:47Z</time>
      </trkpt>
      <trkpt lat="47.06542" lon="-2.0054">
        <ele>8.3</ele>
        <time>2020-06-04T16:05:48Z</time>
      </trkpt>
      <trkpt lat="47.06543" lon="-2.00545">
        <ele>8.3</ele>
        <time>2020-06-04T16:05:49Z</time>
      </trkpt>
      <trkpt lat="47.06543" lon="-2.00547">
        <ele>8.3</ele>
        <time>2020-06-04T16:05:50Z</time>
      </trkpt>
      <trkpt lat="47.06546" lon="-2.00552">
        <ele>8.3</ele>
        <time>2020-06-04T16:05:51Z</time>
      </trkpt>
      <trkpt lat="47.06547" lon="-2.00553">
        <ele>8.2</ele>
        <time>2020-06-04T16:05:52Z</time>
      </trkpt>
      <trkpt lat="47.06549" lon="-2.00557">
        <ele>8.2</ele>
        <time>2020-06-04T16:05:53Z</time>
      </trkpt>
      <trkpt lat="47.0655" lon="-2.00558">
        <ele>8.2</ele>
        <time>2020-06-04T16:05:54Z</time>
      </trkpt>
      <trkpt lat="47.06552" lon="-2.00561">
        <ele>8.2</ele>
        <time>2020-06-04T16:05:55Z</time>
      </trkpt>
      <trkpt lat="47.06552" lon="-2.00563">
        <ele>8.2</ele>
        <time>2020-06-04T16:05:56Z</time>
      </trkpt>
      <trkpt lat="47.06554" lon="-2.00567">
        <ele>8.1</ele>
        <time>2020-06-04T16:05:57Z</time>
      </trkpt>
      <trkpt lat="47.06555" lon="-2.00568">
        <ele>8.1</ele>
        <time>2020-06-04T16:05:58Z</time>
      </trkpt>
      <trkpt lat="47.06556" lon="-2.00573">
        <ele>8.1</ele>
        <time>2020-06-04T16:05:59Z</time>
      </trkpt>
      <trkpt lat="47.06557" lon="-2.00574">
        <ele>8.1</ele>
        <time>2020-06-04T16:06:00Z</time>
      </trkpt>
      <trkpt lat="47.06559" lon="-2.00578">
        <ele>8</ele>
        <time>2020-06-04T16:06:01Z</time>
      </trkpt>
      <trkpt lat="47.06559" lon="-2.00579">
        <ele>8</ele>
        <time>2020-06-04T16:06:02Z</time>
      </trkpt>
      <trkpt lat="47.06561" lon="-2.00584">
        <ele>7.9</ele>
        <time>2020-06-04T16:06:03Z</time>
      </trkpt>
      <trkpt lat="47.06562" lon="-2.00586">
        <ele>7.9</ele>
        <time>2020-06-04T16:06:04Z</time>
      </trkpt>
      <trkpt lat="47.06564" lon="-2.0059">
        <ele>7.8</ele>
        <time>2020-06-04T16:06:05Z</time>
      </trkpt>
      <trkpt lat="47.06565" lon="-2.00591">
        <ele>7.8</ele>
        <time>2020-06-04T16:06:06Z</time>
      </trkpt>
      <trkpt lat="47.06566" lon="-2.00594">
        <ele>7.8</ele>
        <time>2020-06-04T16:06:07Z</time>
      </trkpt>
      <trkpt lat="47.06568" lon="-2.00597">
        <ele>7.7</ele>
        <time>2020-06-04T16:06:08Z</time>
      </trkpt>
      <trkpt lat="47.0657" lon="-2.00602">
        <ele>7.6</ele>
        <time>2020-06-04T16:06:09Z</time>
      </trkpt>
      <trkpt lat="47.06571" lon="-2.00604">
        <ele>7.6</ele>
        <time>2020-06-04T16:06:10Z</time>
      </trkpt>
      <trkpt lat="47.06572" lon="-2.00608">
        <ele>7.6</ele>
        <time>2020-06-04T16:06:11Z</time>
      </trkpt>
      <trkpt lat="47.06573" lon="-2.00609">
        <ele>7.6</ele>
        <time>2020-06-04T16:06:12Z</time>
      </trkpt>
      <trkpt lat="47.06575" lon="-2.00614">
        <ele>7.5</ele>
        <time>2020-06-04T16:06:13Z</time>
      </trkpt>
      <trkpt lat="47.06576" lon="-2.00616">
        <ele>7.5</ele>
        <time>2020-06-04T16:06:14Z</time>
      </trkpt>
      <trkpt lat="47.06578" lon="-2.00619">
        <ele>7.5</ele>
        <time>2020-06-04T16:06:15Z</time>
      </trkpt>
      <trkpt lat="47.0658" lon="-2.00623">
        <ele>7.4</ele>
        <time>2020-06-04T16:06:16Z</time>
      </trkpt>
      <trkpt lat="47.06582" lon="-2.00627">
        <ele>7.4</ele>
        <time>2020-06-04T16:06:17Z</time>
      </trkpt>
      <trkpt lat="47.06584" lon="-2.00631">
        <ele>7.3</ele>
        <time>2020-06-04T16:06:18Z</time>
      </trkpt>
      <trkpt lat="47.06586" lon="-2.00636">
        <ele>7.3</ele>
        <time>2020-06-04T16:06:19Z</time>
      </trkpt>
      <trkpt lat="47.06588" lon="-2.00641">
        <ele>7.2</ele>
        <time>2020-06-04T16:06:20Z</time>
      </trkpt>
      <trkpt lat="47.0659" lon="-2.00645">
        <ele>7.2</ele>
        <time>2020-06-04T16:06:21Z</time>
      </trkpt>
      <trkpt lat="47.06592" lon="-2.0065">
        <ele>7.2</ele>
        <time>2020-06-04T16:06:22Z</time>
      </trkpt>
      <trkpt lat="47.06594" lon="-2.00653">
        <ele>7.1</ele>
        <time>2020-06-04T16:06:23Z</time>
      </trkpt>
      <trkpt lat="47.06596" lon="-2.00655">
        <ele>7.1</ele>
        <time>2020-06-04T16:06:24Z</time>
      </trkpt>
      <trkpt lat="47.06598" lon="-2.00659">
        <ele>7.1</ele>
        <time>2020-06-04T16:06:25Z</time>
      </trkpt>
      <trkpt lat="47.066" lon="-2.00663">
        <ele>7</ele>
        <time>2020-06-04T16:06:26Z</time>
      </trkpt>
      <trkpt lat="47.06601" lon="-2.00667">
        <ele>7</ele>
        <time>2020-06-04T16:06:27Z</time>
      </trkpt>
      <trkpt lat="47.06602" lon="-2.00671">
        <ele>7</ele>
        <time>2020-06-04T16:06:28Z</time>
      </trkpt>
      <trkpt lat="47.06603" lon="-2.00676">
        <ele>6.9</ele>
        <time>2020-06-04T16:06:29Z</time>
      </trkpt>
      <trkpt lat="47.06605" lon="-2.0068">
        <ele>6.9</ele>
        <time>2020-06-04T16:06:30Z</time>
      </trkpt>
      <trkpt lat="47.06606" lon="-2.00684">
        <ele>6.9</ele>
        <time>2020-06-04T16:06:31Z</time>
      </trkpt>
      <trkpt lat="47.06608" lon="-2.00689">
        <ele>6.8</ele>
        <time>2020-06-04T16:06:32Z</time>
      </trkpt>
      <trkpt lat="47.0661" lon="-2.00693">
        <ele>6.8</ele>
        <time>2020-06-04T16:06:33Z</time>
      </trkpt>
      <trkpt lat="47.06612" lon="-2.00697">
        <ele>6.8</ele>
        <time>2020-06-04T16:06:34Z</time>
      </trkpt>
      <trkpt lat="47.06614" lon="-2.00703">
        <ele>6.9</ele>
        <time>2020-06-04T16:06:35Z</time>
      </trkpt>
      <trkpt lat="47.06615" lon="-2.00705">
        <ele>6.9</ele>
        <time>2020-06-04T16:06:36Z</time>
      </trkpt>
      <trkpt lat="47.06618" lon="-2.00709">
        <ele>6.9</ele>
        <time>2020-06-04T16:06:37Z</time>
      </trkpt>
      <trkpt lat="47.06619" lon="-2.00714">
        <ele>6.9</ele>
        <time>2020-06-04T16:06:38Z</time>
      </trkpt>
      <trkpt lat="47.06621" lon="-2.00717">
        <ele>6.9</ele>
        <time>2020-06-04T16:06:39Z</time>
      </trkpt>
      <trkpt lat="47.06623" lon="-2.00721">
        <ele>6.9</ele>
        <time>2020-06-04T16:06:40Z</time>
      </trkpt>
      <trkpt lat="47.06626" lon="-2.00725">
        <ele>6.9</ele>
        <time>2020-06-04T16:06:41Z</time>
      </trkpt>
      <trkpt lat="47.06628" lon="-2.00729">
        <ele>6.8</ele>
        <time>2020-06-04T16:06:42Z</time>
      </trkpt>
      <trkpt lat="47.06631" lon="-2.00734">
        <ele>6.8</ele>
        <time>2020-06-04T16:06:43Z</time>
      </trkpt>
      <trkpt lat="47.06634" lon="-2.00738">
        <ele>6.8</ele>
        <time>2020-06-04T16:06:44Z</time>
      </trkpt>
      <trkpt lat="47.06636" lon="-2.00744">
        <ele>6.8</ele>
        <time>2020-06-04T16:06:45Z</time>
      </trkpt>
      <trkpt lat="47.06639" lon="-2.00748">
        <ele>6.8</ele>
        <time>2020-06-04T16:06:46Z</time>
      </trkpt>
      <trkpt lat="47.06641" lon="-2.00754">
        <ele>6.8</ele>
        <time>2020-06-04T16:06:47Z</time>
      </trkpt>
      <trkpt lat="47.06644" lon="-2.00759">
        <ele>6.8</ele>
        <time>2020-06-04T16:06:48Z</time>
      </trkpt>
      <trkpt lat="47.06646" lon="-2.00764">
        <ele>6.8</ele>
        <time>2020-06-04T16:06:49Z</time>
      </trkpt>
      <trkpt lat="47.06649" lon="-2.00768">
        <ele>6.8</ele>
        <time>2020-06-04T16:06:50Z</time>
      </trkpt>
      <trkpt lat="47.06651" lon="-2.00773">
        <ele>6.7</ele>
        <time>2020-06-04T16:06:51Z</time>
      </trkpt>
      <trkpt lat="47.06653" lon="-2.00778">
        <ele>6.7</ele>
        <time>2020-06-04T16:06:52Z</time>
      </trkpt>
      <trkpt lat="47.06656" lon="-2.00784">
        <ele>6.7</ele>
        <time>2020-06-04T16:06:53Z</time>
      </trkpt>
      <trkpt lat="47.06658" lon="-2.00789">
        <ele>6.7</ele>
        <time>2020-06-04T16:06:54Z</time>
      </trkpt>
      <trkpt lat="47.0666" lon="-2.00794">
        <ele>6.7</ele>
        <time>2020-06-04T16:06:55Z</time>
      </trkpt>
      <trkpt lat="47.06662" lon="-2.008">
        <ele>6.7</ele>
        <time>2020-06-04T16:06:56Z</time>
      </trkpt>
      <trkpt lat="47.06665" lon="-2.00805">
        <ele>6.7</ele>
        <time>2020-06-04T16:06:57Z</time>
      </trkpt>
      <trkpt lat="47.06668" lon="-2.00809">
        <ele>6.7</ele>
        <time>2020-06-04T16:06:58Z</time>
      </trkpt>
      <trkpt lat="47.0667" lon="-2.00814">
        <ele>6.7</ele>
        <time>2020-06-04T16:06:59Z</time>
      </trkpt>
      <trkpt lat="47.06672" lon="-2.00819">
        <ele>6.7</ele>
        <time>2020-06-04T16:07:00Z</time>
      </trkpt>
      <trkpt lat="47.06674" lon="-2.00825">
        <ele>6.7</ele>
        <time>2020-06-04T16:07:01Z</time>
      </trkpt>
      <trkpt lat="47.06677" lon="-2.00831">
        <ele>6.7</ele>
        <time>2020-06-04T16:07:02Z</time>
      </trkpt>
      <trkpt lat="47.0668" lon="-2.00837">
        <ele>6.7</ele>
        <time>2020-06-04T16:07:03Z</time>
      </trkpt>
      <trkpt lat="47.06683" lon="-2.00842">
        <ele>6.7</ele>
        <time>2020-06-04T16:07:04Z</time>
      </trkpt>
      <trkpt lat="47.06686" lon="-2.00848">
        <ele>6.7</ele>
        <time>2020-06-04T16:07:05Z</time>
      </trkpt>
      <trkpt lat="47.06689" lon="-2.00855">
        <ele>6.7</ele>
        <time>2020-06-04T16:07:06Z</time>
      </trkpt>
      <trkpt lat="47.06692" lon="-2.0086">
        <ele>6.7</ele>
        <time>2020-06-04T16:07:07Z</time>
      </trkpt>
      <trkpt lat="47.06694" lon="-2.00866">
        <ele>6.7</ele>
        <time>2020-06-04T16:07:08Z</time>
      </trkpt>
      <trkpt lat="47.06696" lon="-2.00872">
        <ele>6.7</ele>
        <time>2020-06-04T16:07:09Z</time>
      </trkpt>
      <trkpt lat="47.06699" lon="-2.00877">
        <ele>6.7</ele>
        <time>2020-06-04T16:07:10Z</time>
      </trkpt>
      <trkpt lat="47.06702" lon="-2.00882">
        <ele>6.8</ele>
        <time>2020-06-04T16:07:11Z</time>
      </trkpt>
      <trkpt lat="47.06705" lon="-2.00887">
        <ele>6.8</ele>
        <time>2020-06-04T16:07:12Z</time>
      </trkpt>
      <trkpt lat="47.06708" lon="-2.00891">
        <ele>6.8</ele>
        <time>2020-06-04T16:07:13Z</time>
      </trkpt>
      <trkpt lat="47.0671" lon="-2.00895">
        <ele>6.8</ele>
        <time>2020-06-04T16:07:14Z</time>
      </trkpt>
      <trkpt lat="47.06713" lon="-2.00898">
        <ele>6.9</ele>
        <time>2020-06-04T16:07:15Z</time>
      </trkpt>
      <trkpt lat="47.06716" lon="-2.00903">
        <ele>6.9</ele>
        <time>2020-06-04T16:07:16Z</time>
      </trkpt>
      <trkpt lat="47.06719" lon="-2.00908">
        <ele>7</ele>
        <time>2020-06-04T16:07:17Z</time>
      </trkpt>
      <trkpt lat="47.06721" lon="-2.00915">
        <ele>7</ele>
        <time>2020-06-04T16:07:18Z</time>
      </trkpt>
      <trkpt lat="47.06723" lon="-2.00921">
        <ele>7.1</ele>
        <time>2020-06-04T16:07:19Z</time>
      </trkpt>
      <trkpt lat="47.06725" lon="-2.00928">
        <ele>7.2</ele>
        <time>2020-06-04T16:07:20Z</time>
      </trkpt>
      <trkpt lat="47.06729" lon="-2.00935">
        <ele>7.2</ele>
        <time>2020-06-04T16:07:21Z</time>
      </trkpt>
      <trkpt lat="47.06731" lon="-2.00941">
        <ele>7.3</ele>
        <time>2020-06-04T16:07:22Z</time>
      </trkpt>
      <trkpt lat="47.06734" lon="-2.00947">
        <ele>7.4</ele>
        <time>2020-06-04T16:07:23Z</time>
      </trkpt>
      <trkpt lat="47.06736" lon="-2.00954">
        <ele>7.5</ele>
        <time>2020-06-04T16:07:24Z</time>
      </trkpt>
      <trkpt lat="47.06739" lon="-2.00959">
        <ele>7.6</ele>
        <time>2020-06-04T16:07:25Z</time>
      </trkpt>
      <trkpt lat="47.06742" lon="-2.00966">
        <ele>7.7</ele>
        <time>2020-06-04T16:07:26Z</time>
      </trkpt>
      <trkpt lat="47.06744" lon="-2.00972">
        <ele>7.8</ele>
        <time>2020-06-04T16:07:27Z</time>
      </trkpt>
      <trkpt lat="47.06746" lon="-2.00977">
        <ele>7.9</ele>
        <time>2020-06-04T16:07:28Z</time>
      </trkpt>
      <trkpt lat="47.06748" lon="-2.00982">
        <ele>8</ele>
        <time>2020-06-04T16:07:29Z</time>
      </trkpt>
      <trkpt lat="47.0675" lon="-2.00988">
        <ele>8.1</ele>
        <time>2020-06-04T16:07:30Z</time>
      </trkpt>
      <trkpt lat="47.06752" lon="-2.00992">
        <ele>8.2</ele>
        <time>2020-06-04T16:07:31Z</time>
      </trkpt>
      <trkpt lat="47.06755" lon="-2.00997">
        <ele>8.2</ele>
        <time>2020-06-04T16:07:32Z</time>
      </trkpt>
      <trkpt lat="47.06757" lon="-2.01002">
        <ele>8.3</ele>
        <time>2020-06-04T16:07:33Z</time>
      </trkpt>
      <trkpt lat="47.06759" lon="-2.01007">
        <ele>8.4</ele>
        <time>2020-06-04T16:07:34Z</time>
      </trkpt>
      <trkpt lat="47.06762" lon="-2.01012">
        <ele>8.5</ele>
        <time>2020-06-04T16:07:35Z</time>
      </trkpt>
      <trkpt lat="47.06764" lon="-2.01016">
        <ele>8.6</ele>
        <time>2020-06-04T16:07:36Z</time>
      </trkpt>
      <trkpt lat="47.06766" lon="-2.01021">
        <ele>8.7</ele>
        <time>2020-06-04T16:07:37Z</time>
      </trkpt>
      <trkpt lat="47.06769" lon="-2.01026">
        <ele>8.9</ele>
        <time>2020-06-04T16:07:38Z</time>
      </trkpt>
      <trkpt lat="47.06771" lon="-2.01032">
        <ele>9</ele>
        <time>2020-06-04T16:07:39Z</time>
      </trkpt>
      <trkpt lat="47.06773" lon="-2.01037">
        <ele>9.1</ele>
        <time>2020-06-04T16:07:40Z</time>
      </trkpt>
      <trkpt lat="47.06775" lon="-2.01042">
        <ele>9.2</ele>
        <time>2020-06-04T16:07:41Z</time>
      </trkpt>
      <trkpt lat="47.06778" lon="-2.01046">
        <ele>9.3</ele>
        <time>2020-06-04T16:07:42Z</time>
      </trkpt>
      <trkpt lat="47.0678" lon="-2.01052">
        <ele>9.4</ele>
        <time>2020-06-04T16:07:43Z</time>
      </trkpt>
      <trkpt lat="47.06782" lon="-2.01057">
        <ele>9.5</ele>
        <time>2020-06-04T16:07:44Z</time>
      </trkpt>
      <trkpt lat="47.06784" lon="-2.01061">
        <ele>9.5</ele>
        <time>2020-06-04T16:07:45Z</time>
      </trkpt>
      <trkpt lat="47.06787" lon="-2.01065">
        <ele>9.6</ele>
        <time>2020-06-04T16:07:46Z</time>
      </trkpt>
      <trkpt lat="47.0679" lon="-2.01071">
        <ele>9.7</ele>
        <time>2020-06-04T16:07:47Z</time>
      </trkpt>
      <trkpt lat="47.06792" lon="-2.01075">
        <ele>9.8</ele>
        <time>2020-06-04T16:07:48Z</time>
      </trkpt>
      <trkpt lat="47.06795" lon="-2.0108">
        <ele>9.9</ele>
        <time>2020-06-04T16:07:49Z</time>
      </trkpt>
      <trkpt lat="47.06797" lon="-2.01084">
        <ele>10</ele>
        <time>2020-06-04T16:07:50Z</time>
      </trkpt>
      <trkpt lat="47.068" lon="-2.01089">
        <ele>10.1</ele>
        <time>2020-06-04T16:07:51Z</time>
      </trkpt>
      <trkpt lat="47.06802" lon="-2.01094">
        <ele>10.1</ele>
        <time>2020-06-04T16:07:52Z</time>
      </trkpt>
      <trkpt lat="47.06804" lon="-2.01099">
        <ele>10.2</ele>
        <time>2020-06-04T16:07:53Z</time>
      </trkpt>
      <trkpt lat="47.06806" lon="-2.01103">
        <ele>10.3</ele>
        <time>2020-06-04T16:07:54Z</time>
      </trkpt>
      <trkpt lat="47.06808" lon="-2.01109">
        <ele>10.4</ele>
        <time>2020-06-04T16:07:55Z</time>
      </trkpt>
      <trkpt lat="47.06809" lon="-2.01115">
        <ele>10.5</ele>
        <time>2020-06-04T16:07:56Z</time>
      </trkpt>
      <trkpt lat="47.06811" lon="-2.0112">
        <ele>10.6</ele>
        <time>2020-06-04T16:07:57Z</time>
      </trkpt>
      <trkpt lat="47.06813" lon="-2.01124">
        <ele>10.7</ele>
        <time>2020-06-04T16:07:58Z</time>
      </trkpt>
      <trkpt lat="47.06815" lon="-2.01129">
        <ele>10.8</ele>
        <time>2020-06-04T16:07:59Z</time>
      </trkpt>
      <trkpt lat="47.06818" lon="-2.01134">
        <ele>10.9</ele>
        <time>2020-06-04T16:08:00Z</time>
      </trkpt>
      <trkpt lat="47.0682" lon="-2.01139">
        <ele>11</ele>
        <time>2020-06-04T16:08:01Z</time>
      </trkpt>
      <trkpt lat="47.06822" lon="-2.01145">
        <ele>11.1</ele>
        <time>2020-06-04T16:08:02Z</time>
      </trkpt>
      <trkpt lat="47.06824" lon="-2.01149">
        <ele>11.1</ele>
        <time>2020-06-04T16:08:03Z</time>
      </trkpt>
      <trkpt lat="47.06826" lon="-2.01153">
        <ele>11.2</ele>
        <time>2020-06-04T16:08:04Z</time>
      </trkpt>
      <trkpt lat="47.06827" lon="-2.01158">
        <ele>11.3</ele>
        <time>2020-06-04T16:08:05Z</time>
      </trkpt>
      <trkpt lat="47.0683" lon="-2.01164">
        <ele>11.3</ele>
        <time>2020-06-04T16:08:06Z</time>
      </trkpt>
      <trkpt lat="47.06832" lon="-2.01169">
        <ele>11.4</ele>
        <time>2020-06-04T16:08:07Z</time>
      </trkpt>
      <trkpt lat="47.06834" lon="-2.01174">
        <ele>11.4</ele>
        <time>2020-06-04T16:08:08Z</time>
      </trkpt>
      <trkpt lat="47.06836" lon="-2.01178">
        <ele>11.5</ele>
        <time>2020-06-04T16:08:09Z</time>
      </trkpt>
      <trkpt lat="47.06837" lon="-2.01183">
        <ele>11.5</ele>
        <time>2020-06-04T16:08:10Z</time>
      </trkpt>
      <trkpt lat="47.06838" lon="-2.01187">
        <ele>11.5</ele>
        <time>2020-06-04T16:08:11Z</time>
      </trkpt>
      <trkpt lat="47.06839" lon="-2.01192">
        <ele>11.5</ele>
        <time>2020-06-04T16:08:12Z</time>
      </trkpt>
      <trkpt lat="47.06841" lon="-2.01193">
        <ele>11.6</ele>
        <time>2020-06-04T16:08:13Z</time>
      </trkpt>
      <trkpt lat="47.06843" lon="-2.01197">
        <ele>11.6</ele>
        <time>2020-06-04T16:08:14Z</time>
      </trkpt>
      <trkpt lat="47.06844" lon="-2.01202">
        <ele>11.7</ele>
        <time>2020-06-04T16:08:15Z</time>
      </trkpt>
      <trkpt lat="47.06846" lon="-2.01207">
        <ele>11.7</ele>
        <time>2020-06-04T16:08:16Z</time>
      </trkpt>
      <trkpt lat="47.06847" lon="-2.01211">
        <ele>11.7</ele>
        <time>2020-06-04T16:08:17Z</time>
      </trkpt>
      <trkpt lat="47.06849" lon="-2.01216">
        <ele>11.8</ele>
        <time>2020-06-04T16:08:18Z</time>
      </trkpt>
      <trkpt lat="47.06851" lon="-2.0122">
        <ele>11.8</ele>
        <time>2020-06-04T16:08:19Z</time>
      </trkpt>
      <trkpt lat="47.06854" lon="-2.01225">
        <ele>11.9</ele>
        <time>2020-06-04T16:08:20Z</time>
      </trkpt>
      <trkpt lat="47.06857" lon="-2.0123">
        <ele>11.9</ele>
        <time>2020-06-04T16:08:21Z</time>
      </trkpt>
      <trkpt lat="47.06859" lon="-2.01235">
        <ele>11.9</ele>
        <time>2020-06-04T16:08:22Z</time>
      </trkpt>
      <trkpt lat="47.06861" lon="-2.01239">
        <ele>11.9</ele>
        <time>2020-06-04T16:08:23Z</time>
      </trkpt>
      <trkpt lat="47.06864" lon="-2.01243">
        <ele>11.9</ele>
        <time>2020-06-04T16:08:24Z</time>
      </trkpt>
      <trkpt lat="47.06866" lon="-2.01248">
        <ele>11.9</ele>
        <time>2020-06-04T16:08:25Z</time>
      </trkpt>
      <trkpt lat="47.06869" lon="-2.01253">
        <ele>11.9</ele>
        <time>2020-06-04T16:08:26Z</time>
      </trkpt>
      <trkpt lat="47.06871" lon="-2.01256">
        <ele>12</ele>
        <time>2020-06-04T16:08:27Z</time>
      </trkpt>
      <trkpt lat="47.06873" lon="-2.01261">
        <ele>12</ele>
        <time>2020-06-04T16:08:28Z</time>
      </trkpt>
      <trkpt lat="47.06876" lon="-2.01265">
        <ele>12</ele>
        <time>2020-06-04T16:08:29Z</time>
      </trkpt>
      <trkpt lat="47.06878" lon="-2.0127">
        <ele>12.1</ele>
        <time>2020-06-04T16:08:30Z</time>
      </trkpt>
      <trkpt lat="47.06881" lon="-2.01276">
        <ele>12.2</ele>
        <time>2020-06-04T16:08:31Z</time>
      </trkpt>
      <trkpt lat="47.06883" lon="-2.01281">
        <ele>12.3</ele>
        <time>2020-06-04T16:08:32Z</time>
      </trkpt>
      <trkpt lat="47.06885" lon="-2.01286">
        <ele>12.4</ele>
        <time>2020-06-04T16:08:33Z</time>
      </trkpt>
      <trkpt lat="47.06887" lon="-2.01291">
        <ele>12.5</ele>
        <time>2020-06-04T16:08:34Z</time>
      </trkpt>
      <trkpt lat="47.06889" lon="-2.01295">
        <ele>12.6</ele>
        <time>2020-06-04T16:08:35Z</time>
      </trkpt>
      <trkpt lat="47.06891" lon="-2.013">
        <ele>12.7</ele>
        <time>2020-06-04T16:08:36Z</time>
      </trkpt>
      <trkpt lat="47.06893" lon="-2.01305">
        <ele>12.7</ele>
        <time>2020-06-04T16:08:37Z</time>
      </trkpt>
      <trkpt lat="47.06895" lon="-2.0131">
        <ele>12.8</ele>
        <time>2020-06-04T16:08:38Z</time>
      </trkpt>
      <trkpt lat="47.06898" lon="-2.01314">
        <ele>12.9</ele>
        <time>2020-06-04T16:08:39Z</time>
      </trkpt>
      <trkpt lat="47.069" lon="-2.01319">
        <ele>12.9</ele>
        <time>2020-06-04T16:08:40Z</time>
      </trkpt>
      <trkpt lat="47.06902" lon="-2.01323">
        <ele>13</ele>
        <time>2020-06-04T16:08:41Z</time>
      </trkpt>
      <trkpt lat="47.06904" lon="-2.01328">
        <ele>13</ele>
        <time>2020-06-04T16:08:42Z</time>
      </trkpt>
      <trkpt lat="47.06907" lon="-2.01333">
        <ele>13</ele>
        <time>2020-06-04T16:08:43Z</time>
      </trkpt>
      <trkpt lat="47.06909" lon="-2.01337">
        <ele>13</ele>
        <time>2020-06-04T16:08:44Z</time>
      </trkpt>
      <trkpt lat="47.06911" lon="-2.01341">
        <ele>13.1</ele>
        <time>2020-06-04T16:08:45Z</time>
      </trkpt>
      <trkpt lat="47.06914" lon="-2.01345">
        <ele>13.1</ele>
        <time>2020-06-04T16:08:46Z</time>
      </trkpt>
      <trkpt lat="47.06916" lon="-2.01349">
        <ele>13.1</ele>
        <time>2020-06-04T16:08:47Z</time>
      </trkpt>
      <trkpt lat="47.06918" lon="-2.01354">
        <ele>13.1</ele>
        <time>2020-06-04T16:08:48Z</time>
      </trkpt>
      <trkpt lat="47.0692" lon="-2.01358">
        <ele>13.1</ele>
        <time>2020-06-04T16:08:49Z</time>
      </trkpt>
      <trkpt lat="47.06922" lon="-2.01362">
        <ele>13.2</ele>
        <time>2020-06-04T16:08:50Z</time>
      </trkpt>
      <trkpt lat="47.06924" lon="-2.01367">
        <ele>13.2</ele>
        <time>2020-06-04T16:08:51Z</time>
      </trkpt>
      <trkpt lat="47.06926" lon="-2.01371">
        <ele>13.2</ele>
        <time>2020-06-04T16:08:52Z</time>
      </trkpt>
      <trkpt lat="47.06928" lon="-2.01376">
        <ele>13.3</ele>
        <time>2020-06-04T16:08:53Z</time>
      </trkpt>
      <trkpt lat="47.06929" lon="-2.01381">
        <ele>13.3</ele>
        <time>2020-06-04T16:08:54Z</time>
      </trkpt>
      <trkpt lat="47.06932" lon="-2.01386">
        <ele>13.3</ele>
        <time>2020-06-04T16:08:55Z</time>
      </trkpt>
      <trkpt lat="47.06934" lon="-2.01391">
        <ele>13.3</ele>
        <time>2020-06-04T16:08:56Z</time>
      </trkpt>
      <trkpt lat="47.06936" lon="-2.01395">
        <ele>13.4</ele>
        <time>2020-06-04T16:08:57Z</time>
      </trkpt>
      <trkpt lat="47.06939" lon="-2.01399">
        <ele>13.4</ele>
        <time>2020-06-04T16:08:58Z</time>
      </trkpt>
      <trkpt lat="47.06941" lon="-2.01405">
        <ele>13.4</ele>
        <time>2020-06-04T16:08:59Z</time>
      </trkpt>
      <trkpt lat="47.06943" lon="-2.0141">
        <ele>13.4</ele>
        <time>2020-06-04T16:09:00Z</time>
      </trkpt>
      <trkpt lat="47.06945" lon="-2.01415">
        <ele>13.4</ele>
        <time>2020-06-04T16:09:01Z</time>
      </trkpt>
      <trkpt lat="47.06947" lon="-2.0142">
        <ele>13.4</ele>
        <time>2020-06-04T16:09:02Z</time>
      </trkpt>
      <trkpt lat="47.06949" lon="-2.01426">
        <ele>13.4</ele>
        <time>2020-06-04T16:09:03Z</time>
      </trkpt>
      <trkpt lat="47.06951" lon="-2.0143">
        <ele>13.4</ele>
        <time>2020-06-04T16:09:04Z</time>
      </trkpt>
      <trkpt lat="47.06954" lon="-2.01435">
        <ele>13.4</ele>
        <time>2020-06-04T16:09:05Z</time>
      </trkpt>
      <trkpt lat="47.06956" lon="-2.01441">
        <ele>13.4</ele>
        <time>2020-06-04T16:09:06Z</time>
      </trkpt>
      <trkpt lat="47.06959" lon="-2.01446">
        <ele>13.4</ele>
        <time>2020-06-04T16:09:07Z</time>
      </trkpt>
      <trkpt lat="47.06961" lon="-2.01452">
        <ele>13.4</ele>
        <time>2020-06-04T16:09:08Z</time>
      </trkpt>
      <trkpt lat="47.06963" lon="-2.01458">
        <ele>13.4</ele>
        <time>2020-06-04T16:09:09Z</time>
      </trkpt>
      <trkpt lat="47.06965" lon="-2.01463">
        <ele>13.4</ele>
        <time>2020-06-04T16:09:10Z</time>
      </trkpt>
      <trkpt lat="47.06967" lon="-2.01468">
        <ele>13.4</ele>
        <time>2020-06-04T16:09:11Z</time>
      </trkpt>
      <trkpt lat="47.06969" lon="-2.01472">
        <ele>13.4</ele>
        <time>2020-06-04T16:09:12Z</time>
      </trkpt>
      <trkpt lat="47.06972" lon="-2.01477">
        <ele>13.4</ele>
        <time>2020-06-04T16:09:13Z</time>
      </trkpt>
      <trkpt lat="47.06974" lon="-2.01482">
        <ele>13.3</ele>
        <time>2020-06-04T16:09:14Z</time>
      </trkpt>
      <trkpt lat="47.06977" lon="-2.01488">
        <ele>13.3</ele>
        <time>2020-06-04T16:09:15Z</time>
      </trkpt>
      <trkpt lat="47.06979" lon="-2.01494">
        <ele>13.3</ele>
        <time>2020-06-04T16:09:16Z</time>
      </trkpt>
      <trkpt lat="47.06982" lon="-2.015">
        <ele>13.2</ele>
        <time>2020-06-04T16:09:17Z</time>
      </trkpt>
      <trkpt lat="47.06985" lon="-2.01506">
        <ele>13.2</ele>
        <time>2020-06-04T16:09:18Z</time>
      </trkpt>
      <trkpt lat="47.06989" lon="-2.01512">
        <ele>13.2</ele>
        <time>2020-06-04T16:09:19Z</time>
      </trkpt>
      <trkpt lat="47.06992" lon="-2.01518">
        <ele>13.1</ele>
        <time>2020-06-04T16:09:20Z</time>
      </trkpt>
      <trkpt lat="47.06995" lon="-2.01525">
        <ele>13.1</ele>
        <time>2020-06-04T16:09:21Z</time>
      </trkpt>
      <trkpt lat="47.06998" lon="-2.01531">
        <ele>13</ele>
        <time>2020-06-04T16:09:22Z</time>
      </trkpt>
      <trkpt lat="47.07001" lon="-2.01537">
        <ele>13</ele>
        <time>2020-06-04T16:09:23Z</time>
      </trkpt>
      <trkpt lat="47.07003" lon="-2.01543">
        <ele>12.9</ele>
        <time>2020-06-04T16:09:24Z</time>
      </trkpt>
      <trkpt lat="47.07006" lon="-2.01549">
        <ele>12.9</ele>
        <time>2020-06-04T16:09:25Z</time>
      </trkpt>
      <trkpt lat="47.07009" lon="-2.01554">
        <ele>12.8</ele>
        <time>2020-06-04T16:09:26Z</time>
      </trkpt>
      <trkpt lat="47.07011" lon="-2.01559">
        <ele>12.8</ele>
        <time>2020-06-04T16:09:27Z</time>
      </trkpt>
      <trkpt lat="47.07014" lon="-2.01565">
        <ele>12.8</ele>
        <time>2020-06-04T16:09:28Z</time>
      </trkpt>
      <trkpt lat="47.07016" lon="-2.01571">
        <ele>12.7</ele>
        <time>2020-06-04T16:09:29Z</time>
      </trkpt>
      <trkpt lat="47.07019" lon="-2.01577">
        <ele>12.7</ele>
        <time>2020-06-04T16:09:30Z</time>
      </trkpt>
      <trkpt lat="47.07022" lon="-2.01584">
        <ele>12.6</ele>
        <time>2020-06-04T16:09:31Z</time>
      </trkpt>
      <trkpt lat="47.07024" lon="-2.0159">
        <ele>12.6</ele>
        <time>2020-06-04T16:09:32Z</time>
      </trkpt>
      <trkpt lat="47.07027" lon="-2.01596">
        <ele>12.6</ele>
        <time>2020-06-04T16:09:33Z</time>
      </trkpt>
      <trkpt lat="47.0703" lon="-2.01603">
        <ele>12.6</ele>
        <time>2020-06-04T16:09:34Z</time>
      </trkpt>
      <trkpt lat="47.07033" lon="-2.01609">
        <ele>12.7</ele>
        <time>2020-06-04T16:09:35Z</time>
      </trkpt>
      <trkpt lat="47.07036" lon="-2.01615">
        <ele>12.7</ele>
        <time>2020-06-04T16:09:36Z</time>
      </trkpt>
      <trkpt lat="47.07039" lon="-2.01622">
        <ele>12.6</ele>
        <time>2020-06-04T16:09:37Z</time>
      </trkpt>
      <trkpt lat="47.07042" lon="-2.0163">
        <ele>12.6</ele>
        <time>2020-06-04T16:09:38Z</time>
      </trkpt>
      <trkpt lat="47.07045" lon="-2.01636">
        <ele>12.6</ele>
        <time>2020-06-04T16:09:39Z</time>
      </trkpt>
      <trkpt lat="47.07048" lon="-2.01642">
        <ele>12.5</ele>
        <time>2020-06-04T16:09:40Z</time>
      </trkpt>
      <trkpt lat="47.07051" lon="-2.01649">
        <ele>12.4</ele>
        <time>2020-06-04T16:09:41Z</time>
      </trkpt>
      <trkpt lat="47.07053" lon="-2.01655">
        <ele>12.2</ele>
        <time>2020-06-04T16:09:42Z</time>
      </trkpt>
      <trkpt lat="47.07057" lon="-2.01661">
        <ele>12.1</ele>
        <time>2020-06-04T16:09:43Z</time>
      </trkpt>
      <trkpt lat="47.0706" lon="-2.01668">
        <ele>12</ele>
        <time>2020-06-04T16:09:44Z</time>
      </trkpt>
      <trkpt lat="47.07063" lon="-2.01675">
        <ele>12</ele>
        <time>2020-06-04T16:09:45Z</time>
      </trkpt>
      <trkpt lat="47.07066" lon="-2.01682">
        <ele>11.9</ele>
        <time>2020-06-04T16:09:46Z</time>
      </trkpt>
      <trkpt lat="47.07069" lon="-2.01688">
        <ele>11.9</ele>
        <time>2020-06-04T16:09:47Z</time>
      </trkpt>
      <trkpt lat="47.07073" lon="-2.01694">
        <ele>11.9</ele>
        <time>2020-06-04T16:09:48Z</time>
      </trkpt>
      <trkpt lat="47.07076" lon="-2.01701">
        <ele>11.8</ele>
        <time>2020-06-04T16:09:49Z</time>
      </trkpt>
      <trkpt lat="47.07079" lon="-2.01708">
        <ele>11.8</ele>
        <time>2020-06-04T16:09:50Z</time>
      </trkpt>
      <trkpt lat="47.07081" lon="-2.01714">
        <ele>11.8</ele>
        <time>2020-06-04T16:09:51Z</time>
      </trkpt>
      <trkpt lat="47.07084" lon="-2.0172">
        <ele>11.8</ele>
        <time>2020-06-04T16:09:52Z</time>
      </trkpt>
      <trkpt lat="47.07088" lon="-2.01728">
        <ele>11.7</ele>
        <time>2020-06-04T16:09:53Z</time>
      </trkpt>
      <trkpt lat="47.07091" lon="-2.01734">
        <ele>11.7</ele>
        <time>2020-06-04T16:09:54Z</time>
      </trkpt>
      <trkpt lat="47.07095" lon="-2.01741">
        <ele>11.6</ele>
        <time>2020-06-04T16:09:55Z</time>
      </trkpt>
      <trkpt lat="47.07098" lon="-2.01749">
        <ele>11.6</ele>
        <time>2020-06-04T16:09:56Z</time>
      </trkpt>
      <trkpt lat="47.07102" lon="-2.01756">
        <ele>11.5</ele>
        <time>2020-06-04T16:09:57Z</time>
      </trkpt>
      <trkpt lat="47.07106" lon="-2.01764">
        <ele>11.5</ele>
        <time>2020-06-04T16:09:58Z</time>
      </trkpt>
      <trkpt lat="47.07109" lon="-2.01771">
        <ele>11.5</ele>
        <time>2020-06-04T16:09:59Z</time>
      </trkpt>
      <trkpt lat="47.07112" lon="-2.01779">
        <ele>11.4</ele>
        <time>2020-06-04T16:10:00Z</time>
      </trkpt>
      <trkpt lat="47.07116" lon="-2.01786">
        <ele>11.4</ele>
        <time>2020-06-04T16:10:01Z</time>
      </trkpt>
      <trkpt lat="47.0712" lon="-2.01794">
        <ele>11.4</ele>
        <time>2020-06-04T16:10:02Z</time>
      </trkpt>
      <trkpt lat="47.07122" lon="-2.018">
        <ele>11.4</ele>
        <time>2020-06-04T16:10:03Z</time>
      </trkpt>
      <trkpt lat="47.07126" lon="-2.01808">
        <ele>11.4</ele>
        <time>2020-06-04T16:10:04Z</time>
      </trkpt>
      <trkpt lat="47.07129" lon="-2.01815">
        <ele>11.4</ele>
        <time>2020-06-04T16:10:05Z</time>
      </trkpt>
      <trkpt lat="47.07131" lon="-2.01821">
        <ele>11.4</ele>
        <time>2020-06-04T16:10:06Z</time>
      </trkpt>
      <trkpt lat="47.07135" lon="-2.0183">
        <ele>11.4</ele>
        <time>2020-06-04T16:10:07Z</time>
      </trkpt>
      <trkpt lat="47.07138" lon="-2.01836">
        <ele>11.5</ele>
        <time>2020-06-04T16:10:08Z</time>
      </trkpt>
      <trkpt lat="47.07141" lon="-2.01843">
        <ele>11.5</ele>
        <time>2020-06-04T16:10:09Z</time>
      </trkpt>
      <trkpt lat="47.07144" lon="-2.01849">
        <ele>11.5</ele>
        <time>2020-06-04T16:10:10Z</time>
      </trkpt>
      <trkpt lat="47.07147" lon="-2.01857">
        <ele>11.5</ele>
        <time>2020-06-04T16:10:11Z</time>
      </trkpt>
      <trkpt lat="47.0715" lon="-2.01863">
        <ele>11.5</ele>
        <time>2020-06-04T16:10:12Z</time>
      </trkpt>
      <trkpt lat="47.07152" lon="-2.01869">
        <ele>11.6</ele>
        <time>2020-06-04T16:10:13Z</time>
      </trkpt>
      <trkpt lat="47.07155" lon="-2.01877">
        <ele>11.6</ele>
        <time>2020-06-04T16:10:14Z</time>
      </trkpt>
      <trkpt lat="47.07159" lon="-2.01884">
        <ele>11.6</ele>
        <time>2020-06-04T16:10:15Z</time>
      </trkpt>
      <trkpt lat="47.07162" lon="-2.01891">
        <ele>11.6</ele>
        <time>2020-06-04T16:10:16Z</time>
      </trkpt>
      <trkpt lat="47.07165" lon="-2.01897">
        <ele>11.6</ele>
        <time>2020-06-04T16:10:17Z</time>
      </trkpt>
      <trkpt lat="47.07168" lon="-2.01904">
        <ele>11.7</ele>
        <time>2020-06-04T16:10:18Z</time>
      </trkpt>
      <trkpt lat="47.07171" lon="-2.01912">
        <ele>11.7</ele>
        <time>2020-06-04T16:10:19Z</time>
      </trkpt>
      <trkpt lat="47.07175" lon="-2.01919">
        <ele>11.7</ele>
        <time>2020-06-04T16:10:20Z</time>
      </trkpt>
      <trkpt lat="47.07178" lon="-2.01926">
        <ele>11.7</ele>
        <time>2020-06-04T16:10:21Z</time>
      </trkpt>
      <trkpt lat="47.07181" lon="-2.01933">
        <ele>11.8</ele>
        <time>2020-06-04T16:10:22Z</time>
      </trkpt>
      <trkpt lat="47.07185" lon="-2.01941">
        <ele>11.8</ele>
        <time>2020-06-04T16:10:23Z</time>
      </trkpt>
      <trkpt lat="47.07188" lon="-2.01947">
        <ele>11.8</ele>
        <time>2020-06-04T16:10:24Z</time>
      </trkpt>
      <trkpt lat="47.07191" lon="-2.01954">
        <ele>11.8</ele>
        <time>2020-06-04T16:10:25Z</time>
      </trkpt>
      <trkpt lat="47.07194" lon="-2.01961">
        <ele>11.8</ele>
        <time>2020-06-04T16:10:26Z</time>
      </trkpt>
      <trkpt lat="47.07197" lon="-2.01968">
        <ele>11.8</ele>
        <time>2020-06-04T16:10:27Z</time>
      </trkpt>
      <trkpt lat="47.072" lon="-2.01976">
        <ele>11.9</ele>
        <time>2020-06-04T16:10:28Z</time>
      </trkpt>
      <trkpt lat="47.07203" lon="-2.01983">
        <ele>11.9</ele>
        <time>2020-06-04T16:10:29Z</time>
      </trkpt>
      <trkpt lat="47.07205" lon="-2.01989">
        <ele>11.9</ele>
        <time>2020-06-04T16:10:30Z</time>
      </trkpt>
      <trkpt lat="47.07208" lon="-2.01996">
        <ele>11.9</ele>
        <time>2020-06-04T16:10:31Z</time>
      </trkpt>
      <trkpt lat="47.07211" lon="-2.02003">
        <ele>11.9</ele>
        <time>2020-06-04T16:10:32Z</time>
      </trkpt>
      <trkpt lat="47.07214" lon="-2.02009">
        <ele>11.9</ele>
        <time>2020-06-04T16:10:33Z</time>
      </trkpt>
      <trkpt lat="47.07217" lon="-2.02016">
        <ele>11.9</ele>
        <time>2020-06-04T16:10:34Z</time>
      </trkpt>
      <trkpt lat="47.0722" lon="-2.02023">
        <ele>11.9</ele>
        <time>2020-06-04T16:10:35Z</time>
      </trkpt>
      <trkpt lat="47.07223" lon="-2.0203">
        <ele>11.9</ele>
        <time>2020-06-04T16:10:36Z</time>
      </trkpt>
      <trkpt lat="47.07226" lon="-2.02036">
        <ele>11.9</ele>
        <time>2020-06-04T16:10:37Z</time>
      </trkpt>
      <trkpt lat="47.07229" lon="-2.02043">
        <ele>11.9</ele>
        <time>2020-06-04T16:10:38Z</time>
      </trkpt>
      <trkpt lat="47.07232" lon="-2.0205">
        <ele>11.8</ele>
        <time>2020-06-04T16:10:39Z</time>
      </trkpt>
      <trkpt lat="47.07235" lon="-2.02056">
        <ele>11.8</ele>
        <time>2020-06-04T16:10:40Z</time>
      </trkpt>
      <trkpt lat="47.07238" lon="-2.02063">
        <ele>11.8</ele>
        <time>2020-06-04T16:10:41Z</time>
      </trkpt>
      <trkpt lat="47.07242" lon="-2.0207">
        <ele>11.8</ele>
        <time>2020-06-04T16:10:42Z</time>
      </trkpt>
      <trkpt lat="47.07245" lon="-2.02079">
        <ele>11.8</ele>
        <time>2020-06-04T16:10:43Z</time>
      </trkpt>
      <trkpt lat="47.07249" lon="-2.02086">
        <ele>11.7</ele>
        <time>2020-06-04T16:10:44Z</time>
      </trkpt>
      <trkpt lat="47.07252" lon="-2.02091">
        <ele>11.7</ele>
        <time>2020-06-04T16:10:45Z</time>
      </trkpt>
      <trkpt lat="47.07255" lon="-2.02099">
        <ele>11.6</ele>
        <time>2020-06-04T16:10:46Z</time>
      </trkpt>
      <trkpt lat="47.07258" lon="-2.02106">
        <ele>11.6</ele>
        <time>2020-06-04T16:10:47Z</time>
      </trkpt>
      <trkpt lat="47.07261" lon="-2.02113">
        <ele>11.5</ele>
        <time>2020-06-04T16:10:48Z</time>
      </trkpt>
      <trkpt lat="47.07265" lon="-2.0212">
        <ele>11.5</ele>
        <time>2020-06-04T16:10:49Z</time>
      </trkpt>
      <trkpt lat="47.07268" lon="-2.02126">
        <ele>11.4</ele>
        <time>2020-06-04T16:10:50Z</time>
      </trkpt>
      <trkpt lat="47.07271" lon="-2.02132">
        <ele>11.4</ele>
        <time>2020-06-04T16:10:51Z</time>
      </trkpt>
      <trkpt lat="47.07275" lon="-2.02139">
        <ele>11.4</ele>
        <time>2020-06-04T16:10:52Z</time>
      </trkpt>
      <trkpt lat="47.07278" lon="-2.02145">
        <ele>11.3</ele>
        <time>2020-06-04T16:10:53Z</time>
      </trkpt>
      <trkpt lat="47.0728" lon="-2.02151">
        <ele>11.3</ele>
        <time>2020-06-04T16:10:54Z</time>
      </trkpt>
      <trkpt lat="47.07283" lon="-2.02157">
        <ele>11.3</ele>
        <time>2020-06-04T16:10:55Z</time>
      </trkpt>
      <trkpt lat="47.07286" lon="-2.02162">
        <ele>11.3</ele>
        <time>2020-06-04T16:10:56Z</time>
      </trkpt>
      <trkpt lat="47.07288" lon="-2.02167">
        <ele>11.2</ele>
        <time>2020-06-04T16:10:57Z</time>
      </trkpt>
      <trkpt lat="47.07291" lon="-2.02173">
        <ele>11.2</ele>
        <time>2020-06-04T16:10:58Z</time>
      </trkpt>
      <trkpt lat="47.07294" lon="-2.0218">
        <ele>11.2</ele>
        <time>2020-06-04T16:10:59Z</time>
      </trkpt>
      <trkpt lat="47.07297" lon="-2.02186">
        <ele>11.2</ele>
        <time>2020-06-04T16:11:00Z</time>
      </trkpt>
      <trkpt lat="47.073" lon="-2.02192">
        <ele>11.1</ele>
        <time>2020-06-04T16:11:01Z</time>
      </trkpt>
      <trkpt lat="47.07303" lon="-2.02198">
        <ele>11.1</ele>
        <time>2020-06-04T16:11:02Z</time>
      </trkpt>
      <trkpt lat="47.07306" lon="-2.02205">
        <ele>11.1</ele>
        <time>2020-06-04T16:11:03Z</time>
      </trkpt>
      <trkpt lat="47.07309" lon="-2.02212">
        <ele>11</ele>
        <time>2020-06-04T16:11:04Z</time>
      </trkpt>
      <trkpt lat="47.07312" lon="-2.02221">
        <ele>11</ele>
        <time>2020-06-04T16:11:05Z</time>
      </trkpt>
      <trkpt lat="47.07315" lon="-2.02228">
        <ele>11</ele>
        <time>2020-06-04T16:11:06Z</time>
      </trkpt>
      <trkpt lat="47.07317" lon="-2.02235">
        <ele>11</ele>
        <time>2020-06-04T16:11:07Z</time>
      </trkpt>
      <trkpt lat="47.07321" lon="-2.02242">
        <ele>10.9</ele>
        <time>2020-06-04T16:11:08Z</time>
      </trkpt>
      <trkpt lat="47.07324" lon="-2.02248">
        <ele>10.9</ele>
        <time>2020-06-04T16:11:09Z</time>
      </trkpt>
      <trkpt lat="47.07328" lon="-2.02256">
        <ele>10.8</ele>
        <time>2020-06-04T16:11:10Z</time>
      </trkpt>
      <trkpt lat="47.07331" lon="-2.02266">
        <ele>10.8</ele>
        <time>2020-06-04T16:11:11Z</time>
      </trkpt>
      <trkpt lat="47.07334" lon="-2.02273">
        <ele>10.7</ele>
        <time>2020-06-04T16:11:12Z</time>
      </trkpt>
      <trkpt lat="47.07337" lon="-2.02281">
        <ele>10.6</ele>
        <time>2020-06-04T16:11:13Z</time>
      </trkpt>
      <trkpt lat="47.0734" lon="-2.02288">
        <ele>10.5</ele>
        <time>2020-06-04T16:11:14Z</time>
      </trkpt>
      <trkpt lat="47.07343" lon="-2.02296">
        <ele>10.5</ele>
        <time>2020-06-04T16:11:15Z</time>
      </trkpt>
      <trkpt lat="47.07346" lon="-2.02303">
        <ele>10.4</ele>
        <time>2020-06-04T16:11:16Z</time>
      </trkpt>
      <trkpt lat="47.07349" lon="-2.02311">
        <ele>10.3</ele>
        <time>2020-06-04T16:11:17Z</time>
      </trkpt>
      <trkpt lat="47.07352" lon="-2.02318">
        <ele>10.2</ele>
        <time>2020-06-04T16:11:18Z</time>
      </trkpt>
      <trkpt lat="47.07355" lon="-2.02325">
        <ele>10.2</ele>
        <time>2020-06-04T16:11:19Z</time>
      </trkpt>
      <trkpt lat="47.07359" lon="-2.02335">
        <ele>10.2</ele>
        <time>2020-06-04T16:11:20Z</time>
      </trkpt>
      <trkpt lat="47.07362" lon="-2.02344">
        <ele>10.2</ele>
        <time>2020-06-04T16:11:21Z</time>
      </trkpt>
      <trkpt lat="47.07365" lon="-2.02351">
        <ele>10.2</ele>
        <time>2020-06-04T16:11:22Z</time>
      </trkpt>
      <trkpt lat="47.07368" lon="-2.02359">
        <ele>10.2</ele>
        <time>2020-06-04T16:11:23Z</time>
      </trkpt>
      <trkpt lat="47.07372" lon="-2.02366">
        <ele>10.2</ele>
        <time>2020-06-04T16:11:24Z</time>
      </trkpt>
      <trkpt lat="47.07374" lon="-2.02372">
        <ele>10.1</ele>
        <time>2020-06-04T16:11:25Z</time>
      </trkpt>
      <trkpt lat="47.07377" lon="-2.0238">
        <ele>10.1</ele>
        <time>2020-06-04T16:11:26Z</time>
      </trkpt>
      <trkpt lat="47.0738" lon="-2.02386">
        <ele>10.1</ele>
        <time>2020-06-04T16:11:27Z</time>
      </trkpt>
      <trkpt lat="47.07383" lon="-2.02395">
        <ele>10.1</ele>
        <time>2020-06-04T16:11:28Z</time>
      </trkpt>
      <trkpt lat="47.07386" lon="-2.02403">
        <ele>10.1</ele>
        <time>2020-06-04T16:11:29Z</time>
      </trkpt>
      <trkpt lat="47.07389" lon="-2.02409">
        <ele>10</ele>
        <time>2020-06-04T16:11:30Z</time>
      </trkpt>
      <trkpt lat="47.07392" lon="-2.02416">
        <ele>10</ele>
        <time>2020-06-04T16:11:31Z</time>
      </trkpt>
      <trkpt lat="47.07394" lon="-2.02423">
        <ele>10</ele>
        <time>2020-06-04T16:11:32Z</time>
      </trkpt>
      <trkpt lat="47.07397" lon="-2.0243">
        <ele>10</ele>
        <time>2020-06-04T16:11:33Z</time>
      </trkpt>
      <trkpt lat="47.07401" lon="-2.0244">
        <ele>10</ele>
        <time>2020-06-04T16:11:34Z</time>
      </trkpt>
      <trkpt lat="47.07404" lon="-2.02448">
        <ele>10</ele>
        <time>2020-06-04T16:11:35Z</time>
      </trkpt>
      <trkpt lat="47.07408" lon="-2.02454">
        <ele>9.9</ele>
        <time>2020-06-04T16:11:36Z</time>
      </trkpt>
      <trkpt lat="47.07411" lon="-2.02461">
        <ele>9.8</ele>
        <time>2020-06-04T16:11:37Z</time>
      </trkpt>
      <trkpt lat="47.07414" lon="-2.02468">
        <ele>9.8</ele>
        <time>2020-06-04T16:11:38Z</time>
      </trkpt>
      <trkpt lat="47.07417" lon="-2.02476">
        <ele>9.7</ele>
        <time>2020-06-04T16:11:39Z</time>
      </trkpt>
      <trkpt lat="47.0742" lon="-2.02484">
        <ele>9.6</ele>
        <time>2020-06-04T16:11:40Z</time>
      </trkpt>
      <trkpt lat="47.07424" lon="-2.02492">
        <ele>9.5</ele>
        <time>2020-06-04T16:11:41Z</time>
      </trkpt>
      <trkpt lat="47.07428" lon="-2.02499">
        <ele>9.4</ele>
        <time>2020-06-04T16:11:42Z</time>
      </trkpt>
      <trkpt lat="47.07431" lon="-2.02506">
        <ele>9.2</ele>
        <time>2020-06-04T16:11:43Z</time>
      </trkpt>
      <trkpt lat="47.07434" lon="-2.02513">
        <ele>9.1</ele>
        <time>2020-06-04T16:11:44Z</time>
      </trkpt>
      <trkpt lat="47.07437" lon="-2.02521">
        <ele>9</ele>
        <time>2020-06-04T16:11:45Z</time>
      </trkpt>
      <trkpt lat="47.0744" lon="-2.02529">
        <ele>8.8</ele>
        <time>2020-06-04T16:11:46Z</time>
      </trkpt>
      <trkpt lat="47.07443" lon="-2.02536">
        <ele>8.7</ele>
        <time>2020-06-04T16:11:47Z</time>
      </trkpt>
      <trkpt lat="47.07446" lon="-2.02543">
        <ele>8.6</ele>
        <time>2020-06-04T16:11:48Z</time>
      </trkpt>
      <trkpt lat="47.07449" lon="-2.02549">
        <ele>8.6</ele>
        <time>2020-06-04T16:11:49Z</time>
      </trkpt>
      <trkpt lat="47.07453" lon="-2.02557">
        <ele>8.5</ele>
        <time>2020-06-04T16:11:50Z</time>
      </trkpt>
      <trkpt lat="47.07457" lon="-2.02565">
        <ele>8.4</ele>
        <time>2020-06-04T16:11:51Z</time>
      </trkpt>
      <trkpt lat="47.07459" lon="-2.02575">
        <ele>8.4</ele>
        <time>2020-06-04T16:11:52Z</time>
      </trkpt>
      <trkpt lat="47.07461" lon="-2.02582">
        <ele>8.3</ele>
        <time>2020-06-04T16:11:53Z</time>
      </trkpt>
      <trkpt lat="47.07464" lon="-2.0259">
        <ele>8.3</ele>
        <time>2020-06-04T16:11:54Z</time>
      </trkpt>
      <trkpt lat="47.07466" lon="-2.02596">
        <ele>8.3</ele>
        <time>2020-06-04T16:11:55Z</time>
      </trkpt>
      <trkpt lat="47.07469" lon="-2.02604">
        <ele>8.3</ele>
        <time>2020-06-04T16:11:56Z</time>
      </trkpt>
      <trkpt lat="47.07472" lon="-2.02612">
        <ele>8.2</ele>
        <time>2020-06-04T16:11:57Z</time>
      </trkpt>
      <trkpt lat="47.07475" lon="-2.0262">
        <ele>8.2</ele>
        <time>2020-06-04T16:11:58Z</time>
      </trkpt>
      <trkpt lat="47.07478" lon="-2.02627">
        <ele>8.1</ele>
        <time>2020-06-04T16:11:59Z</time>
      </trkpt>
      <trkpt lat="47.07481" lon="-2.02635">
        <ele>8.1</ele>
        <time>2020-06-04T16:12:00Z</time>
      </trkpt>
      <trkpt lat="47.07484" lon="-2.02641">
        <ele>8</ele>
        <time>2020-06-04T16:12:01Z</time>
      </trkpt>
      <trkpt lat="47.07487" lon="-2.02648">
        <ele>8</ele>
        <time>2020-06-04T16:12:02Z</time>
      </trkpt>
      <trkpt lat="47.0749" lon="-2.02657">
        <ele>8</ele>
        <time>2020-06-04T16:12:03Z</time>
      </trkpt>
      <trkpt lat="47.07494" lon="-2.02665">
        <ele>7.9</ele>
        <time>2020-06-04T16:12:04Z</time>
      </trkpt>
      <trkpt lat="47.07497" lon="-2.02673">
        <ele>7.9</ele>
        <time>2020-06-04T16:12:05Z</time>
      </trkpt>
      <trkpt lat="47.075" lon="-2.02681">
        <ele>7.9</ele>
        <time>2020-06-04T16:12:06Z</time>
      </trkpt>
      <trkpt lat="47.07503" lon="-2.02688">
        <ele>7.8</ele>
        <time>2020-06-04T16:12:07Z</time>
      </trkpt>
      <trkpt lat="47.07506" lon="-2.02695">
        <ele>7.8</ele>
        <time>2020-06-04T16:12:08Z</time>
      </trkpt>
      <trkpt lat="47.07509" lon="-2.02701">
        <ele>7.8</ele>
        <time>2020-06-04T16:12:09Z</time>
      </trkpt>
      <trkpt lat="47.07512" lon="-2.02709">
        <ele>7.8</ele>
        <time>2020-06-04T16:12:10Z</time>
      </trkpt>
      <trkpt lat="47.07515" lon="-2.02715">
        <ele>7.8</ele>
        <time>2020-06-04T16:12:11Z</time>
      </trkpt>
      <trkpt lat="47.07519" lon="-2.02723">
        <ele>7.8</ele>
        <time>2020-06-04T16:12:12Z</time>
      </trkpt>
      <trkpt lat="47.07521" lon="-2.0273">
        <ele>7.8</ele>
        <time>2020-06-04T16:12:13Z</time>
      </trkpt>
      <trkpt lat="47.07525" lon="-2.02738">
        <ele>7.8</ele>
        <time>2020-06-04T16:12:14Z</time>
      </trkpt>
      <trkpt lat="47.07527" lon="-2.02746">
        <ele>7.8</ele>
        <time>2020-06-04T16:12:15Z</time>
      </trkpt>
      <trkpt lat="47.07529" lon="-2.02753">
        <ele>7.8</ele>
        <time>2020-06-04T16:12:16Z</time>
      </trkpt>
      <trkpt lat="47.07532" lon="-2.0276">
        <ele>7.8</ele>
        <time>2020-06-04T16:12:17Z</time>
      </trkpt>
      <trkpt lat="47.07536" lon="-2.02767">
        <ele>7.8</ele>
        <time>2020-06-04T16:12:18Z</time>
      </trkpt>
      <trkpt lat="47.07538" lon="-2.02774">
        <ele>7.8</ele>
        <time>2020-06-04T16:12:19Z</time>
      </trkpt>
      <trkpt lat="47.07542" lon="-2.02782">
        <ele>7.8</ele>
        <time>2020-06-04T16:12:20Z</time>
      </trkpt>
      <trkpt lat="47.07546" lon="-2.0279">
        <ele>7.9</ele>
        <time>2020-06-04T16:12:21Z</time>
      </trkpt>
      <trkpt lat="47.07549" lon="-2.02798">
        <ele>7.9</ele>
        <time>2020-06-04T16:12:22Z</time>
      </trkpt>
      <trkpt lat="47.07553" lon="-2.02805">
        <ele>8</ele>
        <time>2020-06-04T16:12:23Z</time>
      </trkpt>
      <trkpt lat="47.07555" lon="-2.02812">
        <ele>8.1</ele>
        <time>2020-06-04T16:12:24Z</time>
      </trkpt>
      <trkpt lat="47.07558" lon="-2.02819">
        <ele>8.2</ele>
        <time>2020-06-04T16:12:25Z</time>
      </trkpt>
      <trkpt lat="47.07561" lon="-2.02826">
        <ele>8.2</ele>
        <time>2020-06-04T16:12:26Z</time>
      </trkpt>
      <trkpt lat="47.07564" lon="-2.02833">
        <ele>8.3</ele>
        <time>2020-06-04T16:12:27Z</time>
      </trkpt>
      <trkpt lat="47.07567" lon="-2.02839">
        <ele>8.3</ele>
        <time>2020-06-04T16:12:28Z</time>
      </trkpt>
      <trkpt lat="47.0757" lon="-2.02848">
        <ele>8.4</ele>
        <time>2020-06-04T16:12:29Z</time>
      </trkpt>
      <trkpt lat="47.07572" lon="-2.02854">
        <ele>8.4</ele>
        <time>2020-06-04T16:12:30Z</time>
      </trkpt>
      <trkpt lat="47.07574" lon="-2.02862">
        <ele>8.5</ele>
        <time>2020-06-04T16:12:31Z</time>
      </trkpt>
      <trkpt lat="47.07578" lon="-2.0287">
        <ele>8.5</ele>
        <time>2020-06-04T16:12:32Z</time>
      </trkpt>
      <trkpt lat="47.07581" lon="-2.02877">
        <ele>8.5</ele>
        <time>2020-06-04T16:12:33Z</time>
      </trkpt>
      <trkpt lat="47.07584" lon="-2.02884">
        <ele>8.5</ele>
        <time>2020-06-04T16:12:34Z</time>
      </trkpt>
      <trkpt lat="47.07586" lon="-2.02889">
        <ele>8.6</ele>
        <time>2020-06-04T16:12:35Z</time>
      </trkpt>
      <trkpt lat="47.07588" lon="-2.02895">
        <ele>8.6</ele>
        <time>2020-06-04T16:12:36Z</time>
      </trkpt>
      <trkpt lat="47.0759" lon="-2.02902">
        <ele>8.6</ele>
        <time>2020-06-04T16:12:37Z</time>
      </trkpt>
      <trkpt lat="47.07594" lon="-2.02909">
        <ele>8.7</ele>
        <time>2020-06-04T16:12:38Z</time>
      </trkpt>
      <trkpt lat="47.07597" lon="-2.02915">
        <ele>8.7</ele>
        <time>2020-06-04T16:12:39Z</time>
      </trkpt>
      <trkpt lat="47.076" lon="-2.02921">
        <ele>8.7</ele>
        <time>2020-06-04T16:12:40Z</time>
      </trkpt>
      <trkpt lat="47.07603" lon="-2.02928">
        <ele>8.7</ele>
        <time>2020-06-04T16:12:41Z</time>
      </trkpt>
      <trkpt lat="47.07606" lon="-2.02935">
        <ele>8.7</ele>
        <time>2020-06-04T16:12:42Z</time>
      </trkpt>
      <trkpt lat="47.0761" lon="-2.02942">
        <ele>8.7</ele>
        <time>2020-06-04T16:12:43Z</time>
      </trkpt>
      <trkpt lat="47.07613" lon="-2.0295">
        <ele>8.7</ele>
        <time>2020-06-04T16:12:44Z</time>
      </trkpt>
      <trkpt lat="47.07615" lon="-2.02957">
        <ele>8.7</ele>
        <time>2020-06-04T16:12:45Z</time>
      </trkpt>
      <trkpt lat="47.07618" lon="-2.02964">
        <ele>8.7</ele>
        <time>2020-06-04T16:12:46Z</time>
      </trkpt>
      <trkpt lat="47.0762" lon="-2.02971">
        <ele>8.7</ele>
        <time>2020-06-04T16:12:47Z</time>
      </trkpt>
      <trkpt lat="47.07623" lon="-2.02979">
        <ele>8.7</ele>
        <time>2020-06-04T16:12:48Z</time>
      </trkpt>
      <trkpt lat="47.07626" lon="-2.02987">
        <ele>8.7</ele>
        <time>2020-06-04T16:12:49Z</time>
      </trkpt>
      <trkpt lat="47.07629" lon="-2.02994">
        <ele>8.7</ele>
        <time>2020-06-04T16:12:50Z</time>
      </trkpt>
      <trkpt lat="47.07632" lon="-2.03002">
        <ele>8.7</ele>
        <time>2020-06-04T16:12:51Z</time>
      </trkpt>
      <trkpt lat="47.07635" lon="-2.03009">
        <ele>8.7</ele>
        <time>2020-06-04T16:12:52Z</time>
      </trkpt>
      <trkpt lat="47.07638" lon="-2.03018">
        <ele>8.7</ele>
        <time>2020-06-04T16:12:53Z</time>
      </trkpt>
      <trkpt lat="47.07641" lon="-2.03025">
        <ele>8.7</ele>
        <time>2020-06-04T16:12:54Z</time>
      </trkpt>
      <trkpt lat="47.07644" lon="-2.03033">
        <ele>8.7</ele>
        <time>2020-06-04T16:12:55Z</time>
      </trkpt>
      <trkpt lat="47.07648" lon="-2.03041">
        <ele>8.7</ele>
        <time>2020-06-04T16:12:56Z</time>
      </trkpt>
      <trkpt lat="47.0765" lon="-2.03048">
        <ele>8.7</ele>
        <time>2020-06-04T16:12:57Z</time>
      </trkpt>
      <trkpt lat="47.07653" lon="-2.03054">
        <ele>8.7</ele>
        <time>2020-06-04T16:12:58Z</time>
      </trkpt>
      <trkpt lat="47.07656" lon="-2.03059">
        <ele>8.6</ele>
        <time>2020-06-04T16:12:59Z</time>
      </trkpt>
      <trkpt lat="47.07658" lon="-2.03065">
        <ele>8.5</ele>
        <time>2020-06-04T16:13:00Z</time>
      </trkpt>
      <trkpt lat="47.07661" lon="-2.03071">
        <ele>8.4</ele>
        <time>2020-06-04T16:13:01Z</time>
      </trkpt>
      <trkpt lat="47.07663" lon="-2.03077">
        <ele>8.4</ele>
        <time>2020-06-04T16:13:02Z</time>
      </trkpt>
      <trkpt lat="47.07666" lon="-2.03083">
        <ele>8.3</ele>
        <time>2020-06-04T16:13:03Z</time>
      </trkpt>
      <trkpt lat="47.07669" lon="-2.03089">
        <ele>8.2</ele>
        <time>2020-06-04T16:13:04Z</time>
      </trkpt>
      <trkpt lat="47.07671" lon="-2.03095">
        <ele>8.1</ele>
        <time>2020-06-04T16:13:05Z</time>
      </trkpt>
      <trkpt lat="47.07674" lon="-2.03101">
        <ele>8</ele>
        <time>2020-06-04T16:13:06Z</time>
      </trkpt>
      <trkpt lat="47.07677" lon="-2.03106">
        <ele>7.9</ele>
        <time>2020-06-04T16:13:07Z</time>
      </trkpt>
      <trkpt lat="47.0768" lon="-2.03112">
        <ele>7.9</ele>
        <time>2020-06-04T16:13:08Z</time>
      </trkpt>
      <trkpt lat="47.07683" lon="-2.03118">
        <ele>7.8</ele>
        <time>2020-06-04T16:13:09Z</time>
      </trkpt>
      <trkpt lat="47.07686" lon="-2.03124">
        <ele>7.7</ele>
        <time>2020-06-04T16:13:10Z</time>
      </trkpt>
      <trkpt lat="47.07689" lon="-2.0313">
        <ele>7.7</ele>
        <time>2020-06-04T16:13:11Z</time>
      </trkpt>
      <trkpt lat="47.0769" lon="-2.03137">
        <ele>7.6</ele>
        <time>2020-06-04T16:13:12Z</time>
      </trkpt>
      <trkpt lat="47.07691" lon="-2.03144">
        <ele>7.6</ele>
        <time>2020-06-04T16:13:13Z</time>
      </trkpt>
      <trkpt lat="47.07692" lon="-2.03148">
        <ele>7.6</ele>
        <time>2020-06-04T16:13:14Z</time>
      </trkpt>
      <trkpt lat="47.07688" lon="-2.03152">
        <ele>7.6</ele>
        <time>2020-06-04T16:13:15Z</time>
      </trkpt>
      <trkpt lat="47.07683" lon="-2.03157">
        <ele>7.5</ele>
        <time>2020-06-04T16:13:16Z</time>
      </trkpt>
      <trkpt lat="47.07678" lon="-2.03161">
        <ele>7.5</ele>
        <time>2020-06-04T16:13:17Z</time>
      </trkpt>
      <trkpt lat="47.07673" lon="-2.03165">
        <ele>7.5</ele>
        <time>2020-06-04T16:13:18Z</time>
      </trkpt>
      <trkpt lat="47.07669" lon="-2.0317">
        <ele>7.5</ele>
        <time>2020-06-04T16:13:19Z</time>
      </trkpt>
      <trkpt lat="47.07664" lon="-2.03174">
        <ele>7.5</ele>
        <time>2020-06-04T16:13:20Z</time>
      </trkpt>
      <trkpt lat="47.07659" lon="-2.03178">
        <ele>7.5</ele>
        <time>2020-06-04T16:13:21Z</time>
      </trkpt>
      <trkpt lat="47.07654" lon="-2.03182">
        <ele>7.5</ele>
        <time>2020-06-04T16:13:22Z</time>
      </trkpt>
      <trkpt lat="47.07648" lon="-2.03186">
        <ele>7.4</ele>
        <time>2020-06-04T16:13:23Z</time>
      </trkpt>
      <trkpt lat="47.07643" lon="-2.0319">
        <ele>7.4</ele>
        <time>2020-06-04T16:13:24Z</time>
      </trkpt>
      <trkpt lat="47.07638" lon="-2.03195">
        <ele>7.4</ele>
        <time>2020-06-04T16:13:25Z</time>
      </trkpt>
      <trkpt lat="47.07633" lon="-2.03199">
        <ele>7.4</ele>
        <time>2020-06-04T16:13:26Z</time>
      </trkpt>
      <trkpt lat="47.07628" lon="-2.03203">
        <ele>7.4</ele>
        <time>2020-06-04T16:13:27Z</time>
      </trkpt>
      <trkpt lat="47.07624" lon="-2.03207">
        <ele>7.4</ele>
        <time>2020-06-04T16:13:28Z</time>
      </trkpt>
      <trkpt lat="47.0762" lon="-2.0321">
        <ele>7.4</ele>
        <time>2020-06-04T16:13:29Z</time>
      </trkpt>
      <trkpt lat="47.07616" lon="-2.03212">
        <ele>7.4</ele>
        <time>2020-06-04T16:13:30Z</time>
      </trkpt>
      <trkpt lat="47.07611" lon="-2.03216">
        <ele>7.4</ele>
        <time>2020-06-04T16:13:31Z</time>
      </trkpt>
      <trkpt lat="47.07607" lon="-2.0322">
        <ele>7.4</ele>
        <time>2020-06-04T16:13:32Z</time>
      </trkpt>
      <trkpt lat="47.07602" lon="-2.03224">
        <ele>7.3</ele>
        <time>2020-06-04T16:13:33Z</time>
      </trkpt>
      <trkpt lat="47.07598" lon="-2.03229">
        <ele>7.3</ele>
        <time>2020-06-04T16:13:34Z</time>
      </trkpt>
      <trkpt lat="47.07594" lon="-2.03232">
        <ele>7.2</ele>
        <time>2020-06-04T16:13:35Z</time>
      </trkpt>
      <trkpt lat="47.07591" lon="-2.03235">
        <ele>7.2</ele>
        <time>2020-06-04T16:13:36Z</time>
      </trkpt>
      <trkpt lat="47.07589" lon="-2.03238">
        <ele>7.2</ele>
        <time>2020-06-04T16:13:37Z</time>
      </trkpt>
      <trkpt lat="47.07589" lon="-2.0324">
        <ele>7.2</ele>
        <time>2020-06-04T16:13:38Z</time>
      </trkpt>
      <trkpt lat="47.07588" lon="-2.0324">
        <ele>7.2</ele>
        <time>2020-06-04T16:13:39Z</time>
      </trkpt>
      <trkpt lat="47.07587" lon="-2.03242">
        <ele>7.2</ele>
        <time>2020-06-04T16:13:40Z</time>
      </trkpt>
      <trkpt lat="47.07586" lon="-2.03241">
        <ele>7.2</ele>
        <time>2020-06-04T16:13:41Z</time>
      </trkpt>
      <trkpt lat="47.07585" lon="-2.03239">
        <ele>7.2</ele>
        <time>2020-06-04T16:13:42Z</time>
      </trkpt>
      <trkpt lat="47.07584" lon="-2.03234">
        <ele>7.2</ele>
        <time>2020-06-04T16:13:43Z</time>
      </trkpt>
      <trkpt lat="47.07583" lon="-2.0323">
        <ele>7.2</ele>
        <time>2020-06-04T16:13:44Z</time>
      </trkpt>
      <trkpt lat="47.07582" lon="-2.03229">
        <ele>7.2</ele>
        <time>2020-06-04T16:13:45Z</time>
      </trkpt>
      <trkpt lat="47.0758" lon="-2.03224">
        <ele>7.2</ele>
        <time>2020-06-04T16:13:46Z</time>
      </trkpt>
      <trkpt lat="47.07578" lon="-2.03219">
        <ele>7.3</ele>
        <time>2020-06-04T16:13:47Z</time>
      </trkpt>
      <trkpt lat="47.07576" lon="-2.03215">
        <ele>7.3</ele>
        <time>2020-06-04T16:13:48Z</time>
      </trkpt>
      <trkpt lat="47.07575" lon="-2.03211">
        <ele>7.3</ele>
        <time>2020-06-04T16:13:49Z</time>
      </trkpt>
      <trkpt lat="47.07573" lon="-2.03207">
        <ele>7.3</ele>
        <time>2020-06-04T16:13:50Z</time>
      </trkpt>
      <trkpt lat="47.07572" lon="-2.03203">
        <ele>7.3</ele>
        <time>2020-06-04T16:13:51Z</time>
      </trkpt>
      <trkpt lat="47.07571" lon="-2.03199">
        <ele>7.3</ele>
        <time>2020-06-04T16:13:52Z</time>
      </trkpt>
      <trkpt lat="47.0757" lon="-2.03195">
        <ele>7.3</ele>
        <time>2020-06-04T16:13:53Z</time>
      </trkpt>
      <trkpt lat="47.07569" lon="-2.03191">
        <ele>7.4</ele>
        <time>2020-06-04T16:13:54Z</time>
      </trkpt>
      <trkpt lat="47.07567" lon="-2.03187">
        <ele>7.4</ele>
        <time>2020-06-04T16:13:55Z</time>
      </trkpt>
      <trkpt lat="47.07565" lon="-2.03183">
        <ele>7.4</ele>
        <time>2020-06-04T16:13:56Z</time>
      </trkpt>
      <trkpt lat="47.07562" lon="-2.0318">
        <ele>7.4</ele>
        <time>2020-06-04T16:13:57Z</time>
      </trkpt>
      <trkpt lat="47.07559" lon="-2.03181">
        <ele>7.4</ele>
        <time>2020-06-04T16:13:58Z</time>
      </trkpt>
      <trkpt lat="47.07556" lon="-2.03184">
        <ele>7.4</ele>
        <time>2020-06-04T16:13:59Z</time>
      </trkpt>
      <trkpt lat="47.07553" lon="-2.03186">
        <ele>7.4</ele>
        <time>2020-06-04T16:14:00Z</time>
      </trkpt>
      <trkpt lat="47.0755" lon="-2.03189">
        <ele>7.3</ele>
        <time>2020-06-04T16:14:01Z</time>
      </trkpt>
      <trkpt lat="47.07547" lon="-2.03192">
        <ele>7.3</ele>
        <time>2020-06-04T16:14:02Z</time>
      </trkpt>
      <trkpt lat="47.07544" lon="-2.03197">
        <ele>7.2</ele>
        <time>2020-06-04T16:14:03Z</time>
      </trkpt>
      <trkpt lat="47.07542" lon="-2.03201">
        <ele>7.1</ele>
        <time>2020-06-04T16:14:04Z</time>
      </trkpt>
      <trkpt lat="47.07538" lon="-2.03205">
        <ele>7</ele>
        <time>2020-06-04T16:14:05Z</time>
      </trkpt>
      <trkpt lat="47.07535" lon="-2.0321">
        <ele>6.9</ele>
        <time>2020-06-04T16:14:06Z</time>
      </trkpt>
      <trkpt lat="47.07531" lon="-2.03214">
        <ele>6.8</ele>
        <time>2020-06-04T16:14:07Z</time>
      </trkpt>
      <trkpt lat="47.07528" lon="-2.03219">
        <ele>6.6</ele>
        <time>2020-06-04T16:14:08Z</time>
      </trkpt>
      <trkpt lat="47.07525" lon="-2.03225">
        <ele>6.5</ele>
        <time>2020-06-04T16:14:09Z</time>
      </trkpt>
      <trkpt lat="47.07521" lon="-2.03229">
        <ele>6.3</ele>
        <time>2020-06-04T16:14:10Z</time>
      </trkpt>
      <trkpt lat="47.07517" lon="-2.03235">
        <ele>6.2</ele>
        <time>2020-06-04T16:14:11Z</time>
      </trkpt>
      <trkpt lat="47.07515" lon="-2.0324">
        <ele>6</ele>
        <time>2020-06-04T16:14:12Z</time>
      </trkpt>
      <trkpt lat="47.07512" lon="-2.03244">
        <ele>5.9</ele>
        <time>2020-06-04T16:14:13Z</time>
      </trkpt>
      <trkpt lat="47.07509" lon="-2.03249">
        <ele>5.7</ele>
        <time>2020-06-04T16:14:14Z</time>
      </trkpt>
      <trkpt lat="47.07504" lon="-2.03253">
        <ele>5.6</ele>
        <time>2020-06-04T16:14:15Z</time>
      </trkpt>
      <trkpt lat="47.07502" lon="-2.03256">
        <ele>5.5</ele>
        <time>2020-06-04T16:14:16Z</time>
      </trkpt>
      <trkpt lat="47.075" lon="-2.0326">
        <ele>5.3</ele>
        <time>2020-06-04T16:14:17Z</time>
      </trkpt>
      <trkpt lat="47.07497" lon="-2.03262">
        <ele>5.2</ele>
        <time>2020-06-04T16:14:18Z</time>
      </trkpt>
      <trkpt lat="47.07493" lon="-2.03267">
        <ele>5.1</ele>
        <time>2020-06-04T16:14:19Z</time>
      </trkpt>
      <trkpt lat="47.0749" lon="-2.03272">
        <ele>4.9</ele>
        <time>2020-06-04T16:14:20Z</time>
      </trkpt>
      <trkpt lat="47.07487" lon="-2.03277">
        <ele>4.8</ele>
        <time>2020-06-04T16:14:21Z</time>
      </trkpt>
      <trkpt lat="47.07484" lon="-2.03281">
        <ele>4.6</ele>
        <time>2020-06-04T16:14:22Z</time>
      </trkpt>
      <trkpt lat="47.0748" lon="-2.03285">
        <ele>4.4</ele>
        <time>2020-06-04T16:14:23Z</time>
      </trkpt>
      <trkpt lat="47.07476" lon="-2.03288">
        <ele>4.3</ele>
        <time>2020-06-04T16:14:24Z</time>
      </trkpt>
      <trkpt lat="47.07473" lon="-2.03292">
        <ele>4.1</ele>
        <time>2020-06-04T16:14:25Z</time>
      </trkpt>
      <trkpt lat="47.0747" lon="-2.03294">
        <ele>4</ele>
        <time>2020-06-04T16:14:26Z</time>
      </trkpt>
      <trkpt lat="47.07467" lon="-2.03298">
        <ele>3.8</ele>
        <time>2020-06-04T16:14:27Z</time>
      </trkpt>
      <trkpt lat="47.07464" lon="-2.03301">
        <ele>3.7</ele>
        <time>2020-06-04T16:14:28Z</time>
      </trkpt>
      <trkpt lat="47.07462" lon="-2.03305">
        <ele>3.6</ele>
        <time>2020-06-04T16:14:29Z</time>
      </trkpt>
      <trkpt lat="47.07459" lon="-2.03308">
        <ele>3.4</ele>
        <time>2020-06-04T16:14:30Z</time>
      </trkpt>
      <trkpt lat="47.07458" lon="-2.03309">
        <ele>3.4</ele>
        <time>2020-06-04T16:14:31Z</time>
      </trkpt>
      <trkpt lat="47.07457" lon="-2.03313">
        <ele>3.2</ele>
        <time>2020-06-04T16:14:32Z</time>
      </trkpt>
      <trkpt lat="47.07456" lon="-2.03314">
        <ele>3.2</ele>
        <time>2020-06-04T16:14:33Z</time>
      </trkpt>
      <trkpt lat="47.07453" lon="-2.03315">
        <ele>3.1</ele>
        <time>2020-06-04T16:14:34Z</time>
      </trkpt>
      <trkpt lat="47.07452" lon="-2.03315">
        <ele>3</ele>
        <time>2020-06-04T16:14:35Z</time>
      </trkpt>
      <trkpt lat="47.07451" lon="-2.03315">
        <ele>3</ele>
        <time>2020-06-04T16:14:36Z</time>
      </trkpt>
      <trkpt lat="47.07451" lon="-2.03314">
        <ele>3</ele>
        <time>2020-06-04T16:14:37Z</time>
      </trkpt>
      <trkpt lat="47.07451" lon="-2.03312">
        <ele>2.9</ele>
        <time>2020-06-04T16:14:38Z</time>
      </trkpt>
      <trkpt lat="47.07451" lon="-2.03311">
        <ele>2.9</ele>
        <time>2020-06-04T16:14:39Z</time>
      </trkpt>
      <trkpt lat="47.07452" lon="-2.03309">
        <ele>2.9</ele>
        <time>2020-06-04T16:14:40Z</time>
      </trkpt>
      <trkpt lat="47.07453" lon="-2.03307">
        <ele>2.8</ele>
        <time>2020-06-04T16:14:41Z</time>
      </trkpt>
      <trkpt lat="47.07456" lon="-2.03305">
        <ele>2.9</ele>
        <time>2020-06-04T16:14:42Z</time>
      </trkpt>
      <trkpt lat="47.07459" lon="-2.03302">
        <ele>3</ele>
        <time>2020-06-04T16:14:43Z</time>
      </trkpt>
      <trkpt lat="47.0746" lon="-2.03301">
        <ele>3.1</ele>
        <time>2020-06-04T16:14:44Z</time>
      </trkpt>
      <trkpt lat="47.07462" lon="-2.03298">
        <ele>3.2</ele>
        <time>2020-06-04T16:14:45Z</time>
      </trkpt>
      <trkpt lat="47.07466" lon="-2.03294">
        <ele>3.4</ele>
        <time>2020-06-04T16:14:46Z</time>
      </trkpt>
      <trkpt lat="47.07468" lon="-2.03291">
        <ele>3.5</ele>
        <time>2020-06-04T16:14:47Z</time>
      </trkpt>
      <trkpt lat="47.07471" lon="-2.03286">
        <ele>3.7</ele>
        <time>2020-06-04T16:14:48Z</time>
      </trkpt>
      <trkpt lat="47.07474" lon="-2.03283">
        <ele>3.9</ele>
        <time>2020-06-04T16:14:49Z</time>
      </trkpt>
      <trkpt lat="47.07476" lon="-2.03278">
        <ele>4</ele>
        <time>2020-06-04T16:14:50Z</time>
      </trkpt>
      <trkpt lat="47.07479" lon="-2.03274">
        <ele>4.2</ele>
        <time>2020-06-04T16:14:51Z</time>
      </trkpt>
      <trkpt lat="47.07482" lon="-2.0327">
        <ele>4.4</ele>
        <time>2020-06-04T16:14:52Z</time>
      </trkpt>
      <trkpt lat="47.07486" lon="-2.03266">
        <ele>4.5</ele>
        <time>2020-06-04T16:14:53Z</time>
      </trkpt>
      <trkpt lat="47.07489" lon="-2.03263">
        <ele>4.7</ele>
        <time>2020-06-04T16:14:54Z</time>
      </trkpt>
      <trkpt lat="47.07491" lon="-2.03259">
        <ele>4.8</ele>
        <time>2020-06-04T16:14:55Z</time>
      </trkpt>
      <trkpt lat="47.07494" lon="-2.03256">
        <ele>4.9</ele>
        <time>2020-06-04T16:14:56Z</time>
      </trkpt>
      <trkpt lat="47.07497" lon="-2.03252">
        <ele>5.1</ele>
        <time>2020-06-04T16:14:57Z</time>
      </trkpt>
      <trkpt lat="47.075" lon="-2.03247">
        <ele>5.2</ele>
        <time>2020-06-04T16:14:58Z</time>
      </trkpt>
      <trkpt lat="47.07504" lon="-2.03245">
        <ele>5.4</ele>
        <time>2020-06-04T16:14:59Z</time>
      </trkpt>
      <trkpt lat="47.07507" lon="-2.03241">
        <ele>5.5</ele>
        <time>2020-06-04T16:15:00Z</time>
      </trkpt>
      <trkpt lat="47.07511" lon="-2.03237">
        <ele>5.7</ele>
        <time>2020-06-04T16:15:01Z</time>
      </trkpt>
      <trkpt lat="47.07515" lon="-2.03234">
        <ele>5.8</ele>
        <time>2020-06-04T16:15:02Z</time>
      </trkpt>
      <trkpt lat="47.07518" lon="-2.03229">
        <ele>6</ele>
        <time>2020-06-04T16:15:03Z</time>
      </trkpt>
      <trkpt lat="47.07522" lon="-2.03224">
        <ele>6.1</ele>
        <time>2020-06-04T16:15:04Z</time>
      </trkpt>
      <trkpt lat="47.07526" lon="-2.0322">
        <ele>6.3</ele>
        <time>2020-06-04T16:15:05Z</time>
      </trkpt>
      <trkpt lat="47.07529" lon="-2.03215">
        <ele>6.5</ele>
        <time>2020-06-04T16:15:06Z</time>
      </trkpt>
      <trkpt lat="47.07533" lon="-2.03211">
        <ele>6.6</ele>
        <time>2020-06-04T16:15:07Z</time>
      </trkpt>
      <trkpt lat="47.07535" lon="-2.03206">
        <ele>6.7</ele>
        <time>2020-06-04T16:15:08Z</time>
      </trkpt>
      <trkpt lat="47.07538" lon="-2.03202">
        <ele>6.8</ele>
        <time>2020-06-04T16:15:09Z</time>
      </trkpt>
      <trkpt lat="47.0754" lon="-2.03199">
        <ele>6.9</ele>
        <time>2020-06-04T16:15:10Z</time>
      </trkpt>
      <trkpt lat="47.07543" lon="-2.03195">
        <ele>7</ele>
        <time>2020-06-04T16:15:11Z</time>
      </trkpt>
      <trkpt lat="47.07545" lon="-2.0319">
        <ele>7.1</ele>
        <time>2020-06-04T16:15:12Z</time>
      </trkpt>
      <trkpt lat="47.07547" lon="-2.03187">
        <ele>7.2</ele>
        <time>2020-06-04T16:15:13Z</time>
      </trkpt>
      <trkpt lat="47.07549" lon="-2.03183">
        <ele>7.3</ele>
        <time>2020-06-04T16:15:14Z</time>
      </trkpt>
      <trkpt lat="47.07551" lon="-2.03181">
        <ele>7.3</ele>
        <time>2020-06-04T16:15:15Z</time>
      </trkpt>
      <trkpt lat="47.07554" lon="-2.0318">
        <ele>7.4</ele>
        <time>2020-06-04T16:15:16Z</time>
      </trkpt>
      <trkpt lat="47.07558" lon="-2.0318">
        <ele>7.5</ele>
        <time>2020-06-04T16:15:17Z</time>
      </trkpt>
      <trkpt lat="47.07562" lon="-2.03181">
        <ele>7.4</ele>
        <time>2020-06-04T16:15:18Z</time>
      </trkpt>
      <trkpt lat="47.07563" lon="-2.03181">
        <ele>7.4</ele>
        <time>2020-06-04T16:15:19Z</time>
      </trkpt>
      <trkpt lat="47.07566" lon="-2.03183">
        <ele>7.4</ele>
        <time>2020-06-04T16:15:20Z</time>
      </trkpt>
      <trkpt lat="47.07567" lon="-2.03183">
        <ele>7.4</ele>
        <time>2020-06-04T16:15:21Z</time>
      </trkpt>
      <trkpt lat="47.07569" lon="-2.03184">
        <ele>7.4</ele>
        <time>2020-06-04T16:15:22Z</time>
      </trkpt>
      <trkpt lat="47.0757" lon="-2.03185">
        <ele>7.4</ele>
        <time>2020-06-04T16:15:23Z</time>
      </trkpt>
      <trkpt lat="47.07572" lon="-2.03187">
        <ele>7.3</ele>
        <time>2020-06-04T16:15:24Z</time>
      </trkpt>
      <trkpt lat="47.07573" lon="-2.03188">
        <ele>7.3</ele>
        <time>2020-06-04T16:15:25Z</time>
      </trkpt>
      <trkpt lat="47.07574" lon="-2.03188">
        <ele>7.3</ele>
        <time>2020-06-04T16:15:26Z</time>
      </trkpt>
      <trkpt lat="47.07575" lon="-2.03189">
        <ele>7.3</ele>
        <time>2020-06-04T16:15:27Z</time>
      </trkpt>
      <trkpt lat="47.07576" lon="-2.03189">
        <ele>7.3</ele>
        <time>2020-06-04T16:15:28Z</time>
      </trkpt>
      <trkpt lat="47.07576" lon="-2.0319">
        <ele>7.3</ele>
        <time>2020-06-04T16:15:29Z</time>
      </trkpt>
      <trkpt lat="47.07577" lon="-2.0319">
        <ele>7.3</ele>
        <time>2020-06-04T16:15:30Z</time>
      </trkpt>
      <trkpt lat="47.07577" lon="-2.03192">
        <ele>7.3</ele>
        <time>2020-06-04T16:15:31Z</time>
      </trkpt>
      <trkpt lat="47.07578" lon="-2.03193">
        <ele>7.3</ele>
        <time>2020-06-04T16:15:32Z</time>
      </trkpt>
      <trkpt lat="47.07578" lon="-2.03193">
        <ele>7.3</ele>
        <time>2020-06-04T16:15:33Z</time>
      </trkpt>
      <trkpt lat="47.07578" lon="-2.03195">
        <ele>7.3</ele>
        <time>2020-06-04T16:15:34Z</time>
      </trkpt>
      <trkpt lat="47.07578" lon="-2.03195">
        <ele>7.3</ele>
        <time>2020-06-04T16:15:35Z</time>
      </trkpt>
      <trkpt lat="47.07578" lon="-2.03195">
        <ele>7.3</ele>
        <time>2020-06-04T16:15:36Z</time>
      </trkpt>
      <trkpt lat="47.07578" lon="-2.03195">
        <ele>7.3</ele>
        <time>2020-06-04T16:15:37Z</time>
      </trkpt>
      <trkpt lat="47.07578" lon="-2.03195">
        <ele>7.3</ele>
        <time>2020-06-04T16:15:38Z</time>
      </trkpt>
      <trkpt lat="47.07578" lon="-2.03195">
        <ele>7.3</ele>
        <time>2020-06-04T16:15:39Z</time>
      </trkpt>
      <trkpt lat="47.07578" lon="-2.03195">
        <ele>7.3</ele>
        <time>2020-06-04T16:15:40Z</time>
      </trkpt>
      <trkpt lat="47.07578" lon="-2.03195">
        <ele>7.3</ele>
        <time>2020-06-04T16:15:41Z</time>
      </trkpt>
      <trkpt lat="47.07578" lon="-2.03196">
        <ele>7.3</ele>
        <time>2020-06-04T16:15:42Z</time>
      </trkpt>
      <trkpt lat="47.07578" lon="-2.03196">
        <ele>7.3</ele>
        <time>2020-06-04T16:15:43Z</time>
      </trkpt>
      <trkpt lat="47.07581" lon="-2.03209">
        <ele>7.2</ele>
        <time>2020-06-04T16:21:07Z</time>
      </trkpt>
      <trkpt lat="47.07583" lon="-2.03214">
        <ele>7.2</ele>
        <time>2020-06-04T16:21:08Z</time>
      </trkpt>
      <trkpt lat="47.07584" lon="-2.03219">
        <ele>7.2</ele>
        <time>2020-06-04T16:21:09Z</time>
      </trkpt>
      <trkpt lat="47.07587" lon="-2.03223">
        <ele>7.2</ele>
        <time>2020-06-04T16:21:10Z</time>
      </trkpt>
      <trkpt lat="47.07588" lon="-2.03227">
        <ele>7.2</ele>
        <time>2020-06-04T16:21:11Z</time>
      </trkpt>
      <trkpt lat="47.0759" lon="-2.03232">
        <ele>7.2</ele>
        <time>2020-06-04T16:21:12Z</time>
      </trkpt>
      <trkpt lat="47.07592" lon="-2.03236">
        <ele>7.1</ele>
        <time>2020-06-04T16:21:13Z</time>
      </trkpt>
      <trkpt lat="47.07593" lon="-2.03241">
        <ele>7.1</ele>
        <time>2020-06-04T16:21:14Z</time>
      </trkpt>
      <trkpt lat="47.07595" lon="-2.03247">
        <ele>7.1</ele>
        <time>2020-06-04T16:21:15Z</time>
      </trkpt>
      <trkpt lat="47.07597" lon="-2.03252">
        <ele>7</ele>
        <time>2020-06-04T16:21:16Z</time>
      </trkpt>
      <trkpt lat="47.07598" lon="-2.03258">
        <ele>7</ele>
        <time>2020-06-04T16:21:17Z</time>
      </trkpt>
      <trkpt lat="47.07601" lon="-2.03263">
        <ele>7</ele>
        <time>2020-06-04T16:21:18Z</time>
      </trkpt>
      <trkpt lat="47.07603" lon="-2.03268">
        <ele>6.9</ele>
        <time>2020-06-04T16:21:19Z</time>
      </trkpt>
      <trkpt lat="47.07605" lon="-2.03274">
        <ele>6.9</ele>
        <time>2020-06-04T16:21:20Z</time>
      </trkpt>
      <trkpt lat="47.07606" lon="-2.0328">
        <ele>6.8</ele>
        <time>2020-06-04T16:21:21Z</time>
      </trkpt>
      <trkpt lat="47.07608" lon="-2.03285">
        <ele>6.8</ele>
        <time>2020-06-04T16:21:22Z</time>
      </trkpt>
      <trkpt lat="47.07609" lon="-2.03291">
        <ele>6.7</ele>
        <time>2020-06-04T16:21:23Z</time>
      </trkpt>
      <trkpt lat="47.07611" lon="-2.03298">
        <ele>6.7</ele>
        <time>2020-06-04T16:21:24Z</time>
      </trkpt>
      <trkpt lat="47.07614" lon="-2.03304">
        <ele>6.6</ele>
        <time>2020-06-04T16:21:25Z</time>
      </trkpt>
      <trkpt lat="47.07617" lon="-2.03308">
        <ele>6.6</ele>
        <time>2020-06-04T16:21:26Z</time>
      </trkpt>
      <trkpt lat="47.07619" lon="-2.03313">
        <ele>6.5</ele>
        <time>2020-06-04T16:21:27Z</time>
      </trkpt>
      <trkpt lat="47.07621" lon="-2.03318">
        <ele>6.5</ele>
        <time>2020-06-04T16:21:28Z</time>
      </trkpt>
      <trkpt lat="47.07623" lon="-2.03323">
        <ele>6.5</ele>
        <time>2020-06-04T16:21:29Z</time>
      </trkpt>
      <trkpt lat="47.07625" lon="-2.03328">
        <ele>6.4</ele>
        <time>2020-06-04T16:21:30Z</time>
      </trkpt>
      <trkpt lat="47.07628" lon="-2.03333">
        <ele>6.4</ele>
        <time>2020-06-04T16:21:31Z</time>
      </trkpt>
      <trkpt lat="47.0763" lon="-2.03339">
        <ele>6.4</ele>
        <time>2020-06-04T16:21:32Z</time>
      </trkpt>
      <trkpt lat="47.07632" lon="-2.03346">
        <ele>6.4</ele>
        <time>2020-06-04T16:21:33Z</time>
      </trkpt>
      <trkpt lat="47.07635" lon="-2.03352">
        <ele>6.3</ele>
        <time>2020-06-04T16:21:34Z</time>
      </trkpt>
      <trkpt lat="47.07637" lon="-2.03358">
        <ele>6.3</ele>
        <time>2020-06-04T16:21:35Z</time>
      </trkpt>
      <trkpt lat="47.07639" lon="-2.03365">
        <ele>6.3</ele>
        <time>2020-06-04T16:21:36Z</time>
      </trkpt>
      <trkpt lat="47.07641" lon="-2.0337">
        <ele>6.2</ele>
        <time>2020-06-04T16:21:37Z</time>
      </trkpt>
      <trkpt lat="47.07643" lon="-2.03377">
        <ele>6.2</ele>
        <time>2020-06-04T16:21:38Z</time>
      </trkpt>
      <trkpt lat="47.07645" lon="-2.03384">
        <ele>6.2</ele>
        <time>2020-06-04T16:21:39Z</time>
      </trkpt>
      <trkpt lat="47.07647" lon="-2.03391">
        <ele>6.1</ele>
        <time>2020-06-04T16:21:40Z</time>
      </trkpt>
      <trkpt lat="47.0765" lon="-2.03397">
        <ele>6.1</ele>
        <time>2020-06-04T16:21:41Z</time>
      </trkpt>
      <trkpt lat="47.07652" lon="-2.03404">
        <ele>6.1</ele>
        <time>2020-06-04T16:21:42Z</time>
      </trkpt>
      <trkpt lat="47.07655" lon="-2.03411">
        <ele>6.1</ele>
        <time>2020-06-04T16:21:43Z</time>
      </trkpt>
      <trkpt lat="47.07658" lon="-2.03418">
        <ele>6.1</ele>
        <time>2020-06-04T16:21:44Z</time>
      </trkpt>
      <trkpt lat="47.0766" lon="-2.03424">
        <ele>6.1</ele>
        <time>2020-06-04T16:21:45Z</time>
      </trkpt>
      <trkpt lat="47.07663" lon="-2.03429">
        <ele>6.1</ele>
        <time>2020-06-04T16:21:46Z</time>
      </trkpt>
      <trkpt lat="47.07665" lon="-2.03434">
        <ele>6.1</ele>
        <time>2020-06-04T16:21:47Z</time>
      </trkpt>
      <trkpt lat="47.07668" lon="-2.03439">
        <ele>6</ele>
        <time>2020-06-04T16:21:48Z</time>
      </trkpt>
      <trkpt lat="47.07671" lon="-2.03445">
        <ele>6</ele>
        <time>2020-06-04T16:21:49Z</time>
      </trkpt>
      <trkpt lat="47.07673" lon="-2.0345">
        <ele>6</ele>
        <time>2020-06-04T16:21:50Z</time>
      </trkpt>
      <trkpt lat="47.07676" lon="-2.03455">
        <ele>5.9</ele>
        <time>2020-06-04T16:21:51Z</time>
      </trkpt>
      <trkpt lat="47.07679" lon="-2.03459">
        <ele>5.9</ele>
        <time>2020-06-04T16:21:52Z</time>
      </trkpt>
      <trkpt lat="47.07682" lon="-2.03463">
        <ele>5.9</ele>
        <time>2020-06-04T16:21:53Z</time>
      </trkpt>
      <trkpt lat="47.07686" lon="-2.03468">
        <ele>5.9</ele>
        <time>2020-06-04T16:21:54Z</time>
      </trkpt>
      <trkpt lat="47.07689" lon="-2.03472">
        <ele>5.8</ele>
        <time>2020-06-04T16:21:55Z</time>
      </trkpt>
      <trkpt lat="47.07693" lon="-2.03477">
        <ele>5.8</ele>
        <time>2020-06-04T16:21:56Z</time>
      </trkpt>
      <trkpt lat="47.07699" lon="-2.03478">
        <ele>5.8</ele>
        <time>2020-06-04T16:21:57Z</time>
      </trkpt>
      <trkpt lat="47.07703" lon="-2.03481">
        <ele>5.8</ele>
        <time>2020-06-04T16:21:58Z</time>
      </trkpt>
      <trkpt lat="47.07707" lon="-2.03483">
        <ele>5.7</ele>
        <time>2020-06-04T16:21:59Z</time>
      </trkpt>
      <trkpt lat="47.0771" lon="-2.03486">
        <ele>5.7</ele>
        <time>2020-06-04T16:22:00Z</time>
      </trkpt>
      <trkpt lat="47.07714" lon="-2.0349">
        <ele>5.7</ele>
        <time>2020-06-04T16:22:01Z</time>
      </trkpt>
      <trkpt lat="47.07717" lon="-2.03493">
        <ele>5.7</ele>
        <time>2020-06-04T16:22:02Z</time>
      </trkpt>
      <trkpt lat="47.0772" lon="-2.03496">
        <ele>5.7</ele>
        <time>2020-06-04T16:22:03Z</time>
      </trkpt>
      <trkpt lat="47.07723" lon="-2.03499">
        <ele>5.6</ele>
        <time>2020-06-04T16:22:04Z</time>
      </trkpt>
      <trkpt lat="47.07727" lon="-2.03505">
        <ele>5.6</ele>
        <time>2020-06-04T16:22:05Z</time>
      </trkpt>
      <trkpt lat="47.07731" lon="-2.03509">
        <ele>5.6</ele>
        <time>2020-06-04T16:22:06Z</time>
      </trkpt>
      <trkpt lat="47.07736" lon="-2.03514">
        <ele>5.6</ele>
        <time>2020-06-04T16:22:07Z</time>
      </trkpt>
      <trkpt lat="47.07739" lon="-2.03518">
        <ele>5.6</ele>
        <time>2020-06-04T16:22:08Z</time>
      </trkpt>
      <trkpt lat="47.07742" lon="-2.03522">
        <ele>5.7</ele>
        <time>2020-06-04T16:22:09Z</time>
      </trkpt>
      <trkpt lat="47.07746" lon="-2.03524">
        <ele>5.7</ele>
        <time>2020-06-04T16:22:10Z</time>
      </trkpt>
      <trkpt lat="47.07749" lon="-2.03528">
        <ele>5.8</ele>
        <time>2020-06-04T16:22:11Z</time>
      </trkpt>
      <trkpt lat="47.07753" lon="-2.03532">
        <ele>5.8</ele>
        <time>2020-06-04T16:22:12Z</time>
      </trkpt>
      <trkpt lat="47.07756" lon="-2.03535">
        <ele>5.9</ele>
        <time>2020-06-04T16:22:13Z</time>
      </trkpt>
      <trkpt lat="47.07758" lon="-2.03537">
        <ele>5.9</ele>
        <time>2020-06-04T16:22:14Z</time>
      </trkpt>
      <trkpt lat="47.07761" lon="-2.03541">
        <ele>5.9</ele>
        <time>2020-06-04T16:22:15Z</time>
      </trkpt>
      <trkpt lat="47.07765" lon="-2.03545">
        <ele>6</ele>
        <time>2020-06-04T16:22:16Z</time>
      </trkpt>
      <trkpt lat="47.07768" lon="-2.03549">
        <ele>6</ele>
        <time>2020-06-04T16:22:17Z</time>
      </trkpt>
      <trkpt lat="47.07772" lon="-2.03554">
        <ele>6.1</ele>
        <time>2020-06-04T16:22:18Z</time>
      </trkpt>
      <trkpt lat="47.07776" lon="-2.03557">
        <ele>6.2</ele>
        <time>2020-06-04T16:22:19Z</time>
      </trkpt>
      <trkpt lat="47.0778" lon="-2.0356">
        <ele>6.2</ele>
        <time>2020-06-04T16:22:20Z</time>
      </trkpt>
      <trkpt lat="47.07783" lon="-2.03563">
        <ele>6.2</ele>
        <time>2020-06-04T16:22:21Z</time>
      </trkpt>
      <trkpt lat="47.07787" lon="-2.03568">
        <ele>6.2</ele>
        <time>2020-06-04T16:22:22Z</time>
      </trkpt>
      <trkpt lat="47.07791" lon="-2.03571">
        <ele>6.2</ele>
        <time>2020-06-04T16:22:23Z</time>
      </trkpt>
      <trkpt lat="47.07795" lon="-2.03574">
        <ele>6.2</ele>
        <time>2020-06-04T16:22:24Z</time>
      </trkpt>
      <trkpt lat="47.07798" lon="-2.03576">
        <ele>6.1</ele>
        <time>2020-06-04T16:22:25Z</time>
      </trkpt>
      <trkpt lat="47.07801" lon="-2.03578">
        <ele>6.1</ele>
        <time>2020-06-04T16:22:26Z</time>
      </trkpt>
      <trkpt lat="47.07804" lon="-2.03579">
        <ele>6.1</ele>
        <time>2020-06-04T16:22:27Z</time>
      </trkpt>
      <trkpt lat="47.07806" lon="-2.03581">
        <ele>6.1</ele>
        <time>2020-06-04T16:22:28Z</time>
      </trkpt>
      <trkpt lat="47.07807" lon="-2.03587">
        <ele>6.1</ele>
        <time>2020-06-04T16:22:29Z</time>
      </trkpt>
      <trkpt lat="47.07806" lon="-2.03589">
        <ele>6.1</ele>
        <time>2020-06-04T16:22:30Z</time>
      </trkpt>
      <trkpt lat="47.07804" lon="-2.03595">
        <ele>6</ele>
        <time>2020-06-04T16:22:31Z</time>
      </trkpt>
      <trkpt lat="47.07804" lon="-2.03596">
        <ele>6</ele>
        <time>2020-06-04T16:22:32Z</time>
      </trkpt>
      <trkpt lat="47.07802" lon="-2.036">
        <ele>6</ele>
        <time>2020-06-04T16:22:33Z</time>
      </trkpt>
      <trkpt lat="47.078" lon="-2.03604">
        <ele>5.9</ele>
        <time>2020-06-04T16:22:34Z</time>
      </trkpt>
      <trkpt lat="47.07798" lon="-2.03609">
        <ele>5.8</ele>
        <time>2020-06-04T16:22:35Z</time>
      </trkpt>
      <trkpt lat="47.07796" lon="-2.03615">
        <ele>5.8</ele>
        <time>2020-06-04T16:22:36Z</time>
      </trkpt>
      <trkpt lat="47.07793" lon="-2.0362">
        <ele>5.7</ele>
        <time>2020-06-04T16:22:37Z</time>
      </trkpt>
      <trkpt lat="47.0779" lon="-2.03624">
        <ele>5.6</ele>
        <time>2020-06-04T16:22:38Z</time>
      </trkpt>
      <trkpt lat="47.07788" lon="-2.03628">
        <ele>5.5</ele>
        <time>2020-06-04T16:22:39Z</time>
      </trkpt>
      <trkpt lat="47.07785" lon="-2.03632">
        <ele>5.5</ele>
        <time>2020-06-04T16:22:40Z</time>
      </trkpt>
      <trkpt lat="47.07782" lon="-2.03637">
        <ele>5.4</ele>
        <time>2020-06-04T16:22:41Z</time>
      </trkpt>
      <trkpt lat="47.07779" lon="-2.03642">
        <ele>5.3</ele>
        <time>2020-06-04T16:22:42Z</time>
      </trkpt>
      <trkpt lat="47.07776" lon="-2.03647">
        <ele>5.2</ele>
        <time>2020-06-04T16:22:43Z</time>
      </trkpt>
      <trkpt lat="47.07774" lon="-2.03651">
        <ele>5.1</ele>
        <time>2020-06-04T16:22:44Z</time>
      </trkpt>
      <trkpt lat="47.07772" lon="-2.03657">
        <ele>5</ele>
        <time>2020-06-04T16:22:45Z</time>
      </trkpt>
      <trkpt lat="47.07769" lon="-2.03661">
        <ele>4.9</ele>
        <time>2020-06-04T16:22:46Z</time>
      </trkpt>
      <trkpt lat="47.07767" lon="-2.03666">
        <ele>4.8</ele>
        <time>2020-06-04T16:22:47Z</time>
      </trkpt>
      <trkpt lat="47.07765" lon="-2.03671">
        <ele>4.7</ele>
        <time>2020-06-04T16:22:48Z</time>
      </trkpt>
      <trkpt lat="47.07765" lon="-2.03673">
        <ele>4.7</ele>
        <time>2020-06-04T16:22:49Z</time>
      </trkpt>
      <trkpt lat="47.07766" lon="-2.03675">
        <ele>4.7</ele>
        <time>2020-06-04T16:22:50Z</time>
      </trkpt>
      <trkpt lat="47.0777" lon="-2.03676">
        <ele>4.7</ele>
        <time>2020-06-04T16:22:51Z</time>
      </trkpt>
      <trkpt lat="47.07772" lon="-2.03676">
        <ele>4.7</ele>
        <time>2020-06-04T16:22:52Z</time>
      </trkpt>
      <trkpt lat="47.07773" lon="-2.0368">
        <ele>4.7</ele>
        <time>2020-06-04T16:22:53Z</time>
      </trkpt>
      <trkpt lat="47.07777" lon="-2.03684">
        <ele>4.8</ele>
        <time>2020-06-04T16:22:54Z</time>
      </trkpt>
      <trkpt lat="47.07778" lon="-2.03685">
        <ele>4.8</ele>
        <time>2020-06-04T16:22:55Z</time>
      </trkpt>
      <trkpt lat="47.07781" lon="-2.03688">
        <ele>4.8</ele>
        <time>2020-06-04T16:22:56Z</time>
      </trkpt>
      <trkpt lat="47.07784" lon="-2.03692">
        <ele>4.8</ele>
        <time>2020-06-04T16:22:57Z</time>
      </trkpt>
      <trkpt lat="47.07787" lon="-2.03695">
        <ele>4.8</ele>
        <time>2020-06-04T16:22:58Z</time>
      </trkpt>
      <trkpt lat="47.0779" lon="-2.03698">
        <ele>4.8</ele>
        <time>2020-06-04T16:22:59Z</time>
      </trkpt>
      <trkpt lat="47.07794" lon="-2.03702">
        <ele>4.8</ele>
        <time>2020-06-04T16:23:00Z</time>
      </trkpt>
      <trkpt lat="47.07797" lon="-2.03705">
        <ele>4.8</ele>
        <time>2020-06-04T16:23:01Z</time>
      </trkpt>
      <trkpt lat="47.07801" lon="-2.03709">
        <ele>4.8</ele>
        <time>2020-06-04T16:23:02Z</time>
      </trkpt>
      <trkpt lat="47.07805" lon="-2.03711">
        <ele>4.8</ele>
        <time>2020-06-04T16:23:03Z</time>
      </trkpt>
      <trkpt lat="47.07808" lon="-2.03715">
        <ele>4.9</ele>
        <time>2020-06-04T16:23:04Z</time>
      </trkpt>
      <trkpt lat="47.07811" lon="-2.03718">
        <ele>4.9</ele>
        <time>2020-06-04T16:23:05Z</time>
      </trkpt>
      <trkpt lat="47.07814" lon="-2.03722">
        <ele>5</ele>
        <time>2020-06-04T16:23:06Z</time>
      </trkpt>
      <trkpt lat="47.07818" lon="-2.03726">
        <ele>5</ele>
        <time>2020-06-04T16:23:07Z</time>
      </trkpt>
      <trkpt lat="47.07821" lon="-2.0373">
        <ele>5.1</ele>
        <time>2020-06-04T16:23:08Z</time>
      </trkpt>
      <trkpt lat="47.07824" lon="-2.03734">
        <ele>5.1</ele>
        <time>2020-06-04T16:23:09Z</time>
      </trkpt>
      <trkpt lat="47.07827" lon="-2.03738">
        <ele>5.2</ele>
        <time>2020-06-04T16:23:10Z</time>
      </trkpt>
      <trkpt lat="47.07831" lon="-2.03742">
        <ele>5.2</ele>
        <time>2020-06-04T16:23:11Z</time>
      </trkpt>
      <trkpt lat="47.07835" lon="-2.03745">
        <ele>5.3</ele>
        <time>2020-06-04T16:23:12Z</time>
      </trkpt>
      <trkpt lat="47.07839" lon="-2.03748">
        <ele>5.3</ele>
        <time>2020-06-04T16:23:13Z</time>
      </trkpt>
      <trkpt lat="47.07843" lon="-2.03752">
        <ele>5.4</ele>
        <time>2020-06-04T16:23:14Z</time>
      </trkpt>
      <trkpt lat="47.07847" lon="-2.03755">
        <ele>5.4</ele>
        <time>2020-06-04T16:23:15Z</time>
      </trkpt>
      <trkpt lat="47.07851" lon="-2.03759">
        <ele>5.5</ele>
        <time>2020-06-04T16:23:16Z</time>
      </trkpt>
      <trkpt lat="47.07854" lon="-2.03762">
        <ele>5.5</ele>
        <time>2020-06-04T16:23:17Z</time>
      </trkpt>
      <trkpt lat="47.07857" lon="-2.03766">
        <ele>5.5</ele>
        <time>2020-06-04T16:23:18Z</time>
      </trkpt>
      <trkpt lat="47.0786" lon="-2.0377">
        <ele>5.6</ele>
        <time>2020-06-04T16:23:19Z</time>
      </trkpt>
      <trkpt lat="47.07863" lon="-2.03775">
        <ele>5.6</ele>
        <time>2020-06-04T16:23:20Z</time>
      </trkpt>
      <trkpt lat="47.07866" lon="-2.03781">
        <ele>5.7</ele>
        <time>2020-06-04T16:23:21Z</time>
      </trkpt>
      <trkpt lat="47.07868" lon="-2.03786">
        <ele>5.7</ele>
        <time>2020-06-04T16:23:22Z</time>
      </trkpt>
      <trkpt lat="47.0787" lon="-2.03792">
        <ele>5.7</ele>
        <time>2020-06-04T16:23:23Z</time>
      </trkpt>
      <trkpt lat="47.07872" lon="-2.03797">
        <ele>5.7</ele>
        <time>2020-06-04T16:23:24Z</time>
      </trkpt>
      <trkpt lat="47.07874" lon="-2.03802">
        <ele>5.7</ele>
        <time>2020-06-04T16:23:25Z</time>
      </trkpt>
      <trkpt lat="47.07875" lon="-2.03807">
        <ele>5.7</ele>
        <time>2020-06-04T16:23:26Z</time>
      </trkpt>
      <trkpt lat="47.07877" lon="-2.03812">
        <ele>5.7</ele>
        <time>2020-06-04T16:23:27Z</time>
      </trkpt>
      <trkpt lat="47.07879" lon="-2.03816">
        <ele>5.7</ele>
        <time>2020-06-04T16:23:28Z</time>
      </trkpt>
      <trkpt lat="47.07882" lon="-2.0382">
        <ele>5.7</ele>
        <time>2020-06-04T16:23:29Z</time>
      </trkpt>
      <trkpt lat="47.07883" lon="-2.03822">
        <ele>5.7</ele>
        <time>2020-06-04T16:23:30Z</time>
      </trkpt>
      <trkpt lat="47.07885" lon="-2.03825">
        <ele>5.7</ele>
        <time>2020-06-04T16:23:31Z</time>
      </trkpt>
      <trkpt lat="47.07887" lon="-2.03828">
        <ele>5.7</ele>
        <time>2020-06-04T16:23:32Z</time>
      </trkpt>
      <trkpt lat="47.07887" lon="-2.0383">
        <ele>5.7</ele>
        <time>2020-06-04T16:23:33Z</time>
      </trkpt>
      <trkpt lat="47.07889" lon="-2.03834">
        <ele>5.6</ele>
        <time>2020-06-04T16:23:34Z</time>
      </trkpt>
      <trkpt lat="47.0789" lon="-2.03836">
        <ele>5.6</ele>
        <time>2020-06-04T16:23:35Z</time>
      </trkpt>
      <trkpt lat="47.07891" lon="-2.0384">
        <ele>5.6</ele>
        <time>2020-06-04T16:23:36Z</time>
      </trkpt>
      <trkpt lat="47.07894" lon="-2.03846">
        <ele>5.6</ele>
        <time>2020-06-04T16:23:37Z</time>
      </trkpt>
      <trkpt lat="47.07896" lon="-2.03852">
        <ele>5.6</ele>
        <time>2020-06-04T16:23:38Z</time>
      </trkpt>
      <trkpt lat="47.07898" lon="-2.03857">
        <ele>5.6</ele>
        <time>2020-06-04T16:23:39Z</time>
      </trkpt>
      <trkpt lat="47.079" lon="-2.03862">
        <ele>5.6</ele>
        <time>2020-06-04T16:23:40Z</time>
      </trkpt>
      <trkpt lat="47.07902" lon="-2.03866">
        <ele>5.6</ele>
        <time>2020-06-04T16:23:41Z</time>
      </trkpt>
      <trkpt lat="47.07904" lon="-2.0387">
        <ele>5.5</ele>
        <time>2020-06-04T16:23:42Z</time>
      </trkpt>
      <trkpt lat="47.07906" lon="-2.03875">
        <ele>5.5</ele>
        <time>2020-06-04T16:23:43Z</time>
      </trkpt>
      <trkpt lat="47.07908" lon="-2.03879">
        <ele>5.5</ele>
        <time>2020-06-04T16:23:44Z</time>
      </trkpt>
      <trkpt lat="47.0791" lon="-2.03886">
        <ele>5.5</ele>
        <time>2020-06-04T16:23:45Z</time>
      </trkpt>
      <trkpt lat="47.07911" lon="-2.03892">
        <ele>5.4</ele>
        <time>2020-06-04T16:23:46Z</time>
      </trkpt>
      <trkpt lat="47.07912" lon="-2.03898">
        <ele>5.4</ele>
        <time>2020-06-04T16:23:47Z</time>
      </trkpt>
      <trkpt lat="47.07912" lon="-2.03904">
        <ele>5.4</ele>
        <time>2020-06-04T16:23:48Z</time>
      </trkpt>
      <trkpt lat="47.07913" lon="-2.0391">
        <ele>5.4</ele>
        <time>2020-06-04T16:23:49Z</time>
      </trkpt>
      <trkpt lat="47.07914" lon="-2.03915">
        <ele>5.4</ele>
        <time>2020-06-04T16:23:50Z</time>
      </trkpt>
      <trkpt lat="47.07916" lon="-2.03919">
        <ele>5.3</ele>
        <time>2020-06-04T16:23:51Z</time>
      </trkpt>
      <trkpt lat="47.07918" lon="-2.03925">
        <ele>5.3</ele>
        <time>2020-06-04T16:23:52Z</time>
      </trkpt>
      <trkpt lat="47.0792" lon="-2.03929">
        <ele>5.3</ele>
        <time>2020-06-04T16:23:53Z</time>
      </trkpt>
      <trkpt lat="47.07922" lon="-2.03933">
        <ele>5.2</ele>
        <time>2020-06-04T16:23:54Z</time>
      </trkpt>
      <trkpt lat="47.07924" lon="-2.03936">
        <ele>5.1</ele>
        <time>2020-06-04T16:23:55Z</time>
      </trkpt>
      <trkpt lat="47.07926" lon="-2.0394">
        <ele>5.1</ele>
        <time>2020-06-04T16:23:56Z</time>
      </trkpt>
      <trkpt lat="47.07929" lon="-2.03943">
        <ele>5</ele>
        <time>2020-06-04T16:23:57Z</time>
      </trkpt>
      <trkpt lat="47.07932" lon="-2.03946">
        <ele>4.9</ele>
        <time>2020-06-04T16:23:58Z</time>
      </trkpt>
      <trkpt lat="47.07935" lon="-2.03947">
        <ele>4.8</ele>
        <time>2020-06-04T16:23:59Z</time>
      </trkpt>
      <trkpt lat="47.07936" lon="-2.03948">
        <ele>4.8</ele>
        <time>2020-06-04T16:24:00Z</time>
      </trkpt>
      <trkpt lat="47.07937" lon="-2.03949">
        <ele>4.8</ele>
        <time>2020-06-04T16:24:01Z</time>
      </trkpt>
      <trkpt lat="47.07937" lon="-2.03949">
        <ele>4.8</ele>
        <time>2020-06-04T16:24:02Z</time>
      </trkpt>
      <trkpt lat="47.07936" lon="-2.03949">
        <ele>4.7</ele>
        <time>2020-06-04T16:24:03Z</time>
      </trkpt>
      <trkpt lat="47.07936" lon="-2.03948">
        <ele>4.7</ele>
        <time>2020-06-04T16:24:04Z</time>
      </trkpt>
      <trkpt lat="47.07934" lon="-2.03947">
        <ele>4.7</ele>
        <time>2020-06-04T16:24:05Z</time>
      </trkpt>
      <trkpt lat="47.07934" lon="-2.03945">
        <ele>4.6</ele>
        <time>2020-06-04T16:24:06Z</time>
      </trkpt>
      <trkpt lat="47.07935" lon="-2.03944">
        <ele>4.6</ele>
        <time>2020-06-04T16:24:07Z</time>
      </trkpt>
      <trkpt lat="47.07935" lon="-2.03943">
        <ele>4.6</ele>
        <time>2020-06-04T16:24:08Z</time>
      </trkpt>
      <trkpt lat="47.07937" lon="-2.03943">
        <ele>4.5</ele>
        <time>2020-06-04T16:24:09Z</time>
      </trkpt>
      <trkpt lat="47.07938" lon="-2.03944">
        <ele>4.5</ele>
        <time>2020-06-04T16:24:10Z</time>
      </trkpt>
      <trkpt lat="47.07939" lon="-2.03945">
        <ele>4.5</ele>
        <time>2020-06-04T16:24:11Z</time>
      </trkpt>
      <trkpt lat="47.07942" lon="-2.03947">
        <ele>4.4</ele>
        <time>2020-06-04T16:24:12Z</time>
      </trkpt>
      <trkpt lat="47.07943" lon="-2.03948">
        <ele>4.4</ele>
        <time>2020-06-04T16:24:13Z</time>
      </trkpt>
      <trkpt lat="47.07946" lon="-2.0395">
        <ele>5.2</ele>
        <time>2020-06-04T16:24:14Z</time>
      </trkpt>
      <trkpt lat="47.07947" lon="-2.03951">
        <ele>5.2</ele>
        <time>2020-06-04T16:24:15Z</time>
      </trkpt>
      <trkpt lat="47.0795" lon="-2.03952">
        <ele>5.3</ele>
        <time>2020-06-04T16:24:16Z</time>
      </trkpt>
      <trkpt lat="47.0795" lon="-2.03953">
        <ele>5.3</ele>
        <time>2020-06-04T16:24:17Z</time>
      </trkpt>
      <trkpt lat="47.0795" lon="-2.03952">
        <ele>5.3</ele>
        <time>2020-06-04T16:24:18Z</time>
      </trkpt>
      <trkpt lat="47.07949" lon="-2.03952">
        <ele>5.3</ele>
        <time>2020-06-04T16:24:19Z</time>
      </trkpt>
      <trkpt lat="47.0795" lon="-2.03952">
        <ele>5.3</ele>
        <time>2020-06-04T16:24:20Z</time>
      </trkpt>
      <trkpt lat="47.0795" lon="-2.03952">
        <ele>5.3</ele>
        <time>2020-06-04T16:24:21Z</time>
      </trkpt>
      <trkpt lat="47.0795" lon="-2.03952">
        <ele>5.3</ele>
        <time>2020-06-04T16:24:22Z</time>
      </trkpt>
      <trkpt lat="47.0795" lon="-2.03952">
        <ele>5.3</ele>
        <time>2020-06-04T16:24:23Z</time>
      </trkpt>
      <trkpt lat="47.0795" lon="-2.03952">
        <ele>5.3</ele>
        <time>2020-06-04T16:24:24Z</time>
      </trkpt>
      <trkpt lat="47.07952" lon="-2.0395">
        <ele>5.4</ele>
        <time>2020-06-04T16:24:25Z</time>
      </trkpt>
      <trkpt lat="47.07952" lon="-2.03949">
        <ele>5.4</ele>
        <time>2020-06-04T16:24:26Z</time>
      </trkpt>
      <trkpt lat="47.07953" lon="-2.03948">
        <ele>5.4</ele>
        <time>2020-06-04T16:24:27Z</time>
      </trkpt>
      <trkpt lat="47.07954" lon="-2.03944">
        <ele>5.5</ele>
        <time>2020-06-04T16:24:28Z</time>
      </trkpt>
      <trkpt lat="47.07955" lon="-2.0394">
        <ele>5.5</ele>
        <time>2020-06-04T16:24:29Z</time>
      </trkpt>
      <trkpt lat="47.07955" lon="-2.03938">
        <ele>5.6</ele>
        <time>2020-06-04T16:24:30Z</time>
      </trkpt>
      <trkpt lat="47.07956" lon="-2.03933">
        <ele>5.6</ele>
        <time>2020-06-04T16:24:31Z</time>
      </trkpt>
      <trkpt lat="47.07956" lon="-2.03931">
        <ele>5.7</ele>
        <time>2020-06-04T16:24:32Z</time>
      </trkpt>
      <trkpt lat="47.07957" lon="-2.03926">
        <ele>5.7</ele>
        <time>2020-06-04T16:24:33Z</time>
      </trkpt>
      <trkpt lat="47.07957" lon="-2.03925">
        <ele>5.7</ele>
        <time>2020-06-04T16:24:34Z</time>
      </trkpt>
      <trkpt lat="47.07958" lon="-2.0392">
        <ele>5.8</ele>
        <time>2020-06-04T16:24:35Z</time>
      </trkpt>
      <trkpt lat="47.07959" lon="-2.03918">
        <ele>5.8</ele>
        <time>2020-06-04T16:24:36Z</time>
      </trkpt>
      <trkpt lat="47.07961" lon="-2.03913">
        <ele>5.9</ele>
        <time>2020-06-04T16:24:37Z</time>
      </trkpt>
      <trkpt lat="47.07961" lon="-2.03911">
        <ele>6</ele>
        <time>2020-06-04T16:24:38Z</time>
      </trkpt>
      <trkpt lat="47.07964" lon="-2.03908">
        <ele>6.1</ele>
        <time>2020-06-04T16:24:39Z</time>
      </trkpt>
      <trkpt lat="47.07964" lon="-2.03906">
        <ele>6.1</ele>
        <time>2020-06-04T16:24:40Z</time>
      </trkpt>
      <trkpt lat="47.07966" lon="-2.03902">
        <ele>6.3</ele>
        <time>2020-06-04T16:24:41Z</time>
      </trkpt>
      <trkpt lat="47.07967" lon="-2.039">
        <ele>6.3</ele>
        <time>2020-06-04T16:24:42Z</time>
      </trkpt>
      <trkpt lat="47.07969" lon="-2.03896">
        <ele>6.4</ele>
        <time>2020-06-04T16:24:43Z</time>
      </trkpt>
      <trkpt lat="47.0797" lon="-2.03892">
        <ele>6.5</ele>
        <time>2020-06-04T16:24:44Z</time>
      </trkpt>
      <trkpt lat="47.07971" lon="-2.03887">
        <ele>6.6</ele>
        <time>2020-06-04T16:24:45Z</time>
      </trkpt>
      <trkpt lat="47.07972" lon="-2.03886">
        <ele>6.7</ele>
        <time>2020-06-04T16:24:46Z</time>
      </trkpt>
      <trkpt lat="47.07973" lon="-2.03881">
        <ele>6.8</ele>
        <time>2020-06-04T16:24:47Z</time>
      </trkpt>
      <trkpt lat="47.07973" lon="-2.0388">
        <ele>6.8</ele>
        <time>2020-06-04T16:24:48Z</time>
      </trkpt>
      <trkpt lat="47.07975" lon="-2.03876">
        <ele>6.9</ele>
        <time>2020-06-04T16:24:49Z</time>
      </trkpt>
      <trkpt lat="47.07976" lon="-2.03872">
        <ele>7</ele>
        <time>2020-06-04T16:24:50Z</time>
      </trkpt>
      <trkpt lat="47.07977" lon="-2.03868">
        <ele>7</ele>
        <time>2020-06-04T16:24:51Z</time>
      </trkpt>
      <trkpt lat="47.07979" lon="-2.03864">
        <ele>7.1</ele>
        <time>2020-06-04T16:24:52Z</time>
      </trkpt>
      <trkpt lat="47.0798" lon="-2.0386">
        <ele>7.2</ele>
        <time>2020-06-04T16:24:53Z</time>
      </trkpt>
      <trkpt lat="47.07982" lon="-2.03855">
        <ele>7.3</ele>
        <time>2020-06-04T16:24:54Z</time>
      </trkpt>
      <trkpt lat="47.07982" lon="-2.03853">
        <ele>7.3</ele>
        <time>2020-06-04T16:24:55Z</time>
      </trkpt>
      <trkpt lat="47.07984" lon="-2.03849">
        <ele>7.4</ele>
        <time>2020-06-04T16:24:56Z</time>
      </trkpt>
      <trkpt lat="47.07984" lon="-2.03847">
        <ele>7.4</ele>
        <time>2020-06-04T16:24:57Z</time>
      </trkpt>
      <trkpt lat="47.07986" lon="-2.03842">
        <ele>7.5</ele>
        <time>2020-06-04T16:24:58Z</time>
      </trkpt>
      <trkpt lat="47.07987" lon="-2.03839">
        <ele>7.5</ele>
        <time>2020-06-04T16:24:59Z</time>
      </trkpt>
      <trkpt lat="47.07988" lon="-2.03834">
        <ele>7.6</ele>
        <time>2020-06-04T16:25:00Z</time>
      </trkpt>
      <trkpt lat="47.07988" lon="-2.03827">
        <ele>7.7</ele>
        <time>2020-06-04T16:25:01Z</time>
      </trkpt>
      <trkpt lat="47.0799" lon="-2.03823">
        <ele>7.8</ele>
        <time>2020-06-04T16:25:02Z</time>
      </trkpt>
      <trkpt lat="47.07993" lon="-2.03819">
        <ele>7.9</ele>
        <time>2020-06-04T16:25:03Z</time>
      </trkpt>
      <trkpt lat="47.07995" lon="-2.03813">
        <ele>8</ele>
        <time>2020-06-04T16:25:04Z</time>
      </trkpt>
      <trkpt lat="47.07996" lon="-2.03809">
        <ele>8</ele>
        <time>2020-06-04T16:25:05Z</time>
      </trkpt>
      <trkpt lat="47.07998" lon="-2.03804">
        <ele>8.1</ele>
        <time>2020-06-04T16:25:06Z</time>
      </trkpt>
      <trkpt lat="47.08" lon="-2.038">
        <ele>8.2</ele>
        <time>2020-06-04T16:25:07Z</time>
      </trkpt>
      <trkpt lat="47.08001" lon="-2.03795">
        <ele>8.3</ele>
        <time>2020-06-04T16:25:08Z</time>
      </trkpt>
      <trkpt lat="47.08003" lon="-2.03791">
        <ele>8.5</ele>
        <time>2020-06-04T16:25:09Z</time>
      </trkpt>
      <trkpt lat="47.08005" lon="-2.03786">
        <ele>8.6</ele>
        <time>2020-06-04T16:25:10Z</time>
      </trkpt>
      <trkpt lat="47.08007" lon="-2.03782">
        <ele>8.7</ele>
        <time>2020-06-04T16:25:11Z</time>
      </trkpt>
      <trkpt lat="47.0801" lon="-2.03778">
        <ele>8.8</ele>
        <time>2020-06-04T16:25:12Z</time>
      </trkpt>
      <trkpt lat="47.08011" lon="-2.03773">
        <ele>9</ele>
        <time>2020-06-04T16:25:13Z</time>
      </trkpt>
      <trkpt lat="47.08012" lon="-2.03769">
        <ele>9.1</ele>
        <time>2020-06-04T16:25:14Z</time>
      </trkpt>
      <trkpt lat="47.08015" lon="-2.03766">
        <ele>9.2</ele>
        <time>2020-06-04T16:25:15Z</time>
      </trkpt>
      <trkpt lat="47.08017" lon="-2.03762">
        <ele>9.3</ele>
        <time>2020-06-04T16:25:16Z</time>
      </trkpt>
      <trkpt lat="47.08019" lon="-2.03757">
        <ele>9.4</ele>
        <time>2020-06-04T16:25:17Z</time>
      </trkpt>
      <trkpt lat="47.08022" lon="-2.03753">
        <ele>9.5</ele>
        <time>2020-06-04T16:25:18Z</time>
      </trkpt>
      <trkpt lat="47.08022" lon="-2.03751">
        <ele>9.5</ele>
        <time>2020-06-04T16:25:19Z</time>
      </trkpt>
      <trkpt lat="47.08025" lon="-2.03746">
        <ele>9.6</ele>
        <time>2020-06-04T16:25:20Z</time>
      </trkpt>
      <trkpt lat="47.08026" lon="-2.03744">
        <ele>9.7</ele>
        <time>2020-06-04T16:25:21Z</time>
      </trkpt>
      <trkpt lat="47.08029" lon="-2.03742">
        <ele>9.7</ele>
        <time>2020-06-04T16:25:22Z</time>
      </trkpt>
      <trkpt lat="47.0803" lon="-2.03741">
        <ele>9.8</ele>
        <time>2020-06-04T16:25:23Z</time>
      </trkpt>
      <trkpt lat="47.08033" lon="-2.03743">
        <ele>9.9</ele>
        <time>2020-06-04T16:25:24Z</time>
      </trkpt>
      <trkpt lat="47.08034" lon="-2.03743">
        <ele>9.9</ele>
        <time>2020-06-04T16:25:25Z</time>
      </trkpt>
      <trkpt lat="47.08036" lon="-2.03745">
        <ele>9.9</ele>
        <time>2020-06-04T16:25:26Z</time>
      </trkpt>
      <trkpt lat="47.08037" lon="-2.03746">
        <ele>9.9</ele>
        <time>2020-06-04T16:25:27Z</time>
      </trkpt>
      <trkpt lat="47.0804" lon="-2.0375">
        <ele>9.9</ele>
        <time>2020-06-04T16:25:28Z</time>
      </trkpt>
      <trkpt lat="47.08042" lon="-2.03752">
        <ele>9.9</ele>
        <time>2020-06-04T16:25:29Z</time>
      </trkpt>
      <trkpt lat="47.08044" lon="-2.03755">
        <ele>9.9</ele>
        <time>2020-06-04T16:25:30Z</time>
      </trkpt>
      <trkpt lat="47.08046" lon="-2.03759">
        <ele>9.9</ele>
        <time>2020-06-04T16:25:31Z</time>
      </trkpt>
      <trkpt lat="47.08048" lon="-2.03761">
        <ele>9.9</ele>
        <time>2020-06-04T16:25:32Z</time>
      </trkpt>
      <trkpt lat="47.08051" lon="-2.03764">
        <ele>9.9</ele>
        <time>2020-06-04T16:25:33Z</time>
      </trkpt>
      <trkpt lat="47.08054" lon="-2.03767">
        <ele>9.9</ele>
        <time>2020-06-04T16:25:34Z</time>
      </trkpt>
      <trkpt lat="47.08058" lon="-2.0377">
        <ele>9.9</ele>
        <time>2020-06-04T16:25:35Z</time>
      </trkpt>
      <trkpt lat="47.08061" lon="-2.03774">
        <ele>9.9</ele>
        <time>2020-06-04T16:25:36Z</time>
      </trkpt>
      <trkpt lat="47.08064" lon="-2.03777">
        <ele>9.9</ele>
        <time>2020-06-04T16:25:37Z</time>
      </trkpt>
      <trkpt lat="47.08067" lon="-2.03781">
        <ele>9.9</ele>
        <time>2020-06-04T16:25:38Z</time>
      </trkpt>
      <trkpt lat="47.0807" lon="-2.03784">
        <ele>9.9</ele>
        <time>2020-06-04T16:25:39Z</time>
      </trkpt>
      <trkpt lat="47.08072" lon="-2.03787">
        <ele>9.9</ele>
        <time>2020-06-04T16:25:40Z</time>
      </trkpt>
      <trkpt lat="47.08074" lon="-2.0379">
        <ele>9.9</ele>
        <time>2020-06-04T16:25:41Z</time>
      </trkpt>
      <trkpt lat="47.08077" lon="-2.03794">
        <ele>9.9</ele>
        <time>2020-06-04T16:25:42Z</time>
      </trkpt>
      <trkpt lat="47.0808" lon="-2.03798">
        <ele>9.9</ele>
        <time>2020-06-04T16:25:43Z</time>
      </trkpt>
      <trkpt lat="47.08083" lon="-2.03802">
        <ele>9.9</ele>
        <time>2020-06-04T16:25:44Z</time>
      </trkpt>
      <trkpt lat="47.08086" lon="-2.03805">
        <ele>9.9</ele>
        <time>2020-06-04T16:25:45Z</time>
      </trkpt>
      <trkpt lat="47.08089" lon="-2.03809">
        <ele>9.9</ele>
        <time>2020-06-04T16:25:46Z</time>
      </trkpt>
      <trkpt lat="47.08092" lon="-2.03813">
        <ele>9.9</ele>
        <time>2020-06-04T16:25:47Z</time>
      </trkpt>
      <trkpt lat="47.08095" lon="-2.03815">
        <ele>10</ele>
        <time>2020-06-04T16:25:48Z</time>
      </trkpt>
      <trkpt lat="47.08098" lon="-2.03819">
        <ele>10</ele>
        <time>2020-06-04T16:25:49Z</time>
      </trkpt>
      <trkpt lat="47.08099" lon="-2.0382">
        <ele>10</ele>
        <time>2020-06-04T16:25:50Z</time>
      </trkpt>
      <trkpt lat="47.08102" lon="-2.03824">
        <ele>10</ele>
        <time>2020-06-04T16:25:51Z</time>
      </trkpt>
      <trkpt lat="47.08105" lon="-2.03827">
        <ele>10</ele>
        <time>2020-06-04T16:25:52Z</time>
      </trkpt>
      <trkpt lat="47.08108" lon="-2.03831">
        <ele>10.1</ele>
        <time>2020-06-04T16:25:53Z</time>
      </trkpt>
      <trkpt lat="47.0811" lon="-2.03834">
        <ele>10.1</ele>
        <time>2020-06-04T16:25:54Z</time>
      </trkpt>
      <trkpt lat="47.08114" lon="-2.03836">
        <ele>10.2</ele>
        <time>2020-06-04T16:25:55Z</time>
      </trkpt>
      <trkpt lat="47.08116" lon="-2.03839">
        <ele>10.2</ele>
        <time>2020-06-04T16:25:56Z</time>
      </trkpt>
      <trkpt lat="47.08119" lon="-2.03842">
        <ele>10.2</ele>
        <time>2020-06-04T16:25:57Z</time>
      </trkpt>
      <trkpt lat="47.08123" lon="-2.03846">
        <ele>10.3</ele>
        <time>2020-06-04T16:25:58Z</time>
      </trkpt>
      <trkpt lat="47.08126" lon="-2.03849">
        <ele>10.3</ele>
        <time>2020-06-04T16:25:59Z</time>
      </trkpt>
      <trkpt lat="47.08129" lon="-2.03853">
        <ele>10.3</ele>
        <time>2020-06-04T16:26:00Z</time>
      </trkpt>
      <trkpt lat="47.08132" lon="-2.03856">
        <ele>10.3</ele>
        <time>2020-06-04T16:26:01Z</time>
      </trkpt>
      <trkpt lat="47.08135" lon="-2.03859">
        <ele>10.4</ele>
        <time>2020-06-04T16:26:02Z</time>
      </trkpt>
      <trkpt lat="47.08139" lon="-2.03862">
        <ele>10.4</ele>
        <time>2020-06-04T16:26:03Z</time>
      </trkpt>
      <trkpt lat="47.08141" lon="-2.03865">
        <ele>10.5</ele>
        <time>2020-06-04T16:26:04Z</time>
      </trkpt>
      <trkpt lat="47.08144" lon="-2.03867">
        <ele>10.5</ele>
        <time>2020-06-04T16:26:05Z</time>
      </trkpt>
      <trkpt lat="47.08147" lon="-2.03871">
        <ele>10.5</ele>
        <time>2020-06-04T16:26:06Z</time>
      </trkpt>
      <trkpt lat="47.0815" lon="-2.03874">
        <ele>10.6</ele>
        <time>2020-06-04T16:26:07Z</time>
      </trkpt>
      <trkpt lat="47.08153" lon="-2.0388">
        <ele>10.7</ele>
        <time>2020-06-04T16:26:08Z</time>
      </trkpt>
      <trkpt lat="47.08156" lon="-2.0388">
        <ele>10.7</ele>
        <time>2020-06-04T16:26:09Z</time>
      </trkpt>
      <trkpt lat="47.08157" lon="-2.0388">
        <ele>10.7</ele>
        <time>2020-06-04T16:26:10Z</time>
      </trkpt>
      <trkpt lat="47.08161" lon="-2.03883">
        <ele>10.8</ele>
        <time>2020-06-04T16:26:11Z</time>
      </trkpt>
      <trkpt lat="47.08165" lon="-2.03886">
        <ele>10.8</ele>
        <time>2020-06-04T16:26:12Z</time>
      </trkpt>
      <trkpt lat="47.08169" lon="-2.03889">
        <ele>10.9</ele>
        <time>2020-06-04T16:26:13Z</time>
      </trkpt>
      <trkpt lat="47.08172" lon="-2.03892">
        <ele>10.9</ele>
        <time>2020-06-04T16:26:14Z</time>
      </trkpt>
      <trkpt lat="47.08176" lon="-2.03895">
        <ele>11</ele>
        <time>2020-06-04T16:26:15Z</time>
      </trkpt>
      <trkpt lat="47.08179" lon="-2.03899">
        <ele>11</ele>
        <time>2020-06-04T16:26:16Z</time>
      </trkpt>
      <trkpt lat="47.08182" lon="-2.03903">
        <ele>11.1</ele>
        <time>2020-06-04T16:26:17Z</time>
      </trkpt>
      <trkpt lat="47.08185" lon="-2.03908">
        <ele>11.1</ele>
        <time>2020-06-04T16:26:18Z</time>
      </trkpt>
      <trkpt lat="47.08188" lon="-2.03911">
        <ele>11.1</ele>
        <time>2020-06-04T16:26:19Z</time>
      </trkpt>
      <trkpt lat="47.08191" lon="-2.03914">
        <ele>11.2</ele>
        <time>2020-06-04T16:26:20Z</time>
      </trkpt>
      <trkpt lat="47.08194" lon="-2.03918">
        <ele>11.3</ele>
        <time>2020-06-04T16:26:21Z</time>
      </trkpt>
      <trkpt lat="47.08197" lon="-2.03921">
        <ele>11.3</ele>
        <time>2020-06-04T16:26:22Z</time>
      </trkpt>
      <trkpt lat="47.082" lon="-2.03924">
        <ele>11.4</ele>
        <time>2020-06-04T16:26:23Z</time>
      </trkpt>
      <trkpt lat="47.08204" lon="-2.03928">
        <ele>11.4</ele>
        <time>2020-06-04T16:26:24Z</time>
      </trkpt>
      <trkpt lat="47.08207" lon="-2.03932">
        <ele>11.5</ele>
        <time>2020-06-04T16:26:25Z</time>
      </trkpt>
      <trkpt lat="47.0821" lon="-2.03936">
        <ele>11.6</ele>
        <time>2020-06-04T16:26:26Z</time>
      </trkpt>
      <trkpt lat="47.08213" lon="-2.0394">
        <ele>11.6</ele>
        <time>2020-06-04T16:26:27Z</time>
      </trkpt>
      <trkpt lat="47.08217" lon="-2.03943">
        <ele>11.7</ele>
        <time>2020-06-04T16:26:28Z</time>
      </trkpt>
      <trkpt lat="47.0822" lon="-2.03946">
        <ele>11.7</ele>
        <time>2020-06-04T16:26:29Z</time>
      </trkpt>
      <trkpt lat="47.08224" lon="-2.03951">
        <ele>11.7</ele>
        <time>2020-06-04T16:26:30Z</time>
      </trkpt>
      <trkpt lat="47.08228" lon="-2.03955">
        <ele>11.8</ele>
        <time>2020-06-04T16:26:31Z</time>
      </trkpt>
      <trkpt lat="47.08231" lon="-2.03959">
        <ele>11.8</ele>
        <time>2020-06-04T16:26:32Z</time>
      </trkpt>
      <trkpt lat="47.08235" lon="-2.03963">
        <ele>11.9</ele>
        <time>2020-06-04T16:26:33Z</time>
      </trkpt>
      <trkpt lat="47.08239" lon="-2.03967">
        <ele>11.9</ele>
        <time>2020-06-04T16:26:34Z</time>
      </trkpt>
      <trkpt lat="47.08242" lon="-2.0397">
        <ele>12</ele>
        <time>2020-06-04T16:26:35Z</time>
      </trkpt>
      <trkpt lat="47.08246" lon="-2.03973">
        <ele>12.1</ele>
        <time>2020-06-04T16:26:36Z</time>
      </trkpt>
      <trkpt lat="47.0825" lon="-2.03977">
        <ele>12.2</ele>
        <time>2020-06-04T16:26:37Z</time>
      </trkpt>
      <trkpt lat="47.08253" lon="-2.0398">
        <ele>12.2</ele>
        <time>2020-06-04T16:26:38Z</time>
      </trkpt>
      <trkpt lat="47.08257" lon="-2.03984">
        <ele>12.4</ele>
        <time>2020-06-04T16:26:39Z</time>
      </trkpt>
      <trkpt lat="47.0826" lon="-2.03988">
        <ele>12.5</ele>
        <time>2020-06-04T16:26:40Z</time>
      </trkpt>
      <trkpt lat="47.08264" lon="-2.03991">
        <ele>12.6</ele>
        <time>2020-06-04T16:26:41Z</time>
      </trkpt>
      <trkpt lat="47.08269" lon="-2.03994">
        <ele>12.7</ele>
        <time>2020-06-04T16:26:42Z</time>
      </trkpt>
      <trkpt lat="47.08272" lon="-2.03999">
        <ele>12.8</ele>
        <time>2020-06-04T16:26:43Z</time>
      </trkpt>
      <trkpt lat="47.08275" lon="-2.04003">
        <ele>12.8</ele>
        <time>2020-06-04T16:26:44Z</time>
      </trkpt>
      <trkpt lat="47.08279" lon="-2.04006">
        <ele>12.9</ele>
        <time>2020-06-04T16:26:45Z</time>
      </trkpt>
      <trkpt lat="47.08282" lon="-2.04009">
        <ele>13</ele>
        <time>2020-06-04T16:26:46Z</time>
      </trkpt>
      <trkpt lat="47.08286" lon="-2.04013">
        <ele>13.1</ele>
        <time>2020-06-04T16:26:47Z</time>
      </trkpt>
      <trkpt lat="47.08289" lon="-2.04017">
        <ele>13.2</ele>
        <time>2020-06-04T16:26:48Z</time>
      </trkpt>
      <trkpt lat="47.08292" lon="-2.0402">
        <ele>13.2</ele>
        <time>2020-06-04T16:26:49Z</time>
      </trkpt>
      <trkpt lat="47.08296" lon="-2.04023">
        <ele>13.2</ele>
        <time>2020-06-04T16:26:50Z</time>
      </trkpt>
      <trkpt lat="47.08299" lon="-2.04027">
        <ele>13.3</ele>
        <time>2020-06-04T16:26:51Z</time>
      </trkpt>
      <trkpt lat="47.08303" lon="-2.04031">
        <ele>13.4</ele>
        <time>2020-06-04T16:26:52Z</time>
      </trkpt>
      <trkpt lat="47.08307" lon="-2.04036">
        <ele>13.4</ele>
        <time>2020-06-04T16:26:53Z</time>
      </trkpt>
      <trkpt lat="47.0831" lon="-2.0404">
        <ele>13.5</ele>
        <time>2020-06-04T16:26:54Z</time>
      </trkpt>
      <trkpt lat="47.08314" lon="-2.04044">
        <ele>13.6</ele>
        <time>2020-06-04T16:26:55Z</time>
      </trkpt>
      <trkpt lat="47.08318" lon="-2.04047">
        <ele>13.7</ele>
        <time>2020-06-04T16:26:56Z</time>
      </trkpt>
      <trkpt lat="47.08321" lon="-2.04051">
        <ele>13.8</ele>
        <time>2020-06-04T16:26:57Z</time>
      </trkpt>
      <trkpt lat="47.08325" lon="-2.04056">
        <ele>13.8</ele>
        <time>2020-06-04T16:26:58Z</time>
      </trkpt>
      <trkpt lat="47.08329" lon="-2.04061">
        <ele>13.9</ele>
        <time>2020-06-04T16:26:59Z</time>
      </trkpt>
      <trkpt lat="47.08332" lon="-2.04064">
        <ele>13.9</ele>
        <time>2020-06-04T16:27:00Z</time>
      </trkpt>
      <trkpt lat="47.08336" lon="-2.04067">
        <ele>13.9</ele>
        <time>2020-06-04T16:27:01Z</time>
      </trkpt>
      <trkpt lat="47.08339" lon="-2.0407">
        <ele>14</ele>
        <time>2020-06-04T16:27:02Z</time>
      </trkpt>
      <trkpt lat="47.08343" lon="-2.04074">
        <ele>14</ele>
        <time>2020-06-04T16:27:03Z</time>
      </trkpt>
      <trkpt lat="47.08346" lon="-2.04077">
        <ele>14</ele>
        <time>2020-06-04T16:27:04Z</time>
      </trkpt>
      <trkpt lat="47.0835" lon="-2.04081">
        <ele>14.1</ele>
        <time>2020-06-04T16:27:05Z</time>
      </trkpt>
      <trkpt lat="47.08354" lon="-2.04086">
        <ele>14.1</ele>
        <time>2020-06-04T16:27:06Z</time>
      </trkpt>
      <trkpt lat="47.08357" lon="-2.0409">
        <ele>14.2</ele>
        <time>2020-06-04T16:27:07Z</time>
      </trkpt>
      <trkpt lat="47.08361" lon="-2.04094">
        <ele>14.2</ele>
        <time>2020-06-04T16:27:08Z</time>
      </trkpt>
      <trkpt lat="47.08363" lon="-2.04097">
        <ele>14.3</ele>
        <time>2020-06-04T16:27:09Z</time>
      </trkpt>
      <trkpt lat="47.08366" lon="-2.04101">
        <ele>14.3</ele>
        <time>2020-06-04T16:27:10Z</time>
      </trkpt>
      <trkpt lat="47.0837" lon="-2.04105">
        <ele>14.3</ele>
        <time>2020-06-04T16:27:11Z</time>
      </trkpt>
      <trkpt lat="47.08374" lon="-2.04109">
        <ele>14.4</ele>
        <time>2020-06-04T16:27:12Z</time>
      </trkpt>
      <trkpt lat="47.08377" lon="-2.04114">
        <ele>14.4</ele>
        <time>2020-06-04T16:27:13Z</time>
      </trkpt>
      <trkpt lat="47.08381" lon="-2.04118">
        <ele>14.5</ele>
        <time>2020-06-04T16:27:14Z</time>
      </trkpt>
      <trkpt lat="47.08385" lon="-2.04123">
        <ele>14.5</ele>
        <time>2020-06-04T16:27:15Z</time>
      </trkpt>
      <trkpt lat="47.08388" lon="-2.04127">
        <ele>14.6</ele>
        <time>2020-06-04T16:27:16Z</time>
      </trkpt>
      <trkpt lat="47.08391" lon="-2.04131">
        <ele>14.7</ele>
        <time>2020-06-04T16:27:17Z</time>
      </trkpt>
      <trkpt lat="47.08395" lon="-2.04135">
        <ele>14.7</ele>
        <time>2020-06-04T16:27:18Z</time>
      </trkpt>
      <trkpt lat="47.08398" lon="-2.04137">
        <ele>14.8</ele>
        <time>2020-06-04T16:27:19Z</time>
      </trkpt>
      <trkpt lat="47.08402" lon="-2.04142">
        <ele>14.8</ele>
        <time>2020-06-04T16:27:20Z</time>
      </trkpt>
      <trkpt lat="47.08406" lon="-2.04145">
        <ele>14.8</ele>
        <time>2020-06-04T16:27:21Z</time>
      </trkpt>
      <trkpt lat="47.08409" lon="-2.04149">
        <ele>14.9</ele>
        <time>2020-06-04T16:27:22Z</time>
      </trkpt>
      <trkpt lat="47.08413" lon="-2.04153">
        <ele>14.9</ele>
        <time>2020-06-04T16:27:23Z</time>
      </trkpt>
      <trkpt lat="47.08416" lon="-2.04157">
        <ele>15</ele>
        <time>2020-06-04T16:27:24Z</time>
      </trkpt>
      <trkpt lat="47.08419" lon="-2.04162">
        <ele>15</ele>
        <time>2020-06-04T16:27:25Z</time>
      </trkpt>
      <trkpt lat="47.08422" lon="-2.04168">
        <ele>15.1</ele>
        <time>2020-06-04T16:27:26Z</time>
      </trkpt>
      <trkpt lat="47.08424" lon="-2.04173">
        <ele>15.2</ele>
        <time>2020-06-04T16:27:27Z</time>
      </trkpt>
      <trkpt lat="47.08426" lon="-2.04179">
        <ele>15.3</ele>
        <time>2020-06-04T16:27:28Z</time>
      </trkpt>
      <trkpt lat="47.08429" lon="-2.04185">
        <ele>15.4</ele>
        <time>2020-06-04T16:27:29Z</time>
      </trkpt>
      <trkpt lat="47.08432" lon="-2.0419">
        <ele>15.5</ele>
        <time>2020-06-04T16:27:30Z</time>
      </trkpt>
      <trkpt lat="47.08436" lon="-2.04196">
        <ele>15.7</ele>
        <time>2020-06-04T16:27:31Z</time>
      </trkpt>
      <trkpt lat="47.0844" lon="-2.042">
        <ele>15.8</ele>
        <time>2020-06-04T16:27:32Z</time>
      </trkpt>
      <trkpt lat="47.08443" lon="-2.04205">
        <ele>16</ele>
        <time>2020-06-04T16:27:33Z</time>
      </trkpt>
      <trkpt lat="47.08447" lon="-2.0421">
        <ele>16</ele>
        <time>2020-06-04T16:27:34Z</time>
      </trkpt>
      <trkpt lat="47.0845" lon="-2.04215">
        <ele>16.1</ele>
        <time>2020-06-04T16:27:35Z</time>
      </trkpt>
      <trkpt lat="47.08453" lon="-2.04221">
        <ele>16.1</ele>
        <time>2020-06-04T16:27:36Z</time>
      </trkpt>
      <trkpt lat="47.08455" lon="-2.04226">
        <ele>16.2</ele>
        <time>2020-06-04T16:27:37Z</time>
      </trkpt>
      <trkpt lat="47.08458" lon="-2.04231">
        <ele>16.2</ele>
        <time>2020-06-04T16:27:38Z</time>
      </trkpt>
      <trkpt lat="47.08462" lon="-2.04236">
        <ele>16.3</ele>
        <time>2020-06-04T16:27:39Z</time>
      </trkpt>
      <trkpt lat="47.08465" lon="-2.04242">
        <ele>16.4</ele>
        <time>2020-06-04T16:27:40Z</time>
      </trkpt>
      <trkpt lat="47.08468" lon="-2.04247">
        <ele>16.4</ele>
        <time>2020-06-04T16:27:41Z</time>
      </trkpt>
      <trkpt lat="47.0847" lon="-2.04252">
        <ele>16.5</ele>
        <time>2020-06-04T16:27:42Z</time>
      </trkpt>
      <trkpt lat="47.08473" lon="-2.04259">
        <ele>16.5</ele>
        <time>2020-06-04T16:27:43Z</time>
      </trkpt>
      <trkpt lat="47.08477" lon="-2.04264">
        <ele>16.6</ele>
        <time>2020-06-04T16:27:44Z</time>
      </trkpt>
      <trkpt lat="47.0848" lon="-2.04269">
        <ele>16.7</ele>
        <time>2020-06-04T16:27:45Z</time>
      </trkpt>
      <trkpt lat="47.08483" lon="-2.04274">
        <ele>16.7</ele>
        <time>2020-06-04T16:27:46Z</time>
      </trkpt>
      <trkpt lat="47.08486" lon="-2.04278">
        <ele>16.9</ele>
        <time>2020-06-04T16:27:47Z</time>
      </trkpt>
      <trkpt lat="47.08489" lon="-2.04284">
        <ele>17.1</ele>
        <time>2020-06-04T16:27:48Z</time>
      </trkpt>
      <trkpt lat="47.08492" lon="-2.04289">
        <ele>17.2</ele>
        <time>2020-06-04T16:27:49Z</time>
      </trkpt>
      <trkpt lat="47.08495" lon="-2.04294">
        <ele>17.4</ele>
        <time>2020-06-04T16:27:50Z</time>
      </trkpt>
      <trkpt lat="47.08497" lon="-2.04301">
        <ele>17.6</ele>
        <time>2020-06-04T16:27:51Z</time>
      </trkpt>
      <trkpt lat="47.085" lon="-2.04307">
        <ele>17.9</ele>
        <time>2020-06-04T16:27:52Z</time>
      </trkpt>
      <trkpt lat="47.08503" lon="-2.04312">
        <ele>18.1</ele>
        <time>2020-06-04T16:27:53Z</time>
      </trkpt>
      <trkpt lat="47.08505" lon="-2.04318">
        <ele>18.3</ele>
        <time>2020-06-04T16:27:54Z</time>
      </trkpt>
      <trkpt lat="47.08509" lon="-2.04323">
        <ele>18.3</ele>
        <time>2020-06-04T16:27:55Z</time>
      </trkpt>
      <trkpt lat="47.08512" lon="-2.04328">
        <ele>18.4</ele>
        <time>2020-06-04T16:27:56Z</time>
      </trkpt>
      <trkpt lat="47.08514" lon="-2.04334">
        <ele>18.5</ele>
        <time>2020-06-04T16:27:57Z</time>
      </trkpt>
      <trkpt lat="47.08517" lon="-2.04341">
        <ele>18.6</ele>
        <time>2020-06-04T16:27:58Z</time>
      </trkpt>
      <trkpt lat="47.08521" lon="-2.04347">
        <ele>18.7</ele>
        <time>2020-06-04T16:27:59Z</time>
      </trkpt>
      <trkpt lat="47.08524" lon="-2.04352">
        <ele>18.8</ele>
        <time>2020-06-04T16:28:00Z</time>
      </trkpt>
      <trkpt lat="47.08526" lon="-2.04356">
        <ele>18.9</ele>
        <time>2020-06-04T16:28:01Z</time>
      </trkpt>
      <trkpt lat="47.08529" lon="-2.04362">
        <ele>18.9</ele>
        <time>2020-06-04T16:28:02Z</time>
      </trkpt>
      <trkpt lat="47.08532" lon="-2.04368">
        <ele>19</ele>
        <time>2020-06-04T16:28:03Z</time>
      </trkpt>
      <trkpt lat="47.08534" lon="-2.04373">
        <ele>19.1</ele>
        <time>2020-06-04T16:28:04Z</time>
      </trkpt>
      <trkpt lat="47.08537" lon="-2.04379">
        <ele>19.1</ele>
        <time>2020-06-04T16:28:05Z</time>
      </trkpt>
      <trkpt lat="47.0854" lon="-2.04384">
        <ele>19.2</ele>
        <time>2020-06-04T16:28:06Z</time>
      </trkpt>
      <trkpt lat="47.08543" lon="-2.04389">
        <ele>19.2</ele>
        <time>2020-06-04T16:28:07Z</time>
      </trkpt>
      <trkpt lat="47.08546" lon="-2.04395">
        <ele>19.3</ele>
        <time>2020-06-04T16:28:08Z</time>
      </trkpt>
      <trkpt lat="47.08549" lon="-2.04401">
        <ele>19.3</ele>
        <time>2020-06-04T16:28:09Z</time>
      </trkpt>
      <trkpt lat="47.08552" lon="-2.04406">
        <ele>19.3</ele>
        <time>2020-06-04T16:28:10Z</time>
      </trkpt>
      <trkpt lat="47.08556" lon="-2.04411">
        <ele>19.3</ele>
        <time>2020-06-04T16:28:11Z</time>
      </trkpt>
      <trkpt lat="47.0856" lon="-2.04416">
        <ele>19.3</ele>
        <time>2020-06-04T16:28:12Z</time>
      </trkpt>
      <trkpt lat="47.08564" lon="-2.04421">
        <ele>19.2</ele>
        <time>2020-06-04T16:28:13Z</time>
      </trkpt>
      <trkpt lat="47.08567" lon="-2.04426">
        <ele>19.2</ele>
        <time>2020-06-04T16:28:14Z</time>
      </trkpt>
      <trkpt lat="47.08571" lon="-2.0443">
        <ele>19.1</ele>
        <time>2020-06-04T16:28:15Z</time>
      </trkpt>
      <trkpt lat="47.08574" lon="-2.04434">
        <ele>19.1</ele>
        <time>2020-06-04T16:28:16Z</time>
      </trkpt>
      <trkpt lat="47.08577" lon="-2.04439">
        <ele>19</ele>
        <time>2020-06-04T16:28:17Z</time>
      </trkpt>
      <trkpt lat="47.0858" lon="-2.04444">
        <ele>19</ele>
        <time>2020-06-04T16:28:18Z</time>
      </trkpt>
      <trkpt lat="47.08583" lon="-2.0445">
        <ele>18.9</ele>
        <time>2020-06-04T16:28:19Z</time>
      </trkpt>
      <trkpt lat="47.08587" lon="-2.04454">
        <ele>18.9</ele>
        <time>2020-06-04T16:28:20Z</time>
      </trkpt>
      <trkpt lat="47.08591" lon="-2.04459">
        <ele>18.8</ele>
        <time>2020-06-04T16:28:21Z</time>
      </trkpt>
      <trkpt lat="47.08595" lon="-2.04463">
        <ele>18.8</ele>
        <time>2020-06-04T16:28:22Z</time>
      </trkpt>
      <trkpt lat="47.08599" lon="-2.04467">
        <ele>18.7</ele>
        <time>2020-06-04T16:28:23Z</time>
      </trkpt>
      <trkpt lat="47.08603" lon="-2.04472">
        <ele>18.7</ele>
        <time>2020-06-04T16:28:24Z</time>
      </trkpt>
      <trkpt lat="47.08606" lon="-2.04476">
        <ele>18.7</ele>
        <time>2020-06-04T16:28:25Z</time>
      </trkpt>
      <trkpt lat="47.08611" lon="-2.0448">
        <ele>18.6</ele>
        <time>2020-06-04T16:28:26Z</time>
      </trkpt>
      <trkpt lat="47.08616" lon="-2.04484">
        <ele>18.6</ele>
        <time>2020-06-04T16:28:27Z</time>
      </trkpt>
      <trkpt lat="47.0862" lon="-2.04489">
        <ele>18.5</ele>
        <time>2020-06-04T16:28:28Z</time>
      </trkpt>
      <trkpt lat="47.08625" lon="-2.04493">
        <ele>18.3</ele>
        <time>2020-06-04T16:28:29Z</time>
      </trkpt>
      <trkpt lat="47.08629" lon="-2.04497">
        <ele>18.3</ele>
        <time>2020-06-04T16:28:30Z</time>
      </trkpt>
      <trkpt lat="47.08634" lon="-2.04501">
        <ele>18.3</ele>
        <time>2020-06-04T16:28:31Z</time>
      </trkpt>
      <trkpt lat="47.08639" lon="-2.04506">
        <ele>18.2</ele>
        <time>2020-06-04T16:28:32Z</time>
      </trkpt>
      <trkpt lat="47.08644" lon="-2.04511">
        <ele>18.2</ele>
        <time>2020-06-04T16:28:33Z</time>
      </trkpt>
      <trkpt lat="47.08649" lon="-2.04516">
        <ele>18.1</ele>
        <time>2020-06-04T16:28:34Z</time>
      </trkpt>
      <trkpt lat="47.08653" lon="-2.04521">
        <ele>18.1</ele>
        <time>2020-06-04T16:28:35Z</time>
      </trkpt>
      <trkpt lat="47.08657" lon="-2.04526">
        <ele>18.1</ele>
        <time>2020-06-04T16:28:36Z</time>
      </trkpt>
      <trkpt lat="47.08661" lon="-2.04531">
        <ele>18.1</ele>
        <time>2020-06-04T16:28:37Z</time>
      </trkpt>
      <trkpt lat="47.08666" lon="-2.04536">
        <ele>18.2</ele>
        <time>2020-06-04T16:28:38Z</time>
      </trkpt>
      <trkpt lat="47.0867" lon="-2.04541">
        <ele>18.2</ele>
        <time>2020-06-04T16:28:39Z</time>
      </trkpt>
      <trkpt lat="47.08674" lon="-2.04546">
        <ele>18.3</ele>
        <time>2020-06-04T16:28:40Z</time>
      </trkpt>
      <trkpt lat="47.08678" lon="-2.04551">
        <ele>18.4</ele>
        <time>2020-06-04T16:28:41Z</time>
      </trkpt>
      <trkpt lat="47.08682" lon="-2.04555">
        <ele>18.4</ele>
        <time>2020-06-04T16:28:42Z</time>
      </trkpt>
      <trkpt lat="47.08686" lon="-2.0456">
        <ele>18.5</ele>
        <time>2020-06-04T16:28:43Z</time>
      </trkpt>
      <trkpt lat="47.0869" lon="-2.04564">
        <ele>18.5</ele>
        <time>2020-06-04T16:28:44Z</time>
      </trkpt>
      <trkpt lat="47.08694" lon="-2.04568">
        <ele>18.7</ele>
        <time>2020-06-04T16:28:45Z</time>
      </trkpt>
      <trkpt lat="47.08698" lon="-2.04572">
        <ele>18.7</ele>
        <time>2020-06-04T16:28:46Z</time>
      </trkpt>
      <trkpt lat="47.08702" lon="-2.04576">
        <ele>18.8</ele>
        <time>2020-06-04T16:28:47Z</time>
      </trkpt>
      <trkpt lat="47.08706" lon="-2.04579">
        <ele>18.8</ele>
        <time>2020-06-04T16:28:48Z</time>
      </trkpt>
      <trkpt lat="47.08709" lon="-2.04582">
        <ele>18.8</ele>
        <time>2020-06-04T16:28:49Z</time>
      </trkpt>
      <trkpt lat="47.08712" lon="-2.04586">
        <ele>19</ele>
        <time>2020-06-04T16:28:50Z</time>
      </trkpt>
      <trkpt lat="47.08716" lon="-2.0459">
        <ele>19.1</ele>
        <time>2020-06-04T16:28:51Z</time>
      </trkpt>
      <trkpt lat="47.0872" lon="-2.04594">
        <ele>19.3</ele>
        <time>2020-06-04T16:28:52Z</time>
      </trkpt>
      <trkpt lat="47.08724" lon="-2.04597">
        <ele>19.4</ele>
        <time>2020-06-04T16:28:53Z</time>
      </trkpt>
      <trkpt lat="47.08729" lon="-2.04601">
        <ele>19.5</ele>
        <time>2020-06-04T16:28:54Z</time>
      </trkpt>
      <trkpt lat="47.08733" lon="-2.04605">
        <ele>19.7</ele>
        <time>2020-06-04T16:28:55Z</time>
      </trkpt>
      <trkpt lat="47.08737" lon="-2.04609">
        <ele>19.8</ele>
        <time>2020-06-04T16:28:56Z</time>
      </trkpt>
      <trkpt lat="47.08742" lon="-2.04612">
        <ele>20</ele>
        <time>2020-06-04T16:28:57Z</time>
      </trkpt>
      <trkpt lat="47.08747" lon="-2.04617">
        <ele>20.1</ele>
        <time>2020-06-04T16:28:58Z</time>
      </trkpt>
      <trkpt lat="47.08751" lon="-2.04622">
        <ele>20.3</ele>
        <time>2020-06-04T16:28:59Z</time>
      </trkpt>
      <trkpt lat="47.08755" lon="-2.04626">
        <ele>20.4</ele>
        <time>2020-06-04T16:29:00Z</time>
      </trkpt>
      <trkpt lat="47.08759" lon="-2.04631">
        <ele>20.5</ele>
        <time>2020-06-04T16:29:01Z</time>
      </trkpt>
      <trkpt lat="47.08763" lon="-2.04635">
        <ele>20.6</ele>
        <time>2020-06-04T16:29:02Z</time>
      </trkpt>
      <trkpt lat="47.08767" lon="-2.0464">
        <ele>20.8</ele>
        <time>2020-06-04T16:29:03Z</time>
      </trkpt>
      <trkpt lat="47.08771" lon="-2.04647">
        <ele>21</ele>
        <time>2020-06-04T16:29:04Z</time>
      </trkpt>
      <trkpt lat="47.08775" lon="-2.04652">
        <ele>21.1</ele>
        <time>2020-06-04T16:29:05Z</time>
      </trkpt>
      <trkpt lat="47.08779" lon="-2.04656">
        <ele>21.3</ele>
        <time>2020-06-04T16:29:06Z</time>
      </trkpt>
      <trkpt lat="47.08783" lon="-2.0466">
        <ele>21.4</ele>
        <time>2020-06-04T16:29:07Z</time>
      </trkpt>
      <trkpt lat="47.08788" lon="-2.04664">
        <ele>21.6</ele>
        <time>2020-06-04T16:29:08Z</time>
      </trkpt>
      <trkpt lat="47.08792" lon="-2.04668">
        <ele>21.8</ele>
        <time>2020-06-04T16:29:09Z</time>
      </trkpt>
      <trkpt lat="47.08796" lon="-2.04672">
        <ele>21.9</ele>
        <time>2020-06-04T16:29:10Z</time>
      </trkpt>
      <trkpt lat="47.088" lon="-2.04675">
        <ele>22</ele>
        <time>2020-06-04T16:29:11Z</time>
      </trkpt>
      <trkpt lat="47.08804" lon="-2.04679">
        <ele>22.1</ele>
        <time>2020-06-04T16:29:12Z</time>
      </trkpt>
      <trkpt lat="47.08807" lon="-2.04682">
        <ele>22.2</ele>
        <time>2020-06-04T16:29:13Z</time>
      </trkpt>
      <trkpt lat="47.08811" lon="-2.04686">
        <ele>22.3</ele>
        <time>2020-06-04T16:29:14Z</time>
      </trkpt>
      <trkpt lat="47.08815" lon="-2.0469">
        <ele>22.4</ele>
        <time>2020-06-04T16:29:15Z</time>
      </trkpt>
      <trkpt lat="47.08818" lon="-2.04693">
        <ele>22.5</ele>
        <time>2020-06-04T16:29:16Z</time>
      </trkpt>
      <trkpt lat="47.08822" lon="-2.04697">
        <ele>22.7</ele>
        <time>2020-06-04T16:29:17Z</time>
      </trkpt>
      <trkpt lat="47.08826" lon="-2.04701">
        <ele>22.8</ele>
        <time>2020-06-04T16:29:18Z</time>
      </trkpt>
      <trkpt lat="47.0883" lon="-2.04705">
        <ele>22.9</ele>
        <time>2020-06-04T16:29:19Z</time>
      </trkpt>
      <trkpt lat="47.08833" lon="-2.04709">
        <ele>23</ele>
        <time>2020-06-04T16:29:20Z</time>
      </trkpt>
      <trkpt lat="47.08837" lon="-2.04714">
        <ele>23.2</ele>
        <time>2020-06-04T16:29:21Z</time>
      </trkpt>
      <trkpt lat="47.08841" lon="-2.04718">
        <ele>23.4</ele>
        <time>2020-06-04T16:29:22Z</time>
      </trkpt>
      <trkpt lat="47.08844" lon="-2.04721">
        <ele>23.5</ele>
        <time>2020-06-04T16:29:23Z</time>
      </trkpt>
      <trkpt lat="47.08849" lon="-2.04725">
        <ele>23.7</ele>
        <time>2020-06-04T16:29:24Z</time>
      </trkpt>
      <trkpt lat="47.08852" lon="-2.04729">
        <ele>23.8</ele>
        <time>2020-06-04T16:29:25Z</time>
      </trkpt>
      <trkpt lat="47.08856" lon="-2.04734">
        <ele>23.9</ele>
        <time>2020-06-04T16:29:26Z</time>
      </trkpt>
      <trkpt lat="47.0886" lon="-2.04738">
        <ele>24</ele>
        <time>2020-06-04T16:29:27Z</time>
      </trkpt>
      <trkpt lat="47.08863" lon="-2.04742">
        <ele>24.1</ele>
        <time>2020-06-04T16:29:28Z</time>
      </trkpt>
      <trkpt lat="47.08867" lon="-2.04747">
        <ele>24.2</ele>
        <time>2020-06-04T16:29:29Z</time>
      </trkpt>
      <trkpt lat="47.0887" lon="-2.04751">
        <ele>24.3</ele>
        <time>2020-06-04T16:29:30Z</time>
      </trkpt>
      <trkpt lat="47.08874" lon="-2.04754">
        <ele>24.4</ele>
        <time>2020-06-04T16:29:31Z</time>
      </trkpt>
      <trkpt lat="47.08878" lon="-2.04759">
        <ele>24.5</ele>
        <time>2020-06-04T16:29:32Z</time>
      </trkpt>
      <trkpt lat="47.08883" lon="-2.04763">
        <ele>24.7</ele>
        <time>2020-06-04T16:29:33Z</time>
      </trkpt>
      <trkpt lat="47.08888" lon="-2.04767">
        <ele>24.9</ele>
        <time>2020-06-04T16:29:34Z</time>
      </trkpt>
      <trkpt lat="47.08892" lon="-2.04771">
        <ele>25</ele>
        <time>2020-06-04T16:29:35Z</time>
      </trkpt>
      <trkpt lat="47.08896" lon="-2.04775">
        <ele>25.2</ele>
        <time>2020-06-04T16:29:36Z</time>
      </trkpt>
      <trkpt lat="47.089" lon="-2.04779">
        <ele>25.3</ele>
        <time>2020-06-04T16:29:37Z</time>
      </trkpt>
      <trkpt lat="47.08904" lon="-2.04783">
        <ele>25.5</ele>
        <time>2020-06-04T16:29:38Z</time>
      </trkpt>
      <trkpt lat="47.08909" lon="-2.04786">
        <ele>25.6</ele>
        <time>2020-06-04T16:29:39Z</time>
      </trkpt>
      <trkpt lat="47.08913" lon="-2.0479">
        <ele>25.7</ele>
        <time>2020-06-04T16:29:40Z</time>
      </trkpt>
      <trkpt lat="47.08917" lon="-2.04794">
        <ele>25.8</ele>
        <time>2020-06-04T16:29:41Z</time>
      </trkpt>
      <trkpt lat="47.08921" lon="-2.04796">
        <ele>25.9</ele>
        <time>2020-06-04T16:29:42Z</time>
      </trkpt>
      <trkpt lat="47.08925" lon="-2.04798">
        <ele>26</ele>
        <time>2020-06-04T16:29:43Z</time>
      </trkpt>
      <trkpt lat="47.08929" lon="-2.048">
        <ele>26</ele>
        <time>2020-06-04T16:29:44Z</time>
      </trkpt>
      <trkpt lat="47.08933" lon="-2.04802">
        <ele>26.1</ele>
        <time>2020-06-04T16:29:45Z</time>
      </trkpt>
      <trkpt lat="47.08936" lon="-2.04808">
        <ele>26.2</ele>
        <time>2020-06-04T16:29:46Z</time>
      </trkpt>
      <trkpt lat="47.0894" lon="-2.04811">
        <ele>26.3</ele>
        <time>2020-06-04T16:29:47Z</time>
      </trkpt>
      <trkpt lat="47.08943" lon="-2.04813">
        <ele>26.4</ele>
        <time>2020-06-04T16:29:48Z</time>
      </trkpt>
      <trkpt lat="47.08947" lon="-2.04815">
        <ele>26.5</ele>
        <time>2020-06-04T16:29:49Z</time>
      </trkpt>
      <trkpt lat="47.08951" lon="-2.04816">
        <ele>26.6</ele>
        <time>2020-06-04T16:29:50Z</time>
      </trkpt>
      <trkpt lat="47.08954" lon="-2.04817">
        <ele>26.6</ele>
        <time>2020-06-04T16:29:51Z</time>
      </trkpt>
      <trkpt lat="47.08958" lon="-2.04817">
        <ele>26.7</ele>
        <time>2020-06-04T16:29:52Z</time>
      </trkpt>
      <trkpt lat="47.08962" lon="-2.04817">
        <ele>26.7</ele>
        <time>2020-06-04T16:29:53Z</time>
      </trkpt>
      <trkpt lat="47.08965" lon="-2.04818">
        <ele>26.7</ele>
        <time>2020-06-04T16:29:54Z</time>
      </trkpt>
      <trkpt lat="47.08969" lon="-2.04818">
        <ele>26.8</ele>
        <time>2020-06-04T16:29:55Z</time>
      </trkpt>
      <trkpt lat="47.08974" lon="-2.04818">
        <ele>26.8</ele>
        <time>2020-06-04T16:29:56Z</time>
      </trkpt>
      <trkpt lat="47.08977" lon="-2.0482">
        <ele>26.8</ele>
        <time>2020-06-04T16:29:57Z</time>
      </trkpt>
      <trkpt lat="47.08981" lon="-2.04821">
        <ele>26.9</ele>
        <time>2020-06-04T16:29:58Z</time>
      </trkpt>
      <trkpt lat="47.08984" lon="-2.04822">
        <ele>27</ele>
        <time>2020-06-04T16:29:59Z</time>
      </trkpt>
      <trkpt lat="47.08988" lon="-2.04823">
        <ele>27.1</ele>
        <time>2020-06-04T16:30:00Z</time>
      </trkpt>
      <trkpt lat="47.08993" lon="-2.04822">
        <ele>27.2</ele>
        <time>2020-06-04T16:30:01Z</time>
      </trkpt>
      <trkpt lat="47.08998" lon="-2.04823">
        <ele>27.3</ele>
        <time>2020-06-04T16:30:02Z</time>
      </trkpt>
      <trkpt lat="47.09003" lon="-2.04823">
        <ele>27.4</ele>
        <time>2020-06-04T16:30:03Z</time>
      </trkpt>
      <trkpt lat="47.09007" lon="-2.04824">
        <ele>27.6</ele>
        <time>2020-06-04T16:30:04Z</time>
      </trkpt>
      <trkpt lat="47.09012" lon="-2.04823">
        <ele>27.8</ele>
        <time>2020-06-04T16:30:05Z</time>
      </trkpt>
      <trkpt lat="47.09018" lon="-2.04823">
        <ele>28</ele>
        <time>2020-06-04T16:30:06Z</time>
      </trkpt>
      <trkpt lat="47.09023" lon="-2.04822">
        <ele>28.2</ele>
        <time>2020-06-04T16:30:07Z</time>
      </trkpt>
      <trkpt lat="47.09028" lon="-2.0482">
        <ele>28.4</ele>
        <time>2020-06-04T16:30:08Z</time>
      </trkpt>
      <trkpt lat="47.09033" lon="-2.04818">
        <ele>28.6</ele>
        <time>2020-06-04T16:30:09Z</time>
      </trkpt>
      <trkpt lat="47.09039" lon="-2.04816">
        <ele>28.7</ele>
        <time>2020-06-04T16:30:10Z</time>
      </trkpt>
      <trkpt lat="47.09044" lon="-2.04813">
        <ele>28.9</ele>
        <time>2020-06-04T16:30:11Z</time>
      </trkpt>
      <trkpt lat="47.0905" lon="-2.04811">
        <ele>29.1</ele>
        <time>2020-06-04T16:30:12Z</time>
      </trkpt>
      <trkpt lat="47.09056" lon="-2.04809">
        <ele>29.2</ele>
        <time>2020-06-04T16:30:13Z</time>
      </trkpt>
      <trkpt lat="47.09062" lon="-2.04806">
        <ele>29.4</ele>
        <time>2020-06-04T16:30:14Z</time>
      </trkpt>
      <trkpt lat="47.09067" lon="-2.04803">
        <ele>29.5</ele>
        <time>2020-06-04T16:30:15Z</time>
      </trkpt>
      <trkpt lat="47.09072" lon="-2.04802">
        <ele>29.7</ele>
        <time>2020-06-04T16:30:16Z</time>
      </trkpt>
      <trkpt lat="47.09078" lon="-2.04797">
        <ele>29.8</ele>
        <time>2020-06-04T16:30:17Z</time>
      </trkpt>
      <trkpt lat="47.09083" lon="-2.04795">
        <ele>29.9</ele>
        <time>2020-06-04T16:30:18Z</time>
      </trkpt>
      <trkpt lat="47.09088" lon="-2.04792">
        <ele>30</ele>
        <time>2020-06-04T16:30:19Z</time>
      </trkpt>
      <trkpt lat="47.09092" lon="-2.0479">
        <ele>30</ele>
        <time>2020-06-04T16:30:20Z</time>
      </trkpt>
      <trkpt lat="47.09095" lon="-2.04787">
        <ele>30</ele>
        <time>2020-06-04T16:30:21Z</time>
      </trkpt>
      <trkpt lat="47.09099" lon="-2.04784">
        <ele>30</ele>
        <time>2020-06-04T16:30:22Z</time>
      </trkpt>
      <trkpt lat="47.09102" lon="-2.04782">
        <ele>30.1</ele>
        <time>2020-06-04T16:30:23Z</time>
      </trkpt>
      <trkpt lat="47.09105" lon="-2.0478">
        <ele>30.1</ele>
        <time>2020-06-04T16:30:24Z</time>
      </trkpt>
      <trkpt lat="47.09107" lon="-2.04777">
        <ele>30.1</ele>
        <time>2020-06-04T16:30:25Z</time>
      </trkpt>
      <trkpt lat="47.0911" lon="-2.04775">
        <ele>30.1</ele>
        <time>2020-06-04T16:30:26Z</time>
      </trkpt>
      <trkpt lat="47.09113" lon="-2.04773">
        <ele>30.1</ele>
        <time>2020-06-04T16:30:27Z</time>
      </trkpt>
      <trkpt lat="47.09115" lon="-2.0477">
        <ele>30.1</ele>
        <time>2020-06-04T16:30:28Z</time>
      </trkpt>
      <trkpt lat="47.09115" lon="-2.04768">
        <ele>30.1</ele>
        <time>2020-06-04T16:30:29Z</time>
      </trkpt>
      <trkpt lat="47.09116" lon="-2.04766">
        <ele>30.1</ele>
        <time>2020-06-04T16:30:30Z</time>
      </trkpt>
      <trkpt lat="47.09117" lon="-2.04766">
        <ele>30.1</ele>
        <time>2020-06-04T16:30:31Z</time>
      </trkpt>
      <trkpt lat="47.09117" lon="-2.04766">
        <ele>30.1</ele>
        <time>2020-06-04T16:30:32Z</time>
      </trkpt>
      <trkpt lat="47.09117" lon="-2.04767">
        <ele>30.2</ele>
        <time>2020-06-04T16:30:33Z</time>
      </trkpt>
      <trkpt lat="47.09117" lon="-2.04768">
        <ele>30.2</ele>
        <time>2020-06-04T16:30:34Z</time>
      </trkpt>
      <trkpt lat="47.09116" lon="-2.04768">
        <ele>30.2</ele>
        <time>2020-06-04T16:30:35Z</time>
      </trkpt>
      <trkpt lat="47.09117" lon="-2.04768">
        <ele>30.2</ele>
        <time>2020-06-04T16:30:36Z</time>
      </trkpt>
      <trkpt lat="47.09117" lon="-2.04768">
        <ele>30.2</ele>
        <time>2020-06-04T16:30:37Z</time>
      </trkpt>
      <trkpt lat="47.09117" lon="-2.04768">
        <ele>30.2</ele>
        <time>2020-06-04T16:30:38Z</time>
      </trkpt>
      <trkpt lat="47.09117" lon="-2.04768">
        <ele>30.2</ele>
        <time>2020-06-04T16:30:39Z</time>
      </trkpt>
      <trkpt lat="47.09117" lon="-2.04768">
        <ele>30.2</ele>
        <time>2020-06-04T16:30:40Z</time>
      </trkpt>
      <trkpt lat="47.09117" lon="-2.04768">
        <ele>30.2</ele>
        <time>2020-06-04T16:30:41Z</time>
      </trkpt>
      <trkpt lat="47.09116" lon="-2.04768">
        <ele>30.2</ele>
        <time>2020-06-04T16:30:42Z</time>
      </trkpt>
      <trkpt lat="47.09116" lon="-2.04768">
        <ele>30.2</ele>
        <time>2020-06-04T16:30:43Z</time>
      </trkpt>
      <trkpt lat="47.09116" lon="-2.04768">
        <ele>30.2</ele>
        <time>2020-06-04T16:30:44Z</time>
      </trkpt>
      <trkpt lat="47.0912" lon="-2.04766">
        <ele>30.2</ele>
        <time>2020-06-04T16:31:01Z</time>
      </trkpt>
      <trkpt lat="47.09119" lon="-2.04765">
        <ele>30.2</ele>
        <time>2020-06-04T16:31:02Z</time>
      </trkpt>
      <trkpt lat="47.09119" lon="-2.04764">
        <ele>30.2</ele>
        <time>2020-06-04T16:31:03Z</time>
      </trkpt>
      <trkpt lat="47.09119" lon="-2.04764">
        <ele>30.2</ele>
        <time>2020-06-04T16:31:04Z</time>
      </trkpt>
      <trkpt lat="47.09119" lon="-2.04763">
        <ele>30.2</ele>
        <time>2020-06-04T16:31:05Z</time>
      </trkpt>
      <trkpt lat="47.09119" lon="-2.04763">
        <ele>30.2</ele>
        <time>2020-06-04T16:31:06Z</time>
      </trkpt>
      <trkpt lat="47.09119" lon="-2.04763">
        <ele>30.2</ele>
        <time>2020-06-04T16:31:07Z</time>
      </trkpt>
      <trkpt lat="47.09119" lon="-2.04763">
        <ele>30.2</ele>
        <time>2020-06-04T16:31:08Z</time>
      </trkpt>
      <trkpt lat="47.09119" lon="-2.04763">
        <ele>30.2</ele>
        <time>2020-06-04T16:31:09Z</time>
      </trkpt>
      <trkpt lat="47.0912" lon="-2.04763">
        <ele>30.2</ele>
        <time>2020-06-04T16:31:10Z</time>
      </trkpt>
      <trkpt lat="47.0912" lon="-2.04763">
        <ele>30.2</ele>
        <time>2020-06-04T16:31:11Z</time>
      </trkpt>
      <trkpt lat="47.09121" lon="-2.04763">
        <ele>30.2</ele>
        <time>2020-06-04T16:31:12Z</time>
      </trkpt>
      <trkpt lat="47.09124" lon="-2.04761">
        <ele>30.2</ele>
        <time>2020-06-04T16:31:13Z</time>
      </trkpt>
      <trkpt lat="47.09125" lon="-2.0476">
        <ele>30.2</ele>
        <time>2020-06-04T16:31:14Z</time>
      </trkpt>
      <trkpt lat="47.09128" lon="-2.04759">
        <ele>30.2</ele>
        <time>2020-06-04T16:31:15Z</time>
      </trkpt>
      <trkpt lat="47.09129" lon="-2.04759">
        <ele>30.2</ele>
        <time>2020-06-04T16:31:16Z</time>
      </trkpt>
      <trkpt lat="47.09132" lon="-2.04756">
        <ele>30.2</ele>
        <time>2020-06-04T16:31:17Z</time>
      </trkpt>
      <trkpt lat="47.09134" lon="-2.04753">
        <ele>30.2</ele>
        <time>2020-06-04T16:31:18Z</time>
      </trkpt>
      <trkpt lat="47.09137" lon="-2.04751">
        <ele>30.2</ele>
        <time>2020-06-04T16:31:19Z</time>
      </trkpt>
      <trkpt lat="47.09139" lon="-2.04748">
        <ele>30.2</ele>
        <time>2020-06-04T16:31:20Z</time>
      </trkpt>
      <trkpt lat="47.09143" lon="-2.04744">
        <ele>30.2</ele>
        <time>2020-06-04T16:31:21Z</time>
      </trkpt>
      <trkpt lat="47.09146" lon="-2.04741">
        <ele>30.2</ele>
        <time>2020-06-04T16:31:22Z</time>
      </trkpt>
      <trkpt lat="47.09149" lon="-2.04739">
        <ele>30.1</ele>
        <time>2020-06-04T16:31:23Z</time>
      </trkpt>
      <trkpt lat="47.09152" lon="-2.04736">
        <ele>30.1</ele>
        <time>2020-06-04T16:31:24Z</time>
      </trkpt>
      <trkpt lat="47.09156" lon="-2.04733">
        <ele>30.1</ele>
        <time>2020-06-04T16:31:25Z</time>
      </trkpt>
      <trkpt lat="47.0916" lon="-2.04731">
        <ele>30</ele>
        <time>2020-06-04T16:31:26Z</time>
      </trkpt>
      <trkpt lat="47.09163" lon="-2.04729">
        <ele>29.9</ele>
        <time>2020-06-04T16:31:27Z</time>
      </trkpt>
      <trkpt lat="47.09167" lon="-2.04726">
        <ele>29.9</ele>
        <time>2020-06-04T16:31:28Z</time>
      </trkpt>
      <trkpt lat="47.0917" lon="-2.04721">
        <ele>29.8</ele>
        <time>2020-06-04T16:31:29Z</time>
      </trkpt>
      <trkpt lat="47.09174" lon="-2.04718">
        <ele>29.7</ele>
        <time>2020-06-04T16:31:30Z</time>
      </trkpt>
      <trkpt lat="47.09178" lon="-2.04714">
        <ele>29.7</ele>
        <time>2020-06-04T16:31:31Z</time>
      </trkpt>
      <trkpt lat="47.09182" lon="-2.0471">
        <ele>29.6</ele>
        <time>2020-06-04T16:31:32Z</time>
      </trkpt>
      <trkpt lat="47.09186" lon="-2.04709">
        <ele>29.6</ele>
        <time>2020-06-04T16:31:33Z</time>
      </trkpt>
      <trkpt lat="47.0919" lon="-2.04706">
        <ele>29.5</ele>
        <time>2020-06-04T16:31:34Z</time>
      </trkpt>
      <trkpt lat="47.09194" lon="-2.04704">
        <ele>29.5</ele>
        <time>2020-06-04T16:31:35Z</time>
      </trkpt>
      <trkpt lat="47.09198" lon="-2.047">
        <ele>29.4</ele>
        <time>2020-06-04T16:31:36Z</time>
      </trkpt>
      <trkpt lat="47.09201" lon="-2.04697">
        <ele>29.3</ele>
        <time>2020-06-04T16:31:37Z</time>
      </trkpt>
      <trkpt lat="47.09205" lon="-2.04693">
        <ele>29.3</ele>
        <time>2020-06-04T16:31:38Z</time>
      </trkpt>
      <trkpt lat="47.09208" lon="-2.04691">
        <ele>29.2</ele>
        <time>2020-06-04T16:31:39Z</time>
      </trkpt>
      <trkpt lat="47.09212" lon="-2.04687">
        <ele>29.2</ele>
        <time>2020-06-04T16:31:40Z</time>
      </trkpt>
      <trkpt lat="47.09216" lon="-2.04683">
        <ele>29.1</ele>
        <time>2020-06-04T16:31:41Z</time>
      </trkpt>
      <trkpt lat="47.0922" lon="-2.0468">
        <ele>29.1</ele>
        <time>2020-06-04T16:31:42Z</time>
      </trkpt>
      <trkpt lat="47.09225" lon="-2.04675">
        <ele>29</ele>
        <time>2020-06-04T16:31:43Z</time>
      </trkpt>
      <trkpt lat="47.0923" lon="-2.04672">
        <ele>28.9</ele>
        <time>2020-06-04T16:31:44Z</time>
      </trkpt>
      <trkpt lat="47.09235" lon="-2.04668">
        <ele>28.9</ele>
        <time>2020-06-04T16:31:45Z</time>
      </trkpt>
      <trkpt lat="47.0924" lon="-2.04665">
        <ele>28.8</ele>
        <time>2020-06-04T16:31:46Z</time>
      </trkpt>
      <trkpt lat="47.09245" lon="-2.04661">
        <ele>28.7</ele>
        <time>2020-06-04T16:31:47Z</time>
      </trkpt>
      <trkpt lat="47.09249" lon="-2.04657">
        <ele>28.7</ele>
        <time>2020-06-04T16:31:48Z</time>
      </trkpt>
      <trkpt lat="47.09254" lon="-2.04654">
        <ele>28.6</ele>
        <time>2020-06-04T16:31:49Z</time>
      </trkpt>
      <trkpt lat="47.09259" lon="-2.04651">
        <ele>28.4</ele>
        <time>2020-06-04T16:31:50Z</time>
      </trkpt>
      <trkpt lat="47.09263" lon="-2.04646">
        <ele>28.4</ele>
        <time>2020-06-04T16:31:51Z</time>
      </trkpt>
      <trkpt lat="47.09267" lon="-2.04644">
        <ele>28.5</ele>
        <time>2020-06-04T16:31:52Z</time>
      </trkpt>
      <trkpt lat="47.09271" lon="-2.0464">
        <ele>28.5</ele>
        <time>2020-06-04T16:31:53Z</time>
      </trkpt>
      <trkpt lat="47.09275" lon="-2.04636">
        <ele>28.5</ele>
        <time>2020-06-04T16:31:54Z</time>
      </trkpt>
      <trkpt lat="47.09279" lon="-2.04633">
        <ele>28.5</ele>
        <time>2020-06-04T16:31:55Z</time>
      </trkpt>
      <trkpt lat="47.09283" lon="-2.0463">
        <ele>28.5</ele>
        <time>2020-06-04T16:31:56Z</time>
      </trkpt>
      <trkpt lat="47.09288" lon="-2.04624">
        <ele>28.5</ele>
        <time>2020-06-04T16:31:57Z</time>
      </trkpt>
      <trkpt lat="47.09294" lon="-2.04621">
        <ele>28.5</ele>
        <time>2020-06-04T16:31:58Z</time>
      </trkpt>
      <trkpt lat="47.09298" lon="-2.04617">
        <ele>28.5</ele>
        <time>2020-06-04T16:31:59Z</time>
      </trkpt>
      <trkpt lat="47.09301" lon="-2.04615">
        <ele>28.5</ele>
        <time>2020-06-04T16:32:00Z</time>
      </trkpt>
      <trkpt lat="47.09306" lon="-2.04611">
        <ele>28.5</ele>
        <time>2020-06-04T16:32:01Z</time>
      </trkpt>
      <trkpt lat="47.0931" lon="-2.04608">
        <ele>28.5</ele>
        <time>2020-06-04T16:32:02Z</time>
      </trkpt>
      <trkpt lat="47.09314" lon="-2.04603">
        <ele>28.5</ele>
        <time>2020-06-04T16:32:03Z</time>
      </trkpt>
      <trkpt lat="47.09318" lon="-2.04598">
        <ele>28.5</ele>
        <time>2020-06-04T16:32:04Z</time>
      </trkpt>
      <trkpt lat="47.09322" lon="-2.04595">
        <ele>28.5</ele>
        <time>2020-06-04T16:32:05Z</time>
      </trkpt>
      <trkpt lat="47.09326" lon="-2.0459">
        <ele>28.5</ele>
        <time>2020-06-04T16:32:06Z</time>
      </trkpt>
      <trkpt lat="47.09329" lon="-2.04586">
        <ele>28.6</ele>
        <time>2020-06-04T16:32:07Z</time>
      </trkpt>
      <trkpt lat="47.09332" lon="-2.04581">
        <ele>28.6</ele>
        <time>2020-06-04T16:32:08Z</time>
      </trkpt>
      <trkpt lat="47.09336" lon="-2.04576">
        <ele>28.7</ele>
        <time>2020-06-04T16:32:09Z</time>
      </trkpt>
      <trkpt lat="47.0934" lon="-2.04572">
        <ele>28.7</ele>
        <time>2020-06-04T16:32:10Z</time>
      </trkpt>
      <trkpt lat="47.09344" lon="-2.04567">
        <ele>28.8</ele>
        <time>2020-06-04T16:32:11Z</time>
      </trkpt>
      <trkpt lat="47.09349" lon="-2.04564">
        <ele>28.9</ele>
        <time>2020-06-04T16:32:12Z</time>
      </trkpt>
      <trkpt lat="47.09354" lon="-2.04561">
        <ele>29</ele>
        <time>2020-06-04T16:32:13Z</time>
      </trkpt>
      <trkpt lat="47.09358" lon="-2.04559">
        <ele>29</ele>
        <time>2020-06-04T16:32:14Z</time>
      </trkpt>
      <trkpt lat="47.09363" lon="-2.04559">
        <ele>29.1</ele>
        <time>2020-06-04T16:32:15Z</time>
      </trkpt>
      <trkpt lat="47.09366" lon="-2.04561">
        <ele>29.2</ele>
        <time>2020-06-04T16:32:16Z</time>
      </trkpt>
      <trkpt lat="47.0937" lon="-2.04563">
        <ele>29.2</ele>
        <time>2020-06-04T16:32:17Z</time>
      </trkpt>
      <trkpt lat="47.09374" lon="-2.04564">
        <ele>29.3</ele>
        <time>2020-06-04T16:32:18Z</time>
      </trkpt>
      <trkpt lat="47.09378" lon="-2.04565">
        <ele>29.3</ele>
        <time>2020-06-04T16:32:19Z</time>
      </trkpt>
      <trkpt lat="47.09383" lon="-2.04567">
        <ele>29.4</ele>
        <time>2020-06-04T16:32:20Z</time>
      </trkpt>
      <trkpt lat="47.09387" lon="-2.04567">
        <ele>29.4</ele>
        <time>2020-06-04T16:32:21Z</time>
      </trkpt>
      <trkpt lat="47.09392" lon="-2.04568">
        <ele>29.5</ele>
        <time>2020-06-04T16:32:22Z</time>
      </trkpt>
      <trkpt lat="47.09395" lon="-2.04565">
        <ele>29.6</ele>
        <time>2020-06-04T16:32:23Z</time>
      </trkpt>
      <trkpt lat="47.09399" lon="-2.04565">
        <ele>29.8</ele>
        <time>2020-06-04T16:32:24Z</time>
      </trkpt>
      <trkpt lat="47.09403" lon="-2.04565">
        <ele>29.9</ele>
        <time>2020-06-04T16:32:25Z</time>
      </trkpt>
      <trkpt lat="47.09407" lon="-2.04566">
        <ele>30</ele>
        <time>2020-06-04T16:32:26Z</time>
      </trkpt>
      <trkpt lat="47.09412" lon="-2.04567">
        <ele>30.2</ele>
        <time>2020-06-04T16:32:27Z</time>
      </trkpt>
      <trkpt lat="47.09416" lon="-2.04568">
        <ele>30.3</ele>
        <time>2020-06-04T16:32:28Z</time>
      </trkpt>
      <trkpt lat="47.09421" lon="-2.04569">
        <ele>30.4</ele>
        <time>2020-06-04T16:32:29Z</time>
      </trkpt>
      <trkpt lat="47.09426" lon="-2.0457">
        <ele>30.5</ele>
        <time>2020-06-04T16:32:30Z</time>
      </trkpt>
      <trkpt lat="47.09431" lon="-2.04571">
        <ele>30.6</ele>
        <time>2020-06-04T16:32:31Z</time>
      </trkpt>
      <trkpt lat="47.09436" lon="-2.04571">
        <ele>30.7</ele>
        <time>2020-06-04T16:32:32Z</time>
      </trkpt>
      <trkpt lat="47.09441" lon="-2.04573">
        <ele>30.7</ele>
        <time>2020-06-04T16:32:33Z</time>
      </trkpt>
      <trkpt lat="47.09445" lon="-2.04573">
        <ele>30.8</ele>
        <time>2020-06-04T16:32:34Z</time>
      </trkpt>
      <trkpt lat="47.0945" lon="-2.04574">
        <ele>30.9</ele>
        <time>2020-06-04T16:32:35Z</time>
      </trkpt>
      <trkpt lat="47.09454" lon="-2.04577">
        <ele>31</ele>
        <time>2020-06-04T16:32:36Z</time>
      </trkpt>
      <trkpt lat="47.09459" lon="-2.04579">
        <ele>31.1</ele>
        <time>2020-06-04T16:32:37Z</time>
      </trkpt>
      <trkpt lat="47.09464" lon="-2.04581">
        <ele>31.2</ele>
        <time>2020-06-04T16:32:38Z</time>
      </trkpt>
      <trkpt lat="47.09469" lon="-2.04583">
        <ele>31.4</ele>
        <time>2020-06-04T16:32:39Z</time>
      </trkpt>
      <trkpt lat="47.09474" lon="-2.04585">
        <ele>31.5</ele>
        <time>2020-06-04T16:32:40Z</time>
      </trkpt>
      <trkpt lat="47.09479" lon="-2.04586">
        <ele>31.7</ele>
        <time>2020-06-04T16:32:41Z</time>
      </trkpt>
      <trkpt lat="47.09484" lon="-2.04588">
        <ele>31.8</ele>
        <time>2020-06-04T16:32:42Z</time>
      </trkpt>
      <trkpt lat="47.09488" lon="-2.04589">
        <ele>31.9</ele>
        <time>2020-06-04T16:32:43Z</time>
      </trkpt>
      <trkpt lat="47.09493" lon="-2.04591">
        <ele>32</ele>
        <time>2020-06-04T16:32:44Z</time>
      </trkpt>
      <trkpt lat="47.09497" lon="-2.04592">
        <ele>32</ele>
        <time>2020-06-04T16:32:45Z</time>
      </trkpt>
      <trkpt lat="47.09501" lon="-2.04593">
        <ele>32.1</ele>
        <time>2020-06-04T16:32:46Z</time>
      </trkpt>
      <trkpt lat="47.09506" lon="-2.04594">
        <ele>32.2</ele>
        <time>2020-06-04T16:32:47Z</time>
      </trkpt>
      <trkpt lat="47.0951" lon="-2.04594">
        <ele>32.2</ele>
        <time>2020-06-04T16:32:48Z</time>
      </trkpt>
      <trkpt lat="47.09514" lon="-2.04595">
        <ele>32.3</ele>
        <time>2020-06-04T16:32:49Z</time>
      </trkpt>
      <trkpt lat="47.09518" lon="-2.04596">
        <ele>32.4</ele>
        <time>2020-06-04T16:32:50Z</time>
      </trkpt>
      <trkpt lat="47.09521" lon="-2.04598">
        <ele>32.5</ele>
        <time>2020-06-04T16:32:51Z</time>
      </trkpt>
      <trkpt lat="47.09524" lon="-2.04601">
        <ele>32.5</ele>
        <time>2020-06-04T16:32:52Z</time>
      </trkpt>
      <trkpt lat="47.09527" lon="-2.04603">
        <ele>32.6</ele>
        <time>2020-06-04T16:32:53Z</time>
      </trkpt>
      <trkpt lat="47.09529" lon="-2.04604">
        <ele>32.6</ele>
        <time>2020-06-04T16:32:54Z</time>
      </trkpt>
      <trkpt lat="47.09533" lon="-2.04606">
        <ele>32.7</ele>
        <time>2020-06-04T16:32:55Z</time>
      </trkpt>
      <trkpt lat="47.09536" lon="-2.04607">
        <ele>32.7</ele>
        <time>2020-06-04T16:32:56Z</time>
      </trkpt>
      <trkpt lat="47.09537" lon="-2.04607">
        <ele>32.7</ele>
        <time>2020-06-04T16:32:57Z</time>
      </trkpt>
      <trkpt lat="47.09541" lon="-2.04608">
        <ele>32.8</ele>
        <time>2020-06-04T16:32:58Z</time>
      </trkpt>
      <trkpt lat="47.09543" lon="-2.04609">
        <ele>32.8</ele>
        <time>2020-06-04T16:32:59Z</time>
      </trkpt>
      <trkpt lat="47.09546" lon="-2.04611">
        <ele>32.8</ele>
        <time>2020-06-04T16:33:00Z</time>
      </trkpt>
      <trkpt lat="47.09547" lon="-2.04612">
        <ele>32.8</ele>
        <time>2020-06-04T16:33:01Z</time>
      </trkpt>
      <trkpt lat="47.0955" lon="-2.04613">
        <ele>32.9</ele>
        <time>2020-06-04T16:33:02Z</time>
      </trkpt>
      <trkpt lat="47.09552" lon="-2.04613">
        <ele>32.9</ele>
        <time>2020-06-04T16:33:03Z</time>
      </trkpt>
      <trkpt lat="47.09555" lon="-2.04615">
        <ele>32.9</ele>
        <time>2020-06-04T16:33:04Z</time>
      </trkpt>
      <trkpt lat="47.09558" lon="-2.04615">
        <ele>32.9</ele>
        <time>2020-06-04T16:33:05Z</time>
      </trkpt>
      <trkpt lat="47.09561" lon="-2.04616">
        <ele>33</ele>
        <time>2020-06-04T16:33:06Z</time>
      </trkpt>
      <trkpt lat="47.09564" lon="-2.04617">
        <ele>33</ele>
        <time>2020-06-04T16:33:07Z</time>
      </trkpt>
      <trkpt lat="47.09568" lon="-2.04617">
        <ele>33</ele>
        <time>2020-06-04T16:33:08Z</time>
      </trkpt>
      <trkpt lat="47.09571" lon="-2.04615">
        <ele>33</ele>
        <time>2020-06-04T16:33:09Z</time>
      </trkpt>
      <trkpt lat="47.09574" lon="-2.04616">
        <ele>33</ele>
        <time>2020-06-04T16:33:10Z</time>
      </trkpt>
      <trkpt lat="47.09578" lon="-2.04617">
        <ele>33</ele>
        <time>2020-06-04T16:33:11Z</time>
      </trkpt>
      <trkpt lat="47.09582" lon="-2.04618">
        <ele>33</ele>
        <time>2020-06-04T16:33:12Z</time>
      </trkpt>
      <trkpt lat="47.09584" lon="-2.04618">
        <ele>33</ele>
        <time>2020-06-04T16:33:13Z</time>
      </trkpt>
      <trkpt lat="47.09587" lon="-2.0462">
        <ele>33</ele>
        <time>2020-06-04T16:33:14Z</time>
      </trkpt>
      <trkpt lat="47.0959" lon="-2.0462">
        <ele>33</ele>
        <time>2020-06-04T16:33:15Z</time>
      </trkpt>
      <trkpt lat="47.09594" lon="-2.0462">
        <ele>33</ele>
        <time>2020-06-04T16:33:16Z</time>
      </trkpt>
      <trkpt lat="47.09599" lon="-2.04621">
        <ele>33</ele>
        <time>2020-06-04T16:33:17Z</time>
      </trkpt>
      <trkpt lat="47.09602" lon="-2.04624">
        <ele>33</ele>
        <time>2020-06-04T16:33:18Z</time>
      </trkpt>
      <trkpt lat="47.09606" lon="-2.04626">
        <ele>33</ele>
        <time>2020-06-04T16:33:19Z</time>
      </trkpt>
      <trkpt lat="47.09611" lon="-2.04627">
        <ele>33</ele>
        <time>2020-06-04T16:33:20Z</time>
      </trkpt>
      <trkpt lat="47.09615" lon="-2.04628">
        <ele>33</ele>
        <time>2020-06-04T16:33:21Z</time>
      </trkpt>
      <trkpt lat="47.09619" lon="-2.0463">
        <ele>33</ele>
        <time>2020-06-04T16:33:22Z</time>
      </trkpt>
      <trkpt lat="47.09621" lon="-2.0463">
        <ele>33</ele>
        <time>2020-06-04T16:33:23Z</time>
      </trkpt>
      <trkpt lat="47.09624" lon="-2.04632">
        <ele>33</ele>
        <time>2020-06-04T16:33:24Z</time>
      </trkpt>
      <trkpt lat="47.09627" lon="-2.04633">
        <ele>33</ele>
        <time>2020-06-04T16:33:25Z</time>
      </trkpt>
      <trkpt lat="47.09631" lon="-2.04634">
        <ele>33</ele>
        <time>2020-06-04T16:33:26Z</time>
      </trkpt>
      <trkpt lat="47.09634" lon="-2.04635">
        <ele>33</ele>
        <time>2020-06-04T16:33:27Z</time>
      </trkpt>
      <trkpt lat="47.09637" lon="-2.04636">
        <ele>33</ele>
        <time>2020-06-04T16:33:28Z</time>
      </trkpt>
      <trkpt lat="47.0964" lon="-2.04637">
        <ele>32.9</ele>
        <time>2020-06-04T16:33:29Z</time>
      </trkpt>
      <trkpt lat="47.09643" lon="-2.04638">
        <ele>32.9</ele>
        <time>2020-06-04T16:33:30Z</time>
      </trkpt>
      <trkpt lat="47.09646" lon="-2.04639">
        <ele>32.8</ele>
        <time>2020-06-04T16:33:31Z</time>
      </trkpt>
      <trkpt lat="47.0965" lon="-2.04641">
        <ele>32.8</ele>
        <time>2020-06-04T16:33:32Z</time>
      </trkpt>
      <trkpt lat="47.09653" lon="-2.04643">
        <ele>32.7</ele>
        <time>2020-06-04T16:33:33Z</time>
      </trkpt>
      <trkpt lat="47.09657" lon="-2.04644">
        <ele>32.7</ele>
        <time>2020-06-04T16:33:34Z</time>
      </trkpt>
      <trkpt lat="47.0966" lon="-2.04644">
        <ele>32.7</ele>
        <time>2020-06-04T16:33:35Z</time>
      </trkpt>
      <trkpt lat="47.09661" lon="-2.04645">
        <ele>32.7</ele>
        <time>2020-06-04T16:33:36Z</time>
      </trkpt>
      <trkpt lat="47.09663" lon="-2.04645">
        <ele>32.6</ele>
        <time>2020-06-04T16:33:37Z</time>
      </trkpt>
      <trkpt lat="47.09664" lon="-2.04645">
        <ele>32.6</ele>
        <time>2020-06-04T16:33:38Z</time>
      </trkpt>
      <trkpt lat="47.09665" lon="-2.04645">
        <ele>32.6</ele>
        <time>2020-06-04T16:33:39Z</time>
      </trkpt>
      <trkpt lat="47.09665" lon="-2.04648">
        <ele>32.6</ele>
        <time>2020-06-04T16:33:40Z</time>
      </trkpt>
      <trkpt lat="47.09665" lon="-2.04648">
        <ele>32.6</ele>
        <time>2020-06-04T16:33:41Z</time>
      </trkpt>
      <trkpt lat="47.09665" lon="-2.04649">
        <ele>32.6</ele>
        <time>2020-06-04T16:33:42Z</time>
      </trkpt>
      <trkpt lat="47.09665" lon="-2.04649">
        <ele>32.6</ele>
        <time>2020-06-04T16:33:43Z</time>
      </trkpt>
      <trkpt lat="47.09665" lon="-2.04649">
        <ele>32.6</ele>
        <time>2020-06-04T16:33:44Z</time>
      </trkpt>
      <trkpt lat="47.09665" lon="-2.0465">
        <ele>32.6</ele>
        <time>2020-06-04T16:33:45Z</time>
      </trkpt>
      <trkpt lat="47.09664" lon="-2.04651">
        <ele>32.6</ele>
        <time>2020-06-04T16:33:46Z</time>
      </trkpt>
      <trkpt lat="47.09664" lon="-2.04652">
        <ele>32.6</ele>
        <time>2020-06-04T16:33:47Z</time>
      </trkpt>
      <trkpt lat="47.09664" lon="-2.04651">
        <ele>32.5</ele>
        <time>2020-06-04T16:33:48Z</time>
      </trkpt>
      <trkpt lat="47.09664" lon="-2.04651">
        <ele>32.5</ele>
        <time>2020-06-04T16:33:49Z</time>
      </trkpt>
      <trkpt lat="47.09663" lon="-2.04651">
        <ele>32.5</ele>
        <time>2020-06-04T16:33:50Z</time>
      </trkpt>
      <trkpt lat="47.09661" lon="-2.0465">
        <ele>32.5</ele>
        <time>2020-06-04T16:33:51Z</time>
      </trkpt>
      <trkpt lat="47.09659" lon="-2.04648">
        <ele>32.5</ele>
        <time>2020-06-04T16:35:40Z</time>
      </trkpt>
      <trkpt lat="47.09658" lon="-2.04647">
        <ele>32.4</ele>
        <time>2020-06-04T16:35:41Z</time>
      </trkpt>
      <trkpt lat="47.09657" lon="-2.04645">
        <ele>32.4</ele>
        <time>2020-06-04T16:35:42Z</time>
      </trkpt>
      <trkpt lat="47.0966" lon="-2.04645">
        <ele>32.4</ele>
        <time>2020-06-04T16:35:43Z</time>
      </trkpt>
      <trkpt lat="47.09661" lon="-2.04644">
        <ele>32.3</ele>
        <time>2020-06-04T16:35:44Z</time>
      </trkpt>
      <trkpt lat="47.09664" lon="-2.04644">
        <ele>32.3</ele>
        <time>2020-06-04T16:35:45Z</time>
      </trkpt>
      <trkpt lat="47.09665" lon="-2.04644">
        <ele>32.3</ele>
        <time>2020-06-04T16:35:46Z</time>
      </trkpt>
      <trkpt lat="47.09668" lon="-2.04646">
        <ele>32.3</ele>
        <time>2020-06-04T16:35:47Z</time>
      </trkpt>
      <trkpt lat="47.09669" lon="-2.04647">
        <ele>32.2</ele>
        <time>2020-06-04T16:35:48Z</time>
      </trkpt>
      <trkpt lat="47.09672" lon="-2.04648">
        <ele>32.2</ele>
        <time>2020-06-04T16:35:49Z</time>
      </trkpt>
      <trkpt lat="47.09673" lon="-2.04648">
        <ele>32.2</ele>
        <time>2020-06-04T16:35:50Z</time>
      </trkpt>
      <trkpt lat="47.09675" lon="-2.04649">
        <ele>32.1</ele>
        <time>2020-06-04T16:35:51Z</time>
      </trkpt>
      <trkpt lat="47.09677" lon="-2.04648">
        <ele>32.1</ele>
        <time>2020-06-04T16:35:52Z</time>
      </trkpt>
      <trkpt lat="47.0968" lon="-2.04649">
        <ele>32.1</ele>
        <time>2020-06-04T16:35:53Z</time>
      </trkpt>
      <trkpt lat="47.09681" lon="-2.04648">
        <ele>32.1</ele>
        <time>2020-06-04T16:35:54Z</time>
      </trkpt>
      <trkpt lat="47.09684" lon="-2.0465">
        <ele>32</ele>
        <time>2020-06-04T16:35:55Z</time>
      </trkpt>
      <trkpt lat="47.09686" lon="-2.04651">
        <ele>32</ele>
        <time>2020-06-04T16:35:56Z</time>
      </trkpt>
      <trkpt lat="47.09689" lon="-2.04652">
        <ele>32</ele>
        <time>2020-06-04T16:35:57Z</time>
      </trkpt>
      <trkpt lat="47.0969" lon="-2.04653">
        <ele>32</ele>
        <time>2020-06-04T16:35:58Z</time>
      </trkpt>
      <trkpt lat="47.09694" lon="-2.04654">
        <ele>31.9</ele>
        <time>2020-06-04T16:35:59Z</time>
      </trkpt>
      <trkpt lat="47.09695" lon="-2.04655">
        <ele>31.9</ele>
        <time>2020-06-04T16:36:00Z</time>
      </trkpt>
      <trkpt lat="47.09698" lon="-2.04657">
        <ele>31.9</ele>
        <time>2020-06-04T16:36:01Z</time>
      </trkpt>
      <trkpt lat="47.09699" lon="-2.04657">
        <ele>31.9</ele>
        <time>2020-06-04T16:36:02Z</time>
      </trkpt>
      <trkpt lat="47.09702" lon="-2.04658">
        <ele>31.9</ele>
        <time>2020-06-04T16:36:03Z</time>
      </trkpt>
      <trkpt lat="47.09705" lon="-2.04658">
        <ele>31.9</ele>
        <time>2020-06-04T16:36:04Z</time>
      </trkpt>
      <trkpt lat="47.09705" lon="-2.04658">
        <ele>31.9</ele>
        <time>2020-06-04T16:36:05Z</time>
      </trkpt>
      <trkpt lat="47.09707" lon="-2.04659">
        <ele>31.9</ele>
        <time>2020-06-04T16:36:06Z</time>
      </trkpt>
      <trkpt lat="47.09708" lon="-2.0466">
        <ele>32</ele>
        <time>2020-06-04T16:36:07Z</time>
      </trkpt>
      <trkpt lat="47.09709" lon="-2.0466">
        <ele>32</ele>
        <time>2020-06-04T16:36:08Z</time>
      </trkpt>
      <trkpt lat="47.0971" lon="-2.0466">
        <ele>32</ele>
        <time>2020-06-04T16:36:09Z</time>
      </trkpt>
      <trkpt lat="47.0971" lon="-2.0466">
        <ele>32</ele>
        <time>2020-06-04T16:36:10Z</time>
      </trkpt>
      <trkpt lat="47.09709" lon="-2.04659">
        <ele>32</ele>
        <time>2020-06-04T16:36:11Z</time>
      </trkpt>
      <trkpt lat="47.0971" lon="-2.04659">
        <ele>32</ele>
        <time>2020-06-04T16:36:12Z</time>
      </trkpt>
      <trkpt lat="47.0971" lon="-2.0466">
        <ele>32</ele>
        <time>2020-06-04T16:36:13Z</time>
      </trkpt>
      <trkpt lat="47.0971" lon="-2.0466">
        <ele>32</ele>
        <time>2020-06-04T16:36:14Z</time>
      </trkpt>
      <trkpt lat="47.0971" lon="-2.0466">
        <ele>32</ele>
        <time>2020-06-04T16:36:15Z</time>
      </trkpt>
      <trkpt lat="47.0971" lon="-2.0466">
        <ele>32</ele>
        <time>2020-06-04T16:36:16Z</time>
      </trkpt>
      <trkpt lat="47.0971" lon="-2.0466">
        <ele>32</ele>
        <time>2020-06-04T16:36:17Z</time>
      </trkpt>
      <trkpt lat="47.09709" lon="-2.0466">
        <ele>32</ele>
        <time>2020-06-04T16:36:18Z</time>
      </trkpt>
      <trkpt lat="47.09709" lon="-2.0466">
        <ele>32</ele>
        <time>2020-06-04T16:36:19Z</time>
      </trkpt>
      <trkpt lat="47.0971" lon="-2.0466">
        <ele>32</ele>
        <time>2020-06-04T16:36:20Z</time>
      </trkpt>
      <trkpt lat="47.0971" lon="-2.0466">
        <ele>32</ele>
        <time>2020-06-04T16:36:21Z</time>
      </trkpt>
      <trkpt lat="47.0971" lon="-2.0466">
        <ele>32</ele>
        <time>2020-06-04T16:36:22Z</time>
      </trkpt>
      <trkpt lat="47.09715" lon="-2.04657">
        <ele>32</ele>
        <time>2020-06-04T16:36:55Z</time>
      </trkpt>
      <trkpt lat="47.09718" lon="-2.04658">
        <ele>32</ele>
        <time>2020-06-04T16:36:56Z</time>
      </trkpt>
      <trkpt lat="47.09722" lon="-2.04659">
        <ele>32</ele>
        <time>2020-06-04T16:36:57Z</time>
      </trkpt>
      <trkpt lat="47.09726" lon="-2.0466">
        <ele>32.1</ele>
        <time>2020-06-04T16:36:58Z</time>
      </trkpt>
      <trkpt lat="47.09729" lon="-2.04662">
        <ele>32.1</ele>
        <time>2020-06-04T16:36:59Z</time>
      </trkpt>
      <trkpt lat="47.09734" lon="-2.04664">
        <ele>32.2</ele>
        <time>2020-06-04T16:37:00Z</time>
      </trkpt>
      <trkpt lat="47.09738" lon="-2.04664">
        <ele>32.2</ele>
        <time>2020-06-04T16:37:01Z</time>
      </trkpt>
      <trkpt lat="47.09742" lon="-2.04665">
        <ele>32.2</ele>
        <time>2020-06-04T16:37:02Z</time>
      </trkpt>
      <trkpt lat="47.09746" lon="-2.04666">
        <ele>32.3</ele>
        <time>2020-06-04T16:37:03Z</time>
      </trkpt>
      <trkpt lat="47.0975" lon="-2.04666">
        <ele>32.3</ele>
        <time>2020-06-04T16:37:04Z</time>
      </trkpt>
      <trkpt lat="47.09754" lon="-2.04667">
        <ele>32.3</ele>
        <time>2020-06-04T16:37:05Z</time>
      </trkpt>
      <trkpt lat="47.09759" lon="-2.04667">
        <ele>32.4</ele>
        <time>2020-06-04T16:37:06Z</time>
      </trkpt>
      <trkpt lat="47.09762" lon="-2.04669">
        <ele>32.4</ele>
        <time>2020-06-04T16:37:07Z</time>
      </trkpt>
      <trkpt lat="47.09767" lon="-2.04671">
        <ele>32.5</ele>
        <time>2020-06-04T16:37:08Z</time>
      </trkpt>
      <trkpt lat="47.09772" lon="-2.04671">
        <ele>32.5</ele>
        <time>2020-06-04T16:37:09Z</time>
      </trkpt>
      <trkpt lat="47.09777" lon="-2.04671">
        <ele>32.6</ele>
        <time>2020-06-04T16:37:10Z</time>
      </trkpt>
      <trkpt lat="47.09781" lon="-2.04671">
        <ele>32.6</ele>
        <time>2020-06-04T16:37:11Z</time>
      </trkpt>
      <trkpt lat="47.09786" lon="-2.04672">
        <ele>32.7</ele>
        <time>2020-06-04T16:37:12Z</time>
      </trkpt>
      <trkpt lat="47.0979" lon="-2.04674">
        <ele>32.7</ele>
        <time>2020-06-04T16:37:13Z</time>
      </trkpt>
      <trkpt lat="47.09793" lon="-2.04676">
        <ele>32.7</ele>
        <time>2020-06-04T16:37:14Z</time>
      </trkpt>
      <trkpt lat="47.09797" lon="-2.04679">
        <ele>32.8</ele>
        <time>2020-06-04T16:37:15Z</time>
      </trkpt>
      <trkpt lat="47.09801" lon="-2.04681">
        <ele>32.8</ele>
        <time>2020-06-04T16:37:16Z</time>
      </trkpt>
      <trkpt lat="47.09804" lon="-2.04683">
        <ele>32.9</ele>
        <time>2020-06-04T16:37:17Z</time>
      </trkpt>
      <trkpt lat="47.09807" lon="-2.04685">
        <ele>32.9</ele>
        <time>2020-06-04T16:37:18Z</time>
      </trkpt>
      <trkpt lat="47.09811" lon="-2.04685">
        <ele>33</ele>
        <time>2020-06-04T16:37:19Z</time>
      </trkpt>
      <trkpt lat="47.09814" lon="-2.04684">
        <ele>33.1</ele>
        <time>2020-06-04T16:37:20Z</time>
      </trkpt>
      <trkpt lat="47.09817" lon="-2.04683">
        <ele>33.1</ele>
        <time>2020-06-04T16:37:21Z</time>
      </trkpt>
      <trkpt lat="47.0982" lon="-2.0468">
        <ele>33.2</ele>
        <time>2020-06-04T16:37:22Z</time>
      </trkpt>
      <trkpt lat="47.09823" lon="-2.04678">
        <ele>33.2</ele>
        <time>2020-06-04T16:37:23Z</time>
      </trkpt>
      <trkpt lat="47.09826" lon="-2.04677">
        <ele>33.2</ele>
        <time>2020-06-04T16:37:24Z</time>
      </trkpt>
      <trkpt lat="47.0983" lon="-2.04677">
        <ele>33.3</ele>
        <time>2020-06-04T16:37:25Z</time>
      </trkpt>
      <trkpt lat="47.09834" lon="-2.04679">
        <ele>33.3</ele>
        <time>2020-06-04T16:37:26Z</time>
      </trkpt>
      <trkpt lat="47.09838" lon="-2.0468">
        <ele>33.3</ele>
        <time>2020-06-04T16:37:27Z</time>
      </trkpt>
      <trkpt lat="47.09841" lon="-2.04683">
        <ele>33.3</ele>
        <time>2020-06-04T16:37:28Z</time>
      </trkpt>
      <trkpt lat="47.09843" lon="-2.04688">
        <ele>33.4</ele>
        <time>2020-06-04T16:37:29Z</time>
      </trkpt>
      <trkpt lat="47.09846" lon="-2.04694">
        <ele>33.5</ele>
        <time>2020-06-04T16:37:30Z</time>
      </trkpt>
      <trkpt lat="47.09849" lon="-2.04698">
        <ele>33.6</ele>
        <time>2020-06-04T16:37:31Z</time>
      </trkpt>
      <trkpt lat="47.09853" lon="-2.04702">
        <ele>33.7</ele>
        <time>2020-06-04T16:37:32Z</time>
      </trkpt>
      <trkpt lat="47.09856" lon="-2.04705">
        <ele>33.7</ele>
        <time>2020-06-04T16:37:33Z</time>
      </trkpt>
      <trkpt lat="47.09861" lon="-2.04708">
        <ele>33.8</ele>
        <time>2020-06-04T16:37:34Z</time>
      </trkpt>
      <trkpt lat="47.09865" lon="-2.04711">
        <ele>33.9</ele>
        <time>2020-06-04T16:37:35Z</time>
      </trkpt>
      <trkpt lat="47.0987" lon="-2.04713">
        <ele>34</ele>
        <time>2020-06-04T16:37:36Z</time>
      </trkpt>
      <trkpt lat="47.09874" lon="-2.04715">
        <ele>34.2</ele>
        <time>2020-06-04T16:37:37Z</time>
      </trkpt>
      <trkpt lat="47.09877" lon="-2.04719">
        <ele>34.3</ele>
        <time>2020-06-04T16:37:38Z</time>
      </trkpt>
      <trkpt lat="47.09882" lon="-2.04722">
        <ele>34.5</ele>
        <time>2020-06-04T16:37:39Z</time>
      </trkpt>
      <trkpt lat="47.09886" lon="-2.04725">
        <ele>34.6</ele>
        <time>2020-06-04T16:37:40Z</time>
      </trkpt>
      <trkpt lat="47.0989" lon="-2.04727">
        <ele>34.8</ele>
        <time>2020-06-04T16:37:41Z</time>
      </trkpt>
      <trkpt lat="47.09895" lon="-2.0473">
        <ele>34.9</ele>
        <time>2020-06-04T16:37:42Z</time>
      </trkpt>
      <trkpt lat="47.099" lon="-2.04733">
        <ele>35.1</ele>
        <time>2020-06-04T16:37:43Z</time>
      </trkpt>
      <trkpt lat="47.09906" lon="-2.04735">
        <ele>35.2</ele>
        <time>2020-06-04T16:37:44Z</time>
      </trkpt>
      <trkpt lat="47.09911" lon="-2.04738">
        <ele>35.3</ele>
        <time>2020-06-04T16:37:45Z</time>
      </trkpt>
      <trkpt lat="47.09916" lon="-2.04741">
        <ele>35.4</ele>
        <time>2020-06-04T16:37:46Z</time>
      </trkpt>
      <trkpt lat="47.09921" lon="-2.04743">
        <ele>35.5</ele>
        <time>2020-06-04T16:37:47Z</time>
      </trkpt>
      <trkpt lat="47.09926" lon="-2.04746">
        <ele>35.6</ele>
        <time>2020-06-04T16:37:48Z</time>
      </trkpt>
      <trkpt lat="47.0993" lon="-2.04749">
        <ele>35.6</ele>
        <time>2020-06-04T16:37:49Z</time>
      </trkpt>
      <trkpt lat="47.09935" lon="-2.04751">
        <ele>35.7</ele>
        <time>2020-06-04T16:37:50Z</time>
      </trkpt>
      <trkpt lat="47.0994" lon="-2.04754">
        <ele>35.7</ele>
        <time>2020-06-04T16:37:51Z</time>
      </trkpt>
      <trkpt lat="47.09944" lon="-2.04757">
        <ele>35.7</ele>
        <time>2020-06-04T16:37:52Z</time>
      </trkpt>
      <trkpt lat="47.0995" lon="-2.0476">
        <ele>35.7</ele>
        <time>2020-06-04T16:37:53Z</time>
      </trkpt>
      <trkpt lat="47.09956" lon="-2.04763">
        <ele>35.8</ele>
        <time>2020-06-04T16:37:54Z</time>
      </trkpt>
      <trkpt lat="47.09962" lon="-2.04765">
        <ele>35.8</ele>
        <time>2020-06-04T16:37:55Z</time>
      </trkpt>
      <trkpt lat="47.09967" lon="-2.04768">
        <ele>35.8</ele>
        <time>2020-06-04T16:37:56Z</time>
      </trkpt>
      <trkpt lat="47.09972" lon="-2.04771">
        <ele>35.9</ele>
        <time>2020-06-04T16:37:57Z</time>
      </trkpt>
      <trkpt lat="47.09977" lon="-2.04774">
        <ele>35.9</ele>
        <time>2020-06-04T16:37:58Z</time>
      </trkpt>
      <trkpt lat="47.09983" lon="-2.04775">
        <ele>36</ele>
        <time>2020-06-04T16:37:59Z</time>
      </trkpt>
      <trkpt lat="47.09988" lon="-2.04777">
        <ele>36</ele>
        <time>2020-06-04T16:38:00Z</time>
      </trkpt>
      <trkpt lat="47.09993" lon="-2.04781">
        <ele>36</ele>
        <time>2020-06-04T16:38:01Z</time>
      </trkpt>
      <trkpt lat="47.09999" lon="-2.04784">
        <ele>36.1</ele>
        <time>2020-06-04T16:38:02Z</time>
      </trkpt>
      <trkpt lat="47.10004" lon="-2.04787">
        <ele>36.1</ele>
        <time>2020-06-04T16:38:03Z</time>
      </trkpt>
      <trkpt lat="47.10009" lon="-2.0479">
        <ele>36.1</ele>
        <time>2020-06-04T16:38:04Z</time>
      </trkpt>
      <trkpt lat="47.10016" lon="-2.04792">
        <ele>36</ele>
        <time>2020-06-04T16:38:05Z</time>
      </trkpt>
      <trkpt lat="47.10021" lon="-2.04794">
        <ele>36</ele>
        <time>2020-06-04T16:38:06Z</time>
      </trkpt>
      <trkpt lat="47.10026" lon="-2.04797">
        <ele>36</ele>
        <time>2020-06-04T16:38:07Z</time>
      </trkpt>
      <trkpt lat="47.10032" lon="-2.04801">
        <ele>35.9</ele>
        <time>2020-06-04T16:38:08Z</time>
      </trkpt>
      <trkpt lat="47.10037" lon="-2.04804">
        <ele>35.9</ele>
        <time>2020-06-04T16:38:09Z</time>
      </trkpt>
      <trkpt lat="47.10043" lon="-2.04807">
        <ele>35.9</ele>
        <time>2020-06-04T16:38:10Z</time>
      </trkpt>
      <trkpt lat="47.10048" lon="-2.0481">
        <ele>35.8</ele>
        <time>2020-06-04T16:38:11Z</time>
      </trkpt>
      <trkpt lat="47.10053" lon="-2.04813">
        <ele>35.8</ele>
        <time>2020-06-04T16:38:12Z</time>
      </trkpt>
      <trkpt lat="47.10059" lon="-2.04815">
        <ele>35.8</ele>
        <time>2020-06-04T16:38:13Z</time>
      </trkpt>
      <trkpt lat="47.10063" lon="-2.04819">
        <ele>35.8</ele>
        <time>2020-06-04T16:38:14Z</time>
      </trkpt>
      <trkpt lat="47.10069" lon="-2.04821">
        <ele>35.7</ele>
        <time>2020-06-04T16:38:15Z</time>
      </trkpt>
      <trkpt lat="47.10074" lon="-2.04824">
        <ele>35.7</ele>
        <time>2020-06-04T16:38:16Z</time>
      </trkpt>
      <trkpt lat="47.1008" lon="-2.04827">
        <ele>35.7</ele>
        <time>2020-06-04T16:38:17Z</time>
      </trkpt>
      <trkpt lat="47.10086" lon="-2.0483">
        <ele>35.6</ele>
        <time>2020-06-04T16:38:18Z</time>
      </trkpt>
      <trkpt lat="47.10091" lon="-2.04833">
        <ele>35.6</ele>
        <time>2020-06-04T16:38:19Z</time>
      </trkpt>
      <trkpt lat="47.10097" lon="-2.04835">
        <ele>35.5</ele>
        <time>2020-06-04T16:38:20Z</time>
      </trkpt>
      <trkpt lat="47.10103" lon="-2.04839">
        <ele>35.5</ele>
        <time>2020-06-04T16:38:21Z</time>
      </trkpt>
      <trkpt lat="47.10109" lon="-2.04842">
        <ele>35.4</ele>
        <time>2020-06-04T16:38:22Z</time>
      </trkpt>
      <trkpt lat="47.10114" lon="-2.04845">
        <ele>35.4</ele>
        <time>2020-06-04T16:38:23Z</time>
      </trkpt>
      <trkpt lat="47.10121" lon="-2.04849">
        <ele>35.3</ele>
        <time>2020-06-04T16:38:24Z</time>
      </trkpt>
      <trkpt lat="47.10128" lon="-2.0485">
        <ele>35.2</ele>
        <time>2020-06-04T16:38:25Z</time>
      </trkpt>
      <trkpt lat="47.10135" lon="-2.04854">
        <ele>35</ele>
        <time>2020-06-04T16:38:26Z</time>
      </trkpt>
      <trkpt lat="47.10142" lon="-2.04857">
        <ele>34.9</ele>
        <time>2020-06-04T16:38:27Z</time>
      </trkpt>
      <trkpt lat="47.10149" lon="-2.04861">
        <ele>34.8</ele>
        <time>2020-06-04T16:38:28Z</time>
      </trkpt>
      <trkpt lat="47.10155" lon="-2.04864">
        <ele>34.7</ele>
        <time>2020-06-04T16:38:29Z</time>
      </trkpt>
      <trkpt lat="47.10161" lon="-2.04867">
        <ele>34.6</ele>
        <time>2020-06-04T16:38:30Z</time>
      </trkpt>
      <trkpt lat="47.10167" lon="-2.04871">
        <ele>34.6</ele>
        <time>2020-06-04T16:38:31Z</time>
      </trkpt>
      <trkpt lat="47.1017" lon="-2.04873">
        <ele>34.6</ele>
        <time>2020-06-04T16:38:32Z</time>
      </trkpt>
      <trkpt lat="47.10176" lon="-2.04875">
        <ele>34.5</ele>
        <time>2020-06-04T16:38:33Z</time>
      </trkpt>
      <trkpt lat="47.10182" lon="-2.04877">
        <ele>34.4</ele>
        <time>2020-06-04T16:38:34Z</time>
      </trkpt>
      <trkpt lat="47.10189" lon="-2.0488">
        <ele>34.3</ele>
        <time>2020-06-04T16:38:35Z</time>
      </trkpt>
      <trkpt lat="47.10195" lon="-2.04883">
        <ele>34.2</ele>
        <time>2020-06-04T16:38:36Z</time>
      </trkpt>
      <trkpt lat="47.10201" lon="-2.04886">
        <ele>34.1</ele>
        <time>2020-06-04T16:38:37Z</time>
      </trkpt>
      <trkpt lat="47.10207" lon="-2.04889">
        <ele>34</ele>
        <time>2020-06-04T16:38:38Z</time>
      </trkpt>
      <trkpt lat="47.10214" lon="-2.04892">
        <ele>33.9</ele>
        <time>2020-06-04T16:38:39Z</time>
      </trkpt>
      <trkpt lat="47.1022" lon="-2.04896">
        <ele>33.8</ele>
        <time>2020-06-04T16:38:40Z</time>
      </trkpt>
      <trkpt lat="47.10225" lon="-2.04899">
        <ele>33.7</ele>
        <time>2020-06-04T16:38:41Z</time>
      </trkpt>
      <trkpt lat="47.10231" lon="-2.04902">
        <ele>33.6</ele>
        <time>2020-06-04T16:38:42Z</time>
      </trkpt>
      <trkpt lat="47.10237" lon="-2.04905">
        <ele>33.5</ele>
        <time>2020-06-04T16:38:43Z</time>
      </trkpt>
      <trkpt lat="47.10242" lon="-2.04909">
        <ele>33.5</ele>
        <time>2020-06-04T16:38:44Z</time>
      </trkpt>
      <trkpt lat="47.10249" lon="-2.04912">
        <ele>33.3</ele>
        <time>2020-06-04T16:38:45Z</time>
      </trkpt>
      <trkpt lat="47.10255" lon="-2.04915">
        <ele>33.3</ele>
        <time>2020-06-04T16:38:46Z</time>
      </trkpt>
      <trkpt lat="47.10262" lon="-2.04918">
        <ele>33.2</ele>
        <time>2020-06-04T16:38:47Z</time>
      </trkpt>
      <trkpt lat="47.10269" lon="-2.04921">
        <ele>33.1</ele>
        <time>2020-06-04T16:38:48Z</time>
      </trkpt>
      <trkpt lat="47.10274" lon="-2.04924">
        <ele>33.1</ele>
        <time>2020-06-04T16:38:49Z</time>
      </trkpt>
      <trkpt lat="47.1028" lon="-2.04927">
        <ele>32.9</ele>
        <time>2020-06-04T16:38:50Z</time>
      </trkpt>
      <trkpt lat="47.10286" lon="-2.0493">
        <ele>32.7</ele>
        <time>2020-06-04T16:38:51Z</time>
      </trkpt>
      <trkpt lat="47.10293" lon="-2.04933">
        <ele>32.5</ele>
        <time>2020-06-04T16:38:52Z</time>
      </trkpt>
      <trkpt lat="47.10299" lon="-2.04935">
        <ele>32.3</ele>
        <time>2020-06-04T16:38:53Z</time>
      </trkpt>
      <trkpt lat="47.10306" lon="-2.04938">
        <ele>32</ele>
        <time>2020-06-04T16:38:54Z</time>
      </trkpt>
      <trkpt lat="47.10311" lon="-2.0494">
        <ele>31.8</ele>
        <time>2020-06-04T16:38:55Z</time>
      </trkpt>
      <trkpt lat="47.10318" lon="-2.04943">
        <ele>31.5</ele>
        <time>2020-06-04T16:38:56Z</time>
      </trkpt>
      <trkpt lat="47.10325" lon="-2.04945">
        <ele>31.3</ele>
        <time>2020-06-04T16:38:57Z</time>
      </trkpt>
      <trkpt lat="47.10332" lon="-2.04948">
        <ele>31</ele>
        <time>2020-06-04T16:38:58Z</time>
      </trkpt>
      <trkpt lat="47.10339" lon="-2.04949">
        <ele>30.8</ele>
        <time>2020-06-04T16:38:59Z</time>
      </trkpt>
      <trkpt lat="47.10347" lon="-2.04951">
        <ele>30.7</ele>
        <time>2020-06-04T16:39:00Z</time>
      </trkpt>
      <trkpt lat="47.10354" lon="-2.04953">
        <ele>30.6</ele>
        <time>2020-06-04T16:39:01Z</time>
      </trkpt>
      <trkpt lat="47.10361" lon="-2.04954">
        <ele>30.5</ele>
        <time>2020-06-04T16:39:02Z</time>
      </trkpt>
      <trkpt lat="47.10368" lon="-2.04955">
        <ele>30.5</ele>
        <time>2020-06-04T16:39:03Z</time>
      </trkpt>
      <trkpt lat="47.10375" lon="-2.04957">
        <ele>30.4</ele>
        <time>2020-06-04T16:39:04Z</time>
      </trkpt>
      <trkpt lat="47.10382" lon="-2.04958">
        <ele>30.3</ele>
        <time>2020-06-04T16:39:05Z</time>
      </trkpt>
      <trkpt lat="47.10389" lon="-2.04959">
        <ele>30.2</ele>
        <time>2020-06-04T16:39:06Z</time>
      </trkpt>
      <trkpt lat="47.10396" lon="-2.0496">
        <ele>30.1</ele>
        <time>2020-06-04T16:39:07Z</time>
      </trkpt>
      <trkpt lat="47.10404" lon="-2.0496">
        <ele>30</ele>
        <time>2020-06-04T16:39:08Z</time>
      </trkpt>
      <trkpt lat="47.10411" lon="-2.04962">
        <ele>30</ele>
        <time>2020-06-04T16:39:09Z</time>
      </trkpt>
      <trkpt lat="47.10418" lon="-2.04963">
        <ele>29.9</ele>
        <time>2020-06-04T16:39:10Z</time>
      </trkpt>
      <trkpt lat="47.10425" lon="-2.04963">
        <ele>29.8</ele>
        <time>2020-06-04T16:39:11Z</time>
      </trkpt>
      <trkpt lat="47.10432" lon="-2.04964">
        <ele>29.8</ele>
        <time>2020-06-04T16:39:12Z</time>
      </trkpt>
      <trkpt lat="47.10439" lon="-2.04965">
        <ele>29.7</ele>
        <time>2020-06-04T16:39:13Z</time>
      </trkpt>
      <trkpt lat="47.10446" lon="-2.04966">
        <ele>29.7</ele>
        <time>2020-06-04T16:39:14Z</time>
      </trkpt>
      <trkpt lat="47.10452" lon="-2.04966">
        <ele>29.7</ele>
        <time>2020-06-04T16:39:15Z</time>
      </trkpt>
      <trkpt lat="47.10459" lon="-2.04965">
        <ele>29.7</ele>
        <time>2020-06-04T16:39:16Z</time>
      </trkpt>
      <trkpt lat="47.10466" lon="-2.04966">
        <ele>29.7</ele>
        <time>2020-06-04T16:39:17Z</time>
      </trkpt>
      <trkpt lat="47.10473" lon="-2.04967">
        <ele>29.6</ele>
        <time>2020-06-04T16:39:18Z</time>
      </trkpt>
      <trkpt lat="47.1048" lon="-2.04967">
        <ele>29.6</ele>
        <time>2020-06-04T16:39:19Z</time>
      </trkpt>
      <trkpt lat="47.10487" lon="-2.04965">
        <ele>29.5</ele>
        <time>2020-06-04T16:39:20Z</time>
      </trkpt>
      <trkpt lat="47.10494" lon="-2.04962">
        <ele>29.4</ele>
        <time>2020-06-04T16:39:21Z</time>
      </trkpt>
      <trkpt lat="47.10501" lon="-2.04962">
        <ele>29.4</ele>
        <time>2020-06-04T16:39:22Z</time>
      </trkpt>
      <trkpt lat="47.10508" lon="-2.04961">
        <ele>29.4</ele>
        <time>2020-06-04T16:39:23Z</time>
      </trkpt>
      <trkpt lat="47.10514" lon="-2.04959">
        <ele>29.3</ele>
        <time>2020-06-04T16:39:24Z</time>
      </trkpt>
      <trkpt lat="47.10521" lon="-2.04958">
        <ele>29.3</ele>
        <time>2020-06-04T16:39:25Z</time>
      </trkpt>
      <trkpt lat="47.10527" lon="-2.04956">
        <ele>29.3</ele>
        <time>2020-06-04T16:39:26Z</time>
      </trkpt>
      <trkpt lat="47.10534" lon="-2.04954">
        <ele>29.3</ele>
        <time>2020-06-04T16:39:27Z</time>
      </trkpt>
      <trkpt lat="47.1054" lon="-2.04951">
        <ele>29.2</ele>
        <time>2020-06-04T16:39:28Z</time>
      </trkpt>
      <trkpt lat="47.10546" lon="-2.04949">
        <ele>29.2</ele>
        <time>2020-06-04T16:39:29Z</time>
      </trkpt>
      <trkpt lat="47.10552" lon="-2.04947">
        <ele>29.2</ele>
        <time>2020-06-04T16:39:30Z</time>
      </trkpt>
      <trkpt lat="47.10557" lon="-2.04943">
        <ele>29.2</ele>
        <time>2020-06-04T16:39:31Z</time>
      </trkpt>
      <trkpt lat="47.10562" lon="-2.04941">
        <ele>29.1</ele>
        <time>2020-06-04T16:39:32Z</time>
      </trkpt>
      <trkpt lat="47.10567" lon="-2.04939">
        <ele>29.1</ele>
        <time>2020-06-04T16:39:33Z</time>
      </trkpt>
      <trkpt lat="47.10572" lon="-2.04938">
        <ele>29.1</ele>
        <time>2020-06-04T16:39:34Z</time>
      </trkpt>
      <trkpt lat="47.10576" lon="-2.04935">
        <ele>29.1</ele>
        <time>2020-06-04T16:39:35Z</time>
      </trkpt>
      <trkpt lat="47.1058" lon="-2.04934">
        <ele>28.8</ele>
        <time>2020-06-04T16:39:36Z</time>
      </trkpt>
      <trkpt lat="47.10583" lon="-2.04933">
        <ele>28.7</ele>
        <time>2020-06-04T16:39:37Z</time>
      </trkpt>
      <trkpt lat="47.10587" lon="-2.04933">
        <ele>28.6</ele>
        <time>2020-06-04T16:39:38Z</time>
      </trkpt>
      <trkpt lat="47.1059" lon="-2.04938">
        <ele>28.4</ele>
        <time>2020-06-04T16:39:39Z</time>
      </trkpt>
      <trkpt lat="47.10593" lon="-2.04944">
        <ele>28.3</ele>
        <time>2020-06-04T16:39:40Z</time>
      </trkpt>
      <trkpt lat="47.10596" lon="-2.04947">
        <ele>28.2</ele>
        <time>2020-06-04T16:39:41Z</time>
      </trkpt>
      <trkpt lat="47.10599" lon="-2.04952">
        <ele>28</ele>
        <time>2020-06-04T16:39:42Z</time>
      </trkpt>
      <trkpt lat="47.10602" lon="-2.04956">
        <ele>27.9</ele>
        <time>2020-06-04T16:39:43Z</time>
      </trkpt>
      <trkpt lat="47.10605" lon="-2.0496">
        <ele>27.8</ele>
        <time>2020-06-04T16:39:44Z</time>
      </trkpt>
      <trkpt lat="47.10608" lon="-2.04963">
        <ele>27.7</ele>
        <time>2020-06-04T16:39:45Z</time>
      </trkpt>
      <trkpt lat="47.10612" lon="-2.04967">
        <ele>27.6</ele>
        <time>2020-06-04T16:39:46Z</time>
      </trkpt>
      <trkpt lat="47.10615" lon="-2.0497">
        <ele>27.5</ele>
        <time>2020-06-04T16:39:47Z</time>
      </trkpt>
      <trkpt lat="47.10615" lon="-2.04975">
        <ele>27.4</ele>
        <time>2020-06-04T16:39:48Z</time>
      </trkpt>
      <trkpt lat="47.10613" lon="-2.04981">
        <ele>27.4</ele>
        <time>2020-06-04T16:39:49Z</time>
      </trkpt>
      <trkpt lat="47.10611" lon="-2.04989">
        <ele>27.4</ele>
        <time>2020-06-04T16:39:50Z</time>
      </trkpt>
      <trkpt lat="47.10609" lon="-2.04997">
        <ele>27.4</ele>
        <time>2020-06-04T16:39:51Z</time>
      </trkpt>
      <trkpt lat="47.10607" lon="-2.05004">
        <ele>27.4</ele>
        <time>2020-06-04T16:39:52Z</time>
      </trkpt>
      <trkpt lat="47.10606" lon="-2.05012">
        <ele>27.3</ele>
        <time>2020-06-04T16:39:53Z</time>
      </trkpt>
      <trkpt lat="47.10603" lon="-2.0502">
        <ele>27.3</ele>
        <time>2020-06-04T16:39:54Z</time>
      </trkpt>
      <trkpt lat="47.10602" lon="-2.05026">
        <ele>27.3</ele>
        <time>2020-06-04T16:39:55Z</time>
      </trkpt>
      <trkpt lat="47.106" lon="-2.05031">
        <ele>27.3</ele>
        <time>2020-06-04T16:39:56Z</time>
      </trkpt>
      <trkpt lat="47.10599" lon="-2.05035">
        <ele>27.3</ele>
        <time>2020-06-04T16:39:57Z</time>
      </trkpt>
      <trkpt lat="47.10598" lon="-2.05036">
        <ele>27.3</ele>
        <time>2020-06-04T16:39:58Z</time>
      </trkpt>
      <trkpt lat="47.10598" lon="-2.05038">
        <ele>27.3</ele>
        <time>2020-06-04T16:39:59Z</time>
      </trkpt>
      <trkpt lat="47.10598" lon="-2.05041">
        <ele>27.3</ele>
        <time>2020-06-04T16:40:00Z</time>
      </trkpt>
      <trkpt lat="47.10598" lon="-2.05042">
        <ele>27.2</ele>
        <time>2020-06-04T16:40:01Z</time>
      </trkpt>
      <trkpt lat="47.10597" lon="-2.05044">
        <ele>27.2</ele>
        <time>2020-06-04T16:40:02Z</time>
      </trkpt>
      <trkpt lat="47.10596" lon="-2.05046">
        <ele>27.2</ele>
        <time>2020-06-04T16:40:03Z</time>
      </trkpt>
      <trkpt lat="47.10595" lon="-2.05047">
        <ele>27.2</ele>
        <time>2020-06-04T16:40:04Z</time>
      </trkpt>
      <trkpt lat="47.10594" lon="-2.05049">
        <ele>27.2</ele>
        <time>2020-06-04T16:40:05Z</time>
      </trkpt>
      <trkpt lat="47.10593" lon="-2.05049">
        <ele>27.2</ele>
        <time>2020-06-04T16:40:06Z</time>
      </trkpt>
      <trkpt lat="47.10593" lon="-2.05047">
        <ele>27.2</ele>
        <time>2020-06-04T16:40:07Z</time>
      </trkpt>
      <trkpt lat="47.10593" lon="-2.05045">
        <ele>27.2</ele>
        <time>2020-06-04T16:40:08Z</time>
      </trkpt>
      <trkpt lat="47.10593" lon="-2.05043">
        <ele>27.2</ele>
        <time>2020-06-04T16:40:09Z</time>
      </trkpt>
      <trkpt lat="47.10595" lon="-2.05041">
        <ele>27.2</ele>
        <time>2020-06-04T16:40:10Z</time>
      </trkpt>
      <trkpt lat="47.10595" lon="-2.05038">
        <ele>27.2</ele>
        <time>2020-06-04T16:40:11Z</time>
      </trkpt>
      <trkpt lat="47.10596" lon="-2.05034">
        <ele>27.2</ele>
        <time>2020-06-04T16:40:12Z</time>
      </trkpt>
      <trkpt lat="47.10596" lon="-2.05033">
        <ele>27.2</ele>
        <time>2020-06-04T16:40:13Z</time>
      </trkpt>
      <trkpt lat="47.10597" lon="-2.05029">
        <ele>27.2</ele>
        <time>2020-06-04T16:40:14Z</time>
      </trkpt>
      <trkpt lat="47.10597" lon="-2.05027">
        <ele>27.2</ele>
        <time>2020-06-04T16:40:15Z</time>
      </trkpt>
      <trkpt lat="47.10597" lon="-2.05025">
        <ele>27.2</ele>
        <time>2020-06-04T16:40:16Z</time>
      </trkpt>
      <trkpt lat="47.10598" lon="-2.05022">
        <ele>27.2</ele>
        <time>2020-06-04T16:40:17Z</time>
      </trkpt>
      <trkpt lat="47.10598" lon="-2.0502">
        <ele>27.2</ele>
        <time>2020-06-04T16:40:18Z</time>
      </trkpt>
      <trkpt lat="47.10599" lon="-2.05018">
        <ele>27.2</ele>
        <time>2020-06-04T16:40:19Z</time>
      </trkpt>
      <trkpt lat="47.106" lon="-2.05016">
        <ele>27.2</ele>
        <time>2020-06-04T16:40:20Z</time>
      </trkpt>
      <trkpt lat="47.106" lon="-2.05013">
        <ele>27.3</ele>
        <time>2020-06-04T16:40:21Z</time>
      </trkpt>
      <trkpt lat="47.10601" lon="-2.05011">
        <ele>27.3</ele>
        <time>2020-06-04T16:40:22Z</time>
      </trkpt>
      <trkpt lat="47.106" lon="-2.05009">
        <ele>27.3</ele>
        <time>2020-06-04T16:40:23Z</time>
      </trkpt>
      <trkpt lat="47.106" lon="-2.05007">
        <ele>27.3</ele>
        <time>2020-06-04T16:40:24Z</time>
      </trkpt>
      <trkpt lat="47.106" lon="-2.05004">
        <ele>27.3</ele>
        <time>2020-06-04T16:40:25Z</time>
      </trkpt>
      <trkpt lat="47.106" lon="-2.05002">
        <ele>27.3</ele>
        <time>2020-06-04T16:40:26Z</time>
      </trkpt>
      <trkpt lat="47.106" lon="-2.05">
        <ele>27.3</ele>
        <time>2020-06-04T16:40:27Z</time>
      </trkpt>
      <trkpt lat="47.106" lon="-2.04998">
        <ele>27.3</ele>
        <time>2020-06-04T16:40:28Z</time>
      </trkpt>
      <trkpt lat="47.10601" lon="-2.04995">
        <ele>27.3</ele>
        <time>2020-06-04T16:40:29Z</time>
      </trkpt>
      <trkpt lat="47.10602" lon="-2.04991">
        <ele>27.4</ele>
        <time>2020-06-04T16:40:30Z</time>
      </trkpt>
      <trkpt lat="47.10602" lon="-2.0499">
        <ele>27.4</ele>
        <time>2020-06-04T16:40:31Z</time>
      </trkpt>
      <trkpt lat="47.10602" lon="-2.04987">
        <ele>27.4</ele>
        <time>2020-06-04T16:40:32Z</time>
      </trkpt>
      <trkpt lat="47.10602" lon="-2.04985">
        <ele>27.4</ele>
        <time>2020-06-04T16:40:33Z</time>
      </trkpt>
      <trkpt lat="47.10603" lon="-2.04982">
        <ele>27.4</ele>
        <time>2020-06-04T16:40:34Z</time>
      </trkpt>
      <trkpt lat="47.10604" lon="-2.0498">
        <ele>27.4</ele>
        <time>2020-06-04T16:40:35Z</time>
      </trkpt>
      <trkpt lat="47.10606" lon="-2.04979">
        <ele>27.4</ele>
        <time>2020-06-04T16:40:36Z</time>
      </trkpt>
      <trkpt lat="47.10607" lon="-2.04979">
        <ele>27.4</ele>
        <time>2020-06-04T16:40:37Z</time>
      </trkpt>
      <trkpt lat="47.10608" lon="-2.04979">
        <ele>27.4</ele>
        <time>2020-06-04T16:40:38Z</time>
      </trkpt>
      <trkpt lat="47.10611" lon="-2.04983">
        <ele>27.3</ele>
        <time>2020-06-04T16:40:39Z</time>
      </trkpt>
      <trkpt lat="47.10611" lon="-2.04984">
        <ele>27.3</ele>
        <time>2020-06-04T16:40:40Z</time>
      </trkpt>
      <trkpt lat="47.10613" lon="-2.0499">
        <ele>27.2</ele>
        <time>2020-06-04T16:40:41Z</time>
      </trkpt>
      <trkpt lat="47.10613" lon="-2.04991">
        <ele>27.2</ele>
        <time>2020-06-04T16:40:42Z</time>
      </trkpt>
      <trkpt lat="47.10614" lon="-2.04996">
        <ele>27.1</ele>
        <time>2020-06-04T16:40:43Z</time>
      </trkpt>
      <trkpt lat="47.10614" lon="-2.04998">
        <ele>27.1</ele>
        <time>2020-06-04T16:40:44Z</time>
      </trkpt>
      <trkpt lat="47.10615" lon="-2.05003">
        <ele>27</ele>
        <time>2020-06-04T16:40:45Z</time>
      </trkpt>
      <trkpt lat="47.10615" lon="-2.05005">
        <ele>27</ele>
        <time>2020-06-04T16:40:46Z</time>
      </trkpt>
      <trkpt lat="47.10616" lon="-2.05011">
        <ele>27</ele>
        <time>2020-06-04T16:40:47Z</time>
      </trkpt>
      <trkpt lat="47.10616" lon="-2.05012">
        <ele>26.9</ele>
        <time>2020-06-04T16:40:48Z</time>
      </trkpt>
      <trkpt lat="47.10617" lon="-2.05018">
        <ele>26.9</ele>
        <time>2020-06-04T16:40:49Z</time>
      </trkpt>
      <trkpt lat="47.10617" lon="-2.0502">
        <ele>26.8</ele>
        <time>2020-06-04T16:40:50Z</time>
      </trkpt>
      <trkpt lat="47.10617" lon="-2.05024">
        <ele>26.8</ele>
        <time>2020-06-04T16:40:51Z</time>
      </trkpt>
      <trkpt lat="47.10616" lon="-2.05028">
        <ele>26.7</ele>
        <time>2020-06-04T16:40:52Z</time>
      </trkpt>
      <trkpt lat="47.10616" lon="-2.05033">
        <ele>26.7</ele>
        <time>2020-06-04T16:40:53Z</time>
      </trkpt>
      <trkpt lat="47.10616" lon="-2.05035">
        <ele>26.7</ele>
        <time>2020-06-04T16:40:54Z</time>
      </trkpt>
      <trkpt lat="47.10616" lon="-2.05039">
        <ele>26.6</ele>
        <time>2020-06-04T16:40:55Z</time>
      </trkpt>
      <trkpt lat="47.10615" lon="-2.05043">
        <ele>26.6</ele>
        <time>2020-06-04T16:40:56Z</time>
      </trkpt>
      <trkpt lat="47.10613" lon="-2.05047">
        <ele>26.6</ele>
        <time>2020-06-04T16:40:57Z</time>
      </trkpt>
      <trkpt lat="47.10612" lon="-2.05052">
        <ele>26.5</ele>
        <time>2020-06-04T16:40:58Z</time>
      </trkpt>
      <trkpt lat="47.10612" lon="-2.05054">
        <ele>26.5</ele>
        <time>2020-06-04T16:40:59Z</time>
      </trkpt>
      <trkpt lat="47.10611" lon="-2.05058">
        <ele>26.5</ele>
        <time>2020-06-04T16:41:00Z</time>
      </trkpt>
      <trkpt lat="47.1061" lon="-2.05062">
        <ele>26.4</ele>
        <time>2020-06-04T16:41:01Z</time>
      </trkpt>
      <trkpt lat="47.10609" lon="-2.05066">
        <ele>26.4</ele>
        <time>2020-06-04T16:41:02Z</time>
      </trkpt>
      <trkpt lat="47.10608" lon="-2.05067">
        <ele>26.4</ele>
        <time>2020-06-04T16:41:03Z</time>
      </trkpt>
      <trkpt lat="47.10607" lon="-2.0507">
        <ele>26.4</ele>
        <time>2020-06-04T16:41:04Z</time>
      </trkpt>
      <trkpt lat="47.10606" lon="-2.05072">
        <ele>26.3</ele>
        <time>2020-06-04T16:41:05Z</time>
      </trkpt>
      <trkpt lat="47.10606" lon="-2.05074">
        <ele>26.3</ele>
        <time>2020-06-04T16:41:06Z</time>
      </trkpt>
      <trkpt lat="47.10605" lon="-2.05076">
        <ele>26.3</ele>
        <time>2020-06-04T16:41:07Z</time>
      </trkpt>
      <trkpt lat="47.10604" lon="-2.05077">
        <ele>26.2</ele>
        <time>2020-06-04T16:41:08Z</time>
      </trkpt>
      <trkpt lat="47.10603" lon="-2.05079">
        <ele>26.2</ele>
        <time>2020-06-04T16:41:09Z</time>
      </trkpt>
      <trkpt lat="47.10603" lon="-2.0508">
        <ele>26.2</ele>
        <time>2020-06-04T16:41:10Z</time>
      </trkpt>
      <trkpt lat="47.10602" lon="-2.05081">
        <ele>26.1</ele>
        <time>2020-06-04T16:41:11Z</time>
      </trkpt>
      <trkpt lat="47.10602" lon="-2.05082">
        <ele>26.1</ele>
        <time>2020-06-04T16:41:12Z</time>
      </trkpt>
      <trkpt lat="47.10602" lon="-2.05082">
        <ele>26.1</ele>
        <time>2020-06-04T16:41:13Z</time>
      </trkpt>
      <trkpt lat="47.10602" lon="-2.05083">
        <ele>26.1</ele>
        <time>2020-06-04T16:41:14Z</time>
      </trkpt>
      <trkpt lat="47.10602" lon="-2.05083">
        <ele>26.1</ele>
        <time>2020-06-04T16:41:15Z</time>
      </trkpt>
      <trkpt lat="47.10602" lon="-2.05083">
        <ele>26.1</ele>
        <time>2020-06-04T16:41:16Z</time>
      </trkpt>
      <trkpt lat="47.10602" lon="-2.05083">
        <ele>26.1</ele>
        <time>2020-06-04T16:41:17Z</time>
      </trkpt>
      <trkpt lat="47.10602" lon="-2.05083">
        <ele>26.1</ele>
        <time>2020-06-04T16:41:18Z</time>
      </trkpt>
      <trkpt lat="47.10601" lon="-2.05083">
        <ele>26.1</ele>
        <time>2020-06-04T16:41:19Z</time>
      </trkpt>
      <trkpt lat="47.10602" lon="-2.05083">
        <ele>26</ele>
        <time>2020-06-04T16:41:20Z</time>
      </trkpt>
      <trkpt lat="47.10602" lon="-2.05084">
        <ele>26</ele>
        <time>2020-06-04T16:41:21Z</time>
      </trkpt>
      <trkpt lat="47.10602" lon="-2.05083">
        <ele>26</ele>
        <time>2020-06-04T16:41:22Z</time>
      </trkpt>
      <trkpt lat="47.10601" lon="-2.05083">
        <ele>26</ele>
        <time>2020-06-04T16:41:23Z</time>
      </trkpt>
      <trkpt lat="47.10604" lon="-2.05089">
        <ele>25.9</ele>
        <time>2020-06-04T16:41:50Z</time>
      </trkpt>
      <trkpt lat="47.10606" lon="-2.05092">
        <ele>25.8</ele>
        <time>2020-06-04T16:41:51Z</time>
      </trkpt>
      <trkpt lat="47.10609" lon="-2.05097">
        <ele>25.6</ele>
        <time>2020-06-04T16:41:52Z</time>
      </trkpt>
      <trkpt lat="47.10611" lon="-2.05103">
        <ele>25.5</ele>
        <time>2020-06-04T16:41:53Z</time>
      </trkpt>
      <trkpt lat="47.10613" lon="-2.05109">
        <ele>25.4</ele>
        <time>2020-06-04T16:41:54Z</time>
      </trkpt>
      <trkpt lat="47.10615" lon="-2.05116">
        <ele>25.3</ele>
        <time>2020-06-04T16:41:55Z</time>
      </trkpt>
      <trkpt lat="47.10618" lon="-2.05123">
        <ele>25.1</ele>
        <time>2020-06-04T16:41:56Z</time>
      </trkpt>
      <trkpt lat="47.10619" lon="-2.05131">
        <ele>25</ele>
        <time>2020-06-04T16:41:57Z</time>
      </trkpt>
      <trkpt lat="47.10621" lon="-2.05139">
        <ele>24.9</ele>
        <time>2020-06-04T16:41:58Z</time>
      </trkpt>
      <trkpt lat="47.10622" lon="-2.05147">
        <ele>24.7</ele>
        <time>2020-06-04T16:41:59Z</time>
      </trkpt>
      <trkpt lat="47.10625" lon="-2.05154">
        <ele>24.6</ele>
        <time>2020-06-04T16:42:00Z</time>
      </trkpt>
      <trkpt lat="47.10627" lon="-2.05162">
        <ele>24.4</ele>
        <time>2020-06-04T16:42:01Z</time>
      </trkpt>
      <trkpt lat="47.10629" lon="-2.0517">
        <ele>24.3</ele>
        <time>2020-06-04T16:42:02Z</time>
      </trkpt>
      <trkpt lat="47.1063" lon="-2.05179">
        <ele>24.1</ele>
        <time>2020-06-04T16:42:03Z</time>
      </trkpt>
      <trkpt lat="47.10632" lon="-2.05187">
        <ele>23.9</ele>
        <time>2020-06-04T16:42:04Z</time>
      </trkpt>
      <trkpt lat="47.10633" lon="-2.05196">
        <ele>23.8</ele>
        <time>2020-06-04T16:42:05Z</time>
      </trkpt>
      <trkpt lat="47.10635" lon="-2.05204">
        <ele>23.6</ele>
        <time>2020-06-04T16:42:06Z</time>
      </trkpt>
      <trkpt lat="47.10637" lon="-2.05213">
        <ele>23.5</ele>
        <time>2020-06-04T16:42:07Z</time>
      </trkpt>
      <trkpt lat="47.10639" lon="-2.05222">
        <ele>23.4</ele>
        <time>2020-06-04T16:42:08Z</time>
      </trkpt>
      <trkpt lat="47.10641" lon="-2.0523">
        <ele>23.2</ele>
        <time>2020-06-04T16:42:09Z</time>
      </trkpt>
      <trkpt lat="47.10646" lon="-2.05235">
        <ele>23.1</ele>
        <time>2020-06-04T16:42:10Z</time>
      </trkpt>
      <trkpt lat="47.10652" lon="-2.05238">
        <ele>22.9</ele>
        <time>2020-06-04T16:42:11Z</time>
      </trkpt>
      <trkpt lat="47.10658" lon="-2.05239">
        <ele>22.8</ele>
        <time>2020-06-04T16:42:12Z</time>
      </trkpt>
      <trkpt lat="47.10665" lon="-2.05239">
        <ele>22.7</ele>
        <time>2020-06-04T16:42:13Z</time>
      </trkpt>
      <trkpt lat="47.10672" lon="-2.05239">
        <ele>22.6</ele>
        <time>2020-06-04T16:42:14Z</time>
      </trkpt>
      <trkpt lat="47.10679" lon="-2.05238">
        <ele>22.5</ele>
        <time>2020-06-04T16:42:15Z</time>
      </trkpt>
      <trkpt lat="47.10686" lon="-2.05237">
        <ele>22.5</ele>
        <time>2020-06-04T16:42:16Z</time>
      </trkpt>
      <trkpt lat="47.10693" lon="-2.05236">
        <ele>22.5</ele>
        <time>2020-06-04T16:42:17Z</time>
      </trkpt>
      <trkpt lat="47.10699" lon="-2.05236">
        <ele>22.5</ele>
        <time>2020-06-04T16:42:18Z</time>
      </trkpt>
      <trkpt lat="47.10706" lon="-2.05236">
        <ele>22.5</ele>
        <time>2020-06-04T16:42:19Z</time>
      </trkpt>
      <trkpt lat="47.10712" lon="-2.05235">
        <ele>22.4</ele>
        <time>2020-06-04T16:42:20Z</time>
      </trkpt>
      <trkpt lat="47.10718" lon="-2.05235">
        <ele>22.4</ele>
        <time>2020-06-04T16:42:21Z</time>
      </trkpt>
      <trkpt lat="47.10724" lon="-2.05234">
        <ele>22.4</ele>
        <time>2020-06-04T16:42:22Z</time>
      </trkpt>
      <trkpt lat="47.10731" lon="-2.05233">
        <ele>22.3</ele>
        <time>2020-06-04T16:42:23Z</time>
      </trkpt>
      <trkpt lat="47.10737" lon="-2.05233">
        <ele>22.3</ele>
        <time>2020-06-04T16:42:24Z</time>
      </trkpt>
      <trkpt lat="47.10743" lon="-2.05234">
        <ele>22.2</ele>
        <time>2020-06-04T16:42:25Z</time>
      </trkpt>
      <trkpt lat="47.10749" lon="-2.05234">
        <ele>22.2</ele>
        <time>2020-06-04T16:42:26Z</time>
      </trkpt>
      <trkpt lat="47.10755" lon="-2.05233">
        <ele>22.2</ele>
        <time>2020-06-04T16:42:27Z</time>
      </trkpt>
      <trkpt lat="47.10761" lon="-2.05232">
        <ele>22.2</ele>
        <time>2020-06-04T16:42:28Z</time>
      </trkpt>
      <trkpt lat="47.10767" lon="-2.05233">
        <ele>22.2</ele>
        <time>2020-06-04T16:42:29Z</time>
      </trkpt>
      <trkpt lat="47.10773" lon="-2.05234">
        <ele>22.2</ele>
        <time>2020-06-04T16:42:30Z</time>
      </trkpt>
      <trkpt lat="47.10779" lon="-2.05235">
        <ele>22.2</ele>
        <time>2020-06-04T16:42:31Z</time>
      </trkpt>
      <trkpt lat="47.10785" lon="-2.05236">
        <ele>22.2</ele>
        <time>2020-06-04T16:42:32Z</time>
      </trkpt>
      <trkpt lat="47.10791" lon="-2.05236">
        <ele>22.2</ele>
        <time>2020-06-04T16:42:33Z</time>
      </trkpt>
      <trkpt lat="47.10797" lon="-2.05236">
        <ele>22.2</ele>
        <time>2020-06-04T16:42:34Z</time>
      </trkpt>
      <trkpt lat="47.10803" lon="-2.05237">
        <ele>22.1</ele>
        <time>2020-06-04T16:42:35Z</time>
      </trkpt>
      <trkpt lat="47.10808" lon="-2.05237">
        <ele>22.1</ele>
        <time>2020-06-04T16:42:36Z</time>
      </trkpt>
      <trkpt lat="47.10814" lon="-2.05236">
        <ele>22.1</ele>
        <time>2020-06-04T16:42:37Z</time>
      </trkpt>
      <trkpt lat="47.1082" lon="-2.05236">
        <ele>22.1</ele>
        <time>2020-06-04T16:42:38Z</time>
      </trkpt>
      <trkpt lat="47.10826" lon="-2.05237">
        <ele>22.1</ele>
        <time>2020-06-04T16:42:39Z</time>
      </trkpt>
      <trkpt lat="47.10833" lon="-2.05238">
        <ele>22.2</ele>
        <time>2020-06-04T16:42:40Z</time>
      </trkpt>
      <trkpt lat="47.10839" lon="-2.05238">
        <ele>22.2</ele>
        <time>2020-06-04T16:42:41Z</time>
      </trkpt>
      <trkpt lat="47.10845" lon="-2.05237">
        <ele>22.2</ele>
        <time>2020-06-04T16:42:42Z</time>
      </trkpt>
      <trkpt lat="47.10851" lon="-2.05237">
        <ele>22.2</ele>
        <time>2020-06-04T16:42:43Z</time>
      </trkpt>
      <trkpt lat="47.10857" lon="-2.05236">
        <ele>22.2</ele>
        <time>2020-06-04T16:42:44Z</time>
      </trkpt>
      <trkpt lat="47.10863" lon="-2.05235">
        <ele>22.2</ele>
        <time>2020-06-04T16:42:45Z</time>
      </trkpt>
      <trkpt lat="47.10868" lon="-2.05235">
        <ele>22.2</ele>
        <time>2020-06-04T16:42:46Z</time>
      </trkpt>
      <trkpt lat="47.10873" lon="-2.05235">
        <ele>22.3</ele>
        <time>2020-06-04T16:42:47Z</time>
      </trkpt>
      <trkpt lat="47.10878" lon="-2.05236">
        <ele>22.3</ele>
        <time>2020-06-04T16:42:48Z</time>
      </trkpt>
      <trkpt lat="47.10883" lon="-2.05237">
        <ele>22.4</ele>
        <time>2020-06-04T16:42:49Z</time>
      </trkpt>
      <trkpt lat="47.10887" lon="-2.05241">
        <ele>22.5</ele>
        <time>2020-06-04T16:42:50Z</time>
      </trkpt>
      <trkpt lat="47.10891" lon="-2.05246">
        <ele>22.6</ele>
        <time>2020-06-04T16:42:51Z</time>
      </trkpt>
      <trkpt lat="47.10892" lon="-2.05254">
        <ele>22.7</ele>
        <time>2020-06-04T16:42:52Z</time>
      </trkpt>
      <trkpt lat="47.10893" lon="-2.05263">
        <ele>22.8</ele>
        <time>2020-06-04T16:42:53Z</time>
      </trkpt>
      <trkpt lat="47.10893" lon="-2.05272">
        <ele>22.9</ele>
        <time>2020-06-04T16:42:54Z</time>
      </trkpt>
      <trkpt lat="47.10893" lon="-2.0528">
        <ele>23.1</ele>
        <time>2020-06-04T16:42:55Z</time>
      </trkpt>
      <trkpt lat="47.10894" lon="-2.05288">
        <ele>23.2</ele>
        <time>2020-06-04T16:42:56Z</time>
      </trkpt>
      <trkpt lat="47.10895" lon="-2.05297">
        <ele>23.4</ele>
        <time>2020-06-04T16:42:57Z</time>
      </trkpt>
      <trkpt lat="47.10896" lon="-2.05306">
        <ele>23.6</ele>
        <time>2020-06-04T16:42:58Z</time>
      </trkpt>
      <trkpt lat="47.10897" lon="-2.05315">
        <ele>23.8</ele>
        <time>2020-06-04T16:42:59Z</time>
      </trkpt>
      <trkpt lat="47.10897" lon="-2.05323">
        <ele>24</ele>
        <time>2020-06-04T16:43:00Z</time>
      </trkpt>
      <trkpt lat="47.10897" lon="-2.05332">
        <ele>24.2</ele>
        <time>2020-06-04T16:43:01Z</time>
      </trkpt>
      <trkpt lat="47.10897" lon="-2.0534">
        <ele>24.4</ele>
        <time>2020-06-04T16:43:02Z</time>
      </trkpt>
      <trkpt lat="47.10897" lon="-2.05349">
        <ele>24.6</ele>
        <time>2020-06-04T16:43:03Z</time>
      </trkpt>
      <trkpt lat="47.10898" lon="-2.05357">
        <ele>24.7</ele>
        <time>2020-06-04T16:43:04Z</time>
      </trkpt>
      <trkpt lat="47.10898" lon="-2.05366">
        <ele>24.9</ele>
        <time>2020-06-04T16:43:05Z</time>
      </trkpt>
      <trkpt lat="47.10899" lon="-2.05374">
        <ele>25.1</ele>
        <time>2020-06-04T16:43:06Z</time>
      </trkpt>
      <trkpt lat="47.10899" lon="-2.05383">
        <ele>25.4</ele>
        <time>2020-06-04T16:43:07Z</time>
      </trkpt>
      <trkpt lat="47.10899" lon="-2.05392">
        <ele>25.6</ele>
        <time>2020-06-04T16:43:08Z</time>
      </trkpt>
      <trkpt lat="47.109" lon="-2.054">
        <ele>25.7</ele>
        <time>2020-06-04T16:43:09Z</time>
      </trkpt>
      <trkpt lat="47.10899" lon="-2.05408">
        <ele>25.9</ele>
        <time>2020-06-04T16:43:10Z</time>
      </trkpt>
      <trkpt lat="47.10899" lon="-2.05416">
        <ele>26</ele>
        <time>2020-06-04T16:43:11Z</time>
      </trkpt>
      <trkpt lat="47.109" lon="-2.05424">
        <ele>26.2</ele>
        <time>2020-06-04T16:43:12Z</time>
      </trkpt>
      <trkpt lat="47.109" lon="-2.05433">
        <ele>26.3</ele>
        <time>2020-06-04T16:43:13Z</time>
      </trkpt>
      <trkpt lat="47.10901" lon="-2.05441">
        <ele>26.4</ele>
        <time>2020-06-04T16:43:14Z</time>
      </trkpt>
      <trkpt lat="47.10901" lon="-2.05449">
        <ele>26.5</ele>
        <time>2020-06-04T16:43:15Z</time>
      </trkpt>
      <trkpt lat="47.10902" lon="-2.05457">
        <ele>26.6</ele>
        <time>2020-06-04T16:43:16Z</time>
      </trkpt>
      <trkpt lat="47.10903" lon="-2.05465">
        <ele>26.7</ele>
        <time>2020-06-04T16:43:17Z</time>
      </trkpt>
      <trkpt lat="47.10902" lon="-2.05473">
        <ele>26.8</ele>
        <time>2020-06-04T16:43:18Z</time>
      </trkpt>
      <trkpt lat="47.10902" lon="-2.0548">
        <ele>26.8</ele>
        <time>2020-06-04T16:43:19Z</time>
      </trkpt>
      <trkpt lat="47.10902" lon="-2.05488">
        <ele>26.9</ele>
        <time>2020-06-04T16:43:20Z</time>
      </trkpt>
      <trkpt lat="47.10902" lon="-2.05495">
        <ele>26.9</ele>
        <time>2020-06-04T16:43:21Z</time>
      </trkpt>
      <trkpt lat="47.10902" lon="-2.05503">
        <ele>26.9</ele>
        <time>2020-06-04T16:43:22Z</time>
      </trkpt>
      <trkpt lat="47.10902" lon="-2.05512">
        <ele>26.9</ele>
        <time>2020-06-04T16:43:23Z</time>
      </trkpt>
      <trkpt lat="47.10903" lon="-2.05521">
        <ele>26.9</ele>
        <time>2020-06-04T16:43:24Z</time>
      </trkpt>
      <trkpt lat="47.10904" lon="-2.0553">
        <ele>26.8</ele>
        <time>2020-06-04T16:43:25Z</time>
      </trkpt>
      <trkpt lat="47.10904" lon="-2.05537">
        <ele>26.8</ele>
        <time>2020-06-04T16:43:26Z</time>
      </trkpt>
      <trkpt lat="47.10905" lon="-2.05545">
        <ele>26.7</ele>
        <time>2020-06-04T16:43:27Z</time>
      </trkpt>
      <trkpt lat="47.10905" lon="-2.05553">
        <ele>26.7</ele>
        <time>2020-06-04T16:43:28Z</time>
      </trkpt>
      <trkpt lat="47.10906" lon="-2.05561">
        <ele>26.6</ele>
        <time>2020-06-04T16:43:29Z</time>
      </trkpt>
      <trkpt lat="47.10907" lon="-2.05569">
        <ele>26.5</ele>
        <time>2020-06-04T16:43:30Z</time>
      </trkpt>
      <trkpt lat="47.10908" lon="-2.05578">
        <ele>26.4</ele>
        <time>2020-06-04T16:43:31Z</time>
      </trkpt>
      <trkpt lat="47.10909" lon="-2.05586">
        <ele>26.3</ele>
        <time>2020-06-04T16:43:32Z</time>
      </trkpt>
      <trkpt lat="47.10909" lon="-2.05594">
        <ele>26.3</ele>
        <time>2020-06-04T16:43:33Z</time>
      </trkpt>
      <trkpt lat="47.1091" lon="-2.05602">
        <ele>26.2</ele>
        <time>2020-06-04T16:43:34Z</time>
      </trkpt>
      <trkpt lat="47.10911" lon="-2.05609">
        <ele>26.1</ele>
        <time>2020-06-04T16:43:35Z</time>
      </trkpt>
      <trkpt lat="47.10912" lon="-2.05617">
        <ele>26</ele>
        <time>2020-06-04T16:43:36Z</time>
      </trkpt>
      <trkpt lat="47.10912" lon="-2.05625">
        <ele>25.9</ele>
        <time>2020-06-04T16:43:37Z</time>
      </trkpt>
      <trkpt lat="47.10913" lon="-2.05634">
        <ele>25.7</ele>
        <time>2020-06-04T16:43:38Z</time>
      </trkpt>
      <trkpt lat="47.10914" lon="-2.05643">
        <ele>25.6</ele>
        <time>2020-06-04T16:43:39Z</time>
      </trkpt>
      <trkpt lat="47.10914" lon="-2.05653">
        <ele>25.5</ele>
        <time>2020-06-04T16:43:40Z</time>
      </trkpt>
      <trkpt lat="47.10914" lon="-2.05663">
        <ele>25.3</ele>
        <time>2020-06-04T16:43:41Z</time>
      </trkpt>
      <trkpt lat="47.10914" lon="-2.05673">
        <ele>25.2</ele>
        <time>2020-06-04T16:43:42Z</time>
      </trkpt>
      <trkpt lat="47.10914" lon="-2.05683">
        <ele>25</ele>
        <time>2020-06-04T16:43:43Z</time>
      </trkpt>
      <trkpt lat="47.10913" lon="-2.05693">
        <ele>24.9</ele>
        <time>2020-06-04T16:43:44Z</time>
      </trkpt>
      <trkpt lat="47.10913" lon="-2.05703">
        <ele>24.7</ele>
        <time>2020-06-04T16:43:45Z</time>
      </trkpt>
      <trkpt lat="47.10914" lon="-2.05713">
        <ele>24.6</ele>
        <time>2020-06-04T16:43:46Z</time>
      </trkpt>
      <trkpt lat="47.10913" lon="-2.05724">
        <ele>24.5</ele>
        <time>2020-06-04T16:43:47Z</time>
      </trkpt>
      <trkpt lat="47.10914" lon="-2.05735">
        <ele>24.3</ele>
        <time>2020-06-04T16:43:48Z</time>
      </trkpt>
      <trkpt lat="47.10916" lon="-2.05747">
        <ele>24.2</ele>
        <time>2020-06-04T16:43:49Z</time>
      </trkpt>
      <trkpt lat="47.10916" lon="-2.05758">
        <ele>24.2</ele>
        <time>2020-06-04T16:43:50Z</time>
      </trkpt>
      <trkpt lat="47.10917" lon="-2.05769">
        <ele>24.2</ele>
        <time>2020-06-04T16:43:51Z</time>
      </trkpt>
      <trkpt lat="47.10917" lon="-2.0578">
        <ele>24.2</ele>
        <time>2020-06-04T16:43:52Z</time>
      </trkpt>
      <trkpt lat="47.10917" lon="-2.05792">
        <ele>24.3</ele>
        <time>2020-06-04T16:43:53Z</time>
      </trkpt>
      <trkpt lat="47.10917" lon="-2.05805">
        <ele>24.4</ele>
        <time>2020-06-04T16:43:54Z</time>
      </trkpt>
      <trkpt lat="47.10909" lon="-2.05818">
        <ele>24.5</ele>
        <time>2020-06-04T16:43:55Z</time>
      </trkpt>
      <trkpt lat="47.10909" lon="-2.0583">
        <ele>24.6</ele>
        <time>2020-06-04T16:43:56Z</time>
      </trkpt>
      <trkpt lat="47.1091" lon="-2.05841">
        <ele>24.7</ele>
        <time>2020-06-04T16:43:57Z</time>
      </trkpt>
      <trkpt lat="47.1091" lon="-2.05852">
        <ele>24.8</ele>
        <time>2020-06-04T16:43:58Z</time>
      </trkpt>
      <trkpt lat="47.10909" lon="-2.05864">
        <ele>24.7</ele>
        <time>2020-06-04T16:43:59Z</time>
      </trkpt>
      <trkpt lat="47.1091" lon="-2.05874">
        <ele>24.8</ele>
        <time>2020-06-04T16:44:00Z</time>
      </trkpt>
      <trkpt lat="47.10912" lon="-2.05885">
        <ele>25</ele>
        <time>2020-06-04T16:44:01Z</time>
      </trkpt>
      <trkpt lat="47.10911" lon="-2.05894">
        <ele>25.1</ele>
        <time>2020-06-04T16:44:02Z</time>
      </trkpt>
      <trkpt lat="47.10912" lon="-2.05903">
        <ele>25.2</ele>
        <time>2020-06-04T16:44:03Z</time>
      </trkpt>
      <trkpt lat="47.10912" lon="-2.05913">
        <ele>25.4</ele>
        <time>2020-06-04T16:44:04Z</time>
      </trkpt>
      <trkpt lat="47.10913" lon="-2.05922">
        <ele>25.5</ele>
        <time>2020-06-04T16:44:05Z</time>
      </trkpt>
      <trkpt lat="47.10913" lon="-2.05931">
        <ele>25.6</ele>
        <time>2020-06-04T16:44:06Z</time>
      </trkpt>
      <trkpt lat="47.10913" lon="-2.05941">
        <ele>25.8</ele>
        <time>2020-06-04T16:44:07Z</time>
      </trkpt>
      <trkpt lat="47.10914" lon="-2.05951">
        <ele>25.9</ele>
        <time>2020-06-04T16:44:08Z</time>
      </trkpt>
      <trkpt lat="47.10914" lon="-2.05961">
        <ele>26</ele>
        <time>2020-06-04T16:44:09Z</time>
      </trkpt>
      <trkpt lat="47.10914" lon="-2.0597">
        <ele>26.1</ele>
        <time>2020-06-04T16:44:10Z</time>
      </trkpt>
      <trkpt lat="47.10915" lon="-2.0598">
        <ele>26.2</ele>
        <time>2020-06-04T16:44:11Z</time>
      </trkpt>
      <trkpt lat="47.10915" lon="-2.0599">
        <ele>26.3</ele>
        <time>2020-06-04T16:44:12Z</time>
      </trkpt>
      <trkpt lat="47.10916" lon="-2.06">
        <ele>26.4</ele>
        <time>2020-06-04T16:44:13Z</time>
      </trkpt>
      <trkpt lat="47.10916" lon="-2.0601">
        <ele>26.4</ele>
        <time>2020-06-04T16:44:14Z</time>
      </trkpt>
      <trkpt lat="47.10916" lon="-2.0602">
        <ele>26.5</ele>
        <time>2020-06-04T16:44:15Z</time>
      </trkpt>
      <trkpt lat="47.10917" lon="-2.0603">
        <ele>26.5</ele>
        <time>2020-06-04T16:44:16Z</time>
      </trkpt>
      <trkpt lat="47.10916" lon="-2.06039">
        <ele>26.6</ele>
        <time>2020-06-04T16:44:17Z</time>
      </trkpt>
      <trkpt lat="47.10918" lon="-2.06048">
        <ele>26.6</ele>
        <time>2020-06-04T16:44:18Z</time>
      </trkpt>
      <trkpt lat="47.10922" lon="-2.06057">
        <ele>26.6</ele>
        <time>2020-06-04T16:44:19Z</time>
      </trkpt>
      <trkpt lat="47.10924" lon="-2.06067">
        <ele>26.7</ele>
        <time>2020-06-04T16:44:20Z</time>
      </trkpt>
      <trkpt lat="47.10925" lon="-2.06075">
        <ele>26.7</ele>
        <time>2020-06-04T16:44:21Z</time>
      </trkpt>
      <trkpt lat="47.10928" lon="-2.06083">
        <ele>26.7</ele>
        <time>2020-06-04T16:44:22Z</time>
      </trkpt>
      <trkpt lat="47.10932" lon="-2.06091">
        <ele>26.7</ele>
        <time>2020-06-04T16:44:23Z</time>
      </trkpt>
      <trkpt lat="47.10937" lon="-2.06097">
        <ele>26.8</ele>
        <time>2020-06-04T16:44:24Z</time>
      </trkpt>
      <trkpt lat="47.10943" lon="-2.06099">
        <ele>26.6</ele>
        <time>2020-06-04T16:44:25Z</time>
      </trkpt>
      <trkpt lat="47.10949" lon="-2.06103">
        <ele>26.5</ele>
        <time>2020-06-04T16:44:26Z</time>
      </trkpt>
      <trkpt lat="47.10954" lon="-2.06107">
        <ele>26.4</ele>
        <time>2020-06-04T16:44:27Z</time>
      </trkpt>
      <trkpt lat="47.1096" lon="-2.06111">
        <ele>26.3</ele>
        <time>2020-06-04T16:44:28Z</time>
      </trkpt>
      <trkpt lat="47.10965" lon="-2.06114">
        <ele>26.2</ele>
        <time>2020-06-04T16:44:29Z</time>
      </trkpt>
      <trkpt lat="47.1097" lon="-2.06117">
        <ele>26.1</ele>
        <time>2020-06-04T16:44:30Z</time>
      </trkpt>
      <trkpt lat="47.10973" lon="-2.06122">
        <ele>26</ele>
        <time>2020-06-04T16:44:31Z</time>
      </trkpt>
      <trkpt lat="47.10976" lon="-2.06129">
        <ele>25.9</ele>
        <time>2020-06-04T16:44:32Z</time>
      </trkpt>
      <trkpt lat="47.10979" lon="-2.06137">
        <ele>25.8</ele>
        <time>2020-06-04T16:44:33Z</time>
      </trkpt>
      <trkpt lat="47.10981" lon="-2.06144">
        <ele>25.7</ele>
        <time>2020-06-04T16:44:34Z</time>
      </trkpt>
      <trkpt lat="47.10983" lon="-2.06152">
        <ele>25.6</ele>
        <time>2020-06-04T16:44:35Z</time>
      </trkpt>
      <trkpt lat="47.10986" lon="-2.0616">
        <ele>25.5</ele>
        <time>2020-06-04T16:44:36Z</time>
      </trkpt>
      <trkpt lat="47.10991" lon="-2.06167">
        <ele>25.4</ele>
        <time>2020-06-04T16:44:37Z</time>
      </trkpt>
      <trkpt lat="47.10997" lon="-2.06172">
        <ele>25.2</ele>
        <time>2020-06-04T16:44:38Z</time>
      </trkpt>
      <trkpt lat="47.11003" lon="-2.06178">
        <ele>25.1</ele>
        <time>2020-06-04T16:44:39Z</time>
      </trkpt>
      <trkpt lat="47.11009" lon="-2.06183">
        <ele>25.1</ele>
        <time>2020-06-04T16:44:40Z</time>
      </trkpt>
      <trkpt lat="47.11016" lon="-2.06188">
        <ele>25</ele>
        <time>2020-06-04T16:44:41Z</time>
      </trkpt>
      <trkpt lat="47.11022" lon="-2.06192">
        <ele>25</ele>
        <time>2020-06-04T16:44:42Z</time>
      </trkpt>
      <trkpt lat="47.11029" lon="-2.06194">
        <ele>25</ele>
        <time>2020-06-04T16:44:43Z</time>
      </trkpt>
      <trkpt lat="47.11035" lon="-2.06196">
        <ele>25</ele>
        <time>2020-06-04T16:44:44Z</time>
      </trkpt>
      <trkpt lat="47.11043" lon="-2.06197">
        <ele>25</ele>
        <time>2020-06-04T16:44:45Z</time>
      </trkpt>
      <trkpt lat="47.11049" lon="-2.062">
        <ele>25</ele>
        <time>2020-06-04T16:44:46Z</time>
      </trkpt>
      <trkpt lat="47.11056" lon="-2.06202">
        <ele>25.1</ele>
        <time>2020-06-04T16:44:47Z</time>
      </trkpt>
      <trkpt lat="47.11063" lon="-2.06203">
        <ele>25.1</ele>
        <time>2020-06-04T16:44:48Z</time>
      </trkpt>
      <trkpt lat="47.1107" lon="-2.06204">
        <ele>25.1</ele>
        <time>2020-06-04T16:44:49Z</time>
      </trkpt>
      <trkpt lat="47.11077" lon="-2.06204">
        <ele>25.1</ele>
        <time>2020-06-04T16:44:50Z</time>
      </trkpt>
      <trkpt lat="47.11084" lon="-2.06206">
        <ele>25.1</ele>
        <time>2020-06-04T16:44:51Z</time>
      </trkpt>
      <trkpt lat="47.11091" lon="-2.06207">
        <ele>25.1</ele>
        <time>2020-06-04T16:44:52Z</time>
      </trkpt>
      <trkpt lat="47.11099" lon="-2.0621">
        <ele>25</ele>
        <time>2020-06-04T16:44:53Z</time>
      </trkpt>
      <trkpt lat="47.11106" lon="-2.06212">
        <ele>25</ele>
        <time>2020-06-04T16:44:54Z</time>
      </trkpt>
      <trkpt lat="47.11114" lon="-2.06214">
        <ele>25</ele>
        <time>2020-06-04T16:44:55Z</time>
      </trkpt>
      <trkpt lat="47.11122" lon="-2.06216">
        <ele>24.9</ele>
        <time>2020-06-04T16:44:56Z</time>
      </trkpt>
      <trkpt lat="47.1113" lon="-2.06219">
        <ele>24.9</ele>
        <time>2020-06-04T16:44:57Z</time>
      </trkpt>
      <trkpt lat="47.11138" lon="-2.06221">
        <ele>24.9</ele>
        <time>2020-06-04T16:44:58Z</time>
      </trkpt>
      <trkpt lat="47.11145" lon="-2.06224">
        <ele>24.8</ele>
        <time>2020-06-04T16:44:59Z</time>
      </trkpt>
      <trkpt lat="47.11153" lon="-2.06226">
        <ele>24.8</ele>
        <time>2020-06-04T16:45:00Z</time>
      </trkpt>
      <trkpt lat="47.11161" lon="-2.06229">
        <ele>24.8</ele>
        <time>2020-06-04T16:45:01Z</time>
      </trkpt>
      <trkpt lat="47.11168" lon="-2.06231">
        <ele>24.7</ele>
        <time>2020-06-04T16:45:02Z</time>
      </trkpt>
      <trkpt lat="47.11175" lon="-2.06235">
        <ele>24.7</ele>
        <time>2020-06-04T16:45:03Z</time>
      </trkpt>
      <trkpt lat="47.11182" lon="-2.06239">
        <ele>24.7</ele>
        <time>2020-06-04T16:45:04Z</time>
      </trkpt>
      <trkpt lat="47.1119" lon="-2.06241">
        <ele>24.7</ele>
        <time>2020-06-04T16:45:05Z</time>
      </trkpt>
      <trkpt lat="47.11196" lon="-2.06246">
        <ele>24.7</ele>
        <time>2020-06-04T16:45:06Z</time>
      </trkpt>
      <trkpt lat="47.11203" lon="-2.06251">
        <ele>24.7</ele>
        <time>2020-06-04T16:45:07Z</time>
      </trkpt>
      <trkpt lat="47.11209" lon="-2.06255">
        <ele>24.7</ele>
        <time>2020-06-04T16:45:08Z</time>
      </trkpt>
      <trkpt lat="47.11215" lon="-2.06262">
        <ele>24.7</ele>
        <time>2020-06-04T16:45:09Z</time>
      </trkpt>
      <trkpt lat="47.11221" lon="-2.06268">
        <ele>24.7</ele>
        <time>2020-06-04T16:45:10Z</time>
      </trkpt>
      <trkpt lat="47.11225" lon="-2.06275">
        <ele>24.6</ele>
        <time>2020-06-04T16:45:11Z</time>
      </trkpt>
      <trkpt lat="47.1123" lon="-2.06283">
        <ele>24.6</ele>
        <time>2020-06-04T16:45:12Z</time>
      </trkpt>
      <trkpt lat="47.11233" lon="-2.06292">
        <ele>24.6</ele>
        <time>2020-06-04T16:45:13Z</time>
      </trkpt>
      <trkpt lat="47.11237" lon="-2.06301">
        <ele>24.6</ele>
        <time>2020-06-04T16:45:14Z</time>
      </trkpt>
      <trkpt lat="47.11239" lon="-2.0631">
        <ele>24.6</ele>
        <time>2020-06-04T16:45:15Z</time>
      </trkpt>
      <trkpt lat="47.11241" lon="-2.06319">
        <ele>24.6</ele>
        <time>2020-06-04T16:45:16Z</time>
      </trkpt>
      <trkpt lat="47.11242" lon="-2.06329">
        <ele>24.7</ele>
        <time>2020-06-04T16:45:17Z</time>
      </trkpt>
      <trkpt lat="47.11243" lon="-2.06339">
        <ele>24.7</ele>
        <time>2020-06-04T16:45:18Z</time>
      </trkpt>
      <trkpt lat="47.11243" lon="-2.06349">
        <ele>24.7</ele>
        <time>2020-06-04T16:45:19Z</time>
      </trkpt>
      <trkpt lat="47.11243" lon="-2.06359">
        <ele>24.8</ele>
        <time>2020-06-04T16:45:20Z</time>
      </trkpt>
      <trkpt lat="47.11243" lon="-2.06368">
        <ele>24.8</ele>
        <time>2020-06-04T16:45:21Z</time>
      </trkpt>
      <trkpt lat="47.11243" lon="-2.06378">
        <ele>24.9</ele>
        <time>2020-06-04T16:45:22Z</time>
      </trkpt>
      <trkpt lat="47.11243" lon="-2.06387">
        <ele>25</ele>
        <time>2020-06-04T16:45:23Z</time>
      </trkpt>
      <trkpt lat="47.11241" lon="-2.06396">
        <ele>25.1</ele>
        <time>2020-06-04T16:45:24Z</time>
      </trkpt>
      <trkpt lat="47.11239" lon="-2.06404">
        <ele>25.2</ele>
        <time>2020-06-04T16:45:25Z</time>
      </trkpt>
      <trkpt lat="47.11237" lon="-2.06412">
        <ele>25.4</ele>
        <time>2020-06-04T16:45:26Z</time>
      </trkpt>
      <trkpt lat="47.11235" lon="-2.0642">
        <ele>25.5</ele>
        <time>2020-06-04T16:45:27Z</time>
      </trkpt>
      <trkpt lat="47.11232" lon="-2.06428">
        <ele>25.6</ele>
        <time>2020-06-04T16:45:28Z</time>
      </trkpt>
      <trkpt lat="47.11231" lon="-2.06436">
        <ele>25.7</ele>
        <time>2020-06-04T16:45:29Z</time>
      </trkpt>
      <trkpt lat="47.11228" lon="-2.06443">
        <ele>25.9</ele>
        <time>2020-06-04T16:45:30Z</time>
      </trkpt>
      <trkpt lat="47.11226" lon="-2.0645">
        <ele>26</ele>
        <time>2020-06-04T16:45:31Z</time>
      </trkpt>
      <trkpt lat="47.11224" lon="-2.06457">
        <ele>26.1</ele>
        <time>2020-06-04T16:45:32Z</time>
      </trkpt>
      <trkpt lat="47.11221" lon="-2.06463">
        <ele>26.1</ele>
        <time>2020-06-04T16:45:33Z</time>
      </trkpt>
      <trkpt lat="47.1122" lon="-2.0647">
        <ele>26.2</ele>
        <time>2020-06-04T16:45:34Z</time>
      </trkpt>
      <trkpt lat="47.11218" lon="-2.06476">
        <ele>26.3</ele>
        <time>2020-06-04T16:45:35Z</time>
      </trkpt>
      <trkpt lat="47.11219" lon="-2.06483">
        <ele>26.3</ele>
        <time>2020-06-04T16:45:36Z</time>
      </trkpt>
      <trkpt lat="47.11221" lon="-2.06488">
        <ele>26.3</ele>
        <time>2020-06-04T16:45:37Z</time>
      </trkpt>
      <trkpt lat="47.11225" lon="-2.06491">
        <ele>26.4</ele>
        <time>2020-06-04T16:45:38Z</time>
      </trkpt>
      <trkpt lat="47.11229" lon="-2.06492">
        <ele>26.4</ele>
        <time>2020-06-04T16:45:39Z</time>
      </trkpt>
      <trkpt lat="47.11233" lon="-2.06491">
        <ele>26.4</ele>
        <time>2020-06-04T16:45:40Z</time>
      </trkpt>
      <trkpt lat="47.11237" lon="-2.06489">
        <ele>26.4</ele>
        <time>2020-06-04T16:45:41Z</time>
      </trkpt>
      <trkpt lat="47.11241" lon="-2.06486">
        <ele>26.4</ele>
        <time>2020-06-04T16:45:42Z</time>
      </trkpt>
      <trkpt lat="47.11244" lon="-2.06481">
        <ele>26.2</ele>
        <time>2020-06-04T16:45:43Z</time>
      </trkpt>
      <trkpt lat="47.11248" lon="-2.06479">
        <ele>26.2</ele>
        <time>2020-06-04T16:45:44Z</time>
      </trkpt>
      <trkpt lat="47.11253" lon="-2.06476">
        <ele>26.2</ele>
        <time>2020-06-04T16:45:45Z</time>
      </trkpt>
      <trkpt lat="47.11258" lon="-2.06475">
        <ele>26.2</ele>
        <time>2020-06-04T16:45:46Z</time>
      </trkpt>
      <trkpt lat="47.11263" lon="-2.06474">
        <ele>26.2</ele>
        <time>2020-06-04T16:45:47Z</time>
      </trkpt>
      <trkpt lat="47.11267" lon="-2.06476">
        <ele>26.2</ele>
        <time>2020-06-04T16:45:48Z</time>
      </trkpt>
      <trkpt lat="47.11272" lon="-2.06478">
        <ele>26.2</ele>
        <time>2020-06-04T16:45:49Z</time>
      </trkpt>
      <trkpt lat="47.11276" lon="-2.0648">
        <ele>26.2</ele>
        <time>2020-06-04T16:45:50Z</time>
      </trkpt>
      <trkpt lat="47.11281" lon="-2.06483">
        <ele>26.3</ele>
        <time>2020-06-04T16:45:51Z</time>
      </trkpt>
      <trkpt lat="47.11284" lon="-2.06486">
        <ele>26.3</ele>
        <time>2020-06-04T16:45:52Z</time>
      </trkpt>
      <trkpt lat="47.11287" lon="-2.06491">
        <ele>26.3</ele>
        <time>2020-06-04T16:45:53Z</time>
      </trkpt>
      <trkpt lat="47.1129" lon="-2.06497">
        <ele>26.3</ele>
        <time>2020-06-04T16:45:54Z</time>
      </trkpt>
      <trkpt lat="47.11291" lon="-2.06503">
        <ele>26.4</ele>
        <time>2020-06-04T16:45:55Z</time>
      </trkpt>
      <trkpt lat="47.11291" lon="-2.0651">
        <ele>26.4</ele>
        <time>2020-06-04T16:45:56Z</time>
      </trkpt>
      <trkpt lat="47.11292" lon="-2.06517">
        <ele>26.5</ele>
        <time>2020-06-04T16:45:57Z</time>
      </trkpt>
      <trkpt lat="47.11292" lon="-2.06523">
        <ele>26.5</ele>
        <time>2020-06-04T16:45:58Z</time>
      </trkpt>
      <trkpt lat="47.11292" lon="-2.06529">
        <ele>26.5</ele>
        <time>2020-06-04T16:45:59Z</time>
      </trkpt>
      <trkpt lat="47.1129" lon="-2.06534">
        <ele>26.6</ele>
        <time>2020-06-04T16:46:00Z</time>
      </trkpt>
      <trkpt lat="47.11287" lon="-2.06539">
        <ele>26.6</ele>
        <time>2020-06-04T16:46:01Z</time>
      </trkpt>
      <trkpt lat="47.11284" lon="-2.06544">
        <ele>26.7</ele>
        <time>2020-06-04T16:46:02Z</time>
      </trkpt>
      <trkpt lat="47.1128" lon="-2.06547">
        <ele>26.8</ele>
        <time>2020-06-04T16:46:03Z</time>
      </trkpt>
      <trkpt lat="47.11278" lon="-2.06552">
        <ele>26.8</ele>
        <time>2020-06-04T16:46:04Z</time>
      </trkpt>
      <trkpt lat="47.11275" lon="-2.06555">
        <ele>26.9</ele>
        <time>2020-06-04T16:46:05Z</time>
      </trkpt>
      <trkpt lat="47.11271" lon="-2.06557">
        <ele>27</ele>
        <time>2020-06-04T16:46:06Z</time>
      </trkpt>
      <trkpt lat="47.11268" lon="-2.06558">
        <ele>27</ele>
        <time>2020-06-04T16:46:07Z</time>
      </trkpt>
      <trkpt lat="47.11265" lon="-2.06559">
        <ele>27.1</ele>
        <time>2020-06-04T16:46:08Z</time>
      </trkpt>
      <trkpt lat="47.11262" lon="-2.06561">
        <ele>27.3</ele>
        <time>2020-06-04T16:46:09Z</time>
      </trkpt>
      <trkpt lat="47.11258" lon="-2.06562">
        <ele>27.4</ele>
        <time>2020-06-04T16:46:10Z</time>
      </trkpt>
      <trkpt lat="47.11254" lon="-2.06561">
        <ele>27.7</ele>
        <time>2020-06-04T16:46:11Z</time>
      </trkpt>
      <trkpt lat="47.11249" lon="-2.06558">
        <ele>27.7</ele>
        <time>2020-06-04T16:46:12Z</time>
      </trkpt>
      <trkpt lat="47.11245" lon="-2.06554">
        <ele>27.6</ele>
        <time>2020-06-04T16:46:13Z</time>
      </trkpt>
      <trkpt lat="47.11239" lon="-2.06552">
        <ele>27.6</ele>
        <time>2020-06-04T16:46:14Z</time>
      </trkpt>
      <trkpt lat="47.11231" lon="-2.06553">
        <ele>27.6</ele>
        <time>2020-06-04T16:46:15Z</time>
      </trkpt>
      <trkpt lat="47.11226" lon="-2.06555">
        <ele>27.6</ele>
        <time>2020-06-04T16:46:16Z</time>
      </trkpt>
      <trkpt lat="47.1122" lon="-2.06558">
        <ele>27.6</ele>
        <time>2020-06-04T16:46:17Z</time>
      </trkpt>
      <trkpt lat="47.11214" lon="-2.06562">
        <ele>27.6</ele>
        <time>2020-06-04T16:46:18Z</time>
      </trkpt>
      <trkpt lat="47.11208" lon="-2.06566">
        <ele>27.6</ele>
        <time>2020-06-04T16:46:19Z</time>
      </trkpt>
      <trkpt lat="47.11202" lon="-2.0657">
        <ele>27.6</ele>
        <time>2020-06-04T16:46:20Z</time>
      </trkpt>
      <trkpt lat="47.11195" lon="-2.06575">
        <ele>27.6</ele>
        <time>2020-06-04T16:46:21Z</time>
      </trkpt>
      <trkpt lat="47.1119" lon="-2.06578">
        <ele>27.6</ele>
        <time>2020-06-04T16:46:22Z</time>
      </trkpt>
      <trkpt lat="47.11184" lon="-2.06582">
        <ele>27.6</ele>
        <time>2020-06-04T16:46:23Z</time>
      </trkpt>
      <trkpt lat="47.11179" lon="-2.06586">
        <ele>27.7</ele>
        <time>2020-06-04T16:46:24Z</time>
      </trkpt>
      <trkpt lat="47.11173" lon="-2.06592">
        <ele>27.8</ele>
        <time>2020-06-04T16:46:25Z</time>
      </trkpt>
      <trkpt lat="47.11168" lon="-2.06599">
        <ele>27.8</ele>
        <time>2020-06-04T16:46:26Z</time>
      </trkpt>
      <trkpt lat="47.11165" lon="-2.06607">
        <ele>28.1</ele>
        <time>2020-06-04T16:46:27Z</time>
      </trkpt>
      <trkpt lat="47.11162" lon="-2.06615">
        <ele>28.3</ele>
        <time>2020-06-04T16:46:28Z</time>
      </trkpt>
      <trkpt lat="47.11159" lon="-2.06621">
        <ele>28.5</ele>
        <time>2020-06-04T16:46:29Z</time>
      </trkpt>
      <trkpt lat="47.11156" lon="-2.06628">
        <ele>28.6</ele>
        <time>2020-06-04T16:46:30Z</time>
      </trkpt>
      <trkpt lat="47.11153" lon="-2.06634">
        <ele>28.7</ele>
        <time>2020-06-04T16:46:31Z</time>
      </trkpt>
      <trkpt lat="47.11152" lon="-2.06641">
        <ele>28.8</ele>
        <time>2020-06-04T16:46:32Z</time>
      </trkpt>
      <trkpt lat="47.11153" lon="-2.06651">
        <ele>29</ele>
        <time>2020-06-04T16:46:33Z</time>
      </trkpt>
      <trkpt lat="47.11155" lon="-2.06662">
        <ele>29.2</ele>
        <time>2020-06-04T16:46:34Z</time>
      </trkpt>
      <trkpt lat="47.11155" lon="-2.06672">
        <ele>29.4</ele>
        <time>2020-06-04T16:46:35Z</time>
      </trkpt>
      <trkpt lat="47.11156" lon="-2.06682">
        <ele>29.5</ele>
        <time>2020-06-04T16:46:36Z</time>
      </trkpt>
      <trkpt lat="47.11157" lon="-2.06692">
        <ele>29.5</ele>
        <time>2020-06-04T16:46:37Z</time>
      </trkpt>
      <trkpt lat="47.11157" lon="-2.06702">
        <ele>29.5</ele>
        <time>2020-06-04T16:46:38Z</time>
      </trkpt>
      <trkpt lat="47.11157" lon="-2.06712">
        <ele>29.6</ele>
        <time>2020-06-04T16:46:39Z</time>
      </trkpt>
      <trkpt lat="47.11158" lon="-2.06721">
        <ele>29.6</ele>
        <time>2020-06-04T16:46:40Z</time>
      </trkpt>
      <trkpt lat="47.11158" lon="-2.06731">
        <ele>29.7</ele>
        <time>2020-06-04T16:46:41Z</time>
      </trkpt>
      <trkpt lat="47.11159" lon="-2.06741">
        <ele>29.8</ele>
        <time>2020-06-04T16:46:42Z</time>
      </trkpt>
      <trkpt lat="47.11159" lon="-2.0675">
        <ele>29.8</ele>
        <time>2020-06-04T16:46:43Z</time>
      </trkpt>
      <trkpt lat="47.1116" lon="-2.06759">
        <ele>29.9</ele>
        <time>2020-06-04T16:46:44Z</time>
      </trkpt>
      <trkpt lat="47.11162" lon="-2.06768">
        <ele>30</ele>
        <time>2020-06-04T16:46:45Z</time>
      </trkpt>
      <trkpt lat="47.11164" lon="-2.06777">
        <ele>30</ele>
        <time>2020-06-04T16:46:46Z</time>
      </trkpt>
      <trkpt lat="47.11166" lon="-2.06784">
        <ele>29.9</ele>
        <time>2020-06-04T16:46:47Z</time>
      </trkpt>
      <trkpt lat="47.11168" lon="-2.06792">
        <ele>29.9</ele>
        <time>2020-06-04T16:46:48Z</time>
      </trkpt>
      <trkpt lat="47.1117" lon="-2.068">
        <ele>29.8</ele>
        <time>2020-06-04T16:46:49Z</time>
      </trkpt>
      <trkpt lat="47.11172" lon="-2.06809">
        <ele>29.7</ele>
        <time>2020-06-04T16:46:50Z</time>
      </trkpt>
      <trkpt lat="47.11173" lon="-2.06818">
        <ele>29.7</ele>
        <time>2020-06-04T16:46:51Z</time>
      </trkpt>
      <trkpt lat="47.11174" lon="-2.06825">
        <ele>29.6</ele>
        <time>2020-06-04T16:46:52Z</time>
      </trkpt>
      <trkpt lat="47.11174" lon="-2.06834">
        <ele>29.6</ele>
        <time>2020-06-04T16:46:53Z</time>
      </trkpt>
      <trkpt lat="47.11174" lon="-2.06841">
        <ele>29.5</ele>
        <time>2020-06-04T16:46:54Z</time>
      </trkpt>
      <trkpt lat="47.11174" lon="-2.06847">
        <ele>29.5</ele>
        <time>2020-06-04T16:46:55Z</time>
      </trkpt>
      <trkpt lat="47.11174" lon="-2.06854">
        <ele>29.4</ele>
        <time>2020-06-04T16:46:56Z</time>
      </trkpt>
      <trkpt lat="47.11174" lon="-2.06861">
        <ele>29.4</ele>
        <time>2020-06-04T16:46:57Z</time>
      </trkpt>
      <trkpt lat="47.11174" lon="-2.06867">
        <ele>29.3</ele>
        <time>2020-06-04T16:46:58Z</time>
      </trkpt>
      <trkpt lat="47.11174" lon="-2.06873">
        <ele>29.2</ele>
        <time>2020-06-04T16:46:59Z</time>
      </trkpt>
      <trkpt lat="47.11174" lon="-2.06879">
        <ele>29.2</ele>
        <time>2020-06-04T16:47:00Z</time>
      </trkpt>
      <trkpt lat="47.11174" lon="-2.06885">
        <ele>29.1</ele>
        <time>2020-06-04T16:47:01Z</time>
      </trkpt>
      <trkpt lat="47.11174" lon="-2.06891">
        <ele>29.1</ele>
        <time>2020-06-04T16:47:02Z</time>
      </trkpt>
      <trkpt lat="47.11174" lon="-2.06897">
        <ele>29</ele>
        <time>2020-06-04T16:47:03Z</time>
      </trkpt>
      <trkpt lat="47.11173" lon="-2.06902">
        <ele>29</ele>
        <time>2020-06-04T16:47:04Z</time>
      </trkpt>
      <trkpt lat="47.11173" lon="-2.06908">
        <ele>29</ele>
        <time>2020-06-04T16:47:05Z</time>
      </trkpt>
      <trkpt lat="47.11173" lon="-2.0691">
        <ele>28.9</ele>
        <time>2020-06-04T16:47:06Z</time>
      </trkpt>
      <trkpt lat="47.11174" lon="-2.06915">
        <ele>28.9</ele>
        <time>2020-06-04T16:47:07Z</time>
      </trkpt>
      <trkpt lat="47.11174" lon="-2.06921">
        <ele>28.9</ele>
        <time>2020-06-04T16:47:08Z</time>
      </trkpt>
      <trkpt lat="47.11174" lon="-2.06926">
        <ele>28.9</ele>
        <time>2020-06-04T16:47:09Z</time>
      </trkpt>
      <trkpt lat="47.11174" lon="-2.06932">
        <ele>28.9</ele>
        <time>2020-06-04T16:47:10Z</time>
      </trkpt>
      <trkpt lat="47.11174" lon="-2.06936">
        <ele>28.9</ele>
        <time>2020-06-04T16:47:11Z</time>
      </trkpt>
      <trkpt lat="47.11175" lon="-2.0694">
        <ele>28.8</ele>
        <time>2020-06-04T16:47:12Z</time>
      </trkpt>
      <trkpt lat="47.11174" lon="-2.06946">
        <ele>28.8</ele>
        <time>2020-06-04T16:47:13Z</time>
      </trkpt>
      <trkpt lat="47.11175" lon="-2.06951">
        <ele>28.8</ele>
        <time>2020-06-04T16:47:14Z</time>
      </trkpt>
      <trkpt lat="47.11175" lon="-2.06955">
        <ele>28.8</ele>
        <time>2020-06-04T16:47:15Z</time>
      </trkpt>
      <trkpt lat="47.11174" lon="-2.06961">
        <ele>28.7</ele>
        <time>2020-06-04T16:47:16Z</time>
      </trkpt>
      <trkpt lat="47.11174" lon="-2.06966">
        <ele>28.7</ele>
        <time>2020-06-04T16:47:17Z</time>
      </trkpt>
      <trkpt lat="47.11174" lon="-2.06972">
        <ele>28.7</ele>
        <time>2020-06-04T16:47:18Z</time>
      </trkpt>
      <trkpt lat="47.11173" lon="-2.06978">
        <ele>28.6</ele>
        <time>2020-06-04T16:47:19Z</time>
      </trkpt>
      <trkpt lat="47.11172" lon="-2.06983">
        <ele>28.6</ele>
        <time>2020-06-04T16:47:20Z</time>
      </trkpt>
      <trkpt lat="47.1117" lon="-2.06988">
        <ele>28.5</ele>
        <time>2020-06-04T16:47:21Z</time>
      </trkpt>
      <trkpt lat="47.11166" lon="-2.06992">
        <ele>28.6</ele>
        <time>2020-06-04T16:47:22Z</time>
      </trkpt>
      <trkpt lat="47.11161" lon="-2.06994">
        <ele>28.6</ele>
        <time>2020-06-04T16:47:23Z</time>
      </trkpt>
      <trkpt lat="47.11157" lon="-2.06994">
        <ele>28.6</ele>
        <time>2020-06-04T16:47:24Z</time>
      </trkpt>
      <trkpt lat="47.11152" lon="-2.06994">
        <ele>28.7</ele>
        <time>2020-06-04T16:47:25Z</time>
      </trkpt>
      <trkpt lat="47.11147" lon="-2.06993">
        <ele>28.7</ele>
        <time>2020-06-04T16:47:26Z</time>
      </trkpt>
      <trkpt lat="47.11142" lon="-2.06993">
        <ele>28.8</ele>
        <time>2020-06-04T16:47:27Z</time>
      </trkpt>
      <trkpt lat="47.11138" lon="-2.06994">
        <ele>28.8</ele>
        <time>2020-06-04T16:47:28Z</time>
      </trkpt>
      <trkpt lat="47.11134" lon="-2.06996">
        <ele>28.9</ele>
        <time>2020-06-04T16:47:29Z</time>
      </trkpt>
      <trkpt lat="47.11131" lon="-2.06998">
        <ele>29</ele>
        <time>2020-06-04T16:47:30Z</time>
      </trkpt>
      <trkpt lat="47.11128" lon="-2.06999">
        <ele>29</ele>
        <time>2020-06-04T16:47:31Z</time>
      </trkpt>
      <trkpt lat="47.11124" lon="-2.07001">
        <ele>29.1</ele>
        <time>2020-06-04T16:47:32Z</time>
      </trkpt>
      <trkpt lat="47.11121" lon="-2.07002">
        <ele>29.2</ele>
        <time>2020-06-04T16:47:33Z</time>
      </trkpt>
      <trkpt lat="47.11118" lon="-2.07">
        <ele>29.2</ele>
        <time>2020-06-04T16:47:34Z</time>
      </trkpt>
      <trkpt lat="47.11117" lon="-2.06998">
        <ele>29.2</ele>
        <time>2020-06-04T16:47:35Z</time>
      </trkpt>
      <trkpt lat="47.11116" lon="-2.06994">
        <ele>29.2</ele>
        <time>2020-06-04T16:47:36Z</time>
      </trkpt>
      <trkpt lat="47.11114" lon="-2.06991">
        <ele>29.2</ele>
        <time>2020-06-04T16:47:37Z</time>
      </trkpt>
      <trkpt lat="47.11112" lon="-2.06988">
        <ele>29.2</ele>
        <time>2020-06-04T16:47:38Z</time>
      </trkpt>
      <trkpt lat="47.11109" lon="-2.06986">
        <ele>29.3</ele>
        <time>2020-06-04T16:47:39Z</time>
      </trkpt>
      <trkpt lat="47.11106" lon="-2.06984">
        <ele>29.3</ele>
        <time>2020-06-04T16:47:40Z</time>
      </trkpt>
      <trkpt lat="47.11103" lon="-2.06981">
        <ele>29.4</ele>
        <time>2020-06-04T16:47:41Z</time>
      </trkpt>
      <trkpt lat="47.111" lon="-2.06979">
        <ele>29.4</ele>
        <time>2020-06-04T16:47:42Z</time>
      </trkpt>
      <trkpt lat="47.11096" lon="-2.06977">
        <ele>29.4</ele>
        <time>2020-06-04T16:47:43Z</time>
      </trkpt>
      <trkpt lat="47.11095" lon="-2.06976">
        <ele>29.4</ele>
        <time>2020-06-04T16:47:44Z</time>
      </trkpt>
      <trkpt lat="47.11092" lon="-2.06975">
        <ele>29.4</ele>
        <time>2020-06-04T16:47:45Z</time>
      </trkpt>
      <trkpt lat="47.11091" lon="-2.06975">
        <ele>29.4</ele>
        <time>2020-06-04T16:47:46Z</time>
      </trkpt>
      <trkpt lat="47.11089" lon="-2.0697">
        <ele>29.4</ele>
        <time>2020-06-04T16:47:47Z</time>
      </trkpt>
      <trkpt lat="47.11089" lon="-2.06969">
        <ele>29.4</ele>
        <time>2020-06-04T16:47:48Z</time>
      </trkpt>
      <trkpt lat="47.11088" lon="-2.06964">
        <ele>29.4</ele>
        <time>2020-06-04T16:47:49Z</time>
      </trkpt>
      <trkpt lat="47.11088" lon="-2.06963">
        <ele>29.4</ele>
        <time>2020-06-04T16:47:50Z</time>
      </trkpt>
      <trkpt lat="47.11088" lon="-2.06959">
        <ele>29.5</ele>
        <time>2020-06-04T16:47:51Z</time>
      </trkpt>
      <trkpt lat="47.11088" lon="-2.06958">
        <ele>29.4</ele>
        <time>2020-06-04T16:47:52Z</time>
      </trkpt>
      <trkpt lat="47.11087" lon="-2.06954">
        <ele>29.4</ele>
        <time>2020-06-04T16:47:53Z</time>
      </trkpt>
      <trkpt lat="47.11088" lon="-2.06952">
        <ele>29.4</ele>
        <time>2020-06-04T16:47:54Z</time>
      </trkpt>
      <trkpt lat="47.11088" lon="-2.06948">
        <ele>29.4</ele>
        <time>2020-06-04T16:47:55Z</time>
      </trkpt>
      <trkpt lat="47.11089" lon="-2.06946">
        <ele>29.4</ele>
        <time>2020-06-04T16:47:56Z</time>
      </trkpt>
      <trkpt lat="47.11088" lon="-2.06943">
        <ele>29.4</ele>
        <time>2020-06-04T16:47:57Z</time>
      </trkpt>
      <trkpt lat="47.11089" lon="-2.06941">
        <ele>29.4</ele>
        <time>2020-06-04T16:47:58Z</time>
      </trkpt>
      <trkpt lat="47.11087" lon="-2.06939">
        <ele>29.4</ele>
        <time>2020-06-04T16:47:59Z</time>
      </trkpt>
      <trkpt lat="47.11086" lon="-2.06937">
        <ele>29.4</ele>
        <time>2020-06-04T16:48:00Z</time>
      </trkpt>
      <trkpt lat="47.11086" lon="-2.06936">
        <ele>29.4</ele>
        <time>2020-06-04T16:48:01Z</time>
      </trkpt>
      <trkpt lat="47.11086" lon="-2.06934">
        <ele>29.4</ele>
        <time>2020-06-04T16:48:02Z</time>
      </trkpt>
      <trkpt lat="47.11087" lon="-2.06933">
        <ele>29.4</ele>
        <time>2020-06-04T16:48:03Z</time>
      </trkpt>
      <trkpt lat="47.11087" lon="-2.06932">
        <ele>29.4</ele>
        <time>2020-06-04T16:48:04Z</time>
      </trkpt>
      <trkpt lat="47.11088" lon="-2.06931">
        <ele>29.4</ele>
        <time>2020-06-04T16:48:05Z</time>
      </trkpt>
      <trkpt lat="47.11088" lon="-2.0693">
        <ele>29.4</ele>
        <time>2020-06-04T16:48:06Z</time>
      </trkpt>
      <trkpt lat="47.11089" lon="-2.06929">
        <ele>29.4</ele>
        <time>2020-06-04T16:48:07Z</time>
      </trkpt>
      <trkpt lat="47.11089" lon="-2.06928">
        <ele>29.4</ele>
        <time>2020-06-04T16:48:08Z</time>
      </trkpt>
      <trkpt lat="47.1109" lon="-2.06927">
        <ele>29.4</ele>
        <time>2020-06-04T16:48:09Z</time>
      </trkpt>
      <trkpt lat="47.11089" lon="-2.06926">
        <ele>29.4</ele>
        <time>2020-06-04T16:48:10Z</time>
      </trkpt>
      <trkpt lat="47.1109" lon="-2.06924">
        <ele>29.4</ele>
        <time>2020-06-04T16:48:11Z</time>
      </trkpt>
      <trkpt lat="47.11089" lon="-2.06924">
        <ele>29.4</ele>
        <time>2020-06-04T16:48:12Z</time>
      </trkpt>
      <trkpt lat="47.11088" lon="-2.06923">
        <ele>29.4</ele>
        <time>2020-06-04T16:48:13Z</time>
      </trkpt>
      <trkpt lat="47.11088" lon="-2.06922">
        <ele>29.4</ele>
        <time>2020-06-04T16:48:14Z</time>
      </trkpt>
      <trkpt lat="47.11089" lon="-2.06922">
        <ele>29.4</ele>
        <time>2020-06-04T16:48:15Z</time>
      </trkpt>
      <trkpt lat="47.11088" lon="-2.06922">
        <ele>29.4</ele>
        <time>2020-06-04T16:48:16Z</time>
      </trkpt>
      <trkpt lat="47.11088" lon="-2.06923">
        <ele>29.4</ele>
        <time>2020-06-04T16:48:17Z</time>
      </trkpt>
      <trkpt lat="47.11089" lon="-2.06921">
        <ele>29.4</ele>
        <time>2020-06-04T16:48:18Z</time>
      </trkpt>
      <trkpt lat="47.11088" lon="-2.06921">
        <ele>29.4</ele>
        <time>2020-06-04T16:48:19Z</time>
      </trkpt>
      <trkpt lat="47.11088" lon="-2.06921">
        <ele>29.4</ele>
        <time>2020-06-04T16:48:20Z</time>
      </trkpt>
      <trkpt lat="47.11088" lon="-2.06922">
        <ele>29.4</ele>
        <time>2020-06-04T16:48:21Z</time>
      </trkpt>
      <trkpt lat="47.11088" lon="-2.06921">
        <ele>29.4</ele>
        <time>2020-06-04T16:48:22Z</time>
      </trkpt>
      <trkpt lat="47.11089" lon="-2.0692">
        <ele>29.4</ele>
        <time>2020-06-04T16:48:23Z</time>
      </trkpt>
      <trkpt lat="47.1109" lon="-2.0692">
        <ele>29.4</ele>
        <time>2020-06-04T16:48:24Z</time>
      </trkpt>
      <trkpt lat="47.11051" lon="-2.06927">
        <ele>29.4</ele>
        <time>2020-06-04T17:08:23Z</time>
      </trkpt>
      <trkpt lat="47.11051" lon="-2.06927">
        <ele>29.4</ele>
        <time>2020-06-04T17:08:24Z</time>
      </trkpt>
      <trkpt lat="47.1105" lon="-2.06926">
        <ele>29.4</ele>
        <time>2020-06-04T17:08:25Z</time>
      </trkpt>
      <trkpt lat="47.1105" lon="-2.06925">
        <ele>29.4</ele>
        <time>2020-06-04T17:08:26Z</time>
      </trkpt>
      <trkpt lat="47.1105" lon="-2.06926">
        <ele>29.4</ele>
        <time>2020-06-04T17:08:27Z</time>
      </trkpt>
      <trkpt lat="47.1105" lon="-2.06925">
        <ele>29.4</ele>
        <time>2020-06-04T17:08:28Z</time>
      </trkpt>
      <trkpt lat="47.1105" lon="-2.06926">
        <ele>29.4</ele>
        <time>2020-06-04T17:08:29Z</time>
      </trkpt>
      <trkpt lat="47.1105" lon="-2.06927">
        <ele>29.4</ele>
        <time>2020-06-04T17:08:30Z</time>
      </trkpt>
      <trkpt lat="47.11051" lon="-2.06929">
        <ele>29.4</ele>
        <time>2020-06-04T17:08:31Z</time>
      </trkpt>
      <trkpt lat="47.11051" lon="-2.06929">
        <ele>29.4</ele>
        <time>2020-06-04T17:08:32Z</time>
      </trkpt>
      <trkpt lat="47.1105" lon="-2.06928">
        <ele>29.4</ele>
        <time>2020-06-04T17:08:33Z</time>
      </trkpt>
      <trkpt lat="47.1105" lon="-2.06928">
        <ele>29.4</ele>
        <time>2020-06-04T17:08:34Z</time>
      </trkpt>
      <trkpt lat="47.1105" lon="-2.06928">
        <ele>29.4</ele>
        <time>2020-06-04T17:08:35Z</time>
      </trkpt>
      <trkpt lat="47.1105" lon="-2.06929">
        <ele>29.4</ele>
        <time>2020-06-04T17:08:36Z</time>
      </trkpt>
      <trkpt lat="47.1105" lon="-2.0693">
        <ele>29.4</ele>
        <time>2020-06-04T17:08:37Z</time>
      </trkpt>
      <trkpt lat="47.11049" lon="-2.0693">
        <ele>29.4</ele>
        <time>2020-06-04T17:08:38Z</time>
      </trkpt>
      <trkpt lat="47.11048" lon="-2.0693">
        <ele>29.4</ele>
        <time>2020-06-04T17:08:39Z</time>
      </trkpt>
      <trkpt lat="47.11047" lon="-2.06929">
        <ele>29.4</ele>
        <time>2020-06-04T17:08:40Z</time>
      </trkpt>
      <trkpt lat="47.11047" lon="-2.06928">
        <ele>29.4</ele>
        <time>2020-06-04T17:08:41Z</time>
      </trkpt>
      <trkpt lat="47.11047" lon="-2.06927">
        <ele>29.4</ele>
        <time>2020-06-04T17:08:42Z</time>
      </trkpt>
      <trkpt lat="47.11047" lon="-2.06927">
        <ele>29.4</ele>
        <time>2020-06-04T17:08:43Z</time>
      </trkpt>
      <trkpt lat="47.11047" lon="-2.06927">
        <ele>29.4</ele>
        <time>2020-06-04T17:08:44Z</time>
      </trkpt>
      <trkpt lat="47.11047" lon="-2.06928">
        <ele>29.4</ele>
        <time>2020-06-04T17:08:45Z</time>
      </trkpt>
      <trkpt lat="47.11047" lon="-2.0693">
        <ele>29.4</ele>
        <time>2020-06-04T17:08:46Z</time>
      </trkpt>
      <trkpt lat="47.11047" lon="-2.0693">
        <ele>29.4</ele>
        <time>2020-06-04T17:08:47Z</time>
      </trkpt>
      <trkpt lat="47.11047" lon="-2.0693">
        <ele>29.4</ele>
        <time>2020-06-04T17:08:48Z</time>
      </trkpt>
      <trkpt lat="47.11048" lon="-2.06931">
        <ele>29.4</ele>
        <time>2020-06-04T17:08:49Z</time>
      </trkpt>
      <trkpt lat="47.11048" lon="-2.06931">
        <ele>29.4</ele>
        <time>2020-06-04T17:08:50Z</time>
      </trkpt>
      <trkpt lat="47.11048" lon="-2.06931">
        <ele>29.4</ele>
        <time>2020-06-04T17:08:51Z</time>
      </trkpt>
      <trkpt lat="47.11047" lon="-2.06929">
        <ele>29.4</ele>
        <time>2020-06-04T17:08:52Z</time>
      </trkpt>
      <trkpt lat="47.11048" lon="-2.0693">
        <ele>29.4</ele>
        <time>2020-06-04T17:08:53Z</time>
      </trkpt>
      <trkpt lat="47.11047" lon="-2.06929">
        <ele>29.4</ele>
        <time>2020-06-04T17:08:54Z</time>
      </trkpt>
      <trkpt lat="47.11047" lon="-2.06929">
        <ele>29.4</ele>
        <time>2020-06-04T17:08:55Z</time>
      </trkpt>
      <trkpt lat="47.11047" lon="-2.0693">
        <ele>29.4</ele>
        <time>2020-06-04T17:08:56Z</time>
      </trkpt>
      <trkpt lat="47.11047" lon="-2.06929">
        <ele>29.4</ele>
        <time>2020-06-04T17:08:57Z</time>
      </trkpt>
      <trkpt lat="47.11047" lon="-2.06929">
        <ele>29.4</ele>
        <time>2020-06-04T17:08:58Z</time>
      </trkpt>
      <trkpt lat="47.11047" lon="-2.06928">
        <ele>29.4</ele>
        <time>2020-06-04T17:08:59Z</time>
      </trkpt>
      <trkpt lat="47.11047" lon="-2.06928">
        <ele>29.4</ele>
        <time>2020-06-04T17:09:00Z</time>
      </trkpt>
      <trkpt lat="47.11047" lon="-2.06928">
        <ele>29.4</ele>
        <time>2020-06-04T17:09:01Z</time>
      </trkpt>
      <trkpt lat="47.11047" lon="-2.06929">
        <ele>29.4</ele>
        <time>2020-06-04T17:09:02Z</time>
      </trkpt>
      <trkpt lat="47.11047" lon="-2.06929">
        <ele>29.4</ele>
        <time>2020-06-04T17:09:03Z</time>
      </trkpt>
      <trkpt lat="47.11047" lon="-2.06929">
        <ele>29.4</ele>
        <time>2020-06-04T17:09:04Z</time>
      </trkpt>
      <trkpt lat="47.11047" lon="-2.06928">
        <ele>29.4</ele>
        <time>2020-06-04T17:09:05Z</time>
      </trkpt>
      <trkpt lat="47.11046" lon="-2.06929">
        <ele>29.4</ele>
        <time>2020-06-04T17:09:06Z</time>
      </trkpt>
      <trkpt lat="47.11046" lon="-2.06928">
        <ele>29.4</ele>
        <time>2020-06-04T17:09:07Z</time>
      </trkpt>
      <trkpt lat="47.11046" lon="-2.06928">
        <ele>29.4</ele>
        <time>2020-06-04T17:09:08Z</time>
      </trkpt>
      <trkpt lat="47.11046" lon="-2.0693">
        <ele>29.5</ele>
        <time>2020-06-04T17:09:09Z</time>
      </trkpt>
      <trkpt lat="47.11046" lon="-2.06927">
        <ele>29.5</ele>
        <time>2020-06-04T17:09:10Z</time>
      </trkpt>
      <trkpt lat="47.11046" lon="-2.06925">
        <ele>29.5</ele>
        <time>2020-06-04T17:09:11Z</time>
      </trkpt>
      <trkpt lat="47.11046" lon="-2.06923">
        <ele>29.5</ele>
        <time>2020-06-04T17:09:12Z</time>
      </trkpt>
      <trkpt lat="47.11046" lon="-2.06922">
        <ele>29.5</ele>
        <time>2020-06-04T17:09:13Z</time>
      </trkpt>
      <trkpt lat="47.11046" lon="-2.0692">
        <ele>29.5</ele>
        <time>2020-06-04T17:09:14Z</time>
      </trkpt>
      <trkpt lat="47.11046" lon="-2.06921">
        <ele>29.5</ele>
        <time>2020-06-04T17:09:15Z</time>
      </trkpt>
      <trkpt lat="47.11046" lon="-2.06919">
        <ele>29.5</ele>
        <time>2020-06-04T17:09:16Z</time>
      </trkpt>
      <trkpt lat="47.11046" lon="-2.06919">
        <ele>29.5</ele>
        <time>2020-06-04T17:09:17Z</time>
      </trkpt>
      <trkpt lat="47.11046" lon="-2.06919">
        <ele>29.5</ele>
        <time>2020-06-04T17:09:18Z</time>
      </trkpt>
      <trkpt lat="47.11046" lon="-2.06919">
        <ele>29.5</ele>
        <time>2020-06-04T17:09:19Z</time>
      </trkpt>
      <trkpt lat="47.11046" lon="-2.0692">
        <ele>29.5</ele>
        <time>2020-06-04T17:09:20Z</time>
      </trkpt>
      <trkpt lat="47.11046" lon="-2.0692">
        <ele>29.5</ele>
        <time>2020-06-04T17:09:21Z</time>
      </trkpt>
      <trkpt lat="47.11046" lon="-2.0692">
        <ele>29.5</ele>
        <time>2020-06-04T17:09:22Z</time>
      </trkpt>
      <trkpt lat="47.11046" lon="-2.06918">
        <ele>29.5</ele>
        <time>2020-06-04T17:09:23Z</time>
      </trkpt>
      <trkpt lat="47.11045" lon="-2.06918">
        <ele>29.5</ele>
        <time>2020-06-04T17:09:24Z</time>
      </trkpt>
      <trkpt lat="47.11045" lon="-2.06917">
        <ele>29.5</ele>
        <time>2020-06-04T17:09:25Z</time>
      </trkpt>
      <trkpt lat="47.11045" lon="-2.06916">
        <ele>29.5</ele>
        <time>2020-06-04T17:09:26Z</time>
      </trkpt>
      <trkpt lat="47.11045" lon="-2.06916">
        <ele>29.5</ele>
        <time>2020-06-04T17:09:27Z</time>
      </trkpt>
      <trkpt lat="47.11044" lon="-2.06915">
        <ele>29.5</ele>
        <time>2020-06-04T17:09:28Z</time>
      </trkpt>
      <trkpt lat="47.11045" lon="-2.06917">
        <ele>29.5</ele>
        <time>2020-06-04T17:09:29Z</time>
      </trkpt>
      <trkpt lat="47.11045" lon="-2.06917">
        <ele>29.5</ele>
        <time>2020-06-04T17:09:30Z</time>
      </trkpt>
      <trkpt lat="47.11045" lon="-2.06916">
        <ele>29.5</ele>
        <time>2020-06-04T17:09:31Z</time>
      </trkpt>
      <trkpt lat="47.11045" lon="-2.06915">
        <ele>29.5</ele>
        <time>2020-06-04T17:09:32Z</time>
      </trkpt>
      <trkpt lat="47.11044" lon="-2.06914">
        <ele>29.5</ele>
        <time>2020-06-04T17:09:33Z</time>
      </trkpt>
      <trkpt lat="47.11045" lon="-2.06913">
        <ele>29.5</ele>
        <time>2020-06-04T17:09:34Z</time>
      </trkpt>
      <trkpt lat="47.11045" lon="-2.06914">
        <ele>29.5</ele>
        <time>2020-06-04T17:09:35Z</time>
      </trkpt>
      <trkpt lat="47.11045" lon="-2.06914">
        <ele>29.5</ele>
        <time>2020-06-04T17:09:36Z</time>
      </trkpt>
      <trkpt lat="47.11045" lon="-2.06916">
        <ele>29.5</ele>
        <time>2020-06-04T17:09:37Z</time>
      </trkpt>
      <trkpt lat="47.11045" lon="-2.06916">
        <ele>29.5</ele>
        <time>2020-06-04T17:09:38Z</time>
      </trkpt>
      <trkpt lat="47.11044" lon="-2.06917">
        <ele>29.5</ele>
        <time>2020-06-04T17:09:39Z</time>
      </trkpt>
      <trkpt lat="47.11044" lon="-2.06918">
        <ele>29.5</ele>
        <time>2020-06-04T17:09:40Z</time>
      </trkpt>
      <trkpt lat="47.11044" lon="-2.06918">
        <ele>29.5</ele>
        <time>2020-06-04T17:09:41Z</time>
      </trkpt>
      <trkpt lat="47.11044" lon="-2.06919">
        <ele>29.5</ele>
        <time>2020-06-04T17:09:42Z</time>
      </trkpt>
      <trkpt lat="47.11044" lon="-2.06919">
        <ele>29.5</ele>
        <time>2020-06-04T17:09:43Z</time>
      </trkpt>
      <trkpt lat="47.11045" lon="-2.06919">
        <ele>29.5</ele>
        <time>2020-06-04T17:09:44Z</time>
      </trkpt>
      <trkpt lat="47.11045" lon="-2.0692">
        <ele>29.5</ele>
        <time>2020-06-04T17:09:45Z</time>
      </trkpt>
      <trkpt lat="47.11045" lon="-2.06921">
        <ele>29.5</ele>
        <time>2020-06-04T17:09:46Z</time>
      </trkpt>
      <trkpt lat="47.11045" lon="-2.06921">
        <ele>29.5</ele>
        <time>2020-06-04T17:09:47Z</time>
      </trkpt>
      <trkpt lat="47.11045" lon="-2.06922">
        <ele>29.5</ele>
        <time>2020-06-04T17:09:48Z</time>
      </trkpt>
      <trkpt lat="47.11045" lon="-2.06921">
        <ele>29.5</ele>
        <time>2020-06-04T17:09:49Z</time>
      </trkpt>
      <trkpt lat="47.11045" lon="-2.06922">
        <ele>29.5</ele>
        <time>2020-06-04T17:09:50Z</time>
      </trkpt>
      <trkpt lat="47.11045" lon="-2.06923">
        <ele>29.5</ele>
        <time>2020-06-04T17:09:51Z</time>
      </trkpt>
      <trkpt lat="47.11047" lon="-2.06923">
        <ele>29.5</ele>
        <time>2020-06-04T17:09:52Z</time>
      </trkpt>
      <trkpt lat="47.11046" lon="-2.06923">
        <ele>29.5</ele>
        <time>2020-06-04T17:09:53Z</time>
      </trkpt>
      <trkpt lat="47.11047" lon="-2.06923">
        <ele>29.5</ele>
        <time>2020-06-04T17:09:54Z</time>
      </trkpt>
      <trkpt lat="47.11047" lon="-2.06923">
        <ele>29.5</ele>
        <time>2020-06-04T17:09:55Z</time>
      </trkpt>
      <trkpt lat="47.11047" lon="-2.06922">
        <ele>29.5</ele>
        <time>2020-06-04T17:09:56Z</time>
      </trkpt>
      <trkpt lat="47.11048" lon="-2.06922">
        <ele>29.5</ele>
        <time>2020-06-04T17:09:57Z</time>
      </trkpt>
      <trkpt lat="47.11048" lon="-2.06923">
        <ele>29.5</ele>
        <time>2020-06-04T17:09:58Z</time>
      </trkpt>
      <trkpt lat="47.11048" lon="-2.06924">
        <ele>29.5</ele>
        <time>2020-06-04T17:09:59Z</time>
      </trkpt>
      <trkpt lat="47.11049" lon="-2.06925">
        <ele>29.5</ele>
        <time>2020-06-04T17:10:00Z</time>
      </trkpt>
      <trkpt lat="47.11049" lon="-2.06925">
        <ele>29.5</ele>
        <time>2020-06-04T17:10:01Z</time>
      </trkpt>
      <trkpt lat="47.11049" lon="-2.06924">
        <ele>29.5</ele>
        <time>2020-06-04T17:10:02Z</time>
      </trkpt>
      <trkpt lat="47.11049" lon="-2.06924">
        <ele>29.5</ele>
        <time>2020-06-04T17:10:03Z</time>
      </trkpt>
      <trkpt lat="47.1104" lon="-2.06926">
        <ele>29.5</ele>
        <time>2020-06-04T17:10:39Z</time>
      </trkpt>
      <trkpt lat="47.11039" lon="-2.06926">
        <ele>29.5</ele>
        <time>2020-06-04T17:10:40Z</time>
      </trkpt>
      <trkpt lat="47.11039" lon="-2.06925">
        <ele>29.5</ele>
        <time>2020-06-04T17:10:41Z</time>
      </trkpt>
      <trkpt lat="47.11039" lon="-2.06924">
        <ele>29.5</ele>
        <time>2020-06-04T17:10:42Z</time>
      </trkpt>
      <trkpt lat="47.1104" lon="-2.06923">
        <ele>29.5</ele>
        <time>2020-06-04T17:10:43Z</time>
      </trkpt>
      <trkpt lat="47.1104" lon="-2.06923">
        <ele>29.5</ele>
        <time>2020-06-04T17:10:44Z</time>
      </trkpt>
      <trkpt lat="47.1104" lon="-2.06923">
        <ele>29.5</ele>
        <time>2020-06-04T17:10:45Z</time>
      </trkpt>
      <trkpt lat="47.1104" lon="-2.06922">
        <ele>29.5</ele>
        <time>2020-06-04T17:10:46Z</time>
      </trkpt>
      <trkpt lat="47.1104" lon="-2.06923">
        <ele>29.5</ele>
        <time>2020-06-04T17:10:47Z</time>
      </trkpt>
      <trkpt lat="47.11041" lon="-2.06923">
        <ele>29.5</ele>
        <time>2020-06-04T17:10:48Z</time>
      </trkpt>
      <trkpt lat="47.11041" lon="-2.06924">
        <ele>29.5</ele>
        <time>2020-06-04T17:10:49Z</time>
      </trkpt>
      <trkpt lat="47.11041" lon="-2.06924">
        <ele>29.5</ele>
        <time>2020-06-04T17:10:50Z</time>
      </trkpt>
      <trkpt lat="47.11041" lon="-2.06925">
        <ele>29.5</ele>
        <time>2020-06-04T17:10:51Z</time>
      </trkpt>
      <trkpt lat="47.11041" lon="-2.06925">
        <ele>29.5</ele>
        <time>2020-06-04T17:10:52Z</time>
      </trkpt>
      <trkpt lat="47.11041" lon="-2.06925">
        <ele>29.4</ele>
        <time>2020-06-04T17:11:04Z</time>
      </trkpt>
      <trkpt lat="47.11041" lon="-2.06926">
        <ele>29.4</ele>
        <time>2020-06-04T17:11:05Z</time>
      </trkpt>
      <trkpt lat="47.11041" lon="-2.06926">
        <ele>29.4</ele>
        <time>2020-06-04T17:11:06Z</time>
      </trkpt>
      <trkpt lat="47.11042" lon="-2.06927">
        <ele>29.4</ele>
        <time>2020-06-04T17:11:07Z</time>
      </trkpt>
      <trkpt lat="47.11043" lon="-2.06927">
        <ele>29.4</ele>
        <time>2020-06-04T17:11:08Z</time>
      </trkpt>
      <trkpt lat="47.11044" lon="-2.06927">
        <ele>29.4</ele>
        <time>2020-06-04T17:11:09Z</time>
      </trkpt>
      <trkpt lat="47.11044" lon="-2.06928">
        <ele>29.4</ele>
        <time>2020-06-04T17:11:10Z</time>
      </trkpt>
      <trkpt lat="47.11044" lon="-2.06928">
        <ele>29.4</ele>
        <time>2020-06-04T17:11:11Z</time>
      </trkpt>
      <trkpt lat="47.11043" lon="-2.06929">
        <ele>29.4</ele>
        <time>2020-06-04T17:11:12Z</time>
      </trkpt>
      <trkpt lat="47.11043" lon="-2.06929">
        <ele>29.4</ele>
        <time>2020-06-04T17:11:13Z</time>
      </trkpt>
      <trkpt lat="47.11043" lon="-2.0693">
        <ele>29.4</ele>
        <time>2020-06-04T17:11:14Z</time>
      </trkpt>
      <trkpt lat="47.11043" lon="-2.0693">
        <ele>29.4</ele>
        <time>2020-06-04T17:11:15Z</time>
      </trkpt>
      <trkpt lat="47.11043" lon="-2.0693">
        <ele>29.4</ele>
        <time>2020-06-04T17:11:16Z</time>
      </trkpt>
      <trkpt lat="47.11043" lon="-2.06931">
        <ele>29.4</ele>
        <time>2020-06-04T17:11:17Z</time>
      </trkpt>
      <trkpt lat="47.11043" lon="-2.06931">
        <ele>29.4</ele>
        <time>2020-06-04T17:11:18Z</time>
      </trkpt>
      <trkpt lat="47.11043" lon="-2.06932">
        <ele>29.4</ele>
        <time>2020-06-04T17:11:19Z</time>
      </trkpt>
      <trkpt lat="47.11042" lon="-2.06932">
        <ele>29.4</ele>
        <time>2020-06-04T17:11:20Z</time>
      </trkpt>
      <trkpt lat="47.11045" lon="-2.06934">
        <ele>29.4</ele>
        <time>2020-06-04T17:11:21Z</time>
      </trkpt>
      <trkpt lat="47.11047" lon="-2.06936">
        <ele>29.4</ele>
        <time>2020-06-04T17:11:48Z</time>
      </trkpt>
      <trkpt lat="47.11049" lon="-2.06937">
        <ele>29.4</ele>
        <time>2020-06-04T17:11:49Z</time>
      </trkpt>
      <trkpt lat="47.11052" lon="-2.06939">
        <ele>29.4</ele>
        <time>2020-06-04T17:11:50Z</time>
      </trkpt>
      <trkpt lat="47.11052" lon="-2.06944">
        <ele>29.4</ele>
        <time>2020-06-04T17:11:51Z</time>
      </trkpt>
      <trkpt lat="47.11054" lon="-2.06948">
        <ele>29.4</ele>
        <time>2020-06-04T17:11:52Z</time>
      </trkpt>
      <trkpt lat="47.11054" lon="-2.06952">
        <ele>29.4</ele>
        <time>2020-06-04T17:11:53Z</time>
      </trkpt>
      <trkpt lat="47.11055" lon="-2.06957">
        <ele>29.5</ele>
        <time>2020-06-04T17:11:54Z</time>
      </trkpt>
      <trkpt lat="47.11055" lon="-2.06961">
        <ele>29.4</ele>
        <time>2020-06-04T17:11:55Z</time>
      </trkpt>
      <trkpt lat="47.11056" lon="-2.06966">
        <ele>29.4</ele>
        <time>2020-06-04T17:11:56Z</time>
      </trkpt>
      <trkpt lat="47.11056" lon="-2.0697">
        <ele>29.4</ele>
        <time>2020-06-04T17:11:57Z</time>
      </trkpt>
      <trkpt lat="47.11057" lon="-2.06974">
        <ele>29.4</ele>
        <time>2020-06-04T17:11:58Z</time>
      </trkpt>
      <trkpt lat="47.11058" lon="-2.06979">
        <ele>29.4</ele>
        <time>2020-06-04T17:11:59Z</time>
      </trkpt>
      <trkpt lat="47.11059" lon="-2.0698">
        <ele>29.4</ele>
        <time>2020-06-04T17:12:00Z</time>
      </trkpt>
      <trkpt lat="47.11062" lon="-2.06984">
        <ele>29.4</ele>
        <time>2020-06-04T17:12:01Z</time>
      </trkpt>
      <trkpt lat="47.11063" lon="-2.06984">
        <ele>29.4</ele>
        <time>2020-06-04T17:12:02Z</time>
      </trkpt>
      <trkpt lat="47.11067" lon="-2.06986">
        <ele>29.4</ele>
        <time>2020-06-04T17:12:03Z</time>
      </trkpt>
      <trkpt lat="47.11072" lon="-2.06987">
        <ele>29.4</ele>
        <time>2020-06-04T17:12:04Z</time>
      </trkpt>
      <trkpt lat="47.11076" lon="-2.06988">
        <ele>29.4</ele>
        <time>2020-06-04T17:12:05Z</time>
      </trkpt>
      <trkpt lat="47.1108" lon="-2.0699">
        <ele>29.4</ele>
        <time>2020-06-04T17:12:06Z</time>
      </trkpt>
      <trkpt lat="47.11083" lon="-2.06992">
        <ele>29.4</ele>
        <time>2020-06-04T17:12:07Z</time>
      </trkpt>
      <trkpt lat="47.11086" lon="-2.06994">
        <ele>29.4</ele>
        <time>2020-06-04T17:12:08Z</time>
      </trkpt>
      <trkpt lat="47.1109" lon="-2.06995">
        <ele>29.4</ele>
        <time>2020-06-04T17:12:09Z</time>
      </trkpt>
      <trkpt lat="47.11095" lon="-2.06995">
        <ele>29.3</ele>
        <time>2020-06-04T17:12:10Z</time>
      </trkpt>
      <trkpt lat="47.111" lon="-2.06995">
        <ele>29.3</ele>
        <time>2020-06-04T17:12:11Z</time>
      </trkpt>
      <trkpt lat="47.11106" lon="-2.06995">
        <ele>29.3</ele>
        <time>2020-06-04T17:12:12Z</time>
      </trkpt>
      <trkpt lat="47.11112" lon="-2.06994">
        <ele>29.2</ele>
        <time>2020-06-04T17:12:13Z</time>
      </trkpt>
      <trkpt lat="47.11118" lon="-2.06995">
        <ele>29.1</ele>
        <time>2020-06-04T17:12:14Z</time>
      </trkpt>
      <trkpt lat="47.11123" lon="-2.06995">
        <ele>29.1</ele>
        <time>2020-06-04T17:12:15Z</time>
      </trkpt>
      <trkpt lat="47.11128" lon="-2.06995">
        <ele>29</ele>
        <time>2020-06-04T17:12:16Z</time>
      </trkpt>
      <trkpt lat="47.11134" lon="-2.06996">
        <ele>28.9</ele>
        <time>2020-06-04T17:12:17Z</time>
      </trkpt>
      <trkpt lat="47.11138" lon="-2.06996">
        <ele>28.8</ele>
        <time>2020-06-04T17:12:18Z</time>
      </trkpt>
      <trkpt lat="47.11143" lon="-2.06995">
        <ele>28.8</ele>
        <time>2020-06-04T17:12:19Z</time>
      </trkpt>
      <trkpt lat="47.11147" lon="-2.06995">
        <ele>28.7</ele>
        <time>2020-06-04T17:12:20Z</time>
      </trkpt>
      <trkpt lat="47.11153" lon="-2.06997">
        <ele>28.7</ele>
        <time>2020-06-04T17:12:21Z</time>
      </trkpt>
      <trkpt lat="47.11158" lon="-2.07">
        <ele>28.6</ele>
        <time>2020-06-04T17:12:22Z</time>
      </trkpt>
      <trkpt lat="47.11163" lon="-2.07006">
        <ele>28.6</ele>
        <time>2020-06-04T17:12:23Z</time>
      </trkpt>
      <trkpt lat="47.11167" lon="-2.07011">
        <ele>28.5</ele>
        <time>2020-06-04T17:12:24Z</time>
      </trkpt>
      <trkpt lat="47.1117" lon="-2.07017">
        <ele>28.5</ele>
        <time>2020-06-04T17:12:25Z</time>
      </trkpt>
      <trkpt lat="47.11171" lon="-2.07021">
        <ele>28.5</ele>
        <time>2020-06-04T17:12:26Z</time>
      </trkpt>
      <trkpt lat="47.11172" lon="-2.07026">
        <ele>28.4</ele>
        <time>2020-06-04T17:12:27Z</time>
      </trkpt>
      <trkpt lat="47.11173" lon="-2.07031">
        <ele>28.4</ele>
        <time>2020-06-04T17:12:28Z</time>
      </trkpt>
      <trkpt lat="47.11173" lon="-2.07037">
        <ele>28.4</ele>
        <time>2020-06-04T17:12:29Z</time>
      </trkpt>
      <trkpt lat="47.11173" lon="-2.07043">
        <ele>28.4</ele>
        <time>2020-06-04T17:12:30Z</time>
      </trkpt>
      <trkpt lat="47.11173" lon="-2.07049">
        <ele>28.5</ele>
        <time>2020-06-04T17:12:31Z</time>
      </trkpt>
      <trkpt lat="47.11173" lon="-2.07055">
        <ele>28.5</ele>
        <time>2020-06-04T17:12:32Z</time>
      </trkpt>
      <trkpt lat="47.11173" lon="-2.07061">
        <ele>28.5</ele>
        <time>2020-06-04T17:12:33Z</time>
      </trkpt>
      <trkpt lat="47.11173" lon="-2.07067">
        <ele>28.5</ele>
        <time>2020-06-04T17:12:34Z</time>
      </trkpt>
      <trkpt lat="47.11174" lon="-2.07073">
        <ele>28.5</ele>
        <time>2020-06-04T17:12:35Z</time>
      </trkpt>
      <trkpt lat="47.11174" lon="-2.07078">
        <ele>28.5</ele>
        <time>2020-06-04T17:12:36Z</time>
      </trkpt>
      <trkpt lat="47.11174" lon="-2.07083">
        <ele>28.5</ele>
        <time>2020-06-04T17:12:37Z</time>
      </trkpt>
      <trkpt lat="47.11174" lon="-2.07089">
        <ele>28.5</ele>
        <time>2020-06-04T17:12:38Z</time>
      </trkpt>
      <trkpt lat="47.11174" lon="-2.07094">
        <ele>28.4</ele>
        <time>2020-06-04T17:12:39Z</time>
      </trkpt>
      <trkpt lat="47.11174" lon="-2.071">
        <ele>28.4</ele>
        <time>2020-06-04T17:12:40Z</time>
      </trkpt>
      <trkpt lat="47.11174" lon="-2.07105">
        <ele>28.4</ele>
        <time>2020-06-04T17:12:41Z</time>
      </trkpt>
      <trkpt lat="47.11175" lon="-2.07111">
        <ele>28.3</ele>
        <time>2020-06-04T17:12:42Z</time>
      </trkpt>
      <trkpt lat="47.11175" lon="-2.07116">
        <ele>28.3</ele>
        <time>2020-06-04T17:12:43Z</time>
      </trkpt>
      <trkpt lat="47.11175" lon="-2.07122">
        <ele>28.3</ele>
        <time>2020-06-04T17:12:44Z</time>
      </trkpt>
      <trkpt lat="47.11176" lon="-2.07127">
        <ele>28.2</ele>
        <time>2020-06-04T17:12:45Z</time>
      </trkpt>
      <trkpt lat="47.11176" lon="-2.07133">
        <ele>28.2</ele>
        <time>2020-06-04T17:12:46Z</time>
      </trkpt>
      <trkpt lat="47.11176" lon="-2.07139">
        <ele>28.2</ele>
        <time>2020-06-04T17:12:47Z</time>
      </trkpt>
      <trkpt lat="47.11176" lon="-2.07144">
        <ele>28.1</ele>
        <time>2020-06-04T17:12:48Z</time>
      </trkpt>
      <trkpt lat="47.11176" lon="-2.07149">
        <ele>28.1</ele>
        <time>2020-06-04T17:12:49Z</time>
      </trkpt>
      <trkpt lat="47.11176" lon="-2.07155">
        <ele>28.1</ele>
        <time>2020-06-04T17:12:50Z</time>
      </trkpt>
      <trkpt lat="47.11176" lon="-2.0716">
        <ele>28</ele>
        <time>2020-06-04T17:12:51Z</time>
      </trkpt>
      <trkpt lat="47.11176" lon="-2.07166">
        <ele>28</ele>
        <time>2020-06-04T17:12:52Z</time>
      </trkpt>
      <trkpt lat="47.11176" lon="-2.07171">
        <ele>28</ele>
        <time>2020-06-04T17:12:53Z</time>
      </trkpt>
      <trkpt lat="47.11177" lon="-2.07177">
        <ele>27.9</ele>
        <time>2020-06-04T17:12:54Z</time>
      </trkpt>
      <trkpt lat="47.11177" lon="-2.07182">
        <ele>27.8</ele>
        <time>2020-06-04T17:12:55Z</time>
      </trkpt>
      <trkpt lat="47.11177" lon="-2.07188">
        <ele>27.8</ele>
        <time>2020-06-04T17:12:56Z</time>
      </trkpt>
      <trkpt lat="47.11178" lon="-2.07193">
        <ele>27.7</ele>
        <time>2020-06-04T17:12:57Z</time>
      </trkpt>
      <trkpt lat="47.11179" lon="-2.07198">
        <ele>27.6</ele>
        <time>2020-06-04T17:12:58Z</time>
      </trkpt>
      <trkpt lat="47.11182" lon="-2.072">
        <ele>27.4</ele>
        <time>2020-06-04T17:12:59Z</time>
      </trkpt>
      <trkpt lat="47.11185" lon="-2.07201">
        <ele>27.3</ele>
        <time>2020-06-04T17:13:00Z</time>
      </trkpt>
      <trkpt lat="47.11188" lon="-2.07202">
        <ele>27.2</ele>
        <time>2020-06-04T17:13:01Z</time>
      </trkpt>
      <trkpt lat="47.11191" lon="-2.07201">
        <ele>27.1</ele>
        <time>2020-06-04T17:13:02Z</time>
      </trkpt>
      <trkpt lat="47.11192" lon="-2.07201">
        <ele>27.1</ele>
        <time>2020-06-04T17:13:03Z</time>
      </trkpt>
      <trkpt lat="47.11196" lon="-2.07199">
        <ele>27.1</ele>
        <time>2020-06-04T17:13:04Z</time>
      </trkpt>
      <trkpt lat="47.11197" lon="-2.07199">
        <ele>27.1</ele>
        <time>2020-06-04T17:13:05Z</time>
      </trkpt>
      <trkpt lat="47.11199" lon="-2.07198">
        <ele>27</ele>
        <time>2020-06-04T17:13:06Z</time>
      </trkpt>
      <trkpt lat="47.112" lon="-2.07198">
        <ele>27</ele>
        <time>2020-06-04T17:13:07Z</time>
      </trkpt>
      <trkpt lat="47.112" lon="-2.07199">
        <ele>27</ele>
        <time>2020-06-04T17:13:08Z</time>
      </trkpt>
      <trkpt lat="47.112" lon="-2.072">
        <ele>27</ele>
        <time>2020-06-04T17:13:09Z</time>
      </trkpt>
      <trkpt lat="47.112" lon="-2.07201">
        <ele>27</ele>
        <time>2020-06-04T17:13:10Z</time>
      </trkpt>
      <trkpt lat="47.112" lon="-2.07202">
        <ele>27</ele>
        <time>2020-06-04T17:13:11Z</time>
      </trkpt>
      <trkpt lat="47.112" lon="-2.07203">
        <ele>27</ele>
        <time>2020-06-04T17:13:12Z</time>
      </trkpt>
      <trkpt lat="47.112" lon="-2.07203">
        <ele>27</ele>
        <time>2020-06-04T17:13:13Z</time>
      </trkpt>
      <trkpt lat="47.11199" lon="-2.07204">
        <ele>27</ele>
        <time>2020-06-04T17:13:14Z</time>
      </trkpt>
      <trkpt lat="47.11199" lon="-2.07204">
        <ele>27</ele>
        <time>2020-06-04T17:13:15Z</time>
      </trkpt>
      <trkpt lat="47.11198" lon="-2.07205">
        <ele>27</ele>
        <time>2020-06-04T17:13:16Z</time>
      </trkpt>
      <trkpt lat="47.11197" lon="-2.07205">
        <ele>26.9</ele>
        <time>2020-06-04T17:13:17Z</time>
      </trkpt>
      <trkpt lat="47.11197" lon="-2.07205">
        <ele>26.9</ele>
        <time>2020-06-04T17:13:18Z</time>
      </trkpt>
      <trkpt lat="47.11197" lon="-2.07206">
        <ele>26.9</ele>
        <time>2020-06-04T17:13:19Z</time>
      </trkpt>
      <trkpt lat="47.11197" lon="-2.07206">
        <ele>26.9</ele>
        <time>2020-06-04T17:13:20Z</time>
      </trkpt>
      <trkpt lat="47.11197" lon="-2.07206">
        <ele>26.9</ele>
        <time>2020-06-04T17:13:21Z</time>
      </trkpt>
      <trkpt lat="47.11198" lon="-2.07207">
        <ele>26.9</ele>
        <time>2020-06-04T17:13:22Z</time>
      </trkpt>
      <trkpt lat="47.11198" lon="-2.07208">
        <ele>26.9</ele>
        <time>2020-06-04T17:13:23Z</time>
      </trkpt>
      <trkpt lat="47.11198" lon="-2.07209">
        <ele>26.9</ele>
        <time>2020-06-04T17:13:24Z</time>
      </trkpt>
      <trkpt lat="47.11199" lon="-2.07209">
        <ele>26.9</ele>
        <time>2020-06-04T17:13:25Z</time>
      </trkpt>
      <trkpt lat="47.11199" lon="-2.0721">
        <ele>26.9</ele>
        <time>2020-06-04T17:13:26Z</time>
      </trkpt>
      <trkpt lat="47.112" lon="-2.07209">
        <ele>26.9</ele>
        <time>2020-06-04T17:13:27Z</time>
      </trkpt>
      <trkpt lat="47.112" lon="-2.0721">
        <ele>26.9</ele>
        <time>2020-06-04T17:13:28Z</time>
      </trkpt>
      <trkpt lat="47.112" lon="-2.07209">
        <ele>26.9</ele>
        <time>2020-06-04T17:13:29Z</time>
      </trkpt>
      <trkpt lat="47.11201" lon="-2.07208">
        <ele>26.9</ele>
        <time>2020-06-04T17:13:30Z</time>
      </trkpt>
      <trkpt lat="47.11202" lon="-2.07208">
        <ele>26.8</ele>
        <time>2020-06-04T17:13:31Z</time>
      </trkpt>
      <trkpt lat="47.11202" lon="-2.07208">
        <ele>26.8</ele>
        <time>2020-06-04T17:13:32Z</time>
      </trkpt>
      <trkpt lat="47.11202" lon="-2.07208">
        <ele>26.8</ele>
        <time>2020-06-04T17:13:33Z</time>
      </trkpt>
      <trkpt lat="47.11202" lon="-2.07208">
        <ele>26.8</ele>
        <time>2020-06-04T17:13:34Z</time>
      </trkpt>
      <trkpt lat="47.11201" lon="-2.07209">
        <ele>26.8</ele>
        <time>2020-06-04T17:13:35Z</time>
      </trkpt>
      <trkpt lat="47.11201" lon="-2.0721">
        <ele>26.8</ele>
        <time>2020-06-04T17:13:36Z</time>
      </trkpt>
      <trkpt lat="47.11201" lon="-2.0721">
        <ele>26.8</ele>
        <time>2020-06-04T17:13:37Z</time>
      </trkpt>
      <trkpt lat="47.11201" lon="-2.0721">
        <ele>26.8</ele>
        <time>2020-06-04T17:13:38Z</time>
      </trkpt>
      <trkpt lat="47.11201" lon="-2.0721">
        <ele>26.8</ele>
        <time>2020-06-04T17:13:39Z</time>
      </trkpt>
      <trkpt lat="47.11201" lon="-2.0721">
        <ele>26.8</ele>
        <time>2020-06-04T17:13:40Z</time>
      </trkpt>
      <trkpt lat="47.11201" lon="-2.07211">
        <ele>26.8</ele>
        <time>2020-06-04T17:13:41Z</time>
      </trkpt>
      <trkpt lat="47.11202" lon="-2.0721">
        <ele>26.8</ele>
        <time>2020-06-04T17:13:42Z</time>
      </trkpt>
      <trkpt lat="47.11202" lon="-2.0721">
        <ele>26.8</ele>
        <time>2020-06-04T17:13:43Z</time>
      </trkpt>
      <trkpt lat="47.11202" lon="-2.07211">
        <ele>26.8</ele>
        <time>2020-06-04T17:13:44Z</time>
      </trkpt>
      <trkpt lat="47.11202" lon="-2.07211">
        <ele>26.8</ele>
        <time>2020-06-04T17:13:45Z</time>
      </trkpt>
      <trkpt lat="47.11202" lon="-2.07211">
        <ele>26.8</ele>
        <time>2020-06-04T17:13:46Z</time>
      </trkpt>
      <trkpt lat="47.11202" lon="-2.07211">
        <ele>26.8</ele>
        <time>2020-06-04T17:13:47Z</time>
      </trkpt>
      <trkpt lat="47.11202" lon="-2.07211">
        <ele>26.8</ele>
        <time>2020-06-04T17:13:48Z</time>
      </trkpt>
      <trkpt lat="47.11202" lon="-2.07211">
        <ele>26.8</ele>
        <time>2020-06-04T17:13:49Z</time>
      </trkpt>
      <trkpt lat="47.11203" lon="-2.07211">
        <ele>26.8</ele>
        <time>2020-06-04T17:13:50Z</time>
      </trkpt>
      <trkpt lat="47.11203" lon="-2.07211">
        <ele>26.8</ele>
        <time>2020-06-04T17:13:51Z</time>
      </trkpt>
      <trkpt lat="47.11204" lon="-2.0721">
        <ele>26.8</ele>
        <time>2020-06-04T17:13:52Z</time>
      </trkpt>
      <trkpt lat="47.11204" lon="-2.07211">
        <ele>26.8</ele>
        <time>2020-06-04T17:13:53Z</time>
      </trkpt>
      <trkpt lat="47.11215" lon="-2.07205">
        <ele>26.6</ele>
        <time>2020-06-04T17:15:56Z</time>
      </trkpt>
      <trkpt lat="47.11217" lon="-2.07205">
        <ele>26.6</ele>
        <time>2020-06-04T17:15:57Z</time>
      </trkpt>
      <trkpt lat="47.11218" lon="-2.07206">
        <ele>26.6</ele>
        <time>2020-06-04T17:15:58Z</time>
      </trkpt>
      <trkpt lat="47.11219" lon="-2.07206">
        <ele>26.6</ele>
        <time>2020-06-04T17:15:59Z</time>
      </trkpt>
      <trkpt lat="47.1122" lon="-2.07207">
        <ele>26.5</ele>
        <time>2020-06-04T17:16:00Z</time>
      </trkpt>
      <trkpt lat="47.1122" lon="-2.07208">
        <ele>26.5</ele>
        <time>2020-06-04T17:16:01Z</time>
      </trkpt>
      <trkpt lat="47.1122" lon="-2.07208">
        <ele>26.5</ele>
        <time>2020-06-04T17:16:02Z</time>
      </trkpt>
      <trkpt lat="47.1122" lon="-2.07208">
        <ele>26.5</ele>
        <time>2020-06-04T17:16:03Z</time>
      </trkpt>
      <trkpt lat="47.1122" lon="-2.07208">
        <ele>26.5</ele>
        <time>2020-06-04T17:16:04Z</time>
      </trkpt>
      <trkpt lat="47.11221" lon="-2.07208">
        <ele>26.5</ele>
        <time>2020-06-04T17:16:05Z</time>
      </trkpt>
      <trkpt lat="47.11221" lon="-2.07208">
        <ele>26.5</ele>
        <time>2020-06-04T17:16:06Z</time>
      </trkpt>
      <trkpt lat="47.11221" lon="-2.07208">
        <ele>26.5</ele>
        <time>2020-06-04T17:16:07Z</time>
      </trkpt>
      <trkpt lat="47.11221" lon="-2.07208">
        <ele>26.5</ele>
        <time>2020-06-04T17:16:08Z</time>
      </trkpt>
      <trkpt lat="47.11222" lon="-2.07208">
        <ele>26.5</ele>
        <time>2020-06-04T17:16:09Z</time>
      </trkpt>
      <trkpt lat="47.11222" lon="-2.07208">
        <ele>26.5</ele>
        <time>2020-06-04T17:16:10Z</time>
      </trkpt>
      <trkpt lat="47.11222" lon="-2.07208">
        <ele>26.5</ele>
        <time>2020-06-04T17:16:25Z</time>
      </trkpt>
      <trkpt lat="47.11223" lon="-2.07208">
        <ele>26.5</ele>
        <time>2020-06-04T17:16:26Z</time>
      </trkpt>
      <trkpt lat="47.11223" lon="-2.07208">
        <ele>26.5</ele>
        <time>2020-06-04T17:16:27Z</time>
      </trkpt>
      <trkpt lat="47.11223" lon="-2.07208">
        <ele>26.5</ele>
        <time>2020-06-04T17:16:28Z</time>
      </trkpt>
      <trkpt lat="47.11223" lon="-2.07208">
        <ele>26.5</ele>
        <time>2020-06-04T17:16:29Z</time>
      </trkpt>
      <trkpt lat="47.11224" lon="-2.07208">
        <ele>26.5</ele>
        <time>2020-06-04T17:16:30Z</time>
      </trkpt>
      <trkpt lat="47.11224" lon="-2.07208">
        <ele>26.5</ele>
        <time>2020-06-04T17:16:40Z</time>
      </trkpt>
      <trkpt lat="47.11224" lon="-2.07208">
        <ele>26.5</ele>
        <time>2020-06-04T17:18:30Z</time>
      </trkpt>
      <trkpt lat="47.11224" lon="-2.07208">
        <ele>26.5</ele>
        <time>2020-06-04T17:18:31Z</time>
      </trkpt>
      <trkpt lat="47.11228" lon="-2.07207">
        <ele>26.4</ele>
        <time>2020-06-04T17:18:32Z</time>
      </trkpt>
      <trkpt lat="47.11229" lon="-2.07208">
        <ele>26.4</ele>
        <time>2020-06-04T17:18:33Z</time>
      </trkpt>
      <trkpt lat="47.11229" lon="-2.07211">
        <ele>26.4</ele>
        <time>2020-06-04T17:18:34Z</time>
      </trkpt>
      <trkpt lat="47.1123" lon="-2.07213">
        <ele>26.4</ele>
        <time>2020-06-04T17:18:35Z</time>
      </trkpt>
      <trkpt lat="47.1123" lon="-2.07216">
        <ele>26.4</ele>
        <time>2020-06-04T17:18:36Z</time>
      </trkpt>
      <trkpt lat="47.11231" lon="-2.07217">
        <ele>26.4</ele>
        <time>2020-06-04T17:18:37Z</time>
      </trkpt>
      <trkpt lat="47.11232" lon="-2.07217">
        <ele>26.3</ele>
        <time>2020-06-04T17:18:38Z</time>
      </trkpt>
      <trkpt lat="47.11234" lon="-2.07217">
        <ele>26.3</ele>
        <time>2020-06-04T17:18:39Z</time>
      </trkpt>
      <trkpt lat="47.11237" lon="-2.07216">
        <ele>26.3</ele>
        <time>2020-06-04T17:18:40Z</time>
      </trkpt>
      <trkpt lat="47.11238" lon="-2.07215">
        <ele>26.3</ele>
        <time>2020-06-04T17:18:41Z</time>
      </trkpt>
      <trkpt lat="47.1124" lon="-2.07215">
        <ele>26.3</ele>
        <time>2020-06-04T17:18:42Z</time>
      </trkpt>
      <trkpt lat="47.1124" lon="-2.07216">
        <ele>26.3</ele>
        <time>2020-06-04T17:18:43Z</time>
      </trkpt>
      <trkpt lat="47.11241" lon="-2.07215">
        <ele>26.3</ele>
        <time>2020-06-04T17:18:44Z</time>
      </trkpt>
      <trkpt lat="47.11241" lon="-2.07215">
        <ele>26.3</ele>
        <time>2020-06-04T17:18:45Z</time>
      </trkpt>
      <trkpt lat="47.11241" lon="-2.07213">
        <ele>26.3</ele>
        <time>2020-06-04T17:18:46Z</time>
      </trkpt>
      <trkpt lat="47.11242" lon="-2.07212">
        <ele>26.2</ele>
        <time>2020-06-04T17:18:47Z</time>
      </trkpt>
      <trkpt lat="47.11242" lon="-2.0721">
        <ele>26.2</ele>
        <time>2020-06-04T17:18:48Z</time>
      </trkpt>
      <trkpt lat="47.11242" lon="-2.07209">
        <ele>26.2</ele>
        <time>2020-06-04T17:18:49Z</time>
      </trkpt>
      <trkpt lat="47.11242" lon="-2.07212">
        <ele>26.2</ele>
        <time>2020-06-04T17:18:50Z</time>
      </trkpt>
      <trkpt lat="47.11241" lon="-2.07216">
        <ele>26.2</ele>
        <time>2020-06-04T17:18:51Z</time>
      </trkpt>
      <trkpt lat="47.1124" lon="-2.07219">
        <ele>26.2</ele>
        <time>2020-06-04T17:18:52Z</time>
      </trkpt>
      <trkpt lat="47.11238" lon="-2.07222">
        <ele>26.2</ele>
        <time>2020-06-04T17:18:53Z</time>
      </trkpt>
      <trkpt lat="47.11237" lon="-2.07225">
        <ele>26.2</ele>
        <time>2020-06-04T17:18:54Z</time>
      </trkpt>
      <trkpt lat="47.11236" lon="-2.07229">
        <ele>26.2</ele>
        <time>2020-06-04T17:18:55Z</time>
      </trkpt>
      <trkpt lat="47.11235" lon="-2.07232">
        <ele>26.2</ele>
        <time>2020-06-04T17:18:56Z</time>
      </trkpt>
      <trkpt lat="47.11234" lon="-2.07235">
        <ele>26.2</ele>
        <time>2020-06-04T17:18:57Z</time>
      </trkpt>
      <trkpt lat="47.11233" lon="-2.07238">
        <ele>26.2</ele>
        <time>2020-06-04T17:18:58Z</time>
      </trkpt>
      <trkpt lat="47.11232" lon="-2.07242">
        <ele>26.2</ele>
        <time>2020-06-04T17:18:59Z</time>
      </trkpt>
      <trkpt lat="47.11231" lon="-2.07245">
        <ele>26.2</ele>
        <time>2020-06-04T17:19:37Z</time>
      </trkpt>
      <trkpt lat="47.1123" lon="-2.07248">
        <ele>26.2</ele>
        <time>2020-06-04T17:19:38Z</time>
      </trkpt>
      <trkpt lat="47.1123" lon="-2.07239">
        <ele>26.2</ele>
        <time>2020-06-04T17:19:39Z</time>
      </trkpt>
      <trkpt lat="47.11231" lon="-2.07234">
        <ele>26.2</ele>
        <time>2020-06-04T17:19:40Z</time>
      </trkpt>
      <trkpt lat="47.11232" lon="-2.07233">
        <ele>26.2</ele>
        <time>2020-06-04T17:19:41Z</time>
      </trkpt>
      <trkpt lat="47.11232" lon="-2.07231">
        <ele>26.2</ele>
        <time>2020-06-04T17:19:42Z</time>
      </trkpt>
      <trkpt lat="47.11234" lon="-2.07229">
        <ele>26.2</ele>
        <time>2020-06-04T17:19:43Z</time>
      </trkpt>
      <trkpt lat="47.11236" lon="-2.07227">
        <ele>26.2</ele>
        <time>2020-06-04T17:19:44Z</time>
      </trkpt>
      <trkpt lat="47.11237" lon="-2.07226">
        <ele>26.2</ele>
        <time>2020-06-04T17:19:45Z</time>
      </trkpt>
      <trkpt lat="47.1124" lon="-2.07223">
        <ele>26.2</ele>
        <time>2020-06-04T17:19:46Z</time>
      </trkpt>
      <trkpt lat="47.11241" lon="-2.07221">
        <ele>26.2</ele>
        <time>2020-06-04T17:19:47Z</time>
      </trkpt>
      <trkpt lat="47.11242" lon="-2.07219">
        <ele>26.2</ele>
        <time>2020-06-04T17:19:48Z</time>
      </trkpt>
      <trkpt lat="47.11243" lon="-2.07217">
        <ele>26.2</ele>
        <time>2020-06-04T17:19:49Z</time>
      </trkpt>
      <trkpt lat="47.11243" lon="-2.07216">
        <ele>26.1</ele>
        <time>2020-06-04T17:19:50Z</time>
      </trkpt>
      <trkpt lat="47.11244" lon="-2.07215">
        <ele>26.1</ele>
        <time>2020-06-04T17:19:51Z</time>
      </trkpt>
      <trkpt lat="47.11244" lon="-2.07213">
        <ele>26.2</ele>
        <time>2020-06-04T17:19:52Z</time>
      </trkpt>
      <trkpt lat="47.11244" lon="-2.07213">
        <ele>26.2</ele>
        <time>2020-06-04T17:19:53Z</time>
      </trkpt>
      <trkpt lat="47.11244" lon="-2.07213">
        <ele>26.2</ele>
        <time>2020-06-04T17:19:54Z</time>
      </trkpt>
      <trkpt lat="47.11245" lon="-2.07213">
        <ele>26.2</ele>
        <time>2020-06-04T17:19:55Z</time>
      </trkpt>
      <trkpt lat="47.11245" lon="-2.07213">
        <ele>26.2</ele>
        <time>2020-06-04T17:19:56Z</time>
      </trkpt>
      <trkpt lat="47.11245" lon="-2.07213">
        <ele>26.2</ele>
        <time>2020-06-04T17:19:57Z</time>
      </trkpt>
      <trkpt lat="47.11245" lon="-2.07212">
        <ele>26.2</ele>
        <time>2020-06-04T17:19:58Z</time>
      </trkpt>
      <trkpt lat="47.11245" lon="-2.07212">
        <ele>26.2</ele>
        <time>2020-06-04T17:19:59Z</time>
      </trkpt>
      <trkpt lat="47.11246" lon="-2.07211">
        <ele>26.2</ele>
        <time>2020-06-04T17:20:00Z</time>
      </trkpt>
      <trkpt lat="47.11246" lon="-2.07208">
        <ele>26.2</ele>
        <time>2020-06-04T17:20:01Z</time>
      </trkpt>
      <trkpt lat="47.11246" lon="-2.07206">
        <ele>26.2</ele>
        <time>2020-06-04T17:20:02Z</time>
      </trkpt>
      <trkpt lat="47.11246" lon="-2.07205">
        <ele>26.2</ele>
        <time>2020-06-04T17:20:03Z</time>
      </trkpt>
      <trkpt lat="47.11245" lon="-2.07204">
        <ele>26.2</ele>
        <time>2020-06-04T17:20:04Z</time>
      </trkpt>
      <trkpt lat="47.11244" lon="-2.07203">
        <ele>26.2</ele>
        <time>2020-06-04T17:20:05Z</time>
      </trkpt>
      <trkpt lat="47.11244" lon="-2.07202">
        <ele>26.2</ele>
        <time>2020-06-04T17:20:06Z</time>
      </trkpt>
      <trkpt lat="47.11244" lon="-2.07201">
        <ele>26.2</ele>
        <time>2020-06-04T17:20:07Z</time>
      </trkpt>
      <trkpt lat="47.11243" lon="-2.07201">
        <ele>26.2</ele>
        <time>2020-06-04T17:20:08Z</time>
      </trkpt>
      <trkpt lat="47.11243" lon="-2.072">
        <ele>26.2</ele>
        <time>2020-06-04T17:20:09Z</time>
      </trkpt>
      <trkpt lat="47.11242" lon="-2.07199">
        <ele>26.2</ele>
        <time>2020-06-04T17:20:10Z</time>
      </trkpt>
      <trkpt lat="47.11241" lon="-2.07198">
        <ele>26.2</ele>
        <time>2020-06-04T17:20:11Z</time>
      </trkpt>
      <trkpt lat="47.1124" lon="-2.07198">
        <ele>26.3</ele>
        <time>2020-06-04T17:20:12Z</time>
      </trkpt>
      <trkpt lat="47.11237" lon="-2.07196">
        <ele>26.3</ele>
        <time>2020-06-04T17:20:13Z</time>
      </trkpt>
      <trkpt lat="47.11236" lon="-2.07196">
        <ele>26.3</ele>
        <time>2020-06-04T17:20:14Z</time>
      </trkpt>
      <trkpt lat="47.11232" lon="-2.07195">
        <ele>26.3</ele>
        <time>2020-06-04T17:20:15Z</time>
      </trkpt>
      <trkpt lat="47.11228" lon="-2.07196">
        <ele>26.4</ele>
        <time>2020-06-04T17:20:16Z</time>
      </trkpt>
      <trkpt lat="47.11227" lon="-2.07196">
        <ele>26.4</ele>
        <time>2020-06-04T17:20:17Z</time>
      </trkpt>
      <trkpt lat="47.11223" lon="-2.07196">
        <ele>26.5</ele>
        <time>2020-06-04T17:20:18Z</time>
      </trkpt>
      <trkpt lat="47.1122" lon="-2.07196">
        <ele>26.5</ele>
        <time>2020-06-04T17:20:19Z</time>
      </trkpt>
      <trkpt lat="47.11217" lon="-2.07196">
        <ele>26.6</ele>
        <time>2020-06-04T17:20:20Z</time>
      </trkpt>
      <trkpt lat="47.11211" lon="-2.07195">
        <ele>26.7</ele>
        <time>2020-06-04T17:20:21Z</time>
      </trkpt>
      <trkpt lat="47.11207" lon="-2.07195">
        <ele>26.8</ele>
        <time>2020-06-04T17:20:22Z</time>
      </trkpt>
      <trkpt lat="47.11204" lon="-2.07195">
        <ele>26.8</ele>
        <time>2020-06-04T17:20:23Z</time>
      </trkpt>
      <trkpt lat="47.11201" lon="-2.07196">
        <ele>26.9</ele>
        <time>2020-06-04T17:20:24Z</time>
      </trkpt>
      <trkpt lat="47.11198" lon="-2.07195">
        <ele>27</ele>
        <time>2020-06-04T17:20:25Z</time>
      </trkpt>
      <trkpt lat="47.11197" lon="-2.07194">
        <ele>27</ele>
        <time>2020-06-04T17:20:26Z</time>
      </trkpt>
      <trkpt lat="47.11196" lon="-2.07193">
        <ele>27</ele>
        <time>2020-06-04T17:20:27Z</time>
      </trkpt>
      <trkpt lat="47.11196" lon="-2.07193">
        <ele>27</ele>
        <time>2020-06-04T17:20:28Z</time>
      </trkpt>
      <trkpt lat="47.11195" lon="-2.07193">
        <ele>27</ele>
        <time>2020-06-04T17:20:29Z</time>
      </trkpt>
      <trkpt lat="47.11195" lon="-2.07193">
        <ele>27</ele>
        <time>2020-06-04T17:20:30Z</time>
      </trkpt>
      <trkpt lat="47.11194" lon="-2.07193">
        <ele>27</ele>
        <time>2020-06-04T17:20:31Z</time>
      </trkpt>
      <trkpt lat="47.11194" lon="-2.07193">
        <ele>27</ele>
        <time>2020-06-04T17:20:32Z</time>
      </trkpt>
      <trkpt lat="47.11194" lon="-2.07193">
        <ele>27</ele>
        <time>2020-06-04T17:20:33Z</time>
      </trkpt>
      <trkpt lat="47.11193" lon="-2.07193">
        <ele>27</ele>
        <time>2020-06-04T17:20:34Z</time>
      </trkpt>
      <trkpt lat="47.11193" lon="-2.07193">
        <ele>27.1</ele>
        <time>2020-06-04T17:20:35Z</time>
      </trkpt>
      <trkpt lat="47.11193" lon="-2.07193">
        <ele>27.1</ele>
        <time>2020-06-04T17:20:36Z</time>
      </trkpt>
      <trkpt lat="47.11192" lon="-2.07193">
        <ele>27.1</ele>
        <time>2020-06-04T17:20:37Z</time>
      </trkpt>
      <trkpt lat="47.11192" lon="-2.07193">
        <ele>27.1</ele>
        <time>2020-06-04T17:20:38Z</time>
      </trkpt>
      <trkpt lat="47.11192" lon="-2.07193">
        <ele>27.1</ele>
        <time>2020-06-04T17:20:39Z</time>
      </trkpt>
      <trkpt lat="47.11191" lon="-2.07193">
        <ele>27.1</ele>
        <time>2020-06-04T17:22:22Z</time>
      </trkpt>
      <trkpt lat="47.11191" lon="-2.07193">
        <ele>27.1</ele>
        <time>2020-06-04T17:22:23Z</time>
      </trkpt>
      <trkpt lat="47.11189" lon="-2.07194">
        <ele>27.1</ele>
        <time>2020-06-04T17:22:24Z</time>
      </trkpt>
      <trkpt lat="47.11188" lon="-2.07195">
        <ele>27.1</ele>
        <time>2020-06-04T17:22:25Z</time>
      </trkpt>
      <trkpt lat="47.11185" lon="-2.07197">
        <ele>27.2</ele>
        <time>2020-06-04T17:22:26Z</time>
      </trkpt>
      <trkpt lat="47.11184" lon="-2.07197">
        <ele>27.4</ele>
        <time>2020-06-04T17:22:27Z</time>
      </trkpt>
      <trkpt lat="47.11184" lon="-2.07197">
        <ele>27.4</ele>
        <time>2020-06-04T17:22:28Z</time>
      </trkpt>
      <trkpt lat="47.11183" lon="-2.07197">
        <ele>27.4</ele>
        <time>2020-06-04T17:22:29Z</time>
      </trkpt>
      <trkpt lat="47.11182" lon="-2.07197">
        <ele>27.4</ele>
        <time>2020-06-04T17:22:30Z</time>
      </trkpt>
      <trkpt lat="47.11182" lon="-2.07198">
        <ele>27.4</ele>
        <time>2020-06-04T17:22:31Z</time>
      </trkpt>
      <trkpt lat="47.11182" lon="-2.07197">
        <ele>27.4</ele>
        <time>2020-06-04T17:22:32Z</time>
      </trkpt>
      <trkpt lat="47.11181" lon="-2.07197">
        <ele>27.4</ele>
        <time>2020-06-04T17:22:33Z</time>
      </trkpt>
      <trkpt lat="47.11181" lon="-2.07197">
        <ele>27.4</ele>
        <time>2020-06-04T17:22:34Z</time>
      </trkpt>
      <trkpt lat="47.11181" lon="-2.07199">
        <ele>27.4</ele>
        <time>2020-06-04T17:22:35Z</time>
      </trkpt>
      <trkpt lat="47.1118" lon="-2.07199">
        <ele>27.5</ele>
        <time>2020-06-04T17:22:36Z</time>
      </trkpt>
      <trkpt lat="47.1118" lon="-2.07199">
        <ele>27.5</ele>
        <time>2020-06-04T17:22:37Z</time>
      </trkpt>
      <trkpt lat="47.1118" lon="-2.07198">
        <ele>27.5</ele>
        <time>2020-06-04T17:22:38Z</time>
      </trkpt>
      <trkpt lat="47.11179" lon="-2.07196">
        <ele>27.5</ele>
        <time>2020-06-04T17:22:39Z</time>
      </trkpt>
      <trkpt lat="47.11177" lon="-2.07191">
        <ele>27.7</ele>
        <time>2020-06-04T17:22:40Z</time>
      </trkpt>
      <trkpt lat="47.11176" lon="-2.07186">
        <ele>27.8</ele>
        <time>2020-06-04T17:22:41Z</time>
      </trkpt>
      <trkpt lat="47.11176" lon="-2.0718">
        <ele>27.9</ele>
        <time>2020-06-04T17:22:42Z</time>
      </trkpt>
      <trkpt lat="47.11175" lon="-2.07174">
        <ele>27.9</ele>
        <time>2020-06-04T17:22:43Z</time>
      </trkpt>
      <trkpt lat="47.11174" lon="-2.07168">
        <ele>28</ele>
        <time>2020-06-04T17:22:44Z</time>
      </trkpt>
      <trkpt lat="47.11174" lon="-2.0716">
        <ele>28.1</ele>
        <time>2020-06-04T17:22:45Z</time>
      </trkpt>
      <trkpt lat="47.11173" lon="-2.07154">
        <ele>28.1</ele>
        <time>2020-06-04T17:22:46Z</time>
      </trkpt>
      <trkpt lat="47.11173" lon="-2.07149">
        <ele>28.1</ele>
        <time>2020-06-04T17:22:47Z</time>
      </trkpt>
      <trkpt lat="47.11172" lon="-2.07142">
        <ele>28.2</ele>
        <time>2020-06-04T17:22:48Z</time>
      </trkpt>
      <trkpt lat="47.11172" lon="-2.07136">
        <ele>28.2</ele>
        <time>2020-06-04T17:22:49Z</time>
      </trkpt>
      <trkpt lat="47.11172" lon="-2.0713">
        <ele>28.2</ele>
        <time>2020-06-04T17:22:50Z</time>
      </trkpt>
      <trkpt lat="47.11171" lon="-2.07123">
        <ele>28.3</ele>
        <time>2020-06-04T17:22:51Z</time>
      </trkpt>
      <trkpt lat="47.11171" lon="-2.07117">
        <ele>28.3</ele>
        <time>2020-06-04T17:22:52Z</time>
      </trkpt>
      <trkpt lat="47.11171" lon="-2.07111">
        <ele>28.3</ele>
        <time>2020-06-04T17:22:53Z</time>
      </trkpt>
      <trkpt lat="47.11171" lon="-2.07105">
        <ele>28.4</ele>
        <time>2020-06-04T17:22:54Z</time>
      </trkpt>
      <trkpt lat="47.11172" lon="-2.07098">
        <ele>28.4</ele>
        <time>2020-06-04T17:22:55Z</time>
      </trkpt>
      <trkpt lat="47.11171" lon="-2.07092">
        <ele>28.4</ele>
        <time>2020-06-04T17:22:56Z</time>
      </trkpt>
      <trkpt lat="47.11171" lon="-2.07086">
        <ele>28.5</ele>
        <time>2020-06-04T17:22:57Z</time>
      </trkpt>
      <trkpt lat="47.11171" lon="-2.07079">
        <ele>28.5</ele>
        <time>2020-06-04T17:22:58Z</time>
      </trkpt>
      <trkpt lat="47.11171" lon="-2.07074">
        <ele>28.5</ele>
        <time>2020-06-04T17:22:59Z</time>
      </trkpt>
      <trkpt lat="47.11171" lon="-2.07068">
        <ele>28.5</ele>
        <time>2020-06-04T17:23:00Z</time>
      </trkpt>
      <trkpt lat="47.11171" lon="-2.07062">
        <ele>28.5</ele>
        <time>2020-06-04T17:23:01Z</time>
      </trkpt>
      <trkpt lat="47.11171" lon="-2.07056">
        <ele>28.5</ele>
        <time>2020-06-04T17:23:02Z</time>
      </trkpt>
      <trkpt lat="47.11171" lon="-2.07051">
        <ele>28.5</ele>
        <time>2020-06-04T17:23:03Z</time>
      </trkpt>
      <trkpt lat="47.11171" lon="-2.07045">
        <ele>28.4</ele>
        <time>2020-06-04T17:23:04Z</time>
      </trkpt>
      <trkpt lat="47.11172" lon="-2.0704">
        <ele>28.4</ele>
        <time>2020-06-04T17:23:05Z</time>
      </trkpt>
      <trkpt lat="47.11172" lon="-2.07035">
        <ele>28.4</ele>
        <time>2020-06-04T17:23:06Z</time>
      </trkpt>
      <trkpt lat="47.11173" lon="-2.0703">
        <ele>28.4</ele>
        <time>2020-06-04T17:23:07Z</time>
      </trkpt>
      <trkpt lat="47.11173" lon="-2.07023">
        <ele>28.5</ele>
        <time>2020-06-04T17:23:08Z</time>
      </trkpt>
      <trkpt lat="47.11173" lon="-2.07017">
        <ele>28.5</ele>
        <time>2020-06-04T17:23:09Z</time>
      </trkpt>
      <trkpt lat="47.11173" lon="-2.07012">
        <ele>28.5</ele>
        <time>2020-06-04T17:23:10Z</time>
      </trkpt>
      <trkpt lat="47.11171" lon="-2.07005">
        <ele>28.5</ele>
        <time>2020-06-04T17:23:11Z</time>
      </trkpt>
      <trkpt lat="47.11171" lon="-2.06999">
        <ele>28.5</ele>
        <time>2020-06-04T17:23:12Z</time>
      </trkpt>
      <trkpt lat="47.11171" lon="-2.06993">
        <ele>28.6</ele>
        <time>2020-06-04T17:23:13Z</time>
      </trkpt>
      <trkpt lat="47.11171" lon="-2.06986">
        <ele>28.6</ele>
        <time>2020-06-04T17:23:14Z</time>
      </trkpt>
      <trkpt lat="47.11171" lon="-2.06979">
        <ele>28.6</ele>
        <time>2020-06-04T17:23:15Z</time>
      </trkpt>
      <trkpt lat="47.11171" lon="-2.06973">
        <ele>28.7</ele>
        <time>2020-06-04T17:23:16Z</time>
      </trkpt>
      <trkpt lat="47.11171" lon="-2.06967">
        <ele>28.7</ele>
        <time>2020-06-04T17:23:17Z</time>
      </trkpt>
      <trkpt lat="47.1117" lon="-2.0696">
        <ele>28.7</ele>
        <time>2020-06-04T17:23:18Z</time>
      </trkpt>
      <trkpt lat="47.11171" lon="-2.06954">
        <ele>28.8</ele>
        <time>2020-06-04T17:23:19Z</time>
      </trkpt>
      <trkpt lat="47.1117" lon="-2.06948">
        <ele>28.8</ele>
        <time>2020-06-04T17:23:20Z</time>
      </trkpt>
      <trkpt lat="47.1117" lon="-2.06941">
        <ele>28.9</ele>
        <time>2020-06-04T17:23:21Z</time>
      </trkpt>
      <trkpt lat="47.1117" lon="-2.06935">
        <ele>28.9</ele>
        <time>2020-06-04T17:23:22Z</time>
      </trkpt>
      <trkpt lat="47.11171" lon="-2.06928">
        <ele>28.9</ele>
        <time>2020-06-04T17:23:23Z</time>
      </trkpt>
      <trkpt lat="47.11171" lon="-2.06921">
        <ele>28.9</ele>
        <time>2020-06-04T17:23:24Z</time>
      </trkpt>
      <trkpt lat="47.11171" lon="-2.06915">
        <ele>28.9</ele>
        <time>2020-06-04T17:23:25Z</time>
      </trkpt>
      <trkpt lat="47.1117" lon="-2.06909">
        <ele>29</ele>
        <time>2020-06-04T17:23:26Z</time>
      </trkpt>
      <trkpt lat="47.11171" lon="-2.06903">
        <ele>29</ele>
        <time>2020-06-04T17:23:27Z</time>
      </trkpt>
      <trkpt lat="47.11171" lon="-2.06898">
        <ele>29</ele>
        <time>2020-06-04T17:23:28Z</time>
      </trkpt>
      <trkpt lat="47.11171" lon="-2.06891">
        <ele>29.1</ele>
        <time>2020-06-04T17:23:29Z</time>
      </trkpt>
      <trkpt lat="47.11171" lon="-2.06885">
        <ele>29.2</ele>
        <time>2020-06-04T17:23:30Z</time>
      </trkpt>
      <trkpt lat="47.11171" lon="-2.06878">
        <ele>29.2</ele>
        <time>2020-06-04T17:23:31Z</time>
      </trkpt>
      <trkpt lat="47.1117" lon="-2.06873">
        <ele>29.3</ele>
        <time>2020-06-04T17:23:32Z</time>
      </trkpt>
      <trkpt lat="47.1117" lon="-2.06867">
        <ele>29.3</ele>
        <time>2020-06-04T17:23:33Z</time>
      </trkpt>
      <trkpt lat="47.1117" lon="-2.06861">
        <ele>29.4</ele>
        <time>2020-06-04T17:23:34Z</time>
      </trkpt>
      <trkpt lat="47.11171" lon="-2.06855">
        <ele>29.4</ele>
        <time>2020-06-04T17:23:35Z</time>
      </trkpt>
      <trkpt lat="47.11171" lon="-2.06849">
        <ele>29.5</ele>
        <time>2020-06-04T17:23:36Z</time>
      </trkpt>
      <trkpt lat="47.11171" lon="-2.06843">
        <ele>29.5</ele>
        <time>2020-06-04T17:23:37Z</time>
      </trkpt>
      <trkpt lat="47.11171" lon="-2.06837">
        <ele>29.5</ele>
        <time>2020-06-04T17:23:38Z</time>
      </trkpt>
      <trkpt lat="47.11171" lon="-2.06832">
        <ele>29.6</ele>
        <time>2020-06-04T17:23:39Z</time>
      </trkpt>
      <trkpt lat="47.11171" lon="-2.06826">
        <ele>29.6</ele>
        <time>2020-06-04T17:23:40Z</time>
      </trkpt>
      <trkpt lat="47.1117" lon="-2.0682">
        <ele>29.7</ele>
        <time>2020-06-04T17:23:41Z</time>
      </trkpt>
      <trkpt lat="47.11169" lon="-2.06814">
        <ele>29.7</ele>
        <time>2020-06-04T17:23:42Z</time>
      </trkpt>
      <trkpt lat="47.11169" lon="-2.06808">
        <ele>29.8</ele>
        <time>2020-06-04T17:23:43Z</time>
      </trkpt>
      <trkpt lat="47.11168" lon="-2.06802">
        <ele>29.8</ele>
        <time>2020-06-04T17:23:44Z</time>
      </trkpt>
      <trkpt lat="47.11167" lon="-2.06796">
        <ele>29.9</ele>
        <time>2020-06-04T17:23:45Z</time>
      </trkpt>
      <trkpt lat="47.11167" lon="-2.06789">
        <ele>29.9</ele>
        <time>2020-06-04T17:23:46Z</time>
      </trkpt>
      <trkpt lat="47.11165" lon="-2.06785">
        <ele>30</ele>
        <time>2020-06-04T17:23:47Z</time>
      </trkpt>
      <trkpt lat="47.11164" lon="-2.06781">
        <ele>30</ele>
        <time>2020-06-04T17:23:48Z</time>
      </trkpt>
      <trkpt lat="47.11163" lon="-2.06775">
        <ele>30</ele>
        <time>2020-06-04T17:23:49Z</time>
      </trkpt>
      <trkpt lat="47.11161" lon="-2.06771">
        <ele>30</ele>
        <time>2020-06-04T17:23:50Z</time>
      </trkpt>
      <trkpt lat="47.11161" lon="-2.06765">
        <ele>29.9</ele>
        <time>2020-06-04T17:23:51Z</time>
      </trkpt>
      <trkpt lat="47.11161" lon="-2.06759">
        <ele>29.9</ele>
        <time>2020-06-04T17:23:52Z</time>
      </trkpt>
      <trkpt lat="47.11159" lon="-2.06754">
        <ele>29.9</ele>
        <time>2020-06-04T17:23:53Z</time>
      </trkpt>
      <trkpt lat="47.11158" lon="-2.06747">
        <ele>29.8</ele>
        <time>2020-06-04T17:23:54Z</time>
      </trkpt>
      <trkpt lat="47.11157" lon="-2.06742">
        <ele>29.8</ele>
        <time>2020-06-04T17:23:55Z</time>
      </trkpt>
      <trkpt lat="47.11156" lon="-2.06736">
        <ele>29.7</ele>
        <time>2020-06-04T17:23:56Z</time>
      </trkpt>
      <trkpt lat="47.11156" lon="-2.0673">
        <ele>29.7</ele>
        <time>2020-06-04T17:23:57Z</time>
      </trkpt>
      <trkpt lat="47.11157" lon="-2.06724">
        <ele>29.6</ele>
        <time>2020-06-04T17:23:58Z</time>
      </trkpt>
      <trkpt lat="47.11157" lon="-2.06718">
        <ele>29.6</ele>
        <time>2020-06-04T17:23:59Z</time>
      </trkpt>
      <trkpt lat="47.11157" lon="-2.0671">
        <ele>29.6</ele>
        <time>2020-06-04T17:24:00Z</time>
      </trkpt>
      <trkpt lat="47.11157" lon="-2.06703">
        <ele>29.5</ele>
        <time>2020-06-04T17:24:01Z</time>
      </trkpt>
      <trkpt lat="47.11157" lon="-2.06695">
        <ele>29.5</ele>
        <time>2020-06-04T17:24:02Z</time>
      </trkpt>
      <trkpt lat="47.11156" lon="-2.06688">
        <ele>29.5</ele>
        <time>2020-06-04T17:24:03Z</time>
      </trkpt>
      <trkpt lat="47.11155" lon="-2.06681">
        <ele>29.4</ele>
        <time>2020-06-04T17:24:04Z</time>
      </trkpt>
      <trkpt lat="47.11155" lon="-2.06675">
        <ele>29.4</ele>
        <time>2020-06-04T17:24:05Z</time>
      </trkpt>
      <trkpt lat="47.11154" lon="-2.06668">
        <ele>29.3</ele>
        <time>2020-06-04T17:24:06Z</time>
      </trkpt>
      <trkpt lat="47.11154" lon="-2.06662">
        <ele>29.2</ele>
        <time>2020-06-04T17:24:07Z</time>
      </trkpt>
      <trkpt lat="47.11154" lon="-2.06655">
        <ele>29.1</ele>
        <time>2020-06-04T17:24:08Z</time>
      </trkpt>
      <trkpt lat="47.11155" lon="-2.06648">
        <ele>29</ele>
        <time>2020-06-04T17:24:09Z</time>
      </trkpt>
      <trkpt lat="47.11155" lon="-2.0664">
        <ele>28.8</ele>
        <time>2020-06-04T17:24:10Z</time>
      </trkpt>
      <trkpt lat="47.11155" lon="-2.06632">
        <ele>28.7</ele>
        <time>2020-06-04T17:24:11Z</time>
      </trkpt>
      <trkpt lat="47.11156" lon="-2.06625">
        <ele>28.5</ele>
        <time>2020-06-04T17:24:12Z</time>
      </trkpt>
      <trkpt lat="47.11156" lon="-2.06617">
        <ele>28.4</ele>
        <time>2020-06-04T17:24:13Z</time>
      </trkpt>
      <trkpt lat="47.11155" lon="-2.06611">
        <ele>28.3</ele>
        <time>2020-06-04T17:24:14Z</time>
      </trkpt>
      <trkpt lat="47.11154" lon="-2.06606">
        <ele>28.3</ele>
        <time>2020-06-04T17:24:15Z</time>
      </trkpt>
      <trkpt lat="47.11152" lon="-2.066">
        <ele>28.3</ele>
        <time>2020-06-04T17:24:16Z</time>
      </trkpt>
      <trkpt lat="47.11149" lon="-2.06594">
        <ele>28.3</ele>
        <time>2020-06-04T17:24:17Z</time>
      </trkpt>
      <trkpt lat="47.11149" lon="-2.06589">
        <ele>27.9</ele>
        <time>2020-06-04T17:24:18Z</time>
      </trkpt>
      <trkpt lat="47.11152" lon="-2.06584">
        <ele>27.8</ele>
        <time>2020-06-04T17:24:19Z</time>
      </trkpt>
      <trkpt lat="47.11156" lon="-2.06581">
        <ele>27.8</ele>
        <time>2020-06-04T17:24:20Z</time>
      </trkpt>
      <trkpt lat="47.1116" lon="-2.06579">
        <ele>27.8</ele>
        <time>2020-06-04T17:24:21Z</time>
      </trkpt>
      <trkpt lat="47.11165" lon="-2.06578">
        <ele>27.7</ele>
        <time>2020-06-04T17:24:22Z</time>
      </trkpt>
      <trkpt lat="47.11171" lon="-2.06579">
        <ele>27.7</ele>
        <time>2020-06-04T17:24:23Z</time>
      </trkpt>
      <trkpt lat="47.11175" lon="-2.06579">
        <ele>27.6</ele>
        <time>2020-06-04T17:24:24Z</time>
      </trkpt>
      <trkpt lat="47.1118" lon="-2.06579">
        <ele>27.6</ele>
        <time>2020-06-04T17:24:25Z</time>
      </trkpt>
      <trkpt lat="47.11185" lon="-2.06577">
        <ele>27.6</ele>
        <time>2020-06-04T17:24:26Z</time>
      </trkpt>
      <trkpt lat="47.1119" lon="-2.06574">
        <ele>27.6</ele>
        <time>2020-06-04T17:24:27Z</time>
      </trkpt>
      <trkpt lat="47.11195" lon="-2.0657">
        <ele>27.6</ele>
        <time>2020-06-04T17:24:28Z</time>
      </trkpt>
      <trkpt lat="47.11201" lon="-2.06567">
        <ele>27.6</ele>
        <time>2020-06-04T17:24:29Z</time>
      </trkpt>
      <trkpt lat="47.11205" lon="-2.06564">
        <ele>27.6</ele>
        <time>2020-06-04T17:24:30Z</time>
      </trkpt>
      <trkpt lat="47.1121" lon="-2.0656">
        <ele>27.6</ele>
        <time>2020-06-04T17:24:31Z</time>
      </trkpt>
      <trkpt lat="47.11215" lon="-2.06556">
        <ele>27.6</ele>
        <time>2020-06-04T17:24:32Z</time>
      </trkpt>
      <trkpt lat="47.11219" lon="-2.06553">
        <ele>27.6</ele>
        <time>2020-06-04T17:24:33Z</time>
      </trkpt>
      <trkpt lat="47.11223" lon="-2.0655">
        <ele>27.6</ele>
        <time>2020-06-04T17:24:34Z</time>
      </trkpt>
      <trkpt lat="47.11228" lon="-2.06546">
        <ele>27.5</ele>
        <time>2020-06-04T17:24:35Z</time>
      </trkpt>
      <trkpt lat="47.11231" lon="-2.06542">
        <ele>27.5</ele>
        <time>2020-06-04T17:24:36Z</time>
      </trkpt>
      <trkpt lat="47.11235" lon="-2.06537">
        <ele>27.4</ele>
        <time>2020-06-04T17:24:37Z</time>
      </trkpt>
      <trkpt lat="47.11237" lon="-2.06531">
        <ele>27.4</ele>
        <time>2020-06-04T17:24:38Z</time>
      </trkpt>
      <trkpt lat="47.11238" lon="-2.06525">
        <ele>27.3</ele>
        <time>2020-06-04T17:24:39Z</time>
      </trkpt>
      <trkpt lat="47.11238" lon="-2.06519">
        <ele>27.1</ele>
        <time>2020-06-04T17:24:40Z</time>
      </trkpt>
      <trkpt lat="47.11236" lon="-2.06513">
        <ele>26.9</ele>
        <time>2020-06-04T17:24:41Z</time>
      </trkpt>
      <trkpt lat="47.11233" lon="-2.06506">
        <ele>26.8</ele>
        <time>2020-06-04T17:24:42Z</time>
      </trkpt>
      <trkpt lat="47.1123" lon="-2.06499">
        <ele>26.6</ele>
        <time>2020-06-04T17:24:43Z</time>
      </trkpt>
      <trkpt lat="47.11226" lon="-2.06494">
        <ele>26.5</ele>
        <time>2020-06-04T17:24:44Z</time>
      </trkpt>
      <trkpt lat="47.11222" lon="-2.06488">
        <ele>26.4</ele>
        <time>2020-06-04T17:24:45Z</time>
      </trkpt>
      <trkpt lat="47.11219" lon="-2.06481">
        <ele>26.3</ele>
        <time>2020-06-04T17:24:46Z</time>
      </trkpt>
      <trkpt lat="47.11217" lon="-2.06474">
        <ele>26.3</ele>
        <time>2020-06-04T17:24:47Z</time>
      </trkpt>
      <trkpt lat="47.11217" lon="-2.06467">
        <ele>26.3</ele>
        <time>2020-06-04T17:24:48Z</time>
      </trkpt>
      <trkpt lat="47.11218" lon="-2.0646">
        <ele>26.2</ele>
        <time>2020-06-04T17:24:49Z</time>
      </trkpt>
      <trkpt lat="47.1122" lon="-2.06453">
        <ele>26.1</ele>
        <time>2020-06-04T17:24:50Z</time>
      </trkpt>
      <trkpt lat="47.11221" lon="-2.06447">
        <ele>26</ele>
        <time>2020-06-04T17:24:51Z</time>
      </trkpt>
      <trkpt lat="47.11222" lon="-2.0644">
        <ele>25.9</ele>
        <time>2020-06-04T17:24:52Z</time>
      </trkpt>
      <trkpt lat="47.11224" lon="-2.06433">
        <ele>25.8</ele>
        <time>2020-06-04T17:24:53Z</time>
      </trkpt>
      <trkpt lat="47.11225" lon="-2.06427">
        <ele>25.7</ele>
        <time>2020-06-04T17:24:54Z</time>
      </trkpt>
      <trkpt lat="47.11228" lon="-2.0642">
        <ele>25.6</ele>
        <time>2020-06-04T17:24:55Z</time>
      </trkpt>
      <trkpt lat="47.11229" lon="-2.06413">
        <ele>25.5</ele>
        <time>2020-06-04T17:24:56Z</time>
      </trkpt>
      <trkpt lat="47.1123" lon="-2.06406">
        <ele>25.4</ele>
        <time>2020-06-04T17:24:57Z</time>
      </trkpt>
      <trkpt lat="47.11233" lon="-2.06398">
        <ele>25.2</ele>
        <time>2020-06-04T17:24:58Z</time>
      </trkpt>
      <trkpt lat="47.11235" lon="-2.0639">
        <ele>25.1</ele>
        <time>2020-06-04T17:24:59Z</time>
      </trkpt>
      <trkpt lat="47.11237" lon="-2.06383">
        <ele>25</ele>
        <time>2020-06-04T17:25:00Z</time>
      </trkpt>
      <trkpt lat="47.11238" lon="-2.06375">
        <ele>24.9</ele>
        <time>2020-06-04T17:25:01Z</time>
      </trkpt>
      <trkpt lat="47.11238" lon="-2.06366">
        <ele>24.8</ele>
        <time>2020-06-04T17:25:02Z</time>
      </trkpt>
      <trkpt lat="47.11238" lon="-2.06356">
        <ele>24.8</ele>
        <time>2020-06-04T17:25:03Z</time>
      </trkpt>
      <trkpt lat="47.11238" lon="-2.06346">
        <ele>24.7</ele>
        <time>2020-06-04T17:25:04Z</time>
      </trkpt>
      <trkpt lat="47.11237" lon="-2.06335">
        <ele>24.7</ele>
        <time>2020-06-04T17:25:05Z</time>
      </trkpt>
      <trkpt lat="47.11237" lon="-2.06325">
        <ele>24.6</ele>
        <time>2020-06-04T17:25:06Z</time>
      </trkpt>
      <trkpt lat="47.11235" lon="-2.06316">
        <ele>24.6</ele>
        <time>2020-06-04T17:25:07Z</time>
      </trkpt>
      <trkpt lat="47.11234" lon="-2.06306">
        <ele>24.6</ele>
        <time>2020-06-04T17:25:08Z</time>
      </trkpt>
      <trkpt lat="47.11232" lon="-2.06297">
        <ele>24.6</ele>
        <time>2020-06-04T17:25:09Z</time>
      </trkpt>
      <trkpt lat="47.11229" lon="-2.06288">
        <ele>24.6</ele>
        <time>2020-06-04T17:25:10Z</time>
      </trkpt>
      <trkpt lat="47.11226" lon="-2.06279">
        <ele>24.6</ele>
        <time>2020-06-04T17:25:11Z</time>
      </trkpt>
      <trkpt lat="47.11222" lon="-2.06272">
        <ele>24.6</ele>
        <time>2020-06-04T17:25:12Z</time>
      </trkpt>
      <trkpt lat="47.11217" lon="-2.06266">
        <ele>24.7</ele>
        <time>2020-06-04T17:25:13Z</time>
      </trkpt>
      <trkpt lat="47.11212" lon="-2.06261">
        <ele>24.7</ele>
        <time>2020-06-04T17:25:14Z</time>
      </trkpt>
      <trkpt lat="47.11207" lon="-2.06256">
        <ele>24.7</ele>
        <time>2020-06-04T17:25:15Z</time>
      </trkpt>
      <trkpt lat="47.11202" lon="-2.06251">
        <ele>24.7</ele>
        <time>2020-06-04T17:25:16Z</time>
      </trkpt>
      <trkpt lat="47.11196" lon="-2.06248">
        <ele>24.7</ele>
        <time>2020-06-04T17:25:17Z</time>
      </trkpt>
      <trkpt lat="47.11191" lon="-2.06244">
        <ele>24.7</ele>
        <time>2020-06-04T17:25:18Z</time>
      </trkpt>
      <trkpt lat="47.11185" lon="-2.06241">
        <ele>24.7</ele>
        <time>2020-06-04T17:25:19Z</time>
      </trkpt>
      <trkpt lat="47.1118" lon="-2.06238">
        <ele>24.7</ele>
        <time>2020-06-04T17:25:20Z</time>
      </trkpt>
      <trkpt lat="47.11174" lon="-2.06236">
        <ele>24.7</ele>
        <time>2020-06-04T17:25:21Z</time>
      </trkpt>
      <trkpt lat="47.11168" lon="-2.06237">
        <ele>24.7</ele>
        <time>2020-06-04T17:25:22Z</time>
      </trkpt>
      <trkpt lat="47.11161" lon="-2.06237">
        <ele>24.7</ele>
        <time>2020-06-04T17:25:23Z</time>
      </trkpt>
      <trkpt lat="47.11155" lon="-2.06237">
        <ele>24.8</ele>
        <time>2020-06-04T17:25:24Z</time>
      </trkpt>
      <trkpt lat="47.11148" lon="-2.06235">
        <ele>24.8</ele>
        <time>2020-06-04T17:25:25Z</time>
      </trkpt>
      <trkpt lat="47.11142" lon="-2.06233">
        <ele>24.8</ele>
        <time>2020-06-04T17:25:26Z</time>
      </trkpt>
      <trkpt lat="47.11137" lon="-2.06231">
        <ele>24.9</ele>
        <time>2020-06-04T17:25:27Z</time>
      </trkpt>
      <trkpt lat="47.11131" lon="-2.06229">
        <ele>24.9</ele>
        <time>2020-06-04T17:25:28Z</time>
      </trkpt>
      <trkpt lat="47.11126" lon="-2.06227">
        <ele>24.9</ele>
        <time>2020-06-04T17:25:29Z</time>
      </trkpt>
      <trkpt lat="47.1112" lon="-2.06226">
        <ele>25</ele>
        <time>2020-06-04T17:25:30Z</time>
      </trkpt>
      <trkpt lat="47.11115" lon="-2.06224">
        <ele>25</ele>
        <time>2020-06-04T17:25:31Z</time>
      </trkpt>
      <trkpt lat="47.11109" lon="-2.06222">
        <ele>25</ele>
        <time>2020-06-04T17:25:32Z</time>
      </trkpt>
      <trkpt lat="47.11104" lon="-2.06221">
        <ele>25</ele>
        <time>2020-06-04T17:25:33Z</time>
      </trkpt>
      <trkpt lat="47.11099" lon="-2.0622">
        <ele>25</ele>
        <time>2020-06-04T17:25:34Z</time>
      </trkpt>
      <trkpt lat="47.11093" lon="-2.06219">
        <ele>25.1</ele>
        <time>2020-06-04T17:25:35Z</time>
      </trkpt>
      <trkpt lat="47.11088" lon="-2.06218">
        <ele>25.1</ele>
        <time>2020-06-04T17:25:36Z</time>
      </trkpt>
      <trkpt lat="47.11083" lon="-2.06216">
        <ele>25.1</ele>
        <time>2020-06-04T17:25:37Z</time>
      </trkpt>
      <trkpt lat="47.11078" lon="-2.06217">
        <ele>25.1</ele>
        <time>2020-06-04T17:25:38Z</time>
      </trkpt>
      <trkpt lat="47.11073" lon="-2.06218">
        <ele>25.1</ele>
        <time>2020-06-04T17:25:39Z</time>
      </trkpt>
      <trkpt lat="47.11068" lon="-2.0622">
        <ele>25.1</ele>
        <time>2020-06-04T17:25:40Z</time>
      </trkpt>
      <trkpt lat="47.11063" lon="-2.06222">
        <ele>25.1</ele>
        <time>2020-06-04T17:25:41Z</time>
      </trkpt>
      <trkpt lat="47.11058" lon="-2.06224">
        <ele>25.1</ele>
        <time>2020-06-04T17:25:42Z</time>
      </trkpt>
      <trkpt lat="47.11052" lon="-2.06226">
        <ele>25.1</ele>
        <time>2020-06-04T17:25:43Z</time>
      </trkpt>
      <trkpt lat="47.11047" lon="-2.06228">
        <ele>25.1</ele>
        <time>2020-06-04T17:25:44Z</time>
      </trkpt>
      <trkpt lat="47.11042" lon="-2.06231">
        <ele>25.1</ele>
        <time>2020-06-04T17:25:45Z</time>
      </trkpt>
      <trkpt lat="47.11038" lon="-2.06235">
        <ele>25.1</ele>
        <time>2020-06-04T17:25:46Z</time>
      </trkpt>
      <trkpt lat="47.11034" lon="-2.0624">
        <ele>25.2</ele>
        <time>2020-06-04T17:25:47Z</time>
      </trkpt>
      <trkpt lat="47.1103" lon="-2.06245">
        <ele>25.2</ele>
        <time>2020-06-04T17:25:48Z</time>
      </trkpt>
      <trkpt lat="47.11026" lon="-2.0625">
        <ele>25.2</ele>
        <time>2020-06-04T17:25:49Z</time>
      </trkpt>
      <trkpt lat="47.11022" lon="-2.06256">
        <ele>25.3</ele>
        <time>2020-06-04T17:25:50Z</time>
      </trkpt>
      <trkpt lat="47.11017" lon="-2.06261">
        <ele>25.3</ele>
        <time>2020-06-04T17:25:51Z</time>
      </trkpt>
      <trkpt lat="47.11013" lon="-2.06266">
        <ele>25.4</ele>
        <time>2020-06-04T17:25:52Z</time>
      </trkpt>
      <trkpt lat="47.11009" lon="-2.0627">
        <ele>25.4</ele>
        <time>2020-06-04T17:25:53Z</time>
      </trkpt>
      <trkpt lat="47.11005" lon="-2.06274">
        <ele>25.4</ele>
        <time>2020-06-04T17:25:54Z</time>
      </trkpt>
      <trkpt lat="47.11001" lon="-2.06278">
        <ele>25.4</ele>
        <time>2020-06-04T17:25:55Z</time>
      </trkpt>
      <trkpt lat="47.10997" lon="-2.06283">
        <ele>25.4</ele>
        <time>2020-06-04T17:25:56Z</time>
      </trkpt>
      <trkpt lat="47.10994" lon="-2.06287">
        <ele>25.4</ele>
        <time>2020-06-04T17:25:57Z</time>
      </trkpt>
      <trkpt lat="47.1099" lon="-2.06291">
        <ele>25.4</ele>
        <time>2020-06-04T17:25:58Z</time>
      </trkpt>
      <trkpt lat="47.10986" lon="-2.06295">
        <ele>25.4</ele>
        <time>2020-06-04T17:25:59Z</time>
      </trkpt>
      <trkpt lat="47.10982" lon="-2.06299">
        <ele>25.4</ele>
        <time>2020-06-04T17:26:00Z</time>
      </trkpt>
      <trkpt lat="47.10978" lon="-2.06304">
        <ele>25.4</ele>
        <time>2020-06-04T17:26:01Z</time>
      </trkpt>
      <trkpt lat="47.10974" lon="-2.06307">
        <ele>25.4</ele>
        <time>2020-06-04T17:26:02Z</time>
      </trkpt>
      <trkpt lat="47.1097" lon="-2.06311">
        <ele>25.4</ele>
        <time>2020-06-04T17:26:03Z</time>
      </trkpt>
      <trkpt lat="47.10966" lon="-2.06315">
        <ele>25.4</ele>
        <time>2020-06-04T17:26:04Z</time>
      </trkpt>
      <trkpt lat="47.10963" lon="-2.06318">
        <ele>25.4</ele>
        <time>2020-06-04T17:26:05Z</time>
      </trkpt>
      <trkpt lat="47.10959" lon="-2.06322">
        <ele>25.4</ele>
        <time>2020-06-04T17:26:06Z</time>
      </trkpt>
      <trkpt lat="47.10956" lon="-2.06326">
        <ele>25.4</ele>
        <time>2020-06-04T17:26:07Z</time>
      </trkpt>
      <trkpt lat="47.10952" lon="-2.0633">
        <ele>25.4</ele>
        <time>2020-06-04T17:26:08Z</time>
      </trkpt>
      <trkpt lat="47.10948" lon="-2.06335">
        <ele>25.4</ele>
        <time>2020-06-04T17:26:09Z</time>
      </trkpt>
      <trkpt lat="47.10944" lon="-2.06338">
        <ele>25.4</ele>
        <time>2020-06-04T17:26:10Z</time>
      </trkpt>
      <trkpt lat="47.1094" lon="-2.06342">
        <ele>25.5</ele>
        <time>2020-06-04T17:26:11Z</time>
      </trkpt>
      <trkpt lat="47.10936" lon="-2.06345">
        <ele>25.5</ele>
        <time>2020-06-04T17:26:12Z</time>
      </trkpt>
      <trkpt lat="47.10932" lon="-2.06349">
        <ele>25.5</ele>
        <time>2020-06-04T17:26:13Z</time>
      </trkpt>
      <trkpt lat="47.10928" lon="-2.06353">
        <ele>25.6</ele>
        <time>2020-06-04T17:26:14Z</time>
      </trkpt>
      <trkpt lat="47.10924" lon="-2.06357">
        <ele>25.6</ele>
        <time>2020-06-04T17:26:15Z</time>
      </trkpt>
      <trkpt lat="47.1092" lon="-2.0636">
        <ele>25.6</ele>
        <time>2020-06-04T17:26:16Z</time>
      </trkpt>
      <trkpt lat="47.10916" lon="-2.06363">
        <ele>25.6</ele>
        <time>2020-06-04T17:26:17Z</time>
      </trkpt>
      <trkpt lat="47.10912" lon="-2.06367">
        <ele>25.6</ele>
        <time>2020-06-04T17:26:18Z</time>
      </trkpt>
      <trkpt lat="47.10908" lon="-2.0637">
        <ele>25.6</ele>
        <time>2020-06-04T17:26:19Z</time>
      </trkpt>
      <trkpt lat="47.10904" lon="-2.06374">
        <ele>25.7</ele>
        <time>2020-06-04T17:26:20Z</time>
      </trkpt>
      <trkpt lat="47.109" lon="-2.06377">
        <ele>25.7</ele>
        <time>2020-06-04T17:26:21Z</time>
      </trkpt>
      <trkpt lat="47.10896" lon="-2.06381">
        <ele>25.8</ele>
        <time>2020-06-04T17:26:22Z</time>
      </trkpt>
      <trkpt lat="47.10892" lon="-2.06385">
        <ele>25.8</ele>
        <time>2020-06-04T17:26:23Z</time>
      </trkpt>
      <trkpt lat="47.10888" lon="-2.06388">
        <ele>25.9</ele>
        <time>2020-06-04T17:26:24Z</time>
      </trkpt>
      <trkpt lat="47.10884" lon="-2.06391">
        <ele>25.9</ele>
        <time>2020-06-04T17:26:25Z</time>
      </trkpt>
      <trkpt lat="47.1088" lon="-2.06395">
        <ele>25.9</ele>
        <time>2020-06-04T17:26:26Z</time>
      </trkpt>
      <trkpt lat="47.10876" lon="-2.06398">
        <ele>26</ele>
        <time>2020-06-04T17:26:27Z</time>
      </trkpt>
      <trkpt lat="47.10873" lon="-2.06401">
        <ele>26</ele>
        <time>2020-06-04T17:26:28Z</time>
      </trkpt>
      <trkpt lat="47.10869" lon="-2.06405">
        <ele>26.1</ele>
        <time>2020-06-04T17:26:29Z</time>
      </trkpt>
      <trkpt lat="47.10865" lon="-2.06409">
        <ele>26.2</ele>
        <time>2020-06-04T17:26:30Z</time>
      </trkpt>
      <trkpt lat="47.1086" lon="-2.06412">
        <ele>26.2</ele>
        <time>2020-06-04T17:26:31Z</time>
      </trkpt>
      <trkpt lat="47.10856" lon="-2.06416">
        <ele>26.3</ele>
        <time>2020-06-04T17:26:32Z</time>
      </trkpt>
      <trkpt lat="47.10852" lon="-2.06419">
        <ele>26.4</ele>
        <time>2020-06-04T17:26:33Z</time>
      </trkpt>
      <trkpt lat="47.10848" lon="-2.06423">
        <ele>26.4</ele>
        <time>2020-06-04T17:26:34Z</time>
      </trkpt>
      <trkpt lat="47.10844" lon="-2.06426">
        <ele>26.5</ele>
        <time>2020-06-04T17:26:35Z</time>
      </trkpt>
      <trkpt lat="47.10841" lon="-2.06429">
        <ele>26.6</ele>
        <time>2020-06-04T17:26:36Z</time>
      </trkpt>
      <trkpt lat="47.10837" lon="-2.06432">
        <ele>26.7</ele>
        <time>2020-06-04T17:26:37Z</time>
      </trkpt>
      <trkpt lat="47.10834" lon="-2.06435">
        <ele>26.8</ele>
        <time>2020-06-04T17:26:38Z</time>
      </trkpt>
      <trkpt lat="47.1083" lon="-2.06438">
        <ele>26.9</ele>
        <time>2020-06-04T17:26:39Z</time>
      </trkpt>
      <trkpt lat="47.10827" lon="-2.06441">
        <ele>27</ele>
        <time>2020-06-04T17:26:40Z</time>
      </trkpt>
      <trkpt lat="47.10822" lon="-2.06441">
        <ele>27.1</ele>
        <time>2020-06-04T17:26:41Z</time>
      </trkpt>
      <trkpt lat="47.10817" lon="-2.06441">
        <ele>27.2</ele>
        <time>2020-06-04T17:26:42Z</time>
      </trkpt>
      <trkpt lat="47.10814" lon="-2.06443">
        <ele>27.3</ele>
        <time>2020-06-04T17:26:43Z</time>
      </trkpt>
      <trkpt lat="47.1081" lon="-2.06446">
        <ele>27.4</ele>
        <time>2020-06-04T17:26:44Z</time>
      </trkpt>
      <trkpt lat="47.10806" lon="-2.0645">
        <ele>27.5</ele>
        <time>2020-06-04T17:26:45Z</time>
      </trkpt>
      <trkpt lat="47.10803" lon="-2.06453">
        <ele>27.6</ele>
        <time>2020-06-04T17:26:46Z</time>
      </trkpt>
      <trkpt lat="47.108" lon="-2.06457">
        <ele>27.7</ele>
        <time>2020-06-04T17:26:47Z</time>
      </trkpt>
      <trkpt lat="47.10796" lon="-2.0646">
        <ele>27.7</ele>
        <time>2020-06-04T17:26:48Z</time>
      </trkpt>
      <trkpt lat="47.10793" lon="-2.06463">
        <ele>27.8</ele>
        <time>2020-06-04T17:26:49Z</time>
      </trkpt>
      <trkpt lat="47.1079" lon="-2.06465">
        <ele>27.9</ele>
        <time>2020-06-04T17:26:50Z</time>
      </trkpt>
      <trkpt lat="47.10787" lon="-2.06469">
        <ele>28</ele>
        <time>2020-06-04T17:26:51Z</time>
      </trkpt>
      <trkpt lat="47.10784" lon="-2.06472">
        <ele>28.1</ele>
        <time>2020-06-04T17:26:52Z</time>
      </trkpt>
      <trkpt lat="47.1078" lon="-2.06475">
        <ele>28.2</ele>
        <time>2020-06-04T17:26:53Z</time>
      </trkpt>
      <trkpt lat="47.10777" lon="-2.06477">
        <ele>28.4</ele>
        <time>2020-06-04T17:26:54Z</time>
      </trkpt>
      <trkpt lat="47.10774" lon="-2.0648">
        <ele>28.5</ele>
        <time>2020-06-04T17:26:55Z</time>
      </trkpt>
      <trkpt lat="47.10771" lon="-2.06483">
        <ele>28.6</ele>
        <time>2020-06-04T17:26:56Z</time>
      </trkpt>
      <trkpt lat="47.10767" lon="-2.06485">
        <ele>28.8</ele>
        <time>2020-06-04T17:26:57Z</time>
      </trkpt>
      <trkpt lat="47.10764" lon="-2.06488">
        <ele>28.9</ele>
        <time>2020-06-04T17:26:58Z</time>
      </trkpt>
      <trkpt lat="47.10761" lon="-2.0649">
        <ele>29</ele>
        <time>2020-06-04T17:26:59Z</time>
      </trkpt>
      <trkpt lat="47.10758" lon="-2.06493">
        <ele>29.1</ele>
        <time>2020-06-04T17:27:00Z</time>
      </trkpt>
      <trkpt lat="47.10755" lon="-2.06496">
        <ele>29.3</ele>
        <time>2020-06-04T17:27:01Z</time>
      </trkpt>
      <trkpt lat="47.10751" lon="-2.06498">
        <ele>29.3</ele>
        <time>2020-06-04T17:27:02Z</time>
      </trkpt>
      <trkpt lat="47.10748" lon="-2.06501">
        <ele>29.4</ele>
        <time>2020-06-04T17:27:03Z</time>
      </trkpt>
      <trkpt lat="47.10744" lon="-2.06503">
        <ele>29.4</ele>
        <time>2020-06-04T17:27:04Z</time>
      </trkpt>
      <trkpt lat="47.10741" lon="-2.06505">
        <ele>29.5</ele>
        <time>2020-06-04T17:27:05Z</time>
      </trkpt>
      <trkpt lat="47.10737" lon="-2.06507">
        <ele>29.6</ele>
        <time>2020-06-04T17:27:06Z</time>
      </trkpt>
      <trkpt lat="47.10734" lon="-2.0651">
        <ele>29.7</ele>
        <time>2020-06-04T17:27:07Z</time>
      </trkpt>
      <trkpt lat="47.1073" lon="-2.06512">
        <ele>29.8</ele>
        <time>2020-06-04T17:27:08Z</time>
      </trkpt>
      <trkpt lat="47.10727" lon="-2.06513">
        <ele>29.9</ele>
        <time>2020-06-04T17:27:09Z</time>
      </trkpt>
      <trkpt lat="47.10723" lon="-2.06514">
        <ele>30</ele>
        <time>2020-06-04T17:27:10Z</time>
      </trkpt>
      <trkpt lat="47.1072" lon="-2.06516">
        <ele>30</ele>
        <time>2020-06-04T17:27:11Z</time>
      </trkpt>
      <trkpt lat="47.10716" lon="-2.06518">
        <ele>30.2</ele>
        <time>2020-06-04T17:27:12Z</time>
      </trkpt>
      <trkpt lat="47.10712" lon="-2.06521">
        <ele>30.3</ele>
        <time>2020-06-04T17:27:13Z</time>
      </trkpt>
      <trkpt lat="47.10708" lon="-2.06522">
        <ele>30.4</ele>
        <time>2020-06-04T17:27:14Z</time>
      </trkpt>
      <trkpt lat="47.10705" lon="-2.06523">
        <ele>30.4</ele>
        <time>2020-06-04T17:27:15Z</time>
      </trkpt>
      <trkpt lat="47.10701" lon="-2.06525">
        <ele>30.5</ele>
        <time>2020-06-04T17:27:16Z</time>
      </trkpt>
      <trkpt lat="47.10697" lon="-2.06526">
        <ele>30.6</ele>
        <time>2020-06-04T17:27:17Z</time>
      </trkpt>
      <trkpt lat="47.10693" lon="-2.06528">
        <ele>30.7</ele>
        <time>2020-06-04T17:27:18Z</time>
      </trkpt>
      <trkpt lat="47.10689" lon="-2.06529">
        <ele>30.7</ele>
        <time>2020-06-04T17:27:19Z</time>
      </trkpt>
      <trkpt lat="47.10685" lon="-2.0653">
        <ele>30.8</ele>
        <time>2020-06-04T17:27:20Z</time>
      </trkpt>
      <trkpt lat="47.10682" lon="-2.06532">
        <ele>30.9</ele>
        <time>2020-06-04T17:27:21Z</time>
      </trkpt>
      <trkpt lat="47.10678" lon="-2.06534">
        <ele>30.9</ele>
        <time>2020-06-04T17:27:22Z</time>
      </trkpt>
      <trkpt lat="47.10675" lon="-2.06535">
        <ele>31</ele>
        <time>2020-06-04T17:27:23Z</time>
      </trkpt>
      <trkpt lat="47.10672" lon="-2.06537">
        <ele>31.1</ele>
        <time>2020-06-04T17:27:24Z</time>
      </trkpt>
      <trkpt lat="47.10668" lon="-2.06538">
        <ele>31.1</ele>
        <time>2020-06-04T17:27:25Z</time>
      </trkpt>
      <trkpt lat="47.10664" lon="-2.0654">
        <ele>31.2</ele>
        <time>2020-06-04T17:27:26Z</time>
      </trkpt>
      <trkpt lat="47.1066" lon="-2.06541">
        <ele>31.3</ele>
        <time>2020-06-04T17:27:27Z</time>
      </trkpt>
      <trkpt lat="47.10656" lon="-2.06541">
        <ele>31.3</ele>
        <time>2020-06-04T17:27:28Z</time>
      </trkpt>
      <trkpt lat="47.10652" lon="-2.06542">
        <ele>31.4</ele>
        <time>2020-06-04T17:27:29Z</time>
      </trkpt>
      <trkpt lat="47.10649" lon="-2.06543">
        <ele>31.5</ele>
        <time>2020-06-04T17:27:30Z</time>
      </trkpt>
      <trkpt lat="47.10645" lon="-2.06544">
        <ele>31.5</ele>
        <time>2020-06-04T17:27:31Z</time>
      </trkpt>
      <trkpt lat="47.10642" lon="-2.06545">
        <ele>31.6</ele>
        <time>2020-06-04T17:27:32Z</time>
      </trkpt>
      <trkpt lat="47.10638" lon="-2.06546">
        <ele>31.7</ele>
        <time>2020-06-04T17:27:33Z</time>
      </trkpt>
      <trkpt lat="47.10634" lon="-2.06546">
        <ele>31.7</ele>
        <time>2020-06-04T17:27:34Z</time>
      </trkpt>
      <trkpt lat="47.10629" lon="-2.06547">
        <ele>31.8</ele>
        <time>2020-06-04T17:27:35Z</time>
      </trkpt>
      <trkpt lat="47.10625" lon="-2.06547">
        <ele>31.8</ele>
        <time>2020-06-04T17:27:36Z</time>
      </trkpt>
      <trkpt lat="47.10621" lon="-2.06548">
        <ele>31.9</ele>
        <time>2020-06-04T17:27:37Z</time>
      </trkpt>
      <trkpt lat="47.10617" lon="-2.06548">
        <ele>31.9</ele>
        <time>2020-06-04T17:27:38Z</time>
      </trkpt>
      <trkpt lat="47.10614" lon="-2.06549">
        <ele>32</ele>
        <time>2020-06-04T17:27:39Z</time>
      </trkpt>
      <trkpt lat="47.1061" lon="-2.0655">
        <ele>32.1</ele>
        <time>2020-06-04T17:27:40Z</time>
      </trkpt>
      <trkpt lat="47.10606" lon="-2.06551">
        <ele>32.2</ele>
        <time>2020-06-04T17:27:41Z</time>
      </trkpt>
      <trkpt lat="47.10602" lon="-2.06551">
        <ele>32.2</ele>
        <time>2020-06-04T17:27:42Z</time>
      </trkpt>
      <trkpt lat="47.10598" lon="-2.06552">
        <ele>32.3</ele>
        <time>2020-06-04T17:27:43Z</time>
      </trkpt>
      <trkpt lat="47.10594" lon="-2.06554">
        <ele>32.4</ele>
        <time>2020-06-04T17:27:44Z</time>
      </trkpt>
      <trkpt lat="47.10591" lon="-2.06555">
        <ele>32.5</ele>
        <time>2020-06-04T17:27:45Z</time>
      </trkpt>
      <trkpt lat="47.10587" lon="-2.06556">
        <ele>32.6</ele>
        <time>2020-06-04T17:27:46Z</time>
      </trkpt>
      <trkpt lat="47.10583" lon="-2.06558">
        <ele>32.7</ele>
        <time>2020-06-04T17:27:47Z</time>
      </trkpt>
      <trkpt lat="47.10579" lon="-2.06558">
        <ele>32.8</ele>
        <time>2020-06-04T17:27:48Z</time>
      </trkpt>
      <trkpt lat="47.10575" lon="-2.0656">
        <ele>32.8</ele>
        <time>2020-06-04T17:27:49Z</time>
      </trkpt>
      <trkpt lat="47.10572" lon="-2.06561">
        <ele>32.9</ele>
        <time>2020-06-04T17:27:50Z</time>
      </trkpt>
      <trkpt lat="47.10568" lon="-2.06563">
        <ele>33</ele>
        <time>2020-06-04T17:27:51Z</time>
      </trkpt>
      <trkpt lat="47.10564" lon="-2.06564">
        <ele>33.1</ele>
        <time>2020-06-04T17:27:52Z</time>
      </trkpt>
      <trkpt lat="47.1056" lon="-2.06566">
        <ele>33.2</ele>
        <time>2020-06-04T17:27:53Z</time>
      </trkpt>
      <trkpt lat="47.10556" lon="-2.06568">
        <ele>33.3</ele>
        <time>2020-06-04T17:27:54Z</time>
      </trkpt>
      <trkpt lat="47.10552" lon="-2.06569">
        <ele>33.4</ele>
        <time>2020-06-04T17:27:55Z</time>
      </trkpt>
      <trkpt lat="47.10549" lon="-2.0657">
        <ele>33.5</ele>
        <time>2020-06-04T17:27:56Z</time>
      </trkpt>
      <trkpt lat="47.10545" lon="-2.06572">
        <ele>33.6</ele>
        <time>2020-06-04T17:27:57Z</time>
      </trkpt>
      <trkpt lat="47.10541" lon="-2.06573">
        <ele>33.6</ele>
        <time>2020-06-04T17:27:58Z</time>
      </trkpt>
      <trkpt lat="47.10537" lon="-2.06575">
        <ele>33.7</ele>
        <time>2020-06-04T17:27:59Z</time>
      </trkpt>
      <trkpt lat="47.10533" lon="-2.06576">
        <ele>33.8</ele>
        <time>2020-06-04T17:28:00Z</time>
      </trkpt>
      <trkpt lat="47.1053" lon="-2.06577">
        <ele>33.9</ele>
        <time>2020-06-04T17:28:01Z</time>
      </trkpt>
      <trkpt lat="47.10526" lon="-2.06578">
        <ele>34</ele>
        <time>2020-06-04T17:28:02Z</time>
      </trkpt>
      <trkpt lat="47.10522" lon="-2.06579">
        <ele>34</ele>
        <time>2020-06-04T17:28:03Z</time>
      </trkpt>
      <trkpt lat="47.10518" lon="-2.0658">
        <ele>34.2</ele>
        <time>2020-06-04T17:28:04Z</time>
      </trkpt>
      <trkpt lat="47.10515" lon="-2.06581">
        <ele>34.2</ele>
        <time>2020-06-04T17:28:05Z</time>
      </trkpt>
      <trkpt lat="47.10511" lon="-2.06582">
        <ele>34.2</ele>
        <time>2020-06-04T17:28:06Z</time>
      </trkpt>
      <trkpt lat="47.10507" lon="-2.06582">
        <ele>34.2</ele>
        <time>2020-06-04T17:28:07Z</time>
      </trkpt>
      <trkpt lat="47.10503" lon="-2.06583">
        <ele>34.2</ele>
        <time>2020-06-04T17:28:08Z</time>
      </trkpt>
      <trkpt lat="47.10499" lon="-2.06583">
        <ele>34.3</ele>
        <time>2020-06-04T17:28:09Z</time>
      </trkpt>
      <trkpt lat="47.10496" lon="-2.06582">
        <ele>34.3</ele>
        <time>2020-06-04T17:28:10Z</time>
      </trkpt>
      <trkpt lat="47.10492" lon="-2.06583">
        <ele>34.4</ele>
        <time>2020-06-04T17:28:11Z</time>
      </trkpt>
      <trkpt lat="47.10488" lon="-2.06583">
        <ele>34.4</ele>
        <time>2020-06-04T17:28:12Z</time>
      </trkpt>
      <trkpt lat="47.10484" lon="-2.06582">
        <ele>34.5</ele>
        <time>2020-06-04T17:28:13Z</time>
      </trkpt>
      <trkpt lat="47.10481" lon="-2.06582">
        <ele>34.5</ele>
        <time>2020-06-04T17:28:14Z</time>
      </trkpt>
      <trkpt lat="47.10477" lon="-2.06581">
        <ele>34.6</ele>
        <time>2020-06-04T17:28:15Z</time>
      </trkpt>
      <trkpt lat="47.10473" lon="-2.0658">
        <ele>34.7</ele>
        <time>2020-06-04T17:28:16Z</time>
      </trkpt>
      <trkpt lat="47.10469" lon="-2.06579">
        <ele>34.8</ele>
        <time>2020-06-04T17:28:17Z</time>
      </trkpt>
      <trkpt lat="47.10465" lon="-2.0658">
        <ele>34.8</ele>
        <time>2020-06-04T17:28:18Z</time>
      </trkpt>
      <trkpt lat="47.10461" lon="-2.06581">
        <ele>34.8</ele>
        <time>2020-06-04T17:28:19Z</time>
      </trkpt>
      <trkpt lat="47.10458" lon="-2.06583">
        <ele>34.9</ele>
        <time>2020-06-04T17:28:20Z</time>
      </trkpt>
      <trkpt lat="47.10454" lon="-2.06586">
        <ele>34.9</ele>
        <time>2020-06-04T17:28:21Z</time>
      </trkpt>
      <trkpt lat="47.10451" lon="-2.06588">
        <ele>35</ele>
        <time>2020-06-04T17:28:22Z</time>
      </trkpt>
      <trkpt lat="47.10448" lon="-2.0659">
        <ele>35</ele>
        <time>2020-06-04T17:28:23Z</time>
      </trkpt>
      <trkpt lat="47.10444" lon="-2.06593">
        <ele>35.1</ele>
        <time>2020-06-04T17:28:24Z</time>
      </trkpt>
      <trkpt lat="47.10441" lon="-2.06595">
        <ele>35.1</ele>
        <time>2020-06-04T17:28:25Z</time>
      </trkpt>
      <trkpt lat="47.10437" lon="-2.06598">
        <ele>35.2</ele>
        <time>2020-06-04T17:28:26Z</time>
      </trkpt>
      <trkpt lat="47.10434" lon="-2.066">
        <ele>35.2</ele>
        <time>2020-06-04T17:28:27Z</time>
      </trkpt>
      <trkpt lat="47.1043" lon="-2.06602">
        <ele>35.3</ele>
        <time>2020-06-04T17:28:28Z</time>
      </trkpt>
      <trkpt lat="47.10428" lon="-2.06606">
        <ele>35.3</ele>
        <time>2020-06-04T17:28:29Z</time>
      </trkpt>
      <trkpt lat="47.10425" lon="-2.0661">
        <ele>35.4</ele>
        <time>2020-06-04T17:28:30Z</time>
      </trkpt>
      <trkpt lat="47.10422" lon="-2.06612">
        <ele>35.5</ele>
        <time>2020-06-04T17:28:31Z</time>
      </trkpt>
      <trkpt lat="47.10419" lon="-2.06612">
        <ele>35.5</ele>
        <time>2020-06-04T17:28:32Z</time>
      </trkpt>
      <trkpt lat="47.10415" lon="-2.06614">
        <ele>35.5</ele>
        <time>2020-06-04T17:28:33Z</time>
      </trkpt>
      <trkpt lat="47.10411" lon="-2.06616">
        <ele>35.6</ele>
        <time>2020-06-04T17:28:34Z</time>
      </trkpt>
      <trkpt lat="47.10407" lon="-2.06618">
        <ele>35.6</ele>
        <time>2020-06-04T17:28:35Z</time>
      </trkpt>
      <trkpt lat="47.10403" lon="-2.0662">
        <ele>35.6</ele>
        <time>2020-06-04T17:28:36Z</time>
      </trkpt>
      <trkpt lat="47.10399" lon="-2.06623">
        <ele>35.7</ele>
        <time>2020-06-04T17:28:37Z</time>
      </trkpt>
      <trkpt lat="47.10395" lon="-2.06626">
        <ele>35.7</ele>
        <time>2020-06-04T17:28:38Z</time>
      </trkpt>
      <trkpt lat="47.10391" lon="-2.06628">
        <ele>35.7</ele>
        <time>2020-06-04T17:28:39Z</time>
      </trkpt>
      <trkpt lat="47.10387" lon="-2.0663">
        <ele>35.8</ele>
        <time>2020-06-04T17:28:40Z</time>
      </trkpt>
      <trkpt lat="47.10383" lon="-2.06632">
        <ele>35.8</ele>
        <time>2020-06-04T17:28:41Z</time>
      </trkpt>
      <trkpt lat="47.1038" lon="-2.06635">
        <ele>35.8</ele>
        <time>2020-06-04T17:28:42Z</time>
      </trkpt>
      <trkpt lat="47.10376" lon="-2.06637">
        <ele>35.9</ele>
        <time>2020-06-04T17:28:43Z</time>
      </trkpt>
      <trkpt lat="47.10372" lon="-2.06638">
        <ele>35.9</ele>
        <time>2020-06-04T17:28:44Z</time>
      </trkpt>
      <trkpt lat="47.10368" lon="-2.06638">
        <ele>35.9</ele>
        <time>2020-06-04T17:28:45Z</time>
      </trkpt>
      <trkpt lat="47.10365" lon="-2.06636">
        <ele>36</ele>
        <time>2020-06-04T17:28:46Z</time>
      </trkpt>
      <trkpt lat="47.10361" lon="-2.06633">
        <ele>36</ele>
        <time>2020-06-04T17:28:47Z</time>
      </trkpt>
      <trkpt lat="47.10359" lon="-2.06629">
        <ele>36.1</ele>
        <time>2020-06-04T17:28:48Z</time>
      </trkpt>
      <trkpt lat="47.10356" lon="-2.06624">
        <ele>36.1</ele>
        <time>2020-06-04T17:28:49Z</time>
      </trkpt>
      <trkpt lat="47.10354" lon="-2.0662">
        <ele>36.2</ele>
        <time>2020-06-04T17:28:50Z</time>
      </trkpt>
      <trkpt lat="47.10352" lon="-2.06616">
        <ele>36.2</ele>
        <time>2020-06-04T17:28:51Z</time>
      </trkpt>
      <trkpt lat="47.10349" lon="-2.06613">
        <ele>36.3</ele>
        <time>2020-06-04T17:28:52Z</time>
      </trkpt>
      <trkpt lat="47.10347" lon="-2.06608">
        <ele>36.3</ele>
        <time>2020-06-04T17:28:53Z</time>
      </trkpt>
      <trkpt lat="47.10344" lon="-2.06604">
        <ele>36.3</ele>
        <time>2020-06-04T17:28:54Z</time>
      </trkpt>
      <trkpt lat="47.10341" lon="-2.06599">
        <ele>36.4</ele>
        <time>2020-06-04T17:28:55Z</time>
      </trkpt>
      <trkpt lat="47.10338" lon="-2.06595">
        <ele>36.4</ele>
        <time>2020-06-04T17:28:56Z</time>
      </trkpt>
      <trkpt lat="47.10336" lon="-2.0659">
        <ele>36.4</ele>
        <time>2020-06-04T17:28:57Z</time>
      </trkpt>
      <trkpt lat="47.10333" lon="-2.06586">
        <ele>36.5</ele>
        <time>2020-06-04T17:28:58Z</time>
      </trkpt>
      <trkpt lat="47.10331" lon="-2.06582">
        <ele>36.5</ele>
        <time>2020-06-04T17:28:59Z</time>
      </trkpt>
      <trkpt lat="47.10328" lon="-2.06577">
        <ele>36.6</ele>
        <time>2020-06-04T17:29:00Z</time>
      </trkpt>
      <trkpt lat="47.10326" lon="-2.06571">
        <ele>36.6</ele>
        <time>2020-06-04T17:29:01Z</time>
      </trkpt>
      <trkpt lat="47.10323" lon="-2.06565">
        <ele>36.7</ele>
        <time>2020-06-04T17:29:02Z</time>
      </trkpt>
      <trkpt lat="47.1032" lon="-2.0656">
        <ele>36.8</ele>
        <time>2020-06-04T17:29:03Z</time>
      </trkpt>
      <trkpt lat="47.10318" lon="-2.06555">
        <ele>36.8</ele>
        <time>2020-06-04T17:29:04Z</time>
      </trkpt>
      <trkpt lat="47.10315" lon="-2.06549">
        <ele>36.9</ele>
        <time>2020-06-04T17:29:05Z</time>
      </trkpt>
      <trkpt lat="47.10312" lon="-2.06544">
        <ele>36.9</ele>
        <time>2020-06-04T17:29:06Z</time>
      </trkpt>
      <trkpt lat="47.1031" lon="-2.06538">
        <ele>37</ele>
        <time>2020-06-04T17:29:07Z</time>
      </trkpt>
      <trkpt lat="47.10307" lon="-2.06533">
        <ele>37</ele>
        <time>2020-06-04T17:29:08Z</time>
      </trkpt>
      <trkpt lat="47.10304" lon="-2.06527">
        <ele>37</ele>
        <time>2020-06-04T17:29:09Z</time>
      </trkpt>
      <trkpt lat="47.10302" lon="-2.06522">
        <ele>37</ele>
        <time>2020-06-04T17:29:10Z</time>
      </trkpt>
      <trkpt lat="47.10299" lon="-2.06517">
        <ele>37.1</ele>
        <time>2020-06-04T17:29:11Z</time>
      </trkpt>
      <trkpt lat="47.10297" lon="-2.06511">
        <ele>37.1</ele>
        <time>2020-06-04T17:29:12Z</time>
      </trkpt>
      <trkpt lat="47.10294" lon="-2.06506">
        <ele>37.1</ele>
        <time>2020-06-04T17:29:13Z</time>
      </trkpt>
      <trkpt lat="47.10292" lon="-2.065">
        <ele>37.1</ele>
        <time>2020-06-04T17:29:14Z</time>
      </trkpt>
      <trkpt lat="47.10289" lon="-2.06494">
        <ele>37.2</ele>
        <time>2020-06-04T17:29:15Z</time>
      </trkpt>
      <trkpt lat="47.10287" lon="-2.06489">
        <ele>37.2</ele>
        <time>2020-06-04T17:29:16Z</time>
      </trkpt>
      <trkpt lat="47.10285" lon="-2.06483">
        <ele>37.2</ele>
        <time>2020-06-04T17:29:17Z</time>
      </trkpt>
      <trkpt lat="47.10282" lon="-2.06477">
        <ele>37.3</ele>
        <time>2020-06-04T17:29:18Z</time>
      </trkpt>
      <trkpt lat="47.1028" lon="-2.06472">
        <ele>37.3</ele>
        <time>2020-06-04T17:29:19Z</time>
      </trkpt>
      <trkpt lat="47.10277" lon="-2.06466">
        <ele>37.3</ele>
        <time>2020-06-04T17:29:20Z</time>
      </trkpt>
      <trkpt lat="47.10275" lon="-2.06461">
        <ele>37.3</ele>
        <time>2020-06-04T17:29:21Z</time>
      </trkpt>
      <trkpt lat="47.10273" lon="-2.06456">
        <ele>37.3</ele>
        <time>2020-06-04T17:29:22Z</time>
      </trkpt>
      <trkpt lat="47.10271" lon="-2.06451">
        <ele>37.4</ele>
        <time>2020-06-04T17:29:23Z</time>
      </trkpt>
      <trkpt lat="47.1027" lon="-2.06445">
        <ele>37.4</ele>
        <time>2020-06-04T17:29:24Z</time>
      </trkpt>
      <trkpt lat="47.10268" lon="-2.06439">
        <ele>37.4</ele>
        <time>2020-06-04T17:29:25Z</time>
      </trkpt>
      <trkpt lat="47.10266" lon="-2.06434">
        <ele>37.4</ele>
        <time>2020-06-04T17:29:26Z</time>
      </trkpt>
      <trkpt lat="47.10265" lon="-2.06428">
        <ele>37.4</ele>
        <time>2020-06-04T17:29:27Z</time>
      </trkpt>
      <trkpt lat="47.10263" lon="-2.06422">
        <ele>37.5</ele>
        <time>2020-06-04T17:29:28Z</time>
      </trkpt>
      <trkpt lat="47.10261" lon="-2.06417">
        <ele>37.5</ele>
        <time>2020-06-04T17:29:29Z</time>
      </trkpt>
      <trkpt lat="47.1026" lon="-2.06411">
        <ele>37.5</ele>
        <time>2020-06-04T17:29:30Z</time>
      </trkpt>
      <trkpt lat="47.10258" lon="-2.06406">
        <ele>37.5</ele>
        <time>2020-06-04T17:29:31Z</time>
      </trkpt>
      <trkpt lat="47.10257" lon="-2.064">
        <ele>37.5</ele>
        <time>2020-06-04T17:29:32Z</time>
      </trkpt>
      <trkpt lat="47.10255" lon="-2.06395">
        <ele>37.5</ele>
        <time>2020-06-04T17:29:33Z</time>
      </trkpt>
      <trkpt lat="47.10253" lon="-2.06389">
        <ele>37.5</ele>
        <time>2020-06-04T17:29:34Z</time>
      </trkpt>
      <trkpt lat="47.1025" lon="-2.06384">
        <ele>37.6</ele>
        <time>2020-06-04T17:29:35Z</time>
      </trkpt>
      <trkpt lat="47.10248" lon="-2.06379">
        <ele>37.6</ele>
        <time>2020-06-04T17:29:36Z</time>
      </trkpt>
      <trkpt lat="47.10246" lon="-2.06373">
        <ele>37.6</ele>
        <time>2020-06-04T17:29:37Z</time>
      </trkpt>
      <trkpt lat="47.10244" lon="-2.06367">
        <ele>37.6</ele>
        <time>2020-06-04T17:29:38Z</time>
      </trkpt>
      <trkpt lat="47.10241" lon="-2.06362">
        <ele>37.6</ele>
        <time>2020-06-04T17:29:39Z</time>
      </trkpt>
      <trkpt lat="47.10239" lon="-2.06357">
        <ele>37.6</ele>
        <time>2020-06-04T17:29:40Z</time>
      </trkpt>
      <trkpt lat="47.10236" lon="-2.06351">
        <ele>37.7</ele>
        <time>2020-06-04T17:29:41Z</time>
      </trkpt>
      <trkpt lat="47.10233" lon="-2.06346">
        <ele>37.7</ele>
        <time>2020-06-04T17:29:42Z</time>
      </trkpt>
      <trkpt lat="47.1023" lon="-2.06341">
        <ele>37.7</ele>
        <time>2020-06-04T17:29:43Z</time>
      </trkpt>
      <trkpt lat="47.10227" lon="-2.06335">
        <ele>37.7</ele>
        <time>2020-06-04T17:29:44Z</time>
      </trkpt>
      <trkpt lat="47.10223" lon="-2.06331">
        <ele>37.8</ele>
        <time>2020-06-04T17:29:45Z</time>
      </trkpt>
      <trkpt lat="47.10219" lon="-2.06326">
        <ele>37.8</ele>
        <time>2020-06-04T17:29:46Z</time>
      </trkpt>
      <trkpt lat="47.10215" lon="-2.06322">
        <ele>37.8</ele>
        <time>2020-06-04T17:29:47Z</time>
      </trkpt>
      <trkpt lat="47.10211" lon="-2.06319">
        <ele>37.8</ele>
        <time>2020-06-04T17:29:48Z</time>
      </trkpt>
      <trkpt lat="47.10207" lon="-2.06316">
        <ele>37.9</ele>
        <time>2020-06-04T17:29:49Z</time>
      </trkpt>
      <trkpt lat="47.10203" lon="-2.06312">
        <ele>37.9</ele>
        <time>2020-06-04T17:29:50Z</time>
      </trkpt>
      <trkpt lat="47.10199" lon="-2.06309">
        <ele>37.9</ele>
        <time>2020-06-04T17:29:51Z</time>
      </trkpt>
      <trkpt lat="47.10196" lon="-2.06305">
        <ele>37.9</ele>
        <time>2020-06-04T17:29:52Z</time>
      </trkpt>
      <trkpt lat="47.10192" lon="-2.06303">
        <ele>37.9</ele>
        <time>2020-06-04T17:29:53Z</time>
      </trkpt>
      <trkpt lat="47.10188" lon="-2.06301">
        <ele>38</ele>
        <time>2020-06-04T17:29:54Z</time>
      </trkpt>
      <trkpt lat="47.10184" lon="-2.06298">
        <ele>38</ele>
        <time>2020-06-04T17:29:55Z</time>
      </trkpt>
      <trkpt lat="47.1018" lon="-2.06295">
        <ele>38</ele>
        <time>2020-06-04T17:29:56Z</time>
      </trkpt>
      <trkpt lat="47.10175" lon="-2.06293">
        <ele>38</ele>
        <time>2020-06-04T17:29:57Z</time>
      </trkpt>
      <trkpt lat="47.10171" lon="-2.06289">
        <ele>38</ele>
        <time>2020-06-04T17:29:58Z</time>
      </trkpt>
      <trkpt lat="47.10168" lon="-2.06286">
        <ele>38</ele>
        <time>2020-06-04T17:29:59Z</time>
      </trkpt>
      <trkpt lat="47.10164" lon="-2.06284">
        <ele>37.9</ele>
        <time>2020-06-04T17:30:00Z</time>
      </trkpt>
      <trkpt lat="47.10161" lon="-2.06281">
        <ele>37.9</ele>
        <time>2020-06-04T17:30:01Z</time>
      </trkpt>
      <trkpt lat="47.10158" lon="-2.06279">
        <ele>37.9</ele>
        <time>2020-06-04T17:30:02Z</time>
      </trkpt>
      <trkpt lat="47.10155" lon="-2.06276">
        <ele>37.9</ele>
        <time>2020-06-04T17:30:03Z</time>
      </trkpt>
      <trkpt lat="47.10152" lon="-2.06272">
        <ele>37.9</ele>
        <time>2020-06-04T17:30:04Z</time>
      </trkpt>
      <trkpt lat="47.1015" lon="-2.06267">
        <ele>37.9</ele>
        <time>2020-06-04T17:30:05Z</time>
      </trkpt>
      <trkpt lat="47.10147" lon="-2.06263">
        <ele>37.9</ele>
        <time>2020-06-04T17:30:06Z</time>
      </trkpt>
      <trkpt lat="47.10144" lon="-2.06259">
        <ele>37.9</ele>
        <time>2020-06-04T17:30:07Z</time>
      </trkpt>
      <trkpt lat="47.10141" lon="-2.06254">
        <ele>37.9</ele>
        <time>2020-06-04T17:30:08Z</time>
      </trkpt>
      <trkpt lat="47.10138" lon="-2.06249">
        <ele>37.9</ele>
        <time>2020-06-04T17:30:09Z</time>
      </trkpt>
      <trkpt lat="47.10136" lon="-2.06245">
        <ele>37.9</ele>
        <time>2020-06-04T17:30:10Z</time>
      </trkpt>
      <trkpt lat="47.10133" lon="-2.0624">
        <ele>37.9</ele>
        <time>2020-06-04T17:30:11Z</time>
      </trkpt>
      <trkpt lat="47.10131" lon="-2.06235">
        <ele>37.9</ele>
        <time>2020-06-04T17:30:12Z</time>
      </trkpt>
      <trkpt lat="47.10129" lon="-2.0623">
        <ele>37.9</ele>
        <time>2020-06-04T17:30:13Z</time>
      </trkpt>
      <trkpt lat="47.10127" lon="-2.06224">
        <ele>37.9</ele>
        <time>2020-06-04T17:30:14Z</time>
      </trkpt>
      <trkpt lat="47.10125" lon="-2.06218">
        <ele>38</ele>
        <time>2020-06-04T17:30:15Z</time>
      </trkpt>
      <trkpt lat="47.10123" lon="-2.06213">
        <ele>38</ele>
        <time>2020-06-04T17:30:16Z</time>
      </trkpt>
      <trkpt lat="47.10121" lon="-2.06207">
        <ele>38</ele>
        <time>2020-06-04T17:30:17Z</time>
      </trkpt>
      <trkpt lat="47.10119" lon="-2.06202">
        <ele>38.1</ele>
        <time>2020-06-04T17:30:18Z</time>
      </trkpt>
      <trkpt lat="47.10117" lon="-2.06196">
        <ele>38.1</ele>
        <time>2020-06-04T17:30:19Z</time>
      </trkpt>
      <trkpt lat="47.10115" lon="-2.06191">
        <ele>38.1</ele>
        <time>2020-06-04T17:30:20Z</time>
      </trkpt>
      <trkpt lat="47.10114" lon="-2.06186">
        <ele>38.1</ele>
        <time>2020-06-04T17:30:21Z</time>
      </trkpt>
      <trkpt lat="47.10112" lon="-2.0618">
        <ele>38.1</ele>
        <time>2020-06-04T17:30:22Z</time>
      </trkpt>
      <trkpt lat="47.1011" lon="-2.06174">
        <ele>38.1</ele>
        <time>2020-06-04T17:30:23Z</time>
      </trkpt>
      <trkpt lat="47.10109" lon="-2.06168">
        <ele>38.1</ele>
        <time>2020-06-04T17:30:24Z</time>
      </trkpt>
      <trkpt lat="47.10107" lon="-2.06162">
        <ele>38.1</ele>
        <time>2020-06-04T17:30:25Z</time>
      </trkpt>
      <trkpt lat="47.10105" lon="-2.06157">
        <ele>38.1</ele>
        <time>2020-06-04T17:30:26Z</time>
      </trkpt>
      <trkpt lat="47.10103" lon="-2.06152">
        <ele>38.2</ele>
        <time>2020-06-04T17:30:27Z</time>
      </trkpt>
      <trkpt lat="47.10101" lon="-2.06148">
        <ele>38.2</ele>
        <time>2020-06-04T17:30:28Z</time>
      </trkpt>
      <trkpt lat="47.10098" lon="-2.06143">
        <ele>38.2</ele>
        <time>2020-06-04T17:30:29Z</time>
      </trkpt>
      <trkpt lat="47.10096" lon="-2.06138">
        <ele>38.2</ele>
        <time>2020-06-04T17:30:30Z</time>
      </trkpt>
      <trkpt lat="47.10093" lon="-2.06133">
        <ele>38.2</ele>
        <time>2020-06-04T17:30:31Z</time>
      </trkpt>
      <trkpt lat="47.10091" lon="-2.06128">
        <ele>38.2</ele>
        <time>2020-06-04T17:30:32Z</time>
      </trkpt>
      <trkpt lat="47.10089" lon="-2.06123">
        <ele>38.2</ele>
        <time>2020-06-04T17:30:33Z</time>
      </trkpt>
      <trkpt lat="47.10086" lon="-2.06118">
        <ele>38.3</ele>
        <time>2020-06-04T17:30:34Z</time>
      </trkpt>
      <trkpt lat="47.10083" lon="-2.06113">
        <ele>38.2</ele>
        <time>2020-06-04T17:30:35Z</time>
      </trkpt>
      <trkpt lat="47.10081" lon="-2.06108">
        <ele>38.1</ele>
        <time>2020-06-04T17:30:36Z</time>
      </trkpt>
      <trkpt lat="47.10079" lon="-2.06102">
        <ele>38.1</ele>
        <time>2020-06-04T17:30:37Z</time>
      </trkpt>
      <trkpt lat="47.10077" lon="-2.06097">
        <ele>38</ele>
        <time>2020-06-04T17:30:38Z</time>
      </trkpt>
      <trkpt lat="47.10076" lon="-2.06091">
        <ele>38</ele>
        <time>2020-06-04T17:30:39Z</time>
      </trkpt>
      <trkpt lat="47.10075" lon="-2.06086">
        <ele>37.9</ele>
        <time>2020-06-04T17:30:40Z</time>
      </trkpt>
      <trkpt lat="47.10073" lon="-2.06082">
        <ele>37.9</ele>
        <time>2020-06-04T17:30:41Z</time>
      </trkpt>
      <trkpt lat="47.10071" lon="-2.06077">
        <ele>37.9</ele>
        <time>2020-06-04T17:30:42Z</time>
      </trkpt>
      <trkpt lat="47.10069" lon="-2.06074">
        <ele>37.8</ele>
        <time>2020-06-04T17:30:43Z</time>
      </trkpt>
      <trkpt lat="47.10066" lon="-2.06073">
        <ele>37.8</ele>
        <time>2020-06-04T17:30:44Z</time>
      </trkpt>
      <trkpt lat="47.10063" lon="-2.06074">
        <ele>37.7</ele>
        <time>2020-06-04T17:30:45Z</time>
      </trkpt>
      <trkpt lat="47.1006" lon="-2.06075">
        <ele>37.6</ele>
        <time>2020-06-04T17:30:46Z</time>
      </trkpt>
      <trkpt lat="47.10056" lon="-2.06078">
        <ele>37.6</ele>
        <time>2020-06-04T17:30:47Z</time>
      </trkpt>
      <trkpt lat="47.10052" lon="-2.0608">
        <ele>37.6</ele>
        <time>2020-06-04T17:30:48Z</time>
      </trkpt>
      <trkpt lat="47.10048" lon="-2.06082">
        <ele>37.6</ele>
        <time>2020-06-04T17:30:49Z</time>
      </trkpt>
      <trkpt lat="47.10044" lon="-2.06085">
        <ele>37.5</ele>
        <time>2020-06-04T17:30:50Z</time>
      </trkpt>
      <trkpt lat="47.10039" lon="-2.06086">
        <ele>37.4</ele>
        <time>2020-06-04T17:30:51Z</time>
      </trkpt>
      <trkpt lat="47.10035" lon="-2.06089">
        <ele>37.4</ele>
        <time>2020-06-04T17:30:52Z</time>
      </trkpt>
      <trkpt lat="47.10031" lon="-2.06089">
        <ele>37.3</ele>
        <time>2020-06-04T17:30:53Z</time>
      </trkpt>
      <trkpt lat="47.10026" lon="-2.0609">
        <ele>37.2</ele>
        <time>2020-06-04T17:30:54Z</time>
      </trkpt>
      <trkpt lat="47.10022" lon="-2.06092">
        <ele>37.1</ele>
        <time>2020-06-04T17:30:55Z</time>
      </trkpt>
      <trkpt lat="47.10018" lon="-2.06093">
        <ele>37</ele>
        <time>2020-06-04T17:30:56Z</time>
      </trkpt>
      <trkpt lat="47.10013" lon="-2.06092">
        <ele>36.8</ele>
        <time>2020-06-04T17:30:57Z</time>
      </trkpt>
      <trkpt lat="47.10008" lon="-2.06091">
        <ele>36.7</ele>
        <time>2020-06-04T17:30:58Z</time>
      </trkpt>
      <trkpt lat="47.10002" lon="-2.06089">
        <ele>36.6</ele>
        <time>2020-06-04T17:30:59Z</time>
      </trkpt>
      <trkpt lat="47.09997" lon="-2.06086">
        <ele>36.4</ele>
        <time>2020-06-04T17:31:00Z</time>
      </trkpt>
      <trkpt lat="47.09991" lon="-2.06082">
        <ele>36.3</ele>
        <time>2020-06-04T17:31:01Z</time>
      </trkpt>
      <trkpt lat="47.09986" lon="-2.06078">
        <ele>36.2</ele>
        <time>2020-06-04T17:31:02Z</time>
      </trkpt>
      <trkpt lat="47.0998" lon="-2.06073">
        <ele>36</ele>
        <time>2020-06-04T17:31:03Z</time>
      </trkpt>
      <trkpt lat="47.09975" lon="-2.06068">
        <ele>35.9</ele>
        <time>2020-06-04T17:31:04Z</time>
      </trkpt>
      <trkpt lat="47.0997" lon="-2.06062">
        <ele>35.8</ele>
        <time>2020-06-04T17:31:05Z</time>
      </trkpt>
      <trkpt lat="47.09965" lon="-2.06056">
        <ele>35.8</ele>
        <time>2020-06-04T17:31:06Z</time>
      </trkpt>
      <trkpt lat="47.09959" lon="-2.0605">
        <ele>35.7</ele>
        <time>2020-06-04T17:31:07Z</time>
      </trkpt>
      <trkpt lat="47.09954" lon="-2.06045">
        <ele>35.6</ele>
        <time>2020-06-04T17:31:08Z</time>
      </trkpt>
      <trkpt lat="47.09948" lon="-2.0604">
        <ele>35.5</ele>
        <time>2020-06-04T17:31:09Z</time>
      </trkpt>
      <trkpt lat="47.09942" lon="-2.06036">
        <ele>35.4</ele>
        <time>2020-06-04T17:31:10Z</time>
      </trkpt>
      <trkpt lat="47.09936" lon="-2.06031">
        <ele>35.2</ele>
        <time>2020-06-04T17:31:11Z</time>
      </trkpt>
      <trkpt lat="47.0993" lon="-2.06026">
        <ele>35.1</ele>
        <time>2020-06-04T17:31:12Z</time>
      </trkpt>
      <trkpt lat="47.09925" lon="-2.0602">
        <ele>35</ele>
        <time>2020-06-04T17:31:13Z</time>
      </trkpt>
      <trkpt lat="47.09919" lon="-2.06014">
        <ele>34.9</ele>
        <time>2020-06-04T17:31:14Z</time>
      </trkpt>
      <trkpt lat="47.09914" lon="-2.06007">
        <ele>34.8</ele>
        <time>2020-06-04T17:31:15Z</time>
      </trkpt>
      <trkpt lat="47.0991" lon="-2.05999">
        <ele>34.7</ele>
        <time>2020-06-04T17:31:16Z</time>
      </trkpt>
      <trkpt lat="47.09905" lon="-2.05992">
        <ele>34.6</ele>
        <time>2020-06-04T17:31:17Z</time>
      </trkpt>
      <trkpt lat="47.099" lon="-2.05985">
        <ele>34.5</ele>
        <time>2020-06-04T17:31:18Z</time>
      </trkpt>
      <trkpt lat="47.09895" lon="-2.05977">
        <ele>34.4</ele>
        <time>2020-06-04T17:31:19Z</time>
      </trkpt>
      <trkpt lat="47.09891" lon="-2.05969">
        <ele>34.4</ele>
        <time>2020-06-04T17:31:20Z</time>
      </trkpt>
      <trkpt lat="47.09887" lon="-2.05962">
        <ele>34.4</ele>
        <time>2020-06-04T17:31:21Z</time>
      </trkpt>
      <trkpt lat="47.09882" lon="-2.05954">
        <ele>34.3</ele>
        <time>2020-06-04T17:31:22Z</time>
      </trkpt>
      <trkpt lat="47.09878" lon="-2.05947">
        <ele>34.4</ele>
        <time>2020-06-04T17:31:23Z</time>
      </trkpt>
      <trkpt lat="47.09874" lon="-2.05941">
        <ele>34.4</ele>
        <time>2020-06-04T17:31:24Z</time>
      </trkpt>
      <trkpt lat="47.0987" lon="-2.05934">
        <ele>34.4</ele>
        <time>2020-06-04T17:31:25Z</time>
      </trkpt>
      <trkpt lat="47.09866" lon="-2.05927">
        <ele>34.5</ele>
        <time>2020-06-04T17:31:26Z</time>
      </trkpt>
      <trkpt lat="47.09862" lon="-2.0592">
        <ele>34.5</ele>
        <time>2020-06-04T17:31:27Z</time>
      </trkpt>
      <trkpt lat="47.09858" lon="-2.05913">
        <ele>34.6</ele>
        <time>2020-06-04T17:31:28Z</time>
      </trkpt>
      <trkpt lat="47.09855" lon="-2.05907">
        <ele>34.6</ele>
        <time>2020-06-04T17:31:29Z</time>
      </trkpt>
      <trkpt lat="47.09851" lon="-2.05901">
        <ele>34.7</ele>
        <time>2020-06-04T17:31:30Z</time>
      </trkpt>
      <trkpt lat="47.09847" lon="-2.05895">
        <ele>34.7</ele>
        <time>2020-06-04T17:31:31Z</time>
      </trkpt>
      <trkpt lat="47.09844" lon="-2.05889">
        <ele>34.8</ele>
        <time>2020-06-04T17:31:32Z</time>
      </trkpt>
      <trkpt lat="47.09841" lon="-2.05883">
        <ele>34.8</ele>
        <time>2020-06-04T17:31:33Z</time>
      </trkpt>
      <trkpt lat="47.09838" lon="-2.05877">
        <ele>34.8</ele>
        <time>2020-06-04T17:31:34Z</time>
      </trkpt>
      <trkpt lat="47.09836" lon="-2.0587">
        <ele>34.8</ele>
        <time>2020-06-04T17:31:35Z</time>
      </trkpt>
      <trkpt lat="47.09833" lon="-2.05864">
        <ele>34.8</ele>
        <time>2020-06-04T17:31:36Z</time>
      </trkpt>
      <trkpt lat="47.09831" lon="-2.05857">
        <ele>34.8</ele>
        <time>2020-06-04T17:31:37Z</time>
      </trkpt>
      <trkpt lat="47.09829" lon="-2.0585">
        <ele>34.9</ele>
        <time>2020-06-04T17:31:38Z</time>
      </trkpt>
      <trkpt lat="47.09827" lon="-2.05843">
        <ele>34.9</ele>
        <time>2020-06-04T17:31:39Z</time>
      </trkpt>
      <trkpt lat="47.09826" lon="-2.05836">
        <ele>34.9</ele>
        <time>2020-06-04T17:31:40Z</time>
      </trkpt>
      <trkpt lat="47.09823" lon="-2.05828">
        <ele>35</ele>
        <time>2020-06-04T17:31:41Z</time>
      </trkpt>
      <trkpt lat="47.0982" lon="-2.05821">
        <ele>35</ele>
        <time>2020-06-04T17:31:42Z</time>
      </trkpt>
      <trkpt lat="47.09819" lon="-2.05813">
        <ele>35</ele>
        <time>2020-06-04T17:31:43Z</time>
      </trkpt>
      <trkpt lat="47.09817" lon="-2.05806">
        <ele>35.1</ele>
        <time>2020-06-04T17:31:44Z</time>
      </trkpt>
      <trkpt lat="47.09816" lon="-2.05798">
        <ele>35.1</ele>
        <time>2020-06-04T17:31:45Z</time>
      </trkpt>
      <trkpt lat="47.09814" lon="-2.0579">
        <ele>35.2</ele>
        <time>2020-06-04T17:31:46Z</time>
      </trkpt>
      <trkpt lat="47.09812" lon="-2.05782">
        <ele>35.2</ele>
        <time>2020-06-04T17:31:47Z</time>
      </trkpt>
      <trkpt lat="47.0981" lon="-2.05775">
        <ele>35.2</ele>
        <time>2020-06-04T17:31:48Z</time>
      </trkpt>
      <trkpt lat="47.09808" lon="-2.05767">
        <ele>35.2</ele>
        <time>2020-06-04T17:31:49Z</time>
      </trkpt>
      <trkpt lat="47.09806" lon="-2.05759">
        <ele>35.2</ele>
        <time>2020-06-04T17:31:50Z</time>
      </trkpt>
      <trkpt lat="47.09803" lon="-2.05751">
        <ele>35.2</ele>
        <time>2020-06-04T17:31:51Z</time>
      </trkpt>
      <trkpt lat="47.09801" lon="-2.05744">
        <ele>35.2</ele>
        <time>2020-06-04T17:31:52Z</time>
      </trkpt>
      <trkpt lat="47.09799" lon="-2.05737">
        <ele>35.2</ele>
        <time>2020-06-04T17:31:53Z</time>
      </trkpt>
      <trkpt lat="47.09796" lon="-2.05729">
        <ele>35.2</ele>
        <time>2020-06-04T17:31:54Z</time>
      </trkpt>
      <trkpt lat="47.09794" lon="-2.05722">
        <ele>35.2</ele>
        <time>2020-06-04T17:31:55Z</time>
      </trkpt>
      <trkpt lat="47.09791" lon="-2.05714">
        <ele>35.1</ele>
        <time>2020-06-04T17:31:56Z</time>
      </trkpt>
      <trkpt lat="47.09789" lon="-2.05707">
        <ele>35.1</ele>
        <time>2020-06-04T17:31:57Z</time>
      </trkpt>
      <trkpt lat="47.09787" lon="-2.05699">
        <ele>35.1</ele>
        <time>2020-06-04T17:31:58Z</time>
      </trkpt>
      <trkpt lat="47.09785" lon="-2.05692">
        <ele>35.1</ele>
        <time>2020-06-04T17:31:59Z</time>
      </trkpt>
      <trkpt lat="47.09783" lon="-2.05684">
        <ele>35.1</ele>
        <time>2020-06-04T17:32:00Z</time>
      </trkpt>
      <trkpt lat="47.09781" lon="-2.05677">
        <ele>35</ele>
        <time>2020-06-04T17:32:01Z</time>
      </trkpt>
      <trkpt lat="47.09779" lon="-2.0567">
        <ele>34.9</ele>
        <time>2020-06-04T17:32:02Z</time>
      </trkpt>
      <trkpt lat="47.09776" lon="-2.05663">
        <ele>34.8</ele>
        <time>2020-06-04T17:32:03Z</time>
      </trkpt>
      <trkpt lat="47.09773" lon="-2.05655">
        <ele>34.7</ele>
        <time>2020-06-04T17:32:04Z</time>
      </trkpt>
      <trkpt lat="47.09771" lon="-2.05647">
        <ele>34.6</ele>
        <time>2020-06-04T17:32:05Z</time>
      </trkpt>
      <trkpt lat="47.09768" lon="-2.0564">
        <ele>34.5</ele>
        <time>2020-06-04T17:32:06Z</time>
      </trkpt>
      <trkpt lat="47.09765" lon="-2.05632">
        <ele>34.4</ele>
        <time>2020-06-04T17:32:07Z</time>
      </trkpt>
      <trkpt lat="47.09761" lon="-2.05625">
        <ele>34.2</ele>
        <time>2020-06-04T17:32:08Z</time>
      </trkpt>
      <trkpt lat="47.09758" lon="-2.05617">
        <ele>34</ele>
        <time>2020-06-04T17:32:09Z</time>
      </trkpt>
      <trkpt lat="47.09754" lon="-2.05609">
        <ele>33.8</ele>
        <time>2020-06-04T17:32:10Z</time>
      </trkpt>
      <trkpt lat="47.09748" lon="-2.05604">
        <ele>33.6</ele>
        <time>2020-06-04T17:32:11Z</time>
      </trkpt>
      <trkpt lat="47.09742" lon="-2.05598">
        <ele>33.5</ele>
        <time>2020-06-04T17:32:12Z</time>
      </trkpt>
      <trkpt lat="47.09736" lon="-2.05592">
        <ele>33.4</ele>
        <time>2020-06-04T17:32:13Z</time>
      </trkpt>
      <trkpt lat="47.0973" lon="-2.05586">
        <ele>33.2</ele>
        <time>2020-06-04T17:32:14Z</time>
      </trkpt>
      <trkpt lat="47.09724" lon="-2.0558">
        <ele>33</ele>
        <time>2020-06-04T17:32:15Z</time>
      </trkpt>
      <trkpt lat="47.09719" lon="-2.05572">
        <ele>32.8</ele>
        <time>2020-06-04T17:32:16Z</time>
      </trkpt>
      <trkpt lat="47.09713" lon="-2.05565">
        <ele>32.6</ele>
        <time>2020-06-04T17:32:17Z</time>
      </trkpt>
      <trkpt lat="47.09707" lon="-2.05558">
        <ele>32.4</ele>
        <time>2020-06-04T17:32:18Z</time>
      </trkpt>
      <trkpt lat="47.09701" lon="-2.05551">
        <ele>32.2</ele>
        <time>2020-06-04T17:32:19Z</time>
      </trkpt>
      <trkpt lat="47.09696" lon="-2.05544">
        <ele>32</ele>
        <time>2020-06-04T17:32:20Z</time>
      </trkpt>
      <trkpt lat="47.0969" lon="-2.05537">
        <ele>31.8</ele>
        <time>2020-06-04T17:32:21Z</time>
      </trkpt>
      <trkpt lat="47.09685" lon="-2.05529">
        <ele>31.7</ele>
        <time>2020-06-04T17:32:22Z</time>
      </trkpt>
      <trkpt lat="47.0968" lon="-2.05522">
        <ele>31.5</ele>
        <time>2020-06-04T17:32:23Z</time>
      </trkpt>
      <trkpt lat="47.09676" lon="-2.05513">
        <ele>31.4</ele>
        <time>2020-06-04T17:32:24Z</time>
      </trkpt>
      <trkpt lat="47.09671" lon="-2.05504">
        <ele>31.2</ele>
        <time>2020-06-04T17:32:25Z</time>
      </trkpt>
      <trkpt lat="47.09667" lon="-2.05495">
        <ele>31.1</ele>
        <time>2020-06-04T17:32:26Z</time>
      </trkpt>
      <trkpt lat="47.09663" lon="-2.05486">
        <ele>30.9</ele>
        <time>2020-06-04T17:32:27Z</time>
      </trkpt>
      <trkpt lat="47.09659" lon="-2.05477">
        <ele>30.7</ele>
        <time>2020-06-04T17:32:28Z</time>
      </trkpt>
      <trkpt lat="47.09656" lon="-2.0547">
        <ele>30.5</ele>
        <time>2020-06-04T17:32:29Z</time>
      </trkpt>
      <trkpt lat="47.09653" lon="-2.05463">
        <ele>30.3</ele>
        <time>2020-06-04T17:32:30Z</time>
      </trkpt>
      <trkpt lat="47.0965" lon="-2.05457">
        <ele>30.1</ele>
        <time>2020-06-04T17:32:31Z</time>
      </trkpt>
      <trkpt lat="47.09647" lon="-2.05451">
        <ele>29.9</ele>
        <time>2020-06-04T17:32:32Z</time>
      </trkpt>
      <trkpt lat="47.09645" lon="-2.05445">
        <ele>29.7</ele>
        <time>2020-06-04T17:32:33Z</time>
      </trkpt>
      <trkpt lat="47.09642" lon="-2.05439">
        <ele>29.5</ele>
        <time>2020-06-04T17:32:34Z</time>
      </trkpt>
      <trkpt lat="47.09639" lon="-2.05433">
        <ele>29.3</ele>
        <time>2020-06-04T17:32:35Z</time>
      </trkpt>
      <trkpt lat="47.09636" lon="-2.05426">
        <ele>29</ele>
        <time>2020-06-04T17:32:36Z</time>
      </trkpt>
      <trkpt lat="47.09634" lon="-2.05419">
        <ele>28.8</ele>
        <time>2020-06-04T17:32:37Z</time>
      </trkpt>
      <trkpt lat="47.09632" lon="-2.05412">
        <ele>28.6</ele>
        <time>2020-06-04T17:32:38Z</time>
      </trkpt>
      <trkpt lat="47.09629" lon="-2.05405">
        <ele>28.4</ele>
        <time>2020-06-04T17:32:39Z</time>
      </trkpt>
      <trkpt lat="47.09627" lon="-2.05397">
        <ele>28.3</ele>
        <time>2020-06-04T17:32:40Z</time>
      </trkpt>
      <trkpt lat="47.09625" lon="-2.05389">
        <ele>28.2</ele>
        <time>2020-06-04T17:32:41Z</time>
      </trkpt>
      <trkpt lat="47.09622" lon="-2.05381">
        <ele>28</ele>
        <time>2020-06-04T17:32:42Z</time>
      </trkpt>
      <trkpt lat="47.09619" lon="-2.05373">
        <ele>27.9</ele>
        <time>2020-06-04T17:32:43Z</time>
      </trkpt>
      <trkpt lat="47.09616" lon="-2.05366">
        <ele>27.7</ele>
        <time>2020-06-04T17:32:44Z</time>
      </trkpt>
      <trkpt lat="47.09614" lon="-2.05359">
        <ele>27.5</ele>
        <time>2020-06-04T17:32:45Z</time>
      </trkpt>
      <trkpt lat="47.09612" lon="-2.05353">
        <ele>27.3</ele>
        <time>2020-06-04T17:32:46Z</time>
      </trkpt>
      <trkpt lat="47.0961" lon="-2.05347">
        <ele>27.2</ele>
        <time>2020-06-04T17:32:47Z</time>
      </trkpt>
      <trkpt lat="47.09608" lon="-2.05342">
        <ele>27.1</ele>
        <time>2020-06-04T17:32:48Z</time>
      </trkpt>
      <trkpt lat="47.09606" lon="-2.05336">
        <ele>26.9</ele>
        <time>2020-06-04T17:32:49Z</time>
      </trkpt>
      <trkpt lat="47.09604" lon="-2.05331">
        <ele>26.7</ele>
        <time>2020-06-04T17:32:50Z</time>
      </trkpt>
      <trkpt lat="47.09602" lon="-2.05325">
        <ele>26.5</ele>
        <time>2020-06-04T17:32:51Z</time>
      </trkpt>
      <trkpt lat="47.09599" lon="-2.0532">
        <ele>26.2</ele>
        <time>2020-06-04T17:32:52Z</time>
      </trkpt>
      <trkpt lat="47.09596" lon="-2.05315">
        <ele>25.9</ele>
        <time>2020-06-04T17:32:53Z</time>
      </trkpt>
      <trkpt lat="47.09593" lon="-2.0531">
        <ele>25.6</ele>
        <time>2020-06-04T17:32:54Z</time>
      </trkpt>
      <trkpt lat="47.0959" lon="-2.05305">
        <ele>25.3</ele>
        <time>2020-06-04T17:32:55Z</time>
      </trkpt>
      <trkpt lat="47.09587" lon="-2.053">
        <ele>25</ele>
        <time>2020-06-04T17:32:56Z</time>
      </trkpt>
      <trkpt lat="47.09585" lon="-2.05294">
        <ele>24.7</ele>
        <time>2020-06-04T17:32:57Z</time>
      </trkpt>
      <trkpt lat="47.09582" lon="-2.05289">
        <ele>24.4</ele>
        <time>2020-06-04T17:32:58Z</time>
      </trkpt>
      <trkpt lat="47.0958" lon="-2.05282">
        <ele>24</ele>
        <time>2020-06-04T17:32:59Z</time>
      </trkpt>
      <trkpt lat="47.09578" lon="-2.05275">
        <ele>23.6</ele>
        <time>2020-06-04T17:33:00Z</time>
      </trkpt>
      <trkpt lat="47.09576" lon="-2.05269">
        <ele>23.3</ele>
        <time>2020-06-04T17:33:01Z</time>
      </trkpt>
      <trkpt lat="47.09575" lon="-2.05263">
        <ele>23</ele>
        <time>2020-06-04T17:33:02Z</time>
      </trkpt>
      <trkpt lat="47.09575" lon="-2.05256">
        <ele>22.6</ele>
        <time>2020-06-04T17:33:03Z</time>
      </trkpt>
      <trkpt lat="47.09573" lon="-2.05251">
        <ele>22.3</ele>
        <time>2020-06-04T17:33:04Z</time>
      </trkpt>
      <trkpt lat="47.09573" lon="-2.05246">
        <ele>22.1</ele>
        <time>2020-06-04T17:33:05Z</time>
      </trkpt>
      <trkpt lat="47.09572" lon="-2.05242">
        <ele>21.9</ele>
        <time>2020-06-04T17:33:06Z</time>
      </trkpt>
      <trkpt lat="47.09572" lon="-2.05237">
        <ele>21.7</ele>
        <time>2020-06-04T17:33:07Z</time>
      </trkpt>
      <trkpt lat="47.09573" lon="-2.05233">
        <ele>21.5</ele>
        <time>2020-06-04T17:33:08Z</time>
      </trkpt>
      <trkpt lat="47.09574" lon="-2.05228">
        <ele>21.4</ele>
        <time>2020-06-04T17:33:09Z</time>
      </trkpt>
      <trkpt lat="47.09575" lon="-2.05222">
        <ele>21.2</ele>
        <time>2020-06-04T17:33:10Z</time>
      </trkpt>
      <trkpt lat="47.09576" lon="-2.05215">
        <ele>21.1</ele>
        <time>2020-06-04T17:33:11Z</time>
      </trkpt>
      <trkpt lat="47.09578" lon="-2.05209">
        <ele>21</ele>
        <time>2020-06-04T17:33:12Z</time>
      </trkpt>
      <trkpt lat="47.09578" lon="-2.05202">
        <ele>21</ele>
        <time>2020-06-04T17:33:13Z</time>
      </trkpt>
      <trkpt lat="47.09578" lon="-2.05195">
        <ele>21</ele>
        <time>2020-06-04T17:33:14Z</time>
      </trkpt>
      <trkpt lat="47.09576" lon="-2.05187">
        <ele>20.9</ele>
        <time>2020-06-04T17:33:15Z</time>
      </trkpt>
      <trkpt lat="47.09575" lon="-2.05178">
        <ele>20.8</ele>
        <time>2020-06-04T17:33:16Z</time>
      </trkpt>
      <trkpt lat="47.09575" lon="-2.05169">
        <ele>20.7</ele>
        <time>2020-06-04T17:33:17Z</time>
      </trkpt>
      <trkpt lat="47.09575" lon="-2.0516">
        <ele>20.5</ele>
        <time>2020-06-04T17:33:18Z</time>
      </trkpt>
      <trkpt lat="47.09576" lon="-2.05152">
        <ele>20.6</ele>
        <time>2020-06-04T17:33:19Z</time>
      </trkpt>
      <trkpt lat="47.09575" lon="-2.05143">
        <ele>20.6</ele>
        <time>2020-06-04T17:33:20Z</time>
      </trkpt>
      <trkpt lat="47.09576" lon="-2.05135">
        <ele>20.7</ele>
        <time>2020-06-04T17:33:21Z</time>
      </trkpt>
      <trkpt lat="47.09578" lon="-2.0513">
        <ele>20.7</ele>
        <time>2020-06-04T17:33:22Z</time>
      </trkpt>
      <trkpt lat="47.09579" lon="-2.05126">
        <ele>20.8</ele>
        <time>2020-06-04T17:33:23Z</time>
      </trkpt>
      <trkpt lat="47.09581" lon="-2.05122">
        <ele>20.9</ele>
        <time>2020-06-04T17:33:24Z</time>
      </trkpt>
      <trkpt lat="47.09582" lon="-2.05121">
        <ele>20.9</ele>
        <time>2020-06-04T17:33:25Z</time>
      </trkpt>
      <trkpt lat="47.09584" lon="-2.05117">
        <ele>21</ele>
        <time>2020-06-04T17:33:26Z</time>
      </trkpt>
      <trkpt lat="47.09585" lon="-2.05116">
        <ele>21</ele>
        <time>2020-06-04T17:33:27Z</time>
      </trkpt>
      <trkpt lat="47.09585" lon="-2.05114">
        <ele>21.1</ele>
        <time>2020-06-04T17:33:28Z</time>
      </trkpt>
      <trkpt lat="47.09586" lon="-2.05114">
        <ele>21.1</ele>
        <time>2020-06-04T17:33:29Z</time>
      </trkpt>
      <trkpt lat="47.09586" lon="-2.05114">
        <ele>21.1</ele>
        <time>2020-06-04T17:33:30Z</time>
      </trkpt>
      <trkpt lat="47.09586" lon="-2.05113">
        <ele>21.1</ele>
        <time>2020-06-04T17:33:31Z</time>
      </trkpt>
      <trkpt lat="47.09586" lon="-2.05112">
        <ele>21.1</ele>
        <time>2020-06-04T17:33:32Z</time>
      </trkpt>
      <trkpt lat="47.09586" lon="-2.05111">
        <ele>21.1</ele>
        <time>2020-06-04T17:33:33Z</time>
      </trkpt>
      <trkpt lat="47.09587" lon="-2.0511">
        <ele>21.2</ele>
        <time>2020-06-04T17:33:34Z</time>
      </trkpt>
      <trkpt lat="47.09588" lon="-2.05109">
        <ele>21.2</ele>
        <time>2020-06-04T17:33:35Z</time>
      </trkpt>
      <trkpt lat="47.09588" lon="-2.05109">
        <ele>21.2</ele>
        <time>2020-06-04T17:33:36Z</time>
      </trkpt>
      <trkpt lat="47.09588" lon="-2.05109">
        <ele>21.2</ele>
        <time>2020-06-04T17:33:37Z</time>
      </trkpt>
      <trkpt lat="47.09588" lon="-2.05109">
        <ele>21.2</ele>
        <time>2020-06-04T17:33:38Z</time>
      </trkpt>
      <trkpt lat="47.09588" lon="-2.05109">
        <ele>21.2</ele>
        <time>2020-06-04T17:33:39Z</time>
      </trkpt>
      <trkpt lat="47.09589" lon="-2.05109">
        <ele>21.2</ele>
        <time>2020-06-04T17:33:40Z</time>
      </trkpt>
      <trkpt lat="47.09589" lon="-2.05109">
        <ele>21.2</ele>
        <time>2020-06-04T17:33:41Z</time>
      </trkpt>
      <trkpt lat="47.09589" lon="-2.0511">
        <ele>21.2</ele>
        <time>2020-06-04T17:33:42Z</time>
      </trkpt>
      <trkpt lat="47.09589" lon="-2.05109">
        <ele>21.2</ele>
        <time>2020-06-04T17:33:43Z</time>
      </trkpt>
      <trkpt lat="47.09589" lon="-2.05109">
        <ele>21.2</ele>
        <time>2020-06-04T17:33:44Z</time>
      </trkpt>
      <trkpt lat="47.09589" lon="-2.05109">
        <ele>21.3</ele>
        <time>2020-06-04T17:33:45Z</time>
      </trkpt>
      <trkpt lat="47.09601" lon="-2.05108">
        <ele>21.6</ele>
        <time>2020-06-04T17:35:40Z</time>
      </trkpt>
      <trkpt lat="47.09601" lon="-2.05107">
        <ele>21.6</ele>
        <time>2020-06-04T17:35:41Z</time>
      </trkpt>
      <trkpt lat="47.09602" lon="-2.05106">
        <ele>21.6</ele>
        <time>2020-06-04T17:35:42Z</time>
      </trkpt>
      <trkpt lat="47.09601" lon="-2.05106">
        <ele>21.7</ele>
        <time>2020-06-04T17:35:43Z</time>
      </trkpt>
      <trkpt lat="47.09601" lon="-2.05106">
        <ele>21.7</ele>
        <time>2020-06-04T17:35:44Z</time>
      </trkpt>
      <trkpt lat="47.09601" lon="-2.05106">
        <ele>21.7</ele>
        <time>2020-06-04T17:35:45Z</time>
      </trkpt>
      <trkpt lat="47.09601" lon="-2.05106">
        <ele>21.7</ele>
        <time>2020-06-04T17:35:46Z</time>
      </trkpt>
      <trkpt lat="47.09601" lon="-2.05106">
        <ele>21.7</ele>
        <time>2020-06-04T17:35:47Z</time>
      </trkpt>
      <trkpt lat="47.09601" lon="-2.05106">
        <ele>21.7</ele>
        <time>2020-06-04T17:35:48Z</time>
      </trkpt>
      <trkpt lat="47.096" lon="-2.05104">
        <ele>21.7</ele>
        <time>2020-06-04T17:35:49Z</time>
      </trkpt>
      <trkpt lat="47.096" lon="-2.05104">
        <ele>21.7</ele>
        <time>2020-06-04T17:35:50Z</time>
      </trkpt>
      <trkpt lat="47.09601" lon="-2.05103">
        <ele>21.8</ele>
        <time>2020-06-04T17:35:51Z</time>
      </trkpt>
      <trkpt lat="47.09599" lon="-2.05101">
        <ele>21.8</ele>
        <time>2020-06-04T17:35:52Z</time>
      </trkpt>
      <trkpt lat="47.096" lon="-2.05101">
        <ele>21.8</ele>
        <time>2020-06-04T17:35:53Z</time>
      </trkpt>
      <trkpt lat="47.096" lon="-2.051">
        <ele>21.8</ele>
        <time>2020-06-04T17:35:54Z</time>
      </trkpt>
      <trkpt lat="47.096" lon="-2.051">
        <ele>21.8</ele>
        <time>2020-06-04T17:35:55Z</time>
      </trkpt>
      <trkpt lat="47.096" lon="-2.051">
        <ele>21.8</ele>
        <time>2020-06-04T17:35:56Z</time>
      </trkpt>
      <trkpt lat="47.09601" lon="-2.051">
        <ele>21.8</ele>
        <time>2020-06-04T17:35:57Z</time>
      </trkpt>
      <trkpt lat="47.09601" lon="-2.051">
        <ele>21.9</ele>
        <time>2020-06-04T17:35:58Z</time>
      </trkpt>
      <trkpt lat="47.09601" lon="-2.051">
        <ele>21.9</ele>
        <time>2020-06-04T17:35:59Z</time>
      </trkpt>
      <trkpt lat="47.09601" lon="-2.05099">
        <ele>21.9</ele>
        <time>2020-06-04T17:36:00Z</time>
      </trkpt>
      <trkpt lat="47.09602" lon="-2.05099">
        <ele>21.9</ele>
        <time>2020-06-04T17:36:01Z</time>
      </trkpt>
      <trkpt lat="47.09602" lon="-2.05099">
        <ele>21.9</ele>
        <time>2020-06-04T17:36:02Z</time>
      </trkpt>
      <trkpt lat="47.09602" lon="-2.05099">
        <ele>21.9</ele>
        <time>2020-06-04T17:36:03Z</time>
      </trkpt>
      <trkpt lat="47.09602" lon="-2.05099">
        <ele>21.9</ele>
        <time>2020-06-04T17:36:04Z</time>
      </trkpt>
      <trkpt lat="47.09603" lon="-2.05098">
        <ele>21.9</ele>
        <time>2020-06-04T17:36:05Z</time>
      </trkpt>
      <trkpt lat="47.09603" lon="-2.05098">
        <ele>21.9</ele>
        <time>2020-06-04T17:36:06Z</time>
      </trkpt>
      <trkpt lat="47.09606" lon="-2.05096">
        <ele>22</ele>
        <time>2020-06-04T17:36:07Z</time>
      </trkpt>
      <trkpt lat="47.09607" lon="-2.05094">
        <ele>22.1</ele>
        <time>2020-06-04T17:36:08Z</time>
      </trkpt>
      <trkpt lat="47.09608" lon="-2.0509">
        <ele>22.2</ele>
        <time>2020-06-04T17:36:09Z</time>
      </trkpt>
      <trkpt lat="47.0961" lon="-2.05087">
        <ele>22.3</ele>
        <time>2020-06-04T17:36:10Z</time>
      </trkpt>
      <trkpt lat="47.09612" lon="-2.05083">
        <ele>22.4</ele>
        <time>2020-06-04T17:36:11Z</time>
      </trkpt>
      <trkpt lat="47.09614" lon="-2.05079">
        <ele>22.5</ele>
        <time>2020-06-04T17:36:12Z</time>
      </trkpt>
      <trkpt lat="47.09616" lon="-2.05076">
        <ele>22.6</ele>
        <time>2020-06-04T17:36:13Z</time>
      </trkpt>
      <trkpt lat="47.09619" lon="-2.05072">
        <ele>22.7</ele>
        <time>2020-06-04T17:36:14Z</time>
      </trkpt>
      <trkpt lat="47.09621" lon="-2.05068">
        <ele>22.8</ele>
        <time>2020-06-04T17:36:15Z</time>
      </trkpt>
      <trkpt lat="47.09624" lon="-2.05065">
        <ele>22.8</ele>
        <time>2020-06-04T17:36:16Z</time>
      </trkpt>
      <trkpt lat="47.09627" lon="-2.05061">
        <ele>22.9</ele>
        <time>2020-06-04T17:36:17Z</time>
      </trkpt>
      <trkpt lat="47.09631" lon="-2.05057">
        <ele>22.9</ele>
        <time>2020-06-04T17:36:18Z</time>
      </trkpt>
      <trkpt lat="47.09634" lon="-2.05053">
        <ele>23</ele>
        <time>2020-06-04T17:36:19Z</time>
      </trkpt>
      <trkpt lat="47.09636" lon="-2.05049">
        <ele>23</ele>
        <time>2020-06-04T17:36:20Z</time>
      </trkpt>
      <trkpt lat="47.09638" lon="-2.05045">
        <ele>23.1</ele>
        <time>2020-06-04T17:36:21Z</time>
      </trkpt>
      <trkpt lat="47.0964" lon="-2.05042">
        <ele>23.1</ele>
        <time>2020-06-04T17:36:22Z</time>
      </trkpt>
      <trkpt lat="47.09642" lon="-2.05038">
        <ele>23.2</ele>
        <time>2020-06-04T17:36:23Z</time>
      </trkpt>
      <trkpt lat="47.09644" lon="-2.05035">
        <ele>23.3</ele>
        <time>2020-06-04T17:36:24Z</time>
      </trkpt>
      <trkpt lat="47.09646" lon="-2.05032">
        <ele>23.4</ele>
        <time>2020-06-04T17:36:25Z</time>
      </trkpt>
      <trkpt lat="47.09648" lon="-2.05029">
        <ele>23.5</ele>
        <time>2020-06-04T17:36:26Z</time>
      </trkpt>
      <trkpt lat="47.09651" lon="-2.05026">
        <ele>23.6</ele>
        <time>2020-06-04T17:36:27Z</time>
      </trkpt>
      <trkpt lat="47.09653" lon="-2.05023">
        <ele>23.7</ele>
        <time>2020-06-04T17:36:28Z</time>
      </trkpt>
      <trkpt lat="47.09655" lon="-2.05019">
        <ele>23.8</ele>
        <time>2020-06-04T17:36:29Z</time>
      </trkpt>
      <trkpt lat="47.09656" lon="-2.05015">
        <ele>23.9</ele>
        <time>2020-06-04T17:36:30Z</time>
      </trkpt>
      <trkpt lat="47.09658" lon="-2.05012">
        <ele>24</ele>
        <time>2020-06-04T17:36:31Z</time>
      </trkpt>
      <trkpt lat="47.0966" lon="-2.05009">
        <ele>24.1</ele>
        <time>2020-06-04T17:36:32Z</time>
      </trkpt>
      <trkpt lat="47.09662" lon="-2.05004">
        <ele>24.2</ele>
        <time>2020-06-04T17:36:33Z</time>
      </trkpt>
      <trkpt lat="47.09664" lon="-2.05">
        <ele>24.4</ele>
        <time>2020-06-04T17:36:34Z</time>
      </trkpt>
      <trkpt lat="47.09667" lon="-2.04997">
        <ele>24.5</ele>
        <time>2020-06-04T17:36:35Z</time>
      </trkpt>
      <trkpt lat="47.09668" lon="-2.04992">
        <ele>24.6</ele>
        <time>2020-06-04T17:36:36Z</time>
      </trkpt>
      <trkpt lat="47.0967" lon="-2.04988">
        <ele>24.8</ele>
        <time>2020-06-04T17:36:37Z</time>
      </trkpt>
      <trkpt lat="47.09672" lon="-2.04984">
        <ele>24.9</ele>
        <time>2020-06-04T17:36:38Z</time>
      </trkpt>
      <trkpt lat="47.09674" lon="-2.04981">
        <ele>25.1</ele>
        <time>2020-06-04T17:36:39Z</time>
      </trkpt>
      <trkpt lat="47.09676" lon="-2.04977">
        <ele>25.2</ele>
        <time>2020-06-04T17:36:40Z</time>
      </trkpt>
      <trkpt lat="47.09677" lon="-2.04973">
        <ele>25.4</ele>
        <time>2020-06-04T17:36:41Z</time>
      </trkpt>
      <trkpt lat="47.09679" lon="-2.0497">
        <ele>25.6</ele>
        <time>2020-06-04T17:36:42Z</time>
      </trkpt>
      <trkpt lat="47.09681" lon="-2.04966">
        <ele>25.7</ele>
        <time>2020-06-04T17:36:43Z</time>
      </trkpt>
      <trkpt lat="47.09682" lon="-2.04962">
        <ele>25.9</ele>
        <time>2020-06-04T17:36:44Z</time>
      </trkpt>
      <trkpt lat="47.09684" lon="-2.04959">
        <ele>26.1</ele>
        <time>2020-06-04T17:36:45Z</time>
      </trkpt>
      <trkpt lat="47.09684" lon="-2.04954">
        <ele>26.2</ele>
        <time>2020-06-04T17:36:46Z</time>
      </trkpt>
      <trkpt lat="47.09684" lon="-2.04952">
        <ele>26.3</ele>
        <time>2020-06-04T17:36:47Z</time>
      </trkpt>
      <trkpt lat="47.09684" lon="-2.04948">
        <ele>26.5</ele>
        <time>2020-06-04T17:36:48Z</time>
      </trkpt>
      <trkpt lat="47.09684" lon="-2.04947">
        <ele>26.5</ele>
        <time>2020-06-04T17:36:49Z</time>
      </trkpt>
      <trkpt lat="47.09684" lon="-2.04944">
        <ele>26.6</ele>
        <time>2020-06-04T17:36:50Z</time>
      </trkpt>
      <trkpt lat="47.09683" lon="-2.04942">
        <ele>26.5</ele>
        <time>2020-06-04T17:36:51Z</time>
      </trkpt>
      <trkpt lat="47.09683" lon="-2.04941">
        <ele>26.4</ele>
        <time>2020-06-04T17:36:52Z</time>
      </trkpt>
      <trkpt lat="47.09682" lon="-2.0494">
        <ele>26.4</ele>
        <time>2020-06-04T17:36:53Z</time>
      </trkpt>
      <trkpt lat="47.09681" lon="-2.04939">
        <ele>26.4</ele>
        <time>2020-06-04T17:36:54Z</time>
      </trkpt>
      <trkpt lat="47.09681" lon="-2.04938">
        <ele>26.3</ele>
        <time>2020-06-04T17:36:55Z</time>
      </trkpt>
      <trkpt lat="47.09681" lon="-2.0494">
        <ele>26.3</ele>
        <time>2020-06-04T17:36:56Z</time>
      </trkpt>
      <trkpt lat="47.09681" lon="-2.04941">
        <ele>26.3</ele>
        <time>2020-06-04T17:36:57Z</time>
      </trkpt>
      <trkpt lat="47.09681" lon="-2.04942">
        <ele>26.2</ele>
        <time>2020-06-04T17:36:58Z</time>
      </trkpt>
      <trkpt lat="47.09681" lon="-2.04943">
        <ele>26.2</ele>
        <time>2020-06-04T17:36:59Z</time>
      </trkpt>
      <trkpt lat="47.09681" lon="-2.04944">
        <ele>26.2</ele>
        <time>2020-06-04T17:37:00Z</time>
      </trkpt>
      <trkpt lat="47.09681" lon="-2.04945">
        <ele>26.1</ele>
        <time>2020-06-04T17:37:01Z</time>
      </trkpt>
      <trkpt lat="47.09681" lon="-2.04946">
        <ele>26.1</ele>
        <time>2020-06-04T17:37:02Z</time>
      </trkpt>
      <trkpt lat="47.09682" lon="-2.04951">
        <ele>25.9</ele>
        <time>2020-06-04T17:37:03Z</time>
      </trkpt>
      <trkpt lat="47.09682" lon="-2.04957">
        <ele>25.7</ele>
        <time>2020-06-04T17:37:04Z</time>
      </trkpt>
      <trkpt lat="47.09681" lon="-2.04962">
        <ele>25.6</ele>
        <time>2020-06-04T17:37:05Z</time>
      </trkpt>
      <trkpt lat="47.0968" lon="-2.04968">
        <ele>25.4</ele>
        <time>2020-06-04T17:37:06Z</time>
      </trkpt>
      <trkpt lat="47.09678" lon="-2.04974">
        <ele>25.2</ele>
        <time>2020-06-04T17:37:07Z</time>
      </trkpt>
      <trkpt lat="47.09676" lon="-2.04981">
        <ele>24.9</ele>
        <time>2020-06-04T17:37:08Z</time>
      </trkpt>
      <trkpt lat="47.09673" lon="-2.04987">
        <ele>24.7</ele>
        <time>2020-06-04T17:37:09Z</time>
      </trkpt>
      <trkpt lat="47.0967" lon="-2.04993">
        <ele>24.6</ele>
        <time>2020-06-04T17:37:10Z</time>
      </trkpt>
      <trkpt lat="47.09668" lon="-2.04998">
        <ele>24.4</ele>
        <time>2020-06-04T17:37:11Z</time>
      </trkpt>
      <trkpt lat="47.09665" lon="-2.05003">
        <ele>24.3</ele>
        <time>2020-06-04T17:37:12Z</time>
      </trkpt>
      <trkpt lat="47.09662" lon="-2.05008">
        <ele>24.2</ele>
        <time>2020-06-04T17:37:13Z</time>
      </trkpt>
      <trkpt lat="47.09659" lon="-2.05011">
        <ele>24</ele>
        <time>2020-06-04T17:37:14Z</time>
      </trkpt>
      <trkpt lat="47.09655" lon="-2.05016">
        <ele>23.9</ele>
        <time>2020-06-04T17:37:15Z</time>
      </trkpt>
      <trkpt lat="47.09652" lon="-2.0502">
        <ele>23.7</ele>
        <time>2020-06-04T17:37:16Z</time>
      </trkpt>
      <trkpt lat="47.0965" lon="-2.05025">
        <ele>23.6</ele>
        <time>2020-06-04T17:37:17Z</time>
      </trkpt>
      <trkpt lat="47.09647" lon="-2.0503">
        <ele>23.5</ele>
        <time>2020-06-04T17:37:18Z</time>
      </trkpt>
      <trkpt lat="47.09645" lon="-2.05033">
        <ele>23.4</ele>
        <time>2020-06-04T17:37:19Z</time>
      </trkpt>
      <trkpt lat="47.09643" lon="-2.05036">
        <ele>23.4</ele>
        <time>2020-06-04T17:37:20Z</time>
      </trkpt>
      <trkpt lat="47.09643" lon="-2.05038">
        <ele>23.3</ele>
        <time>2020-06-04T17:37:21Z</time>
      </trkpt>
      <trkpt lat="47.09643" lon="-2.05038">
        <ele>23.3</ele>
        <time>2020-06-04T17:37:22Z</time>
      </trkpt>
      <trkpt lat="47.09643" lon="-2.05038">
        <ele>23.3</ele>
        <time>2020-06-04T17:37:23Z</time>
      </trkpt>
      <trkpt lat="47.09644" lon="-2.05038">
        <ele>23.3</ele>
        <time>2020-06-04T17:37:24Z</time>
      </trkpt>
      <trkpt lat="47.09643" lon="-2.05038">
        <ele>23.3</ele>
        <time>2020-06-04T17:37:25Z</time>
      </trkpt>
      <trkpt lat="47.09643" lon="-2.05039">
        <ele>23.3</ele>
        <time>2020-06-04T17:37:26Z</time>
      </trkpt>
      <trkpt lat="47.09642" lon="-2.05039">
        <ele>23.3</ele>
        <time>2020-06-04T17:37:27Z</time>
      </trkpt>
      <trkpt lat="47.09641" lon="-2.05039">
        <ele>23.2</ele>
        <time>2020-06-04T17:37:28Z</time>
      </trkpt>
      <trkpt lat="47.0964" lon="-2.0504">
        <ele>23.2</ele>
        <time>2020-06-04T17:37:29Z</time>
      </trkpt>
      <trkpt lat="47.0964" lon="-2.0504">
        <ele>23.2</ele>
        <time>2020-06-04T17:37:30Z</time>
      </trkpt>
      <trkpt lat="47.0964" lon="-2.0504">
        <ele>23.2</ele>
        <time>2020-06-04T17:37:31Z</time>
      </trkpt>
      <trkpt lat="47.09641" lon="-2.0504">
        <ele>23.2</ele>
        <time>2020-06-04T17:37:32Z</time>
      </trkpt>
      <trkpt lat="47.0964" lon="-2.05041">
        <ele>23.2</ele>
        <time>2020-06-04T17:37:33Z</time>
      </trkpt>
      <trkpt lat="47.0964" lon="-2.0504">
        <ele>23.2</ele>
        <time>2020-06-04T17:37:34Z</time>
      </trkpt>
      <trkpt lat="47.0964" lon="-2.0504">
        <ele>23.2</ele>
        <time>2020-06-04T17:37:35Z</time>
      </trkpt>
      <trkpt lat="47.09639" lon="-2.05039">
        <ele>23.2</ele>
        <time>2020-06-04T17:37:36Z</time>
      </trkpt>
      <trkpt lat="47.0964" lon="-2.05039">
        <ele>23.2</ele>
        <time>2020-06-04T17:37:37Z</time>
      </trkpt>
      <trkpt lat="47.0964" lon="-2.05039">
        <ele>23.2</ele>
        <time>2020-06-04T17:37:38Z</time>
      </trkpt>
      <trkpt lat="47.0964" lon="-2.05039">
        <ele>23.2</ele>
        <time>2020-06-04T17:37:39Z</time>
      </trkpt>
      <trkpt lat="47.0964" lon="-2.0504">
        <ele>23.1</ele>
        <time>2020-06-04T17:37:40Z</time>
      </trkpt>
      <trkpt lat="47.09637" lon="-2.05044">
        <ele>23.1</ele>
        <time>2020-06-04T17:37:46Z</time>
      </trkpt>
      <trkpt lat="47.09636" lon="-2.05045">
        <ele>23.1</ele>
        <time>2020-06-04T17:37:47Z</time>
      </trkpt>
      <trkpt lat="47.09635" lon="-2.05046">
        <ele>23</ele>
        <time>2020-06-04T17:37:48Z</time>
      </trkpt>
      <trkpt lat="47.09634" lon="-2.05046">
        <ele>23</ele>
        <time>2020-06-04T17:37:49Z</time>
      </trkpt>
      <trkpt lat="47.09634" lon="-2.05046">
        <ele>23</ele>
        <time>2020-06-04T17:37:50Z</time>
      </trkpt>
      <trkpt lat="47.09634" lon="-2.05046">
        <ele>23</ele>
        <time>2020-06-04T17:37:51Z</time>
      </trkpt>
      <trkpt lat="47.09635" lon="-2.05046">
        <ele>23</ele>
        <time>2020-06-04T17:37:52Z</time>
      </trkpt>
      <trkpt lat="47.09635" lon="-2.05046">
        <ele>23</ele>
        <time>2020-06-04T17:37:53Z</time>
      </trkpt>
      <trkpt lat="47.09634" lon="-2.05046">
        <ele>23</ele>
        <time>2020-06-04T17:37:54Z</time>
      </trkpt>
      <trkpt lat="47.09635" lon="-2.05046">
        <ele>23</ele>
        <time>2020-06-04T17:37:55Z</time>
      </trkpt>
      <trkpt lat="47.09635" lon="-2.05046">
        <ele>23</ele>
        <time>2020-06-04T17:37:56Z</time>
      </trkpt>
      <trkpt lat="47.09635" lon="-2.05047">
        <ele>23</ele>
        <time>2020-06-04T17:37:57Z</time>
      </trkpt>
      <trkpt lat="47.09635" lon="-2.05046">
        <ele>23</ele>
        <time>2020-06-04T17:37:58Z</time>
      </trkpt>
      <trkpt lat="47.09635" lon="-2.05046">
        <ele>23</ele>
        <time>2020-06-04T17:37:59Z</time>
      </trkpt>
      <trkpt lat="47.09634" lon="-2.05046">
        <ele>23</ele>
        <time>2020-06-04T17:38:00Z</time>
      </trkpt>
      <trkpt lat="47.09632" lon="-2.05057">
        <ele>22.9</ele>
        <time>2020-06-04T17:38:56Z</time>
      </trkpt>
      <trkpt lat="47.0963" lon="-2.0506">
        <ele>22.9</ele>
        <time>2020-06-04T17:38:57Z</time>
      </trkpt>
      <trkpt lat="47.09628" lon="-2.05063">
        <ele>22.9</ele>
        <time>2020-06-04T17:38:58Z</time>
      </trkpt>
      <trkpt lat="47.09626" lon="-2.05067">
        <ele>22.8</ele>
        <time>2020-06-04T17:38:59Z</time>
      </trkpt>
      <trkpt lat="47.09623" lon="-2.05069">
        <ele>22.7</ele>
        <time>2020-06-04T17:39:00Z</time>
      </trkpt>
      <trkpt lat="47.0962" lon="-2.05073">
        <ele>22.6</ele>
        <time>2020-06-04T17:39:01Z</time>
      </trkpt>
      <trkpt lat="47.09616" lon="-2.05076">
        <ele>22.5</ele>
        <time>2020-06-04T17:39:02Z</time>
      </trkpt>
      <trkpt lat="47.09613" lon="-2.05079">
        <ele>22.3</ele>
        <time>2020-06-04T17:39:03Z</time>
      </trkpt>
      <trkpt lat="47.0961" lon="-2.05083">
        <ele>22.1</ele>
        <time>2020-06-04T17:39:04Z</time>
      </trkpt>
      <trkpt lat="47.09608" lon="-2.0509">
        <ele>22</ele>
        <time>2020-06-04T17:39:05Z</time>
      </trkpt>
      <trkpt lat="47.09605" lon="-2.05095">
        <ele>21.8</ele>
        <time>2020-06-04T17:39:06Z</time>
      </trkpt>
      <trkpt lat="47.09602" lon="-2.05102">
        <ele>21.6</ele>
        <time>2020-06-04T17:39:07Z</time>
      </trkpt>
      <trkpt lat="47.09598" lon="-2.05108">
        <ele>21.4</ele>
        <time>2020-06-04T17:39:08Z</time>
      </trkpt>
      <trkpt lat="47.09594" lon="-2.05115">
        <ele>21.1</ele>
        <time>2020-06-04T17:39:09Z</time>
      </trkpt>
      <trkpt lat="47.0959" lon="-2.05123">
        <ele>20.9</ele>
        <time>2020-06-04T17:39:10Z</time>
      </trkpt>
      <trkpt lat="47.09586" lon="-2.0513">
        <ele>20.8</ele>
        <time>2020-06-04T17:39:11Z</time>
      </trkpt>
      <trkpt lat="47.09582" lon="-2.05137">
        <ele>20.6</ele>
        <time>2020-06-04T17:39:12Z</time>
      </trkpt>
      <trkpt lat="47.0958" lon="-2.05145">
        <ele>20.6</ele>
        <time>2020-06-04T17:39:13Z</time>
      </trkpt>
      <trkpt lat="47.09578" lon="-2.05155">
        <ele>20.6</ele>
        <time>2020-06-04T17:39:14Z</time>
      </trkpt>
      <trkpt lat="47.09578" lon="-2.05166">
        <ele>20.6</ele>
        <time>2020-06-04T17:39:15Z</time>
      </trkpt>
      <trkpt lat="47.09579" lon="-2.05177">
        <ele>20.8</ele>
        <time>2020-06-04T17:39:16Z</time>
      </trkpt>
      <trkpt lat="47.09581" lon="-2.05188">
        <ele>20.9</ele>
        <time>2020-06-04T17:39:17Z</time>
      </trkpt>
      <trkpt lat="47.09581" lon="-2.05199">
        <ele>21</ele>
        <time>2020-06-04T17:39:18Z</time>
      </trkpt>
      <trkpt lat="47.09581" lon="-2.05209">
        <ele>21.1</ele>
        <time>2020-06-04T17:39:19Z</time>
      </trkpt>
      <trkpt lat="47.0958" lon="-2.05218">
        <ele>21.3</ele>
        <time>2020-06-04T17:39:20Z</time>
      </trkpt>
      <trkpt lat="47.09578" lon="-2.05227">
        <ele>21.5</ele>
        <time>2020-06-04T17:39:21Z</time>
      </trkpt>
      <trkpt lat="47.09576" lon="-2.05235">
        <ele>21.8</ele>
        <time>2020-06-04T17:39:22Z</time>
      </trkpt>
      <trkpt lat="47.09575" lon="-2.05242">
        <ele>22.1</ele>
        <time>2020-06-04T17:39:23Z</time>
      </trkpt>
      <trkpt lat="47.09572" lon="-2.0525">
        <ele>22.4</ele>
        <time>2020-06-04T17:39:24Z</time>
      </trkpt>
      <trkpt lat="47.09574" lon="-2.05258">
        <ele>22.8</ele>
        <time>2020-06-04T17:39:25Z</time>
      </trkpt>
      <trkpt lat="47.09575" lon="-2.05265">
        <ele>23.1</ele>
        <time>2020-06-04T17:39:26Z</time>
      </trkpt>
      <trkpt lat="47.09577" lon="-2.05271">
        <ele>23.4</ele>
        <time>2020-06-04T17:39:27Z</time>
      </trkpt>
      <trkpt lat="47.09578" lon="-2.05276">
        <ele>23.7</ele>
        <time>2020-06-04T17:39:28Z</time>
      </trkpt>
      <trkpt lat="47.09579" lon="-2.0528">
        <ele>23.9</ele>
        <time>2020-06-04T17:39:29Z</time>
      </trkpt>
      <trkpt lat="47.0958" lon="-2.05285">
        <ele>24.1</ele>
        <time>2020-06-04T17:39:30Z</time>
      </trkpt>
      <trkpt lat="47.09582" lon="-2.0529">
        <ele>24.4</ele>
        <time>2020-06-04T17:39:31Z</time>
      </trkpt>
      <trkpt lat="47.09584" lon="-2.05295">
        <ele>24.7</ele>
        <time>2020-06-04T17:39:32Z</time>
      </trkpt>
      <trkpt lat="47.09586" lon="-2.05299">
        <ele>24.9</ele>
        <time>2020-06-04T17:39:33Z</time>
      </trkpt>
      <trkpt lat="47.09587" lon="-2.05303">
        <ele>25</ele>
        <time>2020-06-04T17:39:34Z</time>
      </trkpt>
      <trkpt lat="47.0959" lon="-2.05308">
        <ele>25.3</ele>
        <time>2020-06-04T17:39:35Z</time>
      </trkpt>
      <trkpt lat="47.09592" lon="-2.05312">
        <ele>25.5</ele>
        <time>2020-06-04T17:39:36Z</time>
      </trkpt>
      <trkpt lat="47.09594" lon="-2.05315">
        <ele>25.7</ele>
        <time>2020-06-04T17:39:37Z</time>
      </trkpt>
      <trkpt lat="47.09596" lon="-2.05319">
        <ele>25.9</ele>
        <time>2020-06-04T17:39:38Z</time>
      </trkpt>
      <trkpt lat="47.09599" lon="-2.05325">
        <ele>26.2</ele>
        <time>2020-06-04T17:39:39Z</time>
      </trkpt>
      <trkpt lat="47.09602" lon="-2.0533">
        <ele>26.5</ele>
        <time>2020-06-04T17:39:40Z</time>
      </trkpt>
      <trkpt lat="47.09605" lon="-2.05336">
        <ele>26.7</ele>
        <time>2020-06-04T17:39:41Z</time>
      </trkpt>
      <trkpt lat="47.09609" lon="-2.0534">
        <ele>26.9</ele>
        <time>2020-06-04T17:39:42Z</time>
      </trkpt>
      <trkpt lat="47.09613" lon="-2.05341">
        <ele>27.1</ele>
        <time>2020-06-04T17:39:43Z</time>
      </trkpt>
      <trkpt lat="47.09616" lon="-2.0534">
        <ele>27.3</ele>
        <time>2020-06-04T17:39:44Z</time>
      </trkpt>
      <trkpt lat="47.0962" lon="-2.05335">
        <ele>27.5</ele>
        <time>2020-06-04T17:39:45Z</time>
      </trkpt>
      <trkpt lat="47.09623" lon="-2.05332">
        <ele>27.6</ele>
        <time>2020-06-04T17:39:46Z</time>
      </trkpt>
      <trkpt lat="47.09627" lon="-2.0533">
        <ele>27.7</ele>
        <time>2020-06-04T17:39:47Z</time>
      </trkpt>
      <trkpt lat="47.09632" lon="-2.05326">
        <ele>27.9</ele>
        <time>2020-06-04T17:39:48Z</time>
      </trkpt>
      <trkpt lat="47.09637" lon="-2.05322">
        <ele>28</ele>
        <time>2020-06-04T17:39:49Z</time>
      </trkpt>
      <trkpt lat="47.09641" lon="-2.05318">
        <ele>28.2</ele>
        <time>2020-06-04T17:39:50Z</time>
      </trkpt>
      <trkpt lat="47.09646" lon="-2.05313">
        <ele>28.4</ele>
        <time>2020-06-04T17:39:51Z</time>
      </trkpt>
      <trkpt lat="47.09649" lon="-2.05308">
        <ele>28.5</ele>
        <time>2020-06-04T17:39:52Z</time>
      </trkpt>
      <trkpt lat="47.09652" lon="-2.05302">
        <ele>28.6</ele>
        <time>2020-06-04T17:39:53Z</time>
      </trkpt>
      <trkpt lat="47.09656" lon="-2.05295">
        <ele>28.8</ele>
        <time>2020-06-04T17:39:54Z</time>
      </trkpt>
      <trkpt lat="47.09661" lon="-2.05288">
        <ele>28.9</ele>
        <time>2020-06-04T17:39:55Z</time>
      </trkpt>
      <trkpt lat="47.09665" lon="-2.05284">
        <ele>29</ele>
        <time>2020-06-04T17:39:56Z</time>
      </trkpt>
      <trkpt lat="47.09669" lon="-2.05279">
        <ele>29.2</ele>
        <time>2020-06-04T17:39:57Z</time>
      </trkpt>
      <trkpt lat="47.09673" lon="-2.05274">
        <ele>29.3</ele>
        <time>2020-06-04T17:39:58Z</time>
      </trkpt>
      <trkpt lat="47.09677" lon="-2.05269">
        <ele>29.4</ele>
        <time>2020-06-04T17:39:59Z</time>
      </trkpt>
      <trkpt lat="47.09681" lon="-2.05264">
        <ele>29.6</ele>
        <time>2020-06-04T17:40:00Z</time>
      </trkpt>
      <trkpt lat="47.09684" lon="-2.0526">
        <ele>29.7</ele>
        <time>2020-06-04T17:40:01Z</time>
      </trkpt>
      <trkpt lat="47.09688" lon="-2.05254">
        <ele>29.8</ele>
        <time>2020-06-04T17:40:02Z</time>
      </trkpt>
      <trkpt lat="47.09691" lon="-2.05249">
        <ele>29.9</ele>
        <time>2020-06-04T17:40:03Z</time>
      </trkpt>
      <trkpt lat="47.09695" lon="-2.05245">
        <ele>30.1</ele>
        <time>2020-06-04T17:40:04Z</time>
      </trkpt>
      <trkpt lat="47.097" lon="-2.0524">
        <ele>30.2</ele>
        <time>2020-06-04T17:40:05Z</time>
      </trkpt>
      <trkpt lat="47.09704" lon="-2.05237">
        <ele>30.3</ele>
        <time>2020-06-04T17:40:06Z</time>
      </trkpt>
      <trkpt lat="47.09708" lon="-2.05235">
        <ele>30.4</ele>
        <time>2020-06-04T17:40:07Z</time>
      </trkpt>
      <trkpt lat="47.09712" lon="-2.05234">
        <ele>30.4</ele>
        <time>2020-06-04T17:40:08Z</time>
      </trkpt>
      <trkpt lat="47.09716" lon="-2.05233">
        <ele>30.5</ele>
        <time>2020-06-04T17:40:09Z</time>
      </trkpt>
      <trkpt lat="47.09721" lon="-2.05231">
        <ele>30.5</ele>
        <time>2020-06-04T17:40:10Z</time>
      </trkpt>
      <trkpt lat="47.09726" lon="-2.05229">
        <ele>30.6</ele>
        <time>2020-06-04T17:40:11Z</time>
      </trkpt>
      <trkpt lat="47.0973" lon="-2.05227">
        <ele>30.6</ele>
        <time>2020-06-04T17:40:12Z</time>
      </trkpt>
      <trkpt lat="47.09734" lon="-2.05226">
        <ele>30.7</ele>
        <time>2020-06-04T17:40:13Z</time>
      </trkpt>
      <trkpt lat="47.09737" lon="-2.05225">
        <ele>30.7</ele>
        <time>2020-06-04T17:40:14Z</time>
      </trkpt>
      <trkpt lat="47.09741" lon="-2.05224">
        <ele>30.8</ele>
        <time>2020-06-04T17:40:15Z</time>
      </trkpt>
      <trkpt lat="47.09745" lon="-2.05222">
        <ele>30.8</ele>
        <time>2020-06-04T17:40:16Z</time>
      </trkpt>
      <trkpt lat="47.09749" lon="-2.05219">
        <ele>30.8</ele>
        <time>2020-06-04T17:40:17Z</time>
      </trkpt>
      <trkpt lat="47.09751" lon="-2.05215">
        <ele>30.8</ele>
        <time>2020-06-04T17:40:18Z</time>
      </trkpt>
      <trkpt lat="47.0975" lon="-2.05212">
        <ele>30.9</ele>
        <time>2020-06-04T17:40:19Z</time>
      </trkpt>
      <trkpt lat="47.09748" lon="-2.05208">
        <ele>30.2</ele>
        <time>2020-06-04T17:40:20Z</time>
      </trkpt>
      <trkpt lat="47.09745" lon="-2.05206">
        <ele>30</ele>
        <time>2020-06-04T17:40:21Z</time>
      </trkpt>
      <trkpt lat="47.09741" lon="-2.05206">
        <ele>29.8</ele>
        <time>2020-06-04T17:40:22Z</time>
      </trkpt>
      <trkpt lat="47.0974" lon="-2.05206">
        <ele>29.7</ele>
        <time>2020-06-04T17:40:23Z</time>
      </trkpt>
      <trkpt lat="47.09737" lon="-2.05208">
        <ele>29.5</ele>
        <time>2020-06-04T17:40:24Z</time>
      </trkpt>
      <trkpt lat="47.09734" lon="-2.05211">
        <ele>29.3</ele>
        <time>2020-06-04T17:40:25Z</time>
      </trkpt>
      <trkpt lat="47.0973" lon="-2.05213">
        <ele>29</ele>
        <time>2020-06-04T17:40:26Z</time>
      </trkpt>
      <trkpt lat="47.09726" lon="-2.05216">
        <ele>28.8</ele>
        <time>2020-06-04T17:40:27Z</time>
      </trkpt>
      <trkpt lat="47.09722" lon="-2.05218">
        <ele>28.6</ele>
        <time>2020-06-04T17:40:28Z</time>
      </trkpt>
      <trkpt lat="47.09718" lon="-2.05219">
        <ele>28.5</ele>
        <time>2020-06-04T17:40:29Z</time>
      </trkpt>
      <trkpt lat="47.09713" lon="-2.05221">
        <ele>28.3</ele>
        <time>2020-06-04T17:40:30Z</time>
      </trkpt>
      <trkpt lat="47.09709" lon="-2.05222">
        <ele>28.2</ele>
        <time>2020-06-04T17:40:31Z</time>
      </trkpt>
      <trkpt lat="47.09705" lon="-2.05225">
        <ele>28</ele>
        <time>2020-06-04T17:40:32Z</time>
      </trkpt>
      <trkpt lat="47.09701" lon="-2.05227">
        <ele>28</ele>
        <time>2020-06-04T17:40:33Z</time>
      </trkpt>
      <trkpt lat="47.09698" lon="-2.05228">
        <ele>27.9</ele>
        <time>2020-06-04T17:40:34Z</time>
      </trkpt>
      <trkpt lat="47.09697" lon="-2.05228">
        <ele>27.9</ele>
        <time>2020-06-04T17:40:35Z</time>
      </trkpt>
      <trkpt lat="47.09698" lon="-2.05227">
        <ele>27.9</ele>
        <time>2020-06-04T17:40:36Z</time>
      </trkpt>
      <trkpt lat="47.09698" lon="-2.05227">
        <ele>27.9</ele>
        <time>2020-06-04T17:40:37Z</time>
      </trkpt>
      <trkpt lat="47.09699" lon="-2.05227">
        <ele>27.8</ele>
        <time>2020-06-04T17:40:38Z</time>
      </trkpt>
      <trkpt lat="47.09699" lon="-2.05228">
        <ele>27.8</ele>
        <time>2020-06-04T17:40:39Z</time>
      </trkpt>
      <trkpt lat="47.09698" lon="-2.05228">
        <ele>27.8</ele>
        <time>2020-06-04T17:40:40Z</time>
      </trkpt>
      <trkpt lat="47.09698" lon="-2.05228">
        <ele>27.8</ele>
        <time>2020-06-04T17:40:41Z</time>
      </trkpt>
      <trkpt lat="47.09697" lon="-2.05228">
        <ele>27.8</ele>
        <time>2020-06-04T17:40:42Z</time>
      </trkpt>
      <trkpt lat="47.09697" lon="-2.05228">
        <ele>27.8</ele>
        <time>2020-06-04T17:40:43Z</time>
      </trkpt>
      <trkpt lat="47.09696" lon="-2.05227">
        <ele>27.7</ele>
        <time>2020-06-04T17:40:44Z</time>
      </trkpt>
      <trkpt lat="47.09695" lon="-2.05227">
        <ele>27.7</ele>
        <time>2020-06-04T17:40:45Z</time>
      </trkpt>
      <trkpt lat="47.09695" lon="-2.05225">
        <ele>27.7</ele>
        <time>2020-06-04T17:40:46Z</time>
      </trkpt>
      <trkpt lat="47.09694" lon="-2.05222">
        <ele>27.7</ele>
        <time>2020-06-04T17:40:47Z</time>
      </trkpt>
      <trkpt lat="47.09694" lon="-2.0522">
        <ele>27.7</ele>
        <time>2020-06-04T17:40:48Z</time>
      </trkpt>
      <trkpt lat="47.09694" lon="-2.05218">
        <ele>27.7</ele>
        <time>2020-06-04T17:40:49Z</time>
      </trkpt>
      <trkpt lat="47.09694" lon="-2.05217">
        <ele>27.8</ele>
        <time>2020-06-04T17:40:50Z</time>
      </trkpt>
      <trkpt lat="47.09694" lon="-2.05216">
        <ele>27.7</ele>
        <time>2020-06-04T17:40:51Z</time>
      </trkpt>
      <trkpt lat="47.09692" lon="-2.05215">
        <ele>27.7</ele>
        <time>2020-06-04T17:40:52Z</time>
      </trkpt>
      <trkpt lat="47.0969" lon="-2.05214">
        <ele>27.6</ele>
        <time>2020-06-04T17:40:53Z</time>
      </trkpt>
      <trkpt lat="47.09689" lon="-2.05214">
        <ele>27.6</ele>
        <time>2020-06-04T17:40:54Z</time>
      </trkpt>
      <trkpt lat="47.09688" lon="-2.05216">
        <ele>27.6</ele>
        <time>2020-06-04T17:40:55Z</time>
      </trkpt>
      <trkpt lat="47.09684" lon="-2.0522">
        <ele>27.5</ele>
        <time>2020-06-04T17:40:56Z</time>
      </trkpt>
      <trkpt lat="47.09683" lon="-2.05222">
        <ele>27.4</ele>
        <time>2020-06-04T17:40:57Z</time>
      </trkpt>
      <trkpt lat="47.0968" lon="-2.05224">
        <ele>27.3</ele>
        <time>2020-06-04T17:40:58Z</time>
      </trkpt>
      <trkpt lat="47.09678" lon="-2.05226">
        <ele>27.1</ele>
        <time>2020-06-04T17:40:59Z</time>
      </trkpt>
      <trkpt lat="47.09675" lon="-2.05227">
        <ele>27.1</ele>
        <time>2020-06-04T17:41:00Z</time>
      </trkpt>
      <trkpt lat="47.09674" lon="-2.05226">
        <ele>27.1</ele>
        <time>2020-06-04T17:41:01Z</time>
      </trkpt>
      <trkpt lat="47.09672" lon="-2.05222">
        <ele>27</ele>
        <time>2020-06-04T17:41:02Z</time>
      </trkpt>
      <trkpt lat="47.0967" lon="-2.05216">
        <ele>27</ele>
        <time>2020-06-04T17:41:03Z</time>
      </trkpt>
      <trkpt lat="47.09667" lon="-2.05211">
        <ele>27</ele>
        <time>2020-06-04T17:41:04Z</time>
      </trkpt>
      <trkpt lat="47.09664" lon="-2.05207">
        <ele>26.9</ele>
        <time>2020-06-04T17:41:05Z</time>
      </trkpt>
      <trkpt lat="47.09662" lon="-2.05202">
        <ele>26.9</ele>
        <time>2020-06-04T17:41:06Z</time>
      </trkpt>
      <trkpt lat="47.0966" lon="-2.05198">
        <ele>26.8</ele>
        <time>2020-06-04T17:41:07Z</time>
      </trkpt>
      <trkpt lat="47.09655" lon="-2.05193">
        <ele>26.7</ele>
        <time>2020-06-04T17:41:08Z</time>
      </trkpt>
      <trkpt lat="47.09653" lon="-2.05189">
        <ele>26.6</ele>
        <time>2020-06-04T17:41:09Z</time>
      </trkpt>
      <trkpt lat="47.0965" lon="-2.05184">
        <ele>26.5</ele>
        <time>2020-06-04T17:41:10Z</time>
      </trkpt>
      <trkpt lat="47.09647" lon="-2.05179">
        <ele>26.4</ele>
        <time>2020-06-04T17:41:11Z</time>
      </trkpt>
      <trkpt lat="47.09645" lon="-2.05176">
        <ele>26.3</ele>
        <time>2020-06-04T17:41:12Z</time>
      </trkpt>
      <trkpt lat="47.09645" lon="-2.05172">
        <ele>26.2</ele>
        <time>2020-06-04T17:41:13Z</time>
      </trkpt>
      <trkpt lat="47.09645" lon="-2.0517">
        <ele>26.1</ele>
        <time>2020-06-04T17:41:14Z</time>
      </trkpt>
      <trkpt lat="47.09647" lon="-2.05166">
        <ele>26</ele>
        <time>2020-06-04T17:41:15Z</time>
      </trkpt>
      <trkpt lat="47.09648" lon="-2.05162">
        <ele>25.9</ele>
        <time>2020-06-04T17:41:16Z</time>
      </trkpt>
      <trkpt lat="47.0965" lon="-2.05158">
        <ele>25.7</ele>
        <time>2020-06-04T17:41:17Z</time>
      </trkpt>
      <trkpt lat="47.09651" lon="-2.05157">
        <ele>25.6</ele>
        <time>2020-06-04T17:41:18Z</time>
      </trkpt>
      <trkpt lat="47.09653" lon="-2.05156">
        <ele>25.5</ele>
        <time>2020-06-04T17:41:19Z</time>
      </trkpt>
      <trkpt lat="47.09654" lon="-2.05155">
        <ele>25.5</ele>
        <time>2020-06-04T17:41:20Z</time>
      </trkpt>
      <trkpt lat="47.09654" lon="-2.05155">
        <ele>25.5</ele>
        <time>2020-06-04T17:41:21Z</time>
      </trkpt>
      <trkpt lat="47.09653" lon="-2.05156">
        <ele>25.4</ele>
        <time>2020-06-04T17:41:22Z</time>
      </trkpt>
      <trkpt lat="47.09652" lon="-2.05156">
        <ele>25.4</ele>
        <time>2020-06-04T17:41:23Z</time>
      </trkpt>
      <trkpt lat="47.09651" lon="-2.05157">
        <ele>25.3</ele>
        <time>2020-06-04T17:41:24Z</time>
      </trkpt>
      <trkpt lat="47.09651" lon="-2.05157">
        <ele>25.2</ele>
        <time>2020-06-04T17:41:25Z</time>
      </trkpt>
      <trkpt lat="47.0965" lon="-2.05158">
        <ele>25.2</ele>
        <time>2020-06-04T17:41:26Z</time>
      </trkpt>
      <trkpt lat="47.09648" lon="-2.05162">
        <ele>25</ele>
        <time>2020-06-04T17:41:27Z</time>
      </trkpt>
      <trkpt lat="47.09647" lon="-2.05164">
        <ele>24.8</ele>
        <time>2020-06-04T17:41:28Z</time>
      </trkpt>
      <trkpt lat="47.09646" lon="-2.05169">
        <ele>24.6</ele>
        <time>2020-06-04T17:41:29Z</time>
      </trkpt>
      <trkpt lat="47.09647" lon="-2.05174">
        <ele>25</ele>
        <time>2020-06-04T17:41:30Z</time>
      </trkpt>
      <trkpt lat="47.09648" lon="-2.05178">
        <ele>25.2</ele>
        <time>2020-06-04T17:41:31Z</time>
      </trkpt>
      <trkpt lat="47.09649" lon="-2.05183">
        <ele>25.5</ele>
        <time>2020-06-04T17:41:32Z</time>
      </trkpt>
      <trkpt lat="47.09652" lon="-2.05187">
        <ele>25.8</ele>
        <time>2020-06-04T17:41:33Z</time>
      </trkpt>
      <trkpt lat="47.09654" lon="-2.05192">
        <ele>26</ele>
        <time>2020-06-04T17:41:34Z</time>
      </trkpt>
      <trkpt lat="47.09656" lon="-2.05197">
        <ele>26.3</ele>
        <time>2020-06-04T17:41:35Z</time>
      </trkpt>
      <trkpt lat="47.0966" lon="-2.05201">
        <ele>26.5</ele>
        <time>2020-06-04T17:41:36Z</time>
      </trkpt>
      <trkpt lat="47.09663" lon="-2.05204">
        <ele>26.6</ele>
        <time>2020-06-04T17:41:37Z</time>
      </trkpt>
      <trkpt lat="47.09666" lon="-2.05208">
        <ele>26.7</ele>
        <time>2020-06-04T17:41:38Z</time>
      </trkpt>
      <trkpt lat="47.09668" lon="-2.05212">
        <ele>26.8</ele>
        <time>2020-06-04T17:41:39Z</time>
      </trkpt>
      <trkpt lat="47.0967" lon="-2.05216">
        <ele>26.9</ele>
        <time>2020-06-04T17:41:40Z</time>
      </trkpt>
      <trkpt lat="47.09672" lon="-2.0522">
        <ele>27</ele>
        <time>2020-06-04T17:41:41Z</time>
      </trkpt>
      <trkpt lat="47.09675" lon="-2.05224">
        <ele>27</ele>
        <time>2020-06-04T17:41:42Z</time>
      </trkpt>
      <trkpt lat="47.09677" lon="-2.05227">
        <ele>27.1</ele>
        <time>2020-06-04T17:41:43Z</time>
      </trkpt>
      <trkpt lat="47.09681" lon="-2.05228">
        <ele>27.1</ele>
        <time>2020-06-04T17:41:44Z</time>
      </trkpt>
      <trkpt lat="47.09682" lon="-2.05228">
        <ele>27.1</ele>
        <time>2020-06-04T17:41:45Z</time>
      </trkpt>
      <trkpt lat="47.09685" lon="-2.05227">
        <ele>27.4</ele>
        <time>2020-06-04T17:41:46Z</time>
      </trkpt>
      <trkpt lat="47.09686" lon="-2.05226">
        <ele>27.5</ele>
        <time>2020-06-04T17:41:47Z</time>
      </trkpt>
      <trkpt lat="47.0969" lon="-2.05223">
        <ele>27.6</ele>
        <time>2020-06-04T17:41:48Z</time>
      </trkpt>
      <trkpt lat="47.09691" lon="-2.05222">
        <ele>27.6</ele>
        <time>2020-06-04T17:41:49Z</time>
      </trkpt>
      <trkpt lat="47.09694" lon="-2.0522">
        <ele>27.7</ele>
        <time>2020-06-04T17:41:50Z</time>
      </trkpt>
      <trkpt lat="47.09697" lon="-2.05216">
        <ele>27.9</ele>
        <time>2020-06-04T17:41:51Z</time>
      </trkpt>
      <trkpt lat="47.09699" lon="-2.05215">
        <ele>27.9</ele>
        <time>2020-06-04T17:41:52Z</time>
      </trkpt>
      <trkpt lat="47.09702" lon="-2.05213">
        <ele>28</ele>
        <time>2020-06-04T17:41:53Z</time>
      </trkpt>
      <trkpt lat="47.09705" lon="-2.05211">
        <ele>28.1</ele>
        <time>2020-06-04T17:41:54Z</time>
      </trkpt>
      <trkpt lat="47.09707" lon="-2.05209">
        <ele>28.2</ele>
        <time>2020-06-04T17:41:55Z</time>
      </trkpt>
      <trkpt lat="47.0971" lon="-2.05206">
        <ele>28.3</ele>
        <time>2020-06-04T17:41:56Z</time>
      </trkpt>
      <trkpt lat="47.09712" lon="-2.05204">
        <ele>28.4</ele>
        <time>2020-06-04T17:41:57Z</time>
      </trkpt>
      <trkpt lat="47.09714" lon="-2.05201">
        <ele>28.4</ele>
        <time>2020-06-04T17:41:58Z</time>
      </trkpt>
      <trkpt lat="47.09715" lon="-2.05199">
        <ele>28.5</ele>
        <time>2020-06-04T17:41:59Z</time>
      </trkpt>
      <trkpt lat="47.09714" lon="-2.05197">
        <ele>28.5</ele>
        <time>2020-06-04T17:42:00Z</time>
      </trkpt>
      <trkpt lat="47.09714" lon="-2.05196">
        <ele>28.5</ele>
        <time>2020-06-04T17:42:01Z</time>
      </trkpt>
      <trkpt lat="47.09715" lon="-2.05195">
        <ele>28.6</ele>
        <time>2020-06-04T17:42:02Z</time>
      </trkpt>
      <trkpt lat="47.09715" lon="-2.05195">
        <ele>28.6</ele>
        <time>2020-06-04T17:42:03Z</time>
      </trkpt>
      <trkpt lat="47.09715" lon="-2.05194">
        <ele>28.6</ele>
        <time>2020-06-04T17:42:04Z</time>
      </trkpt>
      <trkpt lat="47.09715" lon="-2.05196">
        <ele>28.6</ele>
        <time>2020-06-04T17:42:05Z</time>
      </trkpt>
      <trkpt lat="47.09715" lon="-2.05198">
        <ele>28.7</ele>
        <time>2020-06-04T17:42:06Z</time>
      </trkpt>
      <trkpt lat="47.09716" lon="-2.052">
        <ele>28.7</ele>
        <time>2020-06-04T17:42:07Z</time>
      </trkpt>
      <trkpt lat="47.09718" lon="-2.05201">
        <ele>28.8</ele>
        <time>2020-06-04T17:42:08Z</time>
      </trkpt>
      <trkpt lat="47.09719" lon="-2.052">
        <ele>28.9</ele>
        <time>2020-06-04T17:42:09Z</time>
      </trkpt>
      <trkpt lat="47.09722" lon="-2.052">
        <ele>29</ele>
        <time>2020-06-04T17:42:10Z</time>
      </trkpt>
      <trkpt lat="47.09725" lon="-2.05199">
        <ele>29.1</ele>
        <time>2020-06-04T17:42:11Z</time>
      </trkpt>
      <trkpt lat="47.09729" lon="-2.05198">
        <ele>29.3</ele>
        <time>2020-06-04T17:42:12Z</time>
      </trkpt>
      <trkpt lat="47.09732" lon="-2.05197">
        <ele>29.5</ele>
        <time>2020-06-04T17:42:13Z</time>
      </trkpt>
      <trkpt lat="47.09734" lon="-2.05197">
        <ele>29.6</ele>
        <time>2020-06-04T17:42:14Z</time>
      </trkpt>
      <trkpt lat="47.09737" lon="-2.05196">
        <ele>29.8</ele>
        <time>2020-06-04T17:42:15Z</time>
      </trkpt>
      <trkpt lat="47.09741" lon="-2.05195">
        <ele>29.9</ele>
        <time>2020-06-04T17:42:16Z</time>
      </trkpt>
      <trkpt lat="47.09743" lon="-2.05193">
        <ele>30.1</ele>
        <time>2020-06-04T17:42:17Z</time>
      </trkpt>
      <trkpt lat="47.09747" lon="-2.05191">
        <ele>30.5</ele>
        <time>2020-06-04T17:42:18Z</time>
      </trkpt>
      <trkpt lat="47.0975" lon="-2.0519">
        <ele>30.5</ele>
        <time>2020-06-04T17:42:19Z</time>
      </trkpt>
      <trkpt lat="47.09751" lon="-2.05189">
        <ele>30.6</ele>
        <time>2020-06-04T17:42:20Z</time>
      </trkpt>
      <trkpt lat="47.09752" lon="-2.05188">
        <ele>30.6</ele>
        <time>2020-06-04T17:42:21Z</time>
      </trkpt>
      <trkpt lat="47.09753" lon="-2.05185">
        <ele>30.6</ele>
        <time>2020-06-04T17:42:22Z</time>
      </trkpt>
      <trkpt lat="47.09752" lon="-2.05179">
        <ele>30.6</ele>
        <time>2020-06-04T17:42:23Z</time>
      </trkpt>
      <trkpt lat="47.09752" lon="-2.05176">
        <ele>30.6</ele>
        <time>2020-06-04T17:42:24Z</time>
      </trkpt>
      <trkpt lat="47.09752" lon="-2.05171">
        <ele>30.6</ele>
        <time>2020-06-04T17:42:25Z</time>
      </trkpt>
      <trkpt lat="47.09753" lon="-2.05166">
        <ele>30.7</ele>
        <time>2020-06-04T17:42:26Z</time>
      </trkpt>
      <trkpt lat="47.09753" lon="-2.05164">
        <ele>30.7</ele>
        <time>2020-06-04T17:42:27Z</time>
      </trkpt>
      <trkpt lat="47.09754" lon="-2.05159">
        <ele>30.7</ele>
        <time>2020-06-04T17:42:28Z</time>
      </trkpt>
      <trkpt lat="47.09754" lon="-2.05157">
        <ele>30.7</ele>
        <time>2020-06-04T17:42:29Z</time>
      </trkpt>
      <trkpt lat="47.09755" lon="-2.05153">
        <ele>30.7</ele>
        <time>2020-06-04T17:42:30Z</time>
      </trkpt>
      <trkpt lat="47.09755" lon="-2.05148">
        <ele>30.7</ele>
        <time>2020-06-04T17:42:31Z</time>
      </trkpt>
      <trkpt lat="47.09754" lon="-2.05147">
        <ele>30.7</ele>
        <time>2020-06-04T17:42:32Z</time>
      </trkpt>
      <trkpt lat="47.09753" lon="-2.05146">
        <ele>30.7</ele>
        <time>2020-06-04T17:42:33Z</time>
      </trkpt>
      <trkpt lat="47.09752" lon="-2.05146">
        <ele>30.7</ele>
        <time>2020-06-04T17:42:34Z</time>
      </trkpt>
      <trkpt lat="47.09751" lon="-2.05146">
        <ele>30.7</ele>
        <time>2020-06-04T17:42:35Z</time>
      </trkpt>
      <trkpt lat="47.09748" lon="-2.05147">
        <ele>30.7</ele>
        <time>2020-06-04T17:42:36Z</time>
      </trkpt>
      <trkpt lat="47.09745" lon="-2.05147">
        <ele>30.7</ele>
        <time>2020-06-04T17:42:37Z</time>
      </trkpt>
      <trkpt lat="47.09742" lon="-2.05149">
        <ele>30.4</ele>
        <time>2020-06-04T17:42:38Z</time>
      </trkpt>
      <trkpt lat="47.09739" lon="-2.05149">
        <ele>30.3</ele>
        <time>2020-06-04T17:42:39Z</time>
      </trkpt>
      <trkpt lat="47.09738" lon="-2.05149">
        <ele>30.2</ele>
        <time>2020-06-04T17:42:40Z</time>
      </trkpt>
      <trkpt lat="47.09735" lon="-2.05147">
        <ele>30.1</ele>
        <time>2020-06-04T17:42:41Z</time>
      </trkpt>
      <trkpt lat="47.09733" lon="-2.05146">
        <ele>30</ele>
        <time>2020-06-04T17:42:42Z</time>
      </trkpt>
      <trkpt lat="47.09731" lon="-2.05143">
        <ele>29.4</ele>
        <time>2020-06-04T17:42:43Z</time>
      </trkpt>
      <trkpt lat="47.09728" lon="-2.05139">
        <ele>29.3</ele>
        <time>2020-06-04T17:42:44Z</time>
      </trkpt>
      <trkpt lat="47.09725" lon="-2.05136">
        <ele>29.3</ele>
        <time>2020-06-04T17:42:45Z</time>
      </trkpt>
      <trkpt lat="47.09723" lon="-2.05131">
        <ele>29.2</ele>
        <time>2020-06-04T17:42:46Z</time>
      </trkpt>
      <trkpt lat="47.0972" lon="-2.05128">
        <ele>29.2</ele>
        <time>2020-06-04T17:42:47Z</time>
      </trkpt>
      <trkpt lat="47.09718" lon="-2.05123">
        <ele>29.1</ele>
        <time>2020-06-04T17:42:48Z</time>
      </trkpt>
      <trkpt lat="47.09715" lon="-2.05119">
        <ele>29</ele>
        <time>2020-06-04T17:42:49Z</time>
      </trkpt>
      <trkpt lat="47.09713" lon="-2.05115">
        <ele>29</ele>
        <time>2020-06-04T17:42:50Z</time>
      </trkpt>
      <trkpt lat="47.0971" lon="-2.0511">
        <ele>28.9</ele>
        <time>2020-06-04T17:42:51Z</time>
      </trkpt>
      <trkpt lat="47.09709" lon="-2.05108">
        <ele>28.7</ele>
        <time>2020-06-04T17:42:52Z</time>
      </trkpt>
      <trkpt lat="47.09707" lon="-2.05107">
        <ele>28.6</ele>
        <time>2020-06-04T17:42:53Z</time>
      </trkpt>
      <trkpt lat="47.09705" lon="-2.05106">
        <ele>28.5</ele>
        <time>2020-06-04T17:42:54Z</time>
      </trkpt>
      <trkpt lat="47.09704" lon="-2.05106">
        <ele>28.5</ele>
        <time>2020-06-04T17:42:55Z</time>
      </trkpt>
      <trkpt lat="47.09704" lon="-2.05106">
        <ele>28.5</ele>
        <time>2020-06-04T17:42:56Z</time>
      </trkpt>
      <trkpt lat="47.09701" lon="-2.05104">
        <ele>28.3</ele>
        <time>2020-06-04T17:42:57Z</time>
      </trkpt>
      <trkpt lat="47.09698" lon="-2.05101">
        <ele>28.1</ele>
        <time>2020-06-04T17:42:58Z</time>
      </trkpt>
      <trkpt lat="47.09695" lon="-2.05098">
        <ele>27.9</ele>
        <time>2020-06-04T17:42:59Z</time>
      </trkpt>
      <trkpt lat="47.09692" lon="-2.05095">
        <ele>27.7</ele>
        <time>2020-06-04T17:43:00Z</time>
      </trkpt>
      <trkpt lat="47.0969" lon="-2.05091">
        <ele>27.3</ele>
        <time>2020-06-04T17:43:01Z</time>
      </trkpt>
      <trkpt lat="47.0969" lon="-2.05085">
        <ele>27.4</ele>
        <time>2020-06-04T17:43:02Z</time>
      </trkpt>
      <trkpt lat="47.0969" lon="-2.05083">
        <ele>27.4</ele>
        <time>2020-06-04T17:43:03Z</time>
      </trkpt>
      <trkpt lat="47.09692" lon="-2.05078">
        <ele>27.4</ele>
        <time>2020-06-04T17:43:04Z</time>
      </trkpt>
      <trkpt lat="47.09694" lon="-2.05074">
        <ele>27.5</ele>
        <time>2020-06-04T17:43:05Z</time>
      </trkpt>
      <trkpt lat="47.09696" lon="-2.05069">
        <ele>27.5</ele>
        <time>2020-06-04T17:43:06Z</time>
      </trkpt>
      <trkpt lat="47.09699" lon="-2.05063">
        <ele>27.5</ele>
        <time>2020-06-04T17:43:07Z</time>
      </trkpt>
      <trkpt lat="47.09702" lon="-2.05058">
        <ele>27.6</ele>
        <time>2020-06-04T17:43:08Z</time>
      </trkpt>
      <trkpt lat="47.09704" lon="-2.05053">
        <ele>27.6</ele>
        <time>2020-06-04T17:43:09Z</time>
      </trkpt>
      <trkpt lat="47.09706" lon="-2.05048">
        <ele>27.7</ele>
        <time>2020-06-04T17:43:10Z</time>
      </trkpt>
      <trkpt lat="47.09708" lon="-2.05042">
        <ele>27.7</ele>
        <time>2020-06-04T17:43:11Z</time>
      </trkpt>
      <trkpt lat="47.0971" lon="-2.05038">
        <ele>27.8</ele>
        <time>2020-06-04T17:43:12Z</time>
      </trkpt>
      <trkpt lat="47.09712" lon="-2.05033">
        <ele>27.8</ele>
        <time>2020-06-04T17:43:13Z</time>
      </trkpt>
      <trkpt lat="47.09714" lon="-2.05026">
        <ele>27.8</ele>
        <time>2020-06-04T17:43:14Z</time>
      </trkpt>
      <trkpt lat="47.09716" lon="-2.0502">
        <ele>27.9</ele>
        <time>2020-06-04T17:43:15Z</time>
      </trkpt>
      <trkpt lat="47.09717" lon="-2.05015">
        <ele>27.9</ele>
        <time>2020-06-04T17:43:16Z</time>
      </trkpt>
      <trkpt lat="47.09719" lon="-2.05009">
        <ele>28</ele>
        <time>2020-06-04T17:43:17Z</time>
      </trkpt>
      <trkpt lat="47.09721" lon="-2.05004">
        <ele>28</ele>
        <time>2020-06-04T17:43:18Z</time>
      </trkpt>
      <trkpt lat="47.09722" lon="-2.04999">
        <ele>28.1</ele>
        <time>2020-06-04T17:43:19Z</time>
      </trkpt>
      <trkpt lat="47.09724" lon="-2.04994">
        <ele>28.1</ele>
        <time>2020-06-04T17:43:20Z</time>
      </trkpt>
      <trkpt lat="47.09725" lon="-2.0499">
        <ele>28.1</ele>
        <time>2020-06-04T17:43:21Z</time>
      </trkpt>
      <trkpt lat="47.09727" lon="-2.04984">
        <ele>28.2</ele>
        <time>2020-06-04T17:43:22Z</time>
      </trkpt>
      <trkpt lat="47.09728" lon="-2.04979">
        <ele>28.2</ele>
        <time>2020-06-04T17:43:23Z</time>
      </trkpt>
      <trkpt lat="47.09729" lon="-2.04974">
        <ele>28.3</ele>
        <time>2020-06-04T17:43:24Z</time>
      </trkpt>
      <trkpt lat="47.09731" lon="-2.04969">
        <ele>28.3</ele>
        <time>2020-06-04T17:43:25Z</time>
      </trkpt>
      <trkpt lat="47.09732" lon="-2.04965">
        <ele>28.3</ele>
        <time>2020-06-04T17:43:26Z</time>
      </trkpt>
      <trkpt lat="47.09733" lon="-2.04961">
        <ele>28.3</ele>
        <time>2020-06-04T17:43:27Z</time>
      </trkpt>
      <trkpt lat="47.09734" lon="-2.04958">
        <ele>28.3</ele>
        <time>2020-06-04T17:43:28Z</time>
      </trkpt>
      <trkpt lat="47.09733" lon="-2.04956">
        <ele>28.3</ele>
        <time>2020-06-04T17:43:29Z</time>
      </trkpt>
      <trkpt lat="47.09732" lon="-2.04956">
        <ele>28.3</ele>
        <time>2020-06-04T17:43:30Z</time>
      </trkpt>
      <trkpt lat="47.09732" lon="-2.04955">
        <ele>28.3</ele>
        <time>2020-06-04T17:43:31Z</time>
      </trkpt>
      <trkpt lat="47.09733" lon="-2.04952">
        <ele>28.3</ele>
        <time>2020-06-04T17:43:32Z</time>
      </trkpt>
      <trkpt lat="47.09734" lon="-2.0495">
        <ele>28.4</ele>
        <time>2020-06-04T17:43:33Z</time>
      </trkpt>
      <trkpt lat="47.09735" lon="-2.04949">
        <ele>28.4</ele>
        <time>2020-06-04T17:43:34Z</time>
      </trkpt>
      <trkpt lat="47.09736" lon="-2.04948">
        <ele>28.4</ele>
        <time>2020-06-04T17:43:35Z</time>
      </trkpt>
      <trkpt lat="47.09739" lon="-2.04946">
        <ele>28.5</ele>
        <time>2020-06-04T17:43:36Z</time>
      </trkpt>
      <trkpt lat="47.0974" lon="-2.04946">
        <ele>28.5</ele>
        <time>2020-06-04T17:43:37Z</time>
      </trkpt>
      <trkpt lat="47.09743" lon="-2.04949">
        <ele>28.7</ele>
        <time>2020-06-04T17:43:38Z</time>
      </trkpt>
      <trkpt lat="47.09744" lon="-2.0495">
        <ele>28.7</ele>
        <time>2020-06-04T17:43:39Z</time>
      </trkpt>
      <trkpt lat="47.09746" lon="-2.04954">
        <ele>28.9</ele>
        <time>2020-06-04T17:43:40Z</time>
      </trkpt>
      <trkpt lat="47.09748" lon="-2.04957">
        <ele>29</ele>
        <time>2020-06-04T17:43:41Z</time>
      </trkpt>
      <trkpt lat="47.09751" lon="-2.04961">
        <ele>29.2</ele>
        <time>2020-06-04T17:43:42Z</time>
      </trkpt>
      <trkpt lat="47.09754" lon="-2.04965">
        <ele>29.3</ele>
        <time>2020-06-04T17:43:43Z</time>
      </trkpt>
      <trkpt lat="47.09756" lon="-2.04969">
        <ele>29.5</ele>
        <time>2020-06-04T17:43:44Z</time>
      </trkpt>
      <trkpt lat="47.09759" lon="-2.04973">
        <ele>29.6</ele>
        <time>2020-06-04T17:43:45Z</time>
      </trkpt>
      <trkpt lat="47.09761" lon="-2.04976">
        <ele>29.8</ele>
        <time>2020-06-04T17:43:46Z</time>
      </trkpt>
      <trkpt lat="47.09764" lon="-2.0498">
        <ele>29.9</ele>
        <time>2020-06-04T17:43:47Z</time>
      </trkpt>
      <trkpt lat="47.09766" lon="-2.04984">
        <ele>30.1</ele>
        <time>2020-06-04T17:43:48Z</time>
      </trkpt>
      <trkpt lat="47.09768" lon="-2.04988">
        <ele>30.2</ele>
        <time>2020-06-04T17:43:49Z</time>
      </trkpt>
      <trkpt lat="47.09771" lon="-2.04993">
        <ele>30.4</ele>
        <time>2020-06-04T17:43:50Z</time>
      </trkpt>
      <trkpt lat="47.09773" lon="-2.04997">
        <ele>30.6</ele>
        <time>2020-06-04T17:43:51Z</time>
      </trkpt>
      <trkpt lat="47.09776" lon="-2.05">
        <ele>30.7</ele>
        <time>2020-06-04T17:43:52Z</time>
      </trkpt>
      <trkpt lat="47.09778" lon="-2.05003">
        <ele>30.9</ele>
        <time>2020-06-04T17:43:53Z</time>
      </trkpt>
      <trkpt lat="47.0978" lon="-2.05007">
        <ele>31</ele>
        <time>2020-06-04T17:43:54Z</time>
      </trkpt>
      <trkpt lat="47.09783" lon="-2.05011">
        <ele>31.2</ele>
        <time>2020-06-04T17:43:55Z</time>
      </trkpt>
      <trkpt lat="47.09785" lon="-2.05014">
        <ele>31.3</ele>
        <time>2020-06-04T17:43:56Z</time>
      </trkpt>
      <trkpt lat="47.09788" lon="-2.05017">
        <ele>31.5</ele>
        <time>2020-06-04T17:43:57Z</time>
      </trkpt>
      <trkpt lat="47.0979" lon="-2.0502">
        <ele>31.6</ele>
        <time>2020-06-04T17:43:58Z</time>
      </trkpt>
      <trkpt lat="47.09792" lon="-2.05023">
        <ele>31.7</ele>
        <time>2020-06-04T17:43:59Z</time>
      </trkpt>
      <trkpt lat="47.09794" lon="-2.05025">
        <ele>31.7</ele>
        <time>2020-06-04T17:44:00Z</time>
      </trkpt>
      <trkpt lat="47.09794" lon="-2.05026">
        <ele>31.7</ele>
        <time>2020-06-04T17:44:01Z</time>
      </trkpt>
      <trkpt lat="47.09791" lon="-2.0503">
        <ele>31.6</ele>
        <time>2020-06-04T17:44:02Z</time>
      </trkpt>
      <trkpt lat="47.0979" lon="-2.05032">
        <ele>31.6</ele>
        <time>2020-06-04T17:44:03Z</time>
      </trkpt>
      <trkpt lat="47.09788" lon="-2.05037">
        <ele>31.6</ele>
        <time>2020-06-04T17:44:04Z</time>
      </trkpt>
      <trkpt lat="47.09786" lon="-2.05043">
        <ele>31.6</ele>
        <time>2020-06-04T17:44:05Z</time>
      </trkpt>
      <trkpt lat="47.09785" lon="-2.05048">
        <ele>31.6</ele>
        <time>2020-06-04T17:44:06Z</time>
      </trkpt>
      <trkpt lat="47.09783" lon="-2.05053">
        <ele>31.6</ele>
        <time>2020-06-04T17:44:07Z</time>
      </trkpt>
      <trkpt lat="47.09779" lon="-2.05058">
        <ele>31.6</ele>
        <time>2020-06-04T17:44:08Z</time>
      </trkpt>
      <trkpt lat="47.09778" lon="-2.05063">
        <ele>31.5</ele>
        <time>2020-06-04T17:44:09Z</time>
      </trkpt>
      <trkpt lat="47.09776" lon="-2.05068">
        <ele>31.5</ele>
        <time>2020-06-04T17:44:10Z</time>
      </trkpt>
      <trkpt lat="47.09773" lon="-2.05073">
        <ele>31.5</ele>
        <time>2020-06-04T17:44:11Z</time>
      </trkpt>
      <trkpt lat="47.09771" lon="-2.05078">
        <ele>31.4</ele>
        <time>2020-06-04T17:44:12Z</time>
      </trkpt>
      <trkpt lat="47.09768" lon="-2.05083">
        <ele>31.4</ele>
        <time>2020-06-04T17:44:13Z</time>
      </trkpt>
      <trkpt lat="47.09766" lon="-2.05089">
        <ele>31.3</ele>
        <time>2020-06-04T17:44:14Z</time>
      </trkpt>
      <trkpt lat="47.09763" lon="-2.05095">
        <ele>31.3</ele>
        <time>2020-06-04T17:44:15Z</time>
      </trkpt>
      <trkpt lat="47.09761" lon="-2.05101">
        <ele>31.2</ele>
        <time>2020-06-04T17:44:16Z</time>
      </trkpt>
      <trkpt lat="47.09759" lon="-2.05107">
        <ele>31.1</ele>
        <time>2020-06-04T17:44:17Z</time>
      </trkpt>
      <trkpt lat="47.09757" lon="-2.05113">
        <ele>31</ele>
        <time>2020-06-04T17:44:18Z</time>
      </trkpt>
      <trkpt lat="47.09755" lon="-2.05118">
        <ele>30.9</ele>
        <time>2020-06-04T17:44:19Z</time>
      </trkpt>
      <trkpt lat="47.09754" lon="-2.05124">
        <ele>30.9</ele>
        <time>2020-06-04T17:44:20Z</time>
      </trkpt>
      <trkpt lat="47.09753" lon="-2.05129">
        <ele>30.9</ele>
        <time>2020-06-04T17:44:21Z</time>
      </trkpt>
      <trkpt lat="47.09753" lon="-2.05134">
        <ele>30.8</ele>
        <time>2020-06-04T17:44:22Z</time>
      </trkpt>
      <trkpt lat="47.09752" lon="-2.05138">
        <ele>30.8</ele>
        <time>2020-06-04T17:44:23Z</time>
      </trkpt>
      <trkpt lat="47.09752" lon="-2.05145">
        <ele>30.7</ele>
        <time>2020-06-04T17:44:24Z</time>
      </trkpt>
      <trkpt lat="47.09751" lon="-2.05145">
        <ele>30.7</ele>
        <time>2020-06-04T17:44:25Z</time>
      </trkpt>
      <trkpt lat="47.09751" lon="-2.05148">
        <ele>30.7</ele>
        <time>2020-06-04T17:44:26Z</time>
      </trkpt>
      <trkpt lat="47.0975" lon="-2.05147">
        <ele>30.7</ele>
        <time>2020-06-04T17:44:27Z</time>
      </trkpt>
      <trkpt lat="47.0975" lon="-2.05147">
        <ele>30.7</ele>
        <time>2020-06-04T17:44:28Z</time>
      </trkpt>
      <trkpt lat="47.0975" lon="-2.05147">
        <ele>30.7</ele>
        <time>2020-06-04T17:44:29Z</time>
      </trkpt>
      <trkpt lat="47.09749" lon="-2.05148">
        <ele>30.7</ele>
        <time>2020-06-04T17:44:30Z</time>
      </trkpt>
      <trkpt lat="47.09749" lon="-2.05149">
        <ele>30.7</ele>
        <time>2020-06-04T17:44:31Z</time>
      </trkpt>
      <trkpt lat="47.09749" lon="-2.05151">
        <ele>30.7</ele>
        <time>2020-06-04T17:44:32Z</time>
      </trkpt>
      <trkpt lat="47.09749" lon="-2.05152">
        <ele>30.7</ele>
        <time>2020-06-04T17:44:33Z</time>
      </trkpt>
      <trkpt lat="47.09749" lon="-2.05154">
        <ele>30.7</ele>
        <time>2020-06-04T17:44:34Z</time>
      </trkpt>
      <trkpt lat="47.09749" lon="-2.05155">
        <ele>30.7</ele>
        <time>2020-06-04T17:44:35Z</time>
      </trkpt>
      <trkpt lat="47.09748" lon="-2.05157">
        <ele>30.7</ele>
        <time>2020-06-04T17:44:36Z</time>
      </trkpt>
      <trkpt lat="47.09748" lon="-2.05158">
        <ele>30.7</ele>
        <time>2020-06-04T17:44:37Z</time>
      </trkpt>
      <trkpt lat="47.09748" lon="-2.05159">
        <ele>30.7</ele>
        <time>2020-06-04T17:44:39Z</time>
      </trkpt>
      <trkpt lat="47.09748" lon="-2.05161">
        <ele>30.7</ele>
        <time>2020-06-04T17:44:40Z</time>
      </trkpt>
      <trkpt lat="47.09747" lon="-2.05165">
        <ele>30.6</ele>
        <time>2020-06-04T17:44:41Z</time>
      </trkpt>
      <trkpt lat="47.09747" lon="-2.0517">
        <ele>30.6</ele>
        <time>2020-06-04T17:44:42Z</time>
      </trkpt>
      <trkpt lat="47.09747" lon="-2.05174">
        <ele>30.6</ele>
        <time>2020-06-04T17:44:43Z</time>
      </trkpt>
      <trkpt lat="47.09747" lon="-2.05179">
        <ele>30.6</ele>
        <time>2020-06-04T17:44:44Z</time>
      </trkpt>
      <trkpt lat="47.09747" lon="-2.05185">
        <ele>30.6</ele>
        <time>2020-06-04T17:44:45Z</time>
      </trkpt>
      <trkpt lat="47.09747" lon="-2.0519">
        <ele>30.5</ele>
        <time>2020-06-04T17:44:46Z</time>
      </trkpt>
      <trkpt lat="47.09749" lon="-2.05194">
        <ele>30.5</ele>
        <time>2020-06-04T17:44:47Z</time>
      </trkpt>
      <trkpt lat="47.0975" lon="-2.05199">
        <ele>30.6</ele>
        <time>2020-06-04T17:44:48Z</time>
      </trkpt>
      <trkpt lat="47.0975" lon="-2.05203">
        <ele>30.6</ele>
        <time>2020-06-04T17:44:49Z</time>
      </trkpt>
      <trkpt lat="47.09751" lon="-2.05208">
        <ele>30.7</ele>
        <time>2020-06-04T17:44:50Z</time>
      </trkpt>
      <trkpt lat="47.09751" lon="-2.05213">
        <ele>30.7</ele>
        <time>2020-06-04T17:44:51Z</time>
      </trkpt>
      <trkpt lat="47.09751" lon="-2.05215">
        <ele>30.7</ele>
        <time>2020-06-04T17:44:52Z</time>
      </trkpt>
      <trkpt lat="47.09752" lon="-2.0522">
        <ele>30.8</ele>
        <time>2020-06-04T17:44:53Z</time>
      </trkpt>
      <trkpt lat="47.09755" lon="-2.05224">
        <ele>30.8</ele>
        <time>2020-06-04T17:44:54Z</time>
      </trkpt>
      <trkpt lat="47.09755" lon="-2.05226">
        <ele>30.8</ele>
        <time>2020-06-04T17:44:55Z</time>
      </trkpt>
      <trkpt lat="47.09756" lon="-2.05231">
        <ele>30.9</ele>
        <time>2020-06-04T17:44:56Z</time>
      </trkpt>
      <trkpt lat="47.09757" lon="-2.05235">
        <ele>31</ele>
        <time>2020-06-04T17:44:57Z</time>
      </trkpt>
      <trkpt lat="47.09758" lon="-2.05239">
        <ele>31.1</ele>
        <time>2020-06-04T17:44:58Z</time>
      </trkpt>
      <trkpt lat="47.0976" lon="-2.05244">
        <ele>31.2</ele>
        <time>2020-06-04T17:44:59Z</time>
      </trkpt>
      <trkpt lat="47.09761" lon="-2.05249">
        <ele>31.3</ele>
        <time>2020-06-04T17:45:00Z</time>
      </trkpt>
      <trkpt lat="47.09763" lon="-2.05253">
        <ele>31.3</ele>
        <time>2020-06-04T17:45:01Z</time>
      </trkpt>
      <trkpt lat="47.09764" lon="-2.05257">
        <ele>31.4</ele>
        <time>2020-06-04T17:45:02Z</time>
      </trkpt>
      <trkpt lat="47.09765" lon="-2.05261">
        <ele>31.5</ele>
        <time>2020-06-04T17:45:03Z</time>
      </trkpt>
      <trkpt lat="47.09765" lon="-2.05267">
        <ele>31.6</ele>
        <time>2020-06-04T17:45:04Z</time>
      </trkpt>
      <trkpt lat="47.09766" lon="-2.05269">
        <ele>31.6</ele>
        <time>2020-06-04T17:45:05Z</time>
      </trkpt>
      <trkpt lat="47.09766" lon="-2.05273">
        <ele>31.7</ele>
        <time>2020-06-04T17:45:06Z</time>
      </trkpt>
      <trkpt lat="47.09766" lon="-2.05277">
        <ele>31.7</ele>
        <time>2020-06-04T17:45:07Z</time>
      </trkpt>
      <trkpt lat="47.09766" lon="-2.05282">
        <ele>31.8</ele>
        <time>2020-06-04T17:45:08Z</time>
      </trkpt>
      <trkpt lat="47.09765" lon="-2.05284">
        <ele>31.8</ele>
        <time>2020-06-04T17:45:09Z</time>
      </trkpt>
      <trkpt lat="47.09763" lon="-2.05286">
        <ele>31.9</ele>
        <time>2020-06-04T17:45:10Z</time>
      </trkpt>
      <trkpt lat="47.0976" lon="-2.05287">
        <ele>31.9</ele>
        <time>2020-06-04T17:45:11Z</time>
      </trkpt>
      <trkpt lat="47.09757" lon="-2.05288">
        <ele>32</ele>
        <time>2020-06-04T17:45:12Z</time>
      </trkpt>
      <trkpt lat="47.09756" lon="-2.05288">
        <ele>31.9</ele>
        <time>2020-06-04T17:45:13Z</time>
      </trkpt>
      <trkpt lat="47.09754" lon="-2.0529">
        <ele>31.9</ele>
        <time>2020-06-04T17:45:14Z</time>
      </trkpt>
      <trkpt lat="47.09753" lon="-2.05291">
        <ele>31.9</ele>
        <time>2020-06-04T17:45:15Z</time>
      </trkpt>
      <trkpt lat="47.0975" lon="-2.05293">
        <ele>31.9</ele>
        <time>2020-06-04T17:45:16Z</time>
      </trkpt>
      <trkpt lat="47.0975" lon="-2.05293">
        <ele>31.9</ele>
        <time>2020-06-04T17:45:17Z</time>
      </trkpt>
      <trkpt lat="47.09748" lon="-2.05293">
        <ele>31.9</ele>
        <time>2020-06-04T17:45:18Z</time>
      </trkpt>
      <trkpt lat="47.09747" lon="-2.05293">
        <ele>31.9</ele>
        <time>2020-06-04T17:45:19Z</time>
      </trkpt>
      <trkpt lat="47.09745" lon="-2.05295">
        <ele>31.9</ele>
        <time>2020-06-04T17:45:20Z</time>
      </trkpt>
      <trkpt lat="47.09744" lon="-2.05296">
        <ele>31.9</ele>
        <time>2020-06-04T17:45:21Z</time>
      </trkpt>
      <trkpt lat="47.09741" lon="-2.05297">
        <ele>31.9</ele>
        <time>2020-06-04T17:45:22Z</time>
      </trkpt>
      <trkpt lat="47.0974" lon="-2.05298">
        <ele>31.9</ele>
        <time>2020-06-04T17:45:23Z</time>
      </trkpt>
      <trkpt lat="47.09739" lon="-2.05298">
        <ele>31.9</ele>
        <time>2020-06-04T17:45:24Z</time>
      </trkpt>
      <trkpt lat="47.09737" lon="-2.05298">
        <ele>31.9</ele>
        <time>2020-06-04T17:45:25Z</time>
      </trkpt>
      <trkpt lat="47.09735" lon="-2.05298">
        <ele>31.9</ele>
        <time>2020-06-04T17:45:26Z</time>
      </trkpt>
      <trkpt lat="47.09735" lon="-2.05299">
        <ele>31.9</ele>
        <time>2020-06-04T17:45:27Z</time>
      </trkpt>
      <trkpt lat="47.09735" lon="-2.05301">
        <ele>31.9</ele>
        <time>2020-06-04T17:45:28Z</time>
      </trkpt>
      <trkpt lat="47.09735" lon="-2.05301">
        <ele>31.9</ele>
        <time>2020-06-04T17:45:29Z</time>
      </trkpt>
      <trkpt lat="47.09734" lon="-2.05301">
        <ele>31.9</ele>
        <time>2020-06-04T17:45:30Z</time>
      </trkpt>
      <trkpt lat="47.09733" lon="-2.05301">
        <ele>31.9</ele>
        <time>2020-06-04T17:45:31Z</time>
      </trkpt>
      <trkpt lat="47.09733" lon="-2.05301">
        <ele>31.9</ele>
        <time>2020-06-04T17:45:32Z</time>
      </trkpt>
      <trkpt lat="47.09732" lon="-2.05301">
        <ele>31.9</ele>
        <time>2020-06-04T17:45:33Z</time>
      </trkpt>
      <trkpt lat="47.09731" lon="-2.05301">
        <ele>31.9</ele>
        <time>2020-06-04T17:45:34Z</time>
      </trkpt>
      <trkpt lat="47.09732" lon="-2.05302">
        <ele>31.9</ele>
        <time>2020-06-04T17:45:35Z</time>
      </trkpt>
      <trkpt lat="47.09732" lon="-2.05302">
        <ele>31.9</ele>
        <time>2020-06-04T17:45:36Z</time>
      </trkpt>
      <trkpt lat="47.09732" lon="-2.05302">
        <ele>31.9</ele>
        <time>2020-06-04T17:45:37Z</time>
      </trkpt>
      <trkpt lat="47.09732" lon="-2.05303">
        <ele>31.9</ele>
        <time>2020-06-04T17:45:38Z</time>
      </trkpt>
      <trkpt lat="47.09732" lon="-2.05303">
        <ele>31.9</ele>
        <time>2020-06-04T17:45:39Z</time>
      </trkpt>
      <trkpt lat="47.09732" lon="-2.05303">
        <ele>31.9</ele>
        <time>2020-06-04T17:45:40Z</time>
      </trkpt>
      <trkpt lat="47.09732" lon="-2.05301">
        <ele>31.9</ele>
        <time>2020-06-04T17:45:41Z</time>
      </trkpt>
      <trkpt lat="47.09732" lon="-2.05302">
        <ele>31.9</ele>
        <time>2020-06-04T17:45:42Z</time>
      </trkpt>
      <trkpt lat="47.09733" lon="-2.05302">
        <ele>31.9</ele>
        <time>2020-06-04T17:45:43Z</time>
      </trkpt>
      <trkpt lat="47.09732" lon="-2.05302">
        <ele>31.9</ele>
        <time>2020-06-04T17:45:44Z</time>
      </trkpt>
      <trkpt lat="47.09732" lon="-2.05301">
        <ele>31.9</ele>
        <time>2020-06-04T17:45:45Z</time>
      </trkpt>
      <trkpt lat="47.09732" lon="-2.05302">
        <ele>31.9</ele>
        <time>2020-06-04T17:45:46Z</time>
      </trkpt>
      <trkpt lat="47.09733" lon="-2.05302">
        <ele>31.9</ele>
        <time>2020-06-04T17:45:47Z</time>
      </trkpt>
      <trkpt lat="47.09733" lon="-2.05302">
        <ele>31.9</ele>
        <time>2020-06-04T17:45:48Z</time>
      </trkpt>
      <trkpt lat="47.09733" lon="-2.05302">
        <ele>31.9</ele>
        <time>2020-06-04T17:45:49Z</time>
      </trkpt>
    </trkseg>
  </trk>
  <trk>
    <name><![CDATA[Jour 3 La Couarde / La Tranche sur Mer]]></name>
    <trkseg>
      <trkpt lat="46.192" lon="-1.42616">
        <ele>2.6</ele>
        <time>2020-06-02T06:50:03Z</time>
      </trkpt>
      <trkpt lat="46.19203" lon="-1.42626">
        <ele>2.6</ele>
        <time>2020-06-02T06:50:04Z</time>
      </trkpt>
      <trkpt lat="46.19202" lon="-1.42624">
        <ele>2.6</ele>
        <time>2020-06-02T06:50:05Z</time>
      </trkpt>
      <trkpt lat="46.19202" lon="-1.42621">
        <ele>2.6</ele>
        <time>2020-06-02T06:50:06Z</time>
      </trkpt>
      <trkpt lat="46.19201" lon="-1.42621">
        <ele>2.6</ele>
        <time>2020-06-02T06:50:07Z</time>
      </trkpt>
      <trkpt lat="46.19202" lon="-1.42626">
        <ele>2.6</ele>
        <time>2020-06-02T06:50:08Z</time>
      </trkpt>
      <trkpt lat="46.19204" lon="-1.42623">
        <ele>2.6</ele>
        <time>2020-06-02T06:50:09Z</time>
      </trkpt>
      <trkpt lat="46.19202" lon="-1.42619">
        <ele>2.6</ele>
        <time>2020-06-02T06:50:10Z</time>
      </trkpt>
      <trkpt lat="46.19201" lon="-1.42615">
        <ele>2.6</ele>
        <time>2020-06-02T06:50:11Z</time>
      </trkpt>
      <trkpt lat="46.192" lon="-1.4261">
        <ele>2.6</ele>
        <time>2020-06-02T06:50:12Z</time>
      </trkpt>
      <trkpt lat="46.19199" lon="-1.42609">
        <ele>2.6</ele>
        <time>2020-06-02T06:50:13Z</time>
      </trkpt>
      <trkpt lat="46.19198" lon="-1.42604">
        <ele>2.6</ele>
        <time>2020-06-02T06:50:14Z</time>
      </trkpt>
      <trkpt lat="46.19197" lon="-1.42603">
        <ele>2.6</ele>
        <time>2020-06-02T06:50:15Z</time>
      </trkpt>
      <trkpt lat="46.19197" lon="-1.42598">
        <ele>2.6</ele>
        <time>2020-06-02T06:50:16Z</time>
      </trkpt>
      <trkpt lat="46.19197" lon="-1.42596">
        <ele>2.5</ele>
        <time>2020-06-02T06:50:17Z</time>
      </trkpt>
      <trkpt lat="46.19196" lon="-1.42593">
        <ele>2.5</ele>
        <time>2020-06-02T06:50:18Z</time>
      </trkpt>
      <trkpt lat="46.19195" lon="-1.42589">
        <ele>2.5</ele>
        <time>2020-06-02T06:50:20Z</time>
      </trkpt>
      <trkpt lat="46.19195" lon="-1.42585">
        <ele>2.5</ele>
        <time>2020-06-02T06:50:21Z</time>
      </trkpt>
      <trkpt lat="46.19195" lon="-1.42581">
        <ele>2.5</ele>
        <time>2020-06-02T06:50:22Z</time>
      </trkpt>
      <trkpt lat="46.19194" lon="-1.42577">
        <ele>2.5</ele>
        <time>2020-06-02T06:50:23Z</time>
      </trkpt>
      <trkpt lat="46.19193" lon="-1.42572">
        <ele>2.5</ele>
        <time>2020-06-02T06:50:24Z</time>
      </trkpt>
      <trkpt lat="46.19193" lon="-1.4257">
        <ele>2.5</ele>
        <time>2020-06-02T06:50:25Z</time>
      </trkpt>
      <trkpt lat="46.19193" lon="-1.42564">
        <ele>2.5</ele>
        <time>2020-06-02T06:50:26Z</time>
      </trkpt>
      <trkpt lat="46.19192" lon="-1.42558">
        <ele>2.5</ele>
        <time>2020-06-02T06:50:27Z</time>
      </trkpt>
      <trkpt lat="46.19192" lon="-1.42553">
        <ele>2.5</ele>
        <time>2020-06-02T06:50:28Z</time>
      </trkpt>
      <trkpt lat="46.19191" lon="-1.42548">
        <ele>2.6</ele>
        <time>2020-06-02T06:50:29Z</time>
      </trkpt>
      <trkpt lat="46.19191" lon="-1.42541">
        <ele>2.6</ele>
        <time>2020-06-02T06:50:30Z</time>
      </trkpt>
      <trkpt lat="46.19191" lon="-1.42535">
        <ele>2.6</ele>
        <time>2020-06-02T06:50:31Z</time>
      </trkpt>
      <trkpt lat="46.1919" lon="-1.42528">
        <ele>2.6</ele>
        <time>2020-06-02T06:50:32Z</time>
      </trkpt>
      <trkpt lat="46.19189" lon="-1.4252">
        <ele>2.6</ele>
        <time>2020-06-02T06:50:33Z</time>
      </trkpt>
      <trkpt lat="46.19189" lon="-1.42513">
        <ele>2.7</ele>
        <time>2020-06-02T06:50:34Z</time>
      </trkpt>
      <trkpt lat="46.19188" lon="-1.42506">
        <ele>2.7</ele>
        <time>2020-06-02T06:50:35Z</time>
      </trkpt>
      <trkpt lat="46.19189" lon="-1.42499">
        <ele>2.7</ele>
        <time>2020-06-02T06:50:36Z</time>
      </trkpt>
      <trkpt lat="46.19188" lon="-1.42492">
        <ele>2.7</ele>
        <time>2020-06-02T06:50:37Z</time>
      </trkpt>
      <trkpt lat="46.19187" lon="-1.42485">
        <ele>2.7</ele>
        <time>2020-06-02T06:50:38Z</time>
      </trkpt>
      <trkpt lat="46.19187" lon="-1.42478">
        <ele>2.8</ele>
        <time>2020-06-02T06:50:39Z</time>
      </trkpt>
      <trkpt lat="46.19186" lon="-1.42471">
        <ele>2.8</ele>
        <time>2020-06-02T06:50:40Z</time>
      </trkpt>
      <trkpt lat="46.19185" lon="-1.42464">
        <ele>2.8</ele>
        <time>2020-06-02T06:50:41Z</time>
      </trkpt>
      <trkpt lat="46.19185" lon="-1.42458">
        <ele>2.8</ele>
        <time>2020-06-02T06:50:42Z</time>
      </trkpt>
      <trkpt lat="46.19184" lon="-1.42451">
        <ele>2.9</ele>
        <time>2020-06-02T06:50:43Z</time>
      </trkpt>
      <trkpt lat="46.19184" lon="-1.42444">
        <ele>2.9</ele>
        <time>2020-06-02T06:50:44Z</time>
      </trkpt>
      <trkpt lat="46.19182" lon="-1.42436">
        <ele>2.9</ele>
        <time>2020-06-02T06:50:45Z</time>
      </trkpt>
      <trkpt lat="46.19182" lon="-1.4243">
        <ele>2.9</ele>
        <time>2020-06-02T06:50:46Z</time>
      </trkpt>
      <trkpt lat="46.19182" lon="-1.42424">
        <ele>3</ele>
        <time>2020-06-02T06:50:47Z</time>
      </trkpt>
      <trkpt lat="46.19182" lon="-1.42417">
        <ele>3</ele>
        <time>2020-06-02T06:50:48Z</time>
      </trkpt>
      <trkpt lat="46.19182" lon="-1.42411">
        <ele>3</ele>
        <time>2020-06-02T06:50:49Z</time>
      </trkpt>
      <trkpt lat="46.19181" lon="-1.42404">
        <ele>3</ele>
        <time>2020-06-02T06:50:50Z</time>
      </trkpt>
      <trkpt lat="46.19181" lon="-1.42397">
        <ele>3.1</ele>
        <time>2020-06-02T06:50:51Z</time>
      </trkpt>
      <trkpt lat="46.1918" lon="-1.42391">
        <ele>3.1</ele>
        <time>2020-06-02T06:50:52Z</time>
      </trkpt>
      <trkpt lat="46.19179" lon="-1.42385">
        <ele>3.1</ele>
        <time>2020-06-02T06:50:53Z</time>
      </trkpt>
      <trkpt lat="46.19179" lon="-1.42379">
        <ele>3.1</ele>
        <time>2020-06-02T06:50:54Z</time>
      </trkpt>
      <trkpt lat="46.19179" lon="-1.42374">
        <ele>3.1</ele>
        <time>2020-06-02T06:50:55Z</time>
      </trkpt>
      <trkpt lat="46.19179" lon="-1.42368">
        <ele>3.1</ele>
        <time>2020-06-02T06:50:56Z</time>
      </trkpt>
      <trkpt lat="46.19179" lon="-1.42363">
        <ele>3.2</ele>
        <time>2020-06-02T06:50:57Z</time>
      </trkpt>
      <trkpt lat="46.19179" lon="-1.42357">
        <ele>3.2</ele>
        <time>2020-06-02T06:50:58Z</time>
      </trkpt>
      <trkpt lat="46.19179" lon="-1.42351">
        <ele>3.2</ele>
        <time>2020-06-02T06:50:59Z</time>
      </trkpt>
      <trkpt lat="46.19179" lon="-1.42346">
        <ele>3.2</ele>
        <time>2020-06-02T06:51:00Z</time>
      </trkpt>
      <trkpt lat="46.1918" lon="-1.4234">
        <ele>3.1</ele>
        <time>2020-06-02T06:51:01Z</time>
      </trkpt>
      <trkpt lat="46.19181" lon="-1.42334">
        <ele>3.1</ele>
        <time>2020-06-02T06:51:02Z</time>
      </trkpt>
      <trkpt lat="46.19182" lon="-1.42328">
        <ele>3</ele>
        <time>2020-06-02T06:51:03Z</time>
      </trkpt>
      <trkpt lat="46.19184" lon="-1.42322">
        <ele>3</ele>
        <time>2020-06-02T06:51:04Z</time>
      </trkpt>
      <trkpt lat="46.19185" lon="-1.42317">
        <ele>2.8</ele>
        <time>2020-06-02T06:51:05Z</time>
      </trkpt>
      <trkpt lat="46.19187" lon="-1.42311">
        <ele>2.8</ele>
        <time>2020-06-02T06:51:06Z</time>
      </trkpt>
      <trkpt lat="46.1919" lon="-1.42307">
        <ele>2.8</ele>
        <time>2020-06-02T06:51:07Z</time>
      </trkpt>
      <trkpt lat="46.19193" lon="-1.42302">
        <ele>2.8</ele>
        <time>2020-06-02T06:51:08Z</time>
      </trkpt>
      <trkpt lat="46.19197" lon="-1.42296">
        <ele>2.8</ele>
        <time>2020-06-02T06:51:09Z</time>
      </trkpt>
      <trkpt lat="46.19201" lon="-1.42291">
        <ele>2.7</ele>
        <time>2020-06-02T06:51:10Z</time>
      </trkpt>
      <trkpt lat="46.19204" lon="-1.42286">
        <ele>2.7</ele>
        <time>2020-06-02T06:51:11Z</time>
      </trkpt>
      <trkpt lat="46.19208" lon="-1.42281">
        <ele>2.7</ele>
        <time>2020-06-02T06:51:12Z</time>
      </trkpt>
      <trkpt lat="46.19211" lon="-1.42277">
        <ele>2.6</ele>
        <time>2020-06-02T06:51:13Z</time>
      </trkpt>
      <trkpt lat="46.19215" lon="-1.42272">
        <ele>2.6</ele>
        <time>2020-06-02T06:51:14Z</time>
      </trkpt>
      <trkpt lat="46.19218" lon="-1.42266">
        <ele>2.6</ele>
        <time>2020-06-02T06:51:15Z</time>
      </trkpt>
      <trkpt lat="46.19221" lon="-1.42262">
        <ele>2.5</ele>
        <time>2020-06-02T06:51:16Z</time>
      </trkpt>
      <trkpt lat="46.19224" lon="-1.42258">
        <ele>2.5</ele>
        <time>2020-06-02T06:51:17Z</time>
      </trkpt>
      <trkpt lat="46.1923" lon="-1.42252">
        <ele>2.5</ele>
        <time>2020-06-02T06:51:18Z</time>
      </trkpt>
      <trkpt lat="46.19233" lon="-1.42248">
        <ele>2.5</ele>
        <time>2020-06-02T06:51:19Z</time>
      </trkpt>
      <trkpt lat="46.19236" lon="-1.42244">
        <ele>2.5</ele>
        <time>2020-06-02T06:51:20Z</time>
      </trkpt>
      <trkpt lat="46.1924" lon="-1.42239">
        <ele>2.4</ele>
        <time>2020-06-02T06:51:21Z</time>
      </trkpt>
      <trkpt lat="46.19243" lon="-1.42235">
        <ele>2.4</ele>
        <time>2020-06-02T06:51:22Z</time>
      </trkpt>
      <trkpt lat="46.19247" lon="-1.4223">
        <ele>2.4</ele>
        <time>2020-06-02T06:51:23Z</time>
      </trkpt>
      <trkpt lat="46.19251" lon="-1.42225">
        <ele>2.4</ele>
        <time>2020-06-02T06:51:24Z</time>
      </trkpt>
      <trkpt lat="46.19255" lon="-1.42221">
        <ele>2.4</ele>
        <time>2020-06-02T06:51:25Z</time>
      </trkpt>
      <trkpt lat="46.19258" lon="-1.42216">
        <ele>2.4</ele>
        <time>2020-06-02T06:51:26Z</time>
      </trkpt>
      <trkpt lat="46.19261" lon="-1.42212">
        <ele>2.4</ele>
        <time>2020-06-02T06:51:27Z</time>
      </trkpt>
      <trkpt lat="46.19264" lon="-1.42207">
        <ele>2.4</ele>
        <time>2020-06-02T06:51:28Z</time>
      </trkpt>
      <trkpt lat="46.19266" lon="-1.42202">
        <ele>2.4</ele>
        <time>2020-06-02T06:51:29Z</time>
      </trkpt>
      <trkpt lat="46.19269" lon="-1.42197">
        <ele>2.4</ele>
        <time>2020-06-02T06:51:30Z</time>
      </trkpt>
      <trkpt lat="46.19272" lon="-1.42193">
        <ele>2.4</ele>
        <time>2020-06-02T06:51:31Z</time>
      </trkpt>
      <trkpt lat="46.19275" lon="-1.42188">
        <ele>2.4</ele>
        <time>2020-06-02T06:51:32Z</time>
      </trkpt>
      <trkpt lat="46.19279" lon="-1.42185">
        <ele>2.4</ele>
        <time>2020-06-02T06:51:33Z</time>
      </trkpt>
      <trkpt lat="46.19283" lon="-1.42181">
        <ele>2.4</ele>
        <time>2020-06-02T06:51:34Z</time>
      </trkpt>
      <trkpt lat="46.19287" lon="-1.42177">
        <ele>2.4</ele>
        <time>2020-06-02T06:51:35Z</time>
      </trkpt>
      <trkpt lat="46.19291" lon="-1.42173">
        <ele>2.4</ele>
        <time>2020-06-02T06:51:36Z</time>
      </trkpt>
      <trkpt lat="46.19294" lon="-1.42169">
        <ele>2.4</ele>
        <time>2020-06-02T06:51:37Z</time>
      </trkpt>
      <trkpt lat="46.19297" lon="-1.42165">
        <ele>2.4</ele>
        <time>2020-06-02T06:51:38Z</time>
      </trkpt>
      <trkpt lat="46.19302" lon="-1.42163">
        <ele>2.3</ele>
        <time>2020-06-02T06:51:39Z</time>
      </trkpt>
      <trkpt lat="46.19306" lon="-1.42161">
        <ele>2.3</ele>
        <time>2020-06-02T06:51:40Z</time>
      </trkpt>
      <trkpt lat="46.1931" lon="-1.42161">
        <ele>2.3</ele>
        <time>2020-06-02T06:51:41Z</time>
      </trkpt>
      <trkpt lat="46.19314" lon="-1.42163">
        <ele>2.3</ele>
        <time>2020-06-02T06:51:42Z</time>
      </trkpt>
      <trkpt lat="46.19318" lon="-1.42165">
        <ele>2.3</ele>
        <time>2020-06-02T06:51:43Z</time>
      </trkpt>
      <trkpt lat="46.19322" lon="-1.42165">
        <ele>2.3</ele>
        <time>2020-06-02T06:51:44Z</time>
      </trkpt>
      <trkpt lat="46.19327" lon="-1.42165">
        <ele>2.3</ele>
        <time>2020-06-02T06:51:45Z</time>
      </trkpt>
      <trkpt lat="46.19332" lon="-1.42166">
        <ele>2.3</ele>
        <time>2020-06-02T06:51:46Z</time>
      </trkpt>
      <trkpt lat="46.19336" lon="-1.42167">
        <ele>2.3</ele>
        <time>2020-06-02T06:51:47Z</time>
      </trkpt>
      <trkpt lat="46.19339" lon="-1.42167">
        <ele>2.3</ele>
        <time>2020-06-02T06:51:48Z</time>
      </trkpt>
      <trkpt lat="46.19342" lon="-1.42161">
        <ele>2.3</ele>
        <time>2020-06-02T06:51:49Z</time>
      </trkpt>
      <trkpt lat="46.19343" lon="-1.42158">
        <ele>2.3</ele>
        <time>2020-06-02T06:51:50Z</time>
      </trkpt>
      <trkpt lat="46.19343" lon="-1.42151">
        <ele>2.2</ele>
        <time>2020-06-02T06:51:51Z</time>
      </trkpt>
      <trkpt lat="46.19343" lon="-1.42144">
        <ele>2.2</ele>
        <time>2020-06-02T06:51:52Z</time>
      </trkpt>
      <trkpt lat="46.19344" lon="-1.42137">
        <ele>2.2</ele>
        <time>2020-06-02T06:51:53Z</time>
      </trkpt>
      <trkpt lat="46.19344" lon="-1.4213">
        <ele>2.1</ele>
        <time>2020-06-02T06:51:54Z</time>
      </trkpt>
      <trkpt lat="46.19344" lon="-1.42123">
        <ele>2.1</ele>
        <time>2020-06-02T06:51:55Z</time>
      </trkpt>
      <trkpt lat="46.19345" lon="-1.42116">
        <ele>2.1</ele>
        <time>2020-06-02T06:51:56Z</time>
      </trkpt>
      <trkpt lat="46.19346" lon="-1.42108">
        <ele>2.1</ele>
        <time>2020-06-02T06:51:57Z</time>
      </trkpt>
      <trkpt lat="46.19347" lon="-1.42101">
        <ele>2.1</ele>
        <time>2020-06-02T06:51:58Z</time>
      </trkpt>
      <trkpt lat="46.19347" lon="-1.42094">
        <ele>2.1</ele>
        <time>2020-06-02T06:51:59Z</time>
      </trkpt>
      <trkpt lat="46.19348" lon="-1.42088">
        <ele>2.1</ele>
        <time>2020-06-02T06:52:00Z</time>
      </trkpt>
      <trkpt lat="46.19349" lon="-1.42081">
        <ele>2.1</ele>
        <time>2020-06-02T06:52:01Z</time>
      </trkpt>
      <trkpt lat="46.19349" lon="-1.42075">
        <ele>2.1</ele>
        <time>2020-06-02T06:52:02Z</time>
      </trkpt>
      <trkpt lat="46.19351" lon="-1.4207">
        <ele>2.1</ele>
        <time>2020-06-02T06:52:03Z</time>
      </trkpt>
      <trkpt lat="46.19351" lon="-1.42063">
        <ele>2.1</ele>
        <time>2020-06-02T06:52:04Z</time>
      </trkpt>
      <trkpt lat="46.19352" lon="-1.42057">
        <ele>2.1</ele>
        <time>2020-06-02T06:52:05Z</time>
      </trkpt>
      <trkpt lat="46.19352" lon="-1.42049">
        <ele>2.1</ele>
        <time>2020-06-02T06:52:06Z</time>
      </trkpt>
      <trkpt lat="46.19353" lon="-1.42041">
        <ele>2.1</ele>
        <time>2020-06-02T06:52:07Z</time>
      </trkpt>
      <trkpt lat="46.19354" lon="-1.42035">
        <ele>2.1</ele>
        <time>2020-06-02T06:52:08Z</time>
      </trkpt>
      <trkpt lat="46.19355" lon="-1.42028">
        <ele>2.2</ele>
        <time>2020-06-02T06:52:09Z</time>
      </trkpt>
      <trkpt lat="46.19355" lon="-1.4202">
        <ele>2.2</ele>
        <time>2020-06-02T06:52:10Z</time>
      </trkpt>
      <trkpt lat="46.19355" lon="-1.42013">
        <ele>2.3</ele>
        <time>2020-06-02T06:52:11Z</time>
      </trkpt>
      <trkpt lat="46.19353" lon="-1.42005">
        <ele>2.3</ele>
        <time>2020-06-02T06:52:12Z</time>
      </trkpt>
      <trkpt lat="46.19351" lon="-1.41998">
        <ele>2.4</ele>
        <time>2020-06-02T06:52:13Z</time>
      </trkpt>
      <trkpt lat="46.19352" lon="-1.41991">
        <ele>2.5</ele>
        <time>2020-06-02T06:52:14Z</time>
      </trkpt>
      <trkpt lat="46.19353" lon="-1.41985">
        <ele>2.6</ele>
        <time>2020-06-02T06:52:15Z</time>
      </trkpt>
      <trkpt lat="46.19354" lon="-1.41979">
        <ele>2.7</ele>
        <time>2020-06-02T06:52:16Z</time>
      </trkpt>
      <trkpt lat="46.19356" lon="-1.41972">
        <ele>2.8</ele>
        <time>2020-06-02T06:52:17Z</time>
      </trkpt>
      <trkpt lat="46.19358" lon="-1.41966">
        <ele>2.8</ele>
        <time>2020-06-02T06:52:18Z</time>
      </trkpt>
      <trkpt lat="46.1936" lon="-1.41961">
        <ele>2.9</ele>
        <time>2020-06-02T06:52:19Z</time>
      </trkpt>
      <trkpt lat="46.19363" lon="-1.41956">
        <ele>2.9</ele>
        <time>2020-06-02T06:52:20Z</time>
      </trkpt>
      <trkpt lat="46.19365" lon="-1.41951">
        <ele>2.9</ele>
        <time>2020-06-02T06:52:21Z</time>
      </trkpt>
      <trkpt lat="46.19367" lon="-1.41947">
        <ele>2.9</ele>
        <time>2020-06-02T06:52:22Z</time>
      </trkpt>
      <trkpt lat="46.19369" lon="-1.41943">
        <ele>2.9</ele>
        <time>2020-06-02T06:52:23Z</time>
      </trkpt>
      <trkpt lat="46.1937" lon="-1.41939">
        <ele>2.9</ele>
        <time>2020-06-02T06:52:24Z</time>
      </trkpt>
      <trkpt lat="46.19372" lon="-1.41934">
        <ele>2.9</ele>
        <time>2020-06-02T06:52:25Z</time>
      </trkpt>
      <trkpt lat="46.19375" lon="-1.4193">
        <ele>2.9</ele>
        <time>2020-06-02T06:52:26Z</time>
      </trkpt>
      <trkpt lat="46.19378" lon="-1.41925">
        <ele>2.8</ele>
        <time>2020-06-02T06:52:27Z</time>
      </trkpt>
      <trkpt lat="46.1938" lon="-1.4192">
        <ele>2.8</ele>
        <time>2020-06-02T06:52:28Z</time>
      </trkpt>
      <trkpt lat="46.19383" lon="-1.41915">
        <ele>2.8</ele>
        <time>2020-06-02T06:52:29Z</time>
      </trkpt>
      <trkpt lat="46.19385" lon="-1.4191">
        <ele>2.8</ele>
        <time>2020-06-02T06:52:30Z</time>
      </trkpt>
      <trkpt lat="46.19387" lon="-1.41905">
        <ele>2.8</ele>
        <time>2020-06-02T06:52:31Z</time>
      </trkpt>
      <trkpt lat="46.19389" lon="-1.41901">
        <ele>2.8</ele>
        <time>2020-06-02T06:52:32Z</time>
      </trkpt>
      <trkpt lat="46.19393" lon="-1.41896">
        <ele>2.8</ele>
        <time>2020-06-02T06:52:33Z</time>
      </trkpt>
      <trkpt lat="46.19394" lon="-1.41892">
        <ele>2.8</ele>
        <time>2020-06-02T06:52:34Z</time>
      </trkpt>
      <trkpt lat="46.19396" lon="-1.41887">
        <ele>2.7</ele>
        <time>2020-06-02T06:52:35Z</time>
      </trkpt>
      <trkpt lat="46.19399" lon="-1.41881">
        <ele>2.7</ele>
        <time>2020-06-02T06:52:36Z</time>
      </trkpt>
      <trkpt lat="46.19402" lon="-1.41874">
        <ele>2.7</ele>
        <time>2020-06-02T06:52:37Z</time>
      </trkpt>
      <trkpt lat="46.19405" lon="-1.41868">
        <ele>2.7</ele>
        <time>2020-06-02T06:52:38Z</time>
      </trkpt>
      <trkpt lat="46.19408" lon="-1.41862">
        <ele>2.6</ele>
        <time>2020-06-02T06:52:39Z</time>
      </trkpt>
      <trkpt lat="46.1941" lon="-1.41855">
        <ele>2.6</ele>
        <time>2020-06-02T06:52:40Z</time>
      </trkpt>
      <trkpt lat="46.19412" lon="-1.41848">
        <ele>2.6</ele>
        <time>2020-06-02T06:52:41Z</time>
      </trkpt>
      <trkpt lat="46.19414" lon="-1.41841">
        <ele>2.6</ele>
        <time>2020-06-02T06:52:42Z</time>
      </trkpt>
      <trkpt lat="46.19416" lon="-1.41833">
        <ele>2.6</ele>
        <time>2020-06-02T06:52:43Z</time>
      </trkpt>
      <trkpt lat="46.19417" lon="-1.41826">
        <ele>2.5</ele>
        <time>2020-06-02T06:52:44Z</time>
      </trkpt>
      <trkpt lat="46.19419" lon="-1.41818">
        <ele>2.5</ele>
        <time>2020-06-02T06:52:45Z</time>
      </trkpt>
      <trkpt lat="46.19418" lon="-1.4181">
        <ele>2.5</ele>
        <time>2020-06-02T06:52:46Z</time>
      </trkpt>
      <trkpt lat="46.19417" lon="-1.41803">
        <ele>2.5</ele>
        <time>2020-06-02T06:52:47Z</time>
      </trkpt>
      <trkpt lat="46.19417" lon="-1.41795">
        <ele>2.4</ele>
        <time>2020-06-02T06:52:48Z</time>
      </trkpt>
      <trkpt lat="46.19417" lon="-1.41787">
        <ele>2.4</ele>
        <time>2020-06-02T06:52:49Z</time>
      </trkpt>
      <trkpt lat="46.19417" lon="-1.41779">
        <ele>2.4</ele>
        <time>2020-06-02T06:52:50Z</time>
      </trkpt>
      <trkpt lat="46.19416" lon="-1.41772">
        <ele>2.4</ele>
        <time>2020-06-02T06:52:51Z</time>
      </trkpt>
      <trkpt lat="46.19416" lon="-1.41764">
        <ele>2.4</ele>
        <time>2020-06-02T06:52:52Z</time>
      </trkpt>
      <trkpt lat="46.19415" lon="-1.41757">
        <ele>2.3</ele>
        <time>2020-06-02T06:52:53Z</time>
      </trkpt>
      <trkpt lat="46.19414" lon="-1.41751">
        <ele>2.3</ele>
        <time>2020-06-02T06:52:54Z</time>
      </trkpt>
      <trkpt lat="46.19413" lon="-1.41745">
        <ele>2.3</ele>
        <time>2020-06-02T06:52:55Z</time>
      </trkpt>
      <trkpt lat="46.19411" lon="-1.41739">
        <ele>2.3</ele>
        <time>2020-06-02T06:52:56Z</time>
      </trkpt>
      <trkpt lat="46.19409" lon="-1.41734">
        <ele>2.3</ele>
        <time>2020-06-02T06:52:57Z</time>
      </trkpt>
      <trkpt lat="46.19407" lon="-1.41729">
        <ele>2.3</ele>
        <time>2020-06-02T06:52:58Z</time>
      </trkpt>
      <trkpt lat="46.19406" lon="-1.41722">
        <ele>2.2</ele>
        <time>2020-06-02T06:52:59Z</time>
      </trkpt>
      <trkpt lat="46.19404" lon="-1.41715">
        <ele>2.2</ele>
        <time>2020-06-02T06:53:00Z</time>
      </trkpt>
      <trkpt lat="46.19402" lon="-1.41708">
        <ele>2.2</ele>
        <time>2020-06-02T06:53:01Z</time>
      </trkpt>
      <trkpt lat="46.194" lon="-1.41701">
        <ele>2.2</ele>
        <time>2020-06-02T06:53:02Z</time>
      </trkpt>
      <trkpt lat="46.19398" lon="-1.41695">
        <ele>2.2</ele>
        <time>2020-06-02T06:53:03Z</time>
      </trkpt>
      <trkpt lat="46.19395" lon="-1.41689">
        <ele>2.1</ele>
        <time>2020-06-02T06:53:04Z</time>
      </trkpt>
      <trkpt lat="46.19393" lon="-1.41683">
        <ele>2.1</ele>
        <time>2020-06-02T06:53:05Z</time>
      </trkpt>
      <trkpt lat="46.19389" lon="-1.41676">
        <ele>2.1</ele>
        <time>2020-06-02T06:53:06Z</time>
      </trkpt>
      <trkpt lat="46.19386" lon="-1.4167">
        <ele>2.1</ele>
        <time>2020-06-02T06:53:07Z</time>
      </trkpt>
      <trkpt lat="46.19384" lon="-1.41663">
        <ele>2</ele>
        <time>2020-06-02T06:53:08Z</time>
      </trkpt>
      <trkpt lat="46.19381" lon="-1.41657">
        <ele>2</ele>
        <time>2020-06-02T06:53:09Z</time>
      </trkpt>
      <trkpt lat="46.19379" lon="-1.41652">
        <ele>2</ele>
        <time>2020-06-02T06:53:10Z</time>
      </trkpt>
      <trkpt lat="46.19376" lon="-1.41645">
        <ele>2</ele>
        <time>2020-06-02T06:53:11Z</time>
      </trkpt>
      <trkpt lat="46.19374" lon="-1.41639">
        <ele>1.9</ele>
        <time>2020-06-02T06:53:12Z</time>
      </trkpt>
      <trkpt lat="46.19371" lon="-1.41631">
        <ele>1.9</ele>
        <time>2020-06-02T06:53:13Z</time>
      </trkpt>
      <trkpt lat="46.1937" lon="-1.41624">
        <ele>1.9</ele>
        <time>2020-06-02T06:53:14Z</time>
      </trkpt>
      <trkpt lat="46.19369" lon="-1.41616">
        <ele>1.8</ele>
        <time>2020-06-02T06:53:15Z</time>
      </trkpt>
      <trkpt lat="46.19368" lon="-1.41607">
        <ele>1.8</ele>
        <time>2020-06-02T06:53:16Z</time>
      </trkpt>
      <trkpt lat="46.19367" lon="-1.41599">
        <ele>1.8</ele>
        <time>2020-06-02T06:53:17Z</time>
      </trkpt>
      <trkpt lat="46.19366" lon="-1.41591">
        <ele>1.8</ele>
        <time>2020-06-02T06:53:18Z</time>
      </trkpt>
      <trkpt lat="46.19365" lon="-1.41583">
        <ele>1.7</ele>
        <time>2020-06-02T06:53:19Z</time>
      </trkpt>
      <trkpt lat="46.19364" lon="-1.41577">
        <ele>1.7</ele>
        <time>2020-06-02T06:53:20Z</time>
      </trkpt>
      <trkpt lat="46.19363" lon="-1.4157">
        <ele>1.7</ele>
        <time>2020-06-02T06:53:21Z</time>
      </trkpt>
      <trkpt lat="46.19362" lon="-1.41562">
        <ele>1.7</ele>
        <time>2020-06-02T06:53:22Z</time>
      </trkpt>
      <trkpt lat="46.19362" lon="-1.41555">
        <ele>1.6</ele>
        <time>2020-06-02T06:53:23Z</time>
      </trkpt>
      <trkpt lat="46.19361" lon="-1.41548">
        <ele>1.6</ele>
        <time>2020-06-02T06:53:24Z</time>
      </trkpt>
      <trkpt lat="46.19361" lon="-1.4154">
        <ele>1.6</ele>
        <time>2020-06-02T06:53:25Z</time>
      </trkpt>
      <trkpt lat="46.19361" lon="-1.41533">
        <ele>1.5</ele>
        <time>2020-06-02T06:53:26Z</time>
      </trkpt>
      <trkpt lat="46.1936" lon="-1.41525">
        <ele>1.5</ele>
        <time>2020-06-02T06:53:27Z</time>
      </trkpt>
      <trkpt lat="46.1936" lon="-1.41518">
        <ele>1.5</ele>
        <time>2020-06-02T06:53:28Z</time>
      </trkpt>
      <trkpt lat="46.19359" lon="-1.4151">
        <ele>1.4</ele>
        <time>2020-06-02T06:53:29Z</time>
      </trkpt>
      <trkpt lat="46.19359" lon="-1.41502">
        <ele>1.4</ele>
        <time>2020-06-02T06:53:30Z</time>
      </trkpt>
      <trkpt lat="46.19358" lon="-1.41494">
        <ele>1.3</ele>
        <time>2020-06-02T06:53:31Z</time>
      </trkpt>
      <trkpt lat="46.19356" lon="-1.41486">
        <ele>1.3</ele>
        <time>2020-06-02T06:53:32Z</time>
      </trkpt>
      <trkpt lat="46.19355" lon="-1.41478">
        <ele>1.3</ele>
        <time>2020-06-02T06:53:33Z</time>
      </trkpt>
      <trkpt lat="46.19352" lon="-1.41471">
        <ele>1.2</ele>
        <time>2020-06-02T06:53:34Z</time>
      </trkpt>
      <trkpt lat="46.1935" lon="-1.41463">
        <ele>1.2</ele>
        <time>2020-06-02T06:53:35Z</time>
      </trkpt>
      <trkpt lat="46.19348" lon="-1.41456">
        <ele>1.2</ele>
        <time>2020-06-02T06:53:36Z</time>
      </trkpt>
      <trkpt lat="46.19347" lon="-1.41448">
        <ele>1.1</ele>
        <time>2020-06-02T06:53:37Z</time>
      </trkpt>
      <trkpt lat="46.19345" lon="-1.4144">
        <ele>1.1</ele>
        <time>2020-06-02T06:53:38Z</time>
      </trkpt>
      <trkpt lat="46.19343" lon="-1.41433">
        <ele>1.1</ele>
        <time>2020-06-02T06:53:39Z</time>
      </trkpt>
      <trkpt lat="46.19341" lon="-1.41426">
        <ele>1.1</ele>
        <time>2020-06-02T06:53:40Z</time>
      </trkpt>
      <trkpt lat="46.19341" lon="-1.41419">
        <ele>1.1</ele>
        <time>2020-06-02T06:53:41Z</time>
      </trkpt>
      <trkpt lat="46.19339" lon="-1.41412">
        <ele>1</ele>
        <time>2020-06-02T06:53:42Z</time>
      </trkpt>
      <trkpt lat="46.19338" lon="-1.41404">
        <ele>1</ele>
        <time>2020-06-02T06:53:43Z</time>
      </trkpt>
      <trkpt lat="46.19337" lon="-1.41396">
        <ele>1</ele>
        <time>2020-06-02T06:53:44Z</time>
      </trkpt>
      <trkpt lat="46.19336" lon="-1.41388">
        <ele>1</ele>
        <time>2020-06-02T06:53:45Z</time>
      </trkpt>
      <trkpt lat="46.19336" lon="-1.4138">
        <ele>0.9</ele>
        <time>2020-06-02T06:53:46Z</time>
      </trkpt>
      <trkpt lat="46.19336" lon="-1.41371">
        <ele>0.9</ele>
        <time>2020-06-02T06:53:47Z</time>
      </trkpt>
      <trkpt lat="46.19337" lon="-1.41363">
        <ele>0.9</ele>
        <time>2020-06-02T06:53:48Z</time>
      </trkpt>
      <trkpt lat="46.1934" lon="-1.41357">
        <ele>0.9</ele>
        <time>2020-06-02T06:53:49Z</time>
      </trkpt>
      <trkpt lat="46.19341" lon="-1.41349">
        <ele>0.9</ele>
        <time>2020-06-02T06:53:50Z</time>
      </trkpt>
      <trkpt lat="46.19342" lon="-1.41343">
        <ele>0.9</ele>
        <time>2020-06-02T06:53:51Z</time>
      </trkpt>
      <trkpt lat="46.19345" lon="-1.41336">
        <ele>0.9</ele>
        <time>2020-06-02T06:53:52Z</time>
      </trkpt>
      <trkpt lat="46.19348" lon="-1.4133">
        <ele>0.8</ele>
        <time>2020-06-02T06:53:53Z</time>
      </trkpt>
      <trkpt lat="46.1935" lon="-1.41324">
        <ele>0.8</ele>
        <time>2020-06-02T06:53:54Z</time>
      </trkpt>
      <trkpt lat="46.19353" lon="-1.41319">
        <ele>0.8</ele>
        <time>2020-06-02T06:53:55Z</time>
      </trkpt>
      <trkpt lat="46.19356" lon="-1.41313">
        <ele>0.8</ele>
        <time>2020-06-02T06:53:56Z</time>
      </trkpt>
      <trkpt lat="46.19359" lon="-1.41307">
        <ele>0.8</ele>
        <time>2020-06-02T06:53:57Z</time>
      </trkpt>
      <trkpt lat="46.19362" lon="-1.41301">
        <ele>0.8</ele>
        <time>2020-06-02T06:53:58Z</time>
      </trkpt>
      <trkpt lat="46.19365" lon="-1.41295">
        <ele>0.8</ele>
        <time>2020-06-02T06:53:59Z</time>
      </trkpt>
      <trkpt lat="46.19368" lon="-1.41289">
        <ele>0.8</ele>
        <time>2020-06-02T06:54:00Z</time>
      </trkpt>
      <trkpt lat="46.1937" lon="-1.41282">
        <ele>0.8</ele>
        <time>2020-06-02T06:54:01Z</time>
      </trkpt>
      <trkpt lat="46.19373" lon="-1.41277">
        <ele>0.8</ele>
        <time>2020-06-02T06:54:02Z</time>
      </trkpt>
      <trkpt lat="46.19375" lon="-1.4127">
        <ele>0.8</ele>
        <time>2020-06-02T06:54:03Z</time>
      </trkpt>
      <trkpt lat="46.19377" lon="-1.41263">
        <ele>0.8</ele>
        <time>2020-06-02T06:54:04Z</time>
      </trkpt>
      <trkpt lat="46.19378" lon="-1.41256">
        <ele>0.8</ele>
        <time>2020-06-02T06:54:05Z</time>
      </trkpt>
      <trkpt lat="46.1938" lon="-1.41249">
        <ele>0.8</ele>
        <time>2020-06-02T06:54:06Z</time>
      </trkpt>
      <trkpt lat="46.19381" lon="-1.41242">
        <ele>0.8</ele>
        <time>2020-06-02T06:54:07Z</time>
      </trkpt>
      <trkpt lat="46.19382" lon="-1.41234">
        <ele>0.8</ele>
        <time>2020-06-02T06:54:08Z</time>
      </trkpt>
      <trkpt lat="46.19383" lon="-1.41227">
        <ele>0.8</ele>
        <time>2020-06-02T06:54:09Z</time>
      </trkpt>
      <trkpt lat="46.19383" lon="-1.4122">
        <ele>0.8</ele>
        <time>2020-06-02T06:54:10Z</time>
      </trkpt>
      <trkpt lat="46.19383" lon="-1.41213">
        <ele>0.7</ele>
        <time>2020-06-02T06:54:11Z</time>
      </trkpt>
      <trkpt lat="46.19384" lon="-1.41207">
        <ele>0.7</ele>
        <time>2020-06-02T06:54:12Z</time>
      </trkpt>
      <trkpt lat="46.19385" lon="-1.412">
        <ele>0.7</ele>
        <time>2020-06-02T06:54:13Z</time>
      </trkpt>
      <trkpt lat="46.19385" lon="-1.41193">
        <ele>0.7</ele>
        <time>2020-06-02T06:54:14Z</time>
      </trkpt>
      <trkpt lat="46.19386" lon="-1.41187">
        <ele>0.7</ele>
        <time>2020-06-02T06:54:15Z</time>
      </trkpt>
      <trkpt lat="46.19386" lon="-1.4118">
        <ele>0.7</ele>
        <time>2020-06-02T06:54:16Z</time>
      </trkpt>
      <trkpt lat="46.19387" lon="-1.41173">
        <ele>0.7</ele>
        <time>2020-06-02T06:54:17Z</time>
      </trkpt>
      <trkpt lat="46.19388" lon="-1.41166">
        <ele>0.7</ele>
        <time>2020-06-02T06:54:18Z</time>
      </trkpt>
      <trkpt lat="46.19389" lon="-1.4116">
        <ele>0.7</ele>
        <time>2020-06-02T06:54:19Z</time>
      </trkpt>
      <trkpt lat="46.1939" lon="-1.41153">
        <ele>0.7</ele>
        <time>2020-06-02T06:54:20Z</time>
      </trkpt>
      <trkpt lat="46.19392" lon="-1.41147">
        <ele>0.7</ele>
        <time>2020-06-02T06:54:21Z</time>
      </trkpt>
      <trkpt lat="46.19394" lon="-1.41141">
        <ele>0.7</ele>
        <time>2020-06-02T06:54:22Z</time>
      </trkpt>
      <trkpt lat="46.19395" lon="-1.41135">
        <ele>0.7</ele>
        <time>2020-06-02T06:54:23Z</time>
      </trkpt>
      <trkpt lat="46.19397" lon="-1.41128">
        <ele>0.7</ele>
        <time>2020-06-02T06:54:24Z</time>
      </trkpt>
      <trkpt lat="46.19398" lon="-1.41122">
        <ele>0.7</ele>
        <time>2020-06-02T06:54:25Z</time>
      </trkpt>
      <trkpt lat="46.19401" lon="-1.41115">
        <ele>0.7</ele>
        <time>2020-06-02T06:54:26Z</time>
      </trkpt>
      <trkpt lat="46.19403" lon="-1.41108">
        <ele>0.7</ele>
        <time>2020-06-02T06:54:27Z</time>
      </trkpt>
      <trkpt lat="46.19404" lon="-1.41101">
        <ele>0.7</ele>
        <time>2020-06-02T06:54:28Z</time>
      </trkpt>
      <trkpt lat="46.19406" lon="-1.41094">
        <ele>0.7</ele>
        <time>2020-06-02T06:54:29Z</time>
      </trkpt>
      <trkpt lat="46.19408" lon="-1.41087">
        <ele>0.7</ele>
        <time>2020-06-02T06:54:30Z</time>
      </trkpt>
      <trkpt lat="46.19409" lon="-1.4108">
        <ele>0.7</ele>
        <time>2020-06-02T06:54:31Z</time>
      </trkpt>
      <trkpt lat="46.19409" lon="-1.41073">
        <ele>0.7</ele>
        <time>2020-06-02T06:54:32Z</time>
      </trkpt>
      <trkpt lat="46.19412" lon="-1.41066">
        <ele>0.7</ele>
        <time>2020-06-02T06:54:33Z</time>
      </trkpt>
      <trkpt lat="46.19413" lon="-1.41059">
        <ele>0.7</ele>
        <time>2020-06-02T06:54:34Z</time>
      </trkpt>
      <trkpt lat="46.19415" lon="-1.41053">
        <ele>0.7</ele>
        <time>2020-06-02T06:54:35Z</time>
      </trkpt>
      <trkpt lat="46.19416" lon="-1.41047">
        <ele>0.7</ele>
        <time>2020-06-02T06:54:36Z</time>
      </trkpt>
      <trkpt lat="46.19416" lon="-1.41041">
        <ele>0.7</ele>
        <time>2020-06-02T06:54:37Z</time>
      </trkpt>
      <trkpt lat="46.19415" lon="-1.41036">
        <ele>0.7</ele>
        <time>2020-06-02T06:54:38Z</time>
      </trkpt>
      <trkpt lat="46.19413" lon="-1.41032">
        <ele>0.7</ele>
        <time>2020-06-02T06:54:39Z</time>
      </trkpt>
      <trkpt lat="46.19411" lon="-1.41026">
        <ele>0.7</ele>
        <time>2020-06-02T06:54:40Z</time>
      </trkpt>
      <trkpt lat="46.19409" lon="-1.41019">
        <ele>0.7</ele>
        <time>2020-06-02T06:54:41Z</time>
      </trkpt>
      <trkpt lat="46.19407" lon="-1.41012">
        <ele>0.7</ele>
        <time>2020-06-02T06:54:42Z</time>
      </trkpt>
      <trkpt lat="46.19405" lon="-1.41004">
        <ele>0.7</ele>
        <time>2020-06-02T06:54:43Z</time>
      </trkpt>
      <trkpt lat="46.19403" lon="-1.40996">
        <ele>0.7</ele>
        <time>2020-06-02T06:54:44Z</time>
      </trkpt>
      <trkpt lat="46.194" lon="-1.40988">
        <ele>0.7</ele>
        <time>2020-06-02T06:54:45Z</time>
      </trkpt>
      <trkpt lat="46.19399" lon="-1.40979">
        <ele>0.7</ele>
        <time>2020-06-02T06:54:46Z</time>
      </trkpt>
      <trkpt lat="46.19397" lon="-1.40971">
        <ele>0.7</ele>
        <time>2020-06-02T06:54:47Z</time>
      </trkpt>
      <trkpt lat="46.19394" lon="-1.40964">
        <ele>0.8</ele>
        <time>2020-06-02T06:54:48Z</time>
      </trkpt>
      <trkpt lat="46.19393" lon="-1.40957">
        <ele>0.8</ele>
        <time>2020-06-02T06:54:49Z</time>
      </trkpt>
      <trkpt lat="46.19391" lon="-1.40951">
        <ele>0.8</ele>
        <time>2020-06-02T06:54:50Z</time>
      </trkpt>
      <trkpt lat="46.19389" lon="-1.40944">
        <ele>0.8</ele>
        <time>2020-06-02T06:54:51Z</time>
      </trkpt>
      <trkpt lat="46.19388" lon="-1.40938">
        <ele>0.8</ele>
        <time>2020-06-02T06:54:52Z</time>
      </trkpt>
      <trkpt lat="46.19386" lon="-1.40931">
        <ele>0.8</ele>
        <time>2020-06-02T06:54:53Z</time>
      </trkpt>
      <trkpt lat="46.19385" lon="-1.40924">
        <ele>0.8</ele>
        <time>2020-06-02T06:54:54Z</time>
      </trkpt>
      <trkpt lat="46.19384" lon="-1.40918">
        <ele>0.8</ele>
        <time>2020-06-02T06:54:55Z</time>
      </trkpt>
      <trkpt lat="46.19383" lon="-1.40912">
        <ele>0.8</ele>
        <time>2020-06-02T06:54:56Z</time>
      </trkpt>
      <trkpt lat="46.19381" lon="-1.40905">
        <ele>0.8</ele>
        <time>2020-06-02T06:54:57Z</time>
      </trkpt>
      <trkpt lat="46.19379" lon="-1.40898">
        <ele>0.8</ele>
        <time>2020-06-02T06:54:58Z</time>
      </trkpt>
      <trkpt lat="46.19378" lon="-1.4089">
        <ele>0.8</ele>
        <time>2020-06-02T06:54:59Z</time>
      </trkpt>
      <trkpt lat="46.19376" lon="-1.40883">
        <ele>0.8</ele>
        <time>2020-06-02T06:55:00Z</time>
      </trkpt>
      <trkpt lat="46.19374" lon="-1.40876">
        <ele>0.8</ele>
        <time>2020-06-02T06:55:01Z</time>
      </trkpt>
      <trkpt lat="46.19373" lon="-1.40871">
        <ele>0.8</ele>
        <time>2020-06-02T06:55:02Z</time>
      </trkpt>
      <trkpt lat="46.19371" lon="-1.40865">
        <ele>0.8</ele>
        <time>2020-06-02T06:55:03Z</time>
      </trkpt>
      <trkpt lat="46.1937" lon="-1.40859">
        <ele>0.9</ele>
        <time>2020-06-02T06:55:04Z</time>
      </trkpt>
      <trkpt lat="46.19369" lon="-1.40851">
        <ele>0.9</ele>
        <time>2020-06-02T06:55:05Z</time>
      </trkpt>
      <trkpt lat="46.19367" lon="-1.40844">
        <ele>0.9</ele>
        <time>2020-06-02T06:55:06Z</time>
      </trkpt>
      <trkpt lat="46.19366" lon="-1.40836">
        <ele>0.9</ele>
        <time>2020-06-02T06:55:07Z</time>
      </trkpt>
      <trkpt lat="46.19364" lon="-1.4083">
        <ele>0.9</ele>
        <time>2020-06-02T06:55:08Z</time>
      </trkpt>
      <trkpt lat="46.19363" lon="-1.40823">
        <ele>0.9</ele>
        <time>2020-06-02T06:55:09Z</time>
      </trkpt>
      <trkpt lat="46.19362" lon="-1.40816">
        <ele>0.9</ele>
        <time>2020-06-02T06:55:10Z</time>
      </trkpt>
      <trkpt lat="46.1936" lon="-1.4081">
        <ele>0.9</ele>
        <time>2020-06-02T06:55:11Z</time>
      </trkpt>
      <trkpt lat="46.19359" lon="-1.40804">
        <ele>0.9</ele>
        <time>2020-06-02T06:55:12Z</time>
      </trkpt>
      <trkpt lat="46.19357" lon="-1.40797">
        <ele>0.9</ele>
        <time>2020-06-02T06:55:13Z</time>
      </trkpt>
      <trkpt lat="46.19355" lon="-1.40791">
        <ele>0.9</ele>
        <time>2020-06-02T06:55:14Z</time>
      </trkpt>
      <trkpt lat="46.19354" lon="-1.40784">
        <ele>0.9</ele>
        <time>2020-06-02T06:55:15Z</time>
      </trkpt>
      <trkpt lat="46.19353" lon="-1.40776">
        <ele>1</ele>
        <time>2020-06-02T06:55:16Z</time>
      </trkpt>
      <trkpt lat="46.19351" lon="-1.40769">
        <ele>1</ele>
        <time>2020-06-02T06:55:17Z</time>
      </trkpt>
      <trkpt lat="46.19349" lon="-1.40762">
        <ele>1</ele>
        <time>2020-06-02T06:55:18Z</time>
      </trkpt>
      <trkpt lat="46.19347" lon="-1.40755">
        <ele>1</ele>
        <time>2020-06-02T06:55:19Z</time>
      </trkpt>
      <trkpt lat="46.19346" lon="-1.40747">
        <ele>1</ele>
        <time>2020-06-02T06:55:20Z</time>
      </trkpt>
      <trkpt lat="46.19343" lon="-1.40741">
        <ele>1.1</ele>
        <time>2020-06-02T06:55:21Z</time>
      </trkpt>
      <trkpt lat="46.19342" lon="-1.40733">
        <ele>1.1</ele>
        <time>2020-06-02T06:55:22Z</time>
      </trkpt>
      <trkpt lat="46.1934" lon="-1.40725">
        <ele>1.2</ele>
        <time>2020-06-02T06:55:23Z</time>
      </trkpt>
      <trkpt lat="46.19338" lon="-1.40717">
        <ele>1.2</ele>
        <time>2020-06-02T06:55:24Z</time>
      </trkpt>
      <trkpt lat="46.19336" lon="-1.40711">
        <ele>1.3</ele>
        <time>2020-06-02T06:55:25Z</time>
      </trkpt>
      <trkpt lat="46.19335" lon="-1.40703">
        <ele>1.3</ele>
        <time>2020-06-02T06:55:26Z</time>
      </trkpt>
      <trkpt lat="46.19333" lon="-1.40697">
        <ele>1.4</ele>
        <time>2020-06-02T06:55:27Z</time>
      </trkpt>
      <trkpt lat="46.19331" lon="-1.40689">
        <ele>1.4</ele>
        <time>2020-06-02T06:55:28Z</time>
      </trkpt>
      <trkpt lat="46.19328" lon="-1.40682">
        <ele>1.5</ele>
        <time>2020-06-02T06:55:29Z</time>
      </trkpt>
      <trkpt lat="46.19327" lon="-1.40676">
        <ele>1.5</ele>
        <time>2020-06-02T06:55:30Z</time>
      </trkpt>
      <trkpt lat="46.19324" lon="-1.40668">
        <ele>1.6</ele>
        <time>2020-06-02T06:55:31Z</time>
      </trkpt>
      <trkpt lat="46.19322" lon="-1.40662">
        <ele>1.6</ele>
        <time>2020-06-02T06:55:32Z</time>
      </trkpt>
      <trkpt lat="46.1932" lon="-1.40655">
        <ele>1.7</ele>
        <time>2020-06-02T06:55:33Z</time>
      </trkpt>
      <trkpt lat="46.19319" lon="-1.40649">
        <ele>1.7</ele>
        <time>2020-06-02T06:55:34Z</time>
      </trkpt>
      <trkpt lat="46.19316" lon="-1.40641">
        <ele>1.8</ele>
        <time>2020-06-02T06:55:35Z</time>
      </trkpt>
      <trkpt lat="46.19314" lon="-1.40635">
        <ele>1.8</ele>
        <time>2020-06-02T06:55:36Z</time>
      </trkpt>
      <trkpt lat="46.19312" lon="-1.40628">
        <ele>1.8</ele>
        <time>2020-06-02T06:55:37Z</time>
      </trkpt>
      <trkpt lat="46.19312" lon="-1.40621">
        <ele>1.8</ele>
        <time>2020-06-02T06:55:38Z</time>
      </trkpt>
      <trkpt lat="46.19311" lon="-1.40613">
        <ele>1.8</ele>
        <time>2020-06-02T06:55:39Z</time>
      </trkpt>
      <trkpt lat="46.19309" lon="-1.40606">
        <ele>1.8</ele>
        <time>2020-06-02T06:55:40Z</time>
      </trkpt>
      <trkpt lat="46.19308" lon="-1.40599">
        <ele>1.9</ele>
        <time>2020-06-02T06:55:41Z</time>
      </trkpt>
      <trkpt lat="46.19306" lon="-1.40593">
        <ele>1.9</ele>
        <time>2020-06-02T06:55:42Z</time>
      </trkpt>
      <trkpt lat="46.19305" lon="-1.40586">
        <ele>1.9</ele>
        <time>2020-06-02T06:55:43Z</time>
      </trkpt>
      <trkpt lat="46.19302" lon="-1.40578">
        <ele>2</ele>
        <time>2020-06-02T06:55:44Z</time>
      </trkpt>
      <trkpt lat="46.19301" lon="-1.40572">
        <ele>2.1</ele>
        <time>2020-06-02T06:55:45Z</time>
      </trkpt>
      <trkpt lat="46.19299" lon="-1.40566">
        <ele>2.1</ele>
        <time>2020-06-02T06:55:46Z</time>
      </trkpt>
      <trkpt lat="46.19297" lon="-1.40559">
        <ele>2.2</ele>
        <time>2020-06-02T06:55:47Z</time>
      </trkpt>
      <trkpt lat="46.19296" lon="-1.40552">
        <ele>2.3</ele>
        <time>2020-06-02T06:55:48Z</time>
      </trkpt>
      <trkpt lat="46.19295" lon="-1.40546">
        <ele>2.3</ele>
        <time>2020-06-02T06:55:49Z</time>
      </trkpt>
      <trkpt lat="46.19293" lon="-1.4054">
        <ele>2.4</ele>
        <time>2020-06-02T06:55:50Z</time>
      </trkpt>
      <trkpt lat="46.19291" lon="-1.40533">
        <ele>2.4</ele>
        <time>2020-06-02T06:55:51Z</time>
      </trkpt>
      <trkpt lat="46.19289" lon="-1.40528">
        <ele>2.4</ele>
        <time>2020-06-02T06:55:52Z</time>
      </trkpt>
      <trkpt lat="46.19288" lon="-1.40522">
        <ele>2.4</ele>
        <time>2020-06-02T06:55:53Z</time>
      </trkpt>
      <trkpt lat="46.19287" lon="-1.40516">
        <ele>2.4</ele>
        <time>2020-06-02T06:55:54Z</time>
      </trkpt>
      <trkpt lat="46.19285" lon="-1.4051">
        <ele>2.4</ele>
        <time>2020-06-02T06:55:55Z</time>
      </trkpt>
      <trkpt lat="46.19283" lon="-1.40504">
        <ele>2.4</ele>
        <time>2020-06-02T06:55:56Z</time>
      </trkpt>
      <trkpt lat="46.19282" lon="-1.40497">
        <ele>2.5</ele>
        <time>2020-06-02T06:55:57Z</time>
      </trkpt>
      <trkpt lat="46.1928" lon="-1.4049">
        <ele>2.5</ele>
        <time>2020-06-02T06:55:58Z</time>
      </trkpt>
      <trkpt lat="46.19278" lon="-1.40483">
        <ele>2.5</ele>
        <time>2020-06-02T06:55:59Z</time>
      </trkpt>
      <trkpt lat="46.19277" lon="-1.40478">
        <ele>2.5</ele>
        <time>2020-06-02T06:56:00Z</time>
      </trkpt>
      <trkpt lat="46.19275" lon="-1.4047">
        <ele>2.5</ele>
        <time>2020-06-02T06:56:01Z</time>
      </trkpt>
      <trkpt lat="46.19274" lon="-1.40465">
        <ele>2.5</ele>
        <time>2020-06-02T06:56:02Z</time>
      </trkpt>
      <trkpt lat="46.19273" lon="-1.4046">
        <ele>2.6</ele>
        <time>2020-06-02T06:56:03Z</time>
      </trkpt>
      <trkpt lat="46.19271" lon="-1.40456">
        <ele>2.6</ele>
        <time>2020-06-02T06:56:04Z</time>
      </trkpt>
      <trkpt lat="46.1927" lon="-1.40456">
        <ele>2.6</ele>
        <time>2020-06-02T06:56:05Z</time>
      </trkpt>
      <trkpt lat="46.1927" lon="-1.40454">
        <ele>2.6</ele>
        <time>2020-06-02T06:56:06Z</time>
      </trkpt>
      <trkpt lat="46.1927" lon="-1.40453">
        <ele>2.6</ele>
        <time>2020-06-02T06:56:07Z</time>
      </trkpt>
      <trkpt lat="46.19269" lon="-1.40453">
        <ele>2.6</ele>
        <time>2020-06-02T06:56:08Z</time>
      </trkpt>
      <trkpt lat="46.19269" lon="-1.40452">
        <ele>2.6</ele>
        <time>2020-06-02T06:56:09Z</time>
      </trkpt>
      <trkpt lat="46.19269" lon="-1.40451">
        <ele>2.6</ele>
        <time>2020-06-02T06:56:10Z</time>
      </trkpt>
      <trkpt lat="46.19269" lon="-1.40451">
        <ele>2.6</ele>
        <time>2020-06-02T06:56:11Z</time>
      </trkpt>
      <trkpt lat="46.19269" lon="-1.4045">
        <ele>2.6</ele>
        <time>2020-06-02T06:56:12Z</time>
      </trkpt>
      <trkpt lat="46.19269" lon="-1.40449">
        <ele>2.6</ele>
        <time>2020-06-02T06:56:13Z</time>
      </trkpt>
      <trkpt lat="46.19267" lon="-1.40445">
        <ele>2.6</ele>
        <time>2020-06-02T06:56:14Z</time>
      </trkpt>
      <trkpt lat="46.19266" lon="-1.40441">
        <ele>2.6</ele>
        <time>2020-06-02T06:56:15Z</time>
      </trkpt>
      <trkpt lat="46.19264" lon="-1.40435">
        <ele>2.6</ele>
        <time>2020-06-02T06:56:16Z</time>
      </trkpt>
      <trkpt lat="46.19263" lon="-1.4043">
        <ele>2.6</ele>
        <time>2020-06-02T06:56:17Z</time>
      </trkpt>
      <trkpt lat="46.19261" lon="-1.40424">
        <ele>2.6</ele>
        <time>2020-06-02T06:56:18Z</time>
      </trkpt>
      <trkpt lat="46.19259" lon="-1.40418">
        <ele>2.6</ele>
        <time>2020-06-02T06:56:19Z</time>
      </trkpt>
      <trkpt lat="46.19257" lon="-1.4041">
        <ele>2.5</ele>
        <time>2020-06-02T06:56:20Z</time>
      </trkpt>
      <trkpt lat="46.19255" lon="-1.40402">
        <ele>2.5</ele>
        <time>2020-06-02T06:56:21Z</time>
      </trkpt>
      <trkpt lat="46.19254" lon="-1.40394">
        <ele>2.5</ele>
        <time>2020-06-02T06:56:22Z</time>
      </trkpt>
      <trkpt lat="46.19252" lon="-1.40386">
        <ele>2.5</ele>
        <time>2020-06-02T06:56:23Z</time>
      </trkpt>
      <trkpt lat="46.19251" lon="-1.4038">
        <ele>2.5</ele>
        <time>2020-06-02T06:56:24Z</time>
      </trkpt>
      <trkpt lat="46.1925" lon="-1.40374">
        <ele>2.5</ele>
        <time>2020-06-02T06:56:25Z</time>
      </trkpt>
      <trkpt lat="46.19248" lon="-1.40365">
        <ele>2.5</ele>
        <time>2020-06-02T06:56:26Z</time>
      </trkpt>
      <trkpt lat="46.19246" lon="-1.40358">
        <ele>2.5</ele>
        <time>2020-06-02T06:56:27Z</time>
      </trkpt>
      <trkpt lat="46.19244" lon="-1.40351">
        <ele>2.5</ele>
        <time>2020-06-02T06:56:28Z</time>
      </trkpt>
      <trkpt lat="46.19243" lon="-1.40345">
        <ele>2.5</ele>
        <time>2020-06-02T06:56:29Z</time>
      </trkpt>
      <trkpt lat="46.19241" lon="-1.40338">
        <ele>2.5</ele>
        <time>2020-06-02T06:56:30Z</time>
      </trkpt>
      <trkpt lat="46.1924" lon="-1.40331">
        <ele>2.5</ele>
        <time>2020-06-02T06:56:31Z</time>
      </trkpt>
      <trkpt lat="46.19238" lon="-1.40324">
        <ele>2.4</ele>
        <time>2020-06-02T06:56:32Z</time>
      </trkpt>
      <trkpt lat="46.19236" lon="-1.40317">
        <ele>2.4</ele>
        <time>2020-06-02T06:56:33Z</time>
      </trkpt>
      <trkpt lat="46.19235" lon="-1.40311">
        <ele>2.4</ele>
        <time>2020-06-02T06:56:34Z</time>
      </trkpt>
      <trkpt lat="46.19233" lon="-1.40304">
        <ele>2.4</ele>
        <time>2020-06-02T06:56:35Z</time>
      </trkpt>
      <trkpt lat="46.19231" lon="-1.40298">
        <ele>2.4</ele>
        <time>2020-06-02T06:56:36Z</time>
      </trkpt>
      <trkpt lat="46.1923" lon="-1.40292">
        <ele>2.4</ele>
        <time>2020-06-02T06:56:37Z</time>
      </trkpt>
      <trkpt lat="46.19229" lon="-1.40285">
        <ele>2.4</ele>
        <time>2020-06-02T06:56:38Z</time>
      </trkpt>
      <trkpt lat="46.19227" lon="-1.40279">
        <ele>2.4</ele>
        <time>2020-06-02T06:56:39Z</time>
      </trkpt>
      <trkpt lat="46.19225" lon="-1.40273">
        <ele>2.4</ele>
        <time>2020-06-02T06:56:40Z</time>
      </trkpt>
      <trkpt lat="46.19224" lon="-1.40266">
        <ele>2.4</ele>
        <time>2020-06-02T06:56:41Z</time>
      </trkpt>
      <trkpt lat="46.19222" lon="-1.4026">
        <ele>2.4</ele>
        <time>2020-06-02T06:56:42Z</time>
      </trkpt>
      <trkpt lat="46.19221" lon="-1.40253">
        <ele>2.4</ele>
        <time>2020-06-02T06:56:43Z</time>
      </trkpt>
      <trkpt lat="46.1922" lon="-1.40245">
        <ele>2.4</ele>
        <time>2020-06-02T06:56:44Z</time>
      </trkpt>
      <trkpt lat="46.19218" lon="-1.40238">
        <ele>2.4</ele>
        <time>2020-06-02T06:56:45Z</time>
      </trkpt>
      <trkpt lat="46.19216" lon="-1.40231">
        <ele>2.4</ele>
        <time>2020-06-02T06:56:46Z</time>
      </trkpt>
      <trkpt lat="46.19214" lon="-1.40225">
        <ele>2.4</ele>
        <time>2020-06-02T06:56:47Z</time>
      </trkpt>
      <trkpt lat="46.19212" lon="-1.40219">
        <ele>2.4</ele>
        <time>2020-06-02T06:56:48Z</time>
      </trkpt>
      <trkpt lat="46.19211" lon="-1.40211">
        <ele>2.4</ele>
        <time>2020-06-02T06:56:49Z</time>
      </trkpt>
      <trkpt lat="46.19209" lon="-1.40205">
        <ele>2.4</ele>
        <time>2020-06-02T06:56:50Z</time>
      </trkpt>
      <trkpt lat="46.19207" lon="-1.402">
        <ele>2.4</ele>
        <time>2020-06-02T06:56:51Z</time>
      </trkpt>
      <trkpt lat="46.19205" lon="-1.40193">
        <ele>2.4</ele>
        <time>2020-06-02T06:56:52Z</time>
      </trkpt>
      <trkpt lat="46.19204" lon="-1.40187">
        <ele>2.4</ele>
        <time>2020-06-02T06:56:53Z</time>
      </trkpt>
      <trkpt lat="46.19202" lon="-1.4018">
        <ele>2.4</ele>
        <time>2020-06-02T06:56:54Z</time>
      </trkpt>
      <trkpt lat="46.192" lon="-1.40174">
        <ele>2.4</ele>
        <time>2020-06-02T06:56:55Z</time>
      </trkpt>
      <trkpt lat="46.19199" lon="-1.40168">
        <ele>2.4</ele>
        <time>2020-06-02T06:56:56Z</time>
      </trkpt>
      <trkpt lat="46.19198" lon="-1.40161">
        <ele>2.4</ele>
        <time>2020-06-02T06:56:57Z</time>
      </trkpt>
      <trkpt lat="46.19196" lon="-1.40155">
        <ele>2.4</ele>
        <time>2020-06-02T06:56:58Z</time>
      </trkpt>
      <trkpt lat="46.19194" lon="-1.4015">
        <ele>2.4</ele>
        <time>2020-06-02T06:56:59Z</time>
      </trkpt>
      <trkpt lat="46.19193" lon="-1.40142">
        <ele>2.4</ele>
        <time>2020-06-02T06:57:00Z</time>
      </trkpt>
      <trkpt lat="46.19192" lon="-1.40136">
        <ele>2.4</ele>
        <time>2020-06-02T06:57:01Z</time>
      </trkpt>
      <trkpt lat="46.1919" lon="-1.40131">
        <ele>2.4</ele>
        <time>2020-06-02T06:57:02Z</time>
      </trkpt>
      <trkpt lat="46.19188" lon="-1.40125">
        <ele>2.3</ele>
        <time>2020-06-02T06:57:03Z</time>
      </trkpt>
      <trkpt lat="46.19186" lon="-1.40119">
        <ele>2.3</ele>
        <time>2020-06-02T06:57:04Z</time>
      </trkpt>
      <trkpt lat="46.19185" lon="-1.40112">
        <ele>2.3</ele>
        <time>2020-06-02T06:57:05Z</time>
      </trkpt>
      <trkpt lat="46.19183" lon="-1.40105">
        <ele>2.3</ele>
        <time>2020-06-02T06:57:06Z</time>
      </trkpt>
      <trkpt lat="46.19181" lon="-1.40099">
        <ele>2.3</ele>
        <time>2020-06-02T06:57:07Z</time>
      </trkpt>
      <trkpt lat="46.1918" lon="-1.40093">
        <ele>2.3</ele>
        <time>2020-06-02T06:57:08Z</time>
      </trkpt>
      <trkpt lat="46.19178" lon="-1.40086">
        <ele>2.3</ele>
        <time>2020-06-02T06:57:09Z</time>
      </trkpt>
      <trkpt lat="46.19176" lon="-1.4008">
        <ele>2.3</ele>
        <time>2020-06-02T06:57:10Z</time>
      </trkpt>
      <trkpt lat="46.19174" lon="-1.40074">
        <ele>2.2</ele>
        <time>2020-06-02T06:57:11Z</time>
      </trkpt>
      <trkpt lat="46.19172" lon="-1.40067">
        <ele>2.2</ele>
        <time>2020-06-02T06:57:12Z</time>
      </trkpt>
      <trkpt lat="46.1917" lon="-1.4006">
        <ele>2.2</ele>
        <time>2020-06-02T06:57:13Z</time>
      </trkpt>
      <trkpt lat="46.19169" lon="-1.40054">
        <ele>2.2</ele>
        <time>2020-06-02T06:57:14Z</time>
      </trkpt>
      <trkpt lat="46.19167" lon="-1.40047">
        <ele>2.2</ele>
        <time>2020-06-02T06:57:15Z</time>
      </trkpt>
      <trkpt lat="46.19166" lon="-1.40041">
        <ele>2.2</ele>
        <time>2020-06-02T06:57:16Z</time>
      </trkpt>
      <trkpt lat="46.19164" lon="-1.40036">
        <ele>2.2</ele>
        <time>2020-06-02T06:57:17Z</time>
      </trkpt>
      <trkpt lat="46.19162" lon="-1.40029">
        <ele>2.2</ele>
        <time>2020-06-02T06:57:18Z</time>
      </trkpt>
      <trkpt lat="46.1916" lon="-1.40024">
        <ele>2.2</ele>
        <time>2020-06-02T06:57:19Z</time>
      </trkpt>
      <trkpt lat="46.19158" lon="-1.40017">
        <ele>2.2</ele>
        <time>2020-06-02T06:57:20Z</time>
      </trkpt>
      <trkpt lat="46.19157" lon="-1.40011">
        <ele>2.2</ele>
        <time>2020-06-02T06:57:21Z</time>
      </trkpt>
      <trkpt lat="46.19155" lon="-1.40004">
        <ele>2.2</ele>
        <time>2020-06-02T06:57:22Z</time>
      </trkpt>
      <trkpt lat="46.19153" lon="-1.39998">
        <ele>2.2</ele>
        <time>2020-06-02T06:57:23Z</time>
      </trkpt>
      <trkpt lat="46.19152" lon="-1.39993">
        <ele>2.2</ele>
        <time>2020-06-02T06:57:24Z</time>
      </trkpt>
      <trkpt lat="46.1915" lon="-1.39987">
        <ele>2.2</ele>
        <time>2020-06-02T06:57:25Z</time>
      </trkpt>
      <trkpt lat="46.19148" lon="-1.3998">
        <ele>2.3</ele>
        <time>2020-06-02T06:57:26Z</time>
      </trkpt>
      <trkpt lat="46.19146" lon="-1.39974">
        <ele>2.3</ele>
        <time>2020-06-02T06:57:27Z</time>
      </trkpt>
      <trkpt lat="46.19144" lon="-1.39968">
        <ele>2.3</ele>
        <time>2020-06-02T06:57:28Z</time>
      </trkpt>
      <trkpt lat="46.19142" lon="-1.39962">
        <ele>2.3</ele>
        <time>2020-06-02T06:57:29Z</time>
      </trkpt>
      <trkpt lat="46.1914" lon="-1.39955">
        <ele>2.3</ele>
        <time>2020-06-02T06:57:30Z</time>
      </trkpt>
      <trkpt lat="46.19138" lon="-1.39949">
        <ele>2.3</ele>
        <time>2020-06-02T06:57:31Z</time>
      </trkpt>
      <trkpt lat="46.19136" lon="-1.39942">
        <ele>2.3</ele>
        <time>2020-06-02T06:57:32Z</time>
      </trkpt>
      <trkpt lat="46.19135" lon="-1.39936">
        <ele>2.3</ele>
        <time>2020-06-02T06:57:33Z</time>
      </trkpt>
      <trkpt lat="46.19133" lon="-1.3993">
        <ele>2.4</ele>
        <time>2020-06-02T06:57:34Z</time>
      </trkpt>
      <trkpt lat="46.19131" lon="-1.39924">
        <ele>2.4</ele>
        <time>2020-06-02T06:57:35Z</time>
      </trkpt>
      <trkpt lat="46.19129" lon="-1.39918">
        <ele>2.4</ele>
        <time>2020-06-02T06:57:36Z</time>
      </trkpt>
      <trkpt lat="46.19127" lon="-1.39911">
        <ele>2.5</ele>
        <time>2020-06-02T06:57:37Z</time>
      </trkpt>
      <trkpt lat="46.19125" lon="-1.39906">
        <ele>2.5</ele>
        <time>2020-06-02T06:57:38Z</time>
      </trkpt>
      <trkpt lat="46.19123" lon="-1.39899">
        <ele>2.6</ele>
        <time>2020-06-02T06:57:39Z</time>
      </trkpt>
      <trkpt lat="46.19121" lon="-1.39893">
        <ele>2.6</ele>
        <time>2020-06-02T06:57:40Z</time>
      </trkpt>
      <trkpt lat="46.19119" lon="-1.39886">
        <ele>2.7</ele>
        <time>2020-06-02T06:57:41Z</time>
      </trkpt>
      <trkpt lat="46.19117" lon="-1.3988">
        <ele>2.8</ele>
        <time>2020-06-02T06:57:42Z</time>
      </trkpt>
      <trkpt lat="46.19115" lon="-1.39873">
        <ele>2.8</ele>
        <time>2020-06-02T06:57:43Z</time>
      </trkpt>
      <trkpt lat="46.19113" lon="-1.39867">
        <ele>2.9</ele>
        <time>2020-06-02T06:57:44Z</time>
      </trkpt>
      <trkpt lat="46.19111" lon="-1.3986">
        <ele>3</ele>
        <time>2020-06-02T06:57:45Z</time>
      </trkpt>
      <trkpt lat="46.1911" lon="-1.39855">
        <ele>3</ele>
        <time>2020-06-02T06:57:46Z</time>
      </trkpt>
      <trkpt lat="46.19107" lon="-1.39848">
        <ele>3.1</ele>
        <time>2020-06-02T06:57:47Z</time>
      </trkpt>
      <trkpt lat="46.19105" lon="-1.39842">
        <ele>3.1</ele>
        <time>2020-06-02T06:57:48Z</time>
      </trkpt>
      <trkpt lat="46.19102" lon="-1.39836">
        <ele>3.1</ele>
        <time>2020-06-02T06:57:49Z</time>
      </trkpt>
      <trkpt lat="46.19099" lon="-1.39829">
        <ele>3.2</ele>
        <time>2020-06-02T06:57:50Z</time>
      </trkpt>
      <trkpt lat="46.19097" lon="-1.39824">
        <ele>3.2</ele>
        <time>2020-06-02T06:57:51Z</time>
      </trkpt>
      <trkpt lat="46.19095" lon="-1.39818">
        <ele>3.2</ele>
        <time>2020-06-02T06:57:52Z</time>
      </trkpt>
      <trkpt lat="46.19093" lon="-1.39811">
        <ele>3.2</ele>
        <time>2020-06-02T06:57:53Z</time>
      </trkpt>
      <trkpt lat="46.19091" lon="-1.39804">
        <ele>3.2</ele>
        <time>2020-06-02T06:57:54Z</time>
      </trkpt>
      <trkpt lat="46.19088" lon="-1.39798">
        <ele>3.3</ele>
        <time>2020-06-02T06:57:55Z</time>
      </trkpt>
      <trkpt lat="46.19086" lon="-1.39792">
        <ele>3.4</ele>
        <time>2020-06-02T06:57:56Z</time>
      </trkpt>
      <trkpt lat="46.19084" lon="-1.39786">
        <ele>3.4</ele>
        <time>2020-06-02T06:57:57Z</time>
      </trkpt>
      <trkpt lat="46.19082" lon="-1.3978">
        <ele>3.5</ele>
        <time>2020-06-02T06:57:58Z</time>
      </trkpt>
      <trkpt lat="46.19079" lon="-1.39774">
        <ele>3.6</ele>
        <time>2020-06-02T06:57:59Z</time>
      </trkpt>
      <trkpt lat="46.19077" lon="-1.39767">
        <ele>3.6</ele>
        <time>2020-06-02T06:58:00Z</time>
      </trkpt>
      <trkpt lat="46.19075" lon="-1.3976">
        <ele>3.7</ele>
        <time>2020-06-02T06:58:01Z</time>
      </trkpt>
      <trkpt lat="46.19073" lon="-1.39753">
        <ele>3.8</ele>
        <time>2020-06-02T06:58:02Z</time>
      </trkpt>
      <trkpt lat="46.19071" lon="-1.39746">
        <ele>3.9</ele>
        <time>2020-06-02T06:58:03Z</time>
      </trkpt>
      <trkpt lat="46.19069" lon="-1.39739">
        <ele>3.9</ele>
        <time>2020-06-02T06:58:04Z</time>
      </trkpt>
      <trkpt lat="46.19068" lon="-1.39733">
        <ele>4</ele>
        <time>2020-06-02T06:58:05Z</time>
      </trkpt>
      <trkpt lat="46.19066" lon="-1.39726">
        <ele>4</ele>
        <time>2020-06-02T06:58:06Z</time>
      </trkpt>
      <trkpt lat="46.19063" lon="-1.39719">
        <ele>4.1</ele>
        <time>2020-06-02T06:58:07Z</time>
      </trkpt>
      <trkpt lat="46.19061" lon="-1.39713">
        <ele>4.1</ele>
        <time>2020-06-02T06:58:08Z</time>
      </trkpt>
      <trkpt lat="46.19059" lon="-1.39707">
        <ele>4.1</ele>
        <time>2020-06-02T06:58:09Z</time>
      </trkpt>
      <trkpt lat="46.19057" lon="-1.397">
        <ele>4.2</ele>
        <time>2020-06-02T06:58:10Z</time>
      </trkpt>
      <trkpt lat="46.19054" lon="-1.39695">
        <ele>4.2</ele>
        <time>2020-06-02T06:58:11Z</time>
      </trkpt>
      <trkpt lat="46.19051" lon="-1.39689">
        <ele>4.2</ele>
        <time>2020-06-02T06:58:12Z</time>
      </trkpt>
      <trkpt lat="46.19049" lon="-1.39683">
        <ele>4.2</ele>
        <time>2020-06-02T06:58:13Z</time>
      </trkpt>
      <trkpt lat="46.19047" lon="-1.39677">
        <ele>4.3</ele>
        <time>2020-06-02T06:58:14Z</time>
      </trkpt>
      <trkpt lat="46.19045" lon="-1.39671">
        <ele>4.3</ele>
        <time>2020-06-02T06:58:15Z</time>
      </trkpt>
      <trkpt lat="46.19043" lon="-1.39665">
        <ele>4.3</ele>
        <time>2020-06-02T06:58:16Z</time>
      </trkpt>
      <trkpt lat="46.1904" lon="-1.39659">
        <ele>4.3</ele>
        <time>2020-06-02T06:58:17Z</time>
      </trkpt>
      <trkpt lat="46.19038" lon="-1.39653">
        <ele>4.3</ele>
        <time>2020-06-02T06:58:18Z</time>
      </trkpt>
      <trkpt lat="46.19036" lon="-1.39647">
        <ele>4.4</ele>
        <time>2020-06-02T06:58:19Z</time>
      </trkpt>
      <trkpt lat="46.19034" lon="-1.39641">
        <ele>4.4</ele>
        <time>2020-06-02T06:58:20Z</time>
      </trkpt>
      <trkpt lat="46.19032" lon="-1.39634">
        <ele>4.4</ele>
        <time>2020-06-02T06:58:21Z</time>
      </trkpt>
      <trkpt lat="46.19031" lon="-1.39627">
        <ele>4.4</ele>
        <time>2020-06-02T06:58:22Z</time>
      </trkpt>
      <trkpt lat="46.19029" lon="-1.39621">
        <ele>4.5</ele>
        <time>2020-06-02T06:58:23Z</time>
      </trkpt>
      <trkpt lat="46.19027" lon="-1.39616">
        <ele>4.5</ele>
        <time>2020-06-02T06:58:24Z</time>
      </trkpt>
      <trkpt lat="46.19025" lon="-1.3961">
        <ele>4.5</ele>
        <time>2020-06-02T06:58:25Z</time>
      </trkpt>
      <trkpt lat="46.19024" lon="-1.39603">
        <ele>4.5</ele>
        <time>2020-06-02T06:58:26Z</time>
      </trkpt>
      <trkpt lat="46.19022" lon="-1.39597">
        <ele>4.5</ele>
        <time>2020-06-02T06:58:27Z</time>
      </trkpt>
      <trkpt lat="46.1902" lon="-1.39591">
        <ele>4.5</ele>
        <time>2020-06-02T06:58:28Z</time>
      </trkpt>
      <trkpt lat="46.19017" lon="-1.39585">
        <ele>4.5</ele>
        <time>2020-06-02T06:58:29Z</time>
      </trkpt>
      <trkpt lat="46.19015" lon="-1.39579">
        <ele>4.4</ele>
        <time>2020-06-02T06:58:30Z</time>
      </trkpt>
      <trkpt lat="46.19012" lon="-1.39574">
        <ele>4.4</ele>
        <time>2020-06-02T06:58:31Z</time>
      </trkpt>
      <trkpt lat="46.19009" lon="-1.39569">
        <ele>4.4</ele>
        <time>2020-06-02T06:58:32Z</time>
      </trkpt>
      <trkpt lat="46.19008" lon="-1.39563">
        <ele>4.4</ele>
        <time>2020-06-02T06:58:33Z</time>
      </trkpt>
      <trkpt lat="46.19005" lon="-1.39557">
        <ele>4.4</ele>
        <time>2020-06-02T06:58:34Z</time>
      </trkpt>
      <trkpt lat="46.19002" lon="-1.39551">
        <ele>4.4</ele>
        <time>2020-06-02T06:58:35Z</time>
      </trkpt>
      <trkpt lat="46.19" lon="-1.39545">
        <ele>4.4</ele>
        <time>2020-06-02T06:58:36Z</time>
      </trkpt>
      <trkpt lat="46.18997" lon="-1.39538">
        <ele>4.4</ele>
        <time>2020-06-02T06:58:37Z</time>
      </trkpt>
      <trkpt lat="46.18994" lon="-1.39531">
        <ele>4.4</ele>
        <time>2020-06-02T06:58:38Z</time>
      </trkpt>
      <trkpt lat="46.18992" lon="-1.39525">
        <ele>4.4</ele>
        <time>2020-06-02T06:58:39Z</time>
      </trkpt>
      <trkpt lat="46.18989" lon="-1.39519">
        <ele>4.5</ele>
        <time>2020-06-02T06:58:40Z</time>
      </trkpt>
      <trkpt lat="46.18986" lon="-1.39512">
        <ele>4.5</ele>
        <time>2020-06-02T06:58:41Z</time>
      </trkpt>
      <trkpt lat="46.18984" lon="-1.39506">
        <ele>4.5</ele>
        <time>2020-06-02T06:58:42Z</time>
      </trkpt>
      <trkpt lat="46.18982" lon="-1.395">
        <ele>4.5</ele>
        <time>2020-06-02T06:58:43Z</time>
      </trkpt>
      <trkpt lat="46.1898" lon="-1.39494">
        <ele>4.5</ele>
        <time>2020-06-02T06:58:44Z</time>
      </trkpt>
      <trkpt lat="46.18977" lon="-1.39488">
        <ele>4.5</ele>
        <time>2020-06-02T06:58:45Z</time>
      </trkpt>
      <trkpt lat="46.18975" lon="-1.39481">
        <ele>4.5</ele>
        <time>2020-06-02T06:58:46Z</time>
      </trkpt>
      <trkpt lat="46.18972" lon="-1.39474">
        <ele>4.5</ele>
        <time>2020-06-02T06:58:47Z</time>
      </trkpt>
      <trkpt lat="46.18972" lon="-1.39468">
        <ele>4.5</ele>
        <time>2020-06-02T06:58:48Z</time>
      </trkpt>
      <trkpt lat="46.18971" lon="-1.39461">
        <ele>4.5</ele>
        <time>2020-06-02T06:58:49Z</time>
      </trkpt>
      <trkpt lat="46.1897" lon="-1.39454">
        <ele>4.5</ele>
        <time>2020-06-02T06:58:50Z</time>
      </trkpt>
      <trkpt lat="46.18969" lon="-1.39448">
        <ele>4.5</ele>
        <time>2020-06-02T06:58:51Z</time>
      </trkpt>
      <trkpt lat="46.18968" lon="-1.3944">
        <ele>4.6</ele>
        <time>2020-06-02T06:58:52Z</time>
      </trkpt>
      <trkpt lat="46.18967" lon="-1.39433">
        <ele>4.6</ele>
        <time>2020-06-02T06:58:53Z</time>
      </trkpt>
      <trkpt lat="46.18967" lon="-1.39427">
        <ele>4.6</ele>
        <time>2020-06-02T06:58:54Z</time>
      </trkpt>
      <trkpt lat="46.18967" lon="-1.39421">
        <ele>4.6</ele>
        <time>2020-06-02T06:58:55Z</time>
      </trkpt>
      <trkpt lat="46.18967" lon="-1.39414">
        <ele>4.6</ele>
        <time>2020-06-02T06:58:56Z</time>
      </trkpt>
      <trkpt lat="46.18968" lon="-1.39408">
        <ele>4.7</ele>
        <time>2020-06-02T06:58:57Z</time>
      </trkpt>
      <trkpt lat="46.18967" lon="-1.394">
        <ele>4.7</ele>
        <time>2020-06-02T06:58:58Z</time>
      </trkpt>
      <trkpt lat="46.18966" lon="-1.39393">
        <ele>4.7</ele>
        <time>2020-06-02T06:58:59Z</time>
      </trkpt>
      <trkpt lat="46.18966" lon="-1.39385">
        <ele>4.8</ele>
        <time>2020-06-02T06:59:00Z</time>
      </trkpt>
      <trkpt lat="46.18965" lon="-1.39378">
        <ele>4.8</ele>
        <time>2020-06-02T06:59:01Z</time>
      </trkpt>
      <trkpt lat="46.18964" lon="-1.39371">
        <ele>4.8</ele>
        <time>2020-06-02T06:59:02Z</time>
      </trkpt>
      <trkpt lat="46.18964" lon="-1.39364">
        <ele>4.8</ele>
        <time>2020-06-02T06:59:03Z</time>
      </trkpt>
      <trkpt lat="46.18963" lon="-1.39358">
        <ele>4.8</ele>
        <time>2020-06-02T06:59:04Z</time>
      </trkpt>
      <trkpt lat="46.18963" lon="-1.39351">
        <ele>4.8</ele>
        <time>2020-06-02T06:59:05Z</time>
      </trkpt>
      <trkpt lat="46.18962" lon="-1.39341">
        <ele>4.8</ele>
        <time>2020-06-02T06:59:06Z</time>
      </trkpt>
      <trkpt lat="46.18961" lon="-1.39333">
        <ele>4.9</ele>
        <time>2020-06-02T06:59:07Z</time>
      </trkpt>
      <trkpt lat="46.18961" lon="-1.39325">
        <ele>4.9</ele>
        <time>2020-06-02T06:59:08Z</time>
      </trkpt>
      <trkpt lat="46.18961" lon="-1.39318">
        <ele>4.9</ele>
        <time>2020-06-02T06:59:09Z</time>
      </trkpt>
      <trkpt lat="46.18961" lon="-1.39312">
        <ele>4.9</ele>
        <time>2020-06-02T06:59:10Z</time>
      </trkpt>
      <trkpt lat="46.18961" lon="-1.39306">
        <ele>5</ele>
        <time>2020-06-02T06:59:11Z</time>
      </trkpt>
      <trkpt lat="46.1896" lon="-1.39299">
        <ele>5</ele>
        <time>2020-06-02T06:59:12Z</time>
      </trkpt>
      <trkpt lat="46.18959" lon="-1.3929">
        <ele>5</ele>
        <time>2020-06-02T06:59:13Z</time>
      </trkpt>
      <trkpt lat="46.18959" lon="-1.39281">
        <ele>5</ele>
        <time>2020-06-02T06:59:14Z</time>
      </trkpt>
      <trkpt lat="46.1896" lon="-1.39275">
        <ele>5.1</ele>
        <time>2020-06-02T06:59:15Z</time>
      </trkpt>
      <trkpt lat="46.1896" lon="-1.39268">
        <ele>5.1</ele>
        <time>2020-06-02T06:59:16Z</time>
      </trkpt>
      <trkpt lat="46.1896" lon="-1.39261">
        <ele>5.2</ele>
        <time>2020-06-02T06:59:17Z</time>
      </trkpt>
      <trkpt lat="46.1896" lon="-1.39255">
        <ele>5.2</ele>
        <time>2020-06-02T06:59:18Z</time>
      </trkpt>
      <trkpt lat="46.18958" lon="-1.39244">
        <ele>5.3</ele>
        <time>2020-06-02T06:59:19Z</time>
      </trkpt>
      <trkpt lat="46.18958" lon="-1.39236">
        <ele>5.3</ele>
        <time>2020-06-02T06:59:20Z</time>
      </trkpt>
      <trkpt lat="46.18959" lon="-1.39228">
        <ele>5.4</ele>
        <time>2020-06-02T06:59:21Z</time>
      </trkpt>
      <trkpt lat="46.1896" lon="-1.3922">
        <ele>5.4</ele>
        <time>2020-06-02T06:59:22Z</time>
      </trkpt>
      <trkpt lat="46.1896" lon="-1.39214">
        <ele>5.5</ele>
        <time>2020-06-02T06:59:23Z</time>
      </trkpt>
      <trkpt lat="46.18959" lon="-1.39207">
        <ele>5.5</ele>
        <time>2020-06-02T06:59:24Z</time>
      </trkpt>
      <trkpt lat="46.1896" lon="-1.39201">
        <ele>5.5</ele>
        <time>2020-06-02T06:59:25Z</time>
      </trkpt>
      <trkpt lat="46.18961" lon="-1.39195">
        <ele>5.6</ele>
        <time>2020-06-02T06:59:26Z</time>
      </trkpt>
      <trkpt lat="46.18962" lon="-1.39188">
        <ele>5.6</ele>
        <time>2020-06-02T06:59:27Z</time>
      </trkpt>
      <trkpt lat="46.18964" lon="-1.39181">
        <ele>5.6</ele>
        <time>2020-06-02T06:59:28Z</time>
      </trkpt>
      <trkpt lat="46.18965" lon="-1.39175">
        <ele>5.7</ele>
        <time>2020-06-02T06:59:29Z</time>
      </trkpt>
      <trkpt lat="46.18967" lon="-1.39169">
        <ele>5.7</ele>
        <time>2020-06-02T06:59:30Z</time>
      </trkpt>
      <trkpt lat="46.18968" lon="-1.39163">
        <ele>5.7</ele>
        <time>2020-06-02T06:59:31Z</time>
      </trkpt>
      <trkpt lat="46.18969" lon="-1.39155">
        <ele>5.7</ele>
        <time>2020-06-02T06:59:32Z</time>
      </trkpt>
      <trkpt lat="46.18971" lon="-1.39149">
        <ele>5.7</ele>
        <time>2020-06-02T06:59:33Z</time>
      </trkpt>
      <trkpt lat="46.18972" lon="-1.39143">
        <ele>5.7</ele>
        <time>2020-06-02T06:59:34Z</time>
      </trkpt>
      <trkpt lat="46.18972" lon="-1.39136">
        <ele>5.7</ele>
        <time>2020-06-02T06:59:35Z</time>
      </trkpt>
      <trkpt lat="46.18973" lon="-1.3913">
        <ele>5.7</ele>
        <time>2020-06-02T06:59:36Z</time>
      </trkpt>
      <trkpt lat="46.18974" lon="-1.39123">
        <ele>5.7</ele>
        <time>2020-06-02T06:59:37Z</time>
      </trkpt>
      <trkpt lat="46.18975" lon="-1.39115">
        <ele>5.7</ele>
        <time>2020-06-02T06:59:38Z</time>
      </trkpt>
      <trkpt lat="46.18976" lon="-1.39108">
        <ele>5.7</ele>
        <time>2020-06-02T06:59:39Z</time>
      </trkpt>
      <trkpt lat="46.18976" lon="-1.39099">
        <ele>5.7</ele>
        <time>2020-06-02T06:59:40Z</time>
      </trkpt>
      <trkpt lat="46.18978" lon="-1.39091">
        <ele>5.7</ele>
        <time>2020-06-02T06:59:41Z</time>
      </trkpt>
      <trkpt lat="46.1898" lon="-1.39085">
        <ele>5.7</ele>
        <time>2020-06-02T06:59:42Z</time>
      </trkpt>
      <trkpt lat="46.18981" lon="-1.39077">
        <ele>5.7</ele>
        <time>2020-06-02T06:59:43Z</time>
      </trkpt>
      <trkpt lat="46.18983" lon="-1.3907">
        <ele>5.7</ele>
        <time>2020-06-02T06:59:44Z</time>
      </trkpt>
      <trkpt lat="46.18984" lon="-1.39063">
        <ele>5.7</ele>
        <time>2020-06-02T06:59:45Z</time>
      </trkpt>
      <trkpt lat="46.18985" lon="-1.39058">
        <ele>5.7</ele>
        <time>2020-06-02T06:59:46Z</time>
      </trkpt>
      <trkpt lat="46.18986" lon="-1.39053">
        <ele>5.7</ele>
        <time>2020-06-02T06:59:47Z</time>
      </trkpt>
      <trkpt lat="46.18986" lon="-1.39047">
        <ele>5.7</ele>
        <time>2020-06-02T06:59:48Z</time>
      </trkpt>
      <trkpt lat="46.18986" lon="-1.39042">
        <ele>5.7</ele>
        <time>2020-06-02T06:59:49Z</time>
      </trkpt>
      <trkpt lat="46.18986" lon="-1.39036">
        <ele>5.7</ele>
        <time>2020-06-02T06:59:50Z</time>
      </trkpt>
      <trkpt lat="46.18987" lon="-1.39029">
        <ele>5.8</ele>
        <time>2020-06-02T06:59:51Z</time>
      </trkpt>
      <trkpt lat="46.18989" lon="-1.39022">
        <ele>5.8</ele>
        <time>2020-06-02T06:59:52Z</time>
      </trkpt>
      <trkpt lat="46.18989" lon="-1.39015">
        <ele>5.8</ele>
        <time>2020-06-02T06:59:53Z</time>
      </trkpt>
      <trkpt lat="46.1899" lon="-1.39007">
        <ele>5.8</ele>
        <time>2020-06-02T06:59:54Z</time>
      </trkpt>
      <trkpt lat="46.18991" lon="-1.38999">
        <ele>5.9</ele>
        <time>2020-06-02T06:59:55Z</time>
      </trkpt>
      <trkpt lat="46.18992" lon="-1.38991">
        <ele>5.9</ele>
        <time>2020-06-02T06:59:56Z</time>
      </trkpt>
      <trkpt lat="46.18993" lon="-1.38983">
        <ele>5.9</ele>
        <time>2020-06-02T06:59:57Z</time>
      </trkpt>
      <trkpt lat="46.18994" lon="-1.38976">
        <ele>6</ele>
        <time>2020-06-02T06:59:58Z</time>
      </trkpt>
      <trkpt lat="46.18994" lon="-1.38972">
        <ele>6</ele>
        <time>2020-06-02T06:59:59Z</time>
      </trkpt>
      <trkpt lat="46.18994" lon="-1.3897">
        <ele>6</ele>
        <time>2020-06-02T07:00:00Z</time>
      </trkpt>
      <trkpt lat="46.18994" lon="-1.38969">
        <ele>6</ele>
        <time>2020-06-02T07:00:01Z</time>
      </trkpt>
      <trkpt lat="46.18994" lon="-1.38968">
        <ele>6</ele>
        <time>2020-06-02T07:00:02Z</time>
      </trkpt>
      <trkpt lat="46.18994" lon="-1.38965">
        <ele>6</ele>
        <time>2020-06-02T07:00:03Z</time>
      </trkpt>
      <trkpt lat="46.18998" lon="-1.38963">
        <ele>6</ele>
        <time>2020-06-02T07:00:04Z</time>
      </trkpt>
      <trkpt lat="46.18998" lon="-1.38962">
        <ele>6</ele>
        <time>2020-06-02T07:00:05Z</time>
      </trkpt>
      <trkpt lat="46.19001" lon="-1.38959">
        <ele>6</ele>
        <time>2020-06-02T07:00:06Z</time>
      </trkpt>
      <trkpt lat="46.19002" lon="-1.38957">
        <ele>6</ele>
        <time>2020-06-02T07:00:07Z</time>
      </trkpt>
      <trkpt lat="46.19005" lon="-1.38953">
        <ele>6.1</ele>
        <time>2020-06-02T07:00:08Z</time>
      </trkpt>
      <trkpt lat="46.19006" lon="-1.38949">
        <ele>6.1</ele>
        <time>2020-06-02T07:00:09Z</time>
      </trkpt>
      <trkpt lat="46.19008" lon="-1.38945">
        <ele>6.1</ele>
        <time>2020-06-02T07:00:10Z</time>
      </trkpt>
      <trkpt lat="46.1901" lon="-1.3894">
        <ele>6.1</ele>
        <time>2020-06-02T07:00:11Z</time>
      </trkpt>
      <trkpt lat="46.19012" lon="-1.38935">
        <ele>6.2</ele>
        <time>2020-06-02T07:00:12Z</time>
      </trkpt>
      <trkpt lat="46.19013" lon="-1.38929">
        <ele>6.2</ele>
        <time>2020-06-02T07:00:13Z</time>
      </trkpt>
      <trkpt lat="46.19014" lon="-1.38923">
        <ele>6.2</ele>
        <time>2020-06-02T07:00:14Z</time>
      </trkpt>
      <trkpt lat="46.19013" lon="-1.38917">
        <ele>6.2</ele>
        <time>2020-06-02T07:00:15Z</time>
      </trkpt>
      <trkpt lat="46.19013" lon="-1.38912">
        <ele>6.3</ele>
        <time>2020-06-02T07:00:16Z</time>
      </trkpt>
      <trkpt lat="46.19012" lon="-1.38906">
        <ele>6.3</ele>
        <time>2020-06-02T07:00:17Z</time>
      </trkpt>
      <trkpt lat="46.19011" lon="-1.389">
        <ele>6.3</ele>
        <time>2020-06-02T07:00:18Z</time>
      </trkpt>
      <trkpt lat="46.1901" lon="-1.38894">
        <ele>6.3</ele>
        <time>2020-06-02T07:00:19Z</time>
      </trkpt>
      <trkpt lat="46.1901" lon="-1.38888">
        <ele>6.4</ele>
        <time>2020-06-02T07:00:20Z</time>
      </trkpt>
      <trkpt lat="46.1901" lon="-1.38882">
        <ele>6.4</ele>
        <time>2020-06-02T07:00:21Z</time>
      </trkpt>
      <trkpt lat="46.19009" lon="-1.38877">
        <ele>6.4</ele>
        <time>2020-06-02T07:00:22Z</time>
      </trkpt>
      <trkpt lat="46.1901" lon="-1.38874">
        <ele>6.4</ele>
        <time>2020-06-02T07:00:23Z</time>
      </trkpt>
      <trkpt lat="46.19009" lon="-1.38872">
        <ele>6.4</ele>
        <time>2020-06-02T07:00:24Z</time>
      </trkpt>
      <trkpt lat="46.19009" lon="-1.38871">
        <ele>6.4</ele>
        <time>2020-06-02T07:00:25Z</time>
      </trkpt>
      <trkpt lat="46.19009" lon="-1.38867">
        <ele>6.5</ele>
        <time>2020-06-02T07:00:26Z</time>
      </trkpt>
      <trkpt lat="46.19007" lon="-1.38865">
        <ele>6.5</ele>
        <time>2020-06-02T07:00:27Z</time>
      </trkpt>
      <trkpt lat="46.19007" lon="-1.38863">
        <ele>6.5</ele>
        <time>2020-06-02T07:00:28Z</time>
      </trkpt>
      <trkpt lat="46.19006" lon="-1.38861">
        <ele>6.5</ele>
        <time>2020-06-02T07:00:29Z</time>
      </trkpt>
      <trkpt lat="46.19006" lon="-1.38861">
        <ele>6.5</ele>
        <time>2020-06-02T07:00:30Z</time>
      </trkpt>
      <trkpt lat="46.19006" lon="-1.38861">
        <ele>6.5</ele>
        <time>2020-06-02T07:00:31Z</time>
      </trkpt>
      <trkpt lat="46.19006" lon="-1.38861">
        <ele>6.5</ele>
        <time>2020-06-02T07:00:32Z</time>
      </trkpt>
      <trkpt lat="46.19007" lon="-1.38861">
        <ele>6.5</ele>
        <time>2020-06-02T07:00:33Z</time>
      </trkpt>
      <trkpt lat="46.19007" lon="-1.38859">
        <ele>6.5</ele>
        <time>2020-06-02T07:00:34Z</time>
      </trkpt>
      <trkpt lat="46.19007" lon="-1.38859">
        <ele>6.5</ele>
        <time>2020-06-02T07:00:35Z</time>
      </trkpt>
      <trkpt lat="46.19008" lon="-1.38857">
        <ele>6.5</ele>
        <time>2020-06-02T07:00:36Z</time>
      </trkpt>
      <trkpt lat="46.19008" lon="-1.38857">
        <ele>6.5</ele>
        <time>2020-06-02T07:00:37Z</time>
      </trkpt>
      <trkpt lat="46.19008" lon="-1.38857">
        <ele>6.5</ele>
        <time>2020-06-02T07:00:38Z</time>
      </trkpt>
      <trkpt lat="46.19008" lon="-1.38855">
        <ele>6.5</ele>
        <time>2020-06-02T07:00:39Z</time>
      </trkpt>
      <trkpt lat="46.19008" lon="-1.38855">
        <ele>6.5</ele>
        <time>2020-06-02T07:00:40Z</time>
      </trkpt>
      <trkpt lat="46.19006" lon="-1.38858">
        <ele>6.5</ele>
        <time>2020-06-02T07:00:41Z</time>
      </trkpt>
      <trkpt lat="46.19007" lon="-1.38857">
        <ele>6.5</ele>
        <time>2020-06-02T07:00:42Z</time>
      </trkpt>
      <trkpt lat="46.19006" lon="-1.38858">
        <ele>6.5</ele>
        <time>2020-06-02T07:00:43Z</time>
      </trkpt>
      <trkpt lat="46.19005" lon="-1.38856">
        <ele>6.5</ele>
        <time>2020-06-02T07:00:44Z</time>
      </trkpt>
      <trkpt lat="46.19004" lon="-1.38854">
        <ele>6.5</ele>
        <time>2020-06-02T07:00:45Z</time>
      </trkpt>
      <trkpt lat="46.19004" lon="-1.38853">
        <ele>6.5</ele>
        <time>2020-06-02T07:00:46Z</time>
      </trkpt>
      <trkpt lat="46.19003" lon="-1.38851">
        <ele>6.5</ele>
        <time>2020-06-02T07:00:47Z</time>
      </trkpt>
      <trkpt lat="46.19004" lon="-1.38848">
        <ele>6.5</ele>
        <time>2020-06-02T07:00:48Z</time>
      </trkpt>
      <trkpt lat="46.19005" lon="-1.38845">
        <ele>6.6</ele>
        <time>2020-06-02T07:00:49Z</time>
      </trkpt>
      <trkpt lat="46.19005" lon="-1.38843">
        <ele>6.6</ele>
        <time>2020-06-02T07:00:50Z</time>
      </trkpt>
      <trkpt lat="46.19004" lon="-1.38837">
        <ele>6.6</ele>
        <time>2020-06-02T07:00:51Z</time>
      </trkpt>
      <trkpt lat="46.19004" lon="-1.38833">
        <ele>6.6</ele>
        <time>2020-06-02T07:00:52Z</time>
      </trkpt>
      <trkpt lat="46.19001" lon="-1.38821">
        <ele>6.6</ele>
        <time>2020-06-02T07:00:53Z</time>
      </trkpt>
      <trkpt lat="46.19" lon="-1.3881">
        <ele>6.6</ele>
        <time>2020-06-02T07:00:54Z</time>
      </trkpt>
      <trkpt lat="46.18999" lon="-1.38798">
        <ele>6.6</ele>
        <time>2020-06-02T07:00:55Z</time>
      </trkpt>
      <trkpt lat="46.18997" lon="-1.38788">
        <ele>6.6</ele>
        <time>2020-06-02T07:00:56Z</time>
      </trkpt>
      <trkpt lat="46.18996" lon="-1.38777">
        <ele>6.6</ele>
        <time>2020-06-02T07:00:57Z</time>
      </trkpt>
      <trkpt lat="46.18993" lon="-1.38762">
        <ele>6.7</ele>
        <time>2020-06-02T07:00:58Z</time>
      </trkpt>
      <trkpt lat="46.18991" lon="-1.38751">
        <ele>6.7</ele>
        <time>2020-06-02T07:00:59Z</time>
      </trkpt>
      <trkpt lat="46.1899" lon="-1.38739">
        <ele>6.7</ele>
        <time>2020-06-02T07:01:00Z</time>
      </trkpt>
      <trkpt lat="46.18985" lon="-1.38726">
        <ele>6.8</ele>
        <time>2020-06-02T07:01:01Z</time>
      </trkpt>
      <trkpt lat="46.18983" lon="-1.38717">
        <ele>6.8</ele>
        <time>2020-06-02T07:01:02Z</time>
      </trkpt>
      <trkpt lat="46.18981" lon="-1.38708">
        <ele>6.8</ele>
        <time>2020-06-02T07:01:03Z</time>
      </trkpt>
      <trkpt lat="46.18979" lon="-1.38701">
        <ele>6.9</ele>
        <time>2020-06-02T07:01:04Z</time>
      </trkpt>
      <trkpt lat="46.18978" lon="-1.38695">
        <ele>6.9</ele>
        <time>2020-06-02T07:01:05Z</time>
      </trkpt>
      <trkpt lat="46.18976" lon="-1.38689">
        <ele>6.9</ele>
        <time>2020-06-02T07:01:06Z</time>
      </trkpt>
      <trkpt lat="46.18974" lon="-1.38682">
        <ele>6.9</ele>
        <time>2020-06-02T07:01:07Z</time>
      </trkpt>
      <trkpt lat="46.18973" lon="-1.38675">
        <ele>7</ele>
        <time>2020-06-02T07:01:08Z</time>
      </trkpt>
      <trkpt lat="46.18971" lon="-1.38667">
        <ele>7</ele>
        <time>2020-06-02T07:01:09Z</time>
      </trkpt>
      <trkpt lat="46.1897" lon="-1.3866">
        <ele>7</ele>
        <time>2020-06-02T07:01:10Z</time>
      </trkpt>
      <trkpt lat="46.18968" lon="-1.38652">
        <ele>7</ele>
        <time>2020-06-02T07:01:11Z</time>
      </trkpt>
      <trkpt lat="46.18967" lon="-1.38645">
        <ele>7</ele>
        <time>2020-06-02T07:01:12Z</time>
      </trkpt>
      <trkpt lat="46.18965" lon="-1.38637">
        <ele>7.1</ele>
        <time>2020-06-02T07:01:13Z</time>
      </trkpt>
      <trkpt lat="46.18963" lon="-1.3863">
        <ele>7.1</ele>
        <time>2020-06-02T07:01:14Z</time>
      </trkpt>
      <trkpt lat="46.18961" lon="-1.38623">
        <ele>7.1</ele>
        <time>2020-06-02T07:01:15Z</time>
      </trkpt>
      <trkpt lat="46.18959" lon="-1.38616">
        <ele>7.1</ele>
        <time>2020-06-02T07:01:16Z</time>
      </trkpt>
      <trkpt lat="46.18956" lon="-1.38609">
        <ele>7.1</ele>
        <time>2020-06-02T07:01:17Z</time>
      </trkpt>
      <trkpt lat="46.18955" lon="-1.38602">
        <ele>7.1</ele>
        <time>2020-06-02T07:01:18Z</time>
      </trkpt>
      <trkpt lat="46.18953" lon="-1.38595">
        <ele>7.1</ele>
        <time>2020-06-02T07:01:19Z</time>
      </trkpt>
      <trkpt lat="46.18951" lon="-1.38589">
        <ele>7.1</ele>
        <time>2020-06-02T07:01:20Z</time>
      </trkpt>
      <trkpt lat="46.18949" lon="-1.38583">
        <ele>7.1</ele>
        <time>2020-06-02T07:01:21Z</time>
      </trkpt>
      <trkpt lat="46.18947" lon="-1.38577">
        <ele>7.1</ele>
        <time>2020-06-02T07:01:22Z</time>
      </trkpt>
      <trkpt lat="46.18945" lon="-1.3857">
        <ele>7.1</ele>
        <time>2020-06-02T07:01:23Z</time>
      </trkpt>
      <trkpt lat="46.18943" lon="-1.38563">
        <ele>7.1</ele>
        <time>2020-06-02T07:01:24Z</time>
      </trkpt>
      <trkpt lat="46.18941" lon="-1.38556">
        <ele>7.1</ele>
        <time>2020-06-02T07:01:25Z</time>
      </trkpt>
      <trkpt lat="46.18938" lon="-1.3855">
        <ele>7.1</ele>
        <time>2020-06-02T07:01:26Z</time>
      </trkpt>
      <trkpt lat="46.18936" lon="-1.38544">
        <ele>7.1</ele>
        <time>2020-06-02T07:01:27Z</time>
      </trkpt>
      <trkpt lat="46.18933" lon="-1.38538">
        <ele>7.1</ele>
        <time>2020-06-02T07:01:28Z</time>
      </trkpt>
      <trkpt lat="46.1893" lon="-1.38531">
        <ele>7.1</ele>
        <time>2020-06-02T07:01:29Z</time>
      </trkpt>
      <trkpt lat="46.18926" lon="-1.38523">
        <ele>7</ele>
        <time>2020-06-02T07:01:30Z</time>
      </trkpt>
      <trkpt lat="46.18923" lon="-1.38517">
        <ele>7</ele>
        <time>2020-06-02T07:01:31Z</time>
      </trkpt>
      <trkpt lat="46.1892" lon="-1.3851">
        <ele>7</ele>
        <time>2020-06-02T07:01:32Z</time>
      </trkpt>
      <trkpt lat="46.18918" lon="-1.38504">
        <ele>7</ele>
        <time>2020-06-02T07:01:33Z</time>
      </trkpt>
      <trkpt lat="46.18915" lon="-1.38497">
        <ele>6.9</ele>
        <time>2020-06-02T07:01:34Z</time>
      </trkpt>
      <trkpt lat="46.18912" lon="-1.3849">
        <ele>6.9</ele>
        <time>2020-06-02T07:01:35Z</time>
      </trkpt>
      <trkpt lat="46.18909" lon="-1.38484">
        <ele>6.9</ele>
        <time>2020-06-02T07:01:36Z</time>
      </trkpt>
      <trkpt lat="46.18905" lon="-1.38477">
        <ele>6.9</ele>
        <time>2020-06-02T07:01:37Z</time>
      </trkpt>
      <trkpt lat="46.18902" lon="-1.3847">
        <ele>6.9</ele>
        <time>2020-06-02T07:01:38Z</time>
      </trkpt>
      <trkpt lat="46.189" lon="-1.38464">
        <ele>6.8</ele>
        <time>2020-06-02T07:01:39Z</time>
      </trkpt>
      <trkpt lat="46.18897" lon="-1.38456">
        <ele>6.8</ele>
        <time>2020-06-02T07:01:40Z</time>
      </trkpt>
      <trkpt lat="46.18895" lon="-1.38449">
        <ele>6.8</ele>
        <time>2020-06-02T07:01:41Z</time>
      </trkpt>
      <trkpt lat="46.18892" lon="-1.38443">
        <ele>6.8</ele>
        <time>2020-06-02T07:01:42Z</time>
      </trkpt>
      <trkpt lat="46.1889" lon="-1.38436">
        <ele>6.8</ele>
        <time>2020-06-02T07:01:43Z</time>
      </trkpt>
      <trkpt lat="46.18888" lon="-1.3843">
        <ele>6.8</ele>
        <time>2020-06-02T07:01:44Z</time>
      </trkpt>
      <trkpt lat="46.18886" lon="-1.38423">
        <ele>6.8</ele>
        <time>2020-06-02T07:01:45Z</time>
      </trkpt>
      <trkpt lat="46.18883" lon="-1.38418">
        <ele>6.8</ele>
        <time>2020-06-02T07:01:46Z</time>
      </trkpt>
      <trkpt lat="46.18881" lon="-1.38412">
        <ele>6.8</ele>
        <time>2020-06-02T07:01:47Z</time>
      </trkpt>
      <trkpt lat="46.18878" lon="-1.38406">
        <ele>6.9</ele>
        <time>2020-06-02T07:01:48Z</time>
      </trkpt>
      <trkpt lat="46.18875" lon="-1.384">
        <ele>6.9</ele>
        <time>2020-06-02T07:01:49Z</time>
      </trkpt>
      <trkpt lat="46.18872" lon="-1.38394">
        <ele>6.9</ele>
        <time>2020-06-02T07:01:50Z</time>
      </trkpt>
      <trkpt lat="46.18869" lon="-1.38387">
        <ele>7</ele>
        <time>2020-06-02T07:01:51Z</time>
      </trkpt>
      <trkpt lat="46.18865" lon="-1.3838">
        <ele>7</ele>
        <time>2020-06-02T07:01:52Z</time>
      </trkpt>
      <trkpt lat="46.18863" lon="-1.38374">
        <ele>7</ele>
        <time>2020-06-02T07:01:53Z</time>
      </trkpt>
      <trkpt lat="46.1886" lon="-1.38369">
        <ele>7.1</ele>
        <time>2020-06-02T07:01:54Z</time>
      </trkpt>
      <trkpt lat="46.18858" lon="-1.38364">
        <ele>7.1</ele>
        <time>2020-06-02T07:01:55Z</time>
      </trkpt>
      <trkpt lat="46.18856" lon="-1.38359">
        <ele>7.1</ele>
        <time>2020-06-02T07:01:56Z</time>
      </trkpt>
      <trkpt lat="46.18854" lon="-1.38354">
        <ele>7.2</ele>
        <time>2020-06-02T07:01:57Z</time>
      </trkpt>
      <trkpt lat="46.18852" lon="-1.3835">
        <ele>7.2</ele>
        <time>2020-06-02T07:01:58Z</time>
      </trkpt>
      <trkpt lat="46.18851" lon="-1.38347">
        <ele>7.2</ele>
        <time>2020-06-02T07:01:59Z</time>
      </trkpt>
      <trkpt lat="46.18849" lon="-1.38342">
        <ele>7.2</ele>
        <time>2020-06-02T07:02:00Z</time>
      </trkpt>
      <trkpt lat="46.18848" lon="-1.38341">
        <ele>7.2</ele>
        <time>2020-06-02T07:02:01Z</time>
      </trkpt>
      <trkpt lat="46.18846" lon="-1.38339">
        <ele>7.3</ele>
        <time>2020-06-02T07:02:02Z</time>
      </trkpt>
      <trkpt lat="46.18846" lon="-1.38337">
        <ele>7.3</ele>
        <time>2020-06-02T07:02:03Z</time>
      </trkpt>
      <trkpt lat="46.18846" lon="-1.38335">
        <ele>7.3</ele>
        <time>2020-06-02T07:02:04Z</time>
      </trkpt>
      <trkpt lat="46.18848" lon="-1.38329">
        <ele>7.4</ele>
        <time>2020-06-02T07:02:05Z</time>
      </trkpt>
      <trkpt lat="46.18849" lon="-1.38325">
        <ele>7.4</ele>
        <time>2020-06-02T07:02:06Z</time>
      </trkpt>
      <trkpt lat="46.18851" lon="-1.38321">
        <ele>7.4</ele>
        <time>2020-06-02T07:02:07Z</time>
      </trkpt>
      <trkpt lat="46.18853" lon="-1.38316">
        <ele>7.6</ele>
        <time>2020-06-02T07:02:08Z</time>
      </trkpt>
      <trkpt lat="46.18855" lon="-1.3831">
        <ele>7.7</ele>
        <time>2020-06-02T07:02:09Z</time>
      </trkpt>
      <trkpt lat="46.18857" lon="-1.38306">
        <ele>7.7</ele>
        <time>2020-06-02T07:02:10Z</time>
      </trkpt>
      <trkpt lat="46.18859" lon="-1.38301">
        <ele>7.8</ele>
        <time>2020-06-02T07:02:11Z</time>
      </trkpt>
      <trkpt lat="46.18861" lon="-1.38294">
        <ele>7.9</ele>
        <time>2020-06-02T07:02:12Z</time>
      </trkpt>
      <trkpt lat="46.18862" lon="-1.38287">
        <ele>8</ele>
        <time>2020-06-02T07:02:13Z</time>
      </trkpt>
      <trkpt lat="46.18863" lon="-1.38281">
        <ele>8.1</ele>
        <time>2020-06-02T07:02:14Z</time>
      </trkpt>
      <trkpt lat="46.18864" lon="-1.38276">
        <ele>8.2</ele>
        <time>2020-06-02T07:02:15Z</time>
      </trkpt>
      <trkpt lat="46.18864" lon="-1.3827">
        <ele>8.3</ele>
        <time>2020-06-02T07:02:16Z</time>
      </trkpt>
      <trkpt lat="46.18863" lon="-1.38266">
        <ele>8.3</ele>
        <time>2020-06-02T07:02:17Z</time>
      </trkpt>
      <trkpt lat="46.18863" lon="-1.38262">
        <ele>8.3</ele>
        <time>2020-06-02T07:02:18Z</time>
      </trkpt>
      <trkpt lat="46.18863" lon="-1.38258">
        <ele>8.4</ele>
        <time>2020-06-02T07:02:19Z</time>
      </trkpt>
      <trkpt lat="46.18862" lon="-1.38251">
        <ele>8.4</ele>
        <time>2020-06-02T07:02:20Z</time>
      </trkpt>
      <trkpt lat="46.1886" lon="-1.38246">
        <ele>8.4</ele>
        <time>2020-06-02T07:02:21Z</time>
      </trkpt>
      <trkpt lat="46.18856" lon="-1.38244">
        <ele>8.4</ele>
        <time>2020-06-02T07:02:22Z</time>
      </trkpt>
      <trkpt lat="46.18852" lon="-1.38244">
        <ele>8.4</ele>
        <time>2020-06-02T07:02:23Z</time>
      </trkpt>
      <trkpt lat="46.18847" lon="-1.38245">
        <ele>8.4</ele>
        <time>2020-06-02T07:02:24Z</time>
      </trkpt>
      <trkpt lat="46.18842" lon="-1.38245">
        <ele>8.4</ele>
        <time>2020-06-02T07:02:25Z</time>
      </trkpt>
      <trkpt lat="46.18836" lon="-1.38245">
        <ele>8.4</ele>
        <time>2020-06-02T07:02:26Z</time>
      </trkpt>
      <trkpt lat="46.18831" lon="-1.38246">
        <ele>8.4</ele>
        <time>2020-06-02T07:02:27Z</time>
      </trkpt>
      <trkpt lat="46.18825" lon="-1.38246">
        <ele>8.3</ele>
        <time>2020-06-02T07:02:28Z</time>
      </trkpt>
      <trkpt lat="46.18821" lon="-1.38246">
        <ele>8.3</ele>
        <time>2020-06-02T07:02:29Z</time>
      </trkpt>
      <trkpt lat="46.18817" lon="-1.38246">
        <ele>8.3</ele>
        <time>2020-06-02T07:02:30Z</time>
      </trkpt>
      <trkpt lat="46.18812" lon="-1.38246">
        <ele>8.2</ele>
        <time>2020-06-02T07:02:31Z</time>
      </trkpt>
      <trkpt lat="46.18807" lon="-1.38246">
        <ele>8.2</ele>
        <time>2020-06-02T07:02:32Z</time>
      </trkpt>
      <trkpt lat="46.18803" lon="-1.38246">
        <ele>8.2</ele>
        <time>2020-06-02T07:02:33Z</time>
      </trkpt>
      <trkpt lat="46.188" lon="-1.38247">
        <ele>8.2</ele>
        <time>2020-06-02T07:02:34Z</time>
      </trkpt>
      <trkpt lat="46.18798" lon="-1.38248">
        <ele>8.1</ele>
        <time>2020-06-02T07:02:35Z</time>
      </trkpt>
      <trkpt lat="46.18795" lon="-1.38248">
        <ele>8.1</ele>
        <time>2020-06-02T07:02:36Z</time>
      </trkpt>
      <trkpt lat="46.18792" lon="-1.38249">
        <ele>8.1</ele>
        <time>2020-06-02T07:02:37Z</time>
      </trkpt>
      <trkpt lat="46.18788" lon="-1.3825">
        <ele>8</ele>
        <time>2020-06-02T07:02:38Z</time>
      </trkpt>
      <trkpt lat="46.18786" lon="-1.3825">
        <ele>8</ele>
        <time>2020-06-02T07:02:39Z</time>
      </trkpt>
      <trkpt lat="46.18783" lon="-1.38249">
        <ele>8</ele>
        <time>2020-06-02T07:02:40Z</time>
      </trkpt>
      <trkpt lat="46.18782" lon="-1.38247">
        <ele>8</ele>
        <time>2020-06-02T07:02:41Z</time>
      </trkpt>
      <trkpt lat="46.1878" lon="-1.38241">
        <ele>8</ele>
        <time>2020-06-02T07:02:42Z</time>
      </trkpt>
      <trkpt lat="46.18779" lon="-1.38234">
        <ele>8</ele>
        <time>2020-06-02T07:02:43Z</time>
      </trkpt>
      <trkpt lat="46.18777" lon="-1.38228">
        <ele>8</ele>
        <time>2020-06-02T07:02:44Z</time>
      </trkpt>
      <trkpt lat="46.18777" lon="-1.38222">
        <ele>8.1</ele>
        <time>2020-06-02T07:02:45Z</time>
      </trkpt>
      <trkpt lat="46.18775" lon="-1.38215">
        <ele>8.1</ele>
        <time>2020-06-02T07:02:46Z</time>
      </trkpt>
      <trkpt lat="46.18774" lon="-1.38209">
        <ele>8.1</ele>
        <time>2020-06-02T07:02:47Z</time>
      </trkpt>
      <trkpt lat="46.18773" lon="-1.38202">
        <ele>8.1</ele>
        <time>2020-06-02T07:02:48Z</time>
      </trkpt>
      <trkpt lat="46.18772" lon="-1.38196">
        <ele>8.2</ele>
        <time>2020-06-02T07:02:49Z</time>
      </trkpt>
      <trkpt lat="46.18771" lon="-1.38192">
        <ele>8.1</ele>
        <time>2020-06-02T07:02:50Z</time>
      </trkpt>
      <trkpt lat="46.18769" lon="-1.38185">
        <ele>8.1</ele>
        <time>2020-06-02T07:02:51Z</time>
      </trkpt>
      <trkpt lat="46.18768" lon="-1.38177">
        <ele>8.1</ele>
        <time>2020-06-02T07:02:52Z</time>
      </trkpt>
      <trkpt lat="46.18767" lon="-1.3817">
        <ele>7.8</ele>
        <time>2020-06-02T07:02:53Z</time>
      </trkpt>
      <trkpt lat="46.18766" lon="-1.38162">
        <ele>7.8</ele>
        <time>2020-06-02T07:02:54Z</time>
      </trkpt>
      <trkpt lat="46.18765" lon="-1.38153">
        <ele>7.6</ele>
        <time>2020-06-02T07:02:55Z</time>
      </trkpt>
      <trkpt lat="46.18765" lon="-1.38147">
        <ele>7.6</ele>
        <time>2020-06-02T07:02:56Z</time>
      </trkpt>
      <trkpt lat="46.18766" lon="-1.3814">
        <ele>7.5</ele>
        <time>2020-06-02T07:02:57Z</time>
      </trkpt>
      <trkpt lat="46.18765" lon="-1.38131">
        <ele>7.5</ele>
        <time>2020-06-02T07:02:58Z</time>
      </trkpt>
      <trkpt lat="46.18764" lon="-1.38122">
        <ele>7.5</ele>
        <time>2020-06-02T07:02:59Z</time>
      </trkpt>
      <trkpt lat="46.18764" lon="-1.38114">
        <ele>7.5</ele>
        <time>2020-06-02T07:03:00Z</time>
      </trkpt>
      <trkpt lat="46.18763" lon="-1.38107">
        <ele>7.5</ele>
        <time>2020-06-02T07:03:01Z</time>
      </trkpt>
      <trkpt lat="46.18762" lon="-1.38099">
        <ele>7.5</ele>
        <time>2020-06-02T07:03:02Z</time>
      </trkpt>
      <trkpt lat="46.18762" lon="-1.38092">
        <ele>7.5</ele>
        <time>2020-06-02T07:03:03Z</time>
      </trkpt>
      <trkpt lat="46.18762" lon="-1.38083">
        <ele>7.5</ele>
        <time>2020-06-02T07:03:04Z</time>
      </trkpt>
      <trkpt lat="46.18762" lon="-1.38075">
        <ele>7.5</ele>
        <time>2020-06-02T07:03:05Z</time>
      </trkpt>
      <trkpt lat="46.18762" lon="-1.38067">
        <ele>7.6</ele>
        <time>2020-06-02T07:03:06Z</time>
      </trkpt>
      <trkpt lat="46.18761" lon="-1.38058">
        <ele>7.6</ele>
        <time>2020-06-02T07:03:07Z</time>
      </trkpt>
      <trkpt lat="46.18761" lon="-1.38049">
        <ele>7.6</ele>
        <time>2020-06-02T07:03:08Z</time>
      </trkpt>
      <trkpt lat="46.18761" lon="-1.38041">
        <ele>7.6</ele>
        <time>2020-06-02T07:03:09Z</time>
      </trkpt>
      <trkpt lat="46.18761" lon="-1.38032">
        <ele>7.7</ele>
        <time>2020-06-02T07:03:10Z</time>
      </trkpt>
      <trkpt lat="46.18761" lon="-1.38024">
        <ele>7.7</ele>
        <time>2020-06-02T07:03:11Z</time>
      </trkpt>
      <trkpt lat="46.18762" lon="-1.38015">
        <ele>7.7</ele>
        <time>2020-06-02T07:03:12Z</time>
      </trkpt>
      <trkpt lat="46.18763" lon="-1.38007">
        <ele>7.8</ele>
        <time>2020-06-02T07:03:13Z</time>
      </trkpt>
      <trkpt lat="46.18764" lon="-1.37999">
        <ele>7.8</ele>
        <time>2020-06-02T07:03:14Z</time>
      </trkpt>
      <trkpt lat="46.18765" lon="-1.37991">
        <ele>7.8</ele>
        <time>2020-06-02T07:03:15Z</time>
      </trkpt>
      <trkpt lat="46.18767" lon="-1.37984">
        <ele>7.8</ele>
        <time>2020-06-02T07:03:16Z</time>
      </trkpt>
      <trkpt lat="46.18769" lon="-1.37976">
        <ele>7.8</ele>
        <time>2020-06-02T07:03:17Z</time>
      </trkpt>
      <trkpt lat="46.18771" lon="-1.37968">
        <ele>7.8</ele>
        <time>2020-06-02T07:03:18Z</time>
      </trkpt>
      <trkpt lat="46.18772" lon="-1.37962">
        <ele>7.9</ele>
        <time>2020-06-02T07:03:19Z</time>
      </trkpt>
      <trkpt lat="46.18775" lon="-1.37957">
        <ele>7.9</ele>
        <time>2020-06-02T07:03:20Z</time>
      </trkpt>
      <trkpt lat="46.18777" lon="-1.37951">
        <ele>7.9</ele>
        <time>2020-06-02T07:03:21Z</time>
      </trkpt>
      <trkpt lat="46.18779" lon="-1.37945">
        <ele>7.9</ele>
        <time>2020-06-02T07:03:22Z</time>
      </trkpt>
      <trkpt lat="46.1878" lon="-1.37939">
        <ele>7.9</ele>
        <time>2020-06-02T07:03:23Z</time>
      </trkpt>
      <trkpt lat="46.18781" lon="-1.37933">
        <ele>8</ele>
        <time>2020-06-02T07:03:24Z</time>
      </trkpt>
      <trkpt lat="46.18783" lon="-1.37925">
        <ele>8</ele>
        <time>2020-06-02T07:03:25Z</time>
      </trkpt>
      <trkpt lat="46.18785" lon="-1.37921">
        <ele>8</ele>
        <time>2020-06-02T07:03:26Z</time>
      </trkpt>
      <trkpt lat="46.18786" lon="-1.37914">
        <ele>8</ele>
        <time>2020-06-02T07:03:27Z</time>
      </trkpt>
      <trkpt lat="46.18787" lon="-1.37907">
        <ele>8</ele>
        <time>2020-06-02T07:03:28Z</time>
      </trkpt>
      <trkpt lat="46.18788" lon="-1.379">
        <ele>8.1</ele>
        <time>2020-06-02T07:03:29Z</time>
      </trkpt>
      <trkpt lat="46.18789" lon="-1.37892">
        <ele>8.1</ele>
        <time>2020-06-02T07:03:30Z</time>
      </trkpt>
      <trkpt lat="46.18792" lon="-1.37883">
        <ele>8.1</ele>
        <time>2020-06-02T07:03:31Z</time>
      </trkpt>
      <trkpt lat="46.18796" lon="-1.37876">
        <ele>8.1</ele>
        <time>2020-06-02T07:03:32Z</time>
      </trkpt>
      <trkpt lat="46.18798" lon="-1.3787">
        <ele>8.1</ele>
        <time>2020-06-02T07:03:33Z</time>
      </trkpt>
      <trkpt lat="46.18802" lon="-1.37863">
        <ele>8.1</ele>
        <time>2020-06-02T07:03:34Z</time>
      </trkpt>
      <trkpt lat="46.18805" lon="-1.37857">
        <ele>8.1</ele>
        <time>2020-06-02T07:03:35Z</time>
      </trkpt>
      <trkpt lat="46.18808" lon="-1.37851">
        <ele>8.1</ele>
        <time>2020-06-02T07:03:36Z</time>
      </trkpt>
      <trkpt lat="46.1881" lon="-1.37845">
        <ele>8.1</ele>
        <time>2020-06-02T07:03:37Z</time>
      </trkpt>
      <trkpt lat="46.18814" lon="-1.37839">
        <ele>8.1</ele>
        <time>2020-06-02T07:03:38Z</time>
      </trkpt>
      <trkpt lat="46.18818" lon="-1.37832">
        <ele>8.1</ele>
        <time>2020-06-02T07:03:39Z</time>
      </trkpt>
      <trkpt lat="46.18821" lon="-1.37825">
        <ele>8.1</ele>
        <time>2020-06-02T07:03:40Z</time>
      </trkpt>
      <trkpt lat="46.18824" lon="-1.37818">
        <ele>8.1</ele>
        <time>2020-06-02T07:03:41Z</time>
      </trkpt>
      <trkpt lat="46.18827" lon="-1.37812">
        <ele>8.1</ele>
        <time>2020-06-02T07:03:42Z</time>
      </trkpt>
      <trkpt lat="46.1883" lon="-1.37806">
        <ele>8.2</ele>
        <time>2020-06-02T07:03:43Z</time>
      </trkpt>
      <trkpt lat="46.18833" lon="-1.37799">
        <ele>8.2</ele>
        <time>2020-06-02T07:03:44Z</time>
      </trkpt>
      <trkpt lat="46.18836" lon="-1.37792">
        <ele>8.2</ele>
        <time>2020-06-02T07:03:45Z</time>
      </trkpt>
      <trkpt lat="46.18838" lon="-1.37786">
        <ele>8.1</ele>
        <time>2020-06-02T07:03:46Z</time>
      </trkpt>
      <trkpt lat="46.1884" lon="-1.3778">
        <ele>8.1</ele>
        <time>2020-06-02T07:03:47Z</time>
      </trkpt>
      <trkpt lat="46.18842" lon="-1.37775">
        <ele>8.1</ele>
        <time>2020-06-02T07:03:48Z</time>
      </trkpt>
      <trkpt lat="46.18844" lon="-1.37769">
        <ele>8.1</ele>
        <time>2020-06-02T07:03:49Z</time>
      </trkpt>
      <trkpt lat="46.18846" lon="-1.37763">
        <ele>8.1</ele>
        <time>2020-06-02T07:03:50Z</time>
      </trkpt>
      <trkpt lat="46.1885" lon="-1.37758">
        <ele>8.1</ele>
        <time>2020-06-02T07:03:51Z</time>
      </trkpt>
      <trkpt lat="46.18854" lon="-1.37753">
        <ele>8.1</ele>
        <time>2020-06-02T07:03:52Z</time>
      </trkpt>
      <trkpt lat="46.18858" lon="-1.37748">
        <ele>8.1</ele>
        <time>2020-06-02T07:03:53Z</time>
      </trkpt>
      <trkpt lat="46.18862" lon="-1.37743">
        <ele>8.1</ele>
        <time>2020-06-02T07:03:54Z</time>
      </trkpt>
      <trkpt lat="46.18866" lon="-1.37738">
        <ele>8.1</ele>
        <time>2020-06-02T07:03:55Z</time>
      </trkpt>
      <trkpt lat="46.1887" lon="-1.37732">
        <ele>8.1</ele>
        <time>2020-06-02T07:03:56Z</time>
      </trkpt>
      <trkpt lat="46.18874" lon="-1.37727">
        <ele>8.1</ele>
        <time>2020-06-02T07:03:57Z</time>
      </trkpt>
      <trkpt lat="46.18876" lon="-1.37723">
        <ele>8.2</ele>
        <time>2020-06-02T07:03:58Z</time>
      </trkpt>
      <trkpt lat="46.1888" lon="-1.37719">
        <ele>8.2</ele>
        <time>2020-06-02T07:03:59Z</time>
      </trkpt>
      <trkpt lat="46.18884" lon="-1.37715">
        <ele>8.2</ele>
        <time>2020-06-02T07:04:00Z</time>
      </trkpt>
      <trkpt lat="46.18888" lon="-1.37711">
        <ele>8.3</ele>
        <time>2020-06-02T07:04:01Z</time>
      </trkpt>
      <trkpt lat="46.18892" lon="-1.37705">
        <ele>8.3</ele>
        <time>2020-06-02T07:04:02Z</time>
      </trkpt>
      <trkpt lat="46.18896" lon="-1.377">
        <ele>8.4</ele>
        <time>2020-06-02T07:04:03Z</time>
      </trkpt>
      <trkpt lat="46.18899" lon="-1.37696">
        <ele>8.4</ele>
        <time>2020-06-02T07:04:04Z</time>
      </trkpt>
      <trkpt lat="46.18902" lon="-1.37691">
        <ele>8.5</ele>
        <time>2020-06-02T07:04:05Z</time>
      </trkpt>
      <trkpt lat="46.18905" lon="-1.37687">
        <ele>8.6</ele>
        <time>2020-06-02T07:04:06Z</time>
      </trkpt>
      <trkpt lat="46.18909" lon="-1.37682">
        <ele>8.6</ele>
        <time>2020-06-02T07:04:07Z</time>
      </trkpt>
      <trkpt lat="46.18913" lon="-1.37676">
        <ele>8.7</ele>
        <time>2020-06-02T07:04:08Z</time>
      </trkpt>
      <trkpt lat="46.18917" lon="-1.37672">
        <ele>8.7</ele>
        <time>2020-06-02T07:04:09Z</time>
      </trkpt>
      <trkpt lat="46.18921" lon="-1.37666">
        <ele>8.7</ele>
        <time>2020-06-02T07:04:10Z</time>
      </trkpt>
      <trkpt lat="46.18924" lon="-1.37663">
        <ele>8.8</ele>
        <time>2020-06-02T07:04:11Z</time>
      </trkpt>
      <trkpt lat="46.18928" lon="-1.37659">
        <ele>8.8</ele>
        <time>2020-06-02T07:04:12Z</time>
      </trkpt>
      <trkpt lat="46.18932" lon="-1.37655">
        <ele>8.9</ele>
        <time>2020-06-02T07:04:13Z</time>
      </trkpt>
      <trkpt lat="46.18936" lon="-1.37652">
        <ele>8.9</ele>
        <time>2020-06-02T07:04:14Z</time>
      </trkpt>
      <trkpt lat="46.1894" lon="-1.37648">
        <ele>9</ele>
        <time>2020-06-02T07:04:15Z</time>
      </trkpt>
      <trkpt lat="46.18943" lon="-1.37645">
        <ele>9</ele>
        <time>2020-06-02T07:04:16Z</time>
      </trkpt>
      <trkpt lat="46.18947" lon="-1.37642">
        <ele>9.1</ele>
        <time>2020-06-02T07:04:17Z</time>
      </trkpt>
      <trkpt lat="46.18951" lon="-1.37639">
        <ele>9.1</ele>
        <time>2020-06-02T07:04:18Z</time>
      </trkpt>
      <trkpt lat="46.18956" lon="-1.37636">
        <ele>9.2</ele>
        <time>2020-06-02T07:04:19Z</time>
      </trkpt>
      <trkpt lat="46.18959" lon="-1.37633">
        <ele>9.2</ele>
        <time>2020-06-02T07:04:20Z</time>
      </trkpt>
      <trkpt lat="46.18963" lon="-1.3763">
        <ele>9.2</ele>
        <time>2020-06-02T07:04:21Z</time>
      </trkpt>
      <trkpt lat="46.18968" lon="-1.37627">
        <ele>9.3</ele>
        <time>2020-06-02T07:04:22Z</time>
      </trkpt>
      <trkpt lat="46.18972" lon="-1.37625">
        <ele>9.3</ele>
        <time>2020-06-02T07:04:23Z</time>
      </trkpt>
      <trkpt lat="46.18977" lon="-1.37622">
        <ele>9.3</ele>
        <time>2020-06-02T07:04:24Z</time>
      </trkpt>
      <trkpt lat="46.18981" lon="-1.37618">
        <ele>9.4</ele>
        <time>2020-06-02T07:04:25Z</time>
      </trkpt>
      <trkpt lat="46.18984" lon="-1.37616">
        <ele>9.3</ele>
        <time>2020-06-02T07:04:26Z</time>
      </trkpt>
      <trkpt lat="46.18987" lon="-1.37613">
        <ele>9.3</ele>
        <time>2020-06-02T07:04:27Z</time>
      </trkpt>
      <trkpt lat="46.18991" lon="-1.3761">
        <ele>9.3</ele>
        <time>2020-06-02T07:04:28Z</time>
      </trkpt>
      <trkpt lat="46.18995" lon="-1.37608">
        <ele>9.3</ele>
        <time>2020-06-02T07:04:29Z</time>
      </trkpt>
      <trkpt lat="46.18998" lon="-1.37605">
        <ele>9.3</ele>
        <time>2020-06-02T07:04:30Z</time>
      </trkpt>
      <trkpt lat="46.19002" lon="-1.37602">
        <ele>9.3</ele>
        <time>2020-06-02T07:04:31Z</time>
      </trkpt>
      <trkpt lat="46.19005" lon="-1.376">
        <ele>9.3</ele>
        <time>2020-06-02T07:04:32Z</time>
      </trkpt>
      <trkpt lat="46.19009" lon="-1.37596">
        <ele>9.3</ele>
        <time>2020-06-02T07:04:33Z</time>
      </trkpt>
      <trkpt lat="46.19012" lon="-1.37594">
        <ele>9.3</ele>
        <time>2020-06-02T07:04:34Z</time>
      </trkpt>
      <trkpt lat="46.19016" lon="-1.3759">
        <ele>9.3</ele>
        <time>2020-06-02T07:04:35Z</time>
      </trkpt>
      <trkpt lat="46.1902" lon="-1.37586">
        <ele>9.3</ele>
        <time>2020-06-02T07:04:36Z</time>
      </trkpt>
      <trkpt lat="46.19024" lon="-1.37582">
        <ele>9.3</ele>
        <time>2020-06-02T07:04:37Z</time>
      </trkpt>
      <trkpt lat="46.19027" lon="-1.37579">
        <ele>9.2</ele>
        <time>2020-06-02T07:04:38Z</time>
      </trkpt>
      <trkpt lat="46.19031" lon="-1.37575">
        <ele>9.2</ele>
        <time>2020-06-02T07:04:39Z</time>
      </trkpt>
      <trkpt lat="46.19036" lon="-1.37572">
        <ele>9.2</ele>
        <time>2020-06-02T07:04:40Z</time>
      </trkpt>
      <trkpt lat="46.19039" lon="-1.37569">
        <ele>9.2</ele>
        <time>2020-06-02T07:04:41Z</time>
      </trkpt>
      <trkpt lat="46.19043" lon="-1.37566">
        <ele>9.2</ele>
        <time>2020-06-02T07:04:42Z</time>
      </trkpt>
      <trkpt lat="46.19048" lon="-1.37565">
        <ele>9.1</ele>
        <time>2020-06-02T07:04:43Z</time>
      </trkpt>
      <trkpt lat="46.19052" lon="-1.37562">
        <ele>9.1</ele>
        <time>2020-06-02T07:04:44Z</time>
      </trkpt>
      <trkpt lat="46.19056" lon="-1.37559">
        <ele>9.1</ele>
        <time>2020-06-02T07:04:45Z</time>
      </trkpt>
      <trkpt lat="46.1906" lon="-1.37556">
        <ele>9.1</ele>
        <time>2020-06-02T07:04:46Z</time>
      </trkpt>
      <trkpt lat="46.19065" lon="-1.37552">
        <ele>9.1</ele>
        <time>2020-06-02T07:04:47Z</time>
      </trkpt>
      <trkpt lat="46.1907" lon="-1.37547">
        <ele>9.1</ele>
        <time>2020-06-02T07:04:48Z</time>
      </trkpt>
      <trkpt lat="46.19074" lon="-1.37543">
        <ele>9.1</ele>
        <time>2020-06-02T07:04:49Z</time>
      </trkpt>
      <trkpt lat="46.19079" lon="-1.37539">
        <ele>9.1</ele>
        <time>2020-06-02T07:04:50Z</time>
      </trkpt>
      <trkpt lat="46.19082" lon="-1.37535">
        <ele>9.1</ele>
        <time>2020-06-02T07:04:51Z</time>
      </trkpt>
      <trkpt lat="46.19086" lon="-1.37531">
        <ele>9.1</ele>
        <time>2020-06-02T07:04:52Z</time>
      </trkpt>
      <trkpt lat="46.19089" lon="-1.37527">
        <ele>9.1</ele>
        <time>2020-06-02T07:04:53Z</time>
      </trkpt>
      <trkpt lat="46.19092" lon="-1.37524">
        <ele>9.1</ele>
        <time>2020-06-02T07:04:54Z</time>
      </trkpt>
      <trkpt lat="46.19095" lon="-1.3752">
        <ele>9.2</ele>
        <time>2020-06-02T07:04:55Z</time>
      </trkpt>
      <trkpt lat="46.19099" lon="-1.37517">
        <ele>9.2</ele>
        <time>2020-06-02T07:04:56Z</time>
      </trkpt>
      <trkpt lat="46.19102" lon="-1.37514">
        <ele>9.2</ele>
        <time>2020-06-02T07:04:57Z</time>
      </trkpt>
      <trkpt lat="46.19106" lon="-1.37511">
        <ele>9.2</ele>
        <time>2020-06-02T07:04:58Z</time>
      </trkpt>
      <trkpt lat="46.1911" lon="-1.37506">
        <ele>9.3</ele>
        <time>2020-06-02T07:04:59Z</time>
      </trkpt>
      <trkpt lat="46.19114" lon="-1.37502">
        <ele>9.3</ele>
        <time>2020-06-02T07:05:00Z</time>
      </trkpt>
      <trkpt lat="46.19117" lon="-1.37498">
        <ele>9.4</ele>
        <time>2020-06-02T07:05:01Z</time>
      </trkpt>
      <trkpt lat="46.1912" lon="-1.37494">
        <ele>9.5</ele>
        <time>2020-06-02T07:05:02Z</time>
      </trkpt>
      <trkpt lat="46.19124" lon="-1.37489">
        <ele>9.5</ele>
        <time>2020-06-02T07:05:03Z</time>
      </trkpt>
      <trkpt lat="46.19128" lon="-1.37485">
        <ele>9.6</ele>
        <time>2020-06-02T07:05:04Z</time>
      </trkpt>
      <trkpt lat="46.19131" lon="-1.37481">
        <ele>9.7</ele>
        <time>2020-06-02T07:05:05Z</time>
      </trkpt>
      <trkpt lat="46.19135" lon="-1.37477">
        <ele>9.7</ele>
        <time>2020-06-02T07:05:06Z</time>
      </trkpt>
      <trkpt lat="46.19138" lon="-1.37473">
        <ele>9.7</ele>
        <time>2020-06-02T07:05:07Z</time>
      </trkpt>
      <trkpt lat="46.19141" lon="-1.37469">
        <ele>9.8</ele>
        <time>2020-06-02T07:05:08Z</time>
      </trkpt>
      <trkpt lat="46.19145" lon="-1.37465">
        <ele>9.8</ele>
        <time>2020-06-02T07:05:09Z</time>
      </trkpt>
      <trkpt lat="46.19149" lon="-1.37461">
        <ele>9.8</ele>
        <time>2020-06-02T07:05:10Z</time>
      </trkpt>
      <trkpt lat="46.19152" lon="-1.37457">
        <ele>9.9</ele>
        <time>2020-06-02T07:05:11Z</time>
      </trkpt>
      <trkpt lat="46.19156" lon="-1.37454">
        <ele>9.9</ele>
        <time>2020-06-02T07:05:12Z</time>
      </trkpt>
      <trkpt lat="46.19159" lon="-1.37451">
        <ele>9.9</ele>
        <time>2020-06-02T07:05:13Z</time>
      </trkpt>
      <trkpt lat="46.19163" lon="-1.37449">
        <ele>9.9</ele>
        <time>2020-06-02T07:05:14Z</time>
      </trkpt>
      <trkpt lat="46.19168" lon="-1.37444">
        <ele>10</ele>
        <time>2020-06-02T07:05:15Z</time>
      </trkpt>
      <trkpt lat="46.19172" lon="-1.37441">
        <ele>10</ele>
        <time>2020-06-02T07:05:16Z</time>
      </trkpt>
      <trkpt lat="46.19177" lon="-1.37437">
        <ele>10</ele>
        <time>2020-06-02T07:05:17Z</time>
      </trkpt>
      <trkpt lat="46.19181" lon="-1.37434">
        <ele>10</ele>
        <time>2020-06-02T07:05:18Z</time>
      </trkpt>
      <trkpt lat="46.19185" lon="-1.37431">
        <ele>10.1</ele>
        <time>2020-06-02T07:05:19Z</time>
      </trkpt>
      <trkpt lat="46.19188" lon="-1.37428">
        <ele>10.1</ele>
        <time>2020-06-02T07:05:20Z</time>
      </trkpt>
      <trkpt lat="46.19193" lon="-1.37425">
        <ele>10.1</ele>
        <time>2020-06-02T07:05:21Z</time>
      </trkpt>
      <trkpt lat="46.19197" lon="-1.37421">
        <ele>10.1</ele>
        <time>2020-06-02T07:05:22Z</time>
      </trkpt>
      <trkpt lat="46.19202" lon="-1.37418">
        <ele>10.1</ele>
        <time>2020-06-02T07:05:23Z</time>
      </trkpt>
      <trkpt lat="46.19206" lon="-1.37415">
        <ele>10.1</ele>
        <time>2020-06-02T07:05:24Z</time>
      </trkpt>
      <trkpt lat="46.19211" lon="-1.37412">
        <ele>10.1</ele>
        <time>2020-06-02T07:05:25Z</time>
      </trkpt>
      <trkpt lat="46.19215" lon="-1.3741">
        <ele>10.1</ele>
        <time>2020-06-02T07:05:26Z</time>
      </trkpt>
      <trkpt lat="46.19219" lon="-1.37408">
        <ele>10.1</ele>
        <time>2020-06-02T07:05:27Z</time>
      </trkpt>
      <trkpt lat="46.19224" lon="-1.37406">
        <ele>10.1</ele>
        <time>2020-06-02T07:05:28Z</time>
      </trkpt>
      <trkpt lat="46.19228" lon="-1.37403">
        <ele>10.1</ele>
        <time>2020-06-02T07:05:29Z</time>
      </trkpt>
      <trkpt lat="46.19232" lon="-1.37401">
        <ele>10.1</ele>
        <time>2020-06-02T07:05:30Z</time>
      </trkpt>
      <trkpt lat="46.19236" lon="-1.374">
        <ele>10.1</ele>
        <time>2020-06-02T07:05:31Z</time>
      </trkpt>
      <trkpt lat="46.1924" lon="-1.37398">
        <ele>10.1</ele>
        <time>2020-06-02T07:05:32Z</time>
      </trkpt>
      <trkpt lat="46.19243" lon="-1.37397">
        <ele>10.1</ele>
        <time>2020-06-02T07:05:33Z</time>
      </trkpt>
      <trkpt lat="46.19247" lon="-1.37395">
        <ele>10.1</ele>
        <time>2020-06-02T07:05:34Z</time>
      </trkpt>
      <trkpt lat="46.19251" lon="-1.37393">
        <ele>10</ele>
        <time>2020-06-02T07:05:35Z</time>
      </trkpt>
      <trkpt lat="46.19255" lon="-1.37392">
        <ele>10</ele>
        <time>2020-06-02T07:05:36Z</time>
      </trkpt>
      <trkpt lat="46.19259" lon="-1.3739">
        <ele>10</ele>
        <time>2020-06-02T07:05:37Z</time>
      </trkpt>
      <trkpt lat="46.19263" lon="-1.37389">
        <ele>10</ele>
        <time>2020-06-02T07:05:38Z</time>
      </trkpt>
      <trkpt lat="46.19267" lon="-1.37387">
        <ele>10</ele>
        <time>2020-06-02T07:05:39Z</time>
      </trkpt>
      <trkpt lat="46.19272" lon="-1.37385">
        <ele>10</ele>
        <time>2020-06-02T07:05:40Z</time>
      </trkpt>
      <trkpt lat="46.19277" lon="-1.37385">
        <ele>10</ele>
        <time>2020-06-02T07:05:41Z</time>
      </trkpt>
      <trkpt lat="46.1928" lon="-1.37386">
        <ele>10</ele>
        <time>2020-06-02T07:05:42Z</time>
      </trkpt>
      <trkpt lat="46.19284" lon="-1.37387">
        <ele>10</ele>
        <time>2020-06-02T07:05:43Z</time>
      </trkpt>
      <trkpt lat="46.19287" lon="-1.37388">
        <ele>9.9</ele>
        <time>2020-06-02T07:05:44Z</time>
      </trkpt>
      <trkpt lat="46.19292" lon="-1.37389">
        <ele>9.9</ele>
        <time>2020-06-02T07:05:45Z</time>
      </trkpt>
      <trkpt lat="46.19296" lon="-1.3739">
        <ele>9.9</ele>
        <time>2020-06-02T07:05:46Z</time>
      </trkpt>
      <trkpt lat="46.193" lon="-1.37391">
        <ele>9.9</ele>
        <time>2020-06-02T07:05:47Z</time>
      </trkpt>
      <trkpt lat="46.19304" lon="-1.37393">
        <ele>9.9</ele>
        <time>2020-06-02T07:05:48Z</time>
      </trkpt>
      <trkpt lat="46.19309" lon="-1.37394">
        <ele>9.9</ele>
        <time>2020-06-02T07:05:49Z</time>
      </trkpt>
      <trkpt lat="46.19313" lon="-1.37394">
        <ele>9.9</ele>
        <time>2020-06-02T07:05:50Z</time>
      </trkpt>
      <trkpt lat="46.19316" lon="-1.37395">
        <ele>9.9</ele>
        <time>2020-06-02T07:05:51Z</time>
      </trkpt>
      <trkpt lat="46.1932" lon="-1.37396">
        <ele>9.8</ele>
        <time>2020-06-02T07:05:52Z</time>
      </trkpt>
      <trkpt lat="46.19324" lon="-1.37396">
        <ele>9.8</ele>
        <time>2020-06-02T07:05:53Z</time>
      </trkpt>
      <trkpt lat="46.1933" lon="-1.37397">
        <ele>9.8</ele>
        <time>2020-06-02T07:05:54Z</time>
      </trkpt>
      <trkpt lat="46.19335" lon="-1.37398">
        <ele>9.8</ele>
        <time>2020-06-02T07:05:55Z</time>
      </trkpt>
      <trkpt lat="46.19339" lon="-1.37399">
        <ele>9.8</ele>
        <time>2020-06-02T07:05:56Z</time>
      </trkpt>
      <trkpt lat="46.19344" lon="-1.374">
        <ele>9.8</ele>
        <time>2020-06-02T07:05:57Z</time>
      </trkpt>
      <trkpt lat="46.19349" lon="-1.374">
        <ele>9.8</ele>
        <time>2020-06-02T07:05:58Z</time>
      </trkpt>
      <trkpt lat="46.19353" lon="-1.37401">
        <ele>9.8</ele>
        <time>2020-06-02T07:05:59Z</time>
      </trkpt>
      <trkpt lat="46.19359" lon="-1.37401">
        <ele>9.8</ele>
        <time>2020-06-02T07:06:00Z</time>
      </trkpt>
      <trkpt lat="46.19364" lon="-1.37401">
        <ele>9.8</ele>
        <time>2020-06-02T07:06:01Z</time>
      </trkpt>
      <trkpt lat="46.19368" lon="-1.37402">
        <ele>9.8</ele>
        <time>2020-06-02T07:06:02Z</time>
      </trkpt>
      <trkpt lat="46.19373" lon="-1.37402">
        <ele>9.8</ele>
        <time>2020-06-02T07:06:03Z</time>
      </trkpt>
      <trkpt lat="46.19378" lon="-1.37403">
        <ele>9.8</ele>
        <time>2020-06-02T07:06:04Z</time>
      </trkpt>
      <trkpt lat="46.19381" lon="-1.37402">
        <ele>9.8</ele>
        <time>2020-06-02T07:06:05Z</time>
      </trkpt>
      <trkpt lat="46.19386" lon="-1.37402">
        <ele>9.8</ele>
        <time>2020-06-02T07:06:06Z</time>
      </trkpt>
      <trkpt lat="46.19392" lon="-1.37403">
        <ele>9.8</ele>
        <time>2020-06-02T07:06:07Z</time>
      </trkpt>
      <trkpt lat="46.19396" lon="-1.37404">
        <ele>9.8</ele>
        <time>2020-06-02T07:06:08Z</time>
      </trkpt>
      <trkpt lat="46.19401" lon="-1.37405">
        <ele>9.8</ele>
        <time>2020-06-02T07:06:09Z</time>
      </trkpt>
      <trkpt lat="46.19405" lon="-1.37406">
        <ele>9.7</ele>
        <time>2020-06-02T07:06:10Z</time>
      </trkpt>
      <trkpt lat="46.19411" lon="-1.37407">
        <ele>9.7</ele>
        <time>2020-06-02T07:06:11Z</time>
      </trkpt>
      <trkpt lat="46.19416" lon="-1.37407">
        <ele>9.7</ele>
        <time>2020-06-02T07:06:12Z</time>
      </trkpt>
      <trkpt lat="46.1942" lon="-1.37406">
        <ele>9.7</ele>
        <time>2020-06-02T07:06:13Z</time>
      </trkpt>
      <trkpt lat="46.19424" lon="-1.37406">
        <ele>9.7</ele>
        <time>2020-06-02T07:06:14Z</time>
      </trkpt>
      <trkpt lat="46.19428" lon="-1.37406">
        <ele>9.6</ele>
        <time>2020-06-02T07:06:15Z</time>
      </trkpt>
      <trkpt lat="46.19432" lon="-1.37407">
        <ele>9.6</ele>
        <time>2020-06-02T07:06:16Z</time>
      </trkpt>
      <trkpt lat="46.19436" lon="-1.37407">
        <ele>9.6</ele>
        <time>2020-06-02T07:06:17Z</time>
      </trkpt>
      <trkpt lat="46.19441" lon="-1.37408">
        <ele>9.6</ele>
        <time>2020-06-02T07:06:18Z</time>
      </trkpt>
      <trkpt lat="46.19445" lon="-1.37409">
        <ele>9.6</ele>
        <time>2020-06-02T07:06:19Z</time>
      </trkpt>
      <trkpt lat="46.19451" lon="-1.3741">
        <ele>9.6</ele>
        <time>2020-06-02T07:06:20Z</time>
      </trkpt>
      <trkpt lat="46.19456" lon="-1.3741">
        <ele>9.6</ele>
        <time>2020-06-02T07:06:21Z</time>
      </trkpt>
      <trkpt lat="46.1946" lon="-1.37412">
        <ele>9.6</ele>
        <time>2020-06-02T07:06:22Z</time>
      </trkpt>
      <trkpt lat="46.19465" lon="-1.37413">
        <ele>9.6</ele>
        <time>2020-06-02T07:06:23Z</time>
      </trkpt>
      <trkpt lat="46.1947" lon="-1.37415">
        <ele>9.6</ele>
        <time>2020-06-02T07:06:24Z</time>
      </trkpt>
      <trkpt lat="46.19474" lon="-1.37417">
        <ele>9.6</ele>
        <time>2020-06-02T07:06:25Z</time>
      </trkpt>
      <trkpt lat="46.1948" lon="-1.37418">
        <ele>9.6</ele>
        <time>2020-06-02T07:06:26Z</time>
      </trkpt>
      <trkpt lat="46.19484" lon="-1.37419">
        <ele>9.6</ele>
        <time>2020-06-02T07:06:27Z</time>
      </trkpt>
      <trkpt lat="46.19489" lon="-1.3742">
        <ele>9.7</ele>
        <time>2020-06-02T07:06:28Z</time>
      </trkpt>
      <trkpt lat="46.19494" lon="-1.37421">
        <ele>9.7</ele>
        <time>2020-06-02T07:06:29Z</time>
      </trkpt>
      <trkpt lat="46.19499" lon="-1.37423">
        <ele>9.7</ele>
        <time>2020-06-02T07:06:30Z</time>
      </trkpt>
      <trkpt lat="46.19504" lon="-1.37424">
        <ele>9.7</ele>
        <time>2020-06-02T07:06:31Z</time>
      </trkpt>
      <trkpt lat="46.19509" lon="-1.37425">
        <ele>9.7</ele>
        <time>2020-06-02T07:06:32Z</time>
      </trkpt>
      <trkpt lat="46.19515" lon="-1.37426">
        <ele>9.7</ele>
        <time>2020-06-02T07:06:33Z</time>
      </trkpt>
      <trkpt lat="46.19519" lon="-1.37427">
        <ele>9.7</ele>
        <time>2020-06-02T07:06:34Z</time>
      </trkpt>
      <trkpt lat="46.19523" lon="-1.37426">
        <ele>9.8</ele>
        <time>2020-06-02T07:06:35Z</time>
      </trkpt>
      <trkpt lat="46.1953" lon="-1.37425">
        <ele>9.8</ele>
        <time>2020-06-02T07:06:36Z</time>
      </trkpt>
      <trkpt lat="46.19535" lon="-1.37423">
        <ele>9.8</ele>
        <time>2020-06-02T07:06:37Z</time>
      </trkpt>
      <trkpt lat="46.1954" lon="-1.37422">
        <ele>9.8</ele>
        <time>2020-06-02T07:06:38Z</time>
      </trkpt>
      <trkpt lat="46.19544" lon="-1.37421">
        <ele>9.8</ele>
        <time>2020-06-02T07:06:39Z</time>
      </trkpt>
      <trkpt lat="46.19548" lon="-1.37421">
        <ele>9.8</ele>
        <time>2020-06-02T07:06:40Z</time>
      </trkpt>
      <trkpt lat="46.19552" lon="-1.37421">
        <ele>9.8</ele>
        <time>2020-06-02T07:06:41Z</time>
      </trkpt>
      <trkpt lat="46.19557" lon="-1.37421">
        <ele>9.9</ele>
        <time>2020-06-02T07:06:42Z</time>
      </trkpt>
      <trkpt lat="46.19562" lon="-1.37421">
        <ele>9.9</ele>
        <time>2020-06-02T07:06:43Z</time>
      </trkpt>
      <trkpt lat="46.19567" lon="-1.37421">
        <ele>9.9</ele>
        <time>2020-06-02T07:06:44Z</time>
      </trkpt>
      <trkpt lat="46.19572" lon="-1.37421">
        <ele>9.9</ele>
        <time>2020-06-02T07:06:45Z</time>
      </trkpt>
      <trkpt lat="46.19576" lon="-1.37421">
        <ele>9.9</ele>
        <time>2020-06-02T07:06:46Z</time>
      </trkpt>
      <trkpt lat="46.19581" lon="-1.37421">
        <ele>9.9</ele>
        <time>2020-06-02T07:06:47Z</time>
      </trkpt>
      <trkpt lat="46.19586" lon="-1.37422">
        <ele>9.9</ele>
        <time>2020-06-02T07:06:48Z</time>
      </trkpt>
      <trkpt lat="46.19591" lon="-1.37422">
        <ele>9.9</ele>
        <time>2020-06-02T07:06:49Z</time>
      </trkpt>
      <trkpt lat="46.19596" lon="-1.37422">
        <ele>9.9</ele>
        <time>2020-06-02T07:06:50Z</time>
      </trkpt>
      <trkpt lat="46.196" lon="-1.37422">
        <ele>9.9</ele>
        <time>2020-06-02T07:06:51Z</time>
      </trkpt>
      <trkpt lat="46.19605" lon="-1.37423">
        <ele>9.9</ele>
        <time>2020-06-02T07:06:52Z</time>
      </trkpt>
      <trkpt lat="46.19609" lon="-1.37423">
        <ele>10</ele>
        <time>2020-06-02T07:06:53Z</time>
      </trkpt>
      <trkpt lat="46.19614" lon="-1.37422">
        <ele>10</ele>
        <time>2020-06-02T07:06:54Z</time>
      </trkpt>
      <trkpt lat="46.19619" lon="-1.37421">
        <ele>10</ele>
        <time>2020-06-02T07:06:55Z</time>
      </trkpt>
      <trkpt lat="46.19624" lon="-1.3742">
        <ele>10</ele>
        <time>2020-06-02T07:06:56Z</time>
      </trkpt>
      <trkpt lat="46.19629" lon="-1.3742">
        <ele>10</ele>
        <time>2020-06-02T07:06:57Z</time>
      </trkpt>
      <trkpt lat="46.19635" lon="-1.3742">
        <ele>10</ele>
        <time>2020-06-02T07:06:58Z</time>
      </trkpt>
      <trkpt lat="46.1964" lon="-1.37421">
        <ele>10</ele>
        <time>2020-06-02T07:06:59Z</time>
      </trkpt>
      <trkpt lat="46.19646" lon="-1.37421">
        <ele>10</ele>
        <time>2020-06-02T07:07:00Z</time>
      </trkpt>
      <trkpt lat="46.19651" lon="-1.37421">
        <ele>10</ele>
        <time>2020-06-02T07:07:01Z</time>
      </trkpt>
      <trkpt lat="46.19656" lon="-1.37421">
        <ele>10</ele>
        <time>2020-06-02T07:07:02Z</time>
      </trkpt>
      <trkpt lat="46.19661" lon="-1.3742">
        <ele>9.9</ele>
        <time>2020-06-02T07:07:03Z</time>
      </trkpt>
      <trkpt lat="46.19665" lon="-1.3742">
        <ele>9.9</ele>
        <time>2020-06-02T07:07:04Z</time>
      </trkpt>
      <trkpt lat="46.1967" lon="-1.37421">
        <ele>9.9</ele>
        <time>2020-06-02T07:07:05Z</time>
      </trkpt>
      <trkpt lat="46.19676" lon="-1.37424">
        <ele>9.9</ele>
        <time>2020-06-02T07:07:06Z</time>
      </trkpt>
      <trkpt lat="46.1968" lon="-1.37428">
        <ele>9.9</ele>
        <time>2020-06-02T07:07:07Z</time>
      </trkpt>
      <trkpt lat="46.19681" lon="-1.37437">
        <ele>9.8</ele>
        <time>2020-06-02T07:07:08Z</time>
      </trkpt>
      <trkpt lat="46.19681" lon="-1.37445">
        <ele>9.8</ele>
        <time>2020-06-02T07:07:09Z</time>
      </trkpt>
      <trkpt lat="46.19681" lon="-1.37453">
        <ele>9.8</ele>
        <time>2020-06-02T07:07:10Z</time>
      </trkpt>
      <trkpt lat="46.19681" lon="-1.3746">
        <ele>9.8</ele>
        <time>2020-06-02T07:07:11Z</time>
      </trkpt>
      <trkpt lat="46.19681" lon="-1.37468">
        <ele>9.8</ele>
        <time>2020-06-02T07:07:12Z</time>
      </trkpt>
      <trkpt lat="46.19681" lon="-1.37478">
        <ele>9.8</ele>
        <time>2020-06-02T07:07:13Z</time>
      </trkpt>
      <trkpt lat="46.19681" lon="-1.37484">
        <ele>9.8</ele>
        <time>2020-06-02T07:07:14Z</time>
      </trkpt>
      <trkpt lat="46.1968" lon="-1.37491">
        <ele>9.8</ele>
        <time>2020-06-02T07:07:15Z</time>
      </trkpt>
      <trkpt lat="46.19681" lon="-1.37499">
        <ele>9.8</ele>
        <time>2020-06-02T07:07:16Z</time>
      </trkpt>
      <trkpt lat="46.1968" lon="-1.37506">
        <ele>9.8</ele>
        <time>2020-06-02T07:07:17Z</time>
      </trkpt>
      <trkpt lat="46.1968" lon="-1.37513">
        <ele>9.8</ele>
        <time>2020-06-02T07:07:18Z</time>
      </trkpt>
      <trkpt lat="46.1968" lon="-1.3752">
        <ele>9.7</ele>
        <time>2020-06-02T07:07:19Z</time>
      </trkpt>
      <trkpt lat="46.1968" lon="-1.37528">
        <ele>9.7</ele>
        <time>2020-06-02T07:07:20Z</time>
      </trkpt>
      <trkpt lat="46.1968" lon="-1.37535">
        <ele>9.7</ele>
        <time>2020-06-02T07:07:21Z</time>
      </trkpt>
      <trkpt lat="46.1968" lon="-1.37541">
        <ele>9.7</ele>
        <time>2020-06-02T07:07:22Z</time>
      </trkpt>
      <trkpt lat="46.19682" lon="-1.37549">
        <ele>9.7</ele>
        <time>2020-06-02T07:07:23Z</time>
      </trkpt>
      <trkpt lat="46.19687" lon="-1.37552">
        <ele>9.7</ele>
        <time>2020-06-02T07:07:24Z</time>
      </trkpt>
      <trkpt lat="46.19693" lon="-1.37551">
        <ele>9.7</ele>
        <time>2020-06-02T07:07:25Z</time>
      </trkpt>
      <trkpt lat="46.19699" lon="-1.37549">
        <ele>9.7</ele>
        <time>2020-06-02T07:07:26Z</time>
      </trkpt>
      <trkpt lat="46.19705" lon="-1.37549">
        <ele>9.7</ele>
        <time>2020-06-02T07:07:27Z</time>
      </trkpt>
      <trkpt lat="46.19711" lon="-1.37548">
        <ele>9.7</ele>
        <time>2020-06-02T07:07:28Z</time>
      </trkpt>
      <trkpt lat="46.19716" lon="-1.37548">
        <ele>9.7</ele>
        <time>2020-06-02T07:07:29Z</time>
      </trkpt>
      <trkpt lat="46.19721" lon="-1.37548">
        <ele>9.7</ele>
        <time>2020-06-02T07:07:30Z</time>
      </trkpt>
      <trkpt lat="46.19726" lon="-1.37547">
        <ele>9.7</ele>
        <time>2020-06-02T07:07:31Z</time>
      </trkpt>
      <trkpt lat="46.19731" lon="-1.37547">
        <ele>9.7</ele>
        <time>2020-06-02T07:07:32Z</time>
      </trkpt>
      <trkpt lat="46.19736" lon="-1.37547">
        <ele>9.7</ele>
        <time>2020-06-02T07:07:33Z</time>
      </trkpt>
      <trkpt lat="46.19742" lon="-1.37547">
        <ele>9.8</ele>
        <time>2020-06-02T07:07:34Z</time>
      </trkpt>
      <trkpt lat="46.19748" lon="-1.37547">
        <ele>9.8</ele>
        <time>2020-06-02T07:07:35Z</time>
      </trkpt>
      <trkpt lat="46.19753" lon="-1.37546">
        <ele>9.8</ele>
        <time>2020-06-02T07:07:36Z</time>
      </trkpt>
      <trkpt lat="46.19758" lon="-1.37546">
        <ele>9.9</ele>
        <time>2020-06-02T07:07:37Z</time>
      </trkpt>
      <trkpt lat="46.19763" lon="-1.37546">
        <ele>9.9</ele>
        <time>2020-06-02T07:07:38Z</time>
      </trkpt>
      <trkpt lat="46.19768" lon="-1.37546">
        <ele>9.9</ele>
        <time>2020-06-02T07:07:39Z</time>
      </trkpt>
      <trkpt lat="46.19773" lon="-1.37546">
        <ele>9.9</ele>
        <time>2020-06-02T07:07:40Z</time>
      </trkpt>
      <trkpt lat="46.19778" lon="-1.37546">
        <ele>10</ele>
        <time>2020-06-02T07:07:41Z</time>
      </trkpt>
      <trkpt lat="46.19783" lon="-1.37546">
        <ele>10</ele>
        <time>2020-06-02T07:07:42Z</time>
      </trkpt>
      <trkpt lat="46.19788" lon="-1.37546">
        <ele>10</ele>
        <time>2020-06-02T07:07:43Z</time>
      </trkpt>
      <trkpt lat="46.19793" lon="-1.37546">
        <ele>10</ele>
        <time>2020-06-02T07:07:44Z</time>
      </trkpt>
      <trkpt lat="46.19798" lon="-1.37546">
        <ele>10.1</ele>
        <time>2020-06-02T07:07:45Z</time>
      </trkpt>
      <trkpt lat="46.19803" lon="-1.37546">
        <ele>10.1</ele>
        <time>2020-06-02T07:07:46Z</time>
      </trkpt>
      <trkpt lat="46.19807" lon="-1.37546">
        <ele>10.1</ele>
        <time>2020-06-02T07:07:47Z</time>
      </trkpt>
      <trkpt lat="46.19811" lon="-1.37546">
        <ele>10.1</ele>
        <time>2020-06-02T07:07:48Z</time>
      </trkpt>
      <trkpt lat="46.19816" lon="-1.37545">
        <ele>10.2</ele>
        <time>2020-06-02T07:07:49Z</time>
      </trkpt>
      <trkpt lat="46.19821" lon="-1.37545">
        <ele>10.2</ele>
        <time>2020-06-02T07:07:50Z</time>
      </trkpt>
      <trkpt lat="46.19827" lon="-1.37545">
        <ele>10.3</ele>
        <time>2020-06-02T07:07:51Z</time>
      </trkpt>
      <trkpt lat="46.19833" lon="-1.37545">
        <ele>10.3</ele>
        <time>2020-06-02T07:07:52Z</time>
      </trkpt>
      <trkpt lat="46.19839" lon="-1.37545">
        <ele>10.3</ele>
        <time>2020-06-02T07:07:53Z</time>
      </trkpt>
      <trkpt lat="46.19843" lon="-1.37545">
        <ele>10.2</ele>
        <time>2020-06-02T07:07:54Z</time>
      </trkpt>
      <trkpt lat="46.19849" lon="-1.37546">
        <ele>10.2</ele>
        <time>2020-06-02T07:07:55Z</time>
      </trkpt>
      <trkpt lat="46.19854" lon="-1.37546">
        <ele>10.2</ele>
        <time>2020-06-02T07:07:56Z</time>
      </trkpt>
      <trkpt lat="46.19858" lon="-1.37546">
        <ele>10.2</ele>
        <time>2020-06-02T07:07:57Z</time>
      </trkpt>
      <trkpt lat="46.19863" lon="-1.37545">
        <ele>10.2</ele>
        <time>2020-06-02T07:07:58Z</time>
      </trkpt>
      <trkpt lat="46.19868" lon="-1.37546">
        <ele>10.2</ele>
        <time>2020-06-02T07:07:59Z</time>
      </trkpt>
      <trkpt lat="46.19873" lon="-1.37546">
        <ele>10.2</ele>
        <time>2020-06-02T07:08:00Z</time>
      </trkpt>
      <trkpt lat="46.19878" lon="-1.37545">
        <ele>10.2</ele>
        <time>2020-06-02T07:08:01Z</time>
      </trkpt>
      <trkpt lat="46.19883" lon="-1.37545">
        <ele>10.3</ele>
        <time>2020-06-02T07:08:02Z</time>
      </trkpt>
      <trkpt lat="46.19888" lon="-1.37545">
        <ele>10.3</ele>
        <time>2020-06-02T07:08:03Z</time>
      </trkpt>
      <trkpt lat="46.19894" lon="-1.37546">
        <ele>10.4</ele>
        <time>2020-06-02T07:08:04Z</time>
      </trkpt>
      <trkpt lat="46.19899" lon="-1.37546">
        <ele>10.5</ele>
        <time>2020-06-02T07:08:05Z</time>
      </trkpt>
      <trkpt lat="46.19903" lon="-1.37546">
        <ele>10.6</ele>
        <time>2020-06-02T07:08:06Z</time>
      </trkpt>
      <trkpt lat="46.19908" lon="-1.37546">
        <ele>10.6</ele>
        <time>2020-06-02T07:08:07Z</time>
      </trkpt>
      <trkpt lat="46.19913" lon="-1.37546">
        <ele>10.7</ele>
        <time>2020-06-02T07:08:08Z</time>
      </trkpt>
      <trkpt lat="46.19918" lon="-1.37546">
        <ele>10.8</ele>
        <time>2020-06-02T07:08:09Z</time>
      </trkpt>
      <trkpt lat="46.19922" lon="-1.37546">
        <ele>10.8</ele>
        <time>2020-06-02T07:08:10Z</time>
      </trkpt>
      <trkpt lat="46.19927" lon="-1.37545">
        <ele>10.8</ele>
        <time>2020-06-02T07:08:11Z</time>
      </trkpt>
      <trkpt lat="46.19933" lon="-1.37545">
        <ele>10.9</ele>
        <time>2020-06-02T07:08:12Z</time>
      </trkpt>
      <trkpt lat="46.19938" lon="-1.37545">
        <ele>10.9</ele>
        <time>2020-06-02T07:08:13Z</time>
      </trkpt>
      <trkpt lat="46.19943" lon="-1.37545">
        <ele>11</ele>
        <time>2020-06-02T07:08:14Z</time>
      </trkpt>
      <trkpt lat="46.19947" lon="-1.37544">
        <ele>11</ele>
        <time>2020-06-02T07:08:15Z</time>
      </trkpt>
      <trkpt lat="46.19953" lon="-1.37544">
        <ele>11</ele>
        <time>2020-06-02T07:08:16Z</time>
      </trkpt>
      <trkpt lat="46.19958" lon="-1.37543">
        <ele>11</ele>
        <time>2020-06-02T07:08:17Z</time>
      </trkpt>
      <trkpt lat="46.19962" lon="-1.37543">
        <ele>11</ele>
        <time>2020-06-02T07:08:18Z</time>
      </trkpt>
      <trkpt lat="46.19966" lon="-1.37543">
        <ele>11</ele>
        <time>2020-06-02T07:08:19Z</time>
      </trkpt>
      <trkpt lat="46.19971" lon="-1.37543">
        <ele>11</ele>
        <time>2020-06-02T07:08:20Z</time>
      </trkpt>
      <trkpt lat="46.19976" lon="-1.37543">
        <ele>11</ele>
        <time>2020-06-02T07:08:21Z</time>
      </trkpt>
      <trkpt lat="46.1998" lon="-1.37543">
        <ele>11</ele>
        <time>2020-06-02T07:08:22Z</time>
      </trkpt>
      <trkpt lat="46.19985" lon="-1.37542">
        <ele>11</ele>
        <time>2020-06-02T07:08:23Z</time>
      </trkpt>
      <trkpt lat="46.19989" lon="-1.37542">
        <ele>11</ele>
        <time>2020-06-02T07:08:24Z</time>
      </trkpt>
      <trkpt lat="46.19992" lon="-1.37542">
        <ele>11</ele>
        <time>2020-06-02T07:08:25Z</time>
      </trkpt>
      <trkpt lat="46.19996" lon="-1.37542">
        <ele>11</ele>
        <time>2020-06-02T07:08:26Z</time>
      </trkpt>
      <trkpt lat="46.2" lon="-1.37543">
        <ele>11.1</ele>
        <time>2020-06-02T07:08:27Z</time>
      </trkpt>
      <trkpt lat="46.20005" lon="-1.37543">
        <ele>11.1</ele>
        <time>2020-06-02T07:08:28Z</time>
      </trkpt>
      <trkpt lat="46.20008" lon="-1.37543">
        <ele>11.1</ele>
        <time>2020-06-02T07:08:29Z</time>
      </trkpt>
      <trkpt lat="46.20013" lon="-1.37544">
        <ele>11.1</ele>
        <time>2020-06-02T07:08:30Z</time>
      </trkpt>
      <trkpt lat="46.20018" lon="-1.37544">
        <ele>11.1</ele>
        <time>2020-06-02T07:08:31Z</time>
      </trkpt>
      <trkpt lat="46.20022" lon="-1.37544">
        <ele>11.1</ele>
        <time>2020-06-02T07:08:32Z</time>
      </trkpt>
      <trkpt lat="46.20026" lon="-1.37544">
        <ele>11.1</ele>
        <time>2020-06-02T07:08:33Z</time>
      </trkpt>
      <trkpt lat="46.2003" lon="-1.37542">
        <ele>11.1</ele>
        <time>2020-06-02T07:08:34Z</time>
      </trkpt>
      <trkpt lat="46.20034" lon="-1.37539">
        <ele>11.1</ele>
        <time>2020-06-02T07:08:35Z</time>
      </trkpt>
      <trkpt lat="46.20039" lon="-1.37536">
        <ele>11.2</ele>
        <time>2020-06-02T07:08:36Z</time>
      </trkpt>
      <trkpt lat="46.20043" lon="-1.37533">
        <ele>11.2</ele>
        <time>2020-06-02T07:08:37Z</time>
      </trkpt>
      <trkpt lat="46.20047" lon="-1.37531">
        <ele>11.2</ele>
        <time>2020-06-02T07:08:38Z</time>
      </trkpt>
      <trkpt lat="46.2005" lon="-1.37529">
        <ele>11.2</ele>
        <time>2020-06-02T07:08:39Z</time>
      </trkpt>
      <trkpt lat="46.20053" lon="-1.37527">
        <ele>11.2</ele>
        <time>2020-06-02T07:08:40Z</time>
      </trkpt>
      <trkpt lat="46.20056" lon="-1.37525">
        <ele>11.3</ele>
        <time>2020-06-02T07:08:41Z</time>
      </trkpt>
      <trkpt lat="46.20059" lon="-1.37524">
        <ele>11.3</ele>
        <time>2020-06-02T07:08:42Z</time>
      </trkpt>
      <trkpt lat="46.20063" lon="-1.37524">
        <ele>11.3</ele>
        <time>2020-06-02T07:08:43Z</time>
      </trkpt>
      <trkpt lat="46.20067" lon="-1.37525">
        <ele>11.3</ele>
        <time>2020-06-02T07:08:44Z</time>
      </trkpt>
      <trkpt lat="46.20071" lon="-1.37525">
        <ele>11.4</ele>
        <time>2020-06-02T07:08:45Z</time>
      </trkpt>
      <trkpt lat="46.20074" lon="-1.37524">
        <ele>11.4</ele>
        <time>2020-06-02T07:08:46Z</time>
      </trkpt>
      <trkpt lat="46.20078" lon="-1.37522">
        <ele>11.4</ele>
        <time>2020-06-02T07:08:47Z</time>
      </trkpt>
      <trkpt lat="46.20082" lon="-1.37519">
        <ele>11.5</ele>
        <time>2020-06-02T07:08:48Z</time>
      </trkpt>
      <trkpt lat="46.20083" lon="-1.37518">
        <ele>11.5</ele>
        <time>2020-06-02T07:08:49Z</time>
      </trkpt>
      <trkpt lat="46.20086" lon="-1.37519">
        <ele>11.5</ele>
        <time>2020-06-02T07:08:50Z</time>
      </trkpt>
      <trkpt lat="46.2009" lon="-1.37518">
        <ele>11.5</ele>
        <time>2020-06-02T07:08:51Z</time>
      </trkpt>
      <trkpt lat="46.20093" lon="-1.37515">
        <ele>11.6</ele>
        <time>2020-06-02T07:08:52Z</time>
      </trkpt>
      <trkpt lat="46.20095" lon="-1.37511">
        <ele>11.6</ele>
        <time>2020-06-02T07:08:53Z</time>
      </trkpt>
      <trkpt lat="46.20097" lon="-1.37505">
        <ele>11.5</ele>
        <time>2020-06-02T07:08:54Z</time>
      </trkpt>
      <trkpt lat="46.20099" lon="-1.37501">
        <ele>11.5</ele>
        <time>2020-06-02T07:08:55Z</time>
      </trkpt>
      <trkpt lat="46.20102" lon="-1.375">
        <ele>11.5</ele>
        <time>2020-06-02T07:08:56Z</time>
      </trkpt>
      <trkpt lat="46.20105" lon="-1.37499">
        <ele>11.5</ele>
        <time>2020-06-02T07:08:57Z</time>
      </trkpt>
      <trkpt lat="46.20108" lon="-1.37499">
        <ele>11.5</ele>
        <time>2020-06-02T07:08:58Z</time>
      </trkpt>
      <trkpt lat="46.20111" lon="-1.375">
        <ele>11.5</ele>
        <time>2020-06-02T07:08:59Z</time>
      </trkpt>
      <trkpt lat="46.20114" lon="-1.375">
        <ele>11.4</ele>
        <time>2020-06-02T07:09:00Z</time>
      </trkpt>
      <trkpt lat="46.20118" lon="-1.37499">
        <ele>11.3</ele>
        <time>2020-06-02T07:09:01Z</time>
      </trkpt>
      <trkpt lat="46.20121" lon="-1.37499">
        <ele>11.3</ele>
        <time>2020-06-02T07:09:02Z</time>
      </trkpt>
      <trkpt lat="46.20125" lon="-1.37497">
        <ele>11.3</ele>
        <time>2020-06-02T07:09:03Z</time>
      </trkpt>
      <trkpt lat="46.20129" lon="-1.37492">
        <ele>11.3</ele>
        <time>2020-06-02T07:09:04Z</time>
      </trkpt>
      <trkpt lat="46.2013" lon="-1.37483">
        <ele>11.3</ele>
        <time>2020-06-02T07:09:05Z</time>
      </trkpt>
      <trkpt lat="46.20132" lon="-1.37475">
        <ele>11.3</ele>
        <time>2020-06-02T07:09:06Z</time>
      </trkpt>
      <trkpt lat="46.20134" lon="-1.37468">
        <ele>11.3</ele>
        <time>2020-06-02T07:09:07Z</time>
      </trkpt>
      <trkpt lat="46.20136" lon="-1.37461">
        <ele>11.3</ele>
        <time>2020-06-02T07:09:08Z</time>
      </trkpt>
      <trkpt lat="46.20137" lon="-1.37454">
        <ele>11.3</ele>
        <time>2020-06-02T07:09:09Z</time>
      </trkpt>
      <trkpt lat="46.20139" lon="-1.37448">
        <ele>11.3</ele>
        <time>2020-06-02T07:09:10Z</time>
      </trkpt>
      <trkpt lat="46.20141" lon="-1.37441">
        <ele>11.3</ele>
        <time>2020-06-02T07:09:11Z</time>
      </trkpt>
      <trkpt lat="46.20143" lon="-1.37435">
        <ele>11.3</ele>
        <time>2020-06-02T07:09:12Z</time>
      </trkpt>
      <trkpt lat="46.20144" lon="-1.37429">
        <ele>11.3</ele>
        <time>2020-06-02T07:09:13Z</time>
      </trkpt>
      <trkpt lat="46.20146" lon="-1.37425">
        <ele>11.2</ele>
        <time>2020-06-02T07:09:14Z</time>
      </trkpt>
      <trkpt lat="46.20148" lon="-1.37419">
        <ele>11.2</ele>
        <time>2020-06-02T07:09:15Z</time>
      </trkpt>
      <trkpt lat="46.2015" lon="-1.37414">
        <ele>11.1</ele>
        <time>2020-06-02T07:09:16Z</time>
      </trkpt>
      <trkpt lat="46.20154" lon="-1.37409">
        <ele>11.1</ele>
        <time>2020-06-02T07:09:17Z</time>
      </trkpt>
      <trkpt lat="46.20157" lon="-1.37405">
        <ele>11.1</ele>
        <time>2020-06-02T07:09:18Z</time>
      </trkpt>
      <trkpt lat="46.2016" lon="-1.374">
        <ele>11</ele>
        <time>2020-06-02T07:09:19Z</time>
      </trkpt>
      <trkpt lat="46.20163" lon="-1.37395">
        <ele>11</ele>
        <time>2020-06-02T07:09:20Z</time>
      </trkpt>
      <trkpt lat="46.20167" lon="-1.37391">
        <ele>11</ele>
        <time>2020-06-02T07:09:21Z</time>
      </trkpt>
      <trkpt lat="46.20171" lon="-1.37386">
        <ele>10.9</ele>
        <time>2020-06-02T07:09:22Z</time>
      </trkpt>
      <trkpt lat="46.20175" lon="-1.37381">
        <ele>10.9</ele>
        <time>2020-06-02T07:09:23Z</time>
      </trkpt>
      <trkpt lat="46.20179" lon="-1.37376">
        <ele>10.9</ele>
        <time>2020-06-02T07:09:24Z</time>
      </trkpt>
      <trkpt lat="46.20183" lon="-1.37371">
        <ele>10.8</ele>
        <time>2020-06-02T07:09:25Z</time>
      </trkpt>
      <trkpt lat="46.20187" lon="-1.37366">
        <ele>10.8</ele>
        <time>2020-06-02T07:09:26Z</time>
      </trkpt>
      <trkpt lat="46.20191" lon="-1.37362">
        <ele>10.8</ele>
        <time>2020-06-02T07:09:27Z</time>
      </trkpt>
      <trkpt lat="46.20196" lon="-1.37357">
        <ele>10.7</ele>
        <time>2020-06-02T07:09:28Z</time>
      </trkpt>
      <trkpt lat="46.202" lon="-1.37352">
        <ele>10.7</ele>
        <time>2020-06-02T07:09:29Z</time>
      </trkpt>
      <trkpt lat="46.20203" lon="-1.37349">
        <ele>10.7</ele>
        <time>2020-06-02T07:09:30Z</time>
      </trkpt>
      <trkpt lat="46.20205" lon="-1.37344">
        <ele>10.6</ele>
        <time>2020-06-02T07:09:31Z</time>
      </trkpt>
      <trkpt lat="46.20208" lon="-1.37341">
        <ele>10.6</ele>
        <time>2020-06-02T07:09:32Z</time>
      </trkpt>
      <trkpt lat="46.20211" lon="-1.37337">
        <ele>11.3</ele>
        <time>2020-06-02T07:09:33Z</time>
      </trkpt>
      <trkpt lat="46.20214" lon="-1.37334">
        <ele>11.4</ele>
        <time>2020-06-02T07:09:34Z</time>
      </trkpt>
      <trkpt lat="46.20217" lon="-1.37331">
        <ele>11.4</ele>
        <time>2020-06-02T07:09:35Z</time>
      </trkpt>
      <trkpt lat="46.20221" lon="-1.37329">
        <ele>11.5</ele>
        <time>2020-06-02T07:09:36Z</time>
      </trkpt>
      <trkpt lat="46.20224" lon="-1.37327">
        <ele>11.5</ele>
        <time>2020-06-02T07:09:37Z</time>
      </trkpt>
      <trkpt lat="46.20227" lon="-1.37324">
        <ele>11.6</ele>
        <time>2020-06-02T07:09:38Z</time>
      </trkpt>
      <trkpt lat="46.20229" lon="-1.3732">
        <ele>11.6</ele>
        <time>2020-06-02T07:09:39Z</time>
      </trkpt>
      <trkpt lat="46.2023" lon="-1.37318">
        <ele>11.6</ele>
        <time>2020-06-02T07:09:40Z</time>
      </trkpt>
      <trkpt lat="46.2023" lon="-1.37314">
        <ele>11.6</ele>
        <time>2020-06-02T07:09:41Z</time>
      </trkpt>
      <trkpt lat="46.2023" lon="-1.37309">
        <ele>11.6</ele>
        <time>2020-06-02T07:09:42Z</time>
      </trkpt>
      <trkpt lat="46.20229" lon="-1.37307">
        <ele>11.7</ele>
        <time>2020-06-02T07:09:43Z</time>
      </trkpt>
      <trkpt lat="46.20229" lon="-1.37302">
        <ele>11.7</ele>
        <time>2020-06-02T07:09:44Z</time>
      </trkpt>
      <trkpt lat="46.20228" lon="-1.37297">
        <ele>11.7</ele>
        <time>2020-06-02T07:09:45Z</time>
      </trkpt>
      <trkpt lat="46.20227" lon="-1.37291">
        <ele>11.7</ele>
        <time>2020-06-02T07:09:46Z</time>
      </trkpt>
      <trkpt lat="46.20226" lon="-1.37284">
        <ele>11.7</ele>
        <time>2020-06-02T07:09:47Z</time>
      </trkpt>
      <trkpt lat="46.20224" lon="-1.37279">
        <ele>11.8</ele>
        <time>2020-06-02T07:09:48Z</time>
      </trkpt>
      <trkpt lat="46.20221" lon="-1.37272">
        <ele>11.8</ele>
        <time>2020-06-02T07:09:49Z</time>
      </trkpt>
      <trkpt lat="46.20218" lon="-1.37265">
        <ele>11.8</ele>
        <time>2020-06-02T07:09:50Z</time>
      </trkpt>
      <trkpt lat="46.20215" lon="-1.37259">
        <ele>11.9</ele>
        <time>2020-06-02T07:09:51Z</time>
      </trkpt>
      <trkpt lat="46.20211" lon="-1.37255">
        <ele>11.9</ele>
        <time>2020-06-02T07:09:52Z</time>
      </trkpt>
      <trkpt lat="46.20208" lon="-1.3725">
        <ele>11.9</ele>
        <time>2020-06-02T07:09:53Z</time>
      </trkpt>
      <trkpt lat="46.20203" lon="-1.37245">
        <ele>12</ele>
        <time>2020-06-02T07:09:54Z</time>
      </trkpt>
      <trkpt lat="46.20199" lon="-1.3724">
        <ele>12</ele>
        <time>2020-06-02T07:09:55Z</time>
      </trkpt>
      <trkpt lat="46.20196" lon="-1.37238">
        <ele>12</ele>
        <time>2020-06-02T07:09:56Z</time>
      </trkpt>
      <trkpt lat="46.20193" lon="-1.37235">
        <ele>12</ele>
        <time>2020-06-02T07:09:57Z</time>
      </trkpt>
      <trkpt lat="46.2019" lon="-1.37233">
        <ele>12</ele>
        <time>2020-06-02T07:09:58Z</time>
      </trkpt>
      <trkpt lat="46.20187" lon="-1.3723">
        <ele>12</ele>
        <time>2020-06-02T07:09:59Z</time>
      </trkpt>
      <trkpt lat="46.20185" lon="-1.37229">
        <ele>12</ele>
        <time>2020-06-02T07:10:00Z</time>
      </trkpt>
      <trkpt lat="46.20184" lon="-1.37228">
        <ele>12</ele>
        <time>2020-06-02T07:10:01Z</time>
      </trkpt>
      <trkpt lat="46.20182" lon="-1.37225">
        <ele>12</ele>
        <time>2020-06-02T07:10:02Z</time>
      </trkpt>
      <trkpt lat="46.20181" lon="-1.37224">
        <ele>12</ele>
        <time>2020-06-02T07:10:03Z</time>
      </trkpt>
      <trkpt lat="46.20179" lon="-1.3722">
        <ele>12</ele>
        <time>2020-06-02T07:10:04Z</time>
      </trkpt>
      <trkpt lat="46.20179" lon="-1.37219">
        <ele>12</ele>
        <time>2020-06-02T07:10:05Z</time>
      </trkpt>
      <trkpt lat="46.20178" lon="-1.37218">
        <ele>12</ele>
        <time>2020-06-02T07:10:06Z</time>
      </trkpt>
      <trkpt lat="46.20178" lon="-1.37217">
        <ele>12</ele>
        <time>2020-06-02T07:10:07Z</time>
      </trkpt>
      <trkpt lat="46.2018" lon="-1.37215">
        <ele>12.1</ele>
        <time>2020-06-02T07:10:08Z</time>
      </trkpt>
      <trkpt lat="46.20181" lon="-1.37212">
        <ele>12.1</ele>
        <time>2020-06-02T07:10:09Z</time>
      </trkpt>
      <trkpt lat="46.20183" lon="-1.37208">
        <ele>12.1</ele>
        <time>2020-06-02T07:10:10Z</time>
      </trkpt>
      <trkpt lat="46.20186" lon="-1.37205">
        <ele>12.1</ele>
        <time>2020-06-02T07:10:11Z</time>
      </trkpt>
      <trkpt lat="46.20187" lon="-1.372">
        <ele>12.1</ele>
        <time>2020-06-02T07:10:12Z</time>
      </trkpt>
      <trkpt lat="46.20189" lon="-1.37194">
        <ele>12.1</ele>
        <time>2020-06-02T07:10:13Z</time>
      </trkpt>
      <trkpt lat="46.2019" lon="-1.37187">
        <ele>12.1</ele>
        <time>2020-06-02T07:10:14Z</time>
      </trkpt>
      <trkpt lat="46.20192" lon="-1.37181">
        <ele>12.1</ele>
        <time>2020-06-02T07:10:15Z</time>
      </trkpt>
      <trkpt lat="46.20194" lon="-1.37175">
        <ele>12.1</ele>
        <time>2020-06-02T07:10:16Z</time>
      </trkpt>
      <trkpt lat="46.20195" lon="-1.37168">
        <ele>12.2</ele>
        <time>2020-06-02T07:10:17Z</time>
      </trkpt>
      <trkpt lat="46.20196" lon="-1.37162">
        <ele>12.2</ele>
        <time>2020-06-02T07:10:18Z</time>
      </trkpt>
      <trkpt lat="46.20198" lon="-1.37157">
        <ele>12.2</ele>
        <time>2020-06-02T07:10:19Z</time>
      </trkpt>
      <trkpt lat="46.20201" lon="-1.3715">
        <ele>12.2</ele>
        <time>2020-06-02T07:10:20Z</time>
      </trkpt>
      <trkpt lat="46.20203" lon="-1.37144">
        <ele>12.2</ele>
        <time>2020-06-02T07:10:21Z</time>
      </trkpt>
      <trkpt lat="46.20206" lon="-1.37139">
        <ele>12.2</ele>
        <time>2020-06-02T07:10:22Z</time>
      </trkpt>
      <trkpt lat="46.20207" lon="-1.37132">
        <ele>12.2</ele>
        <time>2020-06-02T07:10:23Z</time>
      </trkpt>
      <trkpt lat="46.20208" lon="-1.37127">
        <ele>12.3</ele>
        <time>2020-06-02T07:10:24Z</time>
      </trkpt>
      <trkpt lat="46.2021" lon="-1.37121">
        <ele>12.3</ele>
        <time>2020-06-02T07:10:25Z</time>
      </trkpt>
      <trkpt lat="46.20212" lon="-1.37115">
        <ele>12.3</ele>
        <time>2020-06-02T07:10:26Z</time>
      </trkpt>
      <trkpt lat="46.20214" lon="-1.37108">
        <ele>12.3</ele>
        <time>2020-06-02T07:10:27Z</time>
      </trkpt>
      <trkpt lat="46.20216" lon="-1.37101">
        <ele>12.3</ele>
        <time>2020-06-02T07:10:28Z</time>
      </trkpt>
      <trkpt lat="46.20217" lon="-1.37093">
        <ele>12.4</ele>
        <time>2020-06-02T07:10:29Z</time>
      </trkpt>
      <trkpt lat="46.20218" lon="-1.37086">
        <ele>12.4</ele>
        <time>2020-06-02T07:10:30Z</time>
      </trkpt>
      <trkpt lat="46.20219" lon="-1.37079">
        <ele>12.4</ele>
        <time>2020-06-02T07:10:31Z</time>
      </trkpt>
      <trkpt lat="46.2022" lon="-1.37073">
        <ele>12.4</ele>
        <time>2020-06-02T07:10:32Z</time>
      </trkpt>
      <trkpt lat="46.20222" lon="-1.37067">
        <ele>12.4</ele>
        <time>2020-06-02T07:10:33Z</time>
      </trkpt>
      <trkpt lat="46.20223" lon="-1.3706">
        <ele>12.4</ele>
        <time>2020-06-02T07:10:34Z</time>
      </trkpt>
      <trkpt lat="46.20224" lon="-1.37054">
        <ele>12.4</ele>
        <time>2020-06-02T07:10:35Z</time>
      </trkpt>
      <trkpt lat="46.20223" lon="-1.37049">
        <ele>12.4</ele>
        <time>2020-06-02T07:10:36Z</time>
      </trkpt>
      <trkpt lat="46.20222" lon="-1.37043">
        <ele>12.5</ele>
        <time>2020-06-02T07:10:37Z</time>
      </trkpt>
      <trkpt lat="46.20218" lon="-1.3704">
        <ele>12.5</ele>
        <time>2020-06-02T07:10:38Z</time>
      </trkpt>
      <trkpt lat="46.20216" lon="-1.37035">
        <ele>12.6</ele>
        <time>2020-06-02T07:10:39Z</time>
      </trkpt>
      <trkpt lat="46.20216" lon="-1.3703">
        <ele>12.6</ele>
        <time>2020-06-02T07:10:40Z</time>
      </trkpt>
      <trkpt lat="46.20216" lon="-1.37023">
        <ele>12.6</ele>
        <time>2020-06-02T07:10:41Z</time>
      </trkpt>
      <trkpt lat="46.20216" lon="-1.37017">
        <ele>12.7</ele>
        <time>2020-06-02T07:10:42Z</time>
      </trkpt>
      <trkpt lat="46.20216" lon="-1.3701">
        <ele>12.7</ele>
        <time>2020-06-02T07:10:43Z</time>
      </trkpt>
      <trkpt lat="46.20216" lon="-1.37003">
        <ele>12.7</ele>
        <time>2020-06-02T07:10:44Z</time>
      </trkpt>
      <trkpt lat="46.20217" lon="-1.36997">
        <ele>12.7</ele>
        <time>2020-06-02T07:10:45Z</time>
      </trkpt>
      <trkpt lat="46.20217" lon="-1.3699">
        <ele>12.8</ele>
        <time>2020-06-02T07:10:46Z</time>
      </trkpt>
      <trkpt lat="46.20218" lon="-1.36984">
        <ele>12.8</ele>
        <time>2020-06-02T07:10:47Z</time>
      </trkpt>
      <trkpt lat="46.20218" lon="-1.36977">
        <ele>12.8</ele>
        <time>2020-06-02T07:10:48Z</time>
      </trkpt>
      <trkpt lat="46.20218" lon="-1.36971">
        <ele>12.8</ele>
        <time>2020-06-02T07:10:49Z</time>
      </trkpt>
      <trkpt lat="46.20217" lon="-1.36965">
        <ele>12.9</ele>
        <time>2020-06-02T07:10:50Z</time>
      </trkpt>
      <trkpt lat="46.20217" lon="-1.36959">
        <ele>12.9</ele>
        <time>2020-06-02T07:10:51Z</time>
      </trkpt>
      <trkpt lat="46.20218" lon="-1.36953">
        <ele>12.9</ele>
        <time>2020-06-02T07:10:52Z</time>
      </trkpt>
      <trkpt lat="46.20218" lon="-1.36947">
        <ele>13</ele>
        <time>2020-06-02T07:10:53Z</time>
      </trkpt>
      <trkpt lat="46.20218" lon="-1.36941">
        <ele>13</ele>
        <time>2020-06-02T07:10:54Z</time>
      </trkpt>
      <trkpt lat="46.20217" lon="-1.36936">
        <ele>13</ele>
        <time>2020-06-02T07:10:55Z</time>
      </trkpt>
      <trkpt lat="46.20216" lon="-1.36931">
        <ele>13</ele>
        <time>2020-06-02T07:10:56Z</time>
      </trkpt>
      <trkpt lat="46.20215" lon="-1.36926">
        <ele>13.1</ele>
        <time>2020-06-02T07:10:57Z</time>
      </trkpt>
      <trkpt lat="46.20214" lon="-1.36921">
        <ele>13.1</ele>
        <time>2020-06-02T07:10:58Z</time>
      </trkpt>
      <trkpt lat="46.20213" lon="-1.36916">
        <ele>13.1</ele>
        <time>2020-06-02T07:10:59Z</time>
      </trkpt>
      <trkpt lat="46.20212" lon="-1.3691">
        <ele>13.1</ele>
        <time>2020-06-02T07:11:00Z</time>
      </trkpt>
      <trkpt lat="46.20212" lon="-1.36905">
        <ele>13.1</ele>
        <time>2020-06-02T07:11:01Z</time>
      </trkpt>
      <trkpt lat="46.2021" lon="-1.369">
        <ele>13.2</ele>
        <time>2020-06-02T07:11:02Z</time>
      </trkpt>
      <trkpt lat="46.2021" lon="-1.36895">
        <ele>13.2</ele>
        <time>2020-06-02T07:11:03Z</time>
      </trkpt>
      <trkpt lat="46.20209" lon="-1.3689">
        <ele>13.2</ele>
        <time>2020-06-02T07:11:04Z</time>
      </trkpt>
      <trkpt lat="46.20209" lon="-1.36889">
        <ele>13.2</ele>
        <time>2020-06-02T07:11:05Z</time>
      </trkpt>
      <trkpt lat="46.2021" lon="-1.36885">
        <ele>13.2</ele>
        <time>2020-06-02T07:11:06Z</time>
      </trkpt>
      <trkpt lat="46.20209" lon="-1.36883">
        <ele>13.2</ele>
        <time>2020-06-02T07:11:07Z</time>
      </trkpt>
      <trkpt lat="46.20209" lon="-1.36881">
        <ele>13.2</ele>
        <time>2020-06-02T07:11:08Z</time>
      </trkpt>
      <trkpt lat="46.20208" lon="-1.36882">
        <ele>13.4</ele>
        <time>2020-06-02T07:11:09Z</time>
      </trkpt>
      <trkpt lat="46.20208" lon="-1.36882">
        <ele>13.4</ele>
        <time>2020-06-02T07:11:10Z</time>
      </trkpt>
      <trkpt lat="46.20207" lon="-1.36881">
        <ele>13.4</ele>
        <time>2020-06-02T07:11:11Z</time>
      </trkpt>
      <trkpt lat="46.20206" lon="-1.36879">
        <ele>13.4</ele>
        <time>2020-06-02T07:11:12Z</time>
      </trkpt>
      <trkpt lat="46.20205" lon="-1.36879">
        <ele>13.4</ele>
        <time>2020-06-02T07:11:13Z</time>
      </trkpt>
      <trkpt lat="46.20204" lon="-1.36879">
        <ele>13.4</ele>
        <time>2020-06-02T07:11:14Z</time>
      </trkpt>
      <trkpt lat="46.20202" lon="-1.36878">
        <ele>13.4</ele>
        <time>2020-06-02T07:11:15Z</time>
      </trkpt>
      <trkpt lat="46.20199" lon="-1.3688">
        <ele>13.5</ele>
        <time>2020-06-02T07:11:16Z</time>
      </trkpt>
      <trkpt lat="46.20198" lon="-1.36879">
        <ele>13.5</ele>
        <time>2020-06-02T07:11:17Z</time>
      </trkpt>
      <trkpt lat="46.20194" lon="-1.36879">
        <ele>13.5</ele>
        <time>2020-06-02T07:11:18Z</time>
      </trkpt>
      <trkpt lat="46.20193" lon="-1.36878">
        <ele>13.6</ele>
        <time>2020-06-02T07:11:19Z</time>
      </trkpt>
      <trkpt lat="46.2019" lon="-1.36877">
        <ele>13.6</ele>
        <time>2020-06-02T07:11:20Z</time>
      </trkpt>
      <trkpt lat="46.20189" lon="-1.36877">
        <ele>13.6</ele>
        <time>2020-06-02T07:11:21Z</time>
      </trkpt>
      <trkpt lat="46.20186" lon="-1.36876">
        <ele>13.7</ele>
        <time>2020-06-02T07:11:22Z</time>
      </trkpt>
      <trkpt lat="46.20185" lon="-1.36876">
        <ele>13.7</ele>
        <time>2020-06-02T07:11:23Z</time>
      </trkpt>
      <trkpt lat="46.20182" lon="-1.36876">
        <ele>13.7</ele>
        <time>2020-06-02T07:11:24Z</time>
      </trkpt>
      <trkpt lat="46.20181" lon="-1.36875">
        <ele>13.7</ele>
        <time>2020-06-02T07:11:25Z</time>
      </trkpt>
      <trkpt lat="46.2018" lon="-1.36876">
        <ele>13.8</ele>
        <time>2020-06-02T07:11:26Z</time>
      </trkpt>
      <trkpt lat="46.20179" lon="-1.36875">
        <ele>13.8</ele>
        <time>2020-06-02T07:11:27Z</time>
      </trkpt>
      <trkpt lat="46.20178" lon="-1.36876">
        <ele>13.9</ele>
        <time>2020-06-02T07:11:28Z</time>
      </trkpt>
      <trkpt lat="46.20178" lon="-1.36879">
        <ele>13.9</ele>
        <time>2020-06-02T07:11:29Z</time>
      </trkpt>
      <trkpt lat="46.20177" lon="-1.36877">
        <ele>14</ele>
        <time>2020-06-02T07:11:30Z</time>
      </trkpt>
      <trkpt lat="46.20177" lon="-1.36877">
        <ele>14</ele>
        <time>2020-06-02T07:11:31Z</time>
      </trkpt>
      <trkpt lat="46.20178" lon="-1.36877">
        <ele>14</ele>
        <time>2020-06-02T07:11:32Z</time>
      </trkpt>
      <trkpt lat="46.20179" lon="-1.36876">
        <ele>14</ele>
        <time>2020-06-02T07:11:33Z</time>
      </trkpt>
      <trkpt lat="46.20179" lon="-1.36876">
        <ele>14</ele>
        <time>2020-06-02T07:11:34Z</time>
      </trkpt>
      <trkpt lat="46.20179" lon="-1.36876">
        <ele>14</ele>
        <time>2020-06-02T07:11:35Z</time>
      </trkpt>
      <trkpt lat="46.20179" lon="-1.36876">
        <ele>14</ele>
        <time>2020-06-02T07:11:36Z</time>
      </trkpt>
      <trkpt lat="46.20179" lon="-1.36876">
        <ele>14</ele>
        <time>2020-06-02T07:11:37Z</time>
      </trkpt>
      <trkpt lat="46.20179" lon="-1.36875">
        <ele>14</ele>
        <time>2020-06-02T07:11:38Z</time>
      </trkpt>
      <trkpt lat="46.20178" lon="-1.36875">
        <ele>14</ele>
        <time>2020-06-02T07:11:39Z</time>
      </trkpt>
      <trkpt lat="46.20178" lon="-1.36873">
        <ele>14.1</ele>
        <time>2020-06-02T07:11:40Z</time>
      </trkpt>
      <trkpt lat="46.20178" lon="-1.36871">
        <ele>14.1</ele>
        <time>2020-06-02T07:11:41Z</time>
      </trkpt>
      <trkpt lat="46.20178" lon="-1.36869">
        <ele>14.1</ele>
        <time>2020-06-02T07:11:42Z</time>
      </trkpt>
      <trkpt lat="46.20178" lon="-1.36869">
        <ele>14.1</ele>
        <time>2020-06-02T07:11:43Z</time>
      </trkpt>
      <trkpt lat="46.20178" lon="-1.36868">
        <ele>14.1</ele>
        <time>2020-06-02T07:11:44Z</time>
      </trkpt>
      <trkpt lat="46.20178" lon="-1.36867">
        <ele>14.1</ele>
        <time>2020-06-02T07:11:45Z</time>
      </trkpt>
      <trkpt lat="46.20178" lon="-1.36866">
        <ele>14.1</ele>
        <time>2020-06-02T07:11:46Z</time>
      </trkpt>
      <trkpt lat="46.20177" lon="-1.36866">
        <ele>14.1</ele>
        <time>2020-06-02T07:11:47Z</time>
      </trkpt>
      <trkpt lat="46.20177" lon="-1.36865">
        <ele>14.1</ele>
        <time>2020-06-02T07:11:48Z</time>
      </trkpt>
      <trkpt lat="46.20177" lon="-1.36865">
        <ele>14.1</ele>
        <time>2020-06-02T07:11:49Z</time>
      </trkpt>
      <trkpt lat="46.20177" lon="-1.36865">
        <ele>14.1</ele>
        <time>2020-06-02T07:11:50Z</time>
      </trkpt>
      <trkpt lat="46.20177" lon="-1.36865">
        <ele>14.1</ele>
        <time>2020-06-02T07:11:51Z</time>
      </trkpt>
      <trkpt lat="46.20177" lon="-1.36865">
        <ele>14.1</ele>
        <time>2020-06-02T07:11:52Z</time>
      </trkpt>
      <trkpt lat="46.20177" lon="-1.36865">
        <ele>14.1</ele>
        <time>2020-06-02T07:11:53Z</time>
      </trkpt>
      <trkpt lat="46.20177" lon="-1.36865">
        <ele>14.1</ele>
        <time>2020-06-02T07:11:54Z</time>
      </trkpt>
      <trkpt lat="46.20177" lon="-1.36865">
        <ele>14.1</ele>
        <time>2020-06-02T07:11:55Z</time>
      </trkpt>
      <trkpt lat="46.20177" lon="-1.36865">
        <ele>14.1</ele>
        <time>2020-06-02T07:11:56Z</time>
      </trkpt>
      <trkpt lat="46.20177" lon="-1.36865">
        <ele>14.1</ele>
        <time>2020-06-02T07:11:57Z</time>
      </trkpt>
      <trkpt lat="46.20177" lon="-1.36865">
        <ele>14.1</ele>
        <time>2020-06-02T07:11:58Z</time>
      </trkpt>
      <trkpt lat="46.20177" lon="-1.36865">
        <ele>14.1</ele>
        <time>2020-06-02T07:11:59Z</time>
      </trkpt>
      <trkpt lat="46.20177" lon="-1.36865">
        <ele>14.1</ele>
        <time>2020-06-02T07:12:00Z</time>
      </trkpt>
      <trkpt lat="46.20177" lon="-1.36865">
        <ele>14.1</ele>
        <time>2020-06-02T07:12:01Z</time>
      </trkpt>
      <trkpt lat="46.20177" lon="-1.36865">
        <ele>14.1</ele>
        <time>2020-06-02T07:12:02Z</time>
      </trkpt>
      <trkpt lat="46.20177" lon="-1.36865">
        <ele>14.1</ele>
        <time>2020-06-02T07:12:03Z</time>
      </trkpt>
      <trkpt lat="46.20177" lon="-1.36865">
        <ele>14.1</ele>
        <time>2020-06-02T07:12:04Z</time>
      </trkpt>
      <trkpt lat="46.20177" lon="-1.36865">
        <ele>14.1</ele>
        <time>2020-06-02T07:12:05Z</time>
      </trkpt>
      <trkpt lat="46.20177" lon="-1.36865">
        <ele>14.1</ele>
        <time>2020-06-02T07:12:06Z</time>
      </trkpt>
      <trkpt lat="46.20177" lon="-1.36865">
        <ele>14.1</ele>
        <time>2020-06-02T07:12:07Z</time>
      </trkpt>
      <trkpt lat="46.20177" lon="-1.36865">
        <ele>14.1</ele>
        <time>2020-06-02T07:12:08Z</time>
      </trkpt>
      <trkpt lat="46.20177" lon="-1.36865">
        <ele>14.1</ele>
        <time>2020-06-02T07:12:09Z</time>
      </trkpt>
      <trkpt lat="46.20177" lon="-1.36865">
        <ele>14.1</ele>
        <time>2020-06-02T07:12:10Z</time>
      </trkpt>
      <trkpt lat="46.20177" lon="-1.36865">
        <ele>14.1</ele>
        <time>2020-06-02T07:12:11Z</time>
      </trkpt>
      <trkpt lat="46.20177" lon="-1.36865">
        <ele>14.1</ele>
        <time>2020-06-02T07:12:12Z</time>
      </trkpt>
      <trkpt lat="46.20177" lon="-1.36865">
        <ele>14.1</ele>
        <time>2020-06-02T07:12:13Z</time>
      </trkpt>
      <trkpt lat="46.20177" lon="-1.36865">
        <ele>14.1</ele>
        <time>2020-06-02T07:12:14Z</time>
      </trkpt>
      <trkpt lat="46.20177" lon="-1.36865">
        <ele>14.1</ele>
        <time>2020-06-02T07:12:15Z</time>
      </trkpt>
      <trkpt lat="46.20177" lon="-1.36865">
        <ele>14.1</ele>
        <time>2020-06-02T07:12:16Z</time>
      </trkpt>
      <trkpt lat="46.20177" lon="-1.36865">
        <ele>14.1</ele>
        <time>2020-06-02T07:12:17Z</time>
      </trkpt>
      <trkpt lat="46.20177" lon="-1.36865">
        <ele>14.1</ele>
        <time>2020-06-02T07:12:18Z</time>
      </trkpt>
      <trkpt lat="46.20177" lon="-1.36865">
        <ele>14.1</ele>
        <time>2020-06-02T07:12:19Z</time>
      </trkpt>
      <trkpt lat="46.20177" lon="-1.36865">
        <ele>14.1</ele>
        <time>2020-06-02T07:12:20Z</time>
      </trkpt>
      <trkpt lat="46.20177" lon="-1.36865">
        <ele>14.1</ele>
        <time>2020-06-02T07:12:21Z</time>
      </trkpt>
      <trkpt lat="46.20177" lon="-1.36865">
        <ele>14.1</ele>
        <time>2020-06-02T07:12:22Z</time>
      </trkpt>
      <trkpt lat="46.20177" lon="-1.36865">
        <ele>14.1</ele>
        <time>2020-06-02T07:12:23Z</time>
      </trkpt>
      <trkpt lat="46.20177" lon="-1.36865">
        <ele>14.1</ele>
        <time>2020-06-02T07:12:24Z</time>
      </trkpt>
      <trkpt lat="46.20177" lon="-1.36865">
        <ele>14.1</ele>
        <time>2020-06-02T07:12:25Z</time>
      </trkpt>
      <trkpt lat="46.20177" lon="-1.36865">
        <ele>14.1</ele>
        <time>2020-06-02T07:12:26Z</time>
      </trkpt>
      <trkpt lat="46.20177" lon="-1.36865">
        <ele>14.1</ele>
        <time>2020-06-02T07:12:27Z</time>
      </trkpt>
      <trkpt lat="46.20177" lon="-1.36865">
        <ele>14.1</ele>
        <time>2020-06-02T07:12:28Z</time>
      </trkpt>
      <trkpt lat="46.20177" lon="-1.36865">
        <ele>14.1</ele>
        <time>2020-06-02T07:12:29Z</time>
      </trkpt>
      <trkpt lat="46.20177" lon="-1.36865">
        <ele>14.1</ele>
        <time>2020-06-02T07:12:30Z</time>
      </trkpt>
      <trkpt lat="46.20177" lon="-1.36865">
        <ele>14.1</ele>
        <time>2020-06-02T07:12:31Z</time>
      </trkpt>
      <trkpt lat="46.20177" lon="-1.36865">
        <ele>14.1</ele>
        <time>2020-06-02T07:12:32Z</time>
      </trkpt>
      <trkpt lat="46.20177" lon="-1.36865">
        <ele>14.1</ele>
        <time>2020-06-02T07:12:33Z</time>
      </trkpt>
      <trkpt lat="46.20177" lon="-1.36865">
        <ele>14.1</ele>
        <time>2020-06-02T07:12:34Z</time>
      </trkpt>
      <trkpt lat="46.20177" lon="-1.36865">
        <ele>14.1</ele>
        <time>2020-06-02T07:12:35Z</time>
      </trkpt>
      <trkpt lat="46.20177" lon="-1.36865">
        <ele>14.1</ele>
        <time>2020-06-02T07:12:36Z</time>
      </trkpt>
      <trkpt lat="46.20177" lon="-1.36865">
        <ele>14.1</ele>
        <time>2020-06-02T07:12:37Z</time>
      </trkpt>
      <trkpt lat="46.20177" lon="-1.36865">
        <ele>14.1</ele>
        <time>2020-06-02T07:12:38Z</time>
      </trkpt>
      <trkpt lat="46.20177" lon="-1.36865">
        <ele>14.1</ele>
        <time>2020-06-02T07:12:39Z</time>
      </trkpt>
      <trkpt lat="46.20177" lon="-1.36865">
        <ele>14.1</ele>
        <time>2020-06-02T07:12:40Z</time>
      </trkpt>
      <trkpt lat="46.20177" lon="-1.36865">
        <ele>14.1</ele>
        <time>2020-06-02T07:12:41Z</time>
      </trkpt>
      <trkpt lat="46.20177" lon="-1.36865">
        <ele>14.1</ele>
        <time>2020-06-02T07:12:42Z</time>
      </trkpt>
      <trkpt lat="46.20177" lon="-1.36865">
        <ele>14.1</ele>
        <time>2020-06-02T07:12:43Z</time>
      </trkpt>
      <trkpt lat="46.20177" lon="-1.36865">
        <ele>14.1</ele>
        <time>2020-06-02T07:12:44Z</time>
      </trkpt>
      <trkpt lat="46.20177" lon="-1.36865">
        <ele>14.1</ele>
        <time>2020-06-02T07:12:45Z</time>
      </trkpt>
      <trkpt lat="46.20177" lon="-1.36865">
        <ele>14.1</ele>
        <time>2020-06-02T07:12:46Z</time>
      </trkpt>
      <trkpt lat="46.20177" lon="-1.36865">
        <ele>14.1</ele>
        <time>2020-06-02T07:12:47Z</time>
      </trkpt>
      <trkpt lat="46.20177" lon="-1.36865">
        <ele>14.1</ele>
        <time>2020-06-02T07:12:48Z</time>
      </trkpt>
      <trkpt lat="46.20177" lon="-1.36865">
        <ele>14.1</ele>
        <time>2020-06-02T07:12:49Z</time>
      </trkpt>
      <trkpt lat="46.20177" lon="-1.36865">
        <ele>14.1</ele>
        <time>2020-06-02T07:12:50Z</time>
      </trkpt>
      <trkpt lat="46.20177" lon="-1.36865">
        <ele>14.1</ele>
        <time>2020-06-02T07:12:51Z</time>
      </trkpt>
      <trkpt lat="46.20177" lon="-1.36865">
        <ele>14.1</ele>
        <time>2020-06-02T07:12:52Z</time>
      </trkpt>
      <trkpt lat="46.20177" lon="-1.36865">
        <ele>14.1</ele>
        <time>2020-06-02T07:12:53Z</time>
      </trkpt>
      <trkpt lat="46.20177" lon="-1.36865">
        <ele>14.1</ele>
        <time>2020-06-02T07:12:54Z</time>
      </trkpt>
      <trkpt lat="46.20177" lon="-1.36865">
        <ele>14.1</ele>
        <time>2020-06-02T07:12:55Z</time>
      </trkpt>
      <trkpt lat="46.20177" lon="-1.36865">
        <ele>14.1</ele>
        <time>2020-06-02T07:12:56Z</time>
      </trkpt>
      <trkpt lat="46.20177" lon="-1.36865">
        <ele>14.1</ele>
        <time>2020-06-02T07:12:57Z</time>
      </trkpt>
      <trkpt lat="46.20177" lon="-1.36865">
        <ele>14.1</ele>
        <time>2020-06-02T07:12:58Z</time>
      </trkpt>
      <trkpt lat="46.20177" lon="-1.36865">
        <ele>14.1</ele>
        <time>2020-06-02T07:12:59Z</time>
      </trkpt>
      <trkpt lat="46.20177" lon="-1.36865">
        <ele>14.1</ele>
        <time>2020-06-02T07:13:00Z</time>
      </trkpt>
      <trkpt lat="46.20177" lon="-1.36865">
        <ele>14.1</ele>
        <time>2020-06-02T07:13:01Z</time>
      </trkpt>
      <trkpt lat="46.20177" lon="-1.36865">
        <ele>14.1</ele>
        <time>2020-06-02T07:13:02Z</time>
      </trkpt>
      <trkpt lat="46.20177" lon="-1.36865">
        <ele>14.1</ele>
        <time>2020-06-02T07:13:03Z</time>
      </trkpt>
      <trkpt lat="46.20177" lon="-1.36865">
        <ele>14.1</ele>
        <time>2020-06-02T07:13:04Z</time>
      </trkpt>
      <trkpt lat="46.20177" lon="-1.36865">
        <ele>14.1</ele>
        <time>2020-06-02T07:13:05Z</time>
      </trkpt>
      <trkpt lat="46.20177" lon="-1.36865">
        <ele>14.1</ele>
        <time>2020-06-02T07:13:06Z</time>
      </trkpt>
      <trkpt lat="46.20177" lon="-1.36865">
        <ele>14.1</ele>
        <time>2020-06-02T07:13:07Z</time>
      </trkpt>
      <trkpt lat="46.20177" lon="-1.36865">
        <ele>14.1</ele>
        <time>2020-06-02T07:13:08Z</time>
      </trkpt>
      <trkpt lat="46.20177" lon="-1.36865">
        <ele>14.1</ele>
        <time>2020-06-02T07:13:09Z</time>
      </trkpt>
      <trkpt lat="46.20177" lon="-1.36865">
        <ele>14.1</ele>
        <time>2020-06-02T07:13:10Z</time>
      </trkpt>
      <trkpt lat="46.20177" lon="-1.36865">
        <ele>14.1</ele>
        <time>2020-06-02T07:13:11Z</time>
      </trkpt>
      <trkpt lat="46.20177" lon="-1.36865">
        <ele>14.1</ele>
        <time>2020-06-02T07:13:12Z</time>
      </trkpt>
      <trkpt lat="46.20177" lon="-1.36865">
        <ele>14.1</ele>
        <time>2020-06-02T07:13:13Z</time>
      </trkpt>
      <trkpt lat="46.20177" lon="-1.36865">
        <ele>14.1</ele>
        <time>2020-06-02T07:13:14Z</time>
      </trkpt>
      <trkpt lat="46.20177" lon="-1.36865">
        <ele>14.1</ele>
        <time>2020-06-02T07:13:15Z</time>
      </trkpt>
      <trkpt lat="46.20177" lon="-1.36865">
        <ele>14.1</ele>
        <time>2020-06-02T07:13:16Z</time>
      </trkpt>
      <trkpt lat="46.20177" lon="-1.36865">
        <ele>14.1</ele>
        <time>2020-06-02T07:13:17Z</time>
      </trkpt>
      <trkpt lat="46.20177" lon="-1.36865">
        <ele>14.1</ele>
        <time>2020-06-02T07:13:18Z</time>
      </trkpt>
      <trkpt lat="46.20177" lon="-1.36865">
        <ele>14.1</ele>
        <time>2020-06-02T07:13:19Z</time>
      </trkpt>
      <trkpt lat="46.20177" lon="-1.36865">
        <ele>14.1</ele>
        <time>2020-06-02T07:13:20Z</time>
      </trkpt>
      <trkpt lat="46.20177" lon="-1.36865">
        <ele>14.1</ele>
        <time>2020-06-02T07:13:21Z</time>
      </trkpt>
      <trkpt lat="46.20177" lon="-1.36865">
        <ele>14.1</ele>
        <time>2020-06-02T07:13:22Z</time>
      </trkpt>
      <trkpt lat="46.20177" lon="-1.36865">
        <ele>14.1</ele>
        <time>2020-06-02T07:13:23Z</time>
      </trkpt>
      <trkpt lat="46.20177" lon="-1.36865">
        <ele>14.1</ele>
        <time>2020-06-02T07:13:24Z</time>
      </trkpt>
      <trkpt lat="46.20177" lon="-1.36865">
        <ele>14.1</ele>
        <time>2020-06-02T07:13:25Z</time>
      </trkpt>
      <trkpt lat="46.20177" lon="-1.36865">
        <ele>14.1</ele>
        <time>2020-06-02T07:13:26Z</time>
      </trkpt>
      <trkpt lat="46.20177" lon="-1.36865">
        <ele>14.1</ele>
        <time>2020-06-02T07:13:27Z</time>
      </trkpt>
      <trkpt lat="46.20177" lon="-1.36865">
        <ele>14.1</ele>
        <time>2020-06-02T07:13:28Z</time>
      </trkpt>
      <trkpt lat="46.20177" lon="-1.36865">
        <ele>14.1</ele>
        <time>2020-06-02T07:13:29Z</time>
      </trkpt>
      <trkpt lat="46.20177" lon="-1.36865">
        <ele>14.1</ele>
        <time>2020-06-02T07:13:30Z</time>
      </trkpt>
      <trkpt lat="46.20177" lon="-1.36865">
        <ele>14.1</ele>
        <time>2020-06-02T07:13:31Z</time>
      </trkpt>
      <trkpt lat="46.20177" lon="-1.36865">
        <ele>14.1</ele>
        <time>2020-06-02T07:13:32Z</time>
      </trkpt>
      <trkpt lat="46.20177" lon="-1.36865">
        <ele>14.1</ele>
        <time>2020-06-02T07:13:33Z</time>
      </trkpt>
      <trkpt lat="46.20177" lon="-1.36865">
        <ele>14.1</ele>
        <time>2020-06-02T07:13:34Z</time>
      </trkpt>
      <trkpt lat="46.20177" lon="-1.36865">
        <ele>14.1</ele>
        <time>2020-06-02T07:13:35Z</time>
      </trkpt>
      <trkpt lat="46.20177" lon="-1.36865">
        <ele>14.1</ele>
        <time>2020-06-02T07:13:36Z</time>
      </trkpt>
      <trkpt lat="46.20177" lon="-1.36865">
        <ele>14.1</ele>
        <time>2020-06-02T07:13:37Z</time>
      </trkpt>
      <trkpt lat="46.20177" lon="-1.36865">
        <ele>14.1</ele>
        <time>2020-06-02T07:13:38Z</time>
      </trkpt>
      <trkpt lat="46.20177" lon="-1.36865">
        <ele>14.1</ele>
        <time>2020-06-02T07:13:39Z</time>
      </trkpt>
      <trkpt lat="46.20177" lon="-1.36865">
        <ele>14.1</ele>
        <time>2020-06-02T07:13:40Z</time>
      </trkpt>
      <trkpt lat="46.20177" lon="-1.36865">
        <ele>14.1</ele>
        <time>2020-06-02T07:13:41Z</time>
      </trkpt>
      <trkpt lat="46.20177" lon="-1.36865">
        <ele>14.1</ele>
        <time>2020-06-02T07:13:42Z</time>
      </trkpt>
      <trkpt lat="46.20177" lon="-1.36865">
        <ele>14.1</ele>
        <time>2020-06-02T07:13:43Z</time>
      </trkpt>
      <trkpt lat="46.20177" lon="-1.36865">
        <ele>14.1</ele>
        <time>2020-06-02T07:13:44Z</time>
      </trkpt>
      <trkpt lat="46.20177" lon="-1.36865">
        <ele>14.1</ele>
        <time>2020-06-02T07:13:45Z</time>
      </trkpt>
      <trkpt lat="46.20177" lon="-1.36865">
        <ele>14.1</ele>
        <time>2020-06-02T07:13:46Z</time>
      </trkpt>
      <trkpt lat="46.20177" lon="-1.36865">
        <ele>14.1</ele>
        <time>2020-06-02T07:13:47Z</time>
      </trkpt>
      <trkpt lat="46.20177" lon="-1.36865">
        <ele>14.1</ele>
        <time>2020-06-02T07:13:48Z</time>
      </trkpt>
      <trkpt lat="46.20177" lon="-1.36865">
        <ele>14.1</ele>
        <time>2020-06-02T07:13:49Z</time>
      </trkpt>
      <trkpt lat="46.20177" lon="-1.36865">
        <ele>14.1</ele>
        <time>2020-06-02T07:13:50Z</time>
      </trkpt>
      <trkpt lat="46.20177" lon="-1.36865">
        <ele>14.1</ele>
        <time>2020-06-02T07:13:51Z</time>
      </trkpt>
      <trkpt lat="46.20177" lon="-1.36865">
        <ele>14.1</ele>
        <time>2020-06-02T07:13:52Z</time>
      </trkpt>
      <trkpt lat="46.20177" lon="-1.36865">
        <ele>14.1</ele>
        <time>2020-06-02T07:13:53Z</time>
      </trkpt>
      <trkpt lat="46.20177" lon="-1.36865">
        <ele>14.1</ele>
        <time>2020-06-02T07:13:54Z</time>
      </trkpt>
      <trkpt lat="46.20177" lon="-1.36865">
        <ele>14.1</ele>
        <time>2020-06-02T07:13:55Z</time>
      </trkpt>
      <trkpt lat="46.20177" lon="-1.36865">
        <ele>14.1</ele>
        <time>2020-06-02T07:13:56Z</time>
      </trkpt>
      <trkpt lat="46.20177" lon="-1.36865">
        <ele>14.1</ele>
        <time>2020-06-02T07:13:57Z</time>
      </trkpt>
      <trkpt lat="46.20177" lon="-1.36865">
        <ele>14.1</ele>
        <time>2020-06-02T07:13:58Z</time>
      </trkpt>
      <trkpt lat="46.20177" lon="-1.36865">
        <ele>14.1</ele>
        <time>2020-06-02T07:13:59Z</time>
      </trkpt>
      <trkpt lat="46.20177" lon="-1.36865">
        <ele>14.1</ele>
        <time>2020-06-02T07:14:00Z</time>
      </trkpt>
      <trkpt lat="46.20177" lon="-1.36865">
        <ele>14.1</ele>
        <time>2020-06-02T07:14:01Z</time>
      </trkpt>
      <trkpt lat="46.20177" lon="-1.36865">
        <ele>14.1</ele>
        <time>2020-06-02T07:14:02Z</time>
      </trkpt>
      <trkpt lat="46.20177" lon="-1.36865">
        <ele>14.1</ele>
        <time>2020-06-02T07:14:03Z</time>
      </trkpt>
      <trkpt lat="46.20177" lon="-1.36865">
        <ele>14.1</ele>
        <time>2020-06-02T07:14:04Z</time>
      </trkpt>
      <trkpt lat="46.20177" lon="-1.36865">
        <ele>14.1</ele>
        <time>2020-06-02T07:14:05Z</time>
      </trkpt>
      <trkpt lat="46.20177" lon="-1.36865">
        <ele>14.1</ele>
        <time>2020-06-02T07:14:06Z</time>
      </trkpt>
      <trkpt lat="46.20177" lon="-1.36865">
        <ele>14.1</ele>
        <time>2020-06-02T07:14:07Z</time>
      </trkpt>
      <trkpt lat="46.20177" lon="-1.36865">
        <ele>14.1</ele>
        <time>2020-06-02T07:14:08Z</time>
      </trkpt>
      <trkpt lat="46.20177" lon="-1.36865">
        <ele>14.1</ele>
        <time>2020-06-02T07:14:09Z</time>
      </trkpt>
      <trkpt lat="46.20177" lon="-1.36865">
        <ele>14.1</ele>
        <time>2020-06-02T07:14:10Z</time>
      </trkpt>
      <trkpt lat="46.20178" lon="-1.36862">
        <ele>14.1</ele>
        <time>2020-06-02T07:14:11Z</time>
      </trkpt>
      <trkpt lat="46.20178" lon="-1.36862">
        <ele>14.1</ele>
        <time>2020-06-02T07:14:12Z</time>
      </trkpt>
      <trkpt lat="46.20178" lon="-1.36862">
        <ele>14.1</ele>
        <time>2020-06-02T07:14:13Z</time>
      </trkpt>
      <trkpt lat="46.20178" lon="-1.36862">
        <ele>14.1</ele>
        <time>2020-06-02T07:14:14Z</time>
      </trkpt>
      <trkpt lat="46.20178" lon="-1.36862">
        <ele>14.1</ele>
        <time>2020-06-02T07:14:15Z</time>
      </trkpt>
      <trkpt lat="46.20178" lon="-1.36862">
        <ele>14.1</ele>
        <time>2020-06-02T07:14:16Z</time>
      </trkpt>
      <trkpt lat="46.20178" lon="-1.36862">
        <ele>14.1</ele>
        <time>2020-06-02T07:14:17Z</time>
      </trkpt>
      <trkpt lat="46.20178" lon="-1.36862">
        <ele>14.1</ele>
        <time>2020-06-02T07:14:18Z</time>
      </trkpt>
      <trkpt lat="46.20178" lon="-1.36862">
        <ele>14.1</ele>
        <time>2020-06-02T07:14:19Z</time>
      </trkpt>
      <trkpt lat="46.20178" lon="-1.36862">
        <ele>14.1</ele>
        <time>2020-06-02T07:14:20Z</time>
      </trkpt>
      <trkpt lat="46.20178" lon="-1.36862">
        <ele>14.1</ele>
        <time>2020-06-02T07:14:21Z</time>
      </trkpt>
      <trkpt lat="46.20178" lon="-1.36862">
        <ele>14.1</ele>
        <time>2020-06-02T07:14:22Z</time>
      </trkpt>
      <trkpt lat="46.20178" lon="-1.36862">
        <ele>14.1</ele>
        <time>2020-06-02T07:14:23Z</time>
      </trkpt>
      <trkpt lat="46.20178" lon="-1.36862">
        <ele>14.1</ele>
        <time>2020-06-02T07:14:24Z</time>
      </trkpt>
      <trkpt lat="46.20178" lon="-1.36862">
        <ele>14.1</ele>
        <time>2020-06-02T07:14:25Z</time>
      </trkpt>
      <trkpt lat="46.20178" lon="-1.36862">
        <ele>14.1</ele>
        <time>2020-06-02T07:14:26Z</time>
      </trkpt>
      <trkpt lat="46.20178" lon="-1.36862">
        <ele>14.1</ele>
        <time>2020-06-02T07:14:27Z</time>
      </trkpt>
      <trkpt lat="46.20178" lon="-1.36862">
        <ele>14.1</ele>
        <time>2020-06-02T07:14:28Z</time>
      </trkpt>
      <trkpt lat="46.20178" lon="-1.36862">
        <ele>14.1</ele>
        <time>2020-06-02T07:14:29Z</time>
      </trkpt>
      <trkpt lat="46.20178" lon="-1.36862">
        <ele>14.1</ele>
        <time>2020-06-02T07:14:30Z</time>
      </trkpt>
      <trkpt lat="46.20178" lon="-1.36862">
        <ele>14.1</ele>
        <time>2020-06-02T07:14:31Z</time>
      </trkpt>
      <trkpt lat="46.20178" lon="-1.36862">
        <ele>14.1</ele>
        <time>2020-06-02T07:14:32Z</time>
      </trkpt>
      <trkpt lat="46.20178" lon="-1.36862">
        <ele>14.1</ele>
        <time>2020-06-02T07:14:33Z</time>
      </trkpt>
      <trkpt lat="46.20178" lon="-1.36862">
        <ele>14.1</ele>
        <time>2020-06-02T07:14:34Z</time>
      </trkpt>
      <trkpt lat="46.20178" lon="-1.36862">
        <ele>14.1</ele>
        <time>2020-06-02T07:14:35Z</time>
      </trkpt>
      <trkpt lat="46.20178" lon="-1.36862">
        <ele>14.1</ele>
        <time>2020-06-02T07:14:36Z</time>
      </trkpt>
      <trkpt lat="46.20178" lon="-1.36862">
        <ele>14.1</ele>
        <time>2020-06-02T07:14:37Z</time>
      </trkpt>
      <trkpt lat="46.20178" lon="-1.36862">
        <ele>14.1</ele>
        <time>2020-06-02T07:14:38Z</time>
      </trkpt>
      <trkpt lat="46.20178" lon="-1.36862">
        <ele>14.1</ele>
        <time>2020-06-02T07:14:39Z</time>
      </trkpt>
      <trkpt lat="46.20178" lon="-1.36862">
        <ele>14.1</ele>
        <time>2020-06-02T07:14:40Z</time>
      </trkpt>
      <trkpt lat="46.20178" lon="-1.36862">
        <ele>14.1</ele>
        <time>2020-06-02T07:14:41Z</time>
      </trkpt>
      <trkpt lat="46.20178" lon="-1.36862">
        <ele>14.1</ele>
        <time>2020-06-02T07:14:42Z</time>
      </trkpt>
      <trkpt lat="46.20178" lon="-1.36862">
        <ele>14.1</ele>
        <time>2020-06-02T07:14:43Z</time>
      </trkpt>
      <trkpt lat="46.20178" lon="-1.36862">
        <ele>14.1</ele>
        <time>2020-06-02T07:14:44Z</time>
      </trkpt>
      <trkpt lat="46.20178" lon="-1.36862">
        <ele>14.1</ele>
        <time>2020-06-02T07:14:45Z</time>
      </trkpt>
      <trkpt lat="46.20178" lon="-1.36862">
        <ele>14.1</ele>
        <time>2020-06-02T07:14:46Z</time>
      </trkpt>
      <trkpt lat="46.20178" lon="-1.36862">
        <ele>14.1</ele>
        <time>2020-06-02T07:14:47Z</time>
      </trkpt>
      <trkpt lat="46.20178" lon="-1.36862">
        <ele>14.1</ele>
        <time>2020-06-02T07:14:48Z</time>
      </trkpt>
      <trkpt lat="46.20178" lon="-1.36862">
        <ele>14.1</ele>
        <time>2020-06-02T07:14:49Z</time>
      </trkpt>
      <trkpt lat="46.20178" lon="-1.36862">
        <ele>14.1</ele>
        <time>2020-06-02T07:14:50Z</time>
      </trkpt>
      <trkpt lat="46.20178" lon="-1.36862">
        <ele>14.1</ele>
        <time>2020-06-02T07:14:51Z</time>
      </trkpt>
      <trkpt lat="46.20178" lon="-1.36862">
        <ele>14.1</ele>
        <time>2020-06-02T07:14:52Z</time>
      </trkpt>
      <trkpt lat="46.20178" lon="-1.36862">
        <ele>14.1</ele>
        <time>2020-06-02T07:14:53Z</time>
      </trkpt>
      <trkpt lat="46.20178" lon="-1.36862">
        <ele>14.1</ele>
        <time>2020-06-02T07:14:54Z</time>
      </trkpt>
      <trkpt lat="46.20178" lon="-1.36862">
        <ele>14.1</ele>
        <time>2020-06-02T07:14:55Z</time>
      </trkpt>
      <trkpt lat="46.20178" lon="-1.36862">
        <ele>14.1</ele>
        <time>2020-06-02T07:14:56Z</time>
      </trkpt>
      <trkpt lat="46.20178" lon="-1.36862">
        <ele>14.1</ele>
        <time>2020-06-02T07:14:57Z</time>
      </trkpt>
      <trkpt lat="46.20178" lon="-1.36862">
        <ele>14.1</ele>
        <time>2020-06-02T07:14:58Z</time>
      </trkpt>
      <trkpt lat="46.20178" lon="-1.36862">
        <ele>14.1</ele>
        <time>2020-06-02T07:14:59Z</time>
      </trkpt>
      <trkpt lat="46.20178" lon="-1.36862">
        <ele>14.1</ele>
        <time>2020-06-02T07:15:00Z</time>
      </trkpt>
      <trkpt lat="46.20178" lon="-1.36862">
        <ele>14.1</ele>
        <time>2020-06-02T07:15:01Z</time>
      </trkpt>
      <trkpt lat="46.20179" lon="-1.36862">
        <ele>14.1</ele>
        <time>2020-06-02T07:15:02Z</time>
      </trkpt>
      <trkpt lat="46.20179" lon="-1.36862">
        <ele>14.1</ele>
        <time>2020-06-02T07:15:03Z</time>
      </trkpt>
      <trkpt lat="46.20179" lon="-1.36862">
        <ele>14.1</ele>
        <time>2020-06-02T07:15:04Z</time>
      </trkpt>
      <trkpt lat="46.20179" lon="-1.36862">
        <ele>14.1</ele>
        <time>2020-06-02T07:15:05Z</time>
      </trkpt>
      <trkpt lat="46.20179" lon="-1.36862">
        <ele>14.1</ele>
        <time>2020-06-02T07:15:06Z</time>
      </trkpt>
      <trkpt lat="46.20179" lon="-1.36862">
        <ele>14.1</ele>
        <time>2020-06-02T07:15:07Z</time>
      </trkpt>
      <trkpt lat="46.20179" lon="-1.36862">
        <ele>14.1</ele>
        <time>2020-06-02T07:15:08Z</time>
      </trkpt>
      <trkpt lat="46.20179" lon="-1.36862">
        <ele>14.1</ele>
        <time>2020-06-02T07:15:09Z</time>
      </trkpt>
      <trkpt lat="46.20179" lon="-1.36862">
        <ele>14.1</ele>
        <time>2020-06-02T07:15:10Z</time>
      </trkpt>
      <trkpt lat="46.20179" lon="-1.36862">
        <ele>14.1</ele>
        <time>2020-06-02T07:15:11Z</time>
      </trkpt>
      <trkpt lat="46.20179" lon="-1.36862">
        <ele>14.1</ele>
        <time>2020-06-02T07:15:12Z</time>
      </trkpt>
      <trkpt lat="46.20179" lon="-1.36862">
        <ele>14.1</ele>
        <time>2020-06-02T07:15:13Z</time>
      </trkpt>
      <trkpt lat="46.20179" lon="-1.36862">
        <ele>14.1</ele>
        <time>2020-06-02T07:15:14Z</time>
      </trkpt>
      <trkpt lat="46.20179" lon="-1.36862">
        <ele>14.1</ele>
        <time>2020-06-02T07:15:15Z</time>
      </trkpt>
      <trkpt lat="46.20179" lon="-1.36862">
        <ele>14.1</ele>
        <time>2020-06-02T07:15:16Z</time>
      </trkpt>
      <trkpt lat="46.20179" lon="-1.36862">
        <ele>14.1</ele>
        <time>2020-06-02T07:15:17Z</time>
      </trkpt>
      <trkpt lat="46.20179" lon="-1.36862">
        <ele>14.1</ele>
        <time>2020-06-02T07:15:18Z</time>
      </trkpt>
      <trkpt lat="46.20179" lon="-1.36862">
        <ele>14.1</ele>
        <time>2020-06-02T07:15:19Z</time>
      </trkpt>
      <trkpt lat="46.20179" lon="-1.36862">
        <ele>14.1</ele>
        <time>2020-06-02T07:15:20Z</time>
      </trkpt>
      <trkpt lat="46.20179" lon="-1.36862">
        <ele>14.1</ele>
        <time>2020-06-02T07:15:21Z</time>
      </trkpt>
      <trkpt lat="46.20179" lon="-1.36862">
        <ele>14.1</ele>
        <time>2020-06-02T07:15:22Z</time>
      </trkpt>
      <trkpt lat="46.20179" lon="-1.36862">
        <ele>14.1</ele>
        <time>2020-06-02T07:15:23Z</time>
      </trkpt>
      <trkpt lat="46.20179" lon="-1.36862">
        <ele>14.1</ele>
        <time>2020-06-02T07:15:24Z</time>
      </trkpt>
      <trkpt lat="46.20179" lon="-1.36862">
        <ele>14.1</ele>
        <time>2020-06-02T07:15:25Z</time>
      </trkpt>
      <trkpt lat="46.20179" lon="-1.36862">
        <ele>14.1</ele>
        <time>2020-06-02T07:15:26Z</time>
      </trkpt>
      <trkpt lat="46.20179" lon="-1.36862">
        <ele>14.1</ele>
        <time>2020-06-02T07:15:27Z</time>
      </trkpt>
      <trkpt lat="46.20179" lon="-1.36862">
        <ele>14.1</ele>
        <time>2020-06-02T07:15:28Z</time>
      </trkpt>
      <trkpt lat="46.20179" lon="-1.36862">
        <ele>14.1</ele>
        <time>2020-06-02T07:15:29Z</time>
      </trkpt>
      <trkpt lat="46.20179" lon="-1.36862">
        <ele>14.1</ele>
        <time>2020-06-02T07:15:30Z</time>
      </trkpt>
      <trkpt lat="46.20179" lon="-1.36862">
        <ele>14.1</ele>
        <time>2020-06-02T07:15:31Z</time>
      </trkpt>
      <trkpt lat="46.20179" lon="-1.36862">
        <ele>14.1</ele>
        <time>2020-06-02T07:15:32Z</time>
      </trkpt>
      <trkpt lat="46.20179" lon="-1.36862">
        <ele>14.1</ele>
        <time>2020-06-02T07:15:33Z</time>
      </trkpt>
      <trkpt lat="46.20179" lon="-1.36862">
        <ele>14.1</ele>
        <time>2020-06-02T07:15:34Z</time>
      </trkpt>
      <trkpt lat="46.20179" lon="-1.36862">
        <ele>14.1</ele>
        <time>2020-06-02T07:15:35Z</time>
      </trkpt>
      <trkpt lat="46.20179" lon="-1.36862">
        <ele>14.1</ele>
        <time>2020-06-02T07:15:36Z</time>
      </trkpt>
      <trkpt lat="46.20179" lon="-1.36862">
        <ele>14.1</ele>
        <time>2020-06-02T07:15:37Z</time>
      </trkpt>
      <trkpt lat="46.20179" lon="-1.36862">
        <ele>14.1</ele>
        <time>2020-06-02T07:15:38Z</time>
      </trkpt>
      <trkpt lat="46.20179" lon="-1.36862">
        <ele>14.1</ele>
        <time>2020-06-02T07:15:39Z</time>
      </trkpt>
      <trkpt lat="46.20179" lon="-1.36862">
        <ele>14.1</ele>
        <time>2020-06-02T07:15:40Z</time>
      </trkpt>
      <trkpt lat="46.20179" lon="-1.36862">
        <ele>14.1</ele>
        <time>2020-06-02T07:15:41Z</time>
      </trkpt>
      <trkpt lat="46.20179" lon="-1.36862">
        <ele>14.1</ele>
        <time>2020-06-02T07:15:42Z</time>
      </trkpt>
      <trkpt lat="46.20179" lon="-1.36862">
        <ele>14.1</ele>
        <time>2020-06-02T07:15:43Z</time>
      </trkpt>
      <trkpt lat="46.20179" lon="-1.36862">
        <ele>14.1</ele>
        <time>2020-06-02T07:15:44Z</time>
      </trkpt>
      <trkpt lat="46.20179" lon="-1.36862">
        <ele>14.1</ele>
        <time>2020-06-02T07:15:45Z</time>
      </trkpt>
      <trkpt lat="46.20179" lon="-1.36862">
        <ele>14.1</ele>
        <time>2020-06-02T07:15:46Z</time>
      </trkpt>
      <trkpt lat="46.20179" lon="-1.36862">
        <ele>14.1</ele>
        <time>2020-06-02T07:15:47Z</time>
      </trkpt>
      <trkpt lat="46.20179" lon="-1.36862">
        <ele>14.1</ele>
        <time>2020-06-02T07:15:48Z</time>
      </trkpt>
      <trkpt lat="46.20179" lon="-1.36861">
        <ele>14.1</ele>
        <time>2020-06-02T07:15:49Z</time>
      </trkpt>
      <trkpt lat="46.20179" lon="-1.36861">
        <ele>14.1</ele>
        <time>2020-06-02T07:15:50Z</time>
      </trkpt>
      <trkpt lat="46.20179" lon="-1.36861">
        <ele>14.1</ele>
        <time>2020-06-02T07:15:51Z</time>
      </trkpt>
      <trkpt lat="46.20179" lon="-1.36861">
        <ele>14.1</ele>
        <time>2020-06-02T07:15:52Z</time>
      </trkpt>
      <trkpt lat="46.20179" lon="-1.36861">
        <ele>14.1</ele>
        <time>2020-06-02T07:15:53Z</time>
      </trkpt>
      <trkpt lat="46.20179" lon="-1.36861">
        <ele>14.1</ele>
        <time>2020-06-02T07:15:54Z</time>
      </trkpt>
      <trkpt lat="46.20179" lon="-1.36861">
        <ele>14.1</ele>
        <time>2020-06-02T07:15:55Z</time>
      </trkpt>
      <trkpt lat="46.20179" lon="-1.36861">
        <ele>14.1</ele>
        <time>2020-06-02T07:15:56Z</time>
      </trkpt>
      <trkpt lat="46.20179" lon="-1.36861">
        <ele>14.1</ele>
        <time>2020-06-02T07:15:57Z</time>
      </trkpt>
      <trkpt lat="46.20179" lon="-1.36861">
        <ele>14.1</ele>
        <time>2020-06-02T07:15:58Z</time>
      </trkpt>
      <trkpt lat="46.20179" lon="-1.36861">
        <ele>14.2</ele>
        <time>2020-06-02T07:15:59Z</time>
      </trkpt>
      <trkpt lat="46.20179" lon="-1.36861">
        <ele>14.2</ele>
        <time>2020-06-02T07:16:00Z</time>
      </trkpt>
      <trkpt lat="46.20179" lon="-1.36861">
        <ele>14.2</ele>
        <time>2020-06-02T07:16:01Z</time>
      </trkpt>
      <trkpt lat="46.20179" lon="-1.36861">
        <ele>14.2</ele>
        <time>2020-06-02T07:16:02Z</time>
      </trkpt>
      <trkpt lat="46.20179" lon="-1.36861">
        <ele>14.2</ele>
        <time>2020-06-02T07:16:03Z</time>
      </trkpt>
      <trkpt lat="46.20179" lon="-1.36861">
        <ele>14.2</ele>
        <time>2020-06-02T07:16:04Z</time>
      </trkpt>
      <trkpt lat="46.20179" lon="-1.36861">
        <ele>14.2</ele>
        <time>2020-06-02T07:16:05Z</time>
      </trkpt>
      <trkpt lat="46.20179" lon="-1.36861">
        <ele>14.2</ele>
        <time>2020-06-02T07:16:06Z</time>
      </trkpt>
      <trkpt lat="46.20179" lon="-1.36861">
        <ele>14.2</ele>
        <time>2020-06-02T07:16:07Z</time>
      </trkpt>
      <trkpt lat="46.20179" lon="-1.36861">
        <ele>14.2</ele>
        <time>2020-06-02T07:16:08Z</time>
      </trkpt>
      <trkpt lat="46.20179" lon="-1.36861">
        <ele>14.2</ele>
        <time>2020-06-02T07:16:09Z</time>
      </trkpt>
      <trkpt lat="46.20179" lon="-1.36861">
        <ele>14.2</ele>
        <time>2020-06-02T07:16:10Z</time>
      </trkpt>
      <trkpt lat="46.20179" lon="-1.36861">
        <ele>14.2</ele>
        <time>2020-06-02T07:16:11Z</time>
      </trkpt>
      <trkpt lat="46.20179" lon="-1.36861">
        <ele>14.2</ele>
        <time>2020-06-02T07:16:12Z</time>
      </trkpt>
      <trkpt lat="46.20179" lon="-1.36861">
        <ele>14.2</ele>
        <time>2020-06-02T07:16:13Z</time>
      </trkpt>
      <trkpt lat="46.20179" lon="-1.36861">
        <ele>14.2</ele>
        <time>2020-06-02T07:16:14Z</time>
      </trkpt>
      <trkpt lat="46.20179" lon="-1.36861">
        <ele>14.2</ele>
        <time>2020-06-02T07:16:15Z</time>
      </trkpt>
      <trkpt lat="46.20179" lon="-1.36861">
        <ele>14.2</ele>
        <time>2020-06-02T07:16:16Z</time>
      </trkpt>
      <trkpt lat="46.20179" lon="-1.36861">
        <ele>14.2</ele>
        <time>2020-06-02T07:16:17Z</time>
      </trkpt>
      <trkpt lat="46.20179" lon="-1.36861">
        <ele>14.2</ele>
        <time>2020-06-02T07:16:18Z</time>
      </trkpt>
      <trkpt lat="46.20179" lon="-1.36861">
        <ele>14.2</ele>
        <time>2020-06-02T07:16:19Z</time>
      </trkpt>
      <trkpt lat="46.20179" lon="-1.36861">
        <ele>14.2</ele>
        <time>2020-06-02T07:16:20Z</time>
      </trkpt>
      <trkpt lat="46.20179" lon="-1.36861">
        <ele>14.2</ele>
        <time>2020-06-02T07:16:21Z</time>
      </trkpt>
      <trkpt lat="46.20179" lon="-1.36861">
        <ele>14.2</ele>
        <time>2020-06-02T07:16:22Z</time>
      </trkpt>
      <trkpt lat="46.20179" lon="-1.36861">
        <ele>14.2</ele>
        <time>2020-06-02T07:16:23Z</time>
      </trkpt>
      <trkpt lat="46.20179" lon="-1.36861">
        <ele>14.2</ele>
        <time>2020-06-02T07:16:24Z</time>
      </trkpt>
      <trkpt lat="46.20179" lon="-1.36861">
        <ele>14.2</ele>
        <time>2020-06-02T07:16:25Z</time>
      </trkpt>
      <trkpt lat="46.20179" lon="-1.36861">
        <ele>14.2</ele>
        <time>2020-06-02T07:16:26Z</time>
      </trkpt>
      <trkpt lat="46.20179" lon="-1.36861">
        <ele>14.2</ele>
        <time>2020-06-02T07:16:27Z</time>
      </trkpt>
      <trkpt lat="46.20179" lon="-1.36861">
        <ele>14.2</ele>
        <time>2020-06-02T07:16:28Z</time>
      </trkpt>
      <trkpt lat="46.20179" lon="-1.36861">
        <ele>14.2</ele>
        <time>2020-06-02T07:16:29Z</time>
      </trkpt>
      <trkpt lat="46.20179" lon="-1.36861">
        <ele>14.2</ele>
        <time>2020-06-02T07:16:30Z</time>
      </trkpt>
      <trkpt lat="46.20179" lon="-1.36861">
        <ele>14.2</ele>
        <time>2020-06-02T07:16:31Z</time>
      </trkpt>
      <trkpt lat="46.20179" lon="-1.36861">
        <ele>14.2</ele>
        <time>2020-06-02T07:16:32Z</time>
      </trkpt>
      <trkpt lat="46.20179" lon="-1.36861">
        <ele>14.2</ele>
        <time>2020-06-02T07:16:33Z</time>
      </trkpt>
      <trkpt lat="46.20179" lon="-1.36861">
        <ele>14.2</ele>
        <time>2020-06-02T07:16:34Z</time>
      </trkpt>
      <trkpt lat="46.20179" lon="-1.36861">
        <ele>14.2</ele>
        <time>2020-06-02T07:16:35Z</time>
      </trkpt>
      <trkpt lat="46.20179" lon="-1.36861">
        <ele>14.2</ele>
        <time>2020-06-02T07:16:36Z</time>
      </trkpt>
      <trkpt lat="46.20179" lon="-1.36861">
        <ele>14.2</ele>
        <time>2020-06-02T07:16:37Z</time>
      </trkpt>
      <trkpt lat="46.20179" lon="-1.36861">
        <ele>14.2</ele>
        <time>2020-06-02T07:16:38Z</time>
      </trkpt>
      <trkpt lat="46.20179" lon="-1.36861">
        <ele>14.2</ele>
        <time>2020-06-02T07:16:39Z</time>
      </trkpt>
      <trkpt lat="46.20179" lon="-1.36861">
        <ele>14.2</ele>
        <time>2020-06-02T07:16:40Z</time>
      </trkpt>
      <trkpt lat="46.20179" lon="-1.36861">
        <ele>14.2</ele>
        <time>2020-06-02T07:16:41Z</time>
      </trkpt>
      <trkpt lat="46.20179" lon="-1.36861">
        <ele>14.2</ele>
        <time>2020-06-02T07:16:42Z</time>
      </trkpt>
      <trkpt lat="46.20179" lon="-1.36861">
        <ele>14.1</ele>
        <time>2020-06-02T07:16:43Z</time>
      </trkpt>
      <trkpt lat="46.20179" lon="-1.36861">
        <ele>14.1</ele>
        <time>2020-06-02T07:16:44Z</time>
      </trkpt>
      <trkpt lat="46.20179" lon="-1.36861">
        <ele>14.1</ele>
        <time>2020-06-02T07:16:45Z</time>
      </trkpt>
      <trkpt lat="46.20179" lon="-1.36861">
        <ele>14.1</ele>
        <time>2020-06-02T07:16:46Z</time>
      </trkpt>
      <trkpt lat="46.20179" lon="-1.36861">
        <ele>14.1</ele>
        <time>2020-06-02T07:16:47Z</time>
      </trkpt>
      <trkpt lat="46.20179" lon="-1.36861">
        <ele>14.1</ele>
        <time>2020-06-02T07:16:48Z</time>
      </trkpt>
      <trkpt lat="46.20179" lon="-1.36861">
        <ele>14.1</ele>
        <time>2020-06-02T07:16:49Z</time>
      </trkpt>
      <trkpt lat="46.20179" lon="-1.36861">
        <ele>14.1</ele>
        <time>2020-06-02T07:16:50Z</time>
      </trkpt>
      <trkpt lat="46.20179" lon="-1.36861">
        <ele>14.1</ele>
        <time>2020-06-02T07:16:51Z</time>
      </trkpt>
      <trkpt lat="46.20179" lon="-1.36861">
        <ele>14.1</ele>
        <time>2020-06-02T07:16:52Z</time>
      </trkpt>
      <trkpt lat="46.20179" lon="-1.36861">
        <ele>14.1</ele>
        <time>2020-06-02T07:16:53Z</time>
      </trkpt>
      <trkpt lat="46.20179" lon="-1.36861">
        <ele>14.1</ele>
        <time>2020-06-02T07:16:54Z</time>
      </trkpt>
      <trkpt lat="46.20179" lon="-1.36861">
        <ele>14.1</ele>
        <time>2020-06-02T07:16:55Z</time>
      </trkpt>
      <trkpt lat="46.20179" lon="-1.36861">
        <ele>14.1</ele>
        <time>2020-06-02T07:16:56Z</time>
      </trkpt>
      <trkpt lat="46.20179" lon="-1.36861">
        <ele>14.1</ele>
        <time>2020-06-02T07:16:57Z</time>
      </trkpt>
      <trkpt lat="46.20179" lon="-1.36861">
        <ele>14.1</ele>
        <time>2020-06-02T07:16:58Z</time>
      </trkpt>
      <trkpt lat="46.20179" lon="-1.36861">
        <ele>14.1</ele>
        <time>2020-06-02T07:16:59Z</time>
      </trkpt>
      <trkpt lat="46.20179" lon="-1.36861">
        <ele>14.1</ele>
        <time>2020-06-02T07:17:00Z</time>
      </trkpt>
      <trkpt lat="46.20179" lon="-1.36861">
        <ele>14.1</ele>
        <time>2020-06-02T07:17:01Z</time>
      </trkpt>
      <trkpt lat="46.20179" lon="-1.36861">
        <ele>14.1</ele>
        <time>2020-06-02T07:17:02Z</time>
      </trkpt>
      <trkpt lat="46.20179" lon="-1.36861">
        <ele>14.1</ele>
        <time>2020-06-02T07:17:03Z</time>
      </trkpt>
      <trkpt lat="46.20179" lon="-1.36861">
        <ele>14.1</ele>
        <time>2020-06-02T07:17:04Z</time>
      </trkpt>
      <trkpt lat="46.20179" lon="-1.36861">
        <ele>14.1</ele>
        <time>2020-06-02T07:17:05Z</time>
      </trkpt>
      <trkpt lat="46.20179" lon="-1.36861">
        <ele>14.1</ele>
        <time>2020-06-02T07:17:06Z</time>
      </trkpt>
      <trkpt lat="46.20179" lon="-1.36861">
        <ele>14.1</ele>
        <time>2020-06-02T07:17:07Z</time>
      </trkpt>
      <trkpt lat="46.20179" lon="-1.36861">
        <ele>14.1</ele>
        <time>2020-06-02T07:17:08Z</time>
      </trkpt>
      <trkpt lat="46.20179" lon="-1.36861">
        <ele>14.1</ele>
        <time>2020-06-02T07:17:09Z</time>
      </trkpt>
      <trkpt lat="46.20179" lon="-1.36861">
        <ele>14.1</ele>
        <time>2020-06-02T07:17:10Z</time>
      </trkpt>
      <trkpt lat="46.20179" lon="-1.36861">
        <ele>14.1</ele>
        <time>2020-06-02T07:17:11Z</time>
      </trkpt>
      <trkpt lat="46.20179" lon="-1.36861">
        <ele>14.1</ele>
        <time>2020-06-02T07:17:12Z</time>
      </trkpt>
      <trkpt lat="46.20179" lon="-1.36861">
        <ele>14.1</ele>
        <time>2020-06-02T07:17:13Z</time>
      </trkpt>
      <trkpt lat="46.20179" lon="-1.36861">
        <ele>14.1</ele>
        <time>2020-06-02T07:17:14Z</time>
      </trkpt>
      <trkpt lat="46.20179" lon="-1.36861">
        <ele>14.1</ele>
        <time>2020-06-02T07:17:15Z</time>
      </trkpt>
      <trkpt lat="46.20179" lon="-1.36861">
        <ele>14.1</ele>
        <time>2020-06-02T07:17:16Z</time>
      </trkpt>
      <trkpt lat="46.20179" lon="-1.36861">
        <ele>14.1</ele>
        <time>2020-06-02T07:17:17Z</time>
      </trkpt>
      <trkpt lat="46.20179" lon="-1.36861">
        <ele>14.1</ele>
        <time>2020-06-02T07:17:18Z</time>
      </trkpt>
      <trkpt lat="46.20179" lon="-1.36861">
        <ele>14.1</ele>
        <time>2020-06-02T07:17:19Z</time>
      </trkpt>
      <trkpt lat="46.20179" lon="-1.36861">
        <ele>14.1</ele>
        <time>2020-06-02T07:17:20Z</time>
      </trkpt>
      <trkpt lat="46.20179" lon="-1.36861">
        <ele>14.1</ele>
        <time>2020-06-02T07:17:21Z</time>
      </trkpt>
      <trkpt lat="46.20179" lon="-1.36861">
        <ele>14.1</ele>
        <time>2020-06-02T07:17:22Z</time>
      </trkpt>
      <trkpt lat="46.20179" lon="-1.36861">
        <ele>14.1</ele>
        <time>2020-06-02T07:17:23Z</time>
      </trkpt>
      <trkpt lat="46.20179" lon="-1.36861">
        <ele>14.1</ele>
        <time>2020-06-02T07:17:24Z</time>
      </trkpt>
      <trkpt lat="46.20179" lon="-1.36861">
        <ele>14.1</ele>
        <time>2020-06-02T07:17:25Z</time>
      </trkpt>
      <trkpt lat="46.2018" lon="-1.36861">
        <ele>14.1</ele>
        <time>2020-06-02T07:17:26Z</time>
      </trkpt>
      <trkpt lat="46.2018" lon="-1.36861">
        <ele>14.1</ele>
        <time>2020-06-02T07:17:27Z</time>
      </trkpt>
      <trkpt lat="46.2018" lon="-1.36861">
        <ele>14.1</ele>
        <time>2020-06-02T07:17:28Z</time>
      </trkpt>
      <trkpt lat="46.2018" lon="-1.36861">
        <ele>14.1</ele>
        <time>2020-06-02T07:17:29Z</time>
      </trkpt>
      <trkpt lat="46.2018" lon="-1.36861">
        <ele>14.1</ele>
        <time>2020-06-02T07:17:30Z</time>
      </trkpt>
      <trkpt lat="46.2018" lon="-1.36861">
        <ele>14.1</ele>
        <time>2020-06-02T07:17:31Z</time>
      </trkpt>
      <trkpt lat="46.2018" lon="-1.3686">
        <ele>14.1</ele>
        <time>2020-06-02T07:17:32Z</time>
      </trkpt>
      <trkpt lat="46.2018" lon="-1.3686">
        <ele>14.1</ele>
        <time>2020-06-02T07:17:33Z</time>
      </trkpt>
      <trkpt lat="46.2018" lon="-1.3686">
        <ele>14.1</ele>
        <time>2020-06-02T07:17:34Z</time>
      </trkpt>
      <trkpt lat="46.2018" lon="-1.3686">
        <ele>14.1</ele>
        <time>2020-06-02T07:17:35Z</time>
      </trkpt>
      <trkpt lat="46.2018" lon="-1.3686">
        <ele>14.1</ele>
        <time>2020-06-02T07:17:36Z</time>
      </trkpt>
      <trkpt lat="46.2018" lon="-1.3686">
        <ele>14.1</ele>
        <time>2020-06-02T07:17:37Z</time>
      </trkpt>
      <trkpt lat="46.2018" lon="-1.3686">
        <ele>14.1</ele>
        <time>2020-06-02T07:17:38Z</time>
      </trkpt>
      <trkpt lat="46.2018" lon="-1.3686">
        <ele>14.1</ele>
        <time>2020-06-02T07:17:39Z</time>
      </trkpt>
      <trkpt lat="46.2018" lon="-1.3686">
        <ele>14.1</ele>
        <time>2020-06-02T07:17:40Z</time>
      </trkpt>
      <trkpt lat="46.2018" lon="-1.3686">
        <ele>14.1</ele>
        <time>2020-06-02T07:17:41Z</time>
      </trkpt>
      <trkpt lat="46.2018" lon="-1.3686">
        <ele>14.1</ele>
        <time>2020-06-02T07:17:42Z</time>
      </trkpt>
      <trkpt lat="46.2018" lon="-1.3686">
        <ele>14.1</ele>
        <time>2020-06-02T07:17:43Z</time>
      </trkpt>
      <trkpt lat="46.2018" lon="-1.3686">
        <ele>14.1</ele>
        <time>2020-06-02T07:17:44Z</time>
      </trkpt>
      <trkpt lat="46.2018" lon="-1.3686">
        <ele>14.1</ele>
        <time>2020-06-02T07:17:45Z</time>
      </trkpt>
      <trkpt lat="46.2018" lon="-1.3686">
        <ele>14.1</ele>
        <time>2020-06-02T07:17:46Z</time>
      </trkpt>
      <trkpt lat="46.2018" lon="-1.3686">
        <ele>14.1</ele>
        <time>2020-06-02T07:17:47Z</time>
      </trkpt>
      <trkpt lat="46.2018" lon="-1.3686">
        <ele>14.1</ele>
        <time>2020-06-02T07:17:48Z</time>
      </trkpt>
      <trkpt lat="46.2018" lon="-1.3686">
        <ele>14.1</ele>
        <time>2020-06-02T07:17:49Z</time>
      </trkpt>
      <trkpt lat="46.2018" lon="-1.3686">
        <ele>14.1</ele>
        <time>2020-06-02T07:17:50Z</time>
      </trkpt>
      <trkpt lat="46.2018" lon="-1.3686">
        <ele>14.1</ele>
        <time>2020-06-02T07:17:51Z</time>
      </trkpt>
      <trkpt lat="46.2018" lon="-1.3686">
        <ele>14.1</ele>
        <time>2020-06-02T07:17:52Z</time>
      </trkpt>
      <trkpt lat="46.2018" lon="-1.3686">
        <ele>14.1</ele>
        <time>2020-06-02T07:17:53Z</time>
      </trkpt>
      <trkpt lat="46.2018" lon="-1.3686">
        <ele>14.1</ele>
        <time>2020-06-02T07:17:54Z</time>
      </trkpt>
      <trkpt lat="46.2018" lon="-1.3686">
        <ele>14.1</ele>
        <time>2020-06-02T07:17:55Z</time>
      </trkpt>
      <trkpt lat="46.2018" lon="-1.3686">
        <ele>14.1</ele>
        <time>2020-06-02T07:17:56Z</time>
      </trkpt>
      <trkpt lat="46.2018" lon="-1.3686">
        <ele>14.1</ele>
        <time>2020-06-02T07:17:57Z</time>
      </trkpt>
      <trkpt lat="46.2018" lon="-1.3686">
        <ele>14.1</ele>
        <time>2020-06-02T07:17:58Z</time>
      </trkpt>
      <trkpt lat="46.2018" lon="-1.3686">
        <ele>14.1</ele>
        <time>2020-06-02T07:17:59Z</time>
      </trkpt>
      <trkpt lat="46.2018" lon="-1.3686">
        <ele>14.1</ele>
        <time>2020-06-02T07:18:00Z</time>
      </trkpt>
      <trkpt lat="46.2018" lon="-1.3686">
        <ele>14.1</ele>
        <time>2020-06-02T07:18:01Z</time>
      </trkpt>
      <trkpt lat="46.2018" lon="-1.3686">
        <ele>14.1</ele>
        <time>2020-06-02T07:18:02Z</time>
      </trkpt>
      <trkpt lat="46.2018" lon="-1.3686">
        <ele>14.1</ele>
        <time>2020-06-02T07:18:03Z</time>
      </trkpt>
      <trkpt lat="46.2018" lon="-1.3686">
        <ele>14.1</ele>
        <time>2020-06-02T07:18:04Z</time>
      </trkpt>
      <trkpt lat="46.2018" lon="-1.3686">
        <ele>14.1</ele>
        <time>2020-06-02T07:18:05Z</time>
      </trkpt>
      <trkpt lat="46.2018" lon="-1.3686">
        <ele>14.1</ele>
        <time>2020-06-02T07:18:06Z</time>
      </trkpt>
      <trkpt lat="46.2018" lon="-1.3686">
        <ele>14.1</ele>
        <time>2020-06-02T07:18:07Z</time>
      </trkpt>
      <trkpt lat="46.2018" lon="-1.3686">
        <ele>14.1</ele>
        <time>2020-06-02T07:18:08Z</time>
      </trkpt>
      <trkpt lat="46.2018" lon="-1.3686">
        <ele>14.1</ele>
        <time>2020-06-02T07:18:09Z</time>
      </trkpt>
      <trkpt lat="46.2018" lon="-1.3686">
        <ele>14.1</ele>
        <time>2020-06-02T07:18:10Z</time>
      </trkpt>
      <trkpt lat="46.2018" lon="-1.3686">
        <ele>14.1</ele>
        <time>2020-06-02T07:18:11Z</time>
      </trkpt>
      <trkpt lat="46.2018" lon="-1.3686">
        <ele>14.1</ele>
        <time>2020-06-02T07:18:12Z</time>
      </trkpt>
      <trkpt lat="46.2018" lon="-1.3686">
        <ele>14.1</ele>
        <time>2020-06-02T07:18:13Z</time>
      </trkpt>
      <trkpt lat="46.2018" lon="-1.3686">
        <ele>14.1</ele>
        <time>2020-06-02T07:18:14Z</time>
      </trkpt>
      <trkpt lat="46.2018" lon="-1.3686">
        <ele>14.1</ele>
        <time>2020-06-02T07:18:15Z</time>
      </trkpt>
      <trkpt lat="46.2018" lon="-1.3686">
        <ele>14.1</ele>
        <time>2020-06-02T07:18:16Z</time>
      </trkpt>
      <trkpt lat="46.2018" lon="-1.3686">
        <ele>14.1</ele>
        <time>2020-06-02T07:18:17Z</time>
      </trkpt>
      <trkpt lat="46.2018" lon="-1.3686">
        <ele>14.1</ele>
        <time>2020-06-02T07:18:18Z</time>
      </trkpt>
      <trkpt lat="46.2018" lon="-1.3686">
        <ele>14.1</ele>
        <time>2020-06-02T07:18:19Z</time>
      </trkpt>
      <trkpt lat="46.2018" lon="-1.3686">
        <ele>14.1</ele>
        <time>2020-06-02T07:18:20Z</time>
      </trkpt>
      <trkpt lat="46.2018" lon="-1.3686">
        <ele>14.1</ele>
        <time>2020-06-02T07:18:21Z</time>
      </trkpt>
      <trkpt lat="46.2018" lon="-1.3686">
        <ele>14.1</ele>
        <time>2020-06-02T07:18:22Z</time>
      </trkpt>
      <trkpt lat="46.2018" lon="-1.3686">
        <ele>14.1</ele>
        <time>2020-06-02T07:18:23Z</time>
      </trkpt>
      <trkpt lat="46.2018" lon="-1.3686">
        <ele>14.1</ele>
        <time>2020-06-02T07:18:24Z</time>
      </trkpt>
      <trkpt lat="46.2018" lon="-1.3686">
        <ele>14.1</ele>
        <time>2020-06-02T07:18:25Z</time>
      </trkpt>
      <trkpt lat="46.2018" lon="-1.3686">
        <ele>14.1</ele>
        <time>2020-06-02T07:18:26Z</time>
      </trkpt>
      <trkpt lat="46.2018" lon="-1.3686">
        <ele>14.1</ele>
        <time>2020-06-02T07:18:27Z</time>
      </trkpt>
      <trkpt lat="46.2018" lon="-1.3686">
        <ele>14.1</ele>
        <time>2020-06-02T07:18:28Z</time>
      </trkpt>
      <trkpt lat="46.2018" lon="-1.3686">
        <ele>14.1</ele>
        <time>2020-06-02T07:18:29Z</time>
      </trkpt>
      <trkpt lat="46.2018" lon="-1.3686">
        <ele>14.1</ele>
        <time>2020-06-02T07:18:30Z</time>
      </trkpt>
      <trkpt lat="46.2018" lon="-1.3686">
        <ele>14.1</ele>
        <time>2020-06-02T07:18:31Z</time>
      </trkpt>
      <trkpt lat="46.2018" lon="-1.3686">
        <ele>14.1</ele>
        <time>2020-06-02T07:18:32Z</time>
      </trkpt>
      <trkpt lat="46.2018" lon="-1.3686">
        <ele>14.1</ele>
        <time>2020-06-02T07:18:33Z</time>
      </trkpt>
      <trkpt lat="46.2018" lon="-1.3686">
        <ele>14.1</ele>
        <time>2020-06-02T07:18:34Z</time>
      </trkpt>
      <trkpt lat="46.2018" lon="-1.3686">
        <ele>14.1</ele>
        <time>2020-06-02T07:18:35Z</time>
      </trkpt>
      <trkpt lat="46.2018" lon="-1.3686">
        <ele>14.1</ele>
        <time>2020-06-02T07:18:36Z</time>
      </trkpt>
      <trkpt lat="46.2018" lon="-1.3686">
        <ele>14.1</ele>
        <time>2020-06-02T07:18:37Z</time>
      </trkpt>
      <trkpt lat="46.2018" lon="-1.3686">
        <ele>14.1</ele>
        <time>2020-06-02T07:18:38Z</time>
      </trkpt>
      <trkpt lat="46.2018" lon="-1.3686">
        <ele>14.1</ele>
        <time>2020-06-02T07:18:39Z</time>
      </trkpt>
      <trkpt lat="46.2018" lon="-1.3686">
        <ele>14.1</ele>
        <time>2020-06-02T07:18:40Z</time>
      </trkpt>
      <trkpt lat="46.2018" lon="-1.3686">
        <ele>14.1</ele>
        <time>2020-06-02T07:18:41Z</time>
      </trkpt>
      <trkpt lat="46.2018" lon="-1.3686">
        <ele>14.1</ele>
        <time>2020-06-02T07:18:42Z</time>
      </trkpt>
      <trkpt lat="46.2018" lon="-1.3686">
        <ele>14.1</ele>
        <time>2020-06-02T07:18:43Z</time>
      </trkpt>
      <trkpt lat="46.2018" lon="-1.3686">
        <ele>14.1</ele>
        <time>2020-06-02T07:18:44Z</time>
      </trkpt>
      <trkpt lat="46.2018" lon="-1.3686">
        <ele>14.1</ele>
        <time>2020-06-02T07:18:45Z</time>
      </trkpt>
      <trkpt lat="46.2018" lon="-1.3686">
        <ele>14.1</ele>
        <time>2020-06-02T07:18:46Z</time>
      </trkpt>
      <trkpt lat="46.2018" lon="-1.3686">
        <ele>14.1</ele>
        <time>2020-06-02T07:18:47Z</time>
      </trkpt>
      <trkpt lat="46.2018" lon="-1.3686">
        <ele>14.1</ele>
        <time>2020-06-02T07:18:48Z</time>
      </trkpt>
      <trkpt lat="46.2018" lon="-1.3686">
        <ele>14.1</ele>
        <time>2020-06-02T07:18:49Z</time>
      </trkpt>
      <trkpt lat="46.2018" lon="-1.3686">
        <ele>14.1</ele>
        <time>2020-06-02T07:18:50Z</time>
      </trkpt>
      <trkpt lat="46.2018" lon="-1.3686">
        <ele>14.1</ele>
        <time>2020-06-02T07:18:51Z</time>
      </trkpt>
      <trkpt lat="46.2018" lon="-1.3686">
        <ele>14.1</ele>
        <time>2020-06-02T07:18:52Z</time>
      </trkpt>
      <trkpt lat="46.2018" lon="-1.3686">
        <ele>14.1</ele>
        <time>2020-06-02T07:18:53Z</time>
      </trkpt>
      <trkpt lat="46.2018" lon="-1.3686">
        <ele>14.1</ele>
        <time>2020-06-02T07:18:54Z</time>
      </trkpt>
      <trkpt lat="46.2018" lon="-1.3686">
        <ele>14.1</ele>
        <time>2020-06-02T07:18:55Z</time>
      </trkpt>
      <trkpt lat="46.2018" lon="-1.3686">
        <ele>14.1</ele>
        <time>2020-06-02T07:18:56Z</time>
      </trkpt>
      <trkpt lat="46.2018" lon="-1.3686">
        <ele>14.1</ele>
        <time>2020-06-02T07:18:57Z</time>
      </trkpt>
      <trkpt lat="46.2018" lon="-1.3686">
        <ele>14.1</ele>
        <time>2020-06-02T07:18:58Z</time>
      </trkpt>
      <trkpt lat="46.2018" lon="-1.3686">
        <ele>14.1</ele>
        <time>2020-06-02T07:18:59Z</time>
      </trkpt>
      <trkpt lat="46.2018" lon="-1.3686">
        <ele>14.1</ele>
        <time>2020-06-02T07:19:00Z</time>
      </trkpt>
      <trkpt lat="46.2018" lon="-1.3686">
        <ele>14.1</ele>
        <time>2020-06-02T07:19:01Z</time>
      </trkpt>
      <trkpt lat="46.2018" lon="-1.3686">
        <ele>14.1</ele>
        <time>2020-06-02T07:19:02Z</time>
      </trkpt>
      <trkpt lat="46.2018" lon="-1.3686">
        <ele>14.1</ele>
        <time>2020-06-02T07:19:03Z</time>
      </trkpt>
      <trkpt lat="46.2018" lon="-1.3686">
        <ele>14.1</ele>
        <time>2020-06-02T07:19:04Z</time>
      </trkpt>
      <trkpt lat="46.2018" lon="-1.3686">
        <ele>14.1</ele>
        <time>2020-06-02T07:19:05Z</time>
      </trkpt>
      <trkpt lat="46.2018" lon="-1.3686">
        <ele>14.1</ele>
        <time>2020-06-02T07:19:06Z</time>
      </trkpt>
      <trkpt lat="46.2018" lon="-1.3686">
        <ele>14.1</ele>
        <time>2020-06-02T07:19:07Z</time>
      </trkpt>
      <trkpt lat="46.2018" lon="-1.3686">
        <ele>14.1</ele>
        <time>2020-06-02T07:19:08Z</time>
      </trkpt>
      <trkpt lat="46.2018" lon="-1.3686">
        <ele>14.1</ele>
        <time>2020-06-02T07:19:09Z</time>
      </trkpt>
      <trkpt lat="46.2018" lon="-1.3686">
        <ele>14.1</ele>
        <time>2020-06-02T07:19:10Z</time>
      </trkpt>
      <trkpt lat="46.2018" lon="-1.3686">
        <ele>14.1</ele>
        <time>2020-06-02T07:19:11Z</time>
      </trkpt>
      <trkpt lat="46.2018" lon="-1.3686">
        <ele>14.1</ele>
        <time>2020-06-02T07:19:12Z</time>
      </trkpt>
      <trkpt lat="46.2018" lon="-1.3686">
        <ele>14.1</ele>
        <time>2020-06-02T07:19:13Z</time>
      </trkpt>
      <trkpt lat="46.2018" lon="-1.36859">
        <ele>14.1</ele>
        <time>2020-06-02T07:19:14Z</time>
      </trkpt>
      <trkpt lat="46.2018" lon="-1.36859">
        <ele>14.1</ele>
        <time>2020-06-02T07:19:15Z</time>
      </trkpt>
      <trkpt lat="46.2018" lon="-1.36859">
        <ele>14.1</ele>
        <time>2020-06-02T07:19:16Z</time>
      </trkpt>
      <trkpt lat="46.2018" lon="-1.36859">
        <ele>14.1</ele>
        <time>2020-06-02T07:19:17Z</time>
      </trkpt>
      <trkpt lat="46.2018" lon="-1.36859">
        <ele>14.1</ele>
        <time>2020-06-02T07:19:18Z</time>
      </trkpt>
      <trkpt lat="46.2018" lon="-1.36859">
        <ele>14.1</ele>
        <time>2020-06-02T07:19:19Z</time>
      </trkpt>
      <trkpt lat="46.2018" lon="-1.36859">
        <ele>14.1</ele>
        <time>2020-06-02T07:19:20Z</time>
      </trkpt>
      <trkpt lat="46.2018" lon="-1.36859">
        <ele>14.1</ele>
        <time>2020-06-02T07:19:21Z</time>
      </trkpt>
      <trkpt lat="46.2018" lon="-1.36859">
        <ele>14.1</ele>
        <time>2020-06-02T07:19:22Z</time>
      </trkpt>
      <trkpt lat="46.2018" lon="-1.36859">
        <ele>14.1</ele>
        <time>2020-06-02T07:19:23Z</time>
      </trkpt>
      <trkpt lat="46.2018" lon="-1.36859">
        <ele>14.1</ele>
        <time>2020-06-02T07:19:24Z</time>
      </trkpt>
      <trkpt lat="46.2018" lon="-1.36859">
        <ele>14.1</ele>
        <time>2020-06-02T07:19:25Z</time>
      </trkpt>
      <trkpt lat="46.2018" lon="-1.36859">
        <ele>14.1</ele>
        <time>2020-06-02T07:19:26Z</time>
      </trkpt>
      <trkpt lat="46.2018" lon="-1.36859">
        <ele>14.1</ele>
        <time>2020-06-02T07:19:27Z</time>
      </trkpt>
      <trkpt lat="46.2018" lon="-1.36859">
        <ele>14.1</ele>
        <time>2020-06-02T07:19:28Z</time>
      </trkpt>
      <trkpt lat="46.2018" lon="-1.36859">
        <ele>14.1</ele>
        <time>2020-06-02T07:19:29Z</time>
      </trkpt>
      <trkpt lat="46.2018" lon="-1.36859">
        <ele>14.1</ele>
        <time>2020-06-02T07:19:30Z</time>
      </trkpt>
      <trkpt lat="46.2018" lon="-1.36859">
        <ele>14.1</ele>
        <time>2020-06-02T07:19:31Z</time>
      </trkpt>
      <trkpt lat="46.2018" lon="-1.36859">
        <ele>14.1</ele>
        <time>2020-06-02T07:19:32Z</time>
      </trkpt>
      <trkpt lat="46.2018" lon="-1.36859">
        <ele>14.1</ele>
        <time>2020-06-02T07:19:33Z</time>
      </trkpt>
      <trkpt lat="46.2018" lon="-1.36859">
        <ele>14.1</ele>
        <time>2020-06-02T07:19:34Z</time>
      </trkpt>
      <trkpt lat="46.2018" lon="-1.36859">
        <ele>14.1</ele>
        <time>2020-06-02T07:19:35Z</time>
      </trkpt>
      <trkpt lat="46.2018" lon="-1.36859">
        <ele>14.1</ele>
        <time>2020-06-02T07:19:36Z</time>
      </trkpt>
      <trkpt lat="46.2018" lon="-1.36859">
        <ele>14.1</ele>
        <time>2020-06-02T07:19:37Z</time>
      </trkpt>
      <trkpt lat="46.2018" lon="-1.36859">
        <ele>14.1</ele>
        <time>2020-06-02T07:19:38Z</time>
      </trkpt>
      <trkpt lat="46.2018" lon="-1.36859">
        <ele>14.1</ele>
        <time>2020-06-02T07:19:39Z</time>
      </trkpt>
      <trkpt lat="46.2018" lon="-1.36859">
        <ele>14.1</ele>
        <time>2020-06-02T07:19:40Z</time>
      </trkpt>
      <trkpt lat="46.2018" lon="-1.36859">
        <ele>14.1</ele>
        <time>2020-06-02T07:19:41Z</time>
      </trkpt>
      <trkpt lat="46.2018" lon="-1.36859">
        <ele>14.1</ele>
        <time>2020-06-02T07:19:42Z</time>
      </trkpt>
      <trkpt lat="46.2018" lon="-1.36859">
        <ele>14.1</ele>
        <time>2020-06-02T07:19:43Z</time>
      </trkpt>
      <trkpt lat="46.2018" lon="-1.36859">
        <ele>14.1</ele>
        <time>2020-06-02T07:19:44Z</time>
      </trkpt>
      <trkpt lat="46.2018" lon="-1.36859">
        <ele>14.1</ele>
        <time>2020-06-02T07:19:45Z</time>
      </trkpt>
      <trkpt lat="46.2018" lon="-1.36859">
        <ele>14.1</ele>
        <time>2020-06-02T07:19:46Z</time>
      </trkpt>
      <trkpt lat="46.2018" lon="-1.36859">
        <ele>14.1</ele>
        <time>2020-06-02T07:19:47Z</time>
      </trkpt>
      <trkpt lat="46.2018" lon="-1.36859">
        <ele>14.1</ele>
        <time>2020-06-02T07:19:48Z</time>
      </trkpt>
      <trkpt lat="46.2018" lon="-1.36859">
        <ele>14.1</ele>
        <time>2020-06-02T07:19:49Z</time>
      </trkpt>
      <trkpt lat="46.2018" lon="-1.36859">
        <ele>14.1</ele>
        <time>2020-06-02T07:19:50Z</time>
      </trkpt>
      <trkpt lat="46.20181" lon="-1.36859">
        <ele>14.1</ele>
        <time>2020-06-02T07:19:51Z</time>
      </trkpt>
      <trkpt lat="46.20181" lon="-1.36859">
        <ele>14.1</ele>
        <time>2020-06-02T07:19:52Z</time>
      </trkpt>
      <trkpt lat="46.20181" lon="-1.36859">
        <ele>14.1</ele>
        <time>2020-06-02T07:19:53Z</time>
      </trkpt>
      <trkpt lat="46.20181" lon="-1.36859">
        <ele>14.1</ele>
        <time>2020-06-02T07:19:54Z</time>
      </trkpt>
      <trkpt lat="46.20181" lon="-1.36859">
        <ele>14.1</ele>
        <time>2020-06-02T07:19:55Z</time>
      </trkpt>
      <trkpt lat="46.20181" lon="-1.36859">
        <ele>14.1</ele>
        <time>2020-06-02T07:19:56Z</time>
      </trkpt>
      <trkpt lat="46.20181" lon="-1.36859">
        <ele>14.1</ele>
        <time>2020-06-02T07:19:57Z</time>
      </trkpt>
      <trkpt lat="46.20181" lon="-1.36859">
        <ele>14.1</ele>
        <time>2020-06-02T07:19:58Z</time>
      </trkpt>
      <trkpt lat="46.20181" lon="-1.36859">
        <ele>14.1</ele>
        <time>2020-06-02T07:19:59Z</time>
      </trkpt>
      <trkpt lat="46.20181" lon="-1.36859">
        <ele>14.1</ele>
        <time>2020-06-02T07:20:00Z</time>
      </trkpt>
      <trkpt lat="46.20181" lon="-1.36859">
        <ele>14.1</ele>
        <time>2020-06-02T07:20:01Z</time>
      </trkpt>
      <trkpt lat="46.20181" lon="-1.36859">
        <ele>14.1</ele>
        <time>2020-06-02T07:20:02Z</time>
      </trkpt>
      <trkpt lat="46.20181" lon="-1.36859">
        <ele>14.1</ele>
        <time>2020-06-02T07:20:03Z</time>
      </trkpt>
      <trkpt lat="46.20181" lon="-1.36859">
        <ele>14.1</ele>
        <time>2020-06-02T07:20:04Z</time>
      </trkpt>
      <trkpt lat="46.20181" lon="-1.36859">
        <ele>14.1</ele>
        <time>2020-06-02T07:20:05Z</time>
      </trkpt>
      <trkpt lat="46.20181" lon="-1.36859">
        <ele>14.1</ele>
        <time>2020-06-02T07:20:06Z</time>
      </trkpt>
      <trkpt lat="46.20181" lon="-1.36859">
        <ele>14.1</ele>
        <time>2020-06-02T07:20:07Z</time>
      </trkpt>
      <trkpt lat="46.20181" lon="-1.36859">
        <ele>14.1</ele>
        <time>2020-06-02T07:20:08Z</time>
      </trkpt>
      <trkpt lat="46.20181" lon="-1.36859">
        <ele>14.1</ele>
        <time>2020-06-02T07:20:09Z</time>
      </trkpt>
      <trkpt lat="46.20181" lon="-1.36859">
        <ele>14.1</ele>
        <time>2020-06-02T07:20:10Z</time>
      </trkpt>
      <trkpt lat="46.20181" lon="-1.36859">
        <ele>14.1</ele>
        <time>2020-06-02T07:20:11Z</time>
      </trkpt>
      <trkpt lat="46.20181" lon="-1.36859">
        <ele>14.1</ele>
        <time>2020-06-02T07:20:12Z</time>
      </trkpt>
      <trkpt lat="46.20181" lon="-1.36859">
        <ele>14.1</ele>
        <time>2020-06-02T07:20:13Z</time>
      </trkpt>
      <trkpt lat="46.20181" lon="-1.36859">
        <ele>14.1</ele>
        <time>2020-06-02T07:20:14Z</time>
      </trkpt>
      <trkpt lat="46.20181" lon="-1.36859">
        <ele>14.1</ele>
        <time>2020-06-02T07:20:15Z</time>
      </trkpt>
      <trkpt lat="46.20181" lon="-1.36859">
        <ele>14.1</ele>
        <time>2020-06-02T07:20:16Z</time>
      </trkpt>
      <trkpt lat="46.20181" lon="-1.36859">
        <ele>14.1</ele>
        <time>2020-06-02T07:20:17Z</time>
      </trkpt>
      <trkpt lat="46.20181" lon="-1.36859">
        <ele>14.1</ele>
        <time>2020-06-02T07:20:18Z</time>
      </trkpt>
      <trkpt lat="46.20181" lon="-1.36859">
        <ele>14.1</ele>
        <time>2020-06-02T07:20:19Z</time>
      </trkpt>
      <trkpt lat="46.20181" lon="-1.36859">
        <ele>14.1</ele>
        <time>2020-06-02T07:20:20Z</time>
      </trkpt>
      <trkpt lat="46.20181" lon="-1.36859">
        <ele>14.1</ele>
        <time>2020-06-02T07:20:21Z</time>
      </trkpt>
      <trkpt lat="46.20181" lon="-1.36859">
        <ele>14.1</ele>
        <time>2020-06-02T07:20:22Z</time>
      </trkpt>
      <trkpt lat="46.20181" lon="-1.36859">
        <ele>14.1</ele>
        <time>2020-06-02T07:20:23Z</time>
      </trkpt>
      <trkpt lat="46.20181" lon="-1.36859">
        <ele>14.1</ele>
        <time>2020-06-02T07:20:24Z</time>
      </trkpt>
      <trkpt lat="46.20181" lon="-1.36859">
        <ele>14.1</ele>
        <time>2020-06-02T07:20:25Z</time>
      </trkpt>
      <trkpt lat="46.20181" lon="-1.36859">
        <ele>14.1</ele>
        <time>2020-06-02T07:20:26Z</time>
      </trkpt>
      <trkpt lat="46.20181" lon="-1.36859">
        <ele>14.1</ele>
        <time>2020-06-02T07:20:27Z</time>
      </trkpt>
      <trkpt lat="46.20181" lon="-1.36859">
        <ele>14.1</ele>
        <time>2020-06-02T07:20:28Z</time>
      </trkpt>
      <trkpt lat="46.20181" lon="-1.36859">
        <ele>14.1</ele>
        <time>2020-06-02T07:20:29Z</time>
      </trkpt>
      <trkpt lat="46.20181" lon="-1.36859">
        <ele>14.1</ele>
        <time>2020-06-02T07:20:30Z</time>
      </trkpt>
      <trkpt lat="46.20181" lon="-1.36859">
        <ele>14.1</ele>
        <time>2020-06-02T07:20:31Z</time>
      </trkpt>
      <trkpt lat="46.20181" lon="-1.36859">
        <ele>14.1</ele>
        <time>2020-06-02T07:20:32Z</time>
      </trkpt>
      <trkpt lat="46.20181" lon="-1.36859">
        <ele>14.1</ele>
        <time>2020-06-02T07:20:33Z</time>
      </trkpt>
      <trkpt lat="46.20181" lon="-1.36859">
        <ele>14.1</ele>
        <time>2020-06-02T07:20:34Z</time>
      </trkpt>
      <trkpt lat="46.20181" lon="-1.36859">
        <ele>14.1</ele>
        <time>2020-06-02T07:20:35Z</time>
      </trkpt>
      <trkpt lat="46.20181" lon="-1.36859">
        <ele>14.1</ele>
        <time>2020-06-02T07:20:36Z</time>
      </trkpt>
      <trkpt lat="46.20181" lon="-1.36859">
        <ele>14.1</ele>
        <time>2020-06-02T07:20:37Z</time>
      </trkpt>
      <trkpt lat="46.20181" lon="-1.36859">
        <ele>14.1</ele>
        <time>2020-06-02T07:20:38Z</time>
      </trkpt>
      <trkpt lat="46.20181" lon="-1.36859">
        <ele>14.1</ele>
        <time>2020-06-02T07:20:39Z</time>
      </trkpt>
      <trkpt lat="46.20181" lon="-1.36859">
        <ele>14.1</ele>
        <time>2020-06-02T07:20:40Z</time>
      </trkpt>
      <trkpt lat="46.20181" lon="-1.36859">
        <ele>14.1</ele>
        <time>2020-06-02T07:20:41Z</time>
      </trkpt>
      <trkpt lat="46.20181" lon="-1.36858">
        <ele>14.1</ele>
        <time>2020-06-02T07:20:42Z</time>
      </trkpt>
      <trkpt lat="46.20181" lon="-1.36858">
        <ele>14.1</ele>
        <time>2020-06-02T07:20:43Z</time>
      </trkpt>
      <trkpt lat="46.20181" lon="-1.36858">
        <ele>14.1</ele>
        <time>2020-06-02T07:20:44Z</time>
      </trkpt>
      <trkpt lat="46.20181" lon="-1.36858">
        <ele>14.1</ele>
        <time>2020-06-02T07:20:45Z</time>
      </trkpt>
      <trkpt lat="46.20181" lon="-1.36858">
        <ele>14.1</ele>
        <time>2020-06-02T07:20:46Z</time>
      </trkpt>
      <trkpt lat="46.20181" lon="-1.36857">
        <ele>14.1</ele>
        <time>2020-06-02T07:20:47Z</time>
      </trkpt>
      <trkpt lat="46.20182" lon="-1.36857">
        <ele>14.1</ele>
        <time>2020-06-02T07:20:48Z</time>
      </trkpt>
      <trkpt lat="46.20182" lon="-1.36857">
        <ele>14.2</ele>
        <time>2020-06-02T07:20:49Z</time>
      </trkpt>
      <trkpt lat="46.20182" lon="-1.36857">
        <ele>14.2</ele>
        <time>2020-06-02T07:20:50Z</time>
      </trkpt>
      <trkpt lat="46.20182" lon="-1.36857">
        <ele>14.2</ele>
        <time>2020-06-02T07:20:51Z</time>
      </trkpt>
      <trkpt lat="46.20182" lon="-1.36856">
        <ele>14.2</ele>
        <time>2020-06-02T07:20:52Z</time>
      </trkpt>
      <trkpt lat="46.20182" lon="-1.36856">
        <ele>14.2</ele>
        <time>2020-06-02T07:20:53Z</time>
      </trkpt>
      <trkpt lat="46.20182" lon="-1.36856">
        <ele>14.2</ele>
        <time>2020-06-02T07:20:54Z</time>
      </trkpt>
      <trkpt lat="46.20182" lon="-1.36856">
        <ele>14.2</ele>
        <time>2020-06-02T07:20:55Z</time>
      </trkpt>
      <trkpt lat="46.20182" lon="-1.36856">
        <ele>14.2</ele>
        <time>2020-06-02T07:20:56Z</time>
      </trkpt>
      <trkpt lat="46.20182" lon="-1.36855">
        <ele>14.2</ele>
        <time>2020-06-02T07:20:57Z</time>
      </trkpt>
      <trkpt lat="46.20183" lon="-1.36855">
        <ele>14.2</ele>
        <time>2020-06-02T07:20:58Z</time>
      </trkpt>
      <trkpt lat="46.20183" lon="-1.36855">
        <ele>14.2</ele>
        <time>2020-06-02T07:20:59Z</time>
      </trkpt>
      <trkpt lat="46.20183" lon="-1.36855">
        <ele>14.2</ele>
        <time>2020-06-02T07:21:00Z</time>
      </trkpt>
      <trkpt lat="46.20183" lon="-1.36855">
        <ele>14.2</ele>
        <time>2020-06-02T07:21:01Z</time>
      </trkpt>
      <trkpt lat="46.20183" lon="-1.36854">
        <ele>14.2</ele>
        <time>2020-06-02T07:21:02Z</time>
      </trkpt>
      <trkpt lat="46.20183" lon="-1.36854">
        <ele>14.2</ele>
        <time>2020-06-02T07:21:03Z</time>
      </trkpt>
      <trkpt lat="46.20183" lon="-1.36852">
        <ele>14.2</ele>
        <time>2020-06-02T07:21:04Z</time>
      </trkpt>
      <trkpt lat="46.20182" lon="-1.3685">
        <ele>14.2</ele>
        <time>2020-06-02T07:21:05Z</time>
      </trkpt>
      <trkpt lat="46.20181" lon="-1.36846">
        <ele>14.2</ele>
        <time>2020-06-02T07:21:06Z</time>
      </trkpt>
      <trkpt lat="46.20181" lon="-1.36844">
        <ele>14.2</ele>
        <time>2020-06-02T07:21:07Z</time>
      </trkpt>
      <trkpt lat="46.20179" lon="-1.3684">
        <ele>14.2</ele>
        <time>2020-06-02T07:21:08Z</time>
      </trkpt>
      <trkpt lat="46.20178" lon="-1.36839">
        <ele>14.2</ele>
        <time>2020-06-02T07:21:09Z</time>
      </trkpt>
      <trkpt lat="46.20178" lon="-1.36834">
        <ele>14.2</ele>
        <time>2020-06-02T07:21:10Z</time>
      </trkpt>
      <trkpt lat="46.20178" lon="-1.36832">
        <ele>14.2</ele>
        <time>2020-06-02T07:21:11Z</time>
      </trkpt>
      <trkpt lat="46.20178" lon="-1.36827">
        <ele>14.2</ele>
        <time>2020-06-02T07:21:12Z</time>
      </trkpt>
      <trkpt lat="46.20178" lon="-1.36825">
        <ele>14.2</ele>
        <time>2020-06-02T07:21:13Z</time>
      </trkpt>
      <trkpt lat="46.20178" lon="-1.36821">
        <ele>14.2</ele>
        <time>2020-06-02T07:21:14Z</time>
      </trkpt>
      <trkpt lat="46.20178" lon="-1.36815">
        <ele>14.2</ele>
        <time>2020-06-02T07:21:15Z</time>
      </trkpt>
      <trkpt lat="46.20177" lon="-1.3681">
        <ele>14.2</ele>
        <time>2020-06-02T07:21:16Z</time>
      </trkpt>
      <trkpt lat="46.20177" lon="-1.36806">
        <ele>14.2</ele>
        <time>2020-06-02T07:21:17Z</time>
      </trkpt>
      <trkpt lat="46.20176" lon="-1.36801">
        <ele>14.2</ele>
        <time>2020-06-02T07:21:18Z</time>
      </trkpt>
      <trkpt lat="46.20176" lon="-1.36796">
        <ele>14.2</ele>
        <time>2020-06-02T07:21:19Z</time>
      </trkpt>
      <trkpt lat="46.20176" lon="-1.36792">
        <ele>14.2</ele>
        <time>2020-06-02T07:21:20Z</time>
      </trkpt>
      <trkpt lat="46.20177" lon="-1.36787">
        <ele>14.1</ele>
        <time>2020-06-02T07:21:21Z</time>
      </trkpt>
      <trkpt lat="46.20177" lon="-1.36783">
        <ele>14.1</ele>
        <time>2020-06-02T07:21:22Z</time>
      </trkpt>
      <trkpt lat="46.20176" lon="-1.36779">
        <ele>14.1</ele>
        <time>2020-06-02T07:21:23Z</time>
      </trkpt>
      <trkpt lat="46.20176" lon="-1.36774">
        <ele>14</ele>
        <time>2020-06-02T07:21:24Z</time>
      </trkpt>
      <trkpt lat="46.20175" lon="-1.36768">
        <ele>14</ele>
        <time>2020-06-02T07:21:25Z</time>
      </trkpt>
      <trkpt lat="46.20174" lon="-1.36766">
        <ele>14</ele>
        <time>2020-06-02T07:21:26Z</time>
      </trkpt>
      <trkpt lat="46.20174" lon="-1.3676">
        <ele>13.8</ele>
        <time>2020-06-02T07:21:27Z</time>
      </trkpt>
      <trkpt lat="46.20172" lon="-1.36756">
        <ele>13.8</ele>
        <time>2020-06-02T07:21:28Z</time>
      </trkpt>
      <trkpt lat="46.2017" lon="-1.36752">
        <ele>13.8</ele>
        <time>2020-06-02T07:21:29Z</time>
      </trkpt>
      <trkpt lat="46.20168" lon="-1.36747">
        <ele>13.8</ele>
        <time>2020-06-02T07:21:30Z</time>
      </trkpt>
      <trkpt lat="46.20167" lon="-1.36742">
        <ele>13.8</ele>
        <time>2020-06-02T07:21:31Z</time>
      </trkpt>
      <trkpt lat="46.20164" lon="-1.36735">
        <ele>13.9</ele>
        <time>2020-06-02T07:21:32Z</time>
      </trkpt>
      <trkpt lat="46.20164" lon="-1.3673">
        <ele>13.9</ele>
        <time>2020-06-02T07:21:33Z</time>
      </trkpt>
      <trkpt lat="46.20162" lon="-1.36723">
        <ele>13.9</ele>
        <time>2020-06-02T07:21:34Z</time>
      </trkpt>
      <trkpt lat="46.2016" lon="-1.36716">
        <ele>13.9</ele>
        <time>2020-06-02T07:21:35Z</time>
      </trkpt>
      <trkpt lat="46.20158" lon="-1.36711">
        <ele>13.9</ele>
        <time>2020-06-02T07:21:36Z</time>
      </trkpt>
      <trkpt lat="46.20157" lon="-1.36705">
        <ele>13.8</ele>
        <time>2020-06-02T07:21:37Z</time>
      </trkpt>
      <trkpt lat="46.20155" lon="-1.367">
        <ele>13.8</ele>
        <time>2020-06-02T07:21:38Z</time>
      </trkpt>
      <trkpt lat="46.20153" lon="-1.36694">
        <ele>13.8</ele>
        <time>2020-06-02T07:21:39Z</time>
      </trkpt>
      <trkpt lat="46.20151" lon="-1.36688">
        <ele>13.7</ele>
        <time>2020-06-02T07:21:40Z</time>
      </trkpt>
      <trkpt lat="46.2015" lon="-1.36679">
        <ele>13.7</ele>
        <time>2020-06-02T07:21:41Z</time>
      </trkpt>
      <trkpt lat="46.20149" lon="-1.36672">
        <ele>13.6</ele>
        <time>2020-06-02T07:21:42Z</time>
      </trkpt>
      <trkpt lat="46.20147" lon="-1.36664">
        <ele>13.6</ele>
        <time>2020-06-02T07:21:43Z</time>
      </trkpt>
      <trkpt lat="46.20144" lon="-1.36658">
        <ele>13.6</ele>
        <time>2020-06-02T07:21:44Z</time>
      </trkpt>
      <trkpt lat="46.20141" lon="-1.36652">
        <ele>13.6</ele>
        <time>2020-06-02T07:21:45Z</time>
      </trkpt>
      <trkpt lat="46.2014" lon="-1.36644">
        <ele>13.6</ele>
        <time>2020-06-02T07:21:46Z</time>
      </trkpt>
      <trkpt lat="46.20138" lon="-1.36637">
        <ele>13.6</ele>
        <time>2020-06-02T07:21:47Z</time>
      </trkpt>
      <trkpt lat="46.20137" lon="-1.36631">
        <ele>13.6</ele>
        <time>2020-06-02T07:21:48Z</time>
      </trkpt>
      <trkpt lat="46.20135" lon="-1.36625">
        <ele>13.5</ele>
        <time>2020-06-02T07:21:49Z</time>
      </trkpt>
      <trkpt lat="46.20134" lon="-1.3662">
        <ele>13.4</ele>
        <time>2020-06-02T07:21:50Z</time>
      </trkpt>
      <trkpt lat="46.20133" lon="-1.36615">
        <ele>13.3</ele>
        <time>2020-06-02T07:21:51Z</time>
      </trkpt>
      <trkpt lat="46.20132" lon="-1.3661">
        <ele>13.2</ele>
        <time>2020-06-02T07:21:52Z</time>
      </trkpt>
      <trkpt lat="46.20131" lon="-1.36603">
        <ele>13.1</ele>
        <time>2020-06-02T07:21:53Z</time>
      </trkpt>
      <trkpt lat="46.2013" lon="-1.36598">
        <ele>13</ele>
        <time>2020-06-02T07:21:54Z</time>
      </trkpt>
      <trkpt lat="46.20129" lon="-1.36593">
        <ele>12.9</ele>
        <time>2020-06-02T07:21:55Z</time>
      </trkpt>
      <trkpt lat="46.20129" lon="-1.36588">
        <ele>12.8</ele>
        <time>2020-06-02T07:21:56Z</time>
      </trkpt>
      <trkpt lat="46.20129" lon="-1.36586">
        <ele>12.8</ele>
        <time>2020-06-02T07:21:57Z</time>
      </trkpt>
      <trkpt lat="46.20128" lon="-1.36583">
        <ele>12.7</ele>
        <time>2020-06-02T07:21:58Z</time>
      </trkpt>
      <trkpt lat="46.20127" lon="-1.36582">
        <ele>12.7</ele>
        <time>2020-06-02T07:21:59Z</time>
      </trkpt>
      <trkpt lat="46.20127" lon="-1.36577">
        <ele>12.6</ele>
        <time>2020-06-02T07:22:00Z</time>
      </trkpt>
      <trkpt lat="46.20127" lon="-1.36575">
        <ele>12.5</ele>
        <time>2020-06-02T07:22:01Z</time>
      </trkpt>
      <trkpt lat="46.20126" lon="-1.3657">
        <ele>12.5</ele>
        <time>2020-06-02T07:22:02Z</time>
      </trkpt>
      <trkpt lat="46.20126" lon="-1.36565">
        <ele>12.4</ele>
        <time>2020-06-02T07:22:03Z</time>
      </trkpt>
      <trkpt lat="46.20124" lon="-1.36558">
        <ele>12.3</ele>
        <time>2020-06-02T07:22:04Z</time>
      </trkpt>
      <trkpt lat="46.20124" lon="-1.36552">
        <ele>12.2</ele>
        <time>2020-06-02T07:22:05Z</time>
      </trkpt>
      <trkpt lat="46.20122" lon="-1.36545">
        <ele>12.1</ele>
        <time>2020-06-02T07:22:06Z</time>
      </trkpt>
      <trkpt lat="46.20121" lon="-1.36536">
        <ele>12</ele>
        <time>2020-06-02T07:22:07Z</time>
      </trkpt>
      <trkpt lat="46.2012" lon="-1.36528">
        <ele>12</ele>
        <time>2020-06-02T07:22:08Z</time>
      </trkpt>
      <trkpt lat="46.20118" lon="-1.36522">
        <ele>11.9</ele>
        <time>2020-06-02T07:22:09Z</time>
      </trkpt>
      <trkpt lat="46.20118" lon="-1.36517">
        <ele>11.9</ele>
        <time>2020-06-02T07:22:10Z</time>
      </trkpt>
      <trkpt lat="46.20116" lon="-1.36512">
        <ele>11.8</ele>
        <time>2020-06-02T07:22:11Z</time>
      </trkpt>
      <trkpt lat="46.20115" lon="-1.36508">
        <ele>11.8</ele>
        <time>2020-06-02T07:22:12Z</time>
      </trkpt>
      <trkpt lat="46.20114" lon="-1.36503">
        <ele>11.8</ele>
        <time>2020-06-02T07:22:13Z</time>
      </trkpt>
      <trkpt lat="46.20113" lon="-1.36498">
        <ele>11.7</ele>
        <time>2020-06-02T07:22:14Z</time>
      </trkpt>
      <trkpt lat="46.20112" lon="-1.36492">
        <ele>11.7</ele>
        <time>2020-06-02T07:22:15Z</time>
      </trkpt>
      <trkpt lat="46.20111" lon="-1.36487">
        <ele>11.6</ele>
        <time>2020-06-02T07:22:16Z</time>
      </trkpt>
      <trkpt lat="46.2011" lon="-1.36481">
        <ele>11.6</ele>
        <time>2020-06-02T07:22:17Z</time>
      </trkpt>
      <trkpt lat="46.20109" lon="-1.36474">
        <ele>11.5</ele>
        <time>2020-06-02T07:22:18Z</time>
      </trkpt>
      <trkpt lat="46.20109" lon="-1.36467">
        <ele>11.5</ele>
        <time>2020-06-02T07:22:19Z</time>
      </trkpt>
      <trkpt lat="46.20107" lon="-1.36462">
        <ele>11.5</ele>
        <time>2020-06-02T07:22:20Z</time>
      </trkpt>
      <trkpt lat="46.20106" lon="-1.36455">
        <ele>11.4</ele>
        <time>2020-06-02T07:22:21Z</time>
      </trkpt>
      <trkpt lat="46.20105" lon="-1.3645">
        <ele>11.4</ele>
        <time>2020-06-02T07:22:22Z</time>
      </trkpt>
      <trkpt lat="46.20104" lon="-1.36444">
        <ele>11.4</ele>
        <time>2020-06-02T07:22:23Z</time>
      </trkpt>
      <trkpt lat="46.20102" lon="-1.36439">
        <ele>11.4</ele>
        <time>2020-06-02T07:22:24Z</time>
      </trkpt>
      <trkpt lat="46.20101" lon="-1.36433">
        <ele>11.4</ele>
        <time>2020-06-02T07:22:25Z</time>
      </trkpt>
      <trkpt lat="46.20099" lon="-1.36427">
        <ele>11.4</ele>
        <time>2020-06-02T07:22:26Z</time>
      </trkpt>
      <trkpt lat="46.20097" lon="-1.36422">
        <ele>11.4</ele>
        <time>2020-06-02T07:22:27Z</time>
      </trkpt>
      <trkpt lat="46.20095" lon="-1.36418">
        <ele>11.3</ele>
        <time>2020-06-02T07:22:28Z</time>
      </trkpt>
      <trkpt lat="46.20089" lon="-1.36415">
        <ele>11.3</ele>
        <time>2020-06-02T07:22:29Z</time>
      </trkpt>
      <trkpt lat="46.20089" lon="-1.3641">
        <ele>11.3</ele>
        <time>2020-06-02T07:22:30Z</time>
      </trkpt>
      <trkpt lat="46.20087" lon="-1.36406">
        <ele>11.3</ele>
        <time>2020-06-02T07:22:31Z</time>
      </trkpt>
      <trkpt lat="46.20086" lon="-1.36404">
        <ele>11.3</ele>
        <time>2020-06-02T07:22:32Z</time>
      </trkpt>
      <trkpt lat="46.20084" lon="-1.36401">
        <ele>11.3</ele>
        <time>2020-06-02T07:22:33Z</time>
      </trkpt>
      <trkpt lat="46.20082" lon="-1.36396">
        <ele>11.3</ele>
        <time>2020-06-02T07:22:34Z</time>
      </trkpt>
      <trkpt lat="46.20082" lon="-1.36395">
        <ele>11.3</ele>
        <time>2020-06-02T07:22:35Z</time>
      </trkpt>
      <trkpt lat="46.20081" lon="-1.3639">
        <ele>11.3</ele>
        <time>2020-06-02T07:22:36Z</time>
      </trkpt>
      <trkpt lat="46.20079" lon="-1.36385">
        <ele>11.3</ele>
        <time>2020-06-02T07:22:37Z</time>
      </trkpt>
      <trkpt lat="46.20078" lon="-1.36379">
        <ele>11.3</ele>
        <time>2020-06-02T07:22:38Z</time>
      </trkpt>
      <trkpt lat="46.20077" lon="-1.36372">
        <ele>11.3</ele>
        <time>2020-06-02T07:22:39Z</time>
      </trkpt>
      <trkpt lat="46.20076" lon="-1.36366">
        <ele>11.3</ele>
        <time>2020-06-02T07:22:40Z</time>
      </trkpt>
      <trkpt lat="46.20074" lon="-1.36361">
        <ele>11.3</ele>
        <time>2020-06-02T07:22:41Z</time>
      </trkpt>
      <trkpt lat="46.20072" lon="-1.36355">
        <ele>11.3</ele>
        <time>2020-06-02T07:22:42Z</time>
      </trkpt>
      <trkpt lat="46.2007" lon="-1.36349">
        <ele>11.3</ele>
        <time>2020-06-02T07:22:43Z</time>
      </trkpt>
      <trkpt lat="46.20068" lon="-1.36343">
        <ele>11.3</ele>
        <time>2020-06-02T07:22:44Z</time>
      </trkpt>
      <trkpt lat="46.20067" lon="-1.36337">
        <ele>11.3</ele>
        <time>2020-06-02T07:22:45Z</time>
      </trkpt>
      <trkpt lat="46.20065" lon="-1.36331">
        <ele>11.3</ele>
        <time>2020-06-02T07:22:46Z</time>
      </trkpt>
      <trkpt lat="46.20064" lon="-1.36325">
        <ele>11.3</ele>
        <time>2020-06-02T07:22:47Z</time>
      </trkpt>
      <trkpt lat="46.20062" lon="-1.36319">
        <ele>11.3</ele>
        <time>2020-06-02T07:22:48Z</time>
      </trkpt>
      <trkpt lat="46.20061" lon="-1.36314">
        <ele>11.4</ele>
        <time>2020-06-02T07:22:49Z</time>
      </trkpt>
      <trkpt lat="46.20059" lon="-1.36309">
        <ele>11.4</ele>
        <time>2020-06-02T07:22:50Z</time>
      </trkpt>
      <trkpt lat="46.20059" lon="-1.36304">
        <ele>11.4</ele>
        <time>2020-06-02T07:22:51Z</time>
      </trkpt>
      <trkpt lat="46.20059" lon="-1.36298">
        <ele>11.4</ele>
        <time>2020-06-02T07:22:52Z</time>
      </trkpt>
      <trkpt lat="46.20059" lon="-1.36296">
        <ele>11.4</ele>
        <time>2020-06-02T07:22:53Z</time>
      </trkpt>
      <trkpt lat="46.20058" lon="-1.36292">
        <ele>11.4</ele>
        <time>2020-06-02T07:22:54Z</time>
      </trkpt>
      <trkpt lat="46.20056" lon="-1.36289">
        <ele>11.4</ele>
        <time>2020-06-02T07:22:55Z</time>
      </trkpt>
      <trkpt lat="46.20054" lon="-1.36284">
        <ele>11.4</ele>
        <time>2020-06-02T07:22:56Z</time>
      </trkpt>
      <trkpt lat="46.20052" lon="-1.36281">
        <ele>11.4</ele>
        <time>2020-06-02T07:22:57Z</time>
      </trkpt>
      <trkpt lat="46.20049" lon="-1.36278">
        <ele>11.4</ele>
        <time>2020-06-02T07:22:58Z</time>
      </trkpt>
      <trkpt lat="46.20047" lon="-1.36274">
        <ele>11.4</ele>
        <time>2020-06-02T07:22:59Z</time>
      </trkpt>
      <trkpt lat="46.20044" lon="-1.3627">
        <ele>11.4</ele>
        <time>2020-06-02T07:23:00Z</time>
      </trkpt>
      <trkpt lat="46.20041" lon="-1.36268">
        <ele>11.4</ele>
        <time>2020-06-02T07:23:01Z</time>
      </trkpt>
      <trkpt lat="46.20036" lon="-1.36265">
        <ele>11.5</ele>
        <time>2020-06-02T07:23:02Z</time>
      </trkpt>
      <trkpt lat="46.20032" lon="-1.36263">
        <ele>11.5</ele>
        <time>2020-06-02T07:23:03Z</time>
      </trkpt>
      <trkpt lat="46.20028" lon="-1.36261">
        <ele>11.5</ele>
        <time>2020-06-02T07:23:04Z</time>
      </trkpt>
      <trkpt lat="46.20024" lon="-1.3626">
        <ele>11.5</ele>
        <time>2020-06-02T07:23:05Z</time>
      </trkpt>
      <trkpt lat="46.20018" lon="-1.36261">
        <ele>11.4</ele>
        <time>2020-06-02T07:23:06Z</time>
      </trkpt>
      <trkpt lat="46.20014" lon="-1.36261">
        <ele>11.4</ele>
        <time>2020-06-02T07:23:07Z</time>
      </trkpt>
      <trkpt lat="46.20009" lon="-1.36262">
        <ele>11.4</ele>
        <time>2020-06-02T07:23:08Z</time>
      </trkpt>
      <trkpt lat="46.20005" lon="-1.36263">
        <ele>11.4</ele>
        <time>2020-06-02T07:23:09Z</time>
      </trkpt>
      <trkpt lat="46.19999" lon="-1.36264">
        <ele>11.4</ele>
        <time>2020-06-02T07:23:10Z</time>
      </trkpt>
      <trkpt lat="46.19994" lon="-1.36265">
        <ele>11.3</ele>
        <time>2020-06-02T07:23:11Z</time>
      </trkpt>
      <trkpt lat="46.19989" lon="-1.36266">
        <ele>11.3</ele>
        <time>2020-06-02T07:23:12Z</time>
      </trkpt>
      <trkpt lat="46.19985" lon="-1.36266">
        <ele>11.3</ele>
        <time>2020-06-02T07:23:13Z</time>
      </trkpt>
      <trkpt lat="46.19981" lon="-1.36266">
        <ele>11.3</ele>
        <time>2020-06-02T07:23:14Z</time>
      </trkpt>
      <trkpt lat="46.19977" lon="-1.36265">
        <ele>11.3</ele>
        <time>2020-06-02T07:23:15Z</time>
      </trkpt>
      <trkpt lat="46.19972" lon="-1.36263">
        <ele>11.3</ele>
        <time>2020-06-02T07:23:16Z</time>
      </trkpt>
      <trkpt lat="46.19967" lon="-1.3626">
        <ele>11.3</ele>
        <time>2020-06-02T07:23:17Z</time>
      </trkpt>
      <trkpt lat="46.19962" lon="-1.36256">
        <ele>11.3</ele>
        <time>2020-06-02T07:23:18Z</time>
      </trkpt>
      <trkpt lat="46.19957" lon="-1.36253">
        <ele>11.3</ele>
        <time>2020-06-02T07:23:19Z</time>
      </trkpt>
      <trkpt lat="46.19953" lon="-1.36249">
        <ele>11.3</ele>
        <time>2020-06-02T07:23:20Z</time>
      </trkpt>
      <trkpt lat="46.19948" lon="-1.36246">
        <ele>11.3</ele>
        <time>2020-06-02T07:23:21Z</time>
      </trkpt>
      <trkpt lat="46.19944" lon="-1.36241">
        <ele>11.3</ele>
        <time>2020-06-02T07:23:22Z</time>
      </trkpt>
      <trkpt lat="46.19941" lon="-1.36236">
        <ele>11.3</ele>
        <time>2020-06-02T07:23:23Z</time>
      </trkpt>
      <trkpt lat="46.19938" lon="-1.3623">
        <ele>11.3</ele>
        <time>2020-06-02T07:23:24Z</time>
      </trkpt>
      <trkpt lat="46.19935" lon="-1.36224">
        <ele>11.3</ele>
        <time>2020-06-02T07:23:25Z</time>
      </trkpt>
      <trkpt lat="46.19932" lon="-1.36219">
        <ele>11.3</ele>
        <time>2020-06-02T07:23:26Z</time>
      </trkpt>
      <trkpt lat="46.19929" lon="-1.36214">
        <ele>11.3</ele>
        <time>2020-06-02T07:23:27Z</time>
      </trkpt>
      <trkpt lat="46.19925" lon="-1.36209">
        <ele>11.3</ele>
        <time>2020-06-02T07:23:28Z</time>
      </trkpt>
      <trkpt lat="46.19922" lon="-1.36204">
        <ele>11.3</ele>
        <time>2020-06-02T07:23:29Z</time>
      </trkpt>
      <trkpt lat="46.19919" lon="-1.362">
        <ele>11.2</ele>
        <time>2020-06-02T07:23:30Z</time>
      </trkpt>
      <trkpt lat="46.19916" lon="-1.36195">
        <ele>11.2</ele>
        <time>2020-06-02T07:23:31Z</time>
      </trkpt>
      <trkpt lat="46.19912" lon="-1.3619">
        <ele>11.2</ele>
        <time>2020-06-02T07:23:32Z</time>
      </trkpt>
      <trkpt lat="46.1991" lon="-1.36184">
        <ele>11.2</ele>
        <time>2020-06-02T07:23:33Z</time>
      </trkpt>
      <trkpt lat="46.19908" lon="-1.36179">
        <ele>11.1</ele>
        <time>2020-06-02T07:23:34Z</time>
      </trkpt>
      <trkpt lat="46.19905" lon="-1.36173">
        <ele>11.1</ele>
        <time>2020-06-02T07:23:35Z</time>
      </trkpt>
      <trkpt lat="46.19903" lon="-1.36168">
        <ele>11.1</ele>
        <time>2020-06-02T07:23:36Z</time>
      </trkpt>
      <trkpt lat="46.199" lon="-1.36163">
        <ele>11.1</ele>
        <time>2020-06-02T07:23:37Z</time>
      </trkpt>
      <trkpt lat="46.19897" lon="-1.36156">
        <ele>11</ele>
        <time>2020-06-02T07:23:38Z</time>
      </trkpt>
      <trkpt lat="46.19895" lon="-1.36151">
        <ele>11</ele>
        <time>2020-06-02T07:23:39Z</time>
      </trkpt>
      <trkpt lat="46.19891" lon="-1.36145">
        <ele>10.9</ele>
        <time>2020-06-02T07:23:40Z</time>
      </trkpt>
      <trkpt lat="46.19889" lon="-1.36139">
        <ele>10.9</ele>
        <time>2020-06-02T07:23:41Z</time>
      </trkpt>
      <trkpt lat="46.19885" lon="-1.36132">
        <ele>10.8</ele>
        <time>2020-06-02T07:23:42Z</time>
      </trkpt>
      <trkpt lat="46.19882" lon="-1.36126">
        <ele>10.7</ele>
        <time>2020-06-02T07:23:43Z</time>
      </trkpt>
      <trkpt lat="46.19879" lon="-1.3612">
        <ele>10.6</ele>
        <time>2020-06-02T07:23:44Z</time>
      </trkpt>
      <trkpt lat="46.19877" lon="-1.36113">
        <ele>10.5</ele>
        <time>2020-06-02T07:23:45Z</time>
      </trkpt>
      <trkpt lat="46.19874" lon="-1.36106">
        <ele>10.4</ele>
        <time>2020-06-02T07:23:46Z</time>
      </trkpt>
      <trkpt lat="46.19872" lon="-1.36099">
        <ele>10.4</ele>
        <time>2020-06-02T07:23:47Z</time>
      </trkpt>
      <trkpt lat="46.1987" lon="-1.36092">
        <ele>10.3</ele>
        <time>2020-06-02T07:23:48Z</time>
      </trkpt>
      <trkpt lat="46.19868" lon="-1.36084">
        <ele>10.3</ele>
        <time>2020-06-02T07:23:49Z</time>
      </trkpt>
      <trkpt lat="46.19865" lon="-1.36078">
        <ele>10.2</ele>
        <time>2020-06-02T07:23:50Z</time>
      </trkpt>
      <trkpt lat="46.19861" lon="-1.36073">
        <ele>10.1</ele>
        <time>2020-06-02T07:23:51Z</time>
      </trkpt>
      <trkpt lat="46.19857" lon="-1.36069">
        <ele>10.2</ele>
        <time>2020-06-02T07:23:52Z</time>
      </trkpt>
      <trkpt lat="46.19853" lon="-1.36065">
        <ele>10.2</ele>
        <time>2020-06-02T07:23:53Z</time>
      </trkpt>
      <trkpt lat="46.1985" lon="-1.3606">
        <ele>10.2</ele>
        <time>2020-06-02T07:23:54Z</time>
      </trkpt>
      <trkpt lat="46.19847" lon="-1.36053">
        <ele>10.2</ele>
        <time>2020-06-02T07:23:55Z</time>
      </trkpt>
      <trkpt lat="46.19845" lon="-1.36046">
        <ele>10.2</ele>
        <time>2020-06-02T07:23:56Z</time>
      </trkpt>
      <trkpt lat="46.19847" lon="-1.36041">
        <ele>10.2</ele>
        <time>2020-06-02T07:23:57Z</time>
      </trkpt>
      <trkpt lat="46.1985" lon="-1.36035">
        <ele>10.2</ele>
        <time>2020-06-02T07:23:58Z</time>
      </trkpt>
      <trkpt lat="46.19853" lon="-1.36029">
        <ele>10.3</ele>
        <time>2020-06-02T07:23:59Z</time>
      </trkpt>
      <trkpt lat="46.19857" lon="-1.36023">
        <ele>10.4</ele>
        <time>2020-06-02T07:24:00Z</time>
      </trkpt>
      <trkpt lat="46.1986" lon="-1.36016">
        <ele>10.5</ele>
        <time>2020-06-02T07:24:01Z</time>
      </trkpt>
      <trkpt lat="46.19864" lon="-1.36009">
        <ele>10.5</ele>
        <time>2020-06-02T07:24:02Z</time>
      </trkpt>
      <trkpt lat="46.19867" lon="-1.36001">
        <ele>10.5</ele>
        <time>2020-06-02T07:24:03Z</time>
      </trkpt>
      <trkpt lat="46.1987" lon="-1.35994">
        <ele>10.5</ele>
        <time>2020-06-02T07:24:04Z</time>
      </trkpt>
      <trkpt lat="46.19871" lon="-1.35986">
        <ele>10.5</ele>
        <time>2020-06-02T07:24:05Z</time>
      </trkpt>
      <trkpt lat="46.19874" lon="-1.35979">
        <ele>10.5</ele>
        <time>2020-06-02T07:24:06Z</time>
      </trkpt>
      <trkpt lat="46.19876" lon="-1.35971">
        <ele>10.5</ele>
        <time>2020-06-02T07:24:07Z</time>
      </trkpt>
      <trkpt lat="46.19878" lon="-1.35963">
        <ele>10.5</ele>
        <time>2020-06-02T07:24:08Z</time>
      </trkpt>
      <trkpt lat="46.1988" lon="-1.35955">
        <ele>10.5</ele>
        <time>2020-06-02T07:24:09Z</time>
      </trkpt>
      <trkpt lat="46.19881" lon="-1.35947">
        <ele>10.5</ele>
        <time>2020-06-02T07:24:10Z</time>
      </trkpt>
      <trkpt lat="46.19883" lon="-1.35939">
        <ele>10.5</ele>
        <time>2020-06-02T07:24:11Z</time>
      </trkpt>
      <trkpt lat="46.19885" lon="-1.35929">
        <ele>10.5</ele>
        <time>2020-06-02T07:24:12Z</time>
      </trkpt>
      <trkpt lat="46.19887" lon="-1.35921">
        <ele>10.5</ele>
        <time>2020-06-02T07:24:13Z</time>
      </trkpt>
      <trkpt lat="46.19889" lon="-1.35913">
        <ele>10.5</ele>
        <time>2020-06-02T07:24:14Z</time>
      </trkpt>
      <trkpt lat="46.1989" lon="-1.35904">
        <ele>10.5</ele>
        <time>2020-06-02T07:24:15Z</time>
      </trkpt>
      <trkpt lat="46.19892" lon="-1.35896">
        <ele>10.5</ele>
        <time>2020-06-02T07:24:16Z</time>
      </trkpt>
      <trkpt lat="46.19894" lon="-1.35888">
        <ele>10.5</ele>
        <time>2020-06-02T07:24:17Z</time>
      </trkpt>
      <trkpt lat="46.19895" lon="-1.3588">
        <ele>10.5</ele>
        <time>2020-06-02T07:24:18Z</time>
      </trkpt>
      <trkpt lat="46.19896" lon="-1.35871">
        <ele>10.5</ele>
        <time>2020-06-02T07:24:19Z</time>
      </trkpt>
      <trkpt lat="46.19897" lon="-1.35863">
        <ele>10.5</ele>
        <time>2020-06-02T07:24:20Z</time>
      </trkpt>
      <trkpt lat="46.19898" lon="-1.35856">
        <ele>10.5</ele>
        <time>2020-06-02T07:24:21Z</time>
      </trkpt>
      <trkpt lat="46.19898" lon="-1.3585">
        <ele>10.6</ele>
        <time>2020-06-02T07:24:22Z</time>
      </trkpt>
      <trkpt lat="46.19897" lon="-1.35846">
        <ele>10.6</ele>
        <time>2020-06-02T07:24:23Z</time>
      </trkpt>
      <trkpt lat="46.19897" lon="-1.35842">
        <ele>10.6</ele>
        <time>2020-06-02T07:24:24Z</time>
      </trkpt>
      <trkpt lat="46.19896" lon="-1.35837">
        <ele>10.6</ele>
        <time>2020-06-02T07:24:25Z</time>
      </trkpt>
      <trkpt lat="46.19894" lon="-1.3583">
        <ele>10.6</ele>
        <time>2020-06-02T07:24:26Z</time>
      </trkpt>
      <trkpt lat="46.19894" lon="-1.35824">
        <ele>10.6</ele>
        <time>2020-06-02T07:24:27Z</time>
      </trkpt>
      <trkpt lat="46.19892" lon="-1.35818">
        <ele>10.6</ele>
        <time>2020-06-02T07:24:28Z</time>
      </trkpt>
      <trkpt lat="46.19892" lon="-1.35812">
        <ele>10.6</ele>
        <time>2020-06-02T07:24:29Z</time>
      </trkpt>
      <trkpt lat="46.1989" lon="-1.35806">
        <ele>10.6</ele>
        <time>2020-06-02T07:24:30Z</time>
      </trkpt>
      <trkpt lat="46.19889" lon="-1.358">
        <ele>10.6</ele>
        <time>2020-06-02T07:24:31Z</time>
      </trkpt>
      <trkpt lat="46.19886" lon="-1.35794">
        <ele>10.6</ele>
        <time>2020-06-02T07:24:32Z</time>
      </trkpt>
      <trkpt lat="46.19884" lon="-1.35787">
        <ele>10.6</ele>
        <time>2020-06-02T07:24:33Z</time>
      </trkpt>
      <trkpt lat="46.19882" lon="-1.35781">
        <ele>10.6</ele>
        <time>2020-06-02T07:24:34Z</time>
      </trkpt>
      <trkpt lat="46.19881" lon="-1.35775">
        <ele>10.6</ele>
        <time>2020-06-02T07:24:35Z</time>
      </trkpt>
      <trkpt lat="46.19878" lon="-1.35769">
        <ele>10.6</ele>
        <time>2020-06-02T07:24:36Z</time>
      </trkpt>
      <trkpt lat="46.19875" lon="-1.35762">
        <ele>10.6</ele>
        <time>2020-06-02T07:24:37Z</time>
      </trkpt>
      <trkpt lat="46.19873" lon="-1.35755">
        <ele>10.7</ele>
        <time>2020-06-02T07:24:38Z</time>
      </trkpt>
      <trkpt lat="46.19871" lon="-1.35748">
        <ele>10.7</ele>
        <time>2020-06-02T07:24:39Z</time>
      </trkpt>
      <trkpt lat="46.1987" lon="-1.35742">
        <ele>10.7</ele>
        <time>2020-06-02T07:24:40Z</time>
      </trkpt>
      <trkpt lat="46.19869" lon="-1.35735">
        <ele>10.7</ele>
        <time>2020-06-02T07:24:41Z</time>
      </trkpt>
      <trkpt lat="46.19867" lon="-1.35729">
        <ele>10.7</ele>
        <time>2020-06-02T07:24:42Z</time>
      </trkpt>
      <trkpt lat="46.19865" lon="-1.35723">
        <ele>10.7</ele>
        <time>2020-06-02T07:24:43Z</time>
      </trkpt>
      <trkpt lat="46.19864" lon="-1.35716">
        <ele>10.8</ele>
        <time>2020-06-02T07:24:44Z</time>
      </trkpt>
      <trkpt lat="46.19862" lon="-1.35709">
        <ele>10.8</ele>
        <time>2020-06-02T07:24:45Z</time>
      </trkpt>
      <trkpt lat="46.19861" lon="-1.35702">
        <ele>10.8</ele>
        <time>2020-06-02T07:24:46Z</time>
      </trkpt>
      <trkpt lat="46.19859" lon="-1.35695">
        <ele>10.8</ele>
        <time>2020-06-02T07:24:47Z</time>
      </trkpt>
      <trkpt lat="46.19858" lon="-1.35687">
        <ele>10.8</ele>
        <time>2020-06-02T07:24:48Z</time>
      </trkpt>
      <trkpt lat="46.19856" lon="-1.35679">
        <ele>10.9</ele>
        <time>2020-06-02T07:24:49Z</time>
      </trkpt>
      <trkpt lat="46.19854" lon="-1.35672">
        <ele>10.9</ele>
        <time>2020-06-02T07:24:50Z</time>
      </trkpt>
      <trkpt lat="46.19852" lon="-1.35664">
        <ele>10.9</ele>
        <time>2020-06-02T07:24:51Z</time>
      </trkpt>
      <trkpt lat="46.1985" lon="-1.35657">
        <ele>11</ele>
        <time>2020-06-02T07:24:52Z</time>
      </trkpt>
      <trkpt lat="46.19848" lon="-1.35649">
        <ele>11</ele>
        <time>2020-06-02T07:24:53Z</time>
      </trkpt>
      <trkpt lat="46.19846" lon="-1.35641">
        <ele>11</ele>
        <time>2020-06-02T07:24:54Z</time>
      </trkpt>
      <trkpt lat="46.19844" lon="-1.35633">
        <ele>11.1</ele>
        <time>2020-06-02T07:24:55Z</time>
      </trkpt>
      <trkpt lat="46.19842" lon="-1.35625">
        <ele>11.1</ele>
        <time>2020-06-02T07:24:56Z</time>
      </trkpt>
      <trkpt lat="46.19841" lon="-1.35617">
        <ele>11.1</ele>
        <time>2020-06-02T07:24:57Z</time>
      </trkpt>
      <trkpt lat="46.19839" lon="-1.3561">
        <ele>11.2</ele>
        <time>2020-06-02T07:24:58Z</time>
      </trkpt>
      <trkpt lat="46.19836" lon="-1.35602">
        <ele>11.2</ele>
        <time>2020-06-02T07:24:59Z</time>
      </trkpt>
      <trkpt lat="46.19835" lon="-1.35594">
        <ele>11.3</ele>
        <time>2020-06-02T07:25:00Z</time>
      </trkpt>
      <trkpt lat="46.19831" lon="-1.35587">
        <ele>11.3</ele>
        <time>2020-06-02T07:25:01Z</time>
      </trkpt>
      <trkpt lat="46.19829" lon="-1.35579">
        <ele>11.4</ele>
        <time>2020-06-02T07:25:02Z</time>
      </trkpt>
      <trkpt lat="46.19828" lon="-1.3557">
        <ele>11.5</ele>
        <time>2020-06-02T07:25:03Z</time>
      </trkpt>
      <trkpt lat="46.19826" lon="-1.35562">
        <ele>11.5</ele>
        <time>2020-06-02T07:25:04Z</time>
      </trkpt>
      <trkpt lat="46.19825" lon="-1.35555">
        <ele>11.5</ele>
        <time>2020-06-02T07:25:05Z</time>
      </trkpt>
      <trkpt lat="46.19822" lon="-1.35546">
        <ele>11.6</ele>
        <time>2020-06-02T07:25:06Z</time>
      </trkpt>
      <trkpt lat="46.1982" lon="-1.35539">
        <ele>11.6</ele>
        <time>2020-06-02T07:25:07Z</time>
      </trkpt>
      <trkpt lat="46.19818" lon="-1.35531">
        <ele>11.6</ele>
        <time>2020-06-02T07:25:08Z</time>
      </trkpt>
      <trkpt lat="46.19816" lon="-1.35523">
        <ele>11.6</ele>
        <time>2020-06-02T07:25:09Z</time>
      </trkpt>
      <trkpt lat="46.19814" lon="-1.35516">
        <ele>11.6</ele>
        <time>2020-06-02T07:25:10Z</time>
      </trkpt>
      <trkpt lat="46.19812" lon="-1.35508">
        <ele>11.7</ele>
        <time>2020-06-02T07:25:11Z</time>
      </trkpt>
      <trkpt lat="46.1981" lon="-1.35501">
        <ele>11.7</ele>
        <time>2020-06-02T07:25:12Z</time>
      </trkpt>
      <trkpt lat="46.19808" lon="-1.35496">
        <ele>11.7</ele>
        <time>2020-06-02T07:25:13Z</time>
      </trkpt>
      <trkpt lat="46.19805" lon="-1.3549">
        <ele>11.7</ele>
        <time>2020-06-02T07:25:14Z</time>
      </trkpt>
      <trkpt lat="46.19802" lon="-1.35484">
        <ele>11.7</ele>
        <time>2020-06-02T07:25:15Z</time>
      </trkpt>
      <trkpt lat="46.198" lon="-1.35479">
        <ele>11.7</ele>
        <time>2020-06-02T07:25:16Z</time>
      </trkpt>
      <trkpt lat="46.19798" lon="-1.35474">
        <ele>11.7</ele>
        <time>2020-06-02T07:25:17Z</time>
      </trkpt>
      <trkpt lat="46.19797" lon="-1.35468">
        <ele>11.7</ele>
        <time>2020-06-02T07:25:18Z</time>
      </trkpt>
      <trkpt lat="46.19799" lon="-1.35462">
        <ele>11.7</ele>
        <time>2020-06-02T07:25:19Z</time>
      </trkpt>
      <trkpt lat="46.19803" lon="-1.3546">
        <ele>11.7</ele>
        <time>2020-06-02T07:25:20Z</time>
      </trkpt>
      <trkpt lat="46.19807" lon="-1.3546">
        <ele>11.6</ele>
        <time>2020-06-02T07:25:21Z</time>
      </trkpt>
      <trkpt lat="46.19811" lon="-1.35459">
        <ele>11.6</ele>
        <time>2020-06-02T07:25:22Z</time>
      </trkpt>
      <trkpt lat="46.19816" lon="-1.35456">
        <ele>11.6</ele>
        <time>2020-06-02T07:25:23Z</time>
      </trkpt>
      <trkpt lat="46.1982" lon="-1.35453">
        <ele>11.5</ele>
        <time>2020-06-02T07:25:24Z</time>
      </trkpt>
      <trkpt lat="46.19823" lon="-1.35451">
        <ele>11.5</ele>
        <time>2020-06-02T07:25:25Z</time>
      </trkpt>
      <trkpt lat="46.19825" lon="-1.35448">
        <ele>11.5</ele>
        <time>2020-06-02T07:25:26Z</time>
      </trkpt>
      <trkpt lat="46.19825" lon="-1.35447">
        <ele>11.5</ele>
        <time>2020-06-02T07:25:27Z</time>
      </trkpt>
      <trkpt lat="46.19827" lon="-1.35444">
        <ele>11.5</ele>
        <time>2020-06-02T07:25:28Z</time>
      </trkpt>
      <trkpt lat="46.19827" lon="-1.35442">
        <ele>11.5</ele>
        <time>2020-06-02T07:25:29Z</time>
      </trkpt>
      <trkpt lat="46.19829" lon="-1.35441">
        <ele>11.5</ele>
        <time>2020-06-02T07:25:30Z</time>
      </trkpt>
      <trkpt lat="46.1983" lon="-1.3544">
        <ele>11.5</ele>
        <time>2020-06-02T07:25:31Z</time>
      </trkpt>
      <trkpt lat="46.19831" lon="-1.35443">
        <ele>11.5</ele>
        <time>2020-06-02T07:25:32Z</time>
      </trkpt>
      <trkpt lat="46.19831" lon="-1.35445">
        <ele>11.5</ele>
        <time>2020-06-02T07:25:33Z</time>
      </trkpt>
      <trkpt lat="46.1983" lon="-1.35448">
        <ele>11.5</ele>
        <time>2020-06-02T07:25:34Z</time>
      </trkpt>
      <trkpt lat="46.19829" lon="-1.35449">
        <ele>11.5</ele>
        <time>2020-06-02T07:25:35Z</time>
      </trkpt>
      <trkpt lat="46.19827" lon="-1.35453">
        <ele>11.5</ele>
        <time>2020-06-02T07:25:36Z</time>
      </trkpt>
      <trkpt lat="46.19825" lon="-1.35458">
        <ele>11.5</ele>
        <time>2020-06-02T07:25:37Z</time>
      </trkpt>
      <trkpt lat="46.19823" lon="-1.35461">
        <ele>11.6</ele>
        <time>2020-06-02T07:25:38Z</time>
      </trkpt>
      <trkpt lat="46.1982" lon="-1.3546">
        <ele>11.6</ele>
        <time>2020-06-02T07:25:39Z</time>
      </trkpt>
      <trkpt lat="46.19816" lon="-1.35459">
        <ele>11.6</ele>
        <time>2020-06-02T07:25:40Z</time>
      </trkpt>
      <trkpt lat="46.19815" lon="-1.35453">
        <ele>11.6</ele>
        <time>2020-06-02T07:25:41Z</time>
      </trkpt>
      <trkpt lat="46.19812" lon="-1.35447">
        <ele>11.6</ele>
        <time>2020-06-02T07:25:42Z</time>
      </trkpt>
      <trkpt lat="46.19809" lon="-1.35442">
        <ele>11.6</ele>
        <time>2020-06-02T07:25:43Z</time>
      </trkpt>
      <trkpt lat="46.19806" lon="-1.35436">
        <ele>11.6</ele>
        <time>2020-06-02T07:25:44Z</time>
      </trkpt>
      <trkpt lat="46.19802" lon="-1.35429">
        <ele>11.5</ele>
        <time>2020-06-02T07:25:45Z</time>
      </trkpt>
      <trkpt lat="46.19798" lon="-1.35423">
        <ele>11.5</ele>
        <time>2020-06-02T07:25:46Z</time>
      </trkpt>
      <trkpt lat="46.19791" lon="-1.35416">
        <ele>11.5</ele>
        <time>2020-06-02T07:25:47Z</time>
      </trkpt>
      <trkpt lat="46.19787" lon="-1.3541">
        <ele>11.5</ele>
        <time>2020-06-02T07:25:48Z</time>
      </trkpt>
      <trkpt lat="46.19783" lon="-1.35404">
        <ele>11.5</ele>
        <time>2020-06-02T07:25:49Z</time>
      </trkpt>
      <trkpt lat="46.1978" lon="-1.35398">
        <ele>11.5</ele>
        <time>2020-06-02T07:25:50Z</time>
      </trkpt>
      <trkpt lat="46.19777" lon="-1.35391">
        <ele>11.5</ele>
        <time>2020-06-02T07:25:51Z</time>
      </trkpt>
      <trkpt lat="46.19775" lon="-1.35383">
        <ele>11.5</ele>
        <time>2020-06-02T07:25:52Z</time>
      </trkpt>
      <trkpt lat="46.19772" lon="-1.35376">
        <ele>11.5</ele>
        <time>2020-06-02T07:25:53Z</time>
      </trkpt>
      <trkpt lat="46.1977" lon="-1.35368">
        <ele>11.5</ele>
        <time>2020-06-02T07:25:54Z</time>
      </trkpt>
      <trkpt lat="46.19767" lon="-1.3536">
        <ele>11.5</ele>
        <time>2020-06-02T07:25:55Z</time>
      </trkpt>
      <trkpt lat="46.19764" lon="-1.35353">
        <ele>11.4</ele>
        <time>2020-06-02T07:25:56Z</time>
      </trkpt>
      <trkpt lat="46.19761" lon="-1.35344">
        <ele>11.4</ele>
        <time>2020-06-02T07:25:57Z</time>
      </trkpt>
      <trkpt lat="46.19758" lon="-1.35336">
        <ele>11.4</ele>
        <time>2020-06-02T07:25:58Z</time>
      </trkpt>
      <trkpt lat="46.19756" lon="-1.35328">
        <ele>11.4</ele>
        <time>2020-06-02T07:25:59Z</time>
      </trkpt>
      <trkpt lat="46.19753" lon="-1.3532">
        <ele>11.4</ele>
        <time>2020-06-02T07:26:00Z</time>
      </trkpt>
      <trkpt lat="46.1975" lon="-1.35312">
        <ele>11.4</ele>
        <time>2020-06-02T07:26:01Z</time>
      </trkpt>
      <trkpt lat="46.19747" lon="-1.35304">
        <ele>11.4</ele>
        <time>2020-06-02T07:26:02Z</time>
      </trkpt>
      <trkpt lat="46.19744" lon="-1.35296">
        <ele>11.4</ele>
        <time>2020-06-02T07:26:03Z</time>
      </trkpt>
      <trkpt lat="46.19741" lon="-1.35288">
        <ele>11.4</ele>
        <time>2020-06-02T07:26:04Z</time>
      </trkpt>
      <trkpt lat="46.19736" lon="-1.35278">
        <ele>11.3</ele>
        <time>2020-06-02T07:26:05Z</time>
      </trkpt>
      <trkpt lat="46.19732" lon="-1.35268">
        <ele>11.3</ele>
        <time>2020-06-02T07:26:06Z</time>
      </trkpt>
      <trkpt lat="46.19728" lon="-1.35259">
        <ele>11.3</ele>
        <time>2020-06-02T07:26:07Z</time>
      </trkpt>
      <trkpt lat="46.19723" lon="-1.35249">
        <ele>11.3</ele>
        <time>2020-06-02T07:26:08Z</time>
      </trkpt>
      <trkpt lat="46.19719" lon="-1.35241">
        <ele>11.2</ele>
        <time>2020-06-02T07:26:09Z</time>
      </trkpt>
      <trkpt lat="46.19714" lon="-1.35232">
        <ele>11.2</ele>
        <time>2020-06-02T07:26:10Z</time>
      </trkpt>
      <trkpt lat="46.1971" lon="-1.35223">
        <ele>11.2</ele>
        <time>2020-06-02T07:26:11Z</time>
      </trkpt>
      <trkpt lat="46.19706" lon="-1.35215">
        <ele>11.2</ele>
        <time>2020-06-02T07:26:12Z</time>
      </trkpt>
      <trkpt lat="46.19701" lon="-1.35207">
        <ele>11.1</ele>
        <time>2020-06-02T07:26:13Z</time>
      </trkpt>
      <trkpt lat="46.19697" lon="-1.35198">
        <ele>11.1</ele>
        <time>2020-06-02T07:26:14Z</time>
      </trkpt>
      <trkpt lat="46.19693" lon="-1.35188">
        <ele>11.1</ele>
        <time>2020-06-02T07:26:15Z</time>
      </trkpt>
      <trkpt lat="46.19689" lon="-1.3518">
        <ele>11.1</ele>
        <time>2020-06-02T07:26:16Z</time>
      </trkpt>
      <trkpt lat="46.19685" lon="-1.35172">
        <ele>11.1</ele>
        <time>2020-06-02T07:26:17Z</time>
      </trkpt>
      <trkpt lat="46.19681" lon="-1.35162">
        <ele>11.1</ele>
        <time>2020-06-02T07:26:18Z</time>
      </trkpt>
      <trkpt lat="46.19676" lon="-1.35154">
        <ele>11</ele>
        <time>2020-06-02T07:26:19Z</time>
      </trkpt>
      <trkpt lat="46.19672" lon="-1.35146">
        <ele>11</ele>
        <time>2020-06-02T07:26:20Z</time>
      </trkpt>
      <trkpt lat="46.19668" lon="-1.35137">
        <ele>11</ele>
        <time>2020-06-02T07:26:21Z</time>
      </trkpt>
      <trkpt lat="46.19663" lon="-1.35128">
        <ele>10.9</ele>
        <time>2020-06-02T07:26:22Z</time>
      </trkpt>
      <trkpt lat="46.19659" lon="-1.35119">
        <ele>10.9</ele>
        <time>2020-06-02T07:26:23Z</time>
      </trkpt>
      <trkpt lat="46.19655" lon="-1.3511">
        <ele>10.9</ele>
        <time>2020-06-02T07:26:24Z</time>
      </trkpt>
      <trkpt lat="46.19651" lon="-1.35102">
        <ele>10.9</ele>
        <time>2020-06-02T07:26:25Z</time>
      </trkpt>
      <trkpt lat="46.19647" lon="-1.35093">
        <ele>10.9</ele>
        <time>2020-06-02T07:26:26Z</time>
      </trkpt>
      <trkpt lat="46.19643" lon="-1.35085">
        <ele>10.9</ele>
        <time>2020-06-02T07:26:27Z</time>
      </trkpt>
      <trkpt lat="46.19639" lon="-1.35077">
        <ele>10.9</ele>
        <time>2020-06-02T07:26:28Z</time>
      </trkpt>
      <trkpt lat="46.19636" lon="-1.35069">
        <ele>10.9</ele>
        <time>2020-06-02T07:26:29Z</time>
      </trkpt>
      <trkpt lat="46.19633" lon="-1.35062">
        <ele>10.9</ele>
        <time>2020-06-02T07:26:30Z</time>
      </trkpt>
      <trkpt lat="46.1963" lon="-1.35056">
        <ele>10.9</ele>
        <time>2020-06-02T07:26:31Z</time>
      </trkpt>
      <trkpt lat="46.19627" lon="-1.35051">
        <ele>10.9</ele>
        <time>2020-06-02T07:26:32Z</time>
      </trkpt>
      <trkpt lat="46.19624" lon="-1.35045">
        <ele>10.9</ele>
        <time>2020-06-02T07:26:33Z</time>
      </trkpt>
      <trkpt lat="46.19621" lon="-1.3504">
        <ele>10.9</ele>
        <time>2020-06-02T07:26:34Z</time>
      </trkpt>
      <trkpt lat="46.19619" lon="-1.35034">
        <ele>10.9</ele>
        <time>2020-06-02T07:26:35Z</time>
      </trkpt>
      <trkpt lat="46.19616" lon="-1.35029">
        <ele>10.9</ele>
        <time>2020-06-02T07:26:36Z</time>
      </trkpt>
      <trkpt lat="46.19614" lon="-1.35023">
        <ele>10.9</ele>
        <time>2020-06-02T07:26:37Z</time>
      </trkpt>
      <trkpt lat="46.19612" lon="-1.35017">
        <ele>10.9</ele>
        <time>2020-06-02T07:26:38Z</time>
      </trkpt>
      <trkpt lat="46.1961" lon="-1.35011">
        <ele>11</ele>
        <time>2020-06-02T07:26:39Z</time>
      </trkpt>
      <trkpt lat="46.19608" lon="-1.35004">
        <ele>11</ele>
        <time>2020-06-02T07:26:40Z</time>
      </trkpt>
      <trkpt lat="46.19605" lon="-1.34998">
        <ele>11</ele>
        <time>2020-06-02T07:26:41Z</time>
      </trkpt>
      <trkpt lat="46.19602" lon="-1.34991">
        <ele>11</ele>
        <time>2020-06-02T07:26:42Z</time>
      </trkpt>
      <trkpt lat="46.19598" lon="-1.34985">
        <ele>11</ele>
        <time>2020-06-02T07:26:43Z</time>
      </trkpt>
      <trkpt lat="46.19595" lon="-1.34978">
        <ele>11.1</ele>
        <time>2020-06-02T07:26:44Z</time>
      </trkpt>
      <trkpt lat="46.19591" lon="-1.34972">
        <ele>11.1</ele>
        <time>2020-06-02T07:26:45Z</time>
      </trkpt>
      <trkpt lat="46.19587" lon="-1.34966">
        <ele>11.1</ele>
        <time>2020-06-02T07:26:46Z</time>
      </trkpt>
      <trkpt lat="46.19584" lon="-1.34959">
        <ele>11.1</ele>
        <time>2020-06-02T07:26:47Z</time>
      </trkpt>
      <trkpt lat="46.1958" lon="-1.34953">
        <ele>11.1</ele>
        <time>2020-06-02T07:26:48Z</time>
      </trkpt>
      <trkpt lat="46.19576" lon="-1.34948">
        <ele>11.1</ele>
        <time>2020-06-02T07:26:49Z</time>
      </trkpt>
      <trkpt lat="46.19572" lon="-1.34942">
        <ele>11.1</ele>
        <time>2020-06-02T07:26:50Z</time>
      </trkpt>
      <trkpt lat="46.19567" lon="-1.34936">
        <ele>11.1</ele>
        <time>2020-06-02T07:26:51Z</time>
      </trkpt>
      <trkpt lat="46.19564" lon="-1.3493">
        <ele>11.1</ele>
        <time>2020-06-02T07:26:52Z</time>
      </trkpt>
      <trkpt lat="46.1956" lon="-1.34924">
        <ele>11.1</ele>
        <time>2020-06-02T07:26:53Z</time>
      </trkpt>
      <trkpt lat="46.19556" lon="-1.34919">
        <ele>11.1</ele>
        <time>2020-06-02T07:26:54Z</time>
      </trkpt>
      <trkpt lat="46.19553" lon="-1.34913">
        <ele>11.1</ele>
        <time>2020-06-02T07:26:55Z</time>
      </trkpt>
      <trkpt lat="46.1955" lon="-1.34908">
        <ele>11.1</ele>
        <time>2020-06-02T07:26:56Z</time>
      </trkpt>
      <trkpt lat="46.19548" lon="-1.34902">
        <ele>11.1</ele>
        <time>2020-06-02T07:26:57Z</time>
      </trkpt>
      <trkpt lat="46.19546" lon="-1.34896">
        <ele>11.1</ele>
        <time>2020-06-02T07:26:58Z</time>
      </trkpt>
      <trkpt lat="46.19543" lon="-1.3489">
        <ele>11.1</ele>
        <time>2020-06-02T07:26:59Z</time>
      </trkpt>
      <trkpt lat="46.1954" lon="-1.34885">
        <ele>11.1</ele>
        <time>2020-06-02T07:27:00Z</time>
      </trkpt>
      <trkpt lat="46.19537" lon="-1.3488">
        <ele>11</ele>
        <time>2020-06-02T07:27:01Z</time>
      </trkpt>
      <trkpt lat="46.19533" lon="-1.34875">
        <ele>11</ele>
        <time>2020-06-02T07:27:02Z</time>
      </trkpt>
      <trkpt lat="46.19529" lon="-1.3487">
        <ele>11</ele>
        <time>2020-06-02T07:27:03Z</time>
      </trkpt>
      <trkpt lat="46.19525" lon="-1.34865">
        <ele>11</ele>
        <time>2020-06-02T07:27:04Z</time>
      </trkpt>
      <trkpt lat="46.19521" lon="-1.3486">
        <ele>11</ele>
        <time>2020-06-02T07:27:05Z</time>
      </trkpt>
      <trkpt lat="46.19518" lon="-1.34855">
        <ele>11</ele>
        <time>2020-06-02T07:27:06Z</time>
      </trkpt>
      <trkpt lat="46.19514" lon="-1.3485">
        <ele>10.9</ele>
        <time>2020-06-02T07:27:07Z</time>
      </trkpt>
      <trkpt lat="46.19511" lon="-1.34844">
        <ele>10.9</ele>
        <time>2020-06-02T07:27:08Z</time>
      </trkpt>
      <trkpt lat="46.19507" lon="-1.34838">
        <ele>10.9</ele>
        <time>2020-06-02T07:27:09Z</time>
      </trkpt>
      <trkpt lat="46.19503" lon="-1.34833">
        <ele>10.9</ele>
        <time>2020-06-02T07:27:10Z</time>
      </trkpt>
      <trkpt lat="46.195" lon="-1.34827">
        <ele>10.9</ele>
        <time>2020-06-02T07:27:11Z</time>
      </trkpt>
      <trkpt lat="46.19497" lon="-1.34821">
        <ele>10.8</ele>
        <time>2020-06-02T07:27:12Z</time>
      </trkpt>
      <trkpt lat="46.19494" lon="-1.34815">
        <ele>10.8</ele>
        <time>2020-06-02T07:27:13Z</time>
      </trkpt>
      <trkpt lat="46.1949" lon="-1.34809">
        <ele>10.8</ele>
        <time>2020-06-02T07:27:14Z</time>
      </trkpt>
      <trkpt lat="46.19486" lon="-1.34803">
        <ele>10.8</ele>
        <time>2020-06-02T07:27:15Z</time>
      </trkpt>
      <trkpt lat="46.19482" lon="-1.34798">
        <ele>10.8</ele>
        <time>2020-06-02T07:27:16Z</time>
      </trkpt>
      <trkpt lat="46.19478" lon="-1.34791">
        <ele>10.7</ele>
        <time>2020-06-02T07:27:17Z</time>
      </trkpt>
      <trkpt lat="46.19475" lon="-1.34785">
        <ele>10.7</ele>
        <time>2020-06-02T07:27:18Z</time>
      </trkpt>
      <trkpt lat="46.19471" lon="-1.34779">
        <ele>10.7</ele>
        <time>2020-06-02T07:27:19Z</time>
      </trkpt>
      <trkpt lat="46.19468" lon="-1.34772">
        <ele>10.7</ele>
        <time>2020-06-02T07:27:20Z</time>
      </trkpt>
      <trkpt lat="46.19464" lon="-1.34766">
        <ele>10.6</ele>
        <time>2020-06-02T07:27:21Z</time>
      </trkpt>
      <trkpt lat="46.19461" lon="-1.3476">
        <ele>10.6</ele>
        <time>2020-06-02T07:27:22Z</time>
      </trkpt>
      <trkpt lat="46.19458" lon="-1.34753">
        <ele>10.6</ele>
        <time>2020-06-02T07:27:23Z</time>
      </trkpt>
      <trkpt lat="46.19456" lon="-1.34746">
        <ele>10.6</ele>
        <time>2020-06-02T07:27:24Z</time>
      </trkpt>
      <trkpt lat="46.19454" lon="-1.34739">
        <ele>10.6</ele>
        <time>2020-06-02T07:27:25Z</time>
      </trkpt>
      <trkpt lat="46.19452" lon="-1.34732">
        <ele>10.6</ele>
        <time>2020-06-02T07:27:26Z</time>
      </trkpt>
      <trkpt lat="46.19449" lon="-1.34727">
        <ele>10.6</ele>
        <time>2020-06-02T07:27:27Z</time>
      </trkpt>
      <trkpt lat="46.19446" lon="-1.34721">
        <ele>10.6</ele>
        <time>2020-06-02T07:27:28Z</time>
      </trkpt>
      <trkpt lat="46.19444" lon="-1.34714">
        <ele>10.5</ele>
        <time>2020-06-02T07:27:29Z</time>
      </trkpt>
      <trkpt lat="46.19442" lon="-1.34708">
        <ele>10.5</ele>
        <time>2020-06-02T07:27:30Z</time>
      </trkpt>
      <trkpt lat="46.19439" lon="-1.34702">
        <ele>10.5</ele>
        <time>2020-06-02T07:27:31Z</time>
      </trkpt>
      <trkpt lat="46.19438" lon="-1.34695">
        <ele>10.5</ele>
        <time>2020-06-02T07:27:32Z</time>
      </trkpt>
      <trkpt lat="46.19435" lon="-1.34688">
        <ele>10.5</ele>
        <time>2020-06-02T07:27:33Z</time>
      </trkpt>
      <trkpt lat="46.19433" lon="-1.34681">
        <ele>10.5</ele>
        <time>2020-06-02T07:27:34Z</time>
      </trkpt>
      <trkpt lat="46.19431" lon="-1.34673">
        <ele>10.6</ele>
        <time>2020-06-02T07:27:35Z</time>
      </trkpt>
      <trkpt lat="46.1943" lon="-1.34667">
        <ele>10.6</ele>
        <time>2020-06-02T07:27:36Z</time>
      </trkpt>
      <trkpt lat="46.19428" lon="-1.34663">
        <ele>10.6</ele>
        <time>2020-06-02T07:27:37Z</time>
      </trkpt>
      <trkpt lat="46.19428" lon="-1.34659">
        <ele>10.7</ele>
        <time>2020-06-02T07:27:38Z</time>
      </trkpt>
      <trkpt lat="46.19426" lon="-1.34654">
        <ele>10.8</ele>
        <time>2020-06-02T07:27:39Z</time>
      </trkpt>
      <trkpt lat="46.19425" lon="-1.34654">
        <ele>10.8</ele>
        <time>2020-06-02T07:27:40Z</time>
      </trkpt>
      <trkpt lat="46.19422" lon="-1.34655">
        <ele>11.1</ele>
        <time>2020-06-02T07:27:41Z</time>
      </trkpt>
      <trkpt lat="46.19421" lon="-1.34655">
        <ele>11.1</ele>
        <time>2020-06-02T07:27:42Z</time>
      </trkpt>
      <trkpt lat="46.19418" lon="-1.34655">
        <ele>11.1</ele>
        <time>2020-06-02T07:27:43Z</time>
      </trkpt>
      <trkpt lat="46.19417" lon="-1.34654">
        <ele>11.1</ele>
        <time>2020-06-02T07:27:44Z</time>
      </trkpt>
      <trkpt lat="46.19414" lon="-1.34653">
        <ele>11.2</ele>
        <time>2020-06-02T07:27:45Z</time>
      </trkpt>
      <trkpt lat="46.19413" lon="-1.34653">
        <ele>11.2</ele>
        <time>2020-06-02T07:27:46Z</time>
      </trkpt>
      <trkpt lat="46.1941" lon="-1.34653">
        <ele>11.2</ele>
        <time>2020-06-02T07:27:47Z</time>
      </trkpt>
      <trkpt lat="46.19409" lon="-1.34653">
        <ele>11.2</ele>
        <time>2020-06-02T07:27:48Z</time>
      </trkpt>
      <trkpt lat="46.19405" lon="-1.34655">
        <ele>11.2</ele>
        <time>2020-06-02T07:27:49Z</time>
      </trkpt>
      <trkpt lat="46.19403" lon="-1.34655">
        <ele>11.2</ele>
        <time>2020-06-02T07:27:50Z</time>
      </trkpt>
      <trkpt lat="46.194" lon="-1.34657">
        <ele>11.2</ele>
        <time>2020-06-02T07:27:51Z</time>
      </trkpt>
      <trkpt lat="46.19396" lon="-1.34659">
        <ele>11.2</ele>
        <time>2020-06-02T07:27:52Z</time>
      </trkpt>
      <trkpt lat="46.19392" lon="-1.3466">
        <ele>11.2</ele>
        <time>2020-06-02T07:27:53Z</time>
      </trkpt>
      <trkpt lat="46.19388" lon="-1.3466">
        <ele>11.2</ele>
        <time>2020-06-02T07:27:54Z</time>
      </trkpt>
      <trkpt lat="46.19384" lon="-1.3466">
        <ele>11.2</ele>
        <time>2020-06-02T07:27:55Z</time>
      </trkpt>
      <trkpt lat="46.19379" lon="-1.34658">
        <ele>11.2</ele>
        <time>2020-06-02T07:27:56Z</time>
      </trkpt>
      <trkpt lat="46.19376" lon="-1.34654">
        <ele>11.2</ele>
        <time>2020-06-02T07:27:57Z</time>
      </trkpt>
      <trkpt lat="46.19371" lon="-1.34651">
        <ele>11.2</ele>
        <time>2020-06-02T07:27:58Z</time>
      </trkpt>
      <trkpt lat="46.19367" lon="-1.34648">
        <ele>11.2</ele>
        <time>2020-06-02T07:27:59Z</time>
      </trkpt>
      <trkpt lat="46.19363" lon="-1.34644">
        <ele>11.2</ele>
        <time>2020-06-02T07:28:00Z</time>
      </trkpt>
      <trkpt lat="46.19359" lon="-1.34641">
        <ele>11.2</ele>
        <time>2020-06-02T07:28:01Z</time>
      </trkpt>
      <trkpt lat="46.19354" lon="-1.34637">
        <ele>11.2</ele>
        <time>2020-06-02T07:28:02Z</time>
      </trkpt>
      <trkpt lat="46.1935" lon="-1.34634">
        <ele>11.2</ele>
        <time>2020-06-02T07:28:03Z</time>
      </trkpt>
      <trkpt lat="46.19346" lon="-1.34631">
        <ele>11.2</ele>
        <time>2020-06-02T07:28:04Z</time>
      </trkpt>
      <trkpt lat="46.19341" lon="-1.34628">
        <ele>11.2</ele>
        <time>2020-06-02T07:28:05Z</time>
      </trkpt>
      <trkpt lat="46.19337" lon="-1.34626">
        <ele>11.2</ele>
        <time>2020-06-02T07:28:06Z</time>
      </trkpt>
      <trkpt lat="46.19332" lon="-1.34623">
        <ele>11.2</ele>
        <time>2020-06-02T07:28:07Z</time>
      </trkpt>
      <trkpt lat="46.19328" lon="-1.34622">
        <ele>11.2</ele>
        <time>2020-06-02T07:28:08Z</time>
      </trkpt>
      <trkpt lat="46.19323" lon="-1.34619">
        <ele>11.2</ele>
        <time>2020-06-02T07:28:09Z</time>
      </trkpt>
      <trkpt lat="46.19318" lon="-1.34617">
        <ele>11.1</ele>
        <time>2020-06-02T07:28:10Z</time>
      </trkpt>
      <trkpt lat="46.19315" lon="-1.34614">
        <ele>11.1</ele>
        <time>2020-06-02T07:28:11Z</time>
      </trkpt>
      <trkpt lat="46.19314" lon="-1.34609">
        <ele>11.1</ele>
        <time>2020-06-02T07:28:12Z</time>
      </trkpt>
      <trkpt lat="46.19312" lon="-1.34603">
        <ele>11.1</ele>
        <time>2020-06-02T07:28:13Z</time>
      </trkpt>
      <trkpt lat="46.19311" lon="-1.34596">
        <ele>11</ele>
        <time>2020-06-02T07:28:14Z</time>
      </trkpt>
      <trkpt lat="46.19309" lon="-1.3459">
        <ele>11</ele>
        <time>2020-06-02T07:28:15Z</time>
      </trkpt>
      <trkpt lat="46.19307" lon="-1.34583">
        <ele>11</ele>
        <time>2020-06-02T07:28:16Z</time>
      </trkpt>
      <trkpt lat="46.19306" lon="-1.34576">
        <ele>10.9</ele>
        <time>2020-06-02T07:28:17Z</time>
      </trkpt>
      <trkpt lat="46.19305" lon="-1.34569">
        <ele>10.9</ele>
        <time>2020-06-02T07:28:18Z</time>
      </trkpt>
      <trkpt lat="46.19305" lon="-1.34561">
        <ele>10.9</ele>
        <time>2020-06-02T07:28:19Z</time>
      </trkpt>
      <trkpt lat="46.19303" lon="-1.34553">
        <ele>10.9</ele>
        <time>2020-06-02T07:28:20Z</time>
      </trkpt>
      <trkpt lat="46.19301" lon="-1.34546">
        <ele>10.8</ele>
        <time>2020-06-02T07:28:21Z</time>
      </trkpt>
      <trkpt lat="46.19299" lon="-1.3454">
        <ele>10.8</ele>
        <time>2020-06-02T07:28:22Z</time>
      </trkpt>
      <trkpt lat="46.19296" lon="-1.34533">
        <ele>10.8</ele>
        <time>2020-06-02T07:28:23Z</time>
      </trkpt>
      <trkpt lat="46.19294" lon="-1.34526">
        <ele>10.7</ele>
        <time>2020-06-02T07:28:24Z</time>
      </trkpt>
      <trkpt lat="46.19291" lon="-1.3452">
        <ele>10.7</ele>
        <time>2020-06-02T07:28:25Z</time>
      </trkpt>
      <trkpt lat="46.1929" lon="-1.34513">
        <ele>10.7</ele>
        <time>2020-06-02T07:28:26Z</time>
      </trkpt>
      <trkpt lat="46.19288" lon="-1.34506">
        <ele>10.7</ele>
        <time>2020-06-02T07:28:27Z</time>
      </trkpt>
      <trkpt lat="46.19287" lon="-1.34498">
        <ele>10.7</ele>
        <time>2020-06-02T07:28:28Z</time>
      </trkpt>
      <trkpt lat="46.19285" lon="-1.34491">
        <ele>10.7</ele>
        <time>2020-06-02T07:28:29Z</time>
      </trkpt>
      <trkpt lat="46.19283" lon="-1.34484">
        <ele>10.7</ele>
        <time>2020-06-02T07:28:30Z</time>
      </trkpt>
      <trkpt lat="46.19282" lon="-1.34477">
        <ele>10.7</ele>
        <time>2020-06-02T07:28:31Z</time>
      </trkpt>
      <trkpt lat="46.1928" lon="-1.3447">
        <ele>10.7</ele>
        <time>2020-06-02T07:28:32Z</time>
      </trkpt>
      <trkpt lat="46.19278" lon="-1.34463">
        <ele>10.7</ele>
        <time>2020-06-02T07:28:33Z</time>
      </trkpt>
      <trkpt lat="46.19275" lon="-1.34457">
        <ele>10.6</ele>
        <time>2020-06-02T07:28:34Z</time>
      </trkpt>
      <trkpt lat="46.19274" lon="-1.3445">
        <ele>10.6</ele>
        <time>2020-06-02T07:28:35Z</time>
      </trkpt>
      <trkpt lat="46.19271" lon="-1.34443">
        <ele>10.5</ele>
        <time>2020-06-02T07:28:36Z</time>
      </trkpt>
      <trkpt lat="46.19269" lon="-1.34437">
        <ele>10.4</ele>
        <time>2020-06-02T07:28:37Z</time>
      </trkpt>
      <trkpt lat="46.19268" lon="-1.3443">
        <ele>10.3</ele>
        <time>2020-06-02T07:28:38Z</time>
      </trkpt>
      <trkpt lat="46.19267" lon="-1.34423">
        <ele>10.2</ele>
        <time>2020-06-02T07:28:39Z</time>
      </trkpt>
      <trkpt lat="46.19265" lon="-1.34416">
        <ele>10.1</ele>
        <time>2020-06-02T07:28:40Z</time>
      </trkpt>
      <trkpt lat="46.19264" lon="-1.34409">
        <ele>10</ele>
        <time>2020-06-02T07:28:41Z</time>
      </trkpt>
      <trkpt lat="46.19262" lon="-1.34402">
        <ele>9.9</ele>
        <time>2020-06-02T07:28:42Z</time>
      </trkpt>
      <trkpt lat="46.19261" lon="-1.34394">
        <ele>9.9</ele>
        <time>2020-06-02T07:28:43Z</time>
      </trkpt>
      <trkpt lat="46.1926" lon="-1.34387">
        <ele>9.8</ele>
        <time>2020-06-02T07:28:44Z</time>
      </trkpt>
      <trkpt lat="46.19259" lon="-1.3438">
        <ele>9.8</ele>
        <time>2020-06-02T07:28:45Z</time>
      </trkpt>
      <trkpt lat="46.19257" lon="-1.34373">
        <ele>9.8</ele>
        <time>2020-06-02T07:28:46Z</time>
      </trkpt>
      <trkpt lat="46.19256" lon="-1.34366">
        <ele>9.7</ele>
        <time>2020-06-02T07:28:47Z</time>
      </trkpt>
      <trkpt lat="46.19255" lon="-1.34359">
        <ele>9.7</ele>
        <time>2020-06-02T07:28:48Z</time>
      </trkpt>
      <trkpt lat="46.19253" lon="-1.34352">
        <ele>9.6</ele>
        <time>2020-06-02T07:28:49Z</time>
      </trkpt>
      <trkpt lat="46.19251" lon="-1.34346">
        <ele>9.6</ele>
        <time>2020-06-02T07:28:50Z</time>
      </trkpt>
      <trkpt lat="46.1925" lon="-1.34339">
        <ele>9.5</ele>
        <time>2020-06-02T07:28:51Z</time>
      </trkpt>
      <trkpt lat="46.19248" lon="-1.34332">
        <ele>9.4</ele>
        <time>2020-06-02T07:28:52Z</time>
      </trkpt>
      <trkpt lat="46.19247" lon="-1.34326">
        <ele>9.3</ele>
        <time>2020-06-02T07:28:53Z</time>
      </trkpt>
      <trkpt lat="46.19245" lon="-1.34319">
        <ele>9.3</ele>
        <time>2020-06-02T07:28:54Z</time>
      </trkpt>
      <trkpt lat="46.19244" lon="-1.34312">
        <ele>9.2</ele>
        <time>2020-06-02T07:28:55Z</time>
      </trkpt>
      <trkpt lat="46.19242" lon="-1.34305">
        <ele>9.1</ele>
        <time>2020-06-02T07:28:56Z</time>
      </trkpt>
      <trkpt lat="46.1924" lon="-1.34298">
        <ele>9</ele>
        <time>2020-06-02T07:28:57Z</time>
      </trkpt>
      <trkpt lat="46.1924" lon="-1.3429">
        <ele>9</ele>
        <time>2020-06-02T07:28:58Z</time>
      </trkpt>
      <trkpt lat="46.19237" lon="-1.34283">
        <ele>8.9</ele>
        <time>2020-06-02T07:28:59Z</time>
      </trkpt>
      <trkpt lat="46.19236" lon="-1.34276">
        <ele>8.8</ele>
        <time>2020-06-02T07:29:00Z</time>
      </trkpt>
      <trkpt lat="46.19233" lon="-1.34269">
        <ele>8.7</ele>
        <time>2020-06-02T07:29:01Z</time>
      </trkpt>
      <trkpt lat="46.1923" lon="-1.34262">
        <ele>8.6</ele>
        <time>2020-06-02T07:29:02Z</time>
      </trkpt>
      <trkpt lat="46.19228" lon="-1.34254">
        <ele>8.5</ele>
        <time>2020-06-02T07:29:03Z</time>
      </trkpt>
      <trkpt lat="46.19226" lon="-1.34247">
        <ele>8.4</ele>
        <time>2020-06-02T07:29:04Z</time>
      </trkpt>
      <trkpt lat="46.19224" lon="-1.34239">
        <ele>8.3</ele>
        <time>2020-06-02T07:29:05Z</time>
      </trkpt>
      <trkpt lat="46.19223" lon="-1.34231">
        <ele>8.2</ele>
        <time>2020-06-02T07:29:06Z</time>
      </trkpt>
      <trkpt lat="46.19222" lon="-1.34223">
        <ele>8.1</ele>
        <time>2020-06-02T07:29:07Z</time>
      </trkpt>
      <trkpt lat="46.1922" lon="-1.34215">
        <ele>8</ele>
        <time>2020-06-02T07:29:08Z</time>
      </trkpt>
      <trkpt lat="46.19219" lon="-1.34207">
        <ele>7.9</ele>
        <time>2020-06-02T07:29:09Z</time>
      </trkpt>
      <trkpt lat="46.19217" lon="-1.34199">
        <ele>7.8</ele>
        <time>2020-06-02T07:29:10Z</time>
      </trkpt>
      <trkpt lat="46.19215" lon="-1.34191">
        <ele>7.7</ele>
        <time>2020-06-02T07:29:11Z</time>
      </trkpt>
      <trkpt lat="46.19214" lon="-1.34183">
        <ele>7.6</ele>
        <time>2020-06-02T07:29:12Z</time>
      </trkpt>
      <trkpt lat="46.19212" lon="-1.34175">
        <ele>7.6</ele>
        <time>2020-06-02T07:29:13Z</time>
      </trkpt>
      <trkpt lat="46.1921" lon="-1.34167">
        <ele>7.5</ele>
        <time>2020-06-02T07:29:14Z</time>
      </trkpt>
      <trkpt lat="46.19208" lon="-1.34159">
        <ele>7.4</ele>
        <time>2020-06-02T07:29:15Z</time>
      </trkpt>
      <trkpt lat="46.19206" lon="-1.34151">
        <ele>7.3</ele>
        <time>2020-06-02T07:29:16Z</time>
      </trkpt>
      <trkpt lat="46.19204" lon="-1.34143">
        <ele>7.2</ele>
        <time>2020-06-02T07:29:17Z</time>
      </trkpt>
      <trkpt lat="46.19203" lon="-1.34134">
        <ele>7.1</ele>
        <time>2020-06-02T07:29:18Z</time>
      </trkpt>
      <trkpt lat="46.19201" lon="-1.34126">
        <ele>7</ele>
        <time>2020-06-02T07:29:19Z</time>
      </trkpt>
      <trkpt lat="46.19198" lon="-1.34119">
        <ele>6.9</ele>
        <time>2020-06-02T07:29:20Z</time>
      </trkpt>
      <trkpt lat="46.19196" lon="-1.34111">
        <ele>6.8</ele>
        <time>2020-06-02T07:29:21Z</time>
      </trkpt>
      <trkpt lat="46.19193" lon="-1.34103">
        <ele>6.7</ele>
        <time>2020-06-02T07:29:22Z</time>
      </trkpt>
      <trkpt lat="46.19191" lon="-1.34094">
        <ele>6.6</ele>
        <time>2020-06-02T07:29:23Z</time>
      </trkpt>
      <trkpt lat="46.19189" lon="-1.34086">
        <ele>6.5</ele>
        <time>2020-06-02T07:29:24Z</time>
      </trkpt>
      <trkpt lat="46.19187" lon="-1.34077">
        <ele>6.4</ele>
        <time>2020-06-02T07:29:25Z</time>
      </trkpt>
      <trkpt lat="46.19185" lon="-1.34069">
        <ele>6.3</ele>
        <time>2020-06-02T07:29:26Z</time>
      </trkpt>
      <trkpt lat="46.19183" lon="-1.34061">
        <ele>6.2</ele>
        <time>2020-06-02T07:29:27Z</time>
      </trkpt>
      <trkpt lat="46.19181" lon="-1.34054">
        <ele>6.1</ele>
        <time>2020-06-02T07:29:28Z</time>
      </trkpt>
      <trkpt lat="46.19179" lon="-1.34046">
        <ele>6</ele>
        <time>2020-06-02T07:29:29Z</time>
      </trkpt>
      <trkpt lat="46.19178" lon="-1.34038">
        <ele>6</ele>
        <time>2020-06-02T07:29:30Z</time>
      </trkpt>
      <trkpt lat="46.19176" lon="-1.3403">
        <ele>5.9</ele>
        <time>2020-06-02T07:29:31Z</time>
      </trkpt>
      <trkpt lat="46.19173" lon="-1.34023">
        <ele>5.8</ele>
        <time>2020-06-02T07:29:32Z</time>
      </trkpt>
      <trkpt lat="46.19171" lon="-1.34016">
        <ele>5.8</ele>
        <time>2020-06-02T07:29:33Z</time>
      </trkpt>
      <trkpt lat="46.19169" lon="-1.34008">
        <ele>5.8</ele>
        <time>2020-06-02T07:29:34Z</time>
      </trkpt>
      <trkpt lat="46.19168" lon="-1.34001">
        <ele>5.8</ele>
        <time>2020-06-02T07:29:35Z</time>
      </trkpt>
      <trkpt lat="46.19166" lon="-1.33994">
        <ele>5.7</ele>
        <time>2020-06-02T07:29:36Z</time>
      </trkpt>
      <trkpt lat="46.19164" lon="-1.33986">
        <ele>5.7</ele>
        <time>2020-06-02T07:29:37Z</time>
      </trkpt>
      <trkpt lat="46.19162" lon="-1.33978">
        <ele>5.7</ele>
        <time>2020-06-02T07:29:38Z</time>
      </trkpt>
      <trkpt lat="46.1916" lon="-1.33971">
        <ele>5.7</ele>
        <time>2020-06-02T07:29:39Z</time>
      </trkpt>
      <trkpt lat="46.19158" lon="-1.33963">
        <ele>5.6</ele>
        <time>2020-06-02T07:29:40Z</time>
      </trkpt>
      <trkpt lat="46.19155" lon="-1.33956">
        <ele>5.6</ele>
        <time>2020-06-02T07:29:41Z</time>
      </trkpt>
      <trkpt lat="46.19153" lon="-1.33951">
        <ele>5.6</ele>
        <time>2020-06-02T07:29:42Z</time>
      </trkpt>
      <trkpt lat="46.1915" lon="-1.33945">
        <ele>5.6</ele>
        <time>2020-06-02T07:29:43Z</time>
      </trkpt>
      <trkpt lat="46.19148" lon="-1.33938">
        <ele>5.7</ele>
        <time>2020-06-02T07:29:44Z</time>
      </trkpt>
      <trkpt lat="46.19144" lon="-1.33933">
        <ele>5.7</ele>
        <time>2020-06-02T07:29:45Z</time>
      </trkpt>
      <trkpt lat="46.19142" lon="-1.33926">
        <ele>5.7</ele>
        <time>2020-06-02T07:29:46Z</time>
      </trkpt>
      <trkpt lat="46.19138" lon="-1.3392">
        <ele>5.8</ele>
        <time>2020-06-02T07:29:47Z</time>
      </trkpt>
      <trkpt lat="46.19135" lon="-1.33915">
        <ele>5.8</ele>
        <time>2020-06-02T07:29:48Z</time>
      </trkpt>
      <trkpt lat="46.19131" lon="-1.3391">
        <ele>5.9</ele>
        <time>2020-06-02T07:29:49Z</time>
      </trkpt>
      <trkpt lat="46.19129" lon="-1.33904">
        <ele>5.9</ele>
        <time>2020-06-02T07:29:50Z</time>
      </trkpt>
      <trkpt lat="46.19128" lon="-1.33897">
        <ele>5.9</ele>
        <time>2020-06-02T07:29:51Z</time>
      </trkpt>
      <trkpt lat="46.19127" lon="-1.3389">
        <ele>5.9</ele>
        <time>2020-06-02T07:29:52Z</time>
      </trkpt>
      <trkpt lat="46.19126" lon="-1.33883">
        <ele>6</ele>
        <time>2020-06-02T07:29:53Z</time>
      </trkpt>
      <trkpt lat="46.19124" lon="-1.33877">
        <ele>6</ele>
        <time>2020-06-02T07:29:54Z</time>
      </trkpt>
      <trkpt lat="46.19122" lon="-1.33873">
        <ele>6</ele>
        <time>2020-06-02T07:29:55Z</time>
      </trkpt>
      <trkpt lat="46.19121" lon="-1.33869">
        <ele>6</ele>
        <time>2020-06-02T07:29:56Z</time>
      </trkpt>
      <trkpt lat="46.1912" lon="-1.33868">
        <ele>6</ele>
        <time>2020-06-02T07:29:57Z</time>
      </trkpt>
      <trkpt lat="46.1912" lon="-1.33865">
        <ele>6</ele>
        <time>2020-06-02T07:29:58Z</time>
      </trkpt>
      <trkpt lat="46.19119" lon="-1.33863">
        <ele>6</ele>
        <time>2020-06-02T07:29:59Z</time>
      </trkpt>
      <trkpt lat="46.19119" lon="-1.33862">
        <ele>6</ele>
        <time>2020-06-02T07:30:00Z</time>
      </trkpt>
      <trkpt lat="46.19119" lon="-1.33857">
        <ele>6.2</ele>
        <time>2020-06-02T07:30:01Z</time>
      </trkpt>
      <trkpt lat="46.19117" lon="-1.33853">
        <ele>6.2</ele>
        <time>2020-06-02T07:30:02Z</time>
      </trkpt>
      <trkpt lat="46.19114" lon="-1.33849">
        <ele>6.2</ele>
        <time>2020-06-02T07:30:03Z</time>
      </trkpt>
      <trkpt lat="46.19111" lon="-1.33845">
        <ele>6.2</ele>
        <time>2020-06-02T07:30:04Z</time>
      </trkpt>
      <trkpt lat="46.19108" lon="-1.3384">
        <ele>6.1</ele>
        <time>2020-06-02T07:30:05Z</time>
      </trkpt>
      <trkpt lat="46.19105" lon="-1.33835">
        <ele>6.1</ele>
        <time>2020-06-02T07:30:06Z</time>
      </trkpt>
      <trkpt lat="46.19101" lon="-1.33831">
        <ele>6.1</ele>
        <time>2020-06-02T07:30:07Z</time>
      </trkpt>
      <trkpt lat="46.19099" lon="-1.33825">
        <ele>6.1</ele>
        <time>2020-06-02T07:30:08Z</time>
      </trkpt>
      <trkpt lat="46.19097" lon="-1.33819">
        <ele>6.1</ele>
        <time>2020-06-02T07:30:09Z</time>
      </trkpt>
      <trkpt lat="46.19095" lon="-1.33813">
        <ele>6.1</ele>
        <time>2020-06-02T07:30:10Z</time>
      </trkpt>
      <trkpt lat="46.19092" lon="-1.33806">
        <ele>6.1</ele>
        <time>2020-06-02T07:30:11Z</time>
      </trkpt>
      <trkpt lat="46.1909" lon="-1.338">
        <ele>6.1</ele>
        <time>2020-06-02T07:30:12Z</time>
      </trkpt>
      <trkpt lat="46.19087" lon="-1.33793">
        <ele>6.1</ele>
        <time>2020-06-02T07:30:13Z</time>
      </trkpt>
      <trkpt lat="46.19085" lon="-1.33787">
        <ele>6.1</ele>
        <time>2020-06-02T07:30:14Z</time>
      </trkpt>
      <trkpt lat="46.19082" lon="-1.33781">
        <ele>6.1</ele>
        <time>2020-06-02T07:30:15Z</time>
      </trkpt>
      <trkpt lat="46.1908" lon="-1.33775">
        <ele>6.1</ele>
        <time>2020-06-02T07:30:16Z</time>
      </trkpt>
      <trkpt lat="46.19079" lon="-1.33768">
        <ele>6</ele>
        <time>2020-06-02T07:30:17Z</time>
      </trkpt>
      <trkpt lat="46.19075" lon="-1.33762">
        <ele>6</ele>
        <time>2020-06-02T07:30:18Z</time>
      </trkpt>
      <trkpt lat="46.19073" lon="-1.33756">
        <ele>6</ele>
        <time>2020-06-02T07:30:19Z</time>
      </trkpt>
      <trkpt lat="46.19071" lon="-1.33749">
        <ele>6</ele>
        <time>2020-06-02T07:30:20Z</time>
      </trkpt>
      <trkpt lat="46.19069" lon="-1.33742">
        <ele>5.9</ele>
        <time>2020-06-02T07:30:21Z</time>
      </trkpt>
      <trkpt lat="46.19068" lon="-1.33735">
        <ele>5.9</ele>
        <time>2020-06-02T07:30:22Z</time>
      </trkpt>
      <trkpt lat="46.19066" lon="-1.33728">
        <ele>5.9</ele>
        <time>2020-06-02T07:30:23Z</time>
      </trkpt>
      <trkpt lat="46.19065" lon="-1.33721">
        <ele>5.9</ele>
        <time>2020-06-02T07:30:24Z</time>
      </trkpt>
      <trkpt lat="46.19063" lon="-1.33713">
        <ele>5.9</ele>
        <time>2020-06-02T07:30:25Z</time>
      </trkpt>
      <trkpt lat="46.19062" lon="-1.33705">
        <ele>5.9</ele>
        <time>2020-06-02T07:30:26Z</time>
      </trkpt>
      <trkpt lat="46.1906" lon="-1.33696">
        <ele>5.9</ele>
        <time>2020-06-02T07:30:27Z</time>
      </trkpt>
      <trkpt lat="46.1906" lon="-1.33688">
        <ele>5.9</ele>
        <time>2020-06-02T07:30:28Z</time>
      </trkpt>
      <trkpt lat="46.19059" lon="-1.3368">
        <ele>5.9</ele>
        <time>2020-06-02T07:30:29Z</time>
      </trkpt>
      <trkpt lat="46.19057" lon="-1.33673">
        <ele>5.9</ele>
        <time>2020-06-02T07:30:30Z</time>
      </trkpt>
      <trkpt lat="46.19055" lon="-1.33666">
        <ele>5.9</ele>
        <time>2020-06-02T07:30:31Z</time>
      </trkpt>
      <trkpt lat="46.19054" lon="-1.3366">
        <ele>5.9</ele>
        <time>2020-06-02T07:30:32Z</time>
      </trkpt>
      <trkpt lat="46.19052" lon="-1.33653">
        <ele>5.9</ele>
        <time>2020-06-02T07:30:33Z</time>
      </trkpt>
      <trkpt lat="46.1905" lon="-1.33648">
        <ele>5.9</ele>
        <time>2020-06-02T07:30:34Z</time>
      </trkpt>
      <trkpt lat="46.19045" lon="-1.33644">
        <ele>5.9</ele>
        <time>2020-06-02T07:30:35Z</time>
      </trkpt>
      <trkpt lat="46.19043" lon="-1.33638">
        <ele>5.9</ele>
        <time>2020-06-02T07:30:36Z</time>
      </trkpt>
      <trkpt lat="46.19041" lon="-1.33633">
        <ele>6</ele>
        <time>2020-06-02T07:30:37Z</time>
      </trkpt>
      <trkpt lat="46.1904" lon="-1.33627">
        <ele>6</ele>
        <time>2020-06-02T07:30:38Z</time>
      </trkpt>
      <trkpt lat="46.19038" lon="-1.33621">
        <ele>6</ele>
        <time>2020-06-02T07:30:39Z</time>
      </trkpt>
      <trkpt lat="46.19037" lon="-1.33615">
        <ele>6.1</ele>
        <time>2020-06-02T07:30:40Z</time>
      </trkpt>
      <trkpt lat="46.19035" lon="-1.3361">
        <ele>6.1</ele>
        <time>2020-06-02T07:30:41Z</time>
      </trkpt>
      <trkpt lat="46.19034" lon="-1.33605">
        <ele>6.1</ele>
        <time>2020-06-02T07:30:42Z</time>
      </trkpt>
      <trkpt lat="46.19031" lon="-1.33599">
        <ele>6.2</ele>
        <time>2020-06-02T07:30:43Z</time>
      </trkpt>
      <trkpt lat="46.19031" lon="-1.33592">
        <ele>6.2</ele>
        <time>2020-06-02T07:30:44Z</time>
      </trkpt>
      <trkpt lat="46.19029" lon="-1.33585">
        <ele>6.3</ele>
        <time>2020-06-02T07:30:45Z</time>
      </trkpt>
      <trkpt lat="46.19027" lon="-1.33579">
        <ele>6.3</ele>
        <time>2020-06-02T07:30:46Z</time>
      </trkpt>
      <trkpt lat="46.19025" lon="-1.33572">
        <ele>6.4</ele>
        <time>2020-06-02T07:30:47Z</time>
      </trkpt>
      <trkpt lat="46.19024" lon="-1.33566">
        <ele>6.4</ele>
        <time>2020-06-02T07:30:48Z</time>
      </trkpt>
      <trkpt lat="46.19021" lon="-1.33559">
        <ele>6.4</ele>
        <time>2020-06-02T07:30:49Z</time>
      </trkpt>
      <trkpt lat="46.19019" lon="-1.33553">
        <ele>6.4</ele>
        <time>2020-06-02T07:30:50Z</time>
      </trkpt>
      <trkpt lat="46.19019" lon="-1.33547">
        <ele>6.4</ele>
        <time>2020-06-02T07:30:51Z</time>
      </trkpt>
      <trkpt lat="46.19019" lon="-1.33541">
        <ele>6.3</ele>
        <time>2020-06-02T07:30:52Z</time>
      </trkpt>
      <trkpt lat="46.19018" lon="-1.33535">
        <ele>6.3</ele>
        <time>2020-06-02T07:30:53Z</time>
      </trkpt>
      <trkpt lat="46.19018" lon="-1.3353">
        <ele>6.3</ele>
        <time>2020-06-02T07:30:54Z</time>
      </trkpt>
      <trkpt lat="46.19017" lon="-1.33526">
        <ele>6.2</ele>
        <time>2020-06-02T07:30:55Z</time>
      </trkpt>
      <trkpt lat="46.19014" lon="-1.33524">
        <ele>6.2</ele>
        <time>2020-06-02T07:30:56Z</time>
      </trkpt>
      <trkpt lat="46.19013" lon="-1.33524">
        <ele>6.2</ele>
        <time>2020-06-02T07:30:57Z</time>
      </trkpt>
      <trkpt lat="46.1901" lon="-1.33522">
        <ele>6.2</ele>
        <time>2020-06-02T07:30:58Z</time>
      </trkpt>
      <trkpt lat="46.19009" lon="-1.33522">
        <ele>6.2</ele>
        <time>2020-06-02T07:30:59Z</time>
      </trkpt>
      <trkpt lat="46.19008" lon="-1.33521">
        <ele>6.1</ele>
        <time>2020-06-02T07:31:00Z</time>
      </trkpt>
      <trkpt lat="46.19006" lon="-1.3352">
        <ele>6.1</ele>
        <time>2020-06-02T07:31:01Z</time>
      </trkpt>
      <trkpt lat="46.19005" lon="-1.3352">
        <ele>6.1</ele>
        <time>2020-06-02T07:31:02Z</time>
      </trkpt>
      <trkpt lat="46.19003" lon="-1.33519">
        <ele>6.1</ele>
        <time>2020-06-02T07:31:03Z</time>
      </trkpt>
      <trkpt lat="46.19" lon="-1.33518">
        <ele>6.1</ele>
        <time>2020-06-02T07:31:04Z</time>
      </trkpt>
      <trkpt lat="46.18997" lon="-1.33519">
        <ele>6.1</ele>
        <time>2020-06-02T07:31:05Z</time>
      </trkpt>
      <trkpt lat="46.18994" lon="-1.33517">
        <ele>6</ele>
        <time>2020-06-02T07:31:06Z</time>
      </trkpt>
      <trkpt lat="46.18994" lon="-1.33516">
        <ele>6</ele>
        <time>2020-06-02T07:31:07Z</time>
      </trkpt>
      <trkpt lat="46.18991" lon="-1.33513">
        <ele>6</ele>
        <time>2020-06-02T07:31:08Z</time>
      </trkpt>
      <trkpt lat="46.1899" lon="-1.33508">
        <ele>5.9</ele>
        <time>2020-06-02T07:31:09Z</time>
      </trkpt>
      <trkpt lat="46.18989" lon="-1.33503">
        <ele>5.8</ele>
        <time>2020-06-02T07:31:10Z</time>
      </trkpt>
      <trkpt lat="46.18989" lon="-1.33497">
        <ele>5.8</ele>
        <time>2020-06-02T07:31:11Z</time>
      </trkpt>
      <trkpt lat="46.18988" lon="-1.33492">
        <ele>5.7</ele>
        <time>2020-06-02T07:31:12Z</time>
      </trkpt>
      <trkpt lat="46.18988" lon="-1.33486">
        <ele>5.7</ele>
        <time>2020-06-02T07:31:13Z</time>
      </trkpt>
      <trkpt lat="46.18988" lon="-1.3348">
        <ele>5.6</ele>
        <time>2020-06-02T07:31:14Z</time>
      </trkpt>
      <trkpt lat="46.18987" lon="-1.33474">
        <ele>5.5</ele>
        <time>2020-06-02T07:31:15Z</time>
      </trkpt>
      <trkpt lat="46.18986" lon="-1.33469">
        <ele>5.5</ele>
        <time>2020-06-02T07:31:16Z</time>
      </trkpt>
      <trkpt lat="46.18984" lon="-1.33463">
        <ele>5.4</ele>
        <time>2020-06-02T07:31:17Z</time>
      </trkpt>
      <trkpt lat="46.18985" lon="-1.33459">
        <ele>5.4</ele>
        <time>2020-06-02T07:31:18Z</time>
      </trkpt>
      <trkpt lat="46.18988" lon="-1.33456">
        <ele>5.4</ele>
        <time>2020-06-02T07:31:19Z</time>
      </trkpt>
      <trkpt lat="46.1899" lon="-1.33455">
        <ele>5.4</ele>
        <time>2020-06-02T07:31:20Z</time>
      </trkpt>
      <trkpt lat="46.18993" lon="-1.33453">
        <ele>5.3</ele>
        <time>2020-06-02T07:31:21Z</time>
      </trkpt>
      <trkpt lat="46.18996" lon="-1.33451">
        <ele>5.2</ele>
        <time>2020-06-02T07:31:22Z</time>
      </trkpt>
      <trkpt lat="46.19" lon="-1.3345">
        <ele>5.2</ele>
        <time>2020-06-02T07:31:23Z</time>
      </trkpt>
      <trkpt lat="46.19003" lon="-1.33449">
        <ele>5.2</ele>
        <time>2020-06-02T07:31:24Z</time>
      </trkpt>
      <trkpt lat="46.19006" lon="-1.33447">
        <ele>5.1</ele>
        <time>2020-06-02T07:31:25Z</time>
      </trkpt>
      <trkpt lat="46.1901" lon="-1.33446">
        <ele>5.1</ele>
        <time>2020-06-02T07:31:26Z</time>
      </trkpt>
      <trkpt lat="46.19013" lon="-1.33444">
        <ele>5</ele>
        <time>2020-06-02T07:31:27Z</time>
      </trkpt>
      <trkpt lat="46.19017" lon="-1.33443">
        <ele>5</ele>
        <time>2020-06-02T07:31:28Z</time>
      </trkpt>
      <trkpt lat="46.19021" lon="-1.3344">
        <ele>5</ele>
        <time>2020-06-02T07:31:29Z</time>
      </trkpt>
      <trkpt lat="46.19025" lon="-1.33437">
        <ele>4.9</ele>
        <time>2020-06-02T07:31:30Z</time>
      </trkpt>
      <trkpt lat="46.1903" lon="-1.33434">
        <ele>4.9</ele>
        <time>2020-06-02T07:31:31Z</time>
      </trkpt>
      <trkpt lat="46.19034" lon="-1.3343">
        <ele>4.8</ele>
        <time>2020-06-02T07:31:32Z</time>
      </trkpt>
      <trkpt lat="46.19039" lon="-1.33427">
        <ele>4.8</ele>
        <time>2020-06-02T07:31:33Z</time>
      </trkpt>
      <trkpt lat="46.19043" lon="-1.33424">
        <ele>4.7</ele>
        <time>2020-06-02T07:31:34Z</time>
      </trkpt>
      <trkpt lat="46.19047" lon="-1.3342">
        <ele>4.7</ele>
        <time>2020-06-02T07:31:35Z</time>
      </trkpt>
      <trkpt lat="46.19051" lon="-1.33416">
        <ele>4.7</ele>
        <time>2020-06-02T07:31:36Z</time>
      </trkpt>
      <trkpt lat="46.19054" lon="-1.33409">
        <ele>4.7</ele>
        <time>2020-06-02T07:31:37Z</time>
      </trkpt>
      <trkpt lat="46.19058" lon="-1.33405">
        <ele>4.6</ele>
        <time>2020-06-02T07:31:38Z</time>
      </trkpt>
      <trkpt lat="46.19061" lon="-1.33401">
        <ele>4.6</ele>
        <time>2020-06-02T07:31:39Z</time>
      </trkpt>
      <trkpt lat="46.19064" lon="-1.33399">
        <ele>4.6</ele>
        <time>2020-06-02T07:31:40Z</time>
      </trkpt>
      <trkpt lat="46.19068" lon="-1.33398">
        <ele>4.5</ele>
        <time>2020-06-02T07:31:41Z</time>
      </trkpt>
      <trkpt lat="46.19071" lon="-1.33395">
        <ele>4.5</ele>
        <time>2020-06-02T07:31:42Z</time>
      </trkpt>
      <trkpt lat="46.19074" lon="-1.33397">
        <ele>4.4</ele>
        <time>2020-06-02T07:31:43Z</time>
      </trkpt>
      <trkpt lat="46.19075" lon="-1.33399">
        <ele>4.4</ele>
        <time>2020-06-02T07:31:44Z</time>
      </trkpt>
      <trkpt lat="46.19076" lon="-1.33403">
        <ele>4.4</ele>
        <time>2020-06-02T07:31:45Z</time>
      </trkpt>
      <trkpt lat="46.19079" lon="-1.33406">
        <ele>4.4</ele>
        <time>2020-06-02T07:31:46Z</time>
      </trkpt>
      <trkpt lat="46.19082" lon="-1.33408">
        <ele>4.3</ele>
        <time>2020-06-02T07:31:47Z</time>
      </trkpt>
      <trkpt lat="46.19085" lon="-1.33408">
        <ele>4.3</ele>
        <time>2020-06-02T07:31:48Z</time>
      </trkpt>
      <trkpt lat="46.19087" lon="-1.33405">
        <ele>4.2</ele>
        <time>2020-06-02T07:31:49Z</time>
      </trkpt>
      <trkpt lat="46.1909" lon="-1.33402">
        <ele>4.1</ele>
        <time>2020-06-02T07:31:50Z</time>
      </trkpt>
      <trkpt lat="46.19092" lon="-1.33398">
        <ele>3.9</ele>
        <time>2020-06-02T07:31:51Z</time>
      </trkpt>
      <trkpt lat="46.19094" lon="-1.33396">
        <ele>3.9</ele>
        <time>2020-06-02T07:31:52Z</time>
      </trkpt>
      <trkpt lat="46.19096" lon="-1.33393">
        <ele>3.9</ele>
        <time>2020-06-02T07:31:53Z</time>
      </trkpt>
      <trkpt lat="46.19097" lon="-1.33388">
        <ele>4</ele>
        <time>2020-06-02T07:31:54Z</time>
      </trkpt>
      <trkpt lat="46.19096" lon="-1.33386">
        <ele>4</ele>
        <time>2020-06-02T07:31:55Z</time>
      </trkpt>
      <trkpt lat="46.19095" lon="-1.33382">
        <ele>4</ele>
        <time>2020-06-02T07:31:56Z</time>
      </trkpt>
      <trkpt lat="46.19093" lon="-1.33377">
        <ele>3.9</ele>
        <time>2020-06-02T07:31:57Z</time>
      </trkpt>
      <trkpt lat="46.19091" lon="-1.33372">
        <ele>3.8</ele>
        <time>2020-06-02T07:31:58Z</time>
      </trkpt>
      <trkpt lat="46.1909" lon="-1.33367">
        <ele>3.7</ele>
        <time>2020-06-02T07:31:59Z</time>
      </trkpt>
      <trkpt lat="46.19089" lon="-1.33361">
        <ele>3.6</ele>
        <time>2020-06-02T07:32:00Z</time>
      </trkpt>
      <trkpt lat="46.19087" lon="-1.33356">
        <ele>3.5</ele>
        <time>2020-06-02T07:32:01Z</time>
      </trkpt>
      <trkpt lat="46.19087" lon="-1.3335">
        <ele>3.4</ele>
        <time>2020-06-02T07:32:02Z</time>
      </trkpt>
      <trkpt lat="46.19088" lon="-1.33345">
        <ele>3.4</ele>
        <time>2020-06-02T07:32:03Z</time>
      </trkpt>
      <trkpt lat="46.19088" lon="-1.33339">
        <ele>3.4</ele>
        <time>2020-06-02T07:32:04Z</time>
      </trkpt>
      <trkpt lat="46.19088" lon="-1.33334">
        <ele>3.4</ele>
        <time>2020-06-02T07:32:05Z</time>
      </trkpt>
      <trkpt lat="46.19088" lon="-1.33328">
        <ele>3.3</ele>
        <time>2020-06-02T07:32:06Z</time>
      </trkpt>
      <trkpt lat="46.19088" lon="-1.33322">
        <ele>3.3</ele>
        <time>2020-06-02T07:32:07Z</time>
      </trkpt>
      <trkpt lat="46.19089" lon="-1.33316">
        <ele>3.3</ele>
        <time>2020-06-02T07:32:08Z</time>
      </trkpt>
      <trkpt lat="46.19089" lon="-1.3331">
        <ele>3.3</ele>
        <time>2020-06-02T07:32:09Z</time>
      </trkpt>
      <trkpt lat="46.19091" lon="-1.33303">
        <ele>3.3</ele>
        <time>2020-06-02T07:32:10Z</time>
      </trkpt>
      <trkpt lat="46.19091" lon="-1.33296">
        <ele>3.3</ele>
        <time>2020-06-02T07:32:11Z</time>
      </trkpt>
      <trkpt lat="46.1909" lon="-1.33289">
        <ele>3.3</ele>
        <time>2020-06-02T07:32:12Z</time>
      </trkpt>
      <trkpt lat="46.19091" lon="-1.33282">
        <ele>3.3</ele>
        <time>2020-06-02T07:32:13Z</time>
      </trkpt>
      <trkpt lat="46.19092" lon="-1.33275">
        <ele>3.3</ele>
        <time>2020-06-02T07:32:14Z</time>
      </trkpt>
      <trkpt lat="46.19092" lon="-1.33268">
        <ele>3.3</ele>
        <time>2020-06-02T07:32:15Z</time>
      </trkpt>
      <trkpt lat="46.19092" lon="-1.33261">
        <ele>3.4</ele>
        <time>2020-06-02T07:32:16Z</time>
      </trkpt>
      <trkpt lat="46.19092" lon="-1.33254">
        <ele>3.4</ele>
        <time>2020-06-02T07:32:17Z</time>
      </trkpt>
      <trkpt lat="46.19092" lon="-1.33246">
        <ele>3.4</ele>
        <time>2020-06-02T07:32:18Z</time>
      </trkpt>
      <trkpt lat="46.19091" lon="-1.33239">
        <ele>3.4</ele>
        <time>2020-06-02T07:32:19Z</time>
      </trkpt>
      <trkpt lat="46.19089" lon="-1.33231">
        <ele>3.4</ele>
        <time>2020-06-02T07:32:20Z</time>
      </trkpt>
      <trkpt lat="46.19088" lon="-1.33224">
        <ele>3.4</ele>
        <time>2020-06-02T07:32:21Z</time>
      </trkpt>
      <trkpt lat="46.19086" lon="-1.33217">
        <ele>3.3</ele>
        <time>2020-06-02T07:32:22Z</time>
      </trkpt>
      <trkpt lat="46.19084" lon="-1.3321">
        <ele>3.3</ele>
        <time>2020-06-02T07:32:23Z</time>
      </trkpt>
      <trkpt lat="46.19082" lon="-1.33203">
        <ele>3.3</ele>
        <time>2020-06-02T07:32:24Z</time>
      </trkpt>
      <trkpt lat="46.1908" lon="-1.33196">
        <ele>3.3</ele>
        <time>2020-06-02T07:32:25Z</time>
      </trkpt>
      <trkpt lat="46.19078" lon="-1.33189">
        <ele>3.3</ele>
        <time>2020-06-02T07:32:26Z</time>
      </trkpt>
      <trkpt lat="46.19076" lon="-1.33181">
        <ele>3.3</ele>
        <time>2020-06-02T07:32:27Z</time>
      </trkpt>
      <trkpt lat="46.19075" lon="-1.33174">
        <ele>3.3</ele>
        <time>2020-06-02T07:32:28Z</time>
      </trkpt>
      <trkpt lat="46.19074" lon="-1.33167">
        <ele>3.2</ele>
        <time>2020-06-02T07:32:29Z</time>
      </trkpt>
      <trkpt lat="46.19073" lon="-1.3316">
        <ele>3.2</ele>
        <time>2020-06-02T07:32:30Z</time>
      </trkpt>
      <trkpt lat="46.19073" lon="-1.33152">
        <ele>3.2</ele>
        <time>2020-06-02T07:32:31Z</time>
      </trkpt>
      <trkpt lat="46.19074" lon="-1.33144">
        <ele>3.2</ele>
        <time>2020-06-02T07:32:32Z</time>
      </trkpt>
      <trkpt lat="46.19074" lon="-1.33136">
        <ele>3.2</ele>
        <time>2020-06-02T07:32:33Z</time>
      </trkpt>
      <trkpt lat="46.19075" lon="-1.33128">
        <ele>3.2</ele>
        <time>2020-06-02T07:32:34Z</time>
      </trkpt>
      <trkpt lat="46.19076" lon="-1.3312">
        <ele>3.2</ele>
        <time>2020-06-02T07:32:35Z</time>
      </trkpt>
      <trkpt lat="46.19077" lon="-1.33112">
        <ele>3.1</ele>
        <time>2020-06-02T07:32:36Z</time>
      </trkpt>
      <trkpt lat="46.19079" lon="-1.33104">
        <ele>3.1</ele>
        <time>2020-06-02T07:32:37Z</time>
      </trkpt>
      <trkpt lat="46.19081" lon="-1.33097">
        <ele>3</ele>
        <time>2020-06-02T07:32:38Z</time>
      </trkpt>
      <trkpt lat="46.19083" lon="-1.3309">
        <ele>3</ele>
        <time>2020-06-02T07:32:39Z</time>
      </trkpt>
      <trkpt lat="46.19084" lon="-1.33082">
        <ele>2.9</ele>
        <time>2020-06-02T07:32:40Z</time>
      </trkpt>
      <trkpt lat="46.19086" lon="-1.33074">
        <ele>2.9</ele>
        <time>2020-06-02T07:32:41Z</time>
      </trkpt>
      <trkpt lat="46.19087" lon="-1.33067">
        <ele>2.9</ele>
        <time>2020-06-02T07:32:42Z</time>
      </trkpt>
      <trkpt lat="46.19089" lon="-1.33059">
        <ele>2.9</ele>
        <time>2020-06-02T07:32:43Z</time>
      </trkpt>
      <trkpt lat="46.19091" lon="-1.33051">
        <ele>2.9</ele>
        <time>2020-06-02T07:32:44Z</time>
      </trkpt>
      <trkpt lat="46.19092" lon="-1.33043">
        <ele>2.9</ele>
        <time>2020-06-02T07:32:45Z</time>
      </trkpt>
      <trkpt lat="46.19095" lon="-1.33036">
        <ele>2.9</ele>
        <time>2020-06-02T07:32:46Z</time>
      </trkpt>
      <trkpt lat="46.19099" lon="-1.3303">
        <ele>2.9</ele>
        <time>2020-06-02T07:32:47Z</time>
      </trkpt>
      <trkpt lat="46.19102" lon="-1.33023">
        <ele>2.9</ele>
        <time>2020-06-02T07:32:48Z</time>
      </trkpt>
      <trkpt lat="46.19104" lon="-1.33016">
        <ele>2.9</ele>
        <time>2020-06-02T07:32:49Z</time>
      </trkpt>
      <trkpt lat="46.19107" lon="-1.3301">
        <ele>2.9</ele>
        <time>2020-06-02T07:32:50Z</time>
      </trkpt>
      <trkpt lat="46.19108" lon="-1.33003">
        <ele>2.9</ele>
        <time>2020-06-02T07:32:51Z</time>
      </trkpt>
      <trkpt lat="46.19109" lon="-1.32996">
        <ele>2.9</ele>
        <time>2020-06-02T07:32:52Z</time>
      </trkpt>
      <trkpt lat="46.1911" lon="-1.32989">
        <ele>2.9</ele>
        <time>2020-06-02T07:32:53Z</time>
      </trkpt>
      <trkpt lat="46.1911" lon="-1.32982">
        <ele>2.9</ele>
        <time>2020-06-02T07:32:54Z</time>
      </trkpt>
      <trkpt lat="46.1911" lon="-1.32974">
        <ele>2.9</ele>
        <time>2020-06-02T07:32:55Z</time>
      </trkpt>
      <trkpt lat="46.19108" lon="-1.32967">
        <ele>2.9</ele>
        <time>2020-06-02T07:32:56Z</time>
      </trkpt>
      <trkpt lat="46.19106" lon="-1.32961">
        <ele>2.9</ele>
        <time>2020-06-02T07:32:57Z</time>
      </trkpt>
      <trkpt lat="46.19104" lon="-1.32954">
        <ele>2.9</ele>
        <time>2020-06-02T07:32:58Z</time>
      </trkpt>
      <trkpt lat="46.19101" lon="-1.32947">
        <ele>2.9</ele>
        <time>2020-06-02T07:32:59Z</time>
      </trkpt>
      <trkpt lat="46.19099" lon="-1.3294">
        <ele>2.9</ele>
        <time>2020-06-02T07:33:00Z</time>
      </trkpt>
      <trkpt lat="46.19096" lon="-1.32934">
        <ele>2.9</ele>
        <time>2020-06-02T07:33:01Z</time>
      </trkpt>
      <trkpt lat="46.19093" lon="-1.32928">
        <ele>2.9</ele>
        <time>2020-06-02T07:33:02Z</time>
      </trkpt>
      <trkpt lat="46.1909" lon="-1.32922">
        <ele>3</ele>
        <time>2020-06-02T07:33:03Z</time>
      </trkpt>
      <trkpt lat="46.19085" lon="-1.32917">
        <ele>3</ele>
        <time>2020-06-02T07:33:04Z</time>
      </trkpt>
      <trkpt lat="46.19082" lon="-1.32911">
        <ele>3</ele>
        <time>2020-06-02T07:33:05Z</time>
      </trkpt>
      <trkpt lat="46.19078" lon="-1.32906">
        <ele>3</ele>
        <time>2020-06-02T07:33:06Z</time>
      </trkpt>
      <trkpt lat="46.19074" lon="-1.32901">
        <ele>3</ele>
        <time>2020-06-02T07:33:07Z</time>
      </trkpt>
      <trkpt lat="46.19071" lon="-1.32895">
        <ele>3.1</ele>
        <time>2020-06-02T07:33:08Z</time>
      </trkpt>
      <trkpt lat="46.19068" lon="-1.32889">
        <ele>3.1</ele>
        <time>2020-06-02T07:33:09Z</time>
      </trkpt>
      <trkpt lat="46.19065" lon="-1.32883">
        <ele>3.1</ele>
        <time>2020-06-02T07:33:10Z</time>
      </trkpt>
      <trkpt lat="46.19061" lon="-1.32878">
        <ele>3.1</ele>
        <time>2020-06-02T07:33:11Z</time>
      </trkpt>
      <trkpt lat="46.19058" lon="-1.32873">
        <ele>3.2</ele>
        <time>2020-06-02T07:33:12Z</time>
      </trkpt>
      <trkpt lat="46.19055" lon="-1.32867">
        <ele>3.2</ele>
        <time>2020-06-02T07:33:13Z</time>
      </trkpt>
      <trkpt lat="46.19051" lon="-1.32861">
        <ele>3.2</ele>
        <time>2020-06-02T07:33:14Z</time>
      </trkpt>
      <trkpt lat="46.19048" lon="-1.32856">
        <ele>3.2</ele>
        <time>2020-06-02T07:33:15Z</time>
      </trkpt>
      <trkpt lat="46.19045" lon="-1.32851">
        <ele>3.2</ele>
        <time>2020-06-02T07:33:16Z</time>
      </trkpt>
      <trkpt lat="46.19041" lon="-1.32846">
        <ele>3.2</ele>
        <time>2020-06-02T07:33:17Z</time>
      </trkpt>
      <trkpt lat="46.19037" lon="-1.32842">
        <ele>3.2</ele>
        <time>2020-06-02T07:33:18Z</time>
      </trkpt>
      <trkpt lat="46.19034" lon="-1.32838">
        <ele>3.3</ele>
        <time>2020-06-02T07:33:19Z</time>
      </trkpt>
      <trkpt lat="46.19031" lon="-1.32833">
        <ele>3.3</ele>
        <time>2020-06-02T07:33:20Z</time>
      </trkpt>
      <trkpt lat="46.19028" lon="-1.32829">
        <ele>3.4</ele>
        <time>2020-06-02T07:33:21Z</time>
      </trkpt>
      <trkpt lat="46.19026" lon="-1.32823">
        <ele>3.4</ele>
        <time>2020-06-02T07:33:22Z</time>
      </trkpt>
      <trkpt lat="46.19023" lon="-1.32819">
        <ele>3.5</ele>
        <time>2020-06-02T07:33:23Z</time>
      </trkpt>
      <trkpt lat="46.1902" lon="-1.32815">
        <ele>3.5</ele>
        <time>2020-06-02T07:33:24Z</time>
      </trkpt>
      <trkpt lat="46.19019" lon="-1.3281">
        <ele>3.6</ele>
        <time>2020-06-02T07:33:25Z</time>
      </trkpt>
      <trkpt lat="46.19015" lon="-1.32806">
        <ele>3.6</ele>
        <time>2020-06-02T07:33:26Z</time>
      </trkpt>
      <trkpt lat="46.19012" lon="-1.32802">
        <ele>3.7</ele>
        <time>2020-06-02T07:33:27Z</time>
      </trkpt>
      <trkpt lat="46.19009" lon="-1.32797">
        <ele>3.7</ele>
        <time>2020-06-02T07:33:28Z</time>
      </trkpt>
      <trkpt lat="46.19006" lon="-1.32792">
        <ele>3.7</ele>
        <time>2020-06-02T07:33:29Z</time>
      </trkpt>
      <trkpt lat="46.19003" lon="-1.32787">
        <ele>3.6</ele>
        <time>2020-06-02T07:33:30Z</time>
      </trkpt>
      <trkpt lat="46.19" lon="-1.32782">
        <ele>3.6</ele>
        <time>2020-06-02T07:33:31Z</time>
      </trkpt>
      <trkpt lat="46.18998" lon="-1.32778">
        <ele>3.6</ele>
        <time>2020-06-02T07:33:32Z</time>
      </trkpt>
      <trkpt lat="46.18995" lon="-1.32773">
        <ele>3.5</ele>
        <time>2020-06-02T07:33:33Z</time>
      </trkpt>
      <trkpt lat="46.18992" lon="-1.32767">
        <ele>3.4</ele>
        <time>2020-06-02T07:33:34Z</time>
      </trkpt>
      <trkpt lat="46.18988" lon="-1.32761">
        <ele>3.4</ele>
        <time>2020-06-02T07:33:35Z</time>
      </trkpt>
      <trkpt lat="46.18984" lon="-1.32756">
        <ele>3.3</ele>
        <time>2020-06-02T07:33:36Z</time>
      </trkpt>
      <trkpt lat="46.1898" lon="-1.32751">
        <ele>3.3</ele>
        <time>2020-06-02T07:33:37Z</time>
      </trkpt>
      <trkpt lat="46.18977" lon="-1.32746">
        <ele>3.2</ele>
        <time>2020-06-02T07:33:38Z</time>
      </trkpt>
      <trkpt lat="46.18973" lon="-1.32742">
        <ele>3.2</ele>
        <time>2020-06-02T07:33:39Z</time>
      </trkpt>
      <trkpt lat="46.1897" lon="-1.32737">
        <ele>3.2</ele>
        <time>2020-06-02T07:33:40Z</time>
      </trkpt>
      <trkpt lat="46.18967" lon="-1.32732">
        <ele>3.2</ele>
        <time>2020-06-02T07:33:41Z</time>
      </trkpt>
      <trkpt lat="46.18963" lon="-1.32726">
        <ele>3.2</ele>
        <time>2020-06-02T07:33:42Z</time>
      </trkpt>
      <trkpt lat="46.18959" lon="-1.32721">
        <ele>3.2</ele>
        <time>2020-06-02T07:33:43Z</time>
      </trkpt>
      <trkpt lat="46.18956" lon="-1.32716">
        <ele>3.2</ele>
        <time>2020-06-02T07:33:44Z</time>
      </trkpt>
      <trkpt lat="46.18953" lon="-1.3271">
        <ele>3.2</ele>
        <time>2020-06-02T07:33:45Z</time>
      </trkpt>
      <trkpt lat="46.1895" lon="-1.32704">
        <ele>3.2</ele>
        <time>2020-06-02T07:33:46Z</time>
      </trkpt>
      <trkpt lat="46.18947" lon="-1.32698">
        <ele>3.2</ele>
        <time>2020-06-02T07:33:47Z</time>
      </trkpt>
      <trkpt lat="46.18943" lon="-1.32692">
        <ele>3.2</ele>
        <time>2020-06-02T07:33:48Z</time>
      </trkpt>
      <trkpt lat="46.1894" lon="-1.32687">
        <ele>3.3</ele>
        <time>2020-06-02T07:33:49Z</time>
      </trkpt>
      <trkpt lat="46.18936" lon="-1.32681">
        <ele>3.3</ele>
        <time>2020-06-02T07:33:50Z</time>
      </trkpt>
      <trkpt lat="46.18932" lon="-1.32676">
        <ele>3.3</ele>
        <time>2020-06-02T07:33:51Z</time>
      </trkpt>
      <trkpt lat="46.18928" lon="-1.32672">
        <ele>3.3</ele>
        <time>2020-06-02T07:33:52Z</time>
      </trkpt>
      <trkpt lat="46.18924" lon="-1.32666">
        <ele>3.3</ele>
        <time>2020-06-02T07:33:53Z</time>
      </trkpt>
      <trkpt lat="46.18921" lon="-1.3266">
        <ele>3.3</ele>
        <time>2020-06-02T07:33:54Z</time>
      </trkpt>
      <trkpt lat="46.18918" lon="-1.32655">
        <ele>3.3</ele>
        <time>2020-06-02T07:33:55Z</time>
      </trkpt>
      <trkpt lat="46.18916" lon="-1.32648">
        <ele>3.3</ele>
        <time>2020-06-02T07:33:56Z</time>
      </trkpt>
      <trkpt lat="46.18913" lon="-1.32642">
        <ele>3.3</ele>
        <time>2020-06-02T07:33:57Z</time>
      </trkpt>
      <trkpt lat="46.1891" lon="-1.32637">
        <ele>3.3</ele>
        <time>2020-06-02T07:33:58Z</time>
      </trkpt>
      <trkpt lat="46.18907" lon="-1.32632">
        <ele>3.4</ele>
        <time>2020-06-02T07:33:59Z</time>
      </trkpt>
      <trkpt lat="46.18905" lon="-1.32626">
        <ele>3.4</ele>
        <time>2020-06-02T07:34:00Z</time>
      </trkpt>
      <trkpt lat="46.18902" lon="-1.3262">
        <ele>3.4</ele>
        <time>2020-06-02T07:34:01Z</time>
      </trkpt>
      <trkpt lat="46.18899" lon="-1.32614">
        <ele>3.4</ele>
        <time>2020-06-02T07:34:02Z</time>
      </trkpt>
      <trkpt lat="46.18895" lon="-1.32608">
        <ele>3.4</ele>
        <time>2020-06-02T07:34:03Z</time>
      </trkpt>
      <trkpt lat="46.18893" lon="-1.32601">
        <ele>3.4</ele>
        <time>2020-06-02T07:34:04Z</time>
      </trkpt>
      <trkpt lat="46.18891" lon="-1.32594">
        <ele>3.4</ele>
        <time>2020-06-02T07:34:05Z</time>
      </trkpt>
      <trkpt lat="46.18888" lon="-1.32587">
        <ele>3.4</ele>
        <time>2020-06-02T07:34:06Z</time>
      </trkpt>
      <trkpt lat="46.18883" lon="-1.32582">
        <ele>3.5</ele>
        <time>2020-06-02T07:34:07Z</time>
      </trkpt>
      <trkpt lat="46.18881" lon="-1.32576">
        <ele>3.5</ele>
        <time>2020-06-02T07:34:08Z</time>
      </trkpt>
      <trkpt lat="46.18878" lon="-1.3257">
        <ele>3.5</ele>
        <time>2020-06-02T07:34:09Z</time>
      </trkpt>
      <trkpt lat="46.18875" lon="-1.32564">
        <ele>3.5</ele>
        <time>2020-06-02T07:34:10Z</time>
      </trkpt>
      <trkpt lat="46.18874" lon="-1.32557">
        <ele>3.6</ele>
        <time>2020-06-02T07:34:11Z</time>
      </trkpt>
      <trkpt lat="46.18872" lon="-1.3255">
        <ele>3.6</ele>
        <time>2020-06-02T07:34:12Z</time>
      </trkpt>
      <trkpt lat="46.1887" lon="-1.32544">
        <ele>3.6</ele>
        <time>2020-06-02T07:34:13Z</time>
      </trkpt>
      <trkpt lat="46.18867" lon="-1.32538">
        <ele>3.6</ele>
        <time>2020-06-02T07:34:14Z</time>
      </trkpt>
      <trkpt lat="46.18863" lon="-1.32532">
        <ele>3.7</ele>
        <time>2020-06-02T07:34:15Z</time>
      </trkpt>
      <trkpt lat="46.18861" lon="-1.32525">
        <ele>3.6</ele>
        <time>2020-06-02T07:34:16Z</time>
      </trkpt>
      <trkpt lat="46.18857" lon="-1.32519">
        <ele>3.6</ele>
        <time>2020-06-02T07:34:17Z</time>
      </trkpt>
      <trkpt lat="46.18855" lon="-1.32513">
        <ele>3.6</ele>
        <time>2020-06-02T07:34:18Z</time>
      </trkpt>
      <trkpt lat="46.18852" lon="-1.32507">
        <ele>3.7</ele>
        <time>2020-06-02T07:34:19Z</time>
      </trkpt>
      <trkpt lat="46.1885" lon="-1.325">
        <ele>3.6</ele>
        <time>2020-06-02T07:34:20Z</time>
      </trkpt>
      <trkpt lat="46.18847" lon="-1.32495">
        <ele>3.6</ele>
        <time>2020-06-02T07:34:21Z</time>
      </trkpt>
      <trkpt lat="46.18845" lon="-1.32489">
        <ele>3.5</ele>
        <time>2020-06-02T07:34:22Z</time>
      </trkpt>
      <trkpt lat="46.18842" lon="-1.32483">
        <ele>3.5</ele>
        <time>2020-06-02T07:34:23Z</time>
      </trkpt>
      <trkpt lat="46.1884" lon="-1.32478">
        <ele>3.4</ele>
        <time>2020-06-02T07:34:24Z</time>
      </trkpt>
      <trkpt lat="46.18837" lon="-1.32471">
        <ele>3.4</ele>
        <time>2020-06-02T07:34:25Z</time>
      </trkpt>
      <trkpt lat="46.18834" lon="-1.32465">
        <ele>3.3</ele>
        <time>2020-06-02T07:34:26Z</time>
      </trkpt>
      <trkpt lat="46.18832" lon="-1.32457">
        <ele>3.3</ele>
        <time>2020-06-02T07:34:27Z</time>
      </trkpt>
      <trkpt lat="46.18826" lon="-1.32453">
        <ele>3.2</ele>
        <time>2020-06-02T07:34:28Z</time>
      </trkpt>
      <trkpt lat="46.18823" lon="-1.32447">
        <ele>3.2</ele>
        <time>2020-06-02T07:34:29Z</time>
      </trkpt>
      <trkpt lat="46.1882" lon="-1.3244">
        <ele>3.1</ele>
        <time>2020-06-02T07:34:30Z</time>
      </trkpt>
      <trkpt lat="46.18818" lon="-1.32435">
        <ele>3.1</ele>
        <time>2020-06-02T07:34:31Z</time>
      </trkpt>
      <trkpt lat="46.18814" lon="-1.32431">
        <ele>3.1</ele>
        <time>2020-06-02T07:34:32Z</time>
      </trkpt>
      <trkpt lat="46.1881" lon="-1.32431">
        <ele>3.1</ele>
        <time>2020-06-02T07:34:33Z</time>
      </trkpt>
      <trkpt lat="46.18805" lon="-1.32434">
        <ele>3</ele>
        <time>2020-06-02T07:34:34Z</time>
      </trkpt>
      <trkpt lat="46.188" lon="-1.32435">
        <ele>3.1</ele>
        <time>2020-06-02T07:34:35Z</time>
      </trkpt>
      <trkpt lat="46.18795" lon="-1.32437">
        <ele>3.2</ele>
        <time>2020-06-02T07:34:36Z</time>
      </trkpt>
      <trkpt lat="46.1879" lon="-1.32438">
        <ele>3.2</ele>
        <time>2020-06-02T07:34:37Z</time>
      </trkpt>
      <trkpt lat="46.18786" lon="-1.32439">
        <ele>3.3</ele>
        <time>2020-06-02T07:34:38Z</time>
      </trkpt>
      <trkpt lat="46.18781" lon="-1.32442">
        <ele>3.3</ele>
        <time>2020-06-02T07:34:39Z</time>
      </trkpt>
      <trkpt lat="46.18777" lon="-1.32443">
        <ele>3.3</ele>
        <time>2020-06-02T07:34:40Z</time>
      </trkpt>
      <trkpt lat="46.18772" lon="-1.32445">
        <ele>3.4</ele>
        <time>2020-06-02T07:34:41Z</time>
      </trkpt>
      <trkpt lat="46.18768" lon="-1.32447">
        <ele>3.4</ele>
        <time>2020-06-02T07:34:42Z</time>
      </trkpt>
      <trkpt lat="46.18764" lon="-1.32448">
        <ele>3.5</ele>
        <time>2020-06-02T07:34:43Z</time>
      </trkpt>
      <trkpt lat="46.1876" lon="-1.32449">
        <ele>3.5</ele>
        <time>2020-06-02T07:34:44Z</time>
      </trkpt>
      <trkpt lat="46.18755" lon="-1.32448">
        <ele>3.5</ele>
        <time>2020-06-02T07:34:45Z</time>
      </trkpt>
      <trkpt lat="46.18751" lon="-1.32446">
        <ele>3.6</ele>
        <time>2020-06-02T07:34:46Z</time>
      </trkpt>
      <trkpt lat="46.18748" lon="-1.32441">
        <ele>3.5</ele>
        <time>2020-06-02T07:34:47Z</time>
      </trkpt>
      <trkpt lat="46.18745" lon="-1.32436">
        <ele>3.5</ele>
        <time>2020-06-02T07:34:48Z</time>
      </trkpt>
      <trkpt lat="46.1874" lon="-1.32432">
        <ele>3.5</ele>
        <time>2020-06-02T07:34:49Z</time>
      </trkpt>
      <trkpt lat="46.18738" lon="-1.32425">
        <ele>3.5</ele>
        <time>2020-06-02T07:34:50Z</time>
      </trkpt>
      <trkpt lat="46.18735" lon="-1.32419">
        <ele>3.4</ele>
        <time>2020-06-02T07:34:51Z</time>
      </trkpt>
      <trkpt lat="46.18733" lon="-1.32412">
        <ele>3.4</ele>
        <time>2020-06-02T07:34:52Z</time>
      </trkpt>
      <trkpt lat="46.18731" lon="-1.32406">
        <ele>3.4</ele>
        <time>2020-06-02T07:34:53Z</time>
      </trkpt>
      <trkpt lat="46.18729" lon="-1.324">
        <ele>3.4</ele>
        <time>2020-06-02T07:34:54Z</time>
      </trkpt>
      <trkpt lat="46.18727" lon="-1.32393">
        <ele>3.3</ele>
        <time>2020-06-02T07:34:55Z</time>
      </trkpt>
      <trkpt lat="46.18726" lon="-1.32386">
        <ele>3.3</ele>
        <time>2020-06-02T07:34:56Z</time>
      </trkpt>
      <trkpt lat="46.18723" lon="-1.32379">
        <ele>3.3</ele>
        <time>2020-06-02T07:34:57Z</time>
      </trkpt>
      <trkpt lat="46.18721" lon="-1.32372">
        <ele>3.2</ele>
        <time>2020-06-02T07:34:58Z</time>
      </trkpt>
      <trkpt lat="46.18718" lon="-1.32365">
        <ele>3.2</ele>
        <time>2020-06-02T07:34:59Z</time>
      </trkpt>
      <trkpt lat="46.18716" lon="-1.32358">
        <ele>3.2</ele>
        <time>2020-06-02T07:35:00Z</time>
      </trkpt>
      <trkpt lat="46.18714" lon="-1.3235">
        <ele>3.1</ele>
        <time>2020-06-02T07:35:01Z</time>
      </trkpt>
      <trkpt lat="46.18712" lon="-1.32343">
        <ele>3.1</ele>
        <time>2020-06-02T07:35:02Z</time>
      </trkpt>
      <trkpt lat="46.1871" lon="-1.32335">
        <ele>3</ele>
        <time>2020-06-02T07:35:03Z</time>
      </trkpt>
      <trkpt lat="46.18708" lon="-1.32327">
        <ele>2.9</ele>
        <time>2020-06-02T07:35:04Z</time>
      </trkpt>
      <trkpt lat="46.18705" lon="-1.32319">
        <ele>2.9</ele>
        <time>2020-06-02T07:35:05Z</time>
      </trkpt>
      <trkpt lat="46.18702" lon="-1.32312">
        <ele>2.8</ele>
        <time>2020-06-02T07:35:06Z</time>
      </trkpt>
      <trkpt lat="46.187" lon="-1.32305">
        <ele>2.8</ele>
        <time>2020-06-02T07:35:07Z</time>
      </trkpt>
      <trkpt lat="46.18697" lon="-1.32298">
        <ele>2.7</ele>
        <time>2020-06-02T07:35:08Z</time>
      </trkpt>
      <trkpt lat="46.18695" lon="-1.32291">
        <ele>2.7</ele>
        <time>2020-06-02T07:35:09Z</time>
      </trkpt>
      <trkpt lat="46.18693" lon="-1.32283">
        <ele>2.7</ele>
        <time>2020-06-02T07:35:10Z</time>
      </trkpt>
      <trkpt lat="46.18691" lon="-1.32275">
        <ele>2.7</ele>
        <time>2020-06-02T07:35:11Z</time>
      </trkpt>
      <trkpt lat="46.18688" lon="-1.32268">
        <ele>2.7</ele>
        <time>2020-06-02T07:35:12Z</time>
      </trkpt>
      <trkpt lat="46.18686" lon="-1.32261">
        <ele>2.7</ele>
        <time>2020-06-02T07:35:13Z</time>
      </trkpt>
      <trkpt lat="46.18683" lon="-1.32254">
        <ele>2.7</ele>
        <time>2020-06-02T07:35:14Z</time>
      </trkpt>
      <trkpt lat="46.1868" lon="-1.32246">
        <ele>2.7</ele>
        <time>2020-06-02T07:35:15Z</time>
      </trkpt>
      <trkpt lat="46.18677" lon="-1.32239">
        <ele>2.7</ele>
        <time>2020-06-02T07:35:16Z</time>
      </trkpt>
      <trkpt lat="46.18673" lon="-1.32232">
        <ele>2.8</ele>
        <time>2020-06-02T07:35:17Z</time>
      </trkpt>
      <trkpt lat="46.18671" lon="-1.32224">
        <ele>2.8</ele>
        <time>2020-06-02T07:35:18Z</time>
      </trkpt>
      <trkpt lat="46.18666" lon="-1.32218">
        <ele>2.8</ele>
        <time>2020-06-02T07:35:19Z</time>
      </trkpt>
      <trkpt lat="46.18664" lon="-1.3221">
        <ele>2.9</ele>
        <time>2020-06-02T07:35:20Z</time>
      </trkpt>
      <trkpt lat="46.18661" lon="-1.32203">
        <ele>2.9</ele>
        <time>2020-06-02T07:35:21Z</time>
      </trkpt>
      <trkpt lat="46.18657" lon="-1.32196">
        <ele>2.9</ele>
        <time>2020-06-02T07:35:22Z</time>
      </trkpt>
      <trkpt lat="46.18655" lon="-1.32189">
        <ele>2.9</ele>
        <time>2020-06-02T07:35:23Z</time>
      </trkpt>
      <trkpt lat="46.18653" lon="-1.32181">
        <ele>3</ele>
        <time>2020-06-02T07:35:24Z</time>
      </trkpt>
      <trkpt lat="46.1865" lon="-1.32174">
        <ele>3</ele>
        <time>2020-06-02T07:35:25Z</time>
      </trkpt>
      <trkpt lat="46.18648" lon="-1.32166">
        <ele>3</ele>
        <time>2020-06-02T07:35:26Z</time>
      </trkpt>
      <trkpt lat="46.18648" lon="-1.32158">
        <ele>3.1</ele>
        <time>2020-06-02T07:35:27Z</time>
      </trkpt>
      <trkpt lat="46.18648" lon="-1.3215">
        <ele>3.2</ele>
        <time>2020-06-02T07:35:28Z</time>
      </trkpt>
      <trkpt lat="46.18647" lon="-1.32142">
        <ele>3.3</ele>
        <time>2020-06-02T07:35:29Z</time>
      </trkpt>
      <trkpt lat="46.18646" lon="-1.32134">
        <ele>3.4</ele>
        <time>2020-06-02T07:35:30Z</time>
      </trkpt>
      <trkpt lat="46.18646" lon="-1.32126">
        <ele>3.5</ele>
        <time>2020-06-02T07:35:31Z</time>
      </trkpt>
      <trkpt lat="46.18646" lon="-1.32119">
        <ele>3.5</ele>
        <time>2020-06-02T07:35:32Z</time>
      </trkpt>
      <trkpt lat="46.18646" lon="-1.32111">
        <ele>3.5</ele>
        <time>2020-06-02T07:35:33Z</time>
      </trkpt>
      <trkpt lat="46.18645" lon="-1.32104">
        <ele>3.5</ele>
        <time>2020-06-02T07:35:34Z</time>
      </trkpt>
      <trkpt lat="46.18646" lon="-1.32096">
        <ele>3.5</ele>
        <time>2020-06-02T07:35:35Z</time>
      </trkpt>
      <trkpt lat="46.18646" lon="-1.32089">
        <ele>3.6</ele>
        <time>2020-06-02T07:35:36Z</time>
      </trkpt>
      <trkpt lat="46.18645" lon="-1.32081">
        <ele>3.6</ele>
        <time>2020-06-02T07:35:37Z</time>
      </trkpt>
      <trkpt lat="46.18644" lon="-1.32074">
        <ele>3.7</ele>
        <time>2020-06-02T07:35:38Z</time>
      </trkpt>
      <trkpt lat="46.18643" lon="-1.32067">
        <ele>3.7</ele>
        <time>2020-06-02T07:35:39Z</time>
      </trkpt>
      <trkpt lat="46.18641" lon="-1.3206">
        <ele>3.7</ele>
        <time>2020-06-02T07:35:40Z</time>
      </trkpt>
      <trkpt lat="46.1864" lon="-1.32052">
        <ele>3.8</ele>
        <time>2020-06-02T07:35:41Z</time>
      </trkpt>
      <trkpt lat="46.18638" lon="-1.32045">
        <ele>3.8</ele>
        <time>2020-06-02T07:35:42Z</time>
      </trkpt>
      <trkpt lat="46.18637" lon="-1.32037">
        <ele>3.9</ele>
        <time>2020-06-02T07:35:43Z</time>
      </trkpt>
      <trkpt lat="46.18634" lon="-1.3203">
        <ele>3.9</ele>
        <time>2020-06-02T07:35:44Z</time>
      </trkpt>
      <trkpt lat="46.18634" lon="-1.32022">
        <ele>4</ele>
        <time>2020-06-02T07:35:45Z</time>
      </trkpt>
      <trkpt lat="46.18632" lon="-1.32015">
        <ele>4</ele>
        <time>2020-06-02T07:35:46Z</time>
      </trkpt>
      <trkpt lat="46.18631" lon="-1.32008">
        <ele>4</ele>
        <time>2020-06-02T07:35:47Z</time>
      </trkpt>
      <trkpt lat="46.18629" lon="-1.32">
        <ele>4.1</ele>
        <time>2020-06-02T07:35:48Z</time>
      </trkpt>
      <trkpt lat="46.18627" lon="-1.31992">
        <ele>4.2</ele>
        <time>2020-06-02T07:35:49Z</time>
      </trkpt>
      <trkpt lat="46.18625" lon="-1.31986">
        <ele>4.2</ele>
        <time>2020-06-02T07:35:50Z</time>
      </trkpt>
      <trkpt lat="46.18622" lon="-1.3198">
        <ele>4.3</ele>
        <time>2020-06-02T07:35:51Z</time>
      </trkpt>
      <trkpt lat="46.18618" lon="-1.31974">
        <ele>4.4</ele>
        <time>2020-06-02T07:35:52Z</time>
      </trkpt>
      <trkpt lat="46.18615" lon="-1.31969">
        <ele>4.5</ele>
        <time>2020-06-02T07:35:53Z</time>
      </trkpt>
      <trkpt lat="46.18611" lon="-1.31962">
        <ele>4.5</ele>
        <time>2020-06-02T07:35:54Z</time>
      </trkpt>
      <trkpt lat="46.18608" lon="-1.31957">
        <ele>4.6</ele>
        <time>2020-06-02T07:35:55Z</time>
      </trkpt>
      <trkpt lat="46.18604" lon="-1.31952">
        <ele>4.7</ele>
        <time>2020-06-02T07:35:56Z</time>
      </trkpt>
      <trkpt lat="46.186" lon="-1.31948">
        <ele>4.8</ele>
        <time>2020-06-02T07:35:57Z</time>
      </trkpt>
      <trkpt lat="46.18595" lon="-1.31944">
        <ele>4.9</ele>
        <time>2020-06-02T07:35:58Z</time>
      </trkpt>
      <trkpt lat="46.18591" lon="-1.3194">
        <ele>5</ele>
        <time>2020-06-02T07:35:59Z</time>
      </trkpt>
      <trkpt lat="46.18587" lon="-1.31936">
        <ele>5.1</ele>
        <time>2020-06-02T07:36:00Z</time>
      </trkpt>
      <trkpt lat="46.18582" lon="-1.31933">
        <ele>5.2</ele>
        <time>2020-06-02T07:36:01Z</time>
      </trkpt>
      <trkpt lat="46.18578" lon="-1.31928">
        <ele>5.3</ele>
        <time>2020-06-02T07:36:02Z</time>
      </trkpt>
      <trkpt lat="46.18574" lon="-1.31924">
        <ele>5.4</ele>
        <time>2020-06-02T07:36:03Z</time>
      </trkpt>
      <trkpt lat="46.1857" lon="-1.31919">
        <ele>5.5</ele>
        <time>2020-06-02T07:36:04Z</time>
      </trkpt>
      <trkpt lat="46.18566" lon="-1.31915">
        <ele>5.7</ele>
        <time>2020-06-02T07:36:05Z</time>
      </trkpt>
      <trkpt lat="46.18563" lon="-1.3191">
        <ele>5.8</ele>
        <time>2020-06-02T07:36:06Z</time>
      </trkpt>
      <trkpt lat="46.18559" lon="-1.31905">
        <ele>5.9</ele>
        <time>2020-06-02T07:36:07Z</time>
      </trkpt>
      <trkpt lat="46.18556" lon="-1.319">
        <ele>6.1</ele>
        <time>2020-06-02T07:36:08Z</time>
      </trkpt>
      <trkpt lat="46.18552" lon="-1.31895">
        <ele>6.2</ele>
        <time>2020-06-02T07:36:09Z</time>
      </trkpt>
      <trkpt lat="46.18549" lon="-1.3189">
        <ele>6.3</ele>
        <time>2020-06-02T07:36:10Z</time>
      </trkpt>
      <trkpt lat="46.18546" lon="-1.31885">
        <ele>6.3</ele>
        <time>2020-06-02T07:36:11Z</time>
      </trkpt>
      <trkpt lat="46.18544" lon="-1.3188">
        <ele>6.4</ele>
        <time>2020-06-02T07:36:12Z</time>
      </trkpt>
      <trkpt lat="46.18541" lon="-1.31874">
        <ele>6.6</ele>
        <time>2020-06-02T07:36:13Z</time>
      </trkpt>
      <trkpt lat="46.18539" lon="-1.31869">
        <ele>6.7</ele>
        <time>2020-06-02T07:36:14Z</time>
      </trkpt>
      <trkpt lat="46.18537" lon="-1.31863">
        <ele>6.8</ele>
        <time>2020-06-02T07:36:15Z</time>
      </trkpt>
      <trkpt lat="46.18535" lon="-1.31856">
        <ele>6.9</ele>
        <time>2020-06-02T07:36:16Z</time>
      </trkpt>
      <trkpt lat="46.18533" lon="-1.3185">
        <ele>7</ele>
        <time>2020-06-02T07:36:17Z</time>
      </trkpt>
      <trkpt lat="46.18531" lon="-1.31844">
        <ele>7.1</ele>
        <time>2020-06-02T07:36:18Z</time>
      </trkpt>
      <trkpt lat="46.18529" lon="-1.31837">
        <ele>7.2</ele>
        <time>2020-06-02T07:36:19Z</time>
      </trkpt>
      <trkpt lat="46.18527" lon="-1.3183">
        <ele>7.3</ele>
        <time>2020-06-02T07:36:20Z</time>
      </trkpt>
      <trkpt lat="46.18525" lon="-1.31823">
        <ele>7.5</ele>
        <time>2020-06-02T07:36:21Z</time>
      </trkpt>
      <trkpt lat="46.18523" lon="-1.31817">
        <ele>7.6</ele>
        <time>2020-06-02T07:36:22Z</time>
      </trkpt>
      <trkpt lat="46.18521" lon="-1.31811">
        <ele>7.6</ele>
        <time>2020-06-02T07:36:23Z</time>
      </trkpt>
      <trkpt lat="46.18518" lon="-1.31805">
        <ele>7.7</ele>
        <time>2020-06-02T07:36:24Z</time>
      </trkpt>
      <trkpt lat="46.18517" lon="-1.31799">
        <ele>7.8</ele>
        <time>2020-06-02T07:36:25Z</time>
      </trkpt>
      <trkpt lat="46.18515" lon="-1.31793">
        <ele>7.8</ele>
        <time>2020-06-02T07:36:26Z</time>
      </trkpt>
      <trkpt lat="46.18513" lon="-1.31788">
        <ele>7.8</ele>
        <time>2020-06-02T07:36:27Z</time>
      </trkpt>
      <trkpt lat="46.18511" lon="-1.31783">
        <ele>7.9</ele>
        <time>2020-06-02T07:36:28Z</time>
      </trkpt>
      <trkpt lat="46.18509" lon="-1.31778">
        <ele>8</ele>
        <time>2020-06-02T07:36:29Z</time>
      </trkpt>
      <trkpt lat="46.18507" lon="-1.31774">
        <ele>8</ele>
        <time>2020-06-02T07:36:30Z</time>
      </trkpt>
      <trkpt lat="46.18505" lon="-1.31769">
        <ele>8.1</ele>
        <time>2020-06-02T07:36:31Z</time>
      </trkpt>
      <trkpt lat="46.18503" lon="-1.31763">
        <ele>8.1</ele>
        <time>2020-06-02T07:36:32Z</time>
      </trkpt>
      <trkpt lat="46.18501" lon="-1.31757">
        <ele>8.2</ele>
        <time>2020-06-02T07:36:33Z</time>
      </trkpt>
      <trkpt lat="46.18499" lon="-1.3175">
        <ele>8.3</ele>
        <time>2020-06-02T07:36:34Z</time>
      </trkpt>
      <trkpt lat="46.18497" lon="-1.31744">
        <ele>8.4</ele>
        <time>2020-06-02T07:36:35Z</time>
      </trkpt>
      <trkpt lat="46.18496" lon="-1.31737">
        <ele>8.5</ele>
        <time>2020-06-02T07:36:36Z</time>
      </trkpt>
      <trkpt lat="46.18494" lon="-1.3173">
        <ele>8.6</ele>
        <time>2020-06-02T07:36:37Z</time>
      </trkpt>
      <trkpt lat="46.18492" lon="-1.31722">
        <ele>8.8</ele>
        <time>2020-06-02T07:36:38Z</time>
      </trkpt>
      <trkpt lat="46.18491" lon="-1.31715">
        <ele>8.9</ele>
        <time>2020-06-02T07:36:39Z</time>
      </trkpt>
      <trkpt lat="46.1849" lon="-1.31708">
        <ele>9</ele>
        <time>2020-06-02T07:36:40Z</time>
      </trkpt>
      <trkpt lat="46.18489" lon="-1.31702">
        <ele>9.1</ele>
        <time>2020-06-02T07:36:41Z</time>
      </trkpt>
      <trkpt lat="46.18489" lon="-1.31696">
        <ele>9.2</ele>
        <time>2020-06-02T07:36:42Z</time>
      </trkpt>
      <trkpt lat="46.18488" lon="-1.31689">
        <ele>9.3</ele>
        <time>2020-06-02T07:36:43Z</time>
      </trkpt>
      <trkpt lat="46.18488" lon="-1.31685">
        <ele>9.3</ele>
        <time>2020-06-02T07:36:44Z</time>
      </trkpt>
      <trkpt lat="46.18488" lon="-1.31678">
        <ele>9.4</ele>
        <time>2020-06-02T07:36:45Z</time>
      </trkpt>
      <trkpt lat="46.18488" lon="-1.31671">
        <ele>9.5</ele>
        <time>2020-06-02T07:36:46Z</time>
      </trkpt>
      <trkpt lat="46.18488" lon="-1.31666">
        <ele>9.5</ele>
        <time>2020-06-02T07:36:47Z</time>
      </trkpt>
      <trkpt lat="46.18487" lon="-1.31661">
        <ele>9.5</ele>
        <time>2020-06-02T07:36:48Z</time>
      </trkpt>
      <trkpt lat="46.18487" lon="-1.31655">
        <ele>9.6</ele>
        <time>2020-06-02T07:36:49Z</time>
      </trkpt>
      <trkpt lat="46.18487" lon="-1.31648">
        <ele>9.6</ele>
        <time>2020-06-02T07:36:50Z</time>
      </trkpt>
      <trkpt lat="46.18487" lon="-1.31641">
        <ele>9.7</ele>
        <time>2020-06-02T07:36:51Z</time>
      </trkpt>
      <trkpt lat="46.18487" lon="-1.31635">
        <ele>9.7</ele>
        <time>2020-06-02T07:36:52Z</time>
      </trkpt>
      <trkpt lat="46.18486" lon="-1.31628">
        <ele>9.8</ele>
        <time>2020-06-02T07:36:53Z</time>
      </trkpt>
      <trkpt lat="46.18487" lon="-1.31621">
        <ele>9.8</ele>
        <time>2020-06-02T07:36:54Z</time>
      </trkpt>
      <trkpt lat="46.18488" lon="-1.31614">
        <ele>9.9</ele>
        <time>2020-06-02T07:36:55Z</time>
      </trkpt>
      <trkpt lat="46.18488" lon="-1.31608">
        <ele>9.9</ele>
        <time>2020-06-02T07:36:56Z</time>
      </trkpt>
      <trkpt lat="46.18489" lon="-1.31601">
        <ele>9.9</ele>
        <time>2020-06-02T07:36:57Z</time>
      </trkpt>
      <trkpt lat="46.1849" lon="-1.31595">
        <ele>9.9</ele>
        <time>2020-06-02T07:36:58Z</time>
      </trkpt>
      <trkpt lat="46.18491" lon="-1.31588">
        <ele>9.9</ele>
        <time>2020-06-02T07:36:59Z</time>
      </trkpt>
      <trkpt lat="46.18492" lon="-1.31579">
        <ele>9.8</ele>
        <time>2020-06-02T07:37:00Z</time>
      </trkpt>
      <trkpt lat="46.18493" lon="-1.31572">
        <ele>9.8</ele>
        <time>2020-06-02T07:37:01Z</time>
      </trkpt>
      <trkpt lat="46.18495" lon="-1.31565">
        <ele>9.7</ele>
        <time>2020-06-02T07:37:02Z</time>
      </trkpt>
      <trkpt lat="46.18496" lon="-1.31557">
        <ele>9.6</ele>
        <time>2020-06-02T07:37:03Z</time>
      </trkpt>
      <trkpt lat="46.18497" lon="-1.31549">
        <ele>9.6</ele>
        <time>2020-06-02T07:37:04Z</time>
      </trkpt>
      <trkpt lat="46.18497" lon="-1.31542">
        <ele>9.5</ele>
        <time>2020-06-02T07:37:05Z</time>
      </trkpt>
      <trkpt lat="46.18499" lon="-1.31533">
        <ele>9.4</ele>
        <time>2020-06-02T07:37:06Z</time>
      </trkpt>
      <trkpt lat="46.185" lon="-1.31525">
        <ele>9.3</ele>
        <time>2020-06-02T07:37:07Z</time>
      </trkpt>
      <trkpt lat="46.18501" lon="-1.31516">
        <ele>9.3</ele>
        <time>2020-06-02T07:37:08Z</time>
      </trkpt>
      <trkpt lat="46.18503" lon="-1.3151">
        <ele>9.2</ele>
        <time>2020-06-02T07:37:09Z</time>
      </trkpt>
      <trkpt lat="46.18503" lon="-1.31502">
        <ele>9.1</ele>
        <time>2020-06-02T07:37:10Z</time>
      </trkpt>
      <trkpt lat="46.18504" lon="-1.31493">
        <ele>9.1</ele>
        <time>2020-06-02T07:37:11Z</time>
      </trkpt>
      <trkpt lat="46.18506" lon="-1.31487">
        <ele>9</ele>
        <time>2020-06-02T07:37:12Z</time>
      </trkpt>
      <trkpt lat="46.18507" lon="-1.31479">
        <ele>8.9</ele>
        <time>2020-06-02T07:37:13Z</time>
      </trkpt>
      <trkpt lat="46.18507" lon="-1.31472">
        <ele>8.9</ele>
        <time>2020-06-02T07:37:14Z</time>
      </trkpt>
      <trkpt lat="46.18508" lon="-1.31465">
        <ele>8.8</ele>
        <time>2020-06-02T07:37:15Z</time>
      </trkpt>
      <trkpt lat="46.18509" lon="-1.31458">
        <ele>8.7</ele>
        <time>2020-06-02T07:37:16Z</time>
      </trkpt>
      <trkpt lat="46.1851" lon="-1.31451">
        <ele>8.7</ele>
        <time>2020-06-02T07:37:17Z</time>
      </trkpt>
      <trkpt lat="46.1851" lon="-1.31444">
        <ele>8.7</ele>
        <time>2020-06-02T07:37:18Z</time>
      </trkpt>
      <trkpt lat="46.18511" lon="-1.31437">
        <ele>8.6</ele>
        <time>2020-06-02T07:37:19Z</time>
      </trkpt>
      <trkpt lat="46.18513" lon="-1.3143">
        <ele>8.6</ele>
        <time>2020-06-02T07:37:20Z</time>
      </trkpt>
      <trkpt lat="46.18514" lon="-1.31422">
        <ele>8.6</ele>
        <time>2020-06-02T07:37:21Z</time>
      </trkpt>
      <trkpt lat="46.18515" lon="-1.31413">
        <ele>8.5</ele>
        <time>2020-06-02T07:37:22Z</time>
      </trkpt>
      <trkpt lat="46.18516" lon="-1.31406">
        <ele>8.5</ele>
        <time>2020-06-02T07:37:23Z</time>
      </trkpt>
      <trkpt lat="46.18517" lon="-1.314">
        <ele>8.5</ele>
        <time>2020-06-02T07:37:24Z</time>
      </trkpt>
      <trkpt lat="46.18519" lon="-1.31394">
        <ele>8.5</ele>
        <time>2020-06-02T07:37:25Z</time>
      </trkpt>
      <trkpt lat="46.18519" lon="-1.31386">
        <ele>8.5</ele>
        <time>2020-06-02T07:37:26Z</time>
      </trkpt>
      <trkpt lat="46.1852" lon="-1.31378">
        <ele>8.5</ele>
        <time>2020-06-02T07:37:27Z</time>
      </trkpt>
      <trkpt lat="46.1852" lon="-1.3137">
        <ele>8.5</ele>
        <time>2020-06-02T07:37:28Z</time>
      </trkpt>
      <trkpt lat="46.1852" lon="-1.31363">
        <ele>8.5</ele>
        <time>2020-06-02T07:37:29Z</time>
      </trkpt>
      <trkpt lat="46.18522" lon="-1.31355">
        <ele>8.5</ele>
        <time>2020-06-02T07:37:30Z</time>
      </trkpt>
      <trkpt lat="46.18523" lon="-1.31347">
        <ele>8.6</ele>
        <time>2020-06-02T07:37:31Z</time>
      </trkpt>
      <trkpt lat="46.18524" lon="-1.31338">
        <ele>8.6</ele>
        <time>2020-06-02T07:37:32Z</time>
      </trkpt>
      <trkpt lat="46.18525" lon="-1.3133">
        <ele>8.6</ele>
        <time>2020-06-02T07:37:33Z</time>
      </trkpt>
      <trkpt lat="46.18525" lon="-1.31323">
        <ele>8.6</ele>
        <time>2020-06-02T07:37:34Z</time>
      </trkpt>
      <trkpt lat="46.18525" lon="-1.31315">
        <ele>8.6</ele>
        <time>2020-06-02T07:37:35Z</time>
      </trkpt>
      <trkpt lat="46.18526" lon="-1.31308">
        <ele>8.6</ele>
        <time>2020-06-02T07:37:36Z</time>
      </trkpt>
      <trkpt lat="46.18526" lon="-1.31301">
        <ele>8.6</ele>
        <time>2020-06-02T07:37:37Z</time>
      </trkpt>
      <trkpt lat="46.18526" lon="-1.31294">
        <ele>8.7</ele>
        <time>2020-06-02T07:37:38Z</time>
      </trkpt>
      <trkpt lat="46.18525" lon="-1.31287">
        <ele>8.7</ele>
        <time>2020-06-02T07:37:39Z</time>
      </trkpt>
      <trkpt lat="46.18525" lon="-1.3128">
        <ele>8.7</ele>
        <time>2020-06-02T07:37:40Z</time>
      </trkpt>
      <trkpt lat="46.18525" lon="-1.31272">
        <ele>8.7</ele>
        <time>2020-06-02T07:37:41Z</time>
      </trkpt>
      <trkpt lat="46.18526" lon="-1.31265">
        <ele>8.7</ele>
        <time>2020-06-02T07:37:42Z</time>
      </trkpt>
      <trkpt lat="46.18526" lon="-1.31257">
        <ele>8.7</ele>
        <time>2020-06-02T07:37:43Z</time>
      </trkpt>
      <trkpt lat="46.18525" lon="-1.31248">
        <ele>8.8</ele>
        <time>2020-06-02T07:37:44Z</time>
      </trkpt>
      <trkpt lat="46.18524" lon="-1.3124">
        <ele>8.8</ele>
        <time>2020-06-02T07:37:45Z</time>
      </trkpt>
      <trkpt lat="46.18524" lon="-1.31232">
        <ele>8.8</ele>
        <time>2020-06-02T07:37:46Z</time>
      </trkpt>
      <trkpt lat="46.18523" lon="-1.31226">
        <ele>8.8</ele>
        <time>2020-06-02T07:37:47Z</time>
      </trkpt>
      <trkpt lat="46.18524" lon="-1.3122">
        <ele>8.8</ele>
        <time>2020-06-02T07:37:48Z</time>
      </trkpt>
      <trkpt lat="46.18523" lon="-1.31212">
        <ele>8.8</ele>
        <time>2020-06-02T07:37:49Z</time>
      </trkpt>
      <trkpt lat="46.18524" lon="-1.31205">
        <ele>8.8</ele>
        <time>2020-06-02T07:37:50Z</time>
      </trkpt>
      <trkpt lat="46.18524" lon="-1.31197">
        <ele>8.9</ele>
        <time>2020-06-02T07:37:51Z</time>
      </trkpt>
      <trkpt lat="46.18524" lon="-1.31191">
        <ele>8.9</ele>
        <time>2020-06-02T07:37:52Z</time>
      </trkpt>
      <trkpt lat="46.18525" lon="-1.31184">
        <ele>8.9</ele>
        <time>2020-06-02T07:37:53Z</time>
      </trkpt>
      <trkpt lat="46.18525" lon="-1.31178">
        <ele>8.9</ele>
        <time>2020-06-02T07:37:54Z</time>
      </trkpt>
      <trkpt lat="46.18525" lon="-1.3117">
        <ele>8.9</ele>
        <time>2020-06-02T07:37:55Z</time>
      </trkpt>
      <trkpt lat="46.18525" lon="-1.31162">
        <ele>9</ele>
        <time>2020-06-02T07:37:56Z</time>
      </trkpt>
      <trkpt lat="46.18525" lon="-1.31155">
        <ele>9</ele>
        <time>2020-06-02T07:37:57Z</time>
      </trkpt>
      <trkpt lat="46.18525" lon="-1.31149">
        <ele>9</ele>
        <time>2020-06-02T07:37:58Z</time>
      </trkpt>
      <trkpt lat="46.18524" lon="-1.31141">
        <ele>9</ele>
        <time>2020-06-02T07:37:59Z</time>
      </trkpt>
      <trkpt lat="46.18525" lon="-1.31135">
        <ele>9.1</ele>
        <time>2020-06-02T07:38:00Z</time>
      </trkpt>
      <trkpt lat="46.18525" lon="-1.31127">
        <ele>9.1</ele>
        <time>2020-06-02T07:38:01Z</time>
      </trkpt>
      <trkpt lat="46.18525" lon="-1.31121">
        <ele>9.1</ele>
        <time>2020-06-02T07:38:02Z</time>
      </trkpt>
      <trkpt lat="46.18525" lon="-1.31115">
        <ele>9.1</ele>
        <time>2020-06-02T07:38:03Z</time>
      </trkpt>
      <trkpt lat="46.18526" lon="-1.31109">
        <ele>9.1</ele>
        <time>2020-06-02T07:38:04Z</time>
      </trkpt>
      <trkpt lat="46.18527" lon="-1.31101">
        <ele>9.2</ele>
        <time>2020-06-02T07:38:05Z</time>
      </trkpt>
      <trkpt lat="46.18526" lon="-1.31092">
        <ele>9.2</ele>
        <time>2020-06-02T07:38:06Z</time>
      </trkpt>
      <trkpt lat="46.18526" lon="-1.31084">
        <ele>9.2</ele>
        <time>2020-06-02T07:38:07Z</time>
      </trkpt>
      <trkpt lat="46.18526" lon="-1.31077">
        <ele>9.2</ele>
        <time>2020-06-02T07:38:08Z</time>
      </trkpt>
      <trkpt lat="46.18525" lon="-1.31069">
        <ele>9.3</ele>
        <time>2020-06-02T07:38:09Z</time>
      </trkpt>
      <trkpt lat="46.18523" lon="-1.3106">
        <ele>9.3</ele>
        <time>2020-06-02T07:38:10Z</time>
      </trkpt>
      <trkpt lat="46.18522" lon="-1.31054">
        <ele>9.4</ele>
        <time>2020-06-02T07:38:11Z</time>
      </trkpt>
      <trkpt lat="46.18521" lon="-1.31045">
        <ele>9.4</ele>
        <time>2020-06-02T07:38:12Z</time>
      </trkpt>
      <trkpt lat="46.1852" lon="-1.31037">
        <ele>9.5</ele>
        <time>2020-06-02T07:38:13Z</time>
      </trkpt>
      <trkpt lat="46.1852" lon="-1.31031">
        <ele>9.5</ele>
        <time>2020-06-02T07:38:14Z</time>
      </trkpt>
      <trkpt lat="46.18519" lon="-1.31023">
        <ele>9.6</ele>
        <time>2020-06-02T07:38:15Z</time>
      </trkpt>
      <trkpt lat="46.18519" lon="-1.31015">
        <ele>9.6</ele>
        <time>2020-06-02T07:38:16Z</time>
      </trkpt>
      <trkpt lat="46.18518" lon="-1.31007">
        <ele>9.7</ele>
        <time>2020-06-02T07:38:17Z</time>
      </trkpt>
      <trkpt lat="46.18517" lon="-1.31">
        <ele>9.7</ele>
        <time>2020-06-02T07:38:18Z</time>
      </trkpt>
      <trkpt lat="46.18517" lon="-1.30995">
        <ele>9.7</ele>
        <time>2020-06-02T07:38:19Z</time>
      </trkpt>
      <trkpt lat="46.18517" lon="-1.30989">
        <ele>9.8</ele>
        <time>2020-06-02T07:38:20Z</time>
      </trkpt>
      <trkpt lat="46.18518" lon="-1.30982">
        <ele>9.8</ele>
        <time>2020-06-02T07:38:21Z</time>
      </trkpt>
      <trkpt lat="46.18517" lon="-1.30974">
        <ele>9.8</ele>
        <time>2020-06-02T07:38:22Z</time>
      </trkpt>
      <trkpt lat="46.18517" lon="-1.30969">
        <ele>9.9</ele>
        <time>2020-06-02T07:38:23Z</time>
      </trkpt>
      <trkpt lat="46.18517" lon="-1.30963">
        <ele>9.9</ele>
        <time>2020-06-02T07:38:24Z</time>
      </trkpt>
      <trkpt lat="46.18517" lon="-1.30956">
        <ele>9.9</ele>
        <time>2020-06-02T07:38:25Z</time>
      </trkpt>
      <trkpt lat="46.18516" lon="-1.30947">
        <ele>10</ele>
        <time>2020-06-02T07:38:26Z</time>
      </trkpt>
      <trkpt lat="46.18515" lon="-1.3094">
        <ele>10</ele>
        <time>2020-06-02T07:38:27Z</time>
      </trkpt>
      <trkpt lat="46.18516" lon="-1.30936">
        <ele>10.1</ele>
        <time>2020-06-02T07:38:28Z</time>
      </trkpt>
      <trkpt lat="46.18514" lon="-1.3093">
        <ele>10.1</ele>
        <time>2020-06-02T07:38:29Z</time>
      </trkpt>
      <trkpt lat="46.18513" lon="-1.30922">
        <ele>10.2</ele>
        <time>2020-06-02T07:38:30Z</time>
      </trkpt>
      <trkpt lat="46.18514" lon="-1.30917">
        <ele>10.2</ele>
        <time>2020-06-02T07:38:31Z</time>
      </trkpt>
      <trkpt lat="46.18517" lon="-1.30911">
        <ele>10.2</ele>
        <time>2020-06-02T07:38:32Z</time>
      </trkpt>
      <trkpt lat="46.18519" lon="-1.30907">
        <ele>10.2</ele>
        <time>2020-06-02T07:38:33Z</time>
      </trkpt>
      <trkpt lat="46.18519" lon="-1.309">
        <ele>10.2</ele>
        <time>2020-06-02T07:38:34Z</time>
      </trkpt>
      <trkpt lat="46.18518" lon="-1.30895">
        <ele>10.2</ele>
        <time>2020-06-02T07:38:35Z</time>
      </trkpt>
      <trkpt lat="46.18517" lon="-1.30893">
        <ele>10.2</ele>
        <time>2020-06-02T07:38:36Z</time>
      </trkpt>
      <trkpt lat="46.18517" lon="-1.30888">
        <ele>10.2</ele>
        <time>2020-06-02T07:38:37Z</time>
      </trkpt>
      <trkpt lat="46.18516" lon="-1.30883">
        <ele>10.2</ele>
        <time>2020-06-02T07:38:38Z</time>
      </trkpt>
      <trkpt lat="46.18516" lon="-1.30878">
        <ele>10.3</ele>
        <time>2020-06-02T07:38:39Z</time>
      </trkpt>
      <trkpt lat="46.18515" lon="-1.30873">
        <ele>10.3</ele>
        <time>2020-06-02T07:38:40Z</time>
      </trkpt>
      <trkpt lat="46.18515" lon="-1.30869">
        <ele>10.3</ele>
        <time>2020-06-02T07:38:41Z</time>
      </trkpt>
      <trkpt lat="46.18515" lon="-1.30866">
        <ele>10.3</ele>
        <time>2020-06-02T07:38:42Z</time>
      </trkpt>
      <trkpt lat="46.18515" lon="-1.30866">
        <ele>10.3</ele>
        <time>2020-06-02T07:38:43Z</time>
      </trkpt>
      <trkpt lat="46.18515" lon="-1.30866">
        <ele>10.3</ele>
        <time>2020-06-02T07:38:44Z</time>
      </trkpt>
      <trkpt lat="46.18515" lon="-1.30865">
        <ele>10.3</ele>
        <time>2020-06-02T07:38:45Z</time>
      </trkpt>
      <trkpt lat="46.18515" lon="-1.30865">
        <ele>10.3</ele>
        <time>2020-06-02T07:38:46Z</time>
      </trkpt>
      <trkpt lat="46.18515" lon="-1.30865">
        <ele>10.3</ele>
        <time>2020-06-02T07:38:47Z</time>
      </trkpt>
      <trkpt lat="46.18515" lon="-1.30865">
        <ele>10.3</ele>
        <time>2020-06-02T07:38:48Z</time>
      </trkpt>
      <trkpt lat="46.18515" lon="-1.30864">
        <ele>10.3</ele>
        <time>2020-06-02T07:38:49Z</time>
      </trkpt>
      <trkpt lat="46.18515" lon="-1.30864">
        <ele>10.3</ele>
        <time>2020-06-02T07:38:50Z</time>
      </trkpt>
      <trkpt lat="46.18515" lon="-1.30864">
        <ele>10.3</ele>
        <time>2020-06-02T07:38:51Z</time>
      </trkpt>
      <trkpt lat="46.18515" lon="-1.30859">
        <ele>10.3</ele>
        <time>2020-06-02T07:38:52Z</time>
      </trkpt>
      <trkpt lat="46.18515" lon="-1.30858">
        <ele>10.3</ele>
        <time>2020-06-02T07:38:53Z</time>
      </trkpt>
      <trkpt lat="46.18514" lon="-1.30851">
        <ele>10.2</ele>
        <time>2020-06-02T07:38:54Z</time>
      </trkpt>
      <trkpt lat="46.18514" lon="-1.30849">
        <ele>10.2</ele>
        <time>2020-06-02T07:38:55Z</time>
      </trkpt>
      <trkpt lat="46.18513" lon="-1.30844">
        <ele>10.2</ele>
        <time>2020-06-02T07:38:56Z</time>
      </trkpt>
      <trkpt lat="46.18512" lon="-1.30839">
        <ele>10.2</ele>
        <time>2020-06-02T07:38:57Z</time>
      </trkpt>
      <trkpt lat="46.18512" lon="-1.30833">
        <ele>10.2</ele>
        <time>2020-06-02T07:38:58Z</time>
      </trkpt>
      <trkpt lat="46.18512" lon="-1.30828">
        <ele>10.2</ele>
        <time>2020-06-02T07:38:59Z</time>
      </trkpt>
      <trkpt lat="46.18512" lon="-1.3082">
        <ele>10.2</ele>
        <time>2020-06-02T07:39:00Z</time>
      </trkpt>
      <trkpt lat="46.18512" lon="-1.30813">
        <ele>10.1</ele>
        <time>2020-06-02T07:39:01Z</time>
      </trkpt>
      <trkpt lat="46.18512" lon="-1.30807">
        <ele>10.1</ele>
        <time>2020-06-02T07:39:02Z</time>
      </trkpt>
      <trkpt lat="46.18513" lon="-1.30799">
        <ele>10</ele>
        <time>2020-06-02T07:39:03Z</time>
      </trkpt>
      <trkpt lat="46.18516" lon="-1.30795">
        <ele>9.9</ele>
        <time>2020-06-02T07:39:04Z</time>
      </trkpt>
      <trkpt lat="46.1852" lon="-1.30791">
        <ele>9.7</ele>
        <time>2020-06-02T07:39:05Z</time>
      </trkpt>
      <trkpt lat="46.18526" lon="-1.30792">
        <ele>9.5</ele>
        <time>2020-06-02T07:39:06Z</time>
      </trkpt>
      <trkpt lat="46.18532" lon="-1.30792">
        <ele>9.4</ele>
        <time>2020-06-02T07:39:07Z</time>
      </trkpt>
      <trkpt lat="46.18537" lon="-1.30792">
        <ele>9.2</ele>
        <time>2020-06-02T07:39:08Z</time>
      </trkpt>
      <trkpt lat="46.18542" lon="-1.30792">
        <ele>9</ele>
        <time>2020-06-02T07:39:09Z</time>
      </trkpt>
      <trkpt lat="46.18547" lon="-1.30792">
        <ele>8.9</ele>
        <time>2020-06-02T07:39:10Z</time>
      </trkpt>
      <trkpt lat="46.18552" lon="-1.30793">
        <ele>8.7</ele>
        <time>2020-06-02T07:39:11Z</time>
      </trkpt>
      <trkpt lat="46.18558" lon="-1.30794">
        <ele>8.6</ele>
        <time>2020-06-02T07:39:12Z</time>
      </trkpt>
      <trkpt lat="46.18563" lon="-1.30795">
        <ele>8.5</ele>
        <time>2020-06-02T07:39:13Z</time>
      </trkpt>
      <trkpt lat="46.18569" lon="-1.30796">
        <ele>8.4</ele>
        <time>2020-06-02T07:39:14Z</time>
      </trkpt>
      <trkpt lat="46.18574" lon="-1.30798">
        <ele>8.3</ele>
        <time>2020-06-02T07:39:15Z</time>
      </trkpt>
      <trkpt lat="46.1858" lon="-1.30799">
        <ele>8.3</ele>
        <time>2020-06-02T07:39:16Z</time>
      </trkpt>
      <trkpt lat="46.18586" lon="-1.308">
        <ele>8.2</ele>
        <time>2020-06-02T07:39:17Z</time>
      </trkpt>
      <trkpt lat="46.18592" lon="-1.308">
        <ele>8.1</ele>
        <time>2020-06-02T07:39:18Z</time>
      </trkpt>
      <trkpt lat="46.18597" lon="-1.308">
        <ele>8.1</ele>
        <time>2020-06-02T07:39:19Z</time>
      </trkpt>
      <trkpt lat="46.18603" lon="-1.30802">
        <ele>8</ele>
        <time>2020-06-02T07:39:20Z</time>
      </trkpt>
      <trkpt lat="46.18609" lon="-1.30802">
        <ele>7.9</ele>
        <time>2020-06-02T07:39:21Z</time>
      </trkpt>
      <trkpt lat="46.18615" lon="-1.30802">
        <ele>7.9</ele>
        <time>2020-06-02T07:39:22Z</time>
      </trkpt>
      <trkpt lat="46.1862" lon="-1.30803">
        <ele>7.8</ele>
        <time>2020-06-02T07:39:23Z</time>
      </trkpt>
      <trkpt lat="46.18625" lon="-1.30805">
        <ele>7.8</ele>
        <time>2020-06-02T07:39:24Z</time>
      </trkpt>
      <trkpt lat="46.1863" lon="-1.30807">
        <ele>7.7</ele>
        <time>2020-06-02T07:39:25Z</time>
      </trkpt>
      <trkpt lat="46.18636" lon="-1.30807">
        <ele>7.7</ele>
        <time>2020-06-02T07:39:26Z</time>
      </trkpt>
      <trkpt lat="46.18641" lon="-1.30808">
        <ele>7.7</ele>
        <time>2020-06-02T07:39:27Z</time>
      </trkpt>
      <trkpt lat="46.18646" lon="-1.30808">
        <ele>7.6</ele>
        <time>2020-06-02T07:39:28Z</time>
      </trkpt>
      <trkpt lat="46.18652" lon="-1.30809">
        <ele>7.6</ele>
        <time>2020-06-02T07:39:29Z</time>
      </trkpt>
      <trkpt lat="46.18657" lon="-1.3081">
        <ele>7.6</ele>
        <time>2020-06-02T07:39:30Z</time>
      </trkpt>
      <trkpt lat="46.18663" lon="-1.30811">
        <ele>7.6</ele>
        <time>2020-06-02T07:39:31Z</time>
      </trkpt>
      <trkpt lat="46.18668" lon="-1.30812">
        <ele>7.5</ele>
        <time>2020-06-02T07:39:32Z</time>
      </trkpt>
      <trkpt lat="46.18674" lon="-1.30813">
        <ele>7.5</ele>
        <time>2020-06-02T07:39:33Z</time>
      </trkpt>
      <trkpt lat="46.18679" lon="-1.30814">
        <ele>7.5</ele>
        <time>2020-06-02T07:39:34Z</time>
      </trkpt>
      <trkpt lat="46.18685" lon="-1.30815">
        <ele>7.5</ele>
        <time>2020-06-02T07:39:35Z</time>
      </trkpt>
      <trkpt lat="46.1869" lon="-1.30816">
        <ele>7.5</ele>
        <time>2020-06-02T07:39:36Z</time>
      </trkpt>
      <trkpt lat="46.18696" lon="-1.30817">
        <ele>7.5</ele>
        <time>2020-06-02T07:39:37Z</time>
      </trkpt>
      <trkpt lat="46.18701" lon="-1.30818">
        <ele>7.5</ele>
        <time>2020-06-02T07:39:38Z</time>
      </trkpt>
      <trkpt lat="46.18706" lon="-1.30819">
        <ele>7.4</ele>
        <time>2020-06-02T07:39:39Z</time>
      </trkpt>
      <trkpt lat="46.18711" lon="-1.30818">
        <ele>7.4</ele>
        <time>2020-06-02T07:39:40Z</time>
      </trkpt>
      <trkpt lat="46.18716" lon="-1.30819">
        <ele>7.4</ele>
        <time>2020-06-02T07:39:41Z</time>
      </trkpt>
      <trkpt lat="46.18722" lon="-1.3082">
        <ele>7.3</ele>
        <time>2020-06-02T07:39:42Z</time>
      </trkpt>
      <trkpt lat="46.18727" lon="-1.3082">
        <ele>7.3</ele>
        <time>2020-06-02T07:39:43Z</time>
      </trkpt>
      <trkpt lat="46.18733" lon="-1.30822">
        <ele>7.2</ele>
        <time>2020-06-02T07:39:44Z</time>
      </trkpt>
      <trkpt lat="46.18738" lon="-1.30823">
        <ele>7.2</ele>
        <time>2020-06-02T07:39:45Z</time>
      </trkpt>
      <trkpt lat="46.18743" lon="-1.30824">
        <ele>7.2</ele>
        <time>2020-06-02T07:39:46Z</time>
      </trkpt>
      <trkpt lat="46.18748" lon="-1.30824">
        <ele>7.2</ele>
        <time>2020-06-02T07:39:47Z</time>
      </trkpt>
      <trkpt lat="46.18754" lon="-1.30822">
        <ele>7.1</ele>
        <time>2020-06-02T07:39:48Z</time>
      </trkpt>
      <trkpt lat="46.18758" lon="-1.30818">
        <ele>7.1</ele>
        <time>2020-06-02T07:39:49Z</time>
      </trkpt>
      <trkpt lat="46.18761" lon="-1.3081">
        <ele>7.1</ele>
        <time>2020-06-02T07:39:50Z</time>
      </trkpt>
      <trkpt lat="46.1876" lon="-1.30803">
        <ele>7.2</ele>
        <time>2020-06-02T07:39:51Z</time>
      </trkpt>
      <trkpt lat="46.18759" lon="-1.30795">
        <ele>7.3</ele>
        <time>2020-06-02T07:39:52Z</time>
      </trkpt>
      <trkpt lat="46.18757" lon="-1.30788">
        <ele>7.4</ele>
        <time>2020-06-02T07:39:53Z</time>
      </trkpt>
      <trkpt lat="46.18755" lon="-1.30782">
        <ele>7.5</ele>
        <time>2020-06-02T07:39:54Z</time>
      </trkpt>
      <trkpt lat="46.18754" lon="-1.30775">
        <ele>7.5</ele>
        <time>2020-06-02T07:39:55Z</time>
      </trkpt>
      <trkpt lat="46.18753" lon="-1.30768">
        <ele>7.6</ele>
        <time>2020-06-02T07:39:56Z</time>
      </trkpt>
      <trkpt lat="46.18752" lon="-1.30762">
        <ele>7.7</ele>
        <time>2020-06-02T07:39:57Z</time>
      </trkpt>
      <trkpt lat="46.18751" lon="-1.30756">
        <ele>7.8</ele>
        <time>2020-06-02T07:39:58Z</time>
      </trkpt>
      <trkpt lat="46.1875" lon="-1.30751">
        <ele>7.8</ele>
        <time>2020-06-02T07:39:59Z</time>
      </trkpt>
      <trkpt lat="46.18749" lon="-1.30745">
        <ele>7.9</ele>
        <time>2020-06-02T07:40:00Z</time>
      </trkpt>
      <trkpt lat="46.18747" lon="-1.30737">
        <ele>8</ele>
        <time>2020-06-02T07:40:01Z</time>
      </trkpt>
      <trkpt lat="46.18746" lon="-1.30732">
        <ele>8</ele>
        <time>2020-06-02T07:40:02Z</time>
      </trkpt>
      <trkpt lat="46.18745" lon="-1.30726">
        <ele>8</ele>
        <time>2020-06-02T07:40:03Z</time>
      </trkpt>
      <trkpt lat="46.18743" lon="-1.30721">
        <ele>8.1</ele>
        <time>2020-06-02T07:40:04Z</time>
      </trkpt>
      <trkpt lat="46.18742" lon="-1.30716">
        <ele>8.1</ele>
        <time>2020-06-02T07:40:05Z</time>
      </trkpt>
      <trkpt lat="46.18741" lon="-1.3071">
        <ele>8.1</ele>
        <time>2020-06-02T07:40:06Z</time>
      </trkpt>
      <trkpt lat="46.1874" lon="-1.30705">
        <ele>8.1</ele>
        <time>2020-06-02T07:40:07Z</time>
      </trkpt>
      <trkpt lat="46.18739" lon="-1.30699">
        <ele>8.1</ele>
        <time>2020-06-02T07:40:08Z</time>
      </trkpt>
      <trkpt lat="46.18738" lon="-1.30692">
        <ele>8.1</ele>
        <time>2020-06-02T07:40:09Z</time>
      </trkpt>
      <trkpt lat="46.18737" lon="-1.30686">
        <ele>8.2</ele>
        <time>2020-06-02T07:40:10Z</time>
      </trkpt>
      <trkpt lat="46.18737" lon="-1.30679">
        <ele>8.2</ele>
        <time>2020-06-02T07:40:11Z</time>
      </trkpt>
      <trkpt lat="46.18737" lon="-1.30672">
        <ele>8.2</ele>
        <time>2020-06-02T07:40:12Z</time>
      </trkpt>
      <trkpt lat="46.18737" lon="-1.30666">
        <ele>8.3</ele>
        <time>2020-06-02T07:40:13Z</time>
      </trkpt>
      <trkpt lat="46.18737" lon="-1.3066">
        <ele>8.3</ele>
        <time>2020-06-02T07:40:14Z</time>
      </trkpt>
      <trkpt lat="46.18737" lon="-1.30653">
        <ele>8.3</ele>
        <time>2020-06-02T07:40:15Z</time>
      </trkpt>
      <trkpt lat="46.18737" lon="-1.30646">
        <ele>8.4</ele>
        <time>2020-06-02T07:40:16Z</time>
      </trkpt>
      <trkpt lat="46.18736" lon="-1.30639">
        <ele>8.4</ele>
        <time>2020-06-02T07:40:17Z</time>
      </trkpt>
      <trkpt lat="46.18735" lon="-1.30632">
        <ele>8.4</ele>
        <time>2020-06-02T07:40:18Z</time>
      </trkpt>
      <trkpt lat="46.18735" lon="-1.30625">
        <ele>8.4</ele>
        <time>2020-06-02T07:40:19Z</time>
      </trkpt>
      <trkpt lat="46.18734" lon="-1.30618">
        <ele>8.4</ele>
        <time>2020-06-02T07:40:20Z</time>
      </trkpt>
      <trkpt lat="46.18733" lon="-1.30611">
        <ele>8.4</ele>
        <time>2020-06-02T07:40:21Z</time>
      </trkpt>
      <trkpt lat="46.18732" lon="-1.30605">
        <ele>8.5</ele>
        <time>2020-06-02T07:40:22Z</time>
      </trkpt>
      <trkpt lat="46.18732" lon="-1.30598">
        <ele>8.5</ele>
        <time>2020-06-02T07:40:23Z</time>
      </trkpt>
      <trkpt lat="46.18731" lon="-1.30592">
        <ele>8.5</ele>
        <time>2020-06-02T07:40:24Z</time>
      </trkpt>
      <trkpt lat="46.1873" lon="-1.30585">
        <ele>8.5</ele>
        <time>2020-06-02T07:40:25Z</time>
      </trkpt>
      <trkpt lat="46.18729" lon="-1.30579">
        <ele>8.5</ele>
        <time>2020-06-02T07:40:26Z</time>
      </trkpt>
      <trkpt lat="46.18729" lon="-1.30572">
        <ele>8.5</ele>
        <time>2020-06-02T07:40:27Z</time>
      </trkpt>
      <trkpt lat="46.18729" lon="-1.30566">
        <ele>8.5</ele>
        <time>2020-06-02T07:40:28Z</time>
      </trkpt>
      <trkpt lat="46.18728" lon="-1.30559">
        <ele>8.6</ele>
        <time>2020-06-02T07:40:29Z</time>
      </trkpt>
      <trkpt lat="46.18728" lon="-1.30553">
        <ele>8.6</ele>
        <time>2020-06-02T07:40:30Z</time>
      </trkpt>
      <trkpt lat="46.18727" lon="-1.30546">
        <ele>8.6</ele>
        <time>2020-06-02T07:40:31Z</time>
      </trkpt>
      <trkpt lat="46.18727" lon="-1.30539">
        <ele>8.6</ele>
        <time>2020-06-02T07:40:32Z</time>
      </trkpt>
      <trkpt lat="46.18726" lon="-1.30531">
        <ele>8.7</ele>
        <time>2020-06-02T07:40:33Z</time>
      </trkpt>
      <trkpt lat="46.18725" lon="-1.30525">
        <ele>8.7</ele>
        <time>2020-06-02T07:40:34Z</time>
      </trkpt>
      <trkpt lat="46.18725" lon="-1.30518">
        <ele>8.7</ele>
        <time>2020-06-02T07:40:35Z</time>
      </trkpt>
      <trkpt lat="46.18725" lon="-1.30513">
        <ele>8.7</ele>
        <time>2020-06-02T07:40:36Z</time>
      </trkpt>
      <trkpt lat="46.18723" lon="-1.30506">
        <ele>8.8</ele>
        <time>2020-06-02T07:40:37Z</time>
      </trkpt>
      <trkpt lat="46.18722" lon="-1.30499">
        <ele>8.8</ele>
        <time>2020-06-02T07:40:38Z</time>
      </trkpt>
      <trkpt lat="46.18721" lon="-1.30493">
        <ele>8.9</ele>
        <time>2020-06-02T07:40:39Z</time>
      </trkpt>
      <trkpt lat="46.18721" lon="-1.30486">
        <ele>9</ele>
        <time>2020-06-02T07:40:40Z</time>
      </trkpt>
      <trkpt lat="46.18721" lon="-1.30479">
        <ele>9.1</ele>
        <time>2020-06-02T07:40:41Z</time>
      </trkpt>
      <trkpt lat="46.1872" lon="-1.30473">
        <ele>9.1</ele>
        <time>2020-06-02T07:40:42Z</time>
      </trkpt>
      <trkpt lat="46.18719" lon="-1.30467">
        <ele>9.2</ele>
        <time>2020-06-02T07:40:43Z</time>
      </trkpt>
      <trkpt lat="46.18718" lon="-1.30461">
        <ele>9.2</ele>
        <time>2020-06-02T07:40:44Z</time>
      </trkpt>
      <trkpt lat="46.18717" lon="-1.30455">
        <ele>9.3</ele>
        <time>2020-06-02T07:40:45Z</time>
      </trkpt>
      <trkpt lat="46.18716" lon="-1.30447">
        <ele>9.3</ele>
        <time>2020-06-02T07:40:46Z</time>
      </trkpt>
      <trkpt lat="46.18716" lon="-1.30441">
        <ele>9.3</ele>
        <time>2020-06-02T07:40:47Z</time>
      </trkpt>
      <trkpt lat="46.18715" lon="-1.30435">
        <ele>9.3</ele>
        <time>2020-06-02T07:40:48Z</time>
      </trkpt>
      <trkpt lat="46.18713" lon="-1.30429">
        <ele>9.3</ele>
        <time>2020-06-02T07:40:49Z</time>
      </trkpt>
      <trkpt lat="46.18712" lon="-1.30422">
        <ele>9.3</ele>
        <time>2020-06-02T07:40:50Z</time>
      </trkpt>
      <trkpt lat="46.18712" lon="-1.30415">
        <ele>9.3</ele>
        <time>2020-06-02T07:40:51Z</time>
      </trkpt>
      <trkpt lat="46.18711" lon="-1.30408">
        <ele>9.3</ele>
        <time>2020-06-02T07:40:52Z</time>
      </trkpt>
      <trkpt lat="46.18711" lon="-1.30401">
        <ele>9.3</ele>
        <time>2020-06-02T07:40:53Z</time>
      </trkpt>
      <trkpt lat="46.18711" lon="-1.30394">
        <ele>9.3</ele>
        <time>2020-06-02T07:40:54Z</time>
      </trkpt>
      <trkpt lat="46.1871" lon="-1.30386">
        <ele>9.4</ele>
        <time>2020-06-02T07:40:55Z</time>
      </trkpt>
      <trkpt lat="46.18709" lon="-1.3038">
        <ele>9.4</ele>
        <time>2020-06-02T07:40:56Z</time>
      </trkpt>
      <trkpt lat="46.18708" lon="-1.30374">
        <ele>9.4</ele>
        <time>2020-06-02T07:40:57Z</time>
      </trkpt>
      <trkpt lat="46.18707" lon="-1.30368">
        <ele>9.4</ele>
        <time>2020-06-02T07:40:58Z</time>
      </trkpt>
      <trkpt lat="46.18706" lon="-1.30362">
        <ele>9.4</ele>
        <time>2020-06-02T07:40:59Z</time>
      </trkpt>
      <trkpt lat="46.18706" lon="-1.30356">
        <ele>9.4</ele>
        <time>2020-06-02T07:41:00Z</time>
      </trkpt>
      <trkpt lat="46.18705" lon="-1.3035">
        <ele>9.4</ele>
        <time>2020-06-02T07:41:01Z</time>
      </trkpt>
      <trkpt lat="46.18705" lon="-1.30343">
        <ele>9.4</ele>
        <time>2020-06-02T07:41:02Z</time>
      </trkpt>
      <trkpt lat="46.18704" lon="-1.30336">
        <ele>9.4</ele>
        <time>2020-06-02T07:41:03Z</time>
      </trkpt>
      <trkpt lat="46.18704" lon="-1.3033">
        <ele>9.4</ele>
        <time>2020-06-02T07:41:04Z</time>
      </trkpt>
      <trkpt lat="46.18703" lon="-1.30323">
        <ele>9.4</ele>
        <time>2020-06-02T07:41:05Z</time>
      </trkpt>
      <trkpt lat="46.18702" lon="-1.30316">
        <ele>9.4</ele>
        <time>2020-06-02T07:41:06Z</time>
      </trkpt>
      <trkpt lat="46.18702" lon="-1.30309">
        <ele>9.4</ele>
        <time>2020-06-02T07:41:07Z</time>
      </trkpt>
      <trkpt lat="46.18701" lon="-1.30302">
        <ele>9.4</ele>
        <time>2020-06-02T07:41:08Z</time>
      </trkpt>
      <trkpt lat="46.18701" lon="-1.30296">
        <ele>9.4</ele>
        <time>2020-06-02T07:41:09Z</time>
      </trkpt>
      <trkpt lat="46.187" lon="-1.30289">
        <ele>9.5</ele>
        <time>2020-06-02T07:41:10Z</time>
      </trkpt>
      <trkpt lat="46.18699" lon="-1.30282">
        <ele>9.5</ele>
        <time>2020-06-02T07:41:11Z</time>
      </trkpt>
      <trkpt lat="46.18698" lon="-1.30275">
        <ele>9.6</ele>
        <time>2020-06-02T07:41:12Z</time>
      </trkpt>
      <trkpt lat="46.18697" lon="-1.30269">
        <ele>9.6</ele>
        <time>2020-06-02T07:41:13Z</time>
      </trkpt>
      <trkpt lat="46.18696" lon="-1.30262">
        <ele>9.6</ele>
        <time>2020-06-02T07:41:14Z</time>
      </trkpt>
      <trkpt lat="46.18695" lon="-1.30256">
        <ele>9.7</ele>
        <time>2020-06-02T07:41:15Z</time>
      </trkpt>
      <trkpt lat="46.18694" lon="-1.30249">
        <ele>9.8</ele>
        <time>2020-06-02T07:41:16Z</time>
      </trkpt>
      <trkpt lat="46.18693" lon="-1.30242">
        <ele>9.8</ele>
        <time>2020-06-02T07:41:17Z</time>
      </trkpt>
      <trkpt lat="46.18691" lon="-1.30236">
        <ele>9.9</ele>
        <time>2020-06-02T07:41:18Z</time>
      </trkpt>
      <trkpt lat="46.1869" lon="-1.3023">
        <ele>10</ele>
        <time>2020-06-02T07:41:19Z</time>
      </trkpt>
      <trkpt lat="46.18688" lon="-1.30224">
        <ele>10.1</ele>
        <time>2020-06-02T07:41:20Z</time>
      </trkpt>
      <trkpt lat="46.18687" lon="-1.30218">
        <ele>10.2</ele>
        <time>2020-06-02T07:41:21Z</time>
      </trkpt>
      <trkpt lat="46.18687" lon="-1.30212">
        <ele>10.3</ele>
        <time>2020-06-02T07:41:22Z</time>
      </trkpt>
      <trkpt lat="46.18687" lon="-1.30206">
        <ele>10.3</ele>
        <time>2020-06-02T07:41:23Z</time>
      </trkpt>
      <trkpt lat="46.18687" lon="-1.302">
        <ele>10.4</ele>
        <time>2020-06-02T07:41:24Z</time>
      </trkpt>
      <trkpt lat="46.18687" lon="-1.30195">
        <ele>10.4</ele>
        <time>2020-06-02T07:41:25Z</time>
      </trkpt>
      <trkpt lat="46.18687" lon="-1.3019">
        <ele>10.4</ele>
        <time>2020-06-02T07:41:26Z</time>
      </trkpt>
      <trkpt lat="46.18687" lon="-1.30185">
        <ele>10.5</ele>
        <time>2020-06-02T07:41:27Z</time>
      </trkpt>
      <trkpt lat="46.18688" lon="-1.30177">
        <ele>10.5</ele>
        <time>2020-06-02T07:41:28Z</time>
      </trkpt>
      <trkpt lat="46.18687" lon="-1.30171">
        <ele>10.6</ele>
        <time>2020-06-02T07:41:29Z</time>
      </trkpt>
      <trkpt lat="46.18686" lon="-1.30165">
        <ele>10.7</ele>
        <time>2020-06-02T07:41:30Z</time>
      </trkpt>
      <trkpt lat="46.18685" lon="-1.30159">
        <ele>10.8</ele>
        <time>2020-06-02T07:41:31Z</time>
      </trkpt>
      <trkpt lat="46.18685" lon="-1.30152">
        <ele>10.9</ele>
        <time>2020-06-02T07:41:32Z</time>
      </trkpt>
      <trkpt lat="46.18684" lon="-1.30146">
        <ele>11</ele>
        <time>2020-06-02T07:41:33Z</time>
      </trkpt>
      <trkpt lat="46.18683" lon="-1.3014">
        <ele>11.1</ele>
        <time>2020-06-02T07:41:34Z</time>
      </trkpt>
      <trkpt lat="46.18683" lon="-1.30134">
        <ele>11.2</ele>
        <time>2020-06-02T07:41:35Z</time>
      </trkpt>
      <trkpt lat="46.18683" lon="-1.30128">
        <ele>11.3</ele>
        <time>2020-06-02T07:41:36Z</time>
      </trkpt>
      <trkpt lat="46.18684" lon="-1.30122">
        <ele>11.3</ele>
        <time>2020-06-02T07:41:37Z</time>
      </trkpt>
      <trkpt lat="46.18684" lon="-1.30116">
        <ele>11.4</ele>
        <time>2020-06-02T07:41:38Z</time>
      </trkpt>
      <trkpt lat="46.18684" lon="-1.3011">
        <ele>11.5</ele>
        <time>2020-06-02T07:41:39Z</time>
      </trkpt>
      <trkpt lat="46.18685" lon="-1.30104">
        <ele>11.6</ele>
        <time>2020-06-02T07:41:40Z</time>
      </trkpt>
      <trkpt lat="46.18686" lon="-1.30098">
        <ele>11.6</ele>
        <time>2020-06-02T07:41:41Z</time>
      </trkpt>
      <trkpt lat="46.18686" lon="-1.30092">
        <ele>11.7</ele>
        <time>2020-06-02T07:41:42Z</time>
      </trkpt>
      <trkpt lat="46.18686" lon="-1.30085">
        <ele>11.8</ele>
        <time>2020-06-02T07:41:43Z</time>
      </trkpt>
      <trkpt lat="46.18685" lon="-1.3008">
        <ele>11.8</ele>
        <time>2020-06-02T07:41:44Z</time>
      </trkpt>
      <trkpt lat="46.18687" lon="-1.30073">
        <ele>11.9</ele>
        <time>2020-06-02T07:41:45Z</time>
      </trkpt>
      <trkpt lat="46.18688" lon="-1.30067">
        <ele>12</ele>
        <time>2020-06-02T07:41:46Z</time>
      </trkpt>
      <trkpt lat="46.1869" lon="-1.30061">
        <ele>12</ele>
        <time>2020-06-02T07:41:47Z</time>
      </trkpt>
      <trkpt lat="46.18691" lon="-1.30055">
        <ele>12</ele>
        <time>2020-06-02T07:41:48Z</time>
      </trkpt>
      <trkpt lat="46.18693" lon="-1.30049">
        <ele>12.1</ele>
        <time>2020-06-02T07:41:49Z</time>
      </trkpt>
      <trkpt lat="46.18695" lon="-1.30043">
        <ele>12.1</ele>
        <time>2020-06-02T07:41:50Z</time>
      </trkpt>
      <trkpt lat="46.18698" lon="-1.30037">
        <ele>12.2</ele>
        <time>2020-06-02T07:41:51Z</time>
      </trkpt>
      <trkpt lat="46.187" lon="-1.30029">
        <ele>12.2</ele>
        <time>2020-06-02T07:41:52Z</time>
      </trkpt>
      <trkpt lat="46.18702" lon="-1.30022">
        <ele>12.2</ele>
        <time>2020-06-02T07:41:53Z</time>
      </trkpt>
      <trkpt lat="46.18703" lon="-1.30014">
        <ele>12.3</ele>
        <time>2020-06-02T07:41:54Z</time>
      </trkpt>
      <trkpt lat="46.18705" lon="-1.30008">
        <ele>12.3</ele>
        <time>2020-06-02T07:41:55Z</time>
      </trkpt>
      <trkpt lat="46.18706" lon="-1.30001">
        <ele>12.3</ele>
        <time>2020-06-02T07:41:56Z</time>
      </trkpt>
      <trkpt lat="46.18708" lon="-1.29994">
        <ele>12.3</ele>
        <time>2020-06-02T07:41:57Z</time>
      </trkpt>
      <trkpt lat="46.18709" lon="-1.29987">
        <ele>12.3</ele>
        <time>2020-06-02T07:41:58Z</time>
      </trkpt>
      <trkpt lat="46.18711" lon="-1.29979">
        <ele>12.3</ele>
        <time>2020-06-02T07:41:59Z</time>
      </trkpt>
      <trkpt lat="46.18712" lon="-1.29971">
        <ele>12.3</ele>
        <time>2020-06-02T07:42:00Z</time>
      </trkpt>
      <trkpt lat="46.18714" lon="-1.29964">
        <ele>12.3</ele>
        <time>2020-06-02T07:42:01Z</time>
      </trkpt>
      <trkpt lat="46.18715" lon="-1.29956">
        <ele>12.3</ele>
        <time>2020-06-02T07:42:02Z</time>
      </trkpt>
      <trkpt lat="46.18715" lon="-1.29949">
        <ele>12.2</ele>
        <time>2020-06-02T07:42:03Z</time>
      </trkpt>
      <trkpt lat="46.18715" lon="-1.29941">
        <ele>12.2</ele>
        <time>2020-06-02T07:42:04Z</time>
      </trkpt>
      <trkpt lat="46.18714" lon="-1.29934">
        <ele>12.2</ele>
        <time>2020-06-02T07:42:05Z</time>
      </trkpt>
      <trkpt lat="46.18714" lon="-1.29927">
        <ele>12.2</ele>
        <time>2020-06-02T07:42:06Z</time>
      </trkpt>
      <trkpt lat="46.18715" lon="-1.2992">
        <ele>12.1</ele>
        <time>2020-06-02T07:42:07Z</time>
      </trkpt>
      <trkpt lat="46.18715" lon="-1.29913">
        <ele>12.1</ele>
        <time>2020-06-02T07:42:08Z</time>
      </trkpt>
      <trkpt lat="46.18715" lon="-1.29906">
        <ele>12.1</ele>
        <time>2020-06-02T07:42:09Z</time>
      </trkpt>
      <trkpt lat="46.18715" lon="-1.29899">
        <ele>12.1</ele>
        <time>2020-06-02T07:42:10Z</time>
      </trkpt>
      <trkpt lat="46.18716" lon="-1.29892">
        <ele>12.1</ele>
        <time>2020-06-02T07:42:11Z</time>
      </trkpt>
      <trkpt lat="46.18715" lon="-1.29884">
        <ele>12.1</ele>
        <time>2020-06-02T07:42:12Z</time>
      </trkpt>
      <trkpt lat="46.18713" lon="-1.29878">
        <ele>12.1</ele>
        <time>2020-06-02T07:42:13Z</time>
      </trkpt>
      <trkpt lat="46.18712" lon="-1.2987">
        <ele>12.1</ele>
        <time>2020-06-02T07:42:14Z</time>
      </trkpt>
      <trkpt lat="46.18712" lon="-1.29863">
        <ele>12.1</ele>
        <time>2020-06-02T07:42:15Z</time>
      </trkpt>
      <trkpt lat="46.18711" lon="-1.29856">
        <ele>12.1</ele>
        <time>2020-06-02T07:42:16Z</time>
      </trkpt>
      <trkpt lat="46.18711" lon="-1.29848">
        <ele>12.2</ele>
        <time>2020-06-02T07:42:17Z</time>
      </trkpt>
      <trkpt lat="46.18712" lon="-1.2984">
        <ele>12.2</ele>
        <time>2020-06-02T07:42:18Z</time>
      </trkpt>
      <trkpt lat="46.18712" lon="-1.29833">
        <ele>12.2</ele>
        <time>2020-06-02T07:42:19Z</time>
      </trkpt>
      <trkpt lat="46.18712" lon="-1.29826">
        <ele>12.2</ele>
        <time>2020-06-02T07:42:20Z</time>
      </trkpt>
      <trkpt lat="46.18711" lon="-1.29819">
        <ele>12.2</ele>
        <time>2020-06-02T07:42:21Z</time>
      </trkpt>
      <trkpt lat="46.18711" lon="-1.29812">
        <ele>12.2</ele>
        <time>2020-06-02T07:42:22Z</time>
      </trkpt>
      <trkpt lat="46.1871" lon="-1.29805">
        <ele>12.2</ele>
        <time>2020-06-02T07:42:23Z</time>
      </trkpt>
      <trkpt lat="46.1871" lon="-1.29797">
        <ele>12.2</ele>
        <time>2020-06-02T07:42:24Z</time>
      </trkpt>
      <trkpt lat="46.18709" lon="-1.29789">
        <ele>12.2</ele>
        <time>2020-06-02T07:42:25Z</time>
      </trkpt>
      <trkpt lat="46.18709" lon="-1.29782">
        <ele>12.3</ele>
        <time>2020-06-02T07:42:26Z</time>
      </trkpt>
      <trkpt lat="46.18709" lon="-1.29775">
        <ele>12.2</ele>
        <time>2020-06-02T07:42:27Z</time>
      </trkpt>
      <trkpt lat="46.18709" lon="-1.29768">
        <ele>12.2</ele>
        <time>2020-06-02T07:42:28Z</time>
      </trkpt>
      <trkpt lat="46.18709" lon="-1.2976">
        <ele>12.2</ele>
        <time>2020-06-02T07:42:29Z</time>
      </trkpt>
      <trkpt lat="46.18709" lon="-1.29752">
        <ele>12.1</ele>
        <time>2020-06-02T07:42:30Z</time>
      </trkpt>
      <trkpt lat="46.18709" lon="-1.29745">
        <ele>12.1</ele>
        <time>2020-06-02T07:42:31Z</time>
      </trkpt>
      <trkpt lat="46.18709" lon="-1.29738">
        <ele>12</ele>
        <time>2020-06-02T07:42:32Z</time>
      </trkpt>
      <trkpt lat="46.18709" lon="-1.29731">
        <ele>12</ele>
        <time>2020-06-02T07:42:33Z</time>
      </trkpt>
      <trkpt lat="46.18709" lon="-1.29724">
        <ele>11.9</ele>
        <time>2020-06-02T07:42:34Z</time>
      </trkpt>
      <trkpt lat="46.18708" lon="-1.29716">
        <ele>11.9</ele>
        <time>2020-06-02T07:42:35Z</time>
      </trkpt>
      <trkpt lat="46.18709" lon="-1.2971">
        <ele>11.8</ele>
        <time>2020-06-02T07:42:36Z</time>
      </trkpt>
      <trkpt lat="46.18708" lon="-1.29704">
        <ele>11.8</ele>
        <time>2020-06-02T07:42:37Z</time>
      </trkpt>
      <trkpt lat="46.18708" lon="-1.29698">
        <ele>11.8</ele>
        <time>2020-06-02T07:42:38Z</time>
      </trkpt>
      <trkpt lat="46.18707" lon="-1.29691">
        <ele>11.7</ele>
        <time>2020-06-02T07:42:39Z</time>
      </trkpt>
      <trkpt lat="46.18706" lon="-1.29685">
        <ele>11.7</ele>
        <time>2020-06-02T07:42:40Z</time>
      </trkpt>
      <trkpt lat="46.18703" lon="-1.2968">
        <ele>11.6</ele>
        <time>2020-06-02T07:42:41Z</time>
      </trkpt>
      <trkpt lat="46.18701" lon="-1.29673">
        <ele>11.6</ele>
        <time>2020-06-02T07:42:42Z</time>
      </trkpt>
      <trkpt lat="46.18699" lon="-1.29666">
        <ele>11.5</ele>
        <time>2020-06-02T07:42:43Z</time>
      </trkpt>
      <trkpt lat="46.18696" lon="-1.29658">
        <ele>11.4</ele>
        <time>2020-06-02T07:42:44Z</time>
      </trkpt>
      <trkpt lat="46.18693" lon="-1.2965">
        <ele>11.3</ele>
        <time>2020-06-02T07:42:45Z</time>
      </trkpt>
      <trkpt lat="46.18691" lon="-1.29643">
        <ele>11.3</ele>
        <time>2020-06-02T07:42:46Z</time>
      </trkpt>
      <trkpt lat="46.18689" lon="-1.29636">
        <ele>11.2</ele>
        <time>2020-06-02T07:42:47Z</time>
      </trkpt>
      <trkpt lat="46.18686" lon="-1.29629">
        <ele>11.2</ele>
        <time>2020-06-02T07:42:48Z</time>
      </trkpt>
      <trkpt lat="46.18683" lon="-1.29624">
        <ele>11.2</ele>
        <time>2020-06-02T07:42:49Z</time>
      </trkpt>
      <trkpt lat="46.18679" lon="-1.29619">
        <ele>11.1</ele>
        <time>2020-06-02T07:42:50Z</time>
      </trkpt>
      <trkpt lat="46.18674" lon="-1.29615">
        <ele>11.1</ele>
        <time>2020-06-02T07:42:51Z</time>
      </trkpt>
      <trkpt lat="46.18669" lon="-1.2961">
        <ele>11.1</ele>
        <time>2020-06-02T07:42:52Z</time>
      </trkpt>
      <trkpt lat="46.18663" lon="-1.29608">
        <ele>11.1</ele>
        <time>2020-06-02T07:42:53Z</time>
      </trkpt>
      <trkpt lat="46.18658" lon="-1.29605">
        <ele>11</ele>
        <time>2020-06-02T07:42:54Z</time>
      </trkpt>
      <trkpt lat="46.18652" lon="-1.29603">
        <ele>11</ele>
        <time>2020-06-02T07:42:55Z</time>
      </trkpt>
      <trkpt lat="46.18646" lon="-1.29602">
        <ele>11</ele>
        <time>2020-06-02T07:42:56Z</time>
      </trkpt>
      <trkpt lat="46.1864" lon="-1.29601">
        <ele>11</ele>
        <time>2020-06-02T07:42:57Z</time>
      </trkpt>
      <trkpt lat="46.18634" lon="-1.29601">
        <ele>11</ele>
        <time>2020-06-02T07:42:58Z</time>
      </trkpt>
      <trkpt lat="46.18629" lon="-1.29601">
        <ele>11</ele>
        <time>2020-06-02T07:42:59Z</time>
      </trkpt>
      <trkpt lat="46.18624" lon="-1.29601">
        <ele>11</ele>
        <time>2020-06-02T07:43:00Z</time>
      </trkpt>
      <trkpt lat="46.18619" lon="-1.296">
        <ele>11</ele>
        <time>2020-06-02T07:43:01Z</time>
      </trkpt>
      <trkpt lat="46.18615" lon="-1.29599">
        <ele>11</ele>
        <time>2020-06-02T07:43:02Z</time>
      </trkpt>
      <trkpt lat="46.18609" lon="-1.29599">
        <ele>11</ele>
        <time>2020-06-02T07:43:03Z</time>
      </trkpt>
      <trkpt lat="46.18604" lon="-1.29599">
        <ele>11</ele>
        <time>2020-06-02T07:43:04Z</time>
      </trkpt>
      <trkpt lat="46.18599" lon="-1.29599">
        <ele>11</ele>
        <time>2020-06-02T07:43:05Z</time>
      </trkpt>
      <trkpt lat="46.18594" lon="-1.29598">
        <ele>11</ele>
        <time>2020-06-02T07:43:06Z</time>
      </trkpt>
      <trkpt lat="46.18588" lon="-1.29598">
        <ele>11</ele>
        <time>2020-06-02T07:43:07Z</time>
      </trkpt>
      <trkpt lat="46.18583" lon="-1.29597">
        <ele>11</ele>
        <time>2020-06-02T07:43:08Z</time>
      </trkpt>
      <trkpt lat="46.18577" lon="-1.29597">
        <ele>11</ele>
        <time>2020-06-02T07:43:09Z</time>
      </trkpt>
      <trkpt lat="46.18572" lon="-1.29596">
        <ele>11</ele>
        <time>2020-06-02T07:43:10Z</time>
      </trkpt>
      <trkpt lat="46.18566" lon="-1.29596">
        <ele>11</ele>
        <time>2020-06-02T07:43:11Z</time>
      </trkpt>
      <trkpt lat="46.18561" lon="-1.29596">
        <ele>11</ele>
        <time>2020-06-02T07:43:12Z</time>
      </trkpt>
      <trkpt lat="46.18556" lon="-1.29594">
        <ele>11</ele>
        <time>2020-06-02T07:43:13Z</time>
      </trkpt>
      <trkpt lat="46.1855" lon="-1.29594">
        <ele>11</ele>
        <time>2020-06-02T07:43:14Z</time>
      </trkpt>
      <trkpt lat="46.18544" lon="-1.29594">
        <ele>11</ele>
        <time>2020-06-02T07:43:15Z</time>
      </trkpt>
      <trkpt lat="46.18539" lon="-1.29595">
        <ele>11</ele>
        <time>2020-06-02T07:43:16Z</time>
      </trkpt>
      <trkpt lat="46.18534" lon="-1.29597">
        <ele>11</ele>
        <time>2020-06-02T07:43:17Z</time>
      </trkpt>
      <trkpt lat="46.18529" lon="-1.296">
        <ele>11</ele>
        <time>2020-06-02T07:43:18Z</time>
      </trkpt>
      <trkpt lat="46.18523" lon="-1.29602">
        <ele>11</ele>
        <time>2020-06-02T07:43:19Z</time>
      </trkpt>
      <trkpt lat="46.18518" lon="-1.29605">
        <ele>11</ele>
        <time>2020-06-02T07:43:20Z</time>
      </trkpt>
      <trkpt lat="46.18513" lon="-1.29608">
        <ele>11</ele>
        <time>2020-06-02T07:43:21Z</time>
      </trkpt>
      <trkpt lat="46.18507" lon="-1.2961">
        <ele>11</ele>
        <time>2020-06-02T07:43:22Z</time>
      </trkpt>
      <trkpt lat="46.18502" lon="-1.29612">
        <ele>11</ele>
        <time>2020-06-02T07:43:23Z</time>
      </trkpt>
      <trkpt lat="46.18497" lon="-1.29615">
        <ele>11</ele>
        <time>2020-06-02T07:43:24Z</time>
      </trkpt>
      <trkpt lat="46.18491" lon="-1.29616">
        <ele>11</ele>
        <time>2020-06-02T07:43:25Z</time>
      </trkpt>
      <trkpt lat="46.18486" lon="-1.29618">
        <ele>10.9</ele>
        <time>2020-06-02T07:43:26Z</time>
      </trkpt>
      <trkpt lat="46.1848" lon="-1.2962">
        <ele>10.9</ele>
        <time>2020-06-02T07:43:27Z</time>
      </trkpt>
      <trkpt lat="46.18474" lon="-1.29623">
        <ele>10.9</ele>
        <time>2020-06-02T07:43:28Z</time>
      </trkpt>
      <trkpt lat="46.18469" lon="-1.29626">
        <ele>10.9</ele>
        <time>2020-06-02T07:43:29Z</time>
      </trkpt>
      <trkpt lat="46.18464" lon="-1.29627">
        <ele>10.9</ele>
        <time>2020-06-02T07:43:30Z</time>
      </trkpt>
      <trkpt lat="46.1846" lon="-1.2963">
        <ele>10.9</ele>
        <time>2020-06-02T07:43:31Z</time>
      </trkpt>
      <trkpt lat="46.18455" lon="-1.29632">
        <ele>10.9</ele>
        <time>2020-06-02T07:43:32Z</time>
      </trkpt>
      <trkpt lat="46.1845" lon="-1.29635">
        <ele>10.9</ele>
        <time>2020-06-02T07:43:33Z</time>
      </trkpt>
      <trkpt lat="46.18445" lon="-1.29636">
        <ele>10.9</ele>
        <time>2020-06-02T07:43:34Z</time>
      </trkpt>
      <trkpt lat="46.1844" lon="-1.29633">
        <ele>10.9</ele>
        <time>2020-06-02T07:43:35Z</time>
      </trkpt>
      <trkpt lat="46.18438" lon="-1.29626">
        <ele>10.9</ele>
        <time>2020-06-02T07:43:36Z</time>
      </trkpt>
      <trkpt lat="46.18439" lon="-1.29619">
        <ele>10.8</ele>
        <time>2020-06-02T07:43:37Z</time>
      </trkpt>
      <trkpt lat="46.18442" lon="-1.2961">
        <ele>10.7</ele>
        <time>2020-06-02T07:43:38Z</time>
      </trkpt>
      <trkpt lat="46.18443" lon="-1.29604">
        <ele>10.6</ele>
        <time>2020-06-02T07:43:39Z</time>
      </trkpt>
      <trkpt lat="46.18444" lon="-1.29595">
        <ele>10.4</ele>
        <time>2020-06-02T07:43:40Z</time>
      </trkpt>
      <trkpt lat="46.18446" lon="-1.29587">
        <ele>10.3</ele>
        <time>2020-06-02T07:43:41Z</time>
      </trkpt>
      <trkpt lat="46.18447" lon="-1.2958">
        <ele>10.1</ele>
        <time>2020-06-02T07:43:42Z</time>
      </trkpt>
      <trkpt lat="46.18447" lon="-1.29573">
        <ele>10</ele>
        <time>2020-06-02T07:43:43Z</time>
      </trkpt>
      <trkpt lat="46.18448" lon="-1.29567">
        <ele>9.9</ele>
        <time>2020-06-02T07:43:44Z</time>
      </trkpt>
      <trkpt lat="46.18448" lon="-1.2956">
        <ele>9.9</ele>
        <time>2020-06-02T07:43:45Z</time>
      </trkpt>
      <trkpt lat="46.18449" lon="-1.29553">
        <ele>9.8</ele>
        <time>2020-06-02T07:43:46Z</time>
      </trkpt>
      <trkpt lat="46.18449" lon="-1.29546">
        <ele>9.8</ele>
        <time>2020-06-02T07:43:47Z</time>
      </trkpt>
      <trkpt lat="46.18449" lon="-1.29538">
        <ele>9.8</ele>
        <time>2020-06-02T07:43:48Z</time>
      </trkpt>
      <trkpt lat="46.1845" lon="-1.2953">
        <ele>9.7</ele>
        <time>2020-06-02T07:43:49Z</time>
      </trkpt>
      <trkpt lat="46.18451" lon="-1.29522">
        <ele>9.7</ele>
        <time>2020-06-02T07:43:50Z</time>
      </trkpt>
      <trkpt lat="46.18451" lon="-1.29515">
        <ele>9.6</ele>
        <time>2020-06-02T07:43:51Z</time>
      </trkpt>
      <trkpt lat="46.18451" lon="-1.29508">
        <ele>9.6</ele>
        <time>2020-06-02T07:43:52Z</time>
      </trkpt>
      <trkpt lat="46.1845" lon="-1.29502">
        <ele>9.5</ele>
        <time>2020-06-02T07:43:53Z</time>
      </trkpt>
      <trkpt lat="46.1845" lon="-1.29495">
        <ele>9.4</ele>
        <time>2020-06-02T07:43:54Z</time>
      </trkpt>
      <trkpt lat="46.18449" lon="-1.29487">
        <ele>9.4</ele>
        <time>2020-06-02T07:43:55Z</time>
      </trkpt>
      <trkpt lat="46.18448" lon="-1.2948">
        <ele>9.3</ele>
        <time>2020-06-02T07:43:56Z</time>
      </trkpt>
      <trkpt lat="46.18448" lon="-1.29474">
        <ele>9.2</ele>
        <time>2020-06-02T07:43:57Z</time>
      </trkpt>
      <trkpt lat="46.18448" lon="-1.29467">
        <ele>9.1</ele>
        <time>2020-06-02T07:43:58Z</time>
      </trkpt>
      <trkpt lat="46.18448" lon="-1.29459">
        <ele>9.1</ele>
        <time>2020-06-02T07:43:59Z</time>
      </trkpt>
      <trkpt lat="46.18448" lon="-1.29453">
        <ele>9</ele>
        <time>2020-06-02T07:44:00Z</time>
      </trkpt>
      <trkpt lat="46.18448" lon="-1.29446">
        <ele>8.9</ele>
        <time>2020-06-02T07:44:01Z</time>
      </trkpt>
      <trkpt lat="46.18449" lon="-1.29439">
        <ele>8.8</ele>
        <time>2020-06-02T07:44:02Z</time>
      </trkpt>
      <trkpt lat="46.18449" lon="-1.29431">
        <ele>8.8</ele>
        <time>2020-06-02T07:44:03Z</time>
      </trkpt>
      <trkpt lat="46.18448" lon="-1.29423">
        <ele>8.7</ele>
        <time>2020-06-02T07:44:04Z</time>
      </trkpt>
      <trkpt lat="46.18448" lon="-1.29415">
        <ele>8.6</ele>
        <time>2020-06-02T07:44:05Z</time>
      </trkpt>
      <trkpt lat="46.18448" lon="-1.29406">
        <ele>8.5</ele>
        <time>2020-06-02T07:44:06Z</time>
      </trkpt>
      <trkpt lat="46.18447" lon="-1.29399">
        <ele>8.5</ele>
        <time>2020-06-02T07:44:07Z</time>
      </trkpt>
      <trkpt lat="46.18447" lon="-1.29392">
        <ele>8.4</ele>
        <time>2020-06-02T07:44:08Z</time>
      </trkpt>
      <trkpt lat="46.18448" lon="-1.29382">
        <ele>8.3</ele>
        <time>2020-06-02T07:44:09Z</time>
      </trkpt>
      <trkpt lat="46.18448" lon="-1.29374">
        <ele>8.2</ele>
        <time>2020-06-02T07:44:10Z</time>
      </trkpt>
      <trkpt lat="46.18448" lon="-1.29365">
        <ele>8.1</ele>
        <time>2020-06-02T07:44:11Z</time>
      </trkpt>
      <trkpt lat="46.18448" lon="-1.29356">
        <ele>7.9</ele>
        <time>2020-06-02T07:44:12Z</time>
      </trkpt>
      <trkpt lat="46.18449" lon="-1.29349">
        <ele>7.8</ele>
        <time>2020-06-02T07:44:13Z</time>
      </trkpt>
      <trkpt lat="46.1845" lon="-1.29341">
        <ele>7.7</ele>
        <time>2020-06-02T07:44:14Z</time>
      </trkpt>
      <trkpt lat="46.1845" lon="-1.29334">
        <ele>7.6</ele>
        <time>2020-06-02T07:44:15Z</time>
      </trkpt>
      <trkpt lat="46.18451" lon="-1.29326">
        <ele>7.5</ele>
        <time>2020-06-02T07:44:16Z</time>
      </trkpt>
      <trkpt lat="46.18452" lon="-1.29319">
        <ele>7.4</ele>
        <time>2020-06-02T07:44:17Z</time>
      </trkpt>
      <trkpt lat="46.18453" lon="-1.29312">
        <ele>7.3</ele>
        <time>2020-06-02T07:44:18Z</time>
      </trkpt>
      <trkpt lat="46.18454" lon="-1.29306">
        <ele>7.3</ele>
        <time>2020-06-02T07:44:19Z</time>
      </trkpt>
      <trkpt lat="46.18454" lon="-1.29299">
        <ele>7.3</ele>
        <time>2020-06-02T07:44:20Z</time>
      </trkpt>
      <trkpt lat="46.18453" lon="-1.29292">
        <ele>7.2</ele>
        <time>2020-06-02T07:44:21Z</time>
      </trkpt>
      <trkpt lat="46.18455" lon="-1.29285">
        <ele>7.2</ele>
        <time>2020-06-02T07:44:22Z</time>
      </trkpt>
      <trkpt lat="46.18456" lon="-1.29278">
        <ele>7.2</ele>
        <time>2020-06-02T07:44:23Z</time>
      </trkpt>
      <trkpt lat="46.18458" lon="-1.29272">
        <ele>7.2</ele>
        <time>2020-06-02T07:44:24Z</time>
      </trkpt>
      <trkpt lat="46.18459" lon="-1.29266">
        <ele>7.1</ele>
        <time>2020-06-02T07:44:25Z</time>
      </trkpt>
      <trkpt lat="46.1846" lon="-1.29259">
        <ele>7.1</ele>
        <time>2020-06-02T07:44:26Z</time>
      </trkpt>
      <trkpt lat="46.18461" lon="-1.29254">
        <ele>7.1</ele>
        <time>2020-06-02T07:44:27Z</time>
      </trkpt>
      <trkpt lat="46.18462" lon="-1.29249">
        <ele>7</ele>
        <time>2020-06-02T07:44:28Z</time>
      </trkpt>
      <trkpt lat="46.18463" lon="-1.29243">
        <ele>7</ele>
        <time>2020-06-02T07:44:29Z</time>
      </trkpt>
      <trkpt lat="46.18464" lon="-1.29237">
        <ele>6.9</ele>
        <time>2020-06-02T07:44:30Z</time>
      </trkpt>
      <trkpt lat="46.18464" lon="-1.29231">
        <ele>6.8</ele>
        <time>2020-06-02T07:44:31Z</time>
      </trkpt>
      <trkpt lat="46.18466" lon="-1.29225">
        <ele>6.7</ele>
        <time>2020-06-02T07:44:32Z</time>
      </trkpt>
      <trkpt lat="46.18467" lon="-1.29219">
        <ele>6.7</ele>
        <time>2020-06-02T07:44:33Z</time>
      </trkpt>
      <trkpt lat="46.18468" lon="-1.29213">
        <ele>6.6</ele>
        <time>2020-06-02T07:44:34Z</time>
      </trkpt>
      <trkpt lat="46.1847" lon="-1.29207">
        <ele>6.5</ele>
        <time>2020-06-02T07:44:35Z</time>
      </trkpt>
      <trkpt lat="46.18471" lon="-1.292">
        <ele>6.4</ele>
        <time>2020-06-02T07:44:36Z</time>
      </trkpt>
      <trkpt lat="46.18472" lon="-1.29193">
        <ele>6.3</ele>
        <time>2020-06-02T07:44:37Z</time>
      </trkpt>
      <trkpt lat="46.18472" lon="-1.29185">
        <ele>6.2</ele>
        <time>2020-06-02T07:44:38Z</time>
      </trkpt>
      <trkpt lat="46.18474" lon="-1.29177">
        <ele>6.1</ele>
        <time>2020-06-02T07:44:39Z</time>
      </trkpt>
      <trkpt lat="46.18475" lon="-1.29171">
        <ele>6</ele>
        <time>2020-06-02T07:44:40Z</time>
      </trkpt>
      <trkpt lat="46.18477" lon="-1.29165">
        <ele>5.9</ele>
        <time>2020-06-02T07:44:41Z</time>
      </trkpt>
      <trkpt lat="46.18477" lon="-1.29158">
        <ele>5.9</ele>
        <time>2020-06-02T07:44:42Z</time>
      </trkpt>
      <trkpt lat="46.18478" lon="-1.29152">
        <ele>5.8</ele>
        <time>2020-06-02T07:44:43Z</time>
      </trkpt>
      <trkpt lat="46.18478" lon="-1.29145">
        <ele>5.7</ele>
        <time>2020-06-02T07:44:44Z</time>
      </trkpt>
      <trkpt lat="46.1848" lon="-1.2914">
        <ele>5.7</ele>
        <time>2020-06-02T07:44:45Z</time>
      </trkpt>
      <trkpt lat="46.18481" lon="-1.29133">
        <ele>5.6</ele>
        <time>2020-06-02T07:44:46Z</time>
      </trkpt>
      <trkpt lat="46.18482" lon="-1.29127">
        <ele>5.5</ele>
        <time>2020-06-02T07:44:47Z</time>
      </trkpt>
      <trkpt lat="46.18482" lon="-1.29121">
        <ele>5.5</ele>
        <time>2020-06-02T07:44:48Z</time>
      </trkpt>
      <trkpt lat="46.18483" lon="-1.29116">
        <ele>5.4</ele>
        <time>2020-06-02T07:44:49Z</time>
      </trkpt>
      <trkpt lat="46.18484" lon="-1.29112">
        <ele>5.4</ele>
        <time>2020-06-02T07:44:50Z</time>
      </trkpt>
      <trkpt lat="46.18485" lon="-1.29107">
        <ele>5.4</ele>
        <time>2020-06-02T07:44:51Z</time>
      </trkpt>
      <trkpt lat="46.18486" lon="-1.29102">
        <ele>5.4</ele>
        <time>2020-06-02T07:44:52Z</time>
      </trkpt>
      <trkpt lat="46.18487" lon="-1.29097">
        <ele>5.4</ele>
        <time>2020-06-02T07:44:53Z</time>
      </trkpt>
      <trkpt lat="46.18487" lon="-1.29095">
        <ele>5.4</ele>
        <time>2020-06-02T07:44:54Z</time>
      </trkpt>
      <trkpt lat="46.18485" lon="-1.29094">
        <ele>5.4</ele>
        <time>2020-06-02T07:44:55Z</time>
      </trkpt>
      <trkpt lat="46.18485" lon="-1.29094">
        <ele>5.4</ele>
        <time>2020-06-02T07:44:56Z</time>
      </trkpt>
      <trkpt lat="46.18485" lon="-1.29095">
        <ele>5.4</ele>
        <time>2020-06-02T07:44:57Z</time>
      </trkpt>
      <trkpt lat="46.18485" lon="-1.29096">
        <ele>5.4</ele>
        <time>2020-06-02T07:44:58Z</time>
      </trkpt>
      <trkpt lat="46.18485" lon="-1.29098">
        <ele>5.4</ele>
        <time>2020-06-02T07:44:59Z</time>
      </trkpt>
      <trkpt lat="46.18484" lon="-1.29098">
        <ele>5.4</ele>
        <time>2020-06-02T07:45:00Z</time>
      </trkpt>
      <trkpt lat="46.18484" lon="-1.29098">
        <ele>5.4</ele>
        <time>2020-06-02T07:45:01Z</time>
      </trkpt>
      <trkpt lat="46.18484" lon="-1.29099">
        <ele>5.4</ele>
        <time>2020-06-02T07:45:02Z</time>
      </trkpt>
      <trkpt lat="46.18484" lon="-1.29099">
        <ele>5.4</ele>
        <time>2020-06-02T07:45:03Z</time>
      </trkpt>
      <trkpt lat="46.18484" lon="-1.29099">
        <ele>5.4</ele>
        <time>2020-06-02T07:45:04Z</time>
      </trkpt>
      <trkpt lat="46.18483" lon="-1.29099">
        <ele>5.4</ele>
        <time>2020-06-02T07:45:05Z</time>
      </trkpt>
      <trkpt lat="46.18483" lon="-1.29099">
        <ele>5.4</ele>
        <time>2020-06-02T07:45:06Z</time>
      </trkpt>
      <trkpt lat="46.18483" lon="-1.29099">
        <ele>5.4</ele>
        <time>2020-06-02T07:45:07Z</time>
      </trkpt>
      <trkpt lat="46.18483" lon="-1.29099">
        <ele>5.4</ele>
        <time>2020-06-02T07:45:08Z</time>
      </trkpt>
      <trkpt lat="46.18482" lon="-1.29099">
        <ele>5.4</ele>
        <time>2020-06-02T07:45:09Z</time>
      </trkpt>
      <trkpt lat="46.18482" lon="-1.29099">
        <ele>5.4</ele>
        <time>2020-06-02T07:45:10Z</time>
      </trkpt>
      <trkpt lat="46.18482" lon="-1.291">
        <ele>5.4</ele>
        <time>2020-06-02T07:45:11Z</time>
      </trkpt>
      <trkpt lat="46.18482" lon="-1.291">
        <ele>5.4</ele>
        <time>2020-06-02T07:45:12Z</time>
      </trkpt>
      <trkpt lat="46.18482" lon="-1.291">
        <ele>5.4</ele>
        <time>2020-06-02T07:45:13Z</time>
      </trkpt>
      <trkpt lat="46.18481" lon="-1.291">
        <ele>5.4</ele>
        <time>2020-06-02T07:45:14Z</time>
      </trkpt>
      <trkpt lat="46.18481" lon="-1.291">
        <ele>5.4</ele>
        <time>2020-06-02T07:45:15Z</time>
      </trkpt>
      <trkpt lat="46.18481" lon="-1.291">
        <ele>5.4</ele>
        <time>2020-06-02T07:45:16Z</time>
      </trkpt>
      <trkpt lat="46.18479" lon="-1.29099">
        <ele>5.5</ele>
        <time>2020-06-02T07:45:17Z</time>
      </trkpt>
      <trkpt lat="46.18478" lon="-1.29098">
        <ele>5.5</ele>
        <time>2020-06-02T07:45:18Z</time>
      </trkpt>
      <trkpt lat="46.18477" lon="-1.29097">
        <ele>5.5</ele>
        <time>2020-06-02T07:45:19Z</time>
      </trkpt>
      <trkpt lat="46.18474" lon="-1.29095">
        <ele>5.5</ele>
        <time>2020-06-02T07:45:20Z</time>
      </trkpt>
      <trkpt lat="46.18473" lon="-1.29095">
        <ele>5.6</ele>
        <time>2020-06-02T07:45:21Z</time>
      </trkpt>
      <trkpt lat="46.1847" lon="-1.29094">
        <ele>5.6</ele>
        <time>2020-06-02T07:45:22Z</time>
      </trkpt>
      <trkpt lat="46.18469" lon="-1.29094">
        <ele>5.6</ele>
        <time>2020-06-02T07:45:23Z</time>
      </trkpt>
      <trkpt lat="46.18467" lon="-1.29092">
        <ele>5.7</ele>
        <time>2020-06-02T07:45:24Z</time>
      </trkpt>
      <trkpt lat="46.18466" lon="-1.29092">
        <ele>5.7</ele>
        <time>2020-06-02T07:45:25Z</time>
      </trkpt>
      <trkpt lat="46.18462" lon="-1.29092">
        <ele>5.7</ele>
        <time>2020-06-02T07:45:26Z</time>
      </trkpt>
      <trkpt lat="46.18461" lon="-1.29092">
        <ele>5.8</ele>
        <time>2020-06-02T07:45:27Z</time>
      </trkpt>
      <trkpt lat="46.18457" lon="-1.29091">
        <ele>5.8</ele>
        <time>2020-06-02T07:45:28Z</time>
      </trkpt>
      <trkpt lat="46.18456" lon="-1.2909">
        <ele>5.8</ele>
        <time>2020-06-02T07:45:29Z</time>
      </trkpt>
      <trkpt lat="46.18453" lon="-1.2909">
        <ele>5.9</ele>
        <time>2020-06-02T07:45:30Z</time>
      </trkpt>
      <trkpt lat="46.1845" lon="-1.29089">
        <ele>5.9</ele>
        <time>2020-06-02T07:45:31Z</time>
      </trkpt>
      <trkpt lat="46.18447" lon="-1.29088">
        <ele>6</ele>
        <time>2020-06-02T07:45:32Z</time>
      </trkpt>
      <trkpt lat="46.18443" lon="-1.29087">
        <ele>6</ele>
        <time>2020-06-02T07:45:33Z</time>
      </trkpt>
      <trkpt lat="46.1844" lon="-1.29086">
        <ele>6</ele>
        <time>2020-06-02T07:45:34Z</time>
      </trkpt>
      <trkpt lat="46.18436" lon="-1.29086">
        <ele>6.1</ele>
        <time>2020-06-02T07:45:35Z</time>
      </trkpt>
      <trkpt lat="46.18432" lon="-1.29086">
        <ele>6.1</ele>
        <time>2020-06-02T07:45:36Z</time>
      </trkpt>
      <trkpt lat="46.18428" lon="-1.29087">
        <ele>6.1</ele>
        <time>2020-06-02T07:45:37Z</time>
      </trkpt>
      <trkpt lat="46.18425" lon="-1.29088">
        <ele>6.1</ele>
        <time>2020-06-02T07:45:38Z</time>
      </trkpt>
      <trkpt lat="46.18422" lon="-1.29087">
        <ele>6.1</ele>
        <time>2020-06-02T07:45:39Z</time>
      </trkpt>
      <trkpt lat="46.18419" lon="-1.29087">
        <ele>6.1</ele>
        <time>2020-06-02T07:45:40Z</time>
      </trkpt>
      <trkpt lat="46.18415" lon="-1.29087">
        <ele>6.1</ele>
        <time>2020-06-02T07:45:41Z</time>
      </trkpt>
      <trkpt lat="46.18412" lon="-1.29088">
        <ele>6.1</ele>
        <time>2020-06-02T07:45:42Z</time>
      </trkpt>
      <trkpt lat="46.18409" lon="-1.29089">
        <ele>6</ele>
        <time>2020-06-02T07:45:43Z</time>
      </trkpt>
      <trkpt lat="46.18406" lon="-1.2909">
        <ele>6</ele>
        <time>2020-06-02T07:45:44Z</time>
      </trkpt>
      <trkpt lat="46.18403" lon="-1.29089">
        <ele>6</ele>
        <time>2020-06-02T07:45:45Z</time>
      </trkpt>
      <trkpt lat="46.18399" lon="-1.29087">
        <ele>6</ele>
        <time>2020-06-02T07:45:46Z</time>
      </trkpt>
      <trkpt lat="46.18395" lon="-1.29085">
        <ele>5.9</ele>
        <time>2020-06-02T07:45:47Z</time>
      </trkpt>
      <trkpt lat="46.1839" lon="-1.29081">
        <ele>5.9</ele>
        <time>2020-06-02T07:45:48Z</time>
      </trkpt>
      <trkpt lat="46.18387" lon="-1.29079">
        <ele>5.9</ele>
        <time>2020-06-02T07:45:49Z</time>
      </trkpt>
      <trkpt lat="46.18383" lon="-1.29078">
        <ele>5.9</ele>
        <time>2020-06-02T07:45:50Z</time>
      </trkpt>
      <trkpt lat="46.18379" lon="-1.29075">
        <ele>5.8</ele>
        <time>2020-06-02T07:45:51Z</time>
      </trkpt>
      <trkpt lat="46.18375" lon="-1.29073">
        <ele>5.8</ele>
        <time>2020-06-02T07:45:52Z</time>
      </trkpt>
      <trkpt lat="46.18372" lon="-1.2907">
        <ele>5.8</ele>
        <time>2020-06-02T07:45:53Z</time>
      </trkpt>
      <trkpt lat="46.18368" lon="-1.29068">
        <ele>5.7</ele>
        <time>2020-06-02T07:45:54Z</time>
      </trkpt>
      <trkpt lat="46.18364" lon="-1.29066">
        <ele>5.7</ele>
        <time>2020-06-02T07:45:55Z</time>
      </trkpt>
      <trkpt lat="46.1836" lon="-1.29062">
        <ele>5.6</ele>
        <time>2020-06-02T07:45:56Z</time>
      </trkpt>
      <trkpt lat="46.18357" lon="-1.2906">
        <ele>5.5</ele>
        <time>2020-06-02T07:45:57Z</time>
      </trkpt>
      <trkpt lat="46.18353" lon="-1.29058">
        <ele>5.5</ele>
        <time>2020-06-02T07:45:58Z</time>
      </trkpt>
      <trkpt lat="46.1835" lon="-1.29056">
        <ele>5.4</ele>
        <time>2020-06-02T07:45:59Z</time>
      </trkpt>
      <trkpt lat="46.18347" lon="-1.29054">
        <ele>5.4</ele>
        <time>2020-06-02T07:46:00Z</time>
      </trkpt>
      <trkpt lat="46.18344" lon="-1.29052">
        <ele>5.3</ele>
        <time>2020-06-02T07:46:01Z</time>
      </trkpt>
      <trkpt lat="46.18339" lon="-1.2905">
        <ele>5.3</ele>
        <time>2020-06-02T07:46:02Z</time>
      </trkpt>
      <trkpt lat="46.18336" lon="-1.29049">
        <ele>5.2</ele>
        <time>2020-06-02T07:46:03Z</time>
      </trkpt>
      <trkpt lat="46.18332" lon="-1.29048">
        <ele>5.1</ele>
        <time>2020-06-02T07:46:04Z</time>
      </trkpt>
      <trkpt lat="46.18329" lon="-1.29047">
        <ele>5.1</ele>
        <time>2020-06-02T07:46:05Z</time>
      </trkpt>
      <trkpt lat="46.18325" lon="-1.29044">
        <ele>5</ele>
        <time>2020-06-02T07:46:06Z</time>
      </trkpt>
      <trkpt lat="46.18322" lon="-1.29041">
        <ele>5</ele>
        <time>2020-06-02T07:46:07Z</time>
      </trkpt>
      <trkpt lat="46.18318" lon="-1.29038">
        <ele>4.9</ele>
        <time>2020-06-02T07:46:08Z</time>
      </trkpt>
      <trkpt lat="46.18314" lon="-1.29037">
        <ele>4.8</ele>
        <time>2020-06-02T07:46:09Z</time>
      </trkpt>
      <trkpt lat="46.1831" lon="-1.29034">
        <ele>4.8</ele>
        <time>2020-06-02T07:46:10Z</time>
      </trkpt>
      <trkpt lat="46.18307" lon="-1.29031">
        <ele>4.8</ele>
        <time>2020-06-02T07:46:11Z</time>
      </trkpt>
      <trkpt lat="46.18303" lon="-1.29028">
        <ele>4.7</ele>
        <time>2020-06-02T07:46:12Z</time>
      </trkpt>
      <trkpt lat="46.18299" lon="-1.29024">
        <ele>4.7</ele>
        <time>2020-06-02T07:46:13Z</time>
      </trkpt>
      <trkpt lat="46.18295" lon="-1.29023">
        <ele>4.7</ele>
        <time>2020-06-02T07:46:14Z</time>
      </trkpt>
      <trkpt lat="46.18291" lon="-1.29022">
        <ele>4.6</ele>
        <time>2020-06-02T07:46:15Z</time>
      </trkpt>
      <trkpt lat="46.18288" lon="-1.29021">
        <ele>4.6</ele>
        <time>2020-06-02T07:46:16Z</time>
      </trkpt>
      <trkpt lat="46.18286" lon="-1.29019">
        <ele>4.6</ele>
        <time>2020-06-02T07:46:17Z</time>
      </trkpt>
      <trkpt lat="46.18284" lon="-1.29014">
        <ele>4.6</ele>
        <time>2020-06-02T07:46:18Z</time>
      </trkpt>
      <trkpt lat="46.18283" lon="-1.29013">
        <ele>4.6</ele>
        <time>2020-06-02T07:46:19Z</time>
      </trkpt>
      <trkpt lat="46.18282" lon="-1.29009">
        <ele>4.6</ele>
        <time>2020-06-02T07:46:20Z</time>
      </trkpt>
      <trkpt lat="46.18281" lon="-1.29008">
        <ele>4.6</ele>
        <time>2020-06-02T07:46:21Z</time>
      </trkpt>
      <trkpt lat="46.1828" lon="-1.29007">
        <ele>4.6</ele>
        <time>2020-06-02T07:46:22Z</time>
      </trkpt>
      <trkpt lat="46.18279" lon="-1.29006">
        <ele>4.6</ele>
        <time>2020-06-02T07:46:23Z</time>
      </trkpt>
      <trkpt lat="46.18278" lon="-1.29005">
        <ele>4.6</ele>
        <time>2020-06-02T07:46:24Z</time>
      </trkpt>
      <trkpt lat="46.18278" lon="-1.29003">
        <ele>4.6</ele>
        <time>2020-06-02T07:46:25Z</time>
      </trkpt>
      <trkpt lat="46.18277" lon="-1.29002">
        <ele>4.6</ele>
        <time>2020-06-02T07:46:26Z</time>
      </trkpt>
      <trkpt lat="46.18275" lon="-1.28999">
        <ele>4.6</ele>
        <time>2020-06-02T07:46:27Z</time>
      </trkpt>
      <trkpt lat="46.18274" lon="-1.28998">
        <ele>4.6</ele>
        <time>2020-06-02T07:46:28Z</time>
      </trkpt>
      <trkpt lat="46.18272" lon="-1.28994">
        <ele>4.6</ele>
        <time>2020-06-02T07:46:29Z</time>
      </trkpt>
      <trkpt lat="46.18271" lon="-1.28993">
        <ele>4.6</ele>
        <time>2020-06-02T07:46:30Z</time>
      </trkpt>
      <trkpt lat="46.18269" lon="-1.2899">
        <ele>4.6</ele>
        <time>2020-06-02T07:46:31Z</time>
      </trkpt>
      <trkpt lat="46.18268" lon="-1.28988">
        <ele>4.6</ele>
        <time>2020-06-02T07:46:32Z</time>
      </trkpt>
      <trkpt lat="46.18266" lon="-1.28985">
        <ele>4.6</ele>
        <time>2020-06-02T07:46:33Z</time>
      </trkpt>
      <trkpt lat="46.18265" lon="-1.28983">
        <ele>4.6</ele>
        <time>2020-06-02T07:46:34Z</time>
      </trkpt>
      <trkpt lat="46.18264" lon="-1.2898">
        <ele>4.6</ele>
        <time>2020-06-02T07:46:35Z</time>
      </trkpt>
      <trkpt lat="46.18262" lon="-1.28975">
        <ele>4.7</ele>
        <time>2020-06-02T07:46:36Z</time>
      </trkpt>
      <trkpt lat="46.18261" lon="-1.28975">
        <ele>4.7</ele>
        <time>2020-06-02T07:46:37Z</time>
      </trkpt>
      <trkpt lat="46.18259" lon="-1.28971">
        <ele>4.7</ele>
        <time>2020-06-02T07:46:38Z</time>
      </trkpt>
      <trkpt lat="46.18257" lon="-1.28968">
        <ele>4.7</ele>
        <time>2020-06-02T07:46:39Z</time>
      </trkpt>
      <trkpt lat="46.18254" lon="-1.28964">
        <ele>4.7</ele>
        <time>2020-06-02T07:46:40Z</time>
      </trkpt>
      <trkpt lat="46.18252" lon="-1.2896">
        <ele>4.8</ele>
        <time>2020-06-02T07:46:41Z</time>
      </trkpt>
      <trkpt lat="46.18249" lon="-1.28956">
        <ele>4.8</ele>
        <time>2020-06-02T07:46:42Z</time>
      </trkpt>
      <trkpt lat="46.18246" lon="-1.28953">
        <ele>4.9</ele>
        <time>2020-06-02T07:46:43Z</time>
      </trkpt>
      <trkpt lat="46.18243" lon="-1.28949">
        <ele>4.9</ele>
        <time>2020-06-02T07:46:44Z</time>
      </trkpt>
      <trkpt lat="46.1824" lon="-1.28945">
        <ele>5</ele>
        <time>2020-06-02T07:46:45Z</time>
      </trkpt>
      <trkpt lat="46.18236" lon="-1.28943">
        <ele>5.1</ele>
        <time>2020-06-02T07:46:46Z</time>
      </trkpt>
      <trkpt lat="46.18232" lon="-1.28941">
        <ele>5.1</ele>
        <time>2020-06-02T07:46:47Z</time>
      </trkpt>
      <trkpt lat="46.18229" lon="-1.2894">
        <ele>5.2</ele>
        <time>2020-06-02T07:46:48Z</time>
      </trkpt>
      <trkpt lat="46.18225" lon="-1.28939">
        <ele>5.2</ele>
        <time>2020-06-02T07:46:49Z</time>
      </trkpt>
      <trkpt lat="46.18222" lon="-1.28938">
        <ele>5.3</ele>
        <time>2020-06-02T07:46:50Z</time>
      </trkpt>
      <trkpt lat="46.18218" lon="-1.28937">
        <ele>5.3</ele>
        <time>2020-06-02T07:46:51Z</time>
      </trkpt>
      <trkpt lat="46.18214" lon="-1.28936">
        <ele>5.4</ele>
        <time>2020-06-02T07:46:52Z</time>
      </trkpt>
      <trkpt lat="46.18211" lon="-1.28933">
        <ele>5.4</ele>
        <time>2020-06-02T07:46:53Z</time>
      </trkpt>
      <trkpt lat="46.18208" lon="-1.28932">
        <ele>5.5</ele>
        <time>2020-06-02T07:46:54Z</time>
      </trkpt>
      <trkpt lat="46.18204" lon="-1.28929">
        <ele>5.5</ele>
        <time>2020-06-02T07:46:55Z</time>
      </trkpt>
      <trkpt lat="46.18201" lon="-1.28926">
        <ele>5.5</ele>
        <time>2020-06-02T07:46:56Z</time>
      </trkpt>
      <trkpt lat="46.18197" lon="-1.28922">
        <ele>5.6</ele>
        <time>2020-06-02T07:46:57Z</time>
      </trkpt>
      <trkpt lat="46.18193" lon="-1.28921">
        <ele>5.6</ele>
        <time>2020-06-02T07:46:58Z</time>
      </trkpt>
      <trkpt lat="46.1819" lon="-1.28918">
        <ele>5.6</ele>
        <time>2020-06-02T07:46:59Z</time>
      </trkpt>
      <trkpt lat="46.18187" lon="-1.28917">
        <ele>5.7</ele>
        <time>2020-06-02T07:47:00Z</time>
      </trkpt>
      <trkpt lat="46.18183" lon="-1.28916">
        <ele>5.7</ele>
        <time>2020-06-02T07:47:01Z</time>
      </trkpt>
      <trkpt lat="46.1818" lon="-1.28915">
        <ele>5.7</ele>
        <time>2020-06-02T07:47:02Z</time>
      </trkpt>
      <trkpt lat="46.18177" lon="-1.28917">
        <ele>5.8</ele>
        <time>2020-06-02T07:47:03Z</time>
      </trkpt>
      <trkpt lat="46.18173" lon="-1.28921">
        <ele>5.8</ele>
        <time>2020-06-02T07:47:04Z</time>
      </trkpt>
      <trkpt lat="46.18172" lon="-1.28927">
        <ele>5.9</ele>
        <time>2020-06-02T07:47:05Z</time>
      </trkpt>
      <trkpt lat="46.18171" lon="-1.28932">
        <ele>5.9</ele>
        <time>2020-06-02T07:47:06Z</time>
      </trkpt>
      <trkpt lat="46.18169" lon="-1.28937">
        <ele>5.9</ele>
        <time>2020-06-02T07:47:07Z</time>
      </trkpt>
      <trkpt lat="46.18167" lon="-1.28942">
        <ele>6</ele>
        <time>2020-06-02T07:47:08Z</time>
      </trkpt>
      <trkpt lat="46.18165" lon="-1.28946">
        <ele>6</ele>
        <time>2020-06-02T07:47:09Z</time>
      </trkpt>
      <trkpt lat="46.18163" lon="-1.28951">
        <ele>6</ele>
        <time>2020-06-02T07:47:10Z</time>
      </trkpt>
      <trkpt lat="46.18161" lon="-1.28956">
        <ele>6</ele>
        <time>2020-06-02T07:47:11Z</time>
      </trkpt>
      <trkpt lat="46.1816" lon="-1.28958">
        <ele>6</ele>
        <time>2020-06-02T07:47:12Z</time>
      </trkpt>
      <trkpt lat="46.18157" lon="-1.28963">
        <ele>6</ele>
        <time>2020-06-02T07:47:13Z</time>
      </trkpt>
      <trkpt lat="46.18155" lon="-1.28968">
        <ele>5.9</ele>
        <time>2020-06-02T07:47:14Z</time>
      </trkpt>
      <trkpt lat="46.18153" lon="-1.28973">
        <ele>5.9</ele>
        <time>2020-06-02T07:47:15Z</time>
      </trkpt>
      <trkpt lat="46.1815" lon="-1.28978">
        <ele>5.9</ele>
        <time>2020-06-02T07:47:16Z</time>
      </trkpt>
      <trkpt lat="46.18148" lon="-1.28983">
        <ele>5.9</ele>
        <time>2020-06-02T07:47:17Z</time>
      </trkpt>
      <trkpt lat="46.18145" lon="-1.28988">
        <ele>5.9</ele>
        <time>2020-06-02T07:47:18Z</time>
      </trkpt>
      <trkpt lat="46.18143" lon="-1.28995">
        <ele>5.9</ele>
        <time>2020-06-02T07:47:19Z</time>
      </trkpt>
      <trkpt lat="46.18142" lon="-1.29">
        <ele>5.8</ele>
        <time>2020-06-02T07:47:20Z</time>
      </trkpt>
      <trkpt lat="46.18139" lon="-1.29005">
        <ele>5.8</ele>
        <time>2020-06-02T07:47:21Z</time>
      </trkpt>
      <trkpt lat="46.18137" lon="-1.29009">
        <ele>5.8</ele>
        <time>2020-06-02T07:47:22Z</time>
      </trkpt>
      <trkpt lat="46.18135" lon="-1.29014">
        <ele>5.8</ele>
        <time>2020-06-02T07:47:23Z</time>
      </trkpt>
      <trkpt lat="46.18132" lon="-1.29019">
        <ele>5.8</ele>
        <time>2020-06-02T07:47:24Z</time>
      </trkpt>
      <trkpt lat="46.1813" lon="-1.29023">
        <ele>5.8</ele>
        <time>2020-06-02T07:47:25Z</time>
      </trkpt>
      <trkpt lat="46.18129" lon="-1.29027">
        <ele>5.8</ele>
        <time>2020-06-02T07:47:26Z</time>
      </trkpt>
      <trkpt lat="46.18127" lon="-1.29032">
        <ele>5.8</ele>
        <time>2020-06-02T07:47:27Z</time>
      </trkpt>
      <trkpt lat="46.18124" lon="-1.29037">
        <ele>5.7</ele>
        <time>2020-06-02T07:47:28Z</time>
      </trkpt>
      <trkpt lat="46.18122" lon="-1.29041">
        <ele>5.7</ele>
        <time>2020-06-02T07:47:29Z</time>
      </trkpt>
      <trkpt lat="46.18121" lon="-1.29046">
        <ele>5.7</ele>
        <time>2020-06-02T07:47:30Z</time>
      </trkpt>
      <trkpt lat="46.18119" lon="-1.29051">
        <ele>5.7</ele>
        <time>2020-06-02T07:47:31Z</time>
      </trkpt>
      <trkpt lat="46.18117" lon="-1.29057">
        <ele>5.6</ele>
        <time>2020-06-02T07:47:32Z</time>
      </trkpt>
      <trkpt lat="46.18114" lon="-1.29061">
        <ele>5.5</ele>
        <time>2020-06-02T07:47:33Z</time>
      </trkpt>
      <trkpt lat="46.18112" lon="-1.29064">
        <ele>5.5</ele>
        <time>2020-06-02T07:47:34Z</time>
      </trkpt>
      <trkpt lat="46.18109" lon="-1.29066">
        <ele>5.4</ele>
        <time>2020-06-02T07:47:35Z</time>
      </trkpt>
      <trkpt lat="46.18106" lon="-1.29065">
        <ele>5.4</ele>
        <time>2020-06-02T07:47:36Z</time>
      </trkpt>
      <trkpt lat="46.18104" lon="-1.2906">
        <ele>5.3</ele>
        <time>2020-06-02T07:47:37Z</time>
      </trkpt>
      <trkpt lat="46.18101" lon="-1.29056">
        <ele>5.3</ele>
        <time>2020-06-02T07:47:38Z</time>
      </trkpt>
      <trkpt lat="46.18098" lon="-1.29052">
        <ele>5.2</ele>
        <time>2020-06-02T07:47:39Z</time>
      </trkpt>
      <trkpt lat="46.18096" lon="-1.2905">
        <ele>5.2</ele>
        <time>2020-06-02T07:47:40Z</time>
      </trkpt>
      <trkpt lat="46.18093" lon="-1.29047">
        <ele>5.2</ele>
        <time>2020-06-02T07:47:41Z</time>
      </trkpt>
      <trkpt lat="46.1809" lon="-1.29044">
        <ele>5.1</ele>
        <time>2020-06-02T07:47:42Z</time>
      </trkpt>
      <trkpt lat="46.18087" lon="-1.29041">
        <ele>5.1</ele>
        <time>2020-06-02T07:47:43Z</time>
      </trkpt>
      <trkpt lat="46.18085" lon="-1.29037">
        <ele>5.1</ele>
        <time>2020-06-02T07:47:44Z</time>
      </trkpt>
      <trkpt lat="46.18081" lon="-1.29033">
        <ele>5</ele>
        <time>2020-06-02T07:47:45Z</time>
      </trkpt>
      <trkpt lat="46.18078" lon="-1.29031">
        <ele>5</ele>
        <time>2020-06-02T07:47:46Z</time>
      </trkpt>
      <trkpt lat="46.18075" lon="-1.29028">
        <ele>5</ele>
        <time>2020-06-02T07:47:47Z</time>
      </trkpt>
      <trkpt lat="46.18072" lon="-1.29026">
        <ele>4.9</ele>
        <time>2020-06-02T07:47:48Z</time>
      </trkpt>
      <trkpt lat="46.18069" lon="-1.29022">
        <ele>4.9</ele>
        <time>2020-06-02T07:47:49Z</time>
      </trkpt>
      <trkpt lat="46.18066" lon="-1.29019">
        <ele>4.9</ele>
        <time>2020-06-02T07:47:50Z</time>
      </trkpt>
      <trkpt lat="46.18063" lon="-1.29017">
        <ele>4.8</ele>
        <time>2020-06-02T07:47:51Z</time>
      </trkpt>
      <trkpt lat="46.1806" lon="-1.29014">
        <ele>4.8</ele>
        <time>2020-06-02T07:47:52Z</time>
      </trkpt>
      <trkpt lat="46.18057" lon="-1.2901">
        <ele>4.8</ele>
        <time>2020-06-02T07:47:53Z</time>
      </trkpt>
      <trkpt lat="46.18054" lon="-1.29008">
        <ele>4.7</ele>
        <time>2020-06-02T07:47:54Z</time>
      </trkpt>
      <trkpt lat="46.1805" lon="-1.29005">
        <ele>4.7</ele>
        <time>2020-06-02T07:47:55Z</time>
      </trkpt>
      <trkpt lat="46.18046" lon="-1.29002">
        <ele>4.7</ele>
        <time>2020-06-02T07:47:56Z</time>
      </trkpt>
      <trkpt lat="46.18042" lon="-1.28999">
        <ele>4.6</ele>
        <time>2020-06-02T07:47:57Z</time>
      </trkpt>
      <trkpt lat="46.18039" lon="-1.28995">
        <ele>4.6</ele>
        <time>2020-06-02T07:47:58Z</time>
      </trkpt>
      <trkpt lat="46.18036" lon="-1.28992">
        <ele>4.6</ele>
        <time>2020-06-02T07:47:59Z</time>
      </trkpt>
      <trkpt lat="46.18032" lon="-1.2899">
        <ele>4.6</ele>
        <time>2020-06-02T07:48:00Z</time>
      </trkpt>
      <trkpt lat="46.18028" lon="-1.28986">
        <ele>4.6</ele>
        <time>2020-06-02T07:48:01Z</time>
      </trkpt>
      <trkpt lat="46.18025" lon="-1.28984">
        <ele>4.6</ele>
        <time>2020-06-02T07:48:02Z</time>
      </trkpt>
      <trkpt lat="46.18021" lon="-1.2898">
        <ele>4.6</ele>
        <time>2020-06-02T07:48:03Z</time>
      </trkpt>
      <trkpt lat="46.18017" lon="-1.28976">
        <ele>4.6</ele>
        <time>2020-06-02T07:48:04Z</time>
      </trkpt>
      <trkpt lat="46.18013" lon="-1.28972">
        <ele>4.6</ele>
        <time>2020-06-02T07:48:05Z</time>
      </trkpt>
      <trkpt lat="46.1801" lon="-1.28969">
        <ele>4.6</ele>
        <time>2020-06-02T07:48:06Z</time>
      </trkpt>
      <trkpt lat="46.18007" lon="-1.28967">
        <ele>4.6</ele>
        <time>2020-06-02T07:48:07Z</time>
      </trkpt>
      <trkpt lat="46.18003" lon="-1.28964">
        <ele>4.6</ele>
        <time>2020-06-02T07:48:08Z</time>
      </trkpt>
      <trkpt lat="46.18" lon="-1.28961">
        <ele>4.6</ele>
        <time>2020-06-02T07:48:09Z</time>
      </trkpt>
      <trkpt lat="46.17996" lon="-1.28958">
        <ele>4.6</ele>
        <time>2020-06-02T07:48:10Z</time>
      </trkpt>
      <trkpt lat="46.17993" lon="-1.28954">
        <ele>4.6</ele>
        <time>2020-06-02T07:48:11Z</time>
      </trkpt>
      <trkpt lat="46.17991" lon="-1.28953">
        <ele>4.5</ele>
        <time>2020-06-02T07:48:12Z</time>
      </trkpt>
      <trkpt lat="46.17987" lon="-1.28952">
        <ele>4.5</ele>
        <time>2020-06-02T07:48:13Z</time>
      </trkpt>
      <trkpt lat="46.17985" lon="-1.28952">
        <ele>4.5</ele>
        <time>2020-06-02T07:48:14Z</time>
      </trkpt>
      <trkpt lat="46.17982" lon="-1.28953">
        <ele>4.5</ele>
        <time>2020-06-02T07:48:15Z</time>
      </trkpt>
      <trkpt lat="46.1798" lon="-1.28951">
        <ele>4.5</ele>
        <time>2020-06-02T07:48:16Z</time>
      </trkpt>
      <trkpt lat="46.17979" lon="-1.2895">
        <ele>4.5</ele>
        <time>2020-06-02T07:48:17Z</time>
      </trkpt>
      <trkpt lat="46.17979" lon="-1.2895">
        <ele>4.5</ele>
        <time>2020-06-02T07:48:18Z</time>
      </trkpt>
      <trkpt lat="46.17979" lon="-1.28948">
        <ele>4.5</ele>
        <time>2020-06-02T07:48:19Z</time>
      </trkpt>
      <trkpt lat="46.17979" lon="-1.28948">
        <ele>4.5</ele>
        <time>2020-06-02T07:48:20Z</time>
      </trkpt>
      <trkpt lat="46.17979" lon="-1.28947">
        <ele>4.5</ele>
        <time>2020-06-02T07:48:21Z</time>
      </trkpt>
      <trkpt lat="46.17978" lon="-1.28947">
        <ele>4.5</ele>
        <time>2020-06-02T07:48:22Z</time>
      </trkpt>
      <trkpt lat="46.17978" lon="-1.28946">
        <ele>4.5</ele>
        <time>2020-06-02T07:48:23Z</time>
      </trkpt>
      <trkpt lat="46.17978" lon="-1.28946">
        <ele>4.5</ele>
        <time>2020-06-02T07:48:24Z</time>
      </trkpt>
      <trkpt lat="46.17978" lon="-1.28945">
        <ele>4.5</ele>
        <time>2020-06-02T07:48:25Z</time>
      </trkpt>
      <trkpt lat="46.17978" lon="-1.28945">
        <ele>4.5</ele>
        <time>2020-06-02T07:48:26Z</time>
      </trkpt>
      <trkpt lat="46.17978" lon="-1.28944">
        <ele>4.5</ele>
        <time>2020-06-02T07:48:27Z</time>
      </trkpt>
      <trkpt lat="46.17978" lon="-1.28944">
        <ele>4.5</ele>
        <time>2020-06-02T07:48:28Z</time>
      </trkpt>
      <trkpt lat="46.17977" lon="-1.28939">
        <ele>4.5</ele>
        <time>2020-06-02T07:48:29Z</time>
      </trkpt>
      <trkpt lat="46.17976" lon="-1.28938">
        <ele>4.5</ele>
        <time>2020-06-02T07:48:30Z</time>
      </trkpt>
      <trkpt lat="46.17974" lon="-1.28936">
        <ele>4.5</ele>
        <time>2020-06-02T07:48:31Z</time>
      </trkpt>
      <trkpt lat="46.17973" lon="-1.28935">
        <ele>4.5</ele>
        <time>2020-06-02T07:48:32Z</time>
      </trkpt>
      <trkpt lat="46.17969" lon="-1.28931">
        <ele>4.4</ele>
        <time>2020-06-02T07:48:33Z</time>
      </trkpt>
      <trkpt lat="46.17968" lon="-1.2893">
        <ele>4.4</ele>
        <time>2020-06-02T07:48:34Z</time>
      </trkpt>
      <trkpt lat="46.17965" lon="-1.28928">
        <ele>4.4</ele>
        <time>2020-06-02T07:48:35Z</time>
      </trkpt>
      <trkpt lat="46.17962" lon="-1.28926">
        <ele>4.4</ele>
        <time>2020-06-02T07:48:36Z</time>
      </trkpt>
      <trkpt lat="46.17959" lon="-1.28923">
        <ele>4.4</ele>
        <time>2020-06-02T07:48:37Z</time>
      </trkpt>
      <trkpt lat="46.17955" lon="-1.2892">
        <ele>4.4</ele>
        <time>2020-06-02T07:48:38Z</time>
      </trkpt>
      <trkpt lat="46.17951" lon="-1.28918">
        <ele>4.4</ele>
        <time>2020-06-02T07:48:39Z</time>
      </trkpt>
      <trkpt lat="46.17946" lon="-1.28915">
        <ele>4.4</ele>
        <time>2020-06-02T07:48:40Z</time>
      </trkpt>
      <trkpt lat="46.17942" lon="-1.28912">
        <ele>4.4</ele>
        <time>2020-06-02T07:48:41Z</time>
      </trkpt>
      <trkpt lat="46.17938" lon="-1.2891">
        <ele>4.4</ele>
        <time>2020-06-02T07:48:42Z</time>
      </trkpt>
      <trkpt lat="46.17933" lon="-1.28908">
        <ele>4.4</ele>
        <time>2020-06-02T07:48:43Z</time>
      </trkpt>
      <trkpt lat="46.1793" lon="-1.28905">
        <ele>4.5</ele>
        <time>2020-06-02T07:48:44Z</time>
      </trkpt>
      <trkpt lat="46.17927" lon="-1.28903">
        <ele>4.5</ele>
        <time>2020-06-02T07:48:45Z</time>
      </trkpt>
      <trkpt lat="46.17923" lon="-1.28901">
        <ele>4.5</ele>
        <time>2020-06-02T07:48:46Z</time>
      </trkpt>
      <trkpt lat="46.17919" lon="-1.289">
        <ele>4.5</ele>
        <time>2020-06-02T07:48:47Z</time>
      </trkpt>
      <trkpt lat="46.17915" lon="-1.28897">
        <ele>4.5</ele>
        <time>2020-06-02T07:48:48Z</time>
      </trkpt>
      <trkpt lat="46.17912" lon="-1.28894">
        <ele>4.5</ele>
        <time>2020-06-02T07:48:49Z</time>
      </trkpt>
      <trkpt lat="46.17908" lon="-1.28891">
        <ele>4.5</ele>
        <time>2020-06-02T07:48:50Z</time>
      </trkpt>
      <trkpt lat="46.17904" lon="-1.28889">
        <ele>4.5</ele>
        <time>2020-06-02T07:48:51Z</time>
      </trkpt>
      <trkpt lat="46.179" lon="-1.28886">
        <ele>4.5</ele>
        <time>2020-06-02T07:48:52Z</time>
      </trkpt>
      <trkpt lat="46.17896" lon="-1.28883">
        <ele>4.5</ele>
        <time>2020-06-02T07:48:53Z</time>
      </trkpt>
      <trkpt lat="46.17893" lon="-1.28881">
        <ele>4.6</ele>
        <time>2020-06-02T07:48:54Z</time>
      </trkpt>
      <trkpt lat="46.17889" lon="-1.28883">
        <ele>4.6</ele>
        <time>2020-06-02T07:48:55Z</time>
      </trkpt>
      <trkpt lat="46.17887" lon="-1.28886">
        <ele>4.6</ele>
        <time>2020-06-02T07:48:56Z</time>
      </trkpt>
      <trkpt lat="46.17885" lon="-1.28889">
        <ele>4.6</ele>
        <time>2020-06-02T07:48:57Z</time>
      </trkpt>
      <trkpt lat="46.17882" lon="-1.28892">
        <ele>4.6</ele>
        <time>2020-06-02T07:48:58Z</time>
      </trkpt>
      <trkpt lat="46.17879" lon="-1.28894">
        <ele>4.6</ele>
        <time>2020-06-02T07:48:59Z</time>
      </trkpt>
      <trkpt lat="46.17875" lon="-1.28896">
        <ele>4.6</ele>
        <time>2020-06-02T07:49:00Z</time>
      </trkpt>
      <trkpt lat="46.17872" lon="-1.28898">
        <ele>4.6</ele>
        <time>2020-06-02T07:49:01Z</time>
      </trkpt>
      <trkpt lat="46.17869" lon="-1.28901">
        <ele>4.6</ele>
        <time>2020-06-02T07:49:02Z</time>
      </trkpt>
      <trkpt lat="46.17865" lon="-1.28905">
        <ele>4.5</ele>
        <time>2020-06-02T07:49:03Z</time>
      </trkpt>
      <trkpt lat="46.17862" lon="-1.28908">
        <ele>4.5</ele>
        <time>2020-06-02T07:49:04Z</time>
      </trkpt>
      <trkpt lat="46.17858" lon="-1.28912">
        <ele>4.4</ele>
        <time>2020-06-02T07:49:05Z</time>
      </trkpt>
      <trkpt lat="46.17854" lon="-1.28915">
        <ele>4.4</ele>
        <time>2020-06-02T07:49:06Z</time>
      </trkpt>
      <trkpt lat="46.1785" lon="-1.28918">
        <ele>4.3</ele>
        <time>2020-06-02T07:49:07Z</time>
      </trkpt>
      <trkpt lat="46.17846" lon="-1.28921">
        <ele>4.2</ele>
        <time>2020-06-02T07:49:08Z</time>
      </trkpt>
      <trkpt lat="46.17842" lon="-1.28924">
        <ele>4.1</ele>
        <time>2020-06-02T07:49:09Z</time>
      </trkpt>
      <trkpt lat="46.17838" lon="-1.28926">
        <ele>4</ele>
        <time>2020-06-02T07:49:10Z</time>
      </trkpt>
      <trkpt lat="46.17835" lon="-1.28929">
        <ele>3.9</ele>
        <time>2020-06-02T07:49:11Z</time>
      </trkpt>
      <trkpt lat="46.17832" lon="-1.28932">
        <ele>3.8</ele>
        <time>2020-06-02T07:49:12Z</time>
      </trkpt>
      <trkpt lat="46.17829" lon="-1.28934">
        <ele>3.8</ele>
        <time>2020-06-02T07:49:13Z</time>
      </trkpt>
      <trkpt lat="46.17827" lon="-1.28936">
        <ele>3.7</ele>
        <time>2020-06-02T07:49:14Z</time>
      </trkpt>
      <trkpt lat="46.17824" lon="-1.28939">
        <ele>3.7</ele>
        <time>2020-06-02T07:49:15Z</time>
      </trkpt>
      <trkpt lat="46.17824" lon="-1.28941">
        <ele>3.6</ele>
        <time>2020-06-02T07:49:16Z</time>
      </trkpt>
      <trkpt lat="46.1782" lon="-1.28944">
        <ele>3.6</ele>
        <time>2020-06-02T07:49:17Z</time>
      </trkpt>
      <trkpt lat="46.17819" lon="-1.28945">
        <ele>3.6</ele>
        <time>2020-06-02T07:49:18Z</time>
      </trkpt>
      <trkpt lat="46.17817" lon="-1.28946">
        <ele>3.5</ele>
        <time>2020-06-02T07:49:19Z</time>
      </trkpt>
      <trkpt lat="46.17814" lon="-1.28949">
        <ele>3.5</ele>
        <time>2020-06-02T07:49:20Z</time>
      </trkpt>
      <trkpt lat="46.17812" lon="-1.2895">
        <ele>3.5</ele>
        <time>2020-06-02T07:49:21Z</time>
      </trkpt>
      <trkpt lat="46.17809" lon="-1.2895">
        <ele>3.5</ele>
        <time>2020-06-02T07:49:22Z</time>
      </trkpt>
      <trkpt lat="46.17807" lon="-1.2895">
        <ele>3.5</ele>
        <time>2020-06-02T07:49:23Z</time>
      </trkpt>
      <trkpt lat="46.17804" lon="-1.28947">
        <ele>3.5</ele>
        <time>2020-06-02T07:49:24Z</time>
      </trkpt>
      <trkpt lat="46.17803" lon="-1.28946">
        <ele>3.5</ele>
        <time>2020-06-02T07:49:25Z</time>
      </trkpt>
      <trkpt lat="46.178" lon="-1.28945">
        <ele>3.5</ele>
        <time>2020-06-02T07:49:26Z</time>
      </trkpt>
      <trkpt lat="46.17797" lon="-1.28943">
        <ele>3.5</ele>
        <time>2020-06-02T07:49:27Z</time>
      </trkpt>
      <trkpt lat="46.17795" lon="-1.28941">
        <ele>3.6</ele>
        <time>2020-06-02T07:49:28Z</time>
      </trkpt>
      <trkpt lat="46.17791" lon="-1.28939">
        <ele>3.6</ele>
        <time>2020-06-02T07:49:29Z</time>
      </trkpt>
      <trkpt lat="46.1779" lon="-1.28939">
        <ele>3.6</ele>
        <time>2020-06-02T07:49:30Z</time>
      </trkpt>
      <trkpt lat="46.17786" lon="-1.28938">
        <ele>3.6</ele>
        <time>2020-06-02T07:49:31Z</time>
      </trkpt>
      <trkpt lat="46.17784" lon="-1.28939">
        <ele>3.6</ele>
        <time>2020-06-02T07:49:32Z</time>
      </trkpt>
      <trkpt lat="46.1778" lon="-1.28939">
        <ele>3.6</ele>
        <time>2020-06-02T07:49:33Z</time>
      </trkpt>
      <trkpt lat="46.17776" lon="-1.28936">
        <ele>3.6</ele>
        <time>2020-06-02T07:49:34Z</time>
      </trkpt>
      <trkpt lat="46.17772" lon="-1.28934">
        <ele>3.6</ele>
        <time>2020-06-02T07:49:35Z</time>
      </trkpt>
      <trkpt lat="46.17768" lon="-1.2893">
        <ele>3.7</ele>
        <time>2020-06-02T07:49:36Z</time>
      </trkpt>
      <trkpt lat="46.17763" lon="-1.28926">
        <ele>3.7</ele>
        <time>2020-06-02T07:49:37Z</time>
      </trkpt>
      <trkpt lat="46.17758" lon="-1.28922">
        <ele>3.8</ele>
        <time>2020-06-02T07:49:38Z</time>
      </trkpt>
      <trkpt lat="46.17752" lon="-1.28919">
        <ele>3.8</ele>
        <time>2020-06-02T07:49:39Z</time>
      </trkpt>
      <trkpt lat="46.17747" lon="-1.28915">
        <ele>3.8</ele>
        <time>2020-06-02T07:49:40Z</time>
      </trkpt>
      <trkpt lat="46.17741" lon="-1.2891">
        <ele>3.8</ele>
        <time>2020-06-02T07:49:41Z</time>
      </trkpt>
      <trkpt lat="46.17735" lon="-1.28905">
        <ele>3.9</ele>
        <time>2020-06-02T07:49:42Z</time>
      </trkpt>
      <trkpt lat="46.17729" lon="-1.289">
        <ele>3.9</ele>
        <time>2020-06-02T07:49:43Z</time>
      </trkpt>
      <trkpt lat="46.17723" lon="-1.28896">
        <ele>4</ele>
        <time>2020-06-02T07:49:44Z</time>
      </trkpt>
      <trkpt lat="46.17717" lon="-1.28893">
        <ele>4.1</ele>
        <time>2020-06-02T07:49:45Z</time>
      </trkpt>
      <trkpt lat="46.17712" lon="-1.28888">
        <ele>4.3</ele>
        <time>2020-06-02T07:49:46Z</time>
      </trkpt>
      <trkpt lat="46.17707" lon="-1.28883">
        <ele>4.4</ele>
        <time>2020-06-02T07:49:47Z</time>
      </trkpt>
      <trkpt lat="46.17702" lon="-1.28879">
        <ele>4.6</ele>
        <time>2020-06-02T07:49:48Z</time>
      </trkpt>
      <trkpt lat="46.17696" lon="-1.28875">
        <ele>4.7</ele>
        <time>2020-06-02T07:49:49Z</time>
      </trkpt>
      <trkpt lat="46.17691" lon="-1.28871">
        <ele>4.8</ele>
        <time>2020-06-02T07:49:50Z</time>
      </trkpt>
      <trkpt lat="46.17686" lon="-1.28868">
        <ele>4.8</ele>
        <time>2020-06-02T07:49:51Z</time>
      </trkpt>
      <trkpt lat="46.17681" lon="-1.28864">
        <ele>4.9</ele>
        <time>2020-06-02T07:49:52Z</time>
      </trkpt>
      <trkpt lat="46.17676" lon="-1.28859">
        <ele>5.1</ele>
        <time>2020-06-02T07:49:53Z</time>
      </trkpt>
      <trkpt lat="46.1767" lon="-1.28854">
        <ele>5.2</ele>
        <time>2020-06-02T07:49:54Z</time>
      </trkpt>
      <trkpt lat="46.17664" lon="-1.28848">
        <ele>5.3</ele>
        <time>2020-06-02T07:49:55Z</time>
      </trkpt>
      <trkpt lat="46.17659" lon="-1.28844">
        <ele>5.4</ele>
        <time>2020-06-02T07:49:56Z</time>
      </trkpt>
      <trkpt lat="46.17653" lon="-1.2884">
        <ele>5.5</ele>
        <time>2020-06-02T07:49:57Z</time>
      </trkpt>
      <trkpt lat="46.17648" lon="-1.28836">
        <ele>5.5</ele>
        <time>2020-06-02T07:49:58Z</time>
      </trkpt>
      <trkpt lat="46.17643" lon="-1.28831">
        <ele>5.5</ele>
        <time>2020-06-02T07:49:59Z</time>
      </trkpt>
      <trkpt lat="46.17638" lon="-1.28826">
        <ele>5.6</ele>
        <time>2020-06-02T07:50:00Z</time>
      </trkpt>
      <trkpt lat="46.17634" lon="-1.28822">
        <ele>5.6</ele>
        <time>2020-06-02T07:50:01Z</time>
      </trkpt>
      <trkpt lat="46.17628" lon="-1.28818">
        <ele>5.6</ele>
        <time>2020-06-02T07:50:02Z</time>
      </trkpt>
      <trkpt lat="46.17621" lon="-1.28814">
        <ele>5.6</ele>
        <time>2020-06-02T07:50:03Z</time>
      </trkpt>
      <trkpt lat="46.17615" lon="-1.28809">
        <ele>5.7</ele>
        <time>2020-06-02T07:50:04Z</time>
      </trkpt>
      <trkpt lat="46.17609" lon="-1.28804">
        <ele>5.7</ele>
        <time>2020-06-02T07:50:05Z</time>
      </trkpt>
      <trkpt lat="46.17603" lon="-1.28799">
        <ele>5.7</ele>
        <time>2020-06-02T07:50:06Z</time>
      </trkpt>
      <trkpt lat="46.17597" lon="-1.28795">
        <ele>5.7</ele>
        <time>2020-06-02T07:50:07Z</time>
      </trkpt>
      <trkpt lat="46.17591" lon="-1.2879">
        <ele>5.7</ele>
        <time>2020-06-02T07:50:08Z</time>
      </trkpt>
      <trkpt lat="46.17584" lon="-1.28784">
        <ele>5.7</ele>
        <time>2020-06-02T07:50:09Z</time>
      </trkpt>
      <trkpt lat="46.17579" lon="-1.28779">
        <ele>5.7</ele>
        <time>2020-06-02T07:50:10Z</time>
      </trkpt>
      <trkpt lat="46.17572" lon="-1.28773">
        <ele>5.7</ele>
        <time>2020-06-02T07:50:11Z</time>
      </trkpt>
      <trkpt lat="46.17567" lon="-1.28768">
        <ele>5.7</ele>
        <time>2020-06-02T07:50:12Z</time>
      </trkpt>
      <trkpt lat="46.17561" lon="-1.28762">
        <ele>5.7</ele>
        <time>2020-06-02T07:50:13Z</time>
      </trkpt>
      <trkpt lat="46.17555" lon="-1.28757">
        <ele>5.7</ele>
        <time>2020-06-02T07:50:14Z</time>
      </trkpt>
      <trkpt lat="46.17547" lon="-1.2875">
        <ele>5.7</ele>
        <time>2020-06-02T07:50:15Z</time>
      </trkpt>
      <trkpt lat="46.17541" lon="-1.28745">
        <ele>5.8</ele>
        <time>2020-06-02T07:50:16Z</time>
      </trkpt>
      <trkpt lat="46.17536" lon="-1.28741">
        <ele>5.8</ele>
        <time>2020-06-02T07:50:17Z</time>
      </trkpt>
      <trkpt lat="46.1753" lon="-1.28737">
        <ele>5.8</ele>
        <time>2020-06-02T07:50:18Z</time>
      </trkpt>
      <trkpt lat="46.17524" lon="-1.28732">
        <ele>5.9</ele>
        <time>2020-06-02T07:50:19Z</time>
      </trkpt>
      <trkpt lat="46.17516" lon="-1.28727">
        <ele>5.9</ele>
        <time>2020-06-02T07:50:20Z</time>
      </trkpt>
      <trkpt lat="46.17508" lon="-1.28721">
        <ele>5.9</ele>
        <time>2020-06-02T07:50:21Z</time>
      </trkpt>
      <trkpt lat="46.17504" lon="-1.28716">
        <ele>5.9</ele>
        <time>2020-06-02T07:50:22Z</time>
      </trkpt>
      <trkpt lat="46.17498" lon="-1.2871">
        <ele>5.9</ele>
        <time>2020-06-02T07:50:23Z</time>
      </trkpt>
      <trkpt lat="46.17493" lon="-1.28704">
        <ele>6</ele>
        <time>2020-06-02T07:50:24Z</time>
      </trkpt>
      <trkpt lat="46.17486" lon="-1.28698">
        <ele>6</ele>
        <time>2020-06-02T07:50:25Z</time>
      </trkpt>
      <trkpt lat="46.17479" lon="-1.28692">
        <ele>6</ele>
        <time>2020-06-02T07:50:26Z</time>
      </trkpt>
      <trkpt lat="46.17473" lon="-1.28686">
        <ele>6</ele>
        <time>2020-06-02T07:50:27Z</time>
      </trkpt>
      <trkpt lat="46.17466" lon="-1.2868">
        <ele>6</ele>
        <time>2020-06-02T07:50:28Z</time>
      </trkpt>
      <trkpt lat="46.1746" lon="-1.28675">
        <ele>6.1</ele>
        <time>2020-06-02T07:50:29Z</time>
      </trkpt>
      <trkpt lat="46.17453" lon="-1.28671">
        <ele>6.1</ele>
        <time>2020-06-02T07:50:30Z</time>
      </trkpt>
      <trkpt lat="46.17446" lon="-1.28666">
        <ele>6.1</ele>
        <time>2020-06-02T07:50:31Z</time>
      </trkpt>
      <trkpt lat="46.1744" lon="-1.28661">
        <ele>6.2</ele>
        <time>2020-06-02T07:50:32Z</time>
      </trkpt>
      <trkpt lat="46.17434" lon="-1.28656">
        <ele>6.2</ele>
        <time>2020-06-02T07:50:33Z</time>
      </trkpt>
      <trkpt lat="46.17428" lon="-1.28651">
        <ele>6.2</ele>
        <time>2020-06-02T07:50:34Z</time>
      </trkpt>
      <trkpt lat="46.17422" lon="-1.28648">
        <ele>6.3</ele>
        <time>2020-06-02T07:50:35Z</time>
      </trkpt>
      <trkpt lat="46.17415" lon="-1.28643">
        <ele>6.3</ele>
        <time>2020-06-02T07:50:36Z</time>
      </trkpt>
      <trkpt lat="46.17408" lon="-1.28638">
        <ele>6.3</ele>
        <time>2020-06-02T07:50:37Z</time>
      </trkpt>
      <trkpt lat="46.17401" lon="-1.28634">
        <ele>6.3</ele>
        <time>2020-06-02T07:50:38Z</time>
      </trkpt>
      <trkpt lat="46.17395" lon="-1.28629">
        <ele>6.4</ele>
        <time>2020-06-02T07:50:39Z</time>
      </trkpt>
      <trkpt lat="46.17388" lon="-1.28623">
        <ele>6.4</ele>
        <time>2020-06-02T07:50:40Z</time>
      </trkpt>
      <trkpt lat="46.17382" lon="-1.28618">
        <ele>6.4</ele>
        <time>2020-06-02T07:50:41Z</time>
      </trkpt>
      <trkpt lat="46.17375" lon="-1.28612">
        <ele>6.4</ele>
        <time>2020-06-02T07:50:42Z</time>
      </trkpt>
      <trkpt lat="46.17369" lon="-1.28607">
        <ele>6.5</ele>
        <time>2020-06-02T07:50:43Z</time>
      </trkpt>
      <trkpt lat="46.17362" lon="-1.28602">
        <ele>6.5</ele>
        <time>2020-06-02T07:50:44Z</time>
      </trkpt>
      <trkpt lat="46.17356" lon="-1.28596">
        <ele>6.5</ele>
        <time>2020-06-02T07:50:45Z</time>
      </trkpt>
      <trkpt lat="46.1735" lon="-1.28591">
        <ele>6.5</ele>
        <time>2020-06-02T07:50:46Z</time>
      </trkpt>
      <trkpt lat="46.17343" lon="-1.28586">
        <ele>6.4</ele>
        <time>2020-06-02T07:50:47Z</time>
      </trkpt>
      <trkpt lat="46.17338" lon="-1.2858">
        <ele>6.4</ele>
        <time>2020-06-02T07:50:48Z</time>
      </trkpt>
      <trkpt lat="46.17332" lon="-1.28576">
        <ele>6.4</ele>
        <time>2020-06-02T07:50:49Z</time>
      </trkpt>
      <trkpt lat="46.17326" lon="-1.28571">
        <ele>6.4</ele>
        <time>2020-06-02T07:50:50Z</time>
      </trkpt>
      <trkpt lat="46.17321" lon="-1.28567">
        <ele>6.4</ele>
        <time>2020-06-02T07:50:51Z</time>
      </trkpt>
      <trkpt lat="46.17315" lon="-1.28561">
        <ele>6.4</ele>
        <time>2020-06-02T07:50:52Z</time>
      </trkpt>
      <trkpt lat="46.17309" lon="-1.28556">
        <ele>6.4</ele>
        <time>2020-06-02T07:50:53Z</time>
      </trkpt>
      <trkpt lat="46.17303" lon="-1.2855">
        <ele>6.4</ele>
        <time>2020-06-02T07:50:54Z</time>
      </trkpt>
      <trkpt lat="46.17297" lon="-1.28545">
        <ele>6.4</ele>
        <time>2020-06-02T07:50:55Z</time>
      </trkpt>
      <trkpt lat="46.1729" lon="-1.28539">
        <ele>6.4</ele>
        <time>2020-06-02T07:50:56Z</time>
      </trkpt>
      <trkpt lat="46.17284" lon="-1.28534">
        <ele>6.4</ele>
        <time>2020-06-02T07:50:57Z</time>
      </trkpt>
      <trkpt lat="46.17278" lon="-1.28529">
        <ele>6.4</ele>
        <time>2020-06-02T07:50:58Z</time>
      </trkpt>
      <trkpt lat="46.17272" lon="-1.28523">
        <ele>6.4</ele>
        <time>2020-06-02T07:50:59Z</time>
      </trkpt>
      <trkpt lat="46.17265" lon="-1.28518">
        <ele>6.4</ele>
        <time>2020-06-02T07:51:00Z</time>
      </trkpt>
      <trkpt lat="46.17258" lon="-1.28513">
        <ele>6.4</ele>
        <time>2020-06-02T07:51:01Z</time>
      </trkpt>
      <trkpt lat="46.17251" lon="-1.28508">
        <ele>6.3</ele>
        <time>2020-06-02T07:51:02Z</time>
      </trkpt>
      <trkpt lat="46.17245" lon="-1.28504">
        <ele>6.3</ele>
        <time>2020-06-02T07:51:03Z</time>
      </trkpt>
      <trkpt lat="46.17238" lon="-1.28499">
        <ele>6.3</ele>
        <time>2020-06-02T07:51:04Z</time>
      </trkpt>
      <trkpt lat="46.17232" lon="-1.28494">
        <ele>6.3</ele>
        <time>2020-06-02T07:51:05Z</time>
      </trkpt>
      <trkpt lat="46.17225" lon="-1.28488">
        <ele>6.3</ele>
        <time>2020-06-02T07:51:06Z</time>
      </trkpt>
      <trkpt lat="46.17218" lon="-1.28484">
        <ele>6.3</ele>
        <time>2020-06-02T07:51:07Z</time>
      </trkpt>
      <trkpt lat="46.17212" lon="-1.28478">
        <ele>6.3</ele>
        <time>2020-06-02T07:51:08Z</time>
      </trkpt>
      <trkpt lat="46.17205" lon="-1.28473">
        <ele>6.2</ele>
        <time>2020-06-02T07:51:09Z</time>
      </trkpt>
      <trkpt lat="46.17197" lon="-1.28467">
        <ele>6.2</ele>
        <time>2020-06-02T07:51:10Z</time>
      </trkpt>
      <trkpt lat="46.1719" lon="-1.28463">
        <ele>6.2</ele>
        <time>2020-06-02T07:51:11Z</time>
      </trkpt>
      <trkpt lat="46.17183" lon="-1.28458">
        <ele>6.1</ele>
        <time>2020-06-02T07:51:12Z</time>
      </trkpt>
      <trkpt lat="46.17176" lon="-1.28452">
        <ele>6</ele>
        <time>2020-06-02T07:51:13Z</time>
      </trkpt>
      <trkpt lat="46.1717" lon="-1.28447">
        <ele>6</ele>
        <time>2020-06-02T07:51:14Z</time>
      </trkpt>
      <trkpt lat="46.17163" lon="-1.28442">
        <ele>5.9</ele>
        <time>2020-06-02T07:51:15Z</time>
      </trkpt>
      <trkpt lat="46.17157" lon="-1.28437">
        <ele>5.8</ele>
        <time>2020-06-02T07:51:16Z</time>
      </trkpt>
      <trkpt lat="46.17151" lon="-1.28432">
        <ele>5.8</ele>
        <time>2020-06-02T07:51:17Z</time>
      </trkpt>
      <trkpt lat="46.17144" lon="-1.28427">
        <ele>5.7</ele>
        <time>2020-06-02T07:51:18Z</time>
      </trkpt>
      <trkpt lat="46.17137" lon="-1.28418">
        <ele>5.6</ele>
        <time>2020-06-02T07:51:19Z</time>
      </trkpt>
      <trkpt lat="46.1713" lon="-1.28413">
        <ele>5.5</ele>
        <time>2020-06-02T07:51:20Z</time>
      </trkpt>
      <trkpt lat="46.17123" lon="-1.28407">
        <ele>5.4</ele>
        <time>2020-06-02T07:51:21Z</time>
      </trkpt>
      <trkpt lat="46.17116" lon="-1.28401">
        <ele>5.3</ele>
        <time>2020-06-02T07:51:22Z</time>
      </trkpt>
      <trkpt lat="46.17109" lon="-1.28396">
        <ele>5.2</ele>
        <time>2020-06-02T07:51:23Z</time>
      </trkpt>
      <trkpt lat="46.17103" lon="-1.28391">
        <ele>5.1</ele>
        <time>2020-06-02T07:51:24Z</time>
      </trkpt>
      <trkpt lat="46.17095" lon="-1.28386">
        <ele>5</ele>
        <time>2020-06-02T07:51:25Z</time>
      </trkpt>
      <trkpt lat="46.17089" lon="-1.28381">
        <ele>5</ele>
        <time>2020-06-02T07:51:26Z</time>
      </trkpt>
      <trkpt lat="46.17082" lon="-1.28376">
        <ele>4.9</ele>
        <time>2020-06-02T07:51:27Z</time>
      </trkpt>
      <trkpt lat="46.17075" lon="-1.28371">
        <ele>4.8</ele>
        <time>2020-06-02T07:51:28Z</time>
      </trkpt>
      <trkpt lat="46.17069" lon="-1.28366">
        <ele>4.8</ele>
        <time>2020-06-02T07:51:29Z</time>
      </trkpt>
      <trkpt lat="46.17062" lon="-1.28361">
        <ele>4.7</ele>
        <time>2020-06-02T07:51:30Z</time>
      </trkpt>
      <trkpt lat="46.17055" lon="-1.28355">
        <ele>4.7</ele>
        <time>2020-06-02T07:51:31Z</time>
      </trkpt>
      <trkpt lat="46.17049" lon="-1.2835">
        <ele>4.7</ele>
        <time>2020-06-02T07:51:32Z</time>
      </trkpt>
      <trkpt lat="46.17041" lon="-1.28344">
        <ele>4.5</ele>
        <time>2020-06-02T07:51:33Z</time>
      </trkpt>
      <trkpt lat="46.17035" lon="-1.28339">
        <ele>4.4</ele>
        <time>2020-06-02T07:51:34Z</time>
      </trkpt>
      <trkpt lat="46.17028" lon="-1.28334">
        <ele>4.4</ele>
        <time>2020-06-02T07:51:35Z</time>
      </trkpt>
      <trkpt lat="46.17021" lon="-1.28328">
        <ele>4.3</ele>
        <time>2020-06-02T07:51:36Z</time>
      </trkpt>
      <trkpt lat="46.17015" lon="-1.28323">
        <ele>4.2</ele>
        <time>2020-06-02T07:51:37Z</time>
      </trkpt>
      <trkpt lat="46.17008" lon="-1.28317">
        <ele>4.1</ele>
        <time>2020-06-02T07:51:38Z</time>
      </trkpt>
      <trkpt lat="46.17002" lon="-1.28312">
        <ele>4</ele>
        <time>2020-06-02T07:51:39Z</time>
      </trkpt>
      <trkpt lat="46.16995" lon="-1.28307">
        <ele>3.9</ele>
        <time>2020-06-02T07:51:40Z</time>
      </trkpt>
      <trkpt lat="46.16989" lon="-1.28302">
        <ele>3.8</ele>
        <time>2020-06-02T07:51:41Z</time>
      </trkpt>
      <trkpt lat="46.16982" lon="-1.28297">
        <ele>3.8</ele>
        <time>2020-06-02T07:51:42Z</time>
      </trkpt>
      <trkpt lat="46.16975" lon="-1.28292">
        <ele>3.7</ele>
        <time>2020-06-02T07:51:43Z</time>
      </trkpt>
      <trkpt lat="46.16969" lon="-1.28286">
        <ele>3.7</ele>
        <time>2020-06-02T07:51:44Z</time>
      </trkpt>
      <trkpt lat="46.16962" lon="-1.28283">
        <ele>3.7</ele>
        <time>2020-06-02T07:51:45Z</time>
      </trkpt>
      <trkpt lat="46.16954" lon="-1.28282">
        <ele>3.7</ele>
        <time>2020-06-02T07:51:46Z</time>
      </trkpt>
      <trkpt lat="46.16947" lon="-1.28283">
        <ele>3.7</ele>
        <time>2020-06-02T07:51:47Z</time>
      </trkpt>
      <trkpt lat="46.16939" lon="-1.28284">
        <ele>3.6</ele>
        <time>2020-06-02T07:51:48Z</time>
      </trkpt>
      <trkpt lat="46.16931" lon="-1.28286">
        <ele>3.6</ele>
        <time>2020-06-02T07:51:49Z</time>
      </trkpt>
      <trkpt lat="46.16924" lon="-1.28289">
        <ele>3.5</ele>
        <time>2020-06-02T07:51:50Z</time>
      </trkpt>
      <trkpt lat="46.16917" lon="-1.28293">
        <ele>3.5</ele>
        <time>2020-06-02T07:51:51Z</time>
      </trkpt>
      <trkpt lat="46.1691" lon="-1.28297">
        <ele>3.5</ele>
        <time>2020-06-02T07:51:52Z</time>
      </trkpt>
      <trkpt lat="46.16903" lon="-1.28302">
        <ele>3.4</ele>
        <time>2020-06-02T07:51:53Z</time>
      </trkpt>
      <trkpt lat="46.16896" lon="-1.28306">
        <ele>3.4</ele>
        <time>2020-06-02T07:51:54Z</time>
      </trkpt>
      <trkpt lat="46.16889" lon="-1.2831">
        <ele>3.4</ele>
        <time>2020-06-02T07:51:55Z</time>
      </trkpt>
      <trkpt lat="46.16883" lon="-1.28314">
        <ele>3.4</ele>
        <time>2020-06-02T07:51:56Z</time>
      </trkpt>
      <trkpt lat="46.16876" lon="-1.28317">
        <ele>3.4</ele>
        <time>2020-06-02T07:51:57Z</time>
      </trkpt>
      <trkpt lat="46.16869" lon="-1.28321">
        <ele>3.5</ele>
        <time>2020-06-02T07:51:58Z</time>
      </trkpt>
      <trkpt lat="46.16862" lon="-1.28324">
        <ele>3.6</ele>
        <time>2020-06-02T07:51:59Z</time>
      </trkpt>
      <trkpt lat="46.16856" lon="-1.28327">
        <ele>3.7</ele>
        <time>2020-06-02T07:52:00Z</time>
      </trkpt>
      <trkpt lat="46.16849" lon="-1.28329">
        <ele>3.8</ele>
        <time>2020-06-02T07:52:01Z</time>
      </trkpt>
      <trkpt lat="46.16843" lon="-1.2833">
        <ele>3.9</ele>
        <time>2020-06-02T07:52:02Z</time>
      </trkpt>
      <trkpt lat="46.16836" lon="-1.28331">
        <ele>3.9</ele>
        <time>2020-06-02T07:52:03Z</time>
      </trkpt>
      <trkpt lat="46.16829" lon="-1.28332">
        <ele>4</ele>
        <time>2020-06-02T07:52:04Z</time>
      </trkpt>
      <trkpt lat="46.16824" lon="-1.28332">
        <ele>3.9</ele>
        <time>2020-06-02T07:52:05Z</time>
      </trkpt>
      <trkpt lat="46.16819" lon="-1.28332">
        <ele>3.9</ele>
        <time>2020-06-02T07:52:06Z</time>
      </trkpt>
      <trkpt lat="46.16814" lon="-1.28332">
        <ele>3.9</ele>
        <time>2020-06-02T07:52:07Z</time>
      </trkpt>
      <trkpt lat="46.16811" lon="-1.28333">
        <ele>3.9</ele>
        <time>2020-06-02T07:52:08Z</time>
      </trkpt>
      <trkpt lat="46.16807" lon="-1.28332">
        <ele>3.9</ele>
        <time>2020-06-02T07:52:09Z</time>
      </trkpt>
      <trkpt lat="46.16803" lon="-1.28331">
        <ele>3.9</ele>
        <time>2020-06-02T07:52:10Z</time>
      </trkpt>
      <trkpt lat="46.168" lon="-1.2833">
        <ele>3.9</ele>
        <time>2020-06-02T07:52:11Z</time>
      </trkpt>
      <trkpt lat="46.16797" lon="-1.28328">
        <ele>3.9</ele>
        <time>2020-06-02T07:52:12Z</time>
      </trkpt>
      <trkpt lat="46.16794" lon="-1.28328">
        <ele>3.9</ele>
        <time>2020-06-02T07:52:13Z</time>
      </trkpt>
      <trkpt lat="46.1679" lon="-1.28327">
        <ele>3.9</ele>
        <time>2020-06-02T07:52:14Z</time>
      </trkpt>
      <trkpt lat="46.16787" lon="-1.28326">
        <ele>3.9</ele>
        <time>2020-06-02T07:52:15Z</time>
      </trkpt>
      <trkpt lat="46.16783" lon="-1.28325">
        <ele>3.9</ele>
        <time>2020-06-02T07:52:16Z</time>
      </trkpt>
      <trkpt lat="46.16779" lon="-1.28324">
        <ele>3.9</ele>
        <time>2020-06-02T07:52:17Z</time>
      </trkpt>
      <trkpt lat="46.16775" lon="-1.28322">
        <ele>3.9</ele>
        <time>2020-06-02T07:52:18Z</time>
      </trkpt>
      <trkpt lat="46.16772" lon="-1.2832">
        <ele>3.9</ele>
        <time>2020-06-02T07:52:19Z</time>
      </trkpt>
      <trkpt lat="46.16769" lon="-1.28317">
        <ele>4</ele>
        <time>2020-06-02T07:52:20Z</time>
      </trkpt>
      <trkpt lat="46.16768" lon="-1.28312">
        <ele>4</ele>
        <time>2020-06-02T07:52:21Z</time>
      </trkpt>
      <trkpt lat="46.16767" lon="-1.28311">
        <ele>4</ele>
        <time>2020-06-02T07:52:22Z</time>
      </trkpt>
      <trkpt lat="46.16766" lon="-1.28307">
        <ele>4</ele>
        <time>2020-06-02T07:52:23Z</time>
      </trkpt>
      <trkpt lat="46.16763" lon="-1.28304">
        <ele>3.9</ele>
        <time>2020-06-02T07:52:24Z</time>
      </trkpt>
      <trkpt lat="46.16761" lon="-1.28304">
        <ele>3.9</ele>
        <time>2020-06-02T07:52:25Z</time>
      </trkpt>
      <trkpt lat="46.16758" lon="-1.28303">
        <ele>3.9</ele>
        <time>2020-06-02T07:52:26Z</time>
      </trkpt>
      <trkpt lat="46.16756" lon="-1.283">
        <ele>3.9</ele>
        <time>2020-06-02T07:52:27Z</time>
      </trkpt>
      <trkpt lat="46.16752" lon="-1.28298">
        <ele>3.9</ele>
        <time>2020-06-02T07:52:28Z</time>
      </trkpt>
      <trkpt lat="46.16749" lon="-1.28296">
        <ele>3.9</ele>
        <time>2020-06-02T07:52:29Z</time>
      </trkpt>
      <trkpt lat="46.16745" lon="-1.28294">
        <ele>3.9</ele>
        <time>2020-06-02T07:52:30Z</time>
      </trkpt>
      <trkpt lat="46.16742" lon="-1.28291">
        <ele>3.9</ele>
        <time>2020-06-02T07:52:31Z</time>
      </trkpt>
      <trkpt lat="46.16738" lon="-1.28288">
        <ele>3.9</ele>
        <time>2020-06-02T07:52:32Z</time>
      </trkpt>
      <trkpt lat="46.16735" lon="-1.28286">
        <ele>3.9</ele>
        <time>2020-06-02T07:52:33Z</time>
      </trkpt>
      <trkpt lat="46.16731" lon="-1.28283">
        <ele>3.9</ele>
        <time>2020-06-02T07:52:34Z</time>
      </trkpt>
      <trkpt lat="46.16727" lon="-1.2828">
        <ele>3.9</ele>
        <time>2020-06-02T07:52:35Z</time>
      </trkpt>
      <trkpt lat="46.16723" lon="-1.28277">
        <ele>3.9</ele>
        <time>2020-06-02T07:52:36Z</time>
      </trkpt>
      <trkpt lat="46.16719" lon="-1.28273">
        <ele>3.9</ele>
        <time>2020-06-02T07:52:37Z</time>
      </trkpt>
      <trkpt lat="46.16715" lon="-1.2827">
        <ele>3.9</ele>
        <time>2020-06-02T07:52:38Z</time>
      </trkpt>
      <trkpt lat="46.16711" lon="-1.28266">
        <ele>3.9</ele>
        <time>2020-06-02T07:52:39Z</time>
      </trkpt>
      <trkpt lat="46.16707" lon="-1.28263">
        <ele>3.9</ele>
        <time>2020-06-02T07:52:40Z</time>
      </trkpt>
      <trkpt lat="46.16703" lon="-1.2826">
        <ele>3.9</ele>
        <time>2020-06-02T07:52:41Z</time>
      </trkpt>
      <trkpt lat="46.16699" lon="-1.28257">
        <ele>3.9</ele>
        <time>2020-06-02T07:52:42Z</time>
      </trkpt>
      <trkpt lat="46.16695" lon="-1.28254">
        <ele>3.8</ele>
        <time>2020-06-02T07:52:43Z</time>
      </trkpt>
      <trkpt lat="46.16691" lon="-1.2825">
        <ele>3.8</ele>
        <time>2020-06-02T07:52:44Z</time>
      </trkpt>
      <trkpt lat="46.16687" lon="-1.28247">
        <ele>3.8</ele>
        <time>2020-06-02T07:52:45Z</time>
      </trkpt>
      <trkpt lat="46.16683" lon="-1.28244">
        <ele>3.8</ele>
        <time>2020-06-02T07:52:46Z</time>
      </trkpt>
      <trkpt lat="46.16679" lon="-1.28241">
        <ele>3.8</ele>
        <time>2020-06-02T07:52:47Z</time>
      </trkpt>
      <trkpt lat="46.16675" lon="-1.28238">
        <ele>3.8</ele>
        <time>2020-06-02T07:52:48Z</time>
      </trkpt>
      <trkpt lat="46.16671" lon="-1.28235">
        <ele>3.8</ele>
        <time>2020-06-02T07:52:49Z</time>
      </trkpt>
      <trkpt lat="46.16667" lon="-1.28232">
        <ele>3.8</ele>
        <time>2020-06-02T07:52:50Z</time>
      </trkpt>
      <trkpt lat="46.16663" lon="-1.28228">
        <ele>3.8</ele>
        <time>2020-06-02T07:52:51Z</time>
      </trkpt>
      <trkpt lat="46.16659" lon="-1.28225">
        <ele>3.8</ele>
        <time>2020-06-02T07:52:52Z</time>
      </trkpt>
      <trkpt lat="46.16656" lon="-1.28221">
        <ele>3.8</ele>
        <time>2020-06-02T07:52:53Z</time>
      </trkpt>
      <trkpt lat="46.16652" lon="-1.28218">
        <ele>3.8</ele>
        <time>2020-06-02T07:52:54Z</time>
      </trkpt>
      <trkpt lat="46.16648" lon="-1.28214">
        <ele>3.8</ele>
        <time>2020-06-02T07:52:55Z</time>
      </trkpt>
      <trkpt lat="46.16645" lon="-1.28211">
        <ele>3.8</ele>
        <time>2020-06-02T07:52:56Z</time>
      </trkpt>
      <trkpt lat="46.16641" lon="-1.28207">
        <ele>3.8</ele>
        <time>2020-06-02T07:52:57Z</time>
      </trkpt>
      <trkpt lat="46.16637" lon="-1.28204">
        <ele>3.8</ele>
        <time>2020-06-02T07:52:58Z</time>
      </trkpt>
      <trkpt lat="46.16634" lon="-1.282">
        <ele>3.8</ele>
        <time>2020-06-02T07:52:59Z</time>
      </trkpt>
      <trkpt lat="46.16631" lon="-1.28197">
        <ele>3.8</ele>
        <time>2020-06-02T07:53:00Z</time>
      </trkpt>
      <trkpt lat="46.16627" lon="-1.28194">
        <ele>3.8</ele>
        <time>2020-06-02T07:53:01Z</time>
      </trkpt>
      <trkpt lat="46.16623" lon="-1.28191">
        <ele>3.8</ele>
        <time>2020-06-02T07:53:02Z</time>
      </trkpt>
      <trkpt lat="46.16619" lon="-1.28188">
        <ele>3.8</ele>
        <time>2020-06-02T07:53:03Z</time>
      </trkpt>
      <trkpt lat="46.16614" lon="-1.28186">
        <ele>3.8</ele>
        <time>2020-06-02T07:53:04Z</time>
      </trkpt>
      <trkpt lat="46.1661" lon="-1.28185">
        <ele>3.8</ele>
        <time>2020-06-02T07:53:05Z</time>
      </trkpt>
      <trkpt lat="46.16605" lon="-1.28183">
        <ele>3.8</ele>
        <time>2020-06-02T07:53:06Z</time>
      </trkpt>
      <trkpt lat="46.16601" lon="-1.28181">
        <ele>3.8</ele>
        <time>2020-06-02T07:53:07Z</time>
      </trkpt>
      <trkpt lat="46.16597" lon="-1.2818">
        <ele>3.9</ele>
        <time>2020-06-02T07:53:08Z</time>
      </trkpt>
      <trkpt lat="46.16593" lon="-1.28178">
        <ele>3.9</ele>
        <time>2020-06-02T07:53:09Z</time>
      </trkpt>
      <trkpt lat="46.16588" lon="-1.28176">
        <ele>3.9</ele>
        <time>2020-06-02T07:53:10Z</time>
      </trkpt>
      <trkpt lat="46.16583" lon="-1.28176">
        <ele>3.9</ele>
        <time>2020-06-02T07:53:11Z</time>
      </trkpt>
      <trkpt lat="46.16579" lon="-1.28175">
        <ele>3.9</ele>
        <time>2020-06-02T07:53:12Z</time>
      </trkpt>
      <trkpt lat="46.16574" lon="-1.28177">
        <ele>3.9</ele>
        <time>2020-06-02T07:53:13Z</time>
      </trkpt>
      <trkpt lat="46.1657" lon="-1.28178">
        <ele>3.9</ele>
        <time>2020-06-02T07:53:14Z</time>
      </trkpt>
      <trkpt lat="46.16565" lon="-1.28178">
        <ele>4</ele>
        <time>2020-06-02T07:53:15Z</time>
      </trkpt>
      <trkpt lat="46.16561" lon="-1.28178">
        <ele>4</ele>
        <time>2020-06-02T07:53:16Z</time>
      </trkpt>
      <trkpt lat="46.16556" lon="-1.28178">
        <ele>4</ele>
        <time>2020-06-02T07:53:17Z</time>
      </trkpt>
      <trkpt lat="46.16552" lon="-1.28178">
        <ele>4</ele>
        <time>2020-06-02T07:53:18Z</time>
      </trkpt>
      <trkpt lat="46.16547" lon="-1.28179">
        <ele>4</ele>
        <time>2020-06-02T07:53:19Z</time>
      </trkpt>
      <trkpt lat="46.16543" lon="-1.28179">
        <ele>4</ele>
        <time>2020-06-02T07:53:20Z</time>
      </trkpt>
      <trkpt lat="46.16538" lon="-1.28178">
        <ele>4</ele>
        <time>2020-06-02T07:53:21Z</time>
      </trkpt>
      <trkpt lat="46.16534" lon="-1.28179">
        <ele>4.1</ele>
        <time>2020-06-02T07:53:22Z</time>
      </trkpt>
      <trkpt lat="46.16529" lon="-1.28179">
        <ele>4.1</ele>
        <time>2020-06-02T07:53:23Z</time>
      </trkpt>
      <trkpt lat="46.16524" lon="-1.28179">
        <ele>4.1</ele>
        <time>2020-06-02T07:53:24Z</time>
      </trkpt>
      <trkpt lat="46.16519" lon="-1.28179">
        <ele>4.1</ele>
        <time>2020-06-02T07:53:25Z</time>
      </trkpt>
      <trkpt lat="46.16514" lon="-1.28179">
        <ele>4.1</ele>
        <time>2020-06-02T07:53:26Z</time>
      </trkpt>
      <trkpt lat="46.16509" lon="-1.28179">
        <ele>4.1</ele>
        <time>2020-06-02T07:53:27Z</time>
      </trkpt>
      <trkpt lat="46.16505" lon="-1.28179">
        <ele>4.1</ele>
        <time>2020-06-02T07:53:28Z</time>
      </trkpt>
      <trkpt lat="46.165" lon="-1.28178">
        <ele>4.1</ele>
        <time>2020-06-02T07:53:29Z</time>
      </trkpt>
      <trkpt lat="46.16496" lon="-1.28177">
        <ele>4</ele>
        <time>2020-06-02T07:53:30Z</time>
      </trkpt>
      <trkpt lat="46.16491" lon="-1.28176">
        <ele>4</ele>
        <time>2020-06-02T07:53:31Z</time>
      </trkpt>
      <trkpt lat="46.16487" lon="-1.28176">
        <ele>4</ele>
        <time>2020-06-02T07:53:32Z</time>
      </trkpt>
      <trkpt lat="46.16482" lon="-1.28176">
        <ele>4</ele>
        <time>2020-06-02T07:53:33Z</time>
      </trkpt>
      <trkpt lat="46.16479" lon="-1.28176">
        <ele>4</ele>
        <time>2020-06-02T07:53:34Z</time>
      </trkpt>
      <trkpt lat="46.16475" lon="-1.28175">
        <ele>3.9</ele>
        <time>2020-06-02T07:53:35Z</time>
      </trkpt>
      <trkpt lat="46.16472" lon="-1.28173">
        <ele>3.9</ele>
        <time>2020-06-02T07:53:36Z</time>
      </trkpt>
      <trkpt lat="46.16469" lon="-1.28171">
        <ele>3.9</ele>
        <time>2020-06-02T07:53:37Z</time>
      </trkpt>
      <trkpt lat="46.16465" lon="-1.2817">
        <ele>3.9</ele>
        <time>2020-06-02T07:53:38Z</time>
      </trkpt>
      <trkpt lat="46.16463" lon="-1.28166">
        <ele>3.9</ele>
        <time>2020-06-02T07:53:39Z</time>
      </trkpt>
      <trkpt lat="46.16462" lon="-1.28161">
        <ele>3.9</ele>
        <time>2020-06-02T07:53:40Z</time>
      </trkpt>
      <trkpt lat="46.1646" lon="-1.28156">
        <ele>3.8</ele>
        <time>2020-06-02T07:53:41Z</time>
      </trkpt>
      <trkpt lat="46.16458" lon="-1.28152">
        <ele>3.8</ele>
        <time>2020-06-02T07:53:42Z</time>
      </trkpt>
      <trkpt lat="46.16455" lon="-1.28147">
        <ele>3.8</ele>
        <time>2020-06-02T07:53:43Z</time>
      </trkpt>
      <trkpt lat="46.16452" lon="-1.28143">
        <ele>3.8</ele>
        <time>2020-06-02T07:53:44Z</time>
      </trkpt>
      <trkpt lat="46.16449" lon="-1.28139">
        <ele>3.8</ele>
        <time>2020-06-02T07:53:45Z</time>
      </trkpt>
      <trkpt lat="46.16446" lon="-1.28136">
        <ele>3.8</ele>
        <time>2020-06-02T07:53:46Z</time>
      </trkpt>
      <trkpt lat="46.16444" lon="-1.28133">
        <ele>3.8</ele>
        <time>2020-06-02T07:53:47Z</time>
      </trkpt>
      <trkpt lat="46.16441" lon="-1.2813">
        <ele>3.8</ele>
        <time>2020-06-02T07:53:48Z</time>
      </trkpt>
      <trkpt lat="46.16438" lon="-1.28127">
        <ele>3.8</ele>
        <time>2020-06-02T07:53:49Z</time>
      </trkpt>
      <trkpt lat="46.16436" lon="-1.28124">
        <ele>3.8</ele>
        <time>2020-06-02T07:53:50Z</time>
      </trkpt>
      <trkpt lat="46.16433" lon="-1.28121">
        <ele>3.8</ele>
        <time>2020-06-02T07:53:51Z</time>
      </trkpt>
      <trkpt lat="46.16431" lon="-1.28118">
        <ele>3.8</ele>
        <time>2020-06-02T07:53:52Z</time>
      </trkpt>
      <trkpt lat="46.16429" lon="-1.28116">
        <ele>3.8</ele>
        <time>2020-06-02T07:53:53Z</time>
      </trkpt>
      <trkpt lat="46.16427" lon="-1.28112">
        <ele>3.8</ele>
        <time>2020-06-02T07:53:54Z</time>
      </trkpt>
      <trkpt lat="46.16425" lon="-1.2811">
        <ele>3.8</ele>
        <time>2020-06-02T07:53:55Z</time>
      </trkpt>
      <trkpt lat="46.16422" lon="-1.28107">
        <ele>3.8</ele>
        <time>2020-06-02T07:53:56Z</time>
      </trkpt>
      <trkpt lat="46.16419" lon="-1.28105">
        <ele>3.8</ele>
        <time>2020-06-02T07:53:57Z</time>
      </trkpt>
      <trkpt lat="46.16417" lon="-1.28102">
        <ele>3.8</ele>
        <time>2020-06-02T07:53:58Z</time>
      </trkpt>
      <trkpt lat="46.16414" lon="-1.281">
        <ele>3.8</ele>
        <time>2020-06-02T07:53:59Z</time>
      </trkpt>
      <trkpt lat="46.16411" lon="-1.28097">
        <ele>3.8</ele>
        <time>2020-06-02T07:54:00Z</time>
      </trkpt>
      <trkpt lat="46.16409" lon="-1.28094">
        <ele>3.8</ele>
        <time>2020-06-02T07:54:01Z</time>
      </trkpt>
      <trkpt lat="46.16406" lon="-1.28091">
        <ele>3.8</ele>
        <time>2020-06-02T07:54:02Z</time>
      </trkpt>
      <trkpt lat="46.16403" lon="-1.28088">
        <ele>3.8</ele>
        <time>2020-06-02T07:54:03Z</time>
      </trkpt>
      <trkpt lat="46.164" lon="-1.28084">
        <ele>3.8</ele>
        <time>2020-06-02T07:54:04Z</time>
      </trkpt>
      <trkpt lat="46.16397" lon="-1.2808">
        <ele>3.8</ele>
        <time>2020-06-02T07:54:05Z</time>
      </trkpt>
      <trkpt lat="46.16394" lon="-1.28076">
        <ele>3.8</ele>
        <time>2020-06-02T07:54:06Z</time>
      </trkpt>
      <trkpt lat="46.16393" lon="-1.2807">
        <ele>3.8</ele>
        <time>2020-06-02T07:54:07Z</time>
      </trkpt>
      <trkpt lat="46.1639" lon="-1.28066">
        <ele>3.8</ele>
        <time>2020-06-02T07:54:08Z</time>
      </trkpt>
      <trkpt lat="46.16387" lon="-1.28062">
        <ele>3.8</ele>
        <time>2020-06-02T07:54:09Z</time>
      </trkpt>
      <trkpt lat="46.16385" lon="-1.28057">
        <ele>3.8</ele>
        <time>2020-06-02T07:54:10Z</time>
      </trkpt>
      <trkpt lat="46.16381" lon="-1.28053">
        <ele>3.8</ele>
        <time>2020-06-02T07:54:11Z</time>
      </trkpt>
      <trkpt lat="46.16379" lon="-1.28049">
        <ele>3.8</ele>
        <time>2020-06-02T07:54:12Z</time>
      </trkpt>
      <trkpt lat="46.16376" lon="-1.28044">
        <ele>3.8</ele>
        <time>2020-06-02T07:54:13Z</time>
      </trkpt>
      <trkpt lat="46.16375" lon="-1.28039">
        <ele>3.8</ele>
        <time>2020-06-02T07:54:14Z</time>
      </trkpt>
      <trkpt lat="46.16372" lon="-1.28033">
        <ele>3.8</ele>
        <time>2020-06-02T07:54:15Z</time>
      </trkpt>
      <trkpt lat="46.16369" lon="-1.28027">
        <ele>3.9</ele>
        <time>2020-06-02T07:54:16Z</time>
      </trkpt>
      <trkpt lat="46.16366" lon="-1.28023">
        <ele>3.9</ele>
        <time>2020-06-02T07:54:17Z</time>
      </trkpt>
      <trkpt lat="46.16363" lon="-1.28018">
        <ele>3.9</ele>
        <time>2020-06-02T07:54:18Z</time>
      </trkpt>
      <trkpt lat="46.1636" lon="-1.28012">
        <ele>3.9</ele>
        <time>2020-06-02T07:54:19Z</time>
      </trkpt>
      <trkpt lat="46.16357" lon="-1.28008">
        <ele>3.9</ele>
        <time>2020-06-02T07:54:20Z</time>
      </trkpt>
      <trkpt lat="46.16354" lon="-1.28004">
        <ele>3.9</ele>
        <time>2020-06-02T07:54:21Z</time>
      </trkpt>
      <trkpt lat="46.16351" lon="-1.27999">
        <ele>3.9</ele>
        <time>2020-06-02T07:54:22Z</time>
      </trkpt>
      <trkpt lat="46.16349" lon="-1.27994">
        <ele>3.9</ele>
        <time>2020-06-02T07:54:23Z</time>
      </trkpt>
      <trkpt lat="46.16346" lon="-1.27989">
        <ele>3.9</ele>
        <time>2020-06-02T07:54:24Z</time>
      </trkpt>
      <trkpt lat="46.16343" lon="-1.27982">
        <ele>3.9</ele>
        <time>2020-06-02T07:54:25Z</time>
      </trkpt>
      <trkpt lat="46.1634" lon="-1.27976">
        <ele>3.9</ele>
        <time>2020-06-02T07:54:26Z</time>
      </trkpt>
      <trkpt lat="46.16337" lon="-1.27971">
        <ele>3.9</ele>
        <time>2020-06-02T07:54:27Z</time>
      </trkpt>
      <trkpt lat="46.16333" lon="-1.27965">
        <ele>3.9</ele>
        <time>2020-06-02T07:54:28Z</time>
      </trkpt>
      <trkpt lat="46.1633" lon="-1.2796">
        <ele>3.9</ele>
        <time>2020-06-02T07:54:29Z</time>
      </trkpt>
      <trkpt lat="46.16328" lon="-1.27956">
        <ele>3.9</ele>
        <time>2020-06-02T07:54:30Z</time>
      </trkpt>
      <trkpt lat="46.16326" lon="-1.27953">
        <ele>3.9</ele>
        <time>2020-06-02T07:54:31Z</time>
      </trkpt>
      <trkpt lat="46.16324" lon="-1.27948">
        <ele>3.9</ele>
        <time>2020-06-02T07:54:32Z</time>
      </trkpt>
      <trkpt lat="46.16321" lon="-1.27944">
        <ele>3.9</ele>
        <time>2020-06-02T07:54:33Z</time>
      </trkpt>
      <trkpt lat="46.1632" lon="-1.27943">
        <ele>3.8</ele>
        <time>2020-06-02T07:54:34Z</time>
      </trkpt>
      <trkpt lat="46.16318" lon="-1.27939">
        <ele>3.8</ele>
        <time>2020-06-02T07:54:35Z</time>
      </trkpt>
      <trkpt lat="46.16316" lon="-1.27936">
        <ele>3.8</ele>
        <time>2020-06-02T07:54:36Z</time>
      </trkpt>
      <trkpt lat="46.16314" lon="-1.27932">
        <ele>3.8</ele>
        <time>2020-06-02T07:54:37Z</time>
      </trkpt>
      <trkpt lat="46.16311" lon="-1.27928">
        <ele>3.8</ele>
        <time>2020-06-02T07:54:38Z</time>
      </trkpt>
      <trkpt lat="46.16309" lon="-1.27924">
        <ele>3.8</ele>
        <time>2020-06-02T07:54:39Z</time>
      </trkpt>
      <trkpt lat="46.16307" lon="-1.2792">
        <ele>3.8</ele>
        <time>2020-06-02T07:54:40Z</time>
      </trkpt>
      <trkpt lat="46.16304" lon="-1.27916">
        <ele>3.8</ele>
        <time>2020-06-02T07:54:41Z</time>
      </trkpt>
      <trkpt lat="46.16302" lon="-1.27911">
        <ele>3.8</ele>
        <time>2020-06-02T07:54:42Z</time>
      </trkpt>
      <trkpt lat="46.16301" lon="-1.27909">
        <ele>3.8</ele>
        <time>2020-06-02T07:54:43Z</time>
      </trkpt>
      <trkpt lat="46.16299" lon="-1.27904">
        <ele>3.8</ele>
        <time>2020-06-02T07:54:44Z</time>
      </trkpt>
      <trkpt lat="46.16298" lon="-1.27898">
        <ele>3.8</ele>
        <time>2020-06-02T07:54:45Z</time>
      </trkpt>
      <trkpt lat="46.16297" lon="-1.27892">
        <ele>3.8</ele>
        <time>2020-06-02T07:54:46Z</time>
      </trkpt>
      <trkpt lat="46.16296" lon="-1.27885">
        <ele>3.8</ele>
        <time>2020-06-02T07:54:47Z</time>
      </trkpt>
      <trkpt lat="46.16294" lon="-1.2788">
        <ele>3.8</ele>
        <time>2020-06-02T07:54:48Z</time>
      </trkpt>
      <trkpt lat="46.16293" lon="-1.27875">
        <ele>3.8</ele>
        <time>2020-06-02T07:54:49Z</time>
      </trkpt>
      <trkpt lat="46.16293" lon="-1.27871">
        <ele>3.8</ele>
        <time>2020-06-02T07:54:50Z</time>
      </trkpt>
      <trkpt lat="46.16291" lon="-1.27864">
        <ele>3.8</ele>
        <time>2020-06-02T07:54:51Z</time>
      </trkpt>
      <trkpt lat="46.1629" lon="-1.27862">
        <ele>3.8</ele>
        <time>2020-06-02T07:54:52Z</time>
      </trkpt>
      <trkpt lat="46.16285" lon="-1.27854">
        <ele>3.8</ele>
        <time>2020-06-02T07:54:53Z</time>
      </trkpt>
      <trkpt lat="46.16281" lon="-1.27849">
        <ele>3.7</ele>
        <time>2020-06-02T07:54:54Z</time>
      </trkpt>
      <trkpt lat="46.16278" lon="-1.27845">
        <ele>3.7</ele>
        <time>2020-06-02T07:54:55Z</time>
      </trkpt>
      <trkpt lat="46.16273" lon="-1.27839">
        <ele>3.7</ele>
        <time>2020-06-02T07:54:56Z</time>
      </trkpt>
      <trkpt lat="46.16269" lon="-1.27835">
        <ele>3.7</ele>
        <time>2020-06-02T07:54:57Z</time>
      </trkpt>
      <trkpt lat="46.16266" lon="-1.2783">
        <ele>3.6</ele>
        <time>2020-06-02T07:54:58Z</time>
      </trkpt>
      <trkpt lat="46.16263" lon="-1.27826">
        <ele>3.6</ele>
        <time>2020-06-02T07:54:59Z</time>
      </trkpt>
      <trkpt lat="46.1626" lon="-1.27823">
        <ele>3.6</ele>
        <time>2020-06-02T07:55:00Z</time>
      </trkpt>
      <trkpt lat="46.16258" lon="-1.27818">
        <ele>3.6</ele>
        <time>2020-06-02T07:55:01Z</time>
      </trkpt>
      <trkpt lat="46.16254" lon="-1.27814">
        <ele>3.5</ele>
        <time>2020-06-02T07:55:02Z</time>
      </trkpt>
      <trkpt lat="46.1625" lon="-1.27808">
        <ele>3.5</ele>
        <time>2020-06-02T07:55:03Z</time>
      </trkpt>
      <trkpt lat="46.16246" lon="-1.27805">
        <ele>3.5</ele>
        <time>2020-06-02T07:55:04Z</time>
      </trkpt>
      <trkpt lat="46.16242" lon="-1.27801">
        <ele>3.4</ele>
        <time>2020-06-02T07:55:05Z</time>
      </trkpt>
      <trkpt lat="46.16239" lon="-1.27797">
        <ele>3.4</ele>
        <time>2020-06-02T07:55:06Z</time>
      </trkpt>
      <trkpt lat="46.16236" lon="-1.27792">
        <ele>3.4</ele>
        <time>2020-06-02T07:55:07Z</time>
      </trkpt>
      <trkpt lat="46.16233" lon="-1.27788">
        <ele>3.4</ele>
        <time>2020-06-02T07:55:08Z</time>
      </trkpt>
      <trkpt lat="46.1623" lon="-1.27784">
        <ele>3.4</ele>
        <time>2020-06-02T07:55:09Z</time>
      </trkpt>
      <trkpt lat="46.16225" lon="-1.27777">
        <ele>3.4</ele>
        <time>2020-06-02T07:55:10Z</time>
      </trkpt>
      <trkpt lat="46.16222" lon="-1.27772">
        <ele>3.4</ele>
        <time>2020-06-02T07:55:11Z</time>
      </trkpt>
      <trkpt lat="46.16218" lon="-1.27767">
        <ele>3.5</ele>
        <time>2020-06-02T07:55:12Z</time>
      </trkpt>
      <trkpt lat="46.16214" lon="-1.27762">
        <ele>3.5</ele>
        <time>2020-06-02T07:55:13Z</time>
      </trkpt>
      <trkpt lat="46.16211" lon="-1.27757">
        <ele>3.5</ele>
        <time>2020-06-02T07:55:14Z</time>
      </trkpt>
      <trkpt lat="46.16207" lon="-1.27753">
        <ele>3.6</ele>
        <time>2020-06-02T07:55:15Z</time>
      </trkpt>
      <trkpt lat="46.16204" lon="-1.27749">
        <ele>3.6</ele>
        <time>2020-06-02T07:55:16Z</time>
      </trkpt>
      <trkpt lat="46.16199" lon="-1.27745">
        <ele>3.7</ele>
        <time>2020-06-02T07:55:17Z</time>
      </trkpt>
      <trkpt lat="46.16196" lon="-1.2774">
        <ele>3.7</ele>
        <time>2020-06-02T07:55:18Z</time>
      </trkpt>
      <trkpt lat="46.16192" lon="-1.27734">
        <ele>3.8</ele>
        <time>2020-06-02T07:55:19Z</time>
      </trkpt>
      <trkpt lat="46.16188" lon="-1.2773">
        <ele>3.8</ele>
        <time>2020-06-02T07:55:20Z</time>
      </trkpt>
      <trkpt lat="46.16184" lon="-1.27726">
        <ele>3.9</ele>
        <time>2020-06-02T07:55:21Z</time>
      </trkpt>
      <trkpt lat="46.1618" lon="-1.27723">
        <ele>3.9</ele>
        <time>2020-06-02T07:55:22Z</time>
      </trkpt>
      <trkpt lat="46.16176" lon="-1.27719">
        <ele>4</ele>
        <time>2020-06-02T07:55:23Z</time>
      </trkpt>
      <trkpt lat="46.16171" lon="-1.27717">
        <ele>4</ele>
        <time>2020-06-02T07:55:24Z</time>
      </trkpt>
      <trkpt lat="46.16168" lon="-1.27713">
        <ele>4</ele>
        <time>2020-06-02T07:55:25Z</time>
      </trkpt>
      <trkpt lat="46.16165" lon="-1.2771">
        <ele>4.1</ele>
        <time>2020-06-02T07:55:26Z</time>
      </trkpt>
      <trkpt lat="46.16162" lon="-1.27707">
        <ele>4.1</ele>
        <time>2020-06-02T07:55:27Z</time>
      </trkpt>
      <trkpt lat="46.16159" lon="-1.27704">
        <ele>4.1</ele>
        <time>2020-06-02T07:55:28Z</time>
      </trkpt>
      <trkpt lat="46.16155" lon="-1.27701">
        <ele>4.1</ele>
        <time>2020-06-02T07:55:29Z</time>
      </trkpt>
      <trkpt lat="46.16152" lon="-1.27699">
        <ele>4.2</ele>
        <time>2020-06-02T07:55:30Z</time>
      </trkpt>
      <trkpt lat="46.16148" lon="-1.27696">
        <ele>4.2</ele>
        <time>2020-06-02T07:55:31Z</time>
      </trkpt>
      <trkpt lat="46.16144" lon="-1.27693">
        <ele>4.2</ele>
        <time>2020-06-02T07:55:32Z</time>
      </trkpt>
      <trkpt lat="46.16141" lon="-1.27692">
        <ele>4.2</ele>
        <time>2020-06-02T07:55:33Z</time>
      </trkpt>
      <trkpt lat="46.16138" lon="-1.2769">
        <ele>4.2</ele>
        <time>2020-06-02T07:55:34Z</time>
      </trkpt>
      <trkpt lat="46.16135" lon="-1.27691">
        <ele>4.3</ele>
        <time>2020-06-02T07:55:35Z</time>
      </trkpt>
      <trkpt lat="46.16131" lon="-1.2769">
        <ele>4.3</ele>
        <time>2020-06-02T07:55:36Z</time>
      </trkpt>
      <trkpt lat="46.16128" lon="-1.27688">
        <ele>4.2</ele>
        <time>2020-06-02T07:55:37Z</time>
      </trkpt>
      <trkpt lat="46.16125" lon="-1.27687">
        <ele>4.2</ele>
        <time>2020-06-02T07:55:38Z</time>
      </trkpt>
      <trkpt lat="46.16122" lon="-1.27686">
        <ele>4.2</ele>
        <time>2020-06-02T07:55:39Z</time>
      </trkpt>
      <trkpt lat="46.16119" lon="-1.27684">
        <ele>4.2</ele>
        <time>2020-06-02T07:55:40Z</time>
      </trkpt>
      <trkpt lat="46.16117" lon="-1.27683">
        <ele>4.1</ele>
        <time>2020-06-02T07:55:41Z</time>
      </trkpt>
      <trkpt lat="46.16115" lon="-1.27679">
        <ele>4.1</ele>
        <time>2020-06-02T07:55:42Z</time>
      </trkpt>
      <trkpt lat="46.16114" lon="-1.27678">
        <ele>4.1</ele>
        <time>2020-06-02T07:55:43Z</time>
      </trkpt>
      <trkpt lat="46.16112" lon="-1.27674">
        <ele>4.1</ele>
        <time>2020-06-02T07:55:44Z</time>
      </trkpt>
      <trkpt lat="46.1611" lon="-1.27671">
        <ele>4.1</ele>
        <time>2020-06-02T07:55:45Z</time>
      </trkpt>
      <trkpt lat="46.16108" lon="-1.27668">
        <ele>4</ele>
        <time>2020-06-02T07:55:46Z</time>
      </trkpt>
      <trkpt lat="46.16106" lon="-1.27664">
        <ele>4</ele>
        <time>2020-06-02T07:55:47Z</time>
      </trkpt>
      <trkpt lat="46.16104" lon="-1.27659">
        <ele>4</ele>
        <time>2020-06-02T07:55:48Z</time>
      </trkpt>
      <trkpt lat="46.16102" lon="-1.27656">
        <ele>4</ele>
        <time>2020-06-02T07:55:49Z</time>
      </trkpt>
      <trkpt lat="46.161" lon="-1.27652">
        <ele>4</ele>
        <time>2020-06-02T07:55:50Z</time>
      </trkpt>
      <trkpt lat="46.16098" lon="-1.27647">
        <ele>4</ele>
        <time>2020-06-02T07:55:51Z</time>
      </trkpt>
      <trkpt lat="46.16097" lon="-1.27643">
        <ele>3.9</ele>
        <time>2020-06-02T07:55:52Z</time>
      </trkpt>
      <trkpt lat="46.16094" lon="-1.27639">
        <ele>3.9</ele>
        <time>2020-06-02T07:55:53Z</time>
      </trkpt>
      <trkpt lat="46.16092" lon="-1.27634">
        <ele>3.9</ele>
        <time>2020-06-02T07:55:54Z</time>
      </trkpt>
      <trkpt lat="46.1609" lon="-1.2763">
        <ele>3.8</ele>
        <time>2020-06-02T07:55:55Z</time>
      </trkpt>
      <trkpt lat="46.16088" lon="-1.27627">
        <ele>3.8</ele>
        <time>2020-06-02T07:55:56Z</time>
      </trkpt>
      <trkpt lat="46.16086" lon="-1.27623">
        <ele>3.8</ele>
        <time>2020-06-02T07:55:57Z</time>
      </trkpt>
      <trkpt lat="46.16085" lon="-1.27618">
        <ele>3.7</ele>
        <time>2020-06-02T07:55:58Z</time>
      </trkpt>
      <trkpt lat="46.16083" lon="-1.27613">
        <ele>3.7</ele>
        <time>2020-06-02T07:55:59Z</time>
      </trkpt>
      <trkpt lat="46.1608" lon="-1.27608">
        <ele>3.7</ele>
        <time>2020-06-02T07:56:00Z</time>
      </trkpt>
      <trkpt lat="46.16077" lon="-1.27604">
        <ele>3.7</ele>
        <time>2020-06-02T07:56:01Z</time>
      </trkpt>
      <trkpt lat="46.16075" lon="-1.27599">
        <ele>3.7</ele>
        <time>2020-06-02T07:56:02Z</time>
      </trkpt>
      <trkpt lat="46.16074" lon="-1.27593">
        <ele>3.7</ele>
        <time>2020-06-02T07:56:03Z</time>
      </trkpt>
      <trkpt lat="46.16073" lon="-1.27588">
        <ele>3.7</ele>
        <time>2020-06-02T07:56:04Z</time>
      </trkpt>
      <trkpt lat="46.16072" lon="-1.27582">
        <ele>3.6</ele>
        <time>2020-06-02T07:56:05Z</time>
      </trkpt>
      <trkpt lat="46.1607" lon="-1.27577">
        <ele>3.6</ele>
        <time>2020-06-02T07:56:06Z</time>
      </trkpt>
      <trkpt lat="46.16067" lon="-1.27571">
        <ele>3.6</ele>
        <time>2020-06-02T07:56:07Z</time>
      </trkpt>
      <trkpt lat="46.16065" lon="-1.27566">
        <ele>3.6</ele>
        <time>2020-06-02T07:56:08Z</time>
      </trkpt>
      <trkpt lat="46.16062" lon="-1.2756">
        <ele>3.6</ele>
        <time>2020-06-02T07:56:09Z</time>
      </trkpt>
      <trkpt lat="46.1606" lon="-1.27554">
        <ele>3.6</ele>
        <time>2020-06-02T07:56:10Z</time>
      </trkpt>
      <trkpt lat="46.16057" lon="-1.27548">
        <ele>3.6</ele>
        <time>2020-06-02T07:56:11Z</time>
      </trkpt>
      <trkpt lat="46.16055" lon="-1.27543">
        <ele>3.6</ele>
        <time>2020-06-02T07:56:12Z</time>
      </trkpt>
      <trkpt lat="46.16053" lon="-1.27537">
        <ele>3.6</ele>
        <time>2020-06-02T07:56:13Z</time>
      </trkpt>
      <trkpt lat="46.16051" lon="-1.27531">
        <ele>3.6</ele>
        <time>2020-06-02T07:56:14Z</time>
      </trkpt>
      <trkpt lat="46.16049" lon="-1.27525">
        <ele>3.6</ele>
        <time>2020-06-02T07:56:15Z</time>
      </trkpt>
      <trkpt lat="46.16047" lon="-1.2752">
        <ele>3.6</ele>
        <time>2020-06-02T07:56:16Z</time>
      </trkpt>
      <trkpt lat="46.16046" lon="-1.27515">
        <ele>3.6</ele>
        <time>2020-06-02T07:56:17Z</time>
      </trkpt>
      <trkpt lat="46.16044" lon="-1.2751">
        <ele>3.6</ele>
        <time>2020-06-02T07:56:18Z</time>
      </trkpt>
      <trkpt lat="46.16042" lon="-1.27506">
        <ele>3.6</ele>
        <time>2020-06-02T07:56:19Z</time>
      </trkpt>
      <trkpt lat="46.16039" lon="-1.27502">
        <ele>3.6</ele>
        <time>2020-06-02T07:56:20Z</time>
      </trkpt>
      <trkpt lat="46.16038" lon="-1.27501">
        <ele>3.6</ele>
        <time>2020-06-02T07:56:21Z</time>
      </trkpt>
      <trkpt lat="46.16037" lon="-1.275">
        <ele>3.6</ele>
        <time>2020-06-02T07:56:22Z</time>
      </trkpt>
      <trkpt lat="46.16036" lon="-1.275">
        <ele>3.6</ele>
        <time>2020-06-02T07:56:23Z</time>
      </trkpt>
      <trkpt lat="46.16035" lon="-1.27499">
        <ele>3.6</ele>
        <time>2020-06-02T07:56:24Z</time>
      </trkpt>
      <trkpt lat="46.16033" lon="-1.27498">
        <ele>3.6</ele>
        <time>2020-06-02T07:56:25Z</time>
      </trkpt>
      <trkpt lat="46.1603" lon="-1.27496">
        <ele>3.6</ele>
        <time>2020-06-02T07:56:26Z</time>
      </trkpt>
      <trkpt lat="46.16029" lon="-1.27495">
        <ele>3.5</ele>
        <time>2020-06-02T07:56:27Z</time>
      </trkpt>
      <trkpt lat="46.16026" lon="-1.27493">
        <ele>3.5</ele>
        <time>2020-06-02T07:56:28Z</time>
      </trkpt>
      <trkpt lat="46.16023" lon="-1.27492">
        <ele>3.5</ele>
        <time>2020-06-02T07:56:29Z</time>
      </trkpt>
      <trkpt lat="46.16022" lon="-1.27488">
        <ele>3.5</ele>
        <time>2020-06-02T07:56:30Z</time>
      </trkpt>
      <trkpt lat="46.16021" lon="-1.27483">
        <ele>3.5</ele>
        <time>2020-06-02T07:56:31Z</time>
      </trkpt>
      <trkpt lat="46.16021" lon="-1.27478">
        <ele>3.5</ele>
        <time>2020-06-02T07:56:32Z</time>
      </trkpt>
      <trkpt lat="46.16022" lon="-1.27474">
        <ele>3.5</ele>
        <time>2020-06-02T07:56:33Z</time>
      </trkpt>
      <trkpt lat="46.16022" lon="-1.27469">
        <ele>3.6</ele>
        <time>2020-06-02T07:56:34Z</time>
      </trkpt>
      <trkpt lat="46.16022" lon="-1.27464">
        <ele>3.6</ele>
        <time>2020-06-02T07:56:35Z</time>
      </trkpt>
      <trkpt lat="46.16022" lon="-1.27462">
        <ele>3.6</ele>
        <time>2020-06-02T07:56:36Z</time>
      </trkpt>
      <trkpt lat="46.1602" lon="-1.27459">
        <ele>3.6</ele>
        <time>2020-06-02T07:56:37Z</time>
      </trkpt>
      <trkpt lat="46.1602" lon="-1.27458">
        <ele>3.6</ele>
        <time>2020-06-02T07:56:38Z</time>
      </trkpt>
      <trkpt lat="46.16018" lon="-1.27454">
        <ele>3.6</ele>
        <time>2020-06-02T07:56:39Z</time>
      </trkpt>
      <trkpt lat="46.16017" lon="-1.2745">
        <ele>3.6</ele>
        <time>2020-06-02T07:56:40Z</time>
      </trkpt>
      <trkpt lat="46.16016" lon="-1.27449">
        <ele>3.6</ele>
        <time>2020-06-02T07:56:41Z</time>
      </trkpt>
      <trkpt lat="46.16013" lon="-1.27445">
        <ele>3.6</ele>
        <time>2020-06-02T07:56:42Z</time>
      </trkpt>
      <trkpt lat="46.16012" lon="-1.27443">
        <ele>3.6</ele>
        <time>2020-06-02T07:56:43Z</time>
      </trkpt>
      <trkpt lat="46.16011" lon="-1.27439">
        <ele>3.6</ele>
        <time>2020-06-02T07:56:44Z</time>
      </trkpt>
      <trkpt lat="46.16008" lon="-1.27436">
        <ele>3.6</ele>
        <time>2020-06-02T07:56:45Z</time>
      </trkpt>
      <trkpt lat="46.16005" lon="-1.27432">
        <ele>3.6</ele>
        <time>2020-06-02T07:56:46Z</time>
      </trkpt>
      <trkpt lat="46.16003" lon="-1.27427">
        <ele>3.6</ele>
        <time>2020-06-02T07:56:47Z</time>
      </trkpt>
      <trkpt lat="46.16002" lon="-1.27426">
        <ele>3.6</ele>
        <time>2020-06-02T07:56:48Z</time>
      </trkpt>
      <trkpt lat="46.16" lon="-1.27422">
        <ele>3.6</ele>
        <time>2020-06-02T07:56:49Z</time>
      </trkpt>
      <trkpt lat="46.15998" lon="-1.27418">
        <ele>3.6</ele>
        <time>2020-06-02T07:56:50Z</time>
      </trkpt>
      <trkpt lat="46.15997" lon="-1.27414">
        <ele>3.6</ele>
        <time>2020-06-02T07:56:51Z</time>
      </trkpt>
      <trkpt lat="46.15995" lon="-1.2741">
        <ele>3.6</ele>
        <time>2020-06-02T07:56:52Z</time>
      </trkpt>
      <trkpt lat="46.15994" lon="-1.27404">
        <ele>3.6</ele>
        <time>2020-06-02T07:56:53Z</time>
      </trkpt>
      <trkpt lat="46.15993" lon="-1.27398">
        <ele>3.6</ele>
        <time>2020-06-02T07:56:54Z</time>
      </trkpt>
      <trkpt lat="46.15992" lon="-1.27393">
        <ele>3.6</ele>
        <time>2020-06-02T07:56:55Z</time>
      </trkpt>
      <trkpt lat="46.1599" lon="-1.27387">
        <ele>3.6</ele>
        <time>2020-06-02T07:56:56Z</time>
      </trkpt>
      <trkpt lat="46.1599" lon="-1.27381">
        <ele>3.6</ele>
        <time>2020-06-02T07:56:57Z</time>
      </trkpt>
      <trkpt lat="46.15988" lon="-1.27375">
        <ele>3.6</ele>
        <time>2020-06-02T07:56:58Z</time>
      </trkpt>
      <trkpt lat="46.15987" lon="-1.27369">
        <ele>3.6</ele>
        <time>2020-06-02T07:56:59Z</time>
      </trkpt>
      <trkpt lat="46.15986" lon="-1.27363">
        <ele>3.6</ele>
        <time>2020-06-02T07:57:00Z</time>
      </trkpt>
      <trkpt lat="46.15985" lon="-1.27356">
        <ele>3.6</ele>
        <time>2020-06-02T07:57:01Z</time>
      </trkpt>
      <trkpt lat="46.15984" lon="-1.2735">
        <ele>3.6</ele>
        <time>2020-06-02T07:57:02Z</time>
      </trkpt>
      <trkpt lat="46.15983" lon="-1.27344">
        <ele>3.6</ele>
        <time>2020-06-02T07:57:03Z</time>
      </trkpt>
      <trkpt lat="46.15982" lon="-1.27338">
        <ele>3.6</ele>
        <time>2020-06-02T07:57:04Z</time>
      </trkpt>
      <trkpt lat="46.1598" lon="-1.27331">
        <ele>3.7</ele>
        <time>2020-06-02T07:57:05Z</time>
      </trkpt>
      <trkpt lat="46.15979" lon="-1.27324">
        <ele>3.7</ele>
        <time>2020-06-02T07:57:06Z</time>
      </trkpt>
      <trkpt lat="46.15977" lon="-1.27318">
        <ele>3.7</ele>
        <time>2020-06-02T07:57:07Z</time>
      </trkpt>
      <trkpt lat="46.15976" lon="-1.27311">
        <ele>3.7</ele>
        <time>2020-06-02T07:57:08Z</time>
      </trkpt>
      <trkpt lat="46.15974" lon="-1.27304">
        <ele>3.7</ele>
        <time>2020-06-02T07:57:09Z</time>
      </trkpt>
      <trkpt lat="46.15973" lon="-1.27297">
        <ele>3.7</ele>
        <time>2020-06-02T07:57:10Z</time>
      </trkpt>
      <trkpt lat="46.15972" lon="-1.27292">
        <ele>3.7</ele>
        <time>2020-06-02T07:57:11Z</time>
      </trkpt>
      <trkpt lat="46.15971" lon="-1.27285">
        <ele>3.7</ele>
        <time>2020-06-02T07:57:12Z</time>
      </trkpt>
      <trkpt lat="46.15969" lon="-1.27278">
        <ele>3.7</ele>
        <time>2020-06-02T07:57:13Z</time>
      </trkpt>
      <trkpt lat="46.15967" lon="-1.27272">
        <ele>3.8</ele>
        <time>2020-06-02T07:57:14Z</time>
      </trkpt>
      <trkpt lat="46.15966" lon="-1.27264">
        <ele>3.8</ele>
        <time>2020-06-02T07:57:15Z</time>
      </trkpt>
      <trkpt lat="46.15965" lon="-1.27255">
        <ele>3.8</ele>
        <time>2020-06-02T07:57:16Z</time>
      </trkpt>
      <trkpt lat="46.15965" lon="-1.27248">
        <ele>3.8</ele>
        <time>2020-06-02T07:57:17Z</time>
      </trkpt>
      <trkpt lat="46.15965" lon="-1.27241">
        <ele>3.8</ele>
        <time>2020-06-02T07:57:18Z</time>
      </trkpt>
      <trkpt lat="46.15964" lon="-1.27234">
        <ele>3.8</ele>
        <time>2020-06-02T07:57:19Z</time>
      </trkpt>
      <trkpt lat="46.15964" lon="-1.27227">
        <ele>3.8</ele>
        <time>2020-06-02T07:57:20Z</time>
      </trkpt>
      <trkpt lat="46.15964" lon="-1.27219">
        <ele>3.8</ele>
        <time>2020-06-02T07:57:21Z</time>
      </trkpt>
      <trkpt lat="46.15965" lon="-1.27212">
        <ele>3.8</ele>
        <time>2020-06-02T07:57:22Z</time>
      </trkpt>
      <trkpt lat="46.15965" lon="-1.27205">
        <ele>3.8</ele>
        <time>2020-06-02T07:57:23Z</time>
      </trkpt>
      <trkpt lat="46.15966" lon="-1.27197">
        <ele>3.8</ele>
        <time>2020-06-02T07:57:24Z</time>
      </trkpt>
      <trkpt lat="46.15966" lon="-1.27189">
        <ele>3.8</ele>
        <time>2020-06-02T07:57:25Z</time>
      </trkpt>
      <trkpt lat="46.15966" lon="-1.27181">
        <ele>3.8</ele>
        <time>2020-06-02T07:57:26Z</time>
      </trkpt>
      <trkpt lat="46.15965" lon="-1.27173">
        <ele>3.8</ele>
        <time>2020-06-02T07:57:27Z</time>
      </trkpt>
      <trkpt lat="46.15964" lon="-1.27166">
        <ele>3.8</ele>
        <time>2020-06-02T07:57:28Z</time>
      </trkpt>
      <trkpt lat="46.15964" lon="-1.27158">
        <ele>3.8</ele>
        <time>2020-06-02T07:57:29Z</time>
      </trkpt>
      <trkpt lat="46.15963" lon="-1.2715">
        <ele>3.8</ele>
        <time>2020-06-02T07:57:30Z</time>
      </trkpt>
      <trkpt lat="46.15963" lon="-1.27143">
        <ele>3.8</ele>
        <time>2020-06-02T07:57:31Z</time>
      </trkpt>
      <trkpt lat="46.15963" lon="-1.27136">
        <ele>3.8</ele>
        <time>2020-06-02T07:57:32Z</time>
      </trkpt>
      <trkpt lat="46.15963" lon="-1.2713">
        <ele>3.8</ele>
        <time>2020-06-02T07:57:33Z</time>
      </trkpt>
      <trkpt lat="46.15962" lon="-1.27123">
        <ele>3.8</ele>
        <time>2020-06-02T07:57:34Z</time>
      </trkpt>
      <trkpt lat="46.15962" lon="-1.27117">
        <ele>3.8</ele>
        <time>2020-06-02T07:57:35Z</time>
      </trkpt>
      <trkpt lat="46.15962" lon="-1.27111">
        <ele>3.8</ele>
        <time>2020-06-02T07:57:36Z</time>
      </trkpt>
      <trkpt lat="46.15961" lon="-1.27103">
        <ele>3.8</ele>
        <time>2020-06-02T07:57:37Z</time>
      </trkpt>
      <trkpt lat="46.15961" lon="-1.27096">
        <ele>3.8</ele>
        <time>2020-06-02T07:57:38Z</time>
      </trkpt>
      <trkpt lat="46.15961" lon="-1.27089">
        <ele>3.8</ele>
        <time>2020-06-02T07:57:39Z</time>
      </trkpt>
      <trkpt lat="46.15961" lon="-1.27082">
        <ele>3.8</ele>
        <time>2020-06-02T07:57:40Z</time>
      </trkpt>
      <trkpt lat="46.15961" lon="-1.27074">
        <ele>3.8</ele>
        <time>2020-06-02T07:57:41Z</time>
      </trkpt>
      <trkpt lat="46.15961" lon="-1.27067">
        <ele>3.8</ele>
        <time>2020-06-02T07:57:42Z</time>
      </trkpt>
      <trkpt lat="46.1596" lon="-1.27061">
        <ele>3.8</ele>
        <time>2020-06-02T07:57:43Z</time>
      </trkpt>
      <trkpt lat="46.1596" lon="-1.27055">
        <ele>3.8</ele>
        <time>2020-06-02T07:57:44Z</time>
      </trkpt>
      <trkpt lat="46.15961" lon="-1.27049">
        <ele>3.8</ele>
        <time>2020-06-02T07:57:45Z</time>
      </trkpt>
      <trkpt lat="46.15961" lon="-1.27043">
        <ele>3.9</ele>
        <time>2020-06-02T07:57:46Z</time>
      </trkpt>
      <trkpt lat="46.15962" lon="-1.27037">
        <ele>3.9</ele>
        <time>2020-06-02T07:57:47Z</time>
      </trkpt>
      <trkpt lat="46.15962" lon="-1.27031">
        <ele>3.9</ele>
        <time>2020-06-02T07:57:48Z</time>
      </trkpt>
      <trkpt lat="46.15963" lon="-1.27026">
        <ele>3.9</ele>
        <time>2020-06-02T07:57:49Z</time>
      </trkpt>
      <trkpt lat="46.15963" lon="-1.27021">
        <ele>3.9</ele>
        <time>2020-06-02T07:57:50Z</time>
      </trkpt>
      <trkpt lat="46.15963" lon="-1.27016">
        <ele>3.9</ele>
        <time>2020-06-02T07:57:51Z</time>
      </trkpt>
      <trkpt lat="46.15963" lon="-1.27009">
        <ele>3.9</ele>
        <time>2020-06-02T07:57:52Z</time>
      </trkpt>
      <trkpt lat="46.15963" lon="-1.27003">
        <ele>3.9</ele>
        <time>2020-06-02T07:57:53Z</time>
      </trkpt>
      <trkpt lat="46.15964" lon="-1.26995">
        <ele>3.9</ele>
        <time>2020-06-02T07:57:54Z</time>
      </trkpt>
      <trkpt lat="46.15964" lon="-1.26987">
        <ele>3.9</ele>
        <time>2020-06-02T07:57:55Z</time>
      </trkpt>
      <trkpt lat="46.15965" lon="-1.2698">
        <ele>3.9</ele>
        <time>2020-06-02T07:57:56Z</time>
      </trkpt>
      <trkpt lat="46.15966" lon="-1.26973">
        <ele>3.9</ele>
        <time>2020-06-02T07:57:57Z</time>
      </trkpt>
      <trkpt lat="46.15968" lon="-1.26966">
        <ele>3.9</ele>
        <time>2020-06-02T07:57:58Z</time>
      </trkpt>
      <trkpt lat="46.1597" lon="-1.2696">
        <ele>3.9</ele>
        <time>2020-06-02T07:57:59Z</time>
      </trkpt>
      <trkpt lat="46.15971" lon="-1.26952">
        <ele>3.9</ele>
        <time>2020-06-02T07:58:00Z</time>
      </trkpt>
      <trkpt lat="46.15972" lon="-1.26945">
        <ele>3.9</ele>
        <time>2020-06-02T07:58:01Z</time>
      </trkpt>
      <trkpt lat="46.15972" lon="-1.26937">
        <ele>3.9</ele>
        <time>2020-06-02T07:58:02Z</time>
      </trkpt>
      <trkpt lat="46.15972" lon="-1.26929">
        <ele>3.9</ele>
        <time>2020-06-02T07:58:03Z</time>
      </trkpt>
      <trkpt lat="46.15971" lon="-1.2692">
        <ele>3.9</ele>
        <time>2020-06-02T07:58:04Z</time>
      </trkpt>
      <trkpt lat="46.15971" lon="-1.26911">
        <ele>3.9</ele>
        <time>2020-06-02T07:58:05Z</time>
      </trkpt>
      <trkpt lat="46.15972" lon="-1.26903">
        <ele>3.9</ele>
        <time>2020-06-02T07:58:06Z</time>
      </trkpt>
      <trkpt lat="46.15972" lon="-1.26896">
        <ele>3.9</ele>
        <time>2020-06-02T07:58:07Z</time>
      </trkpt>
      <trkpt lat="46.15973" lon="-1.26888">
        <ele>3.9</ele>
        <time>2020-06-02T07:58:08Z</time>
      </trkpt>
      <trkpt lat="46.15974" lon="-1.2688">
        <ele>3.9</ele>
        <time>2020-06-02T07:58:09Z</time>
      </trkpt>
      <trkpt lat="46.15974" lon="-1.26874">
        <ele>3.9</ele>
        <time>2020-06-02T07:58:10Z</time>
      </trkpt>
      <trkpt lat="46.15975" lon="-1.26868">
        <ele>3.9</ele>
        <time>2020-06-02T07:58:11Z</time>
      </trkpt>
      <trkpt lat="46.15975" lon="-1.26861">
        <ele>3.9</ele>
        <time>2020-06-02T07:58:12Z</time>
      </trkpt>
      <trkpt lat="46.15976" lon="-1.26855">
        <ele>3.9</ele>
        <time>2020-06-02T07:58:13Z</time>
      </trkpt>
      <trkpt lat="46.15976" lon="-1.26847">
        <ele>3.9</ele>
        <time>2020-06-02T07:58:14Z</time>
      </trkpt>
      <trkpt lat="46.15977" lon="-1.26839">
        <ele>4</ele>
        <time>2020-06-02T07:58:15Z</time>
      </trkpt>
      <trkpt lat="46.15977" lon="-1.26831">
        <ele>4</ele>
        <time>2020-06-02T07:58:16Z</time>
      </trkpt>
      <trkpt lat="46.15978" lon="-1.26823">
        <ele>4</ele>
        <time>2020-06-02T07:58:17Z</time>
      </trkpt>
      <trkpt lat="46.15979" lon="-1.26815">
        <ele>4</ele>
        <time>2020-06-02T07:58:18Z</time>
      </trkpt>
      <trkpt lat="46.15979" lon="-1.26807">
        <ele>4</ele>
        <time>2020-06-02T07:58:19Z</time>
      </trkpt>
      <trkpt lat="46.1598" lon="-1.26799">
        <ele>4</ele>
        <time>2020-06-02T07:58:20Z</time>
      </trkpt>
      <trkpt lat="46.15981" lon="-1.2679">
        <ele>4</ele>
        <time>2020-06-02T07:58:21Z</time>
      </trkpt>
      <trkpt lat="46.15982" lon="-1.26781">
        <ele>4</ele>
        <time>2020-06-02T07:58:22Z</time>
      </trkpt>
      <trkpt lat="46.15982" lon="-1.26774">
        <ele>4</ele>
        <time>2020-06-02T07:58:23Z</time>
      </trkpt>
      <trkpt lat="46.15983" lon="-1.26766">
        <ele>4</ele>
        <time>2020-06-02T07:58:24Z</time>
      </trkpt>
      <trkpt lat="46.15983" lon="-1.26759">
        <ele>4</ele>
        <time>2020-06-02T07:58:25Z</time>
      </trkpt>
      <trkpt lat="46.15985" lon="-1.26751">
        <ele>4</ele>
        <time>2020-06-02T07:58:26Z</time>
      </trkpt>
      <trkpt lat="46.15987" lon="-1.26744">
        <ele>4</ele>
        <time>2020-06-02T07:58:27Z</time>
      </trkpt>
      <trkpt lat="46.15988" lon="-1.26736">
        <ele>4</ele>
        <time>2020-06-02T07:58:28Z</time>
      </trkpt>
      <trkpt lat="46.15988" lon="-1.26728">
        <ele>4</ele>
        <time>2020-06-02T07:58:29Z</time>
      </trkpt>
      <trkpt lat="46.15989" lon="-1.2672">
        <ele>4</ele>
        <time>2020-06-02T07:58:30Z</time>
      </trkpt>
      <trkpt lat="46.1599" lon="-1.26713">
        <ele>4</ele>
        <time>2020-06-02T07:58:31Z</time>
      </trkpt>
      <trkpt lat="46.15991" lon="-1.26707">
        <ele>4</ele>
        <time>2020-06-02T07:58:32Z</time>
      </trkpt>
      <trkpt lat="46.15992" lon="-1.26699">
        <ele>4</ele>
        <time>2020-06-02T07:58:33Z</time>
      </trkpt>
      <trkpt lat="46.15994" lon="-1.26693">
        <ele>4</ele>
        <time>2020-06-02T07:58:34Z</time>
      </trkpt>
      <trkpt lat="46.15995" lon="-1.26686">
        <ele>4</ele>
        <time>2020-06-02T07:58:35Z</time>
      </trkpt>
      <trkpt lat="46.15995" lon="-1.26677">
        <ele>4</ele>
        <time>2020-06-02T07:58:36Z</time>
      </trkpt>
      <trkpt lat="46.15997" lon="-1.26669">
        <ele>4</ele>
        <time>2020-06-02T07:58:37Z</time>
      </trkpt>
      <trkpt lat="46.15998" lon="-1.2666">
        <ele>4.1</ele>
        <time>2020-06-02T07:58:38Z</time>
      </trkpt>
      <trkpt lat="46.16" lon="-1.26652">
        <ele>4.1</ele>
        <time>2020-06-02T07:58:39Z</time>
      </trkpt>
      <trkpt lat="46.16001" lon="-1.26644">
        <ele>4.1</ele>
        <time>2020-06-02T07:58:40Z</time>
      </trkpt>
      <trkpt lat="46.16002" lon="-1.26636">
        <ele>4.1</ele>
        <time>2020-06-02T07:58:41Z</time>
      </trkpt>
      <trkpt lat="46.16003" lon="-1.26628">
        <ele>4.2</ele>
        <time>2020-06-02T07:58:42Z</time>
      </trkpt>
      <trkpt lat="46.16004" lon="-1.26621">
        <ele>4.2</ele>
        <time>2020-06-02T07:58:43Z</time>
      </trkpt>
      <trkpt lat="46.16003" lon="-1.26614">
        <ele>4.3</ele>
        <time>2020-06-02T07:58:44Z</time>
      </trkpt>
      <trkpt lat="46.16001" lon="-1.26607">
        <ele>4.3</ele>
        <time>2020-06-02T07:58:45Z</time>
      </trkpt>
      <trkpt lat="46.15998" lon="-1.26601">
        <ele>4.4</ele>
        <time>2020-06-02T07:58:46Z</time>
      </trkpt>
      <trkpt lat="46.15996" lon="-1.26596">
        <ele>4.4</ele>
        <time>2020-06-02T07:58:47Z</time>
      </trkpt>
      <trkpt lat="46.15994" lon="-1.26592">
        <ele>4.5</ele>
        <time>2020-06-02T07:58:48Z</time>
      </trkpt>
      <trkpt lat="46.15993" lon="-1.26587">
        <ele>4.5</ele>
        <time>2020-06-02T07:58:49Z</time>
      </trkpt>
      <trkpt lat="46.15992" lon="-1.26581">
        <ele>4.5</ele>
        <time>2020-06-02T07:58:50Z</time>
      </trkpt>
      <trkpt lat="46.15991" lon="-1.26575">
        <ele>4.5</ele>
        <time>2020-06-02T07:58:51Z</time>
      </trkpt>
      <trkpt lat="46.1599" lon="-1.2657">
        <ele>4.5</ele>
        <time>2020-06-02T07:58:52Z</time>
      </trkpt>
      <trkpt lat="46.15989" lon="-1.26565">
        <ele>4.5</ele>
        <time>2020-06-02T07:58:53Z</time>
      </trkpt>
      <trkpt lat="46.15989" lon="-1.26559">
        <ele>4.5</ele>
        <time>2020-06-02T07:58:54Z</time>
      </trkpt>
      <trkpt lat="46.15988" lon="-1.26553">
        <ele>4.5</ele>
        <time>2020-06-02T07:58:55Z</time>
      </trkpt>
      <trkpt lat="46.15988" lon="-1.26546">
        <ele>4.5</ele>
        <time>2020-06-02T07:58:56Z</time>
      </trkpt>
      <trkpt lat="46.15988" lon="-1.2654">
        <ele>4.5</ele>
        <time>2020-06-02T07:58:57Z</time>
      </trkpt>
      <trkpt lat="46.15989" lon="-1.26535">
        <ele>4.5</ele>
        <time>2020-06-02T07:58:58Z</time>
      </trkpt>
      <trkpt lat="46.15989" lon="-1.26529">
        <ele>4.5</ele>
        <time>2020-06-02T07:58:59Z</time>
      </trkpt>
      <trkpt lat="46.15989" lon="-1.26522">
        <ele>4.5</ele>
        <time>2020-06-02T07:59:00Z</time>
      </trkpt>
      <trkpt lat="46.15989" lon="-1.26514">
        <ele>4.5</ele>
        <time>2020-06-02T07:59:01Z</time>
      </trkpt>
      <trkpt lat="46.1599" lon="-1.26507">
        <ele>4.6</ele>
        <time>2020-06-02T07:59:02Z</time>
      </trkpt>
      <trkpt lat="46.15991" lon="-1.265">
        <ele>4.6</ele>
        <time>2020-06-02T07:59:03Z</time>
      </trkpt>
      <trkpt lat="46.15992" lon="-1.26493">
        <ele>4.6</ele>
        <time>2020-06-02T07:59:04Z</time>
      </trkpt>
      <trkpt lat="46.15994" lon="-1.26485">
        <ele>4.6</ele>
        <time>2020-06-02T07:59:05Z</time>
      </trkpt>
      <trkpt lat="46.15999" lon="-1.26477">
        <ele>4.7</ele>
        <time>2020-06-02T07:59:06Z</time>
      </trkpt>
      <trkpt lat="46.16001" lon="-1.2647">
        <ele>4.7</ele>
        <time>2020-06-02T07:59:07Z</time>
      </trkpt>
      <trkpt lat="46.16003" lon="-1.26462">
        <ele>4.8</ele>
        <time>2020-06-02T07:59:08Z</time>
      </trkpt>
      <trkpt lat="46.16005" lon="-1.26455">
        <ele>4.9</ele>
        <time>2020-06-02T07:59:09Z</time>
      </trkpt>
      <trkpt lat="46.16007" lon="-1.26448">
        <ele>4.9</ele>
        <time>2020-06-02T07:59:10Z</time>
      </trkpt>
      <trkpt lat="46.1601" lon="-1.26441">
        <ele>4.9</ele>
        <time>2020-06-02T07:59:11Z</time>
      </trkpt>
      <trkpt lat="46.16012" lon="-1.26433">
        <ele>4.9</ele>
        <time>2020-06-02T07:59:12Z</time>
      </trkpt>
      <trkpt lat="46.16015" lon="-1.26425">
        <ele>5</ele>
        <time>2020-06-02T07:59:13Z</time>
      </trkpt>
      <trkpt lat="46.16018" lon="-1.26417">
        <ele>5</ele>
        <time>2020-06-02T07:59:14Z</time>
      </trkpt>
      <trkpt lat="46.16021" lon="-1.2641">
        <ele>5</ele>
        <time>2020-06-02T07:59:15Z</time>
      </trkpt>
      <trkpt lat="46.16024" lon="-1.26403">
        <ele>5.1</ele>
        <time>2020-06-02T07:59:16Z</time>
      </trkpt>
      <trkpt lat="46.16026" lon="-1.26394">
        <ele>5.2</ele>
        <time>2020-06-02T07:59:17Z</time>
      </trkpt>
      <trkpt lat="46.16028" lon="-1.26385">
        <ele>5.2</ele>
        <time>2020-06-02T07:59:18Z</time>
      </trkpt>
      <trkpt lat="46.16028" lon="-1.26377">
        <ele>5.3</ele>
        <time>2020-06-02T07:59:19Z</time>
      </trkpt>
      <trkpt lat="46.16028" lon="-1.2637">
        <ele>5.3</ele>
        <time>2020-06-02T07:59:20Z</time>
      </trkpt>
      <trkpt lat="46.16028" lon="-1.26363">
        <ele>5.3</ele>
        <time>2020-06-02T07:59:21Z</time>
      </trkpt>
      <trkpt lat="46.16028" lon="-1.26355">
        <ele>5.3</ele>
        <time>2020-06-02T07:59:22Z</time>
      </trkpt>
      <trkpt lat="46.16029" lon="-1.26347">
        <ele>5.4</ele>
        <time>2020-06-02T07:59:23Z</time>
      </trkpt>
      <trkpt lat="46.16032" lon="-1.26342">
        <ele>5.4</ele>
        <time>2020-06-02T07:59:24Z</time>
      </trkpt>
      <trkpt lat="46.16035" lon="-1.26337">
        <ele>5.4</ele>
        <time>2020-06-02T07:59:25Z</time>
      </trkpt>
      <trkpt lat="46.16038" lon="-1.26333">
        <ele>5.4</ele>
        <time>2020-06-02T07:59:26Z</time>
      </trkpt>
      <trkpt lat="46.16041" lon="-1.26329">
        <ele>5.4</ele>
        <time>2020-06-02T07:59:27Z</time>
      </trkpt>
      <trkpt lat="46.16045" lon="-1.26324">
        <ele>5.4</ele>
        <time>2020-06-02T07:59:28Z</time>
      </trkpt>
      <trkpt lat="46.16048" lon="-1.26318">
        <ele>5.4</ele>
        <time>2020-06-02T07:59:29Z</time>
      </trkpt>
      <trkpt lat="46.16051" lon="-1.26312">
        <ele>5.5</ele>
        <time>2020-06-02T07:59:30Z</time>
      </trkpt>
      <trkpt lat="46.16053" lon="-1.26307">
        <ele>5.5</ele>
        <time>2020-06-02T07:59:31Z</time>
      </trkpt>
      <trkpt lat="46.16056" lon="-1.26301">
        <ele>5.5</ele>
        <time>2020-06-02T07:59:32Z</time>
      </trkpt>
      <trkpt lat="46.1606" lon="-1.26295">
        <ele>5.5</ele>
        <time>2020-06-02T07:59:33Z</time>
      </trkpt>
      <trkpt lat="46.16063" lon="-1.2629">
        <ele>5.5</ele>
        <time>2020-06-02T07:59:34Z</time>
      </trkpt>
      <trkpt lat="46.16065" lon="-1.26285">
        <ele>5.5</ele>
        <time>2020-06-02T07:59:35Z</time>
      </trkpt>
      <trkpt lat="46.16068" lon="-1.2628">
        <ele>5.5</ele>
        <time>2020-06-02T07:59:36Z</time>
      </trkpt>
      <trkpt lat="46.16072" lon="-1.26274">
        <ele>5.5</ele>
        <time>2020-06-02T07:59:37Z</time>
      </trkpt>
      <trkpt lat="46.16075" lon="-1.26267">
        <ele>5.5</ele>
        <time>2020-06-02T07:59:38Z</time>
      </trkpt>
      <trkpt lat="46.16078" lon="-1.2626">
        <ele>5.5</ele>
        <time>2020-06-02T07:59:39Z</time>
      </trkpt>
      <trkpt lat="46.16082" lon="-1.26254">
        <ele>5.5</ele>
        <time>2020-06-02T07:59:40Z</time>
      </trkpt>
      <trkpt lat="46.16085" lon="-1.26247">
        <ele>5.5</ele>
        <time>2020-06-02T07:59:41Z</time>
      </trkpt>
      <trkpt lat="46.16087" lon="-1.26239">
        <ele>5.5</ele>
        <time>2020-06-02T07:59:42Z</time>
      </trkpt>
      <trkpt lat="46.1609" lon="-1.26232">
        <ele>5.5</ele>
        <time>2020-06-02T07:59:43Z</time>
      </trkpt>
      <trkpt lat="46.16092" lon="-1.26224">
        <ele>5.5</ele>
        <time>2020-06-02T07:59:44Z</time>
      </trkpt>
      <trkpt lat="46.16094" lon="-1.26217">
        <ele>5.5</ele>
        <time>2020-06-02T07:59:45Z</time>
      </trkpt>
      <trkpt lat="46.16096" lon="-1.26211">
        <ele>5.5</ele>
        <time>2020-06-02T07:59:46Z</time>
      </trkpt>
      <trkpt lat="46.16098" lon="-1.26205">
        <ele>5.5</ele>
        <time>2020-06-02T07:59:47Z</time>
      </trkpt>
      <trkpt lat="46.161" lon="-1.26199">
        <ele>5.5</ele>
        <time>2020-06-02T07:59:48Z</time>
      </trkpt>
      <trkpt lat="46.16102" lon="-1.26193">
        <ele>5.4</ele>
        <time>2020-06-02T07:59:49Z</time>
      </trkpt>
      <trkpt lat="46.16104" lon="-1.26187">
        <ele>5.4</ele>
        <time>2020-06-02T07:59:50Z</time>
      </trkpt>
      <trkpt lat="46.16107" lon="-1.2618">
        <ele>5.4</ele>
        <time>2020-06-02T07:59:51Z</time>
      </trkpt>
      <trkpt lat="46.16109" lon="-1.26176">
        <ele>5.3</ele>
        <time>2020-06-02T07:59:52Z</time>
      </trkpt>
      <trkpt lat="46.16112" lon="-1.2617">
        <ele>5.3</ele>
        <time>2020-06-02T07:59:53Z</time>
      </trkpt>
      <trkpt lat="46.16113" lon="-1.26164">
        <ele>5.3</ele>
        <time>2020-06-02T07:59:54Z</time>
      </trkpt>
      <trkpt lat="46.16115" lon="-1.26158">
        <ele>5.2</ele>
        <time>2020-06-02T07:59:55Z</time>
      </trkpt>
      <trkpt lat="46.16118" lon="-1.26151">
        <ele>5.2</ele>
        <time>2020-06-02T07:59:56Z</time>
      </trkpt>
      <trkpt lat="46.16121" lon="-1.26145">
        <ele>5.1</ele>
        <time>2020-06-02T07:59:57Z</time>
      </trkpt>
      <trkpt lat="46.16123" lon="-1.26139">
        <ele>5.1</ele>
        <time>2020-06-02T07:59:58Z</time>
      </trkpt>
      <trkpt lat="46.16126" lon="-1.26133">
        <ele>5</ele>
        <time>2020-06-02T07:59:59Z</time>
      </trkpt>
      <trkpt lat="46.16131" lon="-1.26128">
        <ele>5</ele>
        <time>2020-06-02T08:00:00Z</time>
      </trkpt>
      <trkpt lat="46.16134" lon="-1.26124">
        <ele>5</ele>
        <time>2020-06-02T08:00:01Z</time>
      </trkpt>
      <trkpt lat="46.16137" lon="-1.26118">
        <ele>5</ele>
        <time>2020-06-02T08:00:02Z</time>
      </trkpt>
      <trkpt lat="46.1614" lon="-1.26112">
        <ele>4.9</ele>
        <time>2020-06-02T08:00:03Z</time>
      </trkpt>
      <trkpt lat="46.16142" lon="-1.26105">
        <ele>4.9</ele>
        <time>2020-06-02T08:00:04Z</time>
      </trkpt>
      <trkpt lat="46.16143" lon="-1.261">
        <ele>4.9</ele>
        <time>2020-06-02T08:00:05Z</time>
      </trkpt>
      <trkpt lat="46.16145" lon="-1.26097">
        <ele>4.9</ele>
        <time>2020-06-02T08:00:06Z</time>
      </trkpt>
      <trkpt lat="46.16149" lon="-1.26093">
        <ele>4.8</ele>
        <time>2020-06-02T08:00:07Z</time>
      </trkpt>
      <trkpt lat="46.16152" lon="-1.26088">
        <ele>4.8</ele>
        <time>2020-06-02T08:00:08Z</time>
      </trkpt>
      <trkpt lat="46.16155" lon="-1.26084">
        <ele>4.7</ele>
        <time>2020-06-02T08:00:09Z</time>
      </trkpt>
      <trkpt lat="46.16158" lon="-1.2608">
        <ele>4.7</ele>
        <time>2020-06-02T08:00:10Z</time>
      </trkpt>
      <trkpt lat="46.16162" lon="-1.26074">
        <ele>4.7</ele>
        <time>2020-06-02T08:00:11Z</time>
      </trkpt>
      <trkpt lat="46.16166" lon="-1.2607">
        <ele>4.6</ele>
        <time>2020-06-02T08:00:12Z</time>
      </trkpt>
      <trkpt lat="46.1617" lon="-1.26065">
        <ele>4.6</ele>
        <time>2020-06-02T08:00:13Z</time>
      </trkpt>
      <trkpt lat="46.16174" lon="-1.26061">
        <ele>4.6</ele>
        <time>2020-06-02T08:00:14Z</time>
      </trkpt>
      <trkpt lat="46.16178" lon="-1.26056">
        <ele>4.6</ele>
        <time>2020-06-02T08:00:15Z</time>
      </trkpt>
      <trkpt lat="46.16182" lon="-1.26051">
        <ele>4.6</ele>
        <time>2020-06-02T08:00:16Z</time>
      </trkpt>
      <trkpt lat="46.16187" lon="-1.26045">
        <ele>4.6</ele>
        <time>2020-06-02T08:00:17Z</time>
      </trkpt>
      <trkpt lat="46.16191" lon="-1.2604">
        <ele>4.6</ele>
        <time>2020-06-02T08:00:18Z</time>
      </trkpt>
      <trkpt lat="46.16196" lon="-1.26035">
        <ele>4.6</ele>
        <time>2020-06-02T08:00:19Z</time>
      </trkpt>
      <trkpt lat="46.162" lon="-1.26029">
        <ele>4.6</ele>
        <time>2020-06-02T08:00:20Z</time>
      </trkpt>
      <trkpt lat="46.16204" lon="-1.26023">
        <ele>4.6</ele>
        <time>2020-06-02T08:00:21Z</time>
      </trkpt>
      <trkpt lat="46.16208" lon="-1.26016">
        <ele>4.6</ele>
        <time>2020-06-02T08:00:22Z</time>
      </trkpt>
      <trkpt lat="46.16211" lon="-1.2601">
        <ele>4.6</ele>
        <time>2020-06-02T08:00:23Z</time>
      </trkpt>
      <trkpt lat="46.16213" lon="-1.26003">
        <ele>4.6</ele>
        <time>2020-06-02T08:00:24Z</time>
      </trkpt>
      <trkpt lat="46.16216" lon="-1.25996">
        <ele>4.6</ele>
        <time>2020-06-02T08:00:25Z</time>
      </trkpt>
      <trkpt lat="46.16218" lon="-1.2599">
        <ele>4.6</ele>
        <time>2020-06-02T08:00:26Z</time>
      </trkpt>
      <trkpt lat="46.16221" lon="-1.25982">
        <ele>4.6</ele>
        <time>2020-06-02T08:00:27Z</time>
      </trkpt>
      <trkpt lat="46.16224" lon="-1.25975">
        <ele>4.6</ele>
        <time>2020-06-02T08:00:28Z</time>
      </trkpt>
      <trkpt lat="46.16226" lon="-1.25967">
        <ele>4.6</ele>
        <time>2020-06-02T08:00:29Z</time>
      </trkpt>
      <trkpt lat="46.16228" lon="-1.2596">
        <ele>4.6</ele>
        <time>2020-06-02T08:00:30Z</time>
      </trkpt>
      <trkpt lat="46.16231" lon="-1.25953">
        <ele>4.6</ele>
        <time>2020-06-02T08:00:31Z</time>
      </trkpt>
      <trkpt lat="46.16233" lon="-1.25947">
        <ele>4.6</ele>
        <time>2020-06-02T08:00:32Z</time>
      </trkpt>
      <trkpt lat="46.16236" lon="-1.25941">
        <ele>4.6</ele>
        <time>2020-06-02T08:00:33Z</time>
      </trkpt>
      <trkpt lat="46.16239" lon="-1.25934">
        <ele>4.6</ele>
        <time>2020-06-02T08:00:34Z</time>
      </trkpt>
      <trkpt lat="46.16241" lon="-1.25926">
        <ele>4.6</ele>
        <time>2020-06-02T08:00:35Z</time>
      </trkpt>
      <trkpt lat="46.16243" lon="-1.25919">
        <ele>4.7</ele>
        <time>2020-06-02T08:00:36Z</time>
      </trkpt>
      <trkpt lat="46.16246" lon="-1.25914">
        <ele>4.7</ele>
        <time>2020-06-02T08:00:37Z</time>
      </trkpt>
      <trkpt lat="46.16248" lon="-1.25908">
        <ele>4.8</ele>
        <time>2020-06-02T08:00:38Z</time>
      </trkpt>
      <trkpt lat="46.1625" lon="-1.25902">
        <ele>4.8</ele>
        <time>2020-06-02T08:00:39Z</time>
      </trkpt>
      <trkpt lat="46.16252" lon="-1.25896">
        <ele>4.9</ele>
        <time>2020-06-02T08:00:40Z</time>
      </trkpt>
      <trkpt lat="46.16255" lon="-1.25889">
        <ele>4.9</ele>
        <time>2020-06-02T08:00:41Z</time>
      </trkpt>
      <trkpt lat="46.16257" lon="-1.25883">
        <ele>5</ele>
        <time>2020-06-02T08:00:42Z</time>
      </trkpt>
      <trkpt lat="46.16259" lon="-1.25878">
        <ele>5</ele>
        <time>2020-06-02T08:00:43Z</time>
      </trkpt>
      <trkpt lat="46.16261" lon="-1.25873">
        <ele>5.1</ele>
        <time>2020-06-02T08:00:44Z</time>
      </trkpt>
      <trkpt lat="46.16263" lon="-1.2587">
        <ele>5.1</ele>
        <time>2020-06-02T08:00:45Z</time>
      </trkpt>
      <trkpt lat="46.16266" lon="-1.25866">
        <ele>5.1</ele>
        <time>2020-06-02T08:00:46Z</time>
      </trkpt>
      <trkpt lat="46.16269" lon="-1.25861">
        <ele>5.2</ele>
        <time>2020-06-02T08:00:47Z</time>
      </trkpt>
      <trkpt lat="46.16272" lon="-1.25856">
        <ele>5.2</ele>
        <time>2020-06-02T08:00:48Z</time>
      </trkpt>
      <trkpt lat="46.16275" lon="-1.2585">
        <ele>5.3</ele>
        <time>2020-06-02T08:00:49Z</time>
      </trkpt>
      <trkpt lat="46.16279" lon="-1.25844">
        <ele>5.4</ele>
        <time>2020-06-02T08:00:50Z</time>
      </trkpt>
      <trkpt lat="46.16283" lon="-1.25837">
        <ele>5.4</ele>
        <time>2020-06-02T08:00:51Z</time>
      </trkpt>
      <trkpt lat="46.16286" lon="-1.25831">
        <ele>5.4</ele>
        <time>2020-06-02T08:00:52Z</time>
      </trkpt>
      <trkpt lat="46.16289" lon="-1.25825">
        <ele>5.4</ele>
        <time>2020-06-02T08:00:53Z</time>
      </trkpt>
      <trkpt lat="46.16291" lon="-1.25821">
        <ele>5.4</ele>
        <time>2020-06-02T08:00:54Z</time>
      </trkpt>
      <trkpt lat="46.16294" lon="-1.25814">
        <ele>5.4</ele>
        <time>2020-06-02T08:00:55Z</time>
      </trkpt>
      <trkpt lat="46.16296" lon="-1.25804">
        <ele>5.5</ele>
        <time>2020-06-02T08:00:56Z</time>
      </trkpt>
      <trkpt lat="46.163" lon="-1.25796">
        <ele>5.6</ele>
        <time>2020-06-02T08:00:57Z</time>
      </trkpt>
      <trkpt lat="46.16303" lon="-1.25789">
        <ele>5.7</ele>
        <time>2020-06-02T08:00:58Z</time>
      </trkpt>
      <trkpt lat="46.16306" lon="-1.25782">
        <ele>5.8</ele>
        <time>2020-06-02T08:00:59Z</time>
      </trkpt>
      <trkpt lat="46.16308" lon="-1.25774">
        <ele>6</ele>
        <time>2020-06-02T08:01:00Z</time>
      </trkpt>
      <trkpt lat="46.1631" lon="-1.25767">
        <ele>6.1</ele>
        <time>2020-06-02T08:01:01Z</time>
      </trkpt>
      <trkpt lat="46.16312" lon="-1.2576">
        <ele>6.3</ele>
        <time>2020-06-02T08:01:02Z</time>
      </trkpt>
      <trkpt lat="46.16315" lon="-1.25754">
        <ele>6.4</ele>
        <time>2020-06-02T08:01:03Z</time>
      </trkpt>
      <trkpt lat="46.16316" lon="-1.25746">
        <ele>6.5</ele>
        <time>2020-06-02T08:01:04Z</time>
      </trkpt>
      <trkpt lat="46.16318" lon="-1.2574">
        <ele>6.6</ele>
        <time>2020-06-02T08:01:05Z</time>
      </trkpt>
      <trkpt lat="46.16319" lon="-1.25734">
        <ele>6.7</ele>
        <time>2020-06-02T08:01:06Z</time>
      </trkpt>
      <trkpt lat="46.16321" lon="-1.25728">
        <ele>6.8</ele>
        <time>2020-06-02T08:01:07Z</time>
      </trkpt>
      <trkpt lat="46.16323" lon="-1.25721">
        <ele>6.9</ele>
        <time>2020-06-02T08:01:08Z</time>
      </trkpt>
      <trkpt lat="46.16325" lon="-1.25715">
        <ele>7</ele>
        <time>2020-06-02T08:01:09Z</time>
      </trkpt>
      <trkpt lat="46.16328" lon="-1.25709">
        <ele>7.1</ele>
        <time>2020-06-02T08:01:10Z</time>
      </trkpt>
      <trkpt lat="46.1633" lon="-1.25705">
        <ele>7.2</ele>
        <time>2020-06-02T08:01:11Z</time>
      </trkpt>
      <trkpt lat="46.16332" lon="-1.257">
        <ele>7.3</ele>
        <time>2020-06-02T08:01:12Z</time>
      </trkpt>
      <trkpt lat="46.16336" lon="-1.25696">
        <ele>7.4</ele>
        <time>2020-06-02T08:01:13Z</time>
      </trkpt>
      <trkpt lat="46.1634" lon="-1.25692">
        <ele>7.5</ele>
        <time>2020-06-02T08:01:14Z</time>
      </trkpt>
      <trkpt lat="46.16343" lon="-1.25686">
        <ele>7.6</ele>
        <time>2020-06-02T08:01:15Z</time>
      </trkpt>
      <trkpt lat="46.16347" lon="-1.25681">
        <ele>7.8</ele>
        <time>2020-06-02T08:01:16Z</time>
      </trkpt>
      <trkpt lat="46.1635" lon="-1.25677">
        <ele>7.9</ele>
        <time>2020-06-02T08:01:17Z</time>
      </trkpt>
      <trkpt lat="46.16353" lon="-1.25673">
        <ele>8</ele>
        <time>2020-06-02T08:01:18Z</time>
      </trkpt>
      <trkpt lat="46.16357" lon="-1.25667">
        <ele>8.1</ele>
        <time>2020-06-02T08:01:19Z</time>
      </trkpt>
      <trkpt lat="46.16361" lon="-1.25663">
        <ele>8.3</ele>
        <time>2020-06-02T08:01:20Z</time>
      </trkpt>
      <trkpt lat="46.16364" lon="-1.25659">
        <ele>8.4</ele>
        <time>2020-06-02T08:01:21Z</time>
      </trkpt>
      <trkpt lat="46.16368" lon="-1.25655">
        <ele>8.5</ele>
        <time>2020-06-02T08:01:22Z</time>
      </trkpt>
      <trkpt lat="46.16372" lon="-1.25651">
        <ele>8.7</ele>
        <time>2020-06-02T08:01:23Z</time>
      </trkpt>
      <trkpt lat="46.16375" lon="-1.25647">
        <ele>8.8</ele>
        <time>2020-06-02T08:01:24Z</time>
      </trkpt>
      <trkpt lat="46.16378" lon="-1.25642">
        <ele>8.9</ele>
        <time>2020-06-02T08:01:25Z</time>
      </trkpt>
      <trkpt lat="46.16382" lon="-1.25638">
        <ele>9.1</ele>
        <time>2020-06-02T08:01:26Z</time>
      </trkpt>
      <trkpt lat="46.16385" lon="-1.25633">
        <ele>9.2</ele>
        <time>2020-06-02T08:01:27Z</time>
      </trkpt>
      <trkpt lat="46.16388" lon="-1.25627">
        <ele>9.3</ele>
        <time>2020-06-02T08:01:28Z</time>
      </trkpt>
      <trkpt lat="46.16391" lon="-1.25622">
        <ele>9.4</ele>
        <time>2020-06-02T08:01:29Z</time>
      </trkpt>
      <trkpt lat="46.16395" lon="-1.25616">
        <ele>9.4</ele>
        <time>2020-06-02T08:01:30Z</time>
      </trkpt>
      <trkpt lat="46.16399" lon="-1.25611">
        <ele>9.4</ele>
        <time>2020-06-02T08:01:31Z</time>
      </trkpt>
      <trkpt lat="46.16402" lon="-1.25606">
        <ele>9.5</ele>
        <time>2020-06-02T08:01:32Z</time>
      </trkpt>
      <trkpt lat="46.16406" lon="-1.25601">
        <ele>9.6</ele>
        <time>2020-06-02T08:01:33Z</time>
      </trkpt>
      <trkpt lat="46.16409" lon="-1.25596">
        <ele>9.7</ele>
        <time>2020-06-02T08:01:34Z</time>
      </trkpt>
      <trkpt lat="46.16412" lon="-1.2559">
        <ele>9.8</ele>
        <time>2020-06-02T08:01:35Z</time>
      </trkpt>
      <trkpt lat="46.16415" lon="-1.25585">
        <ele>9.9</ele>
        <time>2020-06-02T08:01:36Z</time>
      </trkpt>
      <trkpt lat="46.16418" lon="-1.2558">
        <ele>10</ele>
        <time>2020-06-02T08:01:37Z</time>
      </trkpt>
      <trkpt lat="46.16421" lon="-1.25575">
        <ele>10.2</ele>
        <time>2020-06-02T08:01:38Z</time>
      </trkpt>
      <trkpt lat="46.16425" lon="-1.25571">
        <ele>10.3</ele>
        <time>2020-06-02T08:01:39Z</time>
      </trkpt>
      <trkpt lat="46.16426" lon="-1.25566">
        <ele>10.4</ele>
        <time>2020-06-02T08:01:40Z</time>
      </trkpt>
      <trkpt lat="46.16429" lon="-1.25561">
        <ele>10.5</ele>
        <time>2020-06-02T08:01:41Z</time>
      </trkpt>
      <trkpt lat="46.16433" lon="-1.25556">
        <ele>10.7</ele>
        <time>2020-06-02T08:01:42Z</time>
      </trkpt>
      <trkpt lat="46.16437" lon="-1.2555">
        <ele>10.9</ele>
        <time>2020-06-02T08:01:43Z</time>
      </trkpt>
      <trkpt lat="46.1644" lon="-1.25545">
        <ele>11.1</ele>
        <time>2020-06-02T08:01:44Z</time>
      </trkpt>
      <trkpt lat="46.16444" lon="-1.2554">
        <ele>11.3</ele>
        <time>2020-06-02T08:01:45Z</time>
      </trkpt>
      <trkpt lat="46.16447" lon="-1.25535">
        <ele>11.5</ele>
        <time>2020-06-02T08:01:46Z</time>
      </trkpt>
      <trkpt lat="46.16451" lon="-1.25529">
        <ele>11.7</ele>
        <time>2020-06-02T08:01:47Z</time>
      </trkpt>
      <trkpt lat="46.16454" lon="-1.25523">
        <ele>11.9</ele>
        <time>2020-06-02T08:01:48Z</time>
      </trkpt>
      <trkpt lat="46.16457" lon="-1.25518">
        <ele>12</ele>
        <time>2020-06-02T08:01:49Z</time>
      </trkpt>
      <trkpt lat="46.16461" lon="-1.25513">
        <ele>12.2</ele>
        <time>2020-06-02T08:01:50Z</time>
      </trkpt>
      <trkpt lat="46.16465" lon="-1.25508">
        <ele>12.4</ele>
        <time>2020-06-02T08:01:51Z</time>
      </trkpt>
      <trkpt lat="46.16468" lon="-1.25502">
        <ele>12.6</ele>
        <time>2020-06-02T08:01:52Z</time>
      </trkpt>
      <trkpt lat="46.16471" lon="-1.25498">
        <ele>12.7</ele>
        <time>2020-06-02T08:01:53Z</time>
      </trkpt>
      <trkpt lat="46.16474" lon="-1.25493">
        <ele>12.9</ele>
        <time>2020-06-02T08:01:54Z</time>
      </trkpt>
      <trkpt lat="46.16478" lon="-1.25488">
        <ele>13</ele>
        <time>2020-06-02T08:01:55Z</time>
      </trkpt>
      <trkpt lat="46.16481" lon="-1.25483">
        <ele>13.2</ele>
        <time>2020-06-02T08:01:56Z</time>
      </trkpt>
      <trkpt lat="46.16485" lon="-1.25478">
        <ele>13.4</ele>
        <time>2020-06-02T08:01:57Z</time>
      </trkpt>
      <trkpt lat="46.16488" lon="-1.25472">
        <ele>13.6</ele>
        <time>2020-06-02T08:01:58Z</time>
      </trkpt>
      <trkpt lat="46.16491" lon="-1.25467">
        <ele>13.8</ele>
        <time>2020-06-02T08:01:59Z</time>
      </trkpt>
      <trkpt lat="46.16495" lon="-1.25461">
        <ele>14</ele>
        <time>2020-06-02T08:02:00Z</time>
      </trkpt>
      <trkpt lat="46.16498" lon="-1.25456">
        <ele>14.1</ele>
        <time>2020-06-02T08:02:01Z</time>
      </trkpt>
      <trkpt lat="46.16501" lon="-1.25451">
        <ele>14.4</ele>
        <time>2020-06-02T08:02:02Z</time>
      </trkpt>
      <trkpt lat="46.16505" lon="-1.25446">
        <ele>14.6</ele>
        <time>2020-06-02T08:02:03Z</time>
      </trkpt>
      <trkpt lat="46.16508" lon="-1.25441">
        <ele>14.8</ele>
        <time>2020-06-02T08:02:04Z</time>
      </trkpt>
      <trkpt lat="46.16511" lon="-1.25435">
        <ele>15</ele>
        <time>2020-06-02T08:02:05Z</time>
      </trkpt>
      <trkpt lat="46.16514" lon="-1.25429">
        <ele>15.3</ele>
        <time>2020-06-02T08:02:06Z</time>
      </trkpt>
      <trkpt lat="46.16517" lon="-1.25423">
        <ele>15.5</ele>
        <time>2020-06-02T08:02:07Z</time>
      </trkpt>
      <trkpt lat="46.1652" lon="-1.25419">
        <ele>15.7</ele>
        <time>2020-06-02T08:02:08Z</time>
      </trkpt>
      <trkpt lat="46.16523" lon="-1.25413">
        <ele>16</ele>
        <time>2020-06-02T08:02:09Z</time>
      </trkpt>
      <trkpt lat="46.16526" lon="-1.25408">
        <ele>16.2</ele>
        <time>2020-06-02T08:02:10Z</time>
      </trkpt>
      <trkpt lat="46.1653" lon="-1.25402">
        <ele>16.5</ele>
        <time>2020-06-02T08:02:11Z</time>
      </trkpt>
      <trkpt lat="46.16534" lon="-1.25396">
        <ele>16.7</ele>
        <time>2020-06-02T08:02:12Z</time>
      </trkpt>
      <trkpt lat="46.16537" lon="-1.2539">
        <ele>17</ele>
        <time>2020-06-02T08:02:13Z</time>
      </trkpt>
      <trkpt lat="46.16541" lon="-1.25384">
        <ele>17.2</ele>
        <time>2020-06-02T08:02:14Z</time>
      </trkpt>
      <trkpt lat="46.16544" lon="-1.25379">
        <ele>17.5</ele>
        <time>2020-06-02T08:02:15Z</time>
      </trkpt>
      <trkpt lat="46.16546" lon="-1.25374">
        <ele>17.7</ele>
        <time>2020-06-02T08:02:16Z</time>
      </trkpt>
      <trkpt lat="46.16549" lon="-1.25369">
        <ele>17.9</ele>
        <time>2020-06-02T08:02:17Z</time>
      </trkpt>
      <trkpt lat="46.16552" lon="-1.25365">
        <ele>18.1</ele>
        <time>2020-06-02T08:02:18Z</time>
      </trkpt>
      <trkpt lat="46.16555" lon="-1.2536">
        <ele>18.3</ele>
        <time>2020-06-02T08:02:19Z</time>
      </trkpt>
      <trkpt lat="46.16558" lon="-1.25354">
        <ele>18.6</ele>
        <time>2020-06-02T08:02:20Z</time>
      </trkpt>
      <trkpt lat="46.16562" lon="-1.25349">
        <ele>18.8</ele>
        <time>2020-06-02T08:02:21Z</time>
      </trkpt>
      <trkpt lat="46.16565" lon="-1.25343">
        <ele>19.1</ele>
        <time>2020-06-02T08:02:22Z</time>
      </trkpt>
      <trkpt lat="46.16569" lon="-1.25338">
        <ele>19.4</ele>
        <time>2020-06-02T08:02:23Z</time>
      </trkpt>
      <trkpt lat="46.16573" lon="-1.25331">
        <ele>19.6</ele>
        <time>2020-06-02T08:02:24Z</time>
      </trkpt>
      <trkpt lat="46.16577" lon="-1.25324">
        <ele>19.9</ele>
        <time>2020-06-02T08:02:25Z</time>
      </trkpt>
      <trkpt lat="46.1658" lon="-1.25317">
        <ele>20.2</ele>
        <time>2020-06-02T08:02:26Z</time>
      </trkpt>
      <trkpt lat="46.16584" lon="-1.25311">
        <ele>20.5</ele>
        <time>2020-06-02T08:02:27Z</time>
      </trkpt>
      <trkpt lat="46.16588" lon="-1.25305">
        <ele>20.7</ele>
        <time>2020-06-02T08:02:28Z</time>
      </trkpt>
      <trkpt lat="46.16592" lon="-1.25299">
        <ele>20.9</ele>
        <time>2020-06-02T08:02:29Z</time>
      </trkpt>
      <trkpt lat="46.16595" lon="-1.25292">
        <ele>21.2</ele>
        <time>2020-06-02T08:02:30Z</time>
      </trkpt>
      <trkpt lat="46.16599" lon="-1.25286">
        <ele>21.4</ele>
        <time>2020-06-02T08:02:31Z</time>
      </trkpt>
      <trkpt lat="46.16603" lon="-1.2528">
        <ele>21.7</ele>
        <time>2020-06-02T08:02:32Z</time>
      </trkpt>
      <trkpt lat="46.16607" lon="-1.25274">
        <ele>21.9</ele>
        <time>2020-06-02T08:02:33Z</time>
      </trkpt>
      <trkpt lat="46.16611" lon="-1.25267">
        <ele>22.1</ele>
        <time>2020-06-02T08:02:34Z</time>
      </trkpt>
      <trkpt lat="46.16615" lon="-1.25262">
        <ele>22.4</ele>
        <time>2020-06-02T08:02:35Z</time>
      </trkpt>
      <trkpt lat="46.16618" lon="-1.25256">
        <ele>22.6</ele>
        <time>2020-06-02T08:02:36Z</time>
      </trkpt>
      <trkpt lat="46.16622" lon="-1.25249">
        <ele>22.9</ele>
        <time>2020-06-02T08:02:37Z</time>
      </trkpt>
      <trkpt lat="46.16625" lon="-1.25243">
        <ele>23.1</ele>
        <time>2020-06-02T08:02:38Z</time>
      </trkpt>
      <trkpt lat="46.16629" lon="-1.25235">
        <ele>23.4</ele>
        <time>2020-06-02T08:02:39Z</time>
      </trkpt>
      <trkpt lat="46.16633" lon="-1.25229">
        <ele>23.6</ele>
        <time>2020-06-02T08:02:40Z</time>
      </trkpt>
      <trkpt lat="46.16636" lon="-1.25222">
        <ele>23.9</ele>
        <time>2020-06-02T08:02:41Z</time>
      </trkpt>
      <trkpt lat="46.1664" lon="-1.25214">
        <ele>24.2</ele>
        <time>2020-06-02T08:02:42Z</time>
      </trkpt>
      <trkpt lat="46.16645" lon="-1.25207">
        <ele>24.5</ele>
        <time>2020-06-02T08:02:43Z</time>
      </trkpt>
      <trkpt lat="46.16648" lon="-1.252">
        <ele>24.7</ele>
        <time>2020-06-02T08:02:44Z</time>
      </trkpt>
      <trkpt lat="46.16652" lon="-1.25192">
        <ele>25</ele>
        <time>2020-06-02T08:02:45Z</time>
      </trkpt>
      <trkpt lat="46.16656" lon="-1.25185">
        <ele>25.3</ele>
        <time>2020-06-02T08:02:46Z</time>
      </trkpt>
      <trkpt lat="46.16661" lon="-1.25177">
        <ele>25.6</ele>
        <time>2020-06-02T08:02:47Z</time>
      </trkpt>
      <trkpt lat="46.16664" lon="-1.2517">
        <ele>25.9</ele>
        <time>2020-06-02T08:02:48Z</time>
      </trkpt>
      <trkpt lat="46.16668" lon="-1.25163">
        <ele>26.2</ele>
        <time>2020-06-02T08:02:49Z</time>
      </trkpt>
      <trkpt lat="46.16671" lon="-1.25158">
        <ele>26.4</ele>
        <time>2020-06-02T08:02:50Z</time>
      </trkpt>
      <trkpt lat="46.16675" lon="-1.25151">
        <ele>26.7</ele>
        <time>2020-06-02T08:02:51Z</time>
      </trkpt>
      <trkpt lat="46.16679" lon="-1.25144">
        <ele>26.9</ele>
        <time>2020-06-02T08:02:52Z</time>
      </trkpt>
      <trkpt lat="46.16682" lon="-1.25136">
        <ele>27.1</ele>
        <time>2020-06-02T08:02:53Z</time>
      </trkpt>
      <trkpt lat="46.16685" lon="-1.2513">
        <ele>27.4</ele>
        <time>2020-06-02T08:02:54Z</time>
      </trkpt>
      <trkpt lat="46.16689" lon="-1.25123">
        <ele>27.6</ele>
        <time>2020-06-02T08:02:55Z</time>
      </trkpt>
      <trkpt lat="46.16693" lon="-1.25115">
        <ele>27.9</ele>
        <time>2020-06-02T08:02:56Z</time>
      </trkpt>
      <trkpt lat="46.16697" lon="-1.25108">
        <ele>28.2</ele>
        <time>2020-06-02T08:02:57Z</time>
      </trkpt>
      <trkpt lat="46.16701" lon="-1.25101">
        <ele>28.4</ele>
        <time>2020-06-02T08:02:58Z</time>
      </trkpt>
      <trkpt lat="46.16704" lon="-1.25095">
        <ele>28.6</ele>
        <time>2020-06-02T08:02:59Z</time>
      </trkpt>
      <trkpt lat="46.16708" lon="-1.25088">
        <ele>28.9</ele>
        <time>2020-06-02T08:03:00Z</time>
      </trkpt>
      <trkpt lat="46.16711" lon="-1.25081">
        <ele>29.1</ele>
        <time>2020-06-02T08:03:01Z</time>
      </trkpt>
      <trkpt lat="46.16715" lon="-1.25074">
        <ele>29.3</ele>
        <time>2020-06-02T08:03:02Z</time>
      </trkpt>
      <trkpt lat="46.16718" lon="-1.25067">
        <ele>29.5</ele>
        <time>2020-06-02T08:03:03Z</time>
      </trkpt>
      <trkpt lat="46.16721" lon="-1.25061">
        <ele>29.7</ele>
        <time>2020-06-02T08:03:04Z</time>
      </trkpt>
      <trkpt lat="46.16724" lon="-1.25053">
        <ele>30</ele>
        <time>2020-06-02T08:03:05Z</time>
      </trkpt>
      <trkpt lat="46.16727" lon="-1.25048">
        <ele>30.2</ele>
        <time>2020-06-02T08:03:06Z</time>
      </trkpt>
      <trkpt lat="46.16731" lon="-1.25042">
        <ele>30.4</ele>
        <time>2020-06-02T08:03:07Z</time>
      </trkpt>
      <trkpt lat="46.16735" lon="-1.25036">
        <ele>30.6</ele>
        <time>2020-06-02T08:03:08Z</time>
      </trkpt>
      <trkpt lat="46.16739" lon="-1.25028">
        <ele>30.8</ele>
        <time>2020-06-02T08:03:09Z</time>
      </trkpt>
      <trkpt lat="46.16743" lon="-1.25021">
        <ele>31</ele>
        <time>2020-06-02T08:03:10Z</time>
      </trkpt>
      <trkpt lat="46.16746" lon="-1.25013">
        <ele>31.3</ele>
        <time>2020-06-02T08:03:11Z</time>
      </trkpt>
      <trkpt lat="46.1675" lon="-1.25006">
        <ele>31.5</ele>
        <time>2020-06-02T08:03:12Z</time>
      </trkpt>
      <trkpt lat="46.16753" lon="-1.25">
        <ele>31.6</ele>
        <time>2020-06-02T08:03:13Z</time>
      </trkpt>
      <trkpt lat="46.16756" lon="-1.24993">
        <ele>31.8</ele>
        <time>2020-06-02T08:03:14Z</time>
      </trkpt>
      <trkpt lat="46.16759" lon="-1.24987">
        <ele>32</ele>
        <time>2020-06-02T08:03:15Z</time>
      </trkpt>
      <trkpt lat="46.16763" lon="-1.2498">
        <ele>32.2</ele>
        <time>2020-06-02T08:03:16Z</time>
      </trkpt>
      <trkpt lat="46.16767" lon="-1.24974">
        <ele>32.5</ele>
        <time>2020-06-02T08:03:17Z</time>
      </trkpt>
      <trkpt lat="46.16771" lon="-1.24967">
        <ele>32.7</ele>
        <time>2020-06-02T08:03:18Z</time>
      </trkpt>
      <trkpt lat="46.16774" lon="-1.2496">
        <ele>32.9</ele>
        <time>2020-06-02T08:03:19Z</time>
      </trkpt>
      <trkpt lat="46.16777" lon="-1.24953">
        <ele>33.1</ele>
        <time>2020-06-02T08:03:20Z</time>
      </trkpt>
      <trkpt lat="46.16781" lon="-1.24946">
        <ele>33.4</ele>
        <time>2020-06-02T08:03:21Z</time>
      </trkpt>
      <trkpt lat="46.16784" lon="-1.2494">
        <ele>33.6</ele>
        <time>2020-06-02T08:03:22Z</time>
      </trkpt>
      <trkpt lat="46.16789" lon="-1.24932">
        <ele>33.8</ele>
        <time>2020-06-02T08:03:23Z</time>
      </trkpt>
      <trkpt lat="46.16792" lon="-1.24925">
        <ele>34</ele>
        <time>2020-06-02T08:03:24Z</time>
      </trkpt>
      <trkpt lat="46.16795" lon="-1.24918">
        <ele>34.2</ele>
        <time>2020-06-02T08:03:25Z</time>
      </trkpt>
      <trkpt lat="46.16799" lon="-1.24911">
        <ele>34.3</ele>
        <time>2020-06-02T08:03:26Z</time>
      </trkpt>
      <trkpt lat="46.16802" lon="-1.24904">
        <ele>34.5</ele>
        <time>2020-06-02T08:03:27Z</time>
      </trkpt>
      <trkpt lat="46.16805" lon="-1.24897">
        <ele>34.7</ele>
        <time>2020-06-02T08:03:28Z</time>
      </trkpt>
      <trkpt lat="46.16808" lon="-1.2489">
        <ele>34.9</ele>
        <time>2020-06-02T08:03:29Z</time>
      </trkpt>
      <trkpt lat="46.16812" lon="-1.24883">
        <ele>35.1</ele>
        <time>2020-06-02T08:03:30Z</time>
      </trkpt>
      <trkpt lat="46.16815" lon="-1.24875">
        <ele>35.2</ele>
        <time>2020-06-02T08:03:31Z</time>
      </trkpt>
      <trkpt lat="46.16818" lon="-1.24868">
        <ele>35.4</ele>
        <time>2020-06-02T08:03:32Z</time>
      </trkpt>
      <trkpt lat="46.16822" lon="-1.24861">
        <ele>35.6</ele>
        <time>2020-06-02T08:03:33Z</time>
      </trkpt>
      <trkpt lat="46.16827" lon="-1.24853">
        <ele>35.7</ele>
        <time>2020-06-02T08:03:34Z</time>
      </trkpt>
      <trkpt lat="46.16829" lon="-1.24845">
        <ele>35.9</ele>
        <time>2020-06-02T08:03:35Z</time>
      </trkpt>
      <trkpt lat="46.16833" lon="-1.24836">
        <ele>36</ele>
        <time>2020-06-02T08:03:36Z</time>
      </trkpt>
      <trkpt lat="46.16836" lon="-1.24829">
        <ele>36.2</ele>
        <time>2020-06-02T08:03:37Z</time>
      </trkpt>
      <trkpt lat="46.16841" lon="-1.24822">
        <ele>36.3</ele>
        <time>2020-06-02T08:03:38Z</time>
      </trkpt>
      <trkpt lat="46.16844" lon="-1.24816">
        <ele>36.4</ele>
        <time>2020-06-02T08:03:39Z</time>
      </trkpt>
      <trkpt lat="46.16847" lon="-1.2481">
        <ele>36.6</ele>
        <time>2020-06-02T08:03:40Z</time>
      </trkpt>
      <trkpt lat="46.1685" lon="-1.24803">
        <ele>36.7</ele>
        <time>2020-06-02T08:03:41Z</time>
      </trkpt>
      <trkpt lat="46.16853" lon="-1.24797">
        <ele>36.9</ele>
        <time>2020-06-02T08:03:42Z</time>
      </trkpt>
      <trkpt lat="46.16856" lon="-1.24791">
        <ele>37</ele>
        <time>2020-06-02T08:03:43Z</time>
      </trkpt>
      <trkpt lat="46.16859" lon="-1.24784">
        <ele>37.2</ele>
        <time>2020-06-02T08:03:44Z</time>
      </trkpt>
      <trkpt lat="46.16861" lon="-1.24779">
        <ele>37.3</ele>
        <time>2020-06-02T08:03:45Z</time>
      </trkpt>
      <trkpt lat="46.16864" lon="-1.24773">
        <ele>37.4</ele>
        <time>2020-06-02T08:03:46Z</time>
      </trkpt>
      <trkpt lat="46.16867" lon="-1.24766">
        <ele>37.5</ele>
        <time>2020-06-02T08:03:47Z</time>
      </trkpt>
      <trkpt lat="46.1687" lon="-1.2476">
        <ele>37.7</ele>
        <time>2020-06-02T08:03:48Z</time>
      </trkpt>
      <trkpt lat="46.16872" lon="-1.24754">
        <ele>37.8</ele>
        <time>2020-06-02T08:03:49Z</time>
      </trkpt>
      <trkpt lat="46.16875" lon="-1.24749">
        <ele>37.9</ele>
        <time>2020-06-02T08:03:50Z</time>
      </trkpt>
      <trkpt lat="46.16878" lon="-1.24745">
        <ele>38</ele>
        <time>2020-06-02T08:03:51Z</time>
      </trkpt>
      <trkpt lat="46.16881" lon="-1.2474">
        <ele>38.1</ele>
        <time>2020-06-02T08:03:52Z</time>
      </trkpt>
      <trkpt lat="46.16883" lon="-1.24734">
        <ele>38.2</ele>
        <time>2020-06-02T08:03:53Z</time>
      </trkpt>
      <trkpt lat="46.16887" lon="-1.24726">
        <ele>38.3</ele>
        <time>2020-06-02T08:03:54Z</time>
      </trkpt>
      <trkpt lat="46.16889" lon="-1.24719">
        <ele>38.4</ele>
        <time>2020-06-02T08:03:55Z</time>
      </trkpt>
      <trkpt lat="46.16892" lon="-1.24713">
        <ele>38.5</ele>
        <time>2020-06-02T08:03:56Z</time>
      </trkpt>
      <trkpt lat="46.16895" lon="-1.24707">
        <ele>38.5</ele>
        <time>2020-06-02T08:03:57Z</time>
      </trkpt>
      <trkpt lat="46.16897" lon="-1.24702">
        <ele>38.6</ele>
        <time>2020-06-02T08:03:58Z</time>
      </trkpt>
      <trkpt lat="46.169" lon="-1.24698">
        <ele>38.6</ele>
        <time>2020-06-02T08:03:59Z</time>
      </trkpt>
      <trkpt lat="46.16903" lon="-1.24691">
        <ele>38.7</ele>
        <time>2020-06-02T08:04:00Z</time>
      </trkpt>
      <trkpt lat="46.16906" lon="-1.24686">
        <ele>38.8</ele>
        <time>2020-06-02T08:04:01Z</time>
      </trkpt>
      <trkpt lat="46.16908" lon="-1.2468">
        <ele>38.9</ele>
        <time>2020-06-02T08:04:02Z</time>
      </trkpt>
      <trkpt lat="46.16911" lon="-1.24672">
        <ele>39</ele>
        <time>2020-06-02T08:04:03Z</time>
      </trkpt>
      <trkpt lat="46.16913" lon="-1.24665">
        <ele>39.1</ele>
        <time>2020-06-02T08:04:04Z</time>
      </trkpt>
      <trkpt lat="46.16915" lon="-1.24661">
        <ele>39.2</ele>
        <time>2020-06-02T08:04:05Z</time>
      </trkpt>
      <trkpt lat="46.16918" lon="-1.24655">
        <ele>39.3</ele>
        <time>2020-06-02T08:04:06Z</time>
      </trkpt>
      <trkpt lat="46.16921" lon="-1.24649">
        <ele>39.4</ele>
        <time>2020-06-02T08:04:07Z</time>
      </trkpt>
      <trkpt lat="46.16923" lon="-1.24645">
        <ele>39.5</ele>
        <time>2020-06-02T08:04:08Z</time>
      </trkpt>
      <trkpt lat="46.16926" lon="-1.24639">
        <ele>39.6</ele>
        <time>2020-06-02T08:04:09Z</time>
      </trkpt>
      <trkpt lat="46.16929" lon="-1.24634">
        <ele>39.6</ele>
        <time>2020-06-02T08:04:10Z</time>
      </trkpt>
      <trkpt lat="46.16931" lon="-1.24629">
        <ele>39.7</ele>
        <time>2020-06-02T08:04:11Z</time>
      </trkpt>
      <trkpt lat="46.16935" lon="-1.24621">
        <ele>39.7</ele>
        <time>2020-06-02T08:04:12Z</time>
      </trkpt>
      <trkpt lat="46.16936" lon="-1.24614">
        <ele>39.8</ele>
        <time>2020-06-02T08:04:13Z</time>
      </trkpt>
      <trkpt lat="46.16939" lon="-1.24608">
        <ele>39.8</ele>
        <time>2020-06-02T08:04:14Z</time>
      </trkpt>
      <trkpt lat="46.16943" lon="-1.24603">
        <ele>39.8</ele>
        <time>2020-06-02T08:04:15Z</time>
      </trkpt>
      <trkpt lat="46.16946" lon="-1.24595">
        <ele>39.9</ele>
        <time>2020-06-02T08:04:16Z</time>
      </trkpt>
      <trkpt lat="46.16949" lon="-1.24588">
        <ele>39.9</ele>
        <time>2020-06-02T08:04:17Z</time>
      </trkpt>
      <trkpt lat="46.16951" lon="-1.24584">
        <ele>39.9</ele>
        <time>2020-06-02T08:04:18Z</time>
      </trkpt>
      <trkpt lat="46.16954" lon="-1.24577">
        <ele>40</ele>
        <time>2020-06-02T08:04:19Z</time>
      </trkpt>
      <trkpt lat="46.16957" lon="-1.24571">
        <ele>40</ele>
        <time>2020-06-02T08:04:20Z</time>
      </trkpt>
      <trkpt lat="46.16959" lon="-1.24565">
        <ele>40.1</ele>
        <time>2020-06-02T08:04:21Z</time>
      </trkpt>
      <trkpt lat="46.16962" lon="-1.24558">
        <ele>40.1</ele>
        <time>2020-06-02T08:04:22Z</time>
      </trkpt>
      <trkpt lat="46.16964" lon="-1.24552">
        <ele>40.2</ele>
        <time>2020-06-02T08:04:23Z</time>
      </trkpt>
      <trkpt lat="46.16968" lon="-1.24545">
        <ele>40.3</ele>
        <time>2020-06-02T08:04:24Z</time>
      </trkpt>
      <trkpt lat="46.16971" lon="-1.24538">
        <ele>40.4</ele>
        <time>2020-06-02T08:04:25Z</time>
      </trkpt>
      <trkpt lat="46.16974" lon="-1.24532">
        <ele>40.5</ele>
        <time>2020-06-02T08:04:26Z</time>
      </trkpt>
      <trkpt lat="46.16976" lon="-1.24527">
        <ele>40.5</ele>
        <time>2020-06-02T08:04:27Z</time>
      </trkpt>
      <trkpt lat="46.16978" lon="-1.24518">
        <ele>40.6</ele>
        <time>2020-06-02T08:04:28Z</time>
      </trkpt>
      <trkpt lat="46.16981" lon="-1.24511">
        <ele>40.7</ele>
        <time>2020-06-02T08:04:29Z</time>
      </trkpt>
      <trkpt lat="46.16983" lon="-1.24505">
        <ele>40.7</ele>
        <time>2020-06-02T08:04:30Z</time>
      </trkpt>
      <trkpt lat="46.16985" lon="-1.24498">
        <ele>40.7</ele>
        <time>2020-06-02T08:04:31Z</time>
      </trkpt>
      <trkpt lat="46.16989" lon="-1.2449">
        <ele>40.8</ele>
        <time>2020-06-02T08:04:32Z</time>
      </trkpt>
      <trkpt lat="46.16991" lon="-1.24484">
        <ele>40.8</ele>
        <time>2020-06-02T08:04:33Z</time>
      </trkpt>
      <trkpt lat="46.16994" lon="-1.24478">
        <ele>40.8</ele>
        <time>2020-06-02T08:04:34Z</time>
      </trkpt>
      <trkpt lat="46.16996" lon="-1.24472">
        <ele>40.8</ele>
        <time>2020-06-02T08:04:35Z</time>
      </trkpt>
      <trkpt lat="46.16998" lon="-1.24468">
        <ele>40.8</ele>
        <time>2020-06-02T08:04:36Z</time>
      </trkpt>
      <trkpt lat="46.17" lon="-1.24463">
        <ele>40.8</ele>
        <time>2020-06-02T08:04:37Z</time>
      </trkpt>
      <trkpt lat="46.17002" lon="-1.24457">
        <ele>40.8</ele>
        <time>2020-06-02T08:04:38Z</time>
      </trkpt>
      <trkpt lat="46.17004" lon="-1.24451">
        <ele>40.8</ele>
        <time>2020-06-02T08:04:39Z</time>
      </trkpt>
      <trkpt lat="46.17008" lon="-1.24444">
        <ele>40.9</ele>
        <time>2020-06-02T08:04:40Z</time>
      </trkpt>
      <trkpt lat="46.17011" lon="-1.24438">
        <ele>40.9</ele>
        <time>2020-06-02T08:04:41Z</time>
      </trkpt>
      <trkpt lat="46.17014" lon="-1.24432">
        <ele>40.9</ele>
        <time>2020-06-02T08:04:42Z</time>
      </trkpt>
      <trkpt lat="46.17017" lon="-1.24426">
        <ele>40.9</ele>
        <time>2020-06-02T08:04:43Z</time>
      </trkpt>
      <trkpt lat="46.1702" lon="-1.2442">
        <ele>40.9</ele>
        <time>2020-06-02T08:04:44Z</time>
      </trkpt>
      <trkpt lat="46.17022" lon="-1.24414">
        <ele>41</ele>
        <time>2020-06-02T08:04:45Z</time>
      </trkpt>
      <trkpt lat="46.17024" lon="-1.24408">
        <ele>41</ele>
        <time>2020-06-02T08:04:46Z</time>
      </trkpt>
      <trkpt lat="46.17026" lon="-1.24403">
        <ele>41</ele>
        <time>2020-06-02T08:04:47Z</time>
      </trkpt>
      <trkpt lat="46.17029" lon="-1.24395">
        <ele>41</ele>
        <time>2020-06-02T08:04:48Z</time>
      </trkpt>
      <trkpt lat="46.17032" lon="-1.24391">
        <ele>41</ele>
        <time>2020-06-02T08:04:49Z</time>
      </trkpt>
      <trkpt lat="46.17035" lon="-1.24384">
        <ele>41</ele>
        <time>2020-06-02T08:04:50Z</time>
      </trkpt>
      <trkpt lat="46.17037" lon="-1.2438">
        <ele>41</ele>
        <time>2020-06-02T08:04:51Z</time>
      </trkpt>
      <trkpt lat="46.1704" lon="-1.24374">
        <ele>41</ele>
        <time>2020-06-02T08:04:52Z</time>
      </trkpt>
      <trkpt lat="46.17041" lon="-1.24368">
        <ele>41.1</ele>
        <time>2020-06-02T08:04:53Z</time>
      </trkpt>
      <trkpt lat="46.17042" lon="-1.24363">
        <ele>41.1</ele>
        <time>2020-06-02T08:04:54Z</time>
      </trkpt>
      <trkpt lat="46.17045" lon="-1.24357">
        <ele>41.1</ele>
        <time>2020-06-02T08:04:55Z</time>
      </trkpt>
      <trkpt lat="46.17048" lon="-1.24351">
        <ele>41.1</ele>
        <time>2020-06-02T08:04:56Z</time>
      </trkpt>
      <trkpt lat="46.1705" lon="-1.24345">
        <ele>41.1</ele>
        <time>2020-06-02T08:04:57Z</time>
      </trkpt>
      <trkpt lat="46.17052" lon="-1.2434">
        <ele>41</ele>
        <time>2020-06-02T08:04:58Z</time>
      </trkpt>
      <trkpt lat="46.17054" lon="-1.24335">
        <ele>41</ele>
        <time>2020-06-02T08:04:59Z</time>
      </trkpt>
      <trkpt lat="46.17056" lon="-1.24329">
        <ele>41</ele>
        <time>2020-06-02T08:05:00Z</time>
      </trkpt>
      <trkpt lat="46.17058" lon="-1.24325">
        <ele>41</ele>
        <time>2020-06-02T08:05:01Z</time>
      </trkpt>
      <trkpt lat="46.1706" lon="-1.24318">
        <ele>41</ele>
        <time>2020-06-02T08:05:02Z</time>
      </trkpt>
      <trkpt lat="46.17062" lon="-1.24314">
        <ele>41</ele>
        <time>2020-06-02T08:05:03Z</time>
      </trkpt>
      <trkpt lat="46.17064" lon="-1.24309">
        <ele>41</ele>
        <time>2020-06-02T08:05:04Z</time>
      </trkpt>
      <trkpt lat="46.17064" lon="-1.24304">
        <ele>41</ele>
        <time>2020-06-02T08:05:05Z</time>
      </trkpt>
      <trkpt lat="46.17066" lon="-1.24299">
        <ele>41</ele>
        <time>2020-06-02T08:05:06Z</time>
      </trkpt>
      <trkpt lat="46.17068" lon="-1.24296">
        <ele>41</ele>
        <time>2020-06-02T08:05:07Z</time>
      </trkpt>
      <trkpt lat="46.1707" lon="-1.24291">
        <ele>41</ele>
        <time>2020-06-02T08:05:08Z</time>
      </trkpt>
      <trkpt lat="46.17071" lon="-1.24287">
        <ele>41</ele>
        <time>2020-06-02T08:05:09Z</time>
      </trkpt>
      <trkpt lat="46.17072" lon="-1.24286">
        <ele>41</ele>
        <time>2020-06-02T08:05:10Z</time>
      </trkpt>
      <trkpt lat="46.17072" lon="-1.24285">
        <ele>41</ele>
        <time>2020-06-02T08:05:11Z</time>
      </trkpt>
      <trkpt lat="46.17072" lon="-1.24283">
        <ele>41</ele>
        <time>2020-06-02T08:05:12Z</time>
      </trkpt>
      <trkpt lat="46.17071" lon="-1.24285">
        <ele>41</ele>
        <time>2020-06-02T08:05:13Z</time>
      </trkpt>
      <trkpt lat="46.17071" lon="-1.24284">
        <ele>41</ele>
        <time>2020-06-02T08:05:14Z</time>
      </trkpt>
      <trkpt lat="46.17071" lon="-1.24284">
        <ele>41</ele>
        <time>2020-06-02T08:05:15Z</time>
      </trkpt>
      <trkpt lat="46.17071" lon="-1.24284">
        <ele>41</ele>
        <time>2020-06-02T08:05:16Z</time>
      </trkpt>
      <trkpt lat="46.17071" lon="-1.24284">
        <ele>41</ele>
        <time>2020-06-02T08:05:17Z</time>
      </trkpt>
      <trkpt lat="46.17071" lon="-1.24284">
        <ele>41</ele>
        <time>2020-06-02T08:05:18Z</time>
      </trkpt>
      <trkpt lat="46.17071" lon="-1.24284">
        <ele>41</ele>
        <time>2020-06-02T08:05:19Z</time>
      </trkpt>
      <trkpt lat="46.17071" lon="-1.24284">
        <ele>41</ele>
        <time>2020-06-02T08:05:20Z</time>
      </trkpt>
      <trkpt lat="46.17071" lon="-1.24284">
        <ele>41</ele>
        <time>2020-06-02T08:05:21Z</time>
      </trkpt>
      <trkpt lat="46.17071" lon="-1.24284">
        <ele>41</ele>
        <time>2020-06-02T08:05:22Z</time>
      </trkpt>
      <trkpt lat="46.17071" lon="-1.24284">
        <ele>41</ele>
        <time>2020-06-02T08:05:23Z</time>
      </trkpt>
      <trkpt lat="46.17071" lon="-1.24284">
        <ele>41</ele>
        <time>2020-06-02T08:05:24Z</time>
      </trkpt>
      <trkpt lat="46.17071" lon="-1.24284">
        <ele>41</ele>
        <time>2020-06-02T08:05:25Z</time>
      </trkpt>
      <trkpt lat="46.17071" lon="-1.24284">
        <ele>41</ele>
        <time>2020-06-02T08:05:26Z</time>
      </trkpt>
      <trkpt lat="46.17071" lon="-1.24284">
        <ele>41</ele>
        <time>2020-06-02T08:05:27Z</time>
      </trkpt>
      <trkpt lat="46.17071" lon="-1.24284">
        <ele>41</ele>
        <time>2020-06-02T08:05:28Z</time>
      </trkpt>
      <trkpt lat="46.17071" lon="-1.24284">
        <ele>41</ele>
        <time>2020-06-02T08:05:29Z</time>
      </trkpt>
      <trkpt lat="46.17071" lon="-1.24284">
        <ele>41</ele>
        <time>2020-06-02T08:05:30Z</time>
      </trkpt>
      <trkpt lat="46.17071" lon="-1.24284">
        <ele>41</ele>
        <time>2020-06-02T08:05:31Z</time>
      </trkpt>
      <trkpt lat="46.17071" lon="-1.24284">
        <ele>41</ele>
        <time>2020-06-02T08:05:32Z</time>
      </trkpt>
      <trkpt lat="46.17071" lon="-1.24284">
        <ele>41</ele>
        <time>2020-06-02T08:05:33Z</time>
      </trkpt>
      <trkpt lat="46.17071" lon="-1.24284">
        <ele>41</ele>
        <time>2020-06-02T08:05:34Z</time>
      </trkpt>
      <trkpt lat="46.17071" lon="-1.24284">
        <ele>41</ele>
        <time>2020-06-02T08:05:35Z</time>
      </trkpt>
      <trkpt lat="46.17071" lon="-1.24284">
        <ele>41</ele>
        <time>2020-06-02T08:05:36Z</time>
      </trkpt>
      <trkpt lat="46.17071" lon="-1.24284">
        <ele>41</ele>
        <time>2020-06-02T08:05:37Z</time>
      </trkpt>
      <trkpt lat="46.17071" lon="-1.24284">
        <ele>41</ele>
        <time>2020-06-02T08:05:38Z</time>
      </trkpt>
      <trkpt lat="46.17071" lon="-1.24283">
        <ele>41</ele>
        <time>2020-06-02T08:05:39Z</time>
      </trkpt>
      <trkpt lat="46.17071" lon="-1.24283">
        <ele>41</ele>
        <time>2020-06-02T08:05:40Z</time>
      </trkpt>
      <trkpt lat="46.17071" lon="-1.24283">
        <ele>41</ele>
        <time>2020-06-02T08:05:41Z</time>
      </trkpt>
      <trkpt lat="46.17071" lon="-1.24283">
        <ele>41</ele>
        <time>2020-06-02T08:05:42Z</time>
      </trkpt>
      <trkpt lat="46.17071" lon="-1.24283">
        <ele>41</ele>
        <time>2020-06-02T08:05:43Z</time>
      </trkpt>
      <trkpt lat="46.17071" lon="-1.24283">
        <ele>41</ele>
        <time>2020-06-02T08:05:44Z</time>
      </trkpt>
      <trkpt lat="46.17071" lon="-1.24283">
        <ele>41</ele>
        <time>2020-06-02T08:05:45Z</time>
      </trkpt>
      <trkpt lat="46.17071" lon="-1.24283">
        <ele>41</ele>
        <time>2020-06-02T08:05:46Z</time>
      </trkpt>
      <trkpt lat="46.17071" lon="-1.24283">
        <ele>41</ele>
        <time>2020-06-02T08:05:47Z</time>
      </trkpt>
      <trkpt lat="46.17071" lon="-1.24283">
        <ele>41</ele>
        <time>2020-06-02T08:05:48Z</time>
      </trkpt>
      <trkpt lat="46.17071" lon="-1.24283">
        <ele>41</ele>
        <time>2020-06-02T08:05:49Z</time>
      </trkpt>
      <trkpt lat="46.17072" lon="-1.24283">
        <ele>41</ele>
        <time>2020-06-02T08:05:50Z</time>
      </trkpt>
      <trkpt lat="46.17072" lon="-1.24283">
        <ele>41</ele>
        <time>2020-06-02T08:05:51Z</time>
      </trkpt>
      <trkpt lat="46.17072" lon="-1.24283">
        <ele>41</ele>
        <time>2020-06-02T08:05:52Z</time>
      </trkpt>
      <trkpt lat="46.17072" lon="-1.24283">
        <ele>41</ele>
        <time>2020-06-02T08:05:53Z</time>
      </trkpt>
      <trkpt lat="46.17072" lon="-1.24283">
        <ele>41</ele>
        <time>2020-06-02T08:05:54Z</time>
      </trkpt>
      <trkpt lat="46.17072" lon="-1.24283">
        <ele>41</ele>
        <time>2020-06-02T08:05:55Z</time>
      </trkpt>
      <trkpt lat="46.17072" lon="-1.24283">
        <ele>41</ele>
        <time>2020-06-02T08:05:56Z</time>
      </trkpt>
      <trkpt lat="46.17072" lon="-1.24283">
        <ele>41</ele>
        <time>2020-06-02T08:05:57Z</time>
      </trkpt>
      <trkpt lat="46.17072" lon="-1.24283">
        <ele>41</ele>
        <time>2020-06-02T08:05:58Z</time>
      </trkpt>
      <trkpt lat="46.17072" lon="-1.24283">
        <ele>41</ele>
        <time>2020-06-02T08:05:59Z</time>
      </trkpt>
      <trkpt lat="46.17072" lon="-1.24283">
        <ele>41</ele>
        <time>2020-06-02T08:06:00Z</time>
      </trkpt>
      <trkpt lat="46.17072" lon="-1.24283">
        <ele>41</ele>
        <time>2020-06-02T08:06:01Z</time>
      </trkpt>
      <trkpt lat="46.17072" lon="-1.24283">
        <ele>41</ele>
        <time>2020-06-02T08:06:02Z</time>
      </trkpt>
      <trkpt lat="46.17072" lon="-1.24282">
        <ele>41</ele>
        <time>2020-06-02T08:06:03Z</time>
      </trkpt>
      <trkpt lat="46.17072" lon="-1.24282">
        <ele>41</ele>
        <time>2020-06-02T08:06:04Z</time>
      </trkpt>
      <trkpt lat="46.17072" lon="-1.24282">
        <ele>41</ele>
        <time>2020-06-02T08:06:05Z</time>
      </trkpt>
      <trkpt lat="46.17072" lon="-1.24282">
        <ele>41</ele>
        <time>2020-06-02T08:06:06Z</time>
      </trkpt>
      <trkpt lat="46.17072" lon="-1.24282">
        <ele>41</ele>
        <time>2020-06-02T08:06:07Z</time>
      </trkpt>
      <trkpt lat="46.17072" lon="-1.24282">
        <ele>41</ele>
        <time>2020-06-02T08:06:08Z</time>
      </trkpt>
      <trkpt lat="46.17072" lon="-1.24282">
        <ele>41</ele>
        <time>2020-06-02T08:06:09Z</time>
      </trkpt>
      <trkpt lat="46.17072" lon="-1.24282">
        <ele>41</ele>
        <time>2020-06-02T08:06:10Z</time>
      </trkpt>
      <trkpt lat="46.17072" lon="-1.24282">
        <ele>41</ele>
        <time>2020-06-02T08:06:11Z</time>
      </trkpt>
      <trkpt lat="46.17072" lon="-1.24282">
        <ele>41</ele>
        <time>2020-06-02T08:06:12Z</time>
      </trkpt>
      <trkpt lat="46.17072" lon="-1.24282">
        <ele>41</ele>
        <time>2020-06-02T08:06:13Z</time>
      </trkpt>
      <trkpt lat="46.17072" lon="-1.24282">
        <ele>41</ele>
        <time>2020-06-02T08:06:14Z</time>
      </trkpt>
      <trkpt lat="46.17072" lon="-1.24282">
        <ele>41</ele>
        <time>2020-06-02T08:06:15Z</time>
      </trkpt>
      <trkpt lat="46.17072" lon="-1.24282">
        <ele>41</ele>
        <time>2020-06-02T08:06:16Z</time>
      </trkpt>
      <trkpt lat="46.17072" lon="-1.24282">
        <ele>41</ele>
        <time>2020-06-02T08:06:17Z</time>
      </trkpt>
      <trkpt lat="46.17072" lon="-1.24282">
        <ele>41</ele>
        <time>2020-06-02T08:06:18Z</time>
      </trkpt>
      <trkpt lat="46.17072" lon="-1.24282">
        <ele>41</ele>
        <time>2020-06-02T08:06:19Z</time>
      </trkpt>
      <trkpt lat="46.17072" lon="-1.24282">
        <ele>41</ele>
        <time>2020-06-02T08:06:20Z</time>
      </trkpt>
      <trkpt lat="46.17072" lon="-1.24282">
        <ele>41</ele>
        <time>2020-06-02T08:06:21Z</time>
      </trkpt>
      <trkpt lat="46.17072" lon="-1.24282">
        <ele>41</ele>
        <time>2020-06-02T08:06:22Z</time>
      </trkpt>
      <trkpt lat="46.17072" lon="-1.24282">
        <ele>41</ele>
        <time>2020-06-02T08:06:23Z</time>
      </trkpt>
      <trkpt lat="46.17072" lon="-1.24282">
        <ele>41</ele>
        <time>2020-06-02T08:06:24Z</time>
      </trkpt>
      <trkpt lat="46.17072" lon="-1.24282">
        <ele>41</ele>
        <time>2020-06-02T08:06:25Z</time>
      </trkpt>
      <trkpt lat="46.17072" lon="-1.24282">
        <ele>41</ele>
        <time>2020-06-02T08:06:26Z</time>
      </trkpt>
      <trkpt lat="46.17072" lon="-1.24282">
        <ele>41</ele>
        <time>2020-06-02T08:06:27Z</time>
      </trkpt>
      <trkpt lat="46.17072" lon="-1.24281">
        <ele>41</ele>
        <time>2020-06-02T08:06:28Z</time>
      </trkpt>
      <trkpt lat="46.17072" lon="-1.24281">
        <ele>41</ele>
        <time>2020-06-02T08:06:29Z</time>
      </trkpt>
      <trkpt lat="46.17072" lon="-1.24281">
        <ele>41</ele>
        <time>2020-06-02T08:06:30Z</time>
      </trkpt>
      <trkpt lat="46.17072" lon="-1.24281">
        <ele>41</ele>
        <time>2020-06-02T08:06:31Z</time>
      </trkpt>
      <trkpt lat="46.17072" lon="-1.24281">
        <ele>41</ele>
        <time>2020-06-02T08:06:32Z</time>
      </trkpt>
      <trkpt lat="46.17072" lon="-1.24281">
        <ele>41</ele>
        <time>2020-06-02T08:06:33Z</time>
      </trkpt>
      <trkpt lat="46.17072" lon="-1.24281">
        <ele>41</ele>
        <time>2020-06-02T08:06:34Z</time>
      </trkpt>
      <trkpt lat="46.17072" lon="-1.24281">
        <ele>41</ele>
        <time>2020-06-02T08:06:35Z</time>
      </trkpt>
      <trkpt lat="46.17072" lon="-1.24281">
        <ele>41</ele>
        <time>2020-06-02T08:06:36Z</time>
      </trkpt>
      <trkpt lat="46.17072" lon="-1.24281">
        <ele>41</ele>
        <time>2020-06-02T08:06:37Z</time>
      </trkpt>
      <trkpt lat="46.17072" lon="-1.24281">
        <ele>41</ele>
        <time>2020-06-02T08:06:38Z</time>
      </trkpt>
      <trkpt lat="46.17072" lon="-1.24281">
        <ele>41</ele>
        <time>2020-06-02T08:06:39Z</time>
      </trkpt>
      <trkpt lat="46.17072" lon="-1.24281">
        <ele>41</ele>
        <time>2020-06-02T08:06:40Z</time>
      </trkpt>
      <trkpt lat="46.17072" lon="-1.24281">
        <ele>41</ele>
        <time>2020-06-02T08:06:41Z</time>
      </trkpt>
      <trkpt lat="46.17072" lon="-1.24281">
        <ele>41</ele>
        <time>2020-06-02T08:06:42Z</time>
      </trkpt>
      <trkpt lat="46.17072" lon="-1.24281">
        <ele>41</ele>
        <time>2020-06-02T08:06:43Z</time>
      </trkpt>
      <trkpt lat="46.17072" lon="-1.24281">
        <ele>41</ele>
        <time>2020-06-02T08:06:44Z</time>
      </trkpt>
      <trkpt lat="46.17072" lon="-1.24281">
        <ele>41</ele>
        <time>2020-06-02T08:06:45Z</time>
      </trkpt>
      <trkpt lat="46.17072" lon="-1.24281">
        <ele>41</ele>
        <time>2020-06-02T08:06:46Z</time>
      </trkpt>
      <trkpt lat="46.17072" lon="-1.24281">
        <ele>41</ele>
        <time>2020-06-02T08:06:47Z</time>
      </trkpt>
      <trkpt lat="46.17072" lon="-1.24281">
        <ele>41</ele>
        <time>2020-06-02T08:06:48Z</time>
      </trkpt>
      <trkpt lat="46.17072" lon="-1.24281">
        <ele>41</ele>
        <time>2020-06-02T08:06:49Z</time>
      </trkpt>
      <trkpt lat="46.17072" lon="-1.24281">
        <ele>41</ele>
        <time>2020-06-02T08:06:50Z</time>
      </trkpt>
      <trkpt lat="46.17072" lon="-1.24281">
        <ele>41</ele>
        <time>2020-06-02T08:06:51Z</time>
      </trkpt>
      <trkpt lat="46.17072" lon="-1.24281">
        <ele>41</ele>
        <time>2020-06-02T08:06:52Z</time>
      </trkpt>
      <trkpt lat="46.17072" lon="-1.2428">
        <ele>41</ele>
        <time>2020-06-02T08:06:53Z</time>
      </trkpt>
      <trkpt lat="46.17072" lon="-1.2428">
        <ele>41</ele>
        <time>2020-06-02T08:06:54Z</time>
      </trkpt>
      <trkpt lat="46.17072" lon="-1.2428">
        <ele>41</ele>
        <time>2020-06-02T08:06:55Z</time>
      </trkpt>
      <trkpt lat="46.17072" lon="-1.2428">
        <ele>41</ele>
        <time>2020-06-02T08:06:56Z</time>
      </trkpt>
      <trkpt lat="46.17073" lon="-1.2428">
        <ele>41</ele>
        <time>2020-06-02T08:06:57Z</time>
      </trkpt>
      <trkpt lat="46.17073" lon="-1.2428">
        <ele>41</ele>
        <time>2020-06-02T08:06:58Z</time>
      </trkpt>
      <trkpt lat="46.17073" lon="-1.2428">
        <ele>41</ele>
        <time>2020-06-02T08:06:59Z</time>
      </trkpt>
      <trkpt lat="46.17073" lon="-1.2428">
        <ele>41</ele>
        <time>2020-06-02T08:07:00Z</time>
      </trkpt>
      <trkpt lat="46.17073" lon="-1.2428">
        <ele>41</ele>
        <time>2020-06-02T08:07:01Z</time>
      </trkpt>
      <trkpt lat="46.17073" lon="-1.2428">
        <ele>41</ele>
        <time>2020-06-02T08:07:02Z</time>
      </trkpt>
      <trkpt lat="46.17073" lon="-1.2428">
        <ele>41</ele>
        <time>2020-06-02T08:07:03Z</time>
      </trkpt>
      <trkpt lat="46.17073" lon="-1.2428">
        <ele>41</ele>
        <time>2020-06-02T08:07:04Z</time>
      </trkpt>
      <trkpt lat="46.17073" lon="-1.2428">
        <ele>41</ele>
        <time>2020-06-02T08:07:05Z</time>
      </trkpt>
      <trkpt lat="46.17073" lon="-1.2428">
        <ele>41</ele>
        <time>2020-06-02T08:07:06Z</time>
      </trkpt>
      <trkpt lat="46.17073" lon="-1.2428">
        <ele>41</ele>
        <time>2020-06-02T08:07:07Z</time>
      </trkpt>
      <trkpt lat="46.17073" lon="-1.2428">
        <ele>41</ele>
        <time>2020-06-02T08:07:08Z</time>
      </trkpt>
      <trkpt lat="46.17073" lon="-1.2428">
        <ele>41</ele>
        <time>2020-06-02T08:07:09Z</time>
      </trkpt>
      <trkpt lat="46.17073" lon="-1.2428">
        <ele>41</ele>
        <time>2020-06-02T08:07:10Z</time>
      </trkpt>
      <trkpt lat="46.17073" lon="-1.2428">
        <ele>41</ele>
        <time>2020-06-02T08:07:11Z</time>
      </trkpt>
      <trkpt lat="46.17073" lon="-1.2428">
        <ele>41</ele>
        <time>2020-06-02T08:07:12Z</time>
      </trkpt>
      <trkpt lat="46.17073" lon="-1.2428">
        <ele>41</ele>
        <time>2020-06-02T08:07:13Z</time>
      </trkpt>
      <trkpt lat="46.17073" lon="-1.2428">
        <ele>41</ele>
        <time>2020-06-02T08:07:14Z</time>
      </trkpt>
      <trkpt lat="46.17073" lon="-1.2428">
        <ele>41</ele>
        <time>2020-06-02T08:07:15Z</time>
      </trkpt>
      <trkpt lat="46.17073" lon="-1.2428">
        <ele>41</ele>
        <time>2020-06-02T08:07:16Z</time>
      </trkpt>
      <trkpt lat="46.17073" lon="-1.2428">
        <ele>41</ele>
        <time>2020-06-02T08:07:17Z</time>
      </trkpt>
      <trkpt lat="46.17073" lon="-1.24279">
        <ele>41</ele>
        <time>2020-06-02T08:07:18Z</time>
      </trkpt>
      <trkpt lat="46.17073" lon="-1.24279">
        <ele>41</ele>
        <time>2020-06-02T08:07:19Z</time>
      </trkpt>
      <trkpt lat="46.17073" lon="-1.24279">
        <ele>41</ele>
        <time>2020-06-02T08:07:20Z</time>
      </trkpt>
      <trkpt lat="46.17073" lon="-1.24279">
        <ele>41</ele>
        <time>2020-06-02T08:07:21Z</time>
      </trkpt>
      <trkpt lat="46.17073" lon="-1.24279">
        <ele>41</ele>
        <time>2020-06-02T08:07:22Z</time>
      </trkpt>
      <trkpt lat="46.17073" lon="-1.24279">
        <ele>41</ele>
        <time>2020-06-02T08:07:23Z</time>
      </trkpt>
      <trkpt lat="46.17073" lon="-1.24279">
        <ele>41</ele>
        <time>2020-06-02T08:07:24Z</time>
      </trkpt>
      <trkpt lat="46.17073" lon="-1.24279">
        <ele>41</ele>
        <time>2020-06-02T08:07:25Z</time>
      </trkpt>
      <trkpt lat="46.17073" lon="-1.24279">
        <ele>41</ele>
        <time>2020-06-02T08:07:26Z</time>
      </trkpt>
      <trkpt lat="46.17073" lon="-1.24279">
        <ele>41</ele>
        <time>2020-06-02T08:07:27Z</time>
      </trkpt>
      <trkpt lat="46.17073" lon="-1.24279">
        <ele>41</ele>
        <time>2020-06-02T08:07:28Z</time>
      </trkpt>
      <trkpt lat="46.17073" lon="-1.24279">
        <ele>41</ele>
        <time>2020-06-02T08:07:29Z</time>
      </trkpt>
      <trkpt lat="46.17073" lon="-1.24279">
        <ele>41</ele>
        <time>2020-06-02T08:07:30Z</time>
      </trkpt>
      <trkpt lat="46.17073" lon="-1.24279">
        <ele>41</ele>
        <time>2020-06-02T08:07:31Z</time>
      </trkpt>
      <trkpt lat="46.17073" lon="-1.24279">
        <ele>41</ele>
        <time>2020-06-02T08:07:32Z</time>
      </trkpt>
      <trkpt lat="46.17073" lon="-1.24279">
        <ele>41</ele>
        <time>2020-06-02T08:07:33Z</time>
      </trkpt>
      <trkpt lat="46.17073" lon="-1.24279">
        <ele>41</ele>
        <time>2020-06-02T08:07:34Z</time>
      </trkpt>
      <trkpt lat="46.17073" lon="-1.24279">
        <ele>41</ele>
        <time>2020-06-02T08:07:35Z</time>
      </trkpt>
      <trkpt lat="46.17073" lon="-1.24279">
        <ele>41</ele>
        <time>2020-06-02T08:07:36Z</time>
      </trkpt>
      <trkpt lat="46.17073" lon="-1.24279">
        <ele>41</ele>
        <time>2020-06-02T08:07:37Z</time>
      </trkpt>
      <trkpt lat="46.17073" lon="-1.24279">
        <ele>41</ele>
        <time>2020-06-02T08:07:38Z</time>
      </trkpt>
      <trkpt lat="46.17073" lon="-1.24279">
        <ele>41</ele>
        <time>2020-06-02T08:07:39Z</time>
      </trkpt>
      <trkpt lat="46.17073" lon="-1.24279">
        <ele>41</ele>
        <time>2020-06-02T08:07:40Z</time>
      </trkpt>
      <trkpt lat="46.17073" lon="-1.24279">
        <ele>41</ele>
        <time>2020-06-02T08:07:41Z</time>
      </trkpt>
      <trkpt lat="46.17073" lon="-1.24278">
        <ele>41</ele>
        <time>2020-06-02T08:07:42Z</time>
      </trkpt>
      <trkpt lat="46.17073" lon="-1.24278">
        <ele>41</ele>
        <time>2020-06-02T08:07:43Z</time>
      </trkpt>
      <trkpt lat="46.17073" lon="-1.24278">
        <ele>41</ele>
        <time>2020-06-02T08:07:44Z</time>
      </trkpt>
      <trkpt lat="46.17073" lon="-1.24278">
        <ele>41</ele>
        <time>2020-06-02T08:07:45Z</time>
      </trkpt>
      <trkpt lat="46.17073" lon="-1.24278">
        <ele>41</ele>
        <time>2020-06-02T08:07:46Z</time>
      </trkpt>
      <trkpt lat="46.17073" lon="-1.24278">
        <ele>41</ele>
        <time>2020-06-02T08:07:47Z</time>
      </trkpt>
      <trkpt lat="46.17073" lon="-1.24278">
        <ele>41</ele>
        <time>2020-06-02T08:07:48Z</time>
      </trkpt>
      <trkpt lat="46.17073" lon="-1.24278">
        <ele>41</ele>
        <time>2020-06-02T08:07:49Z</time>
      </trkpt>
      <trkpt lat="46.17073" lon="-1.24278">
        <ele>41</ele>
        <time>2020-06-02T08:07:50Z</time>
      </trkpt>
      <trkpt lat="46.17073" lon="-1.24278">
        <ele>41</ele>
        <time>2020-06-02T08:07:51Z</time>
      </trkpt>
      <trkpt lat="46.17073" lon="-1.24278">
        <ele>41</ele>
        <time>2020-06-02T08:07:52Z</time>
      </trkpt>
      <trkpt lat="46.17073" lon="-1.24278">
        <ele>41</ele>
        <time>2020-06-02T08:07:53Z</time>
      </trkpt>
      <trkpt lat="46.17073" lon="-1.24278">
        <ele>41</ele>
        <time>2020-06-02T08:07:54Z</time>
      </trkpt>
      <trkpt lat="46.17073" lon="-1.24278">
        <ele>41</ele>
        <time>2020-06-02T08:07:55Z</time>
      </trkpt>
      <trkpt lat="46.17073" lon="-1.24278">
        <ele>41</ele>
        <time>2020-06-02T08:07:56Z</time>
      </trkpt>
      <trkpt lat="46.17073" lon="-1.24278">
        <ele>41</ele>
        <time>2020-06-02T08:07:57Z</time>
      </trkpt>
      <trkpt lat="46.17073" lon="-1.24278">
        <ele>41</ele>
        <time>2020-06-02T08:07:58Z</time>
      </trkpt>
      <trkpt lat="46.17073" lon="-1.24278">
        <ele>41</ele>
        <time>2020-06-02T08:07:59Z</time>
      </trkpt>
      <trkpt lat="46.17073" lon="-1.24278">
        <ele>41</ele>
        <time>2020-06-02T08:08:00Z</time>
      </trkpt>
      <trkpt lat="46.17073" lon="-1.24278">
        <ele>41</ele>
        <time>2020-06-02T08:08:01Z</time>
      </trkpt>
      <trkpt lat="46.17073" lon="-1.24278">
        <ele>41</ele>
        <time>2020-06-02T08:08:02Z</time>
      </trkpt>
      <trkpt lat="46.17073" lon="-1.24278">
        <ele>41</ele>
        <time>2020-06-02T08:08:03Z</time>
      </trkpt>
      <trkpt lat="46.17073" lon="-1.24278">
        <ele>41</ele>
        <time>2020-06-02T08:08:04Z</time>
      </trkpt>
      <trkpt lat="46.17074" lon="-1.24278">
        <ele>41</ele>
        <time>2020-06-02T08:08:05Z</time>
      </trkpt>
      <trkpt lat="46.17074" lon="-1.24278">
        <ele>41</ele>
        <time>2020-06-02T08:08:06Z</time>
      </trkpt>
      <trkpt lat="46.17074" lon="-1.24277">
        <ele>41</ele>
        <time>2020-06-02T08:08:07Z</time>
      </trkpt>
      <trkpt lat="46.17074" lon="-1.24277">
        <ele>41</ele>
        <time>2020-06-02T08:08:08Z</time>
      </trkpt>
      <trkpt lat="46.17076" lon="-1.24271">
        <ele>41</ele>
        <time>2020-06-02T08:08:09Z</time>
      </trkpt>
      <trkpt lat="46.17078" lon="-1.24265">
        <ele>41</ele>
        <time>2020-06-02T08:08:10Z</time>
      </trkpt>
      <trkpt lat="46.1708" lon="-1.24261">
        <ele>41</ele>
        <time>2020-06-02T08:08:11Z</time>
      </trkpt>
      <trkpt lat="46.17082" lon="-1.24255">
        <ele>40.9</ele>
        <time>2020-06-02T08:08:12Z</time>
      </trkpt>
      <trkpt lat="46.17084" lon="-1.24249">
        <ele>40.9</ele>
        <time>2020-06-02T08:08:13Z</time>
      </trkpt>
      <trkpt lat="46.17087" lon="-1.24243">
        <ele>41</ele>
        <time>2020-06-02T08:08:14Z</time>
      </trkpt>
      <trkpt lat="46.1709" lon="-1.24236">
        <ele>41</ele>
        <time>2020-06-02T08:08:15Z</time>
      </trkpt>
      <trkpt lat="46.17093" lon="-1.24231">
        <ele>41</ele>
        <time>2020-06-02T08:08:16Z</time>
      </trkpt>
      <trkpt lat="46.17096" lon="-1.24225">
        <ele>41</ele>
        <time>2020-06-02T08:08:17Z</time>
      </trkpt>
      <trkpt lat="46.17098" lon="-1.24217">
        <ele>41</ele>
        <time>2020-06-02T08:08:18Z</time>
      </trkpt>
      <trkpt lat="46.17101" lon="-1.24211">
        <ele>41</ele>
        <time>2020-06-02T08:08:19Z</time>
      </trkpt>
      <trkpt lat="46.17103" lon="-1.24203">
        <ele>41</ele>
        <time>2020-06-02T08:08:20Z</time>
      </trkpt>
      <trkpt lat="46.17106" lon="-1.24195">
        <ele>40.9</ele>
        <time>2020-06-02T08:08:21Z</time>
      </trkpt>
      <trkpt lat="46.17107" lon="-1.24192">
        <ele>40.8</ele>
        <time>2020-06-02T08:08:22Z</time>
      </trkpt>
      <trkpt lat="46.1711" lon="-1.24185">
        <ele>40.7</ele>
        <time>2020-06-02T08:08:23Z</time>
      </trkpt>
      <trkpt lat="46.17113" lon="-1.2418">
        <ele>40.7</ele>
        <time>2020-06-02T08:08:24Z</time>
      </trkpt>
      <trkpt lat="46.17116" lon="-1.24171">
        <ele>40.6</ele>
        <time>2020-06-02T08:08:25Z</time>
      </trkpt>
      <trkpt lat="46.17119" lon="-1.24164">
        <ele>40.5</ele>
        <time>2020-06-02T08:08:26Z</time>
      </trkpt>
      <trkpt lat="46.17122" lon="-1.24155">
        <ele>40.4</ele>
        <time>2020-06-02T08:08:27Z</time>
      </trkpt>
      <trkpt lat="46.17125" lon="-1.24145">
        <ele>40.3</ele>
        <time>2020-06-02T08:08:28Z</time>
      </trkpt>
      <trkpt lat="46.17129" lon="-1.24134">
        <ele>40.1</ele>
        <time>2020-06-02T08:08:29Z</time>
      </trkpt>
      <trkpt lat="46.17132" lon="-1.24125">
        <ele>40</ele>
        <time>2020-06-02T08:08:30Z</time>
      </trkpt>
      <trkpt lat="46.17134" lon="-1.24115">
        <ele>39.9</ele>
        <time>2020-06-02T08:08:31Z</time>
      </trkpt>
      <trkpt lat="46.17138" lon="-1.24105">
        <ele>39.8</ele>
        <time>2020-06-02T08:08:32Z</time>
      </trkpt>
      <trkpt lat="46.17141" lon="-1.24096">
        <ele>39.7</ele>
        <time>2020-06-02T08:08:33Z</time>
      </trkpt>
      <trkpt lat="46.17144" lon="-1.24087">
        <ele>39.5</ele>
        <time>2020-06-02T08:08:34Z</time>
      </trkpt>
      <trkpt lat="46.17148" lon="-1.24077">
        <ele>39.4</ele>
        <time>2020-06-02T08:08:35Z</time>
      </trkpt>
      <trkpt lat="46.17151" lon="-1.24067">
        <ele>39.2</ele>
        <time>2020-06-02T08:08:36Z</time>
      </trkpt>
      <trkpt lat="46.17154" lon="-1.24057">
        <ele>39.1</ele>
        <time>2020-06-02T08:08:37Z</time>
      </trkpt>
      <trkpt lat="46.17158" lon="-1.24047">
        <ele>39</ele>
        <time>2020-06-02T08:08:38Z</time>
      </trkpt>
      <trkpt lat="46.17162" lon="-1.24037">
        <ele>38.9</ele>
        <time>2020-06-02T08:08:39Z</time>
      </trkpt>
      <trkpt lat="46.17165" lon="-1.24026">
        <ele>38.8</ele>
        <time>2020-06-02T08:08:40Z</time>
      </trkpt>
      <trkpt lat="46.17169" lon="-1.24016">
        <ele>38.7</ele>
        <time>2020-06-02T08:08:41Z</time>
      </trkpt>
      <trkpt lat="46.17173" lon="-1.24005">
        <ele>38.6</ele>
        <time>2020-06-02T08:08:42Z</time>
      </trkpt>
      <trkpt lat="46.17176" lon="-1.23995">
        <ele>38.5</ele>
        <time>2020-06-02T08:08:43Z</time>
      </trkpt>
      <trkpt lat="46.1718" lon="-1.23984">
        <ele>38.4</ele>
        <time>2020-06-02T08:08:44Z</time>
      </trkpt>
      <trkpt lat="46.17183" lon="-1.23973">
        <ele>38.3</ele>
        <time>2020-06-02T08:08:45Z</time>
      </trkpt>
      <trkpt lat="46.17187" lon="-1.23963">
        <ele>38.1</ele>
        <time>2020-06-02T08:08:46Z</time>
      </trkpt>
      <trkpt lat="46.1719" lon="-1.23951">
        <ele>38</ele>
        <time>2020-06-02T08:08:47Z</time>
      </trkpt>
      <trkpt lat="46.17194" lon="-1.2394">
        <ele>37.8</ele>
        <time>2020-06-02T08:08:48Z</time>
      </trkpt>
      <trkpt lat="46.17197" lon="-1.23929">
        <ele>37.7</ele>
        <time>2020-06-02T08:08:49Z</time>
      </trkpt>
      <trkpt lat="46.17201" lon="-1.23918">
        <ele>37.5</ele>
        <time>2020-06-02T08:08:50Z</time>
      </trkpt>
      <trkpt lat="46.17205" lon="-1.23906">
        <ele>37.3</ele>
        <time>2020-06-02T08:08:51Z</time>
      </trkpt>
      <trkpt lat="46.17208" lon="-1.23894">
        <ele>37.1</ele>
        <time>2020-06-02T08:08:52Z</time>
      </trkpt>
      <trkpt lat="46.17212" lon="-1.23883">
        <ele>36.9</ele>
        <time>2020-06-02T08:08:53Z</time>
      </trkpt>
      <trkpt lat="46.17216" lon="-1.23871">
        <ele>36.7</ele>
        <time>2020-06-02T08:08:54Z</time>
      </trkpt>
      <trkpt lat="46.1722" lon="-1.2386">
        <ele>36.5</ele>
        <time>2020-06-02T08:08:55Z</time>
      </trkpt>
      <trkpt lat="46.17223" lon="-1.23849">
        <ele>36.3</ele>
        <time>2020-06-02T08:08:56Z</time>
      </trkpt>
      <trkpt lat="46.17227" lon="-1.23838">
        <ele>36.1</ele>
        <time>2020-06-02T08:08:57Z</time>
      </trkpt>
      <trkpt lat="46.17231" lon="-1.23827">
        <ele>35.9</ele>
        <time>2020-06-02T08:08:58Z</time>
      </trkpt>
      <trkpt lat="46.17234" lon="-1.23816">
        <ele>35.7</ele>
        <time>2020-06-02T08:08:59Z</time>
      </trkpt>
      <trkpt lat="46.17238" lon="-1.23805">
        <ele>35.5</ele>
        <time>2020-06-02T08:09:00Z</time>
      </trkpt>
      <trkpt lat="46.17241" lon="-1.23794">
        <ele>35.3</ele>
        <time>2020-06-02T08:09:01Z</time>
      </trkpt>
      <trkpt lat="46.17245" lon="-1.23783">
        <ele>35.1</ele>
        <time>2020-06-02T08:09:02Z</time>
      </trkpt>
      <trkpt lat="46.17248" lon="-1.23773">
        <ele>34.9</ele>
        <time>2020-06-02T08:09:03Z</time>
      </trkpt>
      <trkpt lat="46.17251" lon="-1.23762">
        <ele>34.7</ele>
        <time>2020-06-02T08:09:04Z</time>
      </trkpt>
      <trkpt lat="46.17255" lon="-1.23751">
        <ele>34.6</ele>
        <time>2020-06-02T08:09:05Z</time>
      </trkpt>
      <trkpt lat="46.17258" lon="-1.2374">
        <ele>34.4</ele>
        <time>2020-06-02T08:09:06Z</time>
      </trkpt>
      <trkpt lat="46.17261" lon="-1.23729">
        <ele>34.2</ele>
        <time>2020-06-02T08:09:07Z</time>
      </trkpt>
      <trkpt lat="46.17264" lon="-1.23718">
        <ele>34</ele>
        <time>2020-06-02T08:09:08Z</time>
      </trkpt>
      <trkpt lat="46.17267" lon="-1.23708">
        <ele>33.8</ele>
        <time>2020-06-02T08:09:09Z</time>
      </trkpt>
      <trkpt lat="46.1727" lon="-1.23697">
        <ele>33.6</ele>
        <time>2020-06-02T08:09:10Z</time>
      </trkpt>
      <trkpt lat="46.17273" lon="-1.23687">
        <ele>33.4</ele>
        <time>2020-06-02T08:09:11Z</time>
      </trkpt>
      <trkpt lat="46.17276" lon="-1.23677">
        <ele>33.2</ele>
        <time>2020-06-02T08:09:12Z</time>
      </trkpt>
      <trkpt lat="46.17279" lon="-1.23667">
        <ele>33</ele>
        <time>2020-06-02T08:09:13Z</time>
      </trkpt>
      <trkpt lat="46.17282" lon="-1.23657">
        <ele>32.9</ele>
        <time>2020-06-02T08:09:14Z</time>
      </trkpt>
      <trkpt lat="46.17284" lon="-1.23647">
        <ele>32.8</ele>
        <time>2020-06-02T08:09:15Z</time>
      </trkpt>
      <trkpt lat="46.17287" lon="-1.23637">
        <ele>32.6</ele>
        <time>2020-06-02T08:09:16Z</time>
      </trkpt>
      <trkpt lat="46.1729" lon="-1.23627">
        <ele>32.5</ele>
        <time>2020-06-02T08:09:17Z</time>
      </trkpt>
      <trkpt lat="46.17293" lon="-1.23617">
        <ele>32.4</ele>
        <time>2020-06-02T08:09:18Z</time>
      </trkpt>
      <trkpt lat="46.17295" lon="-1.23607">
        <ele>32.2</ele>
        <time>2020-06-02T08:09:19Z</time>
      </trkpt>
      <trkpt lat="46.17298" lon="-1.23598">
        <ele>32</ele>
        <time>2020-06-02T08:09:20Z</time>
      </trkpt>
      <trkpt lat="46.17301" lon="-1.23588">
        <ele>31.8</ele>
        <time>2020-06-02T08:09:21Z</time>
      </trkpt>
      <trkpt lat="46.17304" lon="-1.23578">
        <ele>31.6</ele>
        <time>2020-06-02T08:09:22Z</time>
      </trkpt>
      <trkpt lat="46.17307" lon="-1.23569">
        <ele>31.4</ele>
        <time>2020-06-02T08:09:23Z</time>
      </trkpt>
      <trkpt lat="46.17309" lon="-1.23559">
        <ele>31.2</ele>
        <time>2020-06-02T08:09:24Z</time>
      </trkpt>
      <trkpt lat="46.17312" lon="-1.23549">
        <ele>31</ele>
        <time>2020-06-02T08:09:25Z</time>
      </trkpt>
      <trkpt lat="46.17315" lon="-1.2354">
        <ele>30.8</ele>
        <time>2020-06-02T08:09:26Z</time>
      </trkpt>
      <trkpt lat="46.17318" lon="-1.2353">
        <ele>30.7</ele>
        <time>2020-06-02T08:09:27Z</time>
      </trkpt>
      <trkpt lat="46.17321" lon="-1.2352">
        <ele>30.5</ele>
        <time>2020-06-02T08:09:28Z</time>
      </trkpt>
      <trkpt lat="46.17323" lon="-1.2351">
        <ele>30.4</ele>
        <time>2020-06-02T08:09:29Z</time>
      </trkpt>
      <trkpt lat="46.17326" lon="-1.23501">
        <ele>30.2</ele>
        <time>2020-06-02T08:09:30Z</time>
      </trkpt>
      <trkpt lat="46.17329" lon="-1.23491">
        <ele>30.1</ele>
        <time>2020-06-02T08:09:31Z</time>
      </trkpt>
      <trkpt lat="46.17331" lon="-1.23481">
        <ele>30</ele>
        <time>2020-06-02T08:09:32Z</time>
      </trkpt>
      <trkpt lat="46.17333" lon="-1.23472">
        <ele>29.9</ele>
        <time>2020-06-02T08:09:33Z</time>
      </trkpt>
      <trkpt lat="46.17336" lon="-1.23462">
        <ele>29.8</ele>
        <time>2020-06-02T08:09:34Z</time>
      </trkpt>
      <trkpt lat="46.17338" lon="-1.23453">
        <ele>29.7</ele>
        <time>2020-06-02T08:09:35Z</time>
      </trkpt>
      <trkpt lat="46.17341" lon="-1.23443">
        <ele>29.5</ele>
        <time>2020-06-02T08:09:36Z</time>
      </trkpt>
      <trkpt lat="46.17343" lon="-1.23434">
        <ele>29.4</ele>
        <time>2020-06-02T08:09:37Z</time>
      </trkpt>
      <trkpt lat="46.17345" lon="-1.23424">
        <ele>29.2</ele>
        <time>2020-06-02T08:09:38Z</time>
      </trkpt>
      <trkpt lat="46.17348" lon="-1.23415">
        <ele>29.1</ele>
        <time>2020-06-02T08:09:39Z</time>
      </trkpt>
      <trkpt lat="46.17351" lon="-1.23405">
        <ele>28.9</ele>
        <time>2020-06-02T08:09:40Z</time>
      </trkpt>
      <trkpt lat="46.17353" lon="-1.23396">
        <ele>28.7</ele>
        <time>2020-06-02T08:09:41Z</time>
      </trkpt>
      <trkpt lat="46.17356" lon="-1.23386">
        <ele>28.6</ele>
        <time>2020-06-02T08:09:42Z</time>
      </trkpt>
      <trkpt lat="46.17358" lon="-1.23377">
        <ele>28.4</ele>
        <time>2020-06-02T08:09:43Z</time>
      </trkpt>
      <trkpt lat="46.17361" lon="-1.23368">
        <ele>28.3</ele>
        <time>2020-06-02T08:09:44Z</time>
      </trkpt>
      <trkpt lat="46.17363" lon="-1.23358">
        <ele>28.2</ele>
        <time>2020-06-02T08:09:45Z</time>
      </trkpt>
      <trkpt lat="46.17366" lon="-1.23348">
        <ele>28.1</ele>
        <time>2020-06-02T08:09:46Z</time>
      </trkpt>
      <trkpt lat="46.17368" lon="-1.23338">
        <ele>27.9</ele>
        <time>2020-06-02T08:09:47Z</time>
      </trkpt>
      <trkpt lat="46.17371" lon="-1.23328">
        <ele>27.8</ele>
        <time>2020-06-02T08:09:48Z</time>
      </trkpt>
      <trkpt lat="46.17373" lon="-1.23318">
        <ele>27.6</ele>
        <time>2020-06-02T08:09:49Z</time>
      </trkpt>
      <trkpt lat="46.17376" lon="-1.23308">
        <ele>27.4</ele>
        <time>2020-06-02T08:09:50Z</time>
      </trkpt>
      <trkpt lat="46.17378" lon="-1.23298">
        <ele>27.3</ele>
        <time>2020-06-02T08:09:51Z</time>
      </trkpt>
      <trkpt lat="46.17381" lon="-1.23288">
        <ele>27.1</ele>
        <time>2020-06-02T08:09:52Z</time>
      </trkpt>
      <trkpt lat="46.17383" lon="-1.23277">
        <ele>26.8</ele>
        <time>2020-06-02T08:09:53Z</time>
      </trkpt>
      <trkpt lat="46.17386" lon="-1.23267">
        <ele>26.6</ele>
        <time>2020-06-02T08:09:54Z</time>
      </trkpt>
      <trkpt lat="46.17388" lon="-1.23257">
        <ele>26.4</ele>
        <time>2020-06-02T08:09:55Z</time>
      </trkpt>
      <trkpt lat="46.17391" lon="-1.23246">
        <ele>26.2</ele>
        <time>2020-06-02T08:09:56Z</time>
      </trkpt>
      <trkpt lat="46.17393" lon="-1.23236">
        <ele>26.1</ele>
        <time>2020-06-02T08:09:57Z</time>
      </trkpt>
      <trkpt lat="46.17396" lon="-1.23226">
        <ele>25.9</ele>
        <time>2020-06-02T08:09:58Z</time>
      </trkpt>
      <trkpt lat="46.17399" lon="-1.23215">
        <ele>25.8</ele>
        <time>2020-06-02T08:09:59Z</time>
      </trkpt>
      <trkpt lat="46.17401" lon="-1.23205">
        <ele>25.6</ele>
        <time>2020-06-02T08:10:00Z</time>
      </trkpt>
      <trkpt lat="46.17404" lon="-1.23194">
        <ele>25.4</ele>
        <time>2020-06-02T08:10:01Z</time>
      </trkpt>
      <trkpt lat="46.17406" lon="-1.23184">
        <ele>25.3</ele>
        <time>2020-06-02T08:10:02Z</time>
      </trkpt>
      <trkpt lat="46.17409" lon="-1.23173">
        <ele>25.1</ele>
        <time>2020-06-02T08:10:03Z</time>
      </trkpt>
      <trkpt lat="46.17411" lon="-1.23162">
        <ele>24.9</ele>
        <time>2020-06-02T08:10:04Z</time>
      </trkpt>
      <trkpt lat="46.17413" lon="-1.23151">
        <ele>24.7</ele>
        <time>2020-06-02T08:10:05Z</time>
      </trkpt>
      <trkpt lat="46.17416" lon="-1.2314">
        <ele>24.5</ele>
        <time>2020-06-02T08:10:06Z</time>
      </trkpt>
      <trkpt lat="46.17418" lon="-1.23129">
        <ele>24.3</ele>
        <time>2020-06-02T08:10:07Z</time>
      </trkpt>
      <trkpt lat="46.17421" lon="-1.23118">
        <ele>24.1</ele>
        <time>2020-06-02T08:10:08Z</time>
      </trkpt>
      <trkpt lat="46.17424" lon="-1.23107">
        <ele>23.9</ele>
        <time>2020-06-02T08:10:09Z</time>
      </trkpt>
      <trkpt lat="46.17426" lon="-1.23096">
        <ele>23.8</ele>
        <time>2020-06-02T08:10:10Z</time>
      </trkpt>
      <trkpt lat="46.17429" lon="-1.23085">
        <ele>23.7</ele>
        <time>2020-06-02T08:10:11Z</time>
      </trkpt>
      <trkpt lat="46.17431" lon="-1.23074">
        <ele>23.5</ele>
        <time>2020-06-02T08:10:12Z</time>
      </trkpt>
      <trkpt lat="46.17433" lon="-1.23063">
        <ele>23.3</ele>
        <time>2020-06-02T08:10:13Z</time>
      </trkpt>
      <trkpt lat="46.17436" lon="-1.23051">
        <ele>23.1</ele>
        <time>2020-06-02T08:10:14Z</time>
      </trkpt>
      <trkpt lat="46.17438" lon="-1.2304">
        <ele>22.9</ele>
        <time>2020-06-02T08:10:15Z</time>
      </trkpt>
      <trkpt lat="46.1744" lon="-1.23029">
        <ele>22.7</ele>
        <time>2020-06-02T08:10:16Z</time>
      </trkpt>
      <trkpt lat="46.17442" lon="-1.23018">
        <ele>22.5</ele>
        <time>2020-06-02T08:10:17Z</time>
      </trkpt>
      <trkpt lat="46.17445" lon="-1.23006">
        <ele>22.3</ele>
        <time>2020-06-02T08:10:18Z</time>
      </trkpt>
      <trkpt lat="46.17447" lon="-1.22995">
        <ele>22</ele>
        <time>2020-06-02T08:10:19Z</time>
      </trkpt>
      <trkpt lat="46.17449" lon="-1.22984">
        <ele>21.8</ele>
        <time>2020-06-02T08:10:20Z</time>
      </trkpt>
      <trkpt lat="46.17451" lon="-1.22973">
        <ele>21.7</ele>
        <time>2020-06-02T08:10:21Z</time>
      </trkpt>
      <trkpt lat="46.17454" lon="-1.22962">
        <ele>21.5</ele>
        <time>2020-06-02T08:10:22Z</time>
      </trkpt>
      <trkpt lat="46.17456" lon="-1.22951">
        <ele>21.4</ele>
        <time>2020-06-02T08:10:23Z</time>
      </trkpt>
      <trkpt lat="46.17458" lon="-1.2294">
        <ele>21.4</ele>
        <time>2020-06-02T08:10:24Z</time>
      </trkpt>
      <trkpt lat="46.1746" lon="-1.22928">
        <ele>21.3</ele>
        <time>2020-06-02T08:10:25Z</time>
      </trkpt>
      <trkpt lat="46.17462" lon="-1.22917">
        <ele>21.2</ele>
        <time>2020-06-02T08:10:26Z</time>
      </trkpt>
      <trkpt lat="46.17464" lon="-1.22906">
        <ele>21.1</ele>
        <time>2020-06-02T08:10:27Z</time>
      </trkpt>
      <trkpt lat="46.17466" lon="-1.22895">
        <ele>21</ele>
        <time>2020-06-02T08:10:28Z</time>
      </trkpt>
      <trkpt lat="46.17469" lon="-1.22884">
        <ele>20.8</ele>
        <time>2020-06-02T08:10:29Z</time>
      </trkpt>
      <trkpt lat="46.17471" lon="-1.22872">
        <ele>20.5</ele>
        <time>2020-06-02T08:10:30Z</time>
      </trkpt>
      <trkpt lat="46.17473" lon="-1.22861">
        <ele>20.3</ele>
        <time>2020-06-02T08:10:31Z</time>
      </trkpt>
      <trkpt lat="46.17476" lon="-1.2285">
        <ele>20.1</ele>
        <time>2020-06-02T08:10:32Z</time>
      </trkpt>
      <trkpt lat="46.17478" lon="-1.22839">
        <ele>20</ele>
        <time>2020-06-02T08:10:33Z</time>
      </trkpt>
      <trkpt lat="46.1748" lon="-1.22828">
        <ele>19.8</ele>
        <time>2020-06-02T08:10:34Z</time>
      </trkpt>
      <trkpt lat="46.17482" lon="-1.22817">
        <ele>19.6</ele>
        <time>2020-06-02T08:10:35Z</time>
      </trkpt>
      <trkpt lat="46.17484" lon="-1.22806">
        <ele>19.5</ele>
        <time>2020-06-02T08:10:36Z</time>
      </trkpt>
      <trkpt lat="46.17486" lon="-1.22795">
        <ele>19.4</ele>
        <time>2020-06-02T08:10:37Z</time>
      </trkpt>
      <trkpt lat="46.17488" lon="-1.22785">
        <ele>19.2</ele>
        <time>2020-06-02T08:10:38Z</time>
      </trkpt>
      <trkpt lat="46.1749" lon="-1.22774">
        <ele>19.1</ele>
        <time>2020-06-02T08:10:39Z</time>
      </trkpt>
      <trkpt lat="46.17492" lon="-1.22763">
        <ele>19</ele>
        <time>2020-06-02T08:10:40Z</time>
      </trkpt>
      <trkpt lat="46.17494" lon="-1.22753">
        <ele>18.8</ele>
        <time>2020-06-02T08:10:41Z</time>
      </trkpt>
      <trkpt lat="46.17496" lon="-1.22743">
        <ele>18.6</ele>
        <time>2020-06-02T08:10:42Z</time>
      </trkpt>
      <trkpt lat="46.17497" lon="-1.22733">
        <ele>18.4</ele>
        <time>2020-06-02T08:10:43Z</time>
      </trkpt>
      <trkpt lat="46.17499" lon="-1.22723">
        <ele>18.2</ele>
        <time>2020-06-02T08:10:44Z</time>
      </trkpt>
      <trkpt lat="46.17501" lon="-1.22713">
        <ele>18.1</ele>
        <time>2020-06-02T08:10:45Z</time>
      </trkpt>
      <trkpt lat="46.17502" lon="-1.22703">
        <ele>17.9</ele>
        <time>2020-06-02T08:10:46Z</time>
      </trkpt>
      <trkpt lat="46.17504" lon="-1.22693">
        <ele>17.7</ele>
        <time>2020-06-02T08:10:47Z</time>
      </trkpt>
      <trkpt lat="46.17505" lon="-1.22683">
        <ele>17.6</ele>
        <time>2020-06-02T08:10:48Z</time>
      </trkpt>
      <trkpt lat="46.17507" lon="-1.22673">
        <ele>17.4</ele>
        <time>2020-06-02T08:10:49Z</time>
      </trkpt>
      <trkpt lat="46.17509" lon="-1.22664">
        <ele>17.2</ele>
        <time>2020-06-02T08:10:50Z</time>
      </trkpt>
      <trkpt lat="46.1751" lon="-1.22654">
        <ele>17</ele>
        <time>2020-06-02T08:10:51Z</time>
      </trkpt>
      <trkpt lat="46.17512" lon="-1.22644">
        <ele>16.9</ele>
        <time>2020-06-02T08:10:52Z</time>
      </trkpt>
      <trkpt lat="46.17513" lon="-1.22635">
        <ele>16.7</ele>
        <time>2020-06-02T08:10:53Z</time>
      </trkpt>
      <trkpt lat="46.17515" lon="-1.22626">
        <ele>16.6</ele>
        <time>2020-06-02T08:10:54Z</time>
      </trkpt>
      <trkpt lat="46.17516" lon="-1.22617">
        <ele>16.4</ele>
        <time>2020-06-02T08:10:55Z</time>
      </trkpt>
      <trkpt lat="46.17518" lon="-1.22608">
        <ele>16.2</ele>
        <time>2020-06-02T08:10:56Z</time>
      </trkpt>
      <trkpt lat="46.17519" lon="-1.22599">
        <ele>16</ele>
        <time>2020-06-02T08:10:57Z</time>
      </trkpt>
      <trkpt lat="46.1752" lon="-1.2259">
        <ele>15.8</ele>
        <time>2020-06-02T08:10:58Z</time>
      </trkpt>
      <trkpt lat="46.17522" lon="-1.22581">
        <ele>15.7</ele>
        <time>2020-06-02T08:10:59Z</time>
      </trkpt>
      <trkpt lat="46.17523" lon="-1.22573">
        <ele>15.5</ele>
        <time>2020-06-02T08:11:00Z</time>
      </trkpt>
      <trkpt lat="46.17525" lon="-1.22564">
        <ele>15.4</ele>
        <time>2020-06-02T08:11:01Z</time>
      </trkpt>
      <trkpt lat="46.17526" lon="-1.22555">
        <ele>15.2</ele>
        <time>2020-06-02T08:11:02Z</time>
      </trkpt>
      <trkpt lat="46.17528" lon="-1.22547">
        <ele>15.2</ele>
        <time>2020-06-02T08:11:03Z</time>
      </trkpt>
      <trkpt lat="46.17529" lon="-1.22538">
        <ele>15.1</ele>
        <time>2020-06-02T08:11:04Z</time>
      </trkpt>
      <trkpt lat="46.17531" lon="-1.22529">
        <ele>15</ele>
        <time>2020-06-02T08:11:05Z</time>
      </trkpt>
      <trkpt lat="46.17532" lon="-1.22521">
        <ele>14.9</ele>
        <time>2020-06-02T08:11:06Z</time>
      </trkpt>
      <trkpt lat="46.17534" lon="-1.22512">
        <ele>14.8</ele>
        <time>2020-06-02T08:11:07Z</time>
      </trkpt>
      <trkpt lat="46.17535" lon="-1.22503">
        <ele>14.7</ele>
        <time>2020-06-02T08:11:08Z</time>
      </trkpt>
      <trkpt lat="46.17537" lon="-1.22495">
        <ele>14.6</ele>
        <time>2020-06-02T08:11:09Z</time>
      </trkpt>
      <trkpt lat="46.17538" lon="-1.22486">
        <ele>14.4</ele>
        <time>2020-06-02T08:11:10Z</time>
      </trkpt>
      <trkpt lat="46.17539" lon="-1.22477">
        <ele>14.3</ele>
        <time>2020-06-02T08:11:11Z</time>
      </trkpt>
      <trkpt lat="46.1754" lon="-1.22469">
        <ele>14.2</ele>
        <time>2020-06-02T08:11:12Z</time>
      </trkpt>
      <trkpt lat="46.17542" lon="-1.2246">
        <ele>14</ele>
        <time>2020-06-02T08:11:13Z</time>
      </trkpt>
      <trkpt lat="46.17543" lon="-1.22452">
        <ele>13.9</ele>
        <time>2020-06-02T08:11:14Z</time>
      </trkpt>
      <trkpt lat="46.17544" lon="-1.22444">
        <ele>13.8</ele>
        <time>2020-06-02T08:11:15Z</time>
      </trkpt>
      <trkpt lat="46.17546" lon="-1.22435">
        <ele>13.6</ele>
        <time>2020-06-02T08:11:16Z</time>
      </trkpt>
      <trkpt lat="46.17547" lon="-1.22427">
        <ele>13.5</ele>
        <time>2020-06-02T08:11:17Z</time>
      </trkpt>
      <trkpt lat="46.17547" lon="-1.22418">
        <ele>13.4</ele>
        <time>2020-06-02T08:11:18Z</time>
      </trkpt>
      <trkpt lat="46.17548" lon="-1.2241">
        <ele>13.3</ele>
        <time>2020-06-02T08:11:19Z</time>
      </trkpt>
      <trkpt lat="46.1755" lon="-1.22402">
        <ele>13.2</ele>
        <time>2020-06-02T08:11:20Z</time>
      </trkpt>
      <trkpt lat="46.17551" lon="-1.22394">
        <ele>13.1</ele>
        <time>2020-06-02T08:11:21Z</time>
      </trkpt>
      <trkpt lat="46.17552" lon="-1.22386">
        <ele>12.9</ele>
        <time>2020-06-02T08:11:22Z</time>
      </trkpt>
      <trkpt lat="46.17552" lon="-1.22378">
        <ele>12.8</ele>
        <time>2020-06-02T08:11:23Z</time>
      </trkpt>
      <trkpt lat="46.17554" lon="-1.2237">
        <ele>12.6</ele>
        <time>2020-06-02T08:11:24Z</time>
      </trkpt>
      <trkpt lat="46.17555" lon="-1.22361">
        <ele>12.5</ele>
        <time>2020-06-02T08:11:25Z</time>
      </trkpt>
      <trkpt lat="46.17555" lon="-1.22353">
        <ele>12.3</ele>
        <time>2020-06-02T08:11:26Z</time>
      </trkpt>
      <trkpt lat="46.17556" lon="-1.22345">
        <ele>12.2</ele>
        <time>2020-06-02T08:11:27Z</time>
      </trkpt>
      <trkpt lat="46.17557" lon="-1.22338">
        <ele>12.1</ele>
        <time>2020-06-02T08:11:28Z</time>
      </trkpt>
      <trkpt lat="46.17558" lon="-1.2233">
        <ele>12</ele>
        <time>2020-06-02T08:11:29Z</time>
      </trkpt>
      <trkpt lat="46.1756" lon="-1.22323">
        <ele>11.9</ele>
        <time>2020-06-02T08:11:30Z</time>
      </trkpt>
      <trkpt lat="46.17561" lon="-1.22316">
        <ele>11.7</ele>
        <time>2020-06-02T08:11:31Z</time>
      </trkpt>
      <trkpt lat="46.17562" lon="-1.22309">
        <ele>11.6</ele>
        <time>2020-06-02T08:11:32Z</time>
      </trkpt>
      <trkpt lat="46.17563" lon="-1.22303">
        <ele>11.5</ele>
        <time>2020-06-02T08:11:33Z</time>
      </trkpt>
      <trkpt lat="46.17564" lon="-1.22296">
        <ele>11.4</ele>
        <time>2020-06-02T08:11:34Z</time>
      </trkpt>
      <trkpt lat="46.17565" lon="-1.22289">
        <ele>11.3</ele>
        <time>2020-06-02T08:11:35Z</time>
      </trkpt>
      <trkpt lat="46.17566" lon="-1.22282">
        <ele>11.2</ele>
        <time>2020-06-02T08:11:36Z</time>
      </trkpt>
      <trkpt lat="46.17567" lon="-1.22275">
        <ele>11</ele>
        <time>2020-06-02T08:11:37Z</time>
      </trkpt>
      <trkpt lat="46.17568" lon="-1.22268">
        <ele>10.9</ele>
        <time>2020-06-02T08:11:38Z</time>
      </trkpt>
      <trkpt lat="46.17568" lon="-1.22261">
        <ele>10.8</ele>
        <time>2020-06-02T08:11:39Z</time>
      </trkpt>
      <trkpt lat="46.17569" lon="-1.22254">
        <ele>10.7</ele>
        <time>2020-06-02T08:11:40Z</time>
      </trkpt>
      <trkpt lat="46.1757" lon="-1.22247">
        <ele>10.6</ele>
        <time>2020-06-02T08:11:41Z</time>
      </trkpt>
      <trkpt lat="46.17571" lon="-1.2224">
        <ele>10.5</ele>
        <time>2020-06-02T08:11:42Z</time>
      </trkpt>
      <trkpt lat="46.17571" lon="-1.22233">
        <ele>10.4</ele>
        <time>2020-06-02T08:11:43Z</time>
      </trkpt>
      <trkpt lat="46.17572" lon="-1.22226">
        <ele>10.4</ele>
        <time>2020-06-02T08:11:44Z</time>
      </trkpt>
      <trkpt lat="46.17573" lon="-1.22219">
        <ele>10.3</ele>
        <time>2020-06-02T08:11:45Z</time>
      </trkpt>
      <trkpt lat="46.17573" lon="-1.22212">
        <ele>10.3</ele>
        <time>2020-06-02T08:11:46Z</time>
      </trkpt>
      <trkpt lat="46.17574" lon="-1.22205">
        <ele>10.2</ele>
        <time>2020-06-02T08:11:47Z</time>
      </trkpt>
      <trkpt lat="46.17575" lon="-1.22197">
        <ele>10.2</ele>
        <time>2020-06-02T08:11:48Z</time>
      </trkpt>
      <trkpt lat="46.17577" lon="-1.2219">
        <ele>10</ele>
        <time>2020-06-02T08:11:49Z</time>
      </trkpt>
      <trkpt lat="46.17578" lon="-1.22183">
        <ele>10</ele>
        <time>2020-06-02T08:11:50Z</time>
      </trkpt>
      <trkpt lat="46.17579" lon="-1.22175">
        <ele>9.9</ele>
        <time>2020-06-02T08:11:51Z</time>
      </trkpt>
      <trkpt lat="46.17581" lon="-1.22168">
        <ele>9.9</ele>
        <time>2020-06-02T08:11:52Z</time>
      </trkpt>
      <trkpt lat="46.17582" lon="-1.22161">
        <ele>9.8</ele>
        <time>2020-06-02T08:11:53Z</time>
      </trkpt>
      <trkpt lat="46.17584" lon="-1.22154">
        <ele>9.7</ele>
        <time>2020-06-02T08:11:54Z</time>
      </trkpt>
      <trkpt lat="46.17584" lon="-1.22147">
        <ele>9.6</ele>
        <time>2020-06-02T08:11:55Z</time>
      </trkpt>
      <trkpt lat="46.17585" lon="-1.2214">
        <ele>9.5</ele>
        <time>2020-06-02T08:11:56Z</time>
      </trkpt>
      <trkpt lat="46.17586" lon="-1.22132">
        <ele>9.5</ele>
        <time>2020-06-02T08:11:57Z</time>
      </trkpt>
      <trkpt lat="46.17587" lon="-1.22125">
        <ele>9.4</ele>
        <time>2020-06-02T08:11:58Z</time>
      </trkpt>
      <trkpt lat="46.17588" lon="-1.22117">
        <ele>9.3</ele>
        <time>2020-06-02T08:11:59Z</time>
      </trkpt>
      <trkpt lat="46.17589" lon="-1.22109">
        <ele>9.3</ele>
        <time>2020-06-02T08:12:00Z</time>
      </trkpt>
      <trkpt lat="46.1759" lon="-1.22102">
        <ele>9.2</ele>
        <time>2020-06-02T08:12:01Z</time>
      </trkpt>
      <trkpt lat="46.17592" lon="-1.22095">
        <ele>9.1</ele>
        <time>2020-06-02T08:12:02Z</time>
      </trkpt>
      <trkpt lat="46.17592" lon="-1.22088">
        <ele>9</ele>
        <time>2020-06-02T08:12:03Z</time>
      </trkpt>
      <trkpt lat="46.17593" lon="-1.2208">
        <ele>8.9</ele>
        <time>2020-06-02T08:12:04Z</time>
      </trkpt>
      <trkpt lat="46.17594" lon="-1.22073">
        <ele>8.9</ele>
        <time>2020-06-02T08:12:05Z</time>
      </trkpt>
      <trkpt lat="46.17596" lon="-1.22067">
        <ele>8.8</ele>
        <time>2020-06-02T08:12:06Z</time>
      </trkpt>
      <trkpt lat="46.17597" lon="-1.2206">
        <ele>8.8</ele>
        <time>2020-06-02T08:12:07Z</time>
      </trkpt>
      <trkpt lat="46.17599" lon="-1.22053">
        <ele>8.7</ele>
        <time>2020-06-02T08:12:08Z</time>
      </trkpt>
      <trkpt lat="46.176" lon="-1.22047">
        <ele>8.7</ele>
        <time>2020-06-02T08:12:09Z</time>
      </trkpt>
      <trkpt lat="46.17602" lon="-1.2204">
        <ele>8.6</ele>
        <time>2020-06-02T08:12:10Z</time>
      </trkpt>
      <trkpt lat="46.17603" lon="-1.22034">
        <ele>8.6</ele>
        <time>2020-06-02T08:12:11Z</time>
      </trkpt>
      <trkpt lat="46.17604" lon="-1.22027">
        <ele>8.5</ele>
        <time>2020-06-02T08:12:12Z</time>
      </trkpt>
      <trkpt lat="46.17605" lon="-1.22021">
        <ele>8.5</ele>
        <time>2020-06-02T08:12:13Z</time>
      </trkpt>
      <trkpt lat="46.17606" lon="-1.22014">
        <ele>8.4</ele>
        <time>2020-06-02T08:12:14Z</time>
      </trkpt>
      <trkpt lat="46.17607" lon="-1.22008">
        <ele>8.4</ele>
        <time>2020-06-02T08:12:15Z</time>
      </trkpt>
      <trkpt lat="46.17608" lon="-1.22001">
        <ele>8.4</ele>
        <time>2020-06-02T08:12:16Z</time>
      </trkpt>
      <trkpt lat="46.1761" lon="-1.21995">
        <ele>8.3</ele>
        <time>2020-06-02T08:12:17Z</time>
      </trkpt>
      <trkpt lat="46.17611" lon="-1.21988">
        <ele>8.3</ele>
        <time>2020-06-02T08:12:18Z</time>
      </trkpt>
      <trkpt lat="46.17612" lon="-1.21981">
        <ele>8.3</ele>
        <time>2020-06-02T08:12:19Z</time>
      </trkpt>
      <trkpt lat="46.17612" lon="-1.21975">
        <ele>8.3</ele>
        <time>2020-06-02T08:12:20Z</time>
      </trkpt>
      <trkpt lat="46.17612" lon="-1.21968">
        <ele>8.3</ele>
        <time>2020-06-02T08:12:21Z</time>
      </trkpt>
      <trkpt lat="46.17613" lon="-1.21961">
        <ele>8.3</ele>
        <time>2020-06-02T08:12:22Z</time>
      </trkpt>
      <trkpt lat="46.17613" lon="-1.21955">
        <ele>8.3</ele>
        <time>2020-06-02T08:12:23Z</time>
      </trkpt>
      <trkpt lat="46.17613" lon="-1.21949">
        <ele>8.3</ele>
        <time>2020-06-02T08:12:24Z</time>
      </trkpt>
      <trkpt lat="46.17613" lon="-1.21943">
        <ele>8.2</ele>
        <time>2020-06-02T08:12:25Z</time>
      </trkpt>
      <trkpt lat="46.17613" lon="-1.21937">
        <ele>8.2</ele>
        <time>2020-06-02T08:12:26Z</time>
      </trkpt>
      <trkpt lat="46.17613" lon="-1.21932">
        <ele>8.2</ele>
        <time>2020-06-02T08:12:27Z</time>
      </trkpt>
      <trkpt lat="46.17614" lon="-1.21928">
        <ele>8.3</ele>
        <time>2020-06-02T08:12:28Z</time>
      </trkpt>
      <trkpt lat="46.17616" lon="-1.21924">
        <ele>8.3</ele>
        <time>2020-06-02T08:12:29Z</time>
      </trkpt>
      <trkpt lat="46.17617" lon="-1.21923">
        <ele>8.3</ele>
        <time>2020-06-02T08:12:30Z</time>
      </trkpt>
      <trkpt lat="46.17619" lon="-1.21922">
        <ele>8.4</ele>
        <time>2020-06-02T08:12:31Z</time>
      </trkpt>
      <trkpt lat="46.1762" lon="-1.21922">
        <ele>8.4</ele>
        <time>2020-06-02T08:12:32Z</time>
      </trkpt>
      <trkpt lat="46.1762" lon="-1.21923">
        <ele>8.4</ele>
        <time>2020-06-02T08:12:33Z</time>
      </trkpt>
      <trkpt lat="46.1762" lon="-1.21923">
        <ele>8.4</ele>
        <time>2020-06-02T08:12:34Z</time>
      </trkpt>
      <trkpt lat="46.1762" lon="-1.21923">
        <ele>8.4</ele>
        <time>2020-06-02T08:12:35Z</time>
      </trkpt>
      <trkpt lat="46.1762" lon="-1.21922">
        <ele>8.4</ele>
        <time>2020-06-02T08:12:36Z</time>
      </trkpt>
      <trkpt lat="46.17621" lon="-1.21924">
        <ele>8.4</ele>
        <time>2020-06-02T08:12:37Z</time>
      </trkpt>
      <trkpt lat="46.17621" lon="-1.21924">
        <ele>8.4</ele>
        <time>2020-06-02T08:12:38Z</time>
      </trkpt>
      <trkpt lat="46.17621" lon="-1.21925">
        <ele>8.4</ele>
        <time>2020-06-02T08:12:39Z</time>
      </trkpt>
      <trkpt lat="46.17621" lon="-1.21925">
        <ele>8.4</ele>
        <time>2020-06-02T08:12:40Z</time>
      </trkpt>
      <trkpt lat="46.17621" lon="-1.21927">
        <ele>8.4</ele>
        <time>2020-06-02T08:12:41Z</time>
      </trkpt>
      <trkpt lat="46.17622" lon="-1.21928">
        <ele>8.4</ele>
        <time>2020-06-02T08:12:42Z</time>
      </trkpt>
      <trkpt lat="46.17622" lon="-1.21929">
        <ele>8.4</ele>
        <time>2020-06-02T08:12:43Z</time>
      </trkpt>
      <trkpt lat="46.17622" lon="-1.21926">
        <ele>8.5</ele>
        <time>2020-06-02T08:12:44Z</time>
      </trkpt>
      <trkpt lat="46.17623" lon="-1.21926">
        <ele>8.5</ele>
        <time>2020-06-02T08:12:45Z</time>
      </trkpt>
      <trkpt lat="46.17625" lon="-1.21925">
        <ele>8.5</ele>
        <time>2020-06-02T08:12:46Z</time>
      </trkpt>
      <trkpt lat="46.17629" lon="-1.21926">
        <ele>8.6</ele>
        <time>2020-06-02T08:12:47Z</time>
      </trkpt>
      <trkpt lat="46.17631" lon="-1.21927">
        <ele>8.6</ele>
        <time>2020-06-02T08:12:48Z</time>
      </trkpt>
      <trkpt lat="46.17635" lon="-1.21927">
        <ele>8.7</ele>
        <time>2020-06-02T08:12:49Z</time>
      </trkpt>
      <trkpt lat="46.17639" lon="-1.21928">
        <ele>8.8</ele>
        <time>2020-06-02T08:12:50Z</time>
      </trkpt>
      <trkpt lat="46.17643" lon="-1.21928">
        <ele>9</ele>
        <time>2020-06-02T08:12:51Z</time>
      </trkpt>
      <trkpt lat="46.17648" lon="-1.21928">
        <ele>9.1</ele>
        <time>2020-06-02T08:12:52Z</time>
      </trkpt>
      <trkpt lat="46.17652" lon="-1.21927">
        <ele>9.3</ele>
        <time>2020-06-02T08:12:53Z</time>
      </trkpt>
      <trkpt lat="46.17655" lon="-1.21925">
        <ele>9.4</ele>
        <time>2020-06-02T08:12:54Z</time>
      </trkpt>
      <trkpt lat="46.17659" lon="-1.21924">
        <ele>9.6</ele>
        <time>2020-06-02T08:12:55Z</time>
      </trkpt>
      <trkpt lat="46.17663" lon="-1.21924">
        <ele>9.8</ele>
        <time>2020-06-02T08:12:56Z</time>
      </trkpt>
      <trkpt lat="46.17666" lon="-1.21924">
        <ele>9.9</ele>
        <time>2020-06-02T08:12:57Z</time>
      </trkpt>
      <trkpt lat="46.1767" lon="-1.21923">
        <ele>10.1</ele>
        <time>2020-06-02T08:12:58Z</time>
      </trkpt>
      <trkpt lat="46.17673" lon="-1.21922">
        <ele>10.3</ele>
        <time>2020-06-02T08:12:59Z</time>
      </trkpt>
      <trkpt lat="46.17676" lon="-1.21921">
        <ele>10.5</ele>
        <time>2020-06-02T08:13:00Z</time>
      </trkpt>
      <trkpt lat="46.17679" lon="-1.21919">
        <ele>10.8</ele>
        <time>2020-06-02T08:13:01Z</time>
      </trkpt>
      <trkpt lat="46.17682" lon="-1.21918">
        <ele>11</ele>
        <time>2020-06-02T08:13:02Z</time>
      </trkpt>
      <trkpt lat="46.17685" lon="-1.21917">
        <ele>11.1</ele>
        <time>2020-06-02T08:13:03Z</time>
      </trkpt>
      <trkpt lat="46.17688" lon="-1.21916">
        <ele>11.3</ele>
        <time>2020-06-02T08:13:04Z</time>
      </trkpt>
      <trkpt lat="46.17691" lon="-1.21913">
        <ele>11.6</ele>
        <time>2020-06-02T08:13:05Z</time>
      </trkpt>
      <trkpt lat="46.17692" lon="-1.21912">
        <ele>11.7</ele>
        <time>2020-06-02T08:13:06Z</time>
      </trkpt>
      <trkpt lat="46.17695" lon="-1.2191">
        <ele>11.9</ele>
        <time>2020-06-02T08:13:07Z</time>
      </trkpt>
      <trkpt lat="46.17696" lon="-1.21909">
        <ele>12</ele>
        <time>2020-06-02T08:13:08Z</time>
      </trkpt>
      <trkpt lat="46.17699" lon="-1.21906">
        <ele>12.2</ele>
        <time>2020-06-02T08:13:09Z</time>
      </trkpt>
      <trkpt lat="46.17701" lon="-1.21905">
        <ele>12.3</ele>
        <time>2020-06-02T08:13:10Z</time>
      </trkpt>
      <trkpt lat="46.17703" lon="-1.21902">
        <ele>12.5</ele>
        <time>2020-06-02T08:13:11Z</time>
      </trkpt>
      <trkpt lat="46.17706" lon="-1.21897">
        <ele>12.8</ele>
        <time>2020-06-02T08:13:12Z</time>
      </trkpt>
      <trkpt lat="46.17707" lon="-1.21893">
        <ele>13</ele>
        <time>2020-06-02T08:13:13Z</time>
      </trkpt>
      <trkpt lat="46.17709" lon="-1.21887">
        <ele>13.2</ele>
        <time>2020-06-02T08:13:14Z</time>
      </trkpt>
      <trkpt lat="46.17709" lon="-1.21882">
        <ele>13.3</ele>
        <time>2020-06-02T08:13:15Z</time>
      </trkpt>
      <trkpt lat="46.17709" lon="-1.21877">
        <ele>13.4</ele>
        <time>2020-06-02T08:13:16Z</time>
      </trkpt>
      <trkpt lat="46.17708" lon="-1.21873">
        <ele>13.4</ele>
        <time>2020-06-02T08:13:17Z</time>
      </trkpt>
      <trkpt lat="46.17707" lon="-1.21867">
        <ele>13.5</ele>
        <time>2020-06-02T08:13:18Z</time>
      </trkpt>
      <trkpt lat="46.17707" lon="-1.21865">
        <ele>13.6</ele>
        <time>2020-06-02T08:13:19Z</time>
      </trkpt>
      <trkpt lat="46.17706" lon="-1.21859">
        <ele>13.7</ele>
        <time>2020-06-02T08:13:20Z</time>
      </trkpt>
      <trkpt lat="46.17704" lon="-1.21854">
        <ele>13.8</ele>
        <time>2020-06-02T08:13:21Z</time>
      </trkpt>
      <trkpt lat="46.17702" lon="-1.21848">
        <ele>14</ele>
        <time>2020-06-02T08:13:22Z</time>
      </trkpt>
      <trkpt lat="46.177" lon="-1.21842">
        <ele>14.1</ele>
        <time>2020-06-02T08:13:23Z</time>
      </trkpt>
      <trkpt lat="46.17698" lon="-1.21836">
        <ele>14.3</ele>
        <time>2020-06-02T08:13:24Z</time>
      </trkpt>
      <trkpt lat="46.17696" lon="-1.21831">
        <ele>14.4</ele>
        <time>2020-06-02T08:13:25Z</time>
      </trkpt>
      <trkpt lat="46.17695" lon="-1.21827">
        <ele>14.5</ele>
        <time>2020-06-02T08:13:26Z</time>
      </trkpt>
      <trkpt lat="46.17694" lon="-1.21823">
        <ele>14.5</ele>
        <time>2020-06-02T08:13:27Z</time>
      </trkpt>
      <trkpt lat="46.17692" lon="-1.21818">
        <ele>14.6</ele>
        <time>2020-06-02T08:13:28Z</time>
      </trkpt>
      <trkpt lat="46.17691" lon="-1.21814">
        <ele>14.7</ele>
        <time>2020-06-02T08:13:29Z</time>
      </trkpt>
      <trkpt lat="46.1769" lon="-1.21809">
        <ele>14.8</ele>
        <time>2020-06-02T08:13:30Z</time>
      </trkpt>
      <trkpt lat="46.17689" lon="-1.21803">
        <ele>14.8</ele>
        <time>2020-06-02T08:13:31Z</time>
      </trkpt>
      <trkpt lat="46.17688" lon="-1.21798">
        <ele>14.9</ele>
        <time>2020-06-02T08:13:32Z</time>
      </trkpt>
      <trkpt lat="46.17686" lon="-1.21795">
        <ele>14.9</ele>
        <time>2020-06-02T08:13:33Z</time>
      </trkpt>
      <trkpt lat="46.17685" lon="-1.21791">
        <ele>14.9</ele>
        <time>2020-06-02T08:13:34Z</time>
      </trkpt>
      <trkpt lat="46.17683" lon="-1.21785">
        <ele>15</ele>
        <time>2020-06-02T08:13:35Z</time>
      </trkpt>
      <trkpt lat="46.17681" lon="-1.2178">
        <ele>15</ele>
        <time>2020-06-02T08:13:36Z</time>
      </trkpt>
      <trkpt lat="46.17679" lon="-1.21775">
        <ele>15.1</ele>
        <time>2020-06-02T08:13:37Z</time>
      </trkpt>
      <trkpt lat="46.17678" lon="-1.21769">
        <ele>15.1</ele>
        <time>2020-06-02T08:13:38Z</time>
      </trkpt>
      <trkpt lat="46.17676" lon="-1.21763">
        <ele>15.1</ele>
        <time>2020-06-02T08:13:39Z</time>
      </trkpt>
      <trkpt lat="46.17674" lon="-1.2176">
        <ele>15.2</ele>
        <time>2020-06-02T08:13:40Z</time>
      </trkpt>
      <trkpt lat="46.17672" lon="-1.21753">
        <ele>15.2</ele>
        <time>2020-06-02T08:13:41Z</time>
      </trkpt>
      <trkpt lat="46.1767" lon="-1.21748">
        <ele>15.2</ele>
        <time>2020-06-02T08:13:42Z</time>
      </trkpt>
      <trkpt lat="46.17668" lon="-1.21743">
        <ele>15.3</ele>
        <time>2020-06-02T08:13:43Z</time>
      </trkpt>
      <trkpt lat="46.17665" lon="-1.21737">
        <ele>15.3</ele>
        <time>2020-06-02T08:13:44Z</time>
      </trkpt>
      <trkpt lat="46.17662" lon="-1.21732">
        <ele>15.3</ele>
        <time>2020-06-02T08:13:45Z</time>
      </trkpt>
      <trkpt lat="46.1766" lon="-1.21726">
        <ele>15.3</ele>
        <time>2020-06-02T08:13:46Z</time>
      </trkpt>
      <trkpt lat="46.17659" lon="-1.2172">
        <ele>15.3</ele>
        <time>2020-06-02T08:13:47Z</time>
      </trkpt>
      <trkpt lat="46.17657" lon="-1.21715">
        <ele>15.4</ele>
        <time>2020-06-02T08:13:48Z</time>
      </trkpt>
      <trkpt lat="46.17656" lon="-1.21709">
        <ele>15.4</ele>
        <time>2020-06-02T08:13:49Z</time>
      </trkpt>
      <trkpt lat="46.17654" lon="-1.21704">
        <ele>15.5</ele>
        <time>2020-06-02T08:13:50Z</time>
      </trkpt>
      <trkpt lat="46.17652" lon="-1.21697">
        <ele>15.6</ele>
        <time>2020-06-02T08:13:51Z</time>
      </trkpt>
      <trkpt lat="46.17651" lon="-1.21691">
        <ele>15.7</ele>
        <time>2020-06-02T08:13:52Z</time>
      </trkpt>
      <trkpt lat="46.17649" lon="-1.21685">
        <ele>15.7</ele>
        <time>2020-06-02T08:13:53Z</time>
      </trkpt>
      <trkpt lat="46.17647" lon="-1.21679">
        <ele>15.8</ele>
        <time>2020-06-02T08:13:54Z</time>
      </trkpt>
      <trkpt lat="46.17645" lon="-1.21673">
        <ele>15.9</ele>
        <time>2020-06-02T08:13:55Z</time>
      </trkpt>
      <trkpt lat="46.17643" lon="-1.21667">
        <ele>16</ele>
        <time>2020-06-02T08:13:56Z</time>
      </trkpt>
      <trkpt lat="46.17641" lon="-1.2166">
        <ele>16</ele>
        <time>2020-06-02T08:13:57Z</time>
      </trkpt>
      <trkpt lat="46.17639" lon="-1.21653">
        <ele>16.1</ele>
        <time>2020-06-02T08:13:58Z</time>
      </trkpt>
      <trkpt lat="46.17637" lon="-1.21647">
        <ele>16.1</ele>
        <time>2020-06-02T08:13:59Z</time>
      </trkpt>
      <trkpt lat="46.17635" lon="-1.21643">
        <ele>16.1</ele>
        <time>2020-06-02T08:14:00Z</time>
      </trkpt>
      <trkpt lat="46.17633" lon="-1.21638">
        <ele>16.2</ele>
        <time>2020-06-02T08:14:01Z</time>
      </trkpt>
      <trkpt lat="46.17631" lon="-1.21632">
        <ele>16.2</ele>
        <time>2020-06-02T08:14:02Z</time>
      </trkpt>
      <trkpt lat="46.17628" lon="-1.21624">
        <ele>16.2</ele>
        <time>2020-06-02T08:14:03Z</time>
      </trkpt>
      <trkpt lat="46.17626" lon="-1.21617">
        <ele>16.2</ele>
        <time>2020-06-02T08:14:04Z</time>
      </trkpt>
      <trkpt lat="46.17625" lon="-1.21611">
        <ele>16.2</ele>
        <time>2020-06-02T08:14:05Z</time>
      </trkpt>
      <trkpt lat="46.17623" lon="-1.21605">
        <ele>16.2</ele>
        <time>2020-06-02T08:14:06Z</time>
      </trkpt>
      <trkpt lat="46.17621" lon="-1.21599">
        <ele>16.2</ele>
        <time>2020-06-02T08:14:07Z</time>
      </trkpt>
      <trkpt lat="46.17619" lon="-1.21593">
        <ele>16.2</ele>
        <time>2020-06-02T08:14:08Z</time>
      </trkpt>
      <trkpt lat="46.17617" lon="-1.21586">
        <ele>16.3</ele>
        <time>2020-06-02T08:14:09Z</time>
      </trkpt>
      <trkpt lat="46.17616" lon="-1.2158">
        <ele>16.3</ele>
        <time>2020-06-02T08:14:10Z</time>
      </trkpt>
      <trkpt lat="46.17615" lon="-1.21574">
        <ele>16.3</ele>
        <time>2020-06-02T08:14:11Z</time>
      </trkpt>
      <trkpt lat="46.17613" lon="-1.21569">
        <ele>16.3</ele>
        <time>2020-06-02T08:14:12Z</time>
      </trkpt>
      <trkpt lat="46.17612" lon="-1.21562">
        <ele>16.3</ele>
        <time>2020-06-02T08:14:13Z</time>
      </trkpt>
      <trkpt lat="46.17611" lon="-1.21555">
        <ele>16.3</ele>
        <time>2020-06-02T08:14:14Z</time>
      </trkpt>
      <trkpt lat="46.17609" lon="-1.21548">
        <ele>16.3</ele>
        <time>2020-06-02T08:14:15Z</time>
      </trkpt>
      <trkpt lat="46.17608" lon="-1.21538">
        <ele>16.3</ele>
        <time>2020-06-02T08:14:16Z</time>
      </trkpt>
      <trkpt lat="46.17608" lon="-1.21532">
        <ele>16.3</ele>
        <time>2020-06-02T08:14:17Z</time>
      </trkpt>
      <trkpt lat="46.17607" lon="-1.21522">
        <ele>16.3</ele>
        <time>2020-06-02T08:14:18Z</time>
      </trkpt>
      <trkpt lat="46.17606" lon="-1.21514">
        <ele>16.3</ele>
        <time>2020-06-02T08:14:19Z</time>
      </trkpt>
      <trkpt lat="46.17607" lon="-1.21506">
        <ele>16.3</ele>
        <time>2020-06-02T08:14:20Z</time>
      </trkpt>
      <trkpt lat="46.17607" lon="-1.21499">
        <ele>16.3</ele>
        <time>2020-06-02T08:14:21Z</time>
      </trkpt>
      <trkpt lat="46.17607" lon="-1.21491">
        <ele>16.3</ele>
        <time>2020-06-02T08:14:22Z</time>
      </trkpt>
      <trkpt lat="46.17608" lon="-1.21484">
        <ele>16.3</ele>
        <time>2020-06-02T08:14:23Z</time>
      </trkpt>
      <trkpt lat="46.17608" lon="-1.21476">
        <ele>16.2</ele>
        <time>2020-06-02T08:14:24Z</time>
      </trkpt>
      <trkpt lat="46.17609" lon="-1.21469">
        <ele>16.2</ele>
        <time>2020-06-02T08:14:25Z</time>
      </trkpt>
      <trkpt lat="46.1761" lon="-1.21461">
        <ele>16.2</ele>
        <time>2020-06-02T08:14:26Z</time>
      </trkpt>
      <trkpt lat="46.17613" lon="-1.21453">
        <ele>16.2</ele>
        <time>2020-06-02T08:14:27Z</time>
      </trkpt>
      <trkpt lat="46.17613" lon="-1.21446">
        <ele>16.2</ele>
        <time>2020-06-02T08:14:28Z</time>
      </trkpt>
      <trkpt lat="46.17616" lon="-1.21439">
        <ele>16.2</ele>
        <time>2020-06-02T08:14:29Z</time>
      </trkpt>
      <trkpt lat="46.17617" lon="-1.21434">
        <ele>16.2</ele>
        <time>2020-06-02T08:14:30Z</time>
      </trkpt>
      <trkpt lat="46.17618" lon="-1.21429">
        <ele>16.2</ele>
        <time>2020-06-02T08:14:31Z</time>
      </trkpt>
      <trkpt lat="46.17618" lon="-1.21423">
        <ele>16.2</ele>
        <time>2020-06-02T08:14:32Z</time>
      </trkpt>
      <trkpt lat="46.17619" lon="-1.21417">
        <ele>16.2</ele>
        <time>2020-06-02T08:14:33Z</time>
      </trkpt>
      <trkpt lat="46.17619" lon="-1.2141">
        <ele>16.2</ele>
        <time>2020-06-02T08:14:34Z</time>
      </trkpt>
      <trkpt lat="46.17619" lon="-1.21404">
        <ele>16.2</ele>
        <time>2020-06-02T08:14:35Z</time>
      </trkpt>
      <trkpt lat="46.1762" lon="-1.21397">
        <ele>16.3</ele>
        <time>2020-06-02T08:14:36Z</time>
      </trkpt>
      <trkpt lat="46.1762" lon="-1.21391">
        <ele>16.3</ele>
        <time>2020-06-02T08:14:37Z</time>
      </trkpt>
      <trkpt lat="46.17621" lon="-1.21385">
        <ele>16.3</ele>
        <time>2020-06-02T08:14:38Z</time>
      </trkpt>
      <trkpt lat="46.17622" lon="-1.21377">
        <ele>16.3</ele>
        <time>2020-06-02T08:14:39Z</time>
      </trkpt>
      <trkpt lat="46.17622" lon="-1.21372">
        <ele>16.3</ele>
        <time>2020-06-02T08:14:40Z</time>
      </trkpt>
      <trkpt lat="46.17623" lon="-1.21365">
        <ele>16.3</ele>
        <time>2020-06-02T08:14:41Z</time>
      </trkpt>
      <trkpt lat="46.17624" lon="-1.21358">
        <ele>16.3</ele>
        <time>2020-06-02T08:14:42Z</time>
      </trkpt>
      <trkpt lat="46.17624" lon="-1.21353">
        <ele>16.4</ele>
        <time>2020-06-02T08:14:43Z</time>
      </trkpt>
      <trkpt lat="46.17625" lon="-1.21347">
        <ele>16.4</ele>
        <time>2020-06-02T08:14:44Z</time>
      </trkpt>
      <trkpt lat="46.17625" lon="-1.21341">
        <ele>16.4</ele>
        <time>2020-06-02T08:14:45Z</time>
      </trkpt>
      <trkpt lat="46.17625" lon="-1.21335">
        <ele>16.4</ele>
        <time>2020-06-02T08:14:46Z</time>
      </trkpt>
      <trkpt lat="46.17626" lon="-1.21328">
        <ele>16.4</ele>
        <time>2020-06-02T08:14:47Z</time>
      </trkpt>
      <trkpt lat="46.17627" lon="-1.21321">
        <ele>16.4</ele>
        <time>2020-06-02T08:14:48Z</time>
      </trkpt>
      <trkpt lat="46.17627" lon="-1.21315">
        <ele>16.4</ele>
        <time>2020-06-02T08:14:49Z</time>
      </trkpt>
      <trkpt lat="46.17627" lon="-1.2131">
        <ele>16.4</ele>
        <time>2020-06-02T08:14:50Z</time>
      </trkpt>
      <trkpt lat="46.17628" lon="-1.21302">
        <ele>16.4</ele>
        <time>2020-06-02T08:14:51Z</time>
      </trkpt>
      <trkpt lat="46.17628" lon="-1.21295">
        <ele>16.3</ele>
        <time>2020-06-02T08:14:52Z</time>
      </trkpt>
      <trkpt lat="46.17629" lon="-1.21287">
        <ele>16.3</ele>
        <time>2020-06-02T08:14:53Z</time>
      </trkpt>
      <trkpt lat="46.1763" lon="-1.21281">
        <ele>16.3</ele>
        <time>2020-06-02T08:14:54Z</time>
      </trkpt>
      <trkpt lat="46.17631" lon="-1.21275">
        <ele>16.3</ele>
        <time>2020-06-02T08:14:55Z</time>
      </trkpt>
      <trkpt lat="46.17632" lon="-1.21271">
        <ele>16.2</ele>
        <time>2020-06-02T08:14:56Z</time>
      </trkpt>
      <trkpt lat="46.17632" lon="-1.21265">
        <ele>16.2</ele>
        <time>2020-06-02T08:14:57Z</time>
      </trkpt>
      <trkpt lat="46.17633" lon="-1.21257">
        <ele>16.1</ele>
        <time>2020-06-02T08:14:58Z</time>
      </trkpt>
      <trkpt lat="46.17634" lon="-1.21248">
        <ele>16</ele>
        <time>2020-06-02T08:14:59Z</time>
      </trkpt>
      <trkpt lat="46.17634" lon="-1.21242">
        <ele>16</ele>
        <time>2020-06-02T08:15:00Z</time>
      </trkpt>
      <trkpt lat="46.17635" lon="-1.21235">
        <ele>15.9</ele>
        <time>2020-06-02T08:15:01Z</time>
      </trkpt>
      <trkpt lat="46.17635" lon="-1.2123">
        <ele>15.8</ele>
        <time>2020-06-02T08:15:02Z</time>
      </trkpt>
      <trkpt lat="46.17636" lon="-1.21224">
        <ele>15.8</ele>
        <time>2020-06-02T08:15:03Z</time>
      </trkpt>
      <trkpt lat="46.17638" lon="-1.21218">
        <ele>15.7</ele>
        <time>2020-06-02T08:15:04Z</time>
      </trkpt>
      <trkpt lat="46.17641" lon="-1.21211">
        <ele>15.6</ele>
        <time>2020-06-02T08:15:05Z</time>
      </trkpt>
      <trkpt lat="46.17644" lon="-1.21206">
        <ele>15.6</ele>
        <time>2020-06-02T08:15:06Z</time>
      </trkpt>
      <trkpt lat="46.17646" lon="-1.212">
        <ele>15.5</ele>
        <time>2020-06-02T08:15:07Z</time>
      </trkpt>
      <trkpt lat="46.17648" lon="-1.21194">
        <ele>15.4</ele>
        <time>2020-06-02T08:15:08Z</time>
      </trkpt>
      <trkpt lat="46.1765" lon="-1.21188">
        <ele>15.4</ele>
        <time>2020-06-02T08:15:09Z</time>
      </trkpt>
      <trkpt lat="46.17653" lon="-1.21185">
        <ele>15.4</ele>
        <time>2020-06-02T08:15:10Z</time>
      </trkpt>
      <trkpt lat="46.17653" lon="-1.21183">
        <ele>15.4</ele>
        <time>2020-06-02T08:15:11Z</time>
      </trkpt>
      <trkpt lat="46.17657" lon="-1.21179">
        <ele>15.3</ele>
        <time>2020-06-02T08:15:12Z</time>
      </trkpt>
      <trkpt lat="46.17658" lon="-1.21178">
        <ele>15.3</ele>
        <time>2020-06-02T08:15:13Z</time>
      </trkpt>
      <trkpt lat="46.17663" lon="-1.21175">
        <ele>15.3</ele>
        <time>2020-06-02T08:15:14Z</time>
      </trkpt>
      <trkpt lat="46.17666" lon="-1.21173">
        <ele>15.3</ele>
        <time>2020-06-02T08:15:15Z</time>
      </trkpt>
      <trkpt lat="46.17669" lon="-1.21172">
        <ele>15.2</ele>
        <time>2020-06-02T08:15:16Z</time>
      </trkpt>
      <trkpt lat="46.17674" lon="-1.21172">
        <ele>15.2</ele>
        <time>2020-06-02T08:15:17Z</time>
      </trkpt>
      <trkpt lat="46.17678" lon="-1.21173">
        <ele>15.2</ele>
        <time>2020-06-02T08:15:18Z</time>
      </trkpt>
      <trkpt lat="46.17682" lon="-1.21174">
        <ele>15.2</ele>
        <time>2020-06-02T08:15:19Z</time>
      </trkpt>
      <trkpt lat="46.17687" lon="-1.21174">
        <ele>15.2</ele>
        <time>2020-06-02T08:15:20Z</time>
      </trkpt>
      <trkpt lat="46.17693" lon="-1.21175">
        <ele>15.2</ele>
        <time>2020-06-02T08:15:21Z</time>
      </trkpt>
      <trkpt lat="46.17699" lon="-1.21176">
        <ele>15.2</ele>
        <time>2020-06-02T08:15:22Z</time>
      </trkpt>
      <trkpt lat="46.17704" lon="-1.21177">
        <ele>15.2</ele>
        <time>2020-06-02T08:15:23Z</time>
      </trkpt>
      <trkpt lat="46.17709" lon="-1.21178">
        <ele>15.2</ele>
        <time>2020-06-02T08:15:24Z</time>
      </trkpt>
      <trkpt lat="46.17714" lon="-1.21179">
        <ele>15.2</ele>
        <time>2020-06-02T08:15:25Z</time>
      </trkpt>
      <trkpt lat="46.1772" lon="-1.21181">
        <ele>15.1</ele>
        <time>2020-06-02T08:15:26Z</time>
      </trkpt>
      <trkpt lat="46.17725" lon="-1.21183">
        <ele>15.1</ele>
        <time>2020-06-02T08:15:27Z</time>
      </trkpt>
      <trkpt lat="46.17728" lon="-1.21185">
        <ele>15.1</ele>
        <time>2020-06-02T08:15:28Z</time>
      </trkpt>
      <trkpt lat="46.17732" lon="-1.21186">
        <ele>15.1</ele>
        <time>2020-06-02T08:15:29Z</time>
      </trkpt>
      <trkpt lat="46.17736" lon="-1.21188">
        <ele>15.1</ele>
        <time>2020-06-02T08:15:30Z</time>
      </trkpt>
      <trkpt lat="46.17739" lon="-1.2119">
        <ele>15.1</ele>
        <time>2020-06-02T08:15:31Z</time>
      </trkpt>
      <trkpt lat="46.17743" lon="-1.21191">
        <ele>15.1</ele>
        <time>2020-06-02T08:15:32Z</time>
      </trkpt>
      <trkpt lat="46.17746" lon="-1.21189">
        <ele>15.1</ele>
        <time>2020-06-02T08:15:33Z</time>
      </trkpt>
      <trkpt lat="46.17749" lon="-1.21186">
        <ele>15.1</ele>
        <time>2020-06-02T08:15:34Z</time>
      </trkpt>
      <trkpt lat="46.17749" lon="-1.21181">
        <ele>15.1</ele>
        <time>2020-06-02T08:15:35Z</time>
      </trkpt>
      <trkpt lat="46.17753" lon="-1.21179">
        <ele>15.1</ele>
        <time>2020-06-02T08:15:36Z</time>
      </trkpt>
      <trkpt lat="46.17755" lon="-1.2118">
        <ele>15.1</ele>
        <time>2020-06-02T08:15:37Z</time>
      </trkpt>
      <trkpt lat="46.17759" lon="-1.21182">
        <ele>15.1</ele>
        <time>2020-06-02T08:15:38Z</time>
      </trkpt>
      <trkpt lat="46.17763" lon="-1.21182">
        <ele>15.1</ele>
        <time>2020-06-02T08:15:39Z</time>
      </trkpt>
      <trkpt lat="46.17766" lon="-1.21184">
        <ele>15.1</ele>
        <time>2020-06-02T08:15:40Z</time>
      </trkpt>
      <trkpt lat="46.1777" lon="-1.21182">
        <ele>15.1</ele>
        <time>2020-06-02T08:15:41Z</time>
      </trkpt>
      <trkpt lat="46.17772" lon="-1.21178">
        <ele>15.1</ele>
        <time>2020-06-02T08:15:42Z</time>
      </trkpt>
      <trkpt lat="46.17773" lon="-1.21173">
        <ele>15.1</ele>
        <time>2020-06-02T08:15:43Z</time>
      </trkpt>
      <trkpt lat="46.1777" lon="-1.21168">
        <ele>15.1</ele>
        <time>2020-06-02T08:15:44Z</time>
      </trkpt>
      <trkpt lat="46.17768" lon="-1.21164">
        <ele>15.1</ele>
        <time>2020-06-02T08:15:45Z</time>
      </trkpt>
      <trkpt lat="46.17765" lon="-1.2116">
        <ele>15.1</ele>
        <time>2020-06-02T08:15:46Z</time>
      </trkpt>
      <trkpt lat="46.17762" lon="-1.21155">
        <ele>15.1</ele>
        <time>2020-06-02T08:15:47Z</time>
      </trkpt>
      <trkpt lat="46.17759" lon="-1.21151">
        <ele>15.1</ele>
        <time>2020-06-02T08:15:48Z</time>
      </trkpt>
      <trkpt lat="46.17756" lon="-1.21147">
        <ele>15.1</ele>
        <time>2020-06-02T08:15:49Z</time>
      </trkpt>
      <trkpt lat="46.17754" lon="-1.21143">
        <ele>15.1</ele>
        <time>2020-06-02T08:15:50Z</time>
      </trkpt>
      <trkpt lat="46.17751" lon="-1.21139">
        <ele>15.1</ele>
        <time>2020-06-02T08:15:51Z</time>
      </trkpt>
      <trkpt lat="46.17749" lon="-1.21135">
        <ele>15.1</ele>
        <time>2020-06-02T08:15:52Z</time>
      </trkpt>
      <trkpt lat="46.17747" lon="-1.21132">
        <ele>15.1</ele>
        <time>2020-06-02T08:15:53Z</time>
      </trkpt>
      <trkpt lat="46.17745" lon="-1.21128">
        <ele>15.1</ele>
        <time>2020-06-02T08:15:54Z</time>
      </trkpt>
      <trkpt lat="46.17743" lon="-1.21124">
        <ele>15.1</ele>
        <time>2020-06-02T08:15:55Z</time>
      </trkpt>
      <trkpt lat="46.17741" lon="-1.2112">
        <ele>15.1</ele>
        <time>2020-06-02T08:15:56Z</time>
      </trkpt>
      <trkpt lat="46.17738" lon="-1.21117">
        <ele>15.1</ele>
        <time>2020-06-02T08:15:57Z</time>
      </trkpt>
      <trkpt lat="46.17736" lon="-1.21113">
        <ele>15.1</ele>
        <time>2020-06-02T08:15:58Z</time>
      </trkpt>
      <trkpt lat="46.17734" lon="-1.2111">
        <ele>15.1</ele>
        <time>2020-06-02T08:15:59Z</time>
      </trkpt>
      <trkpt lat="46.17732" lon="-1.21106">
        <ele>15.1</ele>
        <time>2020-06-02T08:16:00Z</time>
      </trkpt>
      <trkpt lat="46.17728" lon="-1.21103">
        <ele>15.1</ele>
        <time>2020-06-02T08:16:01Z</time>
      </trkpt>
      <trkpt lat="46.17724" lon="-1.21099">
        <ele>15.1</ele>
        <time>2020-06-02T08:16:02Z</time>
      </trkpt>
      <trkpt lat="46.17721" lon="-1.21095">
        <ele>15.1</ele>
        <time>2020-06-02T08:16:03Z</time>
      </trkpt>
      <trkpt lat="46.17718" lon="-1.2109">
        <ele>15.1</ele>
        <time>2020-06-02T08:16:04Z</time>
      </trkpt>
      <trkpt lat="46.17715" lon="-1.21085">
        <ele>15.1</ele>
        <time>2020-06-02T08:16:05Z</time>
      </trkpt>
      <trkpt lat="46.17712" lon="-1.2108">
        <ele>15.1</ele>
        <time>2020-06-02T08:16:06Z</time>
      </trkpt>
      <trkpt lat="46.17709" lon="-1.21074">
        <ele>15.1</ele>
        <time>2020-06-02T08:16:07Z</time>
      </trkpt>
      <trkpt lat="46.17707" lon="-1.21068">
        <ele>15.1</ele>
        <time>2020-06-02T08:16:08Z</time>
      </trkpt>
      <trkpt lat="46.17705" lon="-1.21062">
        <ele>15.1</ele>
        <time>2020-06-02T08:16:09Z</time>
      </trkpt>
      <trkpt lat="46.17702" lon="-1.21057">
        <ele>15.1</ele>
        <time>2020-06-02T08:16:10Z</time>
      </trkpt>
      <trkpt lat="46.17699" lon="-1.2105">
        <ele>15.1</ele>
        <time>2020-06-02T08:16:11Z</time>
      </trkpt>
      <trkpt lat="46.17695" lon="-1.21045">
        <ele>15.2</ele>
        <time>2020-06-02T08:16:12Z</time>
      </trkpt>
      <trkpt lat="46.17693" lon="-1.2104">
        <ele>15.2</ele>
        <time>2020-06-02T08:16:13Z</time>
      </trkpt>
      <trkpt lat="46.1769" lon="-1.21035">
        <ele>15.2</ele>
        <time>2020-06-02T08:16:14Z</time>
      </trkpt>
      <trkpt lat="46.17687" lon="-1.2103">
        <ele>15.2</ele>
        <time>2020-06-02T08:16:15Z</time>
      </trkpt>
      <trkpt lat="46.17684" lon="-1.21024">
        <ele>15.2</ele>
        <time>2020-06-02T08:16:16Z</time>
      </trkpt>
      <trkpt lat="46.1768" lon="-1.2102">
        <ele>15.3</ele>
        <time>2020-06-02T08:16:17Z</time>
      </trkpt>
      <trkpt lat="46.17677" lon="-1.21015">
        <ele>15.3</ele>
        <time>2020-06-02T08:16:18Z</time>
      </trkpt>
      <trkpt lat="46.17674" lon="-1.21009">
        <ele>15.3</ele>
        <time>2020-06-02T08:16:19Z</time>
      </trkpt>
      <trkpt lat="46.17671" lon="-1.21006">
        <ele>15.3</ele>
        <time>2020-06-02T08:16:20Z</time>
      </trkpt>
      <trkpt lat="46.17668" lon="-1.21001">
        <ele>15.3</ele>
        <time>2020-06-02T08:16:21Z</time>
      </trkpt>
      <trkpt lat="46.17665" lon="-1.20996">
        <ele>15.3</ele>
        <time>2020-06-02T08:16:22Z</time>
      </trkpt>
      <trkpt lat="46.17661" lon="-1.20991">
        <ele>15.3</ele>
        <time>2020-06-02T08:16:23Z</time>
      </trkpt>
      <trkpt lat="46.17659" lon="-1.20986">
        <ele>15.3</ele>
        <time>2020-06-02T08:16:24Z</time>
      </trkpt>
      <trkpt lat="46.17656" lon="-1.2098">
        <ele>15.3</ele>
        <time>2020-06-02T08:16:25Z</time>
      </trkpt>
      <trkpt lat="46.17652" lon="-1.20975">
        <ele>15.3</ele>
        <time>2020-06-02T08:16:26Z</time>
      </trkpt>
      <trkpt lat="46.17649" lon="-1.2097">
        <ele>15.3</ele>
        <time>2020-06-02T08:16:27Z</time>
      </trkpt>
      <trkpt lat="46.17645" lon="-1.20964">
        <ele>15.3</ele>
        <time>2020-06-02T08:16:28Z</time>
      </trkpt>
      <trkpt lat="46.17642" lon="-1.20959">
        <ele>15.3</ele>
        <time>2020-06-02T08:16:29Z</time>
      </trkpt>
      <trkpt lat="46.17638" lon="-1.20953">
        <ele>15.3</ele>
        <time>2020-06-02T08:16:30Z</time>
      </trkpt>
      <trkpt lat="46.17634" lon="-1.20947">
        <ele>15.3</ele>
        <time>2020-06-02T08:16:31Z</time>
      </trkpt>
      <trkpt lat="46.17631" lon="-1.20941">
        <ele>15.3</ele>
        <time>2020-06-02T08:16:32Z</time>
      </trkpt>
      <trkpt lat="46.17628" lon="-1.20936">
        <ele>15.3</ele>
        <time>2020-06-02T08:16:33Z</time>
      </trkpt>
      <trkpt lat="46.17624" lon="-1.20931">
        <ele>15.3</ele>
        <time>2020-06-02T08:16:34Z</time>
      </trkpt>
      <trkpt lat="46.17621" lon="-1.20926">
        <ele>15.3</ele>
        <time>2020-06-02T08:16:35Z</time>
      </trkpt>
      <trkpt lat="46.17618" lon="-1.2092">
        <ele>15.3</ele>
        <time>2020-06-02T08:16:36Z</time>
      </trkpt>
      <trkpt lat="46.17615" lon="-1.20913">
        <ele>15.3</ele>
        <time>2020-06-02T08:16:37Z</time>
      </trkpt>
      <trkpt lat="46.17612" lon="-1.20908">
        <ele>15.3</ele>
        <time>2020-06-02T08:16:38Z</time>
      </trkpt>
      <trkpt lat="46.17609" lon="-1.20903">
        <ele>15.3</ele>
        <time>2020-06-02T08:16:39Z</time>
      </trkpt>
      <trkpt lat="46.17607" lon="-1.20897">
        <ele>15.3</ele>
        <time>2020-06-02T08:16:40Z</time>
      </trkpt>
      <trkpt lat="46.17603" lon="-1.20891">
        <ele>15.3</ele>
        <time>2020-06-02T08:16:41Z</time>
      </trkpt>
      <trkpt lat="46.17601" lon="-1.20886">
        <ele>15.3</ele>
        <time>2020-06-02T08:16:42Z</time>
      </trkpt>
      <trkpt lat="46.17598" lon="-1.2088">
        <ele>15.3</ele>
        <time>2020-06-02T08:16:43Z</time>
      </trkpt>
      <trkpt lat="46.17596" lon="-1.20874">
        <ele>15.3</ele>
        <time>2020-06-02T08:16:44Z</time>
      </trkpt>
      <trkpt lat="46.17594" lon="-1.20868">
        <ele>15.3</ele>
        <time>2020-06-02T08:16:45Z</time>
      </trkpt>
      <trkpt lat="46.17592" lon="-1.20862">
        <ele>15.2</ele>
        <time>2020-06-02T08:16:46Z</time>
      </trkpt>
      <trkpt lat="46.17589" lon="-1.20857">
        <ele>15.2</ele>
        <time>2020-06-02T08:16:47Z</time>
      </trkpt>
      <trkpt lat="46.17587" lon="-1.20851">
        <ele>15.2</ele>
        <time>2020-06-02T08:16:48Z</time>
      </trkpt>
      <trkpt lat="46.17584" lon="-1.20847">
        <ele>15.1</ele>
        <time>2020-06-02T08:16:49Z</time>
      </trkpt>
      <trkpt lat="46.17582" lon="-1.20841">
        <ele>15.1</ele>
        <time>2020-06-02T08:16:50Z</time>
      </trkpt>
      <trkpt lat="46.1758" lon="-1.20835">
        <ele>15</ele>
        <time>2020-06-02T08:16:51Z</time>
      </trkpt>
      <trkpt lat="46.17578" lon="-1.20829">
        <ele>14.9</ele>
        <time>2020-06-02T08:16:52Z</time>
      </trkpt>
      <trkpt lat="46.17576" lon="-1.20824">
        <ele>14.8</ele>
        <time>2020-06-02T08:16:53Z</time>
      </trkpt>
      <trkpt lat="46.17574" lon="-1.20816">
        <ele>14.7</ele>
        <time>2020-06-02T08:16:54Z</time>
      </trkpt>
      <trkpt lat="46.17572" lon="-1.20809">
        <ele>14.6</ele>
        <time>2020-06-02T08:16:55Z</time>
      </trkpt>
      <trkpt lat="46.1757" lon="-1.20802">
        <ele>14.5</ele>
        <time>2020-06-02T08:16:56Z</time>
      </trkpt>
      <trkpt lat="46.17569" lon="-1.20794">
        <ele>14.4</ele>
        <time>2020-06-02T08:16:57Z</time>
      </trkpt>
      <trkpt lat="46.17567" lon="-1.20786">
        <ele>14.3</ele>
        <time>2020-06-02T08:16:58Z</time>
      </trkpt>
      <trkpt lat="46.17567" lon="-1.20779">
        <ele>14.1</ele>
        <time>2020-06-02T08:16:59Z</time>
      </trkpt>
      <trkpt lat="46.17566" lon="-1.20771">
        <ele>14</ele>
        <time>2020-06-02T08:17:00Z</time>
      </trkpt>
      <trkpt lat="46.17565" lon="-1.20764">
        <ele>13.9</ele>
        <time>2020-06-02T08:17:01Z</time>
      </trkpt>
      <trkpt lat="46.17563" lon="-1.20756">
        <ele>13.8</ele>
        <time>2020-06-02T08:17:02Z</time>
      </trkpt>
      <trkpt lat="46.17562" lon="-1.20747">
        <ele>13.7</ele>
        <time>2020-06-02T08:17:03Z</time>
      </trkpt>
      <trkpt lat="46.17561" lon="-1.20739">
        <ele>13.6</ele>
        <time>2020-06-02T08:17:04Z</time>
      </trkpt>
      <trkpt lat="46.17561" lon="-1.20733">
        <ele>13.6</ele>
        <time>2020-06-02T08:17:05Z</time>
      </trkpt>
      <trkpt lat="46.1756" lon="-1.20725">
        <ele>13.5</ele>
        <time>2020-06-02T08:17:06Z</time>
      </trkpt>
      <trkpt lat="46.17559" lon="-1.20718">
        <ele>13.4</ele>
        <time>2020-06-02T08:17:07Z</time>
      </trkpt>
      <trkpt lat="46.17558" lon="-1.20712">
        <ele>13.3</ele>
        <time>2020-06-02T08:17:08Z</time>
      </trkpt>
      <trkpt lat="46.17556" lon="-1.20706">
        <ele>13.2</ele>
        <time>2020-06-02T08:17:09Z</time>
      </trkpt>
      <trkpt lat="46.17555" lon="-1.20699">
        <ele>13.2</ele>
        <time>2020-06-02T08:17:10Z</time>
      </trkpt>
      <trkpt lat="46.17553" lon="-1.20693">
        <ele>13.1</ele>
        <time>2020-06-02T08:17:11Z</time>
      </trkpt>
      <trkpt lat="46.17549" lon="-1.20688">
        <ele>13.1</ele>
        <time>2020-06-02T08:17:12Z</time>
      </trkpt>
      <trkpt lat="46.17546" lon="-1.20682">
        <ele>13</ele>
        <time>2020-06-02T08:17:13Z</time>
      </trkpt>
      <trkpt lat="46.17543" lon="-1.20677">
        <ele>13</ele>
        <time>2020-06-02T08:17:14Z</time>
      </trkpt>
      <trkpt lat="46.1754" lon="-1.20671">
        <ele>13</ele>
        <time>2020-06-02T08:17:15Z</time>
      </trkpt>
      <trkpt lat="46.17537" lon="-1.20665">
        <ele>13</ele>
        <time>2020-06-02T08:17:16Z</time>
      </trkpt>
      <trkpt lat="46.17535" lon="-1.20659">
        <ele>13</ele>
        <time>2020-06-02T08:17:17Z</time>
      </trkpt>
      <trkpt lat="46.17533" lon="-1.20652">
        <ele>13</ele>
        <time>2020-06-02T08:17:18Z</time>
      </trkpt>
      <trkpt lat="46.17531" lon="-1.20646">
        <ele>12.9</ele>
        <time>2020-06-02T08:17:19Z</time>
      </trkpt>
      <trkpt lat="46.17528" lon="-1.20639">
        <ele>12.9</ele>
        <time>2020-06-02T08:17:20Z</time>
      </trkpt>
      <trkpt lat="46.17526" lon="-1.20632">
        <ele>12.9</ele>
        <time>2020-06-02T08:17:21Z</time>
      </trkpt>
      <trkpt lat="46.17524" lon="-1.20625">
        <ele>12.8</ele>
        <time>2020-06-02T08:17:22Z</time>
      </trkpt>
      <trkpt lat="46.17523" lon="-1.20618">
        <ele>12.8</ele>
        <time>2020-06-02T08:17:23Z</time>
      </trkpt>
      <trkpt lat="46.17521" lon="-1.2061">
        <ele>12.7</ele>
        <time>2020-06-02T08:17:24Z</time>
      </trkpt>
      <trkpt lat="46.1752" lon="-1.20603">
        <ele>12.6</ele>
        <time>2020-06-02T08:17:25Z</time>
      </trkpt>
      <trkpt lat="46.1752" lon="-1.20595">
        <ele>12.5</ele>
        <time>2020-06-02T08:17:26Z</time>
      </trkpt>
      <trkpt lat="46.1752" lon="-1.20588">
        <ele>12.4</ele>
        <time>2020-06-02T08:17:27Z</time>
      </trkpt>
      <trkpt lat="46.1752" lon="-1.20581">
        <ele>12.4</ele>
        <time>2020-06-02T08:17:28Z</time>
      </trkpt>
      <trkpt lat="46.17519" lon="-1.20575">
        <ele>12.3</ele>
        <time>2020-06-02T08:17:29Z</time>
      </trkpt>
      <trkpt lat="46.17517" lon="-1.20569">
        <ele>12.2</ele>
        <time>2020-06-02T08:17:30Z</time>
      </trkpt>
      <trkpt lat="46.17515" lon="-1.20563">
        <ele>12.2</ele>
        <time>2020-06-02T08:17:31Z</time>
      </trkpt>
      <trkpt lat="46.17514" lon="-1.20557">
        <ele>12.1</ele>
        <time>2020-06-02T08:17:32Z</time>
      </trkpt>
      <trkpt lat="46.17511" lon="-1.2055">
        <ele>12</ele>
        <time>2020-06-02T08:17:33Z</time>
      </trkpt>
      <trkpt lat="46.1751" lon="-1.20543">
        <ele>11.9</ele>
        <time>2020-06-02T08:17:34Z</time>
      </trkpt>
      <trkpt lat="46.17508" lon="-1.20537">
        <ele>11.9</ele>
        <time>2020-06-02T08:17:35Z</time>
      </trkpt>
      <trkpt lat="46.17506" lon="-1.20531">
        <ele>11.8</ele>
        <time>2020-06-02T08:17:36Z</time>
      </trkpt>
      <trkpt lat="46.17504" lon="-1.20524">
        <ele>11.8</ele>
        <time>2020-06-02T08:17:37Z</time>
      </trkpt>
      <trkpt lat="46.17503" lon="-1.20517">
        <ele>11.8</ele>
        <time>2020-06-02T08:17:38Z</time>
      </trkpt>
      <trkpt lat="46.17499" lon="-1.20511">
        <ele>11.7</ele>
        <time>2020-06-02T08:17:39Z</time>
      </trkpt>
      <trkpt lat="46.17497" lon="-1.20506">
        <ele>11.7</ele>
        <time>2020-06-02T08:17:40Z</time>
      </trkpt>
      <trkpt lat="46.17496" lon="-1.205">
        <ele>11.6</ele>
        <time>2020-06-02T08:17:41Z</time>
      </trkpt>
      <trkpt lat="46.17494" lon="-1.20494">
        <ele>11.6</ele>
        <time>2020-06-02T08:17:42Z</time>
      </trkpt>
      <trkpt lat="46.17493" lon="-1.20486">
        <ele>11.5</ele>
        <time>2020-06-02T08:17:43Z</time>
      </trkpt>
      <trkpt lat="46.17491" lon="-1.20479">
        <ele>11.4</ele>
        <time>2020-06-02T08:17:44Z</time>
      </trkpt>
      <trkpt lat="46.1749" lon="-1.2047">
        <ele>11.4</ele>
        <time>2020-06-02T08:17:45Z</time>
      </trkpt>
      <trkpt lat="46.17488" lon="-1.20463">
        <ele>11.3</ele>
        <time>2020-06-02T08:17:46Z</time>
      </trkpt>
      <trkpt lat="46.17486" lon="-1.20456">
        <ele>11.2</ele>
        <time>2020-06-02T08:17:47Z</time>
      </trkpt>
      <trkpt lat="46.17484" lon="-1.20449">
        <ele>11.2</ele>
        <time>2020-06-02T08:17:48Z</time>
      </trkpt>
      <trkpt lat="46.17483" lon="-1.20443">
        <ele>11.1</ele>
        <time>2020-06-02T08:17:49Z</time>
      </trkpt>
      <trkpt lat="46.17481" lon="-1.20437">
        <ele>11</ele>
        <time>2020-06-02T08:17:50Z</time>
      </trkpt>
      <trkpt lat="46.17479" lon="-1.2043">
        <ele>11</ele>
        <time>2020-06-02T08:17:51Z</time>
      </trkpt>
      <trkpt lat="46.17478" lon="-1.20423">
        <ele>10.9</ele>
        <time>2020-06-02T08:17:52Z</time>
      </trkpt>
      <trkpt lat="46.17476" lon="-1.20417">
        <ele>10.8</ele>
        <time>2020-06-02T08:17:53Z</time>
      </trkpt>
      <trkpt lat="46.17474" lon="-1.2041">
        <ele>10.7</ele>
        <time>2020-06-02T08:17:54Z</time>
      </trkpt>
      <trkpt lat="46.17472" lon="-1.20403">
        <ele>10.6</ele>
        <time>2020-06-02T08:17:55Z</time>
      </trkpt>
      <trkpt lat="46.17471" lon="-1.20396">
        <ele>10.5</ele>
        <time>2020-06-02T08:17:56Z</time>
      </trkpt>
      <trkpt lat="46.17469" lon="-1.20388">
        <ele>10.4</ele>
        <time>2020-06-02T08:17:57Z</time>
      </trkpt>
      <trkpt lat="46.17466" lon="-1.2038">
        <ele>10.3</ele>
        <time>2020-06-02T08:17:58Z</time>
      </trkpt>
      <trkpt lat="46.17463" lon="-1.20372">
        <ele>10.2</ele>
        <time>2020-06-02T08:17:59Z</time>
      </trkpt>
      <trkpt lat="46.17461" lon="-1.20362">
        <ele>10.1</ele>
        <time>2020-06-02T08:18:00Z</time>
      </trkpt>
      <trkpt lat="46.17459" lon="-1.20354">
        <ele>10</ele>
        <time>2020-06-02T08:18:01Z</time>
      </trkpt>
      <trkpt lat="46.17457" lon="-1.20345">
        <ele>9.9</ele>
        <time>2020-06-02T08:18:02Z</time>
      </trkpt>
      <trkpt lat="46.17455" lon="-1.20338">
        <ele>9.9</ele>
        <time>2020-06-02T08:18:03Z</time>
      </trkpt>
      <trkpt lat="46.17452" lon="-1.20331">
        <ele>9.8</ele>
        <time>2020-06-02T08:18:04Z</time>
      </trkpt>
      <trkpt lat="46.17451" lon="-1.20322">
        <ele>9.7</ele>
        <time>2020-06-02T08:18:05Z</time>
      </trkpt>
      <trkpt lat="46.17448" lon="-1.20314">
        <ele>9.6</ele>
        <time>2020-06-02T08:18:06Z</time>
      </trkpt>
      <trkpt lat="46.17446" lon="-1.20306">
        <ele>9.5</ele>
        <time>2020-06-02T08:18:07Z</time>
      </trkpt>
      <trkpt lat="46.17443" lon="-1.20298">
        <ele>9.4</ele>
        <time>2020-06-02T08:18:08Z</time>
      </trkpt>
      <trkpt lat="46.17441" lon="-1.2029">
        <ele>9.3</ele>
        <time>2020-06-02T08:18:09Z</time>
      </trkpt>
      <trkpt lat="46.17439" lon="-1.20283">
        <ele>9.2</ele>
        <time>2020-06-02T08:18:10Z</time>
      </trkpt>
      <trkpt lat="46.17437" lon="-1.20275">
        <ele>9.2</ele>
        <time>2020-06-02T08:18:11Z</time>
      </trkpt>
      <trkpt lat="46.17435" lon="-1.20267">
        <ele>9.1</ele>
        <time>2020-06-02T08:18:12Z</time>
      </trkpt>
      <trkpt lat="46.17432" lon="-1.2026">
        <ele>9</ele>
        <time>2020-06-02T08:18:13Z</time>
      </trkpt>
      <trkpt lat="46.1743" lon="-1.20252">
        <ele>9</ele>
        <time>2020-06-02T08:18:14Z</time>
      </trkpt>
      <trkpt lat="46.17428" lon="-1.20245">
        <ele>8.9</ele>
        <time>2020-06-02T08:18:15Z</time>
      </trkpt>
      <trkpt lat="46.17428" lon="-1.2024">
        <ele>8.9</ele>
        <time>2020-06-02T08:18:16Z</time>
      </trkpt>
      <trkpt lat="46.17427" lon="-1.20234">
        <ele>8.9</ele>
        <time>2020-06-02T08:18:17Z</time>
      </trkpt>
      <trkpt lat="46.17427" lon="-1.20227">
        <ele>8.9</ele>
        <time>2020-06-02T08:18:18Z</time>
      </trkpt>
      <trkpt lat="46.17426" lon="-1.20219">
        <ele>8.8</ele>
        <time>2020-06-02T08:18:19Z</time>
      </trkpt>
      <trkpt lat="46.17425" lon="-1.20212">
        <ele>8.8</ele>
        <time>2020-06-02T08:18:20Z</time>
      </trkpt>
      <trkpt lat="46.17424" lon="-1.20205">
        <ele>8.8</ele>
        <time>2020-06-02T08:18:21Z</time>
      </trkpt>
      <trkpt lat="46.17422" lon="-1.20197">
        <ele>8.7</ele>
        <time>2020-06-02T08:18:22Z</time>
      </trkpt>
      <trkpt lat="46.17421" lon="-1.20189">
        <ele>8.7</ele>
        <time>2020-06-02T08:18:23Z</time>
      </trkpt>
      <trkpt lat="46.17419" lon="-1.20182">
        <ele>8.7</ele>
        <time>2020-06-02T08:18:24Z</time>
      </trkpt>
      <trkpt lat="46.17418" lon="-1.20176">
        <ele>8.7</ele>
        <time>2020-06-02T08:18:25Z</time>
      </trkpt>
      <trkpt lat="46.17417" lon="-1.20169">
        <ele>8.7</ele>
        <time>2020-06-02T08:18:26Z</time>
      </trkpt>
      <trkpt lat="46.17416" lon="-1.20163">
        <ele>8.7</ele>
        <time>2020-06-02T08:18:27Z</time>
      </trkpt>
      <trkpt lat="46.17414" lon="-1.20156">
        <ele>8.7</ele>
        <time>2020-06-02T08:18:28Z</time>
      </trkpt>
      <trkpt lat="46.17413" lon="-1.2015">
        <ele>8.8</ele>
        <time>2020-06-02T08:18:29Z</time>
      </trkpt>
      <trkpt lat="46.1741" lon="-1.20143">
        <ele>8.8</ele>
        <time>2020-06-02T08:18:30Z</time>
      </trkpt>
      <trkpt lat="46.17408" lon="-1.20137">
        <ele>8.8</ele>
        <time>2020-06-02T08:18:31Z</time>
      </trkpt>
      <trkpt lat="46.17406" lon="-1.2013">
        <ele>8.8</ele>
        <time>2020-06-02T08:18:32Z</time>
      </trkpt>
      <trkpt lat="46.17404" lon="-1.20123">
        <ele>8.8</ele>
        <time>2020-06-02T08:18:33Z</time>
      </trkpt>
      <trkpt lat="46.17401" lon="-1.20117">
        <ele>8.8</ele>
        <time>2020-06-02T08:18:34Z</time>
      </trkpt>
      <trkpt lat="46.17398" lon="-1.2011">
        <ele>8.8</ele>
        <time>2020-06-02T08:18:35Z</time>
      </trkpt>
      <trkpt lat="46.17396" lon="-1.20102">
        <ele>8.8</ele>
        <time>2020-06-02T08:18:36Z</time>
      </trkpt>
      <trkpt lat="46.17393" lon="-1.20095">
        <ele>8.8</ele>
        <time>2020-06-02T08:18:37Z</time>
      </trkpt>
      <trkpt lat="46.17391" lon="-1.20088">
        <ele>8.9</ele>
        <time>2020-06-02T08:18:38Z</time>
      </trkpt>
      <trkpt lat="46.17389" lon="-1.2008">
        <ele>8.9</ele>
        <time>2020-06-02T08:18:39Z</time>
      </trkpt>
      <trkpt lat="46.17388" lon="-1.20073">
        <ele>9</ele>
        <time>2020-06-02T08:18:40Z</time>
      </trkpt>
      <trkpt lat="46.17386" lon="-1.20066">
        <ele>9.1</ele>
        <time>2020-06-02T08:18:41Z</time>
      </trkpt>
      <trkpt lat="46.17385" lon="-1.20058">
        <ele>9.1</ele>
        <time>2020-06-02T08:18:42Z</time>
      </trkpt>
      <trkpt lat="46.17385" lon="-1.20051">
        <ele>9.2</ele>
        <time>2020-06-02T08:18:43Z</time>
      </trkpt>
      <trkpt lat="46.17386" lon="-1.20044">
        <ele>9.3</ele>
        <time>2020-06-02T08:18:44Z</time>
      </trkpt>
      <trkpt lat="46.17387" lon="-1.20037">
        <ele>9.3</ele>
        <time>2020-06-02T08:18:45Z</time>
      </trkpt>
      <trkpt lat="46.17389" lon="-1.2003">
        <ele>9.4</ele>
        <time>2020-06-02T08:18:46Z</time>
      </trkpt>
      <trkpt lat="46.1739" lon="-1.20024">
        <ele>9.5</ele>
        <time>2020-06-02T08:18:47Z</time>
      </trkpt>
      <trkpt lat="46.17392" lon="-1.20019">
        <ele>9.6</ele>
        <time>2020-06-02T08:18:48Z</time>
      </trkpt>
      <trkpt lat="46.17394" lon="-1.20013">
        <ele>9.6</ele>
        <time>2020-06-02T08:18:49Z</time>
      </trkpt>
      <trkpt lat="46.17395" lon="-1.20006">
        <ele>9.7</ele>
        <time>2020-06-02T08:18:50Z</time>
      </trkpt>
      <trkpt lat="46.17394" lon="-1.2">
        <ele>9.8</ele>
        <time>2020-06-02T08:18:51Z</time>
      </trkpt>
      <trkpt lat="46.17392" lon="-1.19994">
        <ele>9.9</ele>
        <time>2020-06-02T08:18:52Z</time>
      </trkpt>
      <trkpt lat="46.17391" lon="-1.19989">
        <ele>10</ele>
        <time>2020-06-02T08:18:53Z</time>
      </trkpt>
      <trkpt lat="46.17391" lon="-1.19983">
        <ele>10</ele>
        <time>2020-06-02T08:18:54Z</time>
      </trkpt>
      <trkpt lat="46.1739" lon="-1.19977">
        <ele>10</ele>
        <time>2020-06-02T08:18:55Z</time>
      </trkpt>
      <trkpt lat="46.1739" lon="-1.19971">
        <ele>10.1</ele>
        <time>2020-06-02T08:18:56Z</time>
      </trkpt>
      <trkpt lat="46.17389" lon="-1.19966">
        <ele>10.1</ele>
        <time>2020-06-02T08:18:57Z</time>
      </trkpt>
      <trkpt lat="46.17388" lon="-1.1996">
        <ele>10.1</ele>
        <time>2020-06-02T08:18:58Z</time>
      </trkpt>
      <trkpt lat="46.17386" lon="-1.19956">
        <ele>10.2</ele>
        <time>2020-06-02T08:18:59Z</time>
      </trkpt>
      <trkpt lat="46.17385" lon="-1.19951">
        <ele>10.2</ele>
        <time>2020-06-02T08:19:00Z</time>
      </trkpt>
      <trkpt lat="46.17385" lon="-1.19946">
        <ele>10.2</ele>
        <time>2020-06-02T08:19:01Z</time>
      </trkpt>
      <trkpt lat="46.17385" lon="-1.1994">
        <ele>10.2</ele>
        <time>2020-06-02T08:19:02Z</time>
      </trkpt>
      <trkpt lat="46.17387" lon="-1.19937">
        <ele>10.2</ele>
        <time>2020-06-02T08:19:03Z</time>
      </trkpt>
      <trkpt lat="46.17389" lon="-1.19932">
        <ele>10.2</ele>
        <time>2020-06-02T08:19:04Z</time>
      </trkpt>
      <trkpt lat="46.17391" lon="-1.19926">
        <ele>10.3</ele>
        <time>2020-06-02T08:19:05Z</time>
      </trkpt>
      <trkpt lat="46.17394" lon="-1.19921">
        <ele>10.3</ele>
        <time>2020-06-02T08:19:06Z</time>
      </trkpt>
      <trkpt lat="46.17396" lon="-1.19915">
        <ele>10.4</ele>
        <time>2020-06-02T08:19:07Z</time>
      </trkpt>
      <trkpt lat="46.17398" lon="-1.1991">
        <ele>10.5</ele>
        <time>2020-06-02T08:19:08Z</time>
      </trkpt>
      <trkpt lat="46.174" lon="-1.19904">
        <ele>10.6</ele>
        <time>2020-06-02T08:19:09Z</time>
      </trkpt>
      <trkpt lat="46.17402" lon="-1.19898">
        <ele>10.7</ele>
        <time>2020-06-02T08:19:10Z</time>
      </trkpt>
      <trkpt lat="46.17405" lon="-1.19893">
        <ele>10.8</ele>
        <time>2020-06-02T08:19:11Z</time>
      </trkpt>
      <trkpt lat="46.17407" lon="-1.19887">
        <ele>10.9</ele>
        <time>2020-06-02T08:19:12Z</time>
      </trkpt>
      <trkpt lat="46.1741" lon="-1.19883">
        <ele>10.9</ele>
        <time>2020-06-02T08:19:13Z</time>
      </trkpt>
      <trkpt lat="46.17411" lon="-1.19878">
        <ele>11</ele>
        <time>2020-06-02T08:19:14Z</time>
      </trkpt>
      <trkpt lat="46.17413" lon="-1.19873">
        <ele>11.1</ele>
        <time>2020-06-02T08:19:15Z</time>
      </trkpt>
      <trkpt lat="46.17415" lon="-1.19868">
        <ele>11.1</ele>
        <time>2020-06-02T08:19:16Z</time>
      </trkpt>
      <trkpt lat="46.17416" lon="-1.19863">
        <ele>11.2</ele>
        <time>2020-06-02T08:19:17Z</time>
      </trkpt>
      <trkpt lat="46.17418" lon="-1.19859">
        <ele>11.2</ele>
        <time>2020-06-02T08:19:18Z</time>
      </trkpt>
      <trkpt lat="46.1742" lon="-1.19854">
        <ele>11.2</ele>
        <time>2020-06-02T08:19:19Z</time>
      </trkpt>
      <trkpt lat="46.17422" lon="-1.1985">
        <ele>11.2</ele>
        <time>2020-06-02T08:19:20Z</time>
      </trkpt>
      <trkpt lat="46.17424" lon="-1.19845">
        <ele>11.2</ele>
        <time>2020-06-02T08:19:21Z</time>
      </trkpt>
      <trkpt lat="46.17425" lon="-1.1984">
        <ele>11.3</ele>
        <time>2020-06-02T08:19:22Z</time>
      </trkpt>
      <trkpt lat="46.17427" lon="-1.19836">
        <ele>11.3</ele>
        <time>2020-06-02T08:19:23Z</time>
      </trkpt>
      <trkpt lat="46.17428" lon="-1.1983">
        <ele>11.3</ele>
        <time>2020-06-02T08:19:24Z</time>
      </trkpt>
      <trkpt lat="46.17429" lon="-1.19825">
        <ele>11.4</ele>
        <time>2020-06-02T08:19:25Z</time>
      </trkpt>
      <trkpt lat="46.17426" lon="-1.19822">
        <ele>11.4</ele>
        <time>2020-06-02T08:19:26Z</time>
      </trkpt>
      <trkpt lat="46.17424" lon="-1.19821">
        <ele>11.5</ele>
        <time>2020-06-02T08:19:27Z</time>
      </trkpt>
      <trkpt lat="46.17421" lon="-1.19818">
        <ele>11.6</ele>
        <time>2020-06-02T08:19:28Z</time>
      </trkpt>
      <trkpt lat="46.17417" lon="-1.19815">
        <ele>11.6</ele>
        <time>2020-06-02T08:19:29Z</time>
      </trkpt>
      <trkpt lat="46.17414" lon="-1.19812">
        <ele>11.6</ele>
        <time>2020-06-02T08:19:30Z</time>
      </trkpt>
      <trkpt lat="46.17413" lon="-1.19808">
        <ele>11.6</ele>
        <time>2020-06-02T08:19:31Z</time>
      </trkpt>
      <trkpt lat="46.17411" lon="-1.19802">
        <ele>11.5</ele>
        <time>2020-06-02T08:19:32Z</time>
      </trkpt>
      <trkpt lat="46.17409" lon="-1.19797">
        <ele>11.5</ele>
        <time>2020-06-02T08:19:33Z</time>
      </trkpt>
      <trkpt lat="46.17407" lon="-1.19792">
        <ele>11.5</ele>
        <time>2020-06-02T08:19:34Z</time>
      </trkpt>
      <trkpt lat="46.17405" lon="-1.19787">
        <ele>11.5</ele>
        <time>2020-06-02T08:19:35Z</time>
      </trkpt>
      <trkpt lat="46.17404" lon="-1.19782">
        <ele>11.6</ele>
        <time>2020-06-02T08:19:36Z</time>
      </trkpt>
      <trkpt lat="46.17403" lon="-1.19777">
        <ele>11.6</ele>
        <time>2020-06-02T08:19:37Z</time>
      </trkpt>
      <trkpt lat="46.174" lon="-1.19772">
        <ele>11.6</ele>
        <time>2020-06-02T08:19:38Z</time>
      </trkpt>
      <trkpt lat="46.17398" lon="-1.19768">
        <ele>11.6</ele>
        <time>2020-06-02T08:19:39Z</time>
      </trkpt>
      <trkpt lat="46.17396" lon="-1.19765">
        <ele>11.6</ele>
        <time>2020-06-02T08:19:40Z</time>
      </trkpt>
      <trkpt lat="46.17392" lon="-1.19765">
        <ele>11.6</ele>
        <time>2020-06-02T08:19:41Z</time>
      </trkpt>
      <trkpt lat="46.17389" lon="-1.19765">
        <ele>11.6</ele>
        <time>2020-06-02T08:19:42Z</time>
      </trkpt>
      <trkpt lat="46.17385" lon="-1.19765">
        <ele>11.6</ele>
        <time>2020-06-02T08:19:43Z</time>
      </trkpt>
      <trkpt lat="46.1738" lon="-1.19766">
        <ele>11.6</ele>
        <time>2020-06-02T08:19:44Z</time>
      </trkpt>
      <trkpt lat="46.17376" lon="-1.19766">
        <ele>11.7</ele>
        <time>2020-06-02T08:19:45Z</time>
      </trkpt>
      <trkpt lat="46.17372" lon="-1.19765">
        <ele>11.7</ele>
        <time>2020-06-02T08:19:46Z</time>
      </trkpt>
      <trkpt lat="46.17368" lon="-1.19763">
        <ele>11.7</ele>
        <time>2020-06-02T08:19:47Z</time>
      </trkpt>
      <trkpt lat="46.17364" lon="-1.19761">
        <ele>11.7</ele>
        <time>2020-06-02T08:19:48Z</time>
      </trkpt>
      <trkpt lat="46.1736" lon="-1.1976">
        <ele>11.7</ele>
        <time>2020-06-02T08:19:49Z</time>
      </trkpt>
      <trkpt lat="46.17356" lon="-1.19758">
        <ele>11.8</ele>
        <time>2020-06-02T08:19:50Z</time>
      </trkpt>
      <trkpt lat="46.17351" lon="-1.19756">
        <ele>11.8</ele>
        <time>2020-06-02T08:19:51Z</time>
      </trkpt>
      <trkpt lat="46.17347" lon="-1.19755">
        <ele>11.8</ele>
        <time>2020-06-02T08:19:52Z</time>
      </trkpt>
      <trkpt lat="46.17343" lon="-1.19754">
        <ele>11.9</ele>
        <time>2020-06-02T08:19:53Z</time>
      </trkpt>
      <trkpt lat="46.17338" lon="-1.19751">
        <ele>11.9</ele>
        <time>2020-06-02T08:19:54Z</time>
      </trkpt>
      <trkpt lat="46.17333" lon="-1.1975">
        <ele>12</ele>
        <time>2020-06-02T08:19:55Z</time>
      </trkpt>
      <trkpt lat="46.17329" lon="-1.19747">
        <ele>12</ele>
        <time>2020-06-02T08:19:56Z</time>
      </trkpt>
      <trkpt lat="46.17324" lon="-1.19745">
        <ele>12.1</ele>
        <time>2020-06-02T08:19:57Z</time>
      </trkpt>
      <trkpt lat="46.1732" lon="-1.19743">
        <ele>12.2</ele>
        <time>2020-06-02T08:19:58Z</time>
      </trkpt>
      <trkpt lat="46.17318" lon="-1.19739">
        <ele>12.2</ele>
        <time>2020-06-02T08:19:59Z</time>
      </trkpt>
      <trkpt lat="46.17316" lon="-1.19734">
        <ele>12.3</ele>
        <time>2020-06-02T08:20:00Z</time>
      </trkpt>
      <trkpt lat="46.17313" lon="-1.1973">
        <ele>12.4</ele>
        <time>2020-06-02T08:20:01Z</time>
      </trkpt>
      <trkpt lat="46.17311" lon="-1.19725">
        <ele>12.5</ele>
        <time>2020-06-02T08:20:02Z</time>
      </trkpt>
      <trkpt lat="46.17308" lon="-1.19721">
        <ele>12.6</ele>
        <time>2020-06-02T08:20:03Z</time>
      </trkpt>
      <trkpt lat="46.17306" lon="-1.19716">
        <ele>12.7</ele>
        <time>2020-06-02T08:20:04Z</time>
      </trkpt>
      <trkpt lat="46.17303" lon="-1.19711">
        <ele>12.8</ele>
        <time>2020-06-02T08:20:05Z</time>
      </trkpt>
      <trkpt lat="46.17301" lon="-1.19707">
        <ele>12.9</ele>
        <time>2020-06-02T08:20:06Z</time>
      </trkpt>
      <trkpt lat="46.17299" lon="-1.19703">
        <ele>13</ele>
        <time>2020-06-02T08:20:07Z</time>
      </trkpt>
      <trkpt lat="46.17297" lon="-1.19701">
        <ele>13.1</ele>
        <time>2020-06-02T08:20:08Z</time>
      </trkpt>
      <trkpt lat="46.17294" lon="-1.19697">
        <ele>13.2</ele>
        <time>2020-06-02T08:20:09Z</time>
      </trkpt>
      <trkpt lat="46.17292" lon="-1.19695">
        <ele>13.2</ele>
        <time>2020-06-02T08:20:10Z</time>
      </trkpt>
      <trkpt lat="46.17289" lon="-1.19691">
        <ele>13.3</ele>
        <time>2020-06-02T08:20:11Z</time>
      </trkpt>
      <trkpt lat="46.17287" lon="-1.19688">
        <ele>13.4</ele>
        <time>2020-06-02T08:20:12Z</time>
      </trkpt>
      <trkpt lat="46.17284" lon="-1.19684">
        <ele>13.5</ele>
        <time>2020-06-02T08:20:13Z</time>
      </trkpt>
      <trkpt lat="46.17282" lon="-1.19679">
        <ele>13.6</ele>
        <time>2020-06-02T08:20:14Z</time>
      </trkpt>
      <trkpt lat="46.1728" lon="-1.19674">
        <ele>13.7</ele>
        <time>2020-06-02T08:20:15Z</time>
      </trkpt>
      <trkpt lat="46.17278" lon="-1.19669">
        <ele>13.7</ele>
        <time>2020-06-02T08:20:16Z</time>
      </trkpt>
      <trkpt lat="46.17277" lon="-1.19663">
        <ele>13.8</ele>
        <time>2020-06-02T08:20:17Z</time>
      </trkpt>
      <trkpt lat="46.17276" lon="-1.19659">
        <ele>13.9</ele>
        <time>2020-06-02T08:20:18Z</time>
      </trkpt>
      <trkpt lat="46.17277" lon="-1.19653">
        <ele>13.9</ele>
        <time>2020-06-02T08:20:19Z</time>
      </trkpt>
      <trkpt lat="46.17276" lon="-1.19648">
        <ele>14</ele>
        <time>2020-06-02T08:20:20Z</time>
      </trkpt>
      <trkpt lat="46.17276" lon="-1.19644">
        <ele>14</ele>
        <time>2020-06-02T08:20:21Z</time>
      </trkpt>
      <trkpt lat="46.17275" lon="-1.19639">
        <ele>14.1</ele>
        <time>2020-06-02T08:20:22Z</time>
      </trkpt>
      <trkpt lat="46.17274" lon="-1.19635">
        <ele>14.1</ele>
        <time>2020-06-02T08:20:23Z</time>
      </trkpt>
      <trkpt lat="46.1727" lon="-1.19634">
        <ele>14.2</ele>
        <time>2020-06-02T08:20:24Z</time>
      </trkpt>
      <trkpt lat="46.17266" lon="-1.19633">
        <ele>14.3</ele>
        <time>2020-06-02T08:20:25Z</time>
      </trkpt>
      <trkpt lat="46.17262" lon="-1.19631">
        <ele>14.4</ele>
        <time>2020-06-02T08:20:26Z</time>
      </trkpt>
      <trkpt lat="46.17257" lon="-1.19629">
        <ele>14.5</ele>
        <time>2020-06-02T08:20:27Z</time>
      </trkpt>
      <trkpt lat="46.17253" lon="-1.19626">
        <ele>14.6</ele>
        <time>2020-06-02T08:20:28Z</time>
      </trkpt>
      <trkpt lat="46.17249" lon="-1.19623">
        <ele>14.6</ele>
        <time>2020-06-02T08:20:29Z</time>
      </trkpt>
      <trkpt lat="46.17246" lon="-1.1962">
        <ele>14.7</ele>
        <time>2020-06-02T08:20:30Z</time>
      </trkpt>
      <trkpt lat="46.17243" lon="-1.19616">
        <ele>14.7</ele>
        <time>2020-06-02T08:20:31Z</time>
      </trkpt>
      <trkpt lat="46.17241" lon="-1.19613">
        <ele>14.7</ele>
        <time>2020-06-02T08:20:32Z</time>
      </trkpt>
      <trkpt lat="46.17238" lon="-1.19611">
        <ele>14.7</ele>
        <time>2020-06-02T08:20:33Z</time>
      </trkpt>
      <trkpt lat="46.17235" lon="-1.1961">
        <ele>14.8</ele>
        <time>2020-06-02T08:20:34Z</time>
      </trkpt>
      <trkpt lat="46.17231" lon="-1.19609">
        <ele>14.9</ele>
        <time>2020-06-02T08:20:35Z</time>
      </trkpt>
      <trkpt lat="46.17227" lon="-1.19608">
        <ele>14.9</ele>
        <time>2020-06-02T08:20:36Z</time>
      </trkpt>
      <trkpt lat="46.17224" lon="-1.19607">
        <ele>15</ele>
        <time>2020-06-02T08:20:37Z</time>
      </trkpt>
      <trkpt lat="46.1722" lon="-1.19606">
        <ele>15</ele>
        <time>2020-06-02T08:20:38Z</time>
      </trkpt>
      <trkpt lat="46.17216" lon="-1.19604">
        <ele>15.1</ele>
        <time>2020-06-02T08:20:39Z</time>
      </trkpt>
      <trkpt lat="46.17212" lon="-1.19603">
        <ele>15.1</ele>
        <time>2020-06-02T08:20:40Z</time>
      </trkpt>
      <trkpt lat="46.17208" lon="-1.19602">
        <ele>15.2</ele>
        <time>2020-06-02T08:20:41Z</time>
      </trkpt>
      <trkpt lat="46.17204" lon="-1.196">
        <ele>15.2</ele>
        <time>2020-06-02T08:20:42Z</time>
      </trkpt>
      <trkpt lat="46.172" lon="-1.19599">
        <ele>15.3</ele>
        <time>2020-06-02T08:20:43Z</time>
      </trkpt>
      <trkpt lat="46.17196" lon="-1.19597">
        <ele>15.3</ele>
        <time>2020-06-02T08:20:44Z</time>
      </trkpt>
      <trkpt lat="46.17192" lon="-1.19595">
        <ele>15.4</ele>
        <time>2020-06-02T08:20:45Z</time>
      </trkpt>
      <trkpt lat="46.17188" lon="-1.19593">
        <ele>15.4</ele>
        <time>2020-06-02T08:20:46Z</time>
      </trkpt>
      <trkpt lat="46.17185" lon="-1.19591">
        <ele>15.4</ele>
        <time>2020-06-02T08:20:47Z</time>
      </trkpt>
      <trkpt lat="46.17181" lon="-1.19589">
        <ele>15.5</ele>
        <time>2020-06-02T08:20:48Z</time>
      </trkpt>
      <trkpt lat="46.17177" lon="-1.19587">
        <ele>15.5</ele>
        <time>2020-06-02T08:20:49Z</time>
      </trkpt>
      <trkpt lat="46.17172" lon="-1.19585">
        <ele>15.5</ele>
        <time>2020-06-02T08:20:50Z</time>
      </trkpt>
      <trkpt lat="46.17166" lon="-1.19584">
        <ele>15.6</ele>
        <time>2020-06-02T08:20:51Z</time>
      </trkpt>
      <trkpt lat="46.17162" lon="-1.19582">
        <ele>15.6</ele>
        <time>2020-06-02T08:20:52Z</time>
      </trkpt>
      <trkpt lat="46.17157" lon="-1.19581">
        <ele>15.6</ele>
        <time>2020-06-02T08:20:53Z</time>
      </trkpt>
      <trkpt lat="46.17152" lon="-1.19581">
        <ele>15.6</ele>
        <time>2020-06-02T08:20:54Z</time>
      </trkpt>
      <trkpt lat="46.17148" lon="-1.19579">
        <ele>15.7</ele>
        <time>2020-06-02T08:20:55Z</time>
      </trkpt>
      <trkpt lat="46.17143" lon="-1.19578">
        <ele>15.7</ele>
        <time>2020-06-02T08:20:56Z</time>
      </trkpt>
      <trkpt lat="46.17139" lon="-1.19576">
        <ele>15.7</ele>
        <time>2020-06-02T08:20:57Z</time>
      </trkpt>
      <trkpt lat="46.17135" lon="-1.19574">
        <ele>15.7</ele>
        <time>2020-06-02T08:20:58Z</time>
      </trkpt>
      <trkpt lat="46.17129" lon="-1.19573">
        <ele>15.8</ele>
        <time>2020-06-02T08:20:59Z</time>
      </trkpt>
      <trkpt lat="46.17124" lon="-1.19572">
        <ele>15.8</ele>
        <time>2020-06-02T08:21:00Z</time>
      </trkpt>
      <trkpt lat="46.17118" lon="-1.1957">
        <ele>15.9</ele>
        <time>2020-06-02T08:21:01Z</time>
      </trkpt>
      <trkpt lat="46.17113" lon="-1.19568">
        <ele>15.9</ele>
        <time>2020-06-02T08:21:02Z</time>
      </trkpt>
      <trkpt lat="46.17109" lon="-1.19566">
        <ele>15.9</ele>
        <time>2020-06-02T08:21:03Z</time>
      </trkpt>
      <trkpt lat="46.17104" lon="-1.19565">
        <ele>16</ele>
        <time>2020-06-02T08:21:04Z</time>
      </trkpt>
      <trkpt lat="46.17099" lon="-1.19563">
        <ele>15.9</ele>
        <time>2020-06-02T08:21:05Z</time>
      </trkpt>
      <trkpt lat="46.17094" lon="-1.19561">
        <ele>15.9</ele>
        <time>2020-06-02T08:21:06Z</time>
      </trkpt>
      <trkpt lat="46.17089" lon="-1.19558">
        <ele>15.9</ele>
        <time>2020-06-02T08:21:07Z</time>
      </trkpt>
      <trkpt lat="46.17084" lon="-1.19556">
        <ele>15.8</ele>
        <time>2020-06-02T08:21:08Z</time>
      </trkpt>
      <trkpt lat="46.17081" lon="-1.19552">
        <ele>15.8</ele>
        <time>2020-06-02T08:21:09Z</time>
      </trkpt>
      <trkpt lat="46.17076" lon="-1.19549">
        <ele>15.8</ele>
        <time>2020-06-02T08:21:10Z</time>
      </trkpt>
      <trkpt lat="46.17073" lon="-1.19545">
        <ele>15.8</ele>
        <time>2020-06-02T08:21:11Z</time>
      </trkpt>
      <trkpt lat="46.1707" lon="-1.19541">
        <ele>15.8</ele>
        <time>2020-06-02T08:21:12Z</time>
      </trkpt>
      <trkpt lat="46.17065" lon="-1.19539">
        <ele>15.8</ele>
        <time>2020-06-02T08:21:13Z</time>
      </trkpt>
      <trkpt lat="46.17061" lon="-1.19539">
        <ele>15.8</ele>
        <time>2020-06-02T08:21:14Z</time>
      </trkpt>
      <trkpt lat="46.17057" lon="-1.19542">
        <ele>15.8</ele>
        <time>2020-06-02T08:21:15Z</time>
      </trkpt>
      <trkpt lat="46.17054" lon="-1.19543">
        <ele>15.8</ele>
        <time>2020-06-02T08:21:16Z</time>
      </trkpt>
      <trkpt lat="46.17049" lon="-1.19541">
        <ele>15.8</ele>
        <time>2020-06-02T08:21:17Z</time>
      </trkpt>
      <trkpt lat="46.17045" lon="-1.19538">
        <ele>15.8</ele>
        <time>2020-06-02T08:21:18Z</time>
      </trkpt>
      <trkpt lat="46.17041" lon="-1.19535">
        <ele>15.8</ele>
        <time>2020-06-02T08:21:19Z</time>
      </trkpt>
      <trkpt lat="46.17036" lon="-1.19533">
        <ele>15.7</ele>
        <time>2020-06-02T08:21:20Z</time>
      </trkpt>
      <trkpt lat="46.17031" lon="-1.19531">
        <ele>15.7</ele>
        <time>2020-06-02T08:21:21Z</time>
      </trkpt>
      <trkpt lat="46.17026" lon="-1.19532">
        <ele>15.7</ele>
        <time>2020-06-02T08:21:22Z</time>
      </trkpt>
      <trkpt lat="46.17021" lon="-1.1953">
        <ele>15.6</ele>
        <time>2020-06-02T08:21:23Z</time>
      </trkpt>
      <trkpt lat="46.17016" lon="-1.19528">
        <ele>15.6</ele>
        <time>2020-06-02T08:21:24Z</time>
      </trkpt>
      <trkpt lat="46.1701" lon="-1.19528">
        <ele>15.5</ele>
        <time>2020-06-02T08:21:25Z</time>
      </trkpt>
      <trkpt lat="46.17005" lon="-1.19527">
        <ele>15.5</ele>
        <time>2020-06-02T08:21:26Z</time>
      </trkpt>
      <trkpt lat="46.17" lon="-1.19526">
        <ele>15.4</ele>
        <time>2020-06-02T08:21:27Z</time>
      </trkpt>
      <trkpt lat="46.16994" lon="-1.19524">
        <ele>15.4</ele>
        <time>2020-06-02T08:21:28Z</time>
      </trkpt>
      <trkpt lat="46.16989" lon="-1.19523">
        <ele>15.4</ele>
        <time>2020-06-02T08:21:29Z</time>
      </trkpt>
      <trkpt lat="46.16984" lon="-1.19524">
        <ele>15.3</ele>
        <time>2020-06-02T08:21:30Z</time>
      </trkpt>
      <trkpt lat="46.16979" lon="-1.19524">
        <ele>15.3</ele>
        <time>2020-06-02T08:21:31Z</time>
      </trkpt>
      <trkpt lat="46.16974" lon="-1.19524">
        <ele>15.3</ele>
        <time>2020-06-02T08:21:32Z</time>
      </trkpt>
      <trkpt lat="46.16968" lon="-1.19524">
        <ele>15.3</ele>
        <time>2020-06-02T08:21:33Z</time>
      </trkpt>
      <trkpt lat="46.16962" lon="-1.19524">
        <ele>15.2</ele>
        <time>2020-06-02T08:21:34Z</time>
      </trkpt>
      <trkpt lat="46.16957" lon="-1.19524">
        <ele>15.2</ele>
        <time>2020-06-02T08:21:35Z</time>
      </trkpt>
      <trkpt lat="46.1695" lon="-1.19523">
        <ele>15.2</ele>
        <time>2020-06-02T08:21:36Z</time>
      </trkpt>
      <trkpt lat="46.16944" lon="-1.19523">
        <ele>15.1</ele>
        <time>2020-06-02T08:21:37Z</time>
      </trkpt>
      <trkpt lat="46.16938" lon="-1.19523">
        <ele>15.1</ele>
        <time>2020-06-02T08:21:38Z</time>
      </trkpt>
      <trkpt lat="46.16932" lon="-1.19523">
        <ele>15</ele>
        <time>2020-06-02T08:21:39Z</time>
      </trkpt>
      <trkpt lat="46.16926" lon="-1.19524">
        <ele>14.9</ele>
        <time>2020-06-02T08:21:40Z</time>
      </trkpt>
      <trkpt lat="46.16919" lon="-1.19524">
        <ele>14.8</ele>
        <time>2020-06-02T08:21:41Z</time>
      </trkpt>
      <trkpt lat="46.16913" lon="-1.19523">
        <ele>14.7</ele>
        <time>2020-06-02T08:21:42Z</time>
      </trkpt>
      <trkpt lat="46.16906" lon="-1.19521">
        <ele>14.6</ele>
        <time>2020-06-02T08:21:43Z</time>
      </trkpt>
      <trkpt lat="46.169" lon="-1.19521">
        <ele>14.5</ele>
        <time>2020-06-02T08:21:44Z</time>
      </trkpt>
      <trkpt lat="46.16894" lon="-1.19521">
        <ele>14.5</ele>
        <time>2020-06-02T08:21:45Z</time>
      </trkpt>
      <trkpt lat="46.16889" lon="-1.1952">
        <ele>14.5</ele>
        <time>2020-06-02T08:21:46Z</time>
      </trkpt>
      <trkpt lat="46.16884" lon="-1.1952">
        <ele>14.5</ele>
        <time>2020-06-02T08:21:47Z</time>
      </trkpt>
      <trkpt lat="46.16878" lon="-1.19519">
        <ele>14.4</ele>
        <time>2020-06-02T08:21:48Z</time>
      </trkpt>
      <trkpt lat="46.16874" lon="-1.19518">
        <ele>14.3</ele>
        <time>2020-06-02T08:21:49Z</time>
      </trkpt>
      <trkpt lat="46.16868" lon="-1.19519">
        <ele>14.2</ele>
        <time>2020-06-02T08:21:50Z</time>
      </trkpt>
      <trkpt lat="46.16862" lon="-1.19518">
        <ele>14.1</ele>
        <time>2020-06-02T08:21:51Z</time>
      </trkpt>
      <trkpt lat="46.16857" lon="-1.19518">
        <ele>14</ele>
        <time>2020-06-02T08:21:52Z</time>
      </trkpt>
      <trkpt lat="46.16851" lon="-1.19518">
        <ele>14</ele>
        <time>2020-06-02T08:21:53Z</time>
      </trkpt>
      <trkpt lat="46.16847" lon="-1.19518">
        <ele>13.9</ele>
        <time>2020-06-02T08:21:54Z</time>
      </trkpt>
      <trkpt lat="46.16841" lon="-1.19518">
        <ele>13.7</ele>
        <time>2020-06-02T08:21:55Z</time>
      </trkpt>
      <trkpt lat="46.16833" lon="-1.19516">
        <ele>13.5</ele>
        <time>2020-06-02T08:21:56Z</time>
      </trkpt>
      <trkpt lat="46.16825" lon="-1.19515">
        <ele>13.3</ele>
        <time>2020-06-02T08:21:57Z</time>
      </trkpt>
      <trkpt lat="46.1682" lon="-1.19515">
        <ele>13.2</ele>
        <time>2020-06-02T08:21:58Z</time>
      </trkpt>
      <trkpt lat="46.16813" lon="-1.19514">
        <ele>13.1</ele>
        <time>2020-06-02T08:21:59Z</time>
      </trkpt>
      <trkpt lat="46.16806" lon="-1.19514">
        <ele>13</ele>
        <time>2020-06-02T08:22:00Z</time>
      </trkpt>
      <trkpt lat="46.16799" lon="-1.19514">
        <ele>13</ele>
        <time>2020-06-02T08:22:01Z</time>
      </trkpt>
      <trkpt lat="46.16793" lon="-1.19513">
        <ele>12.9</ele>
        <time>2020-06-02T08:22:02Z</time>
      </trkpt>
      <trkpt lat="46.16789" lon="-1.19513">
        <ele>12.9</ele>
        <time>2020-06-02T08:22:03Z</time>
      </trkpt>
      <trkpt lat="46.16783" lon="-1.19514">
        <ele>12.8</ele>
        <time>2020-06-02T08:22:04Z</time>
      </trkpt>
      <trkpt lat="46.16778" lon="-1.19513">
        <ele>12.8</ele>
        <time>2020-06-02T08:22:05Z</time>
      </trkpt>
      <trkpt lat="46.16772" lon="-1.19513">
        <ele>12.7</ele>
        <time>2020-06-02T08:22:06Z</time>
      </trkpt>
      <trkpt lat="46.16766" lon="-1.19512">
        <ele>12.6</ele>
        <time>2020-06-02T08:22:07Z</time>
      </trkpt>
      <trkpt lat="46.1676" lon="-1.19512">
        <ele>12.4</ele>
        <time>2020-06-02T08:22:08Z</time>
      </trkpt>
      <trkpt lat="46.16754" lon="-1.19511">
        <ele>12.3</ele>
        <time>2020-06-02T08:22:09Z</time>
      </trkpt>
      <trkpt lat="46.16749" lon="-1.1951">
        <ele>12.2</ele>
        <time>2020-06-02T08:22:10Z</time>
      </trkpt>
      <trkpt lat="46.16744" lon="-1.1951">
        <ele>12.1</ele>
        <time>2020-06-02T08:22:11Z</time>
      </trkpt>
      <trkpt lat="46.1674" lon="-1.1951">
        <ele>12.1</ele>
        <time>2020-06-02T08:22:12Z</time>
      </trkpt>
      <trkpt lat="46.16737" lon="-1.19511">
        <ele>12.1</ele>
        <time>2020-06-02T08:22:13Z</time>
      </trkpt>
      <trkpt lat="46.16733" lon="-1.1951">
        <ele>12.1</ele>
        <time>2020-06-02T08:22:14Z</time>
      </trkpt>
      <trkpt lat="46.16729" lon="-1.1951">
        <ele>12</ele>
        <time>2020-06-02T08:22:15Z</time>
      </trkpt>
      <trkpt lat="46.16726" lon="-1.1951">
        <ele>12</ele>
        <time>2020-06-02T08:22:16Z</time>
      </trkpt>
      <trkpt lat="46.16722" lon="-1.19507">
        <ele>11.8</ele>
        <time>2020-06-02T08:22:17Z</time>
      </trkpt>
      <trkpt lat="46.1672" lon="-1.19502">
        <ele>11.7</ele>
        <time>2020-06-02T08:22:18Z</time>
      </trkpt>
      <trkpt lat="46.16721" lon="-1.19494">
        <ele>11.5</ele>
        <time>2020-06-02T08:22:19Z</time>
      </trkpt>
      <trkpt lat="46.1672" lon="-1.19487">
        <ele>11.3</ele>
        <time>2020-06-02T08:22:20Z</time>
      </trkpt>
      <trkpt lat="46.16718" lon="-1.19479">
        <ele>11.1</ele>
        <time>2020-06-02T08:22:21Z</time>
      </trkpt>
      <trkpt lat="46.16717" lon="-1.19471">
        <ele>10.9</ele>
        <time>2020-06-02T08:22:22Z</time>
      </trkpt>
      <trkpt lat="46.16715" lon="-1.19463">
        <ele>10.7</ele>
        <time>2020-06-02T08:22:23Z</time>
      </trkpt>
      <trkpt lat="46.16713" lon="-1.19455">
        <ele>10.5</ele>
        <time>2020-06-02T08:22:24Z</time>
      </trkpt>
      <trkpt lat="46.16711" lon="-1.19448">
        <ele>10.3</ele>
        <time>2020-06-02T08:22:25Z</time>
      </trkpt>
      <trkpt lat="46.1671" lon="-1.19439">
        <ele>10.2</ele>
        <time>2020-06-02T08:22:26Z</time>
      </trkpt>
      <trkpt lat="46.16708" lon="-1.1943">
        <ele>10.1</ele>
        <time>2020-06-02T08:22:27Z</time>
      </trkpt>
      <trkpt lat="46.16708" lon="-1.1942">
        <ele>10</ele>
        <time>2020-06-02T08:22:28Z</time>
      </trkpt>
      <trkpt lat="46.16706" lon="-1.19412">
        <ele>9.9</ele>
        <time>2020-06-02T08:22:29Z</time>
      </trkpt>
      <trkpt lat="46.16706" lon="-1.19404">
        <ele>9.8</ele>
        <time>2020-06-02T08:22:30Z</time>
      </trkpt>
      <trkpt lat="46.16705" lon="-1.19394">
        <ele>9.8</ele>
        <time>2020-06-02T08:22:31Z</time>
      </trkpt>
      <trkpt lat="46.16704" lon="-1.19385">
        <ele>9.7</ele>
        <time>2020-06-02T08:22:32Z</time>
      </trkpt>
      <trkpt lat="46.16703" lon="-1.19375">
        <ele>9.7</ele>
        <time>2020-06-02T08:22:33Z</time>
      </trkpt>
      <trkpt lat="46.16703" lon="-1.19367">
        <ele>9.8</ele>
        <time>2020-06-02T08:22:34Z</time>
      </trkpt>
      <trkpt lat="46.16703" lon="-1.19361">
        <ele>9.8</ele>
        <time>2020-06-02T08:22:35Z</time>
      </trkpt>
      <trkpt lat="46.16703" lon="-1.19354">
        <ele>9.9</ele>
        <time>2020-06-02T08:22:36Z</time>
      </trkpt>
      <trkpt lat="46.16702" lon="-1.19346">
        <ele>10</ele>
        <time>2020-06-02T08:22:37Z</time>
      </trkpt>
      <trkpt lat="46.16701" lon="-1.19338">
        <ele>10.1</ele>
        <time>2020-06-02T08:22:38Z</time>
      </trkpt>
      <trkpt lat="46.16701" lon="-1.19331">
        <ele>10.2</ele>
        <time>2020-06-02T08:22:39Z</time>
      </trkpt>
      <trkpt lat="46.16699" lon="-1.19326">
        <ele>10.2</ele>
        <time>2020-06-02T08:22:40Z</time>
      </trkpt>
      <trkpt lat="46.16699" lon="-1.19319">
        <ele>10.3</ele>
        <time>2020-06-02T08:22:41Z</time>
      </trkpt>
      <trkpt lat="46.16698" lon="-1.1931">
        <ele>10.4</ele>
        <time>2020-06-02T08:22:42Z</time>
      </trkpt>
      <trkpt lat="46.16697" lon="-1.193">
        <ele>10.5</ele>
        <time>2020-06-02T08:22:43Z</time>
      </trkpt>
      <trkpt lat="46.16696" lon="-1.19293">
        <ele>10.6</ele>
        <time>2020-06-02T08:22:44Z</time>
      </trkpt>
      <trkpt lat="46.16695" lon="-1.19285">
        <ele>10.7</ele>
        <time>2020-06-02T08:22:45Z</time>
      </trkpt>
      <trkpt lat="46.16694" lon="-1.19277">
        <ele>10.7</ele>
        <time>2020-06-02T08:22:46Z</time>
      </trkpt>
      <trkpt lat="46.16693" lon="-1.19271">
        <ele>10.7</ele>
        <time>2020-06-02T08:22:47Z</time>
      </trkpt>
      <trkpt lat="46.16693" lon="-1.19265">
        <ele>10.7</ele>
        <time>2020-06-02T08:22:48Z</time>
      </trkpt>
      <trkpt lat="46.16691" lon="-1.19258">
        <ele>10.7</ele>
        <time>2020-06-02T08:22:49Z</time>
      </trkpt>
      <trkpt lat="46.16689" lon="-1.19251">
        <ele>10.7</ele>
        <time>2020-06-02T08:22:50Z</time>
      </trkpt>
      <trkpt lat="46.16688" lon="-1.19246">
        <ele>10.7</ele>
        <time>2020-06-02T08:22:51Z</time>
      </trkpt>
      <trkpt lat="46.16686" lon="-1.19238">
        <ele>10.7</ele>
        <time>2020-06-02T08:22:52Z</time>
      </trkpt>
      <trkpt lat="46.16684" lon="-1.19232">
        <ele>10.7</ele>
        <time>2020-06-02T08:22:53Z</time>
      </trkpt>
      <trkpt lat="46.16683" lon="-1.19224">
        <ele>10.7</ele>
        <time>2020-06-02T08:22:54Z</time>
      </trkpt>
      <trkpt lat="46.16681" lon="-1.19216">
        <ele>10.7</ele>
        <time>2020-06-02T08:22:55Z</time>
      </trkpt>
      <trkpt lat="46.1668" lon="-1.19209">
        <ele>10.7</ele>
        <time>2020-06-02T08:22:56Z</time>
      </trkpt>
      <trkpt lat="46.16678" lon="-1.19202">
        <ele>10.7</ele>
        <time>2020-06-02T08:22:57Z</time>
      </trkpt>
      <trkpt lat="46.16676" lon="-1.19194">
        <ele>10.7</ele>
        <time>2020-06-02T08:22:58Z</time>
      </trkpt>
      <trkpt lat="46.16674" lon="-1.19186">
        <ele>10.7</ele>
        <time>2020-06-02T08:22:59Z</time>
      </trkpt>
      <trkpt lat="46.16671" lon="-1.19179">
        <ele>10.7</ele>
        <time>2020-06-02T08:23:00Z</time>
      </trkpt>
      <trkpt lat="46.16668" lon="-1.19172">
        <ele>10.7</ele>
        <time>2020-06-02T08:23:01Z</time>
      </trkpt>
      <trkpt lat="46.16665" lon="-1.19165">
        <ele>10.7</ele>
        <time>2020-06-02T08:23:02Z</time>
      </trkpt>
      <trkpt lat="46.16662" lon="-1.19158">
        <ele>10.7</ele>
        <time>2020-06-02T08:23:03Z</time>
      </trkpt>
      <trkpt lat="46.16659" lon="-1.19151">
        <ele>10.7</ele>
        <time>2020-06-02T08:23:04Z</time>
      </trkpt>
      <trkpt lat="46.16656" lon="-1.19144">
        <ele>10.7</ele>
        <time>2020-06-02T08:23:05Z</time>
      </trkpt>
      <trkpt lat="46.16653" lon="-1.19138">
        <ele>10.7</ele>
        <time>2020-06-02T08:23:06Z</time>
      </trkpt>
      <trkpt lat="46.16649" lon="-1.19131">
        <ele>10.6</ele>
        <time>2020-06-02T08:23:07Z</time>
      </trkpt>
      <trkpt lat="46.16647" lon="-1.19124">
        <ele>10.6</ele>
        <time>2020-06-02T08:23:08Z</time>
      </trkpt>
      <trkpt lat="46.16643" lon="-1.19116">
        <ele>10.6</ele>
        <time>2020-06-02T08:23:09Z</time>
      </trkpt>
      <trkpt lat="46.1664" lon="-1.19109">
        <ele>10.6</ele>
        <time>2020-06-02T08:23:10Z</time>
      </trkpt>
      <trkpt lat="46.16637" lon="-1.19102">
        <ele>10.7</ele>
        <time>2020-06-02T08:23:11Z</time>
      </trkpt>
      <trkpt lat="46.16635" lon="-1.19095">
        <ele>10.7</ele>
        <time>2020-06-02T08:23:12Z</time>
      </trkpt>
      <trkpt lat="46.16633" lon="-1.19087">
        <ele>10.7</ele>
        <time>2020-06-02T08:23:13Z</time>
      </trkpt>
      <trkpt lat="46.16632" lon="-1.1908">
        <ele>10.7</ele>
        <time>2020-06-02T08:23:14Z</time>
      </trkpt>
      <trkpt lat="46.16631" lon="-1.19072">
        <ele>10.7</ele>
        <time>2020-06-02T08:23:15Z</time>
      </trkpt>
      <trkpt lat="46.16629" lon="-1.19063">
        <ele>10.8</ele>
        <time>2020-06-02T08:23:16Z</time>
      </trkpt>
      <trkpt lat="46.16627" lon="-1.19058">
        <ele>10.9</ele>
        <time>2020-06-02T08:23:17Z</time>
      </trkpt>
      <trkpt lat="46.16626" lon="-1.19051">
        <ele>11</ele>
        <time>2020-06-02T08:23:18Z</time>
      </trkpt>
      <trkpt lat="46.16625" lon="-1.19043">
        <ele>11.1</ele>
        <time>2020-06-02T08:23:19Z</time>
      </trkpt>
      <trkpt lat="46.16624" lon="-1.19036">
        <ele>11.2</ele>
        <time>2020-06-02T08:23:20Z</time>
      </trkpt>
      <trkpt lat="46.16622" lon="-1.19029">
        <ele>11.3</ele>
        <time>2020-06-02T08:23:21Z</time>
      </trkpt>
      <trkpt lat="46.1662" lon="-1.19023">
        <ele>11.4</ele>
        <time>2020-06-02T08:23:22Z</time>
      </trkpt>
      <trkpt lat="46.1662" lon="-1.19019">
        <ele>11.5</ele>
        <time>2020-06-02T08:23:23Z</time>
      </trkpt>
      <trkpt lat="46.16619" lon="-1.19011">
        <ele>11.6</ele>
        <time>2020-06-02T08:23:24Z</time>
      </trkpt>
      <trkpt lat="46.16618" lon="-1.19004">
        <ele>11.7</ele>
        <time>2020-06-02T08:23:25Z</time>
      </trkpt>
      <trkpt lat="46.16616" lon="-1.18996">
        <ele>11.8</ele>
        <time>2020-06-02T08:23:26Z</time>
      </trkpt>
      <trkpt lat="46.16615" lon="-1.1899">
        <ele>11.9</ele>
        <time>2020-06-02T08:23:27Z</time>
      </trkpt>
      <trkpt lat="46.16613" lon="-1.18984">
        <ele>11.9</ele>
        <time>2020-06-02T08:23:28Z</time>
      </trkpt>
      <trkpt lat="46.16611" lon="-1.18979">
        <ele>12</ele>
        <time>2020-06-02T08:23:29Z</time>
      </trkpt>
      <trkpt lat="46.1661" lon="-1.18974">
        <ele>12.1</ele>
        <time>2020-06-02T08:23:30Z</time>
      </trkpt>
      <trkpt lat="46.16608" lon="-1.18968">
        <ele>12.2</ele>
        <time>2020-06-02T08:23:31Z</time>
      </trkpt>
      <trkpt lat="46.16607" lon="-1.18958">
        <ele>12.3</ele>
        <time>2020-06-02T08:23:32Z</time>
      </trkpt>
      <trkpt lat="46.16605" lon="-1.18951">
        <ele>12.4</ele>
        <time>2020-06-02T08:23:33Z</time>
      </trkpt>
      <trkpt lat="46.16605" lon="-1.18943">
        <ele>12.5</ele>
        <time>2020-06-02T08:23:34Z</time>
      </trkpt>
      <trkpt lat="46.16603" lon="-1.18933">
        <ele>12.6</ele>
        <time>2020-06-02T08:23:35Z</time>
      </trkpt>
      <trkpt lat="46.16601" lon="-1.18925">
        <ele>12.7</ele>
        <time>2020-06-02T08:23:36Z</time>
      </trkpt>
      <trkpt lat="46.16599" lon="-1.18919">
        <ele>12.8</ele>
        <time>2020-06-02T08:23:37Z</time>
      </trkpt>
      <trkpt lat="46.16597" lon="-1.1891">
        <ele>12.9</ele>
        <time>2020-06-02T08:23:38Z</time>
      </trkpt>
      <trkpt lat="46.16596" lon="-1.18901">
        <ele>13</ele>
        <time>2020-06-02T08:23:39Z</time>
      </trkpt>
      <trkpt lat="46.16594" lon="-1.18894">
        <ele>13.1</ele>
        <time>2020-06-02T08:23:40Z</time>
      </trkpt>
      <trkpt lat="46.16592" lon="-1.18888">
        <ele>13.2</ele>
        <time>2020-06-02T08:23:41Z</time>
      </trkpt>
      <trkpt lat="46.1659" lon="-1.18881">
        <ele>13.2</ele>
        <time>2020-06-02T08:23:42Z</time>
      </trkpt>
      <trkpt lat="46.16589" lon="-1.18874">
        <ele>13.3</ele>
        <time>2020-06-02T08:23:43Z</time>
      </trkpt>
      <trkpt lat="46.16588" lon="-1.18867">
        <ele>13.4</ele>
        <time>2020-06-02T08:23:44Z</time>
      </trkpt>
      <trkpt lat="46.16586" lon="-1.18859">
        <ele>13.6</ele>
        <time>2020-06-02T08:23:45Z</time>
      </trkpt>
      <trkpt lat="46.16584" lon="-1.18852">
        <ele>13.7</ele>
        <time>2020-06-02T08:23:46Z</time>
      </trkpt>
      <trkpt lat="46.16583" lon="-1.18846">
        <ele>13.8</ele>
        <time>2020-06-02T08:23:47Z</time>
      </trkpt>
      <trkpt lat="46.16583" lon="-1.18844">
        <ele>13.8</ele>
        <time>2020-06-02T08:23:48Z</time>
      </trkpt>
      <trkpt lat="46.16581" lon="-1.1884">
        <ele>13.9</ele>
        <time>2020-06-02T08:23:49Z</time>
      </trkpt>
      <trkpt lat="46.16579" lon="-1.18834">
        <ele>14</ele>
        <time>2020-06-02T08:23:50Z</time>
      </trkpt>
      <trkpt lat="46.16574" lon="-1.18829">
        <ele>14.1</ele>
        <time>2020-06-02T08:23:51Z</time>
      </trkpt>
      <trkpt lat="46.16568" lon="-1.18825">
        <ele>14.1</ele>
        <time>2020-06-02T08:23:52Z</time>
      </trkpt>
      <trkpt lat="46.16564" lon="-1.18818">
        <ele>14.2</ele>
        <time>2020-06-02T08:23:53Z</time>
      </trkpt>
      <trkpt lat="46.16563" lon="-1.18811">
        <ele>14.4</ele>
        <time>2020-06-02T08:23:54Z</time>
      </trkpt>
      <trkpt lat="46.16563" lon="-1.18804">
        <ele>14.5</ele>
        <time>2020-06-02T08:23:55Z</time>
      </trkpt>
      <trkpt lat="46.16563" lon="-1.18796">
        <ele>14.6</ele>
        <time>2020-06-02T08:23:56Z</time>
      </trkpt>
      <trkpt lat="46.16563" lon="-1.1879">
        <ele>14.7</ele>
        <time>2020-06-02T08:23:57Z</time>
      </trkpt>
      <trkpt lat="46.16562" lon="-1.18783">
        <ele>14.7</ele>
        <time>2020-06-02T08:23:58Z</time>
      </trkpt>
      <trkpt lat="46.16562" lon="-1.18776">
        <ele>14.8</ele>
        <time>2020-06-02T08:23:59Z</time>
      </trkpt>
      <trkpt lat="46.16562" lon="-1.18769">
        <ele>14.9</ele>
        <time>2020-06-02T08:24:00Z</time>
      </trkpt>
      <trkpt lat="46.16561" lon="-1.18762">
        <ele>14.9</ele>
        <time>2020-06-02T08:24:01Z</time>
      </trkpt>
      <trkpt lat="46.1656" lon="-1.18755">
        <ele>14.9</ele>
        <time>2020-06-02T08:24:02Z</time>
      </trkpt>
      <trkpt lat="46.16559" lon="-1.18748">
        <ele>15</ele>
        <time>2020-06-02T08:24:03Z</time>
      </trkpt>
      <trkpt lat="46.16559" lon="-1.18742">
        <ele>15</ele>
        <time>2020-06-02T08:24:04Z</time>
      </trkpt>
      <trkpt lat="46.16558" lon="-1.18737">
        <ele>15</ele>
        <time>2020-06-02T08:24:05Z</time>
      </trkpt>
      <trkpt lat="46.16556" lon="-1.1873">
        <ele>15</ele>
        <time>2020-06-02T08:24:06Z</time>
      </trkpt>
      <trkpt lat="46.16555" lon="-1.18722">
        <ele>15.1</ele>
        <time>2020-06-02T08:24:07Z</time>
      </trkpt>
      <trkpt lat="46.16553" lon="-1.18716">
        <ele>15.1</ele>
        <time>2020-06-02T08:24:08Z</time>
      </trkpt>
      <trkpt lat="46.16551" lon="-1.1871">
        <ele>15.1</ele>
        <time>2020-06-02T08:24:09Z</time>
      </trkpt>
      <trkpt lat="46.1655" lon="-1.18705">
        <ele>15.2</ele>
        <time>2020-06-02T08:24:10Z</time>
      </trkpt>
      <trkpt lat="46.16549" lon="-1.18698">
        <ele>15.2</ele>
        <time>2020-06-02T08:24:11Z</time>
      </trkpt>
      <trkpt lat="46.16548" lon="-1.18691">
        <ele>15.3</ele>
        <time>2020-06-02T08:24:12Z</time>
      </trkpt>
      <trkpt lat="46.16547" lon="-1.18684">
        <ele>15.3</ele>
        <time>2020-06-02T08:24:13Z</time>
      </trkpt>
      <trkpt lat="46.16545" lon="-1.18676">
        <ele>15.4</ele>
        <time>2020-06-02T08:24:14Z</time>
      </trkpt>
      <trkpt lat="46.16544" lon="-1.18672">
        <ele>15.4</ele>
        <time>2020-06-02T08:24:15Z</time>
      </trkpt>
      <trkpt lat="46.16543" lon="-1.18666">
        <ele>15.5</ele>
        <time>2020-06-02T08:24:16Z</time>
      </trkpt>
      <trkpt lat="46.16542" lon="-1.18661">
        <ele>15.5</ele>
        <time>2020-06-02T08:24:17Z</time>
      </trkpt>
      <trkpt lat="46.1654" lon="-1.18653">
        <ele>15.6</ele>
        <time>2020-06-02T08:24:18Z</time>
      </trkpt>
      <trkpt lat="46.16539" lon="-1.18647">
        <ele>15.6</ele>
        <time>2020-06-02T08:24:19Z</time>
      </trkpt>
      <trkpt lat="46.16537" lon="-1.18641">
        <ele>15.7</ele>
        <time>2020-06-02T08:24:20Z</time>
      </trkpt>
      <trkpt lat="46.16536" lon="-1.18635">
        <ele>15.7</ele>
        <time>2020-06-02T08:24:21Z</time>
      </trkpt>
      <trkpt lat="46.16534" lon="-1.18628">
        <ele>15.7</ele>
        <time>2020-06-02T08:24:22Z</time>
      </trkpt>
      <trkpt lat="46.16533" lon="-1.18624">
        <ele>15.6</ele>
        <time>2020-06-02T08:24:23Z</time>
      </trkpt>
      <trkpt lat="46.16532" lon="-1.18616">
        <ele>15.6</ele>
        <time>2020-06-02T08:24:24Z</time>
      </trkpt>
      <trkpt lat="46.1653" lon="-1.18609">
        <ele>15.6</ele>
        <time>2020-06-02T08:24:25Z</time>
      </trkpt>
      <trkpt lat="46.16529" lon="-1.186">
        <ele>15.6</ele>
        <time>2020-06-02T08:24:26Z</time>
      </trkpt>
      <trkpt lat="46.16527" lon="-1.18594">
        <ele>15.6</ele>
        <time>2020-06-02T08:24:27Z</time>
      </trkpt>
      <trkpt lat="46.16525" lon="-1.18586">
        <ele>15.5</ele>
        <time>2020-06-02T08:24:28Z</time>
      </trkpt>
      <trkpt lat="46.16523" lon="-1.18579">
        <ele>15.5</ele>
        <time>2020-06-02T08:24:29Z</time>
      </trkpt>
      <trkpt lat="46.16522" lon="-1.18572">
        <ele>15.5</ele>
        <time>2020-06-02T08:24:30Z</time>
      </trkpt>
      <trkpt lat="46.1652" lon="-1.18564">
        <ele>15.4</ele>
        <time>2020-06-02T08:24:31Z</time>
      </trkpt>
      <trkpt lat="46.16517" lon="-1.18557">
        <ele>15.4</ele>
        <time>2020-06-02T08:24:32Z</time>
      </trkpt>
      <trkpt lat="46.16515" lon="-1.18551">
        <ele>15.4</ele>
        <time>2020-06-02T08:24:33Z</time>
      </trkpt>
      <trkpt lat="46.16513" lon="-1.18544">
        <ele>15.4</ele>
        <time>2020-06-02T08:24:34Z</time>
      </trkpt>
      <trkpt lat="46.16511" lon="-1.18537">
        <ele>15.4</ele>
        <time>2020-06-02T08:24:35Z</time>
      </trkpt>
      <trkpt lat="46.16509" lon="-1.18529">
        <ele>15.5</ele>
        <time>2020-06-02T08:24:36Z</time>
      </trkpt>
      <trkpt lat="46.16507" lon="-1.18522">
        <ele>15.5</ele>
        <time>2020-06-02T08:24:37Z</time>
      </trkpt>
      <trkpt lat="46.16507" lon="-1.18512">
        <ele>15.5</ele>
        <time>2020-06-02T08:24:38Z</time>
      </trkpt>
      <trkpt lat="46.16505" lon="-1.18504">
        <ele>15.5</ele>
        <time>2020-06-02T08:24:39Z</time>
      </trkpt>
      <trkpt lat="46.16503" lon="-1.18497">
        <ele>15.5</ele>
        <time>2020-06-02T08:24:40Z</time>
      </trkpt>
      <trkpt lat="46.16503" lon="-1.18489">
        <ele>15.5</ele>
        <time>2020-06-02T08:24:41Z</time>
      </trkpt>
      <trkpt lat="46.16501" lon="-1.18482">
        <ele>15.6</ele>
        <time>2020-06-02T08:24:42Z</time>
      </trkpt>
      <trkpt lat="46.165" lon="-1.18475">
        <ele>15.6</ele>
        <time>2020-06-02T08:24:43Z</time>
      </trkpt>
      <trkpt lat="46.16498" lon="-1.18468">
        <ele>15.6</ele>
        <time>2020-06-02T08:24:44Z</time>
      </trkpt>
      <trkpt lat="46.16498" lon="-1.18461">
        <ele>15.6</ele>
        <time>2020-06-02T08:24:45Z</time>
      </trkpt>
      <trkpt lat="46.16497" lon="-1.18454">
        <ele>15.7</ele>
        <time>2020-06-02T08:24:46Z</time>
      </trkpt>
      <trkpt lat="46.16497" lon="-1.18447">
        <ele>15.7</ele>
        <time>2020-06-02T08:24:47Z</time>
      </trkpt>
      <trkpt lat="46.16495" lon="-1.1844">
        <ele>15.8</ele>
        <time>2020-06-02T08:24:48Z</time>
      </trkpt>
      <trkpt lat="46.16493" lon="-1.18434">
        <ele>15.8</ele>
        <time>2020-06-02T08:24:49Z</time>
      </trkpt>
      <trkpt lat="46.16492" lon="-1.18427">
        <ele>15.9</ele>
        <time>2020-06-02T08:24:50Z</time>
      </trkpt>
      <trkpt lat="46.16492" lon="-1.1842">
        <ele>15.9</ele>
        <time>2020-06-02T08:24:51Z</time>
      </trkpt>
      <trkpt lat="46.16491" lon="-1.18415">
        <ele>16</ele>
        <time>2020-06-02T08:24:52Z</time>
      </trkpt>
      <trkpt lat="46.1649" lon="-1.18409">
        <ele>16</ele>
        <time>2020-06-02T08:24:53Z</time>
      </trkpt>
      <trkpt lat="46.16489" lon="-1.18401">
        <ele>16.1</ele>
        <time>2020-06-02T08:24:54Z</time>
      </trkpt>
      <trkpt lat="46.16488" lon="-1.18394">
        <ele>16.1</ele>
        <time>2020-06-02T08:24:55Z</time>
      </trkpt>
      <trkpt lat="46.16487" lon="-1.18385">
        <ele>16.2</ele>
        <time>2020-06-02T08:24:56Z</time>
      </trkpt>
      <trkpt lat="46.16488" lon="-1.18377">
        <ele>16.3</ele>
        <time>2020-06-02T08:24:57Z</time>
      </trkpt>
      <trkpt lat="46.16487" lon="-1.18371">
        <ele>16.3</ele>
        <time>2020-06-02T08:24:58Z</time>
      </trkpt>
      <trkpt lat="46.16486" lon="-1.18365">
        <ele>16.4</ele>
        <time>2020-06-02T08:24:59Z</time>
      </trkpt>
      <trkpt lat="46.16486" lon="-1.1836">
        <ele>16.4</ele>
        <time>2020-06-02T08:25:00Z</time>
      </trkpt>
      <trkpt lat="46.16486" lon="-1.18355">
        <ele>16.5</ele>
        <time>2020-06-02T08:25:01Z</time>
      </trkpt>
      <trkpt lat="46.16485" lon="-1.1835">
        <ele>16.5</ele>
        <time>2020-06-02T08:25:02Z</time>
      </trkpt>
      <trkpt lat="46.16485" lon="-1.18343">
        <ele>16.6</ele>
        <time>2020-06-02T08:25:03Z</time>
      </trkpt>
      <trkpt lat="46.16484" lon="-1.18335">
        <ele>16.6</ele>
        <time>2020-06-02T08:25:04Z</time>
      </trkpt>
      <trkpt lat="46.16484" lon="-1.18327">
        <ele>16.6</ele>
        <time>2020-06-02T08:25:05Z</time>
      </trkpt>
      <trkpt lat="46.16483" lon="-1.18317">
        <ele>16.6</ele>
        <time>2020-06-02T08:25:06Z</time>
      </trkpt>
      <trkpt lat="46.16482" lon="-1.18307">
        <ele>16.5</ele>
        <time>2020-06-02T08:25:07Z</time>
      </trkpt>
      <trkpt lat="46.16481" lon="-1.18297">
        <ele>16.5</ele>
        <time>2020-06-02T08:25:08Z</time>
      </trkpt>
      <trkpt lat="46.16478" lon="-1.18287">
        <ele>16.5</ele>
        <time>2020-06-02T08:25:09Z</time>
      </trkpt>
      <trkpt lat="46.16475" lon="-1.18278">
        <ele>16.4</ele>
        <time>2020-06-02T08:25:10Z</time>
      </trkpt>
      <trkpt lat="46.16472" lon="-1.18267">
        <ele>16.4</ele>
        <time>2020-06-02T08:25:11Z</time>
      </trkpt>
      <trkpt lat="46.1647" lon="-1.18258">
        <ele>16.3</ele>
        <time>2020-06-02T08:25:12Z</time>
      </trkpt>
      <trkpt lat="46.16468" lon="-1.18249">
        <ele>16.3</ele>
        <time>2020-06-02T08:25:13Z</time>
      </trkpt>
      <trkpt lat="46.16466" lon="-1.1824">
        <ele>16.2</ele>
        <time>2020-06-02T08:25:14Z</time>
      </trkpt>
      <trkpt lat="46.16464" lon="-1.18231">
        <ele>16.2</ele>
        <time>2020-06-02T08:25:15Z</time>
      </trkpt>
      <trkpt lat="46.16462" lon="-1.18224">
        <ele>16.2</ele>
        <time>2020-06-02T08:25:16Z</time>
      </trkpt>
      <trkpt lat="46.1646" lon="-1.18215">
        <ele>16.1</ele>
        <time>2020-06-02T08:25:17Z</time>
      </trkpt>
      <trkpt lat="46.16458" lon="-1.18207">
        <ele>16.1</ele>
        <time>2020-06-02T08:25:18Z</time>
      </trkpt>
      <trkpt lat="46.16457" lon="-1.18203">
        <ele>16.1</ele>
        <time>2020-06-02T08:25:19Z</time>
      </trkpt>
      <trkpt lat="46.16455" lon="-1.18197">
        <ele>16.1</ele>
        <time>2020-06-02T08:25:20Z</time>
      </trkpt>
      <trkpt lat="46.16455" lon="-1.18194">
        <ele>16.1</ele>
        <time>2020-06-02T08:25:21Z</time>
      </trkpt>
      <trkpt lat="46.16453" lon="-1.18189">
        <ele>16.1</ele>
        <time>2020-06-02T08:25:22Z</time>
      </trkpt>
      <trkpt lat="46.16453" lon="-1.18187">
        <ele>16.1</ele>
        <time>2020-06-02T08:25:23Z</time>
      </trkpt>
      <trkpt lat="46.16452" lon="-1.18178">
        <ele>16</ele>
        <time>2020-06-02T08:25:24Z</time>
      </trkpt>
      <trkpt lat="46.16452" lon="-1.18169">
        <ele>16</ele>
        <time>2020-06-02T08:25:25Z</time>
      </trkpt>
      <trkpt lat="46.16453" lon="-1.18162">
        <ele>16.1</ele>
        <time>2020-06-02T08:25:26Z</time>
      </trkpt>
      <trkpt lat="46.16454" lon="-1.18152">
        <ele>16.2</ele>
        <time>2020-06-02T08:25:27Z</time>
      </trkpt>
      <trkpt lat="46.16455" lon="-1.18145">
        <ele>16.2</ele>
        <time>2020-06-02T08:25:28Z</time>
      </trkpt>
      <trkpt lat="46.16455" lon="-1.18136">
        <ele>16.4</ele>
        <time>2020-06-02T08:25:29Z</time>
      </trkpt>
      <trkpt lat="46.16456" lon="-1.18129">
        <ele>16.4</ele>
        <time>2020-06-02T08:25:30Z</time>
      </trkpt>
      <trkpt lat="46.16456" lon="-1.18121">
        <ele>16.5</ele>
        <time>2020-06-02T08:25:31Z</time>
      </trkpt>
      <trkpt lat="46.16457" lon="-1.18113">
        <ele>16.7</ele>
        <time>2020-06-02T08:25:32Z</time>
      </trkpt>
      <trkpt lat="46.16457" lon="-1.18105">
        <ele>16.8</ele>
        <time>2020-06-02T08:25:33Z</time>
      </trkpt>
      <trkpt lat="46.16458" lon="-1.18098">
        <ele>16.9</ele>
        <time>2020-06-02T08:25:34Z</time>
      </trkpt>
      <trkpt lat="46.16458" lon="-1.18091">
        <ele>17</ele>
        <time>2020-06-02T08:25:35Z</time>
      </trkpt>
      <trkpt lat="46.16458" lon="-1.18084">
        <ele>17.2</ele>
        <time>2020-06-02T08:25:36Z</time>
      </trkpt>
      <trkpt lat="46.16458" lon="-1.18076">
        <ele>17.3</ele>
        <time>2020-06-02T08:25:37Z</time>
      </trkpt>
      <trkpt lat="46.16458" lon="-1.1807">
        <ele>17.4</ele>
        <time>2020-06-02T08:25:38Z</time>
      </trkpt>
      <trkpt lat="46.16458" lon="-1.18062">
        <ele>17.5</ele>
        <time>2020-06-02T08:25:39Z</time>
      </trkpt>
      <trkpt lat="46.16458" lon="-1.18056">
        <ele>17.6</ele>
        <time>2020-06-02T08:25:40Z</time>
      </trkpt>
      <trkpt lat="46.16458" lon="-1.18049">
        <ele>17.6</ele>
        <time>2020-06-02T08:25:41Z</time>
      </trkpt>
      <trkpt lat="46.16459" lon="-1.18043">
        <ele>17.7</ele>
        <time>2020-06-02T08:25:42Z</time>
      </trkpt>
      <trkpt lat="46.1646" lon="-1.18036">
        <ele>17.8</ele>
        <time>2020-06-02T08:25:43Z</time>
      </trkpt>
      <trkpt lat="46.1646" lon="-1.18029">
        <ele>17.8</ele>
        <time>2020-06-02T08:25:44Z</time>
      </trkpt>
      <trkpt lat="46.16461" lon="-1.18022">
        <ele>17.9</ele>
        <time>2020-06-02T08:25:45Z</time>
      </trkpt>
      <trkpt lat="46.16461" lon="-1.18013">
        <ele>17.9</ele>
        <time>2020-06-02T08:25:46Z</time>
      </trkpt>
      <trkpt lat="46.1646" lon="-1.18005">
        <ele>17.9</ele>
        <time>2020-06-02T08:25:47Z</time>
      </trkpt>
      <trkpt lat="46.1646" lon="-1.17996">
        <ele>18</ele>
        <time>2020-06-02T08:25:48Z</time>
      </trkpt>
      <trkpt lat="46.16461" lon="-1.17989">
        <ele>18.1</ele>
        <time>2020-06-02T08:25:49Z</time>
      </trkpt>
      <trkpt lat="46.16462" lon="-1.17984">
        <ele>18.1</ele>
        <time>2020-06-02T08:25:50Z</time>
      </trkpt>
      <trkpt lat="46.1646" lon="-1.17979">
        <ele>18.2</ele>
        <time>2020-06-02T08:25:51Z</time>
      </trkpt>
      <trkpt lat="46.1646" lon="-1.17971">
        <ele>18.2</ele>
        <time>2020-06-02T08:25:52Z</time>
      </trkpt>
      <trkpt lat="46.1646" lon="-1.17963">
        <ele>18.4</ele>
        <time>2020-06-02T08:25:53Z</time>
      </trkpt>
      <trkpt lat="46.16461" lon="-1.17955">
        <ele>18.5</ele>
        <time>2020-06-02T08:25:54Z</time>
      </trkpt>
      <trkpt lat="46.16462" lon="-1.17948">
        <ele>18.6</ele>
        <time>2020-06-02T08:25:55Z</time>
      </trkpt>
      <trkpt lat="46.16462" lon="-1.17941">
        <ele>18.6</ele>
        <time>2020-06-02T08:25:56Z</time>
      </trkpt>
      <trkpt lat="46.16462" lon="-1.17935">
        <ele>18.7</ele>
        <time>2020-06-02T08:25:57Z</time>
      </trkpt>
      <trkpt lat="46.16461" lon="-1.17928">
        <ele>18.8</ele>
        <time>2020-06-02T08:25:58Z</time>
      </trkpt>
      <trkpt lat="46.16461" lon="-1.17921">
        <ele>18.8</ele>
        <time>2020-06-02T08:25:59Z</time>
      </trkpt>
      <trkpt lat="46.16461" lon="-1.17914">
        <ele>18.9</ele>
        <time>2020-06-02T08:26:00Z</time>
      </trkpt>
      <trkpt lat="46.16462" lon="-1.17907">
        <ele>19</ele>
        <time>2020-06-02T08:26:01Z</time>
      </trkpt>
      <trkpt lat="46.16462" lon="-1.17901">
        <ele>19</ele>
        <time>2020-06-02T08:26:02Z</time>
      </trkpt>
      <trkpt lat="46.16461" lon="-1.17893">
        <ele>19.1</ele>
        <time>2020-06-02T08:26:03Z</time>
      </trkpt>
      <trkpt lat="46.16461" lon="-1.17887">
        <ele>19.2</ele>
        <time>2020-06-02T08:26:04Z</time>
      </trkpt>
      <trkpt lat="46.16461" lon="-1.17882">
        <ele>19.3</ele>
        <time>2020-06-02T08:26:05Z</time>
      </trkpt>
      <trkpt lat="46.1646" lon="-1.17876">
        <ele>19.3</ele>
        <time>2020-06-02T08:26:06Z</time>
      </trkpt>
      <trkpt lat="46.1646" lon="-1.1787">
        <ele>19.3</ele>
        <time>2020-06-02T08:26:07Z</time>
      </trkpt>
      <trkpt lat="46.16459" lon="-1.17863">
        <ele>19.3</ele>
        <time>2020-06-02T08:26:08Z</time>
      </trkpt>
      <trkpt lat="46.16457" lon="-1.17855">
        <ele>19.4</ele>
        <time>2020-06-02T08:26:09Z</time>
      </trkpt>
      <trkpt lat="46.16455" lon="-1.17848">
        <ele>19.5</ele>
        <time>2020-06-02T08:26:10Z</time>
      </trkpt>
      <trkpt lat="46.16454" lon="-1.17841">
        <ele>19.6</ele>
        <time>2020-06-02T08:26:11Z</time>
      </trkpt>
      <trkpt lat="46.16453" lon="-1.17834">
        <ele>19.7</ele>
        <time>2020-06-02T08:26:12Z</time>
      </trkpt>
      <trkpt lat="46.16453" lon="-1.17827">
        <ele>19.8</ele>
        <time>2020-06-02T08:26:13Z</time>
      </trkpt>
      <trkpt lat="46.16452" lon="-1.17822">
        <ele>19.8</ele>
        <time>2020-06-02T08:26:14Z</time>
      </trkpt>
      <trkpt lat="46.16451" lon="-1.17816">
        <ele>19.9</ele>
        <time>2020-06-02T08:26:15Z</time>
      </trkpt>
      <trkpt lat="46.1645" lon="-1.17808">
        <ele>20</ele>
        <time>2020-06-02T08:26:16Z</time>
      </trkpt>
      <trkpt lat="46.16449" lon="-1.178">
        <ele>20</ele>
        <time>2020-06-02T08:26:17Z</time>
      </trkpt>
      <trkpt lat="46.16448" lon="-1.17793">
        <ele>20.1</ele>
        <time>2020-06-02T08:26:18Z</time>
      </trkpt>
      <trkpt lat="46.16448" lon="-1.17785">
        <ele>20.1</ele>
        <time>2020-06-02T08:26:19Z</time>
      </trkpt>
      <trkpt lat="46.16446" lon="-1.17777">
        <ele>20.2</ele>
        <time>2020-06-02T08:26:20Z</time>
      </trkpt>
      <trkpt lat="46.16445" lon="-1.17769">
        <ele>20.3</ele>
        <time>2020-06-02T08:26:21Z</time>
      </trkpt>
      <trkpt lat="46.16442" lon="-1.17764">
        <ele>20.3</ele>
        <time>2020-06-02T08:26:22Z</time>
      </trkpt>
      <trkpt lat="46.16441" lon="-1.17757">
        <ele>20.4</ele>
        <time>2020-06-02T08:26:23Z</time>
      </trkpt>
      <trkpt lat="46.1644" lon="-1.17754">
        <ele>20.4</ele>
        <time>2020-06-02T08:26:24Z</time>
      </trkpt>
      <trkpt lat="46.16438" lon="-1.17746">
        <ele>20.5</ele>
        <time>2020-06-02T08:26:25Z</time>
      </trkpt>
      <trkpt lat="46.16437" lon="-1.17738">
        <ele>20.5</ele>
        <time>2020-06-02T08:26:26Z</time>
      </trkpt>
      <trkpt lat="46.16436" lon="-1.17732">
        <ele>20.6</ele>
        <time>2020-06-02T08:26:27Z</time>
      </trkpt>
      <trkpt lat="46.16435" lon="-1.17726">
        <ele>20.6</ele>
        <time>2020-06-02T08:26:28Z</time>
      </trkpt>
      <trkpt lat="46.16435" lon="-1.1772">
        <ele>20.7</ele>
        <time>2020-06-02T08:26:29Z</time>
      </trkpt>
      <trkpt lat="46.16434" lon="-1.17714">
        <ele>20.7</ele>
        <time>2020-06-02T08:26:30Z</time>
      </trkpt>
      <trkpt lat="46.16431" lon="-1.17707">
        <ele>20.7</ele>
        <time>2020-06-02T08:26:31Z</time>
      </trkpt>
      <trkpt lat="46.1643" lon="-1.17703">
        <ele>20.8</ele>
        <time>2020-06-02T08:26:32Z</time>
      </trkpt>
      <trkpt lat="46.16429" lon="-1.17702">
        <ele>20.8</ele>
        <time>2020-06-02T08:26:33Z</time>
      </trkpt>
      <trkpt lat="46.16428" lon="-1.17698">
        <ele>20.8</ele>
        <time>2020-06-02T08:26:34Z</time>
      </trkpt>
      <trkpt lat="46.16429" lon="-1.17696">
        <ele>20.8</ele>
        <time>2020-06-02T08:26:35Z</time>
      </trkpt>
      <trkpt lat="46.16428" lon="-1.17693">
        <ele>20.8</ele>
        <time>2020-06-02T08:26:36Z</time>
      </trkpt>
      <trkpt lat="46.16427" lon="-1.17688">
        <ele>20.8</ele>
        <time>2020-06-02T08:26:37Z</time>
      </trkpt>
      <trkpt lat="46.16427" lon="-1.17682">
        <ele>20.9</ele>
        <time>2020-06-02T08:26:38Z</time>
      </trkpt>
      <trkpt lat="46.16426" lon="-1.17677">
        <ele>20.9</ele>
        <time>2020-06-02T08:26:39Z</time>
      </trkpt>
      <trkpt lat="46.16423" lon="-1.17669">
        <ele>20.9</ele>
        <time>2020-06-02T08:26:40Z</time>
      </trkpt>
      <trkpt lat="46.16422" lon="-1.17664">
        <ele>20.9</ele>
        <time>2020-06-02T08:26:41Z</time>
      </trkpt>
      <trkpt lat="46.16421" lon="-1.17658">
        <ele>20.8</ele>
        <time>2020-06-02T08:26:42Z</time>
      </trkpt>
      <trkpt lat="46.16421" lon="-1.17651">
        <ele>20.8</ele>
        <time>2020-06-02T08:26:43Z</time>
      </trkpt>
      <trkpt lat="46.1642" lon="-1.17645">
        <ele>20.7</ele>
        <time>2020-06-02T08:26:44Z</time>
      </trkpt>
      <trkpt lat="46.16419" lon="-1.17638">
        <ele>20.6</ele>
        <time>2020-06-02T08:26:45Z</time>
      </trkpt>
      <trkpt lat="46.16418" lon="-1.17632">
        <ele>20.5</ele>
        <time>2020-06-02T08:26:46Z</time>
      </trkpt>
      <trkpt lat="46.16418" lon="-1.17626">
        <ele>20.4</ele>
        <time>2020-06-02T08:26:47Z</time>
      </trkpt>
      <trkpt lat="46.16418" lon="-1.17621">
        <ele>20.4</ele>
        <time>2020-06-02T08:26:48Z</time>
      </trkpt>
      <trkpt lat="46.16418" lon="-1.17615">
        <ele>20.3</ele>
        <time>2020-06-02T08:26:49Z</time>
      </trkpt>
      <trkpt lat="46.16418" lon="-1.1761">
        <ele>20.2</ele>
        <time>2020-06-02T08:26:50Z</time>
      </trkpt>
      <trkpt lat="46.16417" lon="-1.17603">
        <ele>20.2</ele>
        <time>2020-06-02T08:26:51Z</time>
      </trkpt>
      <trkpt lat="46.16416" lon="-1.17596">
        <ele>20.1</ele>
        <time>2020-06-02T08:26:52Z</time>
      </trkpt>
      <trkpt lat="46.16416" lon="-1.1759">
        <ele>20.1</ele>
        <time>2020-06-02T08:26:53Z</time>
      </trkpt>
      <trkpt lat="46.16415" lon="-1.17585">
        <ele>20.1</ele>
        <time>2020-06-02T08:26:54Z</time>
      </trkpt>
      <trkpt lat="46.16415" lon="-1.1758">
        <ele>20</ele>
        <time>2020-06-02T08:26:55Z</time>
      </trkpt>
      <trkpt lat="46.16414" lon="-1.17574">
        <ele>19.9</ele>
        <time>2020-06-02T08:26:56Z</time>
      </trkpt>
      <trkpt lat="46.16414" lon="-1.17566">
        <ele>19.8</ele>
        <time>2020-06-02T08:26:57Z</time>
      </trkpt>
      <trkpt lat="46.16414" lon="-1.17558">
        <ele>19.7</ele>
        <time>2020-06-02T08:26:58Z</time>
      </trkpt>
      <trkpt lat="46.16413" lon="-1.17552">
        <ele>19.7</ele>
        <time>2020-06-02T08:26:59Z</time>
      </trkpt>
      <trkpt lat="46.16411" lon="-1.17545">
        <ele>19.5</ele>
        <time>2020-06-02T08:27:00Z</time>
      </trkpt>
      <trkpt lat="46.16411" lon="-1.17541">
        <ele>19.5</ele>
        <time>2020-06-02T08:27:01Z</time>
      </trkpt>
      <trkpt lat="46.1641" lon="-1.17536">
        <ele>19.4</ele>
        <time>2020-06-02T08:27:02Z</time>
      </trkpt>
      <trkpt lat="46.1641" lon="-1.1753">
        <ele>19.3</ele>
        <time>2020-06-02T08:27:03Z</time>
      </trkpt>
      <trkpt lat="46.16408" lon="-1.17525">
        <ele>19.3</ele>
        <time>2020-06-02T08:27:04Z</time>
      </trkpt>
      <trkpt lat="46.16407" lon="-1.17519">
        <ele>19.2</ele>
        <time>2020-06-02T08:27:05Z</time>
      </trkpt>
      <trkpt lat="46.16406" lon="-1.17513">
        <ele>19.1</ele>
        <time>2020-06-02T08:27:06Z</time>
      </trkpt>
      <trkpt lat="46.16405" lon="-1.17508">
        <ele>19</ele>
        <time>2020-06-02T08:27:07Z</time>
      </trkpt>
      <trkpt lat="46.16405" lon="-1.17502">
        <ele>18.8</ele>
        <time>2020-06-02T08:27:08Z</time>
      </trkpt>
      <trkpt lat="46.16405" lon="-1.17496">
        <ele>18.7</ele>
        <time>2020-06-02T08:27:09Z</time>
      </trkpt>
      <trkpt lat="46.16405" lon="-1.1749">
        <ele>18.5</ele>
        <time>2020-06-02T08:27:10Z</time>
      </trkpt>
      <trkpt lat="46.16404" lon="-1.17484">
        <ele>18.3</ele>
        <time>2020-06-02T08:27:11Z</time>
      </trkpt>
      <trkpt lat="46.164" lon="-1.17478">
        <ele>18.1</ele>
        <time>2020-06-02T08:27:12Z</time>
      </trkpt>
      <trkpt lat="46.164" lon="-1.1747">
        <ele>17.9</ele>
        <time>2020-06-02T08:27:13Z</time>
      </trkpt>
      <trkpt lat="46.164" lon="-1.17463">
        <ele>17.8</ele>
        <time>2020-06-02T08:27:14Z</time>
      </trkpt>
      <trkpt lat="46.164" lon="-1.17457">
        <ele>17.6</ele>
        <time>2020-06-02T08:27:15Z</time>
      </trkpt>
      <trkpt lat="46.16399" lon="-1.1745">
        <ele>17.5</ele>
        <time>2020-06-02T08:27:16Z</time>
      </trkpt>
      <trkpt lat="46.16399" lon="-1.17444">
        <ele>17.4</ele>
        <time>2020-06-02T08:27:17Z</time>
      </trkpt>
      <trkpt lat="46.16398" lon="-1.17438">
        <ele>17.3</ele>
        <time>2020-06-02T08:27:18Z</time>
      </trkpt>
      <trkpt lat="46.16398" lon="-1.17432">
        <ele>17.2</ele>
        <time>2020-06-02T08:27:19Z</time>
      </trkpt>
      <trkpt lat="46.16397" lon="-1.17425">
        <ele>17.1</ele>
        <time>2020-06-02T08:27:20Z</time>
      </trkpt>
      <trkpt lat="46.16397" lon="-1.17418">
        <ele>17</ele>
        <time>2020-06-02T08:27:21Z</time>
      </trkpt>
      <trkpt lat="46.16397" lon="-1.17413">
        <ele>16.9</ele>
        <time>2020-06-02T08:27:22Z</time>
      </trkpt>
      <trkpt lat="46.16396" lon="-1.17407">
        <ele>16.8</ele>
        <time>2020-06-02T08:27:23Z</time>
      </trkpt>
      <trkpt lat="46.16395" lon="-1.17399">
        <ele>16.7</ele>
        <time>2020-06-02T08:27:24Z</time>
      </trkpt>
      <trkpt lat="46.16395" lon="-1.17392">
        <ele>16.5</ele>
        <time>2020-06-02T08:27:25Z</time>
      </trkpt>
      <trkpt lat="46.16394" lon="-1.17384">
        <ele>16.4</ele>
        <time>2020-06-02T08:27:26Z</time>
      </trkpt>
      <trkpt lat="46.16393" lon="-1.17376">
        <ele>16.2</ele>
        <time>2020-06-02T08:27:27Z</time>
      </trkpt>
      <trkpt lat="46.16393" lon="-1.17369">
        <ele>16.1</ele>
        <time>2020-06-02T08:27:28Z</time>
      </trkpt>
      <trkpt lat="46.16392" lon="-1.17362">
        <ele>16</ele>
        <time>2020-06-02T08:27:29Z</time>
      </trkpt>
      <trkpt lat="46.16392" lon="-1.17356">
        <ele>15.9</ele>
        <time>2020-06-02T08:27:30Z</time>
      </trkpt>
      <trkpt lat="46.16391" lon="-1.17349">
        <ele>15.8</ele>
        <time>2020-06-02T08:27:31Z</time>
      </trkpt>
      <trkpt lat="46.1639" lon="-1.17341">
        <ele>15.6</ele>
        <time>2020-06-02T08:27:32Z</time>
      </trkpt>
      <trkpt lat="46.16389" lon="-1.17335">
        <ele>15.5</ele>
        <time>2020-06-02T08:27:33Z</time>
      </trkpt>
      <trkpt lat="46.16388" lon="-1.17328">
        <ele>15.3</ele>
        <time>2020-06-02T08:27:34Z</time>
      </trkpt>
      <trkpt lat="46.16388" lon="-1.17319">
        <ele>15</ele>
        <time>2020-06-02T08:27:35Z</time>
      </trkpt>
      <trkpt lat="46.16388" lon="-1.1731">
        <ele>14.8</ele>
        <time>2020-06-02T08:27:36Z</time>
      </trkpt>
      <trkpt lat="46.16387" lon="-1.17302">
        <ele>14.6</ele>
        <time>2020-06-02T08:27:37Z</time>
      </trkpt>
      <trkpt lat="46.16386" lon="-1.17295">
        <ele>14.5</ele>
        <time>2020-06-02T08:27:38Z</time>
      </trkpt>
      <trkpt lat="46.16384" lon="-1.17287">
        <ele>14.3</ele>
        <time>2020-06-02T08:27:39Z</time>
      </trkpt>
      <trkpt lat="46.16383" lon="-1.17279">
        <ele>14.2</ele>
        <time>2020-06-02T08:27:40Z</time>
      </trkpt>
      <trkpt lat="46.16383" lon="-1.17272">
        <ele>14</ele>
        <time>2020-06-02T08:27:41Z</time>
      </trkpt>
      <trkpt lat="46.16382" lon="-1.17266">
        <ele>13.9</ele>
        <time>2020-06-02T08:27:42Z</time>
      </trkpt>
      <trkpt lat="46.1638" lon="-1.17259">
        <ele>13.8</ele>
        <time>2020-06-02T08:27:43Z</time>
      </trkpt>
      <trkpt lat="46.16379" lon="-1.17253">
        <ele>13.6</ele>
        <time>2020-06-02T08:27:44Z</time>
      </trkpt>
      <trkpt lat="46.16378" lon="-1.17247">
        <ele>13.5</ele>
        <time>2020-06-02T08:27:45Z</time>
      </trkpt>
      <trkpt lat="46.16376" lon="-1.1724">
        <ele>13.4</ele>
        <time>2020-06-02T08:27:46Z</time>
      </trkpt>
      <trkpt lat="46.16376" lon="-1.17233">
        <ele>13.3</ele>
        <time>2020-06-02T08:27:47Z</time>
      </trkpt>
      <trkpt lat="46.16375" lon="-1.17226">
        <ele>13.2</ele>
        <time>2020-06-02T08:27:48Z</time>
      </trkpt>
      <trkpt lat="46.16374" lon="-1.1722">
        <ele>13.1</ele>
        <time>2020-06-02T08:27:49Z</time>
      </trkpt>
      <trkpt lat="46.16375" lon="-1.17213">
        <ele>13</ele>
        <time>2020-06-02T08:27:50Z</time>
      </trkpt>
      <trkpt lat="46.16375" lon="-1.17205">
        <ele>12.9</ele>
        <time>2020-06-02T08:27:51Z</time>
      </trkpt>
      <trkpt lat="46.16374" lon="-1.17199">
        <ele>12.9</ele>
        <time>2020-06-02T08:27:52Z</time>
      </trkpt>
      <trkpt lat="46.16374" lon="-1.17191">
        <ele>12.8</ele>
        <time>2020-06-02T08:27:53Z</time>
      </trkpt>
      <trkpt lat="46.16373" lon="-1.17183">
        <ele>12.8</ele>
        <time>2020-06-02T08:27:54Z</time>
      </trkpt>
      <trkpt lat="46.16372" lon="-1.17177">
        <ele>12.7</ele>
        <time>2020-06-02T08:27:55Z</time>
      </trkpt>
      <trkpt lat="46.16372" lon="-1.17171">
        <ele>12.6</ele>
        <time>2020-06-02T08:27:56Z</time>
      </trkpt>
      <trkpt lat="46.16372" lon="-1.17163">
        <ele>12.4</ele>
        <time>2020-06-02T08:27:57Z</time>
      </trkpt>
      <trkpt lat="46.16371" lon="-1.17155">
        <ele>12.3</ele>
        <time>2020-06-02T08:27:58Z</time>
      </trkpt>
      <trkpt lat="46.16371" lon="-1.17147">
        <ele>12.2</ele>
        <time>2020-06-02T08:27:59Z</time>
      </trkpt>
      <trkpt lat="46.1637" lon="-1.17139">
        <ele>12</ele>
        <time>2020-06-02T08:28:00Z</time>
      </trkpt>
      <trkpt lat="46.16369" lon="-1.17132">
        <ele>12</ele>
        <time>2020-06-02T08:28:01Z</time>
      </trkpt>
      <trkpt lat="46.16368" lon="-1.17124">
        <ele>11.9</ele>
        <time>2020-06-02T08:28:02Z</time>
      </trkpt>
      <trkpt lat="46.16367" lon="-1.17117">
        <ele>11.8</ele>
        <time>2020-06-02T08:28:03Z</time>
      </trkpt>
      <trkpt lat="46.16367" lon="-1.17109">
        <ele>11.7</ele>
        <time>2020-06-02T08:28:04Z</time>
      </trkpt>
      <trkpt lat="46.16365" lon="-1.17103">
        <ele>11.6</ele>
        <time>2020-06-02T08:28:05Z</time>
      </trkpt>
      <trkpt lat="46.16364" lon="-1.17096">
        <ele>11.5</ele>
        <time>2020-06-02T08:28:06Z</time>
      </trkpt>
      <trkpt lat="46.16363" lon="-1.1709">
        <ele>11.4</ele>
        <time>2020-06-02T08:28:07Z</time>
      </trkpt>
      <trkpt lat="46.16362" lon="-1.17084">
        <ele>11.4</ele>
        <time>2020-06-02T08:28:08Z</time>
      </trkpt>
      <trkpt lat="46.16361" lon="-1.17077">
        <ele>11.3</ele>
        <time>2020-06-02T08:28:09Z</time>
      </trkpt>
      <trkpt lat="46.16362" lon="-1.17072">
        <ele>11.1</ele>
        <time>2020-06-02T08:28:10Z</time>
      </trkpt>
      <trkpt lat="46.1636" lon="-1.17063">
        <ele>10.9</ele>
        <time>2020-06-02T08:28:11Z</time>
      </trkpt>
      <trkpt lat="46.16359" lon="-1.17054">
        <ele>10.6</ele>
        <time>2020-06-02T08:28:12Z</time>
      </trkpt>
      <trkpt lat="46.16358" lon="-1.17045">
        <ele>10.3</ele>
        <time>2020-06-02T08:28:13Z</time>
      </trkpt>
      <trkpt lat="46.16355" lon="-1.17036">
        <ele>10</ele>
        <time>2020-06-02T08:28:14Z</time>
      </trkpt>
      <trkpt lat="46.16354" lon="-1.17025">
        <ele>9.7</ele>
        <time>2020-06-02T08:28:15Z</time>
      </trkpt>
      <trkpt lat="46.16355" lon="-1.17015">
        <ele>9.4</ele>
        <time>2020-06-02T08:28:16Z</time>
      </trkpt>
      <trkpt lat="46.16355" lon="-1.17005">
        <ele>9.2</ele>
        <time>2020-06-02T08:28:17Z</time>
      </trkpt>
      <trkpt lat="46.16354" lon="-1.16995">
        <ele>9</ele>
        <time>2020-06-02T08:28:18Z</time>
      </trkpt>
      <trkpt lat="46.16354" lon="-1.16987">
        <ele>8.8</ele>
        <time>2020-06-02T08:28:19Z</time>
      </trkpt>
      <trkpt lat="46.16352" lon="-1.16977">
        <ele>8.6</ele>
        <time>2020-06-02T08:28:20Z</time>
      </trkpt>
      <trkpt lat="46.16351" lon="-1.16968">
        <ele>8.5</ele>
        <time>2020-06-02T08:28:21Z</time>
      </trkpt>
      <trkpt lat="46.1635" lon="-1.16958">
        <ele>8.3</ele>
        <time>2020-06-02T08:28:22Z</time>
      </trkpt>
      <trkpt lat="46.16349" lon="-1.16949">
        <ele>8.1</ele>
        <time>2020-06-02T08:28:23Z</time>
      </trkpt>
      <trkpt lat="46.16349" lon="-1.16943">
        <ele>8.1</ele>
        <time>2020-06-02T08:28:24Z</time>
      </trkpt>
      <trkpt lat="46.16348" lon="-1.16937">
        <ele>8.1</ele>
        <time>2020-06-02T08:28:25Z</time>
      </trkpt>
      <trkpt lat="46.16348" lon="-1.16935">
        <ele>8.1</ele>
        <time>2020-06-02T08:28:26Z</time>
      </trkpt>
      <trkpt lat="46.16347" lon="-1.16928">
        <ele>8.1</ele>
        <time>2020-06-02T08:28:27Z</time>
      </trkpt>
      <trkpt lat="46.16346" lon="-1.16919">
        <ele>8.1</ele>
        <time>2020-06-02T08:28:28Z</time>
      </trkpt>
      <trkpt lat="46.16344" lon="-1.16911">
        <ele>8.1</ele>
        <time>2020-06-02T08:28:29Z</time>
      </trkpt>
      <trkpt lat="46.16344" lon="-1.16902">
        <ele>8.1</ele>
        <time>2020-06-02T08:28:30Z</time>
      </trkpt>
      <trkpt lat="46.16344" lon="-1.16894">
        <ele>8.1</ele>
        <time>2020-06-02T08:28:31Z</time>
      </trkpt>
      <trkpt lat="46.16344" lon="-1.16886">
        <ele>8</ele>
        <time>2020-06-02T08:28:32Z</time>
      </trkpt>
      <trkpt lat="46.16344" lon="-1.16878">
        <ele>8</ele>
        <time>2020-06-02T08:28:33Z</time>
      </trkpt>
      <trkpt lat="46.16343" lon="-1.16869">
        <ele>8</ele>
        <time>2020-06-02T08:28:34Z</time>
      </trkpt>
      <trkpt lat="46.16343" lon="-1.16861">
        <ele>8</ele>
        <time>2020-06-02T08:28:35Z</time>
      </trkpt>
      <trkpt lat="46.16341" lon="-1.16854">
        <ele>8</ele>
        <time>2020-06-02T08:28:36Z</time>
      </trkpt>
      <trkpt lat="46.16339" lon="-1.16846">
        <ele>8.1</ele>
        <time>2020-06-02T08:28:37Z</time>
      </trkpt>
      <trkpt lat="46.16338" lon="-1.16838">
        <ele>8.1</ele>
        <time>2020-06-02T08:28:38Z</time>
      </trkpt>
      <trkpt lat="46.16337" lon="-1.1683">
        <ele>8.1</ele>
        <time>2020-06-02T08:28:39Z</time>
      </trkpt>
      <trkpt lat="46.16336" lon="-1.16822">
        <ele>8.1</ele>
        <time>2020-06-02T08:28:40Z</time>
      </trkpt>
      <trkpt lat="46.16336" lon="-1.16813">
        <ele>8.1</ele>
        <time>2020-06-02T08:28:41Z</time>
      </trkpt>
      <trkpt lat="46.16335" lon="-1.16805">
        <ele>8.1</ele>
        <time>2020-06-02T08:28:42Z</time>
      </trkpt>
      <trkpt lat="46.16333" lon="-1.16797">
        <ele>8.1</ele>
        <time>2020-06-02T08:28:43Z</time>
      </trkpt>
      <trkpt lat="46.16331" lon="-1.16789">
        <ele>8.1</ele>
        <time>2020-06-02T08:28:44Z</time>
      </trkpt>
      <trkpt lat="46.16331" lon="-1.16781">
        <ele>8.2</ele>
        <time>2020-06-02T08:28:45Z</time>
      </trkpt>
      <trkpt lat="46.1633" lon="-1.16776">
        <ele>8.2</ele>
        <time>2020-06-02T08:28:46Z</time>
      </trkpt>
      <trkpt lat="46.16329" lon="-1.16768">
        <ele>8.2</ele>
        <time>2020-06-02T08:28:47Z</time>
      </trkpt>
      <trkpt lat="46.16328" lon="-1.1676">
        <ele>8.2</ele>
        <time>2020-06-02T08:28:48Z</time>
      </trkpt>
      <trkpt lat="46.16327" lon="-1.16752">
        <ele>8.2</ele>
        <time>2020-06-02T08:28:49Z</time>
      </trkpt>
      <trkpt lat="46.16327" lon="-1.16742">
        <ele>8.2</ele>
        <time>2020-06-02T08:28:50Z</time>
      </trkpt>
      <trkpt lat="46.16327" lon="-1.16735">
        <ele>8.2</ele>
        <time>2020-06-02T08:28:51Z</time>
      </trkpt>
      <trkpt lat="46.16326" lon="-1.16729">
        <ele>8.2</ele>
        <time>2020-06-02T08:28:52Z</time>
      </trkpt>
      <trkpt lat="46.16326" lon="-1.16722">
        <ele>8.2</ele>
        <time>2020-06-02T08:28:53Z</time>
      </trkpt>
      <trkpt lat="46.16326" lon="-1.16716">
        <ele>8.2</ele>
        <time>2020-06-02T08:28:54Z</time>
      </trkpt>
      <trkpt lat="46.16326" lon="-1.1671">
        <ele>8.2</ele>
        <time>2020-06-02T08:28:55Z</time>
      </trkpt>
      <trkpt lat="46.16326" lon="-1.16705">
        <ele>8.2</ele>
        <time>2020-06-02T08:28:56Z</time>
      </trkpt>
      <trkpt lat="46.16326" lon="-1.16698">
        <ele>8.2</ele>
        <time>2020-06-02T08:28:57Z</time>
      </trkpt>
      <trkpt lat="46.16325" lon="-1.16691">
        <ele>8.2</ele>
        <time>2020-06-02T08:28:58Z</time>
      </trkpt>
      <trkpt lat="46.16325" lon="-1.16685">
        <ele>8.2</ele>
        <time>2020-06-02T08:28:59Z</time>
      </trkpt>
      <trkpt lat="46.16324" lon="-1.16678">
        <ele>8.2</ele>
        <time>2020-06-02T08:29:00Z</time>
      </trkpt>
      <trkpt lat="46.16323" lon="-1.16671">
        <ele>8.2</ele>
        <time>2020-06-02T08:29:01Z</time>
      </trkpt>
      <trkpt lat="46.16323" lon="-1.16664">
        <ele>8.2</ele>
        <time>2020-06-02T08:29:02Z</time>
      </trkpt>
      <trkpt lat="46.16321" lon="-1.16658">
        <ele>8.2</ele>
        <time>2020-06-02T08:29:03Z</time>
      </trkpt>
      <trkpt lat="46.16321" lon="-1.16652">
        <ele>8.2</ele>
        <time>2020-06-02T08:29:04Z</time>
      </trkpt>
      <trkpt lat="46.1632" lon="-1.16645">
        <ele>8.2</ele>
        <time>2020-06-02T08:29:05Z</time>
      </trkpt>
      <trkpt lat="46.16319" lon="-1.16639">
        <ele>8.2</ele>
        <time>2020-06-02T08:29:06Z</time>
      </trkpt>
      <trkpt lat="46.16319" lon="-1.16633">
        <ele>8.1</ele>
        <time>2020-06-02T08:29:07Z</time>
      </trkpt>
      <trkpt lat="46.16318" lon="-1.16627">
        <ele>8.1</ele>
        <time>2020-06-02T08:29:08Z</time>
      </trkpt>
      <trkpt lat="46.16317" lon="-1.16621">
        <ele>8.1</ele>
        <time>2020-06-02T08:29:09Z</time>
      </trkpt>
      <trkpt lat="46.16317" lon="-1.16614">
        <ele>8</ele>
        <time>2020-06-02T08:29:10Z</time>
      </trkpt>
      <trkpt lat="46.16317" lon="-1.16608">
        <ele>8</ele>
        <time>2020-06-02T08:29:11Z</time>
      </trkpt>
      <trkpt lat="46.16316" lon="-1.16603">
        <ele>8</ele>
        <time>2020-06-02T08:29:12Z</time>
      </trkpt>
      <trkpt lat="46.16315" lon="-1.16597">
        <ele>8</ele>
        <time>2020-06-02T08:29:13Z</time>
      </trkpt>
      <trkpt lat="46.16314" lon="-1.16592">
        <ele>8</ele>
        <time>2020-06-02T08:29:14Z</time>
      </trkpt>
      <trkpt lat="46.16313" lon="-1.16587">
        <ele>8</ele>
        <time>2020-06-02T08:29:15Z</time>
      </trkpt>
      <trkpt lat="46.16312" lon="-1.16581">
        <ele>8</ele>
        <time>2020-06-02T08:29:16Z</time>
      </trkpt>
      <trkpt lat="46.1631" lon="-1.16575">
        <ele>8</ele>
        <time>2020-06-02T08:29:17Z</time>
      </trkpt>
      <trkpt lat="46.16309" lon="-1.1657">
        <ele>8</ele>
        <time>2020-06-02T08:29:18Z</time>
      </trkpt>
      <trkpt lat="46.16309" lon="-1.16564">
        <ele>8</ele>
        <time>2020-06-02T08:29:19Z</time>
      </trkpt>
      <trkpt lat="46.16309" lon="-1.16559">
        <ele>8</ele>
        <time>2020-06-02T08:29:20Z</time>
      </trkpt>
      <trkpt lat="46.1631" lon="-1.16553">
        <ele>8</ele>
        <time>2020-06-02T08:29:21Z</time>
      </trkpt>
      <trkpt lat="46.1631" lon="-1.16547">
        <ele>7.9</ele>
        <time>2020-06-02T08:29:22Z</time>
      </trkpt>
      <trkpt lat="46.1631" lon="-1.16541">
        <ele>7.9</ele>
        <time>2020-06-02T08:29:23Z</time>
      </trkpt>
      <trkpt lat="46.1631" lon="-1.16535">
        <ele>7.9</ele>
        <time>2020-06-02T08:29:24Z</time>
      </trkpt>
      <trkpt lat="46.1631" lon="-1.1653">
        <ele>7.9</ele>
        <time>2020-06-02T08:29:25Z</time>
      </trkpt>
      <trkpt lat="46.16307" lon="-1.16527">
        <ele>7.9</ele>
        <time>2020-06-02T08:29:26Z</time>
      </trkpt>
      <trkpt lat="46.16306" lon="-1.16523">
        <ele>7.9</ele>
        <time>2020-06-02T08:29:27Z</time>
      </trkpt>
      <trkpt lat="46.16305" lon="-1.16521">
        <ele>7.9</ele>
        <time>2020-06-02T08:29:28Z</time>
      </trkpt>
      <trkpt lat="46.16305" lon="-1.16519">
        <ele>7.9</ele>
        <time>2020-06-02T08:29:29Z</time>
      </trkpt>
      <trkpt lat="46.16305" lon="-1.16515">
        <ele>7.9</ele>
        <time>2020-06-02T08:29:30Z</time>
      </trkpt>
      <trkpt lat="46.16305" lon="-1.16514">
        <ele>7.9</ele>
        <time>2020-06-02T08:29:31Z</time>
      </trkpt>
      <trkpt lat="46.16305" lon="-1.16509">
        <ele>7.9</ele>
        <time>2020-06-02T08:29:32Z</time>
      </trkpt>
      <trkpt lat="46.16305" lon="-1.16504">
        <ele>7.9</ele>
        <time>2020-06-02T08:29:33Z</time>
      </trkpt>
      <trkpt lat="46.16304" lon="-1.16498">
        <ele>7.9</ele>
        <time>2020-06-02T08:29:34Z</time>
      </trkpt>
      <trkpt lat="46.16303" lon="-1.16493">
        <ele>7.9</ele>
        <time>2020-06-02T08:29:35Z</time>
      </trkpt>
      <trkpt lat="46.16303" lon="-1.16488">
        <ele>8</ele>
        <time>2020-06-02T08:29:36Z</time>
      </trkpt>
      <trkpt lat="46.16303" lon="-1.16483">
        <ele>8</ele>
        <time>2020-06-02T08:29:37Z</time>
      </trkpt>
      <trkpt lat="46.16302" lon="-1.16478">
        <ele>8</ele>
        <time>2020-06-02T08:29:38Z</time>
      </trkpt>
      <trkpt lat="46.16302" lon="-1.16472">
        <ele>8</ele>
        <time>2020-06-02T08:29:39Z</time>
      </trkpt>
      <trkpt lat="46.16301" lon="-1.16466">
        <ele>8</ele>
        <time>2020-06-02T08:29:40Z</time>
      </trkpt>
      <trkpt lat="46.163" lon="-1.16461">
        <ele>8</ele>
        <time>2020-06-02T08:29:41Z</time>
      </trkpt>
      <trkpt lat="46.163" lon="-1.16456">
        <ele>8</ele>
        <time>2020-06-02T08:29:42Z</time>
      </trkpt>
      <trkpt lat="46.16299" lon="-1.16449">
        <ele>8.1</ele>
        <time>2020-06-02T08:29:43Z</time>
      </trkpt>
      <trkpt lat="46.16299" lon="-1.16443">
        <ele>8.1</ele>
        <time>2020-06-02T08:29:44Z</time>
      </trkpt>
      <trkpt lat="46.163" lon="-1.16437">
        <ele>8.1</ele>
        <time>2020-06-02T08:29:45Z</time>
      </trkpt>
      <trkpt lat="46.163" lon="-1.16431">
        <ele>8.1</ele>
        <time>2020-06-02T08:29:46Z</time>
      </trkpt>
      <trkpt lat="46.16299" lon="-1.16426">
        <ele>8.1</ele>
        <time>2020-06-02T08:29:47Z</time>
      </trkpt>
      <trkpt lat="46.16299" lon="-1.16419">
        <ele>8.1</ele>
        <time>2020-06-02T08:29:48Z</time>
      </trkpt>
      <trkpt lat="46.16299" lon="-1.16414">
        <ele>8</ele>
        <time>2020-06-02T08:29:49Z</time>
      </trkpt>
      <trkpt lat="46.16298" lon="-1.16408">
        <ele>8</ele>
        <time>2020-06-02T08:29:50Z</time>
      </trkpt>
      <trkpt lat="46.16298" lon="-1.16402">
        <ele>8</ele>
        <time>2020-06-02T08:29:51Z</time>
      </trkpt>
      <trkpt lat="46.16297" lon="-1.16396">
        <ele>8</ele>
        <time>2020-06-02T08:29:52Z</time>
      </trkpt>
      <trkpt lat="46.16297" lon="-1.1639">
        <ele>7.9</ele>
        <time>2020-06-02T08:29:53Z</time>
      </trkpt>
      <trkpt lat="46.16295" lon="-1.16383">
        <ele>7.9</ele>
        <time>2020-06-02T08:29:54Z</time>
      </trkpt>
      <trkpt lat="46.16294" lon="-1.16376">
        <ele>7.8</ele>
        <time>2020-06-02T08:29:55Z</time>
      </trkpt>
      <trkpt lat="46.16294" lon="-1.1637">
        <ele>7.8</ele>
        <time>2020-06-02T08:29:56Z</time>
      </trkpt>
      <trkpt lat="46.16293" lon="-1.16363">
        <ele>7.7</ele>
        <time>2020-06-02T08:29:57Z</time>
      </trkpt>
      <trkpt lat="46.16292" lon="-1.16356">
        <ele>7.7</ele>
        <time>2020-06-02T08:29:58Z</time>
      </trkpt>
      <trkpt lat="46.16291" lon="-1.16349">
        <ele>7.6</ele>
        <time>2020-06-02T08:29:59Z</time>
      </trkpt>
      <trkpt lat="46.16291" lon="-1.16344">
        <ele>7.5</ele>
        <time>2020-06-02T08:30:00Z</time>
      </trkpt>
      <trkpt lat="46.16291" lon="-1.16336">
        <ele>7.5</ele>
        <time>2020-06-02T08:30:01Z</time>
      </trkpt>
      <trkpt lat="46.1629" lon="-1.1633">
        <ele>7.5</ele>
        <time>2020-06-02T08:30:02Z</time>
      </trkpt>
      <trkpt lat="46.1629" lon="-1.16322">
        <ele>7.4</ele>
        <time>2020-06-02T08:30:03Z</time>
      </trkpt>
      <trkpt lat="46.16288" lon="-1.16316">
        <ele>7.4</ele>
        <time>2020-06-02T08:30:04Z</time>
      </trkpt>
      <trkpt lat="46.16287" lon="-1.1631">
        <ele>7.4</ele>
        <time>2020-06-02T08:30:05Z</time>
      </trkpt>
      <trkpt lat="46.16286" lon="-1.16303">
        <ele>7.3</ele>
        <time>2020-06-02T08:30:06Z</time>
      </trkpt>
      <trkpt lat="46.16285" lon="-1.16295">
        <ele>7.3</ele>
        <time>2020-06-02T08:30:07Z</time>
      </trkpt>
      <trkpt lat="46.16285" lon="-1.16288">
        <ele>7.2</ele>
        <time>2020-06-02T08:30:08Z</time>
      </trkpt>
      <trkpt lat="46.16285" lon="-1.16281">
        <ele>7.1</ele>
        <time>2020-06-02T08:30:09Z</time>
      </trkpt>
      <trkpt lat="46.16284" lon="-1.16273">
        <ele>7</ele>
        <time>2020-06-02T08:30:10Z</time>
      </trkpt>
      <trkpt lat="46.16283" lon="-1.16264">
        <ele>7</ele>
        <time>2020-06-02T08:30:11Z</time>
      </trkpt>
      <trkpt lat="46.16281" lon="-1.16256">
        <ele>6.9</ele>
        <time>2020-06-02T08:30:12Z</time>
      </trkpt>
      <trkpt lat="46.16281" lon="-1.16247">
        <ele>6.8</ele>
        <time>2020-06-02T08:30:13Z</time>
      </trkpt>
      <trkpt lat="46.1628" lon="-1.1624">
        <ele>6.8</ele>
        <time>2020-06-02T08:30:14Z</time>
      </trkpt>
      <trkpt lat="46.16279" lon="-1.16233">
        <ele>6.7</ele>
        <time>2020-06-02T08:30:15Z</time>
      </trkpt>
      <trkpt lat="46.16279" lon="-1.16225">
        <ele>6.7</ele>
        <time>2020-06-02T08:30:16Z</time>
      </trkpt>
      <trkpt lat="46.16278" lon="-1.16217">
        <ele>6.7</ele>
        <time>2020-06-02T08:30:17Z</time>
      </trkpt>
      <trkpt lat="46.16276" lon="-1.1621">
        <ele>6.7</ele>
        <time>2020-06-02T08:30:18Z</time>
      </trkpt>
      <trkpt lat="46.16275" lon="-1.16202">
        <ele>6.6</ele>
        <time>2020-06-02T08:30:19Z</time>
      </trkpt>
      <trkpt lat="46.16274" lon="-1.16195">
        <ele>6.6</ele>
        <time>2020-06-02T08:30:20Z</time>
      </trkpt>
      <trkpt lat="46.16274" lon="-1.16187">
        <ele>6.5</ele>
        <time>2020-06-02T08:30:21Z</time>
      </trkpt>
      <trkpt lat="46.16274" lon="-1.1618">
        <ele>6.5</ele>
        <time>2020-06-02T08:30:22Z</time>
      </trkpt>
      <trkpt lat="46.16273" lon="-1.16174">
        <ele>6.4</ele>
        <time>2020-06-02T08:30:23Z</time>
      </trkpt>
      <trkpt lat="46.16272" lon="-1.16166">
        <ele>6.4</ele>
        <time>2020-06-02T08:30:24Z</time>
      </trkpt>
      <trkpt lat="46.16272" lon="-1.16159">
        <ele>6.3</ele>
        <time>2020-06-02T08:30:25Z</time>
      </trkpt>
      <trkpt lat="46.16271" lon="-1.16151">
        <ele>6.3</ele>
        <time>2020-06-02T08:30:26Z</time>
      </trkpt>
      <trkpt lat="46.1627" lon="-1.16144">
        <ele>6.2</ele>
        <time>2020-06-02T08:30:27Z</time>
      </trkpt>
      <trkpt lat="46.1627" lon="-1.16136">
        <ele>6.2</ele>
        <time>2020-06-02T08:30:28Z</time>
      </trkpt>
      <trkpt lat="46.16269" lon="-1.16129">
        <ele>6.2</ele>
        <time>2020-06-02T08:30:29Z</time>
      </trkpt>
      <trkpt lat="46.16268" lon="-1.16122">
        <ele>6.1</ele>
        <time>2020-06-02T08:30:30Z</time>
      </trkpt>
      <trkpt lat="46.16268" lon="-1.16116">
        <ele>6.1</ele>
        <time>2020-06-02T08:30:31Z</time>
      </trkpt>
      <trkpt lat="46.16267" lon="-1.16111">
        <ele>6.1</ele>
        <time>2020-06-02T08:30:32Z</time>
      </trkpt>
      <trkpt lat="46.16267" lon="-1.16105">
        <ele>6.1</ele>
        <time>2020-06-02T08:30:33Z</time>
      </trkpt>
      <trkpt lat="46.16266" lon="-1.16101">
        <ele>6</ele>
        <time>2020-06-02T08:30:34Z</time>
      </trkpt>
      <trkpt lat="46.16265" lon="-1.16097">
        <ele>6</ele>
        <time>2020-06-02T08:30:35Z</time>
      </trkpt>
      <trkpt lat="46.16261" lon="-1.16091">
        <ele>6</ele>
        <time>2020-06-02T08:30:36Z</time>
      </trkpt>
      <trkpt lat="46.16261" lon="-1.16085">
        <ele>6</ele>
        <time>2020-06-02T08:30:37Z</time>
      </trkpt>
      <trkpt lat="46.16261" lon="-1.16079">
        <ele>6</ele>
        <time>2020-06-02T08:30:38Z</time>
      </trkpt>
      <trkpt lat="46.16262" lon="-1.16073">
        <ele>5.9</ele>
        <time>2020-06-02T08:30:39Z</time>
      </trkpt>
      <trkpt lat="46.16262" lon="-1.16067">
        <ele>5.9</ele>
        <time>2020-06-02T08:30:40Z</time>
      </trkpt>
      <trkpt lat="46.16262" lon="-1.16061">
        <ele>5.9</ele>
        <time>2020-06-02T08:30:41Z</time>
      </trkpt>
      <trkpt lat="46.16261" lon="-1.16055">
        <ele>5.9</ele>
        <time>2020-06-02T08:30:42Z</time>
      </trkpt>
      <trkpt lat="46.16261" lon="-1.16048">
        <ele>5.9</ele>
        <time>2020-06-02T08:30:43Z</time>
      </trkpt>
      <trkpt lat="46.16261" lon="-1.16042">
        <ele>5.8</ele>
        <time>2020-06-02T08:30:44Z</time>
      </trkpt>
      <trkpt lat="46.1626" lon="-1.16036">
        <ele>5.8</ele>
        <time>2020-06-02T08:30:45Z</time>
      </trkpt>
      <trkpt lat="46.16258" lon="-1.16028">
        <ele>5.8</ele>
        <time>2020-06-02T08:30:46Z</time>
      </trkpt>
      <trkpt lat="46.16257" lon="-1.1602">
        <ele>5.8</ele>
        <time>2020-06-02T08:30:47Z</time>
      </trkpt>
      <trkpt lat="46.16256" lon="-1.16014">
        <ele>5.8</ele>
        <time>2020-06-02T08:30:48Z</time>
      </trkpt>
      <trkpt lat="46.16256" lon="-1.16007">
        <ele>5.7</ele>
        <time>2020-06-02T08:30:49Z</time>
      </trkpt>
      <trkpt lat="46.16254" lon="-1.16">
        <ele>5.7</ele>
        <time>2020-06-02T08:30:50Z</time>
      </trkpt>
      <trkpt lat="46.16255" lon="-1.15993">
        <ele>5.7</ele>
        <time>2020-06-02T08:30:51Z</time>
      </trkpt>
      <trkpt lat="46.16254" lon="-1.15986">
        <ele>5.7</ele>
        <time>2020-06-02T08:30:52Z</time>
      </trkpt>
      <trkpt lat="46.16253" lon="-1.15978">
        <ele>5.7</ele>
        <time>2020-06-02T08:30:53Z</time>
      </trkpt>
      <trkpt lat="46.16252" lon="-1.15971">
        <ele>5.7</ele>
        <time>2020-06-02T08:30:54Z</time>
      </trkpt>
      <trkpt lat="46.16252" lon="-1.15962">
        <ele>5.6</ele>
        <time>2020-06-02T08:30:55Z</time>
      </trkpt>
      <trkpt lat="46.16251" lon="-1.15954">
        <ele>5.6</ele>
        <time>2020-06-02T08:30:56Z</time>
      </trkpt>
      <trkpt lat="46.16251" lon="-1.15945">
        <ele>5.6</ele>
        <time>2020-06-02T08:30:57Z</time>
      </trkpt>
      <trkpt lat="46.1625" lon="-1.15938">
        <ele>5.6</ele>
        <time>2020-06-02T08:30:58Z</time>
      </trkpt>
      <trkpt lat="46.1625" lon="-1.15931">
        <ele>5.6</ele>
        <time>2020-06-02T08:30:59Z</time>
      </trkpt>
      <trkpt lat="46.16248" lon="-1.15923">
        <ele>5.6</ele>
        <time>2020-06-02T08:31:00Z</time>
      </trkpt>
      <trkpt lat="46.16246" lon="-1.15916">
        <ele>5.6</ele>
        <time>2020-06-02T08:31:01Z</time>
      </trkpt>
      <trkpt lat="46.16246" lon="-1.15909">
        <ele>5.6</ele>
        <time>2020-06-02T08:31:02Z</time>
      </trkpt>
      <trkpt lat="46.16245" lon="-1.15902">
        <ele>5.6</ele>
        <time>2020-06-02T08:31:03Z</time>
      </trkpt>
      <trkpt lat="46.16244" lon="-1.15894">
        <ele>5.6</ele>
        <time>2020-06-02T08:31:04Z</time>
      </trkpt>
      <trkpt lat="46.16244" lon="-1.15886">
        <ele>5.6</ele>
        <time>2020-06-02T08:31:05Z</time>
      </trkpt>
      <trkpt lat="46.16242" lon="-1.15878">
        <ele>5.6</ele>
        <time>2020-06-02T08:31:06Z</time>
      </trkpt>
      <trkpt lat="46.16241" lon="-1.15873">
        <ele>5.6</ele>
        <time>2020-06-02T08:31:07Z</time>
      </trkpt>
      <trkpt lat="46.16241" lon="-1.15867">
        <ele>5.6</ele>
        <time>2020-06-02T08:31:08Z</time>
      </trkpt>
      <trkpt lat="46.16241" lon="-1.15863">
        <ele>5.6</ele>
        <time>2020-06-02T08:31:09Z</time>
      </trkpt>
      <trkpt lat="46.16241" lon="-1.15862">
        <ele>5.6</ele>
        <time>2020-06-02T08:31:10Z</time>
      </trkpt>
      <trkpt lat="46.16242" lon="-1.1586">
        <ele>5.6</ele>
        <time>2020-06-02T08:31:11Z</time>
      </trkpt>
      <trkpt lat="46.16241" lon="-1.15858">
        <ele>5.6</ele>
        <time>2020-06-02T08:31:12Z</time>
      </trkpt>
      <trkpt lat="46.16242" lon="-1.15858">
        <ele>5.6</ele>
        <time>2020-06-02T08:31:13Z</time>
      </trkpt>
      <trkpt lat="46.16243" lon="-1.15859">
        <ele>5.6</ele>
        <time>2020-06-02T08:31:14Z</time>
      </trkpt>
      <trkpt lat="46.16243" lon="-1.15861">
        <ele>5.6</ele>
        <time>2020-06-02T08:31:15Z</time>
      </trkpt>
      <trkpt lat="46.16243" lon="-1.15861">
        <ele>5.6</ele>
        <time>2020-06-02T08:31:16Z</time>
      </trkpt>
      <trkpt lat="46.16244" lon="-1.15862">
        <ele>5.6</ele>
        <time>2020-06-02T08:31:17Z</time>
      </trkpt>
      <trkpt lat="46.16243" lon="-1.15862">
        <ele>5.6</ele>
        <time>2020-06-02T08:31:18Z</time>
      </trkpt>
      <trkpt lat="46.16243" lon="-1.15863">
        <ele>5.6</ele>
        <time>2020-06-02T08:31:19Z</time>
      </trkpt>
      <trkpt lat="46.16244" lon="-1.15865">
        <ele>5.6</ele>
        <time>2020-06-02T08:31:20Z</time>
      </trkpt>
      <trkpt lat="46.16244" lon="-1.15864">
        <ele>5.6</ele>
        <time>2020-06-02T08:31:21Z</time>
      </trkpt>
      <trkpt lat="46.16245" lon="-1.15865">
        <ele>5.6</ele>
        <time>2020-06-02T08:31:22Z</time>
      </trkpt>
      <trkpt lat="46.16245" lon="-1.15865">
        <ele>5.6</ele>
        <time>2020-06-02T08:31:23Z</time>
      </trkpt>
      <trkpt lat="46.16245" lon="-1.15864">
        <ele>5.6</ele>
        <time>2020-06-02T08:31:24Z</time>
      </trkpt>
      <trkpt lat="46.16245" lon="-1.15863">
        <ele>5.6</ele>
        <time>2020-06-02T08:31:25Z</time>
      </trkpt>
      <trkpt lat="46.16245" lon="-1.15862">
        <ele>5.6</ele>
        <time>2020-06-02T08:31:26Z</time>
      </trkpt>
      <trkpt lat="46.16245" lon="-1.15861">
        <ele>5.6</ele>
        <time>2020-06-02T08:31:27Z</time>
      </trkpt>
      <trkpt lat="46.16245" lon="-1.1586">
        <ele>5.6</ele>
        <time>2020-06-02T08:31:28Z</time>
      </trkpt>
      <trkpt lat="46.16245" lon="-1.15858">
        <ele>5.6</ele>
        <time>2020-06-02T08:31:29Z</time>
      </trkpt>
      <trkpt lat="46.16245" lon="-1.15854">
        <ele>5.6</ele>
        <time>2020-06-02T08:31:30Z</time>
      </trkpt>
      <trkpt lat="46.16245" lon="-1.15851">
        <ele>5.6</ele>
        <time>2020-06-02T08:31:31Z</time>
      </trkpt>
      <trkpt lat="46.16246" lon="-1.15847">
        <ele>5.6</ele>
        <time>2020-06-02T08:31:32Z</time>
      </trkpt>
      <trkpt lat="46.16246" lon="-1.15841">
        <ele>5.6</ele>
        <time>2020-06-02T08:31:33Z</time>
      </trkpt>
      <trkpt lat="46.16247" lon="-1.15834">
        <ele>5.6</ele>
        <time>2020-06-02T08:31:34Z</time>
      </trkpt>
      <trkpt lat="46.16247" lon="-1.15827">
        <ele>5.6</ele>
        <time>2020-06-02T08:31:35Z</time>
      </trkpt>
      <trkpt lat="46.16247" lon="-1.15819">
        <ele>5.6</ele>
        <time>2020-06-02T08:31:36Z</time>
      </trkpt>
      <trkpt lat="46.16247" lon="-1.15812">
        <ele>5.6</ele>
        <time>2020-06-02T08:31:37Z</time>
      </trkpt>
      <trkpt lat="46.16246" lon="-1.15805">
        <ele>5.6</ele>
        <time>2020-06-02T08:31:38Z</time>
      </trkpt>
      <trkpt lat="46.16245" lon="-1.15798">
        <ele>5.6</ele>
        <time>2020-06-02T08:31:39Z</time>
      </trkpt>
      <trkpt lat="46.16245" lon="-1.1579">
        <ele>5.5</ele>
        <time>2020-06-02T08:31:40Z</time>
      </trkpt>
      <trkpt lat="46.16244" lon="-1.1578">
        <ele>5.5</ele>
        <time>2020-06-02T08:31:41Z</time>
      </trkpt>
      <trkpt lat="46.16243" lon="-1.15771">
        <ele>5.5</ele>
        <time>2020-06-02T08:31:42Z</time>
      </trkpt>
      <trkpt lat="46.16241" lon="-1.15761">
        <ele>5.4</ele>
        <time>2020-06-02T08:31:43Z</time>
      </trkpt>
      <trkpt lat="46.16239" lon="-1.15752">
        <ele>5.4</ele>
        <time>2020-06-02T08:31:44Z</time>
      </trkpt>
      <trkpt lat="46.16238" lon="-1.15744">
        <ele>5.3</ele>
        <time>2020-06-02T08:31:45Z</time>
      </trkpt>
      <trkpt lat="46.16237" lon="-1.15734">
        <ele>5.3</ele>
        <time>2020-06-02T08:31:46Z</time>
      </trkpt>
      <trkpt lat="46.16236" lon="-1.15726">
        <ele>5.2</ele>
        <time>2020-06-02T08:31:47Z</time>
      </trkpt>
      <trkpt lat="46.16235" lon="-1.15716">
        <ele>5.2</ele>
        <time>2020-06-02T08:31:48Z</time>
      </trkpt>
      <trkpt lat="46.16234" lon="-1.15708">
        <ele>5.1</ele>
        <time>2020-06-02T08:31:49Z</time>
      </trkpt>
      <trkpt lat="46.16233" lon="-1.15698">
        <ele>5.1</ele>
        <time>2020-06-02T08:31:50Z</time>
      </trkpt>
      <trkpt lat="46.16233" lon="-1.1569">
        <ele>5</ele>
        <time>2020-06-02T08:31:51Z</time>
      </trkpt>
      <trkpt lat="46.16231" lon="-1.1568">
        <ele>5</ele>
        <time>2020-06-02T08:31:52Z</time>
      </trkpt>
      <trkpt lat="46.1623" lon="-1.15672">
        <ele>5</ele>
        <time>2020-06-02T08:31:53Z</time>
      </trkpt>
      <trkpt lat="46.16229" lon="-1.15665">
        <ele>5.1</ele>
        <time>2020-06-02T08:31:54Z</time>
      </trkpt>
      <trkpt lat="46.16228" lon="-1.15656">
        <ele>5.1</ele>
        <time>2020-06-02T08:31:55Z</time>
      </trkpt>
      <trkpt lat="46.16227" lon="-1.15648">
        <ele>5.2</ele>
        <time>2020-06-02T08:31:56Z</time>
      </trkpt>
      <trkpt lat="46.16227" lon="-1.15639">
        <ele>5.3</ele>
        <time>2020-06-02T08:31:57Z</time>
      </trkpt>
      <trkpt lat="46.16226" lon="-1.1563">
        <ele>5.4</ele>
        <time>2020-06-02T08:31:58Z</time>
      </trkpt>
      <trkpt lat="46.16226" lon="-1.15621">
        <ele>5.5</ele>
        <time>2020-06-02T08:31:59Z</time>
      </trkpt>
      <trkpt lat="46.16226" lon="-1.15612">
        <ele>5.6</ele>
        <time>2020-06-02T08:32:00Z</time>
      </trkpt>
      <trkpt lat="46.16225" lon="-1.15603">
        <ele>5.7</ele>
        <time>2020-06-02T08:32:01Z</time>
      </trkpt>
      <trkpt lat="46.16224" lon="-1.15595">
        <ele>5.9</ele>
        <time>2020-06-02T08:32:02Z</time>
      </trkpt>
      <trkpt lat="46.16223" lon="-1.15588">
        <ele>6</ele>
        <time>2020-06-02T08:32:03Z</time>
      </trkpt>
      <trkpt lat="46.16222" lon="-1.15581">
        <ele>6.1</ele>
        <time>2020-06-02T08:32:04Z</time>
      </trkpt>
      <trkpt lat="46.16222" lon="-1.15575">
        <ele>6.1</ele>
        <time>2020-06-02T08:32:05Z</time>
      </trkpt>
      <trkpt lat="46.16222" lon="-1.15568">
        <ele>6.2</ele>
        <time>2020-06-02T08:32:06Z</time>
      </trkpt>
      <trkpt lat="46.16221" lon="-1.15562">
        <ele>6.2</ele>
        <time>2020-06-02T08:32:07Z</time>
      </trkpt>
      <trkpt lat="46.16221" lon="-1.15555">
        <ele>6.2</ele>
        <time>2020-06-02T08:32:08Z</time>
      </trkpt>
      <trkpt lat="46.16219" lon="-1.15548">
        <ele>6.3</ele>
        <time>2020-06-02T08:32:09Z</time>
      </trkpt>
      <trkpt lat="46.16216" lon="-1.15543">
        <ele>6.4</ele>
        <time>2020-06-02T08:32:10Z</time>
      </trkpt>
      <trkpt lat="46.16214" lon="-1.1554">
        <ele>6.4</ele>
        <time>2020-06-02T08:32:11Z</time>
      </trkpt>
      <trkpt lat="46.16214" lon="-1.15534">
        <ele>6.4</ele>
        <time>2020-06-02T08:32:12Z</time>
      </trkpt>
      <trkpt lat="46.16214" lon="-1.15532">
        <ele>6.5</ele>
        <time>2020-06-02T08:32:13Z</time>
      </trkpt>
      <trkpt lat="46.16213" lon="-1.15527">
        <ele>6.5</ele>
        <time>2020-06-02T08:32:14Z</time>
      </trkpt>
      <trkpt lat="46.16212" lon="-1.15526">
        <ele>6.5</ele>
        <time>2020-06-02T08:32:15Z</time>
      </trkpt>
      <trkpt lat="46.16212" lon="-1.15521">
        <ele>6.6</ele>
        <time>2020-06-02T08:32:16Z</time>
      </trkpt>
      <trkpt lat="46.16212" lon="-1.15515">
        <ele>6.6</ele>
        <time>2020-06-02T08:32:17Z</time>
      </trkpt>
      <trkpt lat="46.16212" lon="-1.15509">
        <ele>6.7</ele>
        <time>2020-06-02T08:32:18Z</time>
      </trkpt>
      <trkpt lat="46.16212" lon="-1.15502">
        <ele>6.8</ele>
        <time>2020-06-02T08:32:19Z</time>
      </trkpt>
      <trkpt lat="46.16213" lon="-1.15496">
        <ele>6.8</ele>
        <time>2020-06-02T08:32:20Z</time>
      </trkpt>
      <trkpt lat="46.16214" lon="-1.1549">
        <ele>6.9</ele>
        <time>2020-06-02T08:32:21Z</time>
      </trkpt>
      <trkpt lat="46.16215" lon="-1.15483">
        <ele>7</ele>
        <time>2020-06-02T08:32:22Z</time>
      </trkpt>
      <trkpt lat="46.16216" lon="-1.15477">
        <ele>7</ele>
        <time>2020-06-02T08:32:23Z</time>
      </trkpt>
      <trkpt lat="46.16215" lon="-1.15471">
        <ele>7.1</ele>
        <time>2020-06-02T08:32:24Z</time>
      </trkpt>
      <trkpt lat="46.16213" lon="-1.15464">
        <ele>7.2</ele>
        <time>2020-06-02T08:32:25Z</time>
      </trkpt>
      <trkpt lat="46.16211" lon="-1.15456">
        <ele>7.3</ele>
        <time>2020-06-02T08:32:26Z</time>
      </trkpt>
      <trkpt lat="46.16209" lon="-1.15447">
        <ele>7.4</ele>
        <time>2020-06-02T08:32:27Z</time>
      </trkpt>
      <trkpt lat="46.16207" lon="-1.15439">
        <ele>7.6</ele>
        <time>2020-06-02T08:32:28Z</time>
      </trkpt>
      <trkpt lat="46.16205" lon="-1.15434">
        <ele>7.5</ele>
        <time>2020-06-02T08:32:29Z</time>
      </trkpt>
      <trkpt lat="46.16203" lon="-1.15425">
        <ele>7.5</ele>
        <time>2020-06-02T08:32:30Z</time>
      </trkpt>
      <trkpt lat="46.16202" lon="-1.15417">
        <ele>7.6</ele>
        <time>2020-06-02T08:32:31Z</time>
      </trkpt>
      <trkpt lat="46.16201" lon="-1.15413">
        <ele>7.6</ele>
        <time>2020-06-02T08:32:32Z</time>
      </trkpt>
      <trkpt lat="46.16199" lon="-1.15408">
        <ele>7.6</ele>
        <time>2020-06-02T08:32:33Z</time>
      </trkpt>
      <trkpt lat="46.16198" lon="-1.15402">
        <ele>7.6</ele>
        <time>2020-06-02T08:32:34Z</time>
      </trkpt>
      <trkpt lat="46.16196" lon="-1.15397">
        <ele>7.7</ele>
        <time>2020-06-02T08:32:35Z</time>
      </trkpt>
      <trkpt lat="46.16195" lon="-1.15392">
        <ele>7.7</ele>
        <time>2020-06-02T08:32:36Z</time>
      </trkpt>
      <trkpt lat="46.16195" lon="-1.15387">
        <ele>7.8</ele>
        <time>2020-06-02T08:32:37Z</time>
      </trkpt>
      <trkpt lat="46.16194" lon="-1.15381">
        <ele>7.8</ele>
        <time>2020-06-02T08:32:38Z</time>
      </trkpt>
      <trkpt lat="46.16193" lon="-1.15375">
        <ele>7.8</ele>
        <time>2020-06-02T08:32:39Z</time>
      </trkpt>
      <trkpt lat="46.16191" lon="-1.1537">
        <ele>7.9</ele>
        <time>2020-06-02T08:32:40Z</time>
      </trkpt>
      <trkpt lat="46.16188" lon="-1.15363">
        <ele>7.9</ele>
        <time>2020-06-02T08:32:41Z</time>
      </trkpt>
      <trkpt lat="46.16188" lon="-1.15356">
        <ele>7.9</ele>
        <time>2020-06-02T08:32:42Z</time>
      </trkpt>
      <trkpt lat="46.16187" lon="-1.15349">
        <ele>7.9</ele>
        <time>2020-06-02T08:32:43Z</time>
      </trkpt>
      <trkpt lat="46.16186" lon="-1.15343">
        <ele>7.9</ele>
        <time>2020-06-02T08:32:44Z</time>
      </trkpt>
      <trkpt lat="46.16185" lon="-1.15337">
        <ele>7.9</ele>
        <time>2020-06-02T08:32:45Z</time>
      </trkpt>
      <trkpt lat="46.16184" lon="-1.15333">
        <ele>7.9</ele>
        <time>2020-06-02T08:32:46Z</time>
      </trkpt>
      <trkpt lat="46.16184" lon="-1.15329">
        <ele>7.9</ele>
        <time>2020-06-02T08:32:47Z</time>
      </trkpt>
      <trkpt lat="46.16183" lon="-1.15324">
        <ele>8</ele>
        <time>2020-06-02T08:32:48Z</time>
      </trkpt>
      <trkpt lat="46.16182" lon="-1.15318">
        <ele>8</ele>
        <time>2020-06-02T08:32:49Z</time>
      </trkpt>
      <trkpt lat="46.1618" lon="-1.15312">
        <ele>8</ele>
        <time>2020-06-02T08:32:50Z</time>
      </trkpt>
      <trkpt lat="46.16179" lon="-1.15306">
        <ele>8</ele>
        <time>2020-06-02T08:32:51Z</time>
      </trkpt>
      <trkpt lat="46.16178" lon="-1.153">
        <ele>8.1</ele>
        <time>2020-06-02T08:32:52Z</time>
      </trkpt>
      <trkpt lat="46.16177" lon="-1.15294">
        <ele>8.1</ele>
        <time>2020-06-02T08:32:53Z</time>
      </trkpt>
      <trkpt lat="46.16175" lon="-1.15291">
        <ele>8.1</ele>
        <time>2020-06-02T08:32:54Z</time>
      </trkpt>
      <trkpt lat="46.16173" lon="-1.15289">
        <ele>8.1</ele>
        <time>2020-06-02T08:32:55Z</time>
      </trkpt>
      <trkpt lat="46.16169" lon="-1.15287">
        <ele>8.1</ele>
        <time>2020-06-02T08:32:56Z</time>
      </trkpt>
      <trkpt lat="46.16166" lon="-1.15286">
        <ele>8</ele>
        <time>2020-06-02T08:32:57Z</time>
      </trkpt>
      <trkpt lat="46.16163" lon="-1.15287">
        <ele>8</ele>
        <time>2020-06-02T08:32:58Z</time>
      </trkpt>
      <trkpt lat="46.16158" lon="-1.15291">
        <ele>7.9</ele>
        <time>2020-06-02T08:32:59Z</time>
      </trkpt>
      <trkpt lat="46.16154" lon="-1.15296">
        <ele>7.9</ele>
        <time>2020-06-02T08:33:00Z</time>
      </trkpt>
      <trkpt lat="46.1615" lon="-1.153">
        <ele>7.9</ele>
        <time>2020-06-02T08:33:01Z</time>
      </trkpt>
      <trkpt lat="46.16145" lon="-1.15304">
        <ele>7.8</ele>
        <time>2020-06-02T08:33:02Z</time>
      </trkpt>
      <trkpt lat="46.1614" lon="-1.15305">
        <ele>7.8</ele>
        <time>2020-06-02T08:33:03Z</time>
      </trkpt>
      <trkpt lat="46.16135" lon="-1.15308">
        <ele>7.8</ele>
        <time>2020-06-02T08:33:04Z</time>
      </trkpt>
      <trkpt lat="46.1613" lon="-1.1531">
        <ele>7.7</ele>
        <time>2020-06-02T08:33:05Z</time>
      </trkpt>
      <trkpt lat="46.16125" lon="-1.15311">
        <ele>7.7</ele>
        <time>2020-06-02T08:33:06Z</time>
      </trkpt>
      <trkpt lat="46.16119" lon="-1.15312">
        <ele>7.7</ele>
        <time>2020-06-02T08:33:07Z</time>
      </trkpt>
      <trkpt lat="46.16114" lon="-1.15315">
        <ele>7.7</ele>
        <time>2020-06-02T08:33:08Z</time>
      </trkpt>
      <trkpt lat="46.16108" lon="-1.15318">
        <ele>7.7</ele>
        <time>2020-06-02T08:33:09Z</time>
      </trkpt>
      <trkpt lat="46.16103" lon="-1.15321">
        <ele>7.7</ele>
        <time>2020-06-02T08:33:10Z</time>
      </trkpt>
      <trkpt lat="46.16097" lon="-1.15325">
        <ele>7.6</ele>
        <time>2020-06-02T08:33:11Z</time>
      </trkpt>
      <trkpt lat="46.1609" lon="-1.15325">
        <ele>7.6</ele>
        <time>2020-06-02T08:33:12Z</time>
      </trkpt>
      <trkpt lat="46.16084" lon="-1.15326">
        <ele>7.6</ele>
        <time>2020-06-02T08:33:13Z</time>
      </trkpt>
      <trkpt lat="46.16078" lon="-1.15325">
        <ele>7.5</ele>
        <time>2020-06-02T08:33:14Z</time>
      </trkpt>
      <trkpt lat="46.16074" lon="-1.15331">
        <ele>7.5</ele>
        <time>2020-06-02T08:33:15Z</time>
      </trkpt>
      <trkpt lat="46.16068" lon="-1.15331">
        <ele>7.5</ele>
        <time>2020-06-02T08:33:16Z</time>
      </trkpt>
      <trkpt lat="46.16063" lon="-1.15332">
        <ele>7.4</ele>
        <time>2020-06-02T08:33:17Z</time>
      </trkpt>
      <trkpt lat="46.16058" lon="-1.15333">
        <ele>7.4</ele>
        <time>2020-06-02T08:33:18Z</time>
      </trkpt>
      <trkpt lat="46.16052" lon="-1.15334">
        <ele>7.4</ele>
        <time>2020-06-02T08:33:19Z</time>
      </trkpt>
      <trkpt lat="46.16047" lon="-1.15335">
        <ele>7.3</ele>
        <time>2020-06-02T08:33:20Z</time>
      </trkpt>
      <trkpt lat="46.16042" lon="-1.15337">
        <ele>7.3</ele>
        <time>2020-06-02T08:33:21Z</time>
      </trkpt>
      <trkpt lat="46.16037" lon="-1.15338">
        <ele>7.2</ele>
        <time>2020-06-02T08:33:22Z</time>
      </trkpt>
      <trkpt lat="46.16032" lon="-1.15341">
        <ele>7.2</ele>
        <time>2020-06-02T08:33:23Z</time>
      </trkpt>
      <trkpt lat="46.16026" lon="-1.15341">
        <ele>7.2</ele>
        <time>2020-06-02T08:33:24Z</time>
      </trkpt>
      <trkpt lat="46.16023" lon="-1.15348">
        <ele>7.2</ele>
        <time>2020-06-02T08:33:25Z</time>
      </trkpt>
      <trkpt lat="46.16019" lon="-1.15346">
        <ele>7.1</ele>
        <time>2020-06-02T08:33:26Z</time>
      </trkpt>
      <trkpt lat="46.16014" lon="-1.15349">
        <ele>7.1</ele>
        <time>2020-06-02T08:33:27Z</time>
      </trkpt>
      <trkpt lat="46.16009" lon="-1.15351">
        <ele>7.1</ele>
        <time>2020-06-02T08:33:28Z</time>
      </trkpt>
      <trkpt lat="46.16002" lon="-1.15352">
        <ele>7</ele>
        <time>2020-06-02T08:33:29Z</time>
      </trkpt>
      <trkpt lat="46.15997" lon="-1.15354">
        <ele>7</ele>
        <time>2020-06-02T08:33:30Z</time>
      </trkpt>
      <trkpt lat="46.15991" lon="-1.15356">
        <ele>6.9</ele>
        <time>2020-06-02T08:33:31Z</time>
      </trkpt>
      <trkpt lat="46.15985" lon="-1.15358">
        <ele>6.8</ele>
        <time>2020-06-02T08:33:32Z</time>
      </trkpt>
      <trkpt lat="46.15979" lon="-1.15358">
        <ele>6.7</ele>
        <time>2020-06-02T08:33:33Z</time>
      </trkpt>
      <trkpt lat="46.15972" lon="-1.1536">
        <ele>6.5</ele>
        <time>2020-06-02T08:33:34Z</time>
      </trkpt>
      <trkpt lat="46.15967" lon="-1.15361">
        <ele>6.4</ele>
        <time>2020-06-02T08:33:35Z</time>
      </trkpt>
      <trkpt lat="46.15962" lon="-1.15362">
        <ele>6.3</ele>
        <time>2020-06-02T08:33:36Z</time>
      </trkpt>
      <trkpt lat="46.15957" lon="-1.15363">
        <ele>6.1</ele>
        <time>2020-06-02T08:33:37Z</time>
      </trkpt>
      <trkpt lat="46.15952" lon="-1.15365">
        <ele>6</ele>
        <time>2020-06-02T08:33:38Z</time>
      </trkpt>
      <trkpt lat="46.15947" lon="-1.15365">
        <ele>6</ele>
        <time>2020-06-02T08:33:39Z</time>
      </trkpt>
      <trkpt lat="46.15941" lon="-1.15366">
        <ele>5.9</ele>
        <time>2020-06-02T08:33:40Z</time>
      </trkpt>
      <trkpt lat="46.15936" lon="-1.15367">
        <ele>5.8</ele>
        <time>2020-06-02T08:33:41Z</time>
      </trkpt>
      <trkpt lat="46.15933" lon="-1.15369">
        <ele>5.8</ele>
        <time>2020-06-02T08:33:42Z</time>
      </trkpt>
      <trkpt lat="46.15929" lon="-1.1537">
        <ele>5.8</ele>
        <time>2020-06-02T08:33:43Z</time>
      </trkpt>
      <trkpt lat="46.15924" lon="-1.15372">
        <ele>5.8</ele>
        <time>2020-06-02T08:33:44Z</time>
      </trkpt>
      <trkpt lat="46.1592" lon="-1.15373">
        <ele>5.7</ele>
        <time>2020-06-02T08:33:45Z</time>
      </trkpt>
      <trkpt lat="46.15915" lon="-1.15374">
        <ele>5.7</ele>
        <time>2020-06-02T08:33:46Z</time>
      </trkpt>
      <trkpt lat="46.15911" lon="-1.15375">
        <ele>5.7</ele>
        <time>2020-06-02T08:33:47Z</time>
      </trkpt>
      <trkpt lat="46.15908" lon="-1.15376">
        <ele>5.7</ele>
        <time>2020-06-02T08:33:48Z</time>
      </trkpt>
      <trkpt lat="46.15904" lon="-1.15376">
        <ele>5.6</ele>
        <time>2020-06-02T08:33:49Z</time>
      </trkpt>
      <trkpt lat="46.159" lon="-1.15376">
        <ele>5.6</ele>
        <time>2020-06-02T08:33:50Z</time>
      </trkpt>
      <trkpt lat="46.15899" lon="-1.15377">
        <ele>5.6</ele>
        <time>2020-06-02T08:33:51Z</time>
      </trkpt>
      <trkpt lat="46.15897" lon="-1.15377">
        <ele>5.5</ele>
        <time>2020-06-02T08:33:52Z</time>
      </trkpt>
      <trkpt lat="46.15897" lon="-1.15381">
        <ele>5.5</ele>
        <time>2020-06-02T08:33:53Z</time>
      </trkpt>
      <trkpt lat="46.15898" lon="-1.15382">
        <ele>5.5</ele>
        <time>2020-06-02T08:33:54Z</time>
      </trkpt>
      <trkpt lat="46.15898" lon="-1.15382">
        <ele>5.5</ele>
        <time>2020-06-02T08:33:55Z</time>
      </trkpt>
      <trkpt lat="46.15899" lon="-1.15383">
        <ele>5.5</ele>
        <time>2020-06-02T08:33:56Z</time>
      </trkpt>
      <trkpt lat="46.15899" lon="-1.15383">
        <ele>5.5</ele>
        <time>2020-06-02T08:33:57Z</time>
      </trkpt>
      <trkpt lat="46.159" lon="-1.15384">
        <ele>5.5</ele>
        <time>2020-06-02T08:33:58Z</time>
      </trkpt>
      <trkpt lat="46.15899" lon="-1.15385">
        <ele>5.5</ele>
        <time>2020-06-02T08:33:59Z</time>
      </trkpt>
      <trkpt lat="46.15898" lon="-1.15386">
        <ele>5.4</ele>
        <time>2020-06-02T08:34:00Z</time>
      </trkpt>
      <trkpt lat="46.15899" lon="-1.15386">
        <ele>5.4</ele>
        <time>2020-06-02T08:34:01Z</time>
      </trkpt>
      <trkpt lat="46.15899" lon="-1.15387">
        <ele>5.4</ele>
        <time>2020-06-02T08:34:02Z</time>
      </trkpt>
      <trkpt lat="46.15899" lon="-1.15388">
        <ele>5.4</ele>
        <time>2020-06-02T08:34:03Z</time>
      </trkpt>
      <trkpt lat="46.15899" lon="-1.15388">
        <ele>5.4</ele>
        <time>2020-06-02T08:34:04Z</time>
      </trkpt>
      <trkpt lat="46.15898" lon="-1.1539">
        <ele>5.4</ele>
        <time>2020-06-02T08:34:05Z</time>
      </trkpt>
      <trkpt lat="46.15897" lon="-1.1539">
        <ele>5.4</ele>
        <time>2020-06-02T08:34:06Z</time>
      </trkpt>
      <trkpt lat="46.15896" lon="-1.15388">
        <ele>5.4</ele>
        <time>2020-06-02T08:34:07Z</time>
      </trkpt>
      <trkpt lat="46.15896" lon="-1.15388">
        <ele>5.4</ele>
        <time>2020-06-02T08:34:08Z</time>
      </trkpt>
      <trkpt lat="46.15895" lon="-1.15388">
        <ele>5.3</ele>
        <time>2020-06-02T08:34:09Z</time>
      </trkpt>
      <trkpt lat="46.15894" lon="-1.15389">
        <ele>5.3</ele>
        <time>2020-06-02T08:34:10Z</time>
      </trkpt>
      <trkpt lat="46.15895" lon="-1.1539">
        <ele>5.3</ele>
        <time>2020-06-02T08:34:11Z</time>
      </trkpt>
      <trkpt lat="46.15895" lon="-1.1539">
        <ele>5.3</ele>
        <time>2020-06-02T08:34:12Z</time>
      </trkpt>
      <trkpt lat="46.15895" lon="-1.15389">
        <ele>5.3</ele>
        <time>2020-06-02T08:34:13Z</time>
      </trkpt>
      <trkpt lat="46.15895" lon="-1.15389">
        <ele>5.3</ele>
        <time>2020-06-02T08:34:14Z</time>
      </trkpt>
      <trkpt lat="46.15895" lon="-1.15389">
        <ele>5.3</ele>
        <time>2020-06-02T08:34:15Z</time>
      </trkpt>
      <trkpt lat="46.15895" lon="-1.15389">
        <ele>5.3</ele>
        <time>2020-06-02T08:34:16Z</time>
      </trkpt>
      <trkpt lat="46.15895" lon="-1.15389">
        <ele>5.3</ele>
        <time>2020-06-02T08:34:17Z</time>
      </trkpt>
      <trkpt lat="46.15895" lon="-1.15389">
        <ele>5.3</ele>
        <time>2020-06-02T08:34:18Z</time>
      </trkpt>
      <trkpt lat="46.15895" lon="-1.15389">
        <ele>5.3</ele>
        <time>2020-06-02T08:34:19Z</time>
      </trkpt>
      <trkpt lat="46.15895" lon="-1.15389">
        <ele>5.3</ele>
        <time>2020-06-02T08:34:20Z</time>
      </trkpt>
      <trkpt lat="46.15895" lon="-1.15389">
        <ele>5.3</ele>
        <time>2020-06-02T08:34:21Z</time>
      </trkpt>
      <trkpt lat="46.15895" lon="-1.15389">
        <ele>5.3</ele>
        <time>2020-06-02T08:34:22Z</time>
      </trkpt>
      <trkpt lat="46.15895" lon="-1.15389">
        <ele>5.3</ele>
        <time>2020-06-02T08:34:23Z</time>
      </trkpt>
      <trkpt lat="46.15895" lon="-1.15389">
        <ele>5.3</ele>
        <time>2020-06-02T08:34:24Z</time>
      </trkpt>
      <trkpt lat="46.15895" lon="-1.15389">
        <ele>5.3</ele>
        <time>2020-06-02T08:34:25Z</time>
      </trkpt>
      <trkpt lat="46.15895" lon="-1.15389">
        <ele>5.3</ele>
        <time>2020-06-02T08:34:26Z</time>
      </trkpt>
      <trkpt lat="46.15895" lon="-1.15389">
        <ele>5.3</ele>
        <time>2020-06-02T08:34:27Z</time>
      </trkpt>
      <trkpt lat="46.15895" lon="-1.15389">
        <ele>5.3</ele>
        <time>2020-06-02T08:34:28Z</time>
      </trkpt>
      <trkpt lat="46.15895" lon="-1.15389">
        <ele>5.3</ele>
        <time>2020-06-02T08:34:29Z</time>
      </trkpt>
      <trkpt lat="46.15895" lon="-1.15389">
        <ele>5.3</ele>
        <time>2020-06-02T08:34:30Z</time>
      </trkpt>
      <trkpt lat="46.15895" lon="-1.15389">
        <ele>5.3</ele>
        <time>2020-06-02T08:34:31Z</time>
      </trkpt>
      <trkpt lat="46.15895" lon="-1.15389">
        <ele>5.3</ele>
        <time>2020-06-02T08:34:32Z</time>
      </trkpt>
      <trkpt lat="46.15895" lon="-1.15389">
        <ele>5.3</ele>
        <time>2020-06-02T08:34:33Z</time>
      </trkpt>
      <trkpt lat="46.15895" lon="-1.15389">
        <ele>5.3</ele>
        <time>2020-06-02T08:34:34Z</time>
      </trkpt>
      <trkpt lat="46.15895" lon="-1.15389">
        <ele>5.3</ele>
        <time>2020-06-02T08:34:35Z</time>
      </trkpt>
      <trkpt lat="46.15895" lon="-1.15389">
        <ele>5.3</ele>
        <time>2020-06-02T08:34:36Z</time>
      </trkpt>
      <trkpt lat="46.15895" lon="-1.15389">
        <ele>5.3</ele>
        <time>2020-06-02T08:34:37Z</time>
      </trkpt>
      <trkpt lat="46.15895" lon="-1.15389">
        <ele>5.3</ele>
        <time>2020-06-02T08:34:38Z</time>
      </trkpt>
      <trkpt lat="46.15895" lon="-1.15389">
        <ele>5.3</ele>
        <time>2020-06-02T08:34:39Z</time>
      </trkpt>
      <trkpt lat="46.15895" lon="-1.15389">
        <ele>5.3</ele>
        <time>2020-06-02T08:34:40Z</time>
      </trkpt>
      <trkpt lat="46.15895" lon="-1.15389">
        <ele>5.3</ele>
        <time>2020-06-02T08:34:41Z</time>
      </trkpt>
      <trkpt lat="46.15895" lon="-1.15389">
        <ele>5.3</ele>
        <time>2020-06-02T08:34:42Z</time>
      </trkpt>
      <trkpt lat="46.15895" lon="-1.15389">
        <ele>5.3</ele>
        <time>2020-06-02T08:34:43Z</time>
      </trkpt>
      <trkpt lat="46.15895" lon="-1.15389">
        <ele>5.3</ele>
        <time>2020-06-02T08:34:44Z</time>
      </trkpt>
      <trkpt lat="46.15895" lon="-1.15389">
        <ele>5.3</ele>
        <time>2020-06-02T08:34:45Z</time>
      </trkpt>
      <trkpt lat="46.15895" lon="-1.15389">
        <ele>5.3</ele>
        <time>2020-06-02T08:34:46Z</time>
      </trkpt>
      <trkpt lat="46.15895" lon="-1.15389">
        <ele>5.3</ele>
        <time>2020-06-02T08:34:47Z</time>
      </trkpt>
      <trkpt lat="46.15895" lon="-1.15389">
        <ele>5.3</ele>
        <time>2020-06-02T08:34:48Z</time>
      </trkpt>
      <trkpt lat="46.15895" lon="-1.15389">
        <ele>5.3</ele>
        <time>2020-06-02T08:34:49Z</time>
      </trkpt>
      <trkpt lat="46.15895" lon="-1.15389">
        <ele>5.3</ele>
        <time>2020-06-02T08:34:50Z</time>
      </trkpt>
      <trkpt lat="46.15895" lon="-1.15389">
        <ele>5.3</ele>
        <time>2020-06-02T08:34:51Z</time>
      </trkpt>
      <trkpt lat="46.15895" lon="-1.15389">
        <ele>5.3</ele>
        <time>2020-06-02T08:34:52Z</time>
      </trkpt>
      <trkpt lat="46.15895" lon="-1.15389">
        <ele>5.3</ele>
        <time>2020-06-02T08:34:53Z</time>
      </trkpt>
      <trkpt lat="46.15895" lon="-1.15389">
        <ele>5.3</ele>
        <time>2020-06-02T08:34:54Z</time>
      </trkpt>
      <trkpt lat="46.15895" lon="-1.15389">
        <ele>5.3</ele>
        <time>2020-06-02T08:34:55Z</time>
      </trkpt>
      <trkpt lat="46.15895" lon="-1.15389">
        <ele>5.3</ele>
        <time>2020-06-02T08:34:56Z</time>
      </trkpt>
      <trkpt lat="46.15895" lon="-1.15389">
        <ele>5.3</ele>
        <time>2020-06-02T08:34:57Z</time>
      </trkpt>
      <trkpt lat="46.15895" lon="-1.15389">
        <ele>5.3</ele>
        <time>2020-06-02T08:34:58Z</time>
      </trkpt>
      <trkpt lat="46.15895" lon="-1.15389">
        <ele>5.3</ele>
        <time>2020-06-02T08:34:59Z</time>
      </trkpt>
      <trkpt lat="46.15895" lon="-1.15389">
        <ele>5.3</ele>
        <time>2020-06-02T08:35:00Z</time>
      </trkpt>
      <trkpt lat="46.15895" lon="-1.15389">
        <ele>5.3</ele>
        <time>2020-06-02T08:35:01Z</time>
      </trkpt>
      <trkpt lat="46.15895" lon="-1.15389">
        <ele>5.3</ele>
        <time>2020-06-02T08:35:02Z</time>
      </trkpt>
      <trkpt lat="46.15895" lon="-1.15389">
        <ele>5.3</ele>
        <time>2020-06-02T08:35:03Z</time>
      </trkpt>
      <trkpt lat="46.15895" lon="-1.15389">
        <ele>5.3</ele>
        <time>2020-06-02T08:35:04Z</time>
      </trkpt>
      <trkpt lat="46.15895" lon="-1.15389">
        <ele>5.3</ele>
        <time>2020-06-02T08:35:05Z</time>
      </trkpt>
      <trkpt lat="46.15895" lon="-1.15389">
        <ele>5.3</ele>
        <time>2020-06-02T08:35:06Z</time>
      </trkpt>
      <trkpt lat="46.15895" lon="-1.15389">
        <ele>5.3</ele>
        <time>2020-06-02T08:35:07Z</time>
      </trkpt>
      <trkpt lat="46.15895" lon="-1.15389">
        <ele>5.3</ele>
        <time>2020-06-02T08:35:08Z</time>
      </trkpt>
      <trkpt lat="46.15895" lon="-1.15389">
        <ele>5.3</ele>
        <time>2020-06-02T08:35:09Z</time>
      </trkpt>
      <trkpt lat="46.15895" lon="-1.15389">
        <ele>5.3</ele>
        <time>2020-06-02T08:35:10Z</time>
      </trkpt>
      <trkpt lat="46.15895" lon="-1.15389">
        <ele>5.3</ele>
        <time>2020-06-02T08:35:11Z</time>
      </trkpt>
      <trkpt lat="46.15895" lon="-1.15389">
        <ele>5.3</ele>
        <time>2020-06-02T08:35:12Z</time>
      </trkpt>
      <trkpt lat="46.15895" lon="-1.15389">
        <ele>5.3</ele>
        <time>2020-06-02T08:35:13Z</time>
      </trkpt>
      <trkpt lat="46.15895" lon="-1.15389">
        <ele>5.3</ele>
        <time>2020-06-02T08:35:14Z</time>
      </trkpt>
      <trkpt lat="46.15895" lon="-1.15389">
        <ele>5.3</ele>
        <time>2020-06-02T08:35:15Z</time>
      </trkpt>
      <trkpt lat="46.15895" lon="-1.15389">
        <ele>5.3</ele>
        <time>2020-06-02T08:35:16Z</time>
      </trkpt>
      <trkpt lat="46.15895" lon="-1.15389">
        <ele>5.3</ele>
        <time>2020-06-02T08:35:17Z</time>
      </trkpt>
      <trkpt lat="46.15895" lon="-1.15389">
        <ele>5.3</ele>
        <time>2020-06-02T08:35:18Z</time>
      </trkpt>
      <trkpt lat="46.15895" lon="-1.15389">
        <ele>5.3</ele>
        <time>2020-06-02T08:35:19Z</time>
      </trkpt>
      <trkpt lat="46.15895" lon="-1.15389">
        <ele>5.3</ele>
        <time>2020-06-02T08:35:20Z</time>
      </trkpt>
      <trkpt lat="46.15895" lon="-1.15389">
        <ele>5.3</ele>
        <time>2020-06-02T08:35:21Z</time>
      </trkpt>
      <trkpt lat="46.15895" lon="-1.15389">
        <ele>5.3</ele>
        <time>2020-06-02T08:35:22Z</time>
      </trkpt>
      <trkpt lat="46.15895" lon="-1.15389">
        <ele>5.3</ele>
        <time>2020-06-02T08:35:23Z</time>
      </trkpt>
      <trkpt lat="46.15895" lon="-1.15389">
        <ele>5.3</ele>
        <time>2020-06-02T08:35:24Z</time>
      </trkpt>
      <trkpt lat="46.15895" lon="-1.15389">
        <ele>5.3</ele>
        <time>2020-06-02T08:35:25Z</time>
      </trkpt>
      <trkpt lat="46.15895" lon="-1.15389">
        <ele>5.3</ele>
        <time>2020-06-02T08:35:26Z</time>
      </trkpt>
      <trkpt lat="46.15895" lon="-1.15389">
        <ele>5.3</ele>
        <time>2020-06-02T08:35:27Z</time>
      </trkpt>
      <trkpt lat="46.15895" lon="-1.15389">
        <ele>5.3</ele>
        <time>2020-06-02T08:35:28Z</time>
      </trkpt>
      <trkpt lat="46.15895" lon="-1.15389">
        <ele>5.3</ele>
        <time>2020-06-02T08:35:29Z</time>
      </trkpt>
      <trkpt lat="46.15895" lon="-1.15389">
        <ele>5.3</ele>
        <time>2020-06-02T08:35:30Z</time>
      </trkpt>
      <trkpt lat="46.15895" lon="-1.15389">
        <ele>5.3</ele>
        <time>2020-06-02T08:35:31Z</time>
      </trkpt>
      <trkpt lat="46.15895" lon="-1.15389">
        <ele>5.3</ele>
        <time>2020-06-02T08:35:32Z</time>
      </trkpt>
      <trkpt lat="46.15895" lon="-1.15389">
        <ele>5.3</ele>
        <time>2020-06-02T08:35:33Z</time>
      </trkpt>
      <trkpt lat="46.15895" lon="-1.15389">
        <ele>5.3</ele>
        <time>2020-06-02T08:35:34Z</time>
      </trkpt>
      <trkpt lat="46.15895" lon="-1.15389">
        <ele>5.3</ele>
        <time>2020-06-02T08:35:35Z</time>
      </trkpt>
      <trkpt lat="46.15895" lon="-1.15389">
        <ele>5.3</ele>
        <time>2020-06-02T08:35:36Z</time>
      </trkpt>
      <trkpt lat="46.15895" lon="-1.15389">
        <ele>5.3</ele>
        <time>2020-06-02T08:35:37Z</time>
      </trkpt>
      <trkpt lat="46.15895" lon="-1.15389">
        <ele>5.3</ele>
        <time>2020-06-02T08:35:38Z</time>
      </trkpt>
      <trkpt lat="46.15895" lon="-1.15389">
        <ele>5.3</ele>
        <time>2020-06-02T08:35:39Z</time>
      </trkpt>
      <trkpt lat="46.15895" lon="-1.15389">
        <ele>5.3</ele>
        <time>2020-06-02T08:35:40Z</time>
      </trkpt>
      <trkpt lat="46.15895" lon="-1.15389">
        <ele>5.3</ele>
        <time>2020-06-02T08:35:41Z</time>
      </trkpt>
      <trkpt lat="46.15895" lon="-1.15389">
        <ele>5.3</ele>
        <time>2020-06-02T08:35:42Z</time>
      </trkpt>
      <trkpt lat="46.15895" lon="-1.15389">
        <ele>5.3</ele>
        <time>2020-06-02T08:35:43Z</time>
      </trkpt>
      <trkpt lat="46.15895" lon="-1.15389">
        <ele>5.3</ele>
        <time>2020-06-02T08:35:44Z</time>
      </trkpt>
      <trkpt lat="46.15895" lon="-1.15389">
        <ele>5.3</ele>
        <time>2020-06-02T08:35:45Z</time>
      </trkpt>
      <trkpt lat="46.15895" lon="-1.15389">
        <ele>5.3</ele>
        <time>2020-06-02T08:35:46Z</time>
      </trkpt>
      <trkpt lat="46.15895" lon="-1.15389">
        <ele>5.3</ele>
        <time>2020-06-02T08:35:47Z</time>
      </trkpt>
      <trkpt lat="46.15895" lon="-1.15389">
        <ele>5.3</ele>
        <time>2020-06-02T08:35:48Z</time>
      </trkpt>
      <trkpt lat="46.15895" lon="-1.15389">
        <ele>5.3</ele>
        <time>2020-06-02T08:35:49Z</time>
      </trkpt>
      <trkpt lat="46.15895" lon="-1.15389">
        <ele>5.3</ele>
        <time>2020-06-02T08:35:50Z</time>
      </trkpt>
      <trkpt lat="46.15895" lon="-1.15389">
        <ele>5.3</ele>
        <time>2020-06-02T08:35:51Z</time>
      </trkpt>
      <trkpt lat="46.15895" lon="-1.15389">
        <ele>5.3</ele>
        <time>2020-06-02T08:35:52Z</time>
      </trkpt>
      <trkpt lat="46.15895" lon="-1.15389">
        <ele>5.3</ele>
        <time>2020-06-02T08:35:53Z</time>
      </trkpt>
      <trkpt lat="46.15895" lon="-1.15389">
        <ele>5.3</ele>
        <time>2020-06-02T08:35:54Z</time>
      </trkpt>
      <trkpt lat="46.15895" lon="-1.15389">
        <ele>5.3</ele>
        <time>2020-06-02T08:35:55Z</time>
      </trkpt>
      <trkpt lat="46.15895" lon="-1.15389">
        <ele>5.3</ele>
        <time>2020-06-02T08:35:56Z</time>
      </trkpt>
      <trkpt lat="46.15895" lon="-1.15389">
        <ele>5.3</ele>
        <time>2020-06-02T08:35:57Z</time>
      </trkpt>
      <trkpt lat="46.15895" lon="-1.15389">
        <ele>5.3</ele>
        <time>2020-06-02T08:35:58Z</time>
      </trkpt>
      <trkpt lat="46.15895" lon="-1.15389">
        <ele>5.3</ele>
        <time>2020-06-02T08:35:59Z</time>
      </trkpt>
      <trkpt lat="46.15895" lon="-1.15389">
        <ele>5.3</ele>
        <time>2020-06-02T08:36:00Z</time>
      </trkpt>
      <trkpt lat="46.15895" lon="-1.15389">
        <ele>5.3</ele>
        <time>2020-06-02T08:36:01Z</time>
      </trkpt>
      <trkpt lat="46.15895" lon="-1.15389">
        <ele>5.3</ele>
        <time>2020-06-02T08:36:02Z</time>
      </trkpt>
      <trkpt lat="46.15895" lon="-1.15389">
        <ele>5.3</ele>
        <time>2020-06-02T08:36:03Z</time>
      </trkpt>
      <trkpt lat="46.15895" lon="-1.15389">
        <ele>5.3</ele>
        <time>2020-06-02T08:36:04Z</time>
      </trkpt>
      <trkpt lat="46.15895" lon="-1.15389">
        <ele>5.3</ele>
        <time>2020-06-02T08:36:05Z</time>
      </trkpt>
      <trkpt lat="46.15895" lon="-1.15389">
        <ele>5.3</ele>
        <time>2020-06-02T08:36:06Z</time>
      </trkpt>
      <trkpt lat="46.15895" lon="-1.15389">
        <ele>5.3</ele>
        <time>2020-06-02T08:36:07Z</time>
      </trkpt>
      <trkpt lat="46.15895" lon="-1.15389">
        <ele>5.3</ele>
        <time>2020-06-02T08:36:08Z</time>
      </trkpt>
      <trkpt lat="46.15895" lon="-1.15389">
        <ele>5.3</ele>
        <time>2020-06-02T08:36:09Z</time>
      </trkpt>
      <trkpt lat="46.15895" lon="-1.15389">
        <ele>5.3</ele>
        <time>2020-06-02T08:36:10Z</time>
      </trkpt>
      <trkpt lat="46.15895" lon="-1.15389">
        <ele>5.3</ele>
        <time>2020-06-02T08:36:11Z</time>
      </trkpt>
      <trkpt lat="46.15895" lon="-1.15389">
        <ele>5.3</ele>
        <time>2020-06-02T08:36:12Z</time>
      </trkpt>
      <trkpt lat="46.15895" lon="-1.15389">
        <ele>5.3</ele>
        <time>2020-06-02T08:36:13Z</time>
      </trkpt>
      <trkpt lat="46.15895" lon="-1.15389">
        <ele>5.3</ele>
        <time>2020-06-02T08:36:14Z</time>
      </trkpt>
      <trkpt lat="46.15895" lon="-1.15389">
        <ele>5.3</ele>
        <time>2020-06-02T08:36:15Z</time>
      </trkpt>
      <trkpt lat="46.15895" lon="-1.15389">
        <ele>5.3</ele>
        <time>2020-06-02T08:36:16Z</time>
      </trkpt>
      <trkpt lat="46.15895" lon="-1.15389">
        <ele>5.3</ele>
        <time>2020-06-02T08:36:17Z</time>
      </trkpt>
      <trkpt lat="46.15895" lon="-1.15389">
        <ele>5.3</ele>
        <time>2020-06-02T08:36:18Z</time>
      </trkpt>
      <trkpt lat="46.15895" lon="-1.15389">
        <ele>5.3</ele>
        <time>2020-06-02T08:36:19Z</time>
      </trkpt>
      <trkpt lat="46.15895" lon="-1.15389">
        <ele>5.3</ele>
        <time>2020-06-02T08:36:20Z</time>
      </trkpt>
      <trkpt lat="46.15895" lon="-1.15389">
        <ele>5.3</ele>
        <time>2020-06-02T08:36:21Z</time>
      </trkpt>
      <trkpt lat="46.15895" lon="-1.15389">
        <ele>5.3</ele>
        <time>2020-06-02T08:36:22Z</time>
      </trkpt>
      <trkpt lat="46.15895" lon="-1.15389">
        <ele>5.3</ele>
        <time>2020-06-02T08:36:23Z</time>
      </trkpt>
      <trkpt lat="46.15895" lon="-1.15389">
        <ele>5.3</ele>
        <time>2020-06-02T08:36:24Z</time>
      </trkpt>
      <trkpt lat="46.15895" lon="-1.15389">
        <ele>5.3</ele>
        <time>2020-06-02T08:36:25Z</time>
      </trkpt>
      <trkpt lat="46.15895" lon="-1.15389">
        <ele>5.3</ele>
        <time>2020-06-02T08:36:26Z</time>
      </trkpt>
      <trkpt lat="46.15895" lon="-1.15389">
        <ele>5.3</ele>
        <time>2020-06-02T08:36:27Z</time>
      </trkpt>
      <trkpt lat="46.15895" lon="-1.15389">
        <ele>5.3</ele>
        <time>2020-06-02T08:36:28Z</time>
      </trkpt>
      <trkpt lat="46.15895" lon="-1.15389">
        <ele>5.3</ele>
        <time>2020-06-02T08:36:29Z</time>
      </trkpt>
      <trkpt lat="46.15895" lon="-1.15389">
        <ele>5.3</ele>
        <time>2020-06-02T08:36:30Z</time>
      </trkpt>
      <trkpt lat="46.15895" lon="-1.15389">
        <ele>5.3</ele>
        <time>2020-06-02T08:36:31Z</time>
      </trkpt>
      <trkpt lat="46.15895" lon="-1.15389">
        <ele>5.3</ele>
        <time>2020-06-02T08:36:32Z</time>
      </trkpt>
      <trkpt lat="46.15895" lon="-1.15389">
        <ele>5.3</ele>
        <time>2020-06-02T08:36:33Z</time>
      </trkpt>
      <trkpt lat="46.15895" lon="-1.15389">
        <ele>5.3</ele>
        <time>2020-06-02T08:36:34Z</time>
      </trkpt>
      <trkpt lat="46.15895" lon="-1.15389">
        <ele>5.3</ele>
        <time>2020-06-02T08:36:35Z</time>
      </trkpt>
      <trkpt lat="46.15895" lon="-1.15389">
        <ele>5.3</ele>
        <time>2020-06-02T08:36:36Z</time>
      </trkpt>
      <trkpt lat="46.15895" lon="-1.15389">
        <ele>5.3</ele>
        <time>2020-06-02T08:36:37Z</time>
      </trkpt>
      <trkpt lat="46.15895" lon="-1.15389">
        <ele>5.3</ele>
        <time>2020-06-02T08:36:38Z</time>
      </trkpt>
      <trkpt lat="46.15895" lon="-1.15389">
        <ele>5.3</ele>
        <time>2020-06-02T08:36:39Z</time>
      </trkpt>
      <trkpt lat="46.15895" lon="-1.15389">
        <ele>5.3</ele>
        <time>2020-06-02T08:36:40Z</time>
      </trkpt>
      <trkpt lat="46.15895" lon="-1.15389">
        <ele>5.3</ele>
        <time>2020-06-02T08:36:41Z</time>
      </trkpt>
      <trkpt lat="46.15895" lon="-1.15389">
        <ele>5.3</ele>
        <time>2020-06-02T08:36:42Z</time>
      </trkpt>
      <trkpt lat="46.15895" lon="-1.15389">
        <ele>5.3</ele>
        <time>2020-06-02T08:36:43Z</time>
      </trkpt>
      <trkpt lat="46.15895" lon="-1.15389">
        <ele>5.3</ele>
        <time>2020-06-02T08:36:44Z</time>
      </trkpt>
      <trkpt lat="46.15895" lon="-1.15389">
        <ele>5.3</ele>
        <time>2020-06-02T08:36:45Z</time>
      </trkpt>
      <trkpt lat="46.15895" lon="-1.15389">
        <ele>5.3</ele>
        <time>2020-06-02T08:36:46Z</time>
      </trkpt>
      <trkpt lat="46.15895" lon="-1.15389">
        <ele>5.3</ele>
        <time>2020-06-02T08:36:47Z</time>
      </trkpt>
      <trkpt lat="46.15895" lon="-1.15389">
        <ele>5.3</ele>
        <time>2020-06-02T08:36:48Z</time>
      </trkpt>
      <trkpt lat="46.15895" lon="-1.15389">
        <ele>5.3</ele>
        <time>2020-06-02T08:36:49Z</time>
      </trkpt>
      <trkpt lat="46.15895" lon="-1.15389">
        <ele>5.3</ele>
        <time>2020-06-02T08:36:50Z</time>
      </trkpt>
      <trkpt lat="46.15895" lon="-1.15389">
        <ele>5.3</ele>
        <time>2020-06-02T08:36:51Z</time>
      </trkpt>
      <trkpt lat="46.15895" lon="-1.15389">
        <ele>5.3</ele>
        <time>2020-06-02T08:36:52Z</time>
      </trkpt>
      <trkpt lat="46.15895" lon="-1.15389">
        <ele>5.3</ele>
        <time>2020-06-02T08:36:53Z</time>
      </trkpt>
      <trkpt lat="46.15895" lon="-1.15389">
        <ele>5.3</ele>
        <time>2020-06-02T08:36:54Z</time>
      </trkpt>
      <trkpt lat="46.15895" lon="-1.15389">
        <ele>5.3</ele>
        <time>2020-06-02T08:36:55Z</time>
      </trkpt>
      <trkpt lat="46.15895" lon="-1.15389">
        <ele>5.3</ele>
        <time>2020-06-02T08:36:56Z</time>
      </trkpt>
      <trkpt lat="46.15895" lon="-1.15389">
        <ele>5.3</ele>
        <time>2020-06-02T08:36:57Z</time>
      </trkpt>
      <trkpt lat="46.15895" lon="-1.15389">
        <ele>5.3</ele>
        <time>2020-06-02T08:36:58Z</time>
      </trkpt>
      <trkpt lat="46.15895" lon="-1.15389">
        <ele>5.3</ele>
        <time>2020-06-02T08:36:59Z</time>
      </trkpt>
      <trkpt lat="46.15895" lon="-1.15389">
        <ele>5.3</ele>
        <time>2020-06-02T08:37:00Z</time>
      </trkpt>
      <trkpt lat="46.15895" lon="-1.15389">
        <ele>5.3</ele>
        <time>2020-06-02T08:37:01Z</time>
      </trkpt>
      <trkpt lat="46.15895" lon="-1.15389">
        <ele>5.3</ele>
        <time>2020-06-02T08:37:02Z</time>
      </trkpt>
      <trkpt lat="46.15895" lon="-1.15389">
        <ele>5.3</ele>
        <time>2020-06-02T08:37:03Z</time>
      </trkpt>
      <trkpt lat="46.15895" lon="-1.15389">
        <ele>5.3</ele>
        <time>2020-06-02T08:37:04Z</time>
      </trkpt>
      <trkpt lat="46.15895" lon="-1.15389">
        <ele>5.3</ele>
        <time>2020-06-02T08:37:05Z</time>
      </trkpt>
      <trkpt lat="46.15895" lon="-1.15389">
        <ele>5.3</ele>
        <time>2020-06-02T08:37:06Z</time>
      </trkpt>
      <trkpt lat="46.15895" lon="-1.15389">
        <ele>5.3</ele>
        <time>2020-06-02T08:37:07Z</time>
      </trkpt>
      <trkpt lat="46.15895" lon="-1.15389">
        <ele>5.3</ele>
        <time>2020-06-02T08:37:08Z</time>
      </trkpt>
      <trkpt lat="46.15895" lon="-1.15389">
        <ele>5.3</ele>
        <time>2020-06-02T08:37:09Z</time>
      </trkpt>
      <trkpt lat="46.15895" lon="-1.15389">
        <ele>5.3</ele>
        <time>2020-06-02T08:37:10Z</time>
      </trkpt>
      <trkpt lat="46.15895" lon="-1.15389">
        <ele>5.3</ele>
        <time>2020-06-02T08:37:11Z</time>
      </trkpt>
      <trkpt lat="46.15895" lon="-1.15389">
        <ele>5.3</ele>
        <time>2020-06-02T08:37:12Z</time>
      </trkpt>
      <trkpt lat="46.15895" lon="-1.15389">
        <ele>5.3</ele>
        <time>2020-06-02T08:37:13Z</time>
      </trkpt>
      <trkpt lat="46.15895" lon="-1.15389">
        <ele>5.3</ele>
        <time>2020-06-02T08:37:14Z</time>
      </trkpt>
      <trkpt lat="46.15895" lon="-1.15389">
        <ele>5.3</ele>
        <time>2020-06-02T08:37:15Z</time>
      </trkpt>
      <trkpt lat="46.15895" lon="-1.15389">
        <ele>5.3</ele>
        <time>2020-06-02T08:37:16Z</time>
      </trkpt>
      <trkpt lat="46.15895" lon="-1.15389">
        <ele>5.3</ele>
        <time>2020-06-02T08:37:17Z</time>
      </trkpt>
      <trkpt lat="46.15895" lon="-1.15389">
        <ele>5.3</ele>
        <time>2020-06-02T08:37:18Z</time>
      </trkpt>
      <trkpt lat="46.15895" lon="-1.15389">
        <ele>5.3</ele>
        <time>2020-06-02T08:37:19Z</time>
      </trkpt>
      <trkpt lat="46.15895" lon="-1.15389">
        <ele>5.3</ele>
        <time>2020-06-02T08:37:20Z</time>
      </trkpt>
      <trkpt lat="46.15895" lon="-1.15389">
        <ele>5.3</ele>
        <time>2020-06-02T08:37:21Z</time>
      </trkpt>
      <trkpt lat="46.15895" lon="-1.15389">
        <ele>5.3</ele>
        <time>2020-06-02T08:37:22Z</time>
      </trkpt>
      <trkpt lat="46.15895" lon="-1.15389">
        <ele>5.3</ele>
        <time>2020-06-02T08:37:23Z</time>
      </trkpt>
      <trkpt lat="46.15895" lon="-1.15389">
        <ele>5.3</ele>
        <time>2020-06-02T08:37:24Z</time>
      </trkpt>
      <trkpt lat="46.15895" lon="-1.15389">
        <ele>5.3</ele>
        <time>2020-06-02T08:37:25Z</time>
      </trkpt>
      <trkpt lat="46.15895" lon="-1.15389">
        <ele>5.3</ele>
        <time>2020-06-02T08:37:26Z</time>
      </trkpt>
      <trkpt lat="46.15895" lon="-1.15389">
        <ele>5.3</ele>
        <time>2020-06-02T08:37:27Z</time>
      </trkpt>
      <trkpt lat="46.15895" lon="-1.15389">
        <ele>5.3</ele>
        <time>2020-06-02T08:37:28Z</time>
      </trkpt>
      <trkpt lat="46.15895" lon="-1.15389">
        <ele>5.3</ele>
        <time>2020-06-02T08:37:29Z</time>
      </trkpt>
      <trkpt lat="46.15895" lon="-1.15389">
        <ele>5.3</ele>
        <time>2020-06-02T08:37:30Z</time>
      </trkpt>
      <trkpt lat="46.15895" lon="-1.15389">
        <ele>5.3</ele>
        <time>2020-06-02T08:37:31Z</time>
      </trkpt>
      <trkpt lat="46.15895" lon="-1.15389">
        <ele>5.3</ele>
        <time>2020-06-02T08:37:32Z</time>
      </trkpt>
      <trkpt lat="46.15895" lon="-1.15389">
        <ele>5.3</ele>
        <time>2020-06-02T08:37:33Z</time>
      </trkpt>
      <trkpt lat="46.15895" lon="-1.15389">
        <ele>5.3</ele>
        <time>2020-06-02T08:37:34Z</time>
      </trkpt>
      <trkpt lat="46.15895" lon="-1.15389">
        <ele>5.3</ele>
        <time>2020-06-02T08:37:35Z</time>
      </trkpt>
      <trkpt lat="46.15895" lon="-1.15389">
        <ele>5.3</ele>
        <time>2020-06-02T08:37:36Z</time>
      </trkpt>
      <trkpt lat="46.15895" lon="-1.15389">
        <ele>5.3</ele>
        <time>2020-06-02T08:37:37Z</time>
      </trkpt>
      <trkpt lat="46.15895" lon="-1.15389">
        <ele>5.3</ele>
        <time>2020-06-02T08:37:38Z</time>
      </trkpt>
      <trkpt lat="46.15895" lon="-1.15389">
        <ele>5.3</ele>
        <time>2020-06-02T08:37:39Z</time>
      </trkpt>
      <trkpt lat="46.15895" lon="-1.15389">
        <ele>5.3</ele>
        <time>2020-06-02T08:37:40Z</time>
      </trkpt>
      <trkpt lat="46.15895" lon="-1.15389">
        <ele>5.3</ele>
        <time>2020-06-02T08:37:41Z</time>
      </trkpt>
      <trkpt lat="46.15895" lon="-1.15389">
        <ele>5.3</ele>
        <time>2020-06-02T08:37:42Z</time>
      </trkpt>
      <trkpt lat="46.15892" lon="-1.15387">
        <ele>5.3</ele>
        <time>2020-06-02T08:37:43Z</time>
      </trkpt>
      <trkpt lat="46.15892" lon="-1.15387">
        <ele>5.3</ele>
        <time>2020-06-02T08:37:44Z</time>
      </trkpt>
      <trkpt lat="46.15892" lon="-1.15387">
        <ele>5.3</ele>
        <time>2020-06-02T08:37:45Z</time>
      </trkpt>
      <trkpt lat="46.15892" lon="-1.15387">
        <ele>5.3</ele>
        <time>2020-06-02T08:37:46Z</time>
      </trkpt>
      <trkpt lat="46.15892" lon="-1.15387">
        <ele>5.3</ele>
        <time>2020-06-02T08:37:47Z</time>
      </trkpt>
      <trkpt lat="46.15892" lon="-1.15387">
        <ele>5.3</ele>
        <time>2020-06-02T08:37:48Z</time>
      </trkpt>
      <trkpt lat="46.15892" lon="-1.15387">
        <ele>5.3</ele>
        <time>2020-06-02T08:37:49Z</time>
      </trkpt>
      <trkpt lat="46.15892" lon="-1.15387">
        <ele>5.3</ele>
        <time>2020-06-02T08:37:50Z</time>
      </trkpt>
      <trkpt lat="46.15892" lon="-1.15387">
        <ele>5.3</ele>
        <time>2020-06-02T08:37:51Z</time>
      </trkpt>
      <trkpt lat="46.15892" lon="-1.15387">
        <ele>5.3</ele>
        <time>2020-06-02T08:37:52Z</time>
      </trkpt>
      <trkpt lat="46.15892" lon="-1.15387">
        <ele>5.3</ele>
        <time>2020-06-02T08:37:53Z</time>
      </trkpt>
      <trkpt lat="46.15893" lon="-1.15387">
        <ele>5.3</ele>
        <time>2020-06-02T08:37:54Z</time>
      </trkpt>
      <trkpt lat="46.15892" lon="-1.15387">
        <ele>5.3</ele>
        <time>2020-06-02T08:37:55Z</time>
      </trkpt>
      <trkpt lat="46.15892" lon="-1.15387">
        <ele>5.3</ele>
        <time>2020-06-02T08:37:56Z</time>
      </trkpt>
      <trkpt lat="46.15893" lon="-1.15387">
        <ele>5.3</ele>
        <time>2020-06-02T08:37:57Z</time>
      </trkpt>
      <trkpt lat="46.15892" lon="-1.15387">
        <ele>5.2</ele>
        <time>2020-06-02T08:37:58Z</time>
      </trkpt>
      <trkpt lat="46.15892" lon="-1.15387">
        <ele>5.2</ele>
        <time>2020-06-02T08:37:59Z</time>
      </trkpt>
      <trkpt lat="46.15892" lon="-1.15387">
        <ele>5.2</ele>
        <time>2020-06-02T08:38:00Z</time>
      </trkpt>
      <trkpt lat="46.15892" lon="-1.15387">
        <ele>5.2</ele>
        <time>2020-06-02T08:38:01Z</time>
      </trkpt>
      <trkpt lat="46.15892" lon="-1.15387">
        <ele>5.2</ele>
        <time>2020-06-02T08:38:02Z</time>
      </trkpt>
      <trkpt lat="46.15892" lon="-1.15387">
        <ele>5.2</ele>
        <time>2020-06-02T08:38:03Z</time>
      </trkpt>
      <trkpt lat="46.15892" lon="-1.15387">
        <ele>5.2</ele>
        <time>2020-06-02T08:38:04Z</time>
      </trkpt>
      <trkpt lat="46.15892" lon="-1.15387">
        <ele>5.2</ele>
        <time>2020-06-02T08:38:05Z</time>
      </trkpt>
      <trkpt lat="46.15892" lon="-1.15387">
        <ele>5.2</ele>
        <time>2020-06-02T08:38:06Z</time>
      </trkpt>
      <trkpt lat="46.15892" lon="-1.15387">
        <ele>5.2</ele>
        <time>2020-06-02T08:38:07Z</time>
      </trkpt>
      <trkpt lat="46.15892" lon="-1.15387">
        <ele>5.2</ele>
        <time>2020-06-02T08:38:08Z</time>
      </trkpt>
      <trkpt lat="46.15892" lon="-1.15387">
        <ele>5.2</ele>
        <time>2020-06-02T08:38:09Z</time>
      </trkpt>
      <trkpt lat="46.15892" lon="-1.15387">
        <ele>5.2</ele>
        <time>2020-06-02T08:38:10Z</time>
      </trkpt>
      <trkpt lat="46.15892" lon="-1.15387">
        <ele>5.2</ele>
        <time>2020-06-02T08:38:11Z</time>
      </trkpt>
      <trkpt lat="46.15892" lon="-1.15387">
        <ele>5.2</ele>
        <time>2020-06-02T08:38:12Z</time>
      </trkpt>
      <trkpt lat="46.15893" lon="-1.15387">
        <ele>5.2</ele>
        <time>2020-06-02T08:38:13Z</time>
      </trkpt>
      <trkpt lat="46.15892" lon="-1.15387">
        <ele>5.2</ele>
        <time>2020-06-02T08:38:14Z</time>
      </trkpt>
      <trkpt lat="46.15892" lon="-1.15387">
        <ele>5.2</ele>
        <time>2020-06-02T08:38:15Z</time>
      </trkpt>
      <trkpt lat="46.15892" lon="-1.15386">
        <ele>5.2</ele>
        <time>2020-06-02T08:38:16Z</time>
      </trkpt>
      <trkpt lat="46.15893" lon="-1.15386">
        <ele>5.2</ele>
        <time>2020-06-02T08:38:17Z</time>
      </trkpt>
      <trkpt lat="46.15893" lon="-1.15386">
        <ele>5.2</ele>
        <time>2020-06-02T08:38:18Z</time>
      </trkpt>
      <trkpt lat="46.15893" lon="-1.15386">
        <ele>5.2</ele>
        <time>2020-06-02T08:38:19Z</time>
      </trkpt>
      <trkpt lat="46.15893" lon="-1.15387">
        <ele>5.2</ele>
        <time>2020-06-02T08:38:20Z</time>
      </trkpt>
      <trkpt lat="46.15892" lon="-1.15388">
        <ele>5.2</ele>
        <time>2020-06-02T08:38:21Z</time>
      </trkpt>
      <trkpt lat="46.15892" lon="-1.15388">
        <ele>5.2</ele>
        <time>2020-06-02T08:38:22Z</time>
      </trkpt>
      <trkpt lat="46.15891" lon="-1.15387">
        <ele>5.2</ele>
        <time>2020-06-02T08:38:23Z</time>
      </trkpt>
      <trkpt lat="46.15889" lon="-1.15388">
        <ele>5.2</ele>
        <time>2020-06-02T08:38:24Z</time>
      </trkpt>
      <trkpt lat="46.15887" lon="-1.15388">
        <ele>5.1</ele>
        <time>2020-06-02T08:38:25Z</time>
      </trkpt>
      <trkpt lat="46.15886" lon="-1.15388">
        <ele>5.1</ele>
        <time>2020-06-02T08:38:26Z</time>
      </trkpt>
      <trkpt lat="46.15885" lon="-1.15388">
        <ele>5.1</ele>
        <time>2020-06-02T08:38:27Z</time>
      </trkpt>
      <trkpt lat="46.15882" lon="-1.15391">
        <ele>5.1</ele>
        <time>2020-06-02T08:38:28Z</time>
      </trkpt>
      <trkpt lat="46.15881" lon="-1.15392">
        <ele>5.1</ele>
        <time>2020-06-02T08:38:29Z</time>
      </trkpt>
      <trkpt lat="46.15877" lon="-1.15391">
        <ele>5</ele>
        <time>2020-06-02T08:38:30Z</time>
      </trkpt>
      <trkpt lat="46.15876" lon="-1.15391">
        <ele>5</ele>
        <time>2020-06-02T08:38:31Z</time>
      </trkpt>
      <trkpt lat="46.15873" lon="-1.15392">
        <ele>5</ele>
        <time>2020-06-02T08:38:32Z</time>
      </trkpt>
      <trkpt lat="46.15869" lon="-1.15392">
        <ele>5</ele>
        <time>2020-06-02T08:38:33Z</time>
      </trkpt>
      <trkpt lat="46.15866" lon="-1.15392">
        <ele>5</ele>
        <time>2020-06-02T08:38:34Z</time>
      </trkpt>
      <trkpt lat="46.15863" lon="-1.15393">
        <ele>5</ele>
        <time>2020-06-02T08:38:35Z</time>
      </trkpt>
      <trkpt lat="46.1586" lon="-1.15393">
        <ele>4.9</ele>
        <time>2020-06-02T08:38:36Z</time>
      </trkpt>
      <trkpt lat="46.15857" lon="-1.15393">
        <ele>4.9</ele>
        <time>2020-06-02T08:38:37Z</time>
      </trkpt>
      <trkpt lat="46.15855" lon="-1.15393">
        <ele>4.9</ele>
        <time>2020-06-02T08:38:38Z</time>
      </trkpt>
      <trkpt lat="46.15852" lon="-1.15395">
        <ele>4.9</ele>
        <time>2020-06-02T08:38:39Z</time>
      </trkpt>
      <trkpt lat="46.15852" lon="-1.15395">
        <ele>4.9</ele>
        <time>2020-06-02T08:38:40Z</time>
      </trkpt>
      <trkpt lat="46.15849" lon="-1.15397">
        <ele>4.9</ele>
        <time>2020-06-02T08:38:41Z</time>
      </trkpt>
      <trkpt lat="46.15848" lon="-1.15397">
        <ele>4.9</ele>
        <time>2020-06-02T08:38:42Z</time>
      </trkpt>
      <trkpt lat="46.15847" lon="-1.15398">
        <ele>4.9</ele>
        <time>2020-06-02T08:38:43Z</time>
      </trkpt>
      <trkpt lat="46.15846" lon="-1.15398">
        <ele>4.9</ele>
        <time>2020-06-02T08:38:44Z</time>
      </trkpt>
      <trkpt lat="46.15845" lon="-1.15398">
        <ele>4.9</ele>
        <time>2020-06-02T08:38:45Z</time>
      </trkpt>
      <trkpt lat="46.15844" lon="-1.15394">
        <ele>4.9</ele>
        <time>2020-06-02T08:38:46Z</time>
      </trkpt>
      <trkpt lat="46.15844" lon="-1.15392">
        <ele>4.9</ele>
        <time>2020-06-02T08:38:47Z</time>
      </trkpt>
      <trkpt lat="46.15844" lon="-1.1539">
        <ele>4.9</ele>
        <time>2020-06-02T08:38:48Z</time>
      </trkpt>
      <trkpt lat="46.15844" lon="-1.15389">
        <ele>4.9</ele>
        <time>2020-06-02T08:38:49Z</time>
      </trkpt>
      <trkpt lat="46.15843" lon="-1.15389">
        <ele>4.9</ele>
        <time>2020-06-02T08:38:50Z</time>
      </trkpt>
      <trkpt lat="46.15843" lon="-1.15389">
        <ele>4.9</ele>
        <time>2020-06-02T08:38:51Z</time>
      </trkpt>
      <trkpt lat="46.15842" lon="-1.15389">
        <ele>4.9</ele>
        <time>2020-06-02T08:38:52Z</time>
      </trkpt>
      <trkpt lat="46.15842" lon="-1.15388">
        <ele>4.9</ele>
        <time>2020-06-02T08:38:53Z</time>
      </trkpt>
      <trkpt lat="46.15842" lon="-1.15388">
        <ele>4.9</ele>
        <time>2020-06-02T08:38:54Z</time>
      </trkpt>
      <trkpt lat="46.15842" lon="-1.15388">
        <ele>4.9</ele>
        <time>2020-06-02T08:38:55Z</time>
      </trkpt>
      <trkpt lat="46.15842" lon="-1.15388">
        <ele>4.9</ele>
        <time>2020-06-02T08:38:56Z</time>
      </trkpt>
      <trkpt lat="46.15843" lon="-1.15387">
        <ele>4.9</ele>
        <time>2020-06-02T08:38:57Z</time>
      </trkpt>
      <trkpt lat="46.15843" lon="-1.15387">
        <ele>4.9</ele>
        <time>2020-06-02T08:38:58Z</time>
      </trkpt>
      <trkpt lat="46.15843" lon="-1.15386">
        <ele>4.9</ele>
        <time>2020-06-02T08:38:59Z</time>
      </trkpt>
      <trkpt lat="46.15843" lon="-1.15386">
        <ele>4.9</ele>
        <time>2020-06-02T08:39:00Z</time>
      </trkpt>
      <trkpt lat="46.15843" lon="-1.15386">
        <ele>4.9</ele>
        <time>2020-06-02T08:39:01Z</time>
      </trkpt>
      <trkpt lat="46.15843" lon="-1.15386">
        <ele>4.9</ele>
        <time>2020-06-02T08:39:02Z</time>
      </trkpt>
      <trkpt lat="46.15844" lon="-1.15385">
        <ele>4.9</ele>
        <time>2020-06-02T08:39:03Z</time>
      </trkpt>
      <trkpt lat="46.15843" lon="-1.15385">
        <ele>4.9</ele>
        <time>2020-06-02T08:39:04Z</time>
      </trkpt>
      <trkpt lat="46.15843" lon="-1.15386">
        <ele>4.9</ele>
        <time>2020-06-02T08:39:05Z</time>
      </trkpt>
      <trkpt lat="46.15841" lon="-1.15386">
        <ele>4.9</ele>
        <time>2020-06-02T08:39:06Z</time>
      </trkpt>
      <trkpt lat="46.1584" lon="-1.15385">
        <ele>4.9</ele>
        <time>2020-06-02T08:39:07Z</time>
      </trkpt>
      <trkpt lat="46.15841" lon="-1.15384">
        <ele>4.9</ele>
        <time>2020-06-02T08:39:08Z</time>
      </trkpt>
      <trkpt lat="46.1584" lon="-1.15385">
        <ele>4.9</ele>
        <time>2020-06-02T08:39:09Z</time>
      </trkpt>
      <trkpt lat="46.1584" lon="-1.15386">
        <ele>4.9</ele>
        <time>2020-06-02T08:39:10Z</time>
      </trkpt>
      <trkpt lat="46.15839" lon="-1.15388">
        <ele>4.9</ele>
        <time>2020-06-02T08:39:11Z</time>
      </trkpt>
      <trkpt lat="46.15839" lon="-1.15388">
        <ele>4.9</ele>
        <time>2020-06-02T08:39:12Z</time>
      </trkpt>
      <trkpt lat="46.15839" lon="-1.15388">
        <ele>4.9</ele>
        <time>2020-06-02T08:39:13Z</time>
      </trkpt>
      <trkpt lat="46.15839" lon="-1.15388">
        <ele>4.9</ele>
        <time>2020-06-02T08:39:14Z</time>
      </trkpt>
      <trkpt lat="46.15839" lon="-1.15388">
        <ele>4.9</ele>
        <time>2020-06-02T08:39:15Z</time>
      </trkpt>
      <trkpt lat="46.15839" lon="-1.15388">
        <ele>4.9</ele>
        <time>2020-06-02T08:39:16Z</time>
      </trkpt>
      <trkpt lat="46.15839" lon="-1.15388">
        <ele>4.9</ele>
        <time>2020-06-02T08:39:17Z</time>
      </trkpt>
      <trkpt lat="46.15839" lon="-1.15388">
        <ele>4.9</ele>
        <time>2020-06-02T08:39:18Z</time>
      </trkpt>
      <trkpt lat="46.1584" lon="-1.15388">
        <ele>4.9</ele>
        <time>2020-06-02T08:39:19Z</time>
      </trkpt>
      <trkpt lat="46.1584" lon="-1.15389">
        <ele>4.9</ele>
        <time>2020-06-02T08:39:20Z</time>
      </trkpt>
      <trkpt lat="46.1584" lon="-1.15389">
        <ele>4.9</ele>
        <time>2020-06-02T08:39:21Z</time>
      </trkpt>
      <trkpt lat="46.1584" lon="-1.1539">
        <ele>4.9</ele>
        <time>2020-06-02T08:39:22Z</time>
      </trkpt>
      <trkpt lat="46.15839" lon="-1.15391">
        <ele>4.9</ele>
        <time>2020-06-02T08:39:23Z</time>
      </trkpt>
      <trkpt lat="46.15839" lon="-1.1539">
        <ele>4.9</ele>
        <time>2020-06-02T08:39:24Z</time>
      </trkpt>
      <trkpt lat="46.15838" lon="-1.15389">
        <ele>4.8</ele>
        <time>2020-06-02T08:39:25Z</time>
      </trkpt>
      <trkpt lat="46.15837" lon="-1.15388">
        <ele>4.8</ele>
        <time>2020-06-02T08:39:26Z</time>
      </trkpt>
      <trkpt lat="46.15834" lon="-1.15388">
        <ele>4.8</ele>
        <time>2020-06-02T08:39:27Z</time>
      </trkpt>
      <trkpt lat="46.15833" lon="-1.15387">
        <ele>4.8</ele>
        <time>2020-06-02T08:39:28Z</time>
      </trkpt>
      <trkpt lat="46.15832" lon="-1.15386">
        <ele>4.8</ele>
        <time>2020-06-02T08:39:29Z</time>
      </trkpt>
      <trkpt lat="46.15829" lon="-1.15385">
        <ele>4.8</ele>
        <time>2020-06-02T08:39:30Z</time>
      </trkpt>
      <trkpt lat="46.15829" lon="-1.15384">
        <ele>4.8</ele>
        <time>2020-06-02T08:39:31Z</time>
      </trkpt>
      <trkpt lat="46.15825" lon="-1.15382">
        <ele>4.8</ele>
        <time>2020-06-02T08:39:32Z</time>
      </trkpt>
      <trkpt lat="46.15824" lon="-1.1538">
        <ele>4.8</ele>
        <time>2020-06-02T08:39:33Z</time>
      </trkpt>
      <trkpt lat="46.15821" lon="-1.15377">
        <ele>4.8</ele>
        <time>2020-06-02T08:39:34Z</time>
      </trkpt>
      <trkpt lat="46.15819" lon="-1.15374">
        <ele>4.7</ele>
        <time>2020-06-02T08:39:35Z</time>
      </trkpt>
      <trkpt lat="46.15816" lon="-1.15371">
        <ele>4.7</ele>
        <time>2020-06-02T08:39:36Z</time>
      </trkpt>
      <trkpt lat="46.15813" lon="-1.1537">
        <ele>4.7</ele>
        <time>2020-06-02T08:39:37Z</time>
      </trkpt>
      <trkpt lat="46.15812" lon="-1.1537">
        <ele>4.7</ele>
        <time>2020-06-02T08:39:38Z</time>
      </trkpt>
      <trkpt lat="46.15811" lon="-1.1537">
        <ele>4.7</ele>
        <time>2020-06-02T08:39:39Z</time>
      </trkpt>
      <trkpt lat="46.15811" lon="-1.15369">
        <ele>4.7</ele>
        <time>2020-06-02T08:39:40Z</time>
      </trkpt>
      <trkpt lat="46.15811" lon="-1.15368">
        <ele>4.7</ele>
        <time>2020-06-02T08:39:41Z</time>
      </trkpt>
      <trkpt lat="46.15811" lon="-1.15367">
        <ele>4.7</ele>
        <time>2020-06-02T08:39:42Z</time>
      </trkpt>
      <trkpt lat="46.15811" lon="-1.15367">
        <ele>4.7</ele>
        <time>2020-06-02T08:39:43Z</time>
      </trkpt>
      <trkpt lat="46.15811" lon="-1.15367">
        <ele>4.7</ele>
        <time>2020-06-02T08:39:44Z</time>
      </trkpt>
      <trkpt lat="46.1581" lon="-1.15366">
        <ele>4.7</ele>
        <time>2020-06-02T08:39:45Z</time>
      </trkpt>
      <trkpt lat="46.1581" lon="-1.15366">
        <ele>4.7</ele>
        <time>2020-06-02T08:39:46Z</time>
      </trkpt>
      <trkpt lat="46.1581" lon="-1.15366">
        <ele>4.7</ele>
        <time>2020-06-02T08:39:47Z</time>
      </trkpt>
      <trkpt lat="46.1581" lon="-1.15368">
        <ele>4.7</ele>
        <time>2020-06-02T08:39:48Z</time>
      </trkpt>
      <trkpt lat="46.15811" lon="-1.15369">
        <ele>4.7</ele>
        <time>2020-06-02T08:39:49Z</time>
      </trkpt>
      <trkpt lat="46.15812" lon="-1.15371">
        <ele>4.7</ele>
        <time>2020-06-02T08:39:50Z</time>
      </trkpt>
      <trkpt lat="46.15812" lon="-1.15371">
        <ele>4.7</ele>
        <time>2020-06-02T08:39:51Z</time>
      </trkpt>
      <trkpt lat="46.15814" lon="-1.15369">
        <ele>4.7</ele>
        <time>2020-06-02T08:39:52Z</time>
      </trkpt>
      <trkpt lat="46.15815" lon="-1.15364">
        <ele>4.7</ele>
        <time>2020-06-02T08:39:53Z</time>
      </trkpt>
      <trkpt lat="46.15815" lon="-1.15362">
        <ele>4.7</ele>
        <time>2020-06-02T08:39:54Z</time>
      </trkpt>
      <trkpt lat="46.15815" lon="-1.15359">
        <ele>4.7</ele>
        <time>2020-06-02T08:39:55Z</time>
      </trkpt>
      <trkpt lat="46.15815" lon="-1.15357">
        <ele>4.8</ele>
        <time>2020-06-02T08:39:56Z</time>
      </trkpt>
      <trkpt lat="46.15814" lon="-1.15352">
        <ele>4.8</ele>
        <time>2020-06-02T08:39:57Z</time>
      </trkpt>
      <trkpt lat="46.15813" lon="-1.15351">
        <ele>4.8</ele>
        <time>2020-06-02T08:39:58Z</time>
      </trkpt>
      <trkpt lat="46.15814" lon="-1.15347">
        <ele>4.8</ele>
        <time>2020-06-02T08:39:59Z</time>
      </trkpt>
      <trkpt lat="46.15815" lon="-1.15343">
        <ele>4.9</ele>
        <time>2020-06-02T08:40:00Z</time>
      </trkpt>
      <trkpt lat="46.15814" lon="-1.15337">
        <ele>4.9</ele>
        <time>2020-06-02T08:40:01Z</time>
      </trkpt>
      <trkpt lat="46.15815" lon="-1.15331">
        <ele>4.9</ele>
        <time>2020-06-02T08:40:02Z</time>
      </trkpt>
      <trkpt lat="46.15814" lon="-1.15325">
        <ele>4.9</ele>
        <time>2020-06-02T08:40:03Z</time>
      </trkpt>
      <trkpt lat="46.15815" lon="-1.1532">
        <ele>4.9</ele>
        <time>2020-06-02T08:40:04Z</time>
      </trkpt>
      <trkpt lat="46.15814" lon="-1.15316">
        <ele>4.9</ele>
        <time>2020-06-02T08:40:05Z</time>
      </trkpt>
      <trkpt lat="46.15814" lon="-1.15311">
        <ele>5</ele>
        <time>2020-06-02T08:40:06Z</time>
      </trkpt>
      <trkpt lat="46.15814" lon="-1.15305">
        <ele>5</ele>
        <time>2020-06-02T08:40:07Z</time>
      </trkpt>
      <trkpt lat="46.15814" lon="-1.153">
        <ele>5</ele>
        <time>2020-06-02T08:40:08Z</time>
      </trkpt>
      <trkpt lat="46.15814" lon="-1.15298">
        <ele>4.9</ele>
        <time>2020-06-02T08:40:09Z</time>
      </trkpt>
      <trkpt lat="46.15814" lon="-1.15294">
        <ele>4.9</ele>
        <time>2020-06-02T08:40:10Z</time>
      </trkpt>
      <trkpt lat="46.15814" lon="-1.15288">
        <ele>4.9</ele>
        <time>2020-06-02T08:40:11Z</time>
      </trkpt>
      <trkpt lat="46.15814" lon="-1.15283">
        <ele>4.9</ele>
        <time>2020-06-02T08:40:12Z</time>
      </trkpt>
      <trkpt lat="46.15814" lon="-1.15279">
        <ele>4.9</ele>
        <time>2020-06-02T08:40:13Z</time>
      </trkpt>
      <trkpt lat="46.15814" lon="-1.15275">
        <ele>4.8</ele>
        <time>2020-06-02T08:40:14Z</time>
      </trkpt>
      <trkpt lat="46.15814" lon="-1.15273">
        <ele>4.8</ele>
        <time>2020-06-02T08:40:15Z</time>
      </trkpt>
      <trkpt lat="46.15814" lon="-1.15267">
        <ele>4.8</ele>
        <time>2020-06-02T08:40:16Z</time>
      </trkpt>
      <trkpt lat="46.15814" lon="-1.15265">
        <ele>4.8</ele>
        <time>2020-06-02T08:40:17Z</time>
      </trkpt>
      <trkpt lat="46.15814" lon="-1.15259">
        <ele>4.8</ele>
        <time>2020-06-02T08:40:18Z</time>
      </trkpt>
      <trkpt lat="46.15814" lon="-1.15256">
        <ele>4.8</ele>
        <time>2020-06-02T08:40:19Z</time>
      </trkpt>
      <trkpt lat="46.15814" lon="-1.15252">
        <ele>4.8</ele>
        <time>2020-06-02T08:40:20Z</time>
      </trkpt>
      <trkpt lat="46.15814" lon="-1.1525">
        <ele>4.8</ele>
        <time>2020-06-02T08:40:21Z</time>
      </trkpt>
      <trkpt lat="46.15814" lon="-1.15248">
        <ele>4.8</ele>
        <time>2020-06-02T08:40:22Z</time>
      </trkpt>
      <trkpt lat="46.15814" lon="-1.15246">
        <ele>4.8</ele>
        <time>2020-06-02T08:40:23Z</time>
      </trkpt>
      <trkpt lat="46.15815" lon="-1.15245">
        <ele>4.8</ele>
        <time>2020-06-02T08:40:24Z</time>
      </trkpt>
      <trkpt lat="46.15816" lon="-1.15246">
        <ele>4.8</ele>
        <time>2020-06-02T08:40:25Z</time>
      </trkpt>
      <trkpt lat="46.15816" lon="-1.15247">
        <ele>4.8</ele>
        <time>2020-06-02T08:40:26Z</time>
      </trkpt>
      <trkpt lat="46.15818" lon="-1.1525">
        <ele>4.8</ele>
        <time>2020-06-02T08:40:27Z</time>
      </trkpt>
      <trkpt lat="46.15819" lon="-1.15249">
        <ele>4.8</ele>
        <time>2020-06-02T08:40:28Z</time>
      </trkpt>
      <trkpt lat="46.15818" lon="-1.15248">
        <ele>4.8</ele>
        <time>2020-06-02T08:40:29Z</time>
      </trkpt>
      <trkpt lat="46.15817" lon="-1.15248">
        <ele>4.8</ele>
        <time>2020-06-02T08:40:30Z</time>
      </trkpt>
      <trkpt lat="46.15816" lon="-1.15247">
        <ele>4.8</ele>
        <time>2020-06-02T08:40:31Z</time>
      </trkpt>
      <trkpt lat="46.15815" lon="-1.15247">
        <ele>4.8</ele>
        <time>2020-06-02T08:40:32Z</time>
      </trkpt>
      <trkpt lat="46.15815" lon="-1.15247">
        <ele>4.8</ele>
        <time>2020-06-02T08:40:33Z</time>
      </trkpt>
      <trkpt lat="46.15816" lon="-1.15248">
        <ele>4.8</ele>
        <time>2020-06-02T08:40:34Z</time>
      </trkpt>
      <trkpt lat="46.15816" lon="-1.15245">
        <ele>4.8</ele>
        <time>2020-06-02T08:40:35Z</time>
      </trkpt>
      <trkpt lat="46.15817" lon="-1.15245">
        <ele>4.8</ele>
        <time>2020-06-02T08:40:36Z</time>
      </trkpt>
      <trkpt lat="46.15818" lon="-1.15244">
        <ele>4.8</ele>
        <time>2020-06-02T08:40:37Z</time>
      </trkpt>
      <trkpt lat="46.15819" lon="-1.15244">
        <ele>4.8</ele>
        <time>2020-06-02T08:40:38Z</time>
      </trkpt>
      <trkpt lat="46.15819" lon="-1.15245">
        <ele>4.8</ele>
        <time>2020-06-02T08:40:39Z</time>
      </trkpt>
      <trkpt lat="46.1582" lon="-1.15245">
        <ele>4.8</ele>
        <time>2020-06-02T08:40:40Z</time>
      </trkpt>
      <trkpt lat="46.1582" lon="-1.15244">
        <ele>4.8</ele>
        <time>2020-06-02T08:40:41Z</time>
      </trkpt>
      <trkpt lat="46.15821" lon="-1.15243">
        <ele>4.8</ele>
        <time>2020-06-02T08:40:42Z</time>
      </trkpt>
      <trkpt lat="46.15821" lon="-1.15243">
        <ele>4.8</ele>
        <time>2020-06-02T08:40:43Z</time>
      </trkpt>
      <trkpt lat="46.1582" lon="-1.15244">
        <ele>4.8</ele>
        <time>2020-06-02T08:40:44Z</time>
      </trkpt>
      <trkpt lat="46.15821" lon="-1.15245">
        <ele>4.8</ele>
        <time>2020-06-02T08:40:45Z</time>
      </trkpt>
      <trkpt lat="46.15821" lon="-1.15245">
        <ele>4.7</ele>
        <time>2020-06-02T08:40:46Z</time>
      </trkpt>
      <trkpt lat="46.15821" lon="-1.15245">
        <ele>4.7</ele>
        <time>2020-06-02T08:40:47Z</time>
      </trkpt>
      <trkpt lat="46.15821" lon="-1.15245">
        <ele>4.7</ele>
        <time>2020-06-02T08:40:48Z</time>
      </trkpt>
      <trkpt lat="46.1582" lon="-1.15245">
        <ele>4.7</ele>
        <time>2020-06-02T08:40:49Z</time>
      </trkpt>
      <trkpt lat="46.15821" lon="-1.15245">
        <ele>4.7</ele>
        <time>2020-06-02T08:40:50Z</time>
      </trkpt>
      <trkpt lat="46.15821" lon="-1.15245">
        <ele>4.7</ele>
        <time>2020-06-02T08:40:51Z</time>
      </trkpt>
      <trkpt lat="46.1582" lon="-1.15245">
        <ele>4.7</ele>
        <time>2020-06-02T08:40:52Z</time>
      </trkpt>
      <trkpt lat="46.1582" lon="-1.15245">
        <ele>4.7</ele>
        <time>2020-06-02T08:40:53Z</time>
      </trkpt>
      <trkpt lat="46.1582" lon="-1.15245">
        <ele>4.7</ele>
        <time>2020-06-02T08:40:54Z</time>
      </trkpt>
      <trkpt lat="46.1582" lon="-1.15245">
        <ele>4.7</ele>
        <time>2020-06-02T08:40:55Z</time>
      </trkpt>
      <trkpt lat="46.15821" lon="-1.15246">
        <ele>4.7</ele>
        <time>2020-06-02T08:40:56Z</time>
      </trkpt>
      <trkpt lat="46.1582" lon="-1.15247">
        <ele>4.7</ele>
        <time>2020-06-02T08:40:57Z</time>
      </trkpt>
      <trkpt lat="46.15821" lon="-1.15246">
        <ele>4.7</ele>
        <time>2020-06-02T08:40:58Z</time>
      </trkpt>
      <trkpt lat="46.15821" lon="-1.15244">
        <ele>4.7</ele>
        <time>2020-06-02T08:40:59Z</time>
      </trkpt>
      <trkpt lat="46.15822" lon="-1.15243">
        <ele>4.7</ele>
        <time>2020-06-02T08:41:00Z</time>
      </trkpt>
      <trkpt lat="46.15822" lon="-1.1524">
        <ele>4.7</ele>
        <time>2020-06-02T08:41:01Z</time>
      </trkpt>
      <trkpt lat="46.15821" lon="-1.15239">
        <ele>4.7</ele>
        <time>2020-06-02T08:41:02Z</time>
      </trkpt>
      <trkpt lat="46.15821" lon="-1.15238">
        <ele>4.7</ele>
        <time>2020-06-02T08:41:03Z</time>
      </trkpt>
      <trkpt lat="46.1582" lon="-1.15233">
        <ele>4.7</ele>
        <time>2020-06-02T08:41:04Z</time>
      </trkpt>
      <trkpt lat="46.1582" lon="-1.15231">
        <ele>4.7</ele>
        <time>2020-06-02T08:41:05Z</time>
      </trkpt>
      <trkpt lat="46.1582" lon="-1.1523">
        <ele>4.7</ele>
        <time>2020-06-02T08:41:06Z</time>
      </trkpt>
      <trkpt lat="46.1582" lon="-1.1523">
        <ele>4.7</ele>
        <time>2020-06-02T08:41:07Z</time>
      </trkpt>
      <trkpt lat="46.1582" lon="-1.15229">
        <ele>4.7</ele>
        <time>2020-06-02T08:41:08Z</time>
      </trkpt>
      <trkpt lat="46.1582" lon="-1.15228">
        <ele>4.7</ele>
        <time>2020-06-02T08:41:09Z</time>
      </trkpt>
      <trkpt lat="46.1582" lon="-1.15227">
        <ele>4.7</ele>
        <time>2020-06-02T08:41:10Z</time>
      </trkpt>
      <trkpt lat="46.15821" lon="-1.15226">
        <ele>4.7</ele>
        <time>2020-06-02T08:41:11Z</time>
      </trkpt>
      <trkpt lat="46.15822" lon="-1.15225">
        <ele>4.7</ele>
        <time>2020-06-02T08:41:12Z</time>
      </trkpt>
      <trkpt lat="46.15821" lon="-1.15226">
        <ele>4.7</ele>
        <time>2020-06-02T08:41:13Z</time>
      </trkpt>
      <trkpt lat="46.15821" lon="-1.15225">
        <ele>4.7</ele>
        <time>2020-06-02T08:41:14Z</time>
      </trkpt>
      <trkpt lat="46.1582" lon="-1.15226">
        <ele>4.7</ele>
        <time>2020-06-02T08:41:15Z</time>
      </trkpt>
      <trkpt lat="46.1582" lon="-1.15225">
        <ele>4.7</ele>
        <time>2020-06-02T08:41:16Z</time>
      </trkpt>
      <trkpt lat="46.1582" lon="-1.15225">
        <ele>4.7</ele>
        <time>2020-06-02T08:41:17Z</time>
      </trkpt>
      <trkpt lat="46.1582" lon="-1.15225">
        <ele>4.7</ele>
        <time>2020-06-02T08:41:18Z</time>
      </trkpt>
      <trkpt lat="46.1582" lon="-1.15225">
        <ele>4.7</ele>
        <time>2020-06-02T08:41:19Z</time>
      </trkpt>
      <trkpt lat="46.1582" lon="-1.15224">
        <ele>4.7</ele>
        <time>2020-06-02T08:41:20Z</time>
      </trkpt>
      <trkpt lat="46.15819" lon="-1.15223">
        <ele>4.7</ele>
        <time>2020-06-02T08:41:21Z</time>
      </trkpt>
      <trkpt lat="46.15819" lon="-1.15219">
        <ele>4.7</ele>
        <time>2020-06-02T08:41:22Z</time>
      </trkpt>
      <trkpt lat="46.15819" lon="-1.15218">
        <ele>4.7</ele>
        <time>2020-06-02T08:41:23Z</time>
      </trkpt>
      <trkpt lat="46.15818" lon="-1.15216">
        <ele>4.7</ele>
        <time>2020-06-02T08:41:24Z</time>
      </trkpt>
      <trkpt lat="46.15818" lon="-1.15217">
        <ele>4.7</ele>
        <time>2020-06-02T08:41:25Z</time>
      </trkpt>
      <trkpt lat="46.15817" lon="-1.15216">
        <ele>4.7</ele>
        <time>2020-06-02T08:41:26Z</time>
      </trkpt>
      <trkpt lat="46.15817" lon="-1.15215">
        <ele>4.7</ele>
        <time>2020-06-02T08:41:27Z</time>
      </trkpt>
      <trkpt lat="46.15818" lon="-1.15213">
        <ele>4.7</ele>
        <time>2020-06-02T08:41:28Z</time>
      </trkpt>
      <trkpt lat="46.15819" lon="-1.15212">
        <ele>4.7</ele>
        <time>2020-06-02T08:41:29Z</time>
      </trkpt>
      <trkpt lat="46.15819" lon="-1.15212">
        <ele>4.7</ele>
        <time>2020-06-02T08:41:30Z</time>
      </trkpt>
      <trkpt lat="46.15819" lon="-1.15212">
        <ele>4.7</ele>
        <time>2020-06-02T08:41:31Z</time>
      </trkpt>
      <trkpt lat="46.15819" lon="-1.15212">
        <ele>4.7</ele>
        <time>2020-06-02T08:41:32Z</time>
      </trkpt>
      <trkpt lat="46.15819" lon="-1.15212">
        <ele>4.7</ele>
        <time>2020-06-02T08:41:33Z</time>
      </trkpt>
      <trkpt lat="46.15819" lon="-1.15212">
        <ele>4.7</ele>
        <time>2020-06-02T08:41:34Z</time>
      </trkpt>
      <trkpt lat="46.15819" lon="-1.15212">
        <ele>4.7</ele>
        <time>2020-06-02T08:41:35Z</time>
      </trkpt>
      <trkpt lat="46.15819" lon="-1.15212">
        <ele>4.7</ele>
        <time>2020-06-02T08:41:36Z</time>
      </trkpt>
      <trkpt lat="46.15819" lon="-1.15212">
        <ele>4.7</ele>
        <time>2020-06-02T08:41:37Z</time>
      </trkpt>
      <trkpt lat="46.15819" lon="-1.15212">
        <ele>4.7</ele>
        <time>2020-06-02T08:41:38Z</time>
      </trkpt>
      <trkpt lat="46.15819" lon="-1.15212">
        <ele>4.7</ele>
        <time>2020-06-02T08:41:39Z</time>
      </trkpt>
      <trkpt lat="46.15819" lon="-1.15212">
        <ele>4.7</ele>
        <time>2020-06-02T08:41:40Z</time>
      </trkpt>
      <trkpt lat="46.15819" lon="-1.15212">
        <ele>4.7</ele>
        <time>2020-06-02T08:41:41Z</time>
      </trkpt>
      <trkpt lat="46.15819" lon="-1.15212">
        <ele>4.7</ele>
        <time>2020-06-02T08:41:42Z</time>
      </trkpt>
      <trkpt lat="46.15819" lon="-1.15211">
        <ele>4.7</ele>
        <time>2020-06-02T08:41:43Z</time>
      </trkpt>
      <trkpt lat="46.15819" lon="-1.15211">
        <ele>4.7</ele>
        <time>2020-06-02T08:41:44Z</time>
      </trkpt>
      <trkpt lat="46.15819" lon="-1.15211">
        <ele>4.7</ele>
        <time>2020-06-02T08:41:45Z</time>
      </trkpt>
      <trkpt lat="46.15819" lon="-1.15211">
        <ele>4.7</ele>
        <time>2020-06-02T08:41:46Z</time>
      </trkpt>
      <trkpt lat="46.15819" lon="-1.15211">
        <ele>4.7</ele>
        <time>2020-06-02T08:41:47Z</time>
      </trkpt>
      <trkpt lat="46.15819" lon="-1.15211">
        <ele>4.7</ele>
        <time>2020-06-02T08:41:48Z</time>
      </trkpt>
      <trkpt lat="46.15819" lon="-1.15211">
        <ele>4.7</ele>
        <time>2020-06-02T08:41:49Z</time>
      </trkpt>
      <trkpt lat="46.15819" lon="-1.15211">
        <ele>4.7</ele>
        <time>2020-06-02T08:41:50Z</time>
      </trkpt>
      <trkpt lat="46.15819" lon="-1.15211">
        <ele>4.7</ele>
        <time>2020-06-02T08:41:51Z</time>
      </trkpt>
      <trkpt lat="46.15819" lon="-1.15211">
        <ele>4.7</ele>
        <time>2020-06-02T08:41:52Z</time>
      </trkpt>
      <trkpt lat="46.15819" lon="-1.15211">
        <ele>4.7</ele>
        <time>2020-06-02T08:41:53Z</time>
      </trkpt>
      <trkpt lat="46.15819" lon="-1.15211">
        <ele>4.7</ele>
        <time>2020-06-02T08:41:54Z</time>
      </trkpt>
      <trkpt lat="46.15819" lon="-1.15211">
        <ele>4.7</ele>
        <time>2020-06-02T08:41:55Z</time>
      </trkpt>
      <trkpt lat="46.15819" lon="-1.15211">
        <ele>4.7</ele>
        <time>2020-06-02T08:41:56Z</time>
      </trkpt>
      <trkpt lat="46.15819" lon="-1.15211">
        <ele>4.7</ele>
        <time>2020-06-02T08:41:57Z</time>
      </trkpt>
      <trkpt lat="46.15819" lon="-1.15211">
        <ele>4.7</ele>
        <time>2020-06-02T08:41:58Z</time>
      </trkpt>
      <trkpt lat="46.15819" lon="-1.15211">
        <ele>4.7</ele>
        <time>2020-06-02T08:41:59Z</time>
      </trkpt>
      <trkpt lat="46.15819" lon="-1.15211">
        <ele>4.7</ele>
        <time>2020-06-02T08:42:00Z</time>
      </trkpt>
      <trkpt lat="46.15819" lon="-1.15211">
        <ele>4.7</ele>
        <time>2020-06-02T08:42:01Z</time>
      </trkpt>
      <trkpt lat="46.15819" lon="-1.15211">
        <ele>4.7</ele>
        <time>2020-06-02T08:42:02Z</time>
      </trkpt>
      <trkpt lat="46.15819" lon="-1.15211">
        <ele>4.7</ele>
        <time>2020-06-02T08:42:03Z</time>
      </trkpt>
      <trkpt lat="46.15819" lon="-1.15211">
        <ele>4.7</ele>
        <time>2020-06-02T08:42:04Z</time>
      </trkpt>
      <trkpt lat="46.15818" lon="-1.15211">
        <ele>4.7</ele>
        <time>2020-06-02T08:42:05Z</time>
      </trkpt>
      <trkpt lat="46.15818" lon="-1.15211">
        <ele>4.7</ele>
        <time>2020-06-02T08:42:06Z</time>
      </trkpt>
      <trkpt lat="46.15818" lon="-1.15211">
        <ele>4.7</ele>
        <time>2020-06-02T08:42:07Z</time>
      </trkpt>
      <trkpt lat="46.15818" lon="-1.15211">
        <ele>4.7</ele>
        <time>2020-06-02T08:42:08Z</time>
      </trkpt>
      <trkpt lat="46.15818" lon="-1.15211">
        <ele>4.7</ele>
        <time>2020-06-02T08:42:09Z</time>
      </trkpt>
      <trkpt lat="46.15818" lon="-1.1521">
        <ele>4.7</ele>
        <time>2020-06-02T08:42:10Z</time>
      </trkpt>
      <trkpt lat="46.15818" lon="-1.1521">
        <ele>4.7</ele>
        <time>2020-06-02T08:42:11Z</time>
      </trkpt>
      <trkpt lat="46.15818" lon="-1.1521">
        <ele>4.7</ele>
        <time>2020-06-02T08:42:12Z</time>
      </trkpt>
      <trkpt lat="46.15818" lon="-1.1521">
        <ele>4.7</ele>
        <time>2020-06-02T08:42:13Z</time>
      </trkpt>
      <trkpt lat="46.15818" lon="-1.1521">
        <ele>4.7</ele>
        <time>2020-06-02T08:42:14Z</time>
      </trkpt>
      <trkpt lat="46.15818" lon="-1.1521">
        <ele>4.7</ele>
        <time>2020-06-02T08:42:15Z</time>
      </trkpt>
      <trkpt lat="46.15818" lon="-1.1521">
        <ele>4.7</ele>
        <time>2020-06-02T08:42:16Z</time>
      </trkpt>
      <trkpt lat="46.15818" lon="-1.1521">
        <ele>4.7</ele>
        <time>2020-06-02T08:42:17Z</time>
      </trkpt>
      <trkpt lat="46.15818" lon="-1.1521">
        <ele>4.7</ele>
        <time>2020-06-02T08:42:18Z</time>
      </trkpt>
      <trkpt lat="46.15818" lon="-1.1521">
        <ele>4.7</ele>
        <time>2020-06-02T08:42:19Z</time>
      </trkpt>
      <trkpt lat="46.15818" lon="-1.1521">
        <ele>4.7</ele>
        <time>2020-06-02T08:42:20Z</time>
      </trkpt>
      <trkpt lat="46.15818" lon="-1.1521">
        <ele>4.7</ele>
        <time>2020-06-02T08:42:21Z</time>
      </trkpt>
      <trkpt lat="46.15818" lon="-1.1521">
        <ele>4.7</ele>
        <time>2020-06-02T08:42:22Z</time>
      </trkpt>
      <trkpt lat="46.15818" lon="-1.1521">
        <ele>4.7</ele>
        <time>2020-06-02T08:42:23Z</time>
      </trkpt>
      <trkpt lat="46.15818" lon="-1.1521">
        <ele>4.7</ele>
        <time>2020-06-02T08:42:24Z</time>
      </trkpt>
      <trkpt lat="46.15818" lon="-1.1521">
        <ele>4.7</ele>
        <time>2020-06-02T08:42:25Z</time>
      </trkpt>
      <trkpt lat="46.15818" lon="-1.1521">
        <ele>4.7</ele>
        <time>2020-06-02T08:42:26Z</time>
      </trkpt>
      <trkpt lat="46.15818" lon="-1.1521">
        <ele>4.7</ele>
        <time>2020-06-02T08:42:27Z</time>
      </trkpt>
      <trkpt lat="46.15818" lon="-1.1521">
        <ele>4.7</ele>
        <time>2020-06-02T08:42:28Z</time>
      </trkpt>
      <trkpt lat="46.15818" lon="-1.1521">
        <ele>4.7</ele>
        <time>2020-06-02T08:42:29Z</time>
      </trkpt>
      <trkpt lat="46.15818" lon="-1.1521">
        <ele>4.7</ele>
        <time>2020-06-02T08:42:30Z</time>
      </trkpt>
      <trkpt lat="46.15818" lon="-1.1521">
        <ele>4.7</ele>
        <time>2020-06-02T08:42:31Z</time>
      </trkpt>
      <trkpt lat="46.15818" lon="-1.1521">
        <ele>4.7</ele>
        <time>2020-06-02T08:42:32Z</time>
      </trkpt>
      <trkpt lat="46.15818" lon="-1.1521">
        <ele>4.7</ele>
        <time>2020-06-02T08:42:33Z</time>
      </trkpt>
      <trkpt lat="46.15818" lon="-1.1521">
        <ele>4.7</ele>
        <time>2020-06-02T08:42:34Z</time>
      </trkpt>
      <trkpt lat="46.15818" lon="-1.1521">
        <ele>4.7</ele>
        <time>2020-06-02T08:42:35Z</time>
      </trkpt>
      <trkpt lat="46.15818" lon="-1.1521">
        <ele>4.7</ele>
        <time>2020-06-02T08:42:36Z</time>
      </trkpt>
      <trkpt lat="46.15818" lon="-1.15209">
        <ele>4.7</ele>
        <time>2020-06-02T08:42:37Z</time>
      </trkpt>
      <trkpt lat="46.15818" lon="-1.15209">
        <ele>4.7</ele>
        <time>2020-06-02T08:42:38Z</time>
      </trkpt>
      <trkpt lat="46.15818" lon="-1.15209">
        <ele>4.7</ele>
        <time>2020-06-02T08:42:39Z</time>
      </trkpt>
      <trkpt lat="46.15818" lon="-1.15209">
        <ele>4.7</ele>
        <time>2020-06-02T08:42:40Z</time>
      </trkpt>
      <trkpt lat="46.15818" lon="-1.15209">
        <ele>4.7</ele>
        <time>2020-06-02T08:42:41Z</time>
      </trkpt>
      <trkpt lat="46.15818" lon="-1.15209">
        <ele>4.7</ele>
        <time>2020-06-02T08:42:42Z</time>
      </trkpt>
      <trkpt lat="46.15818" lon="-1.15209">
        <ele>4.7</ele>
        <time>2020-06-02T08:42:43Z</time>
      </trkpt>
      <trkpt lat="46.15818" lon="-1.15209">
        <ele>4.7</ele>
        <time>2020-06-02T08:42:44Z</time>
      </trkpt>
      <trkpt lat="46.15818" lon="-1.15209">
        <ele>4.7</ele>
        <time>2020-06-02T08:42:45Z</time>
      </trkpt>
      <trkpt lat="46.15818" lon="-1.15209">
        <ele>4.7</ele>
        <time>2020-06-02T08:42:46Z</time>
      </trkpt>
      <trkpt lat="46.15818" lon="-1.15209">
        <ele>4.7</ele>
        <time>2020-06-02T08:42:47Z</time>
      </trkpt>
      <trkpt lat="46.15818" lon="-1.15209">
        <ele>4.7</ele>
        <time>2020-06-02T08:42:48Z</time>
      </trkpt>
      <trkpt lat="46.15818" lon="-1.15209">
        <ele>4.7</ele>
        <time>2020-06-02T08:42:49Z</time>
      </trkpt>
      <trkpt lat="46.15818" lon="-1.15209">
        <ele>4.7</ele>
        <time>2020-06-02T08:42:50Z</time>
      </trkpt>
      <trkpt lat="46.15818" lon="-1.15209">
        <ele>4.7</ele>
        <time>2020-06-02T08:42:51Z</time>
      </trkpt>
      <trkpt lat="46.15818" lon="-1.15209">
        <ele>4.7</ele>
        <time>2020-06-02T08:42:52Z</time>
      </trkpt>
      <trkpt lat="46.15818" lon="-1.15209">
        <ele>4.7</ele>
        <time>2020-06-02T08:42:53Z</time>
      </trkpt>
      <trkpt lat="46.15818" lon="-1.15209">
        <ele>4.7</ele>
        <time>2020-06-02T08:42:54Z</time>
      </trkpt>
      <trkpt lat="46.15818" lon="-1.15209">
        <ele>4.7</ele>
        <time>2020-06-02T08:42:55Z</time>
      </trkpt>
      <trkpt lat="46.15818" lon="-1.15209">
        <ele>4.7</ele>
        <time>2020-06-02T08:42:56Z</time>
      </trkpt>
      <trkpt lat="46.15818" lon="-1.15209">
        <ele>4.7</ele>
        <time>2020-06-02T08:42:57Z</time>
      </trkpt>
      <trkpt lat="46.15818" lon="-1.15209">
        <ele>4.7</ele>
        <time>2020-06-02T08:42:58Z</time>
      </trkpt>
      <trkpt lat="46.15818" lon="-1.15209">
        <ele>4.7</ele>
        <time>2020-06-02T08:42:59Z</time>
      </trkpt>
      <trkpt lat="46.15818" lon="-1.15209">
        <ele>4.7</ele>
        <time>2020-06-02T08:43:00Z</time>
      </trkpt>
      <trkpt lat="46.15817" lon="-1.15209">
        <ele>4.7</ele>
        <time>2020-06-02T08:43:01Z</time>
      </trkpt>
      <trkpt lat="46.15817" lon="-1.15209">
        <ele>4.7</ele>
        <time>2020-06-02T08:43:02Z</time>
      </trkpt>
      <trkpt lat="46.15817" lon="-1.15208">
        <ele>4.7</ele>
        <time>2020-06-02T08:43:03Z</time>
      </trkpt>
      <trkpt lat="46.15817" lon="-1.15208">
        <ele>4.7</ele>
        <time>2020-06-02T08:43:04Z</time>
      </trkpt>
      <trkpt lat="46.15817" lon="-1.15208">
        <ele>4.7</ele>
        <time>2020-06-02T08:43:05Z</time>
      </trkpt>
      <trkpt lat="46.15817" lon="-1.15208">
        <ele>4.7</ele>
        <time>2020-06-02T08:43:06Z</time>
      </trkpt>
      <trkpt lat="46.15817" lon="-1.15208">
        <ele>4.7</ele>
        <time>2020-06-02T08:43:07Z</time>
      </trkpt>
      <trkpt lat="46.15817" lon="-1.15208">
        <ele>4.7</ele>
        <time>2020-06-02T08:43:08Z</time>
      </trkpt>
      <trkpt lat="46.15817" lon="-1.15208">
        <ele>4.7</ele>
        <time>2020-06-02T08:43:09Z</time>
      </trkpt>
      <trkpt lat="46.15817" lon="-1.15208">
        <ele>4.7</ele>
        <time>2020-06-02T08:43:10Z</time>
      </trkpt>
      <trkpt lat="46.15817" lon="-1.15208">
        <ele>4.7</ele>
        <time>2020-06-02T08:43:11Z</time>
      </trkpt>
      <trkpt lat="46.15817" lon="-1.15208">
        <ele>4.7</ele>
        <time>2020-06-02T08:43:12Z</time>
      </trkpt>
      <trkpt lat="46.15817" lon="-1.15208">
        <ele>4.7</ele>
        <time>2020-06-02T08:43:13Z</time>
      </trkpt>
      <trkpt lat="46.15817" lon="-1.15208">
        <ele>4.7</ele>
        <time>2020-06-02T08:43:14Z</time>
      </trkpt>
      <trkpt lat="46.15817" lon="-1.15208">
        <ele>4.7</ele>
        <time>2020-06-02T08:43:15Z</time>
      </trkpt>
      <trkpt lat="46.15817" lon="-1.15208">
        <ele>4.7</ele>
        <time>2020-06-02T08:43:16Z</time>
      </trkpt>
      <trkpt lat="46.15817" lon="-1.15208">
        <ele>4.7</ele>
        <time>2020-06-02T08:43:17Z</time>
      </trkpt>
      <trkpt lat="46.15817" lon="-1.15208">
        <ele>4.7</ele>
        <time>2020-06-02T08:43:18Z</time>
      </trkpt>
      <trkpt lat="46.15817" lon="-1.15208">
        <ele>4.7</ele>
        <time>2020-06-02T08:43:19Z</time>
      </trkpt>
      <trkpt lat="46.15817" lon="-1.15208">
        <ele>4.7</ele>
        <time>2020-06-02T08:43:20Z</time>
      </trkpt>
      <trkpt lat="46.15817" lon="-1.15207">
        <ele>4.7</ele>
        <time>2020-06-02T08:43:21Z</time>
      </trkpt>
      <trkpt lat="46.15817" lon="-1.15207">
        <ele>4.7</ele>
        <time>2020-06-02T08:43:22Z</time>
      </trkpt>
      <trkpt lat="46.15818" lon="-1.15206">
        <ele>4.7</ele>
        <time>2020-06-02T08:43:23Z</time>
      </trkpt>
      <trkpt lat="46.1582" lon="-1.15206">
        <ele>4.7</ele>
        <time>2020-06-02T08:43:24Z</time>
      </trkpt>
      <trkpt lat="46.15821" lon="-1.15207">
        <ele>4.7</ele>
        <time>2020-06-02T08:43:25Z</time>
      </trkpt>
      <trkpt lat="46.15822" lon="-1.15207">
        <ele>4.7</ele>
        <time>2020-06-02T08:43:26Z</time>
      </trkpt>
      <trkpt lat="46.15824" lon="-1.15206">
        <ele>4.6</ele>
        <time>2020-06-02T08:43:27Z</time>
      </trkpt>
      <trkpt lat="46.15824" lon="-1.15206">
        <ele>4.6</ele>
        <time>2020-06-02T08:43:28Z</time>
      </trkpt>
      <trkpt lat="46.15824" lon="-1.15204">
        <ele>4.6</ele>
        <time>2020-06-02T08:43:29Z</time>
      </trkpt>
      <trkpt lat="46.15824" lon="-1.15204">
        <ele>4.6</ele>
        <time>2020-06-02T08:43:30Z</time>
      </trkpt>
      <trkpt lat="46.15825" lon="-1.15205">
        <ele>4.6</ele>
        <time>2020-06-02T08:43:31Z</time>
      </trkpt>
      <trkpt lat="46.15825" lon="-1.15205">
        <ele>4.6</ele>
        <time>2020-06-02T08:43:32Z</time>
      </trkpt>
      <trkpt lat="46.15825" lon="-1.15205">
        <ele>4.6</ele>
        <time>2020-06-02T08:43:33Z</time>
      </trkpt>
      <trkpt lat="46.15825" lon="-1.15206">
        <ele>4.6</ele>
        <time>2020-06-02T08:43:34Z</time>
      </trkpt>
      <trkpt lat="46.15825" lon="-1.15206">
        <ele>4.6</ele>
        <time>2020-06-02T08:43:35Z</time>
      </trkpt>
      <trkpt lat="46.15826" lon="-1.15206">
        <ele>4.6</ele>
        <time>2020-06-02T08:43:36Z</time>
      </trkpt>
      <trkpt lat="46.15826" lon="-1.15206">
        <ele>4.6</ele>
        <time>2020-06-02T08:43:37Z</time>
      </trkpt>
      <trkpt lat="46.15826" lon="-1.15206">
        <ele>4.6</ele>
        <time>2020-06-02T08:43:38Z</time>
      </trkpt>
      <trkpt lat="46.15825" lon="-1.15207">
        <ele>4.6</ele>
        <time>2020-06-02T08:43:39Z</time>
      </trkpt>
      <trkpt lat="46.15825" lon="-1.15207">
        <ele>4.6</ele>
        <time>2020-06-02T08:43:40Z</time>
      </trkpt>
      <trkpt lat="46.15825" lon="-1.15207">
        <ele>4.6</ele>
        <time>2020-06-02T08:43:41Z</time>
      </trkpt>
      <trkpt lat="46.15825" lon="-1.15207">
        <ele>4.6</ele>
        <time>2020-06-02T08:43:42Z</time>
      </trkpt>
      <trkpt lat="46.15825" lon="-1.15207">
        <ele>4.6</ele>
        <time>2020-06-02T08:43:43Z</time>
      </trkpt>
      <trkpt lat="46.15826" lon="-1.15207">
        <ele>4.6</ele>
        <time>2020-06-02T08:43:44Z</time>
      </trkpt>
      <trkpt lat="46.15826" lon="-1.15206">
        <ele>4.6</ele>
        <time>2020-06-02T08:43:45Z</time>
      </trkpt>
      <trkpt lat="46.15826" lon="-1.15207">
        <ele>4.6</ele>
        <time>2020-06-02T08:43:46Z</time>
      </trkpt>
      <trkpt lat="46.15825" lon="-1.15207">
        <ele>4.6</ele>
        <time>2020-06-02T08:43:47Z</time>
      </trkpt>
      <trkpt lat="46.15826" lon="-1.15207">
        <ele>4.6</ele>
        <time>2020-06-02T08:43:48Z</time>
      </trkpt>
      <trkpt lat="46.15826" lon="-1.15207">
        <ele>4.6</ele>
        <time>2020-06-02T08:43:49Z</time>
      </trkpt>
      <trkpt lat="46.15826" lon="-1.15207">
        <ele>4.6</ele>
        <time>2020-06-02T08:43:50Z</time>
      </trkpt>
      <trkpt lat="46.15826" lon="-1.15207">
        <ele>4.6</ele>
        <time>2020-06-02T08:43:51Z</time>
      </trkpt>
      <trkpt lat="46.15826" lon="-1.15207">
        <ele>4.6</ele>
        <time>2020-06-02T08:43:52Z</time>
      </trkpt>
      <trkpt lat="46.15826" lon="-1.15207">
        <ele>4.6</ele>
        <time>2020-06-02T08:43:53Z</time>
      </trkpt>
      <trkpt lat="46.15827" lon="-1.15208">
        <ele>4.6</ele>
        <time>2020-06-02T08:43:54Z</time>
      </trkpt>
      <trkpt lat="46.15827" lon="-1.15207">
        <ele>4.6</ele>
        <time>2020-06-02T08:43:55Z</time>
      </trkpt>
      <trkpt lat="46.15826" lon="-1.15208">
        <ele>4.6</ele>
        <time>2020-06-02T08:43:56Z</time>
      </trkpt>
      <trkpt lat="46.15826" lon="-1.15208">
        <ele>4.6</ele>
        <time>2020-06-02T08:43:57Z</time>
      </trkpt>
      <trkpt lat="46.15826" lon="-1.15208">
        <ele>4.6</ele>
        <time>2020-06-02T08:43:58Z</time>
      </trkpt>
      <trkpt lat="46.15826" lon="-1.15209">
        <ele>4.6</ele>
        <time>2020-06-02T08:43:59Z</time>
      </trkpt>
      <trkpt lat="46.15826" lon="-1.15209">
        <ele>4.6</ele>
        <time>2020-06-02T08:44:00Z</time>
      </trkpt>
      <trkpt lat="46.15826" lon="-1.15209">
        <ele>4.6</ele>
        <time>2020-06-02T08:44:01Z</time>
      </trkpt>
      <trkpt lat="46.15826" lon="-1.15209">
        <ele>4.6</ele>
        <time>2020-06-02T08:44:02Z</time>
      </trkpt>
      <trkpt lat="46.15826" lon="-1.15209">
        <ele>4.6</ele>
        <time>2020-06-02T08:44:03Z</time>
      </trkpt>
      <trkpt lat="46.15826" lon="-1.1521">
        <ele>4.6</ele>
        <time>2020-06-02T08:44:04Z</time>
      </trkpt>
      <trkpt lat="46.15825" lon="-1.15209">
        <ele>4.6</ele>
        <time>2020-06-02T08:44:05Z</time>
      </trkpt>
      <trkpt lat="46.15825" lon="-1.15209">
        <ele>4.6</ele>
        <time>2020-06-02T08:44:06Z</time>
      </trkpt>
      <trkpt lat="46.15825" lon="-1.15209">
        <ele>4.6</ele>
        <time>2020-06-02T08:44:07Z</time>
      </trkpt>
      <trkpt lat="46.15825" lon="-1.15209">
        <ele>4.6</ele>
        <time>2020-06-02T08:44:08Z</time>
      </trkpt>
      <trkpt lat="46.15825" lon="-1.15209">
        <ele>4.6</ele>
        <time>2020-06-02T08:44:09Z</time>
      </trkpt>
      <trkpt lat="46.15824" lon="-1.15209">
        <ele>4.6</ele>
        <time>2020-06-02T08:44:10Z</time>
      </trkpt>
      <trkpt lat="46.15824" lon="-1.15209">
        <ele>4.6</ele>
        <time>2020-06-02T08:44:11Z</time>
      </trkpt>
      <trkpt lat="46.15824" lon="-1.15209">
        <ele>4.6</ele>
        <time>2020-06-02T08:44:12Z</time>
      </trkpt>
      <trkpt lat="46.15824" lon="-1.15209">
        <ele>4.6</ele>
        <time>2020-06-02T08:44:13Z</time>
      </trkpt>
      <trkpt lat="46.15824" lon="-1.15209">
        <ele>4.6</ele>
        <time>2020-06-02T08:44:14Z</time>
      </trkpt>
      <trkpt lat="46.15824" lon="-1.15209">
        <ele>4.6</ele>
        <time>2020-06-02T08:44:15Z</time>
      </trkpt>
      <trkpt lat="46.15824" lon="-1.15209">
        <ele>4.6</ele>
        <time>2020-06-02T08:44:16Z</time>
      </trkpt>
      <trkpt lat="46.15824" lon="-1.15209">
        <ele>4.6</ele>
        <time>2020-06-02T08:44:17Z</time>
      </trkpt>
      <trkpt lat="46.15824" lon="-1.15209">
        <ele>4.6</ele>
        <time>2020-06-02T08:44:18Z</time>
      </trkpt>
      <trkpt lat="46.15824" lon="-1.15209">
        <ele>4.6</ele>
        <time>2020-06-02T08:44:19Z</time>
      </trkpt>
      <trkpt lat="46.15824" lon="-1.15209">
        <ele>4.6</ele>
        <time>2020-06-02T08:44:20Z</time>
      </trkpt>
      <trkpt lat="46.15824" lon="-1.15209">
        <ele>4.6</ele>
        <time>2020-06-02T08:44:21Z</time>
      </trkpt>
      <trkpt lat="46.15824" lon="-1.15209">
        <ele>4.6</ele>
        <time>2020-06-02T08:44:22Z</time>
      </trkpt>
      <trkpt lat="46.15824" lon="-1.15209">
        <ele>4.6</ele>
        <time>2020-06-02T08:44:23Z</time>
      </trkpt>
      <trkpt lat="46.15824" lon="-1.15209">
        <ele>4.6</ele>
        <time>2020-06-02T08:44:24Z</time>
      </trkpt>
      <trkpt lat="46.15824" lon="-1.15209">
        <ele>4.6</ele>
        <time>2020-06-02T08:44:25Z</time>
      </trkpt>
      <trkpt lat="46.15824" lon="-1.15209">
        <ele>4.6</ele>
        <time>2020-06-02T08:44:26Z</time>
      </trkpt>
      <trkpt lat="46.15824" lon="-1.15209">
        <ele>4.6</ele>
        <time>2020-06-02T08:44:27Z</time>
      </trkpt>
      <trkpt lat="46.15823" lon="-1.15209">
        <ele>4.6</ele>
        <time>2020-06-02T08:44:28Z</time>
      </trkpt>
      <trkpt lat="46.15824" lon="-1.15208">
        <ele>4.6</ele>
        <time>2020-06-02T08:44:29Z</time>
      </trkpt>
      <trkpt lat="46.15823" lon="-1.15208">
        <ele>4.6</ele>
        <time>2020-06-02T08:44:30Z</time>
      </trkpt>
      <trkpt lat="46.15823" lon="-1.15208">
        <ele>4.6</ele>
        <time>2020-06-02T08:44:31Z</time>
      </trkpt>
      <trkpt lat="46.15823" lon="-1.15208">
        <ele>4.6</ele>
        <time>2020-06-02T08:44:32Z</time>
      </trkpt>
      <trkpt lat="46.15824" lon="-1.15208">
        <ele>4.6</ele>
        <time>2020-06-02T08:44:33Z</time>
      </trkpt>
      <trkpt lat="46.15823" lon="-1.15208">
        <ele>4.6</ele>
        <time>2020-06-02T08:44:34Z</time>
      </trkpt>
      <trkpt lat="46.15823" lon="-1.15207">
        <ele>4.6</ele>
        <time>2020-06-02T08:44:35Z</time>
      </trkpt>
      <trkpt lat="46.15823" lon="-1.15207">
        <ele>4.6</ele>
        <time>2020-06-02T08:44:36Z</time>
      </trkpt>
      <trkpt lat="46.15823" lon="-1.15207">
        <ele>4.6</ele>
        <time>2020-06-02T08:44:37Z</time>
      </trkpt>
      <trkpt lat="46.15823" lon="-1.15207">
        <ele>4.6</ele>
        <time>2020-06-02T08:44:38Z</time>
      </trkpt>
      <trkpt lat="46.15823" lon="-1.15206">
        <ele>4.6</ele>
        <time>2020-06-02T08:44:39Z</time>
      </trkpt>
      <trkpt lat="46.15823" lon="-1.15206">
        <ele>4.6</ele>
        <time>2020-06-02T08:44:40Z</time>
      </trkpt>
      <trkpt lat="46.15823" lon="-1.15206">
        <ele>4.6</ele>
        <time>2020-06-02T08:44:41Z</time>
      </trkpt>
      <trkpt lat="46.15823" lon="-1.15206">
        <ele>4.6</ele>
        <time>2020-06-02T08:44:42Z</time>
      </trkpt>
      <trkpt lat="46.15823" lon="-1.15206">
        <ele>4.6</ele>
        <time>2020-06-02T08:44:43Z</time>
      </trkpt>
      <trkpt lat="46.15822" lon="-1.15206">
        <ele>4.6</ele>
        <time>2020-06-02T08:44:44Z</time>
      </trkpt>
      <trkpt lat="46.15822" lon="-1.15206">
        <ele>4.6</ele>
        <time>2020-06-02T08:44:45Z</time>
      </trkpt>
      <trkpt lat="46.15822" lon="-1.15205">
        <ele>4.6</ele>
        <time>2020-06-02T08:44:46Z</time>
      </trkpt>
      <trkpt lat="46.15822" lon="-1.15206">
        <ele>4.6</ele>
        <time>2020-06-02T08:44:47Z</time>
      </trkpt>
      <trkpt lat="46.15822" lon="-1.15206">
        <ele>4.6</ele>
        <time>2020-06-02T08:44:48Z</time>
      </trkpt>
      <trkpt lat="46.15822" lon="-1.15206">
        <ele>4.6</ele>
        <time>2020-06-02T08:44:49Z</time>
      </trkpt>
      <trkpt lat="46.15822" lon="-1.15206">
        <ele>4.6</ele>
        <time>2020-06-02T08:44:50Z</time>
      </trkpt>
      <trkpt lat="46.15822" lon="-1.15206">
        <ele>4.6</ele>
        <time>2020-06-02T08:44:51Z</time>
      </trkpt>
      <trkpt lat="46.15822" lon="-1.15206">
        <ele>4.6</ele>
        <time>2020-06-02T08:44:52Z</time>
      </trkpt>
      <trkpt lat="46.15822" lon="-1.15206">
        <ele>4.6</ele>
        <time>2020-06-02T08:44:53Z</time>
      </trkpt>
      <trkpt lat="46.15822" lon="-1.15206">
        <ele>4.6</ele>
        <time>2020-06-02T08:44:54Z</time>
      </trkpt>
      <trkpt lat="46.15822" lon="-1.15206">
        <ele>4.6</ele>
        <time>2020-06-02T08:44:55Z</time>
      </trkpt>
      <trkpt lat="46.15822" lon="-1.15206">
        <ele>4.6</ele>
        <time>2020-06-02T08:44:56Z</time>
      </trkpt>
      <trkpt lat="46.15822" lon="-1.15206">
        <ele>4.6</ele>
        <time>2020-06-02T08:44:57Z</time>
      </trkpt>
      <trkpt lat="46.15822" lon="-1.15206">
        <ele>4.6</ele>
        <time>2020-06-02T08:44:58Z</time>
      </trkpt>
      <trkpt lat="46.15822" lon="-1.15206">
        <ele>4.6</ele>
        <time>2020-06-02T08:44:59Z</time>
      </trkpt>
      <trkpt lat="46.15822" lon="-1.15206">
        <ele>4.6</ele>
        <time>2020-06-02T08:45:00Z</time>
      </trkpt>
      <trkpt lat="46.15822" lon="-1.15206">
        <ele>4.6</ele>
        <time>2020-06-02T08:45:01Z</time>
      </trkpt>
      <trkpt lat="46.15822" lon="-1.15206">
        <ele>4.6</ele>
        <time>2020-06-02T08:45:02Z</time>
      </trkpt>
      <trkpt lat="46.15822" lon="-1.15206">
        <ele>4.6</ele>
        <time>2020-06-02T08:45:03Z</time>
      </trkpt>
      <trkpt lat="46.15822" lon="-1.15206">
        <ele>4.6</ele>
        <time>2020-06-02T08:45:04Z</time>
      </trkpt>
      <trkpt lat="46.15822" lon="-1.15206">
        <ele>4.6</ele>
        <time>2020-06-02T08:45:05Z</time>
      </trkpt>
      <trkpt lat="46.15822" lon="-1.15206">
        <ele>4.6</ele>
        <time>2020-06-02T08:45:06Z</time>
      </trkpt>
      <trkpt lat="46.15822" lon="-1.15206">
        <ele>4.6</ele>
        <time>2020-06-02T08:45:07Z</time>
      </trkpt>
      <trkpt lat="46.15822" lon="-1.15206">
        <ele>4.6</ele>
        <time>2020-06-02T08:45:08Z</time>
      </trkpt>
      <trkpt lat="46.15822" lon="-1.15206">
        <ele>4.6</ele>
        <time>2020-06-02T08:45:09Z</time>
      </trkpt>
      <trkpt lat="46.15822" lon="-1.15206">
        <ele>4.6</ele>
        <time>2020-06-02T08:45:10Z</time>
      </trkpt>
      <trkpt lat="46.15822" lon="-1.15206">
        <ele>4.6</ele>
        <time>2020-06-02T08:45:11Z</time>
      </trkpt>
      <trkpt lat="46.15822" lon="-1.15206">
        <ele>4.6</ele>
        <time>2020-06-02T08:45:12Z</time>
      </trkpt>
      <trkpt lat="46.15822" lon="-1.15206">
        <ele>4.6</ele>
        <time>2020-06-02T08:45:13Z</time>
      </trkpt>
      <trkpt lat="46.15822" lon="-1.15206">
        <ele>4.6</ele>
        <time>2020-06-02T08:45:14Z</time>
      </trkpt>
      <trkpt lat="46.15822" lon="-1.15206">
        <ele>4.6</ele>
        <time>2020-06-02T08:45:15Z</time>
      </trkpt>
      <trkpt lat="46.15822" lon="-1.15206">
        <ele>4.6</ele>
        <time>2020-06-02T08:45:16Z</time>
      </trkpt>
      <trkpt lat="46.15822" lon="-1.15206">
        <ele>4.6</ele>
        <time>2020-06-02T08:45:17Z</time>
      </trkpt>
      <trkpt lat="46.15822" lon="-1.15206">
        <ele>4.6</ele>
        <time>2020-06-02T08:45:18Z</time>
      </trkpt>
      <trkpt lat="46.15822" lon="-1.15206">
        <ele>4.6</ele>
        <time>2020-06-02T08:45:19Z</time>
      </trkpt>
      <trkpt lat="46.15822" lon="-1.15206">
        <ele>4.6</ele>
        <time>2020-06-02T08:45:20Z</time>
      </trkpt>
      <trkpt lat="46.15822" lon="-1.15206">
        <ele>4.6</ele>
        <time>2020-06-02T08:45:21Z</time>
      </trkpt>
      <trkpt lat="46.15822" lon="-1.15206">
        <ele>4.6</ele>
        <time>2020-06-02T08:45:22Z</time>
      </trkpt>
      <trkpt lat="46.15822" lon="-1.15206">
        <ele>4.6</ele>
        <time>2020-06-02T08:45:23Z</time>
      </trkpt>
      <trkpt lat="46.15822" lon="-1.15206">
        <ele>4.6</ele>
        <time>2020-06-02T08:45:24Z</time>
      </trkpt>
      <trkpt lat="46.15822" lon="-1.15206">
        <ele>4.6</ele>
        <time>2020-06-02T08:45:25Z</time>
      </trkpt>
      <trkpt lat="46.15822" lon="-1.15206">
        <ele>4.6</ele>
        <time>2020-06-02T08:45:26Z</time>
      </trkpt>
      <trkpt lat="46.15822" lon="-1.15206">
        <ele>4.6</ele>
        <time>2020-06-02T08:45:27Z</time>
      </trkpt>
      <trkpt lat="46.15822" lon="-1.15206">
        <ele>4.6</ele>
        <time>2020-06-02T08:45:28Z</time>
      </trkpt>
      <trkpt lat="46.15822" lon="-1.15206">
        <ele>4.6</ele>
        <time>2020-06-02T08:45:29Z</time>
      </trkpt>
      <trkpt lat="46.15822" lon="-1.15206">
        <ele>4.6</ele>
        <time>2020-06-02T08:45:30Z</time>
      </trkpt>
      <trkpt lat="46.15822" lon="-1.15206">
        <ele>4.6</ele>
        <time>2020-06-02T08:45:31Z</time>
      </trkpt>
      <trkpt lat="46.15822" lon="-1.15206">
        <ele>4.6</ele>
        <time>2020-06-02T08:45:32Z</time>
      </trkpt>
      <trkpt lat="46.15822" lon="-1.15206">
        <ele>4.6</ele>
        <time>2020-06-02T08:45:33Z</time>
      </trkpt>
      <trkpt lat="46.15822" lon="-1.15206">
        <ele>4.6</ele>
        <time>2020-06-02T08:45:34Z</time>
      </trkpt>
      <trkpt lat="46.15822" lon="-1.15206">
        <ele>4.6</ele>
        <time>2020-06-02T08:45:35Z</time>
      </trkpt>
      <trkpt lat="46.15822" lon="-1.15206">
        <ele>4.6</ele>
        <time>2020-06-02T08:45:36Z</time>
      </trkpt>
      <trkpt lat="46.15822" lon="-1.15206">
        <ele>4.6</ele>
        <time>2020-06-02T08:45:37Z</time>
      </trkpt>
      <trkpt lat="46.15822" lon="-1.15206">
        <ele>4.6</ele>
        <time>2020-06-02T08:45:38Z</time>
      </trkpt>
      <trkpt lat="46.15822" lon="-1.15206">
        <ele>4.6</ele>
        <time>2020-06-02T08:45:39Z</time>
      </trkpt>
      <trkpt lat="46.15824" lon="-1.15206">
        <ele>4.6</ele>
        <time>2020-06-02T08:45:40Z</time>
      </trkpt>
      <trkpt lat="46.15824" lon="-1.15206">
        <ele>4.6</ele>
        <time>2020-06-02T08:45:41Z</time>
      </trkpt>
      <trkpt lat="46.15824" lon="-1.15206">
        <ele>4.6</ele>
        <time>2020-06-02T08:45:42Z</time>
      </trkpt>
      <trkpt lat="46.15824" lon="-1.15206">
        <ele>4.6</ele>
        <time>2020-06-02T08:45:43Z</time>
      </trkpt>
      <trkpt lat="46.15824" lon="-1.15206">
        <ele>4.6</ele>
        <time>2020-06-02T08:45:44Z</time>
      </trkpt>
      <trkpt lat="46.15824" lon="-1.15206">
        <ele>4.6</ele>
        <time>2020-06-02T08:45:45Z</time>
      </trkpt>
      <trkpt lat="46.15825" lon="-1.15206">
        <ele>4.6</ele>
        <time>2020-06-02T08:45:46Z</time>
      </trkpt>
      <trkpt lat="46.15825" lon="-1.15206">
        <ele>4.6</ele>
        <time>2020-06-02T08:45:47Z</time>
      </trkpt>
      <trkpt lat="46.15825" lon="-1.15206">
        <ele>4.6</ele>
        <time>2020-06-02T08:45:48Z</time>
      </trkpt>
      <trkpt lat="46.15825" lon="-1.15206">
        <ele>4.6</ele>
        <time>2020-06-02T08:45:49Z</time>
      </trkpt>
      <trkpt lat="46.15825" lon="-1.15206">
        <ele>4.6</ele>
        <time>2020-06-02T08:45:50Z</time>
      </trkpt>
      <trkpt lat="46.15825" lon="-1.15206">
        <ele>4.6</ele>
        <time>2020-06-02T08:45:51Z</time>
      </trkpt>
      <trkpt lat="46.15825" lon="-1.15206">
        <ele>4.6</ele>
        <time>2020-06-02T08:45:52Z</time>
      </trkpt>
      <trkpt lat="46.15825" lon="-1.15206">
        <ele>4.6</ele>
        <time>2020-06-02T08:45:53Z</time>
      </trkpt>
      <trkpt lat="46.15825" lon="-1.15206">
        <ele>4.6</ele>
        <time>2020-06-02T08:45:54Z</time>
      </trkpt>
      <trkpt lat="46.15825" lon="-1.15206">
        <ele>4.6</ele>
        <time>2020-06-02T08:45:55Z</time>
      </trkpt>
      <trkpt lat="46.15825" lon="-1.15206">
        <ele>4.6</ele>
        <time>2020-06-02T08:45:56Z</time>
      </trkpt>
      <trkpt lat="46.15825" lon="-1.15206">
        <ele>4.6</ele>
        <time>2020-06-02T08:45:57Z</time>
      </trkpt>
      <trkpt lat="46.15825" lon="-1.15206">
        <ele>4.6</ele>
        <time>2020-06-02T08:45:58Z</time>
      </trkpt>
      <trkpt lat="46.15825" lon="-1.15206">
        <ele>4.6</ele>
        <time>2020-06-02T08:45:59Z</time>
      </trkpt>
      <trkpt lat="46.15825" lon="-1.15206">
        <ele>4.6</ele>
        <time>2020-06-02T08:46:00Z</time>
      </trkpt>
      <trkpt lat="46.15825" lon="-1.15206">
        <ele>4.6</ele>
        <time>2020-06-02T08:46:01Z</time>
      </trkpt>
      <trkpt lat="46.15825" lon="-1.15206">
        <ele>4.6</ele>
        <time>2020-06-02T08:46:02Z</time>
      </trkpt>
      <trkpt lat="46.15825" lon="-1.15206">
        <ele>4.6</ele>
        <time>2020-06-02T08:46:03Z</time>
      </trkpt>
      <trkpt lat="46.15825" lon="-1.15206">
        <ele>4.6</ele>
        <time>2020-06-02T08:46:04Z</time>
      </trkpt>
      <trkpt lat="46.15825" lon="-1.15206">
        <ele>4.6</ele>
        <time>2020-06-02T08:46:05Z</time>
      </trkpt>
      <trkpt lat="46.15825" lon="-1.15206">
        <ele>4.6</ele>
        <time>2020-06-02T08:46:06Z</time>
      </trkpt>
      <trkpt lat="46.15825" lon="-1.15206">
        <ele>4.6</ele>
        <time>2020-06-02T08:46:07Z</time>
      </trkpt>
      <trkpt lat="46.15825" lon="-1.15206">
        <ele>4.6</ele>
        <time>2020-06-02T08:46:08Z</time>
      </trkpt>
      <trkpt lat="46.15825" lon="-1.15206">
        <ele>4.6</ele>
        <time>2020-06-02T08:46:09Z</time>
      </trkpt>
      <trkpt lat="46.15825" lon="-1.15206">
        <ele>4.6</ele>
        <time>2020-06-02T08:46:10Z</time>
      </trkpt>
      <trkpt lat="46.15825" lon="-1.15206">
        <ele>4.6</ele>
        <time>2020-06-02T08:46:11Z</time>
      </trkpt>
      <trkpt lat="46.15825" lon="-1.15206">
        <ele>4.6</ele>
        <time>2020-06-02T08:46:12Z</time>
      </trkpt>
      <trkpt lat="46.15825" lon="-1.15206">
        <ele>4.6</ele>
        <time>2020-06-02T08:46:13Z</time>
      </trkpt>
      <trkpt lat="46.15825" lon="-1.15206">
        <ele>4.6</ele>
        <time>2020-06-02T08:46:14Z</time>
      </trkpt>
      <trkpt lat="46.15825" lon="-1.15206">
        <ele>4.6</ele>
        <time>2020-06-02T08:46:15Z</time>
      </trkpt>
      <trkpt lat="46.15826" lon="-1.15206">
        <ele>4.6</ele>
        <time>2020-06-02T08:46:16Z</time>
      </trkpt>
      <trkpt lat="46.15826" lon="-1.15207">
        <ele>4.6</ele>
        <time>2020-06-02T08:46:17Z</time>
      </trkpt>
      <trkpt lat="46.15826" lon="-1.15207">
        <ele>4.6</ele>
        <time>2020-06-02T08:46:18Z</time>
      </trkpt>
      <trkpt lat="46.15826" lon="-1.15207">
        <ele>4.6</ele>
        <time>2020-06-02T08:46:19Z</time>
      </trkpt>
      <trkpt lat="46.15826" lon="-1.15207">
        <ele>4.6</ele>
        <time>2020-06-02T08:46:20Z</time>
      </trkpt>
      <trkpt lat="46.15826" lon="-1.15207">
        <ele>4.6</ele>
        <time>2020-06-02T08:46:21Z</time>
      </trkpt>
      <trkpt lat="46.15826" lon="-1.15207">
        <ele>4.6</ele>
        <time>2020-06-02T08:46:22Z</time>
      </trkpt>
      <trkpt lat="46.15826" lon="-1.15207">
        <ele>4.6</ele>
        <time>2020-06-02T08:46:23Z</time>
      </trkpt>
      <trkpt lat="46.15826" lon="-1.15207">
        <ele>4.6</ele>
        <time>2020-06-02T08:46:24Z</time>
      </trkpt>
      <trkpt lat="46.15826" lon="-1.15207">
        <ele>4.6</ele>
        <time>2020-06-02T08:46:25Z</time>
      </trkpt>
      <trkpt lat="46.15826" lon="-1.15207">
        <ele>4.6</ele>
        <time>2020-06-02T08:46:26Z</time>
      </trkpt>
      <trkpt lat="46.15826" lon="-1.15207">
        <ele>4.6</ele>
        <time>2020-06-02T08:46:27Z</time>
      </trkpt>
      <trkpt lat="46.15826" lon="-1.15207">
        <ele>4.6</ele>
        <time>2020-06-02T08:46:28Z</time>
      </trkpt>
      <trkpt lat="46.15826" lon="-1.15207">
        <ele>4.6</ele>
        <time>2020-06-02T08:46:29Z</time>
      </trkpt>
      <trkpt lat="46.15826" lon="-1.15207">
        <ele>4.6</ele>
        <time>2020-06-02T08:46:30Z</time>
      </trkpt>
      <trkpt lat="46.15826" lon="-1.15207">
        <ele>4.6</ele>
        <time>2020-06-02T08:46:31Z</time>
      </trkpt>
      <trkpt lat="46.15826" lon="-1.15207">
        <ele>4.6</ele>
        <time>2020-06-02T08:46:32Z</time>
      </trkpt>
      <trkpt lat="46.15826" lon="-1.15207">
        <ele>4.6</ele>
        <time>2020-06-02T08:46:33Z</time>
      </trkpt>
      <trkpt lat="46.15826" lon="-1.15207">
        <ele>4.6</ele>
        <time>2020-06-02T08:46:34Z</time>
      </trkpt>
      <trkpt lat="46.15826" lon="-1.15207">
        <ele>4.6</ele>
        <time>2020-06-02T08:46:35Z</time>
      </trkpt>
      <trkpt lat="46.15826" lon="-1.15207">
        <ele>4.6</ele>
        <time>2020-06-02T08:46:36Z</time>
      </trkpt>
      <trkpt lat="46.15826" lon="-1.15207">
        <ele>4.6</ele>
        <time>2020-06-02T08:46:37Z</time>
      </trkpt>
      <trkpt lat="46.15826" lon="-1.15207">
        <ele>4.6</ele>
        <time>2020-06-02T08:46:38Z</time>
      </trkpt>
      <trkpt lat="46.15826" lon="-1.15207">
        <ele>4.6</ele>
        <time>2020-06-02T08:46:39Z</time>
      </trkpt>
      <trkpt lat="46.15826" lon="-1.15207">
        <ele>4.6</ele>
        <time>2020-06-02T08:46:40Z</time>
      </trkpt>
      <trkpt lat="46.15826" lon="-1.15207">
        <ele>4.6</ele>
        <time>2020-06-02T08:46:41Z</time>
      </trkpt>
      <trkpt lat="46.15826" lon="-1.15207">
        <ele>4.6</ele>
        <time>2020-06-02T08:46:42Z</time>
      </trkpt>
      <trkpt lat="46.15826" lon="-1.15207">
        <ele>4.6</ele>
        <time>2020-06-02T08:46:43Z</time>
      </trkpt>
      <trkpt lat="46.15826" lon="-1.15207">
        <ele>4.6</ele>
        <time>2020-06-02T08:46:44Z</time>
      </trkpt>
      <trkpt lat="46.15826" lon="-1.15207">
        <ele>4.6</ele>
        <time>2020-06-02T08:46:45Z</time>
      </trkpt>
      <trkpt lat="46.15826" lon="-1.15207">
        <ele>4.6</ele>
        <time>2020-06-02T08:46:46Z</time>
      </trkpt>
      <trkpt lat="46.15826" lon="-1.15207">
        <ele>4.6</ele>
        <time>2020-06-02T08:46:47Z</time>
      </trkpt>
      <trkpt lat="46.15826" lon="-1.15207">
        <ele>4.6</ele>
        <time>2020-06-02T08:46:48Z</time>
      </trkpt>
      <trkpt lat="46.15826" lon="-1.15207">
        <ele>4.6</ele>
        <time>2020-06-02T08:46:49Z</time>
      </trkpt>
      <trkpt lat="46.15827" lon="-1.15207">
        <ele>4.6</ele>
        <time>2020-06-02T08:46:50Z</time>
      </trkpt>
      <trkpt lat="46.15827" lon="-1.15207">
        <ele>4.6</ele>
        <time>2020-06-02T08:46:51Z</time>
      </trkpt>
      <trkpt lat="46.15827" lon="-1.15207">
        <ele>4.6</ele>
        <time>2020-06-02T08:46:52Z</time>
      </trkpt>
      <trkpt lat="46.15827" lon="-1.15207">
        <ele>4.6</ele>
        <time>2020-06-02T08:46:53Z</time>
      </trkpt>
      <trkpt lat="46.15827" lon="-1.15207">
        <ele>4.6</ele>
        <time>2020-06-02T08:46:54Z</time>
      </trkpt>
      <trkpt lat="46.15827" lon="-1.15207">
        <ele>4.6</ele>
        <time>2020-06-02T08:46:55Z</time>
      </trkpt>
      <trkpt lat="46.15827" lon="-1.15207">
        <ele>4.6</ele>
        <time>2020-06-02T08:46:56Z</time>
      </trkpt>
      <trkpt lat="46.15827" lon="-1.15207">
        <ele>4.6</ele>
        <time>2020-06-02T08:46:57Z</time>
      </trkpt>
      <trkpt lat="46.15827" lon="-1.15207">
        <ele>4.6</ele>
        <time>2020-06-02T08:46:58Z</time>
      </trkpt>
      <trkpt lat="46.15827" lon="-1.15207">
        <ele>4.6</ele>
        <time>2020-06-02T08:46:59Z</time>
      </trkpt>
      <trkpt lat="46.15827" lon="-1.15207">
        <ele>4.6</ele>
        <time>2020-06-02T08:47:00Z</time>
      </trkpt>
      <trkpt lat="46.15827" lon="-1.15207">
        <ele>4.6</ele>
        <time>2020-06-02T08:47:01Z</time>
      </trkpt>
      <trkpt lat="46.15827" lon="-1.15207">
        <ele>4.6</ele>
        <time>2020-06-02T08:47:02Z</time>
      </trkpt>
      <trkpt lat="46.15827" lon="-1.15207">
        <ele>4.6</ele>
        <time>2020-06-02T08:47:03Z</time>
      </trkpt>
      <trkpt lat="46.15827" lon="-1.15207">
        <ele>4.6</ele>
        <time>2020-06-02T08:47:04Z</time>
      </trkpt>
      <trkpt lat="46.15827" lon="-1.15207">
        <ele>4.6</ele>
        <time>2020-06-02T08:47:05Z</time>
      </trkpt>
      <trkpt lat="46.15827" lon="-1.15207">
        <ele>4.6</ele>
        <time>2020-06-02T08:47:06Z</time>
      </trkpt>
      <trkpt lat="46.15827" lon="-1.15207">
        <ele>4.6</ele>
        <time>2020-06-02T08:47:07Z</time>
      </trkpt>
      <trkpt lat="46.15827" lon="-1.15207">
        <ele>4.6</ele>
        <time>2020-06-02T08:47:08Z</time>
      </trkpt>
      <trkpt lat="46.15827" lon="-1.15207">
        <ele>4.6</ele>
        <time>2020-06-02T08:47:09Z</time>
      </trkpt>
      <trkpt lat="46.15827" lon="-1.15207">
        <ele>4.6</ele>
        <time>2020-06-02T08:47:10Z</time>
      </trkpt>
      <trkpt lat="46.15827" lon="-1.15207">
        <ele>4.6</ele>
        <time>2020-06-02T08:47:11Z</time>
      </trkpt>
      <trkpt lat="46.15827" lon="-1.15207">
        <ele>4.6</ele>
        <time>2020-06-02T08:47:12Z</time>
      </trkpt>
      <trkpt lat="46.15827" lon="-1.15207">
        <ele>4.6</ele>
        <time>2020-06-02T08:47:13Z</time>
      </trkpt>
      <trkpt lat="46.15827" lon="-1.15207">
        <ele>4.6</ele>
        <time>2020-06-02T08:47:14Z</time>
      </trkpt>
      <trkpt lat="46.15827" lon="-1.15207">
        <ele>4.6</ele>
        <time>2020-06-02T08:47:15Z</time>
      </trkpt>
      <trkpt lat="46.15827" lon="-1.15207">
        <ele>4.6</ele>
        <time>2020-06-02T08:47:16Z</time>
      </trkpt>
      <trkpt lat="46.15827" lon="-1.15207">
        <ele>4.6</ele>
        <time>2020-06-02T08:47:17Z</time>
      </trkpt>
      <trkpt lat="46.15827" lon="-1.15207">
        <ele>4.6</ele>
        <time>2020-06-02T08:47:18Z</time>
      </trkpt>
      <trkpt lat="46.15827" lon="-1.15207">
        <ele>4.6</ele>
        <time>2020-06-02T08:47:19Z</time>
      </trkpt>
      <trkpt lat="46.15827" lon="-1.15207">
        <ele>4.6</ele>
        <time>2020-06-02T08:47:20Z</time>
      </trkpt>
      <trkpt lat="46.15827" lon="-1.15207">
        <ele>4.6</ele>
        <time>2020-06-02T08:47:21Z</time>
      </trkpt>
      <trkpt lat="46.15827" lon="-1.15207">
        <ele>4.6</ele>
        <time>2020-06-02T08:47:22Z</time>
      </trkpt>
      <trkpt lat="46.15827" lon="-1.15207">
        <ele>4.6</ele>
        <time>2020-06-02T08:47:23Z</time>
      </trkpt>
      <trkpt lat="46.15828" lon="-1.15207">
        <ele>4.6</ele>
        <time>2020-06-02T08:47:24Z</time>
      </trkpt>
      <trkpt lat="46.15828" lon="-1.15208">
        <ele>4.6</ele>
        <time>2020-06-02T08:47:25Z</time>
      </trkpt>
      <trkpt lat="46.15828" lon="-1.15208">
        <ele>4.6</ele>
        <time>2020-06-02T08:47:26Z</time>
      </trkpt>
      <trkpt lat="46.15828" lon="-1.15208">
        <ele>4.6</ele>
        <time>2020-06-02T08:47:27Z</time>
      </trkpt>
      <trkpt lat="46.15828" lon="-1.15208">
        <ele>4.6</ele>
        <time>2020-06-02T08:47:28Z</time>
      </trkpt>
      <trkpt lat="46.15828" lon="-1.15208">
        <ele>4.6</ele>
        <time>2020-06-02T08:47:29Z</time>
      </trkpt>
      <trkpt lat="46.15828" lon="-1.15208">
        <ele>4.6</ele>
        <time>2020-06-02T08:47:30Z</time>
      </trkpt>
      <trkpt lat="46.15828" lon="-1.15208">
        <ele>4.6</ele>
        <time>2020-06-02T08:47:31Z</time>
      </trkpt>
      <trkpt lat="46.15828" lon="-1.15208">
        <ele>4.6</ele>
        <time>2020-06-02T08:47:32Z</time>
      </trkpt>
      <trkpt lat="46.15828" lon="-1.15208">
        <ele>4.6</ele>
        <time>2020-06-02T08:47:33Z</time>
      </trkpt>
      <trkpt lat="46.15828" lon="-1.15208">
        <ele>4.6</ele>
        <time>2020-06-02T08:47:34Z</time>
      </trkpt>
      <trkpt lat="46.15828" lon="-1.15208">
        <ele>4.6</ele>
        <time>2020-06-02T08:47:35Z</time>
      </trkpt>
      <trkpt lat="46.15828" lon="-1.15208">
        <ele>4.6</ele>
        <time>2020-06-02T08:47:36Z</time>
      </trkpt>
      <trkpt lat="46.15828" lon="-1.15208">
        <ele>4.6</ele>
        <time>2020-06-02T08:47:37Z</time>
      </trkpt>
      <trkpt lat="46.15828" lon="-1.15208">
        <ele>4.6</ele>
        <time>2020-06-02T08:47:38Z</time>
      </trkpt>
      <trkpt lat="46.15828" lon="-1.15208">
        <ele>4.6</ele>
        <time>2020-06-02T08:47:39Z</time>
      </trkpt>
      <trkpt lat="46.15828" lon="-1.15208">
        <ele>4.6</ele>
        <time>2020-06-02T08:47:40Z</time>
      </trkpt>
      <trkpt lat="46.15828" lon="-1.15208">
        <ele>4.6</ele>
        <time>2020-06-02T08:47:41Z</time>
      </trkpt>
      <trkpt lat="46.15828" lon="-1.15208">
        <ele>4.6</ele>
        <time>2020-06-02T08:47:42Z</time>
      </trkpt>
      <trkpt lat="46.15828" lon="-1.15208">
        <ele>4.6</ele>
        <time>2020-06-02T08:47:43Z</time>
      </trkpt>
      <trkpt lat="46.15828" lon="-1.15208">
        <ele>4.6</ele>
        <time>2020-06-02T08:47:44Z</time>
      </trkpt>
      <trkpt lat="46.15828" lon="-1.15208">
        <ele>4.6</ele>
        <time>2020-06-02T08:47:45Z</time>
      </trkpt>
      <trkpt lat="46.15828" lon="-1.15208">
        <ele>4.6</ele>
        <time>2020-06-02T08:47:46Z</time>
      </trkpt>
      <trkpt lat="46.15828" lon="-1.15208">
        <ele>4.6</ele>
        <time>2020-06-02T08:47:47Z</time>
      </trkpt>
      <trkpt lat="46.15828" lon="-1.15208">
        <ele>4.6</ele>
        <time>2020-06-02T08:47:48Z</time>
      </trkpt>
      <trkpt lat="46.15828" lon="-1.15208">
        <ele>4.6</ele>
        <time>2020-06-02T08:47:49Z</time>
      </trkpt>
      <trkpt lat="46.15828" lon="-1.15208">
        <ele>4.6</ele>
        <time>2020-06-02T08:47:50Z</time>
      </trkpt>
      <trkpt lat="46.15828" lon="-1.15208">
        <ele>4.6</ele>
        <time>2020-06-02T08:47:51Z</time>
      </trkpt>
      <trkpt lat="46.15828" lon="-1.15208">
        <ele>4.6</ele>
        <time>2020-06-02T08:47:52Z</time>
      </trkpt>
      <trkpt lat="46.15828" lon="-1.15208">
        <ele>4.6</ele>
        <time>2020-06-02T08:47:53Z</time>
      </trkpt>
      <trkpt lat="46.15828" lon="-1.15208">
        <ele>4.6</ele>
        <time>2020-06-02T08:47:54Z</time>
      </trkpt>
      <trkpt lat="46.15828" lon="-1.15208">
        <ele>4.6</ele>
        <time>2020-06-02T08:47:55Z</time>
      </trkpt>
      <trkpt lat="46.15828" lon="-1.15208">
        <ele>4.6</ele>
        <time>2020-06-02T08:47:56Z</time>
      </trkpt>
      <trkpt lat="46.15828" lon="-1.15208">
        <ele>4.6</ele>
        <time>2020-06-02T08:47:57Z</time>
      </trkpt>
      <trkpt lat="46.15829" lon="-1.15208">
        <ele>4.6</ele>
        <time>2020-06-02T08:47:58Z</time>
      </trkpt>
      <trkpt lat="46.15829" lon="-1.15208">
        <ele>4.6</ele>
        <time>2020-06-02T08:47:59Z</time>
      </trkpt>
      <trkpt lat="46.15829" lon="-1.15208">
        <ele>4.6</ele>
        <time>2020-06-02T08:48:00Z</time>
      </trkpt>
      <trkpt lat="46.15829" lon="-1.15208">
        <ele>4.6</ele>
        <time>2020-06-02T08:48:01Z</time>
      </trkpt>
      <trkpt lat="46.15829" lon="-1.15208">
        <ele>4.6</ele>
        <time>2020-06-02T08:48:02Z</time>
      </trkpt>
      <trkpt lat="46.15829" lon="-1.15208">
        <ele>4.6</ele>
        <time>2020-06-02T08:48:03Z</time>
      </trkpt>
      <trkpt lat="46.15829" lon="-1.15208">
        <ele>4.6</ele>
        <time>2020-06-02T08:48:04Z</time>
      </trkpt>
      <trkpt lat="46.15829" lon="-1.15208">
        <ele>4.6</ele>
        <time>2020-06-02T08:48:05Z</time>
      </trkpt>
      <trkpt lat="46.15829" lon="-1.15208">
        <ele>4.6</ele>
        <time>2020-06-02T08:48:06Z</time>
      </trkpt>
      <trkpt lat="46.15829" lon="-1.15208">
        <ele>4.6</ele>
        <time>2020-06-02T08:48:07Z</time>
      </trkpt>
      <trkpt lat="46.15829" lon="-1.15208">
        <ele>4.6</ele>
        <time>2020-06-02T08:48:08Z</time>
      </trkpt>
      <trkpt lat="46.15829" lon="-1.15208">
        <ele>4.6</ele>
        <time>2020-06-02T08:48:09Z</time>
      </trkpt>
      <trkpt lat="46.15829" lon="-1.15208">
        <ele>4.6</ele>
        <time>2020-06-02T08:48:10Z</time>
      </trkpt>
      <trkpt lat="46.15829" lon="-1.15208">
        <ele>4.6</ele>
        <time>2020-06-02T08:48:11Z</time>
      </trkpt>
      <trkpt lat="46.15829" lon="-1.15208">
        <ele>4.6</ele>
        <time>2020-06-02T08:48:12Z</time>
      </trkpt>
      <trkpt lat="46.15829" lon="-1.15208">
        <ele>4.6</ele>
        <time>2020-06-02T08:48:13Z</time>
      </trkpt>
      <trkpt lat="46.15829" lon="-1.15208">
        <ele>4.6</ele>
        <time>2020-06-02T08:48:14Z</time>
      </trkpt>
      <trkpt lat="46.15829" lon="-1.15208">
        <ele>4.6</ele>
        <time>2020-06-02T08:48:15Z</time>
      </trkpt>
      <trkpt lat="46.15829" lon="-1.15208">
        <ele>4.6</ele>
        <time>2020-06-02T08:48:16Z</time>
      </trkpt>
      <trkpt lat="46.15829" lon="-1.15208">
        <ele>4.6</ele>
        <time>2020-06-02T08:48:17Z</time>
      </trkpt>
      <trkpt lat="46.15829" lon="-1.15208">
        <ele>4.6</ele>
        <time>2020-06-02T08:48:18Z</time>
      </trkpt>
      <trkpt lat="46.15829" lon="-1.15208">
        <ele>4.6</ele>
        <time>2020-06-02T08:48:19Z</time>
      </trkpt>
      <trkpt lat="46.15829" lon="-1.15208">
        <ele>4.6</ele>
        <time>2020-06-02T08:48:20Z</time>
      </trkpt>
      <trkpt lat="46.15829" lon="-1.15208">
        <ele>4.6</ele>
        <time>2020-06-02T08:48:21Z</time>
      </trkpt>
      <trkpt lat="46.15829" lon="-1.15208">
        <ele>4.6</ele>
        <time>2020-06-02T08:48:22Z</time>
      </trkpt>
      <trkpt lat="46.15829" lon="-1.15208">
        <ele>4.6</ele>
        <time>2020-06-02T08:48:23Z</time>
      </trkpt>
      <trkpt lat="46.15829" lon="-1.15208">
        <ele>4.6</ele>
        <time>2020-06-02T08:48:24Z</time>
      </trkpt>
      <trkpt lat="46.15829" lon="-1.15208">
        <ele>4.6</ele>
        <time>2020-06-02T08:48:25Z</time>
      </trkpt>
      <trkpt lat="46.15829" lon="-1.15207">
        <ele>4.6</ele>
        <time>2020-06-02T08:48:26Z</time>
      </trkpt>
      <trkpt lat="46.1583" lon="-1.15207">
        <ele>4.6</ele>
        <time>2020-06-02T08:48:27Z</time>
      </trkpt>
      <trkpt lat="46.15829" lon="-1.15206">
        <ele>4.6</ele>
        <time>2020-06-02T08:48:28Z</time>
      </trkpt>
      <trkpt lat="46.15829" lon="-1.15206">
        <ele>4.6</ele>
        <time>2020-06-02T08:48:29Z</time>
      </trkpt>
      <trkpt lat="46.15829" lon="-1.15206">
        <ele>4.6</ele>
        <time>2020-06-02T08:48:30Z</time>
      </trkpt>
      <trkpt lat="46.15829" lon="-1.15206">
        <ele>4.6</ele>
        <time>2020-06-02T08:48:31Z</time>
      </trkpt>
      <trkpt lat="46.15829" lon="-1.15206">
        <ele>4.6</ele>
        <time>2020-06-02T08:48:32Z</time>
      </trkpt>
      <trkpt lat="46.15829" lon="-1.15206">
        <ele>4.6</ele>
        <time>2020-06-02T08:48:33Z</time>
      </trkpt>
      <trkpt lat="46.15829" lon="-1.15206">
        <ele>4.6</ele>
        <time>2020-06-02T08:48:34Z</time>
      </trkpt>
      <trkpt lat="46.15829" lon="-1.15206">
        <ele>4.6</ele>
        <time>2020-06-02T08:48:35Z</time>
      </trkpt>
      <trkpt lat="46.15829" lon="-1.15206">
        <ele>4.6</ele>
        <time>2020-06-02T08:48:36Z</time>
      </trkpt>
      <trkpt lat="46.15829" lon="-1.15206">
        <ele>4.6</ele>
        <time>2020-06-02T08:48:37Z</time>
      </trkpt>
      <trkpt lat="46.15829" lon="-1.15206">
        <ele>4.6</ele>
        <time>2020-06-02T08:48:38Z</time>
      </trkpt>
      <trkpt lat="46.15829" lon="-1.15206">
        <ele>4.6</ele>
        <time>2020-06-02T08:48:39Z</time>
      </trkpt>
      <trkpt lat="46.15829" lon="-1.15206">
        <ele>4.6</ele>
        <time>2020-06-02T08:48:40Z</time>
      </trkpt>
      <trkpt lat="46.15829" lon="-1.15206">
        <ele>4.6</ele>
        <time>2020-06-02T08:48:41Z</time>
      </trkpt>
      <trkpt lat="46.15829" lon="-1.15206">
        <ele>4.6</ele>
        <time>2020-06-02T08:48:42Z</time>
      </trkpt>
      <trkpt lat="46.15829" lon="-1.15206">
        <ele>4.6</ele>
        <time>2020-06-02T08:48:43Z</time>
      </trkpt>
      <trkpt lat="46.15829" lon="-1.15206">
        <ele>4.6</ele>
        <time>2020-06-02T08:48:44Z</time>
      </trkpt>
      <trkpt lat="46.15829" lon="-1.15206">
        <ele>4.6</ele>
        <time>2020-06-02T08:48:45Z</time>
      </trkpt>
      <trkpt lat="46.15829" lon="-1.15206">
        <ele>4.6</ele>
        <time>2020-06-02T08:48:46Z</time>
      </trkpt>
      <trkpt lat="46.15829" lon="-1.15206">
        <ele>4.6</ele>
        <time>2020-06-02T08:48:47Z</time>
      </trkpt>
      <trkpt lat="46.15829" lon="-1.15206">
        <ele>4.6</ele>
        <time>2020-06-02T08:48:48Z</time>
      </trkpt>
      <trkpt lat="46.15829" lon="-1.15206">
        <ele>4.6</ele>
        <time>2020-06-02T08:48:49Z</time>
      </trkpt>
      <trkpt lat="46.15829" lon="-1.15206">
        <ele>4.6</ele>
        <time>2020-06-02T08:48:50Z</time>
      </trkpt>
      <trkpt lat="46.15829" lon="-1.15206">
        <ele>4.6</ele>
        <time>2020-06-02T08:48:51Z</time>
      </trkpt>
      <trkpt lat="46.15829" lon="-1.15206">
        <ele>4.6</ele>
        <time>2020-06-02T08:48:52Z</time>
      </trkpt>
      <trkpt lat="46.1583" lon="-1.15206">
        <ele>4.6</ele>
        <time>2020-06-02T08:48:53Z</time>
      </trkpt>
      <trkpt lat="46.1583" lon="-1.15206">
        <ele>4.6</ele>
        <time>2020-06-02T08:48:54Z</time>
      </trkpt>
      <trkpt lat="46.1583" lon="-1.15206">
        <ele>4.6</ele>
        <time>2020-06-02T08:48:55Z</time>
      </trkpt>
      <trkpt lat="46.1583" lon="-1.15206">
        <ele>4.6</ele>
        <time>2020-06-02T08:48:56Z</time>
      </trkpt>
      <trkpt lat="46.1583" lon="-1.15206">
        <ele>4.6</ele>
        <time>2020-06-02T08:48:57Z</time>
      </trkpt>
      <trkpt lat="46.1583" lon="-1.15206">
        <ele>4.6</ele>
        <time>2020-06-02T08:48:58Z</time>
      </trkpt>
      <trkpt lat="46.1583" lon="-1.15206">
        <ele>4.6</ele>
        <time>2020-06-02T08:48:59Z</time>
      </trkpt>
      <trkpt lat="46.1583" lon="-1.15206">
        <ele>4.6</ele>
        <time>2020-06-02T08:49:00Z</time>
      </trkpt>
      <trkpt lat="46.1583" lon="-1.15206">
        <ele>4.6</ele>
        <time>2020-06-02T08:49:01Z</time>
      </trkpt>
      <trkpt lat="46.1583" lon="-1.15206">
        <ele>4.6</ele>
        <time>2020-06-02T08:49:02Z</time>
      </trkpt>
      <trkpt lat="46.1583" lon="-1.15206">
        <ele>4.6</ele>
        <time>2020-06-02T08:49:03Z</time>
      </trkpt>
      <trkpt lat="46.1583" lon="-1.15206">
        <ele>4.6</ele>
        <time>2020-06-02T08:49:04Z</time>
      </trkpt>
      <trkpt lat="46.1583" lon="-1.15206">
        <ele>4.6</ele>
        <time>2020-06-02T08:49:05Z</time>
      </trkpt>
      <trkpt lat="46.1583" lon="-1.15206">
        <ele>4.6</ele>
        <time>2020-06-02T08:49:06Z</time>
      </trkpt>
      <trkpt lat="46.1583" lon="-1.15206">
        <ele>4.6</ele>
        <time>2020-06-02T08:49:07Z</time>
      </trkpt>
      <trkpt lat="46.1583" lon="-1.15206">
        <ele>4.6</ele>
        <time>2020-06-02T08:49:08Z</time>
      </trkpt>
      <trkpt lat="46.1583" lon="-1.15206">
        <ele>4.6</ele>
        <time>2020-06-02T08:49:09Z</time>
      </trkpt>
      <trkpt lat="46.1583" lon="-1.15206">
        <ele>4.6</ele>
        <time>2020-06-02T08:49:10Z</time>
      </trkpt>
      <trkpt lat="46.1583" lon="-1.15206">
        <ele>4.6</ele>
        <time>2020-06-02T08:49:11Z</time>
      </trkpt>
      <trkpt lat="46.1583" lon="-1.15206">
        <ele>4.6</ele>
        <time>2020-06-02T08:49:12Z</time>
      </trkpt>
      <trkpt lat="46.1583" lon="-1.15206">
        <ele>4.6</ele>
        <time>2020-06-02T08:49:13Z</time>
      </trkpt>
      <trkpt lat="46.1583" lon="-1.15206">
        <ele>4.6</ele>
        <time>2020-06-02T08:49:14Z</time>
      </trkpt>
      <trkpt lat="46.1583" lon="-1.15206">
        <ele>4.6</ele>
        <time>2020-06-02T08:49:15Z</time>
      </trkpt>
      <trkpt lat="46.1583" lon="-1.15206">
        <ele>4.6</ele>
        <time>2020-06-02T08:49:16Z</time>
      </trkpt>
      <trkpt lat="46.1583" lon="-1.15206">
        <ele>4.6</ele>
        <time>2020-06-02T08:49:17Z</time>
      </trkpt>
      <trkpt lat="46.1583" lon="-1.15206">
        <ele>4.6</ele>
        <time>2020-06-02T08:49:18Z</time>
      </trkpt>
      <trkpt lat="46.1583" lon="-1.15206">
        <ele>4.6</ele>
        <time>2020-06-02T08:49:19Z</time>
      </trkpt>
      <trkpt lat="46.1583" lon="-1.15206">
        <ele>4.6</ele>
        <time>2020-06-02T08:49:20Z</time>
      </trkpt>
      <trkpt lat="46.1583" lon="-1.15206">
        <ele>4.6</ele>
        <time>2020-06-02T08:49:21Z</time>
      </trkpt>
      <trkpt lat="46.1583" lon="-1.15206">
        <ele>4.6</ele>
        <time>2020-06-02T08:49:22Z</time>
      </trkpt>
      <trkpt lat="46.1583" lon="-1.15206">
        <ele>4.6</ele>
        <time>2020-06-02T08:49:23Z</time>
      </trkpt>
      <trkpt lat="46.1583" lon="-1.15206">
        <ele>4.6</ele>
        <time>2020-06-02T08:49:24Z</time>
      </trkpt>
      <trkpt lat="46.1583" lon="-1.15206">
        <ele>4.6</ele>
        <time>2020-06-02T08:49:25Z</time>
      </trkpt>
      <trkpt lat="46.1583" lon="-1.15206">
        <ele>4.6</ele>
        <time>2020-06-02T08:49:26Z</time>
      </trkpt>
      <trkpt lat="46.1583" lon="-1.15206">
        <ele>4.6</ele>
        <time>2020-06-02T08:49:27Z</time>
      </trkpt>
      <trkpt lat="46.1583" lon="-1.15206">
        <ele>4.6</ele>
        <time>2020-06-02T08:49:28Z</time>
      </trkpt>
      <trkpt lat="46.1583" lon="-1.15206">
        <ele>4.6</ele>
        <time>2020-06-02T08:49:29Z</time>
      </trkpt>
      <trkpt lat="46.1583" lon="-1.15206">
        <ele>4.6</ele>
        <time>2020-06-02T08:49:30Z</time>
      </trkpt>
      <trkpt lat="46.1583" lon="-1.15206">
        <ele>4.6</ele>
        <time>2020-06-02T08:49:31Z</time>
      </trkpt>
      <trkpt lat="46.1583" lon="-1.15206">
        <ele>4.6</ele>
        <time>2020-06-02T08:49:32Z</time>
      </trkpt>
      <trkpt lat="46.1583" lon="-1.15206">
        <ele>4.6</ele>
        <time>2020-06-02T08:49:33Z</time>
      </trkpt>
      <trkpt lat="46.1583" lon="-1.15206">
        <ele>4.6</ele>
        <time>2020-06-02T08:49:34Z</time>
      </trkpt>
      <trkpt lat="46.1583" lon="-1.15206">
        <ele>4.6</ele>
        <time>2020-06-02T08:49:35Z</time>
      </trkpt>
      <trkpt lat="46.1583" lon="-1.15206">
        <ele>4.6</ele>
        <time>2020-06-02T08:49:36Z</time>
      </trkpt>
      <trkpt lat="46.1583" lon="-1.15206">
        <ele>4.6</ele>
        <time>2020-06-02T08:49:37Z</time>
      </trkpt>
      <trkpt lat="46.1583" lon="-1.15206">
        <ele>4.6</ele>
        <time>2020-06-02T08:49:38Z</time>
      </trkpt>
      <trkpt lat="46.1583" lon="-1.15206">
        <ele>4.6</ele>
        <time>2020-06-02T08:49:39Z</time>
      </trkpt>
      <trkpt lat="46.15831" lon="-1.15206">
        <ele>4.6</ele>
        <time>2020-06-02T08:49:40Z</time>
      </trkpt>
      <trkpt lat="46.15831" lon="-1.15206">
        <ele>4.6</ele>
        <time>2020-06-02T08:49:41Z</time>
      </trkpt>
      <trkpt lat="46.15831" lon="-1.15206">
        <ele>4.6</ele>
        <time>2020-06-02T08:49:42Z</time>
      </trkpt>
      <trkpt lat="46.15831" lon="-1.15206">
        <ele>4.6</ele>
        <time>2020-06-02T08:49:43Z</time>
      </trkpt>
      <trkpt lat="46.15831" lon="-1.15205">
        <ele>4.6</ele>
        <time>2020-06-02T08:49:44Z</time>
      </trkpt>
      <trkpt lat="46.15831" lon="-1.15205">
        <ele>4.6</ele>
        <time>2020-06-02T08:49:45Z</time>
      </trkpt>
      <trkpt lat="46.15831" lon="-1.15205">
        <ele>4.6</ele>
        <time>2020-06-02T08:49:46Z</time>
      </trkpt>
      <trkpt lat="46.15831" lon="-1.15205">
        <ele>4.6</ele>
        <time>2020-06-02T08:49:47Z</time>
      </trkpt>
      <trkpt lat="46.15831" lon="-1.15205">
        <ele>4.6</ele>
        <time>2020-06-02T08:49:48Z</time>
      </trkpt>
      <trkpt lat="46.15831" lon="-1.15205">
        <ele>4.6</ele>
        <time>2020-06-02T08:49:49Z</time>
      </trkpt>
      <trkpt lat="46.15831" lon="-1.15205">
        <ele>4.6</ele>
        <time>2020-06-02T08:49:50Z</time>
      </trkpt>
      <trkpt lat="46.15831" lon="-1.15205">
        <ele>4.6</ele>
        <time>2020-06-02T08:49:51Z</time>
      </trkpt>
      <trkpt lat="46.15831" lon="-1.15205">
        <ele>4.6</ele>
        <time>2020-06-02T08:49:52Z</time>
      </trkpt>
      <trkpt lat="46.15831" lon="-1.15205">
        <ele>4.6</ele>
        <time>2020-06-02T08:49:53Z</time>
      </trkpt>
      <trkpt lat="46.15831" lon="-1.15205">
        <ele>4.6</ele>
        <time>2020-06-02T08:49:54Z</time>
      </trkpt>
      <trkpt lat="46.15831" lon="-1.15205">
        <ele>4.6</ele>
        <time>2020-06-02T08:49:55Z</time>
      </trkpt>
      <trkpt lat="46.15831" lon="-1.15205">
        <ele>4.6</ele>
        <time>2020-06-02T08:49:56Z</time>
      </trkpt>
      <trkpt lat="46.15831" lon="-1.15205">
        <ele>4.6</ele>
        <time>2020-06-02T08:49:57Z</time>
      </trkpt>
      <trkpt lat="46.15831" lon="-1.15205">
        <ele>4.6</ele>
        <time>2020-06-02T08:49:58Z</time>
      </trkpt>
      <trkpt lat="46.15831" lon="-1.15205">
        <ele>4.6</ele>
        <time>2020-06-02T08:49:59Z</time>
      </trkpt>
      <trkpt lat="46.15831" lon="-1.15205">
        <ele>4.6</ele>
        <time>2020-06-02T08:50:00Z</time>
      </trkpt>
      <trkpt lat="46.15831" lon="-1.15205">
        <ele>4.6</ele>
        <time>2020-06-02T08:50:01Z</time>
      </trkpt>
      <trkpt lat="46.15831" lon="-1.15205">
        <ele>4.6</ele>
        <time>2020-06-02T08:50:02Z</time>
      </trkpt>
      <trkpt lat="46.15831" lon="-1.15205">
        <ele>4.6</ele>
        <time>2020-06-02T08:50:03Z</time>
      </trkpt>
      <trkpt lat="46.15831" lon="-1.15205">
        <ele>4.6</ele>
        <time>2020-06-02T08:50:04Z</time>
      </trkpt>
      <trkpt lat="46.15831" lon="-1.15205">
        <ele>4.6</ele>
        <time>2020-06-02T08:50:05Z</time>
      </trkpt>
      <trkpt lat="46.15831" lon="-1.15205">
        <ele>4.6</ele>
        <time>2020-06-02T08:50:06Z</time>
      </trkpt>
      <trkpt lat="46.15831" lon="-1.15205">
        <ele>4.6</ele>
        <time>2020-06-02T08:50:07Z</time>
      </trkpt>
      <trkpt lat="46.15831" lon="-1.15205">
        <ele>4.6</ele>
        <time>2020-06-02T08:50:08Z</time>
      </trkpt>
      <trkpt lat="46.15831" lon="-1.15205">
        <ele>4.6</ele>
        <time>2020-06-02T08:50:09Z</time>
      </trkpt>
      <trkpt lat="46.15831" lon="-1.15205">
        <ele>4.6</ele>
        <time>2020-06-02T08:50:10Z</time>
      </trkpt>
      <trkpt lat="46.15831" lon="-1.15205">
        <ele>4.6</ele>
        <time>2020-06-02T08:50:11Z</time>
      </trkpt>
      <trkpt lat="46.15831" lon="-1.15205">
        <ele>4.6</ele>
        <time>2020-06-02T08:50:12Z</time>
      </trkpt>
      <trkpt lat="46.15831" lon="-1.15205">
        <ele>4.6</ele>
        <time>2020-06-02T08:50:13Z</time>
      </trkpt>
      <trkpt lat="46.15831" lon="-1.15205">
        <ele>4.6</ele>
        <time>2020-06-02T08:50:14Z</time>
      </trkpt>
      <trkpt lat="46.15831" lon="-1.15205">
        <ele>4.6</ele>
        <time>2020-06-02T08:50:15Z</time>
      </trkpt>
      <trkpt lat="46.15831" lon="-1.15205">
        <ele>4.6</ele>
        <time>2020-06-02T08:50:16Z</time>
      </trkpt>
      <trkpt lat="46.15831" lon="-1.15205">
        <ele>4.6</ele>
        <time>2020-06-02T08:50:17Z</time>
      </trkpt>
      <trkpt lat="46.15831" lon="-1.15205">
        <ele>4.6</ele>
        <time>2020-06-02T08:50:18Z</time>
      </trkpt>
      <trkpt lat="46.15832" lon="-1.15205">
        <ele>4.6</ele>
        <time>2020-06-02T08:50:19Z</time>
      </trkpt>
      <trkpt lat="46.15832" lon="-1.15205">
        <ele>4.6</ele>
        <time>2020-06-02T08:50:20Z</time>
      </trkpt>
      <trkpt lat="46.15832" lon="-1.15205">
        <ele>4.6</ele>
        <time>2020-06-02T08:50:21Z</time>
      </trkpt>
      <trkpt lat="46.15832" lon="-1.15205">
        <ele>4.6</ele>
        <time>2020-06-02T08:50:22Z</time>
      </trkpt>
      <trkpt lat="46.15832" lon="-1.15205">
        <ele>4.6</ele>
        <time>2020-06-02T08:50:23Z</time>
      </trkpt>
      <trkpt lat="46.15832" lon="-1.15205">
        <ele>4.6</ele>
        <time>2020-06-02T08:50:24Z</time>
      </trkpt>
      <trkpt lat="46.15832" lon="-1.15205">
        <ele>4.6</ele>
        <time>2020-06-02T08:50:25Z</time>
      </trkpt>
      <trkpt lat="46.15832" lon="-1.15205">
        <ele>4.6</ele>
        <time>2020-06-02T08:50:26Z</time>
      </trkpt>
      <trkpt lat="46.15832" lon="-1.15205">
        <ele>4.6</ele>
        <time>2020-06-02T08:50:27Z</time>
      </trkpt>
      <trkpt lat="46.15832" lon="-1.15205">
        <ele>4.6</ele>
        <time>2020-06-02T08:50:28Z</time>
      </trkpt>
      <trkpt lat="46.15832" lon="-1.15205">
        <ele>4.6</ele>
        <time>2020-06-02T08:50:29Z</time>
      </trkpt>
      <trkpt lat="46.15831" lon="-1.15205">
        <ele>4.6</ele>
        <time>2020-06-02T08:50:30Z</time>
      </trkpt>
      <trkpt lat="46.15831" lon="-1.15205">
        <ele>4.6</ele>
        <time>2020-06-02T08:50:31Z</time>
      </trkpt>
      <trkpt lat="46.15831" lon="-1.15206">
        <ele>4.6</ele>
        <time>2020-06-02T08:50:32Z</time>
      </trkpt>
      <trkpt lat="46.15831" lon="-1.15206">
        <ele>4.6</ele>
        <time>2020-06-02T08:50:33Z</time>
      </trkpt>
      <trkpt lat="46.15831" lon="-1.15207">
        <ele>4.6</ele>
        <time>2020-06-02T08:50:34Z</time>
      </trkpt>
      <trkpt lat="46.15831" lon="-1.15207">
        <ele>4.6</ele>
        <time>2020-06-02T08:50:35Z</time>
      </trkpt>
      <trkpt lat="46.15831" lon="-1.15207">
        <ele>4.6</ele>
        <time>2020-06-02T08:50:36Z</time>
      </trkpt>
      <trkpt lat="46.15831" lon="-1.15207">
        <ele>4.6</ele>
        <time>2020-06-02T08:50:37Z</time>
      </trkpt>
      <trkpt lat="46.15832" lon="-1.15208">
        <ele>4.6</ele>
        <time>2020-06-02T08:50:38Z</time>
      </trkpt>
      <trkpt lat="46.15831" lon="-1.15208">
        <ele>4.6</ele>
        <time>2020-06-02T08:50:39Z</time>
      </trkpt>
      <trkpt lat="46.15831" lon="-1.15207">
        <ele>4.6</ele>
        <time>2020-06-02T08:50:40Z</time>
      </trkpt>
      <trkpt lat="46.15832" lon="-1.15207">
        <ele>4.6</ele>
        <time>2020-06-02T08:50:41Z</time>
      </trkpt>
      <trkpt lat="46.15832" lon="-1.15207">
        <ele>4.6</ele>
        <time>2020-06-02T08:50:42Z</time>
      </trkpt>
      <trkpt lat="46.15831" lon="-1.15207">
        <ele>4.6</ele>
        <time>2020-06-02T08:50:43Z</time>
      </trkpt>
      <trkpt lat="46.15831" lon="-1.15207">
        <ele>4.6</ele>
        <time>2020-06-02T08:50:44Z</time>
      </trkpt>
      <trkpt lat="46.1583" lon="-1.15207">
        <ele>4.6</ele>
        <time>2020-06-02T08:50:45Z</time>
      </trkpt>
      <trkpt lat="46.1583" lon="-1.15207">
        <ele>4.6</ele>
        <time>2020-06-02T08:50:46Z</time>
      </trkpt>
      <trkpt lat="46.15829" lon="-1.15206">
        <ele>4.6</ele>
        <time>2020-06-02T08:50:47Z</time>
      </trkpt>
      <trkpt lat="46.15828" lon="-1.15205">
        <ele>4.6</ele>
        <time>2020-06-02T08:50:48Z</time>
      </trkpt>
      <trkpt lat="46.15827" lon="-1.15207">
        <ele>4.6</ele>
        <time>2020-06-02T08:50:49Z</time>
      </trkpt>
      <trkpt lat="46.15827" lon="-1.15207">
        <ele>4.6</ele>
        <time>2020-06-02T08:50:50Z</time>
      </trkpt>
      <trkpt lat="46.15827" lon="-1.15207">
        <ele>4.6</ele>
        <time>2020-06-02T08:50:51Z</time>
      </trkpt>
      <trkpt lat="46.15827" lon="-1.15207">
        <ele>4.6</ele>
        <time>2020-06-02T08:50:52Z</time>
      </trkpt>
      <trkpt lat="46.15827" lon="-1.15208">
        <ele>4.6</ele>
        <time>2020-06-02T08:50:53Z</time>
      </trkpt>
      <trkpt lat="46.15827" lon="-1.15208">
        <ele>4.6</ele>
        <time>2020-06-02T08:50:54Z</time>
      </trkpt>
      <trkpt lat="46.15827" lon="-1.15208">
        <ele>4.6</ele>
        <time>2020-06-02T08:50:55Z</time>
      </trkpt>
      <trkpt lat="46.15827" lon="-1.15208">
        <ele>4.6</ele>
        <time>2020-06-02T08:50:56Z</time>
      </trkpt>
      <trkpt lat="46.15827" lon="-1.15208">
        <ele>4.6</ele>
        <time>2020-06-02T08:50:57Z</time>
      </trkpt>
      <trkpt lat="46.15827" lon="-1.15207">
        <ele>4.6</ele>
        <time>2020-06-02T08:50:58Z</time>
      </trkpt>
      <trkpt lat="46.15827" lon="-1.15207">
        <ele>4.6</ele>
        <time>2020-06-02T08:50:59Z</time>
      </trkpt>
      <trkpt lat="46.15826" lon="-1.15208">
        <ele>4.6</ele>
        <time>2020-06-02T08:51:00Z</time>
      </trkpt>
      <trkpt lat="46.15827" lon="-1.15208">
        <ele>4.6</ele>
        <time>2020-06-02T08:51:01Z</time>
      </trkpt>
      <trkpt lat="46.15827" lon="-1.15208">
        <ele>4.6</ele>
        <time>2020-06-02T08:51:02Z</time>
      </trkpt>
      <trkpt lat="46.15827" lon="-1.15208">
        <ele>4.6</ele>
        <time>2020-06-02T08:51:03Z</time>
      </trkpt>
      <trkpt lat="46.15827" lon="-1.15208">
        <ele>4.6</ele>
        <time>2020-06-02T08:51:04Z</time>
      </trkpt>
      <trkpt lat="46.15827" lon="-1.15208">
        <ele>4.6</ele>
        <time>2020-06-02T08:51:05Z</time>
      </trkpt>
      <trkpt lat="46.15827" lon="-1.15208">
        <ele>4.6</ele>
        <time>2020-06-02T08:51:06Z</time>
      </trkpt>
      <trkpt lat="46.15827" lon="-1.15208">
        <ele>4.6</ele>
        <time>2020-06-02T08:51:07Z</time>
      </trkpt>
      <trkpt lat="46.15826" lon="-1.15208">
        <ele>4.6</ele>
        <time>2020-06-02T08:51:08Z</time>
      </trkpt>
      <trkpt lat="46.15826" lon="-1.15208">
        <ele>4.6</ele>
        <time>2020-06-02T08:51:09Z</time>
      </trkpt>
      <trkpt lat="46.15826" lon="-1.15207">
        <ele>4.6</ele>
        <time>2020-06-02T08:51:10Z</time>
      </trkpt>
      <trkpt lat="46.15826" lon="-1.15207">
        <ele>4.6</ele>
        <time>2020-06-02T08:51:11Z</time>
      </trkpt>
      <trkpt lat="46.15827" lon="-1.15207">
        <ele>4.6</ele>
        <time>2020-06-02T08:51:12Z</time>
      </trkpt>
      <trkpt lat="46.15826" lon="-1.15207">
        <ele>4.6</ele>
        <time>2020-06-02T08:51:13Z</time>
      </trkpt>
      <trkpt lat="46.15826" lon="-1.15206">
        <ele>4.6</ele>
        <time>2020-06-02T08:51:14Z</time>
      </trkpt>
      <trkpt lat="46.15826" lon="-1.15206">
        <ele>4.6</ele>
        <time>2020-06-02T08:51:15Z</time>
      </trkpt>
      <trkpt lat="46.15826" lon="-1.15205">
        <ele>4.6</ele>
        <time>2020-06-02T08:51:16Z</time>
      </trkpt>
      <trkpt lat="46.15826" lon="-1.15205">
        <ele>4.6</ele>
        <time>2020-06-02T08:51:17Z</time>
      </trkpt>
      <trkpt lat="46.15826" lon="-1.15205">
        <ele>4.6</ele>
        <time>2020-06-02T08:51:18Z</time>
      </trkpt>
      <trkpt lat="46.15826" lon="-1.15205">
        <ele>4.6</ele>
        <time>2020-06-02T08:51:19Z</time>
      </trkpt>
      <trkpt lat="46.15826" lon="-1.15206">
        <ele>4.6</ele>
        <time>2020-06-02T08:51:20Z</time>
      </trkpt>
      <trkpt lat="46.15826" lon="-1.15206">
        <ele>4.6</ele>
        <time>2020-06-02T08:51:21Z</time>
      </trkpt>
      <trkpt lat="46.15826" lon="-1.15206">
        <ele>4.6</ele>
        <time>2020-06-02T08:51:22Z</time>
      </trkpt>
      <trkpt lat="46.15826" lon="-1.15206">
        <ele>4.6</ele>
        <time>2020-06-02T08:51:23Z</time>
      </trkpt>
      <trkpt lat="46.15826" lon="-1.15206">
        <ele>4.6</ele>
        <time>2020-06-02T08:51:24Z</time>
      </trkpt>
      <trkpt lat="46.15826" lon="-1.15206">
        <ele>4.6</ele>
        <time>2020-06-02T08:51:25Z</time>
      </trkpt>
      <trkpt lat="46.15825" lon="-1.15206">
        <ele>4.6</ele>
        <time>2020-06-02T08:51:26Z</time>
      </trkpt>
      <trkpt lat="46.15825" lon="-1.15205">
        <ele>4.6</ele>
        <time>2020-06-02T08:51:27Z</time>
      </trkpt>
      <trkpt lat="46.15825" lon="-1.15205">
        <ele>4.6</ele>
        <time>2020-06-02T08:51:28Z</time>
      </trkpt>
      <trkpt lat="46.15825" lon="-1.15205">
        <ele>4.6</ele>
        <time>2020-06-02T08:51:29Z</time>
      </trkpt>
      <trkpt lat="46.15825" lon="-1.15205">
        <ele>4.6</ele>
        <time>2020-06-02T08:51:30Z</time>
      </trkpt>
      <trkpt lat="46.15825" lon="-1.15205">
        <ele>4.6</ele>
        <time>2020-06-02T08:51:31Z</time>
      </trkpt>
      <trkpt lat="46.15825" lon="-1.15205">
        <ele>4.6</ele>
        <time>2020-06-02T08:51:32Z</time>
      </trkpt>
      <trkpt lat="46.15825" lon="-1.15205">
        <ele>4.6</ele>
        <time>2020-06-02T08:51:33Z</time>
      </trkpt>
      <trkpt lat="46.15824" lon="-1.15205">
        <ele>4.6</ele>
        <time>2020-06-02T08:51:34Z</time>
      </trkpt>
      <trkpt lat="46.15823" lon="-1.15204">
        <ele>4.6</ele>
        <time>2020-06-02T08:51:35Z</time>
      </trkpt>
      <trkpt lat="46.15823" lon="-1.15203">
        <ele>4.6</ele>
        <time>2020-06-02T08:51:36Z</time>
      </trkpt>
      <trkpt lat="46.15823" lon="-1.15203">
        <ele>4.6</ele>
        <time>2020-06-02T08:51:37Z</time>
      </trkpt>
      <trkpt lat="46.15823" lon="-1.15203">
        <ele>4.6</ele>
        <time>2020-06-02T08:51:38Z</time>
      </trkpt>
      <trkpt lat="46.15823" lon="-1.15203">
        <ele>4.6</ele>
        <time>2020-06-02T08:51:39Z</time>
      </trkpt>
      <trkpt lat="46.15823" lon="-1.15203">
        <ele>4.6</ele>
        <time>2020-06-02T08:51:40Z</time>
      </trkpt>
      <trkpt lat="46.15823" lon="-1.15203">
        <ele>4.6</ele>
        <time>2020-06-02T08:51:41Z</time>
      </trkpt>
      <trkpt lat="46.15822" lon="-1.15203">
        <ele>4.6</ele>
        <time>2020-06-02T08:51:42Z</time>
      </trkpt>
      <trkpt lat="46.15822" lon="-1.15203">
        <ele>4.6</ele>
        <time>2020-06-02T08:51:43Z</time>
      </trkpt>
      <trkpt lat="46.15822" lon="-1.15203">
        <ele>4.6</ele>
        <time>2020-06-02T08:51:44Z</time>
      </trkpt>
      <trkpt lat="46.15822" lon="-1.15203">
        <ele>4.6</ele>
        <time>2020-06-02T08:51:45Z</time>
      </trkpt>
      <trkpt lat="46.15822" lon="-1.15203">
        <ele>4.6</ele>
        <time>2020-06-02T08:51:46Z</time>
      </trkpt>
      <trkpt lat="46.15822" lon="-1.15203">
        <ele>4.6</ele>
        <time>2020-06-02T08:51:47Z</time>
      </trkpt>
      <trkpt lat="46.15822" lon="-1.15204">
        <ele>4.6</ele>
        <time>2020-06-02T08:51:48Z</time>
      </trkpt>
      <trkpt lat="46.15822" lon="-1.15203">
        <ele>4.6</ele>
        <time>2020-06-02T08:51:49Z</time>
      </trkpt>
      <trkpt lat="46.15823" lon="-1.15203">
        <ele>4.6</ele>
        <time>2020-06-02T08:51:50Z</time>
      </trkpt>
      <trkpt lat="46.15823" lon="-1.15203">
        <ele>4.6</ele>
        <time>2020-06-02T08:51:51Z</time>
      </trkpt>
      <trkpt lat="46.15822" lon="-1.15203">
        <ele>4.6</ele>
        <time>2020-06-02T08:51:52Z</time>
      </trkpt>
      <trkpt lat="46.15822" lon="-1.15203">
        <ele>4.6</ele>
        <time>2020-06-02T08:51:53Z</time>
      </trkpt>
      <trkpt lat="46.15822" lon="-1.15203">
        <ele>4.6</ele>
        <time>2020-06-02T08:51:54Z</time>
      </trkpt>
      <trkpt lat="46.15822" lon="-1.15202">
        <ele>4.6</ele>
        <time>2020-06-02T08:51:55Z</time>
      </trkpt>
      <trkpt lat="46.15821" lon="-1.15202">
        <ele>4.6</ele>
        <time>2020-06-02T08:51:56Z</time>
      </trkpt>
      <trkpt lat="46.15821" lon="-1.15202">
        <ele>4.6</ele>
        <time>2020-06-02T08:51:57Z</time>
      </trkpt>
      <trkpt lat="46.15821" lon="-1.15203">
        <ele>4.6</ele>
        <time>2020-06-02T08:51:58Z</time>
      </trkpt>
      <trkpt lat="46.1582" lon="-1.15202">
        <ele>4.6</ele>
        <time>2020-06-02T08:51:59Z</time>
      </trkpt>
      <trkpt lat="46.15821" lon="-1.15203">
        <ele>4.6</ele>
        <time>2020-06-02T08:52:00Z</time>
      </trkpt>
      <trkpt lat="46.15821" lon="-1.15203">
        <ele>4.6</ele>
        <time>2020-06-02T08:52:01Z</time>
      </trkpt>
      <trkpt lat="46.15821" lon="-1.15203">
        <ele>4.6</ele>
        <time>2020-06-02T08:52:02Z</time>
      </trkpt>
      <trkpt lat="46.15821" lon="-1.15203">
        <ele>4.6</ele>
        <time>2020-06-02T08:52:03Z</time>
      </trkpt>
      <trkpt lat="46.15821" lon="-1.15203">
        <ele>4.6</ele>
        <time>2020-06-02T08:52:04Z</time>
      </trkpt>
      <trkpt lat="46.15821" lon="-1.15203">
        <ele>4.6</ele>
        <time>2020-06-02T08:52:05Z</time>
      </trkpt>
      <trkpt lat="46.15821" lon="-1.15203">
        <ele>4.6</ele>
        <time>2020-06-02T08:52:06Z</time>
      </trkpt>
      <trkpt lat="46.15821" lon="-1.15203">
        <ele>4.6</ele>
        <time>2020-06-02T08:52:07Z</time>
      </trkpt>
      <trkpt lat="46.15821" lon="-1.15203">
        <ele>4.6</ele>
        <time>2020-06-02T08:52:08Z</time>
      </trkpt>
      <trkpt lat="46.15821" lon="-1.15203">
        <ele>4.6</ele>
        <time>2020-06-02T08:52:09Z</time>
      </trkpt>
      <trkpt lat="46.15821" lon="-1.15203">
        <ele>4.6</ele>
        <time>2020-06-02T08:52:10Z</time>
      </trkpt>
      <trkpt lat="46.15821" lon="-1.15203">
        <ele>4.6</ele>
        <time>2020-06-02T08:52:11Z</time>
      </trkpt>
      <trkpt lat="46.15821" lon="-1.15203">
        <ele>4.6</ele>
        <time>2020-06-02T08:52:12Z</time>
      </trkpt>
      <trkpt lat="46.15821" lon="-1.15203">
        <ele>4.6</ele>
        <time>2020-06-02T08:52:13Z</time>
      </trkpt>
      <trkpt lat="46.15821" lon="-1.15203">
        <ele>4.6</ele>
        <time>2020-06-02T08:52:14Z</time>
      </trkpt>
      <trkpt lat="46.15821" lon="-1.15203">
        <ele>4.6</ele>
        <time>2020-06-02T08:52:15Z</time>
      </trkpt>
      <trkpt lat="46.15821" lon="-1.15203">
        <ele>4.6</ele>
        <time>2020-06-02T08:52:16Z</time>
      </trkpt>
      <trkpt lat="46.15821" lon="-1.15203">
        <ele>4.6</ele>
        <time>2020-06-02T08:52:17Z</time>
      </trkpt>
      <trkpt lat="46.15821" lon="-1.15203">
        <ele>4.6</ele>
        <time>2020-06-02T08:52:18Z</time>
      </trkpt>
      <trkpt lat="46.15821" lon="-1.15203">
        <ele>4.6</ele>
        <time>2020-06-02T08:52:19Z</time>
      </trkpt>
      <trkpt lat="46.15821" lon="-1.15203">
        <ele>4.6</ele>
        <time>2020-06-02T08:52:20Z</time>
      </trkpt>
      <trkpt lat="46.15821" lon="-1.15203">
        <ele>4.6</ele>
        <time>2020-06-02T08:52:21Z</time>
      </trkpt>
      <trkpt lat="46.15821" lon="-1.15203">
        <ele>4.6</ele>
        <time>2020-06-02T08:52:22Z</time>
      </trkpt>
      <trkpt lat="46.15821" lon="-1.15203">
        <ele>4.6</ele>
        <time>2020-06-02T08:52:23Z</time>
      </trkpt>
      <trkpt lat="46.15821" lon="-1.15203">
        <ele>4.6</ele>
        <time>2020-06-02T08:52:24Z</time>
      </trkpt>
      <trkpt lat="46.15821" lon="-1.15203">
        <ele>4.6</ele>
        <time>2020-06-02T08:52:25Z</time>
      </trkpt>
      <trkpt lat="46.15821" lon="-1.15203">
        <ele>4.6</ele>
        <time>2020-06-02T08:52:26Z</time>
      </trkpt>
      <trkpt lat="46.15821" lon="-1.15203">
        <ele>4.6</ele>
        <time>2020-06-02T08:52:27Z</time>
      </trkpt>
      <trkpt lat="46.15821" lon="-1.15203">
        <ele>4.6</ele>
        <time>2020-06-02T08:52:28Z</time>
      </trkpt>
      <trkpt lat="46.15821" lon="-1.15203">
        <ele>4.6</ele>
        <time>2020-06-02T08:52:29Z</time>
      </trkpt>
      <trkpt lat="46.15821" lon="-1.15203">
        <ele>4.6</ele>
        <time>2020-06-02T08:52:30Z</time>
      </trkpt>
      <trkpt lat="46.15821" lon="-1.15203">
        <ele>4.6</ele>
        <time>2020-06-02T08:52:31Z</time>
      </trkpt>
      <trkpt lat="46.15821" lon="-1.15203">
        <ele>4.6</ele>
        <time>2020-06-02T08:52:32Z</time>
      </trkpt>
      <trkpt lat="46.15821" lon="-1.15203">
        <ele>4.6</ele>
        <time>2020-06-02T08:52:33Z</time>
      </trkpt>
      <trkpt lat="46.15821" lon="-1.15203">
        <ele>4.6</ele>
        <time>2020-06-02T08:52:34Z</time>
      </trkpt>
      <trkpt lat="46.15821" lon="-1.15203">
        <ele>4.6</ele>
        <time>2020-06-02T08:52:35Z</time>
      </trkpt>
      <trkpt lat="46.15821" lon="-1.15203">
        <ele>4.6</ele>
        <time>2020-06-02T08:52:36Z</time>
      </trkpt>
      <trkpt lat="46.15821" lon="-1.15203">
        <ele>4.6</ele>
        <time>2020-06-02T08:52:37Z</time>
      </trkpt>
      <trkpt lat="46.15821" lon="-1.15203">
        <ele>4.6</ele>
        <time>2020-06-02T08:52:38Z</time>
      </trkpt>
      <trkpt lat="46.15821" lon="-1.15203">
        <ele>4.6</ele>
        <time>2020-06-02T08:52:39Z</time>
      </trkpt>
      <trkpt lat="46.15821" lon="-1.15203">
        <ele>4.6</ele>
        <time>2020-06-02T08:52:40Z</time>
      </trkpt>
      <trkpt lat="46.15821" lon="-1.15203">
        <ele>4.6</ele>
        <time>2020-06-02T08:52:41Z</time>
      </trkpt>
      <trkpt lat="46.15821" lon="-1.15203">
        <ele>4.6</ele>
        <time>2020-06-02T08:52:42Z</time>
      </trkpt>
      <trkpt lat="46.15821" lon="-1.15203">
        <ele>4.6</ele>
        <time>2020-06-02T08:52:43Z</time>
      </trkpt>
      <trkpt lat="46.15821" lon="-1.15203">
        <ele>4.6</ele>
        <time>2020-06-02T08:52:44Z</time>
      </trkpt>
      <trkpt lat="46.15821" lon="-1.15203">
        <ele>4.6</ele>
        <time>2020-06-02T08:52:45Z</time>
      </trkpt>
      <trkpt lat="46.15822" lon="-1.15203">
        <ele>4.6</ele>
        <time>2020-06-02T08:52:46Z</time>
      </trkpt>
      <trkpt lat="46.15822" lon="-1.15203">
        <ele>4.6</ele>
        <time>2020-06-02T08:52:47Z</time>
      </trkpt>
      <trkpt lat="46.15822" lon="-1.15203">
        <ele>4.6</ele>
        <time>2020-06-02T08:52:48Z</time>
      </trkpt>
      <trkpt lat="46.15822" lon="-1.15203">
        <ele>4.6</ele>
        <time>2020-06-02T08:52:49Z</time>
      </trkpt>
      <trkpt lat="46.15822" lon="-1.15203">
        <ele>4.6</ele>
        <time>2020-06-02T08:52:50Z</time>
      </trkpt>
      <trkpt lat="46.15822" lon="-1.15203">
        <ele>4.6</ele>
        <time>2020-06-02T08:52:51Z</time>
      </trkpt>
      <trkpt lat="46.15822" lon="-1.15203">
        <ele>4.6</ele>
        <time>2020-06-02T08:52:52Z</time>
      </trkpt>
      <trkpt lat="46.15822" lon="-1.15203">
        <ele>4.6</ele>
        <time>2020-06-02T08:52:53Z</time>
      </trkpt>
      <trkpt lat="46.15822" lon="-1.15203">
        <ele>4.6</ele>
        <time>2020-06-02T08:52:54Z</time>
      </trkpt>
      <trkpt lat="46.15822" lon="-1.15203">
        <ele>4.6</ele>
        <time>2020-06-02T08:52:55Z</time>
      </trkpt>
      <trkpt lat="46.15822" lon="-1.15203">
        <ele>4.6</ele>
        <time>2020-06-02T08:52:56Z</time>
      </trkpt>
      <trkpt lat="46.15822" lon="-1.15203">
        <ele>4.6</ele>
        <time>2020-06-02T08:52:57Z</time>
      </trkpt>
      <trkpt lat="46.15822" lon="-1.15203">
        <ele>4.6</ele>
        <time>2020-06-02T08:52:58Z</time>
      </trkpt>
      <trkpt lat="46.15822" lon="-1.15203">
        <ele>4.6</ele>
        <time>2020-06-02T08:52:59Z</time>
      </trkpt>
      <trkpt lat="46.15822" lon="-1.15203">
        <ele>4.6</ele>
        <time>2020-06-02T08:53:00Z</time>
      </trkpt>
      <trkpt lat="46.15822" lon="-1.15203">
        <ele>4.6</ele>
        <time>2020-06-02T08:53:01Z</time>
      </trkpt>
      <trkpt lat="46.15822" lon="-1.15203">
        <ele>4.6</ele>
        <time>2020-06-02T08:53:02Z</time>
      </trkpt>
      <trkpt lat="46.15822" lon="-1.15203">
        <ele>4.6</ele>
        <time>2020-06-02T08:53:03Z</time>
      </trkpt>
      <trkpt lat="46.15822" lon="-1.15203">
        <ele>4.6</ele>
        <time>2020-06-02T08:53:04Z</time>
      </trkpt>
      <trkpt lat="46.15822" lon="-1.15203">
        <ele>4.6</ele>
        <time>2020-06-02T08:53:05Z</time>
      </trkpt>
      <trkpt lat="46.15822" lon="-1.15203">
        <ele>4.6</ele>
        <time>2020-06-02T08:53:06Z</time>
      </trkpt>
      <trkpt lat="46.15822" lon="-1.15203">
        <ele>4.6</ele>
        <time>2020-06-02T08:53:07Z</time>
      </trkpt>
      <trkpt lat="46.15822" lon="-1.15203">
        <ele>4.6</ele>
        <time>2020-06-02T08:53:08Z</time>
      </trkpt>
      <trkpt lat="46.15822" lon="-1.15203">
        <ele>4.6</ele>
        <time>2020-06-02T08:53:09Z</time>
      </trkpt>
      <trkpt lat="46.15822" lon="-1.15203">
        <ele>4.6</ele>
        <time>2020-06-02T08:53:10Z</time>
      </trkpt>
      <trkpt lat="46.15822" lon="-1.15203">
        <ele>4.6</ele>
        <time>2020-06-02T08:53:11Z</time>
      </trkpt>
      <trkpt lat="46.15822" lon="-1.15203">
        <ele>4.6</ele>
        <time>2020-06-02T08:53:12Z</time>
      </trkpt>
      <trkpt lat="46.15822" lon="-1.15203">
        <ele>4.6</ele>
        <time>2020-06-02T08:53:13Z</time>
      </trkpt>
      <trkpt lat="46.15822" lon="-1.15203">
        <ele>4.6</ele>
        <time>2020-06-02T08:53:14Z</time>
      </trkpt>
      <trkpt lat="46.15822" lon="-1.15203">
        <ele>4.6</ele>
        <time>2020-06-02T08:53:15Z</time>
      </trkpt>
      <trkpt lat="46.15822" lon="-1.15203">
        <ele>4.6</ele>
        <time>2020-06-02T08:53:16Z</time>
      </trkpt>
      <trkpt lat="46.15822" lon="-1.15203">
        <ele>4.6</ele>
        <time>2020-06-02T08:53:17Z</time>
      </trkpt>
      <trkpt lat="46.15822" lon="-1.15203">
        <ele>4.6</ele>
        <time>2020-06-02T08:53:18Z</time>
      </trkpt>
      <trkpt lat="46.15822" lon="-1.15203">
        <ele>4.6</ele>
        <time>2020-06-02T08:53:19Z</time>
      </trkpt>
      <trkpt lat="46.15822" lon="-1.15203">
        <ele>4.6</ele>
        <time>2020-06-02T08:53:20Z</time>
      </trkpt>
      <trkpt lat="46.15822" lon="-1.15203">
        <ele>4.6</ele>
        <time>2020-06-02T08:53:21Z</time>
      </trkpt>
      <trkpt lat="46.15822" lon="-1.15203">
        <ele>4.6</ele>
        <time>2020-06-02T08:53:22Z</time>
      </trkpt>
      <trkpt lat="46.15822" lon="-1.15203">
        <ele>4.6</ele>
        <time>2020-06-02T08:53:23Z</time>
      </trkpt>
      <trkpt lat="46.15822" lon="-1.15203">
        <ele>4.6</ele>
        <time>2020-06-02T08:53:24Z</time>
      </trkpt>
      <trkpt lat="46.15822" lon="-1.15203">
        <ele>4.6</ele>
        <time>2020-06-02T08:53:25Z</time>
      </trkpt>
      <trkpt lat="46.15822" lon="-1.15203">
        <ele>4.6</ele>
        <time>2020-06-02T08:53:26Z</time>
      </trkpt>
      <trkpt lat="46.15822" lon="-1.15203">
        <ele>4.6</ele>
        <time>2020-06-02T08:53:27Z</time>
      </trkpt>
      <trkpt lat="46.15822" lon="-1.15203">
        <ele>4.6</ele>
        <time>2020-06-02T08:53:28Z</time>
      </trkpt>
      <trkpt lat="46.15822" lon="-1.15203">
        <ele>4.6</ele>
        <time>2020-06-02T08:53:29Z</time>
      </trkpt>
      <trkpt lat="46.15822" lon="-1.15203">
        <ele>4.6</ele>
        <time>2020-06-02T08:53:30Z</time>
      </trkpt>
      <trkpt lat="46.15822" lon="-1.15203">
        <ele>4.7</ele>
        <time>2020-06-02T08:53:31Z</time>
      </trkpt>
      <trkpt lat="46.15822" lon="-1.15203">
        <ele>4.7</ele>
        <time>2020-06-02T08:53:32Z</time>
      </trkpt>
      <trkpt lat="46.15822" lon="-1.15203">
        <ele>4.7</ele>
        <time>2020-06-02T08:53:33Z</time>
      </trkpt>
      <trkpt lat="46.15822" lon="-1.15203">
        <ele>4.7</ele>
        <time>2020-06-02T08:53:34Z</time>
      </trkpt>
      <trkpt lat="46.15822" lon="-1.15203">
        <ele>4.8</ele>
        <time>2020-06-02T08:53:35Z</time>
      </trkpt>
      <trkpt lat="46.15822" lon="-1.15203">
        <ele>4.8</ele>
        <time>2020-06-02T08:53:36Z</time>
      </trkpt>
      <trkpt lat="46.15822" lon="-1.15203">
        <ele>4.8</ele>
        <time>2020-06-02T08:53:37Z</time>
      </trkpt>
      <trkpt lat="46.15822" lon="-1.15203">
        <ele>4.8</ele>
        <time>2020-06-02T08:53:38Z</time>
      </trkpt>
      <trkpt lat="46.15822" lon="-1.15203">
        <ele>4.9</ele>
        <time>2020-06-02T08:53:39Z</time>
      </trkpt>
      <trkpt lat="46.15822" lon="-1.15203">
        <ele>4.9</ele>
        <time>2020-06-02T08:53:40Z</time>
      </trkpt>
      <trkpt lat="46.15822" lon="-1.15203">
        <ele>4.9</ele>
        <time>2020-06-02T08:53:41Z</time>
      </trkpt>
      <trkpt lat="46.15822" lon="-1.15203">
        <ele>4.9</ele>
        <time>2020-06-02T08:53:42Z</time>
      </trkpt>
      <trkpt lat="46.15822" lon="-1.15203">
        <ele>4.9</ele>
        <time>2020-06-02T08:53:43Z</time>
      </trkpt>
      <trkpt lat="46.15822" lon="-1.15203">
        <ele>5</ele>
        <time>2020-06-02T08:53:44Z</time>
      </trkpt>
      <trkpt lat="46.15822" lon="-1.15203">
        <ele>5</ele>
        <time>2020-06-02T08:53:45Z</time>
      </trkpt>
      <trkpt lat="46.15822" lon="-1.15203">
        <ele>5</ele>
        <time>2020-06-02T08:53:46Z</time>
      </trkpt>
      <trkpt lat="46.15822" lon="-1.15203">
        <ele>5</ele>
        <time>2020-06-02T08:53:47Z</time>
      </trkpt>
      <trkpt lat="46.15823" lon="-1.15203">
        <ele>5.1</ele>
        <time>2020-06-02T08:53:48Z</time>
      </trkpt>
      <trkpt lat="46.15823" lon="-1.15203">
        <ele>5.1</ele>
        <time>2020-06-02T08:53:49Z</time>
      </trkpt>
      <trkpt lat="46.15823" lon="-1.15203">
        <ele>5.1</ele>
        <time>2020-06-02T08:53:50Z</time>
      </trkpt>
      <trkpt lat="46.15823" lon="-1.15203">
        <ele>5.1</ele>
        <time>2020-06-02T08:53:51Z</time>
      </trkpt>
      <trkpt lat="46.15823" lon="-1.15203">
        <ele>5.2</ele>
        <time>2020-06-02T08:53:52Z</time>
      </trkpt>
      <trkpt lat="46.15823" lon="-1.15203">
        <ele>5.2</ele>
        <time>2020-06-02T08:53:53Z</time>
      </trkpt>
      <trkpt lat="46.15823" lon="-1.15203">
        <ele>5.2</ele>
        <time>2020-06-02T08:53:54Z</time>
      </trkpt>
      <trkpt lat="46.15823" lon="-1.15203">
        <ele>5.2</ele>
        <time>2020-06-02T08:53:55Z</time>
      </trkpt>
      <trkpt lat="46.15823" lon="-1.15203">
        <ele>5.2</ele>
        <time>2020-06-02T08:53:56Z</time>
      </trkpt>
      <trkpt lat="46.15823" lon="-1.15203">
        <ele>5.3</ele>
        <time>2020-06-02T08:53:57Z</time>
      </trkpt>
      <trkpt lat="46.15823" lon="-1.15203">
        <ele>5.3</ele>
        <time>2020-06-02T08:53:58Z</time>
      </trkpt>
      <trkpt lat="46.15823" lon="-1.15203">
        <ele>5.3</ele>
        <time>2020-06-02T08:53:59Z</time>
      </trkpt>
      <trkpt lat="46.15823" lon="-1.15203">
        <ele>5.3</ele>
        <time>2020-06-02T08:54:00Z</time>
      </trkpt>
      <trkpt lat="46.15823" lon="-1.15203">
        <ele>5.4</ele>
        <time>2020-06-02T08:54:01Z</time>
      </trkpt>
      <trkpt lat="46.15823" lon="-1.15203">
        <ele>5.4</ele>
        <time>2020-06-02T08:54:02Z</time>
      </trkpt>
      <trkpt lat="46.15823" lon="-1.15203">
        <ele>5.4</ele>
        <time>2020-06-02T08:54:03Z</time>
      </trkpt>
      <trkpt lat="46.15823" lon="-1.15203">
        <ele>5.4</ele>
        <time>2020-06-02T08:54:04Z</time>
      </trkpt>
      <trkpt lat="46.15823" lon="-1.15203">
        <ele>5.5</ele>
        <time>2020-06-02T08:54:05Z</time>
      </trkpt>
      <trkpt lat="46.15823" lon="-1.15203">
        <ele>5.4</ele>
        <time>2020-06-02T08:54:06Z</time>
      </trkpt>
      <trkpt lat="46.15823" lon="-1.15203">
        <ele>5.5</ele>
        <time>2020-06-02T08:54:07Z</time>
      </trkpt>
      <trkpt lat="46.15823" lon="-1.15203">
        <ele>5.5</ele>
        <time>2020-06-02T08:54:08Z</time>
      </trkpt>
      <trkpt lat="46.15823" lon="-1.15203">
        <ele>5.5</ele>
        <time>2020-06-02T08:54:09Z</time>
      </trkpt>
      <trkpt lat="46.15823" lon="-1.15203">
        <ele>5.5</ele>
        <time>2020-06-02T08:54:10Z</time>
      </trkpt>
      <trkpt lat="46.15823" lon="-1.15203">
        <ele>5.5</ele>
        <time>2020-06-02T08:54:11Z</time>
      </trkpt>
      <trkpt lat="46.15823" lon="-1.15203">
        <ele>5.6</ele>
        <time>2020-06-02T08:54:12Z</time>
      </trkpt>
      <trkpt lat="46.15823" lon="-1.15203">
        <ele>5.6</ele>
        <time>2020-06-02T08:54:13Z</time>
      </trkpt>
      <trkpt lat="46.15823" lon="-1.15203">
        <ele>5.6</ele>
        <time>2020-06-02T08:54:14Z</time>
      </trkpt>
      <trkpt lat="46.15823" lon="-1.15203">
        <ele>5.6</ele>
        <time>2020-06-02T08:54:15Z</time>
      </trkpt>
      <trkpt lat="46.15823" lon="-1.15203">
        <ele>5.7</ele>
        <time>2020-06-02T08:54:16Z</time>
      </trkpt>
      <trkpt lat="46.15823" lon="-1.15203">
        <ele>5.7</ele>
        <time>2020-06-02T08:54:17Z</time>
      </trkpt>
      <trkpt lat="46.15823" lon="-1.15203">
        <ele>5.7</ele>
        <time>2020-06-02T08:54:18Z</time>
      </trkpt>
      <trkpt lat="46.15823" lon="-1.15203">
        <ele>5.7</ele>
        <time>2020-06-02T08:54:19Z</time>
      </trkpt>
      <trkpt lat="46.15823" lon="-1.15203">
        <ele>5.7</ele>
        <time>2020-06-02T08:54:20Z</time>
      </trkpt>
      <trkpt lat="46.15823" lon="-1.15203">
        <ele>5.8</ele>
        <time>2020-06-02T08:54:21Z</time>
      </trkpt>
      <trkpt lat="46.15823" lon="-1.15203">
        <ele>5.8</ele>
        <time>2020-06-02T08:54:22Z</time>
      </trkpt>
      <trkpt lat="46.15823" lon="-1.15203">
        <ele>5.8</ele>
        <time>2020-06-02T08:54:23Z</time>
      </trkpt>
      <trkpt lat="46.15823" lon="-1.15203">
        <ele>5.8</ele>
        <time>2020-06-02T08:54:24Z</time>
      </trkpt>
      <trkpt lat="46.15823" lon="-1.15203">
        <ele>5.9</ele>
        <time>2020-06-02T08:54:25Z</time>
      </trkpt>
      <trkpt lat="46.15823" lon="-1.15203">
        <ele>5.9</ele>
        <time>2020-06-02T08:54:26Z</time>
      </trkpt>
      <trkpt lat="46.15823" lon="-1.15203">
        <ele>5.9</ele>
        <time>2020-06-02T08:54:27Z</time>
      </trkpt>
      <trkpt lat="46.15823" lon="-1.15203">
        <ele>5.9</ele>
        <time>2020-06-02T08:54:28Z</time>
      </trkpt>
      <trkpt lat="46.15823" lon="-1.15203">
        <ele>5.9</ele>
        <time>2020-06-02T08:54:29Z</time>
      </trkpt>
      <trkpt lat="46.15823" lon="-1.15203">
        <ele>6</ele>
        <time>2020-06-02T08:54:30Z</time>
      </trkpt>
      <trkpt lat="46.15823" lon="-1.15203">
        <ele>6</ele>
        <time>2020-06-02T08:54:31Z</time>
      </trkpt>
      <trkpt lat="46.15823" lon="-1.15203">
        <ele>6</ele>
        <time>2020-06-02T08:54:32Z</time>
      </trkpt>
      <trkpt lat="46.15823" lon="-1.15203">
        <ele>6</ele>
        <time>2020-06-02T08:54:33Z</time>
      </trkpt>
      <trkpt lat="46.15823" lon="-1.15203">
        <ele>6.1</ele>
        <time>2020-06-02T08:54:34Z</time>
      </trkpt>
      <trkpt lat="46.15823" lon="-1.15203">
        <ele>6.1</ele>
        <time>2020-06-02T08:54:35Z</time>
      </trkpt>
      <trkpt lat="46.15823" lon="-1.15203">
        <ele>6.1</ele>
        <time>2020-06-02T08:54:36Z</time>
      </trkpt>
      <trkpt lat="46.15823" lon="-1.15203">
        <ele>6.1</ele>
        <time>2020-06-02T08:54:37Z</time>
      </trkpt>
      <trkpt lat="46.15823" lon="-1.15203">
        <ele>6.1</ele>
        <time>2020-06-02T08:54:38Z</time>
      </trkpt>
      <trkpt lat="46.15823" lon="-1.15203">
        <ele>6.2</ele>
        <time>2020-06-02T08:54:39Z</time>
      </trkpt>
      <trkpt lat="46.15823" lon="-1.15203">
        <ele>6.2</ele>
        <time>2020-06-02T08:54:40Z</time>
      </trkpt>
      <trkpt lat="46.15823" lon="-1.15203">
        <ele>6.2</ele>
        <time>2020-06-02T08:54:41Z</time>
      </trkpt>
      <trkpt lat="46.15823" lon="-1.15203">
        <ele>6.2</ele>
        <time>2020-06-02T08:54:42Z</time>
      </trkpt>
      <trkpt lat="46.15823" lon="-1.15203">
        <ele>6.3</ele>
        <time>2020-06-02T08:54:43Z</time>
      </trkpt>
      <trkpt lat="46.15823" lon="-1.15203">
        <ele>6.3</ele>
        <time>2020-06-02T08:54:44Z</time>
      </trkpt>
      <trkpt lat="46.15823" lon="-1.15203">
        <ele>6.3</ele>
        <time>2020-06-02T08:54:45Z</time>
      </trkpt>
      <trkpt lat="46.15823" lon="-1.15203">
        <ele>6.3</ele>
        <time>2020-06-02T08:54:46Z</time>
      </trkpt>
      <trkpt lat="46.15823" lon="-1.15203">
        <ele>6.3</ele>
        <time>2020-06-02T08:54:47Z</time>
      </trkpt>
      <trkpt lat="46.15823" lon="-1.15203">
        <ele>6.4</ele>
        <time>2020-06-02T08:54:48Z</time>
      </trkpt>
      <trkpt lat="46.15823" lon="-1.15203">
        <ele>6.4</ele>
        <time>2020-06-02T08:54:49Z</time>
      </trkpt>
      <trkpt lat="46.15824" lon="-1.15204">
        <ele>6.4</ele>
        <time>2020-06-02T08:54:50Z</time>
      </trkpt>
      <trkpt lat="46.15824" lon="-1.15204">
        <ele>6.4</ele>
        <time>2020-06-02T08:54:51Z</time>
      </trkpt>
      <trkpt lat="46.15824" lon="-1.15204">
        <ele>6.4</ele>
        <time>2020-06-02T08:54:52Z</time>
      </trkpt>
      <trkpt lat="46.15824" lon="-1.15204">
        <ele>6.5</ele>
        <time>2020-06-02T08:54:53Z</time>
      </trkpt>
      <trkpt lat="46.15824" lon="-1.15204">
        <ele>6.5</ele>
        <time>2020-06-02T08:54:54Z</time>
      </trkpt>
      <trkpt lat="46.15824" lon="-1.15204">
        <ele>6.5</ele>
        <time>2020-06-02T08:54:55Z</time>
      </trkpt>
      <trkpt lat="46.15824" lon="-1.15204">
        <ele>6.5</ele>
        <time>2020-06-02T08:54:56Z</time>
      </trkpt>
      <trkpt lat="46.15824" lon="-1.15204">
        <ele>6.6</ele>
        <time>2020-06-02T08:54:57Z</time>
      </trkpt>
      <trkpt lat="46.15824" lon="-1.15204">
        <ele>6.6</ele>
        <time>2020-06-02T08:54:58Z</time>
      </trkpt>
      <trkpt lat="46.15824" lon="-1.15204">
        <ele>6.6</ele>
        <time>2020-06-02T08:54:59Z</time>
      </trkpt>
      <trkpt lat="46.15824" lon="-1.15204">
        <ele>6.6</ele>
        <time>2020-06-02T08:55:00Z</time>
      </trkpt>
      <trkpt lat="46.15824" lon="-1.15204">
        <ele>6.6</ele>
        <time>2020-06-02T08:55:01Z</time>
      </trkpt>
      <trkpt lat="46.15824" lon="-1.15204">
        <ele>6.7</ele>
        <time>2020-06-02T08:55:02Z</time>
      </trkpt>
      <trkpt lat="46.15824" lon="-1.15204">
        <ele>6.7</ele>
        <time>2020-06-02T08:55:03Z</time>
      </trkpt>
      <trkpt lat="46.15824" lon="-1.15204">
        <ele>6.7</ele>
        <time>2020-06-02T08:55:04Z</time>
      </trkpt>
      <trkpt lat="46.15824" lon="-1.15204">
        <ele>6.7</ele>
        <time>2020-06-02T08:55:05Z</time>
      </trkpt>
      <trkpt lat="46.15824" lon="-1.15204">
        <ele>6.8</ele>
        <time>2020-06-02T08:55:06Z</time>
      </trkpt>
      <trkpt lat="46.15824" lon="-1.15204">
        <ele>6.8</ele>
        <time>2020-06-02T08:55:07Z</time>
      </trkpt>
      <trkpt lat="46.15824" lon="-1.15204">
        <ele>6.8</ele>
        <time>2020-06-02T08:55:08Z</time>
      </trkpt>
      <trkpt lat="46.15824" lon="-1.15204">
        <ele>6.8</ele>
        <time>2020-06-02T08:55:09Z</time>
      </trkpt>
      <trkpt lat="46.15824" lon="-1.15204">
        <ele>6.8</ele>
        <time>2020-06-02T08:55:10Z</time>
      </trkpt>
      <trkpt lat="46.15824" lon="-1.15204">
        <ele>6.8</ele>
        <time>2020-06-02T08:55:11Z</time>
      </trkpt>
      <trkpt lat="46.15824" lon="-1.15204">
        <ele>6.8</ele>
        <time>2020-06-02T08:55:12Z</time>
      </trkpt>
      <trkpt lat="46.15824" lon="-1.15204">
        <ele>6.8</ele>
        <time>2020-06-02T08:55:13Z</time>
      </trkpt>
      <trkpt lat="46.15824" lon="-1.15204">
        <ele>6.8</ele>
        <time>2020-06-02T08:55:14Z</time>
      </trkpt>
      <trkpt lat="46.15824" lon="-1.15204">
        <ele>6.8</ele>
        <time>2020-06-02T08:55:15Z</time>
      </trkpt>
      <trkpt lat="46.15824" lon="-1.15204">
        <ele>6.8</ele>
        <time>2020-06-02T08:55:16Z</time>
      </trkpt>
      <trkpt lat="46.15824" lon="-1.15204">
        <ele>6.8</ele>
        <time>2020-06-02T08:55:17Z</time>
      </trkpt>
      <trkpt lat="46.15824" lon="-1.15204">
        <ele>6.8</ele>
        <time>2020-06-02T08:55:18Z</time>
      </trkpt>
      <trkpt lat="46.15824" lon="-1.15204">
        <ele>6.8</ele>
        <time>2020-06-02T08:55:19Z</time>
      </trkpt>
      <trkpt lat="46.15824" lon="-1.15204">
        <ele>6.8</ele>
        <time>2020-06-02T08:55:20Z</time>
      </trkpt>
      <trkpt lat="46.15824" lon="-1.15204">
        <ele>6.8</ele>
        <time>2020-06-02T08:55:21Z</time>
      </trkpt>
      <trkpt lat="46.15824" lon="-1.15204">
        <ele>6.8</ele>
        <time>2020-06-02T08:55:22Z</time>
      </trkpt>
      <trkpt lat="46.15824" lon="-1.15204">
        <ele>6.8</ele>
        <time>2020-06-02T08:55:23Z</time>
      </trkpt>
      <trkpt lat="46.15824" lon="-1.15204">
        <ele>6.8</ele>
        <time>2020-06-02T08:55:24Z</time>
      </trkpt>
      <trkpt lat="46.15824" lon="-1.15204">
        <ele>6.8</ele>
        <time>2020-06-02T08:55:25Z</time>
      </trkpt>
      <trkpt lat="46.15824" lon="-1.15204">
        <ele>6.8</ele>
        <time>2020-06-02T08:55:26Z</time>
      </trkpt>
      <trkpt lat="46.15772" lon="-1.15192">
        <ele>4.6</ele>
        <time>2020-06-02T09:29:06Z</time>
      </trkpt>
      <trkpt lat="46.15784" lon="-1.1521">
        <ele>4.6</ele>
        <time>2020-06-02T09:29:07Z</time>
      </trkpt>
      <trkpt lat="46.15797" lon="-1.15212">
        <ele>4.6</ele>
        <time>2020-06-02T09:29:08Z</time>
      </trkpt>
      <trkpt lat="46.15803" lon="-1.15215">
        <ele>4.6</ele>
        <time>2020-06-02T09:29:09Z</time>
      </trkpt>
      <trkpt lat="46.15804" lon="-1.15215">
        <ele>4.6</ele>
        <time>2020-06-02T09:29:10Z</time>
      </trkpt>
      <trkpt lat="46.15808" lon="-1.15213">
        <ele>4.6</ele>
        <time>2020-06-02T09:29:11Z</time>
      </trkpt>
      <trkpt lat="46.15808" lon="-1.15214">
        <ele>4.6</ele>
        <time>2020-06-02T09:29:12Z</time>
      </trkpt>
      <trkpt lat="46.15808" lon="-1.15228">
        <ele>4.7</ele>
        <time>2020-06-02T09:29:13Z</time>
      </trkpt>
      <trkpt lat="46.15807" lon="-1.15225">
        <ele>4.7</ele>
        <time>2020-06-02T09:29:14Z</time>
      </trkpt>
      <trkpt lat="46.15814" lon="-1.15218">
        <ele>4.7</ele>
        <time>2020-06-02T09:29:16Z</time>
      </trkpt>
      <trkpt lat="46.15815" lon="-1.15218">
        <ele>4.7</ele>
        <time>2020-06-02T09:29:17Z</time>
      </trkpt>
      <trkpt lat="46.15815" lon="-1.15217">
        <ele>4.7</ele>
        <time>2020-06-02T09:29:18Z</time>
      </trkpt>
      <trkpt lat="46.15815" lon="-1.15217">
        <ele>4.7</ele>
        <time>2020-06-02T09:29:19Z</time>
      </trkpt>
      <trkpt lat="46.15817" lon="-1.15217">
        <ele>4.7</ele>
        <time>2020-06-02T09:29:20Z</time>
      </trkpt>
      <trkpt lat="46.15818" lon="-1.15216">
        <ele>4.7</ele>
        <time>2020-06-02T09:29:21Z</time>
      </trkpt>
      <trkpt lat="46.15818" lon="-1.15215">
        <ele>4.7</ele>
        <time>2020-06-02T09:29:22Z</time>
      </trkpt>
      <trkpt lat="46.15818" lon="-1.15215">
        <ele>4.7</ele>
        <time>2020-06-02T09:29:23Z</time>
      </trkpt>
      <trkpt lat="46.15818" lon="-1.15215">
        <ele>4.7</ele>
        <time>2020-06-02T09:29:24Z</time>
      </trkpt>
      <trkpt lat="46.15818" lon="-1.15216">
        <ele>4.7</ele>
        <time>2020-06-02T09:29:25Z</time>
      </trkpt>
      <trkpt lat="46.15818" lon="-1.15216">
        <ele>4.7</ele>
        <time>2020-06-02T09:29:26Z</time>
      </trkpt>
      <trkpt lat="46.15818" lon="-1.15217">
        <ele>4.7</ele>
        <time>2020-06-02T09:29:27Z</time>
      </trkpt>
      <trkpt lat="46.15818" lon="-1.15217">
        <ele>4.7</ele>
        <time>2020-06-02T09:29:28Z</time>
      </trkpt>
      <trkpt lat="46.15818" lon="-1.15218">
        <ele>4.7</ele>
        <time>2020-06-02T09:29:29Z</time>
      </trkpt>
      <trkpt lat="46.15818" lon="-1.15218">
        <ele>4.7</ele>
        <time>2020-06-02T09:29:30Z</time>
      </trkpt>
      <trkpt lat="46.15817" lon="-1.15219">
        <ele>4.7</ele>
        <time>2020-06-02T09:29:31Z</time>
      </trkpt>
      <trkpt lat="46.15817" lon="-1.15223">
        <ele>4.7</ele>
        <time>2020-06-02T09:29:32Z</time>
      </trkpt>
      <trkpt lat="46.15816" lon="-1.15227">
        <ele>4.7</ele>
        <time>2020-06-02T09:29:33Z</time>
      </trkpt>
      <trkpt lat="46.15816" lon="-1.15232">
        <ele>4.7</ele>
        <time>2020-06-02T09:29:34Z</time>
      </trkpt>
      <trkpt lat="46.15816" lon="-1.15238">
        <ele>4.8</ele>
        <time>2020-06-02T09:29:35Z</time>
      </trkpt>
      <trkpt lat="46.15816" lon="-1.1524">
        <ele>4.8</ele>
        <time>2020-06-02T09:29:36Z</time>
      </trkpt>
      <trkpt lat="46.15816" lon="-1.15246">
        <ele>4.8</ele>
        <time>2020-06-02T09:29:37Z</time>
      </trkpt>
      <trkpt lat="46.15815" lon="-1.15252">
        <ele>4.8</ele>
        <time>2020-06-02T09:29:38Z</time>
      </trkpt>
      <trkpt lat="46.15815" lon="-1.15259">
        <ele>4.8</ele>
        <time>2020-06-02T09:29:39Z</time>
      </trkpt>
      <trkpt lat="46.15815" lon="-1.15265">
        <ele>4.8</ele>
        <time>2020-06-02T09:29:40Z</time>
      </trkpt>
      <trkpt lat="46.15815" lon="-1.15271">
        <ele>4.8</ele>
        <time>2020-06-02T09:29:41Z</time>
      </trkpt>
      <trkpt lat="46.15814" lon="-1.15277">
        <ele>4.9</ele>
        <time>2020-06-02T09:29:42Z</time>
      </trkpt>
      <trkpt lat="46.15814" lon="-1.15284">
        <ele>4.9</ele>
        <time>2020-06-02T09:29:43Z</time>
      </trkpt>
      <trkpt lat="46.15814" lon="-1.1529">
        <ele>4.9</ele>
        <time>2020-06-02T09:29:44Z</time>
      </trkpt>
      <trkpt lat="46.15813" lon="-1.15296">
        <ele>4.9</ele>
        <time>2020-06-02T09:29:45Z</time>
      </trkpt>
      <trkpt lat="46.15813" lon="-1.15302">
        <ele>4.9</ele>
        <time>2020-06-02T09:29:46Z</time>
      </trkpt>
      <trkpt lat="46.15813" lon="-1.15308">
        <ele>5</ele>
        <time>2020-06-02T09:29:47Z</time>
      </trkpt>
      <trkpt lat="46.15812" lon="-1.15314">
        <ele>4.9</ele>
        <time>2020-06-02T09:29:48Z</time>
      </trkpt>
      <trkpt lat="46.15812" lon="-1.1532">
        <ele>4.9</ele>
        <time>2020-06-02T09:29:49Z</time>
      </trkpt>
      <trkpt lat="46.15811" lon="-1.15325">
        <ele>4.9</ele>
        <time>2020-06-02T09:29:50Z</time>
      </trkpt>
      <trkpt lat="46.15811" lon="-1.1533">
        <ele>4.9</ele>
        <time>2020-06-02T09:29:51Z</time>
      </trkpt>
      <trkpt lat="46.1581" lon="-1.15335">
        <ele>4.9</ele>
        <time>2020-06-02T09:29:52Z</time>
      </trkpt>
      <trkpt lat="46.1581" lon="-1.1534">
        <ele>4.9</ele>
        <time>2020-06-02T09:29:53Z</time>
      </trkpt>
      <trkpt lat="46.1581" lon="-1.15345">
        <ele>4.9</ele>
        <time>2020-06-02T09:29:54Z</time>
      </trkpt>
      <trkpt lat="46.1581" lon="-1.15349">
        <ele>4.9</ele>
        <time>2020-06-02T09:29:55Z</time>
      </trkpt>
      <trkpt lat="46.1581" lon="-1.15354">
        <ele>4.8</ele>
        <time>2020-06-02T09:29:56Z</time>
      </trkpt>
      <trkpt lat="46.15812" lon="-1.15358">
        <ele>4.8</ele>
        <time>2020-06-02T09:29:57Z</time>
      </trkpt>
      <trkpt lat="46.15813" lon="-1.15359">
        <ele>4.8</ele>
        <time>2020-06-02T09:29:58Z</time>
      </trkpt>
      <trkpt lat="46.15813" lon="-1.1536">
        <ele>4.8</ele>
        <time>2020-06-02T09:29:59Z</time>
      </trkpt>
      <trkpt lat="46.15814" lon="-1.15361">
        <ele>4.8</ele>
        <time>2020-06-02T09:30:00Z</time>
      </trkpt>
      <trkpt lat="46.15813" lon="-1.15362">
        <ele>4.8</ele>
        <time>2020-06-02T09:30:01Z</time>
      </trkpt>
      <trkpt lat="46.15812" lon="-1.15363">
        <ele>4.8</ele>
        <time>2020-06-02T09:30:02Z</time>
      </trkpt>
      <trkpt lat="46.15812" lon="-1.15365">
        <ele>4.8</ele>
        <time>2020-06-02T09:30:03Z</time>
      </trkpt>
      <trkpt lat="46.15812" lon="-1.15366">
        <ele>4.8</ele>
        <time>2020-06-02T09:30:04Z</time>
      </trkpt>
      <trkpt lat="46.15812" lon="-1.15366">
        <ele>4.8</ele>
        <time>2020-06-02T09:30:05Z</time>
      </trkpt>
      <trkpt lat="46.15812" lon="-1.15366">
        <ele>4.8</ele>
        <time>2020-06-02T09:30:06Z</time>
      </trkpt>
      <trkpt lat="46.15812" lon="-1.15367">
        <ele>4.7</ele>
        <time>2020-06-02T09:30:07Z</time>
      </trkpt>
      <trkpt lat="46.15813" lon="-1.15368">
        <ele>4.7</ele>
        <time>2020-06-02T09:30:08Z</time>
      </trkpt>
      <trkpt lat="46.15813" lon="-1.15369">
        <ele>4.7</ele>
        <time>2020-06-02T09:30:09Z</time>
      </trkpt>
      <trkpt lat="46.15815" lon="-1.1537">
        <ele>4.8</ele>
        <time>2020-06-02T09:30:10Z</time>
      </trkpt>
      <trkpt lat="46.15818" lon="-1.15372">
        <ele>4.8</ele>
        <time>2020-06-02T09:30:11Z</time>
      </trkpt>
      <trkpt lat="46.15821" lon="-1.15374">
        <ele>4.8</ele>
        <time>2020-06-02T09:30:12Z</time>
      </trkpt>
      <trkpt lat="46.15824" lon="-1.15375">
        <ele>4.8</ele>
        <time>2020-06-02T09:30:13Z</time>
      </trkpt>
      <trkpt lat="46.15826" lon="-1.15378">
        <ele>4.8</ele>
        <time>2020-06-02T09:30:14Z</time>
      </trkpt>
      <trkpt lat="46.15829" lon="-1.15382">
        <ele>4.8</ele>
        <time>2020-06-02T09:30:15Z</time>
      </trkpt>
      <trkpt lat="46.15832" lon="-1.15386">
        <ele>4.8</ele>
        <time>2020-06-02T09:30:16Z</time>
      </trkpt>
      <trkpt lat="46.15835" lon="-1.15387">
        <ele>4.8</ele>
        <time>2020-06-02T09:30:17Z</time>
      </trkpt>
      <trkpt lat="46.15837" lon="-1.15388">
        <ele>4.8</ele>
        <time>2020-06-02T09:30:18Z</time>
      </trkpt>
      <trkpt lat="46.15839" lon="-1.15387">
        <ele>4.8</ele>
        <time>2020-06-02T09:30:19Z</time>
      </trkpt>
      <trkpt lat="46.15841" lon="-1.15387">
        <ele>4.8</ele>
        <time>2020-06-02T09:30:20Z</time>
      </trkpt>
      <trkpt lat="46.15842" lon="-1.15387">
        <ele>4.9</ele>
        <time>2020-06-02T09:30:21Z</time>
      </trkpt>
      <trkpt lat="46.15843" lon="-1.15387">
        <ele>4.9</ele>
        <time>2020-06-02T09:30:22Z</time>
      </trkpt>
      <trkpt lat="46.15846" lon="-1.15388">
        <ele>4.9</ele>
        <time>2020-06-02T09:30:23Z</time>
      </trkpt>
      <trkpt lat="46.15847" lon="-1.15388">
        <ele>4.9</ele>
        <time>2020-06-02T09:30:24Z</time>
      </trkpt>
      <trkpt lat="46.1585" lon="-1.15389">
        <ele>4.9</ele>
        <time>2020-06-02T09:30:25Z</time>
      </trkpt>
      <trkpt lat="46.15853" lon="-1.1539">
        <ele>4.9</ele>
        <time>2020-06-02T09:30:26Z</time>
      </trkpt>
      <trkpt lat="46.15857" lon="-1.1539">
        <ele>4.9</ele>
        <time>2020-06-02T09:30:27Z</time>
      </trkpt>
      <trkpt lat="46.1586" lon="-1.15391">
        <ele>4.9</ele>
        <time>2020-06-02T09:30:28Z</time>
      </trkpt>
      <trkpt lat="46.15861" lon="-1.15392">
        <ele>4.9</ele>
        <time>2020-06-02T09:30:29Z</time>
      </trkpt>
      <trkpt lat="46.15864" lon="-1.15393">
        <ele>5</ele>
        <time>2020-06-02T09:30:30Z</time>
      </trkpt>
      <trkpt lat="46.15867" lon="-1.15395">
        <ele>5</ele>
        <time>2020-06-02T09:30:31Z</time>
      </trkpt>
      <trkpt lat="46.15868" lon="-1.15396">
        <ele>5</ele>
        <time>2020-06-02T09:30:32Z</time>
      </trkpt>
      <trkpt lat="46.15871" lon="-1.15399">
        <ele>5</ele>
        <time>2020-06-02T09:30:33Z</time>
      </trkpt>
      <trkpt lat="46.15872" lon="-1.15399">
        <ele>5</ele>
        <time>2020-06-02T09:30:34Z</time>
      </trkpt>
      <trkpt lat="46.15872" lon="-1.154">
        <ele>5</ele>
        <time>2020-06-02T09:30:35Z</time>
      </trkpt>
      <trkpt lat="46.15873" lon="-1.15401">
        <ele>5</ele>
        <time>2020-06-02T09:30:36Z</time>
      </trkpt>
      <trkpt lat="46.15874" lon="-1.15402">
        <ele>5</ele>
        <time>2020-06-02T09:30:37Z</time>
      </trkpt>
      <trkpt lat="46.15877" lon="-1.15402">
        <ele>5.1</ele>
        <time>2020-06-02T09:30:38Z</time>
      </trkpt>
      <trkpt lat="46.15878" lon="-1.15402">
        <ele>5.1</ele>
        <time>2020-06-02T09:30:39Z</time>
      </trkpt>
      <trkpt lat="46.15881" lon="-1.15401">
        <ele>5.1</ele>
        <time>2020-06-02T09:30:40Z</time>
      </trkpt>
      <trkpt lat="46.15881" lon="-1.154">
        <ele>5.1</ele>
        <time>2020-06-02T09:30:41Z</time>
      </trkpt>
      <trkpt lat="46.15885" lon="-1.154">
        <ele>5.2</ele>
        <time>2020-06-02T09:30:42Z</time>
      </trkpt>
      <trkpt lat="46.15886" lon="-1.154">
        <ele>5.2</ele>
        <time>2020-06-02T09:30:43Z</time>
      </trkpt>
      <trkpt lat="46.15889" lon="-1.15401">
        <ele>5.2</ele>
        <time>2020-06-02T09:30:44Z</time>
      </trkpt>
      <trkpt lat="46.15892" lon="-1.15401">
        <ele>5.3</ele>
        <time>2020-06-02T09:30:45Z</time>
      </trkpt>
      <trkpt lat="46.159" lon="-1.15399">
        <ele>5.4</ele>
        <time>2020-06-02T09:30:46Z</time>
      </trkpt>
      <trkpt lat="46.15906" lon="-1.15397">
        <ele>5.5</ele>
        <time>2020-06-02T09:30:47Z</time>
      </trkpt>
      <trkpt lat="46.15912" lon="-1.15395">
        <ele>5.6</ele>
        <time>2020-06-02T09:30:48Z</time>
      </trkpt>
      <trkpt lat="46.15918" lon="-1.15393">
        <ele>5.7</ele>
        <time>2020-06-02T09:30:49Z</time>
      </trkpt>
      <trkpt lat="46.15923" lon="-1.15392">
        <ele>5.7</ele>
        <time>2020-06-02T09:30:50Z</time>
      </trkpt>
      <trkpt lat="46.15928" lon="-1.1539">
        <ele>5.7</ele>
        <time>2020-06-02T09:30:51Z</time>
      </trkpt>
      <trkpt lat="46.15931" lon="-1.15389">
        <ele>5.8</ele>
        <time>2020-06-02T09:30:52Z</time>
      </trkpt>
      <trkpt lat="46.15935" lon="-1.15389">
        <ele>5.8</ele>
        <time>2020-06-02T09:30:53Z</time>
      </trkpt>
      <trkpt lat="46.15939" lon="-1.15386">
        <ele>5.8</ele>
        <time>2020-06-02T09:30:54Z</time>
      </trkpt>
      <trkpt lat="46.15942" lon="-1.15384">
        <ele>5.9</ele>
        <time>2020-06-02T09:30:55Z</time>
      </trkpt>
      <trkpt lat="46.15944" lon="-1.15382">
        <ele>5.9</ele>
        <time>2020-06-02T09:30:56Z</time>
      </trkpt>
      <trkpt lat="46.15948" lon="-1.15379">
        <ele>5.9</ele>
        <time>2020-06-02T09:30:57Z</time>
      </trkpt>
      <trkpt lat="46.15951" lon="-1.15378">
        <ele>6</ele>
        <time>2020-06-02T09:30:58Z</time>
      </trkpt>
      <trkpt lat="46.15954" lon="-1.15376">
        <ele>6</ele>
        <time>2020-06-02T09:30:59Z</time>
      </trkpt>
      <trkpt lat="46.15958" lon="-1.15374">
        <ele>6.1</ele>
        <time>2020-06-02T09:31:00Z</time>
      </trkpt>
      <trkpt lat="46.15962" lon="-1.15373">
        <ele>6.2</ele>
        <time>2020-06-02T09:31:01Z</time>
      </trkpt>
      <trkpt lat="46.15966" lon="-1.15373">
        <ele>6.3</ele>
        <time>2020-06-02T09:31:02Z</time>
      </trkpt>
      <trkpt lat="46.15969" lon="-1.15374">
        <ele>6.4</ele>
        <time>2020-06-02T09:31:03Z</time>
      </trkpt>
      <trkpt lat="46.15973" lon="-1.15374">
        <ele>6.5</ele>
        <time>2020-06-02T09:31:04Z</time>
      </trkpt>
      <trkpt lat="46.15977" lon="-1.15374">
        <ele>6.6</ele>
        <time>2020-06-02T09:31:05Z</time>
      </trkpt>
      <trkpt lat="46.15981" lon="-1.15372">
        <ele>6.7</ele>
        <time>2020-06-02T09:31:06Z</time>
      </trkpt>
      <trkpt lat="46.15986" lon="-1.15369">
        <ele>6.8</ele>
        <time>2020-06-02T09:31:07Z</time>
      </trkpt>
      <trkpt lat="46.1599" lon="-1.15367">
        <ele>6.8</ele>
        <time>2020-06-02T09:31:08Z</time>
      </trkpt>
      <trkpt lat="46.15997" lon="-1.15364">
        <ele>6.9</ele>
        <time>2020-06-02T09:31:09Z</time>
      </trkpt>
      <trkpt lat="46.16002" lon="-1.15362">
        <ele>7</ele>
        <time>2020-06-02T09:31:10Z</time>
      </trkpt>
      <trkpt lat="46.16005" lon="-1.1536">
        <ele>7</ele>
        <time>2020-06-02T09:31:11Z</time>
      </trkpt>
      <trkpt lat="46.16009" lon="-1.15358">
        <ele>7.1</ele>
        <time>2020-06-02T09:31:12Z</time>
      </trkpt>
      <trkpt lat="46.16012" lon="-1.15357">
        <ele>7.1</ele>
        <time>2020-06-02T09:31:13Z</time>
      </trkpt>
      <trkpt lat="46.16018" lon="-1.15348">
        <ele>7.1</ele>
        <time>2020-06-02T09:31:14Z</time>
      </trkpt>
      <trkpt lat="46.16021" lon="-1.15345">
        <ele>7.1</ele>
        <time>2020-06-02T09:31:15Z</time>
      </trkpt>
      <trkpt lat="46.16024" lon="-1.15345">
        <ele>7.2</ele>
        <time>2020-06-02T09:31:16Z</time>
      </trkpt>
      <trkpt lat="46.16025" lon="-1.15345">
        <ele>7.2</ele>
        <time>2020-06-02T09:31:17Z</time>
      </trkpt>
      <trkpt lat="46.16028" lon="-1.15344">
        <ele>7.2</ele>
        <time>2020-06-02T09:31:18Z</time>
      </trkpt>
      <trkpt lat="46.16032" lon="-1.15345">
        <ele>7.2</ele>
        <time>2020-06-02T09:31:19Z</time>
      </trkpt>
      <trkpt lat="46.16036" lon="-1.15344">
        <ele>7.2</ele>
        <time>2020-06-02T09:31:20Z</time>
      </trkpt>
      <trkpt lat="46.16041" lon="-1.15344">
        <ele>7.3</ele>
        <time>2020-06-02T09:31:21Z</time>
      </trkpt>
      <trkpt lat="46.16044" lon="-1.15343">
        <ele>7.3</ele>
        <time>2020-06-02T09:31:22Z</time>
      </trkpt>
      <trkpt lat="46.16049" lon="-1.15341">
        <ele>7.3</ele>
        <time>2020-06-02T09:31:23Z</time>
      </trkpt>
      <trkpt lat="46.16052" lon="-1.15341">
        <ele>7.3</ele>
        <time>2020-06-02T09:31:24Z</time>
      </trkpt>
      <trkpt lat="46.16056" lon="-1.1534">
        <ele>7.4</ele>
        <time>2020-06-02T09:31:25Z</time>
      </trkpt>
      <trkpt lat="46.1606" lon="-1.1534">
        <ele>7.4</ele>
        <time>2020-06-02T09:31:26Z</time>
      </trkpt>
      <trkpt lat="46.16064" lon="-1.15339">
        <ele>7.4</ele>
        <time>2020-06-02T09:31:27Z</time>
      </trkpt>
      <trkpt lat="46.16069" lon="-1.15335">
        <ele>7.5</ele>
        <time>2020-06-02T09:31:28Z</time>
      </trkpt>
      <trkpt lat="46.16072" lon="-1.15333">
        <ele>7.5</ele>
        <time>2020-06-02T09:31:29Z</time>
      </trkpt>
      <trkpt lat="46.16075" lon="-1.15332">
        <ele>7.5</ele>
        <time>2020-06-02T09:31:30Z</time>
      </trkpt>
      <trkpt lat="46.16078" lon="-1.15331">
        <ele>7.5</ele>
        <time>2020-06-02T09:31:31Z</time>
      </trkpt>
      <trkpt lat="46.16081" lon="-1.1533">
        <ele>7.5</ele>
        <time>2020-06-02T09:31:32Z</time>
      </trkpt>
      <trkpt lat="46.16084" lon="-1.1533">
        <ele>7.6</ele>
        <time>2020-06-02T09:31:33Z</time>
      </trkpt>
      <trkpt lat="46.16086" lon="-1.1533">
        <ele>7.6</ele>
        <time>2020-06-02T09:31:34Z</time>
      </trkpt>
      <trkpt lat="46.1609" lon="-1.1533">
        <ele>7.6</ele>
        <time>2020-06-02T09:31:35Z</time>
      </trkpt>
      <trkpt lat="46.16094" lon="-1.1533">
        <ele>7.6</ele>
        <time>2020-06-02T09:31:36Z</time>
      </trkpt>
      <trkpt lat="46.16099" lon="-1.15328">
        <ele>7.6</ele>
        <time>2020-06-02T09:31:37Z</time>
      </trkpt>
      <trkpt lat="46.16103" lon="-1.15324">
        <ele>7.7</ele>
        <time>2020-06-02T09:31:38Z</time>
      </trkpt>
      <trkpt lat="46.16105" lon="-1.15323">
        <ele>7.7</ele>
        <time>2020-06-02T09:31:39Z</time>
      </trkpt>
      <trkpt lat="46.16109" lon="-1.15319">
        <ele>7.7</ele>
        <time>2020-06-02T09:31:40Z</time>
      </trkpt>
      <trkpt lat="46.16113" lon="-1.15314">
        <ele>7.7</ele>
        <time>2020-06-02T09:31:41Z</time>
      </trkpt>
      <trkpt lat="46.16116" lon="-1.15312">
        <ele>7.7</ele>
        <time>2020-06-02T09:31:42Z</time>
      </trkpt>
      <trkpt lat="46.16119" lon="-1.15312">
        <ele>7.7</ele>
        <time>2020-06-02T09:31:43Z</time>
      </trkpt>
      <trkpt lat="46.16123" lon="-1.15311">
        <ele>7.7</ele>
        <time>2020-06-02T09:31:44Z</time>
      </trkpt>
      <trkpt lat="46.16127" lon="-1.1531">
        <ele>7.7</ele>
        <time>2020-06-02T09:31:45Z</time>
      </trkpt>
      <trkpt lat="46.16131" lon="-1.15308">
        <ele>7.7</ele>
        <time>2020-06-02T09:31:46Z</time>
      </trkpt>
      <trkpt lat="46.16135" lon="-1.15308">
        <ele>7.7</ele>
        <time>2020-06-02T09:31:47Z</time>
      </trkpt>
      <trkpt lat="46.16138" lon="-1.15307">
        <ele>7.8</ele>
        <time>2020-06-02T09:31:48Z</time>
      </trkpt>
      <trkpt lat="46.16141" lon="-1.15306">
        <ele>7.8</ele>
        <time>2020-06-02T09:31:49Z</time>
      </trkpt>
      <trkpt lat="46.16142" lon="-1.15306">
        <ele>7.8</ele>
        <time>2020-06-02T09:31:50Z</time>
      </trkpt>
      <trkpt lat="46.16144" lon="-1.15306">
        <ele>7.8</ele>
        <time>2020-06-02T09:31:51Z</time>
      </trkpt>
      <trkpt lat="46.16146" lon="-1.15306">
        <ele>7.8</ele>
        <time>2020-06-02T09:31:52Z</time>
      </trkpt>
      <trkpt lat="46.16147" lon="-1.15306">
        <ele>7.8</ele>
        <time>2020-06-02T09:31:53Z</time>
      </trkpt>
      <trkpt lat="46.16149" lon="-1.15305">
        <ele>7.8</ele>
        <time>2020-06-02T09:31:54Z</time>
      </trkpt>
      <trkpt lat="46.16151" lon="-1.15304">
        <ele>7.8</ele>
        <time>2020-06-02T09:31:55Z</time>
      </trkpt>
      <trkpt lat="46.16151" lon="-1.15304">
        <ele>7.8</ele>
        <time>2020-06-02T09:31:56Z</time>
      </trkpt>
      <trkpt lat="46.16152" lon="-1.15303">
        <ele>7.8</ele>
        <time>2020-06-02T09:31:57Z</time>
      </trkpt>
      <trkpt lat="46.16152" lon="-1.15303">
        <ele>7.8</ele>
        <time>2020-06-02T09:31:58Z</time>
      </trkpt>
      <trkpt lat="46.16153" lon="-1.15303">
        <ele>7.9</ele>
        <time>2020-06-02T09:31:59Z</time>
      </trkpt>
      <trkpt lat="46.16153" lon="-1.15303">
        <ele>7.9</ele>
        <time>2020-06-02T09:32:00Z</time>
      </trkpt>
      <trkpt lat="46.16153" lon="-1.15303">
        <ele>7.9</ele>
        <time>2020-06-02T09:32:01Z</time>
      </trkpt>
      <trkpt lat="46.16153" lon="-1.15302">
        <ele>7.9</ele>
        <time>2020-06-02T09:32:02Z</time>
      </trkpt>
      <trkpt lat="46.16154" lon="-1.15301">
        <ele>7.9</ele>
        <time>2020-06-02T09:32:03Z</time>
      </trkpt>
      <trkpt lat="46.16155" lon="-1.15303">
        <ele>7.9</ele>
        <time>2020-06-02T09:32:04Z</time>
      </trkpt>
      <trkpt lat="46.16155" lon="-1.15302">
        <ele>7.9</ele>
        <time>2020-06-02T09:32:05Z</time>
      </trkpt>
      <trkpt lat="46.16156" lon="-1.15299">
        <ele>7.9</ele>
        <time>2020-06-02T09:32:06Z</time>
      </trkpt>
      <trkpt lat="46.16158" lon="-1.15295">
        <ele>7.9</ele>
        <time>2020-06-02T09:32:07Z</time>
      </trkpt>
      <trkpt lat="46.16159" lon="-1.15295">
        <ele>7.9</ele>
        <time>2020-06-02T09:32:08Z</time>
      </trkpt>
      <trkpt lat="46.1616" lon="-1.15296">
        <ele>7.9</ele>
        <time>2020-06-02T09:32:09Z</time>
      </trkpt>
      <trkpt lat="46.16161" lon="-1.15296">
        <ele>7.9</ele>
        <time>2020-06-02T09:32:10Z</time>
      </trkpt>
      <trkpt lat="46.16162" lon="-1.15296">
        <ele>7.9</ele>
        <time>2020-06-02T09:32:11Z</time>
      </trkpt>
      <trkpt lat="46.16162" lon="-1.15296">
        <ele>7.9</ele>
        <time>2020-06-02T09:32:12Z</time>
      </trkpt>
      <trkpt lat="46.16164" lon="-1.15296">
        <ele>7.9</ele>
        <time>2020-06-02T09:32:13Z</time>
      </trkpt>
      <trkpt lat="46.16165" lon="-1.15295">
        <ele>8</ele>
        <time>2020-06-02T09:32:14Z</time>
      </trkpt>
      <trkpt lat="46.16168" lon="-1.15293">
        <ele>8</ele>
        <time>2020-06-02T09:32:15Z</time>
      </trkpt>
      <trkpt lat="46.16171" lon="-1.1529">
        <ele>8.1</ele>
        <time>2020-06-02T09:32:16Z</time>
      </trkpt>
      <trkpt lat="46.16175" lon="-1.15288">
        <ele>8.1</ele>
        <time>2020-06-02T09:32:17Z</time>
      </trkpt>
      <trkpt lat="46.16179" lon="-1.15285">
        <ele>8.3</ele>
        <time>2020-06-02T09:32:18Z</time>
      </trkpt>
      <trkpt lat="46.16184" lon="-1.15281">
        <ele>8.5</ele>
        <time>2020-06-02T09:32:19Z</time>
      </trkpt>
      <trkpt lat="46.16187" lon="-1.1528">
        <ele>8.6</ele>
        <time>2020-06-02T09:32:20Z</time>
      </trkpt>
      <trkpt lat="46.16191" lon="-1.15278">
        <ele>8.7</ele>
        <time>2020-06-02T09:32:21Z</time>
      </trkpt>
      <trkpt lat="46.16194" lon="-1.15276">
        <ele>8.8</ele>
        <time>2020-06-02T09:32:22Z</time>
      </trkpt>
      <trkpt lat="46.16196" lon="-1.15274">
        <ele>8.9</ele>
        <time>2020-06-02T09:32:23Z</time>
      </trkpt>
      <trkpt lat="46.16199" lon="-1.15272">
        <ele>9.1</ele>
        <time>2020-06-02T09:32:24Z</time>
      </trkpt>
      <trkpt lat="46.16202" lon="-1.15269">
        <ele>9.2</ele>
        <time>2020-06-02T09:32:25Z</time>
      </trkpt>
      <trkpt lat="46.16205" lon="-1.15268">
        <ele>9.3</ele>
        <time>2020-06-02T09:32:26Z</time>
      </trkpt>
      <trkpt lat="46.16209" lon="-1.15266">
        <ele>9.3</ele>
        <time>2020-06-02T09:32:27Z</time>
      </trkpt>
      <trkpt lat="46.16211" lon="-1.15266">
        <ele>9.4</ele>
        <time>2020-06-02T09:32:28Z</time>
      </trkpt>
      <trkpt lat="46.16215" lon="-1.15263">
        <ele>9.4</ele>
        <time>2020-06-02T09:32:29Z</time>
      </trkpt>
      <trkpt lat="46.16219" lon="-1.1526">
        <ele>9.5</ele>
        <time>2020-06-02T09:32:30Z</time>
      </trkpt>
      <trkpt lat="46.16221" lon="-1.15259">
        <ele>9.5</ele>
        <time>2020-06-02T09:32:31Z</time>
      </trkpt>
      <trkpt lat="46.16224" lon="-1.15257">
        <ele>9.5</ele>
        <time>2020-06-02T09:32:32Z</time>
      </trkpt>
      <trkpt lat="46.16228" lon="-1.15256">
        <ele>9.6</ele>
        <time>2020-06-02T09:32:33Z</time>
      </trkpt>
      <trkpt lat="46.16232" lon="-1.15253">
        <ele>9.6</ele>
        <time>2020-06-02T09:32:34Z</time>
      </trkpt>
      <trkpt lat="46.16236" lon="-1.15252">
        <ele>9.7</ele>
        <time>2020-06-02T09:32:35Z</time>
      </trkpt>
      <trkpt lat="46.16237" lon="-1.15252">
        <ele>9.7</ele>
        <time>2020-06-02T09:32:36Z</time>
      </trkpt>
      <trkpt lat="46.16241" lon="-1.15251">
        <ele>9.8</ele>
        <time>2020-06-02T09:32:37Z</time>
      </trkpt>
      <trkpt lat="46.16242" lon="-1.1525">
        <ele>9.8</ele>
        <time>2020-06-02T09:32:38Z</time>
      </trkpt>
      <trkpt lat="46.16245" lon="-1.15248">
        <ele>9.8</ele>
        <time>2020-06-02T09:32:39Z</time>
      </trkpt>
      <trkpt lat="46.1625" lon="-1.15247">
        <ele>9.9</ele>
        <time>2020-06-02T09:32:40Z</time>
      </trkpt>
      <trkpt lat="46.16254" lon="-1.15244">
        <ele>10</ele>
        <time>2020-06-02T09:32:41Z</time>
      </trkpt>
      <trkpt lat="46.16257" lon="-1.15241">
        <ele>10</ele>
        <time>2020-06-02T09:32:42Z</time>
      </trkpt>
      <trkpt lat="46.16261" lon="-1.1524">
        <ele>10.1</ele>
        <time>2020-06-02T09:32:43Z</time>
      </trkpt>
      <trkpt lat="46.16264" lon="-1.15238">
        <ele>10.1</ele>
        <time>2020-06-02T09:32:44Z</time>
      </trkpt>
      <trkpt lat="46.16268" lon="-1.15237">
        <ele>10.2</ele>
        <time>2020-06-02T09:32:45Z</time>
      </trkpt>
      <trkpt lat="46.16271" lon="-1.15236">
        <ele>10.3</ele>
        <time>2020-06-02T09:32:46Z</time>
      </trkpt>
      <trkpt lat="46.16273" lon="-1.15235">
        <ele>10.3</ele>
        <time>2020-06-02T09:32:47Z</time>
      </trkpt>
      <trkpt lat="46.16276" lon="-1.15234">
        <ele>10.3</ele>
        <time>2020-06-02T09:32:48Z</time>
      </trkpt>
      <trkpt lat="46.16281" lon="-1.15231">
        <ele>10.4</ele>
        <time>2020-06-02T09:32:49Z</time>
      </trkpt>
      <trkpt lat="46.16285" lon="-1.15229">
        <ele>10.4</ele>
        <time>2020-06-02T09:32:50Z</time>
      </trkpt>
      <trkpt lat="46.16289" lon="-1.15227">
        <ele>10.4</ele>
        <time>2020-06-02T09:32:51Z</time>
      </trkpt>
      <trkpt lat="46.16292" lon="-1.15226">
        <ele>10.4</ele>
        <time>2020-06-02T09:32:52Z</time>
      </trkpt>
      <trkpt lat="46.16297" lon="-1.15227">
        <ele>10.4</ele>
        <time>2020-06-02T09:32:53Z</time>
      </trkpt>
      <trkpt lat="46.16302" lon="-1.15225">
        <ele>10.4</ele>
        <time>2020-06-02T09:32:54Z</time>
      </trkpt>
      <trkpt lat="46.16305" lon="-1.15225">
        <ele>10.4</ele>
        <time>2020-06-02T09:32:55Z</time>
      </trkpt>
      <trkpt lat="46.16309" lon="-1.15227">
        <ele>10.4</ele>
        <time>2020-06-02T09:32:56Z</time>
      </trkpt>
      <trkpt lat="46.1631" lon="-1.15228">
        <ele>10.4</ele>
        <time>2020-06-02T09:32:57Z</time>
      </trkpt>
      <trkpt lat="46.16313" lon="-1.15228">
        <ele>10.5</ele>
        <time>2020-06-02T09:32:58Z</time>
      </trkpt>
      <trkpt lat="46.16317" lon="-1.15228">
        <ele>10.5</ele>
        <time>2020-06-02T09:32:59Z</time>
      </trkpt>
      <trkpt lat="46.16321" lon="-1.15228">
        <ele>10.5</ele>
        <time>2020-06-02T09:33:00Z</time>
      </trkpt>
      <trkpt lat="46.16326" lon="-1.15225">
        <ele>10.5</ele>
        <time>2020-06-02T09:33:01Z</time>
      </trkpt>
      <trkpt lat="46.1633" lon="-1.15222">
        <ele>10.5</ele>
        <time>2020-06-02T09:33:02Z</time>
      </trkpt>
      <trkpt lat="46.16334" lon="-1.15219">
        <ele>10.5</ele>
        <time>2020-06-02T09:33:03Z</time>
      </trkpt>
      <trkpt lat="46.16337" lon="-1.15216">
        <ele>10.6</ele>
        <time>2020-06-02T09:33:04Z</time>
      </trkpt>
      <trkpt lat="46.16338" lon="-1.15216">
        <ele>10.6</ele>
        <time>2020-06-02T09:33:05Z</time>
      </trkpt>
      <trkpt lat="46.1634" lon="-1.15217">
        <ele>10.6</ele>
        <time>2020-06-02T09:33:06Z</time>
      </trkpt>
      <trkpt lat="46.16341" lon="-1.15216">
        <ele>10.6</ele>
        <time>2020-06-02T09:33:07Z</time>
      </trkpt>
      <trkpt lat="46.16342" lon="-1.15216">
        <ele>10.6</ele>
        <time>2020-06-02T09:33:08Z</time>
      </trkpt>
      <trkpt lat="46.16343" lon="-1.15215">
        <ele>10.6</ele>
        <time>2020-06-02T09:33:09Z</time>
      </trkpt>
      <trkpt lat="46.16343" lon="-1.15214">
        <ele>10.6</ele>
        <time>2020-06-02T09:33:10Z</time>
      </trkpt>
      <trkpt lat="46.16344" lon="-1.15214">
        <ele>10.6</ele>
        <time>2020-06-02T09:33:11Z</time>
      </trkpt>
      <trkpt lat="46.16344" lon="-1.15214">
        <ele>10.6</ele>
        <time>2020-06-02T09:33:12Z</time>
      </trkpt>
      <trkpt lat="46.16345" lon="-1.15213">
        <ele>10.6</ele>
        <time>2020-06-02T09:33:13Z</time>
      </trkpt>
      <trkpt lat="46.16345" lon="-1.15213">
        <ele>10.6</ele>
        <time>2020-06-02T09:33:14Z</time>
      </trkpt>
      <trkpt lat="46.16346" lon="-1.15212">
        <ele>10.6</ele>
        <time>2020-06-02T09:33:15Z</time>
      </trkpt>
      <trkpt lat="46.16346" lon="-1.15211">
        <ele>10.6</ele>
        <time>2020-06-02T09:33:16Z</time>
      </trkpt>
      <trkpt lat="46.16346" lon="-1.15211">
        <ele>10.6</ele>
        <time>2020-06-02T09:33:17Z</time>
      </trkpt>
      <trkpt lat="46.16346" lon="-1.15211">
        <ele>10.6</ele>
        <time>2020-06-02T09:33:18Z</time>
      </trkpt>
      <trkpt lat="46.16346" lon="-1.1521">
        <ele>10.6</ele>
        <time>2020-06-02T09:33:19Z</time>
      </trkpt>
      <trkpt lat="46.16347" lon="-1.15211">
        <ele>10.6</ele>
        <time>2020-06-02T09:33:20Z</time>
      </trkpt>
      <trkpt lat="46.16347" lon="-1.15211">
        <ele>10.7</ele>
        <time>2020-06-02T09:33:21Z</time>
      </trkpt>
      <trkpt lat="46.16347" lon="-1.15211">
        <ele>10.7</ele>
        <time>2020-06-02T09:33:22Z</time>
      </trkpt>
      <trkpt lat="46.16347" lon="-1.15211">
        <ele>10.7</ele>
        <time>2020-06-02T09:33:23Z</time>
      </trkpt>
      <trkpt lat="46.16347" lon="-1.15211">
        <ele>10.7</ele>
        <time>2020-06-02T09:33:24Z</time>
      </trkpt>
      <trkpt lat="46.16347" lon="-1.15211">
        <ele>10.7</ele>
        <time>2020-06-02T09:33:25Z</time>
      </trkpt>
      <trkpt lat="46.16349" lon="-1.15211">
        <ele>10.7</ele>
        <time>2020-06-02T09:33:26Z</time>
      </trkpt>
      <trkpt lat="46.1635" lon="-1.15212">
        <ele>10.7</ele>
        <time>2020-06-02T09:33:27Z</time>
      </trkpt>
      <trkpt lat="46.1635" lon="-1.15211">
        <ele>10.7</ele>
        <time>2020-06-02T09:33:28Z</time>
      </trkpt>
      <trkpt lat="46.1635" lon="-1.1521">
        <ele>10.7</ele>
        <time>2020-06-02T09:33:29Z</time>
      </trkpt>
      <trkpt lat="46.1635" lon="-1.15211">
        <ele>10.7</ele>
        <time>2020-06-02T09:33:30Z</time>
      </trkpt>
      <trkpt lat="46.1635" lon="-1.15211">
        <ele>10.7</ele>
        <time>2020-06-02T09:33:31Z</time>
      </trkpt>
      <trkpt lat="46.1635" lon="-1.15211">
        <ele>10.7</ele>
        <time>2020-06-02T09:33:32Z</time>
      </trkpt>
      <trkpt lat="46.1635" lon="-1.15211">
        <ele>10.7</ele>
        <time>2020-06-02T09:33:33Z</time>
      </trkpt>
      <trkpt lat="46.16351" lon="-1.15211">
        <ele>10.7</ele>
        <time>2020-06-02T09:33:34Z</time>
      </trkpt>
      <trkpt lat="46.16351" lon="-1.15211">
        <ele>10.7</ele>
        <time>2020-06-02T09:33:35Z</time>
      </trkpt>
      <trkpt lat="46.16351" lon="-1.1521">
        <ele>10.7</ele>
        <time>2020-06-02T09:33:36Z</time>
      </trkpt>
      <trkpt lat="46.16351" lon="-1.15209">
        <ele>10.7</ele>
        <time>2020-06-02T09:33:37Z</time>
      </trkpt>
      <trkpt lat="46.16351" lon="-1.15209">
        <ele>10.7</ele>
        <time>2020-06-02T09:33:38Z</time>
      </trkpt>
      <trkpt lat="46.16351" lon="-1.15209">
        <ele>10.7</ele>
        <time>2020-06-02T09:33:39Z</time>
      </trkpt>
      <trkpt lat="46.16352" lon="-1.15209">
        <ele>10.7</ele>
        <time>2020-06-02T09:33:40Z</time>
      </trkpt>
      <trkpt lat="46.16352" lon="-1.15209">
        <ele>10.7</ele>
        <time>2020-06-02T09:33:41Z</time>
      </trkpt>
      <trkpt lat="46.16352" lon="-1.15208">
        <ele>10.7</ele>
        <time>2020-06-02T09:33:42Z</time>
      </trkpt>
      <trkpt lat="46.16352" lon="-1.15208">
        <ele>10.7</ele>
        <time>2020-06-02T09:33:43Z</time>
      </trkpt>
      <trkpt lat="46.16352" lon="-1.15208">
        <ele>10.7</ele>
        <time>2020-06-02T09:33:44Z</time>
      </trkpt>
      <trkpt lat="46.16351" lon="-1.15207">
        <ele>10.7</ele>
        <time>2020-06-02T09:33:45Z</time>
      </trkpt>
      <trkpt lat="46.16351" lon="-1.15206">
        <ele>10.8</ele>
        <time>2020-06-02T09:33:46Z</time>
      </trkpt>
      <trkpt lat="46.16351" lon="-1.15206">
        <ele>10.8</ele>
        <time>2020-06-02T09:33:47Z</time>
      </trkpt>
      <trkpt lat="46.16351" lon="-1.15207">
        <ele>10.8</ele>
        <time>2020-06-02T09:33:48Z</time>
      </trkpt>
      <trkpt lat="46.16352" lon="-1.15208">
        <ele>10.8</ele>
        <time>2020-06-02T09:33:49Z</time>
      </trkpt>
      <trkpt lat="46.16352" lon="-1.15208">
        <ele>10.8</ele>
        <time>2020-06-02T09:33:50Z</time>
      </trkpt>
      <trkpt lat="46.16352" lon="-1.15208">
        <ele>10.8</ele>
        <time>2020-06-02T09:33:51Z</time>
      </trkpt>
      <trkpt lat="46.16352" lon="-1.15208">
        <ele>10.8</ele>
        <time>2020-06-02T09:33:52Z</time>
      </trkpt>
      <trkpt lat="46.16352" lon="-1.15208">
        <ele>10.8</ele>
        <time>2020-06-02T09:33:53Z</time>
      </trkpt>
      <trkpt lat="46.16352" lon="-1.15208">
        <ele>10.8</ele>
        <time>2020-06-02T09:33:54Z</time>
      </trkpt>
      <trkpt lat="46.16352" lon="-1.15208">
        <ele>10.8</ele>
        <time>2020-06-02T09:33:55Z</time>
      </trkpt>
      <trkpt lat="46.16353" lon="-1.15207">
        <ele>10.8</ele>
        <time>2020-06-02T09:33:56Z</time>
      </trkpt>
      <trkpt lat="46.16352" lon="-1.15207">
        <ele>10.8</ele>
        <time>2020-06-02T09:33:57Z</time>
      </trkpt>
      <trkpt lat="46.16353" lon="-1.15208">
        <ele>10.8</ele>
        <time>2020-06-02T09:33:58Z</time>
      </trkpt>
      <trkpt lat="46.16353" lon="-1.1521">
        <ele>10.8</ele>
        <time>2020-06-02T09:33:59Z</time>
      </trkpt>
      <trkpt lat="46.16353" lon="-1.1521">
        <ele>10.8</ele>
        <time>2020-06-02T09:34:00Z</time>
      </trkpt>
      <trkpt lat="46.16353" lon="-1.15211">
        <ele>10.8</ele>
        <time>2020-06-02T09:34:01Z</time>
      </trkpt>
      <trkpt lat="46.16353" lon="-1.15211">
        <ele>10.8</ele>
        <time>2020-06-02T09:34:02Z</time>
      </trkpt>
      <trkpt lat="46.16352" lon="-1.15211">
        <ele>10.8</ele>
        <time>2020-06-02T09:34:03Z</time>
      </trkpt>
      <trkpt lat="46.16352" lon="-1.1521">
        <ele>10.8</ele>
        <time>2020-06-02T09:34:04Z</time>
      </trkpt>
      <trkpt lat="46.16352" lon="-1.1521">
        <ele>10.8</ele>
        <time>2020-06-02T09:34:05Z</time>
      </trkpt>
      <trkpt lat="46.16352" lon="-1.1521">
        <ele>10.8</ele>
        <time>2020-06-02T09:34:06Z</time>
      </trkpt>
      <trkpt lat="46.16353" lon="-1.15211">
        <ele>10.8</ele>
        <time>2020-06-02T09:34:07Z</time>
      </trkpt>
      <trkpt lat="46.16353" lon="-1.15211">
        <ele>10.8</ele>
        <time>2020-06-02T09:34:08Z</time>
      </trkpt>
      <trkpt lat="46.16353" lon="-1.15212">
        <ele>10.8</ele>
        <time>2020-06-02T09:34:09Z</time>
      </trkpt>
      <trkpt lat="46.16352" lon="-1.15212">
        <ele>10.8</ele>
        <time>2020-06-02T09:34:10Z</time>
      </trkpt>
      <trkpt lat="46.16352" lon="-1.15212">
        <ele>10.8</ele>
        <time>2020-06-02T09:34:11Z</time>
      </trkpt>
      <trkpt lat="46.16352" lon="-1.15212">
        <ele>10.8</ele>
        <time>2020-06-02T09:34:12Z</time>
      </trkpt>
      <trkpt lat="46.16352" lon="-1.15212">
        <ele>10.8</ele>
        <time>2020-06-02T09:34:13Z</time>
      </trkpt>
      <trkpt lat="46.16352" lon="-1.15212">
        <ele>10.8</ele>
        <time>2020-06-02T09:34:14Z</time>
      </trkpt>
      <trkpt lat="46.16352" lon="-1.15212">
        <ele>10.8</ele>
        <time>2020-06-02T09:34:15Z</time>
      </trkpt>
      <trkpt lat="46.16352" lon="-1.15212">
        <ele>10.8</ele>
        <time>2020-06-02T09:34:16Z</time>
      </trkpt>
      <trkpt lat="46.16352" lon="-1.15213">
        <ele>10.8</ele>
        <time>2020-06-02T09:34:17Z</time>
      </trkpt>
      <trkpt lat="46.16352" lon="-1.15214">
        <ele>10.8</ele>
        <time>2020-06-02T09:34:18Z</time>
      </trkpt>
      <trkpt lat="46.16353" lon="-1.15215">
        <ele>10.8</ele>
        <time>2020-06-02T09:34:19Z</time>
      </trkpt>
      <trkpt lat="46.16353" lon="-1.15215">
        <ele>10.8</ele>
        <time>2020-06-02T09:34:20Z</time>
      </trkpt>
      <trkpt lat="46.16353" lon="-1.15214">
        <ele>10.8</ele>
        <time>2020-06-02T09:34:21Z</time>
      </trkpt>
      <trkpt lat="46.16353" lon="-1.15213">
        <ele>10.9</ele>
        <time>2020-06-02T09:34:22Z</time>
      </trkpt>
      <trkpt lat="46.16352" lon="-1.15212">
        <ele>10.9</ele>
        <time>2020-06-02T09:34:23Z</time>
      </trkpt>
      <trkpt lat="46.16352" lon="-1.15212">
        <ele>10.9</ele>
        <time>2020-06-02T09:34:24Z</time>
      </trkpt>
      <trkpt lat="46.16352" lon="-1.15212">
        <ele>10.9</ele>
        <time>2020-06-02T09:34:25Z</time>
      </trkpt>
      <trkpt lat="46.16351" lon="-1.15212">
        <ele>10.9</ele>
        <time>2020-06-02T09:34:26Z</time>
      </trkpt>
      <trkpt lat="46.16351" lon="-1.15212">
        <ele>10.9</ele>
        <time>2020-06-02T09:34:27Z</time>
      </trkpt>
      <trkpt lat="46.1635" lon="-1.1521">
        <ele>10.9</ele>
        <time>2020-06-02T09:34:28Z</time>
      </trkpt>
      <trkpt lat="46.16351" lon="-1.15209">
        <ele>10.9</ele>
        <time>2020-06-02T09:34:29Z</time>
      </trkpt>
      <trkpt lat="46.16351" lon="-1.15209">
        <ele>10.9</ele>
        <time>2020-06-02T09:34:30Z</time>
      </trkpt>
      <trkpt lat="46.16352" lon="-1.15209">
        <ele>10.9</ele>
        <time>2020-06-02T09:34:31Z</time>
      </trkpt>
      <trkpt lat="46.16354" lon="-1.15208">
        <ele>10.9</ele>
        <time>2020-06-02T09:34:32Z</time>
      </trkpt>
      <trkpt lat="46.16356" lon="-1.15206">
        <ele>10.9</ele>
        <time>2020-06-02T09:34:33Z</time>
      </trkpt>
      <trkpt lat="46.16358" lon="-1.15205">
        <ele>10.9</ele>
        <time>2020-06-02T09:34:34Z</time>
      </trkpt>
      <trkpt lat="46.16361" lon="-1.15203">
        <ele>10.9</ele>
        <time>2020-06-02T09:34:35Z</time>
      </trkpt>
      <trkpt lat="46.16365" lon="-1.15202">
        <ele>10.9</ele>
        <time>2020-06-02T09:34:36Z</time>
      </trkpt>
      <trkpt lat="46.16366" lon="-1.15201">
        <ele>11</ele>
        <time>2020-06-02T09:34:37Z</time>
      </trkpt>
      <trkpt lat="46.16371" lon="-1.152">
        <ele>11</ele>
        <time>2020-06-02T09:34:38Z</time>
      </trkpt>
      <trkpt lat="46.16374" lon="-1.15199">
        <ele>11.1</ele>
        <time>2020-06-02T09:34:39Z</time>
      </trkpt>
      <trkpt lat="46.16379" lon="-1.15196">
        <ele>11.2</ele>
        <time>2020-06-02T09:34:40Z</time>
      </trkpt>
      <trkpt lat="46.16382" lon="-1.15195">
        <ele>11.2</ele>
        <time>2020-06-02T09:34:41Z</time>
      </trkpt>
      <trkpt lat="46.16387" lon="-1.15194">
        <ele>11.3</ele>
        <time>2020-06-02T09:34:42Z</time>
      </trkpt>
      <trkpt lat="46.16392" lon="-1.15192">
        <ele>11.4</ele>
        <time>2020-06-02T09:34:43Z</time>
      </trkpt>
      <trkpt lat="46.16396" lon="-1.15192">
        <ele>11.5</ele>
        <time>2020-06-02T09:34:44Z</time>
      </trkpt>
      <trkpt lat="46.164" lon="-1.15192">
        <ele>11.5</ele>
        <time>2020-06-02T09:34:45Z</time>
      </trkpt>
      <trkpt lat="46.16403" lon="-1.1519">
        <ele>11.6</ele>
        <time>2020-06-02T09:34:46Z</time>
      </trkpt>
      <trkpt lat="46.16408" lon="-1.15188">
        <ele>11.7</ele>
        <time>2020-06-02T09:34:47Z</time>
      </trkpt>
      <trkpt lat="46.16413" lon="-1.15186">
        <ele>11.8</ele>
        <time>2020-06-02T09:34:48Z</time>
      </trkpt>
      <trkpt lat="46.16418" lon="-1.15177">
        <ele>12</ele>
        <time>2020-06-02T09:34:49Z</time>
      </trkpt>
      <trkpt lat="46.16421" lon="-1.15177">
        <ele>12</ele>
        <time>2020-06-02T09:34:50Z</time>
      </trkpt>
      <trkpt lat="46.16424" lon="-1.15177">
        <ele>12.1</ele>
        <time>2020-06-02T09:34:51Z</time>
      </trkpt>
      <trkpt lat="46.16427" lon="-1.15177">
        <ele>12.1</ele>
        <time>2020-06-02T09:34:52Z</time>
      </trkpt>
      <trkpt lat="46.16431" lon="-1.15176">
        <ele>12.1</ele>
        <time>2020-06-02T09:34:53Z</time>
      </trkpt>
      <trkpt lat="46.16434" lon="-1.15174">
        <ele>12.2</ele>
        <time>2020-06-02T09:34:54Z</time>
      </trkpt>
      <trkpt lat="46.16441" lon="-1.15171">
        <ele>12.2</ele>
        <time>2020-06-02T09:34:55Z</time>
      </trkpt>
      <trkpt lat="46.16446" lon="-1.15167">
        <ele>12.3</ele>
        <time>2020-06-02T09:34:56Z</time>
      </trkpt>
      <trkpt lat="46.16451" lon="-1.15163">
        <ele>12.4</ele>
        <time>2020-06-02T09:34:57Z</time>
      </trkpt>
      <trkpt lat="46.16456" lon="-1.15161">
        <ele>12.5</ele>
        <time>2020-06-02T09:34:58Z</time>
      </trkpt>
      <trkpt lat="46.1646" lon="-1.15156">
        <ele>12.6</ele>
        <time>2020-06-02T09:34:59Z</time>
      </trkpt>
      <trkpt lat="46.16466" lon="-1.15151">
        <ele>12.8</ele>
        <time>2020-06-02T09:35:00Z</time>
      </trkpt>
      <trkpt lat="46.1647" lon="-1.15144">
        <ele>12.9</ele>
        <time>2020-06-02T09:35:01Z</time>
      </trkpt>
      <trkpt lat="46.16472" lon="-1.15136">
        <ele>13</ele>
        <time>2020-06-02T09:35:02Z</time>
      </trkpt>
      <trkpt lat="46.16473" lon="-1.15127">
        <ele>13</ele>
        <time>2020-06-02T09:35:03Z</time>
      </trkpt>
      <trkpt lat="46.16472" lon="-1.15119">
        <ele>13.1</ele>
        <time>2020-06-02T09:35:04Z</time>
      </trkpt>
      <trkpt lat="46.16471" lon="-1.15111">
        <ele>13.2</ele>
        <time>2020-06-02T09:35:05Z</time>
      </trkpt>
      <trkpt lat="46.1647" lon="-1.15105">
        <ele>13.2</ele>
        <time>2020-06-02T09:35:06Z</time>
      </trkpt>
      <trkpt lat="46.16469" lon="-1.15098">
        <ele>13.2</ele>
        <time>2020-06-02T09:35:07Z</time>
      </trkpt>
      <trkpt lat="46.16468" lon="-1.15091">
        <ele>13.3</ele>
        <time>2020-06-02T09:35:08Z</time>
      </trkpt>
      <trkpt lat="46.16466" lon="-1.15084">
        <ele>13.3</ele>
        <time>2020-06-02T09:35:09Z</time>
      </trkpt>
      <trkpt lat="46.16466" lon="-1.15077">
        <ele>13.3</ele>
        <time>2020-06-02T09:35:10Z</time>
      </trkpt>
      <trkpt lat="46.16464" lon="-1.1507">
        <ele>13.3</ele>
        <time>2020-06-02T09:35:11Z</time>
      </trkpt>
      <trkpt lat="46.16463" lon="-1.15063">
        <ele>13.2</ele>
        <time>2020-06-02T09:35:12Z</time>
      </trkpt>
      <trkpt lat="46.16462" lon="-1.15057">
        <ele>13.2</ele>
        <time>2020-06-02T09:35:13Z</time>
      </trkpt>
      <trkpt lat="46.16462" lon="-1.1505">
        <ele>13.1</ele>
        <time>2020-06-02T09:35:14Z</time>
      </trkpt>
      <trkpt lat="46.16461" lon="-1.15045">
        <ele>13</ele>
        <time>2020-06-02T09:35:15Z</time>
      </trkpt>
      <trkpt lat="46.16458" lon="-1.15039">
        <ele>12.9</ele>
        <time>2020-06-02T09:35:16Z</time>
      </trkpt>
      <trkpt lat="46.16457" lon="-1.15032">
        <ele>12.7</ele>
        <time>2020-06-02T09:35:17Z</time>
      </trkpt>
      <trkpt lat="46.16455" lon="-1.15023">
        <ele>12.6</ele>
        <time>2020-06-02T09:35:18Z</time>
      </trkpt>
      <trkpt lat="46.16454" lon="-1.15016">
        <ele>12.4</ele>
        <time>2020-06-02T09:35:19Z</time>
      </trkpt>
      <trkpt lat="46.16452" lon="-1.1501">
        <ele>12.3</ele>
        <time>2020-06-02T09:35:20Z</time>
      </trkpt>
      <trkpt lat="46.1645" lon="-1.15003">
        <ele>12.2</ele>
        <time>2020-06-02T09:35:21Z</time>
      </trkpt>
      <trkpt lat="46.16449" lon="-1.14996">
        <ele>12</ele>
        <time>2020-06-02T09:35:22Z</time>
      </trkpt>
      <trkpt lat="46.16446" lon="-1.14989">
        <ele>11.9</ele>
        <time>2020-06-02T09:35:23Z</time>
      </trkpt>
      <trkpt lat="46.16445" lon="-1.14981">
        <ele>11.8</ele>
        <time>2020-06-02T09:35:24Z</time>
      </trkpt>
      <trkpt lat="46.16444" lon="-1.14973">
        <ele>11.7</ele>
        <time>2020-06-02T09:35:25Z</time>
      </trkpt>
      <trkpt lat="46.16443" lon="-1.14965">
        <ele>11.6</ele>
        <time>2020-06-02T09:35:26Z</time>
      </trkpt>
      <trkpt lat="46.16442" lon="-1.14957">
        <ele>11.5</ele>
        <time>2020-06-02T09:35:27Z</time>
      </trkpt>
      <trkpt lat="46.16439" lon="-1.1495">
        <ele>11.4</ele>
        <time>2020-06-02T09:35:28Z</time>
      </trkpt>
      <trkpt lat="46.16439" lon="-1.14941">
        <ele>11.3</ele>
        <time>2020-06-02T09:35:29Z</time>
      </trkpt>
      <trkpt lat="46.16438" lon="-1.14932">
        <ele>11.2</ele>
        <time>2020-06-02T09:35:30Z</time>
      </trkpt>
      <trkpt lat="46.16436" lon="-1.14924">
        <ele>11.2</ele>
        <time>2020-06-02T09:35:31Z</time>
      </trkpt>
      <trkpt lat="46.16435" lon="-1.14916">
        <ele>11.1</ele>
        <time>2020-06-02T09:35:32Z</time>
      </trkpt>
      <trkpt lat="46.16434" lon="-1.14908">
        <ele>11.1</ele>
        <time>2020-06-02T09:35:33Z</time>
      </trkpt>
      <trkpt lat="46.16432" lon="-1.14901">
        <ele>11</ele>
        <time>2020-06-02T09:35:34Z</time>
      </trkpt>
      <trkpt lat="46.1643" lon="-1.14894">
        <ele>11</ele>
        <time>2020-06-02T09:35:35Z</time>
      </trkpt>
      <trkpt lat="46.16429" lon="-1.14886">
        <ele>11</ele>
        <time>2020-06-02T09:35:36Z</time>
      </trkpt>
      <trkpt lat="46.16427" lon="-1.14879">
        <ele>11</ele>
        <time>2020-06-02T09:35:37Z</time>
      </trkpt>
      <trkpt lat="46.16427" lon="-1.14872">
        <ele>11</ele>
        <time>2020-06-02T09:35:38Z</time>
      </trkpt>
      <trkpt lat="46.16426" lon="-1.14864">
        <ele>11.1</ele>
        <time>2020-06-02T09:35:39Z</time>
      </trkpt>
      <trkpt lat="46.16425" lon="-1.14857">
        <ele>11.1</ele>
        <time>2020-06-02T09:35:40Z</time>
      </trkpt>
      <trkpt lat="46.16424" lon="-1.14849">
        <ele>11.1</ele>
        <time>2020-06-02T09:35:41Z</time>
      </trkpt>
      <trkpt lat="46.16424" lon="-1.1484">
        <ele>11.1</ele>
        <time>2020-06-02T09:35:42Z</time>
      </trkpt>
      <trkpt lat="46.16423" lon="-1.14832">
        <ele>11.1</ele>
        <time>2020-06-02T09:35:43Z</time>
      </trkpt>
      <trkpt lat="46.16422" lon="-1.14823">
        <ele>11.2</ele>
        <time>2020-06-02T09:35:44Z</time>
      </trkpt>
      <trkpt lat="46.16422" lon="-1.14815">
        <ele>11.3</ele>
        <time>2020-06-02T09:35:45Z</time>
      </trkpt>
      <trkpt lat="46.16421" lon="-1.14806">
        <ele>11.3</ele>
        <time>2020-06-02T09:35:46Z</time>
      </trkpt>
      <trkpt lat="46.1642" lon="-1.14798">
        <ele>11.3</ele>
        <time>2020-06-02T09:35:47Z</time>
      </trkpt>
      <trkpt lat="46.16419" lon="-1.1479">
        <ele>11.4</ele>
        <time>2020-06-02T09:35:48Z</time>
      </trkpt>
      <trkpt lat="46.16418" lon="-1.14781">
        <ele>11.4</ele>
        <time>2020-06-02T09:35:49Z</time>
      </trkpt>
      <trkpt lat="46.16417" lon="-1.14774">
        <ele>11.5</ele>
        <time>2020-06-02T09:35:50Z</time>
      </trkpt>
      <trkpt lat="46.16416" lon="-1.14768">
        <ele>11.5</ele>
        <time>2020-06-02T09:35:51Z</time>
      </trkpt>
      <trkpt lat="46.16415" lon="-1.14761">
        <ele>11.5</ele>
        <time>2020-06-02T09:35:52Z</time>
      </trkpt>
      <trkpt lat="46.16413" lon="-1.14755">
        <ele>11.6</ele>
        <time>2020-06-02T09:35:53Z</time>
      </trkpt>
      <trkpt lat="46.16413" lon="-1.14749">
        <ele>11.6</ele>
        <time>2020-06-02T09:35:54Z</time>
      </trkpt>
      <trkpt lat="46.16412" lon="-1.14743">
        <ele>11.6</ele>
        <time>2020-06-02T09:35:55Z</time>
      </trkpt>
      <trkpt lat="46.16409" lon="-1.14738">
        <ele>11.6</ele>
        <time>2020-06-02T09:35:56Z</time>
      </trkpt>
      <trkpt lat="46.16406" lon="-1.14732">
        <ele>11.8</ele>
        <time>2020-06-02T09:35:57Z</time>
      </trkpt>
      <trkpt lat="46.16403" lon="-1.14727">
        <ele>11.8</ele>
        <time>2020-06-02T09:35:58Z</time>
      </trkpt>
      <trkpt lat="46.16399" lon="-1.14724">
        <ele>11.9</ele>
        <time>2020-06-02T09:35:59Z</time>
      </trkpt>
      <trkpt lat="46.16395" lon="-1.1472">
        <ele>11.9</ele>
        <time>2020-06-02T09:36:00Z</time>
      </trkpt>
      <trkpt lat="46.16392" lon="-1.14715">
        <ele>12</ele>
        <time>2020-06-02T09:36:01Z</time>
      </trkpt>
      <trkpt lat="46.1639" lon="-1.14709">
        <ele>12</ele>
        <time>2020-06-02T09:36:02Z</time>
      </trkpt>
      <trkpt lat="46.16386" lon="-1.14703">
        <ele>12.1</ele>
        <time>2020-06-02T09:36:03Z</time>
      </trkpt>
      <trkpt lat="46.16384" lon="-1.14697">
        <ele>12.1</ele>
        <time>2020-06-02T09:36:04Z</time>
      </trkpt>
      <trkpt lat="46.16381" lon="-1.14692">
        <ele>12.2</ele>
        <time>2020-06-02T09:36:05Z</time>
      </trkpt>
      <trkpt lat="46.16379" lon="-1.14686">
        <ele>12.2</ele>
        <time>2020-06-02T09:36:06Z</time>
      </trkpt>
      <trkpt lat="46.16376" lon="-1.14681">
        <ele>12.3</ele>
        <time>2020-06-02T09:36:07Z</time>
      </trkpt>
      <trkpt lat="46.16375" lon="-1.14675">
        <ele>12.3</ele>
        <time>2020-06-02T09:36:08Z</time>
      </trkpt>
      <trkpt lat="46.16374" lon="-1.14669">
        <ele>12.2</ele>
        <time>2020-06-02T09:36:09Z</time>
      </trkpt>
      <trkpt lat="46.16372" lon="-1.14663">
        <ele>12.2</ele>
        <time>2020-06-02T09:36:10Z</time>
      </trkpt>
      <trkpt lat="46.1637" lon="-1.14656">
        <ele>12.2</ele>
        <time>2020-06-02T09:36:11Z</time>
      </trkpt>
      <trkpt lat="46.16367" lon="-1.1465">
        <ele>12.1</ele>
        <time>2020-06-02T09:36:12Z</time>
      </trkpt>
      <trkpt lat="46.16365" lon="-1.14643">
        <ele>12.1</ele>
        <time>2020-06-02T09:36:13Z</time>
      </trkpt>
      <trkpt lat="46.16362" lon="-1.14637">
        <ele>12</ele>
        <time>2020-06-02T09:36:14Z</time>
      </trkpt>
      <trkpt lat="46.1636" lon="-1.14632">
        <ele>12</ele>
        <time>2020-06-02T09:36:15Z</time>
      </trkpt>
      <trkpt lat="46.16357" lon="-1.14626">
        <ele>11.9</ele>
        <time>2020-06-02T09:36:16Z</time>
      </trkpt>
      <trkpt lat="46.16354" lon="-1.14621">
        <ele>11.9</ele>
        <time>2020-06-02T09:36:17Z</time>
      </trkpt>
      <trkpt lat="46.16349" lon="-1.14615">
        <ele>11.8</ele>
        <time>2020-06-02T09:36:18Z</time>
      </trkpt>
      <trkpt lat="46.16343" lon="-1.14611">
        <ele>11.7</ele>
        <time>2020-06-02T09:36:20Z</time>
      </trkpt>
      <trkpt lat="46.16342" lon="-1.14605">
        <ele>11.7</ele>
        <time>2020-06-02T09:36:21Z</time>
      </trkpt>
      <trkpt lat="46.16339" lon="-1.14599">
        <ele>11.6</ele>
        <time>2020-06-02T09:36:22Z</time>
      </trkpt>
      <trkpt lat="46.16336" lon="-1.14594">
        <ele>11.6</ele>
        <time>2020-06-02T09:36:23Z</time>
      </trkpt>
      <trkpt lat="46.16332" lon="-1.1459">
        <ele>11.6</ele>
        <time>2020-06-02T09:36:24Z</time>
      </trkpt>
      <trkpt lat="46.16329" lon="-1.14587">
        <ele>11.5</ele>
        <time>2020-06-02T09:36:25Z</time>
      </trkpt>
      <trkpt lat="46.16325" lon="-1.14585">
        <ele>11.4</ele>
        <time>2020-06-02T09:36:26Z</time>
      </trkpt>
      <trkpt lat="46.16321" lon="-1.14581">
        <ele>11.4</ele>
        <time>2020-06-02T09:36:27Z</time>
      </trkpt>
      <trkpt lat="46.16317" lon="-1.14578">
        <ele>11.4</ele>
        <time>2020-06-02T09:36:28Z</time>
      </trkpt>
      <trkpt lat="46.16312" lon="-1.14574">
        <ele>11.4</ele>
        <time>2020-06-02T09:36:29Z</time>
      </trkpt>
      <trkpt lat="46.16306" lon="-1.14571">
        <ele>11.3</ele>
        <time>2020-06-02T09:36:30Z</time>
      </trkpt>
      <trkpt lat="46.16301" lon="-1.14569">
        <ele>11.3</ele>
        <time>2020-06-02T09:36:31Z</time>
      </trkpt>
      <trkpt lat="46.16295" lon="-1.14567">
        <ele>11.3</ele>
        <time>2020-06-02T09:36:32Z</time>
      </trkpt>
      <trkpt lat="46.16291" lon="-1.14565">
        <ele>11.3</ele>
        <time>2020-06-02T09:36:33Z</time>
      </trkpt>
      <trkpt lat="46.16287" lon="-1.14562">
        <ele>11.3</ele>
        <time>2020-06-02T09:36:34Z</time>
      </trkpt>
      <trkpt lat="46.16283" lon="-1.1456">
        <ele>11.2</ele>
        <time>2020-06-02T09:36:35Z</time>
      </trkpt>
      <trkpt lat="46.16278" lon="-1.14557">
        <ele>11.2</ele>
        <time>2020-06-02T09:36:36Z</time>
      </trkpt>
      <trkpt lat="46.16273" lon="-1.14554">
        <ele>11.1</ele>
        <time>2020-06-02T09:36:37Z</time>
      </trkpt>
      <trkpt lat="46.16269" lon="-1.14551">
        <ele>11.1</ele>
        <time>2020-06-02T09:36:38Z</time>
      </trkpt>
      <trkpt lat="46.16264" lon="-1.14548">
        <ele>11</ele>
        <time>2020-06-02T09:36:39Z</time>
      </trkpt>
      <trkpt lat="46.16259" lon="-1.14544">
        <ele>11</ele>
        <time>2020-06-02T09:36:40Z</time>
      </trkpt>
      <trkpt lat="46.16255" lon="-1.14539">
        <ele>10.9</ele>
        <time>2020-06-02T09:36:41Z</time>
      </trkpt>
      <trkpt lat="46.16251" lon="-1.14535">
        <ele>10.9</ele>
        <time>2020-06-02T09:36:42Z</time>
      </trkpt>
      <trkpt lat="46.16247" lon="-1.14529">
        <ele>10.8</ele>
        <time>2020-06-02T09:36:43Z</time>
      </trkpt>
      <trkpt lat="46.16244" lon="-1.14511">
        <ele>10.9</ele>
        <time>2020-06-02T09:36:44Z</time>
      </trkpt>
      <trkpt lat="46.16244" lon="-1.14502">
        <ele>11</ele>
        <time>2020-06-02T09:36:45Z</time>
      </trkpt>
      <trkpt lat="46.16243" lon="-1.14494">
        <ele>11</ele>
        <time>2020-06-02T09:36:46Z</time>
      </trkpt>
      <trkpt lat="46.16243" lon="-1.14485">
        <ele>11.1</ele>
        <time>2020-06-02T09:36:47Z</time>
      </trkpt>
      <trkpt lat="46.16243" lon="-1.14477">
        <ele>11.1</ele>
        <time>2020-06-02T09:36:48Z</time>
      </trkpt>
      <trkpt lat="46.16243" lon="-1.1447">
        <ele>11.2</ele>
        <time>2020-06-02T09:36:49Z</time>
      </trkpt>
      <trkpt lat="46.16243" lon="-1.14463">
        <ele>11.2</ele>
        <time>2020-06-02T09:36:50Z</time>
      </trkpt>
      <trkpt lat="46.16242" lon="-1.14456">
        <ele>11.2</ele>
        <time>2020-06-02T09:36:51Z</time>
      </trkpt>
      <trkpt lat="46.16242" lon="-1.1445">
        <ele>11.3</ele>
        <time>2020-06-02T09:36:52Z</time>
      </trkpt>
      <trkpt lat="46.16241" lon="-1.14443">
        <ele>11.3</ele>
        <time>2020-06-02T09:36:53Z</time>
      </trkpt>
      <trkpt lat="46.16242" lon="-1.14436">
        <ele>11.4</ele>
        <time>2020-06-02T09:36:54Z</time>
      </trkpt>
      <trkpt lat="46.16242" lon="-1.14429">
        <ele>11.4</ele>
        <time>2020-06-02T09:36:55Z</time>
      </trkpt>
      <trkpt lat="46.16242" lon="-1.14422">
        <ele>11.4</ele>
        <time>2020-06-02T09:36:56Z</time>
      </trkpt>
      <trkpt lat="46.16242" lon="-1.14414">
        <ele>11.5</ele>
        <time>2020-06-02T09:36:57Z</time>
      </trkpt>
      <trkpt lat="46.16242" lon="-1.14407">
        <ele>11.5</ele>
        <time>2020-06-02T09:36:58Z</time>
      </trkpt>
      <trkpt lat="46.16242" lon="-1.144">
        <ele>11.5</ele>
        <time>2020-06-02T09:36:59Z</time>
      </trkpt>
      <trkpt lat="46.16241" lon="-1.14394">
        <ele>11.5</ele>
        <time>2020-06-02T09:37:00Z</time>
      </trkpt>
      <trkpt lat="46.16241" lon="-1.14389">
        <ele>11.6</ele>
        <time>2020-06-02T09:37:01Z</time>
      </trkpt>
      <trkpt lat="46.16241" lon="-1.14383">
        <ele>11.6</ele>
        <time>2020-06-02T09:37:02Z</time>
      </trkpt>
      <trkpt lat="46.16242" lon="-1.14377">
        <ele>11.6</ele>
        <time>2020-06-02T09:37:03Z</time>
      </trkpt>
      <trkpt lat="46.16242" lon="-1.1437">
        <ele>11.6</ele>
        <time>2020-06-02T09:37:04Z</time>
      </trkpt>
      <trkpt lat="46.16241" lon="-1.14364">
        <ele>11.6</ele>
        <time>2020-06-02T09:37:05Z</time>
      </trkpt>
      <trkpt lat="46.16241" lon="-1.14359">
        <ele>11.6</ele>
        <time>2020-06-02T09:37:06Z</time>
      </trkpt>
      <trkpt lat="46.16239" lon="-1.14355">
        <ele>11.7</ele>
        <time>2020-06-02T09:37:07Z</time>
      </trkpt>
      <trkpt lat="46.16236" lon="-1.14353">
        <ele>11.6</ele>
        <time>2020-06-02T09:37:08Z</time>
      </trkpt>
      <trkpt lat="46.16233" lon="-1.14354">
        <ele>11.6</ele>
        <time>2020-06-02T09:37:09Z</time>
      </trkpt>
      <trkpt lat="46.16228" lon="-1.14356">
        <ele>11.5</ele>
        <time>2020-06-02T09:37:10Z</time>
      </trkpt>
      <trkpt lat="46.16224" lon="-1.14355">
        <ele>11.4</ele>
        <time>2020-06-02T09:37:11Z</time>
      </trkpt>
      <trkpt lat="46.16219" lon="-1.14354">
        <ele>11.4</ele>
        <time>2020-06-02T09:37:12Z</time>
      </trkpt>
      <trkpt lat="46.16215" lon="-1.14353">
        <ele>11.3</ele>
        <time>2020-06-02T09:37:13Z</time>
      </trkpt>
      <trkpt lat="46.16212" lon="-1.14352">
        <ele>11.3</ele>
        <time>2020-06-02T09:37:14Z</time>
      </trkpt>
      <trkpt lat="46.16209" lon="-1.1435">
        <ele>11.2</ele>
        <time>2020-06-02T09:37:15Z</time>
      </trkpt>
      <trkpt lat="46.16208" lon="-1.14349">
        <ele>11.2</ele>
        <time>2020-06-02T09:37:16Z</time>
      </trkpt>
      <trkpt lat="46.16208" lon="-1.14349">
        <ele>11.2</ele>
        <time>2020-06-02T09:37:17Z</time>
      </trkpt>
      <trkpt lat="46.16208" lon="-1.14349">
        <ele>11.2</ele>
        <time>2020-06-02T09:37:18Z</time>
      </trkpt>
      <trkpt lat="46.16207" lon="-1.14348">
        <ele>11.2</ele>
        <time>2020-06-02T09:37:19Z</time>
      </trkpt>
      <trkpt lat="46.16206" lon="-1.14346">
        <ele>11</ele>
        <time>2020-06-02T09:37:20Z</time>
      </trkpt>
      <trkpt lat="46.16206" lon="-1.14344">
        <ele>10.9</ele>
        <time>2020-06-02T09:37:21Z</time>
      </trkpt>
      <trkpt lat="46.16205" lon="-1.14341">
        <ele>10.8</ele>
        <time>2020-06-02T09:37:22Z</time>
      </trkpt>
      <trkpt lat="46.16204" lon="-1.14335">
        <ele>10.7</ele>
        <time>2020-06-02T09:37:23Z</time>
      </trkpt>
      <trkpt lat="46.16203" lon="-1.1433">
        <ele>10.6</ele>
        <time>2020-06-02T09:37:24Z</time>
      </trkpt>
      <trkpt lat="46.16203" lon="-1.14323">
        <ele>10.6</ele>
        <time>2020-06-02T09:37:25Z</time>
      </trkpt>
      <trkpt lat="46.16203" lon="-1.14318">
        <ele>10.6</ele>
        <time>2020-06-02T09:37:26Z</time>
      </trkpt>
      <trkpt lat="46.16203" lon="-1.14312">
        <ele>10.5</ele>
        <time>2020-06-02T09:37:27Z</time>
      </trkpt>
      <trkpt lat="46.16202" lon="-1.14306">
        <ele>10.5</ele>
        <time>2020-06-02T09:37:28Z</time>
      </trkpt>
      <trkpt lat="46.16203" lon="-1.143">
        <ele>10.5</ele>
        <time>2020-06-02T09:37:29Z</time>
      </trkpt>
      <trkpt lat="46.16203" lon="-1.14294">
        <ele>10.5</ele>
        <time>2020-06-02T09:37:30Z</time>
      </trkpt>
      <trkpt lat="46.16204" lon="-1.14287">
        <ele>10.5</ele>
        <time>2020-06-02T09:37:31Z</time>
      </trkpt>
      <trkpt lat="46.16206" lon="-1.1428">
        <ele>10.4</ele>
        <time>2020-06-02T09:37:32Z</time>
      </trkpt>
      <trkpt lat="46.16209" lon="-1.14274">
        <ele>10.4</ele>
        <time>2020-06-02T09:37:33Z</time>
      </trkpt>
      <trkpt lat="46.16212" lon="-1.14267">
        <ele>10.4</ele>
        <time>2020-06-02T09:37:34Z</time>
      </trkpt>
      <trkpt lat="46.16215" lon="-1.14261">
        <ele>10.3</ele>
        <time>2020-06-02T09:37:35Z</time>
      </trkpt>
      <trkpt lat="46.16217" lon="-1.14253">
        <ele>10.3</ele>
        <time>2020-06-02T09:37:36Z</time>
      </trkpt>
      <trkpt lat="46.16218" lon="-1.14245">
        <ele>10.3</ele>
        <time>2020-06-02T09:37:37Z</time>
      </trkpt>
      <trkpt lat="46.1622" lon="-1.14238">
        <ele>10.3</ele>
        <time>2020-06-02T09:37:38Z</time>
      </trkpt>
      <trkpt lat="46.16221" lon="-1.14229">
        <ele>10.3</ele>
        <time>2020-06-02T09:37:39Z</time>
      </trkpt>
      <trkpt lat="46.16221" lon="-1.14219">
        <ele>10.3</ele>
        <time>2020-06-02T09:37:40Z</time>
      </trkpt>
      <trkpt lat="46.1622" lon="-1.14211">
        <ele>10.3</ele>
        <time>2020-06-02T09:37:41Z</time>
      </trkpt>
      <trkpt lat="46.16219" lon="-1.14204">
        <ele>10.4</ele>
        <time>2020-06-02T09:37:42Z</time>
      </trkpt>
      <trkpt lat="46.16219" lon="-1.14195">
        <ele>10.4</ele>
        <time>2020-06-02T09:37:43Z</time>
      </trkpt>
      <trkpt lat="46.16218" lon="-1.14187">
        <ele>10.5</ele>
        <time>2020-06-02T09:37:44Z</time>
      </trkpt>
      <trkpt lat="46.16219" lon="-1.14177">
        <ele>10.5</ele>
        <time>2020-06-02T09:37:45Z</time>
      </trkpt>
      <trkpt lat="46.16219" lon="-1.14168">
        <ele>10.6</ele>
        <time>2020-06-02T09:37:46Z</time>
      </trkpt>
      <trkpt lat="46.16219" lon="-1.14159">
        <ele>10.7</ele>
        <time>2020-06-02T09:37:47Z</time>
      </trkpt>
      <trkpt lat="46.16219" lon="-1.14149">
        <ele>10.7</ele>
        <time>2020-06-02T09:37:48Z</time>
      </trkpt>
      <trkpt lat="46.16218" lon="-1.1414">
        <ele>10.8</ele>
        <time>2020-06-02T09:37:49Z</time>
      </trkpt>
      <trkpt lat="46.16218" lon="-1.14131">
        <ele>10.8</ele>
        <time>2020-06-02T09:37:50Z</time>
      </trkpt>
      <trkpt lat="46.16217" lon="-1.14123">
        <ele>10.8</ele>
        <time>2020-06-02T09:37:51Z</time>
      </trkpt>
      <trkpt lat="46.16217" lon="-1.14116">
        <ele>10.6</ele>
        <time>2020-06-02T09:37:52Z</time>
      </trkpt>
      <trkpt lat="46.16217" lon="-1.14109">
        <ele>10.6</ele>
        <time>2020-06-02T09:37:53Z</time>
      </trkpt>
      <trkpt lat="46.16218" lon="-1.14102">
        <ele>10.6</ele>
        <time>2020-06-02T09:37:54Z</time>
      </trkpt>
      <trkpt lat="46.16222" lon="-1.14097">
        <ele>9.9</ele>
        <time>2020-06-02T09:37:55Z</time>
      </trkpt>
      <trkpt lat="46.16226" lon="-1.14095">
        <ele>9.8</ele>
        <time>2020-06-02T09:37:56Z</time>
      </trkpt>
      <trkpt lat="46.16232" lon="-1.14089">
        <ele>9.7</ele>
        <time>2020-06-02T09:37:57Z</time>
      </trkpt>
      <trkpt lat="46.16236" lon="-1.14083">
        <ele>9.7</ele>
        <time>2020-06-02T09:37:58Z</time>
      </trkpt>
      <trkpt lat="46.16241" lon="-1.14075">
        <ele>9.6</ele>
        <time>2020-06-02T09:37:59Z</time>
      </trkpt>
      <trkpt lat="46.16245" lon="-1.14068">
        <ele>9.5</ele>
        <time>2020-06-02T09:38:00Z</time>
      </trkpt>
      <trkpt lat="46.16249" lon="-1.14062">
        <ele>9.4</ele>
        <time>2020-06-02T09:38:01Z</time>
      </trkpt>
      <trkpt lat="46.16253" lon="-1.14055">
        <ele>9.3</ele>
        <time>2020-06-02T09:38:02Z</time>
      </trkpt>
      <trkpt lat="46.16257" lon="-1.14048">
        <ele>9.2</ele>
        <time>2020-06-02T09:38:03Z</time>
      </trkpt>
      <trkpt lat="46.1626" lon="-1.14041">
        <ele>9.1</ele>
        <time>2020-06-02T09:38:04Z</time>
      </trkpt>
      <trkpt lat="46.16263" lon="-1.14034">
        <ele>8.9</ele>
        <time>2020-06-02T09:38:05Z</time>
      </trkpt>
      <trkpt lat="46.16266" lon="-1.14027">
        <ele>8.8</ele>
        <time>2020-06-02T09:38:06Z</time>
      </trkpt>
      <trkpt lat="46.1627" lon="-1.14019">
        <ele>8.6</ele>
        <time>2020-06-02T09:38:07Z</time>
      </trkpt>
      <trkpt lat="46.16273" lon="-1.14013">
        <ele>8.5</ele>
        <time>2020-06-02T09:38:08Z</time>
      </trkpt>
      <trkpt lat="46.16276" lon="-1.14006">
        <ele>8.4</ele>
        <time>2020-06-02T09:38:09Z</time>
      </trkpt>
      <trkpt lat="46.16278" lon="-1.13999">
        <ele>8.4</ele>
        <time>2020-06-02T09:38:10Z</time>
      </trkpt>
      <trkpt lat="46.16282" lon="-1.13992">
        <ele>8.3</ele>
        <time>2020-06-02T09:38:11Z</time>
      </trkpt>
      <trkpt lat="46.16285" lon="-1.13985">
        <ele>8.2</ele>
        <time>2020-06-02T09:38:12Z</time>
      </trkpt>
      <trkpt lat="46.16287" lon="-1.13978">
        <ele>8.1</ele>
        <time>2020-06-02T09:38:13Z</time>
      </trkpt>
      <trkpt lat="46.1629" lon="-1.13972">
        <ele>7.9</ele>
        <time>2020-06-02T09:38:14Z</time>
      </trkpt>
      <trkpt lat="46.16293" lon="-1.13965">
        <ele>7.8</ele>
        <time>2020-06-02T09:38:15Z</time>
      </trkpt>
      <trkpt lat="46.16297" lon="-1.13959">
        <ele>7.6</ele>
        <time>2020-06-02T09:38:16Z</time>
      </trkpt>
      <trkpt lat="46.163" lon="-1.13952">
        <ele>7.4</ele>
        <time>2020-06-02T09:38:17Z</time>
      </trkpt>
      <trkpt lat="46.16303" lon="-1.13946">
        <ele>7.3</ele>
        <time>2020-06-02T09:38:18Z</time>
      </trkpt>
      <trkpt lat="46.16307" lon="-1.13938">
        <ele>7.1</ele>
        <time>2020-06-02T09:38:19Z</time>
      </trkpt>
      <trkpt lat="46.1631" lon="-1.13931">
        <ele>7</ele>
        <time>2020-06-02T09:38:20Z</time>
      </trkpt>
      <trkpt lat="46.16312" lon="-1.13925">
        <ele>6.9</ele>
        <time>2020-06-02T09:38:21Z</time>
      </trkpt>
      <trkpt lat="46.16315" lon="-1.13919">
        <ele>6.8</ele>
        <time>2020-06-02T09:38:22Z</time>
      </trkpt>
      <trkpt lat="46.16318" lon="-1.13915">
        <ele>6.7</ele>
        <time>2020-06-02T09:38:23Z</time>
      </trkpt>
      <trkpt lat="46.1632" lon="-1.13913">
        <ele>6.5</ele>
        <time>2020-06-02T09:38:24Z</time>
      </trkpt>
      <trkpt lat="46.1632" lon="-1.13911">
        <ele>6.5</ele>
        <time>2020-06-02T09:38:25Z</time>
      </trkpt>
      <trkpt lat="46.16321" lon="-1.1391">
        <ele>6.5</ele>
        <time>2020-06-02T09:38:26Z</time>
      </trkpt>
      <trkpt lat="46.16321" lon="-1.1391">
        <ele>6.5</ele>
        <time>2020-06-02T09:38:27Z</time>
      </trkpt>
      <trkpt lat="46.16321" lon="-1.1391">
        <ele>6.5</ele>
        <time>2020-06-02T09:38:28Z</time>
      </trkpt>
      <trkpt lat="46.16321" lon="-1.13909">
        <ele>6.5</ele>
        <time>2020-06-02T09:38:29Z</time>
      </trkpt>
      <trkpt lat="46.16321" lon="-1.13909">
        <ele>6.5</ele>
        <time>2020-06-02T09:38:30Z</time>
      </trkpt>
      <trkpt lat="46.16321" lon="-1.13909">
        <ele>6.5</ele>
        <time>2020-06-02T09:38:31Z</time>
      </trkpt>
      <trkpt lat="46.16321" lon="-1.13909">
        <ele>6.5</ele>
        <time>2020-06-02T09:38:32Z</time>
      </trkpt>
      <trkpt lat="46.16322" lon="-1.13909">
        <ele>6.5</ele>
        <time>2020-06-02T09:38:33Z</time>
      </trkpt>
      <trkpt lat="46.16322" lon="-1.13908">
        <ele>6.5</ele>
        <time>2020-06-02T09:38:34Z</time>
      </trkpt>
      <trkpt lat="46.16322" lon="-1.13908">
        <ele>6.5</ele>
        <time>2020-06-02T09:38:35Z</time>
      </trkpt>
      <trkpt lat="46.16322" lon="-1.13908">
        <ele>6.5</ele>
        <time>2020-06-02T09:38:36Z</time>
      </trkpt>
      <trkpt lat="46.16322" lon="-1.13908">
        <ele>6.5</ele>
        <time>2020-06-02T09:38:37Z</time>
      </trkpt>
      <trkpt lat="46.16322" lon="-1.13907">
        <ele>6.5</ele>
        <time>2020-06-02T09:38:38Z</time>
      </trkpt>
      <trkpt lat="46.16322" lon="-1.13907">
        <ele>6.5</ele>
        <time>2020-06-02T09:38:39Z</time>
      </trkpt>
      <trkpt lat="46.16322" lon="-1.13907">
        <ele>6.4</ele>
        <time>2020-06-02T09:38:40Z</time>
      </trkpt>
      <trkpt lat="46.16322" lon="-1.13907">
        <ele>6.4</ele>
        <time>2020-06-02T09:38:41Z</time>
      </trkpt>
      <trkpt lat="46.16321" lon="-1.13903">
        <ele>6.4</ele>
        <time>2020-06-02T09:38:42Z</time>
      </trkpt>
      <trkpt lat="46.16321" lon="-1.13897">
        <ele>6.3</ele>
        <time>2020-06-02T09:38:43Z</time>
      </trkpt>
      <trkpt lat="46.16321" lon="-1.13891">
        <ele>6</ele>
        <time>2020-06-02T09:38:44Z</time>
      </trkpt>
      <trkpt lat="46.16321" lon="-1.13887">
        <ele>6</ele>
        <time>2020-06-02T09:38:45Z</time>
      </trkpt>
      <trkpt lat="46.16323" lon="-1.13883">
        <ele>6</ele>
        <time>2020-06-02T09:38:46Z</time>
      </trkpt>
      <trkpt lat="46.16326" lon="-1.13879">
        <ele>6</ele>
        <time>2020-06-02T09:38:47Z</time>
      </trkpt>
      <trkpt lat="46.16329" lon="-1.13875">
        <ele>6</ele>
        <time>2020-06-02T09:38:48Z</time>
      </trkpt>
      <trkpt lat="46.16332" lon="-1.13868">
        <ele>6</ele>
        <time>2020-06-02T09:38:49Z</time>
      </trkpt>
      <trkpt lat="46.16335" lon="-1.13861">
        <ele>6</ele>
        <time>2020-06-02T09:38:50Z</time>
      </trkpt>
      <trkpt lat="46.16337" lon="-1.13855">
        <ele>6</ele>
        <time>2020-06-02T09:38:51Z</time>
      </trkpt>
      <trkpt lat="46.1634" lon="-1.13851">
        <ele>5.9</ele>
        <time>2020-06-02T09:38:52Z</time>
      </trkpt>
      <trkpt lat="46.16342" lon="-1.13846">
        <ele>5.9</ele>
        <time>2020-06-02T09:38:53Z</time>
      </trkpt>
      <trkpt lat="46.16346" lon="-1.13843">
        <ele>6</ele>
        <time>2020-06-02T09:38:54Z</time>
      </trkpt>
      <trkpt lat="46.1635" lon="-1.1384">
        <ele>6</ele>
        <time>2020-06-02T09:38:55Z</time>
      </trkpt>
      <trkpt lat="46.16353" lon="-1.13836">
        <ele>6</ele>
        <time>2020-06-02T09:38:56Z</time>
      </trkpt>
      <trkpt lat="46.16357" lon="-1.13831">
        <ele>6.1</ele>
        <time>2020-06-02T09:38:57Z</time>
      </trkpt>
      <trkpt lat="46.16359" lon="-1.13826">
        <ele>6.2</ele>
        <time>2020-06-02T09:38:58Z</time>
      </trkpt>
      <trkpt lat="46.16362" lon="-1.13819">
        <ele>6.3</ele>
        <time>2020-06-02T09:38:59Z</time>
      </trkpt>
      <trkpt lat="46.16365" lon="-1.13814">
        <ele>6.4</ele>
        <time>2020-06-02T09:39:00Z</time>
      </trkpt>
      <trkpt lat="46.16368" lon="-1.13807">
        <ele>6.5</ele>
        <time>2020-06-02T09:39:01Z</time>
      </trkpt>
      <trkpt lat="46.16372" lon="-1.138">
        <ele>6.7</ele>
        <time>2020-06-02T09:39:02Z</time>
      </trkpt>
      <trkpt lat="46.16375" lon="-1.13795">
        <ele>6.8</ele>
        <time>2020-06-02T09:39:03Z</time>
      </trkpt>
      <trkpt lat="46.16378" lon="-1.1379">
        <ele>6.9</ele>
        <time>2020-06-02T09:39:04Z</time>
      </trkpt>
      <trkpt lat="46.1638" lon="-1.13785">
        <ele>7</ele>
        <time>2020-06-02T09:39:05Z</time>
      </trkpt>
      <trkpt lat="46.16383" lon="-1.13779">
        <ele>7.1</ele>
        <time>2020-06-02T09:39:06Z</time>
      </trkpt>
      <trkpt lat="46.16385" lon="-1.13772">
        <ele>7.2</ele>
        <time>2020-06-02T09:39:07Z</time>
      </trkpt>
      <trkpt lat="46.16388" lon="-1.13766">
        <ele>7.3</ele>
        <time>2020-06-02T09:39:08Z</time>
      </trkpt>
      <trkpt lat="46.16391" lon="-1.1376">
        <ele>7.4</ele>
        <time>2020-06-02T09:39:09Z</time>
      </trkpt>
      <trkpt lat="46.16395" lon="-1.13755">
        <ele>7.5</ele>
        <time>2020-06-02T09:39:10Z</time>
      </trkpt>
      <trkpt lat="46.16397" lon="-1.13751">
        <ele>7.7</ele>
        <time>2020-06-02T09:39:11Z</time>
      </trkpt>
      <trkpt lat="46.164" lon="-1.13745">
        <ele>7.8</ele>
        <time>2020-06-02T09:39:12Z</time>
      </trkpt>
      <trkpt lat="46.16403" lon="-1.13739">
        <ele>7.9</ele>
        <time>2020-06-02T09:39:13Z</time>
      </trkpt>
      <trkpt lat="46.16406" lon="-1.13733">
        <ele>8</ele>
        <time>2020-06-02T09:39:14Z</time>
      </trkpt>
      <trkpt lat="46.16409" lon="-1.13727">
        <ele>8.1</ele>
        <time>2020-06-02T09:39:15Z</time>
      </trkpt>
      <trkpt lat="46.16411" lon="-1.13722">
        <ele>8.2</ele>
        <time>2020-06-02T09:39:16Z</time>
      </trkpt>
      <trkpt lat="46.16414" lon="-1.13717">
        <ele>8.3</ele>
        <time>2020-06-02T09:39:17Z</time>
      </trkpt>
      <trkpt lat="46.16416" lon="-1.13712">
        <ele>8.4</ele>
        <time>2020-06-02T09:39:18Z</time>
      </trkpt>
      <trkpt lat="46.16418" lon="-1.13706">
        <ele>8.5</ele>
        <time>2020-06-02T09:39:19Z</time>
      </trkpt>
      <trkpt lat="46.16421" lon="-1.13699">
        <ele>8.6</ele>
        <time>2020-06-02T09:39:20Z</time>
      </trkpt>
      <trkpt lat="46.16424" lon="-1.13694">
        <ele>8.7</ele>
        <time>2020-06-02T09:39:21Z</time>
      </trkpt>
      <trkpt lat="46.16427" lon="-1.13689">
        <ele>8.8</ele>
        <time>2020-06-02T09:39:22Z</time>
      </trkpt>
      <trkpt lat="46.16429" lon="-1.13684">
        <ele>8.9</ele>
        <time>2020-06-02T09:39:23Z</time>
      </trkpt>
      <trkpt lat="46.16431" lon="-1.13677">
        <ele>9.1</ele>
        <time>2020-06-02T09:39:24Z</time>
      </trkpt>
      <trkpt lat="46.16433" lon="-1.13671">
        <ele>9.1</ele>
        <time>2020-06-02T09:39:25Z</time>
      </trkpt>
      <trkpt lat="46.16436" lon="-1.13666">
        <ele>9.2</ele>
        <time>2020-06-02T09:39:26Z</time>
      </trkpt>
      <trkpt lat="46.16438" lon="-1.13659">
        <ele>9.3</ele>
        <time>2020-06-02T09:39:27Z</time>
      </trkpt>
      <trkpt lat="46.16441" lon="-1.13654">
        <ele>9.4</ele>
        <time>2020-06-02T09:39:28Z</time>
      </trkpt>
      <trkpt lat="46.16443" lon="-1.13648">
        <ele>9.5</ele>
        <time>2020-06-02T09:39:29Z</time>
      </trkpt>
      <trkpt lat="46.16446" lon="-1.13642">
        <ele>9.5</ele>
        <time>2020-06-02T09:39:30Z</time>
      </trkpt>
      <trkpt lat="46.16448" lon="-1.13634">
        <ele>9.6</ele>
        <time>2020-06-02T09:39:31Z</time>
      </trkpt>
      <trkpt lat="46.16451" lon="-1.13627">
        <ele>9.7</ele>
        <time>2020-06-02T09:39:32Z</time>
      </trkpt>
      <trkpt lat="46.16454" lon="-1.13621">
        <ele>9.7</ele>
        <time>2020-06-02T09:39:33Z</time>
      </trkpt>
      <trkpt lat="46.16456" lon="-1.13613">
        <ele>9.7</ele>
        <time>2020-06-02T09:39:34Z</time>
      </trkpt>
      <trkpt lat="46.16459" lon="-1.13606">
        <ele>9.8</ele>
        <time>2020-06-02T09:39:35Z</time>
      </trkpt>
      <trkpt lat="46.16462" lon="-1.13599">
        <ele>9.8</ele>
        <time>2020-06-02T09:39:36Z</time>
      </trkpt>
      <trkpt lat="46.16465" lon="-1.13592">
        <ele>9.9</ele>
        <time>2020-06-02T09:39:37Z</time>
      </trkpt>
      <trkpt lat="46.16468" lon="-1.13585">
        <ele>9.9</ele>
        <time>2020-06-02T09:39:38Z</time>
      </trkpt>
      <trkpt lat="46.1647" lon="-1.13578">
        <ele>10</ele>
        <time>2020-06-02T09:39:39Z</time>
      </trkpt>
      <trkpt lat="46.16473" lon="-1.13571">
        <ele>10.1</ele>
        <time>2020-06-02T09:39:40Z</time>
      </trkpt>
      <trkpt lat="46.16476" lon="-1.13565">
        <ele>10.1</ele>
        <time>2020-06-02T09:39:41Z</time>
      </trkpt>
      <trkpt lat="46.16479" lon="-1.13558">
        <ele>10.2</ele>
        <time>2020-06-02T09:39:42Z</time>
      </trkpt>
      <trkpt lat="46.16481" lon="-1.13552">
        <ele>10.2</ele>
        <time>2020-06-02T09:39:43Z</time>
      </trkpt>
      <trkpt lat="46.16484" lon="-1.13546">
        <ele>10.3</ele>
        <time>2020-06-02T09:39:44Z</time>
      </trkpt>
      <trkpt lat="46.16487" lon="-1.13541">
        <ele>10.3</ele>
        <time>2020-06-02T09:39:45Z</time>
      </trkpt>
      <trkpt lat="46.16491" lon="-1.13536">
        <ele>10.4</ele>
        <time>2020-06-02T09:39:46Z</time>
      </trkpt>
      <trkpt lat="46.16495" lon="-1.1353">
        <ele>10.4</ele>
        <time>2020-06-02T09:39:47Z</time>
      </trkpt>
      <trkpt lat="46.16498" lon="-1.13526">
        <ele>10.4</ele>
        <time>2020-06-02T09:39:48Z</time>
      </trkpt>
      <trkpt lat="46.16503" lon="-1.13522">
        <ele>10.5</ele>
        <time>2020-06-02T09:39:49Z</time>
      </trkpt>
      <trkpt lat="46.16507" lon="-1.13518">
        <ele>10.5</ele>
        <time>2020-06-02T09:39:50Z</time>
      </trkpt>
      <trkpt lat="46.16511" lon="-1.13515">
        <ele>10.5</ele>
        <time>2020-06-02T09:39:51Z</time>
      </trkpt>
      <trkpt lat="46.16515" lon="-1.13514">
        <ele>10.5</ele>
        <time>2020-06-02T09:39:52Z</time>
      </trkpt>
      <trkpt lat="46.16519" lon="-1.13509">
        <ele>10.6</ele>
        <time>2020-06-02T09:39:53Z</time>
      </trkpt>
      <trkpt lat="46.16523" lon="-1.13504">
        <ele>10.6</ele>
        <time>2020-06-02T09:39:54Z</time>
      </trkpt>
      <trkpt lat="46.16524" lon="-1.13498">
        <ele>10.6</ele>
        <time>2020-06-02T09:39:55Z</time>
      </trkpt>
      <trkpt lat="46.16523" lon="-1.13493">
        <ele>10.8</ele>
        <time>2020-06-02T09:39:56Z</time>
      </trkpt>
      <trkpt lat="46.16522" lon="-1.13487">
        <ele>10.8</ele>
        <time>2020-06-02T09:39:57Z</time>
      </trkpt>
      <trkpt lat="46.16521" lon="-1.1348">
        <ele>10.8</ele>
        <time>2020-06-02T09:39:58Z</time>
      </trkpt>
      <trkpt lat="46.1652" lon="-1.13473">
        <ele>10.8</ele>
        <time>2020-06-02T09:39:59Z</time>
      </trkpt>
      <trkpt lat="46.16517" lon="-1.13468">
        <ele>10.8</ele>
        <time>2020-06-02T09:40:00Z</time>
      </trkpt>
      <trkpt lat="46.16515" lon="-1.1346">
        <ele>10.8</ele>
        <time>2020-06-02T09:40:01Z</time>
      </trkpt>
      <trkpt lat="46.16511" lon="-1.13456">
        <ele>10.8</ele>
        <time>2020-06-02T09:40:02Z</time>
      </trkpt>
      <trkpt lat="46.16509" lon="-1.13448">
        <ele>10.8</ele>
        <time>2020-06-02T09:40:03Z</time>
      </trkpt>
      <trkpt lat="46.16507" lon="-1.13442">
        <ele>10.9</ele>
        <time>2020-06-02T09:40:04Z</time>
      </trkpt>
      <trkpt lat="46.16505" lon="-1.13435">
        <ele>10.9</ele>
        <time>2020-06-02T09:40:05Z</time>
      </trkpt>
      <trkpt lat="46.16502" lon="-1.13428">
        <ele>10.9</ele>
        <time>2020-06-02T09:40:06Z</time>
      </trkpt>
      <trkpt lat="46.165" lon="-1.13422">
        <ele>10.9</ele>
        <time>2020-06-02T09:40:07Z</time>
      </trkpt>
      <trkpt lat="46.16496" lon="-1.13416">
        <ele>10.9</ele>
        <time>2020-06-02T09:40:08Z</time>
      </trkpt>
      <trkpt lat="46.16493" lon="-1.13409">
        <ele>10.9</ele>
        <time>2020-06-02T09:40:09Z</time>
      </trkpt>
      <trkpt lat="46.16491" lon="-1.13403">
        <ele>11</ele>
        <time>2020-06-02T09:40:10Z</time>
      </trkpt>
      <trkpt lat="46.16489" lon="-1.13396">
        <ele>11</ele>
        <time>2020-06-02T09:40:11Z</time>
      </trkpt>
      <trkpt lat="46.16487" lon="-1.13391">
        <ele>11</ele>
        <time>2020-06-02T09:40:12Z</time>
      </trkpt>
      <trkpt lat="46.16485" lon="-1.13385">
        <ele>11</ele>
        <time>2020-06-02T09:40:13Z</time>
      </trkpt>
      <trkpt lat="46.16483" lon="-1.13381">
        <ele>11</ele>
        <time>2020-06-02T09:40:14Z</time>
      </trkpt>
      <trkpt lat="46.1648" lon="-1.13378">
        <ele>11</ele>
        <time>2020-06-02T09:40:15Z</time>
      </trkpt>
      <trkpt lat="46.16478" lon="-1.13373">
        <ele>11</ele>
        <time>2020-06-02T09:40:16Z</time>
      </trkpt>
      <trkpt lat="46.16477" lon="-1.13369">
        <ele>11</ele>
        <time>2020-06-02T09:40:17Z</time>
      </trkpt>
      <trkpt lat="46.16474" lon="-1.13366">
        <ele>11</ele>
        <time>2020-06-02T09:40:18Z</time>
      </trkpt>
      <trkpt lat="46.16473" lon="-1.13366">
        <ele>11</ele>
        <time>2020-06-02T09:40:19Z</time>
      </trkpt>
      <trkpt lat="46.16472" lon="-1.13361">
        <ele>11</ele>
        <time>2020-06-02T09:40:20Z</time>
      </trkpt>
      <trkpt lat="46.16472" lon="-1.13361">
        <ele>11</ele>
        <time>2020-06-02T09:40:21Z</time>
      </trkpt>
      <trkpt lat="46.16471" lon="-1.13359">
        <ele>11</ele>
        <time>2020-06-02T09:40:22Z</time>
      </trkpt>
      <trkpt lat="46.1647" lon="-1.1336">
        <ele>11</ele>
        <time>2020-06-02T09:40:23Z</time>
      </trkpt>
      <trkpt lat="46.16471" lon="-1.13359">
        <ele>11</ele>
        <time>2020-06-02T09:40:24Z</time>
      </trkpt>
      <trkpt lat="46.1647" lon="-1.13359">
        <ele>11</ele>
        <time>2020-06-02T09:40:25Z</time>
      </trkpt>
      <trkpt lat="46.1647" lon="-1.1336">
        <ele>11</ele>
        <time>2020-06-02T09:40:26Z</time>
      </trkpt>
      <trkpt lat="46.1647" lon="-1.13361">
        <ele>11</ele>
        <time>2020-06-02T09:40:27Z</time>
      </trkpt>
      <trkpt lat="46.1647" lon="-1.13362">
        <ele>11</ele>
        <time>2020-06-02T09:40:28Z</time>
      </trkpt>
      <trkpt lat="46.1647" lon="-1.13362">
        <ele>11</ele>
        <time>2020-06-02T09:40:29Z</time>
      </trkpt>
      <trkpt lat="46.1647" lon="-1.13362">
        <ele>11</ele>
        <time>2020-06-02T09:40:30Z</time>
      </trkpt>
      <trkpt lat="46.1647" lon="-1.13362">
        <ele>11</ele>
        <time>2020-06-02T09:40:31Z</time>
      </trkpt>
      <trkpt lat="46.16469" lon="-1.13362">
        <ele>11</ele>
        <time>2020-06-02T09:40:32Z</time>
      </trkpt>
      <trkpt lat="46.16468" lon="-1.13361">
        <ele>11</ele>
        <time>2020-06-02T09:40:33Z</time>
      </trkpt>
      <trkpt lat="46.16468" lon="-1.1336">
        <ele>11.9</ele>
        <time>2020-06-02T09:40:34Z</time>
      </trkpt>
      <trkpt lat="46.16468" lon="-1.1336">
        <ele>11.9</ele>
        <time>2020-06-02T09:40:35Z</time>
      </trkpt>
      <trkpt lat="46.16468" lon="-1.13359">
        <ele>11.9</ele>
        <time>2020-06-02T09:40:36Z</time>
      </trkpt>
      <trkpt lat="46.16468" lon="-1.13359">
        <ele>11.9</ele>
        <time>2020-06-02T09:40:37Z</time>
      </trkpt>
      <trkpt lat="46.16468" lon="-1.13358">
        <ele>11.9</ele>
        <time>2020-06-02T09:40:38Z</time>
      </trkpt>
      <trkpt lat="46.16468" lon="-1.13358">
        <ele>11.9</ele>
        <time>2020-06-02T09:40:39Z</time>
      </trkpt>
      <trkpt lat="46.16468" lon="-1.13357">
        <ele>11.9</ele>
        <time>2020-06-02T09:40:40Z</time>
      </trkpt>
      <trkpt lat="46.16468" lon="-1.13357">
        <ele>11.9</ele>
        <time>2020-06-02T09:40:41Z</time>
      </trkpt>
      <trkpt lat="46.16468" lon="-1.13357">
        <ele>11.9</ele>
        <time>2020-06-02T09:40:42Z</time>
      </trkpt>
      <trkpt lat="46.16468" lon="-1.13356">
        <ele>11.9</ele>
        <time>2020-06-02T09:40:43Z</time>
      </trkpt>
      <trkpt lat="46.16468" lon="-1.13356">
        <ele>11.9</ele>
        <time>2020-06-02T09:40:44Z</time>
      </trkpt>
      <trkpt lat="46.16468" lon="-1.13355">
        <ele>11.9</ele>
        <time>2020-06-02T09:40:45Z</time>
      </trkpt>
      <trkpt lat="46.16468" lon="-1.13355">
        <ele>11.9</ele>
        <time>2020-06-02T09:40:46Z</time>
      </trkpt>
      <trkpt lat="46.16468" lon="-1.13354">
        <ele>11.9</ele>
        <time>2020-06-02T09:40:47Z</time>
      </trkpt>
      <trkpt lat="46.16468" lon="-1.13353">
        <ele>11.9</ele>
        <time>2020-06-02T09:40:48Z</time>
      </trkpt>
      <trkpt lat="46.16467" lon="-1.13353">
        <ele>11.9</ele>
        <time>2020-06-02T09:40:49Z</time>
      </trkpt>
      <trkpt lat="46.16467" lon="-1.13353">
        <ele>11.9</ele>
        <time>2020-06-02T09:40:50Z</time>
      </trkpt>
      <trkpt lat="46.16467" lon="-1.13351">
        <ele>11.9</ele>
        <time>2020-06-02T09:40:51Z</time>
      </trkpt>
      <trkpt lat="46.16466" lon="-1.1335">
        <ele>11.9</ele>
        <time>2020-06-02T09:40:52Z</time>
      </trkpt>
      <trkpt lat="46.16465" lon="-1.13349">
        <ele>11.9</ele>
        <time>2020-06-02T09:40:53Z</time>
      </trkpt>
      <trkpt lat="46.16463" lon="-1.13345">
        <ele>12</ele>
        <time>2020-06-02T09:40:54Z</time>
      </trkpt>
      <trkpt lat="46.16462" lon="-1.13344">
        <ele>12</ele>
        <time>2020-06-02T09:40:55Z</time>
      </trkpt>
      <trkpt lat="46.16461" lon="-1.1334">
        <ele>12.1</ele>
        <time>2020-06-02T09:40:56Z</time>
      </trkpt>
      <trkpt lat="46.1646" lon="-1.13339">
        <ele>12.1</ele>
        <time>2020-06-02T09:40:57Z</time>
      </trkpt>
      <trkpt lat="46.16459" lon="-1.13334">
        <ele>12.3</ele>
        <time>2020-06-02T09:40:58Z</time>
      </trkpt>
      <trkpt lat="46.16458" lon="-1.13332">
        <ele>12.4</ele>
        <time>2020-06-02T09:40:59Z</time>
      </trkpt>
      <trkpt lat="46.16457" lon="-1.13329">
        <ele>12.6</ele>
        <time>2020-06-02T09:41:00Z</time>
      </trkpt>
      <trkpt lat="46.16457" lon="-1.13325">
        <ele>12.9</ele>
        <time>2020-06-02T09:41:01Z</time>
      </trkpt>
      <trkpt lat="46.16455" lon="-1.13319">
        <ele>13.5</ele>
        <time>2020-06-02T09:41:02Z</time>
      </trkpt>
      <trkpt lat="46.16454" lon="-1.13317">
        <ele>13.7</ele>
        <time>2020-06-02T09:41:03Z</time>
      </trkpt>
      <trkpt lat="46.16453" lon="-1.13313">
        <ele>14.4</ele>
        <time>2020-06-02T09:41:04Z</time>
      </trkpt>
      <trkpt lat="46.1645" lon="-1.13308">
        <ele>15.5</ele>
        <time>2020-06-02T09:41:05Z</time>
      </trkpt>
      <trkpt lat="46.16448" lon="-1.13303">
        <ele>16.5</ele>
        <time>2020-06-02T09:41:06Z</time>
      </trkpt>
      <trkpt lat="46.16445" lon="-1.13298">
        <ele>17.3</ele>
        <time>2020-06-02T09:41:07Z</time>
      </trkpt>
      <trkpt lat="46.16443" lon="-1.13293">
        <ele>17.6</ele>
        <time>2020-06-02T09:41:08Z</time>
      </trkpt>
      <trkpt lat="46.1644" lon="-1.13287">
        <ele>17.4</ele>
        <time>2020-06-02T09:41:09Z</time>
      </trkpt>
      <trkpt lat="46.16438" lon="-1.1328">
        <ele>16.5</ele>
        <time>2020-06-02T09:41:10Z</time>
      </trkpt>
      <trkpt lat="46.16436" lon="-1.13273">
        <ele>15.4</ele>
        <time>2020-06-02T09:41:11Z</time>
      </trkpt>
      <trkpt lat="46.16433" lon="-1.13267">
        <ele>14.4</ele>
        <time>2020-06-02T09:41:12Z</time>
      </trkpt>
      <trkpt lat="46.16431" lon="-1.13261">
        <ele>13.8</ele>
        <time>2020-06-02T09:41:13Z</time>
      </trkpt>
      <trkpt lat="46.1643" lon="-1.13256">
        <ele>13</ele>
        <time>2020-06-02T09:41:14Z</time>
      </trkpt>
      <trkpt lat="46.16428" lon="-1.1325">
        <ele>12.9</ele>
        <time>2020-06-02T09:41:15Z</time>
      </trkpt>
      <trkpt lat="46.16426" lon="-1.13243">
        <ele>12.9</ele>
        <time>2020-06-02T09:41:16Z</time>
      </trkpt>
      <trkpt lat="46.16423" lon="-1.13237">
        <ele>12.9</ele>
        <time>2020-06-02T09:41:17Z</time>
      </trkpt>
      <trkpt lat="46.1642" lon="-1.13231">
        <ele>12.9</ele>
        <time>2020-06-02T09:41:18Z</time>
      </trkpt>
      <trkpt lat="46.16418" lon="-1.13226">
        <ele>12.9</ele>
        <time>2020-06-02T09:41:19Z</time>
      </trkpt>
      <trkpt lat="46.16416" lon="-1.13222">
        <ele>13</ele>
        <time>2020-06-02T09:41:20Z</time>
      </trkpt>
      <trkpt lat="46.16413" lon="-1.13217">
        <ele>12.9</ele>
        <time>2020-06-02T09:41:21Z</time>
      </trkpt>
      <trkpt lat="46.16412" lon="-1.13212">
        <ele>12.8</ele>
        <time>2020-06-02T09:41:22Z</time>
      </trkpt>
      <trkpt lat="46.1641" lon="-1.13207">
        <ele>12.8</ele>
        <time>2020-06-02T09:41:23Z</time>
      </trkpt>
      <trkpt lat="46.16409" lon="-1.13202">
        <ele>12.8</ele>
        <time>2020-06-02T09:41:24Z</time>
      </trkpt>
      <trkpt lat="46.16408" lon="-1.13197">
        <ele>12.7</ele>
        <time>2020-06-02T09:41:25Z</time>
      </trkpt>
      <trkpt lat="46.16408" lon="-1.13192">
        <ele>12.7</ele>
        <time>2020-06-02T09:41:26Z</time>
      </trkpt>
      <trkpt lat="46.16408" lon="-1.13188">
        <ele>12.5</ele>
        <time>2020-06-02T09:41:27Z</time>
      </trkpt>
      <trkpt lat="46.16408" lon="-1.13183">
        <ele>12.5</ele>
        <time>2020-06-02T09:41:28Z</time>
      </trkpt>
      <trkpt lat="46.16408" lon="-1.13178">
        <ele>12.5</ele>
        <time>2020-06-02T09:41:29Z</time>
      </trkpt>
      <trkpt lat="46.16408" lon="-1.13172">
        <ele>12.4</ele>
        <time>2020-06-02T09:41:30Z</time>
      </trkpt>
      <trkpt lat="46.16409" lon="-1.13167">
        <ele>12.4</ele>
        <time>2020-06-02T09:41:31Z</time>
      </trkpt>
      <trkpt lat="46.1641" lon="-1.13161">
        <ele>12.3</ele>
        <time>2020-06-02T09:41:32Z</time>
      </trkpt>
      <trkpt lat="46.16411" lon="-1.13153">
        <ele>12.3</ele>
        <time>2020-06-02T09:41:33Z</time>
      </trkpt>
      <trkpt lat="46.16413" lon="-1.13146">
        <ele>12.2</ele>
        <time>2020-06-02T09:41:34Z</time>
      </trkpt>
      <trkpt lat="46.16415" lon="-1.13139">
        <ele>12.2</ele>
        <time>2020-06-02T09:41:35Z</time>
      </trkpt>
      <trkpt lat="46.16416" lon="-1.13132">
        <ele>12.1</ele>
        <time>2020-06-02T09:41:36Z</time>
      </trkpt>
      <trkpt lat="46.16417" lon="-1.13125">
        <ele>12</ele>
        <time>2020-06-02T09:41:37Z</time>
      </trkpt>
      <trkpt lat="46.16418" lon="-1.13118">
        <ele>12</ele>
        <time>2020-06-02T09:41:38Z</time>
      </trkpt>
      <trkpt lat="46.16419" lon="-1.13111">
        <ele>11.9</ele>
        <time>2020-06-02T09:41:39Z</time>
      </trkpt>
      <trkpt lat="46.16421" lon="-1.13103">
        <ele>11.9</ele>
        <time>2020-06-02T09:41:40Z</time>
      </trkpt>
      <trkpt lat="46.16422" lon="-1.13097">
        <ele>11.8</ele>
        <time>2020-06-02T09:41:41Z</time>
      </trkpt>
      <trkpt lat="46.16423" lon="-1.13091">
        <ele>11.8</ele>
        <time>2020-06-02T09:41:42Z</time>
      </trkpt>
      <trkpt lat="46.16424" lon="-1.13086">
        <ele>11.7</ele>
        <time>2020-06-02T09:41:43Z</time>
      </trkpt>
      <trkpt lat="46.16425" lon="-1.1308">
        <ele>11.7</ele>
        <time>2020-06-02T09:41:44Z</time>
      </trkpt>
      <trkpt lat="46.16425" lon="-1.13074">
        <ele>11.6</ele>
        <time>2020-06-02T09:41:45Z</time>
      </trkpt>
      <trkpt lat="46.16426" lon="-1.13069">
        <ele>11.6</ele>
        <time>2020-06-02T09:41:46Z</time>
      </trkpt>
      <trkpt lat="46.16427" lon="-1.13063">
        <ele>11.6</ele>
        <time>2020-06-02T09:41:47Z</time>
      </trkpt>
      <trkpt lat="46.16428" lon="-1.13057">
        <ele>11.6</ele>
        <time>2020-06-02T09:41:48Z</time>
      </trkpt>
      <trkpt lat="46.16428" lon="-1.13052">
        <ele>11.6</ele>
        <time>2020-06-02T09:41:49Z</time>
      </trkpt>
      <trkpt lat="46.16428" lon="-1.13046">
        <ele>11.6</ele>
        <time>2020-06-02T09:41:50Z</time>
      </trkpt>
      <trkpt lat="46.16429" lon="-1.13041">
        <ele>11.6</ele>
        <time>2020-06-02T09:41:51Z</time>
      </trkpt>
      <trkpt lat="46.16429" lon="-1.13036">
        <ele>11.6</ele>
        <time>2020-06-02T09:41:52Z</time>
      </trkpt>
      <trkpt lat="46.1643" lon="-1.13031">
        <ele>11.6</ele>
        <time>2020-06-02T09:41:53Z</time>
      </trkpt>
      <trkpt lat="46.16431" lon="-1.13025">
        <ele>11.6</ele>
        <time>2020-06-02T09:41:54Z</time>
      </trkpt>
      <trkpt lat="46.16431" lon="-1.13019">
        <ele>11.6</ele>
        <time>2020-06-02T09:41:55Z</time>
      </trkpt>
      <trkpt lat="46.16432" lon="-1.13014">
        <ele>11.6</ele>
        <time>2020-06-02T09:41:56Z</time>
      </trkpt>
      <trkpt lat="46.16432" lon="-1.13009">
        <ele>11.7</ele>
        <time>2020-06-02T09:41:57Z</time>
      </trkpt>
      <trkpt lat="46.16432" lon="-1.13004">
        <ele>11.7</ele>
        <time>2020-06-02T09:41:58Z</time>
      </trkpt>
      <trkpt lat="46.16433" lon="-1.12999">
        <ele>11.7</ele>
        <time>2020-06-02T09:41:59Z</time>
      </trkpt>
      <trkpt lat="46.16434" lon="-1.12993">
        <ele>11.7</ele>
        <time>2020-06-02T09:42:00Z</time>
      </trkpt>
      <trkpt lat="46.16435" lon="-1.12987">
        <ele>11.8</ele>
        <time>2020-06-02T09:42:01Z</time>
      </trkpt>
      <trkpt lat="46.16435" lon="-1.12982">
        <ele>11.8</ele>
        <time>2020-06-02T09:42:02Z</time>
      </trkpt>
      <trkpt lat="46.16436" lon="-1.12976">
        <ele>11.8</ele>
        <time>2020-06-02T09:42:03Z</time>
      </trkpt>
      <trkpt lat="46.16437" lon="-1.12971">
        <ele>11.8</ele>
        <time>2020-06-02T09:42:04Z</time>
      </trkpt>
      <trkpt lat="46.16438" lon="-1.12967">
        <ele>11.9</ele>
        <time>2020-06-02T09:42:05Z</time>
      </trkpt>
      <trkpt lat="46.16439" lon="-1.12963">
        <ele>11.9</ele>
        <time>2020-06-02T09:42:06Z</time>
      </trkpt>
      <trkpt lat="46.1644" lon="-1.12958">
        <ele>11.9</ele>
        <time>2020-06-02T09:42:07Z</time>
      </trkpt>
      <trkpt lat="46.16441" lon="-1.12956">
        <ele>11.9</ele>
        <time>2020-06-02T09:42:08Z</time>
      </trkpt>
      <trkpt lat="46.16442" lon="-1.12951">
        <ele>11.8</ele>
        <time>2020-06-02T09:42:09Z</time>
      </trkpt>
      <trkpt lat="46.16443" lon="-1.12946">
        <ele>11.7</ele>
        <time>2020-06-02T09:42:10Z</time>
      </trkpt>
      <trkpt lat="46.16441" lon="-1.12942">
        <ele>11.6</ele>
        <time>2020-06-02T09:42:11Z</time>
      </trkpt>
      <trkpt lat="46.16441" lon="-1.12941">
        <ele>11.6</ele>
        <time>2020-06-02T09:42:12Z</time>
      </trkpt>
      <trkpt lat="46.1644" lon="-1.12941">
        <ele>11.6</ele>
        <time>2020-06-02T09:42:13Z</time>
      </trkpt>
      <trkpt lat="46.1644" lon="-1.12943">
        <ele>11.5</ele>
        <time>2020-06-02T09:42:14Z</time>
      </trkpt>
      <trkpt lat="46.1644" lon="-1.12942">
        <ele>11.5</ele>
        <time>2020-06-02T09:42:15Z</time>
      </trkpt>
      <trkpt lat="46.16439" lon="-1.12942">
        <ele>11.5</ele>
        <time>2020-06-02T09:42:16Z</time>
      </trkpt>
      <trkpt lat="46.16439" lon="-1.12941">
        <ele>11.5</ele>
        <time>2020-06-02T09:42:17Z</time>
      </trkpt>
      <trkpt lat="46.16439" lon="-1.12942">
        <ele>11.5</ele>
        <time>2020-06-02T09:42:18Z</time>
      </trkpt>
      <trkpt lat="46.16438" lon="-1.12942">
        <ele>11.4</ele>
        <time>2020-06-02T09:42:19Z</time>
      </trkpt>
      <trkpt lat="46.16438" lon="-1.12942">
        <ele>11.4</ele>
        <time>2020-06-02T09:42:20Z</time>
      </trkpt>
      <trkpt lat="46.16438" lon="-1.12942">
        <ele>11.4</ele>
        <time>2020-06-02T09:42:21Z</time>
      </trkpt>
      <trkpt lat="46.16438" lon="-1.12942">
        <ele>11.4</ele>
        <time>2020-06-02T09:42:22Z</time>
      </trkpt>
      <trkpt lat="46.16438" lon="-1.12942">
        <ele>11.4</ele>
        <time>2020-06-02T09:42:23Z</time>
      </trkpt>
      <trkpt lat="46.16438" lon="-1.12942">
        <ele>11.4</ele>
        <time>2020-06-02T09:42:24Z</time>
      </trkpt>
      <trkpt lat="46.16438" lon="-1.12942">
        <ele>11.4</ele>
        <time>2020-06-02T09:42:25Z</time>
      </trkpt>
      <trkpt lat="46.16438" lon="-1.12942">
        <ele>11.4</ele>
        <time>2020-06-02T09:42:26Z</time>
      </trkpt>
      <trkpt lat="46.16438" lon="-1.12942">
        <ele>11.4</ele>
        <time>2020-06-02T09:42:27Z</time>
      </trkpt>
      <trkpt lat="46.16438" lon="-1.12942">
        <ele>11.4</ele>
        <time>2020-06-02T09:42:28Z</time>
      </trkpt>
      <trkpt lat="46.16438" lon="-1.12942">
        <ele>11.4</ele>
        <time>2020-06-02T09:42:29Z</time>
      </trkpt>
      <trkpt lat="46.16438" lon="-1.12942">
        <ele>11.4</ele>
        <time>2020-06-02T09:42:30Z</time>
      </trkpt>
      <trkpt lat="46.16438" lon="-1.12942">
        <ele>11.4</ele>
        <time>2020-06-02T09:42:31Z</time>
      </trkpt>
      <trkpt lat="46.16438" lon="-1.12942">
        <ele>11.4</ele>
        <time>2020-06-02T09:42:32Z</time>
      </trkpt>
      <trkpt lat="46.16438" lon="-1.12942">
        <ele>11.4</ele>
        <time>2020-06-02T09:42:33Z</time>
      </trkpt>
      <trkpt lat="46.16438" lon="-1.12942">
        <ele>11.4</ele>
        <time>2020-06-02T09:42:34Z</time>
      </trkpt>
      <trkpt lat="46.16438" lon="-1.12942">
        <ele>11.4</ele>
        <time>2020-06-02T09:42:35Z</time>
      </trkpt>
      <trkpt lat="46.16438" lon="-1.12942">
        <ele>11.4</ele>
        <time>2020-06-02T09:42:36Z</time>
      </trkpt>
      <trkpt lat="46.16438" lon="-1.12942">
        <ele>11.4</ele>
        <time>2020-06-02T09:42:37Z</time>
      </trkpt>
      <trkpt lat="46.16438" lon="-1.12942">
        <ele>11.4</ele>
        <time>2020-06-02T09:42:38Z</time>
      </trkpt>
      <trkpt lat="46.16438" lon="-1.12942">
        <ele>11.4</ele>
        <time>2020-06-02T09:42:39Z</time>
      </trkpt>
      <trkpt lat="46.16438" lon="-1.12942">
        <ele>11.4</ele>
        <time>2020-06-02T09:42:40Z</time>
      </trkpt>
      <trkpt lat="46.16438" lon="-1.12942">
        <ele>11.4</ele>
        <time>2020-06-02T09:42:41Z</time>
      </trkpt>
      <trkpt lat="46.16437" lon="-1.12941">
        <ele>11.4</ele>
        <time>2020-06-02T09:42:42Z</time>
      </trkpt>
      <trkpt lat="46.16435" lon="-1.12941">
        <ele>11.3</ele>
        <time>2020-06-02T09:42:43Z</time>
      </trkpt>
      <trkpt lat="46.16433" lon="-1.12939">
        <ele>11.2</ele>
        <time>2020-06-02T09:42:44Z</time>
      </trkpt>
      <trkpt lat="46.16431" lon="-1.12938">
        <ele>11.2</ele>
        <time>2020-06-02T09:42:45Z</time>
      </trkpt>
      <trkpt lat="46.16429" lon="-1.12935">
        <ele>11.1</ele>
        <time>2020-06-02T09:42:46Z</time>
      </trkpt>
      <trkpt lat="46.16424" lon="-1.12933">
        <ele>11</ele>
        <time>2020-06-02T09:42:47Z</time>
      </trkpt>
      <trkpt lat="46.16423" lon="-1.12932">
        <ele>10.9</ele>
        <time>2020-06-02T09:42:48Z</time>
      </trkpt>
      <trkpt lat="46.16419" lon="-1.12931">
        <ele>10.8</ele>
        <time>2020-06-02T09:42:49Z</time>
      </trkpt>
      <trkpt lat="46.16415" lon="-1.1293">
        <ele>10.7</ele>
        <time>2020-06-02T09:42:50Z</time>
      </trkpt>
      <trkpt lat="46.16411" lon="-1.12929">
        <ele>10.6</ele>
        <time>2020-06-02T09:42:51Z</time>
      </trkpt>
      <trkpt lat="46.16407" lon="-1.12927">
        <ele>10.5</ele>
        <time>2020-06-02T09:42:52Z</time>
      </trkpt>
      <trkpt lat="46.16402" lon="-1.12926">
        <ele>10.4</ele>
        <time>2020-06-02T09:42:53Z</time>
      </trkpt>
      <trkpt lat="46.16398" lon="-1.12925">
        <ele>10.2</ele>
        <time>2020-06-02T09:42:54Z</time>
      </trkpt>
      <trkpt lat="46.16394" lon="-1.12924">
        <ele>10.1</ele>
        <time>2020-06-02T09:42:55Z</time>
      </trkpt>
      <trkpt lat="46.1639" lon="-1.12922">
        <ele>10</ele>
        <time>2020-06-02T09:42:56Z</time>
      </trkpt>
      <trkpt lat="46.16385" lon="-1.12921">
        <ele>9.9</ele>
        <time>2020-06-02T09:42:57Z</time>
      </trkpt>
      <trkpt lat="46.1638" lon="-1.12919">
        <ele>9.7</ele>
        <time>2020-06-02T09:42:58Z</time>
      </trkpt>
      <trkpt lat="46.16376" lon="-1.12917">
        <ele>9.6</ele>
        <time>2020-06-02T09:42:59Z</time>
      </trkpt>
      <trkpt lat="46.16372" lon="-1.12916">
        <ele>9.5</ele>
        <time>2020-06-02T09:43:00Z</time>
      </trkpt>
      <trkpt lat="46.16367" lon="-1.12914">
        <ele>9.4</ele>
        <time>2020-06-02T09:43:01Z</time>
      </trkpt>
      <trkpt lat="46.16363" lon="-1.12913">
        <ele>9.3</ele>
        <time>2020-06-02T09:43:02Z</time>
      </trkpt>
      <trkpt lat="46.1636" lon="-1.12912">
        <ele>9.2</ele>
        <time>2020-06-02T09:43:03Z</time>
      </trkpt>
      <trkpt lat="46.16358" lon="-1.12914">
        <ele>9.1</ele>
        <time>2020-06-02T09:43:04Z</time>
      </trkpt>
      <trkpt lat="46.16357" lon="-1.12914">
        <ele>9.1</ele>
        <time>2020-06-02T09:43:05Z</time>
      </trkpt>
      <trkpt lat="46.16356" lon="-1.12918">
        <ele>9</ele>
        <time>2020-06-02T09:43:06Z</time>
      </trkpt>
      <trkpt lat="46.16355" lon="-1.12925">
        <ele>8.9</ele>
        <time>2020-06-02T09:43:07Z</time>
      </trkpt>
      <trkpt lat="46.16354" lon="-1.12932">
        <ele>8.7</ele>
        <time>2020-06-02T09:43:08Z</time>
      </trkpt>
      <trkpt lat="46.16354" lon="-1.12939">
        <ele>8.6</ele>
        <time>2020-06-02T09:43:09Z</time>
      </trkpt>
      <trkpt lat="46.16352" lon="-1.12945">
        <ele>8.5</ele>
        <time>2020-06-02T09:43:10Z</time>
      </trkpt>
      <trkpt lat="46.16351" lon="-1.12951">
        <ele>8.4</ele>
        <time>2020-06-02T09:43:11Z</time>
      </trkpt>
      <trkpt lat="46.1635" lon="-1.12957">
        <ele>8.2</ele>
        <time>2020-06-02T09:43:12Z</time>
      </trkpt>
      <trkpt lat="46.1635" lon="-1.12961">
        <ele>8.2</ele>
        <time>2020-06-02T09:43:13Z</time>
      </trkpt>
      <trkpt lat="46.1635" lon="-1.12962">
        <ele>8.2</ele>
        <time>2020-06-02T09:43:14Z</time>
      </trkpt>
      <trkpt lat="46.16348" lon="-1.12964">
        <ele>8.2</ele>
        <time>2020-06-02T09:43:15Z</time>
      </trkpt>
      <trkpt lat="46.16348" lon="-1.12966">
        <ele>8.3</ele>
        <time>2020-06-02T09:43:16Z</time>
      </trkpt>
      <trkpt lat="46.16347" lon="-1.12969">
        <ele>8.3</ele>
        <time>2020-06-02T09:43:17Z</time>
      </trkpt>
      <trkpt lat="46.16347" lon="-1.1297">
        <ele>8.3</ele>
        <time>2020-06-02T09:43:18Z</time>
      </trkpt>
      <trkpt lat="46.16346" lon="-1.12972">
        <ele>8.3</ele>
        <time>2020-06-02T09:43:19Z</time>
      </trkpt>
      <trkpt lat="46.16346" lon="-1.12975">
        <ele>8.3</ele>
        <time>2020-06-02T09:43:20Z</time>
      </trkpt>
      <trkpt lat="46.16346" lon="-1.12977">
        <ele>8.4</ele>
        <time>2020-06-02T09:43:21Z</time>
      </trkpt>
      <trkpt lat="46.16346" lon="-1.12979">
        <ele>8.4</ele>
        <time>2020-06-02T09:43:22Z</time>
      </trkpt>
      <trkpt lat="46.16346" lon="-1.1298">
        <ele>8.4</ele>
        <time>2020-06-02T09:43:23Z</time>
      </trkpt>
      <trkpt lat="46.16346" lon="-1.12982">
        <ele>8.4</ele>
        <time>2020-06-02T09:43:24Z</time>
      </trkpt>
      <trkpt lat="46.16346" lon="-1.12984">
        <ele>8.4</ele>
        <time>2020-06-02T09:43:25Z</time>
      </trkpt>
      <trkpt lat="46.16345" lon="-1.12987">
        <ele>8.4</ele>
        <time>2020-06-02T09:43:26Z</time>
      </trkpt>
      <trkpt lat="46.16345" lon="-1.12989">
        <ele>8.5</ele>
        <time>2020-06-02T09:43:27Z</time>
      </trkpt>
      <trkpt lat="46.16344" lon="-1.12995">
        <ele>8.5</ele>
        <time>2020-06-02T09:43:28Z</time>
      </trkpt>
      <trkpt lat="46.16344" lon="-1.12997">
        <ele>8.5</ele>
        <time>2020-06-02T09:43:29Z</time>
      </trkpt>
      <trkpt lat="46.16341" lon="-1.12997">
        <ele>8.6</ele>
        <time>2020-06-02T09:43:30Z</time>
      </trkpt>
      <trkpt lat="46.1634" lon="-1.12996">
        <ele>8.6</ele>
        <time>2020-06-02T09:43:31Z</time>
      </trkpt>
      <trkpt lat="46.16336" lon="-1.12995">
        <ele>8.2</ele>
        <time>2020-06-02T09:43:32Z</time>
      </trkpt>
      <trkpt lat="46.16335" lon="-1.12995">
        <ele>8.1</ele>
        <time>2020-06-02T09:43:33Z</time>
      </trkpt>
      <trkpt lat="46.16332" lon="-1.12994">
        <ele>7.9</ele>
        <time>2020-06-02T09:43:34Z</time>
      </trkpt>
      <trkpt lat="46.16331" lon="-1.12994">
        <ele>7.7</ele>
        <time>2020-06-02T09:43:35Z</time>
      </trkpt>
      <trkpt lat="46.1633" lon="-1.12994">
        <ele>7.6</ele>
        <time>2020-06-02T09:43:36Z</time>
      </trkpt>
      <trkpt lat="46.16328" lon="-1.12994">
        <ele>7.5</ele>
        <time>2020-06-02T09:43:37Z</time>
      </trkpt>
      <trkpt lat="46.16328" lon="-1.12994">
        <ele>7.5</ele>
        <time>2020-06-02T09:43:38Z</time>
      </trkpt>
      <trkpt lat="46.16327" lon="-1.12993">
        <ele>7.5</ele>
        <time>2020-06-02T09:43:39Z</time>
      </trkpt>
      <trkpt lat="46.16325" lon="-1.12991">
        <ele>7.5</ele>
        <time>2020-06-02T09:43:40Z</time>
      </trkpt>
      <trkpt lat="46.16326" lon="-1.12987">
        <ele>7.5</ele>
        <time>2020-06-02T09:43:41Z</time>
      </trkpt>
      <trkpt lat="46.16326" lon="-1.12985">
        <ele>7.5</ele>
        <time>2020-06-02T09:43:42Z</time>
      </trkpt>
      <trkpt lat="46.16327" lon="-1.12979">
        <ele>7.5</ele>
        <time>2020-06-02T09:43:43Z</time>
      </trkpt>
      <trkpt lat="46.16328" lon="-1.12972">
        <ele>7.4</ele>
        <time>2020-06-02T09:43:44Z</time>
      </trkpt>
      <trkpt lat="46.16329" lon="-1.12966">
        <ele>7.4</ele>
        <time>2020-06-02T09:43:45Z</time>
      </trkpt>
      <trkpt lat="46.1633" lon="-1.1296">
        <ele>7.4</ele>
        <time>2020-06-02T09:43:46Z</time>
      </trkpt>
      <trkpt lat="46.16332" lon="-1.12953">
        <ele>7.3</ele>
        <time>2020-06-02T09:43:47Z</time>
      </trkpt>
      <trkpt lat="46.16333" lon="-1.12947">
        <ele>7.3</ele>
        <time>2020-06-02T09:43:48Z</time>
      </trkpt>
      <trkpt lat="46.16335" lon="-1.12939">
        <ele>7.3</ele>
        <time>2020-06-02T09:43:49Z</time>
      </trkpt>
      <trkpt lat="46.16337" lon="-1.12931">
        <ele>7.2</ele>
        <time>2020-06-02T09:43:50Z</time>
      </trkpt>
      <trkpt lat="46.16338" lon="-1.12924">
        <ele>7.1</ele>
        <time>2020-06-02T09:43:51Z</time>
      </trkpt>
      <trkpt lat="46.1634" lon="-1.12916">
        <ele>7</ele>
        <time>2020-06-02T09:43:52Z</time>
      </trkpt>
      <trkpt lat="46.16342" lon="-1.12909">
        <ele>6.9</ele>
        <time>2020-06-02T09:43:53Z</time>
      </trkpt>
      <trkpt lat="46.16343" lon="-1.12901">
        <ele>6.8</ele>
        <time>2020-06-02T09:43:54Z</time>
      </trkpt>
      <trkpt lat="46.16345" lon="-1.12893">
        <ele>6.7</ele>
        <time>2020-06-02T09:43:55Z</time>
      </trkpt>
      <trkpt lat="46.16346" lon="-1.12885">
        <ele>6.6</ele>
        <time>2020-06-02T09:43:56Z</time>
      </trkpt>
      <trkpt lat="46.16347" lon="-1.12877">
        <ele>6.5</ele>
        <time>2020-06-02T09:43:57Z</time>
      </trkpt>
      <trkpt lat="46.16349" lon="-1.1287">
        <ele>6.4</ele>
        <time>2020-06-02T09:43:58Z</time>
      </trkpt>
      <trkpt lat="46.16351" lon="-1.12862">
        <ele>6.4</ele>
        <time>2020-06-02T09:43:59Z</time>
      </trkpt>
      <trkpt lat="46.16353" lon="-1.12854">
        <ele>6.3</ele>
        <time>2020-06-02T09:44:00Z</time>
      </trkpt>
      <trkpt lat="46.16355" lon="-1.12846">
        <ele>6.3</ele>
        <time>2020-06-02T09:44:01Z</time>
      </trkpt>
      <trkpt lat="46.16357" lon="-1.12839">
        <ele>6.2</ele>
        <time>2020-06-02T09:44:02Z</time>
      </trkpt>
      <trkpt lat="46.16359" lon="-1.12831">
        <ele>6.1</ele>
        <time>2020-06-02T09:44:03Z</time>
      </trkpt>
      <trkpt lat="46.1636" lon="-1.12823">
        <ele>6</ele>
        <time>2020-06-02T09:44:04Z</time>
      </trkpt>
      <trkpt lat="46.16361" lon="-1.12815">
        <ele>5.9</ele>
        <time>2020-06-02T09:44:05Z</time>
      </trkpt>
      <trkpt lat="46.16362" lon="-1.12807">
        <ele>5.9</ele>
        <time>2020-06-02T09:44:06Z</time>
      </trkpt>
      <trkpt lat="46.16364" lon="-1.12799">
        <ele>5.8</ele>
        <time>2020-06-02T09:44:07Z</time>
      </trkpt>
      <trkpt lat="46.16365" lon="-1.12791">
        <ele>5.7</ele>
        <time>2020-06-02T09:44:08Z</time>
      </trkpt>
      <trkpt lat="46.16367" lon="-1.12782">
        <ele>5.7</ele>
        <time>2020-06-02T09:44:09Z</time>
      </trkpt>
      <trkpt lat="46.16369" lon="-1.12774">
        <ele>5.6</ele>
        <time>2020-06-02T09:44:10Z</time>
      </trkpt>
      <trkpt lat="46.1637" lon="-1.12766">
        <ele>5.6</ele>
        <time>2020-06-02T09:44:11Z</time>
      </trkpt>
      <trkpt lat="46.16372" lon="-1.12758">
        <ele>5.5</ele>
        <time>2020-06-02T09:44:12Z</time>
      </trkpt>
      <trkpt lat="46.16373" lon="-1.12751">
        <ele>5.5</ele>
        <time>2020-06-02T09:44:13Z</time>
      </trkpt>
      <trkpt lat="46.16375" lon="-1.12743">
        <ele>5.4</ele>
        <time>2020-06-02T09:44:14Z</time>
      </trkpt>
      <trkpt lat="46.16377" lon="-1.12735">
        <ele>5.4</ele>
        <time>2020-06-02T09:44:15Z</time>
      </trkpt>
      <trkpt lat="46.16378" lon="-1.12728">
        <ele>5.4</ele>
        <time>2020-06-02T09:44:16Z</time>
      </trkpt>
      <trkpt lat="46.1638" lon="-1.12721">
        <ele>5.4</ele>
        <time>2020-06-02T09:44:17Z</time>
      </trkpt>
      <trkpt lat="46.16381" lon="-1.12714">
        <ele>5.4</ele>
        <time>2020-06-02T09:44:18Z</time>
      </trkpt>
      <trkpt lat="46.16383" lon="-1.12707">
        <ele>5.3</ele>
        <time>2020-06-02T09:44:19Z</time>
      </trkpt>
      <trkpt lat="46.16384" lon="-1.127">
        <ele>5.3</ele>
        <time>2020-06-02T09:44:20Z</time>
      </trkpt>
      <trkpt lat="46.16385" lon="-1.12694">
        <ele>5.3</ele>
        <time>2020-06-02T09:44:21Z</time>
      </trkpt>
      <trkpt lat="46.16386" lon="-1.12686">
        <ele>5.3</ele>
        <time>2020-06-02T09:44:22Z</time>
      </trkpt>
      <trkpt lat="46.16387" lon="-1.1268">
        <ele>5.3</ele>
        <time>2020-06-02T09:44:23Z</time>
      </trkpt>
      <trkpt lat="46.16388" lon="-1.12673">
        <ele>5.3</ele>
        <time>2020-06-02T09:44:24Z</time>
      </trkpt>
      <trkpt lat="46.16389" lon="-1.12668">
        <ele>5.3</ele>
        <time>2020-06-02T09:44:25Z</time>
      </trkpt>
      <trkpt lat="46.16391" lon="-1.12661">
        <ele>5.4</ele>
        <time>2020-06-02T09:44:26Z</time>
      </trkpt>
      <trkpt lat="46.16393" lon="-1.12655">
        <ele>5.4</ele>
        <time>2020-06-02T09:44:27Z</time>
      </trkpt>
      <trkpt lat="46.16395" lon="-1.12649">
        <ele>5.4</ele>
        <time>2020-06-02T09:44:28Z</time>
      </trkpt>
      <trkpt lat="46.16397" lon="-1.12642">
        <ele>5.5</ele>
        <time>2020-06-02T09:44:29Z</time>
      </trkpt>
      <trkpt lat="46.164" lon="-1.12636">
        <ele>5.6</ele>
        <time>2020-06-02T09:44:30Z</time>
      </trkpt>
      <trkpt lat="46.16402" lon="-1.1263">
        <ele>5.6</ele>
        <time>2020-06-02T09:44:31Z</time>
      </trkpt>
      <trkpt lat="46.16404" lon="-1.12625">
        <ele>5.6</ele>
        <time>2020-06-02T09:44:32Z</time>
      </trkpt>
      <trkpt lat="46.16406" lon="-1.12618">
        <ele>5.7</ele>
        <time>2020-06-02T09:44:33Z</time>
      </trkpt>
      <trkpt lat="46.16409" lon="-1.12613">
        <ele>5.8</ele>
        <time>2020-06-02T09:44:34Z</time>
      </trkpt>
      <trkpt lat="46.16411" lon="-1.12609">
        <ele>5.8</ele>
        <time>2020-06-02T09:44:35Z</time>
      </trkpt>
      <trkpt lat="46.16413" lon="-1.12604">
        <ele>5.8</ele>
        <time>2020-06-02T09:44:36Z</time>
      </trkpt>
      <trkpt lat="46.16415" lon="-1.126">
        <ele>5.9</ele>
        <time>2020-06-02T09:44:37Z</time>
      </trkpt>
      <trkpt lat="46.16416" lon="-1.12595">
        <ele>5.9</ele>
        <time>2020-06-02T09:44:38Z</time>
      </trkpt>
      <trkpt lat="46.16416" lon="-1.1259">
        <ele>5.9</ele>
        <time>2020-06-02T09:44:39Z</time>
      </trkpt>
      <trkpt lat="46.16416" lon="-1.12584">
        <ele>5.8</ele>
        <time>2020-06-02T09:44:40Z</time>
      </trkpt>
      <trkpt lat="46.16415" lon="-1.1258">
        <ele>5.7</ele>
        <time>2020-06-02T09:44:41Z</time>
      </trkpt>
      <trkpt lat="46.16412" lon="-1.12576">
        <ele>5.6</ele>
        <time>2020-06-02T09:44:42Z</time>
      </trkpt>
      <trkpt lat="46.16409" lon="-1.12572">
        <ele>5.5</ele>
        <time>2020-06-02T09:44:43Z</time>
      </trkpt>
      <trkpt lat="46.16406" lon="-1.12568">
        <ele>5.4</ele>
        <time>2020-06-02T09:44:44Z</time>
      </trkpt>
      <trkpt lat="46.16401" lon="-1.12565">
        <ele>5.2</ele>
        <time>2020-06-02T09:44:45Z</time>
      </trkpt>
      <trkpt lat="46.16396" lon="-1.12564">
        <ele>5.1</ele>
        <time>2020-06-02T09:44:46Z</time>
      </trkpt>
      <trkpt lat="46.16391" lon="-1.12562">
        <ele>5</ele>
        <time>2020-06-02T09:44:47Z</time>
      </trkpt>
      <trkpt lat="46.16386" lon="-1.12559">
        <ele>4.7</ele>
        <time>2020-06-02T09:44:48Z</time>
      </trkpt>
      <trkpt lat="46.16381" lon="-1.12557">
        <ele>4.7</ele>
        <time>2020-06-02T09:44:49Z</time>
      </trkpt>
      <trkpt lat="46.16376" lon="-1.12555">
        <ele>4.6</ele>
        <time>2020-06-02T09:44:50Z</time>
      </trkpt>
      <trkpt lat="46.16372" lon="-1.12553">
        <ele>4.6</ele>
        <time>2020-06-02T09:44:51Z</time>
      </trkpt>
      <trkpt lat="46.16369" lon="-1.12551">
        <ele>4.6</ele>
        <time>2020-06-02T09:44:52Z</time>
      </trkpt>
      <trkpt lat="46.16368" lon="-1.12552">
        <ele>4.6</ele>
        <time>2020-06-02T09:44:53Z</time>
      </trkpt>
      <trkpt lat="46.16367" lon="-1.12551">
        <ele>4.6</ele>
        <time>2020-06-02T09:44:54Z</time>
      </trkpt>
      <trkpt lat="46.16367" lon="-1.12553">
        <ele>4.6</ele>
        <time>2020-06-02T09:44:55Z</time>
      </trkpt>
      <trkpt lat="46.16367" lon="-1.12553">
        <ele>4.6</ele>
        <time>2020-06-02T09:44:56Z</time>
      </trkpt>
      <trkpt lat="46.16367" lon="-1.12554">
        <ele>4.6</ele>
        <time>2020-06-02T09:44:57Z</time>
      </trkpt>
      <trkpt lat="46.16366" lon="-1.12555">
        <ele>4.6</ele>
        <time>2020-06-02T09:44:58Z</time>
      </trkpt>
      <trkpt lat="46.16366" lon="-1.12555">
        <ele>4.6</ele>
        <time>2020-06-02T09:44:59Z</time>
      </trkpt>
      <trkpt lat="46.16367" lon="-1.12554">
        <ele>4.6</ele>
        <time>2020-06-02T09:45:00Z</time>
      </trkpt>
      <trkpt lat="46.16366" lon="-1.12555">
        <ele>4.6</ele>
        <time>2020-06-02T09:45:01Z</time>
      </trkpt>
      <trkpt lat="46.16366" lon="-1.12554">
        <ele>4.6</ele>
        <time>2020-06-02T09:45:02Z</time>
      </trkpt>
      <trkpt lat="46.16366" lon="-1.12554">
        <ele>4.6</ele>
        <time>2020-06-02T09:45:03Z</time>
      </trkpt>
      <trkpt lat="46.16366" lon="-1.12555">
        <ele>4.6</ele>
        <time>2020-06-02T09:45:04Z</time>
      </trkpt>
      <trkpt lat="46.16365" lon="-1.12554">
        <ele>4.5</ele>
        <time>2020-06-02T09:45:05Z</time>
      </trkpt>
      <trkpt lat="46.16365" lon="-1.12553">
        <ele>4.5</ele>
        <time>2020-06-02T09:45:06Z</time>
      </trkpt>
      <trkpt lat="46.16364" lon="-1.12552">
        <ele>4.5</ele>
        <time>2020-06-02T09:45:07Z</time>
      </trkpt>
      <trkpt lat="46.16363" lon="-1.1255">
        <ele>4.5</ele>
        <time>2020-06-02T09:45:08Z</time>
      </trkpt>
      <trkpt lat="46.16361" lon="-1.12549">
        <ele>4.5</ele>
        <time>2020-06-02T09:45:09Z</time>
      </trkpt>
      <trkpt lat="46.16359" lon="-1.12546">
        <ele>4.5</ele>
        <time>2020-06-02T09:45:10Z</time>
      </trkpt>
      <trkpt lat="46.16356" lon="-1.12544">
        <ele>4.5</ele>
        <time>2020-06-02T09:45:11Z</time>
      </trkpt>
      <trkpt lat="46.16354" lon="-1.12542">
        <ele>4.4</ele>
        <time>2020-06-02T09:45:12Z</time>
      </trkpt>
      <trkpt lat="46.16352" lon="-1.12539">
        <ele>4.4</ele>
        <time>2020-06-02T09:45:13Z</time>
      </trkpt>
      <trkpt lat="46.16349" lon="-1.12535">
        <ele>4.4</ele>
        <time>2020-06-02T09:45:14Z</time>
      </trkpt>
      <trkpt lat="46.16347" lon="-1.12531">
        <ele>4.4</ele>
        <time>2020-06-02T09:45:15Z</time>
      </trkpt>
      <trkpt lat="46.16344" lon="-1.12528">
        <ele>4.3</ele>
        <time>2020-06-02T09:45:16Z</time>
      </trkpt>
      <trkpt lat="46.16341" lon="-1.12523">
        <ele>4.3</ele>
        <time>2020-06-02T09:45:17Z</time>
      </trkpt>
      <trkpt lat="46.16337" lon="-1.1252">
        <ele>4.3</ele>
        <time>2020-06-02T09:45:18Z</time>
      </trkpt>
      <trkpt lat="46.16334" lon="-1.12518">
        <ele>4.3</ele>
        <time>2020-06-02T09:45:19Z</time>
      </trkpt>
      <trkpt lat="46.1633" lon="-1.12514">
        <ele>4.4</ele>
        <time>2020-06-02T09:45:20Z</time>
      </trkpt>
      <trkpt lat="46.16327" lon="-1.12512">
        <ele>4.4</ele>
        <time>2020-06-02T09:45:21Z</time>
      </trkpt>
      <trkpt lat="46.16323" lon="-1.12509">
        <ele>4.4</ele>
        <time>2020-06-02T09:45:22Z</time>
      </trkpt>
      <trkpt lat="46.16319" lon="-1.12506">
        <ele>4.4</ele>
        <time>2020-06-02T09:45:23Z</time>
      </trkpt>
      <trkpt lat="46.16316" lon="-1.12505">
        <ele>4.4</ele>
        <time>2020-06-02T09:45:24Z</time>
      </trkpt>
      <trkpt lat="46.16313" lon="-1.12501">
        <ele>4.4</ele>
        <time>2020-06-02T09:45:25Z</time>
      </trkpt>
      <trkpt lat="46.16308" lon="-1.12498">
        <ele>4.5</ele>
        <time>2020-06-02T09:45:26Z</time>
      </trkpt>
      <trkpt lat="46.16304" lon="-1.12495">
        <ele>4.5</ele>
        <time>2020-06-02T09:45:27Z</time>
      </trkpt>
      <trkpt lat="46.163" lon="-1.12492">
        <ele>4.5</ele>
        <time>2020-06-02T09:45:28Z</time>
      </trkpt>
      <trkpt lat="46.16297" lon="-1.12489">
        <ele>4.5</ele>
        <time>2020-06-02T09:45:29Z</time>
      </trkpt>
      <trkpt lat="46.16293" lon="-1.12488">
        <ele>4.5</ele>
        <time>2020-06-02T09:45:30Z</time>
      </trkpt>
      <trkpt lat="46.1629" lon="-1.12485">
        <ele>4.5</ele>
        <time>2020-06-02T09:45:31Z</time>
      </trkpt>
      <trkpt lat="46.16286" lon="-1.12483">
        <ele>4.6</ele>
        <time>2020-06-02T09:45:32Z</time>
      </trkpt>
      <trkpt lat="46.16282" lon="-1.12482">
        <ele>4.6</ele>
        <time>2020-06-02T09:45:33Z</time>
      </trkpt>
      <trkpt lat="46.16277" lon="-1.1248">
        <ele>4.6</ele>
        <time>2020-06-02T09:45:34Z</time>
      </trkpt>
      <trkpt lat="46.16273" lon="-1.12479">
        <ele>4.6</ele>
        <time>2020-06-02T09:45:35Z</time>
      </trkpt>
      <trkpt lat="46.1627" lon="-1.12477">
        <ele>4.6</ele>
        <time>2020-06-02T09:45:36Z</time>
      </trkpt>
      <trkpt lat="46.16265" lon="-1.12473">
        <ele>4.6</ele>
        <time>2020-06-02T09:45:37Z</time>
      </trkpt>
      <trkpt lat="46.16261" lon="-1.12469">
        <ele>4.6</ele>
        <time>2020-06-02T09:45:38Z</time>
      </trkpt>
      <trkpt lat="46.16256" lon="-1.12466">
        <ele>4.6</ele>
        <time>2020-06-02T09:45:39Z</time>
      </trkpt>
      <trkpt lat="46.16252" lon="-1.12463">
        <ele>4.6</ele>
        <time>2020-06-02T09:45:40Z</time>
      </trkpt>
      <trkpt lat="46.16248" lon="-1.1246">
        <ele>4.6</ele>
        <time>2020-06-02T09:45:41Z</time>
      </trkpt>
      <trkpt lat="46.16244" lon="-1.12458">
        <ele>4.6</ele>
        <time>2020-06-02T09:45:42Z</time>
      </trkpt>
      <trkpt lat="46.16239" lon="-1.12455">
        <ele>4.6</ele>
        <time>2020-06-02T09:45:43Z</time>
      </trkpt>
      <trkpt lat="46.16235" lon="-1.12451">
        <ele>4.7</ele>
        <time>2020-06-02T09:45:44Z</time>
      </trkpt>
      <trkpt lat="46.16231" lon="-1.12447">
        <ele>4.7</ele>
        <time>2020-06-02T09:45:45Z</time>
      </trkpt>
      <trkpt lat="46.16227" lon="-1.12444">
        <ele>4.7</ele>
        <time>2020-06-02T09:45:46Z</time>
      </trkpt>
      <trkpt lat="46.16223" lon="-1.12441">
        <ele>4.7</ele>
        <time>2020-06-02T09:45:47Z</time>
      </trkpt>
      <trkpt lat="46.16218" lon="-1.12439">
        <ele>4.7</ele>
        <time>2020-06-02T09:45:48Z</time>
      </trkpt>
      <trkpt lat="46.16214" lon="-1.12436">
        <ele>4.8</ele>
        <time>2020-06-02T09:45:49Z</time>
      </trkpt>
      <trkpt lat="46.1621" lon="-1.12432">
        <ele>4.8</ele>
        <time>2020-06-02T09:45:50Z</time>
      </trkpt>
      <trkpt lat="46.16206" lon="-1.12429">
        <ele>4.8</ele>
        <time>2020-06-02T09:45:51Z</time>
      </trkpt>
      <trkpt lat="46.16202" lon="-1.12426">
        <ele>4.8</ele>
        <time>2020-06-02T09:45:52Z</time>
      </trkpt>
      <trkpt lat="46.16199" lon="-1.12424">
        <ele>4.8</ele>
        <time>2020-06-02T09:45:53Z</time>
      </trkpt>
      <trkpt lat="46.16196" lon="-1.12421">
        <ele>4.8</ele>
        <time>2020-06-02T09:45:54Z</time>
      </trkpt>
      <trkpt lat="46.16191" lon="-1.1242">
        <ele>4.9</ele>
        <time>2020-06-02T09:45:55Z</time>
      </trkpt>
      <trkpt lat="46.16187" lon="-1.12418">
        <ele>4.9</ele>
        <time>2020-06-02T09:45:56Z</time>
      </trkpt>
      <trkpt lat="46.16184" lon="-1.12416">
        <ele>4.9</ele>
        <time>2020-06-02T09:45:57Z</time>
      </trkpt>
      <trkpt lat="46.16181" lon="-1.12413">
        <ele>4.9</ele>
        <time>2020-06-02T09:45:58Z</time>
      </trkpt>
      <trkpt lat="46.16178" lon="-1.1241">
        <ele>4.9</ele>
        <time>2020-06-02T09:45:59Z</time>
      </trkpt>
      <trkpt lat="46.16176" lon="-1.12407">
        <ele>4.9</ele>
        <time>2020-06-02T09:46:00Z</time>
      </trkpt>
      <trkpt lat="46.16176" lon="-1.12405">
        <ele>4.9</ele>
        <time>2020-06-02T09:46:01Z</time>
      </trkpt>
      <trkpt lat="46.16174" lon="-1.12403">
        <ele>4.9</ele>
        <time>2020-06-02T09:46:02Z</time>
      </trkpt>
      <trkpt lat="46.16173" lon="-1.12402">
        <ele>4.9</ele>
        <time>2020-06-02T09:46:03Z</time>
      </trkpt>
      <trkpt lat="46.1617" lon="-1.12402">
        <ele>4.9</ele>
        <time>2020-06-02T09:46:04Z</time>
      </trkpt>
      <trkpt lat="46.16168" lon="-1.12402">
        <ele>4.8</ele>
        <time>2020-06-02T09:46:05Z</time>
      </trkpt>
      <trkpt lat="46.16165" lon="-1.12401">
        <ele>4.8</ele>
        <time>2020-06-02T09:46:06Z</time>
      </trkpt>
      <trkpt lat="46.16164" lon="-1.12401">
        <ele>4.8</ele>
        <time>2020-06-02T09:46:07Z</time>
      </trkpt>
      <trkpt lat="46.16162" lon="-1.12402">
        <ele>4.8</ele>
        <time>2020-06-02T09:46:08Z</time>
      </trkpt>
      <trkpt lat="46.16162" lon="-1.12402">
        <ele>4.8</ele>
        <time>2020-06-02T09:46:09Z</time>
      </trkpt>
      <trkpt lat="46.16161" lon="-1.12403">
        <ele>4.8</ele>
        <time>2020-06-02T09:46:10Z</time>
      </trkpt>
      <trkpt lat="46.16162" lon="-1.12403">
        <ele>4.8</ele>
        <time>2020-06-02T09:46:11Z</time>
      </trkpt>
      <trkpt lat="46.16162" lon="-1.12402">
        <ele>4.8</ele>
        <time>2020-06-02T09:46:12Z</time>
      </trkpt>
      <trkpt lat="46.16162" lon="-1.12403">
        <ele>4.8</ele>
        <time>2020-06-02T09:46:13Z</time>
      </trkpt>
      <trkpt lat="46.16162" lon="-1.12403">
        <ele>4.8</ele>
        <time>2020-06-02T09:46:14Z</time>
      </trkpt>
      <trkpt lat="46.16162" lon="-1.12402">
        <ele>4.8</ele>
        <time>2020-06-02T09:46:15Z</time>
      </trkpt>
      <trkpt lat="46.16162" lon="-1.12402">
        <ele>4.8</ele>
        <time>2020-06-02T09:46:16Z</time>
      </trkpt>
      <trkpt lat="46.16162" lon="-1.12401">
        <ele>4.8</ele>
        <time>2020-06-02T09:46:17Z</time>
      </trkpt>
      <trkpt lat="46.16163" lon="-1.124">
        <ele>4.8</ele>
        <time>2020-06-02T09:46:18Z</time>
      </trkpt>
      <trkpt lat="46.16163" lon="-1.12399">
        <ele>4.8</ele>
        <time>2020-06-02T09:46:19Z</time>
      </trkpt>
      <trkpt lat="46.16163" lon="-1.124">
        <ele>4.8</ele>
        <time>2020-06-02T09:46:20Z</time>
      </trkpt>
      <trkpt lat="46.16163" lon="-1.124">
        <ele>4.8</ele>
        <time>2020-06-02T09:46:21Z</time>
      </trkpt>
      <trkpt lat="46.16163" lon="-1.124">
        <ele>4.8</ele>
        <time>2020-06-02T09:46:22Z</time>
      </trkpt>
      <trkpt lat="46.16163" lon="-1.124">
        <ele>4.8</ele>
        <time>2020-06-02T09:46:23Z</time>
      </trkpt>
      <trkpt lat="46.16163" lon="-1.124">
        <ele>4.8</ele>
        <time>2020-06-02T09:46:24Z</time>
      </trkpt>
      <trkpt lat="46.16163" lon="-1.12401">
        <ele>4.8</ele>
        <time>2020-06-02T09:46:25Z</time>
      </trkpt>
      <trkpt lat="46.16163" lon="-1.12401">
        <ele>4.8</ele>
        <time>2020-06-02T09:46:26Z</time>
      </trkpt>
      <trkpt lat="46.16163" lon="-1.12401">
        <ele>4.8</ele>
        <time>2020-06-02T09:46:27Z</time>
      </trkpt>
      <trkpt lat="46.16163" lon="-1.12401">
        <ele>4.8</ele>
        <time>2020-06-02T09:46:28Z</time>
      </trkpt>
      <trkpt lat="46.16163" lon="-1.124">
        <ele>4.8</ele>
        <time>2020-06-02T09:46:29Z</time>
      </trkpt>
      <trkpt lat="46.16163" lon="-1.124">
        <ele>4.8</ele>
        <time>2020-06-02T09:46:30Z</time>
      </trkpt>
      <trkpt lat="46.16163" lon="-1.124">
        <ele>4.8</ele>
        <time>2020-06-02T09:46:31Z</time>
      </trkpt>
      <trkpt lat="46.16163" lon="-1.124">
        <ele>4.8</ele>
        <time>2020-06-02T09:46:32Z</time>
      </trkpt>
      <trkpt lat="46.16163" lon="-1.124">
        <ele>4.8</ele>
        <time>2020-06-02T09:46:33Z</time>
      </trkpt>
      <trkpt lat="46.16163" lon="-1.124">
        <ele>4.8</ele>
        <time>2020-06-02T09:46:34Z</time>
      </trkpt>
      <trkpt lat="46.16163" lon="-1.124">
        <ele>4.8</ele>
        <time>2020-06-02T09:46:35Z</time>
      </trkpt>
      <trkpt lat="46.16163" lon="-1.124">
        <ele>4.8</ele>
        <time>2020-06-02T09:46:36Z</time>
      </trkpt>
      <trkpt lat="46.16163" lon="-1.124">
        <ele>4.8</ele>
        <time>2020-06-02T09:46:37Z</time>
      </trkpt>
      <trkpt lat="46.16163" lon="-1.124">
        <ele>4.8</ele>
        <time>2020-06-02T09:46:38Z</time>
      </trkpt>
      <trkpt lat="46.16163" lon="-1.124">
        <ele>4.8</ele>
        <time>2020-06-02T09:46:39Z</time>
      </trkpt>
      <trkpt lat="46.16163" lon="-1.124">
        <ele>4.8</ele>
        <time>2020-06-02T09:46:40Z</time>
      </trkpt>
      <trkpt lat="46.16163" lon="-1.124">
        <ele>4.8</ele>
        <time>2020-06-02T09:46:41Z</time>
      </trkpt>
      <trkpt lat="46.16163" lon="-1.124">
        <ele>4.8</ele>
        <time>2020-06-02T09:46:42Z</time>
      </trkpt>
      <trkpt lat="46.16163" lon="-1.124">
        <ele>4.8</ele>
        <time>2020-06-02T09:46:43Z</time>
      </trkpt>
      <trkpt lat="46.16162" lon="-1.124">
        <ele>4.8</ele>
        <time>2020-06-02T09:46:44Z</time>
      </trkpt>
      <trkpt lat="46.16162" lon="-1.124">
        <ele>4.8</ele>
        <time>2020-06-02T09:46:45Z</time>
      </trkpt>
      <trkpt lat="46.16162" lon="-1.124">
        <ele>4.8</ele>
        <time>2020-06-02T09:46:46Z</time>
      </trkpt>
      <trkpt lat="46.16162" lon="-1.12399">
        <ele>4.8</ele>
        <time>2020-06-02T09:46:47Z</time>
      </trkpt>
      <trkpt lat="46.16161" lon="-1.12398">
        <ele>4.8</ele>
        <time>2020-06-02T09:46:48Z</time>
      </trkpt>
      <trkpt lat="46.16161" lon="-1.12398">
        <ele>4.8</ele>
        <time>2020-06-02T09:46:49Z</time>
      </trkpt>
      <trkpt lat="46.16161" lon="-1.12397">
        <ele>4.8</ele>
        <time>2020-06-02T09:46:50Z</time>
      </trkpt>
      <trkpt lat="46.16161" lon="-1.12397">
        <ele>4.8</ele>
        <time>2020-06-02T09:46:51Z</time>
      </trkpt>
      <trkpt lat="46.16161" lon="-1.12397">
        <ele>4.8</ele>
        <time>2020-06-02T09:46:52Z</time>
      </trkpt>
      <trkpt lat="46.16161" lon="-1.12397">
        <ele>4.8</ele>
        <time>2020-06-02T09:46:53Z</time>
      </trkpt>
      <trkpt lat="46.16161" lon="-1.12397">
        <ele>4.8</ele>
        <time>2020-06-02T09:46:54Z</time>
      </trkpt>
      <trkpt lat="46.16161" lon="-1.12397">
        <ele>4.8</ele>
        <time>2020-06-02T09:46:55Z</time>
      </trkpt>
      <trkpt lat="46.16161" lon="-1.12397">
        <ele>4.8</ele>
        <time>2020-06-02T09:46:56Z</time>
      </trkpt>
      <trkpt lat="46.16161" lon="-1.12397">
        <ele>4.8</ele>
        <time>2020-06-02T09:46:57Z</time>
      </trkpt>
      <trkpt lat="46.16161" lon="-1.12397">
        <ele>4.8</ele>
        <time>2020-06-02T09:46:58Z</time>
      </trkpt>
      <trkpt lat="46.16161" lon="-1.12397">
        <ele>4.8</ele>
        <time>2020-06-02T09:46:59Z</time>
      </trkpt>
      <trkpt lat="46.16161" lon="-1.12397">
        <ele>4.8</ele>
        <time>2020-06-02T09:47:00Z</time>
      </trkpt>
      <trkpt lat="46.16161" lon="-1.12397">
        <ele>4.8</ele>
        <time>2020-06-02T09:47:01Z</time>
      </trkpt>
      <trkpt lat="46.16161" lon="-1.12397">
        <ele>4.8</ele>
        <time>2020-06-02T09:47:02Z</time>
      </trkpt>
      <trkpt lat="46.16161" lon="-1.12397">
        <ele>4.8</ele>
        <time>2020-06-02T09:47:03Z</time>
      </trkpt>
      <trkpt lat="46.16161" lon="-1.12397">
        <ele>4.8</ele>
        <time>2020-06-02T09:47:04Z</time>
      </trkpt>
      <trkpt lat="46.16161" lon="-1.12397">
        <ele>4.8</ele>
        <time>2020-06-02T09:47:05Z</time>
      </trkpt>
      <trkpt lat="46.16161" lon="-1.12397">
        <ele>4.8</ele>
        <time>2020-06-02T09:47:06Z</time>
      </trkpt>
      <trkpt lat="46.16161" lon="-1.12397">
        <ele>4.8</ele>
        <time>2020-06-02T09:47:07Z</time>
      </trkpt>
      <trkpt lat="46.16161" lon="-1.12397">
        <ele>4.8</ele>
        <time>2020-06-02T09:47:08Z</time>
      </trkpt>
      <trkpt lat="46.16161" lon="-1.12397">
        <ele>4.8</ele>
        <time>2020-06-02T09:47:09Z</time>
      </trkpt>
      <trkpt lat="46.16161" lon="-1.12397">
        <ele>4.8</ele>
        <time>2020-06-02T09:47:10Z</time>
      </trkpt>
      <trkpt lat="46.16161" lon="-1.12397">
        <ele>4.8</ele>
        <time>2020-06-02T09:47:11Z</time>
      </trkpt>
      <trkpt lat="46.16161" lon="-1.12397">
        <ele>4.8</ele>
        <time>2020-06-02T09:47:12Z</time>
      </trkpt>
      <trkpt lat="46.16161" lon="-1.12397">
        <ele>4.8</ele>
        <time>2020-06-02T09:47:13Z</time>
      </trkpt>
      <trkpt lat="46.16161" lon="-1.12397">
        <ele>4.8</ele>
        <time>2020-06-02T09:47:14Z</time>
      </trkpt>
      <trkpt lat="46.16161" lon="-1.12397">
        <ele>4.8</ele>
        <time>2020-06-02T09:47:15Z</time>
      </trkpt>
      <trkpt lat="46.16161" lon="-1.12397">
        <ele>4.8</ele>
        <time>2020-06-02T09:47:16Z</time>
      </trkpt>
      <trkpt lat="46.16161" lon="-1.12397">
        <ele>4.8</ele>
        <time>2020-06-02T09:47:17Z</time>
      </trkpt>
      <trkpt lat="46.16161" lon="-1.12397">
        <ele>4.8</ele>
        <time>2020-06-02T09:47:18Z</time>
      </trkpt>
      <trkpt lat="46.16161" lon="-1.12397">
        <ele>4.8</ele>
        <time>2020-06-02T09:47:19Z</time>
      </trkpt>
      <trkpt lat="46.16161" lon="-1.12397">
        <ele>4.8</ele>
        <time>2020-06-02T09:47:20Z</time>
      </trkpt>
      <trkpt lat="46.16161" lon="-1.12397">
        <ele>4.8</ele>
        <time>2020-06-02T09:47:21Z</time>
      </trkpt>
      <trkpt lat="46.16161" lon="-1.12397">
        <ele>4.8</ele>
        <time>2020-06-02T09:47:22Z</time>
      </trkpt>
      <trkpt lat="46.16161" lon="-1.12397">
        <ele>4.8</ele>
        <time>2020-06-02T09:47:23Z</time>
      </trkpt>
      <trkpt lat="46.16161" lon="-1.12397">
        <ele>4.8</ele>
        <time>2020-06-02T09:47:24Z</time>
      </trkpt>
      <trkpt lat="46.1616" lon="-1.12396">
        <ele>4.8</ele>
        <time>2020-06-02T09:47:25Z</time>
      </trkpt>
      <trkpt lat="46.1616" lon="-1.12395">
        <ele>4.8</ele>
        <time>2020-06-02T09:47:26Z</time>
      </trkpt>
      <trkpt lat="46.1616" lon="-1.12393">
        <ele>4.8</ele>
        <time>2020-06-02T09:47:27Z</time>
      </trkpt>
      <trkpt lat="46.1616" lon="-1.1239">
        <ele>4.8</ele>
        <time>2020-06-02T09:47:28Z</time>
      </trkpt>
      <trkpt lat="46.16161" lon="-1.12385">
        <ele>4.8</ele>
        <time>2020-06-02T09:47:29Z</time>
      </trkpt>
      <trkpt lat="46.16161" lon="-1.12383">
        <ele>4.8</ele>
        <time>2020-06-02T09:47:30Z</time>
      </trkpt>
      <trkpt lat="46.16162" lon="-1.12378">
        <ele>4.8</ele>
        <time>2020-06-02T09:47:31Z</time>
      </trkpt>
      <trkpt lat="46.16162" lon="-1.12376">
        <ele>4.8</ele>
        <time>2020-06-02T09:47:32Z</time>
      </trkpt>
      <trkpt lat="46.16164" lon="-1.12372">
        <ele>4.7</ele>
        <time>2020-06-02T09:47:33Z</time>
      </trkpt>
      <trkpt lat="46.16165" lon="-1.12368">
        <ele>4.7</ele>
        <time>2020-06-02T09:47:34Z</time>
      </trkpt>
      <trkpt lat="46.16166" lon="-1.12363">
        <ele>4.7</ele>
        <time>2020-06-02T09:47:35Z</time>
      </trkpt>
      <trkpt lat="46.16167" lon="-1.12362">
        <ele>4.7</ele>
        <time>2020-06-02T09:47:36Z</time>
      </trkpt>
      <trkpt lat="46.16167" lon="-1.1236">
        <ele>4.7</ele>
        <time>2020-06-02T09:47:37Z</time>
      </trkpt>
      <trkpt lat="46.16167" lon="-1.12357">
        <ele>4.7</ele>
        <time>2020-06-02T09:47:38Z</time>
      </trkpt>
      <trkpt lat="46.16168" lon="-1.12352">
        <ele>4.7</ele>
        <time>2020-06-02T09:47:39Z</time>
      </trkpt>
      <trkpt lat="46.16168" lon="-1.1235">
        <ele>4.7</ele>
        <time>2020-06-02T09:47:40Z</time>
      </trkpt>
      <trkpt lat="46.16168" lon="-1.12346">
        <ele>4.7</ele>
        <time>2020-06-02T09:47:41Z</time>
      </trkpt>
      <trkpt lat="46.16168" lon="-1.12342">
        <ele>4.8</ele>
        <time>2020-06-02T09:47:42Z</time>
      </trkpt>
      <trkpt lat="46.16168" lon="-1.1234">
        <ele>4.7</ele>
        <time>2020-06-02T09:47:43Z</time>
      </trkpt>
      <trkpt lat="46.16169" lon="-1.12338">
        <ele>4.7</ele>
        <time>2020-06-02T09:47:44Z</time>
      </trkpt>
      <trkpt lat="46.1617" lon="-1.12336">
        <ele>4.7</ele>
        <time>2020-06-02T09:47:45Z</time>
      </trkpt>
      <trkpt lat="46.16171" lon="-1.12335">
        <ele>4.7</ele>
        <time>2020-06-02T09:47:46Z</time>
      </trkpt>
      <trkpt lat="46.16171" lon="-1.12335">
        <ele>4.7</ele>
        <time>2020-06-02T09:47:47Z</time>
      </trkpt>
      <trkpt lat="46.16172" lon="-1.12334">
        <ele>4.7</ele>
        <time>2020-06-02T09:47:48Z</time>
      </trkpt>
      <trkpt lat="46.16173" lon="-1.12331">
        <ele>4.7</ele>
        <time>2020-06-02T09:47:49Z</time>
      </trkpt>
      <trkpt lat="46.16173" lon="-1.12329">
        <ele>4.7</ele>
        <time>2020-06-02T09:47:50Z</time>
      </trkpt>
      <trkpt lat="46.16173" lon="-1.12328">
        <ele>4.7</ele>
        <time>2020-06-02T09:47:51Z</time>
      </trkpt>
      <trkpt lat="46.16175" lon="-1.12324">
        <ele>4.7</ele>
        <time>2020-06-02T09:47:52Z</time>
      </trkpt>
      <trkpt lat="46.16176" lon="-1.12323">
        <ele>4.7</ele>
        <time>2020-06-02T09:47:53Z</time>
      </trkpt>
      <trkpt lat="46.16177" lon="-1.12318">
        <ele>4.7</ele>
        <time>2020-06-02T09:47:54Z</time>
      </trkpt>
      <trkpt lat="46.16178" lon="-1.12314">
        <ele>4.7</ele>
        <time>2020-06-02T09:47:55Z</time>
      </trkpt>
      <trkpt lat="46.16179" lon="-1.1231">
        <ele>4.7</ele>
        <time>2020-06-02T09:47:56Z</time>
      </trkpt>
      <trkpt lat="46.16181" lon="-1.12306">
        <ele>4.8</ele>
        <time>2020-06-02T09:47:57Z</time>
      </trkpt>
      <trkpt lat="46.16182" lon="-1.12303">
        <ele>4.8</ele>
        <time>2020-06-02T09:47:58Z</time>
      </trkpt>
      <trkpt lat="46.16183" lon="-1.12299">
        <ele>4.8</ele>
        <time>2020-06-02T09:47:59Z</time>
      </trkpt>
      <trkpt lat="46.16184" lon="-1.12298">
        <ele>4.8</ele>
        <time>2020-06-02T09:48:00Z</time>
      </trkpt>
      <trkpt lat="46.16184" lon="-1.12297">
        <ele>4.8</ele>
        <time>2020-06-02T09:48:01Z</time>
      </trkpt>
      <trkpt lat="46.16185" lon="-1.12296">
        <ele>4.8</ele>
        <time>2020-06-02T09:48:02Z</time>
      </trkpt>
      <trkpt lat="46.16185" lon="-1.12295">
        <ele>4.8</ele>
        <time>2020-06-02T09:48:03Z</time>
      </trkpt>
      <trkpt lat="46.16187" lon="-1.12291">
        <ele>4.8</ele>
        <time>2020-06-02T09:48:04Z</time>
      </trkpt>
      <trkpt lat="46.16187" lon="-1.12289">
        <ele>4.8</ele>
        <time>2020-06-02T09:48:05Z</time>
      </trkpt>
      <trkpt lat="46.1619" lon="-1.12285">
        <ele>4.9</ele>
        <time>2020-06-02T09:48:06Z</time>
      </trkpt>
      <trkpt lat="46.16192" lon="-1.12283">
        <ele>4.9</ele>
        <time>2020-06-02T09:48:07Z</time>
      </trkpt>
      <trkpt lat="46.16194" lon="-1.12279">
        <ele>4.9</ele>
        <time>2020-06-02T09:48:08Z</time>
      </trkpt>
      <trkpt lat="46.16197" lon="-1.12274">
        <ele>5</ele>
        <time>2020-06-02T09:48:09Z</time>
      </trkpt>
      <trkpt lat="46.16199" lon="-1.12269">
        <ele>5</ele>
        <time>2020-06-02T09:48:10Z</time>
      </trkpt>
      <trkpt lat="46.16201" lon="-1.12263">
        <ele>5</ele>
        <time>2020-06-02T09:48:11Z</time>
      </trkpt>
      <trkpt lat="46.16202" lon="-1.12257">
        <ele>5</ele>
        <time>2020-06-02T09:48:12Z</time>
      </trkpt>
      <trkpt lat="46.16204" lon="-1.12251">
        <ele>5</ele>
        <time>2020-06-02T09:48:13Z</time>
      </trkpt>
      <trkpt lat="46.16205" lon="-1.12245">
        <ele>5</ele>
        <time>2020-06-02T09:48:14Z</time>
      </trkpt>
      <trkpt lat="46.16208" lon="-1.1224">
        <ele>5</ele>
        <time>2020-06-02T09:48:15Z</time>
      </trkpt>
      <trkpt lat="46.1621" lon="-1.12234">
        <ele>5</ele>
        <time>2020-06-02T09:48:16Z</time>
      </trkpt>
      <trkpt lat="46.16213" lon="-1.12228">
        <ele>5</ele>
        <time>2020-06-02T09:48:17Z</time>
      </trkpt>
      <trkpt lat="46.16215" lon="-1.12221">
        <ele>5</ele>
        <time>2020-06-02T09:48:18Z</time>
      </trkpt>
      <trkpt lat="46.16217" lon="-1.12215">
        <ele>5</ele>
        <time>2020-06-02T09:48:19Z</time>
      </trkpt>
      <trkpt lat="46.16219" lon="-1.12209">
        <ele>5</ele>
        <time>2020-06-02T09:48:20Z</time>
      </trkpt>
      <trkpt lat="46.16221" lon="-1.12202">
        <ele>5</ele>
        <time>2020-06-02T09:48:21Z</time>
      </trkpt>
      <trkpt lat="46.16223" lon="-1.12195">
        <ele>5</ele>
        <time>2020-06-02T09:48:22Z</time>
      </trkpt>
      <trkpt lat="46.16225" lon="-1.12189">
        <ele>5</ele>
        <time>2020-06-02T09:48:23Z</time>
      </trkpt>
      <trkpt lat="46.16227" lon="-1.12182">
        <ele>5</ele>
        <time>2020-06-02T09:48:24Z</time>
      </trkpt>
      <trkpt lat="46.16228" lon="-1.12175">
        <ele>5</ele>
        <time>2020-06-02T09:48:25Z</time>
      </trkpt>
      <trkpt lat="46.16228" lon="-1.1217">
        <ele>5</ele>
        <time>2020-06-02T09:48:26Z</time>
      </trkpt>
      <trkpt lat="46.16229" lon="-1.12164">
        <ele>5</ele>
        <time>2020-06-02T09:48:27Z</time>
      </trkpt>
      <trkpt lat="46.16231" lon="-1.12157">
        <ele>5</ele>
        <time>2020-06-02T09:48:28Z</time>
      </trkpt>
      <trkpt lat="46.16232" lon="-1.12152">
        <ele>5</ele>
        <time>2020-06-02T09:48:29Z</time>
      </trkpt>
      <trkpt lat="46.16233" lon="-1.12146">
        <ele>5</ele>
        <time>2020-06-02T09:48:30Z</time>
      </trkpt>
      <trkpt lat="46.16234" lon="-1.12141">
        <ele>5</ele>
        <time>2020-06-02T09:48:31Z</time>
      </trkpt>
      <trkpt lat="46.16236" lon="-1.12135">
        <ele>5</ele>
        <time>2020-06-02T09:48:32Z</time>
      </trkpt>
      <trkpt lat="46.16238" lon="-1.12129">
        <ele>5</ele>
        <time>2020-06-02T09:48:33Z</time>
      </trkpt>
      <trkpt lat="46.1624" lon="-1.12124">
        <ele>5</ele>
        <time>2020-06-02T09:48:34Z</time>
      </trkpt>
      <trkpt lat="46.16241" lon="-1.12119">
        <ele>4.9</ele>
        <time>2020-06-02T09:48:35Z</time>
      </trkpt>
      <trkpt lat="46.16243" lon="-1.12114">
        <ele>4.9</ele>
        <time>2020-06-02T09:48:36Z</time>
      </trkpt>
      <trkpt lat="46.16244" lon="-1.12109">
        <ele>4.9</ele>
        <time>2020-06-02T09:48:37Z</time>
      </trkpt>
      <trkpt lat="46.16247" lon="-1.12103">
        <ele>5</ele>
        <time>2020-06-02T09:48:38Z</time>
      </trkpt>
      <trkpt lat="46.16248" lon="-1.12097">
        <ele>5</ele>
        <time>2020-06-02T09:48:39Z</time>
      </trkpt>
      <trkpt lat="46.1625" lon="-1.12092">
        <ele>5</ele>
        <time>2020-06-02T09:48:40Z</time>
      </trkpt>
      <trkpt lat="46.16252" lon="-1.12086">
        <ele>5</ele>
        <time>2020-06-02T09:48:41Z</time>
      </trkpt>
      <trkpt lat="46.16254" lon="-1.12081">
        <ele>5</ele>
        <time>2020-06-02T09:48:42Z</time>
      </trkpt>
      <trkpt lat="46.16256" lon="-1.12075">
        <ele>5.1</ele>
        <time>2020-06-02T09:48:43Z</time>
      </trkpt>
      <trkpt lat="46.16257" lon="-1.1207">
        <ele>5.1</ele>
        <time>2020-06-02T09:48:44Z</time>
      </trkpt>
      <trkpt lat="46.16259" lon="-1.12065">
        <ele>5.1</ele>
        <time>2020-06-02T09:48:45Z</time>
      </trkpt>
      <trkpt lat="46.1626" lon="-1.1206">
        <ele>5.1</ele>
        <time>2020-06-02T09:48:46Z</time>
      </trkpt>
      <trkpt lat="46.16262" lon="-1.12055">
        <ele>5.1</ele>
        <time>2020-06-02T09:48:47Z</time>
      </trkpt>
      <trkpt lat="46.16264" lon="-1.12051">
        <ele>5.1</ele>
        <time>2020-06-02T09:48:48Z</time>
      </trkpt>
      <trkpt lat="46.16266" lon="-1.12046">
        <ele>5.1</ele>
        <time>2020-06-02T09:48:49Z</time>
      </trkpt>
      <trkpt lat="46.16268" lon="-1.1204">
        <ele>5.1</ele>
        <time>2020-06-02T09:48:50Z</time>
      </trkpt>
      <trkpt lat="46.1627" lon="-1.12034">
        <ele>5.1</ele>
        <time>2020-06-02T09:48:51Z</time>
      </trkpt>
      <trkpt lat="46.16271" lon="-1.12027">
        <ele>5.1</ele>
        <time>2020-06-02T09:48:52Z</time>
      </trkpt>
      <trkpt lat="46.16273" lon="-1.12019">
        <ele>5.1</ele>
        <time>2020-06-02T09:48:53Z</time>
      </trkpt>
      <trkpt lat="46.16275" lon="-1.12012">
        <ele>5.1</ele>
        <time>2020-06-02T09:48:54Z</time>
      </trkpt>
      <trkpt lat="46.16277" lon="-1.12006">
        <ele>5.1</ele>
        <time>2020-06-02T09:48:55Z</time>
      </trkpt>
      <trkpt lat="46.16279" lon="-1.12">
        <ele>5.1</ele>
        <time>2020-06-02T09:48:56Z</time>
      </trkpt>
      <trkpt lat="46.16281" lon="-1.11993">
        <ele>5.1</ele>
        <time>2020-06-02T09:48:57Z</time>
      </trkpt>
      <trkpt lat="46.16283" lon="-1.11986">
        <ele>5.1</ele>
        <time>2020-06-02T09:48:58Z</time>
      </trkpt>
      <trkpt lat="46.16284" lon="-1.11981">
        <ele>5.1</ele>
        <time>2020-06-02T09:48:59Z</time>
      </trkpt>
      <trkpt lat="46.16286" lon="-1.11974">
        <ele>5.1</ele>
        <time>2020-06-02T09:49:00Z</time>
      </trkpt>
      <trkpt lat="46.16287" lon="-1.11969">
        <ele>5.1</ele>
        <time>2020-06-02T09:49:01Z</time>
      </trkpt>
      <trkpt lat="46.16288" lon="-1.11963">
        <ele>5</ele>
        <time>2020-06-02T09:49:02Z</time>
      </trkpt>
      <trkpt lat="46.16287" lon="-1.11956">
        <ele>5</ele>
        <time>2020-06-02T09:49:03Z</time>
      </trkpt>
      <trkpt lat="46.16289" lon="-1.11948">
        <ele>5</ele>
        <time>2020-06-02T09:49:04Z</time>
      </trkpt>
      <trkpt lat="46.1629" lon="-1.11941">
        <ele>5</ele>
        <time>2020-06-02T09:49:05Z</time>
      </trkpt>
      <trkpt lat="46.16292" lon="-1.11935">
        <ele>5</ele>
        <time>2020-06-02T09:49:06Z</time>
      </trkpt>
      <trkpt lat="46.16295" lon="-1.11928">
        <ele>5</ele>
        <time>2020-06-02T09:49:07Z</time>
      </trkpt>
      <trkpt lat="46.16296" lon="-1.11921">
        <ele>5</ele>
        <time>2020-06-02T09:49:08Z</time>
      </trkpt>
      <trkpt lat="46.16297" lon="-1.11915">
        <ele>5</ele>
        <time>2020-06-02T09:49:09Z</time>
      </trkpt>
      <trkpt lat="46.16299" lon="-1.11909">
        <ele>5</ele>
        <time>2020-06-02T09:49:10Z</time>
      </trkpt>
      <trkpt lat="46.163" lon="-1.11903">
        <ele>5</ele>
        <time>2020-06-02T09:49:11Z</time>
      </trkpt>
      <trkpt lat="46.16301" lon="-1.11896">
        <ele>5</ele>
        <time>2020-06-02T09:49:12Z</time>
      </trkpt>
      <trkpt lat="46.16302" lon="-1.1189">
        <ele>5</ele>
        <time>2020-06-02T09:49:13Z</time>
      </trkpt>
      <trkpt lat="46.16304" lon="-1.11883">
        <ele>5</ele>
        <time>2020-06-02T09:49:14Z</time>
      </trkpt>
      <trkpt lat="46.16306" lon="-1.11878">
        <ele>5</ele>
        <time>2020-06-02T09:49:15Z</time>
      </trkpt>
      <trkpt lat="46.16308" lon="-1.11871">
        <ele>5</ele>
        <time>2020-06-02T09:49:16Z</time>
      </trkpt>
      <trkpt lat="46.16309" lon="-1.11865">
        <ele>5</ele>
        <time>2020-06-02T09:49:17Z</time>
      </trkpt>
      <trkpt lat="46.16311" lon="-1.1186">
        <ele>5</ele>
        <time>2020-06-02T09:49:18Z</time>
      </trkpt>
      <trkpt lat="46.16313" lon="-1.11854">
        <ele>5</ele>
        <time>2020-06-02T09:49:19Z</time>
      </trkpt>
      <trkpt lat="46.16314" lon="-1.11848">
        <ele>5</ele>
        <time>2020-06-02T09:49:20Z</time>
      </trkpt>
      <trkpt lat="46.16316" lon="-1.11841">
        <ele>5</ele>
        <time>2020-06-02T09:49:21Z</time>
      </trkpt>
      <trkpt lat="46.16319" lon="-1.11835">
        <ele>5</ele>
        <time>2020-06-02T09:49:22Z</time>
      </trkpt>
      <trkpt lat="46.16321" lon="-1.11828">
        <ele>5</ele>
        <time>2020-06-02T09:49:23Z</time>
      </trkpt>
      <trkpt lat="46.16323" lon="-1.11823">
        <ele>5</ele>
        <time>2020-06-02T09:49:24Z</time>
      </trkpt>
      <trkpt lat="46.16325" lon="-1.11817">
        <ele>5</ele>
        <time>2020-06-02T09:49:25Z</time>
      </trkpt>
      <trkpt lat="46.16327" lon="-1.11811">
        <ele>5</ele>
        <time>2020-06-02T09:49:26Z</time>
      </trkpt>
      <trkpt lat="46.16329" lon="-1.11805">
        <ele>5</ele>
        <time>2020-06-02T09:49:27Z</time>
      </trkpt>
      <trkpt lat="46.1633" lon="-1.11799">
        <ele>5.1</ele>
        <time>2020-06-02T09:49:28Z</time>
      </trkpt>
      <trkpt lat="46.16332" lon="-1.11794">
        <ele>5.1</ele>
        <time>2020-06-02T09:49:29Z</time>
      </trkpt>
      <trkpt lat="46.16334" lon="-1.11788">
        <ele>5.1</ele>
        <time>2020-06-02T09:49:30Z</time>
      </trkpt>
      <trkpt lat="46.16335" lon="-1.11782">
        <ele>5.1</ele>
        <time>2020-06-02T09:49:31Z</time>
      </trkpt>
      <trkpt lat="46.16337" lon="-1.11777">
        <ele>5.1</ele>
        <time>2020-06-02T09:49:32Z</time>
      </trkpt>
      <trkpt lat="46.16339" lon="-1.11771">
        <ele>5.1</ele>
        <time>2020-06-02T09:49:33Z</time>
      </trkpt>
      <trkpt lat="46.16341" lon="-1.11764">
        <ele>5.1</ele>
        <time>2020-06-02T09:49:34Z</time>
      </trkpt>
      <trkpt lat="46.16343" lon="-1.11757">
        <ele>5.1</ele>
        <time>2020-06-02T09:49:35Z</time>
      </trkpt>
      <trkpt lat="46.16346" lon="-1.11751">
        <ele>5.1</ele>
        <time>2020-06-02T09:49:36Z</time>
      </trkpt>
      <trkpt lat="46.16347" lon="-1.11744">
        <ele>5.1</ele>
        <time>2020-06-02T09:49:37Z</time>
      </trkpt>
      <trkpt lat="46.16349" lon="-1.11737">
        <ele>5.1</ele>
        <time>2020-06-02T09:49:38Z</time>
      </trkpt>
      <trkpt lat="46.1635" lon="-1.11731">
        <ele>5.1</ele>
        <time>2020-06-02T09:49:39Z</time>
      </trkpt>
      <trkpt lat="46.16351" lon="-1.11724">
        <ele>5.1</ele>
        <time>2020-06-02T09:49:40Z</time>
      </trkpt>
      <trkpt lat="46.16353" lon="-1.11717">
        <ele>5.1</ele>
        <time>2020-06-02T09:49:41Z</time>
      </trkpt>
      <trkpt lat="46.16355" lon="-1.1171">
        <ele>5.1</ele>
        <time>2020-06-02T09:49:42Z</time>
      </trkpt>
      <trkpt lat="46.16356" lon="-1.11703">
        <ele>5.1</ele>
        <time>2020-06-02T09:49:43Z</time>
      </trkpt>
      <trkpt lat="46.16358" lon="-1.11696">
        <ele>5.1</ele>
        <time>2020-06-02T09:49:44Z</time>
      </trkpt>
      <trkpt lat="46.1636" lon="-1.11688">
        <ele>5.1</ele>
        <time>2020-06-02T09:49:45Z</time>
      </trkpt>
      <trkpt lat="46.16361" lon="-1.11681">
        <ele>5.2</ele>
        <time>2020-06-02T09:49:46Z</time>
      </trkpt>
      <trkpt lat="46.16363" lon="-1.11675">
        <ele>5.2</ele>
        <time>2020-06-02T09:49:47Z</time>
      </trkpt>
      <trkpt lat="46.16364" lon="-1.11669">
        <ele>5.2</ele>
        <time>2020-06-02T09:49:48Z</time>
      </trkpt>
      <trkpt lat="46.16366" lon="-1.11663">
        <ele>5.3</ele>
        <time>2020-06-02T09:49:49Z</time>
      </trkpt>
      <trkpt lat="46.16369" lon="-1.11656">
        <ele>5.3</ele>
        <time>2020-06-02T09:49:50Z</time>
      </trkpt>
      <trkpt lat="46.1637" lon="-1.11651">
        <ele>5.4</ele>
        <time>2020-06-02T09:49:51Z</time>
      </trkpt>
      <trkpt lat="46.16374" lon="-1.11646">
        <ele>5.4</ele>
        <time>2020-06-02T09:49:52Z</time>
      </trkpt>
      <trkpt lat="46.16377" lon="-1.11641">
        <ele>5.5</ele>
        <time>2020-06-02T09:49:53Z</time>
      </trkpt>
      <trkpt lat="46.1638" lon="-1.11637">
        <ele>5.5</ele>
        <time>2020-06-02T09:49:54Z</time>
      </trkpt>
      <trkpt lat="46.16382" lon="-1.11633">
        <ele>5.5</ele>
        <time>2020-06-02T09:49:55Z</time>
      </trkpt>
      <trkpt lat="46.16383" lon="-1.11628">
        <ele>5.5</ele>
        <time>2020-06-02T09:49:56Z</time>
      </trkpt>
      <trkpt lat="46.16384" lon="-1.11623">
        <ele>5.5</ele>
        <time>2020-06-02T09:49:57Z</time>
      </trkpt>
      <trkpt lat="46.16385" lon="-1.11618">
        <ele>5.5</ele>
        <time>2020-06-02T09:49:58Z</time>
      </trkpt>
      <trkpt lat="46.16386" lon="-1.11612">
        <ele>5.5</ele>
        <time>2020-06-02T09:49:59Z</time>
      </trkpt>
      <trkpt lat="46.16388" lon="-1.11607">
        <ele>5.5</ele>
        <time>2020-06-02T09:50:00Z</time>
      </trkpt>
      <trkpt lat="46.1639" lon="-1.11601">
        <ele>5.5</ele>
        <time>2020-06-02T09:50:01Z</time>
      </trkpt>
      <trkpt lat="46.16392" lon="-1.11595">
        <ele>5.5</ele>
        <time>2020-06-02T09:50:02Z</time>
      </trkpt>
      <trkpt lat="46.16394" lon="-1.1159">
        <ele>5.5</ele>
        <time>2020-06-02T09:50:03Z</time>
      </trkpt>
      <trkpt lat="46.16396" lon="-1.11584">
        <ele>5.5</ele>
        <time>2020-06-02T09:50:04Z</time>
      </trkpt>
      <trkpt lat="46.16399" lon="-1.11576">
        <ele>5.5</ele>
        <time>2020-06-02T09:50:05Z</time>
      </trkpt>
      <trkpt lat="46.16401" lon="-1.11569">
        <ele>5.5</ele>
        <time>2020-06-02T09:50:06Z</time>
      </trkpt>
      <trkpt lat="46.16403" lon="-1.11563">
        <ele>5.5</ele>
        <time>2020-06-02T09:50:07Z</time>
      </trkpt>
      <trkpt lat="46.16405" lon="-1.11558">
        <ele>5.4</ele>
        <time>2020-06-02T09:50:08Z</time>
      </trkpt>
      <trkpt lat="46.16407" lon="-1.11551">
        <ele>5.4</ele>
        <time>2020-06-02T09:50:09Z</time>
      </trkpt>
      <trkpt lat="46.1641" lon="-1.11544">
        <ele>5.4</ele>
        <time>2020-06-02T09:50:10Z</time>
      </trkpt>
      <trkpt lat="46.16412" lon="-1.11538">
        <ele>5.4</ele>
        <time>2020-06-02T09:50:11Z</time>
      </trkpt>
      <trkpt lat="46.16415" lon="-1.11531">
        <ele>5.4</ele>
        <time>2020-06-02T09:50:12Z</time>
      </trkpt>
      <trkpt lat="46.16417" lon="-1.11525">
        <ele>5.4</ele>
        <time>2020-06-02T09:50:13Z</time>
      </trkpt>
      <trkpt lat="46.16419" lon="-1.11518">
        <ele>5.3</ele>
        <time>2020-06-02T09:50:14Z</time>
      </trkpt>
      <trkpt lat="46.16422" lon="-1.11511">
        <ele>5.3</ele>
        <time>2020-06-02T09:50:15Z</time>
      </trkpt>
      <trkpt lat="46.16424" lon="-1.11505">
        <ele>5.3</ele>
        <time>2020-06-02T09:50:16Z</time>
      </trkpt>
      <trkpt lat="46.16427" lon="-1.11499">
        <ele>5.3</ele>
        <time>2020-06-02T09:50:17Z</time>
      </trkpt>
      <trkpt lat="46.16429" lon="-1.11493">
        <ele>5.3</ele>
        <time>2020-06-02T09:50:18Z</time>
      </trkpt>
      <trkpt lat="46.16432" lon="-1.11487">
        <ele>5.3</ele>
        <time>2020-06-02T09:50:19Z</time>
      </trkpt>
      <trkpt lat="46.16435" lon="-1.11481">
        <ele>5.2</ele>
        <time>2020-06-02T09:50:20Z</time>
      </trkpt>
      <trkpt lat="46.16437" lon="-1.11475">
        <ele>5.2</ele>
        <time>2020-06-02T09:50:21Z</time>
      </trkpt>
      <trkpt lat="46.16441" lon="-1.11468">
        <ele>5.2</ele>
        <time>2020-06-02T09:50:22Z</time>
      </trkpt>
      <trkpt lat="46.16444" lon="-1.11462">
        <ele>5.2</ele>
        <time>2020-06-02T09:50:23Z</time>
      </trkpt>
      <trkpt lat="46.16447" lon="-1.11455">
        <ele>5.3</ele>
        <time>2020-06-02T09:50:24Z</time>
      </trkpt>
      <trkpt lat="46.16449" lon="-1.11448">
        <ele>5.3</ele>
        <time>2020-06-02T09:50:25Z</time>
      </trkpt>
      <trkpt lat="46.16452" lon="-1.11443">
        <ele>5.4</ele>
        <time>2020-06-02T09:50:26Z</time>
      </trkpt>
      <trkpt lat="46.16454" lon="-1.11437">
        <ele>5.5</ele>
        <time>2020-06-02T09:50:27Z</time>
      </trkpt>
      <trkpt lat="46.16457" lon="-1.1143">
        <ele>5.6</ele>
        <time>2020-06-02T09:50:28Z</time>
      </trkpt>
      <trkpt lat="46.16459" lon="-1.11425">
        <ele>5.7</ele>
        <time>2020-06-02T09:50:29Z</time>
      </trkpt>
      <trkpt lat="46.16462" lon="-1.11418">
        <ele>5.9</ele>
        <time>2020-06-02T09:50:30Z</time>
      </trkpt>
      <trkpt lat="46.16465" lon="-1.11412">
        <ele>6</ele>
        <time>2020-06-02T09:50:31Z</time>
      </trkpt>
      <trkpt lat="46.16467" lon="-1.11406">
        <ele>6.1</ele>
        <time>2020-06-02T09:50:32Z</time>
      </trkpt>
      <trkpt lat="46.1647" lon="-1.11401">
        <ele>6.2</ele>
        <time>2020-06-02T09:50:33Z</time>
      </trkpt>
      <trkpt lat="46.16472" lon="-1.11395">
        <ele>6.3</ele>
        <time>2020-06-02T09:50:34Z</time>
      </trkpt>
      <trkpt lat="46.16474" lon="-1.1139">
        <ele>6.3</ele>
        <time>2020-06-02T09:50:35Z</time>
      </trkpt>
      <trkpt lat="46.16477" lon="-1.11385">
        <ele>6.3</ele>
        <time>2020-06-02T09:50:36Z</time>
      </trkpt>
      <trkpt lat="46.16479" lon="-1.1138">
        <ele>6.4</ele>
        <time>2020-06-02T09:50:37Z</time>
      </trkpt>
      <trkpt lat="46.16484" lon="-1.11375">
        <ele>6.4</ele>
        <time>2020-06-02T09:50:38Z</time>
      </trkpt>
      <trkpt lat="46.16487" lon="-1.1137">
        <ele>6.4</ele>
        <time>2020-06-02T09:50:39Z</time>
      </trkpt>
      <trkpt lat="46.16492" lon="-1.11364">
        <ele>6.4</ele>
        <time>2020-06-02T09:50:40Z</time>
      </trkpt>
      <trkpt lat="46.16495" lon="-1.11359">
        <ele>6.4</ele>
        <time>2020-06-02T09:50:41Z</time>
      </trkpt>
      <trkpt lat="46.16498" lon="-1.11352">
        <ele>6.4</ele>
        <time>2020-06-02T09:50:42Z</time>
      </trkpt>
      <trkpt lat="46.165" lon="-1.11347">
        <ele>6.4</ele>
        <time>2020-06-02T09:50:43Z</time>
      </trkpt>
      <trkpt lat="46.16503" lon="-1.11341">
        <ele>6.3</ele>
        <time>2020-06-02T09:50:44Z</time>
      </trkpt>
      <trkpt lat="46.16507" lon="-1.11336">
        <ele>6.3</ele>
        <time>2020-06-02T09:50:45Z</time>
      </trkpt>
      <trkpt lat="46.1651" lon="-1.1133">
        <ele>6.3</ele>
        <time>2020-06-02T09:50:46Z</time>
      </trkpt>
      <trkpt lat="46.16512" lon="-1.11324">
        <ele>6.3</ele>
        <time>2020-06-02T09:50:47Z</time>
      </trkpt>
      <trkpt lat="46.16515" lon="-1.11319">
        <ele>6.4</ele>
        <time>2020-06-02T09:50:48Z</time>
      </trkpt>
      <trkpt lat="46.16518" lon="-1.11314">
        <ele>6.4</ele>
        <time>2020-06-02T09:50:49Z</time>
      </trkpt>
      <trkpt lat="46.16521" lon="-1.11307">
        <ele>6.4</ele>
        <time>2020-06-02T09:50:50Z</time>
      </trkpt>
      <trkpt lat="46.16524" lon="-1.11301">
        <ele>6.4</ele>
        <time>2020-06-02T09:50:51Z</time>
      </trkpt>
      <trkpt lat="46.16528" lon="-1.11295">
        <ele>6.4</ele>
        <time>2020-06-02T09:50:52Z</time>
      </trkpt>
      <trkpt lat="46.1653" lon="-1.11289">
        <ele>6.5</ele>
        <time>2020-06-02T09:50:53Z</time>
      </trkpt>
      <trkpt lat="46.16534" lon="-1.11283">
        <ele>6.5</ele>
        <time>2020-06-02T09:50:54Z</time>
      </trkpt>
      <trkpt lat="46.16537" lon="-1.11276">
        <ele>6.5</ele>
        <time>2020-06-02T09:50:55Z</time>
      </trkpt>
      <trkpt lat="46.1654" lon="-1.1127">
        <ele>6.5</ele>
        <time>2020-06-02T09:50:56Z</time>
      </trkpt>
      <trkpt lat="46.16543" lon="-1.11264">
        <ele>6.5</ele>
        <time>2020-06-02T09:50:57Z</time>
      </trkpt>
      <trkpt lat="46.16546" lon="-1.11258">
        <ele>6.5</ele>
        <time>2020-06-02T09:50:58Z</time>
      </trkpt>
      <trkpt lat="46.16548" lon="-1.11252">
        <ele>6.5</ele>
        <time>2020-06-02T09:50:59Z</time>
      </trkpt>
      <trkpt lat="46.16551" lon="-1.11245">
        <ele>6.5</ele>
        <time>2020-06-02T09:51:00Z</time>
      </trkpt>
      <trkpt lat="46.16554" lon="-1.11239">
        <ele>6.5</ele>
        <time>2020-06-02T09:51:01Z</time>
      </trkpt>
      <trkpt lat="46.16556" lon="-1.11233">
        <ele>6.5</ele>
        <time>2020-06-02T09:51:02Z</time>
      </trkpt>
      <trkpt lat="46.16559" lon="-1.11227">
        <ele>6.6</ele>
        <time>2020-06-02T09:51:03Z</time>
      </trkpt>
      <trkpt lat="46.16562" lon="-1.11221">
        <ele>6.6</ele>
        <time>2020-06-02T09:51:04Z</time>
      </trkpt>
      <trkpt lat="46.16566" lon="-1.11216">
        <ele>6.6</ele>
        <time>2020-06-02T09:51:05Z</time>
      </trkpt>
      <trkpt lat="46.16568" lon="-1.1121">
        <ele>6.6</ele>
        <time>2020-06-02T09:51:06Z</time>
      </trkpt>
      <trkpt lat="46.1657" lon="-1.11205">
        <ele>6.6</ele>
        <time>2020-06-02T09:51:07Z</time>
      </trkpt>
      <trkpt lat="46.16573" lon="-1.11199">
        <ele>6.6</ele>
        <time>2020-06-02T09:51:08Z</time>
      </trkpt>
      <trkpt lat="46.16575" lon="-1.11194">
        <ele>6.6</ele>
        <time>2020-06-02T09:51:09Z</time>
      </trkpt>
      <trkpt lat="46.16578" lon="-1.11188">
        <ele>6.6</ele>
        <time>2020-06-02T09:51:10Z</time>
      </trkpt>
      <trkpt lat="46.1658" lon="-1.11183">
        <ele>6.6</ele>
        <time>2020-06-02T09:51:11Z</time>
      </trkpt>
      <trkpt lat="46.16584" lon="-1.11178">
        <ele>6.6</ele>
        <time>2020-06-02T09:51:12Z</time>
      </trkpt>
      <trkpt lat="46.16588" lon="-1.11174">
        <ele>6.6</ele>
        <time>2020-06-02T09:51:13Z</time>
      </trkpt>
      <trkpt lat="46.16591" lon="-1.1117">
        <ele>6.6</ele>
        <time>2020-06-02T09:51:14Z</time>
      </trkpt>
      <trkpt lat="46.16593" lon="-1.11167">
        <ele>6.6</ele>
        <time>2020-06-02T09:51:15Z</time>
      </trkpt>
      <trkpt lat="46.16595" lon="-1.11162">
        <ele>6.6</ele>
        <time>2020-06-02T09:51:16Z</time>
      </trkpt>
      <trkpt lat="46.16599" lon="-1.11157">
        <ele>6.7</ele>
        <time>2020-06-02T09:51:17Z</time>
      </trkpt>
      <trkpt lat="46.16603" lon="-1.11151">
        <ele>6.7</ele>
        <time>2020-06-02T09:51:18Z</time>
      </trkpt>
      <trkpt lat="46.16606" lon="-1.11144">
        <ele>6.7</ele>
        <time>2020-06-02T09:51:19Z</time>
      </trkpt>
      <trkpt lat="46.16609" lon="-1.11136">
        <ele>6.7</ele>
        <time>2020-06-02T09:51:20Z</time>
      </trkpt>
      <trkpt lat="46.16612" lon="-1.11128">
        <ele>6.7</ele>
        <time>2020-06-02T09:51:21Z</time>
      </trkpt>
      <trkpt lat="46.16615" lon="-1.11122">
        <ele>6.7</ele>
        <time>2020-06-02T09:51:22Z</time>
      </trkpt>
      <trkpt lat="46.16618" lon="-1.11117">
        <ele>6.8</ele>
        <time>2020-06-02T09:51:23Z</time>
      </trkpt>
      <trkpt lat="46.1662" lon="-1.11112">
        <ele>6.8</ele>
        <time>2020-06-02T09:51:24Z</time>
      </trkpt>
      <trkpt lat="46.16623" lon="-1.11106">
        <ele>6.8</ele>
        <time>2020-06-02T09:51:25Z</time>
      </trkpt>
      <trkpt lat="46.16626" lon="-1.11102">
        <ele>6.8</ele>
        <time>2020-06-02T09:51:26Z</time>
      </trkpt>
      <trkpt lat="46.1663" lon="-1.11098">
        <ele>6.9</ele>
        <time>2020-06-02T09:51:27Z</time>
      </trkpt>
      <trkpt lat="46.16635" lon="-1.11094">
        <ele>6.9</ele>
        <time>2020-06-02T09:51:28Z</time>
      </trkpt>
      <trkpt lat="46.16639" lon="-1.1109">
        <ele>7</ele>
        <time>2020-06-02T09:51:29Z</time>
      </trkpt>
      <trkpt lat="46.16642" lon="-1.11086">
        <ele>7.1</ele>
        <time>2020-06-02T09:51:30Z</time>
      </trkpt>
      <trkpt lat="46.16645" lon="-1.11082">
        <ele>7.2</ele>
        <time>2020-06-02T09:51:31Z</time>
      </trkpt>
      <trkpt lat="46.16648" lon="-1.11077">
        <ele>7.2</ele>
        <time>2020-06-02T09:51:32Z</time>
      </trkpt>
      <trkpt lat="46.16651" lon="-1.11072">
        <ele>7.3</ele>
        <time>2020-06-02T09:51:33Z</time>
      </trkpt>
      <trkpt lat="46.16653" lon="-1.11067">
        <ele>7.4</ele>
        <time>2020-06-02T09:51:34Z</time>
      </trkpt>
      <trkpt lat="46.16655" lon="-1.11062">
        <ele>7.5</ele>
        <time>2020-06-02T09:51:35Z</time>
      </trkpt>
      <trkpt lat="46.16658" lon="-1.11057">
        <ele>7.5</ele>
        <time>2020-06-02T09:51:36Z</time>
      </trkpt>
      <trkpt lat="46.1666" lon="-1.11051">
        <ele>7.6</ele>
        <time>2020-06-02T09:51:37Z</time>
      </trkpt>
      <trkpt lat="46.16663" lon="-1.11046">
        <ele>7.6</ele>
        <time>2020-06-02T09:51:38Z</time>
      </trkpt>
      <trkpt lat="46.16666" lon="-1.11041">
        <ele>7.7</ele>
        <time>2020-06-02T09:51:39Z</time>
      </trkpt>
      <trkpt lat="46.16668" lon="-1.11036">
        <ele>7.7</ele>
        <time>2020-06-02T09:51:40Z</time>
      </trkpt>
      <trkpt lat="46.1667" lon="-1.11031">
        <ele>7.7</ele>
        <time>2020-06-02T09:51:41Z</time>
      </trkpt>
      <trkpt lat="46.16674" lon="-1.11026">
        <ele>7.7</ele>
        <time>2020-06-02T09:51:42Z</time>
      </trkpt>
      <trkpt lat="46.16676" lon="-1.1102">
        <ele>7.8</ele>
        <time>2020-06-02T09:51:43Z</time>
      </trkpt>
      <trkpt lat="46.16678" lon="-1.11014">
        <ele>7.8</ele>
        <time>2020-06-02T09:51:44Z</time>
      </trkpt>
      <trkpt lat="46.1668" lon="-1.11009">
        <ele>7.8</ele>
        <time>2020-06-02T09:51:45Z</time>
      </trkpt>
      <trkpt lat="46.16681" lon="-1.11003">
        <ele>7.9</ele>
        <time>2020-06-02T09:51:46Z</time>
      </trkpt>
      <trkpt lat="46.16683" lon="-1.10997">
        <ele>7.9</ele>
        <time>2020-06-02T09:51:47Z</time>
      </trkpt>
      <trkpt lat="46.16685" lon="-1.10992">
        <ele>7.9</ele>
        <time>2020-06-02T09:51:48Z</time>
      </trkpt>
      <trkpt lat="46.16687" lon="-1.10988">
        <ele>7.9</ele>
        <time>2020-06-02T09:51:49Z</time>
      </trkpt>
      <trkpt lat="46.16688" lon="-1.10982">
        <ele>8</ele>
        <time>2020-06-02T09:51:50Z</time>
      </trkpt>
      <trkpt lat="46.1669" lon="-1.10976">
        <ele>8</ele>
        <time>2020-06-02T09:51:51Z</time>
      </trkpt>
      <trkpt lat="46.16691" lon="-1.10971">
        <ele>8</ele>
        <time>2020-06-02T09:51:52Z</time>
      </trkpt>
      <trkpt lat="46.16693" lon="-1.10967">
        <ele>8</ele>
        <time>2020-06-02T09:51:53Z</time>
      </trkpt>
      <trkpt lat="46.16697" lon="-1.10961">
        <ele>8</ele>
        <time>2020-06-02T09:51:54Z</time>
      </trkpt>
      <trkpt lat="46.16699" lon="-1.10956">
        <ele>8</ele>
        <time>2020-06-02T09:51:55Z</time>
      </trkpt>
      <trkpt lat="46.16703" lon="-1.1095">
        <ele>8.1</ele>
        <time>2020-06-02T09:51:56Z</time>
      </trkpt>
      <trkpt lat="46.16707" lon="-1.10945">
        <ele>8.1</ele>
        <time>2020-06-02T09:51:57Z</time>
      </trkpt>
      <trkpt lat="46.1671" lon="-1.1094">
        <ele>8.1</ele>
        <time>2020-06-02T09:51:58Z</time>
      </trkpt>
      <trkpt lat="46.16712" lon="-1.10934">
        <ele>8.1</ele>
        <time>2020-06-02T09:51:59Z</time>
      </trkpt>
      <trkpt lat="46.16714" lon="-1.1093">
        <ele>8.1</ele>
        <time>2020-06-02T09:52:00Z</time>
      </trkpt>
      <trkpt lat="46.16715" lon="-1.10929">
        <ele>8.1</ele>
        <time>2020-06-02T09:52:01Z</time>
      </trkpt>
      <trkpt lat="46.16716" lon="-1.10927">
        <ele>8.1</ele>
        <time>2020-06-02T09:52:02Z</time>
      </trkpt>
      <trkpt lat="46.16717" lon="-1.10924">
        <ele>8.1</ele>
        <time>2020-06-02T09:52:03Z</time>
      </trkpt>
      <trkpt lat="46.16718" lon="-1.10922">
        <ele>8.1</ele>
        <time>2020-06-02T09:52:04Z</time>
      </trkpt>
      <trkpt lat="46.16718" lon="-1.10918">
        <ele>8.1</ele>
        <time>2020-06-02T09:52:05Z</time>
      </trkpt>
      <trkpt lat="46.16719" lon="-1.10917">
        <ele>8</ele>
        <time>2020-06-02T09:52:06Z</time>
      </trkpt>
      <trkpt lat="46.16719" lon="-1.10911">
        <ele>8</ele>
        <time>2020-06-02T09:52:07Z</time>
      </trkpt>
      <trkpt lat="46.1672" lon="-1.1091">
        <ele>8</ele>
        <time>2020-06-02T09:52:08Z</time>
      </trkpt>
      <trkpt lat="46.1672" lon="-1.10906">
        <ele>8</ele>
        <time>2020-06-02T09:52:09Z</time>
      </trkpt>
      <trkpt lat="46.16721" lon="-1.10905">
        <ele>8.1</ele>
        <time>2020-06-02T09:52:10Z</time>
      </trkpt>
      <trkpt lat="46.16722" lon="-1.109">
        <ele>8.1</ele>
        <time>2020-06-02T09:52:11Z</time>
      </trkpt>
      <trkpt lat="46.16722" lon="-1.10899">
        <ele>8.1</ele>
        <time>2020-06-02T09:52:12Z</time>
      </trkpt>
      <trkpt lat="46.16724" lon="-1.10895">
        <ele>8.1</ele>
        <time>2020-06-02T09:52:13Z</time>
      </trkpt>
      <trkpt lat="46.16724" lon="-1.10894">
        <ele>8.1</ele>
        <time>2020-06-02T09:52:14Z</time>
      </trkpt>
      <trkpt lat="46.16727" lon="-1.10889">
        <ele>8.1</ele>
        <time>2020-06-02T09:52:15Z</time>
      </trkpt>
      <trkpt lat="46.16728" lon="-1.10887">
        <ele>8.1</ele>
        <time>2020-06-02T09:52:16Z</time>
      </trkpt>
      <trkpt lat="46.16731" lon="-1.10883">
        <ele>8.1</ele>
        <time>2020-06-02T09:52:17Z</time>
      </trkpt>
      <trkpt lat="46.16734" lon="-1.10877">
        <ele>8.1</ele>
        <time>2020-06-02T09:52:18Z</time>
      </trkpt>
      <trkpt lat="46.16737" lon="-1.10871">
        <ele>8.1</ele>
        <time>2020-06-02T09:52:19Z</time>
      </trkpt>
      <trkpt lat="46.16739" lon="-1.10867">
        <ele>8</ele>
        <time>2020-06-02T09:52:20Z</time>
      </trkpt>
      <trkpt lat="46.1674" lon="-1.10863">
        <ele>8</ele>
        <time>2020-06-02T09:52:21Z</time>
      </trkpt>
      <trkpt lat="46.16742" lon="-1.10859">
        <ele>8</ele>
        <time>2020-06-02T09:52:22Z</time>
      </trkpt>
      <trkpt lat="46.16744" lon="-1.10855">
        <ele>8</ele>
        <time>2020-06-02T09:52:23Z</time>
      </trkpt>
      <trkpt lat="46.16746" lon="-1.10849">
        <ele>8</ele>
        <time>2020-06-02T09:52:24Z</time>
      </trkpt>
      <trkpt lat="46.16749" lon="-1.10843">
        <ele>8</ele>
        <time>2020-06-02T09:52:25Z</time>
      </trkpt>
      <trkpt lat="46.16751" lon="-1.10838">
        <ele>8</ele>
        <time>2020-06-02T09:52:26Z</time>
      </trkpt>
      <trkpt lat="46.16753" lon="-1.10834">
        <ele>8</ele>
        <time>2020-06-02T09:52:27Z</time>
      </trkpt>
      <trkpt lat="46.16755" lon="-1.10829">
        <ele>8</ele>
        <time>2020-06-02T09:52:28Z</time>
      </trkpt>
      <trkpt lat="46.16757" lon="-1.10825">
        <ele>8</ele>
        <time>2020-06-02T09:52:29Z</time>
      </trkpt>
      <trkpt lat="46.16759" lon="-1.1082">
        <ele>8</ele>
        <time>2020-06-02T09:52:30Z</time>
      </trkpt>
      <trkpt lat="46.16761" lon="-1.10815">
        <ele>8</ele>
        <time>2020-06-02T09:52:31Z</time>
      </trkpt>
      <trkpt lat="46.16764" lon="-1.1081">
        <ele>8</ele>
        <time>2020-06-02T09:52:32Z</time>
      </trkpt>
      <trkpt lat="46.16767" lon="-1.10806">
        <ele>8</ele>
        <time>2020-06-02T09:52:33Z</time>
      </trkpt>
      <trkpt lat="46.16769" lon="-1.10801">
        <ele>8</ele>
        <time>2020-06-02T09:52:34Z</time>
      </trkpt>
      <trkpt lat="46.16771" lon="-1.10797">
        <ele>8</ele>
        <time>2020-06-02T09:52:35Z</time>
      </trkpt>
      <trkpt lat="46.16773" lon="-1.10791">
        <ele>7.9</ele>
        <time>2020-06-02T09:52:36Z</time>
      </trkpt>
      <trkpt lat="46.16776" lon="-1.10785">
        <ele>7.9</ele>
        <time>2020-06-02T09:52:37Z</time>
      </trkpt>
      <trkpt lat="46.16779" lon="-1.10781">
        <ele>7.9</ele>
        <time>2020-06-02T09:52:38Z</time>
      </trkpt>
      <trkpt lat="46.16782" lon="-1.10776">
        <ele>7.9</ele>
        <time>2020-06-02T09:52:39Z</time>
      </trkpt>
      <trkpt lat="46.16784" lon="-1.10772">
        <ele>7.9</ele>
        <time>2020-06-02T09:52:40Z</time>
      </trkpt>
      <trkpt lat="46.16786" lon="-1.10767">
        <ele>7.9</ele>
        <time>2020-06-02T09:52:41Z</time>
      </trkpt>
      <trkpt lat="46.16789" lon="-1.10763">
        <ele>7.9</ele>
        <time>2020-06-02T09:52:42Z</time>
      </trkpt>
      <trkpt lat="46.16792" lon="-1.10758">
        <ele>7.9</ele>
        <time>2020-06-02T09:52:43Z</time>
      </trkpt>
      <trkpt lat="46.16795" lon="-1.10753">
        <ele>7.9</ele>
        <time>2020-06-02T09:52:44Z</time>
      </trkpt>
      <trkpt lat="46.16798" lon="-1.10749">
        <ele>7.9</ele>
        <time>2020-06-02T09:52:45Z</time>
      </trkpt>
      <trkpt lat="46.168" lon="-1.10744">
        <ele>7.9</ele>
        <time>2020-06-02T09:52:46Z</time>
      </trkpt>
      <trkpt lat="46.16802" lon="-1.10739">
        <ele>8</ele>
        <time>2020-06-02T09:52:47Z</time>
      </trkpt>
      <trkpt lat="46.16805" lon="-1.10733">
        <ele>8</ele>
        <time>2020-06-02T09:52:48Z</time>
      </trkpt>
      <trkpt lat="46.16809" lon="-1.10729">
        <ele>8</ele>
        <time>2020-06-02T09:52:49Z</time>
      </trkpt>
      <trkpt lat="46.16812" lon="-1.10724">
        <ele>8</ele>
        <time>2020-06-02T09:52:50Z</time>
      </trkpt>
      <trkpt lat="46.16815" lon="-1.1072">
        <ele>8</ele>
        <time>2020-06-02T09:52:51Z</time>
      </trkpt>
      <trkpt lat="46.16817" lon="-1.10715">
        <ele>8</ele>
        <time>2020-06-02T09:52:52Z</time>
      </trkpt>
      <trkpt lat="46.16819" lon="-1.1071">
        <ele>8</ele>
        <time>2020-06-02T09:52:53Z</time>
      </trkpt>
      <trkpt lat="46.16822" lon="-1.10704">
        <ele>8</ele>
        <time>2020-06-02T09:52:54Z</time>
      </trkpt>
      <trkpt lat="46.16824" lon="-1.10698">
        <ele>8</ele>
        <time>2020-06-02T09:52:55Z</time>
      </trkpt>
      <trkpt lat="46.16827" lon="-1.10693">
        <ele>8</ele>
        <time>2020-06-02T09:52:56Z</time>
      </trkpt>
      <trkpt lat="46.1683" lon="-1.10688">
        <ele>8</ele>
        <time>2020-06-02T09:52:57Z</time>
      </trkpt>
      <trkpt lat="46.16833" lon="-1.10682">
        <ele>8</ele>
        <time>2020-06-02T09:52:58Z</time>
      </trkpt>
      <trkpt lat="46.16835" lon="-1.10678">
        <ele>8</ele>
        <time>2020-06-02T09:52:59Z</time>
      </trkpt>
      <trkpt lat="46.16837" lon="-1.10674">
        <ele>8</ele>
        <time>2020-06-02T09:53:00Z</time>
      </trkpt>
      <trkpt lat="46.16841" lon="-1.10669">
        <ele>8</ele>
        <time>2020-06-02T09:53:01Z</time>
      </trkpt>
      <trkpt lat="46.16844" lon="-1.10664">
        <ele>8</ele>
        <time>2020-06-02T09:53:02Z</time>
      </trkpt>
      <trkpt lat="46.16847" lon="-1.10659">
        <ele>8</ele>
        <time>2020-06-02T09:53:03Z</time>
      </trkpt>
      <trkpt lat="46.16849" lon="-1.10654">
        <ele>7.9</ele>
        <time>2020-06-02T09:53:04Z</time>
      </trkpt>
      <trkpt lat="46.16852" lon="-1.10649">
        <ele>7.9</ele>
        <time>2020-06-02T09:53:05Z</time>
      </trkpt>
      <trkpt lat="46.16855" lon="-1.10643">
        <ele>7.9</ele>
        <time>2020-06-02T09:53:06Z</time>
      </trkpt>
      <trkpt lat="46.16858" lon="-1.10638">
        <ele>7.9</ele>
        <time>2020-06-02T09:53:07Z</time>
      </trkpt>
      <trkpt lat="46.1686" lon="-1.10633">
        <ele>7.9</ele>
        <time>2020-06-02T09:53:08Z</time>
      </trkpt>
      <trkpt lat="46.16863" lon="-1.1063">
        <ele>7.9</ele>
        <time>2020-06-02T09:53:09Z</time>
      </trkpt>
      <trkpt lat="46.16865" lon="-1.10625">
        <ele>7.9</ele>
        <time>2020-06-02T09:53:10Z</time>
      </trkpt>
      <trkpt lat="46.16867" lon="-1.10621">
        <ele>8</ele>
        <time>2020-06-02T09:53:11Z</time>
      </trkpt>
      <trkpt lat="46.16869" lon="-1.10616">
        <ele>8</ele>
        <time>2020-06-02T09:53:12Z</time>
      </trkpt>
      <trkpt lat="46.16871" lon="-1.10611">
        <ele>8</ele>
        <time>2020-06-02T09:53:13Z</time>
      </trkpt>
      <trkpt lat="46.16873" lon="-1.10606">
        <ele>8</ele>
        <time>2020-06-02T09:53:14Z</time>
      </trkpt>
      <trkpt lat="46.16875" lon="-1.10602">
        <ele>8</ele>
        <time>2020-06-02T09:53:15Z</time>
      </trkpt>
      <trkpt lat="46.16878" lon="-1.10597">
        <ele>8</ele>
        <time>2020-06-02T09:53:16Z</time>
      </trkpt>
      <trkpt lat="46.16881" lon="-1.10592">
        <ele>8.1</ele>
        <time>2020-06-02T09:53:17Z</time>
      </trkpt>
      <trkpt lat="46.16884" lon="-1.10585">
        <ele>8.1</ele>
        <time>2020-06-02T09:53:18Z</time>
      </trkpt>
      <trkpt lat="46.16887" lon="-1.1058">
        <ele>8.1</ele>
        <time>2020-06-02T09:53:19Z</time>
      </trkpt>
      <trkpt lat="46.1689" lon="-1.10575">
        <ele>8.1</ele>
        <time>2020-06-02T09:53:20Z</time>
      </trkpt>
      <trkpt lat="46.16893" lon="-1.10571">
        <ele>8.2</ele>
        <time>2020-06-02T09:53:21Z</time>
      </trkpt>
      <trkpt lat="46.16895" lon="-1.10566">
        <ele>8.2</ele>
        <time>2020-06-02T09:53:22Z</time>
      </trkpt>
      <trkpt lat="46.16898" lon="-1.10561">
        <ele>8.2</ele>
        <time>2020-06-02T09:53:23Z</time>
      </trkpt>
      <trkpt lat="46.16901" lon="-1.10556">
        <ele>8.2</ele>
        <time>2020-06-02T09:53:24Z</time>
      </trkpt>
      <trkpt lat="46.16904" lon="-1.10551">
        <ele>8.3</ele>
        <time>2020-06-02T09:53:25Z</time>
      </trkpt>
      <trkpt lat="46.16907" lon="-1.10545">
        <ele>8.3</ele>
        <time>2020-06-02T09:53:26Z</time>
      </trkpt>
      <trkpt lat="46.16909" lon="-1.10538">
        <ele>8.3</ele>
        <time>2020-06-02T09:53:27Z</time>
      </trkpt>
      <trkpt lat="46.16912" lon="-1.10532">
        <ele>8.3</ele>
        <time>2020-06-02T09:53:28Z</time>
      </trkpt>
      <trkpt lat="46.16915" lon="-1.10526">
        <ele>8.3</ele>
        <time>2020-06-02T09:53:29Z</time>
      </trkpt>
      <trkpt lat="46.16918" lon="-1.10522">
        <ele>8.3</ele>
        <time>2020-06-02T09:53:30Z</time>
      </trkpt>
      <trkpt lat="46.16919" lon="-1.10518">
        <ele>8.3</ele>
        <time>2020-06-02T09:53:31Z</time>
      </trkpt>
      <trkpt lat="46.1692" lon="-1.10514">
        <ele>8.3</ele>
        <time>2020-06-02T09:53:32Z</time>
      </trkpt>
      <trkpt lat="46.16921" lon="-1.10513">
        <ele>8.3</ele>
        <time>2020-06-02T09:53:33Z</time>
      </trkpt>
      <trkpt lat="46.16922" lon="-1.10508">
        <ele>8.3</ele>
        <time>2020-06-02T09:53:34Z</time>
      </trkpt>
      <trkpt lat="46.16923" lon="-1.10506">
        <ele>8.3</ele>
        <time>2020-06-02T09:53:35Z</time>
      </trkpt>
      <trkpt lat="46.16924" lon="-1.10501">
        <ele>8.3</ele>
        <time>2020-06-02T09:53:36Z</time>
      </trkpt>
      <trkpt lat="46.16927" lon="-1.10496">
        <ele>8.3</ele>
        <time>2020-06-02T09:53:37Z</time>
      </trkpt>
      <trkpt lat="46.16929" lon="-1.10489">
        <ele>8.3</ele>
        <time>2020-06-02T09:53:38Z</time>
      </trkpt>
      <trkpt lat="46.16932" lon="-1.10484">
        <ele>8.3</ele>
        <time>2020-06-02T09:53:39Z</time>
      </trkpt>
      <trkpt lat="46.16934" lon="-1.10478">
        <ele>8.3</ele>
        <time>2020-06-02T09:53:40Z</time>
      </trkpt>
      <trkpt lat="46.16936" lon="-1.10472">
        <ele>8.3</ele>
        <time>2020-06-02T09:53:41Z</time>
      </trkpt>
      <trkpt lat="46.16938" lon="-1.10467">
        <ele>8.3</ele>
        <time>2020-06-02T09:53:42Z</time>
      </trkpt>
      <trkpt lat="46.1694" lon="-1.10461">
        <ele>8.3</ele>
        <time>2020-06-02T09:53:43Z</time>
      </trkpt>
      <trkpt lat="46.16942" lon="-1.10456">
        <ele>8.3</ele>
        <time>2020-06-02T09:53:44Z</time>
      </trkpt>
      <trkpt lat="46.16943" lon="-1.10451">
        <ele>8.4</ele>
        <time>2020-06-02T09:53:45Z</time>
      </trkpt>
      <trkpt lat="46.16945" lon="-1.10446">
        <ele>8.4</ele>
        <time>2020-06-02T09:53:46Z</time>
      </trkpt>
      <trkpt lat="46.16948" lon="-1.10441">
        <ele>8.4</ele>
        <time>2020-06-02T09:53:47Z</time>
      </trkpt>
      <trkpt lat="46.1695" lon="-1.10436">
        <ele>8.4</ele>
        <time>2020-06-02T09:53:48Z</time>
      </trkpt>
      <trkpt lat="46.16952" lon="-1.1043">
        <ele>8.5</ele>
        <time>2020-06-02T09:53:49Z</time>
      </trkpt>
      <trkpt lat="46.16953" lon="-1.10424">
        <ele>8.5</ele>
        <time>2020-06-02T09:53:50Z</time>
      </trkpt>
      <trkpt lat="46.16954" lon="-1.10418">
        <ele>8.5</ele>
        <time>2020-06-02T09:53:51Z</time>
      </trkpt>
      <trkpt lat="46.16955" lon="-1.10412">
        <ele>8.6</ele>
        <time>2020-06-02T09:53:52Z</time>
      </trkpt>
      <trkpt lat="46.16955" lon="-1.10406">
        <ele>8.6</ele>
        <time>2020-06-02T09:53:53Z</time>
      </trkpt>
      <trkpt lat="46.16956" lon="-1.104">
        <ele>8.6</ele>
        <time>2020-06-02T09:53:54Z</time>
      </trkpt>
      <trkpt lat="46.16957" lon="-1.10393">
        <ele>8.7</ele>
        <time>2020-06-02T09:53:55Z</time>
      </trkpt>
      <trkpt lat="46.16958" lon="-1.10386">
        <ele>8.7</ele>
        <time>2020-06-02T09:53:56Z</time>
      </trkpt>
      <trkpt lat="46.16959" lon="-1.1038">
        <ele>8.8</ele>
        <time>2020-06-02T09:53:57Z</time>
      </trkpt>
      <trkpt lat="46.1696" lon="-1.10375">
        <ele>8.8</ele>
        <time>2020-06-02T09:53:58Z</time>
      </trkpt>
      <trkpt lat="46.1696" lon="-1.1037">
        <ele>8.9</ele>
        <time>2020-06-02T09:53:59Z</time>
      </trkpt>
      <trkpt lat="46.16961" lon="-1.10366">
        <ele>8.9</ele>
        <time>2020-06-02T09:54:00Z</time>
      </trkpt>
      <trkpt lat="46.16963" lon="-1.1036">
        <ele>9</ele>
        <time>2020-06-02T09:54:01Z</time>
      </trkpt>
      <trkpt lat="46.16965" lon="-1.10353">
        <ele>9</ele>
        <time>2020-06-02T09:54:02Z</time>
      </trkpt>
      <trkpt lat="46.16967" lon="-1.10345">
        <ele>9.1</ele>
        <time>2020-06-02T09:54:03Z</time>
      </trkpt>
      <trkpt lat="46.16968" lon="-1.10338">
        <ele>9.1</ele>
        <time>2020-06-02T09:54:04Z</time>
      </trkpt>
      <trkpt lat="46.16969" lon="-1.10331">
        <ele>9.2</ele>
        <time>2020-06-02T09:54:05Z</time>
      </trkpt>
      <trkpt lat="46.1697" lon="-1.10323">
        <ele>9.2</ele>
        <time>2020-06-02T09:54:06Z</time>
      </trkpt>
      <trkpt lat="46.16971" lon="-1.10316">
        <ele>9.3</ele>
        <time>2020-06-02T09:54:07Z</time>
      </trkpt>
      <trkpt lat="46.16972" lon="-1.10309">
        <ele>9.3</ele>
        <time>2020-06-02T09:54:08Z</time>
      </trkpt>
      <trkpt lat="46.16972" lon="-1.10302">
        <ele>9.3</ele>
        <time>2020-06-02T09:54:09Z</time>
      </trkpt>
      <trkpt lat="46.16972" lon="-1.10296">
        <ele>9.3</ele>
        <time>2020-06-02T09:54:10Z</time>
      </trkpt>
      <trkpt lat="46.16972" lon="-1.1029">
        <ele>9.4</ele>
        <time>2020-06-02T09:54:11Z</time>
      </trkpt>
      <trkpt lat="46.16972" lon="-1.10285">
        <ele>9.4</ele>
        <time>2020-06-02T09:54:12Z</time>
      </trkpt>
      <trkpt lat="46.16972" lon="-1.10278">
        <ele>9.4</ele>
        <time>2020-06-02T09:54:13Z</time>
      </trkpt>
      <trkpt lat="46.16972" lon="-1.10273">
        <ele>9.4</ele>
        <time>2020-06-02T09:54:14Z</time>
      </trkpt>
      <trkpt lat="46.16973" lon="-1.10267">
        <ele>9.4</ele>
        <time>2020-06-02T09:54:15Z</time>
      </trkpt>
      <trkpt lat="46.16973" lon="-1.10259">
        <ele>9.3</ele>
        <time>2020-06-02T09:54:16Z</time>
      </trkpt>
      <trkpt lat="46.16973" lon="-1.10251">
        <ele>9.3</ele>
        <time>2020-06-02T09:54:17Z</time>
      </trkpt>
      <trkpt lat="46.16973" lon="-1.10244">
        <ele>9.3</ele>
        <time>2020-06-02T09:54:18Z</time>
      </trkpt>
      <trkpt lat="46.16972" lon="-1.10237">
        <ele>9.3</ele>
        <time>2020-06-02T09:54:19Z</time>
      </trkpt>
      <trkpt lat="46.16972" lon="-1.10231">
        <ele>9.3</ele>
        <time>2020-06-02T09:54:20Z</time>
      </trkpt>
      <trkpt lat="46.16971" lon="-1.10224">
        <ele>9.3</ele>
        <time>2020-06-02T09:54:21Z</time>
      </trkpt>
      <trkpt lat="46.16971" lon="-1.10218">
        <ele>9.3</ele>
        <time>2020-06-02T09:54:22Z</time>
      </trkpt>
      <trkpt lat="46.1697" lon="-1.10211">
        <ele>9.4</ele>
        <time>2020-06-02T09:54:23Z</time>
      </trkpt>
      <trkpt lat="46.1697" lon="-1.10204">
        <ele>9.4</ele>
        <time>2020-06-02T09:54:24Z</time>
      </trkpt>
      <trkpt lat="46.16968" lon="-1.10197">
        <ele>9.4</ele>
        <time>2020-06-02T09:54:25Z</time>
      </trkpt>
      <trkpt lat="46.16966" lon="-1.10189">
        <ele>9.5</ele>
        <time>2020-06-02T09:54:26Z</time>
      </trkpt>
      <trkpt lat="46.16965" lon="-1.10182">
        <ele>9.5</ele>
        <time>2020-06-02T09:54:27Z</time>
      </trkpt>
      <trkpt lat="46.16964" lon="-1.10176">
        <ele>9.5</ele>
        <time>2020-06-02T09:54:28Z</time>
      </trkpt>
      <trkpt lat="46.16962" lon="-1.10169">
        <ele>9.6</ele>
        <time>2020-06-02T09:54:29Z</time>
      </trkpt>
      <trkpt lat="46.16961" lon="-1.10161">
        <ele>9.6</ele>
        <time>2020-06-02T09:54:30Z</time>
      </trkpt>
      <trkpt lat="46.16961" lon="-1.10153">
        <ele>9.6</ele>
        <time>2020-06-02T09:54:31Z</time>
      </trkpt>
      <trkpt lat="46.16961" lon="-1.10145">
        <ele>9.7</ele>
        <time>2020-06-02T09:54:32Z</time>
      </trkpt>
      <trkpt lat="46.1696" lon="-1.10137">
        <ele>9.7</ele>
        <time>2020-06-02T09:54:33Z</time>
      </trkpt>
      <trkpt lat="46.16958" lon="-1.1013">
        <ele>9.7</ele>
        <time>2020-06-02T09:54:34Z</time>
      </trkpt>
      <trkpt lat="46.16957" lon="-1.10124">
        <ele>9.7</ele>
        <time>2020-06-02T09:54:35Z</time>
      </trkpt>
      <trkpt lat="46.16956" lon="-1.10116">
        <ele>9.7</ele>
        <time>2020-06-02T09:54:36Z</time>
      </trkpt>
      <trkpt lat="46.16954" lon="-1.10108">
        <ele>9.8</ele>
        <time>2020-06-02T09:54:37Z</time>
      </trkpt>
      <trkpt lat="46.16952" lon="-1.10101">
        <ele>9.8</ele>
        <time>2020-06-02T09:54:38Z</time>
      </trkpt>
      <trkpt lat="46.16951" lon="-1.10095">
        <ele>9.8</ele>
        <time>2020-06-02T09:54:39Z</time>
      </trkpt>
      <trkpt lat="46.1695" lon="-1.10088">
        <ele>9.8</ele>
        <time>2020-06-02T09:54:40Z</time>
      </trkpt>
      <trkpt lat="46.16949" lon="-1.1008">
        <ele>9.8</ele>
        <time>2020-06-02T09:54:41Z</time>
      </trkpt>
      <trkpt lat="46.16948" lon="-1.10073">
        <ele>9.9</ele>
        <time>2020-06-02T09:54:42Z</time>
      </trkpt>
      <trkpt lat="46.16947" lon="-1.10065">
        <ele>9.9</ele>
        <time>2020-06-02T09:54:43Z</time>
      </trkpt>
      <trkpt lat="46.16946" lon="-1.10058">
        <ele>9.9</ele>
        <time>2020-06-02T09:54:44Z</time>
      </trkpt>
      <trkpt lat="46.16944" lon="-1.10051">
        <ele>10</ele>
        <time>2020-06-02T09:54:45Z</time>
      </trkpt>
      <trkpt lat="46.16943" lon="-1.10044">
        <ele>10</ele>
        <time>2020-06-02T09:54:46Z</time>
      </trkpt>
      <trkpt lat="46.16941" lon="-1.10037">
        <ele>10</ele>
        <time>2020-06-02T09:54:47Z</time>
      </trkpt>
      <trkpt lat="46.1694" lon="-1.10029">
        <ele>10</ele>
        <time>2020-06-02T09:54:48Z</time>
      </trkpt>
      <trkpt lat="46.16939" lon="-1.10023">
        <ele>10</ele>
        <time>2020-06-02T09:54:49Z</time>
      </trkpt>
      <trkpt lat="46.16938" lon="-1.10015">
        <ele>10</ele>
        <time>2020-06-02T09:54:50Z</time>
      </trkpt>
      <trkpt lat="46.16938" lon="-1.10008">
        <ele>10</ele>
        <time>2020-06-02T09:54:51Z</time>
      </trkpt>
      <trkpt lat="46.16937" lon="-1.10001">
        <ele>10.1</ele>
        <time>2020-06-02T09:54:52Z</time>
      </trkpt>
      <trkpt lat="46.16936" lon="-1.09993">
        <ele>10.1</ele>
        <time>2020-06-02T09:54:53Z</time>
      </trkpt>
      <trkpt lat="46.16935" lon="-1.09986">
        <ele>10.2</ele>
        <time>2020-06-02T09:54:54Z</time>
      </trkpt>
      <trkpt lat="46.16935" lon="-1.09979">
        <ele>10.2</ele>
        <time>2020-06-02T09:54:55Z</time>
      </trkpt>
      <trkpt lat="46.16933" lon="-1.09973">
        <ele>10.3</ele>
        <time>2020-06-02T09:54:56Z</time>
      </trkpt>
      <trkpt lat="46.16931" lon="-1.09966">
        <ele>10.3</ele>
        <time>2020-06-02T09:54:57Z</time>
      </trkpt>
      <trkpt lat="46.1693" lon="-1.09959">
        <ele>10.3</ele>
        <time>2020-06-02T09:54:58Z</time>
      </trkpt>
      <trkpt lat="46.16928" lon="-1.09951">
        <ele>10.3</ele>
        <time>2020-06-02T09:54:59Z</time>
      </trkpt>
      <trkpt lat="46.16926" lon="-1.09945">
        <ele>10.3</ele>
        <time>2020-06-02T09:55:00Z</time>
      </trkpt>
      <trkpt lat="46.16924" lon="-1.09939">
        <ele>10.3</ele>
        <time>2020-06-02T09:55:01Z</time>
      </trkpt>
      <trkpt lat="46.16922" lon="-1.09933">
        <ele>10.3</ele>
        <time>2020-06-02T09:55:02Z</time>
      </trkpt>
      <trkpt lat="46.16921" lon="-1.09925">
        <ele>10.4</ele>
        <time>2020-06-02T09:55:03Z</time>
      </trkpt>
      <trkpt lat="46.1692" lon="-1.09918">
        <ele>10.4</ele>
        <time>2020-06-02T09:55:04Z</time>
      </trkpt>
      <trkpt lat="46.16918" lon="-1.09911">
        <ele>10.4</ele>
        <time>2020-06-02T09:55:05Z</time>
      </trkpt>
      <trkpt lat="46.16916" lon="-1.09904">
        <ele>10.4</ele>
        <time>2020-06-02T09:55:06Z</time>
      </trkpt>
      <trkpt lat="46.16915" lon="-1.09897">
        <ele>10.4</ele>
        <time>2020-06-02T09:55:07Z</time>
      </trkpt>
      <trkpt lat="46.16914" lon="-1.09891">
        <ele>10.5</ele>
        <time>2020-06-02T09:55:08Z</time>
      </trkpt>
      <trkpt lat="46.16912" lon="-1.09884">
        <ele>10.5</ele>
        <time>2020-06-02T09:55:09Z</time>
      </trkpt>
      <trkpt lat="46.16911" lon="-1.09877">
        <ele>10.5</ele>
        <time>2020-06-02T09:55:10Z</time>
      </trkpt>
      <trkpt lat="46.16909" lon="-1.09869">
        <ele>10.6</ele>
        <time>2020-06-02T09:55:11Z</time>
      </trkpt>
      <trkpt lat="46.16907" lon="-1.09862">
        <ele>10.6</ele>
        <time>2020-06-02T09:55:12Z</time>
      </trkpt>
      <trkpt lat="46.16906" lon="-1.09855">
        <ele>10.6</ele>
        <time>2020-06-02T09:55:13Z</time>
      </trkpt>
      <trkpt lat="46.16904" lon="-1.09848">
        <ele>10.7</ele>
        <time>2020-06-02T09:55:14Z</time>
      </trkpt>
      <trkpt lat="46.16903" lon="-1.09841">
        <ele>10.7</ele>
        <time>2020-06-02T09:55:15Z</time>
      </trkpt>
      <trkpt lat="46.16901" lon="-1.09834">
        <ele>10.7</ele>
        <time>2020-06-02T09:55:16Z</time>
      </trkpt>
      <trkpt lat="46.16899" lon="-1.09827">
        <ele>10.8</ele>
        <time>2020-06-02T09:55:17Z</time>
      </trkpt>
      <trkpt lat="46.16898" lon="-1.0982">
        <ele>10.8</ele>
        <time>2020-06-02T09:55:18Z</time>
      </trkpt>
      <trkpt lat="46.16897" lon="-1.09814">
        <ele>10.8</ele>
        <time>2020-06-02T09:55:19Z</time>
      </trkpt>
      <trkpt lat="46.16896" lon="-1.09807">
        <ele>10.8</ele>
        <time>2020-06-02T09:55:20Z</time>
      </trkpt>
      <trkpt lat="46.16896" lon="-1.09801">
        <ele>10.9</ele>
        <time>2020-06-02T09:55:21Z</time>
      </trkpt>
      <trkpt lat="46.16895" lon="-1.09794">
        <ele>10.9</ele>
        <time>2020-06-02T09:55:22Z</time>
      </trkpt>
      <trkpt lat="46.16894" lon="-1.09786">
        <ele>10.9</ele>
        <time>2020-06-02T09:55:23Z</time>
      </trkpt>
      <trkpt lat="46.16893" lon="-1.09779">
        <ele>11</ele>
        <time>2020-06-02T09:55:24Z</time>
      </trkpt>
      <trkpt lat="46.16893" lon="-1.09772">
        <ele>11</ele>
        <time>2020-06-02T09:55:25Z</time>
      </trkpt>
      <trkpt lat="46.16892" lon="-1.09764">
        <ele>11</ele>
        <time>2020-06-02T09:55:26Z</time>
      </trkpt>
      <trkpt lat="46.16891" lon="-1.09757">
        <ele>11.1</ele>
        <time>2020-06-02T09:55:27Z</time>
      </trkpt>
      <trkpt lat="46.16889" lon="-1.0975">
        <ele>11.1</ele>
        <time>2020-06-02T09:55:28Z</time>
      </trkpt>
      <trkpt lat="46.16888" lon="-1.09742">
        <ele>11.1</ele>
        <time>2020-06-02T09:55:29Z</time>
      </trkpt>
      <trkpt lat="46.16886" lon="-1.09735">
        <ele>11.1</ele>
        <time>2020-06-02T09:55:30Z</time>
      </trkpt>
      <trkpt lat="46.16885" lon="-1.09729">
        <ele>11.1</ele>
        <time>2020-06-02T09:55:31Z</time>
      </trkpt>
      <trkpt lat="46.16884" lon="-1.09722">
        <ele>11.1</ele>
        <time>2020-06-02T09:55:32Z</time>
      </trkpt>
      <trkpt lat="46.16882" lon="-1.09715">
        <ele>11.2</ele>
        <time>2020-06-02T09:55:33Z</time>
      </trkpt>
      <trkpt lat="46.16881" lon="-1.09708">
        <ele>11.2</ele>
        <time>2020-06-02T09:55:34Z</time>
      </trkpt>
      <trkpt lat="46.1688" lon="-1.09701">
        <ele>11.2</ele>
        <time>2020-06-02T09:55:35Z</time>
      </trkpt>
      <trkpt lat="46.16879" lon="-1.09693">
        <ele>11.2</ele>
        <time>2020-06-02T09:55:36Z</time>
      </trkpt>
      <trkpt lat="46.16877" lon="-1.09686">
        <ele>11.2</ele>
        <time>2020-06-02T09:55:37Z</time>
      </trkpt>
      <trkpt lat="46.16876" lon="-1.09681">
        <ele>11.2</ele>
        <time>2020-06-02T09:55:38Z</time>
      </trkpt>
      <trkpt lat="46.16874" lon="-1.09674">
        <ele>11.3</ele>
        <time>2020-06-02T09:55:39Z</time>
      </trkpt>
      <trkpt lat="46.16872" lon="-1.09668">
        <ele>11.3</ele>
        <time>2020-06-02T09:55:40Z</time>
      </trkpt>
      <trkpt lat="46.1687" lon="-1.0966">
        <ele>11.4</ele>
        <time>2020-06-02T09:55:41Z</time>
      </trkpt>
      <trkpt lat="46.1687" lon="-1.09651">
        <ele>11.4</ele>
        <time>2020-06-02T09:55:42Z</time>
      </trkpt>
      <trkpt lat="46.16869" lon="-1.09641">
        <ele>11.4</ele>
        <time>2020-06-02T09:55:43Z</time>
      </trkpt>
      <trkpt lat="46.16868" lon="-1.09632">
        <ele>11.4</ele>
        <time>2020-06-02T09:55:44Z</time>
      </trkpt>
      <trkpt lat="46.16867" lon="-1.09623">
        <ele>11.5</ele>
        <time>2020-06-02T09:55:45Z</time>
      </trkpt>
      <trkpt lat="46.16866" lon="-1.09614">
        <ele>11.5</ele>
        <time>2020-06-02T09:55:46Z</time>
      </trkpt>
      <trkpt lat="46.16865" lon="-1.09606">
        <ele>11.5</ele>
        <time>2020-06-02T09:55:47Z</time>
      </trkpt>
      <trkpt lat="46.16863" lon="-1.09597">
        <ele>11.6</ele>
        <time>2020-06-02T09:55:48Z</time>
      </trkpt>
      <trkpt lat="46.16862" lon="-1.09589">
        <ele>11.6</ele>
        <time>2020-06-02T09:55:49Z</time>
      </trkpt>
      <trkpt lat="46.16861" lon="-1.09579">
        <ele>11.6</ele>
        <time>2020-06-02T09:55:50Z</time>
      </trkpt>
      <trkpt lat="46.1686" lon="-1.09571">
        <ele>11.7</ele>
        <time>2020-06-02T09:55:51Z</time>
      </trkpt>
      <trkpt lat="46.1686" lon="-1.09563">
        <ele>11.7</ele>
        <time>2020-06-02T09:55:52Z</time>
      </trkpt>
      <trkpt lat="46.16859" lon="-1.09554">
        <ele>11.7</ele>
        <time>2020-06-02T09:55:53Z</time>
      </trkpt>
      <trkpt lat="46.16858" lon="-1.09545">
        <ele>11.8</ele>
        <time>2020-06-02T09:55:54Z</time>
      </trkpt>
      <trkpt lat="46.16856" lon="-1.09537">
        <ele>11.8</ele>
        <time>2020-06-02T09:55:55Z</time>
      </trkpt>
      <trkpt lat="46.16855" lon="-1.09528">
        <ele>11.9</ele>
        <time>2020-06-02T09:55:56Z</time>
      </trkpt>
      <trkpt lat="46.16854" lon="-1.0952">
        <ele>12</ele>
        <time>2020-06-02T09:55:57Z</time>
      </trkpt>
      <trkpt lat="46.16853" lon="-1.09512">
        <ele>12.1</ele>
        <time>2020-06-02T09:55:58Z</time>
      </trkpt>
      <trkpt lat="46.16851" lon="-1.09504">
        <ele>12.2</ele>
        <time>2020-06-02T09:55:59Z</time>
      </trkpt>
      <trkpt lat="46.1685" lon="-1.09497">
        <ele>12.2</ele>
        <time>2020-06-02T09:56:00Z</time>
      </trkpt>
      <trkpt lat="46.16848" lon="-1.0949">
        <ele>12.3</ele>
        <time>2020-06-02T09:56:01Z</time>
      </trkpt>
      <trkpt lat="46.16847" lon="-1.09482">
        <ele>12.4</ele>
        <time>2020-06-02T09:56:02Z</time>
      </trkpt>
      <trkpt lat="46.16846" lon="-1.09475">
        <ele>12.4</ele>
        <time>2020-06-02T09:56:03Z</time>
      </trkpt>
      <trkpt lat="46.16847" lon="-1.09469">
        <ele>12.4</ele>
        <time>2020-06-02T09:56:04Z</time>
      </trkpt>
      <trkpt lat="46.16846" lon="-1.09461">
        <ele>12.4</ele>
        <time>2020-06-02T09:56:05Z</time>
      </trkpt>
      <trkpt lat="46.16845" lon="-1.09454">
        <ele>12.4</ele>
        <time>2020-06-02T09:56:06Z</time>
      </trkpt>
      <trkpt lat="46.16844" lon="-1.09447">
        <ele>12.4</ele>
        <time>2020-06-02T09:56:07Z</time>
      </trkpt>
      <trkpt lat="46.16843" lon="-1.09439">
        <ele>12.4</ele>
        <time>2020-06-02T09:56:08Z</time>
      </trkpt>
      <trkpt lat="46.16841" lon="-1.09431">
        <ele>12.4</ele>
        <time>2020-06-02T09:56:09Z</time>
      </trkpt>
      <trkpt lat="46.1684" lon="-1.09422">
        <ele>12.4</ele>
        <time>2020-06-02T09:56:10Z</time>
      </trkpt>
      <trkpt lat="46.16839" lon="-1.09413">
        <ele>12.4</ele>
        <time>2020-06-02T09:56:11Z</time>
      </trkpt>
      <trkpt lat="46.16837" lon="-1.09405">
        <ele>12.4</ele>
        <time>2020-06-02T09:56:12Z</time>
      </trkpt>
      <trkpt lat="46.16835" lon="-1.09398">
        <ele>12.5</ele>
        <time>2020-06-02T09:56:13Z</time>
      </trkpt>
      <trkpt lat="46.16833" lon="-1.0939">
        <ele>12.5</ele>
        <time>2020-06-02T09:56:14Z</time>
      </trkpt>
      <trkpt lat="46.16832" lon="-1.09382">
        <ele>12.6</ele>
        <time>2020-06-02T09:56:15Z</time>
      </trkpt>
      <trkpt lat="46.16831" lon="-1.09374">
        <ele>12.6</ele>
        <time>2020-06-02T09:56:16Z</time>
      </trkpt>
      <trkpt lat="46.16829" lon="-1.09367">
        <ele>12.6</ele>
        <time>2020-06-02T09:56:17Z</time>
      </trkpt>
      <trkpt lat="46.16827" lon="-1.0936">
        <ele>12.6</ele>
        <time>2020-06-02T09:56:18Z</time>
      </trkpt>
      <trkpt lat="46.16826" lon="-1.09352">
        <ele>12.6</ele>
        <time>2020-06-02T09:56:19Z</time>
      </trkpt>
      <trkpt lat="46.16825" lon="-1.09343">
        <ele>12.7</ele>
        <time>2020-06-02T09:56:20Z</time>
      </trkpt>
      <trkpt lat="46.16823" lon="-1.09336">
        <ele>12.7</ele>
        <time>2020-06-02T09:56:21Z</time>
      </trkpt>
      <trkpt lat="46.16821" lon="-1.09328">
        <ele>12.7</ele>
        <time>2020-06-02T09:56:22Z</time>
      </trkpt>
      <trkpt lat="46.16819" lon="-1.09321">
        <ele>12.8</ele>
        <time>2020-06-02T09:56:23Z</time>
      </trkpt>
      <trkpt lat="46.16817" lon="-1.09313">
        <ele>12.8</ele>
        <time>2020-06-02T09:56:24Z</time>
      </trkpt>
      <trkpt lat="46.16817" lon="-1.09305">
        <ele>12.9</ele>
        <time>2020-06-02T09:56:25Z</time>
      </trkpt>
      <trkpt lat="46.16816" lon="-1.09296">
        <ele>13</ele>
        <time>2020-06-02T09:56:26Z</time>
      </trkpt>
      <trkpt lat="46.16815" lon="-1.09288">
        <ele>13</ele>
        <time>2020-06-02T09:56:27Z</time>
      </trkpt>
      <trkpt lat="46.16813" lon="-1.0928">
        <ele>13.1</ele>
        <time>2020-06-02T09:56:28Z</time>
      </trkpt>
      <trkpt lat="46.16811" lon="-1.09273">
        <ele>13.1</ele>
        <time>2020-06-02T09:56:29Z</time>
      </trkpt>
      <trkpt lat="46.16809" lon="-1.09265">
        <ele>13.1</ele>
        <time>2020-06-02T09:56:30Z</time>
      </trkpt>
      <trkpt lat="46.16808" lon="-1.09258">
        <ele>13.1</ele>
        <time>2020-06-02T09:56:31Z</time>
      </trkpt>
      <trkpt lat="46.16807" lon="-1.09251">
        <ele>13.2</ele>
        <time>2020-06-02T09:56:32Z</time>
      </trkpt>
      <trkpt lat="46.16806" lon="-1.09243">
        <ele>13.2</ele>
        <time>2020-06-02T09:56:33Z</time>
      </trkpt>
      <trkpt lat="46.16805" lon="-1.09237">
        <ele>13.2</ele>
        <time>2020-06-02T09:56:34Z</time>
      </trkpt>
      <trkpt lat="46.16804" lon="-1.09229">
        <ele>13.3</ele>
        <time>2020-06-02T09:56:35Z</time>
      </trkpt>
      <trkpt lat="46.16803" lon="-1.09223">
        <ele>13.3</ele>
        <time>2020-06-02T09:56:36Z</time>
      </trkpt>
      <trkpt lat="46.16803" lon="-1.09217">
        <ele>13.3</ele>
        <time>2020-06-02T09:56:37Z</time>
      </trkpt>
      <trkpt lat="46.16803" lon="-1.09211">
        <ele>13.3</ele>
        <time>2020-06-02T09:56:38Z</time>
      </trkpt>
      <trkpt lat="46.16802" lon="-1.09207">
        <ele>13.4</ele>
        <time>2020-06-02T09:56:39Z</time>
      </trkpt>
      <trkpt lat="46.16801" lon="-1.09202">
        <ele>13.4</ele>
        <time>2020-06-02T09:56:40Z</time>
      </trkpt>
      <trkpt lat="46.168" lon="-1.09201">
        <ele>13.4</ele>
        <time>2020-06-02T09:56:41Z</time>
      </trkpt>
      <trkpt lat="46.168" lon="-1.092">
        <ele>13.4</ele>
        <time>2020-06-02T09:56:42Z</time>
      </trkpt>
      <trkpt lat="46.168" lon="-1.09199">
        <ele>13.4</ele>
        <time>2020-06-02T09:56:43Z</time>
      </trkpt>
      <trkpt lat="46.168" lon="-1.09197">
        <ele>13.4</ele>
        <time>2020-06-02T09:56:44Z</time>
      </trkpt>
      <trkpt lat="46.16798" lon="-1.09193">
        <ele>13.4</ele>
        <time>2020-06-02T09:56:45Z</time>
      </trkpt>
      <trkpt lat="46.16798" lon="-1.09191">
        <ele>13.4</ele>
        <time>2020-06-02T09:56:46Z</time>
      </trkpt>
      <trkpt lat="46.16797" lon="-1.09187">
        <ele>13.4</ele>
        <time>2020-06-02T09:56:47Z</time>
      </trkpt>
      <trkpt lat="46.16797" lon="-1.09181">
        <ele>13.4</ele>
        <time>2020-06-02T09:56:48Z</time>
      </trkpt>
      <trkpt lat="46.16797" lon="-1.09178">
        <ele>13.4</ele>
        <time>2020-06-02T09:56:49Z</time>
      </trkpt>
      <trkpt lat="46.16796" lon="-1.09174">
        <ele>13.4</ele>
        <time>2020-06-02T09:56:50Z</time>
      </trkpt>
      <trkpt lat="46.16796" lon="-1.09168">
        <ele>13.4</ele>
        <time>2020-06-02T09:56:51Z</time>
      </trkpt>
      <trkpt lat="46.16796" lon="-1.09161">
        <ele>13.4</ele>
        <time>2020-06-02T09:56:52Z</time>
      </trkpt>
      <trkpt lat="46.16795" lon="-1.09155">
        <ele>13.5</ele>
        <time>2020-06-02T09:56:53Z</time>
      </trkpt>
      <trkpt lat="46.16795" lon="-1.09147">
        <ele>13.5</ele>
        <time>2020-06-02T09:56:54Z</time>
      </trkpt>
      <trkpt lat="46.16795" lon="-1.0914">
        <ele>13.5</ele>
        <time>2020-06-02T09:56:55Z</time>
      </trkpt>
      <trkpt lat="46.16795" lon="-1.09132">
        <ele>13.5</ele>
        <time>2020-06-02T09:56:56Z</time>
      </trkpt>
      <trkpt lat="46.16795" lon="-1.09124">
        <ele>13.5</ele>
        <time>2020-06-02T09:56:57Z</time>
      </trkpt>
      <trkpt lat="46.16794" lon="-1.09116">
        <ele>13.6</ele>
        <time>2020-06-02T09:56:58Z</time>
      </trkpt>
      <trkpt lat="46.16794" lon="-1.09108">
        <ele>13.6</ele>
        <time>2020-06-02T09:56:59Z</time>
      </trkpt>
      <trkpt lat="46.16795" lon="-1.091">
        <ele>13.6</ele>
        <time>2020-06-02T09:57:00Z</time>
      </trkpt>
      <trkpt lat="46.16795" lon="-1.09094">
        <ele>13.6</ele>
        <time>2020-06-02T09:57:01Z</time>
      </trkpt>
      <trkpt lat="46.16796" lon="-1.09086">
        <ele>13.6</ele>
        <time>2020-06-02T09:57:02Z</time>
      </trkpt>
      <trkpt lat="46.16796" lon="-1.09079">
        <ele>13.6</ele>
        <time>2020-06-02T09:57:03Z</time>
      </trkpt>
      <trkpt lat="46.16798" lon="-1.09072">
        <ele>13.6</ele>
        <time>2020-06-02T09:57:04Z</time>
      </trkpt>
      <trkpt lat="46.16799" lon="-1.09065">
        <ele>13.6</ele>
        <time>2020-06-02T09:57:05Z</time>
      </trkpt>
      <trkpt lat="46.168" lon="-1.09059">
        <ele>13.6</ele>
        <time>2020-06-02T09:57:06Z</time>
      </trkpt>
      <trkpt lat="46.16801" lon="-1.09053">
        <ele>13.7</ele>
        <time>2020-06-02T09:57:07Z</time>
      </trkpt>
      <trkpt lat="46.16803" lon="-1.09046">
        <ele>13.7</ele>
        <time>2020-06-02T09:57:08Z</time>
      </trkpt>
      <trkpt lat="46.16805" lon="-1.09039">
        <ele>13.7</ele>
        <time>2020-06-02T09:57:09Z</time>
      </trkpt>
      <trkpt lat="46.16806" lon="-1.09032">
        <ele>13.7</ele>
        <time>2020-06-02T09:57:10Z</time>
      </trkpt>
      <trkpt lat="46.16807" lon="-1.09025">
        <ele>13.8</ele>
        <time>2020-06-02T09:57:11Z</time>
      </trkpt>
      <trkpt lat="46.16808" lon="-1.09018">
        <ele>13.8</ele>
        <time>2020-06-02T09:57:12Z</time>
      </trkpt>
      <trkpt lat="46.16809" lon="-1.0901">
        <ele>13.9</ele>
        <time>2020-06-02T09:57:13Z</time>
      </trkpt>
      <trkpt lat="46.1681" lon="-1.09003">
        <ele>14</ele>
        <time>2020-06-02T09:57:14Z</time>
      </trkpt>
      <trkpt lat="46.16811" lon="-1.08996">
        <ele>14</ele>
        <time>2020-06-02T09:57:15Z</time>
      </trkpt>
      <trkpt lat="46.16813" lon="-1.0899">
        <ele>14.1</ele>
        <time>2020-06-02T09:57:16Z</time>
      </trkpt>
      <trkpt lat="46.16815" lon="-1.08984">
        <ele>14.2</ele>
        <time>2020-06-02T09:57:17Z</time>
      </trkpt>
      <trkpt lat="46.16816" lon="-1.08979">
        <ele>14.3</ele>
        <time>2020-06-02T09:57:18Z</time>
      </trkpt>
      <trkpt lat="46.16818" lon="-1.08973">
        <ele>14.4</ele>
        <time>2020-06-02T09:57:19Z</time>
      </trkpt>
      <trkpt lat="46.1682" lon="-1.08967">
        <ele>14.5</ele>
        <time>2020-06-02T09:57:20Z</time>
      </trkpt>
      <trkpt lat="46.16822" lon="-1.0896">
        <ele>14.5</ele>
        <time>2020-06-02T09:57:21Z</time>
      </trkpt>
      <trkpt lat="46.16824" lon="-1.08953">
        <ele>14.7</ele>
        <time>2020-06-02T09:57:22Z</time>
      </trkpt>
      <trkpt lat="46.16825" lon="-1.08946">
        <ele>14.8</ele>
        <time>2020-06-02T09:57:23Z</time>
      </trkpt>
      <trkpt lat="46.16827" lon="-1.0894">
        <ele>14.9</ele>
        <time>2020-06-02T09:57:24Z</time>
      </trkpt>
      <trkpt lat="46.16828" lon="-1.08933">
        <ele>15</ele>
        <time>2020-06-02T09:57:25Z</time>
      </trkpt>
      <trkpt lat="46.1683" lon="-1.08926">
        <ele>15.1</ele>
        <time>2020-06-02T09:57:26Z</time>
      </trkpt>
      <trkpt lat="46.16832" lon="-1.08919">
        <ele>15.2</ele>
        <time>2020-06-02T09:57:27Z</time>
      </trkpt>
      <trkpt lat="46.16834" lon="-1.08914">
        <ele>15.3</ele>
        <time>2020-06-02T09:57:28Z</time>
      </trkpt>
      <trkpt lat="46.16835" lon="-1.08908">
        <ele>15.3</ele>
        <time>2020-06-02T09:57:29Z</time>
      </trkpt>
      <trkpt lat="46.16836" lon="-1.08904">
        <ele>15.4</ele>
        <time>2020-06-02T09:57:30Z</time>
      </trkpt>
      <trkpt lat="46.16837" lon="-1.08898">
        <ele>15.5</ele>
        <time>2020-06-02T09:57:31Z</time>
      </trkpt>
      <trkpt lat="46.16836" lon="-1.08893">
        <ele>15.5</ele>
        <time>2020-06-02T09:57:32Z</time>
      </trkpt>
      <trkpt lat="46.16835" lon="-1.08886">
        <ele>15.6</ele>
        <time>2020-06-02T09:57:33Z</time>
      </trkpt>
      <trkpt lat="46.16834" lon="-1.0888">
        <ele>15.6</ele>
        <time>2020-06-02T09:57:34Z</time>
      </trkpt>
      <trkpt lat="46.16834" lon="-1.08874">
        <ele>15.7</ele>
        <time>2020-06-02T09:57:35Z</time>
      </trkpt>
      <trkpt lat="46.16833" lon="-1.08868">
        <ele>15.7</ele>
        <time>2020-06-02T09:57:36Z</time>
      </trkpt>
      <trkpt lat="46.16834" lon="-1.08862">
        <ele>15.7</ele>
        <time>2020-06-02T09:57:37Z</time>
      </trkpt>
      <trkpt lat="46.16835" lon="-1.08856">
        <ele>15.8</ele>
        <time>2020-06-02T09:57:38Z</time>
      </trkpt>
      <trkpt lat="46.16836" lon="-1.0885">
        <ele>15.8</ele>
        <time>2020-06-02T09:57:39Z</time>
      </trkpt>
      <trkpt lat="46.16838" lon="-1.08843">
        <ele>15.8</ele>
        <time>2020-06-02T09:57:40Z</time>
      </trkpt>
      <trkpt lat="46.1684" lon="-1.08836">
        <ele>15.9</ele>
        <time>2020-06-02T09:57:41Z</time>
      </trkpt>
      <trkpt lat="46.1684" lon="-1.0883">
        <ele>15.9</ele>
        <time>2020-06-02T09:57:42Z</time>
      </trkpt>
      <trkpt lat="46.16842" lon="-1.08823">
        <ele>15.9</ele>
        <time>2020-06-02T09:57:43Z</time>
      </trkpt>
      <trkpt lat="46.16843" lon="-1.08817">
        <ele>15.9</ele>
        <time>2020-06-02T09:57:44Z</time>
      </trkpt>
      <trkpt lat="46.16843" lon="-1.08811">
        <ele>15.9</ele>
        <time>2020-06-02T09:57:45Z</time>
      </trkpt>
      <trkpt lat="46.16844" lon="-1.08805">
        <ele>15.9</ele>
        <time>2020-06-02T09:57:46Z</time>
      </trkpt>
      <trkpt lat="46.16845" lon="-1.08798">
        <ele>16</ele>
        <time>2020-06-02T09:57:47Z</time>
      </trkpt>
      <trkpt lat="46.16846" lon="-1.08793">
        <ele>16</ele>
        <time>2020-06-02T09:57:48Z</time>
      </trkpt>
      <trkpt lat="46.16846" lon="-1.08787">
        <ele>16</ele>
        <time>2020-06-02T09:57:49Z</time>
      </trkpt>
      <trkpt lat="46.16847" lon="-1.0878">
        <ele>16</ele>
        <time>2020-06-02T09:57:50Z</time>
      </trkpt>
      <trkpt lat="46.16848" lon="-1.08773">
        <ele>16</ele>
        <time>2020-06-02T09:57:51Z</time>
      </trkpt>
      <trkpt lat="46.16849" lon="-1.08766">
        <ele>16</ele>
        <time>2020-06-02T09:57:52Z</time>
      </trkpt>
      <trkpt lat="46.1685" lon="-1.08759">
        <ele>16</ele>
        <time>2020-06-02T09:57:53Z</time>
      </trkpt>
      <trkpt lat="46.16851" lon="-1.08752">
        <ele>16</ele>
        <time>2020-06-02T09:57:54Z</time>
      </trkpt>
      <trkpt lat="46.16852" lon="-1.08745">
        <ele>16</ele>
        <time>2020-06-02T09:57:55Z</time>
      </trkpt>
      <trkpt lat="46.16854" lon="-1.08738">
        <ele>16</ele>
        <time>2020-06-02T09:57:56Z</time>
      </trkpt>
      <trkpt lat="46.16854" lon="-1.08731">
        <ele>16</ele>
        <time>2020-06-02T09:57:57Z</time>
      </trkpt>
      <trkpt lat="46.16855" lon="-1.08723">
        <ele>16</ele>
        <time>2020-06-02T09:57:58Z</time>
      </trkpt>
      <trkpt lat="46.16856" lon="-1.08716">
        <ele>16</ele>
        <time>2020-06-02T09:57:59Z</time>
      </trkpt>
      <trkpt lat="46.16857" lon="-1.08709">
        <ele>16</ele>
        <time>2020-06-02T09:58:00Z</time>
      </trkpt>
      <trkpt lat="46.16857" lon="-1.08702">
        <ele>16</ele>
        <time>2020-06-02T09:58:01Z</time>
      </trkpt>
      <trkpt lat="46.16857" lon="-1.08695">
        <ele>16</ele>
        <time>2020-06-02T09:58:02Z</time>
      </trkpt>
      <trkpt lat="46.16858" lon="-1.08687">
        <ele>16</ele>
        <time>2020-06-02T09:58:03Z</time>
      </trkpt>
      <trkpt lat="46.16859" lon="-1.0868">
        <ele>16</ele>
        <time>2020-06-02T09:58:04Z</time>
      </trkpt>
      <trkpt lat="46.1686" lon="-1.08672">
        <ele>16.1</ele>
        <time>2020-06-02T09:58:05Z</time>
      </trkpt>
      <trkpt lat="46.16862" lon="-1.08665">
        <ele>16.1</ele>
        <time>2020-06-02T09:58:06Z</time>
      </trkpt>
      <trkpt lat="46.16862" lon="-1.08659">
        <ele>16.1</ele>
        <time>2020-06-02T09:58:07Z</time>
      </trkpt>
      <trkpt lat="46.16864" lon="-1.08652">
        <ele>16.1</ele>
        <time>2020-06-02T09:58:08Z</time>
      </trkpt>
      <trkpt lat="46.16865" lon="-1.08646">
        <ele>16.2</ele>
        <time>2020-06-02T09:58:09Z</time>
      </trkpt>
      <trkpt lat="46.16867" lon="-1.08638">
        <ele>16.2</ele>
        <time>2020-06-02T09:58:10Z</time>
      </trkpt>
      <trkpt lat="46.16869" lon="-1.08632">
        <ele>16.2</ele>
        <time>2020-06-02T09:58:11Z</time>
      </trkpt>
      <trkpt lat="46.1687" lon="-1.08626">
        <ele>16.3</ele>
        <time>2020-06-02T09:58:12Z</time>
      </trkpt>
      <trkpt lat="46.16871" lon="-1.08619">
        <ele>16.3</ele>
        <time>2020-06-02T09:58:13Z</time>
      </trkpt>
      <trkpt lat="46.16872" lon="-1.08613">
        <ele>16.3</ele>
        <time>2020-06-02T09:58:14Z</time>
      </trkpt>
      <trkpt lat="46.16872" lon="-1.08605">
        <ele>16.4</ele>
        <time>2020-06-02T09:58:15Z</time>
      </trkpt>
      <trkpt lat="46.16874" lon="-1.08598">
        <ele>16.5</ele>
        <time>2020-06-02T09:58:16Z</time>
      </trkpt>
      <trkpt lat="46.16875" lon="-1.08591">
        <ele>16.5</ele>
        <time>2020-06-02T09:58:17Z</time>
      </trkpt>
      <trkpt lat="46.16876" lon="-1.08583">
        <ele>16.6</ele>
        <time>2020-06-02T09:58:18Z</time>
      </trkpt>
      <trkpt lat="46.16878" lon="-1.08574">
        <ele>16.7</ele>
        <time>2020-06-02T09:58:19Z</time>
      </trkpt>
      <trkpt lat="46.1688" lon="-1.08565">
        <ele>16.8</ele>
        <time>2020-06-02T09:58:20Z</time>
      </trkpt>
      <trkpt lat="46.1688" lon="-1.08558">
        <ele>16.9</ele>
        <time>2020-06-02T09:58:21Z</time>
      </trkpt>
      <trkpt lat="46.16881" lon="-1.0855">
        <ele>17</ele>
        <time>2020-06-02T09:58:22Z</time>
      </trkpt>
      <trkpt lat="46.16882" lon="-1.08543">
        <ele>17.1</ele>
        <time>2020-06-02T09:58:23Z</time>
      </trkpt>
      <trkpt lat="46.16882" lon="-1.08535">
        <ele>17.2</ele>
        <time>2020-06-02T09:58:24Z</time>
      </trkpt>
      <trkpt lat="46.16884" lon="-1.08528">
        <ele>17.2</ele>
        <time>2020-06-02T09:58:25Z</time>
      </trkpt>
      <trkpt lat="46.16884" lon="-1.08521">
        <ele>17.3</ele>
        <time>2020-06-02T09:58:26Z</time>
      </trkpt>
      <trkpt lat="46.16885" lon="-1.08516">
        <ele>17.4</ele>
        <time>2020-06-02T09:58:27Z</time>
      </trkpt>
      <trkpt lat="46.16888" lon="-1.0851">
        <ele>17.4</ele>
        <time>2020-06-02T09:58:28Z</time>
      </trkpt>
      <trkpt lat="46.1689" lon="-1.08504">
        <ele>17.5</ele>
        <time>2020-06-02T09:58:29Z</time>
      </trkpt>
      <trkpt lat="46.16891" lon="-1.08498">
        <ele>17.6</ele>
        <time>2020-06-02T09:58:30Z</time>
      </trkpt>
      <trkpt lat="46.16892" lon="-1.08492">
        <ele>17.7</ele>
        <time>2020-06-02T09:58:31Z</time>
      </trkpt>
      <trkpt lat="46.16893" lon="-1.08487">
        <ele>17.8</ele>
        <time>2020-06-02T09:58:32Z</time>
      </trkpt>
      <trkpt lat="46.16894" lon="-1.08481">
        <ele>17.8</ele>
        <time>2020-06-02T09:58:33Z</time>
      </trkpt>
      <trkpt lat="46.16895" lon="-1.08475">
        <ele>17.9</ele>
        <time>2020-06-02T09:58:34Z</time>
      </trkpt>
      <trkpt lat="46.16896" lon="-1.08468">
        <ele>18</ele>
        <time>2020-06-02T09:58:35Z</time>
      </trkpt>
      <trkpt lat="46.16897" lon="-1.08461">
        <ele>18</ele>
        <time>2020-06-02T09:58:36Z</time>
      </trkpt>
      <trkpt lat="46.16898" lon="-1.08453">
        <ele>18.1</ele>
        <time>2020-06-02T09:58:37Z</time>
      </trkpt>
      <trkpt lat="46.16899" lon="-1.08447">
        <ele>18.1</ele>
        <time>2020-06-02T09:58:38Z</time>
      </trkpt>
      <trkpt lat="46.169" lon="-1.0844">
        <ele>18.1</ele>
        <time>2020-06-02T09:58:39Z</time>
      </trkpt>
      <trkpt lat="46.16902" lon="-1.08432">
        <ele>18.1</ele>
        <time>2020-06-02T09:58:40Z</time>
      </trkpt>
      <trkpt lat="46.16904" lon="-1.08425">
        <ele>18.1</ele>
        <time>2020-06-02T09:58:41Z</time>
      </trkpt>
      <trkpt lat="46.16905" lon="-1.0842">
        <ele>18.1</ele>
        <time>2020-06-02T09:58:42Z</time>
      </trkpt>
      <trkpt lat="46.16907" lon="-1.08413">
        <ele>18.2</ele>
        <time>2020-06-02T09:58:43Z</time>
      </trkpt>
      <trkpt lat="46.16908" lon="-1.08406">
        <ele>18.2</ele>
        <time>2020-06-02T09:58:44Z</time>
      </trkpt>
      <trkpt lat="46.1691" lon="-1.084">
        <ele>18.1</ele>
        <time>2020-06-02T09:58:45Z</time>
      </trkpt>
      <trkpt lat="46.16911" lon="-1.08393">
        <ele>18.1</ele>
        <time>2020-06-02T09:58:46Z</time>
      </trkpt>
      <trkpt lat="46.16912" lon="-1.08386">
        <ele>18.1</ele>
        <time>2020-06-02T09:58:47Z</time>
      </trkpt>
      <trkpt lat="46.16912" lon="-1.08379">
        <ele>18.1</ele>
        <time>2020-06-02T09:58:48Z</time>
      </trkpt>
      <trkpt lat="46.16914" lon="-1.08372">
        <ele>18.1</ele>
        <time>2020-06-02T09:58:49Z</time>
      </trkpt>
      <trkpt lat="46.16915" lon="-1.08366">
        <ele>18.1</ele>
        <time>2020-06-02T09:58:50Z</time>
      </trkpt>
      <trkpt lat="46.16916" lon="-1.08359">
        <ele>18.1</ele>
        <time>2020-06-02T09:58:51Z</time>
      </trkpt>
      <trkpt lat="46.16917" lon="-1.08352">
        <ele>18.1</ele>
        <time>2020-06-02T09:58:52Z</time>
      </trkpt>
      <trkpt lat="46.16919" lon="-1.08345">
        <ele>18.1</ele>
        <time>2020-06-02T09:58:53Z</time>
      </trkpt>
      <trkpt lat="46.16921" lon="-1.08338">
        <ele>18.1</ele>
        <time>2020-06-02T09:58:54Z</time>
      </trkpt>
      <trkpt lat="46.16922" lon="-1.08331">
        <ele>18.1</ele>
        <time>2020-06-02T09:58:55Z</time>
      </trkpt>
      <trkpt lat="46.16924" lon="-1.08324">
        <ele>18.1</ele>
        <time>2020-06-02T09:58:56Z</time>
      </trkpt>
      <trkpt lat="46.16925" lon="-1.08317">
        <ele>18.1</ele>
        <time>2020-06-02T09:58:57Z</time>
      </trkpt>
      <trkpt lat="46.16926" lon="-1.0831">
        <ele>18.1</ele>
        <time>2020-06-02T09:58:58Z</time>
      </trkpt>
      <trkpt lat="46.16927" lon="-1.08302">
        <ele>18.1</ele>
        <time>2020-06-02T09:58:59Z</time>
      </trkpt>
      <trkpt lat="46.16927" lon="-1.08294">
        <ele>18.1</ele>
        <time>2020-06-02T09:59:00Z</time>
      </trkpt>
      <trkpt lat="46.16928" lon="-1.08286">
        <ele>18.2</ele>
        <time>2020-06-02T09:59:01Z</time>
      </trkpt>
      <trkpt lat="46.1693" lon="-1.08278">
        <ele>18.2</ele>
        <time>2020-06-02T09:59:02Z</time>
      </trkpt>
      <trkpt lat="46.1693" lon="-1.08271">
        <ele>18.3</ele>
        <time>2020-06-02T09:59:03Z</time>
      </trkpt>
      <trkpt lat="46.16931" lon="-1.08264">
        <ele>18.3</ele>
        <time>2020-06-02T09:59:04Z</time>
      </trkpt>
      <trkpt lat="46.16933" lon="-1.08258">
        <ele>18.4</ele>
        <time>2020-06-02T09:59:05Z</time>
      </trkpt>
      <trkpt lat="46.16934" lon="-1.08252">
        <ele>18.4</ele>
        <time>2020-06-02T09:59:06Z</time>
      </trkpt>
      <trkpt lat="46.16934" lon="-1.08245">
        <ele>18.5</ele>
        <time>2020-06-02T09:59:07Z</time>
      </trkpt>
      <trkpt lat="46.16936" lon="-1.08238">
        <ele>18.6</ele>
        <time>2020-06-02T09:59:08Z</time>
      </trkpt>
      <trkpt lat="46.16937" lon="-1.0823">
        <ele>18.6</ele>
        <time>2020-06-02T09:59:09Z</time>
      </trkpt>
      <trkpt lat="46.16938" lon="-1.08223">
        <ele>18.7</ele>
        <time>2020-06-02T09:59:10Z</time>
      </trkpt>
      <trkpt lat="46.16939" lon="-1.08217">
        <ele>18.7</ele>
        <time>2020-06-02T09:59:11Z</time>
      </trkpt>
      <trkpt lat="46.16939" lon="-1.08211">
        <ele>18.7</ele>
        <time>2020-06-02T09:59:12Z</time>
      </trkpt>
      <trkpt lat="46.1694" lon="-1.08204">
        <ele>18.8</ele>
        <time>2020-06-02T09:59:13Z</time>
      </trkpt>
      <trkpt lat="46.16942" lon="-1.08197">
        <ele>18.8</ele>
        <time>2020-06-02T09:59:14Z</time>
      </trkpt>
      <trkpt lat="46.16944" lon="-1.08189">
        <ele>18.8</ele>
        <time>2020-06-02T09:59:15Z</time>
      </trkpt>
      <trkpt lat="46.16946" lon="-1.08183">
        <ele>18.8</ele>
        <time>2020-06-02T09:59:16Z</time>
      </trkpt>
      <trkpt lat="46.16946" lon="-1.08176">
        <ele>18.8</ele>
        <time>2020-06-02T09:59:17Z</time>
      </trkpt>
      <trkpt lat="46.16946" lon="-1.08168">
        <ele>18.8</ele>
        <time>2020-06-02T09:59:18Z</time>
      </trkpt>
      <trkpt lat="46.16947" lon="-1.08161">
        <ele>18.8</ele>
        <time>2020-06-02T09:59:19Z</time>
      </trkpt>
      <trkpt lat="46.16948" lon="-1.08154">
        <ele>18.8</ele>
        <time>2020-06-02T09:59:20Z</time>
      </trkpt>
      <trkpt lat="46.16949" lon="-1.08147">
        <ele>18.8</ele>
        <time>2020-06-02T09:59:21Z</time>
      </trkpt>
      <trkpt lat="46.1695" lon="-1.08141">
        <ele>18.7</ele>
        <time>2020-06-02T09:59:22Z</time>
      </trkpt>
      <trkpt lat="46.1695" lon="-1.08134">
        <ele>18.7</ele>
        <time>2020-06-02T09:59:23Z</time>
      </trkpt>
      <trkpt lat="46.16951" lon="-1.08127">
        <ele>18.7</ele>
        <time>2020-06-02T09:59:24Z</time>
      </trkpt>
      <trkpt lat="46.16951" lon="-1.0812">
        <ele>18.7</ele>
        <time>2020-06-02T09:59:25Z</time>
      </trkpt>
      <trkpt lat="46.16953" lon="-1.08112">
        <ele>18.7</ele>
        <time>2020-06-02T09:59:26Z</time>
      </trkpt>
      <trkpt lat="46.16954" lon="-1.08105">
        <ele>18.8</ele>
        <time>2020-06-02T09:59:27Z</time>
      </trkpt>
      <trkpt lat="46.16955" lon="-1.08098">
        <ele>18.8</ele>
        <time>2020-06-02T09:59:28Z</time>
      </trkpt>
      <trkpt lat="46.16957" lon="-1.08091">
        <ele>18.9</ele>
        <time>2020-06-02T09:59:29Z</time>
      </trkpt>
      <trkpt lat="46.16958" lon="-1.08084">
        <ele>18.9</ele>
        <time>2020-06-02T09:59:30Z</time>
      </trkpt>
      <trkpt lat="46.1696" lon="-1.08079">
        <ele>19</ele>
        <time>2020-06-02T09:59:31Z</time>
      </trkpt>
      <trkpt lat="46.16961" lon="-1.08072">
        <ele>19</ele>
        <time>2020-06-02T09:59:32Z</time>
      </trkpt>
      <trkpt lat="46.16961" lon="-1.08066">
        <ele>19</ele>
        <time>2020-06-02T09:59:33Z</time>
      </trkpt>
      <trkpt lat="46.16963" lon="-1.08059">
        <ele>19.1</ele>
        <time>2020-06-02T09:59:34Z</time>
      </trkpt>
      <trkpt lat="46.16964" lon="-1.08053">
        <ele>19.1</ele>
        <time>2020-06-02T09:59:35Z</time>
      </trkpt>
      <trkpt lat="46.16965" lon="-1.08047">
        <ele>19.1</ele>
        <time>2020-06-02T09:59:36Z</time>
      </trkpt>
      <trkpt lat="46.16967" lon="-1.08041">
        <ele>19.1</ele>
        <time>2020-06-02T09:59:37Z</time>
      </trkpt>
      <trkpt lat="46.16968" lon="-1.08035">
        <ele>19.2</ele>
        <time>2020-06-02T09:59:38Z</time>
      </trkpt>
      <trkpt lat="46.16969" lon="-1.08028">
        <ele>19.2</ele>
        <time>2020-06-02T09:59:39Z</time>
      </trkpt>
      <trkpt lat="46.1697" lon="-1.08021">
        <ele>19.2</ele>
        <time>2020-06-02T09:59:40Z</time>
      </trkpt>
      <trkpt lat="46.16971" lon="-1.08014">
        <ele>19.2</ele>
        <time>2020-06-02T09:59:41Z</time>
      </trkpt>
      <trkpt lat="46.16973" lon="-1.08007">
        <ele>19.3</ele>
        <time>2020-06-02T09:59:42Z</time>
      </trkpt>
      <trkpt lat="46.16974" lon="-1.08">
        <ele>19.3</ele>
        <time>2020-06-02T09:59:43Z</time>
      </trkpt>
      <trkpt lat="46.16975" lon="-1.07994">
        <ele>19.3</ele>
        <time>2020-06-02T09:59:44Z</time>
      </trkpt>
      <trkpt lat="46.16976" lon="-1.07988">
        <ele>19.4</ele>
        <time>2020-06-02T09:59:45Z</time>
      </trkpt>
      <trkpt lat="46.16976" lon="-1.07981">
        <ele>19.4</ele>
        <time>2020-06-02T09:59:46Z</time>
      </trkpt>
      <trkpt lat="46.16978" lon="-1.07975">
        <ele>19.5</ele>
        <time>2020-06-02T09:59:47Z</time>
      </trkpt>
      <trkpt lat="46.16978" lon="-1.0797">
        <ele>19.5</ele>
        <time>2020-06-02T09:59:48Z</time>
      </trkpt>
      <trkpt lat="46.1698" lon="-1.07963">
        <ele>19.6</ele>
        <time>2020-06-02T09:59:49Z</time>
      </trkpt>
      <trkpt lat="46.16981" lon="-1.07956">
        <ele>19.7</ele>
        <time>2020-06-02T09:59:50Z</time>
      </trkpt>
      <trkpt lat="46.16982" lon="-1.07949">
        <ele>19.8</ele>
        <time>2020-06-02T09:59:51Z</time>
      </trkpt>
      <trkpt lat="46.16984" lon="-1.07942">
        <ele>19.8</ele>
        <time>2020-06-02T09:59:52Z</time>
      </trkpt>
      <trkpt lat="46.16986" lon="-1.07935">
        <ele>19.9</ele>
        <time>2020-06-02T09:59:53Z</time>
      </trkpt>
      <trkpt lat="46.16987" lon="-1.0793">
        <ele>20</ele>
        <time>2020-06-02T09:59:54Z</time>
      </trkpt>
      <trkpt lat="46.16988" lon="-1.07922">
        <ele>20</ele>
        <time>2020-06-02T09:59:55Z</time>
      </trkpt>
      <trkpt lat="46.16988" lon="-1.07915">
        <ele>20</ele>
        <time>2020-06-02T09:59:56Z</time>
      </trkpt>
      <trkpt lat="46.16989" lon="-1.07908">
        <ele>20.1</ele>
        <time>2020-06-02T09:59:57Z</time>
      </trkpt>
      <trkpt lat="46.16991" lon="-1.07901">
        <ele>20.1</ele>
        <time>2020-06-02T09:59:58Z</time>
      </trkpt>
      <trkpt lat="46.16991" lon="-1.07893">
        <ele>20.1</ele>
        <time>2020-06-02T09:59:59Z</time>
      </trkpt>
      <trkpt lat="46.16991" lon="-1.07886">
        <ele>20.1</ele>
        <time>2020-06-02T10:00:00Z</time>
      </trkpt>
      <trkpt lat="46.16992" lon="-1.07879">
        <ele>20.1</ele>
        <time>2020-06-02T10:00:01Z</time>
      </trkpt>
      <trkpt lat="46.16993" lon="-1.07872">
        <ele>20.1</ele>
        <time>2020-06-02T10:00:02Z</time>
      </trkpt>
      <trkpt lat="46.16995" lon="-1.07866">
        <ele>20.2</ele>
        <time>2020-06-02T10:00:03Z</time>
      </trkpt>
      <trkpt lat="46.16996" lon="-1.0786">
        <ele>20.2</ele>
        <time>2020-06-02T10:00:04Z</time>
      </trkpt>
      <trkpt lat="46.16997" lon="-1.07852">
        <ele>20.2</ele>
        <time>2020-06-02T10:00:05Z</time>
      </trkpt>
      <trkpt lat="46.16998" lon="-1.07845">
        <ele>20.3</ele>
        <time>2020-06-02T10:00:06Z</time>
      </trkpt>
      <trkpt lat="46.16998" lon="-1.07838">
        <ele>20.3</ele>
        <time>2020-06-02T10:00:07Z</time>
      </trkpt>
      <trkpt lat="46.16999" lon="-1.07832">
        <ele>20.4</ele>
        <time>2020-06-02T10:00:08Z</time>
      </trkpt>
      <trkpt lat="46.17" lon="-1.07825">
        <ele>20.4</ele>
        <time>2020-06-02T10:00:09Z</time>
      </trkpt>
      <trkpt lat="46.17" lon="-1.07819">
        <ele>20.5</ele>
        <time>2020-06-02T10:00:10Z</time>
      </trkpt>
      <trkpt lat="46.17001" lon="-1.07813">
        <ele>20.5</ele>
        <time>2020-06-02T10:00:11Z</time>
      </trkpt>
      <trkpt lat="46.17" lon="-1.07807">
        <ele>20.6</ele>
        <time>2020-06-02T10:00:12Z</time>
      </trkpt>
      <trkpt lat="46.17001" lon="-1.078">
        <ele>20.6</ele>
        <time>2020-06-02T10:00:13Z</time>
      </trkpt>
      <trkpt lat="46.17001" lon="-1.07793">
        <ele>20.7</ele>
        <time>2020-06-02T10:00:14Z</time>
      </trkpt>
      <trkpt lat="46.17002" lon="-1.07786">
        <ele>20.8</ele>
        <time>2020-06-02T10:00:15Z</time>
      </trkpt>
      <trkpt lat="46.17004" lon="-1.0778">
        <ele>20.8</ele>
        <time>2020-06-02T10:00:16Z</time>
      </trkpt>
      <trkpt lat="46.17005" lon="-1.07773">
        <ele>20.9</ele>
        <time>2020-06-02T10:00:17Z</time>
      </trkpt>
      <trkpt lat="46.17006" lon="-1.07767">
        <ele>20.9</ele>
        <time>2020-06-02T10:00:18Z</time>
      </trkpt>
      <trkpt lat="46.17007" lon="-1.0776">
        <ele>21</ele>
        <time>2020-06-02T10:00:19Z</time>
      </trkpt>
      <trkpt lat="46.17008" lon="-1.07753">
        <ele>21</ele>
        <time>2020-06-02T10:00:20Z</time>
      </trkpt>
      <trkpt lat="46.1701" lon="-1.07746">
        <ele>21.1</ele>
        <time>2020-06-02T10:00:21Z</time>
      </trkpt>
      <trkpt lat="46.17012" lon="-1.0774">
        <ele>21.1</ele>
        <time>2020-06-02T10:00:22Z</time>
      </trkpt>
      <trkpt lat="46.17014" lon="-1.07734">
        <ele>21.2</ele>
        <time>2020-06-02T10:00:23Z</time>
      </trkpt>
      <trkpt lat="46.17016" lon="-1.07727">
        <ele>21.2</ele>
        <time>2020-06-02T10:00:24Z</time>
      </trkpt>
      <trkpt lat="46.17019" lon="-1.07723">
        <ele>21.3</ele>
        <time>2020-06-02T10:00:25Z</time>
      </trkpt>
      <trkpt lat="46.1702" lon="-1.07716">
        <ele>21.3</ele>
        <time>2020-06-02T10:00:26Z</time>
      </trkpt>
      <trkpt lat="46.17023" lon="-1.07711">
        <ele>21.4</ele>
        <time>2020-06-02T10:00:27Z</time>
      </trkpt>
      <trkpt lat="46.17026" lon="-1.07705">
        <ele>21.5</ele>
        <time>2020-06-02T10:00:28Z</time>
      </trkpt>
      <trkpt lat="46.17028" lon="-1.07699">
        <ele>21.5</ele>
        <time>2020-06-02T10:00:29Z</time>
      </trkpt>
      <trkpt lat="46.17031" lon="-1.07693">
        <ele>21.6</ele>
        <time>2020-06-02T10:00:30Z</time>
      </trkpt>
      <trkpt lat="46.17035" lon="-1.07688">
        <ele>21.6</ele>
        <time>2020-06-02T10:00:31Z</time>
      </trkpt>
      <trkpt lat="46.17037" lon="-1.07682">
        <ele>21.7</ele>
        <time>2020-06-02T10:00:32Z</time>
      </trkpt>
      <trkpt lat="46.17041" lon="-1.07676">
        <ele>21.7</ele>
        <time>2020-06-02T10:00:33Z</time>
      </trkpt>
      <trkpt lat="46.17044" lon="-1.0767">
        <ele>21.7</ele>
        <time>2020-06-02T10:00:34Z</time>
      </trkpt>
      <trkpt lat="46.17048" lon="-1.07667">
        <ele>21.8</ele>
        <time>2020-06-02T10:00:35Z</time>
      </trkpt>
      <trkpt lat="46.1705" lon="-1.07661">
        <ele>21.8</ele>
        <time>2020-06-02T10:00:36Z</time>
      </trkpt>
      <trkpt lat="46.17053" lon="-1.07656">
        <ele>21.9</ele>
        <time>2020-06-02T10:00:37Z</time>
      </trkpt>
      <trkpt lat="46.17056" lon="-1.0765">
        <ele>21.9</ele>
        <time>2020-06-02T10:00:38Z</time>
      </trkpt>
      <trkpt lat="46.1706" lon="-1.07645">
        <ele>22</ele>
        <time>2020-06-02T10:00:39Z</time>
      </trkpt>
      <trkpt lat="46.17063" lon="-1.07639">
        <ele>22</ele>
        <time>2020-06-02T10:00:40Z</time>
      </trkpt>
      <trkpt lat="46.17065" lon="-1.07633">
        <ele>22.1</ele>
        <time>2020-06-02T10:00:41Z</time>
      </trkpt>
      <trkpt lat="46.17069" lon="-1.07628">
        <ele>22.2</ele>
        <time>2020-06-02T10:00:42Z</time>
      </trkpt>
      <trkpt lat="46.17071" lon="-1.07622">
        <ele>22.2</ele>
        <time>2020-06-02T10:00:43Z</time>
      </trkpt>
      <trkpt lat="46.17074" lon="-1.07617">
        <ele>22.3</ele>
        <time>2020-06-02T10:00:44Z</time>
      </trkpt>
      <trkpt lat="46.17077" lon="-1.07612">
        <ele>22.4</ele>
        <time>2020-06-02T10:00:45Z</time>
      </trkpt>
      <trkpt lat="46.1708" lon="-1.07608">
        <ele>22.4</ele>
        <time>2020-06-02T10:00:46Z</time>
      </trkpt>
      <trkpt lat="46.17083" lon="-1.07603">
        <ele>22.5</ele>
        <time>2020-06-02T10:00:47Z</time>
      </trkpt>
      <trkpt lat="46.17086" lon="-1.07599">
        <ele>22.6</ele>
        <time>2020-06-02T10:00:48Z</time>
      </trkpt>
      <trkpt lat="46.17089" lon="-1.07594">
        <ele>22.6</ele>
        <time>2020-06-02T10:00:49Z</time>
      </trkpt>
      <trkpt lat="46.17092" lon="-1.07589">
        <ele>22.7</ele>
        <time>2020-06-02T10:00:50Z</time>
      </trkpt>
      <trkpt lat="46.17095" lon="-1.07585">
        <ele>22.8</ele>
        <time>2020-06-02T10:00:51Z</time>
      </trkpt>
      <trkpt lat="46.17098" lon="-1.0758">
        <ele>22.9</ele>
        <time>2020-06-02T10:00:52Z</time>
      </trkpt>
      <trkpt lat="46.17101" lon="-1.07574">
        <ele>22.9</ele>
        <time>2020-06-02T10:00:53Z</time>
      </trkpt>
      <trkpt lat="46.17104" lon="-1.07569">
        <ele>23</ele>
        <time>2020-06-02T10:00:54Z</time>
      </trkpt>
      <trkpt lat="46.17107" lon="-1.07563">
        <ele>23</ele>
        <time>2020-06-02T10:00:55Z</time>
      </trkpt>
      <trkpt lat="46.17111" lon="-1.07558">
        <ele>23.1</ele>
        <time>2020-06-02T10:00:56Z</time>
      </trkpt>
      <trkpt lat="46.17114" lon="-1.07551">
        <ele>23.1</ele>
        <time>2020-06-02T10:00:57Z</time>
      </trkpt>
      <trkpt lat="46.17117" lon="-1.07546">
        <ele>23.1</ele>
        <time>2020-06-02T10:00:58Z</time>
      </trkpt>
      <trkpt lat="46.1712" lon="-1.07541">
        <ele>23.2</ele>
        <time>2020-06-02T10:00:59Z</time>
      </trkpt>
      <trkpt lat="46.17123" lon="-1.07536">
        <ele>23.2</ele>
        <time>2020-06-02T10:01:00Z</time>
      </trkpt>
      <trkpt lat="46.17126" lon="-1.07532">
        <ele>23.3</ele>
        <time>2020-06-02T10:01:01Z</time>
      </trkpt>
      <trkpt lat="46.1713" lon="-1.07526">
        <ele>23.3</ele>
        <time>2020-06-02T10:01:02Z</time>
      </trkpt>
      <trkpt lat="46.17133" lon="-1.07521">
        <ele>23.4</ele>
        <time>2020-06-02T10:01:03Z</time>
      </trkpt>
      <trkpt lat="46.17136" lon="-1.07516">
        <ele>23.4</ele>
        <time>2020-06-02T10:01:04Z</time>
      </trkpt>
      <trkpt lat="46.17138" lon="-1.07512">
        <ele>23.5</ele>
        <time>2020-06-02T10:01:05Z</time>
      </trkpt>
      <trkpt lat="46.1714" lon="-1.07506">
        <ele>23.5</ele>
        <time>2020-06-02T10:01:06Z</time>
      </trkpt>
      <trkpt lat="46.17144" lon="-1.07501">
        <ele>23.5</ele>
        <time>2020-06-02T10:01:07Z</time>
      </trkpt>
      <trkpt lat="46.17147" lon="-1.07495">
        <ele>23.5</ele>
        <time>2020-06-02T10:01:08Z</time>
      </trkpt>
      <trkpt lat="46.1715" lon="-1.0749">
        <ele>23.5</ele>
        <time>2020-06-02T10:01:09Z</time>
      </trkpt>
      <trkpt lat="46.17153" lon="-1.07485">
        <ele>23.6</ele>
        <time>2020-06-02T10:01:10Z</time>
      </trkpt>
      <trkpt lat="46.17156" lon="-1.0748">
        <ele>23.6</ele>
        <time>2020-06-02T10:01:11Z</time>
      </trkpt>
      <trkpt lat="46.17159" lon="-1.07475">
        <ele>23.6</ele>
        <time>2020-06-02T10:01:12Z</time>
      </trkpt>
      <trkpt lat="46.17163" lon="-1.0747">
        <ele>23.6</ele>
        <time>2020-06-02T10:01:13Z</time>
      </trkpt>
      <trkpt lat="46.17166" lon="-1.07464">
        <ele>23.7</ele>
        <time>2020-06-02T10:01:14Z</time>
      </trkpt>
      <trkpt lat="46.17169" lon="-1.07459">
        <ele>23.7</ele>
        <time>2020-06-02T10:01:15Z</time>
      </trkpt>
      <trkpt lat="46.17173" lon="-1.07456">
        <ele>23.8</ele>
        <time>2020-06-02T10:01:16Z</time>
      </trkpt>
      <trkpt lat="46.17177" lon="-1.07451">
        <ele>23.8</ele>
        <time>2020-06-02T10:01:17Z</time>
      </trkpt>
      <trkpt lat="46.1718" lon="-1.07447">
        <ele>23.9</ele>
        <time>2020-06-02T10:01:18Z</time>
      </trkpt>
      <trkpt lat="46.17183" lon="-1.07442">
        <ele>23.9</ele>
        <time>2020-06-02T10:01:19Z</time>
      </trkpt>
      <trkpt lat="46.17187" lon="-1.07438">
        <ele>24</ele>
        <time>2020-06-02T10:01:20Z</time>
      </trkpt>
      <trkpt lat="46.17191" lon="-1.07433">
        <ele>24</ele>
        <time>2020-06-02T10:01:21Z</time>
      </trkpt>
      <trkpt lat="46.17194" lon="-1.07427">
        <ele>24.1</ele>
        <time>2020-06-02T10:01:22Z</time>
      </trkpt>
      <trkpt lat="46.17197" lon="-1.07422">
        <ele>24.1</ele>
        <time>2020-06-02T10:01:23Z</time>
      </trkpt>
      <trkpt lat="46.172" lon="-1.07417">
        <ele>24.2</ele>
        <time>2020-06-02T10:01:24Z</time>
      </trkpt>
      <trkpt lat="46.17203" lon="-1.07412">
        <ele>24.2</ele>
        <time>2020-06-02T10:01:25Z</time>
      </trkpt>
      <trkpt lat="46.17206" lon="-1.07407">
        <ele>24.3</ele>
        <time>2020-06-02T10:01:26Z</time>
      </trkpt>
      <trkpt lat="46.17211" lon="-1.07404">
        <ele>24.3</ele>
        <time>2020-06-02T10:01:27Z</time>
      </trkpt>
      <trkpt lat="46.17214" lon="-1.074">
        <ele>24.4</ele>
        <time>2020-06-02T10:01:28Z</time>
      </trkpt>
      <trkpt lat="46.17218" lon="-1.07396">
        <ele>24.5</ele>
        <time>2020-06-02T10:01:29Z</time>
      </trkpt>
      <trkpt lat="46.17222" lon="-1.07391">
        <ele>24.6</ele>
        <time>2020-06-02T10:01:30Z</time>
      </trkpt>
      <trkpt lat="46.17226" lon="-1.07385">
        <ele>24.7</ele>
        <time>2020-06-02T10:01:31Z</time>
      </trkpt>
      <trkpt lat="46.17228" lon="-1.07379">
        <ele>24.8</ele>
        <time>2020-06-02T10:01:32Z</time>
      </trkpt>
      <trkpt lat="46.17232" lon="-1.07374">
        <ele>24.9</ele>
        <time>2020-06-02T10:01:33Z</time>
      </trkpt>
      <trkpt lat="46.17235" lon="-1.07368">
        <ele>25</ele>
        <time>2020-06-02T10:01:34Z</time>
      </trkpt>
      <trkpt lat="46.17238" lon="-1.07362">
        <ele>25</ele>
        <time>2020-06-02T10:01:35Z</time>
      </trkpt>
      <trkpt lat="46.17241" lon="-1.07357">
        <ele>25.1</ele>
        <time>2020-06-02T10:01:36Z</time>
      </trkpt>
      <trkpt lat="46.17244" lon="-1.07352">
        <ele>25.2</ele>
        <time>2020-06-02T10:01:37Z</time>
      </trkpt>
      <trkpt lat="46.17247" lon="-1.07348">
        <ele>25.2</ele>
        <time>2020-06-02T10:01:38Z</time>
      </trkpt>
      <trkpt lat="46.17251" lon="-1.07343">
        <ele>25.3</ele>
        <time>2020-06-02T10:01:39Z</time>
      </trkpt>
      <trkpt lat="46.17254" lon="-1.07339">
        <ele>25.3</ele>
        <time>2020-06-02T10:01:40Z</time>
      </trkpt>
      <trkpt lat="46.17259" lon="-1.07334">
        <ele>25.4</ele>
        <time>2020-06-02T10:01:41Z</time>
      </trkpt>
      <trkpt lat="46.17262" lon="-1.0733">
        <ele>25.5</ele>
        <time>2020-06-02T10:01:42Z</time>
      </trkpt>
      <trkpt lat="46.17266" lon="-1.07323">
        <ele>25.6</ele>
        <time>2020-06-02T10:01:43Z</time>
      </trkpt>
      <trkpt lat="46.1727" lon="-1.07318">
        <ele>25.6</ele>
        <time>2020-06-02T10:01:44Z</time>
      </trkpt>
      <trkpt lat="46.17272" lon="-1.07313">
        <ele>25.7</ele>
        <time>2020-06-02T10:01:45Z</time>
      </trkpt>
      <trkpt lat="46.17276" lon="-1.07308">
        <ele>25.8</ele>
        <time>2020-06-02T10:01:46Z</time>
      </trkpt>
      <trkpt lat="46.17279" lon="-1.07303">
        <ele>25.9</ele>
        <time>2020-06-02T10:01:47Z</time>
      </trkpt>
      <trkpt lat="46.17282" lon="-1.07298">
        <ele>25.9</ele>
        <time>2020-06-02T10:01:48Z</time>
      </trkpt>
      <trkpt lat="46.17285" lon="-1.07293">
        <ele>26</ele>
        <time>2020-06-02T10:01:49Z</time>
      </trkpt>
      <trkpt lat="46.17287" lon="-1.07287">
        <ele>26.1</ele>
        <time>2020-06-02T10:01:50Z</time>
      </trkpt>
      <trkpt lat="46.1729" lon="-1.07282">
        <ele>26.2</ele>
        <time>2020-06-02T10:01:51Z</time>
      </trkpt>
      <trkpt lat="46.17293" lon="-1.07277">
        <ele>26.2</ele>
        <time>2020-06-02T10:01:52Z</time>
      </trkpt>
      <trkpt lat="46.17296" lon="-1.07272">
        <ele>26.3</ele>
        <time>2020-06-02T10:01:53Z</time>
      </trkpt>
      <trkpt lat="46.173" lon="-1.07266">
        <ele>26.4</ele>
        <time>2020-06-02T10:01:54Z</time>
      </trkpt>
      <trkpt lat="46.17302" lon="-1.07262">
        <ele>26.5</ele>
        <time>2020-06-02T10:01:55Z</time>
      </trkpt>
      <trkpt lat="46.17306" lon="-1.07256">
        <ele>26.6</ele>
        <time>2020-06-02T10:01:56Z</time>
      </trkpt>
      <trkpt lat="46.17308" lon="-1.0725">
        <ele>26.7</ele>
        <time>2020-06-02T10:01:57Z</time>
      </trkpt>
      <trkpt lat="46.17311" lon="-1.07245">
        <ele>26.8</ele>
        <time>2020-06-02T10:01:58Z</time>
      </trkpt>
      <trkpt lat="46.17313" lon="-1.0724">
        <ele>26.8</ele>
        <time>2020-06-02T10:01:59Z</time>
      </trkpt>
      <trkpt lat="46.17316" lon="-1.07235">
        <ele>26.9</ele>
        <time>2020-06-02T10:02:00Z</time>
      </trkpt>
      <trkpt lat="46.17319" lon="-1.0723">
        <ele>27</ele>
        <time>2020-06-02T10:02:01Z</time>
      </trkpt>
      <trkpt lat="46.17322" lon="-1.07226">
        <ele>27.1</ele>
        <time>2020-06-02T10:02:02Z</time>
      </trkpt>
      <trkpt lat="46.17325" lon="-1.07221">
        <ele>27.1</ele>
        <time>2020-06-02T10:02:03Z</time>
      </trkpt>
      <trkpt lat="46.17328" lon="-1.07216">
        <ele>27.2</ele>
        <time>2020-06-02T10:02:04Z</time>
      </trkpt>
      <trkpt lat="46.17331" lon="-1.07212">
        <ele>27.3</ele>
        <time>2020-06-02T10:02:05Z</time>
      </trkpt>
      <trkpt lat="46.17334" lon="-1.07207">
        <ele>27.4</ele>
        <time>2020-06-02T10:02:06Z</time>
      </trkpt>
      <trkpt lat="46.17337" lon="-1.07203">
        <ele>27.5</ele>
        <time>2020-06-02T10:02:07Z</time>
      </trkpt>
      <trkpt lat="46.1734" lon="-1.07199">
        <ele>27.6</ele>
        <time>2020-06-02T10:02:08Z</time>
      </trkpt>
      <trkpt lat="46.17343" lon="-1.07194">
        <ele>27.7</ele>
        <time>2020-06-02T10:02:09Z</time>
      </trkpt>
      <trkpt lat="46.17344" lon="-1.07189">
        <ele>27.8</ele>
        <time>2020-06-02T10:02:10Z</time>
      </trkpt>
      <trkpt lat="46.17346" lon="-1.07183">
        <ele>27.8</ele>
        <time>2020-06-02T10:02:11Z</time>
      </trkpt>
      <trkpt lat="46.17348" lon="-1.07177">
        <ele>27.9</ele>
        <time>2020-06-02T10:02:12Z</time>
      </trkpt>
      <trkpt lat="46.1735" lon="-1.07173">
        <ele>28</ele>
        <time>2020-06-02T10:02:13Z</time>
      </trkpt>
      <trkpt lat="46.17353" lon="-1.07169">
        <ele>28.1</ele>
        <time>2020-06-02T10:02:14Z</time>
      </trkpt>
      <trkpt lat="46.17356" lon="-1.07166">
        <ele>28.1</ele>
        <time>2020-06-02T10:02:15Z</time>
      </trkpt>
      <trkpt lat="46.17359" lon="-1.07164">
        <ele>28.1</ele>
        <time>2020-06-02T10:02:16Z</time>
      </trkpt>
      <trkpt lat="46.17361" lon="-1.07161">
        <ele>28.1</ele>
        <time>2020-06-02T10:02:17Z</time>
      </trkpt>
      <trkpt lat="46.17363" lon="-1.07158">
        <ele>28.2</ele>
        <time>2020-06-02T10:02:18Z</time>
      </trkpt>
      <trkpt lat="46.17365" lon="-1.07154">
        <ele>28.2</ele>
        <time>2020-06-02T10:02:19Z</time>
      </trkpt>
      <trkpt lat="46.17366" lon="-1.07148">
        <ele>28.2</ele>
        <time>2020-06-02T10:02:20Z</time>
      </trkpt>
      <trkpt lat="46.17367" lon="-1.07145">
        <ele>28.3</ele>
        <time>2020-06-02T10:02:21Z</time>
      </trkpt>
      <trkpt lat="46.17368" lon="-1.0714">
        <ele>28.3</ele>
        <time>2020-06-02T10:02:22Z</time>
      </trkpt>
      <trkpt lat="46.17369" lon="-1.07135">
        <ele>28.4</ele>
        <time>2020-06-02T10:02:23Z</time>
      </trkpt>
      <trkpt lat="46.1737" lon="-1.07129">
        <ele>28.5</ele>
        <time>2020-06-02T10:02:24Z</time>
      </trkpt>
      <trkpt lat="46.17373" lon="-1.07124">
        <ele>28.6</ele>
        <time>2020-06-02T10:02:25Z</time>
      </trkpt>
      <trkpt lat="46.17376" lon="-1.07118">
        <ele>28.7</ele>
        <time>2020-06-02T10:02:26Z</time>
      </trkpt>
      <trkpt lat="46.17378" lon="-1.07112">
        <ele>28.8</ele>
        <time>2020-06-02T10:02:27Z</time>
      </trkpt>
      <trkpt lat="46.17381" lon="-1.07106">
        <ele>28.9</ele>
        <time>2020-06-02T10:02:28Z</time>
      </trkpt>
      <trkpt lat="46.17385" lon="-1.071">
        <ele>29</ele>
        <time>2020-06-02T10:02:29Z</time>
      </trkpt>
      <trkpt lat="46.17387" lon="-1.07095">
        <ele>29.1</ele>
        <time>2020-06-02T10:02:30Z</time>
      </trkpt>
      <trkpt lat="46.17389" lon="-1.07089">
        <ele>29.2</ele>
        <time>2020-06-02T10:02:31Z</time>
      </trkpt>
      <trkpt lat="46.17392" lon="-1.07085">
        <ele>29.3</ele>
        <time>2020-06-02T10:02:32Z</time>
      </trkpt>
      <trkpt lat="46.17394" lon="-1.07079">
        <ele>29.5</ele>
        <time>2020-06-02T10:02:33Z</time>
      </trkpt>
      <trkpt lat="46.17397" lon="-1.07074">
        <ele>29.6</ele>
        <time>2020-06-02T10:02:34Z</time>
      </trkpt>
      <trkpt lat="46.17399" lon="-1.07069">
        <ele>29.8</ele>
        <time>2020-06-02T10:02:35Z</time>
      </trkpt>
      <trkpt lat="46.17401" lon="-1.07063">
        <ele>29.9</ele>
        <time>2020-06-02T10:02:36Z</time>
      </trkpt>
      <trkpt lat="46.17405" lon="-1.07058">
        <ele>30.1</ele>
        <time>2020-06-02T10:02:37Z</time>
      </trkpt>
      <trkpt lat="46.17408" lon="-1.07053">
        <ele>30.2</ele>
        <time>2020-06-02T10:02:38Z</time>
      </trkpt>
      <trkpt lat="46.1741" lon="-1.07049">
        <ele>30.3</ele>
        <time>2020-06-02T10:02:39Z</time>
      </trkpt>
      <trkpt lat="46.17413" lon="-1.07044">
        <ele>30.5</ele>
        <time>2020-06-02T10:02:40Z</time>
      </trkpt>
      <trkpt lat="46.17414" lon="-1.07041">
        <ele>30.6</ele>
        <time>2020-06-02T10:02:41Z</time>
      </trkpt>
      <trkpt lat="46.17416" lon="-1.07037">
        <ele>30.7</ele>
        <time>2020-06-02T10:02:42Z</time>
      </trkpt>
      <trkpt lat="46.17418" lon="-1.07034">
        <ele>30.8</ele>
        <time>2020-06-02T10:02:43Z</time>
      </trkpt>
      <trkpt lat="46.17419" lon="-1.07029">
        <ele>30.9</ele>
        <time>2020-06-02T10:02:44Z</time>
      </trkpt>
      <trkpt lat="46.17422" lon="-1.07024">
        <ele>31.1</ele>
        <time>2020-06-02T10:02:45Z</time>
      </trkpt>
      <trkpt lat="46.17423" lon="-1.07021">
        <ele>31.2</ele>
        <time>2020-06-02T10:02:46Z</time>
      </trkpt>
      <trkpt lat="46.17426" lon="-1.07017">
        <ele>31.3</ele>
        <time>2020-06-02T10:02:47Z</time>
      </trkpt>
      <trkpt lat="46.1743" lon="-1.07014">
        <ele>31.4</ele>
        <time>2020-06-02T10:02:48Z</time>
      </trkpt>
      <trkpt lat="46.17434" lon="-1.07012">
        <ele>31.6</ele>
        <time>2020-06-02T10:02:49Z</time>
      </trkpt>
      <trkpt lat="46.17439" lon="-1.07011">
        <ele>31.7</ele>
        <time>2020-06-02T10:02:50Z</time>
      </trkpt>
      <trkpt lat="46.17444" lon="-1.07012">
        <ele>31.9</ele>
        <time>2020-06-02T10:02:51Z</time>
      </trkpt>
      <trkpt lat="46.17448" lon="-1.07014">
        <ele>32.1</ele>
        <time>2020-06-02T10:02:52Z</time>
      </trkpt>
      <trkpt lat="46.17452" lon="-1.07015">
        <ele>32.2</ele>
        <time>2020-06-02T10:02:53Z</time>
      </trkpt>
      <trkpt lat="46.17456" lon="-1.07015">
        <ele>32.3</ele>
        <time>2020-06-02T10:02:54Z</time>
      </trkpt>
      <trkpt lat="46.1746" lon="-1.07014">
        <ele>32.4</ele>
        <time>2020-06-02T10:02:55Z</time>
      </trkpt>
      <trkpt lat="46.17463" lon="-1.07012">
        <ele>32.5</ele>
        <time>2020-06-02T10:02:56Z</time>
      </trkpt>
      <trkpt lat="46.17468" lon="-1.07007">
        <ele>32.7</ele>
        <time>2020-06-02T10:02:57Z</time>
      </trkpt>
      <trkpt lat="46.17471" lon="-1.07003">
        <ele>32.8</ele>
        <time>2020-06-02T10:02:58Z</time>
      </trkpt>
      <trkpt lat="46.17474" lon="-1.07">
        <ele>32.8</ele>
        <time>2020-06-02T10:02:59Z</time>
      </trkpt>
      <trkpt lat="46.17478" lon="-1.06997">
        <ele>32.9</ele>
        <time>2020-06-02T10:03:00Z</time>
      </trkpt>
      <trkpt lat="46.17481" lon="-1.06993">
        <ele>33</ele>
        <time>2020-06-02T10:03:01Z</time>
      </trkpt>
      <trkpt lat="46.17485" lon="-1.06992">
        <ele>33</ele>
        <time>2020-06-02T10:03:02Z</time>
      </trkpt>
      <trkpt lat="46.17488" lon="-1.06993">
        <ele>33.1</ele>
        <time>2020-06-02T10:03:03Z</time>
      </trkpt>
      <trkpt lat="46.17491" lon="-1.06995">
        <ele>33.1</ele>
        <time>2020-06-02T10:03:04Z</time>
      </trkpt>
      <trkpt lat="46.17495" lon="-1.06998">
        <ele>33.1</ele>
        <time>2020-06-02T10:03:05Z</time>
      </trkpt>
      <trkpt lat="46.17497" lon="-1.06999">
        <ele>33.1</ele>
        <time>2020-06-02T10:03:06Z</time>
      </trkpt>
      <trkpt lat="46.175" lon="-1.07002">
        <ele>33.1</ele>
        <time>2020-06-02T10:03:07Z</time>
      </trkpt>
      <trkpt lat="46.17501" lon="-1.07003">
        <ele>33.1</ele>
        <time>2020-06-02T10:03:08Z</time>
      </trkpt>
      <trkpt lat="46.17502" lon="-1.07005">
        <ele>33.1</ele>
        <time>2020-06-02T10:03:09Z</time>
      </trkpt>
      <trkpt lat="46.17504" lon="-1.07005">
        <ele>33.1</ele>
        <time>2020-06-02T10:03:10Z</time>
      </trkpt>
      <trkpt lat="46.17505" lon="-1.07006">
        <ele>33.1</ele>
        <time>2020-06-02T10:03:11Z</time>
      </trkpt>
      <trkpt lat="46.17506" lon="-1.07006">
        <ele>33.1</ele>
        <time>2020-06-02T10:03:12Z</time>
      </trkpt>
      <trkpt lat="46.17508" lon="-1.07007">
        <ele>33.1</ele>
        <time>2020-06-02T10:03:13Z</time>
      </trkpt>
      <trkpt lat="46.1751" lon="-1.07007">
        <ele>33.1</ele>
        <time>2020-06-02T10:03:14Z</time>
      </trkpt>
      <trkpt lat="46.17512" lon="-1.07009">
        <ele>33.1</ele>
        <time>2020-06-02T10:03:15Z</time>
      </trkpt>
      <trkpt lat="46.17515" lon="-1.07011">
        <ele>33.1</ele>
        <time>2020-06-02T10:03:16Z</time>
      </trkpt>
      <trkpt lat="46.17519" lon="-1.07013">
        <ele>33.1</ele>
        <time>2020-06-02T10:03:17Z</time>
      </trkpt>
      <trkpt lat="46.17521" lon="-1.07014">
        <ele>33.1</ele>
        <time>2020-06-02T10:03:18Z</time>
      </trkpt>
      <trkpt lat="46.17524" lon="-1.07015">
        <ele>33.2</ele>
        <time>2020-06-02T10:03:19Z</time>
      </trkpt>
      <trkpt lat="46.17527" lon="-1.07016">
        <ele>33.2</ele>
        <time>2020-06-02T10:03:20Z</time>
      </trkpt>
      <trkpt lat="46.1753" lon="-1.07017">
        <ele>33.2</ele>
        <time>2020-06-02T10:03:21Z</time>
      </trkpt>
      <trkpt lat="46.17533" lon="-1.07018">
        <ele>33.2</ele>
        <time>2020-06-02T10:03:22Z</time>
      </trkpt>
      <trkpt lat="46.17534" lon="-1.07018">
        <ele>33.2</ele>
        <time>2020-06-02T10:03:23Z</time>
      </trkpt>
      <trkpt lat="46.17536" lon="-1.07018">
        <ele>33.2</ele>
        <time>2020-06-02T10:03:24Z</time>
      </trkpt>
      <trkpt lat="46.17538" lon="-1.07018">
        <ele>33.2</ele>
        <time>2020-06-02T10:03:25Z</time>
      </trkpt>
      <trkpt lat="46.17538" lon="-1.07018">
        <ele>33.2</ele>
        <time>2020-06-02T10:03:26Z</time>
      </trkpt>
      <trkpt lat="46.17538" lon="-1.07019">
        <ele>33.2</ele>
        <time>2020-06-02T10:03:27Z</time>
      </trkpt>
      <trkpt lat="46.17538" lon="-1.07019">
        <ele>33.2</ele>
        <time>2020-06-02T10:03:28Z</time>
      </trkpt>
      <trkpt lat="46.17538" lon="-1.07019">
        <ele>33.2</ele>
        <time>2020-06-02T10:03:29Z</time>
      </trkpt>
      <trkpt lat="46.17539" lon="-1.07019">
        <ele>33.2</ele>
        <time>2020-06-02T10:03:30Z</time>
      </trkpt>
      <trkpt lat="46.17539" lon="-1.07019">
        <ele>33.2</ele>
        <time>2020-06-02T10:03:31Z</time>
      </trkpt>
      <trkpt lat="46.17539" lon="-1.07019">
        <ele>33.2</ele>
        <time>2020-06-02T10:03:32Z</time>
      </trkpt>
      <trkpt lat="46.17539" lon="-1.07018">
        <ele>33.2</ele>
        <time>2020-06-02T10:03:33Z</time>
      </trkpt>
      <trkpt lat="46.17539" lon="-1.07019">
        <ele>33.2</ele>
        <time>2020-06-02T10:03:34Z</time>
      </trkpt>
      <trkpt lat="46.17539" lon="-1.07019">
        <ele>33.2</ele>
        <time>2020-06-02T10:03:35Z</time>
      </trkpt>
      <trkpt lat="46.17539" lon="-1.07019">
        <ele>33.2</ele>
        <time>2020-06-02T10:03:36Z</time>
      </trkpt>
      <trkpt lat="46.1754" lon="-1.07019">
        <ele>33.2</ele>
        <time>2020-06-02T10:03:37Z</time>
      </trkpt>
      <trkpt lat="46.1754" lon="-1.07019">
        <ele>33.2</ele>
        <time>2020-06-02T10:03:38Z</time>
      </trkpt>
      <trkpt lat="46.1754" lon="-1.07019">
        <ele>33.2</ele>
        <time>2020-06-02T10:03:39Z</time>
      </trkpt>
      <trkpt lat="46.1754" lon="-1.07019">
        <ele>33.2</ele>
        <time>2020-06-02T10:03:40Z</time>
      </trkpt>
      <trkpt lat="46.1754" lon="-1.07019">
        <ele>33.2</ele>
        <time>2020-06-02T10:03:41Z</time>
      </trkpt>
      <trkpt lat="46.1754" lon="-1.07019">
        <ele>33.2</ele>
        <time>2020-06-02T10:03:42Z</time>
      </trkpt>
      <trkpt lat="46.17541" lon="-1.07019">
        <ele>33.2</ele>
        <time>2020-06-02T10:03:43Z</time>
      </trkpt>
      <trkpt lat="46.17541" lon="-1.07018">
        <ele>33.2</ele>
        <time>2020-06-02T10:03:44Z</time>
      </trkpt>
      <trkpt lat="46.17541" lon="-1.07019">
        <ele>33.2</ele>
        <time>2020-06-02T10:03:45Z</time>
      </trkpt>
      <trkpt lat="46.17542" lon="-1.07019">
        <ele>33.2</ele>
        <time>2020-06-02T10:03:46Z</time>
      </trkpt>
      <trkpt lat="46.17542" lon="-1.07019">
        <ele>33.2</ele>
        <time>2020-06-02T10:03:47Z</time>
      </trkpt>
      <trkpt lat="46.17543" lon="-1.0702">
        <ele>33.2</ele>
        <time>2020-06-02T10:03:48Z</time>
      </trkpt>
      <trkpt lat="46.17544" lon="-1.0702">
        <ele>33.2</ele>
        <time>2020-06-02T10:03:49Z</time>
      </trkpt>
      <trkpt lat="46.17545" lon="-1.07018">
        <ele>33.2</ele>
        <time>2020-06-02T10:03:50Z</time>
      </trkpt>
      <trkpt lat="46.17546" lon="-1.07018">
        <ele>33.2</ele>
        <time>2020-06-02T10:03:51Z</time>
      </trkpt>
      <trkpt lat="46.17549" lon="-1.07015">
        <ele>33.2</ele>
        <time>2020-06-02T10:03:52Z</time>
      </trkpt>
      <trkpt lat="46.1755" lon="-1.07014">
        <ele>33.2</ele>
        <time>2020-06-02T10:03:53Z</time>
      </trkpt>
      <trkpt lat="46.17553" lon="-1.07011">
        <ele>33.2</ele>
        <time>2020-06-02T10:03:54Z</time>
      </trkpt>
      <trkpt lat="46.17557" lon="-1.07007">
        <ele>33.2</ele>
        <time>2020-06-02T10:03:55Z</time>
      </trkpt>
      <trkpt lat="46.1756" lon="-1.07003">
        <ele>33.2</ele>
        <time>2020-06-02T10:03:56Z</time>
      </trkpt>
      <trkpt lat="46.17564" lon="-1.06999">
        <ele>33.2</ele>
        <time>2020-06-02T10:03:57Z</time>
      </trkpt>
      <trkpt lat="46.17567" lon="-1.06995">
        <ele>33.2</ele>
        <time>2020-06-02T10:03:58Z</time>
      </trkpt>
      <trkpt lat="46.1757" lon="-1.0699">
        <ele>33.2</ele>
        <time>2020-06-02T10:03:59Z</time>
      </trkpt>
      <trkpt lat="46.17574" lon="-1.06985">
        <ele>33.2</ele>
        <time>2020-06-02T10:04:00Z</time>
      </trkpt>
      <trkpt lat="46.17577" lon="-1.06981">
        <ele>33.2</ele>
        <time>2020-06-02T10:04:01Z</time>
      </trkpt>
      <trkpt lat="46.1758" lon="-1.06976">
        <ele>33.2</ele>
        <time>2020-06-02T10:04:02Z</time>
      </trkpt>
      <trkpt lat="46.17583" lon="-1.06972">
        <ele>33.2</ele>
        <time>2020-06-02T10:04:03Z</time>
      </trkpt>
      <trkpt lat="46.17586" lon="-1.06967">
        <ele>33.2</ele>
        <time>2020-06-02T10:04:04Z</time>
      </trkpt>
      <trkpt lat="46.17589" lon="-1.06962">
        <ele>33.2</ele>
        <time>2020-06-02T10:04:05Z</time>
      </trkpt>
      <trkpt lat="46.17592" lon="-1.06957">
        <ele>33.2</ele>
        <time>2020-06-02T10:04:06Z</time>
      </trkpt>
      <trkpt lat="46.17595" lon="-1.06952">
        <ele>33.2</ele>
        <time>2020-06-02T10:04:07Z</time>
      </trkpt>
      <trkpt lat="46.17598" lon="-1.06947">
        <ele>33.2</ele>
        <time>2020-06-02T10:04:08Z</time>
      </trkpt>
      <trkpt lat="46.17602" lon="-1.06941">
        <ele>33.2</ele>
        <time>2020-06-02T10:04:09Z</time>
      </trkpt>
      <trkpt lat="46.17605" lon="-1.06937">
        <ele>33.2</ele>
        <time>2020-06-02T10:04:10Z</time>
      </trkpt>
      <trkpt lat="46.17609" lon="-1.0693">
        <ele>33.2</ele>
        <time>2020-06-02T10:04:11Z</time>
      </trkpt>
      <trkpt lat="46.17612" lon="-1.06924">
        <ele>33.2</ele>
        <time>2020-06-02T10:04:12Z</time>
      </trkpt>
      <trkpt lat="46.17616" lon="-1.06918">
        <ele>33.2</ele>
        <time>2020-06-02T10:04:13Z</time>
      </trkpt>
      <trkpt lat="46.1762" lon="-1.06912">
        <ele>33.2</ele>
        <time>2020-06-02T10:04:14Z</time>
      </trkpt>
      <trkpt lat="46.17624" lon="-1.06906">
        <ele>33.2</ele>
        <time>2020-06-02T10:04:15Z</time>
      </trkpt>
      <trkpt lat="46.17628" lon="-1.06899">
        <ele>33.2</ele>
        <time>2020-06-02T10:04:16Z</time>
      </trkpt>
      <trkpt lat="46.17632" lon="-1.06891">
        <ele>33.2</ele>
        <time>2020-06-02T10:04:17Z</time>
      </trkpt>
      <trkpt lat="46.17636" lon="-1.06884">
        <ele>33.1</ele>
        <time>2020-06-02T10:04:18Z</time>
      </trkpt>
      <trkpt lat="46.1764" lon="-1.06877">
        <ele>33.1</ele>
        <time>2020-06-02T10:04:19Z</time>
      </trkpt>
      <trkpt lat="46.17644" lon="-1.06871">
        <ele>33.1</ele>
        <time>2020-06-02T10:04:20Z</time>
      </trkpt>
      <trkpt lat="46.17648" lon="-1.06865">
        <ele>33.1</ele>
        <time>2020-06-02T10:04:21Z</time>
      </trkpt>
      <trkpt lat="46.17652" lon="-1.06859">
        <ele>33.1</ele>
        <time>2020-06-02T10:04:22Z</time>
      </trkpt>
      <trkpt lat="46.17656" lon="-1.06852">
        <ele>33.1</ele>
        <time>2020-06-02T10:04:23Z</time>
      </trkpt>
      <trkpt lat="46.17661" lon="-1.06845">
        <ele>33.1</ele>
        <time>2020-06-02T10:04:24Z</time>
      </trkpt>
      <trkpt lat="46.17665" lon="-1.06839">
        <ele>33.1</ele>
        <time>2020-06-02T10:04:25Z</time>
      </trkpt>
      <trkpt lat="46.17668" lon="-1.06833">
        <ele>33.1</ele>
        <time>2020-06-02T10:04:26Z</time>
      </trkpt>
      <trkpt lat="46.17672" lon="-1.06827">
        <ele>33.1</ele>
        <time>2020-06-02T10:04:27Z</time>
      </trkpt>
      <trkpt lat="46.17676" lon="-1.06821">
        <ele>33</ele>
        <time>2020-06-02T10:04:28Z</time>
      </trkpt>
      <trkpt lat="46.1768" lon="-1.06814">
        <ele>32.9</ele>
        <time>2020-06-02T10:04:29Z</time>
      </trkpt>
      <trkpt lat="46.17684" lon="-1.06807">
        <ele>32.9</ele>
        <time>2020-06-02T10:04:30Z</time>
      </trkpt>
      <trkpt lat="46.17688" lon="-1.06801">
        <ele>32.8</ele>
        <time>2020-06-02T10:04:31Z</time>
      </trkpt>
      <trkpt lat="46.17691" lon="-1.06793">
        <ele>32.7</ele>
        <time>2020-06-02T10:04:32Z</time>
      </trkpt>
      <trkpt lat="46.17695" lon="-1.06785">
        <ele>32.6</ele>
        <time>2020-06-02T10:04:33Z</time>
      </trkpt>
      <trkpt lat="46.17699" lon="-1.06777">
        <ele>32.5</ele>
        <time>2020-06-02T10:04:34Z</time>
      </trkpt>
      <trkpt lat="46.17703" lon="-1.06769">
        <ele>32.4</ele>
        <time>2020-06-02T10:04:35Z</time>
      </trkpt>
      <trkpt lat="46.17707" lon="-1.06762">
        <ele>32.3</ele>
        <time>2020-06-02T10:04:36Z</time>
      </trkpt>
      <trkpt lat="46.17711" lon="-1.06754">
        <ele>32.3</ele>
        <time>2020-06-02T10:04:37Z</time>
      </trkpt>
      <trkpt lat="46.17716" lon="-1.06746">
        <ele>32.2</ele>
        <time>2020-06-02T10:04:38Z</time>
      </trkpt>
      <trkpt lat="46.17721" lon="-1.06738">
        <ele>32.2</ele>
        <time>2020-06-02T10:04:39Z</time>
      </trkpt>
      <trkpt lat="46.17725" lon="-1.0673">
        <ele>32.1</ele>
        <time>2020-06-02T10:04:40Z</time>
      </trkpt>
      <trkpt lat="46.17729" lon="-1.06724">
        <ele>32</ele>
        <time>2020-06-02T10:04:41Z</time>
      </trkpt>
      <trkpt lat="46.17733" lon="-1.06718">
        <ele>32</ele>
        <time>2020-06-02T10:04:42Z</time>
      </trkpt>
      <trkpt lat="46.17737" lon="-1.06711">
        <ele>31.8</ele>
        <time>2020-06-02T10:04:43Z</time>
      </trkpt>
      <trkpt lat="46.17742" lon="-1.06705">
        <ele>31.7</ele>
        <time>2020-06-02T10:04:44Z</time>
      </trkpt>
      <trkpt lat="46.17746" lon="-1.06699">
        <ele>31.6</ele>
        <time>2020-06-02T10:04:45Z</time>
      </trkpt>
      <trkpt lat="46.1775" lon="-1.06692">
        <ele>31.5</ele>
        <time>2020-06-02T10:04:46Z</time>
      </trkpt>
      <trkpt lat="46.17754" lon="-1.06684">
        <ele>31.3</ele>
        <time>2020-06-02T10:04:47Z</time>
      </trkpt>
      <trkpt lat="46.17758" lon="-1.06676">
        <ele>31.2</ele>
        <time>2020-06-02T10:04:48Z</time>
      </trkpt>
      <trkpt lat="46.17761" lon="-1.06668">
        <ele>31.1</ele>
        <time>2020-06-02T10:04:49Z</time>
      </trkpt>
      <trkpt lat="46.17764" lon="-1.06662">
        <ele>30.9</ele>
        <time>2020-06-02T10:04:50Z</time>
      </trkpt>
      <trkpt lat="46.17768" lon="-1.06656">
        <ele>30.8</ele>
        <time>2020-06-02T10:04:51Z</time>
      </trkpt>
      <trkpt lat="46.17771" lon="-1.0665">
        <ele>30.7</ele>
        <time>2020-06-02T10:04:52Z</time>
      </trkpt>
      <trkpt lat="46.17773" lon="-1.06645">
        <ele>30.7</ele>
        <time>2020-06-02T10:04:53Z</time>
      </trkpt>
      <trkpt lat="46.17775" lon="-1.06638">
        <ele>30.6</ele>
        <time>2020-06-02T10:04:54Z</time>
      </trkpt>
      <trkpt lat="46.17778" lon="-1.06632">
        <ele>30.5</ele>
        <time>2020-06-02T10:04:55Z</time>
      </trkpt>
      <trkpt lat="46.17781" lon="-1.06627">
        <ele>30.5</ele>
        <time>2020-06-02T10:04:56Z</time>
      </trkpt>
      <trkpt lat="46.17784" lon="-1.06621">
        <ele>30.4</ele>
        <time>2020-06-02T10:04:57Z</time>
      </trkpt>
      <trkpt lat="46.17788" lon="-1.06613">
        <ele>30.3</ele>
        <time>2020-06-02T10:04:58Z</time>
      </trkpt>
      <trkpt lat="46.17792" lon="-1.06607">
        <ele>30.3</ele>
        <time>2020-06-02T10:04:59Z</time>
      </trkpt>
      <trkpt lat="46.17794" lon="-1.06603">
        <ele>30.3</ele>
        <time>2020-06-02T10:05:00Z</time>
      </trkpt>
      <trkpt lat="46.17795" lon="-1.06601">
        <ele>30.3</ele>
        <time>2020-06-02T10:05:01Z</time>
      </trkpt>
      <trkpt lat="46.17796" lon="-1.066">
        <ele>30.3</ele>
        <time>2020-06-02T10:05:02Z</time>
      </trkpt>
      <trkpt lat="46.17797" lon="-1.06598">
        <ele>30.3</ele>
        <time>2020-06-02T10:05:03Z</time>
      </trkpt>
      <trkpt lat="46.17799" lon="-1.06595">
        <ele>30.3</ele>
        <time>2020-06-02T10:05:04Z</time>
      </trkpt>
      <trkpt lat="46.17802" lon="-1.06591">
        <ele>30.1</ele>
        <time>2020-06-02T10:05:05Z</time>
      </trkpt>
      <trkpt lat="46.17803" lon="-1.06589">
        <ele>30</ele>
        <time>2020-06-02T10:05:06Z</time>
      </trkpt>
      <trkpt lat="46.17805" lon="-1.06584">
        <ele>29.9</ele>
        <time>2020-06-02T10:05:07Z</time>
      </trkpt>
      <trkpt lat="46.17808" lon="-1.06578">
        <ele>29.7</ele>
        <time>2020-06-02T10:05:08Z</time>
      </trkpt>
      <trkpt lat="46.17811" lon="-1.06572">
        <ele>29.5</ele>
        <time>2020-06-02T10:05:09Z</time>
      </trkpt>
      <trkpt lat="46.17815" lon="-1.06566">
        <ele>29.4</ele>
        <time>2020-06-02T10:05:10Z</time>
      </trkpt>
      <trkpt lat="46.17818" lon="-1.0656">
        <ele>29.2</ele>
        <time>2020-06-02T10:05:11Z</time>
      </trkpt>
      <trkpt lat="46.17822" lon="-1.06554">
        <ele>29.1</ele>
        <time>2020-06-02T10:05:12Z</time>
      </trkpt>
      <trkpt lat="46.17826" lon="-1.06547">
        <ele>28.9</ele>
        <time>2020-06-02T10:05:13Z</time>
      </trkpt>
      <trkpt lat="46.17831" lon="-1.06539">
        <ele>28.8</ele>
        <time>2020-06-02T10:05:14Z</time>
      </trkpt>
      <trkpt lat="46.17836" lon="-1.06532">
        <ele>28.5</ele>
        <time>2020-06-02T10:05:15Z</time>
      </trkpt>
      <trkpt lat="46.1784" lon="-1.06525">
        <ele>28.3</ele>
        <time>2020-06-02T10:05:16Z</time>
      </trkpt>
      <trkpt lat="46.17843" lon="-1.06518">
        <ele>28.2</ele>
        <time>2020-06-02T10:05:17Z</time>
      </trkpt>
      <trkpt lat="46.17848" lon="-1.0651">
        <ele>28</ele>
        <time>2020-06-02T10:05:18Z</time>
      </trkpt>
      <trkpt lat="46.17852" lon="-1.065">
        <ele>27.8</ele>
        <time>2020-06-02T10:05:19Z</time>
      </trkpt>
      <trkpt lat="46.17856" lon="-1.06491">
        <ele>27.6</ele>
        <time>2020-06-02T10:05:20Z</time>
      </trkpt>
      <trkpt lat="46.1786" lon="-1.06484">
        <ele>27.4</ele>
        <time>2020-06-02T10:05:21Z</time>
      </trkpt>
      <trkpt lat="46.17864" lon="-1.06476">
        <ele>27.3</ele>
        <time>2020-06-02T10:05:22Z</time>
      </trkpt>
      <trkpt lat="46.17869" lon="-1.06467">
        <ele>27.1</ele>
        <time>2020-06-02T10:05:23Z</time>
      </trkpt>
      <trkpt lat="46.17874" lon="-1.06459">
        <ele>27</ele>
        <time>2020-06-02T10:05:24Z</time>
      </trkpt>
      <trkpt lat="46.17879" lon="-1.06451">
        <ele>26.7</ele>
        <time>2020-06-02T10:05:25Z</time>
      </trkpt>
      <trkpt lat="46.17883" lon="-1.06444">
        <ele>26.6</ele>
        <time>2020-06-02T10:05:26Z</time>
      </trkpt>
      <trkpt lat="46.17887" lon="-1.06437">
        <ele>26.4</ele>
        <time>2020-06-02T10:05:27Z</time>
      </trkpt>
      <trkpt lat="46.17891" lon="-1.0643">
        <ele>26.2</ele>
        <time>2020-06-02T10:05:28Z</time>
      </trkpt>
      <trkpt lat="46.17896" lon="-1.06423">
        <ele>26.1</ele>
        <time>2020-06-02T10:05:29Z</time>
      </trkpt>
      <trkpt lat="46.17899" lon="-1.06416">
        <ele>25.9</ele>
        <time>2020-06-02T10:05:30Z</time>
      </trkpt>
      <trkpt lat="46.17903" lon="-1.0641">
        <ele>25.8</ele>
        <time>2020-06-02T10:05:31Z</time>
      </trkpt>
      <trkpt lat="46.17907" lon="-1.06402">
        <ele>25.6</ele>
        <time>2020-06-02T10:05:32Z</time>
      </trkpt>
      <trkpt lat="46.17912" lon="-1.06394">
        <ele>25.5</ele>
        <time>2020-06-02T10:05:33Z</time>
      </trkpt>
      <trkpt lat="46.17916" lon="-1.06385">
        <ele>25.3</ele>
        <time>2020-06-02T10:05:34Z</time>
      </trkpt>
      <trkpt lat="46.17921" lon="-1.06377">
        <ele>25.1</ele>
        <time>2020-06-02T10:05:35Z</time>
      </trkpt>
      <trkpt lat="46.17925" lon="-1.0637">
        <ele>25</ele>
        <time>2020-06-02T10:05:36Z</time>
      </trkpt>
      <trkpt lat="46.1793" lon="-1.06361">
        <ele>24.9</ele>
        <time>2020-06-02T10:05:37Z</time>
      </trkpt>
      <trkpt lat="46.17934" lon="-1.06352">
        <ele>24.7</ele>
        <time>2020-06-02T10:05:38Z</time>
      </trkpt>
      <trkpt lat="46.17939" lon="-1.06344">
        <ele>24.6</ele>
        <time>2020-06-02T10:05:39Z</time>
      </trkpt>
      <trkpt lat="46.17943" lon="-1.06337">
        <ele>24.4</ele>
        <time>2020-06-02T10:05:40Z</time>
      </trkpt>
      <trkpt lat="46.17947" lon="-1.06328">
        <ele>24.3</ele>
        <time>2020-06-02T10:05:41Z</time>
      </trkpt>
      <trkpt lat="46.17951" lon="-1.06321">
        <ele>24.2</ele>
        <time>2020-06-02T10:05:42Z</time>
      </trkpt>
      <trkpt lat="46.17956" lon="-1.06313">
        <ele>24</ele>
        <time>2020-06-02T10:05:43Z</time>
      </trkpt>
      <trkpt lat="46.17959" lon="-1.06306">
        <ele>23.9</ele>
        <time>2020-06-02T10:05:44Z</time>
      </trkpt>
      <trkpt lat="46.17963" lon="-1.06298">
        <ele>23.7</ele>
        <time>2020-06-02T10:05:45Z</time>
      </trkpt>
      <trkpt lat="46.17967" lon="-1.06292">
        <ele>23.6</ele>
        <time>2020-06-02T10:05:46Z</time>
      </trkpt>
      <trkpt lat="46.17971" lon="-1.06284">
        <ele>23.4</ele>
        <time>2020-06-02T10:05:47Z</time>
      </trkpt>
      <trkpt lat="46.17975" lon="-1.06277">
        <ele>23.3</ele>
        <time>2020-06-02T10:05:48Z</time>
      </trkpt>
      <trkpt lat="46.1798" lon="-1.06268">
        <ele>23.2</ele>
        <time>2020-06-02T10:05:49Z</time>
      </trkpt>
      <trkpt lat="46.17984" lon="-1.06259">
        <ele>23</ele>
        <time>2020-06-02T10:05:50Z</time>
      </trkpt>
      <trkpt lat="46.17988" lon="-1.06252">
        <ele>22.9</ele>
        <time>2020-06-02T10:05:51Z</time>
      </trkpt>
      <trkpt lat="46.17992" lon="-1.06243">
        <ele>22.7</ele>
        <time>2020-06-02T10:05:52Z</time>
      </trkpt>
      <trkpt lat="46.17997" lon="-1.06235">
        <ele>22.5</ele>
        <time>2020-06-02T10:05:53Z</time>
      </trkpt>
      <trkpt lat="46.18002" lon="-1.06226">
        <ele>22.4</ele>
        <time>2020-06-02T10:05:54Z</time>
      </trkpt>
      <trkpt lat="46.18006" lon="-1.06218">
        <ele>22.3</ele>
        <time>2020-06-02T10:05:55Z</time>
      </trkpt>
      <trkpt lat="46.1801" lon="-1.06211">
        <ele>22.3</ele>
        <time>2020-06-02T10:05:56Z</time>
      </trkpt>
      <trkpt lat="46.18014" lon="-1.06203">
        <ele>22.2</ele>
        <time>2020-06-02T10:05:57Z</time>
      </trkpt>
      <trkpt lat="46.18019" lon="-1.06194">
        <ele>22.1</ele>
        <time>2020-06-02T10:05:58Z</time>
      </trkpt>
      <trkpt lat="46.18025" lon="-1.06185">
        <ele>22</ele>
        <time>2020-06-02T10:05:59Z</time>
      </trkpt>
      <trkpt lat="46.18031" lon="-1.06175">
        <ele>21.8</ele>
        <time>2020-06-02T10:06:00Z</time>
      </trkpt>
      <trkpt lat="46.18034" lon="-1.06169">
        <ele>21.7</ele>
        <time>2020-06-02T10:06:01Z</time>
      </trkpt>
      <trkpt lat="46.18039" lon="-1.06162">
        <ele>21.6</ele>
        <time>2020-06-02T10:06:02Z</time>
      </trkpt>
      <trkpt lat="46.18044" lon="-1.06155">
        <ele>21.4</ele>
        <time>2020-06-02T10:06:03Z</time>
      </trkpt>
      <trkpt lat="46.18047" lon="-1.06147">
        <ele>21.3</ele>
        <time>2020-06-02T10:06:04Z</time>
      </trkpt>
      <trkpt lat="46.18052" lon="-1.0614">
        <ele>21.2</ele>
        <time>2020-06-02T10:06:05Z</time>
      </trkpt>
      <trkpt lat="46.18057" lon="-1.06132">
        <ele>21.2</ele>
        <time>2020-06-02T10:06:06Z</time>
      </trkpt>
      <trkpt lat="46.18061" lon="-1.06124">
        <ele>21.1</ele>
        <time>2020-06-02T10:06:07Z</time>
      </trkpt>
      <trkpt lat="46.18066" lon="-1.06116">
        <ele>21.1</ele>
        <time>2020-06-02T10:06:08Z</time>
      </trkpt>
      <trkpt lat="46.18071" lon="-1.06107">
        <ele>21</ele>
        <time>2020-06-02T10:06:09Z</time>
      </trkpt>
      <trkpt lat="46.18075" lon="-1.06098">
        <ele>21</ele>
        <time>2020-06-02T10:06:10Z</time>
      </trkpt>
      <trkpt lat="46.1808" lon="-1.0609">
        <ele>21</ele>
        <time>2020-06-02T10:06:11Z</time>
      </trkpt>
      <trkpt lat="46.18085" lon="-1.06083">
        <ele>21</ele>
        <time>2020-06-02T10:06:12Z</time>
      </trkpt>
      <trkpt lat="46.18089" lon="-1.06076">
        <ele>20.9</ele>
        <time>2020-06-02T10:06:13Z</time>
      </trkpt>
      <trkpt lat="46.18094" lon="-1.06067">
        <ele>20.9</ele>
        <time>2020-06-02T10:06:14Z</time>
      </trkpt>
      <trkpt lat="46.18097" lon="-1.0606">
        <ele>20.8</ele>
        <time>2020-06-02T10:06:15Z</time>
      </trkpt>
      <trkpt lat="46.18101" lon="-1.06052">
        <ele>20.7</ele>
        <time>2020-06-02T10:06:16Z</time>
      </trkpt>
      <trkpt lat="46.18105" lon="-1.06045">
        <ele>20.6</ele>
        <time>2020-06-02T10:06:17Z</time>
      </trkpt>
      <trkpt lat="46.1811" lon="-1.06037">
        <ele>20.5</ele>
        <time>2020-06-02T10:06:18Z</time>
      </trkpt>
      <trkpt lat="46.18113" lon="-1.0603">
        <ele>20.4</ele>
        <time>2020-06-02T10:06:19Z</time>
      </trkpt>
      <trkpt lat="46.18118" lon="-1.06022">
        <ele>20.4</ele>
        <time>2020-06-02T10:06:20Z</time>
      </trkpt>
      <trkpt lat="46.18123" lon="-1.06013">
        <ele>20.3</ele>
        <time>2020-06-02T10:06:21Z</time>
      </trkpt>
      <trkpt lat="46.18128" lon="-1.06005">
        <ele>20.2</ele>
        <time>2020-06-02T10:06:22Z</time>
      </trkpt>
      <trkpt lat="46.18133" lon="-1.05997">
        <ele>20.1</ele>
        <time>2020-06-02T10:06:23Z</time>
      </trkpt>
      <trkpt lat="46.18139" lon="-1.05989">
        <ele>20</ele>
        <time>2020-06-02T10:06:24Z</time>
      </trkpt>
      <trkpt lat="46.18144" lon="-1.05981">
        <ele>19.9</ele>
        <time>2020-06-02T10:06:25Z</time>
      </trkpt>
      <trkpt lat="46.18149" lon="-1.05973">
        <ele>19.8</ele>
        <time>2020-06-02T10:06:26Z</time>
      </trkpt>
      <trkpt lat="46.18154" lon="-1.05965">
        <ele>19.7</ele>
        <time>2020-06-02T10:06:27Z</time>
      </trkpt>
      <trkpt lat="46.18159" lon="-1.05957">
        <ele>19.6</ele>
        <time>2020-06-02T10:06:28Z</time>
      </trkpt>
      <trkpt lat="46.18164" lon="-1.05949">
        <ele>19.6</ele>
        <time>2020-06-02T10:06:29Z</time>
      </trkpt>
      <trkpt lat="46.18168" lon="-1.05941">
        <ele>19.5</ele>
        <time>2020-06-02T10:06:30Z</time>
      </trkpt>
      <trkpt lat="46.18172" lon="-1.05933">
        <ele>19.4</ele>
        <time>2020-06-02T10:06:31Z</time>
      </trkpt>
      <trkpt lat="46.18176" lon="-1.05925">
        <ele>19.4</ele>
        <time>2020-06-02T10:06:32Z</time>
      </trkpt>
      <trkpt lat="46.18181" lon="-1.05918">
        <ele>19.3</ele>
        <time>2020-06-02T10:06:33Z</time>
      </trkpt>
      <trkpt lat="46.18185" lon="-1.0591">
        <ele>19.3</ele>
        <time>2020-06-02T10:06:34Z</time>
      </trkpt>
      <trkpt lat="46.18189" lon="-1.05902">
        <ele>19.2</ele>
        <time>2020-06-02T10:06:35Z</time>
      </trkpt>
      <trkpt lat="46.18194" lon="-1.05894">
        <ele>19.2</ele>
        <time>2020-06-02T10:06:36Z</time>
      </trkpt>
      <trkpt lat="46.18198" lon="-1.05886">
        <ele>19.1</ele>
        <time>2020-06-02T10:06:37Z</time>
      </trkpt>
      <trkpt lat="46.18202" lon="-1.05878">
        <ele>19.1</ele>
        <time>2020-06-02T10:06:38Z</time>
      </trkpt>
      <trkpt lat="46.18206" lon="-1.05872">
        <ele>19</ele>
        <time>2020-06-02T10:06:39Z</time>
      </trkpt>
      <trkpt lat="46.18211" lon="-1.05865">
        <ele>19</ele>
        <time>2020-06-02T10:06:40Z</time>
      </trkpt>
      <trkpt lat="46.18216" lon="-1.05857">
        <ele>19</ele>
        <time>2020-06-02T10:06:41Z</time>
      </trkpt>
      <trkpt lat="46.18221" lon="-1.05851">
        <ele>19</ele>
        <time>2020-06-02T10:06:42Z</time>
      </trkpt>
      <trkpt lat="46.18226" lon="-1.05844">
        <ele>19</ele>
        <time>2020-06-02T10:06:43Z</time>
      </trkpt>
      <trkpt lat="46.18232" lon="-1.05838">
        <ele>19</ele>
        <time>2020-06-02T10:06:44Z</time>
      </trkpt>
      <trkpt lat="46.18239" lon="-1.05832">
        <ele>19</ele>
        <time>2020-06-02T10:06:45Z</time>
      </trkpt>
      <trkpt lat="46.18245" lon="-1.05825">
        <ele>18.9</ele>
        <time>2020-06-02T10:06:46Z</time>
      </trkpt>
      <trkpt lat="46.18251" lon="-1.0582">
        <ele>18.9</ele>
        <time>2020-06-02T10:06:47Z</time>
      </trkpt>
      <trkpt lat="46.18257" lon="-1.05815">
        <ele>18.9</ele>
        <time>2020-06-02T10:06:48Z</time>
      </trkpt>
      <trkpt lat="46.18261" lon="-1.0581">
        <ele>18.9</ele>
        <time>2020-06-02T10:06:49Z</time>
      </trkpt>
      <trkpt lat="46.18267" lon="-1.05805">
        <ele>18.9</ele>
        <time>2020-06-02T10:06:50Z</time>
      </trkpt>
      <trkpt lat="46.18274" lon="-1.05799">
        <ele>18.9</ele>
        <time>2020-06-02T10:06:51Z</time>
      </trkpt>
      <trkpt lat="46.18279" lon="-1.05794">
        <ele>18.9</ele>
        <time>2020-06-02T10:06:52Z</time>
      </trkpt>
      <trkpt lat="46.18283" lon="-1.05789">
        <ele>18.9</ele>
        <time>2020-06-02T10:06:53Z</time>
      </trkpt>
      <trkpt lat="46.18288" lon="-1.05784">
        <ele>18.9</ele>
        <time>2020-06-02T10:06:54Z</time>
      </trkpt>
      <trkpt lat="46.18293" lon="-1.0578">
        <ele>18.9</ele>
        <time>2020-06-02T10:06:55Z</time>
      </trkpt>
      <trkpt lat="46.18297" lon="-1.05776">
        <ele>18.9</ele>
        <time>2020-06-02T10:06:56Z</time>
      </trkpt>
      <trkpt lat="46.183" lon="-1.05772">
        <ele>18.9</ele>
        <time>2020-06-02T10:06:57Z</time>
      </trkpt>
      <trkpt lat="46.18303" lon="-1.05769">
        <ele>18.8</ele>
        <time>2020-06-02T10:06:58Z</time>
      </trkpt>
      <trkpt lat="46.18304" lon="-1.05768">
        <ele>18.8</ele>
        <time>2020-06-02T10:06:59Z</time>
      </trkpt>
      <trkpt lat="46.18306" lon="-1.05764">
        <ele>18.7</ele>
        <time>2020-06-02T10:07:00Z</time>
      </trkpt>
      <trkpt lat="46.18306" lon="-1.05763">
        <ele>18.7</ele>
        <time>2020-06-02T10:07:01Z</time>
      </trkpt>
      <trkpt lat="46.18307" lon="-1.05763">
        <ele>18.7</ele>
        <time>2020-06-02T10:07:02Z</time>
      </trkpt>
      <trkpt lat="46.18307" lon="-1.05764">
        <ele>18.7</ele>
        <time>2020-06-02T10:07:03Z</time>
      </trkpt>
      <trkpt lat="46.18307" lon="-1.05763">
        <ele>18.7</ele>
        <time>2020-06-02T10:07:04Z</time>
      </trkpt>
      <trkpt lat="46.18309" lon="-1.05762">
        <ele>18.7</ele>
        <time>2020-06-02T10:07:05Z</time>
      </trkpt>
      <trkpt lat="46.18309" lon="-1.05761">
        <ele>18.7</ele>
        <time>2020-06-02T10:07:06Z</time>
      </trkpt>
      <trkpt lat="46.18311" lon="-1.05759">
        <ele>18.8</ele>
        <time>2020-06-02T10:07:07Z</time>
      </trkpt>
      <trkpt lat="46.18313" lon="-1.05758">
        <ele>18.8</ele>
        <time>2020-06-02T10:07:08Z</time>
      </trkpt>
      <trkpt lat="46.18314" lon="-1.05757">
        <ele>18.8</ele>
        <time>2020-06-02T10:07:09Z</time>
      </trkpt>
      <trkpt lat="46.18318" lon="-1.05754">
        <ele>18.8</ele>
        <time>2020-06-02T10:07:10Z</time>
      </trkpt>
      <trkpt lat="46.18319" lon="-1.05753">
        <ele>18.8</ele>
        <time>2020-06-02T10:07:11Z</time>
      </trkpt>
      <trkpt lat="46.18322" lon="-1.05751">
        <ele>18.8</ele>
        <time>2020-06-02T10:07:12Z</time>
      </trkpt>
      <trkpt lat="46.18325" lon="-1.05747">
        <ele>18.8</ele>
        <time>2020-06-02T10:07:13Z</time>
      </trkpt>
      <trkpt lat="46.18328" lon="-1.05745">
        <ele>18.8</ele>
        <time>2020-06-02T10:07:14Z</time>
      </trkpt>
      <trkpt lat="46.18331" lon="-1.05741">
        <ele>18.8</ele>
        <time>2020-06-02T10:07:15Z</time>
      </trkpt>
      <trkpt lat="46.18335" lon="-1.05738">
        <ele>18.7</ele>
        <time>2020-06-02T10:07:16Z</time>
      </trkpt>
      <trkpt lat="46.18338" lon="-1.05734">
        <ele>18.7</ele>
        <time>2020-06-02T10:07:17Z</time>
      </trkpt>
      <trkpt lat="46.18341" lon="-1.0573">
        <ele>18.7</ele>
        <time>2020-06-02T10:07:18Z</time>
      </trkpt>
      <trkpt lat="46.18344" lon="-1.05726">
        <ele>18.7</ele>
        <time>2020-06-02T10:07:19Z</time>
      </trkpt>
      <trkpt lat="46.18348" lon="-1.05721">
        <ele>18.7</ele>
        <time>2020-06-02T10:07:20Z</time>
      </trkpt>
      <trkpt lat="46.18352" lon="-1.05719">
        <ele>18.7</ele>
        <time>2020-06-02T10:07:21Z</time>
      </trkpt>
      <trkpt lat="46.18356" lon="-1.05714">
        <ele>18.7</ele>
        <time>2020-06-02T10:07:22Z</time>
      </trkpt>
      <trkpt lat="46.1836" lon="-1.0571">
        <ele>18.7</ele>
        <time>2020-06-02T10:07:23Z</time>
      </trkpt>
      <trkpt lat="46.18364" lon="-1.05704">
        <ele>18.7</ele>
        <time>2020-06-02T10:07:24Z</time>
      </trkpt>
      <trkpt lat="46.18369" lon="-1.05698">
        <ele>18.7</ele>
        <time>2020-06-02T10:07:25Z</time>
      </trkpt>
      <trkpt lat="46.18374" lon="-1.05693">
        <ele>18.6</ele>
        <time>2020-06-02T10:07:26Z</time>
      </trkpt>
      <trkpt lat="46.18379" lon="-1.05689">
        <ele>18.6</ele>
        <time>2020-06-02T10:07:27Z</time>
      </trkpt>
      <trkpt lat="46.18384" lon="-1.05684">
        <ele>18.7</ele>
        <time>2020-06-02T10:07:28Z</time>
      </trkpt>
      <trkpt lat="46.18389" lon="-1.05678">
        <ele>18.7</ele>
        <time>2020-06-02T10:07:29Z</time>
      </trkpt>
      <trkpt lat="46.18395" lon="-1.05672">
        <ele>18.7</ele>
        <time>2020-06-02T10:07:30Z</time>
      </trkpt>
      <trkpt lat="46.184" lon="-1.05668">
        <ele>18.8</ele>
        <time>2020-06-02T10:07:31Z</time>
      </trkpt>
      <trkpt lat="46.18405" lon="-1.05664">
        <ele>18.9</ele>
        <time>2020-06-02T10:07:32Z</time>
      </trkpt>
      <trkpt lat="46.18409" lon="-1.0566">
        <ele>18.9</ele>
        <time>2020-06-02T10:07:33Z</time>
      </trkpt>
      <trkpt lat="46.18413" lon="-1.05655">
        <ele>18.9</ele>
        <time>2020-06-02T10:07:34Z</time>
      </trkpt>
      <trkpt lat="46.18419" lon="-1.05652">
        <ele>19</ele>
        <time>2020-06-02T10:07:35Z</time>
      </trkpt>
      <trkpt lat="46.18423" lon="-1.05647">
        <ele>19</ele>
        <time>2020-06-02T10:07:36Z</time>
      </trkpt>
      <trkpt lat="46.18428" lon="-1.05642">
        <ele>19</ele>
        <time>2020-06-02T10:07:37Z</time>
      </trkpt>
      <trkpt lat="46.18431" lon="-1.05638">
        <ele>19</ele>
        <time>2020-06-02T10:07:38Z</time>
      </trkpt>
      <trkpt lat="46.18436" lon="-1.05633">
        <ele>19</ele>
        <time>2020-06-02T10:07:39Z</time>
      </trkpt>
      <trkpt lat="46.18439" lon="-1.05629">
        <ele>19</ele>
        <time>2020-06-02T10:07:40Z</time>
      </trkpt>
      <trkpt lat="46.18444" lon="-1.05625">
        <ele>18.9</ele>
        <time>2020-06-02T10:07:41Z</time>
      </trkpt>
      <trkpt lat="46.18448" lon="-1.05621">
        <ele>18.9</ele>
        <time>2020-06-02T10:07:42Z</time>
      </trkpt>
      <trkpt lat="46.18453" lon="-1.05617">
        <ele>18.9</ele>
        <time>2020-06-02T10:07:43Z</time>
      </trkpt>
      <trkpt lat="46.18457" lon="-1.05612">
        <ele>18.9</ele>
        <time>2020-06-02T10:07:44Z</time>
      </trkpt>
      <trkpt lat="46.18461" lon="-1.05607">
        <ele>18.8</ele>
        <time>2020-06-02T10:07:45Z</time>
      </trkpt>
      <trkpt lat="46.18465" lon="-1.05604">
        <ele>18.8</ele>
        <time>2020-06-02T10:07:46Z</time>
      </trkpt>
      <trkpt lat="46.18469" lon="-1.05599">
        <ele>18.8</ele>
        <time>2020-06-02T10:07:47Z</time>
      </trkpt>
      <trkpt lat="46.18473" lon="-1.05595">
        <ele>18.8</ele>
        <time>2020-06-02T10:07:48Z</time>
      </trkpt>
      <trkpt lat="46.18478" lon="-1.05591">
        <ele>18.8</ele>
        <time>2020-06-02T10:07:49Z</time>
      </trkpt>
      <trkpt lat="46.18482" lon="-1.05587">
        <ele>18.7</ele>
        <time>2020-06-02T10:07:50Z</time>
      </trkpt>
      <trkpt lat="46.18487" lon="-1.05582">
        <ele>18.7</ele>
        <time>2020-06-02T10:07:51Z</time>
      </trkpt>
      <trkpt lat="46.1849" lon="-1.05577">
        <ele>18.7</ele>
        <time>2020-06-02T10:07:52Z</time>
      </trkpt>
      <trkpt lat="46.18494" lon="-1.05573">
        <ele>18.7</ele>
        <time>2020-06-02T10:07:53Z</time>
      </trkpt>
      <trkpt lat="46.18498" lon="-1.05568">
        <ele>18.6</ele>
        <time>2020-06-02T10:07:54Z</time>
      </trkpt>
      <trkpt lat="46.18502" lon="-1.05563">
        <ele>18.5</ele>
        <time>2020-06-02T10:07:55Z</time>
      </trkpt>
      <trkpt lat="46.18506" lon="-1.05558">
        <ele>18.5</ele>
        <time>2020-06-02T10:07:56Z</time>
      </trkpt>
      <trkpt lat="46.18511" lon="-1.05553">
        <ele>18.4</ele>
        <time>2020-06-02T10:07:57Z</time>
      </trkpt>
      <trkpt lat="46.18516" lon="-1.05548">
        <ele>18.3</ele>
        <time>2020-06-02T10:07:58Z</time>
      </trkpt>
      <trkpt lat="46.1852" lon="-1.05544">
        <ele>18.2</ele>
        <time>2020-06-02T10:07:59Z</time>
      </trkpt>
      <trkpt lat="46.18525" lon="-1.0554">
        <ele>18.1</ele>
        <time>2020-06-02T10:08:00Z</time>
      </trkpt>
      <trkpt lat="46.1853" lon="-1.05534">
        <ele>18</ele>
        <time>2020-06-02T10:08:01Z</time>
      </trkpt>
      <trkpt lat="46.18535" lon="-1.05529">
        <ele>17.9</ele>
        <time>2020-06-02T10:08:02Z</time>
      </trkpt>
      <trkpt lat="46.18541" lon="-1.05522">
        <ele>17.8</ele>
        <time>2020-06-02T10:08:03Z</time>
      </trkpt>
      <trkpt lat="46.18547" lon="-1.05515">
        <ele>17.7</ele>
        <time>2020-06-02T10:08:04Z</time>
      </trkpt>
      <trkpt lat="46.18552" lon="-1.05511">
        <ele>17.7</ele>
        <time>2020-06-02T10:08:05Z</time>
      </trkpt>
      <trkpt lat="46.18556" lon="-1.05507">
        <ele>17.6</ele>
        <time>2020-06-02T10:08:06Z</time>
      </trkpt>
      <trkpt lat="46.18559" lon="-1.05504">
        <ele>17.6</ele>
        <time>2020-06-02T10:08:07Z</time>
      </trkpt>
      <trkpt lat="46.18562" lon="-1.05501">
        <ele>17.5</ele>
        <time>2020-06-02T10:08:08Z</time>
      </trkpt>
      <trkpt lat="46.18566" lon="-1.05497">
        <ele>17.5</ele>
        <time>2020-06-02T10:08:09Z</time>
      </trkpt>
      <trkpt lat="46.18571" lon="-1.05492">
        <ele>17.4</ele>
        <time>2020-06-02T10:08:10Z</time>
      </trkpt>
      <trkpt lat="46.18576" lon="-1.05488">
        <ele>17.4</ele>
        <time>2020-06-02T10:08:11Z</time>
      </trkpt>
      <trkpt lat="46.18581" lon="-1.05484">
        <ele>17.3</ele>
        <time>2020-06-02T10:08:12Z</time>
      </trkpt>
      <trkpt lat="46.18586" lon="-1.0548">
        <ele>17.2</ele>
        <time>2020-06-02T10:08:13Z</time>
      </trkpt>
      <trkpt lat="46.18591" lon="-1.05475">
        <ele>17.2</ele>
        <time>2020-06-02T10:08:14Z</time>
      </trkpt>
      <trkpt lat="46.18597" lon="-1.0547">
        <ele>17.1</ele>
        <time>2020-06-02T10:08:15Z</time>
      </trkpt>
      <trkpt lat="46.18603" lon="-1.05466">
        <ele>17</ele>
        <time>2020-06-02T10:08:16Z</time>
      </trkpt>
      <trkpt lat="46.18609" lon="-1.05461">
        <ele>16.9</ele>
        <time>2020-06-02T10:08:17Z</time>
      </trkpt>
      <trkpt lat="46.18614" lon="-1.05457">
        <ele>16.9</ele>
        <time>2020-06-02T10:08:18Z</time>
      </trkpt>
      <trkpt lat="46.18618" lon="-1.05453">
        <ele>16.8</ele>
        <time>2020-06-02T10:08:19Z</time>
      </trkpt>
      <trkpt lat="46.18623" lon="-1.05449">
        <ele>16.7</ele>
        <time>2020-06-02T10:08:20Z</time>
      </trkpt>
      <trkpt lat="46.18626" lon="-1.05445">
        <ele>16.6</ele>
        <time>2020-06-02T10:08:21Z</time>
      </trkpt>
      <trkpt lat="46.1863" lon="-1.0544">
        <ele>16.6</ele>
        <time>2020-06-02T10:08:22Z</time>
      </trkpt>
      <trkpt lat="46.18633" lon="-1.05437">
        <ele>16.5</ele>
        <time>2020-06-02T10:08:23Z</time>
      </trkpt>
      <trkpt lat="46.18637" lon="-1.05434">
        <ele>16.5</ele>
        <time>2020-06-02T10:08:24Z</time>
      </trkpt>
      <trkpt lat="46.1864" lon="-1.05431">
        <ele>16.4</ele>
        <time>2020-06-02T10:08:25Z</time>
      </trkpt>
      <trkpt lat="46.18644" lon="-1.05427">
        <ele>16.4</ele>
        <time>2020-06-02T10:08:26Z</time>
      </trkpt>
      <trkpt lat="46.18649" lon="-1.05424">
        <ele>16.3</ele>
        <time>2020-06-02T10:08:27Z</time>
      </trkpt>
      <trkpt lat="46.18655" lon="-1.0542">
        <ele>16.3</ele>
        <time>2020-06-02T10:08:28Z</time>
      </trkpt>
      <trkpt lat="46.1866" lon="-1.05417">
        <ele>16.2</ele>
        <time>2020-06-02T10:08:29Z</time>
      </trkpt>
      <trkpt lat="46.18666" lon="-1.05414">
        <ele>16.2</ele>
        <time>2020-06-02T10:08:30Z</time>
      </trkpt>
      <trkpt lat="46.18671" lon="-1.05411">
        <ele>16.1</ele>
        <time>2020-06-02T10:08:31Z</time>
      </trkpt>
      <trkpt lat="46.18677" lon="-1.05408">
        <ele>16.1</ele>
        <time>2020-06-02T10:08:32Z</time>
      </trkpt>
      <trkpt lat="46.18682" lon="-1.05406">
        <ele>16.1</ele>
        <time>2020-06-02T10:08:33Z</time>
      </trkpt>
      <trkpt lat="46.18688" lon="-1.05404">
        <ele>16</ele>
        <time>2020-06-02T10:08:34Z</time>
      </trkpt>
      <trkpt lat="46.18695" lon="-1.05401">
        <ele>16</ele>
        <time>2020-06-02T10:08:35Z</time>
      </trkpt>
      <trkpt lat="46.187" lon="-1.054">
        <ele>16</ele>
        <time>2020-06-02T10:08:36Z</time>
      </trkpt>
      <trkpt lat="46.18706" lon="-1.054">
        <ele>16</ele>
        <time>2020-06-02T10:08:37Z</time>
      </trkpt>
      <trkpt lat="46.18714" lon="-1.054">
        <ele>16</ele>
        <time>2020-06-02T10:08:38Z</time>
      </trkpt>
      <trkpt lat="46.1872" lon="-1.05399">
        <ele>16</ele>
        <time>2020-06-02T10:08:39Z</time>
      </trkpt>
      <trkpt lat="46.18725" lon="-1.05398">
        <ele>16</ele>
        <time>2020-06-02T10:08:40Z</time>
      </trkpt>
      <trkpt lat="46.18729" lon="-1.05397">
        <ele>16</ele>
        <time>2020-06-02T10:08:41Z</time>
      </trkpt>
      <trkpt lat="46.18734" lon="-1.05397">
        <ele>16</ele>
        <time>2020-06-02T10:08:42Z</time>
      </trkpt>
      <trkpt lat="46.18738" lon="-1.05396">
        <ele>16</ele>
        <time>2020-06-02T10:08:43Z</time>
      </trkpt>
      <trkpt lat="46.18743" lon="-1.05395">
        <ele>16</ele>
        <time>2020-06-02T10:08:44Z</time>
      </trkpt>
      <trkpt lat="46.18749" lon="-1.05394">
        <ele>15.9</ele>
        <time>2020-06-02T10:08:45Z</time>
      </trkpt>
      <trkpt lat="46.18754" lon="-1.05395">
        <ele>15.9</ele>
        <time>2020-06-02T10:08:46Z</time>
      </trkpt>
      <trkpt lat="46.18759" lon="-1.05394">
        <ele>15.9</ele>
        <time>2020-06-02T10:08:47Z</time>
      </trkpt>
      <trkpt lat="46.18764" lon="-1.05394">
        <ele>15.9</ele>
        <time>2020-06-02T10:08:48Z</time>
      </trkpt>
      <trkpt lat="46.1877" lon="-1.05394">
        <ele>15.9</ele>
        <time>2020-06-02T10:08:49Z</time>
      </trkpt>
      <trkpt lat="46.18775" lon="-1.05395">
        <ele>15.9</ele>
        <time>2020-06-02T10:08:50Z</time>
      </trkpt>
      <trkpt lat="46.18781" lon="-1.05395">
        <ele>15.9</ele>
        <time>2020-06-02T10:08:51Z</time>
      </trkpt>
      <trkpt lat="46.18786" lon="-1.05397">
        <ele>15.9</ele>
        <time>2020-06-02T10:08:52Z</time>
      </trkpt>
      <trkpt lat="46.18792" lon="-1.05399">
        <ele>15.9</ele>
        <time>2020-06-02T10:08:53Z</time>
      </trkpt>
      <trkpt lat="46.18798" lon="-1.054">
        <ele>16</ele>
        <time>2020-06-02T10:08:54Z</time>
      </trkpt>
      <trkpt lat="46.18803" lon="-1.05401">
        <ele>16</ele>
        <time>2020-06-02T10:08:55Z</time>
      </trkpt>
      <trkpt lat="46.18809" lon="-1.05402">
        <ele>16</ele>
        <time>2020-06-02T10:08:56Z</time>
      </trkpt>
      <trkpt lat="46.18814" lon="-1.05403">
        <ele>16</ele>
        <time>2020-06-02T10:08:57Z</time>
      </trkpt>
      <trkpt lat="46.1882" lon="-1.05404">
        <ele>16</ele>
        <time>2020-06-02T10:08:58Z</time>
      </trkpt>
      <trkpt lat="46.18827" lon="-1.05405">
        <ele>16</ele>
        <time>2020-06-02T10:08:59Z</time>
      </trkpt>
      <trkpt lat="46.18833" lon="-1.05405">
        <ele>16</ele>
        <time>2020-06-02T10:09:00Z</time>
      </trkpt>
      <trkpt lat="46.18839" lon="-1.05406">
        <ele>16</ele>
        <time>2020-06-02T10:09:01Z</time>
      </trkpt>
      <trkpt lat="46.18845" lon="-1.05407">
        <ele>16</ele>
        <time>2020-06-02T10:09:02Z</time>
      </trkpt>
      <trkpt lat="46.18852" lon="-1.05409">
        <ele>16</ele>
        <time>2020-06-02T10:09:03Z</time>
      </trkpt>
      <trkpt lat="46.18857" lon="-1.05411">
        <ele>16</ele>
        <time>2020-06-02T10:09:04Z</time>
      </trkpt>
      <trkpt lat="46.18864" lon="-1.05412">
        <ele>16</ele>
        <time>2020-06-02T10:09:05Z</time>
      </trkpt>
      <trkpt lat="46.1887" lon="-1.05412">
        <ele>16</ele>
        <time>2020-06-02T10:09:06Z</time>
      </trkpt>
      <trkpt lat="46.18877" lon="-1.05413">
        <ele>15.9</ele>
        <time>2020-06-02T10:09:07Z</time>
      </trkpt>
      <trkpt lat="46.18883" lon="-1.05415">
        <ele>15.9</ele>
        <time>2020-06-02T10:09:08Z</time>
      </trkpt>
      <trkpt lat="46.18889" lon="-1.05417">
        <ele>15.8</ele>
        <time>2020-06-02T10:09:09Z</time>
      </trkpt>
      <trkpt lat="46.18895" lon="-1.05419">
        <ele>15.7</ele>
        <time>2020-06-02T10:09:10Z</time>
      </trkpt>
      <trkpt lat="46.18902" lon="-1.05421">
        <ele>15.6</ele>
        <time>2020-06-02T10:09:11Z</time>
      </trkpt>
      <trkpt lat="46.18909" lon="-1.05422">
        <ele>15.5</ele>
        <time>2020-06-02T10:09:12Z</time>
      </trkpt>
      <trkpt lat="46.18916" lon="-1.05424">
        <ele>15.4</ele>
        <time>2020-06-02T10:09:13Z</time>
      </trkpt>
      <trkpt lat="46.18923" lon="-1.05425">
        <ele>15.2</ele>
        <time>2020-06-02T10:09:14Z</time>
      </trkpt>
      <trkpt lat="46.1893" lon="-1.05426">
        <ele>15.1</ele>
        <time>2020-06-02T10:09:15Z</time>
      </trkpt>
      <trkpt lat="46.18937" lon="-1.05428">
        <ele>15</ele>
        <time>2020-06-02T10:09:16Z</time>
      </trkpt>
      <trkpt lat="46.18943" lon="-1.0543">
        <ele>14.8</ele>
        <time>2020-06-02T10:09:17Z</time>
      </trkpt>
      <trkpt lat="46.1895" lon="-1.05432">
        <ele>14.7</ele>
        <time>2020-06-02T10:09:18Z</time>
      </trkpt>
      <trkpt lat="46.18957" lon="-1.05434">
        <ele>14.6</ele>
        <time>2020-06-02T10:09:19Z</time>
      </trkpt>
      <trkpt lat="46.18964" lon="-1.05436">
        <ele>14.5</ele>
        <time>2020-06-02T10:09:20Z</time>
      </trkpt>
      <trkpt lat="46.18971" lon="-1.05437">
        <ele>14.3</ele>
        <time>2020-06-02T10:09:21Z</time>
      </trkpt>
      <trkpt lat="46.18978" lon="-1.05438">
        <ele>14.2</ele>
        <time>2020-06-02T10:09:22Z</time>
      </trkpt>
      <trkpt lat="46.18985" lon="-1.05439">
        <ele>14.1</ele>
        <time>2020-06-02T10:09:23Z</time>
      </trkpt>
      <trkpt lat="46.18991" lon="-1.0544">
        <ele>13.9</ele>
        <time>2020-06-02T10:09:24Z</time>
      </trkpt>
      <trkpt lat="46.18997" lon="-1.05442">
        <ele>13.8</ele>
        <time>2020-06-02T10:09:25Z</time>
      </trkpt>
      <trkpt lat="46.19003" lon="-1.05443">
        <ele>13.7</ele>
        <time>2020-06-02T10:09:26Z</time>
      </trkpt>
      <trkpt lat="46.19007" lon="-1.05444">
        <ele>13.7</ele>
        <time>2020-06-02T10:09:27Z</time>
      </trkpt>
      <trkpt lat="46.19013" lon="-1.05446">
        <ele>13.6</ele>
        <time>2020-06-02T10:09:28Z</time>
      </trkpt>
      <trkpt lat="46.19019" lon="-1.05448">
        <ele>13.5</ele>
        <time>2020-06-02T10:09:29Z</time>
      </trkpt>
      <trkpt lat="46.19025" lon="-1.0545">
        <ele>13.4</ele>
        <time>2020-06-02T10:09:30Z</time>
      </trkpt>
      <trkpt lat="46.19031" lon="-1.05451">
        <ele>13.3</ele>
        <time>2020-06-02T10:09:31Z</time>
      </trkpt>
      <trkpt lat="46.19038" lon="-1.05453">
        <ele>13.2</ele>
        <time>2020-06-02T10:09:32Z</time>
      </trkpt>
      <trkpt lat="46.19045" lon="-1.05455">
        <ele>13.1</ele>
        <time>2020-06-02T10:09:33Z</time>
      </trkpt>
      <trkpt lat="46.19052" lon="-1.05459">
        <ele>13</ele>
        <time>2020-06-02T10:09:34Z</time>
      </trkpt>
      <trkpt lat="46.1906" lon="-1.05461">
        <ele>12.9</ele>
        <time>2020-06-02T10:09:35Z</time>
      </trkpt>
      <trkpt lat="46.19068" lon="-1.05463">
        <ele>12.8</ele>
        <time>2020-06-02T10:09:36Z</time>
      </trkpt>
      <trkpt lat="46.19076" lon="-1.05465">
        <ele>12.8</ele>
        <time>2020-06-02T10:09:37Z</time>
      </trkpt>
      <trkpt lat="46.19084" lon="-1.05467">
        <ele>12.7</ele>
        <time>2020-06-02T10:09:38Z</time>
      </trkpt>
      <trkpt lat="46.19092" lon="-1.05469">
        <ele>12.7</ele>
        <time>2020-06-02T10:09:39Z</time>
      </trkpt>
      <trkpt lat="46.191" lon="-1.0547">
        <ele>12.7</ele>
        <time>2020-06-02T10:09:40Z</time>
      </trkpt>
      <trkpt lat="46.19107" lon="-1.05471">
        <ele>12.8</ele>
        <time>2020-06-02T10:09:41Z</time>
      </trkpt>
      <trkpt lat="46.19115" lon="-1.05472">
        <ele>12.8</ele>
        <time>2020-06-02T10:09:42Z</time>
      </trkpt>
      <trkpt lat="46.19122" lon="-1.05473">
        <ele>12.8</ele>
        <time>2020-06-02T10:09:43Z</time>
      </trkpt>
      <trkpt lat="46.19129" lon="-1.05474">
        <ele>12.8</ele>
        <time>2020-06-02T10:09:44Z</time>
      </trkpt>
      <trkpt lat="46.19136" lon="-1.05475">
        <ele>12.9</ele>
        <time>2020-06-02T10:09:45Z</time>
      </trkpt>
      <trkpt lat="46.19142" lon="-1.05476">
        <ele>12.9</ele>
        <time>2020-06-02T10:09:46Z</time>
      </trkpt>
      <trkpt lat="46.19149" lon="-1.05477">
        <ele>12.9</ele>
        <time>2020-06-02T10:09:47Z</time>
      </trkpt>
      <trkpt lat="46.19155" lon="-1.05477">
        <ele>12.9</ele>
        <time>2020-06-02T10:09:48Z</time>
      </trkpt>
      <trkpt lat="46.19162" lon="-1.05478">
        <ele>13</ele>
        <time>2020-06-02T10:09:49Z</time>
      </trkpt>
      <trkpt lat="46.19168" lon="-1.05479">
        <ele>13</ele>
        <time>2020-06-02T10:09:50Z</time>
      </trkpt>
      <trkpt lat="46.19174" lon="-1.0548">
        <ele>13</ele>
        <time>2020-06-02T10:09:51Z</time>
      </trkpt>
      <trkpt lat="46.1918" lon="-1.0548">
        <ele>13</ele>
        <time>2020-06-02T10:09:52Z</time>
      </trkpt>
      <trkpt lat="46.19186" lon="-1.05482">
        <ele>13</ele>
        <time>2020-06-02T10:09:53Z</time>
      </trkpt>
      <trkpt lat="46.19191" lon="-1.05483">
        <ele>13</ele>
        <time>2020-06-02T10:09:54Z</time>
      </trkpt>
      <trkpt lat="46.19198" lon="-1.05483">
        <ele>13</ele>
        <time>2020-06-02T10:09:55Z</time>
      </trkpt>
      <trkpt lat="46.19205" lon="-1.05484">
        <ele>13</ele>
        <time>2020-06-02T10:09:56Z</time>
      </trkpt>
      <trkpt lat="46.19212" lon="-1.05485">
        <ele>13</ele>
        <time>2020-06-02T10:09:57Z</time>
      </trkpt>
      <trkpt lat="46.19219" lon="-1.05486">
        <ele>13</ele>
        <time>2020-06-02T10:09:58Z</time>
      </trkpt>
      <trkpt lat="46.19226" lon="-1.05488">
        <ele>13.1</ele>
        <time>2020-06-02T10:09:59Z</time>
      </trkpt>
      <trkpt lat="46.19232" lon="-1.05489">
        <ele>13.1</ele>
        <time>2020-06-02T10:10:00Z</time>
      </trkpt>
      <trkpt lat="46.1924" lon="-1.05491">
        <ele>13.1</ele>
        <time>2020-06-02T10:10:01Z</time>
      </trkpt>
      <trkpt lat="46.19246" lon="-1.05493">
        <ele>13.1</ele>
        <time>2020-06-02T10:10:02Z</time>
      </trkpt>
      <trkpt lat="46.19253" lon="-1.05494">
        <ele>13.2</ele>
        <time>2020-06-02T10:10:03Z</time>
      </trkpt>
      <trkpt lat="46.1926" lon="-1.05496">
        <ele>13.2</ele>
        <time>2020-06-02T10:10:04Z</time>
      </trkpt>
      <trkpt lat="46.19267" lon="-1.05497">
        <ele>13.2</ele>
        <time>2020-06-02T10:10:05Z</time>
      </trkpt>
      <trkpt lat="46.19274" lon="-1.05499">
        <ele>13.2</ele>
        <time>2020-06-02T10:10:06Z</time>
      </trkpt>
      <trkpt lat="46.1928" lon="-1.055">
        <ele>13.3</ele>
        <time>2020-06-02T10:10:07Z</time>
      </trkpt>
      <trkpt lat="46.19286" lon="-1.05502">
        <ele>13.3</ele>
        <time>2020-06-02T10:10:08Z</time>
      </trkpt>
      <trkpt lat="46.19292" lon="-1.05502">
        <ele>13.3</ele>
        <time>2020-06-02T10:10:09Z</time>
      </trkpt>
      <trkpt lat="46.19299" lon="-1.05503">
        <ele>13.3</ele>
        <time>2020-06-02T10:10:10Z</time>
      </trkpt>
      <trkpt lat="46.19306" lon="-1.05505">
        <ele>13.4</ele>
        <time>2020-06-02T10:10:11Z</time>
      </trkpt>
      <trkpt lat="46.19311" lon="-1.05506">
        <ele>13.4</ele>
        <time>2020-06-02T10:10:12Z</time>
      </trkpt>
      <trkpt lat="46.19317" lon="-1.05507">
        <ele>13.5</ele>
        <time>2020-06-02T10:10:13Z</time>
      </trkpt>
      <trkpt lat="46.19321" lon="-1.05509">
        <ele>13.5</ele>
        <time>2020-06-02T10:10:14Z</time>
      </trkpt>
      <trkpt lat="46.19325" lon="-1.0551">
        <ele>13.5</ele>
        <time>2020-06-02T10:10:15Z</time>
      </trkpt>
      <trkpt lat="46.19329" lon="-1.05511">
        <ele>13.5</ele>
        <time>2020-06-02T10:10:16Z</time>
      </trkpt>
      <trkpt lat="46.19334" lon="-1.05512">
        <ele>13.6</ele>
        <time>2020-06-02T10:10:17Z</time>
      </trkpt>
      <trkpt lat="46.19339" lon="-1.05514">
        <ele>13.6</ele>
        <time>2020-06-02T10:10:18Z</time>
      </trkpt>
      <trkpt lat="46.19345" lon="-1.05515">
        <ele>13.6</ele>
        <time>2020-06-02T10:10:19Z</time>
      </trkpt>
      <trkpt lat="46.1935" lon="-1.05516">
        <ele>13.7</ele>
        <time>2020-06-02T10:10:20Z</time>
      </trkpt>
      <trkpt lat="46.19354" lon="-1.05518">
        <ele>13.7</ele>
        <time>2020-06-02T10:10:21Z</time>
      </trkpt>
      <trkpt lat="46.19358" lon="-1.05519">
        <ele>13.7</ele>
        <time>2020-06-02T10:10:22Z</time>
      </trkpt>
      <trkpt lat="46.19364" lon="-1.0552">
        <ele>13.8</ele>
        <time>2020-06-02T10:10:23Z</time>
      </trkpt>
      <trkpt lat="46.19369" lon="-1.0552">
        <ele>13.8</ele>
        <time>2020-06-02T10:10:24Z</time>
      </trkpt>
      <trkpt lat="46.19376" lon="-1.05519">
        <ele>13.8</ele>
        <time>2020-06-02T10:10:25Z</time>
      </trkpt>
      <trkpt lat="46.19381" lon="-1.0552">
        <ele>13.8</ele>
        <time>2020-06-02T10:10:26Z</time>
      </trkpt>
      <trkpt lat="46.19387" lon="-1.05521">
        <ele>13.7</ele>
        <time>2020-06-02T10:10:27Z</time>
      </trkpt>
      <trkpt lat="46.19392" lon="-1.05523">
        <ele>13.7</ele>
        <time>2020-06-02T10:10:28Z</time>
      </trkpt>
      <trkpt lat="46.19397" lon="-1.05524">
        <ele>13.7</ele>
        <time>2020-06-02T10:10:29Z</time>
      </trkpt>
      <trkpt lat="46.19403" lon="-1.05524">
        <ele>13.7</ele>
        <time>2020-06-02T10:10:30Z</time>
      </trkpt>
      <trkpt lat="46.19409" lon="-1.05523">
        <ele>13.7</ele>
        <time>2020-06-02T10:10:31Z</time>
      </trkpt>
      <trkpt lat="46.19416" lon="-1.05522">
        <ele>13.6</ele>
        <time>2020-06-02T10:10:32Z</time>
      </trkpt>
      <trkpt lat="46.19421" lon="-1.05523">
        <ele>13.6</ele>
        <time>2020-06-02T10:10:33Z</time>
      </trkpt>
      <trkpt lat="46.19427" lon="-1.05523">
        <ele>13.6</ele>
        <time>2020-06-02T10:10:34Z</time>
      </trkpt>
      <trkpt lat="46.19431" lon="-1.05524">
        <ele>13.5</ele>
        <time>2020-06-02T10:10:35Z</time>
      </trkpt>
      <trkpt lat="46.19436" lon="-1.05524">
        <ele>13.5</ele>
        <time>2020-06-02T10:10:36Z</time>
      </trkpt>
      <trkpt lat="46.19441" lon="-1.05523">
        <ele>13.5</ele>
        <time>2020-06-02T10:10:37Z</time>
      </trkpt>
      <trkpt lat="46.19446" lon="-1.05522">
        <ele>13.5</ele>
        <time>2020-06-02T10:10:38Z</time>
      </trkpt>
      <trkpt lat="46.19452" lon="-1.05521">
        <ele>13.5</ele>
        <time>2020-06-02T10:10:39Z</time>
      </trkpt>
      <trkpt lat="46.19456" lon="-1.0552">
        <ele>13.5</ele>
        <time>2020-06-02T10:10:40Z</time>
      </trkpt>
      <trkpt lat="46.19459" lon="-1.0552">
        <ele>13.5</ele>
        <time>2020-06-02T10:10:41Z</time>
      </trkpt>
      <trkpt lat="46.19462" lon="-1.05519">
        <ele>13.5</ele>
        <time>2020-06-02T10:10:42Z</time>
      </trkpt>
      <trkpt lat="46.19466" lon="-1.05519">
        <ele>13.5</ele>
        <time>2020-06-02T10:10:43Z</time>
      </trkpt>
      <trkpt lat="46.1947" lon="-1.05519">
        <ele>13.5</ele>
        <time>2020-06-02T10:10:44Z</time>
      </trkpt>
      <trkpt lat="46.19474" lon="-1.05518">
        <ele>13.5</ele>
        <time>2020-06-02T10:10:45Z</time>
      </trkpt>
      <trkpt lat="46.19477" lon="-1.05517">
        <ele>13.5</ele>
        <time>2020-06-02T10:10:46Z</time>
      </trkpt>
      <trkpt lat="46.1948" lon="-1.05517">
        <ele>13.5</ele>
        <time>2020-06-02T10:10:47Z</time>
      </trkpt>
      <trkpt lat="46.19483" lon="-1.05516">
        <ele>13.5</ele>
        <time>2020-06-02T10:10:48Z</time>
      </trkpt>
      <trkpt lat="46.19484" lon="-1.05516">
        <ele>13.5</ele>
        <time>2020-06-02T10:10:49Z</time>
      </trkpt>
      <trkpt lat="46.19486" lon="-1.05516">
        <ele>13.5</ele>
        <time>2020-06-02T10:10:50Z</time>
      </trkpt>
      <trkpt lat="46.19487" lon="-1.05514">
        <ele>13.5</ele>
        <time>2020-06-02T10:10:51Z</time>
      </trkpt>
      <trkpt lat="46.19487" lon="-1.05514">
        <ele>13.5</ele>
        <time>2020-06-02T10:10:52Z</time>
      </trkpt>
      <trkpt lat="46.19487" lon="-1.05514">
        <ele>13.5</ele>
        <time>2020-06-02T10:10:53Z</time>
      </trkpt>
      <trkpt lat="46.19488" lon="-1.05513">
        <ele>13.5</ele>
        <time>2020-06-02T10:10:54Z</time>
      </trkpt>
      <trkpt lat="46.19489" lon="-1.05513">
        <ele>13.5</ele>
        <time>2020-06-02T10:10:55Z</time>
      </trkpt>
      <trkpt lat="46.19489" lon="-1.05514">
        <ele>13.5</ele>
        <time>2020-06-02T10:10:56Z</time>
      </trkpt>
      <trkpt lat="46.1949" lon="-1.05514">
        <ele>13.5</ele>
        <time>2020-06-02T10:10:57Z</time>
      </trkpt>
      <trkpt lat="46.19491" lon="-1.05516">
        <ele>13.5</ele>
        <time>2020-06-02T10:10:58Z</time>
      </trkpt>
      <trkpt lat="46.19492" lon="-1.05518">
        <ele>13.4</ele>
        <time>2020-06-02T10:10:59Z</time>
      </trkpt>
      <trkpt lat="46.19493" lon="-1.05522">
        <ele>13.4</ele>
        <time>2020-06-02T10:11:00Z</time>
      </trkpt>
      <trkpt lat="46.19494" lon="-1.05523">
        <ele>13.6</ele>
        <time>2020-06-02T10:11:01Z</time>
      </trkpt>
      <trkpt lat="46.19495" lon="-1.05526">
        <ele>13.6</ele>
        <time>2020-06-02T10:11:02Z</time>
      </trkpt>
      <trkpt lat="46.19495" lon="-1.05528">
        <ele>13.6</ele>
        <time>2020-06-02T10:11:03Z</time>
      </trkpt>
      <trkpt lat="46.19495" lon="-1.05531">
        <ele>13.6</ele>
        <time>2020-06-02T10:11:04Z</time>
      </trkpt>
      <trkpt lat="46.19494" lon="-1.05532">
        <ele>13.7</ele>
        <time>2020-06-02T10:11:05Z</time>
      </trkpt>
      <trkpt lat="46.19491" lon="-1.05535">
        <ele>13.7</ele>
        <time>2020-06-02T10:11:06Z</time>
      </trkpt>
      <trkpt lat="46.1949" lon="-1.05536">
        <ele>13.7</ele>
        <time>2020-06-02T10:11:07Z</time>
      </trkpt>
      <trkpt lat="46.19488" lon="-1.05539">
        <ele>13.9</ele>
        <time>2020-06-02T10:11:08Z</time>
      </trkpt>
      <trkpt lat="46.19485" lon="-1.05541">
        <ele>13.9</ele>
        <time>2020-06-02T10:11:09Z</time>
      </trkpt>
      <trkpt lat="46.19482" lon="-1.05544">
        <ele>14</ele>
        <time>2020-06-02T10:11:10Z</time>
      </trkpt>
      <trkpt lat="46.19479" lon="-1.05547">
        <ele>14.1</ele>
        <time>2020-06-02T10:11:11Z</time>
      </trkpt>
      <trkpt lat="46.19477" lon="-1.0555">
        <ele>14.2</ele>
        <time>2020-06-02T10:11:12Z</time>
      </trkpt>
      <trkpt lat="46.19474" lon="-1.05553">
        <ele>14.4</ele>
        <time>2020-06-02T10:11:13Z</time>
      </trkpt>
      <trkpt lat="46.19471" lon="-1.05556">
        <ele>14.5</ele>
        <time>2020-06-02T10:11:14Z</time>
      </trkpt>
      <trkpt lat="46.19468" lon="-1.05561">
        <ele>14.8</ele>
        <time>2020-06-02T10:11:15Z</time>
      </trkpt>
      <trkpt lat="46.19466" lon="-1.05566">
        <ele>14.8</ele>
        <time>2020-06-02T10:11:16Z</time>
      </trkpt>
      <trkpt lat="46.19465" lon="-1.05568">
        <ele>14.8</ele>
        <time>2020-06-02T10:11:17Z</time>
      </trkpt>
      <trkpt lat="46.19465" lon="-1.05571">
        <ele>14.9</ele>
        <time>2020-06-02T10:11:18Z</time>
      </trkpt>
      <trkpt lat="46.19466" lon="-1.05574">
        <ele>14.9</ele>
        <time>2020-06-02T10:11:19Z</time>
      </trkpt>
      <trkpt lat="46.19466" lon="-1.05575">
        <ele>14.9</ele>
        <time>2020-06-02T10:11:20Z</time>
      </trkpt>
      <trkpt lat="46.19467" lon="-1.0558">
        <ele>15</ele>
        <time>2020-06-02T10:11:21Z</time>
      </trkpt>
      <trkpt lat="46.19468" lon="-1.05585">
        <ele>15</ele>
        <time>2020-06-02T10:11:22Z</time>
      </trkpt>
      <trkpt lat="46.19469" lon="-1.05591">
        <ele>15.1</ele>
        <time>2020-06-02T10:11:23Z</time>
      </trkpt>
      <trkpt lat="46.1947" lon="-1.05596">
        <ele>15.1</ele>
        <time>2020-06-02T10:11:24Z</time>
      </trkpt>
      <trkpt lat="46.19471" lon="-1.05602">
        <ele>15.2</ele>
        <time>2020-06-02T10:11:25Z</time>
      </trkpt>
      <trkpt lat="46.19472" lon="-1.05608">
        <ele>15.3</ele>
        <time>2020-06-02T10:11:26Z</time>
      </trkpt>
      <trkpt lat="46.19474" lon="-1.05613">
        <ele>15.4</ele>
        <time>2020-06-02T10:11:27Z</time>
      </trkpt>
      <trkpt lat="46.19474" lon="-1.05618">
        <ele>15.5</ele>
        <time>2020-06-02T10:11:28Z</time>
      </trkpt>
      <trkpt lat="46.19475" lon="-1.05624">
        <ele>15.6</ele>
        <time>2020-06-02T10:11:29Z</time>
      </trkpt>
      <trkpt lat="46.19476" lon="-1.05629">
        <ele>15.7</ele>
        <time>2020-06-02T10:11:30Z</time>
      </trkpt>
      <trkpt lat="46.19477" lon="-1.05634">
        <ele>15.8</ele>
        <time>2020-06-02T10:11:31Z</time>
      </trkpt>
      <trkpt lat="46.19478" lon="-1.05639">
        <ele>15.9</ele>
        <time>2020-06-02T10:11:32Z</time>
      </trkpt>
      <trkpt lat="46.19479" lon="-1.05644">
        <ele>16.1</ele>
        <time>2020-06-02T10:11:33Z</time>
      </trkpt>
      <trkpt lat="46.1948" lon="-1.05649">
        <ele>16.2</ele>
        <time>2020-06-02T10:11:34Z</time>
      </trkpt>
      <trkpt lat="46.19481" lon="-1.05653">
        <ele>16.3</ele>
        <time>2020-06-02T10:11:35Z</time>
      </trkpt>
      <trkpt lat="46.19481" lon="-1.05657">
        <ele>16.4</ele>
        <time>2020-06-02T10:11:36Z</time>
      </trkpt>
      <trkpt lat="46.19482" lon="-1.05663">
        <ele>16.5</ele>
        <time>2020-06-02T10:11:37Z</time>
      </trkpt>
      <trkpt lat="46.19483" lon="-1.05668">
        <ele>16.7</ele>
        <time>2020-06-02T10:11:38Z</time>
      </trkpt>
      <trkpt lat="46.19484" lon="-1.05674">
        <ele>16.8</ele>
        <time>2020-06-02T10:11:39Z</time>
      </trkpt>
      <trkpt lat="46.19485" lon="-1.05679">
        <ele>16.8</ele>
        <time>2020-06-02T10:11:40Z</time>
      </trkpt>
      <trkpt lat="46.19485" lon="-1.05683">
        <ele>16.9</ele>
        <time>2020-06-02T10:11:41Z</time>
      </trkpt>
      <trkpt lat="46.19485" lon="-1.05688">
        <ele>17</ele>
        <time>2020-06-02T10:11:42Z</time>
      </trkpt>
      <trkpt lat="46.19485" lon="-1.05693">
        <ele>17.1</ele>
        <time>2020-06-02T10:11:43Z</time>
      </trkpt>
      <trkpt lat="46.19485" lon="-1.05694">
        <ele>17.1</ele>
        <time>2020-06-02T10:11:44Z</time>
      </trkpt>
      <trkpt lat="46.19486" lon="-1.05699">
        <ele>17.2</ele>
        <time>2020-06-02T10:11:45Z</time>
      </trkpt>
      <trkpt lat="46.19486" lon="-1.05704">
        <ele>17.3</ele>
        <time>2020-06-02T10:11:46Z</time>
      </trkpt>
      <trkpt lat="46.19487" lon="-1.05708">
        <ele>17.5</ele>
        <time>2020-06-02T10:11:47Z</time>
      </trkpt>
      <trkpt lat="46.19487" lon="-1.05713">
        <ele>17.6</ele>
        <time>2020-06-02T10:11:48Z</time>
      </trkpt>
      <trkpt lat="46.19488" lon="-1.05718">
        <ele>17.7</ele>
        <time>2020-06-02T10:11:49Z</time>
      </trkpt>
      <trkpt lat="46.19488" lon="-1.0572">
        <ele>17.8</ele>
        <time>2020-06-02T10:11:50Z</time>
      </trkpt>
      <trkpt lat="46.19489" lon="-1.05725">
        <ele>17.9</ele>
        <time>2020-06-02T10:11:51Z</time>
      </trkpt>
      <trkpt lat="46.1949" lon="-1.05727">
        <ele>17.9</ele>
        <time>2020-06-02T10:11:52Z</time>
      </trkpt>
      <trkpt lat="46.1949" lon="-1.0573">
        <ele>18</ele>
        <time>2020-06-02T10:11:53Z</time>
      </trkpt>
      <trkpt lat="46.19491" lon="-1.05732">
        <ele>18</ele>
        <time>2020-06-02T10:11:54Z</time>
      </trkpt>
      <trkpt lat="46.19492" lon="-1.05737">
        <ele>18.2</ele>
        <time>2020-06-02T10:11:55Z</time>
      </trkpt>
      <trkpt lat="46.19492" lon="-1.05739">
        <ele>18.2</ele>
        <time>2020-06-02T10:11:56Z</time>
      </trkpt>
      <trkpt lat="46.19493" lon="-1.05743">
        <ele>18.3</ele>
        <time>2020-06-02T10:11:57Z</time>
      </trkpt>
      <trkpt lat="46.19494" lon="-1.05748">
        <ele>18.4</ele>
        <time>2020-06-02T10:11:58Z</time>
      </trkpt>
      <trkpt lat="46.19495" lon="-1.05749">
        <ele>18.5</ele>
        <time>2020-06-02T10:11:59Z</time>
      </trkpt>
      <trkpt lat="46.19496" lon="-1.05753">
        <ele>18.6</ele>
        <time>2020-06-02T10:12:00Z</time>
      </trkpt>
      <trkpt lat="46.19497" lon="-1.05758">
        <ele>18.7</ele>
        <time>2020-06-02T10:12:01Z</time>
      </trkpt>
      <trkpt lat="46.19498" lon="-1.05759">
        <ele>18.7</ele>
        <time>2020-06-02T10:12:02Z</time>
      </trkpt>
      <trkpt lat="46.19498" lon="-1.05764">
        <ele>18.8</ele>
        <time>2020-06-02T10:12:03Z</time>
      </trkpt>
      <trkpt lat="46.19498" lon="-1.05769">
        <ele>19</ele>
        <time>2020-06-02T10:12:04Z</time>
      </trkpt>
      <trkpt lat="46.19498" lon="-1.05771">
        <ele>19</ele>
        <time>2020-06-02T10:12:05Z</time>
      </trkpt>
      <trkpt lat="46.19498" lon="-1.05776">
        <ele>19.1</ele>
        <time>2020-06-02T10:12:06Z</time>
      </trkpt>
      <trkpt lat="46.19498" lon="-1.05777">
        <ele>19.1</ele>
        <time>2020-06-02T10:12:07Z</time>
      </trkpt>
      <trkpt lat="46.19498" lon="-1.05782">
        <ele>19.2</ele>
        <time>2020-06-02T10:12:08Z</time>
      </trkpt>
      <trkpt lat="46.19499" lon="-1.05784">
        <ele>19.2</ele>
        <time>2020-06-02T10:12:09Z</time>
      </trkpt>
      <trkpt lat="46.19499" lon="-1.05788">
        <ele>19.3</ele>
        <time>2020-06-02T10:12:10Z</time>
      </trkpt>
      <trkpt lat="46.195" lon="-1.05792">
        <ele>19.4</ele>
        <time>2020-06-02T10:12:11Z</time>
      </trkpt>
      <trkpt lat="46.19501" lon="-1.05798">
        <ele>19.5</ele>
        <time>2020-06-02T10:12:12Z</time>
      </trkpt>
      <trkpt lat="46.19501" lon="-1.058">
        <ele>19.5</ele>
        <time>2020-06-02T10:12:13Z</time>
      </trkpt>
      <trkpt lat="46.19503" lon="-1.05805">
        <ele>19.6</ele>
        <time>2020-06-02T10:12:14Z</time>
      </trkpt>
      <trkpt lat="46.19504" lon="-1.0581">
        <ele>19.7</ele>
        <time>2020-06-02T10:12:15Z</time>
      </trkpt>
      <trkpt lat="46.19506" lon="-1.05815">
        <ele>19.8</ele>
        <time>2020-06-02T10:12:16Z</time>
      </trkpt>
      <trkpt lat="46.19509" lon="-1.0582">
        <ele>19.9</ele>
        <time>2020-06-02T10:12:17Z</time>
      </trkpt>
      <trkpt lat="46.19511" lon="-1.05827">
        <ele>20</ele>
        <time>2020-06-02T10:12:18Z</time>
      </trkpt>
      <trkpt lat="46.19513" lon="-1.05835">
        <ele>20.1</ele>
        <time>2020-06-02T10:12:19Z</time>
      </trkpt>
      <trkpt lat="46.19515" lon="-1.05842">
        <ele>20.2</ele>
        <time>2020-06-02T10:12:20Z</time>
      </trkpt>
      <trkpt lat="46.19517" lon="-1.05847">
        <ele>20.2</ele>
        <time>2020-06-02T10:12:21Z</time>
      </trkpt>
      <trkpt lat="46.19517" lon="-1.05853">
        <ele>20.3</ele>
        <time>2020-06-02T10:12:22Z</time>
      </trkpt>
      <trkpt lat="46.19518" lon="-1.0586">
        <ele>20.3</ele>
        <time>2020-06-02T10:12:23Z</time>
      </trkpt>
      <trkpt lat="46.19518" lon="-1.05865">
        <ele>20.3</ele>
        <time>2020-06-02T10:12:24Z</time>
      </trkpt>
      <trkpt lat="46.19519" lon="-1.05872">
        <ele>20.4</ele>
        <time>2020-06-02T10:12:25Z</time>
      </trkpt>
      <trkpt lat="46.19521" lon="-1.05879">
        <ele>20.4</ele>
        <time>2020-06-02T10:12:26Z</time>
      </trkpt>
      <trkpt lat="46.1952" lon="-1.05884">
        <ele>20.4</ele>
        <time>2020-06-02T10:12:27Z</time>
      </trkpt>
      <trkpt lat="46.19519" lon="-1.0589">
        <ele>20.5</ele>
        <time>2020-06-02T10:12:28Z</time>
      </trkpt>
      <trkpt lat="46.19517" lon="-1.05895">
        <ele>20.5</ele>
        <time>2020-06-02T10:12:29Z</time>
      </trkpt>
      <trkpt lat="46.19515" lon="-1.059">
        <ele>20.5</ele>
        <time>2020-06-02T10:12:30Z</time>
      </trkpt>
      <trkpt lat="46.19513" lon="-1.05906">
        <ele>20.5</ele>
        <time>2020-06-02T10:12:31Z</time>
      </trkpt>
      <trkpt lat="46.19512" lon="-1.05911">
        <ele>20.6</ele>
        <time>2020-06-02T10:12:32Z</time>
      </trkpt>
      <trkpt lat="46.19509" lon="-1.05916">
        <ele>20.6</ele>
        <time>2020-06-02T10:12:33Z</time>
      </trkpt>
      <trkpt lat="46.19507" lon="-1.05922">
        <ele>20.6</ele>
        <time>2020-06-02T10:12:34Z</time>
      </trkpt>
      <trkpt lat="46.19505" lon="-1.05927">
        <ele>20.7</ele>
        <time>2020-06-02T10:12:35Z</time>
      </trkpt>
      <trkpt lat="46.19502" lon="-1.05933">
        <ele>20.8</ele>
        <time>2020-06-02T10:12:36Z</time>
      </trkpt>
      <trkpt lat="46.195" lon="-1.05939">
        <ele>20.8</ele>
        <time>2020-06-02T10:12:37Z</time>
      </trkpt>
      <trkpt lat="46.19499" lon="-1.05944">
        <ele>20.8</ele>
        <time>2020-06-02T10:12:38Z</time>
      </trkpt>
      <trkpt lat="46.19497" lon="-1.05951">
        <ele>20.9</ele>
        <time>2020-06-02T10:12:39Z</time>
      </trkpt>
      <trkpt lat="46.19495" lon="-1.05957">
        <ele>20.9</ele>
        <time>2020-06-02T10:12:40Z</time>
      </trkpt>
      <trkpt lat="46.19494" lon="-1.05963">
        <ele>20.9</ele>
        <time>2020-06-02T10:12:41Z</time>
      </trkpt>
      <trkpt lat="46.19493" lon="-1.0597">
        <ele>21</ele>
        <time>2020-06-02T10:12:42Z</time>
      </trkpt>
      <trkpt lat="46.19492" lon="-1.05977">
        <ele>21</ele>
        <time>2020-06-02T10:12:43Z</time>
      </trkpt>
      <trkpt lat="46.1949" lon="-1.05985">
        <ele>21</ele>
        <time>2020-06-02T10:12:44Z</time>
      </trkpt>
      <trkpt lat="46.19489" lon="-1.05992">
        <ele>21</ele>
        <time>2020-06-02T10:12:45Z</time>
      </trkpt>
      <trkpt lat="46.19488" lon="-1.06">
        <ele>21</ele>
        <time>2020-06-02T10:12:46Z</time>
      </trkpt>
      <trkpt lat="46.19486" lon="-1.06008">
        <ele>21.1</ele>
        <time>2020-06-02T10:12:47Z</time>
      </trkpt>
      <trkpt lat="46.19484" lon="-1.06015">
        <ele>21.1</ele>
        <time>2020-06-02T10:12:48Z</time>
      </trkpt>
      <trkpt lat="46.19482" lon="-1.06022">
        <ele>21.1</ele>
        <time>2020-06-02T10:12:49Z</time>
      </trkpt>
      <trkpt lat="46.19481" lon="-1.06029">
        <ele>21.2</ele>
        <time>2020-06-02T10:12:50Z</time>
      </trkpt>
      <trkpt lat="46.19479" lon="-1.06035">
        <ele>21.2</ele>
        <time>2020-06-02T10:12:51Z</time>
      </trkpt>
      <trkpt lat="46.19478" lon="-1.06041">
        <ele>21.3</ele>
        <time>2020-06-02T10:12:52Z</time>
      </trkpt>
      <trkpt lat="46.19478" lon="-1.06048">
        <ele>21.4</ele>
        <time>2020-06-02T10:12:53Z</time>
      </trkpt>
      <trkpt lat="46.19477" lon="-1.06053">
        <ele>21.4</ele>
        <time>2020-06-02T10:12:54Z</time>
      </trkpt>
      <trkpt lat="46.19478" lon="-1.06059">
        <ele>21.5</ele>
        <time>2020-06-02T10:12:55Z</time>
      </trkpt>
      <trkpt lat="46.19477" lon="-1.06066">
        <ele>21.5</ele>
        <time>2020-06-02T10:12:56Z</time>
      </trkpt>
      <trkpt lat="46.19477" lon="-1.06072">
        <ele>21.6</ele>
        <time>2020-06-02T10:12:57Z</time>
      </trkpt>
      <trkpt lat="46.19476" lon="-1.06078">
        <ele>21.7</ele>
        <time>2020-06-02T10:12:58Z</time>
      </trkpt>
      <trkpt lat="46.19475" lon="-1.06083">
        <ele>21.8</ele>
        <time>2020-06-02T10:12:59Z</time>
      </trkpt>
      <trkpt lat="46.19473" lon="-1.06087">
        <ele>21.8</ele>
        <time>2020-06-02T10:13:00Z</time>
      </trkpt>
      <trkpt lat="46.19471" lon="-1.0609">
        <ele>21.9</ele>
        <time>2020-06-02T10:13:01Z</time>
      </trkpt>
      <trkpt lat="46.19468" lon="-1.06091">
        <ele>22</ele>
        <time>2020-06-02T10:13:02Z</time>
      </trkpt>
      <trkpt lat="46.19464" lon="-1.06094">
        <ele>22.1</ele>
        <time>2020-06-02T10:13:03Z</time>
      </trkpt>
      <trkpt lat="46.1946" lon="-1.06096">
        <ele>22.2</ele>
        <time>2020-06-02T10:13:04Z</time>
      </trkpt>
      <trkpt lat="46.19457" lon="-1.061">
        <ele>22.2</ele>
        <time>2020-06-02T10:13:05Z</time>
      </trkpt>
      <trkpt lat="46.19455" lon="-1.06105">
        <ele>22.3</ele>
        <time>2020-06-02T10:13:06Z</time>
      </trkpt>
      <trkpt lat="46.19453" lon="-1.0611">
        <ele>22.4</ele>
        <time>2020-06-02T10:13:07Z</time>
      </trkpt>
      <trkpt lat="46.19451" lon="-1.06116">
        <ele>22.5</ele>
        <time>2020-06-02T10:13:08Z</time>
      </trkpt>
      <trkpt lat="46.1945" lon="-1.06121">
        <ele>22.6</ele>
        <time>2020-06-02T10:13:09Z</time>
      </trkpt>
      <trkpt lat="46.19448" lon="-1.06126">
        <ele>22.7</ele>
        <time>2020-06-02T10:13:10Z</time>
      </trkpt>
      <trkpt lat="46.19446" lon="-1.0613">
        <ele>22.8</ele>
        <time>2020-06-02T10:13:11Z</time>
      </trkpt>
      <trkpt lat="46.19444" lon="-1.06134">
        <ele>22.9</ele>
        <time>2020-06-02T10:13:12Z</time>
      </trkpt>
      <trkpt lat="46.19442" lon="-1.06138">
        <ele>22.9</ele>
        <time>2020-06-02T10:13:13Z</time>
      </trkpt>
      <trkpt lat="46.19439" lon="-1.06138">
        <ele>23</ele>
        <time>2020-06-02T10:13:14Z</time>
      </trkpt>
      <trkpt lat="46.19435" lon="-1.06138">
        <ele>23.1</ele>
        <time>2020-06-02T10:13:15Z</time>
      </trkpt>
      <trkpt lat="46.19431" lon="-1.06139">
        <ele>23.1</ele>
        <time>2020-06-02T10:13:16Z</time>
      </trkpt>
      <trkpt lat="46.19428" lon="-1.0614">
        <ele>23.2</ele>
        <time>2020-06-02T10:13:17Z</time>
      </trkpt>
      <trkpt lat="46.19425" lon="-1.06142">
        <ele>23.3</ele>
        <time>2020-06-02T10:13:18Z</time>
      </trkpt>
      <trkpt lat="46.19421" lon="-1.06144">
        <ele>23.3</ele>
        <time>2020-06-02T10:13:19Z</time>
      </trkpt>
      <trkpt lat="46.1942" lon="-1.06145">
        <ele>23.3</ele>
        <time>2020-06-02T10:13:20Z</time>
      </trkpt>
      <trkpt lat="46.19419" lon="-1.06148">
        <ele>23.4</ele>
        <time>2020-06-02T10:13:21Z</time>
      </trkpt>
      <trkpt lat="46.19418" lon="-1.0615">
        <ele>23.4</ele>
        <time>2020-06-02T10:13:22Z</time>
      </trkpt>
      <trkpt lat="46.19419" lon="-1.06154">
        <ele>23.5</ele>
        <time>2020-06-02T10:13:23Z</time>
      </trkpt>
      <trkpt lat="46.1942" lon="-1.06156">
        <ele>23.6</ele>
        <time>2020-06-02T10:13:24Z</time>
      </trkpt>
      <trkpt lat="46.19421" lon="-1.0616">
        <ele>23.6</ele>
        <time>2020-06-02T10:13:25Z</time>
      </trkpt>
      <trkpt lat="46.19421" lon="-1.06161">
        <ele>23.6</ele>
        <time>2020-06-02T10:13:26Z</time>
      </trkpt>
      <trkpt lat="46.19421" lon="-1.06162">
        <ele>23.6</ele>
        <time>2020-06-02T10:13:27Z</time>
      </trkpt>
      <trkpt lat="46.19422" lon="-1.06162">
        <ele>23.6</ele>
        <time>2020-06-02T10:13:28Z</time>
      </trkpt>
      <trkpt lat="46.19422" lon="-1.06162">
        <ele>23.6</ele>
        <time>2020-06-02T10:13:29Z</time>
      </trkpt>
      <trkpt lat="46.19422" lon="-1.06162">
        <ele>23.6</ele>
        <time>2020-06-02T10:13:30Z</time>
      </trkpt>
      <trkpt lat="46.19422" lon="-1.06162">
        <ele>23.6</ele>
        <time>2020-06-02T10:13:31Z</time>
      </trkpt>
      <trkpt lat="46.19422" lon="-1.06161">
        <ele>23.6</ele>
        <time>2020-06-02T10:13:32Z</time>
      </trkpt>
      <trkpt lat="46.19422" lon="-1.06161">
        <ele>23.6</ele>
        <time>2020-06-02T10:13:33Z</time>
      </trkpt>
      <trkpt lat="46.19422" lon="-1.06162">
        <ele>23.6</ele>
        <time>2020-06-02T10:13:34Z</time>
      </trkpt>
      <trkpt lat="46.19422" lon="-1.06162">
        <ele>23.6</ele>
        <time>2020-06-02T10:13:35Z</time>
      </trkpt>
      <trkpt lat="46.19422" lon="-1.06162">
        <ele>23.6</ele>
        <time>2020-06-02T10:13:36Z</time>
      </trkpt>
      <trkpt lat="46.19422" lon="-1.06162">
        <ele>23.6</ele>
        <time>2020-06-02T10:13:37Z</time>
      </trkpt>
      <trkpt lat="46.19423" lon="-1.06163">
        <ele>23.6</ele>
        <time>2020-06-02T10:13:38Z</time>
      </trkpt>
      <trkpt lat="46.19424" lon="-1.06164">
        <ele>23.6</ele>
        <time>2020-06-02T10:13:39Z</time>
      </trkpt>
      <trkpt lat="46.19425" lon="-1.06163">
        <ele>23.7</ele>
        <time>2020-06-02T10:13:40Z</time>
      </trkpt>
      <trkpt lat="46.19427" lon="-1.06164">
        <ele>23.7</ele>
        <time>2020-06-02T10:13:41Z</time>
      </trkpt>
      <trkpt lat="46.19429" lon="-1.06162">
        <ele>23.7</ele>
        <time>2020-06-02T10:13:42Z</time>
      </trkpt>
      <trkpt lat="46.1943" lon="-1.06162">
        <ele>23.7</ele>
        <time>2020-06-02T10:13:43Z</time>
      </trkpt>
      <trkpt lat="46.19433" lon="-1.0616">
        <ele>23.7</ele>
        <time>2020-06-02T10:13:44Z</time>
      </trkpt>
      <trkpt lat="46.19436" lon="-1.06157">
        <ele>23.7</ele>
        <time>2020-06-02T10:13:45Z</time>
      </trkpt>
      <trkpt lat="46.1944" lon="-1.06154">
        <ele>23.7</ele>
        <time>2020-06-02T10:13:46Z</time>
      </trkpt>
      <trkpt lat="46.19444" lon="-1.06152">
        <ele>23.7</ele>
        <time>2020-06-02T10:13:47Z</time>
      </trkpt>
      <trkpt lat="46.19448" lon="-1.0615">
        <ele>23.7</ele>
        <time>2020-06-02T10:13:48Z</time>
      </trkpt>
      <trkpt lat="46.19454" lon="-1.06147">
        <ele>23.7</ele>
        <time>2020-06-02T10:13:49Z</time>
      </trkpt>
      <trkpt lat="46.19458" lon="-1.06143">
        <ele>23.7</ele>
        <time>2020-06-02T10:13:50Z</time>
      </trkpt>
      <trkpt lat="46.19463" lon="-1.0614">
        <ele>23.7</ele>
        <time>2020-06-02T10:13:51Z</time>
      </trkpt>
      <trkpt lat="46.19469" lon="-1.06137">
        <ele>23.7</ele>
        <time>2020-06-02T10:13:52Z</time>
      </trkpt>
      <trkpt lat="46.19474" lon="-1.06135">
        <ele>23.7</ele>
        <time>2020-06-02T10:13:53Z</time>
      </trkpt>
      <trkpt lat="46.1948" lon="-1.06132">
        <ele>23.7</ele>
        <time>2020-06-02T10:13:54Z</time>
      </trkpt>
      <trkpt lat="46.19485" lon="-1.06129">
        <ele>23.6</ele>
        <time>2020-06-02T10:13:55Z</time>
      </trkpt>
      <trkpt lat="46.19491" lon="-1.06125">
        <ele>23.5</ele>
        <time>2020-06-02T10:13:56Z</time>
      </trkpt>
      <trkpt lat="46.19496" lon="-1.06122">
        <ele>23.5</ele>
        <time>2020-06-02T10:13:57Z</time>
      </trkpt>
      <trkpt lat="46.19501" lon="-1.06119">
        <ele>23.4</ele>
        <time>2020-06-02T10:13:58Z</time>
      </trkpt>
      <trkpt lat="46.19506" lon="-1.06116">
        <ele>23.3</ele>
        <time>2020-06-02T10:13:59Z</time>
      </trkpt>
      <trkpt lat="46.19511" lon="-1.06112">
        <ele>23.3</ele>
        <time>2020-06-02T10:14:00Z</time>
      </trkpt>
      <trkpt lat="46.19516" lon="-1.06109">
        <ele>23.2</ele>
        <time>2020-06-02T10:14:01Z</time>
      </trkpt>
      <trkpt lat="46.19521" lon="-1.06105">
        <ele>23.2</ele>
        <time>2020-06-02T10:14:02Z</time>
      </trkpt>
      <trkpt lat="46.19526" lon="-1.06102">
        <ele>23.1</ele>
        <time>2020-06-02T10:14:03Z</time>
      </trkpt>
      <trkpt lat="46.19532" lon="-1.06098">
        <ele>23</ele>
        <time>2020-06-02T10:14:04Z</time>
      </trkpt>
      <trkpt lat="46.19538" lon="-1.06095">
        <ele>23</ele>
        <time>2020-06-02T10:14:05Z</time>
      </trkpt>
      <trkpt lat="46.19544" lon="-1.06092">
        <ele>22.8</ele>
        <time>2020-06-02T10:14:06Z</time>
      </trkpt>
      <trkpt lat="46.1955" lon="-1.06089">
        <ele>22.6</ele>
        <time>2020-06-02T10:14:07Z</time>
      </trkpt>
      <trkpt lat="46.19555" lon="-1.06086">
        <ele>22.5</ele>
        <time>2020-06-02T10:14:08Z</time>
      </trkpt>
      <trkpt lat="46.19561" lon="-1.06082">
        <ele>22.2</ele>
        <time>2020-06-02T10:14:09Z</time>
      </trkpt>
      <trkpt lat="46.19567" lon="-1.0608">
        <ele>22</ele>
        <time>2020-06-02T10:14:10Z</time>
      </trkpt>
      <trkpt lat="46.19572" lon="-1.06077">
        <ele>21.8</ele>
        <time>2020-06-02T10:14:11Z</time>
      </trkpt>
      <trkpt lat="46.19579" lon="-1.06074">
        <ele>21.7</ele>
        <time>2020-06-02T10:14:12Z</time>
      </trkpt>
      <trkpt lat="46.19585" lon="-1.06071">
        <ele>21.5</ele>
        <time>2020-06-02T10:14:13Z</time>
      </trkpt>
      <trkpt lat="46.19591" lon="-1.06068">
        <ele>21.3</ele>
        <time>2020-06-02T10:14:14Z</time>
      </trkpt>
      <trkpt lat="46.19598" lon="-1.06064">
        <ele>21</ele>
        <time>2020-06-02T10:14:15Z</time>
      </trkpt>
      <trkpt lat="46.19605" lon="-1.0606">
        <ele>20.7</ele>
        <time>2020-06-02T10:14:16Z</time>
      </trkpt>
      <trkpt lat="46.19612" lon="-1.06056">
        <ele>20.3</ele>
        <time>2020-06-02T10:14:17Z</time>
      </trkpt>
      <trkpt lat="46.19619" lon="-1.06052">
        <ele>20</ele>
        <time>2020-06-02T10:14:18Z</time>
      </trkpt>
      <trkpt lat="46.19625" lon="-1.06047">
        <ele>19.7</ele>
        <time>2020-06-02T10:14:19Z</time>
      </trkpt>
      <trkpt lat="46.19634" lon="-1.06042">
        <ele>19.2</ele>
        <time>2020-06-02T10:14:20Z</time>
      </trkpt>
      <trkpt lat="46.19642" lon="-1.06038">
        <ele>18.8</ele>
        <time>2020-06-02T10:14:21Z</time>
      </trkpt>
      <trkpt lat="46.1965" lon="-1.06034">
        <ele>18.5</ele>
        <time>2020-06-02T10:14:22Z</time>
      </trkpt>
      <trkpt lat="46.19658" lon="-1.0603">
        <ele>18.1</ele>
        <time>2020-06-02T10:14:23Z</time>
      </trkpt>
      <trkpt lat="46.19667" lon="-1.06027">
        <ele>17.6</ele>
        <time>2020-06-02T10:14:24Z</time>
      </trkpt>
      <trkpt lat="46.19675" lon="-1.06023">
        <ele>17.2</ele>
        <time>2020-06-02T10:14:25Z</time>
      </trkpt>
      <trkpt lat="46.19684" lon="-1.0602">
        <ele>16.8</ele>
        <time>2020-06-02T10:14:26Z</time>
      </trkpt>
      <trkpt lat="46.19693" lon="-1.06017">
        <ele>16.5</ele>
        <time>2020-06-02T10:14:27Z</time>
      </trkpt>
      <trkpt lat="46.19701" lon="-1.06014">
        <ele>16.1</ele>
        <time>2020-06-02T10:14:28Z</time>
      </trkpt>
      <trkpt lat="46.1971" lon="-1.06011">
        <ele>15.8</ele>
        <time>2020-06-02T10:14:29Z</time>
      </trkpt>
      <trkpt lat="46.19719" lon="-1.06008">
        <ele>15.6</ele>
        <time>2020-06-02T10:14:30Z</time>
      </trkpt>
      <trkpt lat="46.19728" lon="-1.06005">
        <ele>15.4</ele>
        <time>2020-06-02T10:14:31Z</time>
      </trkpt>
      <trkpt lat="46.19737" lon="-1.06003">
        <ele>15.1</ele>
        <time>2020-06-02T10:14:32Z</time>
      </trkpt>
      <trkpt lat="46.19745" lon="-1.06">
        <ele>14.9</ele>
        <time>2020-06-02T10:14:33Z</time>
      </trkpt>
      <trkpt lat="46.19754" lon="-1.05997">
        <ele>14.7</ele>
        <time>2020-06-02T10:14:34Z</time>
      </trkpt>
      <trkpt lat="46.19762" lon="-1.05994">
        <ele>14.4</ele>
        <time>2020-06-02T10:14:35Z</time>
      </trkpt>
      <trkpt lat="46.1977" lon="-1.0599">
        <ele>14.3</ele>
        <time>2020-06-02T10:14:36Z</time>
      </trkpt>
      <trkpt lat="46.19778" lon="-1.05986">
        <ele>14.2</ele>
        <time>2020-06-02T10:14:37Z</time>
      </trkpt>
      <trkpt lat="46.19786" lon="-1.05982">
        <ele>14.2</ele>
        <time>2020-06-02T10:14:38Z</time>
      </trkpt>
      <trkpt lat="46.19793" lon="-1.05977">
        <ele>14.2</ele>
        <time>2020-06-02T10:14:39Z</time>
      </trkpt>
      <trkpt lat="46.198" lon="-1.05971">
        <ele>14.3</ele>
        <time>2020-06-02T10:14:40Z</time>
      </trkpt>
      <trkpt lat="46.19807" lon="-1.05966">
        <ele>14.3</ele>
        <time>2020-06-02T10:14:41Z</time>
      </trkpt>
      <trkpt lat="46.19814" lon="-1.0596">
        <ele>14.3</ele>
        <time>2020-06-02T10:14:42Z</time>
      </trkpt>
      <trkpt lat="46.19821" lon="-1.05953">
        <ele>14.3</ele>
        <time>2020-06-02T10:14:43Z</time>
      </trkpt>
      <trkpt lat="46.19827" lon="-1.05947">
        <ele>14.2</ele>
        <time>2020-06-02T10:14:44Z</time>
      </trkpt>
      <trkpt lat="46.19834" lon="-1.05941">
        <ele>14.1</ele>
        <time>2020-06-02T10:14:45Z</time>
      </trkpt>
      <trkpt lat="46.19841" lon="-1.05935">
        <ele>14.1</ele>
        <time>2020-06-02T10:14:46Z</time>
      </trkpt>
      <trkpt lat="46.19847" lon="-1.05929">
        <ele>14</ele>
        <time>2020-06-02T10:14:47Z</time>
      </trkpt>
      <trkpt lat="46.19854" lon="-1.05924">
        <ele>14</ele>
        <time>2020-06-02T10:14:48Z</time>
      </trkpt>
      <trkpt lat="46.19861" lon="-1.05918">
        <ele>14</ele>
        <time>2020-06-02T10:14:49Z</time>
      </trkpt>
      <trkpt lat="46.19867" lon="-1.05912">
        <ele>13.9</ele>
        <time>2020-06-02T10:14:50Z</time>
      </trkpt>
      <trkpt lat="46.19873" lon="-1.05906">
        <ele>13.9</ele>
        <time>2020-06-02T10:14:51Z</time>
      </trkpt>
      <trkpt lat="46.19879" lon="-1.05901">
        <ele>13.9</ele>
        <time>2020-06-02T10:14:52Z</time>
      </trkpt>
      <trkpt lat="46.19885" lon="-1.05894">
        <ele>13.9</ele>
        <time>2020-06-02T10:14:53Z</time>
      </trkpt>
      <trkpt lat="46.19891" lon="-1.05888">
        <ele>13.8</ele>
        <time>2020-06-02T10:14:54Z</time>
      </trkpt>
      <trkpt lat="46.19896" lon="-1.05882">
        <ele>13.8</ele>
        <time>2020-06-02T10:14:55Z</time>
      </trkpt>
      <trkpt lat="46.19901" lon="-1.05875">
        <ele>13.8</ele>
        <time>2020-06-02T10:14:56Z</time>
      </trkpt>
      <trkpt lat="46.19905" lon="-1.05867">
        <ele>13.7</ele>
        <time>2020-06-02T10:14:57Z</time>
      </trkpt>
      <trkpt lat="46.1991" lon="-1.05859">
        <ele>13.7</ele>
        <time>2020-06-02T10:14:58Z</time>
      </trkpt>
      <trkpt lat="46.19914" lon="-1.05851">
        <ele>13.7</ele>
        <time>2020-06-02T10:14:59Z</time>
      </trkpt>
      <trkpt lat="46.19918" lon="-1.05843">
        <ele>13.6</ele>
        <time>2020-06-02T10:15:00Z</time>
      </trkpt>
      <trkpt lat="46.19922" lon="-1.05835">
        <ele>13.6</ele>
        <time>2020-06-02T10:15:01Z</time>
      </trkpt>
      <trkpt lat="46.19926" lon="-1.05826">
        <ele>13.5</ele>
        <time>2020-06-02T10:15:02Z</time>
      </trkpt>
      <trkpt lat="46.19929" lon="-1.05817">
        <ele>13.5</ele>
        <time>2020-06-02T10:15:03Z</time>
      </trkpt>
      <trkpt lat="46.19932" lon="-1.05809">
        <ele>13.5</ele>
        <time>2020-06-02T10:15:04Z</time>
      </trkpt>
      <trkpt lat="46.19935" lon="-1.058">
        <ele>13.5</ele>
        <time>2020-06-02T10:15:05Z</time>
      </trkpt>
      <trkpt lat="46.19938" lon="-1.05791">
        <ele>13.5</ele>
        <time>2020-06-02T10:15:06Z</time>
      </trkpt>
      <trkpt lat="46.19941" lon="-1.05782">
        <ele>13.5</ele>
        <time>2020-06-02T10:15:07Z</time>
      </trkpt>
      <trkpt lat="46.19944" lon="-1.05774">
        <ele>13.6</ele>
        <time>2020-06-02T10:15:08Z</time>
      </trkpt>
      <trkpt lat="46.19947" lon="-1.05765">
        <ele>13.7</ele>
        <time>2020-06-02T10:15:09Z</time>
      </trkpt>
      <trkpt lat="46.1995" lon="-1.05757">
        <ele>13.7</ele>
        <time>2020-06-02T10:15:10Z</time>
      </trkpt>
      <trkpt lat="46.19952" lon="-1.05749">
        <ele>13.8</ele>
        <time>2020-06-02T10:15:11Z</time>
      </trkpt>
      <trkpt lat="46.19955" lon="-1.05741">
        <ele>13.9</ele>
        <time>2020-06-02T10:15:12Z</time>
      </trkpt>
      <trkpt lat="46.19958" lon="-1.05733">
        <ele>14</ele>
        <time>2020-06-02T10:15:13Z</time>
      </trkpt>
      <trkpt lat="46.19961" lon="-1.05726">
        <ele>14.2</ele>
        <time>2020-06-02T10:15:14Z</time>
      </trkpt>
      <trkpt lat="46.19965" lon="-1.0572">
        <ele>14.3</ele>
        <time>2020-06-02T10:15:15Z</time>
      </trkpt>
      <trkpt lat="46.19967" lon="-1.05712">
        <ele>14.4</ele>
        <time>2020-06-02T10:15:16Z</time>
      </trkpt>
      <trkpt lat="46.1997" lon="-1.05706">
        <ele>14.5</ele>
        <time>2020-06-02T10:15:17Z</time>
      </trkpt>
      <trkpt lat="46.19973" lon="-1.057">
        <ele>14.6</ele>
        <time>2020-06-02T10:15:18Z</time>
      </trkpt>
      <trkpt lat="46.19978" lon="-1.05695">
        <ele>14.7</ele>
        <time>2020-06-02T10:15:19Z</time>
      </trkpt>
      <trkpt lat="46.19981" lon="-1.05689">
        <ele>14.8</ele>
        <time>2020-06-02T10:15:20Z</time>
      </trkpt>
      <trkpt lat="46.19985" lon="-1.05684">
        <ele>14.9</ele>
        <time>2020-06-02T10:15:21Z</time>
      </trkpt>
      <trkpt lat="46.19989" lon="-1.0568">
        <ele>15</ele>
        <time>2020-06-02T10:15:22Z</time>
      </trkpt>
      <trkpt lat="46.19993" lon="-1.05676">
        <ele>15.2</ele>
        <time>2020-06-02T10:15:23Z</time>
      </trkpt>
      <trkpt lat="46.19998" lon="-1.05671">
        <ele>15.3</ele>
        <time>2020-06-02T10:15:24Z</time>
      </trkpt>
      <trkpt lat="46.20002" lon="-1.05666">
        <ele>15.4</ele>
        <time>2020-06-02T10:15:25Z</time>
      </trkpt>
      <trkpt lat="46.20007" lon="-1.05662">
        <ele>15.4</ele>
        <time>2020-06-02T10:15:26Z</time>
      </trkpt>
      <trkpt lat="46.20011" lon="-1.05659">
        <ele>15.4</ele>
        <time>2020-06-02T10:15:27Z</time>
      </trkpt>
      <trkpt lat="46.20015" lon="-1.05655">
        <ele>15.5</ele>
        <time>2020-06-02T10:15:28Z</time>
      </trkpt>
      <trkpt lat="46.2002" lon="-1.05651">
        <ele>15.6</ele>
        <time>2020-06-02T10:15:29Z</time>
      </trkpt>
      <trkpt lat="46.20024" lon="-1.05649">
        <ele>15.7</ele>
        <time>2020-06-02T10:15:30Z</time>
      </trkpt>
      <trkpt lat="46.20029" lon="-1.05646">
        <ele>15.8</ele>
        <time>2020-06-02T10:15:31Z</time>
      </trkpt>
      <trkpt lat="46.20034" lon="-1.05645">
        <ele>15.9</ele>
        <time>2020-06-02T10:15:32Z</time>
      </trkpt>
      <trkpt lat="46.20038" lon="-1.05643">
        <ele>16</ele>
        <time>2020-06-02T10:15:33Z</time>
      </trkpt>
      <trkpt lat="46.20044" lon="-1.05641">
        <ele>16</ele>
        <time>2020-06-02T10:15:34Z</time>
      </trkpt>
      <trkpt lat="46.20049" lon="-1.05639">
        <ele>16</ele>
        <time>2020-06-02T10:15:35Z</time>
      </trkpt>
      <trkpt lat="46.20054" lon="-1.05637">
        <ele>16.1</ele>
        <time>2020-06-02T10:15:36Z</time>
      </trkpt>
      <trkpt lat="46.20058" lon="-1.05635">
        <ele>16.1</ele>
        <time>2020-06-02T10:15:37Z</time>
      </trkpt>
      <trkpt lat="46.20062" lon="-1.05634">
        <ele>16.1</ele>
        <time>2020-06-02T10:15:38Z</time>
      </trkpt>
      <trkpt lat="46.20068" lon="-1.05632">
        <ele>16.1</ele>
        <time>2020-06-02T10:15:39Z</time>
      </trkpt>
      <trkpt lat="46.20073" lon="-1.0563">
        <ele>16.1</ele>
        <time>2020-06-02T10:15:40Z</time>
      </trkpt>
      <trkpt lat="46.20079" lon="-1.05628">
        <ele>16</ele>
        <time>2020-06-02T10:15:41Z</time>
      </trkpt>
      <trkpt lat="46.20084" lon="-1.05626">
        <ele>16</ele>
        <time>2020-06-02T10:15:42Z</time>
      </trkpt>
      <trkpt lat="46.2009" lon="-1.05624">
        <ele>16</ele>
        <time>2020-06-02T10:15:43Z</time>
      </trkpt>
      <trkpt lat="46.20095" lon="-1.05622">
        <ele>16</ele>
        <time>2020-06-02T10:15:44Z</time>
      </trkpt>
      <trkpt lat="46.20102" lon="-1.0562">
        <ele>15.9</ele>
        <time>2020-06-02T10:15:45Z</time>
      </trkpt>
      <trkpt lat="46.20108" lon="-1.05617">
        <ele>15.9</ele>
        <time>2020-06-02T10:15:46Z</time>
      </trkpt>
      <trkpt lat="46.20113" lon="-1.05614">
        <ele>15.8</ele>
        <time>2020-06-02T10:15:47Z</time>
      </trkpt>
      <trkpt lat="46.20119" lon="-1.05611">
        <ele>15.8</ele>
        <time>2020-06-02T10:15:48Z</time>
      </trkpt>
      <trkpt lat="46.20125" lon="-1.05607">
        <ele>15.7</ele>
        <time>2020-06-02T10:15:49Z</time>
      </trkpt>
      <trkpt lat="46.20131" lon="-1.05605">
        <ele>15.6</ele>
        <time>2020-06-02T10:15:50Z</time>
      </trkpt>
      <trkpt lat="46.20136" lon="-1.05603">
        <ele>15.4</ele>
        <time>2020-06-02T10:15:51Z</time>
      </trkpt>
      <trkpt lat="46.20142" lon="-1.05601">
        <ele>15.3</ele>
        <time>2020-06-02T10:15:52Z</time>
      </trkpt>
      <trkpt lat="46.20149" lon="-1.05598">
        <ele>15.1</ele>
        <time>2020-06-02T10:15:53Z</time>
      </trkpt>
      <trkpt lat="46.20155" lon="-1.05596">
        <ele>15</ele>
        <time>2020-06-02T10:15:54Z</time>
      </trkpt>
      <trkpt lat="46.20161" lon="-1.05593">
        <ele>14.8</ele>
        <time>2020-06-02T10:15:55Z</time>
      </trkpt>
      <trkpt lat="46.20167" lon="-1.0559">
        <ele>14.6</ele>
        <time>2020-06-02T10:15:56Z</time>
      </trkpt>
      <trkpt lat="46.20173" lon="-1.05587">
        <ele>14.4</ele>
        <time>2020-06-02T10:15:57Z</time>
      </trkpt>
      <trkpt lat="46.2018" lon="-1.05584">
        <ele>14.1</ele>
        <time>2020-06-02T10:15:58Z</time>
      </trkpt>
      <trkpt lat="46.20187" lon="-1.05581">
        <ele>13.8</ele>
        <time>2020-06-02T10:15:59Z</time>
      </trkpt>
      <trkpt lat="46.20193" lon="-1.05578">
        <ele>13.5</ele>
        <time>2020-06-02T10:16:00Z</time>
      </trkpt>
      <trkpt lat="46.20199" lon="-1.05574">
        <ele>13.2</ele>
        <time>2020-06-02T10:16:01Z</time>
      </trkpt>
      <trkpt lat="46.20206" lon="-1.05569">
        <ele>12.9</ele>
        <time>2020-06-02T10:16:02Z</time>
      </trkpt>
      <trkpt lat="46.20213" lon="-1.05565">
        <ele>12.6</ele>
        <time>2020-06-02T10:16:03Z</time>
      </trkpt>
      <trkpt lat="46.2022" lon="-1.05559">
        <ele>12.4</ele>
        <time>2020-06-02T10:16:04Z</time>
      </trkpt>
      <trkpt lat="46.20227" lon="-1.05553">
        <ele>12.3</ele>
        <time>2020-06-02T10:16:05Z</time>
      </trkpt>
      <trkpt lat="46.20234" lon="-1.05547">
        <ele>12.1</ele>
        <time>2020-06-02T10:16:06Z</time>
      </trkpt>
      <trkpt lat="46.20241" lon="-1.05541">
        <ele>11.9</ele>
        <time>2020-06-02T10:16:07Z</time>
      </trkpt>
      <trkpt lat="46.20249" lon="-1.05535">
        <ele>11.8</ele>
        <time>2020-06-02T10:16:08Z</time>
      </trkpt>
      <trkpt lat="46.20256" lon="-1.0553">
        <ele>11.6</ele>
        <time>2020-06-02T10:16:09Z</time>
      </trkpt>
      <trkpt lat="46.20263" lon="-1.05524">
        <ele>11.3</ele>
        <time>2020-06-02T10:16:10Z</time>
      </trkpt>
      <trkpt lat="46.2027" lon="-1.05518">
        <ele>11.1</ele>
        <time>2020-06-02T10:16:11Z</time>
      </trkpt>
      <trkpt lat="46.20277" lon="-1.05513">
        <ele>11</ele>
        <time>2020-06-02T10:16:12Z</time>
      </trkpt>
      <trkpt lat="46.20284" lon="-1.05509">
        <ele>10.8</ele>
        <time>2020-06-02T10:16:13Z</time>
      </trkpt>
      <trkpt lat="46.20292" lon="-1.05505">
        <ele>10.7</ele>
        <time>2020-06-02T10:16:14Z</time>
      </trkpt>
      <trkpt lat="46.20299" lon="-1.055">
        <ele>10.6</ele>
        <time>2020-06-02T10:16:15Z</time>
      </trkpt>
      <trkpt lat="46.20307" lon="-1.05495">
        <ele>10.5</ele>
        <time>2020-06-02T10:16:16Z</time>
      </trkpt>
      <trkpt lat="46.20314" lon="-1.05491">
        <ele>10.4</ele>
        <time>2020-06-02T10:16:17Z</time>
      </trkpt>
      <trkpt lat="46.20322" lon="-1.05486">
        <ele>10.4</ele>
        <time>2020-06-02T10:16:18Z</time>
      </trkpt>
      <trkpt lat="46.20329" lon="-1.05482">
        <ele>10.3</ele>
        <time>2020-06-02T10:16:19Z</time>
      </trkpt>
      <trkpt lat="46.20337" lon="-1.05478">
        <ele>10.3</ele>
        <time>2020-06-02T10:16:20Z</time>
      </trkpt>
      <trkpt lat="46.20345" lon="-1.05474">
        <ele>10.2</ele>
        <time>2020-06-02T10:16:21Z</time>
      </trkpt>
      <trkpt lat="46.20352" lon="-1.05469">
        <ele>10.1</ele>
        <time>2020-06-02T10:16:22Z</time>
      </trkpt>
      <trkpt lat="46.20359" lon="-1.05463">
        <ele>10.1</ele>
        <time>2020-06-02T10:16:23Z</time>
      </trkpt>
      <trkpt lat="46.20366" lon="-1.05458">
        <ele>10</ele>
        <time>2020-06-02T10:16:24Z</time>
      </trkpt>
      <trkpt lat="46.20373" lon="-1.05454">
        <ele>10</ele>
        <time>2020-06-02T10:16:25Z</time>
      </trkpt>
      <trkpt lat="46.2038" lon="-1.05449">
        <ele>9.9</ele>
        <time>2020-06-02T10:16:26Z</time>
      </trkpt>
      <trkpt lat="46.20387" lon="-1.05444">
        <ele>9.8</ele>
        <time>2020-06-02T10:16:27Z</time>
      </trkpt>
      <trkpt lat="46.20394" lon="-1.05439">
        <ele>9.7</ele>
        <time>2020-06-02T10:16:28Z</time>
      </trkpt>
      <trkpt lat="46.20401" lon="-1.05433">
        <ele>9.5</ele>
        <time>2020-06-02T10:16:29Z</time>
      </trkpt>
      <trkpt lat="46.20407" lon="-1.05428">
        <ele>9.4</ele>
        <time>2020-06-02T10:16:30Z</time>
      </trkpt>
      <trkpt lat="46.20413" lon="-1.05421">
        <ele>9.3</ele>
        <time>2020-06-02T10:16:31Z</time>
      </trkpt>
      <trkpt lat="46.20419" lon="-1.05415">
        <ele>9.3</ele>
        <time>2020-06-02T10:16:32Z</time>
      </trkpt>
      <trkpt lat="46.20425" lon="-1.05409">
        <ele>9.3</ele>
        <time>2020-06-02T10:16:33Z</time>
      </trkpt>
      <trkpt lat="46.20431" lon="-1.05403">
        <ele>9.2</ele>
        <time>2020-06-02T10:16:34Z</time>
      </trkpt>
      <trkpt lat="46.20436" lon="-1.05399">
        <ele>9.2</ele>
        <time>2020-06-02T10:16:35Z</time>
      </trkpt>
      <trkpt lat="46.20441" lon="-1.05395">
        <ele>9.2</ele>
        <time>2020-06-02T10:16:36Z</time>
      </trkpt>
      <trkpt lat="46.20446" lon="-1.05391">
        <ele>9.2</ele>
        <time>2020-06-02T10:16:37Z</time>
      </trkpt>
      <trkpt lat="46.20451" lon="-1.05388">
        <ele>9.2</ele>
        <time>2020-06-02T10:16:38Z</time>
      </trkpt>
      <trkpt lat="46.20453" lon="-1.05383">
        <ele>9.2</ele>
        <time>2020-06-02T10:16:39Z</time>
      </trkpt>
      <trkpt lat="46.20454" lon="-1.05379">
        <ele>9.2</ele>
        <time>2020-06-02T10:16:40Z</time>
      </trkpt>
      <trkpt lat="46.20453" lon="-1.05374">
        <ele>9.2</ele>
        <time>2020-06-02T10:16:41Z</time>
      </trkpt>
      <trkpt lat="46.20453" lon="-1.05369">
        <ele>9.1</ele>
        <time>2020-06-02T10:16:42Z</time>
      </trkpt>
      <trkpt lat="46.20452" lon="-1.05363">
        <ele>9.1</ele>
        <time>2020-06-02T10:16:43Z</time>
      </trkpt>
      <trkpt lat="46.20451" lon="-1.05357">
        <ele>9.1</ele>
        <time>2020-06-02T10:16:44Z</time>
      </trkpt>
      <trkpt lat="46.20449" lon="-1.05352">
        <ele>9.1</ele>
        <time>2020-06-02T10:16:45Z</time>
      </trkpt>
      <trkpt lat="46.20447" lon="-1.05346">
        <ele>9.1</ele>
        <time>2020-06-02T10:16:46Z</time>
      </trkpt>
      <trkpt lat="46.20445" lon="-1.0534">
        <ele>9</ele>
        <time>2020-06-02T10:16:47Z</time>
      </trkpt>
      <trkpt lat="46.20443" lon="-1.05334">
        <ele>9</ele>
        <time>2020-06-02T10:16:48Z</time>
      </trkpt>
      <trkpt lat="46.20442" lon="-1.05327">
        <ele>9</ele>
        <time>2020-06-02T10:16:49Z</time>
      </trkpt>
      <trkpt lat="46.2044" lon="-1.05321">
        <ele>8.9</ele>
        <time>2020-06-02T10:16:50Z</time>
      </trkpt>
      <trkpt lat="46.20439" lon="-1.05314">
        <ele>8.8</ele>
        <time>2020-06-02T10:16:51Z</time>
      </trkpt>
      <trkpt lat="46.20437" lon="-1.05307">
        <ele>8.8</ele>
        <time>2020-06-02T10:16:52Z</time>
      </trkpt>
      <trkpt lat="46.20435" lon="-1.05301">
        <ele>8.7</ele>
        <time>2020-06-02T10:16:53Z</time>
      </trkpt>
      <trkpt lat="46.20434" lon="-1.05295">
        <ele>8.6</ele>
        <time>2020-06-02T10:16:54Z</time>
      </trkpt>
      <trkpt lat="46.20433" lon="-1.05288">
        <ele>8.5</ele>
        <time>2020-06-02T10:16:55Z</time>
      </trkpt>
      <trkpt lat="46.20431" lon="-1.05282">
        <ele>8.4</ele>
        <time>2020-06-02T10:16:56Z</time>
      </trkpt>
      <trkpt lat="46.20431" lon="-1.05276">
        <ele>8.4</ele>
        <time>2020-06-02T10:16:57Z</time>
      </trkpt>
      <trkpt lat="46.20431" lon="-1.05269">
        <ele>8.3</ele>
        <time>2020-06-02T10:16:58Z</time>
      </trkpt>
      <trkpt lat="46.20432" lon="-1.05263">
        <ele>8.3</ele>
        <time>2020-06-02T10:16:59Z</time>
      </trkpt>
      <trkpt lat="46.20435" lon="-1.05258">
        <ele>8.2</ele>
        <time>2020-06-02T10:17:00Z</time>
      </trkpt>
      <trkpt lat="46.20437" lon="-1.05252">
        <ele>8.2</ele>
        <time>2020-06-02T10:17:01Z</time>
      </trkpt>
      <trkpt lat="46.20439" lon="-1.05246">
        <ele>8.2</ele>
        <time>2020-06-02T10:17:02Z</time>
      </trkpt>
      <trkpt lat="46.20442" lon="-1.05241">
        <ele>8.2</ele>
        <time>2020-06-02T10:17:03Z</time>
      </trkpt>
      <trkpt lat="46.20445" lon="-1.05236">
        <ele>8.2</ele>
        <time>2020-06-02T10:17:04Z</time>
      </trkpt>
      <trkpt lat="46.20447" lon="-1.05229">
        <ele>8.2</ele>
        <time>2020-06-02T10:17:05Z</time>
      </trkpt>
      <trkpt lat="46.2045" lon="-1.05224">
        <ele>8.2</ele>
        <time>2020-06-02T10:17:06Z</time>
      </trkpt>
      <trkpt lat="46.20452" lon="-1.05219">
        <ele>8.1</ele>
        <time>2020-06-02T10:17:07Z</time>
      </trkpt>
      <trkpt lat="46.20454" lon="-1.05214">
        <ele>8.1</ele>
        <time>2020-06-02T10:17:08Z</time>
      </trkpt>
      <trkpt lat="46.20457" lon="-1.05209">
        <ele>8.1</ele>
        <time>2020-06-02T10:17:09Z</time>
      </trkpt>
      <trkpt lat="46.2046" lon="-1.05205">
        <ele>8.1</ele>
        <time>2020-06-02T10:17:10Z</time>
      </trkpt>
      <trkpt lat="46.20463" lon="-1.052">
        <ele>8.1</ele>
        <time>2020-06-02T10:17:11Z</time>
      </trkpt>
      <trkpt lat="46.20466" lon="-1.05195">
        <ele>8.1</ele>
        <time>2020-06-02T10:17:12Z</time>
      </trkpt>
      <trkpt lat="46.20469" lon="-1.0519">
        <ele>8.1</ele>
        <time>2020-06-02T10:17:13Z</time>
      </trkpt>
      <trkpt lat="46.20473" lon="-1.05186">
        <ele>8.1</ele>
        <time>2020-06-02T10:17:14Z</time>
      </trkpt>
      <trkpt lat="46.20477" lon="-1.05183">
        <ele>8.1</ele>
        <time>2020-06-02T10:17:15Z</time>
      </trkpt>
      <trkpt lat="46.2048" lon="-1.05179">
        <ele>8.1</ele>
        <time>2020-06-02T10:17:16Z</time>
      </trkpt>
      <trkpt lat="46.20484" lon="-1.05174">
        <ele>8.1</ele>
        <time>2020-06-02T10:17:17Z</time>
      </trkpt>
      <trkpt lat="46.20488" lon="-1.05169">
        <ele>8.1</ele>
        <time>2020-06-02T10:17:18Z</time>
      </trkpt>
      <trkpt lat="46.20492" lon="-1.05167">
        <ele>8.1</ele>
        <time>2020-06-02T10:17:19Z</time>
      </trkpt>
      <trkpt lat="46.20495" lon="-1.05163">
        <ele>8.1</ele>
        <time>2020-06-02T10:17:20Z</time>
      </trkpt>
      <trkpt lat="46.20499" lon="-1.05159">
        <ele>8.1</ele>
        <time>2020-06-02T10:17:21Z</time>
      </trkpt>
      <trkpt lat="46.20502" lon="-1.05155">
        <ele>8.1</ele>
        <time>2020-06-02T10:17:22Z</time>
      </trkpt>
      <trkpt lat="46.20506" lon="-1.05152">
        <ele>8.1</ele>
        <time>2020-06-02T10:17:23Z</time>
      </trkpt>
      <trkpt lat="46.2051" lon="-1.05148">
        <ele>8.1</ele>
        <time>2020-06-02T10:17:24Z</time>
      </trkpt>
      <trkpt lat="46.20513" lon="-1.05143">
        <ele>8.1</ele>
        <time>2020-06-02T10:17:25Z</time>
      </trkpt>
      <trkpt lat="46.20516" lon="-1.05139">
        <ele>8.1</ele>
        <time>2020-06-02T10:17:26Z</time>
      </trkpt>
      <trkpt lat="46.2052" lon="-1.05135">
        <ele>8.1</ele>
        <time>2020-06-02T10:17:27Z</time>
      </trkpt>
      <trkpt lat="46.20524" lon="-1.05131">
        <ele>8.1</ele>
        <time>2020-06-02T10:17:28Z</time>
      </trkpt>
      <trkpt lat="46.20527" lon="-1.05128">
        <ele>8.1</ele>
        <time>2020-06-02T10:17:29Z</time>
      </trkpt>
      <trkpt lat="46.20531" lon="-1.05124">
        <ele>8.1</ele>
        <time>2020-06-02T10:17:30Z</time>
      </trkpt>
      <trkpt lat="46.20534" lon="-1.0512">
        <ele>8.1</ele>
        <time>2020-06-02T10:17:31Z</time>
      </trkpt>
      <trkpt lat="46.20538" lon="-1.05117">
        <ele>8.1</ele>
        <time>2020-06-02T10:17:32Z</time>
      </trkpt>
      <trkpt lat="46.20541" lon="-1.05113">
        <ele>8.1</ele>
        <time>2020-06-02T10:17:33Z</time>
      </trkpt>
      <trkpt lat="46.20545" lon="-1.05109">
        <ele>8.2</ele>
        <time>2020-06-02T10:17:34Z</time>
      </trkpt>
      <trkpt lat="46.20547" lon="-1.05104">
        <ele>8.2</ele>
        <time>2020-06-02T10:17:35Z</time>
      </trkpt>
      <trkpt lat="46.20551" lon="-1.05101">
        <ele>8.2</ele>
        <time>2020-06-02T10:17:36Z</time>
      </trkpt>
      <trkpt lat="46.20554" lon="-1.05098">
        <ele>8.2</ele>
        <time>2020-06-02T10:17:37Z</time>
      </trkpt>
      <trkpt lat="46.20557" lon="-1.05094">
        <ele>8.2</ele>
        <time>2020-06-02T10:17:38Z</time>
      </trkpt>
      <trkpt lat="46.2056" lon="-1.05092">
        <ele>8.3</ele>
        <time>2020-06-02T10:17:39Z</time>
      </trkpt>
      <trkpt lat="46.20563" lon="-1.05089">
        <ele>8.3</ele>
        <time>2020-06-02T10:17:40Z</time>
      </trkpt>
      <trkpt lat="46.20566" lon="-1.05086">
        <ele>8.3</ele>
        <time>2020-06-02T10:17:41Z</time>
      </trkpt>
      <trkpt lat="46.20568" lon="-1.05082">
        <ele>8.2</ele>
        <time>2020-06-02T10:17:42Z</time>
      </trkpt>
      <trkpt lat="46.20572" lon="-1.05078">
        <ele>8.2</ele>
        <time>2020-06-02T10:17:43Z</time>
      </trkpt>
      <trkpt lat="46.20576" lon="-1.05076">
        <ele>8.2</ele>
        <time>2020-06-02T10:17:44Z</time>
      </trkpt>
      <trkpt lat="46.20579" lon="-1.05072">
        <ele>8.2</ele>
        <time>2020-06-02T10:17:45Z</time>
      </trkpt>
      <trkpt lat="46.20582" lon="-1.05069">
        <ele>8.3</ele>
        <time>2020-06-02T10:17:46Z</time>
      </trkpt>
      <trkpt lat="46.20584" lon="-1.05064">
        <ele>8.3</ele>
        <time>2020-06-02T10:17:47Z</time>
      </trkpt>
      <trkpt lat="46.20587" lon="-1.05061">
        <ele>8.3</ele>
        <time>2020-06-02T10:17:48Z</time>
      </trkpt>
      <trkpt lat="46.2059" lon="-1.05057">
        <ele>8.3</ele>
        <time>2020-06-02T10:17:49Z</time>
      </trkpt>
      <trkpt lat="46.20593" lon="-1.05054">
        <ele>8.3</ele>
        <time>2020-06-02T10:17:50Z</time>
      </trkpt>
      <trkpt lat="46.20596" lon="-1.05051">
        <ele>8.4</ele>
        <time>2020-06-02T10:17:51Z</time>
      </trkpt>
      <trkpt lat="46.20599" lon="-1.05048">
        <ele>8.4</ele>
        <time>2020-06-02T10:17:52Z</time>
      </trkpt>
      <trkpt lat="46.20602" lon="-1.05045">
        <ele>8.4</ele>
        <time>2020-06-02T10:17:53Z</time>
      </trkpt>
      <trkpt lat="46.20605" lon="-1.05043">
        <ele>8.4</ele>
        <time>2020-06-02T10:17:54Z</time>
      </trkpt>
      <trkpt lat="46.20608" lon="-1.05041">
        <ele>8.4</ele>
        <time>2020-06-02T10:17:55Z</time>
      </trkpt>
      <trkpt lat="46.20611" lon="-1.05038">
        <ele>8.4</ele>
        <time>2020-06-02T10:17:56Z</time>
      </trkpt>
      <trkpt lat="46.20615" lon="-1.05035">
        <ele>8.5</ele>
        <time>2020-06-02T10:17:57Z</time>
      </trkpt>
      <trkpt lat="46.20619" lon="-1.05032">
        <ele>8.5</ele>
        <time>2020-06-02T10:17:58Z</time>
      </trkpt>
      <trkpt lat="46.20622" lon="-1.05029">
        <ele>8.5</ele>
        <time>2020-06-02T10:17:59Z</time>
      </trkpt>
      <trkpt lat="46.20626" lon="-1.05027">
        <ele>8.5</ele>
        <time>2020-06-02T10:18:00Z</time>
      </trkpt>
      <trkpt lat="46.20629" lon="-1.05023">
        <ele>8.6</ele>
        <time>2020-06-02T10:18:01Z</time>
      </trkpt>
      <trkpt lat="46.20632" lon="-1.05021">
        <ele>8.6</ele>
        <time>2020-06-02T10:18:02Z</time>
      </trkpt>
      <trkpt lat="46.20636" lon="-1.05019">
        <ele>8.6</ele>
        <time>2020-06-02T10:18:03Z</time>
      </trkpt>
      <trkpt lat="46.20639" lon="-1.05017">
        <ele>8.6</ele>
        <time>2020-06-02T10:18:04Z</time>
      </trkpt>
      <trkpt lat="46.20643" lon="-1.05014">
        <ele>8.6</ele>
        <time>2020-06-02T10:18:05Z</time>
      </trkpt>
      <trkpt lat="46.20646" lon="-1.05013">
        <ele>8.7</ele>
        <time>2020-06-02T10:18:06Z</time>
      </trkpt>
      <trkpt lat="46.20649" lon="-1.05011">
        <ele>8.6</ele>
        <time>2020-06-02T10:18:07Z</time>
      </trkpt>
      <trkpt lat="46.20652" lon="-1.0501">
        <ele>8.5</ele>
        <time>2020-06-02T10:18:08Z</time>
      </trkpt>
      <trkpt lat="46.20655" lon="-1.05008">
        <ele>8.5</ele>
        <time>2020-06-02T10:18:09Z</time>
      </trkpt>
      <trkpt lat="46.20657" lon="-1.05006">
        <ele>8.4</ele>
        <time>2020-06-02T10:18:10Z</time>
      </trkpt>
      <trkpt lat="46.2066" lon="-1.05004">
        <ele>8.4</ele>
        <time>2020-06-02T10:18:11Z</time>
      </trkpt>
      <trkpt lat="46.20663" lon="-1.05002">
        <ele>8.4</ele>
        <time>2020-06-02T10:18:12Z</time>
      </trkpt>
      <trkpt lat="46.20666" lon="-1.05">
        <ele>8.3</ele>
        <time>2020-06-02T10:18:13Z</time>
      </trkpt>
      <trkpt lat="46.20668" lon="-1.04996">
        <ele>8.2</ele>
        <time>2020-06-02T10:18:14Z</time>
      </trkpt>
      <trkpt lat="46.20669" lon="-1.04994">
        <ele>8.2</ele>
        <time>2020-06-02T10:18:15Z</time>
      </trkpt>
      <trkpt lat="46.20671" lon="-1.04992">
        <ele>8.2</ele>
        <time>2020-06-02T10:18:16Z</time>
      </trkpt>
      <trkpt lat="46.20674" lon="-1.0499">
        <ele>8.1</ele>
        <time>2020-06-02T10:18:17Z</time>
      </trkpt>
      <trkpt lat="46.20677" lon="-1.04987">
        <ele>8.1</ele>
        <time>2020-06-02T10:18:18Z</time>
      </trkpt>
      <trkpt lat="46.2068" lon="-1.04985">
        <ele>8</ele>
        <time>2020-06-02T10:18:19Z</time>
      </trkpt>
      <trkpt lat="46.20683" lon="-1.04983">
        <ele>8</ele>
        <time>2020-06-02T10:18:20Z</time>
      </trkpt>
      <trkpt lat="46.20686" lon="-1.04981">
        <ele>7.9</ele>
        <time>2020-06-02T10:18:21Z</time>
      </trkpt>
      <trkpt lat="46.20688" lon="-1.04979">
        <ele>7.9</ele>
        <time>2020-06-02T10:18:22Z</time>
      </trkpt>
      <trkpt lat="46.20692" lon="-1.04975">
        <ele>7.8</ele>
        <time>2020-06-02T10:18:23Z</time>
      </trkpt>
      <trkpt lat="46.20695" lon="-1.04971">
        <ele>7.8</ele>
        <time>2020-06-02T10:18:24Z</time>
      </trkpt>
      <trkpt lat="46.20698" lon="-1.04966">
        <ele>7.7</ele>
        <time>2020-06-02T10:18:25Z</time>
      </trkpt>
      <trkpt lat="46.207" lon="-1.04963">
        <ele>7.6</ele>
        <time>2020-06-02T10:18:26Z</time>
      </trkpt>
      <trkpt lat="46.20702" lon="-1.0496">
        <ele>7.6</ele>
        <time>2020-06-02T10:18:27Z</time>
      </trkpt>
      <trkpt lat="46.20704" lon="-1.04956">
        <ele>7.6</ele>
        <time>2020-06-02T10:18:28Z</time>
      </trkpt>
      <trkpt lat="46.20706" lon="-1.04953">
        <ele>7.5</ele>
        <time>2020-06-02T10:18:29Z</time>
      </trkpt>
      <trkpt lat="46.20707" lon="-1.04949">
        <ele>7.5</ele>
        <time>2020-06-02T10:18:30Z</time>
      </trkpt>
      <trkpt lat="46.20708" lon="-1.04943">
        <ele>7.4</ele>
        <time>2020-06-02T10:18:31Z</time>
      </trkpt>
      <trkpt lat="46.20707" lon="-1.04939">
        <ele>7.4</ele>
        <time>2020-06-02T10:18:32Z</time>
      </trkpt>
      <trkpt lat="46.20707" lon="-1.04934">
        <ele>7.4</ele>
        <time>2020-06-02T10:18:33Z</time>
      </trkpt>
      <trkpt lat="46.20707" lon="-1.04929">
        <ele>7.4</ele>
        <time>2020-06-02T10:18:34Z</time>
      </trkpt>
      <trkpt lat="46.20706" lon="-1.04925">
        <ele>7.4</ele>
        <time>2020-06-02T10:18:35Z</time>
      </trkpt>
      <trkpt lat="46.20707" lon="-1.0492">
        <ele>7.4</ele>
        <time>2020-06-02T10:18:36Z</time>
      </trkpt>
      <trkpt lat="46.2071" lon="-1.04916">
        <ele>7.4</ele>
        <time>2020-06-02T10:18:37Z</time>
      </trkpt>
      <trkpt lat="46.20713" lon="-1.04912">
        <ele>7.5</ele>
        <time>2020-06-02T10:18:38Z</time>
      </trkpt>
      <trkpt lat="46.20716" lon="-1.04909">
        <ele>7.5</ele>
        <time>2020-06-02T10:18:39Z</time>
      </trkpt>
      <trkpt lat="46.2072" lon="-1.04905">
        <ele>7.5</ele>
        <time>2020-06-02T10:18:40Z</time>
      </trkpt>
      <trkpt lat="46.20724" lon="-1.049">
        <ele>7.5</ele>
        <time>2020-06-02T10:18:41Z</time>
      </trkpt>
      <trkpt lat="46.20727" lon="-1.04896">
        <ele>7.5</ele>
        <time>2020-06-02T10:18:42Z</time>
      </trkpt>
      <trkpt lat="46.2073" lon="-1.0489">
        <ele>7.6</ele>
        <time>2020-06-02T10:18:43Z</time>
      </trkpt>
      <trkpt lat="46.20734" lon="-1.04886">
        <ele>7.6</ele>
        <time>2020-06-02T10:18:44Z</time>
      </trkpt>
      <trkpt lat="46.20737" lon="-1.04882">
        <ele>7.6</ele>
        <time>2020-06-02T10:18:45Z</time>
      </trkpt>
      <trkpt lat="46.2074" lon="-1.04879">
        <ele>7.5</ele>
        <time>2020-06-02T10:18:46Z</time>
      </trkpt>
      <trkpt lat="46.20743" lon="-1.04876">
        <ele>7.5</ele>
        <time>2020-06-02T10:18:47Z</time>
      </trkpt>
      <trkpt lat="46.20746" lon="-1.04874">
        <ele>7.4</ele>
        <time>2020-06-02T10:18:48Z</time>
      </trkpt>
      <trkpt lat="46.2075" lon="-1.04872">
        <ele>7.3</ele>
        <time>2020-06-02T10:18:49Z</time>
      </trkpt>
      <trkpt lat="46.20753" lon="-1.0487">
        <ele>7.2</ele>
        <time>2020-06-02T10:18:50Z</time>
      </trkpt>
      <trkpt lat="46.20757" lon="-1.04869">
        <ele>7.1</ele>
        <time>2020-06-02T10:18:51Z</time>
      </trkpt>
      <trkpt lat="46.20762" lon="-1.04867">
        <ele>7</ele>
        <time>2020-06-02T10:18:52Z</time>
      </trkpt>
      <trkpt lat="46.20766" lon="-1.04863">
        <ele>6.9</ele>
        <time>2020-06-02T10:18:53Z</time>
      </trkpt>
      <trkpt lat="46.20771" lon="-1.04859">
        <ele>6.7</ele>
        <time>2020-06-02T10:18:54Z</time>
      </trkpt>
      <trkpt lat="46.20777" lon="-1.04855">
        <ele>6.6</ele>
        <time>2020-06-02T10:18:55Z</time>
      </trkpt>
      <trkpt lat="46.20783" lon="-1.04851">
        <ele>6.6</ele>
        <time>2020-06-02T10:18:56Z</time>
      </trkpt>
      <trkpt lat="46.20789" lon="-1.04847">
        <ele>6.7</ele>
        <time>2020-06-02T10:18:57Z</time>
      </trkpt>
      <trkpt lat="46.20795" lon="-1.04843">
        <ele>6.9</ele>
        <time>2020-06-02T10:18:58Z</time>
      </trkpt>
      <trkpt lat="46.208" lon="-1.04839">
        <ele>7.2</ele>
        <time>2020-06-02T10:18:59Z</time>
      </trkpt>
      <trkpt lat="46.20804" lon="-1.04835">
        <ele>7.5</ele>
        <time>2020-06-02T10:19:00Z</time>
      </trkpt>
      <trkpt lat="46.20808" lon="-1.04832">
        <ele>7.8</ele>
        <time>2020-06-02T10:19:01Z</time>
      </trkpt>
      <trkpt lat="46.20811" lon="-1.04828">
        <ele>8</ele>
        <time>2020-06-02T10:19:02Z</time>
      </trkpt>
      <trkpt lat="46.20814" lon="-1.04824">
        <ele>8.2</ele>
        <time>2020-06-02T10:19:03Z</time>
      </trkpt>
      <trkpt lat="46.20817" lon="-1.04821">
        <ele>8.4</ele>
        <time>2020-06-02T10:19:04Z</time>
      </trkpt>
      <trkpt lat="46.2082" lon="-1.04818">
        <ele>8.6</ele>
        <time>2020-06-02T10:19:05Z</time>
      </trkpt>
      <trkpt lat="46.20823" lon="-1.04816">
        <ele>8.8</ele>
        <time>2020-06-02T10:19:06Z</time>
      </trkpt>
      <trkpt lat="46.20826" lon="-1.04815">
        <ele>8.9</ele>
        <time>2020-06-02T10:19:07Z</time>
      </trkpt>
      <trkpt lat="46.20829" lon="-1.04812">
        <ele>9</ele>
        <time>2020-06-02T10:19:08Z</time>
      </trkpt>
      <trkpt lat="46.20833" lon="-1.04811">
        <ele>9.1</ele>
        <time>2020-06-02T10:19:09Z</time>
      </trkpt>
      <trkpt lat="46.20837" lon="-1.04808">
        <ele>9.1</ele>
        <time>2020-06-02T10:19:10Z</time>
      </trkpt>
      <trkpt lat="46.20841" lon="-1.04805">
        <ele>9.2</ele>
        <time>2020-06-02T10:19:11Z</time>
      </trkpt>
      <trkpt lat="46.20845" lon="-1.04801">
        <ele>9.1</ele>
        <time>2020-06-02T10:19:12Z</time>
      </trkpt>
      <trkpt lat="46.20849" lon="-1.04799">
        <ele>9.1</ele>
        <time>2020-06-02T10:19:13Z</time>
      </trkpt>
      <trkpt lat="46.20852" lon="-1.04795">
        <ele>9</ele>
        <time>2020-06-02T10:19:14Z</time>
      </trkpt>
      <trkpt lat="46.20856" lon="-1.04792">
        <ele>8.9</ele>
        <time>2020-06-02T10:19:15Z</time>
      </trkpt>
      <trkpt lat="46.20861" lon="-1.0479">
        <ele>8.8</ele>
        <time>2020-06-02T10:19:16Z</time>
      </trkpt>
      <trkpt lat="46.20866" lon="-1.04788">
        <ele>8.7</ele>
        <time>2020-06-02T10:19:17Z</time>
      </trkpt>
      <trkpt lat="46.20871" lon="-1.04784">
        <ele>8.6</ele>
        <time>2020-06-02T10:19:18Z</time>
      </trkpt>
      <trkpt lat="46.20877" lon="-1.04779">
        <ele>8.4</ele>
        <time>2020-06-02T10:19:19Z</time>
      </trkpt>
      <trkpt lat="46.20882" lon="-1.04775">
        <ele>8.3</ele>
        <time>2020-06-02T10:19:20Z</time>
      </trkpt>
      <trkpt lat="46.20887" lon="-1.04772">
        <ele>8.2</ele>
        <time>2020-06-02T10:19:21Z</time>
      </trkpt>
      <trkpt lat="46.20891" lon="-1.04769">
        <ele>8.1</ele>
        <time>2020-06-02T10:19:22Z</time>
      </trkpt>
      <trkpt lat="46.20895" lon="-1.04766">
        <ele>8.1</ele>
        <time>2020-06-02T10:19:23Z</time>
      </trkpt>
      <trkpt lat="46.20898" lon="-1.04763">
        <ele>8.1</ele>
        <time>2020-06-02T10:19:24Z</time>
      </trkpt>
      <trkpt lat="46.20901" lon="-1.04759">
        <ele>8.1</ele>
        <time>2020-06-02T10:19:25Z</time>
      </trkpt>
      <trkpt lat="46.20905" lon="-1.04756">
        <ele>8.1</ele>
        <time>2020-06-02T10:19:26Z</time>
      </trkpt>
      <trkpt lat="46.20909" lon="-1.04754">
        <ele>8.1</ele>
        <time>2020-06-02T10:19:27Z</time>
      </trkpt>
      <trkpt lat="46.20912" lon="-1.0475">
        <ele>8.1</ele>
        <time>2020-06-02T10:19:28Z</time>
      </trkpt>
      <trkpt lat="46.20917" lon="-1.04747">
        <ele>8.1</ele>
        <time>2020-06-02T10:19:29Z</time>
      </trkpt>
      <trkpt lat="46.20921" lon="-1.04744">
        <ele>8.1</ele>
        <time>2020-06-02T10:19:30Z</time>
      </trkpt>
      <trkpt lat="46.20925" lon="-1.0474">
        <ele>8.1</ele>
        <time>2020-06-02T10:19:31Z</time>
      </trkpt>
      <trkpt lat="46.20929" lon="-1.04738">
        <ele>8.1</ele>
        <time>2020-06-02T10:19:32Z</time>
      </trkpt>
      <trkpt lat="46.20933" lon="-1.04734">
        <ele>8.1</ele>
        <time>2020-06-02T10:19:33Z</time>
      </trkpt>
      <trkpt lat="46.20938" lon="-1.0473">
        <ele>8.2</ele>
        <time>2020-06-02T10:19:34Z</time>
      </trkpt>
      <trkpt lat="46.20942" lon="-1.04727">
        <ele>8.2</ele>
        <time>2020-06-02T10:19:35Z</time>
      </trkpt>
      <trkpt lat="46.20947" lon="-1.04725">
        <ele>8.2</ele>
        <time>2020-06-02T10:19:36Z</time>
      </trkpt>
      <trkpt lat="46.20952" lon="-1.0472">
        <ele>8.1</ele>
        <time>2020-06-02T10:19:37Z</time>
      </trkpt>
      <trkpt lat="46.20956" lon="-1.04717">
        <ele>8.1</ele>
        <time>2020-06-02T10:19:38Z</time>
      </trkpt>
      <trkpt lat="46.20961" lon="-1.04713">
        <ele>8.1</ele>
        <time>2020-06-02T10:19:39Z</time>
      </trkpt>
      <trkpt lat="46.20966" lon="-1.0471">
        <ele>8.1</ele>
        <time>2020-06-02T10:19:40Z</time>
      </trkpt>
      <trkpt lat="46.20971" lon="-1.04706">
        <ele>8.1</ele>
        <time>2020-06-02T10:19:41Z</time>
      </trkpt>
      <trkpt lat="46.20975" lon="-1.04702">
        <ele>8.1</ele>
        <time>2020-06-02T10:19:42Z</time>
      </trkpt>
      <trkpt lat="46.2098" lon="-1.047">
        <ele>8.1</ele>
        <time>2020-06-02T10:19:43Z</time>
      </trkpt>
      <trkpt lat="46.20984" lon="-1.04694">
        <ele>8.1</ele>
        <time>2020-06-02T10:19:44Z</time>
      </trkpt>
      <trkpt lat="46.20988" lon="-1.04691">
        <ele>8.1</ele>
        <time>2020-06-02T10:19:45Z</time>
      </trkpt>
      <trkpt lat="46.20993" lon="-1.04687">
        <ele>8.1</ele>
        <time>2020-06-02T10:19:46Z</time>
      </trkpt>
      <trkpt lat="46.20998" lon="-1.04684">
        <ele>8.1</ele>
        <time>2020-06-02T10:19:47Z</time>
      </trkpt>
      <trkpt lat="46.21002" lon="-1.04681">
        <ele>8.1</ele>
        <time>2020-06-02T10:19:48Z</time>
      </trkpt>
      <trkpt lat="46.21006" lon="-1.04677">
        <ele>8</ele>
        <time>2020-06-02T10:19:49Z</time>
      </trkpt>
      <trkpt lat="46.21011" lon="-1.04674">
        <ele>8</ele>
        <time>2020-06-02T10:19:50Z</time>
      </trkpt>
      <trkpt lat="46.21016" lon="-1.0467">
        <ele>8</ele>
        <time>2020-06-02T10:19:51Z</time>
      </trkpt>
      <trkpt lat="46.2102" lon="-1.04666">
        <ele>7.9</ele>
        <time>2020-06-02T10:19:52Z</time>
      </trkpt>
      <trkpt lat="46.21025" lon="-1.04663">
        <ele>7.9</ele>
        <time>2020-06-02T10:19:53Z</time>
      </trkpt>
      <trkpt lat="46.2103" lon="-1.0466">
        <ele>7.8</ele>
        <time>2020-06-02T10:19:54Z</time>
      </trkpt>
      <trkpt lat="46.21035" lon="-1.04656">
        <ele>7.8</ele>
        <time>2020-06-02T10:19:55Z</time>
      </trkpt>
      <trkpt lat="46.2104" lon="-1.0465">
        <ele>7.8</ele>
        <time>2020-06-02T10:19:56Z</time>
      </trkpt>
      <trkpt lat="46.21045" lon="-1.04646">
        <ele>7.8</ele>
        <time>2020-06-02T10:19:57Z</time>
      </trkpt>
      <trkpt lat="46.2105" lon="-1.04641">
        <ele>7.8</ele>
        <time>2020-06-02T10:19:58Z</time>
      </trkpt>
      <trkpt lat="46.21055" lon="-1.04637">
        <ele>7.8</ele>
        <time>2020-06-02T10:19:59Z</time>
      </trkpt>
      <trkpt lat="46.21059" lon="-1.04633">
        <ele>7.8</ele>
        <time>2020-06-02T10:20:00Z</time>
      </trkpt>
      <trkpt lat="46.21064" lon="-1.04629">
        <ele>7.8</ele>
        <time>2020-06-02T10:20:01Z</time>
      </trkpt>
      <trkpt lat="46.21068" lon="-1.04625">
        <ele>7.7</ele>
        <time>2020-06-02T10:20:02Z</time>
      </trkpt>
      <trkpt lat="46.21073" lon="-1.04622">
        <ele>7.7</ele>
        <time>2020-06-02T10:20:03Z</time>
      </trkpt>
      <trkpt lat="46.21077" lon="-1.04619">
        <ele>7.7</ele>
        <time>2020-06-02T10:20:04Z</time>
      </trkpt>
      <trkpt lat="46.21082" lon="-1.04616">
        <ele>7.7</ele>
        <time>2020-06-02T10:20:05Z</time>
      </trkpt>
      <trkpt lat="46.21087" lon="-1.04613">
        <ele>7.7</ele>
        <time>2020-06-02T10:20:06Z</time>
      </trkpt>
      <trkpt lat="46.21091" lon="-1.0461">
        <ele>7.6</ele>
        <time>2020-06-02T10:20:07Z</time>
      </trkpt>
      <trkpt lat="46.21096" lon="-1.04608">
        <ele>7.6</ele>
        <time>2020-06-02T10:20:08Z</time>
      </trkpt>
      <trkpt lat="46.21101" lon="-1.04605">
        <ele>7.6</ele>
        <time>2020-06-02T10:20:09Z</time>
      </trkpt>
      <trkpt lat="46.21106" lon="-1.04603">
        <ele>7.6</ele>
        <time>2020-06-02T10:20:10Z</time>
      </trkpt>
      <trkpt lat="46.21111" lon="-1.046">
        <ele>7.6</ele>
        <time>2020-06-02T10:20:11Z</time>
      </trkpt>
      <trkpt lat="46.21115" lon="-1.04597">
        <ele>7.6</ele>
        <time>2020-06-02T10:20:12Z</time>
      </trkpt>
      <trkpt lat="46.2112" lon="-1.04595">
        <ele>7.5</ele>
        <time>2020-06-02T10:20:13Z</time>
      </trkpt>
      <trkpt lat="46.21125" lon="-1.04592">
        <ele>7.5</ele>
        <time>2020-06-02T10:20:14Z</time>
      </trkpt>
      <trkpt lat="46.2113" lon="-1.04589">
        <ele>7.5</ele>
        <time>2020-06-02T10:20:15Z</time>
      </trkpt>
      <trkpt lat="46.21135" lon="-1.04586">
        <ele>7.5</ele>
        <time>2020-06-02T10:20:16Z</time>
      </trkpt>
      <trkpt lat="46.2114" lon="-1.04583">
        <ele>7.5</ele>
        <time>2020-06-02T10:20:17Z</time>
      </trkpt>
      <trkpt lat="46.21145" lon="-1.0458">
        <ele>7.4</ele>
        <time>2020-06-02T10:20:18Z</time>
      </trkpt>
      <trkpt lat="46.21151" lon="-1.04579">
        <ele>7.4</ele>
        <time>2020-06-02T10:20:19Z</time>
      </trkpt>
      <trkpt lat="46.21156" lon="-1.04577">
        <ele>7.3</ele>
        <time>2020-06-02T10:20:20Z</time>
      </trkpt>
      <trkpt lat="46.21161" lon="-1.04575">
        <ele>7.2</ele>
        <time>2020-06-02T10:20:21Z</time>
      </trkpt>
      <trkpt lat="46.21166" lon="-1.04573">
        <ele>7.2</ele>
        <time>2020-06-02T10:20:22Z</time>
      </trkpt>
      <trkpt lat="46.21172" lon="-1.04571">
        <ele>7</ele>
        <time>2020-06-02T10:20:23Z</time>
      </trkpt>
      <trkpt lat="46.21178" lon="-1.04568">
        <ele>6.9</ele>
        <time>2020-06-02T10:20:24Z</time>
      </trkpt>
      <trkpt lat="46.21184" lon="-1.04566">
        <ele>6.8</ele>
        <time>2020-06-02T10:20:25Z</time>
      </trkpt>
      <trkpt lat="46.2119" lon="-1.04563">
        <ele>6.7</ele>
        <time>2020-06-02T10:20:26Z</time>
      </trkpt>
      <trkpt lat="46.21196" lon="-1.04562">
        <ele>6.6</ele>
        <time>2020-06-02T10:20:27Z</time>
      </trkpt>
      <trkpt lat="46.21201" lon="-1.0456">
        <ele>6.5</ele>
        <time>2020-06-02T10:20:28Z</time>
      </trkpt>
      <trkpt lat="46.21207" lon="-1.04559">
        <ele>6.4</ele>
        <time>2020-06-02T10:20:29Z</time>
      </trkpt>
      <trkpt lat="46.21213" lon="-1.0456">
        <ele>6.3</ele>
        <time>2020-06-02T10:20:30Z</time>
      </trkpt>
      <trkpt lat="46.21218" lon="-1.04559">
        <ele>6.2</ele>
        <time>2020-06-02T10:20:31Z</time>
      </trkpt>
      <trkpt lat="46.21224" lon="-1.04558">
        <ele>6.1</ele>
        <time>2020-06-02T10:20:32Z</time>
      </trkpt>
      <trkpt lat="46.21229" lon="-1.04556">
        <ele>6</ele>
        <time>2020-06-02T10:20:33Z</time>
      </trkpt>
      <trkpt lat="46.21235" lon="-1.04556">
        <ele>5.9</ele>
        <time>2020-06-02T10:20:34Z</time>
      </trkpt>
      <trkpt lat="46.2124" lon="-1.04555">
        <ele>5.9</ele>
        <time>2020-06-02T10:20:35Z</time>
      </trkpt>
      <trkpt lat="46.21246" lon="-1.04555">
        <ele>5.8</ele>
        <time>2020-06-02T10:20:36Z</time>
      </trkpt>
      <trkpt lat="46.21252" lon="-1.04554">
        <ele>5.7</ele>
        <time>2020-06-02T10:20:37Z</time>
      </trkpt>
      <trkpt lat="46.21257" lon="-1.04553">
        <ele>5.6</ele>
        <time>2020-06-02T10:20:38Z</time>
      </trkpt>
      <trkpt lat="46.21262" lon="-1.04552">
        <ele>5.6</ele>
        <time>2020-06-02T10:20:39Z</time>
      </trkpt>
      <trkpt lat="46.21267" lon="-1.04552">
        <ele>5.5</ele>
        <time>2020-06-02T10:20:40Z</time>
      </trkpt>
      <trkpt lat="46.21272" lon="-1.04552">
        <ele>5.5</ele>
        <time>2020-06-02T10:20:41Z</time>
      </trkpt>
      <trkpt lat="46.21278" lon="-1.04551">
        <ele>5.5</ele>
        <time>2020-06-02T10:20:42Z</time>
      </trkpt>
      <trkpt lat="46.21284" lon="-1.04551">
        <ele>5.4</ele>
        <time>2020-06-02T10:20:43Z</time>
      </trkpt>
      <trkpt lat="46.21289" lon="-1.04552">
        <ele>5.4</ele>
        <time>2020-06-02T10:20:44Z</time>
      </trkpt>
      <trkpt lat="46.21295" lon="-1.04552">
        <ele>5.4</ele>
        <time>2020-06-02T10:20:45Z</time>
      </trkpt>
      <trkpt lat="46.213" lon="-1.04552">
        <ele>5.4</ele>
        <time>2020-06-02T10:20:46Z</time>
      </trkpt>
      <trkpt lat="46.21306" lon="-1.04553">
        <ele>5.4</ele>
        <time>2020-06-02T10:20:47Z</time>
      </trkpt>
      <trkpt lat="46.21311" lon="-1.04552">
        <ele>5.4</ele>
        <time>2020-06-02T10:20:48Z</time>
      </trkpt>
      <trkpt lat="46.21316" lon="-1.04552">
        <ele>5.3</ele>
        <time>2020-06-02T10:20:49Z</time>
      </trkpt>
      <trkpt lat="46.21322" lon="-1.04552">
        <ele>5.3</ele>
        <time>2020-06-02T10:20:50Z</time>
      </trkpt>
      <trkpt lat="46.21326" lon="-1.04553">
        <ele>5.3</ele>
        <time>2020-06-02T10:20:51Z</time>
      </trkpt>
      <trkpt lat="46.21331" lon="-1.04554">
        <ele>5.3</ele>
        <time>2020-06-02T10:20:52Z</time>
      </trkpt>
      <trkpt lat="46.21336" lon="-1.04553">
        <ele>5.2</ele>
        <time>2020-06-02T10:20:53Z</time>
      </trkpt>
      <trkpt lat="46.21341" lon="-1.04555">
        <ele>5.2</ele>
        <time>2020-06-02T10:20:54Z</time>
      </trkpt>
      <trkpt lat="46.21346" lon="-1.04555">
        <ele>5.2</ele>
        <time>2020-06-02T10:20:55Z</time>
      </trkpt>
      <trkpt lat="46.21351" lon="-1.04556">
        <ele>5.1</ele>
        <time>2020-06-02T10:20:56Z</time>
      </trkpt>
      <trkpt lat="46.21357" lon="-1.04558">
        <ele>5.1</ele>
        <time>2020-06-02T10:20:57Z</time>
      </trkpt>
      <trkpt lat="46.21362" lon="-1.0456">
        <ele>5.1</ele>
        <time>2020-06-02T10:20:58Z</time>
      </trkpt>
      <trkpt lat="46.21366" lon="-1.04561">
        <ele>5</ele>
        <time>2020-06-02T10:20:59Z</time>
      </trkpt>
      <trkpt lat="46.2137" lon="-1.04562">
        <ele>5</ele>
        <time>2020-06-02T10:21:00Z</time>
      </trkpt>
      <trkpt lat="46.21374" lon="-1.04561">
        <ele>5</ele>
        <time>2020-06-02T10:21:01Z</time>
      </trkpt>
      <trkpt lat="46.21378" lon="-1.04562">
        <ele>5.1</ele>
        <time>2020-06-02T10:21:02Z</time>
      </trkpt>
      <trkpt lat="46.21383" lon="-1.04563">
        <ele>5.1</ele>
        <time>2020-06-02T10:21:03Z</time>
      </trkpt>
      <trkpt lat="46.21388" lon="-1.04564">
        <ele>5.2</ele>
        <time>2020-06-02T10:21:04Z</time>
      </trkpt>
      <trkpt lat="46.21393" lon="-1.04566">
        <ele>5.3</ele>
        <time>2020-06-02T10:21:05Z</time>
      </trkpt>
      <trkpt lat="46.21398" lon="-1.04567">
        <ele>5.3</ele>
        <time>2020-06-02T10:21:06Z</time>
      </trkpt>
      <trkpt lat="46.21403" lon="-1.04568">
        <ele>5.4</ele>
        <time>2020-06-02T10:21:07Z</time>
      </trkpt>
      <trkpt lat="46.21407" lon="-1.04571">
        <ele>5.3</ele>
        <time>2020-06-02T10:21:08Z</time>
      </trkpt>
      <trkpt lat="46.21411" lon="-1.04573">
        <ele>5.3</ele>
        <time>2020-06-02T10:21:09Z</time>
      </trkpt>
      <trkpt lat="46.21416" lon="-1.04575">
        <ele>5.3</ele>
        <time>2020-06-02T10:21:10Z</time>
      </trkpt>
      <trkpt lat="46.2142" lon="-1.04576">
        <ele>5.2</ele>
        <time>2020-06-02T10:21:11Z</time>
      </trkpt>
      <trkpt lat="46.21424" lon="-1.04578">
        <ele>5.2</ele>
        <time>2020-06-02T10:21:12Z</time>
      </trkpt>
      <trkpt lat="46.21429" lon="-1.04582">
        <ele>5.1</ele>
        <time>2020-06-02T10:21:13Z</time>
      </trkpt>
      <trkpt lat="46.21434" lon="-1.04586">
        <ele>5</ele>
        <time>2020-06-02T10:21:14Z</time>
      </trkpt>
      <trkpt lat="46.2144" lon="-1.04589">
        <ele>5</ele>
        <time>2020-06-02T10:21:15Z</time>
      </trkpt>
      <trkpt lat="46.21445" lon="-1.04592">
        <ele>5</ele>
        <time>2020-06-02T10:21:16Z</time>
      </trkpt>
      <trkpt lat="46.21451" lon="-1.04593">
        <ele>4.9</ele>
        <time>2020-06-02T10:21:17Z</time>
      </trkpt>
      <trkpt lat="46.21455" lon="-1.04596">
        <ele>4.8</ele>
        <time>2020-06-02T10:21:18Z</time>
      </trkpt>
      <trkpt lat="46.21461" lon="-1.04598">
        <ele>4.8</ele>
        <time>2020-06-02T10:21:19Z</time>
      </trkpt>
      <trkpt lat="46.21466" lon="-1.04599">
        <ele>4.7</ele>
        <time>2020-06-02T10:21:20Z</time>
      </trkpt>
      <trkpt lat="46.21471" lon="-1.04601">
        <ele>4.6</ele>
        <time>2020-06-02T10:21:21Z</time>
      </trkpt>
      <trkpt lat="46.21477" lon="-1.04602">
        <ele>4.6</ele>
        <time>2020-06-02T10:21:22Z</time>
      </trkpt>
      <trkpt lat="46.21482" lon="-1.04603">
        <ele>4.5</ele>
        <time>2020-06-02T10:21:23Z</time>
      </trkpt>
      <trkpt lat="46.21488" lon="-1.04605">
        <ele>4.5</ele>
        <time>2020-06-02T10:21:24Z</time>
      </trkpt>
      <trkpt lat="46.21493" lon="-1.04608">
        <ele>4.5</ele>
        <time>2020-06-02T10:21:25Z</time>
      </trkpt>
      <trkpt lat="46.21499" lon="-1.04611">
        <ele>4.6</ele>
        <time>2020-06-02T10:21:26Z</time>
      </trkpt>
      <trkpt lat="46.21505" lon="-1.04613">
        <ele>4.6</ele>
        <time>2020-06-02T10:21:27Z</time>
      </trkpt>
      <trkpt lat="46.21511" lon="-1.04616">
        <ele>4.6</ele>
        <time>2020-06-02T10:21:28Z</time>
      </trkpt>
      <trkpt lat="46.21516" lon="-1.04618">
        <ele>4.6</ele>
        <time>2020-06-02T10:21:29Z</time>
      </trkpt>
      <trkpt lat="46.21521" lon="-1.0462">
        <ele>4.6</ele>
        <time>2020-06-02T10:21:30Z</time>
      </trkpt>
      <trkpt lat="46.21527" lon="-1.04622">
        <ele>4.6</ele>
        <time>2020-06-02T10:21:31Z</time>
      </trkpt>
      <trkpt lat="46.21532" lon="-1.04623">
        <ele>4.5</ele>
        <time>2020-06-02T10:21:32Z</time>
      </trkpt>
      <trkpt lat="46.21537" lon="-1.04625">
        <ele>4.5</ele>
        <time>2020-06-02T10:21:33Z</time>
      </trkpt>
      <trkpt lat="46.21542" lon="-1.04626">
        <ele>4.5</ele>
        <time>2020-06-02T10:21:34Z</time>
      </trkpt>
      <trkpt lat="46.21547" lon="-1.04629">
        <ele>4.5</ele>
        <time>2020-06-02T10:21:35Z</time>
      </trkpt>
      <trkpt lat="46.21553" lon="-1.04632">
        <ele>4.6</ele>
        <time>2020-06-02T10:21:36Z</time>
      </trkpt>
      <trkpt lat="46.21558" lon="-1.04633">
        <ele>4.6</ele>
        <time>2020-06-02T10:21:37Z</time>
      </trkpt>
      <trkpt lat="46.21563" lon="-1.04636">
        <ele>4.6</ele>
        <time>2020-06-02T10:21:38Z</time>
      </trkpt>
      <trkpt lat="46.21569" lon="-1.04638">
        <ele>4.6</ele>
        <time>2020-06-02T10:21:39Z</time>
      </trkpt>
      <trkpt lat="46.21574" lon="-1.0464">
        <ele>4.7</ele>
        <time>2020-06-02T10:21:40Z</time>
      </trkpt>
      <trkpt lat="46.21579" lon="-1.04641">
        <ele>4.7</ele>
        <time>2020-06-02T10:21:41Z</time>
      </trkpt>
      <trkpt lat="46.21585" lon="-1.04642">
        <ele>4.7</ele>
        <time>2020-06-02T10:21:42Z</time>
      </trkpt>
      <trkpt lat="46.2159" lon="-1.04646">
        <ele>4.7</ele>
        <time>2020-06-02T10:21:43Z</time>
      </trkpt>
      <trkpt lat="46.21595" lon="-1.04648">
        <ele>4.7</ele>
        <time>2020-06-02T10:21:44Z</time>
      </trkpt>
      <trkpt lat="46.216" lon="-1.04651">
        <ele>4.7</ele>
        <time>2020-06-02T10:21:45Z</time>
      </trkpt>
      <trkpt lat="46.21604" lon="-1.04653">
        <ele>4.6</ele>
        <time>2020-06-02T10:21:46Z</time>
      </trkpt>
      <trkpt lat="46.2161" lon="-1.04655">
        <ele>4.6</ele>
        <time>2020-06-02T10:21:47Z</time>
      </trkpt>
      <trkpt lat="46.21615" lon="-1.04657">
        <ele>4.6</ele>
        <time>2020-06-02T10:21:48Z</time>
      </trkpt>
      <trkpt lat="46.2162" lon="-1.04659">
        <ele>4.5</ele>
        <time>2020-06-02T10:21:49Z</time>
      </trkpt>
      <trkpt lat="46.21625" lon="-1.04661">
        <ele>4.5</ele>
        <time>2020-06-02T10:21:50Z</time>
      </trkpt>
      <trkpt lat="46.2163" lon="-1.04663">
        <ele>4.4</ele>
        <time>2020-06-02T10:21:51Z</time>
      </trkpt>
      <trkpt lat="46.21636" lon="-1.04665">
        <ele>4.4</ele>
        <time>2020-06-02T10:21:52Z</time>
      </trkpt>
      <trkpt lat="46.21641" lon="-1.04667">
        <ele>4.3</ele>
        <time>2020-06-02T10:21:53Z</time>
      </trkpt>
      <trkpt lat="46.21647" lon="-1.0467">
        <ele>4.3</ele>
        <time>2020-06-02T10:21:54Z</time>
      </trkpt>
      <trkpt lat="46.21652" lon="-1.04674">
        <ele>4.3</ele>
        <time>2020-06-02T10:21:55Z</time>
      </trkpt>
      <trkpt lat="46.21658" lon="-1.04675">
        <ele>4.2</ele>
        <time>2020-06-02T10:21:56Z</time>
      </trkpt>
      <trkpt lat="46.21663" lon="-1.04677">
        <ele>4.2</ele>
        <time>2020-06-02T10:21:57Z</time>
      </trkpt>
      <trkpt lat="46.21668" lon="-1.0468">
        <ele>4.2</ele>
        <time>2020-06-02T10:21:58Z</time>
      </trkpt>
      <trkpt lat="46.21674" lon="-1.04682">
        <ele>4.1</ele>
        <time>2020-06-02T10:21:59Z</time>
      </trkpt>
      <trkpt lat="46.21679" lon="-1.04684">
        <ele>4.1</ele>
        <time>2020-06-02T10:22:00Z</time>
      </trkpt>
      <trkpt lat="46.21685" lon="-1.04686">
        <ele>4.1</ele>
        <time>2020-06-02T10:22:01Z</time>
      </trkpt>
      <trkpt lat="46.2169" lon="-1.04689">
        <ele>4.1</ele>
        <time>2020-06-02T10:22:02Z</time>
      </trkpt>
      <trkpt lat="46.21695" lon="-1.04691">
        <ele>4.1</ele>
        <time>2020-06-02T10:22:03Z</time>
      </trkpt>
      <trkpt lat="46.21701" lon="-1.04693">
        <ele>4.1</ele>
        <time>2020-06-02T10:22:04Z</time>
      </trkpt>
      <trkpt lat="46.21706" lon="-1.04695">
        <ele>4.2</ele>
        <time>2020-06-02T10:22:05Z</time>
      </trkpt>
      <trkpt lat="46.21712" lon="-1.04698">
        <ele>4.2</ele>
        <time>2020-06-02T10:22:06Z</time>
      </trkpt>
      <trkpt lat="46.21717" lon="-1.047">
        <ele>4.1</ele>
        <time>2020-06-02T10:22:07Z</time>
      </trkpt>
      <trkpt lat="46.21723" lon="-1.04702">
        <ele>4.1</ele>
        <time>2020-06-02T10:22:08Z</time>
      </trkpt>
      <trkpt lat="46.21729" lon="-1.04704">
        <ele>4.1</ele>
        <time>2020-06-02T10:22:09Z</time>
      </trkpt>
      <trkpt lat="46.21734" lon="-1.04707">
        <ele>4</ele>
        <time>2020-06-02T10:22:10Z</time>
      </trkpt>
      <trkpt lat="46.2174" lon="-1.0471">
        <ele>3.9</ele>
        <time>2020-06-02T10:22:11Z</time>
      </trkpt>
      <trkpt lat="46.21746" lon="-1.04712">
        <ele>3.9</ele>
        <time>2020-06-02T10:22:12Z</time>
      </trkpt>
      <trkpt lat="46.21752" lon="-1.04714">
        <ele>3.8</ele>
        <time>2020-06-02T10:22:13Z</time>
      </trkpt>
      <trkpt lat="46.21757" lon="-1.04717">
        <ele>3.7</ele>
        <time>2020-06-02T10:22:14Z</time>
      </trkpt>
      <trkpt lat="46.21763" lon="-1.04719">
        <ele>3.7</ele>
        <time>2020-06-02T10:22:15Z</time>
      </trkpt>
      <trkpt lat="46.21769" lon="-1.04722">
        <ele>3.7</ele>
        <time>2020-06-02T10:22:16Z</time>
      </trkpt>
      <trkpt lat="46.21774" lon="-1.04724">
        <ele>3.7</ele>
        <time>2020-06-02T10:22:17Z</time>
      </trkpt>
      <trkpt lat="46.21779" lon="-1.04727">
        <ele>3.7</ele>
        <time>2020-06-02T10:22:18Z</time>
      </trkpt>
      <trkpt lat="46.21785" lon="-1.0473">
        <ele>3.8</ele>
        <time>2020-06-02T10:22:19Z</time>
      </trkpt>
      <trkpt lat="46.2179" lon="-1.04733">
        <ele>3.8</ele>
        <time>2020-06-02T10:22:20Z</time>
      </trkpt>
      <trkpt lat="46.21795" lon="-1.04735">
        <ele>3.8</ele>
        <time>2020-06-02T10:22:21Z</time>
      </trkpt>
      <trkpt lat="46.21801" lon="-1.04737">
        <ele>3.9</ele>
        <time>2020-06-02T10:22:22Z</time>
      </trkpt>
      <trkpt lat="46.21807" lon="-1.04737">
        <ele>4</ele>
        <time>2020-06-02T10:22:23Z</time>
      </trkpt>
      <trkpt lat="46.21812" lon="-1.0474">
        <ele>4</ele>
        <time>2020-06-02T10:22:24Z</time>
      </trkpt>
      <trkpt lat="46.21817" lon="-1.04742">
        <ele>4</ele>
        <time>2020-06-02T10:22:25Z</time>
      </trkpt>
      <trkpt lat="46.21823" lon="-1.04744">
        <ele>4.1</ele>
        <time>2020-06-02T10:22:26Z</time>
      </trkpt>
      <trkpt lat="46.21829" lon="-1.04747">
        <ele>4.1</ele>
        <time>2020-06-02T10:22:27Z</time>
      </trkpt>
      <trkpt lat="46.21834" lon="-1.04749">
        <ele>4.1</ele>
        <time>2020-06-02T10:22:28Z</time>
      </trkpt>
      <trkpt lat="46.2184" lon="-1.04752">
        <ele>4.1</ele>
        <time>2020-06-02T10:22:29Z</time>
      </trkpt>
      <trkpt lat="46.21845" lon="-1.04755">
        <ele>4.1</ele>
        <time>2020-06-02T10:22:30Z</time>
      </trkpt>
      <trkpt lat="46.2185" lon="-1.04758">
        <ele>4.1</ele>
        <time>2020-06-02T10:22:31Z</time>
      </trkpt>
      <trkpt lat="46.21856" lon="-1.0476">
        <ele>4.1</ele>
        <time>2020-06-02T10:22:32Z</time>
      </trkpt>
      <trkpt lat="46.21861" lon="-1.04762">
        <ele>4.1</ele>
        <time>2020-06-02T10:22:33Z</time>
      </trkpt>
      <trkpt lat="46.21867" lon="-1.04764">
        <ele>4.1</ele>
        <time>2020-06-02T10:22:34Z</time>
      </trkpt>
      <trkpt lat="46.21872" lon="-1.04766">
        <ele>4.1</ele>
        <time>2020-06-02T10:22:35Z</time>
      </trkpt>
      <trkpt lat="46.21878" lon="-1.04769">
        <ele>4.1</ele>
        <time>2020-06-02T10:22:36Z</time>
      </trkpt>
      <trkpt lat="46.21884" lon="-1.04771">
        <ele>4.1</ele>
        <time>2020-06-02T10:22:37Z</time>
      </trkpt>
      <trkpt lat="46.2189" lon="-1.04772">
        <ele>4.1</ele>
        <time>2020-06-02T10:22:38Z</time>
      </trkpt>
      <trkpt lat="46.21895" lon="-1.04775">
        <ele>4.1</ele>
        <time>2020-06-02T10:22:39Z</time>
      </trkpt>
      <trkpt lat="46.219" lon="-1.04777">
        <ele>4.1</ele>
        <time>2020-06-02T10:22:40Z</time>
      </trkpt>
      <trkpt lat="46.21906" lon="-1.04779">
        <ele>4.1</ele>
        <time>2020-06-02T10:22:41Z</time>
      </trkpt>
      <trkpt lat="46.21911" lon="-1.04781">
        <ele>4.1</ele>
        <time>2020-06-02T10:22:42Z</time>
      </trkpt>
      <trkpt lat="46.21916" lon="-1.04783">
        <ele>4.2</ele>
        <time>2020-06-02T10:22:43Z</time>
      </trkpt>
      <trkpt lat="46.21921" lon="-1.04784">
        <ele>4.2</ele>
        <time>2020-06-02T10:22:44Z</time>
      </trkpt>
      <trkpt lat="46.21927" lon="-1.04786">
        <ele>4.2</ele>
        <time>2020-06-02T10:22:45Z</time>
      </trkpt>
      <trkpt lat="46.21932" lon="-1.04788">
        <ele>4.2</ele>
        <time>2020-06-02T10:22:46Z</time>
      </trkpt>
      <trkpt lat="46.21938" lon="-1.04791">
        <ele>4.2</ele>
        <time>2020-06-02T10:22:47Z</time>
      </trkpt>
      <trkpt lat="46.21943" lon="-1.04793">
        <ele>4.3</ele>
        <time>2020-06-02T10:22:48Z</time>
      </trkpt>
      <trkpt lat="46.21948" lon="-1.04795">
        <ele>4.3</ele>
        <time>2020-06-02T10:22:49Z</time>
      </trkpt>
      <trkpt lat="46.21953" lon="-1.04798">
        <ele>4.3</ele>
        <time>2020-06-02T10:22:50Z</time>
      </trkpt>
      <trkpt lat="46.21959" lon="-1.048">
        <ele>4.4</ele>
        <time>2020-06-02T10:22:51Z</time>
      </trkpt>
      <trkpt lat="46.21964" lon="-1.04804">
        <ele>4.5</ele>
        <time>2020-06-02T10:22:52Z</time>
      </trkpt>
      <trkpt lat="46.21969" lon="-1.04805">
        <ele>4.5</ele>
        <time>2020-06-02T10:22:53Z</time>
      </trkpt>
      <trkpt lat="46.21975" lon="-1.04807">
        <ele>4.6</ele>
        <time>2020-06-02T10:22:54Z</time>
      </trkpt>
      <trkpt lat="46.2198" lon="-1.0481">
        <ele>4.6</ele>
        <time>2020-06-02T10:22:55Z</time>
      </trkpt>
      <trkpt lat="46.21985" lon="-1.04812">
        <ele>4.6</ele>
        <time>2020-06-02T10:22:56Z</time>
      </trkpt>
      <trkpt lat="46.21991" lon="-1.04814">
        <ele>4.6</ele>
        <time>2020-06-02T10:22:57Z</time>
      </trkpt>
      <trkpt lat="46.21996" lon="-1.04816">
        <ele>4.6</ele>
        <time>2020-06-02T10:22:58Z</time>
      </trkpt>
      <trkpt lat="46.22002" lon="-1.04819">
        <ele>4.6</ele>
        <time>2020-06-02T10:22:59Z</time>
      </trkpt>
      <trkpt lat="46.22007" lon="-1.0482">
        <ele>4.6</ele>
        <time>2020-06-02T10:23:00Z</time>
      </trkpt>
      <trkpt lat="46.22013" lon="-1.04821">
        <ele>4.6</ele>
        <time>2020-06-02T10:23:01Z</time>
      </trkpt>
      <trkpt lat="46.22018" lon="-1.04823">
        <ele>4.6</ele>
        <time>2020-06-02T10:23:02Z</time>
      </trkpt>
      <trkpt lat="46.22024" lon="-1.04825">
        <ele>4.5</ele>
        <time>2020-06-02T10:23:03Z</time>
      </trkpt>
      <trkpt lat="46.2203" lon="-1.04826">
        <ele>4.4</ele>
        <time>2020-06-02T10:23:04Z</time>
      </trkpt>
      <trkpt lat="46.22036" lon="-1.04828">
        <ele>4.4</ele>
        <time>2020-06-02T10:23:05Z</time>
      </trkpt>
      <trkpt lat="46.22041" lon="-1.0483">
        <ele>4.3</ele>
        <time>2020-06-02T10:23:06Z</time>
      </trkpt>
      <trkpt lat="46.22047" lon="-1.04832">
        <ele>4.2</ele>
        <time>2020-06-02T10:23:07Z</time>
      </trkpt>
      <trkpt lat="46.22052" lon="-1.04835">
        <ele>4.1</ele>
        <time>2020-06-02T10:23:08Z</time>
      </trkpt>
      <trkpt lat="46.22057" lon="-1.04838">
        <ele>4.1</ele>
        <time>2020-06-02T10:23:09Z</time>
      </trkpt>
      <trkpt lat="46.22062" lon="-1.04842">
        <ele>4</ele>
        <time>2020-06-02T10:23:10Z</time>
      </trkpt>
      <trkpt lat="46.22068" lon="-1.04843">
        <ele>4</ele>
        <time>2020-06-02T10:23:11Z</time>
      </trkpt>
      <trkpt lat="46.22073" lon="-1.04847">
        <ele>4</ele>
        <time>2020-06-02T10:23:12Z</time>
      </trkpt>
      <trkpt lat="46.22079" lon="-1.04849">
        <ele>4</ele>
        <time>2020-06-02T10:23:13Z</time>
      </trkpt>
      <trkpt lat="46.22084" lon="-1.04851">
        <ele>4</ele>
        <time>2020-06-02T10:23:14Z</time>
      </trkpt>
      <trkpt lat="46.22089" lon="-1.04853">
        <ele>4</ele>
        <time>2020-06-02T10:23:15Z</time>
      </trkpt>
      <trkpt lat="46.22094" lon="-1.04856">
        <ele>4</ele>
        <time>2020-06-02T10:23:16Z</time>
      </trkpt>
      <trkpt lat="46.22099" lon="-1.04858">
        <ele>4</ele>
        <time>2020-06-02T10:23:17Z</time>
      </trkpt>
      <trkpt lat="46.22104" lon="-1.04861">
        <ele>4</ele>
        <time>2020-06-02T10:23:18Z</time>
      </trkpt>
      <trkpt lat="46.22109" lon="-1.04865">
        <ele>3.9</ele>
        <time>2020-06-02T10:23:19Z</time>
      </trkpt>
      <trkpt lat="46.22114" lon="-1.04867">
        <ele>3.9</ele>
        <time>2020-06-02T10:23:20Z</time>
      </trkpt>
      <trkpt lat="46.22119" lon="-1.04869">
        <ele>4</ele>
        <time>2020-06-02T10:23:21Z</time>
      </trkpt>
      <trkpt lat="46.22124" lon="-1.0487">
        <ele>4</ele>
        <time>2020-06-02T10:23:22Z</time>
      </trkpt>
      <trkpt lat="46.22129" lon="-1.04873">
        <ele>4</ele>
        <time>2020-06-02T10:23:23Z</time>
      </trkpt>
      <trkpt lat="46.22135" lon="-1.04875">
        <ele>4</ele>
        <time>2020-06-02T10:23:24Z</time>
      </trkpt>
      <trkpt lat="46.2214" lon="-1.04877">
        <ele>4</ele>
        <time>2020-06-02T10:23:25Z</time>
      </trkpt>
      <trkpt lat="46.22146" lon="-1.04878">
        <ele>4</ele>
        <time>2020-06-02T10:23:26Z</time>
      </trkpt>
      <trkpt lat="46.22152" lon="-1.0488">
        <ele>4</ele>
        <time>2020-06-02T10:23:27Z</time>
      </trkpt>
      <trkpt lat="46.22158" lon="-1.04882">
        <ele>4</ele>
        <time>2020-06-02T10:23:28Z</time>
      </trkpt>
      <trkpt lat="46.22164" lon="-1.04884">
        <ele>4</ele>
        <time>2020-06-02T10:23:29Z</time>
      </trkpt>
      <trkpt lat="46.22169" lon="-1.04886">
        <ele>4</ele>
        <time>2020-06-02T10:23:30Z</time>
      </trkpt>
      <trkpt lat="46.22174" lon="-1.04888">
        <ele>4</ele>
        <time>2020-06-02T10:23:31Z</time>
      </trkpt>
      <trkpt lat="46.22179" lon="-1.0489">
        <ele>4</ele>
        <time>2020-06-02T10:23:32Z</time>
      </trkpt>
      <trkpt lat="46.22184" lon="-1.04894">
        <ele>4</ele>
        <time>2020-06-02T10:23:33Z</time>
      </trkpt>
      <trkpt lat="46.2219" lon="-1.04896">
        <ele>4.1</ele>
        <time>2020-06-02T10:23:34Z</time>
      </trkpt>
      <trkpt lat="46.22195" lon="-1.049">
        <ele>4.1</ele>
        <time>2020-06-02T10:23:35Z</time>
      </trkpt>
      <trkpt lat="46.22201" lon="-1.04901">
        <ele>4.1</ele>
        <time>2020-06-02T10:23:36Z</time>
      </trkpt>
      <trkpt lat="46.22207" lon="-1.04903">
        <ele>4.1</ele>
        <time>2020-06-02T10:23:37Z</time>
      </trkpt>
      <trkpt lat="46.22212" lon="-1.04906">
        <ele>4.1</ele>
        <time>2020-06-02T10:23:38Z</time>
      </trkpt>
      <trkpt lat="46.22218" lon="-1.04908">
        <ele>4.1</ele>
        <time>2020-06-02T10:23:39Z</time>
      </trkpt>
      <trkpt lat="46.22223" lon="-1.0491">
        <ele>4.1</ele>
        <time>2020-06-02T10:23:40Z</time>
      </trkpt>
      <trkpt lat="46.22229" lon="-1.04912">
        <ele>4.1</ele>
        <time>2020-06-02T10:23:41Z</time>
      </trkpt>
      <trkpt lat="46.22234" lon="-1.04915">
        <ele>4.1</ele>
        <time>2020-06-02T10:23:42Z</time>
      </trkpt>
      <trkpt lat="46.2224" lon="-1.04918">
        <ele>4.1</ele>
        <time>2020-06-02T10:23:43Z</time>
      </trkpt>
      <trkpt lat="46.22247" lon="-1.04919">
        <ele>4.1</ele>
        <time>2020-06-02T10:23:44Z</time>
      </trkpt>
      <trkpt lat="46.22252" lon="-1.04922">
        <ele>4.1</ele>
        <time>2020-06-02T10:23:45Z</time>
      </trkpt>
      <trkpt lat="46.22258" lon="-1.04925">
        <ele>4.1</ele>
        <time>2020-06-02T10:23:46Z</time>
      </trkpt>
      <trkpt lat="46.22264" lon="-1.04927">
        <ele>4.1</ele>
        <time>2020-06-02T10:23:47Z</time>
      </trkpt>
      <trkpt lat="46.22269" lon="-1.04928">
        <ele>4.1</ele>
        <time>2020-06-02T10:23:48Z</time>
      </trkpt>
      <trkpt lat="46.22275" lon="-1.0493">
        <ele>4.1</ele>
        <time>2020-06-02T10:23:49Z</time>
      </trkpt>
      <trkpt lat="46.2228" lon="-1.04934">
        <ele>4.1</ele>
        <time>2020-06-02T10:23:50Z</time>
      </trkpt>
      <trkpt lat="46.22285" lon="-1.04937">
        <ele>4.1</ele>
        <time>2020-06-02T10:23:51Z</time>
      </trkpt>
      <trkpt lat="46.22291" lon="-1.04939">
        <ele>4.1</ele>
        <time>2020-06-02T10:23:52Z</time>
      </trkpt>
      <trkpt lat="46.22297" lon="-1.0494">
        <ele>4.1</ele>
        <time>2020-06-02T10:23:53Z</time>
      </trkpt>
      <trkpt lat="46.22303" lon="-1.04942">
        <ele>4.1</ele>
        <time>2020-06-02T10:23:54Z</time>
      </trkpt>
      <trkpt lat="46.22309" lon="-1.04945">
        <ele>4.1</ele>
        <time>2020-06-02T10:23:55Z</time>
      </trkpt>
      <trkpt lat="46.22315" lon="-1.04948">
        <ele>4.1</ele>
        <time>2020-06-02T10:23:56Z</time>
      </trkpt>
      <trkpt lat="46.2232" lon="-1.04951">
        <ele>4.1</ele>
        <time>2020-06-02T10:23:57Z</time>
      </trkpt>
      <trkpt lat="46.22326" lon="-1.04953">
        <ele>4.1</ele>
        <time>2020-06-02T10:23:58Z</time>
      </trkpt>
      <trkpt lat="46.22332" lon="-1.04956">
        <ele>4.1</ele>
        <time>2020-06-02T10:23:59Z</time>
      </trkpt>
      <trkpt lat="46.22337" lon="-1.04958">
        <ele>4.1</ele>
        <time>2020-06-02T10:24:00Z</time>
      </trkpt>
      <trkpt lat="46.22342" lon="-1.04961">
        <ele>4.1</ele>
        <time>2020-06-02T10:24:01Z</time>
      </trkpt>
      <trkpt lat="46.22347" lon="-1.04964">
        <ele>4.1</ele>
        <time>2020-06-02T10:24:02Z</time>
      </trkpt>
      <trkpt lat="46.22353" lon="-1.04967">
        <ele>4.1</ele>
        <time>2020-06-02T10:24:03Z</time>
      </trkpt>
      <trkpt lat="46.22358" lon="-1.04969">
        <ele>4.1</ele>
        <time>2020-06-02T10:24:04Z</time>
      </trkpt>
      <trkpt lat="46.22364" lon="-1.04972">
        <ele>4.1</ele>
        <time>2020-06-02T10:24:05Z</time>
      </trkpt>
      <trkpt lat="46.2237" lon="-1.04973">
        <ele>4.1</ele>
        <time>2020-06-02T10:24:06Z</time>
      </trkpt>
      <trkpt lat="46.22375" lon="-1.04976">
        <ele>4.1</ele>
        <time>2020-06-02T10:24:07Z</time>
      </trkpt>
      <trkpt lat="46.22381" lon="-1.04978">
        <ele>4.2</ele>
        <time>2020-06-02T10:24:08Z</time>
      </trkpt>
      <trkpt lat="46.22386" lon="-1.04981">
        <ele>4.2</ele>
        <time>2020-06-02T10:24:09Z</time>
      </trkpt>
      <trkpt lat="46.22392" lon="-1.04983">
        <ele>4.2</ele>
        <time>2020-06-02T10:24:10Z</time>
      </trkpt>
      <trkpt lat="46.22397" lon="-1.04985">
        <ele>4.2</ele>
        <time>2020-06-02T10:24:11Z</time>
      </trkpt>
      <trkpt lat="46.22403" lon="-1.04987">
        <ele>4.2</ele>
        <time>2020-06-02T10:24:12Z</time>
      </trkpt>
      <trkpt lat="46.22409" lon="-1.04988">
        <ele>4.2</ele>
        <time>2020-06-02T10:24:13Z</time>
      </trkpt>
      <trkpt lat="46.22414" lon="-1.0499">
        <ele>4.2</ele>
        <time>2020-06-02T10:24:14Z</time>
      </trkpt>
      <trkpt lat="46.2242" lon="-1.04993">
        <ele>4.2</ele>
        <time>2020-06-02T10:24:15Z</time>
      </trkpt>
      <trkpt lat="46.22425" lon="-1.04995">
        <ele>4.2</ele>
        <time>2020-06-02T10:24:16Z</time>
      </trkpt>
      <trkpt lat="46.22431" lon="-1.04997">
        <ele>4.2</ele>
        <time>2020-06-02T10:24:17Z</time>
      </trkpt>
      <trkpt lat="46.22436" lon="-1.05">
        <ele>4.2</ele>
        <time>2020-06-02T10:24:18Z</time>
      </trkpt>
      <trkpt lat="46.22442" lon="-1.05003">
        <ele>4.2</ele>
        <time>2020-06-02T10:24:19Z</time>
      </trkpt>
      <trkpt lat="46.22447" lon="-1.05004">
        <ele>4.2</ele>
        <time>2020-06-02T10:24:20Z</time>
      </trkpt>
      <trkpt lat="46.22453" lon="-1.05007">
        <ele>4.3</ele>
        <time>2020-06-02T10:24:21Z</time>
      </trkpt>
      <trkpt lat="46.22458" lon="-1.05009">
        <ele>4.3</ele>
        <time>2020-06-02T10:24:22Z</time>
      </trkpt>
      <trkpt lat="46.22464" lon="-1.05012">
        <ele>4.3</ele>
        <time>2020-06-02T10:24:23Z</time>
      </trkpt>
      <trkpt lat="46.22469" lon="-1.05014">
        <ele>4.3</ele>
        <time>2020-06-02T10:24:24Z</time>
      </trkpt>
      <trkpt lat="46.22475" lon="-1.05015">
        <ele>4.3</ele>
        <time>2020-06-02T10:24:25Z</time>
      </trkpt>
      <trkpt lat="46.2248" lon="-1.05017">
        <ele>4.3</ele>
        <time>2020-06-02T10:24:26Z</time>
      </trkpt>
      <trkpt lat="46.22486" lon="-1.05019">
        <ele>4.3</ele>
        <time>2020-06-02T10:24:27Z</time>
      </trkpt>
      <trkpt lat="46.22491" lon="-1.05021">
        <ele>4.3</ele>
        <time>2020-06-02T10:24:28Z</time>
      </trkpt>
      <trkpt lat="46.22497" lon="-1.05023">
        <ele>4.2</ele>
        <time>2020-06-02T10:24:29Z</time>
      </trkpt>
      <trkpt lat="46.22503" lon="-1.05025">
        <ele>4.2</ele>
        <time>2020-06-02T10:24:30Z</time>
      </trkpt>
      <trkpt lat="46.22508" lon="-1.05026">
        <ele>4.2</ele>
        <time>2020-06-02T10:24:31Z</time>
      </trkpt>
      <trkpt lat="46.22513" lon="-1.05028">
        <ele>4.2</ele>
        <time>2020-06-02T10:24:32Z</time>
      </trkpt>
      <trkpt lat="46.22518" lon="-1.05031">
        <ele>4.2</ele>
        <time>2020-06-02T10:24:33Z</time>
      </trkpt>
      <trkpt lat="46.22524" lon="-1.05033">
        <ele>4.2</ele>
        <time>2020-06-02T10:24:34Z</time>
      </trkpt>
      <trkpt lat="46.22529" lon="-1.05036">
        <ele>4.2</ele>
        <time>2020-06-02T10:24:35Z</time>
      </trkpt>
      <trkpt lat="46.22535" lon="-1.05039">
        <ele>4.2</ele>
        <time>2020-06-02T10:24:36Z</time>
      </trkpt>
      <trkpt lat="46.22541" lon="-1.05042">
        <ele>4.2</ele>
        <time>2020-06-02T10:24:37Z</time>
      </trkpt>
      <trkpt lat="46.22546" lon="-1.05045">
        <ele>4.2</ele>
        <time>2020-06-02T10:24:38Z</time>
      </trkpt>
      <trkpt lat="46.22551" lon="-1.05047">
        <ele>4.2</ele>
        <time>2020-06-02T10:24:39Z</time>
      </trkpt>
      <trkpt lat="46.22556" lon="-1.0505">
        <ele>4.1</ele>
        <time>2020-06-02T10:24:40Z</time>
      </trkpt>
      <trkpt lat="46.22561" lon="-1.05052">
        <ele>4.1</ele>
        <time>2020-06-02T10:24:41Z</time>
      </trkpt>
      <trkpt lat="46.22566" lon="-1.05053">
        <ele>4.1</ele>
        <time>2020-06-02T10:24:42Z</time>
      </trkpt>
      <trkpt lat="46.22571" lon="-1.05054">
        <ele>4.1</ele>
        <time>2020-06-02T10:24:43Z</time>
      </trkpt>
      <trkpt lat="46.22576" lon="-1.05056">
        <ele>4.1</ele>
        <time>2020-06-02T10:24:44Z</time>
      </trkpt>
      <trkpt lat="46.22581" lon="-1.05058">
        <ele>4.1</ele>
        <time>2020-06-02T10:24:45Z</time>
      </trkpt>
      <trkpt lat="46.22586" lon="-1.0506">
        <ele>4.1</ele>
        <time>2020-06-02T10:24:46Z</time>
      </trkpt>
      <trkpt lat="46.22592" lon="-1.05062">
        <ele>4</ele>
        <time>2020-06-02T10:24:47Z</time>
      </trkpt>
      <trkpt lat="46.22597" lon="-1.05067">
        <ele>4</ele>
        <time>2020-06-02T10:24:48Z</time>
      </trkpt>
      <trkpt lat="46.22603" lon="-1.05069">
        <ele>4</ele>
        <time>2020-06-02T10:24:49Z</time>
      </trkpt>
      <trkpt lat="46.22609" lon="-1.05071">
        <ele>4</ele>
        <time>2020-06-02T10:24:50Z</time>
      </trkpt>
      <trkpt lat="46.22615" lon="-1.05073">
        <ele>4</ele>
        <time>2020-06-02T10:24:51Z</time>
      </trkpt>
      <trkpt lat="46.22621" lon="-1.05073">
        <ele>4</ele>
        <time>2020-06-02T10:24:52Z</time>
      </trkpt>
      <trkpt lat="46.22626" lon="-1.05075">
        <ele>4</ele>
        <time>2020-06-02T10:24:53Z</time>
      </trkpt>
      <trkpt lat="46.22632" lon="-1.05077">
        <ele>4</ele>
        <time>2020-06-02T10:24:54Z</time>
      </trkpt>
      <trkpt lat="46.22637" lon="-1.05082">
        <ele>4</ele>
        <time>2020-06-02T10:24:55Z</time>
      </trkpt>
      <trkpt lat="46.22643" lon="-1.05085">
        <ele>4</ele>
        <time>2020-06-02T10:24:56Z</time>
      </trkpt>
      <trkpt lat="46.22649" lon="-1.05086">
        <ele>4</ele>
        <time>2020-06-02T10:24:57Z</time>
      </trkpt>
      <trkpt lat="46.22654" lon="-1.05088">
        <ele>4</ele>
        <time>2020-06-02T10:24:58Z</time>
      </trkpt>
      <trkpt lat="46.2266" lon="-1.0509">
        <ele>4</ele>
        <time>2020-06-02T10:24:59Z</time>
      </trkpt>
      <trkpt lat="46.22665" lon="-1.05092">
        <ele>4</ele>
        <time>2020-06-02T10:25:00Z</time>
      </trkpt>
      <trkpt lat="46.2267" lon="-1.05095">
        <ele>4</ele>
        <time>2020-06-02T10:25:01Z</time>
      </trkpt>
      <trkpt lat="46.22676" lon="-1.05095">
        <ele>4</ele>
        <time>2020-06-02T10:25:02Z</time>
      </trkpt>
      <trkpt lat="46.22681" lon="-1.05098">
        <ele>4</ele>
        <time>2020-06-02T10:25:03Z</time>
      </trkpt>
      <trkpt lat="46.22687" lon="-1.051">
        <ele>4</ele>
        <time>2020-06-02T10:25:04Z</time>
      </trkpt>
      <trkpt lat="46.22693" lon="-1.05103">
        <ele>4</ele>
        <time>2020-06-02T10:25:05Z</time>
      </trkpt>
      <trkpt lat="46.22697" lon="-1.05107">
        <ele>4</ele>
        <time>2020-06-02T10:25:06Z</time>
      </trkpt>
      <trkpt lat="46.22703" lon="-1.0511">
        <ele>4.1</ele>
        <time>2020-06-02T10:25:07Z</time>
      </trkpt>
      <trkpt lat="46.22708" lon="-1.05112">
        <ele>4.1</ele>
        <time>2020-06-02T10:25:08Z</time>
      </trkpt>
      <trkpt lat="46.22713" lon="-1.05113">
        <ele>4.1</ele>
        <time>2020-06-02T10:25:09Z</time>
      </trkpt>
      <trkpt lat="46.22718" lon="-1.05114">
        <ele>4.1</ele>
        <time>2020-06-02T10:25:10Z</time>
      </trkpt>
      <trkpt lat="46.22723" lon="-1.05113">
        <ele>4.1</ele>
        <time>2020-06-02T10:25:11Z</time>
      </trkpt>
      <trkpt lat="46.22729" lon="-1.05113">
        <ele>4.1</ele>
        <time>2020-06-02T10:25:12Z</time>
      </trkpt>
      <trkpt lat="46.22734" lon="-1.05115">
        <ele>4.1</ele>
        <time>2020-06-02T10:25:13Z</time>
      </trkpt>
      <trkpt lat="46.22738" lon="-1.05118">
        <ele>4.1</ele>
        <time>2020-06-02T10:25:14Z</time>
      </trkpt>
      <trkpt lat="46.22743" lon="-1.05121">
        <ele>4.1</ele>
        <time>2020-06-02T10:25:15Z</time>
      </trkpt>
      <trkpt lat="46.22747" lon="-1.05125">
        <ele>4.1</ele>
        <time>2020-06-02T10:25:16Z</time>
      </trkpt>
      <trkpt lat="46.22752" lon="-1.05129">
        <ele>4.1</ele>
        <time>2020-06-02T10:25:17Z</time>
      </trkpt>
      <trkpt lat="46.22756" lon="-1.05132">
        <ele>4.1</ele>
        <time>2020-06-02T10:25:18Z</time>
      </trkpt>
      <trkpt lat="46.22761" lon="-1.05135">
        <ele>4.1</ele>
        <time>2020-06-02T10:25:19Z</time>
      </trkpt>
      <trkpt lat="46.22765" lon="-1.05139">
        <ele>4.1</ele>
        <time>2020-06-02T10:25:20Z</time>
      </trkpt>
      <trkpt lat="46.22769" lon="-1.05141">
        <ele>4.1</ele>
        <time>2020-06-02T10:25:21Z</time>
      </trkpt>
      <trkpt lat="46.22774" lon="-1.05143">
        <ele>4.1</ele>
        <time>2020-06-02T10:25:22Z</time>
      </trkpt>
      <trkpt lat="46.22778" lon="-1.05144">
        <ele>4.1</ele>
        <time>2020-06-02T10:25:23Z</time>
      </trkpt>
      <trkpt lat="46.22783" lon="-1.05145">
        <ele>4.1</ele>
        <time>2020-06-02T10:25:24Z</time>
      </trkpt>
      <trkpt lat="46.22788" lon="-1.05148">
        <ele>4.1</ele>
        <time>2020-06-02T10:25:25Z</time>
      </trkpt>
      <trkpt lat="46.22792" lon="-1.05151">
        <ele>4.1</ele>
        <time>2020-06-02T10:25:26Z</time>
      </trkpt>
      <trkpt lat="46.22797" lon="-1.05152">
        <ele>4.1</ele>
        <time>2020-06-02T10:25:27Z</time>
      </trkpt>
      <trkpt lat="46.22802" lon="-1.05153">
        <ele>4.1</ele>
        <time>2020-06-02T10:25:28Z</time>
      </trkpt>
      <trkpt lat="46.22807" lon="-1.05154">
        <ele>4.1</ele>
        <time>2020-06-02T10:25:29Z</time>
      </trkpt>
      <trkpt lat="46.22812" lon="-1.05157">
        <ele>4.1</ele>
        <time>2020-06-02T10:25:30Z</time>
      </trkpt>
      <trkpt lat="46.22817" lon="-1.05157">
        <ele>4.1</ele>
        <time>2020-06-02T10:25:31Z</time>
      </trkpt>
      <trkpt lat="46.22822" lon="-1.0516">
        <ele>4.1</ele>
        <time>2020-06-02T10:25:32Z</time>
      </trkpt>
      <trkpt lat="46.22827" lon="-1.05163">
        <ele>4</ele>
        <time>2020-06-02T10:25:33Z</time>
      </trkpt>
      <trkpt lat="46.22831" lon="-1.05167">
        <ele>4</ele>
        <time>2020-06-02T10:25:34Z</time>
      </trkpt>
      <trkpt lat="46.22836" lon="-1.05169">
        <ele>4</ele>
        <time>2020-06-02T10:25:35Z</time>
      </trkpt>
      <trkpt lat="46.22842" lon="-1.05171">
        <ele>4</ele>
        <time>2020-06-02T10:25:36Z</time>
      </trkpt>
      <trkpt lat="46.22847" lon="-1.05174">
        <ele>4</ele>
        <time>2020-06-02T10:25:37Z</time>
      </trkpt>
      <trkpt lat="46.22852" lon="-1.05176">
        <ele>4</ele>
        <time>2020-06-02T10:25:38Z</time>
      </trkpt>
      <trkpt lat="46.22857" lon="-1.05176">
        <ele>4</ele>
        <time>2020-06-02T10:25:39Z</time>
      </trkpt>
      <trkpt lat="46.22862" lon="-1.05177">
        <ele>4</ele>
        <time>2020-06-02T10:25:40Z</time>
      </trkpt>
      <trkpt lat="46.22867" lon="-1.05177">
        <ele>4</ele>
        <time>2020-06-02T10:25:41Z</time>
      </trkpt>
      <trkpt lat="46.22872" lon="-1.05178">
        <ele>3.9</ele>
        <time>2020-06-02T10:25:42Z</time>
      </trkpt>
      <trkpt lat="46.22876" lon="-1.0518">
        <ele>3.9</ele>
        <time>2020-06-02T10:25:43Z</time>
      </trkpt>
      <trkpt lat="46.2288" lon="-1.05181">
        <ele>3.9</ele>
        <time>2020-06-02T10:25:44Z</time>
      </trkpt>
      <trkpt lat="46.22884" lon="-1.0518">
        <ele>3.9</ele>
        <time>2020-06-02T10:25:45Z</time>
      </trkpt>
      <trkpt lat="46.22888" lon="-1.0518">
        <ele>3.9</ele>
        <time>2020-06-02T10:25:46Z</time>
      </trkpt>
      <trkpt lat="46.22892" lon="-1.0518">
        <ele>3.9</ele>
        <time>2020-06-02T10:25:47Z</time>
      </trkpt>
      <trkpt lat="46.22896" lon="-1.0518">
        <ele>3.9</ele>
        <time>2020-06-02T10:25:48Z</time>
      </trkpt>
      <trkpt lat="46.229" lon="-1.0518">
        <ele>3.9</ele>
        <time>2020-06-02T10:25:49Z</time>
      </trkpt>
      <trkpt lat="46.22905" lon="-1.0518">
        <ele>3.9</ele>
        <time>2020-06-02T10:25:50Z</time>
      </trkpt>
      <trkpt lat="46.22909" lon="-1.05182">
        <ele>3.9</ele>
        <time>2020-06-02T10:25:51Z</time>
      </trkpt>
      <trkpt lat="46.22915" lon="-1.05182">
        <ele>4</ele>
        <time>2020-06-02T10:25:52Z</time>
      </trkpt>
      <trkpt lat="46.2292" lon="-1.05182">
        <ele>4</ele>
        <time>2020-06-02T10:25:53Z</time>
      </trkpt>
      <trkpt lat="46.22926" lon="-1.05182">
        <ele>3.9</ele>
        <time>2020-06-02T10:25:54Z</time>
      </trkpt>
      <trkpt lat="46.22932" lon="-1.0518">
        <ele>3.9</ele>
        <time>2020-06-02T10:25:55Z</time>
      </trkpt>
      <trkpt lat="46.22938" lon="-1.0518">
        <ele>3.9</ele>
        <time>2020-06-02T10:25:56Z</time>
      </trkpt>
      <trkpt lat="46.22944" lon="-1.0518">
        <ele>3.9</ele>
        <time>2020-06-02T10:25:57Z</time>
      </trkpt>
      <trkpt lat="46.22949" lon="-1.05179">
        <ele>3.9</ele>
        <time>2020-06-02T10:25:58Z</time>
      </trkpt>
      <trkpt lat="46.22955" lon="-1.05177">
        <ele>3.9</ele>
        <time>2020-06-02T10:25:59Z</time>
      </trkpt>
      <trkpt lat="46.2296" lon="-1.05178">
        <ele>3.9</ele>
        <time>2020-06-02T10:26:00Z</time>
      </trkpt>
      <trkpt lat="46.22965" lon="-1.05177">
        <ele>3.9</ele>
        <time>2020-06-02T10:26:01Z</time>
      </trkpt>
      <trkpt lat="46.22971" lon="-1.05176">
        <ele>3.9</ele>
        <time>2020-06-02T10:26:02Z</time>
      </trkpt>
      <trkpt lat="46.22976" lon="-1.05175">
        <ele>3.9</ele>
        <time>2020-06-02T10:26:03Z</time>
      </trkpt>
      <trkpt lat="46.22981" lon="-1.05175">
        <ele>3.9</ele>
        <time>2020-06-02T10:26:04Z</time>
      </trkpt>
      <trkpt lat="46.22986" lon="-1.05174">
        <ele>3.9</ele>
        <time>2020-06-02T10:26:05Z</time>
      </trkpt>
      <trkpt lat="46.22991" lon="-1.05173">
        <ele>3.9</ele>
        <time>2020-06-02T10:26:06Z</time>
      </trkpt>
      <trkpt lat="46.22997" lon="-1.0517">
        <ele>3.9</ele>
        <time>2020-06-02T10:26:07Z</time>
      </trkpt>
      <trkpt lat="46.23002" lon="-1.05168">
        <ele>3.9</ele>
        <time>2020-06-02T10:26:08Z</time>
      </trkpt>
      <trkpt lat="46.23007" lon="-1.05166">
        <ele>3.9</ele>
        <time>2020-06-02T10:26:09Z</time>
      </trkpt>
      <trkpt lat="46.23013" lon="-1.05165">
        <ele>3.9</ele>
        <time>2020-06-02T10:26:10Z</time>
      </trkpt>
      <trkpt lat="46.23018" lon="-1.05164">
        <ele>3.9</ele>
        <time>2020-06-02T10:26:11Z</time>
      </trkpt>
      <trkpt lat="46.23023" lon="-1.0516">
        <ele>3.9</ele>
        <time>2020-06-02T10:26:12Z</time>
      </trkpt>
      <trkpt lat="46.23028" lon="-1.05157">
        <ele>3.9</ele>
        <time>2020-06-02T10:26:13Z</time>
      </trkpt>
      <trkpt lat="46.23033" lon="-1.05154">
        <ele>3.9</ele>
        <time>2020-06-02T10:26:14Z</time>
      </trkpt>
      <trkpt lat="46.23039" lon="-1.05153">
        <ele>3.9</ele>
        <time>2020-06-02T10:26:15Z</time>
      </trkpt>
      <trkpt lat="46.23044" lon="-1.05151">
        <ele>3.9</ele>
        <time>2020-06-02T10:26:16Z</time>
      </trkpt>
      <trkpt lat="46.23049" lon="-1.05148">
        <ele>3.9</ele>
        <time>2020-06-02T10:26:17Z</time>
      </trkpt>
      <trkpt lat="46.23054" lon="-1.05146">
        <ele>3.9</ele>
        <time>2020-06-02T10:26:18Z</time>
      </trkpt>
      <trkpt lat="46.2306" lon="-1.05144">
        <ele>3.9</ele>
        <time>2020-06-02T10:26:19Z</time>
      </trkpt>
      <trkpt lat="46.23065" lon="-1.05142">
        <ele>3.9</ele>
        <time>2020-06-02T10:26:20Z</time>
      </trkpt>
      <trkpt lat="46.2307" lon="-1.05139">
        <ele>3.9</ele>
        <time>2020-06-02T10:26:21Z</time>
      </trkpt>
      <trkpt lat="46.23075" lon="-1.05138">
        <ele>3.9</ele>
        <time>2020-06-02T10:26:22Z</time>
      </trkpt>
      <trkpt lat="46.2308" lon="-1.05137">
        <ele>3.9</ele>
        <time>2020-06-02T10:26:23Z</time>
      </trkpt>
      <trkpt lat="46.23085" lon="-1.05136">
        <ele>3.9</ele>
        <time>2020-06-02T10:26:24Z</time>
      </trkpt>
      <trkpt lat="46.23091" lon="-1.05135">
        <ele>3.9</ele>
        <time>2020-06-02T10:26:25Z</time>
      </trkpt>
      <trkpt lat="46.23096" lon="-1.05132">
        <ele>3.9</ele>
        <time>2020-06-02T10:26:26Z</time>
      </trkpt>
      <trkpt lat="46.23101" lon="-1.0513">
        <ele>3.9</ele>
        <time>2020-06-02T10:26:27Z</time>
      </trkpt>
      <trkpt lat="46.23106" lon="-1.05127">
        <ele>3.9</ele>
        <time>2020-06-02T10:26:28Z</time>
      </trkpt>
      <trkpt lat="46.23112" lon="-1.05123">
        <ele>3.9</ele>
        <time>2020-06-02T10:26:29Z</time>
      </trkpt>
      <trkpt lat="46.23117" lon="-1.0512">
        <ele>3.9</ele>
        <time>2020-06-02T10:26:30Z</time>
      </trkpt>
      <trkpt lat="46.23122" lon="-1.05118">
        <ele>3.9</ele>
        <time>2020-06-02T10:26:31Z</time>
      </trkpt>
      <trkpt lat="46.23127" lon="-1.05116">
        <ele>3.9</ele>
        <time>2020-06-02T10:26:32Z</time>
      </trkpt>
      <trkpt lat="46.23132" lon="-1.05115">
        <ele>3.9</ele>
        <time>2020-06-02T10:26:33Z</time>
      </trkpt>
      <trkpt lat="46.23138" lon="-1.05113">
        <ele>3.9</ele>
        <time>2020-06-02T10:26:34Z</time>
      </trkpt>
      <trkpt lat="46.23143" lon="-1.05111">
        <ele>3.9</ele>
        <time>2020-06-02T10:26:35Z</time>
      </trkpt>
      <trkpt lat="46.23149" lon="-1.05109">
        <ele>3.9</ele>
        <time>2020-06-02T10:26:36Z</time>
      </trkpt>
      <trkpt lat="46.23154" lon="-1.05108">
        <ele>3.9</ele>
        <time>2020-06-02T10:26:37Z</time>
      </trkpt>
      <trkpt lat="46.2316" lon="-1.05106">
        <ele>3.9</ele>
        <time>2020-06-02T10:26:38Z</time>
      </trkpt>
      <trkpt lat="46.23165" lon="-1.05104">
        <ele>3.9</ele>
        <time>2020-06-02T10:26:39Z</time>
      </trkpt>
      <trkpt lat="46.23171" lon="-1.05103">
        <ele>3.9</ele>
        <time>2020-06-02T10:26:40Z</time>
      </trkpt>
      <trkpt lat="46.23176" lon="-1.05102">
        <ele>3.8</ele>
        <time>2020-06-02T10:26:41Z</time>
      </trkpt>
      <trkpt lat="46.23181" lon="-1.05101">
        <ele>3.8</ele>
        <time>2020-06-02T10:26:42Z</time>
      </trkpt>
      <trkpt lat="46.23187" lon="-1.05099">
        <ele>3.8</ele>
        <time>2020-06-02T10:26:43Z</time>
      </trkpt>
      <trkpt lat="46.23192" lon="-1.05097">
        <ele>3.8</ele>
        <time>2020-06-02T10:26:44Z</time>
      </trkpt>
      <trkpt lat="46.23198" lon="-1.05096">
        <ele>3.8</ele>
        <time>2020-06-02T10:26:45Z</time>
      </trkpt>
      <trkpt lat="46.23203" lon="-1.05094">
        <ele>3.8</ele>
        <time>2020-06-02T10:26:46Z</time>
      </trkpt>
      <trkpt lat="46.23209" lon="-1.05092">
        <ele>3.8</ele>
        <time>2020-06-02T10:26:47Z</time>
      </trkpt>
      <trkpt lat="46.23214" lon="-1.0509">
        <ele>3.8</ele>
        <time>2020-06-02T10:26:48Z</time>
      </trkpt>
      <trkpt lat="46.23219" lon="-1.05088">
        <ele>3.8</ele>
        <time>2020-06-02T10:26:49Z</time>
      </trkpt>
      <trkpt lat="46.23224" lon="-1.05085">
        <ele>3.8</ele>
        <time>2020-06-02T10:26:50Z</time>
      </trkpt>
      <trkpt lat="46.23229" lon="-1.05083">
        <ele>3.8</ele>
        <time>2020-06-02T10:26:51Z</time>
      </trkpt>
      <trkpt lat="46.23234" lon="-1.05081">
        <ele>3.9</ele>
        <time>2020-06-02T10:26:52Z</time>
      </trkpt>
      <trkpt lat="46.2324" lon="-1.05079">
        <ele>3.9</ele>
        <time>2020-06-02T10:26:53Z</time>
      </trkpt>
      <trkpt lat="46.23245" lon="-1.05076">
        <ele>3.9</ele>
        <time>2020-06-02T10:26:54Z</time>
      </trkpt>
      <trkpt lat="46.2325" lon="-1.05074">
        <ele>3.9</ele>
        <time>2020-06-02T10:26:55Z</time>
      </trkpt>
      <trkpt lat="46.23255" lon="-1.05072">
        <ele>3.9</ele>
        <time>2020-06-02T10:26:56Z</time>
      </trkpt>
      <trkpt lat="46.2326" lon="-1.05071">
        <ele>3.9</ele>
        <time>2020-06-02T10:26:57Z</time>
      </trkpt>
      <trkpt lat="46.23265" lon="-1.05069">
        <ele>3.8</ele>
        <time>2020-06-02T10:26:58Z</time>
      </trkpt>
      <trkpt lat="46.23271" lon="-1.05067">
        <ele>3.8</ele>
        <time>2020-06-02T10:26:59Z</time>
      </trkpt>
      <trkpt lat="46.23276" lon="-1.05065">
        <ele>3.8</ele>
        <time>2020-06-02T10:27:00Z</time>
      </trkpt>
      <trkpt lat="46.23282" lon="-1.05063">
        <ele>3.8</ele>
        <time>2020-06-02T10:27:01Z</time>
      </trkpt>
      <trkpt lat="46.23288" lon="-1.05061">
        <ele>3.8</ele>
        <time>2020-06-02T10:27:02Z</time>
      </trkpt>
      <trkpt lat="46.23294" lon="-1.0506">
        <ele>3.8</ele>
        <time>2020-06-02T10:27:03Z</time>
      </trkpt>
      <trkpt lat="46.233" lon="-1.05058">
        <ele>3.8</ele>
        <time>2020-06-02T10:27:04Z</time>
      </trkpt>
      <trkpt lat="46.23305" lon="-1.05056">
        <ele>3.8</ele>
        <time>2020-06-02T10:27:05Z</time>
      </trkpt>
      <trkpt lat="46.23311" lon="-1.05054">
        <ele>3.8</ele>
        <time>2020-06-02T10:27:06Z</time>
      </trkpt>
      <trkpt lat="46.23316" lon="-1.05051">
        <ele>3.8</ele>
        <time>2020-06-02T10:27:07Z</time>
      </trkpt>
      <trkpt lat="46.23322" lon="-1.05049">
        <ele>3.8</ele>
        <time>2020-06-02T10:27:08Z</time>
      </trkpt>
      <trkpt lat="46.23327" lon="-1.05046">
        <ele>3.8</ele>
        <time>2020-06-02T10:27:09Z</time>
      </trkpt>
      <trkpt lat="46.23332" lon="-1.05044">
        <ele>3.8</ele>
        <time>2020-06-02T10:27:10Z</time>
      </trkpt>
      <trkpt lat="46.23338" lon="-1.05041">
        <ele>3.7</ele>
        <time>2020-06-02T10:27:11Z</time>
      </trkpt>
      <trkpt lat="46.23343" lon="-1.05039">
        <ele>3.7</ele>
        <time>2020-06-02T10:27:12Z</time>
      </trkpt>
      <trkpt lat="46.23348" lon="-1.05036">
        <ele>3.7</ele>
        <time>2020-06-02T10:27:13Z</time>
      </trkpt>
      <trkpt lat="46.23354" lon="-1.05034">
        <ele>3.7</ele>
        <time>2020-06-02T10:27:14Z</time>
      </trkpt>
      <trkpt lat="46.2336" lon="-1.05032">
        <ele>3.7</ele>
        <time>2020-06-02T10:27:15Z</time>
      </trkpt>
      <trkpt lat="46.23366" lon="-1.05029">
        <ele>3.7</ele>
        <time>2020-06-02T10:27:16Z</time>
      </trkpt>
      <trkpt lat="46.23371" lon="-1.05027">
        <ele>3.6</ele>
        <time>2020-06-02T10:27:17Z</time>
      </trkpt>
      <trkpt lat="46.23377" lon="-1.05024">
        <ele>3.6</ele>
        <time>2020-06-02T10:27:18Z</time>
      </trkpt>
      <trkpt lat="46.23384" lon="-1.05023">
        <ele>3.6</ele>
        <time>2020-06-02T10:27:19Z</time>
      </trkpt>
      <trkpt lat="46.2339" lon="-1.0502">
        <ele>3.6</ele>
        <time>2020-06-02T10:27:20Z</time>
      </trkpt>
      <trkpt lat="46.23396" lon="-1.05019">
        <ele>3.6</ele>
        <time>2020-06-02T10:27:21Z</time>
      </trkpt>
      <trkpt lat="46.23401" lon="-1.05017">
        <ele>3.5</ele>
        <time>2020-06-02T10:27:22Z</time>
      </trkpt>
      <trkpt lat="46.23407" lon="-1.05015">
        <ele>3.5</ele>
        <time>2020-06-02T10:27:23Z</time>
      </trkpt>
      <trkpt lat="46.23413" lon="-1.05014">
        <ele>3.5</ele>
        <time>2020-06-02T10:27:24Z</time>
      </trkpt>
      <trkpt lat="46.23419" lon="-1.05011">
        <ele>3.5</ele>
        <time>2020-06-02T10:27:25Z</time>
      </trkpt>
      <trkpt lat="46.23425" lon="-1.05009">
        <ele>3.5</ele>
        <time>2020-06-02T10:27:26Z</time>
      </trkpt>
      <trkpt lat="46.23431" lon="-1.05006">
        <ele>3.5</ele>
        <time>2020-06-02T10:27:27Z</time>
      </trkpt>
      <trkpt lat="46.23436" lon="-1.05003">
        <ele>3.5</ele>
        <time>2020-06-02T10:27:28Z</time>
      </trkpt>
      <trkpt lat="46.23443" lon="-1.05">
        <ele>3.5</ele>
        <time>2020-06-02T10:27:29Z</time>
      </trkpt>
      <trkpt lat="46.23449" lon="-1.04999">
        <ele>3.5</ele>
        <time>2020-06-02T10:27:30Z</time>
      </trkpt>
      <trkpt lat="46.23455" lon="-1.04997">
        <ele>3.5</ele>
        <time>2020-06-02T10:27:31Z</time>
      </trkpt>
      <trkpt lat="46.23462" lon="-1.04995">
        <ele>3.5</ele>
        <time>2020-06-02T10:27:32Z</time>
      </trkpt>
      <trkpt lat="46.23468" lon="-1.04993">
        <ele>3.5</ele>
        <time>2020-06-02T10:27:33Z</time>
      </trkpt>
      <trkpt lat="46.23474" lon="-1.0499">
        <ele>3.5</ele>
        <time>2020-06-02T10:27:34Z</time>
      </trkpt>
      <trkpt lat="46.23481" lon="-1.04987">
        <ele>3.4</ele>
        <time>2020-06-02T10:27:35Z</time>
      </trkpt>
      <trkpt lat="46.23488" lon="-1.04985">
        <ele>3.4</ele>
        <time>2020-06-02T10:27:36Z</time>
      </trkpt>
      <trkpt lat="46.23495" lon="-1.04983">
        <ele>3.4</ele>
        <time>2020-06-02T10:27:37Z</time>
      </trkpt>
      <trkpt lat="46.23502" lon="-1.04981">
        <ele>3.4</ele>
        <time>2020-06-02T10:27:38Z</time>
      </trkpt>
      <trkpt lat="46.23509" lon="-1.04979">
        <ele>3.5</ele>
        <time>2020-06-02T10:27:39Z</time>
      </trkpt>
      <trkpt lat="46.23517" lon="-1.04976">
        <ele>3.5</ele>
        <time>2020-06-02T10:27:40Z</time>
      </trkpt>
      <trkpt lat="46.23524" lon="-1.04974">
        <ele>3.5</ele>
        <time>2020-06-02T10:27:41Z</time>
      </trkpt>
      <trkpt lat="46.23531" lon="-1.04971">
        <ele>3.5</ele>
        <time>2020-06-02T10:27:42Z</time>
      </trkpt>
      <trkpt lat="46.23538" lon="-1.04969">
        <ele>3.5</ele>
        <time>2020-06-02T10:27:43Z</time>
      </trkpt>
      <trkpt lat="46.23545" lon="-1.04966">
        <ele>3.5</ele>
        <time>2020-06-02T10:27:44Z</time>
      </trkpt>
      <trkpt lat="46.23552" lon="-1.04964">
        <ele>3.5</ele>
        <time>2020-06-02T10:27:45Z</time>
      </trkpt>
      <trkpt lat="46.23559" lon="-1.04961">
        <ele>3.5</ele>
        <time>2020-06-02T10:27:46Z</time>
      </trkpt>
      <trkpt lat="46.23566" lon="-1.04958">
        <ele>3.4</ele>
        <time>2020-06-02T10:27:47Z</time>
      </trkpt>
      <trkpt lat="46.23573" lon="-1.04955">
        <ele>3.4</ele>
        <time>2020-06-02T10:27:48Z</time>
      </trkpt>
      <trkpt lat="46.23579" lon="-1.04952">
        <ele>3.4</ele>
        <time>2020-06-02T10:27:49Z</time>
      </trkpt>
      <trkpt lat="46.23586" lon="-1.0495">
        <ele>3.4</ele>
        <time>2020-06-02T10:27:50Z</time>
      </trkpt>
      <trkpt lat="46.23592" lon="-1.04948">
        <ele>3.4</ele>
        <time>2020-06-02T10:27:51Z</time>
      </trkpt>
      <trkpt lat="46.23599" lon="-1.04945">
        <ele>3.4</ele>
        <time>2020-06-02T10:27:52Z</time>
      </trkpt>
      <trkpt lat="46.23606" lon="-1.04943">
        <ele>3.4</ele>
        <time>2020-06-02T10:27:53Z</time>
      </trkpt>
      <trkpt lat="46.23613" lon="-1.04941">
        <ele>3.4</ele>
        <time>2020-06-02T10:27:54Z</time>
      </trkpt>
      <trkpt lat="46.2362" lon="-1.04938">
        <ele>3.4</ele>
        <time>2020-06-02T10:27:55Z</time>
      </trkpt>
      <trkpt lat="46.23627" lon="-1.04936">
        <ele>3.4</ele>
        <time>2020-06-02T10:27:56Z</time>
      </trkpt>
      <trkpt lat="46.23634" lon="-1.04933">
        <ele>3.4</ele>
        <time>2020-06-02T10:27:57Z</time>
      </trkpt>
      <trkpt lat="46.23641" lon="-1.0493">
        <ele>3.4</ele>
        <time>2020-06-02T10:27:58Z</time>
      </trkpt>
      <trkpt lat="46.23648" lon="-1.04927">
        <ele>3.4</ele>
        <time>2020-06-02T10:27:59Z</time>
      </trkpt>
      <trkpt lat="46.23655" lon="-1.04924">
        <ele>3.4</ele>
        <time>2020-06-02T10:28:00Z</time>
      </trkpt>
      <trkpt lat="46.23662" lon="-1.04921">
        <ele>3.4</ele>
        <time>2020-06-02T10:28:01Z</time>
      </trkpt>
      <trkpt lat="46.23669" lon="-1.04919">
        <ele>3.4</ele>
        <time>2020-06-02T10:28:02Z</time>
      </trkpt>
      <trkpt lat="46.23675" lon="-1.04916">
        <ele>3.3</ele>
        <time>2020-06-02T10:28:03Z</time>
      </trkpt>
      <trkpt lat="46.23682" lon="-1.04913">
        <ele>3.3</ele>
        <time>2020-06-02T10:28:04Z</time>
      </trkpt>
      <trkpt lat="46.23688" lon="-1.0491">
        <ele>3.3</ele>
        <time>2020-06-02T10:28:05Z</time>
      </trkpt>
      <trkpt lat="46.23695" lon="-1.04907">
        <ele>3.3</ele>
        <time>2020-06-02T10:28:06Z</time>
      </trkpt>
      <trkpt lat="46.23702" lon="-1.04905">
        <ele>3.3</ele>
        <time>2020-06-02T10:28:07Z</time>
      </trkpt>
      <trkpt lat="46.23709" lon="-1.04903">
        <ele>3.3</ele>
        <time>2020-06-02T10:28:08Z</time>
      </trkpt>
      <trkpt lat="46.23716" lon="-1.049">
        <ele>3.3</ele>
        <time>2020-06-02T10:28:09Z</time>
      </trkpt>
      <trkpt lat="46.23723" lon="-1.04898">
        <ele>3.3</ele>
        <time>2020-06-02T10:28:10Z</time>
      </trkpt>
      <trkpt lat="46.2373" lon="-1.04895">
        <ele>3.3</ele>
        <time>2020-06-02T10:28:11Z</time>
      </trkpt>
      <trkpt lat="46.23737" lon="-1.04893">
        <ele>3.3</ele>
        <time>2020-06-02T10:28:12Z</time>
      </trkpt>
      <trkpt lat="46.23744" lon="-1.0489">
        <ele>3.3</ele>
        <time>2020-06-02T10:28:13Z</time>
      </trkpt>
      <trkpt lat="46.23751" lon="-1.04887">
        <ele>3.3</ele>
        <time>2020-06-02T10:28:14Z</time>
      </trkpt>
      <trkpt lat="46.23758" lon="-1.04884">
        <ele>3.3</ele>
        <time>2020-06-02T10:28:15Z</time>
      </trkpt>
      <trkpt lat="46.23766" lon="-1.04883">
        <ele>3.3</ele>
        <time>2020-06-02T10:28:16Z</time>
      </trkpt>
      <trkpt lat="46.23773" lon="-1.0488">
        <ele>3.3</ele>
        <time>2020-06-02T10:28:17Z</time>
      </trkpt>
      <trkpt lat="46.2378" lon="-1.04877">
        <ele>3.3</ele>
        <time>2020-06-02T10:28:18Z</time>
      </trkpt>
      <trkpt lat="46.23787" lon="-1.04874">
        <ele>3.3</ele>
        <time>2020-06-02T10:28:19Z</time>
      </trkpt>
      <trkpt lat="46.23795" lon="-1.04871">
        <ele>3.3</ele>
        <time>2020-06-02T10:28:20Z</time>
      </trkpt>
      <trkpt lat="46.23802" lon="-1.04869">
        <ele>3.3</ele>
        <time>2020-06-02T10:28:21Z</time>
      </trkpt>
      <trkpt lat="46.23809" lon="-1.04866">
        <ele>3.3</ele>
        <time>2020-06-02T10:28:22Z</time>
      </trkpt>
      <trkpt lat="46.23817" lon="-1.04863">
        <ele>3.3</ele>
        <time>2020-06-02T10:28:23Z</time>
      </trkpt>
      <trkpt lat="46.23824" lon="-1.0486">
        <ele>3.3</ele>
        <time>2020-06-02T10:28:24Z</time>
      </trkpt>
      <trkpt lat="46.23831" lon="-1.04858">
        <ele>3.3</ele>
        <time>2020-06-02T10:28:25Z</time>
      </trkpt>
      <trkpt lat="46.23838" lon="-1.04855">
        <ele>3.3</ele>
        <time>2020-06-02T10:28:26Z</time>
      </trkpt>
      <trkpt lat="46.23845" lon="-1.04852">
        <ele>3.3</ele>
        <time>2020-06-02T10:28:27Z</time>
      </trkpt>
      <trkpt lat="46.23852" lon="-1.04849">
        <ele>3.2</ele>
        <time>2020-06-02T10:28:28Z</time>
      </trkpt>
      <trkpt lat="46.23859" lon="-1.04846">
        <ele>3.2</ele>
        <time>2020-06-02T10:28:29Z</time>
      </trkpt>
      <trkpt lat="46.23865" lon="-1.04843">
        <ele>3.2</ele>
        <time>2020-06-02T10:28:30Z</time>
      </trkpt>
      <trkpt lat="46.23872" lon="-1.04839">
        <ele>3.2</ele>
        <time>2020-06-02T10:28:31Z</time>
      </trkpt>
      <trkpt lat="46.23879" lon="-1.04836">
        <ele>3.2</ele>
        <time>2020-06-02T10:28:32Z</time>
      </trkpt>
      <trkpt lat="46.23886" lon="-1.04834">
        <ele>3.2</ele>
        <time>2020-06-02T10:28:33Z</time>
      </trkpt>
      <trkpt lat="46.23893" lon="-1.0483">
        <ele>3.2</ele>
        <time>2020-06-02T10:28:34Z</time>
      </trkpt>
      <trkpt lat="46.239" lon="-1.04828">
        <ele>3.2</ele>
        <time>2020-06-02T10:28:35Z</time>
      </trkpt>
      <trkpt lat="46.23907" lon="-1.04826">
        <ele>3.2</ele>
        <time>2020-06-02T10:28:36Z</time>
      </trkpt>
      <trkpt lat="46.23914" lon="-1.04824">
        <ele>3.2</ele>
        <time>2020-06-02T10:28:37Z</time>
      </trkpt>
      <trkpt lat="46.23921" lon="-1.04822">
        <ele>3.2</ele>
        <time>2020-06-02T10:28:38Z</time>
      </trkpt>
      <trkpt lat="46.23928" lon="-1.04818">
        <ele>3.2</ele>
        <time>2020-06-02T10:28:39Z</time>
      </trkpt>
      <trkpt lat="46.23935" lon="-1.04817">
        <ele>3.2</ele>
        <time>2020-06-02T10:28:40Z</time>
      </trkpt>
      <trkpt lat="46.23942" lon="-1.04815">
        <ele>3.2</ele>
        <time>2020-06-02T10:28:41Z</time>
      </trkpt>
      <trkpt lat="46.23949" lon="-1.04813">
        <ele>3.2</ele>
        <time>2020-06-02T10:28:42Z</time>
      </trkpt>
      <trkpt lat="46.23956" lon="-1.0481">
        <ele>3.2</ele>
        <time>2020-06-02T10:28:43Z</time>
      </trkpt>
      <trkpt lat="46.23962" lon="-1.04808">
        <ele>3.2</ele>
        <time>2020-06-02T10:28:44Z</time>
      </trkpt>
      <trkpt lat="46.23969" lon="-1.04805">
        <ele>3.2</ele>
        <time>2020-06-02T10:28:45Z</time>
      </trkpt>
      <trkpt lat="46.23976" lon="-1.04803">
        <ele>3.2</ele>
        <time>2020-06-02T10:28:46Z</time>
      </trkpt>
      <trkpt lat="46.23982" lon="-1.048">
        <ele>3.2</ele>
        <time>2020-06-02T10:28:47Z</time>
      </trkpt>
      <trkpt lat="46.23989" lon="-1.04797">
        <ele>3.2</ele>
        <time>2020-06-02T10:28:48Z</time>
      </trkpt>
      <trkpt lat="46.23996" lon="-1.04795">
        <ele>3.2</ele>
        <time>2020-06-02T10:28:49Z</time>
      </trkpt>
      <trkpt lat="46.24002" lon="-1.04793">
        <ele>3.2</ele>
        <time>2020-06-02T10:28:50Z</time>
      </trkpt>
      <trkpt lat="46.24009" lon="-1.04792">
        <ele>3.3</ele>
        <time>2020-06-02T10:28:51Z</time>
      </trkpt>
      <trkpt lat="46.24016" lon="-1.04789">
        <ele>3.3</ele>
        <time>2020-06-02T10:28:52Z</time>
      </trkpt>
      <trkpt lat="46.24023" lon="-1.04787">
        <ele>3.3</ele>
        <time>2020-06-02T10:28:53Z</time>
      </trkpt>
      <trkpt lat="46.24029" lon="-1.04785">
        <ele>3.3</ele>
        <time>2020-06-02T10:28:54Z</time>
      </trkpt>
      <trkpt lat="46.24036" lon="-1.04782">
        <ele>3.3</ele>
        <time>2020-06-02T10:28:55Z</time>
      </trkpt>
      <trkpt lat="46.24043" lon="-1.0478">
        <ele>3.3</ele>
        <time>2020-06-02T10:28:56Z</time>
      </trkpt>
      <trkpt lat="46.24049" lon="-1.04778">
        <ele>3.3</ele>
        <time>2020-06-02T10:28:57Z</time>
      </trkpt>
      <trkpt lat="46.24056" lon="-1.04775">
        <ele>3.3</ele>
        <time>2020-06-02T10:28:58Z</time>
      </trkpt>
      <trkpt lat="46.24063" lon="-1.04772">
        <ele>3.3</ele>
        <time>2020-06-02T10:28:59Z</time>
      </trkpt>
      <trkpt lat="46.24069" lon="-1.0477">
        <ele>3.3</ele>
        <time>2020-06-02T10:29:00Z</time>
      </trkpt>
      <trkpt lat="46.24076" lon="-1.04768">
        <ele>3.3</ele>
        <time>2020-06-02T10:29:01Z</time>
      </trkpt>
      <trkpt lat="46.24082" lon="-1.04765">
        <ele>3.3</ele>
        <time>2020-06-02T10:29:02Z</time>
      </trkpt>
      <trkpt lat="46.24089" lon="-1.04763">
        <ele>3.3</ele>
        <time>2020-06-02T10:29:03Z</time>
      </trkpt>
      <trkpt lat="46.24095" lon="-1.04761">
        <ele>3.3</ele>
        <time>2020-06-02T10:29:04Z</time>
      </trkpt>
      <trkpt lat="46.24102" lon="-1.04759">
        <ele>3.3</ele>
        <time>2020-06-02T10:29:05Z</time>
      </trkpt>
      <trkpt lat="46.24108" lon="-1.04756">
        <ele>3.3</ele>
        <time>2020-06-02T10:29:06Z</time>
      </trkpt>
      <trkpt lat="46.24114" lon="-1.04753">
        <ele>3.3</ele>
        <time>2020-06-02T10:29:07Z</time>
      </trkpt>
      <trkpt lat="46.24119" lon="-1.04751">
        <ele>3.3</ele>
        <time>2020-06-02T10:29:08Z</time>
      </trkpt>
      <trkpt lat="46.24125" lon="-1.04749">
        <ele>3.3</ele>
        <time>2020-06-02T10:29:09Z</time>
      </trkpt>
      <trkpt lat="46.24131" lon="-1.04747">
        <ele>3.3</ele>
        <time>2020-06-02T10:29:10Z</time>
      </trkpt>
      <trkpt lat="46.24136" lon="-1.04744">
        <ele>3.3</ele>
        <time>2020-06-02T10:29:11Z</time>
      </trkpt>
      <trkpt lat="46.24142" lon="-1.04742">
        <ele>3.3</ele>
        <time>2020-06-02T10:29:12Z</time>
      </trkpt>
      <trkpt lat="46.24147" lon="-1.0474">
        <ele>3.3</ele>
        <time>2020-06-02T10:29:13Z</time>
      </trkpt>
      <trkpt lat="46.24152" lon="-1.04739">
        <ele>3.3</ele>
        <time>2020-06-02T10:29:14Z</time>
      </trkpt>
      <trkpt lat="46.24158" lon="-1.04737">
        <ele>3.3</ele>
        <time>2020-06-02T10:29:15Z</time>
      </trkpt>
      <trkpt lat="46.24163" lon="-1.04735">
        <ele>3.4</ele>
        <time>2020-06-02T10:29:16Z</time>
      </trkpt>
      <trkpt lat="46.24169" lon="-1.04733">
        <ele>3.4</ele>
        <time>2020-06-02T10:29:17Z</time>
      </trkpt>
      <trkpt lat="46.24174" lon="-1.04731">
        <ele>3.4</ele>
        <time>2020-06-02T10:29:18Z</time>
      </trkpt>
      <trkpt lat="46.24179" lon="-1.04728">
        <ele>3.4</ele>
        <time>2020-06-02T10:29:19Z</time>
      </trkpt>
      <trkpt lat="46.24185" lon="-1.04725">
        <ele>3.4</ele>
        <time>2020-06-02T10:29:20Z</time>
      </trkpt>
      <trkpt lat="46.2419" lon="-1.04723">
        <ele>3.4</ele>
        <time>2020-06-02T10:29:21Z</time>
      </trkpt>
      <trkpt lat="46.24196" lon="-1.04721">
        <ele>3.4</ele>
        <time>2020-06-02T10:29:22Z</time>
      </trkpt>
      <trkpt lat="46.24201" lon="-1.0472">
        <ele>3.4</ele>
        <time>2020-06-02T10:29:23Z</time>
      </trkpt>
      <trkpt lat="46.24206" lon="-1.04718">
        <ele>3.4</ele>
        <time>2020-06-02T10:29:24Z</time>
      </trkpt>
      <trkpt lat="46.24212" lon="-1.04717">
        <ele>3.4</ele>
        <time>2020-06-02T10:29:25Z</time>
      </trkpt>
      <trkpt lat="46.24218" lon="-1.04715">
        <ele>3.4</ele>
        <time>2020-06-02T10:29:26Z</time>
      </trkpt>
      <trkpt lat="46.24223" lon="-1.04714">
        <ele>3.4</ele>
        <time>2020-06-02T10:29:27Z</time>
      </trkpt>
      <trkpt lat="46.24229" lon="-1.0471">
        <ele>3.4</ele>
        <time>2020-06-02T10:29:28Z</time>
      </trkpt>
      <trkpt lat="46.24234" lon="-1.04708">
        <ele>3.4</ele>
        <time>2020-06-02T10:29:29Z</time>
      </trkpt>
      <trkpt lat="46.24239" lon="-1.04706">
        <ele>3.4</ele>
        <time>2020-06-02T10:29:30Z</time>
      </trkpt>
      <trkpt lat="46.24244" lon="-1.04704">
        <ele>3.4</ele>
        <time>2020-06-02T10:29:31Z</time>
      </trkpt>
      <trkpt lat="46.24249" lon="-1.04701">
        <ele>3.4</ele>
        <time>2020-06-02T10:29:32Z</time>
      </trkpt>
      <trkpt lat="46.24254" lon="-1.047">
        <ele>3.4</ele>
        <time>2020-06-02T10:29:33Z</time>
      </trkpt>
      <trkpt lat="46.24259" lon="-1.04698">
        <ele>3.5</ele>
        <time>2020-06-02T10:29:34Z</time>
      </trkpt>
      <trkpt lat="46.24264" lon="-1.04696">
        <ele>3.5</ele>
        <time>2020-06-02T10:29:35Z</time>
      </trkpt>
      <trkpt lat="46.2427" lon="-1.04694">
        <ele>3.5</ele>
        <time>2020-06-02T10:29:36Z</time>
      </trkpt>
      <trkpt lat="46.24275" lon="-1.04693">
        <ele>3.5</ele>
        <time>2020-06-02T10:29:37Z</time>
      </trkpt>
      <trkpt lat="46.2428" lon="-1.04692">
        <ele>3.5</ele>
        <time>2020-06-02T10:29:38Z</time>
      </trkpt>
      <trkpt lat="46.24285" lon="-1.0469">
        <ele>3.5</ele>
        <time>2020-06-02T10:29:39Z</time>
      </trkpt>
      <trkpt lat="46.2429" lon="-1.04687">
        <ele>3.5</ele>
        <time>2020-06-02T10:29:40Z</time>
      </trkpt>
      <trkpt lat="46.24295" lon="-1.04685">
        <ele>3.5</ele>
        <time>2020-06-02T10:29:41Z</time>
      </trkpt>
      <trkpt lat="46.243" lon="-1.04684">
        <ele>3.5</ele>
        <time>2020-06-02T10:29:42Z</time>
      </trkpt>
      <trkpt lat="46.24305" lon="-1.04681">
        <ele>3.5</ele>
        <time>2020-06-02T10:29:43Z</time>
      </trkpt>
      <trkpt lat="46.24311" lon="-1.04679">
        <ele>3.5</ele>
        <time>2020-06-02T10:29:44Z</time>
      </trkpt>
      <trkpt lat="46.24317" lon="-1.04677">
        <ele>3.5</ele>
        <time>2020-06-02T10:29:45Z</time>
      </trkpt>
      <trkpt lat="46.24323" lon="-1.04675">
        <ele>3.5</ele>
        <time>2020-06-02T10:29:46Z</time>
      </trkpt>
      <trkpt lat="46.24328" lon="-1.04673">
        <ele>3.5</ele>
        <time>2020-06-02T10:29:47Z</time>
      </trkpt>
      <trkpt lat="46.24334" lon="-1.04669">
        <ele>3.5</ele>
        <time>2020-06-02T10:29:48Z</time>
      </trkpt>
      <trkpt lat="46.2434" lon="-1.04666">
        <ele>3.4</ele>
        <time>2020-06-02T10:29:49Z</time>
      </trkpt>
      <trkpt lat="46.24346" lon="-1.04664">
        <ele>3.4</ele>
        <time>2020-06-02T10:29:50Z</time>
      </trkpt>
      <trkpt lat="46.24352" lon="-1.04664">
        <ele>3.4</ele>
        <time>2020-06-02T10:29:51Z</time>
      </trkpt>
      <trkpt lat="46.24358" lon="-1.04663">
        <ele>3.4</ele>
        <time>2020-06-02T10:29:52Z</time>
      </trkpt>
      <trkpt lat="46.24364" lon="-1.0466">
        <ele>3.4</ele>
        <time>2020-06-02T10:29:53Z</time>
      </trkpt>
      <trkpt lat="46.2437" lon="-1.04658">
        <ele>3.4</ele>
        <time>2020-06-02T10:29:54Z</time>
      </trkpt>
      <trkpt lat="46.24375" lon="-1.04657">
        <ele>3.4</ele>
        <time>2020-06-02T10:29:55Z</time>
      </trkpt>
      <trkpt lat="46.24381" lon="-1.04654">
        <ele>3.4</ele>
        <time>2020-06-02T10:29:56Z</time>
      </trkpt>
      <trkpt lat="46.24386" lon="-1.04652">
        <ele>3.4</ele>
        <time>2020-06-02T10:29:57Z</time>
      </trkpt>
      <trkpt lat="46.24392" lon="-1.0465">
        <ele>3.4</ele>
        <time>2020-06-02T10:29:58Z</time>
      </trkpt>
      <trkpt lat="46.24398" lon="-1.04648">
        <ele>3.4</ele>
        <time>2020-06-02T10:29:59Z</time>
      </trkpt>
      <trkpt lat="46.24403" lon="-1.04646">
        <ele>3.4</ele>
        <time>2020-06-02T10:30:00Z</time>
      </trkpt>
      <trkpt lat="46.24409" lon="-1.04644">
        <ele>3.4</ele>
        <time>2020-06-02T10:30:01Z</time>
      </trkpt>
      <trkpt lat="46.24415" lon="-1.04642">
        <ele>3.4</ele>
        <time>2020-06-02T10:30:02Z</time>
      </trkpt>
      <trkpt lat="46.24421" lon="-1.04639">
        <ele>3.4</ele>
        <time>2020-06-02T10:30:03Z</time>
      </trkpt>
      <trkpt lat="46.24427" lon="-1.04636">
        <ele>3.4</ele>
        <time>2020-06-02T10:30:04Z</time>
      </trkpt>
      <trkpt lat="46.24433" lon="-1.04634">
        <ele>3.4</ele>
        <time>2020-06-02T10:30:05Z</time>
      </trkpt>
      <trkpt lat="46.24439" lon="-1.04632">
        <ele>3.4</ele>
        <time>2020-06-02T10:30:06Z</time>
      </trkpt>
      <trkpt lat="46.24445" lon="-1.04631">
        <ele>3.4</ele>
        <time>2020-06-02T10:30:07Z</time>
      </trkpt>
      <trkpt lat="46.24451" lon="-1.04628">
        <ele>3.4</ele>
        <time>2020-06-02T10:30:08Z</time>
      </trkpt>
      <trkpt lat="46.24458" lon="-1.04627">
        <ele>3.4</ele>
        <time>2020-06-02T10:30:09Z</time>
      </trkpt>
      <trkpt lat="46.24464" lon="-1.04625">
        <ele>3.4</ele>
        <time>2020-06-02T10:30:10Z</time>
      </trkpt>
      <trkpt lat="46.2447" lon="-1.04623">
        <ele>3.4</ele>
        <time>2020-06-02T10:30:11Z</time>
      </trkpt>
      <trkpt lat="46.24476" lon="-1.0462">
        <ele>3.4</ele>
        <time>2020-06-02T10:30:12Z</time>
      </trkpt>
      <trkpt lat="46.24482" lon="-1.04618">
        <ele>3.4</ele>
        <time>2020-06-02T10:30:13Z</time>
      </trkpt>
      <trkpt lat="46.24488" lon="-1.04615">
        <ele>3.4</ele>
        <time>2020-06-02T10:30:14Z</time>
      </trkpt>
      <trkpt lat="46.24494" lon="-1.04613">
        <ele>3.4</ele>
        <time>2020-06-02T10:30:15Z</time>
      </trkpt>
      <trkpt lat="46.245" lon="-1.04611">
        <ele>3.4</ele>
        <time>2020-06-02T10:30:16Z</time>
      </trkpt>
      <trkpt lat="46.24506" lon="-1.04608">
        <ele>3.4</ele>
        <time>2020-06-02T10:30:17Z</time>
      </trkpt>
      <trkpt lat="46.24512" lon="-1.04606">
        <ele>3.4</ele>
        <time>2020-06-02T10:30:18Z</time>
      </trkpt>
      <trkpt lat="46.24518" lon="-1.04604">
        <ele>3.4</ele>
        <time>2020-06-02T10:30:19Z</time>
      </trkpt>
      <trkpt lat="46.24524" lon="-1.04602">
        <ele>3.4</ele>
        <time>2020-06-02T10:30:20Z</time>
      </trkpt>
      <trkpt lat="46.24529" lon="-1.046">
        <ele>3.4</ele>
        <time>2020-06-02T10:30:21Z</time>
      </trkpt>
      <trkpt lat="46.24535" lon="-1.04597">
        <ele>3.4</ele>
        <time>2020-06-02T10:30:22Z</time>
      </trkpt>
      <trkpt lat="46.24541" lon="-1.04595">
        <ele>3.4</ele>
        <time>2020-06-02T10:30:23Z</time>
      </trkpt>
      <trkpt lat="46.24547" lon="-1.04593">
        <ele>3.4</ele>
        <time>2020-06-02T10:30:24Z</time>
      </trkpt>
      <trkpt lat="46.24552" lon="-1.0459">
        <ele>3.4</ele>
        <time>2020-06-02T10:30:25Z</time>
      </trkpt>
      <trkpt lat="46.24557" lon="-1.04588">
        <ele>3.5</ele>
        <time>2020-06-02T10:30:26Z</time>
      </trkpt>
      <trkpt lat="46.24562" lon="-1.04587">
        <ele>3.5</ele>
        <time>2020-06-02T10:30:27Z</time>
      </trkpt>
      <trkpt lat="46.24567" lon="-1.04585">
        <ele>3.5</ele>
        <time>2020-06-02T10:30:28Z</time>
      </trkpt>
      <trkpt lat="46.2457" lon="-1.04583">
        <ele>3.5</ele>
        <time>2020-06-02T10:30:29Z</time>
      </trkpt>
      <trkpt lat="46.24574" lon="-1.04581">
        <ele>3.5</ele>
        <time>2020-06-02T10:30:30Z</time>
      </trkpt>
      <trkpt lat="46.24578" lon="-1.04579">
        <ele>3.5</ele>
        <time>2020-06-02T10:30:31Z</time>
      </trkpt>
      <trkpt lat="46.24581" lon="-1.04577">
        <ele>3.5</ele>
        <time>2020-06-02T10:30:32Z</time>
      </trkpt>
      <trkpt lat="46.24585" lon="-1.04576">
        <ele>3.5</ele>
        <time>2020-06-02T10:30:33Z</time>
      </trkpt>
      <trkpt lat="46.24588" lon="-1.04575">
        <ele>3.5</ele>
        <time>2020-06-02T10:30:34Z</time>
      </trkpt>
      <trkpt lat="46.24592" lon="-1.04573">
        <ele>3.5</ele>
        <time>2020-06-02T10:30:35Z</time>
      </trkpt>
      <trkpt lat="46.24597" lon="-1.04572">
        <ele>3.5</ele>
        <time>2020-06-02T10:30:36Z</time>
      </trkpt>
      <trkpt lat="46.24602" lon="-1.04572">
        <ele>3.5</ele>
        <time>2020-06-02T10:30:37Z</time>
      </trkpt>
      <trkpt lat="46.24607" lon="-1.04571">
        <ele>3.5</ele>
        <time>2020-06-02T10:30:38Z</time>
      </trkpt>
      <trkpt lat="46.24611" lon="-1.04569">
        <ele>3.5</ele>
        <time>2020-06-02T10:30:39Z</time>
      </trkpt>
      <trkpt lat="46.24616" lon="-1.04569">
        <ele>3.5</ele>
        <time>2020-06-02T10:30:40Z</time>
      </trkpt>
      <trkpt lat="46.24621" lon="-1.04568">
        <ele>3.5</ele>
        <time>2020-06-02T10:30:41Z</time>
      </trkpt>
      <trkpt lat="46.24626" lon="-1.04565">
        <ele>3.5</ele>
        <time>2020-06-02T10:30:42Z</time>
      </trkpt>
      <trkpt lat="46.2463" lon="-1.04562">
        <ele>3.5</ele>
        <time>2020-06-02T10:30:43Z</time>
      </trkpt>
      <trkpt lat="46.24635" lon="-1.0456">
        <ele>3.5</ele>
        <time>2020-06-02T10:30:44Z</time>
      </trkpt>
      <trkpt lat="46.24639" lon="-1.04558">
        <ele>3.5</ele>
        <time>2020-06-02T10:30:45Z</time>
      </trkpt>
      <trkpt lat="46.24644" lon="-1.04557">
        <ele>3.5</ele>
        <time>2020-06-02T10:30:46Z</time>
      </trkpt>
      <trkpt lat="46.24649" lon="-1.04556">
        <ele>3.5</ele>
        <time>2020-06-02T10:30:47Z</time>
      </trkpt>
      <trkpt lat="46.24653" lon="-1.04554">
        <ele>3.5</ele>
        <time>2020-06-02T10:30:48Z</time>
      </trkpt>
      <trkpt lat="46.24658" lon="-1.04553">
        <ele>3.5</ele>
        <time>2020-06-02T10:30:49Z</time>
      </trkpt>
      <trkpt lat="46.24663" lon="-1.04552">
        <ele>3.5</ele>
        <time>2020-06-02T10:30:50Z</time>
      </trkpt>
      <trkpt lat="46.24667" lon="-1.0455">
        <ele>3.5</ele>
        <time>2020-06-02T10:30:51Z</time>
      </trkpt>
      <trkpt lat="46.24672" lon="-1.04549">
        <ele>3.5</ele>
        <time>2020-06-02T10:30:52Z</time>
      </trkpt>
      <trkpt lat="46.24676" lon="-1.04547">
        <ele>3.5</ele>
        <time>2020-06-02T10:30:53Z</time>
      </trkpt>
      <trkpt lat="46.2468" lon="-1.04545">
        <ele>3.5</ele>
        <time>2020-06-02T10:30:54Z</time>
      </trkpt>
      <trkpt lat="46.24685" lon="-1.04543">
        <ele>3.5</ele>
        <time>2020-06-02T10:30:55Z</time>
      </trkpt>
      <trkpt lat="46.24689" lon="-1.04541">
        <ele>3.5</ele>
        <time>2020-06-02T10:30:56Z</time>
      </trkpt>
      <trkpt lat="46.24693" lon="-1.04538">
        <ele>3.5</ele>
        <time>2020-06-02T10:30:57Z</time>
      </trkpt>
      <trkpt lat="46.24698" lon="-1.04535">
        <ele>3.5</ele>
        <time>2020-06-02T10:30:58Z</time>
      </trkpt>
      <trkpt lat="46.24703" lon="-1.04533">
        <ele>3.5</ele>
        <time>2020-06-02T10:30:59Z</time>
      </trkpt>
      <trkpt lat="46.24707" lon="-1.04531">
        <ele>3.5</ele>
        <time>2020-06-02T10:31:00Z</time>
      </trkpt>
      <trkpt lat="46.24712" lon="-1.04528">
        <ele>3.6</ele>
        <time>2020-06-02T10:31:01Z</time>
      </trkpt>
      <trkpt lat="46.24717" lon="-1.04525">
        <ele>3.6</ele>
        <time>2020-06-02T10:31:02Z</time>
      </trkpt>
      <trkpt lat="46.24722" lon="-1.04523">
        <ele>3.6</ele>
        <time>2020-06-02T10:31:03Z</time>
      </trkpt>
      <trkpt lat="46.24726" lon="-1.0452">
        <ele>3.6</ele>
        <time>2020-06-02T10:31:04Z</time>
      </trkpt>
      <trkpt lat="46.24731" lon="-1.04519">
        <ele>3.6</ele>
        <time>2020-06-02T10:31:05Z</time>
      </trkpt>
      <trkpt lat="46.24736" lon="-1.04517">
        <ele>3.6</ele>
        <time>2020-06-02T10:31:06Z</time>
      </trkpt>
      <trkpt lat="46.24741" lon="-1.04516">
        <ele>3.6</ele>
        <time>2020-06-02T10:31:07Z</time>
      </trkpt>
      <trkpt lat="46.24747" lon="-1.04515">
        <ele>3.6</ele>
        <time>2020-06-02T10:31:08Z</time>
      </trkpt>
      <trkpt lat="46.24752" lon="-1.04515">
        <ele>3.6</ele>
        <time>2020-06-02T10:31:09Z</time>
      </trkpt>
      <trkpt lat="46.24756" lon="-1.04514">
        <ele>3.6</ele>
        <time>2020-06-02T10:31:10Z</time>
      </trkpt>
      <trkpt lat="46.24761" lon="-1.04513">
        <ele>3.6</ele>
        <time>2020-06-02T10:31:11Z</time>
      </trkpt>
      <trkpt lat="46.24765" lon="-1.04512">
        <ele>3.6</ele>
        <time>2020-06-02T10:31:12Z</time>
      </trkpt>
      <trkpt lat="46.24769" lon="-1.04511">
        <ele>3.6</ele>
        <time>2020-06-02T10:31:13Z</time>
      </trkpt>
      <trkpt lat="46.24774" lon="-1.0451">
        <ele>3.6</ele>
        <time>2020-06-02T10:31:14Z</time>
      </trkpt>
      <trkpt lat="46.24778" lon="-1.0451">
        <ele>3.6</ele>
        <time>2020-06-02T10:31:15Z</time>
      </trkpt>
      <trkpt lat="46.24781" lon="-1.04507">
        <ele>3.6</ele>
        <time>2020-06-02T10:31:16Z</time>
      </trkpt>
      <trkpt lat="46.24785" lon="-1.04506">
        <ele>3.6</ele>
        <time>2020-06-02T10:31:17Z</time>
      </trkpt>
      <trkpt lat="46.24789" lon="-1.04506">
        <ele>3.6</ele>
        <time>2020-06-02T10:31:18Z</time>
      </trkpt>
      <trkpt lat="46.24792" lon="-1.04505">
        <ele>3.6</ele>
        <time>2020-06-02T10:31:19Z</time>
      </trkpt>
      <trkpt lat="46.24795" lon="-1.04504">
        <ele>3.6</ele>
        <time>2020-06-02T10:31:20Z</time>
      </trkpt>
      <trkpt lat="46.24796" lon="-1.045">
        <ele>3.7</ele>
        <time>2020-06-02T10:31:21Z</time>
      </trkpt>
      <trkpt lat="46.24798" lon="-1.04496">
        <ele>3.7</ele>
        <time>2020-06-02T10:31:22Z</time>
      </trkpt>
      <trkpt lat="46.24798" lon="-1.04492">
        <ele>3.7</ele>
        <time>2020-06-02T10:31:23Z</time>
      </trkpt>
      <trkpt lat="46.24799" lon="-1.04488">
        <ele>3.8</ele>
        <time>2020-06-02T10:31:24Z</time>
      </trkpt>
      <trkpt lat="46.24801" lon="-1.04484">
        <ele>3.8</ele>
        <time>2020-06-02T10:31:25Z</time>
      </trkpt>
      <trkpt lat="46.24802" lon="-1.0448">
        <ele>3.8</ele>
        <time>2020-06-02T10:31:26Z</time>
      </trkpt>
      <trkpt lat="46.24804" lon="-1.04476">
        <ele>3.9</ele>
        <time>2020-06-02T10:31:27Z</time>
      </trkpt>
      <trkpt lat="46.24806" lon="-1.04474">
        <ele>3.9</ele>
        <time>2020-06-02T10:31:28Z</time>
      </trkpt>
      <trkpt lat="46.24809" lon="-1.04472">
        <ele>3.9</ele>
        <time>2020-06-02T10:31:29Z</time>
      </trkpt>
      <trkpt lat="46.24813" lon="-1.04471">
        <ele>3.9</ele>
        <time>2020-06-02T10:31:30Z</time>
      </trkpt>
      <trkpt lat="46.24816" lon="-1.04471">
        <ele>4</ele>
        <time>2020-06-02T10:31:31Z</time>
      </trkpt>
      <trkpt lat="46.24819" lon="-1.04475">
        <ele>4</ele>
        <time>2020-06-02T10:31:32Z</time>
      </trkpt>
      <trkpt lat="46.24822" lon="-1.04478">
        <ele>4</ele>
        <time>2020-06-02T10:31:33Z</time>
      </trkpt>
      <trkpt lat="46.24826" lon="-1.04481">
        <ele>4</ele>
        <time>2020-06-02T10:31:34Z</time>
      </trkpt>
      <trkpt lat="46.24829" lon="-1.04486">
        <ele>4.1</ele>
        <time>2020-06-02T10:31:35Z</time>
      </trkpt>
      <trkpt lat="46.24833" lon="-1.04487">
        <ele>4.1</ele>
        <time>2020-06-02T10:31:36Z</time>
      </trkpt>
      <trkpt lat="46.24837" lon="-1.04488">
        <ele>4.1</ele>
        <time>2020-06-02T10:31:37Z</time>
      </trkpt>
      <trkpt lat="46.24841" lon="-1.04485">
        <ele>4.1</ele>
        <time>2020-06-02T10:31:38Z</time>
      </trkpt>
      <trkpt lat="46.24845" lon="-1.04483">
        <ele>4.1</ele>
        <time>2020-06-02T10:31:39Z</time>
      </trkpt>
      <trkpt lat="46.24849" lon="-1.04483">
        <ele>4.1</ele>
        <time>2020-06-02T10:31:40Z</time>
      </trkpt>
      <trkpt lat="46.24853" lon="-1.0448">
        <ele>4</ele>
        <time>2020-06-02T10:31:41Z</time>
      </trkpt>
      <trkpt lat="46.24857" lon="-1.04478">
        <ele>4</ele>
        <time>2020-06-02T10:31:42Z</time>
      </trkpt>
      <trkpt lat="46.2486" lon="-1.04476">
        <ele>4</ele>
        <time>2020-06-02T10:31:43Z</time>
      </trkpt>
      <trkpt lat="46.24863" lon="-1.04475">
        <ele>4</ele>
        <time>2020-06-02T10:31:44Z</time>
      </trkpt>
      <trkpt lat="46.24866" lon="-1.04475">
        <ele>4</ele>
        <time>2020-06-02T10:31:45Z</time>
      </trkpt>
      <trkpt lat="46.2487" lon="-1.04474">
        <ele>4</ele>
        <time>2020-06-02T10:31:46Z</time>
      </trkpt>
      <trkpt lat="46.24873" lon="-1.04474">
        <ele>3.9</ele>
        <time>2020-06-02T10:31:47Z</time>
      </trkpt>
      <trkpt lat="46.24876" lon="-1.0447">
        <ele>3.9</ele>
        <time>2020-06-02T10:31:48Z</time>
      </trkpt>
      <trkpt lat="46.24879" lon="-1.04469">
        <ele>3.9</ele>
        <time>2020-06-02T10:31:49Z</time>
      </trkpt>
      <trkpt lat="46.24883" lon="-1.04467">
        <ele>3.9</ele>
        <time>2020-06-02T10:31:50Z</time>
      </trkpt>
      <trkpt lat="46.24887" lon="-1.04466">
        <ele>3.9</ele>
        <time>2020-06-02T10:31:51Z</time>
      </trkpt>
      <trkpt lat="46.24891" lon="-1.04465">
        <ele>3.9</ele>
        <time>2020-06-02T10:31:52Z</time>
      </trkpt>
      <trkpt lat="46.24894" lon="-1.04463">
        <ele>3.8</ele>
        <time>2020-06-02T10:31:53Z</time>
      </trkpt>
      <trkpt lat="46.24898" lon="-1.04462">
        <ele>3.8</ele>
        <time>2020-06-02T10:31:54Z</time>
      </trkpt>
      <trkpt lat="46.24899" lon="-1.04462">
        <ele>3.8</ele>
        <time>2020-06-02T10:31:55Z</time>
      </trkpt>
      <trkpt lat="46.24902" lon="-1.04462">
        <ele>3.8</ele>
        <time>2020-06-02T10:31:56Z</time>
      </trkpt>
      <trkpt lat="46.24903" lon="-1.04461">
        <ele>3.8</ele>
        <time>2020-06-02T10:31:57Z</time>
      </trkpt>
      <trkpt lat="46.24906" lon="-1.04459">
        <ele>3.8</ele>
        <time>2020-06-02T10:31:58Z</time>
      </trkpt>
      <trkpt lat="46.24909" lon="-1.04458">
        <ele>3.8</ele>
        <time>2020-06-02T10:31:59Z</time>
      </trkpt>
      <trkpt lat="46.24913" lon="-1.04457">
        <ele>3.8</ele>
        <time>2020-06-02T10:32:00Z</time>
      </trkpt>
      <trkpt lat="46.24915" lon="-1.04456">
        <ele>3.8</ele>
        <time>2020-06-02T10:32:01Z</time>
      </trkpt>
      <trkpt lat="46.24918" lon="-1.04454">
        <ele>3.7</ele>
        <time>2020-06-02T10:32:02Z</time>
      </trkpt>
      <trkpt lat="46.24921" lon="-1.04454">
        <ele>3.7</ele>
        <time>2020-06-02T10:32:03Z</time>
      </trkpt>
      <trkpt lat="46.24924" lon="-1.04451">
        <ele>3.7</ele>
        <time>2020-06-02T10:32:04Z</time>
      </trkpt>
      <trkpt lat="46.24926" lon="-1.0445">
        <ele>3.7</ele>
        <time>2020-06-02T10:32:05Z</time>
      </trkpt>
      <trkpt lat="46.24929" lon="-1.04449">
        <ele>3.7</ele>
        <time>2020-06-02T10:32:06Z</time>
      </trkpt>
      <trkpt lat="46.24933" lon="-1.04448">
        <ele>3.7</ele>
        <time>2020-06-02T10:32:07Z</time>
      </trkpt>
      <trkpt lat="46.24934" lon="-1.04447">
        <ele>3.7</ele>
        <time>2020-06-02T10:32:08Z</time>
      </trkpt>
      <trkpt lat="46.24936" lon="-1.04446">
        <ele>3.7</ele>
        <time>2020-06-02T10:32:09Z</time>
      </trkpt>
      <trkpt lat="46.24937" lon="-1.04448">
        <ele>3.7</ele>
        <time>2020-06-02T10:32:10Z</time>
      </trkpt>
      <trkpt lat="46.24937" lon="-1.04448">
        <ele>3.7</ele>
        <time>2020-06-02T10:32:11Z</time>
      </trkpt>
      <trkpt lat="46.24937" lon="-1.04449">
        <ele>3.7</ele>
        <time>2020-06-02T10:32:12Z</time>
      </trkpt>
      <trkpt lat="46.24937" lon="-1.0445">
        <ele>3.7</ele>
        <time>2020-06-02T10:32:13Z</time>
      </trkpt>
      <trkpt lat="46.24938" lon="-1.0445">
        <ele>3.7</ele>
        <time>2020-06-02T10:32:14Z</time>
      </trkpt>
      <trkpt lat="46.24938" lon="-1.0445">
        <ele>3.7</ele>
        <time>2020-06-02T10:32:15Z</time>
      </trkpt>
      <trkpt lat="46.24938" lon="-1.0445">
        <ele>3.7</ele>
        <time>2020-06-02T10:32:16Z</time>
      </trkpt>
      <trkpt lat="46.24938" lon="-1.04451">
        <ele>3.7</ele>
        <time>2020-06-02T10:32:17Z</time>
      </trkpt>
      <trkpt lat="46.24938" lon="-1.04451">
        <ele>3.7</ele>
        <time>2020-06-02T10:32:18Z</time>
      </trkpt>
      <trkpt lat="46.24938" lon="-1.04451">
        <ele>3.7</ele>
        <time>2020-06-02T10:32:19Z</time>
      </trkpt>
      <trkpt lat="46.24938" lon="-1.04449">
        <ele>3.7</ele>
        <time>2020-06-02T10:32:20Z</time>
      </trkpt>
      <trkpt lat="46.24938" lon="-1.04449">
        <ele>3.7</ele>
        <time>2020-06-02T10:32:21Z</time>
      </trkpt>
      <trkpt lat="46.24938" lon="-1.04449">
        <ele>3.7</ele>
        <time>2020-06-02T10:32:22Z</time>
      </trkpt>
      <trkpt lat="46.24938" lon="-1.04451">
        <ele>3.7</ele>
        <time>2020-06-02T10:32:23Z</time>
      </trkpt>
      <trkpt lat="46.24938" lon="-1.04451">
        <ele>3.7</ele>
        <time>2020-06-02T10:32:24Z</time>
      </trkpt>
      <trkpt lat="46.24938" lon="-1.04451">
        <ele>3.7</ele>
        <time>2020-06-02T10:32:25Z</time>
      </trkpt>
      <trkpt lat="46.24938" lon="-1.04451">
        <ele>3.7</ele>
        <time>2020-06-02T10:32:26Z</time>
      </trkpt>
      <trkpt lat="46.24938" lon="-1.04451">
        <ele>3.7</ele>
        <time>2020-06-02T10:32:27Z</time>
      </trkpt>
      <trkpt lat="46.24938" lon="-1.0445">
        <ele>3.7</ele>
        <time>2020-06-02T10:32:28Z</time>
      </trkpt>
      <trkpt lat="46.24938" lon="-1.04449">
        <ele>3.7</ele>
        <time>2020-06-02T10:32:29Z</time>
      </trkpt>
      <trkpt lat="46.24938" lon="-1.04448">
        <ele>3.7</ele>
        <time>2020-06-02T10:32:30Z</time>
      </trkpt>
      <trkpt lat="46.24938" lon="-1.04448">
        <ele>3.7</ele>
        <time>2020-06-02T10:32:31Z</time>
      </trkpt>
      <trkpt lat="46.24938" lon="-1.04447">
        <ele>3.7</ele>
        <time>2020-06-02T10:32:32Z</time>
      </trkpt>
      <trkpt lat="46.24938" lon="-1.04447">
        <ele>3.7</ele>
        <time>2020-06-02T10:32:33Z</time>
      </trkpt>
      <trkpt lat="46.24938" lon="-1.04447">
        <ele>3.7</ele>
        <time>2020-06-02T10:32:34Z</time>
      </trkpt>
      <trkpt lat="46.24938" lon="-1.04447">
        <ele>3.7</ele>
        <time>2020-06-02T10:32:35Z</time>
      </trkpt>
      <trkpt lat="46.24938" lon="-1.04447">
        <ele>3.7</ele>
        <time>2020-06-02T10:32:36Z</time>
      </trkpt>
      <trkpt lat="46.24938" lon="-1.04447">
        <ele>3.7</ele>
        <time>2020-06-02T10:32:37Z</time>
      </trkpt>
      <trkpt lat="46.24939" lon="-1.04446">
        <ele>3.7</ele>
        <time>2020-06-02T10:32:38Z</time>
      </trkpt>
      <trkpt lat="46.24939" lon="-1.04447">
        <ele>3.7</ele>
        <time>2020-06-02T10:32:39Z</time>
      </trkpt>
      <trkpt lat="46.24939" lon="-1.04448">
        <ele>3.7</ele>
        <time>2020-06-02T10:32:40Z</time>
      </trkpt>
      <trkpt lat="46.24939" lon="-1.04448">
        <ele>3.7</ele>
        <time>2020-06-02T10:32:41Z</time>
      </trkpt>
      <trkpt lat="46.24939" lon="-1.04448">
        <ele>3.7</ele>
        <time>2020-06-02T10:32:42Z</time>
      </trkpt>
      <trkpt lat="46.2494" lon="-1.04448">
        <ele>3.7</ele>
        <time>2020-06-02T10:32:43Z</time>
      </trkpt>
      <trkpt lat="46.24941" lon="-1.04448">
        <ele>3.7</ele>
        <time>2020-06-02T10:32:44Z</time>
      </trkpt>
      <trkpt lat="46.24941" lon="-1.04447">
        <ele>3.7</ele>
        <time>2020-06-02T10:32:45Z</time>
      </trkpt>
      <trkpt lat="46.24942" lon="-1.04447">
        <ele>3.7</ele>
        <time>2020-06-02T10:32:46Z</time>
      </trkpt>
      <trkpt lat="46.24942" lon="-1.04447">
        <ele>3.7</ele>
        <time>2020-06-02T10:32:47Z</time>
      </trkpt>
      <trkpt lat="46.24941" lon="-1.04447">
        <ele>3.7</ele>
        <time>2020-06-02T10:32:48Z</time>
      </trkpt>
      <trkpt lat="46.24942" lon="-1.04448">
        <ele>3.7</ele>
        <time>2020-06-02T10:32:49Z</time>
      </trkpt>
      <trkpt lat="46.24942" lon="-1.04448">
        <ele>3.7</ele>
        <time>2020-06-02T10:32:50Z</time>
      </trkpt>
      <trkpt lat="46.24942" lon="-1.04447">
        <ele>3.7</ele>
        <time>2020-06-02T10:32:51Z</time>
      </trkpt>
      <trkpt lat="46.24942" lon="-1.04447">
        <ele>3.7</ele>
        <time>2020-06-02T10:32:52Z</time>
      </trkpt>
      <trkpt lat="46.24942" lon="-1.04447">
        <ele>3.7</ele>
        <time>2020-06-02T10:32:53Z</time>
      </trkpt>
      <trkpt lat="46.24942" lon="-1.04449">
        <ele>3.7</ele>
        <time>2020-06-02T10:32:54Z</time>
      </trkpt>
      <trkpt lat="46.24942" lon="-1.04449">
        <ele>3.7</ele>
        <time>2020-06-02T10:32:55Z</time>
      </trkpt>
      <trkpt lat="46.24942" lon="-1.04449">
        <ele>3.7</ele>
        <time>2020-06-02T10:32:56Z</time>
      </trkpt>
      <trkpt lat="46.24942" lon="-1.04449">
        <ele>3.7</ele>
        <time>2020-06-02T10:32:57Z</time>
      </trkpt>
      <trkpt lat="46.24942" lon="-1.04449">
        <ele>3.7</ele>
        <time>2020-06-02T10:32:58Z</time>
      </trkpt>
      <trkpt lat="46.24943" lon="-1.04448">
        <ele>3.7</ele>
        <time>2020-06-02T10:32:59Z</time>
      </trkpt>
      <trkpt lat="46.24943" lon="-1.04449">
        <ele>3.7</ele>
        <time>2020-06-02T10:33:00Z</time>
      </trkpt>
      <trkpt lat="46.24943" lon="-1.04449">
        <ele>3.7</ele>
        <time>2020-06-02T10:33:01Z</time>
      </trkpt>
      <trkpt lat="46.24942" lon="-1.0445">
        <ele>3.7</ele>
        <time>2020-06-02T10:33:02Z</time>
      </trkpt>
      <trkpt lat="46.24943" lon="-1.04448">
        <ele>3.7</ele>
        <time>2020-06-02T10:33:03Z</time>
      </trkpt>
      <trkpt lat="46.24943" lon="-1.04448">
        <ele>3.7</ele>
        <time>2020-06-02T10:33:04Z</time>
      </trkpt>
      <trkpt lat="46.24943" lon="-1.04448">
        <ele>3.7</ele>
        <time>2020-06-02T10:33:05Z</time>
      </trkpt>
      <trkpt lat="46.24942" lon="-1.04448">
        <ele>3.7</ele>
        <time>2020-06-02T10:33:06Z</time>
      </trkpt>
      <trkpt lat="46.24942" lon="-1.04448">
        <ele>3.7</ele>
        <time>2020-06-02T10:33:07Z</time>
      </trkpt>
      <trkpt lat="46.24942" lon="-1.04447">
        <ele>3.7</ele>
        <time>2020-06-02T10:33:08Z</time>
      </trkpt>
      <trkpt lat="46.24943" lon="-1.04445">
        <ele>3.7</ele>
        <time>2020-06-02T10:33:09Z</time>
      </trkpt>
      <trkpt lat="46.24943" lon="-1.04444">
        <ele>3.7</ele>
        <time>2020-06-02T10:33:10Z</time>
      </trkpt>
      <trkpt lat="46.24943" lon="-1.04444">
        <ele>3.7</ele>
        <time>2020-06-02T10:33:11Z</time>
      </trkpt>
      <trkpt lat="46.24942" lon="-1.04444">
        <ele>3.7</ele>
        <time>2020-06-02T10:33:12Z</time>
      </trkpt>
      <trkpt lat="46.24942" lon="-1.04444">
        <ele>3.7</ele>
        <time>2020-06-02T10:33:13Z</time>
      </trkpt>
      <trkpt lat="46.24942" lon="-1.04445">
        <ele>3.7</ele>
        <time>2020-06-02T10:33:14Z</time>
      </trkpt>
      <trkpt lat="46.24942" lon="-1.04446">
        <ele>3.7</ele>
        <time>2020-06-02T10:33:15Z</time>
      </trkpt>
      <trkpt lat="46.24942" lon="-1.04446">
        <ele>3.7</ele>
        <time>2020-06-02T10:33:16Z</time>
      </trkpt>
      <trkpt lat="46.24942" lon="-1.04446">
        <ele>3.7</ele>
        <time>2020-06-02T10:33:17Z</time>
      </trkpt>
      <trkpt lat="46.24942" lon="-1.04447">
        <ele>3.7</ele>
        <time>2020-06-02T10:33:18Z</time>
      </trkpt>
      <trkpt lat="46.24942" lon="-1.04448">
        <ele>3.7</ele>
        <time>2020-06-02T10:33:19Z</time>
      </trkpt>
      <trkpt lat="46.24942" lon="-1.04449">
        <ele>3.7</ele>
        <time>2020-06-02T10:33:20Z</time>
      </trkpt>
      <trkpt lat="46.24942" lon="-1.0445">
        <ele>3.7</ele>
        <time>2020-06-02T10:33:21Z</time>
      </trkpt>
      <trkpt lat="46.24942" lon="-1.04449">
        <ele>3.7</ele>
        <time>2020-06-02T10:33:22Z</time>
      </trkpt>
      <trkpt lat="46.24943" lon="-1.04449">
        <ele>3.7</ele>
        <time>2020-06-02T10:33:23Z</time>
      </trkpt>
      <trkpt lat="46.24943" lon="-1.04449">
        <ele>3.7</ele>
        <time>2020-06-02T10:33:24Z</time>
      </trkpt>
      <trkpt lat="46.24942" lon="-1.04449">
        <ele>3.7</ele>
        <time>2020-06-02T10:33:25Z</time>
      </trkpt>
      <trkpt lat="46.24942" lon="-1.0445">
        <ele>3.7</ele>
        <time>2020-06-02T10:33:26Z</time>
      </trkpt>
      <trkpt lat="46.24943" lon="-1.0445">
        <ele>3.7</ele>
        <time>2020-06-02T10:33:27Z</time>
      </trkpt>
      <trkpt lat="46.24943" lon="-1.0445">
        <ele>3.7</ele>
        <time>2020-06-02T10:33:28Z</time>
      </trkpt>
      <trkpt lat="46.24943" lon="-1.0445">
        <ele>3.7</ele>
        <time>2020-06-02T10:33:29Z</time>
      </trkpt>
      <trkpt lat="46.24943" lon="-1.0445">
        <ele>3.7</ele>
        <time>2020-06-02T10:33:30Z</time>
      </trkpt>
      <trkpt lat="46.24943" lon="-1.04451">
        <ele>3.8</ele>
        <time>2020-06-02T10:33:31Z</time>
      </trkpt>
      <trkpt lat="46.24943" lon="-1.0445">
        <ele>3.8</ele>
        <time>2020-06-02T10:33:32Z</time>
      </trkpt>
      <trkpt lat="46.24943" lon="-1.0445">
        <ele>3.8</ele>
        <time>2020-06-02T10:33:33Z</time>
      </trkpt>
      <trkpt lat="46.24943" lon="-1.04449">
        <ele>3.8</ele>
        <time>2020-06-02T10:33:34Z</time>
      </trkpt>
      <trkpt lat="46.24943" lon="-1.04449">
        <ele>3.8</ele>
        <time>2020-06-02T10:33:35Z</time>
      </trkpt>
      <trkpt lat="46.24943" lon="-1.0445">
        <ele>3.8</ele>
        <time>2020-06-02T10:33:36Z</time>
      </trkpt>
      <trkpt lat="46.24943" lon="-1.04449">
        <ele>3.8</ele>
        <time>2020-06-02T10:33:37Z</time>
      </trkpt>
      <trkpt lat="46.24943" lon="-1.04448">
        <ele>3.8</ele>
        <time>2020-06-02T10:33:38Z</time>
      </trkpt>
      <trkpt lat="46.24943" lon="-1.04449">
        <ele>3.8</ele>
        <time>2020-06-02T10:33:39Z</time>
      </trkpt>
      <trkpt lat="46.24942" lon="-1.04448">
        <ele>3.8</ele>
        <time>2020-06-02T10:33:40Z</time>
      </trkpt>
      <trkpt lat="46.24942" lon="-1.04447">
        <ele>3.8</ele>
        <time>2020-06-02T10:33:41Z</time>
      </trkpt>
      <trkpt lat="46.24942" lon="-1.04447">
        <ele>3.8</ele>
        <time>2020-06-02T10:33:42Z</time>
      </trkpt>
      <trkpt lat="46.24942" lon="-1.04447">
        <ele>3.8</ele>
        <time>2020-06-02T10:33:43Z</time>
      </trkpt>
      <trkpt lat="46.24942" lon="-1.04447">
        <ele>3.8</ele>
        <time>2020-06-02T10:33:44Z</time>
      </trkpt>
      <trkpt lat="46.24942" lon="-1.04448">
        <ele>3.8</ele>
        <time>2020-06-02T10:33:45Z</time>
      </trkpt>
      <trkpt lat="46.24942" lon="-1.04449">
        <ele>3.8</ele>
        <time>2020-06-02T10:33:46Z</time>
      </trkpt>
      <trkpt lat="46.24942" lon="-1.04447">
        <ele>3.8</ele>
        <time>2020-06-02T10:33:47Z</time>
      </trkpt>
      <trkpt lat="46.24942" lon="-1.04448">
        <ele>3.8</ele>
        <time>2020-06-02T10:33:48Z</time>
      </trkpt>
      <trkpt lat="46.24942" lon="-1.04448">
        <ele>3.8</ele>
        <time>2020-06-02T10:33:49Z</time>
      </trkpt>
      <trkpt lat="46.24943" lon="-1.04448">
        <ele>3.8</ele>
        <time>2020-06-02T10:33:50Z</time>
      </trkpt>
      <trkpt lat="46.24943" lon="-1.04448">
        <ele>3.8</ele>
        <time>2020-06-02T10:33:51Z</time>
      </trkpt>
      <trkpt lat="46.24943" lon="-1.04447">
        <ele>3.8</ele>
        <time>2020-06-02T10:33:52Z</time>
      </trkpt>
      <trkpt lat="46.24943" lon="-1.04448">
        <ele>3.8</ele>
        <time>2020-06-02T10:33:53Z</time>
      </trkpt>
      <trkpt lat="46.24943" lon="-1.04449">
        <ele>3.8</ele>
        <time>2020-06-02T10:33:54Z</time>
      </trkpt>
      <trkpt lat="46.24943" lon="-1.04449">
        <ele>3.8</ele>
        <time>2020-06-02T10:33:55Z</time>
      </trkpt>
      <trkpt lat="46.24943" lon="-1.04449">
        <ele>3.8</ele>
        <time>2020-06-02T10:33:56Z</time>
      </trkpt>
      <trkpt lat="46.24943" lon="-1.04449">
        <ele>3.8</ele>
        <time>2020-06-02T10:33:57Z</time>
      </trkpt>
      <trkpt lat="46.24944" lon="-1.04449">
        <ele>3.8</ele>
        <time>2020-06-02T10:33:58Z</time>
      </trkpt>
      <trkpt lat="46.24945" lon="-1.04449">
        <ele>3.8</ele>
        <time>2020-06-02T10:33:59Z</time>
      </trkpt>
      <trkpt lat="46.24946" lon="-1.04448">
        <ele>3.8</ele>
        <time>2020-06-02T10:34:00Z</time>
      </trkpt>
      <trkpt lat="46.24948" lon="-1.04448">
        <ele>3.8</ele>
        <time>2020-06-02T10:34:01Z</time>
      </trkpt>
      <trkpt lat="46.24952" lon="-1.04448">
        <ele>3.9</ele>
        <time>2020-06-02T10:34:02Z</time>
      </trkpt>
      <trkpt lat="46.24954" lon="-1.04448">
        <ele>3.9</ele>
        <time>2020-06-02T10:34:03Z</time>
      </trkpt>
      <trkpt lat="46.24957" lon="-1.04448">
        <ele>3.9</ele>
        <time>2020-06-02T10:34:04Z</time>
      </trkpt>
      <trkpt lat="46.2496" lon="-1.04447">
        <ele>4</ele>
        <time>2020-06-02T10:34:05Z</time>
      </trkpt>
      <trkpt lat="46.24964" lon="-1.04446">
        <ele>4</ele>
        <time>2020-06-02T10:34:06Z</time>
      </trkpt>
      <trkpt lat="46.24969" lon="-1.04444">
        <ele>4</ele>
        <time>2020-06-02T10:34:07Z</time>
      </trkpt>
      <trkpt lat="46.24974" lon="-1.04442">
        <ele>4</ele>
        <time>2020-06-02T10:34:08Z</time>
      </trkpt>
      <trkpt lat="46.24979" lon="-1.0444">
        <ele>4.1</ele>
        <time>2020-06-02T10:34:09Z</time>
      </trkpt>
      <trkpt lat="46.24985" lon="-1.04437">
        <ele>4.1</ele>
        <time>2020-06-02T10:34:10Z</time>
      </trkpt>
      <trkpt lat="46.2499" lon="-1.04435">
        <ele>4.1</ele>
        <time>2020-06-02T10:34:11Z</time>
      </trkpt>
      <trkpt lat="46.24996" lon="-1.04433">
        <ele>4.1</ele>
        <time>2020-06-02T10:34:12Z</time>
      </trkpt>
      <trkpt lat="46.25002" lon="-1.0443">
        <ele>4.1</ele>
        <time>2020-06-02T10:34:13Z</time>
      </trkpt>
      <trkpt lat="46.25008" lon="-1.04428">
        <ele>4.1</ele>
        <time>2020-06-02T10:34:14Z</time>
      </trkpt>
      <trkpt lat="46.25014" lon="-1.04426">
        <ele>4.2</ele>
        <time>2020-06-02T10:34:15Z</time>
      </trkpt>
      <trkpt lat="46.25019" lon="-1.04424">
        <ele>4.2</ele>
        <time>2020-06-02T10:34:16Z</time>
      </trkpt>
      <trkpt lat="46.25025" lon="-1.04422">
        <ele>4.2</ele>
        <time>2020-06-02T10:34:17Z</time>
      </trkpt>
      <trkpt lat="46.2503" lon="-1.0442">
        <ele>4.2</ele>
        <time>2020-06-02T10:34:18Z</time>
      </trkpt>
      <trkpt lat="46.25035" lon="-1.04419">
        <ele>4.2</ele>
        <time>2020-06-02T10:34:19Z</time>
      </trkpt>
      <trkpt lat="46.25039" lon="-1.04417">
        <ele>4.2</ele>
        <time>2020-06-02T10:34:20Z</time>
      </trkpt>
      <trkpt lat="46.25045" lon="-1.04415">
        <ele>4.2</ele>
        <time>2020-06-02T10:34:21Z</time>
      </trkpt>
      <trkpt lat="46.2505" lon="-1.04414">
        <ele>4.3</ele>
        <time>2020-06-02T10:34:22Z</time>
      </trkpt>
      <trkpt lat="46.25055" lon="-1.04411">
        <ele>4.3</ele>
        <time>2020-06-02T10:34:23Z</time>
      </trkpt>
      <trkpt lat="46.25061" lon="-1.04409">
        <ele>4.3</ele>
        <time>2020-06-02T10:34:24Z</time>
      </trkpt>
      <trkpt lat="46.25066" lon="-1.04407">
        <ele>4.3</ele>
        <time>2020-06-02T10:34:25Z</time>
      </trkpt>
      <trkpt lat="46.25071" lon="-1.04405">
        <ele>4.3</ele>
        <time>2020-06-02T10:34:26Z</time>
      </trkpt>
      <trkpt lat="46.25076" lon="-1.04403">
        <ele>4.4</ele>
        <time>2020-06-02T10:34:27Z</time>
      </trkpt>
      <trkpt lat="46.25081" lon="-1.04401">
        <ele>4.4</ele>
        <time>2020-06-02T10:34:28Z</time>
      </trkpt>
      <trkpt lat="46.25086" lon="-1.04399">
        <ele>4.4</ele>
        <time>2020-06-02T10:34:29Z</time>
      </trkpt>
      <trkpt lat="46.25091" lon="-1.04397">
        <ele>4.4</ele>
        <time>2020-06-02T10:34:30Z</time>
      </trkpt>
      <trkpt lat="46.25097" lon="-1.04395">
        <ele>4.4</ele>
        <time>2020-06-02T10:34:31Z</time>
      </trkpt>
      <trkpt lat="46.25102" lon="-1.04393">
        <ele>4.4</ele>
        <time>2020-06-02T10:34:32Z</time>
      </trkpt>
      <trkpt lat="46.25108" lon="-1.0439">
        <ele>4.4</ele>
        <time>2020-06-02T10:34:33Z</time>
      </trkpt>
      <trkpt lat="46.25113" lon="-1.04388">
        <ele>4.4</ele>
        <time>2020-06-02T10:34:34Z</time>
      </trkpt>
      <trkpt lat="46.25118" lon="-1.04386">
        <ele>4.4</ele>
        <time>2020-06-02T10:34:35Z</time>
      </trkpt>
      <trkpt lat="46.25123" lon="-1.04384">
        <ele>4.4</ele>
        <time>2020-06-02T10:34:36Z</time>
      </trkpt>
      <trkpt lat="46.25129" lon="-1.04381">
        <ele>4.4</ele>
        <time>2020-06-02T10:34:37Z</time>
      </trkpt>
      <trkpt lat="46.25134" lon="-1.04379">
        <ele>4.4</ele>
        <time>2020-06-02T10:34:38Z</time>
      </trkpt>
      <trkpt lat="46.25139" lon="-1.04377">
        <ele>4.4</ele>
        <time>2020-06-02T10:34:39Z</time>
      </trkpt>
      <trkpt lat="46.25144" lon="-1.04375">
        <ele>4.4</ele>
        <time>2020-06-02T10:34:40Z</time>
      </trkpt>
      <trkpt lat="46.25148" lon="-1.04373">
        <ele>4.4</ele>
        <time>2020-06-02T10:34:41Z</time>
      </trkpt>
      <trkpt lat="46.25152" lon="-1.04372">
        <ele>4.4</ele>
        <time>2020-06-02T10:34:42Z</time>
      </trkpt>
      <trkpt lat="46.25157" lon="-1.04369">
        <ele>4.4</ele>
        <time>2020-06-02T10:34:43Z</time>
      </trkpt>
      <trkpt lat="46.25162" lon="-1.04367">
        <ele>4.4</ele>
        <time>2020-06-02T10:34:44Z</time>
      </trkpt>
      <trkpt lat="46.25168" lon="-1.04364">
        <ele>4.4</ele>
        <time>2020-06-02T10:34:45Z</time>
      </trkpt>
      <trkpt lat="46.25173" lon="-1.04362">
        <ele>4.4</ele>
        <time>2020-06-02T10:34:46Z</time>
      </trkpt>
      <trkpt lat="46.25178" lon="-1.04359">
        <ele>4.4</ele>
        <time>2020-06-02T10:34:47Z</time>
      </trkpt>
      <trkpt lat="46.25184" lon="-1.04357">
        <ele>4.4</ele>
        <time>2020-06-02T10:34:48Z</time>
      </trkpt>
      <trkpt lat="46.25191" lon="-1.04353">
        <ele>4.4</ele>
        <time>2020-06-02T10:34:49Z</time>
      </trkpt>
      <trkpt lat="46.25197" lon="-1.04351">
        <ele>4.4</ele>
        <time>2020-06-02T10:34:50Z</time>
      </trkpt>
      <trkpt lat="46.25202" lon="-1.04349">
        <ele>4.4</ele>
        <time>2020-06-02T10:34:51Z</time>
      </trkpt>
      <trkpt lat="46.25206" lon="-1.04347">
        <ele>4.4</ele>
        <time>2020-06-02T10:34:52Z</time>
      </trkpt>
      <trkpt lat="46.25211" lon="-1.04345">
        <ele>4.4</ele>
        <time>2020-06-02T10:34:53Z</time>
      </trkpt>
      <trkpt lat="46.25216" lon="-1.04343">
        <ele>4.4</ele>
        <time>2020-06-02T10:34:54Z</time>
      </trkpt>
      <trkpt lat="46.25221" lon="-1.04341">
        <ele>4.3</ele>
        <time>2020-06-02T10:34:55Z</time>
      </trkpt>
      <trkpt lat="46.25226" lon="-1.04339">
        <ele>4.3</ele>
        <time>2020-06-02T10:34:56Z</time>
      </trkpt>
      <trkpt lat="46.25232" lon="-1.04337">
        <ele>4.3</ele>
        <time>2020-06-02T10:34:57Z</time>
      </trkpt>
      <trkpt lat="46.25238" lon="-1.04335">
        <ele>4.2</ele>
        <time>2020-06-02T10:34:58Z</time>
      </trkpt>
      <trkpt lat="46.25245" lon="-1.04332">
        <ele>4.2</ele>
        <time>2020-06-02T10:34:59Z</time>
      </trkpt>
      <trkpt lat="46.2525" lon="-1.0433">
        <ele>4.2</ele>
        <time>2020-06-02T10:35:00Z</time>
      </trkpt>
      <trkpt lat="46.25255" lon="-1.04328">
        <ele>4.1</ele>
        <time>2020-06-02T10:35:01Z</time>
      </trkpt>
      <trkpt lat="46.2526" lon="-1.04326">
        <ele>4.1</ele>
        <time>2020-06-02T10:35:02Z</time>
      </trkpt>
      <trkpt lat="46.25265" lon="-1.04324">
        <ele>4.1</ele>
        <time>2020-06-02T10:35:03Z</time>
      </trkpt>
      <trkpt lat="46.25271" lon="-1.04322">
        <ele>4</ele>
        <time>2020-06-02T10:35:04Z</time>
      </trkpt>
      <trkpt lat="46.25276" lon="-1.0432">
        <ele>4</ele>
        <time>2020-06-02T10:35:05Z</time>
      </trkpt>
      <trkpt lat="46.25281" lon="-1.04318">
        <ele>4</ele>
        <time>2020-06-02T10:35:06Z</time>
      </trkpt>
      <trkpt lat="46.25286" lon="-1.04316">
        <ele>3.9</ele>
        <time>2020-06-02T10:35:07Z</time>
      </trkpt>
      <trkpt lat="46.25291" lon="-1.04313">
        <ele>3.9</ele>
        <time>2020-06-02T10:35:08Z</time>
      </trkpt>
      <trkpt lat="46.25297" lon="-1.04311">
        <ele>3.8</ele>
        <time>2020-06-02T10:35:09Z</time>
      </trkpt>
      <trkpt lat="46.25302" lon="-1.04309">
        <ele>3.8</ele>
        <time>2020-06-02T10:35:10Z</time>
      </trkpt>
      <trkpt lat="46.25308" lon="-1.04307">
        <ele>3.8</ele>
        <time>2020-06-02T10:35:11Z</time>
      </trkpt>
      <trkpt lat="46.25313" lon="-1.04305">
        <ele>3.8</ele>
        <time>2020-06-02T10:35:12Z</time>
      </trkpt>
      <trkpt lat="46.25318" lon="-1.04303">
        <ele>3.7</ele>
        <time>2020-06-02T10:35:13Z</time>
      </trkpt>
      <trkpt lat="46.25324" lon="-1.04301">
        <ele>3.7</ele>
        <time>2020-06-02T10:35:14Z</time>
      </trkpt>
      <trkpt lat="46.2533" lon="-1.04298">
        <ele>3.7</ele>
        <time>2020-06-02T10:35:15Z</time>
      </trkpt>
      <trkpt lat="46.25335" lon="-1.04296">
        <ele>3.7</ele>
        <time>2020-06-02T10:35:16Z</time>
      </trkpt>
      <trkpt lat="46.25341" lon="-1.04294">
        <ele>3.7</ele>
        <time>2020-06-02T10:35:17Z</time>
      </trkpt>
      <trkpt lat="46.25346" lon="-1.04292">
        <ele>3.7</ele>
        <time>2020-06-02T10:35:18Z</time>
      </trkpt>
      <trkpt lat="46.25351" lon="-1.0429">
        <ele>3.7</ele>
        <time>2020-06-02T10:35:19Z</time>
      </trkpt>
      <trkpt lat="46.25356" lon="-1.04289">
        <ele>3.7</ele>
        <time>2020-06-02T10:35:20Z</time>
      </trkpt>
      <trkpt lat="46.25361" lon="-1.04287">
        <ele>3.7</ele>
        <time>2020-06-02T10:35:21Z</time>
      </trkpt>
      <trkpt lat="46.25367" lon="-1.04285">
        <ele>3.7</ele>
        <time>2020-06-02T10:35:22Z</time>
      </trkpt>
      <trkpt lat="46.25372" lon="-1.04282">
        <ele>3.7</ele>
        <time>2020-06-02T10:35:23Z</time>
      </trkpt>
      <trkpt lat="46.25376" lon="-1.0428">
        <ele>3.7</ele>
        <time>2020-06-02T10:35:24Z</time>
      </trkpt>
      <trkpt lat="46.25381" lon="-1.04278">
        <ele>3.7</ele>
        <time>2020-06-02T10:35:25Z</time>
      </trkpt>
      <trkpt lat="46.25386" lon="-1.04276">
        <ele>3.7</ele>
        <time>2020-06-02T10:35:26Z</time>
      </trkpt>
      <trkpt lat="46.2539" lon="-1.04274">
        <ele>3.7</ele>
        <time>2020-06-02T10:35:27Z</time>
      </trkpt>
      <trkpt lat="46.25395" lon="-1.04272">
        <ele>3.7</ele>
        <time>2020-06-02T10:35:28Z</time>
      </trkpt>
      <trkpt lat="46.254" lon="-1.0427">
        <ele>3.7</ele>
        <time>2020-06-02T10:35:29Z</time>
      </trkpt>
      <trkpt lat="46.25405" lon="-1.04268">
        <ele>3.7</ele>
        <time>2020-06-02T10:35:30Z</time>
      </trkpt>
      <trkpt lat="46.2541" lon="-1.04266">
        <ele>3.7</ele>
        <time>2020-06-02T10:35:31Z</time>
      </trkpt>
      <trkpt lat="46.25415" lon="-1.04263">
        <ele>3.7</ele>
        <time>2020-06-02T10:35:32Z</time>
      </trkpt>
      <trkpt lat="46.25421" lon="-1.04261">
        <ele>3.7</ele>
        <time>2020-06-02T10:35:33Z</time>
      </trkpt>
      <trkpt lat="46.25427" lon="-1.04258">
        <ele>3.7</ele>
        <time>2020-06-02T10:35:34Z</time>
      </trkpt>
      <trkpt lat="46.25433" lon="-1.04256">
        <ele>3.7</ele>
        <time>2020-06-02T10:35:35Z</time>
      </trkpt>
      <trkpt lat="46.25438" lon="-1.04253">
        <ele>3.7</ele>
        <time>2020-06-02T10:35:36Z</time>
      </trkpt>
      <trkpt lat="46.25444" lon="-1.04251">
        <ele>3.7</ele>
        <time>2020-06-02T10:35:37Z</time>
      </trkpt>
      <trkpt lat="46.25449" lon="-1.04249">
        <ele>3.7</ele>
        <time>2020-06-02T10:35:38Z</time>
      </trkpt>
      <trkpt lat="46.25455" lon="-1.04247">
        <ele>3.7</ele>
        <time>2020-06-02T10:35:39Z</time>
      </trkpt>
      <trkpt lat="46.25461" lon="-1.04244">
        <ele>3.7</ele>
        <time>2020-06-02T10:35:40Z</time>
      </trkpt>
      <trkpt lat="46.25466" lon="-1.04242">
        <ele>3.7</ele>
        <time>2020-06-02T10:35:41Z</time>
      </trkpt>
      <trkpt lat="46.25471" lon="-1.04239">
        <ele>3.7</ele>
        <time>2020-06-02T10:35:42Z</time>
      </trkpt>
      <trkpt lat="46.25476" lon="-1.04237">
        <ele>3.7</ele>
        <time>2020-06-02T10:35:43Z</time>
      </trkpt>
      <trkpt lat="46.25483" lon="-1.04235">
        <ele>3.7</ele>
        <time>2020-06-02T10:35:44Z</time>
      </trkpt>
      <trkpt lat="46.25489" lon="-1.04234">
        <ele>3.7</ele>
        <time>2020-06-02T10:35:45Z</time>
      </trkpt>
      <trkpt lat="46.25494" lon="-1.04232">
        <ele>3.7</ele>
        <time>2020-06-02T10:35:46Z</time>
      </trkpt>
      <trkpt lat="46.25499" lon="-1.04231">
        <ele>3.7</ele>
        <time>2020-06-02T10:35:47Z</time>
      </trkpt>
      <trkpt lat="46.25504" lon="-1.04228">
        <ele>3.7</ele>
        <time>2020-06-02T10:35:48Z</time>
      </trkpt>
      <trkpt lat="46.25509" lon="-1.04226">
        <ele>3.7</ele>
        <time>2020-06-02T10:35:49Z</time>
      </trkpt>
      <trkpt lat="46.25512" lon="-1.04224">
        <ele>3.7</ele>
        <time>2020-06-02T10:35:50Z</time>
      </trkpt>
      <trkpt lat="46.25518" lon="-1.04222">
        <ele>3.7</ele>
        <time>2020-06-02T10:35:51Z</time>
      </trkpt>
      <trkpt lat="46.25524" lon="-1.0422">
        <ele>3.7</ele>
        <time>2020-06-02T10:35:52Z</time>
      </trkpt>
      <trkpt lat="46.2553" lon="-1.04218">
        <ele>3.7</ele>
        <time>2020-06-02T10:35:53Z</time>
      </trkpt>
      <trkpt lat="46.25534" lon="-1.04217">
        <ele>3.7</ele>
        <time>2020-06-02T10:35:54Z</time>
      </trkpt>
      <trkpt lat="46.2554" lon="-1.04215">
        <ele>3.7</ele>
        <time>2020-06-02T10:35:55Z</time>
      </trkpt>
      <trkpt lat="46.25545" lon="-1.04213">
        <ele>3.7</ele>
        <time>2020-06-02T10:35:56Z</time>
      </trkpt>
      <trkpt lat="46.2555" lon="-1.04211">
        <ele>3.7</ele>
        <time>2020-06-02T10:35:57Z</time>
      </trkpt>
      <trkpt lat="46.25556" lon="-1.04209">
        <ele>3.7</ele>
        <time>2020-06-02T10:35:58Z</time>
      </trkpt>
      <trkpt lat="46.25561" lon="-1.04208">
        <ele>3.7</ele>
        <time>2020-06-02T10:35:59Z</time>
      </trkpt>
      <trkpt lat="46.25566" lon="-1.04206">
        <ele>3.7</ele>
        <time>2020-06-02T10:36:00Z</time>
      </trkpt>
      <trkpt lat="46.25571" lon="-1.04204">
        <ele>3.7</ele>
        <time>2020-06-02T10:36:01Z</time>
      </trkpt>
      <trkpt lat="46.25576" lon="-1.04202">
        <ele>3.8</ele>
        <time>2020-06-02T10:36:02Z</time>
      </trkpt>
      <trkpt lat="46.25581" lon="-1.042">
        <ele>3.8</ele>
        <time>2020-06-02T10:36:03Z</time>
      </trkpt>
      <trkpt lat="46.25585" lon="-1.04199">
        <ele>3.8</ele>
        <time>2020-06-02T10:36:04Z</time>
      </trkpt>
      <trkpt lat="46.2559" lon="-1.04197">
        <ele>3.8</ele>
        <time>2020-06-02T10:36:05Z</time>
      </trkpt>
      <trkpt lat="46.25595" lon="-1.04195">
        <ele>3.8</ele>
        <time>2020-06-02T10:36:06Z</time>
      </trkpt>
      <trkpt lat="46.25601" lon="-1.04193">
        <ele>3.8</ele>
        <time>2020-06-02T10:36:07Z</time>
      </trkpt>
      <trkpt lat="46.25606" lon="-1.04191">
        <ele>3.8</ele>
        <time>2020-06-02T10:36:08Z</time>
      </trkpt>
      <trkpt lat="46.25611" lon="-1.04189">
        <ele>3.8</ele>
        <time>2020-06-02T10:36:09Z</time>
      </trkpt>
      <trkpt lat="46.25615" lon="-1.04188">
        <ele>3.8</ele>
        <time>2020-06-02T10:36:10Z</time>
      </trkpt>
      <trkpt lat="46.25621" lon="-1.04185">
        <ele>3.8</ele>
        <time>2020-06-02T10:36:11Z</time>
      </trkpt>
      <trkpt lat="46.25626" lon="-1.04183">
        <ele>3.8</ele>
        <time>2020-06-02T10:36:12Z</time>
      </trkpt>
      <trkpt lat="46.25631" lon="-1.04181">
        <ele>3.8</ele>
        <time>2020-06-02T10:36:13Z</time>
      </trkpt>
      <trkpt lat="46.25636" lon="-1.04181">
        <ele>3.8</ele>
        <time>2020-06-02T10:36:14Z</time>
      </trkpt>
      <trkpt lat="46.2564" lon="-1.04179">
        <ele>3.8</ele>
        <time>2020-06-02T10:36:15Z</time>
      </trkpt>
      <trkpt lat="46.25644" lon="-1.04178">
        <ele>3.8</ele>
        <time>2020-06-02T10:36:16Z</time>
      </trkpt>
      <trkpt lat="46.25649" lon="-1.04176">
        <ele>3.8</ele>
        <time>2020-06-02T10:36:17Z</time>
      </trkpt>
      <trkpt lat="46.25653" lon="-1.04175">
        <ele>3.8</ele>
        <time>2020-06-02T10:36:18Z</time>
      </trkpt>
      <trkpt lat="46.25657" lon="-1.04173">
        <ele>3.8</ele>
        <time>2020-06-02T10:36:19Z</time>
      </trkpt>
      <trkpt lat="46.25662" lon="-1.04171">
        <ele>3.8</ele>
        <time>2020-06-02T10:36:20Z</time>
      </trkpt>
      <trkpt lat="46.25667" lon="-1.04168">
        <ele>3.8</ele>
        <time>2020-06-02T10:36:21Z</time>
      </trkpt>
      <trkpt lat="46.25672" lon="-1.04166">
        <ele>3.8</ele>
        <time>2020-06-02T10:36:22Z</time>
      </trkpt>
      <trkpt lat="46.25678" lon="-1.04163">
        <ele>3.8</ele>
        <time>2020-06-02T10:36:23Z</time>
      </trkpt>
      <trkpt lat="46.25683" lon="-1.04161">
        <ele>3.8</ele>
        <time>2020-06-02T10:36:24Z</time>
      </trkpt>
      <trkpt lat="46.25689" lon="-1.04158">
        <ele>3.8</ele>
        <time>2020-06-02T10:36:25Z</time>
      </trkpt>
      <trkpt lat="46.25695" lon="-1.04156">
        <ele>3.8</ele>
        <time>2020-06-02T10:36:26Z</time>
      </trkpt>
      <trkpt lat="46.257" lon="-1.04153">
        <ele>3.8</ele>
        <time>2020-06-02T10:36:27Z</time>
      </trkpt>
      <trkpt lat="46.25705" lon="-1.0415">
        <ele>3.8</ele>
        <time>2020-06-02T10:36:28Z</time>
      </trkpt>
      <trkpt lat="46.25711" lon="-1.04148">
        <ele>3.8</ele>
        <time>2020-06-02T10:36:29Z</time>
      </trkpt>
      <trkpt lat="46.25716" lon="-1.04146">
        <ele>3.8</ele>
        <time>2020-06-02T10:36:30Z</time>
      </trkpt>
      <trkpt lat="46.25721" lon="-1.04145">
        <ele>3.8</ele>
        <time>2020-06-02T10:36:31Z</time>
      </trkpt>
      <trkpt lat="46.25727" lon="-1.04143">
        <ele>3.8</ele>
        <time>2020-06-02T10:36:32Z</time>
      </trkpt>
      <trkpt lat="46.25733" lon="-1.0414">
        <ele>3.8</ele>
        <time>2020-06-02T10:36:33Z</time>
      </trkpt>
      <trkpt lat="46.25738" lon="-1.04138">
        <ele>3.8</ele>
        <time>2020-06-02T10:36:34Z</time>
      </trkpt>
      <trkpt lat="46.25744" lon="-1.04136">
        <ele>3.8</ele>
        <time>2020-06-02T10:36:35Z</time>
      </trkpt>
      <trkpt lat="46.25749" lon="-1.04134">
        <ele>3.8</ele>
        <time>2020-06-02T10:36:36Z</time>
      </trkpt>
      <trkpt lat="46.25754" lon="-1.04133">
        <ele>3.8</ele>
        <time>2020-06-02T10:36:37Z</time>
      </trkpt>
      <trkpt lat="46.25759" lon="-1.04131">
        <ele>3.8</ele>
        <time>2020-06-02T10:36:38Z</time>
      </trkpt>
      <trkpt lat="46.25763" lon="-1.0413">
        <ele>3.8</ele>
        <time>2020-06-02T10:36:39Z</time>
      </trkpt>
      <trkpt lat="46.25768" lon="-1.04129">
        <ele>3.8</ele>
        <time>2020-06-02T10:36:40Z</time>
      </trkpt>
      <trkpt lat="46.25772" lon="-1.04127">
        <ele>3.8</ele>
        <time>2020-06-02T10:36:41Z</time>
      </trkpt>
      <trkpt lat="46.25777" lon="-1.04126">
        <ele>3.8</ele>
        <time>2020-06-02T10:36:42Z</time>
      </trkpt>
      <trkpt lat="46.25782" lon="-1.04124">
        <ele>3.8</ele>
        <time>2020-06-02T10:36:43Z</time>
      </trkpt>
      <trkpt lat="46.25787" lon="-1.04122">
        <ele>3.8</ele>
        <time>2020-06-02T10:36:44Z</time>
      </trkpt>
      <trkpt lat="46.25792" lon="-1.04121">
        <ele>3.8</ele>
        <time>2020-06-02T10:36:45Z</time>
      </trkpt>
      <trkpt lat="46.25799" lon="-1.0412">
        <ele>3.8</ele>
        <time>2020-06-02T10:36:46Z</time>
      </trkpt>
      <trkpt lat="46.25805" lon="-1.04118">
        <ele>3.7</ele>
        <time>2020-06-02T10:36:47Z</time>
      </trkpt>
      <trkpt lat="46.25811" lon="-1.04116">
        <ele>3.7</ele>
        <time>2020-06-02T10:36:48Z</time>
      </trkpt>
      <trkpt lat="46.25816" lon="-1.04114">
        <ele>3.7</ele>
        <time>2020-06-02T10:36:49Z</time>
      </trkpt>
      <trkpt lat="46.25821" lon="-1.04113">
        <ele>3.7</ele>
        <time>2020-06-02T10:36:50Z</time>
      </trkpt>
      <trkpt lat="46.25827" lon="-1.04111">
        <ele>3.7</ele>
        <time>2020-06-02T10:36:51Z</time>
      </trkpt>
      <trkpt lat="46.25832" lon="-1.04109">
        <ele>3.7</ele>
        <time>2020-06-02T10:36:52Z</time>
      </trkpt>
      <trkpt lat="46.25838" lon="-1.04107">
        <ele>3.7</ele>
        <time>2020-06-02T10:36:53Z</time>
      </trkpt>
      <trkpt lat="46.25844" lon="-1.04105">
        <ele>3.7</ele>
        <time>2020-06-02T10:36:54Z</time>
      </trkpt>
      <trkpt lat="46.2585" lon="-1.04103">
        <ele>3.7</ele>
        <time>2020-06-02T10:36:55Z</time>
      </trkpt>
      <trkpt lat="46.25855" lon="-1.04101">
        <ele>3.6</ele>
        <time>2020-06-02T10:36:56Z</time>
      </trkpt>
      <trkpt lat="46.25861" lon="-1.04099">
        <ele>3.6</ele>
        <time>2020-06-02T10:36:57Z</time>
      </trkpt>
      <trkpt lat="46.25868" lon="-1.04097">
        <ele>3.6</ele>
        <time>2020-06-02T10:36:58Z</time>
      </trkpt>
      <trkpt lat="46.25872" lon="-1.04096">
        <ele>3.5</ele>
        <time>2020-06-02T10:36:59Z</time>
      </trkpt>
      <trkpt lat="46.25879" lon="-1.04093">
        <ele>3.5</ele>
        <time>2020-06-02T10:37:00Z</time>
      </trkpt>
      <trkpt lat="46.25885" lon="-1.04091">
        <ele>3.5</ele>
        <time>2020-06-02T10:37:01Z</time>
      </trkpt>
      <trkpt lat="46.25891" lon="-1.04089">
        <ele>3.5</ele>
        <time>2020-06-02T10:37:02Z</time>
      </trkpt>
      <trkpt lat="46.25897" lon="-1.04087">
        <ele>3.5</ele>
        <time>2020-06-02T10:37:03Z</time>
      </trkpt>
      <trkpt lat="46.25904" lon="-1.04085">
        <ele>3.4</ele>
        <time>2020-06-02T10:37:04Z</time>
      </trkpt>
      <trkpt lat="46.25909" lon="-1.04083">
        <ele>3.4</ele>
        <time>2020-06-02T10:37:05Z</time>
      </trkpt>
      <trkpt lat="46.25916" lon="-1.04081">
        <ele>3.4</ele>
        <time>2020-06-02T10:37:06Z</time>
      </trkpt>
      <trkpt lat="46.25921" lon="-1.0408">
        <ele>3.4</ele>
        <time>2020-06-02T10:37:07Z</time>
      </trkpt>
      <trkpt lat="46.25925" lon="-1.04079">
        <ele>3.4</ele>
        <time>2020-06-02T10:37:08Z</time>
      </trkpt>
      <trkpt lat="46.25932" lon="-1.04076">
        <ele>3.3</ele>
        <time>2020-06-02T10:37:09Z</time>
      </trkpt>
      <trkpt lat="46.25938" lon="-1.04074">
        <ele>3.3</ele>
        <time>2020-06-02T10:37:10Z</time>
      </trkpt>
      <trkpt lat="46.25944" lon="-1.04071">
        <ele>3.3</ele>
        <time>2020-06-02T10:37:11Z</time>
      </trkpt>
      <trkpt lat="46.2595" lon="-1.04068">
        <ele>3.3</ele>
        <time>2020-06-02T10:37:12Z</time>
      </trkpt>
      <trkpt lat="46.25954" lon="-1.04067">
        <ele>3.3</ele>
        <time>2020-06-02T10:37:13Z</time>
      </trkpt>
      <trkpt lat="46.2596" lon="-1.04065">
        <ele>3.3</ele>
        <time>2020-06-02T10:37:14Z</time>
      </trkpt>
      <trkpt lat="46.25966" lon="-1.04063">
        <ele>3.2</ele>
        <time>2020-06-02T10:37:15Z</time>
      </trkpt>
      <trkpt lat="46.25972" lon="-1.0406">
        <ele>3.2</ele>
        <time>2020-06-02T10:37:16Z</time>
      </trkpt>
      <trkpt lat="46.25979" lon="-1.04058">
        <ele>3.2</ele>
        <time>2020-06-02T10:37:17Z</time>
      </trkpt>
      <trkpt lat="46.25984" lon="-1.04055">
        <ele>3.2</ele>
        <time>2020-06-02T10:37:18Z</time>
      </trkpt>
      <trkpt lat="46.2599" lon="-1.04053">
        <ele>3.2</ele>
        <time>2020-06-02T10:37:19Z</time>
      </trkpt>
      <trkpt lat="46.25995" lon="-1.04051">
        <ele>3.2</ele>
        <time>2020-06-02T10:37:20Z</time>
      </trkpt>
      <trkpt lat="46.26" lon="-1.04049">
        <ele>3.2</ele>
        <time>2020-06-02T10:37:21Z</time>
      </trkpt>
      <trkpt lat="46.26005" lon="-1.04047">
        <ele>3.2</ele>
        <time>2020-06-02T10:37:22Z</time>
      </trkpt>
      <trkpt lat="46.26011" lon="-1.04046">
        <ele>3.2</ele>
        <time>2020-06-02T10:37:23Z</time>
      </trkpt>
      <trkpt lat="46.26017" lon="-1.04044">
        <ele>3.2</ele>
        <time>2020-06-02T10:37:24Z</time>
      </trkpt>
      <trkpt lat="46.26023" lon="-1.0404">
        <ele>3.2</ele>
        <time>2020-06-02T10:37:25Z</time>
      </trkpt>
      <trkpt lat="46.26028" lon="-1.04038">
        <ele>3.2</ele>
        <time>2020-06-02T10:37:26Z</time>
      </trkpt>
      <trkpt lat="46.26033" lon="-1.04036">
        <ele>3.2</ele>
        <time>2020-06-02T10:37:27Z</time>
      </trkpt>
      <trkpt lat="46.26038" lon="-1.04035">
        <ele>3.2</ele>
        <time>2020-06-02T10:37:28Z</time>
      </trkpt>
      <trkpt lat="46.26043" lon="-1.04032">
        <ele>3.2</ele>
        <time>2020-06-02T10:37:29Z</time>
      </trkpt>
      <trkpt lat="46.26049" lon="-1.0403">
        <ele>3.3</ele>
        <time>2020-06-02T10:37:30Z</time>
      </trkpt>
      <trkpt lat="46.26055" lon="-1.04028">
        <ele>3.3</ele>
        <time>2020-06-02T10:37:31Z</time>
      </trkpt>
      <trkpt lat="46.2606" lon="-1.04026">
        <ele>3.3</ele>
        <time>2020-06-02T10:37:32Z</time>
      </trkpt>
      <trkpt lat="46.26065" lon="-1.04024">
        <ele>3.3</ele>
        <time>2020-06-02T10:37:33Z</time>
      </trkpt>
      <trkpt lat="46.26071" lon="-1.04022">
        <ele>3.3</ele>
        <time>2020-06-02T10:37:34Z</time>
      </trkpt>
      <trkpt lat="46.26076" lon="-1.04021">
        <ele>3.4</ele>
        <time>2020-06-02T10:37:35Z</time>
      </trkpt>
      <trkpt lat="46.26081" lon="-1.04019">
        <ele>3.4</ele>
        <time>2020-06-02T10:37:36Z</time>
      </trkpt>
      <trkpt lat="46.26086" lon="-1.04017">
        <ele>3.3</ele>
        <time>2020-06-02T10:37:37Z</time>
      </trkpt>
      <trkpt lat="46.26092" lon="-1.04014">
        <ele>3.3</ele>
        <time>2020-06-02T10:37:38Z</time>
      </trkpt>
      <trkpt lat="46.26097" lon="-1.04012">
        <ele>3.3</ele>
        <time>2020-06-02T10:37:39Z</time>
      </trkpt>
      <trkpt lat="46.26103" lon="-1.0401">
        <ele>3.3</ele>
        <time>2020-06-02T10:37:40Z</time>
      </trkpt>
      <trkpt lat="46.26107" lon="-1.04008">
        <ele>3.3</ele>
        <time>2020-06-02T10:37:41Z</time>
      </trkpt>
      <trkpt lat="46.26112" lon="-1.04005">
        <ele>3.3</ele>
        <time>2020-06-02T10:37:42Z</time>
      </trkpt>
      <trkpt lat="46.26117" lon="-1.04002">
        <ele>3.3</ele>
        <time>2020-06-02T10:37:43Z</time>
      </trkpt>
      <trkpt lat="46.26121" lon="-1.03999">
        <ele>3.3</ele>
        <time>2020-06-02T10:37:44Z</time>
      </trkpt>
      <trkpt lat="46.26127" lon="-1.03997">
        <ele>3.3</ele>
        <time>2020-06-02T10:37:45Z</time>
      </trkpt>
      <trkpt lat="46.26132" lon="-1.03996">
        <ele>3.2</ele>
        <time>2020-06-02T10:37:46Z</time>
      </trkpt>
      <trkpt lat="46.26136" lon="-1.03995">
        <ele>3.2</ele>
        <time>2020-06-02T10:37:47Z</time>
      </trkpt>
      <trkpt lat="46.26141" lon="-1.03994">
        <ele>3.2</ele>
        <time>2020-06-02T10:37:48Z</time>
      </trkpt>
      <trkpt lat="46.26147" lon="-1.03994">
        <ele>3.2</ele>
        <time>2020-06-02T10:37:49Z</time>
      </trkpt>
      <trkpt lat="46.26153" lon="-1.03993">
        <ele>3.1</ele>
        <time>2020-06-02T10:37:50Z</time>
      </trkpt>
      <trkpt lat="46.26159" lon="-1.03992">
        <ele>3.1</ele>
        <time>2020-06-02T10:37:51Z</time>
      </trkpt>
      <trkpt lat="46.26165" lon="-1.03991">
        <ele>3.1</ele>
        <time>2020-06-02T10:37:52Z</time>
      </trkpt>
      <trkpt lat="46.2617" lon="-1.03989">
        <ele>3</ele>
        <time>2020-06-02T10:37:53Z</time>
      </trkpt>
      <trkpt lat="46.26176" lon="-1.03987">
        <ele>3</ele>
        <time>2020-06-02T10:37:54Z</time>
      </trkpt>
      <trkpt lat="46.26182" lon="-1.03985">
        <ele>3</ele>
        <time>2020-06-02T10:37:55Z</time>
      </trkpt>
      <trkpt lat="46.26187" lon="-1.03983">
        <ele>3</ele>
        <time>2020-06-02T10:37:56Z</time>
      </trkpt>
      <trkpt lat="46.26193" lon="-1.03982">
        <ele>3</ele>
        <time>2020-06-02T10:37:57Z</time>
      </trkpt>
      <trkpt lat="46.26198" lon="-1.0398">
        <ele>3</ele>
        <time>2020-06-02T10:37:58Z</time>
      </trkpt>
      <trkpt lat="46.26203" lon="-1.03978">
        <ele>3</ele>
        <time>2020-06-02T10:37:59Z</time>
      </trkpt>
      <trkpt lat="46.26208" lon="-1.03976">
        <ele>3</ele>
        <time>2020-06-02T10:38:00Z</time>
      </trkpt>
      <trkpt lat="46.26214" lon="-1.03974">
        <ele>3</ele>
        <time>2020-06-02T10:38:01Z</time>
      </trkpt>
      <trkpt lat="46.26219" lon="-1.03973">
        <ele>3</ele>
        <time>2020-06-02T10:38:02Z</time>
      </trkpt>
      <trkpt lat="46.26224" lon="-1.03971">
        <ele>2.9</ele>
        <time>2020-06-02T10:38:03Z</time>
      </trkpt>
      <trkpt lat="46.2623" lon="-1.03969">
        <ele>2.9</ele>
        <time>2020-06-02T10:38:04Z</time>
      </trkpt>
      <trkpt lat="46.26237" lon="-1.03967">
        <ele>2.9</ele>
        <time>2020-06-02T10:38:05Z</time>
      </trkpt>
      <trkpt lat="46.26243" lon="-1.03965">
        <ele>2.9</ele>
        <time>2020-06-02T10:38:06Z</time>
      </trkpt>
      <trkpt lat="46.26249" lon="-1.03964">
        <ele>2.9</ele>
        <time>2020-06-02T10:38:07Z</time>
      </trkpt>
      <trkpt lat="46.26254" lon="-1.03961">
        <ele>2.9</ele>
        <time>2020-06-02T10:38:08Z</time>
      </trkpt>
      <trkpt lat="46.2626" lon="-1.03959">
        <ele>2.9</ele>
        <time>2020-06-02T10:38:09Z</time>
      </trkpt>
      <trkpt lat="46.26264" lon="-1.03957">
        <ele>3</ele>
        <time>2020-06-02T10:38:10Z</time>
      </trkpt>
      <trkpt lat="46.26269" lon="-1.03956">
        <ele>3</ele>
        <time>2020-06-02T10:38:11Z</time>
      </trkpt>
      <trkpt lat="46.26275" lon="-1.03954">
        <ele>3</ele>
        <time>2020-06-02T10:38:12Z</time>
      </trkpt>
      <trkpt lat="46.2628" lon="-1.03953">
        <ele>3</ele>
        <time>2020-06-02T10:38:13Z</time>
      </trkpt>
      <trkpt lat="46.26286" lon="-1.0395">
        <ele>3</ele>
        <time>2020-06-02T10:38:14Z</time>
      </trkpt>
      <trkpt lat="46.26291" lon="-1.03949">
        <ele>3</ele>
        <time>2020-06-02T10:38:15Z</time>
      </trkpt>
      <trkpt lat="46.26298" lon="-1.03947">
        <ele>3</ele>
        <time>2020-06-02T10:38:16Z</time>
      </trkpt>
      <trkpt lat="46.26303" lon="-1.03945">
        <ele>3</ele>
        <time>2020-06-02T10:38:17Z</time>
      </trkpt>
      <trkpt lat="46.26309" lon="-1.03942">
        <ele>3</ele>
        <time>2020-06-02T10:38:18Z</time>
      </trkpt>
      <trkpt lat="46.26314" lon="-1.03939">
        <ele>3</ele>
        <time>2020-06-02T10:38:19Z</time>
      </trkpt>
      <trkpt lat="46.26318" lon="-1.03938">
        <ele>2.9</ele>
        <time>2020-06-02T10:38:20Z</time>
      </trkpt>
      <trkpt lat="46.26323" lon="-1.03936">
        <ele>2.9</ele>
        <time>2020-06-02T10:38:21Z</time>
      </trkpt>
      <trkpt lat="46.26328" lon="-1.03934">
        <ele>2.9</ele>
        <time>2020-06-02T10:38:22Z</time>
      </trkpt>
      <trkpt lat="46.26333" lon="-1.03932">
        <ele>2.9</ele>
        <time>2020-06-02T10:38:23Z</time>
      </trkpt>
      <trkpt lat="46.2634" lon="-1.0393">
        <ele>2.9</ele>
        <time>2020-06-02T10:38:24Z</time>
      </trkpt>
      <trkpt lat="46.26346" lon="-1.03927">
        <ele>2.9</ele>
        <time>2020-06-02T10:38:25Z</time>
      </trkpt>
      <trkpt lat="46.26352" lon="-1.03925">
        <ele>2.9</ele>
        <time>2020-06-02T10:38:26Z</time>
      </trkpt>
      <trkpt lat="46.26358" lon="-1.03923">
        <ele>2.9</ele>
        <time>2020-06-02T10:38:27Z</time>
      </trkpt>
      <trkpt lat="46.26361" lon="-1.03921">
        <ele>2.9</ele>
        <time>2020-06-02T10:38:28Z</time>
      </trkpt>
      <trkpt lat="46.26366" lon="-1.03919">
        <ele>2.9</ele>
        <time>2020-06-02T10:38:29Z</time>
      </trkpt>
      <trkpt lat="46.26372" lon="-1.03916">
        <ele>2.9</ele>
        <time>2020-06-02T10:38:30Z</time>
      </trkpt>
      <trkpt lat="46.26378" lon="-1.03915">
        <ele>2.9</ele>
        <time>2020-06-02T10:38:31Z</time>
      </trkpt>
      <trkpt lat="46.26383" lon="-1.03913">
        <ele>2.9</ele>
        <time>2020-06-02T10:38:32Z</time>
      </trkpt>
      <trkpt lat="46.26389" lon="-1.0391">
        <ele>3</ele>
        <time>2020-06-02T10:38:33Z</time>
      </trkpt>
      <trkpt lat="46.26395" lon="-1.03907">
        <ele>3</ele>
        <time>2020-06-02T10:38:34Z</time>
      </trkpt>
      <trkpt lat="46.264" lon="-1.03905">
        <ele>3</ele>
        <time>2020-06-02T10:38:35Z</time>
      </trkpt>
      <trkpt lat="46.26406" lon="-1.03903">
        <ele>3</ele>
        <time>2020-06-02T10:38:36Z</time>
      </trkpt>
      <trkpt lat="46.26412" lon="-1.03901">
        <ele>3</ele>
        <time>2020-06-02T10:38:37Z</time>
      </trkpt>
      <trkpt lat="46.26417" lon="-1.03899">
        <ele>3</ele>
        <time>2020-06-02T10:38:38Z</time>
      </trkpt>
      <trkpt lat="46.26423" lon="-1.03897">
        <ele>3</ele>
        <time>2020-06-02T10:38:39Z</time>
      </trkpt>
      <trkpt lat="46.26428" lon="-1.03895">
        <ele>3</ele>
        <time>2020-06-02T10:38:40Z</time>
      </trkpt>
      <trkpt lat="46.26435" lon="-1.03892">
        <ele>3</ele>
        <time>2020-06-02T10:38:41Z</time>
      </trkpt>
      <trkpt lat="46.2644" lon="-1.0389">
        <ele>3</ele>
        <time>2020-06-02T10:38:42Z</time>
      </trkpt>
      <trkpt lat="46.26446" lon="-1.03888">
        <ele>3</ele>
        <time>2020-06-02T10:38:43Z</time>
      </trkpt>
      <trkpt lat="46.26452" lon="-1.03885">
        <ele>3</ele>
        <time>2020-06-02T10:38:44Z</time>
      </trkpt>
      <trkpt lat="46.26458" lon="-1.03883">
        <ele>3</ele>
        <time>2020-06-02T10:38:45Z</time>
      </trkpt>
      <trkpt lat="46.26464" lon="-1.03881">
        <ele>3</ele>
        <time>2020-06-02T10:38:46Z</time>
      </trkpt>
      <trkpt lat="46.26468" lon="-1.03879">
        <ele>3</ele>
        <time>2020-06-02T10:38:47Z</time>
      </trkpt>
      <trkpt lat="46.26473" lon="-1.03877">
        <ele>3</ele>
        <time>2020-06-02T10:38:48Z</time>
      </trkpt>
      <trkpt lat="46.26479" lon="-1.03875">
        <ele>3</ele>
        <time>2020-06-02T10:38:49Z</time>
      </trkpt>
      <trkpt lat="46.26483" lon="-1.03873">
        <ele>3</ele>
        <time>2020-06-02T10:38:50Z</time>
      </trkpt>
      <trkpt lat="46.26489" lon="-1.03871">
        <ele>3</ele>
        <time>2020-06-02T10:38:51Z</time>
      </trkpt>
      <trkpt lat="46.26494" lon="-1.03868">
        <ele>3</ele>
        <time>2020-06-02T10:38:52Z</time>
      </trkpt>
      <trkpt lat="46.26499" lon="-1.03866">
        <ele>3</ele>
        <time>2020-06-02T10:38:53Z</time>
      </trkpt>
      <trkpt lat="46.26503" lon="-1.03865">
        <ele>3</ele>
        <time>2020-06-02T10:38:54Z</time>
      </trkpt>
      <trkpt lat="46.26508" lon="-1.03863">
        <ele>3</ele>
        <time>2020-06-02T10:38:55Z</time>
      </trkpt>
      <trkpt lat="46.26514" lon="-1.0386">
        <ele>3</ele>
        <time>2020-06-02T10:38:56Z</time>
      </trkpt>
      <trkpt lat="46.26519" lon="-1.03858">
        <ele>3</ele>
        <time>2020-06-02T10:38:57Z</time>
      </trkpt>
      <trkpt lat="46.26525" lon="-1.03856">
        <ele>3</ele>
        <time>2020-06-02T10:38:58Z</time>
      </trkpt>
      <trkpt lat="46.2653" lon="-1.03854">
        <ele>3</ele>
        <time>2020-06-02T10:38:59Z</time>
      </trkpt>
      <trkpt lat="46.26536" lon="-1.03852">
        <ele>3</ele>
        <time>2020-06-02T10:39:00Z</time>
      </trkpt>
      <trkpt lat="46.26542" lon="-1.03849">
        <ele>3</ele>
        <time>2020-06-02T10:39:01Z</time>
      </trkpt>
      <trkpt lat="46.26548" lon="-1.03847">
        <ele>2.9</ele>
        <time>2020-06-02T10:39:02Z</time>
      </trkpt>
      <trkpt lat="46.26554" lon="-1.03845">
        <ele>2.9</ele>
        <time>2020-06-02T10:39:03Z</time>
      </trkpt>
      <trkpt lat="46.26559" lon="-1.03843">
        <ele>2.9</ele>
        <time>2020-06-02T10:39:04Z</time>
      </trkpt>
      <trkpt lat="46.26564" lon="-1.03841">
        <ele>2.9</ele>
        <time>2020-06-02T10:39:05Z</time>
      </trkpt>
      <trkpt lat="46.2657" lon="-1.03838">
        <ele>2.9</ele>
        <time>2020-06-02T10:39:06Z</time>
      </trkpt>
      <trkpt lat="46.26575" lon="-1.03836">
        <ele>2.9</ele>
        <time>2020-06-02T10:39:07Z</time>
      </trkpt>
      <trkpt lat="46.2658" lon="-1.03834">
        <ele>2.9</ele>
        <time>2020-06-02T10:39:08Z</time>
      </trkpt>
      <trkpt lat="46.26585" lon="-1.03832">
        <ele>2.9</ele>
        <time>2020-06-02T10:39:09Z</time>
      </trkpt>
      <trkpt lat="46.2659" lon="-1.0383">
        <ele>2.9</ele>
        <time>2020-06-02T10:39:10Z</time>
      </trkpt>
      <trkpt lat="46.26595" lon="-1.03829">
        <ele>2.9</ele>
        <time>2020-06-02T10:39:11Z</time>
      </trkpt>
      <trkpt lat="46.266" lon="-1.03827">
        <ele>2.9</ele>
        <time>2020-06-02T10:39:12Z</time>
      </trkpt>
      <trkpt lat="46.26607" lon="-1.03826">
        <ele>2.9</ele>
        <time>2020-06-02T10:39:13Z</time>
      </trkpt>
      <trkpt lat="46.26613" lon="-1.03824">
        <ele>2.9</ele>
        <time>2020-06-02T10:39:14Z</time>
      </trkpt>
      <trkpt lat="46.26619" lon="-1.03822">
        <ele>2.9</ele>
        <time>2020-06-02T10:39:15Z</time>
      </trkpt>
      <trkpt lat="46.26625" lon="-1.0382">
        <ele>2.9</ele>
        <time>2020-06-02T10:39:16Z</time>
      </trkpt>
      <trkpt lat="46.26631" lon="-1.03818">
        <ele>2.8</ele>
        <time>2020-06-02T10:39:17Z</time>
      </trkpt>
      <trkpt lat="46.26637" lon="-1.03816">
        <ele>2.8</ele>
        <time>2020-06-02T10:39:18Z</time>
      </trkpt>
      <trkpt lat="46.26642" lon="-1.03814">
        <ele>2.8</ele>
        <time>2020-06-02T10:39:19Z</time>
      </trkpt>
      <trkpt lat="46.26648" lon="-1.03812">
        <ele>2.7</ele>
        <time>2020-06-02T10:39:20Z</time>
      </trkpt>
      <trkpt lat="46.26653" lon="-1.0381">
        <ele>2.7</ele>
        <time>2020-06-02T10:39:21Z</time>
      </trkpt>
      <trkpt lat="46.26658" lon="-1.03808">
        <ele>2.7</ele>
        <time>2020-06-02T10:39:22Z</time>
      </trkpt>
      <trkpt lat="46.26661" lon="-1.03805">
        <ele>2.7</ele>
        <time>2020-06-02T10:39:23Z</time>
      </trkpt>
      <trkpt lat="46.26664" lon="-1.03803">
        <ele>2.8</ele>
        <time>2020-06-02T10:39:24Z</time>
      </trkpt>
      <trkpt lat="46.26669" lon="-1.03799">
        <ele>2.8</ele>
        <time>2020-06-02T10:39:25Z</time>
      </trkpt>
      <trkpt lat="46.26674" lon="-1.03797">
        <ele>3</ele>
        <time>2020-06-02T10:39:26Z</time>
      </trkpt>
      <trkpt lat="46.26678" lon="-1.03795">
        <ele>3.1</ele>
        <time>2020-06-02T10:39:27Z</time>
      </trkpt>
      <trkpt lat="46.26682" lon="-1.03794">
        <ele>3.2</ele>
        <time>2020-06-02T10:39:28Z</time>
      </trkpt>
      <trkpt lat="46.26686" lon="-1.03794">
        <ele>3.3</ele>
        <time>2020-06-02T10:39:29Z</time>
      </trkpt>
      <trkpt lat="46.26691" lon="-1.03795">
        <ele>3.3</ele>
        <time>2020-06-02T10:39:30Z</time>
      </trkpt>
      <trkpt lat="46.26697" lon="-1.03797">
        <ele>3.3</ele>
        <time>2020-06-02T10:39:31Z</time>
      </trkpt>
      <trkpt lat="46.26701" lon="-1.03797">
        <ele>3.3</ele>
        <time>2020-06-02T10:39:32Z</time>
      </trkpt>
      <trkpt lat="46.26707" lon="-1.03796">
        <ele>3.3</ele>
        <time>2020-06-02T10:39:33Z</time>
      </trkpt>
      <trkpt lat="46.26712" lon="-1.03794">
        <ele>3.3</ele>
        <time>2020-06-02T10:39:34Z</time>
      </trkpt>
      <trkpt lat="46.26717" lon="-1.03792">
        <ele>3.3</ele>
        <time>2020-06-02T10:39:35Z</time>
      </trkpt>
      <trkpt lat="46.26722" lon="-1.0379">
        <ele>3.3</ele>
        <time>2020-06-02T10:39:36Z</time>
      </trkpt>
      <trkpt lat="46.26727" lon="-1.03788">
        <ele>3.3</ele>
        <time>2020-06-02T10:39:37Z</time>
      </trkpt>
      <trkpt lat="46.26732" lon="-1.03786">
        <ele>3.3</ele>
        <time>2020-06-02T10:39:38Z</time>
      </trkpt>
      <trkpt lat="46.26737" lon="-1.03784">
        <ele>3.3</ele>
        <time>2020-06-02T10:39:39Z</time>
      </trkpt>
      <trkpt lat="46.26743" lon="-1.03781">
        <ele>3.3</ele>
        <time>2020-06-02T10:39:40Z</time>
      </trkpt>
      <trkpt lat="46.26749" lon="-1.03779">
        <ele>3.3</ele>
        <time>2020-06-02T10:39:41Z</time>
      </trkpt>
      <trkpt lat="46.26752" lon="-1.03777">
        <ele>3.3</ele>
        <time>2020-06-02T10:39:42Z</time>
      </trkpt>
      <trkpt lat="46.26757" lon="-1.03775">
        <ele>3.3</ele>
        <time>2020-06-02T10:39:43Z</time>
      </trkpt>
      <trkpt lat="46.26762" lon="-1.03773">
        <ele>3.3</ele>
        <time>2020-06-02T10:39:44Z</time>
      </trkpt>
      <trkpt lat="46.26768" lon="-1.0377">
        <ele>3.3</ele>
        <time>2020-06-02T10:39:45Z</time>
      </trkpt>
      <trkpt lat="46.26774" lon="-1.03767">
        <ele>3.3</ele>
        <time>2020-06-02T10:39:46Z</time>
      </trkpt>
      <trkpt lat="46.2678" lon="-1.03764">
        <ele>3.3</ele>
        <time>2020-06-02T10:39:47Z</time>
      </trkpt>
      <trkpt lat="46.26786" lon="-1.03762">
        <ele>3.3</ele>
        <time>2020-06-02T10:39:48Z</time>
      </trkpt>
      <trkpt lat="46.26791" lon="-1.03761">
        <ele>3.3</ele>
        <time>2020-06-02T10:39:49Z</time>
      </trkpt>
      <trkpt lat="46.26797" lon="-1.03759">
        <ele>3.3</ele>
        <time>2020-06-02T10:39:50Z</time>
      </trkpt>
      <trkpt lat="46.26802" lon="-1.03757">
        <ele>3.3</ele>
        <time>2020-06-02T10:39:51Z</time>
      </trkpt>
      <trkpt lat="46.26807" lon="-1.03754">
        <ele>3.3</ele>
        <time>2020-06-02T10:39:52Z</time>
      </trkpt>
      <trkpt lat="46.26813" lon="-1.03752">
        <ele>3.3</ele>
        <time>2020-06-02T10:39:53Z</time>
      </trkpt>
      <trkpt lat="46.26818" lon="-1.0375">
        <ele>3.3</ele>
        <time>2020-06-02T10:39:54Z</time>
      </trkpt>
      <trkpt lat="46.26823" lon="-1.03748">
        <ele>3.3</ele>
        <time>2020-06-02T10:39:55Z</time>
      </trkpt>
      <trkpt lat="46.26828" lon="-1.03746">
        <ele>3.3</ele>
        <time>2020-06-02T10:39:56Z</time>
      </trkpt>
      <trkpt lat="46.26833" lon="-1.03744">
        <ele>3.3</ele>
        <time>2020-06-02T10:39:57Z</time>
      </trkpt>
      <trkpt lat="46.2684" lon="-1.03742">
        <ele>3.3</ele>
        <time>2020-06-02T10:39:58Z</time>
      </trkpt>
      <trkpt lat="46.26845" lon="-1.03739">
        <ele>3.3</ele>
        <time>2020-06-02T10:39:59Z</time>
      </trkpt>
      <trkpt lat="46.26851" lon="-1.03737">
        <ele>3.3</ele>
        <time>2020-06-02T10:40:00Z</time>
      </trkpt>
      <trkpt lat="46.26857" lon="-1.03735">
        <ele>3.3</ele>
        <time>2020-06-02T10:40:01Z</time>
      </trkpt>
      <trkpt lat="46.26862" lon="-1.03733">
        <ele>3.3</ele>
        <time>2020-06-02T10:40:02Z</time>
      </trkpt>
      <trkpt lat="46.26868" lon="-1.0373">
        <ele>3.3</ele>
        <time>2020-06-02T10:40:03Z</time>
      </trkpt>
      <trkpt lat="46.26874" lon="-1.03728">
        <ele>3.3</ele>
        <time>2020-06-02T10:40:04Z</time>
      </trkpt>
      <trkpt lat="46.26879" lon="-1.03726">
        <ele>3.3</ele>
        <time>2020-06-02T10:40:05Z</time>
      </trkpt>
      <trkpt lat="46.26885" lon="-1.03724">
        <ele>3.3</ele>
        <time>2020-06-02T10:40:06Z</time>
      </trkpt>
      <trkpt lat="46.26891" lon="-1.03721">
        <ele>3.3</ele>
        <time>2020-06-02T10:40:07Z</time>
      </trkpt>
      <trkpt lat="46.26897" lon="-1.03719">
        <ele>3.3</ele>
        <time>2020-06-02T10:40:08Z</time>
      </trkpt>
      <trkpt lat="46.26903" lon="-1.03717">
        <ele>3.3</ele>
        <time>2020-06-02T10:40:09Z</time>
      </trkpt>
      <trkpt lat="46.26908" lon="-1.03715">
        <ele>3.3</ele>
        <time>2020-06-02T10:40:10Z</time>
      </trkpt>
      <trkpt lat="46.26913" lon="-1.03713">
        <ele>3.3</ele>
        <time>2020-06-02T10:40:11Z</time>
      </trkpt>
      <trkpt lat="46.26918" lon="-1.03711">
        <ele>3.3</ele>
        <time>2020-06-02T10:40:12Z</time>
      </trkpt>
      <trkpt lat="46.26923" lon="-1.03709">
        <ele>3.3</ele>
        <time>2020-06-02T10:40:13Z</time>
      </trkpt>
      <trkpt lat="46.26928" lon="-1.03707">
        <ele>3.3</ele>
        <time>2020-06-02T10:40:14Z</time>
      </trkpt>
      <trkpt lat="46.26933" lon="-1.03705">
        <ele>3.3</ele>
        <time>2020-06-02T10:40:15Z</time>
      </trkpt>
      <trkpt lat="46.26938" lon="-1.03703">
        <ele>3.3</ele>
        <time>2020-06-02T10:40:16Z</time>
      </trkpt>
      <trkpt lat="46.26942" lon="-1.03701">
        <ele>3.3</ele>
        <time>2020-06-02T10:40:17Z</time>
      </trkpt>
      <trkpt lat="46.26948" lon="-1.03699">
        <ele>3.3</ele>
        <time>2020-06-02T10:40:18Z</time>
      </trkpt>
      <trkpt lat="46.26954" lon="-1.03696">
        <ele>3.3</ele>
        <time>2020-06-02T10:40:19Z</time>
      </trkpt>
      <trkpt lat="46.2696" lon="-1.03694">
        <ele>3.3</ele>
        <time>2020-06-02T10:40:20Z</time>
      </trkpt>
      <trkpt lat="46.26965" lon="-1.03693">
        <ele>3.3</ele>
        <time>2020-06-02T10:40:21Z</time>
      </trkpt>
      <trkpt lat="46.2697" lon="-1.0369">
        <ele>3.3</ele>
        <time>2020-06-02T10:40:22Z</time>
      </trkpt>
      <trkpt lat="46.26975" lon="-1.03689">
        <ele>3.3</ele>
        <time>2020-06-02T10:40:23Z</time>
      </trkpt>
      <trkpt lat="46.26979" lon="-1.03687">
        <ele>3.3</ele>
        <time>2020-06-02T10:40:24Z</time>
      </trkpt>
      <trkpt lat="46.26984" lon="-1.03686">
        <ele>3.3</ele>
        <time>2020-06-02T10:40:25Z</time>
      </trkpt>
      <trkpt lat="46.26989" lon="-1.03684">
        <ele>3.3</ele>
        <time>2020-06-02T10:40:26Z</time>
      </trkpt>
      <trkpt lat="46.26994" lon="-1.03682">
        <ele>3.3</ele>
        <time>2020-06-02T10:40:27Z</time>
      </trkpt>
      <trkpt lat="46.26999" lon="-1.0368">
        <ele>3.4</ele>
        <time>2020-06-02T10:40:28Z</time>
      </trkpt>
      <trkpt lat="46.27004" lon="-1.03678">
        <ele>3.4</ele>
        <time>2020-06-02T10:40:29Z</time>
      </trkpt>
      <trkpt lat="46.27009" lon="-1.03677">
        <ele>3.4</ele>
        <time>2020-06-02T10:40:30Z</time>
      </trkpt>
      <trkpt lat="46.27014" lon="-1.03675">
        <ele>3.4</ele>
        <time>2020-06-02T10:40:31Z</time>
      </trkpt>
      <trkpt lat="46.27019" lon="-1.03673">
        <ele>3.4</ele>
        <time>2020-06-02T10:40:32Z</time>
      </trkpt>
      <trkpt lat="46.27025" lon="-1.03671">
        <ele>3.4</ele>
        <time>2020-06-02T10:40:33Z</time>
      </trkpt>
      <trkpt lat="46.27031" lon="-1.0367">
        <ele>3.3</ele>
        <time>2020-06-02T10:40:34Z</time>
      </trkpt>
      <trkpt lat="46.27037" lon="-1.03667">
        <ele>3.3</ele>
        <time>2020-06-02T10:40:35Z</time>
      </trkpt>
      <trkpt lat="46.27042" lon="-1.03665">
        <ele>3.3</ele>
        <time>2020-06-02T10:40:36Z</time>
      </trkpt>
      <trkpt lat="46.27047" lon="-1.03664">
        <ele>3.3</ele>
        <time>2020-06-02T10:40:37Z</time>
      </trkpt>
      <trkpt lat="46.27052" lon="-1.03662">
        <ele>3.3</ele>
        <time>2020-06-02T10:40:38Z</time>
      </trkpt>
      <trkpt lat="46.27057" lon="-1.0366">
        <ele>3.3</ele>
        <time>2020-06-02T10:40:39Z</time>
      </trkpt>
      <trkpt lat="46.27062" lon="-1.03658">
        <ele>3.3</ele>
        <time>2020-06-02T10:40:40Z</time>
      </trkpt>
      <trkpt lat="46.27067" lon="-1.03657">
        <ele>3.3</ele>
        <time>2020-06-02T10:40:41Z</time>
      </trkpt>
      <trkpt lat="46.27073" lon="-1.03655">
        <ele>3.3</ele>
        <time>2020-06-02T10:40:42Z</time>
      </trkpt>
      <trkpt lat="46.27079" lon="-1.03652">
        <ele>3.3</ele>
        <time>2020-06-02T10:40:43Z</time>
      </trkpt>
      <trkpt lat="46.27084" lon="-1.0365">
        <ele>3.3</ele>
        <time>2020-06-02T10:40:44Z</time>
      </trkpt>
      <trkpt lat="46.27089" lon="-1.03649">
        <ele>3.3</ele>
        <time>2020-06-02T10:40:45Z</time>
      </trkpt>
      <trkpt lat="46.27094" lon="-1.03647">
        <ele>3.3</ele>
        <time>2020-06-02T10:40:46Z</time>
      </trkpt>
      <trkpt lat="46.271" lon="-1.03645">
        <ele>3.3</ele>
        <time>2020-06-02T10:40:47Z</time>
      </trkpt>
      <trkpt lat="46.27106" lon="-1.03642">
        <ele>3.3</ele>
        <time>2020-06-02T10:40:48Z</time>
      </trkpt>
      <trkpt lat="46.27112" lon="-1.0364">
        <ele>3.3</ele>
        <time>2020-06-02T10:40:49Z</time>
      </trkpt>
      <trkpt lat="46.27117" lon="-1.03639">
        <ele>3.3</ele>
        <time>2020-06-02T10:40:50Z</time>
      </trkpt>
      <trkpt lat="46.27123" lon="-1.03637">
        <ele>3.2</ele>
        <time>2020-06-02T10:40:51Z</time>
      </trkpt>
      <trkpt lat="46.27127" lon="-1.03635">
        <ele>3.2</ele>
        <time>2020-06-02T10:40:52Z</time>
      </trkpt>
      <trkpt lat="46.27132" lon="-1.03634">
        <ele>3.2</ele>
        <time>2020-06-02T10:40:53Z</time>
      </trkpt>
      <trkpt lat="46.27137" lon="-1.03632">
        <ele>3.2</ele>
        <time>2020-06-02T10:40:54Z</time>
      </trkpt>
      <trkpt lat="46.27143" lon="-1.0363">
        <ele>3.2</ele>
        <time>2020-06-02T10:40:55Z</time>
      </trkpt>
      <trkpt lat="46.27148" lon="-1.03628">
        <ele>3.2</ele>
        <time>2020-06-02T10:40:56Z</time>
      </trkpt>
      <trkpt lat="46.27154" lon="-1.03626">
        <ele>3.2</ele>
        <time>2020-06-02T10:40:57Z</time>
      </trkpt>
      <trkpt lat="46.27157" lon="-1.03624">
        <ele>3.2</ele>
        <time>2020-06-02T10:40:58Z</time>
      </trkpt>
      <trkpt lat="46.27163" lon="-1.03622">
        <ele>3.3</ele>
        <time>2020-06-02T10:40:59Z</time>
      </trkpt>
      <trkpt lat="46.27169" lon="-1.0362">
        <ele>3.3</ele>
        <time>2020-06-02T10:41:00Z</time>
      </trkpt>
      <trkpt lat="46.27175" lon="-1.03619">
        <ele>3.3</ele>
        <time>2020-06-02T10:41:01Z</time>
      </trkpt>
      <trkpt lat="46.27181" lon="-1.03616">
        <ele>3.3</ele>
        <time>2020-06-02T10:41:02Z</time>
      </trkpt>
      <trkpt lat="46.27187" lon="-1.03614">
        <ele>3.3</ele>
        <time>2020-06-02T10:41:03Z</time>
      </trkpt>
      <trkpt lat="46.27192" lon="-1.03612">
        <ele>3.3</ele>
        <time>2020-06-02T10:41:04Z</time>
      </trkpt>
      <trkpt lat="46.27197" lon="-1.0361">
        <ele>3.3</ele>
        <time>2020-06-02T10:41:05Z</time>
      </trkpt>
      <trkpt lat="46.27202" lon="-1.03608">
        <ele>3.3</ele>
        <time>2020-06-02T10:41:06Z</time>
      </trkpt>
      <trkpt lat="46.27208" lon="-1.03605">
        <ele>3.3</ele>
        <time>2020-06-02T10:41:07Z</time>
      </trkpt>
      <trkpt lat="46.27213" lon="-1.03603">
        <ele>3.3</ele>
        <time>2020-06-02T10:41:08Z</time>
      </trkpt>
      <trkpt lat="46.2722" lon="-1.03601">
        <ele>3.3</ele>
        <time>2020-06-02T10:41:09Z</time>
      </trkpt>
      <trkpt lat="46.27225" lon="-1.03599">
        <ele>3.3</ele>
        <time>2020-06-02T10:41:10Z</time>
      </trkpt>
      <trkpt lat="46.27231" lon="-1.03598">
        <ele>3.3</ele>
        <time>2020-06-02T10:41:11Z</time>
      </trkpt>
      <trkpt lat="46.27236" lon="-1.03595">
        <ele>3.4</ele>
        <time>2020-06-02T10:41:12Z</time>
      </trkpt>
      <trkpt lat="46.27241" lon="-1.03593">
        <ele>3.4</ele>
        <time>2020-06-02T10:41:13Z</time>
      </trkpt>
      <trkpt lat="46.27246" lon="-1.03591">
        <ele>3.4</ele>
        <time>2020-06-02T10:41:14Z</time>
      </trkpt>
      <trkpt lat="46.27251" lon="-1.0359">
        <ele>3.4</ele>
        <time>2020-06-02T10:41:15Z</time>
      </trkpt>
      <trkpt lat="46.27257" lon="-1.03588">
        <ele>3.4</ele>
        <time>2020-06-02T10:41:16Z</time>
      </trkpt>
      <trkpt lat="46.27263" lon="-1.03586">
        <ele>3.4</ele>
        <time>2020-06-02T10:41:17Z</time>
      </trkpt>
      <trkpt lat="46.27269" lon="-1.03584">
        <ele>3.4</ele>
        <time>2020-06-02T10:41:18Z</time>
      </trkpt>
      <trkpt lat="46.27275" lon="-1.03581">
        <ele>3.4</ele>
        <time>2020-06-02T10:41:19Z</time>
      </trkpt>
      <trkpt lat="46.2728" lon="-1.03579">
        <ele>3.4</ele>
        <time>2020-06-02T10:41:20Z</time>
      </trkpt>
      <trkpt lat="46.27286" lon="-1.03577">
        <ele>3.4</ele>
        <time>2020-06-02T10:41:21Z</time>
      </trkpt>
      <trkpt lat="46.27291" lon="-1.03575">
        <ele>3.4</ele>
        <time>2020-06-02T10:41:22Z</time>
      </trkpt>
      <trkpt lat="46.27297" lon="-1.03573">
        <ele>3.4</ele>
        <time>2020-06-02T10:41:23Z</time>
      </trkpt>
      <trkpt lat="46.27303" lon="-1.03571">
        <ele>3.4</ele>
        <time>2020-06-02T10:41:24Z</time>
      </trkpt>
      <trkpt lat="46.27309" lon="-1.03569">
        <ele>3.4</ele>
        <time>2020-06-02T10:41:25Z</time>
      </trkpt>
      <trkpt lat="46.27314" lon="-1.03566">
        <ele>3.4</ele>
        <time>2020-06-02T10:41:26Z</time>
      </trkpt>
      <trkpt lat="46.27321" lon="-1.03564">
        <ele>3.4</ele>
        <time>2020-06-02T10:41:27Z</time>
      </trkpt>
      <trkpt lat="46.27327" lon="-1.03562">
        <ele>3.4</ele>
        <time>2020-06-02T10:41:28Z</time>
      </trkpt>
      <trkpt lat="46.27332" lon="-1.0356">
        <ele>3.4</ele>
        <time>2020-06-02T10:41:29Z</time>
      </trkpt>
      <trkpt lat="46.27337" lon="-1.03558">
        <ele>3.4</ele>
        <time>2020-06-02T10:41:30Z</time>
      </trkpt>
      <trkpt lat="46.27343" lon="-1.03557">
        <ele>3.4</ele>
        <time>2020-06-02T10:41:31Z</time>
      </trkpt>
      <trkpt lat="46.27349" lon="-1.03554">
        <ele>3.4</ele>
        <time>2020-06-02T10:41:32Z</time>
      </trkpt>
      <trkpt lat="46.27354" lon="-1.03552">
        <ele>3.4</ele>
        <time>2020-06-02T10:41:33Z</time>
      </trkpt>
      <trkpt lat="46.2736" lon="-1.0355">
        <ele>3.5</ele>
        <time>2020-06-02T10:41:34Z</time>
      </trkpt>
      <trkpt lat="46.27365" lon="-1.03548">
        <ele>3.5</ele>
        <time>2020-06-02T10:41:35Z</time>
      </trkpt>
      <trkpt lat="46.27371" lon="-1.03546">
        <ele>3.5</ele>
        <time>2020-06-02T10:41:36Z</time>
      </trkpt>
      <trkpt lat="46.27377" lon="-1.03544">
        <ele>3.5</ele>
        <time>2020-06-02T10:41:37Z</time>
      </trkpt>
      <trkpt lat="46.27382" lon="-1.03542">
        <ele>3.5</ele>
        <time>2020-06-02T10:41:38Z</time>
      </trkpt>
      <trkpt lat="46.27387" lon="-1.0354">
        <ele>3.5</ele>
        <time>2020-06-02T10:41:39Z</time>
      </trkpt>
      <trkpt lat="46.27393" lon="-1.03538">
        <ele>3.5</ele>
        <time>2020-06-02T10:41:40Z</time>
      </trkpt>
      <trkpt lat="46.27398" lon="-1.03536">
        <ele>3.5</ele>
        <time>2020-06-02T10:41:41Z</time>
      </trkpt>
      <trkpt lat="46.27403" lon="-1.03534">
        <ele>3.5</ele>
        <time>2020-06-02T10:41:42Z</time>
      </trkpt>
      <trkpt lat="46.27409" lon="-1.03531">
        <ele>3.5</ele>
        <time>2020-06-02T10:41:43Z</time>
      </trkpt>
      <trkpt lat="46.27415" lon="-1.03529">
        <ele>3.5</ele>
        <time>2020-06-02T10:41:44Z</time>
      </trkpt>
      <trkpt lat="46.27422" lon="-1.03528">
        <ele>3.5</ele>
        <time>2020-06-02T10:41:45Z</time>
      </trkpt>
      <trkpt lat="46.27427" lon="-1.03526">
        <ele>3.5</ele>
        <time>2020-06-02T10:41:46Z</time>
      </trkpt>
      <trkpt lat="46.27433" lon="-1.03524">
        <ele>3.5</ele>
        <time>2020-06-02T10:41:47Z</time>
      </trkpt>
      <trkpt lat="46.27439" lon="-1.03522">
        <ele>3.5</ele>
        <time>2020-06-02T10:41:48Z</time>
      </trkpt>
      <trkpt lat="46.27444" lon="-1.0352">
        <ele>3.5</ele>
        <time>2020-06-02T10:41:49Z</time>
      </trkpt>
      <trkpt lat="46.27449" lon="-1.03518">
        <ele>3.5</ele>
        <time>2020-06-02T10:41:50Z</time>
      </trkpt>
      <trkpt lat="46.27455" lon="-1.03516">
        <ele>3.5</ele>
        <time>2020-06-02T10:41:51Z</time>
      </trkpt>
      <trkpt lat="46.27461" lon="-1.03514">
        <ele>3.5</ele>
        <time>2020-06-02T10:41:52Z</time>
      </trkpt>
      <trkpt lat="46.27466" lon="-1.03512">
        <ele>3.5</ele>
        <time>2020-06-02T10:41:53Z</time>
      </trkpt>
      <trkpt lat="46.27472" lon="-1.03511">
        <ele>3.5</ele>
        <time>2020-06-02T10:41:54Z</time>
      </trkpt>
      <trkpt lat="46.27477" lon="-1.03509">
        <ele>3.5</ele>
        <time>2020-06-02T10:41:55Z</time>
      </trkpt>
      <trkpt lat="46.27483" lon="-1.03507">
        <ele>3.5</ele>
        <time>2020-06-02T10:41:56Z</time>
      </trkpt>
      <trkpt lat="46.27488" lon="-1.03505">
        <ele>3.5</ele>
        <time>2020-06-02T10:41:57Z</time>
      </trkpt>
      <trkpt lat="46.27492" lon="-1.03503">
        <ele>3.5</ele>
        <time>2020-06-02T10:41:58Z</time>
      </trkpt>
      <trkpt lat="46.27497" lon="-1.03501">
        <ele>3.5</ele>
        <time>2020-06-02T10:41:59Z</time>
      </trkpt>
      <trkpt lat="46.27501" lon="-1.03499">
        <ele>3.5</ele>
        <time>2020-06-02T10:42:00Z</time>
      </trkpt>
      <trkpt lat="46.27506" lon="-1.03498">
        <ele>3.5</ele>
        <time>2020-06-02T10:42:01Z</time>
      </trkpt>
      <trkpt lat="46.2751" lon="-1.03496">
        <ele>3.5</ele>
        <time>2020-06-02T10:42:02Z</time>
      </trkpt>
      <trkpt lat="46.27515" lon="-1.03494">
        <ele>3.5</ele>
        <time>2020-06-02T10:42:03Z</time>
      </trkpt>
      <trkpt lat="46.27519" lon="-1.03493">
        <ele>3.5</ele>
        <time>2020-06-02T10:42:04Z</time>
      </trkpt>
      <trkpt lat="46.27524" lon="-1.0349">
        <ele>3.5</ele>
        <time>2020-06-02T10:42:05Z</time>
      </trkpt>
      <trkpt lat="46.27529" lon="-1.03489">
        <ele>3.5</ele>
        <time>2020-06-02T10:42:06Z</time>
      </trkpt>
      <trkpt lat="46.27534" lon="-1.03487">
        <ele>3.5</ele>
        <time>2020-06-02T10:42:07Z</time>
      </trkpt>
      <trkpt lat="46.2754" lon="-1.03485">
        <ele>3.5</ele>
        <time>2020-06-02T10:42:08Z</time>
      </trkpt>
      <trkpt lat="46.27546" lon="-1.03483">
        <ele>3.5</ele>
        <time>2020-06-02T10:42:09Z</time>
      </trkpt>
      <trkpt lat="46.27552" lon="-1.0348">
        <ele>3.5</ele>
        <time>2020-06-02T10:42:10Z</time>
      </trkpt>
      <trkpt lat="46.27558" lon="-1.03478">
        <ele>3.5</ele>
        <time>2020-06-02T10:42:11Z</time>
      </trkpt>
      <trkpt lat="46.27563" lon="-1.03477">
        <ele>3.5</ele>
        <time>2020-06-02T10:42:12Z</time>
      </trkpt>
      <trkpt lat="46.27569" lon="-1.03474">
        <ele>3.5</ele>
        <time>2020-06-02T10:42:13Z</time>
      </trkpt>
      <trkpt lat="46.27574" lon="-1.03473">
        <ele>3.5</ele>
        <time>2020-06-02T10:42:14Z</time>
      </trkpt>
      <trkpt lat="46.27578" lon="-1.03471">
        <ele>3.5</ele>
        <time>2020-06-02T10:42:15Z</time>
      </trkpt>
      <trkpt lat="46.27583" lon="-1.0347">
        <ele>3.5</ele>
        <time>2020-06-02T10:42:16Z</time>
      </trkpt>
      <trkpt lat="46.27587" lon="-1.03468">
        <ele>3.5</ele>
        <time>2020-06-02T10:42:17Z</time>
      </trkpt>
      <trkpt lat="46.27593" lon="-1.03467">
        <ele>3.5</ele>
        <time>2020-06-02T10:42:18Z</time>
      </trkpt>
      <trkpt lat="46.27599" lon="-1.03465">
        <ele>3.5</ele>
        <time>2020-06-02T10:42:19Z</time>
      </trkpt>
      <trkpt lat="46.27604" lon="-1.03463">
        <ele>3.5</ele>
        <time>2020-06-02T10:42:20Z</time>
      </trkpt>
      <trkpt lat="46.27609" lon="-1.03462">
        <ele>3.4</ele>
        <time>2020-06-02T10:42:21Z</time>
      </trkpt>
      <trkpt lat="46.27613" lon="-1.0346">
        <ele>3.4</ele>
        <time>2020-06-02T10:42:22Z</time>
      </trkpt>
      <trkpt lat="46.27617" lon="-1.03458">
        <ele>3.4</ele>
        <time>2020-06-02T10:42:23Z</time>
      </trkpt>
      <trkpt lat="46.27622" lon="-1.03456">
        <ele>3.4</ele>
        <time>2020-06-02T10:42:24Z</time>
      </trkpt>
      <trkpt lat="46.27628" lon="-1.03455">
        <ele>3.4</ele>
        <time>2020-06-02T10:42:25Z</time>
      </trkpt>
      <trkpt lat="46.27634" lon="-1.03452">
        <ele>3.4</ele>
        <time>2020-06-02T10:42:26Z</time>
      </trkpt>
      <trkpt lat="46.27639" lon="-1.0345">
        <ele>3.4</ele>
        <time>2020-06-02T10:42:27Z</time>
      </trkpt>
      <trkpt lat="46.27645" lon="-1.03448">
        <ele>3.5</ele>
        <time>2020-06-02T10:42:28Z</time>
      </trkpt>
      <trkpt lat="46.2765" lon="-1.03445">
        <ele>3.5</ele>
        <time>2020-06-02T10:42:29Z</time>
      </trkpt>
      <trkpt lat="46.27655" lon="-1.03443">
        <ele>3.5</ele>
        <time>2020-06-02T10:42:30Z</time>
      </trkpt>
      <trkpt lat="46.2766" lon="-1.03442">
        <ele>3.5</ele>
        <time>2020-06-02T10:42:31Z</time>
      </trkpt>
      <trkpt lat="46.27665" lon="-1.0344">
        <ele>3.5</ele>
        <time>2020-06-02T10:42:32Z</time>
      </trkpt>
      <trkpt lat="46.2767" lon="-1.03438">
        <ele>3.5</ele>
        <time>2020-06-02T10:42:33Z</time>
      </trkpt>
      <trkpt lat="46.27674" lon="-1.03437">
        <ele>3.4</ele>
        <time>2020-06-02T10:42:34Z</time>
      </trkpt>
      <trkpt lat="46.2768" lon="-1.03435">
        <ele>3.4</ele>
        <time>2020-06-02T10:42:35Z</time>
      </trkpt>
      <trkpt lat="46.27685" lon="-1.03433">
        <ele>3.4</ele>
        <time>2020-06-02T10:42:36Z</time>
      </trkpt>
      <trkpt lat="46.2769" lon="-1.03431">
        <ele>3.4</ele>
        <time>2020-06-02T10:42:37Z</time>
      </trkpt>
      <trkpt lat="46.27695" lon="-1.03429">
        <ele>3.4</ele>
        <time>2020-06-02T10:42:38Z</time>
      </trkpt>
      <trkpt lat="46.27703" lon="-1.03426">
        <ele>3.4</ele>
        <time>2020-06-02T10:42:39Z</time>
      </trkpt>
      <trkpt lat="46.27709" lon="-1.03423">
        <ele>3.4</ele>
        <time>2020-06-02T10:42:40Z</time>
      </trkpt>
      <trkpt lat="46.27715" lon="-1.03421">
        <ele>3.4</ele>
        <time>2020-06-02T10:42:41Z</time>
      </trkpt>
      <trkpt lat="46.2772" lon="-1.03419">
        <ele>3.4</ele>
        <time>2020-06-02T10:42:42Z</time>
      </trkpt>
      <trkpt lat="46.27726" lon="-1.03418">
        <ele>3.4</ele>
        <time>2020-06-02T10:42:43Z</time>
      </trkpt>
      <trkpt lat="46.2773" lon="-1.03416">
        <ele>3.4</ele>
        <time>2020-06-02T10:42:44Z</time>
      </trkpt>
      <trkpt lat="46.27736" lon="-1.03414">
        <ele>3.4</ele>
        <time>2020-06-02T10:42:45Z</time>
      </trkpt>
      <trkpt lat="46.27742" lon="-1.03411">
        <ele>3.4</ele>
        <time>2020-06-02T10:42:46Z</time>
      </trkpt>
      <trkpt lat="46.27748" lon="-1.03409">
        <ele>3.4</ele>
        <time>2020-06-02T10:42:47Z</time>
      </trkpt>
      <trkpt lat="46.27753" lon="-1.03407">
        <ele>3.4</ele>
        <time>2020-06-02T10:42:48Z</time>
      </trkpt>
      <trkpt lat="46.27758" lon="-1.03405">
        <ele>3.4</ele>
        <time>2020-06-02T10:42:49Z</time>
      </trkpt>
      <trkpt lat="46.27762" lon="-1.03403">
        <ele>3.4</ele>
        <time>2020-06-02T10:42:50Z</time>
      </trkpt>
      <trkpt lat="46.27767" lon="-1.03401">
        <ele>3.4</ele>
        <time>2020-06-02T10:42:51Z</time>
      </trkpt>
      <trkpt lat="46.27773" lon="-1.034">
        <ele>3.4</ele>
        <time>2020-06-02T10:42:52Z</time>
      </trkpt>
      <trkpt lat="46.27779" lon="-1.03398">
        <ele>3.4</ele>
        <time>2020-06-02T10:42:53Z</time>
      </trkpt>
      <trkpt lat="46.27785" lon="-1.03396">
        <ele>3.4</ele>
        <time>2020-06-02T10:42:54Z</time>
      </trkpt>
      <trkpt lat="46.27791" lon="-1.03393">
        <ele>3.4</ele>
        <time>2020-06-02T10:42:55Z</time>
      </trkpt>
      <trkpt lat="46.27797" lon="-1.03391">
        <ele>3.4</ele>
        <time>2020-06-02T10:42:56Z</time>
      </trkpt>
      <trkpt lat="46.27802" lon="-1.03388">
        <ele>3.4</ele>
        <time>2020-06-02T10:42:57Z</time>
      </trkpt>
      <trkpt lat="46.27808" lon="-1.03386">
        <ele>3.4</ele>
        <time>2020-06-02T10:42:58Z</time>
      </trkpt>
      <trkpt lat="46.27814" lon="-1.03384">
        <ele>3.4</ele>
        <time>2020-06-02T10:42:59Z</time>
      </trkpt>
      <trkpt lat="46.2782" lon="-1.03381">
        <ele>3.4</ele>
        <time>2020-06-02T10:43:00Z</time>
      </trkpt>
      <trkpt lat="46.27825" lon="-1.03379">
        <ele>3.4</ele>
        <time>2020-06-02T10:43:01Z</time>
      </trkpt>
      <trkpt lat="46.2783" lon="-1.03377">
        <ele>3.4</ele>
        <time>2020-06-02T10:43:02Z</time>
      </trkpt>
      <trkpt lat="46.27835" lon="-1.03376">
        <ele>3.4</ele>
        <time>2020-06-02T10:43:03Z</time>
      </trkpt>
      <trkpt lat="46.27841" lon="-1.03374">
        <ele>3.4</ele>
        <time>2020-06-02T10:43:04Z</time>
      </trkpt>
      <trkpt lat="46.27847" lon="-1.03372">
        <ele>3.4</ele>
        <time>2020-06-02T10:43:05Z</time>
      </trkpt>
      <trkpt lat="46.27852" lon="-1.0337">
        <ele>3.3</ele>
        <time>2020-06-02T10:43:06Z</time>
      </trkpt>
      <trkpt lat="46.27858" lon="-1.03368">
        <ele>3.3</ele>
        <time>2020-06-02T10:43:07Z</time>
      </trkpt>
      <trkpt lat="46.27863" lon="-1.03366">
        <ele>3.3</ele>
        <time>2020-06-02T10:43:08Z</time>
      </trkpt>
      <trkpt lat="46.27868" lon="-1.03364">
        <ele>3.3</ele>
        <time>2020-06-02T10:43:09Z</time>
      </trkpt>
      <trkpt lat="46.27873" lon="-1.03363">
        <ele>3.3</ele>
        <time>2020-06-02T10:43:10Z</time>
      </trkpt>
      <trkpt lat="46.27878" lon="-1.03361">
        <ele>3.3</ele>
        <time>2020-06-02T10:43:11Z</time>
      </trkpt>
      <trkpt lat="46.27883" lon="-1.0336">
        <ele>3.3</ele>
        <time>2020-06-02T10:43:12Z</time>
      </trkpt>
      <trkpt lat="46.27888" lon="-1.03358">
        <ele>3.4</ele>
        <time>2020-06-02T10:43:13Z</time>
      </trkpt>
      <trkpt lat="46.27893" lon="-1.03357">
        <ele>3.4</ele>
        <time>2020-06-02T10:43:14Z</time>
      </trkpt>
      <trkpt lat="46.27898" lon="-1.03355">
        <ele>3.4</ele>
        <time>2020-06-02T10:43:15Z</time>
      </trkpt>
      <trkpt lat="46.27904" lon="-1.03353">
        <ele>3.4</ele>
        <time>2020-06-02T10:43:16Z</time>
      </trkpt>
      <trkpt lat="46.27909" lon="-1.03351">
        <ele>3.4</ele>
        <time>2020-06-02T10:43:17Z</time>
      </trkpt>
      <trkpt lat="46.27914" lon="-1.03349">
        <ele>3.4</ele>
        <time>2020-06-02T10:43:18Z</time>
      </trkpt>
      <trkpt lat="46.27919" lon="-1.03347">
        <ele>3.4</ele>
        <time>2020-06-02T10:43:19Z</time>
      </trkpt>
      <trkpt lat="46.27922" lon="-1.03346">
        <ele>3.4</ele>
        <time>2020-06-02T10:43:20Z</time>
      </trkpt>
      <trkpt lat="46.27928" lon="-1.03343">
        <ele>3.4</ele>
        <time>2020-06-02T10:43:21Z</time>
      </trkpt>
      <trkpt lat="46.27933" lon="-1.03341">
        <ele>3.4</ele>
        <time>2020-06-02T10:43:22Z</time>
      </trkpt>
      <trkpt lat="46.27939" lon="-1.0334">
        <ele>3.4</ele>
        <time>2020-06-02T10:43:23Z</time>
      </trkpt>
      <trkpt lat="46.27945" lon="-1.03337">
        <ele>3.4</ele>
        <time>2020-06-02T10:43:24Z</time>
      </trkpt>
      <trkpt lat="46.27951" lon="-1.03336">
        <ele>3.3</ele>
        <time>2020-06-02T10:43:25Z</time>
      </trkpt>
      <trkpt lat="46.27956" lon="-1.03334">
        <ele>3.3</ele>
        <time>2020-06-02T10:43:26Z</time>
      </trkpt>
      <trkpt lat="46.27962" lon="-1.03332">
        <ele>3.3</ele>
        <time>2020-06-02T10:43:27Z</time>
      </trkpt>
      <trkpt lat="46.27967" lon="-1.03331">
        <ele>3.3</ele>
        <time>2020-06-02T10:43:28Z</time>
      </trkpt>
      <trkpt lat="46.27973" lon="-1.03326">
        <ele>3.3</ele>
        <time>2020-06-02T10:43:29Z</time>
      </trkpt>
      <trkpt lat="46.27978" lon="-1.03323">
        <ele>3.3</ele>
        <time>2020-06-02T10:43:30Z</time>
      </trkpt>
      <trkpt lat="46.27984" lon="-1.03321">
        <ele>3.3</ele>
        <time>2020-06-02T10:43:31Z</time>
      </trkpt>
      <trkpt lat="46.27989" lon="-1.03318">
        <ele>3.3</ele>
        <time>2020-06-02T10:43:32Z</time>
      </trkpt>
      <trkpt lat="46.27995" lon="-1.03316">
        <ele>3.3</ele>
        <time>2020-06-02T10:43:33Z</time>
      </trkpt>
      <trkpt lat="46.28" lon="-1.03314">
        <ele>3.3</ele>
        <time>2020-06-02T10:43:34Z</time>
      </trkpt>
      <trkpt lat="46.28006" lon="-1.03312">
        <ele>3.3</ele>
        <time>2020-06-02T10:43:35Z</time>
      </trkpt>
      <trkpt lat="46.28013" lon="-1.0331">
        <ele>3.3</ele>
        <time>2020-06-02T10:43:36Z</time>
      </trkpt>
      <trkpt lat="46.28019" lon="-1.03309">
        <ele>3.3</ele>
        <time>2020-06-02T10:43:37Z</time>
      </trkpt>
      <trkpt lat="46.28024" lon="-1.03306">
        <ele>3.3</ele>
        <time>2020-06-02T10:43:38Z</time>
      </trkpt>
      <trkpt lat="46.2803" lon="-1.03304">
        <ele>3.3</ele>
        <time>2020-06-02T10:43:39Z</time>
      </trkpt>
      <trkpt lat="46.28035" lon="-1.03303">
        <ele>3.3</ele>
        <time>2020-06-02T10:43:40Z</time>
      </trkpt>
      <trkpt lat="46.28042" lon="-1.03301">
        <ele>3.3</ele>
        <time>2020-06-02T10:43:41Z</time>
      </trkpt>
      <trkpt lat="46.28047" lon="-1.03297">
        <ele>3.3</ele>
        <time>2020-06-02T10:43:42Z</time>
      </trkpt>
      <trkpt lat="46.28054" lon="-1.03295">
        <ele>3.3</ele>
        <time>2020-06-02T10:43:43Z</time>
      </trkpt>
      <trkpt lat="46.2806" lon="-1.03292">
        <ele>3.3</ele>
        <time>2020-06-02T10:43:44Z</time>
      </trkpt>
      <trkpt lat="46.28066" lon="-1.0329">
        <ele>3.3</ele>
        <time>2020-06-02T10:43:45Z</time>
      </trkpt>
      <trkpt lat="46.28072" lon="-1.03287">
        <ele>3.3</ele>
        <time>2020-06-02T10:43:46Z</time>
      </trkpt>
      <trkpt lat="46.28078" lon="-1.03285">
        <ele>3.3</ele>
        <time>2020-06-02T10:43:47Z</time>
      </trkpt>
      <trkpt lat="46.28085" lon="-1.03283">
        <ele>3.3</ele>
        <time>2020-06-02T10:43:48Z</time>
      </trkpt>
      <trkpt lat="46.2809" lon="-1.03282">
        <ele>3.3</ele>
        <time>2020-06-02T10:43:49Z</time>
      </trkpt>
      <trkpt lat="46.28096" lon="-1.03279">
        <ele>3.3</ele>
        <time>2020-06-02T10:43:50Z</time>
      </trkpt>
      <trkpt lat="46.28101" lon="-1.03278">
        <ele>3.3</ele>
        <time>2020-06-02T10:43:51Z</time>
      </trkpt>
      <trkpt lat="46.28106" lon="-1.03275">
        <ele>3.2</ele>
        <time>2020-06-02T10:43:52Z</time>
      </trkpt>
      <trkpt lat="46.28112" lon="-1.03274">
        <ele>3.2</ele>
        <time>2020-06-02T10:43:53Z</time>
      </trkpt>
      <trkpt lat="46.28117" lon="-1.03271">
        <ele>3.2</ele>
        <time>2020-06-02T10:43:54Z</time>
      </trkpt>
      <trkpt lat="46.28122" lon="-1.03269">
        <ele>3.2</ele>
        <time>2020-06-02T10:43:55Z</time>
      </trkpt>
      <trkpt lat="46.28128" lon="-1.03267">
        <ele>3.1</ele>
        <time>2020-06-02T10:43:56Z</time>
      </trkpt>
      <trkpt lat="46.28133" lon="-1.03266">
        <ele>3.1</ele>
        <time>2020-06-02T10:43:57Z</time>
      </trkpt>
      <trkpt lat="46.28139" lon="-1.03264">
        <ele>3</ele>
        <time>2020-06-02T10:43:58Z</time>
      </trkpt>
      <trkpt lat="46.28145" lon="-1.03262">
        <ele>2.9</ele>
        <time>2020-06-02T10:43:59Z</time>
      </trkpt>
      <trkpt lat="46.28151" lon="-1.03259">
        <ele>2.9</ele>
        <time>2020-06-02T10:44:00Z</time>
      </trkpt>
      <trkpt lat="46.28157" lon="-1.03256">
        <ele>2.8</ele>
        <time>2020-06-02T10:44:01Z</time>
      </trkpt>
      <trkpt lat="46.28162" lon="-1.03254">
        <ele>2.9</ele>
        <time>2020-06-02T10:44:02Z</time>
      </trkpt>
      <trkpt lat="46.28167" lon="-1.03251">
        <ele>2.9</ele>
        <time>2020-06-02T10:44:03Z</time>
      </trkpt>
      <trkpt lat="46.28173" lon="-1.03251">
        <ele>2.9</ele>
        <time>2020-06-02T10:44:04Z</time>
      </trkpt>
      <trkpt lat="46.28179" lon="-1.03247">
        <ele>2.9</ele>
        <time>2020-06-02T10:44:05Z</time>
      </trkpt>
      <trkpt lat="46.28184" lon="-1.03244">
        <ele>2.9</ele>
        <time>2020-06-02T10:44:06Z</time>
      </trkpt>
      <trkpt lat="46.28189" lon="-1.0324">
        <ele>3</ele>
        <time>2020-06-02T10:44:07Z</time>
      </trkpt>
      <trkpt lat="46.28195" lon="-1.03237">
        <ele>3</ele>
        <time>2020-06-02T10:44:08Z</time>
      </trkpt>
      <trkpt lat="46.282" lon="-1.03234">
        <ele>3</ele>
        <time>2020-06-02T10:44:09Z</time>
      </trkpt>
      <trkpt lat="46.28205" lon="-1.03231">
        <ele>3</ele>
        <time>2020-06-02T10:44:10Z</time>
      </trkpt>
      <trkpt lat="46.28211" lon="-1.03229">
        <ele>3</ele>
        <time>2020-06-02T10:44:11Z</time>
      </trkpt>
      <trkpt lat="46.28216" lon="-1.03227">
        <ele>3</ele>
        <time>2020-06-02T10:44:12Z</time>
      </trkpt>
      <trkpt lat="46.28222" lon="-1.03224">
        <ele>3.1</ele>
        <time>2020-06-02T10:44:13Z</time>
      </trkpt>
      <trkpt lat="46.28228" lon="-1.03221">
        <ele>3.1</ele>
        <time>2020-06-02T10:44:14Z</time>
      </trkpt>
      <trkpt lat="46.28232" lon="-1.03218">
        <ele>3.1</ele>
        <time>2020-06-02T10:44:15Z</time>
      </trkpt>
      <trkpt lat="46.28237" lon="-1.03216">
        <ele>3.1</ele>
        <time>2020-06-02T10:44:16Z</time>
      </trkpt>
      <trkpt lat="46.28242" lon="-1.03214">
        <ele>3.1</ele>
        <time>2020-06-02T10:44:17Z</time>
      </trkpt>
      <trkpt lat="46.28248" lon="-1.03212">
        <ele>3.1</ele>
        <time>2020-06-02T10:44:18Z</time>
      </trkpt>
      <trkpt lat="46.28254" lon="-1.0321">
        <ele>3.1</ele>
        <time>2020-06-02T10:44:19Z</time>
      </trkpt>
      <trkpt lat="46.28259" lon="-1.03209">
        <ele>3.1</ele>
        <time>2020-06-02T10:44:20Z</time>
      </trkpt>
      <trkpt lat="46.28266" lon="-1.03207">
        <ele>3.1</ele>
        <time>2020-06-02T10:44:21Z</time>
      </trkpt>
      <trkpt lat="46.28271" lon="-1.03205">
        <ele>3.1</ele>
        <time>2020-06-02T10:44:22Z</time>
      </trkpt>
      <trkpt lat="46.28277" lon="-1.03203">
        <ele>3.1</ele>
        <time>2020-06-02T10:44:23Z</time>
      </trkpt>
      <trkpt lat="46.28282" lon="-1.03201">
        <ele>3.1</ele>
        <time>2020-06-02T10:44:24Z</time>
      </trkpt>
      <trkpt lat="46.28287" lon="-1.03198">
        <ele>3.1</ele>
        <time>2020-06-02T10:44:25Z</time>
      </trkpt>
      <trkpt lat="46.28292" lon="-1.03197">
        <ele>3.2</ele>
        <time>2020-06-02T10:44:26Z</time>
      </trkpt>
      <trkpt lat="46.28298" lon="-1.03194">
        <ele>3.2</ele>
        <time>2020-06-02T10:44:27Z</time>
      </trkpt>
      <trkpt lat="46.28302" lon="-1.03192">
        <ele>3.2</ele>
        <time>2020-06-02T10:44:28Z</time>
      </trkpt>
      <trkpt lat="46.28308" lon="-1.0319">
        <ele>3.2</ele>
        <time>2020-06-02T10:44:29Z</time>
      </trkpt>
      <trkpt lat="46.28313" lon="-1.03189">
        <ele>3.2</ele>
        <time>2020-06-02T10:44:30Z</time>
      </trkpt>
      <trkpt lat="46.28318" lon="-1.03187">
        <ele>3.1</ele>
        <time>2020-06-02T10:44:31Z</time>
      </trkpt>
      <trkpt lat="46.28322" lon="-1.03185">
        <ele>3.1</ele>
        <time>2020-06-02T10:44:32Z</time>
      </trkpt>
      <trkpt lat="46.28328" lon="-1.03183">
        <ele>3.1</ele>
        <time>2020-06-02T10:44:33Z</time>
      </trkpt>
      <trkpt lat="46.28333" lon="-1.03181">
        <ele>3</ele>
        <time>2020-06-02T10:44:34Z</time>
      </trkpt>
      <trkpt lat="46.28339" lon="-1.0318">
        <ele>3</ele>
        <time>2020-06-02T10:44:35Z</time>
      </trkpt>
      <trkpt lat="46.28345" lon="-1.03178">
        <ele>3</ele>
        <time>2020-06-02T10:44:36Z</time>
      </trkpt>
      <trkpt lat="46.28351" lon="-1.03175">
        <ele>3</ele>
        <time>2020-06-02T10:44:37Z</time>
      </trkpt>
      <trkpt lat="46.28357" lon="-1.03172">
        <ele>3</ele>
        <time>2020-06-02T10:44:38Z</time>
      </trkpt>
      <trkpt lat="46.28362" lon="-1.03171">
        <ele>3</ele>
        <time>2020-06-02T10:44:39Z</time>
      </trkpt>
      <trkpt lat="46.28367" lon="-1.03168">
        <ele>3</ele>
        <time>2020-06-02T10:44:40Z</time>
      </trkpt>
      <trkpt lat="46.28373" lon="-1.03166">
        <ele>3</ele>
        <time>2020-06-02T10:44:41Z</time>
      </trkpt>
      <trkpt lat="46.28378" lon="-1.03164">
        <ele>3</ele>
        <time>2020-06-02T10:44:42Z</time>
      </trkpt>
      <trkpt lat="46.28384" lon="-1.03162">
        <ele>3</ele>
        <time>2020-06-02T10:44:43Z</time>
      </trkpt>
      <trkpt lat="46.28389" lon="-1.03159">
        <ele>3</ele>
        <time>2020-06-02T10:44:44Z</time>
      </trkpt>
      <trkpt lat="46.28395" lon="-1.03157">
        <ele>3</ele>
        <time>2020-06-02T10:44:45Z</time>
      </trkpt>
      <trkpt lat="46.284" lon="-1.03155">
        <ele>3</ele>
        <time>2020-06-02T10:44:46Z</time>
      </trkpt>
      <trkpt lat="46.28406" lon="-1.03154">
        <ele>3</ele>
        <time>2020-06-02T10:44:47Z</time>
      </trkpt>
      <trkpt lat="46.28413" lon="-1.03153">
        <ele>3</ele>
        <time>2020-06-02T10:44:48Z</time>
      </trkpt>
      <trkpt lat="46.28419" lon="-1.03151">
        <ele>3</ele>
        <time>2020-06-02T10:44:49Z</time>
      </trkpt>
      <trkpt lat="46.28425" lon="-1.03149">
        <ele>3</ele>
        <time>2020-06-02T10:44:50Z</time>
      </trkpt>
      <trkpt lat="46.28432" lon="-1.03148">
        <ele>3.1</ele>
        <time>2020-06-02T10:44:51Z</time>
      </trkpt>
      <trkpt lat="46.28438" lon="-1.03146">
        <ele>3.1</ele>
        <time>2020-06-02T10:44:52Z</time>
      </trkpt>
      <trkpt lat="46.28443" lon="-1.03144">
        <ele>3.2</ele>
        <time>2020-06-02T10:44:53Z</time>
      </trkpt>
      <trkpt lat="46.28448" lon="-1.03142">
        <ele>3.2</ele>
        <time>2020-06-02T10:44:54Z</time>
      </trkpt>
      <trkpt lat="46.28453" lon="-1.0314">
        <ele>3.2</ele>
        <time>2020-06-02T10:44:55Z</time>
      </trkpt>
      <trkpt lat="46.28458" lon="-1.03137">
        <ele>3.2</ele>
        <time>2020-06-02T10:44:56Z</time>
      </trkpt>
      <trkpt lat="46.28464" lon="-1.03135">
        <ele>3.2</ele>
        <time>2020-06-02T10:44:57Z</time>
      </trkpt>
      <trkpt lat="46.2847" lon="-1.03133">
        <ele>3.2</ele>
        <time>2020-06-02T10:44:58Z</time>
      </trkpt>
      <trkpt lat="46.28476" lon="-1.03131">
        <ele>3.2</ele>
        <time>2020-06-02T10:44:59Z</time>
      </trkpt>
      <trkpt lat="46.28482" lon="-1.03129">
        <ele>3.2</ele>
        <time>2020-06-02T10:45:00Z</time>
      </trkpt>
      <trkpt lat="46.28488" lon="-1.03126">
        <ele>3.1</ele>
        <time>2020-06-02T10:45:01Z</time>
      </trkpt>
      <trkpt lat="46.28495" lon="-1.03123">
        <ele>3</ele>
        <time>2020-06-02T10:45:02Z</time>
      </trkpt>
      <trkpt lat="46.28501" lon="-1.0312">
        <ele>3</ele>
        <time>2020-06-02T10:45:03Z</time>
      </trkpt>
      <trkpt lat="46.28506" lon="-1.03117">
        <ele>2.9</ele>
        <time>2020-06-02T10:45:04Z</time>
      </trkpt>
      <trkpt lat="46.28512" lon="-1.03116">
        <ele>2.9</ele>
        <time>2020-06-02T10:45:05Z</time>
      </trkpt>
      <trkpt lat="46.28517" lon="-1.03114">
        <ele>2.8</ele>
        <time>2020-06-02T10:45:06Z</time>
      </trkpt>
      <trkpt lat="46.28524" lon="-1.03112">
        <ele>2.8</ele>
        <time>2020-06-02T10:45:07Z</time>
      </trkpt>
      <trkpt lat="46.28529" lon="-1.0311">
        <ele>2.8</ele>
        <time>2020-06-02T10:45:08Z</time>
      </trkpt>
      <trkpt lat="46.28535" lon="-1.03107">
        <ele>2.8</ele>
        <time>2020-06-02T10:45:09Z</time>
      </trkpt>
      <trkpt lat="46.28541" lon="-1.03105">
        <ele>2.8</ele>
        <time>2020-06-02T10:45:10Z</time>
      </trkpt>
      <trkpt lat="46.28547" lon="-1.03104">
        <ele>2.8</ele>
        <time>2020-06-02T10:45:11Z</time>
      </trkpt>
      <trkpt lat="46.28552" lon="-1.03102">
        <ele>2.8</ele>
        <time>2020-06-02T10:45:12Z</time>
      </trkpt>
      <trkpt lat="46.28558" lon="-1.031">
        <ele>2.9</ele>
        <time>2020-06-02T10:45:13Z</time>
      </trkpt>
      <trkpt lat="46.28563" lon="-1.03097">
        <ele>2.9</ele>
        <time>2020-06-02T10:45:14Z</time>
      </trkpt>
      <trkpt lat="46.28568" lon="-1.03097">
        <ele>2.9</ele>
        <time>2020-06-02T10:45:15Z</time>
      </trkpt>
      <trkpt lat="46.28574" lon="-1.03094">
        <ele>3</ele>
        <time>2020-06-02T10:45:16Z</time>
      </trkpt>
      <trkpt lat="46.28579" lon="-1.03094">
        <ele>3</ele>
        <time>2020-06-02T10:45:17Z</time>
      </trkpt>
      <trkpt lat="46.28585" lon="-1.0309">
        <ele>3.1</ele>
        <time>2020-06-02T10:45:18Z</time>
      </trkpt>
      <trkpt lat="46.28593" lon="-1.03088">
        <ele>3.1</ele>
        <time>2020-06-02T10:45:19Z</time>
      </trkpt>
      <trkpt lat="46.28599" lon="-1.03085">
        <ele>3.1</ele>
        <time>2020-06-02T10:45:20Z</time>
      </trkpt>
      <trkpt lat="46.28605" lon="-1.03083">
        <ele>3.1</ele>
        <time>2020-06-02T10:45:21Z</time>
      </trkpt>
      <trkpt lat="46.2861" lon="-1.03082">
        <ele>3.1</ele>
        <time>2020-06-02T10:45:22Z</time>
      </trkpt>
      <trkpt lat="46.28616" lon="-1.0308">
        <ele>3.1</ele>
        <time>2020-06-02T10:45:23Z</time>
      </trkpt>
      <trkpt lat="46.28622" lon="-1.03079">
        <ele>3.1</ele>
        <time>2020-06-02T10:45:24Z</time>
      </trkpt>
      <trkpt lat="46.28628" lon="-1.03076">
        <ele>3.1</ele>
        <time>2020-06-02T10:45:25Z</time>
      </trkpt>
      <trkpt lat="46.28635" lon="-1.03073">
        <ele>3.1</ele>
        <time>2020-06-02T10:45:26Z</time>
      </trkpt>
      <trkpt lat="46.28639" lon="-1.0307">
        <ele>3.1</ele>
        <time>2020-06-02T10:45:27Z</time>
      </trkpt>
      <trkpt lat="46.28645" lon="-1.03068">
        <ele>3.1</ele>
        <time>2020-06-02T10:45:28Z</time>
      </trkpt>
      <trkpt lat="46.28651" lon="-1.03066">
        <ele>3.1</ele>
        <time>2020-06-02T10:45:29Z</time>
      </trkpt>
      <trkpt lat="46.28656" lon="-1.03062">
        <ele>3</ele>
        <time>2020-06-02T10:45:30Z</time>
      </trkpt>
      <trkpt lat="46.28662" lon="-1.0306">
        <ele>3</ele>
        <time>2020-06-02T10:45:31Z</time>
      </trkpt>
      <trkpt lat="46.28668" lon="-1.03057">
        <ele>2.9</ele>
        <time>2020-06-02T10:45:32Z</time>
      </trkpt>
      <trkpt lat="46.28674" lon="-1.03055">
        <ele>2.9</ele>
        <time>2020-06-02T10:45:33Z</time>
      </trkpt>
      <trkpt lat="46.2868" lon="-1.03052">
        <ele>2.9</ele>
        <time>2020-06-02T10:45:34Z</time>
      </trkpt>
      <trkpt lat="46.28685" lon="-1.03051">
        <ele>2.9</ele>
        <time>2020-06-02T10:45:35Z</time>
      </trkpt>
      <trkpt lat="46.2869" lon="-1.03049">
        <ele>2.9</ele>
        <time>2020-06-02T10:45:36Z</time>
      </trkpt>
      <trkpt lat="46.28695" lon="-1.03048">
        <ele>2.9</ele>
        <time>2020-06-02T10:45:37Z</time>
      </trkpt>
      <trkpt lat="46.287" lon="-1.03047">
        <ele>2.9</ele>
        <time>2020-06-02T10:45:38Z</time>
      </trkpt>
      <trkpt lat="46.28705" lon="-1.03045">
        <ele>2.9</ele>
        <time>2020-06-02T10:45:39Z</time>
      </trkpt>
      <trkpt lat="46.2871" lon="-1.03043">
        <ele>2.9</ele>
        <time>2020-06-02T10:45:40Z</time>
      </trkpt>
      <trkpt lat="46.28715" lon="-1.03041">
        <ele>2.9</ele>
        <time>2020-06-02T10:45:41Z</time>
      </trkpt>
      <trkpt lat="46.2872" lon="-1.03038">
        <ele>2.9</ele>
        <time>2020-06-02T10:45:42Z</time>
      </trkpt>
      <trkpt lat="46.28725" lon="-1.03036">
        <ele>2.9</ele>
        <time>2020-06-02T10:45:43Z</time>
      </trkpt>
      <trkpt lat="46.2873" lon="-1.03035">
        <ele>2.9</ele>
        <time>2020-06-02T10:45:44Z</time>
      </trkpt>
      <trkpt lat="46.28735" lon="-1.03034">
        <ele>2.8</ele>
        <time>2020-06-02T10:45:45Z</time>
      </trkpt>
      <trkpt lat="46.2874" lon="-1.03033">
        <ele>2.8</ele>
        <time>2020-06-02T10:45:46Z</time>
      </trkpt>
      <trkpt lat="46.28746" lon="-1.03031">
        <ele>2.8</ele>
        <time>2020-06-02T10:45:47Z</time>
      </trkpt>
      <trkpt lat="46.28751" lon="-1.03029">
        <ele>2.8</ele>
        <time>2020-06-02T10:45:48Z</time>
      </trkpt>
      <trkpt lat="46.28756" lon="-1.03027">
        <ele>2.8</ele>
        <time>2020-06-02T10:45:49Z</time>
      </trkpt>
      <trkpt lat="46.28761" lon="-1.03025">
        <ele>2.8</ele>
        <time>2020-06-02T10:45:50Z</time>
      </trkpt>
      <trkpt lat="46.28766" lon="-1.03023">
        <ele>2.8</ele>
        <time>2020-06-02T10:45:51Z</time>
      </trkpt>
      <trkpt lat="46.28771" lon="-1.0302">
        <ele>2.8</ele>
        <time>2020-06-02T10:45:52Z</time>
      </trkpt>
      <trkpt lat="46.28776" lon="-1.03018">
        <ele>2.7</ele>
        <time>2020-06-02T10:45:53Z</time>
      </trkpt>
      <trkpt lat="46.28781" lon="-1.03013">
        <ele>2.7</ele>
        <time>2020-06-02T10:45:54Z</time>
      </trkpt>
      <trkpt lat="46.28786" lon="-1.03011">
        <ele>2.7</ele>
        <time>2020-06-02T10:45:55Z</time>
      </trkpt>
      <trkpt lat="46.28793" lon="-1.03009">
        <ele>2.7</ele>
        <time>2020-06-02T10:45:56Z</time>
      </trkpt>
      <trkpt lat="46.28799" lon="-1.03008">
        <ele>2.6</ele>
        <time>2020-06-02T10:45:57Z</time>
      </trkpt>
      <trkpt lat="46.28804" lon="-1.03007">
        <ele>2.6</ele>
        <time>2020-06-02T10:45:58Z</time>
      </trkpt>
      <trkpt lat="46.2881" lon="-1.03005">
        <ele>2.6</ele>
        <time>2020-06-02T10:45:59Z</time>
      </trkpt>
      <trkpt lat="46.28815" lon="-1.03004">
        <ele>2.6</ele>
        <time>2020-06-02T10:46:00Z</time>
      </trkpt>
      <trkpt lat="46.28819" lon="-1.03002">
        <ele>2.6</ele>
        <time>2020-06-02T10:46:01Z</time>
      </trkpt>
      <trkpt lat="46.28824" lon="-1.03001">
        <ele>2.6</ele>
        <time>2020-06-02T10:46:02Z</time>
      </trkpt>
      <trkpt lat="46.28829" lon="-1.02999">
        <ele>2.6</ele>
        <time>2020-06-02T10:46:03Z</time>
      </trkpt>
      <trkpt lat="46.28833" lon="-1.02996">
        <ele>2.6</ele>
        <time>2020-06-02T10:46:04Z</time>
      </trkpt>
      <trkpt lat="46.28838" lon="-1.02994">
        <ele>2.6</ele>
        <time>2020-06-02T10:46:05Z</time>
      </trkpt>
      <trkpt lat="46.28842" lon="-1.02993">
        <ele>2.6</ele>
        <time>2020-06-02T10:46:06Z</time>
      </trkpt>
      <trkpt lat="46.28847" lon="-1.02992">
        <ele>2.6</ele>
        <time>2020-06-02T10:46:07Z</time>
      </trkpt>
      <trkpt lat="46.28853" lon="-1.02992">
        <ele>2.5</ele>
        <time>2020-06-02T10:46:08Z</time>
      </trkpt>
      <trkpt lat="46.28858" lon="-1.02992">
        <ele>2.5</ele>
        <time>2020-06-02T10:46:09Z</time>
      </trkpt>
      <trkpt lat="46.28864" lon="-1.02994">
        <ele>2.4</ele>
        <time>2020-06-02T10:46:10Z</time>
      </trkpt>
      <trkpt lat="46.28868" lon="-1.02995">
        <ele>2.4</ele>
        <time>2020-06-02T10:46:11Z</time>
      </trkpt>
      <trkpt lat="46.28873" lon="-1.02995">
        <ele>2.3</ele>
        <time>2020-06-02T10:46:12Z</time>
      </trkpt>
      <trkpt lat="46.28878" lon="-1.02995">
        <ele>2.2</ele>
        <time>2020-06-02T10:46:13Z</time>
      </trkpt>
      <trkpt lat="46.28884" lon="-1.02993">
        <ele>2.1</ele>
        <time>2020-06-02T10:46:14Z</time>
      </trkpt>
      <trkpt lat="46.28889" lon="-1.02991">
        <ele>2</ele>
        <time>2020-06-02T10:46:15Z</time>
      </trkpt>
      <trkpt lat="46.28894" lon="-1.02987">
        <ele>1.9</ele>
        <time>2020-06-02T10:46:16Z</time>
      </trkpt>
      <trkpt lat="46.28899" lon="-1.02985">
        <ele>1.8</ele>
        <time>2020-06-02T10:46:17Z</time>
      </trkpt>
      <trkpt lat="46.28904" lon="-1.02982">
        <ele>1.8</ele>
        <time>2020-06-02T10:46:18Z</time>
      </trkpt>
      <trkpt lat="46.28909" lon="-1.02981">
        <ele>1.8</ele>
        <time>2020-06-02T10:46:19Z</time>
      </trkpt>
      <trkpt lat="46.28914" lon="-1.02979">
        <ele>1.8</ele>
        <time>2020-06-02T10:46:20Z</time>
      </trkpt>
      <trkpt lat="46.28918" lon="-1.02976">
        <ele>1.8</ele>
        <time>2020-06-02T10:46:21Z</time>
      </trkpt>
      <trkpt lat="46.28923" lon="-1.02975">
        <ele>1.8</ele>
        <time>2020-06-02T10:46:22Z</time>
      </trkpt>
      <trkpt lat="46.28928" lon="-1.02974">
        <ele>1.7</ele>
        <time>2020-06-02T10:46:23Z</time>
      </trkpt>
      <trkpt lat="46.28933" lon="-1.02973">
        <ele>1.7</ele>
        <time>2020-06-02T10:46:24Z</time>
      </trkpt>
      <trkpt lat="46.28937" lon="-1.02969">
        <ele>1.7</ele>
        <time>2020-06-02T10:46:25Z</time>
      </trkpt>
      <trkpt lat="46.28942" lon="-1.02967">
        <ele>1.7</ele>
        <time>2020-06-02T10:46:26Z</time>
      </trkpt>
      <trkpt lat="46.28948" lon="-1.02967">
        <ele>1.7</ele>
        <time>2020-06-02T10:46:27Z</time>
      </trkpt>
      <trkpt lat="46.28953" lon="-1.02965">
        <ele>1.7</ele>
        <time>2020-06-02T10:46:28Z</time>
      </trkpt>
      <trkpt lat="46.28959" lon="-1.02962">
        <ele>1.7</ele>
        <time>2020-06-02T10:46:29Z</time>
      </trkpt>
      <trkpt lat="46.28965" lon="-1.02961">
        <ele>1.7</ele>
        <time>2020-06-02T10:46:30Z</time>
      </trkpt>
      <trkpt lat="46.28971" lon="-1.02958">
        <ele>1.7</ele>
        <time>2020-06-02T10:46:31Z</time>
      </trkpt>
      <trkpt lat="46.28977" lon="-1.02956">
        <ele>1.7</ele>
        <time>2020-06-02T10:46:32Z</time>
      </trkpt>
      <trkpt lat="46.28982" lon="-1.02954">
        <ele>1.7</ele>
        <time>2020-06-02T10:46:33Z</time>
      </trkpt>
      <trkpt lat="46.28987" lon="-1.02951">
        <ele>1.7</ele>
        <time>2020-06-02T10:46:34Z</time>
      </trkpt>
      <trkpt lat="46.28992" lon="-1.02949">
        <ele>1.7</ele>
        <time>2020-06-02T10:46:35Z</time>
      </trkpt>
      <trkpt lat="46.28997" lon="-1.02946">
        <ele>1.7</ele>
        <time>2020-06-02T10:46:36Z</time>
      </trkpt>
      <trkpt lat="46.29001" lon="-1.02944">
        <ele>1.7</ele>
        <time>2020-06-02T10:46:37Z</time>
      </trkpt>
      <trkpt lat="46.29006" lon="-1.02944">
        <ele>1.7</ele>
        <time>2020-06-02T10:46:38Z</time>
      </trkpt>
      <trkpt lat="46.29011" lon="-1.02942">
        <ele>1.7</ele>
        <time>2020-06-02T10:46:39Z</time>
      </trkpt>
      <trkpt lat="46.29014" lon="-1.02941">
        <ele>1.7</ele>
        <time>2020-06-02T10:46:40Z</time>
      </trkpt>
      <trkpt lat="46.29018" lon="-1.0294">
        <ele>1.7</ele>
        <time>2020-06-02T10:46:41Z</time>
      </trkpt>
      <trkpt lat="46.29024" lon="-1.02938">
        <ele>1.6</ele>
        <time>2020-06-02T10:46:42Z</time>
      </trkpt>
      <trkpt lat="46.2903" lon="-1.02936">
        <ele>1.6</ele>
        <time>2020-06-02T10:46:43Z</time>
      </trkpt>
      <trkpt lat="46.29035" lon="-1.02935">
        <ele>1.6</ele>
        <time>2020-06-02T10:46:44Z</time>
      </trkpt>
      <trkpt lat="46.29041" lon="-1.02934">
        <ele>1.6</ele>
        <time>2020-06-02T10:46:45Z</time>
      </trkpt>
      <trkpt lat="46.29046" lon="-1.02932">
        <ele>1.6</ele>
        <time>2020-06-02T10:46:46Z</time>
      </trkpt>
      <trkpt lat="46.29051" lon="-1.0293">
        <ele>1.6</ele>
        <time>2020-06-02T10:46:47Z</time>
      </trkpt>
      <trkpt lat="46.29056" lon="-1.02929">
        <ele>1.6</ele>
        <time>2020-06-02T10:46:48Z</time>
      </trkpt>
      <trkpt lat="46.2906" lon="-1.02927">
        <ele>1.6</ele>
        <time>2020-06-02T10:46:49Z</time>
      </trkpt>
      <trkpt lat="46.29065" lon="-1.02926">
        <ele>1.6</ele>
        <time>2020-06-02T10:46:50Z</time>
      </trkpt>
      <trkpt lat="46.2907" lon="-1.02924">
        <ele>1.7</ele>
        <time>2020-06-02T10:46:51Z</time>
      </trkpt>
      <trkpt lat="46.29075" lon="-1.02922">
        <ele>1.7</ele>
        <time>2020-06-02T10:46:52Z</time>
      </trkpt>
      <trkpt lat="46.2908" lon="-1.0292">
        <ele>1.7</ele>
        <time>2020-06-02T10:46:53Z</time>
      </trkpt>
      <trkpt lat="46.29085" lon="-1.02918">
        <ele>1.7</ele>
        <time>2020-06-02T10:46:54Z</time>
      </trkpt>
      <trkpt lat="46.2909" lon="-1.02915">
        <ele>1.6</ele>
        <time>2020-06-02T10:46:55Z</time>
      </trkpt>
      <trkpt lat="46.29095" lon="-1.02913">
        <ele>1.6</ele>
        <time>2020-06-02T10:46:56Z</time>
      </trkpt>
      <trkpt lat="46.29101" lon="-1.0291">
        <ele>1.6</ele>
        <time>2020-06-02T10:46:57Z</time>
      </trkpt>
      <trkpt lat="46.29106" lon="-1.02908">
        <ele>1.6</ele>
        <time>2020-06-02T10:46:58Z</time>
      </trkpt>
      <trkpt lat="46.29111" lon="-1.02905">
        <ele>1.6</ele>
        <time>2020-06-02T10:46:59Z</time>
      </trkpt>
      <trkpt lat="46.29116" lon="-1.02904">
        <ele>1.6</ele>
        <time>2020-06-02T10:47:00Z</time>
      </trkpt>
      <trkpt lat="46.29121" lon="-1.02903">
        <ele>1.6</ele>
        <time>2020-06-02T10:47:01Z</time>
      </trkpt>
      <trkpt lat="46.29126" lon="-1.02902">
        <ele>1.6</ele>
        <time>2020-06-02T10:47:02Z</time>
      </trkpt>
      <trkpt lat="46.29131" lon="-1.029">
        <ele>1.6</ele>
        <time>2020-06-02T10:47:03Z</time>
      </trkpt>
      <trkpt lat="46.29136" lon="-1.02898">
        <ele>1.6</ele>
        <time>2020-06-02T10:47:04Z</time>
      </trkpt>
      <trkpt lat="46.29141" lon="-1.02897">
        <ele>1.7</ele>
        <time>2020-06-02T10:47:05Z</time>
      </trkpt>
      <trkpt lat="46.29146" lon="-1.02895">
        <ele>1.7</ele>
        <time>2020-06-02T10:47:06Z</time>
      </trkpt>
      <trkpt lat="46.29152" lon="-1.02894">
        <ele>1.8</ele>
        <time>2020-06-02T10:47:07Z</time>
      </trkpt>
      <trkpt lat="46.29158" lon="-1.02892">
        <ele>1.8</ele>
        <time>2020-06-02T10:47:08Z</time>
      </trkpt>
      <trkpt lat="46.29163" lon="-1.02889">
        <ele>1.9</ele>
        <time>2020-06-02T10:47:09Z</time>
      </trkpt>
      <trkpt lat="46.29168" lon="-1.02888">
        <ele>2</ele>
        <time>2020-06-02T10:47:10Z</time>
      </trkpt>
      <trkpt lat="46.29173" lon="-1.02885">
        <ele>2</ele>
        <time>2020-06-02T10:47:11Z</time>
      </trkpt>
      <trkpt lat="46.29178" lon="-1.02882">
        <ele>2.1</ele>
        <time>2020-06-02T10:47:12Z</time>
      </trkpt>
      <trkpt lat="46.29183" lon="-1.02881">
        <ele>2.2</ele>
        <time>2020-06-02T10:47:13Z</time>
      </trkpt>
      <trkpt lat="46.29188" lon="-1.02878">
        <ele>2.2</ele>
        <time>2020-06-02T10:47:14Z</time>
      </trkpt>
      <trkpt lat="46.29193" lon="-1.02875">
        <ele>2.3</ele>
        <time>2020-06-02T10:47:15Z</time>
      </trkpt>
      <trkpt lat="46.29199" lon="-1.02872">
        <ele>2.3</ele>
        <time>2020-06-02T10:47:16Z</time>
      </trkpt>
      <trkpt lat="46.29204" lon="-1.02869">
        <ele>2.4</ele>
        <time>2020-06-02T10:47:17Z</time>
      </trkpt>
      <trkpt lat="46.2921" lon="-1.02866">
        <ele>2.5</ele>
        <time>2020-06-02T10:47:18Z</time>
      </trkpt>
      <trkpt lat="46.29217" lon="-1.02864">
        <ele>2.6</ele>
        <time>2020-06-02T10:47:19Z</time>
      </trkpt>
      <trkpt lat="46.29223" lon="-1.02862">
        <ele>2.7</ele>
        <time>2020-06-02T10:47:20Z</time>
      </trkpt>
      <trkpt lat="46.29227" lon="-1.02861">
        <ele>2.8</ele>
        <time>2020-06-02T10:47:21Z</time>
      </trkpt>
      <trkpt lat="46.29231" lon="-1.02861">
        <ele>2.9</ele>
        <time>2020-06-02T10:47:22Z</time>
      </trkpt>
      <trkpt lat="46.29236" lon="-1.02861">
        <ele>2.9</ele>
        <time>2020-06-02T10:47:23Z</time>
      </trkpt>
      <trkpt lat="46.29241" lon="-1.02859">
        <ele>3</ele>
        <time>2020-06-02T10:47:24Z</time>
      </trkpt>
      <trkpt lat="46.29245" lon="-1.02858">
        <ele>3.1</ele>
        <time>2020-06-02T10:47:25Z</time>
      </trkpt>
      <trkpt lat="46.2925" lon="-1.02856">
        <ele>3.1</ele>
        <time>2020-06-02T10:47:26Z</time>
      </trkpt>
      <trkpt lat="46.29254" lon="-1.02855">
        <ele>3.1</ele>
        <time>2020-06-02T10:47:27Z</time>
      </trkpt>
      <trkpt lat="46.29258" lon="-1.02854">
        <ele>3.2</ele>
        <time>2020-06-02T10:47:28Z</time>
      </trkpt>
      <trkpt lat="46.29262" lon="-1.02853">
        <ele>3.2</ele>
        <time>2020-06-02T10:47:29Z</time>
      </trkpt>
      <trkpt lat="46.29267" lon="-1.02851">
        <ele>3.2</ele>
        <time>2020-06-02T10:47:30Z</time>
      </trkpt>
      <trkpt lat="46.29271" lon="-1.0285">
        <ele>3.1</ele>
        <time>2020-06-02T10:47:31Z</time>
      </trkpt>
      <trkpt lat="46.29275" lon="-1.02848">
        <ele>3.1</ele>
        <time>2020-06-02T10:47:32Z</time>
      </trkpt>
      <trkpt lat="46.2928" lon="-1.02847">
        <ele>3.1</ele>
        <time>2020-06-02T10:47:33Z</time>
      </trkpt>
      <trkpt lat="46.29284" lon="-1.02845">
        <ele>3</ele>
        <time>2020-06-02T10:47:34Z</time>
      </trkpt>
      <trkpt lat="46.29289" lon="-1.02841">
        <ele>3</ele>
        <time>2020-06-02T10:47:35Z</time>
      </trkpt>
      <trkpt lat="46.29294" lon="-1.02838">
        <ele>2.9</ele>
        <time>2020-06-02T10:47:36Z</time>
      </trkpt>
      <trkpt lat="46.29299" lon="-1.02836">
        <ele>2.9</ele>
        <time>2020-06-02T10:47:37Z</time>
      </trkpt>
      <trkpt lat="46.29304" lon="-1.02834">
        <ele>2.8</ele>
        <time>2020-06-02T10:47:38Z</time>
      </trkpt>
      <trkpt lat="46.29309" lon="-1.02831">
        <ele>2.8</ele>
        <time>2020-06-02T10:47:39Z</time>
      </trkpt>
      <trkpt lat="46.29313" lon="-1.0283">
        <ele>2.8</ele>
        <time>2020-06-02T10:47:40Z</time>
      </trkpt>
      <trkpt lat="46.29319" lon="-1.02828">
        <ele>2.7</ele>
        <time>2020-06-02T10:47:41Z</time>
      </trkpt>
      <trkpt lat="46.29324" lon="-1.02825">
        <ele>2.7</ele>
        <time>2020-06-02T10:47:42Z</time>
      </trkpt>
      <trkpt lat="46.29329" lon="-1.02823">
        <ele>2.6</ele>
        <time>2020-06-02T10:47:43Z</time>
      </trkpt>
      <trkpt lat="46.29334" lon="-1.02821">
        <ele>2.6</ele>
        <time>2020-06-02T10:47:44Z</time>
      </trkpt>
      <trkpt lat="46.29339" lon="-1.02819">
        <ele>2.5</ele>
        <time>2020-06-02T10:47:45Z</time>
      </trkpt>
      <trkpt lat="46.29345" lon="-1.02818">
        <ele>2.4</ele>
        <time>2020-06-02T10:47:46Z</time>
      </trkpt>
      <trkpt lat="46.29351" lon="-1.02816">
        <ele>2.4</ele>
        <time>2020-06-02T10:47:47Z</time>
      </trkpt>
      <trkpt lat="46.29356" lon="-1.02814">
        <ele>2.3</ele>
        <time>2020-06-02T10:47:48Z</time>
      </trkpt>
      <trkpt lat="46.29361" lon="-1.02813">
        <ele>2.3</ele>
        <time>2020-06-02T10:47:49Z</time>
      </trkpt>
      <trkpt lat="46.29366" lon="-1.02812">
        <ele>2.2</ele>
        <time>2020-06-02T10:47:50Z</time>
      </trkpt>
      <trkpt lat="46.29372" lon="-1.0281">
        <ele>2.2</ele>
        <time>2020-06-02T10:47:51Z</time>
      </trkpt>
      <trkpt lat="46.29378" lon="-1.02808">
        <ele>2.1</ele>
        <time>2020-06-02T10:47:52Z</time>
      </trkpt>
      <trkpt lat="46.29383" lon="-1.02806">
        <ele>2.1</ele>
        <time>2020-06-02T10:47:53Z</time>
      </trkpt>
      <trkpt lat="46.29389" lon="-1.02804">
        <ele>2</ele>
        <time>2020-06-02T10:47:54Z</time>
      </trkpt>
      <trkpt lat="46.29395" lon="-1.028">
        <ele>2</ele>
        <time>2020-06-02T10:47:55Z</time>
      </trkpt>
      <trkpt lat="46.294" lon="-1.02798">
        <ele>2</ele>
        <time>2020-06-02T10:47:56Z</time>
      </trkpt>
      <trkpt lat="46.29406" lon="-1.02796">
        <ele>2</ele>
        <time>2020-06-02T10:47:57Z</time>
      </trkpt>
      <trkpt lat="46.29412" lon="-1.02794">
        <ele>2</ele>
        <time>2020-06-02T10:47:58Z</time>
      </trkpt>
      <trkpt lat="46.29418" lon="-1.02793">
        <ele>2</ele>
        <time>2020-06-02T10:47:59Z</time>
      </trkpt>
      <trkpt lat="46.29423" lon="-1.02791">
        <ele>2</ele>
        <time>2020-06-02T10:48:00Z</time>
      </trkpt>
      <trkpt lat="46.29428" lon="-1.02789">
        <ele>2</ele>
        <time>2020-06-02T10:48:01Z</time>
      </trkpt>
      <trkpt lat="46.29433" lon="-1.02786">
        <ele>1.9</ele>
        <time>2020-06-02T10:48:02Z</time>
      </trkpt>
      <trkpt lat="46.29438" lon="-1.02784">
        <ele>1.9</ele>
        <time>2020-06-02T10:48:03Z</time>
      </trkpt>
      <trkpt lat="46.29444" lon="-1.02782">
        <ele>1.9</ele>
        <time>2020-06-02T10:48:04Z</time>
      </trkpt>
      <trkpt lat="46.2945" lon="-1.0278">
        <ele>1.9</ele>
        <time>2020-06-02T10:48:05Z</time>
      </trkpt>
      <trkpt lat="46.29456" lon="-1.02778">
        <ele>1.9</ele>
        <time>2020-06-02T10:48:06Z</time>
      </trkpt>
      <trkpt lat="46.29462" lon="-1.02776">
        <ele>1.9</ele>
        <time>2020-06-02T10:48:07Z</time>
      </trkpt>
      <trkpt lat="46.29467" lon="-1.02774">
        <ele>1.9</ele>
        <time>2020-06-02T10:48:08Z</time>
      </trkpt>
      <trkpt lat="46.29473" lon="-1.02772">
        <ele>1.9</ele>
        <time>2020-06-02T10:48:09Z</time>
      </trkpt>
      <trkpt lat="46.29479" lon="-1.02771">
        <ele>1.9</ele>
        <time>2020-06-02T10:48:10Z</time>
      </trkpt>
      <trkpt lat="46.29484" lon="-1.02769">
        <ele>1.9</ele>
        <time>2020-06-02T10:48:11Z</time>
      </trkpt>
      <trkpt lat="46.29489" lon="-1.02767">
        <ele>1.9</ele>
        <time>2020-06-02T10:48:12Z</time>
      </trkpt>
      <trkpt lat="46.29495" lon="-1.02766">
        <ele>1.9</ele>
        <time>2020-06-02T10:48:13Z</time>
      </trkpt>
      <trkpt lat="46.295" lon="-1.02763">
        <ele>1.9</ele>
        <time>2020-06-02T10:48:14Z</time>
      </trkpt>
      <trkpt lat="46.29506" lon="-1.02762">
        <ele>1.9</ele>
        <time>2020-06-02T10:48:15Z</time>
      </trkpt>
      <trkpt lat="46.29512" lon="-1.0276">
        <ele>1.9</ele>
        <time>2020-06-02T10:48:16Z</time>
      </trkpt>
      <trkpt lat="46.29518" lon="-1.02758">
        <ele>1.9</ele>
        <time>2020-06-02T10:48:17Z</time>
      </trkpt>
      <trkpt lat="46.29524" lon="-1.02755">
        <ele>1.9</ele>
        <time>2020-06-02T10:48:18Z</time>
      </trkpt>
      <trkpt lat="46.2953" lon="-1.02752">
        <ele>1.9</ele>
        <time>2020-06-02T10:48:19Z</time>
      </trkpt>
      <trkpt lat="46.29537" lon="-1.0275">
        <ele>1.9</ele>
        <time>2020-06-02T10:48:20Z</time>
      </trkpt>
      <trkpt lat="46.29543" lon="-1.02747">
        <ele>1.9</ele>
        <time>2020-06-02T10:48:21Z</time>
      </trkpt>
      <trkpt lat="46.29548" lon="-1.02745">
        <ele>1.9</ele>
        <time>2020-06-02T10:48:22Z</time>
      </trkpt>
      <trkpt lat="46.29554" lon="-1.02743">
        <ele>1.9</ele>
        <time>2020-06-02T10:48:23Z</time>
      </trkpt>
      <trkpt lat="46.29559" lon="-1.02739">
        <ele>1.9</ele>
        <time>2020-06-02T10:48:24Z</time>
      </trkpt>
      <trkpt lat="46.29564" lon="-1.02737">
        <ele>1.9</ele>
        <time>2020-06-02T10:48:25Z</time>
      </trkpt>
      <trkpt lat="46.29571" lon="-1.02735">
        <ele>1.8</ele>
        <time>2020-06-02T10:48:26Z</time>
      </trkpt>
      <trkpt lat="46.29577" lon="-1.02734">
        <ele>1.8</ele>
        <time>2020-06-02T10:48:27Z</time>
      </trkpt>
      <trkpt lat="46.29583" lon="-1.02732">
        <ele>1.8</ele>
        <time>2020-06-02T10:48:28Z</time>
      </trkpt>
      <trkpt lat="46.29589" lon="-1.02729">
        <ele>1.8</ele>
        <time>2020-06-02T10:48:29Z</time>
      </trkpt>
      <trkpt lat="46.29594" lon="-1.02727">
        <ele>1.8</ele>
        <time>2020-06-02T10:48:30Z</time>
      </trkpt>
      <trkpt lat="46.29599" lon="-1.02726">
        <ele>1.8</ele>
        <time>2020-06-02T10:48:31Z</time>
      </trkpt>
      <trkpt lat="46.29604" lon="-1.02723">
        <ele>1.8</ele>
        <time>2020-06-02T10:48:32Z</time>
      </trkpt>
      <trkpt lat="46.2961" lon="-1.02721">
        <ele>1.8</ele>
        <time>2020-06-02T10:48:33Z</time>
      </trkpt>
      <trkpt lat="46.29616" lon="-1.02718">
        <ele>1.8</ele>
        <time>2020-06-02T10:48:34Z</time>
      </trkpt>
      <trkpt lat="46.29623" lon="-1.02714">
        <ele>1.8</ele>
        <time>2020-06-02T10:48:35Z</time>
      </trkpt>
      <trkpt lat="46.29627" lon="-1.02713">
        <ele>1.8</ele>
        <time>2020-06-02T10:48:36Z</time>
      </trkpt>
      <trkpt lat="46.29633" lon="-1.02712">
        <ele>1.8</ele>
        <time>2020-06-02T10:48:37Z</time>
      </trkpt>
      <trkpt lat="46.29639" lon="-1.0271">
        <ele>1.8</ele>
        <time>2020-06-02T10:48:38Z</time>
      </trkpt>
      <trkpt lat="46.29645" lon="-1.02708">
        <ele>1.8</ele>
        <time>2020-06-02T10:48:39Z</time>
      </trkpt>
      <trkpt lat="46.29652" lon="-1.02706">
        <ele>1.8</ele>
        <time>2020-06-02T10:48:40Z</time>
      </trkpt>
      <trkpt lat="46.29658" lon="-1.02705">
        <ele>1.8</ele>
        <time>2020-06-02T10:48:41Z</time>
      </trkpt>
      <trkpt lat="46.29663" lon="-1.02703">
        <ele>1.8</ele>
        <time>2020-06-02T10:48:42Z</time>
      </trkpt>
      <trkpt lat="46.29668" lon="-1.02701">
        <ele>1.8</ele>
        <time>2020-06-02T10:48:43Z</time>
      </trkpt>
      <trkpt lat="46.29672" lon="-1.02698">
        <ele>1.8</ele>
        <time>2020-06-02T10:48:44Z</time>
      </trkpt>
      <trkpt lat="46.29677" lon="-1.02696">
        <ele>1.8</ele>
        <time>2020-06-02T10:48:45Z</time>
      </trkpt>
      <trkpt lat="46.29683" lon="-1.02693">
        <ele>1.8</ele>
        <time>2020-06-02T10:48:46Z</time>
      </trkpt>
      <trkpt lat="46.29687" lon="-1.02691">
        <ele>1.8</ele>
        <time>2020-06-02T10:48:47Z</time>
      </trkpt>
      <trkpt lat="46.29693" lon="-1.02689">
        <ele>1.8</ele>
        <time>2020-06-02T10:48:48Z</time>
      </trkpt>
      <trkpt lat="46.297" lon="-1.02688">
        <ele>1.8</ele>
        <time>2020-06-02T10:48:49Z</time>
      </trkpt>
      <trkpt lat="46.29706" lon="-1.02686">
        <ele>1.8</ele>
        <time>2020-06-02T10:48:50Z</time>
      </trkpt>
      <trkpt lat="46.29711" lon="-1.02683">
        <ele>1.8</ele>
        <time>2020-06-02T10:48:51Z</time>
      </trkpt>
      <trkpt lat="46.29716" lon="-1.02681">
        <ele>1.9</ele>
        <time>2020-06-02T10:48:52Z</time>
      </trkpt>
      <trkpt lat="46.29721" lon="-1.0268">
        <ele>1.9</ele>
        <time>2020-06-02T10:48:53Z</time>
      </trkpt>
      <trkpt lat="46.29726" lon="-1.02678">
        <ele>1.9</ele>
        <time>2020-06-02T10:48:54Z</time>
      </trkpt>
      <trkpt lat="46.29732" lon="-1.02675">
        <ele>1.9</ele>
        <time>2020-06-02T10:48:55Z</time>
      </trkpt>
      <trkpt lat="46.29738" lon="-1.02672">
        <ele>1.9</ele>
        <time>2020-06-02T10:48:56Z</time>
      </trkpt>
      <trkpt lat="46.29744" lon="-1.0267">
        <ele>1.9</ele>
        <time>2020-06-02T10:48:57Z</time>
      </trkpt>
      <trkpt lat="46.2975" lon="-1.02668">
        <ele>1.9</ele>
        <time>2020-06-02T10:48:58Z</time>
      </trkpt>
      <trkpt lat="46.29755" lon="-1.02666">
        <ele>2</ele>
        <time>2020-06-02T10:48:59Z</time>
      </trkpt>
      <trkpt lat="46.29761" lon="-1.02665">
        <ele>2</ele>
        <time>2020-06-02T10:49:00Z</time>
      </trkpt>
      <trkpt lat="46.29766" lon="-1.02663">
        <ele>2</ele>
        <time>2020-06-02T10:49:01Z</time>
      </trkpt>
      <trkpt lat="46.29771" lon="-1.0266">
        <ele>2</ele>
        <time>2020-06-02T10:49:02Z</time>
      </trkpt>
      <trkpt lat="46.29777" lon="-1.02658">
        <ele>2.1</ele>
        <time>2020-06-02T10:49:03Z</time>
      </trkpt>
      <trkpt lat="46.29782" lon="-1.02657">
        <ele>2.1</ele>
        <time>2020-06-02T10:49:04Z</time>
      </trkpt>
      <trkpt lat="46.29787" lon="-1.02654">
        <ele>2.1</ele>
        <time>2020-06-02T10:49:05Z</time>
      </trkpt>
      <trkpt lat="46.29793" lon="-1.02653">
        <ele>2.1</ele>
        <time>2020-06-02T10:49:06Z</time>
      </trkpt>
      <trkpt lat="46.29798" lon="-1.02651">
        <ele>2.2</ele>
        <time>2020-06-02T10:49:07Z</time>
      </trkpt>
      <trkpt lat="46.29803" lon="-1.02649">
        <ele>2.2</ele>
        <time>2020-06-02T10:49:08Z</time>
      </trkpt>
      <trkpt lat="46.29808" lon="-1.02648">
        <ele>2.2</ele>
        <time>2020-06-02T10:49:09Z</time>
      </trkpt>
      <trkpt lat="46.29813" lon="-1.02645">
        <ele>2.3</ele>
        <time>2020-06-02T10:49:10Z</time>
      </trkpt>
      <trkpt lat="46.29818" lon="-1.02643">
        <ele>2.3</ele>
        <time>2020-06-02T10:49:11Z</time>
      </trkpt>
      <trkpt lat="46.29824" lon="-1.02641">
        <ele>2.3</ele>
        <time>2020-06-02T10:49:12Z</time>
      </trkpt>
      <trkpt lat="46.29829" lon="-1.02639">
        <ele>2.4</ele>
        <time>2020-06-02T10:49:13Z</time>
      </trkpt>
      <trkpt lat="46.29835" lon="-1.02638">
        <ele>2.4</ele>
        <time>2020-06-02T10:49:14Z</time>
      </trkpt>
      <trkpt lat="46.29841" lon="-1.02635">
        <ele>2.4</ele>
        <time>2020-06-02T10:49:15Z</time>
      </trkpt>
      <trkpt lat="46.29846" lon="-1.02634">
        <ele>2.4</ele>
        <time>2020-06-02T10:49:16Z</time>
      </trkpt>
      <trkpt lat="46.29851" lon="-1.02632">
        <ele>2.5</ele>
        <time>2020-06-02T10:49:17Z</time>
      </trkpt>
      <trkpt lat="46.29856" lon="-1.0263">
        <ele>2.5</ele>
        <time>2020-06-02T10:49:18Z</time>
      </trkpt>
      <trkpt lat="46.2986" lon="-1.02629">
        <ele>2.5</ele>
        <time>2020-06-02T10:49:19Z</time>
      </trkpt>
      <trkpt lat="46.29865" lon="-1.02626">
        <ele>2.5</ele>
        <time>2020-06-02T10:49:20Z</time>
      </trkpt>
      <trkpt lat="46.2987" lon="-1.02624">
        <ele>2.5</ele>
        <time>2020-06-02T10:49:21Z</time>
      </trkpt>
      <trkpt lat="46.29874" lon="-1.02621">
        <ele>2.6</ele>
        <time>2020-06-02T10:49:22Z</time>
      </trkpt>
      <trkpt lat="46.2988" lon="-1.0262">
        <ele>2.7</ele>
        <time>2020-06-02T10:49:23Z</time>
      </trkpt>
      <trkpt lat="46.29885" lon="-1.02618">
        <ele>2.8</ele>
        <time>2020-06-02T10:49:24Z</time>
      </trkpt>
      <trkpt lat="46.29889" lon="-1.02616">
        <ele>2.9</ele>
        <time>2020-06-02T10:49:25Z</time>
      </trkpt>
      <trkpt lat="46.29893" lon="-1.02614">
        <ele>3</ele>
        <time>2020-06-02T10:49:26Z</time>
      </trkpt>
      <trkpt lat="46.29897" lon="-1.02609">
        <ele>3.1</ele>
        <time>2020-06-02T10:49:27Z</time>
      </trkpt>
      <trkpt lat="46.29899" lon="-1.02604">
        <ele>3.2</ele>
        <time>2020-06-02T10:49:28Z</time>
      </trkpt>
      <trkpt lat="46.29901" lon="-1.02599">
        <ele>3.3</ele>
        <time>2020-06-02T10:49:29Z</time>
      </trkpt>
      <trkpt lat="46.29902" lon="-1.02593">
        <ele>3.3</ele>
        <time>2020-06-02T10:49:30Z</time>
      </trkpt>
      <trkpt lat="46.29903" lon="-1.02589">
        <ele>3.4</ele>
        <time>2020-06-02T10:49:31Z</time>
      </trkpt>
      <trkpt lat="46.29904" lon="-1.02587">
        <ele>3.3</ele>
        <time>2020-06-02T10:49:32Z</time>
      </trkpt>
      <trkpt lat="46.29906" lon="-1.02586">
        <ele>3.2</ele>
        <time>2020-06-02T10:49:33Z</time>
      </trkpt>
      <trkpt lat="46.2991" lon="-1.02583">
        <ele>3.2</ele>
        <time>2020-06-02T10:49:34Z</time>
      </trkpt>
      <trkpt lat="46.29912" lon="-1.02583">
        <ele>3.2</ele>
        <time>2020-06-02T10:49:35Z</time>
      </trkpt>
      <trkpt lat="46.29915" lon="-1.02581">
        <ele>3.1</ele>
        <time>2020-06-02T10:49:36Z</time>
      </trkpt>
      <trkpt lat="46.29917" lon="-1.0258">
        <ele>3.1</ele>
        <time>2020-06-02T10:49:37Z</time>
      </trkpt>
      <trkpt lat="46.29921" lon="-1.02579">
        <ele>3</ele>
        <time>2020-06-02T10:49:38Z</time>
      </trkpt>
      <trkpt lat="46.29923" lon="-1.02579">
        <ele>3</ele>
        <time>2020-06-02T10:49:39Z</time>
      </trkpt>
      <trkpt lat="46.29926" lon="-1.02579">
        <ele>2.9</ele>
        <time>2020-06-02T10:49:40Z</time>
      </trkpt>
      <trkpt lat="46.29929" lon="-1.02582">
        <ele>2.9</ele>
        <time>2020-06-02T10:49:41Z</time>
      </trkpt>
      <trkpt lat="46.2993" lon="-1.02583">
        <ele>2.8</ele>
        <time>2020-06-02T10:49:42Z</time>
      </trkpt>
      <trkpt lat="46.29932" lon="-1.02586">
        <ele>2.8</ele>
        <time>2020-06-02T10:49:43Z</time>
      </trkpt>
      <trkpt lat="46.29934" lon="-1.0259">
        <ele>2.7</ele>
        <time>2020-06-02T10:49:44Z</time>
      </trkpt>
      <trkpt lat="46.29937" lon="-1.02592">
        <ele>2.7</ele>
        <time>2020-06-02T10:49:45Z</time>
      </trkpt>
      <trkpt lat="46.29939" lon="-1.02593">
        <ele>2.6</ele>
        <time>2020-06-02T10:49:46Z</time>
      </trkpt>
      <trkpt lat="46.29944" lon="-1.02592">
        <ele>2.5</ele>
        <time>2020-06-02T10:49:47Z</time>
      </trkpt>
      <trkpt lat="46.29945" lon="-1.02591">
        <ele>2.5</ele>
        <time>2020-06-02T10:49:48Z</time>
      </trkpt>
      <trkpt lat="46.29949" lon="-1.0259">
        <ele>2.4</ele>
        <time>2020-06-02T10:49:49Z</time>
      </trkpt>
      <trkpt lat="46.29953" lon="-1.02589">
        <ele>2.3</ele>
        <time>2020-06-02T10:49:50Z</time>
      </trkpt>
      <trkpt lat="46.29957" lon="-1.02588">
        <ele>2.2</ele>
        <time>2020-06-02T10:49:51Z</time>
      </trkpt>
      <trkpt lat="46.29961" lon="-1.02586">
        <ele>2.2</ele>
        <time>2020-06-02T10:49:52Z</time>
      </trkpt>
      <trkpt lat="46.29965" lon="-1.02585">
        <ele>2.1</ele>
        <time>2020-06-02T10:49:53Z</time>
      </trkpt>
      <trkpt lat="46.29968" lon="-1.02584">
        <ele>2.1</ele>
        <time>2020-06-02T10:49:54Z</time>
      </trkpt>
      <trkpt lat="46.29972" lon="-1.02583">
        <ele>2.1</ele>
        <time>2020-06-02T10:49:55Z</time>
      </trkpt>
      <trkpt lat="46.29976" lon="-1.02582">
        <ele>2.1</ele>
        <time>2020-06-02T10:49:56Z</time>
      </trkpt>
      <trkpt lat="46.2998" lon="-1.0258">
        <ele>2.1</ele>
        <time>2020-06-02T10:49:57Z</time>
      </trkpt>
      <trkpt lat="46.29984" lon="-1.02578">
        <ele>2.1</ele>
        <time>2020-06-02T10:49:58Z</time>
      </trkpt>
      <trkpt lat="46.29988" lon="-1.02577">
        <ele>2.1</ele>
        <time>2020-06-02T10:49:59Z</time>
      </trkpt>
      <trkpt lat="46.29992" lon="-1.02574">
        <ele>2.1</ele>
        <time>2020-06-02T10:50:00Z</time>
      </trkpt>
      <trkpt lat="46.29995" lon="-1.02574">
        <ele>2.1</ele>
        <time>2020-06-02T10:50:01Z</time>
      </trkpt>
      <trkpt lat="46.29999" lon="-1.02573">
        <ele>2.2</ele>
        <time>2020-06-02T10:50:02Z</time>
      </trkpt>
      <trkpt lat="46.30002" lon="-1.02574">
        <ele>2.2</ele>
        <time>2020-06-02T10:50:03Z</time>
      </trkpt>
      <trkpt lat="46.30006" lon="-1.02572">
        <ele>2.2</ele>
        <time>2020-06-02T10:50:04Z</time>
      </trkpt>
      <trkpt lat="46.3001" lon="-1.02571">
        <ele>2.2</ele>
        <time>2020-06-02T10:50:05Z</time>
      </trkpt>
      <trkpt lat="46.30014" lon="-1.0257">
        <ele>2.2</ele>
        <time>2020-06-02T10:50:06Z</time>
      </trkpt>
      <trkpt lat="46.30018" lon="-1.02569">
        <ele>2.3</ele>
        <time>2020-06-02T10:50:07Z</time>
      </trkpt>
      <trkpt lat="46.30022" lon="-1.02567">
        <ele>2.3</ele>
        <time>2020-06-02T10:50:08Z</time>
      </trkpt>
      <trkpt lat="46.30025" lon="-1.02566">
        <ele>2.3</ele>
        <time>2020-06-02T10:50:09Z</time>
      </trkpt>
      <trkpt lat="46.30029" lon="-1.02564">
        <ele>2.3</ele>
        <time>2020-06-02T10:50:10Z</time>
      </trkpt>
      <trkpt lat="46.30032" lon="-1.02563">
        <ele>2.3</ele>
        <time>2020-06-02T10:50:11Z</time>
      </trkpt>
      <trkpt lat="46.30035" lon="-1.02562">
        <ele>2.3</ele>
        <time>2020-06-02T10:50:12Z</time>
      </trkpt>
      <trkpt lat="46.30039" lon="-1.02562">
        <ele>2.3</ele>
        <time>2020-06-02T10:50:13Z</time>
      </trkpt>
      <trkpt lat="46.30042" lon="-1.02559">
        <ele>2.4</ele>
        <time>2020-06-02T10:50:14Z</time>
      </trkpt>
      <trkpt lat="46.30045" lon="-1.02557">
        <ele>2.3</ele>
        <time>2020-06-02T10:50:15Z</time>
      </trkpt>
      <trkpt lat="46.3005" lon="-1.02556">
        <ele>2.4</ele>
        <time>2020-06-02T10:50:16Z</time>
      </trkpt>
      <trkpt lat="46.30051" lon="-1.02556">
        <ele>2.4</ele>
        <time>2020-06-02T10:50:17Z</time>
      </trkpt>
      <trkpt lat="46.30056" lon="-1.02554">
        <ele>2.4</ele>
        <time>2020-06-02T10:50:18Z</time>
      </trkpt>
      <trkpt lat="46.30059" lon="-1.02553">
        <ele>2.5</ele>
        <time>2020-06-02T10:50:19Z</time>
      </trkpt>
      <trkpt lat="46.30062" lon="-1.02551">
        <ele>2.5</ele>
        <time>2020-06-02T10:50:20Z</time>
      </trkpt>
      <trkpt lat="46.30064" lon="-1.02549">
        <ele>2.6</ele>
        <time>2020-06-02T10:50:21Z</time>
      </trkpt>
      <trkpt lat="46.30067" lon="-1.02546">
        <ele>2.6</ele>
        <time>2020-06-02T10:50:22Z</time>
      </trkpt>
      <trkpt lat="46.30071" lon="-1.02543">
        <ele>2.7</ele>
        <time>2020-06-02T10:50:23Z</time>
      </trkpt>
      <trkpt lat="46.30073" lon="-1.02538">
        <ele>2.8</ele>
        <time>2020-06-02T10:50:24Z</time>
      </trkpt>
      <trkpt lat="46.30073" lon="-1.02536">
        <ele>2.8</ele>
        <time>2020-06-02T10:50:25Z</time>
      </trkpt>
      <trkpt lat="46.30074" lon="-1.02532">
        <ele>2.8</ele>
        <time>2020-06-02T10:50:26Z</time>
      </trkpt>
      <trkpt lat="46.30074" lon="-1.02527">
        <ele>2.9</ele>
        <time>2020-06-02T10:50:27Z</time>
      </trkpt>
      <trkpt lat="46.30074" lon="-1.02525">
        <ele>2.9</ele>
        <time>2020-06-02T10:50:28Z</time>
      </trkpt>
      <trkpt lat="46.30077" lon="-1.02522">
        <ele>3</ele>
        <time>2020-06-02T10:50:29Z</time>
      </trkpt>
      <trkpt lat="46.30079" lon="-1.02519">
        <ele>3</ele>
        <time>2020-06-02T10:50:30Z</time>
      </trkpt>
      <trkpt lat="46.30082" lon="-1.02518">
        <ele>3.1</ele>
        <time>2020-06-02T10:50:31Z</time>
      </trkpt>
      <trkpt lat="46.30085" lon="-1.02519">
        <ele>3.1</ele>
        <time>2020-06-02T10:50:32Z</time>
      </trkpt>
      <trkpt lat="46.30087" lon="-1.02516">
        <ele>3.1</ele>
        <time>2020-06-02T10:50:33Z</time>
      </trkpt>
      <trkpt lat="46.30089" lon="-1.02515">
        <ele>3.2</ele>
        <time>2020-06-02T10:50:34Z</time>
      </trkpt>
      <trkpt lat="46.3009" lon="-1.02514">
        <ele>3.2</ele>
        <time>2020-06-02T10:50:35Z</time>
      </trkpt>
      <trkpt lat="46.30094" lon="-1.02511">
        <ele>3.2</ele>
        <time>2020-06-02T10:50:36Z</time>
      </trkpt>
      <trkpt lat="46.30095" lon="-1.02511">
        <ele>3.2</ele>
        <time>2020-06-02T10:50:37Z</time>
      </trkpt>
      <trkpt lat="46.30098" lon="-1.02509">
        <ele>3.2</ele>
        <time>2020-06-02T10:50:38Z</time>
      </trkpt>
      <trkpt lat="46.30099" lon="-1.02509">
        <ele>3.2</ele>
        <time>2020-06-02T10:50:39Z</time>
      </trkpt>
      <trkpt lat="46.30103" lon="-1.02509">
        <ele>3.2</ele>
        <time>2020-06-02T10:50:40Z</time>
      </trkpt>
      <trkpt lat="46.30104" lon="-1.02509">
        <ele>3.2</ele>
        <time>2020-06-02T10:50:41Z</time>
      </trkpt>
      <trkpt lat="46.30106" lon="-1.02512">
        <ele>3.1</ele>
        <time>2020-06-02T10:50:42Z</time>
      </trkpt>
      <trkpt lat="46.30108" lon="-1.02517">
        <ele>3.1</ele>
        <time>2020-06-02T10:50:43Z</time>
      </trkpt>
      <trkpt lat="46.30111" lon="-1.02522">
        <ele>3.1</ele>
        <time>2020-06-02T10:50:44Z</time>
      </trkpt>
      <trkpt lat="46.30114" lon="-1.02524">
        <ele>3</ele>
        <time>2020-06-02T10:50:45Z</time>
      </trkpt>
      <trkpt lat="46.30117" lon="-1.02525">
        <ele>3</ele>
        <time>2020-06-02T10:50:46Z</time>
      </trkpt>
      <trkpt lat="46.3012" lon="-1.02524">
        <ele>3</ele>
        <time>2020-06-02T10:50:47Z</time>
      </trkpt>
      <trkpt lat="46.30124" lon="-1.02523">
        <ele>3</ele>
        <time>2020-06-02T10:50:48Z</time>
      </trkpt>
      <trkpt lat="46.30128" lon="-1.02521">
        <ele>2.9</ele>
        <time>2020-06-02T10:50:49Z</time>
      </trkpt>
      <trkpt lat="46.30131" lon="-1.02519">
        <ele>2.9</ele>
        <time>2020-06-02T10:50:50Z</time>
      </trkpt>
      <trkpt lat="46.30134" lon="-1.02518">
        <ele>2.9</ele>
        <time>2020-06-02T10:50:51Z</time>
      </trkpt>
      <trkpt lat="46.30137" lon="-1.02519">
        <ele>2.9</ele>
        <time>2020-06-02T10:50:52Z</time>
      </trkpt>
      <trkpt lat="46.3014" lon="-1.02518">
        <ele>2.9</ele>
        <time>2020-06-02T10:50:53Z</time>
      </trkpt>
      <trkpt lat="46.30144" lon="-1.02518">
        <ele>2.8</ele>
        <time>2020-06-02T10:50:54Z</time>
      </trkpt>
      <trkpt lat="46.30147" lon="-1.02518">
        <ele>2.8</ele>
        <time>2020-06-02T10:50:55Z</time>
      </trkpt>
      <trkpt lat="46.30151" lon="-1.02517">
        <ele>2.8</ele>
        <time>2020-06-02T10:50:56Z</time>
      </trkpt>
      <trkpt lat="46.30152" lon="-1.02516">
        <ele>2.7</ele>
        <time>2020-06-02T10:50:57Z</time>
      </trkpt>
      <trkpt lat="46.30155" lon="-1.02516">
        <ele>2.7</ele>
        <time>2020-06-02T10:50:58Z</time>
      </trkpt>
      <trkpt lat="46.30158" lon="-1.02514">
        <ele>2.7</ele>
        <time>2020-06-02T10:50:59Z</time>
      </trkpt>
      <trkpt lat="46.30159" lon="-1.02514">
        <ele>2.7</ele>
        <time>2020-06-02T10:51:00Z</time>
      </trkpt>
      <trkpt lat="46.3016" lon="-1.02513">
        <ele>2.7</ele>
        <time>2020-06-02T10:51:01Z</time>
      </trkpt>
      <trkpt lat="46.30161" lon="-1.02511">
        <ele>2.7</ele>
        <time>2020-06-02T10:51:02Z</time>
      </trkpt>
      <trkpt lat="46.30161" lon="-1.02511">
        <ele>2.7</ele>
        <time>2020-06-02T10:51:03Z</time>
      </trkpt>
      <trkpt lat="46.30162" lon="-1.02511">
        <ele>2.7</ele>
        <time>2020-06-02T10:51:04Z</time>
      </trkpt>
      <trkpt lat="46.30162" lon="-1.02511">
        <ele>2.7</ele>
        <time>2020-06-02T10:51:05Z</time>
      </trkpt>
      <trkpt lat="46.30162" lon="-1.02511">
        <ele>2.7</ele>
        <time>2020-06-02T10:51:06Z</time>
      </trkpt>
      <trkpt lat="46.30162" lon="-1.02511">
        <ele>2.7</ele>
        <time>2020-06-02T10:51:07Z</time>
      </trkpt>
      <trkpt lat="46.30162" lon="-1.02511">
        <ele>2.7</ele>
        <time>2020-06-02T10:51:08Z</time>
      </trkpt>
      <trkpt lat="46.30162" lon="-1.02511">
        <ele>2.7</ele>
        <time>2020-06-02T10:51:09Z</time>
      </trkpt>
      <trkpt lat="46.30162" lon="-1.02511">
        <ele>2.7</ele>
        <time>2020-06-02T10:51:10Z</time>
      </trkpt>
      <trkpt lat="46.30162" lon="-1.02511">
        <ele>2.7</ele>
        <time>2020-06-02T10:51:11Z</time>
      </trkpt>
      <trkpt lat="46.30162" lon="-1.02511">
        <ele>2.7</ele>
        <time>2020-06-02T10:51:12Z</time>
      </trkpt>
      <trkpt lat="46.30162" lon="-1.02511">
        <ele>2.7</ele>
        <time>2020-06-02T10:51:13Z</time>
      </trkpt>
      <trkpt lat="46.30162" lon="-1.02511">
        <ele>2.7</ele>
        <time>2020-06-02T10:51:14Z</time>
      </trkpt>
      <trkpt lat="46.30162" lon="-1.02511">
        <ele>2.7</ele>
        <time>2020-06-02T10:51:15Z</time>
      </trkpt>
      <trkpt lat="46.30161" lon="-1.02511">
        <ele>2.7</ele>
        <time>2020-06-02T10:51:16Z</time>
      </trkpt>
      <trkpt lat="46.30161" lon="-1.02511">
        <ele>2.7</ele>
        <time>2020-06-02T10:51:17Z</time>
      </trkpt>
      <trkpt lat="46.30161" lon="-1.02511">
        <ele>2.7</ele>
        <time>2020-06-02T10:51:18Z</time>
      </trkpt>
      <trkpt lat="46.30161" lon="-1.02511">
        <ele>2.7</ele>
        <time>2020-06-02T10:51:19Z</time>
      </trkpt>
      <trkpt lat="46.30161" lon="-1.02511">
        <ele>2.7</ele>
        <time>2020-06-02T10:51:20Z</time>
      </trkpt>
      <trkpt lat="46.30161" lon="-1.02512">
        <ele>2.7</ele>
        <time>2020-06-02T10:51:21Z</time>
      </trkpt>
      <trkpt lat="46.30161" lon="-1.02512">
        <ele>2.7</ele>
        <time>2020-06-02T10:51:22Z</time>
      </trkpt>
      <trkpt lat="46.30161" lon="-1.02512">
        <ele>2.7</ele>
        <time>2020-06-02T10:51:23Z</time>
      </trkpt>
      <trkpt lat="46.30161" lon="-1.02512">
        <ele>2.7</ele>
        <time>2020-06-02T10:51:24Z</time>
      </trkpt>
      <trkpt lat="46.30161" lon="-1.02512">
        <ele>2.7</ele>
        <time>2020-06-02T10:51:25Z</time>
      </trkpt>
      <trkpt lat="46.30161" lon="-1.02512">
        <ele>2.7</ele>
        <time>2020-06-02T10:51:26Z</time>
      </trkpt>
      <trkpt lat="46.30161" lon="-1.02512">
        <ele>2.7</ele>
        <time>2020-06-02T10:51:27Z</time>
      </trkpt>
      <trkpt lat="46.30161" lon="-1.02512">
        <ele>2.7</ele>
        <time>2020-06-02T10:51:28Z</time>
      </trkpt>
      <trkpt lat="46.30161" lon="-1.02511">
        <ele>2.7</ele>
        <time>2020-06-02T10:51:29Z</time>
      </trkpt>
      <trkpt lat="46.30162" lon="-1.0251">
        <ele>2.7</ele>
        <time>2020-06-02T10:51:30Z</time>
      </trkpt>
      <trkpt lat="46.30164" lon="-1.02509">
        <ele>2.7</ele>
        <time>2020-06-02T10:51:31Z</time>
      </trkpt>
      <trkpt lat="46.30168" lon="-1.02509">
        <ele>2.7</ele>
        <time>2020-06-02T10:51:32Z</time>
      </trkpt>
      <trkpt lat="46.3017" lon="-1.02509">
        <ele>2.7</ele>
        <time>2020-06-02T10:51:33Z</time>
      </trkpt>
      <trkpt lat="46.30173" lon="-1.02507">
        <ele>2.7</ele>
        <time>2020-06-02T10:51:34Z</time>
      </trkpt>
      <trkpt lat="46.30176" lon="-1.02507">
        <ele>2.7</ele>
        <time>2020-06-02T10:51:35Z</time>
      </trkpt>
      <trkpt lat="46.30179" lon="-1.02506">
        <ele>2.8</ele>
        <time>2020-06-02T10:51:36Z</time>
      </trkpt>
      <trkpt lat="46.30182" lon="-1.02503">
        <ele>2.8</ele>
        <time>2020-06-02T10:51:37Z</time>
      </trkpt>
      <trkpt lat="46.30186" lon="-1.02502">
        <ele>2.8</ele>
        <time>2020-06-02T10:51:38Z</time>
      </trkpt>
      <trkpt lat="46.30187" lon="-1.02501">
        <ele>2.9</ele>
        <time>2020-06-02T10:51:39Z</time>
      </trkpt>
      <trkpt lat="46.30191" lon="-1.02501">
        <ele>2.9</ele>
        <time>2020-06-02T10:51:40Z</time>
      </trkpt>
      <trkpt lat="46.30194" lon="-1.02499">
        <ele>2.9</ele>
        <time>2020-06-02T10:51:41Z</time>
      </trkpt>
      <trkpt lat="46.30197" lon="-1.02498">
        <ele>3</ele>
        <time>2020-06-02T10:51:42Z</time>
      </trkpt>
      <trkpt lat="46.30202" lon="-1.02498">
        <ele>3.1</ele>
        <time>2020-06-02T10:51:43Z</time>
      </trkpt>
      <trkpt lat="46.30206" lon="-1.02497">
        <ele>3.1</ele>
        <time>2020-06-02T10:51:44Z</time>
      </trkpt>
      <trkpt lat="46.30209" lon="-1.02495">
        <ele>3.1</ele>
        <time>2020-06-02T10:51:45Z</time>
      </trkpt>
      <trkpt lat="46.30212" lon="-1.02493">
        <ele>3.2</ele>
        <time>2020-06-02T10:51:46Z</time>
      </trkpt>
      <trkpt lat="46.30214" lon="-1.02489">
        <ele>3.2</ele>
        <time>2020-06-02T10:51:47Z</time>
      </trkpt>
      <trkpt lat="46.30216" lon="-1.02486">
        <ele>3.2</ele>
        <time>2020-06-02T10:51:48Z</time>
      </trkpt>
      <trkpt lat="46.30218" lon="-1.02481">
        <ele>3.2</ele>
        <time>2020-06-02T10:51:49Z</time>
      </trkpt>
      <trkpt lat="46.30219" lon="-1.02476">
        <ele>3.3</ele>
        <time>2020-06-02T10:51:50Z</time>
      </trkpt>
      <trkpt lat="46.30222" lon="-1.02473">
        <ele>3.3</ele>
        <time>2020-06-02T10:51:51Z</time>
      </trkpt>
      <trkpt lat="46.30223" lon="-1.0247">
        <ele>3.3</ele>
        <time>2020-06-02T10:51:52Z</time>
      </trkpt>
      <trkpt lat="46.30224" lon="-1.02469">
        <ele>3.3</ele>
        <time>2020-06-02T10:51:53Z</time>
      </trkpt>
      <trkpt lat="46.30226" lon="-1.02467">
        <ele>3.3</ele>
        <time>2020-06-02T10:51:54Z</time>
      </trkpt>
      <trkpt lat="46.30227" lon="-1.02467">
        <ele>3.3</ele>
        <time>2020-06-02T10:51:55Z</time>
      </trkpt>
      <trkpt lat="46.30229" lon="-1.02467">
        <ele>3.3</ele>
        <time>2020-06-02T10:51:56Z</time>
      </trkpt>
      <trkpt lat="46.30232" lon="-1.02469">
        <ele>3.3</ele>
        <time>2020-06-02T10:51:57Z</time>
      </trkpt>
      <trkpt lat="46.30233" lon="-1.02469">
        <ele>3.3</ele>
        <time>2020-06-02T10:51:58Z</time>
      </trkpt>
      <trkpt lat="46.30237" lon="-1.02469">
        <ele>3.3</ele>
        <time>2020-06-02T10:51:59Z</time>
      </trkpt>
      <trkpt lat="46.30238" lon="-1.0247">
        <ele>3.3</ele>
        <time>2020-06-02T10:52:00Z</time>
      </trkpt>
      <trkpt lat="46.30243" lon="-1.02469">
        <ele>3.3</ele>
        <time>2020-06-02T10:52:01Z</time>
      </trkpt>
      <trkpt lat="46.30244" lon="-1.02469">
        <ele>3.3</ele>
        <time>2020-06-02T10:52:02Z</time>
      </trkpt>
      <trkpt lat="46.30248" lon="-1.02468">
        <ele>3.3</ele>
        <time>2020-06-02T10:52:03Z</time>
      </trkpt>
      <trkpt lat="46.3025" lon="-1.02468">
        <ele>3.3</ele>
        <time>2020-06-02T10:52:04Z</time>
      </trkpt>
      <trkpt lat="46.30253" lon="-1.02466">
        <ele>3.3</ele>
        <time>2020-06-02T10:52:05Z</time>
      </trkpt>
      <trkpt lat="46.30258" lon="-1.02465">
        <ele>3.3</ele>
        <time>2020-06-02T10:52:06Z</time>
      </trkpt>
      <trkpt lat="46.30262" lon="-1.02463">
        <ele>3.3</ele>
        <time>2020-06-02T10:52:07Z</time>
      </trkpt>
      <trkpt lat="46.30266" lon="-1.02462">
        <ele>3.3</ele>
        <time>2020-06-02T10:52:08Z</time>
      </trkpt>
      <trkpt lat="46.30269" lon="-1.02462">
        <ele>3.2</ele>
        <time>2020-06-02T10:52:09Z</time>
      </trkpt>
      <trkpt lat="46.30272" lon="-1.02462">
        <ele>3.2</ele>
        <time>2020-06-02T10:52:10Z</time>
      </trkpt>
      <trkpt lat="46.30275" lon="-1.02461">
        <ele>3.2</ele>
        <time>2020-06-02T10:52:11Z</time>
      </trkpt>
      <trkpt lat="46.30279" lon="-1.02458">
        <ele>3.2</ele>
        <time>2020-06-02T10:52:12Z</time>
      </trkpt>
      <trkpt lat="46.30282" lon="-1.02456">
        <ele>3.2</ele>
        <time>2020-06-02T10:52:13Z</time>
      </trkpt>
      <trkpt lat="46.30286" lon="-1.02453">
        <ele>3.2</ele>
        <time>2020-06-02T10:52:14Z</time>
      </trkpt>
      <trkpt lat="46.3029" lon="-1.02452">
        <ele>3.1</ele>
        <time>2020-06-02T10:52:15Z</time>
      </trkpt>
      <trkpt lat="46.30294" lon="-1.0245">
        <ele>3.1</ele>
        <time>2020-06-02T10:52:16Z</time>
      </trkpt>
      <trkpt lat="46.30298" lon="-1.0245">
        <ele>3.1</ele>
        <time>2020-06-02T10:52:17Z</time>
      </trkpt>
      <trkpt lat="46.30302" lon="-1.02449">
        <ele>3</ele>
        <time>2020-06-02T10:52:18Z</time>
      </trkpt>
      <trkpt lat="46.30305" lon="-1.02449">
        <ele>3</ele>
        <time>2020-06-02T10:52:19Z</time>
      </trkpt>
      <trkpt lat="46.3031" lon="-1.0245">
        <ele>3</ele>
        <time>2020-06-02T10:52:20Z</time>
      </trkpt>
      <trkpt lat="46.30312" lon="-1.02452">
        <ele>2.9</ele>
        <time>2020-06-02T10:52:21Z</time>
      </trkpt>
      <trkpt lat="46.30313" lon="-1.02453">
        <ele>2.9</ele>
        <time>2020-06-02T10:52:22Z</time>
      </trkpt>
      <trkpt lat="46.30315" lon="-1.02454">
        <ele>2.9</ele>
        <time>2020-06-02T10:52:23Z</time>
      </trkpt>
      <trkpt lat="46.30316" lon="-1.02455">
        <ele>2.9</ele>
        <time>2020-06-02T10:52:24Z</time>
      </trkpt>
      <trkpt lat="46.30316" lon="-1.02455">
        <ele>2.9</ele>
        <time>2020-06-02T10:52:25Z</time>
      </trkpt>
      <trkpt lat="46.30315" lon="-1.02455">
        <ele>2.9</ele>
        <time>2020-06-02T10:52:26Z</time>
      </trkpt>
      <trkpt lat="46.30315" lon="-1.02455">
        <ele>2.9</ele>
        <time>2020-06-02T10:52:27Z</time>
      </trkpt>
      <trkpt lat="46.30315" lon="-1.02455">
        <ele>2.9</ele>
        <time>2020-06-02T10:52:28Z</time>
      </trkpt>
      <trkpt lat="46.30315" lon="-1.02455">
        <ele>2.9</ele>
        <time>2020-06-02T10:52:29Z</time>
      </trkpt>
      <trkpt lat="46.30316" lon="-1.02454">
        <ele>2.9</ele>
        <time>2020-06-02T10:52:30Z</time>
      </trkpt>
      <trkpt lat="46.30316" lon="-1.02454">
        <ele>2.9</ele>
        <time>2020-06-02T10:52:31Z</time>
      </trkpt>
      <trkpt lat="46.30316" lon="-1.02454">
        <ele>2.9</ele>
        <time>2020-06-02T10:52:32Z</time>
      </trkpt>
      <trkpt lat="46.30316" lon="-1.02454">
        <ele>2.9</ele>
        <time>2020-06-02T10:52:33Z</time>
      </trkpt>
      <trkpt lat="46.30316" lon="-1.02454">
        <ele>2.9</ele>
        <time>2020-06-02T10:52:34Z</time>
      </trkpt>
      <trkpt lat="46.30316" lon="-1.02454">
        <ele>2.9</ele>
        <time>2020-06-02T10:52:35Z</time>
      </trkpt>
      <trkpt lat="46.30316" lon="-1.02454">
        <ele>2.9</ele>
        <time>2020-06-02T10:52:36Z</time>
      </trkpt>
      <trkpt lat="46.30316" lon="-1.02454">
        <ele>2.9</ele>
        <time>2020-06-02T10:52:37Z</time>
      </trkpt>
      <trkpt lat="46.30316" lon="-1.02454">
        <ele>2.9</ele>
        <time>2020-06-02T10:52:38Z</time>
      </trkpt>
      <trkpt lat="46.30316" lon="-1.02454">
        <ele>2.8</ele>
        <time>2020-06-02T10:52:39Z</time>
      </trkpt>
      <trkpt lat="46.30316" lon="-1.02454">
        <ele>2.8</ele>
        <time>2020-06-02T10:52:40Z</time>
      </trkpt>
      <trkpt lat="46.30316" lon="-1.02455">
        <ele>2.8</ele>
        <time>2020-06-02T10:52:41Z</time>
      </trkpt>
      <trkpt lat="46.30316" lon="-1.02455">
        <ele>2.8</ele>
        <time>2020-06-02T10:52:42Z</time>
      </trkpt>
      <trkpt lat="46.30316" lon="-1.02455">
        <ele>2.8</ele>
        <time>2020-06-02T10:52:43Z</time>
      </trkpt>
      <trkpt lat="46.30316" lon="-1.02455">
        <ele>2.8</ele>
        <time>2020-06-02T10:52:44Z</time>
      </trkpt>
      <trkpt lat="46.30316" lon="-1.02455">
        <ele>2.8</ele>
        <time>2020-06-02T10:52:45Z</time>
      </trkpt>
      <trkpt lat="46.30316" lon="-1.02455">
        <ele>2.8</ele>
        <time>2020-06-02T10:52:46Z</time>
      </trkpt>
      <trkpt lat="46.30316" lon="-1.02455">
        <ele>2.8</ele>
        <time>2020-06-02T10:52:47Z</time>
      </trkpt>
      <trkpt lat="46.30316" lon="-1.02455">
        <ele>2.8</ele>
        <time>2020-06-02T10:52:48Z</time>
      </trkpt>
      <trkpt lat="46.30316" lon="-1.02455">
        <ele>2.8</ele>
        <time>2020-06-02T10:52:49Z</time>
      </trkpt>
      <trkpt lat="46.30316" lon="-1.02457">
        <ele>2.8</ele>
        <time>2020-06-02T10:52:50Z</time>
      </trkpt>
      <trkpt lat="46.30315" lon="-1.02457">
        <ele>2.8</ele>
        <time>2020-06-02T10:52:51Z</time>
      </trkpt>
      <trkpt lat="46.30315" lon="-1.02457">
        <ele>2.8</ele>
        <time>2020-06-02T10:52:52Z</time>
      </trkpt>
      <trkpt lat="46.30314" lon="-1.02457">
        <ele>2.8</ele>
        <time>2020-06-02T10:52:53Z</time>
      </trkpt>
      <trkpt lat="46.30314" lon="-1.02457">
        <ele>2.8</ele>
        <time>2020-06-02T10:52:54Z</time>
      </trkpt>
      <trkpt lat="46.30314" lon="-1.02458">
        <ele>2.8</ele>
        <time>2020-06-02T10:52:55Z</time>
      </trkpt>
      <trkpt lat="46.30314" lon="-1.02458">
        <ele>2.8</ele>
        <time>2020-06-02T10:52:56Z</time>
      </trkpt>
      <trkpt lat="46.30313" lon="-1.02459">
        <ele>2.8</ele>
        <time>2020-06-02T10:52:57Z</time>
      </trkpt>
      <trkpt lat="46.30313" lon="-1.02459">
        <ele>2.8</ele>
        <time>2020-06-02T10:52:58Z</time>
      </trkpt>
      <trkpt lat="46.30313" lon="-1.02459">
        <ele>2.8</ele>
        <time>2020-06-02T10:52:59Z</time>
      </trkpt>
      <trkpt lat="46.30313" lon="-1.02459">
        <ele>2.8</ele>
        <time>2020-06-02T10:53:00Z</time>
      </trkpt>
      <trkpt lat="46.30314" lon="-1.02459">
        <ele>2.8</ele>
        <time>2020-06-02T10:53:01Z</time>
      </trkpt>
      <trkpt lat="46.30314" lon="-1.02459">
        <ele>2.8</ele>
        <time>2020-06-02T10:53:02Z</time>
      </trkpt>
      <trkpt lat="46.30313" lon="-1.02459">
        <ele>2.8</ele>
        <time>2020-06-02T10:53:03Z</time>
      </trkpt>
      <trkpt lat="46.30313" lon="-1.02459">
        <ele>2.8</ele>
        <time>2020-06-02T10:53:04Z</time>
      </trkpt>
      <trkpt lat="46.30313" lon="-1.02459">
        <ele>2.8</ele>
        <time>2020-06-02T10:53:05Z</time>
      </trkpt>
      <trkpt lat="46.30313" lon="-1.02459">
        <ele>2.8</ele>
        <time>2020-06-02T10:53:06Z</time>
      </trkpt>
      <trkpt lat="46.30313" lon="-1.02459">
        <ele>2.8</ele>
        <time>2020-06-02T10:53:07Z</time>
      </trkpt>
      <trkpt lat="46.30313" lon="-1.02459">
        <ele>2.8</ele>
        <time>2020-06-02T10:53:08Z</time>
      </trkpt>
      <trkpt lat="46.30313" lon="-1.02459">
        <ele>2.8</ele>
        <time>2020-06-02T10:53:09Z</time>
      </trkpt>
      <trkpt lat="46.30313" lon="-1.02459">
        <ele>2.8</ele>
        <time>2020-06-02T10:53:10Z</time>
      </trkpt>
      <trkpt lat="46.30314" lon="-1.02459">
        <ele>2.8</ele>
        <time>2020-06-02T10:53:11Z</time>
      </trkpt>
      <trkpt lat="46.30313" lon="-1.0246">
        <ele>2.7</ele>
        <time>2020-06-02T10:53:12Z</time>
      </trkpt>
      <trkpt lat="46.30313" lon="-1.0246">
        <ele>2.7</ele>
        <time>2020-06-02T10:53:13Z</time>
      </trkpt>
      <trkpt lat="46.30313" lon="-1.0246">
        <ele>2.7</ele>
        <time>2020-06-02T10:53:14Z</time>
      </trkpt>
      <trkpt lat="46.30313" lon="-1.02461">
        <ele>2.7</ele>
        <time>2020-06-02T10:53:15Z</time>
      </trkpt>
      <trkpt lat="46.30313" lon="-1.02462">
        <ele>2.7</ele>
        <time>2020-06-02T10:53:16Z</time>
      </trkpt>
      <trkpt lat="46.30313" lon="-1.02461">
        <ele>2.7</ele>
        <time>2020-06-02T10:53:17Z</time>
      </trkpt>
      <trkpt lat="46.30313" lon="-1.0246">
        <ele>2.7</ele>
        <time>2020-06-02T10:53:18Z</time>
      </trkpt>
      <trkpt lat="46.30313" lon="-1.0246">
        <ele>2.7</ele>
        <time>2020-06-02T10:53:19Z</time>
      </trkpt>
      <trkpt lat="46.30313" lon="-1.0246">
        <ele>2.7</ele>
        <time>2020-06-02T10:53:20Z</time>
      </trkpt>
      <trkpt lat="46.30314" lon="-1.02459">
        <ele>2.7</ele>
        <time>2020-06-02T10:53:21Z</time>
      </trkpt>
      <trkpt lat="46.30314" lon="-1.02459">
        <ele>2.7</ele>
        <time>2020-06-02T10:53:22Z</time>
      </trkpt>
      <trkpt lat="46.30315" lon="-1.02459">
        <ele>2.7</ele>
        <time>2020-06-02T10:53:23Z</time>
      </trkpt>
      <trkpt lat="46.30316" lon="-1.02459">
        <ele>2.7</ele>
        <time>2020-06-02T10:53:24Z</time>
      </trkpt>
      <trkpt lat="46.30316" lon="-1.02458">
        <ele>2.7</ele>
        <time>2020-06-02T10:53:25Z</time>
      </trkpt>
      <trkpt lat="46.30316" lon="-1.02458">
        <ele>2.7</ele>
        <time>2020-06-02T10:53:26Z</time>
      </trkpt>
      <trkpt lat="46.30315" lon="-1.02458">
        <ele>2.7</ele>
        <time>2020-06-02T10:53:27Z</time>
      </trkpt>
      <trkpt lat="46.30315" lon="-1.02459">
        <ele>2.6</ele>
        <time>2020-06-02T10:53:28Z</time>
      </trkpt>
      <trkpt lat="46.30315" lon="-1.02459">
        <ele>2.6</ele>
        <time>2020-06-02T10:53:29Z</time>
      </trkpt>
      <trkpt lat="46.30315" lon="-1.0246">
        <ele>2.6</ele>
        <time>2020-06-02T10:53:30Z</time>
      </trkpt>
      <trkpt lat="46.30315" lon="-1.02461">
        <ele>2.6</ele>
        <time>2020-06-02T10:53:31Z</time>
      </trkpt>
      <trkpt lat="46.30314" lon="-1.02461">
        <ele>2.6</ele>
        <time>2020-06-02T10:53:32Z</time>
      </trkpt>
      <trkpt lat="46.30314" lon="-1.02461">
        <ele>2.6</ele>
        <time>2020-06-02T10:53:33Z</time>
      </trkpt>
      <trkpt lat="46.30314" lon="-1.02461">
        <ele>2.6</ele>
        <time>2020-06-02T10:53:34Z</time>
      </trkpt>
      <trkpt lat="46.30314" lon="-1.02461">
        <ele>2.6</ele>
        <time>2020-06-02T10:53:35Z</time>
      </trkpt>
      <trkpt lat="46.30314" lon="-1.02461">
        <ele>2.6</ele>
        <time>2020-06-02T10:53:36Z</time>
      </trkpt>
      <trkpt lat="46.30314" lon="-1.02461">
        <ele>2.6</ele>
        <time>2020-06-02T10:53:37Z</time>
      </trkpt>
      <trkpt lat="46.30314" lon="-1.02461">
        <ele>2.6</ele>
        <time>2020-06-02T10:53:38Z</time>
      </trkpt>
      <trkpt lat="46.30314" lon="-1.02461">
        <ele>2.6</ele>
        <time>2020-06-02T10:53:39Z</time>
      </trkpt>
      <trkpt lat="46.30314" lon="-1.02461">
        <ele>2.6</ele>
        <time>2020-06-02T10:53:40Z</time>
      </trkpt>
      <trkpt lat="46.30314" lon="-1.02461">
        <ele>2.6</ele>
        <time>2020-06-02T10:53:41Z</time>
      </trkpt>
      <trkpt lat="46.30313" lon="-1.0246">
        <ele>2.6</ele>
        <time>2020-06-02T10:53:42Z</time>
      </trkpt>
      <trkpt lat="46.30313" lon="-1.0246">
        <ele>2.6</ele>
        <time>2020-06-02T10:53:43Z</time>
      </trkpt>
      <trkpt lat="46.30313" lon="-1.0246">
        <ele>2.6</ele>
        <time>2020-06-02T10:53:44Z</time>
      </trkpt>
      <trkpt lat="46.30314" lon="-1.0246">
        <ele>2.6</ele>
        <time>2020-06-02T10:53:45Z</time>
      </trkpt>
      <trkpt lat="46.30313" lon="-1.0246">
        <ele>2.6</ele>
        <time>2020-06-02T10:53:46Z</time>
      </trkpt>
      <trkpt lat="46.30313" lon="-1.0246">
        <ele>2.6</ele>
        <time>2020-06-02T10:53:47Z</time>
      </trkpt>
      <trkpt lat="46.30313" lon="-1.02461">
        <ele>2.6</ele>
        <time>2020-06-02T10:53:48Z</time>
      </trkpt>
      <trkpt lat="46.30313" lon="-1.02461">
        <ele>2.6</ele>
        <time>2020-06-02T10:53:49Z</time>
      </trkpt>
      <trkpt lat="46.30313" lon="-1.0246">
        <ele>2.6</ele>
        <time>2020-06-02T10:53:50Z</time>
      </trkpt>
      <trkpt lat="46.30313" lon="-1.02461">
        <ele>2.6</ele>
        <time>2020-06-02T10:53:51Z</time>
      </trkpt>
      <trkpt lat="46.30312" lon="-1.0246">
        <ele>2.5</ele>
        <time>2020-06-02T10:53:52Z</time>
      </trkpt>
      <trkpt lat="46.30312" lon="-1.0246">
        <ele>2.5</ele>
        <time>2020-06-02T10:53:53Z</time>
      </trkpt>
      <trkpt lat="46.30312" lon="-1.02461">
        <ele>2.5</ele>
        <time>2020-06-02T10:53:54Z</time>
      </trkpt>
      <trkpt lat="46.30311" lon="-1.0246">
        <ele>2.5</ele>
        <time>2020-06-02T10:53:55Z</time>
      </trkpt>
      <trkpt lat="46.30312" lon="-1.0246">
        <ele>2.5</ele>
        <time>2020-06-02T10:53:56Z</time>
      </trkpt>
      <trkpt lat="46.30311" lon="-1.02459">
        <ele>2.5</ele>
        <time>2020-06-02T10:53:57Z</time>
      </trkpt>
      <trkpt lat="46.30311" lon="-1.0246">
        <ele>2.5</ele>
        <time>2020-06-02T10:53:58Z</time>
      </trkpt>
      <trkpt lat="46.30311" lon="-1.0246">
        <ele>2.5</ele>
        <time>2020-06-02T10:53:59Z</time>
      </trkpt>
      <trkpt lat="46.30311" lon="-1.0246">
        <ele>2.5</ele>
        <time>2020-06-02T10:54:00Z</time>
      </trkpt>
      <trkpt lat="46.30311" lon="-1.0246">
        <ele>2.5</ele>
        <time>2020-06-02T10:54:01Z</time>
      </trkpt>
      <trkpt lat="46.30311" lon="-1.02461">
        <ele>2.5</ele>
        <time>2020-06-02T10:54:02Z</time>
      </trkpt>
      <trkpt lat="46.30311" lon="-1.0246">
        <ele>2.5</ele>
        <time>2020-06-02T10:54:03Z</time>
      </trkpt>
      <trkpt lat="46.30311" lon="-1.02459">
        <ele>2.5</ele>
        <time>2020-06-02T10:54:04Z</time>
      </trkpt>
      <trkpt lat="46.30311" lon="-1.02459">
        <ele>2.5</ele>
        <time>2020-06-02T10:54:05Z</time>
      </trkpt>
      <trkpt lat="46.30311" lon="-1.02459">
        <ele>2.5</ele>
        <time>2020-06-02T10:54:06Z</time>
      </trkpt>
      <trkpt lat="46.30311" lon="-1.02459">
        <ele>2.5</ele>
        <time>2020-06-02T10:54:07Z</time>
      </trkpt>
      <trkpt lat="46.30311" lon="-1.02459">
        <ele>2.5</ele>
        <time>2020-06-02T10:54:08Z</time>
      </trkpt>
      <trkpt lat="46.30311" lon="-1.02459">
        <ele>2.5</ele>
        <time>2020-06-02T10:54:09Z</time>
      </trkpt>
      <trkpt lat="46.30311" lon="-1.0246">
        <ele>2.5</ele>
        <time>2020-06-02T10:54:10Z</time>
      </trkpt>
      <trkpt lat="46.30311" lon="-1.0246">
        <ele>2.5</ele>
        <time>2020-06-02T10:54:11Z</time>
      </trkpt>
      <trkpt lat="46.30311" lon="-1.0246">
        <ele>2.5</ele>
        <time>2020-06-02T10:54:12Z</time>
      </trkpt>
      <trkpt lat="46.30311" lon="-1.02458">
        <ele>2.5</ele>
        <time>2020-06-02T10:54:13Z</time>
      </trkpt>
      <trkpt lat="46.30311" lon="-1.02456">
        <ele>2.5</ele>
        <time>2020-06-02T10:54:14Z</time>
      </trkpt>
      <trkpt lat="46.30312" lon="-1.02456">
        <ele>2.5</ele>
        <time>2020-06-02T10:54:15Z</time>
      </trkpt>
      <trkpt lat="46.30313" lon="-1.02455">
        <ele>2.5</ele>
        <time>2020-06-02T10:54:16Z</time>
      </trkpt>
      <trkpt lat="46.30313" lon="-1.02453">
        <ele>2.5</ele>
        <time>2020-06-02T10:54:17Z</time>
      </trkpt>
      <trkpt lat="46.30314" lon="-1.02453">
        <ele>2.5</ele>
        <time>2020-06-02T10:54:18Z</time>
      </trkpt>
      <trkpt lat="46.30314" lon="-1.02453">
        <ele>2.5</ele>
        <time>2020-06-02T10:54:19Z</time>
      </trkpt>
      <trkpt lat="46.30314" lon="-1.02454">
        <ele>2.5</ele>
        <time>2020-06-02T10:54:20Z</time>
      </trkpt>
      <trkpt lat="46.30314" lon="-1.02454">
        <ele>2.5</ele>
        <time>2020-06-02T10:54:21Z</time>
      </trkpt>
      <trkpt lat="46.30314" lon="-1.02454">
        <ele>2.5</ele>
        <time>2020-06-02T10:54:22Z</time>
      </trkpt>
      <trkpt lat="46.30315" lon="-1.02454">
        <ele>2.4</ele>
        <time>2020-06-02T10:54:23Z</time>
      </trkpt>
      <trkpt lat="46.30316" lon="-1.02454">
        <ele>2.4</ele>
        <time>2020-06-02T10:54:24Z</time>
      </trkpt>
      <trkpt lat="46.30316" lon="-1.02454">
        <ele>2.4</ele>
        <time>2020-06-02T10:54:25Z</time>
      </trkpt>
      <trkpt lat="46.30316" lon="-1.02454">
        <ele>2.4</ele>
        <time>2020-06-02T10:54:26Z</time>
      </trkpt>
      <trkpt lat="46.30316" lon="-1.02455">
        <ele>2.4</ele>
        <time>2020-06-02T10:54:27Z</time>
      </trkpt>
      <trkpt lat="46.30317" lon="-1.02456">
        <ele>2.4</ele>
        <time>2020-06-02T10:54:28Z</time>
      </trkpt>
      <trkpt lat="46.30318" lon="-1.02457">
        <ele>2.4</ele>
        <time>2020-06-02T10:54:29Z</time>
      </trkpt>
      <trkpt lat="46.3032" lon="-1.02457">
        <ele>2.4</ele>
        <time>2020-06-02T10:54:30Z</time>
      </trkpt>
      <trkpt lat="46.30321" lon="-1.02458">
        <ele>2.4</ele>
        <time>2020-06-02T10:54:31Z</time>
      </trkpt>
      <trkpt lat="46.30325" lon="-1.02458">
        <ele>2.4</ele>
        <time>2020-06-02T10:54:32Z</time>
      </trkpt>
      <trkpt lat="46.30326" lon="-1.02457">
        <ele>2.4</ele>
        <time>2020-06-02T10:54:33Z</time>
      </trkpt>
      <trkpt lat="46.30329" lon="-1.02456">
        <ele>2.4</ele>
        <time>2020-06-02T10:54:34Z</time>
      </trkpt>
      <trkpt lat="46.30332" lon="-1.02454">
        <ele>2.4</ele>
        <time>2020-06-02T10:54:35Z</time>
      </trkpt>
      <trkpt lat="46.30336" lon="-1.02453">
        <ele>2.4</ele>
        <time>2020-06-02T10:54:36Z</time>
      </trkpt>
      <trkpt lat="46.30339" lon="-1.02451">
        <ele>2.4</ele>
        <time>2020-06-02T10:54:37Z</time>
      </trkpt>
      <trkpt lat="46.30343" lon="-1.0245">
        <ele>2.4</ele>
        <time>2020-06-02T10:54:38Z</time>
      </trkpt>
      <trkpt lat="46.30346" lon="-1.02448">
        <ele>2.4</ele>
        <time>2020-06-02T10:54:39Z</time>
      </trkpt>
      <trkpt lat="46.3035" lon="-1.02447">
        <ele>2.4</ele>
        <time>2020-06-02T10:54:40Z</time>
      </trkpt>
      <trkpt lat="46.30354" lon="-1.02447">
        <ele>2.4</ele>
        <time>2020-06-02T10:54:41Z</time>
      </trkpt>
      <trkpt lat="46.30357" lon="-1.02446">
        <ele>2.3</ele>
        <time>2020-06-02T10:54:42Z</time>
      </trkpt>
      <trkpt lat="46.30361" lon="-1.02446">
        <ele>2.3</ele>
        <time>2020-06-02T10:54:43Z</time>
      </trkpt>
      <trkpt lat="46.30364" lon="-1.02445">
        <ele>2.3</ele>
        <time>2020-06-02T10:54:44Z</time>
      </trkpt>
      <trkpt lat="46.30367" lon="-1.02443">
        <ele>2.3</ele>
        <time>2020-06-02T10:54:45Z</time>
      </trkpt>
      <trkpt lat="46.30371" lon="-1.02441">
        <ele>2.3</ele>
        <time>2020-06-02T10:54:46Z</time>
      </trkpt>
      <trkpt lat="46.30375" lon="-1.02439">
        <ele>2.3</ele>
        <time>2020-06-02T10:54:47Z</time>
      </trkpt>
      <trkpt lat="46.30379" lon="-1.02438">
        <ele>2.3</ele>
        <time>2020-06-02T10:54:48Z</time>
      </trkpt>
      <trkpt lat="46.30382" lon="-1.02435">
        <ele>2.3</ele>
        <time>2020-06-02T10:54:49Z</time>
      </trkpt>
      <trkpt lat="46.30386" lon="-1.02433">
        <ele>2.3</ele>
        <time>2020-06-02T10:54:50Z</time>
      </trkpt>
      <trkpt lat="46.3039" lon="-1.02432">
        <ele>2.3</ele>
        <time>2020-06-02T10:54:51Z</time>
      </trkpt>
      <trkpt lat="46.30395" lon="-1.02429">
        <ele>2.3</ele>
        <time>2020-06-02T10:54:52Z</time>
      </trkpt>
      <trkpt lat="46.30399" lon="-1.02427">
        <ele>2.3</ele>
        <time>2020-06-02T10:54:53Z</time>
      </trkpt>
      <trkpt lat="46.30403" lon="-1.02426">
        <ele>2.3</ele>
        <time>2020-06-02T10:54:54Z</time>
      </trkpt>
      <trkpt lat="46.30407" lon="-1.02424">
        <ele>2.3</ele>
        <time>2020-06-02T10:54:55Z</time>
      </trkpt>
      <trkpt lat="46.3041" lon="-1.02424">
        <ele>2.3</ele>
        <time>2020-06-02T10:54:56Z</time>
      </trkpt>
      <trkpt lat="46.30413" lon="-1.02423">
        <ele>2.3</ele>
        <time>2020-06-02T10:54:57Z</time>
      </trkpt>
      <trkpt lat="46.30417" lon="-1.02422">
        <ele>2.3</ele>
        <time>2020-06-02T10:54:58Z</time>
      </trkpt>
      <trkpt lat="46.30421" lon="-1.02421">
        <ele>2.3</ele>
        <time>2020-06-02T10:54:59Z</time>
      </trkpt>
      <trkpt lat="46.30424" lon="-1.02421">
        <ele>2.3</ele>
        <time>2020-06-02T10:55:00Z</time>
      </trkpt>
      <trkpt lat="46.30428" lon="-1.02419">
        <ele>2.3</ele>
        <time>2020-06-02T10:55:01Z</time>
      </trkpt>
      <trkpt lat="46.30432" lon="-1.02418">
        <ele>2.3</ele>
        <time>2020-06-02T10:55:02Z</time>
      </trkpt>
      <trkpt lat="46.30436" lon="-1.02415">
        <ele>2.4</ele>
        <time>2020-06-02T10:55:03Z</time>
      </trkpt>
      <trkpt lat="46.3044" lon="-1.02413">
        <ele>2.4</ele>
        <time>2020-06-02T10:55:04Z</time>
      </trkpt>
      <trkpt lat="46.30444" lon="-1.02412">
        <ele>2.4</ele>
        <time>2020-06-02T10:55:05Z</time>
      </trkpt>
      <trkpt lat="46.30447" lon="-1.0241">
        <ele>2.4</ele>
        <time>2020-06-02T10:55:06Z</time>
      </trkpt>
      <trkpt lat="46.30451" lon="-1.02408">
        <ele>2.4</ele>
        <time>2020-06-02T10:55:07Z</time>
      </trkpt>
      <trkpt lat="46.30455" lon="-1.02407">
        <ele>2.4</ele>
        <time>2020-06-02T10:55:08Z</time>
      </trkpt>
      <trkpt lat="46.30459" lon="-1.02404">
        <ele>2.4</ele>
        <time>2020-06-02T10:55:09Z</time>
      </trkpt>
      <trkpt lat="46.30463" lon="-1.02403">
        <ele>2.4</ele>
        <time>2020-06-02T10:55:10Z</time>
      </trkpt>
      <trkpt lat="46.30467" lon="-1.02401">
        <ele>2.4</ele>
        <time>2020-06-02T10:55:11Z</time>
      </trkpt>
      <trkpt lat="46.30471" lon="-1.024">
        <ele>2.4</ele>
        <time>2020-06-02T10:55:12Z</time>
      </trkpt>
      <trkpt lat="46.30475" lon="-1.02398">
        <ele>2.4</ele>
        <time>2020-06-02T10:55:13Z</time>
      </trkpt>
      <trkpt lat="46.30479" lon="-1.02396">
        <ele>2.4</ele>
        <time>2020-06-02T10:55:14Z</time>
      </trkpt>
      <trkpt lat="46.30483" lon="-1.02395">
        <ele>2.4</ele>
        <time>2020-06-02T10:55:15Z</time>
      </trkpt>
      <trkpt lat="46.30487" lon="-1.02393">
        <ele>2.4</ele>
        <time>2020-06-02T10:55:16Z</time>
      </trkpt>
      <trkpt lat="46.30491" lon="-1.02392">
        <ele>2.4</ele>
        <time>2020-06-02T10:55:17Z</time>
      </trkpt>
      <trkpt lat="46.30495" lon="-1.0239">
        <ele>2.4</ele>
        <time>2020-06-02T10:55:18Z</time>
      </trkpt>
      <trkpt lat="46.30499" lon="-1.02388">
        <ele>2.4</ele>
        <time>2020-06-02T10:55:19Z</time>
      </trkpt>
      <trkpt lat="46.30503" lon="-1.02387">
        <ele>2.4</ele>
        <time>2020-06-02T10:55:20Z</time>
      </trkpt>
      <trkpt lat="46.30508" lon="-1.02386">
        <ele>2.4</ele>
        <time>2020-06-02T10:55:21Z</time>
      </trkpt>
      <trkpt lat="46.30512" lon="-1.02384">
        <ele>2.4</ele>
        <time>2020-06-02T10:55:22Z</time>
      </trkpt>
      <trkpt lat="46.30516" lon="-1.02382">
        <ele>2.3</ele>
        <time>2020-06-02T10:55:23Z</time>
      </trkpt>
      <trkpt lat="46.30521" lon="-1.02381">
        <ele>2.3</ele>
        <time>2020-06-02T10:55:24Z</time>
      </trkpt>
      <trkpt lat="46.30526" lon="-1.02381">
        <ele>2.3</ele>
        <time>2020-06-02T10:55:25Z</time>
      </trkpt>
      <trkpt lat="46.30529" lon="-1.02379">
        <ele>2.3</ele>
        <time>2020-06-02T10:55:26Z</time>
      </trkpt>
      <trkpt lat="46.30533" lon="-1.02378">
        <ele>2.3</ele>
        <time>2020-06-02T10:55:27Z</time>
      </trkpt>
      <trkpt lat="46.30536" lon="-1.02377">
        <ele>2.3</ele>
        <time>2020-06-02T10:55:28Z</time>
      </trkpt>
      <trkpt lat="46.30541" lon="-1.02375">
        <ele>2.3</ele>
        <time>2020-06-02T10:55:29Z</time>
      </trkpt>
      <trkpt lat="46.30547" lon="-1.02371">
        <ele>2.3</ele>
        <time>2020-06-02T10:55:30Z</time>
      </trkpt>
      <trkpt lat="46.30551" lon="-1.0237">
        <ele>2.2</ele>
        <time>2020-06-02T10:55:31Z</time>
      </trkpt>
      <trkpt lat="46.30555" lon="-1.02369">
        <ele>2.2</ele>
        <time>2020-06-02T10:55:32Z</time>
      </trkpt>
      <trkpt lat="46.30559" lon="-1.02367">
        <ele>2.2</ele>
        <time>2020-06-02T10:55:33Z</time>
      </trkpt>
      <trkpt lat="46.30564" lon="-1.02366">
        <ele>2.2</ele>
        <time>2020-06-02T10:55:34Z</time>
      </trkpt>
      <trkpt lat="46.30567" lon="-1.02364">
        <ele>2.2</ele>
        <time>2020-06-02T10:55:35Z</time>
      </trkpt>
      <trkpt lat="46.30571" lon="-1.02362">
        <ele>2.2</ele>
        <time>2020-06-02T10:55:36Z</time>
      </trkpt>
      <trkpt lat="46.30575" lon="-1.0236">
        <ele>2.2</ele>
        <time>2020-06-02T10:55:37Z</time>
      </trkpt>
      <trkpt lat="46.30579" lon="-1.02359">
        <ele>2.2</ele>
        <time>2020-06-02T10:55:38Z</time>
      </trkpt>
      <trkpt lat="46.30582" lon="-1.02359">
        <ele>2.2</ele>
        <time>2020-06-02T10:55:39Z</time>
      </trkpt>
      <trkpt lat="46.30587" lon="-1.02356">
        <ele>2.2</ele>
        <time>2020-06-02T10:55:40Z</time>
      </trkpt>
      <trkpt lat="46.30592" lon="-1.02355">
        <ele>2.2</ele>
        <time>2020-06-02T10:55:41Z</time>
      </trkpt>
      <trkpt lat="46.30597" lon="-1.02352">
        <ele>2.2</ele>
        <time>2020-06-02T10:55:42Z</time>
      </trkpt>
      <trkpt lat="46.30603" lon="-1.02351">
        <ele>2.2</ele>
        <time>2020-06-02T10:55:43Z</time>
      </trkpt>
      <trkpt lat="46.30608" lon="-1.02349">
        <ele>2.2</ele>
        <time>2020-06-02T10:55:44Z</time>
      </trkpt>
      <trkpt lat="46.30612" lon="-1.02347">
        <ele>2.2</ele>
        <time>2020-06-02T10:55:45Z</time>
      </trkpt>
      <trkpt lat="46.30617" lon="-1.02345">
        <ele>2.2</ele>
        <time>2020-06-02T10:55:46Z</time>
      </trkpt>
      <trkpt lat="46.30622" lon="-1.02343">
        <ele>2.3</ele>
        <time>2020-06-02T10:55:47Z</time>
      </trkpt>
      <trkpt lat="46.30628" lon="-1.02342">
        <ele>2.3</ele>
        <time>2020-06-02T10:55:48Z</time>
      </trkpt>
      <trkpt lat="46.30633" lon="-1.0234">
        <ele>2.3</ele>
        <time>2020-06-02T10:55:49Z</time>
      </trkpt>
      <trkpt lat="46.30637" lon="-1.02338">
        <ele>2.3</ele>
        <time>2020-06-02T10:55:50Z</time>
      </trkpt>
      <trkpt lat="46.30641" lon="-1.02336">
        <ele>2.3</ele>
        <time>2020-06-02T10:55:51Z</time>
      </trkpt>
      <trkpt lat="46.30645" lon="-1.02333">
        <ele>2.4</ele>
        <time>2020-06-02T10:55:52Z</time>
      </trkpt>
      <trkpt lat="46.30649" lon="-1.02332">
        <ele>2.4</ele>
        <time>2020-06-02T10:55:53Z</time>
      </trkpt>
      <trkpt lat="46.30653" lon="-1.02331">
        <ele>2.4</ele>
        <time>2020-06-02T10:55:54Z</time>
      </trkpt>
      <trkpt lat="46.30656" lon="-1.0233">
        <ele>2.4</ele>
        <time>2020-06-02T10:55:55Z</time>
      </trkpt>
      <trkpt lat="46.30659" lon="-1.02329">
        <ele>2.4</ele>
        <time>2020-06-02T10:55:56Z</time>
      </trkpt>
      <trkpt lat="46.30663" lon="-1.02328">
        <ele>2.4</ele>
        <time>2020-06-02T10:55:57Z</time>
      </trkpt>
      <trkpt lat="46.30668" lon="-1.02326">
        <ele>2.4</ele>
        <time>2020-06-02T10:55:58Z</time>
      </trkpt>
      <trkpt lat="46.30672" lon="-1.02324">
        <ele>2.4</ele>
        <time>2020-06-02T10:55:59Z</time>
      </trkpt>
      <trkpt lat="46.30677" lon="-1.02324">
        <ele>2.4</ele>
        <time>2020-06-02T10:56:00Z</time>
      </trkpt>
      <trkpt lat="46.30679" lon="-1.02323">
        <ele>2.4</ele>
        <time>2020-06-02T10:56:01Z</time>
      </trkpt>
      <trkpt lat="46.30683" lon="-1.0232">
        <ele>2.4</ele>
        <time>2020-06-02T10:56:02Z</time>
      </trkpt>
      <trkpt lat="46.30687" lon="-1.02318">
        <ele>2.4</ele>
        <time>2020-06-02T10:56:03Z</time>
      </trkpt>
      <trkpt lat="46.30691" lon="-1.02315">
        <ele>2.4</ele>
        <time>2020-06-02T10:56:04Z</time>
      </trkpt>
      <trkpt lat="46.30696" lon="-1.02313">
        <ele>2.4</ele>
        <time>2020-06-02T10:56:05Z</time>
      </trkpt>
      <trkpt lat="46.307" lon="-1.02311">
        <ele>2.4</ele>
        <time>2020-06-02T10:56:06Z</time>
      </trkpt>
      <trkpt lat="46.30705" lon="-1.02308">
        <ele>2.4</ele>
        <time>2020-06-02T10:56:07Z</time>
      </trkpt>
      <trkpt lat="46.3071" lon="-1.02305">
        <ele>2.4</ele>
        <time>2020-06-02T10:56:08Z</time>
      </trkpt>
      <trkpt lat="46.30716" lon="-1.02303">
        <ele>2.3</ele>
        <time>2020-06-02T10:56:09Z</time>
      </trkpt>
      <trkpt lat="46.30721" lon="-1.023">
        <ele>2.3</ele>
        <time>2020-06-02T10:56:10Z</time>
      </trkpt>
      <trkpt lat="46.30726" lon="-1.02297">
        <ele>2.3</ele>
        <time>2020-06-02T10:56:11Z</time>
      </trkpt>
      <trkpt lat="46.3073" lon="-1.02294">
        <ele>2.3</ele>
        <time>2020-06-02T10:56:12Z</time>
      </trkpt>
      <trkpt lat="46.30734" lon="-1.0229">
        <ele>2.3</ele>
        <time>2020-06-02T10:56:13Z</time>
      </trkpt>
      <trkpt lat="46.30739" lon="-1.02286">
        <ele>2.3</ele>
        <time>2020-06-02T10:56:14Z</time>
      </trkpt>
      <trkpt lat="46.30745" lon="-1.02283">
        <ele>2.3</ele>
        <time>2020-06-02T10:56:15Z</time>
      </trkpt>
      <trkpt lat="46.30751" lon="-1.02279">
        <ele>2.3</ele>
        <time>2020-06-02T10:56:16Z</time>
      </trkpt>
      <trkpt lat="46.30756" lon="-1.02275">
        <ele>2.3</ele>
        <time>2020-06-02T10:56:17Z</time>
      </trkpt>
      <trkpt lat="46.3076" lon="-1.02272">
        <ele>2.3</ele>
        <time>2020-06-02T10:56:18Z</time>
      </trkpt>
      <trkpt lat="46.30765" lon="-1.02268">
        <ele>2.3</ele>
        <time>2020-06-02T10:56:19Z</time>
      </trkpt>
      <trkpt lat="46.3077" lon="-1.02264">
        <ele>2.3</ele>
        <time>2020-06-02T10:56:20Z</time>
      </trkpt>
      <trkpt lat="46.30774" lon="-1.02261">
        <ele>2.3</ele>
        <time>2020-06-02T10:56:21Z</time>
      </trkpt>
      <trkpt lat="46.30779" lon="-1.02256">
        <ele>2.2</ele>
        <time>2020-06-02T10:56:22Z</time>
      </trkpt>
      <trkpt lat="46.30784" lon="-1.0225">
        <ele>2.2</ele>
        <time>2020-06-02T10:56:23Z</time>
      </trkpt>
      <trkpt lat="46.30788" lon="-1.02246">
        <ele>2.2</ele>
        <time>2020-06-02T10:56:24Z</time>
      </trkpt>
      <trkpt lat="46.30793" lon="-1.02242">
        <ele>2.2</ele>
        <time>2020-06-02T10:56:25Z</time>
      </trkpt>
      <trkpt lat="46.30797" lon="-1.02239">
        <ele>2.2</ele>
        <time>2020-06-02T10:56:26Z</time>
      </trkpt>
      <trkpt lat="46.30801" lon="-1.02236">
        <ele>2.2</ele>
        <time>2020-06-02T10:56:27Z</time>
      </trkpt>
      <trkpt lat="46.30805" lon="-1.02231">
        <ele>2.2</ele>
        <time>2020-06-02T10:56:28Z</time>
      </trkpt>
      <trkpt lat="46.30809" lon="-1.02228">
        <ele>2.2</ele>
        <time>2020-06-02T10:56:29Z</time>
      </trkpt>
      <trkpt lat="46.30813" lon="-1.02224">
        <ele>2.3</ele>
        <time>2020-06-02T10:56:30Z</time>
      </trkpt>
      <trkpt lat="46.30817" lon="-1.0222">
        <ele>2.3</ele>
        <time>2020-06-02T10:56:31Z</time>
      </trkpt>
      <trkpt lat="46.30821" lon="-1.02215">
        <ele>2.4</ele>
        <time>2020-06-02T10:56:32Z</time>
      </trkpt>
      <trkpt lat="46.30825" lon="-1.02212">
        <ele>2.4</ele>
        <time>2020-06-02T10:56:33Z</time>
      </trkpt>
      <trkpt lat="46.30829" lon="-1.02207">
        <ele>2.5</ele>
        <time>2020-06-02T10:56:34Z</time>
      </trkpt>
      <trkpt lat="46.30833" lon="-1.02202">
        <ele>2.6</ele>
        <time>2020-06-02T10:56:35Z</time>
      </trkpt>
      <trkpt lat="46.30837" lon="-1.02197">
        <ele>2.8</ele>
        <time>2020-06-02T10:56:36Z</time>
      </trkpt>
      <trkpt lat="46.30841" lon="-1.02191">
        <ele>2.9</ele>
        <time>2020-06-02T10:56:37Z</time>
      </trkpt>
      <trkpt lat="46.30846" lon="-1.02185">
        <ele>3</ele>
        <time>2020-06-02T10:56:38Z</time>
      </trkpt>
      <trkpt lat="46.3085" lon="-1.02179">
        <ele>3</ele>
        <time>2020-06-02T10:56:39Z</time>
      </trkpt>
      <trkpt lat="46.30854" lon="-1.02174">
        <ele>3</ele>
        <time>2020-06-02T10:56:40Z</time>
      </trkpt>
      <trkpt lat="46.30859" lon="-1.02168">
        <ele>3.1</ele>
        <time>2020-06-02T10:56:41Z</time>
      </trkpt>
      <trkpt lat="46.30863" lon="-1.02162">
        <ele>3.1</ele>
        <time>2020-06-02T10:56:42Z</time>
      </trkpt>
      <trkpt lat="46.30868" lon="-1.02155">
        <ele>3.1</ele>
        <time>2020-06-02T10:56:43Z</time>
      </trkpt>
      <trkpt lat="46.30871" lon="-1.02149">
        <ele>3.1</ele>
        <time>2020-06-02T10:56:44Z</time>
      </trkpt>
      <trkpt lat="46.30875" lon="-1.02144">
        <ele>3.1</ele>
        <time>2020-06-02T10:56:45Z</time>
      </trkpt>
      <trkpt lat="46.30878" lon="-1.02139">
        <ele>3.1</ele>
        <time>2020-06-02T10:56:46Z</time>
      </trkpt>
      <trkpt lat="46.30882" lon="-1.02134">
        <ele>3</ele>
        <time>2020-06-02T10:56:47Z</time>
      </trkpt>
      <trkpt lat="46.30885" lon="-1.0213">
        <ele>3</ele>
        <time>2020-06-02T10:56:48Z</time>
      </trkpt>
      <trkpt lat="46.30888" lon="-1.02124">
        <ele>3</ele>
        <time>2020-06-02T10:56:49Z</time>
      </trkpt>
      <trkpt lat="46.30891" lon="-1.0212">
        <ele>3</ele>
        <time>2020-06-02T10:56:50Z</time>
      </trkpt>
      <trkpt lat="46.30895" lon="-1.02113">
        <ele>2.9</ele>
        <time>2020-06-02T10:56:51Z</time>
      </trkpt>
      <trkpt lat="46.30898" lon="-1.0211">
        <ele>2.9</ele>
        <time>2020-06-02T10:56:52Z</time>
      </trkpt>
      <trkpt lat="46.30901" lon="-1.02104">
        <ele>2.9</ele>
        <time>2020-06-02T10:56:53Z</time>
      </trkpt>
      <trkpt lat="46.30904" lon="-1.02099">
        <ele>2.9</ele>
        <time>2020-06-02T10:56:54Z</time>
      </trkpt>
      <trkpt lat="46.30908" lon="-1.02092">
        <ele>2.9</ele>
        <time>2020-06-02T10:56:55Z</time>
      </trkpt>
      <trkpt lat="46.30912" lon="-1.02086">
        <ele>2.9</ele>
        <time>2020-06-02T10:56:56Z</time>
      </trkpt>
      <trkpt lat="46.30915" lon="-1.0208">
        <ele>2.9</ele>
        <time>2020-06-02T10:56:57Z</time>
      </trkpt>
      <trkpt lat="46.30918" lon="-1.02075">
        <ele>2.9</ele>
        <time>2020-06-02T10:56:58Z</time>
      </trkpt>
      <trkpt lat="46.30921" lon="-1.02069">
        <ele>2.9</ele>
        <time>2020-06-02T10:56:59Z</time>
      </trkpt>
      <trkpt lat="46.30924" lon="-1.02063">
        <ele>2.9</ele>
        <time>2020-06-02T10:57:00Z</time>
      </trkpt>
      <trkpt lat="46.30927" lon="-1.02057">
        <ele>2.8</ele>
        <time>2020-06-02T10:57:01Z</time>
      </trkpt>
      <trkpt lat="46.3093" lon="-1.02049">
        <ele>2.8</ele>
        <time>2020-06-02T10:57:02Z</time>
      </trkpt>
      <trkpt lat="46.30933" lon="-1.02043">
        <ele>2.8</ele>
        <time>2020-06-02T10:57:03Z</time>
      </trkpt>
      <trkpt lat="46.30936" lon="-1.02037">
        <ele>2.7</ele>
        <time>2020-06-02T10:57:04Z</time>
      </trkpt>
      <trkpt lat="46.30939" lon="-1.02031">
        <ele>2.7</ele>
        <time>2020-06-02T10:57:05Z</time>
      </trkpt>
      <trkpt lat="46.30942" lon="-1.02024">
        <ele>2.7</ele>
        <time>2020-06-02T10:57:06Z</time>
      </trkpt>
      <trkpt lat="46.30944" lon="-1.02018">
        <ele>2.6</ele>
        <time>2020-06-02T10:57:07Z</time>
      </trkpt>
      <trkpt lat="46.30948" lon="-1.02008">
        <ele>2.6</ele>
        <time>2020-06-02T10:57:08Z</time>
      </trkpt>
      <trkpt lat="46.3095" lon="-1.02001">
        <ele>2.6</ele>
        <time>2020-06-02T10:57:09Z</time>
      </trkpt>
      <trkpt lat="46.30953" lon="-1.01995">
        <ele>2.5</ele>
        <time>2020-06-02T10:57:10Z</time>
      </trkpt>
      <trkpt lat="46.30955" lon="-1.01989">
        <ele>2.5</ele>
        <time>2020-06-02T10:57:11Z</time>
      </trkpt>
      <trkpt lat="46.30958" lon="-1.01982">
        <ele>2.5</ele>
        <time>2020-06-02T10:57:12Z</time>
      </trkpt>
      <trkpt lat="46.30961" lon="-1.01976">
        <ele>2.5</ele>
        <time>2020-06-02T10:57:13Z</time>
      </trkpt>
      <trkpt lat="46.30963" lon="-1.01968">
        <ele>2.5</ele>
        <time>2020-06-02T10:57:14Z</time>
      </trkpt>
      <trkpt lat="46.30967" lon="-1.01961">
        <ele>2.6</ele>
        <time>2020-06-02T10:57:15Z</time>
      </trkpt>
      <trkpt lat="46.30967" lon="-1.01953">
        <ele>2.6</ele>
        <time>2020-06-02T10:57:16Z</time>
      </trkpt>
      <trkpt lat="46.30969" lon="-1.01946">
        <ele>2.7</ele>
        <time>2020-06-02T10:57:17Z</time>
      </trkpt>
      <trkpt lat="46.30971" lon="-1.0194">
        <ele>2.7</ele>
        <time>2020-06-02T10:57:18Z</time>
      </trkpt>
      <trkpt lat="46.30972" lon="-1.01933">
        <ele>2.8</ele>
        <time>2020-06-02T10:57:19Z</time>
      </trkpt>
      <trkpt lat="46.30974" lon="-1.01925">
        <ele>2.8</ele>
        <time>2020-06-02T10:57:20Z</time>
      </trkpt>
      <trkpt lat="46.30976" lon="-1.01917">
        <ele>2.9</ele>
        <time>2020-06-02T10:57:21Z</time>
      </trkpt>
      <trkpt lat="46.30978" lon="-1.01913">
        <ele>2.9</ele>
        <time>2020-06-02T10:57:22Z</time>
      </trkpt>
      <trkpt lat="46.30981" lon="-1.01906">
        <ele>2.9</ele>
        <time>2020-06-02T10:57:23Z</time>
      </trkpt>
      <trkpt lat="46.30982" lon="-1.01898">
        <ele>2.9</ele>
        <time>2020-06-02T10:57:24Z</time>
      </trkpt>
      <trkpt lat="46.30984" lon="-1.01892">
        <ele>2.9</ele>
        <time>2020-06-02T10:57:25Z</time>
      </trkpt>
      <trkpt lat="46.30986" lon="-1.01886">
        <ele>2.9</ele>
        <time>2020-06-02T10:57:26Z</time>
      </trkpt>
      <trkpt lat="46.30988" lon="-1.01882">
        <ele>2.9</ele>
        <time>2020-06-02T10:57:27Z</time>
      </trkpt>
      <trkpt lat="46.3099" lon="-1.01876">
        <ele>2.9</ele>
        <time>2020-06-02T10:57:28Z</time>
      </trkpt>
      <trkpt lat="46.30992" lon="-1.0187">
        <ele>2.9</ele>
        <time>2020-06-02T10:57:29Z</time>
      </trkpt>
      <trkpt lat="46.30995" lon="-1.01864">
        <ele>2.9</ele>
        <time>2020-06-02T10:57:30Z</time>
      </trkpt>
      <trkpt lat="46.30997" lon="-1.01857">
        <ele>2.9</ele>
        <time>2020-06-02T10:57:31Z</time>
      </trkpt>
      <trkpt lat="46.30999" lon="-1.01851">
        <ele>3</ele>
        <time>2020-06-02T10:57:32Z</time>
      </trkpt>
      <trkpt lat="46.31" lon="-1.01845">
        <ele>3</ele>
        <time>2020-06-02T10:57:33Z</time>
      </trkpt>
      <trkpt lat="46.31003" lon="-1.01838">
        <ele>3</ele>
        <time>2020-06-02T10:57:34Z</time>
      </trkpt>
      <trkpt lat="46.31004" lon="-1.01831">
        <ele>3</ele>
        <time>2020-06-02T10:57:35Z</time>
      </trkpt>
      <trkpt lat="46.31006" lon="-1.01824">
        <ele>3</ele>
        <time>2020-06-02T10:57:36Z</time>
      </trkpt>
      <trkpt lat="46.31008" lon="-1.01817">
        <ele>3</ele>
        <time>2020-06-02T10:57:37Z</time>
      </trkpt>
      <trkpt lat="46.3101" lon="-1.01811">
        <ele>3</ele>
        <time>2020-06-02T10:57:38Z</time>
      </trkpt>
      <trkpt lat="46.31012" lon="-1.01804">
        <ele>3</ele>
        <time>2020-06-02T10:57:39Z</time>
      </trkpt>
      <trkpt lat="46.31015" lon="-1.01797">
        <ele>3</ele>
        <time>2020-06-02T10:57:40Z</time>
      </trkpt>
      <trkpt lat="46.31016" lon="-1.01789">
        <ele>3</ele>
        <time>2020-06-02T10:57:41Z</time>
      </trkpt>
      <trkpt lat="46.3102" lon="-1.01782">
        <ele>3</ele>
        <time>2020-06-02T10:57:42Z</time>
      </trkpt>
      <trkpt lat="46.31021" lon="-1.01774">
        <ele>3</ele>
        <time>2020-06-02T10:57:43Z</time>
      </trkpt>
      <trkpt lat="46.31023" lon="-1.01768">
        <ele>3</ele>
        <time>2020-06-02T10:57:44Z</time>
      </trkpt>
      <trkpt lat="46.31025" lon="-1.01762">
        <ele>3</ele>
        <time>2020-06-02T10:57:45Z</time>
      </trkpt>
      <trkpt lat="46.31027" lon="-1.01755">
        <ele>3</ele>
        <time>2020-06-02T10:57:46Z</time>
      </trkpt>
      <trkpt lat="46.31029" lon="-1.01749">
        <ele>3</ele>
        <time>2020-06-02T10:57:47Z</time>
      </trkpt>
      <trkpt lat="46.31031" lon="-1.01743">
        <ele>3</ele>
        <time>2020-06-02T10:57:48Z</time>
      </trkpt>
      <trkpt lat="46.31033" lon="-1.01736">
        <ele>3</ele>
        <time>2020-06-02T10:57:49Z</time>
      </trkpt>
      <trkpt lat="46.31034" lon="-1.01729">
        <ele>3</ele>
        <time>2020-06-02T10:57:50Z</time>
      </trkpt>
      <trkpt lat="46.31036" lon="-1.01721">
        <ele>3</ele>
        <time>2020-06-02T10:57:51Z</time>
      </trkpt>
      <trkpt lat="46.31038" lon="-1.01714">
        <ele>3</ele>
        <time>2020-06-02T10:57:52Z</time>
      </trkpt>
      <trkpt lat="46.3104" lon="-1.01707">
        <ele>3</ele>
        <time>2020-06-02T10:57:53Z</time>
      </trkpt>
      <trkpt lat="46.31042" lon="-1.01701">
        <ele>3</ele>
        <time>2020-06-02T10:57:54Z</time>
      </trkpt>
      <trkpt lat="46.31045" lon="-1.01694">
        <ele>3</ele>
        <time>2020-06-02T10:57:55Z</time>
      </trkpt>
      <trkpt lat="46.31046" lon="-1.01687">
        <ele>3</ele>
        <time>2020-06-02T10:57:56Z</time>
      </trkpt>
      <trkpt lat="46.31048" lon="-1.01681">
        <ele>2.9</ele>
        <time>2020-06-02T10:57:57Z</time>
      </trkpt>
      <trkpt lat="46.3105" lon="-1.01674">
        <ele>2.9</ele>
        <time>2020-06-02T10:57:58Z</time>
      </trkpt>
      <trkpt lat="46.31052" lon="-1.01667">
        <ele>2.9</ele>
        <time>2020-06-02T10:57:59Z</time>
      </trkpt>
      <trkpt lat="46.31054" lon="-1.0166">
        <ele>2.9</ele>
        <time>2020-06-02T10:58:00Z</time>
      </trkpt>
      <trkpt lat="46.31056" lon="-1.01653">
        <ele>2.9</ele>
        <time>2020-06-02T10:58:01Z</time>
      </trkpt>
      <trkpt lat="46.31058" lon="-1.01647">
        <ele>2.9</ele>
        <time>2020-06-02T10:58:02Z</time>
      </trkpt>
      <trkpt lat="46.3106" lon="-1.01641">
        <ele>2.8</ele>
        <time>2020-06-02T10:58:03Z</time>
      </trkpt>
      <trkpt lat="46.31063" lon="-1.01635">
        <ele>2.8</ele>
        <time>2020-06-02T10:58:04Z</time>
      </trkpt>
      <trkpt lat="46.31065" lon="-1.01628">
        <ele>2.8</ele>
        <time>2020-06-02T10:58:05Z</time>
      </trkpt>
      <trkpt lat="46.31067" lon="-1.01621">
        <ele>2.8</ele>
        <time>2020-06-02T10:58:06Z</time>
      </trkpt>
      <trkpt lat="46.3107" lon="-1.01615">
        <ele>2.8</ele>
        <time>2020-06-02T10:58:07Z</time>
      </trkpt>
      <trkpt lat="46.31072" lon="-1.01608">
        <ele>2.8</ele>
        <time>2020-06-02T10:58:08Z</time>
      </trkpt>
      <trkpt lat="46.31074" lon="-1.01601">
        <ele>2.7</ele>
        <time>2020-06-02T10:58:09Z</time>
      </trkpt>
      <trkpt lat="46.31076" lon="-1.01595">
        <ele>2.7</ele>
        <time>2020-06-02T10:58:10Z</time>
      </trkpt>
      <trkpt lat="46.31079" lon="-1.0159">
        <ele>2.7</ele>
        <time>2020-06-02T10:58:11Z</time>
      </trkpt>
      <trkpt lat="46.31081" lon="-1.01584">
        <ele>2.7</ele>
        <time>2020-06-02T10:58:12Z</time>
      </trkpt>
      <trkpt lat="46.31083" lon="-1.01578">
        <ele>2.7</ele>
        <time>2020-06-02T10:58:13Z</time>
      </trkpt>
      <trkpt lat="46.31084" lon="-1.01572">
        <ele>2.7</ele>
        <time>2020-06-02T10:58:14Z</time>
      </trkpt>
      <trkpt lat="46.31087" lon="-1.01565">
        <ele>2.7</ele>
        <time>2020-06-02T10:58:15Z</time>
      </trkpt>
      <trkpt lat="46.31088" lon="-1.01559">
        <ele>2.7</ele>
        <time>2020-06-02T10:58:16Z</time>
      </trkpt>
      <trkpt lat="46.31088" lon="-1.01553">
        <ele>2.7</ele>
        <time>2020-06-02T10:58:17Z</time>
      </trkpt>
      <trkpt lat="46.3109" lon="-1.01547">
        <ele>2.7</ele>
        <time>2020-06-02T10:58:18Z</time>
      </trkpt>
      <trkpt lat="46.31092" lon="-1.01539">
        <ele>2.7</ele>
        <time>2020-06-02T10:58:19Z</time>
      </trkpt>
      <trkpt lat="46.31094" lon="-1.01532">
        <ele>2.7</ele>
        <time>2020-06-02T10:58:20Z</time>
      </trkpt>
      <trkpt lat="46.31097" lon="-1.01524">
        <ele>2.7</ele>
        <time>2020-06-02T10:58:21Z</time>
      </trkpt>
      <trkpt lat="46.31099" lon="-1.01517">
        <ele>2.7</ele>
        <time>2020-06-02T10:58:22Z</time>
      </trkpt>
      <trkpt lat="46.31102" lon="-1.0151">
        <ele>2.7</ele>
        <time>2020-06-02T10:58:23Z</time>
      </trkpt>
      <trkpt lat="46.31104" lon="-1.01503">
        <ele>2.7</ele>
        <time>2020-06-02T10:58:24Z</time>
      </trkpt>
      <trkpt lat="46.31106" lon="-1.01496">
        <ele>2.7</ele>
        <time>2020-06-02T10:58:25Z</time>
      </trkpt>
      <trkpt lat="46.31108" lon="-1.0149">
        <ele>2.7</ele>
        <time>2020-06-02T10:58:26Z</time>
      </trkpt>
      <trkpt lat="46.31111" lon="-1.01482">
        <ele>2.7</ele>
        <time>2020-06-02T10:58:27Z</time>
      </trkpt>
      <trkpt lat="46.31112" lon="-1.01477">
        <ele>2.7</ele>
        <time>2020-06-02T10:58:28Z</time>
      </trkpt>
      <trkpt lat="46.31113" lon="-1.0147">
        <ele>2.7</ele>
        <time>2020-06-02T10:58:29Z</time>
      </trkpt>
      <trkpt lat="46.31116" lon="-1.01461">
        <ele>2.7</ele>
        <time>2020-06-02T10:58:30Z</time>
      </trkpt>
      <trkpt lat="46.31118" lon="-1.01454">
        <ele>2.7</ele>
        <time>2020-06-02T10:58:31Z</time>
      </trkpt>
      <trkpt lat="46.3112" lon="-1.01447">
        <ele>2.7</ele>
        <time>2020-06-02T10:58:32Z</time>
      </trkpt>
      <trkpt lat="46.31123" lon="-1.01442">
        <ele>2.7</ele>
        <time>2020-06-02T10:58:33Z</time>
      </trkpt>
      <trkpt lat="46.31124" lon="-1.01435">
        <ele>2.7</ele>
        <time>2020-06-02T10:58:34Z</time>
      </trkpt>
      <trkpt lat="46.31126" lon="-1.01427">
        <ele>2.7</ele>
        <time>2020-06-02T10:58:35Z</time>
      </trkpt>
      <trkpt lat="46.31128" lon="-1.01418">
        <ele>2.7</ele>
        <time>2020-06-02T10:58:36Z</time>
      </trkpt>
      <trkpt lat="46.3113" lon="-1.0141">
        <ele>2.7</ele>
        <time>2020-06-02T10:58:37Z</time>
      </trkpt>
      <trkpt lat="46.31133" lon="-1.01403">
        <ele>2.7</ele>
        <time>2020-06-02T10:58:38Z</time>
      </trkpt>
      <trkpt lat="46.31135" lon="-1.01396">
        <ele>2.7</ele>
        <time>2020-06-02T10:58:39Z</time>
      </trkpt>
      <trkpt lat="46.31137" lon="-1.01389">
        <ele>2.7</ele>
        <time>2020-06-02T10:58:40Z</time>
      </trkpt>
      <trkpt lat="46.31139" lon="-1.0138">
        <ele>2.7</ele>
        <time>2020-06-02T10:58:41Z</time>
      </trkpt>
      <trkpt lat="46.31141" lon="-1.01373">
        <ele>2.7</ele>
        <time>2020-06-02T10:58:42Z</time>
      </trkpt>
      <trkpt lat="46.31143" lon="-1.01366">
        <ele>2.7</ele>
        <time>2020-06-02T10:58:43Z</time>
      </trkpt>
      <trkpt lat="46.31145" lon="-1.01359">
        <ele>2.6</ele>
        <time>2020-06-02T10:58:44Z</time>
      </trkpt>
      <trkpt lat="46.31147" lon="-1.01353">
        <ele>2.6</ele>
        <time>2020-06-02T10:58:45Z</time>
      </trkpt>
      <trkpt lat="46.31149" lon="-1.01347">
        <ele>2.6</ele>
        <time>2020-06-02T10:58:46Z</time>
      </trkpt>
      <trkpt lat="46.31151" lon="-1.0134">
        <ele>2.6</ele>
        <time>2020-06-02T10:58:47Z</time>
      </trkpt>
      <trkpt lat="46.31154" lon="-1.01332">
        <ele>2.7</ele>
        <time>2020-06-02T10:58:48Z</time>
      </trkpt>
      <trkpt lat="46.31157" lon="-1.01325">
        <ele>2.7</ele>
        <time>2020-06-02T10:58:49Z</time>
      </trkpt>
      <trkpt lat="46.3116" lon="-1.01318">
        <ele>2.7</ele>
        <time>2020-06-02T10:58:50Z</time>
      </trkpt>
      <trkpt lat="46.31161" lon="-1.01311">
        <ele>2.8</ele>
        <time>2020-06-02T10:58:51Z</time>
      </trkpt>
      <trkpt lat="46.31164" lon="-1.01304">
        <ele>2.8</ele>
        <time>2020-06-02T10:58:52Z</time>
      </trkpt>
      <trkpt lat="46.31166" lon="-1.01296">
        <ele>2.8</ele>
        <time>2020-06-02T10:58:53Z</time>
      </trkpt>
      <trkpt lat="46.31168" lon="-1.0129">
        <ele>2.8</ele>
        <time>2020-06-02T10:58:54Z</time>
      </trkpt>
      <trkpt lat="46.3117" lon="-1.01282">
        <ele>2.8</ele>
        <time>2020-06-02T10:58:55Z</time>
      </trkpt>
      <trkpt lat="46.31173" lon="-1.01276">
        <ele>2.9</ele>
        <time>2020-06-02T10:58:56Z</time>
      </trkpt>
      <trkpt lat="46.31175" lon="-1.0127">
        <ele>2.9</ele>
        <time>2020-06-02T10:58:57Z</time>
      </trkpt>
      <trkpt lat="46.31177" lon="-1.01262">
        <ele>2.9</ele>
        <time>2020-06-02T10:58:58Z</time>
      </trkpt>
      <trkpt lat="46.31179" lon="-1.01255">
        <ele>2.9</ele>
        <time>2020-06-02T10:58:59Z</time>
      </trkpt>
      <trkpt lat="46.31182" lon="-1.01248">
        <ele>3</ele>
        <time>2020-06-02T10:59:00Z</time>
      </trkpt>
      <trkpt lat="46.31184" lon="-1.01242">
        <ele>3</ele>
        <time>2020-06-02T10:59:01Z</time>
      </trkpt>
      <trkpt lat="46.31186" lon="-1.01234">
        <ele>3</ele>
        <time>2020-06-02T10:59:02Z</time>
      </trkpt>
      <trkpt lat="46.31188" lon="-1.01228">
        <ele>3</ele>
        <time>2020-06-02T10:59:03Z</time>
      </trkpt>
      <trkpt lat="46.3119" lon="-1.01221">
        <ele>3</ele>
        <time>2020-06-02T10:59:04Z</time>
      </trkpt>
      <trkpt lat="46.31192" lon="-1.01213">
        <ele>3.1</ele>
        <time>2020-06-02T10:59:05Z</time>
      </trkpt>
      <trkpt lat="46.31194" lon="-1.01205">
        <ele>3.1</ele>
        <time>2020-06-02T10:59:06Z</time>
      </trkpt>
      <trkpt lat="46.31196" lon="-1.01198">
        <ele>3.1</ele>
        <time>2020-06-02T10:59:07Z</time>
      </trkpt>
      <trkpt lat="46.31199" lon="-1.0119">
        <ele>3.1</ele>
        <time>2020-06-02T10:59:08Z</time>
      </trkpt>
      <trkpt lat="46.31201" lon="-1.01182">
        <ele>3.2</ele>
        <time>2020-06-02T10:59:09Z</time>
      </trkpt>
      <trkpt lat="46.31203" lon="-1.01174">
        <ele>3.2</ele>
        <time>2020-06-02T10:59:10Z</time>
      </trkpt>
      <trkpt lat="46.31205" lon="-1.01168">
        <ele>3.2</ele>
        <time>2020-06-02T10:59:11Z</time>
      </trkpt>
      <trkpt lat="46.31207" lon="-1.01162">
        <ele>3.2</ele>
        <time>2020-06-02T10:59:12Z</time>
      </trkpt>
      <trkpt lat="46.31209" lon="-1.01155">
        <ele>3.3</ele>
        <time>2020-06-02T10:59:13Z</time>
      </trkpt>
      <trkpt lat="46.31211" lon="-1.01148">
        <ele>3.3</ele>
        <time>2020-06-02T10:59:14Z</time>
      </trkpt>
      <trkpt lat="46.31213" lon="-1.01141">
        <ele>3.3</ele>
        <time>2020-06-02T10:59:15Z</time>
      </trkpt>
      <trkpt lat="46.31216" lon="-1.01133">
        <ele>3.3</ele>
        <time>2020-06-02T10:59:16Z</time>
      </trkpt>
      <trkpt lat="46.31219" lon="-1.01126">
        <ele>3.3</ele>
        <time>2020-06-02T10:59:17Z</time>
      </trkpt>
      <trkpt lat="46.31221" lon="-1.01119">
        <ele>3.4</ele>
        <time>2020-06-02T10:59:18Z</time>
      </trkpt>
      <trkpt lat="46.31224" lon="-1.01112">
        <ele>3.4</ele>
        <time>2020-06-02T10:59:19Z</time>
      </trkpt>
      <trkpt lat="46.31227" lon="-1.01105">
        <ele>3.4</ele>
        <time>2020-06-02T10:59:20Z</time>
      </trkpt>
      <trkpt lat="46.31228" lon="-1.01098">
        <ele>3.4</ele>
        <time>2020-06-02T10:59:21Z</time>
      </trkpt>
      <trkpt lat="46.31229" lon="-1.0109">
        <ele>3.5</ele>
        <time>2020-06-02T10:59:22Z</time>
      </trkpt>
      <trkpt lat="46.31231" lon="-1.01083">
        <ele>3.5</ele>
        <time>2020-06-02T10:59:23Z</time>
      </trkpt>
      <trkpt lat="46.31233" lon="-1.01075">
        <ele>3.5</ele>
        <time>2020-06-02T10:59:24Z</time>
      </trkpt>
      <trkpt lat="46.31234" lon="-1.01068">
        <ele>3.5</ele>
        <time>2020-06-02T10:59:25Z</time>
      </trkpt>
      <trkpt lat="46.31237" lon="-1.01061">
        <ele>3.5</ele>
        <time>2020-06-02T10:59:26Z</time>
      </trkpt>
      <trkpt lat="46.31239" lon="-1.01053">
        <ele>3.6</ele>
        <time>2020-06-02T10:59:27Z</time>
      </trkpt>
      <trkpt lat="46.31241" lon="-1.01044">
        <ele>3.6</ele>
        <time>2020-06-02T10:59:28Z</time>
      </trkpt>
      <trkpt lat="46.31243" lon="-1.01036">
        <ele>3.6</ele>
        <time>2020-06-02T10:59:29Z</time>
      </trkpt>
      <trkpt lat="46.31246" lon="-1.01028">
        <ele>3.7</ele>
        <time>2020-06-02T10:59:30Z</time>
      </trkpt>
      <trkpt lat="46.31248" lon="-1.01019">
        <ele>3.7</ele>
        <time>2020-06-02T10:59:31Z</time>
      </trkpt>
      <trkpt lat="46.31251" lon="-1.01012">
        <ele>3.7</ele>
        <time>2020-06-02T10:59:32Z</time>
      </trkpt>
      <trkpt lat="46.31253" lon="-1.01003">
        <ele>3.7</ele>
        <time>2020-06-02T10:59:33Z</time>
      </trkpt>
      <trkpt lat="46.31256" lon="-1.00995">
        <ele>3.8</ele>
        <time>2020-06-02T10:59:34Z</time>
      </trkpt>
      <trkpt lat="46.31258" lon="-1.00986">
        <ele>3.8</ele>
        <time>2020-06-02T10:59:35Z</time>
      </trkpt>
      <trkpt lat="46.3126" lon="-1.00979">
        <ele>3.8</ele>
        <time>2020-06-02T10:59:36Z</time>
      </trkpt>
      <trkpt lat="46.31263" lon="-1.00971">
        <ele>3.8</ele>
        <time>2020-06-02T10:59:37Z</time>
      </trkpt>
      <trkpt lat="46.31265" lon="-1.00963">
        <ele>3.9</ele>
        <time>2020-06-02T10:59:38Z</time>
      </trkpt>
      <trkpt lat="46.31267" lon="-1.00955">
        <ele>3.9</ele>
        <time>2020-06-02T10:59:39Z</time>
      </trkpt>
      <trkpt lat="46.3127" lon="-1.00946">
        <ele>3.9</ele>
        <time>2020-06-02T10:59:40Z</time>
      </trkpt>
      <trkpt lat="46.31272" lon="-1.00938">
        <ele>4</ele>
        <time>2020-06-02T10:59:41Z</time>
      </trkpt>
      <trkpt lat="46.31275" lon="-1.0093">
        <ele>4</ele>
        <time>2020-06-02T10:59:42Z</time>
      </trkpt>
      <trkpt lat="46.31278" lon="-1.00923">
        <ele>4</ele>
        <time>2020-06-02T10:59:43Z</time>
      </trkpt>
      <trkpt lat="46.3128" lon="-1.00916">
        <ele>4.1</ele>
        <time>2020-06-02T10:59:44Z</time>
      </trkpt>
      <trkpt lat="46.31283" lon="-1.00909">
        <ele>4.1</ele>
        <time>2020-06-02T10:59:45Z</time>
      </trkpt>
      <trkpt lat="46.31286" lon="-1.00901">
        <ele>4.1</ele>
        <time>2020-06-02T10:59:46Z</time>
      </trkpt>
      <trkpt lat="46.31287" lon="-1.00895">
        <ele>4.1</ele>
        <time>2020-06-02T10:59:47Z</time>
      </trkpt>
      <trkpt lat="46.31289" lon="-1.00887">
        <ele>4.2</ele>
        <time>2020-06-02T10:59:48Z</time>
      </trkpt>
      <trkpt lat="46.31292" lon="-1.00879">
        <ele>4.2</ele>
        <time>2020-06-02T10:59:49Z</time>
      </trkpt>
      <trkpt lat="46.31294" lon="-1.00871">
        <ele>4.2</ele>
        <time>2020-06-02T10:59:50Z</time>
      </trkpt>
      <trkpt lat="46.31296" lon="-1.00863">
        <ele>4.1</ele>
        <time>2020-06-02T10:59:51Z</time>
      </trkpt>
      <trkpt lat="46.31298" lon="-1.00857">
        <ele>4.1</ele>
        <time>2020-06-02T10:59:52Z</time>
      </trkpt>
      <trkpt lat="46.313" lon="-1.0085">
        <ele>4.1</ele>
        <time>2020-06-02T10:59:53Z</time>
      </trkpt>
      <trkpt lat="46.31301" lon="-1.00845">
        <ele>4.1</ele>
        <time>2020-06-02T10:59:54Z</time>
      </trkpt>
      <trkpt lat="46.31304" lon="-1.00839">
        <ele>4.1</ele>
        <time>2020-06-02T10:59:55Z</time>
      </trkpt>
      <trkpt lat="46.31305" lon="-1.00832">
        <ele>4.1</ele>
        <time>2020-06-02T10:59:56Z</time>
      </trkpt>
      <trkpt lat="46.31306" lon="-1.00826">
        <ele>4.1</ele>
        <time>2020-06-02T10:59:57Z</time>
      </trkpt>
      <trkpt lat="46.31308" lon="-1.0082">
        <ele>4.1</ele>
        <time>2020-06-02T10:59:58Z</time>
      </trkpt>
      <trkpt lat="46.3131" lon="-1.00813">
        <ele>4</ele>
        <time>2020-06-02T10:59:59Z</time>
      </trkpt>
      <trkpt lat="46.31312" lon="-1.00806">
        <ele>4</ele>
        <time>2020-06-02T11:00:00Z</time>
      </trkpt>
      <trkpt lat="46.31315" lon="-1.00799">
        <ele>4</ele>
        <time>2020-06-02T11:00:01Z</time>
      </trkpt>
      <trkpt lat="46.31317" lon="-1.00791">
        <ele>4</ele>
        <time>2020-06-02T11:00:02Z</time>
      </trkpt>
      <trkpt lat="46.31319" lon="-1.00784">
        <ele>4</ele>
        <time>2020-06-02T11:00:03Z</time>
      </trkpt>
      <trkpt lat="46.31321" lon="-1.00776">
        <ele>4</ele>
        <time>2020-06-02T11:00:04Z</time>
      </trkpt>
      <trkpt lat="46.31323" lon="-1.00768">
        <ele>3.9</ele>
        <time>2020-06-02T11:00:05Z</time>
      </trkpt>
      <trkpt lat="46.31326" lon="-1.0076">
        <ele>3.9</ele>
        <time>2020-06-02T11:00:06Z</time>
      </trkpt>
      <trkpt lat="46.31328" lon="-1.00753">
        <ele>3.9</ele>
        <time>2020-06-02T11:00:07Z</time>
      </trkpt>
      <trkpt lat="46.3133" lon="-1.00746">
        <ele>3.9</ele>
        <time>2020-06-02T11:00:08Z</time>
      </trkpt>
      <trkpt lat="46.31333" lon="-1.00739">
        <ele>3.9</ele>
        <time>2020-06-02T11:00:09Z</time>
      </trkpt>
      <trkpt lat="46.31335" lon="-1.00731">
        <ele>3.9</ele>
        <time>2020-06-02T11:00:10Z</time>
      </trkpt>
      <trkpt lat="46.31337" lon="-1.00723">
        <ele>3.8</ele>
        <time>2020-06-02T11:00:11Z</time>
      </trkpt>
      <trkpt lat="46.3134" lon="-1.00718">
        <ele>3.8</ele>
        <time>2020-06-02T11:00:12Z</time>
      </trkpt>
      <trkpt lat="46.31342" lon="-1.00711">
        <ele>3.8</ele>
        <time>2020-06-02T11:00:13Z</time>
      </trkpt>
      <trkpt lat="46.31343" lon="-1.00704">
        <ele>3.8</ele>
        <time>2020-06-02T11:00:14Z</time>
      </trkpt>
      <trkpt lat="46.31346" lon="-1.00697">
        <ele>3.8</ele>
        <time>2020-06-02T11:00:15Z</time>
      </trkpt>
      <trkpt lat="46.31348" lon="-1.0069">
        <ele>3.8</ele>
        <time>2020-06-02T11:00:16Z</time>
      </trkpt>
      <trkpt lat="46.3135" lon="-1.00683">
        <ele>3.8</ele>
        <time>2020-06-02T11:00:17Z</time>
      </trkpt>
      <trkpt lat="46.31353" lon="-1.00675">
        <ele>3.8</ele>
        <time>2020-06-02T11:00:18Z</time>
      </trkpt>
      <trkpt lat="46.31355" lon="-1.00668">
        <ele>3.8</ele>
        <time>2020-06-02T11:00:19Z</time>
      </trkpt>
      <trkpt lat="46.31358" lon="-1.0066">
        <ele>3.8</ele>
        <time>2020-06-02T11:00:20Z</time>
      </trkpt>
      <trkpt lat="46.3136" lon="-1.00653">
        <ele>3.8</ele>
        <time>2020-06-02T11:00:21Z</time>
      </trkpt>
      <trkpt lat="46.31361" lon="-1.00645">
        <ele>3.8</ele>
        <time>2020-06-02T11:00:22Z</time>
      </trkpt>
      <trkpt lat="46.31363" lon="-1.00638">
        <ele>3.8</ele>
        <time>2020-06-02T11:00:23Z</time>
      </trkpt>
      <trkpt lat="46.31365" lon="-1.00631">
        <ele>3.8</ele>
        <time>2020-06-02T11:00:24Z</time>
      </trkpt>
      <trkpt lat="46.31367" lon="-1.00624">
        <ele>3.8</ele>
        <time>2020-06-02T11:00:25Z</time>
      </trkpt>
      <trkpt lat="46.31369" lon="-1.00617">
        <ele>3.8</ele>
        <time>2020-06-02T11:00:26Z</time>
      </trkpt>
      <trkpt lat="46.31371" lon="-1.00608">
        <ele>3.8</ele>
        <time>2020-06-02T11:00:27Z</time>
      </trkpt>
      <trkpt lat="46.31373" lon="-1.00602">
        <ele>3.8</ele>
        <time>2020-06-02T11:00:28Z</time>
      </trkpt>
      <trkpt lat="46.31375" lon="-1.00594">
        <ele>3.8</ele>
        <time>2020-06-02T11:00:29Z</time>
      </trkpt>
      <trkpt lat="46.31377" lon="-1.00587">
        <ele>3.8</ele>
        <time>2020-06-02T11:00:30Z</time>
      </trkpt>
      <trkpt lat="46.3138" lon="-1.0058">
        <ele>3.8</ele>
        <time>2020-06-02T11:00:31Z</time>
      </trkpt>
      <trkpt lat="46.31381" lon="-1.00572">
        <ele>3.7</ele>
        <time>2020-06-02T11:00:32Z</time>
      </trkpt>
      <trkpt lat="46.31383" lon="-1.00564">
        <ele>3.7</ele>
        <time>2020-06-02T11:00:33Z</time>
      </trkpt>
      <trkpt lat="46.31385" lon="-1.00557">
        <ele>3.7</ele>
        <time>2020-06-02T11:00:34Z</time>
      </trkpt>
      <trkpt lat="46.31387" lon="-1.0055">
        <ele>3.6</ele>
        <time>2020-06-02T11:00:35Z</time>
      </trkpt>
      <trkpt lat="46.31389" lon="-1.00544">
        <ele>3.6</ele>
        <time>2020-06-02T11:00:36Z</time>
      </trkpt>
      <trkpt lat="46.31391" lon="-1.0054">
        <ele>3.6</ele>
        <time>2020-06-02T11:00:37Z</time>
      </trkpt>
      <trkpt lat="46.31392" lon="-1.00539">
        <ele>3.6</ele>
        <time>2020-06-02T11:00:38Z</time>
      </trkpt>
      <trkpt lat="46.31392" lon="-1.00538">
        <ele>3.6</ele>
        <time>2020-06-02T11:00:39Z</time>
      </trkpt>
      <trkpt lat="46.31393" lon="-1.00539">
        <ele>3.6</ele>
        <time>2020-06-02T11:00:40Z</time>
      </trkpt>
      <trkpt lat="46.3139" lon="-1.00539">
        <ele>3.6</ele>
        <time>2020-06-02T11:00:41Z</time>
      </trkpt>
      <trkpt lat="46.3139" lon="-1.00541">
        <ele>3.5</ele>
        <time>2020-06-02T11:00:42Z</time>
      </trkpt>
      <trkpt lat="46.3139" lon="-1.00542">
        <ele>3.5</ele>
        <time>2020-06-02T11:00:43Z</time>
      </trkpt>
      <trkpt lat="46.3139" lon="-1.00543">
        <ele>3.5</ele>
        <time>2020-06-02T11:00:44Z</time>
      </trkpt>
      <trkpt lat="46.3139" lon="-1.00543">
        <ele>3.5</ele>
        <time>2020-06-02T11:00:45Z</time>
      </trkpt>
      <trkpt lat="46.3139" lon="-1.00543">
        <ele>3.5</ele>
        <time>2020-06-02T11:00:46Z</time>
      </trkpt>
      <trkpt lat="46.3139" lon="-1.00542">
        <ele>3.5</ele>
        <time>2020-06-02T11:00:47Z</time>
      </trkpt>
      <trkpt lat="46.3139" lon="-1.00542">
        <ele>3.5</ele>
        <time>2020-06-02T11:00:48Z</time>
      </trkpt>
      <trkpt lat="46.3139" lon="-1.00542">
        <ele>3.5</ele>
        <time>2020-06-02T11:00:49Z</time>
      </trkpt>
      <trkpt lat="46.3139" lon="-1.00542">
        <ele>3.5</ele>
        <time>2020-06-02T11:00:50Z</time>
      </trkpt>
      <trkpt lat="46.3139" lon="-1.00542">
        <ele>3.5</ele>
        <time>2020-06-02T11:00:51Z</time>
      </trkpt>
      <trkpt lat="46.3139" lon="-1.00541">
        <ele>3.5</ele>
        <time>2020-06-02T11:00:52Z</time>
      </trkpt>
      <trkpt lat="46.3139" lon="-1.00541">
        <ele>3.5</ele>
        <time>2020-06-02T11:00:53Z</time>
      </trkpt>
      <trkpt lat="46.31391" lon="-1.00541">
        <ele>3.5</ele>
        <time>2020-06-02T11:00:54Z</time>
      </trkpt>
      <trkpt lat="46.31391" lon="-1.00541">
        <ele>3.5</ele>
        <time>2020-06-02T11:00:55Z</time>
      </trkpt>
      <trkpt lat="46.31391" lon="-1.00541">
        <ele>3.5</ele>
        <time>2020-06-02T11:00:56Z</time>
      </trkpt>
      <trkpt lat="46.31391" lon="-1.0054">
        <ele>3.5</ele>
        <time>2020-06-02T11:00:57Z</time>
      </trkpt>
      <trkpt lat="46.31391" lon="-1.0054">
        <ele>3.5</ele>
        <time>2020-06-02T11:00:58Z</time>
      </trkpt>
      <trkpt lat="46.31391" lon="-1.0054">
        <ele>3.5</ele>
        <time>2020-06-02T11:00:59Z</time>
      </trkpt>
      <trkpt lat="46.31391" lon="-1.0054">
        <ele>3.5</ele>
        <time>2020-06-02T11:01:00Z</time>
      </trkpt>
      <trkpt lat="46.31391" lon="-1.0054">
        <ele>3.5</ele>
        <time>2020-06-02T11:01:01Z</time>
      </trkpt>
      <trkpt lat="46.31391" lon="-1.00539">
        <ele>3.5</ele>
        <time>2020-06-02T11:01:02Z</time>
      </trkpt>
      <trkpt lat="46.31391" lon="-1.00539">
        <ele>3.5</ele>
        <time>2020-06-02T11:01:03Z</time>
      </trkpt>
      <trkpt lat="46.31391" lon="-1.00539">
        <ele>3.5</ele>
        <time>2020-06-02T11:01:04Z</time>
      </trkpt>
      <trkpt lat="46.31391" lon="-1.00539">
        <ele>3.5</ele>
        <time>2020-06-02T11:01:05Z</time>
      </trkpt>
      <trkpt lat="46.31391" lon="-1.00539">
        <ele>3.5</ele>
        <time>2020-06-02T11:01:06Z</time>
      </trkpt>
      <trkpt lat="46.31391" lon="-1.00538">
        <ele>3.5</ele>
        <time>2020-06-02T11:01:07Z</time>
      </trkpt>
      <trkpt lat="46.31391" lon="-1.00538">
        <ele>3.5</ele>
        <time>2020-06-02T11:01:08Z</time>
      </trkpt>
      <trkpt lat="46.31391" lon="-1.00538">
        <ele>3.5</ele>
        <time>2020-06-02T11:01:09Z</time>
      </trkpt>
      <trkpt lat="46.31391" lon="-1.00538">
        <ele>3.5</ele>
        <time>2020-06-02T11:01:10Z</time>
      </trkpt>
      <trkpt lat="46.31391" lon="-1.00538">
        <ele>3.5</ele>
        <time>2020-06-02T11:01:11Z</time>
      </trkpt>
      <trkpt lat="46.31391" lon="-1.00537">
        <ele>3.5</ele>
        <time>2020-06-02T11:01:12Z</time>
      </trkpt>
      <trkpt lat="46.31391" lon="-1.00537">
        <ele>3.5</ele>
        <time>2020-06-02T11:01:13Z</time>
      </trkpt>
      <trkpt lat="46.31393" lon="-1.00533">
        <ele>3.5</ele>
        <time>2020-06-02T11:01:14Z</time>
      </trkpt>
      <trkpt lat="46.31394" lon="-1.00532">
        <ele>3.5</ele>
        <time>2020-06-02T11:01:15Z</time>
      </trkpt>
      <trkpt lat="46.31394" lon="-1.00527">
        <ele>3.5</ele>
        <time>2020-06-02T11:01:16Z</time>
      </trkpt>
      <trkpt lat="46.31394" lon="-1.00526">
        <ele>3.5</ele>
        <time>2020-06-02T11:01:17Z</time>
      </trkpt>
      <trkpt lat="46.31395" lon="-1.00521">
        <ele>3.5</ele>
        <time>2020-06-02T11:01:18Z</time>
      </trkpt>
      <trkpt lat="46.31395" lon="-1.00519">
        <ele>3.5</ele>
        <time>2020-06-02T11:01:19Z</time>
      </trkpt>
      <trkpt lat="46.31397" lon="-1.00514">
        <ele>3.5</ele>
        <time>2020-06-02T11:01:20Z</time>
      </trkpt>
      <trkpt lat="46.31398" lon="-1.00512">
        <ele>3.5</ele>
        <time>2020-06-02T11:01:21Z</time>
      </trkpt>
      <trkpt lat="46.31399" lon="-1.00508">
        <ele>3.5</ele>
        <time>2020-06-02T11:01:22Z</time>
      </trkpt>
      <trkpt lat="46.314" lon="-1.00504">
        <ele>3.5</ele>
        <time>2020-06-02T11:01:23Z</time>
      </trkpt>
      <trkpt lat="46.31402" lon="-1.005">
        <ele>3.5</ele>
        <time>2020-06-02T11:01:24Z</time>
      </trkpt>
      <trkpt lat="46.31403" lon="-1.00495">
        <ele>3.5</ele>
        <time>2020-06-02T11:01:25Z</time>
      </trkpt>
      <trkpt lat="46.31404" lon="-1.00489">
        <ele>3.5</ele>
        <time>2020-06-02T11:01:26Z</time>
      </trkpt>
      <trkpt lat="46.31405" lon="-1.00485">
        <ele>3.5</ele>
        <time>2020-06-02T11:01:27Z</time>
      </trkpt>
      <trkpt lat="46.31407" lon="-1.00481">
        <ele>3.5</ele>
        <time>2020-06-02T11:01:28Z</time>
      </trkpt>
      <trkpt lat="46.31409" lon="-1.00475">
        <ele>3.5</ele>
        <time>2020-06-02T11:01:29Z</time>
      </trkpt>
      <trkpt lat="46.31411" lon="-1.00471">
        <ele>3.5</ele>
        <time>2020-06-02T11:01:30Z</time>
      </trkpt>
      <trkpt lat="46.31413" lon="-1.00467">
        <ele>3.5</ele>
        <time>2020-06-02T11:01:31Z</time>
      </trkpt>
      <trkpt lat="46.31415" lon="-1.00463">
        <ele>3.5</ele>
        <time>2020-06-02T11:01:32Z</time>
      </trkpt>
      <trkpt lat="46.31417" lon="-1.00457">
        <ele>3.5</ele>
        <time>2020-06-02T11:01:33Z</time>
      </trkpt>
      <trkpt lat="46.31419" lon="-1.00454">
        <ele>3.5</ele>
        <time>2020-06-02T11:01:34Z</time>
      </trkpt>
      <trkpt lat="46.31421" lon="-1.0045">
        <ele>3.5</ele>
        <time>2020-06-02T11:01:35Z</time>
      </trkpt>
      <trkpt lat="46.31423" lon="-1.00445">
        <ele>3.5</ele>
        <time>2020-06-02T11:01:36Z</time>
      </trkpt>
      <trkpt lat="46.31424" lon="-1.00444">
        <ele>3.5</ele>
        <time>2020-06-02T11:01:37Z</time>
      </trkpt>
      <trkpt lat="46.31423" lon="-1.00439">
        <ele>3.4</ele>
        <time>2020-06-02T11:01:38Z</time>
      </trkpt>
      <trkpt lat="46.31422" lon="-1.00435">
        <ele>3.4</ele>
        <time>2020-06-02T11:01:39Z</time>
      </trkpt>
      <trkpt lat="46.3142" lon="-1.0043">
        <ele>3.4</ele>
        <time>2020-06-02T11:01:40Z</time>
      </trkpt>
      <trkpt lat="46.31417" lon="-1.00425">
        <ele>3.4</ele>
        <time>2020-06-02T11:01:41Z</time>
      </trkpt>
      <trkpt lat="46.31415" lon="-1.00421">
        <ele>3.5</ele>
        <time>2020-06-02T11:01:42Z</time>
      </trkpt>
      <trkpt lat="46.31412" lon="-1.00417">
        <ele>3.5</ele>
        <time>2020-06-02T11:01:43Z</time>
      </trkpt>
      <trkpt lat="46.31409" lon="-1.00415">
        <ele>3.5</ele>
        <time>2020-06-02T11:01:44Z</time>
      </trkpt>
      <trkpt lat="46.31406" lon="-1.00412">
        <ele>3.5</ele>
        <time>2020-06-02T11:01:45Z</time>
      </trkpt>
      <trkpt lat="46.31403" lon="-1.00409">
        <ele>3.5</ele>
        <time>2020-06-02T11:01:46Z</time>
      </trkpt>
      <trkpt lat="46.314" lon="-1.00406">
        <ele>3.5</ele>
        <time>2020-06-02T11:01:47Z</time>
      </trkpt>
      <trkpt lat="46.31397" lon="-1.00404">
        <ele>3.5</ele>
        <time>2020-06-02T11:01:48Z</time>
      </trkpt>
      <trkpt lat="46.31395" lon="-1.004">
        <ele>3.5</ele>
        <time>2020-06-02T11:01:49Z</time>
      </trkpt>
      <trkpt lat="46.31393" lon="-1.00394">
        <ele>3.5</ele>
        <time>2020-06-02T11:01:50Z</time>
      </trkpt>
      <trkpt lat="46.31393" lon="-1.00388">
        <ele>3.5</ele>
        <time>2020-06-02T11:01:51Z</time>
      </trkpt>
      <trkpt lat="46.31393" lon="-1.00383">
        <ele>3.5</ele>
        <time>2020-06-02T11:01:52Z</time>
      </trkpt>
      <trkpt lat="46.31393" lon="-1.00377">
        <ele>3.5</ele>
        <time>2020-06-02T11:01:53Z</time>
      </trkpt>
      <trkpt lat="46.31393" lon="-1.00372">
        <ele>3.5</ele>
        <time>2020-06-02T11:01:54Z</time>
      </trkpt>
      <trkpt lat="46.31394" lon="-1.00366">
        <ele>3.5</ele>
        <time>2020-06-02T11:01:55Z</time>
      </trkpt>
      <trkpt lat="46.31395" lon="-1.00361">
        <ele>3.5</ele>
        <time>2020-06-02T11:01:56Z</time>
      </trkpt>
      <trkpt lat="46.31397" lon="-1.00355">
        <ele>3.5</ele>
        <time>2020-06-02T11:01:57Z</time>
      </trkpt>
      <trkpt lat="46.314" lon="-1.0035">
        <ele>3.4</ele>
        <time>2020-06-02T11:01:58Z</time>
      </trkpt>
      <trkpt lat="46.31402" lon="-1.00343">
        <ele>3.4</ele>
        <time>2020-06-02T11:01:59Z</time>
      </trkpt>
      <trkpt lat="46.31404" lon="-1.00338">
        <ele>3.4</ele>
        <time>2020-06-02T11:02:00Z</time>
      </trkpt>
      <trkpt lat="46.31403" lon="-1.00332">
        <ele>3.4</ele>
        <time>2020-06-02T11:02:01Z</time>
      </trkpt>
      <trkpt lat="46.31403" lon="-1.00325">
        <ele>3.4</ele>
        <time>2020-06-02T11:02:02Z</time>
      </trkpt>
      <trkpt lat="46.31403" lon="-1.0032">
        <ele>3.4</ele>
        <time>2020-06-02T11:02:03Z</time>
      </trkpt>
      <trkpt lat="46.31401" lon="-1.00314">
        <ele>3.4</ele>
        <time>2020-06-02T11:02:04Z</time>
      </trkpt>
      <trkpt lat="46.314" lon="-1.00308">
        <ele>3.4</ele>
        <time>2020-06-02T11:02:05Z</time>
      </trkpt>
      <trkpt lat="46.31398" lon="-1.00302">
        <ele>3.4</ele>
        <time>2020-06-02T11:02:06Z</time>
      </trkpt>
      <trkpt lat="46.31397" lon="-1.00296">
        <ele>3.4</ele>
        <time>2020-06-02T11:02:07Z</time>
      </trkpt>
      <trkpt lat="46.31395" lon="-1.00291">
        <ele>3.4</ele>
        <time>2020-06-02T11:02:08Z</time>
      </trkpt>
      <trkpt lat="46.31395" lon="-1.00286">
        <ele>3.4</ele>
        <time>2020-06-02T11:02:09Z</time>
      </trkpt>
      <trkpt lat="46.31393" lon="-1.00281">
        <ele>3.3</ele>
        <time>2020-06-02T11:02:10Z</time>
      </trkpt>
      <trkpt lat="46.31392" lon="-1.00276">
        <ele>3.3</ele>
        <time>2020-06-02T11:02:11Z</time>
      </trkpt>
      <trkpt lat="46.3139" lon="-1.00272">
        <ele>3.3</ele>
        <time>2020-06-02T11:02:12Z</time>
      </trkpt>
      <trkpt lat="46.31387" lon="-1.00268">
        <ele>3.3</ele>
        <time>2020-06-02T11:02:13Z</time>
      </trkpt>
      <trkpt lat="46.31384" lon="-1.00263">
        <ele>3.3</ele>
        <time>2020-06-02T11:02:14Z</time>
      </trkpt>
      <trkpt lat="46.31382" lon="-1.00258">
        <ele>3.3</ele>
        <time>2020-06-02T11:02:15Z</time>
      </trkpt>
      <trkpt lat="46.3138" lon="-1.00254">
        <ele>3.3</ele>
        <time>2020-06-02T11:02:16Z</time>
      </trkpt>
      <trkpt lat="46.31378" lon="-1.00249">
        <ele>3.4</ele>
        <time>2020-06-02T11:02:17Z</time>
      </trkpt>
      <trkpt lat="46.31376" lon="-1.00244">
        <ele>3.4</ele>
        <time>2020-06-02T11:02:18Z</time>
      </trkpt>
      <trkpt lat="46.31375" lon="-1.00239">
        <ele>3.4</ele>
        <time>2020-06-02T11:02:19Z</time>
      </trkpt>
      <trkpt lat="46.31374" lon="-1.00233">
        <ele>3.4</ele>
        <time>2020-06-02T11:02:20Z</time>
      </trkpt>
      <trkpt lat="46.31373" lon="-1.00228">
        <ele>3.4</ele>
        <time>2020-06-02T11:02:21Z</time>
      </trkpt>
      <trkpt lat="46.31371" lon="-1.00223">
        <ele>3.4</ele>
        <time>2020-06-02T11:02:22Z</time>
      </trkpt>
      <trkpt lat="46.31369" lon="-1.00218">
        <ele>3.4</ele>
        <time>2020-06-02T11:02:23Z</time>
      </trkpt>
      <trkpt lat="46.31368" lon="-1.00213">
        <ele>3.4</ele>
        <time>2020-06-02T11:02:24Z</time>
      </trkpt>
      <trkpt lat="46.31366" lon="-1.00207">
        <ele>3.4</ele>
        <time>2020-06-02T11:02:25Z</time>
      </trkpt>
      <trkpt lat="46.31365" lon="-1.00202">
        <ele>3.4</ele>
        <time>2020-06-02T11:02:26Z</time>
      </trkpt>
      <trkpt lat="46.31364" lon="-1.00197">
        <ele>3.4</ele>
        <time>2020-06-02T11:02:27Z</time>
      </trkpt>
      <trkpt lat="46.31362" lon="-1.00192">
        <ele>3.4</ele>
        <time>2020-06-02T11:02:28Z</time>
      </trkpt>
      <trkpt lat="46.3136" lon="-1.00185">
        <ele>3.4</ele>
        <time>2020-06-02T11:02:29Z</time>
      </trkpt>
      <trkpt lat="46.31359" lon="-1.00179">
        <ele>3.4</ele>
        <time>2020-06-02T11:02:30Z</time>
      </trkpt>
      <trkpt lat="46.31357" lon="-1.00173">
        <ele>3.4</ele>
        <time>2020-06-02T11:02:31Z</time>
      </trkpt>
      <trkpt lat="46.31354" lon="-1.00169">
        <ele>3.4</ele>
        <time>2020-06-02T11:02:32Z</time>
      </trkpt>
      <trkpt lat="46.31352" lon="-1.00163">
        <ele>3.4</ele>
        <time>2020-06-02T11:02:33Z</time>
      </trkpt>
      <trkpt lat="46.3135" lon="-1.00157">
        <ele>3.4</ele>
        <time>2020-06-02T11:02:34Z</time>
      </trkpt>
      <trkpt lat="46.31349" lon="-1.00152">
        <ele>3.4</ele>
        <time>2020-06-02T11:02:35Z</time>
      </trkpt>
      <trkpt lat="46.31346" lon="-1.00146">
        <ele>3.4</ele>
        <time>2020-06-02T11:02:36Z</time>
      </trkpt>
      <trkpt lat="46.31345" lon="-1.00141">
        <ele>3.4</ele>
        <time>2020-06-02T11:02:37Z</time>
      </trkpt>
      <trkpt lat="46.31343" lon="-1.00137">
        <ele>3.5</ele>
        <time>2020-06-02T11:02:38Z</time>
      </trkpt>
      <trkpt lat="46.31341" lon="-1.00132">
        <ele>3.5</ele>
        <time>2020-06-02T11:02:39Z</time>
      </trkpt>
      <trkpt lat="46.31339" lon="-1.00127">
        <ele>3.5</ele>
        <time>2020-06-02T11:02:40Z</time>
      </trkpt>
      <trkpt lat="46.31338" lon="-1.00125">
        <ele>3.5</ele>
        <time>2020-06-02T11:02:41Z</time>
      </trkpt>
      <trkpt lat="46.31336" lon="-1.00119">
        <ele>3.5</ele>
        <time>2020-06-02T11:02:42Z</time>
      </trkpt>
      <trkpt lat="46.31333" lon="-1.00113">
        <ele>3.5</ele>
        <time>2020-06-02T11:02:43Z</time>
      </trkpt>
      <trkpt lat="46.31328" lon="-1.00107">
        <ele>3.5</ele>
        <time>2020-06-02T11:02:44Z</time>
      </trkpt>
      <trkpt lat="46.31327" lon="-1.00101">
        <ele>3.5</ele>
        <time>2020-06-02T11:02:45Z</time>
      </trkpt>
      <trkpt lat="46.31327" lon="-1.00095">
        <ele>3.5</ele>
        <time>2020-06-02T11:02:46Z</time>
      </trkpt>
      <trkpt lat="46.31326" lon="-1.0009">
        <ele>3.5</ele>
        <time>2020-06-02T11:02:47Z</time>
      </trkpt>
      <trkpt lat="46.31324" lon="-1.00083">
        <ele>3.5</ele>
        <time>2020-06-02T11:02:48Z</time>
      </trkpt>
      <trkpt lat="46.31323" lon="-1.00076">
        <ele>3.5</ele>
        <time>2020-06-02T11:02:49Z</time>
      </trkpt>
      <trkpt lat="46.31321" lon="-1.00069">
        <ele>3.5</ele>
        <time>2020-06-02T11:02:50Z</time>
      </trkpt>
      <trkpt lat="46.31319" lon="-1.00064">
        <ele>3.5</ele>
        <time>2020-06-02T11:02:51Z</time>
      </trkpt>
      <trkpt lat="46.31316" lon="-1.00057">
        <ele>3.5</ele>
        <time>2020-06-02T11:02:52Z</time>
      </trkpt>
      <trkpt lat="46.31315" lon="-1.00052">
        <ele>3.5</ele>
        <time>2020-06-02T11:02:53Z</time>
      </trkpt>
      <trkpt lat="46.31313" lon="-1.00046">
        <ele>3.5</ele>
        <time>2020-06-02T11:02:54Z</time>
      </trkpt>
      <trkpt lat="46.3131" lon="-1.00038">
        <ele>3.5</ele>
        <time>2020-06-02T11:02:55Z</time>
      </trkpt>
      <trkpt lat="46.31308" lon="-1.00033">
        <ele>3.5</ele>
        <time>2020-06-02T11:02:56Z</time>
      </trkpt>
      <trkpt lat="46.31307" lon="-1.00027">
        <ele>3.5</ele>
        <time>2020-06-02T11:02:57Z</time>
      </trkpt>
      <trkpt lat="46.31305" lon="-1.00021">
        <ele>3.5</ele>
        <time>2020-06-02T11:02:58Z</time>
      </trkpt>
      <trkpt lat="46.31303" lon="-1.00015">
        <ele>3.5</ele>
        <time>2020-06-02T11:02:59Z</time>
      </trkpt>
      <trkpt lat="46.313" lon="-1.0001">
        <ele>3.6</ele>
        <time>2020-06-02T11:03:00Z</time>
      </trkpt>
      <trkpt lat="46.31298" lon="-1.00005">
        <ele>3.6</ele>
        <time>2020-06-02T11:03:01Z</time>
      </trkpt>
      <trkpt lat="46.31296" lon="-1">
        <ele>3.6</ele>
        <time>2020-06-02T11:03:02Z</time>
      </trkpt>
      <trkpt lat="46.31294" lon="-0.99996">
        <ele>3.6</ele>
        <time>2020-06-02T11:03:03Z</time>
      </trkpt>
      <trkpt lat="46.31291" lon="-0.99992">
        <ele>3.6</ele>
        <time>2020-06-02T11:03:04Z</time>
      </trkpt>
      <trkpt lat="46.31287" lon="-0.99989">
        <ele>3.6</ele>
        <time>2020-06-02T11:03:05Z</time>
      </trkpt>
      <trkpt lat="46.31284" lon="-0.99987">
        <ele>3.6</ele>
        <time>2020-06-02T11:03:06Z</time>
      </trkpt>
      <trkpt lat="46.31281" lon="-0.99983">
        <ele>3.6</ele>
        <time>2020-06-02T11:03:07Z</time>
      </trkpt>
      <trkpt lat="46.31277" lon="-0.99979">
        <ele>3.7</ele>
        <time>2020-06-02T11:03:08Z</time>
      </trkpt>
      <trkpt lat="46.31274" lon="-0.99976">
        <ele>3.7</ele>
        <time>2020-06-02T11:03:09Z</time>
      </trkpt>
      <trkpt lat="46.31271" lon="-0.99971">
        <ele>3.7</ele>
        <time>2020-06-02T11:03:10Z</time>
      </trkpt>
      <trkpt lat="46.31268" lon="-0.99967">
        <ele>3.7</ele>
        <time>2020-06-02T11:03:11Z</time>
      </trkpt>
      <trkpt lat="46.31265" lon="-0.99962">
        <ele>3.7</ele>
        <time>2020-06-02T11:03:12Z</time>
      </trkpt>
      <trkpt lat="46.31263" lon="-0.99957">
        <ele>3.8</ele>
        <time>2020-06-02T11:03:13Z</time>
      </trkpt>
      <trkpt lat="46.3126" lon="-0.99953">
        <ele>3.8</ele>
        <time>2020-06-02T11:03:14Z</time>
      </trkpt>
      <trkpt lat="46.31257" lon="-0.99948">
        <ele>3.8</ele>
        <time>2020-06-02T11:03:15Z</time>
      </trkpt>
      <trkpt lat="46.31253" lon="-0.99943">
        <ele>3.8</ele>
        <time>2020-06-02T11:03:16Z</time>
      </trkpt>
      <trkpt lat="46.31251" lon="-0.99937">
        <ele>3.8</ele>
        <time>2020-06-02T11:03:17Z</time>
      </trkpt>
      <trkpt lat="46.31249" lon="-0.99933">
        <ele>3.9</ele>
        <time>2020-06-02T11:03:18Z</time>
      </trkpt>
      <trkpt lat="46.31245" lon="-0.99928">
        <ele>3.9</ele>
        <time>2020-06-02T11:03:19Z</time>
      </trkpt>
      <trkpt lat="46.31242" lon="-0.99924">
        <ele>3.9</ele>
        <time>2020-06-02T11:03:20Z</time>
      </trkpt>
      <trkpt lat="46.31239" lon="-0.99921">
        <ele>3.9</ele>
        <time>2020-06-02T11:03:21Z</time>
      </trkpt>
      <trkpt lat="46.31237" lon="-0.99916">
        <ele>4</ele>
        <time>2020-06-02T11:03:22Z</time>
      </trkpt>
      <trkpt lat="46.31233" lon="-0.99911">
        <ele>4</ele>
        <time>2020-06-02T11:03:23Z</time>
      </trkpt>
      <trkpt lat="46.3123" lon="-0.99906">
        <ele>4</ele>
        <time>2020-06-02T11:03:24Z</time>
      </trkpt>
      <trkpt lat="46.31227" lon="-0.99902">
        <ele>4</ele>
        <time>2020-06-02T11:03:25Z</time>
      </trkpt>
      <trkpt lat="46.31224" lon="-0.99897">
        <ele>4</ele>
        <time>2020-06-02T11:03:26Z</time>
      </trkpt>
      <trkpt lat="46.31222" lon="-0.99891">
        <ele>4.1</ele>
        <time>2020-06-02T11:03:27Z</time>
      </trkpt>
      <trkpt lat="46.31219" lon="-0.99885">
        <ele>4.1</ele>
        <time>2020-06-02T11:03:28Z</time>
      </trkpt>
      <trkpt lat="46.31217" lon="-0.99879">
        <ele>4.1</ele>
        <time>2020-06-02T11:03:29Z</time>
      </trkpt>
      <trkpt lat="46.31217" lon="-0.99873">
        <ele>4.1</ele>
        <time>2020-06-02T11:03:30Z</time>
      </trkpt>
      <trkpt lat="46.31215" lon="-0.99866">
        <ele>4.2</ele>
        <time>2020-06-02T11:03:31Z</time>
      </trkpt>
      <trkpt lat="46.31214" lon="-0.99859">
        <ele>4.2</ele>
        <time>2020-06-02T11:03:32Z</time>
      </trkpt>
      <trkpt lat="46.31213" lon="-0.99853">
        <ele>4.2</ele>
        <time>2020-06-02T11:03:33Z</time>
      </trkpt>
      <trkpt lat="46.31213" lon="-0.99847">
        <ele>4.2</ele>
        <time>2020-06-02T11:03:34Z</time>
      </trkpt>
      <trkpt lat="46.31212" lon="-0.99839">
        <ele>4.3</ele>
        <time>2020-06-02T11:03:35Z</time>
      </trkpt>
      <trkpt lat="46.31213" lon="-0.99834">
        <ele>4.3</ele>
        <time>2020-06-02T11:03:36Z</time>
      </trkpt>
      <trkpt lat="46.31213" lon="-0.99828">
        <ele>4.3</ele>
        <time>2020-06-02T11:03:37Z</time>
      </trkpt>
      <trkpt lat="46.31212" lon="-0.99822">
        <ele>4.3</ele>
        <time>2020-06-02T11:03:38Z</time>
      </trkpt>
      <trkpt lat="46.31211" lon="-0.99817">
        <ele>4.3</ele>
        <time>2020-06-02T11:03:39Z</time>
      </trkpt>
      <trkpt lat="46.3121" lon="-0.99812">
        <ele>4.3</ele>
        <time>2020-06-02T11:03:40Z</time>
      </trkpt>
      <trkpt lat="46.3121" lon="-0.99806">
        <ele>4.3</ele>
        <time>2020-06-02T11:03:41Z</time>
      </trkpt>
      <trkpt lat="46.3121" lon="-0.998">
        <ele>4.3</ele>
        <time>2020-06-02T11:03:42Z</time>
      </trkpt>
      <trkpt lat="46.31212" lon="-0.99794">
        <ele>4.3</ele>
        <time>2020-06-02T11:03:43Z</time>
      </trkpt>
      <trkpt lat="46.31214" lon="-0.99789">
        <ele>4.2</ele>
        <time>2020-06-02T11:03:44Z</time>
      </trkpt>
      <trkpt lat="46.31216" lon="-0.99785">
        <ele>4.2</ele>
        <time>2020-06-02T11:03:45Z</time>
      </trkpt>
      <trkpt lat="46.31218" lon="-0.9978">
        <ele>4.2</ele>
        <time>2020-06-02T11:03:46Z</time>
      </trkpt>
      <trkpt lat="46.3122" lon="-0.99773">
        <ele>4.2</ele>
        <time>2020-06-02T11:03:47Z</time>
      </trkpt>
      <trkpt lat="46.31223" lon="-0.99768">
        <ele>4.1</ele>
        <time>2020-06-02T11:03:48Z</time>
      </trkpt>
      <trkpt lat="46.31226" lon="-0.99764">
        <ele>4.1</ele>
        <time>2020-06-02T11:03:49Z</time>
      </trkpt>
      <trkpt lat="46.31229" lon="-0.9976">
        <ele>4.1</ele>
        <time>2020-06-02T11:03:50Z</time>
      </trkpt>
      <trkpt lat="46.3123" lon="-0.99756">
        <ele>4.1</ele>
        <time>2020-06-02T11:03:51Z</time>
      </trkpt>
      <trkpt lat="46.31231" lon="-0.99751">
        <ele>4.1</ele>
        <time>2020-06-02T11:03:52Z</time>
      </trkpt>
      <trkpt lat="46.31233" lon="-0.99746">
        <ele>4.1</ele>
        <time>2020-06-02T11:03:53Z</time>
      </trkpt>
      <trkpt lat="46.31236" lon="-0.99742">
        <ele>4.1</ele>
        <time>2020-06-02T11:03:54Z</time>
      </trkpt>
      <trkpt lat="46.31238" lon="-0.99737">
        <ele>4.1</ele>
        <time>2020-06-02T11:03:55Z</time>
      </trkpt>
      <trkpt lat="46.3124" lon="-0.99734">
        <ele>4.1</ele>
        <time>2020-06-02T11:03:56Z</time>
      </trkpt>
      <trkpt lat="46.31242" lon="-0.99728">
        <ele>4.2</ele>
        <time>2020-06-02T11:03:57Z</time>
      </trkpt>
      <trkpt lat="46.31244" lon="-0.99725">
        <ele>4.2</ele>
        <time>2020-06-02T11:03:58Z</time>
      </trkpt>
      <trkpt lat="46.31245" lon="-0.99721">
        <ele>4.2</ele>
        <time>2020-06-02T11:03:59Z</time>
      </trkpt>
      <trkpt lat="46.31246" lon="-0.99717">
        <ele>4.2</ele>
        <time>2020-06-02T11:04:00Z</time>
      </trkpt>
      <trkpt lat="46.31248" lon="-0.99714">
        <ele>4.3</ele>
        <time>2020-06-02T11:04:01Z</time>
      </trkpt>
      <trkpt lat="46.3125" lon="-0.9971">
        <ele>4.3</ele>
        <time>2020-06-02T11:04:02Z</time>
      </trkpt>
      <trkpt lat="46.31254" lon="-0.99706">
        <ele>4.3</ele>
        <time>2020-06-02T11:04:03Z</time>
      </trkpt>
      <trkpt lat="46.31255" lon="-0.997">
        <ele>4.4</ele>
        <time>2020-06-02T11:04:04Z</time>
      </trkpt>
      <trkpt lat="46.31257" lon="-0.99694">
        <ele>4.4</ele>
        <time>2020-06-02T11:04:05Z</time>
      </trkpt>
      <trkpt lat="46.31261" lon="-0.99689">
        <ele>4.5</ele>
        <time>2020-06-02T11:04:06Z</time>
      </trkpt>
      <trkpt lat="46.31263" lon="-0.99684">
        <ele>4.5</ele>
        <time>2020-06-02T11:04:07Z</time>
      </trkpt>
      <trkpt lat="46.31266" lon="-0.99683">
        <ele>4.6</ele>
        <time>2020-06-02T11:04:08Z</time>
      </trkpt>
      <trkpt lat="46.31269" lon="-0.99685">
        <ele>4.6</ele>
        <time>2020-06-02T11:04:09Z</time>
      </trkpt>
      <trkpt lat="46.31271" lon="-0.99691">
        <ele>4.6</ele>
        <time>2020-06-02T11:04:10Z</time>
      </trkpt>
      <trkpt lat="46.31272" lon="-0.99696">
        <ele>4.6</ele>
        <time>2020-06-02T11:04:11Z</time>
      </trkpt>
      <trkpt lat="46.31274" lon="-0.99699">
        <ele>4.6</ele>
        <time>2020-06-02T11:04:12Z</time>
      </trkpt>
      <trkpt lat="46.31274" lon="-0.997">
        <ele>4.6</ele>
        <time>2020-06-02T11:04:13Z</time>
      </trkpt>
      <trkpt lat="46.31274" lon="-0.997">
        <ele>4.6</ele>
        <time>2020-06-02T11:04:14Z</time>
      </trkpt>
      <trkpt lat="46.31274" lon="-0.99701">
        <ele>4.6</ele>
        <time>2020-06-02T11:04:15Z</time>
      </trkpt>
      <trkpt lat="46.31274" lon="-0.997">
        <ele>4.6</ele>
        <time>2020-06-02T11:04:16Z</time>
      </trkpt>
      <trkpt lat="46.31275" lon="-0.99701">
        <ele>4.6</ele>
        <time>2020-06-02T11:04:17Z</time>
      </trkpt>
      <trkpt lat="46.31275" lon="-0.99701">
        <ele>4.6</ele>
        <time>2020-06-02T11:04:18Z</time>
      </trkpt>
      <trkpt lat="46.31273" lon="-0.99702">
        <ele>4.6</ele>
        <time>2020-06-02T11:04:19Z</time>
      </trkpt>
      <trkpt lat="46.31273" lon="-0.99702">
        <ele>4.6</ele>
        <time>2020-06-02T11:04:20Z</time>
      </trkpt>
      <trkpt lat="46.31274" lon="-0.99702">
        <ele>4.6</ele>
        <time>2020-06-02T11:04:21Z</time>
      </trkpt>
      <trkpt lat="46.31274" lon="-0.99702">
        <ele>4.6</ele>
        <time>2020-06-02T11:04:22Z</time>
      </trkpt>
      <trkpt lat="46.31274" lon="-0.99702">
        <ele>4.6</ele>
        <time>2020-06-02T11:04:23Z</time>
      </trkpt>
      <trkpt lat="46.31134" lon="-0.99124">
        <ele>4.9</ele>
        <time>2020-06-02T12:45:18Z</time>
      </trkpt>
      <trkpt lat="46.31137" lon="-0.99129">
        <ele>4.8</ele>
        <time>2020-06-02T12:45:19Z</time>
      </trkpt>
      <trkpt lat="46.31136" lon="-0.99131">
        <ele>4.8</ele>
        <time>2020-06-02T12:45:20Z</time>
      </trkpt>
      <trkpt lat="46.31135" lon="-0.99132">
        <ele>4.8</ele>
        <time>2020-06-02T12:45:21Z</time>
      </trkpt>
      <trkpt lat="46.31134" lon="-0.99134">
        <ele>4.8</ele>
        <time>2020-06-02T12:45:23Z</time>
      </trkpt>
      <trkpt lat="46.31133" lon="-0.99136">
        <ele>4.8</ele>
        <time>2020-06-02T12:45:24Z</time>
      </trkpt>
      <trkpt lat="46.31132" lon="-0.99137">
        <ele>4.8</ele>
        <time>2020-06-02T12:45:25Z</time>
      </trkpt>
      <trkpt lat="46.31131" lon="-0.99139">
        <ele>4.8</ele>
        <time>2020-06-02T12:45:26Z</time>
      </trkpt>
      <trkpt lat="46.31131" lon="-0.99141">
        <ele>4.7</ele>
        <time>2020-06-02T12:45:27Z</time>
      </trkpt>
      <trkpt lat="46.3113" lon="-0.99142">
        <ele>4.7</ele>
        <time>2020-06-02T12:45:28Z</time>
      </trkpt>
      <trkpt lat="46.31129" lon="-0.99144">
        <ele>4.7</ele>
        <time>2020-06-02T12:45:29Z</time>
      </trkpt>
      <trkpt lat="46.31129" lon="-0.99146">
        <ele>4.7</ele>
        <time>2020-06-02T12:45:30Z</time>
      </trkpt>
      <trkpt lat="46.31128" lon="-0.9915">
        <ele>4.7</ele>
        <time>2020-06-02T12:45:31Z</time>
      </trkpt>
      <trkpt lat="46.31128" lon="-0.99152">
        <ele>4.7</ele>
        <time>2020-06-02T12:45:32Z</time>
      </trkpt>
      <trkpt lat="46.31127" lon="-0.99154">
        <ele>4.7</ele>
        <time>2020-06-02T12:45:33Z</time>
      </trkpt>
      <trkpt lat="46.31125" lon="-0.99156">
        <ele>4.7</ele>
        <time>2020-06-02T12:45:34Z</time>
      </trkpt>
      <trkpt lat="46.31124" lon="-0.99157">
        <ele>4.7</ele>
        <time>2020-06-02T12:45:35Z</time>
      </trkpt>
      <trkpt lat="46.31122" lon="-0.99157">
        <ele>4.7</ele>
        <time>2020-06-02T12:45:36Z</time>
      </trkpt>
      <trkpt lat="46.31121" lon="-0.99158">
        <ele>4.7</ele>
        <time>2020-06-02T12:45:38Z</time>
      </trkpt>
      <trkpt lat="46.31121" lon="-0.99158">
        <ele>4.7</ele>
        <time>2020-06-02T12:45:39Z</time>
      </trkpt>
      <trkpt lat="46.31121" lon="-0.99158">
        <ele>4.7</ele>
        <time>2020-06-02T12:45:40Z</time>
      </trkpt>
      <trkpt lat="46.31121" lon="-0.99159">
        <ele>4.7</ele>
        <time>2020-06-02T12:45:41Z</time>
      </trkpt>
      <trkpt lat="46.31121" lon="-0.99159">
        <ele>4.7</ele>
        <time>2020-06-02T12:45:42Z</time>
      </trkpt>
      <trkpt lat="46.31121" lon="-0.9916">
        <ele>4.7</ele>
        <time>2020-06-02T12:45:43Z</time>
      </trkpt>
      <trkpt lat="46.3112" lon="-0.99161">
        <ele>4.7</ele>
        <time>2020-06-02T12:45:44Z</time>
      </trkpt>
      <trkpt lat="46.31119" lon="-0.99162">
        <ele>4.7</ele>
        <time>2020-06-02T12:45:45Z</time>
      </trkpt>
      <trkpt lat="46.31118" lon="-0.99164">
        <ele>4.7</ele>
        <time>2020-06-02T12:45:46Z</time>
      </trkpt>
      <trkpt lat="46.31117" lon="-0.99165">
        <ele>4.7</ele>
        <time>2020-06-02T12:45:47Z</time>
      </trkpt>
      <trkpt lat="46.31117" lon="-0.99167">
        <ele>4.7</ele>
        <time>2020-06-02T12:45:48Z</time>
      </trkpt>
      <trkpt lat="46.31116" lon="-0.99168">
        <ele>4.7</ele>
        <time>2020-06-02T12:45:49Z</time>
      </trkpt>
      <trkpt lat="46.31115" lon="-0.99168">
        <ele>4.7</ele>
        <time>2020-06-02T12:45:50Z</time>
      </trkpt>
      <trkpt lat="46.31115" lon="-0.99167">
        <ele>4.7</ele>
        <time>2020-06-02T12:45:51Z</time>
      </trkpt>
      <trkpt lat="46.31114" lon="-0.99167">
        <ele>4.7</ele>
        <time>2020-06-02T12:45:52Z</time>
      </trkpt>
      <trkpt lat="46.31114" lon="-0.99167">
        <ele>4.7</ele>
        <time>2020-06-02T12:45:53Z</time>
      </trkpt>
      <trkpt lat="46.31115" lon="-0.99167">
        <ele>4.7</ele>
        <time>2020-06-02T12:45:54Z</time>
      </trkpt>
      <trkpt lat="46.31115" lon="-0.99167">
        <ele>4.7</ele>
        <time>2020-06-02T12:45:55Z</time>
      </trkpt>
      <trkpt lat="46.31115" lon="-0.99167">
        <ele>4.7</ele>
        <time>2020-06-02T12:45:56Z</time>
      </trkpt>
      <trkpt lat="46.31115" lon="-0.99167">
        <ele>4.7</ele>
        <time>2020-06-02T12:45:57Z</time>
      </trkpt>
      <trkpt lat="46.31116" lon="-0.99167">
        <ele>4.7</ele>
        <time>2020-06-02T12:45:58Z</time>
      </trkpt>
      <trkpt lat="46.31116" lon="-0.99168">
        <ele>4.7</ele>
        <time>2020-06-02T12:45:59Z</time>
      </trkpt>
      <trkpt lat="46.31116" lon="-0.99167">
        <ele>4.7</ele>
        <time>2020-06-02T12:46:00Z</time>
      </trkpt>
      <trkpt lat="46.31116" lon="-0.99168">
        <ele>4.7</ele>
        <time>2020-06-02T12:46:01Z</time>
      </trkpt>
      <trkpt lat="46.31116" lon="-0.99167">
        <ele>4.7</ele>
        <time>2020-06-02T12:46:02Z</time>
      </trkpt>
      <trkpt lat="46.31115" lon="-0.99167">
        <ele>4.7</ele>
        <time>2020-06-02T12:46:03Z</time>
      </trkpt>
      <trkpt lat="46.31114" lon="-0.99167">
        <ele>4.7</ele>
        <time>2020-06-02T12:46:04Z</time>
      </trkpt>
      <trkpt lat="46.31114" lon="-0.99167">
        <ele>4.7</ele>
        <time>2020-06-02T12:46:05Z</time>
      </trkpt>
      <trkpt lat="46.31114" lon="-0.99167">
        <ele>4.7</ele>
        <time>2020-06-02T12:46:06Z</time>
      </trkpt>
      <trkpt lat="46.31114" lon="-0.99167">
        <ele>4.7</ele>
        <time>2020-06-02T12:46:07Z</time>
      </trkpt>
      <trkpt lat="46.31114" lon="-0.99167">
        <ele>4.7</ele>
        <time>2020-06-02T12:46:08Z</time>
      </trkpt>
      <trkpt lat="46.31114" lon="-0.99167">
        <ele>4.7</ele>
        <time>2020-06-02T12:46:09Z</time>
      </trkpt>
      <trkpt lat="46.31115" lon="-0.99167">
        <ele>4.7</ele>
        <time>2020-06-02T12:46:10Z</time>
      </trkpt>
      <trkpt lat="46.31116" lon="-0.99168">
        <ele>4.7</ele>
        <time>2020-06-02T12:46:11Z</time>
      </trkpt>
      <trkpt lat="46.31116" lon="-0.99168">
        <ele>4.7</ele>
        <time>2020-06-02T12:46:12Z</time>
      </trkpt>
      <trkpt lat="46.31117" lon="-0.99169">
        <ele>4.7</ele>
        <time>2020-06-02T12:46:13Z</time>
      </trkpt>
      <trkpt lat="46.31117" lon="-0.99169">
        <ele>4.7</ele>
        <time>2020-06-02T12:46:14Z</time>
      </trkpt>
      <trkpt lat="46.31117" lon="-0.99169">
        <ele>4.7</ele>
        <time>2020-06-02T12:46:15Z</time>
      </trkpt>
      <trkpt lat="46.31117" lon="-0.99169">
        <ele>4.7</ele>
        <time>2020-06-02T12:46:16Z</time>
      </trkpt>
      <trkpt lat="46.31117" lon="-0.99169">
        <ele>4.7</ele>
        <time>2020-06-02T12:46:17Z</time>
      </trkpt>
      <trkpt lat="46.31117" lon="-0.99169">
        <ele>4.7</ele>
        <time>2020-06-02T12:46:18Z</time>
      </trkpt>
      <trkpt lat="46.31117" lon="-0.9917">
        <ele>4.7</ele>
        <time>2020-06-02T12:46:19Z</time>
      </trkpt>
      <trkpt lat="46.31117" lon="-0.99171">
        <ele>4.7</ele>
        <time>2020-06-02T12:46:20Z</time>
      </trkpt>
      <trkpt lat="46.31119" lon="-0.99172">
        <ele>4.7</ele>
        <time>2020-06-02T12:46:21Z</time>
      </trkpt>
      <trkpt lat="46.3112" lon="-0.99173">
        <ele>4.7</ele>
        <time>2020-06-02T12:46:22Z</time>
      </trkpt>
      <trkpt lat="46.3112" lon="-0.99172">
        <ele>4.7</ele>
        <time>2020-06-02T12:46:23Z</time>
      </trkpt>
      <trkpt lat="46.3112" lon="-0.99172">
        <ele>4.7</ele>
        <time>2020-06-02T12:46:24Z</time>
      </trkpt>
      <trkpt lat="46.31121" lon="-0.99172">
        <ele>4.7</ele>
        <time>2020-06-02T12:46:25Z</time>
      </trkpt>
      <trkpt lat="46.31121" lon="-0.99172">
        <ele>4.7</ele>
        <time>2020-06-02T12:46:26Z</time>
      </trkpt>
      <trkpt lat="46.31121" lon="-0.99172">
        <ele>4.7</ele>
        <time>2020-06-02T12:46:27Z</time>
      </trkpt>
      <trkpt lat="46.31121" lon="-0.99172">
        <ele>4.7</ele>
        <time>2020-06-02T12:46:28Z</time>
      </trkpt>
      <trkpt lat="46.31122" lon="-0.99172">
        <ele>4.7</ele>
        <time>2020-06-02T12:46:29Z</time>
      </trkpt>
      <trkpt lat="46.31122" lon="-0.99172">
        <ele>4.7</ele>
        <time>2020-06-02T12:46:30Z</time>
      </trkpt>
      <trkpt lat="46.31122" lon="-0.99172">
        <ele>4.7</ele>
        <time>2020-06-02T12:46:31Z</time>
      </trkpt>
      <trkpt lat="46.31123" lon="-0.99172">
        <ele>4.7</ele>
        <time>2020-06-02T12:46:32Z</time>
      </trkpt>
      <trkpt lat="46.31123" lon="-0.99172">
        <ele>4.7</ele>
        <time>2020-06-02T12:46:33Z</time>
      </trkpt>
      <trkpt lat="46.31123" lon="-0.99172">
        <ele>4.7</ele>
        <time>2020-06-02T12:46:34Z</time>
      </trkpt>
      <trkpt lat="46.31123" lon="-0.99173">
        <ele>4.7</ele>
        <time>2020-06-02T12:46:35Z</time>
      </trkpt>
      <trkpt lat="46.31124" lon="-0.99173">
        <ele>4.7</ele>
        <time>2020-06-02T12:46:36Z</time>
      </trkpt>
      <trkpt lat="46.31125" lon="-0.99175">
        <ele>4.7</ele>
        <time>2020-06-02T12:46:37Z</time>
      </trkpt>
      <trkpt lat="46.31125" lon="-0.99176">
        <ele>4.7</ele>
        <time>2020-06-02T12:46:38Z</time>
      </trkpt>
      <trkpt lat="46.31125" lon="-0.99178">
        <ele>4.8</ele>
        <time>2020-06-02T12:46:39Z</time>
      </trkpt>
      <trkpt lat="46.31125" lon="-0.99183">
        <ele>4.8</ele>
        <time>2020-06-02T12:46:40Z</time>
      </trkpt>
      <trkpt lat="46.31125" lon="-0.99185">
        <ele>4.8</ele>
        <time>2020-06-02T12:46:41Z</time>
      </trkpt>
      <trkpt lat="46.31126" lon="-0.9919">
        <ele>4.8</ele>
        <time>2020-06-02T12:46:42Z</time>
      </trkpt>
      <trkpt lat="46.31126" lon="-0.99191">
        <ele>4.8</ele>
        <time>2020-06-02T12:46:43Z</time>
      </trkpt>
      <trkpt lat="46.31127" lon="-0.99196">
        <ele>4.8</ele>
        <time>2020-06-02T12:46:44Z</time>
      </trkpt>
      <trkpt lat="46.31128" lon="-0.99198">
        <ele>4.8</ele>
        <time>2020-06-02T12:46:45Z</time>
      </trkpt>
      <trkpt lat="46.31129" lon="-0.99202">
        <ele>4.8</ele>
        <time>2020-06-02T12:46:46Z</time>
      </trkpt>
      <trkpt lat="46.31129" lon="-0.99204">
        <ele>4.8</ele>
        <time>2020-06-02T12:46:47Z</time>
      </trkpt>
      <trkpt lat="46.3113" lon="-0.99209">
        <ele>4.7</ele>
        <time>2020-06-02T12:46:48Z</time>
      </trkpt>
      <trkpt lat="46.3113" lon="-0.99211">
        <ele>4.7</ele>
        <time>2020-06-02T12:46:49Z</time>
      </trkpt>
      <trkpt lat="46.31131" lon="-0.99215">
        <ele>4.6</ele>
        <time>2020-06-02T12:46:50Z</time>
      </trkpt>
      <trkpt lat="46.31132" lon="-0.99217">
        <ele>4.6</ele>
        <time>2020-06-02T12:46:51Z</time>
      </trkpt>
      <trkpt lat="46.31132" lon="-0.99221">
        <ele>4.2</ele>
        <time>2020-06-02T12:46:52Z</time>
      </trkpt>
      <trkpt lat="46.31133" lon="-0.99223">
        <ele>4.2</ele>
        <time>2020-06-02T12:46:53Z</time>
      </trkpt>
      <trkpt lat="46.31133" lon="-0.99225">
        <ele>4.2</ele>
        <time>2020-06-02T12:46:54Z</time>
      </trkpt>
      <trkpt lat="46.31133" lon="-0.99227">
        <ele>4.2</ele>
        <time>2020-06-02T12:46:55Z</time>
      </trkpt>
      <trkpt lat="46.31133" lon="-0.9923">
        <ele>4.2</ele>
        <time>2020-06-02T12:46:56Z</time>
      </trkpt>
      <trkpt lat="46.31133" lon="-0.99232">
        <ele>4.2</ele>
        <time>2020-06-02T12:46:57Z</time>
      </trkpt>
      <trkpt lat="46.31134" lon="-0.99234">
        <ele>4.2</ele>
        <time>2020-06-02T12:46:58Z</time>
      </trkpt>
      <trkpt lat="46.31134" lon="-0.99236">
        <ele>4.2</ele>
        <time>2020-06-02T12:46:59Z</time>
      </trkpt>
      <trkpt lat="46.31133" lon="-0.99239">
        <ele>4.2</ele>
        <time>2020-06-02T12:47:00Z</time>
      </trkpt>
      <trkpt lat="46.31133" lon="-0.99241">
        <ele>4.2</ele>
        <time>2020-06-02T12:47:01Z</time>
      </trkpt>
      <trkpt lat="46.31133" lon="-0.99246">
        <ele>4.3</ele>
        <time>2020-06-02T12:47:02Z</time>
      </trkpt>
      <trkpt lat="46.31133" lon="-0.99247">
        <ele>4.3</ele>
        <time>2020-06-02T12:47:03Z</time>
      </trkpt>
      <trkpt lat="46.31133" lon="-0.99251">
        <ele>4.3</ele>
        <time>2020-06-02T12:47:04Z</time>
      </trkpt>
      <trkpt lat="46.31133" lon="-0.99253">
        <ele>4.3</ele>
        <time>2020-06-02T12:47:05Z</time>
      </trkpt>
      <trkpt lat="46.31133" lon="-0.99257">
        <ele>4.3</ele>
        <time>2020-06-02T12:47:06Z</time>
      </trkpt>
      <trkpt lat="46.31133" lon="-0.99259">
        <ele>4.3</ele>
        <time>2020-06-02T12:47:07Z</time>
      </trkpt>
      <trkpt lat="46.31134" lon="-0.99263">
        <ele>4.3</ele>
        <time>2020-06-02T12:47:08Z</time>
      </trkpt>
      <trkpt lat="46.31134" lon="-0.99264">
        <ele>4.3</ele>
        <time>2020-06-02T12:47:09Z</time>
      </trkpt>
      <trkpt lat="46.31134" lon="-0.99269">
        <ele>4.4</ele>
        <time>2020-06-02T12:47:10Z</time>
      </trkpt>
      <trkpt lat="46.31134" lon="-0.99271">
        <ele>4.4</ele>
        <time>2020-06-02T12:47:11Z</time>
      </trkpt>
      <trkpt lat="46.31134" lon="-0.99276">
        <ele>4.4</ele>
        <time>2020-06-02T12:47:12Z</time>
      </trkpt>
      <trkpt lat="46.31134" lon="-0.99278">
        <ele>4.4</ele>
        <time>2020-06-02T12:47:13Z</time>
      </trkpt>
      <trkpt lat="46.31134" lon="-0.99283">
        <ele>4.4</ele>
        <time>2020-06-02T12:47:14Z</time>
      </trkpt>
      <trkpt lat="46.31134" lon="-0.99284">
        <ele>4.4</ele>
        <time>2020-06-02T12:47:15Z</time>
      </trkpt>
      <trkpt lat="46.31134" lon="-0.99289">
        <ele>4.4</ele>
        <time>2020-06-02T12:47:16Z</time>
      </trkpt>
      <trkpt lat="46.31134" lon="-0.99291">
        <ele>4.4</ele>
        <time>2020-06-02T12:47:17Z</time>
      </trkpt>
      <trkpt lat="46.31134" lon="-0.99297">
        <ele>4.5</ele>
        <time>2020-06-02T12:47:18Z</time>
      </trkpt>
      <trkpt lat="46.31134" lon="-0.99299">
        <ele>4.6</ele>
        <time>2020-06-02T12:47:19Z</time>
      </trkpt>
      <trkpt lat="46.31131" lon="-0.99302">
        <ele>4.8</ele>
        <time>2020-06-02T12:47:20Z</time>
      </trkpt>
      <trkpt lat="46.3113" lon="-0.99303">
        <ele>4.9</ele>
        <time>2020-06-02T12:47:21Z</time>
      </trkpt>
      <trkpt lat="46.31127" lon="-0.99303">
        <ele>5.5</ele>
        <time>2020-06-02T12:47:22Z</time>
      </trkpt>
      <trkpt lat="46.31124" lon="-0.99305">
        <ele>5.6</ele>
        <time>2020-06-02T12:47:23Z</time>
      </trkpt>
      <trkpt lat="46.31123" lon="-0.99307">
        <ele>5.7</ele>
        <time>2020-06-02T12:47:24Z</time>
      </trkpt>
      <trkpt lat="46.31122" lon="-0.9931">
        <ele>5.7</ele>
        <time>2020-06-02T12:47:25Z</time>
      </trkpt>
      <trkpt lat="46.31122" lon="-0.99312">
        <ele>5.8</ele>
        <time>2020-06-02T12:47:26Z</time>
      </trkpt>
      <trkpt lat="46.31121" lon="-0.99316">
        <ele>5.8</ele>
        <time>2020-06-02T12:47:27Z</time>
      </trkpt>
      <trkpt lat="46.31121" lon="-0.9932">
        <ele>5.9</ele>
        <time>2020-06-02T12:47:28Z</time>
      </trkpt>
      <trkpt lat="46.31121" lon="-0.99325">
        <ele>6</ele>
        <time>2020-06-02T12:47:29Z</time>
      </trkpt>
      <trkpt lat="46.3112" lon="-0.99329">
        <ele>6.1</ele>
        <time>2020-06-02T12:47:30Z</time>
      </trkpt>
      <trkpt lat="46.31119" lon="-0.99334">
        <ele>6.1</ele>
        <time>2020-06-02T12:47:31Z</time>
      </trkpt>
      <trkpt lat="46.31118" lon="-0.99335">
        <ele>6.2</ele>
        <time>2020-06-02T12:47:32Z</time>
      </trkpt>
      <trkpt lat="46.31117" lon="-0.99341">
        <ele>6.3</ele>
        <time>2020-06-02T12:47:33Z</time>
      </trkpt>
      <trkpt lat="46.31117" lon="-0.99342">
        <ele>6.3</ele>
        <time>2020-06-02T12:47:34Z</time>
      </trkpt>
      <trkpt lat="46.31116" lon="-0.99346">
        <ele>6.3</ele>
        <time>2020-06-02T12:47:35Z</time>
      </trkpt>
      <trkpt lat="46.31116" lon="-0.99351">
        <ele>6.4</ele>
        <time>2020-06-02T12:47:36Z</time>
      </trkpt>
      <trkpt lat="46.31115" lon="-0.99355">
        <ele>6.5</ele>
        <time>2020-06-02T12:47:37Z</time>
      </trkpt>
      <trkpt lat="46.31114" lon="-0.9936">
        <ele>6.3</ele>
        <time>2020-06-02T12:47:38Z</time>
      </trkpt>
      <trkpt lat="46.31114" lon="-0.99362">
        <ele>6.2</ele>
        <time>2020-06-02T12:47:39Z</time>
      </trkpt>
      <trkpt lat="46.31115" lon="-0.99367">
        <ele>5.9</ele>
        <time>2020-06-02T12:47:40Z</time>
      </trkpt>
      <trkpt lat="46.31116" lon="-0.99372">
        <ele>5.7</ele>
        <time>2020-06-02T12:47:41Z</time>
      </trkpt>
      <trkpt lat="46.31116" lon="-0.99378">
        <ele>5.4</ele>
        <time>2020-06-02T12:47:42Z</time>
      </trkpt>
      <trkpt lat="46.31117" lon="-0.99383">
        <ele>5.1</ele>
        <time>2020-06-02T12:47:43Z</time>
      </trkpt>
      <trkpt lat="46.31117" lon="-0.99388">
        <ele>4.9</ele>
        <time>2020-06-02T12:47:44Z</time>
      </trkpt>
      <trkpt lat="46.31117" lon="-0.99394">
        <ele>4.6</ele>
        <time>2020-06-02T12:47:45Z</time>
      </trkpt>
      <trkpt lat="46.31119" lon="-0.99399">
        <ele>4.3</ele>
        <time>2020-06-02T12:47:46Z</time>
      </trkpt>
      <trkpt lat="46.3112" lon="-0.99405">
        <ele>4.3</ele>
        <time>2020-06-02T12:47:47Z</time>
      </trkpt>
      <trkpt lat="46.3112" lon="-0.9941">
        <ele>4.3</ele>
        <time>2020-06-02T12:47:48Z</time>
      </trkpt>
      <trkpt lat="46.3112" lon="-0.99415">
        <ele>4.3</ele>
        <time>2020-06-02T12:47:49Z</time>
      </trkpt>
      <trkpt lat="46.3112" lon="-0.99419">
        <ele>4.3</ele>
        <time>2020-06-02T12:47:50Z</time>
      </trkpt>
      <trkpt lat="46.31121" lon="-0.99423">
        <ele>4.3</ele>
        <time>2020-06-02T12:47:51Z</time>
      </trkpt>
      <trkpt lat="46.31123" lon="-0.99426">
        <ele>4.3</ele>
        <time>2020-06-02T12:47:52Z</time>
      </trkpt>
      <trkpt lat="46.31125" lon="-0.99429">
        <ele>4.3</ele>
        <time>2020-06-02T12:47:53Z</time>
      </trkpt>
      <trkpt lat="46.31128" lon="-0.99432">
        <ele>4.3</ele>
        <time>2020-06-02T12:47:54Z</time>
      </trkpt>
      <trkpt lat="46.31129" lon="-0.99432">
        <ele>4.3</ele>
        <time>2020-06-02T12:47:55Z</time>
      </trkpt>
      <trkpt lat="46.31132" lon="-0.99435">
        <ele>4.3</ele>
        <time>2020-06-02T12:47:56Z</time>
      </trkpt>
      <trkpt lat="46.31133" lon="-0.99436">
        <ele>4.3</ele>
        <time>2020-06-02T12:47:57Z</time>
      </trkpt>
      <trkpt lat="46.31136" lon="-0.99437">
        <ele>4.2</ele>
        <time>2020-06-02T12:47:58Z</time>
      </trkpt>
      <trkpt lat="46.31137" lon="-0.99438">
        <ele>4.2</ele>
        <time>2020-06-02T12:47:59Z</time>
      </trkpt>
      <trkpt lat="46.3114" lon="-0.9944">
        <ele>4.2</ele>
        <time>2020-06-02T12:48:00Z</time>
      </trkpt>
      <trkpt lat="46.31141" lon="-0.99441">
        <ele>4.2</ele>
        <time>2020-06-02T12:48:01Z</time>
      </trkpt>
      <trkpt lat="46.31144" lon="-0.99444">
        <ele>4.2</ele>
        <time>2020-06-02T12:48:02Z</time>
      </trkpt>
      <trkpt lat="46.31145" lon="-0.99445">
        <ele>4.2</ele>
        <time>2020-06-02T12:48:03Z</time>
      </trkpt>
      <trkpt lat="46.31147" lon="-0.99448">
        <ele>4.2</ele>
        <time>2020-06-02T12:48:04Z</time>
      </trkpt>
      <trkpt lat="46.31147" lon="-0.99449">
        <ele>4.2</ele>
        <time>2020-06-02T12:48:05Z</time>
      </trkpt>
      <trkpt lat="46.31149" lon="-0.99453">
        <ele>4.2</ele>
        <time>2020-06-02T12:48:06Z</time>
      </trkpt>
      <trkpt lat="46.31149" lon="-0.99454">
        <ele>4.2</ele>
        <time>2020-06-02T12:48:07Z</time>
      </trkpt>
      <trkpt lat="46.31151" lon="-0.99458">
        <ele>4.1</ele>
        <time>2020-06-02T12:48:08Z</time>
      </trkpt>
      <trkpt lat="46.31151" lon="-0.9946">
        <ele>4.1</ele>
        <time>2020-06-02T12:48:09Z</time>
      </trkpt>
      <trkpt lat="46.31154" lon="-0.99464">
        <ele>4.1</ele>
        <time>2020-06-02T12:48:10Z</time>
      </trkpt>
      <trkpt lat="46.31154" lon="-0.99465">
        <ele>4.1</ele>
        <time>2020-06-02T12:48:11Z</time>
      </trkpt>
      <trkpt lat="46.31157" lon="-0.99468">
        <ele>4.1</ele>
        <time>2020-06-02T12:48:12Z</time>
      </trkpt>
      <trkpt lat="46.31157" lon="-0.9947">
        <ele>4.1</ele>
        <time>2020-06-02T12:48:13Z</time>
      </trkpt>
      <trkpt lat="46.31159" lon="-0.99474">
        <ele>4.1</ele>
        <time>2020-06-02T12:48:14Z</time>
      </trkpt>
      <trkpt lat="46.31159" lon="-0.99475">
        <ele>4.1</ele>
        <time>2020-06-02T12:48:15Z</time>
      </trkpt>
      <trkpt lat="46.31161" lon="-0.99479">
        <ele>4.1</ele>
        <time>2020-06-02T12:48:16Z</time>
      </trkpt>
      <trkpt lat="46.31162" lon="-0.9948">
        <ele>4.1</ele>
        <time>2020-06-02T12:48:17Z</time>
      </trkpt>
      <trkpt lat="46.31164" lon="-0.99483">
        <ele>4.1</ele>
        <time>2020-06-02T12:48:18Z</time>
      </trkpt>
      <trkpt lat="46.31165" lon="-0.99484">
        <ele>4.1</ele>
        <time>2020-06-02T12:48:19Z</time>
      </trkpt>
      <trkpt lat="46.31167" lon="-0.99487">
        <ele>4.1</ele>
        <time>2020-06-02T12:48:20Z</time>
      </trkpt>
      <trkpt lat="46.31168" lon="-0.99488">
        <ele>4.1</ele>
        <time>2020-06-02T12:48:21Z</time>
      </trkpt>
      <trkpt lat="46.31171" lon="-0.99491">
        <ele>4.1</ele>
        <time>2020-06-02T12:48:22Z</time>
      </trkpt>
      <trkpt lat="46.31172" lon="-0.99493">
        <ele>4.1</ele>
        <time>2020-06-02T12:48:23Z</time>
      </trkpt>
      <trkpt lat="46.31174" lon="-0.99496">
        <ele>4.1</ele>
        <time>2020-06-02T12:48:24Z</time>
      </trkpt>
      <trkpt lat="46.31175" lon="-0.99497">
        <ele>4.1</ele>
        <time>2020-06-02T12:48:25Z</time>
      </trkpt>
      <trkpt lat="46.31177" lon="-0.99502">
        <ele>4.1</ele>
        <time>2020-06-02T12:48:26Z</time>
      </trkpt>
      <trkpt lat="46.31178" lon="-0.99503">
        <ele>4.1</ele>
        <time>2020-06-02T12:48:27Z</time>
      </trkpt>
      <trkpt lat="46.3118" lon="-0.99506">
        <ele>4.1</ele>
        <time>2020-06-02T12:48:28Z</time>
      </trkpt>
      <trkpt lat="46.31182" lon="-0.99509">
        <ele>4</ele>
        <time>2020-06-02T12:48:29Z</time>
      </trkpt>
      <trkpt lat="46.31183" lon="-0.99512">
        <ele>4</ele>
        <time>2020-06-02T12:48:30Z</time>
      </trkpt>
      <trkpt lat="46.31185" lon="-0.99515">
        <ele>4</ele>
        <time>2020-06-02T12:48:31Z</time>
      </trkpt>
      <trkpt lat="46.31187" lon="-0.9952">
        <ele>4</ele>
        <time>2020-06-02T12:48:32Z</time>
      </trkpt>
      <trkpt lat="46.31189" lon="-0.99523">
        <ele>4</ele>
        <time>2020-06-02T12:48:33Z</time>
      </trkpt>
      <trkpt lat="46.31192" lon="-0.99525">
        <ele>4</ele>
        <time>2020-06-02T12:48:34Z</time>
      </trkpt>
      <trkpt lat="46.31195" lon="-0.99528">
        <ele>4</ele>
        <time>2020-06-02T12:48:35Z</time>
      </trkpt>
      <trkpt lat="46.31196" lon="-0.9953">
        <ele>4</ele>
        <time>2020-06-02T12:48:36Z</time>
      </trkpt>
      <trkpt lat="46.31199" lon="-0.99533">
        <ele>4</ele>
        <time>2020-06-02T12:48:37Z</time>
      </trkpt>
      <trkpt lat="46.312" lon="-0.99535">
        <ele>4</ele>
        <time>2020-06-02T12:48:38Z</time>
      </trkpt>
      <trkpt lat="46.31202" lon="-0.99537">
        <ele>4</ele>
        <time>2020-06-02T12:48:39Z</time>
      </trkpt>
      <trkpt lat="46.31205" lon="-0.99541">
        <ele>4</ele>
        <time>2020-06-02T12:48:40Z</time>
      </trkpt>
      <trkpt lat="46.31207" lon="-0.99545">
        <ele>4</ele>
        <time>2020-06-02T12:48:41Z</time>
      </trkpt>
      <trkpt lat="46.31209" lon="-0.9955">
        <ele>4</ele>
        <time>2020-06-02T12:48:42Z</time>
      </trkpt>
      <trkpt lat="46.31212" lon="-0.99553">
        <ele>3.9</ele>
        <time>2020-06-02T12:48:43Z</time>
      </trkpt>
      <trkpt lat="46.31215" lon="-0.99557">
        <ele>3.9</ele>
        <time>2020-06-02T12:48:44Z</time>
      </trkpt>
      <trkpt lat="46.31218" lon="-0.99561">
        <ele>4</ele>
        <time>2020-06-02T12:48:45Z</time>
      </trkpt>
      <trkpt lat="46.3122" lon="-0.99566">
        <ele>4</ele>
        <time>2020-06-02T12:48:46Z</time>
      </trkpt>
      <trkpt lat="46.31223" lon="-0.99571">
        <ele>4</ele>
        <time>2020-06-02T12:48:47Z</time>
      </trkpt>
      <trkpt lat="46.31225" lon="-0.99575">
        <ele>4</ele>
        <time>2020-06-02T12:48:48Z</time>
      </trkpt>
      <trkpt lat="46.31228" lon="-0.99579">
        <ele>4.1</ele>
        <time>2020-06-02T12:48:49Z</time>
      </trkpt>
      <trkpt lat="46.3123" lon="-0.99583">
        <ele>4.1</ele>
        <time>2020-06-02T12:48:50Z</time>
      </trkpt>
      <trkpt lat="46.31232" lon="-0.99587">
        <ele>4.1</ele>
        <time>2020-06-02T12:48:51Z</time>
      </trkpt>
      <trkpt lat="46.31235" lon="-0.99591">
        <ele>4.1</ele>
        <time>2020-06-02T12:48:52Z</time>
      </trkpt>
      <trkpt lat="46.31237" lon="-0.99595">
        <ele>4.1</ele>
        <time>2020-06-02T12:48:53Z</time>
      </trkpt>
      <trkpt lat="46.3124" lon="-0.99599">
        <ele>4.1</ele>
        <time>2020-06-02T12:48:54Z</time>
      </trkpt>
      <trkpt lat="46.31242" lon="-0.99603">
        <ele>4.1</ele>
        <time>2020-06-02T12:48:55Z</time>
      </trkpt>
      <trkpt lat="46.31244" lon="-0.99607">
        <ele>4.1</ele>
        <time>2020-06-02T12:48:56Z</time>
      </trkpt>
      <trkpt lat="46.31246" lon="-0.9961">
        <ele>4.1</ele>
        <time>2020-06-02T12:48:57Z</time>
      </trkpt>
      <trkpt lat="46.31249" lon="-0.99614">
        <ele>4.2</ele>
        <time>2020-06-02T12:48:58Z</time>
      </trkpt>
      <trkpt lat="46.31252" lon="-0.99617">
        <ele>4.2</ele>
        <time>2020-06-02T12:48:59Z</time>
      </trkpt>
      <trkpt lat="46.31254" lon="-0.99622">
        <ele>4.3</ele>
        <time>2020-06-02T12:49:00Z</time>
      </trkpt>
      <trkpt lat="46.31256" lon="-0.99626">
        <ele>4.3</ele>
        <time>2020-06-02T12:49:01Z</time>
      </trkpt>
      <trkpt lat="46.31258" lon="-0.99631">
        <ele>4.4</ele>
        <time>2020-06-02T12:49:02Z</time>
      </trkpt>
      <trkpt lat="46.31261" lon="-0.99635">
        <ele>4.4</ele>
        <time>2020-06-02T12:49:03Z</time>
      </trkpt>
      <trkpt lat="46.31263" lon="-0.99639">
        <ele>4.4</ele>
        <time>2020-06-02T12:49:04Z</time>
      </trkpt>
      <trkpt lat="46.31265" lon="-0.99643">
        <ele>4.5</ele>
        <time>2020-06-02T12:49:05Z</time>
      </trkpt>
      <trkpt lat="46.31266" lon="-0.99647">
        <ele>4.5</ele>
        <time>2020-06-02T12:49:06Z</time>
      </trkpt>
      <trkpt lat="46.31267" lon="-0.99652">
        <ele>4.6</ele>
        <time>2020-06-02T12:49:07Z</time>
      </trkpt>
      <trkpt lat="46.31267" lon="-0.99658">
        <ele>4.6</ele>
        <time>2020-06-02T12:49:08Z</time>
      </trkpt>
      <trkpt lat="46.31268" lon="-0.99664">
        <ele>4.6</ele>
        <time>2020-06-02T12:49:09Z</time>
      </trkpt>
      <trkpt lat="46.31268" lon="-0.9967">
        <ele>4.6</ele>
        <time>2020-06-02T12:49:10Z</time>
      </trkpt>
      <trkpt lat="46.31267" lon="-0.99676">
        <ele>4.6</ele>
        <time>2020-06-02T12:49:11Z</time>
      </trkpt>
      <trkpt lat="46.31268" lon="-0.99681">
        <ele>4.6</ele>
        <time>2020-06-02T12:49:12Z</time>
      </trkpt>
      <trkpt lat="46.31268" lon="-0.99687">
        <ele>4.6</ele>
        <time>2020-06-02T12:49:13Z</time>
      </trkpt>
      <trkpt lat="46.31269" lon="-0.99692">
        <ele>4.6</ele>
        <time>2020-06-02T12:49:14Z</time>
      </trkpt>
      <trkpt lat="46.31269" lon="-0.99698">
        <ele>4.6</ele>
        <time>2020-06-02T12:49:15Z</time>
      </trkpt>
      <trkpt lat="46.31269" lon="-0.99703">
        <ele>4.6</ele>
        <time>2020-06-02T12:49:16Z</time>
      </trkpt>
      <trkpt lat="46.3127" lon="-0.99708">
        <ele>4.6</ele>
        <time>2020-06-02T12:49:17Z</time>
      </trkpt>
      <trkpt lat="46.31271" lon="-0.99713">
        <ele>4.6</ele>
        <time>2020-06-02T12:49:18Z</time>
      </trkpt>
      <trkpt lat="46.31273" lon="-0.99719">
        <ele>4.6</ele>
        <time>2020-06-02T12:49:19Z</time>
      </trkpt>
      <trkpt lat="46.31274" lon="-0.99724">
        <ele>4.6</ele>
        <time>2020-06-02T12:49:20Z</time>
      </trkpt>
      <trkpt lat="46.31274" lon="-0.99729">
        <ele>4.6</ele>
        <time>2020-06-02T12:49:21Z</time>
      </trkpt>
      <trkpt lat="46.31275" lon="-0.99735">
        <ele>4.5</ele>
        <time>2020-06-02T12:49:22Z</time>
      </trkpt>
      <trkpt lat="46.31275" lon="-0.9974">
        <ele>4.5</ele>
        <time>2020-06-02T12:49:23Z</time>
      </trkpt>
      <trkpt lat="46.31276" lon="-0.99746">
        <ele>4.5</ele>
        <time>2020-06-02T12:49:24Z</time>
      </trkpt>
      <trkpt lat="46.31276" lon="-0.99751">
        <ele>4.5</ele>
        <time>2020-06-02T12:49:25Z</time>
      </trkpt>
      <trkpt lat="46.31277" lon="-0.99757">
        <ele>4.5</ele>
        <time>2020-06-02T12:49:26Z</time>
      </trkpt>
      <trkpt lat="46.31277" lon="-0.99762">
        <ele>4.5</ele>
        <time>2020-06-02T12:49:27Z</time>
      </trkpt>
      <trkpt lat="46.31277" lon="-0.99767">
        <ele>4.4</ele>
        <time>2020-06-02T12:49:28Z</time>
      </trkpt>
      <trkpt lat="46.31277" lon="-0.99772">
        <ele>4.4</ele>
        <time>2020-06-02T12:49:29Z</time>
      </trkpt>
      <trkpt lat="46.31277" lon="-0.99776">
        <ele>4.4</ele>
        <time>2020-06-02T12:49:30Z</time>
      </trkpt>
      <trkpt lat="46.31276" lon="-0.9978">
        <ele>4.4</ele>
        <time>2020-06-02T12:49:31Z</time>
      </trkpt>
      <trkpt lat="46.31276" lon="-0.99785">
        <ele>4.3</ele>
        <time>2020-06-02T12:49:32Z</time>
      </trkpt>
      <trkpt lat="46.31276" lon="-0.99789">
        <ele>4.3</ele>
        <time>2020-06-02T12:49:33Z</time>
      </trkpt>
      <trkpt lat="46.31277" lon="-0.99794">
        <ele>4.3</ele>
        <time>2020-06-02T12:49:34Z</time>
      </trkpt>
      <trkpt lat="46.31277" lon="-0.99799">
        <ele>4.3</ele>
        <time>2020-06-02T12:49:35Z</time>
      </trkpt>
      <trkpt lat="46.31277" lon="-0.99803">
        <ele>4.2</ele>
        <time>2020-06-02T12:49:36Z</time>
      </trkpt>
      <trkpt lat="46.31277" lon="-0.99808">
        <ele>4.2</ele>
        <time>2020-06-02T12:49:37Z</time>
      </trkpt>
      <trkpt lat="46.31277" lon="-0.99812">
        <ele>4.2</ele>
        <time>2020-06-02T12:49:38Z</time>
      </trkpt>
      <trkpt lat="46.31277" lon="-0.99817">
        <ele>4.2</ele>
        <time>2020-06-02T12:49:39Z</time>
      </trkpt>
      <trkpt lat="46.31278" lon="-0.99822">
        <ele>4.2</ele>
        <time>2020-06-02T12:49:40Z</time>
      </trkpt>
      <trkpt lat="46.31278" lon="-0.99827">
        <ele>4.1</ele>
        <time>2020-06-02T12:49:41Z</time>
      </trkpt>
      <trkpt lat="46.31278" lon="-0.99832">
        <ele>4.1</ele>
        <time>2020-06-02T12:49:42Z</time>
      </trkpt>
      <trkpt lat="46.31279" lon="-0.99837">
        <ele>4.1</ele>
        <time>2020-06-02T12:49:43Z</time>
      </trkpt>
      <trkpt lat="46.31278" lon="-0.99842">
        <ele>4.1</ele>
        <time>2020-06-02T12:49:44Z</time>
      </trkpt>
      <trkpt lat="46.3128" lon="-0.99847">
        <ele>4</ele>
        <time>2020-06-02T12:49:45Z</time>
      </trkpt>
      <trkpt lat="46.3128" lon="-0.99849">
        <ele>4</ele>
        <time>2020-06-02T12:49:46Z</time>
      </trkpt>
      <trkpt lat="46.31282" lon="-0.99854">
        <ele>4</ele>
        <time>2020-06-02T12:49:47Z</time>
      </trkpt>
      <trkpt lat="46.31282" lon="-0.99858">
        <ele>4</ele>
        <time>2020-06-02T12:49:48Z</time>
      </trkpt>
      <trkpt lat="46.31281" lon="-0.99863">
        <ele>4</ele>
        <time>2020-06-02T12:49:49Z</time>
      </trkpt>
      <trkpt lat="46.3128" lon="-0.99868">
        <ele>4</ele>
        <time>2020-06-02T12:49:50Z</time>
      </trkpt>
      <trkpt lat="46.31279" lon="-0.99873">
        <ele>4</ele>
        <time>2020-06-02T12:49:51Z</time>
      </trkpt>
      <trkpt lat="46.31277" lon="-0.99877">
        <ele>4</ele>
        <time>2020-06-02T12:49:52Z</time>
      </trkpt>
      <trkpt lat="46.31278" lon="-0.99882">
        <ele>3.9</ele>
        <time>2020-06-02T12:49:53Z</time>
      </trkpt>
      <trkpt lat="46.31278" lon="-0.99888">
        <ele>3.9</ele>
        <time>2020-06-02T12:49:54Z</time>
      </trkpt>
      <trkpt lat="46.31278" lon="-0.99893">
        <ele>3.9</ele>
        <time>2020-06-02T12:49:55Z</time>
      </trkpt>
      <trkpt lat="46.31279" lon="-0.99899">
        <ele>3.9</ele>
        <time>2020-06-02T12:49:56Z</time>
      </trkpt>
      <trkpt lat="46.3128" lon="-0.99905">
        <ele>3.9</ele>
        <time>2020-06-02T12:49:57Z</time>
      </trkpt>
      <trkpt lat="46.3128" lon="-0.99911">
        <ele>3.9</ele>
        <time>2020-06-02T12:49:58Z</time>
      </trkpt>
      <trkpt lat="46.31281" lon="-0.99917">
        <ele>3.8</ele>
        <time>2020-06-02T12:49:59Z</time>
      </trkpt>
      <trkpt lat="46.31283" lon="-0.99923">
        <ele>3.8</ele>
        <time>2020-06-02T12:50:00Z</time>
      </trkpt>
      <trkpt lat="46.31284" lon="-0.99929">
        <ele>3.8</ele>
        <time>2020-06-02T12:50:01Z</time>
      </trkpt>
      <trkpt lat="46.31285" lon="-0.99935">
        <ele>3.8</ele>
        <time>2020-06-02T12:50:02Z</time>
      </trkpt>
      <trkpt lat="46.31287" lon="-0.9994">
        <ele>3.7</ele>
        <time>2020-06-02T12:50:03Z</time>
      </trkpt>
      <trkpt lat="46.31288" lon="-0.99945">
        <ele>3.7</ele>
        <time>2020-06-02T12:50:04Z</time>
      </trkpt>
      <trkpt lat="46.3129" lon="-0.9995">
        <ele>3.7</ele>
        <time>2020-06-02T12:50:05Z</time>
      </trkpt>
      <trkpt lat="46.31292" lon="-0.99955">
        <ele>3.7</ele>
        <time>2020-06-02T12:50:06Z</time>
      </trkpt>
      <trkpt lat="46.31293" lon="-0.99961">
        <ele>3.7</ele>
        <time>2020-06-02T12:50:07Z</time>
      </trkpt>
      <trkpt lat="46.31295" lon="-0.99965">
        <ele>3.7</ele>
        <time>2020-06-02T12:50:08Z</time>
      </trkpt>
      <trkpt lat="46.31297" lon="-0.99971">
        <ele>3.6</ele>
        <time>2020-06-02T12:50:09Z</time>
      </trkpt>
      <trkpt lat="46.31299" lon="-0.99975">
        <ele>3.6</ele>
        <time>2020-06-02T12:50:10Z</time>
      </trkpt>
      <trkpt lat="46.31302" lon="-0.99979">
        <ele>3.6</ele>
        <time>2020-06-02T12:50:11Z</time>
      </trkpt>
      <trkpt lat="46.31303" lon="-0.99983">
        <ele>3.6</ele>
        <time>2020-06-02T12:50:12Z</time>
      </trkpt>
      <trkpt lat="46.31305" lon="-0.99988">
        <ele>3.6</ele>
        <time>2020-06-02T12:50:13Z</time>
      </trkpt>
      <trkpt lat="46.31306" lon="-0.99994">
        <ele>3.6</ele>
        <time>2020-06-02T12:50:14Z</time>
      </trkpt>
      <trkpt lat="46.31308" lon="-0.99999">
        <ele>3.6</ele>
        <time>2020-06-02T12:50:15Z</time>
      </trkpt>
      <trkpt lat="46.31309" lon="-1.00004">
        <ele>3.6</ele>
        <time>2020-06-02T12:50:16Z</time>
      </trkpt>
      <trkpt lat="46.31311" lon="-1.00008">
        <ele>3.6</ele>
        <time>2020-06-02T12:50:17Z</time>
      </trkpt>
      <trkpt lat="46.31313" lon="-1.00013">
        <ele>3.5</ele>
        <time>2020-06-02T12:50:18Z</time>
      </trkpt>
      <trkpt lat="46.31314" lon="-1.00016">
        <ele>3.5</ele>
        <time>2020-06-02T12:50:19Z</time>
      </trkpt>
      <trkpt lat="46.31316" lon="-1.00021">
        <ele>3.5</ele>
        <time>2020-06-02T12:50:20Z</time>
      </trkpt>
      <trkpt lat="46.31318" lon="-1.00025">
        <ele>3.5</ele>
        <time>2020-06-02T12:50:21Z</time>
      </trkpt>
      <trkpt lat="46.31319" lon="-1.00027">
        <ele>3.5</ele>
        <time>2020-06-02T12:50:22Z</time>
      </trkpt>
      <trkpt lat="46.31321" lon="-1.00032">
        <ele>3.5</ele>
        <time>2020-06-02T12:50:23Z</time>
      </trkpt>
      <trkpt lat="46.31322" lon="-1.00036">
        <ele>3.5</ele>
        <time>2020-06-02T12:50:24Z</time>
      </trkpt>
      <trkpt lat="46.31324" lon="-1.00042">
        <ele>3.5</ele>
        <time>2020-06-02T12:50:25Z</time>
      </trkpt>
      <trkpt lat="46.31325" lon="-1.00046">
        <ele>3.5</ele>
        <time>2020-06-02T12:50:26Z</time>
      </trkpt>
      <trkpt lat="46.31326" lon="-1.00049">
        <ele>3.5</ele>
        <time>2020-06-02T12:50:27Z</time>
      </trkpt>
      <trkpt lat="46.31328" lon="-1.00053">
        <ele>3.5</ele>
        <time>2020-06-02T12:50:28Z</time>
      </trkpt>
      <trkpt lat="46.31331" lon="-1.00058">
        <ele>3.5</ele>
        <time>2020-06-02T12:50:29Z</time>
      </trkpt>
      <trkpt lat="46.31333" lon="-1.00062">
        <ele>3.5</ele>
        <time>2020-06-02T12:50:30Z</time>
      </trkpt>
      <trkpt lat="46.31335" lon="-1.00068">
        <ele>3.5</ele>
        <time>2020-06-02T12:50:31Z</time>
      </trkpt>
      <trkpt lat="46.31336" lon="-1.00073">
        <ele>3.5</ele>
        <time>2020-06-02T12:50:32Z</time>
      </trkpt>
      <trkpt lat="46.31338" lon="-1.00077">
        <ele>3.5</ele>
        <time>2020-06-02T12:50:33Z</time>
      </trkpt>
      <trkpt lat="46.3134" lon="-1.00082">
        <ele>3.5</ele>
        <time>2020-06-02T12:50:34Z</time>
      </trkpt>
      <trkpt lat="46.31341" lon="-1.00088">
        <ele>3.5</ele>
        <time>2020-06-02T12:50:35Z</time>
      </trkpt>
      <trkpt lat="46.31342" lon="-1.00093">
        <ele>3.5</ele>
        <time>2020-06-02T12:50:36Z</time>
      </trkpt>
      <trkpt lat="46.31344" lon="-1.00098">
        <ele>3.5</ele>
        <time>2020-06-02T12:50:37Z</time>
      </trkpt>
      <trkpt lat="46.31345" lon="-1.00102">
        <ele>3.5</ele>
        <time>2020-06-02T12:50:38Z</time>
      </trkpt>
      <trkpt lat="46.31346" lon="-1.00106">
        <ele>3.5</ele>
        <time>2020-06-02T12:50:39Z</time>
      </trkpt>
      <trkpt lat="46.31347" lon="-1.00112">
        <ele>3.5</ele>
        <time>2020-06-02T12:50:40Z</time>
      </trkpt>
      <trkpt lat="46.31347" lon="-1.00114">
        <ele>3.5</ele>
        <time>2020-06-02T12:50:41Z</time>
      </trkpt>
      <trkpt lat="46.31348" lon="-1.00119">
        <ele>3.5</ele>
        <time>2020-06-02T12:50:42Z</time>
      </trkpt>
      <trkpt lat="46.31348" lon="-1.00125">
        <ele>3.5</ele>
        <time>2020-06-02T12:50:43Z</time>
      </trkpt>
      <trkpt lat="46.31349" lon="-1.00131">
        <ele>3.5</ele>
        <time>2020-06-02T12:50:44Z</time>
      </trkpt>
      <trkpt lat="46.3135" lon="-1.00135">
        <ele>3.5</ele>
        <time>2020-06-02T12:50:45Z</time>
      </trkpt>
      <trkpt lat="46.3135" lon="-1.00137">
        <ele>3.5</ele>
        <time>2020-06-02T12:50:46Z</time>
      </trkpt>
      <trkpt lat="46.31351" lon="-1.00143">
        <ele>3.5</ele>
        <time>2020-06-02T12:50:47Z</time>
      </trkpt>
      <trkpt lat="46.31352" lon="-1.00145">
        <ele>3.5</ele>
        <time>2020-06-02T12:50:48Z</time>
      </trkpt>
      <trkpt lat="46.31353" lon="-1.0015">
        <ele>3.5</ele>
        <time>2020-06-02T12:50:49Z</time>
      </trkpt>
      <trkpt lat="46.31353" lon="-1.00152">
        <ele>3.5</ele>
        <time>2020-06-02T12:50:50Z</time>
      </trkpt>
      <trkpt lat="46.31354" lon="-1.00157">
        <ele>3.4</ele>
        <time>2020-06-02T12:50:51Z</time>
      </trkpt>
      <trkpt lat="46.31355" lon="-1.00161">
        <ele>3.4</ele>
        <time>2020-06-02T12:50:52Z</time>
      </trkpt>
      <trkpt lat="46.31357" lon="-1.00166">
        <ele>3.4</ele>
        <time>2020-06-02T12:50:53Z</time>
      </trkpt>
      <trkpt lat="46.31358" lon="-1.00172">
        <ele>3.4</ele>
        <time>2020-06-02T12:50:54Z</time>
      </trkpt>
      <trkpt lat="46.31359" lon="-1.00175">
        <ele>3.4</ele>
        <time>2020-06-02T12:50:55Z</time>
      </trkpt>
      <trkpt lat="46.31359" lon="-1.00181">
        <ele>3.4</ele>
        <time>2020-06-02T12:50:56Z</time>
      </trkpt>
      <trkpt lat="46.31361" lon="-1.00186">
        <ele>3.4</ele>
        <time>2020-06-02T12:50:57Z</time>
      </trkpt>
      <trkpt lat="46.31362" lon="-1.0019">
        <ele>3.4</ele>
        <time>2020-06-02T12:50:58Z</time>
      </trkpt>
      <trkpt lat="46.31363" lon="-1.00195">
        <ele>3.4</ele>
        <time>2020-06-02T12:50:59Z</time>
      </trkpt>
      <trkpt lat="46.31364" lon="-1.00197">
        <ele>3.4</ele>
        <time>2020-06-02T12:51:00Z</time>
      </trkpt>
      <trkpt lat="46.31365" lon="-1.00201">
        <ele>3.4</ele>
        <time>2020-06-02T12:51:01Z</time>
      </trkpt>
      <trkpt lat="46.31365" lon="-1.00205">
        <ele>3.4</ele>
        <time>2020-06-02T12:51:02Z</time>
      </trkpt>
      <trkpt lat="46.31366" lon="-1.00209">
        <ele>3.4</ele>
        <time>2020-06-02T12:51:03Z</time>
      </trkpt>
      <trkpt lat="46.31366" lon="-1.00211">
        <ele>3.4</ele>
        <time>2020-06-02T12:51:04Z</time>
      </trkpt>
      <trkpt lat="46.31367" lon="-1.00216">
        <ele>3.4</ele>
        <time>2020-06-02T12:51:05Z</time>
      </trkpt>
      <trkpt lat="46.31368" lon="-1.00217">
        <ele>3.4</ele>
        <time>2020-06-02T12:51:06Z</time>
      </trkpt>
      <trkpt lat="46.3137" lon="-1.00219">
        <ele>3.4</ele>
        <time>2020-06-02T12:51:07Z</time>
      </trkpt>
      <trkpt lat="46.31371" lon="-1.00219">
        <ele>3.4</ele>
        <time>2020-06-02T12:51:08Z</time>
      </trkpt>
      <trkpt lat="46.31371" lon="-1.00216">
        <ele>3.4</ele>
        <time>2020-06-02T12:51:09Z</time>
      </trkpt>
      <trkpt lat="46.3137" lon="-1.00214">
        <ele>3.4</ele>
        <time>2020-06-02T12:51:10Z</time>
      </trkpt>
      <trkpt lat="46.31369" lon="-1.00211">
        <ele>3.4</ele>
        <time>2020-06-02T12:51:11Z</time>
      </trkpt>
      <trkpt lat="46.31366" lon="-1.00211">
        <ele>3.4</ele>
        <time>2020-06-02T12:51:12Z</time>
      </trkpt>
      <trkpt lat="46.31365" lon="-1.00211">
        <ele>3.4</ele>
        <time>2020-06-02T12:51:13Z</time>
      </trkpt>
      <trkpt lat="46.31364" lon="-1.00213">
        <ele>3.4</ele>
        <time>2020-06-02T12:51:14Z</time>
      </trkpt>
      <trkpt lat="46.31363" lon="-1.00214">
        <ele>3.4</ele>
        <time>2020-06-02T12:51:15Z</time>
      </trkpt>
      <trkpt lat="46.31363" lon="-1.00215">
        <ele>3.4</ele>
        <time>2020-06-02T12:51:16Z</time>
      </trkpt>
      <trkpt lat="46.31366" lon="-1.00218">
        <ele>3.4</ele>
        <time>2020-06-02T12:51:17Z</time>
      </trkpt>
      <trkpt lat="46.31367" lon="-1.00219">
        <ele>3.4</ele>
        <time>2020-06-02T12:51:18Z</time>
      </trkpt>
      <trkpt lat="46.31369" lon="-1.0022">
        <ele>3.4</ele>
        <time>2020-06-02T12:51:19Z</time>
      </trkpt>
      <trkpt lat="46.3137" lon="-1.00221">
        <ele>3.4</ele>
        <time>2020-06-02T12:51:20Z</time>
      </trkpt>
      <trkpt lat="46.31373" lon="-1.00221">
        <ele>3.4</ele>
        <time>2020-06-02T12:51:21Z</time>
      </trkpt>
      <trkpt lat="46.31374" lon="-1.00221">
        <ele>3.4</ele>
        <time>2020-06-02T12:51:22Z</time>
      </trkpt>
      <trkpt lat="46.31375" lon="-1.00221">
        <ele>3.4</ele>
        <time>2020-06-02T12:51:23Z</time>
      </trkpt>
      <trkpt lat="46.31376" lon="-1.00222">
        <ele>3.4</ele>
        <time>2020-06-02T12:51:24Z</time>
      </trkpt>
      <trkpt lat="46.31377" lon="-1.00223">
        <ele>3.4</ele>
        <time>2020-06-02T12:51:25Z</time>
      </trkpt>
      <trkpt lat="46.31378" lon="-1.00226">
        <ele>3.4</ele>
        <time>2020-06-02T12:51:26Z</time>
      </trkpt>
      <trkpt lat="46.31379" lon="-1.00227">
        <ele>3.4</ele>
        <time>2020-06-02T12:51:27Z</time>
      </trkpt>
      <trkpt lat="46.31379" lon="-1.00229">
        <ele>3.4</ele>
        <time>2020-06-02T12:51:28Z</time>
      </trkpt>
      <trkpt lat="46.31379" lon="-1.00231">
        <ele>3.4</ele>
        <time>2020-06-02T12:51:29Z</time>
      </trkpt>
      <trkpt lat="46.3138" lon="-1.00233">
        <ele>3.4</ele>
        <time>2020-06-02T12:51:30Z</time>
      </trkpt>
      <trkpt lat="46.3138" lon="-1.00234">
        <ele>3.4</ele>
        <time>2020-06-02T12:51:31Z</time>
      </trkpt>
      <trkpt lat="46.31381" lon="-1.00235">
        <ele>3.4</ele>
        <time>2020-06-02T12:51:32Z</time>
      </trkpt>
      <trkpt lat="46.31382" lon="-1.00238">
        <ele>3.4</ele>
        <time>2020-06-02T12:51:33Z</time>
      </trkpt>
      <trkpt lat="46.31383" lon="-1.00243">
        <ele>3.4</ele>
        <time>2020-06-02T12:51:34Z</time>
      </trkpt>
      <trkpt lat="46.31384" lon="-1.00247">
        <ele>3.4</ele>
        <time>2020-06-02T12:51:35Z</time>
      </trkpt>
      <trkpt lat="46.31384" lon="-1.00249">
        <ele>3.3</ele>
        <time>2020-06-02T12:51:36Z</time>
      </trkpt>
      <trkpt lat="46.31384" lon="-1.0025">
        <ele>3.3</ele>
        <time>2020-06-02T12:51:37Z</time>
      </trkpt>
      <trkpt lat="46.31385" lon="-1.00255">
        <ele>3.3</ele>
        <time>2020-06-02T12:51:38Z</time>
      </trkpt>
      <trkpt lat="46.31385" lon="-1.00257">
        <ele>3.3</ele>
        <time>2020-06-02T12:51:39Z</time>
      </trkpt>
      <trkpt lat="46.31386" lon="-1.00261">
        <ele>3.3</ele>
        <time>2020-06-02T12:51:40Z</time>
      </trkpt>
      <trkpt lat="46.31387" lon="-1.00262">
        <ele>3.3</ele>
        <time>2020-06-02T12:51:41Z</time>
      </trkpt>
      <trkpt lat="46.31387" lon="-1.00265">
        <ele>3.3</ele>
        <time>2020-06-02T12:51:42Z</time>
      </trkpt>
      <trkpt lat="46.31387" lon="-1.00267">
        <ele>3.3</ele>
        <time>2020-06-02T12:51:43Z</time>
      </trkpt>
      <trkpt lat="46.31388" lon="-1.00271">
        <ele>3.3</ele>
        <time>2020-06-02T12:51:44Z</time>
      </trkpt>
      <trkpt lat="46.31389" lon="-1.00273">
        <ele>3.3</ele>
        <time>2020-06-02T12:51:45Z</time>
      </trkpt>
      <trkpt lat="46.3139" lon="-1.00277">
        <ele>3.3</ele>
        <time>2020-06-02T12:51:46Z</time>
      </trkpt>
      <trkpt lat="46.3139" lon="-1.00279">
        <ele>3.3</ele>
        <time>2020-06-02T12:51:47Z</time>
      </trkpt>
      <trkpt lat="46.31391" lon="-1.00283">
        <ele>3.3</ele>
        <time>2020-06-02T12:51:48Z</time>
      </trkpt>
      <trkpt lat="46.31393" lon="-1.00288">
        <ele>3.4</ele>
        <time>2020-06-02T12:51:49Z</time>
      </trkpt>
      <trkpt lat="46.31395" lon="-1.00292">
        <ele>3.4</ele>
        <time>2020-06-02T12:51:50Z</time>
      </trkpt>
      <trkpt lat="46.31396" lon="-1.00297">
        <ele>3.4</ele>
        <time>2020-06-02T12:51:51Z</time>
      </trkpt>
      <trkpt lat="46.31398" lon="-1.00302">
        <ele>3.4</ele>
        <time>2020-06-02T12:51:52Z</time>
      </trkpt>
      <trkpt lat="46.314" lon="-1.00307">
        <ele>3.4</ele>
        <time>2020-06-02T12:51:53Z</time>
      </trkpt>
      <trkpt lat="46.31402" lon="-1.00311">
        <ele>3.4</ele>
        <time>2020-06-02T12:51:54Z</time>
      </trkpt>
      <trkpt lat="46.31403" lon="-1.00316">
        <ele>3.4</ele>
        <time>2020-06-02T12:51:55Z</time>
      </trkpt>
      <trkpt lat="46.31404" lon="-1.00321">
        <ele>3.4</ele>
        <time>2020-06-02T12:51:56Z</time>
      </trkpt>
      <trkpt lat="46.31404" lon="-1.00328">
        <ele>3.4</ele>
        <time>2020-06-02T12:51:57Z</time>
      </trkpt>
      <trkpt lat="46.31404" lon="-1.00336">
        <ele>3.4</ele>
        <time>2020-06-02T12:51:58Z</time>
      </trkpt>
      <trkpt lat="46.31404" lon="-1.00341">
        <ele>3.4</ele>
        <time>2020-06-02T12:51:59Z</time>
      </trkpt>
      <trkpt lat="46.31403" lon="-1.00347">
        <ele>3.4</ele>
        <time>2020-06-02T12:52:00Z</time>
      </trkpt>
      <trkpt lat="46.31403" lon="-1.00352">
        <ele>3.4</ele>
        <time>2020-06-02T12:52:01Z</time>
      </trkpt>
      <trkpt lat="46.31401" lon="-1.00358">
        <ele>3.5</ele>
        <time>2020-06-02T12:52:02Z</time>
      </trkpt>
      <trkpt lat="46.314" lon="-1.00363">
        <ele>3.5</ele>
        <time>2020-06-02T12:52:03Z</time>
      </trkpt>
      <trkpt lat="46.31398" lon="-1.00367">
        <ele>3.5</ele>
        <time>2020-06-02T12:52:04Z</time>
      </trkpt>
      <trkpt lat="46.31397" lon="-1.00371">
        <ele>3.5</ele>
        <time>2020-06-02T12:52:05Z</time>
      </trkpt>
      <trkpt lat="46.31395" lon="-1.00376">
        <ele>3.5</ele>
        <time>2020-06-02T12:52:06Z</time>
      </trkpt>
      <trkpt lat="46.31394" lon="-1.00381">
        <ele>3.5</ele>
        <time>2020-06-02T12:52:07Z</time>
      </trkpt>
      <trkpt lat="46.31393" lon="-1.00388">
        <ele>3.5</ele>
        <time>2020-06-02T12:52:08Z</time>
      </trkpt>
      <trkpt lat="46.31393" lon="-1.00392">
        <ele>3.5</ele>
        <time>2020-06-02T12:52:09Z</time>
      </trkpt>
      <trkpt lat="46.31394" lon="-1.00398">
        <ele>3.5</ele>
        <time>2020-06-02T12:52:10Z</time>
      </trkpt>
      <trkpt lat="46.31396" lon="-1.00403">
        <ele>3.5</ele>
        <time>2020-06-02T12:52:11Z</time>
      </trkpt>
      <trkpt lat="46.31398" lon="-1.00407">
        <ele>3.5</ele>
        <time>2020-06-02T12:52:12Z</time>
      </trkpt>
      <trkpt lat="46.314" lon="-1.0041">
        <ele>3.5</ele>
        <time>2020-06-02T12:52:13Z</time>
      </trkpt>
      <trkpt lat="46.31404" lon="-1.00413">
        <ele>3.5</ele>
        <time>2020-06-02T12:52:14Z</time>
      </trkpt>
      <trkpt lat="46.31407" lon="-1.00416">
        <ele>3.5</ele>
        <time>2020-06-02T12:52:15Z</time>
      </trkpt>
      <trkpt lat="46.3141" lon="-1.00419">
        <ele>3.5</ele>
        <time>2020-06-02T12:52:16Z</time>
      </trkpt>
      <trkpt lat="46.31414" lon="-1.00421">
        <ele>3.5</ele>
        <time>2020-06-02T12:52:17Z</time>
      </trkpt>
      <trkpt lat="46.31417" lon="-1.00424">
        <ele>3.4</ele>
        <time>2020-06-02T12:52:18Z</time>
      </trkpt>
      <trkpt lat="46.31419" lon="-1.00427">
        <ele>3.4</ele>
        <time>2020-06-02T12:52:19Z</time>
      </trkpt>
      <trkpt lat="46.31422" lon="-1.0043">
        <ele>3.4</ele>
        <time>2020-06-02T12:52:20Z</time>
      </trkpt>
      <trkpt lat="46.31424" lon="-1.00435">
        <ele>3.4</ele>
        <time>2020-06-02T12:52:21Z</time>
      </trkpt>
      <trkpt lat="46.31426" lon="-1.00438">
        <ele>3.4</ele>
        <time>2020-06-02T12:52:22Z</time>
      </trkpt>
      <trkpt lat="46.31428" lon="-1.00442">
        <ele>3.4</ele>
        <time>2020-06-02T12:52:23Z</time>
      </trkpt>
      <trkpt lat="46.31431" lon="-1.00446">
        <ele>3.4</ele>
        <time>2020-06-02T12:52:24Z</time>
      </trkpt>
      <trkpt lat="46.31434" lon="-1.00448">
        <ele>3.4</ele>
        <time>2020-06-02T12:52:25Z</time>
      </trkpt>
      <trkpt lat="46.31437" lon="-1.0045">
        <ele>3.4</ele>
        <time>2020-06-02T12:52:26Z</time>
      </trkpt>
      <trkpt lat="46.3144" lon="-1.00452">
        <ele>3.4</ele>
        <time>2020-06-02T12:52:27Z</time>
      </trkpt>
      <trkpt lat="46.31443" lon="-1.00454">
        <ele>3.4</ele>
        <time>2020-06-02T12:52:28Z</time>
      </trkpt>
      <trkpt lat="46.31446" lon="-1.00457">
        <ele>3.4</ele>
        <time>2020-06-02T12:52:29Z</time>
      </trkpt>
      <trkpt lat="46.31447" lon="-1.00458">
        <ele>3.4</ele>
        <time>2020-06-02T12:52:30Z</time>
      </trkpt>
      <trkpt lat="46.31449" lon="-1.00461">
        <ele>3.4</ele>
        <time>2020-06-02T12:52:31Z</time>
      </trkpt>
      <trkpt lat="46.31452" lon="-1.00466">
        <ele>3.3</ele>
        <time>2020-06-02T12:52:32Z</time>
      </trkpt>
      <trkpt lat="46.31452" lon="-1.00468">
        <ele>3.3</ele>
        <time>2020-06-02T12:52:33Z</time>
      </trkpt>
      <trkpt lat="46.31454" lon="-1.00474">
        <ele>3.3</ele>
        <time>2020-06-02T12:52:34Z</time>
      </trkpt>
      <trkpt lat="46.31455" lon="-1.00479">
        <ele>3.3</ele>
        <time>2020-06-02T12:52:35Z</time>
      </trkpt>
      <trkpt lat="46.31456" lon="-1.00485">
        <ele>3.3</ele>
        <time>2020-06-02T12:52:36Z</time>
      </trkpt>
      <trkpt lat="46.31456" lon="-1.00489">
        <ele>3.3</ele>
        <time>2020-06-02T12:52:37Z</time>
      </trkpt>
      <trkpt lat="46.31457" lon="-1.00493">
        <ele>3.3</ele>
        <time>2020-06-02T12:52:38Z</time>
      </trkpt>
      <trkpt lat="46.31457" lon="-1.00495">
        <ele>3.3</ele>
        <time>2020-06-02T12:52:39Z</time>
      </trkpt>
      <trkpt lat="46.31457" lon="-1.00499">
        <ele>3.2</ele>
        <time>2020-06-02T12:52:40Z</time>
      </trkpt>
      <trkpt lat="46.31457" lon="-1.005">
        <ele>3.2</ele>
        <time>2020-06-02T12:52:41Z</time>
      </trkpt>
      <trkpt lat="46.31457" lon="-1.00502">
        <ele>3.2</ele>
        <time>2020-06-02T12:52:42Z</time>
      </trkpt>
      <trkpt lat="46.31457" lon="-1.00503">
        <ele>3.2</ele>
        <time>2020-06-02T12:52:43Z</time>
      </trkpt>
      <trkpt lat="46.31457" lon="-1.00505">
        <ele>3.2</ele>
        <time>2020-06-02T12:52:44Z</time>
      </trkpt>
      <trkpt lat="46.31458" lon="-1.00505">
        <ele>3.2</ele>
        <time>2020-06-02T12:52:45Z</time>
      </trkpt>
      <trkpt lat="46.31457" lon="-1.00509">
        <ele>3.2</ele>
        <time>2020-06-02T12:52:46Z</time>
      </trkpt>
      <trkpt lat="46.31458" lon="-1.00514">
        <ele>3.2</ele>
        <time>2020-06-02T12:52:47Z</time>
      </trkpt>
      <trkpt lat="46.31457" lon="-1.00516">
        <ele>3.2</ele>
        <time>2020-06-02T12:52:48Z</time>
      </trkpt>
      <trkpt lat="46.31458" lon="-1.00522">
        <ele>3.2</ele>
        <time>2020-06-02T12:52:49Z</time>
      </trkpt>
      <trkpt lat="46.31459" lon="-1.00528">
        <ele>3.2</ele>
        <time>2020-06-02T12:52:50Z</time>
      </trkpt>
      <trkpt lat="46.3146" lon="-1.00534">
        <ele>3.2</ele>
        <time>2020-06-02T12:52:51Z</time>
      </trkpt>
      <trkpt lat="46.31462" lon="-1.00539">
        <ele>3.2</ele>
        <time>2020-06-02T12:52:52Z</time>
      </trkpt>
      <trkpt lat="46.31463" lon="-1.00544">
        <ele>3.2</ele>
        <time>2020-06-02T12:52:53Z</time>
      </trkpt>
      <trkpt lat="46.31464" lon="-1.0055">
        <ele>3.2</ele>
        <time>2020-06-02T12:52:54Z</time>
      </trkpt>
      <trkpt lat="46.31465" lon="-1.00557">
        <ele>3.2</ele>
        <time>2020-06-02T12:52:55Z</time>
      </trkpt>
      <trkpt lat="46.31466" lon="-1.00563">
        <ele>3.2</ele>
        <time>2020-06-02T12:52:56Z</time>
      </trkpt>
      <trkpt lat="46.31467" lon="-1.00568">
        <ele>3.2</ele>
        <time>2020-06-02T12:52:57Z</time>
      </trkpt>
      <trkpt lat="46.31467" lon="-1.00575">
        <ele>3.2</ele>
        <time>2020-06-02T12:52:58Z</time>
      </trkpt>
      <trkpt lat="46.31468" lon="-1.0058">
        <ele>3.2</ele>
        <time>2020-06-02T12:52:59Z</time>
      </trkpt>
      <trkpt lat="46.31468" lon="-1.00584">
        <ele>3.2</ele>
        <time>2020-06-02T12:53:00Z</time>
      </trkpt>
      <trkpt lat="46.31468" lon="-1.0059">
        <ele>3.2</ele>
        <time>2020-06-02T12:53:01Z</time>
      </trkpt>
      <trkpt lat="46.31469" lon="-1.00595">
        <ele>3.2</ele>
        <time>2020-06-02T12:53:02Z</time>
      </trkpt>
      <trkpt lat="46.31469" lon="-1.00601">
        <ele>3.2</ele>
        <time>2020-06-02T12:53:03Z</time>
      </trkpt>
      <trkpt lat="46.3147" lon="-1.00607">
        <ele>3.2</ele>
        <time>2020-06-02T12:53:04Z</time>
      </trkpt>
      <trkpt lat="46.3147" lon="-1.00612">
        <ele>3.2</ele>
        <time>2020-06-02T12:53:05Z</time>
      </trkpt>
      <trkpt lat="46.31471" lon="-1.00618">
        <ele>3.2</ele>
        <time>2020-06-02T12:53:06Z</time>
      </trkpt>
      <trkpt lat="46.31472" lon="-1.00623">
        <ele>3.2</ele>
        <time>2020-06-02T12:53:07Z</time>
      </trkpt>
      <trkpt lat="46.31472" lon="-1.0063">
        <ele>3.2</ele>
        <time>2020-06-02T12:53:08Z</time>
      </trkpt>
      <trkpt lat="46.31473" lon="-1.00637">
        <ele>3.2</ele>
        <time>2020-06-02T12:53:09Z</time>
      </trkpt>
      <trkpt lat="46.31473" lon="-1.00644">
        <ele>3.2</ele>
        <time>2020-06-02T12:53:10Z</time>
      </trkpt>
      <trkpt lat="46.31474" lon="-1.00651">
        <ele>3.2</ele>
        <time>2020-06-02T12:53:11Z</time>
      </trkpt>
      <trkpt lat="46.31474" lon="-1.00657">
        <ele>3.2</ele>
        <time>2020-06-02T12:53:12Z</time>
      </trkpt>
      <trkpt lat="46.31474" lon="-1.00664">
        <ele>3.2</ele>
        <time>2020-06-02T12:53:13Z</time>
      </trkpt>
      <trkpt lat="46.31474" lon="-1.00669">
        <ele>3.2</ele>
        <time>2020-06-02T12:53:14Z</time>
      </trkpt>
      <trkpt lat="46.31474" lon="-1.00674">
        <ele>3.2</ele>
        <time>2020-06-02T12:53:15Z</time>
      </trkpt>
      <trkpt lat="46.31474" lon="-1.0068">
        <ele>3.2</ele>
        <time>2020-06-02T12:53:16Z</time>
      </trkpt>
      <trkpt lat="46.31475" lon="-1.00685">
        <ele>3.2</ele>
        <time>2020-06-02T12:53:17Z</time>
      </trkpt>
      <trkpt lat="46.31474" lon="-1.00691">
        <ele>3.2</ele>
        <time>2020-06-02T12:53:18Z</time>
      </trkpt>
      <trkpt lat="46.31475" lon="-1.00697">
        <ele>3.2</ele>
        <time>2020-06-02T12:53:19Z</time>
      </trkpt>
      <trkpt lat="46.31475" lon="-1.00705">
        <ele>3.2</ele>
        <time>2020-06-02T12:53:20Z</time>
      </trkpt>
      <trkpt lat="46.31474" lon="-1.0071">
        <ele>3.2</ele>
        <time>2020-06-02T12:53:21Z</time>
      </trkpt>
      <trkpt lat="46.31474" lon="-1.00716">
        <ele>3.1</ele>
        <time>2020-06-02T12:53:22Z</time>
      </trkpt>
      <trkpt lat="46.31474" lon="-1.00722">
        <ele>3.1</ele>
        <time>2020-06-02T12:53:23Z</time>
      </trkpt>
      <trkpt lat="46.31474" lon="-1.00727">
        <ele>3.1</ele>
        <time>2020-06-02T12:53:24Z</time>
      </trkpt>
      <trkpt lat="46.31474" lon="-1.00733">
        <ele>3.1</ele>
        <time>2020-06-02T12:53:25Z</time>
      </trkpt>
      <trkpt lat="46.31474" lon="-1.0074">
        <ele>3.1</ele>
        <time>2020-06-02T12:53:26Z</time>
      </trkpt>
      <trkpt lat="46.31473" lon="-1.00747">
        <ele>3.1</ele>
        <time>2020-06-02T12:53:27Z</time>
      </trkpt>
      <trkpt lat="46.31473" lon="-1.00753">
        <ele>3.1</ele>
        <time>2020-06-02T12:53:28Z</time>
      </trkpt>
      <trkpt lat="46.31472" lon="-1.00759">
        <ele>3</ele>
        <time>2020-06-02T12:53:29Z</time>
      </trkpt>
      <trkpt lat="46.31472" lon="-1.00766">
        <ele>3</ele>
        <time>2020-06-02T12:53:30Z</time>
      </trkpt>
      <trkpt lat="46.31472" lon="-1.00772">
        <ele>3</ele>
        <time>2020-06-02T12:53:31Z</time>
      </trkpt>
      <trkpt lat="46.31472" lon="-1.00779">
        <ele>3</ele>
        <time>2020-06-02T12:53:32Z</time>
      </trkpt>
      <trkpt lat="46.31471" lon="-1.00785">
        <ele>3</ele>
        <time>2020-06-02T12:53:33Z</time>
      </trkpt>
      <trkpt lat="46.31471" lon="-1.00792">
        <ele>3</ele>
        <time>2020-06-02T12:53:34Z</time>
      </trkpt>
      <trkpt lat="46.31471" lon="-1.00798">
        <ele>3</ele>
        <time>2020-06-02T12:53:35Z</time>
      </trkpt>
      <trkpt lat="46.3147" lon="-1.00805">
        <ele>3</ele>
        <time>2020-06-02T12:53:36Z</time>
      </trkpt>
      <trkpt lat="46.31469" lon="-1.00811">
        <ele>3</ele>
        <time>2020-06-02T12:53:37Z</time>
      </trkpt>
      <trkpt lat="46.31469" lon="-1.00818">
        <ele>3</ele>
        <time>2020-06-02T12:53:38Z</time>
      </trkpt>
      <trkpt lat="46.31468" lon="-1.00824">
        <ele>3</ele>
        <time>2020-06-02T12:53:39Z</time>
      </trkpt>
      <trkpt lat="46.31467" lon="-1.0083">
        <ele>3</ele>
        <time>2020-06-02T12:53:40Z</time>
      </trkpt>
      <trkpt lat="46.31466" lon="-1.00837">
        <ele>3</ele>
        <time>2020-06-02T12:53:41Z</time>
      </trkpt>
      <trkpt lat="46.31465" lon="-1.00845">
        <ele>3</ele>
        <time>2020-06-02T12:53:42Z</time>
      </trkpt>
      <trkpt lat="46.31463" lon="-1.00851">
        <ele>3</ele>
        <time>2020-06-02T12:53:43Z</time>
      </trkpt>
      <trkpt lat="46.31461" lon="-1.00857">
        <ele>3</ele>
        <time>2020-06-02T12:53:44Z</time>
      </trkpt>
      <trkpt lat="46.3146" lon="-1.00864">
        <ele>3</ele>
        <time>2020-06-02T12:53:45Z</time>
      </trkpt>
      <trkpt lat="46.3146" lon="-1.0087">
        <ele>3</ele>
        <time>2020-06-02T12:53:46Z</time>
      </trkpt>
      <trkpt lat="46.3146" lon="-1.00877">
        <ele>3</ele>
        <time>2020-06-02T12:53:47Z</time>
      </trkpt>
      <trkpt lat="46.31459" lon="-1.00883">
        <ele>3</ele>
        <time>2020-06-02T12:53:48Z</time>
      </trkpt>
      <trkpt lat="46.31458" lon="-1.00889">
        <ele>3</ele>
        <time>2020-06-02T12:53:49Z</time>
      </trkpt>
      <trkpt lat="46.31457" lon="-1.00894">
        <ele>3</ele>
        <time>2020-06-02T12:53:50Z</time>
      </trkpt>
      <trkpt lat="46.31455" lon="-1.00901">
        <ele>3</ele>
        <time>2020-06-02T12:53:51Z</time>
      </trkpt>
      <trkpt lat="46.31454" lon="-1.00908">
        <ele>3</ele>
        <time>2020-06-02T12:53:52Z</time>
      </trkpt>
      <trkpt lat="46.31453" lon="-1.00914">
        <ele>3</ele>
        <time>2020-06-02T12:53:53Z</time>
      </trkpt>
      <trkpt lat="46.31451" lon="-1.0092">
        <ele>3</ele>
        <time>2020-06-02T12:53:54Z</time>
      </trkpt>
      <trkpt lat="46.3145" lon="-1.00925">
        <ele>3</ele>
        <time>2020-06-02T12:53:55Z</time>
      </trkpt>
      <trkpt lat="46.31448" lon="-1.00931">
        <ele>3</ele>
        <time>2020-06-02T12:53:56Z</time>
      </trkpt>
      <trkpt lat="46.31446" lon="-1.00936">
        <ele>3</ele>
        <time>2020-06-02T12:53:57Z</time>
      </trkpt>
      <trkpt lat="46.31445" lon="-1.00942">
        <ele>2.9</ele>
        <time>2020-06-02T12:53:58Z</time>
      </trkpt>
      <trkpt lat="46.31443" lon="-1.00948">
        <ele>2.9</ele>
        <time>2020-06-02T12:53:59Z</time>
      </trkpt>
      <trkpt lat="46.31441" lon="-1.00953">
        <ele>2.9</ele>
        <time>2020-06-02T12:54:00Z</time>
      </trkpt>
      <trkpt lat="46.31439" lon="-1.00959">
        <ele>2.9</ele>
        <time>2020-06-02T12:54:01Z</time>
      </trkpt>
      <trkpt lat="46.31437" lon="-1.00964">
        <ele>2.9</ele>
        <time>2020-06-02T12:54:02Z</time>
      </trkpt>
      <trkpt lat="46.31436" lon="-1.00969">
        <ele>2.9</ele>
        <time>2020-06-02T12:54:03Z</time>
      </trkpt>
      <trkpt lat="46.31434" lon="-1.00974">
        <ele>2.9</ele>
        <time>2020-06-02T12:54:04Z</time>
      </trkpt>
      <trkpt lat="46.31432" lon="-1.00979">
        <ele>2.9</ele>
        <time>2020-06-02T12:54:05Z</time>
      </trkpt>
      <trkpt lat="46.31431" lon="-1.00983">
        <ele>2.9</ele>
        <time>2020-06-02T12:54:06Z</time>
      </trkpt>
      <trkpt lat="46.31429" lon="-1.00989">
        <ele>2.9</ele>
        <time>2020-06-02T12:54:07Z</time>
      </trkpt>
      <trkpt lat="46.31428" lon="-1.00994">
        <ele>2.9</ele>
        <time>2020-06-02T12:54:08Z</time>
      </trkpt>
      <trkpt lat="46.31427" lon="-1.01">
        <ele>2.9</ele>
        <time>2020-06-02T12:54:09Z</time>
      </trkpt>
      <trkpt lat="46.31426" lon="-1.01006">
        <ele>2.9</ele>
        <time>2020-06-02T12:54:10Z</time>
      </trkpt>
      <trkpt lat="46.31424" lon="-1.01013">
        <ele>2.9</ele>
        <time>2020-06-02T12:54:11Z</time>
      </trkpt>
      <trkpt lat="46.31422" lon="-1.01019">
        <ele>2.9</ele>
        <time>2020-06-02T12:54:12Z</time>
      </trkpt>
      <trkpt lat="46.31421" lon="-1.01025">
        <ele>2.9</ele>
        <time>2020-06-02T12:54:13Z</time>
      </trkpt>
      <trkpt lat="46.31419" lon="-1.01031">
        <ele>2.9</ele>
        <time>2020-06-02T12:54:14Z</time>
      </trkpt>
      <trkpt lat="46.31417" lon="-1.01038">
        <ele>2.9</ele>
        <time>2020-06-02T12:54:15Z</time>
      </trkpt>
      <trkpt lat="46.31416" lon="-1.01043">
        <ele>2.9</ele>
        <time>2020-06-02T12:54:16Z</time>
      </trkpt>
      <trkpt lat="46.31415" lon="-1.01049">
        <ele>2.9</ele>
        <time>2020-06-02T12:54:17Z</time>
      </trkpt>
      <trkpt lat="46.31414" lon="-1.01055">
        <ele>3</ele>
        <time>2020-06-02T12:54:18Z</time>
      </trkpt>
      <trkpt lat="46.31413" lon="-1.01061">
        <ele>3</ele>
        <time>2020-06-02T12:54:19Z</time>
      </trkpt>
      <trkpt lat="46.31412" lon="-1.01067">
        <ele>3</ele>
        <time>2020-06-02T12:54:20Z</time>
      </trkpt>
      <trkpt lat="46.31411" lon="-1.01072">
        <ele>3</ele>
        <time>2020-06-02T12:54:21Z</time>
      </trkpt>
      <trkpt lat="46.3141" lon="-1.01078">
        <ele>3</ele>
        <time>2020-06-02T12:54:22Z</time>
      </trkpt>
      <trkpt lat="46.3141" lon="-1.01083">
        <ele>3.1</ele>
        <time>2020-06-02T12:54:23Z</time>
      </trkpt>
      <trkpt lat="46.31409" lon="-1.01088">
        <ele>3.1</ele>
        <time>2020-06-02T12:54:24Z</time>
      </trkpt>
      <trkpt lat="46.31408" lon="-1.01094">
        <ele>3.1</ele>
        <time>2020-06-02T12:54:25Z</time>
      </trkpt>
      <trkpt lat="46.31407" lon="-1.01098">
        <ele>3.1</ele>
        <time>2020-06-02T12:54:26Z</time>
      </trkpt>
      <trkpt lat="46.31406" lon="-1.01102">
        <ele>3.1</ele>
        <time>2020-06-02T12:54:27Z</time>
      </trkpt>
      <trkpt lat="46.31406" lon="-1.01106">
        <ele>3.1</ele>
        <time>2020-06-02T12:54:28Z</time>
      </trkpt>
      <trkpt lat="46.31404" lon="-1.0111">
        <ele>3.1</ele>
        <time>2020-06-02T12:54:29Z</time>
      </trkpt>
      <trkpt lat="46.31404" lon="-1.01115">
        <ele>3.1</ele>
        <time>2020-06-02T12:54:30Z</time>
      </trkpt>
      <trkpt lat="46.31403" lon="-1.01121">
        <ele>3.1</ele>
        <time>2020-06-02T12:54:31Z</time>
      </trkpt>
      <trkpt lat="46.31403" lon="-1.01126">
        <ele>3.1</ele>
        <time>2020-06-02T12:54:32Z</time>
      </trkpt>
      <trkpt lat="46.31401" lon="-1.01132">
        <ele>3.1</ele>
        <time>2020-06-02T12:54:33Z</time>
      </trkpt>
      <trkpt lat="46.314" lon="-1.01137">
        <ele>3.1</ele>
        <time>2020-06-02T12:54:34Z</time>
      </trkpt>
      <trkpt lat="46.314" lon="-1.01143">
        <ele>3.1</ele>
        <time>2020-06-02T12:54:35Z</time>
      </trkpt>
      <trkpt lat="46.314" lon="-1.0115">
        <ele>3.1</ele>
        <time>2020-06-02T12:54:36Z</time>
      </trkpt>
      <trkpt lat="46.31399" lon="-1.01156">
        <ele>3.2</ele>
        <time>2020-06-02T12:54:37Z</time>
      </trkpt>
      <trkpt lat="46.31398" lon="-1.01162">
        <ele>3.2</ele>
        <time>2020-06-02T12:54:38Z</time>
      </trkpt>
      <trkpt lat="46.31397" lon="-1.01167">
        <ele>3.2</ele>
        <time>2020-06-02T12:54:39Z</time>
      </trkpt>
      <trkpt lat="46.31396" lon="-1.01172">
        <ele>3.2</ele>
        <time>2020-06-02T12:54:40Z</time>
      </trkpt>
      <trkpt lat="46.31395" lon="-1.01177">
        <ele>3.2</ele>
        <time>2020-06-02T12:54:41Z</time>
      </trkpt>
      <trkpt lat="46.31395" lon="-1.01184">
        <ele>3.2</ele>
        <time>2020-06-02T12:54:42Z</time>
      </trkpt>
      <trkpt lat="46.31394" lon="-1.01189">
        <ele>3.2</ele>
        <time>2020-06-02T12:54:43Z</time>
      </trkpt>
      <trkpt lat="46.31393" lon="-1.01195">
        <ele>3.2</ele>
        <time>2020-06-02T12:54:44Z</time>
      </trkpt>
      <trkpt lat="46.31392" lon="-1.012">
        <ele>3.2</ele>
        <time>2020-06-02T12:54:45Z</time>
      </trkpt>
      <trkpt lat="46.31391" lon="-1.01205">
        <ele>3.2</ele>
        <time>2020-06-02T12:54:46Z</time>
      </trkpt>
      <trkpt lat="46.31391" lon="-1.0121">
        <ele>3.2</ele>
        <time>2020-06-02T12:54:47Z</time>
      </trkpt>
      <trkpt lat="46.3139" lon="-1.01216">
        <ele>3.2</ele>
        <time>2020-06-02T12:54:48Z</time>
      </trkpt>
      <trkpt lat="46.3139" lon="-1.01223">
        <ele>3.2</ele>
        <time>2020-06-02T12:54:49Z</time>
      </trkpt>
      <trkpt lat="46.31389" lon="-1.01229">
        <ele>3.1</ele>
        <time>2020-06-02T12:54:50Z</time>
      </trkpt>
      <trkpt lat="46.31388" lon="-1.01235">
        <ele>3.1</ele>
        <time>2020-06-02T12:54:51Z</time>
      </trkpt>
      <trkpt lat="46.31387" lon="-1.01242">
        <ele>3.1</ele>
        <time>2020-06-02T12:54:52Z</time>
      </trkpt>
      <trkpt lat="46.31386" lon="-1.01249">
        <ele>3.1</ele>
        <time>2020-06-02T12:54:53Z</time>
      </trkpt>
      <trkpt lat="46.31386" lon="-1.01255">
        <ele>3.1</ele>
        <time>2020-06-02T12:54:54Z</time>
      </trkpt>
      <trkpt lat="46.31386" lon="-1.01261">
        <ele>3.1</ele>
        <time>2020-06-02T12:54:55Z</time>
      </trkpt>
      <trkpt lat="46.31386" lon="-1.01267">
        <ele>3.1</ele>
        <time>2020-06-02T12:54:56Z</time>
      </trkpt>
      <trkpt lat="46.31386" lon="-1.01274">
        <ele>3.1</ele>
        <time>2020-06-02T12:54:57Z</time>
      </trkpt>
      <trkpt lat="46.31386" lon="-1.0128">
        <ele>3.1</ele>
        <time>2020-06-02T12:54:58Z</time>
      </trkpt>
      <trkpt lat="46.31386" lon="-1.01286">
        <ele>3.1</ele>
        <time>2020-06-02T12:54:59Z</time>
      </trkpt>
      <trkpt lat="46.31386" lon="-1.01292">
        <ele>3.1</ele>
        <time>2020-06-02T12:55:00Z</time>
      </trkpt>
      <trkpt lat="46.31385" lon="-1.01298">
        <ele>3.1</ele>
        <time>2020-06-02T12:55:01Z</time>
      </trkpt>
      <trkpt lat="46.31385" lon="-1.01305">
        <ele>3.1</ele>
        <time>2020-06-02T12:55:02Z</time>
      </trkpt>
      <trkpt lat="46.31384" lon="-1.01311">
        <ele>3.1</ele>
        <time>2020-06-02T12:55:03Z</time>
      </trkpt>
      <trkpt lat="46.31383" lon="-1.01317">
        <ele>3.1</ele>
        <time>2020-06-02T12:55:04Z</time>
      </trkpt>
      <trkpt lat="46.31382" lon="-1.01324">
        <ele>3.1</ele>
        <time>2020-06-02T12:55:05Z</time>
      </trkpt>
      <trkpt lat="46.31382" lon="-1.0133">
        <ele>3.1</ele>
        <time>2020-06-02T12:55:06Z</time>
      </trkpt>
      <trkpt lat="46.31381" lon="-1.01338">
        <ele>3.1</ele>
        <time>2020-06-02T12:55:07Z</time>
      </trkpt>
      <trkpt lat="46.3138" lon="-1.01342">
        <ele>3.1</ele>
        <time>2020-06-02T12:55:08Z</time>
      </trkpt>
      <trkpt lat="46.31379" lon="-1.01349">
        <ele>3.1</ele>
        <time>2020-06-02T12:55:09Z</time>
      </trkpt>
      <trkpt lat="46.31379" lon="-1.01355">
        <ele>3.1</ele>
        <time>2020-06-02T12:55:10Z</time>
      </trkpt>
      <trkpt lat="46.31379" lon="-1.01361">
        <ele>3.1</ele>
        <time>2020-06-02T12:55:11Z</time>
      </trkpt>
      <trkpt lat="46.31379" lon="-1.01368">
        <ele>3.1</ele>
        <time>2020-06-02T12:55:12Z</time>
      </trkpt>
      <trkpt lat="46.31379" lon="-1.01374">
        <ele>3.1</ele>
        <time>2020-06-02T12:55:13Z</time>
      </trkpt>
      <trkpt lat="46.31379" lon="-1.01379">
        <ele>3.1</ele>
        <time>2020-06-02T12:55:14Z</time>
      </trkpt>
      <trkpt lat="46.31381" lon="-1.01385">
        <ele>3.1</ele>
        <time>2020-06-02T12:55:15Z</time>
      </trkpt>
      <trkpt lat="46.31382" lon="-1.01391">
        <ele>3.1</ele>
        <time>2020-06-02T12:55:16Z</time>
      </trkpt>
      <trkpt lat="46.31383" lon="-1.01397">
        <ele>3.1</ele>
        <time>2020-06-02T12:55:17Z</time>
      </trkpt>
      <trkpt lat="46.31383" lon="-1.01403">
        <ele>3.1</ele>
        <time>2020-06-02T12:55:18Z</time>
      </trkpt>
      <trkpt lat="46.31383" lon="-1.01408">
        <ele>3.1</ele>
        <time>2020-06-02T12:55:19Z</time>
      </trkpt>
      <trkpt lat="46.31384" lon="-1.01414">
        <ele>3.1</ele>
        <time>2020-06-02T12:55:20Z</time>
      </trkpt>
      <trkpt lat="46.31386" lon="-1.01419">
        <ele>3.1</ele>
        <time>2020-06-02T12:55:21Z</time>
      </trkpt>
      <trkpt lat="46.31386" lon="-1.01425">
        <ele>3.1</ele>
        <time>2020-06-02T12:55:22Z</time>
      </trkpt>
      <trkpt lat="46.31387" lon="-1.0143">
        <ele>3.1</ele>
        <time>2020-06-02T12:55:23Z</time>
      </trkpt>
      <trkpt lat="46.31387" lon="-1.01436">
        <ele>3.1</ele>
        <time>2020-06-02T12:55:24Z</time>
      </trkpt>
      <trkpt lat="46.31388" lon="-1.01442">
        <ele>3.1</ele>
        <time>2020-06-02T12:55:25Z</time>
      </trkpt>
      <trkpt lat="46.31389" lon="-1.01447">
        <ele>3.1</ele>
        <time>2020-06-02T12:55:26Z</time>
      </trkpt>
      <trkpt lat="46.3139" lon="-1.01453">
        <ele>3.1</ele>
        <time>2020-06-02T12:55:27Z</time>
      </trkpt>
      <trkpt lat="46.3139" lon="-1.01458">
        <ele>3.1</ele>
        <time>2020-06-02T12:55:28Z</time>
      </trkpt>
      <trkpt lat="46.3139" lon="-1.01464">
        <ele>3.1</ele>
        <time>2020-06-02T12:55:29Z</time>
      </trkpt>
      <trkpt lat="46.3139" lon="-1.0147">
        <ele>3.1</ele>
        <time>2020-06-02T12:55:30Z</time>
      </trkpt>
      <trkpt lat="46.3139" lon="-1.01475">
        <ele>3.1</ele>
        <time>2020-06-02T12:55:31Z</time>
      </trkpt>
      <trkpt lat="46.3139" lon="-1.01482">
        <ele>3.1</ele>
        <time>2020-06-02T12:55:32Z</time>
      </trkpt>
      <trkpt lat="46.31391" lon="-1.01488">
        <ele>3.1</ele>
        <time>2020-06-02T12:55:33Z</time>
      </trkpt>
      <trkpt lat="46.31392" lon="-1.01494">
        <ele>3.1</ele>
        <time>2020-06-02T12:55:34Z</time>
      </trkpt>
      <trkpt lat="46.31392" lon="-1.01501">
        <ele>3.1</ele>
        <time>2020-06-02T12:55:35Z</time>
      </trkpt>
      <trkpt lat="46.31393" lon="-1.01507">
        <ele>3.1</ele>
        <time>2020-06-02T12:55:36Z</time>
      </trkpt>
      <trkpt lat="46.31392" lon="-1.01513">
        <ele>3.1</ele>
        <time>2020-06-02T12:55:37Z</time>
      </trkpt>
      <trkpt lat="46.31391" lon="-1.0152">
        <ele>3.1</ele>
        <time>2020-06-02T12:55:38Z</time>
      </trkpt>
      <trkpt lat="46.31392" lon="-1.01526">
        <ele>3.1</ele>
        <time>2020-06-02T12:55:39Z</time>
      </trkpt>
      <trkpt lat="46.31392" lon="-1.01533">
        <ele>3.1</ele>
        <time>2020-06-02T12:55:40Z</time>
      </trkpt>
      <trkpt lat="46.31391" lon="-1.01538">
        <ele>3.1</ele>
        <time>2020-06-02T12:55:41Z</time>
      </trkpt>
      <trkpt lat="46.31391" lon="-1.01544">
        <ele>3.1</ele>
        <time>2020-06-02T12:55:42Z</time>
      </trkpt>
      <trkpt lat="46.31392" lon="-1.01551">
        <ele>3.1</ele>
        <time>2020-06-02T12:55:43Z</time>
      </trkpt>
      <trkpt lat="46.31393" lon="-1.01557">
        <ele>3.1</ele>
        <time>2020-06-02T12:55:44Z</time>
      </trkpt>
      <trkpt lat="46.31393" lon="-1.01563">
        <ele>3.1</ele>
        <time>2020-06-02T12:55:45Z</time>
      </trkpt>
      <trkpt lat="46.31394" lon="-1.0157">
        <ele>3.1</ele>
        <time>2020-06-02T12:55:46Z</time>
      </trkpt>
      <trkpt lat="46.31395" lon="-1.01575">
        <ele>3.1</ele>
        <time>2020-06-02T12:55:47Z</time>
      </trkpt>
      <trkpt lat="46.31395" lon="-1.01581">
        <ele>3.1</ele>
        <time>2020-06-02T12:55:48Z</time>
      </trkpt>
      <trkpt lat="46.31396" lon="-1.01587">
        <ele>3.1</ele>
        <time>2020-06-02T12:55:49Z</time>
      </trkpt>
      <trkpt lat="46.31396" lon="-1.01591">
        <ele>3.1</ele>
        <time>2020-06-02T12:55:50Z</time>
      </trkpt>
      <trkpt lat="46.31396" lon="-1.01597">
        <ele>3.1</ele>
        <time>2020-06-02T12:55:51Z</time>
      </trkpt>
      <trkpt lat="46.31396" lon="-1.01603">
        <ele>3.1</ele>
        <time>2020-06-02T12:55:52Z</time>
      </trkpt>
      <trkpt lat="46.31396" lon="-1.01609">
        <ele>3.1</ele>
        <time>2020-06-02T12:55:53Z</time>
      </trkpt>
      <trkpt lat="46.31397" lon="-1.01615">
        <ele>3.1</ele>
        <time>2020-06-02T12:55:54Z</time>
      </trkpt>
      <trkpt lat="46.31397" lon="-1.01622">
        <ele>3.1</ele>
        <time>2020-06-02T12:55:55Z</time>
      </trkpt>
      <trkpt lat="46.31398" lon="-1.01627">
        <ele>3.1</ele>
        <time>2020-06-02T12:55:56Z</time>
      </trkpt>
      <trkpt lat="46.31398" lon="-1.01634">
        <ele>3.1</ele>
        <time>2020-06-02T12:55:57Z</time>
      </trkpt>
      <trkpt lat="46.31398" lon="-1.0164">
        <ele>3.1</ele>
        <time>2020-06-02T12:55:58Z</time>
      </trkpt>
      <trkpt lat="46.31399" lon="-1.01646">
        <ele>3.1</ele>
        <time>2020-06-02T12:55:59Z</time>
      </trkpt>
      <trkpt lat="46.31399" lon="-1.01653">
        <ele>3.1</ele>
        <time>2020-06-02T12:56:00Z</time>
      </trkpt>
      <trkpt lat="46.314" lon="-1.01659">
        <ele>3.2</ele>
        <time>2020-06-02T12:56:01Z</time>
      </trkpt>
      <trkpt lat="46.314" lon="-1.01665">
        <ele>3.2</ele>
        <time>2020-06-02T12:56:02Z</time>
      </trkpt>
      <trkpt lat="46.314" lon="-1.01672">
        <ele>3.2</ele>
        <time>2020-06-02T12:56:03Z</time>
      </trkpt>
      <trkpt lat="46.314" lon="-1.01677">
        <ele>3.2</ele>
        <time>2020-06-02T12:56:04Z</time>
      </trkpt>
      <trkpt lat="46.31401" lon="-1.01683">
        <ele>3.2</ele>
        <time>2020-06-02T12:56:05Z</time>
      </trkpt>
      <trkpt lat="46.31402" lon="-1.01687">
        <ele>3.2</ele>
        <time>2020-06-02T12:56:06Z</time>
      </trkpt>
      <trkpt lat="46.31402" lon="-1.01692">
        <ele>3.2</ele>
        <time>2020-06-02T12:56:07Z</time>
      </trkpt>
      <trkpt lat="46.31403" lon="-1.01697">
        <ele>3.2</ele>
        <time>2020-06-02T12:56:08Z</time>
      </trkpt>
      <trkpt lat="46.31404" lon="-1.01702">
        <ele>3.2</ele>
        <time>2020-06-02T12:56:09Z</time>
      </trkpt>
      <trkpt lat="46.31404" lon="-1.01708">
        <ele>3.3</ele>
        <time>2020-06-02T12:56:10Z</time>
      </trkpt>
      <trkpt lat="46.31405" lon="-1.01714">
        <ele>3.3</ele>
        <time>2020-06-02T12:56:11Z</time>
      </trkpt>
      <trkpt lat="46.31406" lon="-1.01718">
        <ele>3.3</ele>
        <time>2020-06-02T12:56:12Z</time>
      </trkpt>
      <trkpt lat="46.31407" lon="-1.01722">
        <ele>3.3</ele>
        <time>2020-06-02T12:56:13Z</time>
      </trkpt>
      <trkpt lat="46.31407" lon="-1.01726">
        <ele>3.3</ele>
        <time>2020-06-02T12:56:14Z</time>
      </trkpt>
      <trkpt lat="46.31408" lon="-1.0173">
        <ele>3.3</ele>
        <time>2020-06-02T12:56:15Z</time>
      </trkpt>
      <trkpt lat="46.31408" lon="-1.01735">
        <ele>3.3</ele>
        <time>2020-06-02T12:56:16Z</time>
      </trkpt>
      <trkpt lat="46.31408" lon="-1.01739">
        <ele>3.3</ele>
        <time>2020-06-02T12:56:17Z</time>
      </trkpt>
      <trkpt lat="46.31409" lon="-1.01743">
        <ele>3.3</ele>
        <time>2020-06-02T12:56:18Z</time>
      </trkpt>
      <trkpt lat="46.3141" lon="-1.01749">
        <ele>3.3</ele>
        <time>2020-06-02T12:56:19Z</time>
      </trkpt>
      <trkpt lat="46.3141" lon="-1.0175">
        <ele>3.3</ele>
        <time>2020-06-02T12:56:20Z</time>
      </trkpt>
      <trkpt lat="46.31411" lon="-1.01755">
        <ele>3.3</ele>
        <time>2020-06-02T12:56:21Z</time>
      </trkpt>
      <trkpt lat="46.31411" lon="-1.01759">
        <ele>3.3</ele>
        <time>2020-06-02T12:56:22Z</time>
      </trkpt>
      <trkpt lat="46.31412" lon="-1.01764">
        <ele>3.3</ele>
        <time>2020-06-02T12:56:23Z</time>
      </trkpt>
      <trkpt lat="46.31412" lon="-1.01767">
        <ele>3.3</ele>
        <time>2020-06-02T12:56:24Z</time>
      </trkpt>
      <trkpt lat="46.31412" lon="-1.01772">
        <ele>3.3</ele>
        <time>2020-06-02T12:56:25Z</time>
      </trkpt>
      <trkpt lat="46.31412" lon="-1.01778">
        <ele>3.3</ele>
        <time>2020-06-02T12:56:26Z</time>
      </trkpt>
      <trkpt lat="46.31413" lon="-1.01783">
        <ele>3.3</ele>
        <time>2020-06-02T12:56:27Z</time>
      </trkpt>
      <trkpt lat="46.31413" lon="-1.01789">
        <ele>3.3</ele>
        <time>2020-06-02T12:56:28Z</time>
      </trkpt>
      <trkpt lat="46.31414" lon="-1.01796">
        <ele>3.3</ele>
        <time>2020-06-02T12:56:29Z</time>
      </trkpt>
      <trkpt lat="46.31414" lon="-1.01803">
        <ele>3.3</ele>
        <time>2020-06-02T12:56:30Z</time>
      </trkpt>
      <trkpt lat="46.31416" lon="-1.01811">
        <ele>3.3</ele>
        <time>2020-06-02T12:56:31Z</time>
      </trkpt>
      <trkpt lat="46.31417" lon="-1.01817">
        <ele>3.3</ele>
        <time>2020-06-02T12:56:32Z</time>
      </trkpt>
      <trkpt lat="46.31417" lon="-1.01824">
        <ele>3.3</ele>
        <time>2020-06-02T12:56:33Z</time>
      </trkpt>
      <trkpt lat="46.31417" lon="-1.01831">
        <ele>3.3</ele>
        <time>2020-06-02T12:56:34Z</time>
      </trkpt>
      <trkpt lat="46.31417" lon="-1.01837">
        <ele>3.2</ele>
        <time>2020-06-02T12:56:35Z</time>
      </trkpt>
      <trkpt lat="46.31417" lon="-1.01843">
        <ele>3.2</ele>
        <time>2020-06-02T12:56:36Z</time>
      </trkpt>
      <trkpt lat="46.31418" lon="-1.0185">
        <ele>3.2</ele>
        <time>2020-06-02T12:56:37Z</time>
      </trkpt>
      <trkpt lat="46.31418" lon="-1.01856">
        <ele>3.2</ele>
        <time>2020-06-02T12:56:38Z</time>
      </trkpt>
      <trkpt lat="46.31418" lon="-1.01863">
        <ele>3.2</ele>
        <time>2020-06-02T12:56:39Z</time>
      </trkpt>
      <trkpt lat="46.31419" lon="-1.01869">
        <ele>3.2</ele>
        <time>2020-06-02T12:56:40Z</time>
      </trkpt>
      <trkpt lat="46.3142" lon="-1.01875">
        <ele>3.2</ele>
        <time>2020-06-02T12:56:41Z</time>
      </trkpt>
      <trkpt lat="46.3142" lon="-1.01881">
        <ele>3.2</ele>
        <time>2020-06-02T12:56:42Z</time>
      </trkpt>
      <trkpt lat="46.31421" lon="-1.01887">
        <ele>3.2</ele>
        <time>2020-06-02T12:56:43Z</time>
      </trkpt>
      <trkpt lat="46.31421" lon="-1.01893">
        <ele>3.2</ele>
        <time>2020-06-02T12:56:44Z</time>
      </trkpt>
      <trkpt lat="46.31421" lon="-1.019">
        <ele>3.2</ele>
        <time>2020-06-02T12:56:45Z</time>
      </trkpt>
      <trkpt lat="46.31422" lon="-1.01906">
        <ele>3.2</ele>
        <time>2020-06-02T12:56:46Z</time>
      </trkpt>
      <trkpt lat="46.31422" lon="-1.01912">
        <ele>3.2</ele>
        <time>2020-06-02T12:56:47Z</time>
      </trkpt>
      <trkpt lat="46.31423" lon="-1.01918">
        <ele>3.2</ele>
        <time>2020-06-02T12:56:48Z</time>
      </trkpt>
      <trkpt lat="46.31423" lon="-1.01924">
        <ele>3.2</ele>
        <time>2020-06-02T12:56:49Z</time>
      </trkpt>
      <trkpt lat="46.31423" lon="-1.01931">
        <ele>3.2</ele>
        <time>2020-06-02T12:56:50Z</time>
      </trkpt>
      <trkpt lat="46.31424" lon="-1.01937">
        <ele>3.2</ele>
        <time>2020-06-02T12:56:51Z</time>
      </trkpt>
      <trkpt lat="46.31424" lon="-1.01943">
        <ele>3.2</ele>
        <time>2020-06-02T12:56:52Z</time>
      </trkpt>
      <trkpt lat="46.31424" lon="-1.01949">
        <ele>3.2</ele>
        <time>2020-06-02T12:56:53Z</time>
      </trkpt>
      <trkpt lat="46.31425" lon="-1.01955">
        <ele>3.2</ele>
        <time>2020-06-02T12:56:54Z</time>
      </trkpt>
      <trkpt lat="46.31426" lon="-1.01962">
        <ele>3.2</ele>
        <time>2020-06-02T12:56:55Z</time>
      </trkpt>
      <trkpt lat="46.31425" lon="-1.01968">
        <ele>3.2</ele>
        <time>2020-06-02T12:56:56Z</time>
      </trkpt>
      <trkpt lat="46.31426" lon="-1.01974">
        <ele>3.2</ele>
        <time>2020-06-02T12:56:57Z</time>
      </trkpt>
      <trkpt lat="46.31427" lon="-1.0198">
        <ele>3.2</ele>
        <time>2020-06-02T12:56:58Z</time>
      </trkpt>
      <trkpt lat="46.31427" lon="-1.01987">
        <ele>3.2</ele>
        <time>2020-06-02T12:56:59Z</time>
      </trkpt>
      <trkpt lat="46.31427" lon="-1.01992">
        <ele>3.2</ele>
        <time>2020-06-02T12:57:00Z</time>
      </trkpt>
      <trkpt lat="46.31428" lon="-1.01997">
        <ele>3.2</ele>
        <time>2020-06-02T12:57:01Z</time>
      </trkpt>
      <trkpt lat="46.31428" lon="-1.02003">
        <ele>3.2</ele>
        <time>2020-06-02T12:57:02Z</time>
      </trkpt>
      <trkpt lat="46.31429" lon="-1.0201">
        <ele>3.2</ele>
        <time>2020-06-02T12:57:03Z</time>
      </trkpt>
      <trkpt lat="46.31429" lon="-1.02017">
        <ele>3.2</ele>
        <time>2020-06-02T12:57:04Z</time>
      </trkpt>
      <trkpt lat="46.3143" lon="-1.02023">
        <ele>3.2</ele>
        <time>2020-06-02T12:57:05Z</time>
      </trkpt>
      <trkpt lat="46.3143" lon="-1.0203">
        <ele>3.2</ele>
        <time>2020-06-02T12:57:06Z</time>
      </trkpt>
      <trkpt lat="46.31431" lon="-1.02036">
        <ele>3.2</ele>
        <time>2020-06-02T12:57:07Z</time>
      </trkpt>
      <trkpt lat="46.31431" lon="-1.02043">
        <ele>3.2</ele>
        <time>2020-06-02T12:57:08Z</time>
      </trkpt>
      <trkpt lat="46.31431" lon="-1.02049">
        <ele>3.2</ele>
        <time>2020-06-02T12:57:09Z</time>
      </trkpt>
      <trkpt lat="46.31431" lon="-1.02055">
        <ele>3.2</ele>
        <time>2020-06-02T12:57:10Z</time>
      </trkpt>
      <trkpt lat="46.31432" lon="-1.02062">
        <ele>3.2</ele>
        <time>2020-06-02T12:57:11Z</time>
      </trkpt>
      <trkpt lat="46.31432" lon="-1.0207">
        <ele>3.2</ele>
        <time>2020-06-02T12:57:12Z</time>
      </trkpt>
      <trkpt lat="46.31433" lon="-1.02076">
        <ele>3.2</ele>
        <time>2020-06-02T12:57:13Z</time>
      </trkpt>
      <trkpt lat="46.31433" lon="-1.02082">
        <ele>3.2</ele>
        <time>2020-06-02T12:57:14Z</time>
      </trkpt>
      <trkpt lat="46.31433" lon="-1.02089">
        <ele>3.2</ele>
        <time>2020-06-02T12:57:15Z</time>
      </trkpt>
      <trkpt lat="46.31433" lon="-1.02095">
        <ele>3.2</ele>
        <time>2020-06-02T12:57:16Z</time>
      </trkpt>
      <trkpt lat="46.31434" lon="-1.021">
        <ele>3.2</ele>
        <time>2020-06-02T12:57:17Z</time>
      </trkpt>
      <trkpt lat="46.31434" lon="-1.02105">
        <ele>3.2</ele>
        <time>2020-06-02T12:57:18Z</time>
      </trkpt>
      <trkpt lat="46.31434" lon="-1.0211">
        <ele>3.3</ele>
        <time>2020-06-02T12:57:19Z</time>
      </trkpt>
      <trkpt lat="46.31434" lon="-1.02115">
        <ele>3.3</ele>
        <time>2020-06-02T12:57:20Z</time>
      </trkpt>
      <trkpt lat="46.31434" lon="-1.0212">
        <ele>3.3</ele>
        <time>2020-06-02T12:57:21Z</time>
      </trkpt>
      <trkpt lat="46.31434" lon="-1.02125">
        <ele>3.3</ele>
        <time>2020-06-02T12:57:22Z</time>
      </trkpt>
      <trkpt lat="46.31435" lon="-1.0213">
        <ele>3.3</ele>
        <time>2020-06-02T12:57:23Z</time>
      </trkpt>
      <trkpt lat="46.31436" lon="-1.02136">
        <ele>3.3</ele>
        <time>2020-06-02T12:57:24Z</time>
      </trkpt>
      <trkpt lat="46.31437" lon="-1.02141">
        <ele>3.3</ele>
        <time>2020-06-02T12:57:25Z</time>
      </trkpt>
      <trkpt lat="46.31438" lon="-1.02147">
        <ele>3.3</ele>
        <time>2020-06-02T12:57:26Z</time>
      </trkpt>
      <trkpt lat="46.31439" lon="-1.02152">
        <ele>3.3</ele>
        <time>2020-06-02T12:57:27Z</time>
      </trkpt>
      <trkpt lat="46.31439" lon="-1.02158">
        <ele>3.3</ele>
        <time>2020-06-02T12:57:28Z</time>
      </trkpt>
      <trkpt lat="46.3144" lon="-1.02163">
        <ele>3.3</ele>
        <time>2020-06-02T12:57:29Z</time>
      </trkpt>
      <trkpt lat="46.3144" lon="-1.02167">
        <ele>3.3</ele>
        <time>2020-06-02T12:57:30Z</time>
      </trkpt>
      <trkpt lat="46.3144" lon="-1.02172">
        <ele>3.3</ele>
        <time>2020-06-02T12:57:31Z</time>
      </trkpt>
      <trkpt lat="46.31441" lon="-1.02178">
        <ele>3.3</ele>
        <time>2020-06-02T12:57:32Z</time>
      </trkpt>
      <trkpt lat="46.31441" lon="-1.02184">
        <ele>3.3</ele>
        <time>2020-06-02T12:57:33Z</time>
      </trkpt>
      <trkpt lat="46.31441" lon="-1.0219">
        <ele>3.3</ele>
        <time>2020-06-02T12:57:34Z</time>
      </trkpt>
      <trkpt lat="46.31442" lon="-1.02196">
        <ele>3.3</ele>
        <time>2020-06-02T12:57:35Z</time>
      </trkpt>
      <trkpt lat="46.31442" lon="-1.02202">
        <ele>3.3</ele>
        <time>2020-06-02T12:57:36Z</time>
      </trkpt>
      <trkpt lat="46.31441" lon="-1.02209">
        <ele>3.3</ele>
        <time>2020-06-02T12:57:37Z</time>
      </trkpt>
      <trkpt lat="46.31441" lon="-1.02215">
        <ele>3.3</ele>
        <time>2020-06-02T12:57:38Z</time>
      </trkpt>
      <trkpt lat="46.31442" lon="-1.02221">
        <ele>3.3</ele>
        <time>2020-06-02T12:57:39Z</time>
      </trkpt>
      <trkpt lat="46.31442" lon="-1.02228">
        <ele>3.3</ele>
        <time>2020-06-02T12:57:40Z</time>
      </trkpt>
      <trkpt lat="46.31443" lon="-1.02235">
        <ele>3.3</ele>
        <time>2020-06-02T12:57:41Z</time>
      </trkpt>
      <trkpt lat="46.31443" lon="-1.02241">
        <ele>3.3</ele>
        <time>2020-06-02T12:57:42Z</time>
      </trkpt>
      <trkpt lat="46.31444" lon="-1.02246">
        <ele>3.3</ele>
        <time>2020-06-02T12:57:43Z</time>
      </trkpt>
      <trkpt lat="46.31444" lon="-1.02253">
        <ele>3.2</ele>
        <time>2020-06-02T12:57:44Z</time>
      </trkpt>
      <trkpt lat="46.31444" lon="-1.02259">
        <ele>3.2</ele>
        <time>2020-06-02T12:57:45Z</time>
      </trkpt>
      <trkpt lat="46.31444" lon="-1.02266">
        <ele>3.2</ele>
        <time>2020-06-02T12:57:46Z</time>
      </trkpt>
      <trkpt lat="46.31445" lon="-1.02272">
        <ele>3.2</ele>
        <time>2020-06-02T12:57:47Z</time>
      </trkpt>
      <trkpt lat="46.31445" lon="-1.02277">
        <ele>3.2</ele>
        <time>2020-06-02T12:57:48Z</time>
      </trkpt>
      <trkpt lat="46.31445" lon="-1.02283">
        <ele>3.2</ele>
        <time>2020-06-02T12:57:49Z</time>
      </trkpt>
      <trkpt lat="46.31445" lon="-1.0229">
        <ele>3.2</ele>
        <time>2020-06-02T12:57:50Z</time>
      </trkpt>
      <trkpt lat="46.31444" lon="-1.02297">
        <ele>3.2</ele>
        <time>2020-06-02T12:57:51Z</time>
      </trkpt>
      <trkpt lat="46.31445" lon="-1.02304">
        <ele>3.2</ele>
        <time>2020-06-02T12:57:52Z</time>
      </trkpt>
      <trkpt lat="46.31446" lon="-1.02311">
        <ele>3.2</ele>
        <time>2020-06-02T12:57:53Z</time>
      </trkpt>
      <trkpt lat="46.31447" lon="-1.02318">
        <ele>3.2</ele>
        <time>2020-06-02T12:57:54Z</time>
      </trkpt>
      <trkpt lat="46.31447" lon="-1.02325">
        <ele>3.2</ele>
        <time>2020-06-02T12:57:55Z</time>
      </trkpt>
      <trkpt lat="46.31447" lon="-1.02331">
        <ele>3.2</ele>
        <time>2020-06-02T12:57:56Z</time>
      </trkpt>
      <trkpt lat="46.31448" lon="-1.02337">
        <ele>3.2</ele>
        <time>2020-06-02T12:57:57Z</time>
      </trkpt>
      <trkpt lat="46.31448" lon="-1.02343">
        <ele>3.2</ele>
        <time>2020-06-02T12:57:58Z</time>
      </trkpt>
      <trkpt lat="46.31448" lon="-1.02349">
        <ele>3.2</ele>
        <time>2020-06-02T12:57:59Z</time>
      </trkpt>
      <trkpt lat="46.31448" lon="-1.02355">
        <ele>3.2</ele>
        <time>2020-06-02T12:58:00Z</time>
      </trkpt>
      <trkpt lat="46.31448" lon="-1.02361">
        <ele>3.2</ele>
        <time>2020-06-02T12:58:01Z</time>
      </trkpt>
      <trkpt lat="46.31449" lon="-1.02368">
        <ele>3.2</ele>
        <time>2020-06-02T12:58:02Z</time>
      </trkpt>
      <trkpt lat="46.31449" lon="-1.02374">
        <ele>3.2</ele>
        <time>2020-06-02T12:58:03Z</time>
      </trkpt>
      <trkpt lat="46.3145" lon="-1.02381">
        <ele>3.2</ele>
        <time>2020-06-02T12:58:04Z</time>
      </trkpt>
      <trkpt lat="46.3145" lon="-1.02387">
        <ele>3.2</ele>
        <time>2020-06-02T12:58:05Z</time>
      </trkpt>
      <trkpt lat="46.31451" lon="-1.02394">
        <ele>3.2</ele>
        <time>2020-06-02T12:58:06Z</time>
      </trkpt>
      <trkpt lat="46.31451" lon="-1.024">
        <ele>3.2</ele>
        <time>2020-06-02T12:58:07Z</time>
      </trkpt>
      <trkpt lat="46.31452" lon="-1.02406">
        <ele>3.2</ele>
        <time>2020-06-02T12:58:08Z</time>
      </trkpt>
      <trkpt lat="46.31453" lon="-1.02412">
        <ele>3.2</ele>
        <time>2020-06-02T12:58:09Z</time>
      </trkpt>
      <trkpt lat="46.31454" lon="-1.02418">
        <ele>3.2</ele>
        <time>2020-06-02T12:58:10Z</time>
      </trkpt>
      <trkpt lat="46.31454" lon="-1.02425">
        <ele>3.2</ele>
        <time>2020-06-02T12:58:11Z</time>
      </trkpt>
      <trkpt lat="46.31455" lon="-1.02432">
        <ele>3.3</ele>
        <time>2020-06-02T12:58:12Z</time>
      </trkpt>
      <trkpt lat="46.31456" lon="-1.02439">
        <ele>3.3</ele>
        <time>2020-06-02T12:58:13Z</time>
      </trkpt>
      <trkpt lat="46.31456" lon="-1.02445">
        <ele>3.3</ele>
        <time>2020-06-02T12:58:14Z</time>
      </trkpt>
      <trkpt lat="46.31456" lon="-1.02452">
        <ele>3.3</ele>
        <time>2020-06-02T12:58:15Z</time>
      </trkpt>
      <trkpt lat="46.31457" lon="-1.02458">
        <ele>3.3</ele>
        <time>2020-06-02T12:58:16Z</time>
      </trkpt>
      <trkpt lat="46.31457" lon="-1.02463">
        <ele>3.2</ele>
        <time>2020-06-02T12:58:17Z</time>
      </trkpt>
      <trkpt lat="46.31458" lon="-1.0247">
        <ele>3.2</ele>
        <time>2020-06-02T12:58:18Z</time>
      </trkpt>
      <trkpt lat="46.31458" lon="-1.02476">
        <ele>3.2</ele>
        <time>2020-06-02T12:58:19Z</time>
      </trkpt>
      <trkpt lat="46.31459" lon="-1.02482">
        <ele>3.2</ele>
        <time>2020-06-02T12:58:20Z</time>
      </trkpt>
      <trkpt lat="46.31459" lon="-1.02488">
        <ele>3.2</ele>
        <time>2020-06-02T12:58:21Z</time>
      </trkpt>
      <trkpt lat="46.3146" lon="-1.02494">
        <ele>3.2</ele>
        <time>2020-06-02T12:58:22Z</time>
      </trkpt>
      <trkpt lat="46.3146" lon="-1.025">
        <ele>3.2</ele>
        <time>2020-06-02T12:58:23Z</time>
      </trkpt>
      <trkpt lat="46.3146" lon="-1.02507">
        <ele>3.2</ele>
        <time>2020-06-02T12:58:24Z</time>
      </trkpt>
      <trkpt lat="46.31461" lon="-1.02513">
        <ele>3.2</ele>
        <time>2020-06-02T12:58:25Z</time>
      </trkpt>
      <trkpt lat="46.31461" lon="-1.0252">
        <ele>3.2</ele>
        <time>2020-06-02T12:58:26Z</time>
      </trkpt>
      <trkpt lat="46.31461" lon="-1.02527">
        <ele>3.2</ele>
        <time>2020-06-02T12:58:27Z</time>
      </trkpt>
      <trkpt lat="46.31461" lon="-1.02534">
        <ele>3.2</ele>
        <time>2020-06-02T12:58:28Z</time>
      </trkpt>
      <trkpt lat="46.31462" lon="-1.02541">
        <ele>3.2</ele>
        <time>2020-06-02T12:58:29Z</time>
      </trkpt>
      <trkpt lat="46.31462" lon="-1.02548">
        <ele>3.2</ele>
        <time>2020-06-02T12:58:30Z</time>
      </trkpt>
      <trkpt lat="46.31463" lon="-1.02555">
        <ele>3.2</ele>
        <time>2020-06-02T12:58:31Z</time>
      </trkpt>
      <trkpt lat="46.31463" lon="-1.02562">
        <ele>3.2</ele>
        <time>2020-06-02T12:58:32Z</time>
      </trkpt>
      <trkpt lat="46.31463" lon="-1.02568">
        <ele>3.2</ele>
        <time>2020-06-02T12:58:33Z</time>
      </trkpt>
      <trkpt lat="46.31464" lon="-1.02574">
        <ele>3.2</ele>
        <time>2020-06-02T12:58:34Z</time>
      </trkpt>
      <trkpt lat="46.31464" lon="-1.0258">
        <ele>3.2</ele>
        <time>2020-06-02T12:58:35Z</time>
      </trkpt>
      <trkpt lat="46.31464" lon="-1.02585">
        <ele>3.2</ele>
        <time>2020-06-02T12:58:36Z</time>
      </trkpt>
      <trkpt lat="46.31463" lon="-1.02592">
        <ele>3.2</ele>
        <time>2020-06-02T12:58:37Z</time>
      </trkpt>
      <trkpt lat="46.31463" lon="-1.02598">
        <ele>3.2</ele>
        <time>2020-06-02T12:58:38Z</time>
      </trkpt>
      <trkpt lat="46.31462" lon="-1.02605">
        <ele>3.2</ele>
        <time>2020-06-02T12:58:39Z</time>
      </trkpt>
      <trkpt lat="46.31462" lon="-1.02611">
        <ele>3.2</ele>
        <time>2020-06-02T12:58:40Z</time>
      </trkpt>
      <trkpt lat="46.31461" lon="-1.02617">
        <ele>3.2</ele>
        <time>2020-06-02T12:58:41Z</time>
      </trkpt>
      <trkpt lat="46.3146" lon="-1.02623">
        <ele>3.2</ele>
        <time>2020-06-02T12:58:42Z</time>
      </trkpt>
      <trkpt lat="46.3146" lon="-1.02629">
        <ele>3.2</ele>
        <time>2020-06-02T12:58:43Z</time>
      </trkpt>
      <trkpt lat="46.31459" lon="-1.02635">
        <ele>3.1</ele>
        <time>2020-06-02T12:58:44Z</time>
      </trkpt>
      <trkpt lat="46.31458" lon="-1.02641">
        <ele>3.1</ele>
        <time>2020-06-02T12:58:45Z</time>
      </trkpt>
      <trkpt lat="46.31457" lon="-1.02647">
        <ele>3.1</ele>
        <time>2020-06-02T12:58:46Z</time>
      </trkpt>
      <trkpt lat="46.31455" lon="-1.02653">
        <ele>3.1</ele>
        <time>2020-06-02T12:58:47Z</time>
      </trkpt>
      <trkpt lat="46.31455" lon="-1.0266">
        <ele>3.2</ele>
        <time>2020-06-02T12:58:48Z</time>
      </trkpt>
      <trkpt lat="46.31454" lon="-1.02667">
        <ele>3.2</ele>
        <time>2020-06-02T12:58:49Z</time>
      </trkpt>
      <trkpt lat="46.31453" lon="-1.02673">
        <ele>3.2</ele>
        <time>2020-06-02T12:58:50Z</time>
      </trkpt>
      <trkpt lat="46.31453" lon="-1.02679">
        <ele>3.2</ele>
        <time>2020-06-02T12:58:51Z</time>
      </trkpt>
      <trkpt lat="46.31453" lon="-1.02686">
        <ele>3.2</ele>
        <time>2020-06-02T12:58:52Z</time>
      </trkpt>
      <trkpt lat="46.31453" lon="-1.02693">
        <ele>3.2</ele>
        <time>2020-06-02T12:58:53Z</time>
      </trkpt>
      <trkpt lat="46.31452" lon="-1.02699">
        <ele>3.2</ele>
        <time>2020-06-02T12:58:54Z</time>
      </trkpt>
      <trkpt lat="46.31452" lon="-1.02706">
        <ele>3.2</ele>
        <time>2020-06-02T12:58:55Z</time>
      </trkpt>
      <trkpt lat="46.31452" lon="-1.02712">
        <ele>3.2</ele>
        <time>2020-06-02T12:58:56Z</time>
      </trkpt>
      <trkpt lat="46.31452" lon="-1.02719">
        <ele>3.2</ele>
        <time>2020-06-02T12:58:57Z</time>
      </trkpt>
      <trkpt lat="46.31452" lon="-1.02726">
        <ele>3.2</ele>
        <time>2020-06-02T12:58:58Z</time>
      </trkpt>
      <trkpt lat="46.31452" lon="-1.02733">
        <ele>3.2</ele>
        <time>2020-06-02T12:58:59Z</time>
      </trkpt>
      <trkpt lat="46.31452" lon="-1.02739">
        <ele>3.2</ele>
        <time>2020-06-02T12:59:00Z</time>
      </trkpt>
      <trkpt lat="46.31452" lon="-1.02745">
        <ele>3.2</ele>
        <time>2020-06-02T12:59:01Z</time>
      </trkpt>
      <trkpt lat="46.31453" lon="-1.02751">
        <ele>3.2</ele>
        <time>2020-06-02T12:59:02Z</time>
      </trkpt>
      <trkpt lat="46.31454" lon="-1.02758">
        <ele>3.2</ele>
        <time>2020-06-02T12:59:03Z</time>
      </trkpt>
      <trkpt lat="46.31456" lon="-1.02763">
        <ele>3.2</ele>
        <time>2020-06-02T12:59:04Z</time>
      </trkpt>
      <trkpt lat="46.31457" lon="-1.0277">
        <ele>3.2</ele>
        <time>2020-06-02T12:59:05Z</time>
      </trkpt>
      <trkpt lat="46.31457" lon="-1.02776">
        <ele>3.2</ele>
        <time>2020-06-02T12:59:06Z</time>
      </trkpt>
      <trkpt lat="46.31458" lon="-1.02783">
        <ele>3.2</ele>
        <time>2020-06-02T12:59:07Z</time>
      </trkpt>
      <trkpt lat="46.31459" lon="-1.0279">
        <ele>3.2</ele>
        <time>2020-06-02T12:59:08Z</time>
      </trkpt>
      <trkpt lat="46.3146" lon="-1.02797">
        <ele>3.2</ele>
        <time>2020-06-02T12:59:09Z</time>
      </trkpt>
      <trkpt lat="46.31462" lon="-1.02804">
        <ele>3.2</ele>
        <time>2020-06-02T12:59:10Z</time>
      </trkpt>
      <trkpt lat="46.31464" lon="-1.0281">
        <ele>3.2</ele>
        <time>2020-06-02T12:59:11Z</time>
      </trkpt>
      <trkpt lat="46.31466" lon="-1.02816">
        <ele>3.2</ele>
        <time>2020-06-02T12:59:12Z</time>
      </trkpt>
      <trkpt lat="46.31468" lon="-1.02822">
        <ele>3.2</ele>
        <time>2020-06-02T12:59:13Z</time>
      </trkpt>
      <trkpt lat="46.31469" lon="-1.02828">
        <ele>3.2</ele>
        <time>2020-06-02T12:59:14Z</time>
      </trkpt>
      <trkpt lat="46.31471" lon="-1.02835">
        <ele>3.2</ele>
        <time>2020-06-02T12:59:15Z</time>
      </trkpt>
      <trkpt lat="46.31472" lon="-1.02841">
        <ele>3.2</ele>
        <time>2020-06-02T12:59:16Z</time>
      </trkpt>
      <trkpt lat="46.31474" lon="-1.02847">
        <ele>3.2</ele>
        <time>2020-06-02T12:59:17Z</time>
      </trkpt>
      <trkpt lat="46.31475" lon="-1.02854">
        <ele>3.2</ele>
        <time>2020-06-02T12:59:18Z</time>
      </trkpt>
      <trkpt lat="46.31477" lon="-1.0286">
        <ele>3.2</ele>
        <time>2020-06-02T12:59:19Z</time>
      </trkpt>
      <trkpt lat="46.31477" lon="-1.02866">
        <ele>3.2</ele>
        <time>2020-06-02T12:59:20Z</time>
      </trkpt>
      <trkpt lat="46.31479" lon="-1.02872">
        <ele>3.2</ele>
        <time>2020-06-02T12:59:21Z</time>
      </trkpt>
      <trkpt lat="46.3148" lon="-1.02879">
        <ele>3.2</ele>
        <time>2020-06-02T12:59:22Z</time>
      </trkpt>
      <trkpt lat="46.31481" lon="-1.02887">
        <ele>3.2</ele>
        <time>2020-06-02T12:59:23Z</time>
      </trkpt>
      <trkpt lat="46.31481" lon="-1.02893">
        <ele>3.2</ele>
        <time>2020-06-02T12:59:24Z</time>
      </trkpt>
      <trkpt lat="46.31482" lon="-1.02899">
        <ele>3.2</ele>
        <time>2020-06-02T12:59:25Z</time>
      </trkpt>
      <trkpt lat="46.31482" lon="-1.02907">
        <ele>3.2</ele>
        <time>2020-06-02T12:59:26Z</time>
      </trkpt>
      <trkpt lat="46.31483" lon="-1.02914">
        <ele>3.2</ele>
        <time>2020-06-02T12:59:27Z</time>
      </trkpt>
      <trkpt lat="46.31483" lon="-1.0292">
        <ele>3.2</ele>
        <time>2020-06-02T12:59:28Z</time>
      </trkpt>
      <trkpt lat="46.31484" lon="-1.02927">
        <ele>3.2</ele>
        <time>2020-06-02T12:59:29Z</time>
      </trkpt>
      <trkpt lat="46.31485" lon="-1.02935">
        <ele>3.3</ele>
        <time>2020-06-02T12:59:30Z</time>
      </trkpt>
      <trkpt lat="46.31485" lon="-1.02943">
        <ele>3.3</ele>
        <time>2020-06-02T12:59:31Z</time>
      </trkpt>
      <trkpt lat="46.31485" lon="-1.02948">
        <ele>3.3</ele>
        <time>2020-06-02T12:59:32Z</time>
      </trkpt>
      <trkpt lat="46.31486" lon="-1.02954">
        <ele>3.3</ele>
        <time>2020-06-02T12:59:33Z</time>
      </trkpt>
      <trkpt lat="46.31486" lon="-1.02961">
        <ele>3.3</ele>
        <time>2020-06-02T12:59:34Z</time>
      </trkpt>
      <trkpt lat="46.31487" lon="-1.02967">
        <ele>3.3</ele>
        <time>2020-06-02T12:59:35Z</time>
      </trkpt>
      <trkpt lat="46.31488" lon="-1.02974">
        <ele>3.3</ele>
        <time>2020-06-02T12:59:36Z</time>
      </trkpt>
      <trkpt lat="46.31489" lon="-1.0298">
        <ele>3.3</ele>
        <time>2020-06-02T12:59:37Z</time>
      </trkpt>
      <trkpt lat="46.3149" lon="-1.02987">
        <ele>3.3</ele>
        <time>2020-06-02T12:59:38Z</time>
      </trkpt>
      <trkpt lat="46.3149" lon="-1.02994">
        <ele>3.3</ele>
        <time>2020-06-02T12:59:39Z</time>
      </trkpt>
      <trkpt lat="46.31491" lon="-1.03">
        <ele>3.3</ele>
        <time>2020-06-02T12:59:40Z</time>
      </trkpt>
      <trkpt lat="46.31492" lon="-1.03007">
        <ele>3.3</ele>
        <time>2020-06-02T12:59:41Z</time>
      </trkpt>
      <trkpt lat="46.31492" lon="-1.03013">
        <ele>3.3</ele>
        <time>2020-06-02T12:59:42Z</time>
      </trkpt>
      <trkpt lat="46.31492" lon="-1.03019">
        <ele>3.2</ele>
        <time>2020-06-02T12:59:43Z</time>
      </trkpt>
      <trkpt lat="46.31493" lon="-1.03026">
        <ele>3.2</ele>
        <time>2020-06-02T12:59:44Z</time>
      </trkpt>
      <trkpt lat="46.31493" lon="-1.03032">
        <ele>3.2</ele>
        <time>2020-06-02T12:59:45Z</time>
      </trkpt>
      <trkpt lat="46.31493" lon="-1.03039">
        <ele>3.2</ele>
        <time>2020-06-02T12:59:46Z</time>
      </trkpt>
      <trkpt lat="46.31494" lon="-1.03045">
        <ele>3.2</ele>
        <time>2020-06-02T12:59:47Z</time>
      </trkpt>
      <trkpt lat="46.31494" lon="-1.03052">
        <ele>3.2</ele>
        <time>2020-06-02T12:59:48Z</time>
      </trkpt>
      <trkpt lat="46.31494" lon="-1.0306">
        <ele>3.2</ele>
        <time>2020-06-02T12:59:49Z</time>
      </trkpt>
      <trkpt lat="46.31495" lon="-1.03067">
        <ele>3.2</ele>
        <time>2020-06-02T12:59:50Z</time>
      </trkpt>
      <trkpt lat="46.31497" lon="-1.03074">
        <ele>3.2</ele>
        <time>2020-06-02T12:59:51Z</time>
      </trkpt>
      <trkpt lat="46.31497" lon="-1.03081">
        <ele>3.2</ele>
        <time>2020-06-02T12:59:52Z</time>
      </trkpt>
      <trkpt lat="46.31498" lon="-1.03088">
        <ele>3.2</ele>
        <time>2020-06-02T12:59:53Z</time>
      </trkpt>
      <trkpt lat="46.31498" lon="-1.03096">
        <ele>3.2</ele>
        <time>2020-06-02T12:59:54Z</time>
      </trkpt>
      <trkpt lat="46.31498" lon="-1.03104">
        <ele>3.2</ele>
        <time>2020-06-02T12:59:55Z</time>
      </trkpt>
      <trkpt lat="46.31498" lon="-1.03111">
        <ele>3.2</ele>
        <time>2020-06-02T12:59:56Z</time>
      </trkpt>
      <trkpt lat="46.31498" lon="-1.03119">
        <ele>3.2</ele>
        <time>2020-06-02T12:59:57Z</time>
      </trkpt>
      <trkpt lat="46.31498" lon="-1.03125">
        <ele>3.2</ele>
        <time>2020-06-02T12:59:58Z</time>
      </trkpt>
      <trkpt lat="46.31499" lon="-1.03132">
        <ele>3.2</ele>
        <time>2020-06-02T12:59:59Z</time>
      </trkpt>
      <trkpt lat="46.315" lon="-1.03139">
        <ele>3.2</ele>
        <time>2020-06-02T13:00:00Z</time>
      </trkpt>
      <trkpt lat="46.315" lon="-1.03146">
        <ele>3.2</ele>
        <time>2020-06-02T13:00:01Z</time>
      </trkpt>
      <trkpt lat="46.31501" lon="-1.03153">
        <ele>3.2</ele>
        <time>2020-06-02T13:00:02Z</time>
      </trkpt>
      <trkpt lat="46.31501" lon="-1.03159">
        <ele>3.2</ele>
        <time>2020-06-02T13:00:03Z</time>
      </trkpt>
      <trkpt lat="46.31501" lon="-1.03166">
        <ele>3.2</ele>
        <time>2020-06-02T13:00:04Z</time>
      </trkpt>
      <trkpt lat="46.31502" lon="-1.03173">
        <ele>3.2</ele>
        <time>2020-06-02T13:00:05Z</time>
      </trkpt>
      <trkpt lat="46.31502" lon="-1.03179">
        <ele>3.2</ele>
        <time>2020-06-02T13:00:06Z</time>
      </trkpt>
      <trkpt lat="46.31503" lon="-1.03186">
        <ele>3.2</ele>
        <time>2020-06-02T13:00:07Z</time>
      </trkpt>
      <trkpt lat="46.31503" lon="-1.03193">
        <ele>3.2</ele>
        <time>2020-06-02T13:00:08Z</time>
      </trkpt>
      <trkpt lat="46.31504" lon="-1.032">
        <ele>3.2</ele>
        <time>2020-06-02T13:00:09Z</time>
      </trkpt>
      <trkpt lat="46.31504" lon="-1.03207">
        <ele>3.2</ele>
        <time>2020-06-02T13:00:10Z</time>
      </trkpt>
      <trkpt lat="46.31505" lon="-1.03213">
        <ele>3.2</ele>
        <time>2020-06-02T13:00:11Z</time>
      </trkpt>
      <trkpt lat="46.31505" lon="-1.0322">
        <ele>3.2</ele>
        <time>2020-06-02T13:00:12Z</time>
      </trkpt>
      <trkpt lat="46.31506" lon="-1.03228">
        <ele>3.2</ele>
        <time>2020-06-02T13:00:13Z</time>
      </trkpt>
      <trkpt lat="46.31506" lon="-1.03235">
        <ele>3.2</ele>
        <time>2020-06-02T13:00:14Z</time>
      </trkpt>
      <trkpt lat="46.31507" lon="-1.03241">
        <ele>3.2</ele>
        <time>2020-06-02T13:00:15Z</time>
      </trkpt>
      <trkpt lat="46.31507" lon="-1.03248">
        <ele>3.2</ele>
        <time>2020-06-02T13:00:16Z</time>
      </trkpt>
      <trkpt lat="46.31507" lon="-1.03255">
        <ele>3.2</ele>
        <time>2020-06-02T13:00:17Z</time>
      </trkpt>
      <trkpt lat="46.31507" lon="-1.03261">
        <ele>3.2</ele>
        <time>2020-06-02T13:00:18Z</time>
      </trkpt>
      <trkpt lat="46.31507" lon="-1.03268">
        <ele>3.2</ele>
        <time>2020-06-02T13:00:19Z</time>
      </trkpt>
      <trkpt lat="46.31508" lon="-1.03274">
        <ele>3.2</ele>
        <time>2020-06-02T13:00:20Z</time>
      </trkpt>
      <trkpt lat="46.31508" lon="-1.03281">
        <ele>3.1</ele>
        <time>2020-06-02T13:00:21Z</time>
      </trkpt>
      <trkpt lat="46.31508" lon="-1.03288">
        <ele>3.1</ele>
        <time>2020-06-02T13:00:22Z</time>
      </trkpt>
      <trkpt lat="46.31508" lon="-1.03295">
        <ele>3.1</ele>
        <time>2020-06-02T13:00:23Z</time>
      </trkpt>
      <trkpt lat="46.31509" lon="-1.03301">
        <ele>3.1</ele>
        <time>2020-06-02T13:00:24Z</time>
      </trkpt>
      <trkpt lat="46.31509" lon="-1.03308">
        <ele>3.1</ele>
        <time>2020-06-02T13:00:25Z</time>
      </trkpt>
      <trkpt lat="46.31509" lon="-1.03314">
        <ele>3.1</ele>
        <time>2020-06-02T13:00:26Z</time>
      </trkpt>
      <trkpt lat="46.3151" lon="-1.03321">
        <ele>3.1</ele>
        <time>2020-06-02T13:00:27Z</time>
      </trkpt>
      <trkpt lat="46.3151" lon="-1.03326">
        <ele>3.1</ele>
        <time>2020-06-02T13:00:28Z</time>
      </trkpt>
      <trkpt lat="46.3151" lon="-1.03332">
        <ele>3.1</ele>
        <time>2020-06-02T13:00:29Z</time>
      </trkpt>
      <trkpt lat="46.3151" lon="-1.03337">
        <ele>3.1</ele>
        <time>2020-06-02T13:00:30Z</time>
      </trkpt>
      <trkpt lat="46.31511" lon="-1.03342">
        <ele>3.1</ele>
        <time>2020-06-02T13:00:31Z</time>
      </trkpt>
      <trkpt lat="46.31511" lon="-1.03348">
        <ele>3.1</ele>
        <time>2020-06-02T13:00:32Z</time>
      </trkpt>
      <trkpt lat="46.31511" lon="-1.03354">
        <ele>3.1</ele>
        <time>2020-06-02T13:00:33Z</time>
      </trkpt>
      <trkpt lat="46.31511" lon="-1.03361">
        <ele>3.1</ele>
        <time>2020-06-02T13:00:34Z</time>
      </trkpt>
      <trkpt lat="46.31512" lon="-1.03366">
        <ele>3.1</ele>
        <time>2020-06-02T13:00:35Z</time>
      </trkpt>
      <trkpt lat="46.31513" lon="-1.03372">
        <ele>3.1</ele>
        <time>2020-06-02T13:00:36Z</time>
      </trkpt>
      <trkpt lat="46.31513" lon="-1.03377">
        <ele>3.1</ele>
        <time>2020-06-02T13:00:37Z</time>
      </trkpt>
      <trkpt lat="46.31513" lon="-1.03384">
        <ele>3.1</ele>
        <time>2020-06-02T13:00:38Z</time>
      </trkpt>
      <trkpt lat="46.31514" lon="-1.03392">
        <ele>3.1</ele>
        <time>2020-06-02T13:00:39Z</time>
      </trkpt>
      <trkpt lat="46.31514" lon="-1.03398">
        <ele>3.1</ele>
        <time>2020-06-02T13:00:40Z</time>
      </trkpt>
      <trkpt lat="46.31514" lon="-1.03405">
        <ele>3.1</ele>
        <time>2020-06-02T13:00:41Z</time>
      </trkpt>
      <trkpt lat="46.31514" lon="-1.03412">
        <ele>3.1</ele>
        <time>2020-06-02T13:00:42Z</time>
      </trkpt>
      <trkpt lat="46.31514" lon="-1.03418">
        <ele>3.1</ele>
        <time>2020-06-02T13:00:43Z</time>
      </trkpt>
      <trkpt lat="46.31514" lon="-1.03425">
        <ele>3.1</ele>
        <time>2020-06-02T13:00:44Z</time>
      </trkpt>
      <trkpt lat="46.31514" lon="-1.03432">
        <ele>3.1</ele>
        <time>2020-06-02T13:00:45Z</time>
      </trkpt>
      <trkpt lat="46.31515" lon="-1.03439">
        <ele>3.1</ele>
        <time>2020-06-02T13:00:46Z</time>
      </trkpt>
      <trkpt lat="46.31515" lon="-1.03444">
        <ele>3.1</ele>
        <time>2020-06-02T13:00:47Z</time>
      </trkpt>
      <trkpt lat="46.31515" lon="-1.0345">
        <ele>3.1</ele>
        <time>2020-06-02T13:00:48Z</time>
      </trkpt>
      <trkpt lat="46.31515" lon="-1.03458">
        <ele>3.1</ele>
        <time>2020-06-02T13:00:49Z</time>
      </trkpt>
      <trkpt lat="46.31515" lon="-1.03465">
        <ele>3.1</ele>
        <time>2020-06-02T13:00:50Z</time>
      </trkpt>
      <trkpt lat="46.31514" lon="-1.03472">
        <ele>3.1</ele>
        <time>2020-06-02T13:00:51Z</time>
      </trkpt>
      <trkpt lat="46.31514" lon="-1.03479">
        <ele>3.1</ele>
        <time>2020-06-02T13:00:52Z</time>
      </trkpt>
      <trkpt lat="46.31515" lon="-1.03485">
        <ele>3.1</ele>
        <time>2020-06-02T13:00:53Z</time>
      </trkpt>
      <trkpt lat="46.31515" lon="-1.03493">
        <ele>3</ele>
        <time>2020-06-02T13:00:54Z</time>
      </trkpt>
      <trkpt lat="46.31516" lon="-1.035">
        <ele>3</ele>
        <time>2020-06-02T13:00:55Z</time>
      </trkpt>
      <trkpt lat="46.31517" lon="-1.03507">
        <ele>3</ele>
        <time>2020-06-02T13:00:56Z</time>
      </trkpt>
      <trkpt lat="46.31517" lon="-1.03514">
        <ele>2.9</ele>
        <time>2020-06-02T13:00:57Z</time>
      </trkpt>
      <trkpt lat="46.31517" lon="-1.03521">
        <ele>2.9</ele>
        <time>2020-06-02T13:00:58Z</time>
      </trkpt>
      <trkpt lat="46.31517" lon="-1.03528">
        <ele>2.9</ele>
        <time>2020-06-02T13:00:59Z</time>
      </trkpt>
      <trkpt lat="46.31518" lon="-1.03534">
        <ele>2.9</ele>
        <time>2020-06-02T13:01:00Z</time>
      </trkpt>
      <trkpt lat="46.31518" lon="-1.0354">
        <ele>2.9</ele>
        <time>2020-06-02T13:01:01Z</time>
      </trkpt>
      <trkpt lat="46.31519" lon="-1.03548">
        <ele>2.8</ele>
        <time>2020-06-02T13:01:02Z</time>
      </trkpt>
      <trkpt lat="46.3152" lon="-1.03555">
        <ele>2.8</ele>
        <time>2020-06-02T13:01:03Z</time>
      </trkpt>
      <trkpt lat="46.31519" lon="-1.03563">
        <ele>2.8</ele>
        <time>2020-06-02T13:01:04Z</time>
      </trkpt>
      <trkpt lat="46.31519" lon="-1.0357">
        <ele>2.8</ele>
        <time>2020-06-02T13:01:05Z</time>
      </trkpt>
      <trkpt lat="46.3152" lon="-1.03576">
        <ele>2.8</ele>
        <time>2020-06-02T13:01:06Z</time>
      </trkpt>
      <trkpt lat="46.3152" lon="-1.03583">
        <ele>2.8</ele>
        <time>2020-06-02T13:01:07Z</time>
      </trkpt>
      <trkpt lat="46.31521" lon="-1.0359">
        <ele>2.8</ele>
        <time>2020-06-02T13:01:08Z</time>
      </trkpt>
      <trkpt lat="46.31522" lon="-1.03597">
        <ele>2.8</ele>
        <time>2020-06-02T13:01:09Z</time>
      </trkpt>
      <trkpt lat="46.31522" lon="-1.03604">
        <ele>2.8</ele>
        <time>2020-06-02T13:01:10Z</time>
      </trkpt>
      <trkpt lat="46.31523" lon="-1.03611">
        <ele>2.8</ele>
        <time>2020-06-02T13:01:11Z</time>
      </trkpt>
      <trkpt lat="46.31524" lon="-1.03617">
        <ele>2.8</ele>
        <time>2020-06-02T13:01:12Z</time>
      </trkpt>
      <trkpt lat="46.31524" lon="-1.03625">
        <ele>2.8</ele>
        <time>2020-06-02T13:01:13Z</time>
      </trkpt>
      <trkpt lat="46.31525" lon="-1.03632">
        <ele>2.8</ele>
        <time>2020-06-02T13:01:14Z</time>
      </trkpt>
      <trkpt lat="46.31526" lon="-1.03639">
        <ele>2.8</ele>
        <time>2020-06-02T13:01:15Z</time>
      </trkpt>
      <trkpt lat="46.31527" lon="-1.03646">
        <ele>2.8</ele>
        <time>2020-06-02T13:01:16Z</time>
      </trkpt>
      <trkpt lat="46.31527" lon="-1.03653">
        <ele>2.8</ele>
        <time>2020-06-02T13:01:17Z</time>
      </trkpt>
      <trkpt lat="46.31527" lon="-1.03659">
        <ele>2.8</ele>
        <time>2020-06-02T13:01:18Z</time>
      </trkpt>
      <trkpt lat="46.31526" lon="-1.03665">
        <ele>2.8</ele>
        <time>2020-06-02T13:01:19Z</time>
      </trkpt>
      <trkpt lat="46.31526" lon="-1.03671">
        <ele>2.8</ele>
        <time>2020-06-02T13:01:20Z</time>
      </trkpt>
      <trkpt lat="46.31526" lon="-1.03677">
        <ele>2.8</ele>
        <time>2020-06-02T13:01:21Z</time>
      </trkpt>
      <trkpt lat="46.31527" lon="-1.03684">
        <ele>2.8</ele>
        <time>2020-06-02T13:01:22Z</time>
      </trkpt>
      <trkpt lat="46.31529" lon="-1.03691">
        <ele>2.8</ele>
        <time>2020-06-02T13:01:23Z</time>
      </trkpt>
      <trkpt lat="46.31529" lon="-1.03698">
        <ele>2.8</ele>
        <time>2020-06-02T13:01:24Z</time>
      </trkpt>
      <trkpt lat="46.31529" lon="-1.03704">
        <ele>2.8</ele>
        <time>2020-06-02T13:01:25Z</time>
      </trkpt>
      <trkpt lat="46.31529" lon="-1.03711">
        <ele>2.8</ele>
        <time>2020-06-02T13:01:26Z</time>
      </trkpt>
      <trkpt lat="46.31529" lon="-1.03718">
        <ele>2.8</ele>
        <time>2020-06-02T13:01:27Z</time>
      </trkpt>
      <trkpt lat="46.3153" lon="-1.03725">
        <ele>2.8</ele>
        <time>2020-06-02T13:01:28Z</time>
      </trkpt>
      <trkpt lat="46.3153" lon="-1.03732">
        <ele>2.8</ele>
        <time>2020-06-02T13:01:29Z</time>
      </trkpt>
      <trkpt lat="46.3153" lon="-1.03739">
        <ele>2.8</ele>
        <time>2020-06-02T13:01:30Z</time>
      </trkpt>
      <trkpt lat="46.31531" lon="-1.03745">
        <ele>2.8</ele>
        <time>2020-06-02T13:01:31Z</time>
      </trkpt>
      <trkpt lat="46.3153" lon="-1.03752">
        <ele>2.8</ele>
        <time>2020-06-02T13:01:32Z</time>
      </trkpt>
      <trkpt lat="46.31529" lon="-1.03759">
        <ele>2.8</ele>
        <time>2020-06-02T13:01:33Z</time>
      </trkpt>
      <trkpt lat="46.31529" lon="-1.03766">
        <ele>2.8</ele>
        <time>2020-06-02T13:01:34Z</time>
      </trkpt>
      <trkpt lat="46.3153" lon="-1.03772">
        <ele>2.8</ele>
        <time>2020-06-02T13:01:35Z</time>
      </trkpt>
      <trkpt lat="46.31531" lon="-1.03779">
        <ele>2.8</ele>
        <time>2020-06-02T13:01:36Z</time>
      </trkpt>
      <trkpt lat="46.31531" lon="-1.03787">
        <ele>2.8</ele>
        <time>2020-06-02T13:01:37Z</time>
      </trkpt>
      <trkpt lat="46.31532" lon="-1.03794">
        <ele>2.8</ele>
        <time>2020-06-02T13:01:38Z</time>
      </trkpt>
      <trkpt lat="46.31532" lon="-1.03801">
        <ele>2.8</ele>
        <time>2020-06-02T13:01:39Z</time>
      </trkpt>
      <trkpt lat="46.31533" lon="-1.03808">
        <ele>2.8</ele>
        <time>2020-06-02T13:01:40Z</time>
      </trkpt>
      <trkpt lat="46.31533" lon="-1.03815">
        <ele>2.8</ele>
        <time>2020-06-02T13:01:41Z</time>
      </trkpt>
      <trkpt lat="46.31534" lon="-1.03821">
        <ele>2.8</ele>
        <time>2020-06-02T13:01:42Z</time>
      </trkpt>
      <trkpt lat="46.31535" lon="-1.03827">
        <ele>2.8</ele>
        <time>2020-06-02T13:01:43Z</time>
      </trkpt>
      <trkpt lat="46.31536" lon="-1.03834">
        <ele>2.8</ele>
        <time>2020-06-02T13:01:44Z</time>
      </trkpt>
      <trkpt lat="46.31536" lon="-1.03841">
        <ele>2.8</ele>
        <time>2020-06-02T13:01:45Z</time>
      </trkpt>
      <trkpt lat="46.31537" lon="-1.03847">
        <ele>2.8</ele>
        <time>2020-06-02T13:01:46Z</time>
      </trkpt>
      <trkpt lat="46.31537" lon="-1.03853">
        <ele>2.8</ele>
        <time>2020-06-02T13:01:47Z</time>
      </trkpt>
      <trkpt lat="46.31537" lon="-1.03858">
        <ele>2.8</ele>
        <time>2020-06-02T13:01:48Z</time>
      </trkpt>
      <trkpt lat="46.31537" lon="-1.03865">
        <ele>2.7</ele>
        <time>2020-06-02T13:01:49Z</time>
      </trkpt>
      <trkpt lat="46.31537" lon="-1.03871">
        <ele>2.7</ele>
        <time>2020-06-02T13:01:50Z</time>
      </trkpt>
      <trkpt lat="46.31538" lon="-1.03878">
        <ele>2.7</ele>
        <time>2020-06-02T13:01:51Z</time>
      </trkpt>
      <trkpt lat="46.31539" lon="-1.03884">
        <ele>2.7</ele>
        <time>2020-06-02T13:01:52Z</time>
      </trkpt>
      <trkpt lat="46.3154" lon="-1.03892">
        <ele>2.7</ele>
        <time>2020-06-02T13:01:53Z</time>
      </trkpt>
      <trkpt lat="46.3154" lon="-1.03899">
        <ele>2.7</ele>
        <time>2020-06-02T13:01:54Z</time>
      </trkpt>
      <trkpt lat="46.31541" lon="-1.03907">
        <ele>2.7</ele>
        <time>2020-06-02T13:01:55Z</time>
      </trkpt>
      <trkpt lat="46.31541" lon="-1.03914">
        <ele>2.7</ele>
        <time>2020-06-02T13:01:56Z</time>
      </trkpt>
      <trkpt lat="46.31541" lon="-1.03922">
        <ele>2.7</ele>
        <time>2020-06-02T13:01:57Z</time>
      </trkpt>
      <trkpt lat="46.31543" lon="-1.03928">
        <ele>2.7</ele>
        <time>2020-06-02T13:01:58Z</time>
      </trkpt>
      <trkpt lat="46.31543" lon="-1.03935">
        <ele>2.7</ele>
        <time>2020-06-02T13:01:59Z</time>
      </trkpt>
      <trkpt lat="46.31544" lon="-1.03941">
        <ele>2.7</ele>
        <time>2020-06-02T13:02:00Z</time>
      </trkpt>
      <trkpt lat="46.31544" lon="-1.03947">
        <ele>2.7</ele>
        <time>2020-06-02T13:02:01Z</time>
      </trkpt>
      <trkpt lat="46.31545" lon="-1.03955">
        <ele>2.7</ele>
        <time>2020-06-02T13:02:02Z</time>
      </trkpt>
      <trkpt lat="46.31545" lon="-1.03964">
        <ele>2.7</ele>
        <time>2020-06-02T13:02:03Z</time>
      </trkpt>
      <trkpt lat="46.31546" lon="-1.0397">
        <ele>2.7</ele>
        <time>2020-06-02T13:02:04Z</time>
      </trkpt>
      <trkpt lat="46.31546" lon="-1.03977">
        <ele>2.7</ele>
        <time>2020-06-02T13:02:05Z</time>
      </trkpt>
      <trkpt lat="46.31547" lon="-1.03983">
        <ele>2.7</ele>
        <time>2020-06-02T13:02:06Z</time>
      </trkpt>
      <trkpt lat="46.31547" lon="-1.0399">
        <ele>2.7</ele>
        <time>2020-06-02T13:02:07Z</time>
      </trkpt>
      <trkpt lat="46.31548" lon="-1.03997">
        <ele>2.7</ele>
        <time>2020-06-02T13:02:08Z</time>
      </trkpt>
      <trkpt lat="46.3155" lon="-1.04005">
        <ele>2.6</ele>
        <time>2020-06-02T13:02:09Z</time>
      </trkpt>
      <trkpt lat="46.3155" lon="-1.04012">
        <ele>2.6</ele>
        <time>2020-06-02T13:02:10Z</time>
      </trkpt>
      <trkpt lat="46.3155" lon="-1.04019">
        <ele>2.6</ele>
        <time>2020-06-02T13:02:11Z</time>
      </trkpt>
      <trkpt lat="46.31551" lon="-1.04026">
        <ele>2.6</ele>
        <time>2020-06-02T13:02:12Z</time>
      </trkpt>
      <trkpt lat="46.31552" lon="-1.04033">
        <ele>2.6</ele>
        <time>2020-06-02T13:02:13Z</time>
      </trkpt>
      <trkpt lat="46.31552" lon="-1.04039">
        <ele>2.6</ele>
        <time>2020-06-02T13:02:14Z</time>
      </trkpt>
      <trkpt lat="46.31553" lon="-1.04047">
        <ele>2.6</ele>
        <time>2020-06-02T13:02:15Z</time>
      </trkpt>
      <trkpt lat="46.31553" lon="-1.04054">
        <ele>2.6</ele>
        <time>2020-06-02T13:02:16Z</time>
      </trkpt>
      <trkpt lat="46.31553" lon="-1.04061">
        <ele>2.6</ele>
        <time>2020-06-02T13:02:17Z</time>
      </trkpt>
      <trkpt lat="46.31554" lon="-1.04068">
        <ele>2.6</ele>
        <time>2020-06-02T13:02:18Z</time>
      </trkpt>
      <trkpt lat="46.31554" lon="-1.04075">
        <ele>2.6</ele>
        <time>2020-06-02T13:02:19Z</time>
      </trkpt>
      <trkpt lat="46.31555" lon="-1.04082">
        <ele>2.6</ele>
        <time>2020-06-02T13:02:20Z</time>
      </trkpt>
      <trkpt lat="46.31555" lon="-1.04089">
        <ele>2.6</ele>
        <time>2020-06-02T13:02:21Z</time>
      </trkpt>
      <trkpt lat="46.31555" lon="-1.04095">
        <ele>2.6</ele>
        <time>2020-06-02T13:02:22Z</time>
      </trkpt>
      <trkpt lat="46.31555" lon="-1.04102">
        <ele>2.6</ele>
        <time>2020-06-02T13:02:23Z</time>
      </trkpt>
      <trkpt lat="46.31555" lon="-1.04108">
        <ele>2.6</ele>
        <time>2020-06-02T13:02:24Z</time>
      </trkpt>
      <trkpt lat="46.31556" lon="-1.04115">
        <ele>2.6</ele>
        <time>2020-06-02T13:02:25Z</time>
      </trkpt>
      <trkpt lat="46.31557" lon="-1.04122">
        <ele>2.6</ele>
        <time>2020-06-02T13:02:26Z</time>
      </trkpt>
      <trkpt lat="46.31556" lon="-1.04128">
        <ele>2.6</ele>
        <time>2020-06-02T13:02:27Z</time>
      </trkpt>
      <trkpt lat="46.31556" lon="-1.04135">
        <ele>2.6</ele>
        <time>2020-06-02T13:02:28Z</time>
      </trkpt>
      <trkpt lat="46.31557" lon="-1.04142">
        <ele>2.6</ele>
        <time>2020-06-02T13:02:29Z</time>
      </trkpt>
      <trkpt lat="46.31557" lon="-1.04149">
        <ele>2.6</ele>
        <time>2020-06-02T13:02:30Z</time>
      </trkpt>
      <trkpt lat="46.31557" lon="-1.04155">
        <ele>2.6</ele>
        <time>2020-06-02T13:02:31Z</time>
      </trkpt>
      <trkpt lat="46.31558" lon="-1.04161">
        <ele>2.6</ele>
        <time>2020-06-02T13:02:32Z</time>
      </trkpt>
      <trkpt lat="46.31558" lon="-1.04166">
        <ele>2.6</ele>
        <time>2020-06-02T13:02:33Z</time>
      </trkpt>
      <trkpt lat="46.31557" lon="-1.04173">
        <ele>2.6</ele>
        <time>2020-06-02T13:02:34Z</time>
      </trkpt>
      <trkpt lat="46.31558" lon="-1.04178">
        <ele>2.6</ele>
        <time>2020-06-02T13:02:35Z</time>
      </trkpt>
      <trkpt lat="46.3156" lon="-1.04185">
        <ele>2.5</ele>
        <time>2020-06-02T13:02:36Z</time>
      </trkpt>
      <trkpt lat="46.3156" lon="-1.04192">
        <ele>2.5</ele>
        <time>2020-06-02T13:02:37Z</time>
      </trkpt>
      <trkpt lat="46.31561" lon="-1.04199">
        <ele>2.5</ele>
        <time>2020-06-02T13:02:38Z</time>
      </trkpt>
      <trkpt lat="46.31562" lon="-1.04205">
        <ele>2.6</ele>
        <time>2020-06-02T13:02:39Z</time>
      </trkpt>
      <trkpt lat="46.31562" lon="-1.04212">
        <ele>2.6</ele>
        <time>2020-06-02T13:02:40Z</time>
      </trkpt>
      <trkpt lat="46.31563" lon="-1.04217">
        <ele>2.6</ele>
        <time>2020-06-02T13:02:41Z</time>
      </trkpt>
      <trkpt lat="46.31563" lon="-1.04223">
        <ele>2.6</ele>
        <time>2020-06-02T13:02:42Z</time>
      </trkpt>
      <trkpt lat="46.31563" lon="-1.0423">
        <ele>2.6</ele>
        <time>2020-06-02T13:02:43Z</time>
      </trkpt>
      <trkpt lat="46.31564" lon="-1.04237">
        <ele>2.6</ele>
        <time>2020-06-02T13:02:44Z</time>
      </trkpt>
      <trkpt lat="46.31564" lon="-1.04244">
        <ele>2.6</ele>
        <time>2020-06-02T13:02:45Z</time>
      </trkpt>
      <trkpt lat="46.31564" lon="-1.04251">
        <ele>2.6</ele>
        <time>2020-06-02T13:02:46Z</time>
      </trkpt>
      <trkpt lat="46.31564" lon="-1.04258">
        <ele>2.6</ele>
        <time>2020-06-02T13:02:47Z</time>
      </trkpt>
      <trkpt lat="46.31565" lon="-1.04266">
        <ele>2.6</ele>
        <time>2020-06-02T13:02:48Z</time>
      </trkpt>
      <trkpt lat="46.31565" lon="-1.04273">
        <ele>2.6</ele>
        <time>2020-06-02T13:02:49Z</time>
      </trkpt>
      <trkpt lat="46.31565" lon="-1.0428">
        <ele>2.6</ele>
        <time>2020-06-02T13:02:50Z</time>
      </trkpt>
      <trkpt lat="46.31566" lon="-1.04286">
        <ele>2.6</ele>
        <time>2020-06-02T13:02:51Z</time>
      </trkpt>
      <trkpt lat="46.31566" lon="-1.04293">
        <ele>2.6</ele>
        <time>2020-06-02T13:02:52Z</time>
      </trkpt>
      <trkpt lat="46.31567" lon="-1.04299">
        <ele>2.6</ele>
        <time>2020-06-02T13:02:53Z</time>
      </trkpt>
      <trkpt lat="46.31568" lon="-1.04305">
        <ele>2.6</ele>
        <time>2020-06-02T13:02:54Z</time>
      </trkpt>
      <trkpt lat="46.31568" lon="-1.04312">
        <ele>2.6</ele>
        <time>2020-06-02T13:02:55Z</time>
      </trkpt>
      <trkpt lat="46.31568" lon="-1.04319">
        <ele>2.6</ele>
        <time>2020-06-02T13:02:56Z</time>
      </trkpt>
      <trkpt lat="46.31569" lon="-1.04327">
        <ele>2.6</ele>
        <time>2020-06-02T13:02:57Z</time>
      </trkpt>
      <trkpt lat="46.31569" lon="-1.04333">
        <ele>2.6</ele>
        <time>2020-06-02T13:02:58Z</time>
      </trkpt>
      <trkpt lat="46.31569" lon="-1.04339">
        <ele>2.6</ele>
        <time>2020-06-02T13:02:59Z</time>
      </trkpt>
      <trkpt lat="46.31569" lon="-1.04345">
        <ele>2.6</ele>
        <time>2020-06-02T13:03:00Z</time>
      </trkpt>
      <trkpt lat="46.3157" lon="-1.04351">
        <ele>2.6</ele>
        <time>2020-06-02T13:03:01Z</time>
      </trkpt>
      <trkpt lat="46.3157" lon="-1.04356">
        <ele>2.6</ele>
        <time>2020-06-02T13:03:02Z</time>
      </trkpt>
      <trkpt lat="46.3157" lon="-1.04362">
        <ele>2.6</ele>
        <time>2020-06-02T13:03:03Z</time>
      </trkpt>
      <trkpt lat="46.31571" lon="-1.04368">
        <ele>2.6</ele>
        <time>2020-06-02T13:03:04Z</time>
      </trkpt>
      <trkpt lat="46.31571" lon="-1.04375">
        <ele>2.6</ele>
        <time>2020-06-02T13:03:05Z</time>
      </trkpt>
      <trkpt lat="46.31571" lon="-1.04382">
        <ele>2.6</ele>
        <time>2020-06-02T13:03:06Z</time>
      </trkpt>
      <trkpt lat="46.31571" lon="-1.04388">
        <ele>2.6</ele>
        <time>2020-06-02T13:03:07Z</time>
      </trkpt>
      <trkpt lat="46.31571" lon="-1.04394">
        <ele>2.6</ele>
        <time>2020-06-02T13:03:08Z</time>
      </trkpt>
      <trkpt lat="46.31572" lon="-1.04401">
        <ele>2.6</ele>
        <time>2020-06-02T13:03:09Z</time>
      </trkpt>
      <trkpt lat="46.31572" lon="-1.04408">
        <ele>2.6</ele>
        <time>2020-06-02T13:03:10Z</time>
      </trkpt>
      <trkpt lat="46.31573" lon="-1.04415">
        <ele>2.6</ele>
        <time>2020-06-02T13:03:11Z</time>
      </trkpt>
      <trkpt lat="46.31574" lon="-1.04422">
        <ele>2.6</ele>
        <time>2020-06-02T13:03:12Z</time>
      </trkpt>
      <trkpt lat="46.31574" lon="-1.04429">
        <ele>2.6</ele>
        <time>2020-06-02T13:03:13Z</time>
      </trkpt>
      <trkpt lat="46.31575" lon="-1.04435">
        <ele>2.6</ele>
        <time>2020-06-02T13:03:14Z</time>
      </trkpt>
      <trkpt lat="46.31576" lon="-1.04442">
        <ele>2.6</ele>
        <time>2020-06-02T13:03:15Z</time>
      </trkpt>
      <trkpt lat="46.31576" lon="-1.04449">
        <ele>2.6</ele>
        <time>2020-06-02T13:03:16Z</time>
      </trkpt>
      <trkpt lat="46.31577" lon="-1.04455">
        <ele>2.6</ele>
        <time>2020-06-02T13:03:17Z</time>
      </trkpt>
      <trkpt lat="46.31577" lon="-1.04462">
        <ele>2.6</ele>
        <time>2020-06-02T13:03:18Z</time>
      </trkpt>
      <trkpt lat="46.31578" lon="-1.04468">
        <ele>2.6</ele>
        <time>2020-06-02T13:03:19Z</time>
      </trkpt>
      <trkpt lat="46.31578" lon="-1.04475">
        <ele>2.6</ele>
        <time>2020-06-02T13:03:20Z</time>
      </trkpt>
      <trkpt lat="46.31578" lon="-1.0448">
        <ele>2.6</ele>
        <time>2020-06-02T13:03:21Z</time>
      </trkpt>
      <trkpt lat="46.31579" lon="-1.04486">
        <ele>2.6</ele>
        <time>2020-06-02T13:03:22Z</time>
      </trkpt>
      <trkpt lat="46.31579" lon="-1.04492">
        <ele>2.6</ele>
        <time>2020-06-02T13:03:23Z</time>
      </trkpt>
      <trkpt lat="46.31579" lon="-1.04499">
        <ele>2.6</ele>
        <time>2020-06-02T13:03:24Z</time>
      </trkpt>
      <trkpt lat="46.31579" lon="-1.04505">
        <ele>2.6</ele>
        <time>2020-06-02T13:03:25Z</time>
      </trkpt>
      <trkpt lat="46.3158" lon="-1.04511">
        <ele>2.6</ele>
        <time>2020-06-02T13:03:26Z</time>
      </trkpt>
      <trkpt lat="46.3158" lon="-1.04519">
        <ele>2.6</ele>
        <time>2020-06-02T13:03:27Z</time>
      </trkpt>
      <trkpt lat="46.31581" lon="-1.04526">
        <ele>2.6</ele>
        <time>2020-06-02T13:03:28Z</time>
      </trkpt>
      <trkpt lat="46.31581" lon="-1.04533">
        <ele>2.6</ele>
        <time>2020-06-02T13:03:29Z</time>
      </trkpt>
      <trkpt lat="46.31581" lon="-1.0454">
        <ele>2.6</ele>
        <time>2020-06-02T13:03:30Z</time>
      </trkpt>
      <trkpt lat="46.31581" lon="-1.04547">
        <ele>2.6</ele>
        <time>2020-06-02T13:03:31Z</time>
      </trkpt>
      <trkpt lat="46.31581" lon="-1.04553">
        <ele>2.6</ele>
        <time>2020-06-02T13:03:32Z</time>
      </trkpt>
      <trkpt lat="46.31581" lon="-1.04559">
        <ele>2.6</ele>
        <time>2020-06-02T13:03:33Z</time>
      </trkpt>
      <trkpt lat="46.31581" lon="-1.04566">
        <ele>2.6</ele>
        <time>2020-06-02T13:03:34Z</time>
      </trkpt>
      <trkpt lat="46.31582" lon="-1.04573">
        <ele>2.6</ele>
        <time>2020-06-02T13:03:35Z</time>
      </trkpt>
      <trkpt lat="46.31582" lon="-1.0458">
        <ele>2.6</ele>
        <time>2020-06-02T13:03:36Z</time>
      </trkpt>
      <trkpt lat="46.31583" lon="-1.04588">
        <ele>2.6</ele>
        <time>2020-06-02T13:03:37Z</time>
      </trkpt>
      <trkpt lat="46.31584" lon="-1.04596">
        <ele>2.5</ele>
        <time>2020-06-02T13:03:38Z</time>
      </trkpt>
      <trkpt lat="46.31584" lon="-1.04602">
        <ele>2.5</ele>
        <time>2020-06-02T13:03:39Z</time>
      </trkpt>
      <trkpt lat="46.31585" lon="-1.04609">
        <ele>2.5</ele>
        <time>2020-06-02T13:03:40Z</time>
      </trkpt>
      <trkpt lat="46.31586" lon="-1.04617">
        <ele>2.5</ele>
        <time>2020-06-02T13:03:41Z</time>
      </trkpt>
      <trkpt lat="46.31586" lon="-1.04623">
        <ele>2.5</ele>
        <time>2020-06-02T13:03:42Z</time>
      </trkpt>
      <trkpt lat="46.31586" lon="-1.04631">
        <ele>2.5</ele>
        <time>2020-06-02T13:03:43Z</time>
      </trkpt>
      <trkpt lat="46.31586" lon="-1.04636">
        <ele>2.5</ele>
        <time>2020-06-02T13:03:44Z</time>
      </trkpt>
      <trkpt lat="46.31587" lon="-1.04642">
        <ele>2.5</ele>
        <time>2020-06-02T13:03:45Z</time>
      </trkpt>
      <trkpt lat="46.31587" lon="-1.04647">
        <ele>2.5</ele>
        <time>2020-06-02T13:03:46Z</time>
      </trkpt>
      <trkpt lat="46.31587" lon="-1.04654">
        <ele>2.5</ele>
        <time>2020-06-02T13:03:47Z</time>
      </trkpt>
      <trkpt lat="46.31587" lon="-1.04661">
        <ele>2.5</ele>
        <time>2020-06-02T13:03:48Z</time>
      </trkpt>
      <trkpt lat="46.31588" lon="-1.04668">
        <ele>2.5</ele>
        <time>2020-06-02T13:03:49Z</time>
      </trkpt>
      <trkpt lat="46.31589" lon="-1.04676">
        <ele>2.6</ele>
        <time>2020-06-02T13:03:50Z</time>
      </trkpt>
      <trkpt lat="46.3159" lon="-1.04683">
        <ele>2.6</ele>
        <time>2020-06-02T13:03:51Z</time>
      </trkpt>
      <trkpt lat="46.31592" lon="-1.0469">
        <ele>2.6</ele>
        <time>2020-06-02T13:03:52Z</time>
      </trkpt>
      <trkpt lat="46.31593" lon="-1.04696">
        <ele>2.6</ele>
        <time>2020-06-02T13:03:53Z</time>
      </trkpt>
      <trkpt lat="46.31594" lon="-1.04703">
        <ele>2.6</ele>
        <time>2020-06-02T13:03:54Z</time>
      </trkpt>
      <trkpt lat="46.31595" lon="-1.0471">
        <ele>2.5</ele>
        <time>2020-06-02T13:03:55Z</time>
      </trkpt>
      <trkpt lat="46.31596" lon="-1.04718">
        <ele>2.5</ele>
        <time>2020-06-02T13:03:56Z</time>
      </trkpt>
      <trkpt lat="46.31597" lon="-1.04725">
        <ele>2.5</ele>
        <time>2020-06-02T13:03:57Z</time>
      </trkpt>
      <trkpt lat="46.31598" lon="-1.04733">
        <ele>2.5</ele>
        <time>2020-06-02T13:03:58Z</time>
      </trkpt>
      <trkpt lat="46.31598" lon="-1.0474">
        <ele>2.5</ele>
        <time>2020-06-02T13:03:59Z</time>
      </trkpt>
      <trkpt lat="46.31599" lon="-1.04747">
        <ele>2.5</ele>
        <time>2020-06-02T13:04:00Z</time>
      </trkpt>
      <trkpt lat="46.31599" lon="-1.04754">
        <ele>2.5</ele>
        <time>2020-06-02T13:04:01Z</time>
      </trkpt>
      <trkpt lat="46.31599" lon="-1.04761">
        <ele>2.5</ele>
        <time>2020-06-02T13:04:02Z</time>
      </trkpt>
      <trkpt lat="46.31599" lon="-1.04767">
        <ele>2.5</ele>
        <time>2020-06-02T13:04:03Z</time>
      </trkpt>
      <trkpt lat="46.31599" lon="-1.04774">
        <ele>2.5</ele>
        <time>2020-06-02T13:04:04Z</time>
      </trkpt>
      <trkpt lat="46.31599" lon="-1.04781">
        <ele>2.5</ele>
        <time>2020-06-02T13:04:05Z</time>
      </trkpt>
      <trkpt lat="46.31599" lon="-1.04787">
        <ele>2.5</ele>
        <time>2020-06-02T13:04:06Z</time>
      </trkpt>
      <trkpt lat="46.316" lon="-1.04794">
        <ele>2.5</ele>
        <time>2020-06-02T13:04:07Z</time>
      </trkpt>
      <trkpt lat="46.31599" lon="-1.04801">
        <ele>2.5</ele>
        <time>2020-06-02T13:04:08Z</time>
      </trkpt>
      <trkpt lat="46.316" lon="-1.04809">
        <ele>2.5</ele>
        <time>2020-06-02T13:04:09Z</time>
      </trkpt>
      <trkpt lat="46.316" lon="-1.04816">
        <ele>2.5</ele>
        <time>2020-06-02T13:04:10Z</time>
      </trkpt>
      <trkpt lat="46.316" lon="-1.04822">
        <ele>2.4</ele>
        <time>2020-06-02T13:04:11Z</time>
      </trkpt>
      <trkpt lat="46.31601" lon="-1.04829">
        <ele>2.4</ele>
        <time>2020-06-02T13:04:12Z</time>
      </trkpt>
      <trkpt lat="46.31602" lon="-1.04835">
        <ele>2.4</ele>
        <time>2020-06-02T13:04:13Z</time>
      </trkpt>
      <trkpt lat="46.31602" lon="-1.04842">
        <ele>2.4</ele>
        <time>2020-06-02T13:04:14Z</time>
      </trkpt>
      <trkpt lat="46.31603" lon="-1.04849">
        <ele>2.4</ele>
        <time>2020-06-02T13:04:15Z</time>
      </trkpt>
      <trkpt lat="46.31603" lon="-1.04856">
        <ele>2.4</ele>
        <time>2020-06-02T13:04:16Z</time>
      </trkpt>
      <trkpt lat="46.31604" lon="-1.04863">
        <ele>2.4</ele>
        <time>2020-06-02T13:04:17Z</time>
      </trkpt>
      <trkpt lat="46.31605" lon="-1.0487">
        <ele>2.4</ele>
        <time>2020-06-02T13:04:18Z</time>
      </trkpt>
      <trkpt lat="46.31606" lon="-1.04877">
        <ele>2.4</ele>
        <time>2020-06-02T13:04:19Z</time>
      </trkpt>
      <trkpt lat="46.31607" lon="-1.04885">
        <ele>2.4</ele>
        <time>2020-06-02T13:04:20Z</time>
      </trkpt>
      <trkpt lat="46.31607" lon="-1.04892">
        <ele>2.4</ele>
        <time>2020-06-02T13:04:21Z</time>
      </trkpt>
      <trkpt lat="46.31608" lon="-1.04901">
        <ele>2.4</ele>
        <time>2020-06-02T13:04:22Z</time>
      </trkpt>
      <trkpt lat="46.31607" lon="-1.0491">
        <ele>2.3</ele>
        <time>2020-06-02T13:04:23Z</time>
      </trkpt>
      <trkpt lat="46.31607" lon="-1.04918">
        <ele>2.3</ele>
        <time>2020-06-02T13:04:24Z</time>
      </trkpt>
      <trkpt lat="46.31607" lon="-1.04925">
        <ele>2.3</ele>
        <time>2020-06-02T13:04:25Z</time>
      </trkpt>
      <trkpt lat="46.31608" lon="-1.04932">
        <ele>2.3</ele>
        <time>2020-06-02T13:04:26Z</time>
      </trkpt>
      <trkpt lat="46.31609" lon="-1.0494">
        <ele>2.3</ele>
        <time>2020-06-02T13:04:27Z</time>
      </trkpt>
      <trkpt lat="46.31609" lon="-1.04947">
        <ele>2.3</ele>
        <time>2020-06-02T13:04:28Z</time>
      </trkpt>
      <trkpt lat="46.3161" lon="-1.04954">
        <ele>2.3</ele>
        <time>2020-06-02T13:04:29Z</time>
      </trkpt>
      <trkpt lat="46.31611" lon="-1.04961">
        <ele>2.3</ele>
        <time>2020-06-02T13:04:30Z</time>
      </trkpt>
      <trkpt lat="46.31611" lon="-1.04968">
        <ele>2.3</ele>
        <time>2020-06-02T13:04:31Z</time>
      </trkpt>
      <trkpt lat="46.31611" lon="-1.04975">
        <ele>2.3</ele>
        <time>2020-06-02T13:04:32Z</time>
      </trkpt>
      <trkpt lat="46.31611" lon="-1.04981">
        <ele>2.3</ele>
        <time>2020-06-02T13:04:33Z</time>
      </trkpt>
      <trkpt lat="46.31611" lon="-1.04987">
        <ele>2.3</ele>
        <time>2020-06-02T13:04:34Z</time>
      </trkpt>
      <trkpt lat="46.31611" lon="-1.04994">
        <ele>2.3</ele>
        <time>2020-06-02T13:04:35Z</time>
      </trkpt>
      <trkpt lat="46.31612" lon="-1.05001">
        <ele>2.3</ele>
        <time>2020-06-02T13:04:36Z</time>
      </trkpt>
      <trkpt lat="46.31612" lon="-1.05008">
        <ele>2.4</ele>
        <time>2020-06-02T13:04:37Z</time>
      </trkpt>
      <trkpt lat="46.31612" lon="-1.05015">
        <ele>2.4</ele>
        <time>2020-06-02T13:04:38Z</time>
      </trkpt>
      <trkpt lat="46.31612" lon="-1.05023">
        <ele>2.4</ele>
        <time>2020-06-02T13:04:39Z</time>
      </trkpt>
      <trkpt lat="46.31612" lon="-1.0503">
        <ele>2.4</ele>
        <time>2020-06-02T13:04:40Z</time>
      </trkpt>
      <trkpt lat="46.31612" lon="-1.05037">
        <ele>2.4</ele>
        <time>2020-06-02T13:04:41Z</time>
      </trkpt>
      <trkpt lat="46.31612" lon="-1.05044">
        <ele>2.4</ele>
        <time>2020-06-02T13:04:42Z</time>
      </trkpt>
      <trkpt lat="46.31613" lon="-1.05051">
        <ele>2.4</ele>
        <time>2020-06-02T13:04:43Z</time>
      </trkpt>
      <trkpt lat="46.31613" lon="-1.05058">
        <ele>2.4</ele>
        <time>2020-06-02T13:04:44Z</time>
      </trkpt>
      <trkpt lat="46.31613" lon="-1.05064">
        <ele>2.4</ele>
        <time>2020-06-02T13:04:45Z</time>
      </trkpt>
      <trkpt lat="46.31613" lon="-1.0507">
        <ele>2.4</ele>
        <time>2020-06-02T13:04:46Z</time>
      </trkpt>
      <trkpt lat="46.31613" lon="-1.05076">
        <ele>2.4</ele>
        <time>2020-06-02T13:04:47Z</time>
      </trkpt>
      <trkpt lat="46.31613" lon="-1.05082">
        <ele>2.4</ele>
        <time>2020-06-02T13:04:48Z</time>
      </trkpt>
      <trkpt lat="46.31613" lon="-1.05088">
        <ele>2.4</ele>
        <time>2020-06-02T13:04:49Z</time>
      </trkpt>
      <trkpt lat="46.31615" lon="-1.05094">
        <ele>2.4</ele>
        <time>2020-06-02T13:04:50Z</time>
      </trkpt>
      <trkpt lat="46.31616" lon="-1.05101">
        <ele>2.4</ele>
        <time>2020-06-02T13:04:51Z</time>
      </trkpt>
      <trkpt lat="46.31617" lon="-1.05108">
        <ele>2.5</ele>
        <time>2020-06-02T13:04:52Z</time>
      </trkpt>
      <trkpt lat="46.31618" lon="-1.05115">
        <ele>2.5</ele>
        <time>2020-06-02T13:04:53Z</time>
      </trkpt>
      <trkpt lat="46.31618" lon="-1.05122">
        <ele>2.5</ele>
        <time>2020-06-02T13:04:54Z</time>
      </trkpt>
      <trkpt lat="46.31619" lon="-1.0513">
        <ele>2.5</ele>
        <time>2020-06-02T13:04:55Z</time>
      </trkpt>
      <trkpt lat="46.3162" lon="-1.05137">
        <ele>2.4</ele>
        <time>2020-06-02T13:04:56Z</time>
      </trkpt>
      <trkpt lat="46.31621" lon="-1.05144">
        <ele>2.4</ele>
        <time>2020-06-02T13:04:57Z</time>
      </trkpt>
      <trkpt lat="46.31621" lon="-1.05151">
        <ele>2.4</ele>
        <time>2020-06-02T13:04:58Z</time>
      </trkpt>
      <trkpt lat="46.31622" lon="-1.05159">
        <ele>2.4</ele>
        <time>2020-06-02T13:04:59Z</time>
      </trkpt>
      <trkpt lat="46.31622" lon="-1.05166">
        <ele>2.4</ele>
        <time>2020-06-02T13:05:00Z</time>
      </trkpt>
      <trkpt lat="46.31623" lon="-1.05173">
        <ele>2.4</ele>
        <time>2020-06-02T13:05:01Z</time>
      </trkpt>
      <trkpt lat="46.31623" lon="-1.05181">
        <ele>2.4</ele>
        <time>2020-06-02T13:05:02Z</time>
      </trkpt>
      <trkpt lat="46.31623" lon="-1.05187">
        <ele>2.4</ele>
        <time>2020-06-02T13:05:03Z</time>
      </trkpt>
      <trkpt lat="46.31623" lon="-1.05194">
        <ele>2.4</ele>
        <time>2020-06-02T13:05:04Z</time>
      </trkpt>
      <trkpt lat="46.31623" lon="-1.052">
        <ele>2.4</ele>
        <time>2020-06-02T13:05:05Z</time>
      </trkpt>
      <trkpt lat="46.31624" lon="-1.05207">
        <ele>2.4</ele>
        <time>2020-06-02T13:05:06Z</time>
      </trkpt>
      <trkpt lat="46.31625" lon="-1.05215">
        <ele>2.4</ele>
        <time>2020-06-02T13:05:07Z</time>
      </trkpt>
      <trkpt lat="46.31624" lon="-1.05223">
        <ele>2.4</ele>
        <time>2020-06-02T13:05:08Z</time>
      </trkpt>
      <trkpt lat="46.31625" lon="-1.05231">
        <ele>2.4</ele>
        <time>2020-06-02T13:05:09Z</time>
      </trkpt>
      <trkpt lat="46.31625" lon="-1.05239">
        <ele>2.4</ele>
        <time>2020-06-02T13:05:10Z</time>
      </trkpt>
      <trkpt lat="46.31626" lon="-1.05246">
        <ele>2.4</ele>
        <time>2020-06-02T13:05:11Z</time>
      </trkpt>
      <trkpt lat="46.31626" lon="-1.05254">
        <ele>2.4</ele>
        <time>2020-06-02T13:05:12Z</time>
      </trkpt>
      <trkpt lat="46.31627" lon="-1.0526">
        <ele>2.4</ele>
        <time>2020-06-02T13:05:13Z</time>
      </trkpt>
      <trkpt lat="46.31628" lon="-1.05267">
        <ele>2.4</ele>
        <time>2020-06-02T13:05:14Z</time>
      </trkpt>
      <trkpt lat="46.31629" lon="-1.05273">
        <ele>2.4</ele>
        <time>2020-06-02T13:05:15Z</time>
      </trkpt>
      <trkpt lat="46.3163" lon="-1.05281">
        <ele>2.4</ele>
        <time>2020-06-02T13:05:16Z</time>
      </trkpt>
      <trkpt lat="46.3163" lon="-1.05288">
        <ele>2.4</ele>
        <time>2020-06-02T13:05:17Z</time>
      </trkpt>
      <trkpt lat="46.3163" lon="-1.05295">
        <ele>2.4</ele>
        <time>2020-06-02T13:05:18Z</time>
      </trkpt>
      <trkpt lat="46.3163" lon="-1.05302">
        <ele>2.4</ele>
        <time>2020-06-02T13:05:19Z</time>
      </trkpt>
      <trkpt lat="46.3163" lon="-1.05309">
        <ele>2.4</ele>
        <time>2020-06-02T13:05:20Z</time>
      </trkpt>
      <trkpt lat="46.31631" lon="-1.05316">
        <ele>2.4</ele>
        <time>2020-06-02T13:05:21Z</time>
      </trkpt>
      <trkpt lat="46.31632" lon="-1.05323">
        <ele>2.3</ele>
        <time>2020-06-02T13:05:22Z</time>
      </trkpt>
      <trkpt lat="46.31632" lon="-1.0533">
        <ele>2.3</ele>
        <time>2020-06-02T13:05:23Z</time>
      </trkpt>
      <trkpt lat="46.31632" lon="-1.05337">
        <ele>2.3</ele>
        <time>2020-06-02T13:05:24Z</time>
      </trkpt>
      <trkpt lat="46.31632" lon="-1.05344">
        <ele>2.3</ele>
        <time>2020-06-02T13:05:25Z</time>
      </trkpt>
      <trkpt lat="46.31632" lon="-1.05351">
        <ele>2.3</ele>
        <time>2020-06-02T13:05:26Z</time>
      </trkpt>
      <trkpt lat="46.31633" lon="-1.05357">
        <ele>2.4</ele>
        <time>2020-06-02T13:05:27Z</time>
      </trkpt>
      <trkpt lat="46.31635" lon="-1.05364">
        <ele>2.4</ele>
        <time>2020-06-02T13:05:28Z</time>
      </trkpt>
      <trkpt lat="46.31636" lon="-1.0537">
        <ele>2.4</ele>
        <time>2020-06-02T13:05:29Z</time>
      </trkpt>
      <trkpt lat="46.31637" lon="-1.05377">
        <ele>2.4</ele>
        <time>2020-06-02T13:05:30Z</time>
      </trkpt>
      <trkpt lat="46.31637" lon="-1.05384">
        <ele>2.4</ele>
        <time>2020-06-02T13:05:31Z</time>
      </trkpt>
      <trkpt lat="46.31637" lon="-1.0539">
        <ele>2.4</ele>
        <time>2020-06-02T13:05:32Z</time>
      </trkpt>
      <trkpt lat="46.31638" lon="-1.05398">
        <ele>2.4</ele>
        <time>2020-06-02T13:05:33Z</time>
      </trkpt>
      <trkpt lat="46.31639" lon="-1.05405">
        <ele>2.4</ele>
        <time>2020-06-02T13:05:34Z</time>
      </trkpt>
      <trkpt lat="46.31639" lon="-1.05412">
        <ele>2.4</ele>
        <time>2020-06-02T13:05:35Z</time>
      </trkpt>
      <trkpt lat="46.31639" lon="-1.05419">
        <ele>2.4</ele>
        <time>2020-06-02T13:05:36Z</time>
      </trkpt>
      <trkpt lat="46.3164" lon="-1.05427">
        <ele>2.4</ele>
        <time>2020-06-02T13:05:37Z</time>
      </trkpt>
      <trkpt lat="46.31642" lon="-1.05435">
        <ele>2.4</ele>
        <time>2020-06-02T13:05:38Z</time>
      </trkpt>
      <trkpt lat="46.31642" lon="-1.05442">
        <ele>2.4</ele>
        <time>2020-06-02T13:05:39Z</time>
      </trkpt>
      <trkpt lat="46.31641" lon="-1.05448">
        <ele>2.4</ele>
        <time>2020-06-02T13:05:40Z</time>
      </trkpt>
      <trkpt lat="46.31642" lon="-1.05455">
        <ele>2.4</ele>
        <time>2020-06-02T13:05:41Z</time>
      </trkpt>
      <trkpt lat="46.31642" lon="-1.05461">
        <ele>2.4</ele>
        <time>2020-06-02T13:05:42Z</time>
      </trkpt>
      <trkpt lat="46.31642" lon="-1.05467">
        <ele>2.4</ele>
        <time>2020-06-02T13:05:43Z</time>
      </trkpt>
      <trkpt lat="46.31642" lon="-1.05472">
        <ele>2.4</ele>
        <time>2020-06-02T13:05:44Z</time>
      </trkpt>
      <trkpt lat="46.31643" lon="-1.05478">
        <ele>2.4</ele>
        <time>2020-06-02T13:05:45Z</time>
      </trkpt>
      <trkpt lat="46.31643" lon="-1.05484">
        <ele>2.4</ele>
        <time>2020-06-02T13:05:46Z</time>
      </trkpt>
      <trkpt lat="46.31644" lon="-1.0549">
        <ele>2.4</ele>
        <time>2020-06-02T13:05:47Z</time>
      </trkpt>
      <trkpt lat="46.31644" lon="-1.05495">
        <ele>2.4</ele>
        <time>2020-06-02T13:05:48Z</time>
      </trkpt>
      <trkpt lat="46.31645" lon="-1.05501">
        <ele>2.4</ele>
        <time>2020-06-02T13:05:49Z</time>
      </trkpt>
      <trkpt lat="46.31645" lon="-1.05507">
        <ele>2.4</ele>
        <time>2020-06-02T13:05:50Z</time>
      </trkpt>
      <trkpt lat="46.31646" lon="-1.05512">
        <ele>2.4</ele>
        <time>2020-06-02T13:05:51Z</time>
      </trkpt>
      <trkpt lat="46.31646" lon="-1.05518">
        <ele>2.4</ele>
        <time>2020-06-02T13:05:52Z</time>
      </trkpt>
      <trkpt lat="46.31646" lon="-1.05523">
        <ele>2.5</ele>
        <time>2020-06-02T13:05:53Z</time>
      </trkpt>
      <trkpt lat="46.31646" lon="-1.05528">
        <ele>2.5</ele>
        <time>2020-06-02T13:05:54Z</time>
      </trkpt>
      <trkpt lat="46.31646" lon="-1.05533">
        <ele>2.5</ele>
        <time>2020-06-02T13:05:55Z</time>
      </trkpt>
      <trkpt lat="46.31646" lon="-1.05539">
        <ele>2.5</ele>
        <time>2020-06-02T13:05:56Z</time>
      </trkpt>
      <trkpt lat="46.31646" lon="-1.05544">
        <ele>2.5</ele>
        <time>2020-06-02T13:05:57Z</time>
      </trkpt>
      <trkpt lat="46.31647" lon="-1.05549">
        <ele>2.5</ele>
        <time>2020-06-02T13:05:58Z</time>
      </trkpt>
      <trkpt lat="46.31647" lon="-1.05554">
        <ele>2.5</ele>
        <time>2020-06-02T13:05:59Z</time>
      </trkpt>
      <trkpt lat="46.31647" lon="-1.05559">
        <ele>2.5</ele>
        <time>2020-06-02T13:06:00Z</time>
      </trkpt>
      <trkpt lat="46.31647" lon="-1.05564">
        <ele>2.5</ele>
        <time>2020-06-02T13:06:01Z</time>
      </trkpt>
      <trkpt lat="46.31648" lon="-1.05569">
        <ele>2.5</ele>
        <time>2020-06-02T13:06:02Z</time>
      </trkpt>
      <trkpt lat="46.31648" lon="-1.05574">
        <ele>2.5</ele>
        <time>2020-06-02T13:06:03Z</time>
      </trkpt>
      <trkpt lat="46.31648" lon="-1.05579">
        <ele>2.5</ele>
        <time>2020-06-02T13:06:04Z</time>
      </trkpt>
      <trkpt lat="46.31648" lon="-1.05585">
        <ele>2.4</ele>
        <time>2020-06-02T13:06:05Z</time>
      </trkpt>
      <trkpt lat="46.31648" lon="-1.05591">
        <ele>2.4</ele>
        <time>2020-06-02T13:06:06Z</time>
      </trkpt>
      <trkpt lat="46.31649" lon="-1.05597">
        <ele>2.4</ele>
        <time>2020-06-02T13:06:07Z</time>
      </trkpt>
      <trkpt lat="46.31648" lon="-1.05603">
        <ele>2.4</ele>
        <time>2020-06-02T13:06:08Z</time>
      </trkpt>
      <trkpt lat="46.31648" lon="-1.05609">
        <ele>2.4</ele>
        <time>2020-06-02T13:06:09Z</time>
      </trkpt>
      <trkpt lat="46.31648" lon="-1.05614">
        <ele>2.4</ele>
        <time>2020-06-02T13:06:10Z</time>
      </trkpt>
      <trkpt lat="46.31649" lon="-1.0562">
        <ele>2.4</ele>
        <time>2020-06-02T13:06:11Z</time>
      </trkpt>
      <trkpt lat="46.31649" lon="-1.05626">
        <ele>2.4</ele>
        <time>2020-06-02T13:06:12Z</time>
      </trkpt>
      <trkpt lat="46.3165" lon="-1.05633">
        <ele>2.4</ele>
        <time>2020-06-02T13:06:13Z</time>
      </trkpt>
      <trkpt lat="46.31651" lon="-1.05639">
        <ele>2.4</ele>
        <time>2020-06-02T13:06:14Z</time>
      </trkpt>
      <trkpt lat="46.31652" lon="-1.05646">
        <ele>2.4</ele>
        <time>2020-06-02T13:06:15Z</time>
      </trkpt>
      <trkpt lat="46.31652" lon="-1.05652">
        <ele>2.4</ele>
        <time>2020-06-02T13:06:16Z</time>
      </trkpt>
      <trkpt lat="46.31652" lon="-1.05659">
        <ele>2.4</ele>
        <time>2020-06-02T13:06:17Z</time>
      </trkpt>
      <trkpt lat="46.31653" lon="-1.05666">
        <ele>2.5</ele>
        <time>2020-06-02T13:06:18Z</time>
      </trkpt>
      <trkpt lat="46.31653" lon="-1.05673">
        <ele>2.5</ele>
        <time>2020-06-02T13:06:19Z</time>
      </trkpt>
      <trkpt lat="46.31654" lon="-1.0568">
        <ele>2.5</ele>
        <time>2020-06-02T13:06:20Z</time>
      </trkpt>
      <trkpt lat="46.31655" lon="-1.05687">
        <ele>2.5</ele>
        <time>2020-06-02T13:06:21Z</time>
      </trkpt>
      <trkpt lat="46.31656" lon="-1.05693">
        <ele>2.5</ele>
        <time>2020-06-02T13:06:22Z</time>
      </trkpt>
      <trkpt lat="46.31656" lon="-1.057">
        <ele>2.5</ele>
        <time>2020-06-02T13:06:23Z</time>
      </trkpt>
      <trkpt lat="46.31656" lon="-1.05707">
        <ele>2.5</ele>
        <time>2020-06-02T13:06:24Z</time>
      </trkpt>
      <trkpt lat="46.31656" lon="-1.05713">
        <ele>2.5</ele>
        <time>2020-06-02T13:06:25Z</time>
      </trkpt>
      <trkpt lat="46.31656" lon="-1.0572">
        <ele>2.5</ele>
        <time>2020-06-02T13:06:26Z</time>
      </trkpt>
      <trkpt lat="46.31656" lon="-1.05726">
        <ele>2.5</ele>
        <time>2020-06-02T13:06:27Z</time>
      </trkpt>
      <trkpt lat="46.31657" lon="-1.05733">
        <ele>2.5</ele>
        <time>2020-06-02T13:06:28Z</time>
      </trkpt>
      <trkpt lat="46.31657" lon="-1.0574">
        <ele>2.5</ele>
        <time>2020-06-02T13:06:29Z</time>
      </trkpt>
      <trkpt lat="46.31657" lon="-1.05747">
        <ele>2.5</ele>
        <time>2020-06-02T13:06:30Z</time>
      </trkpt>
      <trkpt lat="46.31657" lon="-1.05753">
        <ele>2.5</ele>
        <time>2020-06-02T13:06:31Z</time>
      </trkpt>
      <trkpt lat="46.31658" lon="-1.05759">
        <ele>2.5</ele>
        <time>2020-06-02T13:06:32Z</time>
      </trkpt>
      <trkpt lat="46.31658" lon="-1.05766">
        <ele>2.5</ele>
        <time>2020-06-02T13:06:33Z</time>
      </trkpt>
      <trkpt lat="46.31659" lon="-1.05774">
        <ele>2.5</ele>
        <time>2020-06-02T13:06:34Z</time>
      </trkpt>
      <trkpt lat="46.3166" lon="-1.0578">
        <ele>2.5</ele>
        <time>2020-06-02T13:06:35Z</time>
      </trkpt>
      <trkpt lat="46.31661" lon="-1.05788">
        <ele>2.5</ele>
        <time>2020-06-02T13:06:36Z</time>
      </trkpt>
      <trkpt lat="46.31662" lon="-1.05794">
        <ele>2.5</ele>
        <time>2020-06-02T13:06:37Z</time>
      </trkpt>
      <trkpt lat="46.31663" lon="-1.05801">
        <ele>2.5</ele>
        <time>2020-06-02T13:06:38Z</time>
      </trkpt>
      <trkpt lat="46.31663" lon="-1.05808">
        <ele>2.5</ele>
        <time>2020-06-02T13:06:39Z</time>
      </trkpt>
      <trkpt lat="46.31663" lon="-1.05816">
        <ele>2.5</ele>
        <time>2020-06-02T13:06:40Z</time>
      </trkpt>
      <trkpt lat="46.31664" lon="-1.05824">
        <ele>2.5</ele>
        <time>2020-06-02T13:06:41Z</time>
      </trkpt>
      <trkpt lat="46.31665" lon="-1.05832">
        <ele>2.5</ele>
        <time>2020-06-02T13:06:42Z</time>
      </trkpt>
      <trkpt lat="46.31665" lon="-1.05839">
        <ele>2.5</ele>
        <time>2020-06-02T13:06:43Z</time>
      </trkpt>
      <trkpt lat="46.31665" lon="-1.05845">
        <ele>2.5</ele>
        <time>2020-06-02T13:06:44Z</time>
      </trkpt>
      <trkpt lat="46.31666" lon="-1.05852">
        <ele>2.5</ele>
        <time>2020-06-02T13:06:45Z</time>
      </trkpt>
      <trkpt lat="46.31666" lon="-1.05858">
        <ele>2.5</ele>
        <time>2020-06-02T13:06:46Z</time>
      </trkpt>
      <trkpt lat="46.31667" lon="-1.05865">
        <ele>2.5</ele>
        <time>2020-06-02T13:06:47Z</time>
      </trkpt>
      <trkpt lat="46.31666" lon="-1.05873">
        <ele>2.5</ele>
        <time>2020-06-02T13:06:48Z</time>
      </trkpt>
      <trkpt lat="46.31667" lon="-1.0588">
        <ele>2.5</ele>
        <time>2020-06-02T13:06:49Z</time>
      </trkpt>
      <trkpt lat="46.31668" lon="-1.05886">
        <ele>2.5</ele>
        <time>2020-06-02T13:06:50Z</time>
      </trkpt>
      <trkpt lat="46.31668" lon="-1.05894">
        <ele>2.5</ele>
        <time>2020-06-02T13:06:51Z</time>
      </trkpt>
      <trkpt lat="46.31668" lon="-1.05901">
        <ele>2.5</ele>
        <time>2020-06-02T13:06:52Z</time>
      </trkpt>
      <trkpt lat="46.31669" lon="-1.05907">
        <ele>2.5</ele>
        <time>2020-06-02T13:06:53Z</time>
      </trkpt>
      <trkpt lat="46.3167" lon="-1.05914">
        <ele>2.5</ele>
        <time>2020-06-02T13:06:54Z</time>
      </trkpt>
      <trkpt lat="46.3167" lon="-1.05921">
        <ele>2.5</ele>
        <time>2020-06-02T13:06:55Z</time>
      </trkpt>
      <trkpt lat="46.31671" lon="-1.05928">
        <ele>2.5</ele>
        <time>2020-06-02T13:06:56Z</time>
      </trkpt>
      <trkpt lat="46.31672" lon="-1.05935">
        <ele>2.5</ele>
        <time>2020-06-02T13:06:57Z</time>
      </trkpt>
      <trkpt lat="46.31673" lon="-1.05942">
        <ele>2.5</ele>
        <time>2020-06-02T13:06:58Z</time>
      </trkpt>
      <trkpt lat="46.31673" lon="-1.05948">
        <ele>2.5</ele>
        <time>2020-06-02T13:06:59Z</time>
      </trkpt>
      <trkpt lat="46.31674" lon="-1.05955">
        <ele>2.5</ele>
        <time>2020-06-02T13:07:00Z</time>
      </trkpt>
      <trkpt lat="46.31674" lon="-1.05962">
        <ele>2.5</ele>
        <time>2020-06-02T13:07:01Z</time>
      </trkpt>
      <trkpt lat="46.31673" lon="-1.05969">
        <ele>2.5</ele>
        <time>2020-06-02T13:07:02Z</time>
      </trkpt>
      <trkpt lat="46.31673" lon="-1.05975">
        <ele>2.5</ele>
        <time>2020-06-02T13:07:03Z</time>
      </trkpt>
      <trkpt lat="46.31674" lon="-1.05981">
        <ele>2.5</ele>
        <time>2020-06-02T13:07:04Z</time>
      </trkpt>
      <trkpt lat="46.31674" lon="-1.05987">
        <ele>2.5</ele>
        <time>2020-06-02T13:07:05Z</time>
      </trkpt>
      <trkpt lat="46.31675" lon="-1.05994">
        <ele>2.5</ele>
        <time>2020-06-02T13:07:06Z</time>
      </trkpt>
      <trkpt lat="46.31675" lon="-1.06">
        <ele>2.5</ele>
        <time>2020-06-02T13:07:07Z</time>
      </trkpt>
      <trkpt lat="46.31676" lon="-1.06006">
        <ele>2.4</ele>
        <time>2020-06-02T13:07:08Z</time>
      </trkpt>
      <trkpt lat="46.31676" lon="-1.06012">
        <ele>2.4</ele>
        <time>2020-06-02T13:07:09Z</time>
      </trkpt>
      <trkpt lat="46.31677" lon="-1.06016">
        <ele>2.4</ele>
        <time>2020-06-02T13:07:10Z</time>
      </trkpt>
      <trkpt lat="46.31676" lon="-1.06021">
        <ele>2.4</ele>
        <time>2020-06-02T13:07:11Z</time>
      </trkpt>
      <trkpt lat="46.31676" lon="-1.06023">
        <ele>2.4</ele>
        <time>2020-06-02T13:07:12Z</time>
      </trkpt>
      <trkpt lat="46.31676" lon="-1.06024">
        <ele>2.4</ele>
        <time>2020-06-02T13:07:13Z</time>
      </trkpt>
      <trkpt lat="46.31676" lon="-1.06024">
        <ele>2.4</ele>
        <time>2020-06-02T13:07:14Z</time>
      </trkpt>
      <trkpt lat="46.31676" lon="-1.06023">
        <ele>2.4</ele>
        <time>2020-06-02T13:07:15Z</time>
      </trkpt>
      <trkpt lat="46.31676" lon="-1.06022">
        <ele>2.4</ele>
        <time>2020-06-02T13:07:16Z</time>
      </trkpt>
      <trkpt lat="46.31676" lon="-1.06021">
        <ele>2.4</ele>
        <time>2020-06-02T13:07:17Z</time>
      </trkpt>
      <trkpt lat="46.31676" lon="-1.06021">
        <ele>2.4</ele>
        <time>2020-06-02T13:07:18Z</time>
      </trkpt>
      <trkpt lat="46.31675" lon="-1.06021">
        <ele>2.4</ele>
        <time>2020-06-02T13:07:19Z</time>
      </trkpt>
      <trkpt lat="46.31675" lon="-1.06022">
        <ele>2.4</ele>
        <time>2020-06-02T13:07:20Z</time>
      </trkpt>
      <trkpt lat="46.31673" lon="-1.06021">
        <ele>2.4</ele>
        <time>2020-06-02T13:07:21Z</time>
      </trkpt>
      <trkpt lat="46.31672" lon="-1.06021">
        <ele>2.4</ele>
        <time>2020-06-02T13:07:22Z</time>
      </trkpt>
      <trkpt lat="46.31671" lon="-1.06021">
        <ele>2.4</ele>
        <time>2020-06-02T13:07:23Z</time>
      </trkpt>
      <trkpt lat="46.31672" lon="-1.06023">
        <ele>2.4</ele>
        <time>2020-06-02T13:07:24Z</time>
      </trkpt>
      <trkpt lat="46.31671" lon="-1.06022">
        <ele>2.4</ele>
        <time>2020-06-02T13:07:25Z</time>
      </trkpt>
      <trkpt lat="46.31671" lon="-1.06022">
        <ele>2.4</ele>
        <time>2020-06-02T13:07:26Z</time>
      </trkpt>
      <trkpt lat="46.31671" lon="-1.06022">
        <ele>2.4</ele>
        <time>2020-06-02T13:07:27Z</time>
      </trkpt>
      <trkpt lat="46.31671" lon="-1.06022">
        <ele>2.4</ele>
        <time>2020-06-02T13:07:28Z</time>
      </trkpt>
      <trkpt lat="46.31671" lon="-1.06022">
        <ele>2.4</ele>
        <time>2020-06-02T13:07:29Z</time>
      </trkpt>
      <trkpt lat="46.3167" lon="-1.06023">
        <ele>2.4</ele>
        <time>2020-06-02T13:07:30Z</time>
      </trkpt>
      <trkpt lat="46.3167" lon="-1.06023">
        <ele>2.4</ele>
        <time>2020-06-02T13:07:31Z</time>
      </trkpt>
      <trkpt lat="46.3167" lon="-1.06023">
        <ele>2.4</ele>
        <time>2020-06-02T13:07:32Z</time>
      </trkpt>
      <trkpt lat="46.3167" lon="-1.06024">
        <ele>2.4</ele>
        <time>2020-06-02T13:07:33Z</time>
      </trkpt>
      <trkpt lat="46.3167" lon="-1.06024">
        <ele>2.4</ele>
        <time>2020-06-02T13:07:34Z</time>
      </trkpt>
      <trkpt lat="46.3167" lon="-1.06024">
        <ele>2.4</ele>
        <time>2020-06-02T13:07:35Z</time>
      </trkpt>
      <trkpt lat="46.3167" lon="-1.06024">
        <ele>2.4</ele>
        <time>2020-06-02T13:07:36Z</time>
      </trkpt>
      <trkpt lat="46.3167" lon="-1.06024">
        <ele>2.4</ele>
        <time>2020-06-02T13:07:37Z</time>
      </trkpt>
      <trkpt lat="46.3167" lon="-1.06023">
        <ele>2.4</ele>
        <time>2020-06-02T13:07:38Z</time>
      </trkpt>
      <trkpt lat="46.3167" lon="-1.06023">
        <ele>2.4</ele>
        <time>2020-06-02T13:07:39Z</time>
      </trkpt>
      <trkpt lat="46.3167" lon="-1.06022">
        <ele>2.4</ele>
        <time>2020-06-02T13:07:40Z</time>
      </trkpt>
      <trkpt lat="46.3167" lon="-1.06023">
        <ele>2.4</ele>
        <time>2020-06-02T13:07:41Z</time>
      </trkpt>
      <trkpt lat="46.3167" lon="-1.06023">
        <ele>2.4</ele>
        <time>2020-06-02T13:07:42Z</time>
      </trkpt>
      <trkpt lat="46.3167" lon="-1.06024">
        <ele>2.4</ele>
        <time>2020-06-02T13:07:43Z</time>
      </trkpt>
      <trkpt lat="46.31671" lon="-1.06025">
        <ele>2.4</ele>
        <time>2020-06-02T13:07:44Z</time>
      </trkpt>
      <trkpt lat="46.31671" lon="-1.06025">
        <ele>2.4</ele>
        <time>2020-06-02T13:07:45Z</time>
      </trkpt>
      <trkpt lat="46.31671" lon="-1.06025">
        <ele>2.4</ele>
        <time>2020-06-02T13:07:46Z</time>
      </trkpt>
      <trkpt lat="46.31671" lon="-1.06024">
        <ele>2.4</ele>
        <time>2020-06-02T13:07:47Z</time>
      </trkpt>
      <trkpt lat="46.31671" lon="-1.06024">
        <ele>2.4</ele>
        <time>2020-06-02T13:07:48Z</time>
      </trkpt>
      <trkpt lat="46.31671" lon="-1.06024">
        <ele>2.4</ele>
        <time>2020-06-02T13:07:49Z</time>
      </trkpt>
      <trkpt lat="46.31671" lon="-1.06025">
        <ele>2.4</ele>
        <time>2020-06-02T13:07:50Z</time>
      </trkpt>
      <trkpt lat="46.31671" lon="-1.06025">
        <ele>2.4</ele>
        <time>2020-06-02T13:07:51Z</time>
      </trkpt>
      <trkpt lat="46.31671" lon="-1.06024">
        <ele>2.4</ele>
        <time>2020-06-02T13:07:52Z</time>
      </trkpt>
      <trkpt lat="46.31671" lon="-1.06025">
        <ele>2.4</ele>
        <time>2020-06-02T13:07:53Z</time>
      </trkpt>
      <trkpt lat="46.31671" lon="-1.06025">
        <ele>2.4</ele>
        <time>2020-06-02T13:07:54Z</time>
      </trkpt>
      <trkpt lat="46.31671" lon="-1.06025">
        <ele>2.4</ele>
        <time>2020-06-02T13:07:55Z</time>
      </trkpt>
      <trkpt lat="46.31671" lon="-1.06025">
        <ele>2.4</ele>
        <time>2020-06-02T13:07:56Z</time>
      </trkpt>
      <trkpt lat="46.31671" lon="-1.06025">
        <ele>2.4</ele>
        <time>2020-06-02T13:07:57Z</time>
      </trkpt>
      <trkpt lat="46.31671" lon="-1.06025">
        <ele>2.4</ele>
        <time>2020-06-02T13:07:58Z</time>
      </trkpt>
      <trkpt lat="46.31671" lon="-1.06025">
        <ele>2.4</ele>
        <time>2020-06-02T13:07:59Z</time>
      </trkpt>
      <trkpt lat="46.31671" lon="-1.06025">
        <ele>2.4</ele>
        <time>2020-06-02T13:08:00Z</time>
      </trkpt>
      <trkpt lat="46.31671" lon="-1.06025">
        <ele>2.4</ele>
        <time>2020-06-02T13:08:01Z</time>
      </trkpt>
      <trkpt lat="46.31671" lon="-1.06025">
        <ele>2.4</ele>
        <time>2020-06-02T13:08:02Z</time>
      </trkpt>
      <trkpt lat="46.31671" lon="-1.06025">
        <ele>2.4</ele>
        <time>2020-06-02T13:08:03Z</time>
      </trkpt>
      <trkpt lat="46.31671" lon="-1.06025">
        <ele>2.4</ele>
        <time>2020-06-02T13:08:04Z</time>
      </trkpt>
      <trkpt lat="46.31671" lon="-1.06025">
        <ele>2.4</ele>
        <time>2020-06-02T13:08:05Z</time>
      </trkpt>
      <trkpt lat="46.31671" lon="-1.06025">
        <ele>2.4</ele>
        <time>2020-06-02T13:08:06Z</time>
      </trkpt>
      <trkpt lat="46.31671" lon="-1.06025">
        <ele>2.4</ele>
        <time>2020-06-02T13:08:07Z</time>
      </trkpt>
      <trkpt lat="46.31671" lon="-1.06025">
        <ele>2.4</ele>
        <time>2020-06-02T13:08:08Z</time>
      </trkpt>
      <trkpt lat="46.31671" lon="-1.06025">
        <ele>2.4</ele>
        <time>2020-06-02T13:08:09Z</time>
      </trkpt>
      <trkpt lat="46.31671" lon="-1.06025">
        <ele>2.4</ele>
        <time>2020-06-02T13:08:10Z</time>
      </trkpt>
      <trkpt lat="46.31671" lon="-1.06025">
        <ele>2.4</ele>
        <time>2020-06-02T13:08:11Z</time>
      </trkpt>
      <trkpt lat="46.31671" lon="-1.06025">
        <ele>2.4</ele>
        <time>2020-06-02T13:08:12Z</time>
      </trkpt>
      <trkpt lat="46.31671" lon="-1.06025">
        <ele>2.4</ele>
        <time>2020-06-02T13:08:13Z</time>
      </trkpt>
      <trkpt lat="46.31671" lon="-1.06025">
        <ele>2.4</ele>
        <time>2020-06-02T13:08:14Z</time>
      </trkpt>
      <trkpt lat="46.31671" lon="-1.06025">
        <ele>2.4</ele>
        <time>2020-06-02T13:08:15Z</time>
      </trkpt>
      <trkpt lat="46.31671" lon="-1.06025">
        <ele>2.4</ele>
        <time>2020-06-02T13:08:16Z</time>
      </trkpt>
      <trkpt lat="46.31672" lon="-1.06025">
        <ele>2.4</ele>
        <time>2020-06-02T13:08:17Z</time>
      </trkpt>
      <trkpt lat="46.31672" lon="-1.06025">
        <ele>2.4</ele>
        <time>2020-06-02T13:08:18Z</time>
      </trkpt>
      <trkpt lat="46.31672" lon="-1.06024">
        <ele>2.4</ele>
        <time>2020-06-02T13:08:19Z</time>
      </trkpt>
      <trkpt lat="46.31672" lon="-1.06025">
        <ele>2.4</ele>
        <time>2020-06-02T13:08:20Z</time>
      </trkpt>
      <trkpt lat="46.31672" lon="-1.06024">
        <ele>2.4</ele>
        <time>2020-06-02T13:08:21Z</time>
      </trkpt>
      <trkpt lat="46.31672" lon="-1.06024">
        <ele>2.4</ele>
        <time>2020-06-02T13:08:22Z</time>
      </trkpt>
      <trkpt lat="46.31672" lon="-1.06024">
        <ele>2.4</ele>
        <time>2020-06-02T13:08:23Z</time>
      </trkpt>
      <trkpt lat="46.31672" lon="-1.06024">
        <ele>2.4</ele>
        <time>2020-06-02T13:08:24Z</time>
      </trkpt>
      <trkpt lat="46.31672" lon="-1.06024">
        <ele>2.4</ele>
        <time>2020-06-02T13:08:25Z</time>
      </trkpt>
      <trkpt lat="46.31672" lon="-1.06024">
        <ele>2.4</ele>
        <time>2020-06-02T13:08:26Z</time>
      </trkpt>
      <trkpt lat="46.31672" lon="-1.06024">
        <ele>2.4</ele>
        <time>2020-06-02T13:08:27Z</time>
      </trkpt>
      <trkpt lat="46.31672" lon="-1.06024">
        <ele>2.4</ele>
        <time>2020-06-02T13:08:28Z</time>
      </trkpt>
      <trkpt lat="46.31672" lon="-1.06024">
        <ele>2.4</ele>
        <time>2020-06-02T13:08:29Z</time>
      </trkpt>
      <trkpt lat="46.31672" lon="-1.06024">
        <ele>2.4</ele>
        <time>2020-06-02T13:08:30Z</time>
      </trkpt>
      <trkpt lat="46.31672" lon="-1.06024">
        <ele>2.4</ele>
        <time>2020-06-02T13:08:31Z</time>
      </trkpt>
      <trkpt lat="46.31672" lon="-1.06024">
        <ele>2.4</ele>
        <time>2020-06-02T13:08:32Z</time>
      </trkpt>
      <trkpt lat="46.31672" lon="-1.06024">
        <ele>2.4</ele>
        <time>2020-06-02T13:08:33Z</time>
      </trkpt>
      <trkpt lat="46.31672" lon="-1.06024">
        <ele>2.4</ele>
        <time>2020-06-02T13:08:34Z</time>
      </trkpt>
      <trkpt lat="46.31672" lon="-1.06024">
        <ele>2.4</ele>
        <time>2020-06-02T13:08:35Z</time>
      </trkpt>
      <trkpt lat="46.31672" lon="-1.06024">
        <ele>2.4</ele>
        <time>2020-06-02T13:08:36Z</time>
      </trkpt>
      <trkpt lat="46.31672" lon="-1.06025">
        <ele>2.4</ele>
        <time>2020-06-02T13:08:37Z</time>
      </trkpt>
      <trkpt lat="46.31672" lon="-1.06025">
        <ele>2.4</ele>
        <time>2020-06-02T13:08:38Z</time>
      </trkpt>
      <trkpt lat="46.31672" lon="-1.06025">
        <ele>2.4</ele>
        <time>2020-06-02T13:08:39Z</time>
      </trkpt>
      <trkpt lat="46.31672" lon="-1.06025">
        <ele>2.4</ele>
        <time>2020-06-02T13:08:40Z</time>
      </trkpt>
      <trkpt lat="46.31672" lon="-1.06025">
        <ele>2.4</ele>
        <time>2020-06-02T13:08:41Z</time>
      </trkpt>
      <trkpt lat="46.31672" lon="-1.06025">
        <ele>2.4</ele>
        <time>2020-06-02T13:08:42Z</time>
      </trkpt>
      <trkpt lat="46.31672" lon="-1.06025">
        <ele>2.4</ele>
        <time>2020-06-02T13:08:43Z</time>
      </trkpt>
      <trkpt lat="46.31672" lon="-1.06025">
        <ele>2.4</ele>
        <time>2020-06-02T13:08:44Z</time>
      </trkpt>
      <trkpt lat="46.31672" lon="-1.06025">
        <ele>2.4</ele>
        <time>2020-06-02T13:08:45Z</time>
      </trkpt>
      <trkpt lat="46.31672" lon="-1.06025">
        <ele>2.4</ele>
        <time>2020-06-02T13:08:46Z</time>
      </trkpt>
      <trkpt lat="46.31672" lon="-1.06025">
        <ele>2.4</ele>
        <time>2020-06-02T13:08:47Z</time>
      </trkpt>
      <trkpt lat="46.31672" lon="-1.06025">
        <ele>2.4</ele>
        <time>2020-06-02T13:08:48Z</time>
      </trkpt>
      <trkpt lat="46.31672" lon="-1.06024">
        <ele>2.4</ele>
        <time>2020-06-02T13:08:49Z</time>
      </trkpt>
      <trkpt lat="46.31672" lon="-1.06024">
        <ele>2.4</ele>
        <time>2020-06-02T13:08:50Z</time>
      </trkpt>
      <trkpt lat="46.31672" lon="-1.06024">
        <ele>2.4</ele>
        <time>2020-06-02T13:08:51Z</time>
      </trkpt>
      <trkpt lat="46.31673" lon="-1.06024">
        <ele>2.4</ele>
        <time>2020-06-02T13:08:52Z</time>
      </trkpt>
      <trkpt lat="46.31673" lon="-1.06024">
        <ele>2.4</ele>
        <time>2020-06-02T13:08:53Z</time>
      </trkpt>
      <trkpt lat="46.31673" lon="-1.06024">
        <ele>2.4</ele>
        <time>2020-06-02T13:08:54Z</time>
      </trkpt>
      <trkpt lat="46.31673" lon="-1.06024">
        <ele>2.4</ele>
        <time>2020-06-02T13:08:55Z</time>
      </trkpt>
      <trkpt lat="46.31673" lon="-1.06024">
        <ele>2.4</ele>
        <time>2020-06-02T13:08:56Z</time>
      </trkpt>
      <trkpt lat="46.31673" lon="-1.06023">
        <ele>2.4</ele>
        <time>2020-06-02T13:08:57Z</time>
      </trkpt>
      <trkpt lat="46.31673" lon="-1.06023">
        <ele>2.4</ele>
        <time>2020-06-02T13:08:58Z</time>
      </trkpt>
      <trkpt lat="46.31673" lon="-1.06024">
        <ele>2.4</ele>
        <time>2020-06-02T13:08:59Z</time>
      </trkpt>
      <trkpt lat="46.31674" lon="-1.06027">
        <ele>2.4</ele>
        <time>2020-06-02T13:09:00Z</time>
      </trkpt>
      <trkpt lat="46.31674" lon="-1.06029">
        <ele>2.4</ele>
        <time>2020-06-02T13:09:01Z</time>
      </trkpt>
      <trkpt lat="46.31674" lon="-1.06031">
        <ele>2.4</ele>
        <time>2020-06-02T13:09:02Z</time>
      </trkpt>
      <trkpt lat="46.31675" lon="-1.06036">
        <ele>2.4</ele>
        <time>2020-06-02T13:09:03Z</time>
      </trkpt>
      <trkpt lat="46.31675" lon="-1.06037">
        <ele>2.4</ele>
        <time>2020-06-02T13:09:04Z</time>
      </trkpt>
      <trkpt lat="46.31675" lon="-1.06041">
        <ele>2.4</ele>
        <time>2020-06-02T13:09:05Z</time>
      </trkpt>
      <trkpt lat="46.31676" lon="-1.06046">
        <ele>2.5</ele>
        <time>2020-06-02T13:09:06Z</time>
      </trkpt>
      <trkpt lat="46.31676" lon="-1.06053">
        <ele>2.5</ele>
        <time>2020-06-02T13:09:07Z</time>
      </trkpt>
      <trkpt lat="46.31677" lon="-1.0606">
        <ele>2.5</ele>
        <time>2020-06-02T13:09:08Z</time>
      </trkpt>
      <trkpt lat="46.31677" lon="-1.06066">
        <ele>2.5</ele>
        <time>2020-06-02T13:09:09Z</time>
      </trkpt>
      <trkpt lat="46.31677" lon="-1.06073">
        <ele>2.5</ele>
        <time>2020-06-02T13:09:10Z</time>
      </trkpt>
      <trkpt lat="46.31678" lon="-1.06079">
        <ele>2.5</ele>
        <time>2020-06-02T13:09:11Z</time>
      </trkpt>
      <trkpt lat="46.31679" lon="-1.06085">
        <ele>2.5</ele>
        <time>2020-06-02T13:09:12Z</time>
      </trkpt>
      <trkpt lat="46.3168" lon="-1.0609">
        <ele>2.5</ele>
        <time>2020-06-02T13:09:13Z</time>
      </trkpt>
      <trkpt lat="46.31681" lon="-1.06096">
        <ele>2.5</ele>
        <time>2020-06-02T13:09:14Z</time>
      </trkpt>
      <trkpt lat="46.31681" lon="-1.06102">
        <ele>2.5</ele>
        <time>2020-06-02T13:09:15Z</time>
      </trkpt>
      <trkpt lat="46.31682" lon="-1.06108">
        <ele>2.5</ele>
        <time>2020-06-02T13:09:16Z</time>
      </trkpt>
      <trkpt lat="46.31683" lon="-1.06114">
        <ele>2.5</ele>
        <time>2020-06-02T13:09:17Z</time>
      </trkpt>
      <trkpt lat="46.31683" lon="-1.0612">
        <ele>2.5</ele>
        <time>2020-06-02T13:09:18Z</time>
      </trkpt>
      <trkpt lat="46.31683" lon="-1.06126">
        <ele>2.5</ele>
        <time>2020-06-02T13:09:19Z</time>
      </trkpt>
      <trkpt lat="46.31682" lon="-1.06133">
        <ele>2.5</ele>
        <time>2020-06-02T13:09:20Z</time>
      </trkpt>
      <trkpt lat="46.31682" lon="-1.0614">
        <ele>2.5</ele>
        <time>2020-06-02T13:09:21Z</time>
      </trkpt>
      <trkpt lat="46.31683" lon="-1.06145">
        <ele>2.5</ele>
        <time>2020-06-02T13:09:22Z</time>
      </trkpt>
      <trkpt lat="46.31683" lon="-1.06151">
        <ele>2.6</ele>
        <time>2020-06-02T13:09:23Z</time>
      </trkpt>
      <trkpt lat="46.31684" lon="-1.06157">
        <ele>2.6</ele>
        <time>2020-06-02T13:09:24Z</time>
      </trkpt>
      <trkpt lat="46.31684" lon="-1.06163">
        <ele>2.6</ele>
        <time>2020-06-02T13:09:25Z</time>
      </trkpt>
      <trkpt lat="46.31684" lon="-1.06169">
        <ele>2.6</ele>
        <time>2020-06-02T13:09:26Z</time>
      </trkpt>
      <trkpt lat="46.31683" lon="-1.06175">
        <ele>2.6</ele>
        <time>2020-06-02T13:09:27Z</time>
      </trkpt>
      <trkpt lat="46.31683" lon="-1.06181">
        <ele>2.6</ele>
        <time>2020-06-02T13:09:28Z</time>
      </trkpt>
      <trkpt lat="46.31683" lon="-1.06187">
        <ele>2.6</ele>
        <time>2020-06-02T13:09:29Z</time>
      </trkpt>
      <trkpt lat="46.31683" lon="-1.06193">
        <ele>2.6</ele>
        <time>2020-06-02T13:09:30Z</time>
      </trkpt>
      <trkpt lat="46.31683" lon="-1.06199">
        <ele>2.6</ele>
        <time>2020-06-02T13:09:31Z</time>
      </trkpt>
      <trkpt lat="46.31683" lon="-1.06205">
        <ele>2.6</ele>
        <time>2020-06-02T13:09:32Z</time>
      </trkpt>
      <trkpt lat="46.31684" lon="-1.06211">
        <ele>2.6</ele>
        <time>2020-06-02T13:09:33Z</time>
      </trkpt>
      <trkpt lat="46.31685" lon="-1.06217">
        <ele>2.6</ele>
        <time>2020-06-02T13:09:34Z</time>
      </trkpt>
      <trkpt lat="46.31686" lon="-1.06223">
        <ele>2.6</ele>
        <time>2020-06-02T13:09:35Z</time>
      </trkpt>
      <trkpt lat="46.31686" lon="-1.06229">
        <ele>2.6</ele>
        <time>2020-06-02T13:09:36Z</time>
      </trkpt>
      <trkpt lat="46.31686" lon="-1.06235">
        <ele>2.6</ele>
        <time>2020-06-02T13:09:37Z</time>
      </trkpt>
      <trkpt lat="46.31686" lon="-1.06241">
        <ele>2.6</ele>
        <time>2020-06-02T13:09:38Z</time>
      </trkpt>
      <trkpt lat="46.31686" lon="-1.06247">
        <ele>2.6</ele>
        <time>2020-06-02T13:09:39Z</time>
      </trkpt>
      <trkpt lat="46.31686" lon="-1.06254">
        <ele>2.6</ele>
        <time>2020-06-02T13:09:40Z</time>
      </trkpt>
      <trkpt lat="46.31686" lon="-1.0626">
        <ele>2.6</ele>
        <time>2020-06-02T13:09:41Z</time>
      </trkpt>
      <trkpt lat="46.31686" lon="-1.06266">
        <ele>2.6</ele>
        <time>2020-06-02T13:09:42Z</time>
      </trkpt>
      <trkpt lat="46.31687" lon="-1.06271">
        <ele>2.6</ele>
        <time>2020-06-02T13:09:43Z</time>
      </trkpt>
      <trkpt lat="46.31688" lon="-1.06276">
        <ele>2.6</ele>
        <time>2020-06-02T13:09:44Z</time>
      </trkpt>
      <trkpt lat="46.31688" lon="-1.06282">
        <ele>2.6</ele>
        <time>2020-06-02T13:09:45Z</time>
      </trkpt>
      <trkpt lat="46.31688" lon="-1.06289">
        <ele>2.6</ele>
        <time>2020-06-02T13:09:46Z</time>
      </trkpt>
      <trkpt lat="46.31689" lon="-1.06296">
        <ele>2.6</ele>
        <time>2020-06-02T13:09:47Z</time>
      </trkpt>
      <trkpt lat="46.31689" lon="-1.06302">
        <ele>2.6</ele>
        <time>2020-06-02T13:09:48Z</time>
      </trkpt>
      <trkpt lat="46.31689" lon="-1.06309">
        <ele>2.6</ele>
        <time>2020-06-02T13:09:49Z</time>
      </trkpt>
      <trkpt lat="46.3169" lon="-1.06315">
        <ele>2.6</ele>
        <time>2020-06-02T13:09:50Z</time>
      </trkpt>
      <trkpt lat="46.31691" lon="-1.06322">
        <ele>2.5</ele>
        <time>2020-06-02T13:09:51Z</time>
      </trkpt>
      <trkpt lat="46.31692" lon="-1.06328">
        <ele>2.5</ele>
        <time>2020-06-02T13:09:52Z</time>
      </trkpt>
      <trkpt lat="46.31692" lon="-1.06334">
        <ele>2.5</ele>
        <time>2020-06-02T13:09:53Z</time>
      </trkpt>
      <trkpt lat="46.31693" lon="-1.06341">
        <ele>2.5</ele>
        <time>2020-06-02T13:09:54Z</time>
      </trkpt>
      <trkpt lat="46.31693" lon="-1.06346">
        <ele>2.5</ele>
        <time>2020-06-02T13:09:55Z</time>
      </trkpt>
      <trkpt lat="46.31692" lon="-1.06353">
        <ele>2.5</ele>
        <time>2020-06-02T13:09:56Z</time>
      </trkpt>
      <trkpt lat="46.31692" lon="-1.0636">
        <ele>2.5</ele>
        <time>2020-06-02T13:09:57Z</time>
      </trkpt>
      <trkpt lat="46.31693" lon="-1.06367">
        <ele>2.5</ele>
        <time>2020-06-02T13:09:58Z</time>
      </trkpt>
      <trkpt lat="46.31693" lon="-1.06374">
        <ele>2.5</ele>
        <time>2020-06-02T13:09:59Z</time>
      </trkpt>
      <trkpt lat="46.31693" lon="-1.06382">
        <ele>2.5</ele>
        <time>2020-06-02T13:10:00Z</time>
      </trkpt>
      <trkpt lat="46.31693" lon="-1.06389">
        <ele>2.5</ele>
        <time>2020-06-02T13:10:01Z</time>
      </trkpt>
      <trkpt lat="46.31693" lon="-1.06396">
        <ele>2.5</ele>
        <time>2020-06-02T13:10:02Z</time>
      </trkpt>
      <trkpt lat="46.31694" lon="-1.06404">
        <ele>2.5</ele>
        <time>2020-06-02T13:10:03Z</time>
      </trkpt>
      <trkpt lat="46.31694" lon="-1.06411">
        <ele>2.5</ele>
        <time>2020-06-02T13:10:04Z</time>
      </trkpt>
      <trkpt lat="46.31695" lon="-1.06416">
        <ele>2.5</ele>
        <time>2020-06-02T13:10:05Z</time>
      </trkpt>
      <trkpt lat="46.31695" lon="-1.06423">
        <ele>2.5</ele>
        <time>2020-06-02T13:10:06Z</time>
      </trkpt>
      <trkpt lat="46.31695" lon="-1.0643">
        <ele>2.5</ele>
        <time>2020-06-02T13:10:07Z</time>
      </trkpt>
      <trkpt lat="46.31696" lon="-1.06435">
        <ele>2.5</ele>
        <time>2020-06-02T13:10:08Z</time>
      </trkpt>
      <trkpt lat="46.31697" lon="-1.06441">
        <ele>2.5</ele>
        <time>2020-06-02T13:10:09Z</time>
      </trkpt>
      <trkpt lat="46.31697" lon="-1.06448">
        <ele>2.5</ele>
        <time>2020-06-02T13:10:10Z</time>
      </trkpt>
      <trkpt lat="46.31698" lon="-1.06454">
        <ele>2.5</ele>
        <time>2020-06-02T13:10:11Z</time>
      </trkpt>
      <trkpt lat="46.31699" lon="-1.06461">
        <ele>2.5</ele>
        <time>2020-06-02T13:10:12Z</time>
      </trkpt>
      <trkpt lat="46.31699" lon="-1.06467">
        <ele>2.5</ele>
        <time>2020-06-02T13:10:13Z</time>
      </trkpt>
      <trkpt lat="46.317" lon="-1.06474">
        <ele>2.5</ele>
        <time>2020-06-02T13:10:14Z</time>
      </trkpt>
      <trkpt lat="46.31701" lon="-1.0648">
        <ele>2.5</ele>
        <time>2020-06-02T13:10:15Z</time>
      </trkpt>
      <trkpt lat="46.31702" lon="-1.06487">
        <ele>2.5</ele>
        <time>2020-06-02T13:10:16Z</time>
      </trkpt>
      <trkpt lat="46.31703" lon="-1.06493">
        <ele>2.5</ele>
        <time>2020-06-02T13:10:17Z</time>
      </trkpt>
      <trkpt lat="46.31703" lon="-1.06499">
        <ele>2.5</ele>
        <time>2020-06-02T13:10:18Z</time>
      </trkpt>
      <trkpt lat="46.31704" lon="-1.06505">
        <ele>2.5</ele>
        <time>2020-06-02T13:10:19Z</time>
      </trkpt>
      <trkpt lat="46.31704" lon="-1.06513">
        <ele>2.5</ele>
        <time>2020-06-02T13:10:20Z</time>
      </trkpt>
      <trkpt lat="46.31704" lon="-1.0652">
        <ele>2.5</ele>
        <time>2020-06-02T13:10:21Z</time>
      </trkpt>
      <trkpt lat="46.31705" lon="-1.06528">
        <ele>2.6</ele>
        <time>2020-06-02T13:10:22Z</time>
      </trkpt>
      <trkpt lat="46.31705" lon="-1.06535">
        <ele>2.6</ele>
        <time>2020-06-02T13:10:23Z</time>
      </trkpt>
      <trkpt lat="46.31706" lon="-1.06542">
        <ele>2.6</ele>
        <time>2020-06-02T13:10:24Z</time>
      </trkpt>
      <trkpt lat="46.31706" lon="-1.06549">
        <ele>2.6</ele>
        <time>2020-06-02T13:10:25Z</time>
      </trkpt>
      <trkpt lat="46.31707" lon="-1.06555">
        <ele>2.6</ele>
        <time>2020-06-02T13:10:26Z</time>
      </trkpt>
      <trkpt lat="46.31707" lon="-1.06562">
        <ele>2.6</ele>
        <time>2020-06-02T13:10:27Z</time>
      </trkpt>
      <trkpt lat="46.31707" lon="-1.06567">
        <ele>2.7</ele>
        <time>2020-06-02T13:10:28Z</time>
      </trkpt>
      <trkpt lat="46.31708" lon="-1.06573">
        <ele>2.7</ele>
        <time>2020-06-02T13:10:29Z</time>
      </trkpt>
      <trkpt lat="46.31708" lon="-1.06579">
        <ele>2.7</ele>
        <time>2020-06-02T13:10:30Z</time>
      </trkpt>
      <trkpt lat="46.31709" lon="-1.06586">
        <ele>2.7</ele>
        <time>2020-06-02T13:10:31Z</time>
      </trkpt>
      <trkpt lat="46.31708" lon="-1.06593">
        <ele>2.7</ele>
        <time>2020-06-02T13:10:32Z</time>
      </trkpt>
      <trkpt lat="46.31708" lon="-1.066">
        <ele>2.8</ele>
        <time>2020-06-02T13:10:33Z</time>
      </trkpt>
      <trkpt lat="46.31709" lon="-1.06608">
        <ele>2.8</ele>
        <time>2020-06-02T13:10:34Z</time>
      </trkpt>
      <trkpt lat="46.31709" lon="-1.06614">
        <ele>2.8</ele>
        <time>2020-06-02T13:10:35Z</time>
      </trkpt>
      <trkpt lat="46.3171" lon="-1.06621">
        <ele>2.8</ele>
        <time>2020-06-02T13:10:36Z</time>
      </trkpt>
      <trkpt lat="46.31709" lon="-1.06628">
        <ele>2.8</ele>
        <time>2020-06-02T13:10:37Z</time>
      </trkpt>
      <trkpt lat="46.3171" lon="-1.06634">
        <ele>2.7</ele>
        <time>2020-06-02T13:10:38Z</time>
      </trkpt>
      <trkpt lat="46.3171" lon="-1.0664">
        <ele>2.7</ele>
        <time>2020-06-02T13:10:39Z</time>
      </trkpt>
      <trkpt lat="46.31711" lon="-1.06646">
        <ele>2.7</ele>
        <time>2020-06-02T13:10:40Z</time>
      </trkpt>
      <trkpt lat="46.31711" lon="-1.06651">
        <ele>2.7</ele>
        <time>2020-06-02T13:10:41Z</time>
      </trkpt>
      <trkpt lat="46.31711" lon="-1.06658">
        <ele>2.7</ele>
        <time>2020-06-02T13:10:42Z</time>
      </trkpt>
      <trkpt lat="46.31712" lon="-1.06664">
        <ele>2.7</ele>
        <time>2020-06-02T13:10:43Z</time>
      </trkpt>
      <trkpt lat="46.31712" lon="-1.06671">
        <ele>2.7</ele>
        <time>2020-06-02T13:10:44Z</time>
      </trkpt>
      <trkpt lat="46.31712" lon="-1.06678">
        <ele>2.7</ele>
        <time>2020-06-02T13:10:45Z</time>
      </trkpt>
      <trkpt lat="46.31712" lon="-1.06684">
        <ele>2.7</ele>
        <time>2020-06-02T13:10:46Z</time>
      </trkpt>
      <trkpt lat="46.31712" lon="-1.06691">
        <ele>2.7</ele>
        <time>2020-06-02T13:10:47Z</time>
      </trkpt>
      <trkpt lat="46.31711" lon="-1.06695">
        <ele>2.7</ele>
        <time>2020-06-02T13:10:48Z</time>
      </trkpt>
      <trkpt lat="46.31711" lon="-1.06702">
        <ele>2.7</ele>
        <time>2020-06-02T13:10:49Z</time>
      </trkpt>
      <trkpt lat="46.31711" lon="-1.06709">
        <ele>2.7</ele>
        <time>2020-06-02T13:10:50Z</time>
      </trkpt>
      <trkpt lat="46.31711" lon="-1.06715">
        <ele>2.7</ele>
        <time>2020-06-02T13:10:51Z</time>
      </trkpt>
      <trkpt lat="46.31712" lon="-1.06722">
        <ele>2.6</ele>
        <time>2020-06-02T13:10:52Z</time>
      </trkpt>
      <trkpt lat="46.31712" lon="-1.06728">
        <ele>2.6</ele>
        <time>2020-06-02T13:10:53Z</time>
      </trkpt>
      <trkpt lat="46.31713" lon="-1.06734">
        <ele>2.6</ele>
        <time>2020-06-02T13:10:54Z</time>
      </trkpt>
      <trkpt lat="46.31714" lon="-1.0674">
        <ele>2.6</ele>
        <time>2020-06-02T13:10:55Z</time>
      </trkpt>
      <trkpt lat="46.31715" lon="-1.06746">
        <ele>2.6</ele>
        <time>2020-06-02T13:10:56Z</time>
      </trkpt>
      <trkpt lat="46.31716" lon="-1.06753">
        <ele>2.6</ele>
        <time>2020-06-02T13:10:57Z</time>
      </trkpt>
      <trkpt lat="46.31715" lon="-1.0676">
        <ele>2.6</ele>
        <time>2020-06-02T13:10:58Z</time>
      </trkpt>
      <trkpt lat="46.31715" lon="-1.06767">
        <ele>2.6</ele>
        <time>2020-06-02T13:10:59Z</time>
      </trkpt>
      <trkpt lat="46.31716" lon="-1.06772">
        <ele>2.7</ele>
        <time>2020-06-02T13:11:00Z</time>
      </trkpt>
      <trkpt lat="46.31717" lon="-1.06778">
        <ele>2.7</ele>
        <time>2020-06-02T13:11:01Z</time>
      </trkpt>
      <trkpt lat="46.31718" lon="-1.06784">
        <ele>2.7</ele>
        <time>2020-06-02T13:11:02Z</time>
      </trkpt>
      <trkpt lat="46.31719" lon="-1.0679">
        <ele>2.7</ele>
        <time>2020-06-02T13:11:03Z</time>
      </trkpt>
      <trkpt lat="46.3172" lon="-1.06797">
        <ele>2.8</ele>
        <time>2020-06-02T13:11:04Z</time>
      </trkpt>
      <trkpt lat="46.31719" lon="-1.06804">
        <ele>2.8</ele>
        <time>2020-06-02T13:11:05Z</time>
      </trkpt>
      <trkpt lat="46.3172" lon="-1.06811">
        <ele>2.8</ele>
        <time>2020-06-02T13:11:06Z</time>
      </trkpt>
      <trkpt lat="46.3172" lon="-1.06818">
        <ele>2.8</ele>
        <time>2020-06-02T13:11:07Z</time>
      </trkpt>
      <trkpt lat="46.31721" lon="-1.06823">
        <ele>2.8</ele>
        <time>2020-06-02T13:11:08Z</time>
      </trkpt>
      <trkpt lat="46.31721" lon="-1.06829">
        <ele>2.9</ele>
        <time>2020-06-02T13:11:09Z</time>
      </trkpt>
      <trkpt lat="46.31722" lon="-1.06834">
        <ele>2.9</ele>
        <time>2020-06-02T13:11:10Z</time>
      </trkpt>
      <trkpt lat="46.31723" lon="-1.0684">
        <ele>2.9</ele>
        <time>2020-06-02T13:11:11Z</time>
      </trkpt>
      <trkpt lat="46.31724" lon="-1.06846">
        <ele>2.9</ele>
        <time>2020-06-02T13:11:12Z</time>
      </trkpt>
      <trkpt lat="46.31725" lon="-1.06851">
        <ele>2.9</ele>
        <time>2020-06-02T13:11:13Z</time>
      </trkpt>
      <trkpt lat="46.31726" lon="-1.06855">
        <ele>2.9</ele>
        <time>2020-06-02T13:11:14Z</time>
      </trkpt>
      <trkpt lat="46.31726" lon="-1.06861">
        <ele>2.9</ele>
        <time>2020-06-02T13:11:15Z</time>
      </trkpt>
      <trkpt lat="46.31726" lon="-1.06867">
        <ele>2.9</ele>
        <time>2020-06-02T13:11:16Z</time>
      </trkpt>
      <trkpt lat="46.31726" lon="-1.06873">
        <ele>2.9</ele>
        <time>2020-06-02T13:11:17Z</time>
      </trkpt>
      <trkpt lat="46.31727" lon="-1.06879">
        <ele>2.9</ele>
        <time>2020-06-02T13:11:18Z</time>
      </trkpt>
      <trkpt lat="46.31728" lon="-1.06884">
        <ele>2.9</ele>
        <time>2020-06-02T13:11:19Z</time>
      </trkpt>
      <trkpt lat="46.31728" lon="-1.06886">
        <ele>2.9</ele>
        <time>2020-06-02T13:11:20Z</time>
      </trkpt>
      <trkpt lat="46.31728" lon="-1.06891">
        <ele>2.9</ele>
        <time>2020-06-02T13:11:21Z</time>
      </trkpt>
      <trkpt lat="46.31728" lon="-1.06893">
        <ele>2.9</ele>
        <time>2020-06-02T13:11:22Z</time>
      </trkpt>
      <trkpt lat="46.31728" lon="-1.06897">
        <ele>2.9</ele>
        <time>2020-06-02T13:11:23Z</time>
      </trkpt>
      <trkpt lat="46.31728" lon="-1.06901">
        <ele>2.9</ele>
        <time>2020-06-02T13:11:24Z</time>
      </trkpt>
      <trkpt lat="46.31728" lon="-1.06908">
        <ele>2.9</ele>
        <time>2020-06-02T13:11:25Z</time>
      </trkpt>
      <trkpt lat="46.31728" lon="-1.06914">
        <ele>2.9</ele>
        <time>2020-06-02T13:11:26Z</time>
      </trkpt>
      <trkpt lat="46.31728" lon="-1.0692">
        <ele>2.8</ele>
        <time>2020-06-02T13:11:27Z</time>
      </trkpt>
      <trkpt lat="46.31728" lon="-1.06927">
        <ele>2.8</ele>
        <time>2020-06-02T13:11:28Z</time>
      </trkpt>
      <trkpt lat="46.31727" lon="-1.06932">
        <ele>2.8</ele>
        <time>2020-06-02T13:11:29Z</time>
      </trkpt>
      <trkpt lat="46.31725" lon="-1.06936">
        <ele>2.8</ele>
        <time>2020-06-02T13:11:30Z</time>
      </trkpt>
      <trkpt lat="46.31724" lon="-1.06942">
        <ele>2.8</ele>
        <time>2020-06-02T13:11:31Z</time>
      </trkpt>
      <trkpt lat="46.31723" lon="-1.06948">
        <ele>2.8</ele>
        <time>2020-06-02T13:11:32Z</time>
      </trkpt>
      <trkpt lat="46.31721" lon="-1.06954">
        <ele>2.8</ele>
        <time>2020-06-02T13:11:33Z</time>
      </trkpt>
      <trkpt lat="46.3172" lon="-1.06961">
        <ele>2.8</ele>
        <time>2020-06-02T13:11:34Z</time>
      </trkpt>
      <trkpt lat="46.31719" lon="-1.06967">
        <ele>2.8</ele>
        <time>2020-06-02T13:11:35Z</time>
      </trkpt>
      <trkpt lat="46.31718" lon="-1.06973">
        <ele>2.8</ele>
        <time>2020-06-02T13:11:36Z</time>
      </trkpt>
      <trkpt lat="46.31719" lon="-1.06978">
        <ele>2.8</ele>
        <time>2020-06-02T13:11:37Z</time>
      </trkpt>
      <trkpt lat="46.3172" lon="-1.06984">
        <ele>2.8</ele>
        <time>2020-06-02T13:11:38Z</time>
      </trkpt>
      <trkpt lat="46.3172" lon="-1.06989">
        <ele>2.8</ele>
        <time>2020-06-02T13:11:39Z</time>
      </trkpt>
      <trkpt lat="46.31721" lon="-1.06995">
        <ele>2.8</ele>
        <time>2020-06-02T13:11:40Z</time>
      </trkpt>
      <trkpt lat="46.31721" lon="-1.07002">
        <ele>2.8</ele>
        <time>2020-06-02T13:11:41Z</time>
      </trkpt>
      <trkpt lat="46.31721" lon="-1.07008">
        <ele>2.8</ele>
        <time>2020-06-02T13:11:42Z</time>
      </trkpt>
      <trkpt lat="46.31721" lon="-1.07013">
        <ele>2.9</ele>
        <time>2020-06-02T13:11:43Z</time>
      </trkpt>
      <trkpt lat="46.31721" lon="-1.0702">
        <ele>2.9</ele>
        <time>2020-06-02T13:11:44Z</time>
      </trkpt>
      <trkpt lat="46.31722" lon="-1.07025">
        <ele>2.9</ele>
        <time>2020-06-02T13:11:45Z</time>
      </trkpt>
      <trkpt lat="46.31723" lon="-1.07031">
        <ele>2.9</ele>
        <time>2020-06-02T13:11:46Z</time>
      </trkpt>
      <trkpt lat="46.31724" lon="-1.07037">
        <ele>3</ele>
        <time>2020-06-02T13:11:47Z</time>
      </trkpt>
      <trkpt lat="46.31725" lon="-1.07044">
        <ele>3</ele>
        <time>2020-06-02T13:11:48Z</time>
      </trkpt>
      <trkpt lat="46.31725" lon="-1.0705">
        <ele>3</ele>
        <time>2020-06-02T13:11:49Z</time>
      </trkpt>
      <trkpt lat="46.31726" lon="-1.07057">
        <ele>3</ele>
        <time>2020-06-02T13:11:50Z</time>
      </trkpt>
      <trkpt lat="46.31727" lon="-1.07064">
        <ele>3.1</ele>
        <time>2020-06-02T13:11:51Z</time>
      </trkpt>
      <trkpt lat="46.31728" lon="-1.07071">
        <ele>3.1</ele>
        <time>2020-06-02T13:11:52Z</time>
      </trkpt>
      <trkpt lat="46.31728" lon="-1.07078">
        <ele>3.1</ele>
        <time>2020-06-02T13:11:53Z</time>
      </trkpt>
      <trkpt lat="46.31729" lon="-1.07084">
        <ele>3.1</ele>
        <time>2020-06-02T13:11:54Z</time>
      </trkpt>
      <trkpt lat="46.31729" lon="-1.07091">
        <ele>3.1</ele>
        <time>2020-06-02T13:11:55Z</time>
      </trkpt>
      <trkpt lat="46.3173" lon="-1.07097">
        <ele>3.2</ele>
        <time>2020-06-02T13:11:56Z</time>
      </trkpt>
      <trkpt lat="46.31731" lon="-1.07104">
        <ele>3.2</ele>
        <time>2020-06-02T13:11:57Z</time>
      </trkpt>
      <trkpt lat="46.31732" lon="-1.0711">
        <ele>3.2</ele>
        <time>2020-06-02T13:11:58Z</time>
      </trkpt>
      <trkpt lat="46.31732" lon="-1.07115">
        <ele>3.2</ele>
        <time>2020-06-02T13:11:59Z</time>
      </trkpt>
      <trkpt lat="46.31732" lon="-1.07122">
        <ele>3.2</ele>
        <time>2020-06-02T13:12:00Z</time>
      </trkpt>
      <trkpt lat="46.31733" lon="-1.07127">
        <ele>3.3</ele>
        <time>2020-06-02T13:12:01Z</time>
      </trkpt>
      <trkpt lat="46.31733" lon="-1.07133">
        <ele>3.3</ele>
        <time>2020-06-02T13:12:02Z</time>
      </trkpt>
      <trkpt lat="46.31733" lon="-1.07137">
        <ele>3.3</ele>
        <time>2020-06-02T13:12:03Z</time>
      </trkpt>
      <trkpt lat="46.31733" lon="-1.07142">
        <ele>3.3</ele>
        <time>2020-06-02T13:12:04Z</time>
      </trkpt>
      <trkpt lat="46.31732" lon="-1.07144">
        <ele>3.3</ele>
        <time>2020-06-02T13:12:05Z</time>
      </trkpt>
      <trkpt lat="46.31731" lon="-1.07148">
        <ele>3.3</ele>
        <time>2020-06-02T13:12:06Z</time>
      </trkpt>
      <trkpt lat="46.3173" lon="-1.07149">
        <ele>3.3</ele>
        <time>2020-06-02T13:12:07Z</time>
      </trkpt>
      <trkpt lat="46.3173" lon="-1.0715">
        <ele>3.3</ele>
        <time>2020-06-02T13:12:08Z</time>
      </trkpt>
      <trkpt lat="46.31731" lon="-1.07152">
        <ele>3.3</ele>
        <time>2020-06-02T13:12:09Z</time>
      </trkpt>
      <trkpt lat="46.31732" lon="-1.07153">
        <ele>3.3</ele>
        <time>2020-06-02T13:12:10Z</time>
      </trkpt>
      <trkpt lat="46.31734" lon="-1.07155">
        <ele>3.3</ele>
        <time>2020-06-02T13:12:11Z</time>
      </trkpt>
      <trkpt lat="46.31736" lon="-1.07154">
        <ele>3.3</ele>
        <time>2020-06-02T13:12:12Z</time>
      </trkpt>
      <trkpt lat="46.31739" lon="-1.07154">
        <ele>3.3</ele>
        <time>2020-06-02T13:12:13Z</time>
      </trkpt>
      <trkpt lat="46.31743" lon="-1.07154">
        <ele>3.3</ele>
        <time>2020-06-02T13:12:14Z</time>
      </trkpt>
      <trkpt lat="46.31744" lon="-1.07153">
        <ele>3.3</ele>
        <time>2020-06-02T13:12:15Z</time>
      </trkpt>
      <trkpt lat="46.31747" lon="-1.07151">
        <ele>3.3</ele>
        <time>2020-06-02T13:12:16Z</time>
      </trkpt>
      <trkpt lat="46.3175" lon="-1.0715">
        <ele>3.3</ele>
        <time>2020-06-02T13:12:17Z</time>
      </trkpt>
      <trkpt lat="46.31753" lon="-1.07149">
        <ele>3.3</ele>
        <time>2020-06-02T13:12:18Z</time>
      </trkpt>
      <trkpt lat="46.31756" lon="-1.07149">
        <ele>3.3</ele>
        <time>2020-06-02T13:12:19Z</time>
      </trkpt>
      <trkpt lat="46.31759" lon="-1.07149">
        <ele>3.3</ele>
        <time>2020-06-02T13:12:20Z</time>
      </trkpt>
      <trkpt lat="46.31763" lon="-1.07149">
        <ele>3.3</ele>
        <time>2020-06-02T13:12:21Z</time>
      </trkpt>
      <trkpt lat="46.31766" lon="-1.07148">
        <ele>3.3</ele>
        <time>2020-06-02T13:12:22Z</time>
      </trkpt>
      <trkpt lat="46.31767" lon="-1.07148">
        <ele>3.3</ele>
        <time>2020-06-02T13:12:23Z</time>
      </trkpt>
      <trkpt lat="46.31769" lon="-1.07148">
        <ele>3.3</ele>
        <time>2020-06-02T13:12:24Z</time>
      </trkpt>
      <trkpt lat="46.31771" lon="-1.07148">
        <ele>3.3</ele>
        <time>2020-06-02T13:12:25Z</time>
      </trkpt>
      <trkpt lat="46.31772" lon="-1.07147">
        <ele>3.3</ele>
        <time>2020-06-02T13:12:26Z</time>
      </trkpt>
      <trkpt lat="46.31774" lon="-1.07147">
        <ele>3.3</ele>
        <time>2020-06-02T13:12:27Z</time>
      </trkpt>
      <trkpt lat="46.31775" lon="-1.07147">
        <ele>3.3</ele>
        <time>2020-06-02T13:12:28Z</time>
      </trkpt>
      <trkpt lat="46.31776" lon="-1.07146">
        <ele>3.3</ele>
        <time>2020-06-02T13:12:29Z</time>
      </trkpt>
      <trkpt lat="46.31777" lon="-1.07146">
        <ele>3.3</ele>
        <time>2020-06-02T13:12:30Z</time>
      </trkpt>
      <trkpt lat="46.31777" lon="-1.07145">
        <ele>3.3</ele>
        <time>2020-06-02T13:12:31Z</time>
      </trkpt>
      <trkpt lat="46.31777" lon="-1.07144">
        <ele>3.3</ele>
        <time>2020-06-02T13:12:32Z</time>
      </trkpt>
      <trkpt lat="46.31778" lon="-1.07144">
        <ele>3.3</ele>
        <time>2020-06-02T13:12:33Z</time>
      </trkpt>
      <trkpt lat="46.31777" lon="-1.07146">
        <ele>3.3</ele>
        <time>2020-06-02T13:12:34Z</time>
      </trkpt>
      <trkpt lat="46.31777" lon="-1.07145">
        <ele>3.3</ele>
        <time>2020-06-02T13:12:35Z</time>
      </trkpt>
      <trkpt lat="46.31776" lon="-1.07146">
        <ele>3.3</ele>
        <time>2020-06-02T13:12:36Z</time>
      </trkpt>
      <trkpt lat="46.31776" lon="-1.07145">
        <ele>3.3</ele>
        <time>2020-06-02T13:12:37Z</time>
      </trkpt>
      <trkpt lat="46.31775" lon="-1.07145">
        <ele>3.3</ele>
        <time>2020-06-02T13:12:38Z</time>
      </trkpt>
      <trkpt lat="46.31775" lon="-1.07146">
        <ele>3.3</ele>
        <time>2020-06-02T13:12:39Z</time>
      </trkpt>
      <trkpt lat="46.31775" lon="-1.07145">
        <ele>3.3</ele>
        <time>2020-06-02T13:12:40Z</time>
      </trkpt>
      <trkpt lat="46.31774" lon="-1.07146">
        <ele>3.3</ele>
        <time>2020-06-02T13:12:41Z</time>
      </trkpt>
      <trkpt lat="46.31775" lon="-1.07145">
        <ele>3.3</ele>
        <time>2020-06-02T13:12:42Z</time>
      </trkpt>
      <trkpt lat="46.31775" lon="-1.07145">
        <ele>3.3</ele>
        <time>2020-06-02T13:12:43Z</time>
      </trkpt>
      <trkpt lat="46.31774" lon="-1.07144">
        <ele>3.3</ele>
        <time>2020-06-02T13:12:44Z</time>
      </trkpt>
      <trkpt lat="46.31774" lon="-1.07144">
        <ele>3.3</ele>
        <time>2020-06-02T13:12:45Z</time>
      </trkpt>
      <trkpt lat="46.31775" lon="-1.07144">
        <ele>3.3</ele>
        <time>2020-06-02T13:12:46Z</time>
      </trkpt>
      <trkpt lat="46.31775" lon="-1.07145">
        <ele>3.3</ele>
        <time>2020-06-02T13:12:47Z</time>
      </trkpt>
      <trkpt lat="46.31776" lon="-1.07145">
        <ele>3.3</ele>
        <time>2020-06-02T13:12:48Z</time>
      </trkpt>
      <trkpt lat="46.31775" lon="-1.07145">
        <ele>3.3</ele>
        <time>2020-06-02T13:12:49Z</time>
      </trkpt>
      <trkpt lat="46.31775" lon="-1.07145">
        <ele>3.3</ele>
        <time>2020-06-02T13:12:50Z</time>
      </trkpt>
      <trkpt lat="46.31776" lon="-1.07146">
        <ele>3.3</ele>
        <time>2020-06-02T13:12:51Z</time>
      </trkpt>
      <trkpt lat="46.31776" lon="-1.07146">
        <ele>3.3</ele>
        <time>2020-06-02T13:12:52Z</time>
      </trkpt>
      <trkpt lat="46.31776" lon="-1.07145">
        <ele>3.3</ele>
        <time>2020-06-02T13:12:53Z</time>
      </trkpt>
      <trkpt lat="46.31776" lon="-1.07146">
        <ele>3.3</ele>
        <time>2020-06-02T13:12:54Z</time>
      </trkpt>
      <trkpt lat="46.31776" lon="-1.07146">
        <ele>3.3</ele>
        <time>2020-06-02T13:12:55Z</time>
      </trkpt>
      <trkpt lat="46.31776" lon="-1.07144">
        <ele>3.3</ele>
        <time>2020-06-02T13:12:56Z</time>
      </trkpt>
      <trkpt lat="46.31777" lon="-1.07145">
        <ele>3.3</ele>
        <time>2020-06-02T13:12:57Z</time>
      </trkpt>
      <trkpt lat="46.31777" lon="-1.07144">
        <ele>3.3</ele>
        <time>2020-06-02T13:12:58Z</time>
      </trkpt>
      <trkpt lat="46.31776" lon="-1.07144">
        <ele>3.3</ele>
        <time>2020-06-02T13:12:59Z</time>
      </trkpt>
      <trkpt lat="46.31776" lon="-1.07143">
        <ele>3.3</ele>
        <time>2020-06-02T13:13:00Z</time>
      </trkpt>
      <trkpt lat="46.31776" lon="-1.07143">
        <ele>3.3</ele>
        <time>2020-06-02T13:13:01Z</time>
      </trkpt>
      <trkpt lat="46.31776" lon="-1.07144">
        <ele>3.3</ele>
        <time>2020-06-02T13:13:02Z</time>
      </trkpt>
      <trkpt lat="46.31776" lon="-1.07145">
        <ele>3.3</ele>
        <time>2020-06-02T13:13:03Z</time>
      </trkpt>
      <trkpt lat="46.31775" lon="-1.07144">
        <ele>3.3</ele>
        <time>2020-06-02T13:13:04Z</time>
      </trkpt>
      <trkpt lat="46.31775" lon="-1.07144">
        <ele>3.3</ele>
        <time>2020-06-02T13:13:05Z</time>
      </trkpt>
      <trkpt lat="46.31775" lon="-1.07144">
        <ele>3.3</ele>
        <time>2020-06-02T13:13:06Z</time>
      </trkpt>
      <trkpt lat="46.31775" lon="-1.07143">
        <ele>3.3</ele>
        <time>2020-06-02T13:13:07Z</time>
      </trkpt>
      <trkpt lat="46.31774" lon="-1.07142">
        <ele>3.3</ele>
        <time>2020-06-02T13:13:08Z</time>
      </trkpt>
      <trkpt lat="46.31774" lon="-1.07142">
        <ele>3.3</ele>
        <time>2020-06-02T13:13:09Z</time>
      </trkpt>
      <trkpt lat="46.31774" lon="-1.07142">
        <ele>3.3</ele>
        <time>2020-06-02T13:13:10Z</time>
      </trkpt>
      <trkpt lat="46.31774" lon="-1.07142">
        <ele>3.3</ele>
        <time>2020-06-02T13:13:11Z</time>
      </trkpt>
      <trkpt lat="46.31774" lon="-1.07142">
        <ele>3.3</ele>
        <time>2020-06-02T13:13:12Z</time>
      </trkpt>
      <trkpt lat="46.31774" lon="-1.07142">
        <ele>3.3</ele>
        <time>2020-06-02T13:13:13Z</time>
      </trkpt>
      <trkpt lat="46.31774" lon="-1.07142">
        <ele>3.3</ele>
        <time>2020-06-02T13:13:14Z</time>
      </trkpt>
      <trkpt lat="46.31774" lon="-1.07142">
        <ele>3.3</ele>
        <time>2020-06-02T13:13:15Z</time>
      </trkpt>
      <trkpt lat="46.31774" lon="-1.07142">
        <ele>3.3</ele>
        <time>2020-06-02T13:13:16Z</time>
      </trkpt>
      <trkpt lat="46.31774" lon="-1.07142">
        <ele>3.3</ele>
        <time>2020-06-02T13:13:17Z</time>
      </trkpt>
      <trkpt lat="46.31774" lon="-1.07142">
        <ele>3.3</ele>
        <time>2020-06-02T13:13:18Z</time>
      </trkpt>
      <trkpt lat="46.31774" lon="-1.07142">
        <ele>3.3</ele>
        <time>2020-06-02T13:13:19Z</time>
      </trkpt>
      <trkpt lat="46.31773" lon="-1.07142">
        <ele>3.3</ele>
        <time>2020-06-02T13:13:20Z</time>
      </trkpt>
      <trkpt lat="46.31773" lon="-1.07142">
        <ele>3.3</ele>
        <time>2020-06-02T13:13:21Z</time>
      </trkpt>
      <trkpt lat="46.31773" lon="-1.07141">
        <ele>3.3</ele>
        <time>2020-06-02T13:13:22Z</time>
      </trkpt>
      <trkpt lat="46.31773" lon="-1.07141">
        <ele>3.3</ele>
        <time>2020-06-02T13:13:23Z</time>
      </trkpt>
      <trkpt lat="46.31773" lon="-1.07141">
        <ele>3.3</ele>
        <time>2020-06-02T13:13:24Z</time>
      </trkpt>
      <trkpt lat="46.31773" lon="-1.07141">
        <ele>3.3</ele>
        <time>2020-06-02T13:13:25Z</time>
      </trkpt>
      <trkpt lat="46.31773" lon="-1.07141">
        <ele>3.3</ele>
        <time>2020-06-02T13:13:26Z</time>
      </trkpt>
      <trkpt lat="46.31773" lon="-1.07141">
        <ele>3.3</ele>
        <time>2020-06-02T13:13:27Z</time>
      </trkpt>
      <trkpt lat="46.31773" lon="-1.07141">
        <ele>3.3</ele>
        <time>2020-06-02T13:13:28Z</time>
      </trkpt>
      <trkpt lat="46.31773" lon="-1.07141">
        <ele>3.3</ele>
        <time>2020-06-02T13:13:29Z</time>
      </trkpt>
      <trkpt lat="46.31773" lon="-1.07141">
        <ele>3.3</ele>
        <time>2020-06-02T13:13:30Z</time>
      </trkpt>
      <trkpt lat="46.31773" lon="-1.07141">
        <ele>3.3</ele>
        <time>2020-06-02T13:13:31Z</time>
      </trkpt>
      <trkpt lat="46.31773" lon="-1.07141">
        <ele>3.3</ele>
        <time>2020-06-02T13:13:32Z</time>
      </trkpt>
      <trkpt lat="46.31773" lon="-1.07141">
        <ele>3.3</ele>
        <time>2020-06-02T13:13:33Z</time>
      </trkpt>
      <trkpt lat="46.31773" lon="-1.07141">
        <ele>3.3</ele>
        <time>2020-06-02T13:13:34Z</time>
      </trkpt>
      <trkpt lat="46.31773" lon="-1.07141">
        <ele>3.3</ele>
        <time>2020-06-02T13:13:35Z</time>
      </trkpt>
      <trkpt lat="46.31773" lon="-1.07141">
        <ele>3.3</ele>
        <time>2020-06-02T13:13:36Z</time>
      </trkpt>
      <trkpt lat="46.31773" lon="-1.07141">
        <ele>3.3</ele>
        <time>2020-06-02T13:13:37Z</time>
      </trkpt>
      <trkpt lat="46.31773" lon="-1.0714">
        <ele>3.3</ele>
        <time>2020-06-02T13:13:38Z</time>
      </trkpt>
      <trkpt lat="46.31773" lon="-1.0714">
        <ele>3.3</ele>
        <time>2020-06-02T13:13:39Z</time>
      </trkpt>
      <trkpt lat="46.31773" lon="-1.0714">
        <ele>3.3</ele>
        <time>2020-06-02T13:13:40Z</time>
      </trkpt>
      <trkpt lat="46.31772" lon="-1.0714">
        <ele>3.3</ele>
        <time>2020-06-02T13:13:41Z</time>
      </trkpt>
      <trkpt lat="46.31772" lon="-1.0714">
        <ele>3.3</ele>
        <time>2020-06-02T13:13:42Z</time>
      </trkpt>
      <trkpt lat="46.31772" lon="-1.0714">
        <ele>3.3</ele>
        <time>2020-06-02T13:13:43Z</time>
      </trkpt>
      <trkpt lat="46.31772" lon="-1.0714">
        <ele>3.3</ele>
        <time>2020-06-02T13:13:44Z</time>
      </trkpt>
      <trkpt lat="46.31772" lon="-1.0714">
        <ele>3.3</ele>
        <time>2020-06-02T13:13:45Z</time>
      </trkpt>
      <trkpt lat="46.31772" lon="-1.0714">
        <ele>3.3</ele>
        <time>2020-06-02T13:13:46Z</time>
      </trkpt>
      <trkpt lat="46.31772" lon="-1.0714">
        <ele>3.3</ele>
        <time>2020-06-02T13:13:47Z</time>
      </trkpt>
      <trkpt lat="46.31772" lon="-1.0714">
        <ele>3.3</ele>
        <time>2020-06-02T13:13:48Z</time>
      </trkpt>
      <trkpt lat="46.31772" lon="-1.0714">
        <ele>3.3</ele>
        <time>2020-06-02T13:13:49Z</time>
      </trkpt>
      <trkpt lat="46.31772" lon="-1.0714">
        <ele>3.3</ele>
        <time>2020-06-02T13:13:50Z</time>
      </trkpt>
      <trkpt lat="46.31772" lon="-1.0714">
        <ele>3.3</ele>
        <time>2020-06-02T13:13:51Z</time>
      </trkpt>
      <trkpt lat="46.31772" lon="-1.0714">
        <ele>3.3</ele>
        <time>2020-06-02T13:13:52Z</time>
      </trkpt>
      <trkpt lat="46.31772" lon="-1.07139">
        <ele>3.3</ele>
        <time>2020-06-02T13:13:53Z</time>
      </trkpt>
      <trkpt lat="46.31772" lon="-1.07139">
        <ele>3.3</ele>
        <time>2020-06-02T13:13:54Z</time>
      </trkpt>
      <trkpt lat="46.31772" lon="-1.07139">
        <ele>3.3</ele>
        <time>2020-06-02T13:13:55Z</time>
      </trkpt>
      <trkpt lat="46.31772" lon="-1.07139">
        <ele>3.3</ele>
        <time>2020-06-02T13:13:56Z</time>
      </trkpt>
      <trkpt lat="46.31772" lon="-1.07139">
        <ele>3.3</ele>
        <time>2020-06-02T13:13:57Z</time>
      </trkpt>
      <trkpt lat="46.31772" lon="-1.07139">
        <ele>3.3</ele>
        <time>2020-06-02T13:13:58Z</time>
      </trkpt>
      <trkpt lat="46.31772" lon="-1.07139">
        <ele>3.3</ele>
        <time>2020-06-02T13:13:59Z</time>
      </trkpt>
      <trkpt lat="46.31772" lon="-1.07139">
        <ele>3.3</ele>
        <time>2020-06-02T13:14:00Z</time>
      </trkpt>
      <trkpt lat="46.31771" lon="-1.07139">
        <ele>3.3</ele>
        <time>2020-06-02T13:14:01Z</time>
      </trkpt>
      <trkpt lat="46.31772" lon="-1.07138">
        <ele>3.3</ele>
        <time>2020-06-02T13:14:02Z</time>
      </trkpt>
      <trkpt lat="46.31773" lon="-1.07139">
        <ele>3.3</ele>
        <time>2020-06-02T13:14:03Z</time>
      </trkpt>
      <trkpt lat="46.31773" lon="-1.07139">
        <ele>3.3</ele>
        <time>2020-06-02T13:14:04Z</time>
      </trkpt>
      <trkpt lat="46.31773" lon="-1.07139">
        <ele>3.3</ele>
        <time>2020-06-02T13:14:05Z</time>
      </trkpt>
      <trkpt lat="46.31773" lon="-1.07139">
        <ele>3.3</ele>
        <time>2020-06-02T13:14:06Z</time>
      </trkpt>
      <trkpt lat="46.31773" lon="-1.07139">
        <ele>3.3</ele>
        <time>2020-06-02T13:14:07Z</time>
      </trkpt>
      <trkpt lat="46.31773" lon="-1.07139">
        <ele>3.3</ele>
        <time>2020-06-02T13:14:08Z</time>
      </trkpt>
      <trkpt lat="46.31773" lon="-1.07139">
        <ele>3.3</ele>
        <time>2020-06-02T13:14:09Z</time>
      </trkpt>
      <trkpt lat="46.31773" lon="-1.07139">
        <ele>3.3</ele>
        <time>2020-06-02T13:14:10Z</time>
      </trkpt>
      <trkpt lat="46.31773" lon="-1.0714">
        <ele>3.3</ele>
        <time>2020-06-02T13:14:11Z</time>
      </trkpt>
      <trkpt lat="46.31773" lon="-1.0714">
        <ele>3.3</ele>
        <time>2020-06-02T13:14:12Z</time>
      </trkpt>
      <trkpt lat="46.31773" lon="-1.07141">
        <ele>3.3</ele>
        <time>2020-06-02T13:14:13Z</time>
      </trkpt>
      <trkpt lat="46.31774" lon="-1.07141">
        <ele>3.3</ele>
        <time>2020-06-02T13:14:14Z</time>
      </trkpt>
      <trkpt lat="46.31774" lon="-1.07141">
        <ele>3.3</ele>
        <time>2020-06-02T13:14:15Z</time>
      </trkpt>
      <trkpt lat="46.31774" lon="-1.07142">
        <ele>3.3</ele>
        <time>2020-06-02T13:14:16Z</time>
      </trkpt>
      <trkpt lat="46.31774" lon="-1.07142">
        <ele>3.3</ele>
        <time>2020-06-02T13:14:17Z</time>
      </trkpt>
      <trkpt lat="46.31775" lon="-1.07142">
        <ele>3.3</ele>
        <time>2020-06-02T13:14:18Z</time>
      </trkpt>
      <trkpt lat="46.31775" lon="-1.07142">
        <ele>3.3</ele>
        <time>2020-06-02T13:14:19Z</time>
      </trkpt>
      <trkpt lat="46.31775" lon="-1.07143">
        <ele>3.3</ele>
        <time>2020-06-02T13:14:20Z</time>
      </trkpt>
      <trkpt lat="46.31775" lon="-1.07143">
        <ele>3.3</ele>
        <time>2020-06-02T13:14:21Z</time>
      </trkpt>
      <trkpt lat="46.31775" lon="-1.07143">
        <ele>3.3</ele>
        <time>2020-06-02T13:14:22Z</time>
      </trkpt>
      <trkpt lat="46.31775" lon="-1.07143">
        <ele>3.3</ele>
        <time>2020-06-02T13:14:23Z</time>
      </trkpt>
      <trkpt lat="46.31774" lon="-1.07142">
        <ele>3.3</ele>
        <time>2020-06-02T13:14:24Z</time>
      </trkpt>
      <trkpt lat="46.31774" lon="-1.07142">
        <ele>3.3</ele>
        <time>2020-06-02T13:14:25Z</time>
      </trkpt>
      <trkpt lat="46.31774" lon="-1.07142">
        <ele>3.3</ele>
        <time>2020-06-02T13:14:26Z</time>
      </trkpt>
      <trkpt lat="46.31774" lon="-1.07142">
        <ele>3.3</ele>
        <time>2020-06-02T13:14:27Z</time>
      </trkpt>
      <trkpt lat="46.31775" lon="-1.07143">
        <ele>3.3</ele>
        <time>2020-06-02T13:14:28Z</time>
      </trkpt>
      <trkpt lat="46.31775" lon="-1.07143">
        <ele>3.3</ele>
        <time>2020-06-02T13:14:29Z</time>
      </trkpt>
      <trkpt lat="46.31774" lon="-1.07144">
        <ele>3.3</ele>
        <time>2020-06-02T13:14:30Z</time>
      </trkpt>
      <trkpt lat="46.31774" lon="-1.07144">
        <ele>3.3</ele>
        <time>2020-06-02T13:14:31Z</time>
      </trkpt>
      <trkpt lat="46.31774" lon="-1.07144">
        <ele>3.3</ele>
        <time>2020-06-02T13:14:32Z</time>
      </trkpt>
      <trkpt lat="46.31774" lon="-1.07145">
        <ele>3.3</ele>
        <time>2020-06-02T13:14:33Z</time>
      </trkpt>
      <trkpt lat="46.31775" lon="-1.07146">
        <ele>3.3</ele>
        <time>2020-06-02T13:14:34Z</time>
      </trkpt>
      <trkpt lat="46.31775" lon="-1.07146">
        <ele>3.3</ele>
        <time>2020-06-02T13:14:35Z</time>
      </trkpt>
      <trkpt lat="46.31775" lon="-1.07146">
        <ele>3.3</ele>
        <time>2020-06-02T13:14:36Z</time>
      </trkpt>
      <trkpt lat="46.31775" lon="-1.07146">
        <ele>3.3</ele>
        <time>2020-06-02T13:14:37Z</time>
      </trkpt>
      <trkpt lat="46.31775" lon="-1.07146">
        <ele>3.3</ele>
        <time>2020-06-02T13:14:38Z</time>
      </trkpt>
      <trkpt lat="46.31775" lon="-1.07146">
        <ele>3.3</ele>
        <time>2020-06-02T13:14:39Z</time>
      </trkpt>
      <trkpt lat="46.31775" lon="-1.07146">
        <ele>3.3</ele>
        <time>2020-06-02T13:14:40Z</time>
      </trkpt>
      <trkpt lat="46.31775" lon="-1.07146">
        <ele>3.3</ele>
        <time>2020-06-02T13:14:41Z</time>
      </trkpt>
      <trkpt lat="46.31775" lon="-1.07146">
        <ele>3.3</ele>
        <time>2020-06-02T13:14:42Z</time>
      </trkpt>
      <trkpt lat="46.31776" lon="-1.07145">
        <ele>3.3</ele>
        <time>2020-06-02T13:14:43Z</time>
      </trkpt>
      <trkpt lat="46.31778" lon="-1.07144">
        <ele>3.3</ele>
        <time>2020-06-02T13:14:44Z</time>
      </trkpt>
      <trkpt lat="46.3178" lon="-1.07143">
        <ele>3.3</ele>
        <time>2020-06-02T13:14:45Z</time>
      </trkpt>
      <trkpt lat="46.31781" lon="-1.07142">
        <ele>3.3</ele>
        <time>2020-06-02T13:14:46Z</time>
      </trkpt>
      <trkpt lat="46.31781" lon="-1.07142">
        <ele>3.3</ele>
        <time>2020-06-02T13:14:47Z</time>
      </trkpt>
      <trkpt lat="46.31782" lon="-1.07141">
        <ele>3.3</ele>
        <time>2020-06-02T13:14:48Z</time>
      </trkpt>
      <trkpt lat="46.31784" lon="-1.0714">
        <ele>3.3</ele>
        <time>2020-06-02T13:14:49Z</time>
      </trkpt>
      <trkpt lat="46.31785" lon="-1.07141">
        <ele>3.3</ele>
        <time>2020-06-02T13:14:50Z</time>
      </trkpt>
      <trkpt lat="46.31787" lon="-1.0714">
        <ele>3.3</ele>
        <time>2020-06-02T13:14:51Z</time>
      </trkpt>
      <trkpt lat="46.31789" lon="-1.0714">
        <ele>3.3</ele>
        <time>2020-06-02T13:14:52Z</time>
      </trkpt>
      <trkpt lat="46.3179" lon="-1.07141">
        <ele>3.3</ele>
        <time>2020-06-02T13:14:53Z</time>
      </trkpt>
      <trkpt lat="46.31792" lon="-1.07142">
        <ele>3.3</ele>
        <time>2020-06-02T13:14:54Z</time>
      </trkpt>
      <trkpt lat="46.31793" lon="-1.07143">
        <ele>3.3</ele>
        <time>2020-06-02T13:14:55Z</time>
      </trkpt>
      <trkpt lat="46.31795" lon="-1.07142">
        <ele>3.3</ele>
        <time>2020-06-02T13:14:56Z</time>
      </trkpt>
      <trkpt lat="46.31796" lon="-1.07142">
        <ele>3.3</ele>
        <time>2020-06-02T13:14:57Z</time>
      </trkpt>
      <trkpt lat="46.31797" lon="-1.07142">
        <ele>3.3</ele>
        <time>2020-06-02T13:14:58Z</time>
      </trkpt>
      <trkpt lat="46.31799" lon="-1.07141">
        <ele>3.3</ele>
        <time>2020-06-02T13:14:59Z</time>
      </trkpt>
      <trkpt lat="46.318" lon="-1.07142">
        <ele>3.4</ele>
        <time>2020-06-02T13:15:00Z</time>
      </trkpt>
      <trkpt lat="46.31802" lon="-1.0714">
        <ele>3.4</ele>
        <time>2020-06-02T13:15:01Z</time>
      </trkpt>
      <trkpt lat="46.31803" lon="-1.07139">
        <ele>3.4</ele>
        <time>2020-06-02T13:15:02Z</time>
      </trkpt>
      <trkpt lat="46.31804" lon="-1.07138">
        <ele>3.4</ele>
        <time>2020-06-02T13:15:03Z</time>
      </trkpt>
      <trkpt lat="46.31805" lon="-1.07137">
        <ele>3.4</ele>
        <time>2020-06-02T13:15:04Z</time>
      </trkpt>
      <trkpt lat="46.31805" lon="-1.07135">
        <ele>3.4</ele>
        <time>2020-06-02T13:15:05Z</time>
      </trkpt>
      <trkpt lat="46.31804" lon="-1.07133">
        <ele>3.4</ele>
        <time>2020-06-02T13:15:06Z</time>
      </trkpt>
      <trkpt lat="46.31804" lon="-1.07129">
        <ele>3.4</ele>
        <time>2020-06-02T13:15:07Z</time>
      </trkpt>
      <trkpt lat="46.31804" lon="-1.07128">
        <ele>3.4</ele>
        <time>2020-06-02T13:15:08Z</time>
      </trkpt>
      <trkpt lat="46.31804" lon="-1.07125">
        <ele>3.4</ele>
        <time>2020-06-02T13:15:09Z</time>
      </trkpt>
      <trkpt lat="46.31803" lon="-1.07123">
        <ele>3.4</ele>
        <time>2020-06-02T13:15:10Z</time>
      </trkpt>
      <trkpt lat="46.31803" lon="-1.0712">
        <ele>3.4</ele>
        <time>2020-06-02T13:15:11Z</time>
      </trkpt>
      <trkpt lat="46.31803" lon="-1.07119">
        <ele>3.4</ele>
        <time>2020-06-02T13:15:12Z</time>
      </trkpt>
      <trkpt lat="46.31803" lon="-1.07118">
        <ele>3.4</ele>
        <time>2020-06-02T13:15:13Z</time>
      </trkpt>
      <trkpt lat="46.31802" lon="-1.07115">
        <ele>3.4</ele>
        <time>2020-06-02T13:15:14Z</time>
      </trkpt>
      <trkpt lat="46.31802" lon="-1.07114">
        <ele>3.4</ele>
        <time>2020-06-02T13:15:15Z</time>
      </trkpt>
      <trkpt lat="46.31802" lon="-1.07112">
        <ele>3.4</ele>
        <time>2020-06-02T13:15:16Z</time>
      </trkpt>
      <trkpt lat="46.31802" lon="-1.0711">
        <ele>3.4</ele>
        <time>2020-06-02T13:15:17Z</time>
      </trkpt>
      <trkpt lat="46.31802" lon="-1.07108">
        <ele>3.4</ele>
        <time>2020-06-02T13:15:18Z</time>
      </trkpt>
      <trkpt lat="46.31802" lon="-1.07106">
        <ele>3.4</ele>
        <time>2020-06-02T13:15:19Z</time>
      </trkpt>
      <trkpt lat="46.31802" lon="-1.07104">
        <ele>3.4</ele>
        <time>2020-06-02T13:15:20Z</time>
      </trkpt>
      <trkpt lat="46.31801" lon="-1.071">
        <ele>3.4</ele>
        <time>2020-06-02T13:15:21Z</time>
      </trkpt>
      <trkpt lat="46.31801" lon="-1.07099">
        <ele>3.4</ele>
        <time>2020-06-02T13:15:22Z</time>
      </trkpt>
      <trkpt lat="46.31801" lon="-1.07096">
        <ele>3.4</ele>
        <time>2020-06-02T13:15:23Z</time>
      </trkpt>
      <trkpt lat="46.31801" lon="-1.07095">
        <ele>3.4</ele>
        <time>2020-06-02T13:15:24Z</time>
      </trkpt>
      <trkpt lat="46.31801" lon="-1.07093">
        <ele>3.4</ele>
        <time>2020-06-02T13:15:25Z</time>
      </trkpt>
      <trkpt lat="46.318" lon="-1.07092">
        <ele>3.4</ele>
        <time>2020-06-02T13:15:26Z</time>
      </trkpt>
      <trkpt lat="46.318" lon="-1.07091">
        <ele>3.4</ele>
        <time>2020-06-02T13:15:27Z</time>
      </trkpt>
      <trkpt lat="46.318" lon="-1.0709">
        <ele>3.4</ele>
        <time>2020-06-02T13:15:28Z</time>
      </trkpt>
      <trkpt lat="46.318" lon="-1.07089">
        <ele>3.4</ele>
        <time>2020-06-02T13:15:29Z</time>
      </trkpt>
      <trkpt lat="46.318" lon="-1.07088">
        <ele>3.4</ele>
        <time>2020-06-02T13:15:30Z</time>
      </trkpt>
      <trkpt lat="46.31799" lon="-1.07086">
        <ele>3.4</ele>
        <time>2020-06-02T13:15:31Z</time>
      </trkpt>
      <trkpt lat="46.318" lon="-1.07084">
        <ele>3.4</ele>
        <time>2020-06-02T13:15:32Z</time>
      </trkpt>
      <trkpt lat="46.318" lon="-1.07082">
        <ele>3.4</ele>
        <time>2020-06-02T13:15:33Z</time>
      </trkpt>
      <trkpt lat="46.318" lon="-1.0708">
        <ele>3.4</ele>
        <time>2020-06-02T13:15:34Z</time>
      </trkpt>
      <trkpt lat="46.318" lon="-1.07078">
        <ele>3.4</ele>
        <time>2020-06-02T13:15:35Z</time>
      </trkpt>
      <trkpt lat="46.318" lon="-1.07077">
        <ele>3.4</ele>
        <time>2020-06-02T13:15:36Z</time>
      </trkpt>
      <trkpt lat="46.31798" lon="-1.07076">
        <ele>3.4</ele>
        <time>2020-06-02T13:15:37Z</time>
      </trkpt>
      <trkpt lat="46.31798" lon="-1.07075">
        <ele>3.4</ele>
        <time>2020-06-02T13:15:38Z</time>
      </trkpt>
      <trkpt lat="46.31798" lon="-1.07074">
        <ele>3.4</ele>
        <time>2020-06-02T13:15:39Z</time>
      </trkpt>
      <trkpt lat="46.31798" lon="-1.07074">
        <ele>3.4</ele>
        <time>2020-06-02T13:15:40Z</time>
      </trkpt>
      <trkpt lat="46.31798" lon="-1.07075">
        <ele>3.4</ele>
        <time>2020-06-02T13:15:41Z</time>
      </trkpt>
      <trkpt lat="46.31798" lon="-1.07075">
        <ele>3.4</ele>
        <time>2020-06-02T13:15:42Z</time>
      </trkpt>
      <trkpt lat="46.31798" lon="-1.07075">
        <ele>3.4</ele>
        <time>2020-06-02T13:15:43Z</time>
      </trkpt>
      <trkpt lat="46.31798" lon="-1.07075">
        <ele>3.4</ele>
        <time>2020-06-02T13:15:44Z</time>
      </trkpt>
      <trkpt lat="46.31798" lon="-1.07075">
        <ele>3.4</ele>
        <time>2020-06-02T13:15:45Z</time>
      </trkpt>
      <trkpt lat="46.31798" lon="-1.07075">
        <ele>3.4</ele>
        <time>2020-06-02T13:15:46Z</time>
      </trkpt>
      <trkpt lat="46.31798" lon="-1.07075">
        <ele>3.4</ele>
        <time>2020-06-02T13:15:47Z</time>
      </trkpt>
      <trkpt lat="46.31798" lon="-1.07075">
        <ele>3.4</ele>
        <time>2020-06-02T13:15:48Z</time>
      </trkpt>
      <trkpt lat="46.31798" lon="-1.07075">
        <ele>3.4</ele>
        <time>2020-06-02T13:15:49Z</time>
      </trkpt>
      <trkpt lat="46.31798" lon="-1.07075">
        <ele>3.4</ele>
        <time>2020-06-02T13:15:50Z</time>
      </trkpt>
      <trkpt lat="46.31798" lon="-1.07075">
        <ele>3.4</ele>
        <time>2020-06-02T13:15:51Z</time>
      </trkpt>
      <trkpt lat="46.31798" lon="-1.07075">
        <ele>3.4</ele>
        <time>2020-06-02T13:15:52Z</time>
      </trkpt>
      <trkpt lat="46.31798" lon="-1.07075">
        <ele>3.4</ele>
        <time>2020-06-02T13:15:53Z</time>
      </trkpt>
      <trkpt lat="46.31798" lon="-1.07075">
        <ele>3.4</ele>
        <time>2020-06-02T13:15:54Z</time>
      </trkpt>
      <trkpt lat="46.31798" lon="-1.07075">
        <ele>3.4</ele>
        <time>2020-06-02T13:15:55Z</time>
      </trkpt>
      <trkpt lat="46.31798" lon="-1.07075">
        <ele>3.4</ele>
        <time>2020-06-02T13:15:56Z</time>
      </trkpt>
      <trkpt lat="46.31798" lon="-1.07075">
        <ele>3.4</ele>
        <time>2020-06-02T13:15:57Z</time>
      </trkpt>
      <trkpt lat="46.31798" lon="-1.07075">
        <ele>3.4</ele>
        <time>2020-06-02T13:15:58Z</time>
      </trkpt>
      <trkpt lat="46.31798" lon="-1.07076">
        <ele>3.4</ele>
        <time>2020-06-02T13:15:59Z</time>
      </trkpt>
      <trkpt lat="46.31798" lon="-1.07077">
        <ele>3.4</ele>
        <time>2020-06-02T13:16:00Z</time>
      </trkpt>
      <trkpt lat="46.31798" lon="-1.07077">
        <ele>3.4</ele>
        <time>2020-06-02T13:16:01Z</time>
      </trkpt>
      <trkpt lat="46.31798" lon="-1.07078">
        <ele>3.4</ele>
        <time>2020-06-02T13:16:02Z</time>
      </trkpt>
      <trkpt lat="46.31798" lon="-1.07079">
        <ele>3.4</ele>
        <time>2020-06-02T13:16:03Z</time>
      </trkpt>
      <trkpt lat="46.31799" lon="-1.07079">
        <ele>3.4</ele>
        <time>2020-06-02T13:16:04Z</time>
      </trkpt>
      <trkpt lat="46.31799" lon="-1.07079">
        <ele>3.4</ele>
        <time>2020-06-02T13:16:05Z</time>
      </trkpt>
      <trkpt lat="46.31799" lon="-1.07079">
        <ele>3.4</ele>
        <time>2020-06-02T13:16:06Z</time>
      </trkpt>
      <trkpt lat="46.31799" lon="-1.07079">
        <ele>3.4</ele>
        <time>2020-06-02T13:16:07Z</time>
      </trkpt>
      <trkpt lat="46.31799" lon="-1.07079">
        <ele>3.4</ele>
        <time>2020-06-02T13:16:08Z</time>
      </trkpt>
      <trkpt lat="46.31799" lon="-1.07079">
        <ele>3.4</ele>
        <time>2020-06-02T13:16:09Z</time>
      </trkpt>
      <trkpt lat="46.31799" lon="-1.07078">
        <ele>3.4</ele>
        <time>2020-06-02T13:16:10Z</time>
      </trkpt>
      <trkpt lat="46.31799" lon="-1.07079">
        <ele>3.4</ele>
        <time>2020-06-02T13:16:11Z</time>
      </trkpt>
      <trkpt lat="46.31799" lon="-1.07079">
        <ele>3.4</ele>
        <time>2020-06-02T13:16:12Z</time>
      </trkpt>
      <trkpt lat="46.31799" lon="-1.07078">
        <ele>3.4</ele>
        <time>2020-06-02T13:16:13Z</time>
      </trkpt>
      <trkpt lat="46.31799" lon="-1.07078">
        <ele>3.4</ele>
        <time>2020-06-02T13:16:14Z</time>
      </trkpt>
      <trkpt lat="46.31799" lon="-1.07078">
        <ele>3.4</ele>
        <time>2020-06-02T13:16:15Z</time>
      </trkpt>
      <trkpt lat="46.31799" lon="-1.07078">
        <ele>3.4</ele>
        <time>2020-06-02T13:16:16Z</time>
      </trkpt>
      <trkpt lat="46.31799" lon="-1.07078">
        <ele>3.4</ele>
        <time>2020-06-02T13:16:17Z</time>
      </trkpt>
      <trkpt lat="46.31799" lon="-1.07078">
        <ele>3.4</ele>
        <time>2020-06-02T13:16:18Z</time>
      </trkpt>
      <trkpt lat="46.31799" lon="-1.07078">
        <ele>3.4</ele>
        <time>2020-06-02T13:16:19Z</time>
      </trkpt>
      <trkpt lat="46.31799" lon="-1.07078">
        <ele>3.4</ele>
        <time>2020-06-02T13:16:20Z</time>
      </trkpt>
      <trkpt lat="46.31798" lon="-1.07078">
        <ele>3.4</ele>
        <time>2020-06-02T13:16:21Z</time>
      </trkpt>
      <trkpt lat="46.31798" lon="-1.07078">
        <ele>3.4</ele>
        <time>2020-06-02T13:16:22Z</time>
      </trkpt>
      <trkpt lat="46.31798" lon="-1.07078">
        <ele>3.4</ele>
        <time>2020-06-02T13:16:23Z</time>
      </trkpt>
      <trkpt lat="46.31798" lon="-1.07078">
        <ele>3.4</ele>
        <time>2020-06-02T13:16:24Z</time>
      </trkpt>
      <trkpt lat="46.31798" lon="-1.07078">
        <ele>3.4</ele>
        <time>2020-06-02T13:16:25Z</time>
      </trkpt>
      <trkpt lat="46.31798" lon="-1.07078">
        <ele>3.4</ele>
        <time>2020-06-02T13:16:26Z</time>
      </trkpt>
      <trkpt lat="46.31798" lon="-1.07078">
        <ele>3.4</ele>
        <time>2020-06-02T13:16:27Z</time>
      </trkpt>
      <trkpt lat="46.31798" lon="-1.07078">
        <ele>3.4</ele>
        <time>2020-06-02T13:16:28Z</time>
      </trkpt>
      <trkpt lat="46.31798" lon="-1.07078">
        <ele>3.4</ele>
        <time>2020-06-02T13:16:29Z</time>
      </trkpt>
      <trkpt lat="46.31798" lon="-1.07078">
        <ele>3.4</ele>
        <time>2020-06-02T13:16:30Z</time>
      </trkpt>
      <trkpt lat="46.31798" lon="-1.07078">
        <ele>3.4</ele>
        <time>2020-06-02T13:16:31Z</time>
      </trkpt>
      <trkpt lat="46.31798" lon="-1.07078">
        <ele>3.4</ele>
        <time>2020-06-02T13:16:32Z</time>
      </trkpt>
      <trkpt lat="46.31798" lon="-1.07078">
        <ele>3.4</ele>
        <time>2020-06-02T13:16:33Z</time>
      </trkpt>
      <trkpt lat="46.31798" lon="-1.07078">
        <ele>3.4</ele>
        <time>2020-06-02T13:16:34Z</time>
      </trkpt>
      <trkpt lat="46.31799" lon="-1.07078">
        <ele>3.4</ele>
        <time>2020-06-02T13:16:35Z</time>
      </trkpt>
      <trkpt lat="46.31799" lon="-1.07078">
        <ele>3.4</ele>
        <time>2020-06-02T13:16:36Z</time>
      </trkpt>
      <trkpt lat="46.31799" lon="-1.07078">
        <ele>3.4</ele>
        <time>2020-06-02T13:16:37Z</time>
      </trkpt>
      <trkpt lat="46.31799" lon="-1.07078">
        <ele>3.4</ele>
        <time>2020-06-02T13:16:38Z</time>
      </trkpt>
      <trkpt lat="46.31799" lon="-1.07078">
        <ele>3.4</ele>
        <time>2020-06-02T13:16:39Z</time>
      </trkpt>
      <trkpt lat="46.31799" lon="-1.07078">
        <ele>3.4</ele>
        <time>2020-06-02T13:16:40Z</time>
      </trkpt>
      <trkpt lat="46.31799" lon="-1.07078">
        <ele>3.4</ele>
        <time>2020-06-02T13:16:41Z</time>
      </trkpt>
      <trkpt lat="46.31799" lon="-1.07078">
        <ele>3.4</ele>
        <time>2020-06-02T13:16:42Z</time>
      </trkpt>
      <trkpt lat="46.31798" lon="-1.07078">
        <ele>3.4</ele>
        <time>2020-06-02T13:16:43Z</time>
      </trkpt>
      <trkpt lat="46.31798" lon="-1.07078">
        <ele>3.4</ele>
        <time>2020-06-02T13:16:44Z</time>
      </trkpt>
      <trkpt lat="46.31798" lon="-1.07078">
        <ele>3.4</ele>
        <time>2020-06-02T13:16:45Z</time>
      </trkpt>
      <trkpt lat="46.31798" lon="-1.07078">
        <ele>3.4</ele>
        <time>2020-06-02T13:16:46Z</time>
      </trkpt>
      <trkpt lat="46.31798" lon="-1.07078">
        <ele>3.4</ele>
        <time>2020-06-02T13:16:47Z</time>
      </trkpt>
      <trkpt lat="46.31798" lon="-1.07078">
        <ele>3.4</ele>
        <time>2020-06-02T13:16:48Z</time>
      </trkpt>
      <trkpt lat="46.31798" lon="-1.07078">
        <ele>3.4</ele>
        <time>2020-06-02T13:16:49Z</time>
      </trkpt>
      <trkpt lat="46.31799" lon="-1.07078">
        <ele>3.4</ele>
        <time>2020-06-02T13:16:50Z</time>
      </trkpt>
      <trkpt lat="46.31799" lon="-1.07078">
        <ele>3.4</ele>
        <time>2020-06-02T13:16:51Z</time>
      </trkpt>
      <trkpt lat="46.31799" lon="-1.07078">
        <ele>3.4</ele>
        <time>2020-06-02T13:16:52Z</time>
      </trkpt>
      <trkpt lat="46.31799" lon="-1.07078">
        <ele>3.4</ele>
        <time>2020-06-02T13:16:53Z</time>
      </trkpt>
      <trkpt lat="46.31799" lon="-1.07078">
        <ele>3.4</ele>
        <time>2020-06-02T13:16:54Z</time>
      </trkpt>
      <trkpt lat="46.31799" lon="-1.07078">
        <ele>3.4</ele>
        <time>2020-06-02T13:16:55Z</time>
      </trkpt>
      <trkpt lat="46.31799" lon="-1.07078">
        <ele>3.4</ele>
        <time>2020-06-02T13:16:56Z</time>
      </trkpt>
      <trkpt lat="46.31799" lon="-1.07078">
        <ele>3.4</ele>
        <time>2020-06-02T13:16:57Z</time>
      </trkpt>
      <trkpt lat="46.31799" lon="-1.07078">
        <ele>3.4</ele>
        <time>2020-06-02T13:16:58Z</time>
      </trkpt>
      <trkpt lat="46.31799" lon="-1.07078">
        <ele>3.4</ele>
        <time>2020-06-02T13:16:59Z</time>
      </trkpt>
      <trkpt lat="46.31799" lon="-1.07078">
        <ele>3.4</ele>
        <time>2020-06-02T13:17:00Z</time>
      </trkpt>
      <trkpt lat="46.31798" lon="-1.07078">
        <ele>3.4</ele>
        <time>2020-06-02T13:17:01Z</time>
      </trkpt>
      <trkpt lat="46.31798" lon="-1.07078">
        <ele>3.4</ele>
        <time>2020-06-02T13:17:02Z</time>
      </trkpt>
      <trkpt lat="46.31798" lon="-1.07078">
        <ele>3.4</ele>
        <time>2020-06-02T13:17:03Z</time>
      </trkpt>
      <trkpt lat="46.31798" lon="-1.07078">
        <ele>3.4</ele>
        <time>2020-06-02T13:17:04Z</time>
      </trkpt>
      <trkpt lat="46.31798" lon="-1.07078">
        <ele>3.4</ele>
        <time>2020-06-02T13:17:05Z</time>
      </trkpt>
      <trkpt lat="46.31798" lon="-1.07078">
        <ele>3.4</ele>
        <time>2020-06-02T13:17:06Z</time>
      </trkpt>
      <trkpt lat="46.31798" lon="-1.07078">
        <ele>3.4</ele>
        <time>2020-06-02T13:17:07Z</time>
      </trkpt>
      <trkpt lat="46.31798" lon="-1.07077">
        <ele>3.4</ele>
        <time>2020-06-02T13:17:08Z</time>
      </trkpt>
      <trkpt lat="46.31798" lon="-1.07077">
        <ele>3.4</ele>
        <time>2020-06-02T13:17:09Z</time>
      </trkpt>
      <trkpt lat="46.31798" lon="-1.07078">
        <ele>3.4</ele>
        <time>2020-06-02T13:17:10Z</time>
      </trkpt>
      <trkpt lat="46.31798" lon="-1.07077">
        <ele>3.4</ele>
        <time>2020-06-02T13:17:11Z</time>
      </trkpt>
      <trkpt lat="46.31798" lon="-1.07077">
        <ele>3.4</ele>
        <time>2020-06-02T13:17:12Z</time>
      </trkpt>
      <trkpt lat="46.31798" lon="-1.07077">
        <ele>3.4</ele>
        <time>2020-06-02T13:17:13Z</time>
      </trkpt>
      <trkpt lat="46.31798" lon="-1.07077">
        <ele>3.4</ele>
        <time>2020-06-02T13:17:14Z</time>
      </trkpt>
      <trkpt lat="46.31798" lon="-1.07078">
        <ele>3.4</ele>
        <time>2020-06-02T13:17:15Z</time>
      </trkpt>
      <trkpt lat="46.31798" lon="-1.07077">
        <ele>3.4</ele>
        <time>2020-06-02T13:17:16Z</time>
      </trkpt>
      <trkpt lat="46.31798" lon="-1.07077">
        <ele>3.4</ele>
        <time>2020-06-02T13:17:17Z</time>
      </trkpt>
      <trkpt lat="46.31798" lon="-1.07077">
        <ele>3.4</ele>
        <time>2020-06-02T13:17:18Z</time>
      </trkpt>
      <trkpt lat="46.31798" lon="-1.07077">
        <ele>3.4</ele>
        <time>2020-06-02T13:17:19Z</time>
      </trkpt>
      <trkpt lat="46.31798" lon="-1.07077">
        <ele>3.4</ele>
        <time>2020-06-02T13:17:20Z</time>
      </trkpt>
      <trkpt lat="46.31798" lon="-1.07077">
        <ele>3.4</ele>
        <time>2020-06-02T13:17:21Z</time>
      </trkpt>
      <trkpt lat="46.31798" lon="-1.07077">
        <ele>3.4</ele>
        <time>2020-06-02T13:17:22Z</time>
      </trkpt>
      <trkpt lat="46.31798" lon="-1.07077">
        <ele>3.4</ele>
        <time>2020-06-02T13:17:23Z</time>
      </trkpt>
      <trkpt lat="46.31798" lon="-1.07077">
        <ele>3.4</ele>
        <time>2020-06-02T13:17:24Z</time>
      </trkpt>
      <trkpt lat="46.31798" lon="-1.07077">
        <ele>3.4</ele>
        <time>2020-06-02T13:17:25Z</time>
      </trkpt>
      <trkpt lat="46.31798" lon="-1.07077">
        <ele>3.4</ele>
        <time>2020-06-02T13:17:26Z</time>
      </trkpt>
      <trkpt lat="46.31798" lon="-1.07077">
        <ele>3.4</ele>
        <time>2020-06-02T13:17:27Z</time>
      </trkpt>
      <trkpt lat="46.31798" lon="-1.07077">
        <ele>3.4</ele>
        <time>2020-06-02T13:17:28Z</time>
      </trkpt>
      <trkpt lat="46.31798" lon="-1.07077">
        <ele>3.4</ele>
        <time>2020-06-02T13:17:29Z</time>
      </trkpt>
      <trkpt lat="46.31798" lon="-1.07077">
        <ele>3.4</ele>
        <time>2020-06-02T13:17:30Z</time>
      </trkpt>
      <trkpt lat="46.31798" lon="-1.07077">
        <ele>3.4</ele>
        <time>2020-06-02T13:17:31Z</time>
      </trkpt>
      <trkpt lat="46.31798" lon="-1.07077">
        <ele>3.4</ele>
        <time>2020-06-02T13:17:32Z</time>
      </trkpt>
      <trkpt lat="46.31798" lon="-1.07077">
        <ele>3.4</ele>
        <time>2020-06-02T13:17:33Z</time>
      </trkpt>
      <trkpt lat="46.31798" lon="-1.07077">
        <ele>3.4</ele>
        <time>2020-06-02T13:17:34Z</time>
      </trkpt>
      <trkpt lat="46.31798" lon="-1.07077">
        <ele>3.4</ele>
        <time>2020-06-02T13:17:35Z</time>
      </trkpt>
      <trkpt lat="46.31798" lon="-1.07077">
        <ele>3.4</ele>
        <time>2020-06-02T13:17:36Z</time>
      </trkpt>
      <trkpt lat="46.31798" lon="-1.07077">
        <ele>3.4</ele>
        <time>2020-06-02T13:17:37Z</time>
      </trkpt>
      <trkpt lat="46.31798" lon="-1.07077">
        <ele>3.4</ele>
        <time>2020-06-02T13:17:38Z</time>
      </trkpt>
      <trkpt lat="46.31799" lon="-1.07077">
        <ele>3.4</ele>
        <time>2020-06-02T13:17:39Z</time>
      </trkpt>
      <trkpt lat="46.318" lon="-1.07077">
        <ele>3.3</ele>
        <time>2020-06-02T13:17:40Z</time>
      </trkpt>
      <trkpt lat="46.31801" lon="-1.07076">
        <ele>3.3</ele>
        <time>2020-06-02T13:17:41Z</time>
      </trkpt>
      <trkpt lat="46.31801" lon="-1.07077">
        <ele>3.3</ele>
        <time>2020-06-02T13:17:42Z</time>
      </trkpt>
      <trkpt lat="46.31801" lon="-1.0708">
        <ele>3.3</ele>
        <time>2020-06-02T13:17:43Z</time>
      </trkpt>
      <trkpt lat="46.31801" lon="-1.07082">
        <ele>3.3</ele>
        <time>2020-06-02T13:17:44Z</time>
      </trkpt>
      <trkpt lat="46.31801" lon="-1.07084">
        <ele>3.3</ele>
        <time>2020-06-02T13:17:45Z</time>
      </trkpt>
      <trkpt lat="46.318" lon="-1.07088">
        <ele>3.3</ele>
        <time>2020-06-02T13:17:46Z</time>
      </trkpt>
      <trkpt lat="46.31799" lon="-1.0709">
        <ele>3.3</ele>
        <time>2020-06-02T13:17:47Z</time>
      </trkpt>
      <trkpt lat="46.31799" lon="-1.07092">
        <ele>3.3</ele>
        <time>2020-06-02T13:17:48Z</time>
      </trkpt>
      <trkpt lat="46.31798" lon="-1.07094">
        <ele>3.3</ele>
        <time>2020-06-02T13:17:49Z</time>
      </trkpt>
      <trkpt lat="46.31798" lon="-1.07095">
        <ele>3.3</ele>
        <time>2020-06-02T13:17:50Z</time>
      </trkpt>
      <trkpt lat="46.31797" lon="-1.07096">
        <ele>3.3</ele>
        <time>2020-06-02T13:17:51Z</time>
      </trkpt>
      <trkpt lat="46.31797" lon="-1.07098">
        <ele>3.3</ele>
        <time>2020-06-02T13:17:52Z</time>
      </trkpt>
      <trkpt lat="46.31796" lon="-1.071">
        <ele>3.3</ele>
        <time>2020-06-02T13:17:53Z</time>
      </trkpt>
      <trkpt lat="46.31794" lon="-1.07101">
        <ele>3.3</ele>
        <time>2020-06-02T13:17:54Z</time>
      </trkpt>
      <trkpt lat="46.31793" lon="-1.07102">
        <ele>3.3</ele>
        <time>2020-06-02T13:17:55Z</time>
      </trkpt>
      <trkpt lat="46.31792" lon="-1.07104">
        <ele>3.3</ele>
        <time>2020-06-02T13:17:56Z</time>
      </trkpt>
      <trkpt lat="46.3179" lon="-1.07105">
        <ele>3.3</ele>
        <time>2020-06-02T13:17:57Z</time>
      </trkpt>
      <trkpt lat="46.31789" lon="-1.07106">
        <ele>3.3</ele>
        <time>2020-06-02T13:17:58Z</time>
      </trkpt>
      <trkpt lat="46.31788" lon="-1.07108">
        <ele>3.3</ele>
        <time>2020-06-02T13:17:59Z</time>
      </trkpt>
      <trkpt lat="46.31787" lon="-1.0711">
        <ele>3.3</ele>
        <time>2020-06-02T13:18:00Z</time>
      </trkpt>
      <trkpt lat="46.31785" lon="-1.07111">
        <ele>3.3</ele>
        <time>2020-06-02T13:18:01Z</time>
      </trkpt>
      <trkpt lat="46.31785" lon="-1.07111">
        <ele>3.3</ele>
        <time>2020-06-02T13:18:02Z</time>
      </trkpt>
      <trkpt lat="46.31785" lon="-1.07112">
        <ele>3.3</ele>
        <time>2020-06-02T13:18:03Z</time>
      </trkpt>
      <trkpt lat="46.31785" lon="-1.07112">
        <ele>3.3</ele>
        <time>2020-06-02T13:18:04Z</time>
      </trkpt>
      <trkpt lat="46.31785" lon="-1.07113">
        <ele>3.3</ele>
        <time>2020-06-02T13:18:05Z</time>
      </trkpt>
      <trkpt lat="46.31785" lon="-1.07113">
        <ele>3.3</ele>
        <time>2020-06-02T13:18:06Z</time>
      </trkpt>
      <trkpt lat="46.31785" lon="-1.07114">
        <ele>3.3</ele>
        <time>2020-06-02T13:18:07Z</time>
      </trkpt>
      <trkpt lat="46.31785" lon="-1.07114">
        <ele>3.3</ele>
        <time>2020-06-02T13:18:08Z</time>
      </trkpt>
      <trkpt lat="46.31785" lon="-1.07115">
        <ele>3.3</ele>
        <time>2020-06-02T13:18:09Z</time>
      </trkpt>
      <trkpt lat="46.31785" lon="-1.07117">
        <ele>3.3</ele>
        <time>2020-06-02T13:18:10Z</time>
      </trkpt>
      <trkpt lat="46.31784" lon="-1.07119">
        <ele>3.3</ele>
        <time>2020-06-02T13:18:11Z</time>
      </trkpt>
      <trkpt lat="46.31785" lon="-1.07121">
        <ele>3.3</ele>
        <time>2020-06-02T13:18:12Z</time>
      </trkpt>
      <trkpt lat="46.31785" lon="-1.07124">
        <ele>3.3</ele>
        <time>2020-06-02T13:18:13Z</time>
      </trkpt>
      <trkpt lat="46.31785" lon="-1.07127">
        <ele>3.3</ele>
        <time>2020-06-02T13:18:14Z</time>
      </trkpt>
      <trkpt lat="46.31785" lon="-1.07128">
        <ele>3.3</ele>
        <time>2020-06-02T13:18:15Z</time>
      </trkpt>
      <trkpt lat="46.31785" lon="-1.0713">
        <ele>3.3</ele>
        <time>2020-06-02T13:18:16Z</time>
      </trkpt>
      <trkpt lat="46.31786" lon="-1.07131">
        <ele>3.3</ele>
        <time>2020-06-02T13:18:17Z</time>
      </trkpt>
      <trkpt lat="46.31786" lon="-1.07132">
        <ele>3.3</ele>
        <time>2020-06-02T13:18:18Z</time>
      </trkpt>
      <trkpt lat="46.31786" lon="-1.07134">
        <ele>3.3</ele>
        <time>2020-06-02T13:18:19Z</time>
      </trkpt>
      <trkpt lat="46.31786" lon="-1.07135">
        <ele>3.3</ele>
        <time>2020-06-02T13:18:20Z</time>
      </trkpt>
      <trkpt lat="46.31787" lon="-1.07136">
        <ele>3.3</ele>
        <time>2020-06-02T13:18:21Z</time>
      </trkpt>
      <trkpt lat="46.31788" lon="-1.07136">
        <ele>3.3</ele>
        <time>2020-06-02T13:18:22Z</time>
      </trkpt>
      <trkpt lat="46.31788" lon="-1.07137">
        <ele>3.3</ele>
        <time>2020-06-02T13:18:23Z</time>
      </trkpt>
      <trkpt lat="46.31789" lon="-1.07136">
        <ele>3.3</ele>
        <time>2020-06-02T13:18:24Z</time>
      </trkpt>
      <trkpt lat="46.31788" lon="-1.07138">
        <ele>3.3</ele>
        <time>2020-06-02T13:18:25Z</time>
      </trkpt>
      <trkpt lat="46.31788" lon="-1.07138">
        <ele>3.3</ele>
        <time>2020-06-02T13:18:26Z</time>
      </trkpt>
      <trkpt lat="46.31787" lon="-1.07138">
        <ele>3.3</ele>
        <time>2020-06-02T13:18:27Z</time>
      </trkpt>
      <trkpt lat="46.31787" lon="-1.07138">
        <ele>3.3</ele>
        <time>2020-06-02T13:18:28Z</time>
      </trkpt>
      <trkpt lat="46.31787" lon="-1.07138">
        <ele>3.3</ele>
        <time>2020-06-02T13:18:29Z</time>
      </trkpt>
      <trkpt lat="46.31786" lon="-1.07138">
        <ele>3.3</ele>
        <time>2020-06-02T13:18:30Z</time>
      </trkpt>
      <trkpt lat="46.31786" lon="-1.07138">
        <ele>3.3</ele>
        <time>2020-06-02T13:18:31Z</time>
      </trkpt>
      <trkpt lat="46.31786" lon="-1.07138">
        <ele>3.3</ele>
        <time>2020-06-02T13:18:32Z</time>
      </trkpt>
      <trkpt lat="46.31786" lon="-1.07138">
        <ele>3.3</ele>
        <time>2020-06-02T13:18:33Z</time>
      </trkpt>
      <trkpt lat="46.31785" lon="-1.07139">
        <ele>3.3</ele>
        <time>2020-06-02T13:18:34Z</time>
      </trkpt>
      <trkpt lat="46.31785" lon="-1.07139">
        <ele>3.3</ele>
        <time>2020-06-02T13:18:35Z</time>
      </trkpt>
      <trkpt lat="46.31784" lon="-1.07139">
        <ele>3.3</ele>
        <time>2020-06-02T13:18:36Z</time>
      </trkpt>
      <trkpt lat="46.31783" lon="-1.07139">
        <ele>3.3</ele>
        <time>2020-06-02T13:18:37Z</time>
      </trkpt>
      <trkpt lat="46.31782" lon="-1.0714">
        <ele>3.3</ele>
        <time>2020-06-02T13:18:38Z</time>
      </trkpt>
      <trkpt lat="46.31781" lon="-1.0714">
        <ele>3.3</ele>
        <time>2020-06-02T13:18:39Z</time>
      </trkpt>
      <trkpt lat="46.3178" lon="-1.07139">
        <ele>3.3</ele>
        <time>2020-06-02T13:18:40Z</time>
      </trkpt>
      <trkpt lat="46.31779" lon="-1.07138">
        <ele>3.3</ele>
        <time>2020-06-02T13:18:41Z</time>
      </trkpt>
      <trkpt lat="46.31779" lon="-1.07139">
        <ele>3.3</ele>
        <time>2020-06-02T13:18:42Z</time>
      </trkpt>
      <trkpt lat="46.31778" lon="-1.07139">
        <ele>3.3</ele>
        <time>2020-06-02T13:18:43Z</time>
      </trkpt>
      <trkpt lat="46.31778" lon="-1.07139">
        <ele>3.3</ele>
        <time>2020-06-02T13:18:44Z</time>
      </trkpt>
      <trkpt lat="46.31777" lon="-1.07139">
        <ele>3.3</ele>
        <time>2020-06-02T13:18:45Z</time>
      </trkpt>
      <trkpt lat="46.31777" lon="-1.07139">
        <ele>3.3</ele>
        <time>2020-06-02T13:18:46Z</time>
      </trkpt>
      <trkpt lat="46.31777" lon="-1.07139">
        <ele>3.3</ele>
        <time>2020-06-02T13:18:47Z</time>
      </trkpt>
      <trkpt lat="46.31777" lon="-1.07139">
        <ele>3.3</ele>
        <time>2020-06-02T13:18:48Z</time>
      </trkpt>
      <trkpt lat="46.31776" lon="-1.0714">
        <ele>3.3</ele>
        <time>2020-06-02T13:18:49Z</time>
      </trkpt>
      <trkpt lat="46.31776" lon="-1.0714">
        <ele>3.3</ele>
        <time>2020-06-02T13:18:50Z</time>
      </trkpt>
      <trkpt lat="46.31775" lon="-1.0714">
        <ele>3.3</ele>
        <time>2020-06-02T13:18:51Z</time>
      </trkpt>
      <trkpt lat="46.31776" lon="-1.07139">
        <ele>3.3</ele>
        <time>2020-06-02T13:18:52Z</time>
      </trkpt>
      <trkpt lat="46.31776" lon="-1.0714">
        <ele>3.3</ele>
        <time>2020-06-02T13:18:53Z</time>
      </trkpt>
      <trkpt lat="46.31777" lon="-1.0714">
        <ele>3.3</ele>
        <time>2020-06-02T13:18:54Z</time>
      </trkpt>
      <trkpt lat="46.31777" lon="-1.0714">
        <ele>3.3</ele>
        <time>2020-06-02T13:18:55Z</time>
      </trkpt>
      <trkpt lat="46.31778" lon="-1.0714">
        <ele>3.3</ele>
        <time>2020-06-02T13:18:56Z</time>
      </trkpt>
      <trkpt lat="46.3178" lon="-1.07141">
        <ele>3.3</ele>
        <time>2020-06-02T13:18:57Z</time>
      </trkpt>
      <trkpt lat="46.31781" lon="-1.07141">
        <ele>3.3</ele>
        <time>2020-06-02T13:18:58Z</time>
      </trkpt>
      <trkpt lat="46.31783" lon="-1.07141">
        <ele>3.3</ele>
        <time>2020-06-02T13:18:59Z</time>
      </trkpt>
      <trkpt lat="46.31784" lon="-1.0714">
        <ele>3.3</ele>
        <time>2020-06-02T13:19:00Z</time>
      </trkpt>
      <trkpt lat="46.31786" lon="-1.0714">
        <ele>3.3</ele>
        <time>2020-06-02T13:19:01Z</time>
      </trkpt>
      <trkpt lat="46.31787" lon="-1.0714">
        <ele>3.3</ele>
        <time>2020-06-02T13:19:02Z</time>
      </trkpt>
      <trkpt lat="46.31789" lon="-1.0714">
        <ele>3.3</ele>
        <time>2020-06-02T13:19:03Z</time>
      </trkpt>
      <trkpt lat="46.3179" lon="-1.0714">
        <ele>3.3</ele>
        <time>2020-06-02T13:19:04Z</time>
      </trkpt>
      <trkpt lat="46.31792" lon="-1.0714">
        <ele>3.4</ele>
        <time>2020-06-02T13:19:05Z</time>
      </trkpt>
      <trkpt lat="46.31795" lon="-1.07138">
        <ele>3.4</ele>
        <time>2020-06-02T13:19:06Z</time>
      </trkpt>
      <trkpt lat="46.31796" lon="-1.07138">
        <ele>3.4</ele>
        <time>2020-06-02T13:19:07Z</time>
      </trkpt>
      <trkpt lat="46.31799" lon="-1.07138">
        <ele>3.4</ele>
        <time>2020-06-02T13:19:08Z</time>
      </trkpt>
      <trkpt lat="46.31802" lon="-1.07138">
        <ele>3.4</ele>
        <time>2020-06-02T13:19:09Z</time>
      </trkpt>
      <trkpt lat="46.31806" lon="-1.07138">
        <ele>3.4</ele>
        <time>2020-06-02T13:19:10Z</time>
      </trkpt>
      <trkpt lat="46.3181" lon="-1.07137">
        <ele>3.4</ele>
        <time>2020-06-02T13:19:11Z</time>
      </trkpt>
      <trkpt lat="46.31814" lon="-1.07138">
        <ele>3.4</ele>
        <time>2020-06-02T13:19:12Z</time>
      </trkpt>
      <trkpt lat="46.31818" lon="-1.07138">
        <ele>3.4</ele>
        <time>2020-06-02T13:19:13Z</time>
      </trkpt>
      <trkpt lat="46.31822" lon="-1.07138">
        <ele>3.4</ele>
        <time>2020-06-02T13:19:14Z</time>
      </trkpt>
      <trkpt lat="46.31826" lon="-1.07138">
        <ele>3.4</ele>
        <time>2020-06-02T13:19:15Z</time>
      </trkpt>
      <trkpt lat="46.31829" lon="-1.07137">
        <ele>3.4</ele>
        <time>2020-06-02T13:19:16Z</time>
      </trkpt>
      <trkpt lat="46.31833" lon="-1.07136">
        <ele>3.4</ele>
        <time>2020-06-02T13:19:17Z</time>
      </trkpt>
      <trkpt lat="46.31837" lon="-1.07137">
        <ele>3.3</ele>
        <time>2020-06-02T13:19:18Z</time>
      </trkpt>
      <trkpt lat="46.3184" lon="-1.07138">
        <ele>3.3</ele>
        <time>2020-06-02T13:19:19Z</time>
      </trkpt>
      <trkpt lat="46.31843" lon="-1.0714">
        <ele>3.3</ele>
        <time>2020-06-02T13:19:20Z</time>
      </trkpt>
      <trkpt lat="46.31847" lon="-1.07142">
        <ele>3.3</ele>
        <time>2020-06-02T13:19:21Z</time>
      </trkpt>
      <trkpt lat="46.3185" lon="-1.07143">
        <ele>3.2</ele>
        <time>2020-06-02T13:19:22Z</time>
      </trkpt>
      <trkpt lat="46.31853" lon="-1.07145">
        <ele>3.2</ele>
        <time>2020-06-02T13:19:23Z</time>
      </trkpt>
      <trkpt lat="46.31856" lon="-1.07148">
        <ele>3.2</ele>
        <time>2020-06-02T13:19:24Z</time>
      </trkpt>
      <trkpt lat="46.31859" lon="-1.07151">
        <ele>3.2</ele>
        <time>2020-06-02T13:19:25Z</time>
      </trkpt>
      <trkpt lat="46.31861" lon="-1.07155">
        <ele>3.2</ele>
        <time>2020-06-02T13:19:26Z</time>
      </trkpt>
      <trkpt lat="46.31863" lon="-1.0716">
        <ele>3.2</ele>
        <time>2020-06-02T13:19:27Z</time>
      </trkpt>
      <trkpt lat="46.31866" lon="-1.07164">
        <ele>3.2</ele>
        <time>2020-06-02T13:19:28Z</time>
      </trkpt>
      <trkpt lat="46.31868" lon="-1.07169">
        <ele>3.2</ele>
        <time>2020-06-02T13:19:29Z</time>
      </trkpt>
      <trkpt lat="46.3187" lon="-1.07175">
        <ele>3.2</ele>
        <time>2020-06-02T13:19:30Z</time>
      </trkpt>
      <trkpt lat="46.31872" lon="-1.07179">
        <ele>3.3</ele>
        <time>2020-06-02T13:19:31Z</time>
      </trkpt>
      <trkpt lat="46.31874" lon="-1.07184">
        <ele>3.3</ele>
        <time>2020-06-02T13:19:32Z</time>
      </trkpt>
      <trkpt lat="46.31876" lon="-1.07189">
        <ele>3.3</ele>
        <time>2020-06-02T13:19:33Z</time>
      </trkpt>
      <trkpt lat="46.31877" lon="-1.07195">
        <ele>3.4</ele>
        <time>2020-06-02T13:19:34Z</time>
      </trkpt>
      <trkpt lat="46.31879" lon="-1.07201">
        <ele>3.4</ele>
        <time>2020-06-02T13:19:35Z</time>
      </trkpt>
      <trkpt lat="46.31881" lon="-1.07206">
        <ele>3.4</ele>
        <time>2020-06-02T13:19:36Z</time>
      </trkpt>
      <trkpt lat="46.31884" lon="-1.07212">
        <ele>3.5</ele>
        <time>2020-06-02T13:19:37Z</time>
      </trkpt>
      <trkpt lat="46.31887" lon="-1.07217">
        <ele>3.5</ele>
        <time>2020-06-02T13:19:38Z</time>
      </trkpt>
      <trkpt lat="46.31889" lon="-1.07222">
        <ele>3.6</ele>
        <time>2020-06-02T13:19:39Z</time>
      </trkpt>
      <trkpt lat="46.31892" lon="-1.07228">
        <ele>3.6</ele>
        <time>2020-06-02T13:19:40Z</time>
      </trkpt>
      <trkpt lat="46.31895" lon="-1.07233">
        <ele>3.7</ele>
        <time>2020-06-02T13:19:41Z</time>
      </trkpt>
      <trkpt lat="46.31897" lon="-1.07239">
        <ele>3.7</ele>
        <time>2020-06-02T13:19:42Z</time>
      </trkpt>
      <trkpt lat="46.31899" lon="-1.07245">
        <ele>3.8</ele>
        <time>2020-06-02T13:19:43Z</time>
      </trkpt>
      <trkpt lat="46.31901" lon="-1.07251">
        <ele>3.8</ele>
        <time>2020-06-02T13:19:44Z</time>
      </trkpt>
      <trkpt lat="46.31904" lon="-1.07258">
        <ele>3.9</ele>
        <time>2020-06-02T13:19:45Z</time>
      </trkpt>
      <trkpt lat="46.31906" lon="-1.07264">
        <ele>3.9</ele>
        <time>2020-06-02T13:19:46Z</time>
      </trkpt>
      <trkpt lat="46.31909" lon="-1.0727">
        <ele>4</ele>
        <time>2020-06-02T13:19:47Z</time>
      </trkpt>
      <trkpt lat="46.31911" lon="-1.07277">
        <ele>4</ele>
        <time>2020-06-02T13:19:48Z</time>
      </trkpt>
      <trkpt lat="46.31913" lon="-1.07283">
        <ele>4.1</ele>
        <time>2020-06-02T13:19:49Z</time>
      </trkpt>
      <trkpt lat="46.31915" lon="-1.07289">
        <ele>4.1</ele>
        <time>2020-06-02T13:19:50Z</time>
      </trkpt>
      <trkpt lat="46.31918" lon="-1.07295">
        <ele>4.1</ele>
        <time>2020-06-02T13:19:51Z</time>
      </trkpt>
      <trkpt lat="46.3192" lon="-1.07302">
        <ele>4.2</ele>
        <time>2020-06-02T13:19:52Z</time>
      </trkpt>
      <trkpt lat="46.31922" lon="-1.07309">
        <ele>4.2</ele>
        <time>2020-06-02T13:19:53Z</time>
      </trkpt>
      <trkpt lat="46.31924" lon="-1.07315">
        <ele>4.2</ele>
        <time>2020-06-02T13:19:54Z</time>
      </trkpt>
      <trkpt lat="46.31927" lon="-1.07322">
        <ele>4.3</ele>
        <time>2020-06-02T13:19:55Z</time>
      </trkpt>
      <trkpt lat="46.31929" lon="-1.07328">
        <ele>4.3</ele>
        <time>2020-06-02T13:19:56Z</time>
      </trkpt>
      <trkpt lat="46.31932" lon="-1.07334">
        <ele>4.3</ele>
        <time>2020-06-02T13:19:57Z</time>
      </trkpt>
      <trkpt lat="46.31933" lon="-1.07341">
        <ele>4.4</ele>
        <time>2020-06-02T13:19:58Z</time>
      </trkpt>
      <trkpt lat="46.31936" lon="-1.07347">
        <ele>4.4</ele>
        <time>2020-06-02T13:19:59Z</time>
      </trkpt>
      <trkpt lat="46.31938" lon="-1.07352">
        <ele>4.5</ele>
        <time>2020-06-02T13:20:00Z</time>
      </trkpt>
      <trkpt lat="46.31939" lon="-1.07357">
        <ele>4.6</ele>
        <time>2020-06-02T13:20:01Z</time>
      </trkpt>
      <trkpt lat="46.31941" lon="-1.07363">
        <ele>4.7</ele>
        <time>2020-06-02T13:20:02Z</time>
      </trkpt>
      <trkpt lat="46.31942" lon="-1.0737">
        <ele>4.8</ele>
        <time>2020-06-02T13:20:03Z</time>
      </trkpt>
      <trkpt lat="46.31943" lon="-1.07376">
        <ele>4.9</ele>
        <time>2020-06-02T13:20:04Z</time>
      </trkpt>
      <trkpt lat="46.31943" lon="-1.07383">
        <ele>5</ele>
        <time>2020-06-02T13:20:05Z</time>
      </trkpt>
      <trkpt lat="46.31944" lon="-1.07389">
        <ele>5.1</ele>
        <time>2020-06-02T13:20:06Z</time>
      </trkpt>
      <trkpt lat="46.31944" lon="-1.07394">
        <ele>5.2</ele>
        <time>2020-06-02T13:20:07Z</time>
      </trkpt>
      <trkpt lat="46.31944" lon="-1.07399">
        <ele>5.3</ele>
        <time>2020-06-02T13:20:08Z</time>
      </trkpt>
      <trkpt lat="46.31944" lon="-1.07405">
        <ele>5.5</ele>
        <time>2020-06-02T13:20:09Z</time>
      </trkpt>
      <trkpt lat="46.31943" lon="-1.07412">
        <ele>5.6</ele>
        <time>2020-06-02T13:20:10Z</time>
      </trkpt>
      <trkpt lat="46.31942" lon="-1.07418">
        <ele>5.7</ele>
        <time>2020-06-02T13:20:11Z</time>
      </trkpt>
      <trkpt lat="46.31942" lon="-1.07423">
        <ele>5.7</ele>
        <time>2020-06-02T13:20:12Z</time>
      </trkpt>
      <trkpt lat="46.31942" lon="-1.07425">
        <ele>5.7</ele>
        <time>2020-06-02T13:20:13Z</time>
      </trkpt>
      <trkpt lat="46.31941" lon="-1.0743">
        <ele>5.7</ele>
        <time>2020-06-02T13:20:14Z</time>
      </trkpt>
      <trkpt lat="46.31941" lon="-1.07432">
        <ele>5.7</ele>
        <time>2020-06-02T13:20:15Z</time>
      </trkpt>
      <trkpt lat="46.3194" lon="-1.07436">
        <ele>5.8</ele>
        <time>2020-06-02T13:20:16Z</time>
      </trkpt>
      <trkpt lat="46.31939" lon="-1.07442">
        <ele>5.8</ele>
        <time>2020-06-02T13:20:17Z</time>
      </trkpt>
      <trkpt lat="46.31939" lon="-1.07445">
        <ele>5.8</ele>
        <time>2020-06-02T13:20:18Z</time>
      </trkpt>
      <trkpt lat="46.31938" lon="-1.0745">
        <ele>5.8</ele>
        <time>2020-06-02T13:20:19Z</time>
      </trkpt>
      <trkpt lat="46.31938" lon="-1.07452">
        <ele>5.8</ele>
        <time>2020-06-02T13:20:20Z</time>
      </trkpt>
      <trkpt lat="46.31937" lon="-1.07455">
        <ele>5.8</ele>
        <time>2020-06-02T13:20:21Z</time>
      </trkpt>
      <trkpt lat="46.31937" lon="-1.07457">
        <ele>5.8</ele>
        <time>2020-06-02T13:20:22Z</time>
      </trkpt>
      <trkpt lat="46.31936" lon="-1.07461">
        <ele>5.8</ele>
        <time>2020-06-02T13:20:23Z</time>
      </trkpt>
      <trkpt lat="46.31936" lon="-1.07463">
        <ele>5.8</ele>
        <time>2020-06-02T13:20:24Z</time>
      </trkpt>
      <trkpt lat="46.31936" lon="-1.07465">
        <ele>5.8</ele>
        <time>2020-06-02T13:20:25Z</time>
      </trkpt>
      <trkpt lat="46.31935" lon="-1.07467">
        <ele>5.8</ele>
        <time>2020-06-02T13:20:26Z</time>
      </trkpt>
      <trkpt lat="46.31934" lon="-1.07469">
        <ele>5.8</ele>
        <time>2020-06-02T13:20:27Z</time>
      </trkpt>
      <trkpt lat="46.31933" lon="-1.07472">
        <ele>5.8</ele>
        <time>2020-06-02T13:20:28Z</time>
      </trkpt>
      <trkpt lat="46.31933" lon="-1.07476">
        <ele>5.8</ele>
        <time>2020-06-02T13:20:29Z</time>
      </trkpt>
      <trkpt lat="46.31933" lon="-1.07478">
        <ele>5.8</ele>
        <time>2020-06-02T13:20:30Z</time>
      </trkpt>
      <trkpt lat="46.31933" lon="-1.07483">
        <ele>5.8</ele>
        <time>2020-06-02T13:20:31Z</time>
      </trkpt>
      <trkpt lat="46.31933" lon="-1.07485">
        <ele>5.8</ele>
        <time>2020-06-02T13:20:32Z</time>
      </trkpt>
      <trkpt lat="46.31932" lon="-1.0749">
        <ele>5.8</ele>
        <time>2020-06-02T13:20:33Z</time>
      </trkpt>
      <trkpt lat="46.31932" lon="-1.07492">
        <ele>5.8</ele>
        <time>2020-06-02T13:20:34Z</time>
      </trkpt>
      <trkpt lat="46.31932" lon="-1.07496">
        <ele>5.8</ele>
        <time>2020-06-02T13:20:35Z</time>
      </trkpt>
      <trkpt lat="46.31931" lon="-1.075">
        <ele>5.8</ele>
        <time>2020-06-02T13:20:36Z</time>
      </trkpt>
      <trkpt lat="46.3193" lon="-1.07504">
        <ele>5.8</ele>
        <time>2020-06-02T13:20:37Z</time>
      </trkpt>
      <trkpt lat="46.3193" lon="-1.07506">
        <ele>5.8</ele>
        <time>2020-06-02T13:20:38Z</time>
      </trkpt>
      <trkpt lat="46.31929" lon="-1.07508">
        <ele>5.8</ele>
        <time>2020-06-02T13:20:39Z</time>
      </trkpt>
      <trkpt lat="46.31929" lon="-1.0751">
        <ele>5.8</ele>
        <time>2020-06-02T13:20:40Z</time>
      </trkpt>
      <trkpt lat="46.31929" lon="-1.07509">
        <ele>5.8</ele>
        <time>2020-06-02T13:20:41Z</time>
      </trkpt>
      <trkpt lat="46.31928" lon="-1.0751">
        <ele>5.8</ele>
        <time>2020-06-02T13:20:42Z</time>
      </trkpt>
      <trkpt lat="46.31928" lon="-1.0751">
        <ele>5.8</ele>
        <time>2020-06-02T13:20:43Z</time>
      </trkpt>
      <trkpt lat="46.31928" lon="-1.07509">
        <ele>5.8</ele>
        <time>2020-06-02T13:20:44Z</time>
      </trkpt>
      <trkpt lat="46.31928" lon="-1.07509">
        <ele>5.8</ele>
        <time>2020-06-02T13:20:45Z</time>
      </trkpt>
      <trkpt lat="46.31928" lon="-1.07509">
        <ele>5.8</ele>
        <time>2020-06-02T13:20:46Z</time>
      </trkpt>
      <trkpt lat="46.31927" lon="-1.07508">
        <ele>5.8</ele>
        <time>2020-06-02T13:20:47Z</time>
      </trkpt>
      <trkpt lat="46.31927" lon="-1.07508">
        <ele>5.8</ele>
        <time>2020-06-02T13:20:48Z</time>
      </trkpt>
      <trkpt lat="46.31926" lon="-1.07508">
        <ele>5.8</ele>
        <time>2020-06-02T13:20:49Z</time>
      </trkpt>
      <trkpt lat="46.31926" lon="-1.07507">
        <ele>5.8</ele>
        <time>2020-06-02T13:20:50Z</time>
      </trkpt>
      <trkpt lat="46.31927" lon="-1.07507">
        <ele>5.8</ele>
        <time>2020-06-02T13:20:51Z</time>
      </trkpt>
      <trkpt lat="46.31926" lon="-1.07507">
        <ele>5.8</ele>
        <time>2020-06-02T13:20:52Z</time>
      </trkpt>
      <trkpt lat="46.31926" lon="-1.07507">
        <ele>5.8</ele>
        <time>2020-06-02T13:20:53Z</time>
      </trkpt>
      <trkpt lat="46.31926" lon="-1.07505">
        <ele>5.8</ele>
        <time>2020-06-02T13:20:54Z</time>
      </trkpt>
      <trkpt lat="46.31926" lon="-1.07505">
        <ele>5.8</ele>
        <time>2020-06-02T13:20:55Z</time>
      </trkpt>
      <trkpt lat="46.31926" lon="-1.07505">
        <ele>5.8</ele>
        <time>2020-06-02T13:20:56Z</time>
      </trkpt>
      <trkpt lat="46.31927" lon="-1.07505">
        <ele>5.8</ele>
        <time>2020-06-02T13:20:57Z</time>
      </trkpt>
      <trkpt lat="46.31927" lon="-1.07505">
        <ele>5.8</ele>
        <time>2020-06-02T13:20:58Z</time>
      </trkpt>
      <trkpt lat="46.31927" lon="-1.07504">
        <ele>5.8</ele>
        <time>2020-06-02T13:20:59Z</time>
      </trkpt>
      <trkpt lat="46.31927" lon="-1.07503">
        <ele>5.8</ele>
        <time>2020-06-02T13:21:00Z</time>
      </trkpt>
      <trkpt lat="46.31928" lon="-1.07503">
        <ele>5.8</ele>
        <time>2020-06-02T13:21:01Z</time>
      </trkpt>
      <trkpt lat="46.31928" lon="-1.07503">
        <ele>5.8</ele>
        <time>2020-06-02T13:21:02Z</time>
      </trkpt>
      <trkpt lat="46.31928" lon="-1.07503">
        <ele>5.8</ele>
        <time>2020-06-02T13:21:03Z</time>
      </trkpt>
      <trkpt lat="46.31929" lon="-1.07503">
        <ele>5.8</ele>
        <time>2020-06-02T13:21:04Z</time>
      </trkpt>
      <trkpt lat="46.31929" lon="-1.07502">
        <ele>5.8</ele>
        <time>2020-06-02T13:21:05Z</time>
      </trkpt>
      <trkpt lat="46.31929" lon="-1.07503">
        <ele>5.8</ele>
        <time>2020-06-02T13:21:06Z</time>
      </trkpt>
      <trkpt lat="46.31929" lon="-1.07504">
        <ele>5.8</ele>
        <time>2020-06-02T13:21:07Z</time>
      </trkpt>
      <trkpt lat="46.31929" lon="-1.07505">
        <ele>5.8</ele>
        <time>2020-06-02T13:21:08Z</time>
      </trkpt>
      <trkpt lat="46.31928" lon="-1.07505">
        <ele>5.8</ele>
        <time>2020-06-02T13:21:09Z</time>
      </trkpt>
      <trkpt lat="46.31928" lon="-1.07505">
        <ele>5.8</ele>
        <time>2020-06-02T13:21:10Z</time>
      </trkpt>
      <trkpt lat="46.31928" lon="-1.07505">
        <ele>5.8</ele>
        <time>2020-06-02T13:21:11Z</time>
      </trkpt>
      <trkpt lat="46.31928" lon="-1.07506">
        <ele>5.8</ele>
        <time>2020-06-02T13:21:12Z</time>
      </trkpt>
      <trkpt lat="46.31928" lon="-1.07506">
        <ele>5.8</ele>
        <time>2020-06-02T13:21:13Z</time>
      </trkpt>
      <trkpt lat="46.31928" lon="-1.07506">
        <ele>5.8</ele>
        <time>2020-06-02T13:21:14Z</time>
      </trkpt>
      <trkpt lat="46.31928" lon="-1.07506">
        <ele>5.8</ele>
        <time>2020-06-02T13:21:15Z</time>
      </trkpt>
      <trkpt lat="46.31928" lon="-1.07506">
        <ele>5.8</ele>
        <time>2020-06-02T13:21:16Z</time>
      </trkpt>
      <trkpt lat="46.31928" lon="-1.07506">
        <ele>5.8</ele>
        <time>2020-06-02T13:21:17Z</time>
      </trkpt>
      <trkpt lat="46.31928" lon="-1.07506">
        <ele>5.8</ele>
        <time>2020-06-02T13:21:18Z</time>
      </trkpt>
      <trkpt lat="46.31928" lon="-1.07506">
        <ele>5.8</ele>
        <time>2020-06-02T13:21:19Z</time>
      </trkpt>
      <trkpt lat="46.31928" lon="-1.07506">
        <ele>5.8</ele>
        <time>2020-06-02T13:21:20Z</time>
      </trkpt>
      <trkpt lat="46.31928" lon="-1.07506">
        <ele>5.8</ele>
        <time>2020-06-02T13:21:21Z</time>
      </trkpt>
      <trkpt lat="46.31928" lon="-1.07506">
        <ele>5.8</ele>
        <time>2020-06-02T13:21:22Z</time>
      </trkpt>
      <trkpt lat="46.31928" lon="-1.07506">
        <ele>5.8</ele>
        <time>2020-06-02T13:21:23Z</time>
      </trkpt>
      <trkpt lat="46.31928" lon="-1.07506">
        <ele>5.8</ele>
        <time>2020-06-02T13:21:24Z</time>
      </trkpt>
      <trkpt lat="46.31928" lon="-1.07506">
        <ele>5.8</ele>
        <time>2020-06-02T13:21:25Z</time>
      </trkpt>
      <trkpt lat="46.31928" lon="-1.07506">
        <ele>5.8</ele>
        <time>2020-06-02T13:21:26Z</time>
      </trkpt>
      <trkpt lat="46.31928" lon="-1.07507">
        <ele>5.8</ele>
        <time>2020-06-02T13:21:27Z</time>
      </trkpt>
      <trkpt lat="46.31928" lon="-1.07507">
        <ele>5.8</ele>
        <time>2020-06-02T13:21:28Z</time>
      </trkpt>
      <trkpt lat="46.31928" lon="-1.07507">
        <ele>5.8</ele>
        <time>2020-06-02T13:21:29Z</time>
      </trkpt>
      <trkpt lat="46.31928" lon="-1.07507">
        <ele>5.8</ele>
        <time>2020-06-02T13:21:30Z</time>
      </trkpt>
      <trkpt lat="46.31928" lon="-1.07507">
        <ele>5.8</ele>
        <time>2020-06-02T13:21:31Z</time>
      </trkpt>
      <trkpt lat="46.31928" lon="-1.07507">
        <ele>5.8</ele>
        <time>2020-06-02T13:21:32Z</time>
      </trkpt>
      <trkpt lat="46.31927" lon="-1.07507">
        <ele>5.8</ele>
        <time>2020-06-02T13:21:33Z</time>
      </trkpt>
      <trkpt lat="46.31927" lon="-1.07507">
        <ele>5.8</ele>
        <time>2020-06-02T13:21:34Z</time>
      </trkpt>
      <trkpt lat="46.31927" lon="-1.07507">
        <ele>5.8</ele>
        <time>2020-06-02T13:21:35Z</time>
      </trkpt>
      <trkpt lat="46.31927" lon="-1.07507">
        <ele>5.8</ele>
        <time>2020-06-02T13:21:36Z</time>
      </trkpt>
      <trkpt lat="46.31927" lon="-1.07507">
        <ele>5.8</ele>
        <time>2020-06-02T13:21:37Z</time>
      </trkpt>
      <trkpt lat="46.31927" lon="-1.07507">
        <ele>5.8</ele>
        <time>2020-06-02T13:21:38Z</time>
      </trkpt>
      <trkpt lat="46.31927" lon="-1.07507">
        <ele>5.8</ele>
        <time>2020-06-02T13:21:39Z</time>
      </trkpt>
      <trkpt lat="46.31927" lon="-1.07507">
        <ele>5.8</ele>
        <time>2020-06-02T13:21:40Z</time>
      </trkpt>
      <trkpt lat="46.31927" lon="-1.07507">
        <ele>5.8</ele>
        <time>2020-06-02T13:21:41Z</time>
      </trkpt>
      <trkpt lat="46.31927" lon="-1.07507">
        <ele>5.8</ele>
        <time>2020-06-02T13:21:42Z</time>
      </trkpt>
      <trkpt lat="46.31927" lon="-1.07507">
        <ele>5.8</ele>
        <time>2020-06-02T13:21:43Z</time>
      </trkpt>
      <trkpt lat="46.31927" lon="-1.07507">
        <ele>5.8</ele>
        <time>2020-06-02T13:21:44Z</time>
      </trkpt>
      <trkpt lat="46.31927" lon="-1.07507">
        <ele>5.8</ele>
        <time>2020-06-02T13:21:45Z</time>
      </trkpt>
      <trkpt lat="46.31927" lon="-1.07507">
        <ele>5.8</ele>
        <time>2020-06-02T13:21:46Z</time>
      </trkpt>
      <trkpt lat="46.31927" lon="-1.07507">
        <ele>5.8</ele>
        <time>2020-06-02T13:21:47Z</time>
      </trkpt>
      <trkpt lat="46.31927" lon="-1.07507">
        <ele>5.8</ele>
        <time>2020-06-02T13:21:48Z</time>
      </trkpt>
      <trkpt lat="46.31927" lon="-1.07507">
        <ele>5.8</ele>
        <time>2020-06-02T13:21:49Z</time>
      </trkpt>
      <trkpt lat="46.31927" lon="-1.07507">
        <ele>5.8</ele>
        <time>2020-06-02T13:21:50Z</time>
      </trkpt>
      <trkpt lat="46.31927" lon="-1.07507">
        <ele>5.8</ele>
        <time>2020-06-02T13:21:51Z</time>
      </trkpt>
      <trkpt lat="46.31927" lon="-1.07507">
        <ele>5.8</ele>
        <time>2020-06-02T13:21:52Z</time>
      </trkpt>
      <trkpt lat="46.31927" lon="-1.07507">
        <ele>5.8</ele>
        <time>2020-06-02T13:21:53Z</time>
      </trkpt>
      <trkpt lat="46.31927" lon="-1.07507">
        <ele>5.8</ele>
        <time>2020-06-02T13:21:54Z</time>
      </trkpt>
      <trkpt lat="46.31927" lon="-1.07507">
        <ele>5.8</ele>
        <time>2020-06-02T13:21:55Z</time>
      </trkpt>
      <trkpt lat="46.31927" lon="-1.07507">
        <ele>5.8</ele>
        <time>2020-06-02T13:21:56Z</time>
      </trkpt>
      <trkpt lat="46.31927" lon="-1.07507">
        <ele>5.8</ele>
        <time>2020-06-02T13:21:57Z</time>
      </trkpt>
      <trkpt lat="46.31927" lon="-1.07507">
        <ele>5.8</ele>
        <time>2020-06-02T13:21:58Z</time>
      </trkpt>
      <trkpt lat="46.31927" lon="-1.07507">
        <ele>5.8</ele>
        <time>2020-06-02T13:21:59Z</time>
      </trkpt>
      <trkpt lat="46.31927" lon="-1.07507">
        <ele>5.8</ele>
        <time>2020-06-02T13:22:00Z</time>
      </trkpt>
      <trkpt lat="46.31927" lon="-1.07507">
        <ele>5.8</ele>
        <time>2020-06-02T13:22:01Z</time>
      </trkpt>
      <trkpt lat="46.31927" lon="-1.07507">
        <ele>5.8</ele>
        <time>2020-06-02T13:22:02Z</time>
      </trkpt>
      <trkpt lat="46.31927" lon="-1.07507">
        <ele>5.8</ele>
        <time>2020-06-02T13:22:03Z</time>
      </trkpt>
      <trkpt lat="46.31927" lon="-1.07507">
        <ele>5.8</ele>
        <time>2020-06-02T13:22:04Z</time>
      </trkpt>
      <trkpt lat="46.31927" lon="-1.07507">
        <ele>5.8</ele>
        <time>2020-06-02T13:22:05Z</time>
      </trkpt>
      <trkpt lat="46.31927" lon="-1.07507">
        <ele>5.8</ele>
        <time>2020-06-02T13:22:06Z</time>
      </trkpt>
      <trkpt lat="46.31927" lon="-1.07507">
        <ele>5.8</ele>
        <time>2020-06-02T13:22:07Z</time>
      </trkpt>
      <trkpt lat="46.31927" lon="-1.07507">
        <ele>5.8</ele>
        <time>2020-06-02T13:22:08Z</time>
      </trkpt>
      <trkpt lat="46.31927" lon="-1.07507">
        <ele>5.8</ele>
        <time>2020-06-02T13:22:09Z</time>
      </trkpt>
      <trkpt lat="46.31927" lon="-1.07507">
        <ele>5.8</ele>
        <time>2020-06-02T13:22:10Z</time>
      </trkpt>
      <trkpt lat="46.31927" lon="-1.07507">
        <ele>5.8</ele>
        <time>2020-06-02T13:22:11Z</time>
      </trkpt>
      <trkpt lat="46.31927" lon="-1.07507">
        <ele>5.8</ele>
        <time>2020-06-02T13:22:12Z</time>
      </trkpt>
      <trkpt lat="46.31927" lon="-1.07507">
        <ele>5.8</ele>
        <time>2020-06-02T13:22:13Z</time>
      </trkpt>
      <trkpt lat="46.31927" lon="-1.07507">
        <ele>5.8</ele>
        <time>2020-06-02T13:22:14Z</time>
      </trkpt>
      <trkpt lat="46.31927" lon="-1.07508">
        <ele>5.8</ele>
        <time>2020-06-02T13:22:15Z</time>
      </trkpt>
      <trkpt lat="46.31927" lon="-1.07507">
        <ele>5.8</ele>
        <time>2020-06-02T13:22:16Z</time>
      </trkpt>
      <trkpt lat="46.31927" lon="-1.07507">
        <ele>5.8</ele>
        <time>2020-06-02T13:22:17Z</time>
      </trkpt>
      <trkpt lat="46.31927" lon="-1.07507">
        <ele>5.8</ele>
        <time>2020-06-02T13:22:18Z</time>
      </trkpt>
      <trkpt lat="46.31927" lon="-1.07507">
        <ele>5.8</ele>
        <time>2020-06-02T13:22:19Z</time>
      </trkpt>
      <trkpt lat="46.31927" lon="-1.07507">
        <ele>5.8</ele>
        <time>2020-06-02T13:22:20Z</time>
      </trkpt>
      <trkpt lat="46.31927" lon="-1.07507">
        <ele>5.8</ele>
        <time>2020-06-02T13:22:21Z</time>
      </trkpt>
      <trkpt lat="46.31927" lon="-1.07507">
        <ele>5.8</ele>
        <time>2020-06-02T13:22:22Z</time>
      </trkpt>
      <trkpt lat="46.31927" lon="-1.07507">
        <ele>5.8</ele>
        <time>2020-06-02T13:22:23Z</time>
      </trkpt>
      <trkpt lat="46.31927" lon="-1.07507">
        <ele>5.8</ele>
        <time>2020-06-02T13:22:24Z</time>
      </trkpt>
      <trkpt lat="46.31927" lon="-1.07507">
        <ele>5.8</ele>
        <time>2020-06-02T13:22:25Z</time>
      </trkpt>
      <trkpt lat="46.31927" lon="-1.07507">
        <ele>5.8</ele>
        <time>2020-06-02T13:22:26Z</time>
      </trkpt>
      <trkpt lat="46.31927" lon="-1.07507">
        <ele>5.8</ele>
        <time>2020-06-02T13:22:27Z</time>
      </trkpt>
      <trkpt lat="46.31927" lon="-1.07507">
        <ele>5.8</ele>
        <time>2020-06-02T13:22:28Z</time>
      </trkpt>
      <trkpt lat="46.31927" lon="-1.07507">
        <ele>5.8</ele>
        <time>2020-06-02T13:22:29Z</time>
      </trkpt>
      <trkpt lat="46.31927" lon="-1.07507">
        <ele>5.8</ele>
        <time>2020-06-02T13:22:30Z</time>
      </trkpt>
      <trkpt lat="46.31927" lon="-1.07507">
        <ele>5.8</ele>
        <time>2020-06-02T13:22:31Z</time>
      </trkpt>
      <trkpt lat="46.31927" lon="-1.07507">
        <ele>5.8</ele>
        <time>2020-06-02T13:22:32Z</time>
      </trkpt>
      <trkpt lat="46.31927" lon="-1.07507">
        <ele>5.8</ele>
        <time>2020-06-02T13:22:33Z</time>
      </trkpt>
      <trkpt lat="46.31927" lon="-1.07507">
        <ele>5.8</ele>
        <time>2020-06-02T13:22:34Z</time>
      </trkpt>
      <trkpt lat="46.31927" lon="-1.07507">
        <ele>5.8</ele>
        <time>2020-06-02T13:22:35Z</time>
      </trkpt>
      <trkpt lat="46.31927" lon="-1.07507">
        <ele>5.8</ele>
        <time>2020-06-02T13:22:36Z</time>
      </trkpt>
      <trkpt lat="46.31928" lon="-1.07507">
        <ele>5.8</ele>
        <time>2020-06-02T13:22:37Z</time>
      </trkpt>
      <trkpt lat="46.31927" lon="-1.07507">
        <ele>5.8</ele>
        <time>2020-06-02T13:22:38Z</time>
      </trkpt>
      <trkpt lat="46.31927" lon="-1.07507">
        <ele>5.8</ele>
        <time>2020-06-02T13:22:39Z</time>
      </trkpt>
      <trkpt lat="46.31927" lon="-1.07507">
        <ele>5.8</ele>
        <time>2020-06-02T13:22:40Z</time>
      </trkpt>
      <trkpt lat="46.31927" lon="-1.07507">
        <ele>5.8</ele>
        <time>2020-06-02T13:22:41Z</time>
      </trkpt>
      <trkpt lat="46.31927" lon="-1.07507">
        <ele>5.8</ele>
        <time>2020-06-02T13:22:42Z</time>
      </trkpt>
      <trkpt lat="46.31927" lon="-1.07507">
        <ele>5.8</ele>
        <time>2020-06-02T13:22:43Z</time>
      </trkpt>
      <trkpt lat="46.31927" lon="-1.07507">
        <ele>5.8</ele>
        <time>2020-06-02T13:22:44Z</time>
      </trkpt>
      <trkpt lat="46.31927" lon="-1.07507">
        <ele>5.8</ele>
        <time>2020-06-02T13:22:45Z</time>
      </trkpt>
      <trkpt lat="46.31927" lon="-1.07507">
        <ele>5.8</ele>
        <time>2020-06-02T13:22:46Z</time>
      </trkpt>
      <trkpt lat="46.31927" lon="-1.07507">
        <ele>5.8</ele>
        <time>2020-06-02T13:22:47Z</time>
      </trkpt>
      <trkpt lat="46.31927" lon="-1.07507">
        <ele>5.8</ele>
        <time>2020-06-02T13:22:48Z</time>
      </trkpt>
      <trkpt lat="46.31927" lon="-1.07507">
        <ele>5.8</ele>
        <time>2020-06-02T13:22:49Z</time>
      </trkpt>
      <trkpt lat="46.31927" lon="-1.07507">
        <ele>5.8</ele>
        <time>2020-06-02T13:22:50Z</time>
      </trkpt>
      <trkpt lat="46.31927" lon="-1.07507">
        <ele>5.8</ele>
        <time>2020-06-02T13:22:51Z</time>
      </trkpt>
      <trkpt lat="46.31927" lon="-1.07507">
        <ele>5.8</ele>
        <time>2020-06-02T13:22:52Z</time>
      </trkpt>
      <trkpt lat="46.31927" lon="-1.07507">
        <ele>5.8</ele>
        <time>2020-06-02T13:22:53Z</time>
      </trkpt>
      <trkpt lat="46.31927" lon="-1.07507">
        <ele>5.8</ele>
        <time>2020-06-02T13:22:54Z</time>
      </trkpt>
      <trkpt lat="46.31927" lon="-1.07507">
        <ele>5.8</ele>
        <time>2020-06-02T13:22:55Z</time>
      </trkpt>
      <trkpt lat="46.31927" lon="-1.07507">
        <ele>5.8</ele>
        <time>2020-06-02T13:22:56Z</time>
      </trkpt>
      <trkpt lat="46.31927" lon="-1.07507">
        <ele>5.8</ele>
        <time>2020-06-02T13:22:57Z</time>
      </trkpt>
      <trkpt lat="46.31927" lon="-1.07507">
        <ele>5.8</ele>
        <time>2020-06-02T13:22:58Z</time>
      </trkpt>
      <trkpt lat="46.31927" lon="-1.07507">
        <ele>5.8</ele>
        <time>2020-06-02T13:22:59Z</time>
      </trkpt>
      <trkpt lat="46.31927" lon="-1.07506">
        <ele>5.8</ele>
        <time>2020-06-02T13:23:00Z</time>
      </trkpt>
      <trkpt lat="46.31927" lon="-1.07507">
        <ele>5.8</ele>
        <time>2020-06-02T13:23:01Z</time>
      </trkpt>
      <trkpt lat="46.31928" lon="-1.07507">
        <ele>5.8</ele>
        <time>2020-06-02T13:23:02Z</time>
      </trkpt>
      <trkpt lat="46.31928" lon="-1.07505">
        <ele>5.8</ele>
        <time>2020-06-02T13:23:03Z</time>
      </trkpt>
      <trkpt lat="46.31928" lon="-1.07505">
        <ele>5.8</ele>
        <time>2020-06-02T13:23:04Z</time>
      </trkpt>
      <trkpt lat="46.31928" lon="-1.07505">
        <ele>5.8</ele>
        <time>2020-06-02T13:23:05Z</time>
      </trkpt>
      <trkpt lat="46.31928" lon="-1.07505">
        <ele>5.8</ele>
        <time>2020-06-02T13:23:06Z</time>
      </trkpt>
      <trkpt lat="46.31928" lon="-1.07505">
        <ele>5.8</ele>
        <time>2020-06-02T13:23:07Z</time>
      </trkpt>
      <trkpt lat="46.31928" lon="-1.07505">
        <ele>5.8</ele>
        <time>2020-06-02T13:23:08Z</time>
      </trkpt>
      <trkpt lat="46.31928" lon="-1.07505">
        <ele>5.8</ele>
        <time>2020-06-02T13:23:09Z</time>
      </trkpt>
      <trkpt lat="46.31928" lon="-1.07505">
        <ele>5.8</ele>
        <time>2020-06-02T13:23:10Z</time>
      </trkpt>
      <trkpt lat="46.31928" lon="-1.07505">
        <ele>5.8</ele>
        <time>2020-06-02T13:23:11Z</time>
      </trkpt>
      <trkpt lat="46.31928" lon="-1.07505">
        <ele>5.8</ele>
        <time>2020-06-02T13:23:12Z</time>
      </trkpt>
      <trkpt lat="46.31928" lon="-1.07505">
        <ele>5.8</ele>
        <time>2020-06-02T13:23:13Z</time>
      </trkpt>
      <trkpt lat="46.31928" lon="-1.07505">
        <ele>5.8</ele>
        <time>2020-06-02T13:23:14Z</time>
      </trkpt>
      <trkpt lat="46.31928" lon="-1.07505">
        <ele>5.8</ele>
        <time>2020-06-02T13:23:15Z</time>
      </trkpt>
      <trkpt lat="46.31928" lon="-1.07505">
        <ele>5.8</ele>
        <time>2020-06-02T13:23:16Z</time>
      </trkpt>
      <trkpt lat="46.31928" lon="-1.07506">
        <ele>5.8</ele>
        <time>2020-06-02T13:23:17Z</time>
      </trkpt>
      <trkpt lat="46.31928" lon="-1.07506">
        <ele>5.8</ele>
        <time>2020-06-02T13:23:18Z</time>
      </trkpt>
      <trkpt lat="46.31928" lon="-1.07506">
        <ele>5.8</ele>
        <time>2020-06-02T13:23:19Z</time>
      </trkpt>
      <trkpt lat="46.31927" lon="-1.07506">
        <ele>5.8</ele>
        <time>2020-06-02T13:23:20Z</time>
      </trkpt>
      <trkpt lat="46.31927" lon="-1.07506">
        <ele>5.8</ele>
        <time>2020-06-02T13:23:21Z</time>
      </trkpt>
      <trkpt lat="46.31927" lon="-1.07506">
        <ele>5.8</ele>
        <time>2020-06-02T13:23:22Z</time>
      </trkpt>
      <trkpt lat="46.31927" lon="-1.07506">
        <ele>5.8</ele>
        <time>2020-06-02T13:23:23Z</time>
      </trkpt>
      <trkpt lat="46.31927" lon="-1.07506">
        <ele>5.8</ele>
        <time>2020-06-02T13:23:24Z</time>
      </trkpt>
      <trkpt lat="46.31927" lon="-1.07506">
        <ele>5.8</ele>
        <time>2020-06-02T13:23:25Z</time>
      </trkpt>
      <trkpt lat="46.31927" lon="-1.07506">
        <ele>5.8</ele>
        <time>2020-06-02T13:23:26Z</time>
      </trkpt>
      <trkpt lat="46.31927" lon="-1.07506">
        <ele>5.8</ele>
        <time>2020-06-02T13:23:27Z</time>
      </trkpt>
      <trkpt lat="46.31927" lon="-1.07507">
        <ele>5.8</ele>
        <time>2020-06-02T13:23:28Z</time>
      </trkpt>
      <trkpt lat="46.31927" lon="-1.07507">
        <ele>5.8</ele>
        <time>2020-06-02T13:23:29Z</time>
      </trkpt>
      <trkpt lat="46.31927" lon="-1.07507">
        <ele>5.8</ele>
        <time>2020-06-02T13:23:30Z</time>
      </trkpt>
      <trkpt lat="46.31927" lon="-1.07507">
        <ele>5.8</ele>
        <time>2020-06-02T13:23:31Z</time>
      </trkpt>
      <trkpt lat="46.31927" lon="-1.07507">
        <ele>5.8</ele>
        <time>2020-06-02T13:23:32Z</time>
      </trkpt>
      <trkpt lat="46.31927" lon="-1.07507">
        <ele>5.8</ele>
        <time>2020-06-02T13:23:33Z</time>
      </trkpt>
      <trkpt lat="46.31927" lon="-1.07507">
        <ele>5.8</ele>
        <time>2020-06-02T13:23:34Z</time>
      </trkpt>
      <trkpt lat="46.31927" lon="-1.07507">
        <ele>5.8</ele>
        <time>2020-06-02T13:23:35Z</time>
      </trkpt>
      <trkpt lat="46.31927" lon="-1.07507">
        <ele>5.8</ele>
        <time>2020-06-02T13:23:36Z</time>
      </trkpt>
      <trkpt lat="46.31927" lon="-1.07507">
        <ele>5.8</ele>
        <time>2020-06-02T13:23:37Z</time>
      </trkpt>
      <trkpt lat="46.31927" lon="-1.07507">
        <ele>5.8</ele>
        <time>2020-06-02T13:23:38Z</time>
      </trkpt>
      <trkpt lat="46.31927" lon="-1.07508">
        <ele>5.8</ele>
        <time>2020-06-02T13:23:39Z</time>
      </trkpt>
      <trkpt lat="46.31927" lon="-1.07508">
        <ele>5.8</ele>
        <time>2020-06-02T13:23:40Z</time>
      </trkpt>
      <trkpt lat="46.31927" lon="-1.07508">
        <ele>5.8</ele>
        <time>2020-06-02T13:23:41Z</time>
      </trkpt>
      <trkpt lat="46.31927" lon="-1.07508">
        <ele>5.8</ele>
        <time>2020-06-02T13:23:42Z</time>
      </trkpt>
      <trkpt lat="46.31927" lon="-1.07508">
        <ele>5.8</ele>
        <time>2020-06-02T13:23:43Z</time>
      </trkpt>
      <trkpt lat="46.31927" lon="-1.07508">
        <ele>5.8</ele>
        <time>2020-06-02T13:23:44Z</time>
      </trkpt>
      <trkpt lat="46.31927" lon="-1.07508">
        <ele>5.8</ele>
        <time>2020-06-02T13:23:45Z</time>
      </trkpt>
      <trkpt lat="46.31927" lon="-1.07508">
        <ele>5.8</ele>
        <time>2020-06-02T13:23:46Z</time>
      </trkpt>
      <trkpt lat="46.31927" lon="-1.07508">
        <ele>5.8</ele>
        <time>2020-06-02T13:23:47Z</time>
      </trkpt>
      <trkpt lat="46.31927" lon="-1.07508">
        <ele>5.8</ele>
        <time>2020-06-02T13:23:48Z</time>
      </trkpt>
      <trkpt lat="46.31927" lon="-1.07508">
        <ele>5.8</ele>
        <time>2020-06-02T13:23:49Z</time>
      </trkpt>
      <trkpt lat="46.31927" lon="-1.07508">
        <ele>5.8</ele>
        <time>2020-06-02T13:23:50Z</time>
      </trkpt>
      <trkpt lat="46.31927" lon="-1.07508">
        <ele>5.8</ele>
        <time>2020-06-02T13:23:51Z</time>
      </trkpt>
      <trkpt lat="46.31927" lon="-1.07508">
        <ele>5.8</ele>
        <time>2020-06-02T13:23:52Z</time>
      </trkpt>
      <trkpt lat="46.31927" lon="-1.07508">
        <ele>5.8</ele>
        <time>2020-06-02T13:23:53Z</time>
      </trkpt>
      <trkpt lat="46.31927" lon="-1.07508">
        <ele>5.8</ele>
        <time>2020-06-02T13:23:54Z</time>
      </trkpt>
      <trkpt lat="46.31927" lon="-1.07508">
        <ele>5.8</ele>
        <time>2020-06-02T13:23:55Z</time>
      </trkpt>
      <trkpt lat="46.31927" lon="-1.07508">
        <ele>5.8</ele>
        <time>2020-06-02T13:23:56Z</time>
      </trkpt>
      <trkpt lat="46.31927" lon="-1.07508">
        <ele>5.8</ele>
        <time>2020-06-02T13:23:57Z</time>
      </trkpt>
      <trkpt lat="46.31927" lon="-1.07508">
        <ele>5.8</ele>
        <time>2020-06-02T13:23:58Z</time>
      </trkpt>
      <trkpt lat="46.31927" lon="-1.07508">
        <ele>5.8</ele>
        <time>2020-06-02T13:23:59Z</time>
      </trkpt>
      <trkpt lat="46.31927" lon="-1.07508">
        <ele>5.8</ele>
        <time>2020-06-02T13:24:00Z</time>
      </trkpt>
      <trkpt lat="46.31927" lon="-1.07508">
        <ele>5.8</ele>
        <time>2020-06-02T13:24:01Z</time>
      </trkpt>
      <trkpt lat="46.31927" lon="-1.07508">
        <ele>5.8</ele>
        <time>2020-06-02T13:24:02Z</time>
      </trkpt>
      <trkpt lat="46.31927" lon="-1.07508">
        <ele>5.8</ele>
        <time>2020-06-02T13:24:03Z</time>
      </trkpt>
      <trkpt lat="46.31927" lon="-1.07508">
        <ele>5.8</ele>
        <time>2020-06-02T13:24:04Z</time>
      </trkpt>
      <trkpt lat="46.31927" lon="-1.07508">
        <ele>5.8</ele>
        <time>2020-06-02T13:24:05Z</time>
      </trkpt>
      <trkpt lat="46.31927" lon="-1.07508">
        <ele>5.8</ele>
        <time>2020-06-02T13:24:06Z</time>
      </trkpt>
      <trkpt lat="46.31927" lon="-1.07508">
        <ele>5.8</ele>
        <time>2020-06-02T13:24:07Z</time>
      </trkpt>
      <trkpt lat="46.31927" lon="-1.07508">
        <ele>5.8</ele>
        <time>2020-06-02T13:24:08Z</time>
      </trkpt>
      <trkpt lat="46.31927" lon="-1.07508">
        <ele>5.8</ele>
        <time>2020-06-02T13:24:09Z</time>
      </trkpt>
      <trkpt lat="46.31927" lon="-1.07508">
        <ele>5.8</ele>
        <time>2020-06-02T13:24:10Z</time>
      </trkpt>
      <trkpt lat="46.31927" lon="-1.07508">
        <ele>5.8</ele>
        <time>2020-06-02T13:24:11Z</time>
      </trkpt>
      <trkpt lat="46.31927" lon="-1.07508">
        <ele>5.8</ele>
        <time>2020-06-02T13:24:12Z</time>
      </trkpt>
      <trkpt lat="46.31927" lon="-1.07508">
        <ele>5.8</ele>
        <time>2020-06-02T13:24:13Z</time>
      </trkpt>
      <trkpt lat="46.31927" lon="-1.07508">
        <ele>5.8</ele>
        <time>2020-06-02T13:24:14Z</time>
      </trkpt>
      <trkpt lat="46.31927" lon="-1.07508">
        <ele>5.8</ele>
        <time>2020-06-02T13:24:15Z</time>
      </trkpt>
      <trkpt lat="46.31927" lon="-1.07508">
        <ele>5.8</ele>
        <time>2020-06-02T13:24:16Z</time>
      </trkpt>
      <trkpt lat="46.31927" lon="-1.07508">
        <ele>5.8</ele>
        <time>2020-06-02T13:24:17Z</time>
      </trkpt>
      <trkpt lat="46.31927" lon="-1.07508">
        <ele>5.8</ele>
        <time>2020-06-02T13:24:18Z</time>
      </trkpt>
      <trkpt lat="46.31927" lon="-1.07508">
        <ele>5.8</ele>
        <time>2020-06-02T13:24:19Z</time>
      </trkpt>
      <trkpt lat="46.31926" lon="-1.07508">
        <ele>5.8</ele>
        <time>2020-06-02T13:24:20Z</time>
      </trkpt>
      <trkpt lat="46.31926" lon="-1.07508">
        <ele>5.8</ele>
        <time>2020-06-02T13:24:21Z</time>
      </trkpt>
      <trkpt lat="46.31926" lon="-1.07508">
        <ele>5.8</ele>
        <time>2020-06-02T13:24:22Z</time>
      </trkpt>
      <trkpt lat="46.31926" lon="-1.07508">
        <ele>5.8</ele>
        <time>2020-06-02T13:24:23Z</time>
      </trkpt>
      <trkpt lat="46.31926" lon="-1.07507">
        <ele>5.8</ele>
        <time>2020-06-02T13:24:24Z</time>
      </trkpt>
      <trkpt lat="46.31926" lon="-1.07507">
        <ele>5.8</ele>
        <time>2020-06-02T13:24:25Z</time>
      </trkpt>
      <trkpt lat="46.31926" lon="-1.07507">
        <ele>5.8</ele>
        <time>2020-06-02T13:24:26Z</time>
      </trkpt>
      <trkpt lat="46.31926" lon="-1.07507">
        <ele>5.8</ele>
        <time>2020-06-02T13:24:27Z</time>
      </trkpt>
      <trkpt lat="46.31926" lon="-1.07507">
        <ele>5.8</ele>
        <time>2020-06-02T13:24:28Z</time>
      </trkpt>
      <trkpt lat="46.31926" lon="-1.07507">
        <ele>5.8</ele>
        <time>2020-06-02T13:24:29Z</time>
      </trkpt>
      <trkpt lat="46.31926" lon="-1.07507">
        <ele>5.8</ele>
        <time>2020-06-02T13:24:30Z</time>
      </trkpt>
      <trkpt lat="46.31926" lon="-1.07507">
        <ele>5.8</ele>
        <time>2020-06-02T13:24:31Z</time>
      </trkpt>
      <trkpt lat="46.31926" lon="-1.07507">
        <ele>5.8</ele>
        <time>2020-06-02T13:24:32Z</time>
      </trkpt>
      <trkpt lat="46.31926" lon="-1.07507">
        <ele>5.8</ele>
        <time>2020-06-02T13:24:33Z</time>
      </trkpt>
      <trkpt lat="46.31926" lon="-1.07507">
        <ele>5.8</ele>
        <time>2020-06-02T13:24:34Z</time>
      </trkpt>
      <trkpt lat="46.31926" lon="-1.07507">
        <ele>5.8</ele>
        <time>2020-06-02T13:24:35Z</time>
      </trkpt>
      <trkpt lat="46.31926" lon="-1.07507">
        <ele>5.8</ele>
        <time>2020-06-02T13:24:36Z</time>
      </trkpt>
      <trkpt lat="46.31926" lon="-1.07507">
        <ele>5.8</ele>
        <time>2020-06-02T13:24:37Z</time>
      </trkpt>
      <trkpt lat="46.31927" lon="-1.07507">
        <ele>5.8</ele>
        <time>2020-06-02T13:24:38Z</time>
      </trkpt>
      <trkpt lat="46.31927" lon="-1.07507">
        <ele>5.8</ele>
        <time>2020-06-02T13:24:39Z</time>
      </trkpt>
      <trkpt lat="46.31927" lon="-1.07507">
        <ele>5.8</ele>
        <time>2020-06-02T13:24:40Z</time>
      </trkpt>
      <trkpt lat="46.31927" lon="-1.07507">
        <ele>5.8</ele>
        <time>2020-06-02T13:24:41Z</time>
      </trkpt>
      <trkpt lat="46.31927" lon="-1.07507">
        <ele>5.8</ele>
        <time>2020-06-02T13:24:42Z</time>
      </trkpt>
      <trkpt lat="46.31927" lon="-1.07507">
        <ele>5.8</ele>
        <time>2020-06-02T13:24:43Z</time>
      </trkpt>
      <trkpt lat="46.31927" lon="-1.07507">
        <ele>5.8</ele>
        <time>2020-06-02T13:24:44Z</time>
      </trkpt>
      <trkpt lat="46.31927" lon="-1.07507">
        <ele>5.8</ele>
        <time>2020-06-02T13:24:45Z</time>
      </trkpt>
      <trkpt lat="46.31927" lon="-1.07507">
        <ele>5.8</ele>
        <time>2020-06-02T13:24:46Z</time>
      </trkpt>
      <trkpt lat="46.31927" lon="-1.07507">
        <ele>5.8</ele>
        <time>2020-06-02T13:24:47Z</time>
      </trkpt>
      <trkpt lat="46.31927" lon="-1.07507">
        <ele>5.8</ele>
        <time>2020-06-02T13:24:48Z</time>
      </trkpt>
      <trkpt lat="46.31927" lon="-1.07507">
        <ele>5.8</ele>
        <time>2020-06-02T13:24:49Z</time>
      </trkpt>
      <trkpt lat="46.31927" lon="-1.07507">
        <ele>5.8</ele>
        <time>2020-06-02T13:24:50Z</time>
      </trkpt>
      <trkpt lat="46.31927" lon="-1.07507">
        <ele>5.8</ele>
        <time>2020-06-02T13:24:51Z</time>
      </trkpt>
      <trkpt lat="46.31927" lon="-1.07507">
        <ele>5.8</ele>
        <time>2020-06-02T13:24:52Z</time>
      </trkpt>
      <trkpt lat="46.31927" lon="-1.07507">
        <ele>5.8</ele>
        <time>2020-06-02T13:24:53Z</time>
      </trkpt>
      <trkpt lat="46.31927" lon="-1.07507">
        <ele>5.8</ele>
        <time>2020-06-02T13:24:54Z</time>
      </trkpt>
      <trkpt lat="46.31927" lon="-1.07507">
        <ele>5.8</ele>
        <time>2020-06-02T13:24:55Z</time>
      </trkpt>
      <trkpt lat="46.31927" lon="-1.07507">
        <ele>5.8</ele>
        <time>2020-06-02T13:24:56Z</time>
      </trkpt>
      <trkpt lat="46.31927" lon="-1.07507">
        <ele>5.8</ele>
        <time>2020-06-02T13:24:57Z</time>
      </trkpt>
      <trkpt lat="46.31927" lon="-1.07507">
        <ele>5.8</ele>
        <time>2020-06-02T13:24:58Z</time>
      </trkpt>
      <trkpt lat="46.31927" lon="-1.07507">
        <ele>5.8</ele>
        <time>2020-06-02T13:24:59Z</time>
      </trkpt>
      <trkpt lat="46.31927" lon="-1.07507">
        <ele>5.8</ele>
        <time>2020-06-02T13:25:00Z</time>
      </trkpt>
      <trkpt lat="46.31927" lon="-1.07507">
        <ele>5.8</ele>
        <time>2020-06-02T13:25:01Z</time>
      </trkpt>
      <trkpt lat="46.31927" lon="-1.07507">
        <ele>5.8</ele>
        <time>2020-06-02T13:25:02Z</time>
      </trkpt>
      <trkpt lat="46.31927" lon="-1.07507">
        <ele>5.8</ele>
        <time>2020-06-02T13:25:03Z</time>
      </trkpt>
      <trkpt lat="46.31927" lon="-1.07507">
        <ele>5.8</ele>
        <time>2020-06-02T13:25:04Z</time>
      </trkpt>
      <trkpt lat="46.31927" lon="-1.07507">
        <ele>5.8</ele>
        <time>2020-06-02T13:25:05Z</time>
      </trkpt>
      <trkpt lat="46.31927" lon="-1.07507">
        <ele>5.8</ele>
        <time>2020-06-02T13:25:06Z</time>
      </trkpt>
      <trkpt lat="46.31927" lon="-1.07507">
        <ele>5.8</ele>
        <time>2020-06-02T13:25:07Z</time>
      </trkpt>
      <trkpt lat="46.31927" lon="-1.07507">
        <ele>5.8</ele>
        <time>2020-06-02T13:25:08Z</time>
      </trkpt>
      <trkpt lat="46.31927" lon="-1.07507">
        <ele>5.8</ele>
        <time>2020-06-02T13:25:09Z</time>
      </trkpt>
      <trkpt lat="46.31927" lon="-1.07507">
        <ele>5.8</ele>
        <time>2020-06-02T13:25:10Z</time>
      </trkpt>
      <trkpt lat="46.31927" lon="-1.07507">
        <ele>5.8</ele>
        <time>2020-06-02T13:25:11Z</time>
      </trkpt>
      <trkpt lat="46.31927" lon="-1.07507">
        <ele>5.8</ele>
        <time>2020-06-02T13:25:12Z</time>
      </trkpt>
      <trkpt lat="46.31927" lon="-1.07507">
        <ele>5.8</ele>
        <time>2020-06-02T13:25:13Z</time>
      </trkpt>
      <trkpt lat="46.31927" lon="-1.07507">
        <ele>5.8</ele>
        <time>2020-06-02T13:25:14Z</time>
      </trkpt>
      <trkpt lat="46.31927" lon="-1.07507">
        <ele>5.8</ele>
        <time>2020-06-02T13:25:15Z</time>
      </trkpt>
      <trkpt lat="46.31927" lon="-1.07507">
        <ele>5.8</ele>
        <time>2020-06-02T13:25:16Z</time>
      </trkpt>
      <trkpt lat="46.31927" lon="-1.07507">
        <ele>5.8</ele>
        <time>2020-06-02T13:25:17Z</time>
      </trkpt>
      <trkpt lat="46.31927" lon="-1.07507">
        <ele>5.8</ele>
        <time>2020-06-02T13:25:18Z</time>
      </trkpt>
      <trkpt lat="46.31927" lon="-1.07507">
        <ele>5.8</ele>
        <time>2020-06-02T13:25:19Z</time>
      </trkpt>
      <trkpt lat="46.31927" lon="-1.07507">
        <ele>5.8</ele>
        <time>2020-06-02T13:25:20Z</time>
      </trkpt>
      <trkpt lat="46.31927" lon="-1.07507">
        <ele>5.8</ele>
        <time>2020-06-02T13:25:21Z</time>
      </trkpt>
      <trkpt lat="46.31927" lon="-1.07507">
        <ele>5.8</ele>
        <time>2020-06-02T13:25:22Z</time>
      </trkpt>
      <trkpt lat="46.31926" lon="-1.07507">
        <ele>5.8</ele>
        <time>2020-06-02T13:25:23Z</time>
      </trkpt>
      <trkpt lat="46.31927" lon="-1.07507">
        <ele>5.8</ele>
        <time>2020-06-02T13:25:24Z</time>
      </trkpt>
      <trkpt lat="46.31927" lon="-1.07507">
        <ele>5.8</ele>
        <time>2020-06-02T13:25:25Z</time>
      </trkpt>
      <trkpt lat="46.31927" lon="-1.07507">
        <ele>5.8</ele>
        <time>2020-06-02T13:25:26Z</time>
      </trkpt>
      <trkpt lat="46.31927" lon="-1.07507">
        <ele>5.8</ele>
        <time>2020-06-02T13:25:27Z</time>
      </trkpt>
      <trkpt lat="46.31927" lon="-1.07507">
        <ele>5.8</ele>
        <time>2020-06-02T13:25:28Z</time>
      </trkpt>
      <trkpt lat="46.31927" lon="-1.07507">
        <ele>5.8</ele>
        <time>2020-06-02T13:25:29Z</time>
      </trkpt>
      <trkpt lat="46.31927" lon="-1.07507">
        <ele>5.8</ele>
        <time>2020-06-02T13:25:30Z</time>
      </trkpt>
      <trkpt lat="46.31927" lon="-1.07507">
        <ele>5.8</ele>
        <time>2020-06-02T13:25:31Z</time>
      </trkpt>
      <trkpt lat="46.31926" lon="-1.07506">
        <ele>5.8</ele>
        <time>2020-06-02T13:25:32Z</time>
      </trkpt>
      <trkpt lat="46.31926" lon="-1.07507">
        <ele>5.8</ele>
        <time>2020-06-02T13:25:33Z</time>
      </trkpt>
      <trkpt lat="46.31925" lon="-1.07507">
        <ele>5.8</ele>
        <time>2020-06-02T13:25:34Z</time>
      </trkpt>
      <trkpt lat="46.31925" lon="-1.07507">
        <ele>5.8</ele>
        <time>2020-06-02T13:25:35Z</time>
      </trkpt>
      <trkpt lat="46.31925" lon="-1.07507">
        <ele>5.8</ele>
        <time>2020-06-02T13:25:36Z</time>
      </trkpt>
      <trkpt lat="46.31925" lon="-1.07506">
        <ele>5.8</ele>
        <time>2020-06-02T13:25:37Z</time>
      </trkpt>
      <trkpt lat="46.31925" lon="-1.07506">
        <ele>5.8</ele>
        <time>2020-06-02T13:25:38Z</time>
      </trkpt>
      <trkpt lat="46.31925" lon="-1.07506">
        <ele>5.8</ele>
        <time>2020-06-02T13:25:39Z</time>
      </trkpt>
      <trkpt lat="46.31925" lon="-1.07506">
        <ele>5.8</ele>
        <time>2020-06-02T13:25:40Z</time>
      </trkpt>
      <trkpt lat="46.31924" lon="-1.07506">
        <ele>5.8</ele>
        <time>2020-06-02T13:25:41Z</time>
      </trkpt>
      <trkpt lat="46.31924" lon="-1.07506">
        <ele>5.8</ele>
        <time>2020-06-02T13:25:42Z</time>
      </trkpt>
      <trkpt lat="46.31924" lon="-1.07506">
        <ele>5.8</ele>
        <time>2020-06-02T13:25:43Z</time>
      </trkpt>
      <trkpt lat="46.31924" lon="-1.07506">
        <ele>5.8</ele>
        <time>2020-06-02T13:25:44Z</time>
      </trkpt>
      <trkpt lat="46.31924" lon="-1.07506">
        <ele>5.8</ele>
        <time>2020-06-02T13:25:45Z</time>
      </trkpt>
      <trkpt lat="46.31924" lon="-1.07506">
        <ele>5.8</ele>
        <time>2020-06-02T13:25:46Z</time>
      </trkpt>
      <trkpt lat="46.31924" lon="-1.07506">
        <ele>5.8</ele>
        <time>2020-06-02T13:25:47Z</time>
      </trkpt>
      <trkpt lat="46.31924" lon="-1.07506">
        <ele>5.8</ele>
        <time>2020-06-02T13:25:48Z</time>
      </trkpt>
      <trkpt lat="46.31924" lon="-1.07506">
        <ele>5.8</ele>
        <time>2020-06-02T13:25:49Z</time>
      </trkpt>
      <trkpt lat="46.31924" lon="-1.07506">
        <ele>5.8</ele>
        <time>2020-06-02T13:25:50Z</time>
      </trkpt>
      <trkpt lat="46.31924" lon="-1.07506">
        <ele>5.8</ele>
        <time>2020-06-02T13:25:51Z</time>
      </trkpt>
      <trkpt lat="46.31924" lon="-1.07506">
        <ele>5.8</ele>
        <time>2020-06-02T13:25:52Z</time>
      </trkpt>
      <trkpt lat="46.31924" lon="-1.07506">
        <ele>5.8</ele>
        <time>2020-06-02T13:25:53Z</time>
      </trkpt>
      <trkpt lat="46.31924" lon="-1.07506">
        <ele>5.8</ele>
        <time>2020-06-02T13:25:54Z</time>
      </trkpt>
      <trkpt lat="46.31924" lon="-1.07506">
        <ele>5.8</ele>
        <time>2020-06-02T13:25:55Z</time>
      </trkpt>
      <trkpt lat="46.31924" lon="-1.07506">
        <ele>5.8</ele>
        <time>2020-06-02T13:25:56Z</time>
      </trkpt>
      <trkpt lat="46.31924" lon="-1.07506">
        <ele>5.8</ele>
        <time>2020-06-02T13:25:57Z</time>
      </trkpt>
      <trkpt lat="46.31924" lon="-1.07506">
        <ele>5.8</ele>
        <time>2020-06-02T13:25:58Z</time>
      </trkpt>
      <trkpt lat="46.31924" lon="-1.07506">
        <ele>5.8</ele>
        <time>2020-06-02T13:25:59Z</time>
      </trkpt>
      <trkpt lat="46.31924" lon="-1.07506">
        <ele>5.8</ele>
        <time>2020-06-02T13:26:00Z</time>
      </trkpt>
      <trkpt lat="46.31924" lon="-1.07506">
        <ele>5.8</ele>
        <time>2020-06-02T13:26:01Z</time>
      </trkpt>
      <trkpt lat="46.31924" lon="-1.07506">
        <ele>5.8</ele>
        <time>2020-06-02T13:26:02Z</time>
      </trkpt>
      <trkpt lat="46.31924" lon="-1.07506">
        <ele>5.8</ele>
        <time>2020-06-02T13:26:03Z</time>
      </trkpt>
      <trkpt lat="46.31924" lon="-1.07506">
        <ele>5.8</ele>
        <time>2020-06-02T13:26:04Z</time>
      </trkpt>
      <trkpt lat="46.31924" lon="-1.07506">
        <ele>5.8</ele>
        <time>2020-06-02T13:26:05Z</time>
      </trkpt>
      <trkpt lat="46.31924" lon="-1.07506">
        <ele>5.8</ele>
        <time>2020-06-02T13:26:06Z</time>
      </trkpt>
      <trkpt lat="46.31924" lon="-1.07506">
        <ele>5.8</ele>
        <time>2020-06-02T13:26:07Z</time>
      </trkpt>
      <trkpt lat="46.31924" lon="-1.07506">
        <ele>5.8</ele>
        <time>2020-06-02T13:26:08Z</time>
      </trkpt>
      <trkpt lat="46.31924" lon="-1.07506">
        <ele>5.8</ele>
        <time>2020-06-02T13:26:09Z</time>
      </trkpt>
      <trkpt lat="46.31924" lon="-1.07506">
        <ele>5.8</ele>
        <time>2020-06-02T13:26:10Z</time>
      </trkpt>
      <trkpt lat="46.31924" lon="-1.07506">
        <ele>5.8</ele>
        <time>2020-06-02T13:26:11Z</time>
      </trkpt>
      <trkpt lat="46.31924" lon="-1.07506">
        <ele>5.8</ele>
        <time>2020-06-02T13:26:12Z</time>
      </trkpt>
      <trkpt lat="46.31924" lon="-1.07506">
        <ele>5.8</ele>
        <time>2020-06-02T13:26:13Z</time>
      </trkpt>
      <trkpt lat="46.31924" lon="-1.07506">
        <ele>5.8</ele>
        <time>2020-06-02T13:26:14Z</time>
      </trkpt>
      <trkpt lat="46.31924" lon="-1.07506">
        <ele>5.8</ele>
        <time>2020-06-02T13:26:15Z</time>
      </trkpt>
      <trkpt lat="46.31924" lon="-1.07506">
        <ele>5.8</ele>
        <time>2020-06-02T13:26:16Z</time>
      </trkpt>
      <trkpt lat="46.31924" lon="-1.07506">
        <ele>5.8</ele>
        <time>2020-06-02T13:26:17Z</time>
      </trkpt>
      <trkpt lat="46.31924" lon="-1.07506">
        <ele>5.8</ele>
        <time>2020-06-02T13:26:18Z</time>
      </trkpt>
      <trkpt lat="46.31924" lon="-1.07506">
        <ele>5.8</ele>
        <time>2020-06-02T13:26:19Z</time>
      </trkpt>
      <trkpt lat="46.31923" lon="-1.07506">
        <ele>5.8</ele>
        <time>2020-06-02T13:26:20Z</time>
      </trkpt>
      <trkpt lat="46.31923" lon="-1.07506">
        <ele>5.8</ele>
        <time>2020-06-02T13:26:21Z</time>
      </trkpt>
      <trkpt lat="46.31923" lon="-1.07507">
        <ele>5.8</ele>
        <time>2020-06-02T13:26:22Z</time>
      </trkpt>
      <trkpt lat="46.31924" lon="-1.07507">
        <ele>5.8</ele>
        <time>2020-06-02T13:26:23Z</time>
      </trkpt>
      <trkpt lat="46.31923" lon="-1.07507">
        <ele>5.8</ele>
        <time>2020-06-02T13:26:24Z</time>
      </trkpt>
      <trkpt lat="46.31923" lon="-1.07507">
        <ele>5.8</ele>
        <time>2020-06-02T13:26:25Z</time>
      </trkpt>
      <trkpt lat="46.31923" lon="-1.07507">
        <ele>5.8</ele>
        <time>2020-06-02T13:26:26Z</time>
      </trkpt>
      <trkpt lat="46.31923" lon="-1.07507">
        <ele>5.8</ele>
        <time>2020-06-02T13:26:27Z</time>
      </trkpt>
      <trkpt lat="46.31923" lon="-1.07507">
        <ele>5.8</ele>
        <time>2020-06-02T13:26:28Z</time>
      </trkpt>
      <trkpt lat="46.31923" lon="-1.07507">
        <ele>5.8</ele>
        <time>2020-06-02T13:26:29Z</time>
      </trkpt>
      <trkpt lat="46.31923" lon="-1.07507">
        <ele>5.8</ele>
        <time>2020-06-02T13:26:30Z</time>
      </trkpt>
      <trkpt lat="46.31923" lon="-1.07507">
        <ele>5.8</ele>
        <time>2020-06-02T13:26:31Z</time>
      </trkpt>
      <trkpt lat="46.31923" lon="-1.07507">
        <ele>5.8</ele>
        <time>2020-06-02T13:26:32Z</time>
      </trkpt>
      <trkpt lat="46.31923" lon="-1.07507">
        <ele>5.8</ele>
        <time>2020-06-02T13:26:33Z</time>
      </trkpt>
      <trkpt lat="46.31923" lon="-1.07507">
        <ele>5.8</ele>
        <time>2020-06-02T13:26:34Z</time>
      </trkpt>
      <trkpt lat="46.31923" lon="-1.07507">
        <ele>5.8</ele>
        <time>2020-06-02T13:26:35Z</time>
      </trkpt>
      <trkpt lat="46.31924" lon="-1.07507">
        <ele>5.8</ele>
        <time>2020-06-02T13:26:36Z</time>
      </trkpt>
      <trkpt lat="46.31924" lon="-1.07507">
        <ele>5.8</ele>
        <time>2020-06-02T13:26:37Z</time>
      </trkpt>
      <trkpt lat="46.31924" lon="-1.07506">
        <ele>5.8</ele>
        <time>2020-06-02T13:26:38Z</time>
      </trkpt>
      <trkpt lat="46.31924" lon="-1.07506">
        <ele>5.8</ele>
        <time>2020-06-02T13:26:39Z</time>
      </trkpt>
      <trkpt lat="46.31924" lon="-1.07506">
        <ele>5.8</ele>
        <time>2020-06-02T13:26:40Z</time>
      </trkpt>
      <trkpt lat="46.31925" lon="-1.07506">
        <ele>5.8</ele>
        <time>2020-06-02T13:26:41Z</time>
      </trkpt>
      <trkpt lat="46.31925" lon="-1.07506">
        <ele>5.8</ele>
        <time>2020-06-02T13:26:42Z</time>
      </trkpt>
      <trkpt lat="46.31925" lon="-1.07506">
        <ele>5.8</ele>
        <time>2020-06-02T13:26:43Z</time>
      </trkpt>
      <trkpt lat="46.31925" lon="-1.07506">
        <ele>5.8</ele>
        <time>2020-06-02T13:26:44Z</time>
      </trkpt>
      <trkpt lat="46.31925" lon="-1.07506">
        <ele>5.8</ele>
        <time>2020-06-02T13:26:45Z</time>
      </trkpt>
      <trkpt lat="46.31925" lon="-1.07506">
        <ele>5.8</ele>
        <time>2020-06-02T13:26:46Z</time>
      </trkpt>
      <trkpt lat="46.31925" lon="-1.07506">
        <ele>5.8</ele>
        <time>2020-06-02T13:26:47Z</time>
      </trkpt>
      <trkpt lat="46.31925" lon="-1.07506">
        <ele>5.8</ele>
        <time>2020-06-02T13:26:48Z</time>
      </trkpt>
      <trkpt lat="46.31925" lon="-1.07506">
        <ele>5.8</ele>
        <time>2020-06-02T13:26:49Z</time>
      </trkpt>
      <trkpt lat="46.31925" lon="-1.07506">
        <ele>5.8</ele>
        <time>2020-06-02T13:26:50Z</time>
      </trkpt>
      <trkpt lat="46.31924" lon="-1.07506">
        <ele>5.8</ele>
        <time>2020-06-02T13:26:51Z</time>
      </trkpt>
      <trkpt lat="46.31925" lon="-1.07506">
        <ele>5.8</ele>
        <time>2020-06-02T13:26:52Z</time>
      </trkpt>
      <trkpt lat="46.31925" lon="-1.07505">
        <ele>5.8</ele>
        <time>2020-06-02T13:26:53Z</time>
      </trkpt>
      <trkpt lat="46.31925" lon="-1.07505">
        <ele>5.8</ele>
        <time>2020-06-02T13:26:54Z</time>
      </trkpt>
      <trkpt lat="46.31925" lon="-1.07505">
        <ele>5.8</ele>
        <time>2020-06-02T13:26:55Z</time>
      </trkpt>
      <trkpt lat="46.31925" lon="-1.07505">
        <ele>5.8</ele>
        <time>2020-06-02T13:26:56Z</time>
      </trkpt>
      <trkpt lat="46.31925" lon="-1.07505">
        <ele>5.8</ele>
        <time>2020-06-02T13:26:57Z</time>
      </trkpt>
      <trkpt lat="46.31925" lon="-1.07505">
        <ele>5.8</ele>
        <time>2020-06-02T13:26:58Z</time>
      </trkpt>
      <trkpt lat="46.31925" lon="-1.07505">
        <ele>5.8</ele>
        <time>2020-06-02T13:26:59Z</time>
      </trkpt>
      <trkpt lat="46.31925" lon="-1.07505">
        <ele>5.8</ele>
        <time>2020-06-02T13:27:00Z</time>
      </trkpt>
      <trkpt lat="46.31925" lon="-1.07505">
        <ele>5.8</ele>
        <time>2020-06-02T13:27:01Z</time>
      </trkpt>
      <trkpt lat="46.31925" lon="-1.07505">
        <ele>5.8</ele>
        <time>2020-06-02T13:27:02Z</time>
      </trkpt>
      <trkpt lat="46.31925" lon="-1.07505">
        <ele>5.8</ele>
        <time>2020-06-02T13:27:03Z</time>
      </trkpt>
      <trkpt lat="46.31925" lon="-1.07505">
        <ele>5.8</ele>
        <time>2020-06-02T13:27:04Z</time>
      </trkpt>
      <trkpt lat="46.31925" lon="-1.07505">
        <ele>5.8</ele>
        <time>2020-06-02T13:27:05Z</time>
      </trkpt>
      <trkpt lat="46.31925" lon="-1.07505">
        <ele>5.8</ele>
        <time>2020-06-02T13:27:06Z</time>
      </trkpt>
      <trkpt lat="46.31926" lon="-1.07505">
        <ele>5.8</ele>
        <time>2020-06-02T13:27:07Z</time>
      </trkpt>
      <trkpt lat="46.31926" lon="-1.07504">
        <ele>5.8</ele>
        <time>2020-06-02T13:27:08Z</time>
      </trkpt>
      <trkpt lat="46.31926" lon="-1.07503">
        <ele>5.8</ele>
        <time>2020-06-02T13:27:09Z</time>
      </trkpt>
      <trkpt lat="46.31926" lon="-1.07502">
        <ele>5.8</ele>
        <time>2020-06-02T13:27:10Z</time>
      </trkpt>
      <trkpt lat="46.31927" lon="-1.075">
        <ele>5.8</ele>
        <time>2020-06-02T13:27:11Z</time>
      </trkpt>
      <trkpt lat="46.31928" lon="-1.07497">
        <ele>5.8</ele>
        <time>2020-06-02T13:27:12Z</time>
      </trkpt>
      <trkpt lat="46.31929" lon="-1.07495">
        <ele>5.8</ele>
        <time>2020-06-02T13:27:13Z</time>
      </trkpt>
      <trkpt lat="46.31929" lon="-1.07494">
        <ele>5.8</ele>
        <time>2020-06-02T13:27:14Z</time>
      </trkpt>
      <trkpt lat="46.31929" lon="-1.07493">
        <ele>5.8</ele>
        <time>2020-06-02T13:27:15Z</time>
      </trkpt>
      <trkpt lat="46.31929" lon="-1.07492">
        <ele>5.8</ele>
        <time>2020-06-02T13:27:16Z</time>
      </trkpt>
      <trkpt lat="46.31929" lon="-1.07492">
        <ele>5.8</ele>
        <time>2020-06-02T13:27:17Z</time>
      </trkpt>
      <trkpt lat="46.31929" lon="-1.07492">
        <ele>5.8</ele>
        <time>2020-06-02T13:27:18Z</time>
      </trkpt>
      <trkpt lat="46.31929" lon="-1.07492">
        <ele>5.8</ele>
        <time>2020-06-02T13:27:19Z</time>
      </trkpt>
      <trkpt lat="46.31929" lon="-1.07492">
        <ele>5.8</ele>
        <time>2020-06-02T13:27:20Z</time>
      </trkpt>
      <trkpt lat="46.31929" lon="-1.07492">
        <ele>5.8</ele>
        <time>2020-06-02T13:27:21Z</time>
      </trkpt>
      <trkpt lat="46.31929" lon="-1.07492">
        <ele>5.8</ele>
        <time>2020-06-02T13:27:22Z</time>
      </trkpt>
      <trkpt lat="46.31929" lon="-1.07492">
        <ele>5.8</ele>
        <time>2020-06-02T13:27:23Z</time>
      </trkpt>
      <trkpt lat="46.31929" lon="-1.07492">
        <ele>5.8</ele>
        <time>2020-06-02T13:27:24Z</time>
      </trkpt>
      <trkpt lat="46.31929" lon="-1.07492">
        <ele>5.8</ele>
        <time>2020-06-02T13:27:25Z</time>
      </trkpt>
      <trkpt lat="46.31929" lon="-1.07492">
        <ele>5.8</ele>
        <time>2020-06-02T13:27:26Z</time>
      </trkpt>
      <trkpt lat="46.31929" lon="-1.07492">
        <ele>5.8</ele>
        <time>2020-06-02T13:27:27Z</time>
      </trkpt>
      <trkpt lat="46.31929" lon="-1.07492">
        <ele>5.8</ele>
        <time>2020-06-02T13:27:28Z</time>
      </trkpt>
      <trkpt lat="46.31929" lon="-1.07492">
        <ele>5.8</ele>
        <time>2020-06-02T13:27:29Z</time>
      </trkpt>
      <trkpt lat="46.31929" lon="-1.07492">
        <ele>5.8</ele>
        <time>2020-06-02T13:27:30Z</time>
      </trkpt>
      <trkpt lat="46.31929" lon="-1.07492">
        <ele>5.8</ele>
        <time>2020-06-02T13:27:31Z</time>
      </trkpt>
      <trkpt lat="46.31929" lon="-1.07492">
        <ele>5.8</ele>
        <time>2020-06-02T13:27:32Z</time>
      </trkpt>
      <trkpt lat="46.31929" lon="-1.07491">
        <ele>5.8</ele>
        <time>2020-06-02T13:27:33Z</time>
      </trkpt>
      <trkpt lat="46.31929" lon="-1.07491">
        <ele>5.8</ele>
        <time>2020-06-02T13:27:34Z</time>
      </trkpt>
      <trkpt lat="46.31929" lon="-1.07491">
        <ele>5.8</ele>
        <time>2020-06-02T13:27:35Z</time>
      </trkpt>
      <trkpt lat="46.31929" lon="-1.07491">
        <ele>5.8</ele>
        <time>2020-06-02T13:27:36Z</time>
      </trkpt>
      <trkpt lat="46.31929" lon="-1.07491">
        <ele>5.8</ele>
        <time>2020-06-02T13:27:37Z</time>
      </trkpt>
      <trkpt lat="46.31929" lon="-1.07491">
        <ele>5.8</ele>
        <time>2020-06-02T13:27:38Z</time>
      </trkpt>
      <trkpt lat="46.3193" lon="-1.0749">
        <ele>5.8</ele>
        <time>2020-06-02T13:27:39Z</time>
      </trkpt>
      <trkpt lat="46.3193" lon="-1.0749">
        <ele>5.8</ele>
        <time>2020-06-02T13:27:40Z</time>
      </trkpt>
      <trkpt lat="46.3193" lon="-1.0749">
        <ele>5.8</ele>
        <time>2020-06-02T13:27:41Z</time>
      </trkpt>
      <trkpt lat="46.3193" lon="-1.0749">
        <ele>5.8</ele>
        <time>2020-06-02T13:27:42Z</time>
      </trkpt>
      <trkpt lat="46.3193" lon="-1.0749">
        <ele>5.8</ele>
        <time>2020-06-02T13:27:43Z</time>
      </trkpt>
      <trkpt lat="46.3193" lon="-1.0749">
        <ele>5.8</ele>
        <time>2020-06-02T13:27:44Z</time>
      </trkpt>
      <trkpt lat="46.3193" lon="-1.0749">
        <ele>5.8</ele>
        <time>2020-06-02T13:27:45Z</time>
      </trkpt>
      <trkpt lat="46.3193" lon="-1.0749">
        <ele>5.8</ele>
        <time>2020-06-02T13:27:46Z</time>
      </trkpt>
      <trkpt lat="46.3193" lon="-1.07489">
        <ele>5.8</ele>
        <time>2020-06-02T13:27:47Z</time>
      </trkpt>
      <trkpt lat="46.3193" lon="-1.07489">
        <ele>5.8</ele>
        <time>2020-06-02T13:27:48Z</time>
      </trkpt>
      <trkpt lat="46.3193" lon="-1.07489">
        <ele>5.8</ele>
        <time>2020-06-02T13:27:49Z</time>
      </trkpt>
      <trkpt lat="46.3193" lon="-1.07489">
        <ele>5.8</ele>
        <time>2020-06-02T13:27:50Z</time>
      </trkpt>
      <trkpt lat="46.3193" lon="-1.07489">
        <ele>5.8</ele>
        <time>2020-06-02T13:27:51Z</time>
      </trkpt>
      <trkpt lat="46.3193" lon="-1.07489">
        <ele>5.8</ele>
        <time>2020-06-02T13:27:52Z</time>
      </trkpt>
      <trkpt lat="46.3193" lon="-1.07489">
        <ele>5.8</ele>
        <time>2020-06-02T13:27:53Z</time>
      </trkpt>
      <trkpt lat="46.3193" lon="-1.07489">
        <ele>5.8</ele>
        <time>2020-06-02T13:27:54Z</time>
      </trkpt>
      <trkpt lat="46.3193" lon="-1.07489">
        <ele>5.8</ele>
        <time>2020-06-02T13:27:55Z</time>
      </trkpt>
      <trkpt lat="46.3193" lon="-1.07489">
        <ele>5.8</ele>
        <time>2020-06-02T13:27:56Z</time>
      </trkpt>
      <trkpt lat="46.3193" lon="-1.07488">
        <ele>5.8</ele>
        <time>2020-06-02T13:27:57Z</time>
      </trkpt>
      <trkpt lat="46.3193" lon="-1.07488">
        <ele>5.8</ele>
        <time>2020-06-02T13:27:58Z</time>
      </trkpt>
      <trkpt lat="46.3193" lon="-1.07488">
        <ele>5.8</ele>
        <time>2020-06-02T13:27:59Z</time>
      </trkpt>
      <trkpt lat="46.3193" lon="-1.07488">
        <ele>5.8</ele>
        <time>2020-06-02T13:28:00Z</time>
      </trkpt>
      <trkpt lat="46.3193" lon="-1.07488">
        <ele>5.8</ele>
        <time>2020-06-02T13:28:01Z</time>
      </trkpt>
      <trkpt lat="46.3193" lon="-1.07488">
        <ele>5.8</ele>
        <time>2020-06-02T13:28:02Z</time>
      </trkpt>
      <trkpt lat="46.3193" lon="-1.07488">
        <ele>5.8</ele>
        <time>2020-06-02T13:28:03Z</time>
      </trkpt>
      <trkpt lat="46.3193" lon="-1.07488">
        <ele>5.8</ele>
        <time>2020-06-02T13:28:04Z</time>
      </trkpt>
      <trkpt lat="46.3193" lon="-1.07487">
        <ele>5.8</ele>
        <time>2020-06-02T13:28:05Z</time>
      </trkpt>
      <trkpt lat="46.31931" lon="-1.07489">
        <ele>5.8</ele>
        <time>2020-06-02T13:28:06Z</time>
      </trkpt>
      <trkpt lat="46.31931" lon="-1.0749">
        <ele>5.8</ele>
        <time>2020-06-02T13:28:07Z</time>
      </trkpt>
      <trkpt lat="46.31931" lon="-1.07491">
        <ele>5.8</ele>
        <time>2020-06-02T13:28:08Z</time>
      </trkpt>
      <trkpt lat="46.31931" lon="-1.07491">
        <ele>5.8</ele>
        <time>2020-06-02T13:28:09Z</time>
      </trkpt>
      <trkpt lat="46.31931" lon="-1.07493">
        <ele>5.8</ele>
        <time>2020-06-02T13:28:10Z</time>
      </trkpt>
      <trkpt lat="46.31931" lon="-1.07494">
        <ele>5.8</ele>
        <time>2020-06-02T13:28:11Z</time>
      </trkpt>
      <trkpt lat="46.31931" lon="-1.07494">
        <ele>5.8</ele>
        <time>2020-06-02T13:28:12Z</time>
      </trkpt>
      <trkpt lat="46.31931" lon="-1.07495">
        <ele>5.8</ele>
        <time>2020-06-02T13:28:13Z</time>
      </trkpt>
      <trkpt lat="46.31931" lon="-1.07496">
        <ele>5.8</ele>
        <time>2020-06-02T13:28:14Z</time>
      </trkpt>
      <trkpt lat="46.31931" lon="-1.07497">
        <ele>5.8</ele>
        <time>2020-06-02T13:28:15Z</time>
      </trkpt>
      <trkpt lat="46.31931" lon="-1.07498">
        <ele>5.8</ele>
        <time>2020-06-02T13:28:16Z</time>
      </trkpt>
      <trkpt lat="46.31932" lon="-1.07498">
        <ele>5.8</ele>
        <time>2020-06-02T13:28:17Z</time>
      </trkpt>
      <trkpt lat="46.31932" lon="-1.07499">
        <ele>5.8</ele>
        <time>2020-06-02T13:28:18Z</time>
      </trkpt>
      <trkpt lat="46.31931" lon="-1.07502">
        <ele>5.8</ele>
        <time>2020-06-02T13:28:19Z</time>
      </trkpt>
      <trkpt lat="46.31931" lon="-1.07504">
        <ele>5.8</ele>
        <time>2020-06-02T13:28:20Z</time>
      </trkpt>
      <trkpt lat="46.3193" lon="-1.07506">
        <ele>5.8</ele>
        <time>2020-06-02T13:28:21Z</time>
      </trkpt>
      <trkpt lat="46.3193" lon="-1.07507">
        <ele>5.8</ele>
        <time>2020-06-02T13:28:22Z</time>
      </trkpt>
      <trkpt lat="46.3193" lon="-1.07507">
        <ele>5.8</ele>
        <time>2020-06-02T13:28:23Z</time>
      </trkpt>
      <trkpt lat="46.31929" lon="-1.07508">
        <ele>5.8</ele>
        <time>2020-06-02T13:28:24Z</time>
      </trkpt>
      <trkpt lat="46.31929" lon="-1.07509">
        <ele>5.8</ele>
        <time>2020-06-02T13:28:25Z</time>
      </trkpt>
      <trkpt lat="46.31929" lon="-1.07509">
        <ele>5.8</ele>
        <time>2020-06-02T13:28:26Z</time>
      </trkpt>
      <trkpt lat="46.31929" lon="-1.07509">
        <ele>5.8</ele>
        <time>2020-06-02T13:28:27Z</time>
      </trkpt>
      <trkpt lat="46.31929" lon="-1.07509">
        <ele>5.8</ele>
        <time>2020-06-02T13:28:28Z</time>
      </trkpt>
      <trkpt lat="46.31929" lon="-1.07509">
        <ele>5.8</ele>
        <time>2020-06-02T13:28:29Z</time>
      </trkpt>
      <trkpt lat="46.31929" lon="-1.07509">
        <ele>5.8</ele>
        <time>2020-06-02T13:28:30Z</time>
      </trkpt>
      <trkpt lat="46.31929" lon="-1.07509">
        <ele>5.8</ele>
        <time>2020-06-02T13:28:31Z</time>
      </trkpt>
      <trkpt lat="46.31929" lon="-1.07509">
        <ele>5.8</ele>
        <time>2020-06-02T13:28:32Z</time>
      </trkpt>
      <trkpt lat="46.31929" lon="-1.07509">
        <ele>5.8</ele>
        <time>2020-06-02T13:28:33Z</time>
      </trkpt>
      <trkpt lat="46.31929" lon="-1.07509">
        <ele>5.8</ele>
        <time>2020-06-02T13:28:34Z</time>
      </trkpt>
      <trkpt lat="46.31929" lon="-1.07509">
        <ele>5.8</ele>
        <time>2020-06-02T13:28:35Z</time>
      </trkpt>
      <trkpt lat="46.31929" lon="-1.07509">
        <ele>5.8</ele>
        <time>2020-06-02T13:28:36Z</time>
      </trkpt>
      <trkpt lat="46.31929" lon="-1.07509">
        <ele>5.8</ele>
        <time>2020-06-02T13:28:37Z</time>
      </trkpt>
      <trkpt lat="46.31929" lon="-1.07509">
        <ele>5.8</ele>
        <time>2020-06-02T13:28:38Z</time>
      </trkpt>
      <trkpt lat="46.31929" lon="-1.07509">
        <ele>5.8</ele>
        <time>2020-06-02T13:28:39Z</time>
      </trkpt>
      <trkpt lat="46.31929" lon="-1.07509">
        <ele>5.8</ele>
        <time>2020-06-02T13:28:40Z</time>
      </trkpt>
      <trkpt lat="46.31929" lon="-1.07509">
        <ele>5.8</ele>
        <time>2020-06-02T13:28:41Z</time>
      </trkpt>
      <trkpt lat="46.31929" lon="-1.07509">
        <ele>5.8</ele>
        <time>2020-06-02T13:28:42Z</time>
      </trkpt>
      <trkpt lat="46.31929" lon="-1.0751">
        <ele>5.8</ele>
        <time>2020-06-02T13:28:43Z</time>
      </trkpt>
      <trkpt lat="46.31929" lon="-1.0751">
        <ele>5.8</ele>
        <time>2020-06-02T13:28:44Z</time>
      </trkpt>
      <trkpt lat="46.31929" lon="-1.0751">
        <ele>5.8</ele>
        <time>2020-06-02T13:28:45Z</time>
      </trkpt>
      <trkpt lat="46.31929" lon="-1.0751">
        <ele>5.8</ele>
        <time>2020-06-02T13:28:46Z</time>
      </trkpt>
      <trkpt lat="46.31928" lon="-1.0751">
        <ele>5.8</ele>
        <time>2020-06-02T13:28:47Z</time>
      </trkpt>
      <trkpt lat="46.31928" lon="-1.0751">
        <ele>5.8</ele>
        <time>2020-06-02T13:28:48Z</time>
      </trkpt>
      <trkpt lat="46.31928" lon="-1.0751">
        <ele>5.8</ele>
        <time>2020-06-02T13:28:49Z</time>
      </trkpt>
      <trkpt lat="46.31929" lon="-1.0751">
        <ele>5.8</ele>
        <time>2020-06-02T13:28:50Z</time>
      </trkpt>
      <trkpt lat="46.31929" lon="-1.0751">
        <ele>5.8</ele>
        <time>2020-06-02T13:28:51Z</time>
      </trkpt>
      <trkpt lat="46.31929" lon="-1.0751">
        <ele>5.8</ele>
        <time>2020-06-02T13:28:52Z</time>
      </trkpt>
      <trkpt lat="46.31928" lon="-1.0751">
        <ele>5.8</ele>
        <time>2020-06-02T13:28:53Z</time>
      </trkpt>
      <trkpt lat="46.31928" lon="-1.0751">
        <ele>5.8</ele>
        <time>2020-06-02T13:28:54Z</time>
      </trkpt>
      <trkpt lat="46.31929" lon="-1.0751">
        <ele>5.8</ele>
        <time>2020-06-02T13:28:55Z</time>
      </trkpt>
      <trkpt lat="46.31929" lon="-1.0751">
        <ele>5.8</ele>
        <time>2020-06-02T13:28:56Z</time>
      </trkpt>
      <trkpt lat="46.31929" lon="-1.0751">
        <ele>5.8</ele>
        <time>2020-06-02T13:28:57Z</time>
      </trkpt>
      <trkpt lat="46.31928" lon="-1.0751">
        <ele>5.8</ele>
        <time>2020-06-02T13:28:58Z</time>
      </trkpt>
      <trkpt lat="46.31929" lon="-1.0751">
        <ele>5.8</ele>
        <time>2020-06-02T13:28:59Z</time>
      </trkpt>
      <trkpt lat="46.31928" lon="-1.0751">
        <ele>5.8</ele>
        <time>2020-06-02T13:29:00Z</time>
      </trkpt>
      <trkpt lat="46.31928" lon="-1.0751">
        <ele>5.8</ele>
        <time>2020-06-02T13:29:01Z</time>
      </trkpt>
      <trkpt lat="46.31928" lon="-1.0751">
        <ele>5.8</ele>
        <time>2020-06-02T13:29:02Z</time>
      </trkpt>
      <trkpt lat="46.31928" lon="-1.0751">
        <ele>5.8</ele>
        <time>2020-06-02T13:29:03Z</time>
      </trkpt>
      <trkpt lat="46.31928" lon="-1.0751">
        <ele>5.8</ele>
        <time>2020-06-02T13:29:04Z</time>
      </trkpt>
      <trkpt lat="46.31928" lon="-1.07511">
        <ele>5.8</ele>
        <time>2020-06-02T13:29:05Z</time>
      </trkpt>
      <trkpt lat="46.31928" lon="-1.07511">
        <ele>5.8</ele>
        <time>2020-06-02T13:29:06Z</time>
      </trkpt>
      <trkpt lat="46.31927" lon="-1.07512">
        <ele>5.8</ele>
        <time>2020-06-02T13:29:07Z</time>
      </trkpt>
      <trkpt lat="46.31927" lon="-1.07512">
        <ele>5.8</ele>
        <time>2020-06-02T13:29:08Z</time>
      </trkpt>
      <trkpt lat="46.31926" lon="-1.07512">
        <ele>5.8</ele>
        <time>2020-06-02T13:29:09Z</time>
      </trkpt>
      <trkpt lat="46.31926" lon="-1.07512">
        <ele>5.8</ele>
        <time>2020-06-02T13:29:10Z</time>
      </trkpt>
      <trkpt lat="46.31926" lon="-1.07512">
        <ele>5.8</ele>
        <time>2020-06-02T13:29:11Z</time>
      </trkpt>
      <trkpt lat="46.31926" lon="-1.07512">
        <ele>5.7</ele>
        <time>2020-06-02T13:29:12Z</time>
      </trkpt>
      <trkpt lat="46.31926" lon="-1.07512">
        <ele>5.7</ele>
        <time>2020-06-02T13:29:13Z</time>
      </trkpt>
      <trkpt lat="46.31926" lon="-1.07512">
        <ele>5.7</ele>
        <time>2020-06-02T13:29:14Z</time>
      </trkpt>
      <trkpt lat="46.31925" lon="-1.07512">
        <ele>5.7</ele>
        <time>2020-06-02T13:29:15Z</time>
      </trkpt>
      <trkpt lat="46.31925" lon="-1.07511">
        <ele>5.7</ele>
        <time>2020-06-02T13:29:16Z</time>
      </trkpt>
      <trkpt lat="46.31926" lon="-1.07511">
        <ele>5.7</ele>
        <time>2020-06-02T13:29:17Z</time>
      </trkpt>
      <trkpt lat="46.31926" lon="-1.07511">
        <ele>5.7</ele>
        <time>2020-06-02T13:29:18Z</time>
      </trkpt>
      <trkpt lat="46.31926" lon="-1.07511">
        <ele>5.7</ele>
        <time>2020-06-02T13:29:19Z</time>
      </trkpt>
      <trkpt lat="46.31926" lon="-1.07511">
        <ele>5.7</ele>
        <time>2020-06-02T13:29:20Z</time>
      </trkpt>
      <trkpt lat="46.31926" lon="-1.07511">
        <ele>5.7</ele>
        <time>2020-06-02T13:29:21Z</time>
      </trkpt>
      <trkpt lat="46.31925" lon="-1.07511">
        <ele>5.7</ele>
        <time>2020-06-02T13:29:22Z</time>
      </trkpt>
      <trkpt lat="46.31925" lon="-1.07511">
        <ele>5.7</ele>
        <time>2020-06-02T13:29:23Z</time>
      </trkpt>
      <trkpt lat="46.31926" lon="-1.07511">
        <ele>5.7</ele>
        <time>2020-06-02T13:29:24Z</time>
      </trkpt>
      <trkpt lat="46.31926" lon="-1.07511">
        <ele>5.7</ele>
        <time>2020-06-02T13:29:25Z</time>
      </trkpt>
      <trkpt lat="46.31925" lon="-1.07511">
        <ele>5.7</ele>
        <time>2020-06-02T13:29:26Z</time>
      </trkpt>
      <trkpt lat="46.31925" lon="-1.0751">
        <ele>5.7</ele>
        <time>2020-06-02T13:29:27Z</time>
      </trkpt>
      <trkpt lat="46.31925" lon="-1.0751">
        <ele>5.7</ele>
        <time>2020-06-02T13:29:28Z</time>
      </trkpt>
      <trkpt lat="46.31925" lon="-1.0751">
        <ele>5.7</ele>
        <time>2020-06-02T13:29:29Z</time>
      </trkpt>
      <trkpt lat="46.31925" lon="-1.0751">
        <ele>5.7</ele>
        <time>2020-06-02T13:29:30Z</time>
      </trkpt>
      <trkpt lat="46.31926" lon="-1.0751">
        <ele>5.7</ele>
        <time>2020-06-02T13:29:31Z</time>
      </trkpt>
      <trkpt lat="46.31926" lon="-1.0751">
        <ele>5.7</ele>
        <time>2020-06-02T13:29:32Z</time>
      </trkpt>
      <trkpt lat="46.31925" lon="-1.0751">
        <ele>5.7</ele>
        <time>2020-06-02T13:29:33Z</time>
      </trkpt>
      <trkpt lat="46.31926" lon="-1.07509">
        <ele>5.7</ele>
        <time>2020-06-02T13:29:34Z</time>
      </trkpt>
      <trkpt lat="46.31926" lon="-1.07509">
        <ele>5.7</ele>
        <time>2020-06-02T13:29:35Z</time>
      </trkpt>
      <trkpt lat="46.31926" lon="-1.07507">
        <ele>5.7</ele>
        <time>2020-06-02T13:29:36Z</time>
      </trkpt>
      <trkpt lat="46.31926" lon="-1.07506">
        <ele>5.7</ele>
        <time>2020-06-02T13:29:37Z</time>
      </trkpt>
      <trkpt lat="46.31926" lon="-1.07504">
        <ele>5.7</ele>
        <time>2020-06-02T13:29:38Z</time>
      </trkpt>
      <trkpt lat="46.31928" lon="-1.07503">
        <ele>5.7</ele>
        <time>2020-06-02T13:29:39Z</time>
      </trkpt>
      <trkpt lat="46.31928" lon="-1.07502">
        <ele>5.7</ele>
        <time>2020-06-02T13:29:40Z</time>
      </trkpt>
      <trkpt lat="46.31928" lon="-1.07502">
        <ele>5.7</ele>
        <time>2020-06-02T13:29:41Z</time>
      </trkpt>
      <trkpt lat="46.31928" lon="-1.07501">
        <ele>5.7</ele>
        <time>2020-06-02T13:29:42Z</time>
      </trkpt>
      <trkpt lat="46.31928" lon="-1.07503">
        <ele>5.7</ele>
        <time>2020-06-02T13:29:43Z</time>
      </trkpt>
      <trkpt lat="46.31928" lon="-1.07503">
        <ele>5.7</ele>
        <time>2020-06-02T13:29:44Z</time>
      </trkpt>
      <trkpt lat="46.31928" lon="-1.07504">
        <ele>5.7</ele>
        <time>2020-06-02T13:29:45Z</time>
      </trkpt>
      <trkpt lat="46.31928" lon="-1.07503">
        <ele>5.7</ele>
        <time>2020-06-02T13:29:46Z</time>
      </trkpt>
      <trkpt lat="46.31928" lon="-1.07503">
        <ele>5.7</ele>
        <time>2020-06-02T13:29:47Z</time>
      </trkpt>
      <trkpt lat="46.31928" lon="-1.07502">
        <ele>5.7</ele>
        <time>2020-06-02T13:29:48Z</time>
      </trkpt>
      <trkpt lat="46.31927" lon="-1.07502">
        <ele>5.7</ele>
        <time>2020-06-02T13:29:49Z</time>
      </trkpt>
      <trkpt lat="46.31928" lon="-1.07502">
        <ele>5.7</ele>
        <time>2020-06-02T13:29:50Z</time>
      </trkpt>
      <trkpt lat="46.31928" lon="-1.07501">
        <ele>5.7</ele>
        <time>2020-06-02T13:29:51Z</time>
      </trkpt>
      <trkpt lat="46.31928" lon="-1.07501">
        <ele>5.7</ele>
        <time>2020-06-02T13:29:52Z</time>
      </trkpt>
      <trkpt lat="46.31928" lon="-1.07501">
        <ele>5.7</ele>
        <time>2020-06-02T13:29:53Z</time>
      </trkpt>
      <trkpt lat="46.31928" lon="-1.07501">
        <ele>5.7</ele>
        <time>2020-06-02T13:29:54Z</time>
      </trkpt>
      <trkpt lat="46.31928" lon="-1.07501">
        <ele>5.7</ele>
        <time>2020-06-02T13:29:55Z</time>
      </trkpt>
      <trkpt lat="46.31928" lon="-1.07501">
        <ele>5.7</ele>
        <time>2020-06-02T13:29:56Z</time>
      </trkpt>
      <trkpt lat="46.31928" lon="-1.07501">
        <ele>5.7</ele>
        <time>2020-06-02T13:29:57Z</time>
      </trkpt>
      <trkpt lat="46.31928" lon="-1.07501">
        <ele>5.7</ele>
        <time>2020-06-02T13:29:58Z</time>
      </trkpt>
      <trkpt lat="46.31928" lon="-1.07501">
        <ele>5.7</ele>
        <time>2020-06-02T13:29:59Z</time>
      </trkpt>
      <trkpt lat="46.31928" lon="-1.07501">
        <ele>5.7</ele>
        <time>2020-06-02T13:30:00Z</time>
      </trkpt>
      <trkpt lat="46.31928" lon="-1.07501">
        <ele>5.7</ele>
        <time>2020-06-02T13:30:01Z</time>
      </trkpt>
      <trkpt lat="46.31928" lon="-1.07501">
        <ele>5.7</ele>
        <time>2020-06-02T13:30:02Z</time>
      </trkpt>
      <trkpt lat="46.31928" lon="-1.07501">
        <ele>5.7</ele>
        <time>2020-06-02T13:30:03Z</time>
      </trkpt>
      <trkpt lat="46.31928" lon="-1.07501">
        <ele>5.7</ele>
        <time>2020-06-02T13:30:04Z</time>
      </trkpt>
      <trkpt lat="46.31928" lon="-1.07501">
        <ele>5.7</ele>
        <time>2020-06-02T13:30:05Z</time>
      </trkpt>
      <trkpt lat="46.31928" lon="-1.07501">
        <ele>5.7</ele>
        <time>2020-06-02T13:30:06Z</time>
      </trkpt>
      <trkpt lat="46.31928" lon="-1.07501">
        <ele>5.7</ele>
        <time>2020-06-02T13:30:07Z</time>
      </trkpt>
      <trkpt lat="46.31928" lon="-1.07501">
        <ele>5.7</ele>
        <time>2020-06-02T13:30:08Z</time>
      </trkpt>
      <trkpt lat="46.31928" lon="-1.07501">
        <ele>5.7</ele>
        <time>2020-06-02T13:30:09Z</time>
      </trkpt>
      <trkpt lat="46.31928" lon="-1.07501">
        <ele>5.7</ele>
        <time>2020-06-02T13:30:10Z</time>
      </trkpt>
      <trkpt lat="46.31928" lon="-1.07502">
        <ele>5.7</ele>
        <time>2020-06-02T13:30:11Z</time>
      </trkpt>
      <trkpt lat="46.31929" lon="-1.07503">
        <ele>5.7</ele>
        <time>2020-06-02T13:30:12Z</time>
      </trkpt>
      <trkpt lat="46.31928" lon="-1.07504">
        <ele>5.7</ele>
        <time>2020-06-02T13:30:13Z</time>
      </trkpt>
      <trkpt lat="46.31928" lon="-1.07506">
        <ele>5.7</ele>
        <time>2020-06-02T13:30:14Z</time>
      </trkpt>
      <trkpt lat="46.31928" lon="-1.07508">
        <ele>5.7</ele>
        <time>2020-06-02T13:30:15Z</time>
      </trkpt>
      <trkpt lat="46.31928" lon="-1.07508">
        <ele>5.7</ele>
        <time>2020-06-02T13:30:16Z</time>
      </trkpt>
      <trkpt lat="46.31928" lon="-1.07508">
        <ele>5.7</ele>
        <time>2020-06-02T13:30:17Z</time>
      </trkpt>
      <trkpt lat="46.31927" lon="-1.07508">
        <ele>5.7</ele>
        <time>2020-06-02T13:30:18Z</time>
      </trkpt>
      <trkpt lat="46.31927" lon="-1.07509">
        <ele>5.7</ele>
        <time>2020-06-02T13:30:19Z</time>
      </trkpt>
      <trkpt lat="46.31927" lon="-1.07509">
        <ele>5.7</ele>
        <time>2020-06-02T13:30:20Z</time>
      </trkpt>
      <trkpt lat="46.31927" lon="-1.07509">
        <ele>5.7</ele>
        <time>2020-06-02T13:30:21Z</time>
      </trkpt>
      <trkpt lat="46.31927" lon="-1.07509">
        <ele>5.7</ele>
        <time>2020-06-02T13:30:22Z</time>
      </trkpt>
      <trkpt lat="46.31927" lon="-1.0751">
        <ele>5.7</ele>
        <time>2020-06-02T13:30:23Z</time>
      </trkpt>
      <trkpt lat="46.31927" lon="-1.0751">
        <ele>5.7</ele>
        <time>2020-06-02T13:30:24Z</time>
      </trkpt>
      <trkpt lat="46.31927" lon="-1.0751">
        <ele>5.7</ele>
        <time>2020-06-02T13:30:25Z</time>
      </trkpt>
      <trkpt lat="46.31927" lon="-1.0751">
        <ele>5.7</ele>
        <time>2020-06-02T13:30:26Z</time>
      </trkpt>
      <trkpt lat="46.31927" lon="-1.0751">
        <ele>5.7</ele>
        <time>2020-06-02T13:30:27Z</time>
      </trkpt>
      <trkpt lat="46.31927" lon="-1.0751">
        <ele>5.7</ele>
        <time>2020-06-02T13:30:28Z</time>
      </trkpt>
      <trkpt lat="46.31927" lon="-1.0751">
        <ele>5.7</ele>
        <time>2020-06-02T13:30:29Z</time>
      </trkpt>
      <trkpt lat="46.31927" lon="-1.0751">
        <ele>5.7</ele>
        <time>2020-06-02T13:30:30Z</time>
      </trkpt>
      <trkpt lat="46.31927" lon="-1.0751">
        <ele>5.7</ele>
        <time>2020-06-02T13:30:31Z</time>
      </trkpt>
      <trkpt lat="46.31927" lon="-1.0751">
        <ele>5.7</ele>
        <time>2020-06-02T13:30:32Z</time>
      </trkpt>
      <trkpt lat="46.31927" lon="-1.0751">
        <ele>5.7</ele>
        <time>2020-06-02T13:30:33Z</time>
      </trkpt>
      <trkpt lat="46.31927" lon="-1.0751">
        <ele>5.7</ele>
        <time>2020-06-02T13:30:34Z</time>
      </trkpt>
      <trkpt lat="46.31927" lon="-1.07511">
        <ele>5.7</ele>
        <time>2020-06-02T13:30:35Z</time>
      </trkpt>
      <trkpt lat="46.31927" lon="-1.07511">
        <ele>5.7</ele>
        <time>2020-06-02T13:30:36Z</time>
      </trkpt>
      <trkpt lat="46.31927" lon="-1.07511">
        <ele>5.7</ele>
        <time>2020-06-02T13:30:37Z</time>
      </trkpt>
      <trkpt lat="46.31927" lon="-1.07511">
        <ele>5.7</ele>
        <time>2020-06-02T13:30:38Z</time>
      </trkpt>
      <trkpt lat="46.31927" lon="-1.07511">
        <ele>5.7</ele>
        <time>2020-06-02T13:30:39Z</time>
      </trkpt>
      <trkpt lat="46.31927" lon="-1.07511">
        <ele>5.7</ele>
        <time>2020-06-02T13:30:40Z</time>
      </trkpt>
      <trkpt lat="46.31927" lon="-1.07511">
        <ele>5.7</ele>
        <time>2020-06-02T13:30:41Z</time>
      </trkpt>
      <trkpt lat="46.31927" lon="-1.07511">
        <ele>5.7</ele>
        <time>2020-06-02T13:30:42Z</time>
      </trkpt>
      <trkpt lat="46.31927" lon="-1.07511">
        <ele>5.7</ele>
        <time>2020-06-02T13:30:43Z</time>
      </trkpt>
      <trkpt lat="46.31927" lon="-1.07511">
        <ele>5.7</ele>
        <time>2020-06-02T13:30:44Z</time>
      </trkpt>
      <trkpt lat="46.31927" lon="-1.07511">
        <ele>5.7</ele>
        <time>2020-06-02T13:30:45Z</time>
      </trkpt>
      <trkpt lat="46.31927" lon="-1.07511">
        <ele>5.7</ele>
        <time>2020-06-02T13:30:46Z</time>
      </trkpt>
      <trkpt lat="46.31927" lon="-1.07511">
        <ele>5.7</ele>
        <time>2020-06-02T13:30:47Z</time>
      </trkpt>
      <trkpt lat="46.31927" lon="-1.07511">
        <ele>5.7</ele>
        <time>2020-06-02T13:30:48Z</time>
      </trkpt>
      <trkpt lat="46.31927" lon="-1.07511">
        <ele>5.7</ele>
        <time>2020-06-02T13:30:49Z</time>
      </trkpt>
      <trkpt lat="46.31927" lon="-1.07511">
        <ele>5.7</ele>
        <time>2020-06-02T13:30:50Z</time>
      </trkpt>
      <trkpt lat="46.31927" lon="-1.07511">
        <ele>5.7</ele>
        <time>2020-06-02T13:30:51Z</time>
      </trkpt>
      <trkpt lat="46.31927" lon="-1.07511">
        <ele>5.7</ele>
        <time>2020-06-02T13:30:52Z</time>
      </trkpt>
      <trkpt lat="46.31927" lon="-1.07511">
        <ele>5.7</ele>
        <time>2020-06-02T13:30:53Z</time>
      </trkpt>
      <trkpt lat="46.31927" lon="-1.07511">
        <ele>5.7</ele>
        <time>2020-06-02T13:30:54Z</time>
      </trkpt>
      <trkpt lat="46.31926" lon="-1.07511">
        <ele>5.7</ele>
        <time>2020-06-02T13:30:55Z</time>
      </trkpt>
      <trkpt lat="46.31926" lon="-1.07511">
        <ele>5.7</ele>
        <time>2020-06-02T13:30:56Z</time>
      </trkpt>
      <trkpt lat="46.31926" lon="-1.07511">
        <ele>5.7</ele>
        <time>2020-06-02T13:30:57Z</time>
      </trkpt>
      <trkpt lat="46.31926" lon="-1.07511">
        <ele>5.7</ele>
        <time>2020-06-02T13:30:58Z</time>
      </trkpt>
      <trkpt lat="46.31926" lon="-1.0751">
        <ele>5.7</ele>
        <time>2020-06-02T13:30:59Z</time>
      </trkpt>
      <trkpt lat="46.31926" lon="-1.0751">
        <ele>5.7</ele>
        <time>2020-06-02T13:31:00Z</time>
      </trkpt>
      <trkpt lat="46.31926" lon="-1.07511">
        <ele>5.7</ele>
        <time>2020-06-02T13:31:01Z</time>
      </trkpt>
      <trkpt lat="46.31925" lon="-1.07509">
        <ele>5.7</ele>
        <time>2020-06-02T13:31:02Z</time>
      </trkpt>
      <trkpt lat="46.31925" lon="-1.07508">
        <ele>5.7</ele>
        <time>2020-06-02T13:31:03Z</time>
      </trkpt>
      <trkpt lat="46.31925" lon="-1.07507">
        <ele>5.7</ele>
        <time>2020-06-02T13:31:04Z</time>
      </trkpt>
      <trkpt lat="46.31925" lon="-1.07505">
        <ele>5.7</ele>
        <time>2020-06-02T13:31:05Z</time>
      </trkpt>
      <trkpt lat="46.31926" lon="-1.07502">
        <ele>5.7</ele>
        <time>2020-06-02T13:31:06Z</time>
      </trkpt>
      <trkpt lat="46.31926" lon="-1.075">
        <ele>5.7</ele>
        <time>2020-06-02T13:31:07Z</time>
      </trkpt>
      <trkpt lat="46.31927" lon="-1.07499">
        <ele>5.7</ele>
        <time>2020-06-02T13:31:08Z</time>
      </trkpt>
      <trkpt lat="46.31928" lon="-1.07496">
        <ele>5.7</ele>
        <time>2020-06-02T13:31:09Z</time>
      </trkpt>
      <trkpt lat="46.31928" lon="-1.07494">
        <ele>5.7</ele>
        <time>2020-06-02T13:31:10Z</time>
      </trkpt>
      <trkpt lat="46.31929" lon="-1.07492">
        <ele>5.7</ele>
        <time>2020-06-02T13:31:11Z</time>
      </trkpt>
      <trkpt lat="46.31929" lon="-1.0749">
        <ele>5.7</ele>
        <time>2020-06-02T13:31:12Z</time>
      </trkpt>
      <trkpt lat="46.31931" lon="-1.07489">
        <ele>5.7</ele>
        <time>2020-06-02T13:31:13Z</time>
      </trkpt>
      <trkpt lat="46.31931" lon="-1.07488">
        <ele>5.6</ele>
        <time>2020-06-02T13:31:14Z</time>
      </trkpt>
      <trkpt lat="46.3193" lon="-1.07488">
        <ele>5.6</ele>
        <time>2020-06-02T13:31:15Z</time>
      </trkpt>
      <trkpt lat="46.3193" lon="-1.07489">
        <ele>5.6</ele>
        <time>2020-06-02T13:31:16Z</time>
      </trkpt>
      <trkpt lat="46.3193" lon="-1.0749">
        <ele>5.6</ele>
        <time>2020-06-02T13:31:17Z</time>
      </trkpt>
      <trkpt lat="46.3193" lon="-1.0749">
        <ele>5.6</ele>
        <time>2020-06-02T13:31:18Z</time>
      </trkpt>
      <trkpt lat="46.3193" lon="-1.0749">
        <ele>5.6</ele>
        <time>2020-06-02T13:31:19Z</time>
      </trkpt>
      <trkpt lat="46.3193" lon="-1.0749">
        <ele>5.6</ele>
        <time>2020-06-02T13:31:20Z</time>
      </trkpt>
      <trkpt lat="46.3193" lon="-1.0749">
        <ele>5.6</ele>
        <time>2020-06-02T13:31:21Z</time>
      </trkpt>
      <trkpt lat="46.3193" lon="-1.0749">
        <ele>5.6</ele>
        <time>2020-06-02T13:31:22Z</time>
      </trkpt>
      <trkpt lat="46.3193" lon="-1.0749">
        <ele>5.6</ele>
        <time>2020-06-02T13:31:23Z</time>
      </trkpt>
      <trkpt lat="46.3193" lon="-1.0749">
        <ele>5.6</ele>
        <time>2020-06-02T13:31:24Z</time>
      </trkpt>
      <trkpt lat="46.3193" lon="-1.0749">
        <ele>5.6</ele>
        <time>2020-06-02T13:31:25Z</time>
      </trkpt>
      <trkpt lat="46.3193" lon="-1.0749">
        <ele>5.6</ele>
        <time>2020-06-02T13:31:26Z</time>
      </trkpt>
      <trkpt lat="46.3193" lon="-1.0749">
        <ele>5.6</ele>
        <time>2020-06-02T13:31:27Z</time>
      </trkpt>
      <trkpt lat="46.3193" lon="-1.0749">
        <ele>5.6</ele>
        <time>2020-06-02T13:31:28Z</time>
      </trkpt>
      <trkpt lat="46.3193" lon="-1.0749">
        <ele>5.6</ele>
        <time>2020-06-02T13:31:29Z</time>
      </trkpt>
      <trkpt lat="46.3193" lon="-1.0749">
        <ele>5.6</ele>
        <time>2020-06-02T13:31:30Z</time>
      </trkpt>
      <trkpt lat="46.3193" lon="-1.0749">
        <ele>5.6</ele>
        <time>2020-06-02T13:31:31Z</time>
      </trkpt>
      <trkpt lat="46.3193" lon="-1.0749">
        <ele>5.6</ele>
        <time>2020-06-02T13:31:32Z</time>
      </trkpt>
      <trkpt lat="46.3193" lon="-1.0749">
        <ele>5.6</ele>
        <time>2020-06-02T13:31:33Z</time>
      </trkpt>
      <trkpt lat="46.3193" lon="-1.0749">
        <ele>5.6</ele>
        <time>2020-06-02T13:31:34Z</time>
      </trkpt>
      <trkpt lat="46.3193" lon="-1.0749">
        <ele>5.6</ele>
        <time>2020-06-02T13:31:35Z</time>
      </trkpt>
      <trkpt lat="46.3193" lon="-1.07489">
        <ele>5.6</ele>
        <time>2020-06-02T13:31:36Z</time>
      </trkpt>
      <trkpt lat="46.3193" lon="-1.07489">
        <ele>5.6</ele>
        <time>2020-06-02T13:31:37Z</time>
      </trkpt>
      <trkpt lat="46.3193" lon="-1.07489">
        <ele>5.6</ele>
        <time>2020-06-02T13:31:38Z</time>
      </trkpt>
      <trkpt lat="46.3193" lon="-1.07489">
        <ele>5.6</ele>
        <time>2020-06-02T13:31:39Z</time>
      </trkpt>
      <trkpt lat="46.3193" lon="-1.07489">
        <ele>5.6</ele>
        <time>2020-06-02T13:31:40Z</time>
      </trkpt>
      <trkpt lat="46.3193" lon="-1.07489">
        <ele>5.6</ele>
        <time>2020-06-02T13:31:41Z</time>
      </trkpt>
      <trkpt lat="46.3193" lon="-1.07489">
        <ele>5.6</ele>
        <time>2020-06-02T13:31:42Z</time>
      </trkpt>
      <trkpt lat="46.3193" lon="-1.07489">
        <ele>5.6</ele>
        <time>2020-06-02T13:31:43Z</time>
      </trkpt>
      <trkpt lat="46.3193" lon="-1.07489">
        <ele>5.6</ele>
        <time>2020-06-02T13:31:44Z</time>
      </trkpt>
      <trkpt lat="46.3193" lon="-1.07489">
        <ele>5.6</ele>
        <time>2020-06-02T13:31:45Z</time>
      </trkpt>
      <trkpt lat="46.3193" lon="-1.07489">
        <ele>5.6</ele>
        <time>2020-06-02T13:31:46Z</time>
      </trkpt>
      <trkpt lat="46.3193" lon="-1.07489">
        <ele>5.6</ele>
        <time>2020-06-02T13:31:47Z</time>
      </trkpt>
      <trkpt lat="46.3193" lon="-1.07489">
        <ele>5.6</ele>
        <time>2020-06-02T13:31:48Z</time>
      </trkpt>
      <trkpt lat="46.3193" lon="-1.07489">
        <ele>5.6</ele>
        <time>2020-06-02T13:31:49Z</time>
      </trkpt>
      <trkpt lat="46.3193" lon="-1.07489">
        <ele>5.6</ele>
        <time>2020-06-02T13:31:50Z</time>
      </trkpt>
      <trkpt lat="46.3193" lon="-1.07489">
        <ele>5.6</ele>
        <time>2020-06-02T13:31:51Z</time>
      </trkpt>
      <trkpt lat="46.3193" lon="-1.07489">
        <ele>5.6</ele>
        <time>2020-06-02T13:31:52Z</time>
      </trkpt>
      <trkpt lat="46.3193" lon="-1.07489">
        <ele>5.6</ele>
        <time>2020-06-02T13:31:53Z</time>
      </trkpt>
      <trkpt lat="46.3193" lon="-1.07489">
        <ele>5.6</ele>
        <time>2020-06-02T13:31:54Z</time>
      </trkpt>
      <trkpt lat="46.3193" lon="-1.07489">
        <ele>5.6</ele>
        <time>2020-06-02T13:31:55Z</time>
      </trkpt>
      <trkpt lat="46.3193" lon="-1.07489">
        <ele>5.6</ele>
        <time>2020-06-02T13:31:56Z</time>
      </trkpt>
      <trkpt lat="46.3193" lon="-1.07488">
        <ele>5.6</ele>
        <time>2020-06-02T13:31:57Z</time>
      </trkpt>
      <trkpt lat="46.3193" lon="-1.0749">
        <ele>5.6</ele>
        <time>2020-06-02T13:31:58Z</time>
      </trkpt>
      <trkpt lat="46.31929" lon="-1.07491">
        <ele>5.6</ele>
        <time>2020-06-02T13:31:59Z</time>
      </trkpt>
      <trkpt lat="46.31928" lon="-1.07492">
        <ele>5.6</ele>
        <time>2020-06-02T13:32:00Z</time>
      </trkpt>
      <trkpt lat="46.31928" lon="-1.07493">
        <ele>5.6</ele>
        <time>2020-06-02T13:32:01Z</time>
      </trkpt>
      <trkpt lat="46.31927" lon="-1.07494">
        <ele>5.6</ele>
        <time>2020-06-02T13:32:02Z</time>
      </trkpt>
      <trkpt lat="46.31927" lon="-1.07494">
        <ele>5.6</ele>
        <time>2020-06-02T13:32:03Z</time>
      </trkpt>
      <trkpt lat="46.31927" lon="-1.07494">
        <ele>5.6</ele>
        <time>2020-06-02T13:32:04Z</time>
      </trkpt>
      <trkpt lat="46.31927" lon="-1.07494">
        <ele>5.6</ele>
        <time>2020-06-02T13:32:05Z</time>
      </trkpt>
      <trkpt lat="46.31927" lon="-1.07494">
        <ele>5.6</ele>
        <time>2020-06-02T13:32:06Z</time>
      </trkpt>
      <trkpt lat="46.31927" lon="-1.07494">
        <ele>5.6</ele>
        <time>2020-06-02T13:32:07Z</time>
      </trkpt>
      <trkpt lat="46.31927" lon="-1.07494">
        <ele>5.6</ele>
        <time>2020-06-02T13:32:08Z</time>
      </trkpt>
      <trkpt lat="46.31927" lon="-1.07494">
        <ele>5.6</ele>
        <time>2020-06-02T13:32:09Z</time>
      </trkpt>
      <trkpt lat="46.31927" lon="-1.07494">
        <ele>5.6</ele>
        <time>2020-06-02T13:32:10Z</time>
      </trkpt>
      <trkpt lat="46.31927" lon="-1.07494">
        <ele>5.6</ele>
        <time>2020-06-02T13:32:11Z</time>
      </trkpt>
      <trkpt lat="46.31927" lon="-1.07494">
        <ele>5.6</ele>
        <time>2020-06-02T13:32:12Z</time>
      </trkpt>
      <trkpt lat="46.31927" lon="-1.07494">
        <ele>5.6</ele>
        <time>2020-06-02T13:32:13Z</time>
      </trkpt>
      <trkpt lat="46.31927" lon="-1.07494">
        <ele>5.6</ele>
        <time>2020-06-02T13:32:14Z</time>
      </trkpt>
      <trkpt lat="46.31927" lon="-1.07494">
        <ele>5.6</ele>
        <time>2020-06-02T13:32:15Z</time>
      </trkpt>
      <trkpt lat="46.31927" lon="-1.07495">
        <ele>5.6</ele>
        <time>2020-06-02T13:32:16Z</time>
      </trkpt>
      <trkpt lat="46.31927" lon="-1.07495">
        <ele>5.6</ele>
        <time>2020-06-02T13:32:17Z</time>
      </trkpt>
      <trkpt lat="46.31926" lon="-1.07495">
        <ele>5.6</ele>
        <time>2020-06-02T13:32:18Z</time>
      </trkpt>
      <trkpt lat="46.31926" lon="-1.07495">
        <ele>5.6</ele>
        <time>2020-06-02T13:32:19Z</time>
      </trkpt>
      <trkpt lat="46.31926" lon="-1.07495">
        <ele>5.6</ele>
        <time>2020-06-02T13:32:20Z</time>
      </trkpt>
      <trkpt lat="46.31926" lon="-1.07495">
        <ele>5.6</ele>
        <time>2020-06-02T13:32:21Z</time>
      </trkpt>
      <trkpt lat="46.31926" lon="-1.07496">
        <ele>5.6</ele>
        <time>2020-06-02T13:32:22Z</time>
      </trkpt>
      <trkpt lat="46.31926" lon="-1.07496">
        <ele>5.6</ele>
        <time>2020-06-02T13:32:23Z</time>
      </trkpt>
      <trkpt lat="46.31926" lon="-1.07496">
        <ele>5.6</ele>
        <time>2020-06-02T13:32:24Z</time>
      </trkpt>
      <trkpt lat="46.31926" lon="-1.07497">
        <ele>5.6</ele>
        <time>2020-06-02T13:32:25Z</time>
      </trkpt>
      <trkpt lat="46.31926" lon="-1.07497">
        <ele>5.6</ele>
        <time>2020-06-02T13:32:26Z</time>
      </trkpt>
      <trkpt lat="46.31926" lon="-1.07497">
        <ele>5.6</ele>
        <time>2020-06-02T13:32:27Z</time>
      </trkpt>
      <trkpt lat="46.31926" lon="-1.07497">
        <ele>5.6</ele>
        <time>2020-06-02T13:32:28Z</time>
      </trkpt>
      <trkpt lat="46.31926" lon="-1.07497">
        <ele>5.6</ele>
        <time>2020-06-02T13:32:29Z</time>
      </trkpt>
      <trkpt lat="46.31926" lon="-1.07497">
        <ele>5.6</ele>
        <time>2020-06-02T13:32:30Z</time>
      </trkpt>
      <trkpt lat="46.31926" lon="-1.07498">
        <ele>5.6</ele>
        <time>2020-06-02T13:32:31Z</time>
      </trkpt>
      <trkpt lat="46.31926" lon="-1.07499">
        <ele>5.6</ele>
        <time>2020-06-02T13:32:32Z</time>
      </trkpt>
      <trkpt lat="46.31926" lon="-1.07499">
        <ele>5.6</ele>
        <time>2020-06-02T13:32:33Z</time>
      </trkpt>
      <trkpt lat="46.31926" lon="-1.07499">
        <ele>5.6</ele>
        <time>2020-06-02T13:32:34Z</time>
      </trkpt>
      <trkpt lat="46.31925" lon="-1.07498">
        <ele>5.6</ele>
        <time>2020-06-02T13:32:35Z</time>
      </trkpt>
      <trkpt lat="46.31925" lon="-1.07498">
        <ele>5.6</ele>
        <time>2020-06-02T13:32:36Z</time>
      </trkpt>
      <trkpt lat="46.31925" lon="-1.07498">
        <ele>5.6</ele>
        <time>2020-06-02T13:32:37Z</time>
      </trkpt>
      <trkpt lat="46.31925" lon="-1.075">
        <ele>5.6</ele>
        <time>2020-06-02T13:32:38Z</time>
      </trkpt>
      <trkpt lat="46.31925" lon="-1.07501">
        <ele>5.6</ele>
        <time>2020-06-02T13:32:39Z</time>
      </trkpt>
      <trkpt lat="46.31925" lon="-1.07501">
        <ele>5.6</ele>
        <time>2020-06-02T13:32:40Z</time>
      </trkpt>
      <trkpt lat="46.31925" lon="-1.07501">
        <ele>5.6</ele>
        <time>2020-06-02T13:32:41Z</time>
      </trkpt>
      <trkpt lat="46.31925" lon="-1.07502">
        <ele>5.6</ele>
        <time>2020-06-02T13:32:42Z</time>
      </trkpt>
      <trkpt lat="46.31925" lon="-1.07501">
        <ele>5.6</ele>
        <time>2020-06-02T13:32:43Z</time>
      </trkpt>
      <trkpt lat="46.31925" lon="-1.075">
        <ele>5.6</ele>
        <time>2020-06-02T13:32:44Z</time>
      </trkpt>
      <trkpt lat="46.31925" lon="-1.075">
        <ele>5.6</ele>
        <time>2020-06-02T13:32:45Z</time>
      </trkpt>
      <trkpt lat="46.31925" lon="-1.075">
        <ele>5.6</ele>
        <time>2020-06-02T13:32:46Z</time>
      </trkpt>
      <trkpt lat="46.31925" lon="-1.075">
        <ele>5.6</ele>
        <time>2020-06-02T13:32:47Z</time>
      </trkpt>
      <trkpt lat="46.31925" lon="-1.075">
        <ele>5.6</ele>
        <time>2020-06-02T13:32:48Z</time>
      </trkpt>
      <trkpt lat="46.31925" lon="-1.075">
        <ele>5.6</ele>
        <time>2020-06-02T13:32:49Z</time>
      </trkpt>
      <trkpt lat="46.31926" lon="-1.07498">
        <ele>5.6</ele>
        <time>2020-06-02T13:32:50Z</time>
      </trkpt>
      <trkpt lat="46.31926" lon="-1.07497">
        <ele>5.6</ele>
        <time>2020-06-02T13:32:51Z</time>
      </trkpt>
      <trkpt lat="46.31928" lon="-1.07496">
        <ele>5.6</ele>
        <time>2020-06-02T13:32:52Z</time>
      </trkpt>
      <trkpt lat="46.31928" lon="-1.07495">
        <ele>5.6</ele>
        <time>2020-06-02T13:32:53Z</time>
      </trkpt>
      <trkpt lat="46.31928" lon="-1.07495">
        <ele>5.6</ele>
        <time>2020-06-02T13:32:54Z</time>
      </trkpt>
      <trkpt lat="46.31928" lon="-1.07495">
        <ele>5.6</ele>
        <time>2020-06-02T13:32:55Z</time>
      </trkpt>
      <trkpt lat="46.31928" lon="-1.07496">
        <ele>5.6</ele>
        <time>2020-06-02T13:32:56Z</time>
      </trkpt>
      <trkpt lat="46.31928" lon="-1.07496">
        <ele>5.6</ele>
        <time>2020-06-02T13:32:57Z</time>
      </trkpt>
      <trkpt lat="46.31928" lon="-1.07496">
        <ele>5.6</ele>
        <time>2020-06-02T13:32:58Z</time>
      </trkpt>
      <trkpt lat="46.31928" lon="-1.07496">
        <ele>5.6</ele>
        <time>2020-06-02T13:32:59Z</time>
      </trkpt>
      <trkpt lat="46.31928" lon="-1.07496">
        <ele>5.6</ele>
        <time>2020-06-02T13:33:00Z</time>
      </trkpt>
      <trkpt lat="46.31928" lon="-1.07496">
        <ele>5.6</ele>
        <time>2020-06-02T13:33:01Z</time>
      </trkpt>
      <trkpt lat="46.31928" lon="-1.07496">
        <ele>5.6</ele>
        <time>2020-06-02T13:33:02Z</time>
      </trkpt>
      <trkpt lat="46.31928" lon="-1.07496">
        <ele>5.6</ele>
        <time>2020-06-02T13:33:03Z</time>
      </trkpt>
      <trkpt lat="46.31928" lon="-1.07496">
        <ele>5.6</ele>
        <time>2020-06-02T13:33:04Z</time>
      </trkpt>
      <trkpt lat="46.31928" lon="-1.07496">
        <ele>5.6</ele>
        <time>2020-06-02T13:33:05Z</time>
      </trkpt>
      <trkpt lat="46.31928" lon="-1.07496">
        <ele>5.6</ele>
        <time>2020-06-02T13:33:06Z</time>
      </trkpt>
      <trkpt lat="46.31928" lon="-1.07496">
        <ele>5.6</ele>
        <time>2020-06-02T13:33:07Z</time>
      </trkpt>
      <trkpt lat="46.31928" lon="-1.07496">
        <ele>5.6</ele>
        <time>2020-06-02T13:33:08Z</time>
      </trkpt>
      <trkpt lat="46.31928" lon="-1.07495">
        <ele>5.6</ele>
        <time>2020-06-02T13:33:09Z</time>
      </trkpt>
      <trkpt lat="46.31929" lon="-1.07496">
        <ele>5.6</ele>
        <time>2020-06-02T13:33:10Z</time>
      </trkpt>
      <trkpt lat="46.31929" lon="-1.07497">
        <ele>5.6</ele>
        <time>2020-06-02T13:33:11Z</time>
      </trkpt>
      <trkpt lat="46.3193" lon="-1.07499">
        <ele>5.6</ele>
        <time>2020-06-02T13:33:12Z</time>
      </trkpt>
      <trkpt lat="46.3193" lon="-1.07502">
        <ele>5.6</ele>
        <time>2020-06-02T13:33:13Z</time>
      </trkpt>
      <trkpt lat="46.3193" lon="-1.07504">
        <ele>5.6</ele>
        <time>2020-06-02T13:33:14Z</time>
      </trkpt>
      <trkpt lat="46.3193" lon="-1.07505">
        <ele>5.6</ele>
        <time>2020-06-02T13:33:15Z</time>
      </trkpt>
      <trkpt lat="46.31929" lon="-1.07506">
        <ele>5.6</ele>
        <time>2020-06-02T13:33:16Z</time>
      </trkpt>
      <trkpt lat="46.31929" lon="-1.07507">
        <ele>5.6</ele>
        <time>2020-06-02T13:33:17Z</time>
      </trkpt>
      <trkpt lat="46.31929" lon="-1.07508">
        <ele>5.6</ele>
        <time>2020-06-02T13:33:18Z</time>
      </trkpt>
      <trkpt lat="46.31928" lon="-1.07508">
        <ele>5.6</ele>
        <time>2020-06-02T13:33:19Z</time>
      </trkpt>
      <trkpt lat="46.31928" lon="-1.07508">
        <ele>5.6</ele>
        <time>2020-06-02T13:33:20Z</time>
      </trkpt>
      <trkpt lat="46.31928" lon="-1.07509">
        <ele>5.6</ele>
        <time>2020-06-02T13:33:21Z</time>
      </trkpt>
      <trkpt lat="46.31928" lon="-1.07509">
        <ele>5.6</ele>
        <time>2020-06-02T13:33:22Z</time>
      </trkpt>
      <trkpt lat="46.31928" lon="-1.07509">
        <ele>5.6</ele>
        <time>2020-06-02T13:33:23Z</time>
      </trkpt>
      <trkpt lat="46.31928" lon="-1.07509">
        <ele>5.6</ele>
        <time>2020-06-02T13:33:24Z</time>
      </trkpt>
      <trkpt lat="46.31928" lon="-1.07509">
        <ele>5.6</ele>
        <time>2020-06-02T13:33:25Z</time>
      </trkpt>
      <trkpt lat="46.31928" lon="-1.07509">
        <ele>5.6</ele>
        <time>2020-06-02T13:33:26Z</time>
      </trkpt>
      <trkpt lat="46.31928" lon="-1.07509">
        <ele>5.6</ele>
        <time>2020-06-02T13:33:27Z</time>
      </trkpt>
      <trkpt lat="46.31928" lon="-1.07509">
        <ele>5.6</ele>
        <time>2020-06-02T13:33:28Z</time>
      </trkpt>
      <trkpt lat="46.31928" lon="-1.07509">
        <ele>5.6</ele>
        <time>2020-06-02T13:33:29Z</time>
      </trkpt>
      <trkpt lat="46.31928" lon="-1.07509">
        <ele>5.6</ele>
        <time>2020-06-02T13:33:30Z</time>
      </trkpt>
      <trkpt lat="46.31928" lon="-1.07509">
        <ele>5.6</ele>
        <time>2020-06-02T13:33:31Z</time>
      </trkpt>
      <trkpt lat="46.31928" lon="-1.07509">
        <ele>5.6</ele>
        <time>2020-06-02T13:33:32Z</time>
      </trkpt>
      <trkpt lat="46.31928" lon="-1.07509">
        <ele>5.6</ele>
        <time>2020-06-02T13:33:33Z</time>
      </trkpt>
      <trkpt lat="46.31928" lon="-1.07509">
        <ele>5.6</ele>
        <time>2020-06-02T13:33:34Z</time>
      </trkpt>
      <trkpt lat="46.31928" lon="-1.07509">
        <ele>5.6</ele>
        <time>2020-06-02T13:33:35Z</time>
      </trkpt>
      <trkpt lat="46.31928" lon="-1.07509">
        <ele>5.6</ele>
        <time>2020-06-02T13:33:36Z</time>
      </trkpt>
      <trkpt lat="46.31928" lon="-1.07509">
        <ele>5.6</ele>
        <time>2020-06-02T13:33:37Z</time>
      </trkpt>
      <trkpt lat="46.31928" lon="-1.07509">
        <ele>5.6</ele>
        <time>2020-06-02T13:33:38Z</time>
      </trkpt>
      <trkpt lat="46.31928" lon="-1.07509">
        <ele>5.6</ele>
        <time>2020-06-02T13:33:39Z</time>
      </trkpt>
      <trkpt lat="46.31928" lon="-1.07509">
        <ele>5.6</ele>
        <time>2020-06-02T13:33:40Z</time>
      </trkpt>
      <trkpt lat="46.31928" lon="-1.07509">
        <ele>5.6</ele>
        <time>2020-06-02T13:33:41Z</time>
      </trkpt>
      <trkpt lat="46.31928" lon="-1.07509">
        <ele>5.6</ele>
        <time>2020-06-02T13:33:42Z</time>
      </trkpt>
      <trkpt lat="46.31928" lon="-1.07509">
        <ele>5.6</ele>
        <time>2020-06-02T13:33:43Z</time>
      </trkpt>
      <trkpt lat="46.31928" lon="-1.0751">
        <ele>5.6</ele>
        <time>2020-06-02T13:33:44Z</time>
      </trkpt>
      <trkpt lat="46.31928" lon="-1.0751">
        <ele>5.6</ele>
        <time>2020-06-02T13:33:45Z</time>
      </trkpt>
      <trkpt lat="46.31928" lon="-1.0751">
        <ele>5.6</ele>
        <time>2020-06-02T13:33:46Z</time>
      </trkpt>
      <trkpt lat="46.31927" lon="-1.07509">
        <ele>5.6</ele>
        <time>2020-06-02T13:33:47Z</time>
      </trkpt>
      <trkpt lat="46.31927" lon="-1.07509">
        <ele>5.6</ele>
        <time>2020-06-02T13:33:48Z</time>
      </trkpt>
      <trkpt lat="46.31927" lon="-1.07509">
        <ele>5.6</ele>
        <time>2020-06-02T13:33:49Z</time>
      </trkpt>
      <trkpt lat="46.31927" lon="-1.07508">
        <ele>5.6</ele>
        <time>2020-06-02T13:33:50Z</time>
      </trkpt>
      <trkpt lat="46.31926" lon="-1.07508">
        <ele>5.6</ele>
        <time>2020-06-02T13:33:51Z</time>
      </trkpt>
      <trkpt lat="46.31926" lon="-1.07508">
        <ele>5.6</ele>
        <time>2020-06-02T13:33:52Z</time>
      </trkpt>
      <trkpt lat="46.31926" lon="-1.07508">
        <ele>5.6</ele>
        <time>2020-06-02T13:33:53Z</time>
      </trkpt>
      <trkpt lat="46.31926" lon="-1.07508">
        <ele>5.6</ele>
        <time>2020-06-02T13:33:54Z</time>
      </trkpt>
      <trkpt lat="46.31926" lon="-1.07508">
        <ele>5.6</ele>
        <time>2020-06-02T13:33:55Z</time>
      </trkpt>
      <trkpt lat="46.31926" lon="-1.07508">
        <ele>5.6</ele>
        <time>2020-06-02T13:33:56Z</time>
      </trkpt>
      <trkpt lat="46.31926" lon="-1.07508">
        <ele>5.6</ele>
        <time>2020-06-02T13:33:57Z</time>
      </trkpt>
      <trkpt lat="46.31926" lon="-1.07508">
        <ele>5.6</ele>
        <time>2020-06-02T13:33:58Z</time>
      </trkpt>
      <trkpt lat="46.31926" lon="-1.07507">
        <ele>5.6</ele>
        <time>2020-06-02T13:33:59Z</time>
      </trkpt>
      <trkpt lat="46.31926" lon="-1.07507">
        <ele>5.6</ele>
        <time>2020-06-02T13:34:00Z</time>
      </trkpt>
      <trkpt lat="46.31926" lon="-1.07507">
        <ele>5.6</ele>
        <time>2020-06-02T13:34:01Z</time>
      </trkpt>
      <trkpt lat="46.31926" lon="-1.07507">
        <ele>5.6</ele>
        <time>2020-06-02T13:34:02Z</time>
      </trkpt>
      <trkpt lat="46.31926" lon="-1.07507">
        <ele>5.6</ele>
        <time>2020-06-02T13:34:03Z</time>
      </trkpt>
      <trkpt lat="46.31926" lon="-1.07507">
        <ele>5.6</ele>
        <time>2020-06-02T13:34:04Z</time>
      </trkpt>
      <trkpt lat="46.31926" lon="-1.07507">
        <ele>5.6</ele>
        <time>2020-06-02T13:34:05Z</time>
      </trkpt>
      <trkpt lat="46.31926" lon="-1.07507">
        <ele>5.6</ele>
        <time>2020-06-02T13:34:06Z</time>
      </trkpt>
      <trkpt lat="46.31926" lon="-1.07507">
        <ele>5.6</ele>
        <time>2020-06-02T13:34:07Z</time>
      </trkpt>
      <trkpt lat="46.31926" lon="-1.07507">
        <ele>5.6</ele>
        <time>2020-06-02T13:34:08Z</time>
      </trkpt>
      <trkpt lat="46.31926" lon="-1.07507">
        <ele>5.6</ele>
        <time>2020-06-02T13:34:09Z</time>
      </trkpt>
      <trkpt lat="46.31926" lon="-1.07507">
        <ele>5.6</ele>
        <time>2020-06-02T13:34:10Z</time>
      </trkpt>
      <trkpt lat="46.31926" lon="-1.07507">
        <ele>5.6</ele>
        <time>2020-06-02T13:34:11Z</time>
      </trkpt>
      <trkpt lat="46.31926" lon="-1.07507">
        <ele>5.6</ele>
        <time>2020-06-02T13:34:12Z</time>
      </trkpt>
      <trkpt lat="46.31926" lon="-1.07507">
        <ele>5.6</ele>
        <time>2020-06-02T13:34:13Z</time>
      </trkpt>
      <trkpt lat="46.31926" lon="-1.07507">
        <ele>5.6</ele>
        <time>2020-06-02T13:34:14Z</time>
      </trkpt>
      <trkpt lat="46.31925" lon="-1.07508">
        <ele>5.6</ele>
        <time>2020-06-02T13:34:15Z</time>
      </trkpt>
      <trkpt lat="46.31925" lon="-1.07508">
        <ele>5.6</ele>
        <time>2020-06-02T13:34:16Z</time>
      </trkpt>
      <trkpt lat="46.31925" lon="-1.07508">
        <ele>5.6</ele>
        <time>2020-06-02T13:34:17Z</time>
      </trkpt>
      <trkpt lat="46.31925" lon="-1.07508">
        <ele>5.6</ele>
        <time>2020-06-02T13:34:18Z</time>
      </trkpt>
      <trkpt lat="46.31925" lon="-1.07509">
        <ele>5.6</ele>
        <time>2020-06-02T13:34:19Z</time>
      </trkpt>
      <trkpt lat="46.31925" lon="-1.07509">
        <ele>5.6</ele>
        <time>2020-06-02T13:34:20Z</time>
      </trkpt>
      <trkpt lat="46.31925" lon="-1.07508">
        <ele>5.6</ele>
        <time>2020-06-02T13:34:21Z</time>
      </trkpt>
      <trkpt lat="46.31925" lon="-1.07509">
        <ele>5.6</ele>
        <time>2020-06-02T13:34:22Z</time>
      </trkpt>
      <trkpt lat="46.31925" lon="-1.07509">
        <ele>5.6</ele>
        <time>2020-06-02T13:34:23Z</time>
      </trkpt>
      <trkpt lat="46.31925" lon="-1.07509">
        <ele>5.6</ele>
        <time>2020-06-02T13:34:24Z</time>
      </trkpt>
      <trkpt lat="46.31925" lon="-1.07509">
        <ele>5.6</ele>
        <time>2020-06-02T13:34:25Z</time>
      </trkpt>
      <trkpt lat="46.31925" lon="-1.07509">
        <ele>5.6</ele>
        <time>2020-06-02T13:34:26Z</time>
      </trkpt>
      <trkpt lat="46.31925" lon="-1.07509">
        <ele>5.6</ele>
        <time>2020-06-02T13:34:27Z</time>
      </trkpt>
      <trkpt lat="46.31925" lon="-1.07509">
        <ele>5.6</ele>
        <time>2020-06-02T13:34:28Z</time>
      </trkpt>
      <trkpt lat="46.31925" lon="-1.07509">
        <ele>5.6</ele>
        <time>2020-06-02T13:34:29Z</time>
      </trkpt>
      <trkpt lat="46.31925" lon="-1.07509">
        <ele>5.6</ele>
        <time>2020-06-02T13:34:30Z</time>
      </trkpt>
      <trkpt lat="46.31925" lon="-1.07509">
        <ele>5.6</ele>
        <time>2020-06-02T13:34:31Z</time>
      </trkpt>
      <trkpt lat="46.31925" lon="-1.07509">
        <ele>5.6</ele>
        <time>2020-06-02T13:34:32Z</time>
      </trkpt>
      <trkpt lat="46.31925" lon="-1.07509">
        <ele>5.6</ele>
        <time>2020-06-02T13:34:33Z</time>
      </trkpt>
      <trkpt lat="46.31925" lon="-1.0751">
        <ele>5.6</ele>
        <time>2020-06-02T13:34:34Z</time>
      </trkpt>
      <trkpt lat="46.31925" lon="-1.07509">
        <ele>5.6</ele>
        <time>2020-06-02T13:34:35Z</time>
      </trkpt>
      <trkpt lat="46.31924" lon="-1.07509">
        <ele>5.6</ele>
        <time>2020-06-02T13:34:36Z</time>
      </trkpt>
      <trkpt lat="46.31924" lon="-1.07509">
        <ele>5.6</ele>
        <time>2020-06-02T13:34:37Z</time>
      </trkpt>
      <trkpt lat="46.31924" lon="-1.07509">
        <ele>5.6</ele>
        <time>2020-06-02T13:34:38Z</time>
      </trkpt>
      <trkpt lat="46.31924" lon="-1.07509">
        <ele>5.6</ele>
        <time>2020-06-02T13:34:39Z</time>
      </trkpt>
      <trkpt lat="46.31924" lon="-1.07509">
        <ele>5.6</ele>
        <time>2020-06-02T13:34:40Z</time>
      </trkpt>
      <trkpt lat="46.31924" lon="-1.07509">
        <ele>5.6</ele>
        <time>2020-06-02T13:34:41Z</time>
      </trkpt>
      <trkpt lat="46.31924" lon="-1.07509">
        <ele>5.6</ele>
        <time>2020-06-02T13:34:42Z</time>
      </trkpt>
      <trkpt lat="46.31924" lon="-1.07509">
        <ele>5.6</ele>
        <time>2020-06-02T13:34:43Z</time>
      </trkpt>
      <trkpt lat="46.31924" lon="-1.07509">
        <ele>5.6</ele>
        <time>2020-06-02T13:34:44Z</time>
      </trkpt>
      <trkpt lat="46.31924" lon="-1.07509">
        <ele>5.6</ele>
        <time>2020-06-02T13:34:45Z</time>
      </trkpt>
      <trkpt lat="46.31924" lon="-1.07509">
        <ele>5.6</ele>
        <time>2020-06-02T13:34:46Z</time>
      </trkpt>
      <trkpt lat="46.31924" lon="-1.07509">
        <ele>5.6</ele>
        <time>2020-06-02T13:34:47Z</time>
      </trkpt>
      <trkpt lat="46.31925" lon="-1.07509">
        <ele>5.6</ele>
        <time>2020-06-02T13:34:48Z</time>
      </trkpt>
      <trkpt lat="46.31925" lon="-1.07508">
        <ele>5.6</ele>
        <time>2020-06-02T13:34:49Z</time>
      </trkpt>
      <trkpt lat="46.31925" lon="-1.07509">
        <ele>5.6</ele>
        <time>2020-06-02T13:34:50Z</time>
      </trkpt>
      <trkpt lat="46.31925" lon="-1.07509">
        <ele>5.6</ele>
        <time>2020-06-02T13:34:51Z</time>
      </trkpt>
      <trkpt lat="46.31924" lon="-1.07509">
        <ele>5.6</ele>
        <time>2020-06-02T13:34:52Z</time>
      </trkpt>
      <trkpt lat="46.31925" lon="-1.07509">
        <ele>5.6</ele>
        <time>2020-06-02T13:34:53Z</time>
      </trkpt>
      <trkpt lat="46.31924" lon="-1.07509">
        <ele>5.6</ele>
        <time>2020-06-02T13:34:54Z</time>
      </trkpt>
      <trkpt lat="46.31924" lon="-1.07509">
        <ele>5.6</ele>
        <time>2020-06-02T13:34:55Z</time>
      </trkpt>
      <trkpt lat="46.31924" lon="-1.07509">
        <ele>5.6</ele>
        <time>2020-06-02T13:34:56Z</time>
      </trkpt>
      <trkpt lat="46.31924" lon="-1.07509">
        <ele>5.6</ele>
        <time>2020-06-02T13:34:57Z</time>
      </trkpt>
      <trkpt lat="46.31924" lon="-1.07509">
        <ele>5.6</ele>
        <time>2020-06-02T13:34:58Z</time>
      </trkpt>
      <trkpt lat="46.31924" lon="-1.07509">
        <ele>5.6</ele>
        <time>2020-06-02T13:34:59Z</time>
      </trkpt>
      <trkpt lat="46.31924" lon="-1.07509">
        <ele>5.6</ele>
        <time>2020-06-02T13:35:00Z</time>
      </trkpt>
      <trkpt lat="46.31924" lon="-1.07509">
        <ele>5.6</ele>
        <time>2020-06-02T13:35:01Z</time>
      </trkpt>
      <trkpt lat="46.31924" lon="-1.07509">
        <ele>5.6</ele>
        <time>2020-06-02T13:35:02Z</time>
      </trkpt>
      <trkpt lat="46.31924" lon="-1.07509">
        <ele>5.6</ele>
        <time>2020-06-02T13:35:03Z</time>
      </trkpt>
      <trkpt lat="46.31924" lon="-1.07509">
        <ele>5.6</ele>
        <time>2020-06-02T13:35:04Z</time>
      </trkpt>
      <trkpt lat="46.31924" lon="-1.07509">
        <ele>5.6</ele>
        <time>2020-06-02T13:35:05Z</time>
      </trkpt>
      <trkpt lat="46.31924" lon="-1.07509">
        <ele>5.6</ele>
        <time>2020-06-02T13:35:06Z</time>
      </trkpt>
      <trkpt lat="46.31924" lon="-1.07509">
        <ele>5.6</ele>
        <time>2020-06-02T13:35:07Z</time>
      </trkpt>
      <trkpt lat="46.31924" lon="-1.07509">
        <ele>5.6</ele>
        <time>2020-06-02T13:35:08Z</time>
      </trkpt>
      <trkpt lat="46.31924" lon="-1.07509">
        <ele>5.6</ele>
        <time>2020-06-02T13:35:09Z</time>
      </trkpt>
      <trkpt lat="46.31924" lon="-1.07509">
        <ele>5.6</ele>
        <time>2020-06-02T13:35:10Z</time>
      </trkpt>
      <trkpt lat="46.31924" lon="-1.07509">
        <ele>5.6</ele>
        <time>2020-06-02T13:35:11Z</time>
      </trkpt>
      <trkpt lat="46.31924" lon="-1.07509">
        <ele>5.6</ele>
        <time>2020-06-02T13:35:12Z</time>
      </trkpt>
      <trkpt lat="46.31924" lon="-1.07509">
        <ele>5.6</ele>
        <time>2020-06-02T13:35:13Z</time>
      </trkpt>
      <trkpt lat="46.31924" lon="-1.07509">
        <ele>5.6</ele>
        <time>2020-06-02T13:35:14Z</time>
      </trkpt>
      <trkpt lat="46.31924" lon="-1.07509">
        <ele>5.6</ele>
        <time>2020-06-02T13:35:15Z</time>
      </trkpt>
      <trkpt lat="46.31924" lon="-1.07509">
        <ele>5.6</ele>
        <time>2020-06-02T13:35:16Z</time>
      </trkpt>
      <trkpt lat="46.31924" lon="-1.07509">
        <ele>5.6</ele>
        <time>2020-06-02T13:35:17Z</time>
      </trkpt>
      <trkpt lat="46.31924" lon="-1.07509">
        <ele>5.6</ele>
        <time>2020-06-02T13:35:18Z</time>
      </trkpt>
      <trkpt lat="46.31924" lon="-1.07509">
        <ele>5.6</ele>
        <time>2020-06-02T13:35:19Z</time>
      </trkpt>
      <trkpt lat="46.31924" lon="-1.07509">
        <ele>5.6</ele>
        <time>2020-06-02T13:35:20Z</time>
      </trkpt>
      <trkpt lat="46.31924" lon="-1.07509">
        <ele>5.6</ele>
        <time>2020-06-02T13:35:21Z</time>
      </trkpt>
      <trkpt lat="46.31924" lon="-1.07509">
        <ele>5.6</ele>
        <time>2020-06-02T13:35:22Z</time>
      </trkpt>
      <trkpt lat="46.31924" lon="-1.07508">
        <ele>5.6</ele>
        <time>2020-06-02T13:35:23Z</time>
      </trkpt>
      <trkpt lat="46.31924" lon="-1.07508">
        <ele>5.6</ele>
        <time>2020-06-02T13:35:24Z</time>
      </trkpt>
      <trkpt lat="46.31924" lon="-1.07509">
        <ele>5.6</ele>
        <time>2020-06-02T13:35:25Z</time>
      </trkpt>
      <trkpt lat="46.31924" lon="-1.07511">
        <ele>5.6</ele>
        <time>2020-06-02T13:35:26Z</time>
      </trkpt>
      <trkpt lat="46.31925" lon="-1.07511">
        <ele>5.6</ele>
        <time>2020-06-02T13:35:27Z</time>
      </trkpt>
      <trkpt lat="46.31926" lon="-1.07513">
        <ele>5.6</ele>
        <time>2020-06-02T13:35:28Z</time>
      </trkpt>
      <trkpt lat="46.31927" lon="-1.07513">
        <ele>5.6</ele>
        <time>2020-06-02T13:35:29Z</time>
      </trkpt>
      <trkpt lat="46.31926" lon="-1.07513">
        <ele>5.6</ele>
        <time>2020-06-02T13:35:30Z</time>
      </trkpt>
      <trkpt lat="46.31927" lon="-1.07513">
        <ele>5.6</ele>
        <time>2020-06-02T13:35:31Z</time>
      </trkpt>
      <trkpt lat="46.31927" lon="-1.07513">
        <ele>5.6</ele>
        <time>2020-06-02T13:35:32Z</time>
      </trkpt>
      <trkpt lat="46.31927" lon="-1.07513">
        <ele>5.6</ele>
        <time>2020-06-02T13:35:33Z</time>
      </trkpt>
      <trkpt lat="46.31927" lon="-1.07513">
        <ele>5.6</ele>
        <time>2020-06-02T13:35:34Z</time>
      </trkpt>
      <trkpt lat="46.31927" lon="-1.07513">
        <ele>5.6</ele>
        <time>2020-06-02T13:35:35Z</time>
      </trkpt>
      <trkpt lat="46.31927" lon="-1.07513">
        <ele>5.6</ele>
        <time>2020-06-02T13:35:36Z</time>
      </trkpt>
      <trkpt lat="46.31927" lon="-1.07513">
        <ele>5.6</ele>
        <time>2020-06-02T13:35:37Z</time>
      </trkpt>
      <trkpt lat="46.31927" lon="-1.07513">
        <ele>5.6</ele>
        <time>2020-06-02T13:35:38Z</time>
      </trkpt>
      <trkpt lat="46.31927" lon="-1.07513">
        <ele>5.6</ele>
        <time>2020-06-02T13:35:39Z</time>
      </trkpt>
      <trkpt lat="46.31927" lon="-1.07513">
        <ele>5.6</ele>
        <time>2020-06-02T13:35:40Z</time>
      </trkpt>
      <trkpt lat="46.31927" lon="-1.07513">
        <ele>5.6</ele>
        <time>2020-06-02T13:35:41Z</time>
      </trkpt>
      <trkpt lat="46.31927" lon="-1.07513">
        <ele>5.6</ele>
        <time>2020-06-02T13:35:42Z</time>
      </trkpt>
      <trkpt lat="46.31927" lon="-1.07513">
        <ele>5.6</ele>
        <time>2020-06-02T13:35:43Z</time>
      </trkpt>
      <trkpt lat="46.31927" lon="-1.07513">
        <ele>5.6</ele>
        <time>2020-06-02T13:35:44Z</time>
      </trkpt>
      <trkpt lat="46.31927" lon="-1.07513">
        <ele>5.6</ele>
        <time>2020-06-02T13:35:45Z</time>
      </trkpt>
      <trkpt lat="46.31927" lon="-1.07513">
        <ele>5.6</ele>
        <time>2020-06-02T13:35:46Z</time>
      </trkpt>
      <trkpt lat="46.31927" lon="-1.07513">
        <ele>5.6</ele>
        <time>2020-06-02T13:35:47Z</time>
      </trkpt>
      <trkpt lat="46.31927" lon="-1.07514">
        <ele>5.6</ele>
        <time>2020-06-02T13:35:48Z</time>
      </trkpt>
      <trkpt lat="46.31927" lon="-1.07514">
        <ele>5.6</ele>
        <time>2020-06-02T13:35:49Z</time>
      </trkpt>
      <trkpt lat="46.31927" lon="-1.07514">
        <ele>5.6</ele>
        <time>2020-06-02T13:35:50Z</time>
      </trkpt>
      <trkpt lat="46.31927" lon="-1.07514">
        <ele>5.6</ele>
        <time>2020-06-02T13:35:51Z</time>
      </trkpt>
      <trkpt lat="46.31927" lon="-1.07514">
        <ele>5.6</ele>
        <time>2020-06-02T13:35:52Z</time>
      </trkpt>
      <trkpt lat="46.31928" lon="-1.07514">
        <ele>5.6</ele>
        <time>2020-06-02T13:35:53Z</time>
      </trkpt>
      <trkpt lat="46.31928" lon="-1.07514">
        <ele>5.6</ele>
        <time>2020-06-02T13:35:54Z</time>
      </trkpt>
      <trkpt lat="46.31928" lon="-1.07514">
        <ele>5.6</ele>
        <time>2020-06-02T13:35:55Z</time>
      </trkpt>
      <trkpt lat="46.31928" lon="-1.07514">
        <ele>5.6</ele>
        <time>2020-06-02T13:35:56Z</time>
      </trkpt>
      <trkpt lat="46.31928" lon="-1.07514">
        <ele>5.6</ele>
        <time>2020-06-02T13:35:57Z</time>
      </trkpt>
      <trkpt lat="46.31928" lon="-1.07514">
        <ele>5.6</ele>
        <time>2020-06-02T13:35:58Z</time>
      </trkpt>
      <trkpt lat="46.31928" lon="-1.07514">
        <ele>5.6</ele>
        <time>2020-06-02T13:35:59Z</time>
      </trkpt>
      <trkpt lat="46.31928" lon="-1.07515">
        <ele>5.6</ele>
        <time>2020-06-02T13:36:00Z</time>
      </trkpt>
      <trkpt lat="46.31928" lon="-1.07516">
        <ele>5.6</ele>
        <time>2020-06-02T13:36:01Z</time>
      </trkpt>
      <trkpt lat="46.31929" lon="-1.07515">
        <ele>5.6</ele>
        <time>2020-06-02T13:36:02Z</time>
      </trkpt>
      <trkpt lat="46.31929" lon="-1.07515">
        <ele>5.6</ele>
        <time>2020-06-02T13:36:03Z</time>
      </trkpt>
      <trkpt lat="46.31929" lon="-1.07515">
        <ele>5.6</ele>
        <time>2020-06-02T13:36:04Z</time>
      </trkpt>
      <trkpt lat="46.31929" lon="-1.07515">
        <ele>5.6</ele>
        <time>2020-06-02T13:36:05Z</time>
      </trkpt>
      <trkpt lat="46.31929" lon="-1.07515">
        <ele>5.6</ele>
        <time>2020-06-02T13:36:06Z</time>
      </trkpt>
      <trkpt lat="46.31929" lon="-1.07514">
        <ele>5.6</ele>
        <time>2020-06-02T13:36:07Z</time>
      </trkpt>
      <trkpt lat="46.31929" lon="-1.07513">
        <ele>5.6</ele>
        <time>2020-06-02T13:36:08Z</time>
      </trkpt>
      <trkpt lat="46.31929" lon="-1.07512">
        <ele>5.6</ele>
        <time>2020-06-02T13:36:09Z</time>
      </trkpt>
      <trkpt lat="46.31929" lon="-1.07511">
        <ele>5.6</ele>
        <time>2020-06-02T13:36:10Z</time>
      </trkpt>
      <trkpt lat="46.31929" lon="-1.07511">
        <ele>5.6</ele>
        <time>2020-06-02T13:36:11Z</time>
      </trkpt>
      <trkpt lat="46.31929" lon="-1.0751">
        <ele>5.6</ele>
        <time>2020-06-02T13:36:12Z</time>
      </trkpt>
      <trkpt lat="46.31929" lon="-1.07509">
        <ele>5.6</ele>
        <time>2020-06-02T13:36:13Z</time>
      </trkpt>
      <trkpt lat="46.3193" lon="-1.07507">
        <ele>5.6</ele>
        <time>2020-06-02T13:36:14Z</time>
      </trkpt>
      <trkpt lat="46.3193" lon="-1.07506">
        <ele>5.6</ele>
        <time>2020-06-02T13:36:15Z</time>
      </trkpt>
      <trkpt lat="46.3193" lon="-1.07505">
        <ele>5.6</ele>
        <time>2020-06-02T13:36:16Z</time>
      </trkpt>
      <trkpt lat="46.3193" lon="-1.07503">
        <ele>5.6</ele>
        <time>2020-06-02T13:36:17Z</time>
      </trkpt>
      <trkpt lat="46.3193" lon="-1.07502">
        <ele>5.6</ele>
        <time>2020-06-02T13:36:18Z</time>
      </trkpt>
      <trkpt lat="46.3193" lon="-1.07501">
        <ele>5.6</ele>
        <time>2020-06-02T13:36:19Z</time>
      </trkpt>
      <trkpt lat="46.3193" lon="-1.075">
        <ele>5.6</ele>
        <time>2020-06-02T13:36:20Z</time>
      </trkpt>
      <trkpt lat="46.3193" lon="-1.075">
        <ele>5.6</ele>
        <time>2020-06-02T13:36:21Z</time>
      </trkpt>
      <trkpt lat="46.3193" lon="-1.075">
        <ele>5.6</ele>
        <time>2020-06-02T13:36:22Z</time>
      </trkpt>
      <trkpt lat="46.3193" lon="-1.075">
        <ele>5.6</ele>
        <time>2020-06-02T13:36:23Z</time>
      </trkpt>
      <trkpt lat="46.3193" lon="-1.075">
        <ele>5.6</ele>
        <time>2020-06-02T13:36:24Z</time>
      </trkpt>
      <trkpt lat="46.3193" lon="-1.075">
        <ele>5.6</ele>
        <time>2020-06-02T13:36:25Z</time>
      </trkpt>
      <trkpt lat="46.3193" lon="-1.075">
        <ele>5.6</ele>
        <time>2020-06-02T13:36:26Z</time>
      </trkpt>
      <trkpt lat="46.3193" lon="-1.075">
        <ele>5.6</ele>
        <time>2020-06-02T13:36:27Z</time>
      </trkpt>
      <trkpt lat="46.3193" lon="-1.075">
        <ele>5.6</ele>
        <time>2020-06-02T13:36:28Z</time>
      </trkpt>
      <trkpt lat="46.3193" lon="-1.075">
        <ele>5.6</ele>
        <time>2020-06-02T13:36:29Z</time>
      </trkpt>
      <trkpt lat="46.3193" lon="-1.075">
        <ele>5.6</ele>
        <time>2020-06-02T13:36:30Z</time>
      </trkpt>
      <trkpt lat="46.3193" lon="-1.075">
        <ele>5.6</ele>
        <time>2020-06-02T13:36:31Z</time>
      </trkpt>
      <trkpt lat="46.3193" lon="-1.075">
        <ele>5.6</ele>
        <time>2020-06-02T13:36:32Z</time>
      </trkpt>
      <trkpt lat="46.3193" lon="-1.075">
        <ele>5.6</ele>
        <time>2020-06-02T13:36:33Z</time>
      </trkpt>
      <trkpt lat="46.3193" lon="-1.07499">
        <ele>5.6</ele>
        <time>2020-06-02T13:36:34Z</time>
      </trkpt>
      <trkpt lat="46.3193" lon="-1.07499">
        <ele>5.6</ele>
        <time>2020-06-02T13:36:35Z</time>
      </trkpt>
      <trkpt lat="46.3193" lon="-1.07499">
        <ele>5.6</ele>
        <time>2020-06-02T13:36:36Z</time>
      </trkpt>
      <trkpt lat="46.3193" lon="-1.07498">
        <ele>5.6</ele>
        <time>2020-06-02T13:36:37Z</time>
      </trkpt>
      <trkpt lat="46.3193" lon="-1.07498">
        <ele>5.6</ele>
        <time>2020-06-02T13:36:38Z</time>
      </trkpt>
      <trkpt lat="46.3193" lon="-1.07499">
        <ele>5.6</ele>
        <time>2020-06-02T13:36:39Z</time>
      </trkpt>
      <trkpt lat="46.31929" lon="-1.07498">
        <ele>5.6</ele>
        <time>2020-06-02T13:36:40Z</time>
      </trkpt>
      <trkpt lat="46.31929" lon="-1.07498">
        <ele>5.6</ele>
        <time>2020-06-02T13:36:41Z</time>
      </trkpt>
      <trkpt lat="46.31928" lon="-1.07498">
        <ele>5.6</ele>
        <time>2020-06-02T13:36:42Z</time>
      </trkpt>
      <trkpt lat="46.31928" lon="-1.07499">
        <ele>5.6</ele>
        <time>2020-06-02T13:36:43Z</time>
      </trkpt>
      <trkpt lat="46.31929" lon="-1.075">
        <ele>5.6</ele>
        <time>2020-06-02T13:36:44Z</time>
      </trkpt>
      <trkpt lat="46.31929" lon="-1.07501">
        <ele>5.6</ele>
        <time>2020-06-02T13:36:45Z</time>
      </trkpt>
      <trkpt lat="46.31928" lon="-1.07503">
        <ele>5.6</ele>
        <time>2020-06-02T13:36:46Z</time>
      </trkpt>
      <trkpt lat="46.31928" lon="-1.07503">
        <ele>5.6</ele>
        <time>2020-06-02T13:36:47Z</time>
      </trkpt>
      <trkpt lat="46.31927" lon="-1.07504">
        <ele>5.6</ele>
        <time>2020-06-02T13:36:48Z</time>
      </trkpt>
      <trkpt lat="46.31926" lon="-1.07505">
        <ele>5.6</ele>
        <time>2020-06-02T13:36:49Z</time>
      </trkpt>
      <trkpt lat="46.31926" lon="-1.07506">
        <ele>5.6</ele>
        <time>2020-06-02T13:36:50Z</time>
      </trkpt>
      <trkpt lat="46.31926" lon="-1.07506">
        <ele>5.6</ele>
        <time>2020-06-02T13:36:51Z</time>
      </trkpt>
      <trkpt lat="46.31926" lon="-1.07507">
        <ele>5.6</ele>
        <time>2020-06-02T13:36:52Z</time>
      </trkpt>
      <trkpt lat="46.31924" lon="-1.07506">
        <ele>5.6</ele>
        <time>2020-06-02T13:36:53Z</time>
      </trkpt>
      <trkpt lat="46.31924" lon="-1.07507">
        <ele>5.6</ele>
        <time>2020-06-02T13:36:54Z</time>
      </trkpt>
      <trkpt lat="46.31923" lon="-1.07507">
        <ele>5.6</ele>
        <time>2020-06-02T13:36:55Z</time>
      </trkpt>
      <trkpt lat="46.31923" lon="-1.07507">
        <ele>5.6</ele>
        <time>2020-06-02T13:36:56Z</time>
      </trkpt>
      <trkpt lat="46.31923" lon="-1.07507">
        <ele>5.6</ele>
        <time>2020-06-02T13:36:57Z</time>
      </trkpt>
      <trkpt lat="46.31923" lon="-1.07507">
        <ele>5.6</ele>
        <time>2020-06-02T13:36:58Z</time>
      </trkpt>
      <trkpt lat="46.31923" lon="-1.07507">
        <ele>5.6</ele>
        <time>2020-06-02T13:36:59Z</time>
      </trkpt>
      <trkpt lat="46.31923" lon="-1.07507">
        <ele>5.6</ele>
        <time>2020-06-02T13:37:00Z</time>
      </trkpt>
      <trkpt lat="46.31923" lon="-1.07507">
        <ele>5.6</ele>
        <time>2020-06-02T13:37:01Z</time>
      </trkpt>
      <trkpt lat="46.31923" lon="-1.07507">
        <ele>5.6</ele>
        <time>2020-06-02T13:37:02Z</time>
      </trkpt>
      <trkpt lat="46.31923" lon="-1.07507">
        <ele>5.6</ele>
        <time>2020-06-02T13:37:03Z</time>
      </trkpt>
      <trkpt lat="46.31923" lon="-1.07507">
        <ele>5.6</ele>
        <time>2020-06-02T13:37:04Z</time>
      </trkpt>
      <trkpt lat="46.31923" lon="-1.07507">
        <ele>5.6</ele>
        <time>2020-06-02T13:37:05Z</time>
      </trkpt>
      <trkpt lat="46.31923" lon="-1.07507">
        <ele>5.6</ele>
        <time>2020-06-02T13:37:06Z</time>
      </trkpt>
      <trkpt lat="46.31923" lon="-1.07507">
        <ele>5.6</ele>
        <time>2020-06-02T13:37:07Z</time>
      </trkpt>
      <trkpt lat="46.31923" lon="-1.07507">
        <ele>5.6</ele>
        <time>2020-06-02T13:37:08Z</time>
      </trkpt>
      <trkpt lat="46.31923" lon="-1.07508">
        <ele>5.6</ele>
        <time>2020-06-02T13:37:09Z</time>
      </trkpt>
      <trkpt lat="46.31923" lon="-1.07508">
        <ele>5.6</ele>
        <time>2020-06-02T13:37:10Z</time>
      </trkpt>
      <trkpt lat="46.31923" lon="-1.07508">
        <ele>5.6</ele>
        <time>2020-06-02T13:37:11Z</time>
      </trkpt>
      <trkpt lat="46.31924" lon="-1.07508">
        <ele>5.6</ele>
        <time>2020-06-02T13:37:12Z</time>
      </trkpt>
      <trkpt lat="46.31924" lon="-1.07507">
        <ele>5.6</ele>
        <time>2020-06-02T13:37:13Z</time>
      </trkpt>
      <trkpt lat="46.31924" lon="-1.07507">
        <ele>5.6</ele>
        <time>2020-06-02T13:37:14Z</time>
      </trkpt>
      <trkpt lat="46.31924" lon="-1.07508">
        <ele>5.6</ele>
        <time>2020-06-02T13:37:15Z</time>
      </trkpt>
      <trkpt lat="46.31924" lon="-1.07508">
        <ele>5.6</ele>
        <time>2020-06-02T13:37:16Z</time>
      </trkpt>
      <trkpt lat="46.31925" lon="-1.07509">
        <ele>5.6</ele>
        <time>2020-06-02T13:37:17Z</time>
      </trkpt>
      <trkpt lat="46.31925" lon="-1.07509">
        <ele>5.6</ele>
        <time>2020-06-02T13:37:18Z</time>
      </trkpt>
      <trkpt lat="46.31925" lon="-1.0751">
        <ele>5.6</ele>
        <time>2020-06-02T13:37:19Z</time>
      </trkpt>
      <trkpt lat="46.31925" lon="-1.0751">
        <ele>5.6</ele>
        <time>2020-06-02T13:37:20Z</time>
      </trkpt>
      <trkpt lat="46.31925" lon="-1.0751">
        <ele>5.6</ele>
        <time>2020-06-02T13:37:21Z</time>
      </trkpt>
      <trkpt lat="46.31925" lon="-1.0751">
        <ele>5.6</ele>
        <time>2020-06-02T13:37:22Z</time>
      </trkpt>
      <trkpt lat="46.31925" lon="-1.0751">
        <ele>5.6</ele>
        <time>2020-06-02T13:37:23Z</time>
      </trkpt>
      <trkpt lat="46.31925" lon="-1.0751">
        <ele>5.6</ele>
        <time>2020-06-02T13:37:24Z</time>
      </trkpt>
      <trkpt lat="46.31925" lon="-1.0751">
        <ele>5.6</ele>
        <time>2020-06-02T13:37:25Z</time>
      </trkpt>
      <trkpt lat="46.31925" lon="-1.0751">
        <ele>5.6</ele>
        <time>2020-06-02T13:37:26Z</time>
      </trkpt>
      <trkpt lat="46.31925" lon="-1.0751">
        <ele>5.6</ele>
        <time>2020-06-02T13:37:27Z</time>
      </trkpt>
      <trkpt lat="46.31925" lon="-1.07511">
        <ele>5.6</ele>
        <time>2020-06-02T13:37:28Z</time>
      </trkpt>
      <trkpt lat="46.31925" lon="-1.07511">
        <ele>5.6</ele>
        <time>2020-06-02T13:37:29Z</time>
      </trkpt>
      <trkpt lat="46.31925" lon="-1.0751">
        <ele>5.6</ele>
        <time>2020-06-02T13:37:30Z</time>
      </trkpt>
      <trkpt lat="46.31925" lon="-1.0751">
        <ele>5.6</ele>
        <time>2020-06-02T13:37:31Z</time>
      </trkpt>
      <trkpt lat="46.31925" lon="-1.07511">
        <ele>5.6</ele>
        <time>2020-06-02T13:37:32Z</time>
      </trkpt>
      <trkpt lat="46.31925" lon="-1.07511">
        <ele>5.6</ele>
        <time>2020-06-02T13:37:33Z</time>
      </trkpt>
      <trkpt lat="46.31925" lon="-1.07511">
        <ele>5.6</ele>
        <time>2020-06-02T13:37:34Z</time>
      </trkpt>
      <trkpt lat="46.31925" lon="-1.07511">
        <ele>5.6</ele>
        <time>2020-06-02T13:37:35Z</time>
      </trkpt>
      <trkpt lat="46.31925" lon="-1.07511">
        <ele>5.6</ele>
        <time>2020-06-02T13:37:36Z</time>
      </trkpt>
      <trkpt lat="46.31925" lon="-1.07511">
        <ele>5.6</ele>
        <time>2020-06-02T13:37:37Z</time>
      </trkpt>
      <trkpt lat="46.31925" lon="-1.07511">
        <ele>5.6</ele>
        <time>2020-06-02T13:37:38Z</time>
      </trkpt>
      <trkpt lat="46.31925" lon="-1.07511">
        <ele>5.6</ele>
        <time>2020-06-02T13:37:39Z</time>
      </trkpt>
      <trkpt lat="46.31925" lon="-1.07511">
        <ele>5.6</ele>
        <time>2020-06-02T13:37:40Z</time>
      </trkpt>
      <trkpt lat="46.31925" lon="-1.07511">
        <ele>5.6</ele>
        <time>2020-06-02T13:37:41Z</time>
      </trkpt>
      <trkpt lat="46.31925" lon="-1.07511">
        <ele>5.6</ele>
        <time>2020-06-02T13:37:42Z</time>
      </trkpt>
      <trkpt lat="46.31925" lon="-1.07511">
        <ele>5.6</ele>
        <time>2020-06-02T13:37:43Z</time>
      </trkpt>
      <trkpt lat="46.31925" lon="-1.07511">
        <ele>5.6</ele>
        <time>2020-06-02T13:37:44Z</time>
      </trkpt>
      <trkpt lat="46.31925" lon="-1.07511">
        <ele>5.6</ele>
        <time>2020-06-02T13:37:45Z</time>
      </trkpt>
      <trkpt lat="46.31925" lon="-1.07511">
        <ele>5.6</ele>
        <time>2020-06-02T13:37:46Z</time>
      </trkpt>
      <trkpt lat="46.31925" lon="-1.07511">
        <ele>5.6</ele>
        <time>2020-06-02T13:37:47Z</time>
      </trkpt>
      <trkpt lat="46.31925" lon="-1.07511">
        <ele>5.6</ele>
        <time>2020-06-02T13:37:48Z</time>
      </trkpt>
      <trkpt lat="46.31925" lon="-1.07511">
        <ele>5.6</ele>
        <time>2020-06-02T13:37:49Z</time>
      </trkpt>
      <trkpt lat="46.31925" lon="-1.07511">
        <ele>5.6</ele>
        <time>2020-06-02T13:37:50Z</time>
      </trkpt>
      <trkpt lat="46.31925" lon="-1.07512">
        <ele>5.6</ele>
        <time>2020-06-02T13:37:51Z</time>
      </trkpt>
      <trkpt lat="46.31925" lon="-1.07512">
        <ele>5.6</ele>
        <time>2020-06-02T13:37:52Z</time>
      </trkpt>
      <trkpt lat="46.31925" lon="-1.07512">
        <ele>5.6</ele>
        <time>2020-06-02T13:37:53Z</time>
      </trkpt>
      <trkpt lat="46.31925" lon="-1.07512">
        <ele>5.6</ele>
        <time>2020-06-02T13:37:54Z</time>
      </trkpt>
      <trkpt lat="46.31925" lon="-1.07512">
        <ele>5.6</ele>
        <time>2020-06-02T13:37:55Z</time>
      </trkpt>
      <trkpt lat="46.31925" lon="-1.07512">
        <ele>5.6</ele>
        <time>2020-06-02T13:37:56Z</time>
      </trkpt>
      <trkpt lat="46.31925" lon="-1.07512">
        <ele>5.6</ele>
        <time>2020-06-02T13:37:57Z</time>
      </trkpt>
      <trkpt lat="46.31925" lon="-1.07512">
        <ele>5.6</ele>
        <time>2020-06-02T13:37:58Z</time>
      </trkpt>
      <trkpt lat="46.31925" lon="-1.07512">
        <ele>5.6</ele>
        <time>2020-06-02T13:37:59Z</time>
      </trkpt>
      <trkpt lat="46.31925" lon="-1.07512">
        <ele>5.6</ele>
        <time>2020-06-02T13:38:00Z</time>
      </trkpt>
      <trkpt lat="46.31925" lon="-1.07512">
        <ele>5.6</ele>
        <time>2020-06-02T13:38:01Z</time>
      </trkpt>
      <trkpt lat="46.31926" lon="-1.07512">
        <ele>5.6</ele>
        <time>2020-06-02T13:38:02Z</time>
      </trkpt>
      <trkpt lat="46.31926" lon="-1.07512">
        <ele>5.6</ele>
        <time>2020-06-02T13:38:03Z</time>
      </trkpt>
      <trkpt lat="46.31926" lon="-1.07513">
        <ele>5.6</ele>
        <time>2020-06-02T13:38:04Z</time>
      </trkpt>
      <trkpt lat="46.31926" lon="-1.07513">
        <ele>5.6</ele>
        <time>2020-06-02T13:38:05Z</time>
      </trkpt>
      <trkpt lat="46.31926" lon="-1.07514">
        <ele>5.6</ele>
        <time>2020-06-02T13:38:06Z</time>
      </trkpt>
      <trkpt lat="46.31926" lon="-1.07514">
        <ele>5.6</ele>
        <time>2020-06-02T13:38:07Z</time>
      </trkpt>
      <trkpt lat="46.31927" lon="-1.07513">
        <ele>5.6</ele>
        <time>2020-06-02T13:38:08Z</time>
      </trkpt>
      <trkpt lat="46.31927" lon="-1.07512">
        <ele>5.6</ele>
        <time>2020-06-02T13:38:09Z</time>
      </trkpt>
      <trkpt lat="46.31927" lon="-1.07512">
        <ele>5.6</ele>
        <time>2020-06-02T13:38:10Z</time>
      </trkpt>
      <trkpt lat="46.31927" lon="-1.07512">
        <ele>5.6</ele>
        <time>2020-06-02T13:38:11Z</time>
      </trkpt>
      <trkpt lat="46.31927" lon="-1.07512">
        <ele>5.6</ele>
        <time>2020-06-02T13:38:12Z</time>
      </trkpt>
      <trkpt lat="46.31927" lon="-1.07512">
        <ele>5.6</ele>
        <time>2020-06-02T13:38:13Z</time>
      </trkpt>
      <trkpt lat="46.31927" lon="-1.07512">
        <ele>5.6</ele>
        <time>2020-06-02T13:38:14Z</time>
      </trkpt>
      <trkpt lat="46.31927" lon="-1.07512">
        <ele>5.6</ele>
        <time>2020-06-02T13:38:15Z</time>
      </trkpt>
      <trkpt lat="46.31927" lon="-1.07512">
        <ele>5.6</ele>
        <time>2020-06-02T13:38:16Z</time>
      </trkpt>
      <trkpt lat="46.31927" lon="-1.07512">
        <ele>5.6</ele>
        <time>2020-06-02T13:38:17Z</time>
      </trkpt>
      <trkpt lat="46.31927" lon="-1.07512">
        <ele>5.6</ele>
        <time>2020-06-02T13:38:18Z</time>
      </trkpt>
      <trkpt lat="46.31927" lon="-1.07512">
        <ele>5.6</ele>
        <time>2020-06-02T13:38:19Z</time>
      </trkpt>
      <trkpt lat="46.31927" lon="-1.07512">
        <ele>5.6</ele>
        <time>2020-06-02T13:38:20Z</time>
      </trkpt>
      <trkpt lat="46.31926" lon="-1.07512">
        <ele>5.6</ele>
        <time>2020-06-02T13:38:21Z</time>
      </trkpt>
      <trkpt lat="46.31926" lon="-1.07512">
        <ele>5.6</ele>
        <time>2020-06-02T13:38:22Z</time>
      </trkpt>
      <trkpt lat="46.31926" lon="-1.07512">
        <ele>5.6</ele>
        <time>2020-06-02T13:38:23Z</time>
      </trkpt>
      <trkpt lat="46.31926" lon="-1.07512">
        <ele>5.6</ele>
        <time>2020-06-02T13:38:24Z</time>
      </trkpt>
      <trkpt lat="46.31926" lon="-1.07511">
        <ele>5.6</ele>
        <time>2020-06-02T13:38:25Z</time>
      </trkpt>
      <trkpt lat="46.31926" lon="-1.0751">
        <ele>5.6</ele>
        <time>2020-06-02T13:38:26Z</time>
      </trkpt>
      <trkpt lat="46.31926" lon="-1.0751">
        <ele>5.6</ele>
        <time>2020-06-02T13:38:27Z</time>
      </trkpt>
      <trkpt lat="46.31927" lon="-1.07508">
        <ele>5.6</ele>
        <time>2020-06-02T13:38:28Z</time>
      </trkpt>
      <trkpt lat="46.31927" lon="-1.07507">
        <ele>5.6</ele>
        <time>2020-06-02T13:38:29Z</time>
      </trkpt>
      <trkpt lat="46.31927" lon="-1.07506">
        <ele>5.6</ele>
        <time>2020-06-02T13:38:30Z</time>
      </trkpt>
      <trkpt lat="46.31928" lon="-1.07504">
        <ele>5.6</ele>
        <time>2020-06-02T13:38:31Z</time>
      </trkpt>
      <trkpt lat="46.31928" lon="-1.07502">
        <ele>5.6</ele>
        <time>2020-06-02T13:38:32Z</time>
      </trkpt>
      <trkpt lat="46.3193" lon="-1.07501">
        <ele>5.6</ele>
        <time>2020-06-02T13:38:33Z</time>
      </trkpt>
      <trkpt lat="46.3193" lon="-1.07501">
        <ele>5.6</ele>
        <time>2020-06-02T13:38:34Z</time>
      </trkpt>
      <trkpt lat="46.3193" lon="-1.07501">
        <ele>5.6</ele>
        <time>2020-06-02T13:38:35Z</time>
      </trkpt>
      <trkpt lat="46.3193" lon="-1.075">
        <ele>5.6</ele>
        <time>2020-06-02T13:38:36Z</time>
      </trkpt>
      <trkpt lat="46.3193" lon="-1.075">
        <ele>5.6</ele>
        <time>2020-06-02T13:38:37Z</time>
      </trkpt>
      <trkpt lat="46.3193" lon="-1.075">
        <ele>5.6</ele>
        <time>2020-06-02T13:38:38Z</time>
      </trkpt>
      <trkpt lat="46.3193" lon="-1.075">
        <ele>5.6</ele>
        <time>2020-06-02T13:38:39Z</time>
      </trkpt>
      <trkpt lat="46.3193" lon="-1.075">
        <ele>5.6</ele>
        <time>2020-06-02T13:38:40Z</time>
      </trkpt>
      <trkpt lat="46.3193" lon="-1.075">
        <ele>5.6</ele>
        <time>2020-06-02T13:38:41Z</time>
      </trkpt>
      <trkpt lat="46.3193" lon="-1.075">
        <ele>5.6</ele>
        <time>2020-06-02T13:38:42Z</time>
      </trkpt>
      <trkpt lat="46.3193" lon="-1.075">
        <ele>5.6</ele>
        <time>2020-06-02T13:38:43Z</time>
      </trkpt>
      <trkpt lat="46.3193" lon="-1.075">
        <ele>5.6</ele>
        <time>2020-06-02T13:38:44Z</time>
      </trkpt>
      <trkpt lat="46.3193" lon="-1.075">
        <ele>5.6</ele>
        <time>2020-06-02T13:38:45Z</time>
      </trkpt>
      <trkpt lat="46.3193" lon="-1.075">
        <ele>5.6</ele>
        <time>2020-06-02T13:38:46Z</time>
      </trkpt>
      <trkpt lat="46.3193" lon="-1.075">
        <ele>5.6</ele>
        <time>2020-06-02T13:38:47Z</time>
      </trkpt>
      <trkpt lat="46.3193" lon="-1.075">
        <ele>5.6</ele>
        <time>2020-06-02T13:38:48Z</time>
      </trkpt>
      <trkpt lat="46.3193" lon="-1.075">
        <ele>5.6</ele>
        <time>2020-06-02T13:38:49Z</time>
      </trkpt>
      <trkpt lat="46.3193" lon="-1.07499">
        <ele>5.6</ele>
        <time>2020-06-02T13:38:50Z</time>
      </trkpt>
      <trkpt lat="46.3193" lon="-1.07499">
        <ele>5.6</ele>
        <time>2020-06-02T13:38:51Z</time>
      </trkpt>
      <trkpt lat="46.3193" lon="-1.07499">
        <ele>5.6</ele>
        <time>2020-06-02T13:38:52Z</time>
      </trkpt>
      <trkpt lat="46.3193" lon="-1.07499">
        <ele>5.6</ele>
        <time>2020-06-02T13:38:53Z</time>
      </trkpt>
      <trkpt lat="46.3193" lon="-1.07499">
        <ele>5.6</ele>
        <time>2020-06-02T13:38:54Z</time>
      </trkpt>
      <trkpt lat="46.3193" lon="-1.07499">
        <ele>5.6</ele>
        <time>2020-06-02T13:38:55Z</time>
      </trkpt>
      <trkpt lat="46.3193" lon="-1.07499">
        <ele>5.6</ele>
        <time>2020-06-02T13:38:56Z</time>
      </trkpt>
      <trkpt lat="46.3193" lon="-1.07499">
        <ele>5.6</ele>
        <time>2020-06-02T13:38:57Z</time>
      </trkpt>
      <trkpt lat="46.3193" lon="-1.07498">
        <ele>5.6</ele>
        <time>2020-06-02T13:38:58Z</time>
      </trkpt>
      <trkpt lat="46.3193" lon="-1.07498">
        <ele>5.6</ele>
        <time>2020-06-02T13:38:59Z</time>
      </trkpt>
      <trkpt lat="46.31931" lon="-1.07498">
        <ele>5.6</ele>
        <time>2020-06-02T13:39:00Z</time>
      </trkpt>
      <trkpt lat="46.31931" lon="-1.07498">
        <ele>5.6</ele>
        <time>2020-06-02T13:39:01Z</time>
      </trkpt>
      <trkpt lat="46.31932" lon="-1.07497">
        <ele>5.6</ele>
        <time>2020-06-02T13:39:02Z</time>
      </trkpt>
      <trkpt lat="46.31932" lon="-1.07497">
        <ele>5.6</ele>
        <time>2020-06-02T13:39:03Z</time>
      </trkpt>
      <trkpt lat="46.31933" lon="-1.07496">
        <ele>5.6</ele>
        <time>2020-06-02T13:39:04Z</time>
      </trkpt>
      <trkpt lat="46.31933" lon="-1.07495">
        <ele>5.6</ele>
        <time>2020-06-02T13:39:05Z</time>
      </trkpt>
      <trkpt lat="46.31933" lon="-1.07496">
        <ele>5.6</ele>
        <time>2020-06-02T13:39:06Z</time>
      </trkpt>
      <trkpt lat="46.31933" lon="-1.07496">
        <ele>5.6</ele>
        <time>2020-06-02T13:39:07Z</time>
      </trkpt>
      <trkpt lat="46.31933" lon="-1.07496">
        <ele>5.6</ele>
        <time>2020-06-02T13:39:08Z</time>
      </trkpt>
      <trkpt lat="46.31933" lon="-1.07496">
        <ele>5.6</ele>
        <time>2020-06-02T13:39:09Z</time>
      </trkpt>
      <trkpt lat="46.31933" lon="-1.07496">
        <ele>5.6</ele>
        <time>2020-06-02T13:39:10Z</time>
      </trkpt>
      <trkpt lat="46.31933" lon="-1.07496">
        <ele>5.6</ele>
        <time>2020-06-02T13:39:11Z</time>
      </trkpt>
      <trkpt lat="46.31933" lon="-1.07496">
        <ele>5.6</ele>
        <time>2020-06-02T13:39:12Z</time>
      </trkpt>
      <trkpt lat="46.31933" lon="-1.07496">
        <ele>5.6</ele>
        <time>2020-06-02T13:39:13Z</time>
      </trkpt>
      <trkpt lat="46.31933" lon="-1.07496">
        <ele>5.6</ele>
        <time>2020-06-02T13:39:14Z</time>
      </trkpt>
      <trkpt lat="46.31933" lon="-1.07496">
        <ele>5.6</ele>
        <time>2020-06-02T13:39:15Z</time>
      </trkpt>
      <trkpt lat="46.31933" lon="-1.07496">
        <ele>5.6</ele>
        <time>2020-06-02T13:39:16Z</time>
      </trkpt>
      <trkpt lat="46.31933" lon="-1.07496">
        <ele>5.6</ele>
        <time>2020-06-02T13:39:17Z</time>
      </trkpt>
      <trkpt lat="46.31932" lon="-1.07496">
        <ele>5.6</ele>
        <time>2020-06-02T13:39:18Z</time>
      </trkpt>
      <trkpt lat="46.31932" lon="-1.07496">
        <ele>5.6</ele>
        <time>2020-06-02T13:39:19Z</time>
      </trkpt>
      <trkpt lat="46.31932" lon="-1.07496">
        <ele>5.6</ele>
        <time>2020-06-02T13:39:20Z</time>
      </trkpt>
      <trkpt lat="46.31932" lon="-1.07496">
        <ele>5.6</ele>
        <time>2020-06-02T13:39:21Z</time>
      </trkpt>
      <trkpt lat="46.31932" lon="-1.07496">
        <ele>5.6</ele>
        <time>2020-06-02T13:39:22Z</time>
      </trkpt>
      <trkpt lat="46.31932" lon="-1.07496">
        <ele>5.6</ele>
        <time>2020-06-02T13:39:23Z</time>
      </trkpt>
      <trkpt lat="46.31932" lon="-1.07495">
        <ele>5.6</ele>
        <time>2020-06-02T13:39:24Z</time>
      </trkpt>
      <trkpt lat="46.31932" lon="-1.07495">
        <ele>5.6</ele>
        <time>2020-06-02T13:39:25Z</time>
      </trkpt>
      <trkpt lat="46.31932" lon="-1.07495">
        <ele>5.6</ele>
        <time>2020-06-02T13:39:26Z</time>
      </trkpt>
      <trkpt lat="46.31932" lon="-1.07495">
        <ele>5.6</ele>
        <time>2020-06-02T13:39:27Z</time>
      </trkpt>
      <trkpt lat="46.31932" lon="-1.07495">
        <ele>5.6</ele>
        <time>2020-06-02T13:39:28Z</time>
      </trkpt>
      <trkpt lat="46.31932" lon="-1.07495">
        <ele>5.6</ele>
        <time>2020-06-02T13:39:29Z</time>
      </trkpt>
      <trkpt lat="46.31932" lon="-1.07495">
        <ele>5.6</ele>
        <time>2020-06-02T13:39:30Z</time>
      </trkpt>
      <trkpt lat="46.31932" lon="-1.07495">
        <ele>5.6</ele>
        <time>2020-06-02T13:39:31Z</time>
      </trkpt>
      <trkpt lat="46.31932" lon="-1.07495">
        <ele>5.6</ele>
        <time>2020-06-02T13:39:32Z</time>
      </trkpt>
      <trkpt lat="46.31932" lon="-1.07495">
        <ele>5.6</ele>
        <time>2020-06-02T13:39:33Z</time>
      </trkpt>
      <trkpt lat="46.31932" lon="-1.07495">
        <ele>5.6</ele>
        <time>2020-06-02T13:39:34Z</time>
      </trkpt>
      <trkpt lat="46.31932" lon="-1.07495">
        <ele>5.6</ele>
        <time>2020-06-02T13:39:35Z</time>
      </trkpt>
      <trkpt lat="46.31932" lon="-1.07495">
        <ele>5.6</ele>
        <time>2020-06-02T13:39:36Z</time>
      </trkpt>
      <trkpt lat="46.31932" lon="-1.07495">
        <ele>5.6</ele>
        <time>2020-06-02T13:39:37Z</time>
      </trkpt>
      <trkpt lat="46.31932" lon="-1.07495">
        <ele>5.6</ele>
        <time>2020-06-02T13:39:38Z</time>
      </trkpt>
      <trkpt lat="46.31932" lon="-1.07495">
        <ele>5.6</ele>
        <time>2020-06-02T13:39:39Z</time>
      </trkpt>
      <trkpt lat="46.31932" lon="-1.07495">
        <ele>5.6</ele>
        <time>2020-06-02T13:39:40Z</time>
      </trkpt>
      <trkpt lat="46.31932" lon="-1.07495">
        <ele>5.6</ele>
        <time>2020-06-02T13:39:41Z</time>
      </trkpt>
      <trkpt lat="46.31932" lon="-1.07495">
        <ele>5.6</ele>
        <time>2020-06-02T13:39:42Z</time>
      </trkpt>
      <trkpt lat="46.31932" lon="-1.07495">
        <ele>5.6</ele>
        <time>2020-06-02T13:39:43Z</time>
      </trkpt>
      <trkpt lat="46.31932" lon="-1.07495">
        <ele>5.6</ele>
        <time>2020-06-02T13:39:44Z</time>
      </trkpt>
      <trkpt lat="46.31931" lon="-1.07495">
        <ele>5.6</ele>
        <time>2020-06-02T13:39:45Z</time>
      </trkpt>
      <trkpt lat="46.31931" lon="-1.07495">
        <ele>5.6</ele>
        <time>2020-06-02T13:39:46Z</time>
      </trkpt>
      <trkpt lat="46.31931" lon="-1.07495">
        <ele>5.6</ele>
        <time>2020-06-02T13:39:47Z</time>
      </trkpt>
      <trkpt lat="46.31931" lon="-1.07495">
        <ele>5.6</ele>
        <time>2020-06-02T13:39:48Z</time>
      </trkpt>
      <trkpt lat="46.31931" lon="-1.07495">
        <ele>5.6</ele>
        <time>2020-06-02T13:39:49Z</time>
      </trkpt>
      <trkpt lat="46.31931" lon="-1.07495">
        <ele>5.6</ele>
        <time>2020-06-02T13:39:50Z</time>
      </trkpt>
      <trkpt lat="46.31931" lon="-1.07495">
        <ele>5.6</ele>
        <time>2020-06-02T13:39:51Z</time>
      </trkpt>
      <trkpt lat="46.31931" lon="-1.07495">
        <ele>5.6</ele>
        <time>2020-06-02T13:39:52Z</time>
      </trkpt>
      <trkpt lat="46.31931" lon="-1.07495">
        <ele>5.6</ele>
        <time>2020-06-02T13:39:53Z</time>
      </trkpt>
      <trkpt lat="46.31931" lon="-1.07495">
        <ele>5.6</ele>
        <time>2020-06-02T13:39:54Z</time>
      </trkpt>
      <trkpt lat="46.31931" lon="-1.07495">
        <ele>5.6</ele>
        <time>2020-06-02T13:39:55Z</time>
      </trkpt>
      <trkpt lat="46.31931" lon="-1.07495">
        <ele>5.6</ele>
        <time>2020-06-02T13:39:56Z</time>
      </trkpt>
      <trkpt lat="46.31931" lon="-1.07495">
        <ele>5.6</ele>
        <time>2020-06-02T13:39:57Z</time>
      </trkpt>
      <trkpt lat="46.31931" lon="-1.07495">
        <ele>5.6</ele>
        <time>2020-06-02T13:39:58Z</time>
      </trkpt>
      <trkpt lat="46.31931" lon="-1.07495">
        <ele>5.6</ele>
        <time>2020-06-02T13:39:59Z</time>
      </trkpt>
      <trkpt lat="46.31931" lon="-1.07495">
        <ele>5.6</ele>
        <time>2020-06-02T13:40:00Z</time>
      </trkpt>
      <trkpt lat="46.31931" lon="-1.07495">
        <ele>5.6</ele>
        <time>2020-06-02T13:40:01Z</time>
      </trkpt>
      <trkpt lat="46.31931" lon="-1.07495">
        <ele>5.6</ele>
        <time>2020-06-02T13:40:02Z</time>
      </trkpt>
      <trkpt lat="46.31931" lon="-1.07495">
        <ele>5.6</ele>
        <time>2020-06-02T13:40:03Z</time>
      </trkpt>
      <trkpt lat="46.31932" lon="-1.07493">
        <ele>5.6</ele>
        <time>2020-06-02T13:40:04Z</time>
      </trkpt>
      <trkpt lat="46.31932" lon="-1.07492">
        <ele>5.6</ele>
        <time>2020-06-02T13:40:05Z</time>
      </trkpt>
      <trkpt lat="46.31932" lon="-1.07492">
        <ele>5.6</ele>
        <time>2020-06-02T13:40:06Z</time>
      </trkpt>
      <trkpt lat="46.31932" lon="-1.07492">
        <ele>5.6</ele>
        <time>2020-06-02T13:40:07Z</time>
      </trkpt>
      <trkpt lat="46.31932" lon="-1.07492">
        <ele>5.6</ele>
        <time>2020-06-02T13:40:08Z</time>
      </trkpt>
      <trkpt lat="46.31932" lon="-1.07492">
        <ele>5.6</ele>
        <time>2020-06-02T13:40:09Z</time>
      </trkpt>
      <trkpt lat="46.31932" lon="-1.07492">
        <ele>5.6</ele>
        <time>2020-06-02T13:40:10Z</time>
      </trkpt>
      <trkpt lat="46.31932" lon="-1.07492">
        <ele>5.6</ele>
        <time>2020-06-02T13:40:11Z</time>
      </trkpt>
      <trkpt lat="46.31932" lon="-1.07492">
        <ele>5.6</ele>
        <time>2020-06-02T13:40:12Z</time>
      </trkpt>
      <trkpt lat="46.31931" lon="-1.07492">
        <ele>5.6</ele>
        <time>2020-06-02T13:40:13Z</time>
      </trkpt>
      <trkpt lat="46.31931" lon="-1.07492">
        <ele>5.6</ele>
        <time>2020-06-02T13:40:14Z</time>
      </trkpt>
      <trkpt lat="46.31931" lon="-1.07492">
        <ele>5.6</ele>
        <time>2020-06-02T13:40:15Z</time>
      </trkpt>
      <trkpt lat="46.31931" lon="-1.07492">
        <ele>5.6</ele>
        <time>2020-06-02T13:40:16Z</time>
      </trkpt>
      <trkpt lat="46.31931" lon="-1.07492">
        <ele>5.6</ele>
        <time>2020-06-02T13:40:17Z</time>
      </trkpt>
      <trkpt lat="46.31931" lon="-1.07492">
        <ele>5.6</ele>
        <time>2020-06-02T13:40:18Z</time>
      </trkpt>
      <trkpt lat="46.31931" lon="-1.07492">
        <ele>5.6</ele>
        <time>2020-06-02T13:40:19Z</time>
      </trkpt>
      <trkpt lat="46.31931" lon="-1.07492">
        <ele>5.6</ele>
        <time>2020-06-02T13:40:20Z</time>
      </trkpt>
      <trkpt lat="46.31931" lon="-1.07492">
        <ele>5.6</ele>
        <time>2020-06-02T13:40:21Z</time>
      </trkpt>
      <trkpt lat="46.31931" lon="-1.07492">
        <ele>5.6</ele>
        <time>2020-06-02T13:40:22Z</time>
      </trkpt>
      <trkpt lat="46.31931" lon="-1.07492">
        <ele>5.6</ele>
        <time>2020-06-02T13:40:23Z</time>
      </trkpt>
      <trkpt lat="46.31931" lon="-1.07492">
        <ele>5.6</ele>
        <time>2020-06-02T13:40:24Z</time>
      </trkpt>
      <trkpt lat="46.31931" lon="-1.07492">
        <ele>5.6</ele>
        <time>2020-06-02T13:40:25Z</time>
      </trkpt>
      <trkpt lat="46.31931" lon="-1.07492">
        <ele>5.6</ele>
        <time>2020-06-02T13:40:26Z</time>
      </trkpt>
      <trkpt lat="46.31931" lon="-1.07492">
        <ele>5.6</ele>
        <time>2020-06-02T13:40:27Z</time>
      </trkpt>
      <trkpt lat="46.31931" lon="-1.07492">
        <ele>5.6</ele>
        <time>2020-06-02T13:40:28Z</time>
      </trkpt>
      <trkpt lat="46.31931" lon="-1.07492">
        <ele>5.6</ele>
        <time>2020-06-02T13:40:29Z</time>
      </trkpt>
      <trkpt lat="46.31931" lon="-1.07492">
        <ele>5.6</ele>
        <time>2020-06-02T13:40:30Z</time>
      </trkpt>
      <trkpt lat="46.31931" lon="-1.07492">
        <ele>5.6</ele>
        <time>2020-06-02T13:40:31Z</time>
      </trkpt>
      <trkpt lat="46.31931" lon="-1.07492">
        <ele>5.6</ele>
        <time>2020-06-02T13:40:32Z</time>
      </trkpt>
      <trkpt lat="46.31931" lon="-1.07492">
        <ele>5.6</ele>
        <time>2020-06-02T13:40:33Z</time>
      </trkpt>
      <trkpt lat="46.31931" lon="-1.07492">
        <ele>5.6</ele>
        <time>2020-06-02T13:40:34Z</time>
      </trkpt>
      <trkpt lat="46.31931" lon="-1.07492">
        <ele>5.6</ele>
        <time>2020-06-02T13:40:35Z</time>
      </trkpt>
      <trkpt lat="46.31931" lon="-1.07492">
        <ele>5.6</ele>
        <time>2020-06-02T13:40:36Z</time>
      </trkpt>
      <trkpt lat="46.31931" lon="-1.07492">
        <ele>5.6</ele>
        <time>2020-06-02T13:40:37Z</time>
      </trkpt>
      <trkpt lat="46.31931" lon="-1.07492">
        <ele>5.6</ele>
        <time>2020-06-02T13:40:38Z</time>
      </trkpt>
      <trkpt lat="46.31931" lon="-1.07492">
        <ele>5.6</ele>
        <time>2020-06-02T13:40:39Z</time>
      </trkpt>
      <trkpt lat="46.31931" lon="-1.07492">
        <ele>5.6</ele>
        <time>2020-06-02T13:40:40Z</time>
      </trkpt>
      <trkpt lat="46.31931" lon="-1.07492">
        <ele>5.6</ele>
        <time>2020-06-02T13:40:41Z</time>
      </trkpt>
      <trkpt lat="46.31931" lon="-1.07492">
        <ele>5.6</ele>
        <time>2020-06-02T13:40:42Z</time>
      </trkpt>
      <trkpt lat="46.31931" lon="-1.07492">
        <ele>5.6</ele>
        <time>2020-06-02T13:40:43Z</time>
      </trkpt>
      <trkpt lat="46.31931" lon="-1.07492">
        <ele>5.6</ele>
        <time>2020-06-02T13:40:44Z</time>
      </trkpt>
      <trkpt lat="46.31931" lon="-1.07492">
        <ele>5.6</ele>
        <time>2020-06-02T13:40:45Z</time>
      </trkpt>
      <trkpt lat="46.31931" lon="-1.07492">
        <ele>5.6</ele>
        <time>2020-06-02T13:40:46Z</time>
      </trkpt>
      <trkpt lat="46.31931" lon="-1.07492">
        <ele>5.6</ele>
        <time>2020-06-02T13:40:47Z</time>
      </trkpt>
      <trkpt lat="46.31931" lon="-1.07492">
        <ele>5.6</ele>
        <time>2020-06-02T13:40:48Z</time>
      </trkpt>
      <trkpt lat="46.31931" lon="-1.07492">
        <ele>5.6</ele>
        <time>2020-06-02T13:40:49Z</time>
      </trkpt>
      <trkpt lat="46.31931" lon="-1.07492">
        <ele>5.6</ele>
        <time>2020-06-02T13:40:50Z</time>
      </trkpt>
      <trkpt lat="46.31931" lon="-1.07492">
        <ele>5.6</ele>
        <time>2020-06-02T13:40:51Z</time>
      </trkpt>
      <trkpt lat="46.31931" lon="-1.07492">
        <ele>5.6</ele>
        <time>2020-06-02T13:40:52Z</time>
      </trkpt>
      <trkpt lat="46.31931" lon="-1.07492">
        <ele>5.6</ele>
        <time>2020-06-02T13:40:53Z</time>
      </trkpt>
      <trkpt lat="46.31931" lon="-1.07492">
        <ele>5.6</ele>
        <time>2020-06-02T13:40:54Z</time>
      </trkpt>
      <trkpt lat="46.31931" lon="-1.07492">
        <ele>5.6</ele>
        <time>2020-06-02T13:40:55Z</time>
      </trkpt>
      <trkpt lat="46.31931" lon="-1.07492">
        <ele>5.6</ele>
        <time>2020-06-02T13:40:56Z</time>
      </trkpt>
      <trkpt lat="46.31931" lon="-1.07491">
        <ele>5.6</ele>
        <time>2020-06-02T13:40:57Z</time>
      </trkpt>
      <trkpt lat="46.31931" lon="-1.07491">
        <ele>5.6</ele>
        <time>2020-06-02T13:40:58Z</time>
      </trkpt>
      <trkpt lat="46.31931" lon="-1.07491">
        <ele>5.6</ele>
        <time>2020-06-02T13:40:59Z</time>
      </trkpt>
      <trkpt lat="46.31931" lon="-1.07491">
        <ele>5.6</ele>
        <time>2020-06-02T13:41:00Z</time>
      </trkpt>
      <trkpt lat="46.31931" lon="-1.07491">
        <ele>5.6</ele>
        <time>2020-06-02T13:41:01Z</time>
      </trkpt>
      <trkpt lat="46.31931" lon="-1.07491">
        <ele>5.6</ele>
        <time>2020-06-02T13:41:02Z</time>
      </trkpt>
      <trkpt lat="46.31931" lon="-1.07491">
        <ele>5.6</ele>
        <time>2020-06-02T13:41:03Z</time>
      </trkpt>
      <trkpt lat="46.31931" lon="-1.07491">
        <ele>5.6</ele>
        <time>2020-06-02T13:41:04Z</time>
      </trkpt>
      <trkpt lat="46.31931" lon="-1.07491">
        <ele>5.6</ele>
        <time>2020-06-02T13:41:05Z</time>
      </trkpt>
      <trkpt lat="46.31931" lon="-1.07491">
        <ele>5.6</ele>
        <time>2020-06-02T13:41:06Z</time>
      </trkpt>
      <trkpt lat="46.31931" lon="-1.07491">
        <ele>5.6</ele>
        <time>2020-06-02T13:41:07Z</time>
      </trkpt>
      <trkpt lat="46.31931" lon="-1.07491">
        <ele>5.6</ele>
        <time>2020-06-02T13:41:08Z</time>
      </trkpt>
      <trkpt lat="46.31931" lon="-1.07491">
        <ele>5.6</ele>
        <time>2020-06-02T13:41:09Z</time>
      </trkpt>
      <trkpt lat="46.31931" lon="-1.07491">
        <ele>5.6</ele>
        <time>2020-06-02T13:41:10Z</time>
      </trkpt>
      <trkpt lat="46.31931" lon="-1.07491">
        <ele>5.6</ele>
        <time>2020-06-02T13:41:11Z</time>
      </trkpt>
      <trkpt lat="46.31931" lon="-1.07491">
        <ele>5.6</ele>
        <time>2020-06-02T13:41:12Z</time>
      </trkpt>
      <trkpt lat="46.3193" lon="-1.07491">
        <ele>5.6</ele>
        <time>2020-06-02T13:41:13Z</time>
      </trkpt>
      <trkpt lat="46.3193" lon="-1.07491">
        <ele>5.6</ele>
        <time>2020-06-02T13:41:14Z</time>
      </trkpt>
      <trkpt lat="46.3193" lon="-1.07491">
        <ele>5.6</ele>
        <time>2020-06-02T13:41:15Z</time>
      </trkpt>
      <trkpt lat="46.31931" lon="-1.07491">
        <ele>5.6</ele>
        <time>2020-06-02T13:41:16Z</time>
      </trkpt>
      <trkpt lat="46.3193" lon="-1.07491">
        <ele>5.6</ele>
        <time>2020-06-02T13:41:17Z</time>
      </trkpt>
      <trkpt lat="46.31929" lon="-1.0749">
        <ele>5.6</ele>
        <time>2020-06-02T13:41:18Z</time>
      </trkpt>
      <trkpt lat="46.31929" lon="-1.07489">
        <ele>5.6</ele>
        <time>2020-06-02T13:41:19Z</time>
      </trkpt>
      <trkpt lat="46.31928" lon="-1.07489">
        <ele>5.6</ele>
        <time>2020-06-02T13:41:20Z</time>
      </trkpt>
      <trkpt lat="46.31928" lon="-1.0749">
        <ele>5.6</ele>
        <time>2020-06-02T13:41:21Z</time>
      </trkpt>
      <trkpt lat="46.31928" lon="-1.0749">
        <ele>5.6</ele>
        <time>2020-06-02T13:41:22Z</time>
      </trkpt>
      <trkpt lat="46.31927" lon="-1.0749">
        <ele>5.6</ele>
        <time>2020-06-02T13:41:23Z</time>
      </trkpt>
      <trkpt lat="46.31927" lon="-1.0749">
        <ele>5.6</ele>
        <time>2020-06-02T13:41:24Z</time>
      </trkpt>
      <trkpt lat="46.31927" lon="-1.07489">
        <ele>5.6</ele>
        <time>2020-06-02T13:41:25Z</time>
      </trkpt>
      <trkpt lat="46.31927" lon="-1.07489">
        <ele>5.6</ele>
        <time>2020-06-02T13:41:26Z</time>
      </trkpt>
      <trkpt lat="46.31927" lon="-1.07489">
        <ele>5.6</ele>
        <time>2020-06-02T13:41:27Z</time>
      </trkpt>
      <trkpt lat="46.31927" lon="-1.07489">
        <ele>5.6</ele>
        <time>2020-06-02T13:41:28Z</time>
      </trkpt>
      <trkpt lat="46.31927" lon="-1.07489">
        <ele>5.6</ele>
        <time>2020-06-02T13:41:29Z</time>
      </trkpt>
      <trkpt lat="46.31927" lon="-1.07489">
        <ele>5.6</ele>
        <time>2020-06-02T13:41:30Z</time>
      </trkpt>
      <trkpt lat="46.31927" lon="-1.07489">
        <ele>5.6</ele>
        <time>2020-06-02T13:41:31Z</time>
      </trkpt>
      <trkpt lat="46.31927" lon="-1.07489">
        <ele>5.6</ele>
        <time>2020-06-02T13:41:32Z</time>
      </trkpt>
      <trkpt lat="46.31927" lon="-1.07489">
        <ele>5.6</ele>
        <time>2020-06-02T13:41:33Z</time>
      </trkpt>
      <trkpt lat="46.31928" lon="-1.07489">
        <ele>5.6</ele>
        <time>2020-06-02T13:41:34Z</time>
      </trkpt>
      <trkpt lat="46.31928" lon="-1.0749">
        <ele>5.6</ele>
        <time>2020-06-02T13:41:35Z</time>
      </trkpt>
      <trkpt lat="46.31928" lon="-1.07492">
        <ele>5.6</ele>
        <time>2020-06-02T13:41:36Z</time>
      </trkpt>
      <trkpt lat="46.31928" lon="-1.07494">
        <ele>5.6</ele>
        <time>2020-06-02T13:41:37Z</time>
      </trkpt>
      <trkpt lat="46.31927" lon="-1.07497">
        <ele>5.6</ele>
        <time>2020-06-02T13:41:38Z</time>
      </trkpt>
      <trkpt lat="46.31928" lon="-1.07498">
        <ele>5.6</ele>
        <time>2020-06-02T13:41:39Z</time>
      </trkpt>
      <trkpt lat="46.31927" lon="-1.075">
        <ele>5.6</ele>
        <time>2020-06-02T13:41:40Z</time>
      </trkpt>
      <trkpt lat="46.31928" lon="-1.07502">
        <ele>5.6</ele>
        <time>2020-06-02T13:41:41Z</time>
      </trkpt>
      <trkpt lat="46.31928" lon="-1.07504">
        <ele>5.6</ele>
        <time>2020-06-02T13:41:42Z</time>
      </trkpt>
      <trkpt lat="46.31927" lon="-1.07505">
        <ele>5.6</ele>
        <time>2020-06-02T13:41:43Z</time>
      </trkpt>
      <trkpt lat="46.31927" lon="-1.07506">
        <ele>5.6</ele>
        <time>2020-06-02T13:41:44Z</time>
      </trkpt>
      <trkpt lat="46.31927" lon="-1.07508">
        <ele>5.6</ele>
        <time>2020-06-02T13:41:45Z</time>
      </trkpt>
      <trkpt lat="46.31927" lon="-1.0751">
        <ele>5.6</ele>
        <time>2020-06-02T13:41:46Z</time>
      </trkpt>
      <trkpt lat="46.31927" lon="-1.0751">
        <ele>5.6</ele>
        <time>2020-06-02T13:41:47Z</time>
      </trkpt>
      <trkpt lat="46.31927" lon="-1.0751">
        <ele>5.6</ele>
        <time>2020-06-02T13:41:48Z</time>
      </trkpt>
      <trkpt lat="46.31927" lon="-1.0751">
        <ele>5.6</ele>
        <time>2020-06-02T13:41:49Z</time>
      </trkpt>
      <trkpt lat="46.31927" lon="-1.0751">
        <ele>5.6</ele>
        <time>2020-06-02T13:41:50Z</time>
      </trkpt>
      <trkpt lat="46.31927" lon="-1.0751">
        <ele>5.6</ele>
        <time>2020-06-02T13:41:51Z</time>
      </trkpt>
      <trkpt lat="46.31927" lon="-1.0751">
        <ele>5.6</ele>
        <time>2020-06-02T13:41:52Z</time>
      </trkpt>
      <trkpt lat="46.31927" lon="-1.07509">
        <ele>5.6</ele>
        <time>2020-06-02T13:41:53Z</time>
      </trkpt>
      <trkpt lat="46.31927" lon="-1.07509">
        <ele>5.6</ele>
        <time>2020-06-02T13:41:54Z</time>
      </trkpt>
      <trkpt lat="46.31926" lon="-1.07509">
        <ele>5.6</ele>
        <time>2020-06-02T13:41:55Z</time>
      </trkpt>
      <trkpt lat="46.31926" lon="-1.07509">
        <ele>5.6</ele>
        <time>2020-06-02T13:41:56Z</time>
      </trkpt>
      <trkpt lat="46.31926" lon="-1.07509">
        <ele>5.6</ele>
        <time>2020-06-02T13:41:57Z</time>
      </trkpt>
      <trkpt lat="46.31926" lon="-1.07509">
        <ele>5.6</ele>
        <time>2020-06-02T13:41:58Z</time>
      </trkpt>
      <trkpt lat="46.31926" lon="-1.07509">
        <ele>5.6</ele>
        <time>2020-06-02T13:41:59Z</time>
      </trkpt>
      <trkpt lat="46.31927" lon="-1.07508">
        <ele>5.6</ele>
        <time>2020-06-02T13:42:00Z</time>
      </trkpt>
      <trkpt lat="46.31927" lon="-1.07509">
        <ele>5.6</ele>
        <time>2020-06-02T13:42:01Z</time>
      </trkpt>
      <trkpt lat="46.31927" lon="-1.07509">
        <ele>5.6</ele>
        <time>2020-06-02T13:42:02Z</time>
      </trkpt>
      <trkpt lat="46.31927" lon="-1.07509">
        <ele>5.6</ele>
        <time>2020-06-02T13:42:03Z</time>
      </trkpt>
      <trkpt lat="46.31927" lon="-1.07508">
        <ele>5.6</ele>
        <time>2020-06-02T13:42:04Z</time>
      </trkpt>
      <trkpt lat="46.31927" lon="-1.07508">
        <ele>5.6</ele>
        <time>2020-06-02T13:42:05Z</time>
      </trkpt>
      <trkpt lat="46.31928" lon="-1.07507">
        <ele>5.6</ele>
        <time>2020-06-02T13:42:06Z</time>
      </trkpt>
      <trkpt lat="46.31928" lon="-1.07507">
        <ele>5.6</ele>
        <time>2020-06-02T13:42:07Z</time>
      </trkpt>
      <trkpt lat="46.31928" lon="-1.07508">
        <ele>5.6</ele>
        <time>2020-06-02T13:42:08Z</time>
      </trkpt>
      <trkpt lat="46.31928" lon="-1.07508">
        <ele>5.6</ele>
        <time>2020-06-02T13:42:09Z</time>
      </trkpt>
      <trkpt lat="46.31928" lon="-1.07508">
        <ele>5.6</ele>
        <time>2020-06-02T13:42:10Z</time>
      </trkpt>
      <trkpt lat="46.31928" lon="-1.07508">
        <ele>5.6</ele>
        <time>2020-06-02T13:42:11Z</time>
      </trkpt>
      <trkpt lat="46.31928" lon="-1.07508">
        <ele>5.6</ele>
        <time>2020-06-02T13:42:12Z</time>
      </trkpt>
      <trkpt lat="46.31928" lon="-1.07508">
        <ele>5.6</ele>
        <time>2020-06-02T13:42:13Z</time>
      </trkpt>
      <trkpt lat="46.31928" lon="-1.07508">
        <ele>5.6</ele>
        <time>2020-06-02T13:42:14Z</time>
      </trkpt>
      <trkpt lat="46.31928" lon="-1.07508">
        <ele>5.6</ele>
        <time>2020-06-02T13:42:15Z</time>
      </trkpt>
      <trkpt lat="46.31928" lon="-1.07508">
        <ele>5.6</ele>
        <time>2020-06-02T13:42:16Z</time>
      </trkpt>
      <trkpt lat="46.31928" lon="-1.07508">
        <ele>5.6</ele>
        <time>2020-06-02T13:42:17Z</time>
      </trkpt>
      <trkpt lat="46.31928" lon="-1.07508">
        <ele>5.6</ele>
        <time>2020-06-02T13:42:18Z</time>
      </trkpt>
      <trkpt lat="46.31928" lon="-1.07508">
        <ele>5.6</ele>
        <time>2020-06-02T13:42:19Z</time>
      </trkpt>
      <trkpt lat="46.31928" lon="-1.07508">
        <ele>5.6</ele>
        <time>2020-06-02T13:42:20Z</time>
      </trkpt>
      <trkpt lat="46.31928" lon="-1.07508">
        <ele>5.6</ele>
        <time>2020-06-02T13:42:21Z</time>
      </trkpt>
      <trkpt lat="46.31928" lon="-1.07508">
        <ele>5.6</ele>
        <time>2020-06-02T13:42:22Z</time>
      </trkpt>
      <trkpt lat="46.31928" lon="-1.07508">
        <ele>5.6</ele>
        <time>2020-06-02T13:42:23Z</time>
      </trkpt>
      <trkpt lat="46.31928" lon="-1.07508">
        <ele>5.6</ele>
        <time>2020-06-02T13:42:24Z</time>
      </trkpt>
      <trkpt lat="46.31928" lon="-1.07508">
        <ele>5.6</ele>
        <time>2020-06-02T13:42:25Z</time>
      </trkpt>
      <trkpt lat="46.31928" lon="-1.07508">
        <ele>5.6</ele>
        <time>2020-06-02T13:42:26Z</time>
      </trkpt>
      <trkpt lat="46.31928" lon="-1.07508">
        <ele>5.6</ele>
        <time>2020-06-02T13:42:27Z</time>
      </trkpt>
      <trkpt lat="46.31928" lon="-1.07507">
        <ele>5.6</ele>
        <time>2020-06-02T13:42:28Z</time>
      </trkpt>
      <trkpt lat="46.31928" lon="-1.07508">
        <ele>5.6</ele>
        <time>2020-06-02T13:42:29Z</time>
      </trkpt>
      <trkpt lat="46.31928" lon="-1.07509">
        <ele>5.6</ele>
        <time>2020-06-02T13:42:30Z</time>
      </trkpt>
      <trkpt lat="46.31927" lon="-1.07509">
        <ele>5.6</ele>
        <time>2020-06-02T13:42:31Z</time>
      </trkpt>
      <trkpt lat="46.31927" lon="-1.07509">
        <ele>5.6</ele>
        <time>2020-06-02T13:42:32Z</time>
      </trkpt>
      <trkpt lat="46.31927" lon="-1.07509">
        <ele>5.6</ele>
        <time>2020-06-02T13:42:33Z</time>
      </trkpt>
      <trkpt lat="46.31927" lon="-1.07509">
        <ele>5.6</ele>
        <time>2020-06-02T13:42:34Z</time>
      </trkpt>
      <trkpt lat="46.31927" lon="-1.07508">
        <ele>5.6</ele>
        <time>2020-06-02T13:42:35Z</time>
      </trkpt>
      <trkpt lat="46.31926" lon="-1.07508">
        <ele>5.6</ele>
        <time>2020-06-02T13:42:36Z</time>
      </trkpt>
      <trkpt lat="46.31926" lon="-1.07507">
        <ele>5.6</ele>
        <time>2020-06-02T13:42:37Z</time>
      </trkpt>
      <trkpt lat="46.31926" lon="-1.07508">
        <ele>5.6</ele>
        <time>2020-06-02T13:42:38Z</time>
      </trkpt>
      <trkpt lat="46.31925" lon="-1.07509">
        <ele>5.6</ele>
        <time>2020-06-02T13:42:39Z</time>
      </trkpt>
      <trkpt lat="46.31925" lon="-1.07509">
        <ele>5.6</ele>
        <time>2020-06-02T13:42:40Z</time>
      </trkpt>
      <trkpt lat="46.31925" lon="-1.07509">
        <ele>5.6</ele>
        <time>2020-06-02T13:42:41Z</time>
      </trkpt>
      <trkpt lat="46.31925" lon="-1.07509">
        <ele>5.6</ele>
        <time>2020-06-02T13:42:42Z</time>
      </trkpt>
      <trkpt lat="46.31925" lon="-1.07509">
        <ele>5.6</ele>
        <time>2020-06-02T13:42:43Z</time>
      </trkpt>
      <trkpt lat="46.31925" lon="-1.07509">
        <ele>5.6</ele>
        <time>2020-06-02T13:42:44Z</time>
      </trkpt>
      <trkpt lat="46.31924" lon="-1.07509">
        <ele>5.6</ele>
        <time>2020-06-02T13:42:45Z</time>
      </trkpt>
      <trkpt lat="46.31923" lon="-1.07509">
        <ele>5.6</ele>
        <time>2020-06-02T13:42:46Z</time>
      </trkpt>
      <trkpt lat="46.31923" lon="-1.07509">
        <ele>5.6</ele>
        <time>2020-06-02T13:42:47Z</time>
      </trkpt>
      <trkpt lat="46.31923" lon="-1.07509">
        <ele>5.6</ele>
        <time>2020-06-02T13:42:48Z</time>
      </trkpt>
      <trkpt lat="46.31923" lon="-1.07508">
        <ele>5.6</ele>
        <time>2020-06-02T13:42:49Z</time>
      </trkpt>
      <trkpt lat="46.31923" lon="-1.07507">
        <ele>5.6</ele>
        <time>2020-06-02T13:42:50Z</time>
      </trkpt>
      <trkpt lat="46.31923" lon="-1.07507">
        <ele>5.6</ele>
        <time>2020-06-02T13:42:51Z</time>
      </trkpt>
      <trkpt lat="46.31923" lon="-1.07507">
        <ele>5.6</ele>
        <time>2020-06-02T13:42:52Z</time>
      </trkpt>
      <trkpt lat="46.31923" lon="-1.07507">
        <ele>5.6</ele>
        <time>2020-06-02T13:42:53Z</time>
      </trkpt>
      <trkpt lat="46.31923" lon="-1.07507">
        <ele>5.6</ele>
        <time>2020-06-02T13:42:54Z</time>
      </trkpt>
      <trkpt lat="46.31923" lon="-1.07507">
        <ele>5.6</ele>
        <time>2020-06-02T13:42:55Z</time>
      </trkpt>
      <trkpt lat="46.31923" lon="-1.07507">
        <ele>5.6</ele>
        <time>2020-06-02T13:42:56Z</time>
      </trkpt>
      <trkpt lat="46.31922" lon="-1.07506">
        <ele>5.6</ele>
        <time>2020-06-02T13:42:57Z</time>
      </trkpt>
      <trkpt lat="46.31923" lon="-1.07506">
        <ele>5.6</ele>
        <time>2020-06-02T13:42:58Z</time>
      </trkpt>
      <trkpt lat="46.31924" lon="-1.07506">
        <ele>5.6</ele>
        <time>2020-06-02T13:42:59Z</time>
      </trkpt>
      <trkpt lat="46.31924" lon="-1.07506">
        <ele>5.6</ele>
        <time>2020-06-02T13:43:00Z</time>
      </trkpt>
      <trkpt lat="46.31926" lon="-1.07506">
        <ele>5.6</ele>
        <time>2020-06-02T13:43:01Z</time>
      </trkpt>
      <trkpt lat="46.31926" lon="-1.07506">
        <ele>5.6</ele>
        <time>2020-06-02T13:43:02Z</time>
      </trkpt>
      <trkpt lat="46.31926" lon="-1.07506">
        <ele>5.6</ele>
        <time>2020-06-02T13:43:03Z</time>
      </trkpt>
      <trkpt lat="46.31926" lon="-1.07507">
        <ele>5.6</ele>
        <time>2020-06-02T13:43:04Z</time>
      </trkpt>
      <trkpt lat="46.31925" lon="-1.07505">
        <ele>5.6</ele>
        <time>2020-06-02T13:43:05Z</time>
      </trkpt>
      <trkpt lat="46.31925" lon="-1.07505">
        <ele>5.6</ele>
        <time>2020-06-02T13:43:06Z</time>
      </trkpt>
      <trkpt lat="46.31925" lon="-1.07505">
        <ele>5.6</ele>
        <time>2020-06-02T13:43:07Z</time>
      </trkpt>
      <trkpt lat="46.31924" lon="-1.07506">
        <ele>5.6</ele>
        <time>2020-06-02T13:43:08Z</time>
      </trkpt>
      <trkpt lat="46.31925" lon="-1.07507">
        <ele>5.6</ele>
        <time>2020-06-02T13:43:09Z</time>
      </trkpt>
      <trkpt lat="46.31925" lon="-1.07508">
        <ele>5.6</ele>
        <time>2020-06-02T13:43:10Z</time>
      </trkpt>
      <trkpt lat="46.31923" lon="-1.07507">
        <ele>5.6</ele>
        <time>2020-06-02T13:43:11Z</time>
      </trkpt>
      <trkpt lat="46.31924" lon="-1.07508">
        <ele>5.6</ele>
        <time>2020-06-02T13:43:12Z</time>
      </trkpt>
      <trkpt lat="46.31924" lon="-1.07509">
        <ele>5.6</ele>
        <time>2020-06-02T13:43:13Z</time>
      </trkpt>
      <trkpt lat="46.31924" lon="-1.07509">
        <ele>5.6</ele>
        <time>2020-06-02T13:43:14Z</time>
      </trkpt>
      <trkpt lat="46.31924" lon="-1.07509">
        <ele>5.6</ele>
        <time>2020-06-02T13:43:15Z</time>
      </trkpt>
      <trkpt lat="46.31924" lon="-1.07509">
        <ele>5.6</ele>
        <time>2020-06-02T13:43:16Z</time>
      </trkpt>
      <trkpt lat="46.31924" lon="-1.07509">
        <ele>5.6</ele>
        <time>2020-06-02T13:43:17Z</time>
      </trkpt>
      <trkpt lat="46.31923" lon="-1.07509">
        <ele>5.6</ele>
        <time>2020-06-02T13:43:18Z</time>
      </trkpt>
      <trkpt lat="46.31923" lon="-1.07508">
        <ele>5.6</ele>
        <time>2020-06-02T13:43:19Z</time>
      </trkpt>
      <trkpt lat="46.31923" lon="-1.07508">
        <ele>5.6</ele>
        <time>2020-06-02T13:43:20Z</time>
      </trkpt>
      <trkpt lat="46.31923" lon="-1.07508">
        <ele>5.6</ele>
        <time>2020-06-02T13:43:21Z</time>
      </trkpt>
      <trkpt lat="46.31923" lon="-1.07508">
        <ele>5.6</ele>
        <time>2020-06-02T13:43:22Z</time>
      </trkpt>
      <trkpt lat="46.31923" lon="-1.07508">
        <ele>5.6</ele>
        <time>2020-06-02T13:43:23Z</time>
      </trkpt>
      <trkpt lat="46.31923" lon="-1.07508">
        <ele>5.6</ele>
        <time>2020-06-02T13:43:24Z</time>
      </trkpt>
      <trkpt lat="46.31923" lon="-1.07508">
        <ele>5.6</ele>
        <time>2020-06-02T13:43:25Z</time>
      </trkpt>
      <trkpt lat="46.31923" lon="-1.07508">
        <ele>5.6</ele>
        <time>2020-06-02T13:43:26Z</time>
      </trkpt>
      <trkpt lat="46.31923" lon="-1.07508">
        <ele>5.6</ele>
        <time>2020-06-02T13:43:27Z</time>
      </trkpt>
      <trkpt lat="46.31924" lon="-1.07508">
        <ele>5.6</ele>
        <time>2020-06-02T13:43:28Z</time>
      </trkpt>
      <trkpt lat="46.31924" lon="-1.07508">
        <ele>5.6</ele>
        <time>2020-06-02T13:43:29Z</time>
      </trkpt>
      <trkpt lat="46.31924" lon="-1.07508">
        <ele>5.6</ele>
        <time>2020-06-02T13:43:30Z</time>
      </trkpt>
      <trkpt lat="46.31924" lon="-1.07508">
        <ele>5.6</ele>
        <time>2020-06-02T13:43:31Z</time>
      </trkpt>
      <trkpt lat="46.31924" lon="-1.07508">
        <ele>5.6</ele>
        <time>2020-06-02T13:43:32Z</time>
      </trkpt>
      <trkpt lat="46.31924" lon="-1.07508">
        <ele>5.6</ele>
        <time>2020-06-02T13:43:33Z</time>
      </trkpt>
      <trkpt lat="46.31924" lon="-1.07508">
        <ele>5.6</ele>
        <time>2020-06-02T13:43:34Z</time>
      </trkpt>
      <trkpt lat="46.31924" lon="-1.07508">
        <ele>5.6</ele>
        <time>2020-06-02T13:43:35Z</time>
      </trkpt>
      <trkpt lat="46.31924" lon="-1.07508">
        <ele>5.6</ele>
        <time>2020-06-02T13:43:36Z</time>
      </trkpt>
      <trkpt lat="46.31924" lon="-1.07507">
        <ele>5.6</ele>
        <time>2020-06-02T13:43:37Z</time>
      </trkpt>
      <trkpt lat="46.31924" lon="-1.07508">
        <ele>5.6</ele>
        <time>2020-06-02T13:43:38Z</time>
      </trkpt>
      <trkpt lat="46.31924" lon="-1.07508">
        <ele>5.6</ele>
        <time>2020-06-02T13:43:39Z</time>
      </trkpt>
      <trkpt lat="46.31924" lon="-1.07508">
        <ele>5.6</ele>
        <time>2020-06-02T13:43:40Z</time>
      </trkpt>
      <trkpt lat="46.31924" lon="-1.07508">
        <ele>5.6</ele>
        <time>2020-06-02T13:43:41Z</time>
      </trkpt>
      <trkpt lat="46.31924" lon="-1.07508">
        <ele>5.6</ele>
        <time>2020-06-02T13:43:42Z</time>
      </trkpt>
      <trkpt lat="46.31924" lon="-1.07508">
        <ele>5.6</ele>
        <time>2020-06-02T13:43:43Z</time>
      </trkpt>
      <trkpt lat="46.31924" lon="-1.07508">
        <ele>5.6</ele>
        <time>2020-06-02T13:43:44Z</time>
      </trkpt>
      <trkpt lat="46.31924" lon="-1.07509">
        <ele>5.6</ele>
        <time>2020-06-02T13:43:45Z</time>
      </trkpt>
      <trkpt lat="46.31924" lon="-1.07509">
        <ele>5.6</ele>
        <time>2020-06-02T13:43:46Z</time>
      </trkpt>
      <trkpt lat="46.31924" lon="-1.07509">
        <ele>5.6</ele>
        <time>2020-06-02T13:43:47Z</time>
      </trkpt>
      <trkpt lat="46.31925" lon="-1.07509">
        <ele>5.6</ele>
        <time>2020-06-02T13:43:48Z</time>
      </trkpt>
      <trkpt lat="46.31925" lon="-1.07509">
        <ele>5.6</ele>
        <time>2020-06-02T13:43:49Z</time>
      </trkpt>
      <trkpt lat="46.31925" lon="-1.07509">
        <ele>5.6</ele>
        <time>2020-06-02T13:43:50Z</time>
      </trkpt>
      <trkpt lat="46.31925" lon="-1.07509">
        <ele>5.6</ele>
        <time>2020-06-02T13:43:51Z</time>
      </trkpt>
      <trkpt lat="46.31925" lon="-1.07509">
        <ele>5.6</ele>
        <time>2020-06-02T13:43:52Z</time>
      </trkpt>
      <trkpt lat="46.31925" lon="-1.07509">
        <ele>5.6</ele>
        <time>2020-06-02T13:43:53Z</time>
      </trkpt>
      <trkpt lat="46.31925" lon="-1.07509">
        <ele>5.6</ele>
        <time>2020-06-02T13:43:54Z</time>
      </trkpt>
      <trkpt lat="46.31925" lon="-1.0751">
        <ele>5.6</ele>
        <time>2020-06-02T13:43:55Z</time>
      </trkpt>
      <trkpt lat="46.31925" lon="-1.0751">
        <ele>5.6</ele>
        <time>2020-06-02T13:43:56Z</time>
      </trkpt>
      <trkpt lat="46.31925" lon="-1.0751">
        <ele>5.6</ele>
        <time>2020-06-02T13:43:57Z</time>
      </trkpt>
      <trkpt lat="46.31925" lon="-1.0751">
        <ele>5.6</ele>
        <time>2020-06-02T13:43:58Z</time>
      </trkpt>
      <trkpt lat="46.31925" lon="-1.0751">
        <ele>5.6</ele>
        <time>2020-06-02T13:43:59Z</time>
      </trkpt>
      <trkpt lat="46.31925" lon="-1.0751">
        <ele>5.6</ele>
        <time>2020-06-02T13:44:00Z</time>
      </trkpt>
      <trkpt lat="46.31925" lon="-1.0751">
        <ele>5.6</ele>
        <time>2020-06-02T13:44:01Z</time>
      </trkpt>
      <trkpt lat="46.31925" lon="-1.07509">
        <ele>5.6</ele>
        <time>2020-06-02T13:44:02Z</time>
      </trkpt>
      <trkpt lat="46.31925" lon="-1.07509">
        <ele>5.6</ele>
        <time>2020-06-02T13:44:03Z</time>
      </trkpt>
      <trkpt lat="46.31925" lon="-1.07509">
        <ele>5.6</ele>
        <time>2020-06-02T13:44:04Z</time>
      </trkpt>
      <trkpt lat="46.31925" lon="-1.07509">
        <ele>5.6</ele>
        <time>2020-06-02T13:44:05Z</time>
      </trkpt>
      <trkpt lat="46.31925" lon="-1.07509">
        <ele>5.6</ele>
        <time>2020-06-02T13:44:06Z</time>
      </trkpt>
      <trkpt lat="46.31926" lon="-1.07509">
        <ele>5.6</ele>
        <time>2020-06-02T13:44:07Z</time>
      </trkpt>
      <trkpt lat="46.31926" lon="-1.07509">
        <ele>5.6</ele>
        <time>2020-06-02T13:44:08Z</time>
      </trkpt>
      <trkpt lat="46.31926" lon="-1.07509">
        <ele>5.6</ele>
        <time>2020-06-02T13:44:09Z</time>
      </trkpt>
      <trkpt lat="46.31926" lon="-1.07509">
        <ele>5.6</ele>
        <time>2020-06-02T13:44:10Z</time>
      </trkpt>
      <trkpt lat="46.31926" lon="-1.07509">
        <ele>5.6</ele>
        <time>2020-06-02T13:44:11Z</time>
      </trkpt>
      <trkpt lat="46.31926" lon="-1.07509">
        <ele>5.6</ele>
        <time>2020-06-02T13:44:12Z</time>
      </trkpt>
      <trkpt lat="46.31926" lon="-1.07509">
        <ele>5.6</ele>
        <time>2020-06-02T13:44:13Z</time>
      </trkpt>
      <trkpt lat="46.31926" lon="-1.07509">
        <ele>5.6</ele>
        <time>2020-06-02T13:44:14Z</time>
      </trkpt>
      <trkpt lat="46.31926" lon="-1.07509">
        <ele>5.6</ele>
        <time>2020-06-02T13:44:15Z</time>
      </trkpt>
      <trkpt lat="46.31926" lon="-1.07509">
        <ele>5.6</ele>
        <time>2020-06-02T13:44:16Z</time>
      </trkpt>
      <trkpt lat="46.31926" lon="-1.07509">
        <ele>5.6</ele>
        <time>2020-06-02T13:44:17Z</time>
      </trkpt>
      <trkpt lat="46.31926" lon="-1.07509">
        <ele>5.6</ele>
        <time>2020-06-02T13:44:18Z</time>
      </trkpt>
      <trkpt lat="46.31926" lon="-1.07509">
        <ele>5.6</ele>
        <time>2020-06-02T13:44:19Z</time>
      </trkpt>
      <trkpt lat="46.31926" lon="-1.07509">
        <ele>5.6</ele>
        <time>2020-06-02T13:44:20Z</time>
      </trkpt>
      <trkpt lat="46.31926" lon="-1.07509">
        <ele>5.6</ele>
        <time>2020-06-02T13:44:21Z</time>
      </trkpt>
      <trkpt lat="46.31926" lon="-1.07509">
        <ele>5.6</ele>
        <time>2020-06-02T13:44:22Z</time>
      </trkpt>
      <trkpt lat="46.31926" lon="-1.07509">
        <ele>5.6</ele>
        <time>2020-06-02T13:44:23Z</time>
      </trkpt>
      <trkpt lat="46.31926" lon="-1.07509">
        <ele>5.6</ele>
        <time>2020-06-02T13:44:24Z</time>
      </trkpt>
      <trkpt lat="46.31926" lon="-1.07509">
        <ele>5.6</ele>
        <time>2020-06-02T13:44:25Z</time>
      </trkpt>
      <trkpt lat="46.31926" lon="-1.07509">
        <ele>5.6</ele>
        <time>2020-06-02T13:44:26Z</time>
      </trkpt>
      <trkpt lat="46.31926" lon="-1.07509">
        <ele>5.6</ele>
        <time>2020-06-02T13:44:27Z</time>
      </trkpt>
      <trkpt lat="46.31926" lon="-1.07509">
        <ele>5.6</ele>
        <time>2020-06-02T13:44:28Z</time>
      </trkpt>
      <trkpt lat="46.31926" lon="-1.07509">
        <ele>5.6</ele>
        <time>2020-06-02T13:44:29Z</time>
      </trkpt>
      <trkpt lat="46.31926" lon="-1.07509">
        <ele>5.6</ele>
        <time>2020-06-02T13:44:30Z</time>
      </trkpt>
      <trkpt lat="46.31926" lon="-1.07509">
        <ele>5.6</ele>
        <time>2020-06-02T13:44:31Z</time>
      </trkpt>
      <trkpt lat="46.31926" lon="-1.07509">
        <ele>5.6</ele>
        <time>2020-06-02T13:44:32Z</time>
      </trkpt>
      <trkpt lat="46.31926" lon="-1.07509">
        <ele>5.6</ele>
        <time>2020-06-02T13:44:33Z</time>
      </trkpt>
      <trkpt lat="46.31927" lon="-1.07507">
        <ele>5.6</ele>
        <time>2020-06-02T13:44:34Z</time>
      </trkpt>
      <trkpt lat="46.31927" lon="-1.07505">
        <ele>5.6</ele>
        <time>2020-06-02T13:44:35Z</time>
      </trkpt>
      <trkpt lat="46.31927" lon="-1.07503">
        <ele>5.6</ele>
        <time>2020-06-02T13:44:36Z</time>
      </trkpt>
      <trkpt lat="46.31928" lon="-1.07502">
        <ele>5.6</ele>
        <time>2020-06-02T13:44:37Z</time>
      </trkpt>
      <trkpt lat="46.31929" lon="-1.07499">
        <ele>5.6</ele>
        <time>2020-06-02T13:44:38Z</time>
      </trkpt>
      <trkpt lat="46.31929" lon="-1.07497">
        <ele>5.6</ele>
        <time>2020-06-02T13:44:39Z</time>
      </trkpt>
      <trkpt lat="46.3193" lon="-1.07494">
        <ele>5.6</ele>
        <time>2020-06-02T13:44:40Z</time>
      </trkpt>
      <trkpt lat="46.3193" lon="-1.07493">
        <ele>5.6</ele>
        <time>2020-06-02T13:44:41Z</time>
      </trkpt>
      <trkpt lat="46.3193" lon="-1.07492">
        <ele>5.6</ele>
        <time>2020-06-02T13:44:42Z</time>
      </trkpt>
      <trkpt lat="46.3193" lon="-1.07492">
        <ele>5.6</ele>
        <time>2020-06-02T13:44:43Z</time>
      </trkpt>
      <trkpt lat="46.3193" lon="-1.07491">
        <ele>5.6</ele>
        <time>2020-06-02T13:44:44Z</time>
      </trkpt>
      <trkpt lat="46.3193" lon="-1.07491">
        <ele>5.6</ele>
        <time>2020-06-02T13:44:45Z</time>
      </trkpt>
      <trkpt lat="46.3193" lon="-1.07491">
        <ele>5.6</ele>
        <time>2020-06-02T13:44:46Z</time>
      </trkpt>
      <trkpt lat="46.3193" lon="-1.07491">
        <ele>5.6</ele>
        <time>2020-06-02T13:44:47Z</time>
      </trkpt>
      <trkpt lat="46.3193" lon="-1.07491">
        <ele>5.6</ele>
        <time>2020-06-02T13:44:48Z</time>
      </trkpt>
      <trkpt lat="46.3193" lon="-1.07491">
        <ele>5.6</ele>
        <time>2020-06-02T13:44:49Z</time>
      </trkpt>
      <trkpt lat="46.3193" lon="-1.0749">
        <ele>5.6</ele>
        <time>2020-06-02T13:44:50Z</time>
      </trkpt>
      <trkpt lat="46.3193" lon="-1.0749">
        <ele>5.6</ele>
        <time>2020-06-02T13:44:51Z</time>
      </trkpt>
      <trkpt lat="46.3193" lon="-1.0749">
        <ele>5.6</ele>
        <time>2020-06-02T13:44:52Z</time>
      </trkpt>
      <trkpt lat="46.3193" lon="-1.0749">
        <ele>5.6</ele>
        <time>2020-06-02T13:44:53Z</time>
      </trkpt>
      <trkpt lat="46.3193" lon="-1.0749">
        <ele>5.6</ele>
        <time>2020-06-02T13:44:54Z</time>
      </trkpt>
      <trkpt lat="46.3193" lon="-1.0749">
        <ele>5.6</ele>
        <time>2020-06-02T13:44:55Z</time>
      </trkpt>
      <trkpt lat="46.3193" lon="-1.0749">
        <ele>5.6</ele>
        <time>2020-06-02T13:44:56Z</time>
      </trkpt>
      <trkpt lat="46.3193" lon="-1.0749">
        <ele>5.6</ele>
        <time>2020-06-02T13:44:57Z</time>
      </trkpt>
      <trkpt lat="46.3193" lon="-1.0749">
        <ele>5.6</ele>
        <time>2020-06-02T13:44:58Z</time>
      </trkpt>
      <trkpt lat="46.3193" lon="-1.0749">
        <ele>5.6</ele>
        <time>2020-06-02T13:44:59Z</time>
      </trkpt>
      <trkpt lat="46.3193" lon="-1.0749">
        <ele>5.6</ele>
        <time>2020-06-02T13:45:00Z</time>
      </trkpt>
      <trkpt lat="46.3193" lon="-1.0749">
        <ele>5.6</ele>
        <time>2020-06-02T13:45:01Z</time>
      </trkpt>
      <trkpt lat="46.3193" lon="-1.0749">
        <ele>5.6</ele>
        <time>2020-06-02T13:45:02Z</time>
      </trkpt>
      <trkpt lat="46.3193" lon="-1.0749">
        <ele>5.6</ele>
        <time>2020-06-02T13:45:03Z</time>
      </trkpt>
      <trkpt lat="46.3193" lon="-1.0749">
        <ele>5.6</ele>
        <time>2020-06-02T13:45:04Z</time>
      </trkpt>
      <trkpt lat="46.3193" lon="-1.0749">
        <ele>5.6</ele>
        <time>2020-06-02T13:45:05Z</time>
      </trkpt>
      <trkpt lat="46.3193" lon="-1.0749">
        <ele>5.6</ele>
        <time>2020-06-02T13:45:06Z</time>
      </trkpt>
      <trkpt lat="46.3193" lon="-1.0749">
        <ele>5.6</ele>
        <time>2020-06-02T13:45:07Z</time>
      </trkpt>
      <trkpt lat="46.3193" lon="-1.0749">
        <ele>5.6</ele>
        <time>2020-06-02T13:45:08Z</time>
      </trkpt>
      <trkpt lat="46.3193" lon="-1.0749">
        <ele>5.6</ele>
        <time>2020-06-02T13:45:09Z</time>
      </trkpt>
      <trkpt lat="46.3193" lon="-1.07489">
        <ele>5.6</ele>
        <time>2020-06-02T13:45:10Z</time>
      </trkpt>
      <trkpt lat="46.3193" lon="-1.07489">
        <ele>5.6</ele>
        <time>2020-06-02T13:45:11Z</time>
      </trkpt>
      <trkpt lat="46.3193" lon="-1.07489">
        <ele>5.6</ele>
        <time>2020-06-02T13:45:12Z</time>
      </trkpt>
      <trkpt lat="46.3193" lon="-1.07489">
        <ele>5.6</ele>
        <time>2020-06-02T13:45:13Z</time>
      </trkpt>
      <trkpt lat="46.3193" lon="-1.07489">
        <ele>5.6</ele>
        <time>2020-06-02T13:45:14Z</time>
      </trkpt>
      <trkpt lat="46.31929" lon="-1.07489">
        <ele>5.6</ele>
        <time>2020-06-02T13:45:15Z</time>
      </trkpt>
      <trkpt lat="46.31927" lon="-1.07488">
        <ele>5.6</ele>
        <time>2020-06-02T13:45:16Z</time>
      </trkpt>
      <trkpt lat="46.31927" lon="-1.07489">
        <ele>5.6</ele>
        <time>2020-06-02T13:45:17Z</time>
      </trkpt>
      <trkpt lat="46.31927" lon="-1.0749">
        <ele>5.6</ele>
        <time>2020-06-02T13:45:18Z</time>
      </trkpt>
      <trkpt lat="46.31927" lon="-1.0749">
        <ele>5.6</ele>
        <time>2020-06-02T13:45:19Z</time>
      </trkpt>
      <trkpt lat="46.31927" lon="-1.07491">
        <ele>5.6</ele>
        <time>2020-06-02T13:45:20Z</time>
      </trkpt>
      <trkpt lat="46.31927" lon="-1.07492">
        <ele>5.6</ele>
        <time>2020-06-02T13:45:21Z</time>
      </trkpt>
      <trkpt lat="46.31927" lon="-1.07492">
        <ele>5.6</ele>
        <time>2020-06-02T13:45:22Z</time>
      </trkpt>
      <trkpt lat="46.31927" lon="-1.07493">
        <ele>5.6</ele>
        <time>2020-06-02T13:45:23Z</time>
      </trkpt>
      <trkpt lat="46.31927" lon="-1.07494">
        <ele>5.6</ele>
        <time>2020-06-02T13:45:24Z</time>
      </trkpt>
      <trkpt lat="46.31927" lon="-1.07494">
        <ele>5.6</ele>
        <time>2020-06-02T13:45:25Z</time>
      </trkpt>
      <trkpt lat="46.31927" lon="-1.07495">
        <ele>5.6</ele>
        <time>2020-06-02T13:45:26Z</time>
      </trkpt>
      <trkpt lat="46.31927" lon="-1.075">
        <ele>5.6</ele>
        <time>2020-06-02T13:45:27Z</time>
      </trkpt>
      <trkpt lat="46.31927" lon="-1.07502">
        <ele>5.6</ele>
        <time>2020-06-02T13:45:28Z</time>
      </trkpt>
      <trkpt lat="46.31927" lon="-1.07504">
        <ele>5.6</ele>
        <time>2020-06-02T13:45:29Z</time>
      </trkpt>
      <trkpt lat="46.31927" lon="-1.07507">
        <ele>5.6</ele>
        <time>2020-06-02T13:45:30Z</time>
      </trkpt>
      <trkpt lat="46.31926" lon="-1.07509">
        <ele>5.6</ele>
        <time>2020-06-02T13:45:31Z</time>
      </trkpt>
      <trkpt lat="46.31926" lon="-1.07509">
        <ele>5.6</ele>
        <time>2020-06-02T13:45:32Z</time>
      </trkpt>
      <trkpt lat="46.31927" lon="-1.0751">
        <ele>5.6</ele>
        <time>2020-06-02T13:45:33Z</time>
      </trkpt>
      <trkpt lat="46.31927" lon="-1.07509">
        <ele>5.6</ele>
        <time>2020-06-02T13:45:34Z</time>
      </trkpt>
      <trkpt lat="46.31927" lon="-1.07509">
        <ele>5.6</ele>
        <time>2020-06-02T13:45:35Z</time>
      </trkpt>
      <trkpt lat="46.31927" lon="-1.07509">
        <ele>5.6</ele>
        <time>2020-06-02T13:45:36Z</time>
      </trkpt>
      <trkpt lat="46.31927" lon="-1.07509">
        <ele>5.6</ele>
        <time>2020-06-02T13:45:37Z</time>
      </trkpt>
      <trkpt lat="46.31927" lon="-1.07509">
        <ele>5.6</ele>
        <time>2020-06-02T13:45:38Z</time>
      </trkpt>
      <trkpt lat="46.31927" lon="-1.07509">
        <ele>5.6</ele>
        <time>2020-06-02T13:45:39Z</time>
      </trkpt>
      <trkpt lat="46.31927" lon="-1.07509">
        <ele>5.6</ele>
        <time>2020-06-02T13:45:40Z</time>
      </trkpt>
      <trkpt lat="46.31927" lon="-1.07509">
        <ele>5.6</ele>
        <time>2020-06-02T13:45:41Z</time>
      </trkpt>
      <trkpt lat="46.31927" lon="-1.07509">
        <ele>5.6</ele>
        <time>2020-06-02T13:45:42Z</time>
      </trkpt>
      <trkpt lat="46.31928" lon="-1.07509">
        <ele>5.6</ele>
        <time>2020-06-02T13:45:43Z</time>
      </trkpt>
      <trkpt lat="46.31928" lon="-1.07509">
        <ele>5.6</ele>
        <time>2020-06-02T13:45:44Z</time>
      </trkpt>
      <trkpt lat="46.31928" lon="-1.07509">
        <ele>5.6</ele>
        <time>2020-06-02T13:45:45Z</time>
      </trkpt>
      <trkpt lat="46.31928" lon="-1.07509">
        <ele>5.6</ele>
        <time>2020-06-02T13:45:46Z</time>
      </trkpt>
      <trkpt lat="46.31928" lon="-1.07509">
        <ele>5.6</ele>
        <time>2020-06-02T13:45:47Z</time>
      </trkpt>
      <trkpt lat="46.31928" lon="-1.07509">
        <ele>5.6</ele>
        <time>2020-06-02T13:45:48Z</time>
      </trkpt>
      <trkpt lat="46.31928" lon="-1.07509">
        <ele>5.6</ele>
        <time>2020-06-02T13:45:49Z</time>
      </trkpt>
      <trkpt lat="46.31928" lon="-1.07509">
        <ele>5.6</ele>
        <time>2020-06-02T13:45:50Z</time>
      </trkpt>
      <trkpt lat="46.31928" lon="-1.07509">
        <ele>5.6</ele>
        <time>2020-06-02T13:45:51Z</time>
      </trkpt>
      <trkpt lat="46.31928" lon="-1.07509">
        <ele>5.6</ele>
        <time>2020-06-02T13:45:52Z</time>
      </trkpt>
      <trkpt lat="46.31928" lon="-1.07509">
        <ele>5.6</ele>
        <time>2020-06-02T13:45:53Z</time>
      </trkpt>
      <trkpt lat="46.31928" lon="-1.07509">
        <ele>5.6</ele>
        <time>2020-06-02T13:45:54Z</time>
      </trkpt>
      <trkpt lat="46.31927" lon="-1.07509">
        <ele>5.6</ele>
        <time>2020-06-02T13:45:55Z</time>
      </trkpt>
      <trkpt lat="46.31927" lon="-1.07508">
        <ele>5.6</ele>
        <time>2020-06-02T13:45:56Z</time>
      </trkpt>
      <trkpt lat="46.31927" lon="-1.07507">
        <ele>5.6</ele>
        <time>2020-06-02T13:45:57Z</time>
      </trkpt>
      <trkpt lat="46.31926" lon="-1.07507">
        <ele>5.6</ele>
        <time>2020-06-02T13:45:58Z</time>
      </trkpt>
      <trkpt lat="46.31926" lon="-1.07506">
        <ele>5.6</ele>
        <time>2020-06-02T13:45:59Z</time>
      </trkpt>
      <trkpt lat="46.31926" lon="-1.07506">
        <ele>5.6</ele>
        <time>2020-06-02T13:46:00Z</time>
      </trkpt>
      <trkpt lat="46.31926" lon="-1.07504">
        <ele>5.6</ele>
        <time>2020-06-02T13:46:01Z</time>
      </trkpt>
      <trkpt lat="46.31925" lon="-1.07502">
        <ele>5.6</ele>
        <time>2020-06-02T13:46:02Z</time>
      </trkpt>
      <trkpt lat="46.31925" lon="-1.07499">
        <ele>5.6</ele>
        <time>2020-06-02T13:46:03Z</time>
      </trkpt>
      <trkpt lat="46.31925" lon="-1.07498">
        <ele>5.6</ele>
        <time>2020-06-02T13:46:04Z</time>
      </trkpt>
      <trkpt lat="46.31925" lon="-1.07497">
        <ele>5.6</ele>
        <time>2020-06-02T13:46:05Z</time>
      </trkpt>
      <trkpt lat="46.31926" lon="-1.07496">
        <ele>5.6</ele>
        <time>2020-06-02T13:46:06Z</time>
      </trkpt>
      <trkpt lat="46.31926" lon="-1.07495">
        <ele>5.6</ele>
        <time>2020-06-02T13:46:07Z</time>
      </trkpt>
      <trkpt lat="46.31926" lon="-1.07493">
        <ele>5.6</ele>
        <time>2020-06-02T13:46:08Z</time>
      </trkpt>
      <trkpt lat="46.31924" lon="-1.07489">
        <ele>5.6</ele>
        <time>2020-06-02T13:46:09Z</time>
      </trkpt>
      <trkpt lat="46.31924" lon="-1.07486">
        <ele>5.6</ele>
        <time>2020-06-02T13:46:10Z</time>
      </trkpt>
      <trkpt lat="46.31923" lon="-1.07485">
        <ele>5.6</ele>
        <time>2020-06-02T13:46:11Z</time>
      </trkpt>
      <trkpt lat="46.31923" lon="-1.07485">
        <ele>5.6</ele>
        <time>2020-06-02T13:46:12Z</time>
      </trkpt>
      <trkpt lat="46.31923" lon="-1.07484">
        <ele>5.6</ele>
        <time>2020-06-02T13:46:13Z</time>
      </trkpt>
      <trkpt lat="46.31923" lon="-1.07483">
        <ele>5.6</ele>
        <time>2020-06-02T13:46:14Z</time>
      </trkpt>
      <trkpt lat="46.31923" lon="-1.07483">
        <ele>5.6</ele>
        <time>2020-06-02T13:46:15Z</time>
      </trkpt>
      <trkpt lat="46.31923" lon="-1.07482">
        <ele>5.6</ele>
        <time>2020-06-02T13:46:16Z</time>
      </trkpt>
      <trkpt lat="46.31923" lon="-1.07482">
        <ele>5.6</ele>
        <time>2020-06-02T13:46:17Z</time>
      </trkpt>
      <trkpt lat="46.31923" lon="-1.07482">
        <ele>5.6</ele>
        <time>2020-06-02T13:46:18Z</time>
      </trkpt>
      <trkpt lat="46.31923" lon="-1.07482">
        <ele>5.6</ele>
        <time>2020-06-02T13:46:19Z</time>
      </trkpt>
      <trkpt lat="46.31923" lon="-1.07482">
        <ele>5.6</ele>
        <time>2020-06-02T13:46:20Z</time>
      </trkpt>
      <trkpt lat="46.31923" lon="-1.07482">
        <ele>5.6</ele>
        <time>2020-06-02T13:46:21Z</time>
      </trkpt>
      <trkpt lat="46.31923" lon="-1.07482">
        <ele>5.6</ele>
        <time>2020-06-02T13:46:22Z</time>
      </trkpt>
      <trkpt lat="46.31923" lon="-1.07482">
        <ele>5.6</ele>
        <time>2020-06-02T13:46:23Z</time>
      </trkpt>
      <trkpt lat="46.31923" lon="-1.07482">
        <ele>5.6</ele>
        <time>2020-06-02T13:46:24Z</time>
      </trkpt>
      <trkpt lat="46.31923" lon="-1.07482">
        <ele>5.6</ele>
        <time>2020-06-02T13:46:25Z</time>
      </trkpt>
      <trkpt lat="46.31923" lon="-1.07482">
        <ele>5.6</ele>
        <time>2020-06-02T13:46:26Z</time>
      </trkpt>
      <trkpt lat="46.31923" lon="-1.07482">
        <ele>5.6</ele>
        <time>2020-06-02T13:46:27Z</time>
      </trkpt>
      <trkpt lat="46.31923" lon="-1.07482">
        <ele>5.6</ele>
        <time>2020-06-02T13:46:28Z</time>
      </trkpt>
      <trkpt lat="46.31923" lon="-1.07482">
        <ele>5.6</ele>
        <time>2020-06-02T13:46:29Z</time>
      </trkpt>
      <trkpt lat="46.31923" lon="-1.07482">
        <ele>5.6</ele>
        <time>2020-06-02T13:46:30Z</time>
      </trkpt>
      <trkpt lat="46.31923" lon="-1.07482">
        <ele>5.6</ele>
        <time>2020-06-02T13:46:31Z</time>
      </trkpt>
      <trkpt lat="46.31923" lon="-1.07482">
        <ele>5.6</ele>
        <time>2020-06-02T13:46:32Z</time>
      </trkpt>
      <trkpt lat="46.31923" lon="-1.07482">
        <ele>5.6</ele>
        <time>2020-06-02T13:46:33Z</time>
      </trkpt>
      <trkpt lat="46.31923" lon="-1.07482">
        <ele>5.6</ele>
        <time>2020-06-02T13:46:34Z</time>
      </trkpt>
      <trkpt lat="46.31923" lon="-1.07482">
        <ele>5.6</ele>
        <time>2020-06-02T13:46:35Z</time>
      </trkpt>
      <trkpt lat="46.31923" lon="-1.07481">
        <ele>5.6</ele>
        <time>2020-06-02T13:46:36Z</time>
      </trkpt>
      <trkpt lat="46.31923" lon="-1.07481">
        <ele>5.6</ele>
        <time>2020-06-02T13:46:37Z</time>
      </trkpt>
      <trkpt lat="46.31923" lon="-1.07481">
        <ele>5.6</ele>
        <time>2020-06-02T13:46:38Z</time>
      </trkpt>
      <trkpt lat="46.31923" lon="-1.07481">
        <ele>5.6</ele>
        <time>2020-06-02T13:46:39Z</time>
      </trkpt>
      <trkpt lat="46.31923" lon="-1.07481">
        <ele>5.6</ele>
        <time>2020-06-02T13:46:40Z</time>
      </trkpt>
      <trkpt lat="46.31923" lon="-1.07481">
        <ele>5.6</ele>
        <time>2020-06-02T13:46:41Z</time>
      </trkpt>
      <trkpt lat="46.31923" lon="-1.07481">
        <ele>5.6</ele>
        <time>2020-06-02T13:46:42Z</time>
      </trkpt>
      <trkpt lat="46.31923" lon="-1.07481">
        <ele>5.6</ele>
        <time>2020-06-02T13:46:43Z</time>
      </trkpt>
      <trkpt lat="46.31923" lon="-1.07481">
        <ele>5.6</ele>
        <time>2020-06-02T13:46:44Z</time>
      </trkpt>
      <trkpt lat="46.31923" lon="-1.07481">
        <ele>5.6</ele>
        <time>2020-06-02T13:46:45Z</time>
      </trkpt>
      <trkpt lat="46.31923" lon="-1.07481">
        <ele>5.6</ele>
        <time>2020-06-02T13:46:46Z</time>
      </trkpt>
      <trkpt lat="46.31923" lon="-1.07482">
        <ele>5.6</ele>
        <time>2020-06-02T13:46:47Z</time>
      </trkpt>
      <trkpt lat="46.31922" lon="-1.07482">
        <ele>5.6</ele>
        <time>2020-06-02T13:46:48Z</time>
      </trkpt>
      <trkpt lat="46.31923" lon="-1.0748">
        <ele>5.6</ele>
        <time>2020-06-02T13:46:49Z</time>
      </trkpt>
      <trkpt lat="46.31923" lon="-1.0748">
        <ele>5.6</ele>
        <time>2020-06-02T13:46:50Z</time>
      </trkpt>
      <trkpt lat="46.31922" lon="-1.0748">
        <ele>5.6</ele>
        <time>2020-06-02T13:46:51Z</time>
      </trkpt>
      <trkpt lat="46.31922" lon="-1.0748">
        <ele>5.6</ele>
        <time>2020-06-02T13:46:52Z</time>
      </trkpt>
      <trkpt lat="46.31922" lon="-1.0748">
        <ele>5.6</ele>
        <time>2020-06-02T13:46:53Z</time>
      </trkpt>
      <trkpt lat="46.31922" lon="-1.0748">
        <ele>5.6</ele>
        <time>2020-06-02T13:46:54Z</time>
      </trkpt>
      <trkpt lat="46.31922" lon="-1.0748">
        <ele>5.6</ele>
        <time>2020-06-02T13:46:55Z</time>
      </trkpt>
      <trkpt lat="46.31922" lon="-1.0748">
        <ele>5.6</ele>
        <time>2020-06-02T13:46:56Z</time>
      </trkpt>
      <trkpt lat="46.31922" lon="-1.0748">
        <ele>5.6</ele>
        <time>2020-06-02T13:46:57Z</time>
      </trkpt>
      <trkpt lat="46.31922" lon="-1.0748">
        <ele>5.6</ele>
        <time>2020-06-02T13:46:58Z</time>
      </trkpt>
      <trkpt lat="46.31922" lon="-1.0748">
        <ele>5.6</ele>
        <time>2020-06-02T13:46:59Z</time>
      </trkpt>
      <trkpt lat="46.31922" lon="-1.0748">
        <ele>5.6</ele>
        <time>2020-06-02T13:47:00Z</time>
      </trkpt>
      <trkpt lat="46.31922" lon="-1.0748">
        <ele>5.6</ele>
        <time>2020-06-02T13:47:01Z</time>
      </trkpt>
      <trkpt lat="46.31923" lon="-1.0748">
        <ele>5.6</ele>
        <time>2020-06-02T13:47:02Z</time>
      </trkpt>
      <trkpt lat="46.31923" lon="-1.07481">
        <ele>5.6</ele>
        <time>2020-06-02T13:47:03Z</time>
      </trkpt>
      <trkpt lat="46.31922" lon="-1.07483">
        <ele>5.6</ele>
        <time>2020-06-02T13:47:04Z</time>
      </trkpt>
      <trkpt lat="46.31922" lon="-1.07484">
        <ele>5.6</ele>
        <time>2020-06-02T13:47:05Z</time>
      </trkpt>
      <trkpt lat="46.31923" lon="-1.07488">
        <ele>5.6</ele>
        <time>2020-06-02T13:47:06Z</time>
      </trkpt>
      <trkpt lat="46.31924" lon="-1.0749">
        <ele>5.6</ele>
        <time>2020-06-02T13:47:07Z</time>
      </trkpt>
      <trkpt lat="46.31925" lon="-1.07492">
        <ele>5.6</ele>
        <time>2020-06-02T13:47:08Z</time>
      </trkpt>
      <trkpt lat="46.31925" lon="-1.07494">
        <ele>5.6</ele>
        <time>2020-06-02T13:47:09Z</time>
      </trkpt>
      <trkpt lat="46.31926" lon="-1.07498">
        <ele>5.6</ele>
        <time>2020-06-02T13:47:10Z</time>
      </trkpt>
      <trkpt lat="46.31926" lon="-1.07499">
        <ele>5.6</ele>
        <time>2020-06-02T13:47:11Z</time>
      </trkpt>
      <trkpt lat="46.31925" lon="-1.07503">
        <ele>5.6</ele>
        <time>2020-06-02T13:47:12Z</time>
      </trkpt>
      <trkpt lat="46.31925" lon="-1.07503">
        <ele>5.6</ele>
        <time>2020-06-02T13:47:13Z</time>
      </trkpt>
      <trkpt lat="46.31925" lon="-1.07504">
        <ele>5.6</ele>
        <time>2020-06-02T13:47:14Z</time>
      </trkpt>
      <trkpt lat="46.31925" lon="-1.07507">
        <ele>5.6</ele>
        <time>2020-06-02T13:47:15Z</time>
      </trkpt>
      <trkpt lat="46.31925" lon="-1.07509">
        <ele>5.6</ele>
        <time>2020-06-02T13:47:16Z</time>
      </trkpt>
      <trkpt lat="46.31925" lon="-1.0751">
        <ele>5.6</ele>
        <time>2020-06-02T13:47:17Z</time>
      </trkpt>
      <trkpt lat="46.31924" lon="-1.0751">
        <ele>5.6</ele>
        <time>2020-06-02T13:47:18Z</time>
      </trkpt>
      <trkpt lat="46.31925" lon="-1.0751">
        <ele>5.6</ele>
        <time>2020-06-02T13:47:19Z</time>
      </trkpt>
      <trkpt lat="46.31925" lon="-1.0751">
        <ele>5.6</ele>
        <time>2020-06-02T13:47:20Z</time>
      </trkpt>
      <trkpt lat="46.31925" lon="-1.0751">
        <ele>5.6</ele>
        <time>2020-06-02T13:47:21Z</time>
      </trkpt>
      <trkpt lat="46.31925" lon="-1.0751">
        <ele>5.6</ele>
        <time>2020-06-02T13:47:22Z</time>
      </trkpt>
      <trkpt lat="46.31926" lon="-1.07509">
        <ele>5.6</ele>
        <time>2020-06-02T13:47:23Z</time>
      </trkpt>
      <trkpt lat="46.31926" lon="-1.07507">
        <ele>5.6</ele>
        <time>2020-06-02T13:47:24Z</time>
      </trkpt>
      <trkpt lat="46.31926" lon="-1.07506">
        <ele>5.6</ele>
        <time>2020-06-02T13:47:25Z</time>
      </trkpt>
      <trkpt lat="46.31926" lon="-1.07506">
        <ele>5.6</ele>
        <time>2020-06-02T13:47:26Z</time>
      </trkpt>
      <trkpt lat="46.31927" lon="-1.07505">
        <ele>5.6</ele>
        <time>2020-06-02T13:47:27Z</time>
      </trkpt>
      <trkpt lat="46.31927" lon="-1.07503">
        <ele>5.6</ele>
        <time>2020-06-02T13:47:28Z</time>
      </trkpt>
      <trkpt lat="46.31927" lon="-1.07503">
        <ele>5.6</ele>
        <time>2020-06-02T13:47:29Z</time>
      </trkpt>
      <trkpt lat="46.31927" lon="-1.07502">
        <ele>5.6</ele>
        <time>2020-06-02T13:47:30Z</time>
      </trkpt>
      <trkpt lat="46.31927" lon="-1.07502">
        <ele>5.6</ele>
        <time>2020-06-02T13:47:31Z</time>
      </trkpt>
      <trkpt lat="46.31927" lon="-1.07501">
        <ele>5.6</ele>
        <time>2020-06-02T13:47:32Z</time>
      </trkpt>
      <trkpt lat="46.31927" lon="-1.07501">
        <ele>5.6</ele>
        <time>2020-06-02T13:47:33Z</time>
      </trkpt>
      <trkpt lat="46.31927" lon="-1.075">
        <ele>5.6</ele>
        <time>2020-06-02T13:47:34Z</time>
      </trkpt>
      <trkpt lat="46.31926" lon="-1.07499">
        <ele>5.6</ele>
        <time>2020-06-02T13:47:35Z</time>
      </trkpt>
      <trkpt lat="46.31926" lon="-1.07499">
        <ele>5.6</ele>
        <time>2020-06-02T13:47:36Z</time>
      </trkpt>
      <trkpt lat="46.31926" lon="-1.07497">
        <ele>5.6</ele>
        <time>2020-06-02T13:47:37Z</time>
      </trkpt>
      <trkpt lat="46.31927" lon="-1.07495">
        <ele>5.6</ele>
        <time>2020-06-02T13:47:38Z</time>
      </trkpt>
      <trkpt lat="46.31927" lon="-1.07495">
        <ele>5.6</ele>
        <time>2020-06-02T13:47:39Z</time>
      </trkpt>
      <trkpt lat="46.31927" lon="-1.07495">
        <ele>5.6</ele>
        <time>2020-06-02T13:47:40Z</time>
      </trkpt>
      <trkpt lat="46.31927" lon="-1.07495">
        <ele>5.6</ele>
        <time>2020-06-02T13:47:41Z</time>
      </trkpt>
      <trkpt lat="46.31927" lon="-1.07495">
        <ele>5.6</ele>
        <time>2020-06-02T13:47:42Z</time>
      </trkpt>
      <trkpt lat="46.31927" lon="-1.07494">
        <ele>5.6</ele>
        <time>2020-06-02T13:47:43Z</time>
      </trkpt>
      <trkpt lat="46.31927" lon="-1.07493">
        <ele>5.6</ele>
        <time>2020-06-02T13:47:44Z</time>
      </trkpt>
      <trkpt lat="46.31928" lon="-1.07491">
        <ele>5.6</ele>
        <time>2020-06-02T13:47:45Z</time>
      </trkpt>
      <trkpt lat="46.31928" lon="-1.0749">
        <ele>5.6</ele>
        <time>2020-06-02T13:47:46Z</time>
      </trkpt>
      <trkpt lat="46.31929" lon="-1.07489">
        <ele>5.6</ele>
        <time>2020-06-02T13:47:47Z</time>
      </trkpt>
      <trkpt lat="46.31929" lon="-1.07489">
        <ele>5.6</ele>
        <time>2020-06-02T13:47:48Z</time>
      </trkpt>
      <trkpt lat="46.31929" lon="-1.07488">
        <ele>5.6</ele>
        <time>2020-06-02T13:47:49Z</time>
      </trkpt>
      <trkpt lat="46.31929" lon="-1.07488">
        <ele>5.6</ele>
        <time>2020-06-02T13:47:50Z</time>
      </trkpt>
      <trkpt lat="46.31929" lon="-1.07488">
        <ele>5.6</ele>
        <time>2020-06-02T13:47:51Z</time>
      </trkpt>
      <trkpt lat="46.31929" lon="-1.07488">
        <ele>5.6</ele>
        <time>2020-06-02T13:47:52Z</time>
      </trkpt>
      <trkpt lat="46.31929" lon="-1.07488">
        <ele>5.6</ele>
        <time>2020-06-02T13:47:53Z</time>
      </trkpt>
      <trkpt lat="46.31929" lon="-1.07488">
        <ele>5.6</ele>
        <time>2020-06-02T13:47:54Z</time>
      </trkpt>
      <trkpt lat="46.31929" lon="-1.07488">
        <ele>5.6</ele>
        <time>2020-06-02T13:47:55Z</time>
      </trkpt>
      <trkpt lat="46.31929" lon="-1.07487">
        <ele>5.6</ele>
        <time>2020-06-02T13:47:56Z</time>
      </trkpt>
      <trkpt lat="46.31929" lon="-1.07487">
        <ele>5.6</ele>
        <time>2020-06-02T13:47:57Z</time>
      </trkpt>
      <trkpt lat="46.31929" lon="-1.07487">
        <ele>5.6</ele>
        <time>2020-06-02T13:47:58Z</time>
      </trkpt>
      <trkpt lat="46.31929" lon="-1.07487">
        <ele>5.6</ele>
        <time>2020-06-02T13:47:59Z</time>
      </trkpt>
      <trkpt lat="46.31929" lon="-1.07487">
        <ele>5.6</ele>
        <time>2020-06-02T13:48:00Z</time>
      </trkpt>
      <trkpt lat="46.31929" lon="-1.07487">
        <ele>5.6</ele>
        <time>2020-06-02T13:48:01Z</time>
      </trkpt>
      <trkpt lat="46.31929" lon="-1.07487">
        <ele>5.6</ele>
        <time>2020-06-02T13:48:02Z</time>
      </trkpt>
      <trkpt lat="46.31929" lon="-1.07487">
        <ele>5.6</ele>
        <time>2020-06-02T13:48:03Z</time>
      </trkpt>
      <trkpt lat="46.31929" lon="-1.07487">
        <ele>5.6</ele>
        <time>2020-06-02T13:48:04Z</time>
      </trkpt>
      <trkpt lat="46.31929" lon="-1.07487">
        <ele>5.6</ele>
        <time>2020-06-02T13:48:05Z</time>
      </trkpt>
      <trkpt lat="46.31929" lon="-1.07487">
        <ele>5.6</ele>
        <time>2020-06-02T13:48:06Z</time>
      </trkpt>
      <trkpt lat="46.31929" lon="-1.07487">
        <ele>5.6</ele>
        <time>2020-06-02T13:48:07Z</time>
      </trkpt>
      <trkpt lat="46.31929" lon="-1.07487">
        <ele>5.6</ele>
        <time>2020-06-02T13:48:08Z</time>
      </trkpt>
      <trkpt lat="46.31929" lon="-1.07487">
        <ele>5.6</ele>
        <time>2020-06-02T13:48:09Z</time>
      </trkpt>
      <trkpt lat="46.31929" lon="-1.07487">
        <ele>5.6</ele>
        <time>2020-06-02T13:48:10Z</time>
      </trkpt>
      <trkpt lat="46.31929" lon="-1.07488">
        <ele>5.6</ele>
        <time>2020-06-02T13:48:11Z</time>
      </trkpt>
      <trkpt lat="46.3193" lon="-1.07489">
        <ele>5.6</ele>
        <time>2020-06-02T13:48:12Z</time>
      </trkpt>
      <trkpt lat="46.3193" lon="-1.07491">
        <ele>5.6</ele>
        <time>2020-06-02T13:48:13Z</time>
      </trkpt>
      <trkpt lat="46.3193" lon="-1.07492">
        <ele>5.6</ele>
        <time>2020-06-02T13:48:14Z</time>
      </trkpt>
      <trkpt lat="46.3193" lon="-1.07493">
        <ele>5.6</ele>
        <time>2020-06-02T13:48:15Z</time>
      </trkpt>
      <trkpt lat="46.31929" lon="-1.07494">
        <ele>5.6</ele>
        <time>2020-06-02T13:48:16Z</time>
      </trkpt>
      <trkpt lat="46.31929" lon="-1.07495">
        <ele>5.6</ele>
        <time>2020-06-02T13:48:17Z</time>
      </trkpt>
      <trkpt lat="46.31929" lon="-1.07496">
        <ele>5.6</ele>
        <time>2020-06-02T13:48:18Z</time>
      </trkpt>
      <trkpt lat="46.31928" lon="-1.07497">
        <ele>5.6</ele>
        <time>2020-06-02T13:48:19Z</time>
      </trkpt>
      <trkpt lat="46.31928" lon="-1.07498">
        <ele>5.6</ele>
        <time>2020-06-02T13:48:20Z</time>
      </trkpt>
      <trkpt lat="46.31927" lon="-1.07501">
        <ele>5.6</ele>
        <time>2020-06-02T13:48:21Z</time>
      </trkpt>
      <trkpt lat="46.31928" lon="-1.07502">
        <ele>5.6</ele>
        <time>2020-06-02T13:48:22Z</time>
      </trkpt>
      <trkpt lat="46.31928" lon="-1.07504">
        <ele>5.6</ele>
        <time>2020-06-02T13:48:23Z</time>
      </trkpt>
      <trkpt lat="46.31927" lon="-1.07505">
        <ele>5.6</ele>
        <time>2020-06-02T13:48:24Z</time>
      </trkpt>
      <trkpt lat="46.31926" lon="-1.07505">
        <ele>5.6</ele>
        <time>2020-06-02T13:48:25Z</time>
      </trkpt>
      <trkpt lat="46.31926" lon="-1.07505">
        <ele>5.6</ele>
        <time>2020-06-02T13:48:26Z</time>
      </trkpt>
      <trkpt lat="46.31926" lon="-1.07505">
        <ele>5.6</ele>
        <time>2020-06-02T13:48:27Z</time>
      </trkpt>
      <trkpt lat="46.31926" lon="-1.07505">
        <ele>5.6</ele>
        <time>2020-06-02T13:48:28Z</time>
      </trkpt>
      <trkpt lat="46.31926" lon="-1.07504">
        <ele>5.6</ele>
        <time>2020-06-02T13:48:29Z</time>
      </trkpt>
      <trkpt lat="46.31926" lon="-1.07504">
        <ele>5.6</ele>
        <time>2020-06-02T13:48:30Z</time>
      </trkpt>
      <trkpt lat="46.31926" lon="-1.07504">
        <ele>5.6</ele>
        <time>2020-06-02T13:48:31Z</time>
      </trkpt>
      <trkpt lat="46.31926" lon="-1.07503">
        <ele>5.6</ele>
        <time>2020-06-02T13:48:32Z</time>
      </trkpt>
      <trkpt lat="46.31926" lon="-1.07503">
        <ele>5.6</ele>
        <time>2020-06-02T13:48:33Z</time>
      </trkpt>
      <trkpt lat="46.31926" lon="-1.07502">
        <ele>5.6</ele>
        <time>2020-06-02T13:48:34Z</time>
      </trkpt>
      <trkpt lat="46.31926" lon="-1.07502">
        <ele>5.6</ele>
        <time>2020-06-02T13:48:35Z</time>
      </trkpt>
      <trkpt lat="46.31926" lon="-1.07502">
        <ele>5.6</ele>
        <time>2020-06-02T13:48:36Z</time>
      </trkpt>
      <trkpt lat="46.31926" lon="-1.07503">
        <ele>5.6</ele>
        <time>2020-06-02T13:48:37Z</time>
      </trkpt>
      <trkpt lat="46.31926" lon="-1.07504">
        <ele>5.6</ele>
        <time>2020-06-02T13:48:38Z</time>
      </trkpt>
      <trkpt lat="46.31926" lon="-1.07506">
        <ele>5.6</ele>
        <time>2020-06-02T13:48:39Z</time>
      </trkpt>
      <trkpt lat="46.31926" lon="-1.07506">
        <ele>5.6</ele>
        <time>2020-06-02T13:48:40Z</time>
      </trkpt>
      <trkpt lat="46.31926" lon="-1.07507">
        <ele>5.6</ele>
        <time>2020-06-02T13:48:41Z</time>
      </trkpt>
      <trkpt lat="46.31926" lon="-1.07507">
        <ele>5.6</ele>
        <time>2020-06-02T13:48:42Z</time>
      </trkpt>
      <trkpt lat="46.31926" lon="-1.07507">
        <ele>5.6</ele>
        <time>2020-06-02T13:48:43Z</time>
      </trkpt>
      <trkpt lat="46.31926" lon="-1.07506">
        <ele>5.6</ele>
        <time>2020-06-02T13:48:44Z</time>
      </trkpt>
      <trkpt lat="46.31926" lon="-1.07506">
        <ele>5.6</ele>
        <time>2020-06-02T13:48:45Z</time>
      </trkpt>
      <trkpt lat="46.31926" lon="-1.07507">
        <ele>5.6</ele>
        <time>2020-06-02T13:48:46Z</time>
      </trkpt>
      <trkpt lat="46.31926" lon="-1.07506">
        <ele>5.6</ele>
        <time>2020-06-02T13:48:47Z</time>
      </trkpt>
      <trkpt lat="46.31926" lon="-1.07506">
        <ele>5.6</ele>
        <time>2020-06-02T13:48:48Z</time>
      </trkpt>
      <trkpt lat="46.31926" lon="-1.07506">
        <ele>5.6</ele>
        <time>2020-06-02T13:48:49Z</time>
      </trkpt>
      <trkpt lat="46.31926" lon="-1.07507">
        <ele>5.6</ele>
        <time>2020-06-02T13:48:50Z</time>
      </trkpt>
      <trkpt lat="46.31926" lon="-1.07507">
        <ele>5.6</ele>
        <time>2020-06-02T13:48:51Z</time>
      </trkpt>
      <trkpt lat="46.31926" lon="-1.07507">
        <ele>5.6</ele>
        <time>2020-06-02T13:48:52Z</time>
      </trkpt>
      <trkpt lat="46.31926" lon="-1.07507">
        <ele>5.6</ele>
        <time>2020-06-02T13:48:53Z</time>
      </trkpt>
      <trkpt lat="46.31926" lon="-1.07507">
        <ele>5.6</ele>
        <time>2020-06-02T13:48:54Z</time>
      </trkpt>
      <trkpt lat="46.31926" lon="-1.07507">
        <ele>5.6</ele>
        <time>2020-06-02T13:48:55Z</time>
      </trkpt>
      <trkpt lat="46.31926" lon="-1.07507">
        <ele>5.6</ele>
        <time>2020-06-02T13:48:56Z</time>
      </trkpt>
      <trkpt lat="46.31926" lon="-1.07507">
        <ele>5.6</ele>
        <time>2020-06-02T13:48:57Z</time>
      </trkpt>
      <trkpt lat="46.31926" lon="-1.07507">
        <ele>5.6</ele>
        <time>2020-06-02T13:48:58Z</time>
      </trkpt>
      <trkpt lat="46.31926" lon="-1.07507">
        <ele>5.6</ele>
        <time>2020-06-02T13:48:59Z</time>
      </trkpt>
      <trkpt lat="46.31926" lon="-1.07507">
        <ele>5.6</ele>
        <time>2020-06-02T13:49:00Z</time>
      </trkpt>
      <trkpt lat="46.31926" lon="-1.07507">
        <ele>5.6</ele>
        <time>2020-06-02T13:49:01Z</time>
      </trkpt>
      <trkpt lat="46.31925" lon="-1.07507">
        <ele>5.6</ele>
        <time>2020-06-02T13:49:02Z</time>
      </trkpt>
      <trkpt lat="46.31925" lon="-1.07507">
        <ele>5.6</ele>
        <time>2020-06-02T13:49:03Z</time>
      </trkpt>
      <trkpt lat="46.31925" lon="-1.07507">
        <ele>5.6</ele>
        <time>2020-06-02T13:49:04Z</time>
      </trkpt>
      <trkpt lat="46.31924" lon="-1.07506">
        <ele>5.6</ele>
        <time>2020-06-02T13:49:05Z</time>
      </trkpt>
      <trkpt lat="46.31924" lon="-1.07506">
        <ele>5.6</ele>
        <time>2020-06-02T13:49:06Z</time>
      </trkpt>
      <trkpt lat="46.31925" lon="-1.07506">
        <ele>5.6</ele>
        <time>2020-06-02T13:49:07Z</time>
      </trkpt>
      <trkpt lat="46.31924" lon="-1.07506">
        <ele>5.6</ele>
        <time>2020-06-02T13:49:08Z</time>
      </trkpt>
      <trkpt lat="46.31924" lon="-1.07506">
        <ele>5.6</ele>
        <time>2020-06-02T13:49:09Z</time>
      </trkpt>
      <trkpt lat="46.31923" lon="-1.07506">
        <ele>5.6</ele>
        <time>2020-06-02T13:49:10Z</time>
      </trkpt>
      <trkpt lat="46.31923" lon="-1.07505">
        <ele>5.6</ele>
        <time>2020-06-02T13:49:11Z</time>
      </trkpt>
      <trkpt lat="46.31924" lon="-1.07504">
        <ele>5.6</ele>
        <time>2020-06-02T13:49:12Z</time>
      </trkpt>
      <trkpt lat="46.31924" lon="-1.07504">
        <ele>5.6</ele>
        <time>2020-06-02T13:49:13Z</time>
      </trkpt>
      <trkpt lat="46.31924" lon="-1.07503">
        <ele>5.6</ele>
        <time>2020-06-02T13:49:14Z</time>
      </trkpt>
      <trkpt lat="46.31924" lon="-1.07502">
        <ele>5.6</ele>
        <time>2020-06-02T13:49:15Z</time>
      </trkpt>
      <trkpt lat="46.31925" lon="-1.07501">
        <ele>5.6</ele>
        <time>2020-06-02T13:49:16Z</time>
      </trkpt>
      <trkpt lat="46.31925" lon="-1.07501">
        <ele>5.6</ele>
        <time>2020-06-02T13:49:17Z</time>
      </trkpt>
      <trkpt lat="46.31925" lon="-1.075">
        <ele>5.6</ele>
        <time>2020-06-02T13:49:18Z</time>
      </trkpt>
      <trkpt lat="46.31925" lon="-1.075">
        <ele>5.6</ele>
        <time>2020-06-02T13:49:19Z</time>
      </trkpt>
      <trkpt lat="46.31925" lon="-1.07499">
        <ele>5.6</ele>
        <time>2020-06-02T13:49:20Z</time>
      </trkpt>
      <trkpt lat="46.31926" lon="-1.07499">
        <ele>5.6</ele>
        <time>2020-06-02T13:49:21Z</time>
      </trkpt>
      <trkpt lat="46.31925" lon="-1.07498">
        <ele>5.6</ele>
        <time>2020-06-02T13:49:22Z</time>
      </trkpt>
      <trkpt lat="46.31925" lon="-1.07496">
        <ele>5.6</ele>
        <time>2020-06-02T13:49:23Z</time>
      </trkpt>
      <trkpt lat="46.31924" lon="-1.07495">
        <ele>5.6</ele>
        <time>2020-06-02T13:49:24Z</time>
      </trkpt>
      <trkpt lat="46.31924" lon="-1.07494">
        <ele>5.6</ele>
        <time>2020-06-02T13:49:25Z</time>
      </trkpt>
      <trkpt lat="46.31925" lon="-1.07494">
        <ele>5.6</ele>
        <time>2020-06-02T13:49:26Z</time>
      </trkpt>
      <trkpt lat="46.31925" lon="-1.07495">
        <ele>5.6</ele>
        <time>2020-06-02T13:49:27Z</time>
      </trkpt>
      <trkpt lat="46.31925" lon="-1.07497">
        <ele>5.6</ele>
        <time>2020-06-02T13:49:28Z</time>
      </trkpt>
      <trkpt lat="46.31925" lon="-1.07499">
        <ele>5.6</ele>
        <time>2020-06-02T13:49:29Z</time>
      </trkpt>
      <trkpt lat="46.31925" lon="-1.07501">
        <ele>5.6</ele>
        <time>2020-06-02T13:49:30Z</time>
      </trkpt>
      <trkpt lat="46.31925" lon="-1.07503">
        <ele>5.6</ele>
        <time>2020-06-02T13:49:31Z</time>
      </trkpt>
      <trkpt lat="46.31926" lon="-1.07505">
        <ele>5.6</ele>
        <time>2020-06-02T13:49:32Z</time>
      </trkpt>
      <trkpt lat="46.31927" lon="-1.07507">
        <ele>5.6</ele>
        <time>2020-06-02T13:49:33Z</time>
      </trkpt>
      <trkpt lat="46.31927" lon="-1.07509">
        <ele>5.6</ele>
        <time>2020-06-02T13:49:34Z</time>
      </trkpt>
      <trkpt lat="46.31926" lon="-1.0751">
        <ele>5.6</ele>
        <time>2020-06-02T13:49:35Z</time>
      </trkpt>
      <trkpt lat="46.31926" lon="-1.0751">
        <ele>5.6</ele>
        <time>2020-06-02T13:49:36Z</time>
      </trkpt>
      <trkpt lat="46.31926" lon="-1.07509">
        <ele>5.6</ele>
        <time>2020-06-02T13:49:37Z</time>
      </trkpt>
      <trkpt lat="46.31926" lon="-1.0751">
        <ele>5.6</ele>
        <time>2020-06-02T13:49:38Z</time>
      </trkpt>
      <trkpt lat="46.31926" lon="-1.07509">
        <ele>5.6</ele>
        <time>2020-06-02T13:49:39Z</time>
      </trkpt>
      <trkpt lat="46.31926" lon="-1.0751">
        <ele>5.6</ele>
        <time>2020-06-02T13:49:40Z</time>
      </trkpt>
      <trkpt lat="46.31926" lon="-1.0751">
        <ele>5.6</ele>
        <time>2020-06-02T13:49:41Z</time>
      </trkpt>
      <trkpt lat="46.31926" lon="-1.0751">
        <ele>5.6</ele>
        <time>2020-06-02T13:49:42Z</time>
      </trkpt>
      <trkpt lat="46.31926" lon="-1.0751">
        <ele>5.6</ele>
        <time>2020-06-02T13:49:43Z</time>
      </trkpt>
      <trkpt lat="46.31926" lon="-1.0751">
        <ele>5.6</ele>
        <time>2020-06-02T13:49:44Z</time>
      </trkpt>
      <trkpt lat="46.31926" lon="-1.0751">
        <ele>5.6</ele>
        <time>2020-06-02T13:49:45Z</time>
      </trkpt>
      <trkpt lat="46.31926" lon="-1.0751">
        <ele>5.6</ele>
        <time>2020-06-02T13:49:46Z</time>
      </trkpt>
      <trkpt lat="46.31926" lon="-1.0751">
        <ele>5.6</ele>
        <time>2020-06-02T13:49:47Z</time>
      </trkpt>
      <trkpt lat="46.31927" lon="-1.0751">
        <ele>5.6</ele>
        <time>2020-06-02T13:49:48Z</time>
      </trkpt>
      <trkpt lat="46.31927" lon="-1.0751">
        <ele>5.6</ele>
        <time>2020-06-02T13:49:49Z</time>
      </trkpt>
      <trkpt lat="46.31927" lon="-1.0751">
        <ele>5.6</ele>
        <time>2020-06-02T13:49:50Z</time>
      </trkpt>
      <trkpt lat="46.31927" lon="-1.0751">
        <ele>5.6</ele>
        <time>2020-06-02T13:49:51Z</time>
      </trkpt>
      <trkpt lat="46.31927" lon="-1.0751">
        <ele>5.6</ele>
        <time>2020-06-02T13:49:52Z</time>
      </trkpt>
      <trkpt lat="46.31927" lon="-1.0751">
        <ele>5.6</ele>
        <time>2020-06-02T13:49:53Z</time>
      </trkpt>
      <trkpt lat="46.31927" lon="-1.0751">
        <ele>5.6</ele>
        <time>2020-06-02T13:49:54Z</time>
      </trkpt>
      <trkpt lat="46.31927" lon="-1.0751">
        <ele>5.6</ele>
        <time>2020-06-02T13:49:55Z</time>
      </trkpt>
      <trkpt lat="46.31927" lon="-1.0751">
        <ele>5.6</ele>
        <time>2020-06-02T13:49:56Z</time>
      </trkpt>
      <trkpt lat="46.31927" lon="-1.0751">
        <ele>5.6</ele>
        <time>2020-06-02T13:49:57Z</time>
      </trkpt>
      <trkpt lat="46.31927" lon="-1.0751">
        <ele>5.6</ele>
        <time>2020-06-02T13:49:58Z</time>
      </trkpt>
      <trkpt lat="46.31927" lon="-1.0751">
        <ele>5.6</ele>
        <time>2020-06-02T13:49:59Z</time>
      </trkpt>
      <trkpt lat="46.31927" lon="-1.0751">
        <ele>5.6</ele>
        <time>2020-06-02T13:50:00Z</time>
      </trkpt>
      <trkpt lat="46.31927" lon="-1.0751">
        <ele>5.6</ele>
        <time>2020-06-02T13:50:01Z</time>
      </trkpt>
      <trkpt lat="46.31927" lon="-1.0751">
        <ele>5.6</ele>
        <time>2020-06-02T13:50:02Z</time>
      </trkpt>
      <trkpt lat="46.31927" lon="-1.0751">
        <ele>5.6</ele>
        <time>2020-06-02T13:50:03Z</time>
      </trkpt>
      <trkpt lat="46.31926" lon="-1.0751">
        <ele>5.6</ele>
        <time>2020-06-02T13:50:04Z</time>
      </trkpt>
      <trkpt lat="46.31925" lon="-1.07509">
        <ele>5.6</ele>
        <time>2020-06-02T13:50:05Z</time>
      </trkpt>
      <trkpt lat="46.31925" lon="-1.07508">
        <ele>5.6</ele>
        <time>2020-06-02T13:50:06Z</time>
      </trkpt>
      <trkpt lat="46.31926" lon="-1.07507">
        <ele>5.6</ele>
        <time>2020-06-02T13:50:07Z</time>
      </trkpt>
      <trkpt lat="46.31925" lon="-1.07508">
        <ele>5.6</ele>
        <time>2020-06-02T13:50:08Z</time>
      </trkpt>
      <trkpt lat="46.31924" lon="-1.07507">
        <ele>5.6</ele>
        <time>2020-06-02T13:50:09Z</time>
      </trkpt>
      <trkpt lat="46.31924" lon="-1.07507">
        <ele>5.6</ele>
        <time>2020-06-02T13:50:10Z</time>
      </trkpt>
      <trkpt lat="46.31924" lon="-1.07507">
        <ele>5.6</ele>
        <time>2020-06-02T13:50:11Z</time>
      </trkpt>
      <trkpt lat="46.31925" lon="-1.07507">
        <ele>5.6</ele>
        <time>2020-06-02T13:50:12Z</time>
      </trkpt>
      <trkpt lat="46.31925" lon="-1.07507">
        <ele>5.6</ele>
        <time>2020-06-02T13:50:13Z</time>
      </trkpt>
      <trkpt lat="46.31924" lon="-1.07506">
        <ele>5.6</ele>
        <time>2020-06-02T13:50:14Z</time>
      </trkpt>
      <trkpt lat="46.31925" lon="-1.07505">
        <ele>5.6</ele>
        <time>2020-06-02T13:50:15Z</time>
      </trkpt>
      <trkpt lat="46.31925" lon="-1.07503">
        <ele>5.6</ele>
        <time>2020-06-02T13:50:16Z</time>
      </trkpt>
      <trkpt lat="46.31925" lon="-1.07501">
        <ele>5.6</ele>
        <time>2020-06-02T13:50:17Z</time>
      </trkpt>
      <trkpt lat="46.31926" lon="-1.07499">
        <ele>5.6</ele>
        <time>2020-06-02T13:50:18Z</time>
      </trkpt>
      <trkpt lat="46.31927" lon="-1.07497">
        <ele>5.6</ele>
        <time>2020-06-02T13:50:19Z</time>
      </trkpt>
      <trkpt lat="46.31927" lon="-1.07492">
        <ele>5.6</ele>
        <time>2020-06-02T13:50:20Z</time>
      </trkpt>
      <trkpt lat="46.31927" lon="-1.0749">
        <ele>5.6</ele>
        <time>2020-06-02T13:50:21Z</time>
      </trkpt>
      <trkpt lat="46.31927" lon="-1.07488">
        <ele>5.6</ele>
        <time>2020-06-02T13:50:22Z</time>
      </trkpt>
      <trkpt lat="46.31929" lon="-1.07487">
        <ele>5.6</ele>
        <time>2020-06-02T13:50:23Z</time>
      </trkpt>
      <trkpt lat="46.31929" lon="-1.07488">
        <ele>5.6</ele>
        <time>2020-06-02T13:50:24Z</time>
      </trkpt>
      <trkpt lat="46.3193" lon="-1.07487">
        <ele>5.6</ele>
        <time>2020-06-02T13:50:25Z</time>
      </trkpt>
      <trkpt lat="46.31929" lon="-1.07487">
        <ele>5.6</ele>
        <time>2020-06-02T13:50:26Z</time>
      </trkpt>
      <trkpt lat="46.31929" lon="-1.07487">
        <ele>5.6</ele>
        <time>2020-06-02T13:50:27Z</time>
      </trkpt>
      <trkpt lat="46.31929" lon="-1.07487">
        <ele>5.6</ele>
        <time>2020-06-02T13:50:28Z</time>
      </trkpt>
      <trkpt lat="46.31929" lon="-1.07487">
        <ele>5.6</ele>
        <time>2020-06-02T13:50:29Z</time>
      </trkpt>
      <trkpt lat="46.31929" lon="-1.07487">
        <ele>5.6</ele>
        <time>2020-06-02T13:50:30Z</time>
      </trkpt>
      <trkpt lat="46.31929" lon="-1.07487">
        <ele>5.6</ele>
        <time>2020-06-02T13:50:31Z</time>
      </trkpt>
      <trkpt lat="46.31929" lon="-1.07487">
        <ele>5.6</ele>
        <time>2020-06-02T13:50:32Z</time>
      </trkpt>
      <trkpt lat="46.31929" lon="-1.07487">
        <ele>5.6</ele>
        <time>2020-06-02T13:50:33Z</time>
      </trkpt>
      <trkpt lat="46.31929" lon="-1.07486">
        <ele>5.6</ele>
        <time>2020-06-02T13:50:34Z</time>
      </trkpt>
      <trkpt lat="46.31929" lon="-1.07486">
        <ele>5.6</ele>
        <time>2020-06-02T13:50:35Z</time>
      </trkpt>
      <trkpt lat="46.31929" lon="-1.07486">
        <ele>5.6</ele>
        <time>2020-06-02T13:50:36Z</time>
      </trkpt>
      <trkpt lat="46.31929" lon="-1.07486">
        <ele>5.6</ele>
        <time>2020-06-02T13:50:37Z</time>
      </trkpt>
      <trkpt lat="46.31929" lon="-1.07486">
        <ele>5.6</ele>
        <time>2020-06-02T13:50:38Z</time>
      </trkpt>
      <trkpt lat="46.31929" lon="-1.07486">
        <ele>5.6</ele>
        <time>2020-06-02T13:50:39Z</time>
      </trkpt>
      <trkpt lat="46.31929" lon="-1.07486">
        <ele>5.6</ele>
        <time>2020-06-02T13:50:40Z</time>
      </trkpt>
      <trkpt lat="46.31929" lon="-1.07486">
        <ele>5.6</ele>
        <time>2020-06-02T13:50:41Z</time>
      </trkpt>
      <trkpt lat="46.31929" lon="-1.07486">
        <ele>5.6</ele>
        <time>2020-06-02T13:50:42Z</time>
      </trkpt>
      <trkpt lat="46.31929" lon="-1.07486">
        <ele>5.6</ele>
        <time>2020-06-02T13:50:43Z</time>
      </trkpt>
      <trkpt lat="46.31929" lon="-1.07486">
        <ele>5.6</ele>
        <time>2020-06-02T13:50:44Z</time>
      </trkpt>
      <trkpt lat="46.31929" lon="-1.07486">
        <ele>5.6</ele>
        <time>2020-06-02T13:50:45Z</time>
      </trkpt>
      <trkpt lat="46.31929" lon="-1.07486">
        <ele>5.6</ele>
        <time>2020-06-02T13:50:46Z</time>
      </trkpt>
      <trkpt lat="46.3193" lon="-1.07486">
        <ele>5.6</ele>
        <time>2020-06-02T13:50:47Z</time>
      </trkpt>
      <trkpt lat="46.3193" lon="-1.07486">
        <ele>5.6</ele>
        <time>2020-06-02T13:50:48Z</time>
      </trkpt>
      <trkpt lat="46.3193" lon="-1.07486">
        <ele>5.6</ele>
        <time>2020-06-02T13:50:49Z</time>
      </trkpt>
      <trkpt lat="46.3193" lon="-1.07486">
        <ele>5.6</ele>
        <time>2020-06-02T13:50:50Z</time>
      </trkpt>
      <trkpt lat="46.3193" lon="-1.07486">
        <ele>5.6</ele>
        <time>2020-06-02T13:50:51Z</time>
      </trkpt>
      <trkpt lat="46.3193" lon="-1.07486">
        <ele>5.6</ele>
        <time>2020-06-02T13:50:52Z</time>
      </trkpt>
      <trkpt lat="46.3193" lon="-1.07488">
        <ele>5.6</ele>
        <time>2020-06-02T13:50:53Z</time>
      </trkpt>
      <trkpt lat="46.3193" lon="-1.07491">
        <ele>5.6</ele>
        <time>2020-06-02T13:50:54Z</time>
      </trkpt>
      <trkpt lat="46.3193" lon="-1.07494">
        <ele>5.6</ele>
        <time>2020-06-02T13:50:55Z</time>
      </trkpt>
      <trkpt lat="46.3193" lon="-1.07496">
        <ele>5.6</ele>
        <time>2020-06-02T13:50:56Z</time>
      </trkpt>
      <trkpt lat="46.3193" lon="-1.075">
        <ele>5.6</ele>
        <time>2020-06-02T13:50:57Z</time>
      </trkpt>
      <trkpt lat="46.31929" lon="-1.07501">
        <ele>5.6</ele>
        <time>2020-06-02T13:50:58Z</time>
      </trkpt>
      <trkpt lat="46.31929" lon="-1.07504">
        <ele>5.6</ele>
        <time>2020-06-02T13:50:59Z</time>
      </trkpt>
      <trkpt lat="46.31929" lon="-1.07505">
        <ele>5.6</ele>
        <time>2020-06-02T13:51:00Z</time>
      </trkpt>
      <trkpt lat="46.31929" lon="-1.07507">
        <ele>5.6</ele>
        <time>2020-06-02T13:51:01Z</time>
      </trkpt>
      <trkpt lat="46.31929" lon="-1.07508">
        <ele>5.6</ele>
        <time>2020-06-02T13:51:02Z</time>
      </trkpt>
      <trkpt lat="46.31928" lon="-1.07508">
        <ele>5.6</ele>
        <time>2020-06-02T13:51:03Z</time>
      </trkpt>
      <trkpt lat="46.31928" lon="-1.07508">
        <ele>5.6</ele>
        <time>2020-06-02T13:51:04Z</time>
      </trkpt>
      <trkpt lat="46.31928" lon="-1.07509">
        <ele>5.6</ele>
        <time>2020-06-02T13:51:05Z</time>
      </trkpt>
      <trkpt lat="46.31928" lon="-1.07509">
        <ele>5.6</ele>
        <time>2020-06-02T13:51:06Z</time>
      </trkpt>
      <trkpt lat="46.31927" lon="-1.07509">
        <ele>5.6</ele>
        <time>2020-06-02T13:51:07Z</time>
      </trkpt>
      <trkpt lat="46.31927" lon="-1.07509">
        <ele>5.6</ele>
        <time>2020-06-02T13:51:08Z</time>
      </trkpt>
      <trkpt lat="46.31927" lon="-1.07509">
        <ele>5.6</ele>
        <time>2020-06-02T13:51:09Z</time>
      </trkpt>
      <trkpt lat="46.31927" lon="-1.07509">
        <ele>5.6</ele>
        <time>2020-06-02T13:51:10Z</time>
      </trkpt>
      <trkpt lat="46.31927" lon="-1.07509">
        <ele>5.6</ele>
        <time>2020-06-02T13:51:11Z</time>
      </trkpt>
      <trkpt lat="46.31927" lon="-1.07509">
        <ele>5.6</ele>
        <time>2020-06-02T13:51:12Z</time>
      </trkpt>
      <trkpt lat="46.31927" lon="-1.07509">
        <ele>5.6</ele>
        <time>2020-06-02T13:51:13Z</time>
      </trkpt>
      <trkpt lat="46.31927" lon="-1.07509">
        <ele>5.6</ele>
        <time>2020-06-02T13:51:14Z</time>
      </trkpt>
      <trkpt lat="46.31927" lon="-1.07509">
        <ele>5.6</ele>
        <time>2020-06-02T13:51:15Z</time>
      </trkpt>
      <trkpt lat="46.31927" lon="-1.07509">
        <ele>5.6</ele>
        <time>2020-06-02T13:51:16Z</time>
      </trkpt>
      <trkpt lat="46.31927" lon="-1.07509">
        <ele>5.6</ele>
        <time>2020-06-02T13:51:17Z</time>
      </trkpt>
      <trkpt lat="46.31927" lon="-1.07509">
        <ele>5.6</ele>
        <time>2020-06-02T13:51:18Z</time>
      </trkpt>
      <trkpt lat="46.31927" lon="-1.07509">
        <ele>5.6</ele>
        <time>2020-06-02T13:51:19Z</time>
      </trkpt>
      <trkpt lat="46.31927" lon="-1.07509">
        <ele>5.6</ele>
        <time>2020-06-02T13:51:20Z</time>
      </trkpt>
      <trkpt lat="46.31927" lon="-1.07509">
        <ele>5.6</ele>
        <time>2020-06-02T13:51:21Z</time>
      </trkpt>
      <trkpt lat="46.31927" lon="-1.07509">
        <ele>5.6</ele>
        <time>2020-06-02T13:51:22Z</time>
      </trkpt>
      <trkpt lat="46.31927" lon="-1.07509">
        <ele>5.6</ele>
        <time>2020-06-02T13:51:23Z</time>
      </trkpt>
      <trkpt lat="46.31927" lon="-1.07509">
        <ele>5.6</ele>
        <time>2020-06-02T13:51:24Z</time>
      </trkpt>
      <trkpt lat="46.31927" lon="-1.07509">
        <ele>5.6</ele>
        <time>2020-06-02T13:51:25Z</time>
      </trkpt>
      <trkpt lat="46.31927" lon="-1.07509">
        <ele>5.6</ele>
        <time>2020-06-02T13:51:26Z</time>
      </trkpt>
      <trkpt lat="46.31927" lon="-1.07509">
        <ele>5.6</ele>
        <time>2020-06-02T13:51:27Z</time>
      </trkpt>
      <trkpt lat="46.31927" lon="-1.07509">
        <ele>5.6</ele>
        <time>2020-06-02T13:51:28Z</time>
      </trkpt>
      <trkpt lat="46.31927" lon="-1.0751">
        <ele>5.6</ele>
        <time>2020-06-02T13:51:29Z</time>
      </trkpt>
      <trkpt lat="46.31927" lon="-1.0751">
        <ele>5.6</ele>
        <time>2020-06-02T13:51:30Z</time>
      </trkpt>
      <trkpt lat="46.31927" lon="-1.0751">
        <ele>5.6</ele>
        <time>2020-06-02T13:51:31Z</time>
      </trkpt>
      <trkpt lat="46.31927" lon="-1.0751">
        <ele>5.6</ele>
        <time>2020-06-02T13:51:32Z</time>
      </trkpt>
      <trkpt lat="46.31927" lon="-1.0751">
        <ele>5.6</ele>
        <time>2020-06-02T13:51:33Z</time>
      </trkpt>
      <trkpt lat="46.31927" lon="-1.07509">
        <ele>5.6</ele>
        <time>2020-06-02T13:51:34Z</time>
      </trkpt>
      <trkpt lat="46.31927" lon="-1.07509">
        <ele>5.6</ele>
        <time>2020-06-02T13:51:35Z</time>
      </trkpt>
      <trkpt lat="46.31927" lon="-1.07509">
        <ele>5.6</ele>
        <time>2020-06-02T13:51:36Z</time>
      </trkpt>
      <trkpt lat="46.31927" lon="-1.07509">
        <ele>5.6</ele>
        <time>2020-06-02T13:51:37Z</time>
      </trkpt>
      <trkpt lat="46.31927" lon="-1.07509">
        <ele>5.6</ele>
        <time>2020-06-02T13:51:38Z</time>
      </trkpt>
      <trkpt lat="46.31927" lon="-1.07509">
        <ele>5.6</ele>
        <time>2020-06-02T13:51:39Z</time>
      </trkpt>
      <trkpt lat="46.31927" lon="-1.07509">
        <ele>5.6</ele>
        <time>2020-06-02T13:51:40Z</time>
      </trkpt>
      <trkpt lat="46.31927" lon="-1.07509">
        <ele>5.6</ele>
        <time>2020-06-02T13:51:41Z</time>
      </trkpt>
      <trkpt lat="46.31927" lon="-1.07509">
        <ele>5.6</ele>
        <time>2020-06-02T13:51:42Z</time>
      </trkpt>
      <trkpt lat="46.31927" lon="-1.07509">
        <ele>5.6</ele>
        <time>2020-06-02T13:51:43Z</time>
      </trkpt>
      <trkpt lat="46.31927" lon="-1.07509">
        <ele>5.6</ele>
        <time>2020-06-02T13:51:44Z</time>
      </trkpt>
      <trkpt lat="46.31927" lon="-1.07509">
        <ele>5.6</ele>
        <time>2020-06-02T13:51:45Z</time>
      </trkpt>
      <trkpt lat="46.31927" lon="-1.07509">
        <ele>5.6</ele>
        <time>2020-06-02T13:51:46Z</time>
      </trkpt>
      <trkpt lat="46.31928" lon="-1.0751">
        <ele>5.6</ele>
        <time>2020-06-02T13:51:47Z</time>
      </trkpt>
      <trkpt lat="46.31928" lon="-1.0751">
        <ele>5.6</ele>
        <time>2020-06-02T13:51:48Z</time>
      </trkpt>
      <trkpt lat="46.31928" lon="-1.0751">
        <ele>5.6</ele>
        <time>2020-06-02T13:51:49Z</time>
      </trkpt>
      <trkpt lat="46.31927" lon="-1.0751">
        <ele>5.6</ele>
        <time>2020-06-02T13:51:50Z</time>
      </trkpt>
      <trkpt lat="46.31927" lon="-1.0751">
        <ele>5.6</ele>
        <time>2020-06-02T13:51:51Z</time>
      </trkpt>
      <trkpt lat="46.31928" lon="-1.0751">
        <ele>5.6</ele>
        <time>2020-06-02T13:51:52Z</time>
      </trkpt>
      <trkpt lat="46.31928" lon="-1.0751">
        <ele>5.6</ele>
        <time>2020-06-02T13:51:53Z</time>
      </trkpt>
      <trkpt lat="46.31928" lon="-1.0751">
        <ele>5.6</ele>
        <time>2020-06-02T13:51:54Z</time>
      </trkpt>
      <trkpt lat="46.31928" lon="-1.0751">
        <ele>5.6</ele>
        <time>2020-06-02T13:51:55Z</time>
      </trkpt>
      <trkpt lat="46.31928" lon="-1.0751">
        <ele>5.6</ele>
        <time>2020-06-02T13:51:56Z</time>
      </trkpt>
      <trkpt lat="46.31928" lon="-1.0751">
        <ele>5.6</ele>
        <time>2020-06-02T13:51:57Z</time>
      </trkpt>
      <trkpt lat="46.31928" lon="-1.0751">
        <ele>5.6</ele>
        <time>2020-06-02T13:51:58Z</time>
      </trkpt>
      <trkpt lat="46.31928" lon="-1.0751">
        <ele>5.6</ele>
        <time>2020-06-02T13:51:59Z</time>
      </trkpt>
      <trkpt lat="46.31927" lon="-1.0751">
        <ele>5.6</ele>
        <time>2020-06-02T13:52:00Z</time>
      </trkpt>
      <trkpt lat="46.31928" lon="-1.0751">
        <ele>5.6</ele>
        <time>2020-06-02T13:52:01Z</time>
      </trkpt>
      <trkpt lat="46.31928" lon="-1.07508">
        <ele>5.6</ele>
        <time>2020-06-02T13:52:02Z</time>
      </trkpt>
      <trkpt lat="46.31928" lon="-1.07506">
        <ele>5.6</ele>
        <time>2020-06-02T13:52:03Z</time>
      </trkpt>
      <trkpt lat="46.31928" lon="-1.07506">
        <ele>5.6</ele>
        <time>2020-06-02T13:52:04Z</time>
      </trkpt>
      <trkpt lat="46.31928" lon="-1.07504">
        <ele>5.6</ele>
        <time>2020-06-02T13:52:05Z</time>
      </trkpt>
      <trkpt lat="46.31927" lon="-1.07504">
        <ele>5.6</ele>
        <time>2020-06-02T13:52:06Z</time>
      </trkpt>
      <trkpt lat="46.31927" lon="-1.07503">
        <ele>5.6</ele>
        <time>2020-06-02T13:52:07Z</time>
      </trkpt>
      <trkpt lat="46.31926" lon="-1.07502">
        <ele>5.6</ele>
        <time>2020-06-02T13:52:08Z</time>
      </trkpt>
      <trkpt lat="46.31926" lon="-1.07502">
        <ele>5.6</ele>
        <time>2020-06-02T13:52:09Z</time>
      </trkpt>
      <trkpt lat="46.31926" lon="-1.07502">
        <ele>5.6</ele>
        <time>2020-06-02T13:52:10Z</time>
      </trkpt>
      <trkpt lat="46.31926" lon="-1.07502">
        <ele>5.6</ele>
        <time>2020-06-02T13:52:11Z</time>
      </trkpt>
      <trkpt lat="46.31926" lon="-1.07501">
        <ele>5.6</ele>
        <time>2020-06-02T13:52:12Z</time>
      </trkpt>
      <trkpt lat="46.31926" lon="-1.07501">
        <ele>5.6</ele>
        <time>2020-06-02T13:52:13Z</time>
      </trkpt>
      <trkpt lat="46.31926" lon="-1.07501">
        <ele>5.6</ele>
        <time>2020-06-02T13:52:14Z</time>
      </trkpt>
      <trkpt lat="46.31926" lon="-1.07501">
        <ele>5.6</ele>
        <time>2020-06-02T13:52:15Z</time>
      </trkpt>
      <trkpt lat="46.31926" lon="-1.07501">
        <ele>5.6</ele>
        <time>2020-06-02T13:52:16Z</time>
      </trkpt>
      <trkpt lat="46.31926" lon="-1.075">
        <ele>5.6</ele>
        <time>2020-06-02T13:52:17Z</time>
      </trkpt>
      <trkpt lat="46.31926" lon="-1.075">
        <ele>5.6</ele>
        <time>2020-06-02T13:52:18Z</time>
      </trkpt>
      <trkpt lat="46.31926" lon="-1.075">
        <ele>5.6</ele>
        <time>2020-06-02T13:52:19Z</time>
      </trkpt>
      <trkpt lat="46.31926" lon="-1.075">
        <ele>5.6</ele>
        <time>2020-06-02T13:52:20Z</time>
      </trkpt>
      <trkpt lat="46.31926" lon="-1.07499">
        <ele>5.6</ele>
        <time>2020-06-02T13:52:21Z</time>
      </trkpt>
      <trkpt lat="46.31926" lon="-1.07499">
        <ele>5.6</ele>
        <time>2020-06-02T13:52:22Z</time>
      </trkpt>
      <trkpt lat="46.31926" lon="-1.07499">
        <ele>5.6</ele>
        <time>2020-06-02T13:52:23Z</time>
      </trkpt>
      <trkpt lat="46.31925" lon="-1.07499">
        <ele>5.6</ele>
        <time>2020-06-02T13:52:24Z</time>
      </trkpt>
      <trkpt lat="46.31925" lon="-1.07498">
        <ele>5.6</ele>
        <time>2020-06-02T13:52:25Z</time>
      </trkpt>
      <trkpt lat="46.31927" lon="-1.07494">
        <ele>5.6</ele>
        <time>2020-06-02T13:52:26Z</time>
      </trkpt>
      <trkpt lat="46.31927" lon="-1.07493">
        <ele>5.6</ele>
        <time>2020-06-02T13:52:27Z</time>
      </trkpt>
      <trkpt lat="46.31927" lon="-1.07493">
        <ele>5.6</ele>
        <time>2020-06-02T13:52:28Z</time>
      </trkpt>
      <trkpt lat="46.31926" lon="-1.07493">
        <ele>5.6</ele>
        <time>2020-06-02T13:52:29Z</time>
      </trkpt>
      <trkpt lat="46.31926" lon="-1.07493">
        <ele>5.6</ele>
        <time>2020-06-02T13:52:30Z</time>
      </trkpt>
      <trkpt lat="46.31926" lon="-1.07493">
        <ele>5.6</ele>
        <time>2020-06-02T13:52:31Z</time>
      </trkpt>
      <trkpt lat="46.31926" lon="-1.07493">
        <ele>5.6</ele>
        <time>2020-06-02T13:52:32Z</time>
      </trkpt>
      <trkpt lat="46.31926" lon="-1.07493">
        <ele>5.6</ele>
        <time>2020-06-02T13:52:33Z</time>
      </trkpt>
      <trkpt lat="46.31926" lon="-1.07493">
        <ele>5.6</ele>
        <time>2020-06-02T13:52:34Z</time>
      </trkpt>
      <trkpt lat="46.31927" lon="-1.07493">
        <ele>5.6</ele>
        <time>2020-06-02T13:52:35Z</time>
      </trkpt>
      <trkpt lat="46.31927" lon="-1.07493">
        <ele>5.6</ele>
        <time>2020-06-02T13:52:36Z</time>
      </trkpt>
      <trkpt lat="46.31927" lon="-1.07493">
        <ele>5.6</ele>
        <time>2020-06-02T13:52:37Z</time>
      </trkpt>
      <trkpt lat="46.31927" lon="-1.07493">
        <ele>5.6</ele>
        <time>2020-06-02T13:52:38Z</time>
      </trkpt>
      <trkpt lat="46.31927" lon="-1.07493">
        <ele>5.6</ele>
        <time>2020-06-02T13:52:39Z</time>
      </trkpt>
      <trkpt lat="46.31927" lon="-1.07493">
        <ele>5.6</ele>
        <time>2020-06-02T13:52:40Z</time>
      </trkpt>
      <trkpt lat="46.31927" lon="-1.07493">
        <ele>5.6</ele>
        <time>2020-06-02T13:52:41Z</time>
      </trkpt>
      <trkpt lat="46.31927" lon="-1.07493">
        <ele>5.6</ele>
        <time>2020-06-02T13:52:42Z</time>
      </trkpt>
      <trkpt lat="46.31927" lon="-1.07492">
        <ele>5.6</ele>
        <time>2020-06-02T13:52:43Z</time>
      </trkpt>
      <trkpt lat="46.31927" lon="-1.07493">
        <ele>5.6</ele>
        <time>2020-06-02T13:52:44Z</time>
      </trkpt>
      <trkpt lat="46.31927" lon="-1.07492">
        <ele>5.6</ele>
        <time>2020-06-02T13:52:45Z</time>
      </trkpt>
      <trkpt lat="46.31927" lon="-1.07492">
        <ele>5.6</ele>
        <time>2020-06-02T13:52:46Z</time>
      </trkpt>
      <trkpt lat="46.31927" lon="-1.07492">
        <ele>5.6</ele>
        <time>2020-06-02T13:52:47Z</time>
      </trkpt>
      <trkpt lat="46.31927" lon="-1.07492">
        <ele>5.6</ele>
        <time>2020-06-02T13:52:48Z</time>
      </trkpt>
      <trkpt lat="46.31927" lon="-1.07492">
        <ele>5.6</ele>
        <time>2020-06-02T13:52:49Z</time>
      </trkpt>
      <trkpt lat="46.31927" lon="-1.07492">
        <ele>5.6</ele>
        <time>2020-06-02T13:52:50Z</time>
      </trkpt>
      <trkpt lat="46.31927" lon="-1.07492">
        <ele>5.6</ele>
        <time>2020-06-02T13:52:51Z</time>
      </trkpt>
      <trkpt lat="46.31927" lon="-1.07492">
        <ele>5.6</ele>
        <time>2020-06-02T13:52:52Z</time>
      </trkpt>
      <trkpt lat="46.31927" lon="-1.07492">
        <ele>5.6</ele>
        <time>2020-06-02T13:52:53Z</time>
      </trkpt>
      <trkpt lat="46.31927" lon="-1.07493">
        <ele>5.6</ele>
        <time>2020-06-02T13:52:54Z</time>
      </trkpt>
      <trkpt lat="46.31927" lon="-1.07493">
        <ele>5.6</ele>
        <time>2020-06-02T13:52:55Z</time>
      </trkpt>
      <trkpt lat="46.31927" lon="-1.07493">
        <ele>5.6</ele>
        <time>2020-06-02T13:52:56Z</time>
      </trkpt>
      <trkpt lat="46.31927" lon="-1.07493">
        <ele>5.6</ele>
        <time>2020-06-02T13:52:57Z</time>
      </trkpt>
      <trkpt lat="46.31926" lon="-1.07492">
        <ele>5.6</ele>
        <time>2020-06-02T13:52:58Z</time>
      </trkpt>
      <trkpt lat="46.31926" lon="-1.07492">
        <ele>5.6</ele>
        <time>2020-06-02T13:52:59Z</time>
      </trkpt>
      <trkpt lat="46.31926" lon="-1.07491">
        <ele>5.6</ele>
        <time>2020-06-02T13:53:00Z</time>
      </trkpt>
      <trkpt lat="46.31926" lon="-1.07491">
        <ele>5.6</ele>
        <time>2020-06-02T13:53:01Z</time>
      </trkpt>
      <trkpt lat="46.31926" lon="-1.07492">
        <ele>5.6</ele>
        <time>2020-06-02T13:53:02Z</time>
      </trkpt>
      <trkpt lat="46.31926" lon="-1.07492">
        <ele>5.6</ele>
        <time>2020-06-02T13:53:03Z</time>
      </trkpt>
      <trkpt lat="46.31926" lon="-1.07492">
        <ele>5.6</ele>
        <time>2020-06-02T13:53:04Z</time>
      </trkpt>
      <trkpt lat="46.31926" lon="-1.07492">
        <ele>5.6</ele>
        <time>2020-06-02T13:53:05Z</time>
      </trkpt>
      <trkpt lat="46.31926" lon="-1.07492">
        <ele>5.6</ele>
        <time>2020-06-02T13:53:06Z</time>
      </trkpt>
      <trkpt lat="46.31926" lon="-1.07492">
        <ele>5.6</ele>
        <time>2020-06-02T13:53:07Z</time>
      </trkpt>
      <trkpt lat="46.31927" lon="-1.07491">
        <ele>5.6</ele>
        <time>2020-06-02T13:53:08Z</time>
      </trkpt>
      <trkpt lat="46.31927" lon="-1.07491">
        <ele>5.6</ele>
        <time>2020-06-02T13:53:09Z</time>
      </trkpt>
      <trkpt lat="46.31927" lon="-1.07491">
        <ele>5.6</ele>
        <time>2020-06-02T13:53:10Z</time>
      </trkpt>
      <trkpt lat="46.31927" lon="-1.07491">
        <ele>5.6</ele>
        <time>2020-06-02T13:53:11Z</time>
      </trkpt>
      <trkpt lat="46.31927" lon="-1.07491">
        <ele>5.6</ele>
        <time>2020-06-02T13:53:12Z</time>
      </trkpt>
      <trkpt lat="46.31927" lon="-1.07491">
        <ele>5.6</ele>
        <time>2020-06-02T13:53:13Z</time>
      </trkpt>
      <trkpt lat="46.31927" lon="-1.07491">
        <ele>5.6</ele>
        <time>2020-06-02T13:53:14Z</time>
      </trkpt>
      <trkpt lat="46.31927" lon="-1.07491">
        <ele>5.6</ele>
        <time>2020-06-02T13:53:15Z</time>
      </trkpt>
      <trkpt lat="46.31925" lon="-1.07505">
        <ele>5.6</ele>
        <time>2020-06-02T14:46:33Z</time>
      </trkpt>
      <trkpt lat="46.31925" lon="-1.07505">
        <ele>5.6</ele>
        <time>2020-06-02T14:46:34Z</time>
      </trkpt>
      <trkpt lat="46.31925" lon="-1.07506">
        <ele>5.6</ele>
        <time>2020-06-02T14:46:35Z</time>
      </trkpt>
      <trkpt lat="46.31925" lon="-1.07506">
        <ele>5.6</ele>
        <time>2020-06-02T14:46:36Z</time>
      </trkpt>
      <trkpt lat="46.31925" lon="-1.07505">
        <ele>5.6</ele>
        <time>2020-06-02T14:46:37Z</time>
      </trkpt>
      <trkpt lat="46.31924" lon="-1.07504">
        <ele>5.6</ele>
        <time>2020-06-02T14:46:38Z</time>
      </trkpt>
      <trkpt lat="46.31924" lon="-1.07504">
        <ele>5.6</ele>
        <time>2020-06-02T14:46:39Z</time>
      </trkpt>
      <trkpt lat="46.31924" lon="-1.07505">
        <ele>5.6</ele>
        <time>2020-06-02T14:46:40Z</time>
      </trkpt>
      <trkpt lat="46.31925" lon="-1.07504">
        <ele>5.6</ele>
        <time>2020-06-02T14:46:41Z</time>
      </trkpt>
      <trkpt lat="46.31925" lon="-1.07503">
        <ele>5.6</ele>
        <time>2020-06-02T14:46:42Z</time>
      </trkpt>
      <trkpt lat="46.31925" lon="-1.07504">
        <ele>5.6</ele>
        <time>2020-06-02T14:46:43Z</time>
      </trkpt>
      <trkpt lat="46.31925" lon="-1.07503">
        <ele>5.6</ele>
        <time>2020-06-02T14:46:44Z</time>
      </trkpt>
      <trkpt lat="46.31926" lon="-1.07503">
        <ele>5.6</ele>
        <time>2020-06-02T14:46:45Z</time>
      </trkpt>
      <trkpt lat="46.31926" lon="-1.07503">
        <ele>5.6</ele>
        <time>2020-06-02T14:46:46Z</time>
      </trkpt>
      <trkpt lat="46.31926" lon="-1.07503">
        <ele>5.6</ele>
        <time>2020-06-02T14:46:47Z</time>
      </trkpt>
      <trkpt lat="46.31926" lon="-1.07503">
        <ele>5.6</ele>
        <time>2020-06-02T14:46:48Z</time>
      </trkpt>
      <trkpt lat="46.31926" lon="-1.07503">
        <ele>5.6</ele>
        <time>2020-06-02T14:46:49Z</time>
      </trkpt>
      <trkpt lat="46.31926" lon="-1.07503">
        <ele>5.6</ele>
        <time>2020-06-02T14:46:50Z</time>
      </trkpt>
      <trkpt lat="46.31926" lon="-1.07502">
        <ele>5.6</ele>
        <time>2020-06-02T14:46:51Z</time>
      </trkpt>
      <trkpt lat="46.31926" lon="-1.07501">
        <ele>5.6</ele>
        <time>2020-06-02T14:46:52Z</time>
      </trkpt>
      <trkpt lat="46.31926" lon="-1.075">
        <ele>5.6</ele>
        <time>2020-06-02T14:46:53Z</time>
      </trkpt>
      <trkpt lat="46.31926" lon="-1.075">
        <ele>5.6</ele>
        <time>2020-06-02T14:46:54Z</time>
      </trkpt>
      <trkpt lat="46.31926" lon="-1.07499">
        <ele>5.6</ele>
        <time>2020-06-02T14:46:55Z</time>
      </trkpt>
      <trkpt lat="46.31926" lon="-1.07499">
        <ele>5.6</ele>
        <time>2020-06-02T14:46:56Z</time>
      </trkpt>
      <trkpt lat="46.31926" lon="-1.07499">
        <ele>5.6</ele>
        <time>2020-06-02T14:46:57Z</time>
      </trkpt>
      <trkpt lat="46.31926" lon="-1.075">
        <ele>5.6</ele>
        <time>2020-06-02T14:46:58Z</time>
      </trkpt>
      <trkpt lat="46.31925" lon="-1.075">
        <ele>5.6</ele>
        <time>2020-06-02T14:46:59Z</time>
      </trkpt>
      <trkpt lat="46.31925" lon="-1.07502">
        <ele>5.6</ele>
        <time>2020-06-02T14:47:00Z</time>
      </trkpt>
      <trkpt lat="46.31925" lon="-1.07503">
        <ele>5.6</ele>
        <time>2020-06-02T14:47:01Z</time>
      </trkpt>
      <trkpt lat="46.31925" lon="-1.07504">
        <ele>5.6</ele>
        <time>2020-06-02T14:47:02Z</time>
      </trkpt>
      <trkpt lat="46.31925" lon="-1.07506">
        <ele>5.6</ele>
        <time>2020-06-02T14:47:03Z</time>
      </trkpt>
      <trkpt lat="46.31925" lon="-1.07508">
        <ele>5.6</ele>
        <time>2020-06-02T14:47:04Z</time>
      </trkpt>
      <trkpt lat="46.31925" lon="-1.07513">
        <ele>5.6</ele>
        <time>2020-06-02T14:47:05Z</time>
      </trkpt>
      <trkpt lat="46.31925" lon="-1.07515">
        <ele>5.6</ele>
        <time>2020-06-02T14:47:06Z</time>
      </trkpt>
      <trkpt lat="46.31925" lon="-1.07521">
        <ele>5.6</ele>
        <time>2020-06-02T14:47:07Z</time>
      </trkpt>
      <trkpt lat="46.31925" lon="-1.07527">
        <ele>5.6</ele>
        <time>2020-06-02T14:47:08Z</time>
      </trkpt>
      <trkpt lat="46.31925" lon="-1.07532">
        <ele>5.6</ele>
        <time>2020-06-02T14:47:09Z</time>
      </trkpt>
      <trkpt lat="46.31924" lon="-1.07538">
        <ele>5.5</ele>
        <time>2020-06-02T14:47:10Z</time>
      </trkpt>
      <trkpt lat="46.31923" lon="-1.07544">
        <ele>5.4</ele>
        <time>2020-06-02T14:47:11Z</time>
      </trkpt>
      <trkpt lat="46.31921" lon="-1.07551">
        <ele>5.2</ele>
        <time>2020-06-02T14:47:12Z</time>
      </trkpt>
      <trkpt lat="46.3192" lon="-1.07558">
        <ele>5.1</ele>
        <time>2020-06-02T14:47:13Z</time>
      </trkpt>
      <trkpt lat="46.31919" lon="-1.07565">
        <ele>4.9</ele>
        <time>2020-06-02T14:47:14Z</time>
      </trkpt>
      <trkpt lat="46.31919" lon="-1.07572">
        <ele>4.8</ele>
        <time>2020-06-02T14:47:15Z</time>
      </trkpt>
      <trkpt lat="46.31918" lon="-1.07579">
        <ele>4.6</ele>
        <time>2020-06-02T14:47:16Z</time>
      </trkpt>
      <trkpt lat="46.31917" lon="-1.07586">
        <ele>4.5</ele>
        <time>2020-06-02T14:47:17Z</time>
      </trkpt>
      <trkpt lat="46.31916" lon="-1.07595">
        <ele>4.3</ele>
        <time>2020-06-02T14:47:18Z</time>
      </trkpt>
      <trkpt lat="46.31914" lon="-1.07604">
        <ele>4.2</ele>
        <time>2020-06-02T14:47:19Z</time>
      </trkpt>
      <trkpt lat="46.31912" lon="-1.07614">
        <ele>4.1</ele>
        <time>2020-06-02T14:47:20Z</time>
      </trkpt>
      <trkpt lat="46.31911" lon="-1.07623">
        <ele>4</ele>
        <time>2020-06-02T14:47:21Z</time>
      </trkpt>
      <trkpt lat="46.31909" lon="-1.07632">
        <ele>3.8</ele>
        <time>2020-06-02T14:47:22Z</time>
      </trkpt>
      <trkpt lat="46.31907" lon="-1.07639">
        <ele>3.7</ele>
        <time>2020-06-02T14:47:23Z</time>
      </trkpt>
      <trkpt lat="46.31905" lon="-1.07647">
        <ele>3.6</ele>
        <time>2020-06-02T14:47:24Z</time>
      </trkpt>
      <trkpt lat="46.31904" lon="-1.07656">
        <ele>3.4</ele>
        <time>2020-06-02T14:47:25Z</time>
      </trkpt>
      <trkpt lat="46.31903" lon="-1.07665">
        <ele>3.3</ele>
        <time>2020-06-02T14:47:26Z</time>
      </trkpt>
      <trkpt lat="46.31902" lon="-1.07674">
        <ele>3.2</ele>
        <time>2020-06-02T14:47:27Z</time>
      </trkpt>
      <trkpt lat="46.31902" lon="-1.07685">
        <ele>3.1</ele>
        <time>2020-06-02T14:47:28Z</time>
      </trkpt>
      <trkpt lat="46.31902" lon="-1.07695">
        <ele>3</ele>
        <time>2020-06-02T14:47:29Z</time>
      </trkpt>
      <trkpt lat="46.31902" lon="-1.07705">
        <ele>2.9</ele>
        <time>2020-06-02T14:47:30Z</time>
      </trkpt>
      <trkpt lat="46.31902" lon="-1.07714">
        <ele>2.8</ele>
        <time>2020-06-02T14:47:31Z</time>
      </trkpt>
      <trkpt lat="46.31901" lon="-1.07725">
        <ele>2.7</ele>
        <time>2020-06-02T14:47:32Z</time>
      </trkpt>
      <trkpt lat="46.31904" lon="-1.07736">
        <ele>2.6</ele>
        <time>2020-06-02T14:47:33Z</time>
      </trkpt>
      <trkpt lat="46.31907" lon="-1.07746">
        <ele>2.5</ele>
        <time>2020-06-02T14:47:34Z</time>
      </trkpt>
      <trkpt lat="46.3191" lon="-1.07754">
        <ele>2.5</ele>
        <time>2020-06-02T14:47:35Z</time>
      </trkpt>
      <trkpt lat="46.31913" lon="-1.07764">
        <ele>2.4</ele>
        <time>2020-06-02T14:47:36Z</time>
      </trkpt>
      <trkpt lat="46.31917" lon="-1.07772">
        <ele>2.3</ele>
        <time>2020-06-02T14:47:37Z</time>
      </trkpt>
      <trkpt lat="46.3192" lon="-1.07783">
        <ele>2.2</ele>
        <time>2020-06-02T14:47:38Z</time>
      </trkpt>
      <trkpt lat="46.31924" lon="-1.07792">
        <ele>2.1</ele>
        <time>2020-06-02T14:47:39Z</time>
      </trkpt>
      <trkpt lat="46.31927" lon="-1.07801">
        <ele>2.1</ele>
        <time>2020-06-02T14:47:40Z</time>
      </trkpt>
      <trkpt lat="46.31931" lon="-1.07809">
        <ele>2</ele>
        <time>2020-06-02T14:47:41Z</time>
      </trkpt>
      <trkpt lat="46.31935" lon="-1.07818">
        <ele>2</ele>
        <time>2020-06-02T14:47:42Z</time>
      </trkpt>
      <trkpt lat="46.31938" lon="-1.07825">
        <ele>1.9</ele>
        <time>2020-06-02T14:47:43Z</time>
      </trkpt>
      <trkpt lat="46.31941" lon="-1.07832">
        <ele>1.9</ele>
        <time>2020-06-02T14:47:44Z</time>
      </trkpt>
      <trkpt lat="46.31945" lon="-1.0784">
        <ele>1.9</ele>
        <time>2020-06-02T14:47:45Z</time>
      </trkpt>
      <trkpt lat="46.31949" lon="-1.07847">
        <ele>1.9</ele>
        <time>2020-06-02T14:47:46Z</time>
      </trkpt>
      <trkpt lat="46.31953" lon="-1.07854">
        <ele>1.8</ele>
        <time>2020-06-02T14:47:47Z</time>
      </trkpt>
      <trkpt lat="46.31956" lon="-1.07861">
        <ele>1.8</ele>
        <time>2020-06-02T14:47:48Z</time>
      </trkpt>
      <trkpt lat="46.31959" lon="-1.07868">
        <ele>1.8</ele>
        <time>2020-06-02T14:47:49Z</time>
      </trkpt>
      <trkpt lat="46.31961" lon="-1.07874">
        <ele>1.8</ele>
        <time>2020-06-02T14:47:50Z</time>
      </trkpt>
      <trkpt lat="46.31964" lon="-1.07881">
        <ele>1.8</ele>
        <time>2020-06-02T14:47:51Z</time>
      </trkpt>
      <trkpt lat="46.31966" lon="-1.07887">
        <ele>1.8</ele>
        <time>2020-06-02T14:47:52Z</time>
      </trkpt>
      <trkpt lat="46.31969" lon="-1.07894">
        <ele>1.8</ele>
        <time>2020-06-02T14:47:53Z</time>
      </trkpt>
      <trkpt lat="46.31971" lon="-1.07901">
        <ele>1.7</ele>
        <time>2020-06-02T14:47:54Z</time>
      </trkpt>
      <trkpt lat="46.31974" lon="-1.07908">
        <ele>1.7</ele>
        <time>2020-06-02T14:47:55Z</time>
      </trkpt>
      <trkpt lat="46.31976" lon="-1.07915">
        <ele>1.7</ele>
        <time>2020-06-02T14:47:56Z</time>
      </trkpt>
      <trkpt lat="46.31979" lon="-1.07921">
        <ele>1.7</ele>
        <time>2020-06-02T14:47:57Z</time>
      </trkpt>
      <trkpt lat="46.31982" lon="-1.07927">
        <ele>1.7</ele>
        <time>2020-06-02T14:47:58Z</time>
      </trkpt>
      <trkpt lat="46.31983" lon="-1.07934">
        <ele>1.7</ele>
        <time>2020-06-02T14:47:59Z</time>
      </trkpt>
      <trkpt lat="46.31986" lon="-1.0794">
        <ele>1.7</ele>
        <time>2020-06-02T14:48:00Z</time>
      </trkpt>
      <trkpt lat="46.31989" lon="-1.07946">
        <ele>1.7</ele>
        <time>2020-06-02T14:48:01Z</time>
      </trkpt>
      <trkpt lat="46.31991" lon="-1.07952">
        <ele>1.7</ele>
        <time>2020-06-02T14:48:02Z</time>
      </trkpt>
      <trkpt lat="46.31994" lon="-1.07958">
        <ele>1.7</ele>
        <time>2020-06-02T14:48:03Z</time>
      </trkpt>
      <trkpt lat="46.31996" lon="-1.07964">
        <ele>1.7</ele>
        <time>2020-06-02T14:48:04Z</time>
      </trkpt>
      <trkpt lat="46.31999" lon="-1.0797">
        <ele>1.7</ele>
        <time>2020-06-02T14:48:05Z</time>
      </trkpt>
      <trkpt lat="46.32001" lon="-1.07976">
        <ele>1.6</ele>
        <time>2020-06-02T14:48:06Z</time>
      </trkpt>
      <trkpt lat="46.32003" lon="-1.07982">
        <ele>1.6</ele>
        <time>2020-06-02T14:48:07Z</time>
      </trkpt>
      <trkpt lat="46.32005" lon="-1.07988">
        <ele>1.6</ele>
        <time>2020-06-02T14:48:08Z</time>
      </trkpt>
      <trkpt lat="46.32007" lon="-1.07994">
        <ele>1.6</ele>
        <time>2020-06-02T14:48:09Z</time>
      </trkpt>
      <trkpt lat="46.32009" lon="-1.08">
        <ele>1.6</ele>
        <time>2020-06-02T14:48:10Z</time>
      </trkpt>
      <trkpt lat="46.32011" lon="-1.08006">
        <ele>1.6</ele>
        <time>2020-06-02T14:48:11Z</time>
      </trkpt>
      <trkpt lat="46.32013" lon="-1.08012">
        <ele>1.6</ele>
        <time>2020-06-02T14:48:12Z</time>
      </trkpt>
      <trkpt lat="46.32015" lon="-1.08018">
        <ele>1.6</ele>
        <time>2020-06-02T14:48:13Z</time>
      </trkpt>
      <trkpt lat="46.32018" lon="-1.08024">
        <ele>1.6</ele>
        <time>2020-06-02T14:48:14Z</time>
      </trkpt>
      <trkpt lat="46.3202" lon="-1.0803">
        <ele>1.6</ele>
        <time>2020-06-02T14:48:15Z</time>
      </trkpt>
      <trkpt lat="46.32023" lon="-1.08036">
        <ele>1.6</ele>
        <time>2020-06-02T14:48:16Z</time>
      </trkpt>
      <trkpt lat="46.32025" lon="-1.08042">
        <ele>1.6</ele>
        <time>2020-06-02T14:48:17Z</time>
      </trkpt>
      <trkpt lat="46.32027" lon="-1.08048">
        <ele>1.6</ele>
        <time>2020-06-02T14:48:18Z</time>
      </trkpt>
      <trkpt lat="46.32029" lon="-1.08054">
        <ele>1.6</ele>
        <time>2020-06-02T14:48:19Z</time>
      </trkpt>
      <trkpt lat="46.32031" lon="-1.08061">
        <ele>1.7</ele>
        <time>2020-06-02T14:48:20Z</time>
      </trkpt>
      <trkpt lat="46.32034" lon="-1.08067">
        <ele>1.7</ele>
        <time>2020-06-02T14:48:21Z</time>
      </trkpt>
      <trkpt lat="46.32036" lon="-1.08073">
        <ele>1.7</ele>
        <time>2020-06-02T14:48:22Z</time>
      </trkpt>
      <trkpt lat="46.32039" lon="-1.08079">
        <ele>1.7</ele>
        <time>2020-06-02T14:48:23Z</time>
      </trkpt>
      <trkpt lat="46.32042" lon="-1.08086">
        <ele>1.7</ele>
        <time>2020-06-02T14:48:24Z</time>
      </trkpt>
      <trkpt lat="46.32045" lon="-1.08093">
        <ele>1.7</ele>
        <time>2020-06-02T14:48:25Z</time>
      </trkpt>
      <trkpt lat="46.32048" lon="-1.081">
        <ele>1.7</ele>
        <time>2020-06-02T14:48:26Z</time>
      </trkpt>
      <trkpt lat="46.32051" lon="-1.08107">
        <ele>1.7</ele>
        <time>2020-06-02T14:48:27Z</time>
      </trkpt>
      <trkpt lat="46.32053" lon="-1.08114">
        <ele>1.7</ele>
        <time>2020-06-02T14:48:28Z</time>
      </trkpt>
      <trkpt lat="46.32056" lon="-1.08121">
        <ele>1.7</ele>
        <time>2020-06-02T14:48:29Z</time>
      </trkpt>
      <trkpt lat="46.32059" lon="-1.08128">
        <ele>1.7</ele>
        <time>2020-06-02T14:48:30Z</time>
      </trkpt>
      <trkpt lat="46.32062" lon="-1.08135">
        <ele>1.7</ele>
        <time>2020-06-02T14:48:31Z</time>
      </trkpt>
      <trkpt lat="46.32065" lon="-1.08143">
        <ele>1.7</ele>
        <time>2020-06-02T14:48:32Z</time>
      </trkpt>
      <trkpt lat="46.32067" lon="-1.08151">
        <ele>1.7</ele>
        <time>2020-06-02T14:48:33Z</time>
      </trkpt>
      <trkpt lat="46.3207" lon="-1.08158">
        <ele>1.7</ele>
        <time>2020-06-02T14:48:34Z</time>
      </trkpt>
      <trkpt lat="46.32073" lon="-1.08165">
        <ele>1.8</ele>
        <time>2020-06-02T14:48:35Z</time>
      </trkpt>
      <trkpt lat="46.32077" lon="-1.08173">
        <ele>1.8</ele>
        <time>2020-06-02T14:48:36Z</time>
      </trkpt>
      <trkpt lat="46.3208" lon="-1.08179">
        <ele>1.8</ele>
        <time>2020-06-02T14:48:37Z</time>
      </trkpt>
      <trkpt lat="46.32084" lon="-1.08185">
        <ele>1.9</ele>
        <time>2020-06-02T14:48:38Z</time>
      </trkpt>
      <trkpt lat="46.32087" lon="-1.08191">
        <ele>1.9</ele>
        <time>2020-06-02T14:48:39Z</time>
      </trkpt>
      <trkpt lat="46.3209" lon="-1.08196">
        <ele>1.9</ele>
        <time>2020-06-02T14:48:40Z</time>
      </trkpt>
      <trkpt lat="46.32092" lon="-1.082">
        <ele>2</ele>
        <time>2020-06-02T14:48:41Z</time>
      </trkpt>
      <trkpt lat="46.32095" lon="-1.082">
        <ele>2</ele>
        <time>2020-06-02T14:48:42Z</time>
      </trkpt>
      <trkpt lat="46.32098" lon="-1.08203">
        <ele>2</ele>
        <time>2020-06-02T14:48:43Z</time>
      </trkpt>
      <trkpt lat="46.32102" lon="-1.08207">
        <ele>2</ele>
        <time>2020-06-02T14:48:44Z</time>
      </trkpt>
      <trkpt lat="46.32107" lon="-1.0821">
        <ele>2</ele>
        <time>2020-06-02T14:48:45Z</time>
      </trkpt>
      <trkpt lat="46.32112" lon="-1.08214">
        <ele>1.9</ele>
        <time>2020-06-02T14:48:46Z</time>
      </trkpt>
      <trkpt lat="46.32117" lon="-1.08216">
        <ele>1.9</ele>
        <time>2020-06-02T14:48:47Z</time>
      </trkpt>
      <trkpt lat="46.32122" lon="-1.08218">
        <ele>1.8</ele>
        <time>2020-06-02T14:48:48Z</time>
      </trkpt>
      <trkpt lat="46.32126" lon="-1.08219">
        <ele>1.8</ele>
        <time>2020-06-02T14:48:49Z</time>
      </trkpt>
      <trkpt lat="46.3213" lon="-1.08221">
        <ele>1.7</ele>
        <time>2020-06-02T14:48:50Z</time>
      </trkpt>
      <trkpt lat="46.32135" lon="-1.08221">
        <ele>1.7</ele>
        <time>2020-06-02T14:48:51Z</time>
      </trkpt>
      <trkpt lat="46.3214" lon="-1.08221">
        <ele>1.8</ele>
        <time>2020-06-02T14:48:52Z</time>
      </trkpt>
      <trkpt lat="46.32145" lon="-1.0822">
        <ele>1.8</ele>
        <time>2020-06-02T14:48:53Z</time>
      </trkpt>
      <trkpt lat="46.32151" lon="-1.08219">
        <ele>1.8</ele>
        <time>2020-06-02T14:48:54Z</time>
      </trkpt>
      <trkpt lat="46.32157" lon="-1.08217">
        <ele>1.8</ele>
        <time>2020-06-02T14:48:55Z</time>
      </trkpt>
      <trkpt lat="46.32163" lon="-1.08215">
        <ele>1.9</ele>
        <time>2020-06-02T14:48:56Z</time>
      </trkpt>
      <trkpt lat="46.32169" lon="-1.08214">
        <ele>1.9</ele>
        <time>2020-06-02T14:48:57Z</time>
      </trkpt>
      <trkpt lat="46.32175" lon="-1.08215">
        <ele>1.9</ele>
        <time>2020-06-02T14:48:58Z</time>
      </trkpt>
      <trkpt lat="46.32181" lon="-1.08215">
        <ele>1.9</ele>
        <time>2020-06-02T14:48:59Z</time>
      </trkpt>
      <trkpt lat="46.32187" lon="-1.08215">
        <ele>2</ele>
        <time>2020-06-02T14:49:00Z</time>
      </trkpt>
      <trkpt lat="46.32193" lon="-1.08214">
        <ele>2</ele>
        <time>2020-06-02T14:49:01Z</time>
      </trkpt>
      <trkpt lat="46.32199" lon="-1.08213">
        <ele>2</ele>
        <time>2020-06-02T14:49:02Z</time>
      </trkpt>
      <trkpt lat="46.32205" lon="-1.08213">
        <ele>2</ele>
        <time>2020-06-02T14:49:03Z</time>
      </trkpt>
      <trkpt lat="46.3221" lon="-1.08213">
        <ele>2.1</ele>
        <time>2020-06-02T14:49:04Z</time>
      </trkpt>
      <trkpt lat="46.32216" lon="-1.08213">
        <ele>2.1</ele>
        <time>2020-06-02T14:49:05Z</time>
      </trkpt>
      <trkpt lat="46.32221" lon="-1.08214">
        <ele>2.1</ele>
        <time>2020-06-02T14:49:06Z</time>
      </trkpt>
      <trkpt lat="46.32227" lon="-1.08212">
        <ele>2.1</ele>
        <time>2020-06-02T14:49:07Z</time>
      </trkpt>
      <trkpt lat="46.32232" lon="-1.08212">
        <ele>2.2</ele>
        <time>2020-06-02T14:49:08Z</time>
      </trkpt>
      <trkpt lat="46.32238" lon="-1.08213">
        <ele>2.2</ele>
        <time>2020-06-02T14:49:09Z</time>
      </trkpt>
      <trkpt lat="46.32243" lon="-1.08212">
        <ele>2.2</ele>
        <time>2020-06-02T14:49:10Z</time>
      </trkpt>
      <trkpt lat="46.32248" lon="-1.08214">
        <ele>2.2</ele>
        <time>2020-06-02T14:49:11Z</time>
      </trkpt>
      <trkpt lat="46.32254" lon="-1.08214">
        <ele>2.2</ele>
        <time>2020-06-02T14:49:12Z</time>
      </trkpt>
      <trkpt lat="46.32259" lon="-1.08215">
        <ele>2.2</ele>
        <time>2020-06-02T14:49:13Z</time>
      </trkpt>
      <trkpt lat="46.32264" lon="-1.08215">
        <ele>2.3</ele>
        <time>2020-06-02T14:49:14Z</time>
      </trkpt>
      <trkpt lat="46.32269" lon="-1.08215">
        <ele>2.3</ele>
        <time>2020-06-02T14:49:15Z</time>
      </trkpt>
      <trkpt lat="46.32274" lon="-1.08216">
        <ele>2.3</ele>
        <time>2020-06-02T14:49:16Z</time>
      </trkpt>
      <trkpt lat="46.32279" lon="-1.08217">
        <ele>2.3</ele>
        <time>2020-06-02T14:49:17Z</time>
      </trkpt>
      <trkpt lat="46.32284" lon="-1.08217">
        <ele>2.3</ele>
        <time>2020-06-02T14:49:18Z</time>
      </trkpt>
      <trkpt lat="46.32287" lon="-1.08217">
        <ele>2.3</ele>
        <time>2020-06-02T14:49:19Z</time>
      </trkpt>
      <trkpt lat="46.32291" lon="-1.08217">
        <ele>2.3</ele>
        <time>2020-06-02T14:49:20Z</time>
      </trkpt>
      <trkpt lat="46.32295" lon="-1.08217">
        <ele>2.4</ele>
        <time>2020-06-02T14:49:21Z</time>
      </trkpt>
      <trkpt lat="46.32296" lon="-1.08217">
        <ele>2.4</ele>
        <time>2020-06-02T14:49:22Z</time>
      </trkpt>
      <trkpt lat="46.32298" lon="-1.0822">
        <ele>2.4</ele>
        <time>2020-06-02T14:49:23Z</time>
      </trkpt>
      <trkpt lat="46.32299" lon="-1.08221">
        <ele>2.4</ele>
        <time>2020-06-02T14:49:24Z</time>
      </trkpt>
      <trkpt lat="46.32298" lon="-1.08222">
        <ele>2.4</ele>
        <time>2020-06-02T14:49:25Z</time>
      </trkpt>
      <trkpt lat="46.32298" lon="-1.08222">
        <ele>2.4</ele>
        <time>2020-06-02T14:49:26Z</time>
      </trkpt>
      <trkpt lat="46.32298" lon="-1.08222">
        <ele>2.4</ele>
        <time>2020-06-02T14:49:27Z</time>
      </trkpt>
      <trkpt lat="46.32297" lon="-1.08222">
        <ele>2.4</ele>
        <time>2020-06-02T14:49:28Z</time>
      </trkpt>
      <trkpt lat="46.32297" lon="-1.08222">
        <ele>2.4</ele>
        <time>2020-06-02T14:49:29Z</time>
      </trkpt>
      <trkpt lat="46.32297" lon="-1.08222">
        <ele>2.4</ele>
        <time>2020-06-02T14:49:30Z</time>
      </trkpt>
      <trkpt lat="46.32297" lon="-1.08222">
        <ele>2.4</ele>
        <time>2020-06-02T14:49:31Z</time>
      </trkpt>
      <trkpt lat="46.32296" lon="-1.08221">
        <ele>2.4</ele>
        <time>2020-06-02T14:49:32Z</time>
      </trkpt>
      <trkpt lat="46.32296" lon="-1.08221">
        <ele>2.4</ele>
        <time>2020-06-02T14:49:33Z</time>
      </trkpt>
      <trkpt lat="46.32296" lon="-1.08221">
        <ele>2.4</ele>
        <time>2020-06-02T14:49:34Z</time>
      </trkpt>
      <trkpt lat="46.32295" lon="-1.08221">
        <ele>2.4</ele>
        <time>2020-06-02T14:49:35Z</time>
      </trkpt>
      <trkpt lat="46.32295" lon="-1.08221">
        <ele>2.4</ele>
        <time>2020-06-02T14:49:36Z</time>
      </trkpt>
      <trkpt lat="46.32295" lon="-1.08221">
        <ele>2.4</ele>
        <time>2020-06-02T14:49:37Z</time>
      </trkpt>
      <trkpt lat="46.32295" lon="-1.08221">
        <ele>2.4</ele>
        <time>2020-06-02T14:49:38Z</time>
      </trkpt>
      <trkpt lat="46.32294" lon="-1.08221">
        <ele>2.4</ele>
        <time>2020-06-02T14:49:39Z</time>
      </trkpt>
      <trkpt lat="46.32294" lon="-1.08221">
        <ele>2.4</ele>
        <time>2020-06-02T14:49:40Z</time>
      </trkpt>
      <trkpt lat="46.32294" lon="-1.08221">
        <ele>2.4</ele>
        <time>2020-06-02T14:49:41Z</time>
      </trkpt>
      <trkpt lat="46.32294" lon="-1.08221">
        <ele>2.4</ele>
        <time>2020-06-02T14:49:42Z</time>
      </trkpt>
      <trkpt lat="46.32293" lon="-1.08221">
        <ele>2.4</ele>
        <time>2020-06-02T14:49:43Z</time>
      </trkpt>
      <trkpt lat="46.32293" lon="-1.0822">
        <ele>2.4</ele>
        <time>2020-06-02T14:49:44Z</time>
      </trkpt>
      <trkpt lat="46.32293" lon="-1.0822">
        <ele>2.4</ele>
        <time>2020-06-02T14:49:45Z</time>
      </trkpt>
      <trkpt lat="46.32293" lon="-1.0822">
        <ele>2.4</ele>
        <time>2020-06-02T14:49:46Z</time>
      </trkpt>
      <trkpt lat="46.32292" lon="-1.0822">
        <ele>2.4</ele>
        <time>2020-06-02T14:49:47Z</time>
      </trkpt>
      <trkpt lat="46.32292" lon="-1.0822">
        <ele>2.4</ele>
        <time>2020-06-02T14:49:48Z</time>
      </trkpt>
      <trkpt lat="46.32292" lon="-1.0822">
        <ele>2.4</ele>
        <time>2020-06-02T14:49:49Z</time>
      </trkpt>
      <trkpt lat="46.32287" lon="-1.08219">
        <ele>2.4</ele>
        <time>2020-06-02T14:49:50Z</time>
      </trkpt>
      <trkpt lat="46.32282" lon="-1.08218">
        <ele>2.4</ele>
        <time>2020-06-02T14:49:51Z</time>
      </trkpt>
      <trkpt lat="46.32276" lon="-1.08217">
        <ele>2.3</ele>
        <time>2020-06-02T14:49:52Z</time>
      </trkpt>
      <trkpt lat="46.32271" lon="-1.08217">
        <ele>2.3</ele>
        <time>2020-06-02T14:49:53Z</time>
      </trkpt>
      <trkpt lat="46.32266" lon="-1.08217">
        <ele>2.3</ele>
        <time>2020-06-02T14:49:54Z</time>
      </trkpt>
      <trkpt lat="46.3226" lon="-1.08217">
        <ele>2.3</ele>
        <time>2020-06-02T14:49:55Z</time>
      </trkpt>
      <trkpt lat="46.32254" lon="-1.08217">
        <ele>2.3</ele>
        <time>2020-06-02T14:49:56Z</time>
      </trkpt>
      <trkpt lat="46.32249" lon="-1.08216">
        <ele>2.3</ele>
        <time>2020-06-02T14:49:57Z</time>
      </trkpt>
      <trkpt lat="46.32243" lon="-1.08214">
        <ele>2.2</ele>
        <time>2020-06-02T14:49:58Z</time>
      </trkpt>
      <trkpt lat="46.32238" lon="-1.08214">
        <ele>2.2</ele>
        <time>2020-06-02T14:49:59Z</time>
      </trkpt>
      <trkpt lat="46.32232" lon="-1.08214">
        <ele>2.2</ele>
        <time>2020-06-02T14:50:00Z</time>
      </trkpt>
      <trkpt lat="46.32227" lon="-1.08214">
        <ele>2.2</ele>
        <time>2020-06-02T14:50:01Z</time>
      </trkpt>
      <trkpt lat="46.32221" lon="-1.08213">
        <ele>2.2</ele>
        <time>2020-06-02T14:50:02Z</time>
      </trkpt>
      <trkpt lat="46.32216" lon="-1.08213">
        <ele>2.1</ele>
        <time>2020-06-02T14:50:03Z</time>
      </trkpt>
      <trkpt lat="46.32211" lon="-1.08213">
        <ele>2.1</ele>
        <time>2020-06-02T14:50:04Z</time>
      </trkpt>
      <trkpt lat="46.32205" lon="-1.08213">
        <ele>2.1</ele>
        <time>2020-06-02T14:50:05Z</time>
      </trkpt>
      <trkpt lat="46.322" lon="-1.08213">
        <ele>2.1</ele>
        <time>2020-06-02T14:50:06Z</time>
      </trkpt>
      <trkpt lat="46.32195" lon="-1.08212">
        <ele>2</ele>
        <time>2020-06-02T14:50:07Z</time>
      </trkpt>
      <trkpt lat="46.32189" lon="-1.08213">
        <ele>2</ele>
        <time>2020-06-02T14:50:08Z</time>
      </trkpt>
      <trkpt lat="46.32184" lon="-1.08214">
        <ele>2</ele>
        <time>2020-06-02T14:50:09Z</time>
      </trkpt>
      <trkpt lat="46.32178" lon="-1.08215">
        <ele>2</ele>
        <time>2020-06-02T14:50:10Z</time>
      </trkpt>
      <trkpt lat="46.32173" lon="-1.08216">
        <ele>1.9</ele>
        <time>2020-06-02T14:50:11Z</time>
      </trkpt>
      <trkpt lat="46.32167" lon="-1.08217">
        <ele>1.9</ele>
        <time>2020-06-02T14:50:12Z</time>
      </trkpt>
      <trkpt lat="46.32162" lon="-1.08219">
        <ele>1.9</ele>
        <time>2020-06-02T14:50:13Z</time>
      </trkpt>
      <trkpt lat="46.32156" lon="-1.08219">
        <ele>1.9</ele>
        <time>2020-06-02T14:50:14Z</time>
      </trkpt>
      <trkpt lat="46.32151" lon="-1.08219">
        <ele>1.8</ele>
        <time>2020-06-02T14:50:15Z</time>
      </trkpt>
      <trkpt lat="46.32146" lon="-1.0822">
        <ele>1.8</ele>
        <time>2020-06-02T14:50:16Z</time>
      </trkpt>
      <trkpt lat="46.32141" lon="-1.08219">
        <ele>1.8</ele>
        <time>2020-06-02T14:50:17Z</time>
      </trkpt>
      <trkpt lat="46.32137" lon="-1.08219">
        <ele>1.8</ele>
        <time>2020-06-02T14:50:18Z</time>
      </trkpt>
      <trkpt lat="46.32132" lon="-1.08219">
        <ele>1.7</ele>
        <time>2020-06-02T14:50:19Z</time>
      </trkpt>
      <trkpt lat="46.32128" lon="-1.0822">
        <ele>1.7</ele>
        <time>2020-06-02T14:50:20Z</time>
      </trkpt>
      <trkpt lat="46.32123" lon="-1.0822">
        <ele>1.7</ele>
        <time>2020-06-02T14:50:21Z</time>
      </trkpt>
      <trkpt lat="46.32118" lon="-1.08221">
        <ele>1.7</ele>
        <time>2020-06-02T14:50:22Z</time>
      </trkpt>
      <trkpt lat="46.32113" lon="-1.08222">
        <ele>1.8</ele>
        <time>2020-06-02T14:50:23Z</time>
      </trkpt>
      <trkpt lat="46.32108" lon="-1.08224">
        <ele>1.8</ele>
        <time>2020-06-02T14:50:24Z</time>
      </trkpt>
      <trkpt lat="46.32103" lon="-1.08225">
        <ele>1.8</ele>
        <time>2020-06-02T14:50:25Z</time>
      </trkpt>
      <trkpt lat="46.32098" lon="-1.08226">
        <ele>1.8</ele>
        <time>2020-06-02T14:50:26Z</time>
      </trkpt>
      <trkpt lat="46.32093" lon="-1.08226">
        <ele>1.8</ele>
        <time>2020-06-02T14:50:27Z</time>
      </trkpt>
      <trkpt lat="46.32088" lon="-1.08227">
        <ele>1.8</ele>
        <time>2020-06-02T14:50:28Z</time>
      </trkpt>
      <trkpt lat="46.32083" lon="-1.08227">
        <ele>1.8</ele>
        <time>2020-06-02T14:50:29Z</time>
      </trkpt>
      <trkpt lat="46.32078" lon="-1.08228">
        <ele>1.8</ele>
        <time>2020-06-02T14:50:30Z</time>
      </trkpt>
      <trkpt lat="46.32072" lon="-1.08228">
        <ele>1.8</ele>
        <time>2020-06-02T14:50:31Z</time>
      </trkpt>
      <trkpt lat="46.32067" lon="-1.08229">
        <ele>1.8</ele>
        <time>2020-06-02T14:50:32Z</time>
      </trkpt>
      <trkpt lat="46.32062" lon="-1.08229">
        <ele>1.8</ele>
        <time>2020-06-02T14:50:33Z</time>
      </trkpt>
      <trkpt lat="46.32056" lon="-1.08229">
        <ele>1.8</ele>
        <time>2020-06-02T14:50:34Z</time>
      </trkpt>
      <trkpt lat="46.3205" lon="-1.08229">
        <ele>1.8</ele>
        <time>2020-06-02T14:50:35Z</time>
      </trkpt>
      <trkpt lat="46.32045" lon="-1.08229">
        <ele>1.8</ele>
        <time>2020-06-02T14:50:36Z</time>
      </trkpt>
      <trkpt lat="46.32039" lon="-1.0823">
        <ele>1.8</ele>
        <time>2020-06-02T14:50:37Z</time>
      </trkpt>
      <trkpt lat="46.32033" lon="-1.0823">
        <ele>1.8</ele>
        <time>2020-06-02T14:50:38Z</time>
      </trkpt>
      <trkpt lat="46.32028" lon="-1.0823">
        <ele>1.8</ele>
        <time>2020-06-02T14:50:39Z</time>
      </trkpt>
      <trkpt lat="46.32022" lon="-1.0823">
        <ele>1.8</ele>
        <time>2020-06-02T14:50:40Z</time>
      </trkpt>
      <trkpt lat="46.32016" lon="-1.08231">
        <ele>1.9</ele>
        <time>2020-06-02T14:50:41Z</time>
      </trkpt>
      <trkpt lat="46.3201" lon="-1.08231">
        <ele>1.9</ele>
        <time>2020-06-02T14:50:42Z</time>
      </trkpt>
      <trkpt lat="46.32005" lon="-1.08231">
        <ele>1.9</ele>
        <time>2020-06-02T14:50:43Z</time>
      </trkpt>
      <trkpt lat="46.31999" lon="-1.08232">
        <ele>1.9</ele>
        <time>2020-06-02T14:50:44Z</time>
      </trkpt>
      <trkpt lat="46.31994" lon="-1.08233">
        <ele>1.9</ele>
        <time>2020-06-02T14:50:45Z</time>
      </trkpt>
      <trkpt lat="46.31989" lon="-1.08233">
        <ele>1.9</ele>
        <time>2020-06-02T14:50:46Z</time>
      </trkpt>
      <trkpt lat="46.31983" lon="-1.08233">
        <ele>1.9</ele>
        <time>2020-06-02T14:50:47Z</time>
      </trkpt>
      <trkpt lat="46.31978" lon="-1.08235">
        <ele>1.9</ele>
        <time>2020-06-02T14:50:48Z</time>
      </trkpt>
      <trkpt lat="46.31972" lon="-1.08235">
        <ele>2</ele>
        <time>2020-06-02T14:50:49Z</time>
      </trkpt>
      <trkpt lat="46.31967" lon="-1.08237">
        <ele>2</ele>
        <time>2020-06-02T14:50:50Z</time>
      </trkpt>
      <trkpt lat="46.31961" lon="-1.08236">
        <ele>2</ele>
        <time>2020-06-02T14:50:51Z</time>
      </trkpt>
      <trkpt lat="46.31956" lon="-1.08236">
        <ele>2</ele>
        <time>2020-06-02T14:50:52Z</time>
      </trkpt>
      <trkpt lat="46.3195" lon="-1.08236">
        <ele>2</ele>
        <time>2020-06-02T14:50:53Z</time>
      </trkpt>
      <trkpt lat="46.31945" lon="-1.08237">
        <ele>2.1</ele>
        <time>2020-06-02T14:50:54Z</time>
      </trkpt>
      <trkpt lat="46.3194" lon="-1.08237">
        <ele>2.1</ele>
        <time>2020-06-02T14:50:55Z</time>
      </trkpt>
      <trkpt lat="46.31935" lon="-1.08236">
        <ele>2.1</ele>
        <time>2020-06-02T14:50:56Z</time>
      </trkpt>
      <trkpt lat="46.3193" lon="-1.08237">
        <ele>2.1</ele>
        <time>2020-06-02T14:50:57Z</time>
      </trkpt>
      <trkpt lat="46.31925" lon="-1.08237">
        <ele>2.1</ele>
        <time>2020-06-02T14:50:58Z</time>
      </trkpt>
      <trkpt lat="46.31919" lon="-1.08237">
        <ele>2.2</ele>
        <time>2020-06-02T14:50:59Z</time>
      </trkpt>
      <trkpt lat="46.31914" lon="-1.08238">
        <ele>2.2</ele>
        <time>2020-06-02T14:51:00Z</time>
      </trkpt>
      <trkpt lat="46.31908" lon="-1.08238">
        <ele>2.2</ele>
        <time>2020-06-02T14:51:01Z</time>
      </trkpt>
      <trkpt lat="46.31903" lon="-1.08238">
        <ele>2.2</ele>
        <time>2020-06-02T14:51:02Z</time>
      </trkpt>
      <trkpt lat="46.31898" lon="-1.08238">
        <ele>2.2</ele>
        <time>2020-06-02T14:51:03Z</time>
      </trkpt>
      <trkpt lat="46.31892" lon="-1.08239">
        <ele>2.2</ele>
        <time>2020-06-02T14:51:04Z</time>
      </trkpt>
      <trkpt lat="46.31887" lon="-1.08239">
        <ele>2.3</ele>
        <time>2020-06-02T14:51:05Z</time>
      </trkpt>
      <trkpt lat="46.31881" lon="-1.08241">
        <ele>2.3</ele>
        <time>2020-06-02T14:51:06Z</time>
      </trkpt>
      <trkpt lat="46.31876" lon="-1.08242">
        <ele>2.3</ele>
        <time>2020-06-02T14:51:07Z</time>
      </trkpt>
      <trkpt lat="46.3187" lon="-1.08244">
        <ele>2.3</ele>
        <time>2020-06-02T14:51:08Z</time>
      </trkpt>
      <trkpt lat="46.31865" lon="-1.08246">
        <ele>2.3</ele>
        <time>2020-06-02T14:51:09Z</time>
      </trkpt>
      <trkpt lat="46.3186" lon="-1.08248">
        <ele>2.4</ele>
        <time>2020-06-02T14:51:10Z</time>
      </trkpt>
      <trkpt lat="46.31855" lon="-1.08248">
        <ele>2.4</ele>
        <time>2020-06-02T14:51:11Z</time>
      </trkpt>
      <trkpt lat="46.3185" lon="-1.08249">
        <ele>2.4</ele>
        <time>2020-06-02T14:51:12Z</time>
      </trkpt>
      <trkpt lat="46.31845" lon="-1.0825">
        <ele>2.4</ele>
        <time>2020-06-02T14:51:13Z</time>
      </trkpt>
      <trkpt lat="46.31839" lon="-1.0825">
        <ele>2.4</ele>
        <time>2020-06-02T14:51:14Z</time>
      </trkpt>
      <trkpt lat="46.31834" lon="-1.08251">
        <ele>2.5</ele>
        <time>2020-06-02T14:51:15Z</time>
      </trkpt>
      <trkpt lat="46.31828" lon="-1.0825">
        <ele>2.5</ele>
        <time>2020-06-02T14:51:16Z</time>
      </trkpt>
      <trkpt lat="46.31823" lon="-1.08249">
        <ele>2.5</ele>
        <time>2020-06-02T14:51:17Z</time>
      </trkpt>
      <trkpt lat="46.31817" lon="-1.08249">
        <ele>2.5</ele>
        <time>2020-06-02T14:51:18Z</time>
      </trkpt>
      <trkpt lat="46.31812" lon="-1.08249">
        <ele>2.5</ele>
        <time>2020-06-02T14:51:19Z</time>
      </trkpt>
      <trkpt lat="46.31807" lon="-1.08248">
        <ele>2.6</ele>
        <time>2020-06-02T14:51:20Z</time>
      </trkpt>
      <trkpt lat="46.31802" lon="-1.08246">
        <ele>2.6</ele>
        <time>2020-06-02T14:51:21Z</time>
      </trkpt>
      <trkpt lat="46.31798" lon="-1.08245">
        <ele>2.6</ele>
        <time>2020-06-02T14:51:22Z</time>
      </trkpt>
      <trkpt lat="46.31794" lon="-1.08244">
        <ele>2.6</ele>
        <time>2020-06-02T14:51:23Z</time>
      </trkpt>
      <trkpt lat="46.3179" lon="-1.08245">
        <ele>2.6</ele>
        <time>2020-06-02T14:51:24Z</time>
      </trkpt>
      <trkpt lat="46.31789" lon="-1.08245">
        <ele>2.6</ele>
        <time>2020-06-02T14:51:25Z</time>
      </trkpt>
      <trkpt lat="46.31788" lon="-1.08248">
        <ele>2.6</ele>
        <time>2020-06-02T14:51:26Z</time>
      </trkpt>
      <trkpt lat="46.31789" lon="-1.08254">
        <ele>2.8</ele>
        <time>2020-06-02T14:51:27Z</time>
      </trkpt>
      <trkpt lat="46.3179" lon="-1.08261">
        <ele>2.9</ele>
        <time>2020-06-02T14:51:28Z</time>
      </trkpt>
      <trkpt lat="46.3179" lon="-1.08269">
        <ele>3</ele>
        <time>2020-06-02T14:51:29Z</time>
      </trkpt>
      <trkpt lat="46.31789" lon="-1.08275">
        <ele>3.1</ele>
        <time>2020-06-02T14:51:30Z</time>
      </trkpt>
      <trkpt lat="46.3179" lon="-1.0828">
        <ele>3.2</ele>
        <time>2020-06-02T14:51:31Z</time>
      </trkpt>
      <trkpt lat="46.31789" lon="-1.08286">
        <ele>3.7</ele>
        <time>2020-06-02T14:51:32Z</time>
      </trkpt>
      <trkpt lat="46.3179" lon="-1.08291">
        <ele>3.8</ele>
        <time>2020-06-02T14:51:33Z</time>
      </trkpt>
      <trkpt lat="46.31787" lon="-1.08294">
        <ele>3.9</ele>
        <time>2020-06-02T14:51:34Z</time>
      </trkpt>
      <trkpt lat="46.31786" lon="-1.08295">
        <ele>3.9</ele>
        <time>2020-06-02T14:51:35Z</time>
      </trkpt>
      <trkpt lat="46.31784" lon="-1.08295">
        <ele>3.9</ele>
        <time>2020-06-02T14:51:36Z</time>
      </trkpt>
      <trkpt lat="46.31781" lon="-1.08294">
        <ele>4</ele>
        <time>2020-06-02T14:51:37Z</time>
      </trkpt>
      <trkpt lat="46.31778" lon="-1.08293">
        <ele>4.1</ele>
        <time>2020-06-02T14:51:38Z</time>
      </trkpt>
      <trkpt lat="46.31775" lon="-1.08293">
        <ele>4.1</ele>
        <time>2020-06-02T14:51:39Z</time>
      </trkpt>
      <trkpt lat="46.31772" lon="-1.08292">
        <ele>4.2</ele>
        <time>2020-06-02T14:51:40Z</time>
      </trkpt>
      <trkpt lat="46.31768" lon="-1.08292">
        <ele>4.3</ele>
        <time>2020-06-02T14:51:41Z</time>
      </trkpt>
      <trkpt lat="46.31767" lon="-1.08292">
        <ele>4.3</ele>
        <time>2020-06-02T14:51:42Z</time>
      </trkpt>
      <trkpt lat="46.31766" lon="-1.08291">
        <ele>4.3</ele>
        <time>2020-06-02T14:51:43Z</time>
      </trkpt>
      <trkpt lat="46.31764" lon="-1.0829">
        <ele>4.4</ele>
        <time>2020-06-02T14:51:44Z</time>
      </trkpt>
      <trkpt lat="46.31763" lon="-1.08291">
        <ele>4.4</ele>
        <time>2020-06-02T14:51:45Z</time>
      </trkpt>
      <trkpt lat="46.31764" lon="-1.08294">
        <ele>4.4</ele>
        <time>2020-06-02T14:51:46Z</time>
      </trkpt>
      <trkpt lat="46.31764" lon="-1.08299">
        <ele>4.4</ele>
        <time>2020-06-02T14:51:47Z</time>
      </trkpt>
      <trkpt lat="46.31764" lon="-1.08304">
        <ele>4.5</ele>
        <time>2020-06-02T14:51:48Z</time>
      </trkpt>
      <trkpt lat="46.31763" lon="-1.08309">
        <ele>4.5</ele>
        <time>2020-06-02T14:51:49Z</time>
      </trkpt>
      <trkpt lat="46.31763" lon="-1.08315">
        <ele>4.5</ele>
        <time>2020-06-02T14:51:50Z</time>
      </trkpt>
      <trkpt lat="46.31763" lon="-1.08321">
        <ele>4.5</ele>
        <time>2020-06-02T14:51:51Z</time>
      </trkpt>
      <trkpt lat="46.31762" lon="-1.08327">
        <ele>4.5</ele>
        <time>2020-06-02T14:51:52Z</time>
      </trkpt>
      <trkpt lat="46.31761" lon="-1.08333">
        <ele>4.5</ele>
        <time>2020-06-02T14:51:53Z</time>
      </trkpt>
      <trkpt lat="46.31761" lon="-1.08338">
        <ele>4.5</ele>
        <time>2020-06-02T14:51:54Z</time>
      </trkpt>
      <trkpt lat="46.31761" lon="-1.08344">
        <ele>4.5</ele>
        <time>2020-06-02T14:51:55Z</time>
      </trkpt>
      <trkpt lat="46.31761" lon="-1.0835">
        <ele>4.5</ele>
        <time>2020-06-02T14:51:56Z</time>
      </trkpt>
      <trkpt lat="46.31761" lon="-1.08356">
        <ele>4.6</ele>
        <time>2020-06-02T14:51:57Z</time>
      </trkpt>
      <trkpt lat="46.3176" lon="-1.08362">
        <ele>4.6</ele>
        <time>2020-06-02T14:51:58Z</time>
      </trkpt>
      <trkpt lat="46.3176" lon="-1.08368">
        <ele>4.6</ele>
        <time>2020-06-02T14:51:59Z</time>
      </trkpt>
      <trkpt lat="46.3176" lon="-1.08374">
        <ele>4.6</ele>
        <time>2020-06-02T14:52:00Z</time>
      </trkpt>
      <trkpt lat="46.31759" lon="-1.0838">
        <ele>4.6</ele>
        <time>2020-06-02T14:52:01Z</time>
      </trkpt>
      <trkpt lat="46.31759" lon="-1.08386">
        <ele>4.6</ele>
        <time>2020-06-02T14:52:02Z</time>
      </trkpt>
      <trkpt lat="46.31758" lon="-1.08392">
        <ele>4.6</ele>
        <time>2020-06-02T14:52:03Z</time>
      </trkpt>
      <trkpt lat="46.31757" lon="-1.08398">
        <ele>4.6</ele>
        <time>2020-06-02T14:52:04Z</time>
      </trkpt>
      <trkpt lat="46.31756" lon="-1.08404">
        <ele>4.6</ele>
        <time>2020-06-02T14:52:05Z</time>
      </trkpt>
      <trkpt lat="46.31755" lon="-1.0841">
        <ele>4.7</ele>
        <time>2020-06-02T14:52:06Z</time>
      </trkpt>
      <trkpt lat="46.31755" lon="-1.08417">
        <ele>4.7</ele>
        <time>2020-06-02T14:52:07Z</time>
      </trkpt>
      <trkpt lat="46.31754" lon="-1.08423">
        <ele>4.7</ele>
        <time>2020-06-02T14:52:08Z</time>
      </trkpt>
      <trkpt lat="46.31753" lon="-1.08429">
        <ele>4.8</ele>
        <time>2020-06-02T14:52:09Z</time>
      </trkpt>
      <trkpt lat="46.31753" lon="-1.08436">
        <ele>4.8</ele>
        <time>2020-06-02T14:52:10Z</time>
      </trkpt>
      <trkpt lat="46.31753" lon="-1.08441">
        <ele>4.8</ele>
        <time>2020-06-02T14:52:11Z</time>
      </trkpt>
      <trkpt lat="46.31753" lon="-1.08446">
        <ele>4.8</ele>
        <time>2020-06-02T14:52:12Z</time>
      </trkpt>
      <trkpt lat="46.31754" lon="-1.0845">
        <ele>4.9</ele>
        <time>2020-06-02T14:52:13Z</time>
      </trkpt>
      <trkpt lat="46.31756" lon="-1.08454">
        <ele>4.9</ele>
        <time>2020-06-02T14:52:14Z</time>
      </trkpt>
      <trkpt lat="46.31757" lon="-1.08458">
        <ele>4.9</ele>
        <time>2020-06-02T14:52:15Z</time>
      </trkpt>
      <trkpt lat="46.3176" lon="-1.08463">
        <ele>4.9</ele>
        <time>2020-06-02T14:52:16Z</time>
      </trkpt>
      <trkpt lat="46.31762" lon="-1.08468">
        <ele>4.9</ele>
        <time>2020-06-02T14:52:17Z</time>
      </trkpt>
      <trkpt lat="46.31764" lon="-1.08473">
        <ele>5</ele>
        <time>2020-06-02T14:52:18Z</time>
      </trkpt>
      <trkpt lat="46.31766" lon="-1.08478">
        <ele>5</ele>
        <time>2020-06-02T14:52:19Z</time>
      </trkpt>
      <trkpt lat="46.31768" lon="-1.08483">
        <ele>5</ele>
        <time>2020-06-02T14:52:20Z</time>
      </trkpt>
      <trkpt lat="46.3177" lon="-1.08488">
        <ele>5</ele>
        <time>2020-06-02T14:52:21Z</time>
      </trkpt>
      <trkpt lat="46.31772" lon="-1.08493">
        <ele>5</ele>
        <time>2020-06-02T14:52:22Z</time>
      </trkpt>
      <trkpt lat="46.31774" lon="-1.08498">
        <ele>5</ele>
        <time>2020-06-02T14:52:23Z</time>
      </trkpt>
      <trkpt lat="46.31777" lon="-1.08503">
        <ele>5</ele>
        <time>2020-06-02T14:52:24Z</time>
      </trkpt>
      <trkpt lat="46.3178" lon="-1.08508">
        <ele>5</ele>
        <time>2020-06-02T14:52:25Z</time>
      </trkpt>
      <trkpt lat="46.31782" lon="-1.08512">
        <ele>5.1</ele>
        <time>2020-06-02T14:52:26Z</time>
      </trkpt>
      <trkpt lat="46.31784" lon="-1.08516">
        <ele>5.1</ele>
        <time>2020-06-02T14:52:27Z</time>
      </trkpt>
      <trkpt lat="46.31785" lon="-1.08519">
        <ele>5.1</ele>
        <time>2020-06-02T14:52:28Z</time>
      </trkpt>
      <trkpt lat="46.31786" lon="-1.0852">
        <ele>5.1</ele>
        <time>2020-06-02T14:52:29Z</time>
      </trkpt>
      <trkpt lat="46.31786" lon="-1.0852">
        <ele>5.1</ele>
        <time>2020-06-02T14:52:30Z</time>
      </trkpt>
      <trkpt lat="46.31787" lon="-1.08519">
        <ele>5.1</ele>
        <time>2020-06-02T14:52:31Z</time>
      </trkpt>
      <trkpt lat="46.31787" lon="-1.08519">
        <ele>5.1</ele>
        <time>2020-06-02T14:52:32Z</time>
      </trkpt>
      <trkpt lat="46.31787" lon="-1.08519">
        <ele>5.1</ele>
        <time>2020-06-02T14:52:33Z</time>
      </trkpt>
      <trkpt lat="46.31787" lon="-1.08519">
        <ele>5.1</ele>
        <time>2020-06-02T14:52:34Z</time>
      </trkpt>
      <trkpt lat="46.31787" lon="-1.08519">
        <ele>5.1</ele>
        <time>2020-06-02T14:52:35Z</time>
      </trkpt>
      <trkpt lat="46.31787" lon="-1.08519">
        <ele>5.1</ele>
        <time>2020-06-02T14:52:36Z</time>
      </trkpt>
      <trkpt lat="46.31787" lon="-1.08519">
        <ele>5.1</ele>
        <time>2020-06-02T14:52:37Z</time>
      </trkpt>
      <trkpt lat="46.31787" lon="-1.08519">
        <ele>5.1</ele>
        <time>2020-06-02T14:52:38Z</time>
      </trkpt>
      <trkpt lat="46.31788" lon="-1.08518">
        <ele>5.1</ele>
        <time>2020-06-02T14:52:39Z</time>
      </trkpt>
      <trkpt lat="46.31787" lon="-1.08519">
        <ele>5.1</ele>
        <time>2020-06-02T14:52:40Z</time>
      </trkpt>
      <trkpt lat="46.31787" lon="-1.0852">
        <ele>5.1</ele>
        <time>2020-06-02T14:52:41Z</time>
      </trkpt>
      <trkpt lat="46.31787" lon="-1.0852">
        <ele>5.1</ele>
        <time>2020-06-02T14:52:42Z</time>
      </trkpt>
      <trkpt lat="46.31787" lon="-1.0852">
        <ele>5.1</ele>
        <time>2020-06-02T14:52:43Z</time>
      </trkpt>
      <trkpt lat="46.31787" lon="-1.0852">
        <ele>5.1</ele>
        <time>2020-06-02T14:52:44Z</time>
      </trkpt>
      <trkpt lat="46.31787" lon="-1.08519">
        <ele>5.1</ele>
        <time>2020-06-02T14:52:45Z</time>
      </trkpt>
      <trkpt lat="46.31787" lon="-1.08519">
        <ele>5.1</ele>
        <time>2020-06-02T14:52:46Z</time>
      </trkpt>
      <trkpt lat="46.31787" lon="-1.08519">
        <ele>5.1</ele>
        <time>2020-06-02T14:52:47Z</time>
      </trkpt>
      <trkpt lat="46.31787" lon="-1.08519">
        <ele>5.1</ele>
        <time>2020-06-02T14:52:48Z</time>
      </trkpt>
      <trkpt lat="46.31787" lon="-1.0852">
        <ele>5.1</ele>
        <time>2020-06-02T14:52:49Z</time>
      </trkpt>
      <trkpt lat="46.31786" lon="-1.0852">
        <ele>5.1</ele>
        <time>2020-06-02T14:52:50Z</time>
      </trkpt>
      <trkpt lat="46.31786" lon="-1.0852">
        <ele>5.1</ele>
        <time>2020-06-02T14:52:51Z</time>
      </trkpt>
      <trkpt lat="46.31786" lon="-1.0852">
        <ele>5.1</ele>
        <time>2020-06-02T14:52:52Z</time>
      </trkpt>
      <trkpt lat="46.31787" lon="-1.08519">
        <ele>5.1</ele>
        <time>2020-06-02T14:52:53Z</time>
      </trkpt>
      <trkpt lat="46.31786" lon="-1.08519">
        <ele>5.1</ele>
        <time>2020-06-02T14:52:54Z</time>
      </trkpt>
      <trkpt lat="46.31786" lon="-1.08519">
        <ele>5.1</ele>
        <time>2020-06-02T14:52:55Z</time>
      </trkpt>
      <trkpt lat="46.31786" lon="-1.0852">
        <ele>5.1</ele>
        <time>2020-06-02T14:52:56Z</time>
      </trkpt>
      <trkpt lat="46.31786" lon="-1.08519">
        <ele>5.1</ele>
        <time>2020-06-02T14:52:57Z</time>
      </trkpt>
      <trkpt lat="46.31786" lon="-1.0852">
        <ele>5.1</ele>
        <time>2020-06-02T14:52:58Z</time>
      </trkpt>
      <trkpt lat="46.31786" lon="-1.0852">
        <ele>5.1</ele>
        <time>2020-06-02T14:52:59Z</time>
      </trkpt>
      <trkpt lat="46.31787" lon="-1.0852">
        <ele>5.1</ele>
        <time>2020-06-02T14:53:00Z</time>
      </trkpt>
      <trkpt lat="46.31787" lon="-1.0852">
        <ele>5.1</ele>
        <time>2020-06-02T14:53:01Z</time>
      </trkpt>
      <trkpt lat="46.31787" lon="-1.0852">
        <ele>5.1</ele>
        <time>2020-06-02T14:53:02Z</time>
      </trkpt>
      <trkpt lat="46.31786" lon="-1.0852">
        <ele>5.1</ele>
        <time>2020-06-02T14:53:03Z</time>
      </trkpt>
      <trkpt lat="46.31786" lon="-1.0852">
        <ele>5.1</ele>
        <time>2020-06-02T14:53:04Z</time>
      </trkpt>
      <trkpt lat="46.31786" lon="-1.08521">
        <ele>5.1</ele>
        <time>2020-06-02T14:53:05Z</time>
      </trkpt>
      <trkpt lat="46.31785" lon="-1.08521">
        <ele>5.1</ele>
        <time>2020-06-02T14:53:06Z</time>
      </trkpt>
      <trkpt lat="46.31785" lon="-1.08521">
        <ele>5.2</ele>
        <time>2020-06-02T14:53:07Z</time>
      </trkpt>
      <trkpt lat="46.31785" lon="-1.08521">
        <ele>5.2</ele>
        <time>2020-06-02T14:53:08Z</time>
      </trkpt>
      <trkpt lat="46.31785" lon="-1.08522">
        <ele>5.2</ele>
        <time>2020-06-02T14:53:09Z</time>
      </trkpt>
      <trkpt lat="46.31785" lon="-1.08521">
        <ele>5.2</ele>
        <time>2020-06-02T14:53:10Z</time>
      </trkpt>
      <trkpt lat="46.31785" lon="-1.08521">
        <ele>5.2</ele>
        <time>2020-06-02T14:53:11Z</time>
      </trkpt>
      <trkpt lat="46.31786" lon="-1.0852">
        <ele>5.2</ele>
        <time>2020-06-02T14:53:12Z</time>
      </trkpt>
      <trkpt lat="46.31787" lon="-1.0852">
        <ele>5.2</ele>
        <time>2020-06-02T14:53:13Z</time>
      </trkpt>
      <trkpt lat="46.31787" lon="-1.0852">
        <ele>5.2</ele>
        <time>2020-06-02T14:53:14Z</time>
      </trkpt>
      <trkpt lat="46.31788" lon="-1.08519">
        <ele>5.2</ele>
        <time>2020-06-02T14:53:15Z</time>
      </trkpt>
      <trkpt lat="46.31788" lon="-1.08519">
        <ele>5.2</ele>
        <time>2020-06-02T14:53:16Z</time>
      </trkpt>
      <trkpt lat="46.31788" lon="-1.08519">
        <ele>5.2</ele>
        <time>2020-06-02T14:53:17Z</time>
      </trkpt>
      <trkpt lat="46.31788" lon="-1.08519">
        <ele>5.2</ele>
        <time>2020-06-02T14:53:18Z</time>
      </trkpt>
      <trkpt lat="46.31787" lon="-1.08519">
        <ele>5.2</ele>
        <time>2020-06-02T14:53:19Z</time>
      </trkpt>
      <trkpt lat="46.31787" lon="-1.0852">
        <ele>5.2</ele>
        <time>2020-06-02T14:53:20Z</time>
      </trkpt>
      <trkpt lat="46.31787" lon="-1.0852">
        <ele>5.2</ele>
        <time>2020-06-02T14:53:21Z</time>
      </trkpt>
      <trkpt lat="46.31787" lon="-1.0852">
        <ele>5.2</ele>
        <time>2020-06-02T14:53:22Z</time>
      </trkpt>
      <trkpt lat="46.31787" lon="-1.0852">
        <ele>5.2</ele>
        <time>2020-06-02T14:53:23Z</time>
      </trkpt>
      <trkpt lat="46.31788" lon="-1.0852">
        <ele>5.2</ele>
        <time>2020-06-02T14:53:24Z</time>
      </trkpt>
      <trkpt lat="46.31788" lon="-1.0852">
        <ele>5.2</ele>
        <time>2020-06-02T14:53:25Z</time>
      </trkpt>
      <trkpt lat="46.31788" lon="-1.0852">
        <ele>5.2</ele>
        <time>2020-06-02T14:53:26Z</time>
      </trkpt>
      <trkpt lat="46.31787" lon="-1.0852">
        <ele>5.2</ele>
        <time>2020-06-02T14:53:27Z</time>
      </trkpt>
      <trkpt lat="46.31787" lon="-1.08521">
        <ele>5.2</ele>
        <time>2020-06-02T14:53:28Z</time>
      </trkpt>
      <trkpt lat="46.31787" lon="-1.08521">
        <ele>5.2</ele>
        <time>2020-06-02T14:53:29Z</time>
      </trkpt>
      <trkpt lat="46.31787" lon="-1.08521">
        <ele>5.2</ele>
        <time>2020-06-02T14:53:30Z</time>
      </trkpt>
      <trkpt lat="46.31787" lon="-1.08521">
        <ele>5.2</ele>
        <time>2020-06-02T14:53:31Z</time>
      </trkpt>
      <trkpt lat="46.31787" lon="-1.08521">
        <ele>5.2</ele>
        <time>2020-06-02T14:53:32Z</time>
      </trkpt>
      <trkpt lat="46.31787" lon="-1.08521">
        <ele>5.2</ele>
        <time>2020-06-02T14:53:33Z</time>
      </trkpt>
      <trkpt lat="46.31787" lon="-1.08521">
        <ele>5.2</ele>
        <time>2020-06-02T14:53:34Z</time>
      </trkpt>
      <trkpt lat="46.31787" lon="-1.08521">
        <ele>5.2</ele>
        <time>2020-06-02T14:53:35Z</time>
      </trkpt>
      <trkpt lat="46.31787" lon="-1.08522">
        <ele>5.2</ele>
        <time>2020-06-02T14:53:36Z</time>
      </trkpt>
      <trkpt lat="46.31787" lon="-1.08522">
        <ele>5.2</ele>
        <time>2020-06-02T14:53:37Z</time>
      </trkpt>
      <trkpt lat="46.31787" lon="-1.08522">
        <ele>5.2</ele>
        <time>2020-06-02T14:53:38Z</time>
      </trkpt>
      <trkpt lat="46.31787" lon="-1.08521">
        <ele>5.2</ele>
        <time>2020-06-02T14:53:39Z</time>
      </trkpt>
      <trkpt lat="46.31787" lon="-1.08521">
        <ele>5.2</ele>
        <time>2020-06-02T14:53:40Z</time>
      </trkpt>
      <trkpt lat="46.31786" lon="-1.08522">
        <ele>5.2</ele>
        <time>2020-06-02T14:53:41Z</time>
      </trkpt>
      <trkpt lat="46.31786" lon="-1.08521">
        <ele>5.2</ele>
        <time>2020-06-02T14:53:42Z</time>
      </trkpt>
      <trkpt lat="46.31786" lon="-1.08522">
        <ele>5.2</ele>
        <time>2020-06-02T14:53:43Z</time>
      </trkpt>
      <trkpt lat="46.31787" lon="-1.08522">
        <ele>5.2</ele>
        <time>2020-06-02T14:53:44Z</time>
      </trkpt>
      <trkpt lat="46.31787" lon="-1.08522">
        <ele>5.2</ele>
        <time>2020-06-02T14:53:45Z</time>
      </trkpt>
      <trkpt lat="46.31788" lon="-1.08522">
        <ele>5.2</ele>
        <time>2020-06-02T14:53:46Z</time>
      </trkpt>
      <trkpt lat="46.31787" lon="-1.08522">
        <ele>5.2</ele>
        <time>2020-06-02T14:53:47Z</time>
      </trkpt>
      <trkpt lat="46.31787" lon="-1.08522">
        <ele>5.2</ele>
        <time>2020-06-02T14:53:48Z</time>
      </trkpt>
      <trkpt lat="46.31787" lon="-1.08523">
        <ele>5.2</ele>
        <time>2020-06-02T14:53:49Z</time>
      </trkpt>
      <trkpt lat="46.31787" lon="-1.08523">
        <ele>5.2</ele>
        <time>2020-06-02T14:53:50Z</time>
      </trkpt>
      <trkpt lat="46.31787" lon="-1.08523">
        <ele>5.2</ele>
        <time>2020-06-02T14:53:51Z</time>
      </trkpt>
      <trkpt lat="46.31788" lon="-1.08522">
        <ele>5.2</ele>
        <time>2020-06-02T14:53:52Z</time>
      </trkpt>
      <trkpt lat="46.31788" lon="-1.08521">
        <ele>5.2</ele>
        <time>2020-06-02T14:53:53Z</time>
      </trkpt>
      <trkpt lat="46.31788" lon="-1.08522">
        <ele>5.2</ele>
        <time>2020-06-02T14:53:54Z</time>
      </trkpt>
      <trkpt lat="46.31788" lon="-1.08521">
        <ele>5.2</ele>
        <time>2020-06-02T14:53:55Z</time>
      </trkpt>
      <trkpt lat="46.31789" lon="-1.0852">
        <ele>5.2</ele>
        <time>2020-06-02T14:53:56Z</time>
      </trkpt>
      <trkpt lat="46.31789" lon="-1.0852">
        <ele>5.2</ele>
        <time>2020-06-02T14:53:57Z</time>
      </trkpt>
      <trkpt lat="46.31789" lon="-1.08522">
        <ele>5.2</ele>
        <time>2020-06-02T14:53:58Z</time>
      </trkpt>
      <trkpt lat="46.3179" lon="-1.08523">
        <ele>5.2</ele>
        <time>2020-06-02T14:53:59Z</time>
      </trkpt>
      <trkpt lat="46.31791" lon="-1.08523">
        <ele>5.2</ele>
        <time>2020-06-02T14:54:00Z</time>
      </trkpt>
      <trkpt lat="46.31791" lon="-1.08523">
        <ele>5.2</ele>
        <time>2020-06-02T14:54:01Z</time>
      </trkpt>
      <trkpt lat="46.31792" lon="-1.08523">
        <ele>5.2</ele>
        <time>2020-06-02T14:54:02Z</time>
      </trkpt>
      <trkpt lat="46.31792" lon="-1.08524">
        <ele>5.2</ele>
        <time>2020-06-02T14:54:03Z</time>
      </trkpt>
      <trkpt lat="46.31792" lon="-1.08524">
        <ele>5.2</ele>
        <time>2020-06-02T14:54:04Z</time>
      </trkpt>
      <trkpt lat="46.31793" lon="-1.08524">
        <ele>5.2</ele>
        <time>2020-06-02T14:54:05Z</time>
      </trkpt>
      <trkpt lat="46.31793" lon="-1.08524">
        <ele>5.2</ele>
        <time>2020-06-02T14:54:06Z</time>
      </trkpt>
      <trkpt lat="46.31793" lon="-1.08524">
        <ele>5.2</ele>
        <time>2020-06-02T14:54:07Z</time>
      </trkpt>
      <trkpt lat="46.31794" lon="-1.08524">
        <ele>5.2</ele>
        <time>2020-06-02T14:54:08Z</time>
      </trkpt>
      <trkpt lat="46.31794" lon="-1.08525">
        <ele>5.2</ele>
        <time>2020-06-02T14:54:09Z</time>
      </trkpt>
      <trkpt lat="46.31794" lon="-1.08525">
        <ele>5.2</ele>
        <time>2020-06-02T14:54:10Z</time>
      </trkpt>
      <trkpt lat="46.31796" lon="-1.08525">
        <ele>5.2</ele>
        <time>2020-06-02T14:54:11Z</time>
      </trkpt>
      <trkpt lat="46.31797" lon="-1.08524">
        <ele>5.2</ele>
        <time>2020-06-02T14:54:12Z</time>
      </trkpt>
      <trkpt lat="46.31797" lon="-1.08524">
        <ele>5.2</ele>
        <time>2020-06-02T14:54:13Z</time>
      </trkpt>
      <trkpt lat="46.31797" lon="-1.08524">
        <ele>5.2</ele>
        <time>2020-06-02T14:54:14Z</time>
      </trkpt>
      <trkpt lat="46.31797" lon="-1.08523">
        <ele>5.2</ele>
        <time>2020-06-02T14:54:15Z</time>
      </trkpt>
      <trkpt lat="46.31798" lon="-1.08521">
        <ele>5.2</ele>
        <time>2020-06-02T14:54:16Z</time>
      </trkpt>
      <trkpt lat="46.31798" lon="-1.0852">
        <ele>5.2</ele>
        <time>2020-06-02T14:54:17Z</time>
      </trkpt>
      <trkpt lat="46.31797" lon="-1.08518">
        <ele>5.2</ele>
        <time>2020-06-02T14:54:18Z</time>
      </trkpt>
      <trkpt lat="46.31797" lon="-1.08518">
        <ele>5.2</ele>
        <time>2020-06-02T14:54:19Z</time>
      </trkpt>
      <trkpt lat="46.31798" lon="-1.08517">
        <ele>5.2</ele>
        <time>2020-06-02T14:54:20Z</time>
      </trkpt>
      <trkpt lat="46.31797" lon="-1.08516">
        <ele>5.2</ele>
        <time>2020-06-02T14:54:21Z</time>
      </trkpt>
      <trkpt lat="46.31797" lon="-1.08515">
        <ele>5.2</ele>
        <time>2020-06-02T14:54:22Z</time>
      </trkpt>
      <trkpt lat="46.31796" lon="-1.08515">
        <ele>5.2</ele>
        <time>2020-06-02T14:54:23Z</time>
      </trkpt>
      <trkpt lat="46.31797" lon="-1.08514">
        <ele>5.2</ele>
        <time>2020-06-02T14:54:24Z</time>
      </trkpt>
      <trkpt lat="46.31797" lon="-1.08515">
        <ele>5.2</ele>
        <time>2020-06-02T14:54:25Z</time>
      </trkpt>
      <trkpt lat="46.31796" lon="-1.08514">
        <ele>5.2</ele>
        <time>2020-06-02T14:54:26Z</time>
      </trkpt>
      <trkpt lat="46.31796" lon="-1.08513">
        <ele>5.2</ele>
        <time>2020-06-02T14:54:27Z</time>
      </trkpt>
      <trkpt lat="46.31796" lon="-1.08513">
        <ele>5.2</ele>
        <time>2020-06-02T14:54:28Z</time>
      </trkpt>
      <trkpt lat="46.31796" lon="-1.08513">
        <ele>5.2</ele>
        <time>2020-06-02T14:54:29Z</time>
      </trkpt>
      <trkpt lat="46.31796" lon="-1.08513">
        <ele>5.2</ele>
        <time>2020-06-02T14:54:30Z</time>
      </trkpt>
      <trkpt lat="46.31796" lon="-1.08513">
        <ele>5.2</ele>
        <time>2020-06-02T14:54:31Z</time>
      </trkpt>
      <trkpt lat="46.31796" lon="-1.08513">
        <ele>5.2</ele>
        <time>2020-06-02T14:54:32Z</time>
      </trkpt>
      <trkpt lat="46.31796" lon="-1.08515">
        <ele>5.2</ele>
        <time>2020-06-02T14:54:33Z</time>
      </trkpt>
      <trkpt lat="46.31796" lon="-1.08515">
        <ele>5.2</ele>
        <time>2020-06-02T14:54:34Z</time>
      </trkpt>
      <trkpt lat="46.31796" lon="-1.08515">
        <ele>5.2</ele>
        <time>2020-06-02T14:54:35Z</time>
      </trkpt>
      <trkpt lat="46.31796" lon="-1.08516">
        <ele>5.2</ele>
        <time>2020-06-02T14:54:36Z</time>
      </trkpt>
      <trkpt lat="46.31796" lon="-1.08517">
        <ele>5.2</ele>
        <time>2020-06-02T14:54:37Z</time>
      </trkpt>
      <trkpt lat="46.31796" lon="-1.08517">
        <ele>5.2</ele>
        <time>2020-06-02T14:54:38Z</time>
      </trkpt>
      <trkpt lat="46.31796" lon="-1.08517">
        <ele>5.2</ele>
        <time>2020-06-02T14:54:39Z</time>
      </trkpt>
      <trkpt lat="46.31795" lon="-1.08517">
        <ele>5.2</ele>
        <time>2020-06-02T14:54:40Z</time>
      </trkpt>
      <trkpt lat="46.31795" lon="-1.08517">
        <ele>5.2</ele>
        <time>2020-06-02T14:54:41Z</time>
      </trkpt>
      <trkpt lat="46.31794" lon="-1.08518">
        <ele>5.2</ele>
        <time>2020-06-02T14:54:42Z</time>
      </trkpt>
      <trkpt lat="46.31793" lon="-1.08518">
        <ele>5.2</ele>
        <time>2020-06-02T14:54:43Z</time>
      </trkpt>
      <trkpt lat="46.31793" lon="-1.08519">
        <ele>5.2</ele>
        <time>2020-06-02T14:54:44Z</time>
      </trkpt>
      <trkpt lat="46.31794" lon="-1.08519">
        <ele>5.2</ele>
        <time>2020-06-02T14:54:45Z</time>
      </trkpt>
      <trkpt lat="46.31794" lon="-1.0852">
        <ele>5.2</ele>
        <time>2020-06-02T14:54:46Z</time>
      </trkpt>
      <trkpt lat="46.31794" lon="-1.08521">
        <ele>5.2</ele>
        <time>2020-06-02T14:54:47Z</time>
      </trkpt>
      <trkpt lat="46.31794" lon="-1.08521">
        <ele>5.2</ele>
        <time>2020-06-02T14:54:48Z</time>
      </trkpt>
      <trkpt lat="46.31794" lon="-1.08521">
        <ele>5.2</ele>
        <time>2020-06-02T14:54:49Z</time>
      </trkpt>
      <trkpt lat="46.31794" lon="-1.08521">
        <ele>5.2</ele>
        <time>2020-06-02T14:54:50Z</time>
      </trkpt>
      <trkpt lat="46.31794" lon="-1.08521">
        <ele>5.2</ele>
        <time>2020-06-02T14:54:51Z</time>
      </trkpt>
      <trkpt lat="46.31794" lon="-1.08521">
        <ele>5.2</ele>
        <time>2020-06-02T14:54:52Z</time>
      </trkpt>
      <trkpt lat="46.31794" lon="-1.08521">
        <ele>5.2</ele>
        <time>2020-06-02T14:54:53Z</time>
      </trkpt>
      <trkpt lat="46.31795" lon="-1.08521">
        <ele>5.2</ele>
        <time>2020-06-02T14:54:54Z</time>
      </trkpt>
      <trkpt lat="46.31794" lon="-1.08522">
        <ele>5.2</ele>
        <time>2020-06-02T14:54:55Z</time>
      </trkpt>
      <trkpt lat="46.31794" lon="-1.08523">
        <ele>5.2</ele>
        <time>2020-06-02T14:54:56Z</time>
      </trkpt>
      <trkpt lat="46.31794" lon="-1.08524">
        <ele>5.2</ele>
        <time>2020-06-02T14:54:57Z</time>
      </trkpt>
      <trkpt lat="46.31793" lon="-1.08524">
        <ele>5.2</ele>
        <time>2020-06-02T14:54:58Z</time>
      </trkpt>
      <trkpt lat="46.31793" lon="-1.08524">
        <ele>5.2</ele>
        <time>2020-06-02T14:54:59Z</time>
      </trkpt>
      <trkpt lat="46.31793" lon="-1.08524">
        <ele>5.2</ele>
        <time>2020-06-02T14:55:00Z</time>
      </trkpt>
      <trkpt lat="46.31793" lon="-1.08524">
        <ele>5.2</ele>
        <time>2020-06-02T14:55:01Z</time>
      </trkpt>
      <trkpt lat="46.31792" lon="-1.08525">
        <ele>5.2</ele>
        <time>2020-06-02T14:55:02Z</time>
      </trkpt>
      <trkpt lat="46.31791" lon="-1.08525">
        <ele>5.2</ele>
        <time>2020-06-02T14:55:03Z</time>
      </trkpt>
      <trkpt lat="46.31791" lon="-1.08525">
        <ele>5.2</ele>
        <time>2020-06-02T14:55:04Z</time>
      </trkpt>
      <trkpt lat="46.31791" lon="-1.08526">
        <ele>5.2</ele>
        <time>2020-06-02T14:55:05Z</time>
      </trkpt>
      <trkpt lat="46.31791" lon="-1.08526">
        <ele>5.2</ele>
        <time>2020-06-02T14:55:06Z</time>
      </trkpt>
      <trkpt lat="46.3179" lon="-1.08527">
        <ele>5.2</ele>
        <time>2020-06-02T14:55:07Z</time>
      </trkpt>
      <trkpt lat="46.3179" lon="-1.08527">
        <ele>5.2</ele>
        <time>2020-06-02T14:55:08Z</time>
      </trkpt>
      <trkpt lat="46.31789" lon="-1.08528">
        <ele>5.2</ele>
        <time>2020-06-02T14:55:09Z</time>
      </trkpt>
      <trkpt lat="46.31789" lon="-1.08528">
        <ele>5.2</ele>
        <time>2020-06-02T14:55:10Z</time>
      </trkpt>
      <trkpt lat="46.31788" lon="-1.08528">
        <ele>5.2</ele>
        <time>2020-06-02T14:55:11Z</time>
      </trkpt>
      <trkpt lat="46.31787" lon="-1.08528">
        <ele>5.2</ele>
        <time>2020-06-02T14:55:12Z</time>
      </trkpt>
      <trkpt lat="46.31786" lon="-1.08528">
        <ele>5.2</ele>
        <time>2020-06-02T14:55:13Z</time>
      </trkpt>
      <trkpt lat="46.31787" lon="-1.08528">
        <ele>5.2</ele>
        <time>2020-06-02T14:55:14Z</time>
      </trkpt>
      <trkpt lat="46.31787" lon="-1.08528">
        <ele>5.2</ele>
        <time>2020-06-02T14:55:15Z</time>
      </trkpt>
      <trkpt lat="46.31786" lon="-1.08528">
        <ele>5.2</ele>
        <time>2020-06-02T14:55:16Z</time>
      </trkpt>
      <trkpt lat="46.31786" lon="-1.08528">
        <ele>5.2</ele>
        <time>2020-06-02T14:55:17Z</time>
      </trkpt>
      <trkpt lat="46.31786" lon="-1.08528">
        <ele>5.2</ele>
        <time>2020-06-02T14:55:18Z</time>
      </trkpt>
      <trkpt lat="46.31786" lon="-1.08528">
        <ele>5.2</ele>
        <time>2020-06-02T14:55:19Z</time>
      </trkpt>
      <trkpt lat="46.31786" lon="-1.08528">
        <ele>5.2</ele>
        <time>2020-06-02T14:55:20Z</time>
      </trkpt>
      <trkpt lat="46.31786" lon="-1.08528">
        <ele>5.2</ele>
        <time>2020-06-02T14:55:21Z</time>
      </trkpt>
      <trkpt lat="46.31785" lon="-1.08528">
        <ele>5.2</ele>
        <time>2020-06-02T14:55:22Z</time>
      </trkpt>
      <trkpt lat="46.31785" lon="-1.08529">
        <ele>5.2</ele>
        <time>2020-06-02T14:55:23Z</time>
      </trkpt>
      <trkpt lat="46.31784" lon="-1.08529">
        <ele>5.2</ele>
        <time>2020-06-02T14:55:24Z</time>
      </trkpt>
      <trkpt lat="46.31783" lon="-1.0853">
        <ele>5.2</ele>
        <time>2020-06-02T14:55:25Z</time>
      </trkpt>
      <trkpt lat="46.31783" lon="-1.08529">
        <ele>5.2</ele>
        <time>2020-06-02T14:55:26Z</time>
      </trkpt>
      <trkpt lat="46.31783" lon="-1.08529">
        <ele>5.2</ele>
        <time>2020-06-02T14:55:27Z</time>
      </trkpt>
      <trkpt lat="46.31783" lon="-1.08528">
        <ele>5.2</ele>
        <time>2020-06-02T14:55:28Z</time>
      </trkpt>
      <trkpt lat="46.31783" lon="-1.08528">
        <ele>5.2</ele>
        <time>2020-06-02T14:55:29Z</time>
      </trkpt>
      <trkpt lat="46.31783" lon="-1.08528">
        <ele>5.2</ele>
        <time>2020-06-02T14:55:30Z</time>
      </trkpt>
      <trkpt lat="46.31783" lon="-1.08527">
        <ele>5.2</ele>
        <time>2020-06-02T14:55:31Z</time>
      </trkpt>
      <trkpt lat="46.31783" lon="-1.08527">
        <ele>5.2</ele>
        <time>2020-06-02T14:55:32Z</time>
      </trkpt>
      <trkpt lat="46.31783" lon="-1.08526">
        <ele>5.2</ele>
        <time>2020-06-02T14:55:33Z</time>
      </trkpt>
      <trkpt lat="46.31783" lon="-1.08526">
        <ele>5.2</ele>
        <time>2020-06-02T14:55:34Z</time>
      </trkpt>
      <trkpt lat="46.31783" lon="-1.08526">
        <ele>5.2</ele>
        <time>2020-06-02T14:55:35Z</time>
      </trkpt>
      <trkpt lat="46.31783" lon="-1.08525">
        <ele>5.2</ele>
        <time>2020-06-02T14:55:36Z</time>
      </trkpt>
      <trkpt lat="46.31783" lon="-1.08525">
        <ele>5.2</ele>
        <time>2020-06-02T14:55:37Z</time>
      </trkpt>
      <trkpt lat="46.31783" lon="-1.08524">
        <ele>5.2</ele>
        <time>2020-06-02T14:55:38Z</time>
      </trkpt>
      <trkpt lat="46.31783" lon="-1.08524">
        <ele>5.2</ele>
        <time>2020-06-02T14:55:39Z</time>
      </trkpt>
      <trkpt lat="46.31784" lon="-1.08523">
        <ele>5.2</ele>
        <time>2020-06-02T14:55:40Z</time>
      </trkpt>
      <trkpt lat="46.31785" lon="-1.08522">
        <ele>5.2</ele>
        <time>2020-06-02T14:55:41Z</time>
      </trkpt>
      <trkpt lat="46.31785" lon="-1.08521">
        <ele>5.2</ele>
        <time>2020-06-02T14:55:42Z</time>
      </trkpt>
      <trkpt lat="46.31785" lon="-1.08521">
        <ele>5.2</ele>
        <time>2020-06-02T14:55:43Z</time>
      </trkpt>
      <trkpt lat="46.31785" lon="-1.08521">
        <ele>5.2</ele>
        <time>2020-06-02T14:55:44Z</time>
      </trkpt>
      <trkpt lat="46.31785" lon="-1.08521">
        <ele>5.2</ele>
        <time>2020-06-02T14:55:45Z</time>
      </trkpt>
      <trkpt lat="46.31785" lon="-1.08521">
        <ele>5.2</ele>
        <time>2020-06-02T14:55:46Z</time>
      </trkpt>
      <trkpt lat="46.31785" lon="-1.08521">
        <ele>5.2</ele>
        <time>2020-06-02T14:55:47Z</time>
      </trkpt>
      <trkpt lat="46.31785" lon="-1.0852">
        <ele>5.2</ele>
        <time>2020-06-02T14:55:48Z</time>
      </trkpt>
      <trkpt lat="46.31786" lon="-1.08521">
        <ele>5.2</ele>
        <time>2020-06-02T14:55:49Z</time>
      </trkpt>
      <trkpt lat="46.31786" lon="-1.08521">
        <ele>5.2</ele>
        <time>2020-06-02T14:55:50Z</time>
      </trkpt>
      <trkpt lat="46.31786" lon="-1.0852">
        <ele>5.2</ele>
        <time>2020-06-02T14:55:51Z</time>
      </trkpt>
      <trkpt lat="46.31786" lon="-1.0852">
        <ele>5.2</ele>
        <time>2020-06-02T14:55:52Z</time>
      </trkpt>
      <trkpt lat="46.31786" lon="-1.0852">
        <ele>5.2</ele>
        <time>2020-06-02T14:55:53Z</time>
      </trkpt>
      <trkpt lat="46.31786" lon="-1.0852">
        <ele>5.2</ele>
        <time>2020-06-02T14:55:54Z</time>
      </trkpt>
      <trkpt lat="46.31786" lon="-1.0852">
        <ele>5.2</ele>
        <time>2020-06-02T14:55:55Z</time>
      </trkpt>
      <trkpt lat="46.31787" lon="-1.0852">
        <ele>5.2</ele>
        <time>2020-06-02T14:55:56Z</time>
      </trkpt>
      <trkpt lat="46.31787" lon="-1.0852">
        <ele>5.2</ele>
        <time>2020-06-02T14:55:57Z</time>
      </trkpt>
      <trkpt lat="46.31787" lon="-1.0852">
        <ele>5.2</ele>
        <time>2020-06-02T14:55:58Z</time>
      </trkpt>
      <trkpt lat="46.31787" lon="-1.0852">
        <ele>5.2</ele>
        <time>2020-06-02T14:55:59Z</time>
      </trkpt>
      <trkpt lat="46.31787" lon="-1.0852">
        <ele>5.2</ele>
        <time>2020-06-02T14:56:00Z</time>
      </trkpt>
      <trkpt lat="46.31787" lon="-1.0852">
        <ele>5.2</ele>
        <time>2020-06-02T14:56:01Z</time>
      </trkpt>
      <trkpt lat="46.31787" lon="-1.0852">
        <ele>5.2</ele>
        <time>2020-06-02T14:56:02Z</time>
      </trkpt>
      <trkpt lat="46.31786" lon="-1.0852">
        <ele>5.2</ele>
        <time>2020-06-02T14:56:03Z</time>
      </trkpt>
      <trkpt lat="46.31786" lon="-1.0852">
        <ele>5.2</ele>
        <time>2020-06-02T14:56:04Z</time>
      </trkpt>
      <trkpt lat="46.31786" lon="-1.08519">
        <ele>5.2</ele>
        <time>2020-06-02T14:56:05Z</time>
      </trkpt>
      <trkpt lat="46.31786" lon="-1.08519">
        <ele>5.2</ele>
        <time>2020-06-02T14:56:06Z</time>
      </trkpt>
      <trkpt lat="46.31787" lon="-1.08519">
        <ele>5.2</ele>
        <time>2020-06-02T14:56:07Z</time>
      </trkpt>
      <trkpt lat="46.31787" lon="-1.0852">
        <ele>5.2</ele>
        <time>2020-06-02T14:56:08Z</time>
      </trkpt>
      <trkpt lat="46.31788" lon="-1.0852">
        <ele>5.2</ele>
        <time>2020-06-02T14:56:09Z</time>
      </trkpt>
      <trkpt lat="46.31788" lon="-1.08521">
        <ele>5.2</ele>
        <time>2020-06-02T14:56:10Z</time>
      </trkpt>
      <trkpt lat="46.31788" lon="-1.08521">
        <ele>5.2</ele>
        <time>2020-06-02T14:56:11Z</time>
      </trkpt>
      <trkpt lat="46.31788" lon="-1.08521">
        <ele>5.2</ele>
        <time>2020-06-02T14:56:12Z</time>
      </trkpt>
      <trkpt lat="46.31789" lon="-1.08521">
        <ele>5.2</ele>
        <time>2020-06-02T14:56:13Z</time>
      </trkpt>
      <trkpt lat="46.31789" lon="-1.08521">
        <ele>5.2</ele>
        <time>2020-06-02T14:56:14Z</time>
      </trkpt>
      <trkpt lat="46.31789" lon="-1.08521">
        <ele>5.2</ele>
        <time>2020-06-02T14:56:15Z</time>
      </trkpt>
      <trkpt lat="46.31789" lon="-1.08521">
        <ele>5.2</ele>
        <time>2020-06-02T14:56:16Z</time>
      </trkpt>
      <trkpt lat="46.31789" lon="-1.08521">
        <ele>5.2</ele>
        <time>2020-06-02T14:56:17Z</time>
      </trkpt>
      <trkpt lat="46.31789" lon="-1.08521">
        <ele>5.2</ele>
        <time>2020-06-02T14:56:18Z</time>
      </trkpt>
      <trkpt lat="46.3179" lon="-1.08522">
        <ele>5.2</ele>
        <time>2020-06-02T14:56:19Z</time>
      </trkpt>
      <trkpt lat="46.3179" lon="-1.08522">
        <ele>5.2</ele>
        <time>2020-06-02T14:56:20Z</time>
      </trkpt>
      <trkpt lat="46.3179" lon="-1.08522">
        <ele>5.2</ele>
        <time>2020-06-02T14:56:21Z</time>
      </trkpt>
      <trkpt lat="46.3179" lon="-1.08522">
        <ele>5.2</ele>
        <time>2020-06-02T14:56:22Z</time>
      </trkpt>
      <trkpt lat="46.3179" lon="-1.08522">
        <ele>5.2</ele>
        <time>2020-06-02T14:56:23Z</time>
      </trkpt>
      <trkpt lat="46.31791" lon="-1.08522">
        <ele>5.2</ele>
        <time>2020-06-02T14:56:24Z</time>
      </trkpt>
      <trkpt lat="46.31791" lon="-1.08522">
        <ele>5.2</ele>
        <time>2020-06-02T14:56:25Z</time>
      </trkpt>
      <trkpt lat="46.31791" lon="-1.08522">
        <ele>5.2</ele>
        <time>2020-06-02T14:56:26Z</time>
      </trkpt>
      <trkpt lat="46.31791" lon="-1.08522">
        <ele>5.2</ele>
        <time>2020-06-02T14:56:27Z</time>
      </trkpt>
      <trkpt lat="46.31791" lon="-1.08522">
        <ele>5.2</ele>
        <time>2020-06-02T14:56:28Z</time>
      </trkpt>
      <trkpt lat="46.31791" lon="-1.08522">
        <ele>5.2</ele>
        <time>2020-06-02T14:56:29Z</time>
      </trkpt>
      <trkpt lat="46.31792" lon="-1.08522">
        <ele>5.2</ele>
        <time>2020-06-02T14:56:30Z</time>
      </trkpt>
      <trkpt lat="46.31792" lon="-1.08522">
        <ele>5.2</ele>
        <time>2020-06-02T14:56:31Z</time>
      </trkpt>
      <trkpt lat="46.31792" lon="-1.08522">
        <ele>5.2</ele>
        <time>2020-06-02T14:56:32Z</time>
      </trkpt>
      <trkpt lat="46.31792" lon="-1.08522">
        <ele>5.2</ele>
        <time>2020-06-02T14:56:33Z</time>
      </trkpt>
      <trkpt lat="46.31792" lon="-1.08522">
        <ele>5.2</ele>
        <time>2020-06-02T14:56:34Z</time>
      </trkpt>
      <trkpt lat="46.31795" lon="-1.08526">
        <ele>5.2</ele>
        <time>2020-06-02T14:56:35Z</time>
      </trkpt>
      <trkpt lat="46.31796" lon="-1.08527">
        <ele>5.1</ele>
        <time>2020-06-02T14:56:36Z</time>
      </trkpt>
      <trkpt lat="46.31798" lon="-1.0853">
        <ele>5.1</ele>
        <time>2020-06-02T14:56:37Z</time>
      </trkpt>
      <trkpt lat="46.31798" lon="-1.08531">
        <ele>5.1</ele>
        <time>2020-06-02T14:56:38Z</time>
      </trkpt>
      <trkpt lat="46.318" lon="-1.08535">
        <ele>5.1</ele>
        <time>2020-06-02T14:56:39Z</time>
      </trkpt>
      <trkpt lat="46.318" lon="-1.08537">
        <ele>5.1</ele>
        <time>2020-06-02T14:56:40Z</time>
      </trkpt>
      <trkpt lat="46.31802" lon="-1.0854">
        <ele>5.1</ele>
        <time>2020-06-02T14:56:41Z</time>
      </trkpt>
      <trkpt lat="46.31803" lon="-1.08541">
        <ele>5.1</ele>
        <time>2020-06-02T14:56:42Z</time>
      </trkpt>
      <trkpt lat="46.31805" lon="-1.08547">
        <ele>5.1</ele>
        <time>2020-06-02T14:56:43Z</time>
      </trkpt>
      <trkpt lat="46.31806" lon="-1.08549">
        <ele>5.1</ele>
        <time>2020-06-02T14:56:44Z</time>
      </trkpt>
      <trkpt lat="46.31808" lon="-1.08554">
        <ele>5.1</ele>
        <time>2020-06-02T14:56:45Z</time>
      </trkpt>
      <trkpt lat="46.31809" lon="-1.08558">
        <ele>5.1</ele>
        <time>2020-06-02T14:56:46Z</time>
      </trkpt>
      <trkpt lat="46.31811" lon="-1.08562">
        <ele>5.1</ele>
        <time>2020-06-02T14:56:47Z</time>
      </trkpt>
      <trkpt lat="46.31813" lon="-1.08566">
        <ele>5.1</ele>
        <time>2020-06-02T14:56:48Z</time>
      </trkpt>
      <trkpt lat="46.31815" lon="-1.0857">
        <ele>5.1</ele>
        <time>2020-06-02T14:56:49Z</time>
      </trkpt>
      <trkpt lat="46.31816" lon="-1.08574">
        <ele>5.1</ele>
        <time>2020-06-02T14:56:50Z</time>
      </trkpt>
      <trkpt lat="46.31818" lon="-1.08579">
        <ele>5.1</ele>
        <time>2020-06-02T14:56:51Z</time>
      </trkpt>
      <trkpt lat="46.3182" lon="-1.08584">
        <ele>5.2</ele>
        <time>2020-06-02T14:56:52Z</time>
      </trkpt>
      <trkpt lat="46.31822" lon="-1.08589">
        <ele>5.2</ele>
        <time>2020-06-02T14:56:53Z</time>
      </trkpt>
      <trkpt lat="46.31824" lon="-1.08594">
        <ele>5.2</ele>
        <time>2020-06-02T14:56:54Z</time>
      </trkpt>
      <trkpt lat="46.31826" lon="-1.08599">
        <ele>5.2</ele>
        <time>2020-06-02T14:56:55Z</time>
      </trkpt>
      <trkpt lat="46.31829" lon="-1.08605">
        <ele>5.2</ele>
        <time>2020-06-02T14:56:56Z</time>
      </trkpt>
      <trkpt lat="46.3183" lon="-1.0861">
        <ele>5.2</ele>
        <time>2020-06-02T14:56:57Z</time>
      </trkpt>
      <trkpt lat="46.31832" lon="-1.08615">
        <ele>5.2</ele>
        <time>2020-06-02T14:56:58Z</time>
      </trkpt>
      <trkpt lat="46.31834" lon="-1.0862">
        <ele>5.2</ele>
        <time>2020-06-02T14:56:59Z</time>
      </trkpt>
      <trkpt lat="46.31836" lon="-1.08626">
        <ele>5.2</ele>
        <time>2020-06-02T14:57:00Z</time>
      </trkpt>
      <trkpt lat="46.31838" lon="-1.08632">
        <ele>5.2</ele>
        <time>2020-06-02T14:57:01Z</time>
      </trkpt>
      <trkpt lat="46.31839" lon="-1.08639">
        <ele>5.2</ele>
        <time>2020-06-02T14:57:02Z</time>
      </trkpt>
      <trkpt lat="46.31841" lon="-1.08646">
        <ele>5.2</ele>
        <time>2020-06-02T14:57:03Z</time>
      </trkpt>
      <trkpt lat="46.31842" lon="-1.08653">
        <ele>5.2</ele>
        <time>2020-06-02T14:57:04Z</time>
      </trkpt>
      <trkpt lat="46.31844" lon="-1.08661">
        <ele>5.2</ele>
        <time>2020-06-02T14:57:05Z</time>
      </trkpt>
      <trkpt lat="46.31845" lon="-1.08669">
        <ele>5.2</ele>
        <time>2020-06-02T14:57:06Z</time>
      </trkpt>
      <trkpt lat="46.31846" lon="-1.08677">
        <ele>5.2</ele>
        <time>2020-06-02T14:57:07Z</time>
      </trkpt>
      <trkpt lat="46.31847" lon="-1.08683">
        <ele>5.2</ele>
        <time>2020-06-02T14:57:08Z</time>
      </trkpt>
      <trkpt lat="46.31848" lon="-1.0869">
        <ele>5.2</ele>
        <time>2020-06-02T14:57:09Z</time>
      </trkpt>
      <trkpt lat="46.31848" lon="-1.08697">
        <ele>5.2</ele>
        <time>2020-06-02T14:57:10Z</time>
      </trkpt>
      <trkpt lat="46.31849" lon="-1.08705">
        <ele>5.2</ele>
        <time>2020-06-02T14:57:11Z</time>
      </trkpt>
      <trkpt lat="46.3185" lon="-1.08712">
        <ele>5.2</ele>
        <time>2020-06-02T14:57:12Z</time>
      </trkpt>
      <trkpt lat="46.31851" lon="-1.08719">
        <ele>5.2</ele>
        <time>2020-06-02T14:57:13Z</time>
      </trkpt>
      <trkpt lat="46.31851" lon="-1.08725">
        <ele>5.2</ele>
        <time>2020-06-02T14:57:14Z</time>
      </trkpt>
      <trkpt lat="46.31852" lon="-1.08732">
        <ele>5.2</ele>
        <time>2020-06-02T14:57:15Z</time>
      </trkpt>
      <trkpt lat="46.31853" lon="-1.08738">
        <ele>5.3</ele>
        <time>2020-06-02T14:57:16Z</time>
      </trkpt>
      <trkpt lat="46.31854" lon="-1.08745">
        <ele>5.3</ele>
        <time>2020-06-02T14:57:17Z</time>
      </trkpt>
      <trkpt lat="46.31855" lon="-1.08751">
        <ele>5.3</ele>
        <time>2020-06-02T14:57:18Z</time>
      </trkpt>
      <trkpt lat="46.31856" lon="-1.08758">
        <ele>5.3</ele>
        <time>2020-06-02T14:57:19Z</time>
      </trkpt>
      <trkpt lat="46.31856" lon="-1.08764">
        <ele>5.3</ele>
        <time>2020-06-02T14:57:20Z</time>
      </trkpt>
      <trkpt lat="46.31857" lon="-1.08769">
        <ele>5.3</ele>
        <time>2020-06-02T14:57:21Z</time>
      </trkpt>
      <trkpt lat="46.31858" lon="-1.08774">
        <ele>5.3</ele>
        <time>2020-06-02T14:57:22Z</time>
      </trkpt>
      <trkpt lat="46.31859" lon="-1.08779">
        <ele>5.4</ele>
        <time>2020-06-02T14:57:23Z</time>
      </trkpt>
      <trkpt lat="46.3186" lon="-1.08784">
        <ele>5.4</ele>
        <time>2020-06-02T14:57:24Z</time>
      </trkpt>
      <trkpt lat="46.31861" lon="-1.08788">
        <ele>5.4</ele>
        <time>2020-06-02T14:57:25Z</time>
      </trkpt>
      <trkpt lat="46.31861" lon="-1.08793">
        <ele>5.4</ele>
        <time>2020-06-02T14:57:26Z</time>
      </trkpt>
      <trkpt lat="46.31861" lon="-1.08795">
        <ele>5.4</ele>
        <time>2020-06-02T14:57:27Z</time>
      </trkpt>
      <trkpt lat="46.31861" lon="-1.08796">
        <ele>5.4</ele>
        <time>2020-06-02T14:57:28Z</time>
      </trkpt>
      <trkpt lat="46.31861" lon="-1.08796">
        <ele>5.4</ele>
        <time>2020-06-02T14:57:29Z</time>
      </trkpt>
      <trkpt lat="46.31861" lon="-1.08795">
        <ele>5.4</ele>
        <time>2020-06-02T14:57:30Z</time>
      </trkpt>
      <trkpt lat="46.31861" lon="-1.08794">
        <ele>5.4</ele>
        <time>2020-06-02T14:57:31Z</time>
      </trkpt>
      <trkpt lat="46.31862" lon="-1.08794">
        <ele>5.4</ele>
        <time>2020-06-02T14:57:32Z</time>
      </trkpt>
      <trkpt lat="46.31862" lon="-1.08794">
        <ele>5.4</ele>
        <time>2020-06-02T14:57:33Z</time>
      </trkpt>
      <trkpt lat="46.31862" lon="-1.08794">
        <ele>5.4</ele>
        <time>2020-06-02T14:57:34Z</time>
      </trkpt>
      <trkpt lat="46.31862" lon="-1.08793">
        <ele>5.4</ele>
        <time>2020-06-02T14:57:35Z</time>
      </trkpt>
      <trkpt lat="46.31862" lon="-1.08793">
        <ele>5.4</ele>
        <time>2020-06-02T14:57:36Z</time>
      </trkpt>
      <trkpt lat="46.31863" lon="-1.08793">
        <ele>5.4</ele>
        <time>2020-06-02T14:57:37Z</time>
      </trkpt>
      <trkpt lat="46.31864" lon="-1.08794">
        <ele>5.4</ele>
        <time>2020-06-02T14:57:38Z</time>
      </trkpt>
      <trkpt lat="46.31863" lon="-1.08793">
        <ele>5.4</ele>
        <time>2020-06-02T14:57:39Z</time>
      </trkpt>
      <trkpt lat="46.31863" lon="-1.08792">
        <ele>5.4</ele>
        <time>2020-06-02T14:57:40Z</time>
      </trkpt>
      <trkpt lat="46.31861" lon="-1.08792">
        <ele>5.4</ele>
        <time>2020-06-02T14:57:41Z</time>
      </trkpt>
      <trkpt lat="46.31861" lon="-1.08791">
        <ele>5.4</ele>
        <time>2020-06-02T14:57:42Z</time>
      </trkpt>
      <trkpt lat="46.3186" lon="-1.08791">
        <ele>5.4</ele>
        <time>2020-06-02T14:57:43Z</time>
      </trkpt>
      <trkpt lat="46.3186" lon="-1.0879">
        <ele>5.4</ele>
        <time>2020-06-02T14:57:44Z</time>
      </trkpt>
      <trkpt lat="46.31859" lon="-1.08791">
        <ele>5.4</ele>
        <time>2020-06-02T14:57:45Z</time>
      </trkpt>
      <trkpt lat="46.31859" lon="-1.08791">
        <ele>5.4</ele>
        <time>2020-06-02T14:57:46Z</time>
      </trkpt>
      <trkpt lat="46.3186" lon="-1.08792">
        <ele>5.5</ele>
        <time>2020-06-02T14:57:47Z</time>
      </trkpt>
      <trkpt lat="46.3186" lon="-1.08793">
        <ele>5.5</ele>
        <time>2020-06-02T14:57:48Z</time>
      </trkpt>
      <trkpt lat="46.3186" lon="-1.08795">
        <ele>5.5</ele>
        <time>2020-06-02T14:57:49Z</time>
      </trkpt>
      <trkpt lat="46.31861" lon="-1.088">
        <ele>5.5</ele>
        <time>2020-06-02T14:57:50Z</time>
      </trkpt>
      <trkpt lat="46.31861" lon="-1.08801">
        <ele>5.5</ele>
        <time>2020-06-02T14:57:51Z</time>
      </trkpt>
      <trkpt lat="46.31862" lon="-1.08806">
        <ele>5.5</ele>
        <time>2020-06-02T14:57:52Z</time>
      </trkpt>
      <trkpt lat="46.31862" lon="-1.08812">
        <ele>5.5</ele>
        <time>2020-06-02T14:57:53Z</time>
      </trkpt>
      <trkpt lat="46.31863" lon="-1.08816">
        <ele>5.5</ele>
        <time>2020-06-02T14:57:54Z</time>
      </trkpt>
      <trkpt lat="46.31864" lon="-1.08821">
        <ele>5.5</ele>
        <time>2020-06-02T14:57:55Z</time>
      </trkpt>
      <trkpt lat="46.31865" lon="-1.08826">
        <ele>5.5</ele>
        <time>2020-06-02T14:57:56Z</time>
      </trkpt>
      <trkpt lat="46.31865" lon="-1.08831">
        <ele>5.5</ele>
        <time>2020-06-02T14:57:57Z</time>
      </trkpt>
      <trkpt lat="46.31865" lon="-1.08836">
        <ele>5.5</ele>
        <time>2020-06-02T14:57:59Z</time>
      </trkpt>
      <trkpt lat="46.31865" lon="-1.08837">
        <ele>5.5</ele>
        <time>2020-06-02T14:58:00Z</time>
      </trkpt>
      <trkpt lat="46.31865" lon="-1.08841">
        <ele>5.5</ele>
        <time>2020-06-02T14:58:01Z</time>
      </trkpt>
      <trkpt lat="46.31866" lon="-1.08846">
        <ele>5.5</ele>
        <time>2020-06-02T14:58:02Z</time>
      </trkpt>
      <trkpt lat="46.31866" lon="-1.08847">
        <ele>5.5</ele>
        <time>2020-06-02T14:58:03Z</time>
      </trkpt>
      <trkpt lat="46.31868" lon="-1.08851">
        <ele>5.5</ele>
        <time>2020-06-02T14:58:04Z</time>
      </trkpt>
      <trkpt lat="46.31871" lon="-1.08855">
        <ele>5.5</ele>
        <time>2020-06-02T14:58:05Z</time>
      </trkpt>
      <trkpt lat="46.31872" lon="-1.08856">
        <ele>5.4</ele>
        <time>2020-06-02T14:58:06Z</time>
      </trkpt>
      <trkpt lat="46.31874" lon="-1.08858">
        <ele>5.4</ele>
        <time>2020-06-02T14:58:07Z</time>
      </trkpt>
      <trkpt lat="46.31877" lon="-1.08863">
        <ele>5.4</ele>
        <time>2020-06-02T14:58:08Z</time>
      </trkpt>
      <trkpt lat="46.31879" lon="-1.08867">
        <ele>5.4</ele>
        <time>2020-06-02T14:58:09Z</time>
      </trkpt>
      <trkpt lat="46.31882" lon="-1.08871">
        <ele>5.4</ele>
        <time>2020-06-02T14:58:10Z</time>
      </trkpt>
      <trkpt lat="46.31885" lon="-1.08874">
        <ele>5.4</ele>
        <time>2020-06-02T14:58:11Z</time>
      </trkpt>
      <trkpt lat="46.31888" lon="-1.08877">
        <ele>5.4</ele>
        <time>2020-06-02T14:58:12Z</time>
      </trkpt>
      <trkpt lat="46.31891" lon="-1.08881">
        <ele>5.4</ele>
        <time>2020-06-02T14:58:13Z</time>
      </trkpt>
      <trkpt lat="46.31893" lon="-1.08885">
        <ele>5.3</ele>
        <time>2020-06-02T14:58:14Z</time>
      </trkpt>
      <trkpt lat="46.31896" lon="-1.08888">
        <ele>5.3</ele>
        <time>2020-06-02T14:58:15Z</time>
      </trkpt>
      <trkpt lat="46.31899" lon="-1.08891">
        <ele>5.3</ele>
        <time>2020-06-02T14:58:16Z</time>
      </trkpt>
      <trkpt lat="46.31902" lon="-1.08895">
        <ele>5.3</ele>
        <time>2020-06-02T14:58:17Z</time>
      </trkpt>
      <trkpt lat="46.31905" lon="-1.08897">
        <ele>5.2</ele>
        <time>2020-06-02T14:58:18Z</time>
      </trkpt>
      <trkpt lat="46.31908" lon="-1.089">
        <ele>5.2</ele>
        <time>2020-06-02T14:58:19Z</time>
      </trkpt>
      <trkpt lat="46.31911" lon="-1.08903">
        <ele>5.2</ele>
        <time>2020-06-02T14:58:20Z</time>
      </trkpt>
      <trkpt lat="46.31917" lon="-1.08908">
        <ele>5.1</ele>
        <time>2020-06-02T14:58:21Z</time>
      </trkpt>
      <trkpt lat="46.31921" lon="-1.08911">
        <ele>5.1</ele>
        <time>2020-06-02T14:58:22Z</time>
      </trkpt>
      <trkpt lat="46.31924" lon="-1.08914">
        <ele>5</ele>
        <time>2020-06-02T14:58:23Z</time>
      </trkpt>
      <trkpt lat="46.31928" lon="-1.08916">
        <ele>5</ele>
        <time>2020-06-02T14:58:24Z</time>
      </trkpt>
      <trkpt lat="46.31932" lon="-1.08919">
        <ele>5</ele>
        <time>2020-06-02T14:58:25Z</time>
      </trkpt>
      <trkpt lat="46.31935" lon="-1.08922">
        <ele>4.9</ele>
        <time>2020-06-02T14:58:26Z</time>
      </trkpt>
      <trkpt lat="46.31939" lon="-1.08924">
        <ele>4.9</ele>
        <time>2020-06-02T14:58:27Z</time>
      </trkpt>
      <trkpt lat="46.31943" lon="-1.08927">
        <ele>4.8</ele>
        <time>2020-06-02T14:58:28Z</time>
      </trkpt>
      <trkpt lat="46.31945" lon="-1.08931">
        <ele>4.8</ele>
        <time>2020-06-02T14:58:29Z</time>
      </trkpt>
      <trkpt lat="46.31948" lon="-1.08935">
        <ele>4.7</ele>
        <time>2020-06-02T14:58:30Z</time>
      </trkpt>
      <trkpt lat="46.31951" lon="-1.08939">
        <ele>4.7</ele>
        <time>2020-06-02T14:58:31Z</time>
      </trkpt>
      <trkpt lat="46.31953" lon="-1.08942">
        <ele>4.6</ele>
        <time>2020-06-02T14:58:32Z</time>
      </trkpt>
      <trkpt lat="46.31955" lon="-1.08945">
        <ele>4.6</ele>
        <time>2020-06-02T14:58:33Z</time>
      </trkpt>
      <trkpt lat="46.31957" lon="-1.08948">
        <ele>4.5</ele>
        <time>2020-06-02T14:58:34Z</time>
      </trkpt>
      <trkpt lat="46.31959" lon="-1.08951">
        <ele>4.5</ele>
        <time>2020-06-02T14:58:35Z</time>
      </trkpt>
      <trkpt lat="46.31962" lon="-1.08953">
        <ele>4.4</ele>
        <time>2020-06-02T14:58:36Z</time>
      </trkpt>
      <trkpt lat="46.31963" lon="-1.08954">
        <ele>4.4</ele>
        <time>2020-06-02T14:58:37Z</time>
      </trkpt>
      <trkpt lat="46.31966" lon="-1.08957">
        <ele>4.4</ele>
        <time>2020-06-02T14:58:38Z</time>
      </trkpt>
      <trkpt lat="46.31966" lon="-1.08958">
        <ele>4.4</ele>
        <time>2020-06-02T14:58:39Z</time>
      </trkpt>
      <trkpt lat="46.31969" lon="-1.08962">
        <ele>4.3</ele>
        <time>2020-06-02T14:58:40Z</time>
      </trkpt>
      <trkpt lat="46.3197" lon="-1.08963">
        <ele>4.3</ele>
        <time>2020-06-02T14:58:41Z</time>
      </trkpt>
      <trkpt lat="46.31971" lon="-1.08964">
        <ele>4.3</ele>
        <time>2020-06-02T14:58:42Z</time>
      </trkpt>
      <trkpt lat="46.31972" lon="-1.08966">
        <ele>4.3</ele>
        <time>2020-06-02T14:58:43Z</time>
      </trkpt>
      <trkpt lat="46.31973" lon="-1.08968">
        <ele>4.3</ele>
        <time>2020-06-02T14:58:44Z</time>
      </trkpt>
      <trkpt lat="46.31973" lon="-1.08968">
        <ele>4.3</ele>
        <time>2020-06-02T14:58:45Z</time>
      </trkpt>
      <trkpt lat="46.31973" lon="-1.08968">
        <ele>4.3</ele>
        <time>2020-06-02T14:58:46Z</time>
      </trkpt>
      <trkpt lat="46.31973" lon="-1.08968">
        <ele>4.3</ele>
        <time>2020-06-02T14:58:47Z</time>
      </trkpt>
      <trkpt lat="46.31973" lon="-1.08968">
        <ele>4.3</ele>
        <time>2020-06-02T14:58:48Z</time>
      </trkpt>
      <trkpt lat="46.31974" lon="-1.08969">
        <ele>4.3</ele>
        <time>2020-06-02T14:58:49Z</time>
      </trkpt>
      <trkpt lat="46.31973" lon="-1.08969">
        <ele>4.3</ele>
        <time>2020-06-02T14:58:50Z</time>
      </trkpt>
      <trkpt lat="46.31973" lon="-1.08968">
        <ele>4.3</ele>
        <time>2020-06-02T14:58:51Z</time>
      </trkpt>
      <trkpt lat="46.31973" lon="-1.08968">
        <ele>4.3</ele>
        <time>2020-06-02T14:58:52Z</time>
      </trkpt>
      <trkpt lat="46.31973" lon="-1.08969">
        <ele>4.3</ele>
        <time>2020-06-02T14:58:53Z</time>
      </trkpt>
      <trkpt lat="46.31973" lon="-1.08969">
        <ele>4.3</ele>
        <time>2020-06-02T14:58:54Z</time>
      </trkpt>
      <trkpt lat="46.31973" lon="-1.08969">
        <ele>4.3</ele>
        <time>2020-06-02T14:58:55Z</time>
      </trkpt>
      <trkpt lat="46.31973" lon="-1.0897">
        <ele>4.3</ele>
        <time>2020-06-02T14:58:56Z</time>
      </trkpt>
      <trkpt lat="46.31973" lon="-1.08971">
        <ele>4.2</ele>
        <time>2020-06-02T14:58:57Z</time>
      </trkpt>
      <trkpt lat="46.31974" lon="-1.0897">
        <ele>4.2</ele>
        <time>2020-06-02T14:58:58Z</time>
      </trkpt>
      <trkpt lat="46.31974" lon="-1.0897">
        <ele>4.2</ele>
        <time>2020-06-02T14:58:59Z</time>
      </trkpt>
      <trkpt lat="46.31975" lon="-1.08973">
        <ele>4.2</ele>
        <time>2020-06-02T14:59:00Z</time>
      </trkpt>
      <trkpt lat="46.31976" lon="-1.08975">
        <ele>4.2</ele>
        <time>2020-06-02T14:59:01Z</time>
      </trkpt>
      <trkpt lat="46.31977" lon="-1.08977">
        <ele>4.2</ele>
        <time>2020-06-02T14:59:02Z</time>
      </trkpt>
      <trkpt lat="46.31978" lon="-1.0898">
        <ele>4.2</ele>
        <time>2020-06-02T14:59:03Z</time>
      </trkpt>
      <trkpt lat="46.31979" lon="-1.08981">
        <ele>4.2</ele>
        <time>2020-06-02T14:59:04Z</time>
      </trkpt>
      <trkpt lat="46.31979" lon="-1.08982">
        <ele>4.2</ele>
        <time>2020-06-02T14:59:05Z</time>
      </trkpt>
      <trkpt lat="46.3198" lon="-1.08984">
        <ele>4.2</ele>
        <time>2020-06-02T14:59:06Z</time>
      </trkpt>
      <trkpt lat="46.31981" lon="-1.08985">
        <ele>4.2</ele>
        <time>2020-06-02T14:59:07Z</time>
      </trkpt>
      <trkpt lat="46.31984" lon="-1.08987">
        <ele>4.2</ele>
        <time>2020-06-02T14:59:08Z</time>
      </trkpt>
      <trkpt lat="46.31985" lon="-1.08988">
        <ele>4.2</ele>
        <time>2020-06-02T14:59:09Z</time>
      </trkpt>
      <trkpt lat="46.31987" lon="-1.08991">
        <ele>4.2</ele>
        <time>2020-06-02T14:59:10Z</time>
      </trkpt>
      <trkpt lat="46.31988" lon="-1.08993">
        <ele>4.2</ele>
        <time>2020-06-02T14:59:11Z</time>
      </trkpt>
      <trkpt lat="46.3199" lon="-1.08995">
        <ele>4.2</ele>
        <time>2020-06-02T14:59:12Z</time>
      </trkpt>
      <trkpt lat="46.31992" lon="-1.08998">
        <ele>4.2</ele>
        <time>2020-06-02T14:59:13Z</time>
      </trkpt>
      <trkpt lat="46.31994" lon="-1.09001">
        <ele>4.2</ele>
        <time>2020-06-02T14:59:14Z</time>
      </trkpt>
      <trkpt lat="46.31997" lon="-1.09003">
        <ele>4.2</ele>
        <time>2020-06-02T14:59:15Z</time>
      </trkpt>
      <trkpt lat="46.32" lon="-1.09006">
        <ele>4.2</ele>
        <time>2020-06-02T14:59:16Z</time>
      </trkpt>
      <trkpt lat="46.32" lon="-1.09007">
        <ele>4.2</ele>
        <time>2020-06-02T14:59:17Z</time>
      </trkpt>
      <trkpt lat="46.32001" lon="-1.09009">
        <ele>4.2</ele>
        <time>2020-06-02T14:59:18Z</time>
      </trkpt>
      <trkpt lat="46.32002" lon="-1.09009">
        <ele>4.2</ele>
        <time>2020-06-02T14:59:19Z</time>
      </trkpt>
      <trkpt lat="46.32002" lon="-1.09009">
        <ele>4.2</ele>
        <time>2020-06-02T14:59:20Z</time>
      </trkpt>
      <trkpt lat="46.32002" lon="-1.09009">
        <ele>4.2</ele>
        <time>2020-06-02T14:59:21Z</time>
      </trkpt>
      <trkpt lat="46.32002" lon="-1.09009">
        <ele>4.2</ele>
        <time>2020-06-02T14:59:22Z</time>
      </trkpt>
      <trkpt lat="46.32002" lon="-1.09009">
        <ele>4.2</ele>
        <time>2020-06-02T14:59:23Z</time>
      </trkpt>
      <trkpt lat="46.32003" lon="-1.09009">
        <ele>4.2</ele>
        <time>2020-06-02T14:59:24Z</time>
      </trkpt>
      <trkpt lat="46.32003" lon="-1.09009">
        <ele>4.2</ele>
        <time>2020-06-02T14:59:25Z</time>
      </trkpt>
      <trkpt lat="46.32003" lon="-1.09009">
        <ele>4.2</ele>
        <time>2020-06-02T14:59:26Z</time>
      </trkpt>
      <trkpt lat="46.32003" lon="-1.09009">
        <ele>4.2</ele>
        <time>2020-06-02T14:59:27Z</time>
      </trkpt>
      <trkpt lat="46.32003" lon="-1.09009">
        <ele>4.2</ele>
        <time>2020-06-02T14:59:28Z</time>
      </trkpt>
      <trkpt lat="46.32003" lon="-1.09009">
        <ele>4.2</ele>
        <time>2020-06-02T14:59:29Z</time>
      </trkpt>
      <trkpt lat="46.32003" lon="-1.09009">
        <ele>4.2</ele>
        <time>2020-06-02T14:59:30Z</time>
      </trkpt>
      <trkpt lat="46.32003" lon="-1.09009">
        <ele>4.2</ele>
        <time>2020-06-02T14:59:31Z</time>
      </trkpt>
      <trkpt lat="46.32003" lon="-1.09009">
        <ele>4.2</ele>
        <time>2020-06-02T14:59:32Z</time>
      </trkpt>
      <trkpt lat="46.32003" lon="-1.09009">
        <ele>4.2</ele>
        <time>2020-06-02T14:59:33Z</time>
      </trkpt>
      <trkpt lat="46.32003" lon="-1.09009">
        <ele>4.2</ele>
        <time>2020-06-02T14:59:34Z</time>
      </trkpt>
      <trkpt lat="46.32003" lon="-1.09009">
        <ele>4.2</ele>
        <time>2020-06-02T14:59:35Z</time>
      </trkpt>
      <trkpt lat="46.32003" lon="-1.09009">
        <ele>4.2</ele>
        <time>2020-06-02T14:59:36Z</time>
      </trkpt>
      <trkpt lat="46.32004" lon="-1.09009">
        <ele>4.2</ele>
        <time>2020-06-02T14:59:37Z</time>
      </trkpt>
      <trkpt lat="46.32004" lon="-1.09009">
        <ele>4.2</ele>
        <time>2020-06-02T14:59:38Z</time>
      </trkpt>
      <trkpt lat="46.32003" lon="-1.0901">
        <ele>4.2</ele>
        <time>2020-06-02T14:59:39Z</time>
      </trkpt>
      <trkpt lat="46.32004" lon="-1.09011">
        <ele>4.2</ele>
        <time>2020-06-02T14:59:40Z</time>
      </trkpt>
      <trkpt lat="46.32005" lon="-1.09012">
        <ele>4.2</ele>
        <time>2020-06-02T14:59:41Z</time>
      </trkpt>
      <trkpt lat="46.32007" lon="-1.09015">
        <ele>4.2</ele>
        <time>2020-06-02T14:59:42Z</time>
      </trkpt>
      <trkpt lat="46.32007" lon="-1.09016">
        <ele>4.2</ele>
        <time>2020-06-02T14:59:43Z</time>
      </trkpt>
      <trkpt lat="46.3201" lon="-1.0902">
        <ele>4.2</ele>
        <time>2020-06-02T14:59:44Z</time>
      </trkpt>
      <trkpt lat="46.32011" lon="-1.09022">
        <ele>4.2</ele>
        <time>2020-06-02T14:59:45Z</time>
      </trkpt>
      <trkpt lat="46.32013" lon="-1.09025">
        <ele>4.2</ele>
        <time>2020-06-02T14:59:46Z</time>
      </trkpt>
      <trkpt lat="46.32015" lon="-1.09028">
        <ele>4.3</ele>
        <time>2020-06-02T14:59:47Z</time>
      </trkpt>
      <trkpt lat="46.32016" lon="-1.09029">
        <ele>4.3</ele>
        <time>2020-06-02T14:59:48Z</time>
      </trkpt>
      <trkpt lat="46.32019" lon="-1.09032">
        <ele>4.3</ele>
        <time>2020-06-02T14:59:49Z</time>
      </trkpt>
      <trkpt lat="46.3202" lon="-1.09033">
        <ele>4.3</ele>
        <time>2020-06-02T14:59:50Z</time>
      </trkpt>
      <trkpt lat="46.32023" lon="-1.09036">
        <ele>4.3</ele>
        <time>2020-06-02T14:59:51Z</time>
      </trkpt>
      <trkpt lat="46.32024" lon="-1.09037">
        <ele>4.3</ele>
        <time>2020-06-02T14:59:52Z</time>
      </trkpt>
      <trkpt lat="46.32026" lon="-1.09041">
        <ele>4.3</ele>
        <time>2020-06-02T14:59:53Z</time>
      </trkpt>
      <trkpt lat="46.32027" lon="-1.09042">
        <ele>4.3</ele>
        <time>2020-06-02T14:59:54Z</time>
      </trkpt>
      <trkpt lat="46.3203" lon="-1.09044">
        <ele>4.3</ele>
        <time>2020-06-02T14:59:55Z</time>
      </trkpt>
      <trkpt lat="46.32034" lon="-1.09046">
        <ele>4.3</ele>
        <time>2020-06-02T14:59:56Z</time>
      </trkpt>
      <trkpt lat="46.32037" lon="-1.09049">
        <ele>4.3</ele>
        <time>2020-06-02T14:59:57Z</time>
      </trkpt>
      <trkpt lat="46.3204" lon="-1.09051">
        <ele>4.3</ele>
        <time>2020-06-02T14:59:58Z</time>
      </trkpt>
      <trkpt lat="46.32043" lon="-1.09054">
        <ele>4.3</ele>
        <time>2020-06-02T14:59:59Z</time>
      </trkpt>
      <trkpt lat="46.32045" lon="-1.09057">
        <ele>4.3</ele>
        <time>2020-06-02T15:00:00Z</time>
      </trkpt>
      <trkpt lat="46.32049" lon="-1.09061">
        <ele>4.3</ele>
        <time>2020-06-02T15:00:01Z</time>
      </trkpt>
      <trkpt lat="46.32051" lon="-1.09063">
        <ele>4.3</ele>
        <time>2020-06-02T15:00:02Z</time>
      </trkpt>
      <trkpt lat="46.32054" lon="-1.09065">
        <ele>4.3</ele>
        <time>2020-06-02T15:00:03Z</time>
      </trkpt>
      <trkpt lat="46.32056" lon="-1.09069">
        <ele>4.3</ele>
        <time>2020-06-02T15:00:04Z</time>
      </trkpt>
      <trkpt lat="46.32058" lon="-1.09072">
        <ele>4.3</ele>
        <time>2020-06-02T15:00:05Z</time>
      </trkpt>
      <trkpt lat="46.3206" lon="-1.09076">
        <ele>4.3</ele>
        <time>2020-06-02T15:00:06Z</time>
      </trkpt>
      <trkpt lat="46.32062" lon="-1.09079">
        <ele>4.3</ele>
        <time>2020-06-02T15:00:07Z</time>
      </trkpt>
      <trkpt lat="46.32065" lon="-1.09082">
        <ele>4.3</ele>
        <time>2020-06-02T15:00:08Z</time>
      </trkpt>
      <trkpt lat="46.32068" lon="-1.09086">
        <ele>4.3</ele>
        <time>2020-06-02T15:00:09Z</time>
      </trkpt>
      <trkpt lat="46.32071" lon="-1.09089">
        <ele>4.3</ele>
        <time>2020-06-02T15:00:10Z</time>
      </trkpt>
      <trkpt lat="46.32073" lon="-1.09092">
        <ele>4.3</ele>
        <time>2020-06-02T15:00:11Z</time>
      </trkpt>
      <trkpt lat="46.32076" lon="-1.09096">
        <ele>4.3</ele>
        <time>2020-06-02T15:00:12Z</time>
      </trkpt>
      <trkpt lat="46.3208" lon="-1.09101">
        <ele>4.3</ele>
        <time>2020-06-02T15:00:13Z</time>
      </trkpt>
      <trkpt lat="46.32084" lon="-1.09106">
        <ele>4.3</ele>
        <time>2020-06-02T15:00:14Z</time>
      </trkpt>
      <trkpt lat="46.32086" lon="-1.09109">
        <ele>4.3</ele>
        <time>2020-06-02T15:00:15Z</time>
      </trkpt>
      <trkpt lat="46.32089" lon="-1.09112">
        <ele>4.3</ele>
        <time>2020-06-02T15:00:16Z</time>
      </trkpt>
      <trkpt lat="46.32091" lon="-1.09115">
        <ele>4.3</ele>
        <time>2020-06-02T15:00:17Z</time>
      </trkpt>
      <trkpt lat="46.32095" lon="-1.09119">
        <ele>4.3</ele>
        <time>2020-06-02T15:00:18Z</time>
      </trkpt>
      <trkpt lat="46.32098" lon="-1.09123">
        <ele>4.3</ele>
        <time>2020-06-02T15:00:19Z</time>
      </trkpt>
      <trkpt lat="46.32101" lon="-1.09126">
        <ele>4.4</ele>
        <time>2020-06-02T15:00:20Z</time>
      </trkpt>
      <trkpt lat="46.32104" lon="-1.0913">
        <ele>4.4</ele>
        <time>2020-06-02T15:00:21Z</time>
      </trkpt>
      <trkpt lat="46.32107" lon="-1.09135">
        <ele>4.4</ele>
        <time>2020-06-02T15:00:22Z</time>
      </trkpt>
      <trkpt lat="46.3211" lon="-1.0914">
        <ele>4.4</ele>
        <time>2020-06-02T15:00:23Z</time>
      </trkpt>
      <trkpt lat="46.32114" lon="-1.09144">
        <ele>4.4</ele>
        <time>2020-06-02T15:00:24Z</time>
      </trkpt>
      <trkpt lat="46.32117" lon="-1.09148">
        <ele>4.4</ele>
        <time>2020-06-02T15:00:25Z</time>
      </trkpt>
      <trkpt lat="46.3212" lon="-1.09152">
        <ele>4.4</ele>
        <time>2020-06-02T15:00:26Z</time>
      </trkpt>
      <trkpt lat="46.32124" lon="-1.09155">
        <ele>4.4</ele>
        <time>2020-06-02T15:00:27Z</time>
      </trkpt>
      <trkpt lat="46.32128" lon="-1.09157">
        <ele>4.3</ele>
        <time>2020-06-02T15:00:28Z</time>
      </trkpt>
      <trkpt lat="46.32131" lon="-1.09161">
        <ele>4.3</ele>
        <time>2020-06-02T15:00:29Z</time>
      </trkpt>
      <trkpt lat="46.32134" lon="-1.09163">
        <ele>4.3</ele>
        <time>2020-06-02T15:00:30Z</time>
      </trkpt>
      <trkpt lat="46.32136" lon="-1.09166">
        <ele>4.3</ele>
        <time>2020-06-02T15:00:31Z</time>
      </trkpt>
      <trkpt lat="46.3214" lon="-1.09169">
        <ele>4.3</ele>
        <time>2020-06-02T15:00:32Z</time>
      </trkpt>
      <trkpt lat="46.32143" lon="-1.09172">
        <ele>4.3</ele>
        <time>2020-06-02T15:00:33Z</time>
      </trkpt>
      <trkpt lat="46.32147" lon="-1.09175">
        <ele>4.3</ele>
        <time>2020-06-02T15:00:34Z</time>
      </trkpt>
      <trkpt lat="46.3215" lon="-1.09179">
        <ele>4.3</ele>
        <time>2020-06-02T15:00:35Z</time>
      </trkpt>
      <trkpt lat="46.32153" lon="-1.09182">
        <ele>4.3</ele>
        <time>2020-06-02T15:00:36Z</time>
      </trkpt>
      <trkpt lat="46.32157" lon="-1.09186">
        <ele>4.3</ele>
        <time>2020-06-02T15:00:37Z</time>
      </trkpt>
      <trkpt lat="46.3216" lon="-1.0919">
        <ele>4.3</ele>
        <time>2020-06-02T15:00:38Z</time>
      </trkpt>
      <trkpt lat="46.32164" lon="-1.09194">
        <ele>4.3</ele>
        <time>2020-06-02T15:00:39Z</time>
      </trkpt>
      <trkpt lat="46.32166" lon="-1.09197">
        <ele>4.3</ele>
        <time>2020-06-02T15:00:40Z</time>
      </trkpt>
      <trkpt lat="46.32169" lon="-1.09199">
        <ele>4.3</ele>
        <time>2020-06-02T15:00:41Z</time>
      </trkpt>
      <trkpt lat="46.32172" lon="-1.09203">
        <ele>4.3</ele>
        <time>2020-06-02T15:00:42Z</time>
      </trkpt>
      <trkpt lat="46.32175" lon="-1.09206">
        <ele>4.3</ele>
        <time>2020-06-02T15:00:43Z</time>
      </trkpt>
      <trkpt lat="46.32179" lon="-1.0921">
        <ele>4.3</ele>
        <time>2020-06-02T15:00:44Z</time>
      </trkpt>
      <trkpt lat="46.32183" lon="-1.09214">
        <ele>4.3</ele>
        <time>2020-06-02T15:00:45Z</time>
      </trkpt>
      <trkpt lat="46.32186" lon="-1.09218">
        <ele>4.3</ele>
        <time>2020-06-02T15:00:46Z</time>
      </trkpt>
      <trkpt lat="46.32189" lon="-1.09222">
        <ele>4.3</ele>
        <time>2020-06-02T15:00:47Z</time>
      </trkpt>
      <trkpt lat="46.32192" lon="-1.09224">
        <ele>4.3</ele>
        <time>2020-06-02T15:00:48Z</time>
      </trkpt>
      <trkpt lat="46.32193" lon="-1.09225">
        <ele>4.3</ele>
        <time>2020-06-02T15:00:49Z</time>
      </trkpt>
      <trkpt lat="46.32194" lon="-1.09226">
        <ele>4.3</ele>
        <time>2020-06-02T15:00:50Z</time>
      </trkpt>
      <trkpt lat="46.32195" lon="-1.09226">
        <ele>4.3</ele>
        <time>2020-06-02T15:00:51Z</time>
      </trkpt>
      <trkpt lat="46.32195" lon="-1.09225">
        <ele>4.3</ele>
        <time>2020-06-02T15:00:52Z</time>
      </trkpt>
      <trkpt lat="46.32196" lon="-1.09223">
        <ele>4.3</ele>
        <time>2020-06-02T15:00:53Z</time>
      </trkpt>
      <trkpt lat="46.32196" lon="-1.09222">
        <ele>4.3</ele>
        <time>2020-06-02T15:00:54Z</time>
      </trkpt>
      <trkpt lat="46.32195" lon="-1.09221">
        <ele>4.3</ele>
        <time>2020-06-02T15:00:55Z</time>
      </trkpt>
      <trkpt lat="46.32195" lon="-1.09222">
        <ele>4.3</ele>
        <time>2020-06-02T15:00:56Z</time>
      </trkpt>
      <trkpt lat="46.32194" lon="-1.09222">
        <ele>4.3</ele>
        <time>2020-06-02T15:00:57Z</time>
      </trkpt>
      <trkpt lat="46.32194" lon="-1.09222">
        <ele>4.3</ele>
        <time>2020-06-02T15:00:58Z</time>
      </trkpt>
      <trkpt lat="46.32194" lon="-1.09222">
        <ele>4.3</ele>
        <time>2020-06-02T15:00:59Z</time>
      </trkpt>
      <trkpt lat="46.32195" lon="-1.09221">
        <ele>4.3</ele>
        <time>2020-06-02T15:01:00Z</time>
      </trkpt>
      <trkpt lat="46.32195" lon="-1.09221">
        <ele>4.3</ele>
        <time>2020-06-02T15:01:01Z</time>
      </trkpt>
      <trkpt lat="46.32194" lon="-1.09222">
        <ele>4.3</ele>
        <time>2020-06-02T15:01:02Z</time>
      </trkpt>
      <trkpt lat="46.32194" lon="-1.09222">
        <ele>4.3</ele>
        <time>2020-06-02T15:01:03Z</time>
      </trkpt>
      <trkpt lat="46.32194" lon="-1.09222">
        <ele>4.3</ele>
        <time>2020-06-02T15:01:04Z</time>
      </trkpt>
      <trkpt lat="46.32194" lon="-1.09222">
        <ele>4.3</ele>
        <time>2020-06-02T15:01:05Z</time>
      </trkpt>
      <trkpt lat="46.32194" lon="-1.09222">
        <ele>4.3</ele>
        <time>2020-06-02T15:01:06Z</time>
      </trkpt>
      <trkpt lat="46.32194" lon="-1.09223">
        <ele>4.3</ele>
        <time>2020-06-02T15:01:07Z</time>
      </trkpt>
      <trkpt lat="46.32194" lon="-1.09223">
        <ele>4.3</ele>
        <time>2020-06-02T15:01:08Z</time>
      </trkpt>
      <trkpt lat="46.32195" lon="-1.09224">
        <ele>4.3</ele>
        <time>2020-06-02T15:01:09Z</time>
      </trkpt>
      <trkpt lat="46.32195" lon="-1.09224">
        <ele>4.3</ele>
        <time>2020-06-02T15:01:10Z</time>
      </trkpt>
      <trkpt lat="46.32195" lon="-1.09224">
        <ele>4.3</ele>
        <time>2020-06-02T15:01:11Z</time>
      </trkpt>
      <trkpt lat="46.32196" lon="-1.09224">
        <ele>4.3</ele>
        <time>2020-06-02T15:01:12Z</time>
      </trkpt>
      <trkpt lat="46.32196" lon="-1.09224">
        <ele>4.3</ele>
        <time>2020-06-02T15:01:13Z</time>
      </trkpt>
      <trkpt lat="46.32196" lon="-1.09224">
        <ele>4.3</ele>
        <time>2020-06-02T15:01:14Z</time>
      </trkpt>
      <trkpt lat="46.32196" lon="-1.09224">
        <ele>4.3</ele>
        <time>2020-06-02T15:01:15Z</time>
      </trkpt>
      <trkpt lat="46.32196" lon="-1.09224">
        <ele>4.3</ele>
        <time>2020-06-02T15:01:16Z</time>
      </trkpt>
      <trkpt lat="46.32196" lon="-1.09225">
        <ele>4.3</ele>
        <time>2020-06-02T15:01:17Z</time>
      </trkpt>
      <trkpt lat="46.32196" lon="-1.09225">
        <ele>4.3</ele>
        <time>2020-06-02T15:01:18Z</time>
      </trkpt>
      <trkpt lat="46.32197" lon="-1.09225">
        <ele>4.3</ele>
        <time>2020-06-02T15:01:19Z</time>
      </trkpt>
      <trkpt lat="46.32197" lon="-1.09225">
        <ele>4.3</ele>
        <time>2020-06-02T15:01:20Z</time>
      </trkpt>
      <trkpt lat="46.32197" lon="-1.09225">
        <ele>4.3</ele>
        <time>2020-06-02T15:01:21Z</time>
      </trkpt>
      <trkpt lat="46.32197" lon="-1.09225">
        <ele>4.3</ele>
        <time>2020-06-02T15:01:22Z</time>
      </trkpt>
      <trkpt lat="46.32197" lon="-1.09225">
        <ele>4.3</ele>
        <time>2020-06-02T15:01:23Z</time>
      </trkpt>
      <trkpt lat="46.32197" lon="-1.09225">
        <ele>4.3</ele>
        <time>2020-06-02T15:01:24Z</time>
      </trkpt>
      <trkpt lat="46.32197" lon="-1.09225">
        <ele>4.3</ele>
        <time>2020-06-02T15:01:25Z</time>
      </trkpt>
      <trkpt lat="46.32197" lon="-1.09225">
        <ele>4.3</ele>
        <time>2020-06-02T15:01:26Z</time>
      </trkpt>
      <trkpt lat="46.32197" lon="-1.09225">
        <ele>4.3</ele>
        <time>2020-06-02T15:01:27Z</time>
      </trkpt>
      <trkpt lat="46.32197" lon="-1.09226">
        <ele>4.3</ele>
        <time>2020-06-02T15:01:28Z</time>
      </trkpt>
      <trkpt lat="46.32197" lon="-1.09226">
        <ele>4.3</ele>
        <time>2020-06-02T15:01:29Z</time>
      </trkpt>
      <trkpt lat="46.32197" lon="-1.09226">
        <ele>4.3</ele>
        <time>2020-06-02T15:01:30Z</time>
      </trkpt>
      <trkpt lat="46.32197" lon="-1.09226">
        <ele>4.3</ele>
        <time>2020-06-02T15:01:31Z</time>
      </trkpt>
      <trkpt lat="46.32197" lon="-1.09226">
        <ele>4.3</ele>
        <time>2020-06-02T15:01:32Z</time>
      </trkpt>
      <trkpt lat="46.32198" lon="-1.09226">
        <ele>4.3</ele>
        <time>2020-06-02T15:01:33Z</time>
      </trkpt>
      <trkpt lat="46.32198" lon="-1.09226">
        <ele>4.3</ele>
        <time>2020-06-02T15:01:34Z</time>
      </trkpt>
      <trkpt lat="46.32198" lon="-1.09226">
        <ele>4.3</ele>
        <time>2020-06-02T15:01:35Z</time>
      </trkpt>
      <trkpt lat="46.32198" lon="-1.09227">
        <ele>4.3</ele>
        <time>2020-06-02T15:01:36Z</time>
      </trkpt>
      <trkpt lat="46.32198" lon="-1.09227">
        <ele>4.3</ele>
        <time>2020-06-02T15:01:37Z</time>
      </trkpt>
      <trkpt lat="46.32198" lon="-1.09227">
        <ele>4.3</ele>
        <time>2020-06-02T15:01:38Z</time>
      </trkpt>
      <trkpt lat="46.32198" lon="-1.09227">
        <ele>4.3</ele>
        <time>2020-06-02T15:01:39Z</time>
      </trkpt>
      <trkpt lat="46.32198" lon="-1.09228">
        <ele>4.3</ele>
        <time>2020-06-02T15:01:40Z</time>
      </trkpt>
      <trkpt lat="46.32198" lon="-1.09228">
        <ele>4.3</ele>
        <time>2020-06-02T15:01:41Z</time>
      </trkpt>
      <trkpt lat="46.32198" lon="-1.09228">
        <ele>4.3</ele>
        <time>2020-06-02T15:01:42Z</time>
      </trkpt>
      <trkpt lat="46.32198" lon="-1.09228">
        <ele>4.3</ele>
        <time>2020-06-02T15:01:43Z</time>
      </trkpt>
      <trkpt lat="46.32198" lon="-1.09228">
        <ele>4.3</ele>
        <time>2020-06-02T15:01:44Z</time>
      </trkpt>
      <trkpt lat="46.32198" lon="-1.09229">
        <ele>4.3</ele>
        <time>2020-06-02T15:01:45Z</time>
      </trkpt>
      <trkpt lat="46.32198" lon="-1.09229">
        <ele>4.3</ele>
        <time>2020-06-02T15:01:46Z</time>
      </trkpt>
      <trkpt lat="46.32198" lon="-1.09229">
        <ele>4.3</ele>
        <time>2020-06-02T15:01:47Z</time>
      </trkpt>
      <trkpt lat="46.32198" lon="-1.09229">
        <ele>4.3</ele>
        <time>2020-06-02T15:01:48Z</time>
      </trkpt>
      <trkpt lat="46.32198" lon="-1.09229">
        <ele>4.3</ele>
        <time>2020-06-02T15:01:49Z</time>
      </trkpt>
      <trkpt lat="46.32198" lon="-1.09229">
        <ele>4.3</ele>
        <time>2020-06-02T15:01:50Z</time>
      </trkpt>
      <trkpt lat="46.32198" lon="-1.09229">
        <ele>4.3</ele>
        <time>2020-06-02T15:01:51Z</time>
      </trkpt>
      <trkpt lat="46.32198" lon="-1.0923">
        <ele>4.3</ele>
        <time>2020-06-02T15:01:52Z</time>
      </trkpt>
      <trkpt lat="46.32197" lon="-1.09231">
        <ele>4.3</ele>
        <time>2020-06-02T15:01:53Z</time>
      </trkpt>
      <trkpt lat="46.32197" lon="-1.09231">
        <ele>4.3</ele>
        <time>2020-06-02T15:01:54Z</time>
      </trkpt>
      <trkpt lat="46.32197" lon="-1.09231">
        <ele>4.3</ele>
        <time>2020-06-02T15:01:55Z</time>
      </trkpt>
      <trkpt lat="46.32197" lon="-1.09231">
        <ele>4.3</ele>
        <time>2020-06-02T15:01:56Z</time>
      </trkpt>
      <trkpt lat="46.32197" lon="-1.09231">
        <ele>4.3</ele>
        <time>2020-06-02T15:01:57Z</time>
      </trkpt>
      <trkpt lat="46.32197" lon="-1.09231">
        <ele>4.3</ele>
        <time>2020-06-02T15:01:58Z</time>
      </trkpt>
      <trkpt lat="46.32197" lon="-1.09231">
        <ele>4.3</ele>
        <time>2020-06-02T15:01:59Z</time>
      </trkpt>
      <trkpt lat="46.32198" lon="-1.09231">
        <ele>4.3</ele>
        <time>2020-06-02T15:02:00Z</time>
      </trkpt>
      <trkpt lat="46.32198" lon="-1.09231">
        <ele>4.3</ele>
        <time>2020-06-02T15:02:01Z</time>
      </trkpt>
      <trkpt lat="46.32198" lon="-1.09231">
        <ele>4.3</ele>
        <time>2020-06-02T15:02:02Z</time>
      </trkpt>
      <trkpt lat="46.32198" lon="-1.09231">
        <ele>4.3</ele>
        <time>2020-06-02T15:02:03Z</time>
      </trkpt>
      <trkpt lat="46.32198" lon="-1.09231">
        <ele>4.3</ele>
        <time>2020-06-02T15:02:04Z</time>
      </trkpt>
      <trkpt lat="46.32198" lon="-1.09231">
        <ele>4.3</ele>
        <time>2020-06-02T15:02:05Z</time>
      </trkpt>
      <trkpt lat="46.32198" lon="-1.09232">
        <ele>4.3</ele>
        <time>2020-06-02T15:02:06Z</time>
      </trkpt>
      <trkpt lat="46.32198" lon="-1.09233">
        <ele>4.3</ele>
        <time>2020-06-02T15:02:07Z</time>
      </trkpt>
      <trkpt lat="46.32198" lon="-1.09234">
        <ele>4.3</ele>
        <time>2020-06-02T15:02:08Z</time>
      </trkpt>
      <trkpt lat="46.32198" lon="-1.09234">
        <ele>4.3</ele>
        <time>2020-06-02T15:02:09Z</time>
      </trkpt>
      <trkpt lat="46.32198" lon="-1.09233">
        <ele>4.3</ele>
        <time>2020-06-02T15:02:10Z</time>
      </trkpt>
      <trkpt lat="46.32198" lon="-1.09233">
        <ele>4.3</ele>
        <time>2020-06-02T15:02:11Z</time>
      </trkpt>
      <trkpt lat="46.32198" lon="-1.09234">
        <ele>4.3</ele>
        <time>2020-06-02T15:02:12Z</time>
      </trkpt>
      <trkpt lat="46.32198" lon="-1.09233">
        <ele>4.3</ele>
        <time>2020-06-02T15:02:13Z</time>
      </trkpt>
      <trkpt lat="46.32198" lon="-1.09233">
        <ele>4.3</ele>
        <time>2020-06-02T15:02:14Z</time>
      </trkpt>
      <trkpt lat="46.32198" lon="-1.09233">
        <ele>4.3</ele>
        <time>2020-06-02T15:02:15Z</time>
      </trkpt>
      <trkpt lat="46.32198" lon="-1.09232">
        <ele>4.3</ele>
        <time>2020-06-02T15:02:16Z</time>
      </trkpt>
      <trkpt lat="46.32198" lon="-1.09232">
        <ele>4.3</ele>
        <time>2020-06-02T15:02:17Z</time>
      </trkpt>
      <trkpt lat="46.32198" lon="-1.09232">
        <ele>4.3</ele>
        <time>2020-06-02T15:02:18Z</time>
      </trkpt>
      <trkpt lat="46.32198" lon="-1.09232">
        <ele>4.3</ele>
        <time>2020-06-02T15:02:19Z</time>
      </trkpt>
      <trkpt lat="46.32198" lon="-1.09232">
        <ele>4.3</ele>
        <time>2020-06-02T15:02:20Z</time>
      </trkpt>
      <trkpt lat="46.32198" lon="-1.09232">
        <ele>4.3</ele>
        <time>2020-06-02T15:02:21Z</time>
      </trkpt>
      <trkpt lat="46.32199" lon="-1.09232">
        <ele>4.3</ele>
        <time>2020-06-02T15:02:22Z</time>
      </trkpt>
      <trkpt lat="46.32199" lon="-1.09232">
        <ele>4.3</ele>
        <time>2020-06-02T15:02:23Z</time>
      </trkpt>
      <trkpt lat="46.32199" lon="-1.09232">
        <ele>4.3</ele>
        <time>2020-06-02T15:02:24Z</time>
      </trkpt>
      <trkpt lat="46.32199" lon="-1.09233">
        <ele>4.3</ele>
        <time>2020-06-02T15:02:25Z</time>
      </trkpt>
      <trkpt lat="46.32199" lon="-1.09233">
        <ele>4.3</ele>
        <time>2020-06-02T15:02:26Z</time>
      </trkpt>
      <trkpt lat="46.32199" lon="-1.09233">
        <ele>4.3</ele>
        <time>2020-06-02T15:02:27Z</time>
      </trkpt>
      <trkpt lat="46.32199" lon="-1.09232">
        <ele>4.3</ele>
        <time>2020-06-02T15:02:28Z</time>
      </trkpt>
      <trkpt lat="46.322" lon="-1.09232">
        <ele>4.3</ele>
        <time>2020-06-02T15:02:29Z</time>
      </trkpt>
      <trkpt lat="46.32201" lon="-1.09232">
        <ele>4.3</ele>
        <time>2020-06-02T15:02:30Z</time>
      </trkpt>
      <trkpt lat="46.32201" lon="-1.09233">
        <ele>4.3</ele>
        <time>2020-06-02T15:02:31Z</time>
      </trkpt>
      <trkpt lat="46.32201" lon="-1.09233">
        <ele>4.3</ele>
        <time>2020-06-02T15:02:32Z</time>
      </trkpt>
      <trkpt lat="46.32201" lon="-1.09233">
        <ele>4.3</ele>
        <time>2020-06-02T15:02:33Z</time>
      </trkpt>
      <trkpt lat="46.32201" lon="-1.09233">
        <ele>4.3</ele>
        <time>2020-06-02T15:02:34Z</time>
      </trkpt>
      <trkpt lat="46.32201" lon="-1.09233">
        <ele>4.3</ele>
        <time>2020-06-02T15:02:35Z</time>
      </trkpt>
      <trkpt lat="46.32201" lon="-1.09233">
        <ele>4.3</ele>
        <time>2020-06-02T15:02:36Z</time>
      </trkpt>
      <trkpt lat="46.32201" lon="-1.09233">
        <ele>4.3</ele>
        <time>2020-06-02T15:02:37Z</time>
      </trkpt>
      <trkpt lat="46.32201" lon="-1.09233">
        <ele>4.3</ele>
        <time>2020-06-02T15:02:38Z</time>
      </trkpt>
      <trkpt lat="46.32201" lon="-1.09233">
        <ele>4.3</ele>
        <time>2020-06-02T15:02:39Z</time>
      </trkpt>
      <trkpt lat="46.32201" lon="-1.09233">
        <ele>4.3</ele>
        <time>2020-06-02T15:02:40Z</time>
      </trkpt>
      <trkpt lat="46.32201" lon="-1.09233">
        <ele>4.3</ele>
        <time>2020-06-02T15:02:41Z</time>
      </trkpt>
      <trkpt lat="46.32201" lon="-1.09233">
        <ele>4.3</ele>
        <time>2020-06-02T15:02:42Z</time>
      </trkpt>
      <trkpt lat="46.32201" lon="-1.09232">
        <ele>4.3</ele>
        <time>2020-06-02T15:02:43Z</time>
      </trkpt>
      <trkpt lat="46.32201" lon="-1.09232">
        <ele>4.3</ele>
        <time>2020-06-02T15:02:44Z</time>
      </trkpt>
      <trkpt lat="46.32202" lon="-1.09233">
        <ele>4.3</ele>
        <time>2020-06-02T15:02:45Z</time>
      </trkpt>
      <trkpt lat="46.32202" lon="-1.09233">
        <ele>4.3</ele>
        <time>2020-06-02T15:02:46Z</time>
      </trkpt>
      <trkpt lat="46.32201" lon="-1.09234">
        <ele>4.3</ele>
        <time>2020-06-02T15:02:47Z</time>
      </trkpt>
      <trkpt lat="46.32201" lon="-1.09233">
        <ele>4.3</ele>
        <time>2020-06-02T15:02:48Z</time>
      </trkpt>
      <trkpt lat="46.32202" lon="-1.09233">
        <ele>4.3</ele>
        <time>2020-06-02T15:02:49Z</time>
      </trkpt>
      <trkpt lat="46.32202" lon="-1.09233">
        <ele>4.3</ele>
        <time>2020-06-02T15:02:50Z</time>
      </trkpt>
      <trkpt lat="46.32202" lon="-1.09233">
        <ele>4.3</ele>
        <time>2020-06-02T15:02:51Z</time>
      </trkpt>
      <trkpt lat="46.32202" lon="-1.09233">
        <ele>4.3</ele>
        <time>2020-06-02T15:02:52Z</time>
      </trkpt>
      <trkpt lat="46.32202" lon="-1.09233">
        <ele>4.3</ele>
        <time>2020-06-02T15:02:53Z</time>
      </trkpt>
      <trkpt lat="46.32202" lon="-1.09233">
        <ele>4.3</ele>
        <time>2020-06-02T15:02:54Z</time>
      </trkpt>
      <trkpt lat="46.32202" lon="-1.09233">
        <ele>4.3</ele>
        <time>2020-06-02T15:02:55Z</time>
      </trkpt>
      <trkpt lat="46.32202" lon="-1.09233">
        <ele>4.3</ele>
        <time>2020-06-02T15:02:56Z</time>
      </trkpt>
      <trkpt lat="46.32202" lon="-1.09233">
        <ele>4.3</ele>
        <time>2020-06-02T15:02:57Z</time>
      </trkpt>
      <trkpt lat="46.32202" lon="-1.09233">
        <ele>4.3</ele>
        <time>2020-06-02T15:02:58Z</time>
      </trkpt>
      <trkpt lat="46.32203" lon="-1.09233">
        <ele>4.3</ele>
        <time>2020-06-02T15:02:59Z</time>
      </trkpt>
      <trkpt lat="46.32203" lon="-1.09233">
        <ele>4.3</ele>
        <time>2020-06-02T15:03:00Z</time>
      </trkpt>
      <trkpt lat="46.32203" lon="-1.09233">
        <ele>4.3</ele>
        <time>2020-06-02T15:03:01Z</time>
      </trkpt>
      <trkpt lat="46.32203" lon="-1.09233">
        <ele>4.3</ele>
        <time>2020-06-02T15:03:02Z</time>
      </trkpt>
      <trkpt lat="46.32203" lon="-1.09233">
        <ele>4.3</ele>
        <time>2020-06-02T15:03:03Z</time>
      </trkpt>
      <trkpt lat="46.32203" lon="-1.09233">
        <ele>4.3</ele>
        <time>2020-06-02T15:03:04Z</time>
      </trkpt>
      <trkpt lat="46.32203" lon="-1.09233">
        <ele>4.3</ele>
        <time>2020-06-02T15:03:05Z</time>
      </trkpt>
      <trkpt lat="46.32203" lon="-1.09233">
        <ele>4.3</ele>
        <time>2020-06-02T15:03:06Z</time>
      </trkpt>
      <trkpt lat="46.32203" lon="-1.09233">
        <ele>4.3</ele>
        <time>2020-06-02T15:03:07Z</time>
      </trkpt>
      <trkpt lat="46.32203" lon="-1.09233">
        <ele>4.3</ele>
        <time>2020-06-02T15:03:08Z</time>
      </trkpt>
      <trkpt lat="46.32203" lon="-1.09232">
        <ele>4.3</ele>
        <time>2020-06-02T15:03:09Z</time>
      </trkpt>
      <trkpt lat="46.32204" lon="-1.09232">
        <ele>4.3</ele>
        <time>2020-06-02T15:03:10Z</time>
      </trkpt>
      <trkpt lat="46.32204" lon="-1.09233">
        <ele>4.3</ele>
        <time>2020-06-02T15:03:11Z</time>
      </trkpt>
      <trkpt lat="46.32204" lon="-1.09232">
        <ele>4.3</ele>
        <time>2020-06-02T15:03:12Z</time>
      </trkpt>
      <trkpt lat="46.32204" lon="-1.09232">
        <ele>4.3</ele>
        <time>2020-06-02T15:03:13Z</time>
      </trkpt>
      <trkpt lat="46.32204" lon="-1.09233">
        <ele>4.3</ele>
        <time>2020-06-02T15:03:14Z</time>
      </trkpt>
      <trkpt lat="46.32204" lon="-1.09233">
        <ele>4.3</ele>
        <time>2020-06-02T15:03:15Z</time>
      </trkpt>
      <trkpt lat="46.32204" lon="-1.09233">
        <ele>4.3</ele>
        <time>2020-06-02T15:03:16Z</time>
      </trkpt>
      <trkpt lat="46.32204" lon="-1.09233">
        <ele>4.3</ele>
        <time>2020-06-02T15:03:17Z</time>
      </trkpt>
      <trkpt lat="46.32204" lon="-1.09233">
        <ele>4.3</ele>
        <time>2020-06-02T15:03:18Z</time>
      </trkpt>
      <trkpt lat="46.32204" lon="-1.09233">
        <ele>4.3</ele>
        <time>2020-06-02T15:03:19Z</time>
      </trkpt>
      <trkpt lat="46.32204" lon="-1.09233">
        <ele>4.3</ele>
        <time>2020-06-02T15:03:20Z</time>
      </trkpt>
      <trkpt lat="46.32203" lon="-1.09233">
        <ele>4.3</ele>
        <time>2020-06-02T15:03:21Z</time>
      </trkpt>
      <trkpt lat="46.32203" lon="-1.09233">
        <ele>4.3</ele>
        <time>2020-06-02T15:03:22Z</time>
      </trkpt>
      <trkpt lat="46.32203" lon="-1.09232">
        <ele>4.3</ele>
        <time>2020-06-02T15:03:23Z</time>
      </trkpt>
      <trkpt lat="46.32203" lon="-1.09232">
        <ele>4.3</ele>
        <time>2020-06-02T15:03:24Z</time>
      </trkpt>
      <trkpt lat="46.32202" lon="-1.09233">
        <ele>4.3</ele>
        <time>2020-06-02T15:03:25Z</time>
      </trkpt>
      <trkpt lat="46.32202" lon="-1.09233">
        <ele>4.3</ele>
        <time>2020-06-02T15:03:26Z</time>
      </trkpt>
      <trkpt lat="46.32202" lon="-1.09233">
        <ele>4.3</ele>
        <time>2020-06-02T15:03:27Z</time>
      </trkpt>
      <trkpt lat="46.32202" lon="-1.09233">
        <ele>4.3</ele>
        <time>2020-06-02T15:03:28Z</time>
      </trkpt>
      <trkpt lat="46.32202" lon="-1.09233">
        <ele>4.3</ele>
        <time>2020-06-02T15:03:29Z</time>
      </trkpt>
      <trkpt lat="46.32202" lon="-1.09233">
        <ele>4.3</ele>
        <time>2020-06-02T15:03:30Z</time>
      </trkpt>
      <trkpt lat="46.32202" lon="-1.09233">
        <ele>4.3</ele>
        <time>2020-06-02T15:03:31Z</time>
      </trkpt>
      <trkpt lat="46.32202" lon="-1.09233">
        <ele>4.3</ele>
        <time>2020-06-02T15:03:32Z</time>
      </trkpt>
      <trkpt lat="46.32202" lon="-1.09232">
        <ele>4.3</ele>
        <time>2020-06-02T15:03:33Z</time>
      </trkpt>
      <trkpt lat="46.32201" lon="-1.09232">
        <ele>4.3</ele>
        <time>2020-06-02T15:03:34Z</time>
      </trkpt>
      <trkpt lat="46.322" lon="-1.09231">
        <ele>4.3</ele>
        <time>2020-06-02T15:03:35Z</time>
      </trkpt>
      <trkpt lat="46.32201" lon="-1.09232">
        <ele>4.3</ele>
        <time>2020-06-02T15:03:36Z</time>
      </trkpt>
      <trkpt lat="46.32201" lon="-1.09233">
        <ele>4.3</ele>
        <time>2020-06-02T15:03:37Z</time>
      </trkpt>
      <trkpt lat="46.32202" lon="-1.09234">
        <ele>4.3</ele>
        <time>2020-06-02T15:03:38Z</time>
      </trkpt>
      <trkpt lat="46.32202" lon="-1.09235">
        <ele>4.3</ele>
        <time>2020-06-02T15:03:39Z</time>
      </trkpt>
      <trkpt lat="46.32203" lon="-1.09236">
        <ele>4.3</ele>
        <time>2020-06-02T15:03:40Z</time>
      </trkpt>
      <trkpt lat="46.32204" lon="-1.09236">
        <ele>4.3</ele>
        <time>2020-06-02T15:03:41Z</time>
      </trkpt>
      <trkpt lat="46.32205" lon="-1.0924">
        <ele>4.3</ele>
        <time>2020-06-02T15:03:42Z</time>
      </trkpt>
      <trkpt lat="46.32209" lon="-1.09243">
        <ele>4.4</ele>
        <time>2020-06-02T15:03:43Z</time>
      </trkpt>
      <trkpt lat="46.32213" lon="-1.09246">
        <ele>4.4</ele>
        <time>2020-06-02T15:03:44Z</time>
      </trkpt>
      <trkpt lat="46.32218" lon="-1.09251">
        <ele>4.4</ele>
        <time>2020-06-02T15:03:45Z</time>
      </trkpt>
      <trkpt lat="46.32223" lon="-1.09256">
        <ele>4.4</ele>
        <time>2020-06-02T15:03:46Z</time>
      </trkpt>
      <trkpt lat="46.32228" lon="-1.09262">
        <ele>4.4</ele>
        <time>2020-06-02T15:03:47Z</time>
      </trkpt>
      <trkpt lat="46.32233" lon="-1.09267">
        <ele>4.4</ele>
        <time>2020-06-02T15:03:48Z</time>
      </trkpt>
      <trkpt lat="46.3224" lon="-1.09272">
        <ele>4.4</ele>
        <time>2020-06-02T15:03:49Z</time>
      </trkpt>
      <trkpt lat="46.32245" lon="-1.09278">
        <ele>4.4</ele>
        <time>2020-06-02T15:03:50Z</time>
      </trkpt>
      <trkpt lat="46.32251" lon="-1.09283">
        <ele>4.4</ele>
        <time>2020-06-02T15:03:51Z</time>
      </trkpt>
      <trkpt lat="46.32257" lon="-1.09288">
        <ele>4.4</ele>
        <time>2020-06-02T15:03:52Z</time>
      </trkpt>
      <trkpt lat="46.32262" lon="-1.09293">
        <ele>4.3</ele>
        <time>2020-06-02T15:03:53Z</time>
      </trkpt>
      <trkpt lat="46.32268" lon="-1.09299">
        <ele>4.2</ele>
        <time>2020-06-02T15:03:54Z</time>
      </trkpt>
      <trkpt lat="46.32274" lon="-1.09305">
        <ele>4.2</ele>
        <time>2020-06-02T15:03:55Z</time>
      </trkpt>
      <trkpt lat="46.32279" lon="-1.09311">
        <ele>4.2</ele>
        <time>2020-06-02T15:03:56Z</time>
      </trkpt>
      <trkpt lat="46.32285" lon="-1.09317">
        <ele>4.3</ele>
        <time>2020-06-02T15:03:57Z</time>
      </trkpt>
      <trkpt lat="46.3229" lon="-1.09323">
        <ele>4.6</ele>
        <time>2020-06-02T15:03:58Z</time>
      </trkpt>
      <trkpt lat="46.32295" lon="-1.09328">
        <ele>4.8</ele>
        <time>2020-06-02T15:03:59Z</time>
      </trkpt>
      <trkpt lat="46.323" lon="-1.09333">
        <ele>5.1</ele>
        <time>2020-06-02T15:04:00Z</time>
      </trkpt>
      <trkpt lat="46.32304" lon="-1.09338">
        <ele>5.3</ele>
        <time>2020-06-02T15:04:01Z</time>
      </trkpt>
      <trkpt lat="46.32309" lon="-1.09345">
        <ele>5.3</ele>
        <time>2020-06-02T15:04:02Z</time>
      </trkpt>
      <trkpt lat="46.32313" lon="-1.0935">
        <ele>5.2</ele>
        <time>2020-06-02T15:04:03Z</time>
      </trkpt>
      <trkpt lat="46.32317" lon="-1.09357">
        <ele>5.1</ele>
        <time>2020-06-02T15:04:04Z</time>
      </trkpt>
      <trkpt lat="46.32322" lon="-1.09364">
        <ele>5</ele>
        <time>2020-06-02T15:04:05Z</time>
      </trkpt>
      <trkpt lat="46.32327" lon="-1.09369">
        <ele>4.9</ele>
        <time>2020-06-02T15:04:06Z</time>
      </trkpt>
      <trkpt lat="46.32331" lon="-1.09376">
        <ele>4.9</ele>
        <time>2020-06-02T15:04:07Z</time>
      </trkpt>
      <trkpt lat="46.32337" lon="-1.09383">
        <ele>4.9</ele>
        <time>2020-06-02T15:04:08Z</time>
      </trkpt>
      <trkpt lat="46.32341" lon="-1.09391">
        <ele>4.9</ele>
        <time>2020-06-02T15:04:09Z</time>
      </trkpt>
      <trkpt lat="46.32346" lon="-1.09397">
        <ele>4.9</ele>
        <time>2020-06-02T15:04:10Z</time>
      </trkpt>
      <trkpt lat="46.32351" lon="-1.09403">
        <ele>4.9</ele>
        <time>2020-06-02T15:04:11Z</time>
      </trkpt>
      <trkpt lat="46.32356" lon="-1.09409">
        <ele>4.9</ele>
        <time>2020-06-02T15:04:12Z</time>
      </trkpt>
      <trkpt lat="46.32361" lon="-1.09415">
        <ele>4.9</ele>
        <time>2020-06-02T15:04:13Z</time>
      </trkpt>
      <trkpt lat="46.32366" lon="-1.0942">
        <ele>4.9</ele>
        <time>2020-06-02T15:04:14Z</time>
      </trkpt>
      <trkpt lat="46.32371" lon="-1.09426">
        <ele>4.9</ele>
        <time>2020-06-02T15:04:15Z</time>
      </trkpt>
      <trkpt lat="46.32376" lon="-1.09433">
        <ele>4.9</ele>
        <time>2020-06-02T15:04:16Z</time>
      </trkpt>
      <trkpt lat="46.3238" lon="-1.09438">
        <ele>4.9</ele>
        <time>2020-06-02T15:04:17Z</time>
      </trkpt>
      <trkpt lat="46.32385" lon="-1.09444">
        <ele>4.9</ele>
        <time>2020-06-02T15:04:18Z</time>
      </trkpt>
      <trkpt lat="46.32389" lon="-1.09449">
        <ele>4.9</ele>
        <time>2020-06-02T15:04:19Z</time>
      </trkpt>
      <trkpt lat="46.32394" lon="-1.09456">
        <ele>4.8</ele>
        <time>2020-06-02T15:04:20Z</time>
      </trkpt>
      <trkpt lat="46.32399" lon="-1.09462">
        <ele>4.8</ele>
        <time>2020-06-02T15:04:21Z</time>
      </trkpt>
      <trkpt lat="46.32404" lon="-1.09469">
        <ele>4.8</ele>
        <time>2020-06-02T15:04:22Z</time>
      </trkpt>
      <trkpt lat="46.32409" lon="-1.09476">
        <ele>4.8</ele>
        <time>2020-06-02T15:04:23Z</time>
      </trkpt>
      <trkpt lat="46.32413" lon="-1.09482">
        <ele>4.9</ele>
        <time>2020-06-02T15:04:24Z</time>
      </trkpt>
      <trkpt lat="46.32417" lon="-1.09488">
        <ele>4.9</ele>
        <time>2020-06-02T15:04:25Z</time>
      </trkpt>
      <trkpt lat="46.32421" lon="-1.09493">
        <ele>4.9</ele>
        <time>2020-06-02T15:04:26Z</time>
      </trkpt>
      <trkpt lat="46.32425" lon="-1.09498">
        <ele>4.8</ele>
        <time>2020-06-02T15:04:27Z</time>
      </trkpt>
      <trkpt lat="46.3243" lon="-1.09504">
        <ele>4.8</ele>
        <time>2020-06-02T15:04:28Z</time>
      </trkpt>
      <trkpt lat="46.32434" lon="-1.09509">
        <ele>4.8</ele>
        <time>2020-06-02T15:04:29Z</time>
      </trkpt>
      <trkpt lat="46.32439" lon="-1.09516">
        <ele>4.7</ele>
        <time>2020-06-02T15:04:30Z</time>
      </trkpt>
      <trkpt lat="46.32442" lon="-1.09521">
        <ele>4.7</ele>
        <time>2020-06-02T15:04:31Z</time>
      </trkpt>
      <trkpt lat="46.32446" lon="-1.09527">
        <ele>4.7</ele>
        <time>2020-06-02T15:04:32Z</time>
      </trkpt>
      <trkpt lat="46.32449" lon="-1.09532">
        <ele>4.7</ele>
        <time>2020-06-02T15:04:33Z</time>
      </trkpt>
      <trkpt lat="46.32453" lon="-1.09537">
        <ele>4.7</ele>
        <time>2020-06-02T15:04:34Z</time>
      </trkpt>
      <trkpt lat="46.32457" lon="-1.09542">
        <ele>4.7</ele>
        <time>2020-06-02T15:04:35Z</time>
      </trkpt>
      <trkpt lat="46.3246" lon="-1.09546">
        <ele>4.7</ele>
        <time>2020-06-02T15:04:36Z</time>
      </trkpt>
      <trkpt lat="46.32464" lon="-1.09551">
        <ele>4.7</ele>
        <time>2020-06-02T15:04:37Z</time>
      </trkpt>
      <trkpt lat="46.32468" lon="-1.09555">
        <ele>4.7</ele>
        <time>2020-06-02T15:04:38Z</time>
      </trkpt>
      <trkpt lat="46.32472" lon="-1.0956">
        <ele>4.6</ele>
        <time>2020-06-02T15:04:39Z</time>
      </trkpt>
      <trkpt lat="46.32476" lon="-1.09565">
        <ele>4.6</ele>
        <time>2020-06-02T15:04:40Z</time>
      </trkpt>
      <trkpt lat="46.3248" lon="-1.09569">
        <ele>4.5</ele>
        <time>2020-06-02T15:04:41Z</time>
      </trkpt>
      <trkpt lat="46.32484" lon="-1.09573">
        <ele>4.5</ele>
        <time>2020-06-02T15:04:42Z</time>
      </trkpt>
      <trkpt lat="46.32487" lon="-1.09577">
        <ele>4.4</ele>
        <time>2020-06-02T15:04:43Z</time>
      </trkpt>
      <trkpt lat="46.32491" lon="-1.09582">
        <ele>4.3</ele>
        <time>2020-06-02T15:04:44Z</time>
      </trkpt>
      <trkpt lat="46.32494" lon="-1.09585">
        <ele>4.2</ele>
        <time>2020-06-02T15:04:45Z</time>
      </trkpt>
      <trkpt lat="46.32497" lon="-1.09588">
        <ele>4.2</ele>
        <time>2020-06-02T15:04:46Z</time>
      </trkpt>
      <trkpt lat="46.325" lon="-1.09591">
        <ele>4.1</ele>
        <time>2020-06-02T15:04:47Z</time>
      </trkpt>
      <trkpt lat="46.32504" lon="-1.09595">
        <ele>4.1</ele>
        <time>2020-06-02T15:04:48Z</time>
      </trkpt>
      <trkpt lat="46.32507" lon="-1.096">
        <ele>4.1</ele>
        <time>2020-06-02T15:04:49Z</time>
      </trkpt>
      <trkpt lat="46.32509" lon="-1.09603">
        <ele>4.1</ele>
        <time>2020-06-02T15:04:50Z</time>
      </trkpt>
      <trkpt lat="46.32512" lon="-1.09608">
        <ele>4.2</ele>
        <time>2020-06-02T15:04:51Z</time>
      </trkpt>
      <trkpt lat="46.32515" lon="-1.09612">
        <ele>4.2</ele>
        <time>2020-06-02T15:04:52Z</time>
      </trkpt>
      <trkpt lat="46.32518" lon="-1.09616">
        <ele>4.3</ele>
        <time>2020-06-02T15:04:53Z</time>
      </trkpt>
      <trkpt lat="46.32521" lon="-1.0962">
        <ele>4.4</ele>
        <time>2020-06-02T15:04:54Z</time>
      </trkpt>
      <trkpt lat="46.32524" lon="-1.09623">
        <ele>4.5</ele>
        <time>2020-06-02T15:04:55Z</time>
      </trkpt>
      <trkpt lat="46.32527" lon="-1.09627">
        <ele>4.6</ele>
        <time>2020-06-02T15:04:56Z</time>
      </trkpt>
      <trkpt lat="46.32529" lon="-1.0963">
        <ele>4.7</ele>
        <time>2020-06-02T15:04:57Z</time>
      </trkpt>
      <trkpt lat="46.32532" lon="-1.09633">
        <ele>4.8</ele>
        <time>2020-06-02T15:04:58Z</time>
      </trkpt>
      <trkpt lat="46.32535" lon="-1.09637">
        <ele>4.9</ele>
        <time>2020-06-02T15:04:59Z</time>
      </trkpt>
      <trkpt lat="46.32539" lon="-1.09641">
        <ele>4.9</ele>
        <time>2020-06-02T15:05:00Z</time>
      </trkpt>
      <trkpt lat="46.32542" lon="-1.09645">
        <ele>5</ele>
        <time>2020-06-02T15:05:01Z</time>
      </trkpt>
      <trkpt lat="46.32545" lon="-1.09648">
        <ele>5</ele>
        <time>2020-06-02T15:05:02Z</time>
      </trkpt>
      <trkpt lat="46.32548" lon="-1.09652">
        <ele>5</ele>
        <time>2020-06-02T15:05:03Z</time>
      </trkpt>
      <trkpt lat="46.3255" lon="-1.09655">
        <ele>4.9</ele>
        <time>2020-06-02T15:05:04Z</time>
      </trkpt>
      <trkpt lat="46.32553" lon="-1.09659">
        <ele>4.8</ele>
        <time>2020-06-02T15:05:05Z</time>
      </trkpt>
      <trkpt lat="46.32557" lon="-1.09664">
        <ele>4.7</ele>
        <time>2020-06-02T15:05:06Z</time>
      </trkpt>
      <trkpt lat="46.32561" lon="-1.09669">
        <ele>4.6</ele>
        <time>2020-06-02T15:05:07Z</time>
      </trkpt>
      <trkpt lat="46.32564" lon="-1.09671">
        <ele>4.5</ele>
        <time>2020-06-02T15:05:08Z</time>
      </trkpt>
      <trkpt lat="46.32567" lon="-1.09675">
        <ele>4.4</ele>
        <time>2020-06-02T15:05:09Z</time>
      </trkpt>
      <trkpt lat="46.32569" lon="-1.09678">
        <ele>4.3</ele>
        <time>2020-06-02T15:05:10Z</time>
      </trkpt>
      <trkpt lat="46.32572" lon="-1.09682">
        <ele>4.2</ele>
        <time>2020-06-02T15:05:11Z</time>
      </trkpt>
      <trkpt lat="46.32574" lon="-1.09684">
        <ele>4.2</ele>
        <time>2020-06-02T15:05:12Z</time>
      </trkpt>
      <trkpt lat="46.32577" lon="-1.09687">
        <ele>4.2</ele>
        <time>2020-06-02T15:05:13Z</time>
      </trkpt>
      <trkpt lat="46.32577" lon="-1.09687">
        <ele>4.2</ele>
        <time>2020-06-02T15:05:14Z</time>
      </trkpt>
      <trkpt lat="46.32578" lon="-1.09687">
        <ele>4.2</ele>
        <time>2020-06-02T15:05:15Z</time>
      </trkpt>
      <trkpt lat="46.32577" lon="-1.09687">
        <ele>4.1</ele>
        <time>2020-06-02T15:05:16Z</time>
      </trkpt>
      <trkpt lat="46.32576" lon="-1.09686">
        <ele>4.1</ele>
        <time>2020-06-02T15:05:17Z</time>
      </trkpt>
      <trkpt lat="46.32576" lon="-1.09685">
        <ele>4.1</ele>
        <time>2020-06-02T15:05:18Z</time>
      </trkpt>
      <trkpt lat="46.32575" lon="-1.09685">
        <ele>4.1</ele>
        <time>2020-06-02T15:05:19Z</time>
      </trkpt>
      <trkpt lat="46.32575" lon="-1.09684">
        <ele>4.1</ele>
        <time>2020-06-02T15:05:20Z</time>
      </trkpt>
      <trkpt lat="46.32575" lon="-1.09684">
        <ele>4.1</ele>
        <time>2020-06-02T15:05:21Z</time>
      </trkpt>
      <trkpt lat="46.32575" lon="-1.09685">
        <ele>4.1</ele>
        <time>2020-06-02T15:05:22Z</time>
      </trkpt>
      <trkpt lat="46.32575" lon="-1.09685">
        <ele>4.1</ele>
        <time>2020-06-02T15:05:23Z</time>
      </trkpt>
      <trkpt lat="46.32575" lon="-1.09685">
        <ele>4.1</ele>
        <time>2020-06-02T15:05:24Z</time>
      </trkpt>
      <trkpt lat="46.32575" lon="-1.09685">
        <ele>4.1</ele>
        <time>2020-06-02T15:05:25Z</time>
      </trkpt>
      <trkpt lat="46.32575" lon="-1.09685">
        <ele>4.1</ele>
        <time>2020-06-02T15:05:26Z</time>
      </trkpt>
      <trkpt lat="46.32575" lon="-1.09685">
        <ele>4.1</ele>
        <time>2020-06-02T15:05:27Z</time>
      </trkpt>
      <trkpt lat="46.32576" lon="-1.09685">
        <ele>4.1</ele>
        <time>2020-06-02T15:05:28Z</time>
      </trkpt>
      <trkpt lat="46.32576" lon="-1.09685">
        <ele>4.1</ele>
        <time>2020-06-02T15:05:29Z</time>
      </trkpt>
      <trkpt lat="46.32576" lon="-1.09685">
        <ele>4.1</ele>
        <time>2020-06-02T15:05:30Z</time>
      </trkpt>
      <trkpt lat="46.32576" lon="-1.09685">
        <ele>4.1</ele>
        <time>2020-06-02T15:05:31Z</time>
      </trkpt>
      <trkpt lat="46.32576" lon="-1.09685">
        <ele>4.1</ele>
        <time>2020-06-02T15:05:32Z</time>
      </trkpt>
      <trkpt lat="46.32576" lon="-1.09685">
        <ele>4.1</ele>
        <time>2020-06-02T15:05:33Z</time>
      </trkpt>
      <trkpt lat="46.32576" lon="-1.09686">
        <ele>4.1</ele>
        <time>2020-06-02T15:05:34Z</time>
      </trkpt>
      <trkpt lat="46.32576" lon="-1.09686">
        <ele>4.1</ele>
        <time>2020-06-02T15:05:35Z</time>
      </trkpt>
      <trkpt lat="46.32576" lon="-1.09686">
        <ele>4.1</ele>
        <time>2020-06-02T15:05:36Z</time>
      </trkpt>
      <trkpt lat="46.32576" lon="-1.09686">
        <ele>4.1</ele>
        <time>2020-06-02T15:05:37Z</time>
      </trkpt>
      <trkpt lat="46.32576" lon="-1.09686">
        <ele>4.1</ele>
        <time>2020-06-02T15:05:38Z</time>
      </trkpt>
      <trkpt lat="46.32576" lon="-1.09686">
        <ele>4.1</ele>
        <time>2020-06-02T15:05:39Z</time>
      </trkpt>
      <trkpt lat="46.32577" lon="-1.09686">
        <ele>4.1</ele>
        <time>2020-06-02T15:05:40Z</time>
      </trkpt>
      <trkpt lat="46.32577" lon="-1.09686">
        <ele>4.1</ele>
        <time>2020-06-02T15:05:41Z</time>
      </trkpt>
      <trkpt lat="46.32577" lon="-1.09686">
        <ele>4.1</ele>
        <time>2020-06-02T15:05:42Z</time>
      </trkpt>
      <trkpt lat="46.32577" lon="-1.09686">
        <ele>4.1</ele>
        <time>2020-06-02T15:05:43Z</time>
      </trkpt>
      <trkpt lat="46.32577" lon="-1.09686">
        <ele>4.1</ele>
        <time>2020-06-02T15:05:44Z</time>
      </trkpt>
      <trkpt lat="46.32577" lon="-1.09686">
        <ele>4.1</ele>
        <time>2020-06-02T15:05:45Z</time>
      </trkpt>
      <trkpt lat="46.32577" lon="-1.09687">
        <ele>4.1</ele>
        <time>2020-06-02T15:05:46Z</time>
      </trkpt>
      <trkpt lat="46.32577" lon="-1.09687">
        <ele>4.1</ele>
        <time>2020-06-02T15:05:47Z</time>
      </trkpt>
      <trkpt lat="46.32577" lon="-1.09687">
        <ele>4.1</ele>
        <time>2020-06-02T15:05:48Z</time>
      </trkpt>
      <trkpt lat="46.32577" lon="-1.09687">
        <ele>4.1</ele>
        <time>2020-06-02T15:05:49Z</time>
      </trkpt>
      <trkpt lat="46.32577" lon="-1.09687">
        <ele>4.1</ele>
        <time>2020-06-02T15:05:50Z</time>
      </trkpt>
      <trkpt lat="46.32577" lon="-1.09687">
        <ele>4.1</ele>
        <time>2020-06-02T15:05:51Z</time>
      </trkpt>
      <trkpt lat="46.32578" lon="-1.09687">
        <ele>4.1</ele>
        <time>2020-06-02T15:05:52Z</time>
      </trkpt>
      <trkpt lat="46.32578" lon="-1.09687">
        <ele>4.1</ele>
        <time>2020-06-02T15:05:53Z</time>
      </trkpt>
      <trkpt lat="46.32578" lon="-1.09687">
        <ele>4.1</ele>
        <time>2020-06-02T15:05:54Z</time>
      </trkpt>
      <trkpt lat="46.32578" lon="-1.09687">
        <ele>4.1</ele>
        <time>2020-06-02T15:05:55Z</time>
      </trkpt>
      <trkpt lat="46.32578" lon="-1.09687">
        <ele>4.1</ele>
        <time>2020-06-02T15:05:56Z</time>
      </trkpt>
      <trkpt lat="46.32578" lon="-1.09687">
        <ele>4.1</ele>
        <time>2020-06-02T15:05:57Z</time>
      </trkpt>
      <trkpt lat="46.32578" lon="-1.09688">
        <ele>4.1</ele>
        <time>2020-06-02T15:05:58Z</time>
      </trkpt>
      <trkpt lat="46.32578" lon="-1.09688">
        <ele>4.1</ele>
        <time>2020-06-02T15:05:59Z</time>
      </trkpt>
      <trkpt lat="46.32578" lon="-1.09688">
        <ele>4.1</ele>
        <time>2020-06-02T15:06:00Z</time>
      </trkpt>
      <trkpt lat="46.32578" lon="-1.09688">
        <ele>4.1</ele>
        <time>2020-06-02T15:06:01Z</time>
      </trkpt>
      <trkpt lat="46.32578" lon="-1.09688">
        <ele>4.1</ele>
        <time>2020-06-02T15:06:02Z</time>
      </trkpt>
      <trkpt lat="46.3258" lon="-1.09691">
        <ele>4.1</ele>
        <time>2020-06-02T15:06:03Z</time>
      </trkpt>
      <trkpt lat="46.32583" lon="-1.09696">
        <ele>4</ele>
        <time>2020-06-02T15:06:04Z</time>
      </trkpt>
      <trkpt lat="46.32584" lon="-1.09697">
        <ele>4</ele>
        <time>2020-06-02T15:06:05Z</time>
      </trkpt>
      <trkpt lat="46.32586" lon="-1.097">
        <ele>4</ele>
        <time>2020-06-02T15:06:06Z</time>
      </trkpt>
      <trkpt lat="46.32589" lon="-1.09703">
        <ele>4</ele>
        <time>2020-06-02T15:06:07Z</time>
      </trkpt>
      <trkpt lat="46.32592" lon="-1.09707">
        <ele>4</ele>
        <time>2020-06-02T15:06:08Z</time>
      </trkpt>
      <trkpt lat="46.32595" lon="-1.0971">
        <ele>4.1</ele>
        <time>2020-06-02T15:06:09Z</time>
      </trkpt>
      <trkpt lat="46.32598" lon="-1.09713">
        <ele>4.1</ele>
        <time>2020-06-02T15:06:10Z</time>
      </trkpt>
      <trkpt lat="46.32602" lon="-1.09716">
        <ele>4.1</ele>
        <time>2020-06-02T15:06:11Z</time>
      </trkpt>
      <trkpt lat="46.32604" lon="-1.0972">
        <ele>4.1</ele>
        <time>2020-06-02T15:06:12Z</time>
      </trkpt>
      <trkpt lat="46.32607" lon="-1.09724">
        <ele>4.1</ele>
        <time>2020-06-02T15:06:13Z</time>
      </trkpt>
      <trkpt lat="46.3261" lon="-1.09726">
        <ele>4.1</ele>
        <time>2020-06-02T15:06:14Z</time>
      </trkpt>
      <trkpt lat="46.32612" lon="-1.0973">
        <ele>4.1</ele>
        <time>2020-06-02T15:06:15Z</time>
      </trkpt>
      <trkpt lat="46.32616" lon="-1.09734">
        <ele>4.1</ele>
        <time>2020-06-02T15:06:16Z</time>
      </trkpt>
      <trkpt lat="46.32619" lon="-1.09737">
        <ele>4.1</ele>
        <time>2020-06-02T15:06:17Z</time>
      </trkpt>
      <trkpt lat="46.32623" lon="-1.0974">
        <ele>4.1</ele>
        <time>2020-06-02T15:06:18Z</time>
      </trkpt>
      <trkpt lat="46.32626" lon="-1.09744">
        <ele>4.1</ele>
        <time>2020-06-02T15:06:19Z</time>
      </trkpt>
      <trkpt lat="46.32629" lon="-1.09749">
        <ele>4.1</ele>
        <time>2020-06-02T15:06:20Z</time>
      </trkpt>
      <trkpt lat="46.32633" lon="-1.09753">
        <ele>4.1</ele>
        <time>2020-06-02T15:06:21Z</time>
      </trkpt>
      <trkpt lat="46.32637" lon="-1.09757">
        <ele>4.1</ele>
        <time>2020-06-02T15:06:22Z</time>
      </trkpt>
      <trkpt lat="46.3264" lon="-1.09761">
        <ele>4.1</ele>
        <time>2020-06-02T15:06:23Z</time>
      </trkpt>
      <trkpt lat="46.32644" lon="-1.09765">
        <ele>4.1</ele>
        <time>2020-06-02T15:06:24Z</time>
      </trkpt>
      <trkpt lat="46.32648" lon="-1.09769">
        <ele>4.1</ele>
        <time>2020-06-02T15:06:25Z</time>
      </trkpt>
      <trkpt lat="46.3265" lon="-1.09773">
        <ele>4</ele>
        <time>2020-06-02T15:06:26Z</time>
      </trkpt>
      <trkpt lat="46.32654" lon="-1.09777">
        <ele>4</ele>
        <time>2020-06-02T15:06:27Z</time>
      </trkpt>
      <trkpt lat="46.32657" lon="-1.09781">
        <ele>4</ele>
        <time>2020-06-02T15:06:28Z</time>
      </trkpt>
      <trkpt lat="46.32661" lon="-1.09785">
        <ele>4</ele>
        <time>2020-06-02T15:06:29Z</time>
      </trkpt>
      <trkpt lat="46.32664" lon="-1.09789">
        <ele>4.1</ele>
        <time>2020-06-02T15:06:30Z</time>
      </trkpt>
      <trkpt lat="46.32666" lon="-1.09794">
        <ele>4.1</ele>
        <time>2020-06-02T15:06:31Z</time>
      </trkpt>
      <trkpt lat="46.3267" lon="-1.09799">
        <ele>4.1</ele>
        <time>2020-06-02T15:06:32Z</time>
      </trkpt>
      <trkpt lat="46.32674" lon="-1.09803">
        <ele>4.1</ele>
        <time>2020-06-02T15:06:33Z</time>
      </trkpt>
      <trkpt lat="46.32677" lon="-1.09807">
        <ele>4.1</ele>
        <time>2020-06-02T15:06:34Z</time>
      </trkpt>
      <trkpt lat="46.32681" lon="-1.09811">
        <ele>4.1</ele>
        <time>2020-06-02T15:06:35Z</time>
      </trkpt>
      <trkpt lat="46.32684" lon="-1.09815">
        <ele>4.1</ele>
        <time>2020-06-02T15:06:36Z</time>
      </trkpt>
      <trkpt lat="46.32687" lon="-1.09818">
        <ele>4.1</ele>
        <time>2020-06-02T15:06:37Z</time>
      </trkpt>
      <trkpt lat="46.3269" lon="-1.09821">
        <ele>4.1</ele>
        <time>2020-06-02T15:06:38Z</time>
      </trkpt>
      <trkpt lat="46.32693" lon="-1.09826">
        <ele>4.1</ele>
        <time>2020-06-02T15:06:39Z</time>
      </trkpt>
      <trkpt lat="46.32697" lon="-1.0983">
        <ele>4.1</ele>
        <time>2020-06-02T15:06:40Z</time>
      </trkpt>
      <trkpt lat="46.32701" lon="-1.09835">
        <ele>4.1</ele>
        <time>2020-06-02T15:06:41Z</time>
      </trkpt>
      <trkpt lat="46.32705" lon="-1.09839">
        <ele>4.1</ele>
        <time>2020-06-02T15:06:42Z</time>
      </trkpt>
      <trkpt lat="46.32709" lon="-1.09844">
        <ele>4.1</ele>
        <time>2020-06-02T15:06:43Z</time>
      </trkpt>
      <trkpt lat="46.32714" lon="-1.09849">
        <ele>4.1</ele>
        <time>2020-06-02T15:06:44Z</time>
      </trkpt>
      <trkpt lat="46.32717" lon="-1.09854">
        <ele>4.1</ele>
        <time>2020-06-02T15:06:45Z</time>
      </trkpt>
      <trkpt lat="46.32721" lon="-1.09858">
        <ele>4.1</ele>
        <time>2020-06-02T15:06:46Z</time>
      </trkpt>
      <trkpt lat="46.32725" lon="-1.09863">
        <ele>4.1</ele>
        <time>2020-06-02T15:06:47Z</time>
      </trkpt>
      <trkpt lat="46.32728" lon="-1.09867">
        <ele>4.1</ele>
        <time>2020-06-02T15:06:48Z</time>
      </trkpt>
      <trkpt lat="46.32731" lon="-1.09872">
        <ele>4.2</ele>
        <time>2020-06-02T15:06:49Z</time>
      </trkpt>
      <trkpt lat="46.32735" lon="-1.09875">
        <ele>4.2</ele>
        <time>2020-06-02T15:06:50Z</time>
      </trkpt>
      <trkpt lat="46.32738" lon="-1.09879">
        <ele>4.2</ele>
        <time>2020-06-02T15:06:51Z</time>
      </trkpt>
      <trkpt lat="46.32741" lon="-1.09883">
        <ele>4.3</ele>
        <time>2020-06-02T15:06:52Z</time>
      </trkpt>
      <trkpt lat="46.32744" lon="-1.09888">
        <ele>4.3</ele>
        <time>2020-06-02T15:06:53Z</time>
      </trkpt>
      <trkpt lat="46.32748" lon="-1.09891">
        <ele>4.3</ele>
        <time>2020-06-02T15:06:54Z</time>
      </trkpt>
      <trkpt lat="46.32751" lon="-1.09894">
        <ele>4.3</ele>
        <time>2020-06-02T15:06:55Z</time>
      </trkpt>
      <trkpt lat="46.32754" lon="-1.099">
        <ele>4.3</ele>
        <time>2020-06-02T15:06:56Z</time>
      </trkpt>
      <trkpt lat="46.32758" lon="-1.09905">
        <ele>4.3</ele>
        <time>2020-06-02T15:06:57Z</time>
      </trkpt>
      <trkpt lat="46.32761" lon="-1.09909">
        <ele>4.2</ele>
        <time>2020-06-02T15:06:58Z</time>
      </trkpt>
      <trkpt lat="46.32765" lon="-1.09914">
        <ele>4.2</ele>
        <time>2020-06-02T15:06:59Z</time>
      </trkpt>
      <trkpt lat="46.32768" lon="-1.09918">
        <ele>4.2</ele>
        <time>2020-06-02T15:07:00Z</time>
      </trkpt>
      <trkpt lat="46.32772" lon="-1.09923">
        <ele>4.1</ele>
        <time>2020-06-02T15:07:01Z</time>
      </trkpt>
      <trkpt lat="46.32775" lon="-1.09926">
        <ele>4.1</ele>
        <time>2020-06-02T15:07:02Z</time>
      </trkpt>
      <trkpt lat="46.32778" lon="-1.0993">
        <ele>4.1</ele>
        <time>2020-06-02T15:07:03Z</time>
      </trkpt>
      <trkpt lat="46.32782" lon="-1.09933">
        <ele>4.1</ele>
        <time>2020-06-02T15:07:04Z</time>
      </trkpt>
      <trkpt lat="46.32785" lon="-1.09936">
        <ele>4</ele>
        <time>2020-06-02T15:07:05Z</time>
      </trkpt>
      <trkpt lat="46.32788" lon="-1.09938">
        <ele>4</ele>
        <time>2020-06-02T15:07:06Z</time>
      </trkpt>
      <trkpt lat="46.3279" lon="-1.09941">
        <ele>4</ele>
        <time>2020-06-02T15:07:07Z</time>
      </trkpt>
      <trkpt lat="46.32793" lon="-1.09944">
        <ele>3.9</ele>
        <time>2020-06-02T15:07:08Z</time>
      </trkpt>
      <trkpt lat="46.32794" lon="-1.09945">
        <ele>3.9</ele>
        <time>2020-06-02T15:07:09Z</time>
      </trkpt>
      <trkpt lat="46.32795" lon="-1.09946">
        <ele>3.9</ele>
        <time>2020-06-02T15:07:10Z</time>
      </trkpt>
      <trkpt lat="46.32796" lon="-1.09947">
        <ele>3.9</ele>
        <time>2020-06-02T15:07:11Z</time>
      </trkpt>
      <trkpt lat="46.32796" lon="-1.09947">
        <ele>3.9</ele>
        <time>2020-06-02T15:07:12Z</time>
      </trkpt>
      <trkpt lat="46.32796" lon="-1.09948">
        <ele>3.9</ele>
        <time>2020-06-02T15:07:13Z</time>
      </trkpt>
      <trkpt lat="46.32796" lon="-1.09948">
        <ele>3.9</ele>
        <time>2020-06-02T15:07:14Z</time>
      </trkpt>
      <trkpt lat="46.32796" lon="-1.09949">
        <ele>3.9</ele>
        <time>2020-06-02T15:07:15Z</time>
      </trkpt>
      <trkpt lat="46.32799" lon="-1.09951">
        <ele>3.8</ele>
        <time>2020-06-02T15:07:16Z</time>
      </trkpt>
      <trkpt lat="46.328" lon="-1.09952">
        <ele>3.8</ele>
        <time>2020-06-02T15:07:17Z</time>
      </trkpt>
      <trkpt lat="46.32804" lon="-1.09953">
        <ele>3.8</ele>
        <time>2020-06-02T15:07:18Z</time>
      </trkpt>
      <trkpt lat="46.32806" lon="-1.09956">
        <ele>3.7</ele>
        <time>2020-06-02T15:07:19Z</time>
      </trkpt>
      <trkpt lat="46.32808" lon="-1.09958">
        <ele>3.7</ele>
        <time>2020-06-02T15:07:20Z</time>
      </trkpt>
      <trkpt lat="46.32811" lon="-1.09957">
        <ele>3.7</ele>
        <time>2020-06-02T15:07:21Z</time>
      </trkpt>
      <trkpt lat="46.32812" lon="-1.09956">
        <ele>3.7</ele>
        <time>2020-06-02T15:07:22Z</time>
      </trkpt>
      <trkpt lat="46.32812" lon="-1.09956">
        <ele>3.7</ele>
        <time>2020-06-02T15:07:23Z</time>
      </trkpt>
      <trkpt lat="46.32812" lon="-1.09956">
        <ele>3.7</ele>
        <time>2020-06-02T15:07:24Z</time>
      </trkpt>
      <trkpt lat="46.32812" lon="-1.09956">
        <ele>3.7</ele>
        <time>2020-06-02T15:07:25Z</time>
      </trkpt>
      <trkpt lat="46.32812" lon="-1.09957">
        <ele>3.7</ele>
        <time>2020-06-02T15:07:26Z</time>
      </trkpt>
      <trkpt lat="46.32812" lon="-1.09957">
        <ele>3.7</ele>
        <time>2020-06-02T15:07:27Z</time>
      </trkpt>
      <trkpt lat="46.32812" lon="-1.09957">
        <ele>3.7</ele>
        <time>2020-06-02T15:07:28Z</time>
      </trkpt>
      <trkpt lat="46.32812" lon="-1.09958">
        <ele>3.7</ele>
        <time>2020-06-02T15:07:29Z</time>
      </trkpt>
      <trkpt lat="46.32812" lon="-1.09958">
        <ele>3.7</ele>
        <time>2020-06-02T15:07:30Z</time>
      </trkpt>
      <trkpt lat="46.32813" lon="-1.09958">
        <ele>3.7</ele>
        <time>2020-06-02T15:07:31Z</time>
      </trkpt>
      <trkpt lat="46.32813" lon="-1.09959">
        <ele>3.7</ele>
        <time>2020-06-02T15:07:32Z</time>
      </trkpt>
      <trkpt lat="46.32813" lon="-1.09959">
        <ele>3.7</ele>
        <time>2020-06-02T15:07:33Z</time>
      </trkpt>
      <trkpt lat="46.32813" lon="-1.09959">
        <ele>3.7</ele>
        <time>2020-06-02T15:07:34Z</time>
      </trkpt>
      <trkpt lat="46.32813" lon="-1.0996">
        <ele>3.7</ele>
        <time>2020-06-02T15:07:35Z</time>
      </trkpt>
      <trkpt lat="46.32813" lon="-1.0996">
        <ele>3.7</ele>
        <time>2020-06-02T15:07:36Z</time>
      </trkpt>
      <trkpt lat="46.32813" lon="-1.0996">
        <ele>3.7</ele>
        <time>2020-06-02T15:07:37Z</time>
      </trkpt>
      <trkpt lat="46.32813" lon="-1.09961">
        <ele>3.7</ele>
        <time>2020-06-02T15:07:38Z</time>
      </trkpt>
      <trkpt lat="46.32813" lon="-1.09961">
        <ele>3.7</ele>
        <time>2020-06-02T15:07:39Z</time>
      </trkpt>
      <trkpt lat="46.32813" lon="-1.09961">
        <ele>3.7</ele>
        <time>2020-06-02T15:07:40Z</time>
      </trkpt>
      <trkpt lat="46.32813" lon="-1.09961">
        <ele>3.7</ele>
        <time>2020-06-02T15:07:41Z</time>
      </trkpt>
      <trkpt lat="46.32813" lon="-1.09961">
        <ele>3.7</ele>
        <time>2020-06-02T15:07:42Z</time>
      </trkpt>
      <trkpt lat="46.32814" lon="-1.09961">
        <ele>3.7</ele>
        <time>2020-06-02T15:07:43Z</time>
      </trkpt>
      <trkpt lat="46.32813" lon="-1.09961">
        <ele>3.7</ele>
        <time>2020-06-02T15:07:44Z</time>
      </trkpt>
      <trkpt lat="46.32813" lon="-1.09961">
        <ele>3.7</ele>
        <time>2020-06-02T15:07:45Z</time>
      </trkpt>
      <trkpt lat="46.32813" lon="-1.09961">
        <ele>3.7</ele>
        <time>2020-06-02T15:07:46Z</time>
      </trkpt>
      <trkpt lat="46.32814" lon="-1.09962">
        <ele>3.7</ele>
        <time>2020-06-02T15:07:47Z</time>
      </trkpt>
      <trkpt lat="46.32814" lon="-1.09961">
        <ele>3.7</ele>
        <time>2020-06-02T15:07:48Z</time>
      </trkpt>
      <trkpt lat="46.32814" lon="-1.09961">
        <ele>3.7</ele>
        <time>2020-06-02T15:07:49Z</time>
      </trkpt>
      <trkpt lat="46.32814" lon="-1.09961">
        <ele>3.7</ele>
        <time>2020-06-02T15:07:50Z</time>
      </trkpt>
      <trkpt lat="46.32814" lon="-1.09961">
        <ele>3.7</ele>
        <time>2020-06-02T15:07:51Z</time>
      </trkpt>
      <trkpt lat="46.32814" lon="-1.09961">
        <ele>3.7</ele>
        <time>2020-06-02T15:07:52Z</time>
      </trkpt>
      <trkpt lat="46.32814" lon="-1.09961">
        <ele>3.7</ele>
        <time>2020-06-02T15:07:53Z</time>
      </trkpt>
      <trkpt lat="46.32814" lon="-1.09961">
        <ele>3.7</ele>
        <time>2020-06-02T15:07:54Z</time>
      </trkpt>
      <trkpt lat="46.32814" lon="-1.09961">
        <ele>3.7</ele>
        <time>2020-06-02T15:07:55Z</time>
      </trkpt>
      <trkpt lat="46.32814" lon="-1.09961">
        <ele>3.7</ele>
        <time>2020-06-02T15:07:56Z</time>
      </trkpt>
      <trkpt lat="46.32814" lon="-1.09961">
        <ele>3.7</ele>
        <time>2020-06-02T15:07:57Z</time>
      </trkpt>
      <trkpt lat="46.32814" lon="-1.09962">
        <ele>3.7</ele>
        <time>2020-06-02T15:07:58Z</time>
      </trkpt>
      <trkpt lat="46.32814" lon="-1.09962">
        <ele>3.7</ele>
        <time>2020-06-02T15:07:59Z</time>
      </trkpt>
      <trkpt lat="46.32814" lon="-1.09962">
        <ele>3.7</ele>
        <time>2020-06-02T15:08:00Z</time>
      </trkpt>
      <trkpt lat="46.32814" lon="-1.09962">
        <ele>3.7</ele>
        <time>2020-06-02T15:08:01Z</time>
      </trkpt>
      <trkpt lat="46.32814" lon="-1.09962">
        <ele>3.7</ele>
        <time>2020-06-02T15:08:02Z</time>
      </trkpt>
      <trkpt lat="46.32813" lon="-1.09962">
        <ele>3.7</ele>
        <time>2020-06-02T15:08:03Z</time>
      </trkpt>
      <trkpt lat="46.32813" lon="-1.09962">
        <ele>3.7</ele>
        <time>2020-06-02T15:08:04Z</time>
      </trkpt>
      <trkpt lat="46.32813" lon="-1.09962">
        <ele>3.7</ele>
        <time>2020-06-02T15:08:05Z</time>
      </trkpt>
      <trkpt lat="46.32813" lon="-1.09962">
        <ele>3.7</ele>
        <time>2020-06-02T15:08:06Z</time>
      </trkpt>
      <trkpt lat="46.32813" lon="-1.09962">
        <ele>3.7</ele>
        <time>2020-06-02T15:08:07Z</time>
      </trkpt>
      <trkpt lat="46.32813" lon="-1.09962">
        <ele>3.7</ele>
        <time>2020-06-02T15:08:08Z</time>
      </trkpt>
      <trkpt lat="46.32813" lon="-1.09962">
        <ele>3.7</ele>
        <time>2020-06-02T15:08:09Z</time>
      </trkpt>
      <trkpt lat="46.32813" lon="-1.09962">
        <ele>3.7</ele>
        <time>2020-06-02T15:08:10Z</time>
      </trkpt>
      <trkpt lat="46.32813" lon="-1.09962">
        <ele>3.7</ele>
        <time>2020-06-02T15:08:11Z</time>
      </trkpt>
      <trkpt lat="46.32813" lon="-1.09962">
        <ele>3.7</ele>
        <time>2020-06-02T15:08:12Z</time>
      </trkpt>
      <trkpt lat="46.32813" lon="-1.09962">
        <ele>3.7</ele>
        <time>2020-06-02T15:08:13Z</time>
      </trkpt>
      <trkpt lat="46.32813" lon="-1.09963">
        <ele>3.7</ele>
        <time>2020-06-02T15:08:14Z</time>
      </trkpt>
      <trkpt lat="46.32813" lon="-1.09963">
        <ele>3.7</ele>
        <time>2020-06-02T15:08:15Z</time>
      </trkpt>
      <trkpt lat="46.32814" lon="-1.09964">
        <ele>3.7</ele>
        <time>2020-06-02T15:08:16Z</time>
      </trkpt>
      <trkpt lat="46.32814" lon="-1.09965">
        <ele>3.7</ele>
        <time>2020-06-02T15:08:17Z</time>
      </trkpt>
      <trkpt lat="46.32814" lon="-1.09965">
        <ele>3.7</ele>
        <time>2020-06-02T15:08:18Z</time>
      </trkpt>
      <trkpt lat="46.32814" lon="-1.09965">
        <ele>3.7</ele>
        <time>2020-06-02T15:08:19Z</time>
      </trkpt>
      <trkpt lat="46.32813" lon="-1.09964">
        <ele>3.7</ele>
        <time>2020-06-02T15:08:20Z</time>
      </trkpt>
      <trkpt lat="46.32812" lon="-1.09963">
        <ele>3.7</ele>
        <time>2020-06-02T15:08:21Z</time>
      </trkpt>
      <trkpt lat="46.32812" lon="-1.09963">
        <ele>3.7</ele>
        <time>2020-06-02T15:08:22Z</time>
      </trkpt>
      <trkpt lat="46.32812" lon="-1.09963">
        <ele>3.7</ele>
        <time>2020-06-02T15:08:23Z</time>
      </trkpt>
      <trkpt lat="46.32812" lon="-1.09963">
        <ele>3.7</ele>
        <time>2020-06-02T15:08:24Z</time>
      </trkpt>
      <trkpt lat="46.32812" lon="-1.09963">
        <ele>3.7</ele>
        <time>2020-06-02T15:08:25Z</time>
      </trkpt>
      <trkpt lat="46.32812" lon="-1.09965">
        <ele>3.7</ele>
        <time>2020-06-02T15:08:26Z</time>
      </trkpt>
      <trkpt lat="46.32812" lon="-1.09966">
        <ele>3.7</ele>
        <time>2020-06-02T15:08:27Z</time>
      </trkpt>
      <trkpt lat="46.32812" lon="-1.09967">
        <ele>3.7</ele>
        <time>2020-06-02T15:08:28Z</time>
      </trkpt>
      <trkpt lat="46.32812" lon="-1.09966">
        <ele>3.7</ele>
        <time>2020-06-02T15:08:29Z</time>
      </trkpt>
      <trkpt lat="46.32813" lon="-1.09966">
        <ele>3.7</ele>
        <time>2020-06-02T15:08:30Z</time>
      </trkpt>
      <trkpt lat="46.32813" lon="-1.09967">
        <ele>3.7</ele>
        <time>2020-06-02T15:08:31Z</time>
      </trkpt>
      <trkpt lat="46.32813" lon="-1.09967">
        <ele>3.7</ele>
        <time>2020-06-02T15:08:32Z</time>
      </trkpt>
      <trkpt lat="46.32813" lon="-1.09967">
        <ele>3.7</ele>
        <time>2020-06-02T15:08:33Z</time>
      </trkpt>
      <trkpt lat="46.32813" lon="-1.09967">
        <ele>3.7</ele>
        <time>2020-06-02T15:08:34Z</time>
      </trkpt>
      <trkpt lat="46.32813" lon="-1.09968">
        <ele>3.7</ele>
        <time>2020-06-02T15:08:35Z</time>
      </trkpt>
      <trkpt lat="46.32813" lon="-1.09969">
        <ele>3.7</ele>
        <time>2020-06-02T15:08:36Z</time>
      </trkpt>
      <trkpt lat="46.32814" lon="-1.0997">
        <ele>3.7</ele>
        <time>2020-06-02T15:08:37Z</time>
      </trkpt>
      <trkpt lat="46.32814" lon="-1.0997">
        <ele>3.7</ele>
        <time>2020-06-02T15:08:38Z</time>
      </trkpt>
      <trkpt lat="46.32814" lon="-1.0997">
        <ele>3.7</ele>
        <time>2020-06-02T15:08:39Z</time>
      </trkpt>
      <trkpt lat="46.32814" lon="-1.09969">
        <ele>3.7</ele>
        <time>2020-06-02T15:08:40Z</time>
      </trkpt>
      <trkpt lat="46.32814" lon="-1.09969">
        <ele>3.7</ele>
        <time>2020-06-02T15:08:41Z</time>
      </trkpt>
      <trkpt lat="46.32816" lon="-1.09971">
        <ele>3.7</ele>
        <time>2020-06-02T15:08:42Z</time>
      </trkpt>
      <trkpt lat="46.32818" lon="-1.09973">
        <ele>3.7</ele>
        <time>2020-06-02T15:08:43Z</time>
      </trkpt>
      <trkpt lat="46.32819" lon="-1.09974">
        <ele>3.7</ele>
        <time>2020-06-02T15:08:44Z</time>
      </trkpt>
      <trkpt lat="46.3282" lon="-1.09975">
        <ele>3.7</ele>
        <time>2020-06-02T15:08:45Z</time>
      </trkpt>
      <trkpt lat="46.32822" lon="-1.09977">
        <ele>3.7</ele>
        <time>2020-06-02T15:08:46Z</time>
      </trkpt>
      <trkpt lat="46.32826" lon="-1.0998">
        <ele>3.7</ele>
        <time>2020-06-02T15:08:47Z</time>
      </trkpt>
      <trkpt lat="46.32828" lon="-1.09984">
        <ele>3.7</ele>
        <time>2020-06-02T15:08:48Z</time>
      </trkpt>
      <trkpt lat="46.32832" lon="-1.09988">
        <ele>3.7</ele>
        <time>2020-06-02T15:08:49Z</time>
      </trkpt>
      <trkpt lat="46.32837" lon="-1.09991">
        <ele>3.7</ele>
        <time>2020-06-02T15:08:50Z</time>
      </trkpt>
      <trkpt lat="46.3284" lon="-1.09995">
        <ele>3.7</ele>
        <time>2020-06-02T15:08:51Z</time>
      </trkpt>
      <trkpt lat="46.32844" lon="-1.09998">
        <ele>3.7</ele>
        <time>2020-06-02T15:08:52Z</time>
      </trkpt>
      <trkpt lat="46.32848" lon="-1.10002">
        <ele>3.7</ele>
        <time>2020-06-02T15:08:53Z</time>
      </trkpt>
      <trkpt lat="46.32851" lon="-1.10005">
        <ele>3.7</ele>
        <time>2020-06-02T15:08:54Z</time>
      </trkpt>
      <trkpt lat="46.32854" lon="-1.10007">
        <ele>3.7</ele>
        <time>2020-06-02T15:08:55Z</time>
      </trkpt>
      <trkpt lat="46.32857" lon="-1.1001">
        <ele>3.7</ele>
        <time>2020-06-02T15:08:56Z</time>
      </trkpt>
      <trkpt lat="46.3286" lon="-1.10014">
        <ele>3.7</ele>
        <time>2020-06-02T15:08:57Z</time>
      </trkpt>
      <trkpt lat="46.32863" lon="-1.10018">
        <ele>3.7</ele>
        <time>2020-06-02T15:08:58Z</time>
      </trkpt>
      <trkpt lat="46.32867" lon="-1.10022">
        <ele>3.8</ele>
        <time>2020-06-02T15:08:59Z</time>
      </trkpt>
      <trkpt lat="46.3287" lon="-1.10027">
        <ele>3.8</ele>
        <time>2020-06-02T15:09:00Z</time>
      </trkpt>
      <trkpt lat="46.32873" lon="-1.1003">
        <ele>3.8</ele>
        <time>2020-06-02T15:09:01Z</time>
      </trkpt>
      <trkpt lat="46.32876" lon="-1.10034">
        <ele>3.8</ele>
        <time>2020-06-02T15:09:02Z</time>
      </trkpt>
      <trkpt lat="46.3288" lon="-1.10036">
        <ele>3.8</ele>
        <time>2020-06-02T15:09:03Z</time>
      </trkpt>
      <trkpt lat="46.32883" lon="-1.10039">
        <ele>3.8</ele>
        <time>2020-06-02T15:09:04Z</time>
      </trkpt>
      <trkpt lat="46.32886" lon="-1.10041">
        <ele>3.8</ele>
        <time>2020-06-02T15:09:05Z</time>
      </trkpt>
      <trkpt lat="46.3289" lon="-1.10044">
        <ele>3.8</ele>
        <time>2020-06-02T15:09:06Z</time>
      </trkpt>
      <trkpt lat="46.32893" lon="-1.10048">
        <ele>3.8</ele>
        <time>2020-06-02T15:09:07Z</time>
      </trkpt>
      <trkpt lat="46.32897" lon="-1.10051">
        <ele>3.8</ele>
        <time>2020-06-02T15:09:08Z</time>
      </trkpt>
      <trkpt lat="46.32901" lon="-1.10055">
        <ele>3.8</ele>
        <time>2020-06-02T15:09:09Z</time>
      </trkpt>
      <trkpt lat="46.32905" lon="-1.10059">
        <ele>3.8</ele>
        <time>2020-06-02T15:09:10Z</time>
      </trkpt>
      <trkpt lat="46.32908" lon="-1.10062">
        <ele>3.8</ele>
        <time>2020-06-02T15:09:11Z</time>
      </trkpt>
      <trkpt lat="46.32911" lon="-1.10066">
        <ele>3.8</ele>
        <time>2020-06-02T15:09:12Z</time>
      </trkpt>
      <trkpt lat="46.32914" lon="-1.10071">
        <ele>3.8</ele>
        <time>2020-06-02T15:09:13Z</time>
      </trkpt>
      <trkpt lat="46.32917" lon="-1.10075">
        <ele>3.7</ele>
        <time>2020-06-02T15:09:14Z</time>
      </trkpt>
      <trkpt lat="46.32921" lon="-1.10079">
        <ele>3.7</ele>
        <time>2020-06-02T15:09:15Z</time>
      </trkpt>
      <trkpt lat="46.32924" lon="-1.10083">
        <ele>3.7</ele>
        <time>2020-06-02T15:09:16Z</time>
      </trkpt>
      <trkpt lat="46.32928" lon="-1.10087">
        <ele>3.7</ele>
        <time>2020-06-02T15:09:17Z</time>
      </trkpt>
      <trkpt lat="46.32932" lon="-1.1009">
        <ele>3.7</ele>
        <time>2020-06-02T15:09:18Z</time>
      </trkpt>
      <trkpt lat="46.32935" lon="-1.10093">
        <ele>3.7</ele>
        <time>2020-06-02T15:09:19Z</time>
      </trkpt>
      <trkpt lat="46.3294" lon="-1.10096">
        <ele>3.7</ele>
        <time>2020-06-02T15:09:20Z</time>
      </trkpt>
      <trkpt lat="46.32943" lon="-1.101">
        <ele>3.7</ele>
        <time>2020-06-02T15:09:21Z</time>
      </trkpt>
      <trkpt lat="46.32947" lon="-1.10103">
        <ele>3.6</ele>
        <time>2020-06-02T15:09:22Z</time>
      </trkpt>
      <trkpt lat="46.32951" lon="-1.10107">
        <ele>3.6</ele>
        <time>2020-06-02T15:09:23Z</time>
      </trkpt>
      <trkpt lat="46.32956" lon="-1.10111">
        <ele>3.6</ele>
        <time>2020-06-02T15:09:24Z</time>
      </trkpt>
      <trkpt lat="46.3296" lon="-1.10114">
        <ele>3.6</ele>
        <time>2020-06-02T15:09:25Z</time>
      </trkpt>
      <trkpt lat="46.32965" lon="-1.10117">
        <ele>3.6</ele>
        <time>2020-06-02T15:09:26Z</time>
      </trkpt>
      <trkpt lat="46.32969" lon="-1.1012">
        <ele>3.6</ele>
        <time>2020-06-02T15:09:27Z</time>
      </trkpt>
      <trkpt lat="46.32973" lon="-1.10121">
        <ele>3.5</ele>
        <time>2020-06-02T15:09:28Z</time>
      </trkpt>
      <trkpt lat="46.32978" lon="-1.10123">
        <ele>3.5</ele>
        <time>2020-06-02T15:09:29Z</time>
      </trkpt>
      <trkpt lat="46.32982" lon="-1.10126">
        <ele>3.5</ele>
        <time>2020-06-02T15:09:30Z</time>
      </trkpt>
      <trkpt lat="46.32986" lon="-1.10129">
        <ele>3.5</ele>
        <time>2020-06-02T15:09:31Z</time>
      </trkpt>
      <trkpt lat="46.32991" lon="-1.10131">
        <ele>3.5</ele>
        <time>2020-06-02T15:09:32Z</time>
      </trkpt>
      <trkpt lat="46.32996" lon="-1.10133">
        <ele>3.5</ele>
        <time>2020-06-02T15:09:33Z</time>
      </trkpt>
      <trkpt lat="46.33001" lon="-1.10135">
        <ele>3.5</ele>
        <time>2020-06-02T15:09:34Z</time>
      </trkpt>
      <trkpt lat="46.33005" lon="-1.10137">
        <ele>3.5</ele>
        <time>2020-06-02T15:09:35Z</time>
      </trkpt>
      <trkpt lat="46.3301" lon="-1.10138">
        <ele>3.5</ele>
        <time>2020-06-02T15:09:36Z</time>
      </trkpt>
      <trkpt lat="46.33014" lon="-1.10139">
        <ele>3.5</ele>
        <time>2020-06-02T15:09:37Z</time>
      </trkpt>
      <trkpt lat="46.33018" lon="-1.1014">
        <ele>3.4</ele>
        <time>2020-06-02T15:09:38Z</time>
      </trkpt>
      <trkpt lat="46.33022" lon="-1.10141">
        <ele>3.4</ele>
        <time>2020-06-02T15:09:39Z</time>
      </trkpt>
      <trkpt lat="46.33026" lon="-1.10143">
        <ele>3.4</ele>
        <time>2020-06-02T15:09:40Z</time>
      </trkpt>
      <trkpt lat="46.33029" lon="-1.10145">
        <ele>3.4</ele>
        <time>2020-06-02T15:09:41Z</time>
      </trkpt>
      <trkpt lat="46.33033" lon="-1.10147">
        <ele>3.4</ele>
        <time>2020-06-02T15:09:42Z</time>
      </trkpt>
      <trkpt lat="46.33036" lon="-1.10148">
        <ele>3.4</ele>
        <time>2020-06-02T15:09:43Z</time>
      </trkpt>
      <trkpt lat="46.33039" lon="-1.1015">
        <ele>3.3</ele>
        <time>2020-06-02T15:09:44Z</time>
      </trkpt>
      <trkpt lat="46.33042" lon="-1.1015">
        <ele>3.3</ele>
        <time>2020-06-02T15:09:45Z</time>
      </trkpt>
      <trkpt lat="46.33045" lon="-1.10152">
        <ele>3.3</ele>
        <time>2020-06-02T15:09:46Z</time>
      </trkpt>
      <trkpt lat="46.33048" lon="-1.10154">
        <ele>3.3</ele>
        <time>2020-06-02T15:09:47Z</time>
      </trkpt>
      <trkpt lat="46.3305" lon="-1.10154">
        <ele>3.3</ele>
        <time>2020-06-02T15:09:48Z</time>
      </trkpt>
      <trkpt lat="46.33053" lon="-1.10155">
        <ele>3.3</ele>
        <time>2020-06-02T15:09:49Z</time>
      </trkpt>
      <trkpt lat="46.33056" lon="-1.10158">
        <ele>3.3</ele>
        <time>2020-06-02T15:09:50Z</time>
      </trkpt>
      <trkpt lat="46.33059" lon="-1.1016">
        <ele>3.3</ele>
        <time>2020-06-02T15:09:51Z</time>
      </trkpt>
      <trkpt lat="46.33062" lon="-1.10162">
        <ele>3.3</ele>
        <time>2020-06-02T15:09:52Z</time>
      </trkpt>
      <trkpt lat="46.33066" lon="-1.10164">
        <ele>3.3</ele>
        <time>2020-06-02T15:09:53Z</time>
      </trkpt>
      <trkpt lat="46.33069" lon="-1.10165">
        <ele>3.3</ele>
        <time>2020-06-02T15:09:54Z</time>
      </trkpt>
      <trkpt lat="46.33073" lon="-1.10167">
        <ele>3.3</ele>
        <time>2020-06-02T15:09:55Z</time>
      </trkpt>
      <trkpt lat="46.33076" lon="-1.10169">
        <ele>3.3</ele>
        <time>2020-06-02T15:09:56Z</time>
      </trkpt>
      <trkpt lat="46.3308" lon="-1.10171">
        <ele>3.3</ele>
        <time>2020-06-02T15:09:57Z</time>
      </trkpt>
      <trkpt lat="46.33083" lon="-1.10173">
        <ele>3.3</ele>
        <time>2020-06-02T15:09:58Z</time>
      </trkpt>
      <trkpt lat="46.33087" lon="-1.10175">
        <ele>3.3</ele>
        <time>2020-06-02T15:09:59Z</time>
      </trkpt>
      <trkpt lat="46.33091" lon="-1.10178">
        <ele>3.3</ele>
        <time>2020-06-02T15:10:00Z</time>
      </trkpt>
      <trkpt lat="46.33094" lon="-1.1018">
        <ele>3.3</ele>
        <time>2020-06-02T15:10:01Z</time>
      </trkpt>
      <trkpt lat="46.33098" lon="-1.10182">
        <ele>3.3</ele>
        <time>2020-06-02T15:10:02Z</time>
      </trkpt>
      <trkpt lat="46.33102" lon="-1.10184">
        <ele>3.3</ele>
        <time>2020-06-02T15:10:03Z</time>
      </trkpt>
      <trkpt lat="46.33106" lon="-1.10186">
        <ele>3.3</ele>
        <time>2020-06-02T15:10:04Z</time>
      </trkpt>
      <trkpt lat="46.3311" lon="-1.10188">
        <ele>3.3</ele>
        <time>2020-06-02T15:10:05Z</time>
      </trkpt>
      <trkpt lat="46.33115" lon="-1.1019">
        <ele>3.2</ele>
        <time>2020-06-02T15:10:06Z</time>
      </trkpt>
      <trkpt lat="46.33119" lon="-1.10192">
        <ele>3.2</ele>
        <time>2020-06-02T15:10:07Z</time>
      </trkpt>
      <trkpt lat="46.33123" lon="-1.10194">
        <ele>3.2</ele>
        <time>2020-06-02T15:10:08Z</time>
      </trkpt>
      <trkpt lat="46.33127" lon="-1.10196">
        <ele>3.2</ele>
        <time>2020-06-02T15:10:09Z</time>
      </trkpt>
      <trkpt lat="46.33132" lon="-1.10198">
        <ele>3.2</ele>
        <time>2020-06-02T15:10:10Z</time>
      </trkpt>
      <trkpt lat="46.33136" lon="-1.102">
        <ele>3.2</ele>
        <time>2020-06-02T15:10:11Z</time>
      </trkpt>
      <trkpt lat="46.33141" lon="-1.10201">
        <ele>3.2</ele>
        <time>2020-06-02T15:10:12Z</time>
      </trkpt>
      <trkpt lat="46.33145" lon="-1.10204">
        <ele>3.2</ele>
        <time>2020-06-02T15:10:13Z</time>
      </trkpt>
      <trkpt lat="46.33148" lon="-1.10207">
        <ele>3.2</ele>
        <time>2020-06-02T15:10:14Z</time>
      </trkpt>
      <trkpt lat="46.33152" lon="-1.10211">
        <ele>3.2</ele>
        <time>2020-06-02T15:10:15Z</time>
      </trkpt>
      <trkpt lat="46.33154" lon="-1.10214">
        <ele>3.2</ele>
        <time>2020-06-02T15:10:16Z</time>
      </trkpt>
      <trkpt lat="46.33157" lon="-1.10218">
        <ele>3.2</ele>
        <time>2020-06-02T15:10:17Z</time>
      </trkpt>
      <trkpt lat="46.33159" lon="-1.10221">
        <ele>3.1</ele>
        <time>2020-06-02T15:10:18Z</time>
      </trkpt>
      <trkpt lat="46.33161" lon="-1.10224">
        <ele>3.1</ele>
        <time>2020-06-02T15:10:19Z</time>
      </trkpt>
      <trkpt lat="46.33163" lon="-1.10229">
        <ele>3.2</ele>
        <time>2020-06-02T15:10:20Z</time>
      </trkpt>
      <trkpt lat="46.33163" lon="-1.10229">
        <ele>3.2</ele>
        <time>2020-06-02T15:10:21Z</time>
      </trkpt>
      <trkpt lat="46.33164" lon="-1.10231">
        <ele>3.2</ele>
        <time>2020-06-02T15:10:22Z</time>
      </trkpt>
      <trkpt lat="46.33164" lon="-1.10232">
        <ele>3.2</ele>
        <time>2020-06-02T15:10:23Z</time>
      </trkpt>
      <trkpt lat="46.33164" lon="-1.10233">
        <ele>3.2</ele>
        <time>2020-06-02T15:10:24Z</time>
      </trkpt>
      <trkpt lat="46.33164" lon="-1.10234">
        <ele>3.2</ele>
        <time>2020-06-02T15:10:25Z</time>
      </trkpt>
      <trkpt lat="46.33164" lon="-1.10233">
        <ele>3.2</ele>
        <time>2020-06-02T15:10:26Z</time>
      </trkpt>
      <trkpt lat="46.33164" lon="-1.10233">
        <ele>3.2</ele>
        <time>2020-06-02T15:10:27Z</time>
      </trkpt>
      <trkpt lat="46.33163" lon="-1.10233">
        <ele>3.2</ele>
        <time>2020-06-02T15:10:28Z</time>
      </trkpt>
      <trkpt lat="46.33163" lon="-1.10234">
        <ele>3.2</ele>
        <time>2020-06-02T15:10:29Z</time>
      </trkpt>
      <trkpt lat="46.33163" lon="-1.10234">
        <ele>3.2</ele>
        <time>2020-06-02T15:10:30Z</time>
      </trkpt>
      <trkpt lat="46.33162" lon="-1.10233">
        <ele>3.2</ele>
        <time>2020-06-02T15:10:31Z</time>
      </trkpt>
      <trkpt lat="46.33162" lon="-1.10234">
        <ele>3.2</ele>
        <time>2020-06-02T15:10:32Z</time>
      </trkpt>
      <trkpt lat="46.33162" lon="-1.10233">
        <ele>3.2</ele>
        <time>2020-06-02T15:10:33Z</time>
      </trkpt>
      <trkpt lat="46.33162" lon="-1.10233">
        <ele>3.2</ele>
        <time>2020-06-02T15:10:34Z</time>
      </trkpt>
      <trkpt lat="46.33162" lon="-1.10233">
        <ele>3.2</ele>
        <time>2020-06-02T15:10:35Z</time>
      </trkpt>
      <trkpt lat="46.33162" lon="-1.10233">
        <ele>3.2</ele>
        <time>2020-06-02T15:10:36Z</time>
      </trkpt>
      <trkpt lat="46.33162" lon="-1.10233">
        <ele>3.2</ele>
        <time>2020-06-02T15:10:37Z</time>
      </trkpt>
      <trkpt lat="46.33162" lon="-1.10233">
        <ele>3.2</ele>
        <time>2020-06-02T15:10:38Z</time>
      </trkpt>
      <trkpt lat="46.33162" lon="-1.10233">
        <ele>3.2</ele>
        <time>2020-06-02T15:10:39Z</time>
      </trkpt>
      <trkpt lat="46.33162" lon="-1.10233">
        <ele>3.2</ele>
        <time>2020-06-02T15:10:40Z</time>
      </trkpt>
      <trkpt lat="46.33162" lon="-1.10233">
        <ele>3.2</ele>
        <time>2020-06-02T15:10:41Z</time>
      </trkpt>
      <trkpt lat="46.33162" lon="-1.10233">
        <ele>3.2</ele>
        <time>2020-06-02T15:10:42Z</time>
      </trkpt>
      <trkpt lat="46.33162" lon="-1.10233">
        <ele>3.2</ele>
        <time>2020-06-02T15:10:43Z</time>
      </trkpt>
      <trkpt lat="46.33162" lon="-1.10233">
        <ele>3.2</ele>
        <time>2020-06-02T15:10:44Z</time>
      </trkpt>
      <trkpt lat="46.33162" lon="-1.10233">
        <ele>3.2</ele>
        <time>2020-06-02T15:10:45Z</time>
      </trkpt>
      <trkpt lat="46.33162" lon="-1.10233">
        <ele>3.2</ele>
        <time>2020-06-02T15:10:46Z</time>
      </trkpt>
      <trkpt lat="46.33162" lon="-1.10233">
        <ele>3.2</ele>
        <time>2020-06-02T15:10:47Z</time>
      </trkpt>
      <trkpt lat="46.33162" lon="-1.10233">
        <ele>3.2</ele>
        <time>2020-06-02T15:10:48Z</time>
      </trkpt>
      <trkpt lat="46.33162" lon="-1.10233">
        <ele>3.2</ele>
        <time>2020-06-02T15:10:49Z</time>
      </trkpt>
      <trkpt lat="46.33162" lon="-1.10233">
        <ele>3.2</ele>
        <time>2020-06-02T15:10:50Z</time>
      </trkpt>
      <trkpt lat="46.33162" lon="-1.10233">
        <ele>3.2</ele>
        <time>2020-06-02T15:10:51Z</time>
      </trkpt>
      <trkpt lat="46.33162" lon="-1.10233">
        <ele>3.2</ele>
        <time>2020-06-02T15:10:52Z</time>
      </trkpt>
      <trkpt lat="46.33162" lon="-1.10233">
        <ele>3.2</ele>
        <time>2020-06-02T15:10:53Z</time>
      </trkpt>
      <trkpt lat="46.33162" lon="-1.10233">
        <ele>3.2</ele>
        <time>2020-06-02T15:10:54Z</time>
      </trkpt>
      <trkpt lat="46.33163" lon="-1.10232">
        <ele>3.2</ele>
        <time>2020-06-02T15:10:55Z</time>
      </trkpt>
      <trkpt lat="46.33162" lon="-1.10232">
        <ele>3.2</ele>
        <time>2020-06-02T15:10:56Z</time>
      </trkpt>
      <trkpt lat="46.33162" lon="-1.10231">
        <ele>3.2</ele>
        <time>2020-06-02T15:10:57Z</time>
      </trkpt>
      <trkpt lat="46.33162" lon="-1.10232">
        <ele>3.2</ele>
        <time>2020-06-02T15:10:58Z</time>
      </trkpt>
      <trkpt lat="46.33162" lon="-1.10232">
        <ele>3.2</ele>
        <time>2020-06-02T15:10:59Z</time>
      </trkpt>
      <trkpt lat="46.33162" lon="-1.10232">
        <ele>3.2</ele>
        <time>2020-06-02T15:11:00Z</time>
      </trkpt>
      <trkpt lat="46.33162" lon="-1.10232">
        <ele>3.2</ele>
        <time>2020-06-02T15:11:01Z</time>
      </trkpt>
      <trkpt lat="46.33162" lon="-1.10232">
        <ele>3.2</ele>
        <time>2020-06-02T15:11:02Z</time>
      </trkpt>
      <trkpt lat="46.33162" lon="-1.10231">
        <ele>3.2</ele>
        <time>2020-06-02T15:11:03Z</time>
      </trkpt>
      <trkpt lat="46.33162" lon="-1.10231">
        <ele>3.2</ele>
        <time>2020-06-02T15:11:04Z</time>
      </trkpt>
      <trkpt lat="46.33162" lon="-1.10231">
        <ele>3.2</ele>
        <time>2020-06-02T15:11:05Z</time>
      </trkpt>
      <trkpt lat="46.33162" lon="-1.10232">
        <ele>3.2</ele>
        <time>2020-06-02T15:11:06Z</time>
      </trkpt>
      <trkpt lat="46.33162" lon="-1.10232">
        <ele>3.2</ele>
        <time>2020-06-02T15:11:07Z</time>
      </trkpt>
      <trkpt lat="46.33162" lon="-1.10232">
        <ele>3.2</ele>
        <time>2020-06-02T15:11:08Z</time>
      </trkpt>
      <trkpt lat="46.33162" lon="-1.10231">
        <ele>3.2</ele>
        <time>2020-06-02T15:11:09Z</time>
      </trkpt>
      <trkpt lat="46.33162" lon="-1.10231">
        <ele>3.2</ele>
        <time>2020-06-02T15:11:10Z</time>
      </trkpt>
      <trkpt lat="46.33162" lon="-1.10231">
        <ele>3.2</ele>
        <time>2020-06-02T15:11:11Z</time>
      </trkpt>
      <trkpt lat="46.33162" lon="-1.10232">
        <ele>3.2</ele>
        <time>2020-06-02T15:11:12Z</time>
      </trkpt>
      <trkpt lat="46.33162" lon="-1.10232">
        <ele>3.2</ele>
        <time>2020-06-02T15:11:13Z</time>
      </trkpt>
      <trkpt lat="46.33162" lon="-1.10231">
        <ele>3.2</ele>
        <time>2020-06-02T15:11:14Z</time>
      </trkpt>
      <trkpt lat="46.33162" lon="-1.10231">
        <ele>3.2</ele>
        <time>2020-06-02T15:11:15Z</time>
      </trkpt>
      <trkpt lat="46.33162" lon="-1.10231">
        <ele>3.2</ele>
        <time>2020-06-02T15:11:16Z</time>
      </trkpt>
      <trkpt lat="46.33162" lon="-1.10231">
        <ele>3.2</ele>
        <time>2020-06-02T15:11:17Z</time>
      </trkpt>
      <trkpt lat="46.33162" lon="-1.10231">
        <ele>3.2</ele>
        <time>2020-06-02T15:11:18Z</time>
      </trkpt>
      <trkpt lat="46.33162" lon="-1.10231">
        <ele>3.2</ele>
        <time>2020-06-02T15:11:19Z</time>
      </trkpt>
      <trkpt lat="46.33162" lon="-1.10231">
        <ele>3.2</ele>
        <time>2020-06-02T15:11:20Z</time>
      </trkpt>
      <trkpt lat="46.33162" lon="-1.10231">
        <ele>3.2</ele>
        <time>2020-06-02T15:11:21Z</time>
      </trkpt>
      <trkpt lat="46.33162" lon="-1.10231">
        <ele>3.2</ele>
        <time>2020-06-02T15:11:22Z</time>
      </trkpt>
      <trkpt lat="46.33162" lon="-1.10231">
        <ele>3.2</ele>
        <time>2020-06-02T15:11:23Z</time>
      </trkpt>
      <trkpt lat="46.33162" lon="-1.10231">
        <ele>3.2</ele>
        <time>2020-06-02T15:11:24Z</time>
      </trkpt>
      <trkpt lat="46.33163" lon="-1.10231">
        <ele>3.2</ele>
        <time>2020-06-02T15:11:25Z</time>
      </trkpt>
      <trkpt lat="46.33162" lon="-1.10231">
        <ele>3.2</ele>
        <time>2020-06-02T15:11:26Z</time>
      </trkpt>
      <trkpt lat="46.33162" lon="-1.10231">
        <ele>3.2</ele>
        <time>2020-06-02T15:11:27Z</time>
      </trkpt>
      <trkpt lat="46.33162" lon="-1.10231">
        <ele>3.2</ele>
        <time>2020-06-02T15:11:28Z</time>
      </trkpt>
      <trkpt lat="46.33162" lon="-1.10231">
        <ele>3.2</ele>
        <time>2020-06-02T15:11:29Z</time>
      </trkpt>
      <trkpt lat="46.33162" lon="-1.10231">
        <ele>3.2</ele>
        <time>2020-06-02T15:11:30Z</time>
      </trkpt>
      <trkpt lat="46.33162" lon="-1.10231">
        <ele>3.2</ele>
        <time>2020-06-02T15:11:31Z</time>
      </trkpt>
      <trkpt lat="46.33162" lon="-1.10231">
        <ele>3.2</ele>
        <time>2020-06-02T15:11:32Z</time>
      </trkpt>
      <trkpt lat="46.33162" lon="-1.10231">
        <ele>3.2</ele>
        <time>2020-06-02T15:11:33Z</time>
      </trkpt>
      <trkpt lat="46.33162" lon="-1.10231">
        <ele>3.2</ele>
        <time>2020-06-02T15:11:34Z</time>
      </trkpt>
      <trkpt lat="46.33162" lon="-1.10231">
        <ele>3.2</ele>
        <time>2020-06-02T15:11:35Z</time>
      </trkpt>
      <trkpt lat="46.33162" lon="-1.10231">
        <ele>3.2</ele>
        <time>2020-06-02T15:11:36Z</time>
      </trkpt>
      <trkpt lat="46.33163" lon="-1.10231">
        <ele>3.2</ele>
        <time>2020-06-02T15:11:37Z</time>
      </trkpt>
      <trkpt lat="46.33163" lon="-1.10231">
        <ele>3.2</ele>
        <time>2020-06-02T15:11:38Z</time>
      </trkpt>
      <trkpt lat="46.33163" lon="-1.10231">
        <ele>3.2</ele>
        <time>2020-06-02T15:11:39Z</time>
      </trkpt>
      <trkpt lat="46.33163" lon="-1.10231">
        <ele>3.2</ele>
        <time>2020-06-02T15:11:40Z</time>
      </trkpt>
      <trkpt lat="46.33163" lon="-1.10231">
        <ele>3.2</ele>
        <time>2020-06-02T15:11:41Z</time>
      </trkpt>
      <trkpt lat="46.33163" lon="-1.10231">
        <ele>3.2</ele>
        <time>2020-06-02T15:11:42Z</time>
      </trkpt>
      <trkpt lat="46.33163" lon="-1.10231">
        <ele>3.2</ele>
        <time>2020-06-02T15:11:43Z</time>
      </trkpt>
      <trkpt lat="46.33163" lon="-1.10231">
        <ele>3.2</ele>
        <time>2020-06-02T15:11:44Z</time>
      </trkpt>
      <trkpt lat="46.33163" lon="-1.10231">
        <ele>3.2</ele>
        <time>2020-06-02T15:11:45Z</time>
      </trkpt>
      <trkpt lat="46.33163" lon="-1.10231">
        <ele>3.2</ele>
        <time>2020-06-02T15:11:46Z</time>
      </trkpt>
      <trkpt lat="46.33163" lon="-1.10231">
        <ele>3.2</ele>
        <time>2020-06-02T15:11:47Z</time>
      </trkpt>
      <trkpt lat="46.33163" lon="-1.1023">
        <ele>3.2</ele>
        <time>2020-06-02T15:11:48Z</time>
      </trkpt>
      <trkpt lat="46.33163" lon="-1.1023">
        <ele>3.2</ele>
        <time>2020-06-02T15:11:49Z</time>
      </trkpt>
      <trkpt lat="46.33163" lon="-1.1023">
        <ele>3.2</ele>
        <time>2020-06-02T15:11:50Z</time>
      </trkpt>
      <trkpt lat="46.33163" lon="-1.1023">
        <ele>3.2</ele>
        <time>2020-06-02T15:11:51Z</time>
      </trkpt>
      <trkpt lat="46.33163" lon="-1.1023">
        <ele>3.2</ele>
        <time>2020-06-02T15:11:52Z</time>
      </trkpt>
      <trkpt lat="46.33163" lon="-1.1023">
        <ele>3.2</ele>
        <time>2020-06-02T15:11:53Z</time>
      </trkpt>
      <trkpt lat="46.33162" lon="-1.1023">
        <ele>3.2</ele>
        <time>2020-06-02T15:11:54Z</time>
      </trkpt>
      <trkpt lat="46.33162" lon="-1.1023">
        <ele>3.2</ele>
        <time>2020-06-02T15:11:55Z</time>
      </trkpt>
      <trkpt lat="46.33162" lon="-1.1023">
        <ele>3.2</ele>
        <time>2020-06-02T15:11:56Z</time>
      </trkpt>
      <trkpt lat="46.33162" lon="-1.1023">
        <ele>3.2</ele>
        <time>2020-06-02T15:11:57Z</time>
      </trkpt>
      <trkpt lat="46.33161" lon="-1.1023">
        <ele>3.2</ele>
        <time>2020-06-02T15:11:58Z</time>
      </trkpt>
      <trkpt lat="46.33161" lon="-1.1023">
        <ele>3.2</ele>
        <time>2020-06-02T15:11:59Z</time>
      </trkpt>
      <trkpt lat="46.33161" lon="-1.1023">
        <ele>3.2</ele>
        <time>2020-06-02T15:12:00Z</time>
      </trkpt>
      <trkpt lat="46.33161" lon="-1.1023">
        <ele>3.2</ele>
        <time>2020-06-02T15:12:01Z</time>
      </trkpt>
      <trkpt lat="46.33161" lon="-1.1023">
        <ele>3.2</ele>
        <time>2020-06-02T15:12:02Z</time>
      </trkpt>
      <trkpt lat="46.33161" lon="-1.1023">
        <ele>3.2</ele>
        <time>2020-06-02T15:12:03Z</time>
      </trkpt>
      <trkpt lat="46.33161" lon="-1.1023">
        <ele>3.2</ele>
        <time>2020-06-02T15:12:04Z</time>
      </trkpt>
      <trkpt lat="46.33161" lon="-1.1023">
        <ele>3.2</ele>
        <time>2020-06-02T15:12:05Z</time>
      </trkpt>
      <trkpt lat="46.33161" lon="-1.1023">
        <ele>3.2</ele>
        <time>2020-06-02T15:12:06Z</time>
      </trkpt>
      <trkpt lat="46.33161" lon="-1.1023">
        <ele>3.2</ele>
        <time>2020-06-02T15:12:07Z</time>
      </trkpt>
      <trkpt lat="46.33161" lon="-1.1023">
        <ele>3.2</ele>
        <time>2020-06-02T15:12:08Z</time>
      </trkpt>
      <trkpt lat="46.33161" lon="-1.1023">
        <ele>3.2</ele>
        <time>2020-06-02T15:12:09Z</time>
      </trkpt>
      <trkpt lat="46.33161" lon="-1.1023">
        <ele>3.2</ele>
        <time>2020-06-02T15:12:10Z</time>
      </trkpt>
      <trkpt lat="46.33161" lon="-1.1023">
        <ele>3.2</ele>
        <time>2020-06-02T15:12:11Z</time>
      </trkpt>
      <trkpt lat="46.33161" lon="-1.1023">
        <ele>3.2</ele>
        <time>2020-06-02T15:12:12Z</time>
      </trkpt>
      <trkpt lat="46.33161" lon="-1.1023">
        <ele>3.2</ele>
        <time>2020-06-02T15:12:13Z</time>
      </trkpt>
      <trkpt lat="46.33161" lon="-1.1023">
        <ele>3.2</ele>
        <time>2020-06-02T15:12:14Z</time>
      </trkpt>
      <trkpt lat="46.33161" lon="-1.1023">
        <ele>3.2</ele>
        <time>2020-06-02T15:12:15Z</time>
      </trkpt>
      <trkpt lat="46.33161" lon="-1.1023">
        <ele>3.2</ele>
        <time>2020-06-02T15:12:16Z</time>
      </trkpt>
      <trkpt lat="46.33161" lon="-1.1023">
        <ele>3.2</ele>
        <time>2020-06-02T15:12:17Z</time>
      </trkpt>
      <trkpt lat="46.33161" lon="-1.1023">
        <ele>3.2</ele>
        <time>2020-06-02T15:12:18Z</time>
      </trkpt>
      <trkpt lat="46.33161" lon="-1.1023">
        <ele>3.2</ele>
        <time>2020-06-02T15:12:19Z</time>
      </trkpt>
      <trkpt lat="46.33161" lon="-1.1023">
        <ele>3.2</ele>
        <time>2020-06-02T15:12:20Z</time>
      </trkpt>
      <trkpt lat="46.33161" lon="-1.1023">
        <ele>3.2</ele>
        <time>2020-06-02T15:12:21Z</time>
      </trkpt>
      <trkpt lat="46.33161" lon="-1.1023">
        <ele>3.2</ele>
        <time>2020-06-02T15:12:22Z</time>
      </trkpt>
      <trkpt lat="46.33161" lon="-1.1023">
        <ele>3.2</ele>
        <time>2020-06-02T15:12:23Z</time>
      </trkpt>
      <trkpt lat="46.33161" lon="-1.1023">
        <ele>3.2</ele>
        <time>2020-06-02T15:12:24Z</time>
      </trkpt>
      <trkpt lat="46.33162" lon="-1.1023">
        <ele>3.2</ele>
        <time>2020-06-02T15:12:25Z</time>
      </trkpt>
      <trkpt lat="46.33162" lon="-1.1023">
        <ele>3.2</ele>
        <time>2020-06-02T15:12:26Z</time>
      </trkpt>
      <trkpt lat="46.33162" lon="-1.10231">
        <ele>3.2</ele>
        <time>2020-06-02T15:12:27Z</time>
      </trkpt>
      <trkpt lat="46.33162" lon="-1.10232">
        <ele>3.2</ele>
        <time>2020-06-02T15:12:28Z</time>
      </trkpt>
      <trkpt lat="46.33162" lon="-1.10235">
        <ele>3.2</ele>
        <time>2020-06-02T15:12:29Z</time>
      </trkpt>
      <trkpt lat="46.33162" lon="-1.10241">
        <ele>3.2</ele>
        <time>2020-06-02T15:12:30Z</time>
      </trkpt>
      <trkpt lat="46.33161" lon="-1.10244">
        <ele>3.2</ele>
        <time>2020-06-02T15:12:31Z</time>
      </trkpt>
      <trkpt lat="46.33161" lon="-1.10248">
        <ele>3.2</ele>
        <time>2020-06-02T15:12:32Z</time>
      </trkpt>
      <trkpt lat="46.33162" lon="-1.10252">
        <ele>3.2</ele>
        <time>2020-06-02T15:12:33Z</time>
      </trkpt>
      <trkpt lat="46.33162" lon="-1.10256">
        <ele>3.2</ele>
        <time>2020-06-02T15:12:34Z</time>
      </trkpt>
      <trkpt lat="46.33163" lon="-1.10261">
        <ele>3.2</ele>
        <time>2020-06-02T15:12:35Z</time>
      </trkpt>
      <trkpt lat="46.33164" lon="-1.10267">
        <ele>3.2</ele>
        <time>2020-06-02T15:12:36Z</time>
      </trkpt>
      <trkpt lat="46.33165" lon="-1.10274">
        <ele>3.2</ele>
        <time>2020-06-02T15:12:37Z</time>
      </trkpt>
      <trkpt lat="46.33166" lon="-1.1028">
        <ele>3.2</ele>
        <time>2020-06-02T15:12:38Z</time>
      </trkpt>
      <trkpt lat="46.33168" lon="-1.10286">
        <ele>3.2</ele>
        <time>2020-06-02T15:12:39Z</time>
      </trkpt>
      <trkpt lat="46.33169" lon="-1.10292">
        <ele>3.2</ele>
        <time>2020-06-02T15:12:40Z</time>
      </trkpt>
      <trkpt lat="46.33171" lon="-1.10298">
        <ele>3.2</ele>
        <time>2020-06-02T15:12:41Z</time>
      </trkpt>
      <trkpt lat="46.33172" lon="-1.10304">
        <ele>3.2</ele>
        <time>2020-06-02T15:12:42Z</time>
      </trkpt>
      <trkpt lat="46.33174" lon="-1.1031">
        <ele>3.3</ele>
        <time>2020-06-02T15:12:43Z</time>
      </trkpt>
      <trkpt lat="46.33175" lon="-1.10316">
        <ele>3.3</ele>
        <time>2020-06-02T15:12:44Z</time>
      </trkpt>
      <trkpt lat="46.33176" lon="-1.10322">
        <ele>3.3</ele>
        <time>2020-06-02T15:12:45Z</time>
      </trkpt>
      <trkpt lat="46.33177" lon="-1.10329">
        <ele>3.3</ele>
        <time>2020-06-02T15:12:46Z</time>
      </trkpt>
      <trkpt lat="46.33178" lon="-1.10337">
        <ele>3.3</ele>
        <time>2020-06-02T15:12:47Z</time>
      </trkpt>
      <trkpt lat="46.33179" lon="-1.10344">
        <ele>3.3</ele>
        <time>2020-06-02T15:12:48Z</time>
      </trkpt>
      <trkpt lat="46.33179" lon="-1.10352">
        <ele>3.3</ele>
        <time>2020-06-02T15:12:49Z</time>
      </trkpt>
      <trkpt lat="46.33181" lon="-1.10358">
        <ele>3.3</ele>
        <time>2020-06-02T15:12:50Z</time>
      </trkpt>
      <trkpt lat="46.33182" lon="-1.10364">
        <ele>3.3</ele>
        <time>2020-06-02T15:12:51Z</time>
      </trkpt>
      <trkpt lat="46.33183" lon="-1.1037">
        <ele>3.3</ele>
        <time>2020-06-02T15:12:52Z</time>
      </trkpt>
      <trkpt lat="46.33184" lon="-1.10375">
        <ele>3.3</ele>
        <time>2020-06-02T15:12:53Z</time>
      </trkpt>
      <trkpt lat="46.33185" lon="-1.1038">
        <ele>3.3</ele>
        <time>2020-06-02T15:12:54Z</time>
      </trkpt>
      <trkpt lat="46.33185" lon="-1.10385">
        <ele>3.3</ele>
        <time>2020-06-02T15:12:55Z</time>
      </trkpt>
      <trkpt lat="46.33186" lon="-1.10391">
        <ele>3.3</ele>
        <time>2020-06-02T15:12:56Z</time>
      </trkpt>
      <trkpt lat="46.33187" lon="-1.10396">
        <ele>3.2</ele>
        <time>2020-06-02T15:12:57Z</time>
      </trkpt>
      <trkpt lat="46.33187" lon="-1.10402">
        <ele>3.2</ele>
        <time>2020-06-02T15:12:58Z</time>
      </trkpt>
      <trkpt lat="46.33188" lon="-1.10407">
        <ele>3.2</ele>
        <time>2020-06-02T15:12:59Z</time>
      </trkpt>
      <trkpt lat="46.33189" lon="-1.10412">
        <ele>3.2</ele>
        <time>2020-06-02T15:13:00Z</time>
      </trkpt>
      <trkpt lat="46.3319" lon="-1.10417">
        <ele>3.2</ele>
        <time>2020-06-02T15:13:01Z</time>
      </trkpt>
      <trkpt lat="46.33191" lon="-1.10423">
        <ele>3.2</ele>
        <time>2020-06-02T15:13:02Z</time>
      </trkpt>
      <trkpt lat="46.33192" lon="-1.1043">
        <ele>3.2</ele>
        <time>2020-06-02T15:13:03Z</time>
      </trkpt>
      <trkpt lat="46.33193" lon="-1.10435">
        <ele>3.2</ele>
        <time>2020-06-02T15:13:04Z</time>
      </trkpt>
      <trkpt lat="46.33194" lon="-1.10442">
        <ele>3.2</ele>
        <time>2020-06-02T15:13:05Z</time>
      </trkpt>
      <trkpt lat="46.33194" lon="-1.10449">
        <ele>3.2</ele>
        <time>2020-06-02T15:13:06Z</time>
      </trkpt>
      <trkpt lat="46.33195" lon="-1.10455">
        <ele>3.2</ele>
        <time>2020-06-02T15:13:07Z</time>
      </trkpt>
      <trkpt lat="46.33196" lon="-1.10461">
        <ele>3.2</ele>
        <time>2020-06-02T15:13:08Z</time>
      </trkpt>
      <trkpt lat="46.33197" lon="-1.10467">
        <ele>3.2</ele>
        <time>2020-06-02T15:13:09Z</time>
      </trkpt>
      <trkpt lat="46.33199" lon="-1.10472">
        <ele>3.2</ele>
        <time>2020-06-02T15:13:10Z</time>
      </trkpt>
      <trkpt lat="46.332" lon="-1.10477">
        <ele>3.2</ele>
        <time>2020-06-02T15:13:11Z</time>
      </trkpt>
      <trkpt lat="46.33201" lon="-1.10483">
        <ele>3.2</ele>
        <time>2020-06-02T15:13:12Z</time>
      </trkpt>
      <trkpt lat="46.33202" lon="-1.10489">
        <ele>3.2</ele>
        <time>2020-06-02T15:13:13Z</time>
      </trkpt>
      <trkpt lat="46.33204" lon="-1.10496">
        <ele>3.2</ele>
        <time>2020-06-02T15:13:14Z</time>
      </trkpt>
      <trkpt lat="46.33205" lon="-1.10503">
        <ele>3.2</ele>
        <time>2020-06-02T15:13:15Z</time>
      </trkpt>
      <trkpt lat="46.33207" lon="-1.10511">
        <ele>3.2</ele>
        <time>2020-06-02T15:13:16Z</time>
      </trkpt>
      <trkpt lat="46.33208" lon="-1.10518">
        <ele>3.2</ele>
        <time>2020-06-02T15:13:17Z</time>
      </trkpt>
      <trkpt lat="46.33208" lon="-1.10524">
        <ele>3.2</ele>
        <time>2020-06-02T15:13:18Z</time>
      </trkpt>
      <trkpt lat="46.3321" lon="-1.10531">
        <ele>3.2</ele>
        <time>2020-06-02T15:13:19Z</time>
      </trkpt>
      <trkpt lat="46.33211" lon="-1.10538">
        <ele>3.2</ele>
        <time>2020-06-02T15:13:20Z</time>
      </trkpt>
      <trkpt lat="46.33212" lon="-1.10545">
        <ele>3.2</ele>
        <time>2020-06-02T15:13:21Z</time>
      </trkpt>
      <trkpt lat="46.33213" lon="-1.10552">
        <ele>3.2</ele>
        <time>2020-06-02T15:13:22Z</time>
      </trkpt>
      <trkpt lat="46.33214" lon="-1.10559">
        <ele>3.2</ele>
        <time>2020-06-02T15:13:23Z</time>
      </trkpt>
      <trkpt lat="46.33215" lon="-1.10566">
        <ele>3.2</ele>
        <time>2020-06-02T15:13:24Z</time>
      </trkpt>
      <trkpt lat="46.33216" lon="-1.10575">
        <ele>3.2</ele>
        <time>2020-06-02T15:13:25Z</time>
      </trkpt>
      <trkpt lat="46.33216" lon="-1.10583">
        <ele>3.2</ele>
        <time>2020-06-02T15:13:26Z</time>
      </trkpt>
      <trkpt lat="46.33218" lon="-1.10591">
        <ele>3.2</ele>
        <time>2020-06-02T15:13:27Z</time>
      </trkpt>
      <trkpt lat="46.33219" lon="-1.10599">
        <ele>3.2</ele>
        <time>2020-06-02T15:13:28Z</time>
      </trkpt>
      <trkpt lat="46.3322" lon="-1.10608">
        <ele>3.2</ele>
        <time>2020-06-02T15:13:29Z</time>
      </trkpt>
      <trkpt lat="46.33222" lon="-1.10616">
        <ele>3.1</ele>
        <time>2020-06-02T15:13:30Z</time>
      </trkpt>
      <trkpt lat="46.3322" lon="-1.10622">
        <ele>3.1</ele>
        <time>2020-06-02T15:13:31Z</time>
      </trkpt>
      <trkpt lat="46.33218" lon="-1.1063">
        <ele>3.1</ele>
        <time>2020-06-02T15:13:32Z</time>
      </trkpt>
      <trkpt lat="46.33216" lon="-1.10637">
        <ele>3.1</ele>
        <time>2020-06-02T15:13:33Z</time>
      </trkpt>
      <trkpt lat="46.33214" lon="-1.10643">
        <ele>3.1</ele>
        <time>2020-06-02T15:13:34Z</time>
      </trkpt>
      <trkpt lat="46.33211" lon="-1.1065">
        <ele>3.1</ele>
        <time>2020-06-02T15:13:35Z</time>
      </trkpt>
      <trkpt lat="46.33207" lon="-1.10655">
        <ele>3</ele>
        <time>2020-06-02T15:13:36Z</time>
      </trkpt>
      <trkpt lat="46.33204" lon="-1.10661">
        <ele>3</ele>
        <time>2020-06-02T15:13:37Z</time>
      </trkpt>
      <trkpt lat="46.332" lon="-1.10667">
        <ele>3</ele>
        <time>2020-06-02T15:13:38Z</time>
      </trkpt>
      <trkpt lat="46.33197" lon="-1.10673">
        <ele>3</ele>
        <time>2020-06-02T15:13:39Z</time>
      </trkpt>
      <trkpt lat="46.33193" lon="-1.1068">
        <ele>3</ele>
        <time>2020-06-02T15:13:40Z</time>
      </trkpt>
      <trkpt lat="46.3319" lon="-1.10687">
        <ele>3</ele>
        <time>2020-06-02T15:13:41Z</time>
      </trkpt>
      <trkpt lat="46.33186" lon="-1.10696">
        <ele>3</ele>
        <time>2020-06-02T15:13:42Z</time>
      </trkpt>
      <trkpt lat="46.33182" lon="-1.10704">
        <ele>3</ele>
        <time>2020-06-02T15:13:43Z</time>
      </trkpt>
      <trkpt lat="46.33178" lon="-1.10711">
        <ele>3</ele>
        <time>2020-06-02T15:13:44Z</time>
      </trkpt>
      <trkpt lat="46.33174" lon="-1.10719">
        <ele>3</ele>
        <time>2020-06-02T15:13:45Z</time>
      </trkpt>
      <trkpt lat="46.3317" lon="-1.10726">
        <ele>3</ele>
        <time>2020-06-02T15:13:46Z</time>
      </trkpt>
      <trkpt lat="46.33166" lon="-1.10733">
        <ele>3</ele>
        <time>2020-06-02T15:13:47Z</time>
      </trkpt>
      <trkpt lat="46.33162" lon="-1.1074">
        <ele>3.1</ele>
        <time>2020-06-02T15:13:48Z</time>
      </trkpt>
      <trkpt lat="46.33159" lon="-1.10746">
        <ele>3.1</ele>
        <time>2020-06-02T15:13:49Z</time>
      </trkpt>
      <trkpt lat="46.33155" lon="-1.10753">
        <ele>3.1</ele>
        <time>2020-06-02T15:13:50Z</time>
      </trkpt>
      <trkpt lat="46.33151" lon="-1.1076">
        <ele>3.1</ele>
        <time>2020-06-02T15:13:51Z</time>
      </trkpt>
      <trkpt lat="46.33147" lon="-1.10766">
        <ele>3.1</ele>
        <time>2020-06-02T15:13:52Z</time>
      </trkpt>
      <trkpt lat="46.33143" lon="-1.10774">
        <ele>3.1</ele>
        <time>2020-06-02T15:13:53Z</time>
      </trkpt>
      <trkpt lat="46.33139" lon="-1.10779">
        <ele>3.1</ele>
        <time>2020-06-02T15:13:54Z</time>
      </trkpt>
      <trkpt lat="46.33136" lon="-1.10785">
        <ele>3.1</ele>
        <time>2020-06-02T15:13:55Z</time>
      </trkpt>
      <trkpt lat="46.33133" lon="-1.10791">
        <ele>3.1</ele>
        <time>2020-06-02T15:13:56Z</time>
      </trkpt>
      <trkpt lat="46.3313" lon="-1.10796">
        <ele>3.1</ele>
        <time>2020-06-02T15:13:57Z</time>
      </trkpt>
      <trkpt lat="46.33127" lon="-1.10801">
        <ele>3.1</ele>
        <time>2020-06-02T15:13:58Z</time>
      </trkpt>
      <trkpt lat="46.33124" lon="-1.10806">
        <ele>3.1</ele>
        <time>2020-06-02T15:13:59Z</time>
      </trkpt>
      <trkpt lat="46.33121" lon="-1.10811">
        <ele>3.1</ele>
        <time>2020-06-02T15:14:00Z</time>
      </trkpt>
      <trkpt lat="46.33118" lon="-1.10817">
        <ele>3.1</ele>
        <time>2020-06-02T15:14:01Z</time>
      </trkpt>
      <trkpt lat="46.33115" lon="-1.10822">
        <ele>3.1</ele>
        <time>2020-06-02T15:14:02Z</time>
      </trkpt>
      <trkpt lat="46.33113" lon="-1.10826">
        <ele>3.1</ele>
        <time>2020-06-02T15:14:03Z</time>
      </trkpt>
      <trkpt lat="46.3311" lon="-1.10832">
        <ele>3.1</ele>
        <time>2020-06-02T15:14:04Z</time>
      </trkpt>
      <trkpt lat="46.33107" lon="-1.10837">
        <ele>3.1</ele>
        <time>2020-06-02T15:14:05Z</time>
      </trkpt>
      <trkpt lat="46.33104" lon="-1.10843">
        <ele>3.1</ele>
        <time>2020-06-02T15:14:06Z</time>
      </trkpt>
      <trkpt lat="46.331" lon="-1.1085">
        <ele>3.1</ele>
        <time>2020-06-02T15:14:07Z</time>
      </trkpt>
      <trkpt lat="46.33097" lon="-1.10856">
        <ele>3.1</ele>
        <time>2020-06-02T15:14:08Z</time>
      </trkpt>
      <trkpt lat="46.33094" lon="-1.10862">
        <ele>3.1</ele>
        <time>2020-06-02T15:14:09Z</time>
      </trkpt>
      <trkpt lat="46.33091" lon="-1.10867">
        <ele>3.1</ele>
        <time>2020-06-02T15:14:10Z</time>
      </trkpt>
      <trkpt lat="46.33087" lon="-1.10873">
        <ele>3.1</ele>
        <time>2020-06-02T15:14:11Z</time>
      </trkpt>
      <trkpt lat="46.33083" lon="-1.10879">
        <ele>3.1</ele>
        <time>2020-06-02T15:14:12Z</time>
      </trkpt>
      <trkpt lat="46.33079" lon="-1.10885">
        <ele>3.1</ele>
        <time>2020-06-02T15:14:13Z</time>
      </trkpt>
      <trkpt lat="46.33076" lon="-1.10891">
        <ele>3</ele>
        <time>2020-06-02T15:14:14Z</time>
      </trkpt>
      <trkpt lat="46.33073" lon="-1.10897">
        <ele>3</ele>
        <time>2020-06-02T15:14:15Z</time>
      </trkpt>
      <trkpt lat="46.33069" lon="-1.10903">
        <ele>3</ele>
        <time>2020-06-02T15:14:16Z</time>
      </trkpt>
      <trkpt lat="46.33065" lon="-1.10909">
        <ele>3</ele>
        <time>2020-06-02T15:14:17Z</time>
      </trkpt>
      <trkpt lat="46.33062" lon="-1.10915">
        <ele>3</ele>
        <time>2020-06-02T15:14:18Z</time>
      </trkpt>
      <trkpt lat="46.33059" lon="-1.10921">
        <ele>3</ele>
        <time>2020-06-02T15:14:19Z</time>
      </trkpt>
      <trkpt lat="46.33055" lon="-1.10929">
        <ele>3</ele>
        <time>2020-06-02T15:14:20Z</time>
      </trkpt>
      <trkpt lat="46.33052" lon="-1.10935">
        <ele>3</ele>
        <time>2020-06-02T15:14:21Z</time>
      </trkpt>
      <trkpt lat="46.33048" lon="-1.10943">
        <ele>3</ele>
        <time>2020-06-02T15:14:22Z</time>
      </trkpt>
      <trkpt lat="46.33044" lon="-1.1095">
        <ele>3</ele>
        <time>2020-06-02T15:14:23Z</time>
      </trkpt>
      <trkpt lat="46.33041" lon="-1.10956">
        <ele>3.1</ele>
        <time>2020-06-02T15:14:24Z</time>
      </trkpt>
      <trkpt lat="46.33037" lon="-1.10963">
        <ele>3.1</ele>
        <time>2020-06-02T15:14:25Z</time>
      </trkpt>
      <trkpt lat="46.33033" lon="-1.10969">
        <ele>3.1</ele>
        <time>2020-06-02T15:14:26Z</time>
      </trkpt>
      <trkpt lat="46.3303" lon="-1.10976">
        <ele>3.1</ele>
        <time>2020-06-02T15:14:27Z</time>
      </trkpt>
      <trkpt lat="46.33026" lon="-1.10981">
        <ele>3.1</ele>
        <time>2020-06-02T15:14:28Z</time>
      </trkpt>
      <trkpt lat="46.33022" lon="-1.10987">
        <ele>3.1</ele>
        <time>2020-06-02T15:14:29Z</time>
      </trkpt>
      <trkpt lat="46.33018" lon="-1.10993">
        <ele>3.1</ele>
        <time>2020-06-02T15:14:30Z</time>
      </trkpt>
      <trkpt lat="46.33015" lon="-1.11">
        <ele>3.1</ele>
        <time>2020-06-02T15:14:31Z</time>
      </trkpt>
      <trkpt lat="46.33011" lon="-1.11007">
        <ele>3</ele>
        <time>2020-06-02T15:14:32Z</time>
      </trkpt>
      <trkpt lat="46.33008" lon="-1.11013">
        <ele>3</ele>
        <time>2020-06-02T15:14:33Z</time>
      </trkpt>
      <trkpt lat="46.33004" lon="-1.11019">
        <ele>3</ele>
        <time>2020-06-02T15:14:34Z</time>
      </trkpt>
      <trkpt lat="46.33001" lon="-1.11025">
        <ele>3</ele>
        <time>2020-06-02T15:14:35Z</time>
      </trkpt>
      <trkpt lat="46.32997" lon="-1.1103">
        <ele>3</ele>
        <time>2020-06-02T15:14:36Z</time>
      </trkpt>
      <trkpt lat="46.32994" lon="-1.11035">
        <ele>2.9</ele>
        <time>2020-06-02T15:14:37Z</time>
      </trkpt>
      <trkpt lat="46.32991" lon="-1.11041">
        <ele>2.9</ele>
        <time>2020-06-02T15:14:38Z</time>
      </trkpt>
      <trkpt lat="46.32988" lon="-1.11045">
        <ele>2.9</ele>
        <time>2020-06-02T15:14:39Z</time>
      </trkpt>
      <trkpt lat="46.32986" lon="-1.11049">
        <ele>2.9</ele>
        <time>2020-06-02T15:14:40Z</time>
      </trkpt>
      <trkpt lat="46.32983" lon="-1.11055">
        <ele>2.9</ele>
        <time>2020-06-02T15:14:41Z</time>
      </trkpt>
      <trkpt lat="46.32979" lon="-1.11061">
        <ele>2.9</ele>
        <time>2020-06-02T15:14:42Z</time>
      </trkpt>
      <trkpt lat="46.32976" lon="-1.11067">
        <ele>2.9</ele>
        <time>2020-06-02T15:14:43Z</time>
      </trkpt>
      <trkpt lat="46.32973" lon="-1.11074">
        <ele>2.9</ele>
        <time>2020-06-02T15:14:44Z</time>
      </trkpt>
      <trkpt lat="46.3297" lon="-1.11079">
        <ele>2.9</ele>
        <time>2020-06-02T15:14:45Z</time>
      </trkpt>
      <trkpt lat="46.32966" lon="-1.11086">
        <ele>2.9</ele>
        <time>2020-06-02T15:14:46Z</time>
      </trkpt>
      <trkpt lat="46.32962" lon="-1.11093">
        <ele>2.9</ele>
        <time>2020-06-02T15:14:47Z</time>
      </trkpt>
      <trkpt lat="46.32959" lon="-1.11098">
        <ele>2.9</ele>
        <time>2020-06-02T15:14:48Z</time>
      </trkpt>
      <trkpt lat="46.32956" lon="-1.11104">
        <ele>2.9</ele>
        <time>2020-06-02T15:14:49Z</time>
      </trkpt>
      <trkpt lat="46.32952" lon="-1.11111">
        <ele>2.9</ele>
        <time>2020-06-02T15:14:50Z</time>
      </trkpt>
      <trkpt lat="46.3295" lon="-1.1112">
        <ele>2.9</ele>
        <time>2020-06-02T15:14:51Z</time>
      </trkpt>
      <trkpt lat="46.32947" lon="-1.11128">
        <ele>3</ele>
        <time>2020-06-02T15:14:52Z</time>
      </trkpt>
      <trkpt lat="46.32945" lon="-1.11135">
        <ele>3</ele>
        <time>2020-06-02T15:14:53Z</time>
      </trkpt>
      <trkpt lat="46.32943" lon="-1.11143">
        <ele>3</ele>
        <time>2020-06-02T15:14:54Z</time>
      </trkpt>
      <trkpt lat="46.32941" lon="-1.11149">
        <ele>3.1</ele>
        <time>2020-06-02T15:14:55Z</time>
      </trkpt>
      <trkpt lat="46.3294" lon="-1.11157">
        <ele>3.1</ele>
        <time>2020-06-02T15:14:56Z</time>
      </trkpt>
      <trkpt lat="46.32938" lon="-1.11164">
        <ele>3.1</ele>
        <time>2020-06-02T15:14:57Z</time>
      </trkpt>
      <trkpt lat="46.32938" lon="-1.1117">
        <ele>3.1</ele>
        <time>2020-06-02T15:14:58Z</time>
      </trkpt>
      <trkpt lat="46.32937" lon="-1.11176">
        <ele>3.2</ele>
        <time>2020-06-02T15:14:59Z</time>
      </trkpt>
      <trkpt lat="46.32936" lon="-1.11182">
        <ele>3.2</ele>
        <time>2020-06-02T15:15:00Z</time>
      </trkpt>
      <trkpt lat="46.32936" lon="-1.11187">
        <ele>3.2</ele>
        <time>2020-06-02T15:15:01Z</time>
      </trkpt>
      <trkpt lat="46.32936" lon="-1.11191">
        <ele>3.2</ele>
        <time>2020-06-02T15:15:02Z</time>
      </trkpt>
      <trkpt lat="46.32935" lon="-1.11196">
        <ele>3.2</ele>
        <time>2020-06-02T15:15:03Z</time>
      </trkpt>
      <trkpt lat="46.32935" lon="-1.11201">
        <ele>3.2</ele>
        <time>2020-06-02T15:15:04Z</time>
      </trkpt>
      <trkpt lat="46.32934" lon="-1.11207">
        <ele>3.2</ele>
        <time>2020-06-02T15:15:05Z</time>
      </trkpt>
      <trkpt lat="46.32934" lon="-1.11213">
        <ele>3.2</ele>
        <time>2020-06-02T15:15:06Z</time>
      </trkpt>
      <trkpt lat="46.32933" lon="-1.11219">
        <ele>3.2</ele>
        <time>2020-06-02T15:15:07Z</time>
      </trkpt>
      <trkpt lat="46.32933" lon="-1.11227">
        <ele>3.3</ele>
        <time>2020-06-02T15:15:08Z</time>
      </trkpt>
      <trkpt lat="46.32933" lon="-1.11234">
        <ele>3.3</ele>
        <time>2020-06-02T15:15:09Z</time>
      </trkpt>
      <trkpt lat="46.32933" lon="-1.11242">
        <ele>3.3</ele>
        <time>2020-06-02T15:15:10Z</time>
      </trkpt>
      <trkpt lat="46.32932" lon="-1.1125">
        <ele>3.3</ele>
        <time>2020-06-02T15:15:11Z</time>
      </trkpt>
      <trkpt lat="46.32933" lon="-1.11257">
        <ele>3.3</ele>
        <time>2020-06-02T15:15:12Z</time>
      </trkpt>
      <trkpt lat="46.32932" lon="-1.11265">
        <ele>3.3</ele>
        <time>2020-06-02T15:15:13Z</time>
      </trkpt>
      <trkpt lat="46.32932" lon="-1.11272">
        <ele>3.3</ele>
        <time>2020-06-02T15:15:14Z</time>
      </trkpt>
      <trkpt lat="46.32932" lon="-1.11278">
        <ele>3.4</ele>
        <time>2020-06-02T15:15:15Z</time>
      </trkpt>
      <trkpt lat="46.32932" lon="-1.11285">
        <ele>3.4</ele>
        <time>2020-06-02T15:15:16Z</time>
      </trkpt>
      <trkpt lat="46.32931" lon="-1.11292">
        <ele>3.4</ele>
        <time>2020-06-02T15:15:17Z</time>
      </trkpt>
      <trkpt lat="46.3293" lon="-1.113">
        <ele>3.4</ele>
        <time>2020-06-02T15:15:18Z</time>
      </trkpt>
      <trkpt lat="46.32929" lon="-1.11308">
        <ele>3.5</ele>
        <time>2020-06-02T15:15:19Z</time>
      </trkpt>
      <trkpt lat="46.32929" lon="-1.11316">
        <ele>3.5</ele>
        <time>2020-06-02T15:15:20Z</time>
      </trkpt>
      <trkpt lat="46.32929" lon="-1.11323">
        <ele>3.5</ele>
        <time>2020-06-02T15:15:21Z</time>
      </trkpt>
      <trkpt lat="46.32928" lon="-1.1133">
        <ele>3.5</ele>
        <time>2020-06-02T15:15:22Z</time>
      </trkpt>
      <trkpt lat="46.32928" lon="-1.11337">
        <ele>3.5</ele>
        <time>2020-06-02T15:15:23Z</time>
      </trkpt>
      <trkpt lat="46.32927" lon="-1.11344">
        <ele>3.5</ele>
        <time>2020-06-02T15:15:24Z</time>
      </trkpt>
      <trkpt lat="46.32926" lon="-1.11351">
        <ele>3.5</ele>
        <time>2020-06-02T15:15:25Z</time>
      </trkpt>
      <trkpt lat="46.32926" lon="-1.11358">
        <ele>3.5</ele>
        <time>2020-06-02T15:15:26Z</time>
      </trkpt>
      <trkpt lat="46.32926" lon="-1.11364">
        <ele>3.5</ele>
        <time>2020-06-02T15:15:27Z</time>
      </trkpt>
      <trkpt lat="46.32926" lon="-1.11372">
        <ele>3.5</ele>
        <time>2020-06-02T15:15:28Z</time>
      </trkpt>
      <trkpt lat="46.32925" lon="-1.1138">
        <ele>3.6</ele>
        <time>2020-06-02T15:15:29Z</time>
      </trkpt>
      <trkpt lat="46.32925" lon="-1.11388">
        <ele>3.6</ele>
        <time>2020-06-02T15:15:30Z</time>
      </trkpt>
      <trkpt lat="46.32924" lon="-1.11395">
        <ele>3.6</ele>
        <time>2020-06-02T15:15:31Z</time>
      </trkpt>
      <trkpt lat="46.32924" lon="-1.11403">
        <ele>3.6</ele>
        <time>2020-06-02T15:15:32Z</time>
      </trkpt>
      <trkpt lat="46.32923" lon="-1.11412">
        <ele>3.6</ele>
        <time>2020-06-02T15:15:33Z</time>
      </trkpt>
      <trkpt lat="46.32923" lon="-1.11418">
        <ele>3.6</ele>
        <time>2020-06-02T15:15:34Z</time>
      </trkpt>
      <trkpt lat="46.32923" lon="-1.11426">
        <ele>3.6</ele>
        <time>2020-06-02T15:15:35Z</time>
      </trkpt>
      <trkpt lat="46.32922" lon="-1.11434">
        <ele>3.6</ele>
        <time>2020-06-02T15:15:36Z</time>
      </trkpt>
      <trkpt lat="46.32921" lon="-1.11441">
        <ele>3.6</ele>
        <time>2020-06-02T15:15:37Z</time>
      </trkpt>
      <trkpt lat="46.32921" lon="-1.11449">
        <ele>3.6</ele>
        <time>2020-06-02T15:15:38Z</time>
      </trkpt>
      <trkpt lat="46.3292" lon="-1.11455">
        <ele>3.6</ele>
        <time>2020-06-02T15:15:39Z</time>
      </trkpt>
      <trkpt lat="46.32919" lon="-1.11462">
        <ele>3.6</ele>
        <time>2020-06-02T15:15:40Z</time>
      </trkpt>
      <trkpt lat="46.32918" lon="-1.11468">
        <ele>3.6</ele>
        <time>2020-06-02T15:15:41Z</time>
      </trkpt>
      <trkpt lat="46.32919" lon="-1.11475">
        <ele>3.6</ele>
        <time>2020-06-02T15:15:42Z</time>
      </trkpt>
      <trkpt lat="46.32919" lon="-1.11479">
        <ele>3.6</ele>
        <time>2020-06-02T15:15:43Z</time>
      </trkpt>
      <trkpt lat="46.32921" lon="-1.11485">
        <ele>3.6</ele>
        <time>2020-06-02T15:15:44Z</time>
      </trkpt>
      <trkpt lat="46.32922" lon="-1.11492">
        <ele>3.6</ele>
        <time>2020-06-02T15:15:45Z</time>
      </trkpt>
      <trkpt lat="46.32923" lon="-1.11498">
        <ele>3.6</ele>
        <time>2020-06-02T15:15:46Z</time>
      </trkpt>
      <trkpt lat="46.32923" lon="-1.11506">
        <ele>3.6</ele>
        <time>2020-06-02T15:15:47Z</time>
      </trkpt>
      <trkpt lat="46.32924" lon="-1.11513">
        <ele>3.5</ele>
        <time>2020-06-02T15:15:48Z</time>
      </trkpt>
      <trkpt lat="46.32925" lon="-1.11521">
        <ele>3.5</ele>
        <time>2020-06-02T15:15:49Z</time>
      </trkpt>
      <trkpt lat="46.32925" lon="-1.11529">
        <ele>3.5</ele>
        <time>2020-06-02T15:15:50Z</time>
      </trkpt>
      <trkpt lat="46.32925" lon="-1.11536">
        <ele>3.5</ele>
        <time>2020-06-02T15:15:51Z</time>
      </trkpt>
      <trkpt lat="46.32925" lon="-1.11543">
        <ele>3.4</ele>
        <time>2020-06-02T15:15:52Z</time>
      </trkpt>
      <trkpt lat="46.32925" lon="-1.11551">
        <ele>3.4</ele>
        <time>2020-06-02T15:15:53Z</time>
      </trkpt>
      <trkpt lat="46.32925" lon="-1.11559">
        <ele>3.4</ele>
        <time>2020-06-02T15:15:54Z</time>
      </trkpt>
      <trkpt lat="46.32924" lon="-1.11566">
        <ele>3.3</ele>
        <time>2020-06-02T15:15:55Z</time>
      </trkpt>
      <trkpt lat="46.32924" lon="-1.11574">
        <ele>3.3</ele>
        <time>2020-06-02T15:15:56Z</time>
      </trkpt>
      <trkpt lat="46.32923" lon="-1.11581">
        <ele>3.3</ele>
        <time>2020-06-02T15:15:57Z</time>
      </trkpt>
      <trkpt lat="46.32922" lon="-1.1159">
        <ele>3.3</ele>
        <time>2020-06-02T15:15:58Z</time>
      </trkpt>
      <trkpt lat="46.3292" lon="-1.11598">
        <ele>3.2</ele>
        <time>2020-06-02T15:15:59Z</time>
      </trkpt>
      <trkpt lat="46.32919" lon="-1.11606">
        <ele>3.2</ele>
        <time>2020-06-02T15:16:00Z</time>
      </trkpt>
      <trkpt lat="46.32917" lon="-1.11614">
        <ele>3.2</ele>
        <time>2020-06-02T15:16:01Z</time>
      </trkpt>
      <trkpt lat="46.32916" lon="-1.11622">
        <ele>3.1</ele>
        <time>2020-06-02T15:16:02Z</time>
      </trkpt>
      <trkpt lat="46.32915" lon="-1.1163">
        <ele>3</ele>
        <time>2020-06-02T15:16:03Z</time>
      </trkpt>
      <trkpt lat="46.32914" lon="-1.11639">
        <ele>3</ele>
        <time>2020-06-02T15:16:04Z</time>
      </trkpt>
      <trkpt lat="46.32913" lon="-1.11647">
        <ele>3</ele>
        <time>2020-06-02T15:16:05Z</time>
      </trkpt>
      <trkpt lat="46.32912" lon="-1.11655">
        <ele>3</ele>
        <time>2020-06-02T15:16:06Z</time>
      </trkpt>
      <trkpt lat="46.32911" lon="-1.11662">
        <ele>2.9</ele>
        <time>2020-06-02T15:16:07Z</time>
      </trkpt>
      <trkpt lat="46.3291" lon="-1.1167">
        <ele>2.9</ele>
        <time>2020-06-02T15:16:08Z</time>
      </trkpt>
      <trkpt lat="46.32909" lon="-1.11678">
        <ele>2.9</ele>
        <time>2020-06-02T15:16:09Z</time>
      </trkpt>
      <trkpt lat="46.32909" lon="-1.11685">
        <ele>2.9</ele>
        <time>2020-06-02T15:16:10Z</time>
      </trkpt>
      <trkpt lat="46.32908" lon="-1.11692">
        <ele>2.9</ele>
        <time>2020-06-02T15:16:11Z</time>
      </trkpt>
      <trkpt lat="46.32908" lon="-1.117">
        <ele>2.9</ele>
        <time>2020-06-02T15:16:12Z</time>
      </trkpt>
      <trkpt lat="46.32908" lon="-1.11708">
        <ele>2.9</ele>
        <time>2020-06-02T15:16:13Z</time>
      </trkpt>
      <trkpt lat="46.32907" lon="-1.11715">
        <ele>2.9</ele>
        <time>2020-06-02T15:16:14Z</time>
      </trkpt>
      <trkpt lat="46.32907" lon="-1.11723">
        <ele>2.9</ele>
        <time>2020-06-02T15:16:15Z</time>
      </trkpt>
      <trkpt lat="46.32907" lon="-1.11731">
        <ele>2.9</ele>
        <time>2020-06-02T15:16:16Z</time>
      </trkpt>
      <trkpt lat="46.32907" lon="-1.11739">
        <ele>2.9</ele>
        <time>2020-06-02T15:16:17Z</time>
      </trkpt>
      <trkpt lat="46.32907" lon="-1.11746">
        <ele>2.9</ele>
        <time>2020-06-02T15:16:18Z</time>
      </trkpt>
      <trkpt lat="46.32908" lon="-1.11754">
        <ele>2.9</ele>
        <time>2020-06-02T15:16:19Z</time>
      </trkpt>
      <trkpt lat="46.32908" lon="-1.11762">
        <ele>2.9</ele>
        <time>2020-06-02T15:16:20Z</time>
      </trkpt>
      <trkpt lat="46.32909" lon="-1.1177">
        <ele>2.9</ele>
        <time>2020-06-02T15:16:21Z</time>
      </trkpt>
      <trkpt lat="46.3291" lon="-1.11777">
        <ele>2.8</ele>
        <time>2020-06-02T15:16:22Z</time>
      </trkpt>
      <trkpt lat="46.32911" lon="-1.11785">
        <ele>2.8</ele>
        <time>2020-06-02T15:16:23Z</time>
      </trkpt>
      <trkpt lat="46.32911" lon="-1.11792">
        <ele>2.8</ele>
        <time>2020-06-02T15:16:24Z</time>
      </trkpt>
      <trkpt lat="46.32912" lon="-1.11801">
        <ele>2.8</ele>
        <time>2020-06-02T15:16:25Z</time>
      </trkpt>
      <trkpt lat="46.32912" lon="-1.11809">
        <ele>2.8</ele>
        <time>2020-06-02T15:16:26Z</time>
      </trkpt>
      <trkpt lat="46.32913" lon="-1.11817">
        <ele>2.8</ele>
        <time>2020-06-02T15:16:27Z</time>
      </trkpt>
      <trkpt lat="46.32914" lon="-1.11823">
        <ele>2.8</ele>
        <time>2020-06-02T15:16:28Z</time>
      </trkpt>
      <trkpt lat="46.32915" lon="-1.11831">
        <ele>2.8</ele>
        <time>2020-06-02T15:16:29Z</time>
      </trkpt>
      <trkpt lat="46.32916" lon="-1.11838">
        <ele>2.8</ele>
        <time>2020-06-02T15:16:30Z</time>
      </trkpt>
      <trkpt lat="46.32917" lon="-1.11845">
        <ele>2.8</ele>
        <time>2020-06-02T15:16:31Z</time>
      </trkpt>
      <trkpt lat="46.32917" lon="-1.11853">
        <ele>2.8</ele>
        <time>2020-06-02T15:16:32Z</time>
      </trkpt>
      <trkpt lat="46.32919" lon="-1.11859">
        <ele>2.8</ele>
        <time>2020-06-02T15:16:33Z</time>
      </trkpt>
      <trkpt lat="46.32919" lon="-1.11867">
        <ele>2.8</ele>
        <time>2020-06-02T15:16:34Z</time>
      </trkpt>
      <trkpt lat="46.32919" lon="-1.11876">
        <ele>2.8</ele>
        <time>2020-06-02T15:16:35Z</time>
      </trkpt>
      <trkpt lat="46.3292" lon="-1.11884">
        <ele>2.8</ele>
        <time>2020-06-02T15:16:36Z</time>
      </trkpt>
      <trkpt lat="46.3292" lon="-1.11892">
        <ele>2.8</ele>
        <time>2020-06-02T15:16:37Z</time>
      </trkpt>
      <trkpt lat="46.32921" lon="-1.119">
        <ele>2.8</ele>
        <time>2020-06-02T15:16:38Z</time>
      </trkpt>
      <trkpt lat="46.32921" lon="-1.11908">
        <ele>2.8</ele>
        <time>2020-06-02T15:16:39Z</time>
      </trkpt>
      <trkpt lat="46.32922" lon="-1.11914">
        <ele>2.8</ele>
        <time>2020-06-02T15:16:40Z</time>
      </trkpt>
      <trkpt lat="46.32922" lon="-1.11922">
        <ele>2.8</ele>
        <time>2020-06-02T15:16:41Z</time>
      </trkpt>
      <trkpt lat="46.32923" lon="-1.11929">
        <ele>2.8</ele>
        <time>2020-06-02T15:16:42Z</time>
      </trkpt>
      <trkpt lat="46.32924" lon="-1.11937">
        <ele>2.7</ele>
        <time>2020-06-02T15:16:43Z</time>
      </trkpt>
      <trkpt lat="46.32925" lon="-1.11946">
        <ele>2.7</ele>
        <time>2020-06-02T15:16:44Z</time>
      </trkpt>
      <trkpt lat="46.32926" lon="-1.11954">
        <ele>2.7</ele>
        <time>2020-06-02T15:16:45Z</time>
      </trkpt>
      <trkpt lat="46.32926" lon="-1.11963">
        <ele>2.7</ele>
        <time>2020-06-02T15:16:46Z</time>
      </trkpt>
      <trkpt lat="46.32927" lon="-1.1197">
        <ele>2.7</ele>
        <time>2020-06-02T15:16:47Z</time>
      </trkpt>
      <trkpt lat="46.32928" lon="-1.11977">
        <ele>2.7</ele>
        <time>2020-06-02T15:16:48Z</time>
      </trkpt>
      <trkpt lat="46.3293" lon="-1.11984">
        <ele>2.7</ele>
        <time>2020-06-02T15:16:49Z</time>
      </trkpt>
      <trkpt lat="46.32931" lon="-1.11992">
        <ele>2.6</ele>
        <time>2020-06-02T15:16:50Z</time>
      </trkpt>
      <trkpt lat="46.32932" lon="-1.11999">
        <ele>2.6</ele>
        <time>2020-06-02T15:16:51Z</time>
      </trkpt>
      <trkpt lat="46.32933" lon="-1.12008">
        <ele>2.6</ele>
        <time>2020-06-02T15:16:52Z</time>
      </trkpt>
      <trkpt lat="46.32934" lon="-1.12015">
        <ele>2.6</ele>
        <time>2020-06-02T15:16:53Z</time>
      </trkpt>
      <trkpt lat="46.32934" lon="-1.12024">
        <ele>2.6</ele>
        <time>2020-06-02T15:16:54Z</time>
      </trkpt>
      <trkpt lat="46.32936" lon="-1.12031">
        <ele>2.6</ele>
        <time>2020-06-02T15:16:55Z</time>
      </trkpt>
      <trkpt lat="46.32936" lon="-1.1204">
        <ele>2.6</ele>
        <time>2020-06-02T15:16:56Z</time>
      </trkpt>
      <trkpt lat="46.32937" lon="-1.12048">
        <ele>2.6</ele>
        <time>2020-06-02T15:16:57Z</time>
      </trkpt>
      <trkpt lat="46.32938" lon="-1.12056">
        <ele>2.6</ele>
        <time>2020-06-02T15:16:58Z</time>
      </trkpt>
      <trkpt lat="46.32938" lon="-1.12065">
        <ele>2.6</ele>
        <time>2020-06-02T15:16:59Z</time>
      </trkpt>
      <trkpt lat="46.32939" lon="-1.12073">
        <ele>2.5</ele>
        <time>2020-06-02T15:17:00Z</time>
      </trkpt>
      <trkpt lat="46.32939" lon="-1.12081">
        <ele>2.5</ele>
        <time>2020-06-02T15:17:01Z</time>
      </trkpt>
      <trkpt lat="46.32941" lon="-1.12087">
        <ele>2.5</ele>
        <time>2020-06-02T15:17:02Z</time>
      </trkpt>
      <trkpt lat="46.32942" lon="-1.12094">
        <ele>2.5</ele>
        <time>2020-06-02T15:17:03Z</time>
      </trkpt>
      <trkpt lat="46.32943" lon="-1.12102">
        <ele>2.5</ele>
        <time>2020-06-02T15:17:04Z</time>
      </trkpt>
      <trkpt lat="46.32944" lon="-1.12109">
        <ele>2.5</ele>
        <time>2020-06-02T15:17:05Z</time>
      </trkpt>
      <trkpt lat="46.32945" lon="-1.12117">
        <ele>2.5</ele>
        <time>2020-06-02T15:17:06Z</time>
      </trkpt>
      <trkpt lat="46.32945" lon="-1.12125">
        <ele>2.5</ele>
        <time>2020-06-02T15:17:07Z</time>
      </trkpt>
      <trkpt lat="46.32946" lon="-1.12132">
        <ele>2.5</ele>
        <time>2020-06-02T15:17:08Z</time>
      </trkpt>
      <trkpt lat="46.32946" lon="-1.1214">
        <ele>2.5</ele>
        <time>2020-06-02T15:17:09Z</time>
      </trkpt>
      <trkpt lat="46.32947" lon="-1.12146">
        <ele>2.4</ele>
        <time>2020-06-02T15:17:10Z</time>
      </trkpt>
      <trkpt lat="46.32948" lon="-1.12154">
        <ele>2.4</ele>
        <time>2020-06-02T15:17:11Z</time>
      </trkpt>
      <trkpt lat="46.32951" lon="-1.1216">
        <ele>2.4</ele>
        <time>2020-06-02T15:17:12Z</time>
      </trkpt>
      <trkpt lat="46.32952" lon="-1.12168">
        <ele>2.4</ele>
        <time>2020-06-02T15:17:13Z</time>
      </trkpt>
      <trkpt lat="46.32953" lon="-1.12176">
        <ele>2.5</ele>
        <time>2020-06-02T15:17:14Z</time>
      </trkpt>
      <trkpt lat="46.32954" lon="-1.12184">
        <ele>2.5</ele>
        <time>2020-06-02T15:17:15Z</time>
      </trkpt>
      <trkpt lat="46.32954" lon="-1.12191">
        <ele>2.5</ele>
        <time>2020-06-02T15:17:16Z</time>
      </trkpt>
      <trkpt lat="46.32955" lon="-1.12198">
        <ele>2.5</ele>
        <time>2020-06-02T15:17:17Z</time>
      </trkpt>
      <trkpt lat="46.32955" lon="-1.12206">
        <ele>2.5</ele>
        <time>2020-06-02T15:17:18Z</time>
      </trkpt>
      <trkpt lat="46.32955" lon="-1.12214">
        <ele>2.5</ele>
        <time>2020-06-02T15:17:19Z</time>
      </trkpt>
      <trkpt lat="46.32956" lon="-1.12222">
        <ele>2.5</ele>
        <time>2020-06-02T15:17:20Z</time>
      </trkpt>
      <trkpt lat="46.32956" lon="-1.12229">
        <ele>2.5</ele>
        <time>2020-06-02T15:17:21Z</time>
      </trkpt>
      <trkpt lat="46.32957" lon="-1.12237">
        <ele>2.4</ele>
        <time>2020-06-02T15:17:22Z</time>
      </trkpt>
      <trkpt lat="46.32958" lon="-1.12244">
        <ele>2.4</ele>
        <time>2020-06-02T15:17:23Z</time>
      </trkpt>
      <trkpt lat="46.3296" lon="-1.12251">
        <ele>2.4</ele>
        <time>2020-06-02T15:17:24Z</time>
      </trkpt>
      <trkpt lat="46.32961" lon="-1.12258">
        <ele>2.4</ele>
        <time>2020-06-02T15:17:25Z</time>
      </trkpt>
      <trkpt lat="46.32962" lon="-1.12264">
        <ele>2.4</ele>
        <time>2020-06-02T15:17:26Z</time>
      </trkpt>
      <trkpt lat="46.32963" lon="-1.12271">
        <ele>2.4</ele>
        <time>2020-06-02T15:17:27Z</time>
      </trkpt>
      <trkpt lat="46.32964" lon="-1.12278">
        <ele>2.4</ele>
        <time>2020-06-02T15:17:28Z</time>
      </trkpt>
      <trkpt lat="46.32965" lon="-1.12285">
        <ele>2.4</ele>
        <time>2020-06-02T15:17:29Z</time>
      </trkpt>
      <trkpt lat="46.32966" lon="-1.12293">
        <ele>2.4</ele>
        <time>2020-06-02T15:17:30Z</time>
      </trkpt>
      <trkpt lat="46.32968" lon="-1.123">
        <ele>2.4</ele>
        <time>2020-06-02T15:17:31Z</time>
      </trkpt>
      <trkpt lat="46.3297" lon="-1.12307">
        <ele>2.4</ele>
        <time>2020-06-02T15:17:32Z</time>
      </trkpt>
      <trkpt lat="46.32972" lon="-1.12314">
        <ele>2.4</ele>
        <time>2020-06-02T15:17:33Z</time>
      </trkpt>
      <trkpt lat="46.32975" lon="-1.1232">
        <ele>2.4</ele>
        <time>2020-06-02T15:17:34Z</time>
      </trkpt>
      <trkpt lat="46.32978" lon="-1.12328">
        <ele>2.4</ele>
        <time>2020-06-02T15:17:35Z</time>
      </trkpt>
      <trkpt lat="46.32982" lon="-1.12335">
        <ele>2.4</ele>
        <time>2020-06-02T15:17:36Z</time>
      </trkpt>
      <trkpt lat="46.32986" lon="-1.1234">
        <ele>2.4</ele>
        <time>2020-06-02T15:17:37Z</time>
      </trkpt>
      <trkpt lat="46.32989" lon="-1.12346">
        <ele>2.4</ele>
        <time>2020-06-02T15:17:38Z</time>
      </trkpt>
      <trkpt lat="46.32993" lon="-1.12352">
        <ele>2.4</ele>
        <time>2020-06-02T15:17:39Z</time>
      </trkpt>
      <trkpt lat="46.32997" lon="-1.12358">
        <ele>2.4</ele>
        <time>2020-06-02T15:17:40Z</time>
      </trkpt>
      <trkpt lat="46.33001" lon="-1.12364">
        <ele>2.5</ele>
        <time>2020-06-02T15:17:41Z</time>
      </trkpt>
      <trkpt lat="46.33005" lon="-1.12369">
        <ele>2.5</ele>
        <time>2020-06-02T15:17:42Z</time>
      </trkpt>
      <trkpt lat="46.3301" lon="-1.12374">
        <ele>2.5</ele>
        <time>2020-06-02T15:17:43Z</time>
      </trkpt>
      <trkpt lat="46.33015" lon="-1.12381">
        <ele>2.5</ele>
        <time>2020-06-02T15:17:44Z</time>
      </trkpt>
      <trkpt lat="46.33019" lon="-1.12387">
        <ele>2.5</ele>
        <time>2020-06-02T15:17:45Z</time>
      </trkpt>
      <trkpt lat="46.33023" lon="-1.12393">
        <ele>2.5</ele>
        <time>2020-06-02T15:17:46Z</time>
      </trkpt>
      <trkpt lat="46.33027" lon="-1.12399">
        <ele>2.5</ele>
        <time>2020-06-02T15:17:47Z</time>
      </trkpt>
      <trkpt lat="46.33031" lon="-1.12406">
        <ele>2.5</ele>
        <time>2020-06-02T15:17:48Z</time>
      </trkpt>
      <trkpt lat="46.33035" lon="-1.12412">
        <ele>2.5</ele>
        <time>2020-06-02T15:17:49Z</time>
      </trkpt>
      <trkpt lat="46.33039" lon="-1.12419">
        <ele>2.5</ele>
        <time>2020-06-02T15:17:50Z</time>
      </trkpt>
      <trkpt lat="46.33043" lon="-1.12425">
        <ele>2.5</ele>
        <time>2020-06-02T15:17:51Z</time>
      </trkpt>
      <trkpt lat="46.33047" lon="-1.12432">
        <ele>2.5</ele>
        <time>2020-06-02T15:17:52Z</time>
      </trkpt>
      <trkpt lat="46.33051" lon="-1.12437">
        <ele>2.5</ele>
        <time>2020-06-02T15:17:53Z</time>
      </trkpt>
      <trkpt lat="46.33056" lon="-1.12445">
        <ele>2.5</ele>
        <time>2020-06-02T15:17:54Z</time>
      </trkpt>
      <trkpt lat="46.33061" lon="-1.1245">
        <ele>2.5</ele>
        <time>2020-06-02T15:17:55Z</time>
      </trkpt>
      <trkpt lat="46.33065" lon="-1.12456">
        <ele>2.5</ele>
        <time>2020-06-02T15:17:56Z</time>
      </trkpt>
      <trkpt lat="46.33069" lon="-1.12462">
        <ele>2.5</ele>
        <time>2020-06-02T15:17:57Z</time>
      </trkpt>
      <trkpt lat="46.33072" lon="-1.12469">
        <ele>2.5</ele>
        <time>2020-06-02T15:17:58Z</time>
      </trkpt>
      <trkpt lat="46.33076" lon="-1.12475">
        <ele>2.5</ele>
        <time>2020-06-02T15:17:59Z</time>
      </trkpt>
      <trkpt lat="46.3308" lon="-1.12481">
        <ele>2.5</ele>
        <time>2020-06-02T15:18:00Z</time>
      </trkpt>
      <trkpt lat="46.33083" lon="-1.12488">
        <ele>2.5</ele>
        <time>2020-06-02T15:18:01Z</time>
      </trkpt>
      <trkpt lat="46.33087" lon="-1.12493">
        <ele>2.5</ele>
        <time>2020-06-02T15:18:02Z</time>
      </trkpt>
      <trkpt lat="46.3309" lon="-1.12499">
        <ele>2.5</ele>
        <time>2020-06-02T15:18:03Z</time>
      </trkpt>
      <trkpt lat="46.33094" lon="-1.12505">
        <ele>2.5</ele>
        <time>2020-06-02T15:18:04Z</time>
      </trkpt>
      <trkpt lat="46.33098" lon="-1.12511">
        <ele>2.5</ele>
        <time>2020-06-02T15:18:05Z</time>
      </trkpt>
      <trkpt lat="46.33101" lon="-1.12516">
        <ele>2.5</ele>
        <time>2020-06-02T15:18:06Z</time>
      </trkpt>
      <trkpt lat="46.33105" lon="-1.12522">
        <ele>2.5</ele>
        <time>2020-06-02T15:18:07Z</time>
      </trkpt>
      <trkpt lat="46.33109" lon="-1.12528">
        <ele>2.5</ele>
        <time>2020-06-02T15:18:08Z</time>
      </trkpt>
      <trkpt lat="46.33113" lon="-1.12534">
        <ele>2.5</ele>
        <time>2020-06-02T15:18:09Z</time>
      </trkpt>
      <trkpt lat="46.33117" lon="-1.12541">
        <ele>2.5</ele>
        <time>2020-06-02T15:18:10Z</time>
      </trkpt>
      <trkpt lat="46.33121" lon="-1.12547">
        <ele>2.5</ele>
        <time>2020-06-02T15:18:11Z</time>
      </trkpt>
      <trkpt lat="46.33125" lon="-1.12554">
        <ele>2.5</ele>
        <time>2020-06-02T15:18:12Z</time>
      </trkpt>
      <trkpt lat="46.33128" lon="-1.1256">
        <ele>2.5</ele>
        <time>2020-06-02T15:18:13Z</time>
      </trkpt>
      <trkpt lat="46.33132" lon="-1.12566">
        <ele>2.5</ele>
        <time>2020-06-02T15:18:14Z</time>
      </trkpt>
      <trkpt lat="46.33136" lon="-1.12571">
        <ele>2.5</ele>
        <time>2020-06-02T15:18:15Z</time>
      </trkpt>
      <trkpt lat="46.3314" lon="-1.12576">
        <ele>2.5</ele>
        <time>2020-06-02T15:18:16Z</time>
      </trkpt>
      <trkpt lat="46.33145" lon="-1.12581">
        <ele>2.5</ele>
        <time>2020-06-02T15:18:17Z</time>
      </trkpt>
      <trkpt lat="46.33149" lon="-1.12586">
        <ele>2.5</ele>
        <time>2020-06-02T15:18:18Z</time>
      </trkpt>
      <trkpt lat="46.33154" lon="-1.12592">
        <ele>2.5</ele>
        <time>2020-06-02T15:18:19Z</time>
      </trkpt>
      <trkpt lat="46.33158" lon="-1.12597">
        <ele>2.5</ele>
        <time>2020-06-02T15:18:20Z</time>
      </trkpt>
      <trkpt lat="46.33162" lon="-1.12602">
        <ele>2.5</ele>
        <time>2020-06-02T15:18:21Z</time>
      </trkpt>
      <trkpt lat="46.33165" lon="-1.12608">
        <ele>2.5</ele>
        <time>2020-06-02T15:18:22Z</time>
      </trkpt>
      <trkpt lat="46.33169" lon="-1.12613">
        <ele>2.5</ele>
        <time>2020-06-02T15:18:23Z</time>
      </trkpt>
      <trkpt lat="46.33173" lon="-1.12618">
        <ele>2.5</ele>
        <time>2020-06-02T15:18:24Z</time>
      </trkpt>
      <trkpt lat="46.33176" lon="-1.12624">
        <ele>2.4</ele>
        <time>2020-06-02T15:18:25Z</time>
      </trkpt>
      <trkpt lat="46.3318" lon="-1.1263">
        <ele>2.4</ele>
        <time>2020-06-02T15:18:26Z</time>
      </trkpt>
      <trkpt lat="46.33184" lon="-1.12637">
        <ele>2.4</ele>
        <time>2020-06-02T15:18:27Z</time>
      </trkpt>
      <trkpt lat="46.33188" lon="-1.12643">
        <ele>2.4</ele>
        <time>2020-06-02T15:18:28Z</time>
      </trkpt>
      <trkpt lat="46.33191" lon="-1.12649">
        <ele>2.4</ele>
        <time>2020-06-02T15:18:29Z</time>
      </trkpt>
      <trkpt lat="46.33195" lon="-1.12655">
        <ele>2.4</ele>
        <time>2020-06-02T15:18:30Z</time>
      </trkpt>
      <trkpt lat="46.33199" lon="-1.12662">
        <ele>2.4</ele>
        <time>2020-06-02T15:18:31Z</time>
      </trkpt>
      <trkpt lat="46.33203" lon="-1.12668">
        <ele>2.4</ele>
        <time>2020-06-02T15:18:32Z</time>
      </trkpt>
      <trkpt lat="46.33207" lon="-1.12675">
        <ele>2.3</ele>
        <time>2020-06-02T15:18:33Z</time>
      </trkpt>
      <trkpt lat="46.33211" lon="-1.12682">
        <ele>2.3</ele>
        <time>2020-06-02T15:18:34Z</time>
      </trkpt>
      <trkpt lat="46.33215" lon="-1.12688">
        <ele>2.3</ele>
        <time>2020-06-02T15:18:35Z</time>
      </trkpt>
      <trkpt lat="46.3322" lon="-1.12693">
        <ele>2.3</ele>
        <time>2020-06-02T15:18:36Z</time>
      </trkpt>
      <trkpt lat="46.33224" lon="-1.127">
        <ele>2.3</ele>
        <time>2020-06-02T15:18:37Z</time>
      </trkpt>
      <trkpt lat="46.33227" lon="-1.12705">
        <ele>2.3</ele>
        <time>2020-06-02T15:18:38Z</time>
      </trkpt>
      <trkpt lat="46.33231" lon="-1.12711">
        <ele>2.3</ele>
        <time>2020-06-02T15:18:39Z</time>
      </trkpt>
      <trkpt lat="46.33235" lon="-1.12715">
        <ele>2.3</ele>
        <time>2020-06-02T15:18:40Z</time>
      </trkpt>
      <trkpt lat="46.33238" lon="-1.12719">
        <ele>2.3</ele>
        <time>2020-06-02T15:18:41Z</time>
      </trkpt>
      <trkpt lat="46.33241" lon="-1.12723">
        <ele>2.3</ele>
        <time>2020-06-02T15:18:42Z</time>
      </trkpt>
      <trkpt lat="46.33244" lon="-1.12728">
        <ele>2.3</ele>
        <time>2020-06-02T15:18:43Z</time>
      </trkpt>
      <trkpt lat="46.33247" lon="-1.12733">
        <ele>2.3</ele>
        <time>2020-06-02T15:18:44Z</time>
      </trkpt>
      <trkpt lat="46.33251" lon="-1.12739">
        <ele>2.3</ele>
        <time>2020-06-02T15:18:45Z</time>
      </trkpt>
      <trkpt lat="46.33255" lon="-1.12746">
        <ele>2.4</ele>
        <time>2020-06-02T15:18:46Z</time>
      </trkpt>
      <trkpt lat="46.33259" lon="-1.12751">
        <ele>2.4</ele>
        <time>2020-06-02T15:18:47Z</time>
      </trkpt>
      <trkpt lat="46.33262" lon="-1.12757">
        <ele>2.4</ele>
        <time>2020-06-02T15:18:48Z</time>
      </trkpt>
      <trkpt lat="46.33266" lon="-1.12763">
        <ele>2.4</ele>
        <time>2020-06-02T15:18:49Z</time>
      </trkpt>
      <trkpt lat="46.33271" lon="-1.12771">
        <ele>2.4</ele>
        <time>2020-06-02T15:18:50Z</time>
      </trkpt>
      <trkpt lat="46.33276" lon="-1.12779">
        <ele>2.4</ele>
        <time>2020-06-02T15:18:51Z</time>
      </trkpt>
      <trkpt lat="46.3328" lon="-1.12786">
        <ele>2.4</ele>
        <time>2020-06-02T15:18:52Z</time>
      </trkpt>
      <trkpt lat="46.33284" lon="-1.12792">
        <ele>2.4</ele>
        <time>2020-06-02T15:18:53Z</time>
      </trkpt>
      <trkpt lat="46.33287" lon="-1.12798">
        <ele>2.4</ele>
        <time>2020-06-02T15:18:54Z</time>
      </trkpt>
      <trkpt lat="46.3329" lon="-1.12803">
        <ele>2.4</ele>
        <time>2020-06-02T15:18:55Z</time>
      </trkpt>
      <trkpt lat="46.33293" lon="-1.12807">
        <ele>2.4</ele>
        <time>2020-06-02T15:18:56Z</time>
      </trkpt>
      <trkpt lat="46.33296" lon="-1.12811">
        <ele>2.4</ele>
        <time>2020-06-02T15:18:57Z</time>
      </trkpt>
      <trkpt lat="46.33299" lon="-1.12815">
        <ele>2.4</ele>
        <time>2020-06-02T15:18:58Z</time>
      </trkpt>
      <trkpt lat="46.33302" lon="-1.12819">
        <ele>2.4</ele>
        <time>2020-06-02T15:18:59Z</time>
      </trkpt>
      <trkpt lat="46.33305" lon="-1.12823">
        <ele>2.4</ele>
        <time>2020-06-02T15:19:00Z</time>
      </trkpt>
      <trkpt lat="46.33308" lon="-1.12829">
        <ele>2.4</ele>
        <time>2020-06-02T15:19:01Z</time>
      </trkpt>
      <trkpt lat="46.33312" lon="-1.12834">
        <ele>2.4</ele>
        <time>2020-06-02T15:19:02Z</time>
      </trkpt>
      <trkpt lat="46.33315" lon="-1.1284">
        <ele>2.4</ele>
        <time>2020-06-02T15:19:03Z</time>
      </trkpt>
      <trkpt lat="46.33318" lon="-1.12846">
        <ele>2.4</ele>
        <time>2020-06-02T15:19:04Z</time>
      </trkpt>
      <trkpt lat="46.33322" lon="-1.12852">
        <ele>2.4</ele>
        <time>2020-06-02T15:19:05Z</time>
      </trkpt>
      <trkpt lat="46.33325" lon="-1.12857">
        <ele>2.4</ele>
        <time>2020-06-02T15:19:06Z</time>
      </trkpt>
      <trkpt lat="46.33329" lon="-1.12862">
        <ele>2.4</ele>
        <time>2020-06-02T15:19:07Z</time>
      </trkpt>
      <trkpt lat="46.33332" lon="-1.12866">
        <ele>2.4</ele>
        <time>2020-06-02T15:19:08Z</time>
      </trkpt>
      <trkpt lat="46.33337" lon="-1.12871">
        <ele>2.4</ele>
        <time>2020-06-02T15:19:09Z</time>
      </trkpt>
      <trkpt lat="46.33339" lon="-1.12875">
        <ele>2.4</ele>
        <time>2020-06-02T15:19:10Z</time>
      </trkpt>
      <trkpt lat="46.33342" lon="-1.12879">
        <ele>2.4</ele>
        <time>2020-06-02T15:19:11Z</time>
      </trkpt>
      <trkpt lat="46.33346" lon="-1.12885">
        <ele>2.4</ele>
        <time>2020-06-02T15:19:12Z</time>
      </trkpt>
      <trkpt lat="46.33349" lon="-1.1289">
        <ele>2.4</ele>
        <time>2020-06-02T15:19:13Z</time>
      </trkpt>
      <trkpt lat="46.33352" lon="-1.12895">
        <ele>2.4</ele>
        <time>2020-06-02T15:19:14Z</time>
      </trkpt>
      <trkpt lat="46.33356" lon="-1.12901">
        <ele>2.4</ele>
        <time>2020-06-02T15:19:15Z</time>
      </trkpt>
      <trkpt lat="46.33359" lon="-1.12906">
        <ele>2.4</ele>
        <time>2020-06-02T15:19:16Z</time>
      </trkpt>
      <trkpt lat="46.33363" lon="-1.12911">
        <ele>2.4</ele>
        <time>2020-06-02T15:19:17Z</time>
      </trkpt>
      <trkpt lat="46.33367" lon="-1.12918">
        <ele>2.4</ele>
        <time>2020-06-02T15:19:18Z</time>
      </trkpt>
      <trkpt lat="46.33371" lon="-1.12924">
        <ele>2.4</ele>
        <time>2020-06-02T15:19:19Z</time>
      </trkpt>
      <trkpt lat="46.33376" lon="-1.1293">
        <ele>2.4</ele>
        <time>2020-06-02T15:19:20Z</time>
      </trkpt>
      <trkpt lat="46.3338" lon="-1.12936">
        <ele>2.4</ele>
        <time>2020-06-02T15:19:21Z</time>
      </trkpt>
      <trkpt lat="46.33383" lon="-1.12943">
        <ele>2.4</ele>
        <time>2020-06-02T15:19:22Z</time>
      </trkpt>
      <trkpt lat="46.33386" lon="-1.12947">
        <ele>2.4</ele>
        <time>2020-06-02T15:19:23Z</time>
      </trkpt>
      <trkpt lat="46.33388" lon="-1.12953">
        <ele>2.4</ele>
        <time>2020-06-02T15:19:24Z</time>
      </trkpt>
      <trkpt lat="46.33391" lon="-1.12957">
        <ele>2.4</ele>
        <time>2020-06-02T15:19:25Z</time>
      </trkpt>
      <trkpt lat="46.33394" lon="-1.12963">
        <ele>2.4</ele>
        <time>2020-06-02T15:19:26Z</time>
      </trkpt>
      <trkpt lat="46.33398" lon="-1.12969">
        <ele>2.4</ele>
        <time>2020-06-02T15:19:27Z</time>
      </trkpt>
      <trkpt lat="46.33401" lon="-1.12974">
        <ele>2.4</ele>
        <time>2020-06-02T15:19:28Z</time>
      </trkpt>
      <trkpt lat="46.33404" lon="-1.12979">
        <ele>2.4</ele>
        <time>2020-06-02T15:19:29Z</time>
      </trkpt>
      <trkpt lat="46.33408" lon="-1.12985">
        <ele>2.4</ele>
        <time>2020-06-02T15:19:30Z</time>
      </trkpt>
      <trkpt lat="46.33411" lon="-1.12992">
        <ele>2.4</ele>
        <time>2020-06-02T15:19:31Z</time>
      </trkpt>
      <trkpt lat="46.33415" lon="-1.12996">
        <ele>2.4</ele>
        <time>2020-06-02T15:19:32Z</time>
      </trkpt>
      <trkpt lat="46.33418" lon="-1.13003">
        <ele>2.4</ele>
        <time>2020-06-02T15:19:33Z</time>
      </trkpt>
      <trkpt lat="46.33422" lon="-1.13008">
        <ele>2.4</ele>
        <time>2020-06-02T15:19:34Z</time>
      </trkpt>
      <trkpt lat="46.33426" lon="-1.13013">
        <ele>2.4</ele>
        <time>2020-06-02T15:19:35Z</time>
      </trkpt>
      <trkpt lat="46.33429" lon="-1.1302">
        <ele>2.4</ele>
        <time>2020-06-02T15:19:36Z</time>
      </trkpt>
      <trkpt lat="46.33432" lon="-1.13026">
        <ele>2.4</ele>
        <time>2020-06-02T15:19:37Z</time>
      </trkpt>
      <trkpt lat="46.33436" lon="-1.13031">
        <ele>2.4</ele>
        <time>2020-06-02T15:19:38Z</time>
      </trkpt>
      <trkpt lat="46.3344" lon="-1.13036">
        <ele>2.4</ele>
        <time>2020-06-02T15:19:39Z</time>
      </trkpt>
      <trkpt lat="46.33444" lon="-1.13041">
        <ele>2.4</ele>
        <time>2020-06-02T15:19:40Z</time>
      </trkpt>
      <trkpt lat="46.33448" lon="-1.13047">
        <ele>2.4</ele>
        <time>2020-06-02T15:19:41Z</time>
      </trkpt>
      <trkpt lat="46.33452" lon="-1.13053">
        <ele>2.4</ele>
        <time>2020-06-02T15:19:42Z</time>
      </trkpt>
      <trkpt lat="46.33456" lon="-1.1306">
        <ele>2.4</ele>
        <time>2020-06-02T15:19:43Z</time>
      </trkpt>
      <trkpt lat="46.3346" lon="-1.13064">
        <ele>2.4</ele>
        <time>2020-06-02T15:19:44Z</time>
      </trkpt>
      <trkpt lat="46.33465" lon="-1.1307">
        <ele>2.4</ele>
        <time>2020-06-02T15:19:45Z</time>
      </trkpt>
      <trkpt lat="46.33469" lon="-1.13075">
        <ele>2.4</ele>
        <time>2020-06-02T15:19:46Z</time>
      </trkpt>
      <trkpt lat="46.33473" lon="-1.13081">
        <ele>2.4</ele>
        <time>2020-06-02T15:19:47Z</time>
      </trkpt>
      <trkpt lat="46.33476" lon="-1.13088">
        <ele>2.4</ele>
        <time>2020-06-02T15:19:48Z</time>
      </trkpt>
      <trkpt lat="46.3348" lon="-1.13094">
        <ele>2.4</ele>
        <time>2020-06-02T15:19:49Z</time>
      </trkpt>
      <trkpt lat="46.33484" lon="-1.13098">
        <ele>2.4</ele>
        <time>2020-06-02T15:19:50Z</time>
      </trkpt>
      <trkpt lat="46.33488" lon="-1.13104">
        <ele>2.4</ele>
        <time>2020-06-02T15:19:51Z</time>
      </trkpt>
      <trkpt lat="46.33492" lon="-1.13109">
        <ele>2.4</ele>
        <time>2020-06-02T15:19:52Z</time>
      </trkpt>
      <trkpt lat="46.33495" lon="-1.13115">
        <ele>2.4</ele>
        <time>2020-06-02T15:19:53Z</time>
      </trkpt>
      <trkpt lat="46.335" lon="-1.1312">
        <ele>2.4</ele>
        <time>2020-06-02T15:19:54Z</time>
      </trkpt>
      <trkpt lat="46.33504" lon="-1.13127">
        <ele>2.4</ele>
        <time>2020-06-02T15:19:55Z</time>
      </trkpt>
      <trkpt lat="46.33508" lon="-1.13133">
        <ele>2.4</ele>
        <time>2020-06-02T15:19:56Z</time>
      </trkpt>
      <trkpt lat="46.33512" lon="-1.13138">
        <ele>2.4</ele>
        <time>2020-06-02T15:19:57Z</time>
      </trkpt>
      <trkpt lat="46.33516" lon="-1.13144">
        <ele>2.4</ele>
        <time>2020-06-02T15:19:58Z</time>
      </trkpt>
      <trkpt lat="46.3352" lon="-1.13151">
        <ele>2.4</ele>
        <time>2020-06-02T15:19:59Z</time>
      </trkpt>
      <trkpt lat="46.33524" lon="-1.13157">
        <ele>2.4</ele>
        <time>2020-06-02T15:20:00Z</time>
      </trkpt>
      <trkpt lat="46.33528" lon="-1.13163">
        <ele>2.4</ele>
        <time>2020-06-02T15:20:01Z</time>
      </trkpt>
      <trkpt lat="46.33531" lon="-1.13169">
        <ele>2.4</ele>
        <time>2020-06-02T15:20:02Z</time>
      </trkpt>
      <trkpt lat="46.33535" lon="-1.13176">
        <ele>2.4</ele>
        <time>2020-06-02T15:20:03Z</time>
      </trkpt>
      <trkpt lat="46.33538" lon="-1.13182">
        <ele>2.4</ele>
        <time>2020-06-02T15:20:04Z</time>
      </trkpt>
      <trkpt lat="46.33542" lon="-1.13189">
        <ele>2.4</ele>
        <time>2020-06-02T15:20:05Z</time>
      </trkpt>
      <trkpt lat="46.33547" lon="-1.13197">
        <ele>2.4</ele>
        <time>2020-06-02T15:20:06Z</time>
      </trkpt>
      <trkpt lat="46.33551" lon="-1.13203">
        <ele>2.4</ele>
        <time>2020-06-02T15:20:07Z</time>
      </trkpt>
      <trkpt lat="46.33554" lon="-1.13208">
        <ele>2.4</ele>
        <time>2020-06-02T15:20:08Z</time>
      </trkpt>
      <trkpt lat="46.33558" lon="-1.13214">
        <ele>2.4</ele>
        <time>2020-06-02T15:20:09Z</time>
      </trkpt>
      <trkpt lat="46.33562" lon="-1.13219">
        <ele>2.4</ele>
        <time>2020-06-02T15:20:10Z</time>
      </trkpt>
      <trkpt lat="46.33565" lon="-1.13225">
        <ele>2.4</ele>
        <time>2020-06-02T15:20:11Z</time>
      </trkpt>
      <trkpt lat="46.33569" lon="-1.13232">
        <ele>2.4</ele>
        <time>2020-06-02T15:20:12Z</time>
      </trkpt>
      <trkpt lat="46.33573" lon="-1.13239">
        <ele>2.4</ele>
        <time>2020-06-02T15:20:13Z</time>
      </trkpt>
      <trkpt lat="46.33576" lon="-1.13245">
        <ele>2.4</ele>
        <time>2020-06-02T15:20:14Z</time>
      </trkpt>
      <trkpt lat="46.3358" lon="-1.1325">
        <ele>2.4</ele>
        <time>2020-06-02T15:20:15Z</time>
      </trkpt>
      <trkpt lat="46.33583" lon="-1.13254">
        <ele>2.4</ele>
        <time>2020-06-02T15:20:16Z</time>
      </trkpt>
      <trkpt lat="46.33588" lon="-1.1326">
        <ele>2.4</ele>
        <time>2020-06-02T15:20:17Z</time>
      </trkpt>
      <trkpt lat="46.33591" lon="-1.13266">
        <ele>2.4</ele>
        <time>2020-06-02T15:20:18Z</time>
      </trkpt>
      <trkpt lat="46.33596" lon="-1.13271">
        <ele>2.3</ele>
        <time>2020-06-02T15:20:19Z</time>
      </trkpt>
      <trkpt lat="46.336" lon="-1.13278">
        <ele>2.3</ele>
        <time>2020-06-02T15:20:20Z</time>
      </trkpt>
      <trkpt lat="46.33605" lon="-1.13284">
        <ele>2.3</ele>
        <time>2020-06-02T15:20:21Z</time>
      </trkpt>
      <trkpt lat="46.33608" lon="-1.1329">
        <ele>2.3</ele>
        <time>2020-06-02T15:20:22Z</time>
      </trkpt>
      <trkpt lat="46.33613" lon="-1.13297">
        <ele>2.3</ele>
        <time>2020-06-02T15:20:23Z</time>
      </trkpt>
      <trkpt lat="46.33617" lon="-1.13305">
        <ele>2.3</ele>
        <time>2020-06-02T15:20:24Z</time>
      </trkpt>
      <trkpt lat="46.33621" lon="-1.13311">
        <ele>2.3</ele>
        <time>2020-06-02T15:20:25Z</time>
      </trkpt>
      <trkpt lat="46.33624" lon="-1.13316">
        <ele>2.3</ele>
        <time>2020-06-02T15:20:26Z</time>
      </trkpt>
      <trkpt lat="46.33627" lon="-1.13322">
        <ele>2.3</ele>
        <time>2020-06-02T15:20:27Z</time>
      </trkpt>
      <trkpt lat="46.3363" lon="-1.13326">
        <ele>2.3</ele>
        <time>2020-06-02T15:20:28Z</time>
      </trkpt>
      <trkpt lat="46.33634" lon="-1.13333">
        <ele>2.3</ele>
        <time>2020-06-02T15:20:29Z</time>
      </trkpt>
      <trkpt lat="46.33638" lon="-1.13339">
        <ele>2.3</ele>
        <time>2020-06-02T15:20:30Z</time>
      </trkpt>
      <trkpt lat="46.33641" lon="-1.13343">
        <ele>2.3</ele>
        <time>2020-06-02T15:20:31Z</time>
      </trkpt>
      <trkpt lat="46.33645" lon="-1.1335">
        <ele>2.3</ele>
        <time>2020-06-02T15:20:32Z</time>
      </trkpt>
      <trkpt lat="46.33649" lon="-1.13356">
        <ele>2.2</ele>
        <time>2020-06-02T15:20:33Z</time>
      </trkpt>
      <trkpt lat="46.33652" lon="-1.13362">
        <ele>2.2</ele>
        <time>2020-06-02T15:20:34Z</time>
      </trkpt>
      <trkpt lat="46.33657" lon="-1.13368">
        <ele>2.2</ele>
        <time>2020-06-02T15:20:35Z</time>
      </trkpt>
      <trkpt lat="46.33661" lon="-1.13373">
        <ele>2.2</ele>
        <time>2020-06-02T15:20:36Z</time>
      </trkpt>
      <trkpt lat="46.33665" lon="-1.13379">
        <ele>2.2</ele>
        <time>2020-06-02T15:20:37Z</time>
      </trkpt>
      <trkpt lat="46.33669" lon="-1.13386">
        <ele>2.2</ele>
        <time>2020-06-02T15:20:38Z</time>
      </trkpt>
      <trkpt lat="46.33674" lon="-1.13393">
        <ele>2.1</ele>
        <time>2020-06-02T15:20:39Z</time>
      </trkpt>
      <trkpt lat="46.33677" lon="-1.13399">
        <ele>2.1</ele>
        <time>2020-06-02T15:20:40Z</time>
      </trkpt>
      <trkpt lat="46.33681" lon="-1.13406">
        <ele>2.1</ele>
        <time>2020-06-02T15:20:41Z</time>
      </trkpt>
      <trkpt lat="46.33685" lon="-1.13414">
        <ele>2.1</ele>
        <time>2020-06-02T15:20:42Z</time>
      </trkpt>
      <trkpt lat="46.33689" lon="-1.13419">
        <ele>2.1</ele>
        <time>2020-06-02T15:20:43Z</time>
      </trkpt>
      <trkpt lat="46.33693" lon="-1.13424">
        <ele>2</ele>
        <time>2020-06-02T15:20:44Z</time>
      </trkpt>
      <trkpt lat="46.33697" lon="-1.1343">
        <ele>2</ele>
        <time>2020-06-02T15:20:45Z</time>
      </trkpt>
      <trkpt lat="46.33702" lon="-1.13437">
        <ele>2</ele>
        <time>2020-06-02T15:20:46Z</time>
      </trkpt>
      <trkpt lat="46.33706" lon="-1.13443">
        <ele>2</ele>
        <time>2020-06-02T15:20:47Z</time>
      </trkpt>
      <trkpt lat="46.33709" lon="-1.13448">
        <ele>2</ele>
        <time>2020-06-02T15:20:48Z</time>
      </trkpt>
      <trkpt lat="46.33713" lon="-1.13454">
        <ele>2</ele>
        <time>2020-06-02T15:20:49Z</time>
      </trkpt>
      <trkpt lat="46.33716" lon="-1.13459">
        <ele>2</ele>
        <time>2020-06-02T15:20:50Z</time>
      </trkpt>
      <trkpt lat="46.3372" lon="-1.13465">
        <ele>2</ele>
        <time>2020-06-02T15:20:51Z</time>
      </trkpt>
      <trkpt lat="46.33723" lon="-1.1347">
        <ele>2</ele>
        <time>2020-06-02T15:20:52Z</time>
      </trkpt>
      <trkpt lat="46.33726" lon="-1.13475">
        <ele>2</ele>
        <time>2020-06-02T15:20:53Z</time>
      </trkpt>
      <trkpt lat="46.3373" lon="-1.1348">
        <ele>2.1</ele>
        <time>2020-06-02T15:20:54Z</time>
      </trkpt>
      <trkpt lat="46.33733" lon="-1.13485">
        <ele>2.1</ele>
        <time>2020-06-02T15:20:55Z</time>
      </trkpt>
      <trkpt lat="46.33735" lon="-1.13489">
        <ele>2.1</ele>
        <time>2020-06-02T15:20:56Z</time>
      </trkpt>
      <trkpt lat="46.33738" lon="-1.13493">
        <ele>2.1</ele>
        <time>2020-06-02T15:20:57Z</time>
      </trkpt>
      <trkpt lat="46.3374" lon="-1.13497">
        <ele>2.1</ele>
        <time>2020-06-02T15:20:58Z</time>
      </trkpt>
      <trkpt lat="46.33742" lon="-1.135">
        <ele>2.1</ele>
        <time>2020-06-02T15:20:59Z</time>
      </trkpt>
      <trkpt lat="46.33743" lon="-1.13503">
        <ele>2.1</ele>
        <time>2020-06-02T15:21:00Z</time>
      </trkpt>
      <trkpt lat="46.33744" lon="-1.13505">
        <ele>2.1</ele>
        <time>2020-06-02T15:21:01Z</time>
      </trkpt>
      <trkpt lat="46.33747" lon="-1.13509">
        <ele>2.1</ele>
        <time>2020-06-02T15:21:02Z</time>
      </trkpt>
      <trkpt lat="46.3375" lon="-1.13513">
        <ele>2.2</ele>
        <time>2020-06-02T15:21:03Z</time>
      </trkpt>
      <trkpt lat="46.33753" lon="-1.13518">
        <ele>2.2</ele>
        <time>2020-06-02T15:21:04Z</time>
      </trkpt>
      <trkpt lat="46.33756" lon="-1.13523">
        <ele>2.2</ele>
        <time>2020-06-02T15:21:05Z</time>
      </trkpt>
      <trkpt lat="46.3376" lon="-1.13529">
        <ele>2.2</ele>
        <time>2020-06-02T15:21:06Z</time>
      </trkpt>
      <trkpt lat="46.33763" lon="-1.13536">
        <ele>2.2</ele>
        <time>2020-06-02T15:21:07Z</time>
      </trkpt>
      <trkpt lat="46.33768" lon="-1.13541">
        <ele>2.3</ele>
        <time>2020-06-02T15:21:08Z</time>
      </trkpt>
      <trkpt lat="46.33771" lon="-1.13547">
        <ele>2.3</ele>
        <time>2020-06-02T15:21:09Z</time>
      </trkpt>
      <trkpt lat="46.33775" lon="-1.13553">
        <ele>2.3</ele>
        <time>2020-06-02T15:21:10Z</time>
      </trkpt>
      <trkpt lat="46.33778" lon="-1.13558">
        <ele>2.4</ele>
        <time>2020-06-02T15:21:11Z</time>
      </trkpt>
      <trkpt lat="46.33782" lon="-1.13565">
        <ele>2.4</ele>
        <time>2020-06-02T15:21:12Z</time>
      </trkpt>
      <trkpt lat="46.33786" lon="-1.13572">
        <ele>2.4</ele>
        <time>2020-06-02T15:21:13Z</time>
      </trkpt>
      <trkpt lat="46.33791" lon="-1.13579">
        <ele>2.4</ele>
        <time>2020-06-02T15:21:14Z</time>
      </trkpt>
      <trkpt lat="46.33795" lon="-1.13586">
        <ele>2.5</ele>
        <time>2020-06-02T15:21:15Z</time>
      </trkpt>
      <trkpt lat="46.338" lon="-1.13593">
        <ele>2.5</ele>
        <time>2020-06-02T15:21:16Z</time>
      </trkpt>
      <trkpt lat="46.33804" lon="-1.13601">
        <ele>2.5</ele>
        <time>2020-06-02T15:21:17Z</time>
      </trkpt>
      <trkpt lat="46.33809" lon="-1.1361">
        <ele>2.5</ele>
        <time>2020-06-02T15:21:18Z</time>
      </trkpt>
      <trkpt lat="46.33815" lon="-1.13617">
        <ele>2.5</ele>
        <time>2020-06-02T15:21:19Z</time>
      </trkpt>
      <trkpt lat="46.3382" lon="-1.13626">
        <ele>2.5</ele>
        <time>2020-06-02T15:21:20Z</time>
      </trkpt>
      <trkpt lat="46.33826" lon="-1.13634">
        <ele>2.5</ele>
        <time>2020-06-02T15:21:21Z</time>
      </trkpt>
      <trkpt lat="46.33832" lon="-1.13642">
        <ele>2.5</ele>
        <time>2020-06-02T15:21:22Z</time>
      </trkpt>
      <trkpt lat="46.33837" lon="-1.1365">
        <ele>2.6</ele>
        <time>2020-06-02T15:21:23Z</time>
      </trkpt>
      <trkpt lat="46.33843" lon="-1.13659">
        <ele>2.6</ele>
        <time>2020-06-02T15:21:24Z</time>
      </trkpt>
      <trkpt lat="46.33849" lon="-1.13666">
        <ele>2.6</ele>
        <time>2020-06-02T15:21:25Z</time>
      </trkpt>
      <trkpt lat="46.33854" lon="-1.13675">
        <ele>2.6</ele>
        <time>2020-06-02T15:21:26Z</time>
      </trkpt>
      <trkpt lat="46.3386" lon="-1.13683">
        <ele>2.6</ele>
        <time>2020-06-02T15:21:27Z</time>
      </trkpt>
      <trkpt lat="46.33865" lon="-1.13691">
        <ele>2.6</ele>
        <time>2020-06-02T15:21:28Z</time>
      </trkpt>
      <trkpt lat="46.3387" lon="-1.13699">
        <ele>2.7</ele>
        <time>2020-06-02T15:21:29Z</time>
      </trkpt>
      <trkpt lat="46.33876" lon="-1.13708">
        <ele>2.7</ele>
        <time>2020-06-02T15:21:30Z</time>
      </trkpt>
      <trkpt lat="46.33881" lon="-1.13717">
        <ele>2.7</ele>
        <time>2020-06-02T15:21:31Z</time>
      </trkpt>
      <trkpt lat="46.33886" lon="-1.13726">
        <ele>2.7</ele>
        <time>2020-06-02T15:21:32Z</time>
      </trkpt>
      <trkpt lat="46.33892" lon="-1.13735">
        <ele>2.7</ele>
        <time>2020-06-02T15:21:33Z</time>
      </trkpt>
      <trkpt lat="46.33897" lon="-1.13745">
        <ele>2.8</ele>
        <time>2020-06-02T15:21:34Z</time>
      </trkpt>
      <trkpt lat="46.33902" lon="-1.13754">
        <ele>2.8</ele>
        <time>2020-06-02T15:21:35Z</time>
      </trkpt>
      <trkpt lat="46.33908" lon="-1.13762">
        <ele>2.8</ele>
        <time>2020-06-02T15:21:36Z</time>
      </trkpt>
      <trkpt lat="46.33914" lon="-1.1377">
        <ele>2.8</ele>
        <time>2020-06-02T15:21:37Z</time>
      </trkpt>
      <trkpt lat="46.3392" lon="-1.13778">
        <ele>2.9</ele>
        <time>2020-06-02T15:21:38Z</time>
      </trkpt>
      <trkpt lat="46.33926" lon="-1.13787">
        <ele>2.9</ele>
        <time>2020-06-02T15:21:39Z</time>
      </trkpt>
      <trkpt lat="46.33931" lon="-1.13795">
        <ele>2.9</ele>
        <time>2020-06-02T15:21:40Z</time>
      </trkpt>
      <trkpt lat="46.33936" lon="-1.13804">
        <ele>2.9</ele>
        <time>2020-06-02T15:21:41Z</time>
      </trkpt>
      <trkpt lat="46.33941" lon="-1.13812">
        <ele>2.9</ele>
        <time>2020-06-02T15:21:42Z</time>
      </trkpt>
      <trkpt lat="46.33947" lon="-1.1382">
        <ele>2.9</ele>
        <time>2020-06-02T15:21:43Z</time>
      </trkpt>
      <trkpt lat="46.33952" lon="-1.13828">
        <ele>2.9</ele>
        <time>2020-06-02T15:21:44Z</time>
      </trkpt>
      <trkpt lat="46.33956" lon="-1.13836">
        <ele>2.9</ele>
        <time>2020-06-02T15:21:45Z</time>
      </trkpt>
      <trkpt lat="46.33961" lon="-1.13843">
        <ele>2.9</ele>
        <time>2020-06-02T15:21:46Z</time>
      </trkpt>
      <trkpt lat="46.33966" lon="-1.1385">
        <ele>2.9</ele>
        <time>2020-06-02T15:21:47Z</time>
      </trkpt>
      <trkpt lat="46.33971" lon="-1.13855">
        <ele>2.9</ele>
        <time>2020-06-02T15:21:48Z</time>
      </trkpt>
      <trkpt lat="46.33975" lon="-1.13862">
        <ele>2.9</ele>
        <time>2020-06-02T15:21:49Z</time>
      </trkpt>
      <trkpt lat="46.33979" lon="-1.13868">
        <ele>2.9</ele>
        <time>2020-06-02T15:21:50Z</time>
      </trkpt>
      <trkpt lat="46.33982" lon="-1.13874">
        <ele>2.9</ele>
        <time>2020-06-02T15:21:51Z</time>
      </trkpt>
      <trkpt lat="46.33985" lon="-1.1388">
        <ele>2.9</ele>
        <time>2020-06-02T15:21:52Z</time>
      </trkpt>
      <trkpt lat="46.33988" lon="-1.13887">
        <ele>2.9</ele>
        <time>2020-06-02T15:21:53Z</time>
      </trkpt>
      <trkpt lat="46.33991" lon="-1.13893">
        <ele>2.9</ele>
        <time>2020-06-02T15:21:54Z</time>
      </trkpt>
      <trkpt lat="46.33995" lon="-1.13898">
        <ele>2.9</ele>
        <time>2020-06-02T15:21:55Z</time>
      </trkpt>
      <trkpt lat="46.33998" lon="-1.13904">
        <ele>2.9</ele>
        <time>2020-06-02T15:21:56Z</time>
      </trkpt>
      <trkpt lat="46.34001" lon="-1.13909">
        <ele>2.9</ele>
        <time>2020-06-02T15:21:57Z</time>
      </trkpt>
      <trkpt lat="46.34005" lon="-1.13913">
        <ele>2.9</ele>
        <time>2020-06-02T15:21:58Z</time>
      </trkpt>
      <trkpt lat="46.34009" lon="-1.13919">
        <ele>2.9</ele>
        <time>2020-06-02T15:21:59Z</time>
      </trkpt>
      <trkpt lat="46.34012" lon="-1.13924">
        <ele>2.9</ele>
        <time>2020-06-02T15:22:00Z</time>
      </trkpt>
      <trkpt lat="46.34015" lon="-1.13929">
        <ele>2.9</ele>
        <time>2020-06-02T15:22:01Z</time>
      </trkpt>
      <trkpt lat="46.34019" lon="-1.13934">
        <ele>2.9</ele>
        <time>2020-06-02T15:22:02Z</time>
      </trkpt>
      <trkpt lat="46.34022" lon="-1.1394">
        <ele>2.9</ele>
        <time>2020-06-02T15:22:03Z</time>
      </trkpt>
      <trkpt lat="46.34025" lon="-1.13944">
        <ele>2.9</ele>
        <time>2020-06-02T15:22:04Z</time>
      </trkpt>
      <trkpt lat="46.34029" lon="-1.13949">
        <ele>2.9</ele>
        <time>2020-06-02T15:22:05Z</time>
      </trkpt>
      <trkpt lat="46.34031" lon="-1.13954">
        <ele>2.9</ele>
        <time>2020-06-02T15:22:06Z</time>
      </trkpt>
      <trkpt lat="46.34034" lon="-1.13959">
        <ele>2.9</ele>
        <time>2020-06-02T15:22:07Z</time>
      </trkpt>
      <trkpt lat="46.34038" lon="-1.13965">
        <ele>2.9</ele>
        <time>2020-06-02T15:22:08Z</time>
      </trkpt>
      <trkpt lat="46.34041" lon="-1.13971">
        <ele>2.9</ele>
        <time>2020-06-02T15:22:09Z</time>
      </trkpt>
      <trkpt lat="46.34044" lon="-1.13977">
        <ele>2.9</ele>
        <time>2020-06-02T15:22:10Z</time>
      </trkpt>
      <trkpt lat="46.34048" lon="-1.13983">
        <ele>2.9</ele>
        <time>2020-06-02T15:22:11Z</time>
      </trkpt>
      <trkpt lat="46.34052" lon="-1.13988">
        <ele>2.9</ele>
        <time>2020-06-02T15:22:12Z</time>
      </trkpt>
      <trkpt lat="46.34055" lon="-1.13993">
        <ele>3</ele>
        <time>2020-06-02T15:22:13Z</time>
      </trkpt>
      <trkpt lat="46.34058" lon="-1.13998">
        <ele>3</ele>
        <time>2020-06-02T15:22:14Z</time>
      </trkpt>
      <trkpt lat="46.34061" lon="-1.14004">
        <ele>3</ele>
        <time>2020-06-02T15:22:15Z</time>
      </trkpt>
      <trkpt lat="46.34064" lon="-1.14009">
        <ele>3</ele>
        <time>2020-06-02T15:22:16Z</time>
      </trkpt>
      <trkpt lat="46.34067" lon="-1.14014">
        <ele>3</ele>
        <time>2020-06-02T15:22:17Z</time>
      </trkpt>
      <trkpt lat="46.3407" lon="-1.14019">
        <ele>3</ele>
        <time>2020-06-02T15:22:18Z</time>
      </trkpt>
      <trkpt lat="46.34073" lon="-1.14025">
        <ele>3</ele>
        <time>2020-06-02T15:22:19Z</time>
      </trkpt>
      <trkpt lat="46.34077" lon="-1.14029">
        <ele>3</ele>
        <time>2020-06-02T15:22:20Z</time>
      </trkpt>
      <trkpt lat="46.3408" lon="-1.14034">
        <ele>3</ele>
        <time>2020-06-02T15:22:21Z</time>
      </trkpt>
      <trkpt lat="46.34083" lon="-1.1404">
        <ele>3</ele>
        <time>2020-06-02T15:22:22Z</time>
      </trkpt>
      <trkpt lat="46.34086" lon="-1.14046">
        <ele>3</ele>
        <time>2020-06-02T15:22:23Z</time>
      </trkpt>
      <trkpt lat="46.34089" lon="-1.14052">
        <ele>3</ele>
        <time>2020-06-02T15:22:24Z</time>
      </trkpt>
      <trkpt lat="46.34093" lon="-1.14059">
        <ele>3</ele>
        <time>2020-06-02T15:22:25Z</time>
      </trkpt>
      <trkpt lat="46.34096" lon="-1.14066">
        <ele>3</ele>
        <time>2020-06-02T15:22:26Z</time>
      </trkpt>
      <trkpt lat="46.34099" lon="-1.14073">
        <ele>3</ele>
        <time>2020-06-02T15:22:27Z</time>
      </trkpt>
      <trkpt lat="46.34103" lon="-1.14079">
        <ele>3</ele>
        <time>2020-06-02T15:22:28Z</time>
      </trkpt>
      <trkpt lat="46.34106" lon="-1.14085">
        <ele>3</ele>
        <time>2020-06-02T15:22:29Z</time>
      </trkpt>
      <trkpt lat="46.34109" lon="-1.14092">
        <ele>3</ele>
        <time>2020-06-02T15:22:30Z</time>
      </trkpt>
      <trkpt lat="46.34112" lon="-1.14099">
        <ele>3</ele>
        <time>2020-06-02T15:22:31Z</time>
      </trkpt>
      <trkpt lat="46.34115" lon="-1.14106">
        <ele>3</ele>
        <time>2020-06-02T15:22:32Z</time>
      </trkpt>
      <trkpt lat="46.3412" lon="-1.14111">
        <ele>3</ele>
        <time>2020-06-02T15:22:33Z</time>
      </trkpt>
      <trkpt lat="46.34123" lon="-1.14117">
        <ele>3</ele>
        <time>2020-06-02T15:22:34Z</time>
      </trkpt>
      <trkpt lat="46.34126" lon="-1.14124">
        <ele>3</ele>
        <time>2020-06-02T15:22:35Z</time>
      </trkpt>
      <trkpt lat="46.34129" lon="-1.14131">
        <ele>3</ele>
        <time>2020-06-02T15:22:36Z</time>
      </trkpt>
      <trkpt lat="46.34132" lon="-1.14137">
        <ele>3</ele>
        <time>2020-06-02T15:22:37Z</time>
      </trkpt>
      <trkpt lat="46.34135" lon="-1.14144">
        <ele>3</ele>
        <time>2020-06-02T15:22:38Z</time>
      </trkpt>
      <trkpt lat="46.34137" lon="-1.14151">
        <ele>3</ele>
        <time>2020-06-02T15:22:39Z</time>
      </trkpt>
      <trkpt lat="46.3414" lon="-1.14157">
        <ele>3</ele>
        <time>2020-06-02T15:22:40Z</time>
      </trkpt>
      <trkpt lat="46.34142" lon="-1.14164">
        <ele>3</ele>
        <time>2020-06-02T15:22:41Z</time>
      </trkpt>
      <trkpt lat="46.34144" lon="-1.14171">
        <ele>3</ele>
        <time>2020-06-02T15:22:42Z</time>
      </trkpt>
      <trkpt lat="46.34147" lon="-1.14177">
        <ele>3</ele>
        <time>2020-06-02T15:22:43Z</time>
      </trkpt>
      <trkpt lat="46.3415" lon="-1.14182">
        <ele>3</ele>
        <time>2020-06-02T15:22:44Z</time>
      </trkpt>
      <trkpt lat="46.34152" lon="-1.14188">
        <ele>3</ele>
        <time>2020-06-02T15:22:45Z</time>
      </trkpt>
      <trkpt lat="46.34157" lon="-1.14192">
        <ele>3</ele>
        <time>2020-06-02T15:22:46Z</time>
      </trkpt>
      <trkpt lat="46.3416" lon="-1.14197">
        <ele>3</ele>
        <time>2020-06-02T15:22:47Z</time>
      </trkpt>
      <trkpt lat="46.34162" lon="-1.14203">
        <ele>3</ele>
        <time>2020-06-02T15:22:48Z</time>
      </trkpt>
      <trkpt lat="46.34165" lon="-1.14208">
        <ele>3</ele>
        <time>2020-06-02T15:22:49Z</time>
      </trkpt>
      <trkpt lat="46.34168" lon="-1.14213">
        <ele>3</ele>
        <time>2020-06-02T15:22:50Z</time>
      </trkpt>
      <trkpt lat="46.34171" lon="-1.14218">
        <ele>3</ele>
        <time>2020-06-02T15:22:51Z</time>
      </trkpt>
      <trkpt lat="46.34174" lon="-1.14222">
        <ele>3</ele>
        <time>2020-06-02T15:22:52Z</time>
      </trkpt>
      <trkpt lat="46.34177" lon="-1.14227">
        <ele>3</ele>
        <time>2020-06-02T15:22:53Z</time>
      </trkpt>
      <trkpt lat="46.3418" lon="-1.14232">
        <ele>3</ele>
        <time>2020-06-02T15:22:54Z</time>
      </trkpt>
      <trkpt lat="46.34183" lon="-1.14237">
        <ele>3</ele>
        <time>2020-06-02T15:22:55Z</time>
      </trkpt>
      <trkpt lat="46.34186" lon="-1.14242">
        <ele>3</ele>
        <time>2020-06-02T15:22:56Z</time>
      </trkpt>
      <trkpt lat="46.34188" lon="-1.14248">
        <ele>3</ele>
        <time>2020-06-02T15:22:57Z</time>
      </trkpt>
      <trkpt lat="46.3419" lon="-1.14254">
        <ele>3.1</ele>
        <time>2020-06-02T15:22:58Z</time>
      </trkpt>
      <trkpt lat="46.34193" lon="-1.14259">
        <ele>3.1</ele>
        <time>2020-06-02T15:22:59Z</time>
      </trkpt>
      <trkpt lat="46.34195" lon="-1.14264">
        <ele>3.1</ele>
        <time>2020-06-02T15:23:00Z</time>
      </trkpt>
      <trkpt lat="46.34198" lon="-1.14269">
        <ele>3.1</ele>
        <time>2020-06-02T15:23:01Z</time>
      </trkpt>
      <trkpt lat="46.342" lon="-1.14275">
        <ele>3.1</ele>
        <time>2020-06-02T15:23:02Z</time>
      </trkpt>
      <trkpt lat="46.34203" lon="-1.1428">
        <ele>3.1</ele>
        <time>2020-06-02T15:23:03Z</time>
      </trkpt>
      <trkpt lat="46.34205" lon="-1.14286">
        <ele>3.1</ele>
        <time>2020-06-02T15:23:04Z</time>
      </trkpt>
      <trkpt lat="46.34207" lon="-1.1429">
        <ele>3.1</ele>
        <time>2020-06-02T15:23:05Z</time>
      </trkpt>
      <trkpt lat="46.3421" lon="-1.14295">
        <ele>3.1</ele>
        <time>2020-06-02T15:23:06Z</time>
      </trkpt>
      <trkpt lat="46.34212" lon="-1.14301">
        <ele>3.1</ele>
        <time>2020-06-02T15:23:07Z</time>
      </trkpt>
      <trkpt lat="46.34214" lon="-1.14306">
        <ele>3.1</ele>
        <time>2020-06-02T15:23:08Z</time>
      </trkpt>
      <trkpt lat="46.34217" lon="-1.14312">
        <ele>3.1</ele>
        <time>2020-06-02T15:23:09Z</time>
      </trkpt>
      <trkpt lat="46.34219" lon="-1.14317">
        <ele>3.1</ele>
        <time>2020-06-02T15:23:10Z</time>
      </trkpt>
      <trkpt lat="46.34221" lon="-1.14323">
        <ele>3.1</ele>
        <time>2020-06-02T15:23:11Z</time>
      </trkpt>
      <trkpt lat="46.34224" lon="-1.14328">
        <ele>3.1</ele>
        <time>2020-06-02T15:23:12Z</time>
      </trkpt>
      <trkpt lat="46.34227" lon="-1.14333">
        <ele>3.1</ele>
        <time>2020-06-02T15:23:13Z</time>
      </trkpt>
      <trkpt lat="46.3423" lon="-1.14337">
        <ele>3</ele>
        <time>2020-06-02T15:23:14Z</time>
      </trkpt>
      <trkpt lat="46.34233" lon="-1.14342">
        <ele>3</ele>
        <time>2020-06-02T15:23:15Z</time>
      </trkpt>
      <trkpt lat="46.34236" lon="-1.14346">
        <ele>3</ele>
        <time>2020-06-02T15:23:16Z</time>
      </trkpt>
      <trkpt lat="46.34238" lon="-1.14352">
        <ele>3</ele>
        <time>2020-06-02T15:23:17Z</time>
      </trkpt>
      <trkpt lat="46.3424" lon="-1.14358">
        <ele>3</ele>
        <time>2020-06-02T15:23:18Z</time>
      </trkpt>
      <trkpt lat="46.34242" lon="-1.14363">
        <ele>3</ele>
        <time>2020-06-02T15:23:19Z</time>
      </trkpt>
      <trkpt lat="46.34244" lon="-1.14368">
        <ele>3</ele>
        <time>2020-06-02T15:23:20Z</time>
      </trkpt>
      <trkpt lat="46.34247" lon="-1.14373">
        <ele>3</ele>
        <time>2020-06-02T15:23:21Z</time>
      </trkpt>
      <trkpt lat="46.3425" lon="-1.14378">
        <ele>3</ele>
        <time>2020-06-02T15:23:22Z</time>
      </trkpt>
      <trkpt lat="46.34252" lon="-1.14384">
        <ele>3</ele>
        <time>2020-06-02T15:23:23Z</time>
      </trkpt>
      <trkpt lat="46.34256" lon="-1.14389">
        <ele>3</ele>
        <time>2020-06-02T15:23:24Z</time>
      </trkpt>
      <trkpt lat="46.34259" lon="-1.14393">
        <ele>3</ele>
        <time>2020-06-02T15:23:25Z</time>
      </trkpt>
      <trkpt lat="46.34262" lon="-1.144">
        <ele>3</ele>
        <time>2020-06-02T15:23:26Z</time>
      </trkpt>
      <trkpt lat="46.34264" lon="-1.14406">
        <ele>3</ele>
        <time>2020-06-02T15:23:27Z</time>
      </trkpt>
      <trkpt lat="46.34268" lon="-1.14412">
        <ele>3</ele>
        <time>2020-06-02T15:23:28Z</time>
      </trkpt>
      <trkpt lat="46.3427" lon="-1.14418">
        <ele>3</ele>
        <time>2020-06-02T15:23:29Z</time>
      </trkpt>
      <trkpt lat="46.34273" lon="-1.14424">
        <ele>3</ele>
        <time>2020-06-02T15:23:30Z</time>
      </trkpt>
      <trkpt lat="46.34276" lon="-1.1443">
        <ele>3</ele>
        <time>2020-06-02T15:23:31Z</time>
      </trkpt>
      <trkpt lat="46.34278" lon="-1.14436">
        <ele>3</ele>
        <time>2020-06-02T15:23:32Z</time>
      </trkpt>
      <trkpt lat="46.34281" lon="-1.14442">
        <ele>3</ele>
        <time>2020-06-02T15:23:33Z</time>
      </trkpt>
      <trkpt lat="46.34284" lon="-1.14447">
        <ele>3</ele>
        <time>2020-06-02T15:23:34Z</time>
      </trkpt>
      <trkpt lat="46.34288" lon="-1.14452">
        <ele>3</ele>
        <time>2020-06-02T15:23:35Z</time>
      </trkpt>
      <trkpt lat="46.34291" lon="-1.14458">
        <ele>3</ele>
        <time>2020-06-02T15:23:36Z</time>
      </trkpt>
      <trkpt lat="46.34294" lon="-1.14463">
        <ele>3</ele>
        <time>2020-06-02T15:23:37Z</time>
      </trkpt>
      <trkpt lat="46.34297" lon="-1.14468">
        <ele>3</ele>
        <time>2020-06-02T15:23:38Z</time>
      </trkpt>
      <trkpt lat="46.343" lon="-1.14473">
        <ele>3</ele>
        <time>2020-06-02T15:23:39Z</time>
      </trkpt>
      <trkpt lat="46.34303" lon="-1.14478">
        <ele>3</ele>
        <time>2020-06-02T15:23:40Z</time>
      </trkpt>
      <trkpt lat="46.34305" lon="-1.14484">
        <ele>3</ele>
        <time>2020-06-02T15:23:41Z</time>
      </trkpt>
      <trkpt lat="46.34307" lon="-1.14489">
        <ele>3</ele>
        <time>2020-06-02T15:23:42Z</time>
      </trkpt>
      <trkpt lat="46.3431" lon="-1.14495">
        <ele>3</ele>
        <time>2020-06-02T15:23:43Z</time>
      </trkpt>
      <trkpt lat="46.34312" lon="-1.14501">
        <ele>3</ele>
        <time>2020-06-02T15:23:44Z</time>
      </trkpt>
      <trkpt lat="46.34315" lon="-1.14506">
        <ele>3</ele>
        <time>2020-06-02T15:23:45Z</time>
      </trkpt>
      <trkpt lat="46.34318" lon="-1.14511">
        <ele>3</ele>
        <time>2020-06-02T15:23:46Z</time>
      </trkpt>
      <trkpt lat="46.34321" lon="-1.14516">
        <ele>3</ele>
        <time>2020-06-02T15:23:47Z</time>
      </trkpt>
      <trkpt lat="46.34324" lon="-1.14521">
        <ele>3.1</ele>
        <time>2020-06-02T15:23:48Z</time>
      </trkpt>
      <trkpt lat="46.34327" lon="-1.14526">
        <ele>3.1</ele>
        <time>2020-06-02T15:23:49Z</time>
      </trkpt>
      <trkpt lat="46.3433" lon="-1.14531">
        <ele>3.1</ele>
        <time>2020-06-02T15:23:50Z</time>
      </trkpt>
      <trkpt lat="46.34332" lon="-1.14537">
        <ele>3.1</ele>
        <time>2020-06-02T15:23:51Z</time>
      </trkpt>
      <trkpt lat="46.34335" lon="-1.14542">
        <ele>3.1</ele>
        <time>2020-06-02T15:23:52Z</time>
      </trkpt>
      <trkpt lat="46.34338" lon="-1.14547">
        <ele>3.1</ele>
        <time>2020-06-02T15:23:53Z</time>
      </trkpt>
      <trkpt lat="46.3434" lon="-1.14552">
        <ele>3.1</ele>
        <time>2020-06-02T15:23:54Z</time>
      </trkpt>
      <trkpt lat="46.34342" lon="-1.14558">
        <ele>3.1</ele>
        <time>2020-06-02T15:23:55Z</time>
      </trkpt>
      <trkpt lat="46.34345" lon="-1.14563">
        <ele>3.1</ele>
        <time>2020-06-02T15:23:56Z</time>
      </trkpt>
      <trkpt lat="46.34347" lon="-1.14568">
        <ele>3.1</ele>
        <time>2020-06-02T15:23:57Z</time>
      </trkpt>
      <trkpt lat="46.3435" lon="-1.14573">
        <ele>3.1</ele>
        <time>2020-06-02T15:23:58Z</time>
      </trkpt>
      <trkpt lat="46.34353" lon="-1.14579">
        <ele>3.1</ele>
        <time>2020-06-02T15:23:59Z</time>
      </trkpt>
      <trkpt lat="46.34356" lon="-1.14585">
        <ele>3.1</ele>
        <time>2020-06-02T15:24:00Z</time>
      </trkpt>
      <trkpt lat="46.34358" lon="-1.14591">
        <ele>3.1</ele>
        <time>2020-06-02T15:24:01Z</time>
      </trkpt>
      <trkpt lat="46.34361" lon="-1.14597">
        <ele>3.1</ele>
        <time>2020-06-02T15:24:02Z</time>
      </trkpt>
      <trkpt lat="46.34364" lon="-1.14602">
        <ele>3.1</ele>
        <time>2020-06-02T15:24:03Z</time>
      </trkpt>
      <trkpt lat="46.34367" lon="-1.14608">
        <ele>3.1</ele>
        <time>2020-06-02T15:24:04Z</time>
      </trkpt>
      <trkpt lat="46.34369" lon="-1.14614">
        <ele>3.1</ele>
        <time>2020-06-02T15:24:05Z</time>
      </trkpt>
      <trkpt lat="46.34372" lon="-1.14619">
        <ele>3.1</ele>
        <time>2020-06-02T15:24:06Z</time>
      </trkpt>
      <trkpt lat="46.34375" lon="-1.14625">
        <ele>3.1</ele>
        <time>2020-06-02T15:24:07Z</time>
      </trkpt>
      <trkpt lat="46.34378" lon="-1.14632">
        <ele>3.1</ele>
        <time>2020-06-02T15:24:08Z</time>
      </trkpt>
      <trkpt lat="46.34381" lon="-1.14637">
        <ele>3.1</ele>
        <time>2020-06-02T15:24:09Z</time>
      </trkpt>
      <trkpt lat="46.34384" lon="-1.14644">
        <ele>3.1</ele>
        <time>2020-06-02T15:24:10Z</time>
      </trkpt>
      <trkpt lat="46.34387" lon="-1.1465">
        <ele>3.1</ele>
        <time>2020-06-02T15:24:11Z</time>
      </trkpt>
      <trkpt lat="46.3439" lon="-1.14656">
        <ele>3.1</ele>
        <time>2020-06-02T15:24:12Z</time>
      </trkpt>
      <trkpt lat="46.34393" lon="-1.14662">
        <ele>3.1</ele>
        <time>2020-06-02T15:24:13Z</time>
      </trkpt>
      <trkpt lat="46.34396" lon="-1.14668">
        <ele>3.1</ele>
        <time>2020-06-02T15:24:14Z</time>
      </trkpt>
      <trkpt lat="46.34399" lon="-1.14675">
        <ele>3.1</ele>
        <time>2020-06-02T15:24:15Z</time>
      </trkpt>
      <trkpt lat="46.34402" lon="-1.14681">
        <ele>3.1</ele>
        <time>2020-06-02T15:24:16Z</time>
      </trkpt>
      <trkpt lat="46.34405" lon="-1.14687">
        <ele>3.1</ele>
        <time>2020-06-02T15:24:17Z</time>
      </trkpt>
      <trkpt lat="46.34408" lon="-1.14693">
        <ele>3.1</ele>
        <time>2020-06-02T15:24:18Z</time>
      </trkpt>
      <trkpt lat="46.34411" lon="-1.14699">
        <ele>3.1</ele>
        <time>2020-06-02T15:24:19Z</time>
      </trkpt>
      <trkpt lat="46.34414" lon="-1.14706">
        <ele>3.1</ele>
        <time>2020-06-02T15:24:20Z</time>
      </trkpt>
      <trkpt lat="46.34417" lon="-1.14711">
        <ele>3.1</ele>
        <time>2020-06-02T15:24:21Z</time>
      </trkpt>
      <trkpt lat="46.3442" lon="-1.14717">
        <ele>3.1</ele>
        <time>2020-06-02T15:24:22Z</time>
      </trkpt>
      <trkpt lat="46.34424" lon="-1.14722">
        <ele>3.1</ele>
        <time>2020-06-02T15:24:23Z</time>
      </trkpt>
      <trkpt lat="46.34427" lon="-1.14727">
        <ele>3.1</ele>
        <time>2020-06-02T15:24:24Z</time>
      </trkpt>
      <trkpt lat="46.34431" lon="-1.14732">
        <ele>3.1</ele>
        <time>2020-06-02T15:24:25Z</time>
      </trkpt>
      <trkpt lat="46.34433" lon="-1.14739">
        <ele>3.1</ele>
        <time>2020-06-02T15:24:26Z</time>
      </trkpt>
      <trkpt lat="46.34435" lon="-1.14745">
        <ele>3.1</ele>
        <time>2020-06-02T15:24:27Z</time>
      </trkpt>
      <trkpt lat="46.34438" lon="-1.14752">
        <ele>3.1</ele>
        <time>2020-06-02T15:24:28Z</time>
      </trkpt>
      <trkpt lat="46.34441" lon="-1.14758">
        <ele>3.1</ele>
        <time>2020-06-02T15:24:29Z</time>
      </trkpt>
      <trkpt lat="46.34444" lon="-1.14764">
        <ele>3.1</ele>
        <time>2020-06-02T15:24:30Z</time>
      </trkpt>
      <trkpt lat="46.34447" lon="-1.14771">
        <ele>3.1</ele>
        <time>2020-06-02T15:24:31Z</time>
      </trkpt>
      <trkpt lat="46.34451" lon="-1.14777">
        <ele>3.1</ele>
        <time>2020-06-02T15:24:32Z</time>
      </trkpt>
      <trkpt lat="46.34454" lon="-1.14783">
        <ele>3.1</ele>
        <time>2020-06-02T15:24:33Z</time>
      </trkpt>
      <trkpt lat="46.34458" lon="-1.14789">
        <ele>3.1</ele>
        <time>2020-06-02T15:24:34Z</time>
      </trkpt>
      <trkpt lat="46.34461" lon="-1.14796">
        <ele>3.1</ele>
        <time>2020-06-02T15:24:35Z</time>
      </trkpt>
      <trkpt lat="46.34464" lon="-1.14802">
        <ele>3.1</ele>
        <time>2020-06-02T15:24:36Z</time>
      </trkpt>
      <trkpt lat="46.34467" lon="-1.14808">
        <ele>3.1</ele>
        <time>2020-06-02T15:24:37Z</time>
      </trkpt>
      <trkpt lat="46.34469" lon="-1.14815">
        <ele>3.1</ele>
        <time>2020-06-02T15:24:38Z</time>
      </trkpt>
      <trkpt lat="46.34472" lon="-1.1482">
        <ele>3.1</ele>
        <time>2020-06-02T15:24:39Z</time>
      </trkpt>
      <trkpt lat="46.34475" lon="-1.14825">
        <ele>3.1</ele>
        <time>2020-06-02T15:24:40Z</time>
      </trkpt>
      <trkpt lat="46.34478" lon="-1.1483">
        <ele>3.1</ele>
        <time>2020-06-02T15:24:41Z</time>
      </trkpt>
      <trkpt lat="46.34481" lon="-1.14836">
        <ele>3.1</ele>
        <time>2020-06-02T15:24:42Z</time>
      </trkpt>
      <trkpt lat="46.34484" lon="-1.1484">
        <ele>3.1</ele>
        <time>2020-06-02T15:24:43Z</time>
      </trkpt>
      <trkpt lat="46.34487" lon="-1.14845">
        <ele>3.1</ele>
        <time>2020-06-02T15:24:44Z</time>
      </trkpt>
      <trkpt lat="46.34489" lon="-1.14851">
        <ele>3.1</ele>
        <time>2020-06-02T15:24:45Z</time>
      </trkpt>
      <trkpt lat="46.34492" lon="-1.14856">
        <ele>3.1</ele>
        <time>2020-06-02T15:24:46Z</time>
      </trkpt>
      <trkpt lat="46.34495" lon="-1.14862">
        <ele>3.1</ele>
        <time>2020-06-02T15:24:47Z</time>
      </trkpt>
      <trkpt lat="46.34497" lon="-1.14868">
        <ele>3.1</ele>
        <time>2020-06-02T15:24:48Z</time>
      </trkpt>
      <trkpt lat="46.345" lon="-1.14874">
        <ele>3.1</ele>
        <time>2020-06-02T15:24:49Z</time>
      </trkpt>
      <trkpt lat="46.34503" lon="-1.1488">
        <ele>3.1</ele>
        <time>2020-06-02T15:24:50Z</time>
      </trkpt>
      <trkpt lat="46.34506" lon="-1.14886">
        <ele>3.1</ele>
        <time>2020-06-02T15:24:51Z</time>
      </trkpt>
      <trkpt lat="46.34509" lon="-1.14892">
        <ele>3.1</ele>
        <time>2020-06-02T15:24:52Z</time>
      </trkpt>
      <trkpt lat="46.34512" lon="-1.14898">
        <ele>3.1</ele>
        <time>2020-06-02T15:24:53Z</time>
      </trkpt>
      <trkpt lat="46.34514" lon="-1.14904">
        <ele>3.1</ele>
        <time>2020-06-02T15:24:54Z</time>
      </trkpt>
      <trkpt lat="46.34518" lon="-1.1491">
        <ele>3.1</ele>
        <time>2020-06-02T15:24:55Z</time>
      </trkpt>
      <trkpt lat="46.34521" lon="-1.14916">
        <ele>3.1</ele>
        <time>2020-06-02T15:24:56Z</time>
      </trkpt>
      <trkpt lat="46.34524" lon="-1.14922">
        <ele>3.1</ele>
        <time>2020-06-02T15:24:57Z</time>
      </trkpt>
      <trkpt lat="46.34527" lon="-1.14927">
        <ele>3.1</ele>
        <time>2020-06-02T15:24:58Z</time>
      </trkpt>
      <trkpt lat="46.3453" lon="-1.14933">
        <ele>3.1</ele>
        <time>2020-06-02T15:24:59Z</time>
      </trkpt>
      <trkpt lat="46.34534" lon="-1.14939">
        <ele>3.1</ele>
        <time>2020-06-02T15:25:00Z</time>
      </trkpt>
      <trkpt lat="46.34538" lon="-1.14945">
        <ele>3.1</ele>
        <time>2020-06-02T15:25:01Z</time>
      </trkpt>
      <trkpt lat="46.34541" lon="-1.14952">
        <ele>3.1</ele>
        <time>2020-06-02T15:25:02Z</time>
      </trkpt>
      <trkpt lat="46.34545" lon="-1.14958">
        <ele>3.1</ele>
        <time>2020-06-02T15:25:03Z</time>
      </trkpt>
      <trkpt lat="46.34547" lon="-1.14966">
        <ele>3.2</ele>
        <time>2020-06-02T15:25:04Z</time>
      </trkpt>
      <trkpt lat="46.34551" lon="-1.14972">
        <ele>3.2</ele>
        <time>2020-06-02T15:25:05Z</time>
      </trkpt>
      <trkpt lat="46.34554" lon="-1.14979">
        <ele>3.2</ele>
        <time>2020-06-02T15:25:06Z</time>
      </trkpt>
      <trkpt lat="46.34557" lon="-1.14986">
        <ele>3.2</ele>
        <time>2020-06-02T15:25:07Z</time>
      </trkpt>
      <trkpt lat="46.34561" lon="-1.14993">
        <ele>3.2</ele>
        <time>2020-06-02T15:25:08Z</time>
      </trkpt>
      <trkpt lat="46.34564" lon="-1.14999">
        <ele>3.2</ele>
        <time>2020-06-02T15:25:09Z</time>
      </trkpt>
      <trkpt lat="46.34566" lon="-1.15006">
        <ele>3.2</ele>
        <time>2020-06-02T15:25:10Z</time>
      </trkpt>
      <trkpt lat="46.34569" lon="-1.15013">
        <ele>3.2</ele>
        <time>2020-06-02T15:25:11Z</time>
      </trkpt>
      <trkpt lat="46.34572" lon="-1.15019">
        <ele>3.2</ele>
        <time>2020-06-02T15:25:12Z</time>
      </trkpt>
      <trkpt lat="46.34575" lon="-1.15025">
        <ele>3.2</ele>
        <time>2020-06-02T15:25:13Z</time>
      </trkpt>
      <trkpt lat="46.34578" lon="-1.15031">
        <ele>3.2</ele>
        <time>2020-06-02T15:25:14Z</time>
      </trkpt>
      <trkpt lat="46.34581" lon="-1.15038">
        <ele>3.2</ele>
        <time>2020-06-02T15:25:15Z</time>
      </trkpt>
      <trkpt lat="46.34584" lon="-1.15044">
        <ele>3.2</ele>
        <time>2020-06-02T15:25:16Z</time>
      </trkpt>
      <trkpt lat="46.34587" lon="-1.1505">
        <ele>3.2</ele>
        <time>2020-06-02T15:25:17Z</time>
      </trkpt>
      <trkpt lat="46.34591" lon="-1.15057">
        <ele>3.1</ele>
        <time>2020-06-02T15:25:18Z</time>
      </trkpt>
      <trkpt lat="46.34594" lon="-1.15063">
        <ele>3.1</ele>
        <time>2020-06-02T15:25:19Z</time>
      </trkpt>
      <trkpt lat="46.34599" lon="-1.15069">
        <ele>3.1</ele>
        <time>2020-06-02T15:25:20Z</time>
      </trkpt>
      <trkpt lat="46.34602" lon="-1.15074">
        <ele>3.1</ele>
        <time>2020-06-02T15:25:21Z</time>
      </trkpt>
      <trkpt lat="46.34606" lon="-1.15079">
        <ele>3.1</ele>
        <time>2020-06-02T15:25:22Z</time>
      </trkpt>
      <trkpt lat="46.3461" lon="-1.15084">
        <ele>3.1</ele>
        <time>2020-06-02T15:25:23Z</time>
      </trkpt>
      <trkpt lat="46.34614" lon="-1.15088">
        <ele>3</ele>
        <time>2020-06-02T15:25:24Z</time>
      </trkpt>
      <trkpt lat="46.34619" lon="-1.15092">
        <ele>3</ele>
        <time>2020-06-02T15:25:25Z</time>
      </trkpt>
      <trkpt lat="46.34626" lon="-1.15093">
        <ele>3</ele>
        <time>2020-06-02T15:25:26Z</time>
      </trkpt>
      <trkpt lat="46.34632" lon="-1.15093">
        <ele>3</ele>
        <time>2020-06-02T15:25:27Z</time>
      </trkpt>
      <trkpt lat="46.34637" lon="-1.15092">
        <ele>3</ele>
        <time>2020-06-02T15:25:28Z</time>
      </trkpt>
      <trkpt lat="46.34642" lon="-1.15092">
        <ele>3</ele>
        <time>2020-06-02T15:25:29Z</time>
      </trkpt>
      <trkpt lat="46.34649" lon="-1.1509">
        <ele>3</ele>
        <time>2020-06-02T15:25:30Z</time>
      </trkpt>
      <trkpt lat="46.34654" lon="-1.15089">
        <ele>3.1</ele>
        <time>2020-06-02T15:25:31Z</time>
      </trkpt>
      <trkpt lat="46.3466" lon="-1.15087">
        <ele>3.1</ele>
        <time>2020-06-02T15:25:32Z</time>
      </trkpt>
      <trkpt lat="46.34665" lon="-1.15086">
        <ele>3.1</ele>
        <time>2020-06-02T15:25:33Z</time>
      </trkpt>
      <trkpt lat="46.3467" lon="-1.15085">
        <ele>3.1</ele>
        <time>2020-06-02T15:25:34Z</time>
      </trkpt>
      <trkpt lat="46.34677" lon="-1.15082">
        <ele>3.1</ele>
        <time>2020-06-02T15:25:35Z</time>
      </trkpt>
      <trkpt lat="46.34683" lon="-1.1508">
        <ele>3.1</ele>
        <time>2020-06-02T15:25:36Z</time>
      </trkpt>
      <trkpt lat="46.34689" lon="-1.15078">
        <ele>3.1</ele>
        <time>2020-06-02T15:25:37Z</time>
      </trkpt>
      <trkpt lat="46.34695" lon="-1.15076">
        <ele>3.1</ele>
        <time>2020-06-02T15:25:38Z</time>
      </trkpt>
      <trkpt lat="46.34701" lon="-1.15074">
        <ele>3.2</ele>
        <time>2020-06-02T15:25:39Z</time>
      </trkpt>
      <trkpt lat="46.34706" lon="-1.15071">
        <ele>3.2</ele>
        <time>2020-06-02T15:25:40Z</time>
      </trkpt>
      <trkpt lat="46.34711" lon="-1.1507">
        <ele>3.2</ele>
        <time>2020-06-02T15:25:41Z</time>
      </trkpt>
      <trkpt lat="46.34716" lon="-1.15068">
        <ele>3.2</ele>
        <time>2020-06-02T15:25:42Z</time>
      </trkpt>
      <trkpt lat="46.34721" lon="-1.15067">
        <ele>3.2</ele>
        <time>2020-06-02T15:25:43Z</time>
      </trkpt>
      <trkpt lat="46.34726" lon="-1.15066">
        <ele>3.2</ele>
        <time>2020-06-02T15:25:44Z</time>
      </trkpt>
      <trkpt lat="46.34733" lon="-1.15063">
        <ele>3.2</ele>
        <time>2020-06-02T15:25:45Z</time>
      </trkpt>
      <trkpt lat="46.34738" lon="-1.15062">
        <ele>3.2</ele>
        <time>2020-06-02T15:25:46Z</time>
      </trkpt>
      <trkpt lat="46.34742" lon="-1.15062">
        <ele>3.2</ele>
        <time>2020-06-02T15:25:47Z</time>
      </trkpt>
      <trkpt lat="46.34747" lon="-1.15062">
        <ele>3.2</ele>
        <time>2020-06-02T15:25:48Z</time>
      </trkpt>
      <trkpt lat="46.34752" lon="-1.15061">
        <ele>3.2</ele>
        <time>2020-06-02T15:25:49Z</time>
      </trkpt>
      <trkpt lat="46.34758" lon="-1.15061">
        <ele>3.2</ele>
        <time>2020-06-02T15:25:50Z</time>
      </trkpt>
      <trkpt lat="46.34763" lon="-1.15062">
        <ele>3.2</ele>
        <time>2020-06-02T15:25:51Z</time>
      </trkpt>
      <trkpt lat="46.34768" lon="-1.15063">
        <ele>3.3</ele>
        <time>2020-06-02T15:25:52Z</time>
      </trkpt>
      <trkpt lat="46.34774" lon="-1.15064">
        <ele>3.3</ele>
        <time>2020-06-02T15:25:53Z</time>
      </trkpt>
      <trkpt lat="46.3478" lon="-1.15067">
        <ele>3.3</ele>
        <time>2020-06-02T15:25:54Z</time>
      </trkpt>
      <trkpt lat="46.34785" lon="-1.15068">
        <ele>3.3</ele>
        <time>2020-06-02T15:25:55Z</time>
      </trkpt>
      <trkpt lat="46.34791" lon="-1.1507">
        <ele>3.4</ele>
        <time>2020-06-02T15:25:56Z</time>
      </trkpt>
      <trkpt lat="46.34796" lon="-1.15074">
        <ele>3.4</ele>
        <time>2020-06-02T15:25:57Z</time>
      </trkpt>
      <trkpt lat="46.34801" lon="-1.15077">
        <ele>3.4</ele>
        <time>2020-06-02T15:25:58Z</time>
      </trkpt>
      <trkpt lat="46.34806" lon="-1.15081">
        <ele>3.4</ele>
        <time>2020-06-02T15:25:59Z</time>
      </trkpt>
      <trkpt lat="46.34811" lon="-1.15084">
        <ele>3.4</ele>
        <time>2020-06-02T15:26:00Z</time>
      </trkpt>
      <trkpt lat="46.34815" lon="-1.15088">
        <ele>3.4</ele>
        <time>2020-06-02T15:26:01Z</time>
      </trkpt>
      <trkpt lat="46.3482" lon="-1.15091">
        <ele>3.4</ele>
        <time>2020-06-02T15:26:02Z</time>
      </trkpt>
      <trkpt lat="46.34824" lon="-1.15095">
        <ele>3.4</ele>
        <time>2020-06-02T15:26:03Z</time>
      </trkpt>
      <trkpt lat="46.34829" lon="-1.15099">
        <ele>3.4</ele>
        <time>2020-06-02T15:26:04Z</time>
      </trkpt>
      <trkpt lat="46.34834" lon="-1.15102">
        <ele>3.4</ele>
        <time>2020-06-02T15:26:05Z</time>
      </trkpt>
      <trkpt lat="46.34839" lon="-1.15106">
        <ele>3.4</ele>
        <time>2020-06-02T15:26:06Z</time>
      </trkpt>
      <trkpt lat="46.34844" lon="-1.1511">
        <ele>3.4</ele>
        <time>2020-06-02T15:26:07Z</time>
      </trkpt>
      <trkpt lat="46.34848" lon="-1.15113">
        <ele>3.3</ele>
        <time>2020-06-02T15:26:08Z</time>
      </trkpt>
      <trkpt lat="46.34852" lon="-1.15116">
        <ele>3.3</ele>
        <time>2020-06-02T15:26:09Z</time>
      </trkpt>
      <trkpt lat="46.34857" lon="-1.15121">
        <ele>3.3</ele>
        <time>2020-06-02T15:26:10Z</time>
      </trkpt>
      <trkpt lat="46.34862" lon="-1.15125">
        <ele>3.3</ele>
        <time>2020-06-02T15:26:11Z</time>
      </trkpt>
      <trkpt lat="46.34866" lon="-1.15129">
        <ele>3.3</ele>
        <time>2020-06-02T15:26:13Z</time>
      </trkpt>
      <trkpt lat="46.34871" lon="-1.15133">
        <ele>3.3</ele>
        <time>2020-06-02T15:26:14Z</time>
      </trkpt>
      <trkpt lat="46.34876" lon="-1.15136">
        <ele>3.3</ele>
        <time>2020-06-02T15:26:15Z</time>
      </trkpt>
      <trkpt lat="46.34881" lon="-1.15139">
        <ele>3.3</ele>
        <time>2020-06-02T15:26:16Z</time>
      </trkpt>
      <trkpt lat="46.34886" lon="-1.15143">
        <ele>3.3</ele>
        <time>2020-06-02T15:26:17Z</time>
      </trkpt>
      <trkpt lat="46.34891" lon="-1.15146">
        <ele>3.4</ele>
        <time>2020-06-02T15:26:18Z</time>
      </trkpt>
      <trkpt lat="46.34895" lon="-1.15149">
        <ele>3.4</ele>
        <time>2020-06-02T15:26:19Z</time>
      </trkpt>
      <trkpt lat="46.34899" lon="-1.15153">
        <ele>3.4</ele>
        <time>2020-06-02T15:26:20Z</time>
      </trkpt>
      <trkpt lat="46.34904" lon="-1.15156">
        <ele>3.4</ele>
        <time>2020-06-02T15:26:21Z</time>
      </trkpt>
      <trkpt lat="46.34909" lon="-1.15159">
        <ele>3.4</ele>
        <time>2020-06-02T15:26:22Z</time>
      </trkpt>
      <trkpt lat="46.34913" lon="-1.15162">
        <ele>3.4</ele>
        <time>2020-06-02T15:26:23Z</time>
      </trkpt>
      <trkpt lat="46.34917" lon="-1.15166">
        <ele>3.4</ele>
        <time>2020-06-02T15:26:24Z</time>
      </trkpt>
      <trkpt lat="46.34921" lon="-1.15169">
        <ele>3.4</ele>
        <time>2020-06-02T15:26:25Z</time>
      </trkpt>
      <trkpt lat="46.34925" lon="-1.15173">
        <ele>3.3</ele>
        <time>2020-06-02T15:26:26Z</time>
      </trkpt>
      <trkpt lat="46.34929" lon="-1.15176">
        <ele>3.3</ele>
        <time>2020-06-02T15:26:27Z</time>
      </trkpt>
      <trkpt lat="46.34934" lon="-1.1518">
        <ele>3.3</ele>
        <time>2020-06-02T15:26:28Z</time>
      </trkpt>
      <trkpt lat="46.34939" lon="-1.15185">
        <ele>3.3</ele>
        <time>2020-06-02T15:26:29Z</time>
      </trkpt>
      <trkpt lat="46.34942" lon="-1.15189">
        <ele>3.4</ele>
        <time>2020-06-02T15:26:30Z</time>
      </trkpt>
      <trkpt lat="46.34946" lon="-1.15195">
        <ele>3.4</ele>
        <time>2020-06-02T15:26:31Z</time>
      </trkpt>
      <trkpt lat="46.34949" lon="-1.152">
        <ele>3.4</ele>
        <time>2020-06-02T15:26:32Z</time>
      </trkpt>
      <trkpt lat="46.34953" lon="-1.15207">
        <ele>3.4</ele>
        <time>2020-06-02T15:26:33Z</time>
      </trkpt>
      <trkpt lat="46.34957" lon="-1.15213">
        <ele>3.4</ele>
        <time>2020-06-02T15:26:34Z</time>
      </trkpt>
      <trkpt lat="46.3496" lon="-1.15219">
        <ele>3.4</ele>
        <time>2020-06-02T15:26:35Z</time>
      </trkpt>
      <trkpt lat="46.34964" lon="-1.15226">
        <ele>3.4</ele>
        <time>2020-06-02T15:26:36Z</time>
      </trkpt>
      <trkpt lat="46.34967" lon="-1.15231">
        <ele>3.4</ele>
        <time>2020-06-02T15:26:37Z</time>
      </trkpt>
      <trkpt lat="46.34972" lon="-1.15243">
        <ele>3.4</ele>
        <time>2020-06-02T15:26:38Z</time>
      </trkpt>
      <trkpt lat="46.34975" lon="-1.1525">
        <ele>3.4</ele>
        <time>2020-06-02T15:26:39Z</time>
      </trkpt>
      <trkpt lat="46.34978" lon="-1.15256">
        <ele>3.4</ele>
        <time>2020-06-02T15:26:40Z</time>
      </trkpt>
      <trkpt lat="46.34981" lon="-1.15263">
        <ele>3.4</ele>
        <time>2020-06-02T15:26:41Z</time>
      </trkpt>
      <trkpt lat="46.34983" lon="-1.15269">
        <ele>3.4</ele>
        <time>2020-06-02T15:26:42Z</time>
      </trkpt>
      <trkpt lat="46.34986" lon="-1.15274">
        <ele>3.4</ele>
        <time>2020-06-02T15:26:43Z</time>
      </trkpt>
      <trkpt lat="46.34989" lon="-1.1528">
        <ele>3.4</ele>
        <time>2020-06-02T15:26:44Z</time>
      </trkpt>
      <trkpt lat="46.34991" lon="-1.15285">
        <ele>3.4</ele>
        <time>2020-06-02T15:26:45Z</time>
      </trkpt>
      <trkpt lat="46.34994" lon="-1.15291">
        <ele>3.4</ele>
        <time>2020-06-02T15:26:46Z</time>
      </trkpt>
      <trkpt lat="46.34997" lon="-1.15297">
        <ele>3.4</ele>
        <time>2020-06-02T15:26:47Z</time>
      </trkpt>
      <trkpt lat="46.35001" lon="-1.15303">
        <ele>3.4</ele>
        <time>2020-06-02T15:26:48Z</time>
      </trkpt>
      <trkpt lat="46.35004" lon="-1.15309">
        <ele>3.4</ele>
        <time>2020-06-02T15:26:49Z</time>
      </trkpt>
      <trkpt lat="46.35007" lon="-1.15316">
        <ele>3.4</ele>
        <time>2020-06-02T15:26:50Z</time>
      </trkpt>
      <trkpt lat="46.35009" lon="-1.15324">
        <ele>3.4</ele>
        <time>2020-06-02T15:26:51Z</time>
      </trkpt>
      <trkpt lat="46.35012" lon="-1.15331">
        <ele>3.4</ele>
        <time>2020-06-02T15:26:52Z</time>
      </trkpt>
      <trkpt lat="46.35015" lon="-1.15337">
        <ele>3.4</ele>
        <time>2020-06-02T15:26:53Z</time>
      </trkpt>
      <trkpt lat="46.35018" lon="-1.15344">
        <ele>3.4</ele>
        <time>2020-06-02T15:26:54Z</time>
      </trkpt>
      <trkpt lat="46.35021" lon="-1.15351">
        <ele>3.4</ele>
        <time>2020-06-02T15:26:55Z</time>
      </trkpt>
      <trkpt lat="46.35024" lon="-1.15357">
        <ele>3.4</ele>
        <time>2020-06-02T15:26:56Z</time>
      </trkpt>
      <trkpt lat="46.35028" lon="-1.15365">
        <ele>3.4</ele>
        <time>2020-06-02T15:26:57Z</time>
      </trkpt>
      <trkpt lat="46.3503" lon="-1.15372">
        <ele>3.4</ele>
        <time>2020-06-02T15:26:58Z</time>
      </trkpt>
      <trkpt lat="46.35033" lon="-1.15378">
        <ele>3.4</ele>
        <time>2020-06-02T15:26:59Z</time>
      </trkpt>
      <trkpt lat="46.35036" lon="-1.15385">
        <ele>3.4</ele>
        <time>2020-06-02T15:27:00Z</time>
      </trkpt>
      <trkpt lat="46.35039" lon="-1.15391">
        <ele>3.4</ele>
        <time>2020-06-02T15:27:01Z</time>
      </trkpt>
      <trkpt lat="46.35042" lon="-1.15397">
        <ele>3.4</ele>
        <time>2020-06-02T15:27:02Z</time>
      </trkpt>
      <trkpt lat="46.35045" lon="-1.15403">
        <ele>3.4</ele>
        <time>2020-06-02T15:27:03Z</time>
      </trkpt>
      <trkpt lat="46.35048" lon="-1.15408">
        <ele>3.4</ele>
        <time>2020-06-02T15:27:04Z</time>
      </trkpt>
      <trkpt lat="46.35051" lon="-1.15415">
        <ele>3.4</ele>
        <time>2020-06-02T15:27:05Z</time>
      </trkpt>
      <trkpt lat="46.35053" lon="-1.15421">
        <ele>3.4</ele>
        <time>2020-06-02T15:27:06Z</time>
      </trkpt>
      <trkpt lat="46.35056" lon="-1.15427">
        <ele>3.4</ele>
        <time>2020-06-02T15:27:07Z</time>
      </trkpt>
      <trkpt lat="46.35059" lon="-1.15433">
        <ele>3.4</ele>
        <time>2020-06-02T15:27:08Z</time>
      </trkpt>
      <trkpt lat="46.35063" lon="-1.1544">
        <ele>3.4</ele>
        <time>2020-06-02T15:27:09Z</time>
      </trkpt>
      <trkpt lat="46.35066" lon="-1.15446">
        <ele>3.4</ele>
        <time>2020-06-02T15:27:10Z</time>
      </trkpt>
      <trkpt lat="46.3507" lon="-1.15453">
        <ele>3.4</ele>
        <time>2020-06-02T15:27:11Z</time>
      </trkpt>
      <trkpt lat="46.35073" lon="-1.15459">
        <ele>3.4</ele>
        <time>2020-06-02T15:27:12Z</time>
      </trkpt>
      <trkpt lat="46.35076" lon="-1.15465">
        <ele>3.4</ele>
        <time>2020-06-02T15:27:13Z</time>
      </trkpt>
      <trkpt lat="46.35079" lon="-1.15472">
        <ele>3.4</ele>
        <time>2020-06-02T15:27:14Z</time>
      </trkpt>
      <trkpt lat="46.35082" lon="-1.15479">
        <ele>3.4</ele>
        <time>2020-06-02T15:27:15Z</time>
      </trkpt>
      <trkpt lat="46.35085" lon="-1.15485">
        <ele>3.4</ele>
        <time>2020-06-02T15:27:16Z</time>
      </trkpt>
      <trkpt lat="46.35088" lon="-1.15491">
        <ele>3.4</ele>
        <time>2020-06-02T15:27:17Z</time>
      </trkpt>
      <trkpt lat="46.35091" lon="-1.15497">
        <ele>3.4</ele>
        <time>2020-06-02T15:27:18Z</time>
      </trkpt>
      <trkpt lat="46.35094" lon="-1.15503">
        <ele>3.4</ele>
        <time>2020-06-02T15:27:19Z</time>
      </trkpt>
      <trkpt lat="46.35096" lon="-1.1551">
        <ele>3.4</ele>
        <time>2020-06-02T15:27:20Z</time>
      </trkpt>
      <trkpt lat="46.351" lon="-1.15514">
        <ele>3.5</ele>
        <time>2020-06-02T15:27:21Z</time>
      </trkpt>
      <trkpt lat="46.35103" lon="-1.1552">
        <ele>3.5</ele>
        <time>2020-06-02T15:27:22Z</time>
      </trkpt>
      <trkpt lat="46.35106" lon="-1.15526">
        <ele>3.5</ele>
        <time>2020-06-02T15:27:23Z</time>
      </trkpt>
      <trkpt lat="46.35109" lon="-1.15532">
        <ele>3.5</ele>
        <time>2020-06-02T15:27:24Z</time>
      </trkpt>
      <trkpt lat="46.35112" lon="-1.15539">
        <ele>3.5</ele>
        <time>2020-06-02T15:27:25Z</time>
      </trkpt>
      <trkpt lat="46.35115" lon="-1.15546">
        <ele>3.5</ele>
        <time>2020-06-02T15:27:26Z</time>
      </trkpt>
      <trkpt lat="46.35118" lon="-1.15552">
        <ele>3.5</ele>
        <time>2020-06-02T15:27:27Z</time>
      </trkpt>
      <trkpt lat="46.35121" lon="-1.15559">
        <ele>3.5</ele>
        <time>2020-06-02T15:27:28Z</time>
      </trkpt>
      <trkpt lat="46.35124" lon="-1.15565">
        <ele>3.5</ele>
        <time>2020-06-02T15:27:29Z</time>
      </trkpt>
      <trkpt lat="46.35126" lon="-1.1557">
        <ele>3.6</ele>
        <time>2020-06-02T15:27:30Z</time>
      </trkpt>
      <trkpt lat="46.35129" lon="-1.15576">
        <ele>3.6</ele>
        <time>2020-06-02T15:27:31Z</time>
      </trkpt>
      <trkpt lat="46.35131" lon="-1.15582">
        <ele>3.6</ele>
        <time>2020-06-02T15:27:32Z</time>
      </trkpt>
      <trkpt lat="46.35134" lon="-1.15587">
        <ele>3.6</ele>
        <time>2020-06-02T15:27:33Z</time>
      </trkpt>
      <trkpt lat="46.35137" lon="-1.15592">
        <ele>3.6</ele>
        <time>2020-06-02T15:27:34Z</time>
      </trkpt>
      <trkpt lat="46.35139" lon="-1.15598">
        <ele>3.5</ele>
        <time>2020-06-02T15:27:35Z</time>
      </trkpt>
      <trkpt lat="46.35142" lon="-1.15604">
        <ele>3.5</ele>
        <time>2020-06-02T15:27:36Z</time>
      </trkpt>
      <trkpt lat="46.35144" lon="-1.15611">
        <ele>3.5</ele>
        <time>2020-06-02T15:27:37Z</time>
      </trkpt>
      <trkpt lat="46.35147" lon="-1.15617">
        <ele>3.5</ele>
        <time>2020-06-02T15:27:38Z</time>
      </trkpt>
      <trkpt lat="46.3515" lon="-1.15622">
        <ele>3.5</ele>
        <time>2020-06-02T15:27:39Z</time>
      </trkpt>
      <trkpt lat="46.35154" lon="-1.15629">
        <ele>3.5</ele>
        <time>2020-06-02T15:27:40Z</time>
      </trkpt>
      <trkpt lat="46.35157" lon="-1.15635">
        <ele>3.5</ele>
        <time>2020-06-02T15:27:41Z</time>
      </trkpt>
      <trkpt lat="46.3516" lon="-1.15641">
        <ele>3.5</ele>
        <time>2020-06-02T15:27:42Z</time>
      </trkpt>
      <trkpt lat="46.35162" lon="-1.15647">
        <ele>3.5</ele>
        <time>2020-06-02T15:27:43Z</time>
      </trkpt>
      <trkpt lat="46.35166" lon="-1.15653">
        <ele>3.5</ele>
        <time>2020-06-02T15:27:44Z</time>
      </trkpt>
      <trkpt lat="46.35169" lon="-1.15659">
        <ele>3.5</ele>
        <time>2020-06-02T15:27:45Z</time>
      </trkpt>
      <trkpt lat="46.35171" lon="-1.15665">
        <ele>3.5</ele>
        <time>2020-06-02T15:27:46Z</time>
      </trkpt>
      <trkpt lat="46.35174" lon="-1.15671">
        <ele>3.5</ele>
        <time>2020-06-02T15:27:47Z</time>
      </trkpt>
      <trkpt lat="46.35178" lon="-1.15677">
        <ele>3.5</ele>
        <time>2020-06-02T15:27:48Z</time>
      </trkpt>
      <trkpt lat="46.35181" lon="-1.15682">
        <ele>3.5</ele>
        <time>2020-06-02T15:27:49Z</time>
      </trkpt>
      <trkpt lat="46.35184" lon="-1.15688">
        <ele>3.5</ele>
        <time>2020-06-02T15:27:50Z</time>
      </trkpt>
      <trkpt lat="46.35187" lon="-1.15693">
        <ele>3.5</ele>
        <time>2020-06-02T15:27:51Z</time>
      </trkpt>
      <trkpt lat="46.35189" lon="-1.15699">
        <ele>3.5</ele>
        <time>2020-06-02T15:27:52Z</time>
      </trkpt>
      <trkpt lat="46.35191" lon="-1.15705">
        <ele>3.5</ele>
        <time>2020-06-02T15:27:53Z</time>
      </trkpt>
      <trkpt lat="46.35194" lon="-1.1571">
        <ele>3.5</ele>
        <time>2020-06-02T15:27:54Z</time>
      </trkpt>
      <trkpt lat="46.35196" lon="-1.15716">
        <ele>3.5</ele>
        <time>2020-06-02T15:27:55Z</time>
      </trkpt>
      <trkpt lat="46.35198" lon="-1.15722">
        <ele>3.5</ele>
        <time>2020-06-02T15:27:56Z</time>
      </trkpt>
      <trkpt lat="46.352" lon="-1.15727">
        <ele>3.5</ele>
        <time>2020-06-02T15:27:57Z</time>
      </trkpt>
      <trkpt lat="46.35203" lon="-1.15733">
        <ele>3.5</ele>
        <time>2020-06-02T15:27:58Z</time>
      </trkpt>
      <trkpt lat="46.35205" lon="-1.15738">
        <ele>3.5</ele>
        <time>2020-06-02T15:27:59Z</time>
      </trkpt>
      <trkpt lat="46.35208" lon="-1.15744">
        <ele>3.5</ele>
        <time>2020-06-02T15:28:00Z</time>
      </trkpt>
      <trkpt lat="46.35211" lon="-1.1575">
        <ele>3.4</ele>
        <time>2020-06-02T15:28:01Z</time>
      </trkpt>
      <trkpt lat="46.35214" lon="-1.15755">
        <ele>3.4</ele>
        <time>2020-06-02T15:28:02Z</time>
      </trkpt>
      <trkpt lat="46.35217" lon="-1.15761">
        <ele>3.4</ele>
        <time>2020-06-02T15:28:03Z</time>
      </trkpt>
      <trkpt lat="46.3522" lon="-1.15766">
        <ele>3.4</ele>
        <time>2020-06-02T15:28:04Z</time>
      </trkpt>
      <trkpt lat="46.35223" lon="-1.15771">
        <ele>3.4</ele>
        <time>2020-06-02T15:28:05Z</time>
      </trkpt>
      <trkpt lat="46.35226" lon="-1.15776">
        <ele>3.4</ele>
        <time>2020-06-02T15:28:06Z</time>
      </trkpt>
      <trkpt lat="46.35229" lon="-1.15782">
        <ele>3.4</ele>
        <time>2020-06-02T15:28:07Z</time>
      </trkpt>
      <trkpt lat="46.35231" lon="-1.15788">
        <ele>3.4</ele>
        <time>2020-06-02T15:28:08Z</time>
      </trkpt>
      <trkpt lat="46.35234" lon="-1.15794">
        <ele>3.4</ele>
        <time>2020-06-02T15:28:09Z</time>
      </trkpt>
      <trkpt lat="46.35237" lon="-1.15799">
        <ele>3.4</ele>
        <time>2020-06-02T15:28:10Z</time>
      </trkpt>
      <trkpt lat="46.3524" lon="-1.15805">
        <ele>3.4</ele>
        <time>2020-06-02T15:28:11Z</time>
      </trkpt>
      <trkpt lat="46.35243" lon="-1.15811">
        <ele>3.4</ele>
        <time>2020-06-02T15:28:12Z</time>
      </trkpt>
      <trkpt lat="46.35245" lon="-1.15818">
        <ele>3.3</ele>
        <time>2020-06-02T15:28:13Z</time>
      </trkpt>
      <trkpt lat="46.35248" lon="-1.15823">
        <ele>3.3</ele>
        <time>2020-06-02T15:28:14Z</time>
      </trkpt>
      <trkpt lat="46.3525" lon="-1.15828">
        <ele>3.4</ele>
        <time>2020-06-02T15:28:15Z</time>
      </trkpt>
      <trkpt lat="46.35253" lon="-1.15833">
        <ele>3.4</ele>
        <time>2020-06-02T15:28:16Z</time>
      </trkpt>
      <trkpt lat="46.35255" lon="-1.15838">
        <ele>3.4</ele>
        <time>2020-06-02T15:28:17Z</time>
      </trkpt>
      <trkpt lat="46.35258" lon="-1.15843">
        <ele>3.4</ele>
        <time>2020-06-02T15:28:18Z</time>
      </trkpt>
      <trkpt lat="46.35261" lon="-1.15849">
        <ele>3.4</ele>
        <time>2020-06-02T15:28:19Z</time>
      </trkpt>
      <trkpt lat="46.35263" lon="-1.15855">
        <ele>3.4</ele>
        <time>2020-06-02T15:28:20Z</time>
      </trkpt>
      <trkpt lat="46.35266" lon="-1.15862">
        <ele>3.4</ele>
        <time>2020-06-02T15:28:21Z</time>
      </trkpt>
      <trkpt lat="46.35269" lon="-1.15868">
        <ele>3.4</ele>
        <time>2020-06-02T15:28:22Z</time>
      </trkpt>
      <trkpt lat="46.35271" lon="-1.15873">
        <ele>3.4</ele>
        <time>2020-06-02T15:28:23Z</time>
      </trkpt>
      <trkpt lat="46.35274" lon="-1.15879">
        <ele>3.4</ele>
        <time>2020-06-02T15:28:24Z</time>
      </trkpt>
      <trkpt lat="46.35277" lon="-1.15885">
        <ele>3.4</ele>
        <time>2020-06-02T15:28:25Z</time>
      </trkpt>
      <trkpt lat="46.3528" lon="-1.15892">
        <ele>3.4</ele>
        <time>2020-06-02T15:28:26Z</time>
      </trkpt>
      <trkpt lat="46.35283" lon="-1.15898">
        <ele>3.4</ele>
        <time>2020-06-02T15:28:27Z</time>
      </trkpt>
      <trkpt lat="46.35286" lon="-1.15904">
        <ele>3.5</ele>
        <time>2020-06-02T15:28:28Z</time>
      </trkpt>
      <trkpt lat="46.35289" lon="-1.1591">
        <ele>3.5</ele>
        <time>2020-06-02T15:28:29Z</time>
      </trkpt>
      <trkpt lat="46.35292" lon="-1.15916">
        <ele>3.5</ele>
        <time>2020-06-02T15:28:30Z</time>
      </trkpt>
      <trkpt lat="46.35295" lon="-1.15922">
        <ele>3.5</ele>
        <time>2020-06-02T15:28:31Z</time>
      </trkpt>
      <trkpt lat="46.35298" lon="-1.15927">
        <ele>3.5</ele>
        <time>2020-06-02T15:28:32Z</time>
      </trkpt>
      <trkpt lat="46.35302" lon="-1.15932">
        <ele>3.5</ele>
        <time>2020-06-02T15:28:33Z</time>
      </trkpt>
      <trkpt lat="46.35305" lon="-1.15938">
        <ele>3.5</ele>
        <time>2020-06-02T15:28:34Z</time>
      </trkpt>
      <trkpt lat="46.35308" lon="-1.15944">
        <ele>3.5</ele>
        <time>2020-06-02T15:28:35Z</time>
      </trkpt>
      <trkpt lat="46.35311" lon="-1.1595">
        <ele>3.6</ele>
        <time>2020-06-02T15:28:36Z</time>
      </trkpt>
      <trkpt lat="46.35314" lon="-1.15955">
        <ele>3.6</ele>
        <time>2020-06-02T15:28:37Z</time>
      </trkpt>
      <trkpt lat="46.35317" lon="-1.15962">
        <ele>3.6</ele>
        <time>2020-06-02T15:28:38Z</time>
      </trkpt>
      <trkpt lat="46.35319" lon="-1.15968">
        <ele>3.6</ele>
        <time>2020-06-02T15:28:39Z</time>
      </trkpt>
      <trkpt lat="46.35322" lon="-1.15974">
        <ele>3.6</ele>
        <time>2020-06-02T15:28:40Z</time>
      </trkpt>
      <trkpt lat="46.35325" lon="-1.15979">
        <ele>3.6</ele>
        <time>2020-06-02T15:28:41Z</time>
      </trkpt>
      <trkpt lat="46.35328" lon="-1.15985">
        <ele>3.6</ele>
        <time>2020-06-02T15:28:42Z</time>
      </trkpt>
      <trkpt lat="46.3533" lon="-1.15991">
        <ele>3.6</ele>
        <time>2020-06-02T15:28:43Z</time>
      </trkpt>
      <trkpt lat="46.35333" lon="-1.15996">
        <ele>3.6</ele>
        <time>2020-06-02T15:28:44Z</time>
      </trkpt>
      <trkpt lat="46.35335" lon="-1.16001">
        <ele>3.6</ele>
        <time>2020-06-02T15:28:45Z</time>
      </trkpt>
      <trkpt lat="46.35337" lon="-1.16005">
        <ele>3.6</ele>
        <time>2020-06-02T15:28:46Z</time>
      </trkpt>
      <trkpt lat="46.35339" lon="-1.16011">
        <ele>3.6</ele>
        <time>2020-06-02T15:28:47Z</time>
      </trkpt>
      <trkpt lat="46.35341" lon="-1.16015">
        <ele>3.6</ele>
        <time>2020-06-02T15:28:48Z</time>
      </trkpt>
      <trkpt lat="46.35343" lon="-1.16018">
        <ele>3.6</ele>
        <time>2020-06-02T15:28:49Z</time>
      </trkpt>
      <trkpt lat="46.35344" lon="-1.16023">
        <ele>3.7</ele>
        <time>2020-06-02T15:28:50Z</time>
      </trkpt>
      <trkpt lat="46.35345" lon="-1.16025">
        <ele>3.7</ele>
        <time>2020-06-02T15:28:51Z</time>
      </trkpt>
      <trkpt lat="46.35345" lon="-1.16026">
        <ele>3.7</ele>
        <time>2020-06-02T15:28:52Z</time>
      </trkpt>
      <trkpt lat="46.35345" lon="-1.16027">
        <ele>3.7</ele>
        <time>2020-06-02T15:28:53Z</time>
      </trkpt>
      <trkpt lat="46.35345" lon="-1.16027">
        <ele>3.7</ele>
        <time>2020-06-02T15:28:54Z</time>
      </trkpt>
      <trkpt lat="46.35346" lon="-1.16027">
        <ele>3.7</ele>
        <time>2020-06-02T15:28:55Z</time>
      </trkpt>
      <trkpt lat="46.35346" lon="-1.16027">
        <ele>3.7</ele>
        <time>2020-06-02T15:28:56Z</time>
      </trkpt>
      <trkpt lat="46.35346" lon="-1.16027">
        <ele>3.7</ele>
        <time>2020-06-02T15:28:57Z</time>
      </trkpt>
      <trkpt lat="46.35346" lon="-1.16027">
        <ele>3.7</ele>
        <time>2020-06-02T15:28:58Z</time>
      </trkpt>
      <trkpt lat="46.35346" lon="-1.16027">
        <ele>3.7</ele>
        <time>2020-06-02T15:28:59Z</time>
      </trkpt>
      <trkpt lat="46.35346" lon="-1.16027">
        <ele>3.7</ele>
        <time>2020-06-02T15:29:00Z</time>
      </trkpt>
      <trkpt lat="46.35346" lon="-1.16027">
        <ele>3.7</ele>
        <time>2020-06-02T15:29:01Z</time>
      </trkpt>
      <trkpt lat="46.35346" lon="-1.16027">
        <ele>3.7</ele>
        <time>2020-06-02T15:29:02Z</time>
      </trkpt>
      <trkpt lat="46.35346" lon="-1.16027">
        <ele>3.7</ele>
        <time>2020-06-02T15:29:03Z</time>
      </trkpt>
      <trkpt lat="46.35346" lon="-1.16027">
        <ele>3.7</ele>
        <time>2020-06-02T15:29:04Z</time>
      </trkpt>
      <trkpt lat="46.35346" lon="-1.16027">
        <ele>3.7</ele>
        <time>2020-06-02T15:29:05Z</time>
      </trkpt>
      <trkpt lat="46.35346" lon="-1.16027">
        <ele>3.7</ele>
        <time>2020-06-02T15:29:06Z</time>
      </trkpt>
      <trkpt lat="46.35346" lon="-1.16027">
        <ele>3.7</ele>
        <time>2020-06-02T15:29:07Z</time>
      </trkpt>
      <trkpt lat="46.35346" lon="-1.16027">
        <ele>3.7</ele>
        <time>2020-06-02T15:29:08Z</time>
      </trkpt>
      <trkpt lat="46.35346" lon="-1.16027">
        <ele>3.7</ele>
        <time>2020-06-02T15:29:09Z</time>
      </trkpt>
      <trkpt lat="46.35346" lon="-1.16027">
        <ele>3.7</ele>
        <time>2020-06-02T15:29:10Z</time>
      </trkpt>
      <trkpt lat="46.35346" lon="-1.16027">
        <ele>3.7</ele>
        <time>2020-06-02T15:29:11Z</time>
      </trkpt>
      <trkpt lat="46.35346" lon="-1.16027">
        <ele>3.7</ele>
        <time>2020-06-02T15:29:12Z</time>
      </trkpt>
      <trkpt lat="46.35346" lon="-1.16027">
        <ele>3.7</ele>
        <time>2020-06-02T15:29:13Z</time>
      </trkpt>
      <trkpt lat="46.35346" lon="-1.16027">
        <ele>3.7</ele>
        <time>2020-06-02T15:29:14Z</time>
      </trkpt>
      <trkpt lat="46.35346" lon="-1.16027">
        <ele>3.7</ele>
        <time>2020-06-02T15:29:15Z</time>
      </trkpt>
      <trkpt lat="46.35346" lon="-1.16027">
        <ele>3.7</ele>
        <time>2020-06-02T15:29:16Z</time>
      </trkpt>
      <trkpt lat="46.35346" lon="-1.16027">
        <ele>3.7</ele>
        <time>2020-06-02T15:29:17Z</time>
      </trkpt>
      <trkpt lat="46.35346" lon="-1.16027">
        <ele>3.7</ele>
        <time>2020-06-02T15:29:18Z</time>
      </trkpt>
      <trkpt lat="46.35346" lon="-1.16027">
        <ele>3.7</ele>
        <time>2020-06-02T15:29:19Z</time>
      </trkpt>
      <trkpt lat="46.35346" lon="-1.16027">
        <ele>3.7</ele>
        <time>2020-06-02T15:29:20Z</time>
      </trkpt>
      <trkpt lat="46.35346" lon="-1.16028">
        <ele>3.7</ele>
        <time>2020-06-02T15:29:21Z</time>
      </trkpt>
      <trkpt lat="46.35347" lon="-1.16028">
        <ele>3.7</ele>
        <time>2020-06-02T15:29:22Z</time>
      </trkpt>
      <trkpt lat="46.35347" lon="-1.16028">
        <ele>3.7</ele>
        <time>2020-06-02T15:29:23Z</time>
      </trkpt>
      <trkpt lat="46.35347" lon="-1.16028">
        <ele>3.7</ele>
        <time>2020-06-02T15:29:24Z</time>
      </trkpt>
      <trkpt lat="46.35347" lon="-1.16028">
        <ele>3.7</ele>
        <time>2020-06-02T15:29:25Z</time>
      </trkpt>
      <trkpt lat="46.35347" lon="-1.16028">
        <ele>3.7</ele>
        <time>2020-06-02T15:29:26Z</time>
      </trkpt>
      <trkpt lat="46.35347" lon="-1.16028">
        <ele>3.7</ele>
        <time>2020-06-02T15:29:27Z</time>
      </trkpt>
      <trkpt lat="46.35347" lon="-1.16028">
        <ele>3.7</ele>
        <time>2020-06-02T15:29:28Z</time>
      </trkpt>
      <trkpt lat="46.35347" lon="-1.16028">
        <ele>3.7</ele>
        <time>2020-06-02T15:29:29Z</time>
      </trkpt>
      <trkpt lat="46.35347" lon="-1.16028">
        <ele>3.7</ele>
        <time>2020-06-02T15:29:30Z</time>
      </trkpt>
      <trkpt lat="46.35347" lon="-1.16028">
        <ele>3.7</ele>
        <time>2020-06-02T15:29:31Z</time>
      </trkpt>
      <trkpt lat="46.35347" lon="-1.16028">
        <ele>3.7</ele>
        <time>2020-06-02T15:29:32Z</time>
      </trkpt>
      <trkpt lat="46.35347" lon="-1.16028">
        <ele>3.7</ele>
        <time>2020-06-02T15:29:33Z</time>
      </trkpt>
      <trkpt lat="46.35347" lon="-1.16028">
        <ele>3.7</ele>
        <time>2020-06-02T15:29:34Z</time>
      </trkpt>
      <trkpt lat="46.35347" lon="-1.16028">
        <ele>3.7</ele>
        <time>2020-06-02T15:29:35Z</time>
      </trkpt>
      <trkpt lat="46.35347" lon="-1.16028">
        <ele>3.7</ele>
        <time>2020-06-02T15:29:36Z</time>
      </trkpt>
      <trkpt lat="46.35347" lon="-1.16028">
        <ele>3.7</ele>
        <time>2020-06-02T15:29:37Z</time>
      </trkpt>
      <trkpt lat="46.35347" lon="-1.16028">
        <ele>3.7</ele>
        <time>2020-06-02T15:29:38Z</time>
      </trkpt>
      <trkpt lat="46.35347" lon="-1.16028">
        <ele>3.7</ele>
        <time>2020-06-02T15:29:39Z</time>
      </trkpt>
      <trkpt lat="46.35347" lon="-1.16028">
        <ele>3.7</ele>
        <time>2020-06-02T15:29:40Z</time>
      </trkpt>
      <trkpt lat="46.35347" lon="-1.16028">
        <ele>3.7</ele>
        <time>2020-06-02T15:29:41Z</time>
      </trkpt>
      <trkpt lat="46.35347" lon="-1.16028">
        <ele>3.7</ele>
        <time>2020-06-02T15:29:42Z</time>
      </trkpt>
      <trkpt lat="46.35347" lon="-1.16028">
        <ele>3.7</ele>
        <time>2020-06-02T15:29:43Z</time>
      </trkpt>
      <trkpt lat="46.35347" lon="-1.16028">
        <ele>3.7</ele>
        <time>2020-06-02T15:29:44Z</time>
      </trkpt>
      <trkpt lat="46.35349" lon="-1.16032">
        <ele>3.7</ele>
        <time>2020-06-02T15:29:45Z</time>
      </trkpt>
      <trkpt lat="46.3535" lon="-1.16033">
        <ele>3.7</ele>
        <time>2020-06-02T15:29:46Z</time>
      </trkpt>
      <trkpt lat="46.35351" lon="-1.16037">
        <ele>3.7</ele>
        <time>2020-06-02T15:29:47Z</time>
      </trkpt>
      <trkpt lat="46.35353" lon="-1.16041">
        <ele>3.7</ele>
        <time>2020-06-02T15:29:48Z</time>
      </trkpt>
      <trkpt lat="46.35356" lon="-1.16046">
        <ele>3.7</ele>
        <time>2020-06-02T15:29:49Z</time>
      </trkpt>
      <trkpt lat="46.35358" lon="-1.1605">
        <ele>3.7</ele>
        <time>2020-06-02T15:29:50Z</time>
      </trkpt>
      <trkpt lat="46.3536" lon="-1.16055">
        <ele>3.7</ele>
        <time>2020-06-02T15:29:51Z</time>
      </trkpt>
      <trkpt lat="46.35363" lon="-1.1606">
        <ele>3.7</ele>
        <time>2020-06-02T15:29:52Z</time>
      </trkpt>
      <trkpt lat="46.35365" lon="-1.16065">
        <ele>3.7</ele>
        <time>2020-06-02T15:29:53Z</time>
      </trkpt>
      <trkpt lat="46.35367" lon="-1.1607">
        <ele>3.7</ele>
        <time>2020-06-02T15:29:54Z</time>
      </trkpt>
      <trkpt lat="46.3537" lon="-1.16075">
        <ele>3.7</ele>
        <time>2020-06-02T15:29:55Z</time>
      </trkpt>
      <trkpt lat="46.35373" lon="-1.16081">
        <ele>3.7</ele>
        <time>2020-06-02T15:29:56Z</time>
      </trkpt>
      <trkpt lat="46.35375" lon="-1.16087">
        <ele>3.7</ele>
        <time>2020-06-02T15:29:57Z</time>
      </trkpt>
      <trkpt lat="46.35378" lon="-1.16093">
        <ele>3.7</ele>
        <time>2020-06-02T15:29:58Z</time>
      </trkpt>
      <trkpt lat="46.3538" lon="-1.16099">
        <ele>3.7</ele>
        <time>2020-06-02T15:29:59Z</time>
      </trkpt>
      <trkpt lat="46.35383" lon="-1.16104">
        <ele>3.7</ele>
        <time>2020-06-02T15:30:00Z</time>
      </trkpt>
      <trkpt lat="46.35386" lon="-1.1611">
        <ele>3.7</ele>
        <time>2020-06-02T15:30:01Z</time>
      </trkpt>
      <trkpt lat="46.35389" lon="-1.16116">
        <ele>3.7</ele>
        <time>2020-06-02T15:30:02Z</time>
      </trkpt>
      <trkpt lat="46.35391" lon="-1.16121">
        <ele>3.7</ele>
        <time>2020-06-02T15:30:03Z</time>
      </trkpt>
      <trkpt lat="46.35394" lon="-1.16127">
        <ele>3.7</ele>
        <time>2020-06-02T15:30:04Z</time>
      </trkpt>
      <trkpt lat="46.35396" lon="-1.16132">
        <ele>3.7</ele>
        <time>2020-06-02T15:30:05Z</time>
      </trkpt>
      <trkpt lat="46.35399" lon="-1.16138">
        <ele>3.7</ele>
        <time>2020-06-02T15:30:06Z</time>
      </trkpt>
      <trkpt lat="46.35401" lon="-1.16143">
        <ele>3.7</ele>
        <time>2020-06-02T15:30:07Z</time>
      </trkpt>
      <trkpt lat="46.35403" lon="-1.16149">
        <ele>3.7</ele>
        <time>2020-06-02T15:30:08Z</time>
      </trkpt>
      <trkpt lat="46.35406" lon="-1.16155">
        <ele>3.7</ele>
        <time>2020-06-02T15:30:09Z</time>
      </trkpt>
      <trkpt lat="46.35409" lon="-1.1616">
        <ele>3.7</ele>
        <time>2020-06-02T15:30:10Z</time>
      </trkpt>
      <trkpt lat="46.35411" lon="-1.16166">
        <ele>3.7</ele>
        <time>2020-06-02T15:30:11Z</time>
      </trkpt>
      <trkpt lat="46.35414" lon="-1.16171">
        <ele>3.7</ele>
        <time>2020-06-02T15:30:12Z</time>
      </trkpt>
      <trkpt lat="46.35417" lon="-1.16177">
        <ele>3.7</ele>
        <time>2020-06-02T15:30:13Z</time>
      </trkpt>
      <trkpt lat="46.35419" lon="-1.16183">
        <ele>3.7</ele>
        <time>2020-06-02T15:30:14Z</time>
      </trkpt>
      <trkpt lat="46.35421" lon="-1.16188">
        <ele>3.7</ele>
        <time>2020-06-02T15:30:15Z</time>
      </trkpt>
      <trkpt lat="46.35424" lon="-1.16194">
        <ele>3.7</ele>
        <time>2020-06-02T15:30:16Z</time>
      </trkpt>
      <trkpt lat="46.35426" lon="-1.16199">
        <ele>3.7</ele>
        <time>2020-06-02T15:30:17Z</time>
      </trkpt>
      <trkpt lat="46.35428" lon="-1.16203">
        <ele>3.7</ele>
        <time>2020-06-02T15:30:18Z</time>
      </trkpt>
      <trkpt lat="46.35429" lon="-1.16207">
        <ele>3.8</ele>
        <time>2020-06-02T15:30:19Z</time>
      </trkpt>
      <trkpt lat="46.3543" lon="-1.1621">
        <ele>3.8</ele>
        <time>2020-06-02T15:30:20Z</time>
      </trkpt>
      <trkpt lat="46.35432" lon="-1.16214">
        <ele>3.8</ele>
        <time>2020-06-02T15:30:21Z</time>
      </trkpt>
      <trkpt lat="46.35432" lon="-1.16216">
        <ele>3.8</ele>
        <time>2020-06-02T15:30:22Z</time>
      </trkpt>
      <trkpt lat="46.35435" lon="-1.16219">
        <ele>3.8</ele>
        <time>2020-06-02T15:30:23Z</time>
      </trkpt>
      <trkpt lat="46.35436" lon="-1.16219">
        <ele>3.8</ele>
        <time>2020-06-02T15:30:24Z</time>
      </trkpt>
      <trkpt lat="46.35439" lon="-1.16222">
        <ele>3.8</ele>
        <time>2020-06-02T15:30:25Z</time>
      </trkpt>
      <trkpt lat="46.3544" lon="-1.16224">
        <ele>3.8</ele>
        <time>2020-06-02T15:30:26Z</time>
      </trkpt>
      <trkpt lat="46.35442" lon="-1.16228">
        <ele>3.8</ele>
        <time>2020-06-02T15:30:27Z</time>
      </trkpt>
      <trkpt lat="46.35443" lon="-1.16229">
        <ele>3.8</ele>
        <time>2020-06-02T15:30:28Z</time>
      </trkpt>
      <trkpt lat="46.35444" lon="-1.16234">
        <ele>3.8</ele>
        <time>2020-06-02T15:30:29Z</time>
      </trkpt>
      <trkpt lat="46.35444" lon="-1.16235">
        <ele>3.8</ele>
        <time>2020-06-02T15:30:30Z</time>
      </trkpt>
      <trkpt lat="46.35446" lon="-1.16239">
        <ele>3.8</ele>
        <time>2020-06-02T15:30:31Z</time>
      </trkpt>
      <trkpt lat="46.35447" lon="-1.16241">
        <ele>3.8</ele>
        <time>2020-06-02T15:30:32Z</time>
      </trkpt>
      <trkpt lat="46.35448" lon="-1.16244">
        <ele>3.8</ele>
        <time>2020-06-02T15:30:33Z</time>
      </trkpt>
      <trkpt lat="46.3545" lon="-1.16249">
        <ele>3.8</ele>
        <time>2020-06-02T15:30:34Z</time>
      </trkpt>
      <trkpt lat="46.35452" lon="-1.16253">
        <ele>3.8</ele>
        <time>2020-06-02T15:30:35Z</time>
      </trkpt>
      <trkpt lat="46.35454" lon="-1.16258">
        <ele>3.8</ele>
        <time>2020-06-02T15:30:36Z</time>
      </trkpt>
      <trkpt lat="46.35455" lon="-1.16263">
        <ele>3.8</ele>
        <time>2020-06-02T15:30:37Z</time>
      </trkpt>
      <trkpt lat="46.35457" lon="-1.16269">
        <ele>3.8</ele>
        <time>2020-06-02T15:30:38Z</time>
      </trkpt>
      <trkpt lat="46.35458" lon="-1.16275">
        <ele>3.8</ele>
        <time>2020-06-02T15:30:39Z</time>
      </trkpt>
      <trkpt lat="46.35459" lon="-1.16281">
        <ele>3.8</ele>
        <time>2020-06-02T15:30:40Z</time>
      </trkpt>
      <trkpt lat="46.3546" lon="-1.1629">
        <ele>3.8</ele>
        <time>2020-06-02T15:30:41Z</time>
      </trkpt>
      <trkpt lat="46.35461" lon="-1.16298">
        <ele>3.8</ele>
        <time>2020-06-02T15:30:42Z</time>
      </trkpt>
      <trkpt lat="46.35462" lon="-1.16304">
        <ele>3.8</ele>
        <time>2020-06-02T15:30:43Z</time>
      </trkpt>
      <trkpt lat="46.35462" lon="-1.16312">
        <ele>3.8</ele>
        <time>2020-06-02T15:30:44Z</time>
      </trkpt>
      <trkpt lat="46.35463" lon="-1.16319">
        <ele>3.8</ele>
        <time>2020-06-02T15:30:45Z</time>
      </trkpt>
      <trkpt lat="46.35464" lon="-1.16327">
        <ele>3.8</ele>
        <time>2020-06-02T15:30:46Z</time>
      </trkpt>
      <trkpt lat="46.35465" lon="-1.16335">
        <ele>3.8</ele>
        <time>2020-06-02T15:30:47Z</time>
      </trkpt>
      <trkpt lat="46.35466" lon="-1.16343">
        <ele>3.7</ele>
        <time>2020-06-02T15:30:48Z</time>
      </trkpt>
      <trkpt lat="46.35467" lon="-1.16351">
        <ele>3.7</ele>
        <time>2020-06-02T15:30:49Z</time>
      </trkpt>
      <trkpt lat="46.35468" lon="-1.1636">
        <ele>3.7</ele>
        <time>2020-06-02T15:30:50Z</time>
      </trkpt>
      <trkpt lat="46.3547" lon="-1.16368">
        <ele>3.7</ele>
        <time>2020-06-02T15:30:51Z</time>
      </trkpt>
      <trkpt lat="46.35471" lon="-1.16377">
        <ele>3.7</ele>
        <time>2020-06-02T15:30:52Z</time>
      </trkpt>
      <trkpt lat="46.35472" lon="-1.16386">
        <ele>3.7</ele>
        <time>2020-06-02T15:30:53Z</time>
      </trkpt>
      <trkpt lat="46.35473" lon="-1.16394">
        <ele>3.7</ele>
        <time>2020-06-02T15:30:54Z</time>
      </trkpt>
      <trkpt lat="46.35473" lon="-1.16403">
        <ele>3.7</ele>
        <time>2020-06-02T15:30:55Z</time>
      </trkpt>
      <trkpt lat="46.35474" lon="-1.16412">
        <ele>3.7</ele>
        <time>2020-06-02T15:30:56Z</time>
      </trkpt>
      <trkpt lat="46.35474" lon="-1.1642">
        <ele>3.7</ele>
        <time>2020-06-02T15:30:57Z</time>
      </trkpt>
      <trkpt lat="46.35474" lon="-1.16428">
        <ele>3.8</ele>
        <time>2020-06-02T15:30:58Z</time>
      </trkpt>
      <trkpt lat="46.35474" lon="-1.16436">
        <ele>3.8</ele>
        <time>2020-06-02T15:30:59Z</time>
      </trkpt>
      <trkpt lat="46.35475" lon="-1.16445">
        <ele>3.8</ele>
        <time>2020-06-02T15:31:00Z</time>
      </trkpt>
      <trkpt lat="46.35476" lon="-1.16453">
        <ele>3.8</ele>
        <time>2020-06-02T15:31:01Z</time>
      </trkpt>
      <trkpt lat="46.35478" lon="-1.1646">
        <ele>3.8</ele>
        <time>2020-06-02T15:31:02Z</time>
      </trkpt>
      <trkpt lat="46.3548" lon="-1.16467">
        <ele>3.8</ele>
        <time>2020-06-02T15:31:03Z</time>
      </trkpt>
      <trkpt lat="46.35483" lon="-1.16474">
        <ele>3.8</ele>
        <time>2020-06-02T15:31:04Z</time>
      </trkpt>
      <trkpt lat="46.35485" lon="-1.16482">
        <ele>3.8</ele>
        <time>2020-06-02T15:31:05Z</time>
      </trkpt>
      <trkpt lat="46.35487" lon="-1.16489">
        <ele>3.8</ele>
        <time>2020-06-02T15:31:06Z</time>
      </trkpt>
      <trkpt lat="46.35489" lon="-1.16496">
        <ele>3.8</ele>
        <time>2020-06-02T15:31:07Z</time>
      </trkpt>
      <trkpt lat="46.3549" lon="-1.16504">
        <ele>3.8</ele>
        <time>2020-06-02T15:31:08Z</time>
      </trkpt>
      <trkpt lat="46.35493" lon="-1.16511">
        <ele>3.8</ele>
        <time>2020-06-02T15:31:09Z</time>
      </trkpt>
      <trkpt lat="46.35495" lon="-1.16519">
        <ele>3.8</ele>
        <time>2020-06-02T15:31:10Z</time>
      </trkpt>
      <trkpt lat="46.35498" lon="-1.16527">
        <ele>3.8</ele>
        <time>2020-06-02T15:31:11Z</time>
      </trkpt>
      <trkpt lat="46.355" lon="-1.16534">
        <ele>3.8</ele>
        <time>2020-06-02T15:31:12Z</time>
      </trkpt>
      <trkpt lat="46.35503" lon="-1.16541">
        <ele>3.8</ele>
        <time>2020-06-02T15:31:13Z</time>
      </trkpt>
      <trkpt lat="46.35505" lon="-1.16548">
        <ele>3.8</ele>
        <time>2020-06-02T15:31:14Z</time>
      </trkpt>
      <trkpt lat="46.35508" lon="-1.16554">
        <ele>3.8</ele>
        <time>2020-06-02T15:31:15Z</time>
      </trkpt>
      <trkpt lat="46.3551" lon="-1.1656">
        <ele>3.8</ele>
        <time>2020-06-02T15:31:16Z</time>
      </trkpt>
      <trkpt lat="46.35514" lon="-1.16565">
        <ele>3.8</ele>
        <time>2020-06-02T15:31:17Z</time>
      </trkpt>
      <trkpt lat="46.35518" lon="-1.16568">
        <ele>3.8</ele>
        <time>2020-06-02T15:31:18Z</time>
      </trkpt>
      <trkpt lat="46.35524" lon="-1.16568">
        <ele>3.8</ele>
        <time>2020-06-02T15:31:19Z</time>
      </trkpt>
      <trkpt lat="46.3553" lon="-1.16567">
        <ele>3.8</ele>
        <time>2020-06-02T15:31:20Z</time>
      </trkpt>
      <trkpt lat="46.35535" lon="-1.16567">
        <ele>3.8</ele>
        <time>2020-06-02T15:31:21Z</time>
      </trkpt>
      <trkpt lat="46.3554" lon="-1.16567">
        <ele>3.8</ele>
        <time>2020-06-02T15:31:22Z</time>
      </trkpt>
      <trkpt lat="46.35546" lon="-1.16567">
        <ele>3.8</ele>
        <time>2020-06-02T15:31:23Z</time>
      </trkpt>
      <trkpt lat="46.35551" lon="-1.16568">
        <ele>3.8</ele>
        <time>2020-06-02T15:31:24Z</time>
      </trkpt>
      <trkpt lat="46.35556" lon="-1.16569">
        <ele>3.8</ele>
        <time>2020-06-02T15:31:25Z</time>
      </trkpt>
      <trkpt lat="46.35561" lon="-1.16571">
        <ele>3.7</ele>
        <time>2020-06-02T15:31:26Z</time>
      </trkpt>
      <trkpt lat="46.35564" lon="-1.16573">
        <ele>3.7</ele>
        <time>2020-06-02T15:31:27Z</time>
      </trkpt>
      <trkpt lat="46.35567" lon="-1.16575">
        <ele>3.7</ele>
        <time>2020-06-02T15:31:28Z</time>
      </trkpt>
      <trkpt lat="46.3557" lon="-1.16577">
        <ele>3.7</ele>
        <time>2020-06-02T15:31:29Z</time>
      </trkpt>
      <trkpt lat="46.35572" lon="-1.16577">
        <ele>3.7</ele>
        <time>2020-06-02T15:31:30Z</time>
      </trkpt>
      <trkpt lat="46.35575" lon="-1.16577">
        <ele>3.7</ele>
        <time>2020-06-02T15:31:31Z</time>
      </trkpt>
      <trkpt lat="46.35577" lon="-1.16581">
        <ele>3.7</ele>
        <time>2020-06-02T15:31:32Z</time>
      </trkpt>
      <trkpt lat="46.35578" lon="-1.16585">
        <ele>3.7</ele>
        <time>2020-06-02T15:31:33Z</time>
      </trkpt>
      <trkpt lat="46.35578" lon="-1.1659">
        <ele>3.8</ele>
        <time>2020-06-02T15:31:34Z</time>
      </trkpt>
      <trkpt lat="46.35578" lon="-1.16591">
        <ele>3.8</ele>
        <time>2020-06-02T15:31:35Z</time>
      </trkpt>
      <trkpt lat="46.35578" lon="-1.16593">
        <ele>3.8</ele>
        <time>2020-06-02T15:31:36Z</time>
      </trkpt>
      <trkpt lat="46.35578" lon="-1.16595">
        <ele>3.8</ele>
        <time>2020-06-02T15:31:37Z</time>
      </trkpt>
      <trkpt lat="46.35578" lon="-1.166">
        <ele>3.8</ele>
        <time>2020-06-02T15:31:38Z</time>
      </trkpt>
      <trkpt lat="46.35578" lon="-1.16602">
        <ele>3.8</ele>
        <time>2020-06-02T15:31:39Z</time>
      </trkpt>
      <trkpt lat="46.35577" lon="-1.16605">
        <ele>3.8</ele>
        <time>2020-06-02T15:31:40Z</time>
      </trkpt>
      <trkpt lat="46.35577" lon="-1.16606">
        <ele>3.8</ele>
        <time>2020-06-02T15:31:41Z</time>
      </trkpt>
      <trkpt lat="46.35577" lon="-1.1661">
        <ele>3.8</ele>
        <time>2020-06-02T15:31:42Z</time>
      </trkpt>
      <trkpt lat="46.35577" lon="-1.16612">
        <ele>3.8</ele>
        <time>2020-06-02T15:31:43Z</time>
      </trkpt>
      <trkpt lat="46.35577" lon="-1.16614">
        <ele>3.8</ele>
        <time>2020-06-02T15:31:44Z</time>
      </trkpt>
      <trkpt lat="46.35579" lon="-1.16616">
        <ele>3.8</ele>
        <time>2020-06-02T15:31:45Z</time>
      </trkpt>
      <trkpt lat="46.35583" lon="-1.16615">
        <ele>3.8</ele>
        <time>2020-06-02T15:31:46Z</time>
      </trkpt>
      <trkpt lat="46.35584" lon="-1.16614">
        <ele>3.8</ele>
        <time>2020-06-02T15:31:47Z</time>
      </trkpt>
      <trkpt lat="46.35587" lon="-1.16615">
        <ele>3.8</ele>
        <time>2020-06-02T15:31:48Z</time>
      </trkpt>
      <trkpt lat="46.3559" lon="-1.16616">
        <ele>3.8</ele>
        <time>2020-06-02T15:31:49Z</time>
      </trkpt>
      <trkpt lat="46.35594" lon="-1.16617">
        <ele>3.8</ele>
        <time>2020-06-02T15:31:50Z</time>
      </trkpt>
      <trkpt lat="46.35597" lon="-1.16618">
        <ele>3.8</ele>
        <time>2020-06-02T15:31:51Z</time>
      </trkpt>
      <trkpt lat="46.35602" lon="-1.16618">
        <ele>3.8</ele>
        <time>2020-06-02T15:31:52Z</time>
      </trkpt>
      <trkpt lat="46.35606" lon="-1.1662">
        <ele>3.8</ele>
        <time>2020-06-02T15:31:53Z</time>
      </trkpt>
      <trkpt lat="46.3561" lon="-1.16621">
        <ele>3.8</ele>
        <time>2020-06-02T15:31:54Z</time>
      </trkpt>
      <trkpt lat="46.35615" lon="-1.1662">
        <ele>3.8</ele>
        <time>2020-06-02T15:31:55Z</time>
      </trkpt>
      <trkpt lat="46.3562" lon="-1.16621">
        <ele>3.8</ele>
        <time>2020-06-02T15:31:56Z</time>
      </trkpt>
      <trkpt lat="46.35625" lon="-1.16621">
        <ele>3.8</ele>
        <time>2020-06-02T15:31:57Z</time>
      </trkpt>
      <trkpt lat="46.3563" lon="-1.16623">
        <ele>3.8</ele>
        <time>2020-06-02T15:31:58Z</time>
      </trkpt>
      <trkpt lat="46.35636" lon="-1.16624">
        <ele>3.8</ele>
        <time>2020-06-02T15:31:59Z</time>
      </trkpt>
      <trkpt lat="46.3564" lon="-1.16626">
        <ele>3.8</ele>
        <time>2020-06-02T15:32:00Z</time>
      </trkpt>
      <trkpt lat="46.35645" lon="-1.16628">
        <ele>3.8</ele>
        <time>2020-06-02T15:32:01Z</time>
      </trkpt>
      <trkpt lat="46.3565" lon="-1.16629">
        <ele>3.7</ele>
        <time>2020-06-02T15:32:02Z</time>
      </trkpt>
      <trkpt lat="46.35656" lon="-1.16631">
        <ele>3.7</ele>
        <time>2020-06-02T15:32:03Z</time>
      </trkpt>
      <trkpt lat="46.35661" lon="-1.16632">
        <ele>3.7</ele>
        <time>2020-06-02T15:32:04Z</time>
      </trkpt>
      <trkpt lat="46.35667" lon="-1.16633">
        <ele>3.7</ele>
        <time>2020-06-02T15:32:05Z</time>
      </trkpt>
      <trkpt lat="46.35672" lon="-1.16634">
        <ele>3.7</ele>
        <time>2020-06-02T15:32:06Z</time>
      </trkpt>
      <trkpt lat="46.35679" lon="-1.16634">
        <ele>3.7</ele>
        <time>2020-06-02T15:32:07Z</time>
      </trkpt>
      <trkpt lat="46.35685" lon="-1.16635">
        <ele>3.7</ele>
        <time>2020-06-02T15:32:08Z</time>
      </trkpt>
      <trkpt lat="46.3569" lon="-1.16636">
        <ele>3.7</ele>
        <time>2020-06-02T15:32:09Z</time>
      </trkpt>
      <trkpt lat="46.35696" lon="-1.16637">
        <ele>3.7</ele>
        <time>2020-06-02T15:32:10Z</time>
      </trkpt>
      <trkpt lat="46.35701" lon="-1.16638">
        <ele>3.7</ele>
        <time>2020-06-02T15:32:11Z</time>
      </trkpt>
      <trkpt lat="46.35707" lon="-1.16639">
        <ele>3.7</ele>
        <time>2020-06-02T15:32:12Z</time>
      </trkpt>
      <trkpt lat="46.35712" lon="-1.1664">
        <ele>3.7</ele>
        <time>2020-06-02T15:32:13Z</time>
      </trkpt>
      <trkpt lat="46.35718" lon="-1.1664">
        <ele>3.7</ele>
        <time>2020-06-02T15:32:14Z</time>
      </trkpt>
      <trkpt lat="46.35724" lon="-1.16642">
        <ele>3.8</ele>
        <time>2020-06-02T15:32:15Z</time>
      </trkpt>
      <trkpt lat="46.35729" lon="-1.16642">
        <ele>3.8</ele>
        <time>2020-06-02T15:32:16Z</time>
      </trkpt>
      <trkpt lat="46.35734" lon="-1.16643">
        <ele>3.8</ele>
        <time>2020-06-02T15:32:17Z</time>
      </trkpt>
      <trkpt lat="46.3574" lon="-1.16643">
        <ele>3.8</ele>
        <time>2020-06-02T15:32:18Z</time>
      </trkpt>
      <trkpt lat="46.35745" lon="-1.16644">
        <ele>3.8</ele>
        <time>2020-06-02T15:32:19Z</time>
      </trkpt>
      <trkpt lat="46.3575" lon="-1.16645">
        <ele>3.8</ele>
        <time>2020-06-02T15:32:20Z</time>
      </trkpt>
      <trkpt lat="46.35755" lon="-1.16646">
        <ele>3.8</ele>
        <time>2020-06-02T15:32:21Z</time>
      </trkpt>
      <trkpt lat="46.35761" lon="-1.16647">
        <ele>3.8</ele>
        <time>2020-06-02T15:32:22Z</time>
      </trkpt>
      <trkpt lat="46.35767" lon="-1.16647">
        <ele>3.8</ele>
        <time>2020-06-02T15:32:23Z</time>
      </trkpt>
      <trkpt lat="46.35773" lon="-1.16649">
        <ele>3.7</ele>
        <time>2020-06-02T15:32:24Z</time>
      </trkpt>
      <trkpt lat="46.35779" lon="-1.16651">
        <ele>3.7</ele>
        <time>2020-06-02T15:32:25Z</time>
      </trkpt>
      <trkpt lat="46.35785" lon="-1.16653">
        <ele>3.7</ele>
        <time>2020-06-02T15:32:26Z</time>
      </trkpt>
      <trkpt lat="46.3579" lon="-1.16653">
        <ele>3.7</ele>
        <time>2020-06-02T15:32:27Z</time>
      </trkpt>
      <trkpt lat="46.35796" lon="-1.16654">
        <ele>3.7</ele>
        <time>2020-06-02T15:32:28Z</time>
      </trkpt>
      <trkpt lat="46.35801" lon="-1.16654">
        <ele>3.7</ele>
        <time>2020-06-02T15:32:29Z</time>
      </trkpt>
      <trkpt lat="46.35806" lon="-1.16655">
        <ele>3.7</ele>
        <time>2020-06-02T15:32:30Z</time>
      </trkpt>
      <trkpt lat="46.3581" lon="-1.16655">
        <ele>3.7</ele>
        <time>2020-06-02T15:32:31Z</time>
      </trkpt>
      <trkpt lat="46.35814" lon="-1.16657">
        <ele>3.7</ele>
        <time>2020-06-02T15:32:32Z</time>
      </trkpt>
      <trkpt lat="46.35818" lon="-1.16658">
        <ele>3.7</ele>
        <time>2020-06-02T15:32:33Z</time>
      </trkpt>
      <trkpt lat="46.35822" lon="-1.16658">
        <ele>3.6</ele>
        <time>2020-06-02T15:32:34Z</time>
      </trkpt>
      <trkpt lat="46.35826" lon="-1.16659">
        <ele>3.6</ele>
        <time>2020-06-02T15:32:35Z</time>
      </trkpt>
      <trkpt lat="46.3583" lon="-1.16659">
        <ele>3.5</ele>
        <time>2020-06-02T15:32:36Z</time>
      </trkpt>
      <trkpt lat="46.35833" lon="-1.1666">
        <ele>3.5</ele>
        <time>2020-06-02T15:32:37Z</time>
      </trkpt>
      <trkpt lat="46.35837" lon="-1.16662">
        <ele>3.4</ele>
        <time>2020-06-02T15:32:38Z</time>
      </trkpt>
      <trkpt lat="46.35839" lon="-1.16665">
        <ele>3.4</ele>
        <time>2020-06-02T15:32:39Z</time>
      </trkpt>
      <trkpt lat="46.35839" lon="-1.16666">
        <ele>3.3</ele>
        <time>2020-06-02T15:32:40Z</time>
      </trkpt>
      <trkpt lat="46.35836" lon="-1.16676">
        <ele>3.3</ele>
        <time>2020-06-02T15:32:41Z</time>
      </trkpt>
      <trkpt lat="46.35834" lon="-1.16682">
        <ele>3.2</ele>
        <time>2020-06-02T15:32:42Z</time>
      </trkpt>
      <trkpt lat="46.35833" lon="-1.16688">
        <ele>3.2</ele>
        <time>2020-06-02T15:32:43Z</time>
      </trkpt>
      <trkpt lat="46.35833" lon="-1.16695">
        <ele>3.2</ele>
        <time>2020-06-02T15:32:44Z</time>
      </trkpt>
      <trkpt lat="46.35832" lon="-1.16703">
        <ele>3.2</ele>
        <time>2020-06-02T15:32:45Z</time>
      </trkpt>
      <trkpt lat="46.3583" lon="-1.1671">
        <ele>3.1</ele>
        <time>2020-06-02T15:32:46Z</time>
      </trkpt>
      <trkpt lat="46.35829" lon="-1.16718">
        <ele>3.1</ele>
        <time>2020-06-02T15:32:47Z</time>
      </trkpt>
      <trkpt lat="46.35828" lon="-1.16724">
        <ele>3.1</ele>
        <time>2020-06-02T15:32:48Z</time>
      </trkpt>
      <trkpt lat="46.35827" lon="-1.16731">
        <ele>3</ele>
        <time>2020-06-02T15:32:49Z</time>
      </trkpt>
      <trkpt lat="46.35826" lon="-1.16737">
        <ele>3</ele>
        <time>2020-06-02T15:32:50Z</time>
      </trkpt>
      <trkpt lat="46.35825" lon="-1.16744">
        <ele>3</ele>
        <time>2020-06-02T15:32:51Z</time>
      </trkpt>
      <trkpt lat="46.35824" lon="-1.1675">
        <ele>3</ele>
        <time>2020-06-02T15:32:52Z</time>
      </trkpt>
      <trkpt lat="46.35823" lon="-1.16756">
        <ele>3</ele>
        <time>2020-06-02T15:32:53Z</time>
      </trkpt>
      <trkpt lat="46.35821" lon="-1.16763">
        <ele>3</ele>
        <time>2020-06-02T15:32:54Z</time>
      </trkpt>
      <trkpt lat="46.35821" lon="-1.16769">
        <ele>3</ele>
        <time>2020-06-02T15:32:55Z</time>
      </trkpt>
      <trkpt lat="46.3582" lon="-1.16776">
        <ele>3</ele>
        <time>2020-06-02T15:32:56Z</time>
      </trkpt>
      <trkpt lat="46.35818" lon="-1.16783">
        <ele>3</ele>
        <time>2020-06-02T15:32:57Z</time>
      </trkpt>
      <trkpt lat="46.35817" lon="-1.1679">
        <ele>3.1</ele>
        <time>2020-06-02T15:32:58Z</time>
      </trkpt>
      <trkpt lat="46.35816" lon="-1.16798">
        <ele>3.1</ele>
        <time>2020-06-02T15:32:59Z</time>
      </trkpt>
      <trkpt lat="46.35815" lon="-1.16805">
        <ele>3.2</ele>
        <time>2020-06-02T15:33:00Z</time>
      </trkpt>
      <trkpt lat="46.35814" lon="-1.16812">
        <ele>3.3</ele>
        <time>2020-06-02T15:33:01Z</time>
      </trkpt>
      <trkpt lat="46.35814" lon="-1.1682">
        <ele>3.3</ele>
        <time>2020-06-02T15:33:02Z</time>
      </trkpt>
      <trkpt lat="46.35814" lon="-1.16827">
        <ele>3.4</ele>
        <time>2020-06-02T15:33:03Z</time>
      </trkpt>
      <trkpt lat="46.35815" lon="-1.16832">
        <ele>3.5</ele>
        <time>2020-06-02T15:33:04Z</time>
      </trkpt>
      <trkpt lat="46.35817" lon="-1.16838">
        <ele>3.5</ele>
        <time>2020-06-02T15:33:05Z</time>
      </trkpt>
      <trkpt lat="46.3582" lon="-1.16842">
        <ele>3.6</ele>
        <time>2020-06-02T15:33:06Z</time>
      </trkpt>
      <trkpt lat="46.35823" lon="-1.16847">
        <ele>3.6</ele>
        <time>2020-06-02T15:33:07Z</time>
      </trkpt>
      <trkpt lat="46.35826" lon="-1.16852">
        <ele>3.6</ele>
        <time>2020-06-02T15:33:08Z</time>
      </trkpt>
      <trkpt lat="46.35829" lon="-1.16857">
        <ele>3.6</ele>
        <time>2020-06-02T15:33:09Z</time>
      </trkpt>
      <trkpt lat="46.35832" lon="-1.16862">
        <ele>3.6</ele>
        <time>2020-06-02T15:33:10Z</time>
      </trkpt>
      <trkpt lat="46.35835" lon="-1.16867">
        <ele>3.6</ele>
        <time>2020-06-02T15:33:11Z</time>
      </trkpt>
      <trkpt lat="46.35838" lon="-1.16873">
        <ele>3.7</ele>
        <time>2020-06-02T15:33:12Z</time>
      </trkpt>
      <trkpt lat="46.35842" lon="-1.16879">
        <ele>3.7</ele>
        <time>2020-06-02T15:33:13Z</time>
      </trkpt>
      <trkpt lat="46.35845" lon="-1.16885">
        <ele>3.7</ele>
        <time>2020-06-02T15:33:14Z</time>
      </trkpt>
      <trkpt lat="46.35849" lon="-1.1689">
        <ele>3.7</ele>
        <time>2020-06-02T15:33:15Z</time>
      </trkpt>
      <trkpt lat="46.35853" lon="-1.16896">
        <ele>3.7</ele>
        <time>2020-06-02T15:33:16Z</time>
      </trkpt>
      <trkpt lat="46.35858" lon="-1.16901">
        <ele>3.7</ele>
        <time>2020-06-02T15:33:17Z</time>
      </trkpt>
      <trkpt lat="46.35862" lon="-1.16907">
        <ele>3.7</ele>
        <time>2020-06-02T15:33:18Z</time>
      </trkpt>
      <trkpt lat="46.35865" lon="-1.16912">
        <ele>3.7</ele>
        <time>2020-06-02T15:33:19Z</time>
      </trkpt>
      <trkpt lat="46.35869" lon="-1.16917">
        <ele>3.7</ele>
        <time>2020-06-02T15:33:20Z</time>
      </trkpt>
      <trkpt lat="46.35873" lon="-1.16922">
        <ele>3.7</ele>
        <time>2020-06-02T15:33:21Z</time>
      </trkpt>
      <trkpt lat="46.35877" lon="-1.16927">
        <ele>3.7</ele>
        <time>2020-06-02T15:33:22Z</time>
      </trkpt>
      <trkpt lat="46.35882" lon="-1.16933">
        <ele>3.7</ele>
        <time>2020-06-02T15:33:23Z</time>
      </trkpt>
      <trkpt lat="46.35886" lon="-1.16938">
        <ele>3.7</ele>
        <time>2020-06-02T15:33:24Z</time>
      </trkpt>
      <trkpt lat="46.3589" lon="-1.16945">
        <ele>3.6</ele>
        <time>2020-06-02T15:33:25Z</time>
      </trkpt>
      <trkpt lat="46.35894" lon="-1.16951">
        <ele>3.6</ele>
        <time>2020-06-02T15:33:26Z</time>
      </trkpt>
      <trkpt lat="46.35898" lon="-1.16957">
        <ele>3.6</ele>
        <time>2020-06-02T15:33:27Z</time>
      </trkpt>
      <trkpt lat="46.35902" lon="-1.16962">
        <ele>3.6</ele>
        <time>2020-06-02T15:33:28Z</time>
      </trkpt>
      <trkpt lat="46.35904" lon="-1.16966">
        <ele>3.6</ele>
        <time>2020-06-02T15:33:29Z</time>
      </trkpt>
      <trkpt lat="46.35906" lon="-1.16969">
        <ele>3.6</ele>
        <time>2020-06-02T15:33:31Z</time>
      </trkpt>
      <trkpt lat="46.35906" lon="-1.16969">
        <ele>3.6</ele>
        <time>2020-06-02T15:33:32Z</time>
      </trkpt>
      <trkpt lat="46.35906" lon="-1.16969">
        <ele>3.6</ele>
        <time>2020-06-02T15:33:33Z</time>
      </trkpt>
      <trkpt lat="46.35906" lon="-1.16969">
        <ele>3.6</ele>
        <time>2020-06-02T15:33:34Z</time>
      </trkpt>
      <trkpt lat="46.35906" lon="-1.16969">
        <ele>3.6</ele>
        <time>2020-06-02T15:33:35Z</time>
      </trkpt>
      <trkpt lat="46.35906" lon="-1.16969">
        <ele>3.6</ele>
        <time>2020-06-02T15:33:36Z</time>
      </trkpt>
      <trkpt lat="46.35906" lon="-1.16969">
        <ele>3.6</ele>
        <time>2020-06-02T15:33:37Z</time>
      </trkpt>
      <trkpt lat="46.35906" lon="-1.16969">
        <ele>3.6</ele>
        <time>2020-06-02T15:33:38Z</time>
      </trkpt>
      <trkpt lat="46.35906" lon="-1.16969">
        <ele>3.6</ele>
        <time>2020-06-02T15:33:39Z</time>
      </trkpt>
      <trkpt lat="46.35906" lon="-1.16969">
        <ele>3.6</ele>
        <time>2020-06-02T15:33:40Z</time>
      </trkpt>
      <trkpt lat="46.35906" lon="-1.16969">
        <ele>3.6</ele>
        <time>2020-06-02T15:33:41Z</time>
      </trkpt>
      <trkpt lat="46.35907" lon="-1.16969">
        <ele>3.6</ele>
        <time>2020-06-02T15:33:42Z</time>
      </trkpt>
      <trkpt lat="46.35907" lon="-1.16969">
        <ele>3.6</ele>
        <time>2020-06-02T15:33:43Z</time>
      </trkpt>
      <trkpt lat="46.35907" lon="-1.16969">
        <ele>3.6</ele>
        <time>2020-06-02T15:33:44Z</time>
      </trkpt>
      <trkpt lat="46.35907" lon="-1.16969">
        <ele>3.6</ele>
        <time>2020-06-02T15:33:45Z</time>
      </trkpt>
      <trkpt lat="46.35907" lon="-1.16969">
        <ele>3.6</ele>
        <time>2020-06-02T15:33:46Z</time>
      </trkpt>
      <trkpt lat="46.35907" lon="-1.16969">
        <ele>3.6</ele>
        <time>2020-06-02T15:33:47Z</time>
      </trkpt>
      <trkpt lat="46.35907" lon="-1.16969">
        <ele>3.6</ele>
        <time>2020-06-02T15:33:48Z</time>
      </trkpt>
      <trkpt lat="46.35907" lon="-1.16969">
        <ele>3.6</ele>
        <time>2020-06-02T15:33:49Z</time>
      </trkpt>
      <trkpt lat="46.35907" lon="-1.16969">
        <ele>3.6</ele>
        <time>2020-06-02T15:33:50Z</time>
      </trkpt>
      <trkpt lat="46.35907" lon="-1.1697">
        <ele>3.6</ele>
        <time>2020-06-02T15:33:51Z</time>
      </trkpt>
      <trkpt lat="46.35907" lon="-1.1697">
        <ele>3.6</ele>
        <time>2020-06-02T15:33:52Z</time>
      </trkpt>
      <trkpt lat="46.35907" lon="-1.1697">
        <ele>3.6</ele>
        <time>2020-06-02T15:33:53Z</time>
      </trkpt>
      <trkpt lat="46.35907" lon="-1.1697">
        <ele>3.6</ele>
        <time>2020-06-02T15:33:54Z</time>
      </trkpt>
      <trkpt lat="46.35907" lon="-1.1697">
        <ele>3.6</ele>
        <time>2020-06-02T15:33:55Z</time>
      </trkpt>
      <trkpt lat="46.35907" lon="-1.1697">
        <ele>3.6</ele>
        <time>2020-06-02T15:33:56Z</time>
      </trkpt>
      <trkpt lat="46.35907" lon="-1.1697">
        <ele>3.6</ele>
        <time>2020-06-02T15:33:57Z</time>
      </trkpt>
      <trkpt lat="46.35908" lon="-1.1697">
        <ele>3.6</ele>
        <time>2020-06-02T15:33:58Z</time>
      </trkpt>
      <trkpt lat="46.35908" lon="-1.1697">
        <ele>3.6</ele>
        <time>2020-06-02T15:33:59Z</time>
      </trkpt>
      <trkpt lat="46.35908" lon="-1.1697">
        <ele>3.6</ele>
        <time>2020-06-02T15:34:00Z</time>
      </trkpt>
      <trkpt lat="46.35908" lon="-1.1697">
        <ele>3.6</ele>
        <time>2020-06-02T15:34:01Z</time>
      </trkpt>
      <trkpt lat="46.35908" lon="-1.1697">
        <ele>3.6</ele>
        <time>2020-06-02T15:34:02Z</time>
      </trkpt>
      <trkpt lat="46.35908" lon="-1.1697">
        <ele>3.6</ele>
        <time>2020-06-02T15:34:03Z</time>
      </trkpt>
      <trkpt lat="46.35908" lon="-1.1697">
        <ele>3.6</ele>
        <time>2020-06-02T15:34:04Z</time>
      </trkpt>
      <trkpt lat="46.35908" lon="-1.1697">
        <ele>3.6</ele>
        <time>2020-06-02T15:34:05Z</time>
      </trkpt>
      <trkpt lat="46.35908" lon="-1.1697">
        <ele>3.6</ele>
        <time>2020-06-02T15:34:06Z</time>
      </trkpt>
      <trkpt lat="46.35908" lon="-1.1697">
        <ele>3.6</ele>
        <time>2020-06-02T15:34:07Z</time>
      </trkpt>
      <trkpt lat="46.35908" lon="-1.1697">
        <ele>3.6</ele>
        <time>2020-06-02T15:34:08Z</time>
      </trkpt>
      <trkpt lat="46.35908" lon="-1.1697">
        <ele>3.6</ele>
        <time>2020-06-02T15:34:09Z</time>
      </trkpt>
      <trkpt lat="46.35908" lon="-1.1697">
        <ele>3.6</ele>
        <time>2020-06-02T15:34:10Z</time>
      </trkpt>
      <trkpt lat="46.35908" lon="-1.1697">
        <ele>3.6</ele>
        <time>2020-06-02T15:34:11Z</time>
      </trkpt>
      <trkpt lat="46.35908" lon="-1.1697">
        <ele>3.6</ele>
        <time>2020-06-02T15:34:12Z</time>
      </trkpt>
      <trkpt lat="46.35908" lon="-1.1697">
        <ele>3.6</ele>
        <time>2020-06-02T15:34:13Z</time>
      </trkpt>
      <trkpt lat="46.35909" lon="-1.1697">
        <ele>3.6</ele>
        <time>2020-06-02T15:34:14Z</time>
      </trkpt>
      <trkpt lat="46.35909" lon="-1.16971">
        <ele>3.6</ele>
        <time>2020-06-02T15:34:15Z</time>
      </trkpt>
      <trkpt lat="46.35909" lon="-1.16971">
        <ele>3.6</ele>
        <time>2020-06-02T15:34:16Z</time>
      </trkpt>
      <trkpt lat="46.35909" lon="-1.16971">
        <ele>3.6</ele>
        <time>2020-06-02T15:34:17Z</time>
      </trkpt>
      <trkpt lat="46.35909" lon="-1.16971">
        <ele>3.6</ele>
        <time>2020-06-02T15:34:18Z</time>
      </trkpt>
      <trkpt lat="46.35909" lon="-1.16971">
        <ele>3.6</ele>
        <time>2020-06-02T15:34:19Z</time>
      </trkpt>
      <trkpt lat="46.35909" lon="-1.16971">
        <ele>3.6</ele>
        <time>2020-06-02T15:34:20Z</time>
      </trkpt>
      <trkpt lat="46.35909" lon="-1.16971">
        <ele>3.6</ele>
        <time>2020-06-02T15:34:21Z</time>
      </trkpt>
      <trkpt lat="46.35909" lon="-1.16971">
        <ele>3.6</ele>
        <time>2020-06-02T15:34:22Z</time>
      </trkpt>
      <trkpt lat="46.35909" lon="-1.16971">
        <ele>3.6</ele>
        <time>2020-06-02T15:34:23Z</time>
      </trkpt>
      <trkpt lat="46.35909" lon="-1.16971">
        <ele>3.6</ele>
        <time>2020-06-02T15:34:24Z</time>
      </trkpt>
      <trkpt lat="46.35909" lon="-1.16971">
        <ele>3.6</ele>
        <time>2020-06-02T15:34:25Z</time>
      </trkpt>
      <trkpt lat="46.35909" lon="-1.16971">
        <ele>3.6</ele>
        <time>2020-06-02T15:34:26Z</time>
      </trkpt>
      <trkpt lat="46.35909" lon="-1.16971">
        <ele>3.6</ele>
        <time>2020-06-02T15:34:27Z</time>
      </trkpt>
      <trkpt lat="46.35909" lon="-1.16971">
        <ele>3.6</ele>
        <time>2020-06-02T15:34:28Z</time>
      </trkpt>
      <trkpt lat="46.35909" lon="-1.16971">
        <ele>3.6</ele>
        <time>2020-06-02T15:34:29Z</time>
      </trkpt>
      <trkpt lat="46.3591" lon="-1.16971">
        <ele>3.6</ele>
        <time>2020-06-02T15:34:30Z</time>
      </trkpt>
      <trkpt lat="46.3591" lon="-1.16971">
        <ele>3.6</ele>
        <time>2020-06-02T15:34:31Z</time>
      </trkpt>
      <trkpt lat="46.3591" lon="-1.16971">
        <ele>3.6</ele>
        <time>2020-06-02T15:34:32Z</time>
      </trkpt>
      <trkpt lat="46.3591" lon="-1.16971">
        <ele>3.6</ele>
        <time>2020-06-02T15:34:33Z</time>
      </trkpt>
      <trkpt lat="46.3591" lon="-1.16971">
        <ele>3.6</ele>
        <time>2020-06-02T15:34:34Z</time>
      </trkpt>
      <trkpt lat="46.3591" lon="-1.16971">
        <ele>3.6</ele>
        <time>2020-06-02T15:34:35Z</time>
      </trkpt>
      <trkpt lat="46.3591" lon="-1.16971">
        <ele>3.6</ele>
        <time>2020-06-02T15:34:36Z</time>
      </trkpt>
      <trkpt lat="46.3591" lon="-1.16971">
        <ele>3.6</ele>
        <time>2020-06-02T15:34:37Z</time>
      </trkpt>
      <trkpt lat="46.3591" lon="-1.16971">
        <ele>3.6</ele>
        <time>2020-06-02T15:34:38Z</time>
      </trkpt>
      <trkpt lat="46.35913" lon="-1.16975">
        <ele>3.6</ele>
        <time>2020-06-02T15:34:39Z</time>
      </trkpt>
      <trkpt lat="46.35914" lon="-1.16976">
        <ele>3.6</ele>
        <time>2020-06-02T15:34:40Z</time>
      </trkpt>
      <trkpt lat="46.35916" lon="-1.16979">
        <ele>3.6</ele>
        <time>2020-06-02T15:34:41Z</time>
      </trkpt>
      <trkpt lat="46.35918" lon="-1.16983">
        <ele>3.6</ele>
        <time>2020-06-02T15:34:42Z</time>
      </trkpt>
      <trkpt lat="46.35921" lon="-1.16986">
        <ele>3.6</ele>
        <time>2020-06-02T15:34:43Z</time>
      </trkpt>
      <trkpt lat="46.35924" lon="-1.16991">
        <ele>3.6</ele>
        <time>2020-06-02T15:34:44Z</time>
      </trkpt>
      <trkpt lat="46.35926" lon="-1.16995">
        <ele>3.6</ele>
        <time>2020-06-02T15:34:45Z</time>
      </trkpt>
      <trkpt lat="46.3593" lon="-1.17">
        <ele>3.6</ele>
        <time>2020-06-02T15:34:46Z</time>
      </trkpt>
      <trkpt lat="46.35934" lon="-1.17004">
        <ele>3.6</ele>
        <time>2020-06-02T15:34:47Z</time>
      </trkpt>
      <trkpt lat="46.35937" lon="-1.17009">
        <ele>3.6</ele>
        <time>2020-06-02T15:34:48Z</time>
      </trkpt>
      <trkpt lat="46.35941" lon="-1.17014">
        <ele>3.6</ele>
        <time>2020-06-02T15:34:49Z</time>
      </trkpt>
      <trkpt lat="46.35945" lon="-1.1702">
        <ele>3.6</ele>
        <time>2020-06-02T15:34:50Z</time>
      </trkpt>
      <trkpt lat="46.35949" lon="-1.17026">
        <ele>3.6</ele>
        <time>2020-06-02T15:34:51Z</time>
      </trkpt>
      <trkpt lat="46.35952" lon="-1.17031">
        <ele>3.6</ele>
        <time>2020-06-02T15:34:52Z</time>
      </trkpt>
      <trkpt lat="46.35956" lon="-1.17036">
        <ele>3.6</ele>
        <time>2020-06-02T15:34:53Z</time>
      </trkpt>
      <trkpt lat="46.35961" lon="-1.17043">
        <ele>3.6</ele>
        <time>2020-06-02T15:34:54Z</time>
      </trkpt>
      <trkpt lat="46.35965" lon="-1.17047">
        <ele>3.6</ele>
        <time>2020-06-02T15:34:55Z</time>
      </trkpt>
      <trkpt lat="46.35969" lon="-1.17052">
        <ele>3.6</ele>
        <time>2020-06-02T15:34:56Z</time>
      </trkpt>
      <trkpt lat="46.35973" lon="-1.17057">
        <ele>3.6</ele>
        <time>2020-06-02T15:34:57Z</time>
      </trkpt>
      <trkpt lat="46.35977" lon="-1.17063">
        <ele>3.6</ele>
        <time>2020-06-02T15:34:58Z</time>
      </trkpt>
      <trkpt lat="46.35981" lon="-1.17069">
        <ele>3.6</ele>
        <time>2020-06-02T15:34:59Z</time>
      </trkpt>
      <trkpt lat="46.35986" lon="-1.17075">
        <ele>3.6</ele>
        <time>2020-06-02T15:35:00Z</time>
      </trkpt>
      <trkpt lat="46.3599" lon="-1.17081">
        <ele>3.6</ele>
        <time>2020-06-02T15:35:01Z</time>
      </trkpt>
      <trkpt lat="46.35994" lon="-1.17087">
        <ele>3.6</ele>
        <time>2020-06-02T15:35:02Z</time>
      </trkpt>
      <trkpt lat="46.35999" lon="-1.17093">
        <ele>3.6</ele>
        <time>2020-06-02T15:35:03Z</time>
      </trkpt>
      <trkpt lat="46.36003" lon="-1.17099">
        <ele>3.6</ele>
        <time>2020-06-02T15:35:04Z</time>
      </trkpt>
      <trkpt lat="46.36007" lon="-1.17104">
        <ele>3.6</ele>
        <time>2020-06-02T15:35:05Z</time>
      </trkpt>
      <trkpt lat="46.36011" lon="-1.1711">
        <ele>3.6</ele>
        <time>2020-06-02T15:35:06Z</time>
      </trkpt>
      <trkpt lat="46.36016" lon="-1.17115">
        <ele>3.6</ele>
        <time>2020-06-02T15:35:07Z</time>
      </trkpt>
      <trkpt lat="46.36021" lon="-1.1712">
        <ele>3.6</ele>
        <time>2020-06-02T15:35:08Z</time>
      </trkpt>
      <trkpt lat="46.36025" lon="-1.17125">
        <ele>3.5</ele>
        <time>2020-06-02T15:35:09Z</time>
      </trkpt>
      <trkpt lat="46.36029" lon="-1.1713">
        <ele>3.5</ele>
        <time>2020-06-02T15:35:10Z</time>
      </trkpt>
      <trkpt lat="46.36034" lon="-1.17135">
        <ele>3.5</ele>
        <time>2020-06-02T15:35:11Z</time>
      </trkpt>
      <trkpt lat="46.36038" lon="-1.17141">
        <ele>3.5</ele>
        <time>2020-06-02T15:35:12Z</time>
      </trkpt>
      <trkpt lat="46.36043" lon="-1.17147">
        <ele>3.5</ele>
        <time>2020-06-02T15:35:13Z</time>
      </trkpt>
      <trkpt lat="46.36047" lon="-1.17153">
        <ele>3.5</ele>
        <time>2020-06-02T15:35:14Z</time>
      </trkpt>
      <trkpt lat="46.36052" lon="-1.17158">
        <ele>3.5</ele>
        <time>2020-06-02T15:35:15Z</time>
      </trkpt>
      <trkpt lat="46.36056" lon="-1.17165">
        <ele>3.5</ele>
        <time>2020-06-02T15:35:16Z</time>
      </trkpt>
      <trkpt lat="46.3606" lon="-1.17171">
        <ele>3.5</ele>
        <time>2020-06-02T15:35:17Z</time>
      </trkpt>
      <trkpt lat="46.36064" lon="-1.17177">
        <ele>3.5</ele>
        <time>2020-06-02T15:35:18Z</time>
      </trkpt>
      <trkpt lat="46.36069" lon="-1.17183">
        <ele>3.5</ele>
        <time>2020-06-02T15:35:19Z</time>
      </trkpt>
      <trkpt lat="46.36073" lon="-1.17189">
        <ele>3.5</ele>
        <time>2020-06-02T15:35:20Z</time>
      </trkpt>
      <trkpt lat="46.36078" lon="-1.17195">
        <ele>3.5</ele>
        <time>2020-06-02T15:35:21Z</time>
      </trkpt>
      <trkpt lat="46.36082" lon="-1.17202">
        <ele>3.5</ele>
        <time>2020-06-02T15:35:22Z</time>
      </trkpt>
      <trkpt lat="46.36086" lon="-1.17207">
        <ele>3.5</ele>
        <time>2020-06-02T15:35:23Z</time>
      </trkpt>
      <trkpt lat="46.3609" lon="-1.17212">
        <ele>3.5</ele>
        <time>2020-06-02T15:35:24Z</time>
      </trkpt>
      <trkpt lat="46.36093" lon="-1.17217">
        <ele>3.5</ele>
        <time>2020-06-02T15:35:25Z</time>
      </trkpt>
      <trkpt lat="46.36096" lon="-1.17222">
        <ele>3.5</ele>
        <time>2020-06-02T15:35:26Z</time>
      </trkpt>
      <trkpt lat="46.361" lon="-1.17228">
        <ele>3.5</ele>
        <time>2020-06-02T15:35:27Z</time>
      </trkpt>
      <trkpt lat="46.36101" lon="-1.17232">
        <ele>3.5</ele>
        <time>2020-06-02T15:35:28Z</time>
      </trkpt>
      <trkpt lat="46.36104" lon="-1.17236">
        <ele>3.4</ele>
        <time>2020-06-02T15:35:29Z</time>
      </trkpt>
      <trkpt lat="46.36107" lon="-1.17242">
        <ele>3.4</ele>
        <time>2020-06-02T15:35:30Z</time>
      </trkpt>
      <trkpt lat="46.36108" lon="-1.17247">
        <ele>3.4</ele>
        <time>2020-06-02T15:35:31Z</time>
      </trkpt>
      <trkpt lat="46.3611" lon="-1.17254">
        <ele>3.4</ele>
        <time>2020-06-02T15:35:32Z</time>
      </trkpt>
      <trkpt lat="46.36111" lon="-1.17261">
        <ele>3.4</ele>
        <time>2020-06-02T15:35:33Z</time>
      </trkpt>
      <trkpt lat="46.36111" lon="-1.17267">
        <ele>3.4</ele>
        <time>2020-06-02T15:35:34Z</time>
      </trkpt>
      <trkpt lat="46.36111" lon="-1.17273">
        <ele>3.4</ele>
        <time>2020-06-02T15:35:35Z</time>
      </trkpt>
      <trkpt lat="46.36112" lon="-1.17279">
        <ele>3.4</ele>
        <time>2020-06-02T15:35:36Z</time>
      </trkpt>
      <trkpt lat="46.36112" lon="-1.17284">
        <ele>3.4</ele>
        <time>2020-06-02T15:35:37Z</time>
      </trkpt>
      <trkpt lat="46.36113" lon="-1.1729">
        <ele>3.4</ele>
        <time>2020-06-02T15:35:38Z</time>
      </trkpt>
      <trkpt lat="46.36112" lon="-1.17295">
        <ele>3.4</ele>
        <time>2020-06-02T15:35:39Z</time>
      </trkpt>
      <trkpt lat="46.36112" lon="-1.17297">
        <ele>3.4</ele>
        <time>2020-06-02T15:35:40Z</time>
      </trkpt>
      <trkpt lat="46.36112" lon="-1.17299">
        <ele>3.4</ele>
        <time>2020-06-02T15:35:41Z</time>
      </trkpt>
      <trkpt lat="46.36111" lon="-1.17297">
        <ele>3.4</ele>
        <time>2020-06-02T15:35:42Z</time>
      </trkpt>
      <trkpt lat="46.36111" lon="-1.173">
        <ele>3.4</ele>
        <time>2020-06-02T15:35:43Z</time>
      </trkpt>
      <trkpt lat="46.36111" lon="-1.17305">
        <ele>3.4</ele>
        <time>2020-06-02T15:35:44Z</time>
      </trkpt>
      <trkpt lat="46.36112" lon="-1.17309">
        <ele>3.4</ele>
        <time>2020-06-02T15:35:45Z</time>
      </trkpt>
      <trkpt lat="46.36111" lon="-1.17315">
        <ele>3.4</ele>
        <time>2020-06-02T15:35:46Z</time>
      </trkpt>
      <trkpt lat="46.3611" lon="-1.17317">
        <ele>3.4</ele>
        <time>2020-06-02T15:35:47Z</time>
      </trkpt>
      <trkpt lat="46.36109" lon="-1.17319">
        <ele>3.4</ele>
        <time>2020-06-02T15:35:48Z</time>
      </trkpt>
      <trkpt lat="46.36108" lon="-1.17324">
        <ele>3.4</ele>
        <time>2020-06-02T15:35:49Z</time>
      </trkpt>
      <trkpt lat="46.36108" lon="-1.17329">
        <ele>3.4</ele>
        <time>2020-06-02T15:35:50Z</time>
      </trkpt>
      <trkpt lat="46.36107" lon="-1.17334">
        <ele>3.4</ele>
        <time>2020-06-02T15:35:51Z</time>
      </trkpt>
      <trkpt lat="46.36107" lon="-1.17339">
        <ele>3.4</ele>
        <time>2020-06-02T15:35:52Z</time>
      </trkpt>
      <trkpt lat="46.36106" lon="-1.17344">
        <ele>3.4</ele>
        <time>2020-06-02T15:35:53Z</time>
      </trkpt>
      <trkpt lat="46.36106" lon="-1.1735">
        <ele>3.4</ele>
        <time>2020-06-02T15:35:54Z</time>
      </trkpt>
      <trkpt lat="46.36106" lon="-1.17356">
        <ele>3.4</ele>
        <time>2020-06-02T15:35:55Z</time>
      </trkpt>
      <trkpt lat="46.36106" lon="-1.17363">
        <ele>3.3</ele>
        <time>2020-06-02T15:35:56Z</time>
      </trkpt>
      <trkpt lat="46.36106" lon="-1.1737">
        <ele>3.3</ele>
        <time>2020-06-02T15:35:57Z</time>
      </trkpt>
      <trkpt lat="46.36105" lon="-1.17378">
        <ele>3.3</ele>
        <time>2020-06-02T15:35:58Z</time>
      </trkpt>
      <trkpt lat="46.36104" lon="-1.17386">
        <ele>3.3</ele>
        <time>2020-06-02T15:35:59Z</time>
      </trkpt>
      <trkpt lat="46.36103" lon="-1.17396">
        <ele>3.3</ele>
        <time>2020-06-02T15:36:00Z</time>
      </trkpt>
      <trkpt lat="46.36103" lon="-1.17405">
        <ele>3.3</ele>
        <time>2020-06-02T15:36:01Z</time>
      </trkpt>
      <trkpt lat="46.36102" lon="-1.17415">
        <ele>3.3</ele>
        <time>2020-06-02T15:36:02Z</time>
      </trkpt>
      <trkpt lat="46.36102" lon="-1.17424">
        <ele>3.3</ele>
        <time>2020-06-02T15:36:03Z</time>
      </trkpt>
      <trkpt lat="46.36102" lon="-1.17432">
        <ele>3.3</ele>
        <time>2020-06-02T15:36:04Z</time>
      </trkpt>
      <trkpt lat="46.36102" lon="-1.1744">
        <ele>3.3</ele>
        <time>2020-06-02T15:36:05Z</time>
      </trkpt>
      <trkpt lat="46.36101" lon="-1.17448">
        <ele>3.3</ele>
        <time>2020-06-02T15:36:06Z</time>
      </trkpt>
      <trkpt lat="46.36101" lon="-1.17457">
        <ele>3.3</ele>
        <time>2020-06-02T15:36:07Z</time>
      </trkpt>
      <trkpt lat="46.36101" lon="-1.17466">
        <ele>3.3</ele>
        <time>2020-06-02T15:36:08Z</time>
      </trkpt>
      <trkpt lat="46.36101" lon="-1.17474">
        <ele>3.3</ele>
        <time>2020-06-02T15:36:09Z</time>
      </trkpt>
      <trkpt lat="46.36101" lon="-1.17483">
        <ele>3.3</ele>
        <time>2020-06-02T15:36:10Z</time>
      </trkpt>
      <trkpt lat="46.361" lon="-1.17491">
        <ele>3.3</ele>
        <time>2020-06-02T15:36:11Z</time>
      </trkpt>
      <trkpt lat="46.361" lon="-1.17498">
        <ele>3.3</ele>
        <time>2020-06-02T15:36:12Z</time>
      </trkpt>
      <trkpt lat="46.361" lon="-1.17505">
        <ele>3.3</ele>
        <time>2020-06-02T15:36:13Z</time>
      </trkpt>
      <trkpt lat="46.361" lon="-1.17513">
        <ele>3.3</ele>
        <time>2020-06-02T15:36:14Z</time>
      </trkpt>
      <trkpt lat="46.36099" lon="-1.1752">
        <ele>3.3</ele>
        <time>2020-06-02T15:36:15Z</time>
      </trkpt>
      <trkpt lat="46.36099" lon="-1.17528">
        <ele>3.3</ele>
        <time>2020-06-02T15:36:16Z</time>
      </trkpt>
      <trkpt lat="46.36098" lon="-1.17537">
        <ele>3.3</ele>
        <time>2020-06-02T15:36:17Z</time>
      </trkpt>
      <trkpt lat="46.36098" lon="-1.17544">
        <ele>3.3</ele>
        <time>2020-06-02T15:36:18Z</time>
      </trkpt>
      <trkpt lat="46.36098" lon="-1.17552">
        <ele>3.3</ele>
        <time>2020-06-02T15:36:19Z</time>
      </trkpt>
      <trkpt lat="46.36098" lon="-1.1756">
        <ele>3.3</ele>
        <time>2020-06-02T15:36:20Z</time>
      </trkpt>
      <trkpt lat="46.36098" lon="-1.17567">
        <ele>3.3</ele>
        <time>2020-06-02T15:36:21Z</time>
      </trkpt>
      <trkpt lat="46.36097" lon="-1.17575">
        <ele>3.3</ele>
        <time>2020-06-02T15:36:22Z</time>
      </trkpt>
      <trkpt lat="46.36097" lon="-1.17584">
        <ele>3.3</ele>
        <time>2020-06-02T15:36:23Z</time>
      </trkpt>
      <trkpt lat="46.36097" lon="-1.17592">
        <ele>3.3</ele>
        <time>2020-06-02T15:36:24Z</time>
      </trkpt>
      <trkpt lat="46.36096" lon="-1.176">
        <ele>3.3</ele>
        <time>2020-06-02T15:36:25Z</time>
      </trkpt>
      <trkpt lat="46.36096" lon="-1.17608">
        <ele>3.3</ele>
        <time>2020-06-02T15:36:26Z</time>
      </trkpt>
      <trkpt lat="46.36096" lon="-1.17616">
        <ele>3.3</ele>
        <time>2020-06-02T15:36:27Z</time>
      </trkpt>
      <trkpt lat="46.36095" lon="-1.17624">
        <ele>3.3</ele>
        <time>2020-06-02T15:36:28Z</time>
      </trkpt>
      <trkpt lat="46.36095" lon="-1.17631">
        <ele>3.3</ele>
        <time>2020-06-02T15:36:29Z</time>
      </trkpt>
      <trkpt lat="46.36095" lon="-1.17638">
        <ele>3.3</ele>
        <time>2020-06-02T15:36:30Z</time>
      </trkpt>
      <trkpt lat="46.36095" lon="-1.17646">
        <ele>3.3</ele>
        <time>2020-06-02T15:36:31Z</time>
      </trkpt>
      <trkpt lat="46.36095" lon="-1.17654">
        <ele>3.3</ele>
        <time>2020-06-02T15:36:32Z</time>
      </trkpt>
      <trkpt lat="46.36095" lon="-1.17661">
        <ele>3.3</ele>
        <time>2020-06-02T15:36:33Z</time>
      </trkpt>
      <trkpt lat="46.36096" lon="-1.17668">
        <ele>3.3</ele>
        <time>2020-06-02T15:36:34Z</time>
      </trkpt>
      <trkpt lat="46.36096" lon="-1.17675">
        <ele>3.3</ele>
        <time>2020-06-02T15:36:35Z</time>
      </trkpt>
      <trkpt lat="46.36096" lon="-1.17682">
        <ele>3.3</ele>
        <time>2020-06-02T15:36:36Z</time>
      </trkpt>
      <trkpt lat="46.36095" lon="-1.17689">
        <ele>3.3</ele>
        <time>2020-06-02T15:36:37Z</time>
      </trkpt>
      <trkpt lat="46.36095" lon="-1.17697">
        <ele>3.3</ele>
        <time>2020-06-02T15:36:38Z</time>
      </trkpt>
      <trkpt lat="46.36096" lon="-1.17705">
        <ele>3.3</ele>
        <time>2020-06-02T15:36:39Z</time>
      </trkpt>
      <trkpt lat="46.36096" lon="-1.17714">
        <ele>3.3</ele>
        <time>2020-06-02T15:36:40Z</time>
      </trkpt>
      <trkpt lat="46.36096" lon="-1.17722">
        <ele>3.3</ele>
        <time>2020-06-02T15:36:41Z</time>
      </trkpt>
      <trkpt lat="46.36096" lon="-1.1773">
        <ele>3.3</ele>
        <time>2020-06-02T15:36:42Z</time>
      </trkpt>
      <trkpt lat="46.36095" lon="-1.17738">
        <ele>3.3</ele>
        <time>2020-06-02T15:36:43Z</time>
      </trkpt>
      <trkpt lat="46.36095" lon="-1.17745">
        <ele>3.3</ele>
        <time>2020-06-02T15:36:44Z</time>
      </trkpt>
      <trkpt lat="46.36095" lon="-1.17752">
        <ele>3.3</ele>
        <time>2020-06-02T15:36:45Z</time>
      </trkpt>
      <trkpt lat="46.36095" lon="-1.17759">
        <ele>3.3</ele>
        <time>2020-06-02T15:36:46Z</time>
      </trkpt>
      <trkpt lat="46.36095" lon="-1.17766">
        <ele>3.3</ele>
        <time>2020-06-02T15:36:47Z</time>
      </trkpt>
      <trkpt lat="46.36095" lon="-1.17774">
        <ele>3.3</ele>
        <time>2020-06-02T15:36:48Z</time>
      </trkpt>
      <trkpt lat="46.36094" lon="-1.17781">
        <ele>3.3</ele>
        <time>2020-06-02T15:36:49Z</time>
      </trkpt>
      <trkpt lat="46.36093" lon="-1.17789">
        <ele>3.3</ele>
        <time>2020-06-02T15:36:50Z</time>
      </trkpt>
      <trkpt lat="46.36093" lon="-1.17797">
        <ele>3.3</ele>
        <time>2020-06-02T15:36:51Z</time>
      </trkpt>
      <trkpt lat="46.36094" lon="-1.17804">
        <ele>3.3</ele>
        <time>2020-06-02T15:36:52Z</time>
      </trkpt>
      <trkpt lat="46.36094" lon="-1.17812">
        <ele>3.3</ele>
        <time>2020-06-02T15:36:53Z</time>
      </trkpt>
      <trkpt lat="46.36094" lon="-1.17819">
        <ele>3.3</ele>
        <time>2020-06-02T15:36:54Z</time>
      </trkpt>
      <trkpt lat="46.36095" lon="-1.17826">
        <ele>3.3</ele>
        <time>2020-06-02T15:36:55Z</time>
      </trkpt>
      <trkpt lat="46.36095" lon="-1.17833">
        <ele>3.3</ele>
        <time>2020-06-02T15:36:56Z</time>
      </trkpt>
      <trkpt lat="46.36095" lon="-1.17841">
        <ele>3.3</ele>
        <time>2020-06-02T15:36:57Z</time>
      </trkpt>
      <trkpt lat="46.36095" lon="-1.17848">
        <ele>3.4</ele>
        <time>2020-06-02T15:36:58Z</time>
      </trkpt>
      <trkpt lat="46.36096" lon="-1.17855">
        <ele>3.4</ele>
        <time>2020-06-02T15:36:59Z</time>
      </trkpt>
      <trkpt lat="46.36096" lon="-1.17862">
        <ele>3.4</ele>
        <time>2020-06-02T15:37:00Z</time>
      </trkpt>
      <trkpt lat="46.36096" lon="-1.17869">
        <ele>3.4</ele>
        <time>2020-06-02T15:37:01Z</time>
      </trkpt>
      <trkpt lat="46.36096" lon="-1.17877">
        <ele>3.4</ele>
        <time>2020-06-02T15:37:02Z</time>
      </trkpt>
      <trkpt lat="46.36097" lon="-1.17885">
        <ele>3.4</ele>
        <time>2020-06-02T15:37:03Z</time>
      </trkpt>
      <trkpt lat="46.36096" lon="-1.17893">
        <ele>3.4</ele>
        <time>2020-06-02T15:37:04Z</time>
      </trkpt>
      <trkpt lat="46.36096" lon="-1.179">
        <ele>3.4</ele>
        <time>2020-06-02T15:37:05Z</time>
      </trkpt>
      <trkpt lat="46.36096" lon="-1.17907">
        <ele>3.4</ele>
        <time>2020-06-02T15:37:06Z</time>
      </trkpt>
      <trkpt lat="46.36096" lon="-1.17914">
        <ele>3.4</ele>
        <time>2020-06-02T15:37:07Z</time>
      </trkpt>
      <trkpt lat="46.36096" lon="-1.17921">
        <ele>3.4</ele>
        <time>2020-06-02T15:37:08Z</time>
      </trkpt>
      <trkpt lat="46.36096" lon="-1.17928">
        <ele>3.4</ele>
        <time>2020-06-02T15:37:09Z</time>
      </trkpt>
      <trkpt lat="46.36097" lon="-1.17936">
        <ele>3.4</ele>
        <time>2020-06-02T15:37:10Z</time>
      </trkpt>
      <trkpt lat="46.36097" lon="-1.17943">
        <ele>3.4</ele>
        <time>2020-06-02T15:37:11Z</time>
      </trkpt>
      <trkpt lat="46.36098" lon="-1.17951">
        <ele>3.4</ele>
        <time>2020-06-02T15:37:12Z</time>
      </trkpt>
      <trkpt lat="46.36098" lon="-1.17958">
        <ele>3.4</ele>
        <time>2020-06-02T15:37:13Z</time>
      </trkpt>
      <trkpt lat="46.36098" lon="-1.17967">
        <ele>3.4</ele>
        <time>2020-06-02T15:37:14Z</time>
      </trkpt>
      <trkpt lat="46.36098" lon="-1.17975">
        <ele>3.4</ele>
        <time>2020-06-02T15:37:15Z</time>
      </trkpt>
      <trkpt lat="46.36098" lon="-1.17982">
        <ele>3.4</ele>
        <time>2020-06-02T15:37:16Z</time>
      </trkpt>
      <trkpt lat="46.36098" lon="-1.17991">
        <ele>3.4</ele>
        <time>2020-06-02T15:37:17Z</time>
      </trkpt>
      <trkpt lat="46.36098" lon="-1.17999">
        <ele>3.4</ele>
        <time>2020-06-02T15:37:18Z</time>
      </trkpt>
      <trkpt lat="46.36099" lon="-1.18007">
        <ele>3.4</ele>
        <time>2020-06-02T15:37:19Z</time>
      </trkpt>
      <trkpt lat="46.36099" lon="-1.18016">
        <ele>3.4</ele>
        <time>2020-06-02T15:37:20Z</time>
      </trkpt>
      <trkpt lat="46.361" lon="-1.18024">
        <ele>3.4</ele>
        <time>2020-06-02T15:37:21Z</time>
      </trkpt>
      <trkpt lat="46.361" lon="-1.18032">
        <ele>3.4</ele>
        <time>2020-06-02T15:37:22Z</time>
      </trkpt>
      <trkpt lat="46.36101" lon="-1.1804">
        <ele>3.4</ele>
        <time>2020-06-02T15:37:23Z</time>
      </trkpt>
      <trkpt lat="46.36101" lon="-1.18048">
        <ele>3.4</ele>
        <time>2020-06-02T15:37:24Z</time>
      </trkpt>
      <trkpt lat="46.36102" lon="-1.18056">
        <ele>3.4</ele>
        <time>2020-06-02T15:37:25Z</time>
      </trkpt>
      <trkpt lat="46.36102" lon="-1.18064">
        <ele>3.4</ele>
        <time>2020-06-02T15:37:26Z</time>
      </trkpt>
      <trkpt lat="46.36103" lon="-1.18072">
        <ele>3.4</ele>
        <time>2020-06-02T15:37:27Z</time>
      </trkpt>
      <trkpt lat="46.36104" lon="-1.1808">
        <ele>3.4</ele>
        <time>2020-06-02T15:37:28Z</time>
      </trkpt>
      <trkpt lat="46.36105" lon="-1.18088">
        <ele>3.4</ele>
        <time>2020-06-02T15:37:29Z</time>
      </trkpt>
      <trkpt lat="46.36106" lon="-1.18095">
        <ele>3.4</ele>
        <time>2020-06-02T15:37:30Z</time>
      </trkpt>
      <trkpt lat="46.36106" lon="-1.18103">
        <ele>3.4</ele>
        <time>2020-06-02T15:37:31Z</time>
      </trkpt>
      <trkpt lat="46.36107" lon="-1.18111">
        <ele>3.4</ele>
        <time>2020-06-02T15:37:32Z</time>
      </trkpt>
      <trkpt lat="46.36108" lon="-1.18119">
        <ele>3.4</ele>
        <time>2020-06-02T15:37:33Z</time>
      </trkpt>
      <trkpt lat="46.36109" lon="-1.18126">
        <ele>3.4</ele>
        <time>2020-06-02T15:37:34Z</time>
      </trkpt>
      <trkpt lat="46.36109" lon="-1.18134">
        <ele>3.4</ele>
        <time>2020-06-02T15:37:35Z</time>
      </trkpt>
      <trkpt lat="46.3611" lon="-1.18142">
        <ele>3.4</ele>
        <time>2020-06-02T15:37:36Z</time>
      </trkpt>
      <trkpt lat="46.36111" lon="-1.18149">
        <ele>3.4</ele>
        <time>2020-06-02T15:37:37Z</time>
      </trkpt>
      <trkpt lat="46.36112" lon="-1.18157">
        <ele>3.4</ele>
        <time>2020-06-02T15:37:38Z</time>
      </trkpt>
      <trkpt lat="46.36113" lon="-1.18165">
        <ele>3.4</ele>
        <time>2020-06-02T15:37:39Z</time>
      </trkpt>
      <trkpt lat="46.36115" lon="-1.18173">
        <ele>3.5</ele>
        <time>2020-06-02T15:37:40Z</time>
      </trkpt>
      <trkpt lat="46.36115" lon="-1.18181">
        <ele>3.5</ele>
        <time>2020-06-02T15:37:41Z</time>
      </trkpt>
      <trkpt lat="46.36116" lon="-1.18189">
        <ele>3.5</ele>
        <time>2020-06-02T15:37:42Z</time>
      </trkpt>
      <trkpt lat="46.36117" lon="-1.18197">
        <ele>3.5</ele>
        <time>2020-06-02T15:37:43Z</time>
      </trkpt>
      <trkpt lat="46.36118" lon="-1.18205">
        <ele>3.5</ele>
        <time>2020-06-02T15:37:44Z</time>
      </trkpt>
      <trkpt lat="46.36119" lon="-1.18213">
        <ele>3.5</ele>
        <time>2020-06-02T15:37:45Z</time>
      </trkpt>
      <trkpt lat="46.3612" lon="-1.1822">
        <ele>3.5</ele>
        <time>2020-06-02T15:37:46Z</time>
      </trkpt>
      <trkpt lat="46.36121" lon="-1.18228">
        <ele>3.5</ele>
        <time>2020-06-02T15:37:47Z</time>
      </trkpt>
      <trkpt lat="46.36122" lon="-1.18236">
        <ele>3.6</ele>
        <time>2020-06-02T15:37:48Z</time>
      </trkpt>
      <trkpt lat="46.36123" lon="-1.18244">
        <ele>3.6</ele>
        <time>2020-06-02T15:37:49Z</time>
      </trkpt>
      <trkpt lat="46.36124" lon="-1.18252">
        <ele>3.6</ele>
        <time>2020-06-02T15:37:50Z</time>
      </trkpt>
      <trkpt lat="46.36125" lon="-1.1826">
        <ele>3.6</ele>
        <time>2020-06-02T15:37:51Z</time>
      </trkpt>
      <trkpt lat="46.36126" lon="-1.18269">
        <ele>3.6</ele>
        <time>2020-06-02T15:37:52Z</time>
      </trkpt>
      <trkpt lat="46.36126" lon="-1.18277">
        <ele>3.6</ele>
        <time>2020-06-02T15:37:53Z</time>
      </trkpt>
      <trkpt lat="46.36127" lon="-1.18285">
        <ele>3.6</ele>
        <time>2020-06-02T15:37:54Z</time>
      </trkpt>
      <trkpt lat="46.36128" lon="-1.18293">
        <ele>3.6</ele>
        <time>2020-06-02T15:37:55Z</time>
      </trkpt>
      <trkpt lat="46.36129" lon="-1.18301">
        <ele>3.6</ele>
        <time>2020-06-02T15:37:56Z</time>
      </trkpt>
      <trkpt lat="46.3613" lon="-1.18309">
        <ele>3.6</ele>
        <time>2020-06-02T15:37:57Z</time>
      </trkpt>
      <trkpt lat="46.36132" lon="-1.18317">
        <ele>3.6</ele>
        <time>2020-06-02T15:37:58Z</time>
      </trkpt>
      <trkpt lat="46.36133" lon="-1.18325">
        <ele>3.6</ele>
        <time>2020-06-02T15:37:59Z</time>
      </trkpt>
      <trkpt lat="46.36134" lon="-1.18333">
        <ele>3.6</ele>
        <time>2020-06-02T15:38:00Z</time>
      </trkpt>
      <trkpt lat="46.36135" lon="-1.18341">
        <ele>3.6</ele>
        <time>2020-06-02T15:38:01Z</time>
      </trkpt>
      <trkpt lat="46.36135" lon="-1.18349">
        <ele>3.6</ele>
        <time>2020-06-02T15:38:02Z</time>
      </trkpt>
      <trkpt lat="46.36136" lon="-1.18359">
        <ele>3.6</ele>
        <time>2020-06-02T15:38:03Z</time>
      </trkpt>
      <trkpt lat="46.36137" lon="-1.18367">
        <ele>3.6</ele>
        <time>2020-06-02T15:38:04Z</time>
      </trkpt>
      <trkpt lat="46.36138" lon="-1.18376">
        <ele>3.6</ele>
        <time>2020-06-02T15:38:05Z</time>
      </trkpt>
      <trkpt lat="46.3614" lon="-1.18384">
        <ele>3.6</ele>
        <time>2020-06-02T15:38:06Z</time>
      </trkpt>
      <trkpt lat="46.36141" lon="-1.18392">
        <ele>3.6</ele>
        <time>2020-06-02T15:38:07Z</time>
      </trkpt>
      <trkpt lat="46.36141" lon="-1.18401">
        <ele>3.6</ele>
        <time>2020-06-02T15:38:08Z</time>
      </trkpt>
      <trkpt lat="46.36142" lon="-1.18409">
        <ele>3.6</ele>
        <time>2020-06-02T15:38:09Z</time>
      </trkpt>
      <trkpt lat="46.36144" lon="-1.18417">
        <ele>3.6</ele>
        <time>2020-06-02T15:38:10Z</time>
      </trkpt>
      <trkpt lat="46.36145" lon="-1.18425">
        <ele>3.6</ele>
        <time>2020-06-02T15:38:11Z</time>
      </trkpt>
      <trkpt lat="46.36146" lon="-1.18433">
        <ele>3.6</ele>
        <time>2020-06-02T15:38:12Z</time>
      </trkpt>
      <trkpt lat="46.36147" lon="-1.18441">
        <ele>3.6</ele>
        <time>2020-06-02T15:38:13Z</time>
      </trkpt>
      <trkpt lat="46.36148" lon="-1.1845">
        <ele>3.6</ele>
        <time>2020-06-02T15:38:14Z</time>
      </trkpt>
      <trkpt lat="46.36149" lon="-1.18459">
        <ele>3.6</ele>
        <time>2020-06-02T15:38:15Z</time>
      </trkpt>
      <trkpt lat="46.3615" lon="-1.18467">
        <ele>3.6</ele>
        <time>2020-06-02T15:38:16Z</time>
      </trkpt>
      <trkpt lat="46.3615" lon="-1.18475">
        <ele>3.6</ele>
        <time>2020-06-02T15:38:17Z</time>
      </trkpt>
      <trkpt lat="46.36151" lon="-1.18483">
        <ele>3.6</ele>
        <time>2020-06-02T15:38:18Z</time>
      </trkpt>
      <trkpt lat="46.36151" lon="-1.18491">
        <ele>3.6</ele>
        <time>2020-06-02T15:38:19Z</time>
      </trkpt>
      <trkpt lat="46.36151" lon="-1.18499">
        <ele>3.6</ele>
        <time>2020-06-02T15:38:20Z</time>
      </trkpt>
      <trkpt lat="46.36151" lon="-1.18507">
        <ele>3.6</ele>
        <time>2020-06-02T15:38:21Z</time>
      </trkpt>
      <trkpt lat="46.3615" lon="-1.18513">
        <ele>3.6</ele>
        <time>2020-06-02T15:38:22Z</time>
      </trkpt>
      <trkpt lat="46.36149" lon="-1.18521">
        <ele>3.6</ele>
        <time>2020-06-02T15:38:23Z</time>
      </trkpt>
      <trkpt lat="46.36148" lon="-1.1853">
        <ele>3.6</ele>
        <time>2020-06-02T15:38:24Z</time>
      </trkpt>
      <trkpt lat="46.36147" lon="-1.18538">
        <ele>3.6</ele>
        <time>2020-06-02T15:38:25Z</time>
      </trkpt>
      <trkpt lat="46.36146" lon="-1.18547">
        <ele>3.6</ele>
        <time>2020-06-02T15:38:26Z</time>
      </trkpt>
      <trkpt lat="46.36145" lon="-1.18556">
        <ele>3.6</ele>
        <time>2020-06-02T15:38:27Z</time>
      </trkpt>
      <trkpt lat="46.36144" lon="-1.18564">
        <ele>3.6</ele>
        <time>2020-06-02T15:38:28Z</time>
      </trkpt>
      <trkpt lat="46.36142" lon="-1.18573">
        <ele>3.6</ele>
        <time>2020-06-02T15:38:29Z</time>
      </trkpt>
      <trkpt lat="46.3614" lon="-1.18582">
        <ele>3.6</ele>
        <time>2020-06-02T15:38:30Z</time>
      </trkpt>
      <trkpt lat="46.36139" lon="-1.1859">
        <ele>3.6</ele>
        <time>2020-06-02T15:38:31Z</time>
      </trkpt>
      <trkpt lat="46.36137" lon="-1.18599">
        <ele>3.6</ele>
        <time>2020-06-02T15:38:32Z</time>
      </trkpt>
      <trkpt lat="46.36135" lon="-1.18608">
        <ele>3.7</ele>
        <time>2020-06-02T15:38:33Z</time>
      </trkpt>
      <trkpt lat="46.36134" lon="-1.18616">
        <ele>3.7</ele>
        <time>2020-06-02T15:38:34Z</time>
      </trkpt>
      <trkpt lat="46.36133" lon="-1.18625">
        <ele>3.7</ele>
        <time>2020-06-02T15:38:35Z</time>
      </trkpt>
      <trkpt lat="46.36132" lon="-1.18633">
        <ele>3.7</ele>
        <time>2020-06-02T15:38:36Z</time>
      </trkpt>
      <trkpt lat="46.3613" lon="-1.18641">
        <ele>3.7</ele>
        <time>2020-06-02T15:38:37Z</time>
      </trkpt>
      <trkpt lat="46.36129" lon="-1.18648">
        <ele>3.7</ele>
        <time>2020-06-02T15:38:38Z</time>
      </trkpt>
      <trkpt lat="46.36128" lon="-1.18656">
        <ele>3.7</ele>
        <time>2020-06-02T15:38:39Z</time>
      </trkpt>
      <trkpt lat="46.36126" lon="-1.18665">
        <ele>3.7</ele>
        <time>2020-06-02T15:38:40Z</time>
      </trkpt>
      <trkpt lat="46.36125" lon="-1.18673">
        <ele>3.7</ele>
        <time>2020-06-02T15:38:41Z</time>
      </trkpt>
      <trkpt lat="46.36124" lon="-1.18681">
        <ele>3.7</ele>
        <time>2020-06-02T15:38:42Z</time>
      </trkpt>
      <trkpt lat="46.36123" lon="-1.1869">
        <ele>3.7</ele>
        <time>2020-06-02T15:38:43Z</time>
      </trkpt>
      <trkpt lat="46.36121" lon="-1.18698">
        <ele>3.7</ele>
        <time>2020-06-02T15:38:44Z</time>
      </trkpt>
      <trkpt lat="46.3612" lon="-1.18707">
        <ele>3.7</ele>
        <time>2020-06-02T15:38:45Z</time>
      </trkpt>
      <trkpt lat="46.36119" lon="-1.18715">
        <ele>3.7</ele>
        <time>2020-06-02T15:38:46Z</time>
      </trkpt>
      <trkpt lat="46.36118" lon="-1.18722">
        <ele>3.7</ele>
        <time>2020-06-02T15:38:47Z</time>
      </trkpt>
      <trkpt lat="46.36116" lon="-1.1873">
        <ele>3.7</ele>
        <time>2020-06-02T15:38:48Z</time>
      </trkpt>
      <trkpt lat="46.36115" lon="-1.18738">
        <ele>3.7</ele>
        <time>2020-06-02T15:38:49Z</time>
      </trkpt>
      <trkpt lat="46.36113" lon="-1.18746">
        <ele>3.7</ele>
        <time>2020-06-02T15:38:50Z</time>
      </trkpt>
      <trkpt lat="46.36112" lon="-1.18754">
        <ele>3.7</ele>
        <time>2020-06-02T15:38:51Z</time>
      </trkpt>
      <trkpt lat="46.3611" lon="-1.18762">
        <ele>3.7</ele>
        <time>2020-06-02T15:38:52Z</time>
      </trkpt>
      <trkpt lat="46.36109" lon="-1.18771">
        <ele>3.7</ele>
        <time>2020-06-02T15:38:53Z</time>
      </trkpt>
      <trkpt lat="46.36108" lon="-1.18779">
        <ele>3.7</ele>
        <time>2020-06-02T15:38:54Z</time>
      </trkpt>
      <trkpt lat="46.36107" lon="-1.18786">
        <ele>3.7</ele>
        <time>2020-06-02T15:38:55Z</time>
      </trkpt>
      <trkpt lat="46.36107" lon="-1.18793">
        <ele>3.7</ele>
        <time>2020-06-02T15:38:56Z</time>
      </trkpt>
      <trkpt lat="46.36106" lon="-1.18801">
        <ele>3.7</ele>
        <time>2020-06-02T15:38:57Z</time>
      </trkpt>
      <trkpt lat="46.36105" lon="-1.18809">
        <ele>3.7</ele>
        <time>2020-06-02T15:38:58Z</time>
      </trkpt>
      <trkpt lat="46.36104" lon="-1.18818">
        <ele>3.7</ele>
        <time>2020-06-02T15:38:59Z</time>
      </trkpt>
      <trkpt lat="46.36103" lon="-1.18825">
        <ele>3.7</ele>
        <time>2020-06-02T15:39:00Z</time>
      </trkpt>
      <trkpt lat="46.36102" lon="-1.18832">
        <ele>3.7</ele>
        <time>2020-06-02T15:39:01Z</time>
      </trkpt>
      <trkpt lat="46.36101" lon="-1.1884">
        <ele>3.7</ele>
        <time>2020-06-02T15:39:02Z</time>
      </trkpt>
      <trkpt lat="46.361" lon="-1.18848">
        <ele>3.7</ele>
        <time>2020-06-02T15:39:03Z</time>
      </trkpt>
      <trkpt lat="46.36099" lon="-1.18856">
        <ele>3.7</ele>
        <time>2020-06-02T15:39:04Z</time>
      </trkpt>
      <trkpt lat="46.36098" lon="-1.18865">
        <ele>3.7</ele>
        <time>2020-06-02T15:39:05Z</time>
      </trkpt>
      <trkpt lat="46.36097" lon="-1.18874">
        <ele>3.7</ele>
        <time>2020-06-02T15:39:06Z</time>
      </trkpt>
      <trkpt lat="46.36097" lon="-1.18883">
        <ele>3.7</ele>
        <time>2020-06-02T15:39:07Z</time>
      </trkpt>
      <trkpt lat="46.36096" lon="-1.18891">
        <ele>3.7</ele>
        <time>2020-06-02T15:39:08Z</time>
      </trkpt>
      <trkpt lat="46.36094" lon="-1.189">
        <ele>3.7</ele>
        <time>2020-06-02T15:39:09Z</time>
      </trkpt>
      <trkpt lat="46.36093" lon="-1.18908">
        <ele>3.8</ele>
        <time>2020-06-02T15:39:10Z</time>
      </trkpt>
      <trkpt lat="46.36093" lon="-1.18916">
        <ele>3.8</ele>
        <time>2020-06-02T15:39:11Z</time>
      </trkpt>
      <trkpt lat="46.36092" lon="-1.18924">
        <ele>3.8</ele>
        <time>2020-06-02T15:39:12Z</time>
      </trkpt>
      <trkpt lat="46.3609" lon="-1.18931">
        <ele>3.8</ele>
        <time>2020-06-02T15:39:13Z</time>
      </trkpt>
      <trkpt lat="46.3609" lon="-1.18939">
        <ele>3.8</ele>
        <time>2020-06-02T15:39:14Z</time>
      </trkpt>
      <trkpt lat="46.36088" lon="-1.18947">
        <ele>3.8</ele>
        <time>2020-06-02T15:39:15Z</time>
      </trkpt>
      <trkpt lat="46.36087" lon="-1.18955">
        <ele>3.8</ele>
        <time>2020-06-02T15:39:16Z</time>
      </trkpt>
      <trkpt lat="46.36087" lon="-1.18964">
        <ele>3.8</ele>
        <time>2020-06-02T15:39:17Z</time>
      </trkpt>
      <trkpt lat="46.36086" lon="-1.18973">
        <ele>3.8</ele>
        <time>2020-06-02T15:39:18Z</time>
      </trkpt>
      <trkpt lat="46.36085" lon="-1.18983">
        <ele>3.8</ele>
        <time>2020-06-02T15:39:19Z</time>
      </trkpt>
      <trkpt lat="46.36084" lon="-1.18993">
        <ele>3.8</ele>
        <time>2020-06-02T15:39:20Z</time>
      </trkpt>
      <trkpt lat="46.36083" lon="-1.19004">
        <ele>3.8</ele>
        <time>2020-06-02T15:39:21Z</time>
      </trkpt>
      <trkpt lat="46.36082" lon="-1.19014">
        <ele>3.8</ele>
        <time>2020-06-02T15:39:22Z</time>
      </trkpt>
      <trkpt lat="46.36081" lon="-1.19024">
        <ele>3.8</ele>
        <time>2020-06-02T15:39:23Z</time>
      </trkpt>
      <trkpt lat="46.3608" lon="-1.19035">
        <ele>3.8</ele>
        <time>2020-06-02T15:39:24Z</time>
      </trkpt>
      <trkpt lat="46.36078" lon="-1.19044">
        <ele>3.8</ele>
        <time>2020-06-02T15:39:25Z</time>
      </trkpt>
      <trkpt lat="46.36077" lon="-1.19054">
        <ele>3.8</ele>
        <time>2020-06-02T15:39:26Z</time>
      </trkpt>
      <trkpt lat="46.36075" lon="-1.19064">
        <ele>3.8</ele>
        <time>2020-06-02T15:39:27Z</time>
      </trkpt>
      <trkpt lat="46.36074" lon="-1.19073">
        <ele>3.8</ele>
        <time>2020-06-02T15:39:28Z</time>
      </trkpt>
      <trkpt lat="46.36073" lon="-1.19082">
        <ele>3.8</ele>
        <time>2020-06-02T15:39:29Z</time>
      </trkpt>
      <trkpt lat="46.36072" lon="-1.19092">
        <ele>3.8</ele>
        <time>2020-06-02T15:39:30Z</time>
      </trkpt>
      <trkpt lat="46.36071" lon="-1.19102">
        <ele>3.8</ele>
        <time>2020-06-02T15:39:31Z</time>
      </trkpt>
      <trkpt lat="46.3607" lon="-1.19112">
        <ele>3.8</ele>
        <time>2020-06-02T15:39:32Z</time>
      </trkpt>
      <trkpt lat="46.36069" lon="-1.19121">
        <ele>3.8</ele>
        <time>2020-06-02T15:39:33Z</time>
      </trkpt>
      <trkpt lat="46.36068" lon="-1.19131">
        <ele>3.8</ele>
        <time>2020-06-02T15:39:34Z</time>
      </trkpt>
      <trkpt lat="46.36067" lon="-1.1914">
        <ele>3.8</ele>
        <time>2020-06-02T15:39:35Z</time>
      </trkpt>
      <trkpt lat="46.36066" lon="-1.1915">
        <ele>3.8</ele>
        <time>2020-06-02T15:39:36Z</time>
      </trkpt>
      <trkpt lat="46.36065" lon="-1.1916">
        <ele>3.8</ele>
        <time>2020-06-02T15:39:37Z</time>
      </trkpt>
      <trkpt lat="46.36063" lon="-1.19169">
        <ele>3.8</ele>
        <time>2020-06-02T15:39:38Z</time>
      </trkpt>
      <trkpt lat="46.36062" lon="-1.19178">
        <ele>3.8</ele>
        <time>2020-06-02T15:39:39Z</time>
      </trkpt>
      <trkpt lat="46.36061" lon="-1.19188">
        <ele>3.8</ele>
        <time>2020-06-02T15:39:40Z</time>
      </trkpt>
      <trkpt lat="46.3606" lon="-1.19198">
        <ele>3.8</ele>
        <time>2020-06-02T15:39:41Z</time>
      </trkpt>
      <trkpt lat="46.36059" lon="-1.19207">
        <ele>3.8</ele>
        <time>2020-06-02T15:39:42Z</time>
      </trkpt>
      <trkpt lat="46.36058" lon="-1.19217">
        <ele>3.8</ele>
        <time>2020-06-02T15:39:43Z</time>
      </trkpt>
      <trkpt lat="46.36057" lon="-1.19226">
        <ele>3.8</ele>
        <time>2020-06-02T15:39:44Z</time>
      </trkpt>
      <trkpt lat="46.36056" lon="-1.19236">
        <ele>3.8</ele>
        <time>2020-06-02T15:39:45Z</time>
      </trkpt>
      <trkpt lat="46.36055" lon="-1.19246">
        <ele>3.8</ele>
        <time>2020-06-02T15:39:46Z</time>
      </trkpt>
      <trkpt lat="46.36054" lon="-1.19256">
        <ele>3.8</ele>
        <time>2020-06-02T15:39:47Z</time>
      </trkpt>
      <trkpt lat="46.36053" lon="-1.19266">
        <ele>3.8</ele>
        <time>2020-06-02T15:39:48Z</time>
      </trkpt>
      <trkpt lat="46.36052" lon="-1.19277">
        <ele>3.8</ele>
        <time>2020-06-02T15:39:49Z</time>
      </trkpt>
      <trkpt lat="46.3605" lon="-1.19287">
        <ele>3.8</ele>
        <time>2020-06-02T15:39:50Z</time>
      </trkpt>
      <trkpt lat="46.36049" lon="-1.19297">
        <ele>3.8</ele>
        <time>2020-06-02T15:39:51Z</time>
      </trkpt>
      <trkpt lat="46.36048" lon="-1.19307">
        <ele>3.8</ele>
        <time>2020-06-02T15:39:52Z</time>
      </trkpt>
      <trkpt lat="46.36047" lon="-1.19318">
        <ele>3.8</ele>
        <time>2020-06-02T15:39:53Z</time>
      </trkpt>
      <trkpt lat="46.36046" lon="-1.19328">
        <ele>3.8</ele>
        <time>2020-06-02T15:39:54Z</time>
      </trkpt>
      <trkpt lat="46.36045" lon="-1.19338">
        <ele>3.8</ele>
        <time>2020-06-02T15:39:55Z</time>
      </trkpt>
      <trkpt lat="46.36044" lon="-1.19348">
        <ele>3.8</ele>
        <time>2020-06-02T15:39:56Z</time>
      </trkpt>
      <trkpt lat="46.36042" lon="-1.19357">
        <ele>3.8</ele>
        <time>2020-06-02T15:39:57Z</time>
      </trkpt>
      <trkpt lat="46.36041" lon="-1.19366">
        <ele>3.8</ele>
        <time>2020-06-02T15:39:58Z</time>
      </trkpt>
      <trkpt lat="46.3604" lon="-1.19375">
        <ele>3.8</ele>
        <time>2020-06-02T15:39:59Z</time>
      </trkpt>
      <trkpt lat="46.3604" lon="-1.19384">
        <ele>3.8</ele>
        <time>2020-06-02T15:40:00Z</time>
      </trkpt>
      <trkpt lat="46.36039" lon="-1.19392">
        <ele>3.8</ele>
        <time>2020-06-02T15:40:01Z</time>
      </trkpt>
      <trkpt lat="46.36039" lon="-1.194">
        <ele>3.8</ele>
        <time>2020-06-02T15:40:02Z</time>
      </trkpt>
      <trkpt lat="46.36039" lon="-1.19408">
        <ele>3.8</ele>
        <time>2020-06-02T15:40:03Z</time>
      </trkpt>
      <trkpt lat="46.36038" lon="-1.19416">
        <ele>3.8</ele>
        <time>2020-06-02T15:40:04Z</time>
      </trkpt>
      <trkpt lat="46.36038" lon="-1.19425">
        <ele>3.8</ele>
        <time>2020-06-02T15:40:05Z</time>
      </trkpt>
      <trkpt lat="46.36037" lon="-1.19433">
        <ele>3.8</ele>
        <time>2020-06-02T15:40:06Z</time>
      </trkpt>
      <trkpt lat="46.36036" lon="-1.19441">
        <ele>3.8</ele>
        <time>2020-06-02T15:40:07Z</time>
      </trkpt>
      <trkpt lat="46.36035" lon="-1.19449">
        <ele>3.8</ele>
        <time>2020-06-02T15:40:08Z</time>
      </trkpt>
      <trkpt lat="46.36034" lon="-1.19457">
        <ele>3.8</ele>
        <time>2020-06-02T15:40:09Z</time>
      </trkpt>
      <trkpt lat="46.36033" lon="-1.19465">
        <ele>3.8</ele>
        <time>2020-06-02T15:40:10Z</time>
      </trkpt>
      <trkpt lat="46.36033" lon="-1.19473">
        <ele>3.8</ele>
        <time>2020-06-02T15:40:11Z</time>
      </trkpt>
      <trkpt lat="46.36032" lon="-1.19481">
        <ele>3.8</ele>
        <time>2020-06-02T15:40:12Z</time>
      </trkpt>
      <trkpt lat="46.36031" lon="-1.1949">
        <ele>3.8</ele>
        <time>2020-06-02T15:40:13Z</time>
      </trkpt>
      <trkpt lat="46.36029" lon="-1.19501">
        <ele>3.8</ele>
        <time>2020-06-02T15:40:14Z</time>
      </trkpt>
      <trkpt lat="46.36027" lon="-1.19512">
        <ele>3.7</ele>
        <time>2020-06-02T15:40:15Z</time>
      </trkpt>
      <trkpt lat="46.36026" lon="-1.19522">
        <ele>3.7</ele>
        <time>2020-06-02T15:40:16Z</time>
      </trkpt>
      <trkpt lat="46.36025" lon="-1.19532">
        <ele>3.7</ele>
        <time>2020-06-02T15:40:17Z</time>
      </trkpt>
      <trkpt lat="46.36024" lon="-1.19541">
        <ele>3.7</ele>
        <time>2020-06-02T15:40:18Z</time>
      </trkpt>
      <trkpt lat="46.36023" lon="-1.1955">
        <ele>3.7</ele>
        <time>2020-06-02T15:40:19Z</time>
      </trkpt>
      <trkpt lat="46.36022" lon="-1.19559">
        <ele>3.7</ele>
        <time>2020-06-02T15:40:20Z</time>
      </trkpt>
      <trkpt lat="46.36021" lon="-1.19568">
        <ele>3.7</ele>
        <time>2020-06-02T15:40:21Z</time>
      </trkpt>
      <trkpt lat="46.3602" lon="-1.19576">
        <ele>3.7</ele>
        <time>2020-06-02T15:40:22Z</time>
      </trkpt>
      <trkpt lat="46.36019" lon="-1.19585">
        <ele>3.7</ele>
        <time>2020-06-02T15:40:23Z</time>
      </trkpt>
      <trkpt lat="46.36018" lon="-1.19594">
        <ele>3.7</ele>
        <time>2020-06-02T15:40:24Z</time>
      </trkpt>
      <trkpt lat="46.36017" lon="-1.19602">
        <ele>3.7</ele>
        <time>2020-06-02T15:40:25Z</time>
      </trkpt>
      <trkpt lat="46.36016" lon="-1.19611">
        <ele>3.7</ele>
        <time>2020-06-02T15:40:26Z</time>
      </trkpt>
      <trkpt lat="46.36015" lon="-1.19619">
        <ele>3.7</ele>
        <time>2020-06-02T15:40:27Z</time>
      </trkpt>
      <trkpt lat="46.36014" lon="-1.19626">
        <ele>3.7</ele>
        <time>2020-06-02T15:40:28Z</time>
      </trkpt>
      <trkpt lat="46.36013" lon="-1.19634">
        <ele>3.7</ele>
        <time>2020-06-02T15:40:29Z</time>
      </trkpt>
      <trkpt lat="46.36012" lon="-1.19642">
        <ele>3.7</ele>
        <time>2020-06-02T15:40:30Z</time>
      </trkpt>
      <trkpt lat="46.3601" lon="-1.19652">
        <ele>3.6</ele>
        <time>2020-06-02T15:40:31Z</time>
      </trkpt>
      <trkpt lat="46.36009" lon="-1.19661">
        <ele>3.6</ele>
        <time>2020-06-02T15:40:32Z</time>
      </trkpt>
      <trkpt lat="46.36008" lon="-1.1967">
        <ele>3.6</ele>
        <time>2020-06-02T15:40:33Z</time>
      </trkpt>
      <trkpt lat="46.36007" lon="-1.19677">
        <ele>3.6</ele>
        <time>2020-06-02T15:40:34Z</time>
      </trkpt>
      <trkpt lat="46.36007" lon="-1.19685">
        <ele>3.6</ele>
        <time>2020-06-02T15:40:35Z</time>
      </trkpt>
      <trkpt lat="46.36007" lon="-1.19693">
        <ele>3.6</ele>
        <time>2020-06-02T15:40:36Z</time>
      </trkpt>
      <trkpt lat="46.36006" lon="-1.19699">
        <ele>3.6</ele>
        <time>2020-06-02T15:40:37Z</time>
      </trkpt>
      <trkpt lat="46.36005" lon="-1.19706">
        <ele>3.6</ele>
        <time>2020-06-02T15:40:38Z</time>
      </trkpt>
      <trkpt lat="46.36004" lon="-1.19713">
        <ele>3.6</ele>
        <time>2020-06-02T15:40:39Z</time>
      </trkpt>
      <trkpt lat="46.36003" lon="-1.1972">
        <ele>3.6</ele>
        <time>2020-06-02T15:40:40Z</time>
      </trkpt>
      <trkpt lat="46.36002" lon="-1.19727">
        <ele>3.7</ele>
        <time>2020-06-02T15:40:41Z</time>
      </trkpt>
      <trkpt lat="46.36001" lon="-1.19734">
        <ele>3.7</ele>
        <time>2020-06-02T15:40:42Z</time>
      </trkpt>
      <trkpt lat="46.36" lon="-1.19741">
        <ele>3.7</ele>
        <time>2020-06-02T15:40:43Z</time>
      </trkpt>
      <trkpt lat="46.35999" lon="-1.19749">
        <ele>3.7</ele>
        <time>2020-06-02T15:40:44Z</time>
      </trkpt>
      <trkpt lat="46.35999" lon="-1.19756">
        <ele>3.7</ele>
        <time>2020-06-02T15:40:45Z</time>
      </trkpt>
      <trkpt lat="46.35998" lon="-1.19764">
        <ele>3.7</ele>
        <time>2020-06-02T15:40:46Z</time>
      </trkpt>
      <trkpt lat="46.35997" lon="-1.19772">
        <ele>3.7</ele>
        <time>2020-06-02T15:40:47Z</time>
      </trkpt>
      <trkpt lat="46.35997" lon="-1.19779">
        <ele>3.7</ele>
        <time>2020-06-02T15:40:48Z</time>
      </trkpt>
      <trkpt lat="46.35997" lon="-1.19785">
        <ele>3.7</ele>
        <time>2020-06-02T15:40:49Z</time>
      </trkpt>
      <trkpt lat="46.35996" lon="-1.19791">
        <ele>3.7</ele>
        <time>2020-06-02T15:40:50Z</time>
      </trkpt>
      <trkpt lat="46.35996" lon="-1.19798">
        <ele>3.7</ele>
        <time>2020-06-02T15:40:51Z</time>
      </trkpt>
      <trkpt lat="46.35995" lon="-1.19805">
        <ele>3.7</ele>
        <time>2020-06-02T15:40:52Z</time>
      </trkpt>
      <trkpt lat="46.35995" lon="-1.19812">
        <ele>3.7</ele>
        <time>2020-06-02T15:40:53Z</time>
      </trkpt>
      <trkpt lat="46.35994" lon="-1.1982">
        <ele>3.7</ele>
        <time>2020-06-02T15:40:54Z</time>
      </trkpt>
      <trkpt lat="46.35993" lon="-1.19828">
        <ele>3.7</ele>
        <time>2020-06-02T15:40:55Z</time>
      </trkpt>
      <trkpt lat="46.35992" lon="-1.19837">
        <ele>3.6</ele>
        <time>2020-06-02T15:40:56Z</time>
      </trkpt>
      <trkpt lat="46.35992" lon="-1.19845">
        <ele>3.6</ele>
        <time>2020-06-02T15:40:57Z</time>
      </trkpt>
      <trkpt lat="46.35991" lon="-1.19854">
        <ele>3.6</ele>
        <time>2020-06-02T15:40:58Z</time>
      </trkpt>
      <trkpt lat="46.3599" lon="-1.19862">
        <ele>3.6</ele>
        <time>2020-06-02T15:40:59Z</time>
      </trkpt>
      <trkpt lat="46.35989" lon="-1.1987">
        <ele>3.6</ele>
        <time>2020-06-02T15:41:00Z</time>
      </trkpt>
      <trkpt lat="46.35987" lon="-1.19877">
        <ele>3.6</ele>
        <time>2020-06-02T15:41:01Z</time>
      </trkpt>
      <trkpt lat="46.35986" lon="-1.19885">
        <ele>3.6</ele>
        <time>2020-06-02T15:41:02Z</time>
      </trkpt>
      <trkpt lat="46.35985" lon="-1.19892">
        <ele>3.5</ele>
        <time>2020-06-02T15:41:03Z</time>
      </trkpt>
      <trkpt lat="46.35985" lon="-1.19899">
        <ele>3.5</ele>
        <time>2020-06-02T15:41:04Z</time>
      </trkpt>
      <trkpt lat="46.35984" lon="-1.19906">
        <ele>3.5</ele>
        <time>2020-06-02T15:41:05Z</time>
      </trkpt>
      <trkpt lat="46.35984" lon="-1.19913">
        <ele>3.5</ele>
        <time>2020-06-02T15:41:06Z</time>
      </trkpt>
      <trkpt lat="46.35983" lon="-1.19919">
        <ele>3.4</ele>
        <time>2020-06-02T15:41:07Z</time>
      </trkpt>
      <trkpt lat="46.35983" lon="-1.19927">
        <ele>3.4</ele>
        <time>2020-06-02T15:41:08Z</time>
      </trkpt>
      <trkpt lat="46.35982" lon="-1.19934">
        <ele>3.4</ele>
        <time>2020-06-02T15:41:09Z</time>
      </trkpt>
      <trkpt lat="46.35982" lon="-1.19941">
        <ele>3.4</ele>
        <time>2020-06-02T15:41:10Z</time>
      </trkpt>
      <trkpt lat="46.35982" lon="-1.19948">
        <ele>3.4</ele>
        <time>2020-06-02T15:41:11Z</time>
      </trkpt>
      <trkpt lat="46.35981" lon="-1.19956">
        <ele>3.4</ele>
        <time>2020-06-02T15:41:12Z</time>
      </trkpt>
      <trkpt lat="46.3598" lon="-1.19963">
        <ele>3.4</ele>
        <time>2020-06-02T15:41:13Z</time>
      </trkpt>
      <trkpt lat="46.3598" lon="-1.1997">
        <ele>3.4</ele>
        <time>2020-06-02T15:41:14Z</time>
      </trkpt>
      <trkpt lat="46.3598" lon="-1.19977">
        <ele>3.4</ele>
        <time>2020-06-02T15:41:15Z</time>
      </trkpt>
      <trkpt lat="46.35979" lon="-1.19984">
        <ele>3.4</ele>
        <time>2020-06-02T15:41:16Z</time>
      </trkpt>
      <trkpt lat="46.35978" lon="-1.19992">
        <ele>3.4</ele>
        <time>2020-06-02T15:41:17Z</time>
      </trkpt>
      <trkpt lat="46.35978" lon="-1.19999">
        <ele>3.4</ele>
        <time>2020-06-02T15:41:18Z</time>
      </trkpt>
      <trkpt lat="46.35977" lon="-1.20008">
        <ele>3.4</ele>
        <time>2020-06-02T15:41:19Z</time>
      </trkpt>
      <trkpt lat="46.35976" lon="-1.20015">
        <ele>3.4</ele>
        <time>2020-06-02T15:41:20Z</time>
      </trkpt>
      <trkpt lat="46.35975" lon="-1.20023">
        <ele>3.4</ele>
        <time>2020-06-02T15:41:21Z</time>
      </trkpt>
      <trkpt lat="46.35974" lon="-1.2003">
        <ele>3.3</ele>
        <time>2020-06-02T15:41:22Z</time>
      </trkpt>
      <trkpt lat="46.35974" lon="-1.20036">
        <ele>3.3</ele>
        <time>2020-06-02T15:41:23Z</time>
      </trkpt>
      <trkpt lat="46.35973" lon="-1.20043">
        <ele>3.3</ele>
        <time>2020-06-02T15:41:24Z</time>
      </trkpt>
      <trkpt lat="46.35973" lon="-1.2005">
        <ele>3.3</ele>
        <time>2020-06-02T15:41:25Z</time>
      </trkpt>
      <trkpt lat="46.35973" lon="-1.20056">
        <ele>3.3</ele>
        <time>2020-06-02T15:41:26Z</time>
      </trkpt>
      <trkpt lat="46.35972" lon="-1.20063">
        <ele>3.3</ele>
        <time>2020-06-02T15:41:27Z</time>
      </trkpt>
      <trkpt lat="46.35972" lon="-1.2007">
        <ele>3.3</ele>
        <time>2020-06-02T15:41:28Z</time>
      </trkpt>
      <trkpt lat="46.35971" lon="-1.20076">
        <ele>3.3</ele>
        <time>2020-06-02T15:41:29Z</time>
      </trkpt>
      <trkpt lat="46.35971" lon="-1.20083">
        <ele>3.3</ele>
        <time>2020-06-02T15:41:30Z</time>
      </trkpt>
      <trkpt lat="46.35971" lon="-1.20089">
        <ele>3.3</ele>
        <time>2020-06-02T15:41:31Z</time>
      </trkpt>
      <trkpt lat="46.35971" lon="-1.20096">
        <ele>3.3</ele>
        <time>2020-06-02T15:41:32Z</time>
      </trkpt>
      <trkpt lat="46.3597" lon="-1.20103">
        <ele>3.3</ele>
        <time>2020-06-02T15:41:33Z</time>
      </trkpt>
      <trkpt lat="46.3597" lon="-1.20109">
        <ele>3.3</ele>
        <time>2020-06-02T15:41:34Z</time>
      </trkpt>
      <trkpt lat="46.35969" lon="-1.20116">
        <ele>3.3</ele>
        <time>2020-06-02T15:41:35Z</time>
      </trkpt>
      <trkpt lat="46.35969" lon="-1.20122">
        <ele>3.3</ele>
        <time>2020-06-02T15:41:36Z</time>
      </trkpt>
      <trkpt lat="46.35968" lon="-1.20128">
        <ele>3.3</ele>
        <time>2020-06-02T15:41:37Z</time>
      </trkpt>
      <trkpt lat="46.35967" lon="-1.20134">
        <ele>3.3</ele>
        <time>2020-06-02T15:41:38Z</time>
      </trkpt>
      <trkpt lat="46.35966" lon="-1.2014">
        <ele>3.3</ele>
        <time>2020-06-02T15:41:39Z</time>
      </trkpt>
      <trkpt lat="46.35964" lon="-1.20146">
        <ele>3.3</ele>
        <time>2020-06-02T15:41:40Z</time>
      </trkpt>
      <trkpt lat="46.35963" lon="-1.20153">
        <ele>3.3</ele>
        <time>2020-06-02T15:41:41Z</time>
      </trkpt>
      <trkpt lat="46.35963" lon="-1.20161">
        <ele>3.3</ele>
        <time>2020-06-02T15:41:42Z</time>
      </trkpt>
      <trkpt lat="46.35962" lon="-1.20167">
        <ele>3.3</ele>
        <time>2020-06-02T15:41:43Z</time>
      </trkpt>
      <trkpt lat="46.35962" lon="-1.20174">
        <ele>3.3</ele>
        <time>2020-06-02T15:41:44Z</time>
      </trkpt>
      <trkpt lat="46.35962" lon="-1.20182">
        <ele>3.3</ele>
        <time>2020-06-02T15:41:45Z</time>
      </trkpt>
      <trkpt lat="46.35962" lon="-1.20189">
        <ele>3.3</ele>
        <time>2020-06-02T15:41:46Z</time>
      </trkpt>
      <trkpt lat="46.35962" lon="-1.20196">
        <ele>3.3</ele>
        <time>2020-06-02T15:41:47Z</time>
      </trkpt>
      <trkpt lat="46.35962" lon="-1.20204">
        <ele>3.3</ele>
        <time>2020-06-02T15:41:48Z</time>
      </trkpt>
      <trkpt lat="46.35961" lon="-1.20211">
        <ele>3.3</ele>
        <time>2020-06-02T15:41:49Z</time>
      </trkpt>
      <trkpt lat="46.3596" lon="-1.20218">
        <ele>3.3</ele>
        <time>2020-06-02T15:41:50Z</time>
      </trkpt>
      <trkpt lat="46.3596" lon="-1.20226">
        <ele>3.3</ele>
        <time>2020-06-02T15:41:51Z</time>
      </trkpt>
      <trkpt lat="46.35959" lon="-1.20234">
        <ele>3.3</ele>
        <time>2020-06-02T15:41:52Z</time>
      </trkpt>
      <trkpt lat="46.35958" lon="-1.20242">
        <ele>3.3</ele>
        <time>2020-06-02T15:41:53Z</time>
      </trkpt>
      <trkpt lat="46.35957" lon="-1.2025">
        <ele>3.3</ele>
        <time>2020-06-02T15:41:54Z</time>
      </trkpt>
      <trkpt lat="46.35956" lon="-1.20258">
        <ele>3.3</ele>
        <time>2020-06-02T15:41:55Z</time>
      </trkpt>
      <trkpt lat="46.35956" lon="-1.20265">
        <ele>3.3</ele>
        <time>2020-06-02T15:41:56Z</time>
      </trkpt>
      <trkpt lat="46.35955" lon="-1.20274">
        <ele>3.4</ele>
        <time>2020-06-02T15:41:57Z</time>
      </trkpt>
      <trkpt lat="46.35954" lon="-1.20282">
        <ele>3.4</ele>
        <time>2020-06-02T15:41:58Z</time>
      </trkpt>
      <trkpt lat="46.35953" lon="-1.20289">
        <ele>3.4</ele>
        <time>2020-06-02T15:41:59Z</time>
      </trkpt>
      <trkpt lat="46.35952" lon="-1.20297">
        <ele>3.4</ele>
        <time>2020-06-02T15:42:00Z</time>
      </trkpt>
      <trkpt lat="46.35951" lon="-1.20304">
        <ele>3.4</ele>
        <time>2020-06-02T15:42:01Z</time>
      </trkpt>
      <trkpt lat="46.3595" lon="-1.20311">
        <ele>3.4</ele>
        <time>2020-06-02T15:42:02Z</time>
      </trkpt>
      <trkpt lat="46.35949" lon="-1.20319">
        <ele>3.4</ele>
        <time>2020-06-02T15:42:03Z</time>
      </trkpt>
      <trkpt lat="46.35949" lon="-1.20327">
        <ele>3.5</ele>
        <time>2020-06-02T15:42:04Z</time>
      </trkpt>
      <trkpt lat="46.35948" lon="-1.20336">
        <ele>3.5</ele>
        <time>2020-06-02T15:42:05Z</time>
      </trkpt>
      <trkpt lat="46.35948" lon="-1.20344">
        <ele>3.5</ele>
        <time>2020-06-02T15:42:06Z</time>
      </trkpt>
      <trkpt lat="46.35947" lon="-1.20353">
        <ele>3.5</ele>
        <time>2020-06-02T15:42:07Z</time>
      </trkpt>
      <trkpt lat="46.35947" lon="-1.20361">
        <ele>3.5</ele>
        <time>2020-06-02T15:42:08Z</time>
      </trkpt>
      <trkpt lat="46.35946" lon="-1.2037">
        <ele>3.5</ele>
        <time>2020-06-02T15:42:09Z</time>
      </trkpt>
      <trkpt lat="46.35945" lon="-1.20378">
        <ele>3.5</ele>
        <time>2020-06-02T15:42:10Z</time>
      </trkpt>
      <trkpt lat="46.35944" lon="-1.20386">
        <ele>3.5</ele>
        <time>2020-06-02T15:42:11Z</time>
      </trkpt>
      <trkpt lat="46.35944" lon="-1.20394">
        <ele>3.5</ele>
        <time>2020-06-02T15:42:12Z</time>
      </trkpt>
      <trkpt lat="46.35943" lon="-1.20402">
        <ele>3.5</ele>
        <time>2020-06-02T15:42:13Z</time>
      </trkpt>
      <trkpt lat="46.35942" lon="-1.2041">
        <ele>3.5</ele>
        <time>2020-06-02T15:42:14Z</time>
      </trkpt>
      <trkpt lat="46.35941" lon="-1.20418">
        <ele>3.5</ele>
        <time>2020-06-02T15:42:15Z</time>
      </trkpt>
      <trkpt lat="46.3594" lon="-1.20427">
        <ele>3.5</ele>
        <time>2020-06-02T15:42:16Z</time>
      </trkpt>
      <trkpt lat="46.35939" lon="-1.20434">
        <ele>3.5</ele>
        <time>2020-06-02T15:42:17Z</time>
      </trkpt>
      <trkpt lat="46.35938" lon="-1.20442">
        <ele>3.5</ele>
        <time>2020-06-02T15:42:18Z</time>
      </trkpt>
      <trkpt lat="46.35937" lon="-1.20449">
        <ele>3.5</ele>
        <time>2020-06-02T15:42:19Z</time>
      </trkpt>
      <trkpt lat="46.35936" lon="-1.20458">
        <ele>3.5</ele>
        <time>2020-06-02T15:42:20Z</time>
      </trkpt>
      <trkpt lat="46.35935" lon="-1.20466">
        <ele>3.4</ele>
        <time>2020-06-02T15:42:21Z</time>
      </trkpt>
      <trkpt lat="46.35935" lon="-1.20475">
        <ele>3.4</ele>
        <time>2020-06-02T15:42:22Z</time>
      </trkpt>
      <trkpt lat="46.35934" lon="-1.20485">
        <ele>3.4</ele>
        <time>2020-06-02T15:42:23Z</time>
      </trkpt>
      <trkpt lat="46.35934" lon="-1.20494">
        <ele>3.4</ele>
        <time>2020-06-02T15:42:24Z</time>
      </trkpt>
      <trkpt lat="46.35933" lon="-1.20503">
        <ele>3.4</ele>
        <time>2020-06-02T15:42:25Z</time>
      </trkpt>
      <trkpt lat="46.35932" lon="-1.20511">
        <ele>3.4</ele>
        <time>2020-06-02T15:42:26Z</time>
      </trkpt>
      <trkpt lat="46.35932" lon="-1.20521">
        <ele>3.4</ele>
        <time>2020-06-02T15:42:27Z</time>
      </trkpt>
      <trkpt lat="46.35931" lon="-1.20531">
        <ele>3.3</ele>
        <time>2020-06-02T15:42:28Z</time>
      </trkpt>
      <trkpt lat="46.3593" lon="-1.2054">
        <ele>3.3</ele>
        <time>2020-06-02T15:42:29Z</time>
      </trkpt>
      <trkpt lat="46.35929" lon="-1.20551">
        <ele>3.3</ele>
        <time>2020-06-02T15:42:30Z</time>
      </trkpt>
      <trkpt lat="46.35928" lon="-1.2056">
        <ele>3.3</ele>
        <time>2020-06-02T15:42:31Z</time>
      </trkpt>
      <trkpt lat="46.35928" lon="-1.20569">
        <ele>3.3</ele>
        <time>2020-06-02T15:42:32Z</time>
      </trkpt>
      <trkpt lat="46.35927" lon="-1.20579">
        <ele>3.3</ele>
        <time>2020-06-02T15:42:33Z</time>
      </trkpt>
      <trkpt lat="46.35925" lon="-1.20588">
        <ele>3.3</ele>
        <time>2020-06-02T15:42:34Z</time>
      </trkpt>
      <trkpt lat="46.35924" lon="-1.20597">
        <ele>3.3</ele>
        <time>2020-06-02T15:42:35Z</time>
      </trkpt>
      <trkpt lat="46.35922" lon="-1.20606">
        <ele>3.3</ele>
        <time>2020-06-02T15:42:36Z</time>
      </trkpt>
      <trkpt lat="46.35922" lon="-1.20613">
        <ele>3.3</ele>
        <time>2020-06-02T15:42:37Z</time>
      </trkpt>
      <trkpt lat="46.35922" lon="-1.2062">
        <ele>3.3</ele>
        <time>2020-06-02T15:42:38Z</time>
      </trkpt>
      <trkpt lat="46.35921" lon="-1.20629">
        <ele>3.3</ele>
        <time>2020-06-02T15:42:39Z</time>
      </trkpt>
      <trkpt lat="46.35921" lon="-1.20638">
        <ele>3.3</ele>
        <time>2020-06-02T15:42:40Z</time>
      </trkpt>
      <trkpt lat="46.35921" lon="-1.20647">
        <ele>3.4</ele>
        <time>2020-06-02T15:42:41Z</time>
      </trkpt>
      <trkpt lat="46.35921" lon="-1.20656">
        <ele>3.4</ele>
        <time>2020-06-02T15:42:42Z</time>
      </trkpt>
      <trkpt lat="46.35921" lon="-1.20664">
        <ele>3.4</ele>
        <time>2020-06-02T15:42:43Z</time>
      </trkpt>
      <trkpt lat="46.35921" lon="-1.20671">
        <ele>3.5</ele>
        <time>2020-06-02T15:42:44Z</time>
      </trkpt>
      <trkpt lat="46.35921" lon="-1.20679">
        <ele>3.5</ele>
        <time>2020-06-02T15:42:45Z</time>
      </trkpt>
      <trkpt lat="46.35921" lon="-1.20687">
        <ele>3.5</ele>
        <time>2020-06-02T15:42:46Z</time>
      </trkpt>
      <trkpt lat="46.35921" lon="-1.20695">
        <ele>3.6</ele>
        <time>2020-06-02T15:42:47Z</time>
      </trkpt>
      <trkpt lat="46.35921" lon="-1.20703">
        <ele>3.6</ele>
        <time>2020-06-02T15:42:48Z</time>
      </trkpt>
      <trkpt lat="46.35921" lon="-1.2071">
        <ele>3.6</ele>
        <time>2020-06-02T15:42:49Z</time>
      </trkpt>
      <trkpt lat="46.35921" lon="-1.20719">
        <ele>3.6</ele>
        <time>2020-06-02T15:42:50Z</time>
      </trkpt>
      <trkpt lat="46.35922" lon="-1.20727">
        <ele>3.6</ele>
        <time>2020-06-02T15:42:51Z</time>
      </trkpt>
      <trkpt lat="46.35922" lon="-1.20736">
        <ele>3.6</ele>
        <time>2020-06-02T15:42:52Z</time>
      </trkpt>
      <trkpt lat="46.35922" lon="-1.20744">
        <ele>3.6</ele>
        <time>2020-06-02T15:42:53Z</time>
      </trkpt>
      <trkpt lat="46.35922" lon="-1.20753">
        <ele>3.6</ele>
        <time>2020-06-02T15:42:54Z</time>
      </trkpt>
      <trkpt lat="46.35922" lon="-1.20763">
        <ele>3.6</ele>
        <time>2020-06-02T15:42:55Z</time>
      </trkpt>
      <trkpt lat="46.35923" lon="-1.20772">
        <ele>3.6</ele>
        <time>2020-06-02T15:42:56Z</time>
      </trkpt>
      <trkpt lat="46.35923" lon="-1.20781">
        <ele>3.6</ele>
        <time>2020-06-02T15:42:57Z</time>
      </trkpt>
      <trkpt lat="46.35923" lon="-1.2079">
        <ele>3.6</ele>
        <time>2020-06-02T15:42:58Z</time>
      </trkpt>
      <trkpt lat="46.35924" lon="-1.20798">
        <ele>3.6</ele>
        <time>2020-06-02T15:42:59Z</time>
      </trkpt>
      <trkpt lat="46.35925" lon="-1.20807">
        <ele>3.5</ele>
        <time>2020-06-02T15:43:00Z</time>
      </trkpt>
      <trkpt lat="46.35926" lon="-1.20816">
        <ele>3.5</ele>
        <time>2020-06-02T15:43:01Z</time>
      </trkpt>
      <trkpt lat="46.35926" lon="-1.20824">
        <ele>3.5</ele>
        <time>2020-06-02T15:43:02Z</time>
      </trkpt>
      <trkpt lat="46.35927" lon="-1.20833">
        <ele>3.4</ele>
        <time>2020-06-02T15:43:03Z</time>
      </trkpt>
      <trkpt lat="46.35928" lon="-1.20841">
        <ele>3.4</ele>
        <time>2020-06-02T15:43:04Z</time>
      </trkpt>
      <trkpt lat="46.35929" lon="-1.20851">
        <ele>3.4</ele>
        <time>2020-06-02T15:43:05Z</time>
      </trkpt>
      <trkpt lat="46.35929" lon="-1.2086">
        <ele>3.4</ele>
        <time>2020-06-02T15:43:06Z</time>
      </trkpt>
      <trkpt lat="46.35929" lon="-1.20869">
        <ele>3.4</ele>
        <time>2020-06-02T15:43:07Z</time>
      </trkpt>
      <trkpt lat="46.35929" lon="-1.20878">
        <ele>3.4</ele>
        <time>2020-06-02T15:43:08Z</time>
      </trkpt>
      <trkpt lat="46.35929" lon="-1.20887">
        <ele>3.4</ele>
        <time>2020-06-02T15:43:09Z</time>
      </trkpt>
      <trkpt lat="46.3593" lon="-1.20896">
        <ele>3.4</ele>
        <time>2020-06-02T15:43:10Z</time>
      </trkpt>
      <trkpt lat="46.3593" lon="-1.20905">
        <ele>3.3</ele>
        <time>2020-06-02T15:43:11Z</time>
      </trkpt>
      <trkpt lat="46.3593" lon="-1.20913">
        <ele>3.3</ele>
        <time>2020-06-02T15:43:12Z</time>
      </trkpt>
      <trkpt lat="46.35931" lon="-1.20922">
        <ele>3.3</ele>
        <time>2020-06-02T15:43:13Z</time>
      </trkpt>
      <trkpt lat="46.35931" lon="-1.20931">
        <ele>3.3</ele>
        <time>2020-06-02T15:43:14Z</time>
      </trkpt>
      <trkpt lat="46.35932" lon="-1.20939">
        <ele>3.3</ele>
        <time>2020-06-02T15:43:15Z</time>
      </trkpt>
      <trkpt lat="46.35932" lon="-1.20948">
        <ele>3.3</ele>
        <time>2020-06-02T15:43:16Z</time>
      </trkpt>
      <trkpt lat="46.35933" lon="-1.20955">
        <ele>3.3</ele>
        <time>2020-06-02T15:43:17Z</time>
      </trkpt>
      <trkpt lat="46.35934" lon="-1.20964">
        <ele>3.3</ele>
        <time>2020-06-02T15:43:18Z</time>
      </trkpt>
      <trkpt lat="46.35935" lon="-1.20975">
        <ele>3.2</ele>
        <time>2020-06-02T15:43:19Z</time>
      </trkpt>
      <trkpt lat="46.35936" lon="-1.20984">
        <ele>3.2</ele>
        <time>2020-06-02T15:43:20Z</time>
      </trkpt>
      <trkpt lat="46.35936" lon="-1.20993">
        <ele>3.2</ele>
        <time>2020-06-02T15:43:21Z</time>
      </trkpt>
      <trkpt lat="46.35937" lon="-1.21002">
        <ele>3.2</ele>
        <time>2020-06-02T15:43:22Z</time>
      </trkpt>
      <trkpt lat="46.35938" lon="-1.21012">
        <ele>3.2</ele>
        <time>2020-06-02T15:43:23Z</time>
      </trkpt>
      <trkpt lat="46.35938" lon="-1.21021">
        <ele>3.1</ele>
        <time>2020-06-02T15:43:24Z</time>
      </trkpt>
      <trkpt lat="46.35938" lon="-1.2103">
        <ele>3.1</ele>
        <time>2020-06-02T15:43:25Z</time>
      </trkpt>
      <trkpt lat="46.35939" lon="-1.21039">
        <ele>3.1</ele>
        <time>2020-06-02T15:43:26Z</time>
      </trkpt>
      <trkpt lat="46.3594" lon="-1.21049">
        <ele>3.1</ele>
        <time>2020-06-02T15:43:27Z</time>
      </trkpt>
      <trkpt lat="46.35941" lon="-1.21056">
        <ele>3.1</ele>
        <time>2020-06-02T15:43:28Z</time>
      </trkpt>
      <trkpt lat="46.35942" lon="-1.21065">
        <ele>3.1</ele>
        <time>2020-06-02T15:43:29Z</time>
      </trkpt>
      <trkpt lat="46.35943" lon="-1.21073">
        <ele>3.1</ele>
        <time>2020-06-02T15:43:30Z</time>
      </trkpt>
      <trkpt lat="46.35943" lon="-1.21082">
        <ele>3.1</ele>
        <time>2020-06-02T15:43:31Z</time>
      </trkpt>
      <trkpt lat="46.35944" lon="-1.21092">
        <ele>3.1</ele>
        <time>2020-06-02T15:43:32Z</time>
      </trkpt>
      <trkpt lat="46.35944" lon="-1.21101">
        <ele>3.1</ele>
        <time>2020-06-02T15:43:33Z</time>
      </trkpt>
      <trkpt lat="46.35944" lon="-1.2111">
        <ele>3.1</ele>
        <time>2020-06-02T15:43:34Z</time>
      </trkpt>
      <trkpt lat="46.35944" lon="-1.21119">
        <ele>3.1</ele>
        <time>2020-06-02T15:43:35Z</time>
      </trkpt>
      <trkpt lat="46.35945" lon="-1.21127">
        <ele>3.2</ele>
        <time>2020-06-02T15:43:36Z</time>
      </trkpt>
      <trkpt lat="46.35945" lon="-1.21136">
        <ele>3.2</ele>
        <time>2020-06-02T15:43:37Z</time>
      </trkpt>
      <trkpt lat="46.35946" lon="-1.21145">
        <ele>3.2</ele>
        <time>2020-06-02T15:43:38Z</time>
      </trkpt>
      <trkpt lat="46.35946" lon="-1.21153">
        <ele>3.2</ele>
        <time>2020-06-02T15:43:39Z</time>
      </trkpt>
      <trkpt lat="46.35946" lon="-1.21162">
        <ele>3.3</ele>
        <time>2020-06-02T15:43:40Z</time>
      </trkpt>
      <trkpt lat="46.35946" lon="-1.21171">
        <ele>3.3</ele>
        <time>2020-06-02T15:43:41Z</time>
      </trkpt>
      <trkpt lat="46.35947" lon="-1.21181">
        <ele>3.3</ele>
        <time>2020-06-02T15:43:42Z</time>
      </trkpt>
      <trkpt lat="46.35947" lon="-1.21191">
        <ele>3.3</ele>
        <time>2020-06-02T15:43:43Z</time>
      </trkpt>
      <trkpt lat="46.35948" lon="-1.21199">
        <ele>3.2</ele>
        <time>2020-06-02T15:43:44Z</time>
      </trkpt>
      <trkpt lat="46.35948" lon="-1.21208">
        <ele>3.2</ele>
        <time>2020-06-02T15:43:45Z</time>
      </trkpt>
      <trkpt lat="46.35949" lon="-1.21215">
        <ele>3.2</ele>
        <time>2020-06-02T15:43:46Z</time>
      </trkpt>
      <trkpt lat="46.35949" lon="-1.21222">
        <ele>3.2</ele>
        <time>2020-06-02T15:43:47Z</time>
      </trkpt>
      <trkpt lat="46.3595" lon="-1.21231">
        <ele>3.2</ele>
        <time>2020-06-02T15:43:48Z</time>
      </trkpt>
      <trkpt lat="46.3595" lon="-1.21241">
        <ele>3.2</ele>
        <time>2020-06-02T15:43:49Z</time>
      </trkpt>
      <trkpt lat="46.3595" lon="-1.21252">
        <ele>3.2</ele>
        <time>2020-06-02T15:43:50Z</time>
      </trkpt>
      <trkpt lat="46.35952" lon="-1.21261">
        <ele>3.2</ele>
        <time>2020-06-02T15:43:51Z</time>
      </trkpt>
      <trkpt lat="46.35953" lon="-1.2127">
        <ele>3.2</ele>
        <time>2020-06-02T15:43:52Z</time>
      </trkpt>
      <trkpt lat="46.35954" lon="-1.21277">
        <ele>3.2</ele>
        <time>2020-06-02T15:43:53Z</time>
      </trkpt>
      <trkpt lat="46.35955" lon="-1.21284">
        <ele>3.2</ele>
        <time>2020-06-02T15:43:54Z</time>
      </trkpt>
      <trkpt lat="46.35956" lon="-1.21292">
        <ele>3.2</ele>
        <time>2020-06-02T15:43:55Z</time>
      </trkpt>
      <trkpt lat="46.35956" lon="-1.213">
        <ele>3.2</ele>
        <time>2020-06-02T15:43:56Z</time>
      </trkpt>
      <trkpt lat="46.35956" lon="-1.21308">
        <ele>3.2</ele>
        <time>2020-06-02T15:43:57Z</time>
      </trkpt>
      <trkpt lat="46.35956" lon="-1.21317">
        <ele>3.2</ele>
        <time>2020-06-02T15:43:58Z</time>
      </trkpt>
      <trkpt lat="46.35956" lon="-1.21326">
        <ele>3.3</ele>
        <time>2020-06-02T15:43:59Z</time>
      </trkpt>
      <trkpt lat="46.35956" lon="-1.21335">
        <ele>3.3</ele>
        <time>2020-06-02T15:44:00Z</time>
      </trkpt>
      <trkpt lat="46.35956" lon="-1.21344">
        <ele>3.3</ele>
        <time>2020-06-02T15:44:01Z</time>
      </trkpt>
      <trkpt lat="46.35956" lon="-1.21353">
        <ele>3.3</ele>
        <time>2020-06-02T15:44:02Z</time>
      </trkpt>
      <trkpt lat="46.35957" lon="-1.21362">
        <ele>3.3</ele>
        <time>2020-06-02T15:44:03Z</time>
      </trkpt>
      <trkpt lat="46.35958" lon="-1.21372">
        <ele>3.4</ele>
        <time>2020-06-02T15:44:04Z</time>
      </trkpt>
      <trkpt lat="46.35959" lon="-1.2138">
        <ele>3.4</ele>
        <time>2020-06-02T15:44:05Z</time>
      </trkpt>
      <trkpt lat="46.35959" lon="-1.21389">
        <ele>3.4</ele>
        <time>2020-06-02T15:44:06Z</time>
      </trkpt>
      <trkpt lat="46.3596" lon="-1.21398">
        <ele>3.4</ele>
        <time>2020-06-02T15:44:07Z</time>
      </trkpt>
      <trkpt lat="46.35961" lon="-1.21407">
        <ele>3.4</ele>
        <time>2020-06-02T15:44:08Z</time>
      </trkpt>
      <trkpt lat="46.35961" lon="-1.21415">
        <ele>3.4</ele>
        <time>2020-06-02T15:44:09Z</time>
      </trkpt>
      <trkpt lat="46.35961" lon="-1.21424">
        <ele>3.4</ele>
        <time>2020-06-02T15:44:10Z</time>
      </trkpt>
      <trkpt lat="46.35961" lon="-1.21432">
        <ele>3.4</ele>
        <time>2020-06-02T15:44:11Z</time>
      </trkpt>
      <trkpt lat="46.35962" lon="-1.21439">
        <ele>3.4</ele>
        <time>2020-06-02T15:44:12Z</time>
      </trkpt>
      <trkpt lat="46.35962" lon="-1.21447">
        <ele>3.4</ele>
        <time>2020-06-02T15:44:13Z</time>
      </trkpt>
      <trkpt lat="46.35963" lon="-1.21455">
        <ele>3.3</ele>
        <time>2020-06-02T15:44:14Z</time>
      </trkpt>
      <trkpt lat="46.35964" lon="-1.21462">
        <ele>3.3</ele>
        <time>2020-06-02T15:44:15Z</time>
      </trkpt>
      <trkpt lat="46.35964" lon="-1.2147">
        <ele>3.3</ele>
        <time>2020-06-02T15:44:16Z</time>
      </trkpt>
      <trkpt lat="46.35965" lon="-1.21478">
        <ele>3.3</ele>
        <time>2020-06-02T15:44:17Z</time>
      </trkpt>
      <trkpt lat="46.35965" lon="-1.21486">
        <ele>3.2</ele>
        <time>2020-06-02T15:44:18Z</time>
      </trkpt>
      <trkpt lat="46.35966" lon="-1.21495">
        <ele>3.2</ele>
        <time>2020-06-02T15:44:19Z</time>
      </trkpt>
      <trkpt lat="46.35966" lon="-1.21503">
        <ele>3.1</ele>
        <time>2020-06-02T15:44:20Z</time>
      </trkpt>
      <trkpt lat="46.35967" lon="-1.21512">
        <ele>3.1</ele>
        <time>2020-06-02T15:44:21Z</time>
      </trkpt>
      <trkpt lat="46.35967" lon="-1.2152">
        <ele>3.1</ele>
        <time>2020-06-02T15:44:22Z</time>
      </trkpt>
      <trkpt lat="46.35967" lon="-1.21527">
        <ele>3.1</ele>
        <time>2020-06-02T15:44:23Z</time>
      </trkpt>
      <trkpt lat="46.35968" lon="-1.21536">
        <ele>3.2</ele>
        <time>2020-06-02T15:44:24Z</time>
      </trkpt>
      <trkpt lat="46.35969" lon="-1.21543">
        <ele>3.2</ele>
        <time>2020-06-02T15:44:25Z</time>
      </trkpt>
      <trkpt lat="46.35969" lon="-1.21551">
        <ele>3.2</ele>
        <time>2020-06-02T15:44:26Z</time>
      </trkpt>
      <trkpt lat="46.35969" lon="-1.2156">
        <ele>3.3</ele>
        <time>2020-06-02T15:44:27Z</time>
      </trkpt>
      <trkpt lat="46.35969" lon="-1.21567">
        <ele>3.3</ele>
        <time>2020-06-02T15:44:28Z</time>
      </trkpt>
      <trkpt lat="46.3597" lon="-1.21575">
        <ele>3.4</ele>
        <time>2020-06-02T15:44:29Z</time>
      </trkpt>
      <trkpt lat="46.3597" lon="-1.21583">
        <ele>3.4</ele>
        <time>2020-06-02T15:44:30Z</time>
      </trkpt>
      <trkpt lat="46.3597" lon="-1.21591">
        <ele>3.5</ele>
        <time>2020-06-02T15:44:31Z</time>
      </trkpt>
      <trkpt lat="46.35971" lon="-1.21599">
        <ele>3.5</ele>
        <time>2020-06-02T15:44:32Z</time>
      </trkpt>
      <trkpt lat="46.35971" lon="-1.21607">
        <ele>3.5</ele>
        <time>2020-06-02T15:44:33Z</time>
      </trkpt>
      <trkpt lat="46.35971" lon="-1.21615">
        <ele>3.5</ele>
        <time>2020-06-02T15:44:34Z</time>
      </trkpt>
      <trkpt lat="46.35971" lon="-1.21622">
        <ele>3.6</ele>
        <time>2020-06-02T15:44:35Z</time>
      </trkpt>
      <trkpt lat="46.35971" lon="-1.2163">
        <ele>3.6</ele>
        <time>2020-06-02T15:44:36Z</time>
      </trkpt>
      <trkpt lat="46.35971" lon="-1.21637">
        <ele>3.6</ele>
        <time>2020-06-02T15:44:37Z</time>
      </trkpt>
      <trkpt lat="46.35971" lon="-1.21645">
        <ele>3.6</ele>
        <time>2020-06-02T15:44:38Z</time>
      </trkpt>
      <trkpt lat="46.35971" lon="-1.21653">
        <ele>3.6</ele>
        <time>2020-06-02T15:44:39Z</time>
      </trkpt>
      <trkpt lat="46.35971" lon="-1.2166">
        <ele>3.6</ele>
        <time>2020-06-02T15:44:40Z</time>
      </trkpt>
      <trkpt lat="46.35972" lon="-1.21666">
        <ele>3.7</ele>
        <time>2020-06-02T15:44:41Z</time>
      </trkpt>
      <trkpt lat="46.35972" lon="-1.21672">
        <ele>3.7</ele>
        <time>2020-06-02T15:44:42Z</time>
      </trkpt>
      <trkpt lat="46.35972" lon="-1.21677">
        <ele>3.7</ele>
        <time>2020-06-02T15:44:43Z</time>
      </trkpt>
      <trkpt lat="46.35971" lon="-1.21682">
        <ele>3.6</ele>
        <time>2020-06-02T15:44:44Z</time>
      </trkpt>
      <trkpt lat="46.35971" lon="-1.21683">
        <ele>3.6</ele>
        <time>2020-06-02T15:44:45Z</time>
      </trkpt>
      <trkpt lat="46.35971" lon="-1.21684">
        <ele>3.6</ele>
        <time>2020-06-02T15:44:46Z</time>
      </trkpt>
      <trkpt lat="46.35971" lon="-1.21684">
        <ele>3.5</ele>
        <time>2020-06-02T15:44:47Z</time>
      </trkpt>
      <trkpt lat="46.3597" lon="-1.21686">
        <ele>3.5</ele>
        <time>2020-06-02T15:44:48Z</time>
      </trkpt>
      <trkpt lat="46.35969" lon="-1.21687">
        <ele>3.5</ele>
        <time>2020-06-02T15:44:49Z</time>
      </trkpt>
      <trkpt lat="46.35969" lon="-1.21691">
        <ele>3.4</ele>
        <time>2020-06-02T15:44:50Z</time>
      </trkpt>
      <trkpt lat="46.35968" lon="-1.21693">
        <ele>3.4</ele>
        <time>2020-06-02T15:44:51Z</time>
      </trkpt>
      <trkpt lat="46.35965" lon="-1.21695">
        <ele>3.4</ele>
        <time>2020-06-02T15:44:52Z</time>
      </trkpt>
      <trkpt lat="46.35964" lon="-1.21695">
        <ele>3.4</ele>
        <time>2020-06-02T15:44:53Z</time>
      </trkpt>
      <trkpt lat="46.35959" lon="-1.21694">
        <ele>3.3</ele>
        <time>2020-06-02T15:44:54Z</time>
      </trkpt>
      <trkpt lat="46.35955" lon="-1.21692">
        <ele>3.3</ele>
        <time>2020-06-02T15:44:55Z</time>
      </trkpt>
      <trkpt lat="46.35952" lon="-1.2169">
        <ele>3.3</ele>
        <time>2020-06-02T15:44:56Z</time>
      </trkpt>
      <trkpt lat="46.35947" lon="-1.21688">
        <ele>3.3</ele>
        <time>2020-06-02T15:44:57Z</time>
      </trkpt>
      <trkpt lat="46.35943" lon="-1.21688">
        <ele>3.3</ele>
        <time>2020-06-02T15:44:58Z</time>
      </trkpt>
      <trkpt lat="46.35939" lon="-1.21687">
        <ele>3.3</ele>
        <time>2020-06-02T15:44:59Z</time>
      </trkpt>
      <trkpt lat="46.35935" lon="-1.21686">
        <ele>3.4</ele>
        <time>2020-06-02T15:45:00Z</time>
      </trkpt>
      <trkpt lat="46.35931" lon="-1.21685">
        <ele>3.4</ele>
        <time>2020-06-02T15:45:01Z</time>
      </trkpt>
      <trkpt lat="46.35927" lon="-1.21684">
        <ele>3.4</ele>
        <time>2020-06-02T15:45:02Z</time>
      </trkpt>
      <trkpt lat="46.35923" lon="-1.21681">
        <ele>3.4</ele>
        <time>2020-06-02T15:45:03Z</time>
      </trkpt>
      <trkpt lat="46.35919" lon="-1.2168">
        <ele>3.4</ele>
        <time>2020-06-02T15:45:04Z</time>
      </trkpt>
      <trkpt lat="46.35915" lon="-1.21678">
        <ele>3.4</ele>
        <time>2020-06-02T15:45:05Z</time>
      </trkpt>
      <trkpt lat="46.3591" lon="-1.21677">
        <ele>3.5</ele>
        <time>2020-06-02T15:45:06Z</time>
      </trkpt>
      <trkpt lat="46.35906" lon="-1.21675">
        <ele>3.5</ele>
        <time>2020-06-02T15:45:07Z</time>
      </trkpt>
      <trkpt lat="46.35902" lon="-1.21673">
        <ele>3.5</ele>
        <time>2020-06-02T15:45:08Z</time>
      </trkpt>
      <trkpt lat="46.35898" lon="-1.21673">
        <ele>3.5</ele>
        <time>2020-06-02T15:45:09Z</time>
      </trkpt>
      <trkpt lat="46.35893" lon="-1.21671">
        <ele>3.6</ele>
        <time>2020-06-02T15:45:10Z</time>
      </trkpt>
      <trkpt lat="46.35889" lon="-1.2167">
        <ele>3.6</ele>
        <time>2020-06-02T15:45:11Z</time>
      </trkpt>
      <trkpt lat="46.35884" lon="-1.21668">
        <ele>3.6</ele>
        <time>2020-06-02T15:45:12Z</time>
      </trkpt>
      <trkpt lat="46.3588" lon="-1.21666">
        <ele>3.7</ele>
        <time>2020-06-02T15:45:13Z</time>
      </trkpt>
      <trkpt lat="46.35875" lon="-1.21665">
        <ele>3.7</ele>
        <time>2020-06-02T15:45:14Z</time>
      </trkpt>
      <trkpt lat="46.35871" lon="-1.21663">
        <ele>3.7</ele>
        <time>2020-06-02T15:45:15Z</time>
      </trkpt>
      <trkpt lat="46.35866" lon="-1.21661">
        <ele>3.7</ele>
        <time>2020-06-02T15:45:16Z</time>
      </trkpt>
      <trkpt lat="46.35862" lon="-1.21659">
        <ele>3.7</ele>
        <time>2020-06-02T15:45:17Z</time>
      </trkpt>
      <trkpt lat="46.35858" lon="-1.21658">
        <ele>3.7</ele>
        <time>2020-06-02T15:45:18Z</time>
      </trkpt>
      <trkpt lat="46.35854" lon="-1.21656">
        <ele>3.8</ele>
        <time>2020-06-02T15:45:19Z</time>
      </trkpt>
      <trkpt lat="46.3585" lon="-1.21655">
        <ele>3.8</ele>
        <time>2020-06-02T15:45:20Z</time>
      </trkpt>
      <trkpt lat="46.35847" lon="-1.21654">
        <ele>3.8</ele>
        <time>2020-06-02T15:45:21Z</time>
      </trkpt>
      <trkpt lat="46.35843" lon="-1.21653">
        <ele>3.8</ele>
        <time>2020-06-02T15:45:22Z</time>
      </trkpt>
      <trkpt lat="46.35839" lon="-1.21651">
        <ele>3.9</ele>
        <time>2020-06-02T15:45:23Z</time>
      </trkpt>
      <trkpt lat="46.35835" lon="-1.21649">
        <ele>4</ele>
        <time>2020-06-02T15:45:24Z</time>
      </trkpt>
      <trkpt lat="46.35831" lon="-1.21647">
        <ele>4</ele>
        <time>2020-06-02T15:45:25Z</time>
      </trkpt>
      <trkpt lat="46.35827" lon="-1.21645">
        <ele>4.1</ele>
        <time>2020-06-02T15:45:26Z</time>
      </trkpt>
      <trkpt lat="46.35823" lon="-1.21642">
        <ele>4.2</ele>
        <time>2020-06-02T15:45:27Z</time>
      </trkpt>
      <trkpt lat="46.35819" lon="-1.21639">
        <ele>4.3</ele>
        <time>2020-06-02T15:45:28Z</time>
      </trkpt>
      <trkpt lat="46.35815" lon="-1.21639">
        <ele>4.4</ele>
        <time>2020-06-02T15:45:29Z</time>
      </trkpt>
      <trkpt lat="46.35811" lon="-1.21637">
        <ele>4.5</ele>
        <time>2020-06-02T15:45:30Z</time>
      </trkpt>
      <trkpt lat="46.35807" lon="-1.21635">
        <ele>4.5</ele>
        <time>2020-06-02T15:45:31Z</time>
      </trkpt>
      <trkpt lat="46.35804" lon="-1.21634">
        <ele>4.6</ele>
        <time>2020-06-02T15:45:32Z</time>
      </trkpt>
      <trkpt lat="46.358" lon="-1.21633">
        <ele>4.7</ele>
        <time>2020-06-02T15:45:33Z</time>
      </trkpt>
      <trkpt lat="46.35798" lon="-1.21633">
        <ele>4.7</ele>
        <time>2020-06-02T15:45:34Z</time>
      </trkpt>
      <trkpt lat="46.35799" lon="-1.21633">
        <ele>4.7</ele>
        <time>2020-06-02T15:45:35Z</time>
      </trkpt>
      <trkpt lat="46.35799" lon="-1.21634">
        <ele>4.7</ele>
        <time>2020-06-02T15:45:36Z</time>
      </trkpt>
      <trkpt lat="46.35799" lon="-1.21635">
        <ele>4.7</ele>
        <time>2020-06-02T15:45:37Z</time>
      </trkpt>
      <trkpt lat="46.35799" lon="-1.21636">
        <ele>4.7</ele>
        <time>2020-06-02T15:45:38Z</time>
      </trkpt>
      <trkpt lat="46.35799" lon="-1.21636">
        <ele>4.7</ele>
        <time>2020-06-02T15:45:39Z</time>
      </trkpt>
      <trkpt lat="46.35799" lon="-1.21637">
        <ele>4.8</ele>
        <time>2020-06-02T15:45:40Z</time>
      </trkpt>
      <trkpt lat="46.358" lon="-1.21638">
        <ele>4.8</ele>
        <time>2020-06-02T15:45:41Z</time>
      </trkpt>
      <trkpt lat="46.358" lon="-1.21639">
        <ele>4.8</ele>
        <time>2020-06-02T15:45:42Z</time>
      </trkpt>
      <trkpt lat="46.358" lon="-1.21641">
        <ele>4.8</ele>
        <time>2020-06-02T15:45:43Z</time>
      </trkpt>
      <trkpt lat="46.358" lon="-1.21643">
        <ele>4.8</ele>
        <time>2020-06-02T15:45:44Z</time>
      </trkpt>
      <trkpt lat="46.35799" lon="-1.21647">
        <ele>4.8</ele>
        <time>2020-06-02T15:45:45Z</time>
      </trkpt>
      <trkpt lat="46.35799" lon="-1.21649">
        <ele>4.8</ele>
        <time>2020-06-02T15:45:46Z</time>
      </trkpt>
      <trkpt lat="46.35798" lon="-1.2165">
        <ele>4.8</ele>
        <time>2020-06-02T15:45:47Z</time>
      </trkpt>
      <trkpt lat="46.35798" lon="-1.21651">
        <ele>4.8</ele>
        <time>2020-06-02T15:45:48Z</time>
      </trkpt>
      <trkpt lat="46.35797" lon="-1.21652">
        <ele>4.8</ele>
        <time>2020-06-02T15:45:49Z</time>
      </trkpt>
      <trkpt lat="46.35797" lon="-1.21653">
        <ele>4.8</ele>
        <time>2020-06-02T15:45:50Z</time>
      </trkpt>
      <trkpt lat="46.35797" lon="-1.21654">
        <ele>4.8</ele>
        <time>2020-06-02T15:45:51Z</time>
      </trkpt>
      <trkpt lat="46.35796" lon="-1.21655">
        <ele>4.8</ele>
        <time>2020-06-02T15:45:52Z</time>
      </trkpt>
      <trkpt lat="46.35796" lon="-1.21655">
        <ele>4.8</ele>
        <time>2020-06-02T15:45:53Z</time>
      </trkpt>
      <trkpt lat="46.35796" lon="-1.21655">
        <ele>4.8</ele>
        <time>2020-06-02T15:45:54Z</time>
      </trkpt>
      <trkpt lat="46.35796" lon="-1.21655">
        <ele>4.8</ele>
        <time>2020-06-02T15:45:55Z</time>
      </trkpt>
      <trkpt lat="46.35796" lon="-1.21655">
        <ele>4.8</ele>
        <time>2020-06-02T15:45:56Z</time>
      </trkpt>
      <trkpt lat="46.35796" lon="-1.21655">
        <ele>4.8</ele>
        <time>2020-06-02T15:45:57Z</time>
      </trkpt>
      <trkpt lat="46.35796" lon="-1.21655">
        <ele>4.8</ele>
        <time>2020-06-02T15:45:58Z</time>
      </trkpt>
      <trkpt lat="46.35796" lon="-1.21655">
        <ele>4.8</ele>
        <time>2020-06-02T15:45:59Z</time>
      </trkpt>
      <trkpt lat="46.35796" lon="-1.21655">
        <ele>4.8</ele>
        <time>2020-06-02T15:46:00Z</time>
      </trkpt>
      <trkpt lat="46.35796" lon="-1.21655">
        <ele>4.8</ele>
        <time>2020-06-02T15:46:01Z</time>
      </trkpt>
      <trkpt lat="46.35796" lon="-1.21655">
        <ele>4.8</ele>
        <time>2020-06-02T15:46:02Z</time>
      </trkpt>
      <trkpt lat="46.35796" lon="-1.21655">
        <ele>4.8</ele>
        <time>2020-06-02T15:46:03Z</time>
      </trkpt>
      <trkpt lat="46.35796" lon="-1.21655">
        <ele>4.8</ele>
        <time>2020-06-02T15:46:04Z</time>
      </trkpt>
      <trkpt lat="46.35796" lon="-1.21655">
        <ele>4.8</ele>
        <time>2020-06-02T15:46:05Z</time>
      </trkpt>
      <trkpt lat="46.35796" lon="-1.21655">
        <ele>4.8</ele>
        <time>2020-06-02T15:46:06Z</time>
      </trkpt>
      <trkpt lat="46.35796" lon="-1.21655">
        <ele>4.8</ele>
        <time>2020-06-02T15:46:07Z</time>
      </trkpt>
      <trkpt lat="46.35796" lon="-1.21655">
        <ele>4.8</ele>
        <time>2020-06-02T15:46:08Z</time>
      </trkpt>
      <trkpt lat="46.35796" lon="-1.21655">
        <ele>4.8</ele>
        <time>2020-06-02T15:46:09Z</time>
      </trkpt>
      <trkpt lat="46.35796" lon="-1.21655">
        <ele>4.8</ele>
        <time>2020-06-02T15:46:10Z</time>
      </trkpt>
      <trkpt lat="46.35796" lon="-1.21655">
        <ele>4.8</ele>
        <time>2020-06-02T15:46:11Z</time>
      </trkpt>
      <trkpt lat="46.35796" lon="-1.21655">
        <ele>4.8</ele>
        <time>2020-06-02T15:46:12Z</time>
      </trkpt>
      <trkpt lat="46.35796" lon="-1.21655">
        <ele>4.8</ele>
        <time>2020-06-02T15:46:13Z</time>
      </trkpt>
      <trkpt lat="46.35796" lon="-1.21655">
        <ele>4.8</ele>
        <time>2020-06-02T15:46:14Z</time>
      </trkpt>
      <trkpt lat="46.35796" lon="-1.21655">
        <ele>4.8</ele>
        <time>2020-06-02T15:46:15Z</time>
      </trkpt>
      <trkpt lat="46.35796" lon="-1.21655">
        <ele>4.8</ele>
        <time>2020-06-02T15:46:16Z</time>
      </trkpt>
      <trkpt lat="46.35796" lon="-1.21655">
        <ele>4.8</ele>
        <time>2020-06-02T15:46:17Z</time>
      </trkpt>
      <trkpt lat="46.35796" lon="-1.21655">
        <ele>4.8</ele>
        <time>2020-06-02T15:46:18Z</time>
      </trkpt>
      <trkpt lat="46.35796" lon="-1.21655">
        <ele>4.8</ele>
        <time>2020-06-02T15:46:19Z</time>
      </trkpt>
      <trkpt lat="46.35795" lon="-1.21655">
        <ele>4.8</ele>
        <time>2020-06-02T15:46:20Z</time>
      </trkpt>
      <trkpt lat="46.35795" lon="-1.21655">
        <ele>4.8</ele>
        <time>2020-06-02T15:46:21Z</time>
      </trkpt>
      <trkpt lat="46.35796" lon="-1.21655">
        <ele>4.8</ele>
        <time>2020-06-02T15:46:22Z</time>
      </trkpt>
      <trkpt lat="46.35796" lon="-1.21655">
        <ele>4.8</ele>
        <time>2020-06-02T15:46:23Z</time>
      </trkpt>
      <trkpt lat="46.35796" lon="-1.21655">
        <ele>4.8</ele>
        <time>2020-06-02T15:46:24Z</time>
      </trkpt>
      <trkpt lat="46.35795" lon="-1.21655">
        <ele>4.8</ele>
        <time>2020-06-02T15:46:25Z</time>
      </trkpt>
      <trkpt lat="46.35795" lon="-1.21655">
        <ele>4.8</ele>
        <time>2020-06-02T15:46:26Z</time>
      </trkpt>
      <trkpt lat="46.35795" lon="-1.21655">
        <ele>4.8</ele>
        <time>2020-06-02T15:46:27Z</time>
      </trkpt>
      <trkpt lat="46.35795" lon="-1.21656">
        <ele>4.8</ele>
        <time>2020-06-02T15:46:28Z</time>
      </trkpt>
      <trkpt lat="46.35795" lon="-1.21655">
        <ele>4.8</ele>
        <time>2020-06-02T15:46:29Z</time>
      </trkpt>
      <trkpt lat="46.35794" lon="-1.21655">
        <ele>4.8</ele>
        <time>2020-06-02T15:46:30Z</time>
      </trkpt>
      <trkpt lat="46.35794" lon="-1.21655">
        <ele>4.8</ele>
        <time>2020-06-02T15:46:31Z</time>
      </trkpt>
      <trkpt lat="46.35794" lon="-1.21655">
        <ele>4.8</ele>
        <time>2020-06-02T15:46:32Z</time>
      </trkpt>
      <trkpt lat="46.35795" lon="-1.21655">
        <ele>4.8</ele>
        <time>2020-06-02T15:46:33Z</time>
      </trkpt>
      <trkpt lat="46.35795" lon="-1.21655">
        <ele>4.8</ele>
        <time>2020-06-02T15:46:34Z</time>
      </trkpt>
      <trkpt lat="46.35795" lon="-1.21655">
        <ele>4.8</ele>
        <time>2020-06-02T15:46:35Z</time>
      </trkpt>
      <trkpt lat="46.35795" lon="-1.21655">
        <ele>4.8</ele>
        <time>2020-06-02T15:46:36Z</time>
      </trkpt>
      <trkpt lat="46.35795" lon="-1.21655">
        <ele>4.8</ele>
        <time>2020-06-02T15:46:37Z</time>
      </trkpt>
      <trkpt lat="46.35795" lon="-1.21655">
        <ele>4.8</ele>
        <time>2020-06-02T15:46:38Z</time>
      </trkpt>
      <trkpt lat="46.35795" lon="-1.21655">
        <ele>4.8</ele>
        <time>2020-06-02T15:46:39Z</time>
      </trkpt>
      <trkpt lat="46.35795" lon="-1.21655">
        <ele>4.8</ele>
        <time>2020-06-02T15:46:40Z</time>
      </trkpt>
      <trkpt lat="46.35795" lon="-1.21654">
        <ele>4.8</ele>
        <time>2020-06-02T15:46:41Z</time>
      </trkpt>
      <trkpt lat="46.35795" lon="-1.21654">
        <ele>4.8</ele>
        <time>2020-06-02T15:46:42Z</time>
      </trkpt>
      <trkpt lat="46.35795" lon="-1.21654">
        <ele>4.8</ele>
        <time>2020-06-02T15:46:43Z</time>
      </trkpt>
      <trkpt lat="46.35795" lon="-1.21654">
        <ele>4.8</ele>
        <time>2020-06-02T15:46:44Z</time>
      </trkpt>
      <trkpt lat="46.35795" lon="-1.21654">
        <ele>4.8</ele>
        <time>2020-06-02T15:46:45Z</time>
      </trkpt>
      <trkpt lat="46.35795" lon="-1.21654">
        <ele>4.8</ele>
        <time>2020-06-02T15:46:46Z</time>
      </trkpt>
      <trkpt lat="46.35795" lon="-1.21654">
        <ele>4.8</ele>
        <time>2020-06-02T15:46:47Z</time>
      </trkpt>
      <trkpt lat="46.35795" lon="-1.21654">
        <ele>4.8</ele>
        <time>2020-06-02T15:46:48Z</time>
      </trkpt>
      <trkpt lat="46.35795" lon="-1.21654">
        <ele>4.8</ele>
        <time>2020-06-02T15:46:49Z</time>
      </trkpt>
      <trkpt lat="46.35795" lon="-1.21654">
        <ele>4.8</ele>
        <time>2020-06-02T15:46:50Z</time>
      </trkpt>
      <trkpt lat="46.35795" lon="-1.21654">
        <ele>4.8</ele>
        <time>2020-06-02T15:46:51Z</time>
      </trkpt>
      <trkpt lat="46.35795" lon="-1.21654">
        <ele>4.8</ele>
        <time>2020-06-02T15:46:52Z</time>
      </trkpt>
      <trkpt lat="46.35795" lon="-1.21655">
        <ele>4.8</ele>
        <time>2020-06-02T15:46:53Z</time>
      </trkpt>
      <trkpt lat="46.35795" lon="-1.21655">
        <ele>4.8</ele>
        <time>2020-06-02T15:46:54Z</time>
      </trkpt>
      <trkpt lat="46.35795" lon="-1.21655">
        <ele>4.8</ele>
        <time>2020-06-02T15:46:55Z</time>
      </trkpt>
      <trkpt lat="46.35795" lon="-1.21655">
        <ele>4.8</ele>
        <time>2020-06-02T15:46:56Z</time>
      </trkpt>
      <trkpt lat="46.35795" lon="-1.21655">
        <ele>4.8</ele>
        <time>2020-06-02T15:46:57Z</time>
      </trkpt>
      <trkpt lat="46.35795" lon="-1.21655">
        <ele>4.8</ele>
        <time>2020-06-02T15:46:58Z</time>
      </trkpt>
      <trkpt lat="46.35795" lon="-1.21656">
        <ele>4.8</ele>
        <time>2020-06-02T15:46:59Z</time>
      </trkpt>
      <trkpt lat="46.35795" lon="-1.21657">
        <ele>4.8</ele>
        <time>2020-06-02T15:47:00Z</time>
      </trkpt>
      <trkpt lat="46.35795" lon="-1.21658">
        <ele>4.8</ele>
        <time>2020-06-02T15:47:01Z</time>
      </trkpt>
      <trkpt lat="46.35796" lon="-1.21658">
        <ele>4.8</ele>
        <time>2020-06-02T15:47:02Z</time>
      </trkpt>
      <trkpt lat="46.35796" lon="-1.21658">
        <ele>4.8</ele>
        <time>2020-06-02T15:47:03Z</time>
      </trkpt>
      <trkpt lat="46.35796" lon="-1.21658">
        <ele>4.8</ele>
        <time>2020-06-02T15:47:04Z</time>
      </trkpt>
      <trkpt lat="46.35796" lon="-1.21658">
        <ele>4.8</ele>
        <time>2020-06-02T15:47:05Z</time>
      </trkpt>
      <trkpt lat="46.35796" lon="-1.21658">
        <ele>4.8</ele>
        <time>2020-06-02T15:47:06Z</time>
      </trkpt>
      <trkpt lat="46.35796" lon="-1.21658">
        <ele>4.8</ele>
        <time>2020-06-02T15:47:07Z</time>
      </trkpt>
      <trkpt lat="46.35797" lon="-1.21658">
        <ele>4.8</ele>
        <time>2020-06-02T15:47:08Z</time>
      </trkpt>
      <trkpt lat="46.35796" lon="-1.21657">
        <ele>4.8</ele>
        <time>2020-06-02T15:47:09Z</time>
      </trkpt>
      <trkpt lat="46.35796" lon="-1.21658">
        <ele>4.8</ele>
        <time>2020-06-02T15:47:10Z</time>
      </trkpt>
      <trkpt lat="46.35796" lon="-1.21658">
        <ele>4.8</ele>
        <time>2020-06-02T15:47:11Z</time>
      </trkpt>
      <trkpt lat="46.35796" lon="-1.21658">
        <ele>4.8</ele>
        <time>2020-06-02T15:47:12Z</time>
      </trkpt>
      <trkpt lat="46.35796" lon="-1.21658">
        <ele>4.8</ele>
        <time>2020-06-02T15:47:13Z</time>
      </trkpt>
      <trkpt lat="46.35796" lon="-1.21659">
        <ele>4.8</ele>
        <time>2020-06-02T15:47:14Z</time>
      </trkpt>
      <trkpt lat="46.35796" lon="-1.21659">
        <ele>4.8</ele>
        <time>2020-06-02T15:47:15Z</time>
      </trkpt>
      <trkpt lat="46.35796" lon="-1.21659">
        <ele>4.8</ele>
        <time>2020-06-02T15:47:16Z</time>
      </trkpt>
      <trkpt lat="46.35796" lon="-1.21659">
        <ele>4.8</ele>
        <time>2020-06-02T15:47:17Z</time>
      </trkpt>
      <trkpt lat="46.35796" lon="-1.2166">
        <ele>4.8</ele>
        <time>2020-06-02T15:47:18Z</time>
      </trkpt>
      <trkpt lat="46.35796" lon="-1.2166">
        <ele>4.8</ele>
        <time>2020-06-02T15:47:19Z</time>
      </trkpt>
      <trkpt lat="46.35796" lon="-1.2166">
        <ele>4.8</ele>
        <time>2020-06-02T15:47:20Z</time>
      </trkpt>
      <trkpt lat="46.35796" lon="-1.2166">
        <ele>4.8</ele>
        <time>2020-06-02T15:47:21Z</time>
      </trkpt>
      <trkpt lat="46.35796" lon="-1.21661">
        <ele>4.8</ele>
        <time>2020-06-02T15:47:22Z</time>
      </trkpt>
      <trkpt lat="46.35796" lon="-1.21661">
        <ele>4.8</ele>
        <time>2020-06-02T15:47:23Z</time>
      </trkpt>
      <trkpt lat="46.35796" lon="-1.21661">
        <ele>4.8</ele>
        <time>2020-06-02T15:47:24Z</time>
      </trkpt>
      <trkpt lat="46.35796" lon="-1.21661">
        <ele>4.8</ele>
        <time>2020-06-02T15:47:25Z</time>
      </trkpt>
      <trkpt lat="46.35796" lon="-1.21662">
        <ele>4.8</ele>
        <time>2020-06-02T15:47:26Z</time>
      </trkpt>
      <trkpt lat="46.35796" lon="-1.21662">
        <ele>4.8</ele>
        <time>2020-06-02T15:47:27Z</time>
      </trkpt>
      <trkpt lat="46.35797" lon="-1.21662">
        <ele>4.8</ele>
        <time>2020-06-02T15:47:28Z</time>
      </trkpt>
      <trkpt lat="46.35797" lon="-1.21662">
        <ele>4.8</ele>
        <time>2020-06-02T15:47:29Z</time>
      </trkpt>
      <trkpt lat="46.35797" lon="-1.21663">
        <ele>4.8</ele>
        <time>2020-06-02T15:47:30Z</time>
      </trkpt>
      <trkpt lat="46.35797" lon="-1.21663">
        <ele>4.8</ele>
        <time>2020-06-02T15:47:31Z</time>
      </trkpt>
      <trkpt lat="46.35797" lon="-1.21663">
        <ele>4.8</ele>
        <time>2020-06-02T15:47:32Z</time>
      </trkpt>
      <trkpt lat="46.35797" lon="-1.21663">
        <ele>4.8</ele>
        <time>2020-06-02T15:47:33Z</time>
      </trkpt>
      <trkpt lat="46.35796" lon="-1.21666">
        <ele>4.8</ele>
        <time>2020-06-02T15:47:34Z</time>
      </trkpt>
      <trkpt lat="46.35795" lon="-1.21668">
        <ele>4.8</ele>
        <time>2020-06-02T15:47:35Z</time>
      </trkpt>
      <trkpt lat="46.35793" lon="-1.21672">
        <ele>4.8</ele>
        <time>2020-06-02T15:47:36Z</time>
      </trkpt>
      <trkpt lat="46.35793" lon="-1.21674">
        <ele>4.8</ele>
        <time>2020-06-02T15:47:37Z</time>
      </trkpt>
      <trkpt lat="46.35792" lon="-1.21677">
        <ele>4.8</ele>
        <time>2020-06-02T15:47:38Z</time>
      </trkpt>
      <trkpt lat="46.35792" lon="-1.21679">
        <ele>4.8</ele>
        <time>2020-06-02T15:47:39Z</time>
      </trkpt>
      <trkpt lat="46.35796" lon="-1.21682">
        <ele>4.8</ele>
        <time>2020-06-02T15:47:40Z</time>
      </trkpt>
      <trkpt lat="46.35797" lon="-1.21683">
        <ele>4.7</ele>
        <time>2020-06-02T15:47:41Z</time>
      </trkpt>
      <trkpt lat="46.35799" lon="-1.21685">
        <ele>4.7</ele>
        <time>2020-06-02T15:47:42Z</time>
      </trkpt>
      <trkpt lat="46.35801" lon="-1.21687">
        <ele>4.7</ele>
        <time>2020-06-02T15:47:43Z</time>
      </trkpt>
      <trkpt lat="46.35804" lon="-1.21691">
        <ele>4.7</ele>
        <time>2020-06-02T15:47:44Z</time>
      </trkpt>
      <trkpt lat="46.35806" lon="-1.21693">
        <ele>4.7</ele>
        <time>2020-06-02T15:47:45Z</time>
      </trkpt>
      <trkpt lat="46.35808" lon="-1.21696">
        <ele>4.7</ele>
        <time>2020-06-02T15:47:46Z</time>
      </trkpt>
      <trkpt lat="46.35811" lon="-1.21697">
        <ele>4.7</ele>
        <time>2020-06-02T15:47:47Z</time>
      </trkpt>
      <trkpt lat="46.35814" lon="-1.21699">
        <ele>4.6</ele>
        <time>2020-06-02T15:47:48Z</time>
      </trkpt>
      <trkpt lat="46.35818" lon="-1.21701">
        <ele>4.6</ele>
        <time>2020-06-02T15:47:49Z</time>
      </trkpt>
      <trkpt lat="46.35821" lon="-1.21703">
        <ele>4.6</ele>
        <time>2020-06-02T15:47:50Z</time>
      </trkpt>
      <trkpt lat="46.35823" lon="-1.21706">
        <ele>4.6</ele>
        <time>2020-06-02T15:47:51Z</time>
      </trkpt>
      <trkpt lat="46.35826" lon="-1.21708">
        <ele>4.6</ele>
        <time>2020-06-02T15:47:52Z</time>
      </trkpt>
      <trkpt lat="46.35828" lon="-1.21711">
        <ele>4.6</ele>
        <time>2020-06-02T15:47:53Z</time>
      </trkpt>
      <trkpt lat="46.35831" lon="-1.21712">
        <ele>4.5</ele>
        <time>2020-06-02T15:47:54Z</time>
      </trkpt>
      <trkpt lat="46.35833" lon="-1.21714">
        <ele>4.5</ele>
        <time>2020-06-02T15:47:55Z</time>
      </trkpt>
      <trkpt lat="46.35836" lon="-1.21717">
        <ele>4.5</ele>
        <time>2020-06-02T15:47:56Z</time>
      </trkpt>
      <trkpt lat="46.35838" lon="-1.2172">
        <ele>4.4</ele>
        <time>2020-06-02T15:47:57Z</time>
      </trkpt>
      <trkpt lat="46.3584" lon="-1.21723">
        <ele>4.4</ele>
        <time>2020-06-02T15:47:58Z</time>
      </trkpt>
      <trkpt lat="46.35842" lon="-1.21726">
        <ele>4.3</ele>
        <time>2020-06-02T15:47:59Z</time>
      </trkpt>
      <trkpt lat="46.35844" lon="-1.21729">
        <ele>4.3</ele>
        <time>2020-06-02T15:48:00Z</time>
      </trkpt>
      <trkpt lat="46.35846" lon="-1.21733">
        <ele>4.2</ele>
        <time>2020-06-02T15:48:01Z</time>
      </trkpt>
      <trkpt lat="46.35848" lon="-1.21736">
        <ele>4.2</ele>
        <time>2020-06-02T15:48:02Z</time>
      </trkpt>
      <trkpt lat="46.35851" lon="-1.21741">
        <ele>4.2</ele>
        <time>2020-06-02T15:48:03Z</time>
      </trkpt>
      <trkpt lat="46.35852" lon="-1.21743">
        <ele>4.1</ele>
        <time>2020-06-02T15:48:04Z</time>
      </trkpt>
      <trkpt lat="46.35854" lon="-1.21746">
        <ele>4.1</ele>
        <time>2020-06-02T15:48:05Z</time>
      </trkpt>
      <trkpt lat="46.35857" lon="-1.2175">
        <ele>4.1</ele>
        <time>2020-06-02T15:48:06Z</time>
      </trkpt>
      <trkpt lat="46.35859" lon="-1.21755">
        <ele>4</ele>
        <time>2020-06-02T15:48:07Z</time>
      </trkpt>
      <trkpt lat="46.35862" lon="-1.21759">
        <ele>4</ele>
        <time>2020-06-02T15:48:08Z</time>
      </trkpt>
      <trkpt lat="46.35864" lon="-1.21762">
        <ele>4</ele>
        <time>2020-06-02T15:48:09Z</time>
      </trkpt>
      <trkpt lat="46.35866" lon="-1.21766">
        <ele>4</ele>
        <time>2020-06-02T15:48:10Z</time>
      </trkpt>
      <trkpt lat="46.35869" lon="-1.21771">
        <ele>3.9</ele>
        <time>2020-06-02T15:48:11Z</time>
      </trkpt>
      <trkpt lat="46.35872" lon="-1.21775">
        <ele>3.9</ele>
        <time>2020-06-02T15:48:12Z</time>
      </trkpt>
      <trkpt lat="46.35875" lon="-1.21779">
        <ele>3.9</ele>
        <time>2020-06-02T15:48:13Z</time>
      </trkpt>
      <trkpt lat="46.35878" lon="-1.21783">
        <ele>3.9</ele>
        <time>2020-06-02T15:48:14Z</time>
      </trkpt>
      <trkpt lat="46.3588" lon="-1.21787">
        <ele>3.9</ele>
        <time>2020-06-02T15:48:15Z</time>
      </trkpt>
      <trkpt lat="46.35883" lon="-1.21792">
        <ele>3.9</ele>
        <time>2020-06-02T15:48:16Z</time>
      </trkpt>
      <trkpt lat="46.35885" lon="-1.21797">
        <ele>3.9</ele>
        <time>2020-06-02T15:48:17Z</time>
      </trkpt>
      <trkpt lat="46.35889" lon="-1.21801">
        <ele>3.9</ele>
        <time>2020-06-02T15:48:18Z</time>
      </trkpt>
      <trkpt lat="46.35891" lon="-1.21804">
        <ele>3.9</ele>
        <time>2020-06-02T15:48:19Z</time>
      </trkpt>
      <trkpt lat="46.35894" lon="-1.21809">
        <ele>3.9</ele>
        <time>2020-06-02T15:48:20Z</time>
      </trkpt>
      <trkpt lat="46.35897" lon="-1.21812">
        <ele>3.9</ele>
        <time>2020-06-02T15:48:21Z</time>
      </trkpt>
      <trkpt lat="46.35899" lon="-1.21816">
        <ele>3.9</ele>
        <time>2020-06-02T15:48:22Z</time>
      </trkpt>
      <trkpt lat="46.35902" lon="-1.2182">
        <ele>4</ele>
        <time>2020-06-02T15:48:23Z</time>
      </trkpt>
      <trkpt lat="46.35903" lon="-1.21824">
        <ele>4</ele>
        <time>2020-06-02T15:48:24Z</time>
      </trkpt>
      <trkpt lat="46.35906" lon="-1.21828">
        <ele>4</ele>
        <time>2020-06-02T15:48:25Z</time>
      </trkpt>
      <trkpt lat="46.35908" lon="-1.21833">
        <ele>4</ele>
        <time>2020-06-02T15:48:26Z</time>
      </trkpt>
      <trkpt lat="46.3591" lon="-1.21837">
        <ele>3.9</ele>
        <time>2020-06-02T15:48:27Z</time>
      </trkpt>
      <trkpt lat="46.35911" lon="-1.21841">
        <ele>3.9</ele>
        <time>2020-06-02T15:48:28Z</time>
      </trkpt>
      <trkpt lat="46.35913" lon="-1.21844">
        <ele>3.8</ele>
        <time>2020-06-02T15:48:29Z</time>
      </trkpt>
      <trkpt lat="46.35915" lon="-1.21847">
        <ele>3.8</ele>
        <time>2020-06-02T15:48:30Z</time>
      </trkpt>
      <trkpt lat="46.35917" lon="-1.2185">
        <ele>3.8</ele>
        <time>2020-06-02T15:48:31Z</time>
      </trkpt>
      <trkpt lat="46.3592" lon="-1.21853">
        <ele>3.7</ele>
        <time>2020-06-02T15:48:32Z</time>
      </trkpt>
      <trkpt lat="46.35921" lon="-1.21857">
        <ele>3.6</ele>
        <time>2020-06-02T15:48:33Z</time>
      </trkpt>
      <trkpt lat="46.35923" lon="-1.2186">
        <ele>3.6</ele>
        <time>2020-06-02T15:48:34Z</time>
      </trkpt>
      <trkpt lat="46.35925" lon="-1.21864">
        <ele>3.5</ele>
        <time>2020-06-02T15:48:35Z</time>
      </trkpt>
      <trkpt lat="46.35927" lon="-1.21867">
        <ele>3.4</ele>
        <time>2020-06-02T15:48:36Z</time>
      </trkpt>
      <trkpt lat="46.35928" lon="-1.21872">
        <ele>3.3</ele>
        <time>2020-06-02T15:48:37Z</time>
      </trkpt>
      <trkpt lat="46.35926" lon="-1.21877">
        <ele>3.3</ele>
        <time>2020-06-02T15:48:38Z</time>
      </trkpt>
      <trkpt lat="46.35923" lon="-1.21881">
        <ele>3.2</ele>
        <time>2020-06-02T15:48:39Z</time>
      </trkpt>
      <trkpt lat="46.3592" lon="-1.21884">
        <ele>3.2</ele>
        <time>2020-06-02T15:48:40Z</time>
      </trkpt>
      <trkpt lat="46.35917" lon="-1.21887">
        <ele>3.2</ele>
        <time>2020-06-02T15:48:41Z</time>
      </trkpt>
      <trkpt lat="46.35914" lon="-1.21891">
        <ele>3.2</ele>
        <time>2020-06-02T15:48:42Z</time>
      </trkpt>
      <trkpt lat="46.35911" lon="-1.21894">
        <ele>3.2</ele>
        <time>2020-06-02T15:48:43Z</time>
      </trkpt>
      <trkpt lat="46.35908" lon="-1.21897">
        <ele>3.2</ele>
        <time>2020-06-02T15:48:44Z</time>
      </trkpt>
      <trkpt lat="46.35905" lon="-1.21902">
        <ele>3.1</ele>
        <time>2020-06-02T15:48:45Z</time>
      </trkpt>
      <trkpt lat="46.35903" lon="-1.21905">
        <ele>3.1</ele>
        <time>2020-06-02T15:48:46Z</time>
      </trkpt>
      <trkpt lat="46.35899" lon="-1.21909">
        <ele>3.1</ele>
        <time>2020-06-02T15:48:47Z</time>
      </trkpt>
      <trkpt lat="46.35896" lon="-1.21913">
        <ele>3.1</ele>
        <time>2020-06-02T15:48:48Z</time>
      </trkpt>
      <trkpt lat="46.35893" lon="-1.21918">
        <ele>3.1</ele>
        <time>2020-06-02T15:48:49Z</time>
      </trkpt>
      <trkpt lat="46.35891" lon="-1.21924">
        <ele>3.1</ele>
        <time>2020-06-02T15:48:50Z</time>
      </trkpt>
      <trkpt lat="46.35889" lon="-1.2193">
        <ele>3.1</ele>
        <time>2020-06-02T15:48:51Z</time>
      </trkpt>
      <trkpt lat="46.35887" lon="-1.21937">
        <ele>3.1</ele>
        <time>2020-06-02T15:48:52Z</time>
      </trkpt>
      <trkpt lat="46.35886" lon="-1.21943">
        <ele>3.1</ele>
        <time>2020-06-02T15:48:53Z</time>
      </trkpt>
      <trkpt lat="46.35884" lon="-1.21949">
        <ele>3.1</ele>
        <time>2020-06-02T15:48:54Z</time>
      </trkpt>
      <trkpt lat="46.35882" lon="-1.21956">
        <ele>3.1</ele>
        <time>2020-06-02T15:48:55Z</time>
      </trkpt>
      <trkpt lat="46.35881" lon="-1.21963">
        <ele>3.1</ele>
        <time>2020-06-02T15:48:56Z</time>
      </trkpt>
      <trkpt lat="46.3588" lon="-1.2197">
        <ele>3.1</ele>
        <time>2020-06-02T15:48:57Z</time>
      </trkpt>
      <trkpt lat="46.35879" lon="-1.21976">
        <ele>3.1</ele>
        <time>2020-06-02T15:48:58Z</time>
      </trkpt>
      <trkpt lat="46.35877" lon="-1.21983">
        <ele>3.1</ele>
        <time>2020-06-02T15:48:59Z</time>
      </trkpt>
      <trkpt lat="46.35874" lon="-1.21988">
        <ele>3.1</ele>
        <time>2020-06-02T15:49:00Z</time>
      </trkpt>
      <trkpt lat="46.35872" lon="-1.21994">
        <ele>3.1</ele>
        <time>2020-06-02T15:49:01Z</time>
      </trkpt>
      <trkpt lat="46.3587" lon="-1.22001">
        <ele>3.1</ele>
        <time>2020-06-02T15:49:02Z</time>
      </trkpt>
      <trkpt lat="46.35868" lon="-1.22007">
        <ele>3.1</ele>
        <time>2020-06-02T15:49:03Z</time>
      </trkpt>
      <trkpt lat="46.35866" lon="-1.22013">
        <ele>3.1</ele>
        <time>2020-06-02T15:49:04Z</time>
      </trkpt>
      <trkpt lat="46.35865" lon="-1.2202">
        <ele>3.1</ele>
        <time>2020-06-02T15:49:05Z</time>
      </trkpt>
      <trkpt lat="46.35863" lon="-1.22027">
        <ele>3.2</ele>
        <time>2020-06-02T15:49:06Z</time>
      </trkpt>
      <trkpt lat="46.35861" lon="-1.22033">
        <ele>3.2</ele>
        <time>2020-06-02T15:49:07Z</time>
      </trkpt>
      <trkpt lat="46.35859" lon="-1.2204">
        <ele>3.2</ele>
        <time>2020-06-02T15:49:08Z</time>
      </trkpt>
      <trkpt lat="46.35857" lon="-1.22046">
        <ele>3.2</ele>
        <time>2020-06-02T15:49:09Z</time>
      </trkpt>
      <trkpt lat="46.35855" lon="-1.22051">
        <ele>3.2</ele>
        <time>2020-06-02T15:49:10Z</time>
      </trkpt>
      <trkpt lat="46.35853" lon="-1.22056">
        <ele>3.2</ele>
        <time>2020-06-02T15:49:11Z</time>
      </trkpt>
      <trkpt lat="46.35851" lon="-1.22061">
        <ele>3.2</ele>
        <time>2020-06-02T15:49:12Z</time>
      </trkpt>
      <trkpt lat="46.35848" lon="-1.22067">
        <ele>3.2</ele>
        <time>2020-06-02T15:49:13Z</time>
      </trkpt>
      <trkpt lat="46.35846" lon="-1.22073">
        <ele>3.2</ele>
        <time>2020-06-02T15:49:14Z</time>
      </trkpt>
      <trkpt lat="46.35843" lon="-1.2208">
        <ele>3.2</ele>
        <time>2020-06-02T15:49:15Z</time>
      </trkpt>
      <trkpt lat="46.35841" lon="-1.22086">
        <ele>3.2</ele>
        <time>2020-06-02T15:49:16Z</time>
      </trkpt>
      <trkpt lat="46.35839" lon="-1.22094">
        <ele>3.2</ele>
        <time>2020-06-02T15:49:17Z</time>
      </trkpt>
      <trkpt lat="46.35836" lon="-1.221">
        <ele>3.2</ele>
        <time>2020-06-02T15:49:18Z</time>
      </trkpt>
      <trkpt lat="46.35834" lon="-1.22108">
        <ele>3.2</ele>
        <time>2020-06-02T15:49:19Z</time>
      </trkpt>
      <trkpt lat="46.35831" lon="-1.22115">
        <ele>3.2</ele>
        <time>2020-06-02T15:49:20Z</time>
      </trkpt>
      <trkpt lat="46.35828" lon="-1.22123">
        <ele>3.2</ele>
        <time>2020-06-02T15:49:21Z</time>
      </trkpt>
      <trkpt lat="46.35825" lon="-1.2213">
        <ele>3.2</ele>
        <time>2020-06-02T15:49:22Z</time>
      </trkpt>
      <trkpt lat="46.35822" lon="-1.22137">
        <ele>3.2</ele>
        <time>2020-06-02T15:49:23Z</time>
      </trkpt>
      <trkpt lat="46.35819" lon="-1.22144">
        <ele>3.2</ele>
        <time>2020-06-02T15:49:24Z</time>
      </trkpt>
      <trkpt lat="46.35815" lon="-1.22152">
        <ele>3.2</ele>
        <time>2020-06-02T15:49:25Z</time>
      </trkpt>
      <trkpt lat="46.35811" lon="-1.2216">
        <ele>3.2</ele>
        <time>2020-06-02T15:49:26Z</time>
      </trkpt>
      <trkpt lat="46.35807" lon="-1.22168">
        <ele>3.2</ele>
        <time>2020-06-02T15:49:27Z</time>
      </trkpt>
      <trkpt lat="46.35804" lon="-1.22177">
        <ele>3.2</ele>
        <time>2020-06-02T15:49:28Z</time>
      </trkpt>
      <trkpt lat="46.358" lon="-1.22185">
        <ele>3.1</ele>
        <time>2020-06-02T15:49:29Z</time>
      </trkpt>
      <trkpt lat="46.35797" lon="-1.22192">
        <ele>3.1</ele>
        <time>2020-06-02T15:49:30Z</time>
      </trkpt>
      <trkpt lat="46.35794" lon="-1.222">
        <ele>3.1</ele>
        <time>2020-06-02T15:49:31Z</time>
      </trkpt>
      <trkpt lat="46.3579" lon="-1.22208">
        <ele>3.1</ele>
        <time>2020-06-02T15:49:32Z</time>
      </trkpt>
      <trkpt lat="46.35787" lon="-1.22216">
        <ele>3.1</ele>
        <time>2020-06-02T15:49:33Z</time>
      </trkpt>
      <trkpt lat="46.35784" lon="-1.22224">
        <ele>3</ele>
        <time>2020-06-02T15:49:34Z</time>
      </trkpt>
      <trkpt lat="46.3578" lon="-1.22232">
        <ele>3</ele>
        <time>2020-06-02T15:49:35Z</time>
      </trkpt>
      <trkpt lat="46.35777" lon="-1.22242">
        <ele>3</ele>
        <time>2020-06-02T15:49:36Z</time>
      </trkpt>
      <trkpt lat="46.35773" lon="-1.2225">
        <ele>3</ele>
        <time>2020-06-02T15:49:37Z</time>
      </trkpt>
      <trkpt lat="46.3577" lon="-1.22257">
        <ele>3.1</ele>
        <time>2020-06-02T15:49:38Z</time>
      </trkpt>
      <trkpt lat="46.35767" lon="-1.22264">
        <ele>3.1</ele>
        <time>2020-06-02T15:49:39Z</time>
      </trkpt>
      <trkpt lat="46.35764" lon="-1.22273">
        <ele>3.1</ele>
        <time>2020-06-02T15:49:40Z</time>
      </trkpt>
      <trkpt lat="46.35762" lon="-1.2228">
        <ele>3</ele>
        <time>2020-06-02T15:49:41Z</time>
      </trkpt>
      <trkpt lat="46.35759" lon="-1.22289">
        <ele>3</ele>
        <time>2020-06-02T15:49:42Z</time>
      </trkpt>
      <trkpt lat="46.35757" lon="-1.22297">
        <ele>3</ele>
        <time>2020-06-02T15:49:43Z</time>
      </trkpt>
      <trkpt lat="46.35755" lon="-1.22305">
        <ele>3</ele>
        <time>2020-06-02T15:49:44Z</time>
      </trkpt>
      <trkpt lat="46.35752" lon="-1.22313">
        <ele>3</ele>
        <time>2020-06-02T15:49:45Z</time>
      </trkpt>
      <trkpt lat="46.3575" lon="-1.22322">
        <ele>3</ele>
        <time>2020-06-02T15:49:46Z</time>
      </trkpt>
      <trkpt lat="46.35748" lon="-1.2233">
        <ele>3</ele>
        <time>2020-06-02T15:49:47Z</time>
      </trkpt>
      <trkpt lat="46.35745" lon="-1.22339">
        <ele>3</ele>
        <time>2020-06-02T15:49:48Z</time>
      </trkpt>
      <trkpt lat="46.35743" lon="-1.22347">
        <ele>2.9</ele>
        <time>2020-06-02T15:49:49Z</time>
      </trkpt>
      <trkpt lat="46.35741" lon="-1.22355">
        <ele>2.9</ele>
        <time>2020-06-02T15:49:50Z</time>
      </trkpt>
      <trkpt lat="46.35738" lon="-1.22364">
        <ele>2.9</ele>
        <time>2020-06-02T15:49:51Z</time>
      </trkpt>
      <trkpt lat="46.35736" lon="-1.22374">
        <ele>2.9</ele>
        <time>2020-06-02T15:49:52Z</time>
      </trkpt>
      <trkpt lat="46.35734" lon="-1.22382">
        <ele>2.9</ele>
        <time>2020-06-02T15:49:53Z</time>
      </trkpt>
      <trkpt lat="46.35731" lon="-1.2239">
        <ele>2.9</ele>
        <time>2020-06-02T15:49:54Z</time>
      </trkpt>
      <trkpt lat="46.35728" lon="-1.22399">
        <ele>2.8</ele>
        <time>2020-06-02T15:49:55Z</time>
      </trkpt>
      <trkpt lat="46.35726" lon="-1.22409">
        <ele>2.8</ele>
        <time>2020-06-02T15:49:56Z</time>
      </trkpt>
      <trkpt lat="46.35724" lon="-1.22417">
        <ele>2.8</ele>
        <time>2020-06-02T15:49:57Z</time>
      </trkpt>
      <trkpt lat="46.35721" lon="-1.22427">
        <ele>2.8</ele>
        <time>2020-06-02T15:49:58Z</time>
      </trkpt>
      <trkpt lat="46.35719" lon="-1.22435">
        <ele>2.8</ele>
        <time>2020-06-02T15:49:59Z</time>
      </trkpt>
      <trkpt lat="46.35716" lon="-1.22443">
        <ele>2.8</ele>
        <time>2020-06-02T15:50:00Z</time>
      </trkpt>
      <trkpt lat="46.35714" lon="-1.22452">
        <ele>2.7</ele>
        <time>2020-06-02T15:50:01Z</time>
      </trkpt>
      <trkpt lat="46.35711" lon="-1.2246">
        <ele>2.7</ele>
        <time>2020-06-02T15:50:02Z</time>
      </trkpt>
      <trkpt lat="46.35709" lon="-1.22469">
        <ele>2.7</ele>
        <time>2020-06-02T15:50:03Z</time>
      </trkpt>
      <trkpt lat="46.35706" lon="-1.22477">
        <ele>2.7</ele>
        <time>2020-06-02T15:50:04Z</time>
      </trkpt>
      <trkpt lat="46.35704" lon="-1.22486">
        <ele>2.7</ele>
        <time>2020-06-02T15:50:05Z</time>
      </trkpt>
      <trkpt lat="46.35701" lon="-1.22495">
        <ele>2.7</ele>
        <time>2020-06-02T15:50:06Z</time>
      </trkpt>
      <trkpt lat="46.35698" lon="-1.22503">
        <ele>2.7</ele>
        <time>2020-06-02T15:50:07Z</time>
      </trkpt>
      <trkpt lat="46.35695" lon="-1.22512">
        <ele>2.7</ele>
        <time>2020-06-02T15:50:08Z</time>
      </trkpt>
      <trkpt lat="46.35693" lon="-1.2252">
        <ele>2.7</ele>
        <time>2020-06-02T15:50:09Z</time>
      </trkpt>
      <trkpt lat="46.3569" lon="-1.22529">
        <ele>2.7</ele>
        <time>2020-06-02T15:50:10Z</time>
      </trkpt>
      <trkpt lat="46.35688" lon="-1.22538">
        <ele>2.7</ele>
        <time>2020-06-02T15:50:11Z</time>
      </trkpt>
      <trkpt lat="46.35685" lon="-1.22547">
        <ele>2.7</ele>
        <time>2020-06-02T15:50:12Z</time>
      </trkpt>
      <trkpt lat="46.35683" lon="-1.22556">
        <ele>2.6</ele>
        <time>2020-06-02T15:50:13Z</time>
      </trkpt>
      <trkpt lat="46.3568" lon="-1.22565">
        <ele>2.6</ele>
        <time>2020-06-02T15:50:14Z</time>
      </trkpt>
      <trkpt lat="46.35678" lon="-1.22574">
        <ele>2.6</ele>
        <time>2020-06-02T15:50:15Z</time>
      </trkpt>
      <trkpt lat="46.35675" lon="-1.22582">
        <ele>2.6</ele>
        <time>2020-06-02T15:50:16Z</time>
      </trkpt>
      <trkpt lat="46.35673" lon="-1.22591">
        <ele>2.6</ele>
        <time>2020-06-02T15:50:17Z</time>
      </trkpt>
      <trkpt lat="46.3567" lon="-1.226">
        <ele>2.6</ele>
        <time>2020-06-02T15:50:18Z</time>
      </trkpt>
      <trkpt lat="46.35668" lon="-1.22609">
        <ele>2.6</ele>
        <time>2020-06-02T15:50:19Z</time>
      </trkpt>
      <trkpt lat="46.35665" lon="-1.22617">
        <ele>2.6</ele>
        <time>2020-06-02T15:50:20Z</time>
      </trkpt>
      <trkpt lat="46.35662" lon="-1.22626">
        <ele>2.6</ele>
        <time>2020-06-02T15:50:21Z</time>
      </trkpt>
      <trkpt lat="46.35659" lon="-1.22634">
        <ele>2.6</ele>
        <time>2020-06-02T15:50:22Z</time>
      </trkpt>
      <trkpt lat="46.35657" lon="-1.22643">
        <ele>2.6</ele>
        <time>2020-06-02T15:50:23Z</time>
      </trkpt>
      <trkpt lat="46.35654" lon="-1.22653">
        <ele>2.5</ele>
        <time>2020-06-02T15:50:24Z</time>
      </trkpt>
      <trkpt lat="46.35653" lon="-1.22662">
        <ele>2.5</ele>
        <time>2020-06-02T15:50:25Z</time>
      </trkpt>
      <trkpt lat="46.3565" lon="-1.22671">
        <ele>2.5</ele>
        <time>2020-06-02T15:50:26Z</time>
      </trkpt>
      <trkpt lat="46.35647" lon="-1.2268">
        <ele>2.5</ele>
        <time>2020-06-02T15:50:27Z</time>
      </trkpt>
      <trkpt lat="46.35644" lon="-1.22689">
        <ele>2.6</ele>
        <time>2020-06-02T15:50:28Z</time>
      </trkpt>
      <trkpt lat="46.35642" lon="-1.22697">
        <ele>2.6</ele>
        <time>2020-06-02T15:50:29Z</time>
      </trkpt>
      <trkpt lat="46.35639" lon="-1.22706">
        <ele>2.6</ele>
        <time>2020-06-02T15:50:30Z</time>
      </trkpt>
      <trkpt lat="46.35636" lon="-1.22714">
        <ele>2.6</ele>
        <time>2020-06-02T15:50:31Z</time>
      </trkpt>
      <trkpt lat="46.35634" lon="-1.22723">
        <ele>2.6</ele>
        <time>2020-06-02T15:50:32Z</time>
      </trkpt>
      <trkpt lat="46.35632" lon="-1.22731">
        <ele>2.7</ele>
        <time>2020-06-02T15:50:33Z</time>
      </trkpt>
      <trkpt lat="46.3563" lon="-1.2274">
        <ele>2.9</ele>
        <time>2020-06-02T15:50:34Z</time>
      </trkpt>
      <trkpt lat="46.35628" lon="-1.22748">
        <ele>3</ele>
        <time>2020-06-02T15:50:35Z</time>
      </trkpt>
      <trkpt lat="46.35627" lon="-1.22757">
        <ele>3</ele>
        <time>2020-06-02T15:50:36Z</time>
      </trkpt>
      <trkpt lat="46.35625" lon="-1.22766">
        <ele>3</ele>
        <time>2020-06-02T15:50:37Z</time>
      </trkpt>
      <trkpt lat="46.35623" lon="-1.22775">
        <ele>3</ele>
        <time>2020-06-02T15:50:38Z</time>
      </trkpt>
      <trkpt lat="46.35621" lon="-1.22783">
        <ele>3</ele>
        <time>2020-06-02T15:50:39Z</time>
      </trkpt>
      <trkpt lat="46.35619" lon="-1.22791">
        <ele>3</ele>
        <time>2020-06-02T15:50:40Z</time>
      </trkpt>
      <trkpt lat="46.35616" lon="-1.228">
        <ele>3</ele>
        <time>2020-06-02T15:50:41Z</time>
      </trkpt>
      <trkpt lat="46.35614" lon="-1.22808">
        <ele>3</ele>
        <time>2020-06-02T15:50:42Z</time>
      </trkpt>
      <trkpt lat="46.35612" lon="-1.22816">
        <ele>3</ele>
        <time>2020-06-02T15:50:43Z</time>
      </trkpt>
      <trkpt lat="46.35609" lon="-1.22824">
        <ele>3</ele>
        <time>2020-06-02T15:50:44Z</time>
      </trkpt>
      <trkpt lat="46.35606" lon="-1.22832">
        <ele>3</ele>
        <time>2020-06-02T15:50:45Z</time>
      </trkpt>
      <trkpt lat="46.35604" lon="-1.2284">
        <ele>3</ele>
        <time>2020-06-02T15:50:46Z</time>
      </trkpt>
      <trkpt lat="46.35602" lon="-1.22848">
        <ele>3</ele>
        <time>2020-06-02T15:50:47Z</time>
      </trkpt>
      <trkpt lat="46.356" lon="-1.22856">
        <ele>3</ele>
        <time>2020-06-02T15:50:48Z</time>
      </trkpt>
      <trkpt lat="46.35598" lon="-1.22864">
        <ele>3</ele>
        <time>2020-06-02T15:50:49Z</time>
      </trkpt>
      <trkpt lat="46.35596" lon="-1.22872">
        <ele>3</ele>
        <time>2020-06-02T15:50:50Z</time>
      </trkpt>
      <trkpt lat="46.35594" lon="-1.2288">
        <ele>3</ele>
        <time>2020-06-02T15:50:51Z</time>
      </trkpt>
      <trkpt lat="46.35591" lon="-1.22887">
        <ele>3</ele>
        <time>2020-06-02T15:50:52Z</time>
      </trkpt>
      <trkpt lat="46.35589" lon="-1.22893">
        <ele>3</ele>
        <time>2020-06-02T15:50:53Z</time>
      </trkpt>
      <trkpt lat="46.35587" lon="-1.22899">
        <ele>3</ele>
        <time>2020-06-02T15:50:54Z</time>
      </trkpt>
      <trkpt lat="46.35585" lon="-1.22906">
        <ele>3</ele>
        <time>2020-06-02T15:50:55Z</time>
      </trkpt>
      <trkpt lat="46.35584" lon="-1.22913">
        <ele>3</ele>
        <time>2020-06-02T15:50:56Z</time>
      </trkpt>
      <trkpt lat="46.35582" lon="-1.22919">
        <ele>3</ele>
        <time>2020-06-02T15:50:57Z</time>
      </trkpt>
      <trkpt lat="46.35581" lon="-1.22926">
        <ele>3</ele>
        <time>2020-06-02T15:50:58Z</time>
      </trkpt>
      <trkpt lat="46.35578" lon="-1.22932">
        <ele>3</ele>
        <time>2020-06-02T15:50:59Z</time>
      </trkpt>
      <trkpt lat="46.35575" lon="-1.22938">
        <ele>3</ele>
        <time>2020-06-02T15:51:00Z</time>
      </trkpt>
      <trkpt lat="46.35573" lon="-1.22945">
        <ele>3</ele>
        <time>2020-06-02T15:51:01Z</time>
      </trkpt>
      <trkpt lat="46.35571" lon="-1.22952">
        <ele>3</ele>
        <time>2020-06-02T15:51:02Z</time>
      </trkpt>
      <trkpt lat="46.35569" lon="-1.22959">
        <ele>3</ele>
        <time>2020-06-02T15:51:03Z</time>
      </trkpt>
      <trkpt lat="46.35566" lon="-1.22966">
        <ele>3.1</ele>
        <time>2020-06-02T15:51:04Z</time>
      </trkpt>
      <trkpt lat="46.35565" lon="-1.22973">
        <ele>3.1</ele>
        <time>2020-06-02T15:51:05Z</time>
      </trkpt>
      <trkpt lat="46.35563" lon="-1.2298">
        <ele>3.1</ele>
        <time>2020-06-02T15:51:06Z</time>
      </trkpt>
      <trkpt lat="46.35562" lon="-1.22987">
        <ele>3.1</ele>
        <time>2020-06-02T15:51:07Z</time>
      </trkpt>
      <trkpt lat="46.3556" lon="-1.22994">
        <ele>3.1</ele>
        <time>2020-06-02T15:51:08Z</time>
      </trkpt>
      <trkpt lat="46.35558" lon="-1.23">
        <ele>3.1</ele>
        <time>2020-06-02T15:51:09Z</time>
      </trkpt>
      <trkpt lat="46.35557" lon="-1.23007">
        <ele>3.1</ele>
        <time>2020-06-02T15:51:10Z</time>
      </trkpt>
      <trkpt lat="46.35555" lon="-1.23014">
        <ele>3.1</ele>
        <time>2020-06-02T15:51:11Z</time>
      </trkpt>
      <trkpt lat="46.35553" lon="-1.23021">
        <ele>3.1</ele>
        <time>2020-06-02T15:51:12Z</time>
      </trkpt>
      <trkpt lat="46.3555" lon="-1.23028">
        <ele>3.1</ele>
        <time>2020-06-02T15:51:13Z</time>
      </trkpt>
      <trkpt lat="46.35548" lon="-1.23035">
        <ele>3.1</ele>
        <time>2020-06-02T15:51:14Z</time>
      </trkpt>
      <trkpt lat="46.35546" lon="-1.23041">
        <ele>3.1</ele>
        <time>2020-06-02T15:51:15Z</time>
      </trkpt>
      <trkpt lat="46.35544" lon="-1.23048">
        <ele>3.1</ele>
        <time>2020-06-02T15:51:16Z</time>
      </trkpt>
      <trkpt lat="46.35543" lon="-1.23055">
        <ele>3.1</ele>
        <time>2020-06-02T15:51:17Z</time>
      </trkpt>
      <trkpt lat="46.35541" lon="-1.23062">
        <ele>3.1</ele>
        <time>2020-06-02T15:51:18Z</time>
      </trkpt>
      <trkpt lat="46.35539" lon="-1.23069">
        <ele>3.1</ele>
        <time>2020-06-02T15:51:19Z</time>
      </trkpt>
      <trkpt lat="46.35537" lon="-1.23077">
        <ele>3.1</ele>
        <time>2020-06-02T15:51:20Z</time>
      </trkpt>
      <trkpt lat="46.35535" lon="-1.23084">
        <ele>3.1</ele>
        <time>2020-06-02T15:51:21Z</time>
      </trkpt>
      <trkpt lat="46.35533" lon="-1.23091">
        <ele>3.1</ele>
        <time>2020-06-02T15:51:22Z</time>
      </trkpt>
      <trkpt lat="46.35531" lon="-1.23099">
        <ele>3.1</ele>
        <time>2020-06-02T15:51:23Z</time>
      </trkpt>
      <trkpt lat="46.35529" lon="-1.23107">
        <ele>3.1</ele>
        <time>2020-06-02T15:51:24Z</time>
      </trkpt>
      <trkpt lat="46.35527" lon="-1.23116">
        <ele>3.1</ele>
        <time>2020-06-02T15:51:25Z</time>
      </trkpt>
      <trkpt lat="46.35526" lon="-1.23126">
        <ele>3.1</ele>
        <time>2020-06-02T15:51:26Z</time>
      </trkpt>
      <trkpt lat="46.35524" lon="-1.23135">
        <ele>3.1</ele>
        <time>2020-06-02T15:51:27Z</time>
      </trkpt>
      <trkpt lat="46.35522" lon="-1.23144">
        <ele>3.1</ele>
        <time>2020-06-02T15:51:28Z</time>
      </trkpt>
      <trkpt lat="46.3552" lon="-1.23153">
        <ele>3.1</ele>
        <time>2020-06-02T15:51:29Z</time>
      </trkpt>
      <trkpt lat="46.35519" lon="-1.23162">
        <ele>3.1</ele>
        <time>2020-06-02T15:51:30Z</time>
      </trkpt>
      <trkpt lat="46.35517" lon="-1.2317">
        <ele>3.1</ele>
        <time>2020-06-02T15:51:31Z</time>
      </trkpt>
      <trkpt lat="46.35514" lon="-1.23178">
        <ele>3.1</ele>
        <time>2020-06-02T15:51:32Z</time>
      </trkpt>
      <trkpt lat="46.35512" lon="-1.23186">
        <ele>3.1</ele>
        <time>2020-06-02T15:51:33Z</time>
      </trkpt>
      <trkpt lat="46.3551" lon="-1.23195">
        <ele>3.1</ele>
        <time>2020-06-02T15:51:34Z</time>
      </trkpt>
      <trkpt lat="46.35508" lon="-1.23203">
        <ele>3.1</ele>
        <time>2020-06-02T15:51:35Z</time>
      </trkpt>
      <trkpt lat="46.35505" lon="-1.23211">
        <ele>3.1</ele>
        <time>2020-06-02T15:51:36Z</time>
      </trkpt>
      <trkpt lat="46.35503" lon="-1.23219">
        <ele>3.1</ele>
        <time>2020-06-02T15:51:37Z</time>
      </trkpt>
      <trkpt lat="46.35502" lon="-1.23227">
        <ele>3.1</ele>
        <time>2020-06-02T15:51:38Z</time>
      </trkpt>
      <trkpt lat="46.355" lon="-1.23236">
        <ele>3.1</ele>
        <time>2020-06-02T15:51:39Z</time>
      </trkpt>
      <trkpt lat="46.35498" lon="-1.23244">
        <ele>3.1</ele>
        <time>2020-06-02T15:51:40Z</time>
      </trkpt>
      <trkpt lat="46.35496" lon="-1.23253">
        <ele>3.1</ele>
        <time>2020-06-02T15:51:41Z</time>
      </trkpt>
      <trkpt lat="46.35494" lon="-1.23261">
        <ele>3.1</ele>
        <time>2020-06-02T15:51:42Z</time>
      </trkpt>
      <trkpt lat="46.35491" lon="-1.2327">
        <ele>3.1</ele>
        <time>2020-06-02T15:51:43Z</time>
      </trkpt>
      <trkpt lat="46.35489" lon="-1.23279">
        <ele>3.1</ele>
        <time>2020-06-02T15:51:44Z</time>
      </trkpt>
      <trkpt lat="46.35487" lon="-1.23288">
        <ele>3.1</ele>
        <time>2020-06-02T15:51:45Z</time>
      </trkpt>
      <trkpt lat="46.35485" lon="-1.23296">
        <ele>3.1</ele>
        <time>2020-06-02T15:51:46Z</time>
      </trkpt>
      <trkpt lat="46.35483" lon="-1.23305">
        <ele>3.1</ele>
        <time>2020-06-02T15:51:47Z</time>
      </trkpt>
      <trkpt lat="46.3548" lon="-1.23314">
        <ele>3</ele>
        <time>2020-06-02T15:51:48Z</time>
      </trkpt>
      <trkpt lat="46.35478" lon="-1.23322">
        <ele>3</ele>
        <time>2020-06-02T15:51:49Z</time>
      </trkpt>
      <trkpt lat="46.35476" lon="-1.23331">
        <ele>3</ele>
        <time>2020-06-02T15:51:50Z</time>
      </trkpt>
      <trkpt lat="46.35473" lon="-1.2334">
        <ele>3</ele>
        <time>2020-06-02T15:51:51Z</time>
      </trkpt>
      <trkpt lat="46.3547" lon="-1.23349">
        <ele>3</ele>
        <time>2020-06-02T15:51:52Z</time>
      </trkpt>
      <trkpt lat="46.35468" lon="-1.23357">
        <ele>3</ele>
        <time>2020-06-02T15:51:53Z</time>
      </trkpt>
      <trkpt lat="46.35465" lon="-1.23365">
        <ele>3</ele>
        <time>2020-06-02T15:51:54Z</time>
      </trkpt>
      <trkpt lat="46.35462" lon="-1.23374">
        <ele>3</ele>
        <time>2020-06-02T15:51:55Z</time>
      </trkpt>
      <trkpt lat="46.35459" lon="-1.23382">
        <ele>3</ele>
        <time>2020-06-02T15:51:56Z</time>
      </trkpt>
      <trkpt lat="46.35457" lon="-1.23391">
        <ele>3</ele>
        <time>2020-06-02T15:51:57Z</time>
      </trkpt>
      <trkpt lat="46.35453" lon="-1.234">
        <ele>2.9</ele>
        <time>2020-06-02T15:51:58Z</time>
      </trkpt>
      <trkpt lat="46.3545" lon="-1.23408">
        <ele>2.9</ele>
        <time>2020-06-02T15:51:59Z</time>
      </trkpt>
      <trkpt lat="46.35447" lon="-1.23416">
        <ele>2.9</ele>
        <time>2020-06-02T15:52:00Z</time>
      </trkpt>
      <trkpt lat="46.35444" lon="-1.23424">
        <ele>2.9</ele>
        <time>2020-06-02T15:52:01Z</time>
      </trkpt>
      <trkpt lat="46.35441" lon="-1.23432">
        <ele>2.9</ele>
        <time>2020-06-02T15:52:02Z</time>
      </trkpt>
      <trkpt lat="46.35438" lon="-1.2344">
        <ele>2.9</ele>
        <time>2020-06-02T15:52:03Z</time>
      </trkpt>
      <trkpt lat="46.35435" lon="-1.23448">
        <ele>2.9</ele>
        <time>2020-06-02T15:52:04Z</time>
      </trkpt>
      <trkpt lat="46.35433" lon="-1.23456">
        <ele>2.9</ele>
        <time>2020-06-02T15:52:05Z</time>
      </trkpt>
      <trkpt lat="46.3543" lon="-1.23463">
        <ele>2.9</ele>
        <time>2020-06-02T15:52:06Z</time>
      </trkpt>
      <trkpt lat="46.35426" lon="-1.2347">
        <ele>2.9</ele>
        <time>2020-06-02T15:52:07Z</time>
      </trkpt>
      <trkpt lat="46.35422" lon="-1.23476">
        <ele>2.9</ele>
        <time>2020-06-02T15:52:08Z</time>
      </trkpt>
      <trkpt lat="46.35418" lon="-1.23482">
        <ele>2.9</ele>
        <time>2020-06-02T15:52:09Z</time>
      </trkpt>
      <trkpt lat="46.35414" lon="-1.23488">
        <ele>2.9</ele>
        <time>2020-06-02T15:52:10Z</time>
      </trkpt>
      <trkpt lat="46.3541" lon="-1.23495">
        <ele>2.8</ele>
        <time>2020-06-02T15:52:11Z</time>
      </trkpt>
      <trkpt lat="46.35407" lon="-1.23502">
        <ele>2.8</ele>
        <time>2020-06-02T15:52:12Z</time>
      </trkpt>
      <trkpt lat="46.35404" lon="-1.2351">
        <ele>2.8</ele>
        <time>2020-06-02T15:52:13Z</time>
      </trkpt>
      <trkpt lat="46.35402" lon="-1.23519">
        <ele>2.8</ele>
        <time>2020-06-02T15:52:14Z</time>
      </trkpt>
      <trkpt lat="46.354" lon="-1.23527">
        <ele>2.8</ele>
        <time>2020-06-02T15:52:15Z</time>
      </trkpt>
      <trkpt lat="46.35397" lon="-1.23535">
        <ele>2.8</ele>
        <time>2020-06-02T15:52:16Z</time>
      </trkpt>
      <trkpt lat="46.35395" lon="-1.23543">
        <ele>2.8</ele>
        <time>2020-06-02T15:52:17Z</time>
      </trkpt>
      <trkpt lat="46.35393" lon="-1.23553">
        <ele>2.8</ele>
        <time>2020-06-02T15:52:18Z</time>
      </trkpt>
      <trkpt lat="46.3539" lon="-1.23562">
        <ele>2.8</ele>
        <time>2020-06-02T15:52:19Z</time>
      </trkpt>
      <trkpt lat="46.35387" lon="-1.23572">
        <ele>2.8</ele>
        <time>2020-06-02T15:52:20Z</time>
      </trkpt>
      <trkpt lat="46.35384" lon="-1.23581">
        <ele>2.8</ele>
        <time>2020-06-02T15:52:21Z</time>
      </trkpt>
      <trkpt lat="46.35382" lon="-1.23591">
        <ele>2.9</ele>
        <time>2020-06-02T15:52:22Z</time>
      </trkpt>
      <trkpt lat="46.35379" lon="-1.236">
        <ele>2.9</ele>
        <time>2020-06-02T15:52:23Z</time>
      </trkpt>
      <trkpt lat="46.35376" lon="-1.2361">
        <ele>2.9</ele>
        <time>2020-06-02T15:52:24Z</time>
      </trkpt>
      <trkpt lat="46.35373" lon="-1.23619">
        <ele>2.9</ele>
        <time>2020-06-02T15:52:25Z</time>
      </trkpt>
      <trkpt lat="46.3537" lon="-1.23629">
        <ele>2.9</ele>
        <time>2020-06-02T15:52:26Z</time>
      </trkpt>
      <trkpt lat="46.35368" lon="-1.23639">
        <ele>2.9</ele>
        <time>2020-06-02T15:52:27Z</time>
      </trkpt>
      <trkpt lat="46.35366" lon="-1.23649">
        <ele>2.9</ele>
        <time>2020-06-02T15:52:28Z</time>
      </trkpt>
      <trkpt lat="46.35363" lon="-1.23659">
        <ele>2.9</ele>
        <time>2020-06-02T15:52:29Z</time>
      </trkpt>
      <trkpt lat="46.3536" lon="-1.23669">
        <ele>2.9</ele>
        <time>2020-06-02T15:52:30Z</time>
      </trkpt>
      <trkpt lat="46.35357" lon="-1.23678">
        <ele>2.9</ele>
        <time>2020-06-02T15:52:31Z</time>
      </trkpt>
      <trkpt lat="46.35355" lon="-1.23688">
        <ele>3</ele>
        <time>2020-06-02T15:52:32Z</time>
      </trkpt>
      <trkpt lat="46.35352" lon="-1.23698">
        <ele>3</ele>
        <time>2020-06-02T15:52:33Z</time>
      </trkpt>
      <trkpt lat="46.35349" lon="-1.23706">
        <ele>3</ele>
        <time>2020-06-02T15:52:34Z</time>
      </trkpt>
      <trkpt lat="46.35346" lon="-1.23715">
        <ele>3.1</ele>
        <time>2020-06-02T15:52:35Z</time>
      </trkpt>
      <trkpt lat="46.35344" lon="-1.23725">
        <ele>3.1</ele>
        <time>2020-06-02T15:52:36Z</time>
      </trkpt>
      <trkpt lat="46.35341" lon="-1.23734">
        <ele>3.1</ele>
        <time>2020-06-02T15:52:37Z</time>
      </trkpt>
      <trkpt lat="46.35338" lon="-1.23742">
        <ele>3.1</ele>
        <time>2020-06-02T15:52:38Z</time>
      </trkpt>
      <trkpt lat="46.35334" lon="-1.23751">
        <ele>3.1</ele>
        <time>2020-06-02T15:52:39Z</time>
      </trkpt>
      <trkpt lat="46.35332" lon="-1.2376">
        <ele>3.2</ele>
        <time>2020-06-02T15:52:40Z</time>
      </trkpt>
      <trkpt lat="46.35329" lon="-1.23769">
        <ele>3.2</ele>
        <time>2020-06-02T15:52:41Z</time>
      </trkpt>
      <trkpt lat="46.35326" lon="-1.23778">
        <ele>3.1</ele>
        <time>2020-06-02T15:52:42Z</time>
      </trkpt>
      <trkpt lat="46.35323" lon="-1.23787">
        <ele>3.1</ele>
        <time>2020-06-02T15:52:43Z</time>
      </trkpt>
      <trkpt lat="46.3532" lon="-1.23796">
        <ele>3.1</ele>
        <time>2020-06-02T15:52:44Z</time>
      </trkpt>
      <trkpt lat="46.35318" lon="-1.23805">
        <ele>3.1</ele>
        <time>2020-06-02T15:52:45Z</time>
      </trkpt>
      <trkpt lat="46.35315" lon="-1.23814">
        <ele>3.1</ele>
        <time>2020-06-02T15:52:46Z</time>
      </trkpt>
      <trkpt lat="46.35313" lon="-1.23822">
        <ele>3.1</ele>
        <time>2020-06-02T15:52:47Z</time>
      </trkpt>
      <trkpt lat="46.3531" lon="-1.23831">
        <ele>3.1</ele>
        <time>2020-06-02T15:52:48Z</time>
      </trkpt>
      <trkpt lat="46.35307" lon="-1.2384">
        <ele>3.1</ele>
        <time>2020-06-02T15:52:49Z</time>
      </trkpt>
      <trkpt lat="46.35304" lon="-1.23848">
        <ele>3.1</ele>
        <time>2020-06-02T15:52:50Z</time>
      </trkpt>
      <trkpt lat="46.35302" lon="-1.23857">
        <ele>3.1</ele>
        <time>2020-06-02T15:52:51Z</time>
      </trkpt>
      <trkpt lat="46.35299" lon="-1.23866">
        <ele>3.1</ele>
        <time>2020-06-02T15:52:52Z</time>
      </trkpt>
      <trkpt lat="46.35296" lon="-1.23874">
        <ele>3.1</ele>
        <time>2020-06-02T15:52:53Z</time>
      </trkpt>
      <trkpt lat="46.35293" lon="-1.23883">
        <ele>3.1</ele>
        <time>2020-06-02T15:52:54Z</time>
      </trkpt>
      <trkpt lat="46.3529" lon="-1.23892">
        <ele>3.1</ele>
        <time>2020-06-02T15:52:55Z</time>
      </trkpt>
      <trkpt lat="46.35287" lon="-1.23901">
        <ele>3.1</ele>
        <time>2020-06-02T15:52:56Z</time>
      </trkpt>
      <trkpt lat="46.35284" lon="-1.2391">
        <ele>3.1</ele>
        <time>2020-06-02T15:52:57Z</time>
      </trkpt>
      <trkpt lat="46.35282" lon="-1.23919">
        <ele>3.1</ele>
        <time>2020-06-02T15:52:58Z</time>
      </trkpt>
      <trkpt lat="46.35279" lon="-1.23928">
        <ele>3.1</ele>
        <time>2020-06-02T15:52:59Z</time>
      </trkpt>
      <trkpt lat="46.35276" lon="-1.23937">
        <ele>3.1</ele>
        <time>2020-06-02T15:53:00Z</time>
      </trkpt>
      <trkpt lat="46.35274" lon="-1.23947">
        <ele>3.1</ele>
        <time>2020-06-02T15:53:01Z</time>
      </trkpt>
      <trkpt lat="46.35272" lon="-1.23958">
        <ele>3.1</ele>
        <time>2020-06-02T15:53:02Z</time>
      </trkpt>
      <trkpt lat="46.35271" lon="-1.23968">
        <ele>3.1</ele>
        <time>2020-06-02T15:53:03Z</time>
      </trkpt>
      <trkpt lat="46.3527" lon="-1.23979">
        <ele>3.1</ele>
        <time>2020-06-02T15:53:04Z</time>
      </trkpt>
      <trkpt lat="46.35269" lon="-1.2399">
        <ele>3.1</ele>
        <time>2020-06-02T15:53:05Z</time>
      </trkpt>
      <trkpt lat="46.35268" lon="-1.24">
        <ele>3.1</ele>
        <time>2020-06-02T15:53:06Z</time>
      </trkpt>
      <trkpt lat="46.35268" lon="-1.24009">
        <ele>3.1</ele>
        <time>2020-06-02T15:53:07Z</time>
      </trkpt>
      <trkpt lat="46.35267" lon="-1.24019">
        <ele>3.1</ele>
        <time>2020-06-02T15:53:08Z</time>
      </trkpt>
      <trkpt lat="46.35267" lon="-1.24029">
        <ele>3.1</ele>
        <time>2020-06-02T15:53:09Z</time>
      </trkpt>
      <trkpt lat="46.35266" lon="-1.24039">
        <ele>3.1</ele>
        <time>2020-06-02T15:53:10Z</time>
      </trkpt>
      <trkpt lat="46.35266" lon="-1.24049">
        <ele>3.1</ele>
        <time>2020-06-02T15:53:11Z</time>
      </trkpt>
      <trkpt lat="46.35265" lon="-1.24059">
        <ele>3.1</ele>
        <time>2020-06-02T15:53:12Z</time>
      </trkpt>
      <trkpt lat="46.35264" lon="-1.24069">
        <ele>3.2</ele>
        <time>2020-06-02T15:53:13Z</time>
      </trkpt>
      <trkpt lat="46.35263" lon="-1.24078">
        <ele>3.2</ele>
        <time>2020-06-02T15:53:14Z</time>
      </trkpt>
      <trkpt lat="46.35262" lon="-1.24088">
        <ele>3.1</ele>
        <time>2020-06-02T15:53:15Z</time>
      </trkpt>
      <trkpt lat="46.35261" lon="-1.24098">
        <ele>3.1</ele>
        <time>2020-06-02T15:53:16Z</time>
      </trkpt>
      <trkpt lat="46.35259" lon="-1.24108">
        <ele>3.1</ele>
        <time>2020-06-02T15:53:17Z</time>
      </trkpt>
      <trkpt lat="46.35257" lon="-1.24118">
        <ele>3.1</ele>
        <time>2020-06-02T15:53:18Z</time>
      </trkpt>
      <trkpt lat="46.35255" lon="-1.24128">
        <ele>3.2</ele>
        <time>2020-06-02T15:53:19Z</time>
      </trkpt>
      <trkpt lat="46.35252" lon="-1.24137">
        <ele>3.2</ele>
        <time>2020-06-02T15:53:20Z</time>
      </trkpt>
      <trkpt lat="46.3525" lon="-1.24147">
        <ele>3.2</ele>
        <time>2020-06-02T15:53:21Z</time>
      </trkpt>
      <trkpt lat="46.35247" lon="-1.24156">
        <ele>3.2</ele>
        <time>2020-06-02T15:53:22Z</time>
      </trkpt>
      <trkpt lat="46.35244" lon="-1.24165">
        <ele>3.2</ele>
        <time>2020-06-02T15:53:23Z</time>
      </trkpt>
      <trkpt lat="46.35242" lon="-1.24174">
        <ele>3.2</ele>
        <time>2020-06-02T15:53:24Z</time>
      </trkpt>
      <trkpt lat="46.35239" lon="-1.24182">
        <ele>3.2</ele>
        <time>2020-06-02T15:53:25Z</time>
      </trkpt>
      <trkpt lat="46.35237" lon="-1.2419">
        <ele>3.3</ele>
        <time>2020-06-02T15:53:26Z</time>
      </trkpt>
      <trkpt lat="46.35235" lon="-1.24198">
        <ele>3.3</ele>
        <time>2020-06-02T15:53:27Z</time>
      </trkpt>
      <trkpt lat="46.35232" lon="-1.24206">
        <ele>3.3</ele>
        <time>2020-06-02T15:53:28Z</time>
      </trkpt>
      <trkpt lat="46.3523" lon="-1.24215">
        <ele>3.3</ele>
        <time>2020-06-02T15:53:29Z</time>
      </trkpt>
      <trkpt lat="46.35228" lon="-1.24223">
        <ele>3.4</ele>
        <time>2020-06-02T15:53:30Z</time>
      </trkpt>
      <trkpt lat="46.35226" lon="-1.2423">
        <ele>3.4</ele>
        <time>2020-06-02T15:53:31Z</time>
      </trkpt>
      <trkpt lat="46.35223" lon="-1.24236">
        <ele>3.4</ele>
        <time>2020-06-02T15:53:32Z</time>
      </trkpt>
      <trkpt lat="46.35221" lon="-1.24243">
        <ele>3.4</ele>
        <time>2020-06-02T15:53:33Z</time>
      </trkpt>
      <trkpt lat="46.35219" lon="-1.2425">
        <ele>3.4</ele>
        <time>2020-06-02T15:53:34Z</time>
      </trkpt>
      <trkpt lat="46.35218" lon="-1.24256">
        <ele>3.4</ele>
        <time>2020-06-02T15:53:35Z</time>
      </trkpt>
      <trkpt lat="46.35216" lon="-1.24263">
        <ele>3.5</ele>
        <time>2020-06-02T15:53:36Z</time>
      </trkpt>
      <trkpt lat="46.35215" lon="-1.24269">
        <ele>3.5</ele>
        <time>2020-06-02T15:53:37Z</time>
      </trkpt>
      <trkpt lat="46.35213" lon="-1.24275">
        <ele>3.5</ele>
        <time>2020-06-02T15:53:38Z</time>
      </trkpt>
      <trkpt lat="46.35211" lon="-1.24281">
        <ele>3.5</ele>
        <time>2020-06-02T15:53:39Z</time>
      </trkpt>
      <trkpt lat="46.3521" lon="-1.24287">
        <ele>3.5</ele>
        <time>2020-06-02T15:53:40Z</time>
      </trkpt>
      <trkpt lat="46.35209" lon="-1.24293">
        <ele>3.5</ele>
        <time>2020-06-02T15:53:41Z</time>
      </trkpt>
      <trkpt lat="46.35208" lon="-1.243">
        <ele>3.5</ele>
        <time>2020-06-02T15:53:42Z</time>
      </trkpt>
      <trkpt lat="46.35207" lon="-1.24306">
        <ele>3.5</ele>
        <time>2020-06-02T15:53:43Z</time>
      </trkpt>
      <trkpt lat="46.35205" lon="-1.24311">
        <ele>3.5</ele>
        <time>2020-06-02T15:53:44Z</time>
      </trkpt>
      <trkpt lat="46.35204" lon="-1.24318">
        <ele>3.6</ele>
        <time>2020-06-02T15:53:45Z</time>
      </trkpt>
      <trkpt lat="46.35202" lon="-1.24324">
        <ele>3.6</ele>
        <time>2020-06-02T15:53:46Z</time>
      </trkpt>
      <trkpt lat="46.35201" lon="-1.2433">
        <ele>3.6</ele>
        <time>2020-06-02T15:53:47Z</time>
      </trkpt>
      <trkpt lat="46.352" lon="-1.24337">
        <ele>3.6</ele>
        <time>2020-06-02T15:53:48Z</time>
      </trkpt>
      <trkpt lat="46.35199" lon="-1.24343">
        <ele>3.6</ele>
        <time>2020-06-02T15:53:49Z</time>
      </trkpt>
      <trkpt lat="46.35197" lon="-1.24349">
        <ele>3.6</ele>
        <time>2020-06-02T15:53:50Z</time>
      </trkpt>
      <trkpt lat="46.35196" lon="-1.24355">
        <ele>3.6</ele>
        <time>2020-06-02T15:53:51Z</time>
      </trkpt>
      <trkpt lat="46.35194" lon="-1.24361">
        <ele>3.6</ele>
        <time>2020-06-02T15:53:52Z</time>
      </trkpt>
      <trkpt lat="46.35193" lon="-1.24368">
        <ele>3.6</ele>
        <time>2020-06-02T15:53:53Z</time>
      </trkpt>
      <trkpt lat="46.35191" lon="-1.24374">
        <ele>3.6</ele>
        <time>2020-06-02T15:53:54Z</time>
      </trkpt>
      <trkpt lat="46.35189" lon="-1.2438">
        <ele>3.6</ele>
        <time>2020-06-02T15:53:55Z</time>
      </trkpt>
      <trkpt lat="46.35188" lon="-1.24386">
        <ele>3.6</ele>
        <time>2020-06-02T15:53:56Z</time>
      </trkpt>
      <trkpt lat="46.35186" lon="-1.24393">
        <ele>3.6</ele>
        <time>2020-06-02T15:53:57Z</time>
      </trkpt>
      <trkpt lat="46.35185" lon="-1.24399">
        <ele>3.6</ele>
        <time>2020-06-02T15:53:58Z</time>
      </trkpt>
      <trkpt lat="46.35183" lon="-1.24405">
        <ele>3.6</ele>
        <time>2020-06-02T15:53:59Z</time>
      </trkpt>
      <trkpt lat="46.35181" lon="-1.24411">
        <ele>3.6</ele>
        <time>2020-06-02T15:54:00Z</time>
      </trkpt>
      <trkpt lat="46.35179" lon="-1.24417">
        <ele>3.6</ele>
        <time>2020-06-02T15:54:01Z</time>
      </trkpt>
      <trkpt lat="46.35178" lon="-1.24423">
        <ele>3.6</ele>
        <time>2020-06-02T15:54:02Z</time>
      </trkpt>
      <trkpt lat="46.35177" lon="-1.24429">
        <ele>3.6</ele>
        <time>2020-06-02T15:54:03Z</time>
      </trkpt>
      <trkpt lat="46.35175" lon="-1.24434">
        <ele>3.6</ele>
        <time>2020-06-02T15:54:04Z</time>
      </trkpt>
      <trkpt lat="46.35172" lon="-1.2444">
        <ele>3.6</ele>
        <time>2020-06-02T15:54:05Z</time>
      </trkpt>
      <trkpt lat="46.3517" lon="-1.24446">
        <ele>3.6</ele>
        <time>2020-06-02T15:54:06Z</time>
      </trkpt>
      <trkpt lat="46.35168" lon="-1.24453">
        <ele>3.6</ele>
        <time>2020-06-02T15:54:07Z</time>
      </trkpt>
      <trkpt lat="46.35166" lon="-1.2446">
        <ele>3.6</ele>
        <time>2020-06-02T15:54:08Z</time>
      </trkpt>
      <trkpt lat="46.35163" lon="-1.24466">
        <ele>3.6</ele>
        <time>2020-06-02T15:54:09Z</time>
      </trkpt>
      <trkpt lat="46.35161" lon="-1.24472">
        <ele>3.6</ele>
        <time>2020-06-02T15:54:10Z</time>
      </trkpt>
      <trkpt lat="46.3516" lon="-1.24479">
        <ele>3.7</ele>
        <time>2020-06-02T15:54:11Z</time>
      </trkpt>
      <trkpt lat="46.35158" lon="-1.24486">
        <ele>3.7</ele>
        <time>2020-06-02T15:54:12Z</time>
      </trkpt>
      <trkpt lat="46.35156" lon="-1.24493">
        <ele>3.7</ele>
        <time>2020-06-02T15:54:13Z</time>
      </trkpt>
      <trkpt lat="46.35155" lon="-1.24499">
        <ele>3.7</ele>
        <time>2020-06-02T15:54:14Z</time>
      </trkpt>
      <trkpt lat="46.35153" lon="-1.24505">
        <ele>3.7</ele>
        <time>2020-06-02T15:54:15Z</time>
      </trkpt>
      <trkpt lat="46.35151" lon="-1.24512">
        <ele>3.7</ele>
        <time>2020-06-02T15:54:16Z</time>
      </trkpt>
      <trkpt lat="46.35149" lon="-1.24518">
        <ele>3.6</ele>
        <time>2020-06-02T15:54:17Z</time>
      </trkpt>
      <trkpt lat="46.35147" lon="-1.24525">
        <ele>3.6</ele>
        <time>2020-06-02T15:54:18Z</time>
      </trkpt>
      <trkpt lat="46.35145" lon="-1.24531">
        <ele>3.5</ele>
        <time>2020-06-02T15:54:19Z</time>
      </trkpt>
      <trkpt lat="46.35144" lon="-1.24538">
        <ele>3.5</ele>
        <time>2020-06-02T15:54:20Z</time>
      </trkpt>
      <trkpt lat="46.35142" lon="-1.24545">
        <ele>3.5</ele>
        <time>2020-06-02T15:54:21Z</time>
      </trkpt>
      <trkpt lat="46.3514" lon="-1.24551">
        <ele>3.5</ele>
        <time>2020-06-02T15:54:22Z</time>
      </trkpt>
      <trkpt lat="46.35139" lon="-1.24557">
        <ele>3.5</ele>
        <time>2020-06-02T15:54:23Z</time>
      </trkpt>
      <trkpt lat="46.35137" lon="-1.24563">
        <ele>3.5</ele>
        <time>2020-06-02T15:54:24Z</time>
      </trkpt>
      <trkpt lat="46.35136" lon="-1.2457">
        <ele>3.5</ele>
        <time>2020-06-02T15:54:25Z</time>
      </trkpt>
      <trkpt lat="46.35134" lon="-1.24577">
        <ele>3.5</ele>
        <time>2020-06-02T15:54:26Z</time>
      </trkpt>
      <trkpt lat="46.35131" lon="-1.24583">
        <ele>3.5</ele>
        <time>2020-06-02T15:54:27Z</time>
      </trkpt>
      <trkpt lat="46.35129" lon="-1.2459">
        <ele>3.5</ele>
        <time>2020-06-02T15:54:28Z</time>
      </trkpt>
      <trkpt lat="46.35127" lon="-1.24596">
        <ele>3.5</ele>
        <time>2020-06-02T15:54:29Z</time>
      </trkpt>
      <trkpt lat="46.35126" lon="-1.24604">
        <ele>3.5</ele>
        <time>2020-06-02T15:54:30Z</time>
      </trkpt>
      <trkpt lat="46.35124" lon="-1.24611">
        <ele>3.5</ele>
        <time>2020-06-02T15:54:31Z</time>
      </trkpt>
      <trkpt lat="46.35123" lon="-1.24618">
        <ele>3.5</ele>
        <time>2020-06-02T15:54:32Z</time>
      </trkpt>
      <trkpt lat="46.3512" lon="-1.24624">
        <ele>3.5</ele>
        <time>2020-06-02T15:54:33Z</time>
      </trkpt>
      <trkpt lat="46.35117" lon="-1.24631">
        <ele>3.5</ele>
        <time>2020-06-02T15:54:34Z</time>
      </trkpt>
      <trkpt lat="46.35114" lon="-1.24638">
        <ele>3.5</ele>
        <time>2020-06-02T15:54:35Z</time>
      </trkpt>
      <trkpt lat="46.35112" lon="-1.24645">
        <ele>3.5</ele>
        <time>2020-06-02T15:54:36Z</time>
      </trkpt>
      <trkpt lat="46.35109" lon="-1.24652">
        <ele>3.5</ele>
        <time>2020-06-02T15:54:37Z</time>
      </trkpt>
      <trkpt lat="46.35107" lon="-1.24659">
        <ele>3.5</ele>
        <time>2020-06-02T15:54:38Z</time>
      </trkpt>
      <trkpt lat="46.35105" lon="-1.24666">
        <ele>3.5</ele>
        <time>2020-06-02T15:54:39Z</time>
      </trkpt>
      <trkpt lat="46.35103" lon="-1.24673">
        <ele>3.5</ele>
        <time>2020-06-02T15:54:40Z</time>
      </trkpt>
      <trkpt lat="46.35102" lon="-1.2468">
        <ele>3.5</ele>
        <time>2020-06-02T15:54:41Z</time>
      </trkpt>
      <trkpt lat="46.35101" lon="-1.24687">
        <ele>3.5</ele>
        <time>2020-06-02T15:54:42Z</time>
      </trkpt>
      <trkpt lat="46.35099" lon="-1.24695">
        <ele>3.5</ele>
        <time>2020-06-02T15:54:43Z</time>
      </trkpt>
      <trkpt lat="46.35097" lon="-1.24702">
        <ele>3.5</ele>
        <time>2020-06-02T15:54:44Z</time>
      </trkpt>
      <trkpt lat="46.35094" lon="-1.24708">
        <ele>3.5</ele>
        <time>2020-06-02T15:54:45Z</time>
      </trkpt>
      <trkpt lat="46.35092" lon="-1.24715">
        <ele>3.5</ele>
        <time>2020-06-02T15:54:46Z</time>
      </trkpt>
      <trkpt lat="46.35089" lon="-1.24721">
        <ele>3.5</ele>
        <time>2020-06-02T15:54:47Z</time>
      </trkpt>
      <trkpt lat="46.35088" lon="-1.24728">
        <ele>3.5</ele>
        <time>2020-06-02T15:54:48Z</time>
      </trkpt>
      <trkpt lat="46.35087" lon="-1.24735">
        <ele>3.5</ele>
        <time>2020-06-02T15:54:49Z</time>
      </trkpt>
      <trkpt lat="46.35085" lon="-1.2474">
        <ele>3.4</ele>
        <time>2020-06-02T15:54:50Z</time>
      </trkpt>
      <trkpt lat="46.35082" lon="-1.24742">
        <ele>3.4</ele>
        <time>2020-06-02T15:54:51Z</time>
      </trkpt>
      <trkpt lat="46.35078" lon="-1.2474">
        <ele>3.4</ele>
        <time>2020-06-02T15:54:52Z</time>
      </trkpt>
      <trkpt lat="46.35074" lon="-1.24738">
        <ele>3.4</ele>
        <time>2020-06-02T15:54:53Z</time>
      </trkpt>
      <trkpt lat="46.3507" lon="-1.24739">
        <ele>3.4</ele>
        <time>2020-06-02T15:54:54Z</time>
      </trkpt>
      <trkpt lat="46.35066" lon="-1.24739">
        <ele>3.3</ele>
        <time>2020-06-02T15:54:55Z</time>
      </trkpt>
      <trkpt lat="46.35062" lon="-1.24739">
        <ele>3.3</ele>
        <time>2020-06-02T15:54:56Z</time>
      </trkpt>
      <trkpt lat="46.35058" lon="-1.24739">
        <ele>3.3</ele>
        <time>2020-06-02T15:54:57Z</time>
      </trkpt>
      <trkpt lat="46.35053" lon="-1.24739">
        <ele>3.3</ele>
        <time>2020-06-02T15:54:58Z</time>
      </trkpt>
      <trkpt lat="46.35049" lon="-1.24739">
        <ele>3.2</ele>
        <time>2020-06-02T15:54:59Z</time>
      </trkpt>
      <trkpt lat="46.35044" lon="-1.24741">
        <ele>3.2</ele>
        <time>2020-06-02T15:55:00Z</time>
      </trkpt>
      <trkpt lat="46.35041" lon="-1.24745">
        <ele>3.2</ele>
        <time>2020-06-02T15:55:01Z</time>
      </trkpt>
      <trkpt lat="46.3504" lon="-1.2475">
        <ele>3.2</ele>
        <time>2020-06-02T15:55:02Z</time>
      </trkpt>
      <trkpt lat="46.35039" lon="-1.24755">
        <ele>3.2</ele>
        <time>2020-06-02T15:55:03Z</time>
      </trkpt>
      <trkpt lat="46.35039" lon="-1.2476">
        <ele>3.1</ele>
        <time>2020-06-02T15:55:04Z</time>
      </trkpt>
      <trkpt lat="46.35038" lon="-1.24764">
        <ele>3.1</ele>
        <time>2020-06-02T15:55:05Z</time>
      </trkpt>
      <trkpt lat="46.35035" lon="-1.24766">
        <ele>3.1</ele>
        <time>2020-06-02T15:55:06Z</time>
      </trkpt>
      <trkpt lat="46.35031" lon="-1.24766">
        <ele>3.1</ele>
        <time>2020-06-02T15:55:07Z</time>
      </trkpt>
      <trkpt lat="46.35028" lon="-1.24766">
        <ele>3.1</ele>
        <time>2020-06-02T15:55:08Z</time>
      </trkpt>
      <trkpt lat="46.35024" lon="-1.24767">
        <ele>3.1</ele>
        <time>2020-06-02T15:55:09Z</time>
      </trkpt>
      <trkpt lat="46.3502" lon="-1.24766">
        <ele>3</ele>
        <time>2020-06-02T15:55:10Z</time>
      </trkpt>
      <trkpt lat="46.35016" lon="-1.24765">
        <ele>3</ele>
        <time>2020-06-02T15:55:11Z</time>
      </trkpt>
      <trkpt lat="46.35012" lon="-1.24765">
        <ele>3</ele>
        <time>2020-06-02T15:55:12Z</time>
      </trkpt>
      <trkpt lat="46.35008" lon="-1.24766">
        <ele>3</ele>
        <time>2020-06-02T15:55:13Z</time>
      </trkpt>
      <trkpt lat="46.35003" lon="-1.24767">
        <ele>2.9</ele>
        <time>2020-06-02T15:55:14Z</time>
      </trkpt>
      <trkpt lat="46.34999" lon="-1.24767">
        <ele>2.9</ele>
        <time>2020-06-02T15:55:15Z</time>
      </trkpt>
      <trkpt lat="46.34994" lon="-1.24767">
        <ele>2.9</ele>
        <time>2020-06-02T15:55:16Z</time>
      </trkpt>
      <trkpt lat="46.34989" lon="-1.24767">
        <ele>2.9</ele>
        <time>2020-06-02T15:55:17Z</time>
      </trkpt>
      <trkpt lat="46.34985" lon="-1.24767">
        <ele>2.8</ele>
        <time>2020-06-02T15:55:18Z</time>
      </trkpt>
      <trkpt lat="46.3498" lon="-1.24767">
        <ele>2.8</ele>
        <time>2020-06-02T15:55:19Z</time>
      </trkpt>
      <trkpt lat="46.34976" lon="-1.24768">
        <ele>2.7</ele>
        <time>2020-06-02T15:55:20Z</time>
      </trkpt>
      <trkpt lat="46.34971" lon="-1.2477">
        <ele>2.7</ele>
        <time>2020-06-02T15:55:21Z</time>
      </trkpt>
      <trkpt lat="46.34967" lon="-1.24771">
        <ele>2.7</ele>
        <time>2020-06-02T15:55:22Z</time>
      </trkpt>
      <trkpt lat="46.34963" lon="-1.24773">
        <ele>2.6</ele>
        <time>2020-06-02T15:55:23Z</time>
      </trkpt>
      <trkpt lat="46.34958" lon="-1.24772">
        <ele>2.6</ele>
        <time>2020-06-02T15:55:24Z</time>
      </trkpt>
      <trkpt lat="46.34954" lon="-1.24773">
        <ele>2.6</ele>
        <time>2020-06-02T15:55:25Z</time>
      </trkpt>
      <trkpt lat="46.34949" lon="-1.24773">
        <ele>2.5</ele>
        <time>2020-06-02T15:55:26Z</time>
      </trkpt>
      <trkpt lat="46.34945" lon="-1.24773">
        <ele>2.5</ele>
        <time>2020-06-02T15:55:27Z</time>
      </trkpt>
      <trkpt lat="46.3494" lon="-1.24772">
        <ele>2.5</ele>
        <time>2020-06-02T15:55:28Z</time>
      </trkpt>
      <trkpt lat="46.34937" lon="-1.24768">
        <ele>2.4</ele>
        <time>2020-06-02T15:55:29Z</time>
      </trkpt>
      <trkpt lat="46.34935" lon="-1.24764">
        <ele>2.4</ele>
        <time>2020-06-02T15:55:30Z</time>
      </trkpt>
      <trkpt lat="46.34932" lon="-1.24762">
        <ele>2.4</ele>
        <time>2020-06-02T15:55:31Z</time>
      </trkpt>
      <trkpt lat="46.34928" lon="-1.24763">
        <ele>2.4</ele>
        <time>2020-06-02T15:55:32Z</time>
      </trkpt>
      <trkpt lat="46.34924" lon="-1.24762">
        <ele>2.5</ele>
        <time>2020-06-02T15:55:33Z</time>
      </trkpt>
      <trkpt lat="46.3492" lon="-1.24761">
        <ele>2.5</ele>
        <time>2020-06-02T15:55:34Z</time>
      </trkpt>
      <trkpt lat="46.34916" lon="-1.24762">
        <ele>2.5</ele>
        <time>2020-06-02T15:55:35Z</time>
      </trkpt>
      <trkpt lat="46.34911" lon="-1.24762">
        <ele>2.5</ele>
        <time>2020-06-02T15:55:36Z</time>
      </trkpt>
      <trkpt lat="46.34907" lon="-1.24759">
        <ele>2.6</ele>
        <time>2020-06-02T15:55:37Z</time>
      </trkpt>
      <trkpt lat="46.34903" lon="-1.24759">
        <ele>2.6</ele>
        <time>2020-06-02T15:55:38Z</time>
      </trkpt>
      <trkpt lat="46.34898" lon="-1.24759">
        <ele>2.6</ele>
        <time>2020-06-02T15:55:39Z</time>
      </trkpt>
      <trkpt lat="46.34894" lon="-1.2476">
        <ele>2.7</ele>
        <time>2020-06-02T15:55:40Z</time>
      </trkpt>
      <trkpt lat="46.3489" lon="-1.24761">
        <ele>2.7</ele>
        <time>2020-06-02T15:55:41Z</time>
      </trkpt>
      <trkpt lat="46.34886" lon="-1.2476">
        <ele>2.7</ele>
        <time>2020-06-02T15:55:42Z</time>
      </trkpt>
      <trkpt lat="46.34882" lon="-1.2476">
        <ele>2.8</ele>
        <time>2020-06-02T15:55:43Z</time>
      </trkpt>
      <trkpt lat="46.34878" lon="-1.2476">
        <ele>2.8</ele>
        <time>2020-06-02T15:55:44Z</time>
      </trkpt>
      <trkpt lat="46.34875" lon="-1.24761">
        <ele>2.8</ele>
        <time>2020-06-02T15:55:45Z</time>
      </trkpt>
      <trkpt lat="46.34871" lon="-1.24763">
        <ele>2.8</ele>
        <time>2020-06-02T15:55:46Z</time>
      </trkpt>
      <trkpt lat="46.34867" lon="-1.24764">
        <ele>2.9</ele>
        <time>2020-06-02T15:55:47Z</time>
      </trkpt>
      <trkpt lat="46.34864" lon="-1.24765">
        <ele>2.9</ele>
        <time>2020-06-02T15:55:48Z</time>
      </trkpt>
      <trkpt lat="46.34861" lon="-1.24767">
        <ele>2.9</ele>
        <time>2020-06-02T15:55:49Z</time>
      </trkpt>
      <trkpt lat="46.34859" lon="-1.2477">
        <ele>2.9</ele>
        <time>2020-06-02T15:55:50Z</time>
      </trkpt>
      <trkpt lat="46.34855" lon="-1.24772">
        <ele>3</ele>
        <time>2020-06-02T15:55:51Z</time>
      </trkpt>
      <trkpt lat="46.34854" lon="-1.24772">
        <ele>3</ele>
        <time>2020-06-02T15:55:52Z</time>
      </trkpt>
      <trkpt lat="46.34854" lon="-1.24772">
        <ele>3</ele>
        <time>2020-06-02T15:55:53Z</time>
      </trkpt>
      <trkpt lat="46.34854" lon="-1.24771">
        <ele>3</ele>
        <time>2020-06-02T15:55:54Z</time>
      </trkpt>
      <trkpt lat="46.34854" lon="-1.2477">
        <ele>3</ele>
        <time>2020-06-02T15:55:55Z</time>
      </trkpt>
      <trkpt lat="46.34853" lon="-1.2477">
        <ele>3</ele>
        <time>2020-06-02T15:55:56Z</time>
      </trkpt>
      <trkpt lat="46.34853" lon="-1.24769">
        <ele>3</ele>
        <time>2020-06-02T15:55:57Z</time>
      </trkpt>
      <trkpt lat="46.34852" lon="-1.24768">
        <ele>3</ele>
        <time>2020-06-02T15:55:58Z</time>
      </trkpt>
      <trkpt lat="46.34852" lon="-1.24769">
        <ele>3</ele>
        <time>2020-06-02T15:55:59Z</time>
      </trkpt>
      <trkpt lat="46.34852" lon="-1.24769">
        <ele>3</ele>
        <time>2020-06-02T15:56:00Z</time>
      </trkpt>
      <trkpt lat="46.34852" lon="-1.2477">
        <ele>3</ele>
        <time>2020-06-02T15:56:01Z</time>
      </trkpt>
      <trkpt lat="46.34852" lon="-1.2477">
        <ele>3</ele>
        <time>2020-06-02T15:56:02Z</time>
      </trkpt>
      <trkpt lat="46.34851" lon="-1.24771">
        <ele>3</ele>
        <time>2020-06-02T15:56:03Z</time>
      </trkpt>
      <trkpt lat="46.34852" lon="-1.24772">
        <ele>3</ele>
        <time>2020-06-02T15:56:04Z</time>
      </trkpt>
      <trkpt lat="46.34851" lon="-1.24771">
        <ele>3</ele>
        <time>2020-06-02T15:56:05Z</time>
      </trkpt>
      <trkpt lat="46.34851" lon="-1.24771">
        <ele>3</ele>
        <time>2020-06-02T15:56:06Z</time>
      </trkpt>
      <trkpt lat="46.34851" lon="-1.24771">
        <ele>3</ele>
        <time>2020-06-02T15:56:07Z</time>
      </trkpt>
      <trkpt lat="46.34851" lon="-1.24772">
        <ele>3</ele>
        <time>2020-06-02T15:56:08Z</time>
      </trkpt>
      <trkpt lat="46.34851" lon="-1.24772">
        <ele>3</ele>
        <time>2020-06-02T15:56:09Z</time>
      </trkpt>
      <trkpt lat="46.34851" lon="-1.24772">
        <ele>3</ele>
        <time>2020-06-02T15:56:10Z</time>
      </trkpt>
      <trkpt lat="46.3485" lon="-1.24772">
        <ele>3</ele>
        <time>2020-06-02T15:56:11Z</time>
      </trkpt>
      <trkpt lat="46.3485" lon="-1.24772">
        <ele>3</ele>
        <time>2020-06-02T15:56:12Z</time>
      </trkpt>
      <trkpt lat="46.3485" lon="-1.24772">
        <ele>3</ele>
        <time>2020-06-02T15:56:13Z</time>
      </trkpt>
      <trkpt lat="46.3485" lon="-1.24771">
        <ele>3</ele>
        <time>2020-06-02T15:56:14Z</time>
      </trkpt>
      <trkpt lat="46.34849" lon="-1.24771">
        <ele>3</ele>
        <time>2020-06-02T15:56:15Z</time>
      </trkpt>
      <trkpt lat="46.34849" lon="-1.2477">
        <ele>3</ele>
        <time>2020-06-02T15:56:16Z</time>
      </trkpt>
      <trkpt lat="46.34849" lon="-1.2477">
        <ele>3</ele>
        <time>2020-06-02T15:56:17Z</time>
      </trkpt>
      <trkpt lat="46.34849" lon="-1.24772">
        <ele>3.1</ele>
        <time>2020-06-02T15:56:18Z</time>
      </trkpt>
      <trkpt lat="46.34848" lon="-1.24772">
        <ele>3.1</ele>
        <time>2020-06-02T15:56:19Z</time>
      </trkpt>
      <trkpt lat="46.34849" lon="-1.24773">
        <ele>3.1</ele>
        <time>2020-06-02T15:56:20Z</time>
      </trkpt>
      <trkpt lat="46.34849" lon="-1.24774">
        <ele>3.1</ele>
        <time>2020-06-02T15:56:21Z</time>
      </trkpt>
      <trkpt lat="46.34849" lon="-1.24773">
        <ele>3.1</ele>
        <time>2020-06-02T15:56:22Z</time>
      </trkpt>
      <trkpt lat="46.34848" lon="-1.24772">
        <ele>3.1</ele>
        <time>2020-06-02T15:56:23Z</time>
      </trkpt>
      <trkpt lat="46.34848" lon="-1.24772">
        <ele>3.1</ele>
        <time>2020-06-02T15:56:24Z</time>
      </trkpt>
      <trkpt lat="46.34848" lon="-1.24772">
        <ele>3.1</ele>
        <time>2020-06-02T15:56:25Z</time>
      </trkpt>
      <trkpt lat="46.34847" lon="-1.24771">
        <ele>3.1</ele>
        <time>2020-06-02T15:56:26Z</time>
      </trkpt>
      <trkpt lat="46.34848" lon="-1.24772">
        <ele>3.1</ele>
        <time>2020-06-02T15:56:27Z</time>
      </trkpt>
      <trkpt lat="46.34848" lon="-1.24773">
        <ele>3.1</ele>
        <time>2020-06-02T15:56:28Z</time>
      </trkpt>
      <trkpt lat="46.34848" lon="-1.24774">
        <ele>3.1</ele>
        <time>2020-06-02T15:56:29Z</time>
      </trkpt>
      <trkpt lat="46.34848" lon="-1.24775">
        <ele>3.1</ele>
        <time>2020-06-02T15:56:30Z</time>
      </trkpt>
      <trkpt lat="46.34848" lon="-1.24774">
        <ele>3.1</ele>
        <time>2020-06-02T15:56:31Z</time>
      </trkpt>
      <trkpt lat="46.34848" lon="-1.24774">
        <ele>3.1</ele>
        <time>2020-06-02T15:56:32Z</time>
      </trkpt>
      <trkpt lat="46.34847" lon="-1.24773">
        <ele>3.1</ele>
        <time>2020-06-02T15:56:33Z</time>
      </trkpt>
      <trkpt lat="46.34847" lon="-1.24773">
        <ele>3.1</ele>
        <time>2020-06-02T15:56:34Z</time>
      </trkpt>
      <trkpt lat="46.34846" lon="-1.24773">
        <ele>3.1</ele>
        <time>2020-06-02T15:56:35Z</time>
      </trkpt>
      <trkpt lat="46.34846" lon="-1.24773">
        <ele>3.1</ele>
        <time>2020-06-02T15:56:36Z</time>
      </trkpt>
      <trkpt lat="46.34846" lon="-1.24772">
        <ele>3.1</ele>
        <time>2020-06-02T15:56:37Z</time>
      </trkpt>
      <trkpt lat="46.34845" lon="-1.24773">
        <ele>3.1</ele>
        <time>2020-06-02T15:56:38Z</time>
      </trkpt>
      <trkpt lat="46.34845" lon="-1.24773">
        <ele>3.1</ele>
        <time>2020-06-02T15:56:39Z</time>
      </trkpt>
      <trkpt lat="46.34845" lon="-1.24773">
        <ele>3.1</ele>
        <time>2020-06-02T15:56:40Z</time>
      </trkpt>
      <trkpt lat="46.34845" lon="-1.24774">
        <ele>3.1</ele>
        <time>2020-06-02T15:56:41Z</time>
      </trkpt>
      <trkpt lat="46.34845" lon="-1.24775">
        <ele>3.1</ele>
        <time>2020-06-02T15:56:42Z</time>
      </trkpt>
      <trkpt lat="46.34845" lon="-1.24775">
        <ele>3.1</ele>
        <time>2020-06-02T15:56:43Z</time>
      </trkpt>
      <trkpt lat="46.34845" lon="-1.24776">
        <ele>3.1</ele>
        <time>2020-06-02T15:56:44Z</time>
      </trkpt>
      <trkpt lat="46.34844" lon="-1.24776">
        <ele>3.1</ele>
        <time>2020-06-02T15:56:45Z</time>
      </trkpt>
      <trkpt lat="46.34844" lon="-1.24776">
        <ele>3.1</ele>
        <time>2020-06-02T15:56:46Z</time>
      </trkpt>
      <trkpt lat="46.34843" lon="-1.24775">
        <ele>3.1</ele>
        <time>2020-06-02T15:56:47Z</time>
      </trkpt>
      <trkpt lat="46.34842" lon="-1.24775">
        <ele>3.1</ele>
        <time>2020-06-02T15:56:48Z</time>
      </trkpt>
      <trkpt lat="46.34842" lon="-1.24774">
        <ele>3.1</ele>
        <time>2020-06-02T15:56:49Z</time>
      </trkpt>
      <trkpt lat="46.34842" lon="-1.24775">
        <ele>3.1</ele>
        <time>2020-06-02T15:56:50Z</time>
      </trkpt>
      <trkpt lat="46.34842" lon="-1.24774">
        <ele>3.1</ele>
        <time>2020-06-02T15:56:51Z</time>
      </trkpt>
      <trkpt lat="46.34842" lon="-1.24775">
        <ele>3.1</ele>
        <time>2020-06-02T15:56:52Z</time>
      </trkpt>
      <trkpt lat="46.34841" lon="-1.24773">
        <ele>3.2</ele>
        <time>2020-06-02T15:56:53Z</time>
      </trkpt>
      <trkpt lat="46.34841" lon="-1.24773">
        <ele>3.2</ele>
        <time>2020-06-02T15:56:54Z</time>
      </trkpt>
      <trkpt lat="46.3484" lon="-1.24773">
        <ele>3.2</ele>
        <time>2020-06-02T15:56:55Z</time>
      </trkpt>
      <trkpt lat="46.3484" lon="-1.24773">
        <ele>3.2</ele>
        <time>2020-06-02T15:56:56Z</time>
      </trkpt>
      <trkpt lat="46.34841" lon="-1.24773">
        <ele>3.2</ele>
        <time>2020-06-02T15:56:57Z</time>
      </trkpt>
      <trkpt lat="46.34841" lon="-1.24774">
        <ele>3.2</ele>
        <time>2020-06-02T15:56:58Z</time>
      </trkpt>
      <trkpt lat="46.34841" lon="-1.24773">
        <ele>3.2</ele>
        <time>2020-06-02T15:56:59Z</time>
      </trkpt>
      <trkpt lat="46.34841" lon="-1.24774">
        <ele>3.2</ele>
        <time>2020-06-02T15:57:00Z</time>
      </trkpt>
      <trkpt lat="46.34841" lon="-1.24775">
        <ele>3.2</ele>
        <time>2020-06-02T15:57:01Z</time>
      </trkpt>
      <trkpt lat="46.34841" lon="-1.24775">
        <ele>3.2</ele>
        <time>2020-06-02T15:57:02Z</time>
      </trkpt>
      <trkpt lat="46.34841" lon="-1.24777">
        <ele>3.2</ele>
        <time>2020-06-02T15:57:03Z</time>
      </trkpt>
      <trkpt lat="46.3484" lon="-1.24778">
        <ele>3.2</ele>
        <time>2020-06-02T15:57:04Z</time>
      </trkpt>
      <trkpt lat="46.3484" lon="-1.2478">
        <ele>3.2</ele>
        <time>2020-06-02T15:57:05Z</time>
      </trkpt>
      <trkpt lat="46.34841" lon="-1.24782">
        <ele>3.2</ele>
        <time>2020-06-02T15:57:06Z</time>
      </trkpt>
      <trkpt lat="46.34843" lon="-1.24784">
        <ele>3.2</ele>
        <time>2020-06-02T15:57:07Z</time>
      </trkpt>
      <trkpt lat="46.34844" lon="-1.24783">
        <ele>3.2</ele>
        <time>2020-06-02T15:57:08Z</time>
      </trkpt>
      <trkpt lat="46.34845" lon="-1.24783">
        <ele>3.2</ele>
        <time>2020-06-02T15:57:09Z</time>
      </trkpt>
      <trkpt lat="46.34846" lon="-1.24782">
        <ele>3.2</ele>
        <time>2020-06-02T15:57:10Z</time>
      </trkpt>
      <trkpt lat="46.34847" lon="-1.24783">
        <ele>3.2</ele>
        <time>2020-06-02T15:57:11Z</time>
      </trkpt>
      <trkpt lat="46.3485" lon="-1.24783">
        <ele>3.3</ele>
        <time>2020-06-02T15:57:12Z</time>
      </trkpt>
      <trkpt lat="46.34851" lon="-1.24783">
        <ele>3.3</ele>
        <time>2020-06-02T15:57:13Z</time>
      </trkpt>
      <trkpt lat="46.34854" lon="-1.24784">
        <ele>3.3</ele>
        <time>2020-06-02T15:57:14Z</time>
      </trkpt>
      <trkpt lat="46.34855" lon="-1.24784">
        <ele>3.3</ele>
        <time>2020-06-02T15:57:15Z</time>
      </trkpt>
      <trkpt lat="46.34857" lon="-1.24785">
        <ele>3.3</ele>
        <time>2020-06-02T15:57:16Z</time>
      </trkpt>
      <trkpt lat="46.34858" lon="-1.24785">
        <ele>3.3</ele>
        <time>2020-06-02T15:57:17Z</time>
      </trkpt>
      <trkpt lat="46.34862" lon="-1.24784">
        <ele>3.3</ele>
        <time>2020-06-02T15:57:18Z</time>
      </trkpt>
      <trkpt lat="46.34863" lon="-1.24784">
        <ele>3.3</ele>
        <time>2020-06-02T15:57:19Z</time>
      </trkpt>
      <trkpt lat="46.34867" lon="-1.24783">
        <ele>3.4</ele>
        <time>2020-06-02T15:57:20Z</time>
      </trkpt>
      <trkpt lat="46.34868" lon="-1.24784">
        <ele>3.4</ele>
        <time>2020-06-02T15:57:21Z</time>
      </trkpt>
      <trkpt lat="46.34871" lon="-1.24784">
        <ele>3.4</ele>
        <time>2020-06-02T15:57:22Z</time>
      </trkpt>
      <trkpt lat="46.34874" lon="-1.24783">
        <ele>3.4</ele>
        <time>2020-06-02T15:57:23Z</time>
      </trkpt>
      <trkpt lat="46.34876" lon="-1.24783">
        <ele>3.4</ele>
        <time>2020-06-02T15:57:24Z</time>
      </trkpt>
      <trkpt lat="46.3488" lon="-1.24784">
        <ele>3.4</ele>
        <time>2020-06-02T15:57:25Z</time>
      </trkpt>
      <trkpt lat="46.34881" lon="-1.24785">
        <ele>3.4</ele>
        <time>2020-06-02T15:57:26Z</time>
      </trkpt>
      <trkpt lat="46.34884" lon="-1.24784">
        <ele>3.4</ele>
        <time>2020-06-02T15:57:27Z</time>
      </trkpt>
      <trkpt lat="46.34885" lon="-1.24784">
        <ele>3.4</ele>
        <time>2020-06-02T15:57:28Z</time>
      </trkpt>
      <trkpt lat="46.34889" lon="-1.24785">
        <ele>3.4</ele>
        <time>2020-06-02T15:57:29Z</time>
      </trkpt>
      <trkpt lat="46.3489" lon="-1.24785">
        <ele>3.4</ele>
        <time>2020-06-02T15:57:30Z</time>
      </trkpt>
      <trkpt lat="46.34894" lon="-1.24785">
        <ele>3.4</ele>
        <time>2020-06-02T15:57:31Z</time>
      </trkpt>
      <trkpt lat="46.34895" lon="-1.24785">
        <ele>3.4</ele>
        <time>2020-06-02T15:57:32Z</time>
      </trkpt>
      <trkpt lat="46.34898" lon="-1.24783">
        <ele>3.4</ele>
        <time>2020-06-02T15:57:33Z</time>
      </trkpt>
      <trkpt lat="46.34899" lon="-1.24783">
        <ele>3.4</ele>
        <time>2020-06-02T15:57:34Z</time>
      </trkpt>
      <trkpt lat="46.34902" lon="-1.24781">
        <ele>3.4</ele>
        <time>2020-06-02T15:57:35Z</time>
      </trkpt>
      <trkpt lat="46.34903" lon="-1.2478">
        <ele>3.4</ele>
        <time>2020-06-02T15:57:36Z</time>
      </trkpt>
      <trkpt lat="46.34905" lon="-1.2478">
        <ele>3.4</ele>
        <time>2020-06-02T15:57:37Z</time>
      </trkpt>
      <trkpt lat="46.34906" lon="-1.24781">
        <ele>3.4</ele>
        <time>2020-06-02T15:57:38Z</time>
      </trkpt>
      <trkpt lat="46.34908" lon="-1.24781">
        <ele>3.4</ele>
        <time>2020-06-02T15:57:39Z</time>
      </trkpt>
      <trkpt lat="46.34909" lon="-1.24782">
        <ele>3.4</ele>
        <time>2020-06-02T15:57:40Z</time>
      </trkpt>
      <trkpt lat="46.34912" lon="-1.24785">
        <ele>3.4</ele>
        <time>2020-06-02T15:57:41Z</time>
      </trkpt>
      <trkpt lat="46.34914" lon="-1.24785">
        <ele>3.4</ele>
        <time>2020-06-02T15:57:42Z</time>
      </trkpt>
      <trkpt lat="46.34917" lon="-1.24784">
        <ele>3.4</ele>
        <time>2020-06-02T15:57:43Z</time>
      </trkpt>
      <trkpt lat="46.34918" lon="-1.24783">
        <ele>3.5</ele>
        <time>2020-06-02T15:57:44Z</time>
      </trkpt>
      <trkpt lat="46.34922" lon="-1.24784">
        <ele>3.5</ele>
        <time>2020-06-02T15:57:45Z</time>
      </trkpt>
      <trkpt lat="46.34924" lon="-1.24784">
        <ele>3.5</ele>
        <time>2020-06-02T15:57:46Z</time>
      </trkpt>
      <trkpt lat="46.34927" lon="-1.24784">
        <ele>3.5</ele>
        <time>2020-06-02T15:57:47Z</time>
      </trkpt>
      <trkpt lat="46.3493" lon="-1.24784">
        <ele>3.5</ele>
        <time>2020-06-02T15:57:48Z</time>
      </trkpt>
      <trkpt lat="46.34933" lon="-1.24782">
        <ele>3.5</ele>
        <time>2020-06-02T15:57:49Z</time>
      </trkpt>
      <trkpt lat="46.34937" lon="-1.24783">
        <ele>3.5</ele>
        <time>2020-06-02T15:57:50Z</time>
      </trkpt>
      <trkpt lat="46.34938" lon="-1.24783">
        <ele>3.5</ele>
        <time>2020-06-02T15:57:51Z</time>
      </trkpt>
      <trkpt lat="46.34942" lon="-1.24783">
        <ele>3.5</ele>
        <time>2020-06-02T15:57:52Z</time>
      </trkpt>
      <trkpt lat="46.34943" lon="-1.24783">
        <ele>3.5</ele>
        <time>2020-06-02T15:57:53Z</time>
      </trkpt>
      <trkpt lat="46.34946" lon="-1.24783">
        <ele>3.5</ele>
        <time>2020-06-02T15:57:54Z</time>
      </trkpt>
      <trkpt lat="46.34948" lon="-1.24783">
        <ele>3.5</ele>
        <time>2020-06-02T15:57:55Z</time>
      </trkpt>
      <trkpt lat="46.3495" lon="-1.24781">
        <ele>3.5</ele>
        <time>2020-06-02T15:57:56Z</time>
      </trkpt>
      <trkpt lat="46.34954" lon="-1.2478">
        <ele>3.5</ele>
        <time>2020-06-02T15:57:57Z</time>
      </trkpt>
      <trkpt lat="46.34955" lon="-1.24781">
        <ele>3.5</ele>
        <time>2020-06-02T15:57:58Z</time>
      </trkpt>
      <trkpt lat="46.34958" lon="-1.24783">
        <ele>3.5</ele>
        <time>2020-06-02T15:57:59Z</time>
      </trkpt>
      <trkpt lat="46.3496" lon="-1.24784">
        <ele>3.5</ele>
        <time>2020-06-02T15:58:00Z</time>
      </trkpt>
      <trkpt lat="46.34963" lon="-1.24782">
        <ele>3.5</ele>
        <time>2020-06-02T15:58:01Z</time>
      </trkpt>
      <trkpt lat="46.34965" lon="-1.24782">
        <ele>3.5</ele>
        <time>2020-06-02T15:58:02Z</time>
      </trkpt>
      <trkpt lat="46.34968" lon="-1.24782">
        <ele>3.6</ele>
        <time>2020-06-02T15:58:03Z</time>
      </trkpt>
      <trkpt lat="46.34969" lon="-1.24782">
        <ele>3.6</ele>
        <time>2020-06-02T15:58:04Z</time>
      </trkpt>
      <trkpt lat="46.34972" lon="-1.24782">
        <ele>3.6</ele>
        <time>2020-06-02T15:58:05Z</time>
      </trkpt>
      <trkpt lat="46.34973" lon="-1.24781">
        <ele>3.6</ele>
        <time>2020-06-02T15:58:06Z</time>
      </trkpt>
      <trkpt lat="46.34976" lon="-1.2478">
        <ele>3.6</ele>
        <time>2020-06-02T15:58:07Z</time>
      </trkpt>
      <trkpt lat="46.34977" lon="-1.2478">
        <ele>3.6</ele>
        <time>2020-06-02T15:58:08Z</time>
      </trkpt>
      <trkpt lat="46.3498" lon="-1.2478">
        <ele>3.6</ele>
        <time>2020-06-02T15:58:09Z</time>
      </trkpt>
      <trkpt lat="46.3498" lon="-1.24782">
        <ele>3.6</ele>
        <time>2020-06-02T15:58:10Z</time>
      </trkpt>
      <trkpt lat="46.34982" lon="-1.24782">
        <ele>3.6</ele>
        <time>2020-06-02T15:58:11Z</time>
      </trkpt>
      <trkpt lat="46.34983" lon="-1.24782">
        <ele>3.6</ele>
        <time>2020-06-02T15:58:12Z</time>
      </trkpt>
      <trkpt lat="46.34985" lon="-1.24782">
        <ele>3.6</ele>
        <time>2020-06-02T15:58:13Z</time>
      </trkpt>
      <trkpt lat="46.34987" lon="-1.24782">
        <ele>3.6</ele>
        <time>2020-06-02T15:58:14Z</time>
      </trkpt>
      <trkpt lat="46.3499" lon="-1.24782">
        <ele>3.6</ele>
        <time>2020-06-02T15:58:15Z</time>
      </trkpt>
      <trkpt lat="46.3499" lon="-1.24782">
        <ele>3.6</ele>
        <time>2020-06-02T15:58:16Z</time>
      </trkpt>
      <trkpt lat="46.34993" lon="-1.24781">
        <ele>3.6</ele>
        <time>2020-06-02T15:58:17Z</time>
      </trkpt>
      <trkpt lat="46.34995" lon="-1.24781">
        <ele>3.6</ele>
        <time>2020-06-02T15:58:18Z</time>
      </trkpt>
      <trkpt lat="46.34997" lon="-1.2478">
        <ele>3.6</ele>
        <time>2020-06-02T15:58:19Z</time>
      </trkpt>
      <trkpt lat="46.34998" lon="-1.2478">
        <ele>3.6</ele>
        <time>2020-06-02T15:58:20Z</time>
      </trkpt>
      <trkpt lat="46.35" lon="-1.24781">
        <ele>3.6</ele>
        <time>2020-06-02T15:58:21Z</time>
      </trkpt>
      <trkpt lat="46.35002" lon="-1.24779">
        <ele>3.6</ele>
        <time>2020-06-02T15:58:22Z</time>
      </trkpt>
      <trkpt lat="46.35005" lon="-1.24778">
        <ele>3.6</ele>
        <time>2020-06-02T15:58:23Z</time>
      </trkpt>
      <trkpt lat="46.35006" lon="-1.24778">
        <ele>3.6</ele>
        <time>2020-06-02T15:58:24Z</time>
      </trkpt>
      <trkpt lat="46.35009" lon="-1.24778">
        <ele>3.6</ele>
        <time>2020-06-02T15:58:25Z</time>
      </trkpt>
      <trkpt lat="46.3501" lon="-1.24778">
        <ele>3.6</ele>
        <time>2020-06-02T15:58:26Z</time>
      </trkpt>
      <trkpt lat="46.35011" lon="-1.24778">
        <ele>3.6</ele>
        <time>2020-06-02T15:58:27Z</time>
      </trkpt>
      <trkpt lat="46.35012" lon="-1.2478">
        <ele>3.6</ele>
        <time>2020-06-02T15:58:28Z</time>
      </trkpt>
      <trkpt lat="46.35012" lon="-1.24781">
        <ele>3.6</ele>
        <time>2020-06-02T15:58:29Z</time>
      </trkpt>
      <trkpt lat="46.35013" lon="-1.24781">
        <ele>3.6</ele>
        <time>2020-06-02T15:58:30Z</time>
      </trkpt>
      <trkpt lat="46.35013" lon="-1.24781">
        <ele>3.6</ele>
        <time>2020-06-02T15:58:31Z</time>
      </trkpt>
      <trkpt lat="46.35012" lon="-1.24782">
        <ele>3.6</ele>
        <time>2020-06-02T15:58:32Z</time>
      </trkpt>
      <trkpt lat="46.35012" lon="-1.24783">
        <ele>3.6</ele>
        <time>2020-06-02T15:58:33Z</time>
      </trkpt>
      <trkpt lat="46.35012" lon="-1.24783">
        <ele>3.6</ele>
        <time>2020-06-02T15:58:34Z</time>
      </trkpt>
      <trkpt lat="46.35012" lon="-1.24782">
        <ele>3.6</ele>
        <time>2020-06-02T15:58:35Z</time>
      </trkpt>
      <trkpt lat="46.35013" lon="-1.24784">
        <ele>3.6</ele>
        <time>2020-06-02T15:58:36Z</time>
      </trkpt>
      <trkpt lat="46.35016" lon="-1.24783">
        <ele>3.7</ele>
        <time>2020-06-02T15:58:37Z</time>
      </trkpt>
      <trkpt lat="46.35017" lon="-1.24782">
        <ele>3.7</ele>
        <time>2020-06-02T15:58:38Z</time>
      </trkpt>
      <trkpt lat="46.3502" lon="-1.24779">
        <ele>3.7</ele>
        <time>2020-06-02T15:58:39Z</time>
      </trkpt>
      <trkpt lat="46.3502" lon="-1.24778">
        <ele>3.7</ele>
        <time>2020-06-02T15:58:40Z</time>
      </trkpt>
      <trkpt lat="46.35024" lon="-1.24777">
        <ele>3.7</ele>
        <time>2020-06-02T15:58:41Z</time>
      </trkpt>
      <trkpt lat="46.35026" lon="-1.24777">
        <ele>3.7</ele>
        <time>2020-06-02T15:58:42Z</time>
      </trkpt>
      <trkpt lat="46.3503" lon="-1.24778">
        <ele>3.7</ele>
        <time>2020-06-02T15:58:43Z</time>
      </trkpt>
      <trkpt lat="46.35031" lon="-1.24778">
        <ele>3.7</ele>
        <time>2020-06-02T15:58:44Z</time>
      </trkpt>
      <trkpt lat="46.35034" lon="-1.24778">
        <ele>3.7</ele>
        <time>2020-06-02T15:58:45Z</time>
      </trkpt>
      <trkpt lat="46.35037" lon="-1.24779">
        <ele>3.7</ele>
        <time>2020-06-02T15:58:46Z</time>
      </trkpt>
      <trkpt lat="46.35041" lon="-1.24777">
        <ele>3.7</ele>
        <time>2020-06-02T15:58:47Z</time>
      </trkpt>
      <trkpt lat="46.35044" lon="-1.24776">
        <ele>3.7</ele>
        <time>2020-06-02T15:58:48Z</time>
      </trkpt>
      <trkpt lat="46.35048" lon="-1.24777">
        <ele>3.7</ele>
        <time>2020-06-02T15:58:49Z</time>
      </trkpt>
      <trkpt lat="46.35051" lon="-1.24776">
        <ele>3.7</ele>
        <time>2020-06-02T15:58:50Z</time>
      </trkpt>
      <trkpt lat="46.35054" lon="-1.24776">
        <ele>3.7</ele>
        <time>2020-06-02T15:58:51Z</time>
      </trkpt>
      <trkpt lat="46.35058" lon="-1.24776">
        <ele>3.7</ele>
        <time>2020-06-02T15:58:52Z</time>
      </trkpt>
      <trkpt lat="46.35062" lon="-1.24775">
        <ele>3.7</ele>
        <time>2020-06-02T15:58:53Z</time>
      </trkpt>
      <trkpt lat="46.35064" lon="-1.24775">
        <ele>3.7</ele>
        <time>2020-06-02T15:58:54Z</time>
      </trkpt>
      <trkpt lat="46.35068" lon="-1.24775">
        <ele>3.7</ele>
        <time>2020-06-02T15:58:55Z</time>
      </trkpt>
      <trkpt lat="46.35071" lon="-1.24776">
        <ele>3.7</ele>
        <time>2020-06-02T15:58:56Z</time>
      </trkpt>
      <trkpt lat="46.35076" lon="-1.24775">
        <ele>3.7</ele>
        <time>2020-06-02T15:58:57Z</time>
      </trkpt>
      <trkpt lat="46.35077" lon="-1.24776">
        <ele>3.8</ele>
        <time>2020-06-02T15:58:58Z</time>
      </trkpt>
      <trkpt lat="46.35081" lon="-1.24776">
        <ele>3.8</ele>
        <time>2020-06-02T15:58:59Z</time>
      </trkpt>
      <trkpt lat="46.35085" lon="-1.24777">
        <ele>3.8</ele>
        <time>2020-06-02T15:59:00Z</time>
      </trkpt>
      <trkpt lat="46.35086" lon="-1.24777">
        <ele>3.8</ele>
        <time>2020-06-02T15:59:01Z</time>
      </trkpt>
      <trkpt lat="46.3509" lon="-1.24778">
        <ele>3.8</ele>
        <time>2020-06-02T15:59:02Z</time>
      </trkpt>
      <trkpt lat="46.35091" lon="-1.24778">
        <ele>3.8</ele>
        <time>2020-06-02T15:59:03Z</time>
      </trkpt>
      <trkpt lat="46.35096" lon="-1.24776">
        <ele>3.8</ele>
        <time>2020-06-02T15:59:04Z</time>
      </trkpt>
      <trkpt lat="46.35097" lon="-1.24775">
        <ele>3.8</ele>
        <time>2020-06-02T15:59:05Z</time>
      </trkpt>
      <trkpt lat="46.351" lon="-1.24772">
        <ele>3.8</ele>
        <time>2020-06-02T15:59:06Z</time>
      </trkpt>
      <trkpt lat="46.35101" lon="-1.24771">
        <ele>3.8</ele>
        <time>2020-06-02T15:59:07Z</time>
      </trkpt>
      <trkpt lat="46.35103" lon="-1.24773">
        <ele>3.8</ele>
        <time>2020-06-02T15:59:08Z</time>
      </trkpt>
      <trkpt lat="46.35104" lon="-1.24775">
        <ele>3.8</ele>
        <time>2020-06-02T15:59:09Z</time>
      </trkpt>
      <trkpt lat="46.35103" lon="-1.24776">
        <ele>3.8</ele>
        <time>2020-06-02T15:59:10Z</time>
      </trkpt>
      <trkpt lat="46.35101" lon="-1.24778">
        <ele>3.8</ele>
        <time>2020-06-02T15:59:11Z</time>
      </trkpt>
      <trkpt lat="46.35098" lon="-1.24783">
        <ele>3.8</ele>
        <time>2020-06-02T15:59:12Z</time>
      </trkpt>
      <trkpt lat="46.35097" lon="-1.24786">
        <ele>3.8</ele>
        <time>2020-06-02T15:59:13Z</time>
      </trkpt>
      <trkpt lat="46.35094" lon="-1.24792">
        <ele>3.8</ele>
        <time>2020-06-02T15:59:14Z</time>
      </trkpt>
      <trkpt lat="46.3509" lon="-1.24799">
        <ele>3.8</ele>
        <time>2020-06-02T15:59:15Z</time>
      </trkpt>
      <trkpt lat="46.35087" lon="-1.24804">
        <ele>3.8</ele>
        <time>2020-06-02T15:59:16Z</time>
      </trkpt>
      <trkpt lat="46.35084" lon="-1.2481">
        <ele>3.8</ele>
        <time>2020-06-02T15:59:17Z</time>
      </trkpt>
      <trkpt lat="46.35081" lon="-1.24815">
        <ele>3.8</ele>
        <time>2020-06-02T15:59:18Z</time>
      </trkpt>
      <trkpt lat="46.35078" lon="-1.2482">
        <ele>3.8</ele>
        <time>2020-06-02T15:59:19Z</time>
      </trkpt>
      <trkpt lat="46.35075" lon="-1.24825">
        <ele>3.8</ele>
        <time>2020-06-02T15:59:20Z</time>
      </trkpt>
      <trkpt lat="46.35071" lon="-1.24832">
        <ele>3.9</ele>
        <time>2020-06-02T15:59:21Z</time>
      </trkpt>
      <trkpt lat="46.35067" lon="-1.24839">
        <ele>3.9</ele>
        <time>2020-06-02T15:59:22Z</time>
      </trkpt>
      <trkpt lat="46.35064" lon="-1.24844">
        <ele>4</ele>
        <time>2020-06-02T15:59:23Z</time>
      </trkpt>
      <trkpt lat="46.35061" lon="-1.24848">
        <ele>4</ele>
        <time>2020-06-02T15:59:24Z</time>
      </trkpt>
      <trkpt lat="46.35059" lon="-1.24854">
        <ele>4</ele>
        <time>2020-06-02T15:59:25Z</time>
      </trkpt>
      <trkpt lat="46.35056" lon="-1.2486">
        <ele>4.1</ele>
        <time>2020-06-02T15:59:26Z</time>
      </trkpt>
      <trkpt lat="46.35053" lon="-1.24866">
        <ele>4.1</ele>
        <time>2020-06-02T15:59:27Z</time>
      </trkpt>
      <trkpt lat="46.35051" lon="-1.24871">
        <ele>4.2</ele>
        <time>2020-06-02T15:59:28Z</time>
      </trkpt>
      <trkpt lat="46.35048" lon="-1.24875">
        <ele>4.2</ele>
        <time>2020-06-02T15:59:29Z</time>
      </trkpt>
      <trkpt lat="46.35045" lon="-1.2488">
        <ele>4.3</ele>
        <time>2020-06-02T15:59:30Z</time>
      </trkpt>
      <trkpt lat="46.35042" lon="-1.24886">
        <ele>4.3</ele>
        <time>2020-06-02T15:59:31Z</time>
      </trkpt>
      <trkpt lat="46.35037" lon="-1.24892">
        <ele>4.3</ele>
        <time>2020-06-02T15:59:32Z</time>
      </trkpt>
      <trkpt lat="46.35034" lon="-1.24895">
        <ele>4.3</ele>
        <time>2020-06-02T15:59:33Z</time>
      </trkpt>
      <trkpt lat="46.35031" lon="-1.249">
        <ele>4.3</ele>
        <time>2020-06-02T15:59:34Z</time>
      </trkpt>
      <trkpt lat="46.35028" lon="-1.24907">
        <ele>4.3</ele>
        <time>2020-06-02T15:59:35Z</time>
      </trkpt>
      <trkpt lat="46.35024" lon="-1.24913">
        <ele>4.3</ele>
        <time>2020-06-02T15:59:36Z</time>
      </trkpt>
      <trkpt lat="46.35021" lon="-1.24919">
        <ele>4.2</ele>
        <time>2020-06-02T15:59:37Z</time>
      </trkpt>
      <trkpt lat="46.35019" lon="-1.24924">
        <ele>4.2</ele>
        <time>2020-06-02T15:59:38Z</time>
      </trkpt>
      <trkpt lat="46.35016" lon="-1.24929">
        <ele>4.2</ele>
        <time>2020-06-02T15:59:39Z</time>
      </trkpt>
      <trkpt lat="46.35013" lon="-1.24938">
        <ele>4.1</ele>
        <time>2020-06-02T15:59:40Z</time>
      </trkpt>
      <trkpt lat="46.35011" lon="-1.24943">
        <ele>4.1</ele>
        <time>2020-06-02T15:59:41Z</time>
      </trkpt>
      <trkpt lat="46.35008" lon="-1.24948">
        <ele>4.1</ele>
        <time>2020-06-02T15:59:42Z</time>
      </trkpt>
      <trkpt lat="46.35005" lon="-1.24953">
        <ele>4</ele>
        <time>2020-06-02T15:59:43Z</time>
      </trkpt>
      <trkpt lat="46.35003" lon="-1.24958">
        <ele>4</ele>
        <time>2020-06-02T15:59:44Z</time>
      </trkpt>
      <trkpt lat="46.35" lon="-1.24964">
        <ele>3.9</ele>
        <time>2020-06-02T15:59:45Z</time>
      </trkpt>
      <trkpt lat="46.34997" lon="-1.2497">
        <ele>3.9</ele>
        <time>2020-06-02T15:59:46Z</time>
      </trkpt>
      <trkpt lat="46.34993" lon="-1.24976">
        <ele>3.8</ele>
        <time>2020-06-02T15:59:47Z</time>
      </trkpt>
      <trkpt lat="46.3499" lon="-1.24981">
        <ele>3.8</ele>
        <time>2020-06-02T15:59:48Z</time>
      </trkpt>
      <trkpt lat="46.34987" lon="-1.24987">
        <ele>3.7</ele>
        <time>2020-06-02T15:59:49Z</time>
      </trkpt>
      <trkpt lat="46.34984" lon="-1.24992">
        <ele>3.7</ele>
        <time>2020-06-02T15:59:50Z</time>
      </trkpt>
      <trkpt lat="46.34981" lon="-1.24996">
        <ele>3.7</ele>
        <time>2020-06-02T15:59:51Z</time>
      </trkpt>
      <trkpt lat="46.34979" lon="-1.25002">
        <ele>3.6</ele>
        <time>2020-06-02T15:59:52Z</time>
      </trkpt>
      <trkpt lat="46.34976" lon="-1.25007">
        <ele>3.6</ele>
        <time>2020-06-02T15:59:53Z</time>
      </trkpt>
      <trkpt lat="46.34973" lon="-1.25011">
        <ele>3.6</ele>
        <time>2020-06-02T15:59:54Z</time>
      </trkpt>
      <trkpt lat="46.34971" lon="-1.25015">
        <ele>3.6</ele>
        <time>2020-06-02T15:59:55Z</time>
      </trkpt>
      <trkpt lat="46.34969" lon="-1.25018">
        <ele>3.5</ele>
        <time>2020-06-02T15:59:56Z</time>
      </trkpt>
      <trkpt lat="46.34966" lon="-1.25023">
        <ele>3.5</ele>
        <time>2020-06-02T15:59:57Z</time>
      </trkpt>
      <trkpt lat="46.34965" lon="-1.25025">
        <ele>3.5</ele>
        <time>2020-06-02T15:59:58Z</time>
      </trkpt>
      <trkpt lat="46.34964" lon="-1.2503">
        <ele>3.5</ele>
        <time>2020-06-02T15:59:59Z</time>
      </trkpt>
      <trkpt lat="46.34966" lon="-1.25035">
        <ele>3.5</ele>
        <time>2020-06-02T16:00:00Z</time>
      </trkpt>
      <trkpt lat="46.34968" lon="-1.25039">
        <ele>3.6</ele>
        <time>2020-06-02T16:00:01Z</time>
      </trkpt>
      <trkpt lat="46.34971" lon="-1.25041">
        <ele>3.6</ele>
        <time>2020-06-02T16:00:02Z</time>
      </trkpt>
      <trkpt lat="46.34975" lon="-1.25043">
        <ele>3.6</ele>
        <time>2020-06-02T16:00:03Z</time>
      </trkpt>
      <trkpt lat="46.34978" lon="-1.25046">
        <ele>3.6</ele>
        <time>2020-06-02T16:00:04Z</time>
      </trkpt>
      <trkpt lat="46.34982" lon="-1.2505">
        <ele>3.7</ele>
        <time>2020-06-02T16:00:05Z</time>
      </trkpt>
      <trkpt lat="46.34985" lon="-1.25053">
        <ele>3.7</ele>
        <time>2020-06-02T16:00:06Z</time>
      </trkpt>
      <trkpt lat="46.34989" lon="-1.25055">
        <ele>3.8</ele>
        <time>2020-06-02T16:00:07Z</time>
      </trkpt>
      <trkpt lat="46.34992" lon="-1.25058">
        <ele>3.8</ele>
        <time>2020-06-02T16:00:08Z</time>
      </trkpt>
      <trkpt lat="46.34995" lon="-1.2506">
        <ele>3.8</ele>
        <time>2020-06-02T16:00:09Z</time>
      </trkpt>
      <trkpt lat="46.34998" lon="-1.25063">
        <ele>3.9</ele>
        <time>2020-06-02T16:00:10Z</time>
      </trkpt>
      <trkpt lat="46.35002" lon="-1.25066">
        <ele>3.9</ele>
        <time>2020-06-02T16:00:11Z</time>
      </trkpt>
      <trkpt lat="46.35006" lon="-1.25069">
        <ele>4</ele>
        <time>2020-06-02T16:00:12Z</time>
      </trkpt>
      <trkpt lat="46.3501" lon="-1.25072">
        <ele>4</ele>
        <time>2020-06-02T16:00:13Z</time>
      </trkpt>
      <trkpt lat="46.35014" lon="-1.25076">
        <ele>4</ele>
        <time>2020-06-02T16:00:14Z</time>
      </trkpt>
      <trkpt lat="46.35018" lon="-1.2508">
        <ele>4.1</ele>
        <time>2020-06-02T16:00:15Z</time>
      </trkpt>
      <trkpt lat="46.3502" lon="-1.25084">
        <ele>4.1</ele>
        <time>2020-06-02T16:00:16Z</time>
      </trkpt>
      <trkpt lat="46.35023" lon="-1.25089">
        <ele>4.1</ele>
        <time>2020-06-02T16:00:17Z</time>
      </trkpt>
      <trkpt lat="46.35025" lon="-1.25092">
        <ele>4.1</ele>
        <time>2020-06-02T16:00:18Z</time>
      </trkpt>
      <trkpt lat="46.35027" lon="-1.25093">
        <ele>4.2</ele>
        <time>2020-06-02T16:00:19Z</time>
      </trkpt>
      <trkpt lat="46.35027" lon="-1.25095">
        <ele>4.2</ele>
        <time>2020-06-02T16:00:20Z</time>
      </trkpt>
      <trkpt lat="46.35028" lon="-1.25098">
        <ele>4.2</ele>
        <time>2020-06-02T16:00:21Z</time>
      </trkpt>
      <trkpt lat="46.35026" lon="-1.25103">
        <ele>4.2</ele>
        <time>2020-06-02T16:00:22Z</time>
      </trkpt>
      <trkpt lat="46.35025" lon="-1.25105">
        <ele>4.2</ele>
        <time>2020-06-02T16:00:23Z</time>
      </trkpt>
      <trkpt lat="46.35024" lon="-1.25108">
        <ele>4.2</ele>
        <time>2020-06-02T16:00:24Z</time>
      </trkpt>
      <trkpt lat="46.35022" lon="-1.25112">
        <ele>4.2</ele>
        <time>2020-06-02T16:00:25Z</time>
      </trkpt>
      <trkpt lat="46.35019" lon="-1.25116">
        <ele>4.2</ele>
        <time>2020-06-02T16:00:26Z</time>
      </trkpt>
      <trkpt lat="46.35016" lon="-1.25123">
        <ele>4.2</ele>
        <time>2020-06-02T16:00:27Z</time>
      </trkpt>
      <trkpt lat="46.35013" lon="-1.25129">
        <ele>4.2</ele>
        <time>2020-06-02T16:00:28Z</time>
      </trkpt>
      <trkpt lat="46.35011" lon="-1.25134">
        <ele>4.2</ele>
        <time>2020-06-02T16:00:29Z</time>
      </trkpt>
      <trkpt lat="46.35008" lon="-1.25139">
        <ele>4.2</ele>
        <time>2020-06-02T16:00:30Z</time>
      </trkpt>
      <trkpt lat="46.35007" lon="-1.25143">
        <ele>4.2</ele>
        <time>2020-06-02T16:00:31Z</time>
      </trkpt>
      <trkpt lat="46.35005" lon="-1.25148">
        <ele>4.2</ele>
        <time>2020-06-02T16:00:32Z</time>
      </trkpt>
      <trkpt lat="46.35003" lon="-1.25153">
        <ele>4.2</ele>
        <time>2020-06-02T16:00:33Z</time>
      </trkpt>
      <trkpt lat="46.35001" lon="-1.25159">
        <ele>4.2</ele>
        <time>2020-06-02T16:00:34Z</time>
      </trkpt>
      <trkpt lat="46.34999" lon="-1.25167">
        <ele>4.2</ele>
        <time>2020-06-02T16:00:35Z</time>
      </trkpt>
      <trkpt lat="46.34997" lon="-1.25172">
        <ele>4.3</ele>
        <time>2020-06-02T16:00:36Z</time>
      </trkpt>
      <trkpt lat="46.34995" lon="-1.25179">
        <ele>4.3</ele>
        <time>2020-06-02T16:00:37Z</time>
      </trkpt>
      <trkpt lat="46.34994" lon="-1.25186">
        <ele>4.3</ele>
        <time>2020-06-02T16:00:38Z</time>
      </trkpt>
      <trkpt lat="46.34994" lon="-1.25194">
        <ele>4.3</ele>
        <time>2020-06-02T16:00:39Z</time>
      </trkpt>
      <trkpt lat="46.34993" lon="-1.25203">
        <ele>4.3</ele>
        <time>2020-06-02T16:00:40Z</time>
      </trkpt>
      <trkpt lat="46.3499" lon="-1.25214">
        <ele>4.3</ele>
        <time>2020-06-02T16:00:41Z</time>
      </trkpt>
      <trkpt lat="46.34989" lon="-1.25223">
        <ele>4.3</ele>
        <time>2020-06-02T16:00:42Z</time>
      </trkpt>
      <trkpt lat="46.34988" lon="-1.25231">
        <ele>4.4</ele>
        <time>2020-06-02T16:00:43Z</time>
      </trkpt>
      <trkpt lat="46.34987" lon="-1.2524">
        <ele>4.4</ele>
        <time>2020-06-02T16:00:44Z</time>
      </trkpt>
      <trkpt lat="46.34986" lon="-1.25247">
        <ele>4.4</ele>
        <time>2020-06-02T16:00:45Z</time>
      </trkpt>
      <trkpt lat="46.34985" lon="-1.25253">
        <ele>4.4</ele>
        <time>2020-06-02T16:00:46Z</time>
      </trkpt>
      <trkpt lat="46.34983" lon="-1.25261">
        <ele>4.4</ele>
        <time>2020-06-02T16:00:47Z</time>
      </trkpt>
      <trkpt lat="46.34981" lon="-1.25268">
        <ele>4.3</ele>
        <time>2020-06-02T16:00:48Z</time>
      </trkpt>
      <trkpt lat="46.3498" lon="-1.25275">
        <ele>4.3</ele>
        <time>2020-06-02T16:00:49Z</time>
      </trkpt>
      <trkpt lat="46.34979" lon="-1.25282">
        <ele>4.2</ele>
        <time>2020-06-02T16:00:50Z</time>
      </trkpt>
      <trkpt lat="46.34977" lon="-1.25291">
        <ele>4.2</ele>
        <time>2020-06-02T16:00:51Z</time>
      </trkpt>
      <trkpt lat="46.34975" lon="-1.25299">
        <ele>4.1</ele>
        <time>2020-06-02T16:00:52Z</time>
      </trkpt>
      <trkpt lat="46.34974" lon="-1.25309">
        <ele>4</ele>
        <time>2020-06-02T16:00:53Z</time>
      </trkpt>
      <trkpt lat="46.34973" lon="-1.25317">
        <ele>4</ele>
        <time>2020-06-02T16:00:54Z</time>
      </trkpt>
      <trkpt lat="46.34972" lon="-1.25324">
        <ele>4</ele>
        <time>2020-06-02T16:00:55Z</time>
      </trkpt>
      <trkpt lat="46.34971" lon="-1.25332">
        <ele>3.9</ele>
        <time>2020-06-02T16:00:56Z</time>
      </trkpt>
      <trkpt lat="46.3497" lon="-1.25341">
        <ele>3.9</ele>
        <time>2020-06-02T16:00:57Z</time>
      </trkpt>
      <trkpt lat="46.34968" lon="-1.25349">
        <ele>3.9</ele>
        <time>2020-06-02T16:00:58Z</time>
      </trkpt>
      <trkpt lat="46.34967" lon="-1.25358">
        <ele>3.9</ele>
        <time>2020-06-02T16:00:59Z</time>
      </trkpt>
      <trkpt lat="46.34966" lon="-1.25366">
        <ele>3.8</ele>
        <time>2020-06-02T16:01:00Z</time>
      </trkpt>
      <trkpt lat="46.34964" lon="-1.25374">
        <ele>3.8</ele>
        <time>2020-06-02T16:01:01Z</time>
      </trkpt>
      <trkpt lat="46.34963" lon="-1.25382">
        <ele>3.8</ele>
        <time>2020-06-02T16:01:02Z</time>
      </trkpt>
      <trkpt lat="46.34962" lon="-1.25389">
        <ele>3.8</ele>
        <time>2020-06-02T16:01:03Z</time>
      </trkpt>
      <trkpt lat="46.34961" lon="-1.25397">
        <ele>3.8</ele>
        <time>2020-06-02T16:01:04Z</time>
      </trkpt>
      <trkpt lat="46.3496" lon="-1.25405">
        <ele>3.8</ele>
        <time>2020-06-02T16:01:05Z</time>
      </trkpt>
      <trkpt lat="46.34959" lon="-1.25412">
        <ele>3.8</ele>
        <time>2020-06-02T16:01:06Z</time>
      </trkpt>
      <trkpt lat="46.34957" lon="-1.2542">
        <ele>3.8</ele>
        <time>2020-06-02T16:01:07Z</time>
      </trkpt>
      <trkpt lat="46.34955" lon="-1.25427">
        <ele>3.8</ele>
        <time>2020-06-02T16:01:08Z</time>
      </trkpt>
      <trkpt lat="46.34954" lon="-1.25434">
        <ele>3.8</ele>
        <time>2020-06-02T16:01:09Z</time>
      </trkpt>
      <trkpt lat="46.34953" lon="-1.2544">
        <ele>3.8</ele>
        <time>2020-06-02T16:01:10Z</time>
      </trkpt>
      <trkpt lat="46.34952" lon="-1.25447">
        <ele>3.8</ele>
        <time>2020-06-02T16:01:11Z</time>
      </trkpt>
      <trkpt lat="46.34951" lon="-1.25455">
        <ele>3.8</ele>
        <time>2020-06-02T16:01:12Z</time>
      </trkpt>
      <trkpt lat="46.34949" lon="-1.25464">
        <ele>3.9</ele>
        <time>2020-06-02T16:01:13Z</time>
      </trkpt>
      <trkpt lat="46.34948" lon="-1.25471">
        <ele>3.9</ele>
        <time>2020-06-02T16:01:14Z</time>
      </trkpt>
      <trkpt lat="46.34947" lon="-1.2548">
        <ele>3.9</ele>
        <time>2020-06-02T16:01:15Z</time>
      </trkpt>
      <trkpt lat="46.34947" lon="-1.25486">
        <ele>3.9</ele>
        <time>2020-06-02T16:01:16Z</time>
      </trkpt>
      <trkpt lat="46.34945" lon="-1.25494">
        <ele>3.9</ele>
        <time>2020-06-02T16:01:17Z</time>
      </trkpt>
      <trkpt lat="46.34946" lon="-1.25502">
        <ele>3.9</ele>
        <time>2020-06-02T16:01:18Z</time>
      </trkpt>
      <trkpt lat="46.34945" lon="-1.25508">
        <ele>4</ele>
        <time>2020-06-02T16:01:19Z</time>
      </trkpt>
      <trkpt lat="46.34945" lon="-1.25516">
        <ele>4</ele>
        <time>2020-06-02T16:01:20Z</time>
      </trkpt>
      <trkpt lat="46.34943" lon="-1.25523">
        <ele>4</ele>
        <time>2020-06-02T16:01:21Z</time>
      </trkpt>
      <trkpt lat="46.34942" lon="-1.25533">
        <ele>4</ele>
        <time>2020-06-02T16:01:22Z</time>
      </trkpt>
      <trkpt lat="46.3494" lon="-1.25541">
        <ele>4</ele>
        <time>2020-06-02T16:01:23Z</time>
      </trkpt>
      <trkpt lat="46.34939" lon="-1.2555">
        <ele>4</ele>
        <time>2020-06-02T16:01:24Z</time>
      </trkpt>
      <trkpt lat="46.34939" lon="-1.25556">
        <ele>4.1</ele>
        <time>2020-06-02T16:01:25Z</time>
      </trkpt>
      <trkpt lat="46.34938" lon="-1.25563">
        <ele>4.1</ele>
        <time>2020-06-02T16:01:26Z</time>
      </trkpt>
      <trkpt lat="46.34936" lon="-1.25572">
        <ele>4.1</ele>
        <time>2020-06-02T16:01:27Z</time>
      </trkpt>
      <trkpt lat="46.34935" lon="-1.25579">
        <ele>4.1</ele>
        <time>2020-06-02T16:01:28Z</time>
      </trkpt>
      <trkpt lat="46.34933" lon="-1.25586">
        <ele>4.1</ele>
        <time>2020-06-02T16:01:29Z</time>
      </trkpt>
      <trkpt lat="46.34932" lon="-1.25593">
        <ele>4.1</ele>
        <time>2020-06-02T16:01:30Z</time>
      </trkpt>
      <trkpt lat="46.34931" lon="-1.25601">
        <ele>4.1</ele>
        <time>2020-06-02T16:01:31Z</time>
      </trkpt>
      <trkpt lat="46.34929" lon="-1.2561">
        <ele>4.2</ele>
        <time>2020-06-02T16:01:32Z</time>
      </trkpt>
      <trkpt lat="46.34928" lon="-1.25617">
        <ele>4.2</ele>
        <time>2020-06-02T16:01:33Z</time>
      </trkpt>
      <trkpt lat="46.34927" lon="-1.25625">
        <ele>4.2</ele>
        <time>2020-06-02T16:01:34Z</time>
      </trkpt>
      <trkpt lat="46.34926" lon="-1.25633">
        <ele>4.2</ele>
        <time>2020-06-02T16:01:35Z</time>
      </trkpt>
      <trkpt lat="46.34925" lon="-1.25642">
        <ele>4.2</ele>
        <time>2020-06-02T16:01:36Z</time>
      </trkpt>
      <trkpt lat="46.34923" lon="-1.2565">
        <ele>4.2</ele>
        <time>2020-06-02T16:01:37Z</time>
      </trkpt>
      <trkpt lat="46.34921" lon="-1.25658">
        <ele>4.2</ele>
        <time>2020-06-02T16:01:38Z</time>
      </trkpt>
      <trkpt lat="46.3492" lon="-1.25665">
        <ele>4.2</ele>
        <time>2020-06-02T16:01:39Z</time>
      </trkpt>
      <trkpt lat="46.34919" lon="-1.25673">
        <ele>4.3</ele>
        <time>2020-06-02T16:01:40Z</time>
      </trkpt>
      <trkpt lat="46.34918" lon="-1.25681">
        <ele>4.3</ele>
        <time>2020-06-02T16:01:41Z</time>
      </trkpt>
      <trkpt lat="46.34917" lon="-1.25689">
        <ele>4.3</ele>
        <time>2020-06-02T16:01:42Z</time>
      </trkpt>
      <trkpt lat="46.34917" lon="-1.25698">
        <ele>4.3</ele>
        <time>2020-06-02T16:01:43Z</time>
      </trkpt>
      <trkpt lat="46.34916" lon="-1.25706">
        <ele>4.3</ele>
        <time>2020-06-02T16:01:44Z</time>
      </trkpt>
      <trkpt lat="46.34915" lon="-1.25714">
        <ele>4.3</ele>
        <time>2020-06-02T16:01:45Z</time>
      </trkpt>
      <trkpt lat="46.34914" lon="-1.25722">
        <ele>4.3</ele>
        <time>2020-06-02T16:01:46Z</time>
      </trkpt>
      <trkpt lat="46.34911" lon="-1.25731">
        <ele>4.3</ele>
        <time>2020-06-02T16:01:47Z</time>
      </trkpt>
      <trkpt lat="46.3491" lon="-1.2574">
        <ele>4.3</ele>
        <time>2020-06-02T16:01:48Z</time>
      </trkpt>
      <trkpt lat="46.3491" lon="-1.25749">
        <ele>4.3</ele>
        <time>2020-06-02T16:01:49Z</time>
      </trkpt>
      <trkpt lat="46.34908" lon="-1.25757">
        <ele>4.4</ele>
        <time>2020-06-02T16:01:50Z</time>
      </trkpt>
      <trkpt lat="46.34907" lon="-1.25765">
        <ele>4.4</ele>
        <time>2020-06-02T16:01:51Z</time>
      </trkpt>
      <trkpt lat="46.34906" lon="-1.25773">
        <ele>4.3</ele>
        <time>2020-06-02T16:01:52Z</time>
      </trkpt>
      <trkpt lat="46.34904" lon="-1.25782">
        <ele>4.3</ele>
        <time>2020-06-02T16:01:53Z</time>
      </trkpt>
      <trkpt lat="46.34903" lon="-1.2579">
        <ele>4.2</ele>
        <time>2020-06-02T16:01:55Z</time>
      </trkpt>
      <trkpt lat="46.34902" lon="-1.25798">
        <ele>4.2</ele>
        <time>2020-06-02T16:01:56Z</time>
      </trkpt>
      <trkpt lat="46.34901" lon="-1.25807">
        <ele>4.1</ele>
        <time>2020-06-02T16:01:57Z</time>
      </trkpt>
      <trkpt lat="46.349" lon="-1.25817">
        <ele>4</ele>
        <time>2020-06-02T16:01:58Z</time>
      </trkpt>
      <trkpt lat="46.34899" lon="-1.25827">
        <ele>3.9</ele>
        <time>2020-06-02T16:01:59Z</time>
      </trkpt>
      <trkpt lat="46.34898" lon="-1.25836">
        <ele>3.9</ele>
        <time>2020-06-02T16:02:00Z</time>
      </trkpt>
      <trkpt lat="46.34897" lon="-1.25845">
        <ele>3.8</ele>
        <time>2020-06-02T16:02:01Z</time>
      </trkpt>
      <trkpt lat="46.34894" lon="-1.25862">
        <ele>3.7</ele>
        <time>2020-06-02T16:02:02Z</time>
      </trkpt>
      <trkpt lat="46.34892" lon="-1.25869">
        <ele>3.6</ele>
        <time>2020-06-02T16:02:03Z</time>
      </trkpt>
      <trkpt lat="46.34892" lon="-1.25877">
        <ele>3.6</ele>
        <time>2020-06-02T16:02:04Z</time>
      </trkpt>
      <trkpt lat="46.34892" lon="-1.25884">
        <ele>3.6</ele>
        <time>2020-06-02T16:02:05Z</time>
      </trkpt>
      <trkpt lat="46.34892" lon="-1.25892">
        <ele>3.5</ele>
        <time>2020-06-02T16:02:06Z</time>
      </trkpt>
      <trkpt lat="46.34891" lon="-1.259">
        <ele>3.5</ele>
        <time>2020-06-02T16:02:07Z</time>
      </trkpt>
      <trkpt lat="46.3489" lon="-1.25909">
        <ele>3.5</ele>
        <time>2020-06-02T16:02:08Z</time>
      </trkpt>
      <trkpt lat="46.34889" lon="-1.25918">
        <ele>3.5</ele>
        <time>2020-06-02T16:02:09Z</time>
      </trkpt>
      <trkpt lat="46.34887" lon="-1.25927">
        <ele>3.5</ele>
        <time>2020-06-02T16:02:10Z</time>
      </trkpt>
      <trkpt lat="46.34886" lon="-1.25936">
        <ele>3.5</ele>
        <time>2020-06-02T16:02:11Z</time>
      </trkpt>
      <trkpt lat="46.34884" lon="-1.25945">
        <ele>3.5</ele>
        <time>2020-06-02T16:02:12Z</time>
      </trkpt>
      <trkpt lat="46.34883" lon="-1.25953">
        <ele>3.5</ele>
        <time>2020-06-02T16:02:13Z</time>
      </trkpt>
      <trkpt lat="46.34881" lon="-1.25961">
        <ele>3.5</ele>
        <time>2020-06-02T16:02:14Z</time>
      </trkpt>
      <trkpt lat="46.34879" lon="-1.25969">
        <ele>3.5</ele>
        <time>2020-06-02T16:02:15Z</time>
      </trkpt>
      <trkpt lat="46.34877" lon="-1.25977">
        <ele>3.5</ele>
        <time>2020-06-02T16:02:16Z</time>
      </trkpt>
      <trkpt lat="46.34875" lon="-1.25985">
        <ele>3.5</ele>
        <time>2020-06-02T16:02:17Z</time>
      </trkpt>
      <trkpt lat="46.34874" lon="-1.25991">
        <ele>3.5</ele>
        <time>2020-06-02T16:02:18Z</time>
      </trkpt>
      <trkpt lat="46.34872" lon="-1.25998">
        <ele>3.5</ele>
        <time>2020-06-02T16:02:19Z</time>
      </trkpt>
      <trkpt lat="46.34871" lon="-1.26005">
        <ele>3.4</ele>
        <time>2020-06-02T16:02:20Z</time>
      </trkpt>
      <trkpt lat="46.34869" lon="-1.26014">
        <ele>3.4</ele>
        <time>2020-06-02T16:02:21Z</time>
      </trkpt>
      <trkpt lat="46.34868" lon="-1.26022">
        <ele>3.4</ele>
        <time>2020-06-02T16:02:22Z</time>
      </trkpt>
      <trkpt lat="46.34866" lon="-1.26031">
        <ele>3.4</ele>
        <time>2020-06-02T16:02:23Z</time>
      </trkpt>
      <trkpt lat="46.34864" lon="-1.26039">
        <ele>3.4</ele>
        <time>2020-06-02T16:02:24Z</time>
      </trkpt>
      <trkpt lat="46.34862" lon="-1.26046">
        <ele>3.4</ele>
        <time>2020-06-02T16:02:25Z</time>
      </trkpt>
      <trkpt lat="46.34859" lon="-1.26055">
        <ele>3.4</ele>
        <time>2020-06-02T16:02:26Z</time>
      </trkpt>
      <trkpt lat="46.34857" lon="-1.26063">
        <ele>3.4</ele>
        <time>2020-06-02T16:02:27Z</time>
      </trkpt>
      <trkpt lat="46.34858" lon="-1.2607">
        <ele>3.4</ele>
        <time>2020-06-02T16:02:28Z</time>
      </trkpt>
      <trkpt lat="46.34859" lon="-1.26077">
        <ele>3.5</ele>
        <time>2020-06-02T16:02:29Z</time>
      </trkpt>
      <trkpt lat="46.34861" lon="-1.26086">
        <ele>3.5</ele>
        <time>2020-06-02T16:02:30Z</time>
      </trkpt>
      <trkpt lat="46.34862" lon="-1.26095">
        <ele>3.5</ele>
        <time>2020-06-02T16:02:31Z</time>
      </trkpt>
      <trkpt lat="46.34863" lon="-1.26104">
        <ele>3.6</ele>
        <time>2020-06-02T16:02:32Z</time>
      </trkpt>
      <trkpt lat="46.34864" lon="-1.26112">
        <ele>3.6</ele>
        <time>2020-06-02T16:02:33Z</time>
      </trkpt>
      <trkpt lat="46.34865" lon="-1.26121">
        <ele>3.6</ele>
        <time>2020-06-02T16:02:34Z</time>
      </trkpt>
      <trkpt lat="46.34866" lon="-1.2613">
        <ele>3.5</ele>
        <time>2020-06-02T16:02:35Z</time>
      </trkpt>
      <trkpt lat="46.34867" lon="-1.26138">
        <ele>3.5</ele>
        <time>2020-06-02T16:02:36Z</time>
      </trkpt>
      <trkpt lat="46.34868" lon="-1.26147">
        <ele>3.5</ele>
        <time>2020-06-02T16:02:37Z</time>
      </trkpt>
      <trkpt lat="46.34869" lon="-1.26155">
        <ele>3.5</ele>
        <time>2020-06-02T16:02:38Z</time>
      </trkpt>
      <trkpt lat="46.3487" lon="-1.26164">
        <ele>3.5</ele>
        <time>2020-06-02T16:02:39Z</time>
      </trkpt>
      <trkpt lat="46.34871" lon="-1.26173">
        <ele>3.5</ele>
        <time>2020-06-02T16:02:40Z</time>
      </trkpt>
      <trkpt lat="46.34872" lon="-1.26182">
        <ele>3.6</ele>
        <time>2020-06-02T16:02:41Z</time>
      </trkpt>
      <trkpt lat="46.34872" lon="-1.26192">
        <ele>3.6</ele>
        <time>2020-06-02T16:02:42Z</time>
      </trkpt>
      <trkpt lat="46.34873" lon="-1.262">
        <ele>3.6</ele>
        <time>2020-06-02T16:02:43Z</time>
      </trkpt>
      <trkpt lat="46.34873" lon="-1.2621">
        <ele>3.7</ele>
        <time>2020-06-02T16:02:44Z</time>
      </trkpt>
      <trkpt lat="46.34874" lon="-1.26219">
        <ele>3.7</ele>
        <time>2020-06-02T16:02:45Z</time>
      </trkpt>
      <trkpt lat="46.34874" lon="-1.26228">
        <ele>3.7</ele>
        <time>2020-06-02T16:02:46Z</time>
      </trkpt>
      <trkpt lat="46.34875" lon="-1.26235">
        <ele>3.8</ele>
        <time>2020-06-02T16:02:47Z</time>
      </trkpt>
      <trkpt lat="46.34875" lon="-1.26243">
        <ele>3.8</ele>
        <time>2020-06-02T16:02:48Z</time>
      </trkpt>
      <trkpt lat="46.34875" lon="-1.26251">
        <ele>3.8</ele>
        <time>2020-06-02T16:02:49Z</time>
      </trkpt>
      <trkpt lat="46.34875" lon="-1.26258">
        <ele>3.9</ele>
        <time>2020-06-02T16:02:50Z</time>
      </trkpt>
      <trkpt lat="46.34875" lon="-1.26265">
        <ele>3.9</ele>
        <time>2020-06-02T16:02:51Z</time>
      </trkpt>
      <trkpt lat="46.34876" lon="-1.26272">
        <ele>3.9</ele>
        <time>2020-06-02T16:02:52Z</time>
      </trkpt>
      <trkpt lat="46.34877" lon="-1.26279">
        <ele>3.9</ele>
        <time>2020-06-02T16:02:53Z</time>
      </trkpt>
      <trkpt lat="46.34877" lon="-1.26286">
        <ele>3.9</ele>
        <time>2020-06-02T16:02:54Z</time>
      </trkpt>
      <trkpt lat="46.34878" lon="-1.26295">
        <ele>3.9</ele>
        <time>2020-06-02T16:02:55Z</time>
      </trkpt>
      <trkpt lat="46.3488" lon="-1.26301">
        <ele>3.9</ele>
        <time>2020-06-02T16:02:56Z</time>
      </trkpt>
      <trkpt lat="46.34882" lon="-1.26306">
        <ele>4</ele>
        <time>2020-06-02T16:02:57Z</time>
      </trkpt>
      <trkpt lat="46.34884" lon="-1.26311">
        <ele>4</ele>
        <time>2020-06-02T16:02:58Z</time>
      </trkpt>
      <trkpt lat="46.34887" lon="-1.26317">
        <ele>4</ele>
        <time>2020-06-02T16:02:59Z</time>
      </trkpt>
      <trkpt lat="46.34889" lon="-1.26322">
        <ele>4</ele>
        <time>2020-06-02T16:03:00Z</time>
      </trkpt>
      <trkpt lat="46.34889" lon="-1.26329">
        <ele>4</ele>
        <time>2020-06-02T16:03:01Z</time>
      </trkpt>
      <trkpt lat="46.34887" lon="-1.26334">
        <ele>4</ele>
        <time>2020-06-02T16:03:02Z</time>
      </trkpt>
      <trkpt lat="46.34884" lon="-1.26338">
        <ele>4</ele>
        <time>2020-06-02T16:03:03Z</time>
      </trkpt>
      <trkpt lat="46.34879" lon="-1.26342">
        <ele>4</ele>
        <time>2020-06-02T16:03:04Z</time>
      </trkpt>
      <trkpt lat="46.34875" lon="-1.26346">
        <ele>3.9</ele>
        <time>2020-06-02T16:03:05Z</time>
      </trkpt>
      <trkpt lat="46.34872" lon="-1.26352">
        <ele>3.9</ele>
        <time>2020-06-02T16:03:06Z</time>
      </trkpt>
      <trkpt lat="46.34868" lon="-1.26357">
        <ele>3.9</ele>
        <time>2020-06-02T16:03:07Z</time>
      </trkpt>
      <trkpt lat="46.34864" lon="-1.26362">
        <ele>3.9</ele>
        <time>2020-06-02T16:03:08Z</time>
      </trkpt>
      <trkpt lat="46.34861" lon="-1.26367">
        <ele>3.9</ele>
        <time>2020-06-02T16:03:09Z</time>
      </trkpt>
      <trkpt lat="46.34857" lon="-1.26372">
        <ele>3.9</ele>
        <time>2020-06-02T16:03:10Z</time>
      </trkpt>
      <trkpt lat="46.34853" lon="-1.26378">
        <ele>3.9</ele>
        <time>2020-06-02T16:03:11Z</time>
      </trkpt>
      <trkpt lat="46.34849" lon="-1.26383">
        <ele>3.8</ele>
        <time>2020-06-02T16:03:12Z</time>
      </trkpt>
      <trkpt lat="46.34845" lon="-1.26389">
        <ele>3.8</ele>
        <time>2020-06-02T16:03:13Z</time>
      </trkpt>
      <trkpt lat="46.34841" lon="-1.26395">
        <ele>3.8</ele>
        <time>2020-06-02T16:03:14Z</time>
      </trkpt>
      <trkpt lat="46.34838" lon="-1.264">
        <ele>3.8</ele>
        <time>2020-06-02T16:03:15Z</time>
      </trkpt>
      <trkpt lat="46.34834" lon="-1.26405">
        <ele>3.8</ele>
        <time>2020-06-02T16:03:16Z</time>
      </trkpt>
      <trkpt lat="46.3483" lon="-1.26411">
        <ele>3.8</ele>
        <time>2020-06-02T16:03:17Z</time>
      </trkpt>
      <trkpt lat="46.34826" lon="-1.26417">
        <ele>3.8</ele>
        <time>2020-06-02T16:03:18Z</time>
      </trkpt>
      <trkpt lat="46.34822" lon="-1.26423">
        <ele>3.8</ele>
        <time>2020-06-02T16:03:19Z</time>
      </trkpt>
      <trkpt lat="46.34818" lon="-1.26428">
        <ele>3.8</ele>
        <time>2020-06-02T16:03:20Z</time>
      </trkpt>
      <trkpt lat="46.34813" lon="-1.26434">
        <ele>3.8</ele>
        <time>2020-06-02T16:03:21Z</time>
      </trkpt>
      <trkpt lat="46.34809" lon="-1.2644">
        <ele>3.8</ele>
        <time>2020-06-02T16:03:22Z</time>
      </trkpt>
      <trkpt lat="46.34806" lon="-1.26445">
        <ele>3.7</ele>
        <time>2020-06-02T16:03:23Z</time>
      </trkpt>
      <trkpt lat="46.34802" lon="-1.26451">
        <ele>3.7</ele>
        <time>2020-06-02T16:03:24Z</time>
      </trkpt>
      <trkpt lat="46.34798" lon="-1.26457">
        <ele>3.7</ele>
        <time>2020-06-02T16:03:25Z</time>
      </trkpt>
      <trkpt lat="46.34794" lon="-1.26462">
        <ele>3.7</ele>
        <time>2020-06-02T16:03:26Z</time>
      </trkpt>
      <trkpt lat="46.34791" lon="-1.26467">
        <ele>3.7</ele>
        <time>2020-06-02T16:03:27Z</time>
      </trkpt>
      <trkpt lat="46.34787" lon="-1.26472">
        <ele>3.7</ele>
        <time>2020-06-02T16:03:28Z</time>
      </trkpt>
      <trkpt lat="46.34783" lon="-1.26478">
        <ele>3.7</ele>
        <time>2020-06-02T16:03:29Z</time>
      </trkpt>
      <trkpt lat="46.34779" lon="-1.26484">
        <ele>3.7</ele>
        <time>2020-06-02T16:03:30Z</time>
      </trkpt>
      <trkpt lat="46.34776" lon="-1.2649">
        <ele>3.7</ele>
        <time>2020-06-02T16:03:31Z</time>
      </trkpt>
      <trkpt lat="46.34772" lon="-1.26496">
        <ele>3.6</ele>
        <time>2020-06-02T16:03:32Z</time>
      </trkpt>
      <trkpt lat="46.34768" lon="-1.265">
        <ele>3.6</ele>
        <time>2020-06-02T16:03:33Z</time>
      </trkpt>
      <trkpt lat="46.34764" lon="-1.26505">
        <ele>3.6</ele>
        <time>2020-06-02T16:03:34Z</time>
      </trkpt>
      <trkpt lat="46.3476" lon="-1.26511">
        <ele>3.6</ele>
        <time>2020-06-02T16:03:35Z</time>
      </trkpt>
      <trkpt lat="46.34756" lon="-1.26516">
        <ele>3.6</ele>
        <time>2020-06-02T16:03:36Z</time>
      </trkpt>
      <trkpt lat="46.34752" lon="-1.26521">
        <ele>3.6</ele>
        <time>2020-06-02T16:03:37Z</time>
      </trkpt>
      <trkpt lat="46.34748" lon="-1.26525">
        <ele>3.6</ele>
        <time>2020-06-02T16:03:38Z</time>
      </trkpt>
      <trkpt lat="46.34743" lon="-1.26531">
        <ele>3.6</ele>
        <time>2020-06-02T16:03:39Z</time>
      </trkpt>
      <trkpt lat="46.34739" lon="-1.26537">
        <ele>3.6</ele>
        <time>2020-06-02T16:03:40Z</time>
      </trkpt>
      <trkpt lat="46.34735" lon="-1.26543">
        <ele>3.6</ele>
        <time>2020-06-02T16:03:41Z</time>
      </trkpt>
      <trkpt lat="46.34731" lon="-1.26548">
        <ele>3.6</ele>
        <time>2020-06-02T16:03:42Z</time>
      </trkpt>
      <trkpt lat="46.34728" lon="-1.26554">
        <ele>3.5</ele>
        <time>2020-06-02T16:03:43Z</time>
      </trkpt>
      <trkpt lat="46.34724" lon="-1.26559">
        <ele>3.5</ele>
        <time>2020-06-02T16:03:44Z</time>
      </trkpt>
      <trkpt lat="46.3472" lon="-1.26564">
        <ele>3.5</ele>
        <time>2020-06-02T16:03:45Z</time>
      </trkpt>
      <trkpt lat="46.34716" lon="-1.26569">
        <ele>3.5</ele>
        <time>2020-06-02T16:03:46Z</time>
      </trkpt>
      <trkpt lat="46.34713" lon="-1.26574">
        <ele>3.5</ele>
        <time>2020-06-02T16:03:47Z</time>
      </trkpt>
      <trkpt lat="46.34709" lon="-1.2658">
        <ele>3.5</ele>
        <time>2020-06-02T16:03:48Z</time>
      </trkpt>
      <trkpt lat="46.34705" lon="-1.26586">
        <ele>3.5</ele>
        <time>2020-06-02T16:03:49Z</time>
      </trkpt>
      <trkpt lat="46.34701" lon="-1.26592">
        <ele>3.6</ele>
        <time>2020-06-02T16:03:50Z</time>
      </trkpt>
      <trkpt lat="46.34697" lon="-1.26597">
        <ele>3.6</ele>
        <time>2020-06-02T16:03:51Z</time>
      </trkpt>
      <trkpt lat="46.34693" lon="-1.26604">
        <ele>3.6</ele>
        <time>2020-06-02T16:03:52Z</time>
      </trkpt>
      <trkpt lat="46.3469" lon="-1.2661">
        <ele>3.6</ele>
        <time>2020-06-02T16:03:53Z</time>
      </trkpt>
      <trkpt lat="46.34686" lon="-1.26616">
        <ele>3.6</ele>
        <time>2020-06-02T16:03:54Z</time>
      </trkpt>
      <trkpt lat="46.34682" lon="-1.26621">
        <ele>3.6</ele>
        <time>2020-06-02T16:03:55Z</time>
      </trkpt>
      <trkpt lat="46.34678" lon="-1.26626">
        <ele>3.6</ele>
        <time>2020-06-02T16:03:56Z</time>
      </trkpt>
      <trkpt lat="46.34674" lon="-1.26631">
        <ele>3.6</ele>
        <time>2020-06-02T16:03:57Z</time>
      </trkpt>
      <trkpt lat="46.3467" lon="-1.26636">
        <ele>3.6</ele>
        <time>2020-06-02T16:03:58Z</time>
      </trkpt>
      <trkpt lat="46.34666" lon="-1.26641">
        <ele>3.6</ele>
        <time>2020-06-02T16:03:59Z</time>
      </trkpt>
      <trkpt lat="46.34662" lon="-1.26646">
        <ele>3.6</ele>
        <time>2020-06-02T16:04:00Z</time>
      </trkpt>
      <trkpt lat="46.34658" lon="-1.26651">
        <ele>3.6</ele>
        <time>2020-06-02T16:04:01Z</time>
      </trkpt>
      <trkpt lat="46.34654" lon="-1.26657">
        <ele>3.6</ele>
        <time>2020-06-02T16:04:02Z</time>
      </trkpt>
      <trkpt lat="46.34651" lon="-1.26662">
        <ele>3.6</ele>
        <time>2020-06-02T16:04:03Z</time>
      </trkpt>
      <trkpt lat="46.34647" lon="-1.26667">
        <ele>3.6</ele>
        <time>2020-06-02T16:04:04Z</time>
      </trkpt>
      <trkpt lat="46.34644" lon="-1.26673">
        <ele>3.5</ele>
        <time>2020-06-02T16:04:05Z</time>
      </trkpt>
      <trkpt lat="46.3464" lon="-1.26678">
        <ele>3.5</ele>
        <time>2020-06-02T16:04:06Z</time>
      </trkpt>
      <trkpt lat="46.34637" lon="-1.26684">
        <ele>3.5</ele>
        <time>2020-06-02T16:04:07Z</time>
      </trkpt>
      <trkpt lat="46.34634" lon="-1.26691">
        <ele>3.5</ele>
        <time>2020-06-02T16:04:08Z</time>
      </trkpt>
      <trkpt lat="46.3463" lon="-1.26697">
        <ele>3.5</ele>
        <time>2020-06-02T16:04:09Z</time>
      </trkpt>
      <trkpt lat="46.34626" lon="-1.26702">
        <ele>3.5</ele>
        <time>2020-06-02T16:04:10Z</time>
      </trkpt>
      <trkpt lat="46.34623" lon="-1.26709">
        <ele>3.5</ele>
        <time>2020-06-02T16:04:11Z</time>
      </trkpt>
      <trkpt lat="46.34619" lon="-1.26715">
        <ele>3.5</ele>
        <time>2020-06-02T16:04:12Z</time>
      </trkpt>
      <trkpt lat="46.34616" lon="-1.26722">
        <ele>3.5</ele>
        <time>2020-06-02T16:04:13Z</time>
      </trkpt>
      <trkpt lat="46.34612" lon="-1.26728">
        <ele>3.5</ele>
        <time>2020-06-02T16:04:14Z</time>
      </trkpt>
      <trkpt lat="46.34609" lon="-1.26735">
        <ele>3.5</ele>
        <time>2020-06-02T16:04:15Z</time>
      </trkpt>
      <trkpt lat="46.34605" lon="-1.26741">
        <ele>3.5</ele>
        <time>2020-06-02T16:04:16Z</time>
      </trkpt>
      <trkpt lat="46.34602" lon="-1.26747">
        <ele>3.5</ele>
        <time>2020-06-02T16:04:17Z</time>
      </trkpt>
      <trkpt lat="46.34598" lon="-1.26753">
        <ele>3.5</ele>
        <time>2020-06-02T16:04:18Z</time>
      </trkpt>
      <trkpt lat="46.34595" lon="-1.26759">
        <ele>3.5</ele>
        <time>2020-06-02T16:04:19Z</time>
      </trkpt>
      <trkpt lat="46.34591" lon="-1.26766">
        <ele>3.5</ele>
        <time>2020-06-02T16:04:20Z</time>
      </trkpt>
      <trkpt lat="46.34588" lon="-1.26772">
        <ele>3.5</ele>
        <time>2020-06-02T16:04:21Z</time>
      </trkpt>
      <trkpt lat="46.34584" lon="-1.26778">
        <ele>3.5</ele>
        <time>2020-06-02T16:04:22Z</time>
      </trkpt>
      <trkpt lat="46.34581" lon="-1.26784">
        <ele>3.4</ele>
        <time>2020-06-02T16:04:23Z</time>
      </trkpt>
      <trkpt lat="46.34577" lon="-1.26789">
        <ele>3.4</ele>
        <time>2020-06-02T16:04:24Z</time>
      </trkpt>
      <trkpt lat="46.34574" lon="-1.26795">
        <ele>3.4</ele>
        <time>2020-06-02T16:04:25Z</time>
      </trkpt>
      <trkpt lat="46.3457" lon="-1.26802">
        <ele>3.4</ele>
        <time>2020-06-02T16:04:26Z</time>
      </trkpt>
      <trkpt lat="46.34567" lon="-1.26808">
        <ele>3.4</ele>
        <time>2020-06-02T16:04:27Z</time>
      </trkpt>
      <trkpt lat="46.34563" lon="-1.26814">
        <ele>3.4</ele>
        <time>2020-06-02T16:04:28Z</time>
      </trkpt>
      <trkpt lat="46.3456" lon="-1.26821">
        <ele>3.4</ele>
        <time>2020-06-02T16:04:29Z</time>
      </trkpt>
      <trkpt lat="46.34557" lon="-1.26828">
        <ele>3.4</ele>
        <time>2020-06-02T16:04:30Z</time>
      </trkpt>
      <trkpt lat="46.34553" lon="-1.26833">
        <ele>3.4</ele>
        <time>2020-06-02T16:04:31Z</time>
      </trkpt>
      <trkpt lat="46.3455" lon="-1.26839">
        <ele>3.3</ele>
        <time>2020-06-02T16:04:32Z</time>
      </trkpt>
      <trkpt lat="46.34546" lon="-1.26845">
        <ele>3.3</ele>
        <time>2020-06-02T16:04:33Z</time>
      </trkpt>
      <trkpt lat="46.34544" lon="-1.26851">
        <ele>3.3</ele>
        <time>2020-06-02T16:04:34Z</time>
      </trkpt>
      <trkpt lat="46.3454" lon="-1.26856">
        <ele>3.3</ele>
        <time>2020-06-02T16:04:35Z</time>
      </trkpt>
      <trkpt lat="46.34537" lon="-1.26862">
        <ele>3.3</ele>
        <time>2020-06-02T16:04:36Z</time>
      </trkpt>
      <trkpt lat="46.34534" lon="-1.26868">
        <ele>3.3</ele>
        <time>2020-06-02T16:04:37Z</time>
      </trkpt>
      <trkpt lat="46.34531" lon="-1.26875">
        <ele>3.3</ele>
        <time>2020-06-02T16:04:38Z</time>
      </trkpt>
      <trkpt lat="46.34527" lon="-1.26881">
        <ele>3.3</ele>
        <time>2020-06-02T16:04:39Z</time>
      </trkpt>
      <trkpt lat="46.34524" lon="-1.26887">
        <ele>3.3</ele>
        <time>2020-06-02T16:04:40Z</time>
      </trkpt>
      <trkpt lat="46.34522" lon="-1.26894">
        <ele>3.3</ele>
        <time>2020-06-02T16:04:41Z</time>
      </trkpt>
      <trkpt lat="46.34519" lon="-1.269">
        <ele>3.3</ele>
        <time>2020-06-02T16:04:42Z</time>
      </trkpt>
      <trkpt lat="46.34515" lon="-1.26906">
        <ele>3.3</ele>
        <time>2020-06-02T16:04:43Z</time>
      </trkpt>
      <trkpt lat="46.34512" lon="-1.26911">
        <ele>3.3</ele>
        <time>2020-06-02T16:04:44Z</time>
      </trkpt>
      <trkpt lat="46.34509" lon="-1.26916">
        <ele>3.4</ele>
        <time>2020-06-02T16:04:45Z</time>
      </trkpt>
      <trkpt lat="46.34506" lon="-1.26921">
        <ele>3.4</ele>
        <time>2020-06-02T16:04:46Z</time>
      </trkpt>
      <trkpt lat="46.34503" lon="-1.26925">
        <ele>3.4</ele>
        <time>2020-06-02T16:04:47Z</time>
      </trkpt>
      <trkpt lat="46.345" lon="-1.2693">
        <ele>3.4</ele>
        <time>2020-06-02T16:04:48Z</time>
      </trkpt>
      <trkpt lat="46.34498" lon="-1.26934">
        <ele>3.4</ele>
        <time>2020-06-02T16:04:49Z</time>
      </trkpt>
      <trkpt lat="46.34495" lon="-1.26938">
        <ele>3.4</ele>
        <time>2020-06-02T16:04:50Z</time>
      </trkpt>
      <trkpt lat="46.34492" lon="-1.26942">
        <ele>3.4</ele>
        <time>2020-06-02T16:04:51Z</time>
      </trkpt>
      <trkpt lat="46.3449" lon="-1.26945">
        <ele>3.4</ele>
        <time>2020-06-02T16:04:52Z</time>
      </trkpt>
      <trkpt lat="46.34488" lon="-1.26949">
        <ele>3.4</ele>
        <time>2020-06-02T16:04:53Z</time>
      </trkpt>
      <trkpt lat="46.34486" lon="-1.26952">
        <ele>3.4</ele>
        <time>2020-06-02T16:04:54Z</time>
      </trkpt>
      <trkpt lat="46.34484" lon="-1.26956">
        <ele>3.4</ele>
        <time>2020-06-02T16:04:55Z</time>
      </trkpt>
      <trkpt lat="46.34482" lon="-1.2696">
        <ele>3.4</ele>
        <time>2020-06-02T16:04:56Z</time>
      </trkpt>
      <trkpt lat="46.3448" lon="-1.26964">
        <ele>3.4</ele>
        <time>2020-06-02T16:04:57Z</time>
      </trkpt>
      <trkpt lat="46.34478" lon="-1.26967">
        <ele>3.4</ele>
        <time>2020-06-02T16:04:58Z</time>
      </trkpt>
      <trkpt lat="46.34475" lon="-1.26971">
        <ele>3.4</ele>
        <time>2020-06-02T16:04:59Z</time>
      </trkpt>
      <trkpt lat="46.34473" lon="-1.26975">
        <ele>3.4</ele>
        <time>2020-06-02T16:05:00Z</time>
      </trkpt>
      <trkpt lat="46.3447" lon="-1.26978">
        <ele>3.4</ele>
        <time>2020-06-02T16:05:01Z</time>
      </trkpt>
      <trkpt lat="46.34468" lon="-1.26982">
        <ele>3.4</ele>
        <time>2020-06-02T16:05:02Z</time>
      </trkpt>
      <trkpt lat="46.34466" lon="-1.26986">
        <ele>3.4</ele>
        <time>2020-06-02T16:05:03Z</time>
      </trkpt>
      <trkpt lat="46.34464" lon="-1.26991">
        <ele>3.4</ele>
        <time>2020-06-02T16:05:04Z</time>
      </trkpt>
      <trkpt lat="46.34463" lon="-1.26996">
        <ele>3.4</ele>
        <time>2020-06-02T16:05:05Z</time>
      </trkpt>
      <trkpt lat="46.3446" lon="-1.27001">
        <ele>3.4</ele>
        <time>2020-06-02T16:05:06Z</time>
      </trkpt>
      <trkpt lat="46.34456" lon="-1.27007">
        <ele>3.4</ele>
        <time>2020-06-02T16:05:07Z</time>
      </trkpt>
      <trkpt lat="46.34453" lon="-1.27013">
        <ele>3.4</ele>
        <time>2020-06-02T16:05:08Z</time>
      </trkpt>
      <trkpt lat="46.34449" lon="-1.27019">
        <ele>3.4</ele>
        <time>2020-06-02T16:05:09Z</time>
      </trkpt>
      <trkpt lat="46.34446" lon="-1.27026">
        <ele>3.4</ele>
        <time>2020-06-02T16:05:10Z</time>
      </trkpt>
      <trkpt lat="46.34442" lon="-1.27033">
        <ele>3.4</ele>
        <time>2020-06-02T16:05:11Z</time>
      </trkpt>
      <trkpt lat="46.34438" lon="-1.27039">
        <ele>3.4</ele>
        <time>2020-06-02T16:05:12Z</time>
      </trkpt>
      <trkpt lat="46.34435" lon="-1.27045">
        <ele>3.4</ele>
        <time>2020-06-02T16:05:13Z</time>
      </trkpt>
      <trkpt lat="46.34432" lon="-1.27051">
        <ele>3.4</ele>
        <time>2020-06-02T16:05:14Z</time>
      </trkpt>
      <trkpt lat="46.34428" lon="-1.27058">
        <ele>3.4</ele>
        <time>2020-06-02T16:05:15Z</time>
      </trkpt>
      <trkpt lat="46.34424" lon="-1.27064">
        <ele>3.4</ele>
        <time>2020-06-02T16:05:16Z</time>
      </trkpt>
      <trkpt lat="46.34421" lon="-1.2707">
        <ele>3.5</ele>
        <time>2020-06-02T16:05:17Z</time>
      </trkpt>
      <trkpt lat="46.34417" lon="-1.27076">
        <ele>3.5</ele>
        <time>2020-06-02T16:05:18Z</time>
      </trkpt>
      <trkpt lat="46.34413" lon="-1.27083">
        <ele>3.5</ele>
        <time>2020-06-02T16:05:19Z</time>
      </trkpt>
      <trkpt lat="46.3441" lon="-1.27089">
        <ele>3.5</ele>
        <time>2020-06-02T16:05:20Z</time>
      </trkpt>
      <trkpt lat="46.34406" lon="-1.27095">
        <ele>3.4</ele>
        <time>2020-06-02T16:05:21Z</time>
      </trkpt>
      <trkpt lat="46.34402" lon="-1.27101">
        <ele>3.4</ele>
        <time>2020-06-02T16:05:22Z</time>
      </trkpt>
      <trkpt lat="46.34399" lon="-1.27107">
        <ele>3.4</ele>
        <time>2020-06-02T16:05:23Z</time>
      </trkpt>
      <trkpt lat="46.34395" lon="-1.27113">
        <ele>3.4</ele>
        <time>2020-06-02T16:05:24Z</time>
      </trkpt>
      <trkpt lat="46.34391" lon="-1.2712">
        <ele>3.4</ele>
        <time>2020-06-02T16:05:25Z</time>
      </trkpt>
      <trkpt lat="46.34387" lon="-1.27127">
        <ele>3.4</ele>
        <time>2020-06-02T16:05:26Z</time>
      </trkpt>
      <trkpt lat="46.34384" lon="-1.27134">
        <ele>3.4</ele>
        <time>2020-06-02T16:05:27Z</time>
      </trkpt>
      <trkpt lat="46.34381" lon="-1.2714">
        <ele>3.4</ele>
        <time>2020-06-02T16:05:28Z</time>
      </trkpt>
      <trkpt lat="46.34377" lon="-1.27147">
        <ele>3.4</ele>
        <time>2020-06-02T16:05:29Z</time>
      </trkpt>
      <trkpt lat="46.34374" lon="-1.27153">
        <ele>3.4</ele>
        <time>2020-06-02T16:05:30Z</time>
      </trkpt>
      <trkpt lat="46.3437" lon="-1.27159">
        <ele>3.3</ele>
        <time>2020-06-02T16:05:31Z</time>
      </trkpt>
      <trkpt lat="46.34365" lon="-1.27166">
        <ele>3.3</ele>
        <time>2020-06-02T16:05:32Z</time>
      </trkpt>
      <trkpt lat="46.34361" lon="-1.27172">
        <ele>3.3</ele>
        <time>2020-06-02T16:05:33Z</time>
      </trkpt>
      <trkpt lat="46.34357" lon="-1.27178">
        <ele>3.3</ele>
        <time>2020-06-02T16:05:34Z</time>
      </trkpt>
      <trkpt lat="46.34353" lon="-1.27184">
        <ele>3.3</ele>
        <time>2020-06-02T16:05:35Z</time>
      </trkpt>
      <trkpt lat="46.3435" lon="-1.27191">
        <ele>3.3</ele>
        <time>2020-06-02T16:05:36Z</time>
      </trkpt>
      <trkpt lat="46.34347" lon="-1.27196">
        <ele>3.3</ele>
        <time>2020-06-02T16:05:37Z</time>
      </trkpt>
      <trkpt lat="46.34344" lon="-1.27203">
        <ele>3.3</ele>
        <time>2020-06-02T16:05:38Z</time>
      </trkpt>
      <trkpt lat="46.3434" lon="-1.2721">
        <ele>3.3</ele>
        <time>2020-06-02T16:05:39Z</time>
      </trkpt>
      <trkpt lat="46.34336" lon="-1.27216">
        <ele>3.3</ele>
        <time>2020-06-02T16:05:40Z</time>
      </trkpt>
      <trkpt lat="46.34333" lon="-1.27222">
        <ele>3.3</ele>
        <time>2020-06-02T16:05:41Z</time>
      </trkpt>
      <trkpt lat="46.34329" lon="-1.27229">
        <ele>3.3</ele>
        <time>2020-06-02T16:05:42Z</time>
      </trkpt>
      <trkpt lat="46.34325" lon="-1.27235">
        <ele>3.3</ele>
        <time>2020-06-02T16:05:43Z</time>
      </trkpt>
      <trkpt lat="46.3432" lon="-1.27241">
        <ele>3.3</ele>
        <time>2020-06-02T16:05:44Z</time>
      </trkpt>
      <trkpt lat="46.34317" lon="-1.27247">
        <ele>3.3</ele>
        <time>2020-06-02T16:05:45Z</time>
      </trkpt>
      <trkpt lat="46.34313" lon="-1.27253">
        <ele>3.3</ele>
        <time>2020-06-02T16:05:46Z</time>
      </trkpt>
      <trkpt lat="46.34309" lon="-1.2726">
        <ele>3.3</ele>
        <time>2020-06-02T16:05:47Z</time>
      </trkpt>
      <trkpt lat="46.34306" lon="-1.27266">
        <ele>3.3</ele>
        <time>2020-06-02T16:05:48Z</time>
      </trkpt>
      <trkpt lat="46.34302" lon="-1.27272">
        <ele>3.3</ele>
        <time>2020-06-02T16:05:49Z</time>
      </trkpt>
      <trkpt lat="46.34299" lon="-1.27279">
        <ele>3.3</ele>
        <time>2020-06-02T16:05:50Z</time>
      </trkpt>
      <trkpt lat="46.34296" lon="-1.27285">
        <ele>3.3</ele>
        <time>2020-06-02T16:05:51Z</time>
      </trkpt>
      <trkpt lat="46.34292" lon="-1.27292">
        <ele>3.3</ele>
        <time>2020-06-02T16:05:52Z</time>
      </trkpt>
      <trkpt lat="46.34289" lon="-1.27299">
        <ele>3.3</ele>
        <time>2020-06-02T16:05:53Z</time>
      </trkpt>
      <trkpt lat="46.34286" lon="-1.27305">
        <ele>3.2</ele>
        <time>2020-06-02T16:05:54Z</time>
      </trkpt>
      <trkpt lat="46.34282" lon="-1.27312">
        <ele>3.2</ele>
        <time>2020-06-02T16:05:55Z</time>
      </trkpt>
      <trkpt lat="46.34279" lon="-1.27319">
        <ele>3.2</ele>
        <time>2020-06-02T16:05:56Z</time>
      </trkpt>
      <trkpt lat="46.34275" lon="-1.27327">
        <ele>3.2</ele>
        <time>2020-06-02T16:05:57Z</time>
      </trkpt>
      <trkpt lat="46.34271" lon="-1.27334">
        <ele>3.2</ele>
        <time>2020-06-02T16:05:58Z</time>
      </trkpt>
      <trkpt lat="46.34267" lon="-1.27341">
        <ele>3.1</ele>
        <time>2020-06-02T16:05:59Z</time>
      </trkpt>
      <trkpt lat="46.34264" lon="-1.27348">
        <ele>3.1</ele>
        <time>2020-06-02T16:06:00Z</time>
      </trkpt>
      <trkpt lat="46.3426" lon="-1.27355">
        <ele>3.1</ele>
        <time>2020-06-02T16:06:01Z</time>
      </trkpt>
      <trkpt lat="46.34257" lon="-1.27361">
        <ele>3.1</ele>
        <time>2020-06-02T16:06:02Z</time>
      </trkpt>
      <trkpt lat="46.34254" lon="-1.27368">
        <ele>3.1</ele>
        <time>2020-06-02T16:06:03Z</time>
      </trkpt>
      <trkpt lat="46.3425" lon="-1.27374">
        <ele>3.1</ele>
        <time>2020-06-02T16:06:04Z</time>
      </trkpt>
      <trkpt lat="46.34246" lon="-1.2738">
        <ele>3.1</ele>
        <time>2020-06-02T16:06:05Z</time>
      </trkpt>
      <trkpt lat="46.34242" lon="-1.27387">
        <ele>3.1</ele>
        <time>2020-06-02T16:06:06Z</time>
      </trkpt>
      <trkpt lat="46.34239" lon="-1.27393">
        <ele>3</ele>
        <time>2020-06-02T16:06:07Z</time>
      </trkpt>
      <trkpt lat="46.34235" lon="-1.27398">
        <ele>3</ele>
        <time>2020-06-02T16:06:08Z</time>
      </trkpt>
      <trkpt lat="46.34232" lon="-1.27404">
        <ele>3</ele>
        <time>2020-06-02T16:06:09Z</time>
      </trkpt>
      <trkpt lat="46.34228" lon="-1.2741">
        <ele>3</ele>
        <time>2020-06-02T16:06:10Z</time>
      </trkpt>
      <trkpt lat="46.34225" lon="-1.27417">
        <ele>3</ele>
        <time>2020-06-02T16:06:11Z</time>
      </trkpt>
      <trkpt lat="46.34221" lon="-1.27424">
        <ele>3</ele>
        <time>2020-06-02T16:06:12Z</time>
      </trkpt>
      <trkpt lat="46.34217" lon="-1.2743">
        <ele>3</ele>
        <time>2020-06-02T16:06:13Z</time>
      </trkpt>
      <trkpt lat="46.34214" lon="-1.27436">
        <ele>3</ele>
        <time>2020-06-02T16:06:14Z</time>
      </trkpt>
      <trkpt lat="46.34211" lon="-1.27442">
        <ele>3.1</ele>
        <time>2020-06-02T16:06:15Z</time>
      </trkpt>
      <trkpt lat="46.34208" lon="-1.27448">
        <ele>3.1</ele>
        <time>2020-06-02T16:06:16Z</time>
      </trkpt>
      <trkpt lat="46.34205" lon="-1.27454">
        <ele>3.1</ele>
        <time>2020-06-02T16:06:17Z</time>
      </trkpt>
      <trkpt lat="46.34201" lon="-1.2746">
        <ele>3.1</ele>
        <time>2020-06-02T16:06:18Z</time>
      </trkpt>
      <trkpt lat="46.34197" lon="-1.27466">
        <ele>3.1</ele>
        <time>2020-06-02T16:06:19Z</time>
      </trkpt>
      <trkpt lat="46.34193" lon="-1.27473">
        <ele>3.1</ele>
        <time>2020-06-02T16:06:20Z</time>
      </trkpt>
      <trkpt lat="46.34189" lon="-1.27479">
        <ele>3.1</ele>
        <time>2020-06-02T16:06:21Z</time>
      </trkpt>
      <trkpt lat="46.34185" lon="-1.27486">
        <ele>3.1</ele>
        <time>2020-06-02T16:06:22Z</time>
      </trkpt>
      <trkpt lat="46.34181" lon="-1.27492">
        <ele>3.1</ele>
        <time>2020-06-02T16:06:23Z</time>
      </trkpt>
      <trkpt lat="46.34177" lon="-1.27499">
        <ele>3</ele>
        <time>2020-06-02T16:06:24Z</time>
      </trkpt>
      <trkpt lat="46.34173" lon="-1.27505">
        <ele>3</ele>
        <time>2020-06-02T16:06:25Z</time>
      </trkpt>
      <trkpt lat="46.34169" lon="-1.27512">
        <ele>3</ele>
        <time>2020-06-02T16:06:26Z</time>
      </trkpt>
      <trkpt lat="46.34165" lon="-1.27519">
        <ele>3</ele>
        <time>2020-06-02T16:06:27Z</time>
      </trkpt>
      <trkpt lat="46.34161" lon="-1.27525">
        <ele>3</ele>
        <time>2020-06-02T16:06:28Z</time>
      </trkpt>
      <trkpt lat="46.34157" lon="-1.27532">
        <ele>3</ele>
        <time>2020-06-02T16:06:29Z</time>
      </trkpt>
      <trkpt lat="46.34153" lon="-1.27538">
        <ele>3</ele>
        <time>2020-06-02T16:06:30Z</time>
      </trkpt>
      <trkpt lat="46.3415" lon="-1.27544">
        <ele>3</ele>
        <time>2020-06-02T16:06:31Z</time>
      </trkpt>
      <trkpt lat="46.34146" lon="-1.27551">
        <ele>3</ele>
        <time>2020-06-02T16:06:32Z</time>
      </trkpt>
      <trkpt lat="46.34142" lon="-1.27558">
        <ele>3</ele>
        <time>2020-06-02T16:06:33Z</time>
      </trkpt>
      <trkpt lat="46.34139" lon="-1.27564">
        <ele>3</ele>
        <time>2020-06-02T16:06:34Z</time>
      </trkpt>
      <trkpt lat="46.34135" lon="-1.27571">
        <ele>3</ele>
        <time>2020-06-02T16:06:35Z</time>
      </trkpt>
      <trkpt lat="46.34131" lon="-1.27578">
        <ele>3</ele>
        <time>2020-06-02T16:06:36Z</time>
      </trkpt>
      <trkpt lat="46.34127" lon="-1.27585">
        <ele>3</ele>
        <time>2020-06-02T16:06:37Z</time>
      </trkpt>
      <trkpt lat="46.34123" lon="-1.27592">
        <ele>2.9</ele>
        <time>2020-06-02T16:06:38Z</time>
      </trkpt>
      <trkpt lat="46.34119" lon="-1.27598">
        <ele>2.9</ele>
        <time>2020-06-02T16:06:39Z</time>
      </trkpt>
      <trkpt lat="46.34115" lon="-1.27605">
        <ele>2.9</ele>
        <time>2020-06-02T16:06:40Z</time>
      </trkpt>
      <trkpt lat="46.34111" lon="-1.27612">
        <ele>2.9</ele>
        <time>2020-06-02T16:06:41Z</time>
      </trkpt>
      <trkpt lat="46.34107" lon="-1.27619">
        <ele>2.9</ele>
        <time>2020-06-02T16:06:42Z</time>
      </trkpt>
      <trkpt lat="46.34103" lon="-1.27626">
        <ele>2.9</ele>
        <time>2020-06-02T16:06:43Z</time>
      </trkpt>
      <trkpt lat="46.34099" lon="-1.27633">
        <ele>2.9</ele>
        <time>2020-06-02T16:06:44Z</time>
      </trkpt>
      <trkpt lat="46.34095" lon="-1.2764">
        <ele>3</ele>
        <time>2020-06-02T16:06:45Z</time>
      </trkpt>
      <trkpt lat="46.34091" lon="-1.27646">
        <ele>3</ele>
        <time>2020-06-02T16:06:46Z</time>
      </trkpt>
      <trkpt lat="46.34088" lon="-1.27653">
        <ele>3</ele>
        <time>2020-06-02T16:06:47Z</time>
      </trkpt>
      <trkpt lat="46.34084" lon="-1.2766">
        <ele>3</ele>
        <time>2020-06-02T16:06:48Z</time>
      </trkpt>
      <trkpt lat="46.3408" lon="-1.27667">
        <ele>2.9</ele>
        <time>2020-06-02T16:06:49Z</time>
      </trkpt>
      <trkpt lat="46.34076" lon="-1.27673">
        <ele>2.9</ele>
        <time>2020-06-02T16:06:50Z</time>
      </trkpt>
      <trkpt lat="46.34072" lon="-1.27679">
        <ele>2.9</ele>
        <time>2020-06-02T16:06:51Z</time>
      </trkpt>
      <trkpt lat="46.34069" lon="-1.27685">
        <ele>2.9</ele>
        <time>2020-06-02T16:06:52Z</time>
      </trkpt>
      <trkpt lat="46.34065" lon="-1.27692">
        <ele>2.9</ele>
        <time>2020-06-02T16:06:53Z</time>
      </trkpt>
      <trkpt lat="46.34061" lon="-1.27699">
        <ele>2.9</ele>
        <time>2020-06-02T16:06:54Z</time>
      </trkpt>
      <trkpt lat="46.34058" lon="-1.27707">
        <ele>2.9</ele>
        <time>2020-06-02T16:06:55Z</time>
      </trkpt>
      <trkpt lat="46.34054" lon="-1.27714">
        <ele>2.8</ele>
        <time>2020-06-02T16:06:56Z</time>
      </trkpt>
      <trkpt lat="46.3405" lon="-1.27721">
        <ele>2.8</ele>
        <time>2020-06-02T16:06:57Z</time>
      </trkpt>
      <trkpt lat="46.34046" lon="-1.27728">
        <ele>2.8</ele>
        <time>2020-06-02T16:06:58Z</time>
      </trkpt>
      <trkpt lat="46.34043" lon="-1.27734">
        <ele>2.7</ele>
        <time>2020-06-02T16:06:59Z</time>
      </trkpt>
      <trkpt lat="46.3404" lon="-1.27741">
        <ele>2.7</ele>
        <time>2020-06-02T16:07:00Z</time>
      </trkpt>
      <trkpt lat="46.34036" lon="-1.27747">
        <ele>2.7</ele>
        <time>2020-06-02T16:07:01Z</time>
      </trkpt>
      <trkpt lat="46.34032" lon="-1.27753">
        <ele>2.6</ele>
        <time>2020-06-02T16:07:02Z</time>
      </trkpt>
      <trkpt lat="46.34028" lon="-1.27759">
        <ele>2.6</ele>
        <time>2020-06-02T16:07:03Z</time>
      </trkpt>
      <trkpt lat="46.34024" lon="-1.27766">
        <ele>2.6</ele>
        <time>2020-06-02T16:07:04Z</time>
      </trkpt>
      <trkpt lat="46.3402" lon="-1.27772">
        <ele>2.6</ele>
        <time>2020-06-02T16:07:05Z</time>
      </trkpt>
      <trkpt lat="46.34017" lon="-1.27779">
        <ele>2.6</ele>
        <time>2020-06-02T16:07:06Z</time>
      </trkpt>
      <trkpt lat="46.34013" lon="-1.27786">
        <ele>2.6</ele>
        <time>2020-06-02T16:07:07Z</time>
      </trkpt>
      <trkpt lat="46.34009" lon="-1.27792">
        <ele>2.6</ele>
        <time>2020-06-02T16:07:08Z</time>
      </trkpt>
      <trkpt lat="46.34005" lon="-1.27799">
        <ele>2.6</ele>
        <time>2020-06-02T16:07:09Z</time>
      </trkpt>
      <trkpt lat="46.34001" lon="-1.27806">
        <ele>2.7</ele>
        <time>2020-06-02T16:07:10Z</time>
      </trkpt>
      <trkpt lat="46.33998" lon="-1.27813">
        <ele>2.7</ele>
        <time>2020-06-02T16:07:11Z</time>
      </trkpt>
      <trkpt lat="46.33995" lon="-1.2782">
        <ele>2.7</ele>
        <time>2020-06-02T16:07:12Z</time>
      </trkpt>
      <trkpt lat="46.33991" lon="-1.27827">
        <ele>2.7</ele>
        <time>2020-06-02T16:07:13Z</time>
      </trkpt>
      <trkpt lat="46.33986" lon="-1.27836">
        <ele>2.7</ele>
        <time>2020-06-02T16:07:14Z</time>
      </trkpt>
      <trkpt lat="46.33982" lon="-1.27843">
        <ele>2.7</ele>
        <time>2020-06-02T16:07:15Z</time>
      </trkpt>
      <trkpt lat="46.33977" lon="-1.27851">
        <ele>2.7</ele>
        <time>2020-06-02T16:07:16Z</time>
      </trkpt>
      <trkpt lat="46.33973" lon="-1.27858">
        <ele>2.7</ele>
        <time>2020-06-02T16:07:17Z</time>
      </trkpt>
      <trkpt lat="46.33969" lon="-1.27865">
        <ele>2.7</ele>
        <time>2020-06-02T16:07:18Z</time>
      </trkpt>
      <trkpt lat="46.33966" lon="-1.27871">
        <ele>2.7</ele>
        <time>2020-06-02T16:07:19Z</time>
      </trkpt>
      <trkpt lat="46.33962" lon="-1.27878">
        <ele>2.7</ele>
        <time>2020-06-02T16:07:20Z</time>
      </trkpt>
      <trkpt lat="46.33958" lon="-1.27884">
        <ele>2.7</ele>
        <time>2020-06-02T16:07:21Z</time>
      </trkpt>
      <trkpt lat="46.33954" lon="-1.27891">
        <ele>2.7</ele>
        <time>2020-06-02T16:07:22Z</time>
      </trkpt>
      <trkpt lat="46.3395" lon="-1.27897">
        <ele>2.7</ele>
        <time>2020-06-02T16:07:23Z</time>
      </trkpt>
      <trkpt lat="46.33948" lon="-1.27903">
        <ele>2.7</ele>
        <time>2020-06-02T16:07:24Z</time>
      </trkpt>
      <trkpt lat="46.33944" lon="-1.2791">
        <ele>2.7</ele>
        <time>2020-06-02T16:07:25Z</time>
      </trkpt>
      <trkpt lat="46.33941" lon="-1.27916">
        <ele>2.7</ele>
        <time>2020-06-02T16:07:26Z</time>
      </trkpt>
      <trkpt lat="46.33937" lon="-1.27923">
        <ele>2.8</ele>
        <time>2020-06-02T16:07:27Z</time>
      </trkpt>
      <trkpt lat="46.33934" lon="-1.27929">
        <ele>2.8</ele>
        <time>2020-06-02T16:07:28Z</time>
      </trkpt>
      <trkpt lat="46.33931" lon="-1.27935">
        <ele>2.8</ele>
        <time>2020-06-02T16:07:29Z</time>
      </trkpt>
      <trkpt lat="46.33927" lon="-1.27942">
        <ele>2.8</ele>
        <time>2020-06-02T16:07:30Z</time>
      </trkpt>
      <trkpt lat="46.33924" lon="-1.27949">
        <ele>2.8</ele>
        <time>2020-06-02T16:07:31Z</time>
      </trkpt>
      <trkpt lat="46.3392" lon="-1.27956">
        <ele>2.8</ele>
        <time>2020-06-02T16:07:32Z</time>
      </trkpt>
      <trkpt lat="46.33916" lon="-1.27963">
        <ele>2.8</ele>
        <time>2020-06-02T16:07:33Z</time>
      </trkpt>
      <trkpt lat="46.33912" lon="-1.27969">
        <ele>2.8</ele>
        <time>2020-06-02T16:07:34Z</time>
      </trkpt>
      <trkpt lat="46.33908" lon="-1.27976">
        <ele>2.8</ele>
        <time>2020-06-02T16:07:35Z</time>
      </trkpt>
      <trkpt lat="46.33905" lon="-1.27982">
        <ele>2.8</ele>
        <time>2020-06-02T16:07:36Z</time>
      </trkpt>
      <trkpt lat="46.33901" lon="-1.27987">
        <ele>2.8</ele>
        <time>2020-06-02T16:07:37Z</time>
      </trkpt>
      <trkpt lat="46.33897" lon="-1.27993">
        <ele>2.8</ele>
        <time>2020-06-02T16:07:38Z</time>
      </trkpt>
      <trkpt lat="46.33893" lon="-1.27999">
        <ele>2.8</ele>
        <time>2020-06-02T16:07:39Z</time>
      </trkpt>
      <trkpt lat="46.33889" lon="-1.28004">
        <ele>2.8</ele>
        <time>2020-06-02T16:07:40Z</time>
      </trkpt>
      <trkpt lat="46.33886" lon="-1.28009">
        <ele>2.8</ele>
        <time>2020-06-02T16:07:41Z</time>
      </trkpt>
      <trkpt lat="46.33883" lon="-1.28014">
        <ele>2.8</ele>
        <time>2020-06-02T16:07:42Z</time>
      </trkpt>
      <trkpt lat="46.33879" lon="-1.28019">
        <ele>2.8</ele>
        <time>2020-06-02T16:07:43Z</time>
      </trkpt>
      <trkpt lat="46.33876" lon="-1.28024">
        <ele>2.8</ele>
        <time>2020-06-02T16:07:44Z</time>
      </trkpt>
      <trkpt lat="46.33873" lon="-1.28029">
        <ele>2.8</ele>
        <time>2020-06-02T16:07:45Z</time>
      </trkpt>
      <trkpt lat="46.3387" lon="-1.28035">
        <ele>2.8</ele>
        <time>2020-06-02T16:07:46Z</time>
      </trkpt>
      <trkpt lat="46.33867" lon="-1.28042">
        <ele>3</ele>
        <time>2020-06-02T16:07:47Z</time>
      </trkpt>
      <trkpt lat="46.33865" lon="-1.2805">
        <ele>3.1</ele>
        <time>2020-06-02T16:07:48Z</time>
      </trkpt>
      <trkpt lat="46.33865" lon="-1.28058">
        <ele>3.2</ele>
        <time>2020-06-02T16:07:49Z</time>
      </trkpt>
      <trkpt lat="46.33865" lon="-1.28065">
        <ele>3.3</ele>
        <time>2020-06-02T16:07:50Z</time>
      </trkpt>
      <trkpt lat="46.33865" lon="-1.28071">
        <ele>3.4</ele>
        <time>2020-06-02T16:07:51Z</time>
      </trkpt>
      <trkpt lat="46.33866" lon="-1.28077">
        <ele>3.4</ele>
        <time>2020-06-02T16:07:52Z</time>
      </trkpt>
      <trkpt lat="46.33868" lon="-1.28082">
        <ele>3.5</ele>
        <time>2020-06-02T16:07:53Z</time>
      </trkpt>
      <trkpt lat="46.33873" lon="-1.28086">
        <ele>3.5</ele>
        <time>2020-06-02T16:07:54Z</time>
      </trkpt>
      <trkpt lat="46.33877" lon="-1.2809">
        <ele>3.5</ele>
        <time>2020-06-02T16:07:55Z</time>
      </trkpt>
      <trkpt lat="46.33881" lon="-1.28095">
        <ele>3.4</ele>
        <time>2020-06-02T16:07:56Z</time>
      </trkpt>
      <trkpt lat="46.33885" lon="-1.28099">
        <ele>3.4</ele>
        <time>2020-06-02T16:07:57Z</time>
      </trkpt>
      <trkpt lat="46.33887" lon="-1.28103">
        <ele>3.3</ele>
        <time>2020-06-02T16:07:58Z</time>
      </trkpt>
      <trkpt lat="46.3389" lon="-1.28107">
        <ele>3.3</ele>
        <time>2020-06-02T16:07:59Z</time>
      </trkpt>
      <trkpt lat="46.33892" lon="-1.28114">
        <ele>3.2</ele>
        <time>2020-06-02T16:08:00Z</time>
      </trkpt>
      <trkpt lat="46.33894" lon="-1.2812">
        <ele>3.1</ele>
        <time>2020-06-02T16:08:01Z</time>
      </trkpt>
      <trkpt lat="46.33893" lon="-1.28126">
        <ele>3.1</ele>
        <time>2020-06-02T16:08:02Z</time>
      </trkpt>
      <trkpt lat="46.33892" lon="-1.28134">
        <ele>3</ele>
        <time>2020-06-02T16:08:03Z</time>
      </trkpt>
      <trkpt lat="46.33892" lon="-1.28141">
        <ele>2.9</ele>
        <time>2020-06-02T16:08:04Z</time>
      </trkpt>
      <trkpt lat="46.33892" lon="-1.28148">
        <ele>2.9</ele>
        <time>2020-06-02T16:08:05Z</time>
      </trkpt>
      <trkpt lat="46.33891" lon="-1.28155">
        <ele>2.8</ele>
        <time>2020-06-02T16:08:06Z</time>
      </trkpt>
      <trkpt lat="46.3389" lon="-1.28163">
        <ele>2.8</ele>
        <time>2020-06-02T16:08:07Z</time>
      </trkpt>
      <trkpt lat="46.33888" lon="-1.2817">
        <ele>2.7</ele>
        <time>2020-06-02T16:08:08Z</time>
      </trkpt>
      <trkpt lat="46.33887" lon="-1.28176">
        <ele>2.6</ele>
        <time>2020-06-02T16:08:09Z</time>
      </trkpt>
      <trkpt lat="46.33884" lon="-1.28183">
        <ele>2.6</ele>
        <time>2020-06-02T16:08:10Z</time>
      </trkpt>
      <trkpt lat="46.33883" lon="-1.2819">
        <ele>2.6</ele>
        <time>2020-06-02T16:08:11Z</time>
      </trkpt>
      <trkpt lat="46.33881" lon="-1.28197">
        <ele>2.5</ele>
        <time>2020-06-02T16:08:12Z</time>
      </trkpt>
      <trkpt lat="46.33879" lon="-1.28203">
        <ele>2.5</ele>
        <time>2020-06-02T16:08:13Z</time>
      </trkpt>
      <trkpt lat="46.33877" lon="-1.28209">
        <ele>2.5</ele>
        <time>2020-06-02T16:08:14Z</time>
      </trkpt>
      <trkpt lat="46.33876" lon="-1.28215">
        <ele>2.4</ele>
        <time>2020-06-02T16:08:15Z</time>
      </trkpt>
      <trkpt lat="46.33874" lon="-1.28222">
        <ele>2.4</ele>
        <time>2020-06-02T16:08:16Z</time>
      </trkpt>
      <trkpt lat="46.33874" lon="-1.28228">
        <ele>2.4</ele>
        <time>2020-06-02T16:08:17Z</time>
      </trkpt>
      <trkpt lat="46.33873" lon="-1.28234">
        <ele>2.4</ele>
        <time>2020-06-02T16:08:18Z</time>
      </trkpt>
      <trkpt lat="46.33873" lon="-1.28241">
        <ele>2.4</ele>
        <time>2020-06-02T16:08:19Z</time>
      </trkpt>
      <trkpt lat="46.33876" lon="-1.28247">
        <ele>2.4</ele>
        <time>2020-06-02T16:08:20Z</time>
      </trkpt>
      <trkpt lat="46.33878" lon="-1.28254">
        <ele>2.4</ele>
        <time>2020-06-02T16:08:21Z</time>
      </trkpt>
      <trkpt lat="46.3388" lon="-1.28261">
        <ele>2.4</ele>
        <time>2020-06-02T16:08:22Z</time>
      </trkpt>
      <trkpt lat="46.33881" lon="-1.28268">
        <ele>2.4</ele>
        <time>2020-06-02T16:08:23Z</time>
      </trkpt>
      <trkpt lat="46.33882" lon="-1.28274">
        <ele>2.4</ele>
        <time>2020-06-02T16:08:24Z</time>
      </trkpt>
      <trkpt lat="46.33884" lon="-1.28282">
        <ele>2.4</ele>
        <time>2020-06-02T16:08:25Z</time>
      </trkpt>
      <trkpt lat="46.33885" lon="-1.28289">
        <ele>2.3</ele>
        <time>2020-06-02T16:08:26Z</time>
      </trkpt>
      <trkpt lat="46.33888" lon="-1.28296">
        <ele>2.2</ele>
        <time>2020-06-02T16:08:27Z</time>
      </trkpt>
      <trkpt lat="46.3389" lon="-1.28304">
        <ele>2.2</ele>
        <time>2020-06-02T16:08:28Z</time>
      </trkpt>
      <trkpt lat="46.33891" lon="-1.28312">
        <ele>2.1</ele>
        <time>2020-06-02T16:08:29Z</time>
      </trkpt>
      <trkpt lat="46.33893" lon="-1.2832">
        <ele>2</ele>
        <time>2020-06-02T16:08:30Z</time>
      </trkpt>
      <trkpt lat="46.33894" lon="-1.28329">
        <ele>2</ele>
        <time>2020-06-02T16:08:31Z</time>
      </trkpt>
      <trkpt lat="46.33895" lon="-1.28337">
        <ele>1.9</ele>
        <time>2020-06-02T16:08:32Z</time>
      </trkpt>
      <trkpt lat="46.33896" lon="-1.28345">
        <ele>1.9</ele>
        <time>2020-06-02T16:08:33Z</time>
      </trkpt>
      <trkpt lat="46.33896" lon="-1.28353">
        <ele>1.8</ele>
        <time>2020-06-02T16:08:34Z</time>
      </trkpt>
      <trkpt lat="46.33897" lon="-1.28361">
        <ele>1.8</ele>
        <time>2020-06-02T16:08:35Z</time>
      </trkpt>
      <trkpt lat="46.33897" lon="-1.28369">
        <ele>1.8</ele>
        <time>2020-06-02T16:08:36Z</time>
      </trkpt>
      <trkpt lat="46.33897" lon="-1.28376">
        <ele>1.8</ele>
        <time>2020-06-02T16:08:37Z</time>
      </trkpt>
      <trkpt lat="46.33898" lon="-1.28382">
        <ele>1.8</ele>
        <time>2020-06-02T16:08:38Z</time>
      </trkpt>
      <trkpt lat="46.33898" lon="-1.28389">
        <ele>1.8</ele>
        <time>2020-06-02T16:08:39Z</time>
      </trkpt>
      <trkpt lat="46.33899" lon="-1.28396">
        <ele>1.8</ele>
        <time>2020-06-02T16:08:40Z</time>
      </trkpt>
      <trkpt lat="46.33899" lon="-1.28403">
        <ele>1.8</ele>
        <time>2020-06-02T16:08:41Z</time>
      </trkpt>
      <trkpt lat="46.33899" lon="-1.2841">
        <ele>1.8</ele>
        <time>2020-06-02T16:08:42Z</time>
      </trkpt>
      <trkpt lat="46.339" lon="-1.28417">
        <ele>1.8</ele>
        <time>2020-06-02T16:08:43Z</time>
      </trkpt>
      <trkpt lat="46.339" lon="-1.28424">
        <ele>1.8</ele>
        <time>2020-06-02T16:08:44Z</time>
      </trkpt>
      <trkpt lat="46.33901" lon="-1.28431">
        <ele>1.8</ele>
        <time>2020-06-02T16:08:45Z</time>
      </trkpt>
      <trkpt lat="46.33902" lon="-1.28438">
        <ele>1.8</ele>
        <time>2020-06-02T16:08:46Z</time>
      </trkpt>
      <trkpt lat="46.33903" lon="-1.28444">
        <ele>1.8</ele>
        <time>2020-06-02T16:08:47Z</time>
      </trkpt>
      <trkpt lat="46.33904" lon="-1.2845">
        <ele>1.8</ele>
        <time>2020-06-02T16:08:48Z</time>
      </trkpt>
      <trkpt lat="46.33905" lon="-1.28456">
        <ele>1.8</ele>
        <time>2020-06-02T16:08:49Z</time>
      </trkpt>
      <trkpt lat="46.33905" lon="-1.28462">
        <ele>1.8</ele>
        <time>2020-06-02T16:08:50Z</time>
      </trkpt>
      <trkpt lat="46.33906" lon="-1.28467">
        <ele>1.8</ele>
        <time>2020-06-02T16:08:51Z</time>
      </trkpt>
      <trkpt lat="46.33907" lon="-1.28472">
        <ele>1.8</ele>
        <time>2020-06-02T16:08:52Z</time>
      </trkpt>
      <trkpt lat="46.33909" lon="-1.28476">
        <ele>1.8</ele>
        <time>2020-06-02T16:08:53Z</time>
      </trkpt>
      <trkpt lat="46.33911" lon="-1.28481">
        <ele>1.8</ele>
        <time>2020-06-02T16:08:54Z</time>
      </trkpt>
      <trkpt lat="46.33912" lon="-1.28486">
        <ele>1.8</ele>
        <time>2020-06-02T16:08:55Z</time>
      </trkpt>
      <trkpt lat="46.33912" lon="-1.2849">
        <ele>1.8</ele>
        <time>2020-06-02T16:08:56Z</time>
      </trkpt>
      <trkpt lat="46.33912" lon="-1.28494">
        <ele>1.8</ele>
        <time>2020-06-02T16:08:57Z</time>
      </trkpt>
      <trkpt lat="46.33911" lon="-1.28498">
        <ele>1.8</ele>
        <time>2020-06-02T16:08:58Z</time>
      </trkpt>
      <trkpt lat="46.33912" lon="-1.28502">
        <ele>1.8</ele>
        <time>2020-06-02T16:08:59Z</time>
      </trkpt>
      <trkpt lat="46.33912" lon="-1.28508">
        <ele>1.8</ele>
        <time>2020-06-02T16:09:00Z</time>
      </trkpt>
      <trkpt lat="46.33912" lon="-1.2851">
        <ele>1.8</ele>
        <time>2020-06-02T16:09:01Z</time>
      </trkpt>
      <trkpt lat="46.33913" lon="-1.28514">
        <ele>1.8</ele>
        <time>2020-06-02T16:09:02Z</time>
      </trkpt>
      <trkpt lat="46.33915" lon="-1.28518">
        <ele>1.8</ele>
        <time>2020-06-02T16:09:03Z</time>
      </trkpt>
      <trkpt lat="46.33916" lon="-1.28523">
        <ele>1.8</ele>
        <time>2020-06-02T16:09:04Z</time>
      </trkpt>
      <trkpt lat="46.33917" lon="-1.28527">
        <ele>1.8</ele>
        <time>2020-06-02T16:09:05Z</time>
      </trkpt>
      <trkpt lat="46.33918" lon="-1.28532">
        <ele>1.8</ele>
        <time>2020-06-02T16:09:06Z</time>
      </trkpt>
      <trkpt lat="46.33919" lon="-1.28537">
        <ele>1.8</ele>
        <time>2020-06-02T16:09:07Z</time>
      </trkpt>
      <trkpt lat="46.3392" lon="-1.28542">
        <ele>1.8</ele>
        <time>2020-06-02T16:09:08Z</time>
      </trkpt>
      <trkpt lat="46.33921" lon="-1.28546">
        <ele>1.8</ele>
        <time>2020-06-02T16:09:09Z</time>
      </trkpt>
      <trkpt lat="46.33922" lon="-1.28552">
        <ele>1.8</ele>
        <time>2020-06-02T16:09:10Z</time>
      </trkpt>
      <trkpt lat="46.33923" lon="-1.28556">
        <ele>1.9</ele>
        <time>2020-06-02T16:09:11Z</time>
      </trkpt>
      <trkpt lat="46.33924" lon="-1.28561">
        <ele>1.9</ele>
        <time>2020-06-02T16:09:12Z</time>
      </trkpt>
      <trkpt lat="46.33925" lon="-1.28565">
        <ele>1.9</ele>
        <time>2020-06-02T16:09:13Z</time>
      </trkpt>
      <trkpt lat="46.33926" lon="-1.2857">
        <ele>1.9</ele>
        <time>2020-06-02T16:09:14Z</time>
      </trkpt>
      <trkpt lat="46.33927" lon="-1.28572">
        <ele>1.9</ele>
        <time>2020-06-02T16:09:15Z</time>
      </trkpt>
      <trkpt lat="46.33928" lon="-1.28574">
        <ele>1.9</ele>
        <time>2020-06-02T16:09:16Z</time>
      </trkpt>
      <trkpt lat="46.33928" lon="-1.28576">
        <ele>1.9</ele>
        <time>2020-06-02T16:09:17Z</time>
      </trkpt>
      <trkpt lat="46.3393" lon="-1.28579">
        <ele>1.9</ele>
        <time>2020-06-02T16:09:18Z</time>
      </trkpt>
      <trkpt lat="46.3393" lon="-1.28581">
        <ele>1.9</ele>
        <time>2020-06-02T16:09:19Z</time>
      </trkpt>
      <trkpt lat="46.33932" lon="-1.28585">
        <ele>2</ele>
        <time>2020-06-02T16:09:20Z</time>
      </trkpt>
      <trkpt lat="46.33933" lon="-1.28587">
        <ele>2</ele>
        <time>2020-06-02T16:09:21Z</time>
      </trkpt>
      <trkpt lat="46.33934" lon="-1.28591">
        <ele>2</ele>
        <time>2020-06-02T16:09:22Z</time>
      </trkpt>
      <trkpt lat="46.33934" lon="-1.28592">
        <ele>2</ele>
        <time>2020-06-02T16:09:23Z</time>
      </trkpt>
      <trkpt lat="46.33935" lon="-1.28596">
        <ele>2</ele>
        <time>2020-06-02T16:09:24Z</time>
      </trkpt>
      <trkpt lat="46.33935" lon="-1.28597">
        <ele>2</ele>
        <time>2020-06-02T16:09:25Z</time>
      </trkpt>
      <trkpt lat="46.33936" lon="-1.28598">
        <ele>2</ele>
        <time>2020-06-02T16:09:26Z</time>
      </trkpt>
      <trkpt lat="46.33936" lon="-1.28598">
        <ele>2</ele>
        <time>2020-06-02T16:09:27Z</time>
      </trkpt>
      <trkpt lat="46.33936" lon="-1.28598">
        <ele>2</ele>
        <time>2020-06-02T16:09:28Z</time>
      </trkpt>
      <trkpt lat="46.33936" lon="-1.28597">
        <ele>2</ele>
        <time>2020-06-02T16:09:29Z</time>
      </trkpt>
      <trkpt lat="46.33936" lon="-1.28597">
        <ele>2</ele>
        <time>2020-06-02T16:09:30Z</time>
      </trkpt>
      <trkpt lat="46.33936" lon="-1.28597">
        <ele>2</ele>
        <time>2020-06-02T16:09:31Z</time>
      </trkpt>
      <trkpt lat="46.33936" lon="-1.28597">
        <ele>2</ele>
        <time>2020-06-02T16:09:32Z</time>
      </trkpt>
      <trkpt lat="46.33936" lon="-1.28597">
        <ele>2</ele>
        <time>2020-06-02T16:09:33Z</time>
      </trkpt>
      <trkpt lat="46.33936" lon="-1.28597">
        <ele>2</ele>
        <time>2020-06-02T16:09:34Z</time>
      </trkpt>
      <trkpt lat="46.33936" lon="-1.28598">
        <ele>2</ele>
        <time>2020-06-02T16:09:35Z</time>
      </trkpt>
      <trkpt lat="46.33936" lon="-1.28598">
        <ele>2</ele>
        <time>2020-06-02T16:09:36Z</time>
      </trkpt>
      <trkpt lat="46.33936" lon="-1.28598">
        <ele>2</ele>
        <time>2020-06-02T16:09:37Z</time>
      </trkpt>
      <trkpt lat="46.33936" lon="-1.28598">
        <ele>2</ele>
        <time>2020-06-02T16:09:38Z</time>
      </trkpt>
      <trkpt lat="46.33936" lon="-1.28597">
        <ele>2</ele>
        <time>2020-06-02T16:09:39Z</time>
      </trkpt>
      <trkpt lat="46.33936" lon="-1.28597">
        <ele>2</ele>
        <time>2020-06-02T16:09:40Z</time>
      </trkpt>
      <trkpt lat="46.33936" lon="-1.28598">
        <ele>2</ele>
        <time>2020-06-02T16:09:41Z</time>
      </trkpt>
      <trkpt lat="46.33935" lon="-1.28598">
        <ele>2</ele>
        <time>2020-06-02T16:09:42Z</time>
      </trkpt>
      <trkpt lat="46.33935" lon="-1.28599">
        <ele>2</ele>
        <time>2020-06-02T16:09:43Z</time>
      </trkpt>
      <trkpt lat="46.33935" lon="-1.28598">
        <ele>2</ele>
        <time>2020-06-02T16:09:44Z</time>
      </trkpt>
      <trkpt lat="46.33935" lon="-1.28598">
        <ele>2</ele>
        <time>2020-06-02T16:09:45Z</time>
      </trkpt>
      <trkpt lat="46.33935" lon="-1.28598">
        <ele>2</ele>
        <time>2020-06-02T16:09:46Z</time>
      </trkpt>
      <trkpt lat="46.33935" lon="-1.28598">
        <ele>2</ele>
        <time>2020-06-02T16:09:47Z</time>
      </trkpt>
      <trkpt lat="46.33935" lon="-1.28598">
        <ele>2</ele>
        <time>2020-06-02T16:09:48Z</time>
      </trkpt>
      <trkpt lat="46.33936" lon="-1.28598">
        <ele>2</ele>
        <time>2020-06-02T16:09:49Z</time>
      </trkpt>
      <trkpt lat="46.33936" lon="-1.28598">
        <ele>2</ele>
        <time>2020-06-02T16:09:50Z</time>
      </trkpt>
      <trkpt lat="46.33935" lon="-1.28598">
        <ele>2</ele>
        <time>2020-06-02T16:09:51Z</time>
      </trkpt>
      <trkpt lat="46.33935" lon="-1.28599">
        <ele>2</ele>
        <time>2020-06-02T16:09:52Z</time>
      </trkpt>
      <trkpt lat="46.33935" lon="-1.28599">
        <ele>2</ele>
        <time>2020-06-02T16:09:53Z</time>
      </trkpt>
      <trkpt lat="46.33935" lon="-1.28598">
        <ele>2</ele>
        <time>2020-06-02T16:09:54Z</time>
      </trkpt>
      <trkpt lat="46.33935" lon="-1.28598">
        <ele>2</ele>
        <time>2020-06-02T16:09:55Z</time>
      </trkpt>
      <trkpt lat="46.33936" lon="-1.28599">
        <ele>2</ele>
        <time>2020-06-02T16:09:56Z</time>
      </trkpt>
      <trkpt lat="46.33936" lon="-1.28599">
        <ele>2</ele>
        <time>2020-06-02T16:09:57Z</time>
      </trkpt>
      <trkpt lat="46.33936" lon="-1.28599">
        <ele>2</ele>
        <time>2020-06-02T16:09:58Z</time>
      </trkpt>
      <trkpt lat="46.33936" lon="-1.28599">
        <ele>2</ele>
        <time>2020-06-02T16:09:59Z</time>
      </trkpt>
      <trkpt lat="46.33935" lon="-1.28596">
        <ele>2</ele>
        <time>2020-06-02T16:10:00Z</time>
      </trkpt>
      <trkpt lat="46.33935" lon="-1.28595">
        <ele>2</ele>
        <time>2020-06-02T16:10:01Z</time>
      </trkpt>
      <trkpt lat="46.33934" lon="-1.28593">
        <ele>2</ele>
        <time>2020-06-02T16:10:02Z</time>
      </trkpt>
      <trkpt lat="46.33933" lon="-1.28588">
        <ele>2</ele>
        <time>2020-06-02T16:10:03Z</time>
      </trkpt>
      <trkpt lat="46.33932" lon="-1.28586">
        <ele>2</ele>
        <time>2020-06-02T16:10:04Z</time>
      </trkpt>
      <trkpt lat="46.3393" lon="-1.28581">
        <ele>2</ele>
        <time>2020-06-02T16:10:05Z</time>
      </trkpt>
      <trkpt lat="46.33929" lon="-1.28576">
        <ele>2</ele>
        <time>2020-06-02T16:10:06Z</time>
      </trkpt>
      <trkpt lat="46.33928" lon="-1.28572">
        <ele>2</ele>
        <time>2020-06-02T16:10:07Z</time>
      </trkpt>
      <trkpt lat="46.33927" lon="-1.28567">
        <ele>1.9</ele>
        <time>2020-06-02T16:10:08Z</time>
      </trkpt>
      <trkpt lat="46.33926" lon="-1.28561">
        <ele>1.9</ele>
        <time>2020-06-02T16:10:09Z</time>
      </trkpt>
      <trkpt lat="46.33924" lon="-1.28555">
        <ele>1.9</ele>
        <time>2020-06-02T16:10:10Z</time>
      </trkpt>
      <trkpt lat="46.33923" lon="-1.2855">
        <ele>1.9</ele>
        <time>2020-06-02T16:10:11Z</time>
      </trkpt>
      <trkpt lat="46.33921" lon="-1.28543">
        <ele>1.9</ele>
        <time>2020-06-02T16:10:12Z</time>
      </trkpt>
      <trkpt lat="46.33921" lon="-1.28536">
        <ele>1.8</ele>
        <time>2020-06-02T16:10:13Z</time>
      </trkpt>
      <trkpt lat="46.3392" lon="-1.28529">
        <ele>1.8</ele>
        <time>2020-06-02T16:10:14Z</time>
      </trkpt>
      <trkpt lat="46.33919" lon="-1.28522">
        <ele>1.8</ele>
        <time>2020-06-02T16:10:15Z</time>
      </trkpt>
      <trkpt lat="46.33918" lon="-1.28515">
        <ele>1.8</ele>
        <time>2020-06-02T16:10:16Z</time>
      </trkpt>
      <trkpt lat="46.33917" lon="-1.28509">
        <ele>1.8</ele>
        <time>2020-06-02T16:10:17Z</time>
      </trkpt>
      <trkpt lat="46.33915" lon="-1.285">
        <ele>1.8</ele>
        <time>2020-06-02T16:10:18Z</time>
      </trkpt>
      <trkpt lat="46.33913" lon="-1.28493">
        <ele>1.8</ele>
        <time>2020-06-02T16:10:19Z</time>
      </trkpt>
      <trkpt lat="46.33911" lon="-1.28485">
        <ele>1.8</ele>
        <time>2020-06-02T16:10:20Z</time>
      </trkpt>
      <trkpt lat="46.3391" lon="-1.28479">
        <ele>1.8</ele>
        <time>2020-06-02T16:10:21Z</time>
      </trkpt>
      <trkpt lat="46.33908" lon="-1.28471">
        <ele>1.8</ele>
        <time>2020-06-02T16:10:22Z</time>
      </trkpt>
      <trkpt lat="46.33907" lon="-1.28463">
        <ele>1.8</ele>
        <time>2020-06-02T16:10:23Z</time>
      </trkpt>
      <trkpt lat="46.33905" lon="-1.28456">
        <ele>1.8</ele>
        <time>2020-06-02T16:10:24Z</time>
      </trkpt>
      <trkpt lat="46.33905" lon="-1.28449">
        <ele>1.8</ele>
        <time>2020-06-02T16:10:25Z</time>
      </trkpt>
      <trkpt lat="46.33903" lon="-1.28441">
        <ele>1.8</ele>
        <time>2020-06-02T16:10:26Z</time>
      </trkpt>
      <trkpt lat="46.33902" lon="-1.28434">
        <ele>1.8</ele>
        <time>2020-06-02T16:10:27Z</time>
      </trkpt>
      <trkpt lat="46.33901" lon="-1.28427">
        <ele>1.8</ele>
        <time>2020-06-02T16:10:28Z</time>
      </trkpt>
      <trkpt lat="46.339" lon="-1.2842">
        <ele>1.8</ele>
        <time>2020-06-02T16:10:29Z</time>
      </trkpt>
      <trkpt lat="46.33899" lon="-1.28412">
        <ele>1.8</ele>
        <time>2020-06-02T16:10:30Z</time>
      </trkpt>
      <trkpt lat="46.33897" lon="-1.28405">
        <ele>1.8</ele>
        <time>2020-06-02T16:10:31Z</time>
      </trkpt>
      <trkpt lat="46.33896" lon="-1.28398">
        <ele>1.8</ele>
        <time>2020-06-02T16:10:32Z</time>
      </trkpt>
      <trkpt lat="46.33895" lon="-1.2839">
        <ele>1.8</ele>
        <time>2020-06-02T16:10:33Z</time>
      </trkpt>
      <trkpt lat="46.33895" lon="-1.28383">
        <ele>1.8</ele>
        <time>2020-06-02T16:10:34Z</time>
      </trkpt>
      <trkpt lat="46.33895" lon="-1.28377">
        <ele>1.8</ele>
        <time>2020-06-02T16:10:35Z</time>
      </trkpt>
      <trkpt lat="46.33894" lon="-1.28369">
        <ele>1.8</ele>
        <time>2020-06-02T16:10:36Z</time>
      </trkpt>
      <trkpt lat="46.33894" lon="-1.28362">
        <ele>1.8</ele>
        <time>2020-06-02T16:10:37Z</time>
      </trkpt>
      <trkpt lat="46.33894" lon="-1.28355">
        <ele>1.8</ele>
        <time>2020-06-02T16:10:38Z</time>
      </trkpt>
      <trkpt lat="46.33894" lon="-1.28348">
        <ele>1.8</ele>
        <time>2020-06-02T16:10:39Z</time>
      </trkpt>
      <trkpt lat="46.33894" lon="-1.28341">
        <ele>1.9</ele>
        <time>2020-06-02T16:10:40Z</time>
      </trkpt>
      <trkpt lat="46.33893" lon="-1.28335">
        <ele>1.9</ele>
        <time>2020-06-02T16:10:41Z</time>
      </trkpt>
      <trkpt lat="46.33892" lon="-1.28329">
        <ele>2</ele>
        <time>2020-06-02T16:10:42Z</time>
      </trkpt>
      <trkpt lat="46.33891" lon="-1.28323">
        <ele>2</ele>
        <time>2020-06-02T16:10:43Z</time>
      </trkpt>
      <trkpt lat="46.3389" lon="-1.28317">
        <ele>2</ele>
        <time>2020-06-02T16:10:44Z</time>
      </trkpt>
      <trkpt lat="46.33889" lon="-1.2831">
        <ele>2.1</ele>
        <time>2020-06-02T16:10:45Z</time>
      </trkpt>
      <trkpt lat="46.33888" lon="-1.28303">
        <ele>2.2</ele>
        <time>2020-06-02T16:10:46Z</time>
      </trkpt>
      <trkpt lat="46.33886" lon="-1.28297">
        <ele>2.2</ele>
        <time>2020-06-02T16:10:47Z</time>
      </trkpt>
      <trkpt lat="46.33884" lon="-1.28291">
        <ele>2.3</ele>
        <time>2020-06-02T16:10:48Z</time>
      </trkpt>
      <trkpt lat="46.33882" lon="-1.28284">
        <ele>2.3</ele>
        <time>2020-06-02T16:10:49Z</time>
      </trkpt>
      <trkpt lat="46.3388" lon="-1.28278">
        <ele>2.4</ele>
        <time>2020-06-02T16:10:50Z</time>
      </trkpt>
      <trkpt lat="46.33879" lon="-1.28271">
        <ele>2.4</ele>
        <time>2020-06-02T16:10:51Z</time>
      </trkpt>
      <trkpt lat="46.33877" lon="-1.28265">
        <ele>2.4</ele>
        <time>2020-06-02T16:10:52Z</time>
      </trkpt>
      <trkpt lat="46.33875" lon="-1.28258">
        <ele>2.4</ele>
        <time>2020-06-02T16:10:53Z</time>
      </trkpt>
      <trkpt lat="46.33873" lon="-1.28252">
        <ele>2.4</ele>
        <time>2020-06-02T16:10:54Z</time>
      </trkpt>
      <trkpt lat="46.33872" lon="-1.28246">
        <ele>2.4</ele>
        <time>2020-06-02T16:10:55Z</time>
      </trkpt>
      <trkpt lat="46.33871" lon="-1.28238">
        <ele>2.4</ele>
        <time>2020-06-02T16:10:56Z</time>
      </trkpt>
      <trkpt lat="46.3387" lon="-1.2823">
        <ele>2.4</ele>
        <time>2020-06-02T16:10:57Z</time>
      </trkpt>
      <trkpt lat="46.33871" lon="-1.2822">
        <ele>2.4</ele>
        <time>2020-06-02T16:10:58Z</time>
      </trkpt>
      <trkpt lat="46.33872" lon="-1.28211">
        <ele>2.4</ele>
        <time>2020-06-02T16:10:59Z</time>
      </trkpt>
      <trkpt lat="46.33874" lon="-1.28202">
        <ele>2.5</ele>
        <time>2020-06-02T16:11:00Z</time>
      </trkpt>
      <trkpt lat="46.33876" lon="-1.28194">
        <ele>2.5</ele>
        <time>2020-06-02T16:11:01Z</time>
      </trkpt>
      <trkpt lat="46.33878" lon="-1.28186">
        <ele>2.6</ele>
        <time>2020-06-02T16:11:02Z</time>
      </trkpt>
      <trkpt lat="46.3388" lon="-1.2818">
        <ele>2.6</ele>
        <time>2020-06-02T16:11:03Z</time>
      </trkpt>
      <trkpt lat="46.33881" lon="-1.28173">
        <ele>2.6</ele>
        <time>2020-06-02T16:11:04Z</time>
      </trkpt>
      <trkpt lat="46.33883" lon="-1.28166">
        <ele>2.7</ele>
        <time>2020-06-02T16:11:05Z</time>
      </trkpt>
      <trkpt lat="46.33885" lon="-1.28158">
        <ele>2.8</ele>
        <time>2020-06-02T16:11:06Z</time>
      </trkpt>
      <trkpt lat="46.33886" lon="-1.28151">
        <ele>2.8</ele>
        <time>2020-06-02T16:11:07Z</time>
      </trkpt>
      <trkpt lat="46.33888" lon="-1.28143">
        <ele>2.9</ele>
        <time>2020-06-02T16:11:08Z</time>
      </trkpt>
      <trkpt lat="46.3389" lon="-1.28135">
        <ele>3</ele>
        <time>2020-06-02T16:11:09Z</time>
      </trkpt>
      <trkpt lat="46.33891" lon="-1.28128">
        <ele>3</ele>
        <time>2020-06-02T16:11:10Z</time>
      </trkpt>
      <trkpt lat="46.33892" lon="-1.28121">
        <ele>3.1</ele>
        <time>2020-06-02T16:11:11Z</time>
      </trkpt>
      <trkpt lat="46.33892" lon="-1.28115">
        <ele>3.2</ele>
        <time>2020-06-02T16:11:12Z</time>
      </trkpt>
      <trkpt lat="46.33891" lon="-1.28109">
        <ele>3.2</ele>
        <time>2020-06-02T16:11:13Z</time>
      </trkpt>
      <trkpt lat="46.33888" lon="-1.28103">
        <ele>3.3</ele>
        <time>2020-06-02T16:11:14Z</time>
      </trkpt>
      <trkpt lat="46.33885" lon="-1.28098">
        <ele>3.3</ele>
        <time>2020-06-02T16:11:15Z</time>
      </trkpt>
      <trkpt lat="46.33882" lon="-1.28094">
        <ele>3.4</ele>
        <time>2020-06-02T16:11:16Z</time>
      </trkpt>
      <trkpt lat="46.33879" lon="-1.28092">
        <ele>3.5</ele>
        <time>2020-06-02T16:11:17Z</time>
      </trkpt>
      <trkpt lat="46.33875" lon="-1.2809">
        <ele>3.5</ele>
        <time>2020-06-02T16:11:18Z</time>
      </trkpt>
      <trkpt lat="46.33871" lon="-1.2809">
        <ele>3.6</ele>
        <time>2020-06-02T16:11:19Z</time>
      </trkpt>
      <trkpt lat="46.33868" lon="-1.28093">
        <ele>3.6</ele>
        <time>2020-06-02T16:11:20Z</time>
      </trkpt>
      <trkpt lat="46.33866" lon="-1.28098">
        <ele>3.7</ele>
        <time>2020-06-02T16:11:21Z</time>
      </trkpt>
      <trkpt lat="46.33865" lon="-1.28104">
        <ele>3.8</ele>
        <time>2020-06-02T16:11:22Z</time>
      </trkpt>
      <trkpt lat="46.33863" lon="-1.2811">
        <ele>3.8</ele>
        <time>2020-06-02T16:11:23Z</time>
      </trkpt>
      <trkpt lat="46.33862" lon="-1.28117">
        <ele>3.8</ele>
        <time>2020-06-02T16:11:24Z</time>
      </trkpt>
      <trkpt lat="46.33861" lon="-1.28124">
        <ele>3.9</ele>
        <time>2020-06-02T16:11:25Z</time>
      </trkpt>
      <trkpt lat="46.3386" lon="-1.2813">
        <ele>3.9</ele>
        <time>2020-06-02T16:11:26Z</time>
      </trkpt>
      <trkpt lat="46.33859" lon="-1.28138">
        <ele>3.9</ele>
        <time>2020-06-02T16:11:27Z</time>
      </trkpt>
      <trkpt lat="46.33858" lon="-1.28146">
        <ele>3.9</ele>
        <time>2020-06-02T16:11:28Z</time>
      </trkpt>
      <trkpt lat="46.33857" lon="-1.28154">
        <ele>3.9</ele>
        <time>2020-06-02T16:11:29Z</time>
      </trkpt>
      <trkpt lat="46.33856" lon="-1.28161">
        <ele>3.9</ele>
        <time>2020-06-02T16:11:30Z</time>
      </trkpt>
      <trkpt lat="46.33855" lon="-1.28168">
        <ele>3.9</ele>
        <time>2020-06-02T16:11:31Z</time>
      </trkpt>
      <trkpt lat="46.33853" lon="-1.28175">
        <ele>3.9</ele>
        <time>2020-06-02T16:11:32Z</time>
      </trkpt>
      <trkpt lat="46.33851" lon="-1.28182">
        <ele>3.9</ele>
        <time>2020-06-02T16:11:33Z</time>
      </trkpt>
      <trkpt lat="46.33846" lon="-1.28186">
        <ele>3.9</ele>
        <time>2020-06-02T16:11:34Z</time>
      </trkpt>
      <trkpt lat="46.33841" lon="-1.28189">
        <ele>3.9</ele>
        <time>2020-06-02T16:11:35Z</time>
      </trkpt>
      <trkpt lat="46.33836" lon="-1.28192">
        <ele>3.9</ele>
        <time>2020-06-02T16:11:36Z</time>
      </trkpt>
      <trkpt lat="46.33831" lon="-1.28194">
        <ele>3.9</ele>
        <time>2020-06-02T16:11:37Z</time>
      </trkpt>
      <trkpt lat="46.33825" lon="-1.28195">
        <ele>3.9</ele>
        <time>2020-06-02T16:11:38Z</time>
      </trkpt>
      <trkpt lat="46.33819" lon="-1.28194">
        <ele>3.9</ele>
        <time>2020-06-02T16:11:39Z</time>
      </trkpt>
      <trkpt lat="46.33813" lon="-1.28193">
        <ele>3.8</ele>
        <time>2020-06-02T16:11:40Z</time>
      </trkpt>
      <trkpt lat="46.33807" lon="-1.28192">
        <ele>3.8</ele>
        <time>2020-06-02T16:11:41Z</time>
      </trkpt>
      <trkpt lat="46.33801" lon="-1.28192">
        <ele>3.7</ele>
        <time>2020-06-02T16:11:42Z</time>
      </trkpt>
      <trkpt lat="46.33796" lon="-1.28194">
        <ele>3.6</ele>
        <time>2020-06-02T16:11:43Z</time>
      </trkpt>
      <trkpt lat="46.3379" lon="-1.28199">
        <ele>3.5</ele>
        <time>2020-06-02T16:11:44Z</time>
      </trkpt>
      <trkpt lat="46.33785" lon="-1.28204">
        <ele>3.4</ele>
        <time>2020-06-02T16:11:45Z</time>
      </trkpt>
      <trkpt lat="46.3378" lon="-1.2821">
        <ele>3.3</ele>
        <time>2020-06-02T16:11:46Z</time>
      </trkpt>
      <trkpt lat="46.33775" lon="-1.28216">
        <ele>3.3</ele>
        <time>2020-06-02T16:11:47Z</time>
      </trkpt>
      <trkpt lat="46.3377" lon="-1.28223">
        <ele>3.2</ele>
        <time>2020-06-02T16:11:48Z</time>
      </trkpt>
      <trkpt lat="46.33766" lon="-1.2823">
        <ele>3.1</ele>
        <time>2020-06-02T16:11:49Z</time>
      </trkpt>
      <trkpt lat="46.33761" lon="-1.28236">
        <ele>3</ele>
        <time>2020-06-02T16:11:50Z</time>
      </trkpt>
      <trkpt lat="46.33756" lon="-1.28243">
        <ele>3</ele>
        <time>2020-06-02T16:11:51Z</time>
      </trkpt>
      <trkpt lat="46.33751" lon="-1.28249">
        <ele>3</ele>
        <time>2020-06-02T16:11:52Z</time>
      </trkpt>
      <trkpt lat="46.33747" lon="-1.28256">
        <ele>2.9</ele>
        <time>2020-06-02T16:11:53Z</time>
      </trkpt>
      <trkpt lat="46.33743" lon="-1.28263">
        <ele>2.8</ele>
        <time>2020-06-02T16:11:54Z</time>
      </trkpt>
      <trkpt lat="46.33738" lon="-1.2827">
        <ele>2.8</ele>
        <time>2020-06-02T16:11:55Z</time>
      </trkpt>
      <trkpt lat="46.33734" lon="-1.28277">
        <ele>2.9</ele>
        <time>2020-06-02T16:11:56Z</time>
      </trkpt>
      <trkpt lat="46.3373" lon="-1.28284">
        <ele>2.9</ele>
        <time>2020-06-02T16:11:57Z</time>
      </trkpt>
      <trkpt lat="46.33726" lon="-1.28291">
        <ele>2.9</ele>
        <time>2020-06-02T16:11:58Z</time>
      </trkpt>
      <trkpt lat="46.33722" lon="-1.28297">
        <ele>2.9</ele>
        <time>2020-06-02T16:11:59Z</time>
      </trkpt>
      <trkpt lat="46.33719" lon="-1.28304">
        <ele>2.9</ele>
        <time>2020-06-02T16:12:00Z</time>
      </trkpt>
      <trkpt lat="46.33715" lon="-1.28311">
        <ele>3</ele>
        <time>2020-06-02T16:12:01Z</time>
      </trkpt>
      <trkpt lat="46.33711" lon="-1.28317">
        <ele>3</ele>
        <time>2020-06-02T16:12:02Z</time>
      </trkpt>
      <trkpt lat="46.33708" lon="-1.28323">
        <ele>3</ele>
        <time>2020-06-02T16:12:03Z</time>
      </trkpt>
      <trkpt lat="46.33703" lon="-1.28331">
        <ele>3.1</ele>
        <time>2020-06-02T16:12:04Z</time>
      </trkpt>
      <trkpt lat="46.33698" lon="-1.28338">
        <ele>3.1</ele>
        <time>2020-06-02T16:12:05Z</time>
      </trkpt>
      <trkpt lat="46.33694" lon="-1.28346">
        <ele>3.1</ele>
        <time>2020-06-02T16:12:06Z</time>
      </trkpt>
      <trkpt lat="46.33689" lon="-1.28354">
        <ele>3.1</ele>
        <time>2020-06-02T16:12:07Z</time>
      </trkpt>
      <trkpt lat="46.33685" lon="-1.28362">
        <ele>3.2</ele>
        <time>2020-06-02T16:12:08Z</time>
      </trkpt>
      <trkpt lat="46.33681" lon="-1.28369">
        <ele>3.2</ele>
        <time>2020-06-02T16:12:09Z</time>
      </trkpt>
      <trkpt lat="46.33677" lon="-1.28378">
        <ele>3.3</ele>
        <time>2020-06-02T16:12:10Z</time>
      </trkpt>
      <trkpt lat="46.33674" lon="-1.28386">
        <ele>3.3</ele>
        <time>2020-06-02T16:12:11Z</time>
      </trkpt>
      <trkpt lat="46.3367" lon="-1.28395">
        <ele>3.3</ele>
        <time>2020-06-02T16:12:12Z</time>
      </trkpt>
      <trkpt lat="46.33667" lon="-1.28403">
        <ele>3.3</ele>
        <time>2020-06-02T16:12:13Z</time>
      </trkpt>
      <trkpt lat="46.33664" lon="-1.28411">
        <ele>3.2</ele>
        <time>2020-06-02T16:12:14Z</time>
      </trkpt>
      <trkpt lat="46.3366" lon="-1.2842">
        <ele>3.2</ele>
        <time>2020-06-02T16:12:15Z</time>
      </trkpt>
      <trkpt lat="46.33657" lon="-1.28429">
        <ele>3.2</ele>
        <time>2020-06-02T16:12:16Z</time>
      </trkpt>
      <trkpt lat="46.33653" lon="-1.28437">
        <ele>3.2</ele>
        <time>2020-06-02T16:12:17Z</time>
      </trkpt>
      <trkpt lat="46.3365" lon="-1.28446">
        <ele>3.2</ele>
        <time>2020-06-02T16:12:18Z</time>
      </trkpt>
      <trkpt lat="46.33647" lon="-1.28454">
        <ele>3.2</ele>
        <time>2020-06-02T16:12:19Z</time>
      </trkpt>
      <trkpt lat="46.33644" lon="-1.28463">
        <ele>3.2</ele>
        <time>2020-06-02T16:12:20Z</time>
      </trkpt>
      <trkpt lat="46.3364" lon="-1.28471">
        <ele>3.2</ele>
        <time>2020-06-02T16:12:21Z</time>
      </trkpt>
      <trkpt lat="46.33637" lon="-1.28478">
        <ele>3.2</ele>
        <time>2020-06-02T16:12:22Z</time>
      </trkpt>
      <trkpt lat="46.33634" lon="-1.28486">
        <ele>3.2</ele>
        <time>2020-06-02T16:12:23Z</time>
      </trkpt>
      <trkpt lat="46.33631" lon="-1.28493">
        <ele>3.2</ele>
        <time>2020-06-02T16:12:24Z</time>
      </trkpt>
      <trkpt lat="46.33628" lon="-1.28501">
        <ele>3.2</ele>
        <time>2020-06-02T16:12:25Z</time>
      </trkpt>
      <trkpt lat="46.33625" lon="-1.28508">
        <ele>3.2</ele>
        <time>2020-06-02T16:12:26Z</time>
      </trkpt>
      <trkpt lat="46.33622" lon="-1.28516">
        <ele>3.2</ele>
        <time>2020-06-02T16:12:27Z</time>
      </trkpt>
      <trkpt lat="46.33619" lon="-1.28523">
        <ele>3.1</ele>
        <time>2020-06-02T16:12:28Z</time>
      </trkpt>
      <trkpt lat="46.33616" lon="-1.28531">
        <ele>3.1</ele>
        <time>2020-06-02T16:12:29Z</time>
      </trkpt>
      <trkpt lat="46.33613" lon="-1.28538">
        <ele>3.1</ele>
        <time>2020-06-02T16:12:30Z</time>
      </trkpt>
      <trkpt lat="46.33611" lon="-1.28545">
        <ele>3.1</ele>
        <time>2020-06-02T16:12:31Z</time>
      </trkpt>
      <trkpt lat="46.33608" lon="-1.28553">
        <ele>3.1</ele>
        <time>2020-06-02T16:12:32Z</time>
      </trkpt>
      <trkpt lat="46.33605" lon="-1.28561">
        <ele>3.1</ele>
        <time>2020-06-02T16:12:33Z</time>
      </trkpt>
      <trkpt lat="46.33602" lon="-1.28569">
        <ele>3.1</ele>
        <time>2020-06-02T16:12:34Z</time>
      </trkpt>
      <trkpt lat="46.33599" lon="-1.28577">
        <ele>3.1</ele>
        <time>2020-06-02T16:12:35Z</time>
      </trkpt>
      <trkpt lat="46.33596" lon="-1.28585">
        <ele>3.1</ele>
        <time>2020-06-02T16:12:36Z</time>
      </trkpt>
      <trkpt lat="46.33593" lon="-1.28594">
        <ele>3.1</ele>
        <time>2020-06-02T16:12:37Z</time>
      </trkpt>
      <trkpt lat="46.3359" lon="-1.28602">
        <ele>3.1</ele>
        <time>2020-06-02T16:12:38Z</time>
      </trkpt>
      <trkpt lat="46.33587" lon="-1.2861">
        <ele>3.1</ele>
        <time>2020-06-02T16:12:39Z</time>
      </trkpt>
      <trkpt lat="46.33584" lon="-1.28619">
        <ele>3.1</ele>
        <time>2020-06-02T16:12:40Z</time>
      </trkpt>
      <trkpt lat="46.33581" lon="-1.28627">
        <ele>3.1</ele>
        <time>2020-06-02T16:12:41Z</time>
      </trkpt>
      <trkpt lat="46.33578" lon="-1.28636">
        <ele>3.1</ele>
        <time>2020-06-02T16:12:42Z</time>
      </trkpt>
      <trkpt lat="46.33575" lon="-1.28644">
        <ele>3.1</ele>
        <time>2020-06-02T16:12:43Z</time>
      </trkpt>
      <trkpt lat="46.33571" lon="-1.28652">
        <ele>3.1</ele>
        <time>2020-06-02T16:12:44Z</time>
      </trkpt>
      <trkpt lat="46.33568" lon="-1.2866">
        <ele>3.1</ele>
        <time>2020-06-02T16:12:45Z</time>
      </trkpt>
      <trkpt lat="46.33565" lon="-1.28668">
        <ele>3.1</ele>
        <time>2020-06-02T16:12:46Z</time>
      </trkpt>
      <trkpt lat="46.33561" lon="-1.28675">
        <ele>3.1</ele>
        <time>2020-06-02T16:12:47Z</time>
      </trkpt>
      <trkpt lat="46.33557" lon="-1.28683">
        <ele>3.1</ele>
        <time>2020-06-02T16:12:48Z</time>
      </trkpt>
      <trkpt lat="46.33554" lon="-1.28691">
        <ele>3</ele>
        <time>2020-06-02T16:12:49Z</time>
      </trkpt>
      <trkpt lat="46.33551" lon="-1.287">
        <ele>3</ele>
        <time>2020-06-02T16:12:50Z</time>
      </trkpt>
      <trkpt lat="46.33547" lon="-1.28708">
        <ele>3</ele>
        <time>2020-06-02T16:12:51Z</time>
      </trkpt>
      <trkpt lat="46.33544" lon="-1.28716">
        <ele>3</ele>
        <time>2020-06-02T16:12:52Z</time>
      </trkpt>
      <trkpt lat="46.3354" lon="-1.28724">
        <ele>2.9</ele>
        <time>2020-06-02T16:12:53Z</time>
      </trkpt>
      <trkpt lat="46.33536" lon="-1.28732">
        <ele>2.9</ele>
        <time>2020-06-02T16:12:54Z</time>
      </trkpt>
      <trkpt lat="46.33533" lon="-1.28741">
        <ele>2.9</ele>
        <time>2020-06-02T16:12:55Z</time>
      </trkpt>
      <trkpt lat="46.33529" lon="-1.28749">
        <ele>2.9</ele>
        <time>2020-06-02T16:12:56Z</time>
      </trkpt>
      <trkpt lat="46.33525" lon="-1.28757">
        <ele>2.9</ele>
        <time>2020-06-02T16:12:57Z</time>
      </trkpt>
      <trkpt lat="46.33522" lon="-1.28765">
        <ele>2.9</ele>
        <time>2020-06-02T16:12:58Z</time>
      </trkpt>
      <trkpt lat="46.33518" lon="-1.28773">
        <ele>2.9</ele>
        <time>2020-06-02T16:12:59Z</time>
      </trkpt>
      <trkpt lat="46.33514" lon="-1.28781">
        <ele>2.9</ele>
        <time>2020-06-02T16:13:00Z</time>
      </trkpt>
      <trkpt lat="46.3351" lon="-1.28789">
        <ele>2.9</ele>
        <time>2020-06-02T16:13:01Z</time>
      </trkpt>
      <trkpt lat="46.33507" lon="-1.28798">
        <ele>2.9</ele>
        <time>2020-06-02T16:13:02Z</time>
      </trkpt>
      <trkpt lat="46.33503" lon="-1.28807">
        <ele>2.9</ele>
        <time>2020-06-02T16:13:03Z</time>
      </trkpt>
      <trkpt lat="46.335" lon="-1.28816">
        <ele>2.9</ele>
        <time>2020-06-02T16:13:04Z</time>
      </trkpt>
      <trkpt lat="46.33496" lon="-1.28824">
        <ele>2.8</ele>
        <time>2020-06-02T16:13:05Z</time>
      </trkpt>
      <trkpt lat="46.33493" lon="-1.28832">
        <ele>2.8</ele>
        <time>2020-06-02T16:13:06Z</time>
      </trkpt>
      <trkpt lat="46.33491" lon="-1.2884">
        <ele>2.8</ele>
        <time>2020-06-02T16:13:07Z</time>
      </trkpt>
      <trkpt lat="46.33488" lon="-1.28848">
        <ele>2.8</ele>
        <time>2020-06-02T16:13:08Z</time>
      </trkpt>
      <trkpt lat="46.33484" lon="-1.28856">
        <ele>2.8</ele>
        <time>2020-06-02T16:13:09Z</time>
      </trkpt>
      <trkpt lat="46.33481" lon="-1.28865">
        <ele>2.8</ele>
        <time>2020-06-02T16:13:10Z</time>
      </trkpt>
      <trkpt lat="46.33477" lon="-1.28874">
        <ele>2.8</ele>
        <time>2020-06-02T16:13:11Z</time>
      </trkpt>
      <trkpt lat="46.33473" lon="-1.28884">
        <ele>2.8</ele>
        <time>2020-06-02T16:13:12Z</time>
      </trkpt>
      <trkpt lat="46.3347" lon="-1.28893">
        <ele>2.8</ele>
        <time>2020-06-02T16:13:13Z</time>
      </trkpt>
      <trkpt lat="46.33466" lon="-1.28901">
        <ele>2.8</ele>
        <time>2020-06-02T16:13:14Z</time>
      </trkpt>
      <trkpt lat="46.33462" lon="-1.28911">
        <ele>2.8</ele>
        <time>2020-06-02T16:13:15Z</time>
      </trkpt>
      <trkpt lat="46.33459" lon="-1.28918">
        <ele>2.8</ele>
        <time>2020-06-02T16:13:16Z</time>
      </trkpt>
      <trkpt lat="46.33455" lon="-1.28926">
        <ele>2.8</ele>
        <time>2020-06-02T16:13:17Z</time>
      </trkpt>
      <trkpt lat="46.33452" lon="-1.28934">
        <ele>2.8</ele>
        <time>2020-06-02T16:13:18Z</time>
      </trkpt>
      <trkpt lat="46.33449" lon="-1.28943">
        <ele>2.8</ele>
        <time>2020-06-02T16:13:19Z</time>
      </trkpt>
      <trkpt lat="46.33445" lon="-1.28951">
        <ele>2.8</ele>
        <time>2020-06-02T16:13:20Z</time>
      </trkpt>
      <trkpt lat="46.33442" lon="-1.2896">
        <ele>2.8</ele>
        <time>2020-06-02T16:13:21Z</time>
      </trkpt>
      <trkpt lat="46.33438" lon="-1.28968">
        <ele>2.8</ele>
        <time>2020-06-02T16:13:22Z</time>
      </trkpt>
      <trkpt lat="46.33435" lon="-1.28976">
        <ele>2.8</ele>
        <time>2020-06-02T16:13:23Z</time>
      </trkpt>
      <trkpt lat="46.33432" lon="-1.28984">
        <ele>2.8</ele>
        <time>2020-06-02T16:13:24Z</time>
      </trkpt>
      <trkpt lat="46.33429" lon="-1.28992">
        <ele>2.8</ele>
        <time>2020-06-02T16:13:25Z</time>
      </trkpt>
      <trkpt lat="46.33426" lon="-1.29">
        <ele>2.8</ele>
        <time>2020-06-02T16:13:26Z</time>
      </trkpt>
      <trkpt lat="46.33423" lon="-1.29009">
        <ele>2.7</ele>
        <time>2020-06-02T16:13:27Z</time>
      </trkpt>
      <trkpt lat="46.3342" lon="-1.29018">
        <ele>2.7</ele>
        <time>2020-06-02T16:13:28Z</time>
      </trkpt>
      <trkpt lat="46.33417" lon="-1.29026">
        <ele>2.7</ele>
        <time>2020-06-02T16:13:29Z</time>
      </trkpt>
      <trkpt lat="46.33414" lon="-1.29034">
        <ele>2.7</ele>
        <time>2020-06-02T16:13:30Z</time>
      </trkpt>
      <trkpt lat="46.33411" lon="-1.29042">
        <ele>2.7</ele>
        <time>2020-06-02T16:13:31Z</time>
      </trkpt>
      <trkpt lat="46.33408" lon="-1.2905">
        <ele>2.7</ele>
        <time>2020-06-02T16:13:32Z</time>
      </trkpt>
      <trkpt lat="46.33406" lon="-1.29058">
        <ele>2.7</ele>
        <time>2020-06-02T16:13:33Z</time>
      </trkpt>
      <trkpt lat="46.33403" lon="-1.29066">
        <ele>2.7</ele>
        <time>2020-06-02T16:13:34Z</time>
      </trkpt>
      <trkpt lat="46.334" lon="-1.29073">
        <ele>2.7</ele>
        <time>2020-06-02T16:13:35Z</time>
      </trkpt>
      <trkpt lat="46.33397" lon="-1.29081">
        <ele>2.7</ele>
        <time>2020-06-02T16:13:36Z</time>
      </trkpt>
      <trkpt lat="46.33394" lon="-1.29089">
        <ele>2.7</ele>
        <time>2020-06-02T16:13:37Z</time>
      </trkpt>
      <trkpt lat="46.33391" lon="-1.29097">
        <ele>2.7</ele>
        <time>2020-06-02T16:13:38Z</time>
      </trkpt>
      <trkpt lat="46.33387" lon="-1.29105">
        <ele>2.7</ele>
        <time>2020-06-02T16:13:39Z</time>
      </trkpt>
      <trkpt lat="46.33384" lon="-1.29113">
        <ele>2.7</ele>
        <time>2020-06-02T16:13:40Z</time>
      </trkpt>
      <trkpt lat="46.3338" lon="-1.29121">
        <ele>2.7</ele>
        <time>2020-06-02T16:13:41Z</time>
      </trkpt>
      <trkpt lat="46.33377" lon="-1.29128">
        <ele>2.7</ele>
        <time>2020-06-02T16:13:42Z</time>
      </trkpt>
      <trkpt lat="46.33374" lon="-1.29136">
        <ele>2.7</ele>
        <time>2020-06-02T16:13:43Z</time>
      </trkpt>
      <trkpt lat="46.33371" lon="-1.29144">
        <ele>2.6</ele>
        <time>2020-06-02T16:13:44Z</time>
      </trkpt>
      <trkpt lat="46.33368" lon="-1.29152">
        <ele>2.6</ele>
        <time>2020-06-02T16:13:45Z</time>
      </trkpt>
      <trkpt lat="46.33365" lon="-1.29159">
        <ele>2.6</ele>
        <time>2020-06-02T16:13:46Z</time>
      </trkpt>
      <trkpt lat="46.33362" lon="-1.29167">
        <ele>2.6</ele>
        <time>2020-06-02T16:13:47Z</time>
      </trkpt>
      <trkpt lat="46.33359" lon="-1.29175">
        <ele>2.6</ele>
        <time>2020-06-02T16:13:48Z</time>
      </trkpt>
      <trkpt lat="46.33356" lon="-1.29183">
        <ele>2.6</ele>
        <time>2020-06-02T16:13:49Z</time>
      </trkpt>
      <trkpt lat="46.33353" lon="-1.2919">
        <ele>2.6</ele>
        <time>2020-06-02T16:13:50Z</time>
      </trkpt>
      <trkpt lat="46.3335" lon="-1.29197">
        <ele>2.6</ele>
        <time>2020-06-02T16:13:51Z</time>
      </trkpt>
      <trkpt lat="46.33347" lon="-1.29205">
        <ele>2.6</ele>
        <time>2020-06-02T16:13:52Z</time>
      </trkpt>
      <trkpt lat="46.33345" lon="-1.29212">
        <ele>2.6</ele>
        <time>2020-06-02T16:13:53Z</time>
      </trkpt>
      <trkpt lat="46.33342" lon="-1.29219">
        <ele>2.6</ele>
        <time>2020-06-02T16:13:54Z</time>
      </trkpt>
      <trkpt lat="46.33339" lon="-1.29228">
        <ele>2.7</ele>
        <time>2020-06-02T16:13:55Z</time>
      </trkpt>
      <trkpt lat="46.33337" lon="-1.29236">
        <ele>2.7</ele>
        <time>2020-06-02T16:13:56Z</time>
      </trkpt>
      <trkpt lat="46.33334" lon="-1.29245">
        <ele>2.8</ele>
        <time>2020-06-02T16:13:57Z</time>
      </trkpt>
      <trkpt lat="46.33332" lon="-1.29254">
        <ele>2.8</ele>
        <time>2020-06-02T16:13:58Z</time>
      </trkpt>
      <trkpt lat="46.3333" lon="-1.29261">
        <ele>2.9</ele>
        <time>2020-06-02T16:13:59Z</time>
      </trkpt>
      <trkpt lat="46.33327" lon="-1.2927">
        <ele>3</ele>
        <time>2020-06-02T16:14:00Z</time>
      </trkpt>
      <trkpt lat="46.33325" lon="-1.29279">
        <ele>3.1</ele>
        <time>2020-06-02T16:14:01Z</time>
      </trkpt>
      <trkpt lat="46.33323" lon="-1.29286">
        <ele>3.1</ele>
        <time>2020-06-02T16:14:02Z</time>
      </trkpt>
      <trkpt lat="46.33322" lon="-1.29292">
        <ele>3.1</ele>
        <time>2020-06-02T16:14:03Z</time>
      </trkpt>
      <trkpt lat="46.3332" lon="-1.29298">
        <ele>3.2</ele>
        <time>2020-06-02T16:14:04Z</time>
      </trkpt>
      <trkpt lat="46.33319" lon="-1.29305">
        <ele>3.2</ele>
        <time>2020-06-02T16:14:05Z</time>
      </trkpt>
      <trkpt lat="46.33318" lon="-1.29313">
        <ele>3.3</ele>
        <time>2020-06-02T16:14:06Z</time>
      </trkpt>
      <trkpt lat="46.33319" lon="-1.29321">
        <ele>3.3</ele>
        <time>2020-06-02T16:14:07Z</time>
      </trkpt>
      <trkpt lat="46.33319" lon="-1.29327">
        <ele>3.3</ele>
        <time>2020-06-02T16:14:08Z</time>
      </trkpt>
      <trkpt lat="46.33318" lon="-1.29333">
        <ele>3.4</ele>
        <time>2020-06-02T16:14:09Z</time>
      </trkpt>
      <trkpt lat="46.33317" lon="-1.29338">
        <ele>3.4</ele>
        <time>2020-06-02T16:14:10Z</time>
      </trkpt>
      <trkpt lat="46.33314" lon="-1.29342">
        <ele>3.4</ele>
        <time>2020-06-02T16:14:11Z</time>
      </trkpt>
      <trkpt lat="46.3331" lon="-1.29344">
        <ele>3.5</ele>
        <time>2020-06-02T16:14:12Z</time>
      </trkpt>
      <trkpt lat="46.33306" lon="-1.29345">
        <ele>3.5</ele>
        <time>2020-06-02T16:14:13Z</time>
      </trkpt>
      <trkpt lat="46.33303" lon="-1.29346">
        <ele>3.5</ele>
        <time>2020-06-02T16:14:14Z</time>
      </trkpt>
      <trkpt lat="46.33299" lon="-1.29344">
        <ele>3.6</ele>
        <time>2020-06-02T16:14:15Z</time>
      </trkpt>
      <trkpt lat="46.33294" lon="-1.29342">
        <ele>3.6</ele>
        <time>2020-06-02T16:14:16Z</time>
      </trkpt>
      <trkpt lat="46.33291" lon="-1.29337">
        <ele>3.6</ele>
        <time>2020-06-02T16:14:17Z</time>
      </trkpt>
      <trkpt lat="46.33288" lon="-1.29332">
        <ele>3.5</ele>
        <time>2020-06-02T16:14:18Z</time>
      </trkpt>
      <trkpt lat="46.33286" lon="-1.29326">
        <ele>3.5</ele>
        <time>2020-06-02T16:14:19Z</time>
      </trkpt>
      <trkpt lat="46.33285" lon="-1.2932">
        <ele>3.5</ele>
        <time>2020-06-02T16:14:20Z</time>
      </trkpt>
      <trkpt lat="46.33284" lon="-1.29316">
        <ele>3.5</ele>
        <time>2020-06-02T16:14:21Z</time>
      </trkpt>
      <trkpt lat="46.33282" lon="-1.29311">
        <ele>3.4</ele>
        <time>2020-06-02T16:14:22Z</time>
      </trkpt>
      <trkpt lat="46.3328" lon="-1.29304">
        <ele>3.4</ele>
        <time>2020-06-02T16:14:23Z</time>
      </trkpt>
      <trkpt lat="46.33277" lon="-1.293">
        <ele>3.4</ele>
        <time>2020-06-02T16:14:24Z</time>
      </trkpt>
      <trkpt lat="46.33274" lon="-1.29297">
        <ele>3.3</ele>
        <time>2020-06-02T16:14:25Z</time>
      </trkpt>
      <trkpt lat="46.3327" lon="-1.29293">
        <ele>3.3</ele>
        <time>2020-06-02T16:14:26Z</time>
      </trkpt>
      <trkpt lat="46.33266" lon="-1.2929">
        <ele>3.2</ele>
        <time>2020-06-02T16:14:27Z</time>
      </trkpt>
      <trkpt lat="46.33262" lon="-1.29286">
        <ele>3.2</ele>
        <time>2020-06-02T16:14:28Z</time>
      </trkpt>
      <trkpt lat="46.33258" lon="-1.29283">
        <ele>3.2</ele>
        <time>2020-06-02T16:14:29Z</time>
      </trkpt>
      <trkpt lat="46.33254" lon="-1.2928">
        <ele>3.1</ele>
        <time>2020-06-02T16:14:30Z</time>
      </trkpt>
      <trkpt lat="46.3325" lon="-1.29277">
        <ele>3.1</ele>
        <time>2020-06-02T16:14:31Z</time>
      </trkpt>
      <trkpt lat="46.33247" lon="-1.29275">
        <ele>3.1</ele>
        <time>2020-06-02T16:14:32Z</time>
      </trkpt>
      <trkpt lat="46.33243" lon="-1.29272">
        <ele>3</ele>
        <time>2020-06-02T16:14:33Z</time>
      </trkpt>
      <trkpt lat="46.3324" lon="-1.29269">
        <ele>3</ele>
        <time>2020-06-02T16:14:34Z</time>
      </trkpt>
      <trkpt lat="46.33235" lon="-1.29266">
        <ele>3</ele>
        <time>2020-06-02T16:14:35Z</time>
      </trkpt>
      <trkpt lat="46.33231" lon="-1.29262">
        <ele>3</ele>
        <time>2020-06-02T16:14:36Z</time>
      </trkpt>
      <trkpt lat="46.33227" lon="-1.29258">
        <ele>2.9</ele>
        <time>2020-06-02T16:14:37Z</time>
      </trkpt>
      <trkpt lat="46.33224" lon="-1.29255">
        <ele>2.9</ele>
        <time>2020-06-02T16:14:38Z</time>
      </trkpt>
      <trkpt lat="46.3322" lon="-1.29252">
        <ele>2.9</ele>
        <time>2020-06-02T16:14:39Z</time>
      </trkpt>
      <trkpt lat="46.33216" lon="-1.2925">
        <ele>2.9</ele>
        <time>2020-06-02T16:14:40Z</time>
      </trkpt>
      <trkpt lat="46.33212" lon="-1.29248">
        <ele>2.9</ele>
        <time>2020-06-02T16:14:41Z</time>
      </trkpt>
      <trkpt lat="46.33209" lon="-1.29246">
        <ele>2.9</ele>
        <time>2020-06-02T16:14:42Z</time>
      </trkpt>
      <trkpt lat="46.33207" lon="-1.29239">
        <ele>2.8</ele>
        <time>2020-06-02T16:14:43Z</time>
      </trkpt>
      <trkpt lat="46.33207" lon="-1.29235">
        <ele>2.8</ele>
        <time>2020-06-02T16:14:44Z</time>
      </trkpt>
      <trkpt lat="46.3321" lon="-1.29234">
        <ele>2.8</ele>
        <time>2020-06-02T16:14:45Z</time>
      </trkpt>
      <trkpt lat="46.33214" lon="-1.29229">
        <ele>2.8</ele>
        <time>2020-06-02T16:14:46Z</time>
      </trkpt>
      <trkpt lat="46.33216" lon="-1.29225">
        <ele>2.8</ele>
        <time>2020-06-02T16:14:47Z</time>
      </trkpt>
      <trkpt lat="46.33217" lon="-1.2922">
        <ele>2.8</ele>
        <time>2020-06-02T16:14:48Z</time>
      </trkpt>
      <trkpt lat="46.33218" lon="-1.29215">
        <ele>2.8</ele>
        <time>2020-06-02T16:14:49Z</time>
      </trkpt>
      <trkpt lat="46.33218" lon="-1.2921">
        <ele>2.8</ele>
        <time>2020-06-02T16:14:50Z</time>
      </trkpt>
      <trkpt lat="46.33218" lon="-1.29205">
        <ele>2.8</ele>
        <time>2020-06-02T16:14:51Z</time>
      </trkpt>
      <trkpt lat="46.3322" lon="-1.29199">
        <ele>2.8</ele>
        <time>2020-06-02T16:14:52Z</time>
      </trkpt>
      <trkpt lat="46.3322" lon="-1.29194">
        <ele>2.8</ele>
        <time>2020-06-02T16:14:53Z</time>
      </trkpt>
      <trkpt lat="46.33222" lon="-1.29189">
        <ele>2.8</ele>
        <time>2020-06-02T16:14:54Z</time>
      </trkpt>
      <trkpt lat="46.33222" lon="-1.29185">
        <ele>2.8</ele>
        <time>2020-06-02T16:14:55Z</time>
      </trkpt>
      <trkpt lat="46.33223" lon="-1.29182">
        <ele>2.8</ele>
        <time>2020-06-02T16:14:56Z</time>
      </trkpt>
      <trkpt lat="46.33223" lon="-1.29181">
        <ele>2.8</ele>
        <time>2020-06-02T16:14:57Z</time>
      </trkpt>
      <trkpt lat="46.33223" lon="-1.29179">
        <ele>2.8</ele>
        <time>2020-06-02T16:14:58Z</time>
      </trkpt>
      <trkpt lat="46.33223" lon="-1.29179">
        <ele>2.8</ele>
        <time>2020-06-02T16:14:59Z</time>
      </trkpt>
      <trkpt lat="46.33223" lon="-1.29178">
        <ele>2.8</ele>
        <time>2020-06-02T16:15:00Z</time>
      </trkpt>
      <trkpt lat="46.33224" lon="-1.29179">
        <ele>2.8</ele>
        <time>2020-06-02T16:15:01Z</time>
      </trkpt>
      <trkpt lat="46.33224" lon="-1.29179">
        <ele>2.8</ele>
        <time>2020-06-02T16:15:02Z</time>
      </trkpt>
      <trkpt lat="46.33224" lon="-1.29179">
        <ele>2.8</ele>
        <time>2020-06-02T16:15:03Z</time>
      </trkpt>
      <trkpt lat="46.33224" lon="-1.29181">
        <ele>2.8</ele>
        <time>2020-06-02T16:15:04Z</time>
      </trkpt>
      <trkpt lat="46.33224" lon="-1.29184">
        <ele>2.7</ele>
        <time>2020-06-02T16:15:05Z</time>
      </trkpt>
      <trkpt lat="46.33224" lon="-1.29186">
        <ele>2.7</ele>
        <time>2020-06-02T16:15:06Z</time>
      </trkpt>
      <trkpt lat="46.33224" lon="-1.29186">
        <ele>2.7</ele>
        <time>2020-06-02T16:15:07Z</time>
      </trkpt>
      <trkpt lat="46.33224" lon="-1.29186">
        <ele>2.7</ele>
        <time>2020-06-02T16:15:08Z</time>
      </trkpt>
      <trkpt lat="46.33224" lon="-1.29187">
        <ele>2.7</ele>
        <time>2020-06-02T16:15:09Z</time>
      </trkpt>
      <trkpt lat="46.33224" lon="-1.29186">
        <ele>2.7</ele>
        <time>2020-06-02T16:15:10Z</time>
      </trkpt>
      <trkpt lat="46.33225" lon="-1.29186">
        <ele>2.7</ele>
        <time>2020-06-02T16:15:11Z</time>
      </trkpt>
      <trkpt lat="46.33226" lon="-1.29185">
        <ele>2.7</ele>
        <time>2020-06-02T16:15:12Z</time>
      </trkpt>
      <trkpt lat="46.33226" lon="-1.29184">
        <ele>2.7</ele>
        <time>2020-06-02T16:15:13Z</time>
      </trkpt>
      <trkpt lat="46.33227" lon="-1.29184">
        <ele>2.7</ele>
        <time>2020-06-02T16:15:14Z</time>
      </trkpt>
      <trkpt lat="46.33228" lon="-1.29183">
        <ele>2.7</ele>
        <time>2020-06-02T16:15:15Z</time>
      </trkpt>
      <trkpt lat="46.33228" lon="-1.29183">
        <ele>2.7</ele>
        <time>2020-06-02T16:15:16Z</time>
      </trkpt>
      <trkpt lat="46.33228" lon="-1.29183">
        <ele>2.7</ele>
        <time>2020-06-02T16:15:17Z</time>
      </trkpt>
      <trkpt lat="46.33228" lon="-1.29182">
        <ele>2.7</ele>
        <time>2020-06-02T16:15:18Z</time>
      </trkpt>
      <trkpt lat="46.33228" lon="-1.29182">
        <ele>2.7</ele>
        <time>2020-06-02T16:15:19Z</time>
      </trkpt>
      <trkpt lat="46.33228" lon="-1.29181">
        <ele>2.7</ele>
        <time>2020-06-02T16:15:20Z</time>
      </trkpt>
      <trkpt lat="46.33228" lon="-1.2918">
        <ele>2.7</ele>
        <time>2020-06-02T16:15:21Z</time>
      </trkpt>
      <trkpt lat="46.33228" lon="-1.2918">
        <ele>2.7</ele>
        <time>2020-06-02T16:15:22Z</time>
      </trkpt>
      <trkpt lat="46.33228" lon="-1.2918">
        <ele>2.7</ele>
        <time>2020-06-02T16:15:23Z</time>
      </trkpt>
      <trkpt lat="46.33228" lon="-1.2918">
        <ele>2.7</ele>
        <time>2020-06-02T16:15:24Z</time>
      </trkpt>
      <trkpt lat="46.33227" lon="-1.29179">
        <ele>2.7</ele>
        <time>2020-06-02T16:15:25Z</time>
      </trkpt>
      <trkpt lat="46.33223" lon="-1.29181">
        <ele>2.7</ele>
        <time>2020-06-02T16:49:58Z</time>
      </trkpt>
      <trkpt lat="46.33223" lon="-1.29181">
        <ele>2.7</ele>
        <time>2020-06-02T16:49:59Z</time>
      </trkpt>
      <trkpt lat="46.33223" lon="-1.29181">
        <ele>2.7</ele>
        <time>2020-06-02T16:50:00Z</time>
      </trkpt>
      <trkpt lat="46.33223" lon="-1.29181">
        <ele>2.7</ele>
        <time>2020-06-02T16:50:01Z</time>
      </trkpt>
      <trkpt lat="46.33222" lon="-1.29181">
        <ele>2.7</ele>
        <time>2020-06-02T16:50:02Z</time>
      </trkpt>
      <trkpt lat="46.33222" lon="-1.29182">
        <ele>2.7</ele>
        <time>2020-06-02T16:50:03Z</time>
      </trkpt>
      <trkpt lat="46.33221" lon="-1.29181">
        <ele>2.7</ele>
        <time>2020-06-02T16:50:04Z</time>
      </trkpt>
      <trkpt lat="46.33221" lon="-1.29181">
        <ele>2.7</ele>
        <time>2020-06-02T16:50:05Z</time>
      </trkpt>
      <trkpt lat="46.3322" lon="-1.29181">
        <ele>2.7</ele>
        <time>2020-06-02T16:50:06Z</time>
      </trkpt>
      <trkpt lat="46.3322" lon="-1.2918">
        <ele>2.7</ele>
        <time>2020-06-02T16:50:07Z</time>
      </trkpt>
      <trkpt lat="46.3322" lon="-1.29179">
        <ele>2.7</ele>
        <time>2020-06-02T16:50:08Z</time>
      </trkpt>
      <trkpt lat="46.3322" lon="-1.29177">
        <ele>2.7</ele>
        <time>2020-06-02T16:50:09Z</time>
      </trkpt>
      <trkpt lat="46.3322" lon="-1.29178">
        <ele>2.7</ele>
        <time>2020-06-02T16:50:10Z</time>
      </trkpt>
      <trkpt lat="46.3322" lon="-1.29177">
        <ele>2.7</ele>
        <time>2020-06-02T16:50:11Z</time>
      </trkpt>
      <trkpt lat="46.3322" lon="-1.29177">
        <ele>2.7</ele>
        <time>2020-06-02T16:50:12Z</time>
      </trkpt>
      <trkpt lat="46.3322" lon="-1.29178">
        <ele>2.7</ele>
        <time>2020-06-02T16:50:13Z</time>
      </trkpt>
      <trkpt lat="46.33221" lon="-1.29178">
        <ele>2.7</ele>
        <time>2020-06-02T16:50:14Z</time>
      </trkpt>
      <trkpt lat="46.33221" lon="-1.29178">
        <ele>2.7</ele>
        <time>2020-06-02T16:50:15Z</time>
      </trkpt>
      <trkpt lat="46.33222" lon="-1.2918">
        <ele>2.7</ele>
        <time>2020-06-02T16:50:16Z</time>
      </trkpt>
      <trkpt lat="46.33221" lon="-1.29181">
        <ele>2.7</ele>
        <time>2020-06-02T16:50:17Z</time>
      </trkpt>
      <trkpt lat="46.33221" lon="-1.29186">
        <ele>2.7</ele>
        <time>2020-06-02T16:50:18Z</time>
      </trkpt>
      <trkpt lat="46.33221" lon="-1.29188">
        <ele>2.7</ele>
        <time>2020-06-02T16:50:19Z</time>
      </trkpt>
      <trkpt lat="46.33222" lon="-1.29193">
        <ele>2.7</ele>
        <time>2020-06-02T16:50:20Z</time>
      </trkpt>
      <trkpt lat="46.3322" lon="-1.29201">
        <ele>2.8</ele>
        <time>2020-06-02T16:50:21Z</time>
      </trkpt>
      <trkpt lat="46.33219" lon="-1.29206">
        <ele>2.8</ele>
        <time>2020-06-02T16:50:22Z</time>
      </trkpt>
      <trkpt lat="46.33218" lon="-1.29211">
        <ele>2.8</ele>
        <time>2020-06-02T16:50:23Z</time>
      </trkpt>
      <trkpt lat="46.33218" lon="-1.29213">
        <ele>2.8</ele>
        <time>2020-06-02T16:50:24Z</time>
      </trkpt>
      <trkpt lat="46.33219" lon="-1.29219">
        <ele>2.8</ele>
        <time>2020-06-02T16:50:25Z</time>
      </trkpt>
      <trkpt lat="46.33219" lon="-1.29225">
        <ele>2.8</ele>
        <time>2020-06-02T16:50:26Z</time>
      </trkpt>
      <trkpt lat="46.33219" lon="-1.2923">
        <ele>2.8</ele>
        <time>2020-06-02T16:50:27Z</time>
      </trkpt>
      <trkpt lat="46.33219" lon="-1.29235">
        <ele>2.8</ele>
        <time>2020-06-02T16:50:28Z</time>
      </trkpt>
      <trkpt lat="46.33221" lon="-1.29241">
        <ele>2.9</ele>
        <time>2020-06-02T16:50:29Z</time>
      </trkpt>
      <trkpt lat="46.33222" lon="-1.29246">
        <ele>2.9</ele>
        <time>2020-06-02T16:50:30Z</time>
      </trkpt>
      <trkpt lat="46.33227" lon="-1.29249">
        <ele>2.9</ele>
        <time>2020-06-02T16:50:31Z</time>
      </trkpt>
      <trkpt lat="46.33231" lon="-1.29254">
        <ele>2.9</ele>
        <time>2020-06-02T16:50:32Z</time>
      </trkpt>
      <trkpt lat="46.33236" lon="-1.29259">
        <ele>3</ele>
        <time>2020-06-02T16:50:33Z</time>
      </trkpt>
      <trkpt lat="46.3324" lon="-1.29263">
        <ele>3</ele>
        <time>2020-06-02T16:50:34Z</time>
      </trkpt>
      <trkpt lat="46.33245" lon="-1.29267">
        <ele>3</ele>
        <time>2020-06-02T16:50:35Z</time>
      </trkpt>
      <trkpt lat="46.33249" lon="-1.29272">
        <ele>3.1</ele>
        <time>2020-06-02T16:50:36Z</time>
      </trkpt>
      <trkpt lat="46.33254" lon="-1.29276">
        <ele>3.1</ele>
        <time>2020-06-02T16:50:37Z</time>
      </trkpt>
      <trkpt lat="46.33259" lon="-1.29279">
        <ele>3.2</ele>
        <time>2020-06-02T16:50:38Z</time>
      </trkpt>
      <trkpt lat="46.33265" lon="-1.29284">
        <ele>3.2</ele>
        <time>2020-06-02T16:50:39Z</time>
      </trkpt>
      <trkpt lat="46.33269" lon="-1.29289">
        <ele>3.3</ele>
        <time>2020-06-02T16:50:40Z</time>
      </trkpt>
      <trkpt lat="46.33273" lon="-1.29293">
        <ele>3.3</ele>
        <time>2020-06-02T16:50:41Z</time>
      </trkpt>
      <trkpt lat="46.3328" lon="-1.29296">
        <ele>3.3</ele>
        <time>2020-06-02T16:50:42Z</time>
      </trkpt>
      <trkpt lat="46.33285" lon="-1.293">
        <ele>3.4</ele>
        <time>2020-06-02T16:50:43Z</time>
      </trkpt>
      <trkpt lat="46.33291" lon="-1.29302">
        <ele>3.4</ele>
        <time>2020-06-02T16:50:44Z</time>
      </trkpt>
      <trkpt lat="46.33297" lon="-1.29304">
        <ele>3.3</ele>
        <time>2020-06-02T16:50:45Z</time>
      </trkpt>
      <trkpt lat="46.33302" lon="-1.29304">
        <ele>3.3</ele>
        <time>2020-06-02T16:50:46Z</time>
      </trkpt>
      <trkpt lat="46.33307" lon="-1.29305">
        <ele>3.3</ele>
        <time>2020-06-02T16:50:47Z</time>
      </trkpt>
      <trkpt lat="46.33311" lon="-1.29308">
        <ele>3.3</ele>
        <time>2020-06-02T16:50:48Z</time>
      </trkpt>
      <trkpt lat="46.33315" lon="-1.29309">
        <ele>3.3</ele>
        <time>2020-06-02T16:50:49Z</time>
      </trkpt>
      <trkpt lat="46.3332" lon="-1.29311">
        <ele>3.3</ele>
        <time>2020-06-02T16:50:50Z</time>
      </trkpt>
      <trkpt lat="46.33324" lon="-1.29314">
        <ele>3.3</ele>
        <time>2020-06-02T16:50:51Z</time>
      </trkpt>
      <trkpt lat="46.33327" lon="-1.29323">
        <ele>3.3</ele>
        <time>2020-06-02T16:50:52Z</time>
      </trkpt>
      <trkpt lat="46.33325" lon="-1.2933">
        <ele>3.3</ele>
        <time>2020-06-02T16:50:53Z</time>
      </trkpt>
      <trkpt lat="46.33324" lon="-1.2934">
        <ele>3.4</ele>
        <time>2020-06-02T16:50:54Z</time>
      </trkpt>
      <trkpt lat="46.33325" lon="-1.29349">
        <ele>3.4</ele>
        <time>2020-06-02T16:50:55Z</time>
      </trkpt>
      <trkpt lat="46.33326" lon="-1.29357">
        <ele>3.4</ele>
        <time>2020-06-02T16:50:56Z</time>
      </trkpt>
      <trkpt lat="46.33326" lon="-1.29365">
        <ele>3.4</ele>
        <time>2020-06-02T16:50:57Z</time>
      </trkpt>
      <trkpt lat="46.33327" lon="-1.29373">
        <ele>3.4</ele>
        <time>2020-06-02T16:50:58Z</time>
      </trkpt>
      <trkpt lat="46.33328" lon="-1.29382">
        <ele>3.4</ele>
        <time>2020-06-02T16:50:59Z</time>
      </trkpt>
      <trkpt lat="46.33329" lon="-1.2939">
        <ele>3.4</ele>
        <time>2020-06-02T16:51:00Z</time>
      </trkpt>
      <trkpt lat="46.3333" lon="-1.29399">
        <ele>3.4</ele>
        <time>2020-06-02T16:51:01Z</time>
      </trkpt>
      <trkpt lat="46.3333" lon="-1.29407">
        <ele>3.3</ele>
        <time>2020-06-02T16:51:02Z</time>
      </trkpt>
      <trkpt lat="46.33332" lon="-1.29414">
        <ele>3.3</ele>
        <time>2020-06-02T16:51:03Z</time>
      </trkpt>
      <trkpt lat="46.33333" lon="-1.29423">
        <ele>3.2</ele>
        <time>2020-06-02T16:51:04Z</time>
      </trkpt>
      <trkpt lat="46.33332" lon="-1.29431">
        <ele>3.2</ele>
        <time>2020-06-02T16:51:05Z</time>
      </trkpt>
      <trkpt lat="46.33332" lon="-1.29439">
        <ele>3.2</ele>
        <time>2020-06-02T16:51:06Z</time>
      </trkpt>
      <trkpt lat="46.33332" lon="-1.29447">
        <ele>3.1</ele>
        <time>2020-06-02T16:51:07Z</time>
      </trkpt>
      <trkpt lat="46.33332" lon="-1.29457">
        <ele>3.1</ele>
        <time>2020-06-02T16:51:08Z</time>
      </trkpt>
      <trkpt lat="46.33333" lon="-1.29465">
        <ele>3</ele>
        <time>2020-06-02T16:51:09Z</time>
      </trkpt>
      <trkpt lat="46.33334" lon="-1.29474">
        <ele>3</ele>
        <time>2020-06-02T16:51:10Z</time>
      </trkpt>
      <trkpt lat="46.33335" lon="-1.29483">
        <ele>2.9</ele>
        <time>2020-06-02T16:51:11Z</time>
      </trkpt>
      <trkpt lat="46.33336" lon="-1.29493">
        <ele>2.9</ele>
        <time>2020-06-02T16:51:12Z</time>
      </trkpt>
      <trkpt lat="46.33337" lon="-1.29501">
        <ele>2.9</ele>
        <time>2020-06-02T16:51:13Z</time>
      </trkpt>
      <trkpt lat="46.33338" lon="-1.2951">
        <ele>2.8</ele>
        <time>2020-06-02T16:51:14Z</time>
      </trkpt>
      <trkpt lat="46.33338" lon="-1.29518">
        <ele>2.8</ele>
        <time>2020-06-02T16:51:15Z</time>
      </trkpt>
      <trkpt lat="46.33339" lon="-1.29527">
        <ele>2.8</ele>
        <time>2020-06-02T16:51:16Z</time>
      </trkpt>
      <trkpt lat="46.33341" lon="-1.29536">
        <ele>2.8</ele>
        <time>2020-06-02T16:51:17Z</time>
      </trkpt>
      <trkpt lat="46.33343" lon="-1.29546">
        <ele>2.8</ele>
        <time>2020-06-02T16:51:18Z</time>
      </trkpt>
      <trkpt lat="46.33345" lon="-1.29555">
        <ele>2.8</ele>
        <time>2020-06-02T16:51:19Z</time>
      </trkpt>
      <trkpt lat="46.33347" lon="-1.29565">
        <ele>2.8</ele>
        <time>2020-06-02T16:51:20Z</time>
      </trkpt>
      <trkpt lat="46.33348" lon="-1.29573">
        <ele>2.8</ele>
        <time>2020-06-02T16:51:21Z</time>
      </trkpt>
      <trkpt lat="46.3335" lon="-1.29582">
        <ele>2.8</ele>
        <time>2020-06-02T16:51:22Z</time>
      </trkpt>
      <trkpt lat="46.33352" lon="-1.2959">
        <ele>2.8</ele>
        <time>2020-06-02T16:51:23Z</time>
      </trkpt>
      <trkpt lat="46.33354" lon="-1.29599">
        <ele>2.8</ele>
        <time>2020-06-02T16:51:24Z</time>
      </trkpt>
      <trkpt lat="46.33356" lon="-1.29608">
        <ele>2.8</ele>
        <time>2020-06-02T16:51:25Z</time>
      </trkpt>
      <trkpt lat="46.33358" lon="-1.29616">
        <ele>2.8</ele>
        <time>2020-06-02T16:51:26Z</time>
      </trkpt>
      <trkpt lat="46.33359" lon="-1.29625">
        <ele>2.8</ele>
        <time>2020-06-02T16:51:27Z</time>
      </trkpt>
      <trkpt lat="46.3336" lon="-1.29634">
        <ele>2.8</ele>
        <time>2020-06-02T16:51:28Z</time>
      </trkpt>
      <trkpt lat="46.33362" lon="-1.29642">
        <ele>2.8</ele>
        <time>2020-06-02T16:51:29Z</time>
      </trkpt>
      <trkpt lat="46.33363" lon="-1.2965">
        <ele>2.8</ele>
        <time>2020-06-02T16:51:30Z</time>
      </trkpt>
      <trkpt lat="46.33365" lon="-1.29659">
        <ele>2.8</ele>
        <time>2020-06-02T16:51:31Z</time>
      </trkpt>
      <trkpt lat="46.33367" lon="-1.29667">
        <ele>2.8</ele>
        <time>2020-06-02T16:51:32Z</time>
      </trkpt>
      <trkpt lat="46.33369" lon="-1.29676">
        <ele>2.8</ele>
        <time>2020-06-02T16:51:33Z</time>
      </trkpt>
      <trkpt lat="46.3337" lon="-1.29684">
        <ele>2.8</ele>
        <time>2020-06-02T16:51:34Z</time>
      </trkpt>
      <trkpt lat="46.33372" lon="-1.29693">
        <ele>2.8</ele>
        <time>2020-06-02T16:51:35Z</time>
      </trkpt>
      <trkpt lat="46.33374" lon="-1.29702">
        <ele>2.8</ele>
        <time>2020-06-02T16:51:36Z</time>
      </trkpt>
      <trkpt lat="46.33375" lon="-1.29711">
        <ele>2.8</ele>
        <time>2020-06-02T16:51:37Z</time>
      </trkpt>
      <trkpt lat="46.33377" lon="-1.29718">
        <ele>2.8</ele>
        <time>2020-06-02T16:51:38Z</time>
      </trkpt>
      <trkpt lat="46.33379" lon="-1.29725">
        <ele>2.8</ele>
        <time>2020-06-02T16:51:39Z</time>
      </trkpt>
      <trkpt lat="46.3338" lon="-1.29734">
        <ele>2.8</ele>
        <time>2020-06-02T16:51:40Z</time>
      </trkpt>
      <trkpt lat="46.33382" lon="-1.29741">
        <ele>2.8</ele>
        <time>2020-06-02T16:51:41Z</time>
      </trkpt>
      <trkpt lat="46.33384" lon="-1.2975">
        <ele>2.8</ele>
        <time>2020-06-02T16:51:42Z</time>
      </trkpt>
      <trkpt lat="46.33386" lon="-1.29759">
        <ele>2.8</ele>
        <time>2020-06-02T16:51:43Z</time>
      </trkpt>
      <trkpt lat="46.33387" lon="-1.29767">
        <ele>2.8</ele>
        <time>2020-06-02T16:51:44Z</time>
      </trkpt>
      <trkpt lat="46.33389" lon="-1.29776">
        <ele>2.8</ele>
        <time>2020-06-02T16:51:45Z</time>
      </trkpt>
      <trkpt lat="46.3339" lon="-1.29784">
        <ele>2.8</ele>
        <time>2020-06-02T16:51:46Z</time>
      </trkpt>
      <trkpt lat="46.33392" lon="-1.29793">
        <ele>2.8</ele>
        <time>2020-06-02T16:51:47Z</time>
      </trkpt>
      <trkpt lat="46.33393" lon="-1.298">
        <ele>2.7</ele>
        <time>2020-06-02T16:51:48Z</time>
      </trkpt>
      <trkpt lat="46.33393" lon="-1.29809">
        <ele>2.7</ele>
        <time>2020-06-02T16:51:49Z</time>
      </trkpt>
      <trkpt lat="46.33395" lon="-1.29818">
        <ele>2.7</ele>
        <time>2020-06-02T16:51:50Z</time>
      </trkpt>
      <trkpt lat="46.33396" lon="-1.29824">
        <ele>2.7</ele>
        <time>2020-06-02T16:51:51Z</time>
      </trkpt>
      <trkpt lat="46.33398" lon="-1.29832">
        <ele>2.7</ele>
        <time>2020-06-02T16:51:52Z</time>
      </trkpt>
      <trkpt lat="46.33399" lon="-1.2984">
        <ele>2.6</ele>
        <time>2020-06-02T16:51:53Z</time>
      </trkpt>
      <trkpt lat="46.33399" lon="-1.29848">
        <ele>2.6</ele>
        <time>2020-06-02T16:51:54Z</time>
      </trkpt>
      <trkpt lat="46.334" lon="-1.29856">
        <ele>2.5</ele>
        <time>2020-06-02T16:51:55Z</time>
      </trkpt>
      <trkpt lat="46.33401" lon="-1.29863">
        <ele>2.5</ele>
        <time>2020-06-02T16:51:56Z</time>
      </trkpt>
      <trkpt lat="46.33402" lon="-1.2987">
        <ele>2.5</ele>
        <time>2020-06-02T16:51:57Z</time>
      </trkpt>
      <trkpt lat="46.33403" lon="-1.29877">
        <ele>2.4</ele>
        <time>2020-06-02T16:51:58Z</time>
      </trkpt>
      <trkpt lat="46.33405" lon="-1.29885">
        <ele>2.4</ele>
        <time>2020-06-02T16:51:59Z</time>
      </trkpt>
      <trkpt lat="46.33406" lon="-1.29892">
        <ele>2.4</ele>
        <time>2020-06-02T16:52:00Z</time>
      </trkpt>
      <trkpt lat="46.33407" lon="-1.299">
        <ele>2.4</ele>
        <time>2020-06-02T16:52:01Z</time>
      </trkpt>
      <trkpt lat="46.33408" lon="-1.29908">
        <ele>2.4</ele>
        <time>2020-06-02T16:52:02Z</time>
      </trkpt>
      <trkpt lat="46.33409" lon="-1.29917">
        <ele>2.3</ele>
        <time>2020-06-02T16:52:03Z</time>
      </trkpt>
      <trkpt lat="46.33409" lon="-1.29926">
        <ele>2.4</ele>
        <time>2020-06-02T16:52:04Z</time>
      </trkpt>
      <trkpt lat="46.33408" lon="-1.29934">
        <ele>2.4</ele>
        <time>2020-06-02T16:52:05Z</time>
      </trkpt>
      <trkpt lat="46.33407" lon="-1.2994">
        <ele>2.5</ele>
        <time>2020-06-02T16:52:06Z</time>
      </trkpt>
      <trkpt lat="46.33405" lon="-1.29946">
        <ele>2.5</ele>
        <time>2020-06-02T16:52:07Z</time>
      </trkpt>
      <trkpt lat="46.33402" lon="-1.29952">
        <ele>2.6</ele>
        <time>2020-06-02T16:52:08Z</time>
      </trkpt>
      <trkpt lat="46.33396" lon="-1.29956">
        <ele>2.6</ele>
        <time>2020-06-02T16:52:09Z</time>
      </trkpt>
      <trkpt lat="46.33392" lon="-1.2996">
        <ele>2.7</ele>
        <time>2020-06-02T16:52:10Z</time>
      </trkpt>
      <trkpt lat="46.33387" lon="-1.29964">
        <ele>2.7</ele>
        <time>2020-06-02T16:52:11Z</time>
      </trkpt>
      <trkpt lat="46.33381" lon="-1.2997">
        <ele>2.8</ele>
        <time>2020-06-02T16:52:12Z</time>
      </trkpt>
      <trkpt lat="46.33375" lon="-1.29974">
        <ele>2.8</ele>
        <time>2020-06-02T16:52:13Z</time>
      </trkpt>
      <trkpt lat="46.33369" lon="-1.29978">
        <ele>2.8</ele>
        <time>2020-06-02T16:52:14Z</time>
      </trkpt>
      <trkpt lat="46.33363" lon="-1.29982">
        <ele>2.9</ele>
        <time>2020-06-02T16:52:15Z</time>
      </trkpt>
      <trkpt lat="46.33358" lon="-1.29987">
        <ele>2.9</ele>
        <time>2020-06-02T16:52:16Z</time>
      </trkpt>
      <trkpt lat="46.33352" lon="-1.29991">
        <ele>2.9</ele>
        <time>2020-06-02T16:52:17Z</time>
      </trkpt>
      <trkpt lat="46.33347" lon="-1.29995">
        <ele>3</ele>
        <time>2020-06-02T16:52:18Z</time>
      </trkpt>
      <trkpt lat="46.33342" lon="-1.29999">
        <ele>3</ele>
        <time>2020-06-02T16:52:19Z</time>
      </trkpt>
      <trkpt lat="46.33337" lon="-1.30002">
        <ele>3</ele>
        <time>2020-06-02T16:52:20Z</time>
      </trkpt>
      <trkpt lat="46.33333" lon="-1.30006">
        <ele>3.1</ele>
        <time>2020-06-02T16:52:21Z</time>
      </trkpt>
      <trkpt lat="46.33327" lon="-1.30009">
        <ele>3.2</ele>
        <time>2020-06-02T16:52:22Z</time>
      </trkpt>
      <trkpt lat="46.33322" lon="-1.30012">
        <ele>3.2</ele>
        <time>2020-06-02T16:52:23Z</time>
      </trkpt>
      <trkpt lat="46.33317" lon="-1.30017">
        <ele>3.2</ele>
        <time>2020-06-02T16:52:24Z</time>
      </trkpt>
      <trkpt lat="46.33312" lon="-1.30022">
        <ele>3.3</ele>
        <time>2020-06-02T16:52:25Z</time>
      </trkpt>
      <trkpt lat="46.33307" lon="-1.30027">
        <ele>3.3</ele>
        <time>2020-06-02T16:52:26Z</time>
      </trkpt>
      <trkpt lat="46.33302" lon="-1.30033">
        <ele>3.3</ele>
        <time>2020-06-02T16:52:27Z</time>
      </trkpt>
      <trkpt lat="46.33298" lon="-1.3004">
        <ele>3.4</ele>
        <time>2020-06-02T16:52:28Z</time>
      </trkpt>
      <trkpt lat="46.33294" lon="-1.30044">
        <ele>3.4</ele>
        <time>2020-06-02T16:52:29Z</time>
      </trkpt>
      <trkpt lat="46.33292" lon="-1.3005">
        <ele>3.4</ele>
        <time>2020-06-02T16:52:30Z</time>
      </trkpt>
      <trkpt lat="46.3329" lon="-1.30055">
        <ele>3.4</ele>
        <time>2020-06-02T16:52:31Z</time>
      </trkpt>
      <trkpt lat="46.33287" lon="-1.30063">
        <ele>3.5</ele>
        <time>2020-06-02T16:52:32Z</time>
      </trkpt>
      <trkpt lat="46.33284" lon="-1.3007">
        <ele>3.5</ele>
        <time>2020-06-02T16:52:33Z</time>
      </trkpt>
      <trkpt lat="46.33282" lon="-1.30077">
        <ele>3.6</ele>
        <time>2020-06-02T16:52:34Z</time>
      </trkpt>
      <trkpt lat="46.33279" lon="-1.30084">
        <ele>3.6</ele>
        <time>2020-06-02T16:52:35Z</time>
      </trkpt>
      <trkpt lat="46.33276" lon="-1.30091">
        <ele>3.7</ele>
        <time>2020-06-02T16:52:36Z</time>
      </trkpt>
      <trkpt lat="46.33273" lon="-1.30099">
        <ele>3.7</ele>
        <time>2020-06-02T16:52:37Z</time>
      </trkpt>
      <trkpt lat="46.3327" lon="-1.30106">
        <ele>3.8</ele>
        <time>2020-06-02T16:52:38Z</time>
      </trkpt>
      <trkpt lat="46.33268" lon="-1.30113">
        <ele>3.8</ele>
        <time>2020-06-02T16:52:39Z</time>
      </trkpt>
      <trkpt lat="46.33264" lon="-1.30119">
        <ele>3.9</ele>
        <time>2020-06-02T16:52:40Z</time>
      </trkpt>
      <trkpt lat="46.33262" lon="-1.30126">
        <ele>4</ele>
        <time>2020-06-02T16:52:41Z</time>
      </trkpt>
      <trkpt lat="46.33258" lon="-1.30134">
        <ele>4.1</ele>
        <time>2020-06-02T16:52:42Z</time>
      </trkpt>
      <trkpt lat="46.33256" lon="-1.30141">
        <ele>4.3</ele>
        <time>2020-06-02T16:52:43Z</time>
      </trkpt>
      <trkpt lat="46.33254" lon="-1.30148">
        <ele>4.4</ele>
        <time>2020-06-02T16:52:44Z</time>
      </trkpt>
      <trkpt lat="46.33251" lon="-1.30156">
        <ele>4.5</ele>
        <time>2020-06-02T16:52:45Z</time>
      </trkpt>
      <trkpt lat="46.3325" lon="-1.30164">
        <ele>4.7</ele>
        <time>2020-06-02T16:52:46Z</time>
      </trkpt>
      <trkpt lat="46.33248" lon="-1.30171">
        <ele>4.8</ele>
        <time>2020-06-02T16:52:47Z</time>
      </trkpt>
      <trkpt lat="46.33246" lon="-1.30178">
        <ele>4.9</ele>
        <time>2020-06-02T16:52:48Z</time>
      </trkpt>
      <trkpt lat="46.33244" lon="-1.30185">
        <ele>4.9</ele>
        <time>2020-06-02T16:52:49Z</time>
      </trkpt>
      <trkpt lat="46.33243" lon="-1.30189">
        <ele>5</ele>
        <time>2020-06-02T16:52:50Z</time>
      </trkpt>
      <trkpt lat="46.33243" lon="-1.30194">
        <ele>5</ele>
        <time>2020-06-02T16:52:51Z</time>
      </trkpt>
      <trkpt lat="46.33241" lon="-1.30201">
        <ele>5.1</ele>
        <time>2020-06-02T16:52:52Z</time>
      </trkpt>
      <trkpt lat="46.33239" lon="-1.30208">
        <ele>5.1</ele>
        <time>2020-06-02T16:52:53Z</time>
      </trkpt>
      <trkpt lat="46.33238" lon="-1.30216">
        <ele>5.1</ele>
        <time>2020-06-02T16:52:54Z</time>
      </trkpt>
      <trkpt lat="46.33236" lon="-1.30221">
        <ele>5.2</ele>
        <time>2020-06-02T16:52:55Z</time>
      </trkpt>
      <trkpt lat="46.33236" lon="-1.30227">
        <ele>5.2</ele>
        <time>2020-06-02T16:52:56Z</time>
      </trkpt>
      <trkpt lat="46.33239" lon="-1.30231">
        <ele>5.1</ele>
        <time>2020-06-02T16:52:57Z</time>
      </trkpt>
      <trkpt lat="46.33242" lon="-1.30234">
        <ele>5.1</ele>
        <time>2020-06-02T16:52:58Z</time>
      </trkpt>
      <trkpt lat="46.33246" lon="-1.30238">
        <ele>5.1</ele>
        <time>2020-06-02T16:52:59Z</time>
      </trkpt>
      <trkpt lat="46.33249" lon="-1.30243">
        <ele>5.1</ele>
        <time>2020-06-02T16:53:00Z</time>
      </trkpt>
      <trkpt lat="46.33253" lon="-1.30247">
        <ele>5.1</ele>
        <time>2020-06-02T16:53:01Z</time>
      </trkpt>
      <trkpt lat="46.33257" lon="-1.30251">
        <ele>5.1</ele>
        <time>2020-06-02T16:53:02Z</time>
      </trkpt>
      <trkpt lat="46.3326" lon="-1.30254">
        <ele>5.1</ele>
        <time>2020-06-02T16:53:03Z</time>
      </trkpt>
      <trkpt lat="46.33264" lon="-1.30259">
        <ele>5</ele>
        <time>2020-06-02T16:53:04Z</time>
      </trkpt>
      <trkpt lat="46.33267" lon="-1.30263">
        <ele>5</ele>
        <time>2020-06-02T16:53:05Z</time>
      </trkpt>
      <trkpt lat="46.3327" lon="-1.30268">
        <ele>5</ele>
        <time>2020-06-02T16:53:06Z</time>
      </trkpt>
      <trkpt lat="46.33273" lon="-1.30274">
        <ele>5</ele>
        <time>2020-06-02T16:53:07Z</time>
      </trkpt>
      <trkpt lat="46.33279" lon="-1.30274">
        <ele>5</ele>
        <time>2020-06-02T16:53:08Z</time>
      </trkpt>
      <trkpt lat="46.33283" lon="-1.30278">
        <ele>5</ele>
        <time>2020-06-02T16:53:09Z</time>
      </trkpt>
      <trkpt lat="46.33286" lon="-1.30282">
        <ele>5</ele>
        <time>2020-06-02T16:53:10Z</time>
      </trkpt>
      <trkpt lat="46.3329" lon="-1.30287">
        <ele>4.9</ele>
        <time>2020-06-02T16:53:11Z</time>
      </trkpt>
      <trkpt lat="46.33293" lon="-1.30292">
        <ele>4.9</ele>
        <time>2020-06-02T16:53:12Z</time>
      </trkpt>
      <trkpt lat="46.33297" lon="-1.30297">
        <ele>4.9</ele>
        <time>2020-06-02T16:53:13Z</time>
      </trkpt>
      <trkpt lat="46.33302" lon="-1.30302">
        <ele>4.8</ele>
        <time>2020-06-02T16:53:14Z</time>
      </trkpt>
      <trkpt lat="46.33306" lon="-1.30306">
        <ele>4.8</ele>
        <time>2020-06-02T16:53:15Z</time>
      </trkpt>
      <trkpt lat="46.3331" lon="-1.30311">
        <ele>4.8</ele>
        <time>2020-06-02T16:53:16Z</time>
      </trkpt>
      <trkpt lat="46.33314" lon="-1.30318">
        <ele>4.8</ele>
        <time>2020-06-02T16:53:17Z</time>
      </trkpt>
      <trkpt lat="46.33319" lon="-1.30325">
        <ele>4.8</ele>
        <time>2020-06-02T16:53:18Z</time>
      </trkpt>
      <trkpt lat="46.33323" lon="-1.30331">
        <ele>4.8</ele>
        <time>2020-06-02T16:53:19Z</time>
      </trkpt>
      <trkpt lat="46.33328" lon="-1.30338">
        <ele>4.8</ele>
        <time>2020-06-02T16:53:20Z</time>
      </trkpt>
      <trkpt lat="46.33332" lon="-1.30343">
        <ele>4.8</ele>
        <time>2020-06-02T16:53:21Z</time>
      </trkpt>
      <trkpt lat="46.33336" lon="-1.30348">
        <ele>4.8</ele>
        <time>2020-06-02T16:53:22Z</time>
      </trkpt>
      <trkpt lat="46.33341" lon="-1.30351">
        <ele>4.8</ele>
        <time>2020-06-02T16:53:23Z</time>
      </trkpt>
      <trkpt lat="46.33345" lon="-1.30356">
        <ele>4.8</ele>
        <time>2020-06-02T16:53:24Z</time>
      </trkpt>
      <trkpt lat="46.3335" lon="-1.30362">
        <ele>4.8</ele>
        <time>2020-06-02T16:53:25Z</time>
      </trkpt>
      <trkpt lat="46.33354" lon="-1.30368">
        <ele>4.8</ele>
        <time>2020-06-02T16:53:26Z</time>
      </trkpt>
      <trkpt lat="46.33358" lon="-1.30374">
        <ele>4.8</ele>
        <time>2020-06-02T16:53:27Z</time>
      </trkpt>
      <trkpt lat="46.33363" lon="-1.3038">
        <ele>4.7</ele>
        <time>2020-06-02T16:53:28Z</time>
      </trkpt>
      <trkpt lat="46.33367" lon="-1.30386">
        <ele>4.7</ele>
        <time>2020-06-02T16:53:29Z</time>
      </trkpt>
      <trkpt lat="46.33371" lon="-1.30393">
        <ele>4.7</ele>
        <time>2020-06-02T16:53:30Z</time>
      </trkpt>
      <trkpt lat="46.33376" lon="-1.30398">
        <ele>4.7</ele>
        <time>2020-06-02T16:53:31Z</time>
      </trkpt>
      <trkpt lat="46.3338" lon="-1.30404">
        <ele>4.7</ele>
        <time>2020-06-02T16:53:32Z</time>
      </trkpt>
      <trkpt lat="46.33385" lon="-1.30409">
        <ele>4.7</ele>
        <time>2020-06-02T16:53:33Z</time>
      </trkpt>
      <trkpt lat="46.33389" lon="-1.30416">
        <ele>4.7</ele>
        <time>2020-06-02T16:53:34Z</time>
      </trkpt>
      <trkpt lat="46.33393" lon="-1.30423">
        <ele>4.6</ele>
        <time>2020-06-02T16:53:35Z</time>
      </trkpt>
      <trkpt lat="46.33397" lon="-1.30428">
        <ele>4.6</ele>
        <time>2020-06-02T16:53:36Z</time>
      </trkpt>
      <trkpt lat="46.33401" lon="-1.30433">
        <ele>4.6</ele>
        <time>2020-06-02T16:53:37Z</time>
      </trkpt>
      <trkpt lat="46.33405" lon="-1.3044">
        <ele>4.5</ele>
        <time>2020-06-02T16:53:38Z</time>
      </trkpt>
      <trkpt lat="46.3341" lon="-1.30445">
        <ele>4.5</ele>
        <time>2020-06-02T16:53:39Z</time>
      </trkpt>
      <trkpt lat="46.33415" lon="-1.30451">
        <ele>4.5</ele>
        <time>2020-06-02T16:53:40Z</time>
      </trkpt>
      <trkpt lat="46.3342" lon="-1.30456">
        <ele>4.4</ele>
        <time>2020-06-02T16:53:41Z</time>
      </trkpt>
      <trkpt lat="46.33425" lon="-1.30461">
        <ele>4.4</ele>
        <time>2020-06-02T16:53:42Z</time>
      </trkpt>
      <trkpt lat="46.3343" lon="-1.30467">
        <ele>4.4</ele>
        <time>2020-06-02T16:53:43Z</time>
      </trkpt>
      <trkpt lat="46.33434" lon="-1.30474">
        <ele>4.4</ele>
        <time>2020-06-02T16:53:44Z</time>
      </trkpt>
      <trkpt lat="46.33438" lon="-1.30479">
        <ele>4.4</ele>
        <time>2020-06-02T16:53:45Z</time>
      </trkpt>
      <trkpt lat="46.33442" lon="-1.30485">
        <ele>4.4</ele>
        <time>2020-06-02T16:53:46Z</time>
      </trkpt>
      <trkpt lat="46.33448" lon="-1.30491">
        <ele>4.4</ele>
        <time>2020-06-02T16:53:47Z</time>
      </trkpt>
      <trkpt lat="46.33452" lon="-1.30496">
        <ele>4.4</ele>
        <time>2020-06-02T16:53:48Z</time>
      </trkpt>
      <trkpt lat="46.33457" lon="-1.30502">
        <ele>4.4</ele>
        <time>2020-06-02T16:53:49Z</time>
      </trkpt>
      <trkpt lat="46.33462" lon="-1.30507">
        <ele>4.4</ele>
        <time>2020-06-02T16:53:50Z</time>
      </trkpt>
      <trkpt lat="46.33467" lon="-1.30513">
        <ele>4.4</ele>
        <time>2020-06-02T16:53:51Z</time>
      </trkpt>
      <trkpt lat="46.33472" lon="-1.30518">
        <ele>4.4</ele>
        <time>2020-06-02T16:53:52Z</time>
      </trkpt>
      <trkpt lat="46.33476" lon="-1.30524">
        <ele>4.4</ele>
        <time>2020-06-02T16:53:53Z</time>
      </trkpt>
      <trkpt lat="46.33481" lon="-1.30529">
        <ele>4.4</ele>
        <time>2020-06-02T16:53:54Z</time>
      </trkpt>
      <trkpt lat="46.33486" lon="-1.30537">
        <ele>4.4</ele>
        <time>2020-06-02T16:53:55Z</time>
      </trkpt>
      <trkpt lat="46.33489" lon="-1.30542">
        <ele>4.4</ele>
        <time>2020-06-02T16:53:56Z</time>
      </trkpt>
      <trkpt lat="46.33493" lon="-1.30548">
        <ele>4.4</ele>
        <time>2020-06-02T16:53:57Z</time>
      </trkpt>
      <trkpt lat="46.33497" lon="-1.30553">
        <ele>4.5</ele>
        <time>2020-06-02T16:53:58Z</time>
      </trkpt>
      <trkpt lat="46.335" lon="-1.30559">
        <ele>4.5</ele>
        <time>2020-06-02T16:53:59Z</time>
      </trkpt>
      <trkpt lat="46.33505" lon="-1.30566">
        <ele>4.6</ele>
        <time>2020-06-02T16:54:00Z</time>
      </trkpt>
      <trkpt lat="46.33509" lon="-1.30571">
        <ele>4.6</ele>
        <time>2020-06-02T16:54:01Z</time>
      </trkpt>
      <trkpt lat="46.33513" lon="-1.30577">
        <ele>4.7</ele>
        <time>2020-06-02T16:54:02Z</time>
      </trkpt>
      <trkpt lat="46.33518" lon="-1.30581">
        <ele>4.7</ele>
        <time>2020-06-02T16:54:03Z</time>
      </trkpt>
      <trkpt lat="46.33521" lon="-1.30586">
        <ele>4.7</ele>
        <time>2020-06-02T16:54:04Z</time>
      </trkpt>
      <trkpt lat="46.33526" lon="-1.30592">
        <ele>4.7</ele>
        <time>2020-06-02T16:54:05Z</time>
      </trkpt>
      <trkpt lat="46.33531" lon="-1.30598">
        <ele>4.7</ele>
        <time>2020-06-02T16:54:06Z</time>
      </trkpt>
      <trkpt lat="46.33535" lon="-1.30603">
        <ele>4.7</ele>
        <time>2020-06-02T16:54:07Z</time>
      </trkpt>
      <trkpt lat="46.33538" lon="-1.30608">
        <ele>4.7</ele>
        <time>2020-06-02T16:54:08Z</time>
      </trkpt>
      <trkpt lat="46.33543" lon="-1.30614">
        <ele>4.6</ele>
        <time>2020-06-02T16:54:09Z</time>
      </trkpt>
      <trkpt lat="46.33547" lon="-1.30618">
        <ele>4.6</ele>
        <time>2020-06-02T16:54:10Z</time>
      </trkpt>
      <trkpt lat="46.33551" lon="-1.30623">
        <ele>4.6</ele>
        <time>2020-06-02T16:54:11Z</time>
      </trkpt>
      <trkpt lat="46.33555" lon="-1.30629">
        <ele>4.6</ele>
        <time>2020-06-02T16:54:12Z</time>
      </trkpt>
      <trkpt lat="46.3356" lon="-1.30635">
        <ele>4.6</ele>
        <time>2020-06-02T16:54:13Z</time>
      </trkpt>
      <trkpt lat="46.33565" lon="-1.30641">
        <ele>4.6</ele>
        <time>2020-06-02T16:54:14Z</time>
      </trkpt>
      <trkpt lat="46.3357" lon="-1.30648">
        <ele>4.5</ele>
        <time>2020-06-02T16:54:15Z</time>
      </trkpt>
      <trkpt lat="46.33574" lon="-1.30654">
        <ele>4.5</ele>
        <time>2020-06-02T16:54:16Z</time>
      </trkpt>
      <trkpt lat="46.33579" lon="-1.3066">
        <ele>4.5</ele>
        <time>2020-06-02T16:54:17Z</time>
      </trkpt>
      <trkpt lat="46.33583" lon="-1.30666">
        <ele>4.5</ele>
        <time>2020-06-02T16:54:18Z</time>
      </trkpt>
      <trkpt lat="46.33587" lon="-1.30671">
        <ele>4.4</ele>
        <time>2020-06-02T16:54:19Z</time>
      </trkpt>
      <trkpt lat="46.33592" lon="-1.30676">
        <ele>4.4</ele>
        <time>2020-06-02T16:54:20Z</time>
      </trkpt>
      <trkpt lat="46.33597" lon="-1.30681">
        <ele>4.4</ele>
        <time>2020-06-02T16:54:21Z</time>
      </trkpt>
      <trkpt lat="46.33602" lon="-1.30686">
        <ele>4.3</ele>
        <time>2020-06-02T16:54:22Z</time>
      </trkpt>
      <trkpt lat="46.33607" lon="-1.30691">
        <ele>4.3</ele>
        <time>2020-06-02T16:54:23Z</time>
      </trkpt>
      <trkpt lat="46.3361" lon="-1.30696">
        <ele>4.3</ele>
        <time>2020-06-02T16:54:24Z</time>
      </trkpt>
      <trkpt lat="46.33615" lon="-1.30702">
        <ele>4.3</ele>
        <time>2020-06-02T16:54:25Z</time>
      </trkpt>
      <trkpt lat="46.33619" lon="-1.30707">
        <ele>4.3</ele>
        <time>2020-06-02T16:54:26Z</time>
      </trkpt>
      <trkpt lat="46.33624" lon="-1.30713">
        <ele>4.3</ele>
        <time>2020-06-02T16:54:27Z</time>
      </trkpt>
      <trkpt lat="46.33629" lon="-1.30719">
        <ele>4.3</ele>
        <time>2020-06-02T16:54:28Z</time>
      </trkpt>
      <trkpt lat="46.33633" lon="-1.30729">
        <ele>4.3</ele>
        <time>2020-06-02T16:54:29Z</time>
      </trkpt>
      <trkpt lat="46.33636" lon="-1.30733">
        <ele>4.3</ele>
        <time>2020-06-02T16:54:30Z</time>
      </trkpt>
      <trkpt lat="46.33641" lon="-1.30739">
        <ele>4.3</ele>
        <time>2020-06-02T16:54:31Z</time>
      </trkpt>
      <trkpt lat="46.33644" lon="-1.30743">
        <ele>4.3</ele>
        <time>2020-06-02T16:54:32Z</time>
      </trkpt>
      <trkpt lat="46.33647" lon="-1.30745">
        <ele>4.3</ele>
        <time>2020-06-02T16:54:33Z</time>
      </trkpt>
      <trkpt lat="46.3365" lon="-1.30749">
        <ele>4.3</ele>
        <time>2020-06-02T16:54:34Z</time>
      </trkpt>
      <trkpt lat="46.33653" lon="-1.30752">
        <ele>4.3</ele>
        <time>2020-06-02T16:54:35Z</time>
      </trkpt>
      <trkpt lat="46.33657" lon="-1.30757">
        <ele>4.3</ele>
        <time>2020-06-02T16:54:36Z</time>
      </trkpt>
      <trkpt lat="46.33659" lon="-1.30762">
        <ele>4.2</ele>
        <time>2020-06-02T16:54:37Z</time>
      </trkpt>
      <trkpt lat="46.3366" lon="-1.30768">
        <ele>4.1</ele>
        <time>2020-06-02T16:54:38Z</time>
      </trkpt>
      <trkpt lat="46.33663" lon="-1.30772">
        <ele>4</ele>
        <time>2020-06-02T16:54:39Z</time>
      </trkpt>
      <trkpt lat="46.33666" lon="-1.30777">
        <ele>3.9</ele>
        <time>2020-06-02T16:54:40Z</time>
      </trkpt>
      <trkpt lat="46.3367" lon="-1.30781">
        <ele>3.7</ele>
        <time>2020-06-02T16:54:41Z</time>
      </trkpt>
      <trkpt lat="46.33674" lon="-1.30787">
        <ele>3.7</ele>
        <time>2020-06-02T16:54:42Z</time>
      </trkpt>
      <trkpt lat="46.33678" lon="-1.30792">
        <ele>3.7</ele>
        <time>2020-06-02T16:54:43Z</time>
      </trkpt>
      <trkpt lat="46.33682" lon="-1.30797">
        <ele>3.7</ele>
        <time>2020-06-02T16:54:44Z</time>
      </trkpt>
      <trkpt lat="46.33687" lon="-1.30803">
        <ele>3.7</ele>
        <time>2020-06-02T16:54:45Z</time>
      </trkpt>
      <trkpt lat="46.33692" lon="-1.30808">
        <ele>3.6</ele>
        <time>2020-06-02T16:54:46Z</time>
      </trkpt>
      <trkpt lat="46.33695" lon="-1.30813">
        <ele>3.6</ele>
        <time>2020-06-02T16:54:47Z</time>
      </trkpt>
      <trkpt lat="46.33699" lon="-1.3082">
        <ele>3.6</ele>
        <time>2020-06-02T16:54:48Z</time>
      </trkpt>
      <trkpt lat="46.33703" lon="-1.30827">
        <ele>3.6</ele>
        <time>2020-06-02T16:54:49Z</time>
      </trkpt>
      <trkpt lat="46.33708" lon="-1.30833">
        <ele>3.6</ele>
        <time>2020-06-02T16:54:50Z</time>
      </trkpt>
      <trkpt lat="46.33712" lon="-1.30838">
        <ele>3.6</ele>
        <time>2020-06-02T16:54:51Z</time>
      </trkpt>
      <trkpt lat="46.33716" lon="-1.30844">
        <ele>3.6</ele>
        <time>2020-06-02T16:54:52Z</time>
      </trkpt>
      <trkpt lat="46.33721" lon="-1.30849">
        <ele>3.6</ele>
        <time>2020-06-02T16:54:53Z</time>
      </trkpt>
      <trkpt lat="46.33725" lon="-1.30854">
        <ele>3.6</ele>
        <time>2020-06-02T16:54:54Z</time>
      </trkpt>
      <trkpt lat="46.33729" lon="-1.30859">
        <ele>3.6</ele>
        <time>2020-06-02T16:54:55Z</time>
      </trkpt>
      <trkpt lat="46.33732" lon="-1.30866">
        <ele>3.6</ele>
        <time>2020-06-02T16:54:56Z</time>
      </trkpt>
      <trkpt lat="46.33735" lon="-1.30871">
        <ele>3.5</ele>
        <time>2020-06-02T16:54:57Z</time>
      </trkpt>
      <trkpt lat="46.33739" lon="-1.30876">
        <ele>3.5</ele>
        <time>2020-06-02T16:54:58Z</time>
      </trkpt>
      <trkpt lat="46.33743" lon="-1.30883">
        <ele>3.5</ele>
        <time>2020-06-02T16:54:59Z</time>
      </trkpt>
      <trkpt lat="46.33747" lon="-1.30891">
        <ele>3.5</ele>
        <time>2020-06-02T16:55:00Z</time>
      </trkpt>
      <trkpt lat="46.33751" lon="-1.30896">
        <ele>3.5</ele>
        <time>2020-06-02T16:55:01Z</time>
      </trkpt>
      <trkpt lat="46.33755" lon="-1.30902">
        <ele>3.4</ele>
        <time>2020-06-02T16:55:02Z</time>
      </trkpt>
      <trkpt lat="46.33758" lon="-1.30909">
        <ele>3.4</ele>
        <time>2020-06-02T16:55:03Z</time>
      </trkpt>
      <trkpt lat="46.33763" lon="-1.30916">
        <ele>3.4</ele>
        <time>2020-06-02T16:55:04Z</time>
      </trkpt>
      <trkpt lat="46.33767" lon="-1.30922">
        <ele>3.4</ele>
        <time>2020-06-02T16:55:05Z</time>
      </trkpt>
      <trkpt lat="46.3377" lon="-1.30929">
        <ele>3.3</ele>
        <time>2020-06-02T16:55:06Z</time>
      </trkpt>
      <trkpt lat="46.33774" lon="-1.30935">
        <ele>3.3</ele>
        <time>2020-06-02T16:55:07Z</time>
      </trkpt>
      <trkpt lat="46.33777" lon="-1.30942">
        <ele>3.3</ele>
        <time>2020-06-02T16:55:08Z</time>
      </trkpt>
      <trkpt lat="46.33781" lon="-1.3095">
        <ele>3.3</ele>
        <time>2020-06-02T16:55:09Z</time>
      </trkpt>
      <trkpt lat="46.33783" lon="-1.30955">
        <ele>3.3</ele>
        <time>2020-06-02T16:55:10Z</time>
      </trkpt>
      <trkpt lat="46.33787" lon="-1.30961">
        <ele>3.2</ele>
        <time>2020-06-02T16:55:11Z</time>
      </trkpt>
      <trkpt lat="46.33788" lon="-1.30967">
        <ele>3.2</ele>
        <time>2020-06-02T16:55:12Z</time>
      </trkpt>
      <trkpt lat="46.33792" lon="-1.30972">
        <ele>3.2</ele>
        <time>2020-06-02T16:55:13Z</time>
      </trkpt>
      <trkpt lat="46.33795" lon="-1.30977">
        <ele>3.2</ele>
        <time>2020-06-02T16:55:14Z</time>
      </trkpt>
      <trkpt lat="46.33796" lon="-1.30981">
        <ele>3.2</ele>
        <time>2020-06-02T16:55:15Z</time>
      </trkpt>
      <trkpt lat="46.338" lon="-1.30985">
        <ele>3.2</ele>
        <time>2020-06-02T16:55:16Z</time>
      </trkpt>
      <trkpt lat="46.33802" lon="-1.3099">
        <ele>3.2</ele>
        <time>2020-06-02T16:55:17Z</time>
      </trkpt>
      <trkpt lat="46.33804" lon="-1.30995">
        <ele>3.2</ele>
        <time>2020-06-02T16:55:18Z</time>
      </trkpt>
      <trkpt lat="46.33804" lon="-1.31">
        <ele>3.3</ele>
        <time>2020-06-02T16:55:19Z</time>
      </trkpt>
      <trkpt lat="46.33802" lon="-1.31008">
        <ele>3.3</ele>
        <time>2020-06-02T16:55:20Z</time>
      </trkpt>
      <trkpt lat="46.33799" lon="-1.31013">
        <ele>3.4</ele>
        <time>2020-06-02T16:55:21Z</time>
      </trkpt>
      <trkpt lat="46.33797" lon="-1.31018">
        <ele>3.4</ele>
        <time>2020-06-02T16:55:22Z</time>
      </trkpt>
      <trkpt lat="46.33794" lon="-1.31023">
        <ele>3.4</ele>
        <time>2020-06-02T16:55:23Z</time>
      </trkpt>
      <trkpt lat="46.33792" lon="-1.3103">
        <ele>3.5</ele>
        <time>2020-06-02T16:55:24Z</time>
      </trkpt>
      <trkpt lat="46.33789" lon="-1.31035">
        <ele>3.6</ele>
        <time>2020-06-02T16:55:25Z</time>
      </trkpt>
      <trkpt lat="46.33786" lon="-1.31042">
        <ele>3.6</ele>
        <time>2020-06-02T16:55:26Z</time>
      </trkpt>
      <trkpt lat="46.33784" lon="-1.31048">
        <ele>3.7</ele>
        <time>2020-06-02T16:55:27Z</time>
      </trkpt>
      <trkpt lat="46.33781" lon="-1.31054">
        <ele>3.7</ele>
        <time>2020-06-02T16:55:28Z</time>
      </trkpt>
      <trkpt lat="46.33779" lon="-1.3106">
        <ele>3.8</ele>
        <time>2020-06-02T16:55:29Z</time>
      </trkpt>
      <trkpt lat="46.33776" lon="-1.31065">
        <ele>3.9</ele>
        <time>2020-06-02T16:55:30Z</time>
      </trkpt>
      <trkpt lat="46.33772" lon="-1.31071">
        <ele>3.9</ele>
        <time>2020-06-02T16:55:31Z</time>
      </trkpt>
      <trkpt lat="46.33771" lon="-1.31078">
        <ele>4</ele>
        <time>2020-06-02T16:55:32Z</time>
      </trkpt>
      <trkpt lat="46.33768" lon="-1.31084">
        <ele>4</ele>
        <time>2020-06-02T16:55:33Z</time>
      </trkpt>
      <trkpt lat="46.33765" lon="-1.3109">
        <ele>4.1</ele>
        <time>2020-06-02T16:55:34Z</time>
      </trkpt>
      <trkpt lat="46.33763" lon="-1.31096">
        <ele>4.2</ele>
        <time>2020-06-02T16:55:35Z</time>
      </trkpt>
      <trkpt lat="46.3376" lon="-1.31103">
        <ele>4.2</ele>
        <time>2020-06-02T16:55:36Z</time>
      </trkpt>
      <trkpt lat="46.33756" lon="-1.3111">
        <ele>4.3</ele>
        <time>2020-06-02T16:55:37Z</time>
      </trkpt>
      <trkpt lat="46.33752" lon="-1.31117">
        <ele>4.4</ele>
        <time>2020-06-02T16:55:38Z</time>
      </trkpt>
      <trkpt lat="46.33749" lon="-1.31124">
        <ele>4.5</ele>
        <time>2020-06-02T16:55:39Z</time>
      </trkpt>
      <trkpt lat="46.33745" lon="-1.31131">
        <ele>4.5</ele>
        <time>2020-06-02T16:55:40Z</time>
      </trkpt>
      <trkpt lat="46.33741" lon="-1.31135">
        <ele>4.6</ele>
        <time>2020-06-02T16:55:41Z</time>
      </trkpt>
      <trkpt lat="46.33738" lon="-1.31142">
        <ele>4.6</ele>
        <time>2020-06-02T16:55:42Z</time>
      </trkpt>
      <trkpt lat="46.33734" lon="-1.31148">
        <ele>4.7</ele>
        <time>2020-06-02T16:55:43Z</time>
      </trkpt>
      <trkpt lat="46.3373" lon="-1.31155">
        <ele>4.8</ele>
        <time>2020-06-02T16:55:44Z</time>
      </trkpt>
      <trkpt lat="46.33727" lon="-1.3116">
        <ele>4.8</ele>
        <time>2020-06-02T16:55:45Z</time>
      </trkpt>
      <trkpt lat="46.33724" lon="-1.31166">
        <ele>4.9</ele>
        <time>2020-06-02T16:55:46Z</time>
      </trkpt>
      <trkpt lat="46.33722" lon="-1.31173">
        <ele>5</ele>
        <time>2020-06-02T16:55:47Z</time>
      </trkpt>
      <trkpt lat="46.3372" lon="-1.31178">
        <ele>5</ele>
        <time>2020-06-02T16:55:48Z</time>
      </trkpt>
      <trkpt lat="46.33717" lon="-1.31183">
        <ele>5</ele>
        <time>2020-06-02T16:55:49Z</time>
      </trkpt>
      <trkpt lat="46.33713" lon="-1.31188">
        <ele>5</ele>
        <time>2020-06-02T16:55:50Z</time>
      </trkpt>
      <trkpt lat="46.33709" lon="-1.31194">
        <ele>4.9</ele>
        <time>2020-06-02T16:55:51Z</time>
      </trkpt>
      <trkpt lat="46.33706" lon="-1.31202">
        <ele>4.9</ele>
        <time>2020-06-02T16:55:52Z</time>
      </trkpt>
      <trkpt lat="46.33702" lon="-1.31209">
        <ele>4.9</ele>
        <time>2020-06-02T16:55:53Z</time>
      </trkpt>
      <trkpt lat="46.33699" lon="-1.31215">
        <ele>4.8</ele>
        <time>2020-06-02T16:55:54Z</time>
      </trkpt>
      <trkpt lat="46.33696" lon="-1.31222">
        <ele>4.8</ele>
        <time>2020-06-02T16:55:55Z</time>
      </trkpt>
      <trkpt lat="46.33693" lon="-1.31229">
        <ele>4.8</ele>
        <time>2020-06-02T16:55:56Z</time>
      </trkpt>
      <trkpt lat="46.33689" lon="-1.31236">
        <ele>4.7</ele>
        <time>2020-06-02T16:55:57Z</time>
      </trkpt>
      <trkpt lat="46.33686" lon="-1.31241">
        <ele>4.7</ele>
        <time>2020-06-02T16:55:58Z</time>
      </trkpt>
      <trkpt lat="46.33683" lon="-1.31249">
        <ele>4.6</ele>
        <time>2020-06-02T16:55:59Z</time>
      </trkpt>
      <trkpt lat="46.3368" lon="-1.31256">
        <ele>4.5</ele>
        <time>2020-06-02T16:56:00Z</time>
      </trkpt>
      <trkpt lat="46.33677" lon="-1.31263">
        <ele>4.5</ele>
        <time>2020-06-02T16:56:01Z</time>
      </trkpt>
      <trkpt lat="46.33674" lon="-1.31271">
        <ele>4.4</ele>
        <time>2020-06-02T16:56:02Z</time>
      </trkpt>
      <trkpt lat="46.33671" lon="-1.31277">
        <ele>4.3</ele>
        <time>2020-06-02T16:56:03Z</time>
      </trkpt>
      <trkpt lat="46.33667" lon="-1.31284">
        <ele>4.3</ele>
        <time>2020-06-02T16:56:04Z</time>
      </trkpt>
      <trkpt lat="46.33665" lon="-1.31292">
        <ele>4.3</ele>
        <time>2020-06-02T16:56:05Z</time>
      </trkpt>
      <trkpt lat="46.33662" lon="-1.31299">
        <ele>4.2</ele>
        <time>2020-06-02T16:56:06Z</time>
      </trkpt>
      <trkpt lat="46.33659" lon="-1.31307">
        <ele>4.2</ele>
        <time>2020-06-02T16:56:07Z</time>
      </trkpt>
      <trkpt lat="46.33657" lon="-1.31314">
        <ele>4.2</ele>
        <time>2020-06-02T16:56:08Z</time>
      </trkpt>
      <trkpt lat="46.33654" lon="-1.31322">
        <ele>4.1</ele>
        <time>2020-06-02T16:56:09Z</time>
      </trkpt>
      <trkpt lat="46.3365" lon="-1.31327">
        <ele>4.1</ele>
        <time>2020-06-02T16:56:10Z</time>
      </trkpt>
      <trkpt lat="46.33646" lon="-1.31334">
        <ele>4.1</ele>
        <time>2020-06-02T16:56:11Z</time>
      </trkpt>
      <trkpt lat="46.33643" lon="-1.31343">
        <ele>4.1</ele>
        <time>2020-06-02T16:56:12Z</time>
      </trkpt>
      <trkpt lat="46.33639" lon="-1.3135">
        <ele>4.1</ele>
        <time>2020-06-02T16:56:13Z</time>
      </trkpt>
      <trkpt lat="46.33635" lon="-1.31358">
        <ele>4.1</ele>
        <time>2020-06-02T16:56:14Z</time>
      </trkpt>
      <trkpt lat="46.33632" lon="-1.31367">
        <ele>4.2</ele>
        <time>2020-06-02T16:56:15Z</time>
      </trkpt>
      <trkpt lat="46.33628" lon="-1.31373">
        <ele>4.2</ele>
        <time>2020-06-02T16:56:16Z</time>
      </trkpt>
      <trkpt lat="46.33623" lon="-1.31381">
        <ele>4.3</ele>
        <time>2020-06-02T16:56:17Z</time>
      </trkpt>
      <trkpt lat="46.33619" lon="-1.31389">
        <ele>4.3</ele>
        <time>2020-06-02T16:56:18Z</time>
      </trkpt>
      <trkpt lat="46.33615" lon="-1.31398">
        <ele>4.3</ele>
        <time>2020-06-02T16:56:19Z</time>
      </trkpt>
      <trkpt lat="46.33613" lon="-1.31407">
        <ele>4.3</ele>
        <time>2020-06-02T16:56:20Z</time>
      </trkpt>
      <trkpt lat="46.3361" lon="-1.31413">
        <ele>4.4</ele>
        <time>2020-06-02T16:56:21Z</time>
      </trkpt>
      <trkpt lat="46.33606" lon="-1.3142">
        <ele>4.4</ele>
        <time>2020-06-02T16:56:22Z</time>
      </trkpt>
      <trkpt lat="46.33603" lon="-1.31425">
        <ele>4.4</ele>
        <time>2020-06-02T16:56:23Z</time>
      </trkpt>
      <trkpt lat="46.336" lon="-1.31434">
        <ele>4.4</ele>
        <time>2020-06-02T16:56:24Z</time>
      </trkpt>
      <trkpt lat="46.33597" lon="-1.31441">
        <ele>4.4</ele>
        <time>2020-06-02T16:56:25Z</time>
      </trkpt>
      <trkpt lat="46.33598" lon="-1.31448">
        <ele>4.5</ele>
        <time>2020-06-02T16:56:26Z</time>
      </trkpt>
      <trkpt lat="46.33599" lon="-1.31456">
        <ele>4.6</ele>
        <time>2020-06-02T16:56:27Z</time>
      </trkpt>
      <trkpt lat="46.33599" lon="-1.31463">
        <ele>4.6</ele>
        <time>2020-06-02T16:56:28Z</time>
      </trkpt>
      <trkpt lat="46.33597" lon="-1.3147">
        <ele>4.6</ele>
        <time>2020-06-02T16:56:29Z</time>
      </trkpt>
      <trkpt lat="46.33594" lon="-1.31475">
        <ele>4.6</ele>
        <time>2020-06-02T16:56:30Z</time>
      </trkpt>
      <trkpt lat="46.33589" lon="-1.31479">
        <ele>4.6</ele>
        <time>2020-06-02T16:56:31Z</time>
      </trkpt>
      <trkpt lat="46.33585" lon="-1.31483">
        <ele>4.6</ele>
        <time>2020-06-02T16:56:32Z</time>
      </trkpt>
      <trkpt lat="46.33579" lon="-1.31485">
        <ele>4.6</ele>
        <time>2020-06-02T16:56:33Z</time>
      </trkpt>
      <trkpt lat="46.33574" lon="-1.31489">
        <ele>4.5</ele>
        <time>2020-06-02T16:56:34Z</time>
      </trkpt>
      <trkpt lat="46.3357" lon="-1.31495">
        <ele>4.4</ele>
        <time>2020-06-02T16:56:35Z</time>
      </trkpt>
      <trkpt lat="46.33567" lon="-1.31501">
        <ele>4.4</ele>
        <time>2020-06-02T16:56:36Z</time>
      </trkpt>
      <trkpt lat="46.33565" lon="-1.3151">
        <ele>4.4</ele>
        <time>2020-06-02T16:56:37Z</time>
      </trkpt>
      <trkpt lat="46.33562" lon="-1.31517">
        <ele>4.4</ele>
        <time>2020-06-02T16:56:38Z</time>
      </trkpt>
      <trkpt lat="46.33558" lon="-1.31524">
        <ele>4.4</ele>
        <time>2020-06-02T16:56:39Z</time>
      </trkpt>
      <trkpt lat="46.33555" lon="-1.31532">
        <ele>4.5</ele>
        <time>2020-06-02T16:56:40Z</time>
      </trkpt>
      <trkpt lat="46.33551" lon="-1.31538">
        <ele>4.5</ele>
        <time>2020-06-02T16:56:41Z</time>
      </trkpt>
      <trkpt lat="46.33548" lon="-1.31545">
        <ele>4.5</ele>
        <time>2020-06-02T16:56:42Z</time>
      </trkpt>
      <trkpt lat="46.33545" lon="-1.31551">
        <ele>4.5</ele>
        <time>2020-06-02T16:56:43Z</time>
      </trkpt>
      <trkpt lat="46.33542" lon="-1.31556">
        <ele>4.5</ele>
        <time>2020-06-02T16:56:44Z</time>
      </trkpt>
      <trkpt lat="46.33538" lon="-1.31562">
        <ele>4.6</ele>
        <time>2020-06-02T16:56:45Z</time>
      </trkpt>
      <trkpt lat="46.33536" lon="-1.31568">
        <ele>4.7</ele>
        <time>2020-06-02T16:56:46Z</time>
      </trkpt>
      <trkpt lat="46.33532" lon="-1.31574">
        <ele>4.7</ele>
        <time>2020-06-02T16:56:47Z</time>
      </trkpt>
      <trkpt lat="46.33529" lon="-1.3158">
        <ele>4.8</ele>
        <time>2020-06-02T16:56:48Z</time>
      </trkpt>
      <trkpt lat="46.33527" lon="-1.31588">
        <ele>4.8</ele>
        <time>2020-06-02T16:56:49Z</time>
      </trkpt>
      <trkpt lat="46.33524" lon="-1.31596">
        <ele>4.8</ele>
        <time>2020-06-02T16:56:50Z</time>
      </trkpt>
      <trkpt lat="46.3352" lon="-1.31602">
        <ele>4.8</ele>
        <time>2020-06-02T16:56:51Z</time>
      </trkpt>
      <trkpt lat="46.33517" lon="-1.31609">
        <ele>4.9</ele>
        <time>2020-06-02T16:56:52Z</time>
      </trkpt>
      <trkpt lat="46.33514" lon="-1.31616">
        <ele>4.9</ele>
        <time>2020-06-02T16:56:53Z</time>
      </trkpt>
      <trkpt lat="46.33511" lon="-1.31623">
        <ele>4.9</ele>
        <time>2020-06-02T16:56:54Z</time>
      </trkpt>
      <trkpt lat="46.33507" lon="-1.31628">
        <ele>4.9</ele>
        <time>2020-06-02T16:56:55Z</time>
      </trkpt>
      <trkpt lat="46.33504" lon="-1.31634">
        <ele>4.9</ele>
        <time>2020-06-02T16:56:56Z</time>
      </trkpt>
      <trkpt lat="46.33502" lon="-1.31641">
        <ele>4.9</ele>
        <time>2020-06-02T16:56:57Z</time>
      </trkpt>
      <trkpt lat="46.33499" lon="-1.31647">
        <ele>4.9</ele>
        <time>2020-06-02T16:56:58Z</time>
      </trkpt>
      <trkpt lat="46.33496" lon="-1.31655">
        <ele>4.9</ele>
        <time>2020-06-02T16:56:59Z</time>
      </trkpt>
      <trkpt lat="46.33493" lon="-1.31661">
        <ele>4.9</ele>
        <time>2020-06-02T16:57:00Z</time>
      </trkpt>
      <trkpt lat="46.33491" lon="-1.31667">
        <ele>4.9</ele>
        <time>2020-06-02T16:57:01Z</time>
      </trkpt>
      <trkpt lat="46.33489" lon="-1.31673">
        <ele>4.9</ele>
        <time>2020-06-02T16:57:02Z</time>
      </trkpt>
      <trkpt lat="46.33486" lon="-1.31679">
        <ele>4.8</ele>
        <time>2020-06-02T16:57:03Z</time>
      </trkpt>
      <trkpt lat="46.33483" lon="-1.31683">
        <ele>4.8</ele>
        <time>2020-06-02T16:57:04Z</time>
      </trkpt>
      <trkpt lat="46.33479" lon="-1.31689">
        <ele>4.8</ele>
        <time>2020-06-02T16:57:05Z</time>
      </trkpt>
      <trkpt lat="46.33477" lon="-1.31695">
        <ele>4.8</ele>
        <time>2020-06-02T16:57:06Z</time>
      </trkpt>
      <trkpt lat="46.33475" lon="-1.31701">
        <ele>4.8</ele>
        <time>2020-06-02T16:57:07Z</time>
      </trkpt>
      <trkpt lat="46.33472" lon="-1.31707">
        <ele>4.8</ele>
        <time>2020-06-02T16:57:08Z</time>
      </trkpt>
      <trkpt lat="46.33469" lon="-1.31714">
        <ele>4.8</ele>
        <time>2020-06-02T16:57:09Z</time>
      </trkpt>
      <trkpt lat="46.33465" lon="-1.3172">
        <ele>4.8</ele>
        <time>2020-06-02T16:57:10Z</time>
      </trkpt>
      <trkpt lat="46.33463" lon="-1.31727">
        <ele>4.8</ele>
        <time>2020-06-02T16:57:11Z</time>
      </trkpt>
      <trkpt lat="46.33461" lon="-1.31733">
        <ele>4.8</ele>
        <time>2020-06-02T16:57:12Z</time>
      </trkpt>
      <trkpt lat="46.33457" lon="-1.31741">
        <ele>4.8</ele>
        <time>2020-06-02T16:57:13Z</time>
      </trkpt>
      <trkpt lat="46.33454" lon="-1.31747">
        <ele>4.8</ele>
        <time>2020-06-02T16:57:14Z</time>
      </trkpt>
      <trkpt lat="46.33451" lon="-1.31753">
        <ele>4.8</ele>
        <time>2020-06-02T16:57:15Z</time>
      </trkpt>
      <trkpt lat="46.33448" lon="-1.31759">
        <ele>4.8</ele>
        <time>2020-06-02T16:57:16Z</time>
      </trkpt>
      <trkpt lat="46.33445" lon="-1.31766">
        <ele>4.8</ele>
        <time>2020-06-02T16:57:17Z</time>
      </trkpt>
      <trkpt lat="46.33443" lon="-1.31772">
        <ele>4.8</ele>
        <time>2020-06-02T16:57:18Z</time>
      </trkpt>
      <trkpt lat="46.3344" lon="-1.31778">
        <ele>4.8</ele>
        <time>2020-06-02T16:57:19Z</time>
      </trkpt>
      <trkpt lat="46.33437" lon="-1.31786">
        <ele>4.8</ele>
        <time>2020-06-02T16:57:20Z</time>
      </trkpt>
      <trkpt lat="46.33433" lon="-1.31793">
        <ele>4.7</ele>
        <time>2020-06-02T16:57:21Z</time>
      </trkpt>
      <trkpt lat="46.3343" lon="-1.31801">
        <ele>4.7</ele>
        <time>2020-06-02T16:57:22Z</time>
      </trkpt>
      <trkpt lat="46.33426" lon="-1.31807">
        <ele>4.6</ele>
        <time>2020-06-02T16:57:23Z</time>
      </trkpt>
      <trkpt lat="46.33422" lon="-1.31814">
        <ele>4.5</ele>
        <time>2020-06-02T16:57:24Z</time>
      </trkpt>
      <trkpt lat="46.33418" lon="-1.31822">
        <ele>4.4</ele>
        <time>2020-06-02T16:57:25Z</time>
      </trkpt>
      <trkpt lat="46.33415" lon="-1.31829">
        <ele>4.4</ele>
        <time>2020-06-02T16:57:26Z</time>
      </trkpt>
      <trkpt lat="46.33411" lon="-1.31835">
        <ele>4.3</ele>
        <time>2020-06-02T16:57:27Z</time>
      </trkpt>
      <trkpt lat="46.33408" lon="-1.31842">
        <ele>4.2</ele>
        <time>2020-06-02T16:57:28Z</time>
      </trkpt>
      <trkpt lat="46.33404" lon="-1.31849">
        <ele>4.1</ele>
        <time>2020-06-02T16:57:29Z</time>
      </trkpt>
      <trkpt lat="46.33401" lon="-1.31857">
        <ele>4.1</ele>
        <time>2020-06-02T16:57:30Z</time>
      </trkpt>
      <trkpt lat="46.33398" lon="-1.31864">
        <ele>4</ele>
        <time>2020-06-02T16:57:31Z</time>
      </trkpt>
      <trkpt lat="46.33395" lon="-1.3187">
        <ele>4</ele>
        <time>2020-06-02T16:57:32Z</time>
      </trkpt>
      <trkpt lat="46.33392" lon="-1.31878">
        <ele>4</ele>
        <time>2020-06-02T16:57:33Z</time>
      </trkpt>
      <trkpt lat="46.33389" lon="-1.31885">
        <ele>4</ele>
        <time>2020-06-02T16:57:34Z</time>
      </trkpt>
      <trkpt lat="46.33386" lon="-1.31893">
        <ele>3.9</ele>
        <time>2020-06-02T16:57:35Z</time>
      </trkpt>
      <trkpt lat="46.33382" lon="-1.319">
        <ele>3.9</ele>
        <time>2020-06-02T16:57:36Z</time>
      </trkpt>
      <trkpt lat="46.33379" lon="-1.31906">
        <ele>3.9</ele>
        <time>2020-06-02T16:57:37Z</time>
      </trkpt>
      <trkpt lat="46.33376" lon="-1.31913">
        <ele>3.9</ele>
        <time>2020-06-02T16:57:38Z</time>
      </trkpt>
      <trkpt lat="46.33373" lon="-1.31919">
        <ele>3.8</ele>
        <time>2020-06-02T16:57:39Z</time>
      </trkpt>
      <trkpt lat="46.3337" lon="-1.31926">
        <ele>3.8</ele>
        <time>2020-06-02T16:57:40Z</time>
      </trkpt>
      <trkpt lat="46.33366" lon="-1.31932">
        <ele>3.7</ele>
        <time>2020-06-02T16:57:41Z</time>
      </trkpt>
      <trkpt lat="46.33362" lon="-1.31936">
        <ele>3.7</ele>
        <time>2020-06-02T16:57:42Z</time>
      </trkpt>
      <trkpt lat="46.33359" lon="-1.31942">
        <ele>3.7</ele>
        <time>2020-06-02T16:57:43Z</time>
      </trkpt>
      <trkpt lat="46.33356" lon="-1.31947">
        <ele>3.6</ele>
        <time>2020-06-02T16:57:44Z</time>
      </trkpt>
      <trkpt lat="46.33353" lon="-1.31953">
        <ele>3.6</ele>
        <time>2020-06-02T16:57:45Z</time>
      </trkpt>
      <trkpt lat="46.33351" lon="-1.3196">
        <ele>3.5</ele>
        <time>2020-06-02T16:57:46Z</time>
      </trkpt>
      <trkpt lat="46.33349" lon="-1.31965">
        <ele>3.5</ele>
        <time>2020-06-02T16:57:47Z</time>
      </trkpt>
      <trkpt lat="46.33346" lon="-1.31971">
        <ele>3.4</ele>
        <time>2020-06-02T16:57:48Z</time>
      </trkpt>
      <trkpt lat="46.33343" lon="-1.31977">
        <ele>3.3</ele>
        <time>2020-06-02T16:57:49Z</time>
      </trkpt>
      <trkpt lat="46.33341" lon="-1.31985">
        <ele>3.3</ele>
        <time>2020-06-02T16:57:50Z</time>
      </trkpt>
      <trkpt lat="46.33339" lon="-1.31994">
        <ele>3.2</ele>
        <time>2020-06-02T16:57:51Z</time>
      </trkpt>
      <trkpt lat="46.33337" lon="-1.32002">
        <ele>3.1</ele>
        <time>2020-06-02T16:57:52Z</time>
      </trkpt>
      <trkpt lat="46.33334" lon="-1.3201">
        <ele>3.1</ele>
        <time>2020-06-02T16:57:53Z</time>
      </trkpt>
      <trkpt lat="46.33332" lon="-1.32017">
        <ele>3.1</ele>
        <time>2020-06-02T16:57:54Z</time>
      </trkpt>
      <trkpt lat="46.33329" lon="-1.32026">
        <ele>3.1</ele>
        <time>2020-06-02T16:57:55Z</time>
      </trkpt>
      <trkpt lat="46.33326" lon="-1.32034">
        <ele>3.2</ele>
        <time>2020-06-02T16:57:56Z</time>
      </trkpt>
      <trkpt lat="46.33323" lon="-1.32042">
        <ele>3.2</ele>
        <time>2020-06-02T16:57:57Z</time>
      </trkpt>
      <trkpt lat="46.3332" lon="-1.32049">
        <ele>3.2</ele>
        <time>2020-06-02T16:57:58Z</time>
      </trkpt>
      <trkpt lat="46.33318" lon="-1.32058">
        <ele>3.3</ele>
        <time>2020-06-02T16:57:59Z</time>
      </trkpt>
      <trkpt lat="46.33315" lon="-1.32066">
        <ele>3.3</ele>
        <time>2020-06-02T16:58:00Z</time>
      </trkpt>
      <trkpt lat="46.33313" lon="-1.32075">
        <ele>3.3</ele>
        <time>2020-06-02T16:58:01Z</time>
      </trkpt>
      <trkpt lat="46.33309" lon="-1.32082">
        <ele>3.3</ele>
        <time>2020-06-02T16:58:02Z</time>
      </trkpt>
      <trkpt lat="46.33306" lon="-1.32091">
        <ele>3.2</ele>
        <time>2020-06-02T16:58:03Z</time>
      </trkpt>
      <trkpt lat="46.33303" lon="-1.321">
        <ele>3.2</ele>
        <time>2020-06-02T16:58:04Z</time>
      </trkpt>
      <trkpt lat="46.333" lon="-1.32107">
        <ele>3.1</ele>
        <time>2020-06-02T16:58:05Z</time>
      </trkpt>
      <trkpt lat="46.33297" lon="-1.32115">
        <ele>3.1</ele>
        <time>2020-06-02T16:58:06Z</time>
      </trkpt>
      <trkpt lat="46.33293" lon="-1.32122">
        <ele>3.1</ele>
        <time>2020-06-02T16:58:07Z</time>
      </trkpt>
      <trkpt lat="46.3329" lon="-1.32129">
        <ele>3.1</ele>
        <time>2020-06-02T16:58:08Z</time>
      </trkpt>
      <trkpt lat="46.33288" lon="-1.32138">
        <ele>3</ele>
        <time>2020-06-02T16:58:09Z</time>
      </trkpt>
      <trkpt lat="46.33287" lon="-1.32145">
        <ele>3</ele>
        <time>2020-06-02T16:58:10Z</time>
      </trkpt>
      <trkpt lat="46.33287" lon="-1.32151">
        <ele>3</ele>
        <time>2020-06-02T16:58:11Z</time>
      </trkpt>
      <trkpt lat="46.33287" lon="-1.32158">
        <ele>3</ele>
        <time>2020-06-02T16:58:12Z</time>
      </trkpt>
      <trkpt lat="46.33289" lon="-1.32163">
        <ele>2.9</ele>
        <time>2020-06-02T16:58:13Z</time>
      </trkpt>
      <trkpt lat="46.33291" lon="-1.32168">
        <ele>2.9</ele>
        <time>2020-06-02T16:58:14Z</time>
      </trkpt>
      <trkpt lat="46.33293" lon="-1.32174">
        <ele>2.9</ele>
        <time>2020-06-02T16:58:15Z</time>
      </trkpt>
      <trkpt lat="46.33296" lon="-1.32181">
        <ele>2.9</ele>
        <time>2020-06-02T16:58:16Z</time>
      </trkpt>
      <trkpt lat="46.33299" lon="-1.32187">
        <ele>2.9</ele>
        <time>2020-06-02T16:58:17Z</time>
      </trkpt>
      <trkpt lat="46.33298" lon="-1.32194">
        <ele>2.9</ele>
        <time>2020-06-02T16:58:18Z</time>
      </trkpt>
      <trkpt lat="46.33296" lon="-1.32201">
        <ele>2.9</ele>
        <time>2020-06-02T16:58:19Z</time>
      </trkpt>
      <trkpt lat="46.33294" lon="-1.3221">
        <ele>2.9</ele>
        <time>2020-06-02T16:58:20Z</time>
      </trkpt>
      <trkpt lat="46.33294" lon="-1.32217">
        <ele>2.9</ele>
        <time>2020-06-02T16:58:21Z</time>
      </trkpt>
      <trkpt lat="46.33294" lon="-1.32225">
        <ele>2.9</ele>
        <time>2020-06-02T16:58:22Z</time>
      </trkpt>
      <trkpt lat="46.33294" lon="-1.32233">
        <ele>2.9</ele>
        <time>2020-06-02T16:58:23Z</time>
      </trkpt>
      <trkpt lat="46.33295" lon="-1.3224">
        <ele>2.9</ele>
        <time>2020-06-02T16:58:24Z</time>
      </trkpt>
      <trkpt lat="46.33295" lon="-1.32245">
        <ele>2.9</ele>
        <time>2020-06-02T16:58:25Z</time>
      </trkpt>
      <trkpt lat="46.33298" lon="-1.3225">
        <ele>2.8</ele>
        <time>2020-06-02T16:58:26Z</time>
      </trkpt>
      <trkpt lat="46.333" lon="-1.32256">
        <ele>2.8</ele>
        <time>2020-06-02T16:58:27Z</time>
      </trkpt>
      <trkpt lat="46.33303" lon="-1.32261">
        <ele>2.8</ele>
        <time>2020-06-02T16:58:28Z</time>
      </trkpt>
      <trkpt lat="46.33305" lon="-1.32265">
        <ele>2.8</ele>
        <time>2020-06-02T16:58:29Z</time>
      </trkpt>
      <trkpt lat="46.33308" lon="-1.3227">
        <ele>2.8</ele>
        <time>2020-06-02T16:58:30Z</time>
      </trkpt>
      <trkpt lat="46.33311" lon="-1.32275">
        <ele>2.8</ele>
        <time>2020-06-02T16:58:31Z</time>
      </trkpt>
      <trkpt lat="46.33313" lon="-1.32282">
        <ele>2.8</ele>
        <time>2020-06-02T16:58:32Z</time>
      </trkpt>
      <trkpt lat="46.33316" lon="-1.32289">
        <ele>2.8</ele>
        <time>2020-06-02T16:58:33Z</time>
      </trkpt>
      <trkpt lat="46.33319" lon="-1.32295">
        <ele>2.8</ele>
        <time>2020-06-02T16:58:34Z</time>
      </trkpt>
      <trkpt lat="46.33321" lon="-1.32303">
        <ele>2.8</ele>
        <time>2020-06-02T16:58:35Z</time>
      </trkpt>
      <trkpt lat="46.33324" lon="-1.3231">
        <ele>2.8</ele>
        <time>2020-06-02T16:58:36Z</time>
      </trkpt>
      <trkpt lat="46.33328" lon="-1.32319">
        <ele>2.8</ele>
        <time>2020-06-02T16:58:37Z</time>
      </trkpt>
      <trkpt lat="46.33331" lon="-1.32327">
        <ele>2.8</ele>
        <time>2020-06-02T16:58:38Z</time>
      </trkpt>
      <trkpt lat="46.33334" lon="-1.32334">
        <ele>2.8</ele>
        <time>2020-06-02T16:58:39Z</time>
      </trkpt>
      <trkpt lat="46.33337" lon="-1.32342">
        <ele>2.8</ele>
        <time>2020-06-02T16:58:40Z</time>
      </trkpt>
      <trkpt lat="46.33341" lon="-1.32347">
        <ele>2.8</ele>
        <time>2020-06-02T16:58:41Z</time>
      </trkpt>
      <trkpt lat="46.33344" lon="-1.32355">
        <ele>2.8</ele>
        <time>2020-06-02T16:58:42Z</time>
      </trkpt>
      <trkpt lat="46.33347" lon="-1.32362">
        <ele>2.8</ele>
        <time>2020-06-02T16:58:43Z</time>
      </trkpt>
      <trkpt lat="46.33351" lon="-1.32369">
        <ele>2.8</ele>
        <time>2020-06-02T16:58:44Z</time>
      </trkpt>
      <trkpt lat="46.33354" lon="-1.32374">
        <ele>2.8</ele>
        <time>2020-06-02T16:58:45Z</time>
      </trkpt>
      <trkpt lat="46.33357" lon="-1.32382">
        <ele>2.8</ele>
        <time>2020-06-02T16:58:46Z</time>
      </trkpt>
      <trkpt lat="46.3336" lon="-1.32388">
        <ele>2.8</ele>
        <time>2020-06-02T16:58:47Z</time>
      </trkpt>
      <trkpt lat="46.33363" lon="-1.32396">
        <ele>2.8</ele>
        <time>2020-06-02T16:58:48Z</time>
      </trkpt>
      <trkpt lat="46.33368" lon="-1.32404">
        <ele>2.9</ele>
        <time>2020-06-02T16:58:49Z</time>
      </trkpt>
      <trkpt lat="46.33371" lon="-1.32411">
        <ele>2.9</ele>
        <time>2020-06-02T16:58:50Z</time>
      </trkpt>
      <trkpt lat="46.33374" lon="-1.32417">
        <ele>3</ele>
        <time>2020-06-02T16:58:51Z</time>
      </trkpt>
      <trkpt lat="46.33377" lon="-1.32424">
        <ele>3</ele>
        <time>2020-06-02T16:58:52Z</time>
      </trkpt>
      <trkpt lat="46.3338" lon="-1.32432">
        <ele>3.1</ele>
        <time>2020-06-02T16:58:53Z</time>
      </trkpt>
      <trkpt lat="46.33384" lon="-1.32438">
        <ele>3.2</ele>
        <time>2020-06-02T16:58:54Z</time>
      </trkpt>
      <trkpt lat="46.33388" lon="-1.32446">
        <ele>3.2</ele>
        <time>2020-06-02T16:58:55Z</time>
      </trkpt>
      <trkpt lat="46.33392" lon="-1.32455">
        <ele>3.3</ele>
        <time>2020-06-02T16:58:56Z</time>
      </trkpt>
      <trkpt lat="46.33394" lon="-1.32462">
        <ele>3.3</ele>
        <time>2020-06-02T16:58:57Z</time>
      </trkpt>
      <trkpt lat="46.33396" lon="-1.32468">
        <ele>3.4</ele>
        <time>2020-06-02T16:58:58Z</time>
      </trkpt>
      <trkpt lat="46.33399" lon="-1.32473">
        <ele>3.4</ele>
        <time>2020-06-02T16:58:59Z</time>
      </trkpt>
      <trkpt lat="46.33402" lon="-1.3248">
        <ele>3.4</ele>
        <time>2020-06-02T16:59:00Z</time>
      </trkpt>
      <trkpt lat="46.33404" lon="-1.32485">
        <ele>3.4</ele>
        <time>2020-06-02T16:59:01Z</time>
      </trkpt>
      <trkpt lat="46.33407" lon="-1.32491">
        <ele>3.4</ele>
        <time>2020-06-02T16:59:02Z</time>
      </trkpt>
      <trkpt lat="46.3341" lon="-1.32497">
        <ele>3.4</ele>
        <time>2020-06-02T16:59:03Z</time>
      </trkpt>
      <trkpt lat="46.33412" lon="-1.32502">
        <ele>3.4</ele>
        <time>2020-06-02T16:59:04Z</time>
      </trkpt>
      <trkpt lat="46.33416" lon="-1.32508">
        <ele>3.5</ele>
        <time>2020-06-02T16:59:05Z</time>
      </trkpt>
      <trkpt lat="46.33419" lon="-1.32515">
        <ele>3.5</ele>
        <time>2020-06-02T16:59:06Z</time>
      </trkpt>
      <trkpt lat="46.33421" lon="-1.32521">
        <ele>3.5</ele>
        <time>2020-06-02T16:59:07Z</time>
      </trkpt>
      <trkpt lat="46.33424" lon="-1.32529">
        <ele>3.5</ele>
        <time>2020-06-02T16:59:08Z</time>
      </trkpt>
      <trkpt lat="46.33427" lon="-1.32535">
        <ele>3.5</ele>
        <time>2020-06-02T16:59:09Z</time>
      </trkpt>
      <trkpt lat="46.3343" lon="-1.32541">
        <ele>3.5</ele>
        <time>2020-06-02T16:59:10Z</time>
      </trkpt>
      <trkpt lat="46.33432" lon="-1.32546">
        <ele>3.5</ele>
        <time>2020-06-02T16:59:11Z</time>
      </trkpt>
      <trkpt lat="46.33435" lon="-1.32551">
        <ele>3.5</ele>
        <time>2020-06-02T16:59:12Z</time>
      </trkpt>
      <trkpt lat="46.33437" lon="-1.32558">
        <ele>3.4</ele>
        <time>2020-06-02T16:59:13Z</time>
      </trkpt>
      <trkpt lat="46.33439" lon="-1.32563">
        <ele>3.4</ele>
        <time>2020-06-02T16:59:14Z</time>
      </trkpt>
      <trkpt lat="46.33442" lon="-1.32568">
        <ele>3.4</ele>
        <time>2020-06-02T16:59:15Z</time>
      </trkpt>
      <trkpt lat="46.33444" lon="-1.32574">
        <ele>3.4</ele>
        <time>2020-06-02T16:59:16Z</time>
      </trkpt>
      <trkpt lat="46.33446" lon="-1.3258">
        <ele>3.4</ele>
        <time>2020-06-02T16:59:17Z</time>
      </trkpt>
      <trkpt lat="46.33449" lon="-1.32586">
        <ele>3.4</ele>
        <time>2020-06-02T16:59:18Z</time>
      </trkpt>
      <trkpt lat="46.33452" lon="-1.32593">
        <ele>3.4</ele>
        <time>2020-06-02T16:59:19Z</time>
      </trkpt>
      <trkpt lat="46.33454" lon="-1.32599">
        <ele>3.4</ele>
        <time>2020-06-02T16:59:20Z</time>
      </trkpt>
      <trkpt lat="46.33456" lon="-1.32606">
        <ele>3.3</ele>
        <time>2020-06-02T16:59:21Z</time>
      </trkpt>
      <trkpt lat="46.33459" lon="-1.32612">
        <ele>3.3</ele>
        <time>2020-06-02T16:59:22Z</time>
      </trkpt>
      <trkpt lat="46.33462" lon="-1.32619">
        <ele>3.3</ele>
        <time>2020-06-02T16:59:23Z</time>
      </trkpt>
      <trkpt lat="46.33465" lon="-1.32625">
        <ele>3.2</ele>
        <time>2020-06-02T16:59:24Z</time>
      </trkpt>
      <trkpt lat="46.33468" lon="-1.3263">
        <ele>3.2</ele>
        <time>2020-06-02T16:59:25Z</time>
      </trkpt>
      <trkpt lat="46.33471" lon="-1.32635">
        <ele>3.2</ele>
        <time>2020-06-02T16:59:26Z</time>
      </trkpt>
      <trkpt lat="46.33474" lon="-1.3264">
        <ele>3.2</ele>
        <time>2020-06-02T16:59:27Z</time>
      </trkpt>
      <trkpt lat="46.33477" lon="-1.32647">
        <ele>3.1</ele>
        <time>2020-06-02T16:59:28Z</time>
      </trkpt>
      <trkpt lat="46.33481" lon="-1.32653">
        <ele>3.1</ele>
        <time>2020-06-02T16:59:29Z</time>
      </trkpt>
      <trkpt lat="46.33485" lon="-1.32659">
        <ele>3.1</ele>
        <time>2020-06-02T16:59:30Z</time>
      </trkpt>
      <trkpt lat="46.33487" lon="-1.32666">
        <ele>3.1</ele>
        <time>2020-06-02T16:59:31Z</time>
      </trkpt>
      <trkpt lat="46.33489" lon="-1.32672">
        <ele>3.2</ele>
        <time>2020-06-02T16:59:32Z</time>
      </trkpt>
      <trkpt lat="46.33492" lon="-1.32679">
        <ele>3.2</ele>
        <time>2020-06-02T16:59:33Z</time>
      </trkpt>
      <trkpt lat="46.33494" lon="-1.32686">
        <ele>3.2</ele>
        <time>2020-06-02T16:59:34Z</time>
      </trkpt>
      <trkpt lat="46.33496" lon="-1.32692">
        <ele>3.2</ele>
        <time>2020-06-02T16:59:35Z</time>
      </trkpt>
      <trkpt lat="46.33497" lon="-1.32698">
        <ele>3.2</ele>
        <time>2020-06-02T16:59:36Z</time>
      </trkpt>
      <trkpt lat="46.33499" lon="-1.32702">
        <ele>3.2</ele>
        <time>2020-06-02T16:59:37Z</time>
      </trkpt>
      <trkpt lat="46.33502" lon="-1.32708">
        <ele>3.2</ele>
        <time>2020-06-02T16:59:38Z</time>
      </trkpt>
      <trkpt lat="46.33505" lon="-1.32712">
        <ele>3.2</ele>
        <time>2020-06-02T16:59:39Z</time>
      </trkpt>
      <trkpt lat="46.33508" lon="-1.32718">
        <ele>3.3</ele>
        <time>2020-06-02T16:59:40Z</time>
      </trkpt>
      <trkpt lat="46.33511" lon="-1.32724">
        <ele>3.3</ele>
        <time>2020-06-02T16:59:41Z</time>
      </trkpt>
      <trkpt lat="46.33514" lon="-1.32729">
        <ele>3.4</ele>
        <time>2020-06-02T16:59:42Z</time>
      </trkpt>
      <trkpt lat="46.33517" lon="-1.32735">
        <ele>3.4</ele>
        <time>2020-06-02T16:59:43Z</time>
      </trkpt>
      <trkpt lat="46.33521" lon="-1.32741">
        <ele>3.5</ele>
        <time>2020-06-02T16:59:44Z</time>
      </trkpt>
      <trkpt lat="46.33523" lon="-1.32748">
        <ele>3.5</ele>
        <time>2020-06-02T16:59:45Z</time>
      </trkpt>
      <trkpt lat="46.33526" lon="-1.32754">
        <ele>3.5</ele>
        <time>2020-06-02T16:59:46Z</time>
      </trkpt>
      <trkpt lat="46.33527" lon="-1.32758">
        <ele>3.5</ele>
        <time>2020-06-02T16:59:47Z</time>
      </trkpt>
      <trkpt lat="46.3353" lon="-1.32762">
        <ele>3.5</ele>
        <time>2020-06-02T16:59:48Z</time>
      </trkpt>
      <trkpt lat="46.33532" lon="-1.32766">
        <ele>3.5</ele>
        <time>2020-06-02T16:59:49Z</time>
      </trkpt>
      <trkpt lat="46.33534" lon="-1.32771">
        <ele>3.5</ele>
        <time>2020-06-02T16:59:50Z</time>
      </trkpt>
      <trkpt lat="46.33537" lon="-1.32774">
        <ele>3.5</ele>
        <time>2020-06-02T16:59:51Z</time>
      </trkpt>
      <trkpt lat="46.33539" lon="-1.32779">
        <ele>3.5</ele>
        <time>2020-06-02T16:59:52Z</time>
      </trkpt>
      <trkpt lat="46.33542" lon="-1.32783">
        <ele>3.5</ele>
        <time>2020-06-02T16:59:53Z</time>
      </trkpt>
      <trkpt lat="46.33544" lon="-1.32786">
        <ele>3.5</ele>
        <time>2020-06-02T16:59:54Z</time>
      </trkpt>
      <trkpt lat="46.33546" lon="-1.3279">
        <ele>3.5</ele>
        <time>2020-06-02T16:59:55Z</time>
      </trkpt>
      <trkpt lat="46.33548" lon="-1.32796">
        <ele>3.5</ele>
        <time>2020-06-02T16:59:56Z</time>
      </trkpt>
      <trkpt lat="46.33551" lon="-1.32801">
        <ele>3.5</ele>
        <time>2020-06-02T16:59:57Z</time>
      </trkpt>
      <trkpt lat="46.33553" lon="-1.32807">
        <ele>3.4</ele>
        <time>2020-06-02T16:59:58Z</time>
      </trkpt>
      <trkpt lat="46.33556" lon="-1.32812">
        <ele>3.4</ele>
        <time>2020-06-02T16:59:59Z</time>
      </trkpt>
      <trkpt lat="46.33558" lon="-1.32817">
        <ele>3.4</ele>
        <time>2020-06-02T17:00:00Z</time>
      </trkpt>
      <trkpt lat="46.33561" lon="-1.32824">
        <ele>3.4</ele>
        <time>2020-06-02T17:00:01Z</time>
      </trkpt>
      <trkpt lat="46.33563" lon="-1.32831">
        <ele>3.4</ele>
        <time>2020-06-02T17:00:02Z</time>
      </trkpt>
      <trkpt lat="46.33566" lon="-1.32837">
        <ele>3.4</ele>
        <time>2020-06-02T17:00:03Z</time>
      </trkpt>
      <trkpt lat="46.33569" lon="-1.32843">
        <ele>3.4</ele>
        <time>2020-06-02T17:00:04Z</time>
      </trkpt>
      <trkpt lat="46.33571" lon="-1.3285">
        <ele>3.4</ele>
        <time>2020-06-02T17:00:05Z</time>
      </trkpt>
      <trkpt lat="46.33574" lon="-1.32855">
        <ele>3.4</ele>
        <time>2020-06-02T17:00:06Z</time>
      </trkpt>
      <trkpt lat="46.33576" lon="-1.3286">
        <ele>3.4</ele>
        <time>2020-06-02T17:00:07Z</time>
      </trkpt>
      <trkpt lat="46.33579" lon="-1.32865">
        <ele>3.4</ele>
        <time>2020-06-02T17:00:08Z</time>
      </trkpt>
      <trkpt lat="46.33581" lon="-1.32871">
        <ele>3.4</ele>
        <time>2020-06-02T17:00:09Z</time>
      </trkpt>
      <trkpt lat="46.33583" lon="-1.32876">
        <ele>3.4</ele>
        <time>2020-06-02T17:00:10Z</time>
      </trkpt>
      <trkpt lat="46.33586" lon="-1.32882">
        <ele>3.4</ele>
        <time>2020-06-02T17:00:11Z</time>
      </trkpt>
      <trkpt lat="46.33588" lon="-1.32887">
        <ele>3.4</ele>
        <time>2020-06-02T17:00:12Z</time>
      </trkpt>
      <trkpt lat="46.33591" lon="-1.32892">
        <ele>3.4</ele>
        <time>2020-06-02T17:00:13Z</time>
      </trkpt>
      <trkpt lat="46.33593" lon="-1.32897">
        <ele>3.4</ele>
        <time>2020-06-02T17:00:14Z</time>
      </trkpt>
      <trkpt lat="46.33594" lon="-1.32901">
        <ele>3.4</ele>
        <time>2020-06-02T17:00:15Z</time>
      </trkpt>
      <trkpt lat="46.33596" lon="-1.32903">
        <ele>3.4</ele>
        <time>2020-06-02T17:00:16Z</time>
      </trkpt>
      <trkpt lat="46.33597" lon="-1.32904">
        <ele>3.4</ele>
        <time>2020-06-02T17:00:17Z</time>
      </trkpt>
      <trkpt lat="46.33598" lon="-1.32904">
        <ele>3.3</ele>
        <time>2020-06-02T17:00:18Z</time>
      </trkpt>
      <trkpt lat="46.33599" lon="-1.32907">
        <ele>3.3</ele>
        <time>2020-06-02T17:00:19Z</time>
      </trkpt>
      <trkpt lat="46.336" lon="-1.32909">
        <ele>3.3</ele>
        <time>2020-06-02T17:00:20Z</time>
      </trkpt>
      <trkpt lat="46.33601" lon="-1.3291">
        <ele>3.3</ele>
        <time>2020-06-02T17:00:21Z</time>
      </trkpt>
      <trkpt lat="46.33603" lon="-1.32914">
        <ele>3.3</ele>
        <time>2020-06-02T17:00:22Z</time>
      </trkpt>
      <trkpt lat="46.33604" lon="-1.32916">
        <ele>3.3</ele>
        <time>2020-06-02T17:00:23Z</time>
      </trkpt>
      <trkpt lat="46.33605" lon="-1.32919">
        <ele>3.3</ele>
        <time>2020-06-02T17:00:24Z</time>
      </trkpt>
      <trkpt lat="46.33608" lon="-1.32922">
        <ele>3.3</ele>
        <time>2020-06-02T17:00:25Z</time>
      </trkpt>
      <trkpt lat="46.33608" lon="-1.32923">
        <ele>3.3</ele>
        <time>2020-06-02T17:00:26Z</time>
      </trkpt>
      <trkpt lat="46.3361" lon="-1.32924">
        <ele>3.3</ele>
        <time>2020-06-02T17:00:27Z</time>
      </trkpt>
      <trkpt lat="46.3361" lon="-1.32926">
        <ele>3.3</ele>
        <time>2020-06-02T17:00:28Z</time>
      </trkpt>
      <trkpt lat="46.3361" lon="-1.32927">
        <ele>3.3</ele>
        <time>2020-06-02T17:00:29Z</time>
      </trkpt>
      <trkpt lat="46.3361" lon="-1.32929">
        <ele>3.3</ele>
        <time>2020-06-02T17:00:30Z</time>
      </trkpt>
      <trkpt lat="46.3361" lon="-1.32931">
        <ele>3.3</ele>
        <time>2020-06-02T17:00:31Z</time>
      </trkpt>
      <trkpt lat="46.3361" lon="-1.32933">
        <ele>3.3</ele>
        <time>2020-06-02T17:00:32Z</time>
      </trkpt>
      <trkpt lat="46.33611" lon="-1.32933">
        <ele>3.4</ele>
        <time>2020-06-02T17:00:33Z</time>
      </trkpt>
      <trkpt lat="46.33611" lon="-1.32936">
        <ele>3.4</ele>
        <time>2020-06-02T17:00:34Z</time>
      </trkpt>
      <trkpt lat="46.33612" lon="-1.3294">
        <ele>3.5</ele>
        <time>2020-06-02T17:00:35Z</time>
      </trkpt>
      <trkpt lat="46.33613" lon="-1.32942">
        <ele>3.5</ele>
        <time>2020-06-02T17:00:36Z</time>
      </trkpt>
      <trkpt lat="46.33614" lon="-1.32947">
        <ele>3.5</ele>
        <time>2020-06-02T17:00:37Z</time>
      </trkpt>
      <trkpt lat="46.33614" lon="-1.32949">
        <ele>3.5</ele>
        <time>2020-06-02T17:00:38Z</time>
      </trkpt>
      <trkpt lat="46.33615" lon="-1.32954">
        <ele>3.5</ele>
        <time>2020-06-02T17:00:39Z</time>
      </trkpt>
      <trkpt lat="46.33616" lon="-1.32957">
        <ele>3.5</ele>
        <time>2020-06-02T17:00:40Z</time>
      </trkpt>
      <trkpt lat="46.33617" lon="-1.32962">
        <ele>3.5</ele>
        <time>2020-06-02T17:00:41Z</time>
      </trkpt>
      <trkpt lat="46.33619" lon="-1.32967">
        <ele>3.5</ele>
        <time>2020-06-02T17:00:42Z</time>
      </trkpt>
      <trkpt lat="46.33621" lon="-1.32972">
        <ele>3.6</ele>
        <time>2020-06-02T17:00:43Z</time>
      </trkpt>
      <trkpt lat="46.33623" lon="-1.32978">
        <ele>3.6</ele>
        <time>2020-06-02T17:00:44Z</time>
      </trkpt>
      <trkpt lat="46.33624" lon="-1.32983">
        <ele>3.6</ele>
        <time>2020-06-02T17:00:45Z</time>
      </trkpt>
      <trkpt lat="46.33625" lon="-1.32989">
        <ele>3.6</ele>
        <time>2020-06-02T17:00:46Z</time>
      </trkpt>
      <trkpt lat="46.33626" lon="-1.32994">
        <ele>3.6</ele>
        <time>2020-06-02T17:00:47Z</time>
      </trkpt>
      <trkpt lat="46.33627" lon="-1.33">
        <ele>3.6</ele>
        <time>2020-06-02T17:00:48Z</time>
      </trkpt>
      <trkpt lat="46.33628" lon="-1.33006">
        <ele>3.7</ele>
        <time>2020-06-02T17:00:49Z</time>
      </trkpt>
      <trkpt lat="46.33629" lon="-1.33012">
        <ele>3.7</ele>
        <time>2020-06-02T17:00:50Z</time>
      </trkpt>
      <trkpt lat="46.3363" lon="-1.33018">
        <ele>3.7</ele>
        <time>2020-06-02T17:00:51Z</time>
      </trkpt>
      <trkpt lat="46.33631" lon="-1.33025">
        <ele>3.7</ele>
        <time>2020-06-02T17:00:52Z</time>
      </trkpt>
      <trkpt lat="46.33632" lon="-1.33033">
        <ele>3.7</ele>
        <time>2020-06-02T17:00:53Z</time>
      </trkpt>
      <trkpt lat="46.33632" lon="-1.3304">
        <ele>3.7</ele>
        <time>2020-06-02T17:00:54Z</time>
      </trkpt>
      <trkpt lat="46.33634" lon="-1.33049">
        <ele>3.7</ele>
        <time>2020-06-02T17:00:55Z</time>
      </trkpt>
      <trkpt lat="46.33634" lon="-1.33056">
        <ele>3.7</ele>
        <time>2020-06-02T17:00:56Z</time>
      </trkpt>
      <trkpt lat="46.33634" lon="-1.33063">
        <ele>3.7</ele>
        <time>2020-06-02T17:00:57Z</time>
      </trkpt>
      <trkpt lat="46.33633" lon="-1.3307">
        <ele>3.7</ele>
        <time>2020-06-02T17:00:58Z</time>
      </trkpt>
      <trkpt lat="46.33631" lon="-1.33076">
        <ele>3.7</ele>
        <time>2020-06-02T17:00:59Z</time>
      </trkpt>
      <trkpt lat="46.3363" lon="-1.33083">
        <ele>3.7</ele>
        <time>2020-06-02T17:01:00Z</time>
      </trkpt>
      <trkpt lat="46.33628" lon="-1.3309">
        <ele>3.7</ele>
        <time>2020-06-02T17:01:01Z</time>
      </trkpt>
      <trkpt lat="46.33627" lon="-1.33098">
        <ele>3.7</ele>
        <time>2020-06-02T17:01:02Z</time>
      </trkpt>
      <trkpt lat="46.33626" lon="-1.33106">
        <ele>3.7</ele>
        <time>2020-06-02T17:01:03Z</time>
      </trkpt>
      <trkpt lat="46.33624" lon="-1.33113">
        <ele>3.7</ele>
        <time>2020-06-02T17:01:04Z</time>
      </trkpt>
      <trkpt lat="46.33623" lon="-1.33122">
        <ele>3.7</ele>
        <time>2020-06-02T17:01:05Z</time>
      </trkpt>
      <trkpt lat="46.33621" lon="-1.3313">
        <ele>3.7</ele>
        <time>2020-06-02T17:01:06Z</time>
      </trkpt>
      <trkpt lat="46.3362" lon="-1.33138">
        <ele>3.7</ele>
        <time>2020-06-02T17:01:07Z</time>
      </trkpt>
      <trkpt lat="46.33619" lon="-1.33146">
        <ele>3.7</ele>
        <time>2020-06-02T17:01:08Z</time>
      </trkpt>
      <trkpt lat="46.33617" lon="-1.33154">
        <ele>3.7</ele>
        <time>2020-06-02T17:01:09Z</time>
      </trkpt>
      <trkpt lat="46.33616" lon="-1.33163">
        <ele>3.6</ele>
        <time>2020-06-02T17:01:10Z</time>
      </trkpt>
      <trkpt lat="46.33615" lon="-1.3317">
        <ele>3.6</ele>
        <time>2020-06-02T17:01:11Z</time>
      </trkpt>
      <trkpt lat="46.33614" lon="-1.33178">
        <ele>3.6</ele>
        <time>2020-06-02T17:01:12Z</time>
      </trkpt>
      <trkpt lat="46.33612" lon="-1.33185">
        <ele>3.6</ele>
        <time>2020-06-02T17:01:13Z</time>
      </trkpt>
      <trkpt lat="46.33611" lon="-1.33192">
        <ele>3.6</ele>
        <time>2020-06-02T17:01:14Z</time>
      </trkpt>
      <trkpt lat="46.3361" lon="-1.332">
        <ele>3.6</ele>
        <time>2020-06-02T17:01:15Z</time>
      </trkpt>
      <trkpt lat="46.33609" lon="-1.33207">
        <ele>3.6</ele>
        <time>2020-06-02T17:01:16Z</time>
      </trkpt>
      <trkpt lat="46.33607" lon="-1.33216">
        <ele>3.5</ele>
        <time>2020-06-02T17:01:17Z</time>
      </trkpt>
      <trkpt lat="46.33606" lon="-1.33225">
        <ele>3.5</ele>
        <time>2020-06-02T17:01:18Z</time>
      </trkpt>
      <trkpt lat="46.33605" lon="-1.33233">
        <ele>3.5</ele>
        <time>2020-06-02T17:01:19Z</time>
      </trkpt>
      <trkpt lat="46.33603" lon="-1.3324">
        <ele>3.5</ele>
        <time>2020-06-02T17:01:20Z</time>
      </trkpt>
      <trkpt lat="46.33601" lon="-1.33247">
        <ele>3.5</ele>
        <time>2020-06-02T17:01:21Z</time>
      </trkpt>
      <trkpt lat="46.336" lon="-1.33254">
        <ele>3.5</ele>
        <time>2020-06-02T17:01:22Z</time>
      </trkpt>
      <trkpt lat="46.33599" lon="-1.33261">
        <ele>3.4</ele>
        <time>2020-06-02T17:01:23Z</time>
      </trkpt>
      <trkpt lat="46.33597" lon="-1.33267">
        <ele>3.4</ele>
        <time>2020-06-02T17:01:24Z</time>
      </trkpt>
      <trkpt lat="46.33597" lon="-1.33275">
        <ele>3.4</ele>
        <time>2020-06-02T17:01:25Z</time>
      </trkpt>
      <trkpt lat="46.33597" lon="-1.33283">
        <ele>3.4</ele>
        <time>2020-06-02T17:01:26Z</time>
      </trkpt>
      <trkpt lat="46.33597" lon="-1.33291">
        <ele>3.4</ele>
        <time>2020-06-02T17:01:27Z</time>
      </trkpt>
      <trkpt lat="46.33597" lon="-1.33299">
        <ele>3.4</ele>
        <time>2020-06-02T17:01:28Z</time>
      </trkpt>
      <trkpt lat="46.33597" lon="-1.33306">
        <ele>3.4</ele>
        <time>2020-06-02T17:01:29Z</time>
      </trkpt>
      <trkpt lat="46.33596" lon="-1.33313">
        <ele>3.3</ele>
        <time>2020-06-02T17:01:30Z</time>
      </trkpt>
      <trkpt lat="46.33596" lon="-1.33319">
        <ele>3.3</ele>
        <time>2020-06-02T17:01:31Z</time>
      </trkpt>
      <trkpt lat="46.33597" lon="-1.33324">
        <ele>3.3</ele>
        <time>2020-06-02T17:01:32Z</time>
      </trkpt>
      <trkpt lat="46.336" lon="-1.33331">
        <ele>3.2</ele>
        <time>2020-06-02T17:01:33Z</time>
      </trkpt>
      <trkpt lat="46.33602" lon="-1.33337">
        <ele>3.2</ele>
        <time>2020-06-02T17:01:34Z</time>
      </trkpt>
      <trkpt lat="46.33605" lon="-1.33344">
        <ele>3.2</ele>
        <time>2020-06-02T17:01:35Z</time>
      </trkpt>
      <trkpt lat="46.33608" lon="-1.33351">
        <ele>3.1</ele>
        <time>2020-06-02T17:01:36Z</time>
      </trkpt>
      <trkpt lat="46.33611" lon="-1.33358">
        <ele>3.1</ele>
        <time>2020-06-02T17:01:37Z</time>
      </trkpt>
      <trkpt lat="46.33615" lon="-1.33363">
        <ele>3</ele>
        <time>2020-06-02T17:01:38Z</time>
      </trkpt>
      <trkpt lat="46.3362" lon="-1.3337">
        <ele>3</ele>
        <time>2020-06-02T17:01:39Z</time>
      </trkpt>
      <trkpt lat="46.33624" lon="-1.33377">
        <ele>2.9</ele>
        <time>2020-06-02T17:01:40Z</time>
      </trkpt>
      <trkpt lat="46.33628" lon="-1.33384">
        <ele>2.9</ele>
        <time>2020-06-02T17:01:41Z</time>
      </trkpt>
      <trkpt lat="46.33633" lon="-1.3339">
        <ele>2.8</ele>
        <time>2020-06-02T17:01:42Z</time>
      </trkpt>
      <trkpt lat="46.33638" lon="-1.33398">
        <ele>2.8</ele>
        <time>2020-06-02T17:01:43Z</time>
      </trkpt>
      <trkpt lat="46.33643" lon="-1.33404">
        <ele>2.7</ele>
        <time>2020-06-02T17:01:44Z</time>
      </trkpt>
      <trkpt lat="46.33649" lon="-1.33409">
        <ele>2.6</ele>
        <time>2020-06-02T17:01:45Z</time>
      </trkpt>
      <trkpt lat="46.33652" lon="-1.33416">
        <ele>2.6</ele>
        <time>2020-06-02T17:01:46Z</time>
      </trkpt>
      <trkpt lat="46.33656" lon="-1.33421">
        <ele>2.6</ele>
        <time>2020-06-02T17:01:47Z</time>
      </trkpt>
      <trkpt lat="46.33659" lon="-1.33426">
        <ele>2.5</ele>
        <time>2020-06-02T17:01:48Z</time>
      </trkpt>
      <trkpt lat="46.33665" lon="-1.33431">
        <ele>2.5</ele>
        <time>2020-06-02T17:01:49Z</time>
      </trkpt>
      <trkpt lat="46.33669" lon="-1.33437">
        <ele>2.4</ele>
        <time>2020-06-02T17:01:50Z</time>
      </trkpt>
      <trkpt lat="46.33672" lon="-1.3344">
        <ele>2.4</ele>
        <time>2020-06-02T17:01:51Z</time>
      </trkpt>
      <trkpt lat="46.33675" lon="-1.33446">
        <ele>2.3</ele>
        <time>2020-06-02T17:01:52Z</time>
      </trkpt>
      <trkpt lat="46.33679" lon="-1.33451">
        <ele>2.3</ele>
        <time>2020-06-02T17:01:53Z</time>
      </trkpt>
      <trkpt lat="46.33683" lon="-1.33456">
        <ele>2.2</ele>
        <time>2020-06-02T17:01:54Z</time>
      </trkpt>
      <trkpt lat="46.33687" lon="-1.33462">
        <ele>2.3</ele>
        <time>2020-06-02T17:01:55Z</time>
      </trkpt>
      <trkpt lat="46.33692" lon="-1.33469">
        <ele>2.3</ele>
        <time>2020-06-02T17:01:56Z</time>
      </trkpt>
      <trkpt lat="46.33695" lon="-1.33473">
        <ele>2.3</ele>
        <time>2020-06-02T17:01:57Z</time>
      </trkpt>
      <trkpt lat="46.337" lon="-1.3348">
        <ele>2.3</ele>
        <time>2020-06-02T17:01:58Z</time>
      </trkpt>
      <trkpt lat="46.33705" lon="-1.33486">
        <ele>2.4</ele>
        <time>2020-06-02T17:01:59Z</time>
      </trkpt>
      <trkpt lat="46.3371" lon="-1.33493">
        <ele>2.4</ele>
        <time>2020-06-02T17:02:00Z</time>
      </trkpt>
      <trkpt lat="46.33715" lon="-1.33499">
        <ele>2.4</ele>
        <time>2020-06-02T17:02:01Z</time>
      </trkpt>
      <trkpt lat="46.33719" lon="-1.33505">
        <ele>2.5</ele>
        <time>2020-06-02T17:02:02Z</time>
      </trkpt>
      <trkpt lat="46.33724" lon="-1.33511">
        <ele>2.5</ele>
        <time>2020-06-02T17:02:03Z</time>
      </trkpt>
      <trkpt lat="46.33728" lon="-1.33517">
        <ele>2.5</ele>
        <time>2020-06-02T17:02:04Z</time>
      </trkpt>
      <trkpt lat="46.33732" lon="-1.33523">
        <ele>2.6</ele>
        <time>2020-06-02T17:02:05Z</time>
      </trkpt>
      <trkpt lat="46.33737" lon="-1.33529">
        <ele>2.6</ele>
        <time>2020-06-02T17:02:06Z</time>
      </trkpt>
      <trkpt lat="46.3374" lon="-1.33535">
        <ele>2.6</ele>
        <time>2020-06-02T17:02:07Z</time>
      </trkpt>
      <trkpt lat="46.33742" lon="-1.33541">
        <ele>2.7</ele>
        <time>2020-06-02T17:02:08Z</time>
      </trkpt>
      <trkpt lat="46.33746" lon="-1.33547">
        <ele>2.7</ele>
        <time>2020-06-02T17:02:09Z</time>
      </trkpt>
      <trkpt lat="46.3375" lon="-1.33552">
        <ele>2.7</ele>
        <time>2020-06-02T17:02:10Z</time>
      </trkpt>
      <trkpt lat="46.33753" lon="-1.33558">
        <ele>2.8</ele>
        <time>2020-06-02T17:02:11Z</time>
      </trkpt>
      <trkpt lat="46.33758" lon="-1.33563">
        <ele>2.8</ele>
        <time>2020-06-02T17:02:12Z</time>
      </trkpt>
      <trkpt lat="46.33762" lon="-1.33568">
        <ele>2.8</ele>
        <time>2020-06-02T17:02:13Z</time>
      </trkpt>
      <trkpt lat="46.33766" lon="-1.33574">
        <ele>2.8</ele>
        <time>2020-06-02T17:02:14Z</time>
      </trkpt>
      <trkpt lat="46.3377" lon="-1.33577">
        <ele>2.9</ele>
        <time>2020-06-02T17:02:15Z</time>
      </trkpt>
      <trkpt lat="46.33775" lon="-1.33583">
        <ele>2.9</ele>
        <time>2020-06-02T17:02:16Z</time>
      </trkpt>
      <trkpt lat="46.33779" lon="-1.33588">
        <ele>2.9</ele>
        <time>2020-06-02T17:02:17Z</time>
      </trkpt>
      <trkpt lat="46.33784" lon="-1.33594">
        <ele>3</ele>
        <time>2020-06-02T17:02:18Z</time>
      </trkpt>
      <trkpt lat="46.33788" lon="-1.336">
        <ele>3</ele>
        <time>2020-06-02T17:02:19Z</time>
      </trkpt>
      <trkpt lat="46.33793" lon="-1.33606">
        <ele>2.9</ele>
        <time>2020-06-02T17:02:20Z</time>
      </trkpt>
      <trkpt lat="46.33797" lon="-1.33611">
        <ele>2.9</ele>
        <time>2020-06-02T17:02:21Z</time>
      </trkpt>
      <trkpt lat="46.33802" lon="-1.33617">
        <ele>2.9</ele>
        <time>2020-06-02T17:02:22Z</time>
      </trkpt>
      <trkpt lat="46.33807" lon="-1.33624">
        <ele>2.8</ele>
        <time>2020-06-02T17:02:23Z</time>
      </trkpt>
      <trkpt lat="46.33812" lon="-1.33628">
        <ele>2.8</ele>
        <time>2020-06-02T17:02:24Z</time>
      </trkpt>
      <trkpt lat="46.33817" lon="-1.33634">
        <ele>2.8</ele>
        <time>2020-06-02T17:02:25Z</time>
      </trkpt>
      <trkpt lat="46.33821" lon="-1.33639">
        <ele>2.7</ele>
        <time>2020-06-02T17:02:26Z</time>
      </trkpt>
      <trkpt lat="46.33824" lon="-1.33644">
        <ele>2.7</ele>
        <time>2020-06-02T17:02:27Z</time>
      </trkpt>
      <trkpt lat="46.33829" lon="-1.33648">
        <ele>2.7</ele>
        <time>2020-06-02T17:02:28Z</time>
      </trkpt>
      <trkpt lat="46.33834" lon="-1.33655">
        <ele>2.7</ele>
        <time>2020-06-02T17:02:29Z</time>
      </trkpt>
      <trkpt lat="46.33839" lon="-1.33661">
        <ele>2.6</ele>
        <time>2020-06-02T17:02:30Z</time>
      </trkpt>
      <trkpt lat="46.33844" lon="-1.33666">
        <ele>2.6</ele>
        <time>2020-06-02T17:02:31Z</time>
      </trkpt>
      <trkpt lat="46.33849" lon="-1.33672">
        <ele>2.6</ele>
        <time>2020-06-02T17:02:32Z</time>
      </trkpt>
      <trkpt lat="46.33853" lon="-1.33677">
        <ele>2.5</ele>
        <time>2020-06-02T17:02:33Z</time>
      </trkpt>
      <trkpt lat="46.33858" lon="-1.33683">
        <ele>2.5</ele>
        <time>2020-06-02T17:02:34Z</time>
      </trkpt>
      <trkpt lat="46.33862" lon="-1.33688">
        <ele>2.4</ele>
        <time>2020-06-02T17:02:35Z</time>
      </trkpt>
      <trkpt lat="46.33866" lon="-1.33693">
        <ele>2.4</ele>
        <time>2020-06-02T17:02:36Z</time>
      </trkpt>
      <trkpt lat="46.3387" lon="-1.33698">
        <ele>2.4</ele>
        <time>2020-06-02T17:02:37Z</time>
      </trkpt>
      <trkpt lat="46.33875" lon="-1.33703">
        <ele>2.3</ele>
        <time>2020-06-02T17:02:38Z</time>
      </trkpt>
      <trkpt lat="46.33879" lon="-1.33708">
        <ele>2.3</ele>
        <time>2020-06-02T17:02:39Z</time>
      </trkpt>
      <trkpt lat="46.33881" lon="-1.33712">
        <ele>2.3</ele>
        <time>2020-06-02T17:02:40Z</time>
      </trkpt>
      <trkpt lat="46.33886" lon="-1.33716">
        <ele>2.2</ele>
        <time>2020-06-02T17:02:41Z</time>
      </trkpt>
      <trkpt lat="46.3389" lon="-1.33722">
        <ele>2.2</ele>
        <time>2020-06-02T17:02:42Z</time>
      </trkpt>
      <trkpt lat="46.33894" lon="-1.33727">
        <ele>2.2</ele>
        <time>2020-06-02T17:02:43Z</time>
      </trkpt>
      <trkpt lat="46.33899" lon="-1.33732">
        <ele>2.1</ele>
        <time>2020-06-02T17:02:44Z</time>
      </trkpt>
      <trkpt lat="46.33902" lon="-1.33736">
        <ele>2.1</ele>
        <time>2020-06-02T17:02:45Z</time>
      </trkpt>
      <trkpt lat="46.33905" lon="-1.33741">
        <ele>2.1</ele>
        <time>2020-06-02T17:02:46Z</time>
      </trkpt>
      <trkpt lat="46.33912" lon="-1.33746">
        <ele>2</ele>
        <time>2020-06-02T17:02:47Z</time>
      </trkpt>
      <trkpt lat="46.33915" lon="-1.33751">
        <ele>2</ele>
        <time>2020-06-02T17:02:48Z</time>
      </trkpt>
      <trkpt lat="46.3392" lon="-1.33756">
        <ele>2</ele>
        <time>2020-06-02T17:02:49Z</time>
      </trkpt>
      <trkpt lat="46.33924" lon="-1.33761">
        <ele>1.9</ele>
        <time>2020-06-02T17:02:50Z</time>
      </trkpt>
      <trkpt lat="46.33929" lon="-1.33765">
        <ele>2</ele>
        <time>2020-06-02T17:02:51Z</time>
      </trkpt>
      <trkpt lat="46.33933" lon="-1.33767">
        <ele>2</ele>
        <time>2020-06-02T17:02:52Z</time>
      </trkpt>
      <trkpt lat="46.33937" lon="-1.33771">
        <ele>2</ele>
        <time>2020-06-02T17:02:53Z</time>
      </trkpt>
      <trkpt lat="46.33941" lon="-1.33775">
        <ele>2</ele>
        <time>2020-06-02T17:02:54Z</time>
      </trkpt>
      <trkpt lat="46.33944" lon="-1.33778">
        <ele>2</ele>
        <time>2020-06-02T17:02:55Z</time>
      </trkpt>
      <trkpt lat="46.33947" lon="-1.33782">
        <ele>2.1</ele>
        <time>2020-06-02T17:02:56Z</time>
      </trkpt>
      <trkpt lat="46.33951" lon="-1.33785">
        <ele>2.1</ele>
        <time>2020-06-02T17:02:57Z</time>
      </trkpt>
      <trkpt lat="46.33955" lon="-1.33791">
        <ele>2.1</ele>
        <time>2020-06-02T17:02:58Z</time>
      </trkpt>
      <trkpt lat="46.33959" lon="-1.33797">
        <ele>2.1</ele>
        <time>2020-06-02T17:02:59Z</time>
      </trkpt>
      <trkpt lat="46.33964" lon="-1.33802">
        <ele>2.2</ele>
        <time>2020-06-02T17:03:00Z</time>
      </trkpt>
      <trkpt lat="46.33968" lon="-1.33806">
        <ele>2.2</ele>
        <time>2020-06-02T17:03:01Z</time>
      </trkpt>
      <trkpt lat="46.3397" lon="-1.33811">
        <ele>2.2</ele>
        <time>2020-06-02T17:03:02Z</time>
      </trkpt>
      <trkpt lat="46.33975" lon="-1.33816">
        <ele>2.2</ele>
        <time>2020-06-02T17:03:03Z</time>
      </trkpt>
      <trkpt lat="46.33978" lon="-1.3382">
        <ele>2.3</ele>
        <time>2020-06-02T17:03:04Z</time>
      </trkpt>
      <trkpt lat="46.33984" lon="-1.33825">
        <ele>2.3</ele>
        <time>2020-06-02T17:03:05Z</time>
      </trkpt>
      <trkpt lat="46.33987" lon="-1.33829">
        <ele>2.3</ele>
        <time>2020-06-02T17:03:06Z</time>
      </trkpt>
      <trkpt lat="46.33991" lon="-1.33833">
        <ele>2.3</ele>
        <time>2020-06-02T17:03:07Z</time>
      </trkpt>
      <trkpt lat="46.33995" lon="-1.33839">
        <ele>2.4</ele>
        <time>2020-06-02T17:03:08Z</time>
      </trkpt>
      <trkpt lat="46.33998" lon="-1.33844">
        <ele>2.4</ele>
        <time>2020-06-02T17:03:09Z</time>
      </trkpt>
      <trkpt lat="46.34003" lon="-1.3385">
        <ele>2.4</ele>
        <time>2020-06-02T17:03:10Z</time>
      </trkpt>
      <trkpt lat="46.34007" lon="-1.33854">
        <ele>2.4</ele>
        <time>2020-06-02T17:03:11Z</time>
      </trkpt>
      <trkpt lat="46.3401" lon="-1.33858">
        <ele>2.4</ele>
        <time>2020-06-02T17:03:12Z</time>
      </trkpt>
      <trkpt lat="46.34012" lon="-1.33862">
        <ele>2.5</ele>
        <time>2020-06-02T17:03:13Z</time>
      </trkpt>
      <trkpt lat="46.34016" lon="-1.33866">
        <ele>2.5</ele>
        <time>2020-06-02T17:03:14Z</time>
      </trkpt>
      <trkpt lat="46.34019" lon="-1.33871">
        <ele>2.5</ele>
        <time>2020-06-02T17:03:15Z</time>
      </trkpt>
      <trkpt lat="46.34023" lon="-1.33875">
        <ele>2.5</ele>
        <time>2020-06-02T17:03:16Z</time>
      </trkpt>
      <trkpt lat="46.34026" lon="-1.3388">
        <ele>2.5</ele>
        <time>2020-06-02T17:03:17Z</time>
      </trkpt>
      <trkpt lat="46.3403" lon="-1.33884">
        <ele>2.5</ele>
        <time>2020-06-02T17:03:18Z</time>
      </trkpt>
      <trkpt lat="46.34034" lon="-1.33888">
        <ele>2.5</ele>
        <time>2020-06-02T17:03:19Z</time>
      </trkpt>
      <trkpt lat="46.34039" lon="-1.33892">
        <ele>2.6</ele>
        <time>2020-06-02T17:03:20Z</time>
      </trkpt>
      <trkpt lat="46.34043" lon="-1.33897">
        <ele>2.6</ele>
        <time>2020-06-02T17:03:21Z</time>
      </trkpt>
      <trkpt lat="46.34047" lon="-1.33901">
        <ele>2.6</ele>
        <time>2020-06-02T17:03:22Z</time>
      </trkpt>
      <trkpt lat="46.3405" lon="-1.33906">
        <ele>2.6</ele>
        <time>2020-06-02T17:03:23Z</time>
      </trkpt>
      <trkpt lat="46.34054" lon="-1.33909">
        <ele>2.6</ele>
        <time>2020-06-02T17:03:24Z</time>
      </trkpt>
      <trkpt lat="46.34057" lon="-1.33914">
        <ele>2.6</ele>
        <time>2020-06-02T17:03:25Z</time>
      </trkpt>
      <trkpt lat="46.3406" lon="-1.33918">
        <ele>2.7</ele>
        <time>2020-06-02T17:03:26Z</time>
      </trkpt>
      <trkpt lat="46.34065" lon="-1.33923">
        <ele>2.7</ele>
        <time>2020-06-02T17:03:27Z</time>
      </trkpt>
      <trkpt lat="46.34067" lon="-1.33928">
        <ele>2.7</ele>
        <time>2020-06-02T17:03:28Z</time>
      </trkpt>
      <trkpt lat="46.34069" lon="-1.33932">
        <ele>2.7</ele>
        <time>2020-06-02T17:03:29Z</time>
      </trkpt>
      <trkpt lat="46.34071" lon="-1.33937">
        <ele>2.7</ele>
        <time>2020-06-02T17:03:30Z</time>
      </trkpt>
      <trkpt lat="46.34075" lon="-1.33943">
        <ele>2.7</ele>
        <time>2020-06-02T17:03:31Z</time>
      </trkpt>
      <trkpt lat="46.34078" lon="-1.33946">
        <ele>2.7</ele>
        <time>2020-06-02T17:03:32Z</time>
      </trkpt>
      <trkpt lat="46.34081" lon="-1.3395">
        <ele>2.8</ele>
        <time>2020-06-02T17:03:33Z</time>
      </trkpt>
      <trkpt lat="46.34084" lon="-1.33954">
        <ele>2.8</ele>
        <time>2020-06-02T17:03:34Z</time>
      </trkpt>
      <trkpt lat="46.34088" lon="-1.33958">
        <ele>2.8</ele>
        <time>2020-06-02T17:03:35Z</time>
      </trkpt>
      <trkpt lat="46.34091" lon="-1.33963">
        <ele>2.8</ele>
        <time>2020-06-02T17:03:36Z</time>
      </trkpt>
      <trkpt lat="46.34096" lon="-1.33967">
        <ele>2.9</ele>
        <time>2020-06-02T17:03:37Z</time>
      </trkpt>
      <trkpt lat="46.34099" lon="-1.33972">
        <ele>2.9</ele>
        <time>2020-06-02T17:03:38Z</time>
      </trkpt>
      <trkpt lat="46.34103" lon="-1.33975">
        <ele>3</ele>
        <time>2020-06-02T17:03:39Z</time>
      </trkpt>
      <trkpt lat="46.34105" lon="-1.33979">
        <ele>3</ele>
        <time>2020-06-02T17:03:40Z</time>
      </trkpt>
      <trkpt lat="46.34106" lon="-1.33985">
        <ele>3.1</ele>
        <time>2020-06-02T17:03:41Z</time>
      </trkpt>
      <trkpt lat="46.34109" lon="-1.33989">
        <ele>3.1</ele>
        <time>2020-06-02T17:03:42Z</time>
      </trkpt>
      <trkpt lat="46.34111" lon="-1.33993">
        <ele>3.1</ele>
        <time>2020-06-02T17:03:43Z</time>
      </trkpt>
      <trkpt lat="46.34113" lon="-1.33998">
        <ele>3.1</ele>
        <time>2020-06-02T17:03:44Z</time>
      </trkpt>
      <trkpt lat="46.34116" lon="-1.34004">
        <ele>3.1</ele>
        <time>2020-06-02T17:03:45Z</time>
      </trkpt>
      <trkpt lat="46.34118" lon="-1.34009">
        <ele>3.1</ele>
        <time>2020-06-02T17:03:46Z</time>
      </trkpt>
      <trkpt lat="46.34122" lon="-1.34013">
        <ele>3.1</ele>
        <time>2020-06-02T17:03:47Z</time>
      </trkpt>
      <trkpt lat="46.34125" lon="-1.34019">
        <ele>3.1</ele>
        <time>2020-06-02T17:03:48Z</time>
      </trkpt>
      <trkpt lat="46.34129" lon="-1.34024">
        <ele>3.1</ele>
        <time>2020-06-02T17:03:49Z</time>
      </trkpt>
      <trkpt lat="46.34131" lon="-1.3403">
        <ele>3.1</ele>
        <time>2020-06-02T17:03:50Z</time>
      </trkpt>
      <trkpt lat="46.34134" lon="-1.34036">
        <ele>3.1</ele>
        <time>2020-06-02T17:03:51Z</time>
      </trkpt>
      <trkpt lat="46.34137" lon="-1.34042">
        <ele>3.1</ele>
        <time>2020-06-02T17:03:52Z</time>
      </trkpt>
      <trkpt lat="46.34141" lon="-1.34049">
        <ele>3.1</ele>
        <time>2020-06-02T17:03:53Z</time>
      </trkpt>
      <trkpt lat="46.34144" lon="-1.34054">
        <ele>3.1</ele>
        <time>2020-06-02T17:03:54Z</time>
      </trkpt>
      <trkpt lat="46.34147" lon="-1.34059">
        <ele>3.1</ele>
        <time>2020-06-02T17:03:55Z</time>
      </trkpt>
      <trkpt lat="46.3415" lon="-1.34064">
        <ele>3.1</ele>
        <time>2020-06-02T17:03:56Z</time>
      </trkpt>
      <trkpt lat="46.34153" lon="-1.3407">
        <ele>3.1</ele>
        <time>2020-06-02T17:03:57Z</time>
      </trkpt>
      <trkpt lat="46.34156" lon="-1.34074">
        <ele>3.1</ele>
        <time>2020-06-02T17:03:58Z</time>
      </trkpt>
      <trkpt lat="46.3416" lon="-1.3408">
        <ele>3.2</ele>
        <time>2020-06-02T17:03:59Z</time>
      </trkpt>
      <trkpt lat="46.34162" lon="-1.34084">
        <ele>3.2</ele>
        <time>2020-06-02T17:04:00Z</time>
      </trkpt>
      <trkpt lat="46.34166" lon="-1.3409">
        <ele>3.2</ele>
        <time>2020-06-02T17:04:01Z</time>
      </trkpt>
      <trkpt lat="46.34169" lon="-1.34097">
        <ele>3.2</ele>
        <time>2020-06-02T17:04:02Z</time>
      </trkpt>
      <trkpt lat="46.34172" lon="-1.34103">
        <ele>3.2</ele>
        <time>2020-06-02T17:04:03Z</time>
      </trkpt>
      <trkpt lat="46.34175" lon="-1.34107">
        <ele>3.2</ele>
        <time>2020-06-02T17:04:04Z</time>
      </trkpt>
      <trkpt lat="46.34179" lon="-1.34112">
        <ele>3.2</ele>
        <time>2020-06-02T17:04:05Z</time>
      </trkpt>
      <trkpt lat="46.34181" lon="-1.34117">
        <ele>3.2</ele>
        <time>2020-06-02T17:04:06Z</time>
      </trkpt>
      <trkpt lat="46.34184" lon="-1.34122">
        <ele>3.2</ele>
        <time>2020-06-02T17:04:07Z</time>
      </trkpt>
      <trkpt lat="46.34187" lon="-1.34127">
        <ele>3.2</ele>
        <time>2020-06-02T17:04:08Z</time>
      </trkpt>
      <trkpt lat="46.3419" lon="-1.34128">
        <ele>3.2</ele>
        <time>2020-06-02T17:04:09Z</time>
      </trkpt>
      <trkpt lat="46.34192" lon="-1.34134">
        <ele>3.2</ele>
        <time>2020-06-02T17:04:10Z</time>
      </trkpt>
      <trkpt lat="46.34194" lon="-1.34138">
        <ele>3.2</ele>
        <time>2020-06-02T17:04:11Z</time>
      </trkpt>
      <trkpt lat="46.34197" lon="-1.34141">
        <ele>3.3</ele>
        <time>2020-06-02T17:04:12Z</time>
      </trkpt>
      <trkpt lat="46.342" lon="-1.34145">
        <ele>3.3</ele>
        <time>2020-06-02T17:04:13Z</time>
      </trkpt>
      <trkpt lat="46.34203" lon="-1.3415">
        <ele>3.3</ele>
        <time>2020-06-02T17:04:14Z</time>
      </trkpt>
      <trkpt lat="46.34205" lon="-1.34153">
        <ele>3.3</ele>
        <time>2020-06-02T17:04:15Z</time>
      </trkpt>
      <trkpt lat="46.34208" lon="-1.34156">
        <ele>3.3</ele>
        <time>2020-06-02T17:04:16Z</time>
      </trkpt>
      <trkpt lat="46.34209" lon="-1.3416">
        <ele>3.4</ele>
        <time>2020-06-02T17:04:17Z</time>
      </trkpt>
      <trkpt lat="46.34211" lon="-1.34164">
        <ele>3.4</ele>
        <time>2020-06-02T17:04:18Z</time>
      </trkpt>
      <trkpt lat="46.34213" lon="-1.34168">
        <ele>3.4</ele>
        <time>2020-06-02T17:04:19Z</time>
      </trkpt>
      <trkpt lat="46.34216" lon="-1.34171">
        <ele>3.4</ele>
        <time>2020-06-02T17:04:20Z</time>
      </trkpt>
      <trkpt lat="46.34217" lon="-1.34173">
        <ele>3.4</ele>
        <time>2020-06-02T17:04:21Z</time>
      </trkpt>
      <trkpt lat="46.34218" lon="-1.34177">
        <ele>3.4</ele>
        <time>2020-06-02T17:04:22Z</time>
      </trkpt>
      <trkpt lat="46.34219" lon="-1.34179">
        <ele>3.4</ele>
        <time>2020-06-02T17:04:23Z</time>
      </trkpt>
      <trkpt lat="46.34221" lon="-1.34184">
        <ele>3.5</ele>
        <time>2020-06-02T17:04:24Z</time>
      </trkpt>
      <trkpt lat="46.34222" lon="-1.34186">
        <ele>3.5</ele>
        <time>2020-06-02T17:04:25Z</time>
      </trkpt>
      <trkpt lat="46.34225" lon="-1.34189">
        <ele>3.5</ele>
        <time>2020-06-02T17:04:26Z</time>
      </trkpt>
      <trkpt lat="46.34227" lon="-1.34193">
        <ele>3.5</ele>
        <time>2020-06-02T17:04:27Z</time>
      </trkpt>
      <trkpt lat="46.34229" lon="-1.34197">
        <ele>3.5</ele>
        <time>2020-06-02T17:04:28Z</time>
      </trkpt>
      <trkpt lat="46.3423" lon="-1.34202">
        <ele>3.5</ele>
        <time>2020-06-02T17:04:29Z</time>
      </trkpt>
      <trkpt lat="46.3423" lon="-1.34206">
        <ele>3.5</ele>
        <time>2020-06-02T17:04:30Z</time>
      </trkpt>
      <trkpt lat="46.34233" lon="-1.3421">
        <ele>3.5</ele>
        <time>2020-06-02T17:04:31Z</time>
      </trkpt>
      <trkpt lat="46.34236" lon="-1.34213">
        <ele>3.5</ele>
        <time>2020-06-02T17:04:32Z</time>
      </trkpt>
      <trkpt lat="46.34238" lon="-1.34217">
        <ele>3.5</ele>
        <time>2020-06-02T17:04:33Z</time>
      </trkpt>
      <trkpt lat="46.3424" lon="-1.34222">
        <ele>3.5</ele>
        <time>2020-06-02T17:04:34Z</time>
      </trkpt>
      <trkpt lat="46.34242" lon="-1.34226">
        <ele>3.5</ele>
        <time>2020-06-02T17:04:35Z</time>
      </trkpt>
      <trkpt lat="46.34244" lon="-1.3423">
        <ele>3.5</ele>
        <time>2020-06-02T17:04:36Z</time>
      </trkpt>
      <trkpt lat="46.34245" lon="-1.34236">
        <ele>3.5</ele>
        <time>2020-06-02T17:04:37Z</time>
      </trkpt>
      <trkpt lat="46.34248" lon="-1.3424">
        <ele>3.5</ele>
        <time>2020-06-02T17:04:38Z</time>
      </trkpt>
      <trkpt lat="46.34251" lon="-1.34243">
        <ele>3.5</ele>
        <time>2020-06-02T17:04:39Z</time>
      </trkpt>
      <trkpt lat="46.34253" lon="-1.34247">
        <ele>3.5</ele>
        <time>2020-06-02T17:04:40Z</time>
      </trkpt>
      <trkpt lat="46.34256" lon="-1.34251">
        <ele>3.5</ele>
        <time>2020-06-02T17:04:41Z</time>
      </trkpt>
      <trkpt lat="46.34259" lon="-1.34254">
        <ele>3.6</ele>
        <time>2020-06-02T17:04:42Z</time>
      </trkpt>
      <trkpt lat="46.34262" lon="-1.34259">
        <ele>3.6</ele>
        <time>2020-06-02T17:04:43Z</time>
      </trkpt>
      <trkpt lat="46.34265" lon="-1.34263">
        <ele>3.6</ele>
        <time>2020-06-02T17:04:44Z</time>
      </trkpt>
      <trkpt lat="46.34268" lon="-1.34268">
        <ele>3.6</ele>
        <time>2020-06-02T17:04:45Z</time>
      </trkpt>
      <trkpt lat="46.3427" lon="-1.34273">
        <ele>3.6</ele>
        <time>2020-06-02T17:04:46Z</time>
      </trkpt>
      <trkpt lat="46.34273" lon="-1.34277">
        <ele>3.6</ele>
        <time>2020-06-02T17:04:47Z</time>
      </trkpt>
      <trkpt lat="46.34276" lon="-1.34281">
        <ele>3.6</ele>
        <time>2020-06-02T17:04:48Z</time>
      </trkpt>
      <trkpt lat="46.34278" lon="-1.34285">
        <ele>3.6</ele>
        <time>2020-06-02T17:04:49Z</time>
      </trkpt>
      <trkpt lat="46.34281" lon="-1.3429">
        <ele>3.6</ele>
        <time>2020-06-02T17:04:50Z</time>
      </trkpt>
      <trkpt lat="46.34283" lon="-1.34295">
        <ele>3.6</ele>
        <time>2020-06-02T17:04:51Z</time>
      </trkpt>
      <trkpt lat="46.34284" lon="-1.34299">
        <ele>3.6</ele>
        <time>2020-06-02T17:04:52Z</time>
      </trkpt>
      <trkpt lat="46.34286" lon="-1.34305">
        <ele>3.6</ele>
        <time>2020-06-02T17:04:53Z</time>
      </trkpt>
      <trkpt lat="46.34285" lon="-1.3431">
        <ele>3.6</ele>
        <time>2020-06-02T17:04:54Z</time>
      </trkpt>
      <trkpt lat="46.34286" lon="-1.34316">
        <ele>3.6</ele>
        <time>2020-06-02T17:04:55Z</time>
      </trkpt>
      <trkpt lat="46.34287" lon="-1.34321">
        <ele>3.6</ele>
        <time>2020-06-02T17:04:56Z</time>
      </trkpt>
      <trkpt lat="46.34287" lon="-1.34327">
        <ele>3.6</ele>
        <time>2020-06-02T17:04:57Z</time>
      </trkpt>
      <trkpt lat="46.34287" lon="-1.34334">
        <ele>3.8</ele>
        <time>2020-06-02T17:04:58Z</time>
      </trkpt>
      <trkpt lat="46.34288" lon="-1.3434">
        <ele>3.9</ele>
        <time>2020-06-02T17:04:59Z</time>
      </trkpt>
      <trkpt lat="46.34287" lon="-1.34345">
        <ele>3.9</ele>
        <time>2020-06-02T17:05:00Z</time>
      </trkpt>
      <trkpt lat="46.34285" lon="-1.3435">
        <ele>3.9</ele>
        <time>2020-06-02T17:05:01Z</time>
      </trkpt>
      <trkpt lat="46.34283" lon="-1.34353">
        <ele>4</ele>
        <time>2020-06-02T17:05:02Z</time>
      </trkpt>
      <trkpt lat="46.34279" lon="-1.34357">
        <ele>4</ele>
        <time>2020-06-02T17:05:03Z</time>
      </trkpt>
      <trkpt lat="46.34277" lon="-1.34361">
        <ele>4.1</ele>
        <time>2020-06-02T17:05:04Z</time>
      </trkpt>
      <trkpt lat="46.34273" lon="-1.34365">
        <ele>4.1</ele>
        <time>2020-06-02T17:05:05Z</time>
      </trkpt>
      <trkpt lat="46.34269" lon="-1.34368">
        <ele>4.1</ele>
        <time>2020-06-02T17:05:06Z</time>
      </trkpt>
      <trkpt lat="46.34266" lon="-1.34373">
        <ele>4.2</ele>
        <time>2020-06-02T17:05:07Z</time>
      </trkpt>
      <trkpt lat="46.34262" lon="-1.34375">
        <ele>4.3</ele>
        <time>2020-06-02T17:05:08Z</time>
      </trkpt>
      <trkpt lat="46.34259" lon="-1.34377">
        <ele>4.3</ele>
        <time>2020-06-02T17:05:09Z</time>
      </trkpt>
      <trkpt lat="46.34256" lon="-1.34381">
        <ele>4.4</ele>
        <time>2020-06-02T17:05:10Z</time>
      </trkpt>
      <trkpt lat="46.34253" lon="-1.34384">
        <ele>4.4</ele>
        <time>2020-06-02T17:05:11Z</time>
      </trkpt>
      <trkpt lat="46.34249" lon="-1.34388">
        <ele>4.5</ele>
        <time>2020-06-02T17:05:12Z</time>
      </trkpt>
      <trkpt lat="46.34246" lon="-1.34392">
        <ele>4.6</ele>
        <time>2020-06-02T17:05:13Z</time>
      </trkpt>
      <trkpt lat="46.34241" lon="-1.34395">
        <ele>4.7</ele>
        <time>2020-06-02T17:05:14Z</time>
      </trkpt>
      <trkpt lat="46.34237" lon="-1.34399">
        <ele>4.7</ele>
        <time>2020-06-02T17:05:15Z</time>
      </trkpt>
      <trkpt lat="46.34234" lon="-1.34402">
        <ele>4.8</ele>
        <time>2020-06-02T17:05:16Z</time>
      </trkpt>
      <trkpt lat="46.3423" lon="-1.34407">
        <ele>4.9</ele>
        <time>2020-06-02T17:05:17Z</time>
      </trkpt>
      <trkpt lat="46.34226" lon="-1.34413">
        <ele>4.9</ele>
        <time>2020-06-02T17:05:18Z</time>
      </trkpt>
      <trkpt lat="46.34223" lon="-1.34417">
        <ele>5</ele>
        <time>2020-06-02T17:05:19Z</time>
      </trkpt>
      <trkpt lat="46.34219" lon="-1.34419">
        <ele>5</ele>
        <time>2020-06-02T17:05:20Z</time>
      </trkpt>
      <trkpt lat="46.34215" lon="-1.34421">
        <ele>5.1</ele>
        <time>2020-06-02T17:05:21Z</time>
      </trkpt>
      <trkpt lat="46.34212" lon="-1.34422">
        <ele>5.2</ele>
        <time>2020-06-02T17:05:22Z</time>
      </trkpt>
      <trkpt lat="46.34208" lon="-1.34421">
        <ele>5.2</ele>
        <time>2020-06-02T17:05:23Z</time>
      </trkpt>
      <trkpt lat="46.34203" lon="-1.3442">
        <ele>5.3</ele>
        <time>2020-06-02T17:05:24Z</time>
      </trkpt>
      <trkpt lat="46.34199" lon="-1.3442">
        <ele>5.3</ele>
        <time>2020-06-02T17:05:25Z</time>
      </trkpt>
      <trkpt lat="46.34195" lon="-1.34422">
        <ele>5.3</ele>
        <time>2020-06-02T17:05:26Z</time>
      </trkpt>
      <trkpt lat="46.34192" lon="-1.34424">
        <ele>5.4</ele>
        <time>2020-06-02T17:05:27Z</time>
      </trkpt>
      <trkpt lat="46.34191" lon="-1.34428">
        <ele>5.4</ele>
        <time>2020-06-02T17:05:28Z</time>
      </trkpt>
      <trkpt lat="46.34188" lon="-1.34431">
        <ele>5.4</ele>
        <time>2020-06-02T17:05:29Z</time>
      </trkpt>
      <trkpt lat="46.34188" lon="-1.34432">
        <ele>5.4</ele>
        <time>2020-06-02T17:05:30Z</time>
      </trkpt>
      <trkpt lat="46.34188" lon="-1.34433">
        <ele>5.4</ele>
        <time>2020-06-02T17:05:31Z</time>
      </trkpt>
      <trkpt lat="46.34186" lon="-1.34434">
        <ele>5.4</ele>
        <time>2020-06-02T17:05:32Z</time>
      </trkpt>
      <trkpt lat="46.34186" lon="-1.34434">
        <ele>5.4</ele>
        <time>2020-06-02T17:05:33Z</time>
      </trkpt>
      <trkpt lat="46.34186" lon="-1.34434">
        <ele>5.4</ele>
        <time>2020-06-02T17:05:34Z</time>
      </trkpt>
      <trkpt lat="46.34187" lon="-1.34434">
        <ele>5.4</ele>
        <time>2020-06-02T17:05:35Z</time>
      </trkpt>
      <trkpt lat="46.34186" lon="-1.34432">
        <ele>5.4</ele>
        <time>2020-06-02T17:05:36Z</time>
      </trkpt>
      <trkpt lat="46.34187" lon="-1.34432">
        <ele>5.5</ele>
        <time>2020-06-02T17:05:37Z</time>
      </trkpt>
      <trkpt lat="46.34186" lon="-1.34431">
        <ele>5.5</ele>
        <time>2020-06-02T17:05:38Z</time>
      </trkpt>
      <trkpt lat="46.34186" lon="-1.34431">
        <ele>5.5</ele>
        <time>2020-06-02T17:05:39Z</time>
      </trkpt>
      <trkpt lat="46.34186" lon="-1.34431">
        <ele>5.5</ele>
        <time>2020-06-02T17:05:40Z</time>
      </trkpt>
      <trkpt lat="46.34186" lon="-1.34431">
        <ele>5.5</ele>
        <time>2020-06-02T17:05:41Z</time>
      </trkpt>
      <trkpt lat="46.34185" lon="-1.34431">
        <ele>5.5</ele>
        <time>2020-06-02T17:05:42Z</time>
      </trkpt>
      <trkpt lat="46.34186" lon="-1.34431">
        <ele>5.5</ele>
        <time>2020-06-02T17:05:43Z</time>
      </trkpt>
      <trkpt lat="46.34186" lon="-1.34431">
        <ele>5.5</ele>
        <time>2020-06-02T17:05:44Z</time>
      </trkpt>
      <trkpt lat="46.34186" lon="-1.34431">
        <ele>5.5</ele>
        <time>2020-06-02T17:05:45Z</time>
      </trkpt>
      <trkpt lat="46.34186" lon="-1.34431">
        <ele>5.5</ele>
        <time>2020-06-02T17:05:46Z</time>
      </trkpt>
      <trkpt lat="46.34186" lon="-1.34431">
        <ele>5.5</ele>
        <time>2020-06-02T17:05:47Z</time>
      </trkpt>
      <trkpt lat="46.34186" lon="-1.34431">
        <ele>5.5</ele>
        <time>2020-06-02T17:05:48Z</time>
      </trkpt>
      <trkpt lat="46.34185" lon="-1.34432">
        <ele>5.5</ele>
        <time>2020-06-02T17:05:49Z</time>
      </trkpt>
      <trkpt lat="46.34185" lon="-1.34432">
        <ele>5.5</ele>
        <time>2020-06-02T17:05:50Z</time>
      </trkpt>
      <trkpt lat="46.34186" lon="-1.34432">
        <ele>5.5</ele>
        <time>2020-06-02T17:05:51Z</time>
      </trkpt>
      <trkpt lat="46.34186" lon="-1.34432">
        <ele>5.5</ele>
        <time>2020-06-02T17:05:52Z</time>
      </trkpt>
      <trkpt lat="46.34185" lon="-1.34432">
        <ele>5.5</ele>
        <time>2020-06-02T17:05:53Z</time>
      </trkpt>
      <trkpt lat="46.34185" lon="-1.34432">
        <ele>5.5</ele>
        <time>2020-06-02T17:05:54Z</time>
      </trkpt>
      <trkpt lat="46.34185" lon="-1.34432">
        <ele>5.5</ele>
        <time>2020-06-02T17:05:55Z</time>
      </trkpt>
      <trkpt lat="46.34185" lon="-1.34432">
        <ele>5.5</ele>
        <time>2020-06-02T17:05:56Z</time>
      </trkpt>
      <trkpt lat="46.34185" lon="-1.34432">
        <ele>5.5</ele>
        <time>2020-06-02T17:05:57Z</time>
      </trkpt>
      <trkpt lat="46.34185" lon="-1.34431">
        <ele>5.5</ele>
        <time>2020-06-02T17:05:58Z</time>
      </trkpt>
      <trkpt lat="46.34185" lon="-1.34432">
        <ele>5.5</ele>
        <time>2020-06-02T17:05:59Z</time>
      </trkpt>
      <trkpt lat="46.34185" lon="-1.34432">
        <ele>5.5</ele>
        <time>2020-06-02T17:06:00Z</time>
      </trkpt>
      <trkpt lat="46.34185" lon="-1.34432">
        <ele>5.5</ele>
        <time>2020-06-02T17:06:01Z</time>
      </trkpt>
      <trkpt lat="46.34184" lon="-1.34433">
        <ele>5.5</ele>
        <time>2020-06-02T17:06:02Z</time>
      </trkpt>
      <trkpt lat="46.34184" lon="-1.34432">
        <ele>5.5</ele>
        <time>2020-06-02T17:06:03Z</time>
      </trkpt>
      <trkpt lat="46.34184" lon="-1.34433">
        <ele>5.5</ele>
        <time>2020-06-02T17:06:04Z</time>
      </trkpt>
      <trkpt lat="46.34184" lon="-1.34433">
        <ele>5.5</ele>
        <time>2020-06-02T17:06:05Z</time>
      </trkpt>
      <trkpt lat="46.34184" lon="-1.34433">
        <ele>5.5</ele>
        <time>2020-06-02T17:06:06Z</time>
      </trkpt>
      <trkpt lat="46.34184" lon="-1.34433">
        <ele>5.5</ele>
        <time>2020-06-02T17:06:07Z</time>
      </trkpt>
      <trkpt lat="46.34184" lon="-1.34433">
        <ele>5.5</ele>
        <time>2020-06-02T17:06:08Z</time>
      </trkpt>
      <trkpt lat="46.34184" lon="-1.34433">
        <ele>5.5</ele>
        <time>2020-06-02T17:06:09Z</time>
      </trkpt>
      <trkpt lat="46.34184" lon="-1.34433">
        <ele>5.5</ele>
        <time>2020-06-02T17:06:10Z</time>
      </trkpt>
      <trkpt lat="46.34184" lon="-1.34433">
        <ele>5.5</ele>
        <time>2020-06-02T17:06:11Z</time>
      </trkpt>
      <trkpt lat="46.34184" lon="-1.34433">
        <ele>5.5</ele>
        <time>2020-06-02T17:06:12Z</time>
      </trkpt>
      <trkpt lat="46.34184" lon="-1.34433">
        <ele>5.5</ele>
        <time>2020-06-02T17:06:13Z</time>
      </trkpt>
      <trkpt lat="46.34184" lon="-1.34433">
        <ele>5.5</ele>
        <time>2020-06-02T17:06:14Z</time>
      </trkpt>
      <trkpt lat="46.34184" lon="-1.34433">
        <ele>5.5</ele>
        <time>2020-06-02T17:06:15Z</time>
      </trkpt>
      <trkpt lat="46.34184" lon="-1.34433">
        <ele>5.5</ele>
        <time>2020-06-02T17:06:16Z</time>
      </trkpt>
      <trkpt lat="46.34184" lon="-1.34433">
        <ele>5.5</ele>
        <time>2020-06-02T17:06:17Z</time>
      </trkpt>
      <trkpt lat="46.34184" lon="-1.34433">
        <ele>5.5</ele>
        <time>2020-06-02T17:06:18Z</time>
      </trkpt>
      <trkpt lat="46.34183" lon="-1.34434">
        <ele>5.5</ele>
        <time>2020-06-02T17:06:19Z</time>
      </trkpt>
      <trkpt lat="46.34183" lon="-1.34434">
        <ele>5.5</ele>
        <time>2020-06-02T17:06:20Z</time>
      </trkpt>
      <trkpt lat="46.34183" lon="-1.34434">
        <ele>5.5</ele>
        <time>2020-06-02T17:06:21Z</time>
      </trkpt>
      <trkpt lat="46.34183" lon="-1.34434">
        <ele>5.5</ele>
        <time>2020-06-02T17:06:22Z</time>
      </trkpt>
      <trkpt lat="46.34183" lon="-1.34434">
        <ele>5.5</ele>
        <time>2020-06-02T17:06:23Z</time>
      </trkpt>
      <trkpt lat="46.34183" lon="-1.34434">
        <ele>5.5</ele>
        <time>2020-06-02T17:06:24Z</time>
      </trkpt>
      <trkpt lat="46.34183" lon="-1.34434">
        <ele>5.5</ele>
        <time>2020-06-02T17:06:25Z</time>
      </trkpt>
      <trkpt lat="46.34183" lon="-1.34434">
        <ele>5.5</ele>
        <time>2020-06-02T17:06:26Z</time>
      </trkpt>
      <trkpt lat="46.34183" lon="-1.34434">
        <ele>5.5</ele>
        <time>2020-06-02T17:06:27Z</time>
      </trkpt>
      <trkpt lat="46.34183" lon="-1.34434">
        <ele>5.5</ele>
        <time>2020-06-02T17:06:28Z</time>
      </trkpt>
      <trkpt lat="46.34183" lon="-1.34434">
        <ele>5.5</ele>
        <time>2020-06-02T17:06:29Z</time>
      </trkpt>
      <trkpt lat="46.34183" lon="-1.34434">
        <ele>5.5</ele>
        <time>2020-06-02T17:06:30Z</time>
      </trkpt>
      <trkpt lat="46.34183" lon="-1.34434">
        <ele>5.5</ele>
        <time>2020-06-02T17:06:31Z</time>
      </trkpt>
      <trkpt lat="46.34183" lon="-1.34434">
        <ele>5.5</ele>
        <time>2020-06-02T17:06:32Z</time>
      </trkpt>
      <trkpt lat="46.34183" lon="-1.34434">
        <ele>5.5</ele>
        <time>2020-06-02T17:06:33Z</time>
      </trkpt>
      <trkpt lat="46.34183" lon="-1.34434">
        <ele>5.5</ele>
        <time>2020-06-02T17:06:34Z</time>
      </trkpt>
      <trkpt lat="46.34183" lon="-1.34434">
        <ele>5.5</ele>
        <time>2020-06-02T17:06:35Z</time>
      </trkpt>
      <trkpt lat="46.34183" lon="-1.34433">
        <ele>5.5</ele>
        <time>2020-06-02T17:06:36Z</time>
      </trkpt>
      <trkpt lat="46.34183" lon="-1.34433">
        <ele>5.5</ele>
        <time>2020-06-02T17:06:37Z</time>
      </trkpt>
      <trkpt lat="46.34183" lon="-1.34433">
        <ele>5.5</ele>
        <time>2020-06-02T17:06:38Z</time>
      </trkpt>
      <trkpt lat="46.34183" lon="-1.34433">
        <ele>5.5</ele>
        <time>2020-06-02T17:06:39Z</time>
      </trkpt>
      <trkpt lat="46.34183" lon="-1.34433">
        <ele>5.5</ele>
        <time>2020-06-02T17:06:40Z</time>
      </trkpt>
      <trkpt lat="46.34183" lon="-1.34433">
        <ele>5.5</ele>
        <time>2020-06-02T17:06:41Z</time>
      </trkpt>
      <trkpt lat="46.34182" lon="-1.34433">
        <ele>5.5</ele>
        <time>2020-06-02T17:06:42Z</time>
      </trkpt>
      <trkpt lat="46.34182" lon="-1.34433">
        <ele>5.5</ele>
        <time>2020-06-02T17:06:43Z</time>
      </trkpt>
      <trkpt lat="46.34182" lon="-1.34434">
        <ele>5.5</ele>
        <time>2020-06-02T17:06:44Z</time>
      </trkpt>
      <trkpt lat="46.34182" lon="-1.34434">
        <ele>5.5</ele>
        <time>2020-06-02T17:06:45Z</time>
      </trkpt>
      <trkpt lat="46.34182" lon="-1.34434">
        <ele>5.5</ele>
        <time>2020-06-02T17:06:46Z</time>
      </trkpt>
      <trkpt lat="46.34182" lon="-1.34434">
        <ele>5.5</ele>
        <time>2020-06-02T17:06:47Z</time>
      </trkpt>
      <trkpt lat="46.34182" lon="-1.34434">
        <ele>5.5</ele>
        <time>2020-06-02T17:06:48Z</time>
      </trkpt>
      <trkpt lat="46.34182" lon="-1.34434">
        <ele>5.5</ele>
        <time>2020-06-02T17:06:49Z</time>
      </trkpt>
      <trkpt lat="46.34182" lon="-1.34434">
        <ele>5.5</ele>
        <time>2020-06-02T17:06:50Z</time>
      </trkpt>
      <trkpt lat="46.34183" lon="-1.34434">
        <ele>5.5</ele>
        <time>2020-06-02T17:06:51Z</time>
      </trkpt>
      <trkpt lat="46.34183" lon="-1.34434">
        <ele>5.5</ele>
        <time>2020-06-02T17:06:52Z</time>
      </trkpt>
      <trkpt lat="46.34183" lon="-1.34434">
        <ele>5.5</ele>
        <time>2020-06-02T17:06:53Z</time>
      </trkpt>
      <trkpt lat="46.34183" lon="-1.34434">
        <ele>5.5</ele>
        <time>2020-06-02T17:06:54Z</time>
      </trkpt>
      <trkpt lat="46.34183" lon="-1.34434">
        <ele>5.5</ele>
        <time>2020-06-02T17:06:55Z</time>
      </trkpt>
      <trkpt lat="46.34183" lon="-1.34433">
        <ele>5.5</ele>
        <time>2020-06-02T17:06:56Z</time>
      </trkpt>
      <trkpt lat="46.34183" lon="-1.34433">
        <ele>5.5</ele>
        <time>2020-06-02T17:06:57Z</time>
      </trkpt>
      <trkpt lat="46.34183" lon="-1.34433">
        <ele>5.5</ele>
        <time>2020-06-02T17:06:58Z</time>
      </trkpt>
      <trkpt lat="46.34183" lon="-1.34433">
        <ele>5.5</ele>
        <time>2020-06-02T17:06:59Z</time>
      </trkpt>
      <trkpt lat="46.34183" lon="-1.34433">
        <ele>5.5</ele>
        <time>2020-06-02T17:07:00Z</time>
      </trkpt>
      <trkpt lat="46.34183" lon="-1.34433">
        <ele>5.5</ele>
        <time>2020-06-02T17:07:01Z</time>
      </trkpt>
      <trkpt lat="46.34183" lon="-1.34433">
        <ele>5.5</ele>
        <time>2020-06-02T17:07:02Z</time>
      </trkpt>
      <trkpt lat="46.34183" lon="-1.34433">
        <ele>5.5</ele>
        <time>2020-06-02T17:07:03Z</time>
      </trkpt>
      <trkpt lat="46.34183" lon="-1.34433">
        <ele>5.5</ele>
        <time>2020-06-02T17:07:04Z</time>
      </trkpt>
      <trkpt lat="46.34183" lon="-1.34433">
        <ele>5.5</ele>
        <time>2020-06-02T17:07:05Z</time>
      </trkpt>
      <trkpt lat="46.34183" lon="-1.34433">
        <ele>5.5</ele>
        <time>2020-06-02T17:07:06Z</time>
      </trkpt>
      <trkpt lat="46.34183" lon="-1.34433">
        <ele>5.5</ele>
        <time>2020-06-02T17:07:07Z</time>
      </trkpt>
      <trkpt lat="46.34183" lon="-1.34433">
        <ele>5.5</ele>
        <time>2020-06-02T17:07:08Z</time>
      </trkpt>
      <trkpt lat="46.34183" lon="-1.34433">
        <ele>5.5</ele>
        <time>2020-06-02T17:07:09Z</time>
      </trkpt>
      <trkpt lat="46.34182" lon="-1.34433">
        <ele>5.5</ele>
        <time>2020-06-02T17:07:10Z</time>
      </trkpt>
      <trkpt lat="46.34182" lon="-1.34433">
        <ele>5.5</ele>
        <time>2020-06-02T17:07:11Z</time>
      </trkpt>
      <trkpt lat="46.34182" lon="-1.34433">
        <ele>5.5</ele>
        <time>2020-06-02T17:07:12Z</time>
      </trkpt>
      <trkpt lat="46.34182" lon="-1.34433">
        <ele>5.5</ele>
        <time>2020-06-02T17:07:13Z</time>
      </trkpt>
      <trkpt lat="46.34182" lon="-1.34434">
        <ele>5.5</ele>
        <time>2020-06-02T17:07:14Z</time>
      </trkpt>
      <trkpt lat="46.34182" lon="-1.34434">
        <ele>5.5</ele>
        <time>2020-06-02T17:07:15Z</time>
      </trkpt>
      <trkpt lat="46.34182" lon="-1.34433">
        <ele>5.5</ele>
        <time>2020-06-02T17:07:16Z</time>
      </trkpt>
      <trkpt lat="46.34182" lon="-1.34433">
        <ele>5.5</ele>
        <time>2020-06-02T17:07:17Z</time>
      </trkpt>
      <trkpt lat="46.34182" lon="-1.34433">
        <ele>5.5</ele>
        <time>2020-06-02T17:07:18Z</time>
      </trkpt>
      <trkpt lat="46.34182" lon="-1.34433">
        <ele>5.5</ele>
        <time>2020-06-02T17:07:19Z</time>
      </trkpt>
      <trkpt lat="46.34182" lon="-1.34433">
        <ele>5.5</ele>
        <time>2020-06-02T17:07:20Z</time>
      </trkpt>
      <trkpt lat="46.34183" lon="-1.34434">
        <ele>5.5</ele>
        <time>2020-06-02T17:07:21Z</time>
      </trkpt>
      <trkpt lat="46.34183" lon="-1.34434">
        <ele>5.6</ele>
        <time>2020-06-02T17:07:22Z</time>
      </trkpt>
      <trkpt lat="46.34183" lon="-1.34434">
        <ele>5.6</ele>
        <time>2020-06-02T17:07:23Z</time>
      </trkpt>
      <trkpt lat="46.34183" lon="-1.34434">
        <ele>5.6</ele>
        <time>2020-06-02T17:07:24Z</time>
      </trkpt>
      <trkpt lat="46.34183" lon="-1.34434">
        <ele>5.6</ele>
        <time>2020-06-02T17:07:25Z</time>
      </trkpt>
      <trkpt lat="46.34183" lon="-1.34434">
        <ele>5.6</ele>
        <time>2020-06-02T17:07:26Z</time>
      </trkpt>
      <trkpt lat="46.34183" lon="-1.34434">
        <ele>5.6</ele>
        <time>2020-06-02T17:07:27Z</time>
      </trkpt>
      <trkpt lat="46.34183" lon="-1.34434">
        <ele>5.6</ele>
        <time>2020-06-02T17:07:28Z</time>
      </trkpt>
      <trkpt lat="46.34183" lon="-1.34434">
        <ele>5.6</ele>
        <time>2020-06-02T17:07:29Z</time>
      </trkpt>
      <trkpt lat="46.34183" lon="-1.34435">
        <ele>5.6</ele>
        <time>2020-06-02T17:07:30Z</time>
      </trkpt>
      <trkpt lat="46.34183" lon="-1.34435">
        <ele>5.6</ele>
        <time>2020-06-02T17:07:31Z</time>
      </trkpt>
      <trkpt lat="46.34183" lon="-1.34435">
        <ele>5.6</ele>
        <time>2020-06-02T17:07:32Z</time>
      </trkpt>
      <trkpt lat="46.34183" lon="-1.34435">
        <ele>5.6</ele>
        <time>2020-06-02T17:07:33Z</time>
      </trkpt>
      <trkpt lat="46.34183" lon="-1.34435">
        <ele>5.6</ele>
        <time>2020-06-02T17:07:34Z</time>
      </trkpt>
      <trkpt lat="46.34183" lon="-1.34435">
        <ele>5.6</ele>
        <time>2020-06-02T17:07:35Z</time>
      </trkpt>
      <trkpt lat="46.34183" lon="-1.34435">
        <ele>5.6</ele>
        <time>2020-06-02T17:07:36Z</time>
      </trkpt>
      <trkpt lat="46.34183" lon="-1.34435">
        <ele>5.6</ele>
        <time>2020-06-02T17:07:37Z</time>
      </trkpt>
      <trkpt lat="46.34183" lon="-1.34435">
        <ele>5.6</ele>
        <time>2020-06-02T17:07:38Z</time>
      </trkpt>
      <trkpt lat="46.34183" lon="-1.34435">
        <ele>5.6</ele>
        <time>2020-06-02T17:07:39Z</time>
      </trkpt>
      <trkpt lat="46.34183" lon="-1.34435">
        <ele>5.6</ele>
        <time>2020-06-02T17:07:40Z</time>
      </trkpt>
      <trkpt lat="46.34183" lon="-1.34435">
        <ele>5.6</ele>
        <time>2020-06-02T17:07:41Z</time>
      </trkpt>
      <trkpt lat="46.34183" lon="-1.34435">
        <ele>5.6</ele>
        <time>2020-06-02T17:07:42Z</time>
      </trkpt>
      <trkpt lat="46.34183" lon="-1.34434">
        <ele>5.6</ele>
        <time>2020-06-02T17:07:43Z</time>
      </trkpt>
      <trkpt lat="46.34183" lon="-1.34434">
        <ele>5.6</ele>
        <time>2020-06-02T17:07:44Z</time>
      </trkpt>
      <trkpt lat="46.34183" lon="-1.34434">
        <ele>5.6</ele>
        <time>2020-06-02T17:07:45Z</time>
      </trkpt>
      <trkpt lat="46.34183" lon="-1.34434">
        <ele>5.6</ele>
        <time>2020-06-02T17:07:46Z</time>
      </trkpt>
      <trkpt lat="46.34183" lon="-1.34434">
        <ele>5.6</ele>
        <time>2020-06-02T17:07:47Z</time>
      </trkpt>
      <trkpt lat="46.34184" lon="-1.34433">
        <ele>5.6</ele>
        <time>2020-06-02T17:07:48Z</time>
      </trkpt>
      <trkpt lat="46.34184" lon="-1.34432">
        <ele>5.6</ele>
        <time>2020-06-02T17:07:49Z</time>
      </trkpt>
      <trkpt lat="46.34184" lon="-1.34431">
        <ele>5.6</ele>
        <time>2020-06-02T17:07:50Z</time>
      </trkpt>
      <trkpt lat="46.34184" lon="-1.34431">
        <ele>5.6</ele>
        <time>2020-06-02T17:07:51Z</time>
      </trkpt>
      <trkpt lat="46.34184" lon="-1.34431">
        <ele>5.6</ele>
        <time>2020-06-02T17:07:52Z</time>
      </trkpt>
      <trkpt lat="46.34184" lon="-1.34432">
        <ele>5.6</ele>
        <time>2020-06-02T17:07:53Z</time>
      </trkpt>
      <trkpt lat="46.34184" lon="-1.34432">
        <ele>5.6</ele>
        <time>2020-06-02T17:07:54Z</time>
      </trkpt>
      <trkpt lat="46.34184" lon="-1.34432">
        <ele>5.6</ele>
        <time>2020-06-02T17:07:55Z</time>
      </trkpt>
      <trkpt lat="46.34184" lon="-1.34432">
        <ele>5.6</ele>
        <time>2020-06-02T17:07:56Z</time>
      </trkpt>
      <trkpt lat="46.34184" lon="-1.34432">
        <ele>5.6</ele>
        <time>2020-06-02T17:07:57Z</time>
      </trkpt>
      <trkpt lat="46.34184" lon="-1.34432">
        <ele>5.6</ele>
        <time>2020-06-02T17:07:58Z</time>
      </trkpt>
      <trkpt lat="46.34184" lon="-1.34432">
        <ele>5.6</ele>
        <time>2020-06-02T17:07:59Z</time>
      </trkpt>
      <trkpt lat="46.34184" lon="-1.34432">
        <ele>5.6</ele>
        <time>2020-06-02T17:08:00Z</time>
      </trkpt>
      <trkpt lat="46.34184" lon="-1.34432">
        <ele>5.6</ele>
        <time>2020-06-02T17:08:01Z</time>
      </trkpt>
      <trkpt lat="46.34184" lon="-1.34432">
        <ele>5.6</ele>
        <time>2020-06-02T17:08:02Z</time>
      </trkpt>
      <trkpt lat="46.34184" lon="-1.34432">
        <ele>5.6</ele>
        <time>2020-06-02T17:08:03Z</time>
      </trkpt>
      <trkpt lat="46.34184" lon="-1.34432">
        <ele>5.6</ele>
        <time>2020-06-02T17:08:04Z</time>
      </trkpt>
      <trkpt lat="46.34184" lon="-1.34432">
        <ele>5.6</ele>
        <time>2020-06-02T17:08:05Z</time>
      </trkpt>
      <trkpt lat="46.34184" lon="-1.34433">
        <ele>5.6</ele>
        <time>2020-06-02T17:08:06Z</time>
      </trkpt>
      <trkpt lat="46.34184" lon="-1.34432">
        <ele>5.6</ele>
        <time>2020-06-02T17:08:07Z</time>
      </trkpt>
      <trkpt lat="46.34184" lon="-1.34433">
        <ele>5.6</ele>
        <time>2020-06-02T17:08:08Z</time>
      </trkpt>
      <trkpt lat="46.34184" lon="-1.34433">
        <ele>5.6</ele>
        <time>2020-06-02T17:08:09Z</time>
      </trkpt>
      <trkpt lat="46.34184" lon="-1.34433">
        <ele>5.6</ele>
        <time>2020-06-02T17:08:10Z</time>
      </trkpt>
      <trkpt lat="46.34184" lon="-1.34433">
        <ele>5.6</ele>
        <time>2020-06-02T17:08:11Z</time>
      </trkpt>
      <trkpt lat="46.34184" lon="-1.34433">
        <ele>5.6</ele>
        <time>2020-06-02T17:08:12Z</time>
      </trkpt>
      <trkpt lat="46.34184" lon="-1.34433">
        <ele>5.6</ele>
        <time>2020-06-02T17:08:13Z</time>
      </trkpt>
      <trkpt lat="46.34184" lon="-1.34433">
        <ele>5.6</ele>
        <time>2020-06-02T17:08:14Z</time>
      </trkpt>
      <trkpt lat="46.34184" lon="-1.34433">
        <ele>5.6</ele>
        <time>2020-06-02T17:08:15Z</time>
      </trkpt>
      <trkpt lat="46.34184" lon="-1.34433">
        <ele>5.6</ele>
        <time>2020-06-02T17:08:16Z</time>
      </trkpt>
      <trkpt lat="46.34184" lon="-1.34433">
        <ele>5.6</ele>
        <time>2020-06-02T17:08:17Z</time>
      </trkpt>
      <trkpt lat="46.34184" lon="-1.34433">
        <ele>5.6</ele>
        <time>2020-06-02T17:08:18Z</time>
      </trkpt>
      <trkpt lat="46.34184" lon="-1.34433">
        <ele>5.6</ele>
        <time>2020-06-02T17:08:19Z</time>
      </trkpt>
      <trkpt lat="46.34184" lon="-1.34433">
        <ele>5.6</ele>
        <time>2020-06-02T17:08:20Z</time>
      </trkpt>
      <trkpt lat="46.34184" lon="-1.34433">
        <ele>5.6</ele>
        <time>2020-06-02T17:08:21Z</time>
      </trkpt>
      <trkpt lat="46.34184" lon="-1.34433">
        <ele>5.6</ele>
        <time>2020-06-02T17:08:22Z</time>
      </trkpt>
      <trkpt lat="46.34184" lon="-1.34433">
        <ele>5.6</ele>
        <time>2020-06-02T17:08:23Z</time>
      </trkpt>
      <trkpt lat="46.34184" lon="-1.34433">
        <ele>5.6</ele>
        <time>2020-06-02T17:08:24Z</time>
      </trkpt>
      <trkpt lat="46.34184" lon="-1.34434">
        <ele>5.6</ele>
        <time>2020-06-02T17:08:25Z</time>
      </trkpt>
      <trkpt lat="46.34184" lon="-1.34434">
        <ele>5.6</ele>
        <time>2020-06-02T17:08:26Z</time>
      </trkpt>
      <trkpt lat="46.34184" lon="-1.34434">
        <ele>5.6</ele>
        <time>2020-06-02T17:08:27Z</time>
      </trkpt>
      <trkpt lat="46.34184" lon="-1.34434">
        <ele>5.6</ele>
        <time>2020-06-02T17:08:28Z</time>
      </trkpt>
      <trkpt lat="46.34184" lon="-1.34434">
        <ele>5.6</ele>
        <time>2020-06-02T17:08:29Z</time>
      </trkpt>
      <trkpt lat="46.34184" lon="-1.34434">
        <ele>5.6</ele>
        <time>2020-06-02T17:08:30Z</time>
      </trkpt>
      <trkpt lat="46.34184" lon="-1.34434">
        <ele>5.6</ele>
        <time>2020-06-02T17:08:31Z</time>
      </trkpt>
      <trkpt lat="46.34185" lon="-1.34434">
        <ele>5.6</ele>
        <time>2020-06-02T17:08:32Z</time>
      </trkpt>
      <trkpt lat="46.34185" lon="-1.34434">
        <ele>5.6</ele>
        <time>2020-06-02T17:08:33Z</time>
      </trkpt>
      <trkpt lat="46.34185" lon="-1.34434">
        <ele>5.6</ele>
        <time>2020-06-02T17:08:34Z</time>
      </trkpt>
      <trkpt lat="46.34185" lon="-1.34434">
        <ele>5.6</ele>
        <time>2020-06-02T17:08:35Z</time>
      </trkpt>
      <trkpt lat="46.34184" lon="-1.34434">
        <ele>5.6</ele>
        <time>2020-06-02T17:08:36Z</time>
      </trkpt>
      <trkpt lat="46.34184" lon="-1.34434">
        <ele>5.6</ele>
        <time>2020-06-02T17:08:37Z</time>
      </trkpt>
      <trkpt lat="46.34184" lon="-1.34434">
        <ele>5.6</ele>
        <time>2020-06-02T17:08:38Z</time>
      </trkpt>
      <trkpt lat="46.34184" lon="-1.34434">
        <ele>5.6</ele>
        <time>2020-06-02T17:08:39Z</time>
      </trkpt>
      <trkpt lat="46.34184" lon="-1.34434">
        <ele>5.6</ele>
        <time>2020-06-02T17:08:40Z</time>
      </trkpt>
      <trkpt lat="46.34184" lon="-1.34434">
        <ele>5.6</ele>
        <time>2020-06-02T17:08:41Z</time>
      </trkpt>
      <trkpt lat="46.34184" lon="-1.34434">
        <ele>5.6</ele>
        <time>2020-06-02T17:08:42Z</time>
      </trkpt>
      <trkpt lat="46.34184" lon="-1.34434">
        <ele>5.6</ele>
        <time>2020-06-02T17:08:43Z</time>
      </trkpt>
      <trkpt lat="46.34184" lon="-1.34434">
        <ele>5.6</ele>
        <time>2020-06-02T17:08:44Z</time>
      </trkpt>
      <trkpt lat="46.34184" lon="-1.34434">
        <ele>5.6</ele>
        <time>2020-06-02T17:08:45Z</time>
      </trkpt>
      <trkpt lat="46.34184" lon="-1.34434">
        <ele>5.6</ele>
        <time>2020-06-02T17:08:46Z</time>
      </trkpt>
      <trkpt lat="46.34184" lon="-1.34434">
        <ele>5.6</ele>
        <time>2020-06-02T17:08:47Z</time>
      </trkpt>
      <trkpt lat="46.34184" lon="-1.34434">
        <ele>5.6</ele>
        <time>2020-06-02T17:08:48Z</time>
      </trkpt>
      <trkpt lat="46.34184" lon="-1.34434">
        <ele>5.6</ele>
        <time>2020-06-02T17:08:49Z</time>
      </trkpt>
      <trkpt lat="46.34184" lon="-1.34434">
        <ele>5.6</ele>
        <time>2020-06-02T17:08:50Z</time>
      </trkpt>
      <trkpt lat="46.34184" lon="-1.34434">
        <ele>5.6</ele>
        <time>2020-06-02T17:08:51Z</time>
      </trkpt>
      <trkpt lat="46.34184" lon="-1.34435">
        <ele>5.6</ele>
        <time>2020-06-02T17:08:52Z</time>
      </trkpt>
      <trkpt lat="46.34184" lon="-1.34435">
        <ele>5.6</ele>
        <time>2020-06-02T17:08:53Z</time>
      </trkpt>
      <trkpt lat="46.34184" lon="-1.34435">
        <ele>5.6</ele>
        <time>2020-06-02T17:08:54Z</time>
      </trkpt>
      <trkpt lat="46.34184" lon="-1.34435">
        <ele>5.6</ele>
        <time>2020-06-02T17:08:55Z</time>
      </trkpt>
      <trkpt lat="46.34184" lon="-1.34435">
        <ele>5.6</ele>
        <time>2020-06-02T17:08:56Z</time>
      </trkpt>
      <trkpt lat="46.34184" lon="-1.34435">
        <ele>5.6</ele>
        <time>2020-06-02T17:08:57Z</time>
      </trkpt>
      <trkpt lat="46.34184" lon="-1.34435">
        <ele>5.6</ele>
        <time>2020-06-02T17:08:58Z</time>
      </trkpt>
      <trkpt lat="46.34184" lon="-1.34435">
        <ele>5.6</ele>
        <time>2020-06-02T17:08:59Z</time>
      </trkpt>
      <trkpt lat="46.34184" lon="-1.34435">
        <ele>5.6</ele>
        <time>2020-06-02T17:09:00Z</time>
      </trkpt>
      <trkpt lat="46.34184" lon="-1.34435">
        <ele>5.6</ele>
        <time>2020-06-02T17:09:01Z</time>
      </trkpt>
      <trkpt lat="46.34184" lon="-1.34434">
        <ele>5.6</ele>
        <time>2020-06-02T17:09:02Z</time>
      </trkpt>
      <trkpt lat="46.34184" lon="-1.34435">
        <ele>5.6</ele>
        <time>2020-06-02T17:09:03Z</time>
      </trkpt>
      <trkpt lat="46.34184" lon="-1.34434">
        <ele>5.6</ele>
        <time>2020-06-02T17:09:04Z</time>
      </trkpt>
      <trkpt lat="46.34184" lon="-1.34434">
        <ele>5.6</ele>
        <time>2020-06-02T17:09:05Z</time>
      </trkpt>
      <trkpt lat="46.34184" lon="-1.34434">
        <ele>5.6</ele>
        <time>2020-06-02T17:09:06Z</time>
      </trkpt>
      <trkpt lat="46.34184" lon="-1.34435">
        <ele>5.6</ele>
        <time>2020-06-02T17:09:07Z</time>
      </trkpt>
      <trkpt lat="46.34184" lon="-1.34435">
        <ele>5.6</ele>
        <time>2020-06-02T17:09:08Z</time>
      </trkpt>
      <trkpt lat="46.34184" lon="-1.34434">
        <ele>5.6</ele>
        <time>2020-06-02T17:09:09Z</time>
      </trkpt>
      <trkpt lat="46.34184" lon="-1.34434">
        <ele>5.6</ele>
        <time>2020-06-02T17:09:10Z</time>
      </trkpt>
      <trkpt lat="46.34184" lon="-1.34435">
        <ele>5.6</ele>
        <time>2020-06-02T17:09:11Z</time>
      </trkpt>
      <trkpt lat="46.34184" lon="-1.34435">
        <ele>5.6</ele>
        <time>2020-06-02T17:09:12Z</time>
      </trkpt>
      <trkpt lat="46.34184" lon="-1.34435">
        <ele>5.6</ele>
        <time>2020-06-02T17:09:13Z</time>
      </trkpt>
      <trkpt lat="46.34184" lon="-1.34435">
        <ele>5.6</ele>
        <time>2020-06-02T17:09:14Z</time>
      </trkpt>
      <trkpt lat="46.34184" lon="-1.34435">
        <ele>5.6</ele>
        <time>2020-06-02T17:09:15Z</time>
      </trkpt>
      <trkpt lat="46.34184" lon="-1.34435">
        <ele>5.6</ele>
        <time>2020-06-02T17:09:16Z</time>
      </trkpt>
      <trkpt lat="46.34184" lon="-1.34435">
        <ele>5.6</ele>
        <time>2020-06-02T17:09:17Z</time>
      </trkpt>
      <trkpt lat="46.34184" lon="-1.34435">
        <ele>5.6</ele>
        <time>2020-06-02T17:09:18Z</time>
      </trkpt>
      <trkpt lat="46.34184" lon="-1.34435">
        <ele>5.6</ele>
        <time>2020-06-02T17:09:19Z</time>
      </trkpt>
      <trkpt lat="46.34184" lon="-1.34435">
        <ele>5.6</ele>
        <time>2020-06-02T17:09:20Z</time>
      </trkpt>
      <trkpt lat="46.34184" lon="-1.34435">
        <ele>5.6</ele>
        <time>2020-06-02T17:09:21Z</time>
      </trkpt>
      <trkpt lat="46.34184" lon="-1.34435">
        <ele>5.6</ele>
        <time>2020-06-02T17:09:22Z</time>
      </trkpt>
      <trkpt lat="46.34184" lon="-1.34435">
        <ele>5.6</ele>
        <time>2020-06-02T17:09:23Z</time>
      </trkpt>
      <trkpt lat="46.34184" lon="-1.34435">
        <ele>5.6</ele>
        <time>2020-06-02T17:09:24Z</time>
      </trkpt>
      <trkpt lat="46.34184" lon="-1.34434">
        <ele>5.6</ele>
        <time>2020-06-02T17:09:25Z</time>
      </trkpt>
      <trkpt lat="46.34184" lon="-1.34434">
        <ele>5.6</ele>
        <time>2020-06-02T17:09:26Z</time>
      </trkpt>
      <trkpt lat="46.34184" lon="-1.34434">
        <ele>5.6</ele>
        <time>2020-06-02T17:09:27Z</time>
      </trkpt>
      <trkpt lat="46.34184" lon="-1.34434">
        <ele>5.6</ele>
        <time>2020-06-02T17:09:28Z</time>
      </trkpt>
      <trkpt lat="46.34185" lon="-1.34434">
        <ele>5.6</ele>
        <time>2020-06-02T17:09:29Z</time>
      </trkpt>
      <trkpt lat="46.34185" lon="-1.34434">
        <ele>5.6</ele>
        <time>2020-06-02T17:09:30Z</time>
      </trkpt>
      <trkpt lat="46.34185" lon="-1.34434">
        <ele>5.6</ele>
        <time>2020-06-02T17:09:31Z</time>
      </trkpt>
      <trkpt lat="46.34185" lon="-1.34434">
        <ele>5.6</ele>
        <time>2020-06-02T17:09:32Z</time>
      </trkpt>
      <trkpt lat="46.34185" lon="-1.34434">
        <ele>5.6</ele>
        <time>2020-06-02T17:09:33Z</time>
      </trkpt>
      <trkpt lat="46.34185" lon="-1.34435">
        <ele>5.6</ele>
        <time>2020-06-02T17:09:34Z</time>
      </trkpt>
      <trkpt lat="46.34185" lon="-1.34435">
        <ele>5.6</ele>
        <time>2020-06-02T17:09:35Z</time>
      </trkpt>
      <trkpt lat="46.34185" lon="-1.34435">
        <ele>5.6</ele>
        <time>2020-06-02T17:09:36Z</time>
      </trkpt>
      <trkpt lat="46.34185" lon="-1.34435">
        <ele>5.6</ele>
        <time>2020-06-02T17:09:37Z</time>
      </trkpt>
      <trkpt lat="46.34185" lon="-1.34435">
        <ele>5.6</ele>
        <time>2020-06-02T17:09:38Z</time>
      </trkpt>
      <trkpt lat="46.34185" lon="-1.34435">
        <ele>5.6</ele>
        <time>2020-06-02T17:09:39Z</time>
      </trkpt>
      <trkpt lat="46.34185" lon="-1.34435">
        <ele>5.6</ele>
        <time>2020-06-02T17:09:40Z</time>
      </trkpt>
      <trkpt lat="46.34185" lon="-1.34435">
        <ele>5.6</ele>
        <time>2020-06-02T17:09:41Z</time>
      </trkpt>
      <trkpt lat="46.34185" lon="-1.34435">
        <ele>5.6</ele>
        <time>2020-06-02T17:09:42Z</time>
      </trkpt>
      <trkpt lat="46.34185" lon="-1.34435">
        <ele>5.6</ele>
        <time>2020-06-02T17:09:43Z</time>
      </trkpt>
      <trkpt lat="46.34185" lon="-1.34435">
        <ele>5.6</ele>
        <time>2020-06-02T17:09:44Z</time>
      </trkpt>
      <trkpt lat="46.34185" lon="-1.34435">
        <ele>5.6</ele>
        <time>2020-06-02T17:09:45Z</time>
      </trkpt>
      <trkpt lat="46.34185" lon="-1.34435">
        <ele>5.6</ele>
        <time>2020-06-02T17:09:46Z</time>
      </trkpt>
      <trkpt lat="46.34185" lon="-1.34435">
        <ele>5.6</ele>
        <time>2020-06-02T17:09:47Z</time>
      </trkpt>
      <trkpt lat="46.34185" lon="-1.34435">
        <ele>5.6</ele>
        <time>2020-06-02T17:09:48Z</time>
      </trkpt>
      <trkpt lat="46.34185" lon="-1.34435">
        <ele>5.6</ele>
        <time>2020-06-02T17:09:49Z</time>
      </trkpt>
      <trkpt lat="46.34185" lon="-1.34435">
        <ele>5.6</ele>
        <time>2020-06-02T17:09:50Z</time>
      </trkpt>
      <trkpt lat="46.34185" lon="-1.34435">
        <ele>5.6</ele>
        <time>2020-06-02T17:09:51Z</time>
      </trkpt>
      <trkpt lat="46.34185" lon="-1.34434">
        <ele>5.6</ele>
        <time>2020-06-02T17:09:52Z</time>
      </trkpt>
      <trkpt lat="46.34185" lon="-1.34434">
        <ele>5.6</ele>
        <time>2020-06-02T17:09:53Z</time>
      </trkpt>
      <trkpt lat="46.34185" lon="-1.34434">
        <ele>5.6</ele>
        <time>2020-06-02T17:09:54Z</time>
      </trkpt>
      <trkpt lat="46.34185" lon="-1.34434">
        <ele>5.6</ele>
        <time>2020-06-02T17:09:55Z</time>
      </trkpt>
      <trkpt lat="46.34185" lon="-1.34434">
        <ele>5.6</ele>
        <time>2020-06-02T17:09:56Z</time>
      </trkpt>
      <trkpt lat="46.34185" lon="-1.34434">
        <ele>5.6</ele>
        <time>2020-06-02T17:09:57Z</time>
      </trkpt>
      <trkpt lat="46.34185" lon="-1.34434">
        <ele>5.6</ele>
        <time>2020-06-02T17:09:58Z</time>
      </trkpt>
      <trkpt lat="46.34185" lon="-1.34434">
        <ele>5.6</ele>
        <time>2020-06-02T17:09:59Z</time>
      </trkpt>
      <trkpt lat="46.34185" lon="-1.34434">
        <ele>5.6</ele>
        <time>2020-06-02T17:10:00Z</time>
      </trkpt>
      <trkpt lat="46.34185" lon="-1.34434">
        <ele>5.6</ele>
        <time>2020-06-02T17:10:01Z</time>
      </trkpt>
      <trkpt lat="46.34185" lon="-1.34434">
        <ele>5.6</ele>
        <time>2020-06-02T17:10:02Z</time>
      </trkpt>
      <trkpt lat="46.34185" lon="-1.34434">
        <ele>5.6</ele>
        <time>2020-06-02T17:10:03Z</time>
      </trkpt>
      <trkpt lat="46.34185" lon="-1.34434">
        <ele>5.6</ele>
        <time>2020-06-02T17:10:04Z</time>
      </trkpt>
      <trkpt lat="46.34185" lon="-1.34434">
        <ele>5.6</ele>
        <time>2020-06-02T17:10:05Z</time>
      </trkpt>
      <trkpt lat="46.34185" lon="-1.34434">
        <ele>5.6</ele>
        <time>2020-06-02T17:10:06Z</time>
      </trkpt>
      <trkpt lat="46.34185" lon="-1.34434">
        <ele>5.6</ele>
        <time>2020-06-02T17:10:07Z</time>
      </trkpt>
      <trkpt lat="46.34185" lon="-1.34434">
        <ele>5.6</ele>
        <time>2020-06-02T17:10:08Z</time>
      </trkpt>
      <trkpt lat="46.34185" lon="-1.34434">
        <ele>5.6</ele>
        <time>2020-06-02T17:10:09Z</time>
      </trkpt>
      <trkpt lat="46.34185" lon="-1.34435">
        <ele>5.6</ele>
        <time>2020-06-02T17:10:10Z</time>
      </trkpt>
      <trkpt lat="46.34185" lon="-1.34435">
        <ele>5.6</ele>
        <time>2020-06-02T17:10:11Z</time>
      </trkpt>
      <trkpt lat="46.34185" lon="-1.34435">
        <ele>5.6</ele>
        <time>2020-06-02T17:10:12Z</time>
      </trkpt>
      <trkpt lat="46.34185" lon="-1.34435">
        <ele>5.6</ele>
        <time>2020-06-02T17:10:13Z</time>
      </trkpt>
      <trkpt lat="46.34185" lon="-1.34435">
        <ele>5.6</ele>
        <time>2020-06-02T17:10:14Z</time>
      </trkpt>
      <trkpt lat="46.34185" lon="-1.34435">
        <ele>5.6</ele>
        <time>2020-06-02T17:10:15Z</time>
      </trkpt>
      <trkpt lat="46.34185" lon="-1.34435">
        <ele>5.6</ele>
        <time>2020-06-02T17:10:16Z</time>
      </trkpt>
      <trkpt lat="46.34185" lon="-1.34435">
        <ele>5.6</ele>
        <time>2020-06-02T17:10:17Z</time>
      </trkpt>
      <trkpt lat="46.34185" lon="-1.34435">
        <ele>5.6</ele>
        <time>2020-06-02T17:10:18Z</time>
      </trkpt>
      <trkpt lat="46.34185" lon="-1.34435">
        <ele>5.6</ele>
        <time>2020-06-02T17:10:19Z</time>
      </trkpt>
      <trkpt lat="46.34185" lon="-1.34434">
        <ele>5.6</ele>
        <time>2020-06-02T17:10:20Z</time>
      </trkpt>
      <trkpt lat="46.34185" lon="-1.34434">
        <ele>5.6</ele>
        <time>2020-06-02T17:10:21Z</time>
      </trkpt>
      <trkpt lat="46.34185" lon="-1.34434">
        <ele>5.6</ele>
        <time>2020-06-02T17:10:22Z</time>
      </trkpt>
      <trkpt lat="46.34185" lon="-1.34435">
        <ele>5.6</ele>
        <time>2020-06-02T17:10:23Z</time>
      </trkpt>
      <trkpt lat="46.34185" lon="-1.34435">
        <ele>5.6</ele>
        <time>2020-06-02T17:10:24Z</time>
      </trkpt>
      <trkpt lat="46.34185" lon="-1.34435">
        <ele>5.6</ele>
        <time>2020-06-02T17:10:25Z</time>
      </trkpt>
      <trkpt lat="46.34185" lon="-1.34435">
        <ele>5.6</ele>
        <time>2020-06-02T17:10:26Z</time>
      </trkpt>
      <trkpt lat="46.34185" lon="-1.34435">
        <ele>5.6</ele>
        <time>2020-06-02T17:10:27Z</time>
      </trkpt>
      <trkpt lat="46.34185" lon="-1.34435">
        <ele>5.6</ele>
        <time>2020-06-02T17:10:28Z</time>
      </trkpt>
      <trkpt lat="46.34185" lon="-1.34435">
        <ele>5.6</ele>
        <time>2020-06-02T17:10:29Z</time>
      </trkpt>
      <trkpt lat="46.34185" lon="-1.34435">
        <ele>5.6</ele>
        <time>2020-06-02T17:10:30Z</time>
      </trkpt>
      <trkpt lat="46.34185" lon="-1.34435">
        <ele>5.7</ele>
        <time>2020-06-02T17:10:31Z</time>
      </trkpt>
      <trkpt lat="46.34185" lon="-1.34435">
        <ele>5.7</ele>
        <time>2020-06-02T17:10:32Z</time>
      </trkpt>
      <trkpt lat="46.34185" lon="-1.34435">
        <ele>5.7</ele>
        <time>2020-06-02T17:10:33Z</time>
      </trkpt>
      <trkpt lat="46.34185" lon="-1.34434">
        <ele>5.7</ele>
        <time>2020-06-02T17:10:34Z</time>
      </trkpt>
      <trkpt lat="46.34185" lon="-1.34434">
        <ele>5.7</ele>
        <time>2020-06-02T17:10:35Z</time>
      </trkpt>
      <trkpt lat="46.34185" lon="-1.34434">
        <ele>5.7</ele>
        <time>2020-06-02T17:10:36Z</time>
      </trkpt>
      <trkpt lat="46.34185" lon="-1.34434">
        <ele>5.7</ele>
        <time>2020-06-02T17:10:37Z</time>
      </trkpt>
      <trkpt lat="46.34185" lon="-1.34434">
        <ele>5.7</ele>
        <time>2020-06-02T17:10:38Z</time>
      </trkpt>
      <trkpt lat="46.34185" lon="-1.34434">
        <ele>5.7</ele>
        <time>2020-06-02T17:10:39Z</time>
      </trkpt>
      <trkpt lat="46.34185" lon="-1.34434">
        <ele>5.7</ele>
        <time>2020-06-02T17:10:40Z</time>
      </trkpt>
      <trkpt lat="46.34185" lon="-1.34434">
        <ele>5.7</ele>
        <time>2020-06-02T17:10:41Z</time>
      </trkpt>
      <trkpt lat="46.34185" lon="-1.34434">
        <ele>5.7</ele>
        <time>2020-06-02T17:10:42Z</time>
      </trkpt>
      <trkpt lat="46.34185" lon="-1.34434">
        <ele>5.7</ele>
        <time>2020-06-02T17:10:43Z</time>
      </trkpt>
      <trkpt lat="46.34185" lon="-1.34433">
        <ele>5.7</ele>
        <time>2020-06-02T17:10:44Z</time>
      </trkpt>
      <trkpt lat="46.34186" lon="-1.34433">
        <ele>5.7</ele>
        <time>2020-06-02T17:10:45Z</time>
      </trkpt>
      <trkpt lat="46.34186" lon="-1.34433">
        <ele>5.7</ele>
        <time>2020-06-02T17:10:46Z</time>
      </trkpt>
      <trkpt lat="46.34186" lon="-1.34433">
        <ele>5.7</ele>
        <time>2020-06-02T17:10:47Z</time>
      </trkpt>
      <trkpt lat="46.34187" lon="-1.34433">
        <ele>5.7</ele>
        <time>2020-06-02T17:10:48Z</time>
      </trkpt>
      <trkpt lat="46.34187" lon="-1.34433">
        <ele>5.7</ele>
        <time>2020-06-02T17:10:49Z</time>
      </trkpt>
      <trkpt lat="46.34186" lon="-1.34433">
        <ele>5.7</ele>
        <time>2020-06-02T17:10:50Z</time>
      </trkpt>
      <trkpt lat="46.34186" lon="-1.34433">
        <ele>5.7</ele>
        <time>2020-06-02T17:10:51Z</time>
      </trkpt>
      <trkpt lat="46.34186" lon="-1.34433">
        <ele>5.7</ele>
        <time>2020-06-02T17:10:52Z</time>
      </trkpt>
      <trkpt lat="46.34186" lon="-1.34433">
        <ele>5.7</ele>
        <time>2020-06-02T17:10:53Z</time>
      </trkpt>
      <trkpt lat="46.34186" lon="-1.34433">
        <ele>5.7</ele>
        <time>2020-06-02T17:10:54Z</time>
      </trkpt>
      <trkpt lat="46.34186" lon="-1.34433">
        <ele>5.7</ele>
        <time>2020-06-02T17:10:55Z</time>
      </trkpt>
      <trkpt lat="46.34186" lon="-1.34433">
        <ele>5.7</ele>
        <time>2020-06-02T17:10:56Z</time>
      </trkpt>
      <trkpt lat="46.34186" lon="-1.34433">
        <ele>5.7</ele>
        <time>2020-06-02T17:10:57Z</time>
      </trkpt>
      <trkpt lat="46.34186" lon="-1.34433">
        <ele>5.7</ele>
        <time>2020-06-02T17:10:58Z</time>
      </trkpt>
      <trkpt lat="46.34186" lon="-1.34433">
        <ele>5.7</ele>
        <time>2020-06-02T17:10:59Z</time>
      </trkpt>
      <trkpt lat="46.34186" lon="-1.34433">
        <ele>5.7</ele>
        <time>2020-06-02T17:11:00Z</time>
      </trkpt>
      <trkpt lat="46.34186" lon="-1.34433">
        <ele>5.7</ele>
        <time>2020-06-02T17:11:01Z</time>
      </trkpt>
      <trkpt lat="46.34186" lon="-1.34433">
        <ele>5.7</ele>
        <time>2020-06-02T17:11:02Z</time>
      </trkpt>
      <trkpt lat="46.34186" lon="-1.34433">
        <ele>5.7</ele>
        <time>2020-06-02T17:11:03Z</time>
      </trkpt>
      <trkpt lat="46.34186" lon="-1.34433">
        <ele>5.7</ele>
        <time>2020-06-02T17:11:04Z</time>
      </trkpt>
      <trkpt lat="46.34185" lon="-1.34434">
        <ele>5.7</ele>
        <time>2020-06-02T17:11:05Z</time>
      </trkpt>
      <trkpt lat="46.34185" lon="-1.34433">
        <ele>5.7</ele>
        <time>2020-06-02T17:11:06Z</time>
      </trkpt>
      <trkpt lat="46.34185" lon="-1.34434">
        <ele>5.7</ele>
        <time>2020-06-02T17:11:07Z</time>
      </trkpt>
      <trkpt lat="46.34185" lon="-1.34435">
        <ele>5.7</ele>
        <time>2020-06-02T17:11:08Z</time>
      </trkpt>
      <trkpt lat="46.34184" lon="-1.34435">
        <ele>5.7</ele>
        <time>2020-06-02T17:11:09Z</time>
      </trkpt>
      <trkpt lat="46.34184" lon="-1.34436">
        <ele>5.7</ele>
        <time>2020-06-02T17:11:10Z</time>
      </trkpt>
      <trkpt lat="46.34184" lon="-1.34435">
        <ele>5.7</ele>
        <time>2020-06-02T17:11:11Z</time>
      </trkpt>
      <trkpt lat="46.34184" lon="-1.34435">
        <ele>5.7</ele>
        <time>2020-06-02T17:11:12Z</time>
      </trkpt>
      <trkpt lat="46.34184" lon="-1.34435">
        <ele>5.7</ele>
        <time>2020-06-02T17:11:13Z</time>
      </trkpt>
      <trkpt lat="46.34184" lon="-1.34435">
        <ele>5.7</ele>
        <time>2020-06-02T17:11:14Z</time>
      </trkpt>
      <trkpt lat="46.34184" lon="-1.34435">
        <ele>5.7</ele>
        <time>2020-06-02T17:11:15Z</time>
      </trkpt>
      <trkpt lat="46.34184" lon="-1.34435">
        <ele>5.7</ele>
        <time>2020-06-02T17:11:16Z</time>
      </trkpt>
      <trkpt lat="46.34184" lon="-1.34435">
        <ele>5.7</ele>
        <time>2020-06-02T17:11:17Z</time>
      </trkpt>
      <trkpt lat="46.34184" lon="-1.34434">
        <ele>5.7</ele>
        <time>2020-06-02T17:11:18Z</time>
      </trkpt>
      <trkpt lat="46.34185" lon="-1.34434">
        <ele>5.7</ele>
        <time>2020-06-02T17:11:19Z</time>
      </trkpt>
      <trkpt lat="46.34185" lon="-1.34434">
        <ele>5.7</ele>
        <time>2020-06-02T17:11:20Z</time>
      </trkpt>
      <trkpt lat="46.34186" lon="-1.34434">
        <ele>5.7</ele>
        <time>2020-06-02T17:11:21Z</time>
      </trkpt>
      <trkpt lat="46.34186" lon="-1.34434">
        <ele>5.7</ele>
        <time>2020-06-02T17:11:22Z</time>
      </trkpt>
      <trkpt lat="46.34186" lon="-1.34434">
        <ele>5.7</ele>
        <time>2020-06-02T17:11:23Z</time>
      </trkpt>
      <trkpt lat="46.34186" lon="-1.34434">
        <ele>5.7</ele>
        <time>2020-06-02T17:11:24Z</time>
      </trkpt>
      <trkpt lat="46.34186" lon="-1.34434">
        <ele>5.7</ele>
        <time>2020-06-02T17:11:25Z</time>
      </trkpt>
      <trkpt lat="46.34186" lon="-1.34434">
        <ele>5.7</ele>
        <time>2020-06-02T17:11:26Z</time>
      </trkpt>
      <trkpt lat="46.34186" lon="-1.34434">
        <ele>5.7</ele>
        <time>2020-06-02T17:11:27Z</time>
      </trkpt>
      <trkpt lat="46.34186" lon="-1.34434">
        <ele>5.7</ele>
        <time>2020-06-02T17:11:28Z</time>
      </trkpt>
      <trkpt lat="46.34186" lon="-1.34435">
        <ele>5.7</ele>
        <time>2020-06-02T17:11:29Z</time>
      </trkpt>
      <trkpt lat="46.34186" lon="-1.34435">
        <ele>5.7</ele>
        <time>2020-06-02T17:11:30Z</time>
      </trkpt>
      <trkpt lat="46.34186" lon="-1.34435">
        <ele>5.7</ele>
        <time>2020-06-02T17:11:31Z</time>
      </trkpt>
      <trkpt lat="46.34186" lon="-1.34435">
        <ele>5.7</ele>
        <time>2020-06-02T17:11:32Z</time>
      </trkpt>
      <trkpt lat="46.34186" lon="-1.34435">
        <ele>5.7</ele>
        <time>2020-06-02T17:11:33Z</time>
      </trkpt>
      <trkpt lat="46.34186" lon="-1.34435">
        <ele>5.7</ele>
        <time>2020-06-02T17:11:34Z</time>
      </trkpt>
      <trkpt lat="46.34185" lon="-1.34435">
        <ele>5.7</ele>
        <time>2020-06-02T17:11:35Z</time>
      </trkpt>
      <trkpt lat="46.34185" lon="-1.34435">
        <ele>5.7</ele>
        <time>2020-06-02T17:11:36Z</time>
      </trkpt>
      <trkpt lat="46.34185" lon="-1.34435">
        <ele>5.7</ele>
        <time>2020-06-02T17:11:37Z</time>
      </trkpt>
      <trkpt lat="46.34185" lon="-1.34435">
        <ele>5.7</ele>
        <time>2020-06-02T17:11:38Z</time>
      </trkpt>
      <trkpt lat="46.34185" lon="-1.34435">
        <ele>5.7</ele>
        <time>2020-06-02T17:11:39Z</time>
      </trkpt>
      <trkpt lat="46.34185" lon="-1.34435">
        <ele>5.7</ele>
        <time>2020-06-02T17:11:40Z</time>
      </trkpt>
      <trkpt lat="46.34185" lon="-1.34435">
        <ele>5.7</ele>
        <time>2020-06-02T17:11:41Z</time>
      </trkpt>
      <trkpt lat="46.34185" lon="-1.34435">
        <ele>5.7</ele>
        <time>2020-06-02T17:11:42Z</time>
      </trkpt>
      <trkpt lat="46.34185" lon="-1.34435">
        <ele>5.7</ele>
        <time>2020-06-02T17:11:43Z</time>
      </trkpt>
      <trkpt lat="46.34185" lon="-1.34435">
        <ele>5.7</ele>
        <time>2020-06-02T17:11:44Z</time>
      </trkpt>
      <trkpt lat="46.34185" lon="-1.34435">
        <ele>5.7</ele>
        <time>2020-06-02T17:11:45Z</time>
      </trkpt>
      <trkpt lat="46.34185" lon="-1.34435">
        <ele>5.7</ele>
        <time>2020-06-02T17:11:46Z</time>
      </trkpt>
      <trkpt lat="46.34185" lon="-1.34435">
        <ele>5.7</ele>
        <time>2020-06-02T17:11:47Z</time>
      </trkpt>
      <trkpt lat="46.34185" lon="-1.34435">
        <ele>5.7</ele>
        <time>2020-06-02T17:11:48Z</time>
      </trkpt>
      <trkpt lat="46.34185" lon="-1.34435">
        <ele>5.7</ele>
        <time>2020-06-02T17:11:49Z</time>
      </trkpt>
      <trkpt lat="46.34185" lon="-1.34435">
        <ele>5.7</ele>
        <time>2020-06-02T17:11:50Z</time>
      </trkpt>
      <trkpt lat="46.34185" lon="-1.34435">
        <ele>5.7</ele>
        <time>2020-06-02T17:11:51Z</time>
      </trkpt>
      <trkpt lat="46.34185" lon="-1.34435">
        <ele>5.7</ele>
        <time>2020-06-02T17:11:52Z</time>
      </trkpt>
      <trkpt lat="46.34185" lon="-1.34435">
        <ele>5.7</ele>
        <time>2020-06-02T17:11:53Z</time>
      </trkpt>
      <trkpt lat="46.34185" lon="-1.34435">
        <ele>5.7</ele>
        <time>2020-06-02T17:11:54Z</time>
      </trkpt>
      <trkpt lat="46.34185" lon="-1.34435">
        <ele>5.7</ele>
        <time>2020-06-02T17:11:55Z</time>
      </trkpt>
      <trkpt lat="46.34185" lon="-1.34435">
        <ele>5.7</ele>
        <time>2020-06-02T17:11:56Z</time>
      </trkpt>
      <trkpt lat="46.34186" lon="-1.34436">
        <ele>5.7</ele>
        <time>2020-06-02T17:11:57Z</time>
      </trkpt>
      <trkpt lat="46.34186" lon="-1.34437">
        <ele>5.7</ele>
        <time>2020-06-02T17:11:58Z</time>
      </trkpt>
      <trkpt lat="46.34186" lon="-1.34438">
        <ele>5.8</ele>
        <time>2020-06-02T17:11:59Z</time>
      </trkpt>
      <trkpt lat="46.34186" lon="-1.34438">
        <ele>5.8</ele>
        <time>2020-06-02T17:12:00Z</time>
      </trkpt>
      <trkpt lat="46.34186" lon="-1.34438">
        <ele>5.8</ele>
        <time>2020-06-02T17:12:01Z</time>
      </trkpt>
      <trkpt lat="46.34186" lon="-1.34438">
        <ele>5.8</ele>
        <time>2020-06-02T17:12:02Z</time>
      </trkpt>
      <trkpt lat="46.34186" lon="-1.34439">
        <ele>5.8</ele>
        <time>2020-06-02T17:12:03Z</time>
      </trkpt>
      <trkpt lat="46.34186" lon="-1.34439">
        <ele>5.8</ele>
        <time>2020-06-02T17:12:04Z</time>
      </trkpt>
      <trkpt lat="46.34186" lon="-1.34439">
        <ele>5.8</ele>
        <time>2020-06-02T17:12:05Z</time>
      </trkpt>
      <trkpt lat="46.34186" lon="-1.34439">
        <ele>5.8</ele>
        <time>2020-06-02T17:12:06Z</time>
      </trkpt>
      <trkpt lat="46.34186" lon="-1.3444">
        <ele>5.8</ele>
        <time>2020-06-02T17:12:07Z</time>
      </trkpt>
      <trkpt lat="46.34186" lon="-1.3444">
        <ele>5.8</ele>
        <time>2020-06-02T17:12:08Z</time>
      </trkpt>
      <trkpt lat="46.34187" lon="-1.3444">
        <ele>5.8</ele>
        <time>2020-06-02T17:12:09Z</time>
      </trkpt>
      <trkpt lat="46.34187" lon="-1.3444">
        <ele>5.8</ele>
        <time>2020-06-02T17:12:10Z</time>
      </trkpt>
      <trkpt lat="46.34187" lon="-1.3444">
        <ele>5.8</ele>
        <time>2020-06-02T17:12:11Z</time>
      </trkpt>
      <trkpt lat="46.34187" lon="-1.34441">
        <ele>5.8</ele>
        <time>2020-06-02T17:12:12Z</time>
      </trkpt>
      <trkpt lat="46.34187" lon="-1.34441">
        <ele>5.8</ele>
        <time>2020-06-02T17:12:13Z</time>
      </trkpt>
      <trkpt lat="46.34187" lon="-1.34441">
        <ele>5.8</ele>
        <time>2020-06-02T17:12:14Z</time>
      </trkpt>
      <trkpt lat="46.34187" lon="-1.34441">
        <ele>5.8</ele>
        <time>2020-06-02T17:12:15Z</time>
      </trkpt>
      <trkpt lat="46.34187" lon="-1.34441">
        <ele>5.8</ele>
        <time>2020-06-02T17:12:16Z</time>
      </trkpt>
      <trkpt lat="46.34187" lon="-1.34442">
        <ele>5.8</ele>
        <time>2020-06-02T17:12:17Z</time>
      </trkpt>
      <trkpt lat="46.34187" lon="-1.34442">
        <ele>5.8</ele>
        <time>2020-06-02T17:12:18Z</time>
      </trkpt>
      <trkpt lat="46.34187" lon="-1.34442">
        <ele>5.8</ele>
        <time>2020-06-02T17:12:19Z</time>
      </trkpt>
      <trkpt lat="46.34187" lon="-1.34442">
        <ele>5.8</ele>
        <time>2020-06-02T17:12:20Z</time>
      </trkpt>
      <trkpt lat="46.34187" lon="-1.34442">
        <ele>5.8</ele>
        <time>2020-06-02T17:12:21Z</time>
      </trkpt>
      <trkpt lat="46.34187" lon="-1.34443">
        <ele>5.8</ele>
        <time>2020-06-02T17:12:22Z</time>
      </trkpt>
      <trkpt lat="46.34187" lon="-1.34443">
        <ele>5.8</ele>
        <time>2020-06-02T17:12:23Z</time>
      </trkpt>
      <trkpt lat="46.34187" lon="-1.34443">
        <ele>5.8</ele>
        <time>2020-06-02T17:12:24Z</time>
      </trkpt>
      <trkpt lat="46.34187" lon="-1.34443">
        <ele>5.8</ele>
        <time>2020-06-02T17:12:25Z</time>
      </trkpt>
      <trkpt lat="46.34187" lon="-1.34444">
        <ele>5.8</ele>
        <time>2020-06-02T17:12:26Z</time>
      </trkpt>
      <trkpt lat="46.34187" lon="-1.34444">
        <ele>5.8</ele>
        <time>2020-06-02T17:12:27Z</time>
      </trkpt>
      <trkpt lat="46.34187" lon="-1.34444">
        <ele>5.8</ele>
        <time>2020-06-02T17:12:28Z</time>
      </trkpt>
      <trkpt lat="46.34187" lon="-1.34444">
        <ele>5.8</ele>
        <time>2020-06-02T17:12:29Z</time>
      </trkpt>
      <trkpt lat="46.34187" lon="-1.34444">
        <ele>5.8</ele>
        <time>2020-06-02T17:12:30Z</time>
      </trkpt>
      <trkpt lat="46.34187" lon="-1.34445">
        <ele>5.8</ele>
        <time>2020-06-02T17:12:31Z</time>
      </trkpt>
      <trkpt lat="46.34187" lon="-1.34445">
        <ele>5.8</ele>
        <time>2020-06-02T17:12:32Z</time>
      </trkpt>
      <trkpt lat="46.34187" lon="-1.34445">
        <ele>5.8</ele>
        <time>2020-06-02T17:12:33Z</time>
      </trkpt>
      <trkpt lat="46.34187" lon="-1.34445">
        <ele>5.8</ele>
        <time>2020-06-02T17:12:34Z</time>
      </trkpt>
      <trkpt lat="46.34187" lon="-1.34445">
        <ele>5.8</ele>
        <time>2020-06-02T17:12:35Z</time>
      </trkpt>
      <trkpt lat="46.34187" lon="-1.34446">
        <ele>5.8</ele>
        <time>2020-06-02T17:12:36Z</time>
      </trkpt>
      <trkpt lat="46.34188" lon="-1.34446">
        <ele>5.8</ele>
        <time>2020-06-02T17:12:37Z</time>
      </trkpt>
      <trkpt lat="46.34188" lon="-1.34446">
        <ele>5.8</ele>
        <time>2020-06-02T17:12:38Z</time>
      </trkpt>
      <trkpt lat="46.34188" lon="-1.34446">
        <ele>5.8</ele>
        <time>2020-06-02T17:12:39Z</time>
      </trkpt>
      <trkpt lat="46.34188" lon="-1.34446">
        <ele>5.8</ele>
        <time>2020-06-02T17:12:40Z</time>
      </trkpt>
      <trkpt lat="46.34188" lon="-1.34447">
        <ele>5.8</ele>
        <time>2020-06-02T17:12:41Z</time>
      </trkpt>
      <trkpt lat="46.3419" lon="-1.34453">
        <ele>5.8</ele>
        <time>2020-06-02T17:12:42Z</time>
      </trkpt>
      <trkpt lat="46.34192" lon="-1.3446">
        <ele>5.8</ele>
        <time>2020-06-02T17:12:43Z</time>
      </trkpt>
      <trkpt lat="46.34193" lon="-1.34465">
        <ele>5.9</ele>
        <time>2020-06-02T17:12:44Z</time>
      </trkpt>
      <trkpt lat="46.34195" lon="-1.3447">
        <ele>5.9</ele>
        <time>2020-06-02T17:12:45Z</time>
      </trkpt>
      <trkpt lat="46.34198" lon="-1.34474">
        <ele>5.9</ele>
        <time>2020-06-02T17:12:46Z</time>
      </trkpt>
      <trkpt lat="46.342" lon="-1.34479">
        <ele>5.9</ele>
        <time>2020-06-02T17:12:47Z</time>
      </trkpt>
      <trkpt lat="46.34201" lon="-1.34484">
        <ele>5.9</ele>
        <time>2020-06-02T17:12:48Z</time>
      </trkpt>
      <trkpt lat="46.34204" lon="-1.34489">
        <ele>5.9</ele>
        <time>2020-06-02T17:12:49Z</time>
      </trkpt>
      <trkpt lat="46.34206" lon="-1.34495">
        <ele>5.9</ele>
        <time>2020-06-02T17:12:50Z</time>
      </trkpt>
      <trkpt lat="46.34208" lon="-1.34499">
        <ele>6</ele>
        <time>2020-06-02T17:12:51Z</time>
      </trkpt>
      <trkpt lat="46.3421" lon="-1.34504">
        <ele>6</ele>
        <time>2020-06-02T17:12:52Z</time>
      </trkpt>
      <trkpt lat="46.34212" lon="-1.34508">
        <ele>6</ele>
        <time>2020-06-02T17:12:53Z</time>
      </trkpt>
      <trkpt lat="46.34214" lon="-1.34514">
        <ele>6</ele>
        <time>2020-06-02T17:12:54Z</time>
      </trkpt>
      <trkpt lat="46.34215" lon="-1.34519">
        <ele>6</ele>
        <time>2020-06-02T17:12:55Z</time>
      </trkpt>
      <trkpt lat="46.34217" lon="-1.34525">
        <ele>6</ele>
        <time>2020-06-02T17:12:56Z</time>
      </trkpt>
      <trkpt lat="46.34218" lon="-1.3453">
        <ele>6.1</ele>
        <time>2020-06-02T17:12:57Z</time>
      </trkpt>
      <trkpt lat="46.34218" lon="-1.34536">
        <ele>6.1</ele>
        <time>2020-06-02T17:12:58Z</time>
      </trkpt>
      <trkpt lat="46.34219" lon="-1.3454">
        <ele>6.1</ele>
        <time>2020-06-02T17:12:59Z</time>
      </trkpt>
      <trkpt lat="46.3422" lon="-1.34546">
        <ele>6.1</ele>
        <time>2020-06-02T17:13:00Z</time>
      </trkpt>
      <trkpt lat="46.34221" lon="-1.34551">
        <ele>6.1</ele>
        <time>2020-06-02T17:13:01Z</time>
      </trkpt>
      <trkpt lat="46.34223" lon="-1.34556">
        <ele>6.2</ele>
        <time>2020-06-02T17:13:02Z</time>
      </trkpt>
      <trkpt lat="46.34225" lon="-1.34561">
        <ele>6.2</ele>
        <time>2020-06-02T17:13:03Z</time>
      </trkpt>
      <trkpt lat="46.34226" lon="-1.34566">
        <ele>6.2</ele>
        <time>2020-06-02T17:13:04Z</time>
      </trkpt>
      <trkpt lat="46.34228" lon="-1.34571">
        <ele>6.2</ele>
        <time>2020-06-02T17:13:05Z</time>
      </trkpt>
      <trkpt lat="46.34229" lon="-1.34576">
        <ele>6.2</ele>
        <time>2020-06-02T17:13:06Z</time>
      </trkpt>
      <trkpt lat="46.3423" lon="-1.3458">
        <ele>6</ele>
        <time>2020-06-02T17:13:07Z</time>
      </trkpt>
      <trkpt lat="46.34231" lon="-1.34586">
        <ele>5.7</ele>
        <time>2020-06-02T17:13:08Z</time>
      </trkpt>
      <trkpt lat="46.34232" lon="-1.34591">
        <ele>5.3</ele>
        <time>2020-06-02T17:13:09Z</time>
      </trkpt>
      <trkpt lat="46.34233" lon="-1.34597">
        <ele>5</ele>
        <time>2020-06-02T17:13:10Z</time>
      </trkpt>
      <trkpt lat="46.34234" lon="-1.34602">
        <ele>4.7</ele>
        <time>2020-06-02T17:13:11Z</time>
      </trkpt>
      <trkpt lat="46.34236" lon="-1.34607">
        <ele>4.4</ele>
        <time>2020-06-02T17:13:12Z</time>
      </trkpt>
      <trkpt lat="46.34237" lon="-1.34612">
        <ele>4.2</ele>
        <time>2020-06-02T17:13:13Z</time>
      </trkpt>
      <trkpt lat="46.34238" lon="-1.34619">
        <ele>3.8</ele>
        <time>2020-06-02T17:13:14Z</time>
      </trkpt>
      <trkpt lat="46.3424" lon="-1.34623">
        <ele>3.5</ele>
        <time>2020-06-02T17:13:15Z</time>
      </trkpt>
      <trkpt lat="46.34241" lon="-1.34628">
        <ele>3.3</ele>
        <time>2020-06-02T17:13:16Z</time>
      </trkpt>
      <trkpt lat="46.34242" lon="-1.34632">
        <ele>3</ele>
        <time>2020-06-02T17:13:17Z</time>
      </trkpt>
      <trkpt lat="46.34244" lon="-1.34638">
        <ele>2.7</ele>
        <time>2020-06-02T17:13:18Z</time>
      </trkpt>
      <trkpt lat="46.34245" lon="-1.34644">
        <ele>2.4</ele>
        <time>2020-06-02T17:13:19Z</time>
      </trkpt>
      <trkpt lat="46.34247" lon="-1.34648">
        <ele>2.1</ele>
        <time>2020-06-02T17:13:20Z</time>
      </trkpt>
      <trkpt lat="46.34248" lon="-1.34654">
        <ele>1.5</ele>
        <time>2020-06-02T17:13:21Z</time>
      </trkpt>
      <trkpt lat="46.3425" lon="-1.3466">
        <ele>1.6</ele>
        <time>2020-06-02T17:13:22Z</time>
      </trkpt>
      <trkpt lat="46.34253" lon="-1.34665">
        <ele>1.7</ele>
        <time>2020-06-02T17:13:23Z</time>
      </trkpt>
      <trkpt lat="46.34256" lon="-1.3467">
        <ele>1.7</ele>
        <time>2020-06-02T17:13:24Z</time>
      </trkpt>
      <trkpt lat="46.34259" lon="-1.34675">
        <ele>1.8</ele>
        <time>2020-06-02T17:13:25Z</time>
      </trkpt>
      <trkpt lat="46.34263" lon="-1.34678">
        <ele>1.9</ele>
        <time>2020-06-02T17:13:26Z</time>
      </trkpt>
      <trkpt lat="46.34266" lon="-1.34683">
        <ele>2</ele>
        <time>2020-06-02T17:13:27Z</time>
      </trkpt>
      <trkpt lat="46.34269" lon="-1.34688">
        <ele>2.1</ele>
        <time>2020-06-02T17:13:28Z</time>
      </trkpt>
      <trkpt lat="46.34272" lon="-1.34691">
        <ele>2.1</ele>
        <time>2020-06-02T17:13:29Z</time>
      </trkpt>
      <trkpt lat="46.34274" lon="-1.34694">
        <ele>2.2</ele>
        <time>2020-06-02T17:13:30Z</time>
      </trkpt>
      <trkpt lat="46.34278" lon="-1.34695">
        <ele>2.2</ele>
        <time>2020-06-02T17:13:31Z</time>
      </trkpt>
      <trkpt lat="46.34282" lon="-1.34694">
        <ele>2.3</ele>
        <time>2020-06-02T17:13:32Z</time>
      </trkpt>
      <trkpt lat="46.34286" lon="-1.34695">
        <ele>2.4</ele>
        <time>2020-06-02T17:13:33Z</time>
      </trkpt>
      <trkpt lat="46.34291" lon="-1.34696">
        <ele>2.5</ele>
        <time>2020-06-02T17:13:34Z</time>
      </trkpt>
      <trkpt lat="46.34295" lon="-1.34697">
        <ele>2.5</ele>
        <time>2020-06-02T17:13:35Z</time>
      </trkpt>
      <trkpt lat="46.343" lon="-1.34698">
        <ele>2.6</ele>
        <time>2020-06-02T17:13:36Z</time>
      </trkpt>
      <trkpt lat="46.34304" lon="-1.34699">
        <ele>2.7</ele>
        <time>2020-06-02T17:13:37Z</time>
      </trkpt>
      <trkpt lat="46.34307" lon="-1.347">
        <ele>2.7</ele>
        <time>2020-06-02T17:13:38Z</time>
      </trkpt>
      <trkpt lat="46.34312" lon="-1.34702">
        <ele>2.8</ele>
        <time>2020-06-02T17:13:39Z</time>
      </trkpt>
      <trkpt lat="46.34317" lon="-1.34703">
        <ele>2.9</ele>
        <time>2020-06-02T17:13:40Z</time>
      </trkpt>
      <trkpt lat="46.34321" lon="-1.34705">
        <ele>3</ele>
        <time>2020-06-02T17:13:41Z</time>
      </trkpt>
      <trkpt lat="46.34325" lon="-1.34707">
        <ele>3</ele>
        <time>2020-06-02T17:13:42Z</time>
      </trkpt>
      <trkpt lat="46.3433" lon="-1.3471">
        <ele>3.1</ele>
        <time>2020-06-02T17:13:43Z</time>
      </trkpt>
      <trkpt lat="46.34333" lon="-1.34716">
        <ele>3.2</ele>
        <time>2020-06-02T17:13:44Z</time>
      </trkpt>
      <trkpt lat="46.34336" lon="-1.34721">
        <ele>3.3</ele>
        <time>2020-06-02T17:13:45Z</time>
      </trkpt>
      <trkpt lat="46.34339" lon="-1.34728">
        <ele>3.4</ele>
        <time>2020-06-02T17:13:46Z</time>
      </trkpt>
      <trkpt lat="46.34342" lon="-1.34733">
        <ele>3.4</ele>
        <time>2020-06-02T17:13:47Z</time>
      </trkpt>
      <trkpt lat="46.34344" lon="-1.34738">
        <ele>3.5</ele>
        <time>2020-06-02T17:13:48Z</time>
      </trkpt>
      <trkpt lat="46.34347" lon="-1.34744">
        <ele>3.5</ele>
        <time>2020-06-02T17:13:49Z</time>
      </trkpt>
      <trkpt lat="46.3435" lon="-1.34749">
        <ele>3.6</ele>
        <time>2020-06-02T17:13:50Z</time>
      </trkpt>
      <trkpt lat="46.34353" lon="-1.34755">
        <ele>3.7</ele>
        <time>2020-06-02T17:13:51Z</time>
      </trkpt>
      <trkpt lat="46.34356" lon="-1.3476">
        <ele>3.7</ele>
        <time>2020-06-02T17:13:52Z</time>
      </trkpt>
      <trkpt lat="46.34358" lon="-1.34765">
        <ele>3.8</ele>
        <time>2020-06-02T17:13:53Z</time>
      </trkpt>
      <trkpt lat="46.34361" lon="-1.34771">
        <ele>3.8</ele>
        <time>2020-06-02T17:13:54Z</time>
      </trkpt>
      <trkpt lat="46.34364" lon="-1.34777">
        <ele>3.9</ele>
        <time>2020-06-02T17:13:55Z</time>
      </trkpt>
      <trkpt lat="46.34364" lon="-1.34783">
        <ele>3.9</ele>
        <time>2020-06-02T17:13:56Z</time>
      </trkpt>
      <trkpt lat="46.34365" lon="-1.3479">
        <ele>3.9</ele>
        <time>2020-06-02T17:13:57Z</time>
      </trkpt>
      <trkpt lat="46.34366" lon="-1.34797">
        <ele>4</ele>
        <time>2020-06-02T17:13:58Z</time>
      </trkpt>
      <trkpt lat="46.34366" lon="-1.34804">
        <ele>4</ele>
        <time>2020-06-02T17:13:59Z</time>
      </trkpt>
      <trkpt lat="46.34366" lon="-1.34811">
        <ele>4</ele>
        <time>2020-06-02T17:14:00Z</time>
      </trkpt>
      <trkpt lat="46.34367" lon="-1.34817">
        <ele>4.1</ele>
        <time>2020-06-02T17:14:01Z</time>
      </trkpt>
      <trkpt lat="46.34368" lon="-1.34824">
        <ele>4.2</ele>
        <time>2020-06-02T17:14:02Z</time>
      </trkpt>
      <trkpt lat="46.34368" lon="-1.34831">
        <ele>4.2</ele>
        <time>2020-06-02T17:14:03Z</time>
      </trkpt>
      <trkpt lat="46.34369" lon="-1.34835">
        <ele>4.2</ele>
        <time>2020-06-02T17:14:04Z</time>
      </trkpt>
      <trkpt lat="46.3437" lon="-1.34839">
        <ele>4.3</ele>
        <time>2020-06-02T17:14:05Z</time>
      </trkpt>
      <trkpt lat="46.34371" lon="-1.34844">
        <ele>4.3</ele>
        <time>2020-06-02T17:14:06Z</time>
      </trkpt>
      <trkpt lat="46.34371" lon="-1.34851">
        <ele>4.4</ele>
        <time>2020-06-02T17:14:07Z</time>
      </trkpt>
      <trkpt lat="46.34372" lon="-1.34857">
        <ele>4.4</ele>
        <time>2020-06-02T17:14:08Z</time>
      </trkpt>
      <trkpt lat="46.34374" lon="-1.34862">
        <ele>4.4</ele>
        <time>2020-06-02T17:14:09Z</time>
      </trkpt>
      <trkpt lat="46.34375" lon="-1.34867">
        <ele>4.5</ele>
        <time>2020-06-02T17:14:10Z</time>
      </trkpt>
      <trkpt lat="46.34376" lon="-1.34872">
        <ele>4.5</ele>
        <time>2020-06-02T17:14:11Z</time>
      </trkpt>
      <trkpt lat="46.34377" lon="-1.34876">
        <ele>4.5</ele>
        <time>2020-06-02T17:14:12Z</time>
      </trkpt>
      <trkpt lat="46.34379" lon="-1.3488">
        <ele>4.5</ele>
        <time>2020-06-02T17:14:13Z</time>
      </trkpt>
      <trkpt lat="46.3438" lon="-1.34882">
        <ele>4.5</ele>
        <time>2020-06-02T17:14:14Z</time>
      </trkpt>
      <trkpt lat="46.34382" lon="-1.34883">
        <ele>4.5</ele>
        <time>2020-06-02T17:14:15Z</time>
      </trkpt>
      <trkpt lat="46.34381" lon="-1.34885">
        <ele>4.4</ele>
        <time>2020-06-02T17:14:16Z</time>
      </trkpt>
      <trkpt lat="46.3438" lon="-1.34885">
        <ele>4.4</ele>
        <time>2020-06-02T17:14:17Z</time>
      </trkpt>
      <trkpt lat="46.3438" lon="-1.34885">
        <ele>4.4</ele>
        <time>2020-06-02T17:14:18Z</time>
      </trkpt>
      <trkpt lat="46.34379" lon="-1.34886">
        <ele>4.4</ele>
        <time>2020-06-02T17:14:19Z</time>
      </trkpt>
      <trkpt lat="46.34379" lon="-1.34886">
        <ele>4.4</ele>
        <time>2020-06-02T17:14:20Z</time>
      </trkpt>
      <trkpt lat="46.34379" lon="-1.34887">
        <ele>4.4</ele>
        <time>2020-06-02T17:14:21Z</time>
      </trkpt>
      <trkpt lat="46.34378" lon="-1.34885">
        <ele>4.4</ele>
        <time>2020-06-02T17:14:22Z</time>
      </trkpt>
      <trkpt lat="46.34378" lon="-1.34884">
        <ele>4.4</ele>
        <time>2020-06-02T17:14:23Z</time>
      </trkpt>
      <trkpt lat="46.34378" lon="-1.34882">
        <ele>4.4</ele>
        <time>2020-06-02T17:14:24Z</time>
      </trkpt>
      <trkpt lat="46.34378" lon="-1.34881">
        <ele>4.3</ele>
        <time>2020-06-02T17:14:25Z</time>
      </trkpt>
      <trkpt lat="46.34377" lon="-1.34879">
        <ele>4.3</ele>
        <time>2020-06-02T17:14:26Z</time>
      </trkpt>
      <trkpt lat="46.34376" lon="-1.34877">
        <ele>4.3</ele>
        <time>2020-06-02T17:14:27Z</time>
      </trkpt>
      <trkpt lat="46.34376" lon="-1.34874">
        <ele>4.4</ele>
        <time>2020-06-02T17:14:28Z</time>
      </trkpt>
      <trkpt lat="46.34376" lon="-1.34874">
        <ele>4.4</ele>
        <time>2020-06-02T17:14:29Z</time>
      </trkpt>
      <trkpt lat="46.34376" lon="-1.34872">
        <ele>4.4</ele>
        <time>2020-06-02T17:14:30Z</time>
      </trkpt>
      <trkpt lat="46.34375" lon="-1.34871">
        <ele>4.4</ele>
        <time>2020-06-02T17:14:31Z</time>
      </trkpt>
      <trkpt lat="46.34375" lon="-1.3487">
        <ele>4.4</ele>
        <time>2020-06-02T17:14:32Z</time>
      </trkpt>
      <trkpt lat="46.34375" lon="-1.34869">
        <ele>4.4</ele>
        <time>2020-06-02T17:14:33Z</time>
      </trkpt>
      <trkpt lat="46.34375" lon="-1.34868">
        <ele>4.4</ele>
        <time>2020-06-02T17:14:34Z</time>
      </trkpt>
      <trkpt lat="46.34374" lon="-1.34866">
        <ele>4.5</ele>
        <time>2020-06-02T17:14:35Z</time>
      </trkpt>
      <trkpt lat="46.34374" lon="-1.34863">
        <ele>4.5</ele>
        <time>2020-06-02T17:14:36Z</time>
      </trkpt>
      <trkpt lat="46.34374" lon="-1.34861">
        <ele>4.5</ele>
        <time>2020-06-02T17:14:37Z</time>
      </trkpt>
      <trkpt lat="46.34374" lon="-1.34859">
        <ele>4.5</ele>
        <time>2020-06-02T17:14:38Z</time>
      </trkpt>
      <trkpt lat="46.34373" lon="-1.34858">
        <ele>4.5</ele>
        <time>2020-06-02T17:14:39Z</time>
      </trkpt>
      <trkpt lat="46.34373" lon="-1.34853">
        <ele>4.5</ele>
        <time>2020-06-02T17:14:40Z</time>
      </trkpt>
      <trkpt lat="46.34372" lon="-1.34851">
        <ele>4.5</ele>
        <time>2020-06-02T17:14:41Z</time>
      </trkpt>
      <trkpt lat="46.34372" lon="-1.34847">
        <ele>4.5</ele>
        <time>2020-06-02T17:14:42Z</time>
      </trkpt>
      <trkpt lat="46.34371" lon="-1.34843">
        <ele>4.4</ele>
        <time>2020-06-02T17:14:43Z</time>
      </trkpt>
      <trkpt lat="46.34371" lon="-1.34839">
        <ele>4.4</ele>
        <time>2020-06-02T17:14:44Z</time>
      </trkpt>
      <trkpt lat="46.34369" lon="-1.34833">
        <ele>4.4</ele>
        <time>2020-06-02T17:14:45Z</time>
      </trkpt>
      <trkpt lat="46.34369" lon="-1.34828">
        <ele>4.3</ele>
        <time>2020-06-02T17:14:46Z</time>
      </trkpt>
      <trkpt lat="46.34368" lon="-1.34823">
        <ele>4.3</ele>
        <time>2020-06-02T17:14:47Z</time>
      </trkpt>
      <trkpt lat="46.34368" lon="-1.34818">
        <ele>4.2</ele>
        <time>2020-06-02T17:14:48Z</time>
      </trkpt>
      <trkpt lat="46.34369" lon="-1.34814">
        <ele>4.2</ele>
        <time>2020-06-02T17:14:49Z</time>
      </trkpt>
      <trkpt lat="46.34369" lon="-1.34809">
        <ele>4.2</ele>
        <time>2020-06-02T17:14:50Z</time>
      </trkpt>
      <trkpt lat="46.34373" lon="-1.34806">
        <ele>4.3</ele>
        <time>2020-06-02T17:14:51Z</time>
      </trkpt>
      <trkpt lat="46.34374" lon="-1.34804">
        <ele>4.4</ele>
        <time>2020-06-02T17:14:52Z</time>
      </trkpt>
      <trkpt lat="46.34379" lon="-1.348">
        <ele>4.6</ele>
        <time>2020-06-02T17:14:53Z</time>
      </trkpt>
      <trkpt lat="46.34384" lon="-1.34796">
        <ele>4.7</ele>
        <time>2020-06-02T17:14:54Z</time>
      </trkpt>
      <trkpt lat="46.34388" lon="-1.34792">
        <ele>4.8</ele>
        <time>2020-06-02T17:14:55Z</time>
      </trkpt>
      <trkpt lat="46.34392" lon="-1.34788">
        <ele>4.8</ele>
        <time>2020-06-02T17:14:56Z</time>
      </trkpt>
      <trkpt lat="46.34395" lon="-1.34784">
        <ele>4.9</ele>
        <time>2020-06-02T17:14:57Z</time>
      </trkpt>
      <trkpt lat="46.34399" lon="-1.34781">
        <ele>4.9</ele>
        <time>2020-06-02T17:14:58Z</time>
      </trkpt>
      <trkpt lat="46.34402" lon="-1.34778">
        <ele>4.8</ele>
        <time>2020-06-02T17:14:59Z</time>
      </trkpt>
      <trkpt lat="46.34405" lon="-1.34774">
        <ele>4.8</ele>
        <time>2020-06-02T17:15:00Z</time>
      </trkpt>
      <trkpt lat="46.34409" lon="-1.34769">
        <ele>4.7</ele>
        <time>2020-06-02T17:15:01Z</time>
      </trkpt>
      <trkpt lat="46.34413" lon="-1.34765">
        <ele>4.7</ele>
        <time>2020-06-02T17:15:02Z</time>
      </trkpt>
      <trkpt lat="46.34415" lon="-1.34762">
        <ele>4.6</ele>
        <time>2020-06-02T17:15:03Z</time>
      </trkpt>
      <trkpt lat="46.34418" lon="-1.34759">
        <ele>4.6</ele>
        <time>2020-06-02T17:15:04Z</time>
      </trkpt>
      <trkpt lat="46.34421" lon="-1.34754">
        <ele>4.5</ele>
        <time>2020-06-02T17:15:05Z</time>
      </trkpt>
      <trkpt lat="46.34423" lon="-1.34751">
        <ele>4.4</ele>
        <time>2020-06-02T17:15:06Z</time>
      </trkpt>
      <trkpt lat="46.34426" lon="-1.34749">
        <ele>4.4</ele>
        <time>2020-06-02T17:15:07Z</time>
      </trkpt>
      <trkpt lat="46.3443" lon="-1.3475">
        <ele>4.4</ele>
        <time>2020-06-02T17:15:08Z</time>
      </trkpt>
      <trkpt lat="46.34432" lon="-1.34751">
        <ele>4.4</ele>
        <time>2020-06-02T17:15:09Z</time>
      </trkpt>
      <trkpt lat="46.34435" lon="-1.34756">
        <ele>4.4</ele>
        <time>2020-06-02T17:15:10Z</time>
      </trkpt>
      <trkpt lat="46.34437" lon="-1.34762">
        <ele>4.4</ele>
        <time>2020-06-02T17:15:11Z</time>
      </trkpt>
      <trkpt lat="46.34439" lon="-1.34769">
        <ele>4.4</ele>
        <time>2020-06-02T17:15:12Z</time>
      </trkpt>
      <trkpt lat="46.34442" lon="-1.34774">
        <ele>4.4</ele>
        <time>2020-06-02T17:15:13Z</time>
      </trkpt>
      <trkpt lat="46.34445" lon="-1.34781">
        <ele>4.4</ele>
        <time>2020-06-02T17:15:14Z</time>
      </trkpt>
      <trkpt lat="46.34447" lon="-1.34788">
        <ele>4.4</ele>
        <time>2020-06-02T17:15:15Z</time>
      </trkpt>
      <trkpt lat="46.3445" lon="-1.34794">
        <ele>4.4</ele>
        <time>2020-06-02T17:15:16Z</time>
      </trkpt>
      <trkpt lat="46.34452" lon="-1.348">
        <ele>4.4</ele>
        <time>2020-06-02T17:15:17Z</time>
      </trkpt>
      <trkpt lat="46.34455" lon="-1.34805">
        <ele>4.4</ele>
        <time>2020-06-02T17:15:18Z</time>
      </trkpt>
      <trkpt lat="46.34458" lon="-1.34813">
        <ele>4.4</ele>
        <time>2020-06-02T17:15:19Z</time>
      </trkpt>
      <trkpt lat="46.34461" lon="-1.34818">
        <ele>4.4</ele>
        <time>2020-06-02T17:15:20Z</time>
      </trkpt>
      <trkpt lat="46.34465" lon="-1.34821">
        <ele>4.4</ele>
        <time>2020-06-02T17:15:21Z</time>
      </trkpt>
      <trkpt lat="46.34467" lon="-1.34828">
        <ele>4.3</ele>
        <time>2020-06-02T17:15:22Z</time>
      </trkpt>
      <trkpt lat="46.3447" lon="-1.34834">
        <ele>4.3</ele>
        <time>2020-06-02T17:15:23Z</time>
      </trkpt>
      <trkpt lat="46.34473" lon="-1.3484">
        <ele>4.3</ele>
        <time>2020-06-02T17:15:24Z</time>
      </trkpt>
      <trkpt lat="46.34477" lon="-1.34846">
        <ele>4.3</ele>
        <time>2020-06-02T17:15:25Z</time>
      </trkpt>
      <trkpt lat="46.3448" lon="-1.34851">
        <ele>4.3</ele>
        <time>2020-06-02T17:15:26Z</time>
      </trkpt>
      <trkpt lat="46.34482" lon="-1.34857">
        <ele>4.3</ele>
        <time>2020-06-02T17:15:27Z</time>
      </trkpt>
      <trkpt lat="46.34485" lon="-1.34862">
        <ele>4.3</ele>
        <time>2020-06-02T17:15:28Z</time>
      </trkpt>
      <trkpt lat="46.34488" lon="-1.34867">
        <ele>4.3</ele>
        <time>2020-06-02T17:15:29Z</time>
      </trkpt>
      <trkpt lat="46.34491" lon="-1.34872">
        <ele>4.2</ele>
        <time>2020-06-02T17:15:30Z</time>
      </trkpt>
      <trkpt lat="46.34494" lon="-1.34878">
        <ele>4.2</ele>
        <time>2020-06-02T17:15:31Z</time>
      </trkpt>
      <trkpt lat="46.34496" lon="-1.34883">
        <ele>4.2</ele>
        <time>2020-06-02T17:15:32Z</time>
      </trkpt>
      <trkpt lat="46.34499" lon="-1.34887">
        <ele>4.2</ele>
        <time>2020-06-02T17:15:33Z</time>
      </trkpt>
      <trkpt lat="46.34502" lon="-1.34894">
        <ele>4.2</ele>
        <time>2020-06-02T17:15:34Z</time>
      </trkpt>
      <trkpt lat="46.34504" lon="-1.34899">
        <ele>4.3</ele>
        <time>2020-06-02T17:15:35Z</time>
      </trkpt>
      <trkpt lat="46.34506" lon="-1.34905">
        <ele>4.3</ele>
        <time>2020-06-02T17:15:36Z</time>
      </trkpt>
      <trkpt lat="46.34509" lon="-1.3491">
        <ele>4.3</ele>
        <time>2020-06-02T17:15:37Z</time>
      </trkpt>
      <trkpt lat="46.34512" lon="-1.34915">
        <ele>4.3</ele>
        <time>2020-06-02T17:15:38Z</time>
      </trkpt>
      <trkpt lat="46.34515" lon="-1.34921">
        <ele>4.3</ele>
        <time>2020-06-02T17:15:39Z</time>
      </trkpt>
      <trkpt lat="46.34518" lon="-1.34926">
        <ele>4.3</ele>
        <time>2020-06-02T17:15:40Z</time>
      </trkpt>
      <trkpt lat="46.34521" lon="-1.34932">
        <ele>4.3</ele>
        <time>2020-06-02T17:15:41Z</time>
      </trkpt>
      <trkpt lat="46.34524" lon="-1.34935">
        <ele>4.3</ele>
        <time>2020-06-02T17:15:42Z</time>
      </trkpt>
      <trkpt lat="46.34527" lon="-1.3494">
        <ele>4.2</ele>
        <time>2020-06-02T17:15:43Z</time>
      </trkpt>
      <trkpt lat="46.3453" lon="-1.34945">
        <ele>4.2</ele>
        <time>2020-06-02T17:15:44Z</time>
      </trkpt>
      <trkpt lat="46.34533" lon="-1.34951">
        <ele>4.2</ele>
        <time>2020-06-02T17:15:45Z</time>
      </trkpt>
      <trkpt lat="46.34536" lon="-1.34955">
        <ele>4.2</ele>
        <time>2020-06-02T17:15:46Z</time>
      </trkpt>
      <trkpt lat="46.34539" lon="-1.34961">
        <ele>4.2</ele>
        <time>2020-06-02T17:15:47Z</time>
      </trkpt>
      <trkpt lat="46.34541" lon="-1.34967">
        <ele>4.2</ele>
        <time>2020-06-02T17:15:48Z</time>
      </trkpt>
      <trkpt lat="46.34544" lon="-1.3497">
        <ele>4.2</ele>
        <time>2020-06-02T17:15:49Z</time>
      </trkpt>
      <trkpt lat="46.34547" lon="-1.34975">
        <ele>4.2</ele>
        <time>2020-06-02T17:15:50Z</time>
      </trkpt>
      <trkpt lat="46.3455" lon="-1.3498">
        <ele>4.2</ele>
        <time>2020-06-02T17:15:51Z</time>
      </trkpt>
      <trkpt lat="46.34552" lon="-1.34987">
        <ele>4.2</ele>
        <time>2020-06-02T17:15:52Z</time>
      </trkpt>
      <trkpt lat="46.34555" lon="-1.34992">
        <ele>4.2</ele>
        <time>2020-06-02T17:15:53Z</time>
      </trkpt>
      <trkpt lat="46.34557" lon="-1.34998">
        <ele>4.2</ele>
        <time>2020-06-02T17:15:54Z</time>
      </trkpt>
      <trkpt lat="46.34561" lon="-1.35002">
        <ele>4.3</ele>
        <time>2020-06-02T17:15:55Z</time>
      </trkpt>
      <trkpt lat="46.34563" lon="-1.35007">
        <ele>4.3</ele>
        <time>2020-06-02T17:15:56Z</time>
      </trkpt>
      <trkpt lat="46.34566" lon="-1.35012">
        <ele>4.3</ele>
        <time>2020-06-02T17:15:57Z</time>
      </trkpt>
      <trkpt lat="46.34568" lon="-1.35016">
        <ele>4.3</ele>
        <time>2020-06-02T17:15:58Z</time>
      </trkpt>
      <trkpt lat="46.34571" lon="-1.35021">
        <ele>4.3</ele>
        <time>2020-06-02T17:15:59Z</time>
      </trkpt>
      <trkpt lat="46.34573" lon="-1.35025">
        <ele>4.3</ele>
        <time>2020-06-02T17:16:00Z</time>
      </trkpt>
      <trkpt lat="46.34576" lon="-1.35031">
        <ele>4.3</ele>
        <time>2020-06-02T17:16:01Z</time>
      </trkpt>
      <trkpt lat="46.34578" lon="-1.35034">
        <ele>4.3</ele>
        <time>2020-06-02T17:16:02Z</time>
      </trkpt>
      <trkpt lat="46.3458" lon="-1.3504">
        <ele>4.3</ele>
        <time>2020-06-02T17:16:03Z</time>
      </trkpt>
      <trkpt lat="46.34583" lon="-1.35045">
        <ele>4.3</ele>
        <time>2020-06-02T17:16:04Z</time>
      </trkpt>
      <trkpt lat="46.34585" lon="-1.3505">
        <ele>4.3</ele>
        <time>2020-06-02T17:16:05Z</time>
      </trkpt>
      <trkpt lat="46.34588" lon="-1.35054">
        <ele>4.3</ele>
        <time>2020-06-02T17:16:06Z</time>
      </trkpt>
      <trkpt lat="46.3459" lon="-1.35059">
        <ele>4.3</ele>
        <time>2020-06-02T17:16:07Z</time>
      </trkpt>
      <trkpt lat="46.34593" lon="-1.35064">
        <ele>4.3</ele>
        <time>2020-06-02T17:16:08Z</time>
      </trkpt>
      <trkpt lat="46.34596" lon="-1.35068">
        <ele>4.3</ele>
        <time>2020-06-02T17:16:09Z</time>
      </trkpt>
      <trkpt lat="46.34599" lon="-1.35074">
        <ele>4.3</ele>
        <time>2020-06-02T17:16:10Z</time>
      </trkpt>
      <trkpt lat="46.34602" lon="-1.35079">
        <ele>4.3</ele>
        <time>2020-06-02T17:16:11Z</time>
      </trkpt>
      <trkpt lat="46.34605" lon="-1.35083">
        <ele>4.3</ele>
        <time>2020-06-02T17:16:12Z</time>
      </trkpt>
      <trkpt lat="46.34608" lon="-1.35087">
        <ele>4.3</ele>
        <time>2020-06-02T17:16:13Z</time>
      </trkpt>
      <trkpt lat="46.34611" lon="-1.35092">
        <ele>4.3</ele>
        <time>2020-06-02T17:16:14Z</time>
      </trkpt>
      <trkpt lat="46.34614" lon="-1.35098">
        <ele>4.3</ele>
        <time>2020-06-02T17:16:15Z</time>
      </trkpt>
      <trkpt lat="46.34616" lon="-1.35103">
        <ele>4.3</ele>
        <time>2020-06-02T17:16:16Z</time>
      </trkpt>
      <trkpt lat="46.34619" lon="-1.35108">
        <ele>4.3</ele>
        <time>2020-06-02T17:16:17Z</time>
      </trkpt>
      <trkpt lat="46.34621" lon="-1.35114">
        <ele>4.3</ele>
        <time>2020-06-02T17:16:18Z</time>
      </trkpt>
      <trkpt lat="46.34624" lon="-1.3512">
        <ele>4.3</ele>
        <time>2020-06-02T17:16:19Z</time>
      </trkpt>
      <trkpt lat="46.34627" lon="-1.35126">
        <ele>4.3</ele>
        <time>2020-06-02T17:16:20Z</time>
      </trkpt>
      <trkpt lat="46.3463" lon="-1.35131">
        <ele>4.3</ele>
        <time>2020-06-02T17:16:21Z</time>
      </trkpt>
      <trkpt lat="46.34633" lon="-1.35136">
        <ele>4.3</ele>
        <time>2020-06-02T17:16:22Z</time>
      </trkpt>
      <trkpt lat="46.34636" lon="-1.35141">
        <ele>4.3</ele>
        <time>2020-06-02T17:16:23Z</time>
      </trkpt>
      <trkpt lat="46.3464" lon="-1.35147">
        <ele>4.3</ele>
        <time>2020-06-02T17:16:24Z</time>
      </trkpt>
      <trkpt lat="46.34643" lon="-1.35153">
        <ele>4.3</ele>
        <time>2020-06-02T17:16:25Z</time>
      </trkpt>
      <trkpt lat="46.34646" lon="-1.35158">
        <ele>4.3</ele>
        <time>2020-06-02T17:16:26Z</time>
      </trkpt>
      <trkpt lat="46.34649" lon="-1.35164">
        <ele>4.3</ele>
        <time>2020-06-02T17:16:27Z</time>
      </trkpt>
      <trkpt lat="46.34651" lon="-1.3517">
        <ele>4.3</ele>
        <time>2020-06-02T17:16:28Z</time>
      </trkpt>
      <trkpt lat="46.34653" lon="-1.35175">
        <ele>4.3</ele>
        <time>2020-06-02T17:16:29Z</time>
      </trkpt>
      <trkpt lat="46.34656" lon="-1.3518">
        <ele>4.3</ele>
        <time>2020-06-02T17:16:30Z</time>
      </trkpt>
      <trkpt lat="46.34659" lon="-1.35186">
        <ele>4.3</ele>
        <time>2020-06-02T17:16:31Z</time>
      </trkpt>
      <trkpt lat="46.34662" lon="-1.35192">
        <ele>4.3</ele>
        <time>2020-06-02T17:16:32Z</time>
      </trkpt>
      <trkpt lat="46.34665" lon="-1.35197">
        <ele>4.3</ele>
        <time>2020-06-02T17:16:33Z</time>
      </trkpt>
      <trkpt lat="46.34668" lon="-1.35202">
        <ele>4.3</ele>
        <time>2020-06-02T17:16:34Z</time>
      </trkpt>
      <trkpt lat="46.34671" lon="-1.35208">
        <ele>4.3</ele>
        <time>2020-06-02T17:16:35Z</time>
      </trkpt>
      <trkpt lat="46.34674" lon="-1.35214">
        <ele>4.3</ele>
        <time>2020-06-02T17:16:36Z</time>
      </trkpt>
      <trkpt lat="46.34678" lon="-1.35219">
        <ele>4.3</ele>
        <time>2020-06-02T17:16:37Z</time>
      </trkpt>
      <trkpt lat="46.34681" lon="-1.35224">
        <ele>4.4</ele>
        <time>2020-06-02T17:16:38Z</time>
      </trkpt>
      <trkpt lat="46.34684" lon="-1.3523">
        <ele>4.4</ele>
        <time>2020-06-02T17:16:39Z</time>
      </trkpt>
      <trkpt lat="46.34686" lon="-1.35235">
        <ele>4.4</ele>
        <time>2020-06-02T17:16:40Z</time>
      </trkpt>
      <trkpt lat="46.34688" lon="-1.35241">
        <ele>4.5</ele>
        <time>2020-06-02T17:16:41Z</time>
      </trkpt>
      <trkpt lat="46.3469" lon="-1.35246">
        <ele>4.5</ele>
        <time>2020-06-02T17:16:42Z</time>
      </trkpt>
      <trkpt lat="46.34693" lon="-1.3525">
        <ele>4.5</ele>
        <time>2020-06-02T17:16:43Z</time>
      </trkpt>
      <trkpt lat="46.34696" lon="-1.35256">
        <ele>4.6</ele>
        <time>2020-06-02T17:16:44Z</time>
      </trkpt>
      <trkpt lat="46.34699" lon="-1.35261">
        <ele>4.6</ele>
        <time>2020-06-02T17:16:45Z</time>
      </trkpt>
      <trkpt lat="46.34701" lon="-1.35267">
        <ele>4.7</ele>
        <time>2020-06-02T17:16:46Z</time>
      </trkpt>
      <trkpt lat="46.34703" lon="-1.35273">
        <ele>4.7</ele>
        <time>2020-06-02T17:16:47Z</time>
      </trkpt>
      <trkpt lat="46.34705" lon="-1.35278">
        <ele>4.7</ele>
        <time>2020-06-02T17:16:48Z</time>
      </trkpt>
      <trkpt lat="46.34707" lon="-1.35283">
        <ele>4.7</ele>
        <time>2020-06-02T17:16:49Z</time>
      </trkpt>
      <trkpt lat="46.34708" lon="-1.35289">
        <ele>4.7</ele>
        <time>2020-06-02T17:16:50Z</time>
      </trkpt>
      <trkpt lat="46.3471" lon="-1.35294">
        <ele>4.8</ele>
        <time>2020-06-02T17:16:51Z</time>
      </trkpt>
      <trkpt lat="46.34711" lon="-1.353">
        <ele>4.8</ele>
        <time>2020-06-02T17:16:52Z</time>
      </trkpt>
      <trkpt lat="46.34712" lon="-1.35305">
        <ele>4.8</ele>
        <time>2020-06-02T17:16:53Z</time>
      </trkpt>
      <trkpt lat="46.34714" lon="-1.35311">
        <ele>4.8</ele>
        <time>2020-06-02T17:16:54Z</time>
      </trkpt>
      <trkpt lat="46.34716" lon="-1.35317">
        <ele>4.9</ele>
        <time>2020-06-02T17:16:55Z</time>
      </trkpt>
      <trkpt lat="46.34717" lon="-1.35322">
        <ele>4.9</ele>
        <time>2020-06-02T17:16:56Z</time>
      </trkpt>
      <trkpt lat="46.3472" lon="-1.35327">
        <ele>5</ele>
        <time>2020-06-02T17:16:57Z</time>
      </trkpt>
      <trkpt lat="46.34722" lon="-1.35332">
        <ele>5.1</ele>
        <time>2020-06-02T17:16:58Z</time>
      </trkpt>
      <trkpt lat="46.34724" lon="-1.35338">
        <ele>5.1</ele>
        <time>2020-06-02T17:16:59Z</time>
      </trkpt>
      <trkpt lat="46.34725" lon="-1.35343">
        <ele>5.2</ele>
        <time>2020-06-02T17:17:00Z</time>
      </trkpt>
      <trkpt lat="46.34726" lon="-1.35349">
        <ele>5.3</ele>
        <time>2020-06-02T17:17:01Z</time>
      </trkpt>
      <trkpt lat="46.34728" lon="-1.35353">
        <ele>5.3</ele>
        <time>2020-06-02T17:17:02Z</time>
      </trkpt>
      <trkpt lat="46.3473" lon="-1.35358">
        <ele>5.3</ele>
        <time>2020-06-02T17:17:03Z</time>
      </trkpt>
      <trkpt lat="46.34731" lon="-1.35365">
        <ele>5.4</ele>
        <time>2020-06-02T17:17:04Z</time>
      </trkpt>
      <trkpt lat="46.34733" lon="-1.35371">
        <ele>5.4</ele>
        <time>2020-06-02T17:17:05Z</time>
      </trkpt>
      <trkpt lat="46.34734" lon="-1.35376">
        <ele>5.4</ele>
        <time>2020-06-02T17:17:06Z</time>
      </trkpt>
      <trkpt lat="46.34736" lon="-1.35382">
        <ele>5.4</ele>
        <time>2020-06-02T17:17:07Z</time>
      </trkpt>
      <trkpt lat="46.34737" lon="-1.35387">
        <ele>5.4</ele>
        <time>2020-06-02T17:17:08Z</time>
      </trkpt>
      <trkpt lat="46.34738" lon="-1.35392">
        <ele>5.4</ele>
        <time>2020-06-02T17:17:09Z</time>
      </trkpt>
      <trkpt lat="46.3474" lon="-1.35397">
        <ele>5.4</ele>
        <time>2020-06-02T17:17:10Z</time>
      </trkpt>
      <trkpt lat="46.34741" lon="-1.35402">
        <ele>5.3</ele>
        <time>2020-06-02T17:17:11Z</time>
      </trkpt>
      <trkpt lat="46.34744" lon="-1.35409">
        <ele>5.3</ele>
        <time>2020-06-02T17:17:12Z</time>
      </trkpt>
      <trkpt lat="46.34746" lon="-1.35414">
        <ele>5.3</ele>
        <time>2020-06-02T17:17:13Z</time>
      </trkpt>
      <trkpt lat="46.34747" lon="-1.35421">
        <ele>5.2</ele>
        <time>2020-06-02T17:17:14Z</time>
      </trkpt>
      <trkpt lat="46.34748" lon="-1.35428">
        <ele>5.2</ele>
        <time>2020-06-02T17:17:15Z</time>
      </trkpt>
      <trkpt lat="46.34749" lon="-1.35436">
        <ele>5.2</ele>
        <time>2020-06-02T17:17:16Z</time>
      </trkpt>
      <trkpt lat="46.3475" lon="-1.35439">
        <ele>5.1</ele>
        <time>2020-06-02T17:17:17Z</time>
      </trkpt>
      <trkpt lat="46.34752" lon="-1.35447">
        <ele>5</ele>
        <time>2020-06-02T17:17:18Z</time>
      </trkpt>
      <trkpt lat="46.34753" lon="-1.35455">
        <ele>5</ele>
        <time>2020-06-02T17:17:19Z</time>
      </trkpt>
      <trkpt lat="46.34754" lon="-1.35461">
        <ele>4.9</ele>
        <time>2020-06-02T17:17:20Z</time>
      </trkpt>
      <trkpt lat="46.34755" lon="-1.35469">
        <ele>4.8</ele>
        <time>2020-06-02T17:17:21Z</time>
      </trkpt>
      <trkpt lat="46.34758" lon="-1.35475">
        <ele>4.8</ele>
        <time>2020-06-02T17:17:22Z</time>
      </trkpt>
      <trkpt lat="46.34759" lon="-1.35481">
        <ele>4.7</ele>
        <time>2020-06-02T17:17:23Z</time>
      </trkpt>
      <trkpt lat="46.34761" lon="-1.35487">
        <ele>4.7</ele>
        <time>2020-06-02T17:17:24Z</time>
      </trkpt>
      <trkpt lat="46.34763" lon="-1.35494">
        <ele>4.6</ele>
        <time>2020-06-02T17:17:25Z</time>
      </trkpt>
      <trkpt lat="46.34765" lon="-1.35501">
        <ele>4.5</ele>
        <time>2020-06-02T17:17:26Z</time>
      </trkpt>
      <trkpt lat="46.34766" lon="-1.3551">
        <ele>4.4</ele>
        <time>2020-06-02T17:17:27Z</time>
      </trkpt>
      <trkpt lat="46.34768" lon="-1.35515">
        <ele>4.4</ele>
        <time>2020-06-02T17:17:28Z</time>
      </trkpt>
      <trkpt lat="46.34772" lon="-1.35524">
        <ele>4.3</ele>
        <time>2020-06-02T17:17:29Z</time>
      </trkpt>
      <trkpt lat="46.34774" lon="-1.35532">
        <ele>4.3</ele>
        <time>2020-06-02T17:17:30Z</time>
      </trkpt>
      <trkpt lat="46.34774" lon="-1.35538">
        <ele>4.2</ele>
        <time>2020-06-02T17:17:31Z</time>
      </trkpt>
      <trkpt lat="46.34776" lon="-1.35546">
        <ele>4.2</ele>
        <time>2020-06-02T17:17:32Z</time>
      </trkpt>
      <trkpt lat="46.34779" lon="-1.35553">
        <ele>4.2</ele>
        <time>2020-06-02T17:17:33Z</time>
      </trkpt>
      <trkpt lat="46.34781" lon="-1.3556">
        <ele>4.2</ele>
        <time>2020-06-02T17:17:34Z</time>
      </trkpt>
      <trkpt lat="46.34784" lon="-1.35568">
        <ele>4.2</ele>
        <time>2020-06-02T17:17:35Z</time>
      </trkpt>
      <trkpt lat="46.34786" lon="-1.35577">
        <ele>4.3</ele>
        <time>2020-06-02T17:17:36Z</time>
      </trkpt>
      <trkpt lat="46.34788" lon="-1.35585">
        <ele>4.3</ele>
        <time>2020-06-02T17:17:37Z</time>
      </trkpt>
      <trkpt lat="46.3479" lon="-1.35593">
        <ele>4.3</ele>
        <time>2020-06-02T17:17:38Z</time>
      </trkpt>
      <trkpt lat="46.34791" lon="-1.356">
        <ele>4.4</ele>
        <time>2020-06-02T17:17:39Z</time>
      </trkpt>
      <trkpt lat="46.34793" lon="-1.35607">
        <ele>4.4</ele>
        <time>2020-06-02T17:17:40Z</time>
      </trkpt>
      <trkpt lat="46.34796" lon="-1.35614">
        <ele>4.5</ele>
        <time>2020-06-02T17:17:41Z</time>
      </trkpt>
      <trkpt lat="46.34798" lon="-1.35621">
        <ele>4.5</ele>
        <time>2020-06-02T17:17:42Z</time>
      </trkpt>
      <trkpt lat="46.34799" lon="-1.35628">
        <ele>4.6</ele>
        <time>2020-06-02T17:17:43Z</time>
      </trkpt>
      <trkpt lat="46.348" lon="-1.35635">
        <ele>4.6</ele>
        <time>2020-06-02T17:17:44Z</time>
      </trkpt>
      <trkpt lat="46.34801" lon="-1.35642">
        <ele>4.7</ele>
        <time>2020-06-02T17:17:45Z</time>
      </trkpt>
      <trkpt lat="46.34802" lon="-1.35648">
        <ele>4.7</ele>
        <time>2020-06-02T17:17:46Z</time>
      </trkpt>
      <trkpt lat="46.34805" lon="-1.35654">
        <ele>4.8</ele>
        <time>2020-06-02T17:17:47Z</time>
      </trkpt>
      <trkpt lat="46.34807" lon="-1.3566">
        <ele>4.8</ele>
        <time>2020-06-02T17:17:48Z</time>
      </trkpt>
      <trkpt lat="46.34809" lon="-1.35664">
        <ele>4.8</ele>
        <time>2020-06-02T17:17:49Z</time>
      </trkpt>
      <trkpt lat="46.3481" lon="-1.35672">
        <ele>4.7</ele>
        <time>2020-06-02T17:17:50Z</time>
      </trkpt>
      <trkpt lat="46.34812" lon="-1.35678">
        <ele>4.7</ele>
        <time>2020-06-02T17:17:51Z</time>
      </trkpt>
      <trkpt lat="46.34813" lon="-1.35684">
        <ele>4.7</ele>
        <time>2020-06-02T17:17:52Z</time>
      </trkpt>
      <trkpt lat="46.34815" lon="-1.3569">
        <ele>4.7</ele>
        <time>2020-06-02T17:17:53Z</time>
      </trkpt>
      <trkpt lat="46.34817" lon="-1.35696">
        <ele>4.7</ele>
        <time>2020-06-02T17:17:54Z</time>
      </trkpt>
      <trkpt lat="46.34819" lon="-1.35702">
        <ele>4.7</ele>
        <time>2020-06-02T17:17:55Z</time>
      </trkpt>
      <trkpt lat="46.34821" lon="-1.35707">
        <ele>4.7</ele>
        <time>2020-06-02T17:17:56Z</time>
      </trkpt>
      <trkpt lat="46.34823" lon="-1.35714">
        <ele>4.7</ele>
        <time>2020-06-02T17:17:57Z</time>
      </trkpt>
      <trkpt lat="46.34824" lon="-1.3572">
        <ele>4.6</ele>
        <time>2020-06-02T17:17:58Z</time>
      </trkpt>
      <trkpt lat="46.34826" lon="-1.35726">
        <ele>4.6</ele>
        <time>2020-06-02T17:17:59Z</time>
      </trkpt>
      <trkpt lat="46.34828" lon="-1.35732">
        <ele>4.6</ele>
        <time>2020-06-02T17:18:00Z</time>
      </trkpt>
      <trkpt lat="46.3483" lon="-1.35738">
        <ele>4.6</ele>
        <time>2020-06-02T17:18:01Z</time>
      </trkpt>
      <trkpt lat="46.34832" lon="-1.35745">
        <ele>4.6</ele>
        <time>2020-06-02T17:18:02Z</time>
      </trkpt>
      <trkpt lat="46.34833" lon="-1.35751">
        <ele>4.6</ele>
        <time>2020-06-02T17:18:03Z</time>
      </trkpt>
      <trkpt lat="46.34834" lon="-1.35755">
        <ele>4.6</ele>
        <time>2020-06-02T17:18:04Z</time>
      </trkpt>
      <trkpt lat="46.34836" lon="-1.3576">
        <ele>4.6</ele>
        <time>2020-06-02T17:18:05Z</time>
      </trkpt>
      <trkpt lat="46.34836" lon="-1.35761">
        <ele>4.6</ele>
        <time>2020-06-02T17:18:06Z</time>
      </trkpt>
      <trkpt lat="46.34836" lon="-1.35763">
        <ele>4.6</ele>
        <time>2020-06-02T17:18:07Z</time>
      </trkpt>
      <trkpt lat="46.34835" lon="-1.35764">
        <ele>4.6</ele>
        <time>2020-06-02T17:18:08Z</time>
      </trkpt>
      <trkpt lat="46.34835" lon="-1.35765">
        <ele>4.6</ele>
        <time>2020-06-02T17:18:09Z</time>
      </trkpt>
      <trkpt lat="46.34835" lon="-1.35766">
        <ele>4.6</ele>
        <time>2020-06-02T17:18:10Z</time>
      </trkpt>
      <trkpt lat="46.34835" lon="-1.35767">
        <ele>4.6</ele>
        <time>2020-06-02T17:18:11Z</time>
      </trkpt>
      <trkpt lat="46.34834" lon="-1.35768">
        <ele>4.6</ele>
        <time>2020-06-02T17:18:12Z</time>
      </trkpt>
      <trkpt lat="46.34834" lon="-1.35768">
        <ele>4.5</ele>
        <time>2020-06-02T17:18:13Z</time>
      </trkpt>
      <trkpt lat="46.34834" lon="-1.35768">
        <ele>4.5</ele>
        <time>2020-06-02T17:18:14Z</time>
      </trkpt>
      <trkpt lat="46.34833" lon="-1.35769">
        <ele>4.5</ele>
        <time>2020-06-02T17:18:15Z</time>
      </trkpt>
      <trkpt lat="46.34833" lon="-1.35769">
        <ele>4.5</ele>
        <time>2020-06-02T17:18:16Z</time>
      </trkpt>
      <trkpt lat="46.34833" lon="-1.3577">
        <ele>4.5</ele>
        <time>2020-06-02T17:18:17Z</time>
      </trkpt>
      <trkpt lat="46.34833" lon="-1.35771">
        <ele>4.5</ele>
        <time>2020-06-02T17:18:18Z</time>
      </trkpt>
      <trkpt lat="46.34833" lon="-1.35772">
        <ele>4.5</ele>
        <time>2020-06-02T17:18:19Z</time>
      </trkpt>
      <trkpt lat="46.34832" lon="-1.35771">
        <ele>4.5</ele>
        <time>2020-06-02T17:18:20Z</time>
      </trkpt>
      <trkpt lat="46.34832" lon="-1.35771">
        <ele>4.5</ele>
        <time>2020-06-02T17:18:21Z</time>
      </trkpt>
      <trkpt lat="46.34832" lon="-1.35771">
        <ele>4.5</ele>
        <time>2020-06-02T17:18:22Z</time>
      </trkpt>
      <trkpt lat="46.34832" lon="-1.35771">
        <ele>4.5</ele>
        <time>2020-06-02T17:18:23Z</time>
      </trkpt>
      <trkpt lat="46.34832" lon="-1.35771">
        <ele>4.5</ele>
        <time>2020-06-02T17:18:24Z</time>
      </trkpt>
      <trkpt lat="46.34832" lon="-1.35772">
        <ele>4.5</ele>
        <time>2020-06-02T17:18:25Z</time>
      </trkpt>
      <trkpt lat="46.34832" lon="-1.35772">
        <ele>4.5</ele>
        <time>2020-06-02T17:18:26Z</time>
      </trkpt>
      <trkpt lat="46.34832" lon="-1.35772">
        <ele>4.5</ele>
        <time>2020-06-02T17:18:27Z</time>
      </trkpt>
      <trkpt lat="46.34832" lon="-1.35773">
        <ele>4.5</ele>
        <time>2020-06-02T17:18:28Z</time>
      </trkpt>
      <trkpt lat="46.34832" lon="-1.35775">
        <ele>4.5</ele>
        <time>2020-06-02T17:18:29Z</time>
      </trkpt>
      <trkpt lat="46.34832" lon="-1.35777">
        <ele>4.5</ele>
        <time>2020-06-02T17:18:30Z</time>
      </trkpt>
      <trkpt lat="46.34831" lon="-1.35778">
        <ele>4.5</ele>
        <time>2020-06-02T17:18:31Z</time>
      </trkpt>
      <trkpt lat="46.34831" lon="-1.35779">
        <ele>4.5</ele>
        <time>2020-06-02T17:18:32Z</time>
      </trkpt>
      <trkpt lat="46.3483" lon="-1.35779">
        <ele>4.5</ele>
        <time>2020-06-02T17:18:33Z</time>
      </trkpt>
      <trkpt lat="46.3483" lon="-1.35781">
        <ele>4.5</ele>
        <time>2020-06-02T17:18:34Z</time>
      </trkpt>
      <trkpt lat="46.3483" lon="-1.35782">
        <ele>4.5</ele>
        <time>2020-06-02T17:18:35Z</time>
      </trkpt>
      <trkpt lat="46.3483" lon="-1.35783">
        <ele>4.5</ele>
        <time>2020-06-02T17:18:36Z</time>
      </trkpt>
      <trkpt lat="46.34829" lon="-1.35784">
        <ele>4.5</ele>
        <time>2020-06-02T17:18:37Z</time>
      </trkpt>
      <trkpt lat="46.34829" lon="-1.35785">
        <ele>4.5</ele>
        <time>2020-06-02T17:18:38Z</time>
      </trkpt>
      <trkpt lat="46.34829" lon="-1.35786">
        <ele>4.5</ele>
        <time>2020-06-02T17:18:39Z</time>
      </trkpt>
      <trkpt lat="46.34829" lon="-1.35787">
        <ele>4.5</ele>
        <time>2020-06-02T17:18:40Z</time>
      </trkpt>
      <trkpt lat="46.34829" lon="-1.35789">
        <ele>4.5</ele>
        <time>2020-06-02T17:18:41Z</time>
      </trkpt>
      <trkpt lat="46.34829" lon="-1.3579">
        <ele>4.5</ele>
        <time>2020-06-02T17:18:42Z</time>
      </trkpt>
      <trkpt lat="46.34828" lon="-1.35791">
        <ele>4.5</ele>
        <time>2020-06-02T17:18:43Z</time>
      </trkpt>
      <trkpt lat="46.34828" lon="-1.35793">
        <ele>4.5</ele>
        <time>2020-06-02T17:18:44Z</time>
      </trkpt>
      <trkpt lat="46.34828" lon="-1.35793">
        <ele>4.5</ele>
        <time>2020-06-02T17:18:45Z</time>
      </trkpt>
      <trkpt lat="46.34828" lon="-1.35794">
        <ele>4.5</ele>
        <time>2020-06-02T17:18:46Z</time>
      </trkpt>
      <trkpt lat="46.34828" lon="-1.35793">
        <ele>4.5</ele>
        <time>2020-06-02T17:18:47Z</time>
      </trkpt>
      <trkpt lat="46.34828" lon="-1.35794">
        <ele>4.5</ele>
        <time>2020-06-02T17:18:48Z</time>
      </trkpt>
      <trkpt lat="46.34828" lon="-1.35793">
        <ele>4.5</ele>
        <time>2020-06-02T17:18:49Z</time>
      </trkpt>
      <trkpt lat="46.34829" lon="-1.35793">
        <ele>4.5</ele>
        <time>2020-06-02T17:18:50Z</time>
      </trkpt>
      <trkpt lat="46.34829" lon="-1.35793">
        <ele>4.5</ele>
        <time>2020-06-02T17:18:51Z</time>
      </trkpt>
      <trkpt lat="46.34829" lon="-1.35793">
        <ele>4.5</ele>
        <time>2020-06-02T17:18:52Z</time>
      </trkpt>
      <trkpt lat="46.34829" lon="-1.35792">
        <ele>4.5</ele>
        <time>2020-06-02T17:18:53Z</time>
      </trkpt>
      <trkpt lat="46.34829" lon="-1.35792">
        <ele>4.5</ele>
        <time>2020-06-02T17:18:54Z</time>
      </trkpt>
      <trkpt lat="46.34829" lon="-1.35792">
        <ele>4.5</ele>
        <time>2020-06-02T17:18:55Z</time>
      </trkpt>
      <trkpt lat="46.3483" lon="-1.35789">
        <ele>4.5</ele>
        <time>2020-06-02T17:18:56Z</time>
      </trkpt>
      <trkpt lat="46.3483" lon="-1.35788">
        <ele>4.5</ele>
        <time>2020-06-02T17:18:57Z</time>
      </trkpt>
      <trkpt lat="46.34829" lon="-1.35787">
        <ele>4.5</ele>
        <time>2020-06-02T17:18:58Z</time>
      </trkpt>
      <trkpt lat="46.34829" lon="-1.35787">
        <ele>4.5</ele>
        <time>2020-06-02T17:18:59Z</time>
      </trkpt>
      <trkpt lat="46.34829" lon="-1.35787">
        <ele>4.5</ele>
        <time>2020-06-02T17:19:00Z</time>
      </trkpt>
      <trkpt lat="46.34829" lon="-1.35787">
        <ele>4.5</ele>
        <time>2020-06-02T17:19:01Z</time>
      </trkpt>
      <trkpt lat="46.34829" lon="-1.35786">
        <ele>4.5</ele>
        <time>2020-06-02T17:19:02Z</time>
      </trkpt>
      <trkpt lat="46.34829" lon="-1.35786">
        <ele>4.5</ele>
        <time>2020-06-02T17:19:03Z</time>
      </trkpt>
      <trkpt lat="46.34829" lon="-1.35786">
        <ele>4.5</ele>
        <time>2020-06-02T17:19:04Z</time>
      </trkpt>
      <trkpt lat="46.34829" lon="-1.35786">
        <ele>4.5</ele>
        <time>2020-06-02T17:19:05Z</time>
      </trkpt>
      <trkpt lat="46.34829" lon="-1.35785">
        <ele>4.5</ele>
        <time>2020-06-02T17:19:06Z</time>
      </trkpt>
      <trkpt lat="46.34829" lon="-1.35785">
        <ele>4.5</ele>
        <time>2020-06-02T17:19:07Z</time>
      </trkpt>
      <trkpt lat="46.34829" lon="-1.35785">
        <ele>4.5</ele>
        <time>2020-06-02T17:19:08Z</time>
      </trkpt>
      <trkpt lat="46.34829" lon="-1.35785">
        <ele>4.5</ele>
        <time>2020-06-02T17:19:09Z</time>
      </trkpt>
      <trkpt lat="46.3483" lon="-1.35785">
        <ele>4.5</ele>
        <time>2020-06-02T17:19:10Z</time>
      </trkpt>
      <trkpt lat="46.3483" lon="-1.35785">
        <ele>4.5</ele>
        <time>2020-06-02T17:19:11Z</time>
      </trkpt>
      <trkpt lat="46.34831" lon="-1.35785">
        <ele>4.5</ele>
        <time>2020-06-02T17:19:12Z</time>
      </trkpt>
      <trkpt lat="46.3483" lon="-1.35784">
        <ele>4.5</ele>
        <time>2020-06-02T17:19:13Z</time>
      </trkpt>
      <trkpt lat="46.3483" lon="-1.35785">
        <ele>4.5</ele>
        <time>2020-06-02T17:19:14Z</time>
      </trkpt>
      <trkpt lat="46.3483" lon="-1.35785">
        <ele>4.5</ele>
        <time>2020-06-02T17:19:15Z</time>
      </trkpt>
      <trkpt lat="46.3483" lon="-1.35785">
        <ele>4.5</ele>
        <time>2020-06-02T17:19:16Z</time>
      </trkpt>
      <trkpt lat="46.3483" lon="-1.35785">
        <ele>4.5</ele>
        <time>2020-06-02T17:19:17Z</time>
      </trkpt>
      <trkpt lat="46.3483" lon="-1.35785">
        <ele>4.5</ele>
        <time>2020-06-02T17:19:18Z</time>
      </trkpt>
      <trkpt lat="46.3483" lon="-1.35784">
        <ele>4.5</ele>
        <time>2020-06-02T17:19:19Z</time>
      </trkpt>
      <trkpt lat="46.3483" lon="-1.35784">
        <ele>4.5</ele>
        <time>2020-06-02T17:19:20Z</time>
      </trkpt>
      <trkpt lat="46.3483" lon="-1.35784">
        <ele>4.5</ele>
        <time>2020-06-02T17:19:21Z</time>
      </trkpt>
      <trkpt lat="46.3483" lon="-1.35784">
        <ele>4.5</ele>
        <time>2020-06-02T17:19:22Z</time>
      </trkpt>
      <trkpt lat="46.3483" lon="-1.35783">
        <ele>4.5</ele>
        <time>2020-06-02T17:19:23Z</time>
      </trkpt>
      <trkpt lat="46.3483" lon="-1.35783">
        <ele>4.5</ele>
        <time>2020-06-02T17:19:24Z</time>
      </trkpt>
      <trkpt lat="46.3483" lon="-1.35783">
        <ele>4.5</ele>
        <time>2020-06-02T17:19:25Z</time>
      </trkpt>
      <trkpt lat="46.3483" lon="-1.35783">
        <ele>4.5</ele>
        <time>2020-06-02T17:19:26Z</time>
      </trkpt>
      <trkpt lat="46.3483" lon="-1.35783">
        <ele>4.5</ele>
        <time>2020-06-02T17:19:27Z</time>
      </trkpt>
      <trkpt lat="46.3483" lon="-1.35783">
        <ele>4.5</ele>
        <time>2020-06-02T17:19:28Z</time>
      </trkpt>
      <trkpt lat="46.3483" lon="-1.35783">
        <ele>4.5</ele>
        <time>2020-06-02T17:19:29Z</time>
      </trkpt>
      <trkpt lat="46.3483" lon="-1.35782">
        <ele>4.5</ele>
        <time>2020-06-02T17:19:30Z</time>
      </trkpt>
      <trkpt lat="46.34831" lon="-1.35782">
        <ele>4.5</ele>
        <time>2020-06-02T17:19:31Z</time>
      </trkpt>
      <trkpt lat="46.34831" lon="-1.35781">
        <ele>4.5</ele>
        <time>2020-06-02T17:19:32Z</time>
      </trkpt>
      <trkpt lat="46.34831" lon="-1.35781">
        <ele>4.5</ele>
        <time>2020-06-02T17:19:33Z</time>
      </trkpt>
      <trkpt lat="46.34831" lon="-1.35781">
        <ele>4.5</ele>
        <time>2020-06-02T17:19:34Z</time>
      </trkpt>
      <trkpt lat="46.34831" lon="-1.3578">
        <ele>4.5</ele>
        <time>2020-06-02T17:19:35Z</time>
      </trkpt>
      <trkpt lat="46.34831" lon="-1.3578">
        <ele>4.5</ele>
        <time>2020-06-02T17:19:36Z</time>
      </trkpt>
      <trkpt lat="46.34831" lon="-1.3578">
        <ele>4.5</ele>
        <time>2020-06-02T17:19:37Z</time>
      </trkpt>
      <trkpt lat="46.34831" lon="-1.3578">
        <ele>4.5</ele>
        <time>2020-06-02T17:19:38Z</time>
      </trkpt>
      <trkpt lat="46.34831" lon="-1.3578">
        <ele>4.5</ele>
        <time>2020-06-02T17:19:39Z</time>
      </trkpt>
      <trkpt lat="46.34831" lon="-1.35779">
        <ele>4.5</ele>
        <time>2020-06-02T17:19:40Z</time>
      </trkpt>
      <trkpt lat="46.34831" lon="-1.35779">
        <ele>4.5</ele>
        <time>2020-06-02T17:19:41Z</time>
      </trkpt>
      <trkpt lat="46.34831" lon="-1.35779">
        <ele>4.5</ele>
        <time>2020-06-02T17:19:42Z</time>
      </trkpt>
      <trkpt lat="46.34831" lon="-1.35778">
        <ele>4.5</ele>
        <time>2020-06-02T17:19:43Z</time>
      </trkpt>
      <trkpt lat="46.34831" lon="-1.35778">
        <ele>4.4</ele>
        <time>2020-06-02T17:19:44Z</time>
      </trkpt>
      <trkpt lat="46.34831" lon="-1.35778">
        <ele>4.4</ele>
        <time>2020-06-02T17:19:45Z</time>
      </trkpt>
      <trkpt lat="46.34831" lon="-1.35777">
        <ele>4.4</ele>
        <time>2020-06-02T17:19:46Z</time>
      </trkpt>
      <trkpt lat="46.34831" lon="-1.35777">
        <ele>4.4</ele>
        <time>2020-06-02T17:19:47Z</time>
      </trkpt>
      <trkpt lat="46.34831" lon="-1.35777">
        <ele>4.4</ele>
        <time>2020-06-02T17:19:48Z</time>
      </trkpt>
      <trkpt lat="46.34831" lon="-1.35777">
        <ele>4.4</ele>
        <time>2020-06-02T17:19:49Z</time>
      </trkpt>
      <trkpt lat="46.34832" lon="-1.35777">
        <ele>4.4</ele>
        <time>2020-06-02T17:19:50Z</time>
      </trkpt>
      <trkpt lat="46.34831" lon="-1.35777">
        <ele>4.4</ele>
        <time>2020-06-02T17:19:51Z</time>
      </trkpt>
      <trkpt lat="46.34831" lon="-1.35777">
        <ele>4.4</ele>
        <time>2020-06-02T17:19:52Z</time>
      </trkpt>
      <trkpt lat="46.34831" lon="-1.35777">
        <ele>4.4</ele>
        <time>2020-06-02T17:19:53Z</time>
      </trkpt>
      <trkpt lat="46.34832" lon="-1.35776">
        <ele>4.4</ele>
        <time>2020-06-02T17:19:54Z</time>
      </trkpt>
      <trkpt lat="46.34832" lon="-1.35776">
        <ele>4.4</ele>
        <time>2020-06-02T17:19:55Z</time>
      </trkpt>
      <trkpt lat="46.34831" lon="-1.35776">
        <ele>4.4</ele>
        <time>2020-06-02T17:19:56Z</time>
      </trkpt>
      <trkpt lat="46.34831" lon="-1.35776">
        <ele>4.4</ele>
        <time>2020-06-02T17:19:57Z</time>
      </trkpt>
      <trkpt lat="46.34831" lon="-1.35776">
        <ele>4.4</ele>
        <time>2020-06-02T17:19:58Z</time>
      </trkpt>
      <trkpt lat="46.34831" lon="-1.35775">
        <ele>4.4</ele>
        <time>2020-06-02T17:19:59Z</time>
      </trkpt>
      <trkpt lat="46.34831" lon="-1.35775">
        <ele>4.4</ele>
        <time>2020-06-02T17:20:00Z</time>
      </trkpt>
      <trkpt lat="46.34831" lon="-1.35775">
        <ele>4.4</ele>
        <time>2020-06-02T17:20:01Z</time>
      </trkpt>
      <trkpt lat="46.34831" lon="-1.35775">
        <ele>4.4</ele>
        <time>2020-06-02T17:20:02Z</time>
      </trkpt>
      <trkpt lat="46.34831" lon="-1.35775">
        <ele>4.4</ele>
        <time>2020-06-02T17:20:03Z</time>
      </trkpt>
      <trkpt lat="46.34831" lon="-1.35775">
        <ele>4.4</ele>
        <time>2020-06-02T17:20:04Z</time>
      </trkpt>
      <trkpt lat="46.34831" lon="-1.35775">
        <ele>4.4</ele>
        <time>2020-06-02T17:20:05Z</time>
      </trkpt>
      <trkpt lat="46.34831" lon="-1.35775">
        <ele>4.4</ele>
        <time>2020-06-02T17:20:06Z</time>
      </trkpt>
      <trkpt lat="46.34831" lon="-1.35774">
        <ele>4.4</ele>
        <time>2020-06-02T17:20:07Z</time>
      </trkpt>
      <trkpt lat="46.34831" lon="-1.35774">
        <ele>4.4</ele>
        <time>2020-06-02T17:20:08Z</time>
      </trkpt>
      <trkpt lat="46.34831" lon="-1.35774">
        <ele>4.4</ele>
        <time>2020-06-02T17:20:09Z</time>
      </trkpt>
      <trkpt lat="46.34831" lon="-1.35774">
        <ele>4.4</ele>
        <time>2020-06-02T17:20:10Z</time>
      </trkpt>
      <trkpt lat="46.34831" lon="-1.35774">
        <ele>4.4</ele>
        <time>2020-06-02T17:20:11Z</time>
      </trkpt>
      <trkpt lat="46.34831" lon="-1.35774">
        <ele>4.4</ele>
        <time>2020-06-02T17:20:12Z</time>
      </trkpt>
      <trkpt lat="46.34831" lon="-1.35774">
        <ele>4.4</ele>
        <time>2020-06-02T17:20:13Z</time>
      </trkpt>
      <trkpt lat="46.34831" lon="-1.35774">
        <ele>4.4</ele>
        <time>2020-06-02T17:20:14Z</time>
      </trkpt>
      <trkpt lat="46.34831" lon="-1.35774">
        <ele>4.4</ele>
        <time>2020-06-02T17:20:15Z</time>
      </trkpt>
      <trkpt lat="46.34831" lon="-1.35774">
        <ele>4.4</ele>
        <time>2020-06-02T17:20:16Z</time>
      </trkpt>
      <trkpt lat="46.34831" lon="-1.35774">
        <ele>4.4</ele>
        <time>2020-06-02T17:20:17Z</time>
      </trkpt>
      <trkpt lat="46.34831" lon="-1.35774">
        <ele>4.4</ele>
        <time>2020-06-02T17:20:18Z</time>
      </trkpt>
      <trkpt lat="46.34831" lon="-1.35774">
        <ele>4.4</ele>
        <time>2020-06-02T17:20:19Z</time>
      </trkpt>
      <trkpt lat="46.34831" lon="-1.35774">
        <ele>4.4</ele>
        <time>2020-06-02T17:20:20Z</time>
      </trkpt>
      <trkpt lat="46.34831" lon="-1.35774">
        <ele>4.4</ele>
        <time>2020-06-02T17:20:21Z</time>
      </trkpt>
      <trkpt lat="46.34831" lon="-1.35774">
        <ele>4.4</ele>
        <time>2020-06-02T17:20:22Z</time>
      </trkpt>
      <trkpt lat="46.34831" lon="-1.35774">
        <ele>4.4</ele>
        <time>2020-06-02T17:20:23Z</time>
      </trkpt>
      <trkpt lat="46.34831" lon="-1.35774">
        <ele>4.4</ele>
        <time>2020-06-02T17:20:24Z</time>
      </trkpt>
      <trkpt lat="46.34831" lon="-1.35774">
        <ele>4.4</ele>
        <time>2020-06-02T17:20:25Z</time>
      </trkpt>
      <trkpt lat="46.34831" lon="-1.35774">
        <ele>4.4</ele>
        <time>2020-06-02T17:20:26Z</time>
      </trkpt>
      <trkpt lat="46.34831" lon="-1.35774">
        <ele>4.4</ele>
        <time>2020-06-02T17:20:27Z</time>
      </trkpt>
      <trkpt lat="46.34831" lon="-1.35774">
        <ele>4.4</ele>
        <time>2020-06-02T17:20:28Z</time>
      </trkpt>
      <trkpt lat="46.34831" lon="-1.35774">
        <ele>4.4</ele>
        <time>2020-06-02T17:20:29Z</time>
      </trkpt>
      <trkpt lat="46.34831" lon="-1.35774">
        <ele>4.4</ele>
        <time>2020-06-02T17:20:30Z</time>
      </trkpt>
      <trkpt lat="46.34831" lon="-1.35774">
        <ele>4.4</ele>
        <time>2020-06-02T17:20:31Z</time>
      </trkpt>
      <trkpt lat="46.34831" lon="-1.35773">
        <ele>4.4</ele>
        <time>2020-06-02T17:20:32Z</time>
      </trkpt>
      <trkpt lat="46.34831" lon="-1.35773">
        <ele>4.4</ele>
        <time>2020-06-02T17:20:33Z</time>
      </trkpt>
      <trkpt lat="46.34831" lon="-1.35773">
        <ele>4.4</ele>
        <time>2020-06-02T17:20:34Z</time>
      </trkpt>
      <trkpt lat="46.34831" lon="-1.35773">
        <ele>4.4</ele>
        <time>2020-06-02T17:20:35Z</time>
      </trkpt>
      <trkpt lat="46.34831" lon="-1.35773">
        <ele>4.4</ele>
        <time>2020-06-02T17:20:36Z</time>
      </trkpt>
      <trkpt lat="46.34831" lon="-1.35774">
        <ele>4.4</ele>
        <time>2020-06-02T17:20:37Z</time>
      </trkpt>
      <trkpt lat="46.34831" lon="-1.35774">
        <ele>4.4</ele>
        <time>2020-06-02T17:20:38Z</time>
      </trkpt>
      <trkpt lat="46.34831" lon="-1.35774">
        <ele>4.4</ele>
        <time>2020-06-02T17:20:39Z</time>
      </trkpt>
      <trkpt lat="46.34831" lon="-1.35774">
        <ele>4.4</ele>
        <time>2020-06-02T17:20:40Z</time>
      </trkpt>
      <trkpt lat="46.34831" lon="-1.35774">
        <ele>4.4</ele>
        <time>2020-06-02T17:20:41Z</time>
      </trkpt>
      <trkpt lat="46.34831" lon="-1.35774">
        <ele>4.4</ele>
        <time>2020-06-02T17:20:42Z</time>
      </trkpt>
      <trkpt lat="46.34831" lon="-1.35774">
        <ele>4.4</ele>
        <time>2020-06-02T17:20:43Z</time>
      </trkpt>
      <trkpt lat="46.34831" lon="-1.35774">
        <ele>4.4</ele>
        <time>2020-06-02T17:20:44Z</time>
      </trkpt>
      <trkpt lat="46.34831" lon="-1.35774">
        <ele>4.4</ele>
        <time>2020-06-02T17:20:45Z</time>
      </trkpt>
      <trkpt lat="46.34831" lon="-1.35774">
        <ele>4.4</ele>
        <time>2020-06-02T17:20:46Z</time>
      </trkpt>
      <trkpt lat="46.34831" lon="-1.35774">
        <ele>4.4</ele>
        <time>2020-06-02T17:20:47Z</time>
      </trkpt>
      <trkpt lat="46.34831" lon="-1.35774">
        <ele>4.4</ele>
        <time>2020-06-02T17:20:48Z</time>
      </trkpt>
      <trkpt lat="46.34831" lon="-1.35774">
        <ele>4.4</ele>
        <time>2020-06-02T17:20:49Z</time>
      </trkpt>
      <trkpt lat="46.34831" lon="-1.35774">
        <ele>4.4</ele>
        <time>2020-06-02T17:20:50Z</time>
      </trkpt>
      <trkpt lat="46.34831" lon="-1.35774">
        <ele>4.4</ele>
        <time>2020-06-02T17:20:51Z</time>
      </trkpt>
      <trkpt lat="46.34831" lon="-1.35774">
        <ele>4.4</ele>
        <time>2020-06-02T17:20:52Z</time>
      </trkpt>
      <trkpt lat="46.34831" lon="-1.35774">
        <ele>4.4</ele>
        <time>2020-06-02T17:20:53Z</time>
      </trkpt>
      <trkpt lat="46.34831" lon="-1.35774">
        <ele>4.4</ele>
        <time>2020-06-02T17:20:54Z</time>
      </trkpt>
      <trkpt lat="46.34831" lon="-1.35774">
        <ele>4.4</ele>
        <time>2020-06-02T17:20:55Z</time>
      </trkpt>
      <trkpt lat="46.34831" lon="-1.35774">
        <ele>4.4</ele>
        <time>2020-06-02T17:20:56Z</time>
      </trkpt>
      <trkpt lat="46.34832" lon="-1.35774">
        <ele>4.4</ele>
        <time>2020-06-02T17:20:57Z</time>
      </trkpt>
      <trkpt lat="46.34832" lon="-1.35774">
        <ele>4.4</ele>
        <time>2020-06-02T17:20:58Z</time>
      </trkpt>
      <trkpt lat="46.34832" lon="-1.35773">
        <ele>4.4</ele>
        <time>2020-06-02T17:20:59Z</time>
      </trkpt>
      <trkpt lat="46.34833" lon="-1.35772">
        <ele>4.4</ele>
        <time>2020-06-02T17:21:00Z</time>
      </trkpt>
      <trkpt lat="46.34833" lon="-1.35773">
        <ele>4.4</ele>
        <time>2020-06-02T17:21:01Z</time>
      </trkpt>
      <trkpt lat="46.34833" lon="-1.35772">
        <ele>4.4</ele>
        <time>2020-06-02T17:21:02Z</time>
      </trkpt>
      <trkpt lat="46.34833" lon="-1.35772">
        <ele>4.4</ele>
        <time>2020-06-02T17:21:03Z</time>
      </trkpt>
      <trkpt lat="46.34833" lon="-1.35772">
        <ele>4.4</ele>
        <time>2020-06-02T17:21:04Z</time>
      </trkpt>
      <trkpt lat="46.34833" lon="-1.35772">
        <ele>4.4</ele>
        <time>2020-06-02T17:21:05Z</time>
      </trkpt>
      <trkpt lat="46.34833" lon="-1.35772">
        <ele>4.4</ele>
        <time>2020-06-02T17:21:06Z</time>
      </trkpt>
      <trkpt lat="46.34833" lon="-1.35772">
        <ele>4.4</ele>
        <time>2020-06-02T17:21:07Z</time>
      </trkpt>
      <trkpt lat="46.34833" lon="-1.35772">
        <ele>4.4</ele>
        <time>2020-06-02T17:21:08Z</time>
      </trkpt>
      <trkpt lat="46.34833" lon="-1.35771">
        <ele>4.4</ele>
        <time>2020-06-02T17:21:09Z</time>
      </trkpt>
      <trkpt lat="46.34832" lon="-1.35771">
        <ele>4.4</ele>
        <time>2020-06-02T17:21:10Z</time>
      </trkpt>
      <trkpt lat="46.34832" lon="-1.35771">
        <ele>4.4</ele>
        <time>2020-06-02T17:21:11Z</time>
      </trkpt>
      <trkpt lat="46.34831" lon="-1.35771">
        <ele>4.4</ele>
        <time>2020-06-02T17:21:12Z</time>
      </trkpt>
      <trkpt lat="46.34831" lon="-1.35771">
        <ele>4.4</ele>
        <time>2020-06-02T17:21:13Z</time>
      </trkpt>
      <trkpt lat="46.34831" lon="-1.35771">
        <ele>4.4</ele>
        <time>2020-06-02T17:21:14Z</time>
      </trkpt>
      <trkpt lat="46.34831" lon="-1.35772">
        <ele>4.4</ele>
        <time>2020-06-02T17:21:15Z</time>
      </trkpt>
      <trkpt lat="46.34832" lon="-1.35773">
        <ele>4.4</ele>
        <time>2020-06-02T17:21:16Z</time>
      </trkpt>
      <trkpt lat="46.34833" lon="-1.35772">
        <ele>4.4</ele>
        <time>2020-06-02T17:21:17Z</time>
      </trkpt>
      <trkpt lat="46.34833" lon="-1.35773">
        <ele>4.4</ele>
        <time>2020-06-02T17:21:18Z</time>
      </trkpt>
      <trkpt lat="46.34834" lon="-1.35773">
        <ele>4.4</ele>
        <time>2020-06-02T17:21:19Z</time>
      </trkpt>
      <trkpt lat="46.34835" lon="-1.35773">
        <ele>4.4</ele>
        <time>2020-06-02T17:21:20Z</time>
      </trkpt>
      <trkpt lat="46.34836" lon="-1.35773">
        <ele>4.4</ele>
        <time>2020-06-02T17:21:21Z</time>
      </trkpt>
      <trkpt lat="46.34836" lon="-1.35772">
        <ele>4.4</ele>
        <time>2020-06-02T17:21:22Z</time>
      </trkpt>
      <trkpt lat="46.34837" lon="-1.35771">
        <ele>4.4</ele>
        <time>2020-06-02T17:21:23Z</time>
      </trkpt>
      <trkpt lat="46.34837" lon="-1.35771">
        <ele>4.4</ele>
        <time>2020-06-02T17:21:24Z</time>
      </trkpt>
      <trkpt lat="46.34838" lon="-1.35772">
        <ele>4.4</ele>
        <time>2020-06-02T17:21:25Z</time>
      </trkpt>
      <trkpt lat="46.34838" lon="-1.35771">
        <ele>4.4</ele>
        <time>2020-06-02T17:21:26Z</time>
      </trkpt>
      <trkpt lat="46.34837" lon="-1.35771">
        <ele>4.4</ele>
        <time>2020-06-02T17:21:27Z</time>
      </trkpt>
      <trkpt lat="46.34837" lon="-1.35771">
        <ele>4.4</ele>
        <time>2020-06-02T17:21:28Z</time>
      </trkpt>
      <trkpt lat="46.34837" lon="-1.35771">
        <ele>4.4</ele>
        <time>2020-06-02T17:21:29Z</time>
      </trkpt>
      <trkpt lat="46.34837" lon="-1.35771">
        <ele>4.4</ele>
        <time>2020-06-02T17:21:30Z</time>
      </trkpt>
      <trkpt lat="46.34837" lon="-1.35771">
        <ele>4.4</ele>
        <time>2020-06-02T17:21:31Z</time>
      </trkpt>
      <trkpt lat="46.34837" lon="-1.35771">
        <ele>4.4</ele>
        <time>2020-06-02T17:21:32Z</time>
      </trkpt>
      <trkpt lat="46.34836" lon="-1.35771">
        <ele>4.4</ele>
        <time>2020-06-02T17:21:33Z</time>
      </trkpt>
      <trkpt lat="46.34836" lon="-1.35771">
        <ele>4.4</ele>
        <time>2020-06-02T17:21:34Z</time>
      </trkpt>
      <trkpt lat="46.34836" lon="-1.3577">
        <ele>4.4</ele>
        <time>2020-06-02T17:21:35Z</time>
      </trkpt>
      <trkpt lat="46.34835" lon="-1.35769">
        <ele>4.4</ele>
        <time>2020-06-02T17:21:36Z</time>
      </trkpt>
      <trkpt lat="46.34836" lon="-1.35768">
        <ele>4.4</ele>
        <time>2020-06-02T17:21:37Z</time>
      </trkpt>
      <trkpt lat="46.34836" lon="-1.35766">
        <ele>4.4</ele>
        <time>2020-06-02T17:21:38Z</time>
      </trkpt>
      <trkpt lat="46.34836" lon="-1.35766">
        <ele>4.4</ele>
        <time>2020-06-02T17:21:39Z</time>
      </trkpt>
      <trkpt lat="46.34836" lon="-1.35766">
        <ele>4.4</ele>
        <time>2020-06-02T17:21:40Z</time>
      </trkpt>
      <trkpt lat="46.34836" lon="-1.35766">
        <ele>4.4</ele>
        <time>2020-06-02T17:21:41Z</time>
      </trkpt>
      <trkpt lat="46.34835" lon="-1.35766">
        <ele>4.4</ele>
        <time>2020-06-02T17:21:42Z</time>
      </trkpt>
      <trkpt lat="46.34835" lon="-1.35766">
        <ele>4.4</ele>
        <time>2020-06-02T17:21:43Z</time>
      </trkpt>
      <trkpt lat="46.34835" lon="-1.35766">
        <ele>4.4</ele>
        <time>2020-06-02T17:21:44Z</time>
      </trkpt>
      <trkpt lat="46.34835" lon="-1.35766">
        <ele>4.4</ele>
        <time>2020-06-02T17:21:45Z</time>
      </trkpt>
      <trkpt lat="46.34835" lon="-1.35766">
        <ele>4.4</ele>
        <time>2020-06-02T17:21:46Z</time>
      </trkpt>
      <trkpt lat="46.34835" lon="-1.35767">
        <ele>4.4</ele>
        <time>2020-06-02T17:21:47Z</time>
      </trkpt>
      <trkpt lat="46.34835" lon="-1.35767">
        <ele>4.4</ele>
        <time>2020-06-02T17:21:48Z</time>
      </trkpt>
      <trkpt lat="46.34835" lon="-1.35767">
        <ele>4.4</ele>
        <time>2020-06-02T17:21:49Z</time>
      </trkpt>
      <trkpt lat="46.34835" lon="-1.35767">
        <ele>4.4</ele>
        <time>2020-06-02T17:21:50Z</time>
      </trkpt>
      <trkpt lat="46.34835" lon="-1.35767">
        <ele>4.4</ele>
        <time>2020-06-02T17:21:51Z</time>
      </trkpt>
      <trkpt lat="46.34835" lon="-1.35767">
        <ele>4.4</ele>
        <time>2020-06-02T17:21:52Z</time>
      </trkpt>
      <trkpt lat="46.34835" lon="-1.35767">
        <ele>4.4</ele>
        <time>2020-06-02T17:21:53Z</time>
      </trkpt>
      <trkpt lat="46.34835" lon="-1.35767">
        <ele>4.4</ele>
        <time>2020-06-02T17:21:54Z</time>
      </trkpt>
      <trkpt lat="46.34835" lon="-1.35767">
        <ele>4.4</ele>
        <time>2020-06-02T17:21:55Z</time>
      </trkpt>
      <trkpt lat="46.34835" lon="-1.35767">
        <ele>4.4</ele>
        <time>2020-06-02T17:21:56Z</time>
      </trkpt>
      <trkpt lat="46.34835" lon="-1.35767">
        <ele>4.4</ele>
        <time>2020-06-02T17:21:57Z</time>
      </trkpt>
      <trkpt lat="46.34835" lon="-1.35767">
        <ele>4.4</ele>
        <time>2020-06-02T17:21:58Z</time>
      </trkpt>
      <trkpt lat="46.34835" lon="-1.35767">
        <ele>4.4</ele>
        <time>2020-06-02T17:21:59Z</time>
      </trkpt>
      <trkpt lat="46.34836" lon="-1.35767">
        <ele>4.4</ele>
        <time>2020-06-02T17:22:00Z</time>
      </trkpt>
      <trkpt lat="46.34837" lon="-1.35767">
        <ele>4.4</ele>
        <time>2020-06-02T17:22:01Z</time>
      </trkpt>
      <trkpt lat="46.34837" lon="-1.35767">
        <ele>4.4</ele>
        <time>2020-06-02T17:22:02Z</time>
      </trkpt>
      <trkpt lat="46.34837" lon="-1.35767">
        <ele>4.4</ele>
        <time>2020-06-02T17:22:03Z</time>
      </trkpt>
      <trkpt lat="46.34836" lon="-1.35767">
        <ele>4.4</ele>
        <time>2020-06-02T17:22:04Z</time>
      </trkpt>
      <trkpt lat="46.34836" lon="-1.35768">
        <ele>4.4</ele>
        <time>2020-06-02T17:22:05Z</time>
      </trkpt>
      <trkpt lat="46.34837" lon="-1.35768">
        <ele>4.4</ele>
        <time>2020-06-02T17:22:06Z</time>
      </trkpt>
      <trkpt lat="46.34837" lon="-1.35768">
        <ele>4.4</ele>
        <time>2020-06-02T17:22:07Z</time>
      </trkpt>
      <trkpt lat="46.34836" lon="-1.35768">
        <ele>4.4</ele>
        <time>2020-06-02T17:22:08Z</time>
      </trkpt>
      <trkpt lat="46.34837" lon="-1.35768">
        <ele>4.4</ele>
        <time>2020-06-02T17:22:09Z</time>
      </trkpt>
      <trkpt lat="46.34838" lon="-1.3577">
        <ele>4.4</ele>
        <time>2020-06-02T17:22:10Z</time>
      </trkpt>
      <trkpt lat="46.34837" lon="-1.35772">
        <ele>4.4</ele>
        <time>2020-06-02T17:22:11Z</time>
      </trkpt>
      <trkpt lat="46.34839" lon="-1.35777">
        <ele>4.4</ele>
        <time>2020-06-02T17:22:12Z</time>
      </trkpt>
      <trkpt lat="46.34839" lon="-1.35779">
        <ele>4.4</ele>
        <time>2020-06-02T17:22:13Z</time>
      </trkpt>
      <trkpt lat="46.34841" lon="-1.35788">
        <ele>4.4</ele>
        <time>2020-06-02T17:22:14Z</time>
      </trkpt>
      <trkpt lat="46.34844" lon="-1.35796">
        <ele>4.3</ele>
        <time>2020-06-02T17:22:15Z</time>
      </trkpt>
      <trkpt lat="46.34846" lon="-1.35801">
        <ele>4.3</ele>
        <time>2020-06-02T17:22:16Z</time>
      </trkpt>
      <trkpt lat="46.34847" lon="-1.35807">
        <ele>4.3</ele>
        <time>2020-06-02T17:22:17Z</time>
      </trkpt>
      <trkpt lat="46.34848" lon="-1.35813">
        <ele>4.3</ele>
        <time>2020-06-02T17:22:18Z</time>
      </trkpt>
      <trkpt lat="46.34849" lon="-1.35819">
        <ele>4.3</ele>
        <time>2020-06-02T17:22:19Z</time>
      </trkpt>
      <trkpt lat="46.34851" lon="-1.35824">
        <ele>4.3</ele>
        <time>2020-06-02T17:22:20Z</time>
      </trkpt>
      <trkpt lat="46.34853" lon="-1.35829">
        <ele>4.3</ele>
        <time>2020-06-02T17:22:21Z</time>
      </trkpt>
      <trkpt lat="46.34854" lon="-1.35834">
        <ele>4.3</ele>
        <time>2020-06-02T17:22:22Z</time>
      </trkpt>
      <trkpt lat="46.34856" lon="-1.35838">
        <ele>4.3</ele>
        <time>2020-06-02T17:22:23Z</time>
      </trkpt>
      <trkpt lat="46.34857" lon="-1.35844">
        <ele>4.3</ele>
        <time>2020-06-02T17:22:24Z</time>
      </trkpt>
      <trkpt lat="46.34858" lon="-1.35849">
        <ele>4.3</ele>
        <time>2020-06-02T17:22:25Z</time>
      </trkpt>
      <trkpt lat="46.34859" lon="-1.35854">
        <ele>4.3</ele>
        <time>2020-06-02T17:22:26Z</time>
      </trkpt>
      <trkpt lat="46.3486" lon="-1.3586">
        <ele>4.3</ele>
        <time>2020-06-02T17:22:27Z</time>
      </trkpt>
      <trkpt lat="46.34862" lon="-1.35864">
        <ele>4.3</ele>
        <time>2020-06-02T17:22:28Z</time>
      </trkpt>
      <trkpt lat="46.34863" lon="-1.35871">
        <ele>4.3</ele>
        <time>2020-06-02T17:22:29Z</time>
      </trkpt>
      <trkpt lat="46.34864" lon="-1.35878">
        <ele>4.2</ele>
        <time>2020-06-02T17:22:30Z</time>
      </trkpt>
      <trkpt lat="46.34866" lon="-1.35883">
        <ele>4.2</ele>
        <time>2020-06-02T17:22:31Z</time>
      </trkpt>
      <trkpt lat="46.34867" lon="-1.35888">
        <ele>4.2</ele>
        <time>2020-06-02T17:22:32Z</time>
      </trkpt>
      <trkpt lat="46.34868" lon="-1.35893">
        <ele>4.2</ele>
        <time>2020-06-02T17:22:33Z</time>
      </trkpt>
      <trkpt lat="46.3487" lon="-1.35899">
        <ele>4.2</ele>
        <time>2020-06-02T17:22:34Z</time>
      </trkpt>
      <trkpt lat="46.34872" lon="-1.35906">
        <ele>4.2</ele>
        <time>2020-06-02T17:22:35Z</time>
      </trkpt>
      <trkpt lat="46.34875" lon="-1.35913">
        <ele>4.2</ele>
        <time>2020-06-02T17:22:36Z</time>
      </trkpt>
      <trkpt lat="46.34876" lon="-1.3592">
        <ele>4.2</ele>
        <time>2020-06-02T17:22:37Z</time>
      </trkpt>
      <trkpt lat="46.34876" lon="-1.35926">
        <ele>4.2</ele>
        <time>2020-06-02T17:22:38Z</time>
      </trkpt>
      <trkpt lat="46.34877" lon="-1.35932">
        <ele>4.1</ele>
        <time>2020-06-02T17:22:39Z</time>
      </trkpt>
      <trkpt lat="46.34878" lon="-1.35939">
        <ele>4.1</ele>
        <time>2020-06-02T17:22:40Z</time>
      </trkpt>
      <trkpt lat="46.34878" lon="-1.35945">
        <ele>4.1</ele>
        <time>2020-06-02T17:22:41Z</time>
      </trkpt>
      <trkpt lat="46.34878" lon="-1.35952">
        <ele>4.1</ele>
        <time>2020-06-02T17:22:42Z</time>
      </trkpt>
      <trkpt lat="46.34879" lon="-1.35961">
        <ele>4.1</ele>
        <time>2020-06-02T17:22:43Z</time>
      </trkpt>
      <trkpt lat="46.34878" lon="-1.35967">
        <ele>4.1</ele>
        <time>2020-06-02T17:22:44Z</time>
      </trkpt>
      <trkpt lat="46.34878" lon="-1.35974">
        <ele>4.1</ele>
        <time>2020-06-02T17:22:45Z</time>
      </trkpt>
      <trkpt lat="46.34878" lon="-1.35982">
        <ele>4.1</ele>
        <time>2020-06-02T17:22:46Z</time>
      </trkpt>
      <trkpt lat="46.34878" lon="-1.35989">
        <ele>4.1</ele>
        <time>2020-06-02T17:22:47Z</time>
      </trkpt>
      <trkpt lat="46.34877" lon="-1.35996">
        <ele>4.1</ele>
        <time>2020-06-02T17:22:48Z</time>
      </trkpt>
      <trkpt lat="46.34877" lon="-1.36002">
        <ele>4.1</ele>
        <time>2020-06-02T17:22:49Z</time>
      </trkpt>
      <trkpt lat="46.34877" lon="-1.36008">
        <ele>4.1</ele>
        <time>2020-06-02T17:22:50Z</time>
      </trkpt>
      <trkpt lat="46.34877" lon="-1.36015">
        <ele>4.1</ele>
        <time>2020-06-02T17:22:51Z</time>
      </trkpt>
      <trkpt lat="46.34877" lon="-1.36021">
        <ele>4</ele>
        <time>2020-06-02T17:22:52Z</time>
      </trkpt>
      <trkpt lat="46.34878" lon="-1.36028">
        <ele>4</ele>
        <time>2020-06-02T17:22:53Z</time>
      </trkpt>
      <trkpt lat="46.34878" lon="-1.36035">
        <ele>4</ele>
        <time>2020-06-02T17:22:54Z</time>
      </trkpt>
      <trkpt lat="46.34879" lon="-1.36043">
        <ele>4</ele>
        <time>2020-06-02T17:22:55Z</time>
      </trkpt>
      <trkpt lat="46.3488" lon="-1.36051">
        <ele>4</ele>
        <time>2020-06-02T17:22:56Z</time>
      </trkpt>
      <trkpt lat="46.34881" lon="-1.36059">
        <ele>4</ele>
        <time>2020-06-02T17:22:57Z</time>
      </trkpt>
      <trkpt lat="46.34882" lon="-1.36067">
        <ele>4</ele>
        <time>2020-06-02T17:22:58Z</time>
      </trkpt>
      <trkpt lat="46.34883" lon="-1.36074">
        <ele>4</ele>
        <time>2020-06-02T17:22:59Z</time>
      </trkpt>
      <trkpt lat="46.34884" lon="-1.36081">
        <ele>4</ele>
        <time>2020-06-02T17:23:00Z</time>
      </trkpt>
      <trkpt lat="46.34885" lon="-1.36088">
        <ele>4</ele>
        <time>2020-06-02T17:23:01Z</time>
      </trkpt>
      <trkpt lat="46.34885" lon="-1.36095">
        <ele>4</ele>
        <time>2020-06-02T17:23:02Z</time>
      </trkpt>
      <trkpt lat="46.34885" lon="-1.36102">
        <ele>4</ele>
        <time>2020-06-02T17:23:03Z</time>
      </trkpt>
      <trkpt lat="46.34885" lon="-1.3611">
        <ele>4</ele>
        <time>2020-06-02T17:23:04Z</time>
      </trkpt>
      <trkpt lat="46.34886" lon="-1.36119">
        <ele>4</ele>
        <time>2020-06-02T17:23:05Z</time>
      </trkpt>
      <trkpt lat="46.34886" lon="-1.36126">
        <ele>4</ele>
        <time>2020-06-02T17:23:06Z</time>
      </trkpt>
      <trkpt lat="46.34888" lon="-1.36134">
        <ele>4</ele>
        <time>2020-06-02T17:23:07Z</time>
      </trkpt>
      <trkpt lat="46.34888" lon="-1.36141">
        <ele>4</ele>
        <time>2020-06-02T17:23:08Z</time>
      </trkpt>
      <trkpt lat="46.34888" lon="-1.36148">
        <ele>4</ele>
        <time>2020-06-02T17:23:09Z</time>
      </trkpt>
      <trkpt lat="46.34889" lon="-1.36155">
        <ele>4</ele>
        <time>2020-06-02T17:23:10Z</time>
      </trkpt>
      <trkpt lat="46.34889" lon="-1.36163">
        <ele>4.1</ele>
        <time>2020-06-02T17:23:11Z</time>
      </trkpt>
      <trkpt lat="46.34889" lon="-1.36171">
        <ele>4.1</ele>
        <time>2020-06-02T17:23:12Z</time>
      </trkpt>
      <trkpt lat="46.34889" lon="-1.36179">
        <ele>4.1</ele>
        <time>2020-06-02T17:23:13Z</time>
      </trkpt>
      <trkpt lat="46.34889" lon="-1.36187">
        <ele>4.1</ele>
        <time>2020-06-02T17:23:14Z</time>
      </trkpt>
      <trkpt lat="46.34889" lon="-1.36195">
        <ele>4.1</ele>
        <time>2020-06-02T17:23:15Z</time>
      </trkpt>
      <trkpt lat="46.3489" lon="-1.36203">
        <ele>4.2</ele>
        <time>2020-06-02T17:23:16Z</time>
      </trkpt>
      <trkpt lat="46.34889" lon="-1.36211">
        <ele>4.2</ele>
        <time>2020-06-02T17:23:17Z</time>
      </trkpt>
      <trkpt lat="46.34889" lon="-1.36218">
        <ele>4.2</ele>
        <time>2020-06-02T17:23:18Z</time>
      </trkpt>
      <trkpt lat="46.34889" lon="-1.36226">
        <ele>4.2</ele>
        <time>2020-06-02T17:23:19Z</time>
      </trkpt>
      <trkpt lat="46.34889" lon="-1.36234">
        <ele>4.2</ele>
        <time>2020-06-02T17:23:20Z</time>
      </trkpt>
      <trkpt lat="46.34891" lon="-1.36242">
        <ele>4.2</ele>
        <time>2020-06-02T17:23:21Z</time>
      </trkpt>
      <trkpt lat="46.34891" lon="-1.36249">
        <ele>4.2</ele>
        <time>2020-06-02T17:23:22Z</time>
      </trkpt>
      <trkpt lat="46.34891" lon="-1.36257">
        <ele>4.3</ele>
        <time>2020-06-02T17:23:23Z</time>
      </trkpt>
      <trkpt lat="46.34891" lon="-1.36264">
        <ele>4.3</ele>
        <time>2020-06-02T17:23:24Z</time>
      </trkpt>
      <trkpt lat="46.34891" lon="-1.36272">
        <ele>4.3</ele>
        <time>2020-06-02T17:23:25Z</time>
      </trkpt>
      <trkpt lat="46.34891" lon="-1.3628">
        <ele>4.3</ele>
        <time>2020-06-02T17:23:26Z</time>
      </trkpt>
      <trkpt lat="46.3489" lon="-1.36287">
        <ele>4.3</ele>
        <time>2020-06-02T17:23:27Z</time>
      </trkpt>
      <trkpt lat="46.34891" lon="-1.36295">
        <ele>4.3</ele>
        <time>2020-06-02T17:23:28Z</time>
      </trkpt>
      <trkpt lat="46.34892" lon="-1.36302">
        <ele>4.3</ele>
        <time>2020-06-02T17:23:29Z</time>
      </trkpt>
      <trkpt lat="46.34892" lon="-1.36309">
        <ele>4.3</ele>
        <time>2020-06-02T17:23:30Z</time>
      </trkpt>
      <trkpt lat="46.34892" lon="-1.36317">
        <ele>4.3</ele>
        <time>2020-06-02T17:23:31Z</time>
      </trkpt>
      <trkpt lat="46.34893" lon="-1.36326">
        <ele>4.3</ele>
        <time>2020-06-02T17:23:32Z</time>
      </trkpt>
      <trkpt lat="46.34893" lon="-1.36334">
        <ele>4.3</ele>
        <time>2020-06-02T17:23:33Z</time>
      </trkpt>
      <trkpt lat="46.34894" lon="-1.3634">
        <ele>4.3</ele>
        <time>2020-06-02T17:23:34Z</time>
      </trkpt>
      <trkpt lat="46.34894" lon="-1.36346">
        <ele>4.3</ele>
        <time>2020-06-02T17:23:35Z</time>
      </trkpt>
      <trkpt lat="46.34895" lon="-1.36351">
        <ele>4.3</ele>
        <time>2020-06-02T17:23:36Z</time>
      </trkpt>
      <trkpt lat="46.34896" lon="-1.36358">
        <ele>4.3</ele>
        <time>2020-06-02T17:23:37Z</time>
      </trkpt>
      <trkpt lat="46.34897" lon="-1.36365">
        <ele>4.3</ele>
        <time>2020-06-02T17:23:38Z</time>
      </trkpt>
      <trkpt lat="46.34897" lon="-1.36372">
        <ele>4.3</ele>
        <time>2020-06-02T17:23:39Z</time>
      </trkpt>
      <trkpt lat="46.34897" lon="-1.36379">
        <ele>4.3</ele>
        <time>2020-06-02T17:23:40Z</time>
      </trkpt>
      <trkpt lat="46.34897" lon="-1.36386">
        <ele>4.3</ele>
        <time>2020-06-02T17:23:41Z</time>
      </trkpt>
      <trkpt lat="46.34897" lon="-1.36394">
        <ele>4.3</ele>
        <time>2020-06-02T17:23:42Z</time>
      </trkpt>
      <trkpt lat="46.34896" lon="-1.36402">
        <ele>4.3</ele>
        <time>2020-06-02T17:23:43Z</time>
      </trkpt>
      <trkpt lat="46.34896" lon="-1.36409">
        <ele>4.3</ele>
        <time>2020-06-02T17:23:44Z</time>
      </trkpt>
      <trkpt lat="46.34896" lon="-1.36417">
        <ele>4.3</ele>
        <time>2020-06-02T17:23:45Z</time>
      </trkpt>
      <trkpt lat="46.34895" lon="-1.36423">
        <ele>4.3</ele>
        <time>2020-06-02T17:23:46Z</time>
      </trkpt>
      <trkpt lat="46.34894" lon="-1.36429">
        <ele>4.3</ele>
        <time>2020-06-02T17:23:47Z</time>
      </trkpt>
      <trkpt lat="46.34893" lon="-1.36435">
        <ele>4.3</ele>
        <time>2020-06-02T17:23:48Z</time>
      </trkpt>
      <trkpt lat="46.34893" lon="-1.36442">
        <ele>4.3</ele>
        <time>2020-06-02T17:23:49Z</time>
      </trkpt>
      <trkpt lat="46.34895" lon="-1.36449">
        <ele>4.3</ele>
        <time>2020-06-02T17:23:50Z</time>
      </trkpt>
      <trkpt lat="46.34895" lon="-1.36456">
        <ele>4.2</ele>
        <time>2020-06-02T17:23:51Z</time>
      </trkpt>
      <trkpt lat="46.34896" lon="-1.36463">
        <ele>4.2</ele>
        <time>2020-06-02T17:23:52Z</time>
      </trkpt>
      <trkpt lat="46.34897" lon="-1.3647">
        <ele>4.2</ele>
        <time>2020-06-02T17:23:53Z</time>
      </trkpt>
      <trkpt lat="46.34897" lon="-1.36477">
        <ele>4.2</ele>
        <time>2020-06-02T17:23:54Z</time>
      </trkpt>
      <trkpt lat="46.34897" lon="-1.36484">
        <ele>4.2</ele>
        <time>2020-06-02T17:23:55Z</time>
      </trkpt>
      <trkpt lat="46.34896" lon="-1.36494">
        <ele>4.1</ele>
        <time>2020-06-02T17:23:56Z</time>
      </trkpt>
      <trkpt lat="46.34895" lon="-1.36501">
        <ele>4.1</ele>
        <time>2020-06-02T17:23:57Z</time>
      </trkpt>
      <trkpt lat="46.34895" lon="-1.36506">
        <ele>4.1</ele>
        <time>2020-06-02T17:23:58Z</time>
      </trkpt>
      <trkpt lat="46.34895" lon="-1.36513">
        <ele>4</ele>
        <time>2020-06-02T17:23:59Z</time>
      </trkpt>
      <trkpt lat="46.34896" lon="-1.3652">
        <ele>4</ele>
        <time>2020-06-02T17:24:00Z</time>
      </trkpt>
      <trkpt lat="46.34897" lon="-1.36528">
        <ele>3.9</ele>
        <time>2020-06-02T17:24:01Z</time>
      </trkpt>
      <trkpt lat="46.34897" lon="-1.36537">
        <ele>3.9</ele>
        <time>2020-06-02T17:24:02Z</time>
      </trkpt>
      <trkpt lat="46.34898" lon="-1.36543">
        <ele>3.9</ele>
        <time>2020-06-02T17:24:03Z</time>
      </trkpt>
      <trkpt lat="46.34899" lon="-1.36549">
        <ele>3.9</ele>
        <time>2020-06-02T17:24:04Z</time>
      </trkpt>
      <trkpt lat="46.34899" lon="-1.36555">
        <ele>3.9</ele>
        <time>2020-06-02T17:24:05Z</time>
      </trkpt>
      <trkpt lat="46.349" lon="-1.36561">
        <ele>3.9</ele>
        <time>2020-06-02T17:24:06Z</time>
      </trkpt>
      <trkpt lat="46.349" lon="-1.36568">
        <ele>3.9</ele>
        <time>2020-06-02T17:24:07Z</time>
      </trkpt>
      <trkpt lat="46.34899" lon="-1.36574">
        <ele>3.8</ele>
        <time>2020-06-02T17:24:08Z</time>
      </trkpt>
      <trkpt lat="46.34899" lon="-1.36581">
        <ele>3.8</ele>
        <time>2020-06-02T17:24:09Z</time>
      </trkpt>
      <trkpt lat="46.349" lon="-1.36589">
        <ele>3.8</ele>
        <time>2020-06-02T17:24:10Z</time>
      </trkpt>
      <trkpt lat="46.349" lon="-1.36596">
        <ele>3.8</ele>
        <time>2020-06-02T17:24:11Z</time>
      </trkpt>
      <trkpt lat="46.34901" lon="-1.36603">
        <ele>3.8</ele>
        <time>2020-06-02T17:24:12Z</time>
      </trkpt>
      <trkpt lat="46.34901" lon="-1.36609">
        <ele>3.8</ele>
        <time>2020-06-02T17:24:13Z</time>
      </trkpt>
      <trkpt lat="46.34902" lon="-1.36615">
        <ele>3.7</ele>
        <time>2020-06-02T17:24:14Z</time>
      </trkpt>
      <trkpt lat="46.34904" lon="-1.36621">
        <ele>3.7</ele>
        <time>2020-06-02T17:24:15Z</time>
      </trkpt>
      <trkpt lat="46.34905" lon="-1.36628">
        <ele>3.7</ele>
        <time>2020-06-02T17:24:16Z</time>
      </trkpt>
      <trkpt lat="46.34906" lon="-1.36635">
        <ele>3.7</ele>
        <time>2020-06-02T17:24:17Z</time>
      </trkpt>
      <trkpt lat="46.34908" lon="-1.36641">
        <ele>3.8</ele>
        <time>2020-06-02T17:24:18Z</time>
      </trkpt>
      <trkpt lat="46.3491" lon="-1.36647">
        <ele>3.8</ele>
        <time>2020-06-02T17:24:19Z</time>
      </trkpt>
      <trkpt lat="46.34912" lon="-1.36652">
        <ele>3.9</ele>
        <time>2020-06-02T17:24:20Z</time>
      </trkpt>
      <trkpt lat="46.34915" lon="-1.36657">
        <ele>4</ele>
        <time>2020-06-02T17:24:21Z</time>
      </trkpt>
      <trkpt lat="46.34918" lon="-1.36662">
        <ele>4.1</ele>
        <time>2020-06-02T17:24:22Z</time>
      </trkpt>
      <trkpt lat="46.3492" lon="-1.36668">
        <ele>4.1</ele>
        <time>2020-06-02T17:24:23Z</time>
      </trkpt>
      <trkpt lat="46.34923" lon="-1.36673">
        <ele>4.2</ele>
        <time>2020-06-02T17:24:24Z</time>
      </trkpt>
      <trkpt lat="46.34925" lon="-1.36679">
        <ele>4.3</ele>
        <time>2020-06-02T17:24:25Z</time>
      </trkpt>
      <trkpt lat="46.34927" lon="-1.36685">
        <ele>4.3</ele>
        <time>2020-06-02T17:24:26Z</time>
      </trkpt>
      <trkpt lat="46.34929" lon="-1.36692">
        <ele>4.4</ele>
        <time>2020-06-02T17:24:27Z</time>
      </trkpt>
      <trkpt lat="46.3493" lon="-1.36698">
        <ele>4.5</ele>
        <time>2020-06-02T17:24:28Z</time>
      </trkpt>
      <trkpt lat="46.34931" lon="-1.36704">
        <ele>4.5</ele>
        <time>2020-06-02T17:24:29Z</time>
      </trkpt>
      <trkpt lat="46.34932" lon="-1.36709">
        <ele>4.5</ele>
        <time>2020-06-02T17:24:30Z</time>
      </trkpt>
      <trkpt lat="46.34933" lon="-1.36714">
        <ele>4.5</ele>
        <time>2020-06-02T17:24:31Z</time>
      </trkpt>
      <trkpt lat="46.34935" lon="-1.36719">
        <ele>4.5</ele>
        <time>2020-06-02T17:24:32Z</time>
      </trkpt>
      <trkpt lat="46.34936" lon="-1.36723">
        <ele>4.6</ele>
        <time>2020-06-02T17:24:33Z</time>
      </trkpt>
      <trkpt lat="46.34938" lon="-1.36727">
        <ele>4.6</ele>
        <time>2020-06-02T17:24:34Z</time>
      </trkpt>
      <trkpt lat="46.3494" lon="-1.3673">
        <ele>4.6</ele>
        <time>2020-06-02T17:24:35Z</time>
      </trkpt>
      <trkpt lat="46.34942" lon="-1.36734">
        <ele>4.6</ele>
        <time>2020-06-02T17:24:36Z</time>
      </trkpt>
      <trkpt lat="46.34945" lon="-1.36738">
        <ele>4.6</ele>
        <time>2020-06-02T17:24:37Z</time>
      </trkpt>
      <trkpt lat="46.34947" lon="-1.36744">
        <ele>4.6</ele>
        <time>2020-06-02T17:24:38Z</time>
      </trkpt>
      <trkpt lat="46.34948" lon="-1.3675">
        <ele>4.6</ele>
        <time>2020-06-02T17:24:39Z</time>
      </trkpt>
      <trkpt lat="46.34948" lon="-1.36756">
        <ele>4.6</ele>
        <time>2020-06-02T17:24:40Z</time>
      </trkpt>
      <trkpt lat="46.34948" lon="-1.36762">
        <ele>4.6</ele>
        <time>2020-06-02T17:24:41Z</time>
      </trkpt>
      <trkpt lat="46.34948" lon="-1.36769">
        <ele>4.6</ele>
        <time>2020-06-02T17:24:42Z</time>
      </trkpt>
      <trkpt lat="46.34949" lon="-1.36775">
        <ele>4.6</ele>
        <time>2020-06-02T17:24:43Z</time>
      </trkpt>
      <trkpt lat="46.34949" lon="-1.36781">
        <ele>4.6</ele>
        <time>2020-06-02T17:24:44Z</time>
      </trkpt>
      <trkpt lat="46.3495" lon="-1.36787">
        <ele>4.6</ele>
        <time>2020-06-02T17:24:45Z</time>
      </trkpt>
      <trkpt lat="46.3495" lon="-1.36794">
        <ele>4.6</ele>
        <time>2020-06-02T17:24:46Z</time>
      </trkpt>
      <trkpt lat="46.3495" lon="-1.36801">
        <ele>4.6</ele>
        <time>2020-06-02T17:24:47Z</time>
      </trkpt>
      <trkpt lat="46.34951" lon="-1.36807">
        <ele>4.7</ele>
        <time>2020-06-02T17:24:48Z</time>
      </trkpt>
      <trkpt lat="46.34951" lon="-1.36813">
        <ele>4.7</ele>
        <time>2020-06-02T17:24:49Z</time>
      </trkpt>
      <trkpt lat="46.3495" lon="-1.36819">
        <ele>4.8</ele>
        <time>2020-06-02T17:24:50Z</time>
      </trkpt>
      <trkpt lat="46.34951" lon="-1.36825">
        <ele>4.8</ele>
        <time>2020-06-02T17:24:51Z</time>
      </trkpt>
      <trkpt lat="46.34952" lon="-1.36832">
        <ele>4.9</ele>
        <time>2020-06-02T17:24:52Z</time>
      </trkpt>
      <trkpt lat="46.34952" lon="-1.36837">
        <ele>5</ele>
        <time>2020-06-02T17:24:53Z</time>
      </trkpt>
      <trkpt lat="46.3495" lon="-1.36842">
        <ele>5.1</ele>
        <time>2020-06-02T17:24:54Z</time>
      </trkpt>
      <trkpt lat="46.34949" lon="-1.36848">
        <ele>5.2</ele>
        <time>2020-06-02T17:24:55Z</time>
      </trkpt>
      <trkpt lat="46.34949" lon="-1.36854">
        <ele>5.3</ele>
        <time>2020-06-02T17:24:56Z</time>
      </trkpt>
      <trkpt lat="46.34948" lon="-1.3686">
        <ele>5.4</ele>
        <time>2020-06-02T17:24:57Z</time>
      </trkpt>
      <trkpt lat="46.34948" lon="-1.36867">
        <ele>5.4</ele>
        <time>2020-06-02T17:24:58Z</time>
      </trkpt>
      <trkpt lat="46.34947" lon="-1.36873">
        <ele>5.5</ele>
        <time>2020-06-02T17:24:59Z</time>
      </trkpt>
      <trkpt lat="46.34947" lon="-1.36879">
        <ele>5.5</ele>
        <time>2020-06-02T17:25:00Z</time>
      </trkpt>
      <trkpt lat="46.34947" lon="-1.36885">
        <ele>5.6</ele>
        <time>2020-06-02T17:25:01Z</time>
      </trkpt>
      <trkpt lat="46.34946" lon="-1.3689">
        <ele>5.6</ele>
        <time>2020-06-02T17:25:02Z</time>
      </trkpt>
      <trkpt lat="46.34945" lon="-1.36895">
        <ele>5.6</ele>
        <time>2020-06-02T17:25:03Z</time>
      </trkpt>
      <trkpt lat="46.34946" lon="-1.36901">
        <ele>5.7</ele>
        <time>2020-06-02T17:25:04Z</time>
      </trkpt>
      <trkpt lat="46.34945" lon="-1.36907">
        <ele>5.7</ele>
        <time>2020-06-02T17:25:05Z</time>
      </trkpt>
      <trkpt lat="46.34946" lon="-1.36914">
        <ele>5.7</ele>
        <time>2020-06-02T17:25:06Z</time>
      </trkpt>
      <trkpt lat="46.34946" lon="-1.3692">
        <ele>5.8</ele>
        <time>2020-06-02T17:25:07Z</time>
      </trkpt>
      <trkpt lat="46.34946" lon="-1.36927">
        <ele>5.8</ele>
        <time>2020-06-02T17:25:08Z</time>
      </trkpt>
      <trkpt lat="46.34946" lon="-1.36933">
        <ele>5.9</ele>
        <time>2020-06-02T17:25:09Z</time>
      </trkpt>
      <trkpt lat="46.34945" lon="-1.3694">
        <ele>5.9</ele>
        <time>2020-06-02T17:25:10Z</time>
      </trkpt>
      <trkpt lat="46.34945" lon="-1.36945">
        <ele>6</ele>
        <time>2020-06-02T17:25:11Z</time>
      </trkpt>
      <trkpt lat="46.34945" lon="-1.3695">
        <ele>6</ele>
        <time>2020-06-02T17:25:12Z</time>
      </trkpt>
      <trkpt lat="46.34945" lon="-1.36957">
        <ele>6.1</ele>
        <time>2020-06-02T17:25:13Z</time>
      </trkpt>
      <trkpt lat="46.34945" lon="-1.36964">
        <ele>6.1</ele>
        <time>2020-06-02T17:25:14Z</time>
      </trkpt>
      <trkpt lat="46.34944" lon="-1.3697">
        <ele>6.2</ele>
        <time>2020-06-02T17:25:15Z</time>
      </trkpt>
      <trkpt lat="46.34944" lon="-1.36976">
        <ele>6.2</ele>
        <time>2020-06-02T17:25:16Z</time>
      </trkpt>
      <trkpt lat="46.34943" lon="-1.36982">
        <ele>6.2</ele>
        <time>2020-06-02T17:25:17Z</time>
      </trkpt>
      <trkpt lat="46.34942" lon="-1.3699">
        <ele>6.3</ele>
        <time>2020-06-02T17:25:18Z</time>
      </trkpt>
      <trkpt lat="46.34941" lon="-1.36995">
        <ele>6.3</ele>
        <time>2020-06-02T17:25:19Z</time>
      </trkpt>
      <trkpt lat="46.34942" lon="-1.37001">
        <ele>6.3</ele>
        <time>2020-06-02T17:25:20Z</time>
      </trkpt>
      <trkpt lat="46.34942" lon="-1.37008">
        <ele>6.4</ele>
        <time>2020-06-02T17:25:21Z</time>
      </trkpt>
      <trkpt lat="46.34943" lon="-1.37016">
        <ele>6.4</ele>
        <time>2020-06-02T17:25:22Z</time>
      </trkpt>
      <trkpt lat="46.34943" lon="-1.37022">
        <ele>6.4</ele>
        <time>2020-06-02T17:25:23Z</time>
      </trkpt>
      <trkpt lat="46.34944" lon="-1.37029">
        <ele>6.4</ele>
        <time>2020-06-02T17:25:24Z</time>
      </trkpt>
      <trkpt lat="46.34944" lon="-1.37036">
        <ele>6.4</ele>
        <time>2020-06-02T17:25:25Z</time>
      </trkpt>
      <trkpt lat="46.34945" lon="-1.37042">
        <ele>6.4</ele>
        <time>2020-06-02T17:25:26Z</time>
      </trkpt>
      <trkpt lat="46.34945" lon="-1.37049">
        <ele>6.3</ele>
        <time>2020-06-02T17:25:27Z</time>
      </trkpt>
      <trkpt lat="46.34946" lon="-1.37055">
        <ele>6.3</ele>
        <time>2020-06-02T17:25:28Z</time>
      </trkpt>
      <trkpt lat="46.34946" lon="-1.37062">
        <ele>6.3</ele>
        <time>2020-06-02T17:25:29Z</time>
      </trkpt>
      <trkpt lat="46.34947" lon="-1.37068">
        <ele>6.3</ele>
        <time>2020-06-02T17:25:30Z</time>
      </trkpt>
      <trkpt lat="46.34947" lon="-1.37076">
        <ele>6.3</ele>
        <time>2020-06-02T17:25:31Z</time>
      </trkpt>
      <trkpt lat="46.34947" lon="-1.37083">
        <ele>6.2</ele>
        <time>2020-06-02T17:25:32Z</time>
      </trkpt>
      <trkpt lat="46.34948" lon="-1.37089">
        <ele>6.2</ele>
        <time>2020-06-02T17:25:33Z</time>
      </trkpt>
      <trkpt lat="46.34948" lon="-1.37097">
        <ele>6.2</ele>
        <time>2020-06-02T17:25:34Z</time>
      </trkpt>
      <trkpt lat="46.34949" lon="-1.37104">
        <ele>6.3</ele>
        <time>2020-06-02T17:25:35Z</time>
      </trkpt>
      <trkpt lat="46.3495" lon="-1.37112">
        <ele>6.3</ele>
        <time>2020-06-02T17:25:36Z</time>
      </trkpt>
      <trkpt lat="46.34949" lon="-1.37118">
        <ele>6.3</ele>
        <time>2020-06-02T17:25:37Z</time>
      </trkpt>
      <trkpt lat="46.34949" lon="-1.37124">
        <ele>6.3</ele>
        <time>2020-06-02T17:25:38Z</time>
      </trkpt>
      <trkpt lat="46.34949" lon="-1.37131">
        <ele>6.3</ele>
        <time>2020-06-02T17:25:39Z</time>
      </trkpt>
      <trkpt lat="46.34948" lon="-1.37137">
        <ele>6.3</ele>
        <time>2020-06-02T17:25:40Z</time>
      </trkpt>
      <trkpt lat="46.34947" lon="-1.37144">
        <ele>6.3</ele>
        <time>2020-06-02T17:25:41Z</time>
      </trkpt>
      <trkpt lat="46.34947" lon="-1.37151">
        <ele>6.3</ele>
        <time>2020-06-02T17:25:42Z</time>
      </trkpt>
      <trkpt lat="46.34947" lon="-1.37158">
        <ele>6.3</ele>
        <time>2020-06-02T17:25:43Z</time>
      </trkpt>
      <trkpt lat="46.34947" lon="-1.37165">
        <ele>6.3</ele>
        <time>2020-06-02T17:25:44Z</time>
      </trkpt>
      <trkpt lat="46.34946" lon="-1.37172">
        <ele>6.3</ele>
        <time>2020-06-02T17:25:45Z</time>
      </trkpt>
      <trkpt lat="46.34945" lon="-1.37179">
        <ele>6.2</ele>
        <time>2020-06-02T17:25:46Z</time>
      </trkpt>
      <trkpt lat="46.34943" lon="-1.37187">
        <ele>6.2</ele>
        <time>2020-06-02T17:25:47Z</time>
      </trkpt>
      <trkpt lat="46.34942" lon="-1.37193">
        <ele>6.2</ele>
        <time>2020-06-02T17:25:48Z</time>
      </trkpt>
      <trkpt lat="46.3494" lon="-1.37199">
        <ele>6.2</ele>
        <time>2020-06-02T17:25:49Z</time>
      </trkpt>
      <trkpt lat="46.34938" lon="-1.37205">
        <ele>6.2</ele>
        <time>2020-06-02T17:25:50Z</time>
      </trkpt>
      <trkpt lat="46.34937" lon="-1.37212">
        <ele>6.2</ele>
        <time>2020-06-02T17:25:51Z</time>
      </trkpt>
      <trkpt lat="46.34936" lon="-1.37218">
        <ele>6.1</ele>
        <time>2020-06-02T17:25:52Z</time>
      </trkpt>
      <trkpt lat="46.34936" lon="-1.37223">
        <ele>6.1</ele>
        <time>2020-06-02T17:25:53Z</time>
      </trkpt>
      <trkpt lat="46.34937" lon="-1.37228">
        <ele>6.1</ele>
        <time>2020-06-02T17:25:54Z</time>
      </trkpt>
      <trkpt lat="46.34937" lon="-1.37232">
        <ele>6.1</ele>
        <time>2020-06-02T17:25:55Z</time>
      </trkpt>
      <trkpt lat="46.34937" lon="-1.37237">
        <ele>6.1</ele>
        <time>2020-06-02T17:25:56Z</time>
      </trkpt>
      <trkpt lat="46.34935" lon="-1.37242">
        <ele>6.1</ele>
        <time>2020-06-02T17:25:57Z</time>
      </trkpt>
      <trkpt lat="46.34935" lon="-1.37247">
        <ele>6.1</ele>
        <time>2020-06-02T17:25:58Z</time>
      </trkpt>
      <trkpt lat="46.34934" lon="-1.37251">
        <ele>6.1</ele>
        <time>2020-06-02T17:25:59Z</time>
      </trkpt>
      <trkpt lat="46.34934" lon="-1.37255">
        <ele>6.1</ele>
        <time>2020-06-02T17:26:00Z</time>
      </trkpt>
      <trkpt lat="46.34933" lon="-1.3726">
        <ele>6.1</ele>
        <time>2020-06-02T17:26:01Z</time>
      </trkpt>
      <trkpt lat="46.34932" lon="-1.37266">
        <ele>6.1</ele>
        <time>2020-06-02T17:26:02Z</time>
      </trkpt>
      <trkpt lat="46.34932" lon="-1.37268">
        <ele>6.1</ele>
        <time>2020-06-02T17:26:03Z</time>
      </trkpt>
      <trkpt lat="46.34931" lon="-1.37272">
        <ele>6.1</ele>
        <time>2020-06-02T17:26:04Z</time>
      </trkpt>
      <trkpt lat="46.34929" lon="-1.37277">
        <ele>6.1</ele>
        <time>2020-06-02T17:26:05Z</time>
      </trkpt>
      <trkpt lat="46.34929" lon="-1.37279">
        <ele>6.1</ele>
        <time>2020-06-02T17:26:06Z</time>
      </trkpt>
      <trkpt lat="46.34929" lon="-1.37283">
        <ele>6.1</ele>
        <time>2020-06-02T17:26:07Z</time>
      </trkpt>
      <trkpt lat="46.34928" lon="-1.37288">
        <ele>6.1</ele>
        <time>2020-06-02T17:26:08Z</time>
      </trkpt>
      <trkpt lat="46.34927" lon="-1.3729">
        <ele>6.1</ele>
        <time>2020-06-02T17:26:09Z</time>
      </trkpt>
      <trkpt lat="46.34926" lon="-1.37295">
        <ele>6.1</ele>
        <time>2020-06-02T17:26:10Z</time>
      </trkpt>
      <trkpt lat="46.34926" lon="-1.37297">
        <ele>6.1</ele>
        <time>2020-06-02T17:26:11Z</time>
      </trkpt>
      <trkpt lat="46.34926" lon="-1.37302">
        <ele>6.1</ele>
        <time>2020-06-02T17:26:12Z</time>
      </trkpt>
      <trkpt lat="46.34926" lon="-1.37303">
        <ele>6</ele>
        <time>2020-06-02T17:26:13Z</time>
      </trkpt>
      <trkpt lat="46.34925" lon="-1.37308">
        <ele>6</ele>
        <time>2020-06-02T17:26:14Z</time>
      </trkpt>
      <trkpt lat="46.34925" lon="-1.37309">
        <ele>6</ele>
        <time>2020-06-02T17:26:15Z</time>
      </trkpt>
      <trkpt lat="46.34924" lon="-1.37312">
        <ele>6</ele>
        <time>2020-06-02T17:26:16Z</time>
      </trkpt>
      <trkpt lat="46.34924" lon="-1.37314">
        <ele>6</ele>
        <time>2020-06-02T17:26:17Z</time>
      </trkpt>
      <trkpt lat="46.34924" lon="-1.37316">
        <ele>6</ele>
        <time>2020-06-02T17:26:18Z</time>
      </trkpt>
      <trkpt lat="46.34924" lon="-1.37318">
        <ele>6</ele>
        <time>2020-06-02T17:26:19Z</time>
      </trkpt>
      <trkpt lat="46.34924" lon="-1.3732">
        <ele>6</ele>
        <time>2020-06-02T17:26:20Z</time>
      </trkpt>
      <trkpt lat="46.34923" lon="-1.37322">
        <ele>5.9</ele>
        <time>2020-06-02T17:26:21Z</time>
      </trkpt>
      <trkpt lat="46.34923" lon="-1.37326">
        <ele>5.9</ele>
        <time>2020-06-02T17:26:22Z</time>
      </trkpt>
      <trkpt lat="46.34924" lon="-1.37328">
        <ele>5.9</ele>
        <time>2020-06-02T17:26:23Z</time>
      </trkpt>
      <trkpt lat="46.34923" lon="-1.37332">
        <ele>5.9</ele>
        <time>2020-06-02T17:26:24Z</time>
      </trkpt>
      <trkpt lat="46.34922" lon="-1.37333">
        <ele>5.9</ele>
        <time>2020-06-02T17:26:25Z</time>
      </trkpt>
      <trkpt lat="46.34922" lon="-1.37337">
        <ele>5.9</ele>
        <time>2020-06-02T17:26:26Z</time>
      </trkpt>
      <trkpt lat="46.34922" lon="-1.37339">
        <ele>5.9</ele>
        <time>2020-06-02T17:26:27Z</time>
      </trkpt>
      <trkpt lat="46.3492" lon="-1.37344">
        <ele>5.8</ele>
        <time>2020-06-02T17:26:28Z</time>
      </trkpt>
      <trkpt lat="46.3492" lon="-1.37345">
        <ele>5.8</ele>
        <time>2020-06-02T17:26:29Z</time>
      </trkpt>
      <trkpt lat="46.3492" lon="-1.3735">
        <ele>5.8</ele>
        <time>2020-06-02T17:26:30Z</time>
      </trkpt>
      <trkpt lat="46.34919" lon="-1.37352">
        <ele>5.8</ele>
        <time>2020-06-02T17:26:31Z</time>
      </trkpt>
      <trkpt lat="46.34918" lon="-1.37356">
        <ele>5.8</ele>
        <time>2020-06-02T17:26:32Z</time>
      </trkpt>
      <trkpt lat="46.34918" lon="-1.3736">
        <ele>5.7</ele>
        <time>2020-06-02T17:26:33Z</time>
      </trkpt>
      <trkpt lat="46.34917" lon="-1.37365">
        <ele>5.7</ele>
        <time>2020-06-02T17:26:34Z</time>
      </trkpt>
      <trkpt lat="46.34916" lon="-1.3737">
        <ele>5.7</ele>
        <time>2020-06-02T17:26:35Z</time>
      </trkpt>
      <trkpt lat="46.34915" lon="-1.37374">
        <ele>5.6</ele>
        <time>2020-06-02T17:26:36Z</time>
      </trkpt>
      <trkpt lat="46.34915" lon="-1.37379">
        <ele>5.6</ele>
        <time>2020-06-02T17:26:37Z</time>
      </trkpt>
      <trkpt lat="46.34914" lon="-1.37383">
        <ele>5.6</ele>
        <time>2020-06-02T17:26:38Z</time>
      </trkpt>
      <trkpt lat="46.34913" lon="-1.37387">
        <ele>5.5</ele>
        <time>2020-06-02T17:26:39Z</time>
      </trkpt>
      <trkpt lat="46.34912" lon="-1.37392">
        <ele>5.5</ele>
        <time>2020-06-02T17:26:40Z</time>
      </trkpt>
      <trkpt lat="46.34912" lon="-1.37397">
        <ele>5.4</ele>
        <time>2020-06-02T17:26:41Z</time>
      </trkpt>
      <trkpt lat="46.34913" lon="-1.37402">
        <ele>5.4</ele>
        <time>2020-06-02T17:26:42Z</time>
      </trkpt>
      <trkpt lat="46.34913" lon="-1.37407">
        <ele>5.3</ele>
        <time>2020-06-02T17:26:43Z</time>
      </trkpt>
      <trkpt lat="46.34911" lon="-1.37411">
        <ele>5.3</ele>
        <time>2020-06-02T17:26:44Z</time>
      </trkpt>
      <trkpt lat="46.34911" lon="-1.37416">
        <ele>5.3</ele>
        <time>2020-06-02T17:26:45Z</time>
      </trkpt>
      <trkpt lat="46.3491" lon="-1.37421">
        <ele>5.2</ele>
        <time>2020-06-02T17:26:46Z</time>
      </trkpt>
      <trkpt lat="46.34909" lon="-1.37426">
        <ele>5.2</ele>
        <time>2020-06-02T17:26:47Z</time>
      </trkpt>
      <trkpt lat="46.34908" lon="-1.37431">
        <ele>5.2</ele>
        <time>2020-06-02T17:26:48Z</time>
      </trkpt>
      <trkpt lat="46.34907" lon="-1.37437">
        <ele>5.2</ele>
        <time>2020-06-02T17:26:49Z</time>
      </trkpt>
      <trkpt lat="46.34906" lon="-1.37443">
        <ele>5.2</ele>
        <time>2020-06-02T17:26:50Z</time>
      </trkpt>
      <trkpt lat="46.34906" lon="-1.37448">
        <ele>5.1</ele>
        <time>2020-06-02T17:26:51Z</time>
      </trkpt>
      <trkpt lat="46.34905" lon="-1.37454">
        <ele>5.1</ele>
        <time>2020-06-02T17:26:52Z</time>
      </trkpt>
      <trkpt lat="46.34904" lon="-1.37459">
        <ele>5.1</ele>
        <time>2020-06-02T17:26:53Z</time>
      </trkpt>
      <trkpt lat="46.34903" lon="-1.37465">
        <ele>5.1</ele>
        <time>2020-06-02T17:26:54Z</time>
      </trkpt>
      <trkpt lat="46.34902" lon="-1.37471">
        <ele>5</ele>
        <time>2020-06-02T17:26:55Z</time>
      </trkpt>
      <trkpt lat="46.34901" lon="-1.37476">
        <ele>5</ele>
        <time>2020-06-02T17:26:56Z</time>
      </trkpt>
      <trkpt lat="46.34899" lon="-1.37481">
        <ele>5</ele>
        <time>2020-06-02T17:26:57Z</time>
      </trkpt>
      <trkpt lat="46.34898" lon="-1.37487">
        <ele>4.9</ele>
        <time>2020-06-02T17:26:58Z</time>
      </trkpt>
      <trkpt lat="46.34897" lon="-1.37493">
        <ele>4.9</ele>
        <time>2020-06-02T17:26:59Z</time>
      </trkpt>
      <trkpt lat="46.34897" lon="-1.37498">
        <ele>4.9</ele>
        <time>2020-06-02T17:27:00Z</time>
      </trkpt>
      <trkpt lat="46.34895" lon="-1.37504">
        <ele>4.8</ele>
        <time>2020-06-02T17:27:01Z</time>
      </trkpt>
      <trkpt lat="46.34894" lon="-1.37509">
        <ele>4.7</ele>
        <time>2020-06-02T17:27:02Z</time>
      </trkpt>
      <trkpt lat="46.34893" lon="-1.37514">
        <ele>4.7</ele>
        <time>2020-06-02T17:27:03Z</time>
      </trkpt>
      <trkpt lat="46.34892" lon="-1.37519">
        <ele>4.6</ele>
        <time>2020-06-02T17:27:04Z</time>
      </trkpt>
      <trkpt lat="46.34891" lon="-1.37524">
        <ele>4.6</ele>
        <time>2020-06-02T17:27:05Z</time>
      </trkpt>
      <trkpt lat="46.3489" lon="-1.37529">
        <ele>4.5</ele>
        <time>2020-06-02T17:27:06Z</time>
      </trkpt>
      <trkpt lat="46.34889" lon="-1.37533">
        <ele>4.5</ele>
        <time>2020-06-02T17:27:07Z</time>
      </trkpt>
      <trkpt lat="46.34889" lon="-1.37537">
        <ele>4.4</ele>
        <time>2020-06-02T17:27:08Z</time>
      </trkpt>
      <trkpt lat="46.34889" lon="-1.37542">
        <ele>4.4</ele>
        <time>2020-06-02T17:27:09Z</time>
      </trkpt>
      <trkpt lat="46.34889" lon="-1.37546">
        <ele>4.4</ele>
        <time>2020-06-02T17:27:10Z</time>
      </trkpt>
      <trkpt lat="46.34888" lon="-1.3755">
        <ele>4.4</ele>
        <time>2020-06-02T17:27:11Z</time>
      </trkpt>
      <trkpt lat="46.34888" lon="-1.37554">
        <ele>4.4</ele>
        <time>2020-06-02T17:27:12Z</time>
      </trkpt>
      <trkpt lat="46.34888" lon="-1.3756">
        <ele>4.3</ele>
        <time>2020-06-02T17:27:13Z</time>
      </trkpt>
      <trkpt lat="46.34888" lon="-1.37562">
        <ele>4.3</ele>
        <time>2020-06-02T17:27:14Z</time>
      </trkpt>
      <trkpt lat="46.34887" lon="-1.37567">
        <ele>4.3</ele>
        <time>2020-06-02T17:27:15Z</time>
      </trkpt>
      <trkpt lat="46.34887" lon="-1.37569">
        <ele>4.3</ele>
        <time>2020-06-02T17:27:16Z</time>
      </trkpt>
      <trkpt lat="46.34887" lon="-1.37575">
        <ele>4.3</ele>
        <time>2020-06-02T17:27:17Z</time>
      </trkpt>
      <trkpt lat="46.34886" lon="-1.37577">
        <ele>4.3</ele>
        <time>2020-06-02T17:27:18Z</time>
      </trkpt>
      <trkpt lat="46.34885" lon="-1.37581">
        <ele>4.3</ele>
        <time>2020-06-02T17:27:19Z</time>
      </trkpt>
      <trkpt lat="46.34883" lon="-1.37585">
        <ele>4.2</ele>
        <time>2020-06-02T17:27:20Z</time>
      </trkpt>
      <trkpt lat="46.34883" lon="-1.3759">
        <ele>4.2</ele>
        <time>2020-06-02T17:27:21Z</time>
      </trkpt>
      <trkpt lat="46.34883" lon="-1.37594">
        <ele>4.2</ele>
        <time>2020-06-02T17:27:22Z</time>
      </trkpt>
      <trkpt lat="46.34882" lon="-1.37599">
        <ele>4.2</ele>
        <time>2020-06-02T17:27:23Z</time>
      </trkpt>
      <trkpt lat="46.34882" lon="-1.37604">
        <ele>4.2</ele>
        <time>2020-06-02T17:27:24Z</time>
      </trkpt>
      <trkpt lat="46.34881" lon="-1.37608">
        <ele>4.2</ele>
        <time>2020-06-02T17:27:25Z</time>
      </trkpt>
      <trkpt lat="46.34881" lon="-1.37612">
        <ele>4.2</ele>
        <time>2020-06-02T17:27:26Z</time>
      </trkpt>
      <trkpt lat="46.3488" lon="-1.37616">
        <ele>4.2</ele>
        <time>2020-06-02T17:27:27Z</time>
      </trkpt>
      <trkpt lat="46.34878" lon="-1.3762">
        <ele>4.2</ele>
        <time>2020-06-02T17:27:28Z</time>
      </trkpt>
      <trkpt lat="46.34877" lon="-1.37624">
        <ele>4.2</ele>
        <time>2020-06-02T17:27:29Z</time>
      </trkpt>
      <trkpt lat="46.34876" lon="-1.37629">
        <ele>4.1</ele>
        <time>2020-06-02T17:27:30Z</time>
      </trkpt>
      <trkpt lat="46.34875" lon="-1.37633">
        <ele>4.1</ele>
        <time>2020-06-02T17:27:31Z</time>
      </trkpt>
      <trkpt lat="46.34874" lon="-1.37637">
        <ele>4.1</ele>
        <time>2020-06-02T17:27:32Z</time>
      </trkpt>
      <trkpt lat="46.34874" lon="-1.37641">
        <ele>4.1</ele>
        <time>2020-06-02T17:27:33Z</time>
      </trkpt>
      <trkpt lat="46.34873" lon="-1.37645">
        <ele>4.1</ele>
        <time>2020-06-02T17:27:34Z</time>
      </trkpt>
      <trkpt lat="46.34872" lon="-1.37649">
        <ele>4.2</ele>
        <time>2020-06-02T17:27:35Z</time>
      </trkpt>
      <trkpt lat="46.34872" lon="-1.37653">
        <ele>4.2</ele>
        <time>2020-06-02T17:27:36Z</time>
      </trkpt>
      <trkpt lat="46.3487" lon="-1.37658">
        <ele>4.2</ele>
        <time>2020-06-02T17:27:37Z</time>
      </trkpt>
      <trkpt lat="46.34869" lon="-1.37662">
        <ele>4.2</ele>
        <time>2020-06-02T17:27:38Z</time>
      </trkpt>
      <trkpt lat="46.34868" lon="-1.37666">
        <ele>4.2</ele>
        <time>2020-06-02T17:27:39Z</time>
      </trkpt>
      <trkpt lat="46.34867" lon="-1.3767">
        <ele>4.2</ele>
        <time>2020-06-02T17:27:40Z</time>
      </trkpt>
      <trkpt lat="46.34866" lon="-1.37673">
        <ele>4.2</ele>
        <time>2020-06-02T17:27:41Z</time>
      </trkpt>
      <trkpt lat="46.34865" lon="-1.37678">
        <ele>4.2</ele>
        <time>2020-06-02T17:27:42Z</time>
      </trkpt>
      <trkpt lat="46.34865" lon="-1.37682">
        <ele>4.2</ele>
        <time>2020-06-02T17:27:43Z</time>
      </trkpt>
      <trkpt lat="46.34864" lon="-1.37686">
        <ele>4.2</ele>
        <time>2020-06-02T17:27:44Z</time>
      </trkpt>
      <trkpt lat="46.34864" lon="-1.3769">
        <ele>4.2</ele>
        <time>2020-06-02T17:27:45Z</time>
      </trkpt>
      <trkpt lat="46.34863" lon="-1.37694">
        <ele>4.2</ele>
        <time>2020-06-02T17:27:46Z</time>
      </trkpt>
      <trkpt lat="46.34863" lon="-1.37698">
        <ele>4.2</ele>
        <time>2020-06-02T17:27:47Z</time>
      </trkpt>
      <trkpt lat="46.34861" lon="-1.37702">
        <ele>4.2</ele>
        <time>2020-06-02T17:27:48Z</time>
      </trkpt>
      <trkpt lat="46.34859" lon="-1.37705">
        <ele>4.2</ele>
        <time>2020-06-02T17:27:49Z</time>
      </trkpt>
      <trkpt lat="46.34858" lon="-1.3771">
        <ele>4.2</ele>
        <time>2020-06-02T17:27:50Z</time>
      </trkpt>
      <trkpt lat="46.34857" lon="-1.37714">
        <ele>4.2</ele>
        <time>2020-06-02T17:27:51Z</time>
      </trkpt>
      <trkpt lat="46.34855" lon="-1.37719">
        <ele>4.2</ele>
        <time>2020-06-02T17:27:52Z</time>
      </trkpt>
      <trkpt lat="46.34853" lon="-1.37723">
        <ele>4.2</ele>
        <time>2020-06-02T17:27:53Z</time>
      </trkpt>
      <trkpt lat="46.34852" lon="-1.37727">
        <ele>4.2</ele>
        <time>2020-06-02T17:27:54Z</time>
      </trkpt>
      <trkpt lat="46.3485" lon="-1.37731">
        <ele>4.2</ele>
        <time>2020-06-02T17:27:55Z</time>
      </trkpt>
      <trkpt lat="46.34849" lon="-1.37736">
        <ele>4.2</ele>
        <time>2020-06-02T17:27:56Z</time>
      </trkpt>
      <trkpt lat="46.34848" lon="-1.3774">
        <ele>4.2</ele>
        <time>2020-06-02T17:27:57Z</time>
      </trkpt>
      <trkpt lat="46.34849" lon="-1.37745">
        <ele>4.2</ele>
        <time>2020-06-02T17:27:58Z</time>
      </trkpt>
      <trkpt lat="46.34849" lon="-1.3775">
        <ele>4.2</ele>
        <time>2020-06-02T17:27:59Z</time>
      </trkpt>
      <trkpt lat="46.34847" lon="-1.37754">
        <ele>4.2</ele>
        <time>2020-06-02T17:28:00Z</time>
      </trkpt>
      <trkpt lat="46.34847" lon="-1.37759">
        <ele>4.2</ele>
        <time>2020-06-02T17:28:01Z</time>
      </trkpt>
      <trkpt lat="46.34846" lon="-1.37763">
        <ele>4.2</ele>
        <time>2020-06-02T17:28:02Z</time>
      </trkpt>
      <trkpt lat="46.34844" lon="-1.37767">
        <ele>4.2</ele>
        <time>2020-06-02T17:28:03Z</time>
      </trkpt>
      <trkpt lat="46.34842" lon="-1.37772">
        <ele>4.2</ele>
        <time>2020-06-02T17:28:04Z</time>
      </trkpt>
      <trkpt lat="46.34841" lon="-1.37777">
        <ele>4.2</ele>
        <time>2020-06-02T17:28:05Z</time>
      </trkpt>
      <trkpt lat="46.3484" lon="-1.37782">
        <ele>4.2</ele>
        <time>2020-06-02T17:28:06Z</time>
      </trkpt>
      <trkpt lat="46.34839" lon="-1.37786">
        <ele>4.2</ele>
        <time>2020-06-02T17:28:07Z</time>
      </trkpt>
      <trkpt lat="46.34838" lon="-1.3779">
        <ele>4.2</ele>
        <time>2020-06-02T17:28:08Z</time>
      </trkpt>
      <trkpt lat="46.34837" lon="-1.37795">
        <ele>4.2</ele>
        <time>2020-06-02T17:28:09Z</time>
      </trkpt>
      <trkpt lat="46.34836" lon="-1.37799">
        <ele>4.1</ele>
        <time>2020-06-02T17:28:10Z</time>
      </trkpt>
      <trkpt lat="46.34835" lon="-1.37803">
        <ele>4.1</ele>
        <time>2020-06-02T17:28:11Z</time>
      </trkpt>
      <trkpt lat="46.34834" lon="-1.37807">
        <ele>4.1</ele>
        <time>2020-06-02T17:28:12Z</time>
      </trkpt>
      <trkpt lat="46.34832" lon="-1.37811">
        <ele>4.1</ele>
        <time>2020-06-02T17:28:13Z</time>
      </trkpt>
      <trkpt lat="46.3483" lon="-1.37816">
        <ele>4.1</ele>
        <time>2020-06-02T17:28:14Z</time>
      </trkpt>
      <trkpt lat="46.34829" lon="-1.37818">
        <ele>4.1</ele>
        <time>2020-06-02T17:28:15Z</time>
      </trkpt>
      <trkpt lat="46.34828" lon="-1.37823">
        <ele>4.1</ele>
        <time>2020-06-02T17:28:16Z</time>
      </trkpt>
      <trkpt lat="46.34828" lon="-1.37825">
        <ele>4.1</ele>
        <time>2020-06-02T17:28:17Z</time>
      </trkpt>
      <trkpt lat="46.34826" lon="-1.3783">
        <ele>4.1</ele>
        <time>2020-06-02T17:28:18Z</time>
      </trkpt>
      <trkpt lat="46.34826" lon="-1.37831">
        <ele>4.1</ele>
        <time>2020-06-02T17:28:19Z</time>
      </trkpt>
      <trkpt lat="46.34825" lon="-1.37837">
        <ele>4</ele>
        <time>2020-06-02T17:28:20Z</time>
      </trkpt>
      <trkpt lat="46.34824" lon="-1.37838">
        <ele>4</ele>
        <time>2020-06-02T17:28:21Z</time>
      </trkpt>
      <trkpt lat="46.34823" lon="-1.37844">
        <ele>4</ele>
        <time>2020-06-02T17:28:22Z</time>
      </trkpt>
      <trkpt lat="46.34823" lon="-1.37846">
        <ele>4</ele>
        <time>2020-06-02T17:28:23Z</time>
      </trkpt>
      <trkpt lat="46.34822" lon="-1.37849">
        <ele>4</ele>
        <time>2020-06-02T17:28:24Z</time>
      </trkpt>
      <trkpt lat="46.3482" lon="-1.37853">
        <ele>4</ele>
        <time>2020-06-02T17:28:25Z</time>
      </trkpt>
      <trkpt lat="46.34818" lon="-1.37858">
        <ele>3.9</ele>
        <time>2020-06-02T17:28:26Z</time>
      </trkpt>
      <trkpt lat="46.34816" lon="-1.37862">
        <ele>3.9</ele>
        <time>2020-06-02T17:28:27Z</time>
      </trkpt>
      <trkpt lat="46.34814" lon="-1.37868">
        <ele>3.9</ele>
        <time>2020-06-02T17:28:28Z</time>
      </trkpt>
      <trkpt lat="46.34812" lon="-1.37874">
        <ele>3.9</ele>
        <time>2020-06-02T17:28:29Z</time>
      </trkpt>
      <trkpt lat="46.34811" lon="-1.3788">
        <ele>3.9</ele>
        <time>2020-06-02T17:28:30Z</time>
      </trkpt>
      <trkpt lat="46.34809" lon="-1.37886">
        <ele>3.8</ele>
        <time>2020-06-02T17:28:31Z</time>
      </trkpt>
      <trkpt lat="46.34807" lon="-1.37892">
        <ele>3.8</ele>
        <time>2020-06-02T17:28:32Z</time>
      </trkpt>
      <trkpt lat="46.34804" lon="-1.37897">
        <ele>3.8</ele>
        <time>2020-06-02T17:28:33Z</time>
      </trkpt>
      <trkpt lat="46.34802" lon="-1.37903">
        <ele>3.8</ele>
        <time>2020-06-02T17:28:34Z</time>
      </trkpt>
      <trkpt lat="46.348" lon="-1.3791">
        <ele>3.8</ele>
        <time>2020-06-02T17:28:35Z</time>
      </trkpt>
      <trkpt lat="46.34798" lon="-1.37917">
        <ele>3.8</ele>
        <time>2020-06-02T17:28:36Z</time>
      </trkpt>
      <trkpt lat="46.34796" lon="-1.37923">
        <ele>3.8</ele>
        <time>2020-06-02T17:28:37Z</time>
      </trkpt>
      <trkpt lat="46.34794" lon="-1.3793">
        <ele>3.8</ele>
        <time>2020-06-02T17:28:38Z</time>
      </trkpt>
      <trkpt lat="46.34793" lon="-1.37938">
        <ele>3.8</ele>
        <time>2020-06-02T17:28:39Z</time>
      </trkpt>
      <trkpt lat="46.34792" lon="-1.37946">
        <ele>3.8</ele>
        <time>2020-06-02T17:28:40Z</time>
      </trkpt>
      <trkpt lat="46.34791" lon="-1.37954">
        <ele>3.8</ele>
        <time>2020-06-02T17:28:41Z</time>
      </trkpt>
      <trkpt lat="46.34789" lon="-1.37962">
        <ele>3.8</ele>
        <time>2020-06-02T17:28:42Z</time>
      </trkpt>
      <trkpt lat="46.34788" lon="-1.37969">
        <ele>3.8</ele>
        <time>2020-06-02T17:28:43Z</time>
      </trkpt>
      <trkpt lat="46.34786" lon="-1.37977">
        <ele>3.8</ele>
        <time>2020-06-02T17:28:44Z</time>
      </trkpt>
      <trkpt lat="46.34785" lon="-1.37985">
        <ele>3.8</ele>
        <time>2020-06-02T17:28:45Z</time>
      </trkpt>
      <trkpt lat="46.34785" lon="-1.37993">
        <ele>3.8</ele>
        <time>2020-06-02T17:28:46Z</time>
      </trkpt>
      <trkpt lat="46.34785" lon="-1.38002">
        <ele>3.8</ele>
        <time>2020-06-02T17:28:47Z</time>
      </trkpt>
      <trkpt lat="46.34784" lon="-1.38011">
        <ele>3.8</ele>
        <time>2020-06-02T17:28:48Z</time>
      </trkpt>
      <trkpt lat="46.34784" lon="-1.3802">
        <ele>3.8</ele>
        <time>2020-06-02T17:28:49Z</time>
      </trkpt>
      <trkpt lat="46.34784" lon="-1.38029">
        <ele>3.8</ele>
        <time>2020-06-02T17:28:50Z</time>
      </trkpt>
      <trkpt lat="46.34783" lon="-1.38038">
        <ele>3.8</ele>
        <time>2020-06-02T17:28:51Z</time>
      </trkpt>
      <trkpt lat="46.34783" lon="-1.38048">
        <ele>3.8</ele>
        <time>2020-06-02T17:28:52Z</time>
      </trkpt>
      <trkpt lat="46.34782" lon="-1.38057">
        <ele>3.8</ele>
        <time>2020-06-02T17:28:53Z</time>
      </trkpt>
      <trkpt lat="46.34781" lon="-1.38067">
        <ele>3.8</ele>
        <time>2020-06-02T17:28:54Z</time>
      </trkpt>
      <trkpt lat="46.3478" lon="-1.38077">
        <ele>3.8</ele>
        <time>2020-06-02T17:28:55Z</time>
      </trkpt>
      <trkpt lat="46.34779" lon="-1.38087">
        <ele>3.9</ele>
        <time>2020-06-02T17:28:56Z</time>
      </trkpt>
      <trkpt lat="46.34778" lon="-1.38097">
        <ele>3.9</ele>
        <time>2020-06-02T17:28:57Z</time>
      </trkpt>
      <trkpt lat="46.34778" lon="-1.38107">
        <ele>3.9</ele>
        <time>2020-06-02T17:28:58Z</time>
      </trkpt>
      <trkpt lat="46.34777" lon="-1.38117">
        <ele>4</ele>
        <time>2020-06-02T17:28:59Z</time>
      </trkpt>
      <trkpt lat="46.34776" lon="-1.38126">
        <ele>4</ele>
        <time>2020-06-02T17:29:00Z</time>
      </trkpt>
      <trkpt lat="46.34776" lon="-1.38134">
        <ele>4.1</ele>
        <time>2020-06-02T17:29:01Z</time>
      </trkpt>
      <trkpt lat="46.34776" lon="-1.38143">
        <ele>4.1</ele>
        <time>2020-06-02T17:29:02Z</time>
      </trkpt>
      <trkpt lat="46.34776" lon="-1.38151">
        <ele>4.1</ele>
        <time>2020-06-02T17:29:03Z</time>
      </trkpt>
      <trkpt lat="46.34775" lon="-1.38159">
        <ele>4.2</ele>
        <time>2020-06-02T17:29:04Z</time>
      </trkpt>
      <trkpt lat="46.34775" lon="-1.38167">
        <ele>4.2</ele>
        <time>2020-06-02T17:29:05Z</time>
      </trkpt>
      <trkpt lat="46.34775" lon="-1.38175">
        <ele>4.3</ele>
        <time>2020-06-02T17:29:06Z</time>
      </trkpt>
      <trkpt lat="46.34776" lon="-1.38184">
        <ele>4.3</ele>
        <time>2020-06-02T17:29:07Z</time>
      </trkpt>
      <trkpt lat="46.34776" lon="-1.38193">
        <ele>4.3</ele>
        <time>2020-06-02T17:29:08Z</time>
      </trkpt>
      <trkpt lat="46.34776" lon="-1.38201">
        <ele>4.3</ele>
        <time>2020-06-02T17:29:09Z</time>
      </trkpt>
      <trkpt lat="46.34776" lon="-1.3821">
        <ele>4.4</ele>
        <time>2020-06-02T17:29:10Z</time>
      </trkpt>
      <trkpt lat="46.34776" lon="-1.38218">
        <ele>4.4</ele>
        <time>2020-06-02T17:29:11Z</time>
      </trkpt>
      <trkpt lat="46.34776" lon="-1.38226">
        <ele>4.4</ele>
        <time>2020-06-02T17:29:12Z</time>
      </trkpt>
      <trkpt lat="46.34776" lon="-1.38234">
        <ele>4.5</ele>
        <time>2020-06-02T17:29:13Z</time>
      </trkpt>
      <trkpt lat="46.34776" lon="-1.38242">
        <ele>4.5</ele>
        <time>2020-06-02T17:29:14Z</time>
      </trkpt>
      <trkpt lat="46.34775" lon="-1.38251">
        <ele>4.6</ele>
        <time>2020-06-02T17:29:15Z</time>
      </trkpt>
      <trkpt lat="46.34775" lon="-1.38258">
        <ele>4.6</ele>
        <time>2020-06-02T17:29:16Z</time>
      </trkpt>
      <trkpt lat="46.34775" lon="-1.38266">
        <ele>4.6</ele>
        <time>2020-06-02T17:29:17Z</time>
      </trkpt>
      <trkpt lat="46.34775" lon="-1.38274">
        <ele>4.6</ele>
        <time>2020-06-02T17:29:18Z</time>
      </trkpt>
      <trkpt lat="46.34774" lon="-1.38281">
        <ele>4.7</ele>
        <time>2020-06-02T17:29:19Z</time>
      </trkpt>
      <trkpt lat="46.34773" lon="-1.38289">
        <ele>4.7</ele>
        <time>2020-06-02T17:29:20Z</time>
      </trkpt>
      <trkpt lat="46.34773" lon="-1.38296">
        <ele>4.7</ele>
        <time>2020-06-02T17:29:21Z</time>
      </trkpt>
      <trkpt lat="46.34773" lon="-1.38303">
        <ele>4.6</ele>
        <time>2020-06-02T17:29:22Z</time>
      </trkpt>
      <trkpt lat="46.34772" lon="-1.3831">
        <ele>4.6</ele>
        <time>2020-06-02T17:29:23Z</time>
      </trkpt>
      <trkpt lat="46.34774" lon="-1.38318">
        <ele>4.6</ele>
        <time>2020-06-02T17:29:24Z</time>
      </trkpt>
      <trkpt lat="46.34773" lon="-1.38325">
        <ele>4.6</ele>
        <time>2020-06-02T17:29:25Z</time>
      </trkpt>
      <trkpt lat="46.34773" lon="-1.38332">
        <ele>4.6</ele>
        <time>2020-06-02T17:29:26Z</time>
      </trkpt>
      <trkpt lat="46.34774" lon="-1.38339">
        <ele>4.6</ele>
        <time>2020-06-02T17:29:27Z</time>
      </trkpt>
      <trkpt lat="46.34773" lon="-1.38345">
        <ele>4.6</ele>
        <time>2020-06-02T17:29:28Z</time>
      </trkpt>
      <trkpt lat="46.34772" lon="-1.38351">
        <ele>4.6</ele>
        <time>2020-06-02T17:29:29Z</time>
      </trkpt>
      <trkpt lat="46.34772" lon="-1.38357">
        <ele>4.6</ele>
        <time>2020-06-02T17:29:30Z</time>
      </trkpt>
      <trkpt lat="46.34772" lon="-1.38363">
        <ele>4.6</ele>
        <time>2020-06-02T17:29:31Z</time>
      </trkpt>
      <trkpt lat="46.34772" lon="-1.38369">
        <ele>4.5</ele>
        <time>2020-06-02T17:29:32Z</time>
      </trkpt>
      <trkpt lat="46.34772" lon="-1.38374">
        <ele>4.5</ele>
        <time>2020-06-02T17:29:33Z</time>
      </trkpt>
      <trkpt lat="46.34772" lon="-1.3838">
        <ele>4.5</ele>
        <time>2020-06-02T17:29:34Z</time>
      </trkpt>
      <trkpt lat="46.34771" lon="-1.38385">
        <ele>4.5</ele>
        <time>2020-06-02T17:29:35Z</time>
      </trkpt>
      <trkpt lat="46.3477" lon="-1.38391">
        <ele>4.5</ele>
        <time>2020-06-02T17:29:36Z</time>
      </trkpt>
      <trkpt lat="46.3477" lon="-1.38396">
        <ele>4.5</ele>
        <time>2020-06-02T17:29:37Z</time>
      </trkpt>
      <trkpt lat="46.34771" lon="-1.38401">
        <ele>4.5</ele>
        <time>2020-06-02T17:29:38Z</time>
      </trkpt>
      <trkpt lat="46.34771" lon="-1.38406">
        <ele>4.5</ele>
        <time>2020-06-02T17:29:39Z</time>
      </trkpt>
      <trkpt lat="46.34771" lon="-1.38411">
        <ele>4.6</ele>
        <time>2020-06-02T17:29:40Z</time>
      </trkpt>
      <trkpt lat="46.34771" lon="-1.38416">
        <ele>4.6</ele>
        <time>2020-06-02T17:29:41Z</time>
      </trkpt>
      <trkpt lat="46.34771" lon="-1.38422">
        <ele>4.6</ele>
        <time>2020-06-02T17:29:42Z</time>
      </trkpt>
      <trkpt lat="46.34772" lon="-1.38427">
        <ele>4.7</ele>
        <time>2020-06-02T17:29:43Z</time>
      </trkpt>
      <trkpt lat="46.34773" lon="-1.38434">
        <ele>4.7</ele>
        <time>2020-06-02T17:29:44Z</time>
      </trkpt>
      <trkpt lat="46.34773" lon="-1.38441">
        <ele>4.7</ele>
        <time>2020-06-02T17:29:45Z</time>
      </trkpt>
      <trkpt lat="46.34772" lon="-1.38448">
        <ele>4.8</ele>
        <time>2020-06-02T17:29:46Z</time>
      </trkpt>
      <trkpt lat="46.34772" lon="-1.38455">
        <ele>4.8</ele>
        <time>2020-06-02T17:29:47Z</time>
      </trkpt>
      <trkpt lat="46.34771" lon="-1.38462">
        <ele>4.9</ele>
        <time>2020-06-02T17:29:48Z</time>
      </trkpt>
      <trkpt lat="46.34772" lon="-1.38469">
        <ele>4.9</ele>
        <time>2020-06-02T17:29:49Z</time>
      </trkpt>
      <trkpt lat="46.34772" lon="-1.38477">
        <ele>4.9</ele>
        <time>2020-06-02T17:29:50Z</time>
      </trkpt>
      <trkpt lat="46.34772" lon="-1.38484">
        <ele>5</ele>
        <time>2020-06-02T17:29:51Z</time>
      </trkpt>
      <trkpt lat="46.34771" lon="-1.38492">
        <ele>5</ele>
        <time>2020-06-02T17:29:52Z</time>
      </trkpt>
      <trkpt lat="46.34771" lon="-1.38499">
        <ele>5.1</ele>
        <time>2020-06-02T17:29:53Z</time>
      </trkpt>
      <trkpt lat="46.34769" lon="-1.38507">
        <ele>5.1</ele>
        <time>2020-06-02T17:29:54Z</time>
      </trkpt>
      <trkpt lat="46.34769" lon="-1.38515">
        <ele>5.2</ele>
        <time>2020-06-02T17:29:55Z</time>
      </trkpt>
      <trkpt lat="46.34768" lon="-1.38522">
        <ele>5.2</ele>
        <time>2020-06-02T17:29:56Z</time>
      </trkpt>
      <trkpt lat="46.34767" lon="-1.3853">
        <ele>5.2</ele>
        <time>2020-06-02T17:29:57Z</time>
      </trkpt>
      <trkpt lat="46.34766" lon="-1.38537">
        <ele>5.2</ele>
        <time>2020-06-02T17:29:58Z</time>
      </trkpt>
      <trkpt lat="46.34766" lon="-1.38545">
        <ele>5.2</ele>
        <time>2020-06-02T17:29:59Z</time>
      </trkpt>
      <trkpt lat="46.34765" lon="-1.38552">
        <ele>5.2</ele>
        <time>2020-06-02T17:30:00Z</time>
      </trkpt>
      <trkpt lat="46.34765" lon="-1.3856">
        <ele>5.2</ele>
        <time>2020-06-02T17:30:01Z</time>
      </trkpt>
      <trkpt lat="46.34765" lon="-1.38568">
        <ele>5.2</ele>
        <time>2020-06-02T17:30:02Z</time>
      </trkpt>
      <trkpt lat="46.34765" lon="-1.38576">
        <ele>5.2</ele>
        <time>2020-06-02T17:30:03Z</time>
      </trkpt>
      <trkpt lat="46.34764" lon="-1.38583">
        <ele>5.2</ele>
        <time>2020-06-02T17:30:04Z</time>
      </trkpt>
      <trkpt lat="46.34764" lon="-1.38591">
        <ele>5.2</ele>
        <time>2020-06-02T17:30:05Z</time>
      </trkpt>
      <trkpt lat="46.34764" lon="-1.38599">
        <ele>5.2</ele>
        <time>2020-06-02T17:30:06Z</time>
      </trkpt>
      <trkpt lat="46.34763" lon="-1.38606">
        <ele>5.2</ele>
        <time>2020-06-02T17:30:07Z</time>
      </trkpt>
      <trkpt lat="46.34762" lon="-1.38614">
        <ele>5.2</ele>
        <time>2020-06-02T17:30:08Z</time>
      </trkpt>
      <trkpt lat="46.34761" lon="-1.38621">
        <ele>5.2</ele>
        <time>2020-06-02T17:30:09Z</time>
      </trkpt>
      <trkpt lat="46.34761" lon="-1.38629">
        <ele>5.2</ele>
        <time>2020-06-02T17:30:10Z</time>
      </trkpt>
      <trkpt lat="46.34761" lon="-1.38637">
        <ele>5.2</ele>
        <time>2020-06-02T17:30:11Z</time>
      </trkpt>
      <trkpt lat="46.34761" lon="-1.38644">
        <ele>5.2</ele>
        <time>2020-06-02T17:30:12Z</time>
      </trkpt>
      <trkpt lat="46.3476" lon="-1.38652">
        <ele>5.2</ele>
        <time>2020-06-02T17:30:13Z</time>
      </trkpt>
      <trkpt lat="46.3476" lon="-1.38659">
        <ele>5.2</ele>
        <time>2020-06-02T17:30:14Z</time>
      </trkpt>
      <trkpt lat="46.34758" lon="-1.38667">
        <ele>5.2</ele>
        <time>2020-06-02T17:30:15Z</time>
      </trkpt>
      <trkpt lat="46.34758" lon="-1.38674">
        <ele>5.1</ele>
        <time>2020-06-02T17:30:16Z</time>
      </trkpt>
      <trkpt lat="46.34757" lon="-1.38682">
        <ele>5.1</ele>
        <time>2020-06-02T17:30:17Z</time>
      </trkpt>
      <trkpt lat="46.34757" lon="-1.38689">
        <ele>5.1</ele>
        <time>2020-06-02T17:30:18Z</time>
      </trkpt>
      <trkpt lat="46.34757" lon="-1.38697">
        <ele>5.1</ele>
        <time>2020-06-02T17:30:19Z</time>
      </trkpt>
      <trkpt lat="46.34756" lon="-1.38705">
        <ele>5.1</ele>
        <time>2020-06-02T17:30:20Z</time>
      </trkpt>
      <trkpt lat="46.34756" lon="-1.38712">
        <ele>5.1</ele>
        <time>2020-06-02T17:30:21Z</time>
      </trkpt>
      <trkpt lat="46.34755" lon="-1.3872">
        <ele>5.1</ele>
        <time>2020-06-02T17:30:22Z</time>
      </trkpt>
      <trkpt lat="46.34754" lon="-1.38728">
        <ele>5.1</ele>
        <time>2020-06-02T17:30:23Z</time>
      </trkpt>
      <trkpt lat="46.34753" lon="-1.38735">
        <ele>5.1</ele>
        <time>2020-06-02T17:30:24Z</time>
      </trkpt>
      <trkpt lat="46.34752" lon="-1.38743">
        <ele>5.1</ele>
        <time>2020-06-02T17:30:25Z</time>
      </trkpt>
      <trkpt lat="46.34752" lon="-1.38751">
        <ele>5.1</ele>
        <time>2020-06-02T17:30:26Z</time>
      </trkpt>
      <trkpt lat="46.34751" lon="-1.38759">
        <ele>5.1</ele>
        <time>2020-06-02T17:30:27Z</time>
      </trkpt>
      <trkpt lat="46.3475" lon="-1.38767">
        <ele>5.1</ele>
        <time>2020-06-02T17:30:28Z</time>
      </trkpt>
      <trkpt lat="46.3475" lon="-1.38775">
        <ele>5.1</ele>
        <time>2020-06-02T17:30:29Z</time>
      </trkpt>
      <trkpt lat="46.34749" lon="-1.38782">
        <ele>5.1</ele>
        <time>2020-06-02T17:30:30Z</time>
      </trkpt>
      <trkpt lat="46.34749" lon="-1.3879">
        <ele>5.1</ele>
        <time>2020-06-02T17:30:31Z</time>
      </trkpt>
      <trkpt lat="46.34749" lon="-1.38796">
        <ele>5.1</ele>
        <time>2020-06-02T17:30:32Z</time>
      </trkpt>
      <trkpt lat="46.34749" lon="-1.38802">
        <ele>5.1</ele>
        <time>2020-06-02T17:30:33Z</time>
      </trkpt>
      <trkpt lat="46.34748" lon="-1.38808">
        <ele>5.1</ele>
        <time>2020-06-02T17:30:34Z</time>
      </trkpt>
      <trkpt lat="46.34747" lon="-1.38814">
        <ele>5.1</ele>
        <time>2020-06-02T17:30:35Z</time>
      </trkpt>
      <trkpt lat="46.34746" lon="-1.38819">
        <ele>5.1</ele>
        <time>2020-06-02T17:30:36Z</time>
      </trkpt>
      <trkpt lat="46.34746" lon="-1.38826">
        <ele>5.1</ele>
        <time>2020-06-02T17:30:37Z</time>
      </trkpt>
      <trkpt lat="46.34745" lon="-1.38832">
        <ele>5.1</ele>
        <time>2020-06-02T17:30:38Z</time>
      </trkpt>
      <trkpt lat="46.34745" lon="-1.38839">
        <ele>5</ele>
        <time>2020-06-02T17:30:39Z</time>
      </trkpt>
      <trkpt lat="46.34744" lon="-1.38846">
        <ele>5</ele>
        <time>2020-06-02T17:30:40Z</time>
      </trkpt>
      <trkpt lat="46.34744" lon="-1.38854">
        <ele>5</ele>
        <time>2020-06-02T17:30:41Z</time>
      </trkpt>
      <trkpt lat="46.34744" lon="-1.38861">
        <ele>5</ele>
        <time>2020-06-02T17:30:42Z</time>
      </trkpt>
      <trkpt lat="46.34744" lon="-1.38868">
        <ele>5</ele>
        <time>2020-06-02T17:30:43Z</time>
      </trkpt>
      <trkpt lat="46.34744" lon="-1.38875">
        <ele>5</ele>
        <time>2020-06-02T17:30:44Z</time>
      </trkpt>
      <trkpt lat="46.34743" lon="-1.38882">
        <ele>5</ele>
        <time>2020-06-02T17:30:45Z</time>
      </trkpt>
      <trkpt lat="46.34743" lon="-1.38889">
        <ele>5</ele>
        <time>2020-06-02T17:30:46Z</time>
      </trkpt>
      <trkpt lat="46.34743" lon="-1.38897">
        <ele>5</ele>
        <time>2020-06-02T17:30:47Z</time>
      </trkpt>
      <trkpt lat="46.34742" lon="-1.38905">
        <ele>5</ele>
        <time>2020-06-02T17:30:48Z</time>
      </trkpt>
      <trkpt lat="46.34741" lon="-1.38914">
        <ele>5</ele>
        <time>2020-06-02T17:30:49Z</time>
      </trkpt>
      <trkpt lat="46.3474" lon="-1.38923">
        <ele>5</ele>
        <time>2020-06-02T17:30:50Z</time>
      </trkpt>
      <trkpt lat="46.34739" lon="-1.38931">
        <ele>5</ele>
        <time>2020-06-02T17:30:51Z</time>
      </trkpt>
      <trkpt lat="46.34739" lon="-1.3894">
        <ele>5.1</ele>
        <time>2020-06-02T17:30:52Z</time>
      </trkpt>
      <trkpt lat="46.34738" lon="-1.38949">
        <ele>5.1</ele>
        <time>2020-06-02T17:30:53Z</time>
      </trkpt>
      <trkpt lat="46.34738" lon="-1.38956">
        <ele>5.1</ele>
        <time>2020-06-02T17:30:54Z</time>
      </trkpt>
      <trkpt lat="46.34738" lon="-1.38965">
        <ele>5.1</ele>
        <time>2020-06-02T17:30:55Z</time>
      </trkpt>
      <trkpt lat="46.34737" lon="-1.38973">
        <ele>5.1</ele>
        <time>2020-06-02T17:30:56Z</time>
      </trkpt>
      <trkpt lat="46.34737" lon="-1.38979">
        <ele>5.1</ele>
        <time>2020-06-02T17:30:57Z</time>
      </trkpt>
      <trkpt lat="46.34737" lon="-1.38987">
        <ele>5.1</ele>
        <time>2020-06-02T17:30:58Z</time>
      </trkpt>
      <trkpt lat="46.34736" lon="-1.38995">
        <ele>5.1</ele>
        <time>2020-06-02T17:30:59Z</time>
      </trkpt>
      <trkpt lat="46.34735" lon="-1.39005">
        <ele>5.1</ele>
        <time>2020-06-02T17:31:00Z</time>
      </trkpt>
      <trkpt lat="46.34734" lon="-1.39011">
        <ele>5.1</ele>
        <time>2020-06-02T17:31:01Z</time>
      </trkpt>
      <trkpt lat="46.34732" lon="-1.3902">
        <ele>5</ele>
        <time>2020-06-02T17:31:02Z</time>
      </trkpt>
      <trkpt lat="46.34731" lon="-1.39028">
        <ele>5</ele>
        <time>2020-06-02T17:31:03Z</time>
      </trkpt>
      <trkpt lat="46.3473" lon="-1.39036">
        <ele>5</ele>
        <time>2020-06-02T17:31:04Z</time>
      </trkpt>
      <trkpt lat="46.34729" lon="-1.39045">
        <ele>5</ele>
        <time>2020-06-02T17:31:05Z</time>
      </trkpt>
      <trkpt lat="46.34729" lon="-1.39054">
        <ele>4.9</ele>
        <time>2020-06-02T17:31:06Z</time>
      </trkpt>
      <trkpt lat="46.34728" lon="-1.39062">
        <ele>4.9</ele>
        <time>2020-06-02T17:31:07Z</time>
      </trkpt>
      <trkpt lat="46.34728" lon="-1.3907">
        <ele>4.8</ele>
        <time>2020-06-02T17:31:08Z</time>
      </trkpt>
      <trkpt lat="46.34728" lon="-1.39078">
        <ele>4.8</ele>
        <time>2020-06-02T17:31:09Z</time>
      </trkpt>
      <trkpt lat="46.34727" lon="-1.39086">
        <ele>4.8</ele>
        <time>2020-06-02T17:31:10Z</time>
      </trkpt>
      <trkpt lat="46.34727" lon="-1.39093">
        <ele>4.8</ele>
        <time>2020-06-02T17:31:11Z</time>
      </trkpt>
      <trkpt lat="46.34727" lon="-1.391">
        <ele>4.7</ele>
        <time>2020-06-02T17:31:12Z</time>
      </trkpt>
      <trkpt lat="46.34727" lon="-1.39107">
        <ele>4.7</ele>
        <time>2020-06-02T17:31:13Z</time>
      </trkpt>
      <trkpt lat="46.34726" lon="-1.39116">
        <ele>4.7</ele>
        <time>2020-06-02T17:31:14Z</time>
      </trkpt>
      <trkpt lat="46.34725" lon="-1.39122">
        <ele>4.7</ele>
        <time>2020-06-02T17:31:15Z</time>
      </trkpt>
      <trkpt lat="46.34724" lon="-1.39129">
        <ele>4.6</ele>
        <time>2020-06-02T17:31:16Z</time>
      </trkpt>
      <trkpt lat="46.34723" lon="-1.39138">
        <ele>4.6</ele>
        <time>2020-06-02T17:31:17Z</time>
      </trkpt>
      <trkpt lat="46.34723" lon="-1.39145">
        <ele>4.6</ele>
        <time>2020-06-02T17:31:18Z</time>
      </trkpt>
      <trkpt lat="46.34723" lon="-1.39152">
        <ele>4.5</ele>
        <time>2020-06-02T17:31:19Z</time>
      </trkpt>
      <trkpt lat="46.34723" lon="-1.39159">
        <ele>4.5</ele>
        <time>2020-06-02T17:31:20Z</time>
      </trkpt>
      <trkpt lat="46.34724" lon="-1.39167">
        <ele>4.5</ele>
        <time>2020-06-02T17:31:21Z</time>
      </trkpt>
      <trkpt lat="46.34724" lon="-1.39175">
        <ele>4.4</ele>
        <time>2020-06-02T17:31:22Z</time>
      </trkpt>
      <trkpt lat="46.34724" lon="-1.39182">
        <ele>4.4</ele>
        <time>2020-06-02T17:31:23Z</time>
      </trkpt>
      <trkpt lat="46.34723" lon="-1.39191">
        <ele>4.3</ele>
        <time>2020-06-02T17:31:24Z</time>
      </trkpt>
      <trkpt lat="46.34723" lon="-1.39198">
        <ele>4.3</ele>
        <time>2020-06-02T17:31:25Z</time>
      </trkpt>
      <trkpt lat="46.34723" lon="-1.39205">
        <ele>4.3</ele>
        <time>2020-06-02T17:31:26Z</time>
      </trkpt>
      <trkpt lat="46.34723" lon="-1.39213">
        <ele>4.2</ele>
        <time>2020-06-02T17:31:27Z</time>
      </trkpt>
      <trkpt lat="46.34723" lon="-1.3922">
        <ele>4.2</ele>
        <time>2020-06-02T17:31:28Z</time>
      </trkpt>
      <trkpt lat="46.34723" lon="-1.39226">
        <ele>4.2</ele>
        <time>2020-06-02T17:31:29Z</time>
      </trkpt>
      <trkpt lat="46.34723" lon="-1.39233">
        <ele>4.2</ele>
        <time>2020-06-02T17:31:30Z</time>
      </trkpt>
      <trkpt lat="46.34723" lon="-1.3924">
        <ele>4.2</ele>
        <time>2020-06-02T17:31:31Z</time>
      </trkpt>
      <trkpt lat="46.34725" lon="-1.39247">
        <ele>4.2</ele>
        <time>2020-06-02T17:31:32Z</time>
      </trkpt>
      <trkpt lat="46.34725" lon="-1.39255">
        <ele>4.2</ele>
        <time>2020-06-02T17:31:33Z</time>
      </trkpt>
      <trkpt lat="46.34726" lon="-1.39262">
        <ele>4.2</ele>
        <time>2020-06-02T17:31:34Z</time>
      </trkpt>
      <trkpt lat="46.34726" lon="-1.39271">
        <ele>4.2</ele>
        <time>2020-06-02T17:31:35Z</time>
      </trkpt>
      <trkpt lat="46.34726" lon="-1.3928">
        <ele>4.2</ele>
        <time>2020-06-02T17:31:36Z</time>
      </trkpt>
      <trkpt lat="46.34727" lon="-1.39286">
        <ele>4.2</ele>
        <time>2020-06-02T17:31:37Z</time>
      </trkpt>
      <trkpt lat="46.34728" lon="-1.39294">
        <ele>4.3</ele>
        <time>2020-06-02T17:31:38Z</time>
      </trkpt>
      <trkpt lat="46.34729" lon="-1.39299">
        <ele>4.3</ele>
        <time>2020-06-02T17:31:39Z</time>
      </trkpt>
      <trkpt lat="46.34729" lon="-1.39307">
        <ele>4.4</ele>
        <time>2020-06-02T17:31:40Z</time>
      </trkpt>
      <trkpt lat="46.34729" lon="-1.39315">
        <ele>4.4</ele>
        <time>2020-06-02T17:31:41Z</time>
      </trkpt>
      <trkpt lat="46.3473" lon="-1.39323">
        <ele>4.5</ele>
        <time>2020-06-02T17:31:42Z</time>
      </trkpt>
      <trkpt lat="46.34731" lon="-1.39329">
        <ele>4.6</ele>
        <time>2020-06-02T17:31:43Z</time>
      </trkpt>
      <trkpt lat="46.34733" lon="-1.39336">
        <ele>4.7</ele>
        <time>2020-06-02T17:31:44Z</time>
      </trkpt>
      <trkpt lat="46.34733" lon="-1.39341">
        <ele>4.8</ele>
        <time>2020-06-02T17:31:45Z</time>
      </trkpt>
      <trkpt lat="46.34735" lon="-1.39348">
        <ele>4.9</ele>
        <time>2020-06-02T17:31:46Z</time>
      </trkpt>
      <trkpt lat="46.34737" lon="-1.39356">
        <ele>5</ele>
        <time>2020-06-02T17:31:47Z</time>
      </trkpt>
      <trkpt lat="46.34738" lon="-1.39364">
        <ele>5.1</ele>
        <time>2020-06-02T17:31:48Z</time>
      </trkpt>
      <trkpt lat="46.3474" lon="-1.39368">
        <ele>5.2</ele>
        <time>2020-06-02T17:31:49Z</time>
      </trkpt>
      <trkpt lat="46.34741" lon="-1.39376">
        <ele>5.3</ele>
        <time>2020-06-02T17:31:50Z</time>
      </trkpt>
      <trkpt lat="46.34741" lon="-1.39383">
        <ele>5.3</ele>
        <time>2020-06-02T17:31:51Z</time>
      </trkpt>
      <trkpt lat="46.34742" lon="-1.3939">
        <ele>5.4</ele>
        <time>2020-06-02T17:31:52Z</time>
      </trkpt>
      <trkpt lat="46.34742" lon="-1.39398">
        <ele>5.5</ele>
        <time>2020-06-02T17:31:53Z</time>
      </trkpt>
      <trkpt lat="46.34742" lon="-1.39405">
        <ele>5.6</ele>
        <time>2020-06-02T17:31:54Z</time>
      </trkpt>
      <trkpt lat="46.34742" lon="-1.3941">
        <ele>5.7</ele>
        <time>2020-06-02T17:31:55Z</time>
      </trkpt>
      <trkpt lat="46.34743" lon="-1.39416">
        <ele>5.8</ele>
        <time>2020-06-02T17:31:56Z</time>
      </trkpt>
      <trkpt lat="46.34743" lon="-1.39421">
        <ele>5.8</ele>
        <time>2020-06-02T17:31:57Z</time>
      </trkpt>
      <trkpt lat="46.34743" lon="-1.39428">
        <ele>5.9</ele>
        <time>2020-06-02T17:31:58Z</time>
      </trkpt>
      <trkpt lat="46.34744" lon="-1.39433">
        <ele>5.9</ele>
        <time>2020-06-02T17:31:59Z</time>
      </trkpt>
      <trkpt lat="46.34744" lon="-1.39442">
        <ele>6</ele>
        <time>2020-06-02T17:32:00Z</time>
      </trkpt>
      <trkpt lat="46.34747" lon="-1.39445">
        <ele>6</ele>
        <time>2020-06-02T17:32:01Z</time>
      </trkpt>
      <trkpt lat="46.3475" lon="-1.39452">
        <ele>6</ele>
        <time>2020-06-02T17:32:02Z</time>
      </trkpt>
      <trkpt lat="46.34751" lon="-1.39457">
        <ele>6</ele>
        <time>2020-06-02T17:32:03Z</time>
      </trkpt>
      <trkpt lat="46.34752" lon="-1.39463">
        <ele>5.9</ele>
        <time>2020-06-02T17:32:04Z</time>
      </trkpt>
      <trkpt lat="46.34752" lon="-1.39468">
        <ele>5.9</ele>
        <time>2020-06-02T17:32:05Z</time>
      </trkpt>
      <trkpt lat="46.34753" lon="-1.39476">
        <ele>5.9</ele>
        <time>2020-06-02T17:32:06Z</time>
      </trkpt>
      <trkpt lat="46.34755" lon="-1.39484">
        <ele>5.8</ele>
        <time>2020-06-02T17:32:07Z</time>
      </trkpt>
      <trkpt lat="46.34755" lon="-1.39491">
        <ele>5.8</ele>
        <time>2020-06-02T17:32:08Z</time>
      </trkpt>
      <trkpt lat="46.34756" lon="-1.39497">
        <ele>5.7</ele>
        <time>2020-06-02T17:32:09Z</time>
      </trkpt>
      <trkpt lat="46.34757" lon="-1.39506">
        <ele>5.6</ele>
        <time>2020-06-02T17:32:10Z</time>
      </trkpt>
      <trkpt lat="46.34758" lon="-1.39513">
        <ele>5.6</ele>
        <time>2020-06-02T17:32:11Z</time>
      </trkpt>
      <trkpt lat="46.34758" lon="-1.3952">
        <ele>5.6</ele>
        <time>2020-06-02T17:32:12Z</time>
      </trkpt>
      <trkpt lat="46.34759" lon="-1.39527">
        <ele>5.5</ele>
        <time>2020-06-02T17:32:13Z</time>
      </trkpt>
      <trkpt lat="46.3476" lon="-1.39533">
        <ele>5.5</ele>
        <time>2020-06-02T17:32:14Z</time>
      </trkpt>
      <trkpt lat="46.34761" lon="-1.3954">
        <ele>5.5</ele>
        <time>2020-06-02T17:32:15Z</time>
      </trkpt>
      <trkpt lat="46.34762" lon="-1.39547">
        <ele>5.4</ele>
        <time>2020-06-02T17:32:16Z</time>
      </trkpt>
      <trkpt lat="46.34763" lon="-1.39553">
        <ele>5.3</ele>
        <time>2020-06-02T17:32:17Z</time>
      </trkpt>
      <trkpt lat="46.34764" lon="-1.39559">
        <ele>5.3</ele>
        <time>2020-06-02T17:32:18Z</time>
      </trkpt>
      <trkpt lat="46.34766" lon="-1.39566">
        <ele>5.2</ele>
        <time>2020-06-02T17:32:19Z</time>
      </trkpt>
      <trkpt lat="46.34767" lon="-1.39572">
        <ele>5.2</ele>
        <time>2020-06-02T17:32:20Z</time>
      </trkpt>
      <trkpt lat="46.34768" lon="-1.39579">
        <ele>5.2</ele>
        <time>2020-06-02T17:32:21Z</time>
      </trkpt>
      <trkpt lat="46.34768" lon="-1.39585">
        <ele>5.1</ele>
        <time>2020-06-02T17:32:22Z</time>
      </trkpt>
      <trkpt lat="46.34769" lon="-1.39591">
        <ele>5.1</ele>
        <time>2020-06-02T17:32:23Z</time>
      </trkpt>
      <trkpt lat="46.34769" lon="-1.39597">
        <ele>5.1</ele>
        <time>2020-06-02T17:32:24Z</time>
      </trkpt>
      <trkpt lat="46.34769" lon="-1.39605">
        <ele>5.1</ele>
        <time>2020-06-02T17:32:25Z</time>
      </trkpt>
      <trkpt lat="46.3477" lon="-1.39613">
        <ele>5</ele>
        <time>2020-06-02T17:32:26Z</time>
      </trkpt>
      <trkpt lat="46.3477" lon="-1.39619">
        <ele>5</ele>
        <time>2020-06-02T17:32:27Z</time>
      </trkpt>
      <trkpt lat="46.34769" lon="-1.39625">
        <ele>5</ele>
        <time>2020-06-02T17:32:28Z</time>
      </trkpt>
      <trkpt lat="46.34769" lon="-1.39633">
        <ele>5</ele>
        <time>2020-06-02T17:32:29Z</time>
      </trkpt>
      <trkpt lat="46.3477" lon="-1.3964">
        <ele>5</ele>
        <time>2020-06-02T17:32:30Z</time>
      </trkpt>
      <trkpt lat="46.3477" lon="-1.39647">
        <ele>5</ele>
        <time>2020-06-02T17:32:31Z</time>
      </trkpt>
      <trkpt lat="46.3477" lon="-1.39653">
        <ele>5</ele>
        <time>2020-06-02T17:32:32Z</time>
      </trkpt>
      <trkpt lat="46.3477" lon="-1.3966">
        <ele>5</ele>
        <time>2020-06-02T17:32:33Z</time>
      </trkpt>
      <trkpt lat="46.3477" lon="-1.39667">
        <ele>5</ele>
        <time>2020-06-02T17:32:34Z</time>
      </trkpt>
      <trkpt lat="46.34771" lon="-1.39674">
        <ele>5</ele>
        <time>2020-06-02T17:32:35Z</time>
      </trkpt>
      <trkpt lat="46.34772" lon="-1.3968">
        <ele>5.1</ele>
        <time>2020-06-02T17:32:36Z</time>
      </trkpt>
      <trkpt lat="46.34772" lon="-1.39687">
        <ele>5.1</ele>
        <time>2020-06-02T17:32:37Z</time>
      </trkpt>
      <trkpt lat="46.34772" lon="-1.39693">
        <ele>5.1</ele>
        <time>2020-06-02T17:32:38Z</time>
      </trkpt>
      <trkpt lat="46.34772" lon="-1.39699">
        <ele>5.1</ele>
        <time>2020-06-02T17:32:39Z</time>
      </trkpt>
      <trkpt lat="46.34772" lon="-1.39707">
        <ele>5.2</ele>
        <time>2020-06-02T17:32:40Z</time>
      </trkpt>
      <trkpt lat="46.34772" lon="-1.39714">
        <ele>5.2</ele>
        <time>2020-06-02T17:32:41Z</time>
      </trkpt>
      <trkpt lat="46.34772" lon="-1.39723">
        <ele>5.2</ele>
        <time>2020-06-02T17:32:42Z</time>
      </trkpt>
      <trkpt lat="46.34771" lon="-1.3973">
        <ele>5.2</ele>
        <time>2020-06-02T17:32:43Z</time>
      </trkpt>
      <trkpt lat="46.34771" lon="-1.39737">
        <ele>5.2</ele>
        <time>2020-06-02T17:32:44Z</time>
      </trkpt>
      <trkpt lat="46.3477" lon="-1.39744">
        <ele>5.2</ele>
        <time>2020-06-02T17:32:45Z</time>
      </trkpt>
      <trkpt lat="46.34769" lon="-1.39751">
        <ele>5.2</ele>
        <time>2020-06-02T17:32:46Z</time>
      </trkpt>
      <trkpt lat="46.34768" lon="-1.39756">
        <ele>5.2</ele>
        <time>2020-06-02T17:32:47Z</time>
      </trkpt>
      <trkpt lat="46.34769" lon="-1.39764">
        <ele>5.2</ele>
        <time>2020-06-02T17:32:48Z</time>
      </trkpt>
      <trkpt lat="46.34769" lon="-1.3977">
        <ele>5.2</ele>
        <time>2020-06-02T17:32:49Z</time>
      </trkpt>
      <trkpt lat="46.34769" lon="-1.39776">
        <ele>5.2</ele>
        <time>2020-06-02T17:32:50Z</time>
      </trkpt>
      <trkpt lat="46.34769" lon="-1.39783">
        <ele>5.2</ele>
        <time>2020-06-02T17:32:51Z</time>
      </trkpt>
      <trkpt lat="46.34769" lon="-1.39789">
        <ele>5.2</ele>
        <time>2020-06-02T17:32:52Z</time>
      </trkpt>
      <trkpt lat="46.34768" lon="-1.39797">
        <ele>5.2</ele>
        <time>2020-06-02T17:32:53Z</time>
      </trkpt>
      <trkpt lat="46.34768" lon="-1.39805">
        <ele>5.2</ele>
        <time>2020-06-02T17:32:54Z</time>
      </trkpt>
      <trkpt lat="46.34768" lon="-1.39813">
        <ele>5.2</ele>
        <time>2020-06-02T17:32:55Z</time>
      </trkpt>
      <trkpt lat="46.34768" lon="-1.39822">
        <ele>5.2</ele>
        <time>2020-06-02T17:32:56Z</time>
      </trkpt>
      <trkpt lat="46.34768" lon="-1.39828">
        <ele>5.2</ele>
        <time>2020-06-02T17:32:57Z</time>
      </trkpt>
      <trkpt lat="46.34768" lon="-1.39837">
        <ele>5.2</ele>
        <time>2020-06-02T17:32:58Z</time>
      </trkpt>
      <trkpt lat="46.34768" lon="-1.39843">
        <ele>5.2</ele>
        <time>2020-06-02T17:32:59Z</time>
      </trkpt>
      <trkpt lat="46.34768" lon="-1.39849">
        <ele>5.2</ele>
        <time>2020-06-02T17:33:00Z</time>
      </trkpt>
      <trkpt lat="46.34769" lon="-1.39855">
        <ele>5.2</ele>
        <time>2020-06-02T17:33:01Z</time>
      </trkpt>
      <trkpt lat="46.3477" lon="-1.3986">
        <ele>5.3</ele>
        <time>2020-06-02T17:33:02Z</time>
      </trkpt>
      <trkpt lat="46.3477" lon="-1.39867">
        <ele>5.3</ele>
        <time>2020-06-02T17:33:03Z</time>
      </trkpt>
      <trkpt lat="46.34771" lon="-1.39875">
        <ele>5.3</ele>
        <time>2020-06-02T17:33:04Z</time>
      </trkpt>
      <trkpt lat="46.3477" lon="-1.39883">
        <ele>5.3</ele>
        <time>2020-06-02T17:33:05Z</time>
      </trkpt>
      <trkpt lat="46.34771" lon="-1.39889">
        <ele>5.3</ele>
        <time>2020-06-02T17:33:06Z</time>
      </trkpt>
      <trkpt lat="46.34772" lon="-1.39896">
        <ele>5.4</ele>
        <time>2020-06-02T17:33:07Z</time>
      </trkpt>
      <trkpt lat="46.34772" lon="-1.39902">
        <ele>5.4</ele>
        <time>2020-06-02T17:33:08Z</time>
      </trkpt>
      <trkpt lat="46.34774" lon="-1.39906">
        <ele>5.4</ele>
        <time>2020-06-02T17:33:09Z</time>
      </trkpt>
      <trkpt lat="46.34775" lon="-1.39914">
        <ele>5.4</ele>
        <time>2020-06-02T17:33:10Z</time>
      </trkpt>
      <trkpt lat="46.34776" lon="-1.39921">
        <ele>5.4</ele>
        <time>2020-06-02T17:33:11Z</time>
      </trkpt>
      <trkpt lat="46.34778" lon="-1.39928">
        <ele>5.4</ele>
        <time>2020-06-02T17:33:12Z</time>
      </trkpt>
      <trkpt lat="46.34779" lon="-1.39934">
        <ele>5.4</ele>
        <time>2020-06-02T17:33:13Z</time>
      </trkpt>
      <trkpt lat="46.3478" lon="-1.3994">
        <ele>5.5</ele>
        <time>2020-06-02T17:33:14Z</time>
      </trkpt>
      <trkpt lat="46.34782" lon="-1.39946">
        <ele>5.5</ele>
        <time>2020-06-02T17:33:15Z</time>
      </trkpt>
      <trkpt lat="46.34783" lon="-1.39953">
        <ele>5.5</ele>
        <time>2020-06-02T17:33:16Z</time>
      </trkpt>
      <trkpt lat="46.34784" lon="-1.3996">
        <ele>5.5</ele>
        <time>2020-06-02T17:33:17Z</time>
      </trkpt>
      <trkpt lat="46.34785" lon="-1.39967">
        <ele>5.5</ele>
        <time>2020-06-02T17:33:18Z</time>
      </trkpt>
      <trkpt lat="46.34787" lon="-1.39973">
        <ele>5.6</ele>
        <time>2020-06-02T17:33:19Z</time>
      </trkpt>
      <trkpt lat="46.34787" lon="-1.3998">
        <ele>5.6</ele>
        <time>2020-06-02T17:33:20Z</time>
      </trkpt>
      <trkpt lat="46.34788" lon="-1.39985">
        <ele>5.6</ele>
        <time>2020-06-02T17:33:21Z</time>
      </trkpt>
      <trkpt lat="46.3479" lon="-1.39992">
        <ele>5.7</ele>
        <time>2020-06-02T17:33:22Z</time>
      </trkpt>
      <trkpt lat="46.34791" lon="-1.39996">
        <ele>5.7</ele>
        <time>2020-06-02T17:33:23Z</time>
      </trkpt>
      <trkpt lat="46.34793" lon="-1.40003">
        <ele>5.7</ele>
        <time>2020-06-02T17:33:24Z</time>
      </trkpt>
      <trkpt lat="46.34794" lon="-1.40009">
        <ele>5.7</ele>
        <time>2020-06-02T17:33:25Z</time>
      </trkpt>
      <trkpt lat="46.34795" lon="-1.40016">
        <ele>5.7</ele>
        <time>2020-06-02T17:33:26Z</time>
      </trkpt>
      <trkpt lat="46.34796" lon="-1.40021">
        <ele>5.7</ele>
        <time>2020-06-02T17:33:27Z</time>
      </trkpt>
      <trkpt lat="46.34797" lon="-1.40026">
        <ele>5.7</ele>
        <time>2020-06-02T17:33:28Z</time>
      </trkpt>
      <trkpt lat="46.34798" lon="-1.40031">
        <ele>5.7</ele>
        <time>2020-06-02T17:33:29Z</time>
      </trkpt>
      <trkpt lat="46.34799" lon="-1.40038">
        <ele>5.7</ele>
        <time>2020-06-02T17:33:30Z</time>
      </trkpt>
      <trkpt lat="46.34801" lon="-1.40043">
        <ele>5.7</ele>
        <time>2020-06-02T17:33:31Z</time>
      </trkpt>
      <trkpt lat="46.34802" lon="-1.40049">
        <ele>5.7</ele>
        <time>2020-06-02T17:33:32Z</time>
      </trkpt>
      <trkpt lat="46.34803" lon="-1.40055">
        <ele>5.7</ele>
        <time>2020-06-02T17:33:33Z</time>
      </trkpt>
      <trkpt lat="46.34804" lon="-1.4006">
        <ele>5.7</ele>
        <time>2020-06-02T17:33:34Z</time>
      </trkpt>
      <trkpt lat="46.34806" lon="-1.40067">
        <ele>5.7</ele>
        <time>2020-06-02T17:33:35Z</time>
      </trkpt>
      <trkpt lat="46.34806" lon="-1.40073">
        <ele>5.7</ele>
        <time>2020-06-02T17:33:36Z</time>
      </trkpt>
      <trkpt lat="46.34807" lon="-1.40077">
        <ele>5.6</ele>
        <time>2020-06-02T17:33:37Z</time>
      </trkpt>
      <trkpt lat="46.34808" lon="-1.40084">
        <ele>5.6</ele>
        <time>2020-06-02T17:33:38Z</time>
      </trkpt>
      <trkpt lat="46.34808" lon="-1.40089">
        <ele>5.5</ele>
        <time>2020-06-02T17:33:39Z</time>
      </trkpt>
      <trkpt lat="46.34809" lon="-1.40096">
        <ele>5.5</ele>
        <time>2020-06-02T17:33:40Z</time>
      </trkpt>
      <trkpt lat="46.3481" lon="-1.40103">
        <ele>5.4</ele>
        <time>2020-06-02T17:33:41Z</time>
      </trkpt>
      <trkpt lat="46.34812" lon="-1.4011">
        <ele>5.3</ele>
        <time>2020-06-02T17:33:42Z</time>
      </trkpt>
      <trkpt lat="46.34813" lon="-1.40116">
        <ele>5.3</ele>
        <time>2020-06-02T17:33:43Z</time>
      </trkpt>
      <trkpt lat="46.34814" lon="-1.40123">
        <ele>5.2</ele>
        <time>2020-06-02T17:33:44Z</time>
      </trkpt>
      <trkpt lat="46.34815" lon="-1.40129">
        <ele>5.2</ele>
        <time>2020-06-02T17:33:45Z</time>
      </trkpt>
      <trkpt lat="46.34816" lon="-1.40135">
        <ele>5.1</ele>
        <time>2020-06-02T17:33:46Z</time>
      </trkpt>
      <trkpt lat="46.34818" lon="-1.40142">
        <ele>5.1</ele>
        <time>2020-06-02T17:33:47Z</time>
      </trkpt>
      <trkpt lat="46.34818" lon="-1.4015">
        <ele>5.1</ele>
        <time>2020-06-02T17:33:48Z</time>
      </trkpt>
      <trkpt lat="46.34819" lon="-1.40155">
        <ele>5</ele>
        <time>2020-06-02T17:33:49Z</time>
      </trkpt>
      <trkpt lat="46.3482" lon="-1.40161">
        <ele>5</ele>
        <time>2020-06-02T17:33:50Z</time>
      </trkpt>
      <trkpt lat="46.3482" lon="-1.40168">
        <ele>5</ele>
        <time>2020-06-02T17:33:51Z</time>
      </trkpt>
      <trkpt lat="46.3482" lon="-1.40174">
        <ele>4.9</ele>
        <time>2020-06-02T17:33:52Z</time>
      </trkpt>
      <trkpt lat="46.34821" lon="-1.40181">
        <ele>4.9</ele>
        <time>2020-06-02T17:33:53Z</time>
      </trkpt>
      <trkpt lat="46.34821" lon="-1.40187">
        <ele>4.9</ele>
        <time>2020-06-02T17:33:54Z</time>
      </trkpt>
      <trkpt lat="46.34822" lon="-1.40193">
        <ele>4.9</ele>
        <time>2020-06-02T17:33:55Z</time>
      </trkpt>
      <trkpt lat="46.34823" lon="-1.40201">
        <ele>4.9</ele>
        <time>2020-06-02T17:33:56Z</time>
      </trkpt>
      <trkpt lat="46.34822" lon="-1.40206">
        <ele>4.9</ele>
        <time>2020-06-02T17:33:57Z</time>
      </trkpt>
      <trkpt lat="46.34822" lon="-1.40212">
        <ele>4.9</ele>
        <time>2020-06-02T17:33:58Z</time>
      </trkpt>
      <trkpt lat="46.34822" lon="-1.40219">
        <ele>4.9</ele>
        <time>2020-06-02T17:33:59Z</time>
      </trkpt>
      <trkpt lat="46.34821" lon="-1.40225">
        <ele>4.9</ele>
        <time>2020-06-02T17:34:00Z</time>
      </trkpt>
      <trkpt lat="46.34821" lon="-1.40233">
        <ele>4.9</ele>
        <time>2020-06-02T17:34:01Z</time>
      </trkpt>
      <trkpt lat="46.3482" lon="-1.4024">
        <ele>4.9</ele>
        <time>2020-06-02T17:34:02Z</time>
      </trkpt>
      <trkpt lat="46.3482" lon="-1.40247">
        <ele>4.9</ele>
        <time>2020-06-02T17:34:03Z</time>
      </trkpt>
      <trkpt lat="46.34819" lon="-1.40253">
        <ele>4.9</ele>
        <time>2020-06-02T17:34:04Z</time>
      </trkpt>
      <trkpt lat="46.34818" lon="-1.40259">
        <ele>4.9</ele>
        <time>2020-06-02T17:34:05Z</time>
      </trkpt>
      <trkpt lat="46.34817" lon="-1.40266">
        <ele>5</ele>
        <time>2020-06-02T17:34:06Z</time>
      </trkpt>
      <trkpt lat="46.34816" lon="-1.40273">
        <ele>5</ele>
        <time>2020-06-02T17:34:07Z</time>
      </trkpt>
      <trkpt lat="46.34815" lon="-1.4028">
        <ele>5</ele>
        <time>2020-06-02T17:34:08Z</time>
      </trkpt>
      <trkpt lat="46.34814" lon="-1.40286">
        <ele>5.1</ele>
        <time>2020-06-02T17:34:09Z</time>
      </trkpt>
      <trkpt lat="46.34813" lon="-1.40292">
        <ele>5.1</ele>
        <time>2020-06-02T17:34:10Z</time>
      </trkpt>
      <trkpt lat="46.34813" lon="-1.40299">
        <ele>5.1</ele>
        <time>2020-06-02T17:34:11Z</time>
      </trkpt>
      <trkpt lat="46.34813" lon="-1.40307">
        <ele>5.2</ele>
        <time>2020-06-02T17:34:12Z</time>
      </trkpt>
      <trkpt lat="46.34812" lon="-1.40314">
        <ele>5.2</ele>
        <time>2020-06-02T17:34:13Z</time>
      </trkpt>
      <trkpt lat="46.34811" lon="-1.40319">
        <ele>5.2</ele>
        <time>2020-06-02T17:34:14Z</time>
      </trkpt>
      <trkpt lat="46.3481" lon="-1.40324">
        <ele>5.3</ele>
        <time>2020-06-02T17:34:15Z</time>
      </trkpt>
      <trkpt lat="46.34809" lon="-1.40329">
        <ele>5.3</ele>
        <time>2020-06-02T17:34:16Z</time>
      </trkpt>
      <trkpt lat="46.34808" lon="-1.40333">
        <ele>5.3</ele>
        <time>2020-06-02T17:34:17Z</time>
      </trkpt>
      <trkpt lat="46.34808" lon="-1.40336">
        <ele>5.3</ele>
        <time>2020-06-02T17:34:18Z</time>
      </trkpt>
      <trkpt lat="46.34804" lon="-1.40339">
        <ele>5.3</ele>
        <time>2020-06-02T17:34:19Z</time>
      </trkpt>
      <trkpt lat="46.34802" lon="-1.4034">
        <ele>5.3</ele>
        <time>2020-06-02T17:34:20Z</time>
      </trkpt>
      <trkpt lat="46.34799" lon="-1.40341">
        <ele>5.3</ele>
        <time>2020-06-02T17:34:21Z</time>
      </trkpt>
      <trkpt lat="46.34796" lon="-1.40344">
        <ele>5.3</ele>
        <time>2020-06-02T17:34:22Z</time>
      </trkpt>
      <trkpt lat="46.34795" lon="-1.40345">
        <ele>5.3</ele>
        <time>2020-06-02T17:34:23Z</time>
      </trkpt>
      <trkpt lat="46.34791" lon="-1.40348">
        <ele>5.3</ele>
        <time>2020-06-02T17:34:24Z</time>
      </trkpt>
      <trkpt lat="46.34789" lon="-1.4035">
        <ele>5.3</ele>
        <time>2020-06-02T17:34:25Z</time>
      </trkpt>
      <trkpt lat="46.34785" lon="-1.40352">
        <ele>5.3</ele>
        <time>2020-06-02T17:34:26Z</time>
      </trkpt>
      <trkpt lat="46.34783" lon="-1.40354">
        <ele>5.3</ele>
        <time>2020-06-02T17:34:27Z</time>
      </trkpt>
      <trkpt lat="46.3478" lon="-1.40356">
        <ele>5.3</ele>
        <time>2020-06-02T17:34:28Z</time>
      </trkpt>
      <trkpt lat="46.34777" lon="-1.40357">
        <ele>5.3</ele>
        <time>2020-06-02T17:34:29Z</time>
      </trkpt>
      <trkpt lat="46.34773" lon="-1.40359">
        <ele>5.3</ele>
        <time>2020-06-02T17:34:30Z</time>
      </trkpt>
      <trkpt lat="46.3477" lon="-1.40363">
        <ele>5.4</ele>
        <time>2020-06-02T17:34:31Z</time>
      </trkpt>
      <trkpt lat="46.34768" lon="-1.40364">
        <ele>5.4</ele>
        <time>2020-06-02T17:34:32Z</time>
      </trkpt>
      <trkpt lat="46.34766" lon="-1.40367">
        <ele>5.4</ele>
        <time>2020-06-02T17:34:33Z</time>
      </trkpt>
      <trkpt lat="46.34762" lon="-1.40371">
        <ele>5.4</ele>
        <time>2020-06-02T17:34:34Z</time>
      </trkpt>
      <trkpt lat="46.34759" lon="-1.40372">
        <ele>5.4</ele>
        <time>2020-06-02T17:34:35Z</time>
      </trkpt>
      <trkpt lat="46.34756" lon="-1.40374">
        <ele>5.4</ele>
        <time>2020-06-02T17:34:36Z</time>
      </trkpt>
      <trkpt lat="46.34752" lon="-1.40377">
        <ele>5.4</ele>
        <time>2020-06-02T17:34:37Z</time>
      </trkpt>
      <trkpt lat="46.34751" lon="-1.40379">
        <ele>5.4</ele>
        <time>2020-06-02T17:34:38Z</time>
      </trkpt>
      <trkpt lat="46.34748" lon="-1.40381">
        <ele>5.4</ele>
        <time>2020-06-02T17:34:39Z</time>
      </trkpt>
      <trkpt lat="46.34745" lon="-1.40384">
        <ele>5.4</ele>
        <time>2020-06-02T17:34:40Z</time>
      </trkpt>
      <trkpt lat="46.34741" lon="-1.40383">
        <ele>5.4</ele>
        <time>2020-06-02T17:34:41Z</time>
      </trkpt>
      <trkpt lat="46.34737" lon="-1.40382">
        <ele>5.4</ele>
        <time>2020-06-02T17:34:42Z</time>
      </trkpt>
      <trkpt lat="46.34732" lon="-1.40381">
        <ele>5.5</ele>
        <time>2020-06-02T17:34:43Z</time>
      </trkpt>
      <trkpt lat="46.34727" lon="-1.4038">
        <ele>5.5</ele>
        <time>2020-06-02T17:34:44Z</time>
      </trkpt>
      <trkpt lat="46.34722" lon="-1.4038">
        <ele>5.5</ele>
        <time>2020-06-02T17:34:45Z</time>
      </trkpt>
      <trkpt lat="46.34717" lon="-1.40379">
        <ele>5.5</ele>
        <time>2020-06-02T17:34:46Z</time>
      </trkpt>
      <trkpt lat="46.34713" lon="-1.40378">
        <ele>5.5</ele>
        <time>2020-06-02T17:34:47Z</time>
      </trkpt>
      <trkpt lat="46.34709" lon="-1.40378">
        <ele>5.5</ele>
        <time>2020-06-02T17:34:48Z</time>
      </trkpt>
      <trkpt lat="46.34705" lon="-1.4038">
        <ele>5.5</ele>
        <time>2020-06-02T17:34:49Z</time>
      </trkpt>
      <trkpt lat="46.34701" lon="-1.40383">
        <ele>5.5</ele>
        <time>2020-06-02T17:34:50Z</time>
      </trkpt>
      <trkpt lat="46.34698" lon="-1.40384">
        <ele>5.5</ele>
        <time>2020-06-02T17:34:51Z</time>
      </trkpt>
      <trkpt lat="46.34694" lon="-1.40386">
        <ele>5.5</ele>
        <time>2020-06-02T17:34:52Z</time>
      </trkpt>
      <trkpt lat="46.34692" lon="-1.40388">
        <ele>5.5</ele>
        <time>2020-06-02T17:34:53Z</time>
      </trkpt>
      <trkpt lat="46.34688" lon="-1.4039">
        <ele>5.5</ele>
        <time>2020-06-02T17:34:54Z</time>
      </trkpt>
      <trkpt lat="46.34686" lon="-1.40392">
        <ele>5.5</ele>
        <time>2020-06-02T17:34:55Z</time>
      </trkpt>
      <trkpt lat="46.34683" lon="-1.40394">
        <ele>5.5</ele>
        <time>2020-06-02T17:34:56Z</time>
      </trkpt>
      <trkpt lat="46.34679" lon="-1.40397">
        <ele>5.6</ele>
        <time>2020-06-02T17:34:57Z</time>
      </trkpt>
      <trkpt lat="46.34677" lon="-1.40399">
        <ele>5.6</ele>
        <time>2020-06-02T17:34:58Z</time>
      </trkpt>
      <trkpt lat="46.34674" lon="-1.404">
        <ele>5.6</ele>
        <time>2020-06-02T17:34:59Z</time>
      </trkpt>
      <trkpt lat="46.3467" lon="-1.40402">
        <ele>5.6</ele>
        <time>2020-06-02T17:35:00Z</time>
      </trkpt>
      <trkpt lat="46.34667" lon="-1.40403">
        <ele>5.6</ele>
        <time>2020-06-02T17:35:01Z</time>
      </trkpt>
      <trkpt lat="46.34664" lon="-1.40406">
        <ele>5.6</ele>
        <time>2020-06-02T17:35:02Z</time>
      </trkpt>
      <trkpt lat="46.34662" lon="-1.40409">
        <ele>5.6</ele>
        <time>2020-06-02T17:35:03Z</time>
      </trkpt>
      <trkpt lat="46.34659" lon="-1.40411">
        <ele>5.6</ele>
        <time>2020-06-02T17:35:04Z</time>
      </trkpt>
      <trkpt lat="46.34656" lon="-1.40413">
        <ele>5.6</ele>
        <time>2020-06-02T17:35:05Z</time>
      </trkpt>
      <trkpt lat="46.34652" lon="-1.40414">
        <ele>5.6</ele>
        <time>2020-06-02T17:35:06Z</time>
      </trkpt>
      <trkpt lat="46.3465" lon="-1.40415">
        <ele>5.6</ele>
        <time>2020-06-02T17:35:07Z</time>
      </trkpt>
      <trkpt lat="46.34649" lon="-1.40419">
        <ele>5.7</ele>
        <time>2020-06-02T17:35:08Z</time>
      </trkpt>
      <trkpt lat="46.34648" lon="-1.40423">
        <ele>5.7</ele>
        <time>2020-06-02T17:35:09Z</time>
      </trkpt>
      <trkpt lat="46.34648" lon="-1.40425">
        <ele>5.7</ele>
        <time>2020-06-02T17:35:10Z</time>
      </trkpt>
      <trkpt lat="46.34649" lon="-1.4043">
        <ele>5.8</ele>
        <time>2020-06-02T17:35:11Z</time>
      </trkpt>
      <trkpt lat="46.34651" lon="-1.40434">
        <ele>5.8</ele>
        <time>2020-06-02T17:35:12Z</time>
      </trkpt>
      <trkpt lat="46.34652" lon="-1.40439">
        <ele>5.9</ele>
        <time>2020-06-02T17:35:13Z</time>
      </trkpt>
      <trkpt lat="46.34654" lon="-1.40443">
        <ele>5.9</ele>
        <time>2020-06-02T17:35:14Z</time>
      </trkpt>
      <trkpt lat="46.34656" lon="-1.40446">
        <ele>6</ele>
        <time>2020-06-02T17:35:15Z</time>
      </trkpt>
      <trkpt lat="46.34657" lon="-1.4045">
        <ele>6</ele>
        <time>2020-06-02T17:35:16Z</time>
      </trkpt>
      <trkpt lat="46.34659" lon="-1.40455">
        <ele>6.1</ele>
        <time>2020-06-02T17:35:17Z</time>
      </trkpt>
      <trkpt lat="46.34659" lon="-1.40457">
        <ele>6.1</ele>
        <time>2020-06-02T17:35:18Z</time>
      </trkpt>
      <trkpt lat="46.34659" lon="-1.4046">
        <ele>6.1</ele>
        <time>2020-06-02T17:35:19Z</time>
      </trkpt>
      <trkpt lat="46.34658" lon="-1.40462">
        <ele>6.2</ele>
        <time>2020-06-02T17:35:20Z</time>
      </trkpt>
      <trkpt lat="46.3466" lon="-1.40466">
        <ele>6.2</ele>
        <time>2020-06-02T17:35:21Z</time>
      </trkpt>
      <trkpt lat="46.34661" lon="-1.40467">
        <ele>6.2</ele>
        <time>2020-06-02T17:35:22Z</time>
      </trkpt>
      <trkpt lat="46.34662" lon="-1.40471">
        <ele>6.3</ele>
        <time>2020-06-02T17:35:23Z</time>
      </trkpt>
      <trkpt lat="46.34664" lon="-1.40474">
        <ele>6.3</ele>
        <time>2020-06-02T17:35:24Z</time>
      </trkpt>
      <trkpt lat="46.34666" lon="-1.40478">
        <ele>6.4</ele>
        <time>2020-06-02T17:35:25Z</time>
      </trkpt>
      <trkpt lat="46.34666" lon="-1.4048">
        <ele>6.4</ele>
        <time>2020-06-02T17:35:26Z</time>
      </trkpt>
      <trkpt lat="46.34667" lon="-1.40484">
        <ele>6.4</ele>
        <time>2020-06-02T17:35:27Z</time>
      </trkpt>
      <trkpt lat="46.34668" lon="-1.40488">
        <ele>6.5</ele>
        <time>2020-06-02T17:35:28Z</time>
      </trkpt>
      <trkpt lat="46.34669" lon="-1.40492">
        <ele>6.5</ele>
        <time>2020-06-02T17:35:29Z</time>
      </trkpt>
      <trkpt lat="46.3467" lon="-1.40496">
        <ele>6.5</ele>
        <time>2020-06-02T17:35:30Z</time>
      </trkpt>
      <trkpt lat="46.34673" lon="-1.405">
        <ele>6.6</ele>
        <time>2020-06-02T17:35:31Z</time>
      </trkpt>
      <trkpt lat="46.34674" lon="-1.40501">
        <ele>6.6</ele>
        <time>2020-06-02T17:35:32Z</time>
      </trkpt>
      <trkpt lat="46.34675" lon="-1.40506">
        <ele>6.6</ele>
        <time>2020-06-02T17:35:33Z</time>
      </trkpt>
      <trkpt lat="46.34675" lon="-1.40507">
        <ele>6.6</ele>
        <time>2020-06-02T17:35:34Z</time>
      </trkpt>
      <trkpt lat="46.34677" lon="-1.40512">
        <ele>6.6</ele>
        <time>2020-06-02T17:35:35Z</time>
      </trkpt>
      <trkpt lat="46.34678" lon="-1.40514">
        <ele>6.6</ele>
        <time>2020-06-02T17:35:36Z</time>
      </trkpt>
      <trkpt lat="46.3468" lon="-1.40519">
        <ele>6.6</ele>
        <time>2020-06-02T17:35:37Z</time>
      </trkpt>
      <trkpt lat="46.3468" lon="-1.40521">
        <ele>6.6</ele>
        <time>2020-06-02T17:35:38Z</time>
      </trkpt>
      <trkpt lat="46.34681" lon="-1.40525">
        <ele>6.6</ele>
        <time>2020-06-02T17:35:39Z</time>
      </trkpt>
      <trkpt lat="46.34682" lon="-1.4053">
        <ele>6.6</ele>
        <time>2020-06-02T17:35:40Z</time>
      </trkpt>
      <trkpt lat="46.34684" lon="-1.40535">
        <ele>6.6</ele>
        <time>2020-06-02T17:35:41Z</time>
      </trkpt>
      <trkpt lat="46.34686" lon="-1.40541">
        <ele>6.6</ele>
        <time>2020-06-02T17:35:42Z</time>
      </trkpt>
      <trkpt lat="46.34687" lon="-1.40545">
        <ele>6.6</ele>
        <time>2020-06-02T17:35:43Z</time>
      </trkpt>
      <trkpt lat="46.34688" lon="-1.40551">
        <ele>6.6</ele>
        <time>2020-06-02T17:35:44Z</time>
      </trkpt>
      <trkpt lat="46.34689" lon="-1.40557">
        <ele>6.6</ele>
        <time>2020-06-02T17:35:45Z</time>
      </trkpt>
      <trkpt lat="46.34691" lon="-1.40564">
        <ele>6.6</ele>
        <time>2020-06-02T17:35:46Z</time>
      </trkpt>
      <trkpt lat="46.34692" lon="-1.40569">
        <ele>6.6</ele>
        <time>2020-06-02T17:35:47Z</time>
      </trkpt>
      <trkpt lat="46.34693" lon="-1.40575">
        <ele>6.6</ele>
        <time>2020-06-02T17:35:48Z</time>
      </trkpt>
      <trkpt lat="46.34695" lon="-1.4058">
        <ele>6.7</ele>
        <time>2020-06-02T17:35:49Z</time>
      </trkpt>
      <trkpt lat="46.34696" lon="-1.40586">
        <ele>6.7</ele>
        <time>2020-06-02T17:35:50Z</time>
      </trkpt>
      <trkpt lat="46.34696" lon="-1.40591">
        <ele>6.7</ele>
        <time>2020-06-02T17:35:51Z</time>
      </trkpt>
      <trkpt lat="46.34697" lon="-1.40597">
        <ele>6.7</ele>
        <time>2020-06-02T17:35:52Z</time>
      </trkpt>
      <trkpt lat="46.34698" lon="-1.40602">
        <ele>6.7</ele>
        <time>2020-06-02T17:35:53Z</time>
      </trkpt>
      <trkpt lat="46.34697" lon="-1.40607">
        <ele>6.7</ele>
        <time>2020-06-02T17:35:54Z</time>
      </trkpt>
      <trkpt lat="46.34696" lon="-1.40611">
        <ele>6.7</ele>
        <time>2020-06-02T17:35:55Z</time>
      </trkpt>
      <trkpt lat="46.34694" lon="-1.40614">
        <ele>6.7</ele>
        <time>2020-06-02T17:35:56Z</time>
      </trkpt>
      <trkpt lat="46.34692" lon="-1.40617">
        <ele>6.7</ele>
        <time>2020-06-02T17:35:57Z</time>
      </trkpt>
      <trkpt lat="46.3469" lon="-1.40619">
        <ele>6.7</ele>
        <time>2020-06-02T17:35:58Z</time>
      </trkpt>
      <trkpt lat="46.34686" lon="-1.40622">
        <ele>6.7</ele>
        <time>2020-06-02T17:35:59Z</time>
      </trkpt>
      <trkpt lat="46.34682" lon="-1.40624">
        <ele>6.6</ele>
        <time>2020-06-02T17:36:00Z</time>
      </trkpt>
      <trkpt lat="46.34677" lon="-1.40626">
        <ele>6.6</ele>
        <time>2020-06-02T17:36:01Z</time>
      </trkpt>
      <trkpt lat="46.34673" lon="-1.40627">
        <ele>6.6</ele>
        <time>2020-06-02T17:36:02Z</time>
      </trkpt>
      <trkpt lat="46.34669" lon="-1.40628">
        <ele>6.6</ele>
        <time>2020-06-02T17:36:03Z</time>
      </trkpt>
      <trkpt lat="46.34665" lon="-1.40629">
        <ele>6.6</ele>
        <time>2020-06-02T17:36:04Z</time>
      </trkpt>
      <trkpt lat="46.34661" lon="-1.40633">
        <ele>6.6</ele>
        <time>2020-06-02T17:36:05Z</time>
      </trkpt>
      <trkpt lat="46.34656" lon="-1.40636">
        <ele>6.6</ele>
        <time>2020-06-02T17:36:06Z</time>
      </trkpt>
      <trkpt lat="46.34652" lon="-1.40638">
        <ele>6.6</ele>
        <time>2020-06-02T17:36:07Z</time>
      </trkpt>
      <trkpt lat="46.34649" lon="-1.4064">
        <ele>6.6</ele>
        <time>2020-06-02T17:36:08Z</time>
      </trkpt>
      <trkpt lat="46.34645" lon="-1.40643">
        <ele>6.6</ele>
        <time>2020-06-02T17:36:09Z</time>
      </trkpt>
      <trkpt lat="46.34641" lon="-1.40644">
        <ele>6.6</ele>
        <time>2020-06-02T17:36:10Z</time>
      </trkpt>
      <trkpt lat="46.34637" lon="-1.40646">
        <ele>6.6</ele>
        <time>2020-06-02T17:36:11Z</time>
      </trkpt>
      <trkpt lat="46.34633" lon="-1.40648">
        <ele>6.7</ele>
        <time>2020-06-02T17:36:12Z</time>
      </trkpt>
      <trkpt lat="46.34629" lon="-1.4065">
        <ele>6.7</ele>
        <time>2020-06-02T17:36:13Z</time>
      </trkpt>
      <trkpt lat="46.34625" lon="-1.40651">
        <ele>6.7</ele>
        <time>2020-06-02T17:36:14Z</time>
      </trkpt>
      <trkpt lat="46.34619" lon="-1.40653">
        <ele>6.7</ele>
        <time>2020-06-02T17:36:15Z</time>
      </trkpt>
      <trkpt lat="46.34614" lon="-1.40656">
        <ele>6.8</ele>
        <time>2020-06-02T17:36:16Z</time>
      </trkpt>
      <trkpt lat="46.3461" lon="-1.40658">
        <ele>6.8</ele>
        <time>2020-06-02T17:36:17Z</time>
      </trkpt>
      <trkpt lat="46.34605" lon="-1.40658">
        <ele>6.9</ele>
        <time>2020-06-02T17:36:18Z</time>
      </trkpt>
      <trkpt lat="46.34601" lon="-1.40659">
        <ele>6.9</ele>
        <time>2020-06-02T17:36:19Z</time>
      </trkpt>
      <trkpt lat="46.34595" lon="-1.40661">
        <ele>6.9</ele>
        <time>2020-06-02T17:36:20Z</time>
      </trkpt>
      <trkpt lat="46.3459" lon="-1.40664">
        <ele>7</ele>
        <time>2020-06-02T17:36:21Z</time>
      </trkpt>
      <trkpt lat="46.34586" lon="-1.40666">
        <ele>7</ele>
        <time>2020-06-02T17:36:22Z</time>
      </trkpt>
      <trkpt lat="46.34581" lon="-1.40668">
        <ele>7.1</ele>
        <time>2020-06-02T17:36:23Z</time>
      </trkpt>
      <trkpt lat="46.34576" lon="-1.4067">
        <ele>7.1</ele>
        <time>2020-06-02T17:36:24Z</time>
      </trkpt>
      <trkpt lat="46.34572" lon="-1.40673">
        <ele>7.1</ele>
        <time>2020-06-02T17:36:25Z</time>
      </trkpt>
      <trkpt lat="46.34568" lon="-1.40675">
        <ele>7.1</ele>
        <time>2020-06-02T17:36:26Z</time>
      </trkpt>
      <trkpt lat="46.34564" lon="-1.40677">
        <ele>7.1</ele>
        <time>2020-06-02T17:36:27Z</time>
      </trkpt>
      <trkpt lat="46.3456" lon="-1.40679">
        <ele>7.1</ele>
        <time>2020-06-02T17:36:28Z</time>
      </trkpt>
      <trkpt lat="46.34555" lon="-1.40679">
        <ele>7.2</ele>
        <time>2020-06-02T17:36:29Z</time>
      </trkpt>
      <trkpt lat="46.34551" lon="-1.40682">
        <ele>7.2</ele>
        <time>2020-06-02T17:36:30Z</time>
      </trkpt>
      <trkpt lat="46.34547" lon="-1.40684">
        <ele>7.2</ele>
        <time>2020-06-02T17:36:31Z</time>
      </trkpt>
      <trkpt lat="46.34543" lon="-1.40686">
        <ele>7.2</ele>
        <time>2020-06-02T17:36:32Z</time>
      </trkpt>
      <trkpt lat="46.34541" lon="-1.40688">
        <ele>7.2</ele>
        <time>2020-06-02T17:36:33Z</time>
      </trkpt>
      <trkpt lat="46.34537" lon="-1.4069">
        <ele>7.2</ele>
        <time>2020-06-02T17:36:34Z</time>
      </trkpt>
      <trkpt lat="46.34532" lon="-1.4069">
        <ele>7.2</ele>
        <time>2020-06-02T17:36:35Z</time>
      </trkpt>
      <trkpt lat="46.34528" lon="-1.40694">
        <ele>7.3</ele>
        <time>2020-06-02T17:36:36Z</time>
      </trkpt>
      <trkpt lat="46.34524" lon="-1.40696">
        <ele>7.3</ele>
        <time>2020-06-02T17:36:37Z</time>
      </trkpt>
      <trkpt lat="46.34521" lon="-1.40697">
        <ele>7.3</ele>
        <time>2020-06-02T17:36:38Z</time>
      </trkpt>
      <trkpt lat="46.34516" lon="-1.40699">
        <ele>7.3</ele>
        <time>2020-06-02T17:36:39Z</time>
      </trkpt>
      <trkpt lat="46.34512" lon="-1.407">
        <ele>7.3</ele>
        <time>2020-06-02T17:36:40Z</time>
      </trkpt>
      <trkpt lat="46.34507" lon="-1.40703">
        <ele>7.4</ele>
        <time>2020-06-02T17:36:41Z</time>
      </trkpt>
      <trkpt lat="46.34502" lon="-1.40704">
        <ele>7.4</ele>
        <time>2020-06-02T17:36:42Z</time>
      </trkpt>
      <trkpt lat="46.34498" lon="-1.40705">
        <ele>7.4</ele>
        <time>2020-06-02T17:36:43Z</time>
      </trkpt>
      <trkpt lat="46.34495" lon="-1.40705">
        <ele>7.4</ele>
        <time>2020-06-02T17:36:44Z</time>
      </trkpt>
      <trkpt lat="46.34491" lon="-1.40707">
        <ele>7.4</ele>
        <time>2020-06-02T17:36:45Z</time>
      </trkpt>
      <trkpt lat="46.34489" lon="-1.40709">
        <ele>7.5</ele>
        <time>2020-06-02T17:36:46Z</time>
      </trkpt>
      <trkpt lat="46.34486" lon="-1.40711">
        <ele>7.5</ele>
        <time>2020-06-02T17:36:47Z</time>
      </trkpt>
      <trkpt lat="46.34483" lon="-1.40713">
        <ele>7.5</ele>
        <time>2020-06-02T17:36:48Z</time>
      </trkpt>
      <trkpt lat="46.34481" lon="-1.40715">
        <ele>7.5</ele>
        <time>2020-06-02T17:36:49Z</time>
      </trkpt>
      <trkpt lat="46.34476" lon="-1.40718">
        <ele>7.5</ele>
        <time>2020-06-02T17:36:50Z</time>
      </trkpt>
      <trkpt lat="46.34473" lon="-1.4072">
        <ele>7.5</ele>
        <time>2020-06-02T17:36:51Z</time>
      </trkpt>
      <trkpt lat="46.3447" lon="-1.40722">
        <ele>7.6</ele>
        <time>2020-06-02T17:36:52Z</time>
      </trkpt>
      <trkpt lat="46.34469" lon="-1.40723">
        <ele>7.6</ele>
        <time>2020-06-02T17:36:53Z</time>
      </trkpt>
      <trkpt lat="46.34468" lon="-1.40726">
        <ele>7.6</ele>
        <time>2020-06-02T17:36:54Z</time>
      </trkpt>
      <trkpt lat="46.34468" lon="-1.40728">
        <ele>7.7</ele>
        <time>2020-06-02T17:36:55Z</time>
      </trkpt>
      <trkpt lat="46.34467" lon="-1.40729">
        <ele>7.7</ele>
        <time>2020-06-02T17:36:56Z</time>
      </trkpt>
      <trkpt lat="46.34467" lon="-1.40731">
        <ele>7.7</ele>
        <time>2020-06-02T17:36:57Z</time>
      </trkpt>
      <trkpt lat="46.34467" lon="-1.40732">
        <ele>7.7</ele>
        <time>2020-06-02T17:36:58Z</time>
      </trkpt>
      <trkpt lat="46.34468" lon="-1.40734">
        <ele>7.7</ele>
        <time>2020-06-02T17:36:59Z</time>
      </trkpt>
      <trkpt lat="46.34469" lon="-1.40735">
        <ele>7.8</ele>
        <time>2020-06-02T17:37:00Z</time>
      </trkpt>
      <trkpt lat="46.34469" lon="-1.40737">
        <ele>7.8</ele>
        <time>2020-06-02T17:37:01Z</time>
      </trkpt>
      <trkpt lat="46.3447" lon="-1.40742">
        <ele>7.9</ele>
        <time>2020-06-02T17:37:02Z</time>
      </trkpt>
      <trkpt lat="46.34471" lon="-1.40746">
        <ele>7.9</ele>
        <time>2020-06-02T17:37:03Z</time>
      </trkpt>
      <trkpt lat="46.34472" lon="-1.40747">
        <ele>7.9</ele>
        <time>2020-06-02T17:37:04Z</time>
      </trkpt>
      <trkpt lat="46.34473" lon="-1.40752">
        <ele>8</ele>
        <time>2020-06-02T17:37:05Z</time>
      </trkpt>
      <trkpt lat="46.34473" lon="-1.40754">
        <ele>8</ele>
        <time>2020-06-02T17:37:06Z</time>
      </trkpt>
      <trkpt lat="46.34475" lon="-1.40758">
        <ele>8.1</ele>
        <time>2020-06-02T17:37:07Z</time>
      </trkpt>
      <trkpt lat="46.34477" lon="-1.40762">
        <ele>8.2</ele>
        <time>2020-06-02T17:37:08Z</time>
      </trkpt>
      <trkpt lat="46.34478" lon="-1.40764">
        <ele>8.2</ele>
        <time>2020-06-02T17:37:09Z</time>
      </trkpt>
      <trkpt lat="46.34479" lon="-1.40766">
        <ele>8.3</ele>
        <time>2020-06-02T17:37:10Z</time>
      </trkpt>
      <trkpt lat="46.3448" lon="-1.40768">
        <ele>8.3</ele>
        <time>2020-06-02T17:37:11Z</time>
      </trkpt>
      <trkpt lat="46.3448" lon="-1.4077">
        <ele>8.4</ele>
        <time>2020-06-02T17:37:12Z</time>
      </trkpt>
      <trkpt lat="46.34481" lon="-1.40772">
        <ele>8.4</ele>
        <time>2020-06-02T17:37:13Z</time>
      </trkpt>
      <trkpt lat="46.34481" lon="-1.40776">
        <ele>8.5</ele>
        <time>2020-06-02T17:37:14Z</time>
      </trkpt>
      <trkpt lat="46.34482" lon="-1.40778">
        <ele>8.5</ele>
        <time>2020-06-02T17:37:15Z</time>
      </trkpt>
      <trkpt lat="46.34482" lon="-1.40782">
        <ele>8.6</ele>
        <time>2020-06-02T17:37:16Z</time>
      </trkpt>
      <trkpt lat="46.34483" lon="-1.40788">
        <ele>8.7</ele>
        <time>2020-06-02T17:37:17Z</time>
      </trkpt>
      <trkpt lat="46.34483" lon="-1.40791">
        <ele>8.8</ele>
        <time>2020-06-02T17:37:18Z</time>
      </trkpt>
      <trkpt lat="46.34484" lon="-1.40797">
        <ele>8.9</ele>
        <time>2020-06-02T17:37:19Z</time>
      </trkpt>
      <trkpt lat="46.34486" lon="-1.40801">
        <ele>8.9</ele>
        <time>2020-06-02T17:37:20Z</time>
      </trkpt>
      <trkpt lat="46.34488" lon="-1.40807">
        <ele>9</ele>
        <time>2020-06-02T17:37:21Z</time>
      </trkpt>
      <trkpt lat="46.34489" lon="-1.40812">
        <ele>9.1</ele>
        <time>2020-06-02T17:37:22Z</time>
      </trkpt>
      <trkpt lat="46.3449" lon="-1.40817">
        <ele>9.1</ele>
        <time>2020-06-02T17:37:23Z</time>
      </trkpt>
      <trkpt lat="46.3449" lon="-1.40823">
        <ele>9.2</ele>
        <time>2020-06-02T17:37:24Z</time>
      </trkpt>
      <trkpt lat="46.34491" lon="-1.40829">
        <ele>9.2</ele>
        <time>2020-06-02T17:37:25Z</time>
      </trkpt>
      <trkpt lat="46.34492" lon="-1.40834">
        <ele>9.2</ele>
        <time>2020-06-02T17:37:26Z</time>
      </trkpt>
      <trkpt lat="46.34493" lon="-1.40839">
        <ele>9.3</ele>
        <time>2020-06-02T17:37:27Z</time>
      </trkpt>
      <trkpt lat="46.34494" lon="-1.40845">
        <ele>9.3</ele>
        <time>2020-06-02T17:37:28Z</time>
      </trkpt>
      <trkpt lat="46.34495" lon="-1.40846">
        <ele>9.3</ele>
        <time>2020-06-02T17:37:29Z</time>
      </trkpt>
      <trkpt lat="46.34495" lon="-1.40851">
        <ele>9.4</ele>
        <time>2020-06-02T17:37:30Z</time>
      </trkpt>
      <trkpt lat="46.34496" lon="-1.40856">
        <ele>9.4</ele>
        <time>2020-06-02T17:37:31Z</time>
      </trkpt>
      <trkpt lat="46.34496" lon="-1.40861">
        <ele>9.4</ele>
        <time>2020-06-02T17:37:32Z</time>
      </trkpt>
      <trkpt lat="46.34497" lon="-1.40865">
        <ele>9.4</ele>
        <time>2020-06-02T17:37:33Z</time>
      </trkpt>
      <trkpt lat="46.34498" lon="-1.40869">
        <ele>9.5</ele>
        <time>2020-06-02T17:37:34Z</time>
      </trkpt>
      <trkpt lat="46.34498" lon="-1.40873">
        <ele>9.5</ele>
        <time>2020-06-02T17:37:35Z</time>
      </trkpt>
      <trkpt lat="46.34499" lon="-1.40878">
        <ele>9.5</ele>
        <time>2020-06-02T17:37:36Z</time>
      </trkpt>
      <trkpt lat="46.345" lon="-1.40884">
        <ele>9.5</ele>
        <time>2020-06-02T17:37:37Z</time>
      </trkpt>
      <trkpt lat="46.345" lon="-1.40886">
        <ele>9.5</ele>
        <time>2020-06-02T17:37:38Z</time>
      </trkpt>
      <trkpt lat="46.34502" lon="-1.40891">
        <ele>9.5</ele>
        <time>2020-06-02T17:37:39Z</time>
      </trkpt>
      <trkpt lat="46.34502" lon="-1.40895">
        <ele>9.5</ele>
        <time>2020-06-02T17:37:40Z</time>
      </trkpt>
      <trkpt lat="46.34504" lon="-1.40899">
        <ele>9.5</ele>
        <time>2020-06-02T17:37:41Z</time>
      </trkpt>
      <trkpt lat="46.34505" lon="-1.40904">
        <ele>9.4</ele>
        <time>2020-06-02T17:37:42Z</time>
      </trkpt>
      <trkpt lat="46.34507" lon="-1.40908">
        <ele>9.4</ele>
        <time>2020-06-02T17:37:43Z</time>
      </trkpt>
      <trkpt lat="46.34508" lon="-1.40912">
        <ele>9.4</ele>
        <time>2020-06-02T17:37:44Z</time>
      </trkpt>
      <trkpt lat="46.3451" lon="-1.40917">
        <ele>9.3</ele>
        <time>2020-06-02T17:37:45Z</time>
      </trkpt>
      <trkpt lat="46.34511" lon="-1.40923">
        <ele>9.2</ele>
        <time>2020-06-02T17:37:46Z</time>
      </trkpt>
      <trkpt lat="46.34512" lon="-1.40929">
        <ele>9.1</ele>
        <time>2020-06-02T17:37:47Z</time>
      </trkpt>
      <trkpt lat="46.34512" lon="-1.40935">
        <ele>9</ele>
        <time>2020-06-02T17:37:48Z</time>
      </trkpt>
      <trkpt lat="46.34513" lon="-1.40942">
        <ele>8.9</ele>
        <time>2020-06-02T17:37:49Z</time>
      </trkpt>
      <trkpt lat="46.34514" lon="-1.40948">
        <ele>8.8</ele>
        <time>2020-06-02T17:37:50Z</time>
      </trkpt>
      <trkpt lat="46.34516" lon="-1.40953">
        <ele>8.7</ele>
        <time>2020-06-02T17:37:51Z</time>
      </trkpt>
      <trkpt lat="46.34517" lon="-1.40958">
        <ele>8.7</ele>
        <time>2020-06-02T17:37:52Z</time>
      </trkpt>
      <trkpt lat="46.34519" lon="-1.40961">
        <ele>8.6</ele>
        <time>2020-06-02T17:37:53Z</time>
      </trkpt>
      <trkpt lat="46.3452" lon="-1.40966">
        <ele>8.6</ele>
        <time>2020-06-02T17:37:54Z</time>
      </trkpt>
      <trkpt lat="46.34521" lon="-1.40969">
        <ele>8.6</ele>
        <time>2020-06-02T17:37:55Z</time>
      </trkpt>
      <trkpt lat="46.34522" lon="-1.40972">
        <ele>8.6</ele>
        <time>2020-06-02T17:37:56Z</time>
      </trkpt>
      <trkpt lat="46.34521" lon="-1.40976">
        <ele>8.6</ele>
        <time>2020-06-02T17:37:57Z</time>
      </trkpt>
      <trkpt lat="46.34523" lon="-1.4098">
        <ele>8.5</ele>
        <time>2020-06-02T17:37:58Z</time>
      </trkpt>
      <trkpt lat="46.34524" lon="-1.40984">
        <ele>8.5</ele>
        <time>2020-06-02T17:37:59Z</time>
      </trkpt>
      <trkpt lat="46.34525" lon="-1.40989">
        <ele>8.5</ele>
        <time>2020-06-02T17:38:00Z</time>
      </trkpt>
      <trkpt lat="46.34527" lon="-1.40994">
        <ele>8.5</ele>
        <time>2020-06-02T17:38:01Z</time>
      </trkpt>
      <trkpt lat="46.34527" lon="-1.41">
        <ele>8.5</ele>
        <time>2020-06-02T17:38:02Z</time>
      </trkpt>
      <trkpt lat="46.34528" lon="-1.41006">
        <ele>8.5</ele>
        <time>2020-06-02T17:38:03Z</time>
      </trkpt>
      <trkpt lat="46.34529" lon="-1.41012">
        <ele>8.6</ele>
        <time>2020-06-02T17:38:04Z</time>
      </trkpt>
      <trkpt lat="46.3453" lon="-1.41017">
        <ele>8.6</ele>
        <time>2020-06-02T17:38:05Z</time>
      </trkpt>
      <trkpt lat="46.34532" lon="-1.41022">
        <ele>8.6</ele>
        <time>2020-06-02T17:38:06Z</time>
      </trkpt>
      <trkpt lat="46.34534" lon="-1.41029">
        <ele>8.6</ele>
        <time>2020-06-02T17:38:07Z</time>
      </trkpt>
      <trkpt lat="46.34536" lon="-1.41034">
        <ele>8.6</ele>
        <time>2020-06-02T17:38:08Z</time>
      </trkpt>
      <trkpt lat="46.34537" lon="-1.4104">
        <ele>8.6</ele>
        <time>2020-06-02T17:38:09Z</time>
      </trkpt>
      <trkpt lat="46.34538" lon="-1.41045">
        <ele>8.6</ele>
        <time>2020-06-02T17:38:10Z</time>
      </trkpt>
      <trkpt lat="46.3454" lon="-1.41052">
        <ele>8.7</ele>
        <time>2020-06-02T17:38:11Z</time>
      </trkpt>
      <trkpt lat="46.34541" lon="-1.41058">
        <ele>8.7</ele>
        <time>2020-06-02T17:38:12Z</time>
      </trkpt>
      <trkpt lat="46.34543" lon="-1.41064">
        <ele>8.7</ele>
        <time>2020-06-02T17:38:13Z</time>
      </trkpt>
      <trkpt lat="46.34545" lon="-1.41069">
        <ele>8.7</ele>
        <time>2020-06-02T17:38:14Z</time>
      </trkpt>
      <trkpt lat="46.34546" lon="-1.41075">
        <ele>8.7</ele>
        <time>2020-06-02T17:38:15Z</time>
      </trkpt>
      <trkpt lat="46.34548" lon="-1.41079">
        <ele>8.7</ele>
        <time>2020-06-02T17:38:16Z</time>
      </trkpt>
      <trkpt lat="46.3455" lon="-1.41085">
        <ele>8.7</ele>
        <time>2020-06-02T17:38:17Z</time>
      </trkpt>
      <trkpt lat="46.34551" lon="-1.41091">
        <ele>8.8</ele>
        <time>2020-06-02T17:38:18Z</time>
      </trkpt>
      <trkpt lat="46.34552" lon="-1.41096">
        <ele>8.8</ele>
        <time>2020-06-02T17:38:19Z</time>
      </trkpt>
      <trkpt lat="46.34553" lon="-1.41102">
        <ele>8.8</ele>
        <time>2020-06-02T17:38:20Z</time>
      </trkpt>
      <trkpt lat="46.34554" lon="-1.41109">
        <ele>8.9</ele>
        <time>2020-06-02T17:38:21Z</time>
      </trkpt>
      <trkpt lat="46.34556" lon="-1.41116">
        <ele>8.9</ele>
        <time>2020-06-02T17:38:22Z</time>
      </trkpt>
      <trkpt lat="46.34557" lon="-1.41121">
        <ele>9</ele>
        <time>2020-06-02T17:38:23Z</time>
      </trkpt>
      <trkpt lat="46.34558" lon="-1.41126">
        <ele>9</ele>
        <time>2020-06-02T17:38:24Z</time>
      </trkpt>
      <trkpt lat="46.34559" lon="-1.4113">
        <ele>9</ele>
        <time>2020-06-02T17:38:25Z</time>
      </trkpt>
      <trkpt lat="46.34561" lon="-1.41137">
        <ele>9.1</ele>
        <time>2020-06-02T17:38:26Z</time>
      </trkpt>
      <trkpt lat="46.34562" lon="-1.41144">
        <ele>9.1</ele>
        <time>2020-06-02T17:38:27Z</time>
      </trkpt>
      <trkpt lat="46.34563" lon="-1.41151">
        <ele>9.2</ele>
        <time>2020-06-02T17:38:28Z</time>
      </trkpt>
      <trkpt lat="46.34564" lon="-1.41158">
        <ele>9.2</ele>
        <time>2020-06-02T17:38:29Z</time>
      </trkpt>
      <trkpt lat="46.34565" lon="-1.41163">
        <ele>9.3</ele>
        <time>2020-06-02T17:38:30Z</time>
      </trkpt>
      <trkpt lat="46.34566" lon="-1.41169">
        <ele>9.3</ele>
        <time>2020-06-02T17:38:31Z</time>
      </trkpt>
      <trkpt lat="46.34568" lon="-1.41175">
        <ele>9.3</ele>
        <time>2020-06-02T17:38:32Z</time>
      </trkpt>
      <trkpt lat="46.34571" lon="-1.41182">
        <ele>9.4</ele>
        <time>2020-06-02T17:38:33Z</time>
      </trkpt>
      <trkpt lat="46.34574" lon="-1.41188">
        <ele>9.5</ele>
        <time>2020-06-02T17:38:34Z</time>
      </trkpt>
      <trkpt lat="46.34577" lon="-1.41193">
        <ele>9.5</ele>
        <time>2020-06-02T17:38:35Z</time>
      </trkpt>
      <trkpt lat="46.34582" lon="-1.41193">
        <ele>9.6</ele>
        <time>2020-06-02T17:38:36Z</time>
      </trkpt>
      <trkpt lat="46.34586" lon="-1.41193">
        <ele>9.6</ele>
        <time>2020-06-02T17:38:37Z</time>
      </trkpt>
      <trkpt lat="46.34591" lon="-1.41192">
        <ele>9.6</ele>
        <time>2020-06-02T17:38:38Z</time>
      </trkpt>
      <trkpt lat="46.34595" lon="-1.41191">
        <ele>9.6</ele>
        <time>2020-06-02T17:38:39Z</time>
      </trkpt>
      <trkpt lat="46.34599" lon="-1.41191">
        <ele>9.6</ele>
        <time>2020-06-02T17:38:40Z</time>
      </trkpt>
      <trkpt lat="46.34602" lon="-1.4119">
        <ele>9.6</ele>
        <time>2020-06-02T17:38:41Z</time>
      </trkpt>
      <trkpt lat="46.34607" lon="-1.4119">
        <ele>9.6</ele>
        <time>2020-06-02T17:38:42Z</time>
      </trkpt>
      <trkpt lat="46.34611" lon="-1.41192">
        <ele>9.6</ele>
        <time>2020-06-02T17:38:43Z</time>
      </trkpt>
      <trkpt lat="46.34615" lon="-1.41195">
        <ele>9.7</ele>
        <time>2020-06-02T17:38:44Z</time>
      </trkpt>
      <trkpt lat="46.34619" lon="-1.41201">
        <ele>9.7</ele>
        <time>2020-06-02T17:38:45Z</time>
      </trkpt>
      <trkpt lat="46.34621" lon="-1.41205">
        <ele>9.8</ele>
        <time>2020-06-02T17:38:46Z</time>
      </trkpt>
      <trkpt lat="46.34623" lon="-1.41209">
        <ele>9.8</ele>
        <time>2020-06-02T17:38:47Z</time>
      </trkpt>
      <trkpt lat="46.34625" lon="-1.41214">
        <ele>9.8</ele>
        <time>2020-06-02T17:38:48Z</time>
      </trkpt>
      <trkpt lat="46.34626" lon="-1.4122">
        <ele>9.9</ele>
        <time>2020-06-02T17:38:49Z</time>
      </trkpt>
      <trkpt lat="46.34628" lon="-1.41225">
        <ele>9.9</ele>
        <time>2020-06-02T17:38:50Z</time>
      </trkpt>
      <trkpt lat="46.34629" lon="-1.41231">
        <ele>10</ele>
        <time>2020-06-02T17:38:51Z</time>
      </trkpt>
      <trkpt lat="46.34631" lon="-1.41237">
        <ele>10</ele>
        <time>2020-06-02T17:38:52Z</time>
      </trkpt>
      <trkpt lat="46.34633" lon="-1.41242">
        <ele>10</ele>
        <time>2020-06-02T17:38:53Z</time>
      </trkpt>
      <trkpt lat="46.34635" lon="-1.41248">
        <ele>10.1</ele>
        <time>2020-06-02T17:38:54Z</time>
      </trkpt>
      <trkpt lat="46.34637" lon="-1.41255">
        <ele>10.1</ele>
        <time>2020-06-02T17:38:55Z</time>
      </trkpt>
      <trkpt lat="46.34639" lon="-1.41261">
        <ele>10.1</ele>
        <time>2020-06-02T17:38:56Z</time>
      </trkpt>
      <trkpt lat="46.3464" lon="-1.41268">
        <ele>10.2</ele>
        <time>2020-06-02T17:38:57Z</time>
      </trkpt>
      <trkpt lat="46.34641" lon="-1.41274">
        <ele>10.2</ele>
        <time>2020-06-02T17:38:58Z</time>
      </trkpt>
      <trkpt lat="46.34642" lon="-1.41281">
        <ele>10.2</ele>
        <time>2020-06-02T17:38:59Z</time>
      </trkpt>
      <trkpt lat="46.34644" lon="-1.41286">
        <ele>10.2</ele>
        <time>2020-06-02T17:39:00Z</time>
      </trkpt>
      <trkpt lat="46.34646" lon="-1.41292">
        <ele>10.2</ele>
        <time>2020-06-02T17:39:01Z</time>
      </trkpt>
      <trkpt lat="46.34647" lon="-1.41298">
        <ele>10.2</ele>
        <time>2020-06-02T17:39:02Z</time>
      </trkpt>
      <trkpt lat="46.34647" lon="-1.41303">
        <ele>10.2</ele>
        <time>2020-06-02T17:39:03Z</time>
      </trkpt>
      <trkpt lat="46.34649" lon="-1.41308">
        <ele>10.2</ele>
        <time>2020-06-02T17:39:04Z</time>
      </trkpt>
      <trkpt lat="46.3465" lon="-1.41315">
        <ele>10.3</ele>
        <time>2020-06-02T17:39:05Z</time>
      </trkpt>
      <trkpt lat="46.34651" lon="-1.41322">
        <ele>10.3</ele>
        <time>2020-06-02T17:39:06Z</time>
      </trkpt>
      <trkpt lat="46.34653" lon="-1.41328">
        <ele>10.3</ele>
        <time>2020-06-02T17:39:07Z</time>
      </trkpt>
      <trkpt lat="46.34655" lon="-1.41335">
        <ele>10.3</ele>
        <time>2020-06-02T17:39:08Z</time>
      </trkpt>
      <trkpt lat="46.34657" lon="-1.41341">
        <ele>10.3</ele>
        <time>2020-06-02T17:39:09Z</time>
      </trkpt>
      <trkpt lat="46.34658" lon="-1.41347">
        <ele>10.3</ele>
        <time>2020-06-02T17:39:10Z</time>
      </trkpt>
      <trkpt lat="46.3466" lon="-1.41356">
        <ele>10.4</ele>
        <time>2020-06-02T17:39:11Z</time>
      </trkpt>
      <trkpt lat="46.34663" lon="-1.41362">
        <ele>10.4</ele>
        <time>2020-06-02T17:39:12Z</time>
      </trkpt>
      <trkpt lat="46.34664" lon="-1.41368">
        <ele>10.4</ele>
        <time>2020-06-02T17:39:13Z</time>
      </trkpt>
      <trkpt lat="46.34666" lon="-1.41374">
        <ele>10.3</ele>
        <time>2020-06-02T17:39:14Z</time>
      </trkpt>
      <trkpt lat="46.34669" lon="-1.41378">
        <ele>10.3</ele>
        <time>2020-06-02T17:39:15Z</time>
      </trkpt>
      <trkpt lat="46.3467" lon="-1.41386">
        <ele>10.3</ele>
        <time>2020-06-02T17:39:16Z</time>
      </trkpt>
      <trkpt lat="46.34672" lon="-1.41391">
        <ele>10.3</ele>
        <time>2020-06-02T17:39:17Z</time>
      </trkpt>
      <trkpt lat="46.34673" lon="-1.41397">
        <ele>10.2</ele>
        <time>2020-06-02T17:39:18Z</time>
      </trkpt>
      <trkpt lat="46.34675" lon="-1.41404">
        <ele>10.2</ele>
        <time>2020-06-02T17:39:19Z</time>
      </trkpt>
      <trkpt lat="46.34676" lon="-1.4141">
        <ele>10.1</ele>
        <time>2020-06-02T17:39:20Z</time>
      </trkpt>
      <trkpt lat="46.34678" lon="-1.41417">
        <ele>10.1</ele>
        <time>2020-06-02T17:39:21Z</time>
      </trkpt>
      <trkpt lat="46.3468" lon="-1.41423">
        <ele>10</ele>
        <time>2020-06-02T17:39:22Z</time>
      </trkpt>
      <trkpt lat="46.34682" lon="-1.4143">
        <ele>9.9</ele>
        <time>2020-06-02T17:39:23Z</time>
      </trkpt>
      <trkpt lat="46.34683" lon="-1.41436">
        <ele>9.9</ele>
        <time>2020-06-02T17:39:24Z</time>
      </trkpt>
      <trkpt lat="46.34683" lon="-1.4144">
        <ele>9.8</ele>
        <time>2020-06-02T17:39:25Z</time>
      </trkpt>
      <trkpt lat="46.34685" lon="-1.41444">
        <ele>9.8</ele>
        <time>2020-06-02T17:39:26Z</time>
      </trkpt>
      <trkpt lat="46.34686" lon="-1.41449">
        <ele>9.7</ele>
        <time>2020-06-02T17:39:27Z</time>
      </trkpt>
      <trkpt lat="46.34687" lon="-1.41451">
        <ele>9.7</ele>
        <time>2020-06-02T17:39:28Z</time>
      </trkpt>
      <trkpt lat="46.34688" lon="-1.41457">
        <ele>9.7</ele>
        <time>2020-06-02T17:39:29Z</time>
      </trkpt>
      <trkpt lat="46.34689" lon="-1.4146">
        <ele>9.7</ele>
        <time>2020-06-02T17:39:30Z</time>
      </trkpt>
      <trkpt lat="46.34689" lon="-1.41463">
        <ele>9.6</ele>
        <time>2020-06-02T17:39:31Z</time>
      </trkpt>
      <trkpt lat="46.34688" lon="-1.41464">
        <ele>9.6</ele>
        <time>2020-06-02T17:39:32Z</time>
      </trkpt>
      <trkpt lat="46.34689" lon="-1.41465">
        <ele>9.6</ele>
        <time>2020-06-02T17:39:33Z</time>
      </trkpt>
      <trkpt lat="46.34689" lon="-1.41465">
        <ele>9.6</ele>
        <time>2020-06-02T17:39:34Z</time>
      </trkpt>
      <trkpt lat="46.34689" lon="-1.41465">
        <ele>9.6</ele>
        <time>2020-06-02T17:39:35Z</time>
      </trkpt>
      <trkpt lat="46.34689" lon="-1.41465">
        <ele>9.6</ele>
        <time>2020-06-02T17:39:36Z</time>
      </trkpt>
      <trkpt lat="46.34689" lon="-1.41466">
        <ele>9.6</ele>
        <time>2020-06-02T17:39:37Z</time>
      </trkpt>
      <trkpt lat="46.34689" lon="-1.41466">
        <ele>9.6</ele>
        <time>2020-06-02T17:39:38Z</time>
      </trkpt>
      <trkpt lat="46.3469" lon="-1.41466">
        <ele>9.6</ele>
        <time>2020-06-02T17:39:39Z</time>
      </trkpt>
      <trkpt lat="46.3469" lon="-1.41467">
        <ele>9.6</ele>
        <time>2020-06-02T17:39:40Z</time>
      </trkpt>
      <trkpt lat="46.3469" lon="-1.41467">
        <ele>9.6</ele>
        <time>2020-06-02T17:39:41Z</time>
      </trkpt>
      <trkpt lat="46.3469" lon="-1.41467">
        <ele>9.6</ele>
        <time>2020-06-02T17:39:42Z</time>
      </trkpt>
      <trkpt lat="46.3469" lon="-1.41467">
        <ele>9.6</ele>
        <time>2020-06-02T17:39:43Z</time>
      </trkpt>
      <trkpt lat="46.3469" lon="-1.41468">
        <ele>9.6</ele>
        <time>2020-06-02T17:39:44Z</time>
      </trkpt>
      <trkpt lat="46.3469" lon="-1.41468">
        <ele>9.6</ele>
        <time>2020-06-02T17:39:45Z</time>
      </trkpt>
      <trkpt lat="46.34691" lon="-1.41468">
        <ele>9.6</ele>
        <time>2020-06-02T17:39:46Z</time>
      </trkpt>
      <trkpt lat="46.34691" lon="-1.41469">
        <ele>9.6</ele>
        <time>2020-06-02T17:39:47Z</time>
      </trkpt>
      <trkpt lat="46.34693" lon="-1.41473">
        <ele>9.5</ele>
        <time>2020-06-02T17:39:48Z</time>
      </trkpt>
      <trkpt lat="46.34693" lon="-1.41475">
        <ele>9.5</ele>
        <time>2020-06-02T17:39:49Z</time>
      </trkpt>
      <trkpt lat="46.34695" lon="-1.41479">
        <ele>9.5</ele>
        <time>2020-06-02T17:39:50Z</time>
      </trkpt>
      <trkpt lat="46.34696" lon="-1.41481">
        <ele>9.5</ele>
        <time>2020-06-02T17:39:51Z</time>
      </trkpt>
      <trkpt lat="46.34696" lon="-1.41485">
        <ele>9.4</ele>
        <time>2020-06-02T17:39:52Z</time>
      </trkpt>
      <trkpt lat="46.34698" lon="-1.41489">
        <ele>9.4</ele>
        <time>2020-06-02T17:39:53Z</time>
      </trkpt>
      <trkpt lat="46.34698" lon="-1.41493">
        <ele>9.3</ele>
        <time>2020-06-02T17:39:54Z</time>
      </trkpt>
      <trkpt lat="46.34698" lon="-1.41495">
        <ele>9.3</ele>
        <time>2020-06-02T17:39:55Z</time>
      </trkpt>
      <trkpt lat="46.34698" lon="-1.41497">
        <ele>9.3</ele>
        <time>2020-06-02T17:39:56Z</time>
      </trkpt>
      <trkpt lat="46.34698" lon="-1.41497">
        <ele>9.3</ele>
        <time>2020-06-02T17:39:57Z</time>
      </trkpt>
      <trkpt lat="46.34698" lon="-1.41498">
        <ele>9.3</ele>
        <time>2020-06-02T17:39:58Z</time>
      </trkpt>
      <trkpt lat="46.34697" lon="-1.41497">
        <ele>9.3</ele>
        <time>2020-06-02T17:39:59Z</time>
      </trkpt>
      <trkpt lat="46.34697" lon="-1.41497">
        <ele>9.3</ele>
        <time>2020-06-02T17:40:00Z</time>
      </trkpt>
      <trkpt lat="46.34697" lon="-1.41498">
        <ele>9.3</ele>
        <time>2020-06-02T17:40:01Z</time>
      </trkpt>
      <trkpt lat="46.34697" lon="-1.41498">
        <ele>9.3</ele>
        <time>2020-06-02T17:40:02Z</time>
      </trkpt>
      <trkpt lat="46.34696" lon="-1.41498">
        <ele>9.3</ele>
        <time>2020-06-02T17:40:03Z</time>
      </trkpt>
      <trkpt lat="46.34696" lon="-1.41499">
        <ele>9.3</ele>
        <time>2020-06-02T17:40:04Z</time>
      </trkpt>
      <trkpt lat="46.34696" lon="-1.41499">
        <ele>9.3</ele>
        <time>2020-06-02T17:40:05Z</time>
      </trkpt>
      <trkpt lat="46.34696" lon="-1.41499">
        <ele>9.3</ele>
        <time>2020-06-02T17:40:06Z</time>
      </trkpt>
      <trkpt lat="46.34696" lon="-1.41499">
        <ele>9.3</ele>
        <time>2020-06-02T17:40:07Z</time>
      </trkpt>
      <trkpt lat="46.34696" lon="-1.41499">
        <ele>9.3</ele>
        <time>2020-06-02T17:40:08Z</time>
      </trkpt>
      <trkpt lat="46.34696" lon="-1.41498">
        <ele>9.2</ele>
        <time>2020-06-02T17:40:09Z</time>
      </trkpt>
      <trkpt lat="46.34697" lon="-1.41498">
        <ele>9.2</ele>
        <time>2020-06-02T17:40:10Z</time>
      </trkpt>
      <trkpt lat="46.34696" lon="-1.41499">
        <ele>9.2</ele>
        <time>2020-06-02T17:40:11Z</time>
      </trkpt>
      <trkpt lat="46.34696" lon="-1.415">
        <ele>9.2</ele>
        <time>2020-06-02T17:40:12Z</time>
      </trkpt>
      <trkpt lat="46.34697" lon="-1.415">
        <ele>9.2</ele>
        <time>2020-06-02T17:40:13Z</time>
      </trkpt>
      <trkpt lat="46.34696" lon="-1.415">
        <ele>9.2</ele>
        <time>2020-06-02T17:40:14Z</time>
      </trkpt>
      <trkpt lat="46.34697" lon="-1.415">
        <ele>9.2</ele>
        <time>2020-06-02T17:40:15Z</time>
      </trkpt>
      <trkpt lat="46.34696" lon="-1.415">
        <ele>9.2</ele>
        <time>2020-06-02T17:40:16Z</time>
      </trkpt>
      <trkpt lat="46.34696" lon="-1.415">
        <ele>9.2</ele>
        <time>2020-06-02T17:40:17Z</time>
      </trkpt>
      <trkpt lat="46.34696" lon="-1.415">
        <ele>9.2</ele>
        <time>2020-06-02T17:40:18Z</time>
      </trkpt>
      <trkpt lat="46.34696" lon="-1.415">
        <ele>9.2</ele>
        <time>2020-06-02T17:40:19Z</time>
      </trkpt>
      <trkpt lat="46.34696" lon="-1.415">
        <ele>9.2</ele>
        <time>2020-06-02T17:40:20Z</time>
      </trkpt>
      <trkpt lat="46.34696" lon="-1.415">
        <ele>9.2</ele>
        <time>2020-06-02T17:40:21Z</time>
      </trkpt>
      <trkpt lat="46.34696" lon="-1.415">
        <ele>9.2</ele>
        <time>2020-06-02T17:40:22Z</time>
      </trkpt>
      <trkpt lat="46.34696" lon="-1.415">
        <ele>9.2</ele>
        <time>2020-06-02T17:40:23Z</time>
      </trkpt>
      <trkpt lat="46.34696" lon="-1.415">
        <ele>9.2</ele>
        <time>2020-06-02T17:40:24Z</time>
      </trkpt>
      <trkpt lat="46.34696" lon="-1.415">
        <ele>9.2</ele>
        <time>2020-06-02T17:40:25Z</time>
      </trkpt>
      <trkpt lat="46.34696" lon="-1.415">
        <ele>9.2</ele>
        <time>2020-06-02T17:40:26Z</time>
      </trkpt>
      <trkpt lat="46.34696" lon="-1.415">
        <ele>9.2</ele>
        <time>2020-06-02T17:40:27Z</time>
      </trkpt>
      <trkpt lat="46.34696" lon="-1.415">
        <ele>9.2</ele>
        <time>2020-06-02T17:40:28Z</time>
      </trkpt>
      <trkpt lat="46.34696" lon="-1.415">
        <ele>9.2</ele>
        <time>2020-06-02T17:40:29Z</time>
      </trkpt>
      <trkpt lat="46.34696" lon="-1.415">
        <ele>9.2</ele>
        <time>2020-06-02T17:40:30Z</time>
      </trkpt>
      <trkpt lat="46.34696" lon="-1.415">
        <ele>9.2</ele>
        <time>2020-06-02T17:40:31Z</time>
      </trkpt>
      <trkpt lat="46.34696" lon="-1.415">
        <ele>9.2</ele>
        <time>2020-06-02T17:40:32Z</time>
      </trkpt>
      <trkpt lat="46.34696" lon="-1.415">
        <ele>9.2</ele>
        <time>2020-06-02T17:40:33Z</time>
      </trkpt>
      <trkpt lat="46.34696" lon="-1.415">
        <ele>9.2</ele>
        <time>2020-06-02T17:40:34Z</time>
      </trkpt>
      <trkpt lat="46.34696" lon="-1.415">
        <ele>9.2</ele>
        <time>2020-06-02T17:40:35Z</time>
      </trkpt>
      <trkpt lat="46.34696" lon="-1.415">
        <ele>9.2</ele>
        <time>2020-06-02T17:40:36Z</time>
      </trkpt>
      <trkpt lat="46.34696" lon="-1.415">
        <ele>9.2</ele>
        <time>2020-06-02T17:40:37Z</time>
      </trkpt>
      <trkpt lat="46.34696" lon="-1.415">
        <ele>9.2</ele>
        <time>2020-06-02T17:40:38Z</time>
      </trkpt>
      <trkpt lat="46.34696" lon="-1.415">
        <ele>9.2</ele>
        <time>2020-06-02T17:40:39Z</time>
      </trkpt>
      <trkpt lat="46.34696" lon="-1.415">
        <ele>9.2</ele>
        <time>2020-06-02T17:40:40Z</time>
      </trkpt>
      <trkpt lat="46.34696" lon="-1.415">
        <ele>9.2</ele>
        <time>2020-06-02T17:40:41Z</time>
      </trkpt>
      <trkpt lat="46.34696" lon="-1.415">
        <ele>9.2</ele>
        <time>2020-06-02T17:40:42Z</time>
      </trkpt>
      <trkpt lat="46.34696" lon="-1.415">
        <ele>9.2</ele>
        <time>2020-06-02T17:40:43Z</time>
      </trkpt>
      <trkpt lat="46.34696" lon="-1.415">
        <ele>9.2</ele>
        <time>2020-06-02T17:40:44Z</time>
      </trkpt>
      <trkpt lat="46.34696" lon="-1.415">
        <ele>9.2</ele>
        <time>2020-06-02T17:40:45Z</time>
      </trkpt>
      <trkpt lat="46.34696" lon="-1.415">
        <ele>9.2</ele>
        <time>2020-06-02T17:40:46Z</time>
      </trkpt>
      <trkpt lat="46.34696" lon="-1.415">
        <ele>9.2</ele>
        <time>2020-06-02T17:40:47Z</time>
      </trkpt>
      <trkpt lat="46.34696" lon="-1.415">
        <ele>9.2</ele>
        <time>2020-06-02T17:40:48Z</time>
      </trkpt>
      <trkpt lat="46.34696" lon="-1.415">
        <ele>9.2</ele>
        <time>2020-06-02T17:40:49Z</time>
      </trkpt>
      <trkpt lat="46.34696" lon="-1.415">
        <ele>9.2</ele>
        <time>2020-06-02T17:40:50Z</time>
      </trkpt>
      <trkpt lat="46.34696" lon="-1.415">
        <ele>9.2</ele>
        <time>2020-06-02T17:40:51Z</time>
      </trkpt>
      <trkpt lat="46.34696" lon="-1.415">
        <ele>9.2</ele>
        <time>2020-06-02T17:40:52Z</time>
      </trkpt>
      <trkpt lat="46.34696" lon="-1.415">
        <ele>9.2</ele>
        <time>2020-06-02T17:40:53Z</time>
      </trkpt>
      <trkpt lat="46.34696" lon="-1.415">
        <ele>9.2</ele>
        <time>2020-06-02T17:40:54Z</time>
      </trkpt>
      <trkpt lat="46.34696" lon="-1.415">
        <ele>9.2</ele>
        <time>2020-06-02T17:40:55Z</time>
      </trkpt>
      <trkpt lat="46.34696" lon="-1.415">
        <ele>9.2</ele>
        <time>2020-06-02T17:40:56Z</time>
      </trkpt>
      <trkpt lat="46.34696" lon="-1.415">
        <ele>9.2</ele>
        <time>2020-06-02T17:40:57Z</time>
      </trkpt>
      <trkpt lat="46.34696" lon="-1.415">
        <ele>9.2</ele>
        <time>2020-06-02T17:40:58Z</time>
      </trkpt>
      <trkpt lat="46.34696" lon="-1.415">
        <ele>9.2</ele>
        <time>2020-06-02T17:40:59Z</time>
      </trkpt>
      <trkpt lat="46.34696" lon="-1.415">
        <ele>9.2</ele>
        <time>2020-06-02T17:41:00Z</time>
      </trkpt>
      <trkpt lat="46.34696" lon="-1.415">
        <ele>9.2</ele>
        <time>2020-06-02T17:41:01Z</time>
      </trkpt>
      <trkpt lat="46.34696" lon="-1.415">
        <ele>9.2</ele>
        <time>2020-06-02T17:41:02Z</time>
      </trkpt>
      <trkpt lat="46.34696" lon="-1.415">
        <ele>9.2</ele>
        <time>2020-06-02T17:41:03Z</time>
      </trkpt>
      <trkpt lat="46.34696" lon="-1.415">
        <ele>9.2</ele>
        <time>2020-06-02T17:41:04Z</time>
      </trkpt>
      <trkpt lat="46.34696" lon="-1.415">
        <ele>9.2</ele>
        <time>2020-06-02T17:41:05Z</time>
      </trkpt>
      <trkpt lat="46.34696" lon="-1.415">
        <ele>9.2</ele>
        <time>2020-06-02T17:41:06Z</time>
      </trkpt>
      <trkpt lat="46.34696" lon="-1.415">
        <ele>9.2</ele>
        <time>2020-06-02T17:41:07Z</time>
      </trkpt>
      <trkpt lat="46.34696" lon="-1.415">
        <ele>9.2</ele>
        <time>2020-06-02T17:41:08Z</time>
      </trkpt>
      <trkpt lat="46.34696" lon="-1.415">
        <ele>9.2</ele>
        <time>2020-06-02T17:41:09Z</time>
      </trkpt>
      <trkpt lat="46.34696" lon="-1.415">
        <ele>9.2</ele>
        <time>2020-06-02T17:41:10Z</time>
      </trkpt>
      <trkpt lat="46.34696" lon="-1.415">
        <ele>9.2</ele>
        <time>2020-06-02T17:41:11Z</time>
      </trkpt>
      <trkpt lat="46.34697" lon="-1.41503">
        <ele>9.2</ele>
        <time>2020-06-02T17:41:12Z</time>
      </trkpt>
      <trkpt lat="46.34697" lon="-1.41502">
        <ele>9.2</ele>
        <time>2020-06-02T17:41:13Z</time>
      </trkpt>
      <trkpt lat="46.34697" lon="-1.41503">
        <ele>9.2</ele>
        <time>2020-06-02T17:41:14Z</time>
      </trkpt>
      <trkpt lat="46.34697" lon="-1.41503">
        <ele>9.2</ele>
        <time>2020-06-02T17:41:15Z</time>
      </trkpt>
      <trkpt lat="46.34696" lon="-1.41503">
        <ele>9.2</ele>
        <time>2020-06-02T17:41:16Z</time>
      </trkpt>
      <trkpt lat="46.34696" lon="-1.41503">
        <ele>9.2</ele>
        <time>2020-06-02T17:41:17Z</time>
      </trkpt>
      <trkpt lat="46.34696" lon="-1.41503">
        <ele>9.2</ele>
        <time>2020-06-02T17:41:18Z</time>
      </trkpt>
      <trkpt lat="46.34696" lon="-1.41503">
        <ele>9.2</ele>
        <time>2020-06-02T17:41:19Z</time>
      </trkpt>
      <trkpt lat="46.34696" lon="-1.41503">
        <ele>9.2</ele>
        <time>2020-06-02T17:41:20Z</time>
      </trkpt>
      <trkpt lat="46.34696" lon="-1.41503">
        <ele>9.2</ele>
        <time>2020-06-02T17:41:21Z</time>
      </trkpt>
      <trkpt lat="46.34696" lon="-1.41503">
        <ele>9.2</ele>
        <time>2020-06-02T17:41:22Z</time>
      </trkpt>
      <trkpt lat="46.34696" lon="-1.41503">
        <ele>9.2</ele>
        <time>2020-06-02T17:41:23Z</time>
      </trkpt>
      <trkpt lat="46.34696" lon="-1.41503">
        <ele>9.2</ele>
        <time>2020-06-02T17:41:24Z</time>
      </trkpt>
      <trkpt lat="46.34696" lon="-1.41504">
        <ele>9.2</ele>
        <time>2020-06-02T17:41:25Z</time>
      </trkpt>
      <trkpt lat="46.34696" lon="-1.41504">
        <ele>9.2</ele>
        <time>2020-06-02T17:41:26Z</time>
      </trkpt>
      <trkpt lat="46.34695" lon="-1.41504">
        <ele>9.2</ele>
        <time>2020-06-02T17:41:27Z</time>
      </trkpt>
      <trkpt lat="46.34695" lon="-1.41504">
        <ele>9.2</ele>
        <time>2020-06-02T17:41:28Z</time>
      </trkpt>
      <trkpt lat="46.34695" lon="-1.41504">
        <ele>9.2</ele>
        <time>2020-06-02T17:41:29Z</time>
      </trkpt>
      <trkpt lat="46.34695" lon="-1.41504">
        <ele>9.2</ele>
        <time>2020-06-02T17:41:30Z</time>
      </trkpt>
      <trkpt lat="46.34695" lon="-1.41504">
        <ele>9.2</ele>
        <time>2020-06-02T17:41:31Z</time>
      </trkpt>
      <trkpt lat="46.34695" lon="-1.41504">
        <ele>9.1</ele>
        <time>2020-06-02T17:41:32Z</time>
      </trkpt>
      <trkpt lat="46.34695" lon="-1.41504">
        <ele>9.1</ele>
        <time>2020-06-02T17:41:33Z</time>
      </trkpt>
      <trkpt lat="46.34695" lon="-1.41504">
        <ele>9.1</ele>
        <time>2020-06-02T17:41:34Z</time>
      </trkpt>
      <trkpt lat="46.34695" lon="-1.41505">
        <ele>9.1</ele>
        <time>2020-06-02T17:41:35Z</time>
      </trkpt>
      <trkpt lat="46.34695" lon="-1.41505">
        <ele>9.1</ele>
        <time>2020-06-02T17:41:36Z</time>
      </trkpt>
      <trkpt lat="46.34695" lon="-1.41505">
        <ele>9.1</ele>
        <time>2020-06-02T17:41:37Z</time>
      </trkpt>
      <trkpt lat="46.34694" lon="-1.41505">
        <ele>9.1</ele>
        <time>2020-06-02T17:41:38Z</time>
      </trkpt>
      <trkpt lat="46.34694" lon="-1.41505">
        <ele>9.1</ele>
        <time>2020-06-02T17:41:39Z</time>
      </trkpt>
      <trkpt lat="46.34694" lon="-1.41505">
        <ele>9.1</ele>
        <time>2020-06-02T17:41:40Z</time>
      </trkpt>
      <trkpt lat="46.34694" lon="-1.41505">
        <ele>9.1</ele>
        <time>2020-06-02T17:41:41Z</time>
      </trkpt>
      <trkpt lat="46.34694" lon="-1.41505">
        <ele>9.1</ele>
        <time>2020-06-02T17:41:42Z</time>
      </trkpt>
      <trkpt lat="46.34694" lon="-1.41505">
        <ele>9.1</ele>
        <time>2020-06-02T17:41:43Z</time>
      </trkpt>
      <trkpt lat="46.34694" lon="-1.41505">
        <ele>9.1</ele>
        <time>2020-06-02T17:41:44Z</time>
      </trkpt>
      <trkpt lat="46.34694" lon="-1.41505">
        <ele>9.1</ele>
        <time>2020-06-02T17:41:45Z</time>
      </trkpt>
      <trkpt lat="46.34694" lon="-1.4151">
        <ele>9.1</ele>
        <time>2020-06-02T17:41:46Z</time>
      </trkpt>
      <trkpt lat="46.34693" lon="-1.4151">
        <ele>9.1</ele>
        <time>2020-06-02T17:41:47Z</time>
      </trkpt>
      <trkpt lat="46.34692" lon="-1.4151">
        <ele>9.1</ele>
        <time>2020-06-02T17:41:48Z</time>
      </trkpt>
      <trkpt lat="46.34692" lon="-1.41511">
        <ele>9.1</ele>
        <time>2020-06-02T17:41:49Z</time>
      </trkpt>
      <trkpt lat="46.34691" lon="-1.41511">
        <ele>9.1</ele>
        <time>2020-06-02T17:41:50Z</time>
      </trkpt>
      <trkpt lat="46.34691" lon="-1.41511">
        <ele>9</ele>
        <time>2020-06-02T17:41:51Z</time>
      </trkpt>
      <trkpt lat="46.3469" lon="-1.41511">
        <ele>9</ele>
        <time>2020-06-02T17:41:52Z</time>
      </trkpt>
      <trkpt lat="46.34688" lon="-1.41511">
        <ele>9</ele>
        <time>2020-06-02T17:41:53Z</time>
      </trkpt>
      <trkpt lat="46.34687" lon="-1.41512">
        <ele>9</ele>
        <time>2020-06-02T17:41:54Z</time>
      </trkpt>
      <trkpt lat="46.34687" lon="-1.41512">
        <ele>9</ele>
        <time>2020-06-02T17:41:55Z</time>
      </trkpt>
      <trkpt lat="46.34685" lon="-1.41512">
        <ele>9</ele>
        <time>2020-06-02T17:41:56Z</time>
      </trkpt>
      <trkpt lat="46.34684" lon="-1.41512">
        <ele>9</ele>
        <time>2020-06-02T17:41:57Z</time>
      </trkpt>
      <trkpt lat="46.34683" lon="-1.41513">
        <ele>9</ele>
        <time>2020-06-02T17:41:58Z</time>
      </trkpt>
      <trkpt lat="46.34682" lon="-1.41513">
        <ele>9</ele>
        <time>2020-06-02T17:41:59Z</time>
      </trkpt>
      <trkpt lat="46.34681" lon="-1.41514">
        <ele>8.9</ele>
        <time>2020-06-02T17:42:00Z</time>
      </trkpt>
      <trkpt lat="46.3468" lon="-1.41516">
        <ele>8.9</ele>
        <time>2020-06-02T17:42:01Z</time>
      </trkpt>
      <trkpt lat="46.3468" lon="-1.41517">
        <ele>8.9</ele>
        <time>2020-06-02T17:42:02Z</time>
      </trkpt>
      <trkpt lat="46.34679" lon="-1.41517">
        <ele>8.9</ele>
        <time>2020-06-02T17:42:03Z</time>
      </trkpt>
      <trkpt lat="46.34679" lon="-1.41518">
        <ele>8.9</ele>
        <time>2020-06-02T17:42:04Z</time>
      </trkpt>
      <trkpt lat="46.34679" lon="-1.41518">
        <ele>8.9</ele>
        <time>2020-06-02T17:42:05Z</time>
      </trkpt>
      <trkpt lat="46.34679" lon="-1.41518">
        <ele>8.9</ele>
        <time>2020-06-02T17:42:06Z</time>
      </trkpt>
      <trkpt lat="46.34678" lon="-1.41519">
        <ele>8.9</ele>
        <time>2020-06-02T17:42:07Z</time>
      </trkpt>
      <trkpt lat="46.34677" lon="-1.41519">
        <ele>8.9</ele>
        <time>2020-06-02T17:42:08Z</time>
      </trkpt>
      <trkpt lat="46.34676" lon="-1.4152">
        <ele>8.9</ele>
        <time>2020-06-02T17:42:09Z</time>
      </trkpt>
      <trkpt lat="46.34675" lon="-1.41521">
        <ele>8.9</ele>
        <time>2020-06-02T17:42:10Z</time>
      </trkpt>
      <trkpt lat="46.34674" lon="-1.41522">
        <ele>8.9</ele>
        <time>2020-06-02T17:42:11Z</time>
      </trkpt>
      <trkpt lat="46.34674" lon="-1.41522">
        <ele>8.9</ele>
        <time>2020-06-02T17:42:12Z</time>
      </trkpt>
      <trkpt lat="46.34673" lon="-1.41523">
        <ele>8.9</ele>
        <time>2020-06-02T17:42:13Z</time>
      </trkpt>
      <trkpt lat="46.34672" lon="-1.41523">
        <ele>8.9</ele>
        <time>2020-06-02T17:42:14Z</time>
      </trkpt>
      <trkpt lat="46.34671" lon="-1.41522">
        <ele>8.9</ele>
        <time>2020-06-02T17:42:15Z</time>
      </trkpt>
      <trkpt lat="46.34671" lon="-1.41522">
        <ele>8.9</ele>
        <time>2020-06-02T17:42:16Z</time>
      </trkpt>
      <trkpt lat="46.3467" lon="-1.41522">
        <ele>8.9</ele>
        <time>2020-06-02T17:42:17Z</time>
      </trkpt>
      <trkpt lat="46.3467" lon="-1.41522">
        <ele>8.9</ele>
        <time>2020-06-02T17:42:18Z</time>
      </trkpt>
      <trkpt lat="46.3467" lon="-1.41522">
        <ele>8.9</ele>
        <time>2020-06-02T17:42:19Z</time>
      </trkpt>
      <trkpt lat="46.3467" lon="-1.41522">
        <ele>8.9</ele>
        <time>2020-06-02T17:42:20Z</time>
      </trkpt>
      <trkpt lat="46.3467" lon="-1.41522">
        <ele>8.9</ele>
        <time>2020-06-02T17:42:21Z</time>
      </trkpt>
      <trkpt lat="46.3467" lon="-1.41521">
        <ele>8.9</ele>
        <time>2020-06-02T17:42:22Z</time>
      </trkpt>
      <trkpt lat="46.3467" lon="-1.41521">
        <ele>8.9</ele>
        <time>2020-06-02T17:42:23Z</time>
      </trkpt>
      <trkpt lat="46.3467" lon="-1.41521">
        <ele>8.9</ele>
        <time>2020-06-02T17:42:24Z</time>
      </trkpt>
      <trkpt lat="46.3467" lon="-1.41521">
        <ele>8.9</ele>
        <time>2020-06-02T17:42:25Z</time>
      </trkpt>
      <trkpt lat="46.3467" lon="-1.41521">
        <ele>8.9</ele>
        <time>2020-06-02T17:42:26Z</time>
      </trkpt>
      <trkpt lat="46.3467" lon="-1.41521">
        <ele>8.9</ele>
        <time>2020-06-02T17:42:27Z</time>
      </trkpt>
      <trkpt lat="46.3467" lon="-1.41521">
        <ele>8.9</ele>
        <time>2020-06-02T17:42:28Z</time>
      </trkpt>
      <trkpt lat="46.3467" lon="-1.4152">
        <ele>8.9</ele>
        <time>2020-06-02T17:42:29Z</time>
      </trkpt>
      <trkpt lat="46.34669" lon="-1.4152">
        <ele>8.9</ele>
        <time>2020-06-02T17:42:30Z</time>
      </trkpt>
      <trkpt lat="46.34669" lon="-1.41519">
        <ele>8.9</ele>
        <time>2020-06-02T17:42:31Z</time>
      </trkpt>
      <trkpt lat="46.34669" lon="-1.41519">
        <ele>8.9</ele>
        <time>2020-06-02T17:42:32Z</time>
      </trkpt>
      <trkpt lat="46.34668" lon="-1.41518">
        <ele>8.9</ele>
        <time>2020-06-02T17:42:33Z</time>
      </trkpt>
      <trkpt lat="46.34668" lon="-1.41518">
        <ele>8.9</ele>
        <time>2020-06-02T17:42:34Z</time>
      </trkpt>
      <trkpt lat="46.34668" lon="-1.41518">
        <ele>8.9</ele>
        <time>2020-06-02T17:42:35Z</time>
      </trkpt>
      <trkpt lat="46.34668" lon="-1.41518">
        <ele>8.9</ele>
        <time>2020-06-02T17:42:36Z</time>
      </trkpt>
      <trkpt lat="46.34668" lon="-1.41518">
        <ele>8.9</ele>
        <time>2020-06-02T17:42:37Z</time>
      </trkpt>
      <trkpt lat="46.34668" lon="-1.41518">
        <ele>8.9</ele>
        <time>2020-06-02T17:42:38Z</time>
      </trkpt>
      <trkpt lat="46.34668" lon="-1.41518">
        <ele>8.9</ele>
        <time>2020-06-02T17:42:39Z</time>
      </trkpt>
      <trkpt lat="46.34668" lon="-1.41517">
        <ele>8.9</ele>
        <time>2020-06-02T17:42:40Z</time>
      </trkpt>
      <trkpt lat="46.34668" lon="-1.41517">
        <ele>8.9</ele>
        <time>2020-06-02T17:42:41Z</time>
      </trkpt>
      <trkpt lat="46.34668" lon="-1.41517">
        <ele>8.9</ele>
        <time>2020-06-02T17:42:42Z</time>
      </trkpt>
      <trkpt lat="46.34667" lon="-1.41516">
        <ele>8.9</ele>
        <time>2020-06-02T17:42:43Z</time>
      </trkpt>
      <trkpt lat="46.34667" lon="-1.41515">
        <ele>8.9</ele>
        <time>2020-06-02T17:42:44Z</time>
      </trkpt>
      <trkpt lat="46.34667" lon="-1.41515">
        <ele>8.9</ele>
        <time>2020-06-02T17:42:45Z</time>
      </trkpt>
      <trkpt lat="46.34668" lon="-1.41513">
        <ele>8.9</ele>
        <time>2020-06-02T17:42:46Z</time>
      </trkpt>
      <trkpt lat="46.34668" lon="-1.41511">
        <ele>8.9</ele>
        <time>2020-06-02T17:42:47Z</time>
      </trkpt>
      <trkpt lat="46.34668" lon="-1.41511">
        <ele>8.9</ele>
        <time>2020-06-02T17:42:48Z</time>
      </trkpt>
      <trkpt lat="46.34668" lon="-1.41511">
        <ele>8.9</ele>
        <time>2020-06-02T17:42:49Z</time>
      </trkpt>
      <trkpt lat="46.34668" lon="-1.41509">
        <ele>8.9</ele>
        <time>2020-06-02T17:42:50Z</time>
      </trkpt>
      <trkpt lat="46.34668" lon="-1.41508">
        <ele>8.9</ele>
        <time>2020-06-02T17:42:51Z</time>
      </trkpt>
      <trkpt lat="46.34668" lon="-1.41508">
        <ele>8.9</ele>
        <time>2020-06-02T17:42:52Z</time>
      </trkpt>
      <trkpt lat="46.34668" lon="-1.41508">
        <ele>8.9</ele>
        <time>2020-06-02T17:42:53Z</time>
      </trkpt>
      <trkpt lat="46.34668" lon="-1.41508">
        <ele>8.9</ele>
        <time>2020-06-02T17:42:54Z</time>
      </trkpt>
      <trkpt lat="46.34668" lon="-1.41508">
        <ele>8.9</ele>
        <time>2020-06-02T17:42:55Z</time>
      </trkpt>
      <trkpt lat="46.34668" lon="-1.41508">
        <ele>8.9</ele>
        <time>2020-06-02T17:42:56Z</time>
      </trkpt>
      <trkpt lat="46.34668" lon="-1.41508">
        <ele>8.9</ele>
        <time>2020-06-02T17:42:57Z</time>
      </trkpt>
      <trkpt lat="46.34668" lon="-1.41508">
        <ele>8.9</ele>
        <time>2020-06-02T17:42:58Z</time>
      </trkpt>
      <trkpt lat="46.34668" lon="-1.41508">
        <ele>8.9</ele>
        <time>2020-06-02T17:42:59Z</time>
      </trkpt>
      <trkpt lat="46.34668" lon="-1.41508">
        <ele>8.9</ele>
        <time>2020-06-02T17:43:00Z</time>
      </trkpt>
      <trkpt lat="46.34668" lon="-1.41508">
        <ele>8.9</ele>
        <time>2020-06-02T17:43:01Z</time>
      </trkpt>
      <trkpt lat="46.34668" lon="-1.41508">
        <ele>8.9</ele>
        <time>2020-06-02T17:43:02Z</time>
      </trkpt>
      <trkpt lat="46.34668" lon="-1.41508">
        <ele>8.9</ele>
        <time>2020-06-02T17:43:03Z</time>
      </trkpt>
      <trkpt lat="46.34668" lon="-1.41508">
        <ele>8.9</ele>
        <time>2020-06-02T17:43:04Z</time>
      </trkpt>
      <trkpt lat="46.34668" lon="-1.41508">
        <ele>8.9</ele>
        <time>2020-06-02T17:43:05Z</time>
      </trkpt>
      <trkpt lat="46.34668" lon="-1.41508">
        <ele>8.9</ele>
        <time>2020-06-02T17:43:06Z</time>
      </trkpt>
      <trkpt lat="46.34668" lon="-1.41508">
        <ele>8.9</ele>
        <time>2020-06-02T17:43:07Z</time>
      </trkpt>
      <trkpt lat="46.34668" lon="-1.41508">
        <ele>8.9</ele>
        <time>2020-06-02T17:43:08Z</time>
      </trkpt>
      <trkpt lat="46.34668" lon="-1.41508">
        <ele>8.9</ele>
        <time>2020-06-02T17:43:09Z</time>
      </trkpt>
      <trkpt lat="46.34668" lon="-1.41508">
        <ele>8.9</ele>
        <time>2020-06-02T17:43:10Z</time>
      </trkpt>
      <trkpt lat="46.34668" lon="-1.41508">
        <ele>8.9</ele>
        <time>2020-06-02T17:43:11Z</time>
      </trkpt>
      <trkpt lat="46.34668" lon="-1.41508">
        <ele>8.9</ele>
        <time>2020-06-02T17:43:12Z</time>
      </trkpt>
      <trkpt lat="46.34668" lon="-1.41508">
        <ele>8.9</ele>
        <time>2020-06-02T17:43:13Z</time>
      </trkpt>
      <trkpt lat="46.34668" lon="-1.41508">
        <ele>8.9</ele>
        <time>2020-06-02T17:43:14Z</time>
      </trkpt>
      <trkpt lat="46.34668" lon="-1.41508">
        <ele>8.9</ele>
        <time>2020-06-02T17:43:15Z</time>
      </trkpt>
      <trkpt lat="46.34668" lon="-1.41508">
        <ele>8.9</ele>
        <time>2020-06-02T17:43:16Z</time>
      </trkpt>
      <trkpt lat="46.34668" lon="-1.41508">
        <ele>8.9</ele>
        <time>2020-06-02T17:43:17Z</time>
      </trkpt>
      <trkpt lat="46.34668" lon="-1.41508">
        <ele>8.9</ele>
        <time>2020-06-02T17:43:18Z</time>
      </trkpt>
      <trkpt lat="46.34668" lon="-1.41508">
        <ele>8.9</ele>
        <time>2020-06-02T17:43:19Z</time>
      </trkpt>
      <trkpt lat="46.34668" lon="-1.41508">
        <ele>8.9</ele>
        <time>2020-06-02T17:43:20Z</time>
      </trkpt>
      <trkpt lat="46.34668" lon="-1.41508">
        <ele>8.9</ele>
        <time>2020-06-02T17:43:21Z</time>
      </trkpt>
      <trkpt lat="46.34668" lon="-1.41508">
        <ele>8.9</ele>
        <time>2020-06-02T17:43:22Z</time>
      </trkpt>
      <trkpt lat="46.34668" lon="-1.41508">
        <ele>8.9</ele>
        <time>2020-06-02T17:43:23Z</time>
      </trkpt>
      <trkpt lat="46.34668" lon="-1.41508">
        <ele>8.9</ele>
        <time>2020-06-02T17:43:24Z</time>
      </trkpt>
      <trkpt lat="46.34668" lon="-1.41508">
        <ele>8.9</ele>
        <time>2020-06-02T17:43:25Z</time>
      </trkpt>
      <trkpt lat="46.34668" lon="-1.41508">
        <ele>8.9</ele>
        <time>2020-06-02T17:43:26Z</time>
      </trkpt>
      <trkpt lat="46.34668" lon="-1.41508">
        <ele>8.9</ele>
        <time>2020-06-02T17:43:27Z</time>
      </trkpt>
      <trkpt lat="46.34668" lon="-1.41508">
        <ele>8.9</ele>
        <time>2020-06-02T17:43:28Z</time>
      </trkpt>
      <trkpt lat="46.34668" lon="-1.41508">
        <ele>8.9</ele>
        <time>2020-06-02T17:43:29Z</time>
      </trkpt>
      <trkpt lat="46.34668" lon="-1.41508">
        <ele>8.9</ele>
        <time>2020-06-02T17:43:30Z</time>
      </trkpt>
      <trkpt lat="46.34668" lon="-1.41508">
        <ele>8.9</ele>
        <time>2020-06-02T17:43:31Z</time>
      </trkpt>
      <trkpt lat="46.34668" lon="-1.41508">
        <ele>8.9</ele>
        <time>2020-06-02T17:43:32Z</time>
      </trkpt>
      <trkpt lat="46.34668" lon="-1.41508">
        <ele>8.9</ele>
        <time>2020-06-02T17:43:33Z</time>
      </trkpt>
      <trkpt lat="46.34668" lon="-1.41508">
        <ele>8.9</ele>
        <time>2020-06-02T17:43:34Z</time>
      </trkpt>
      <trkpt lat="46.34668" lon="-1.41508">
        <ele>8.9</ele>
        <time>2020-06-02T17:43:35Z</time>
      </trkpt>
      <trkpt lat="46.34668" lon="-1.41508">
        <ele>8.9</ele>
        <time>2020-06-02T17:43:36Z</time>
      </trkpt>
      <trkpt lat="46.34668" lon="-1.41508">
        <ele>8.9</ele>
        <time>2020-06-02T17:43:37Z</time>
      </trkpt>
      <trkpt lat="46.34668" lon="-1.41508">
        <ele>8.9</ele>
        <time>2020-06-02T17:43:38Z</time>
      </trkpt>
      <trkpt lat="46.34668" lon="-1.41508">
        <ele>8.9</ele>
        <time>2020-06-02T17:43:39Z</time>
      </trkpt>
      <trkpt lat="46.34668" lon="-1.41508">
        <ele>8.9</ele>
        <time>2020-06-02T17:43:40Z</time>
      </trkpt>
      <trkpt lat="46.34668" lon="-1.41508">
        <ele>8.9</ele>
        <time>2020-06-02T17:43:41Z</time>
      </trkpt>
      <trkpt lat="46.34668" lon="-1.41508">
        <ele>8.9</ele>
        <time>2020-06-02T17:43:42Z</time>
      </trkpt>
      <trkpt lat="46.34668" lon="-1.41508">
        <ele>8.9</ele>
        <time>2020-06-02T17:43:43Z</time>
      </trkpt>
      <trkpt lat="46.34668" lon="-1.41508">
        <ele>8.9</ele>
        <time>2020-06-02T17:43:44Z</time>
      </trkpt>
      <trkpt lat="46.34668" lon="-1.41508">
        <ele>8.9</ele>
        <time>2020-06-02T17:43:45Z</time>
      </trkpt>
      <trkpt lat="46.34668" lon="-1.41508">
        <ele>8.9</ele>
        <time>2020-06-02T17:43:46Z</time>
      </trkpt>
      <trkpt lat="46.34668" lon="-1.41508">
        <ele>8.9</ele>
        <time>2020-06-02T17:43:47Z</time>
      </trkpt>
      <trkpt lat="46.34668" lon="-1.41508">
        <ele>8.9</ele>
        <time>2020-06-02T17:43:48Z</time>
      </trkpt>
      <trkpt lat="46.34668" lon="-1.41508">
        <ele>8.9</ele>
        <time>2020-06-02T17:43:49Z</time>
      </trkpt>
      <trkpt lat="46.34668" lon="-1.41508">
        <ele>8.9</ele>
        <time>2020-06-02T17:43:50Z</time>
      </trkpt>
      <trkpt lat="46.34668" lon="-1.41508">
        <ele>8.9</ele>
        <time>2020-06-02T17:43:51Z</time>
      </trkpt>
      <trkpt lat="46.34668" lon="-1.41508">
        <ele>8.9</ele>
        <time>2020-06-02T17:43:52Z</time>
      </trkpt>
      <trkpt lat="46.34668" lon="-1.41508">
        <ele>8.9</ele>
        <time>2020-06-02T17:43:53Z</time>
      </trkpt>
      <trkpt lat="46.34668" lon="-1.41508">
        <ele>8.9</ele>
        <time>2020-06-02T17:43:54Z</time>
      </trkpt>
      <trkpt lat="46.34668" lon="-1.41508">
        <ele>8.9</ele>
        <time>2020-06-02T17:43:55Z</time>
      </trkpt>
      <trkpt lat="46.34668" lon="-1.41508">
        <ele>8.9</ele>
        <time>2020-06-02T17:43:56Z</time>
      </trkpt>
      <trkpt lat="46.34668" lon="-1.41508">
        <ele>8.9</ele>
        <time>2020-06-02T17:43:57Z</time>
      </trkpt>
      <trkpt lat="46.34668" lon="-1.41508">
        <ele>8.9</ele>
        <time>2020-06-02T17:43:58Z</time>
      </trkpt>
      <trkpt lat="46.34668" lon="-1.41508">
        <ele>8.9</ele>
        <time>2020-06-02T17:43:59Z</time>
      </trkpt>
      <trkpt lat="46.34668" lon="-1.41508">
        <ele>8.9</ele>
        <time>2020-06-02T17:44:00Z</time>
      </trkpt>
      <trkpt lat="46.34668" lon="-1.41508">
        <ele>8.9</ele>
        <time>2020-06-02T17:44:01Z</time>
      </trkpt>
      <trkpt lat="46.34668" lon="-1.41508">
        <ele>8.9</ele>
        <time>2020-06-02T17:44:02Z</time>
      </trkpt>
      <trkpt lat="46.34668" lon="-1.41508">
        <ele>8.9</ele>
        <time>2020-06-02T17:44:03Z</time>
      </trkpt>
      <trkpt lat="46.34668" lon="-1.41508">
        <ele>8.9</ele>
        <time>2020-06-02T17:44:04Z</time>
      </trkpt>
      <trkpt lat="46.34668" lon="-1.41508">
        <ele>8.9</ele>
        <time>2020-06-02T17:44:05Z</time>
      </trkpt>
      <trkpt lat="46.34668" lon="-1.41508">
        <ele>8.9</ele>
        <time>2020-06-02T17:44:06Z</time>
      </trkpt>
      <trkpt lat="46.34668" lon="-1.41508">
        <ele>8.9</ele>
        <time>2020-06-02T17:44:07Z</time>
      </trkpt>
      <trkpt lat="46.34668" lon="-1.41508">
        <ele>8.9</ele>
        <time>2020-06-02T17:44:08Z</time>
      </trkpt>
      <trkpt lat="46.34668" lon="-1.41508">
        <ele>8.9</ele>
        <time>2020-06-02T17:44:09Z</time>
      </trkpt>
      <trkpt lat="46.34668" lon="-1.41508">
        <ele>8.9</ele>
        <time>2020-06-02T17:44:10Z</time>
      </trkpt>
      <trkpt lat="46.34668" lon="-1.41508">
        <ele>8.9</ele>
        <time>2020-06-02T17:44:11Z</time>
      </trkpt>
      <trkpt lat="46.34668" lon="-1.41508">
        <ele>8.9</ele>
        <time>2020-06-02T17:44:12Z</time>
      </trkpt>
      <trkpt lat="46.34668" lon="-1.41508">
        <ele>8.9</ele>
        <time>2020-06-02T17:44:13Z</time>
      </trkpt>
      <trkpt lat="46.34668" lon="-1.41508">
        <ele>8.9</ele>
        <time>2020-06-02T17:44:14Z</time>
      </trkpt>
      <trkpt lat="46.34668" lon="-1.41508">
        <ele>8.9</ele>
        <time>2020-06-02T17:44:15Z</time>
      </trkpt>
      <trkpt lat="46.34668" lon="-1.41508">
        <ele>8.9</ele>
        <time>2020-06-02T17:44:16Z</time>
      </trkpt>
      <trkpt lat="46.34668" lon="-1.41508">
        <ele>8.9</ele>
        <time>2020-06-02T17:44:17Z</time>
      </trkpt>
      <trkpt lat="46.34668" lon="-1.41508">
        <ele>8.9</ele>
        <time>2020-06-02T17:44:18Z</time>
      </trkpt>
      <trkpt lat="46.34668" lon="-1.41508">
        <ele>8.9</ele>
        <time>2020-06-02T17:44:19Z</time>
      </trkpt>
      <trkpt lat="46.34668" lon="-1.41506">
        <ele>8.9</ele>
        <time>2020-06-02T17:44:20Z</time>
      </trkpt>
      <trkpt lat="46.34668" lon="-1.41505">
        <ele>8.9</ele>
        <time>2020-06-02T17:44:21Z</time>
      </trkpt>
      <trkpt lat="46.34668" lon="-1.41506">
        <ele>8.9</ele>
        <time>2020-06-02T17:44:22Z</time>
      </trkpt>
      <trkpt lat="46.34668" lon="-1.41506">
        <ele>8.9</ele>
        <time>2020-06-02T17:44:23Z</time>
      </trkpt>
      <trkpt lat="46.34668" lon="-1.41507">
        <ele>8.9</ele>
        <time>2020-06-02T17:44:24Z</time>
      </trkpt>
      <trkpt lat="46.34668" lon="-1.41507">
        <ele>8.9</ele>
        <time>2020-06-02T17:44:25Z</time>
      </trkpt>
      <trkpt lat="46.34668" lon="-1.41508">
        <ele>8.9</ele>
        <time>2020-06-02T17:44:26Z</time>
      </trkpt>
      <trkpt lat="46.34669" lon="-1.41508">
        <ele>8.9</ele>
        <time>2020-06-02T17:44:27Z</time>
      </trkpt>
      <trkpt lat="46.34669" lon="-1.41508">
        <ele>8.9</ele>
        <time>2020-06-02T17:44:28Z</time>
      </trkpt>
      <trkpt lat="46.34669" lon="-1.41507">
        <ele>8.9</ele>
        <time>2020-06-02T17:44:29Z</time>
      </trkpt>
      <trkpt lat="46.34669" lon="-1.41508">
        <ele>8.9</ele>
        <time>2020-06-02T17:44:30Z</time>
      </trkpt>
      <trkpt lat="46.34669" lon="-1.41509">
        <ele>8.9</ele>
        <time>2020-06-02T17:44:31Z</time>
      </trkpt>
      <trkpt lat="46.34669" lon="-1.4151">
        <ele>8.9</ele>
        <time>2020-06-02T17:44:32Z</time>
      </trkpt>
    </trkseg>
  </trk>
  <trk>
    <name><![CDATA[Jour 2 - Saint Maixent/La Couarde]]></name>
    <trkseg>
      <trkpt lat="46.42031" lon="-0.19587">
        <ele>64.1</ele>
        <time>2020-05-31T07:45:55Z</time>
      </trkpt>
      <trkpt lat="46.42022" lon="-0.19592">
        <ele>64</ele>
        <time>2020-05-31T07:45:56Z</time>
      </trkpt>
      <trkpt lat="46.42015" lon="-0.19594">
        <ele>63.9</ele>
        <time>2020-05-31T07:45:57Z</time>
      </trkpt>
      <trkpt lat="46.42009" lon="-0.19599">
        <ele>63.8</ele>
        <time>2020-05-31T07:45:58Z</time>
      </trkpt>
      <trkpt lat="46.42003" lon="-0.19603">
        <ele>63.7</ele>
        <time>2020-05-31T07:45:59Z</time>
      </trkpt>
      <trkpt lat="46.41998" lon="-0.1961">
        <ele>63.6</ele>
        <time>2020-05-31T07:46:00Z</time>
      </trkpt>
      <trkpt lat="46.41996" lon="-0.19626">
        <ele>63.4</ele>
        <time>2020-05-31T07:46:01Z</time>
      </trkpt>
      <trkpt lat="46.41991" lon="-0.19626">
        <ele>63.4</ele>
        <time>2020-05-31T07:46:02Z</time>
      </trkpt>
      <trkpt lat="46.41989" lon="-0.1963">
        <ele>63.3</ele>
        <time>2020-05-31T07:46:03Z</time>
      </trkpt>
      <trkpt lat="46.41985" lon="-0.19637">
        <ele>63.3</ele>
        <time>2020-05-31T07:46:04Z</time>
      </trkpt>
      <trkpt lat="46.41981" lon="-0.19643">
        <ele>63.3</ele>
        <time>2020-05-31T07:46:05Z</time>
      </trkpt>
      <trkpt lat="46.41976" lon="-0.1965">
        <ele>63.3</ele>
        <time>2020-05-31T07:46:06Z</time>
      </trkpt>
      <trkpt lat="46.41971" lon="-0.19656">
        <ele>63.3</ele>
        <time>2020-05-31T07:46:07Z</time>
      </trkpt>
      <trkpt lat="46.41966" lon="-0.19662">
        <ele>63.3</ele>
        <time>2020-05-31T07:46:08Z</time>
      </trkpt>
      <trkpt lat="46.41962" lon="-0.19668">
        <ele>63.3</ele>
        <time>2020-05-31T07:46:09Z</time>
      </trkpt>
      <trkpt lat="46.41957" lon="-0.19672">
        <ele>63.3</ele>
        <time>2020-05-31T07:46:10Z</time>
      </trkpt>
      <trkpt lat="46.41951" lon="-0.19676">
        <ele>63.3</ele>
        <time>2020-05-31T07:46:11Z</time>
      </trkpt>
      <trkpt lat="46.41946" lon="-0.1968">
        <ele>63.3</ele>
        <time>2020-05-31T07:46:12Z</time>
      </trkpt>
      <trkpt lat="46.4194" lon="-0.19685">
        <ele>63.3</ele>
        <time>2020-05-31T07:46:13Z</time>
      </trkpt>
      <trkpt lat="46.41933" lon="-0.1969">
        <ele>63.3</ele>
        <time>2020-05-31T07:46:14Z</time>
      </trkpt>
      <trkpt lat="46.41927" lon="-0.19694">
        <ele>63.2</ele>
        <time>2020-05-31T07:46:16Z</time>
      </trkpt>
      <trkpt lat="46.41921" lon="-0.19697">
        <ele>63.2</ele>
        <time>2020-05-31T07:46:17Z</time>
      </trkpt>
      <trkpt lat="46.41915" lon="-0.19701">
        <ele>63.2</ele>
        <time>2020-05-31T07:46:18Z</time>
      </trkpt>
      <trkpt lat="46.41909" lon="-0.19704">
        <ele>63.2</ele>
        <time>2020-05-31T07:46:19Z</time>
      </trkpt>
      <trkpt lat="46.41903" lon="-0.19707">
        <ele>63.2</ele>
        <time>2020-05-31T07:46:20Z</time>
      </trkpt>
      <trkpt lat="46.41896" lon="-0.19709">
        <ele>63.2</ele>
        <time>2020-05-31T07:46:21Z</time>
      </trkpt>
      <trkpt lat="46.4189" lon="-0.19711">
        <ele>63.3</ele>
        <time>2020-05-31T07:46:22Z</time>
      </trkpt>
      <trkpt lat="46.41884" lon="-0.19713">
        <ele>63.3</ele>
        <time>2020-05-31T07:46:23Z</time>
      </trkpt>
      <trkpt lat="46.41881" lon="-0.19715">
        <ele>63.3</ele>
        <time>2020-05-31T07:46:24Z</time>
      </trkpt>
      <trkpt lat="46.41877" lon="-0.19715">
        <ele>63.3</ele>
        <time>2020-05-31T07:46:25Z</time>
      </trkpt>
      <trkpt lat="46.41876" lon="-0.19716">
        <ele>63.3</ele>
        <time>2020-05-31T07:46:26Z</time>
      </trkpt>
      <trkpt lat="46.41872" lon="-0.19718">
        <ele>63.2</ele>
        <time>2020-05-31T07:46:27Z</time>
      </trkpt>
      <trkpt lat="46.41868" lon="-0.19719">
        <ele>63.2</ele>
        <time>2020-05-31T07:46:28Z</time>
      </trkpt>
      <trkpt lat="46.41864" lon="-0.1972">
        <ele>63.2</ele>
        <time>2020-05-31T07:46:29Z</time>
      </trkpt>
      <trkpt lat="46.4186" lon="-0.19722">
        <ele>63.1</ele>
        <time>2020-05-31T07:46:30Z</time>
      </trkpt>
      <trkpt lat="46.41856" lon="-0.19724">
        <ele>63.1</ele>
        <time>2020-05-31T07:46:31Z</time>
      </trkpt>
      <trkpt lat="46.41852" lon="-0.19725">
        <ele>63.1</ele>
        <time>2020-05-31T07:46:32Z</time>
      </trkpt>
      <trkpt lat="46.41847" lon="-0.19728">
        <ele>63</ele>
        <time>2020-05-31T07:46:33Z</time>
      </trkpt>
      <trkpt lat="46.41843" lon="-0.1973">
        <ele>63</ele>
        <time>2020-05-31T07:46:34Z</time>
      </trkpt>
      <trkpt lat="46.41834" lon="-0.19734">
        <ele>62.9</ele>
        <time>2020-05-31T07:46:35Z</time>
      </trkpt>
      <trkpt lat="46.41828" lon="-0.19735">
        <ele>62.9</ele>
        <time>2020-05-31T07:46:36Z</time>
      </trkpt>
      <trkpt lat="46.41824" lon="-0.19737">
        <ele>62.9</ele>
        <time>2020-05-31T07:46:37Z</time>
      </trkpt>
      <trkpt lat="46.41819" lon="-0.19739">
        <ele>62.8</ele>
        <time>2020-05-31T07:46:38Z</time>
      </trkpt>
      <trkpt lat="46.41814" lon="-0.19742">
        <ele>62.8</ele>
        <time>2020-05-31T07:46:39Z</time>
      </trkpt>
      <trkpt lat="46.41809" lon="-0.19744">
        <ele>62.8</ele>
        <time>2020-05-31T07:46:40Z</time>
      </trkpt>
      <trkpt lat="46.41805" lon="-0.19746">
        <ele>62.8</ele>
        <time>2020-05-31T07:46:41Z</time>
      </trkpt>
      <trkpt lat="46.41801" lon="-0.19748">
        <ele>62.8</ele>
        <time>2020-05-31T07:46:42Z</time>
      </trkpt>
      <trkpt lat="46.41797" lon="-0.1975">
        <ele>62.8</ele>
        <time>2020-05-31T07:46:43Z</time>
      </trkpt>
      <trkpt lat="46.41792" lon="-0.19751">
        <ele>62.8</ele>
        <time>2020-05-31T07:46:44Z</time>
      </trkpt>
      <trkpt lat="46.41789" lon="-0.19753">
        <ele>62.7</ele>
        <time>2020-05-31T07:46:45Z</time>
      </trkpt>
      <trkpt lat="46.41785" lon="-0.19756">
        <ele>62.7</ele>
        <time>2020-05-31T07:46:46Z</time>
      </trkpt>
      <trkpt lat="46.41781" lon="-0.19758">
        <ele>62.7</ele>
        <time>2020-05-31T07:46:47Z</time>
      </trkpt>
      <trkpt lat="46.41775" lon="-0.19759">
        <ele>62.6</ele>
        <time>2020-05-31T07:46:48Z</time>
      </trkpt>
      <trkpt lat="46.4177" lon="-0.19761">
        <ele>62.5</ele>
        <time>2020-05-31T07:46:49Z</time>
      </trkpt>
      <trkpt lat="46.41766" lon="-0.19763">
        <ele>62.4</ele>
        <time>2020-05-31T07:46:50Z</time>
      </trkpt>
      <trkpt lat="46.41761" lon="-0.19766">
        <ele>62.4</ele>
        <time>2020-05-31T07:46:51Z</time>
      </trkpt>
      <trkpt lat="46.41757" lon="-0.19768">
        <ele>62.3</ele>
        <time>2020-05-31T07:46:52Z</time>
      </trkpt>
      <trkpt lat="46.41751" lon="-0.19771">
        <ele>62.2</ele>
        <time>2020-05-31T07:46:53Z</time>
      </trkpt>
      <trkpt lat="46.41747" lon="-0.19774">
        <ele>62.1</ele>
        <time>2020-05-31T07:46:54Z</time>
      </trkpt>
      <trkpt lat="46.41741" lon="-0.19777">
        <ele>62</ele>
        <time>2020-05-31T07:46:55Z</time>
      </trkpt>
      <trkpt lat="46.41737" lon="-0.19781">
        <ele>61.9</ele>
        <time>2020-05-31T07:46:56Z</time>
      </trkpt>
      <trkpt lat="46.41732" lon="-0.19784">
        <ele>61.8</ele>
        <time>2020-05-31T07:46:57Z</time>
      </trkpt>
      <trkpt lat="46.41727" lon="-0.19788">
        <ele>61.7</ele>
        <time>2020-05-31T07:46:58Z</time>
      </trkpt>
      <trkpt lat="46.41722" lon="-0.19792">
        <ele>61.6</ele>
        <time>2020-05-31T07:46:59Z</time>
      </trkpt>
      <trkpt lat="46.41718" lon="-0.19795">
        <ele>61.5</ele>
        <time>2020-05-31T07:47:00Z</time>
      </trkpt>
      <trkpt lat="46.41713" lon="-0.19798">
        <ele>61.4</ele>
        <time>2020-05-31T07:47:01Z</time>
      </trkpt>
      <trkpt lat="46.41708" lon="-0.19801">
        <ele>61.3</ele>
        <time>2020-05-31T07:47:02Z</time>
      </trkpt>
      <trkpt lat="46.41703" lon="-0.19805">
        <ele>61.2</ele>
        <time>2020-05-31T07:47:03Z</time>
      </trkpt>
      <trkpt lat="46.41698" lon="-0.19808">
        <ele>61.1</ele>
        <time>2020-05-31T07:47:04Z</time>
      </trkpt>
      <trkpt lat="46.41693" lon="-0.1981">
        <ele>61.1</ele>
        <time>2020-05-31T07:47:05Z</time>
      </trkpt>
      <trkpt lat="46.41686" lon="-0.19812">
        <ele>61</ele>
        <time>2020-05-31T07:47:06Z</time>
      </trkpt>
      <trkpt lat="46.41681" lon="-0.19815">
        <ele>61</ele>
        <time>2020-05-31T07:47:07Z</time>
      </trkpt>
      <trkpt lat="46.41675" lon="-0.19816">
        <ele>61</ele>
        <time>2020-05-31T07:47:08Z</time>
      </trkpt>
      <trkpt lat="46.41669" lon="-0.19817">
        <ele>61</ele>
        <time>2020-05-31T07:47:09Z</time>
      </trkpt>
      <trkpt lat="46.41663" lon="-0.19819">
        <ele>61</ele>
        <time>2020-05-31T07:47:10Z</time>
      </trkpt>
      <trkpt lat="46.41658" lon="-0.19821">
        <ele>61</ele>
        <time>2020-05-31T07:47:11Z</time>
      </trkpt>
      <trkpt lat="46.41653" lon="-0.19823">
        <ele>61</ele>
        <time>2020-05-31T07:47:12Z</time>
      </trkpt>
      <trkpt lat="46.41648" lon="-0.19825">
        <ele>61</ele>
        <time>2020-05-31T07:47:13Z</time>
      </trkpt>
      <trkpt lat="46.41643" lon="-0.19826">
        <ele>61</ele>
        <time>2020-05-31T07:47:14Z</time>
      </trkpt>
      <trkpt lat="46.41639" lon="-0.19827">
        <ele>61</ele>
        <time>2020-05-31T07:47:15Z</time>
      </trkpt>
      <trkpt lat="46.41634" lon="-0.19829">
        <ele>61</ele>
        <time>2020-05-31T07:47:16Z</time>
      </trkpt>
      <trkpt lat="46.4163" lon="-0.19829">
        <ele>61</ele>
        <time>2020-05-31T07:47:17Z</time>
      </trkpt>
      <trkpt lat="46.41626" lon="-0.1983">
        <ele>61</ele>
        <time>2020-05-31T07:47:18Z</time>
      </trkpt>
      <trkpt lat="46.41621" lon="-0.1983">
        <ele>61</ele>
        <time>2020-05-31T07:47:19Z</time>
      </trkpt>
      <trkpt lat="46.41617" lon="-0.19832">
        <ele>61</ele>
        <time>2020-05-31T07:47:20Z</time>
      </trkpt>
      <trkpt lat="46.41614" lon="-0.19834">
        <ele>61</ele>
        <time>2020-05-31T07:47:21Z</time>
      </trkpt>
      <trkpt lat="46.4161" lon="-0.19833">
        <ele>61</ele>
        <time>2020-05-31T07:47:22Z</time>
      </trkpt>
      <trkpt lat="46.41606" lon="-0.19834">
        <ele>61</ele>
        <time>2020-05-31T07:47:23Z</time>
      </trkpt>
      <trkpt lat="46.41603" lon="-0.19836">
        <ele>61</ele>
        <time>2020-05-31T07:47:24Z</time>
      </trkpt>
      <trkpt lat="46.416" lon="-0.19834">
        <ele>61</ele>
        <time>2020-05-31T07:47:25Z</time>
      </trkpt>
      <trkpt lat="46.41594" lon="-0.1983">
        <ele>61</ele>
        <time>2020-05-31T07:47:26Z</time>
      </trkpt>
      <trkpt lat="46.41591" lon="-0.19828">
        <ele>61</ele>
        <time>2020-05-31T07:47:27Z</time>
      </trkpt>
      <trkpt lat="46.41589" lon="-0.19828">
        <ele>61</ele>
        <time>2020-05-31T07:47:28Z</time>
      </trkpt>
      <trkpt lat="46.41586" lon="-0.19826">
        <ele>61</ele>
        <time>2020-05-31T07:47:29Z</time>
      </trkpt>
      <trkpt lat="46.41586" lon="-0.19826">
        <ele>61</ele>
        <time>2020-05-31T07:47:30Z</time>
      </trkpt>
      <trkpt lat="46.41584" lon="-0.19825">
        <ele>61</ele>
        <time>2020-05-31T07:47:31Z</time>
      </trkpt>
      <trkpt lat="46.41583" lon="-0.19826">
        <ele>61</ele>
        <time>2020-05-31T07:47:32Z</time>
      </trkpt>
      <trkpt lat="46.41583" lon="-0.19826">
        <ele>61</ele>
        <time>2020-05-31T07:47:33Z</time>
      </trkpt>
      <trkpt lat="46.41583" lon="-0.19826">
        <ele>61</ele>
        <time>2020-05-31T07:47:34Z</time>
      </trkpt>
      <trkpt lat="46.41583" lon="-0.19826">
        <ele>61</ele>
        <time>2020-05-31T07:47:35Z</time>
      </trkpt>
      <trkpt lat="46.41583" lon="-0.19826">
        <ele>61</ele>
        <time>2020-05-31T07:47:36Z</time>
      </trkpt>
      <trkpt lat="46.41582" lon="-0.19827">
        <ele>61</ele>
        <time>2020-05-31T07:47:37Z</time>
      </trkpt>
      <trkpt lat="46.41582" lon="-0.19827">
        <ele>61</ele>
        <time>2020-05-31T07:47:38Z</time>
      </trkpt>
      <trkpt lat="46.41582" lon="-0.19827">
        <ele>61</ele>
        <time>2020-05-31T07:47:39Z</time>
      </trkpt>
      <trkpt lat="46.41582" lon="-0.19827">
        <ele>61</ele>
        <time>2020-05-31T07:47:40Z</time>
      </trkpt>
      <trkpt lat="46.41582" lon="-0.19827">
        <ele>61</ele>
        <time>2020-05-31T07:47:41Z</time>
      </trkpt>
      <trkpt lat="46.41581" lon="-0.19829">
        <ele>61</ele>
        <time>2020-05-31T07:47:42Z</time>
      </trkpt>
      <trkpt lat="46.4158" lon="-0.1983">
        <ele>61</ele>
        <time>2020-05-31T07:47:43Z</time>
      </trkpt>
      <trkpt lat="46.41579" lon="-0.19831">
        <ele>61</ele>
        <time>2020-05-31T07:47:44Z</time>
      </trkpt>
      <trkpt lat="46.41578" lon="-0.19834">
        <ele>61</ele>
        <time>2020-05-31T07:47:45Z</time>
      </trkpt>
      <trkpt lat="46.41577" lon="-0.19835">
        <ele>61</ele>
        <time>2020-05-31T07:47:46Z</time>
      </trkpt>
      <trkpt lat="46.41577" lon="-0.19836">
        <ele>61</ele>
        <time>2020-05-31T07:47:47Z</time>
      </trkpt>
      <trkpt lat="46.41575" lon="-0.19841">
        <ele>61</ele>
        <time>2020-05-31T07:47:48Z</time>
      </trkpt>
      <trkpt lat="46.41575" lon="-0.19843">
        <ele>61</ele>
        <time>2020-05-31T07:47:49Z</time>
      </trkpt>
      <trkpt lat="46.41573" lon="-0.19848">
        <ele>61.1</ele>
        <time>2020-05-31T07:47:50Z</time>
      </trkpt>
      <trkpt lat="46.41571" lon="-0.19853">
        <ele>61.1</ele>
        <time>2020-05-31T07:47:51Z</time>
      </trkpt>
      <trkpt lat="46.41568" lon="-0.1986">
        <ele>61.2</ele>
        <time>2020-05-31T07:47:52Z</time>
      </trkpt>
      <trkpt lat="46.41566" lon="-0.19865">
        <ele>61.2</ele>
        <time>2020-05-31T07:47:53Z</time>
      </trkpt>
      <trkpt lat="46.41565" lon="-0.19872">
        <ele>61.2</ele>
        <time>2020-05-31T07:47:54Z</time>
      </trkpt>
      <trkpt lat="46.41563" lon="-0.19878">
        <ele>61.3</ele>
        <time>2020-05-31T07:47:55Z</time>
      </trkpt>
      <trkpt lat="46.41561" lon="-0.19884">
        <ele>61.3</ele>
        <time>2020-05-31T07:47:56Z</time>
      </trkpt>
      <trkpt lat="46.41559" lon="-0.19891">
        <ele>61.4</ele>
        <time>2020-05-31T07:47:57Z</time>
      </trkpt>
      <trkpt lat="46.41557" lon="-0.19898">
        <ele>61.4</ele>
        <time>2020-05-31T07:47:58Z</time>
      </trkpt>
      <trkpt lat="46.41555" lon="-0.19904">
        <ele>61.4</ele>
        <time>2020-05-31T07:47:59Z</time>
      </trkpt>
      <trkpt lat="46.41553" lon="-0.1991">
        <ele>61.4</ele>
        <time>2020-05-31T07:48:00Z</time>
      </trkpt>
      <trkpt lat="46.41551" lon="-0.19916">
        <ele>61.5</ele>
        <time>2020-05-31T07:48:01Z</time>
      </trkpt>
      <trkpt lat="46.41549" lon="-0.19922">
        <ele>61.5</ele>
        <time>2020-05-31T07:48:02Z</time>
      </trkpt>
      <trkpt lat="46.41548" lon="-0.19929">
        <ele>61.5</ele>
        <time>2020-05-31T07:48:03Z</time>
      </trkpt>
      <trkpt lat="46.41546" lon="-0.19936">
        <ele>61.6</ele>
        <time>2020-05-31T07:48:04Z</time>
      </trkpt>
      <trkpt lat="46.41545" lon="-0.19942">
        <ele>61.6</ele>
        <time>2020-05-31T07:48:05Z</time>
      </trkpt>
      <trkpt lat="46.41543" lon="-0.19948">
        <ele>61.6</ele>
        <time>2020-05-31T07:48:06Z</time>
      </trkpt>
      <trkpt lat="46.41542" lon="-0.19953">
        <ele>61.6</ele>
        <time>2020-05-31T07:48:07Z</time>
      </trkpt>
      <trkpt lat="46.41539" lon="-0.1996">
        <ele>61.7</ele>
        <time>2020-05-31T07:48:08Z</time>
      </trkpt>
      <trkpt lat="46.41537" lon="-0.19965">
        <ele>61.7</ele>
        <time>2020-05-31T07:48:09Z</time>
      </trkpt>
      <trkpt lat="46.41534" lon="-0.19972">
        <ele>61.7</ele>
        <time>2020-05-31T07:48:10Z</time>
      </trkpt>
      <trkpt lat="46.41533" lon="-0.19978">
        <ele>61.7</ele>
        <time>2020-05-31T07:48:11Z</time>
      </trkpt>
      <trkpt lat="46.41531" lon="-0.19985">
        <ele>61.8</ele>
        <time>2020-05-31T07:48:12Z</time>
      </trkpt>
      <trkpt lat="46.4153" lon="-0.19991">
        <ele>61.8</ele>
        <time>2020-05-31T07:48:13Z</time>
      </trkpt>
      <trkpt lat="46.41528" lon="-0.19997">
        <ele>61.8</ele>
        <time>2020-05-31T07:48:14Z</time>
      </trkpt>
      <trkpt lat="46.41526" lon="-0.20001">
        <ele>61.8</ele>
        <time>2020-05-31T07:48:15Z</time>
      </trkpt>
      <trkpt lat="46.41524" lon="-0.20007">
        <ele>61.8</ele>
        <time>2020-05-31T07:48:16Z</time>
      </trkpt>
      <trkpt lat="46.41522" lon="-0.20013">
        <ele>61.8</ele>
        <time>2020-05-31T07:48:17Z</time>
      </trkpt>
      <trkpt lat="46.41519" lon="-0.2002">
        <ele>61.8</ele>
        <time>2020-05-31T07:48:18Z</time>
      </trkpt>
      <trkpt lat="46.41518" lon="-0.20026">
        <ele>61.8</ele>
        <time>2020-05-31T07:48:19Z</time>
      </trkpt>
      <trkpt lat="46.41515" lon="-0.20033">
        <ele>61.8</ele>
        <time>2020-05-31T07:48:20Z</time>
      </trkpt>
      <trkpt lat="46.41513" lon="-0.2004">
        <ele>61.7</ele>
        <time>2020-05-31T07:48:21Z</time>
      </trkpt>
      <trkpt lat="46.41511" lon="-0.20046">
        <ele>61.7</ele>
        <time>2020-05-31T07:48:22Z</time>
      </trkpt>
      <trkpt lat="46.41508" lon="-0.20052">
        <ele>61.7</ele>
        <time>2020-05-31T07:48:23Z</time>
      </trkpt>
      <trkpt lat="46.41506" lon="-0.20058">
        <ele>61.7</ele>
        <time>2020-05-31T07:48:24Z</time>
      </trkpt>
      <trkpt lat="46.41504" lon="-0.20064">
        <ele>61.7</ele>
        <time>2020-05-31T07:48:25Z</time>
      </trkpt>
      <trkpt lat="46.41503" lon="-0.2007">
        <ele>61.7</ele>
        <time>2020-05-31T07:48:26Z</time>
      </trkpt>
      <trkpt lat="46.41504" lon="-0.20076">
        <ele>61.7</ele>
        <time>2020-05-31T07:48:27Z</time>
      </trkpt>
      <trkpt lat="46.41505" lon="-0.20083">
        <ele>61.7</ele>
        <time>2020-05-31T07:48:28Z</time>
      </trkpt>
      <trkpt lat="46.41508" lon="-0.2009">
        <ele>61.7</ele>
        <time>2020-05-31T07:48:29Z</time>
      </trkpt>
      <trkpt lat="46.41509" lon="-0.20097">
        <ele>61.7</ele>
        <time>2020-05-31T07:48:30Z</time>
      </trkpt>
      <trkpt lat="46.41511" lon="-0.20103">
        <ele>61.8</ele>
        <time>2020-05-31T07:48:31Z</time>
      </trkpt>
      <trkpt lat="46.41513" lon="-0.20109">
        <ele>61.8</ele>
        <time>2020-05-31T07:48:32Z</time>
      </trkpt>
      <trkpt lat="46.41515" lon="-0.20115">
        <ele>61.8</ele>
        <time>2020-05-31T07:48:33Z</time>
      </trkpt>
      <trkpt lat="46.41517" lon="-0.20119">
        <ele>61.8</ele>
        <time>2020-05-31T07:48:34Z</time>
      </trkpt>
      <trkpt lat="46.41518" lon="-0.20123">
        <ele>61.8</ele>
        <time>2020-05-31T07:48:35Z</time>
      </trkpt>
      <trkpt lat="46.41518" lon="-0.20129">
        <ele>61.8</ele>
        <time>2020-05-31T07:48:36Z</time>
      </trkpt>
      <trkpt lat="46.41517" lon="-0.20131">
        <ele>61.8</ele>
        <time>2020-05-31T07:48:37Z</time>
      </trkpt>
      <trkpt lat="46.41514" lon="-0.20134">
        <ele>61.8</ele>
        <time>2020-05-31T07:48:38Z</time>
      </trkpt>
      <trkpt lat="46.41513" lon="-0.20136">
        <ele>61.8</ele>
        <time>2020-05-31T07:48:39Z</time>
      </trkpt>
      <trkpt lat="46.41509" lon="-0.20137">
        <ele>61.8</ele>
        <time>2020-05-31T07:48:40Z</time>
      </trkpt>
      <trkpt lat="46.41505" lon="-0.20138">
        <ele>61.8</ele>
        <time>2020-05-31T07:48:41Z</time>
      </trkpt>
      <trkpt lat="46.41502" lon="-0.20138">
        <ele>62.1</ele>
        <time>2020-05-31T07:48:42Z</time>
      </trkpt>
      <trkpt lat="46.41501" lon="-0.20139">
        <ele>62.1</ele>
        <time>2020-05-31T07:48:43Z</time>
      </trkpt>
      <trkpt lat="46.41499" lon="-0.2014">
        <ele>62.1</ele>
        <time>2020-05-31T07:48:44Z</time>
      </trkpt>
      <trkpt lat="46.41497" lon="-0.2014">
        <ele>62.1</ele>
        <time>2020-05-31T07:48:45Z</time>
      </trkpt>
      <trkpt lat="46.41497" lon="-0.20139">
        <ele>62.1</ele>
        <time>2020-05-31T07:48:46Z</time>
      </trkpt>
      <trkpt lat="46.41496" lon="-0.2014">
        <ele>62.1</ele>
        <time>2020-05-31T07:48:47Z</time>
      </trkpt>
      <trkpt lat="46.41496" lon="-0.20142">
        <ele>62.2</ele>
        <time>2020-05-31T07:48:48Z</time>
      </trkpt>
      <trkpt lat="46.41496" lon="-0.20143">
        <ele>62.2</ele>
        <time>2020-05-31T07:48:49Z</time>
      </trkpt>
      <trkpt lat="46.41496" lon="-0.20144">
        <ele>62.2</ele>
        <time>2020-05-31T07:48:50Z</time>
      </trkpt>
      <trkpt lat="46.41496" lon="-0.20145">
        <ele>62.2</ele>
        <time>2020-05-31T07:48:51Z</time>
      </trkpt>
      <trkpt lat="46.41496" lon="-0.20146">
        <ele>62.2</ele>
        <time>2020-05-31T07:48:52Z</time>
      </trkpt>
      <trkpt lat="46.41495" lon="-0.20146">
        <ele>62.2</ele>
        <time>2020-05-31T07:48:53Z</time>
      </trkpt>
      <trkpt lat="46.41494" lon="-0.20145">
        <ele>62.2</ele>
        <time>2020-05-31T07:48:54Z</time>
      </trkpt>
      <trkpt lat="46.41493" lon="-0.20144">
        <ele>62.3</ele>
        <time>2020-05-31T07:48:55Z</time>
      </trkpt>
      <trkpt lat="46.41491" lon="-0.20145">
        <ele>62.3</ele>
        <time>2020-05-31T07:48:56Z</time>
      </trkpt>
      <trkpt lat="46.41491" lon="-0.20145">
        <ele>62.3</ele>
        <time>2020-05-31T07:48:57Z</time>
      </trkpt>
      <trkpt lat="46.4149" lon="-0.20145">
        <ele>62.3</ele>
        <time>2020-05-31T07:48:58Z</time>
      </trkpt>
      <trkpt lat="46.4149" lon="-0.20144">
        <ele>62.3</ele>
        <time>2020-05-31T07:48:59Z</time>
      </trkpt>
      <trkpt lat="46.4149" lon="-0.20144">
        <ele>62.3</ele>
        <time>2020-05-31T07:49:00Z</time>
      </trkpt>
      <trkpt lat="46.4149" lon="-0.20144">
        <ele>62.3</ele>
        <time>2020-05-31T07:49:01Z</time>
      </trkpt>
      <trkpt lat="46.4149" lon="-0.20144">
        <ele>62.3</ele>
        <time>2020-05-31T07:49:02Z</time>
      </trkpt>
      <trkpt lat="46.4149" lon="-0.20144">
        <ele>62.3</ele>
        <time>2020-05-31T07:49:03Z</time>
      </trkpt>
      <trkpt lat="46.4149" lon="-0.20145">
        <ele>62.3</ele>
        <time>2020-05-31T07:49:04Z</time>
      </trkpt>
      <trkpt lat="46.4149" lon="-0.20145">
        <ele>62.3</ele>
        <time>2020-05-31T07:49:05Z</time>
      </trkpt>
      <trkpt lat="46.41489" lon="-0.20146">
        <ele>62.3</ele>
        <time>2020-05-31T07:49:06Z</time>
      </trkpt>
      <trkpt lat="46.4149" lon="-0.20146">
        <ele>62.4</ele>
        <time>2020-05-31T07:49:07Z</time>
      </trkpt>
      <trkpt lat="46.4149" lon="-0.20146">
        <ele>62.4</ele>
        <time>2020-05-31T07:49:08Z</time>
      </trkpt>
      <trkpt lat="46.4149" lon="-0.20146">
        <ele>62.4</ele>
        <time>2020-05-31T07:49:09Z</time>
      </trkpt>
      <trkpt lat="46.41491" lon="-0.20146">
        <ele>62.4</ele>
        <time>2020-05-31T07:49:10Z</time>
      </trkpt>
      <trkpt lat="46.41491" lon="-0.20146">
        <ele>62.4</ele>
        <time>2020-05-31T07:49:11Z</time>
      </trkpt>
      <trkpt lat="46.41491" lon="-0.20145">
        <ele>62.4</ele>
        <time>2020-05-31T07:49:12Z</time>
      </trkpt>
      <trkpt lat="46.41491" lon="-0.20144">
        <ele>62.4</ele>
        <time>2020-05-31T07:49:13Z</time>
      </trkpt>
      <trkpt lat="46.41491" lon="-0.20143">
        <ele>62.4</ele>
        <time>2020-05-31T07:49:14Z</time>
      </trkpt>
      <trkpt lat="46.41491" lon="-0.20144">
        <ele>62.4</ele>
        <time>2020-05-31T07:49:15Z</time>
      </trkpt>
      <trkpt lat="46.41468" lon="-0.20157">
        <ele>62.9</ele>
        <time>2020-05-31T07:57:30Z</time>
      </trkpt>
      <trkpt lat="46.41468" lon="-0.2016">
        <ele>62.9</ele>
        <time>2020-05-31T07:57:31Z</time>
      </trkpt>
      <trkpt lat="46.41466" lon="-0.20166">
        <ele>63</ele>
        <time>2020-05-31T07:57:32Z</time>
      </trkpt>
      <trkpt lat="46.4146" lon="-0.20169">
        <ele>63.2</ele>
        <time>2020-05-31T07:57:33Z</time>
      </trkpt>
      <trkpt lat="46.41458" lon="-0.20175">
        <ele>63.2</ele>
        <time>2020-05-31T07:57:34Z</time>
      </trkpt>
      <trkpt lat="46.41458" lon="-0.20179">
        <ele>63.3</ele>
        <time>2020-05-31T07:57:35Z</time>
      </trkpt>
      <trkpt lat="46.41456" lon="-0.20185">
        <ele>63.4</ele>
        <time>2020-05-31T07:57:36Z</time>
      </trkpt>
      <trkpt lat="46.41454" lon="-0.20188">
        <ele>63.4</ele>
        <time>2020-05-31T07:57:37Z</time>
      </trkpt>
      <trkpt lat="46.41452" lon="-0.20193">
        <ele>63.5</ele>
        <time>2020-05-31T07:57:38Z</time>
      </trkpt>
      <trkpt lat="46.4145" lon="-0.20198">
        <ele>63.6</ele>
        <time>2020-05-31T07:57:39Z</time>
      </trkpt>
      <trkpt lat="46.41447" lon="-0.20202">
        <ele>63.7</ele>
        <time>2020-05-31T07:57:40Z</time>
      </trkpt>
      <trkpt lat="46.41445" lon="-0.20207">
        <ele>63.8</ele>
        <time>2020-05-31T07:57:41Z</time>
      </trkpt>
      <trkpt lat="46.41443" lon="-0.20212">
        <ele>63.9</ele>
        <time>2020-05-31T07:57:42Z</time>
      </trkpt>
      <trkpt lat="46.41441" lon="-0.20217">
        <ele>64</ele>
        <time>2020-05-31T07:57:43Z</time>
      </trkpt>
      <trkpt lat="46.4144" lon="-0.20221">
        <ele>64.1</ele>
        <time>2020-05-31T07:57:44Z</time>
      </trkpt>
      <trkpt lat="46.41437" lon="-0.20226">
        <ele>64.2</ele>
        <time>2020-05-31T07:57:45Z</time>
      </trkpt>
      <trkpt lat="46.41436" lon="-0.20233">
        <ele>64.3</ele>
        <time>2020-05-31T07:57:46Z</time>
      </trkpt>
      <trkpt lat="46.41436" lon="-0.20239">
        <ele>64.4</ele>
        <time>2020-05-31T07:57:47Z</time>
      </trkpt>
      <trkpt lat="46.41434" lon="-0.20245">
        <ele>64.5</ele>
        <time>2020-05-31T07:57:48Z</time>
      </trkpt>
      <trkpt lat="46.41432" lon="-0.20249">
        <ele>64.6</ele>
        <time>2020-05-31T07:57:49Z</time>
      </trkpt>
      <trkpt lat="46.4143" lon="-0.20256">
        <ele>64.7</ele>
        <time>2020-05-31T07:57:50Z</time>
      </trkpt>
      <trkpt lat="46.41429" lon="-0.20263">
        <ele>64.8</ele>
        <time>2020-05-31T07:57:51Z</time>
      </trkpt>
      <trkpt lat="46.41428" lon="-0.20269">
        <ele>64.8</ele>
        <time>2020-05-31T07:57:52Z</time>
      </trkpt>
      <trkpt lat="46.41426" lon="-0.20276">
        <ele>64.9</ele>
        <time>2020-05-31T07:57:53Z</time>
      </trkpt>
      <trkpt lat="46.41423" lon="-0.20281">
        <ele>64.9</ele>
        <time>2020-05-31T07:57:54Z</time>
      </trkpt>
      <trkpt lat="46.4142" lon="-0.20288">
        <ele>65.1</ele>
        <time>2020-05-31T07:57:55Z</time>
      </trkpt>
      <trkpt lat="46.41417" lon="-0.20293">
        <ele>65.2</ele>
        <time>2020-05-31T07:57:56Z</time>
      </trkpt>
      <trkpt lat="46.41415" lon="-0.20299">
        <ele>65.3</ele>
        <time>2020-05-31T07:57:57Z</time>
      </trkpt>
      <trkpt lat="46.41413" lon="-0.20305">
        <ele>65.4</ele>
        <time>2020-05-31T07:57:58Z</time>
      </trkpt>
      <trkpt lat="46.4141" lon="-0.20311">
        <ele>65.6</ele>
        <time>2020-05-31T07:57:59Z</time>
      </trkpt>
      <trkpt lat="46.41408" lon="-0.20316">
        <ele>65.8</ele>
        <time>2020-05-31T07:58:00Z</time>
      </trkpt>
      <trkpt lat="46.41407" lon="-0.20322">
        <ele>65.9</ele>
        <time>2020-05-31T07:58:01Z</time>
      </trkpt>
      <trkpt lat="46.41404" lon="-0.20329">
        <ele>66.1</ele>
        <time>2020-05-31T07:58:02Z</time>
      </trkpt>
      <trkpt lat="46.41402" lon="-0.20335">
        <ele>66.2</ele>
        <time>2020-05-31T07:58:03Z</time>
      </trkpt>
      <trkpt lat="46.414" lon="-0.20341">
        <ele>66.4</ele>
        <time>2020-05-31T07:58:04Z</time>
      </trkpt>
      <trkpt lat="46.41398" lon="-0.20348">
        <ele>66.5</ele>
        <time>2020-05-31T07:58:05Z</time>
      </trkpt>
      <trkpt lat="46.41396" lon="-0.20354">
        <ele>66.6</ele>
        <time>2020-05-31T07:58:06Z</time>
      </trkpt>
      <trkpt lat="46.41394" lon="-0.2036">
        <ele>66.8</ele>
        <time>2020-05-31T07:58:07Z</time>
      </trkpt>
      <trkpt lat="46.41392" lon="-0.20366">
        <ele>66.9</ele>
        <time>2020-05-31T07:58:08Z</time>
      </trkpt>
      <trkpt lat="46.4139" lon="-0.20373">
        <ele>67</ele>
        <time>2020-05-31T07:58:09Z</time>
      </trkpt>
      <trkpt lat="46.41389" lon="-0.2038">
        <ele>67.1</ele>
        <time>2020-05-31T07:58:10Z</time>
      </trkpt>
      <trkpt lat="46.41387" lon="-0.20386">
        <ele>67.3</ele>
        <time>2020-05-31T07:58:11Z</time>
      </trkpt>
      <trkpt lat="46.41385" lon="-0.20391">
        <ele>67.4</ele>
        <time>2020-05-31T07:58:12Z</time>
      </trkpt>
      <trkpt lat="46.41383" lon="-0.20397">
        <ele>67.6</ele>
        <time>2020-05-31T07:58:13Z</time>
      </trkpt>
      <trkpt lat="46.41381" lon="-0.20403">
        <ele>67.8</ele>
        <time>2020-05-31T07:58:14Z</time>
      </trkpt>
      <trkpt lat="46.4138" lon="-0.2041">
        <ele>68</ele>
        <time>2020-05-31T07:58:15Z</time>
      </trkpt>
      <trkpt lat="46.41377" lon="-0.20417">
        <ele>68.2</ele>
        <time>2020-05-31T07:58:16Z</time>
      </trkpt>
      <trkpt lat="46.41376" lon="-0.20423">
        <ele>68.4</ele>
        <time>2020-05-31T07:58:17Z</time>
      </trkpt>
      <trkpt lat="46.41374" lon="-0.20429">
        <ele>68.6</ele>
        <time>2020-05-31T07:58:18Z</time>
      </trkpt>
      <trkpt lat="46.41371" lon="-0.20435">
        <ele>68.8</ele>
        <time>2020-05-31T07:58:19Z</time>
      </trkpt>
      <trkpt lat="46.4137" lon="-0.20441">
        <ele>68.9</ele>
        <time>2020-05-31T07:58:20Z</time>
      </trkpt>
      <trkpt lat="46.41368" lon="-0.20447">
        <ele>69.1</ele>
        <time>2020-05-31T07:58:21Z</time>
      </trkpt>
      <trkpt lat="46.41367" lon="-0.20453">
        <ele>69.2</ele>
        <time>2020-05-31T07:58:22Z</time>
      </trkpt>
      <trkpt lat="46.41365" lon="-0.2046">
        <ele>69.4</ele>
        <time>2020-05-31T07:58:23Z</time>
      </trkpt>
      <trkpt lat="46.41363" lon="-0.20466">
        <ele>69.5</ele>
        <time>2020-05-31T07:58:24Z</time>
      </trkpt>
      <trkpt lat="46.41361" lon="-0.20472">
        <ele>69.6</ele>
        <time>2020-05-31T07:58:25Z</time>
      </trkpt>
      <trkpt lat="46.4136" lon="-0.20479">
        <ele>69.7</ele>
        <time>2020-05-31T07:58:26Z</time>
      </trkpt>
      <trkpt lat="46.41358" lon="-0.20485">
        <ele>69.8</ele>
        <time>2020-05-31T07:58:27Z</time>
      </trkpt>
      <trkpt lat="46.41356" lon="-0.20491">
        <ele>70</ele>
        <time>2020-05-31T07:58:28Z</time>
      </trkpt>
      <trkpt lat="46.41354" lon="-0.20497">
        <ele>70.1</ele>
        <time>2020-05-31T07:58:29Z</time>
      </trkpt>
      <trkpt lat="46.41352" lon="-0.20503">
        <ele>70.2</ele>
        <time>2020-05-31T07:58:30Z</time>
      </trkpt>
      <trkpt lat="46.4135" lon="-0.20509">
        <ele>70.4</ele>
        <time>2020-05-31T07:58:31Z</time>
      </trkpt>
      <trkpt lat="46.41348" lon="-0.20515">
        <ele>70.5</ele>
        <time>2020-05-31T07:58:32Z</time>
      </trkpt>
      <trkpt lat="46.41347" lon="-0.20521">
        <ele>70.7</ele>
        <time>2020-05-31T07:58:33Z</time>
      </trkpt>
      <trkpt lat="46.41345" lon="-0.20527">
        <ele>70.9</ele>
        <time>2020-05-31T07:58:34Z</time>
      </trkpt>
      <trkpt lat="46.41343" lon="-0.20534">
        <ele>71.1</ele>
        <time>2020-05-31T07:58:35Z</time>
      </trkpt>
      <trkpt lat="46.41342" lon="-0.2054">
        <ele>71.2</ele>
        <time>2020-05-31T07:58:36Z</time>
      </trkpt>
      <trkpt lat="46.4134" lon="-0.20547">
        <ele>71.4</ele>
        <time>2020-05-31T07:58:37Z</time>
      </trkpt>
      <trkpt lat="46.41338" lon="-0.20553">
        <ele>71.5</ele>
        <time>2020-05-31T07:58:38Z</time>
      </trkpt>
      <trkpt lat="46.41336" lon="-0.2056">
        <ele>71.6</ele>
        <time>2020-05-31T07:58:39Z</time>
      </trkpt>
      <trkpt lat="46.41334" lon="-0.20565">
        <ele>71.7</ele>
        <time>2020-05-31T07:58:40Z</time>
      </trkpt>
      <trkpt lat="46.41332" lon="-0.20571">
        <ele>71.9</ele>
        <time>2020-05-31T07:58:41Z</time>
      </trkpt>
      <trkpt lat="46.41329" lon="-0.20576">
        <ele>72.1</ele>
        <time>2020-05-31T07:58:42Z</time>
      </trkpt>
      <trkpt lat="46.41328" lon="-0.20581">
        <ele>72.3</ele>
        <time>2020-05-31T07:58:43Z</time>
      </trkpt>
      <trkpt lat="46.41325" lon="-0.20587">
        <ele>72.5</ele>
        <time>2020-05-31T07:58:44Z</time>
      </trkpt>
      <trkpt lat="46.41323" lon="-0.20593">
        <ele>72.7</ele>
        <time>2020-05-31T07:58:45Z</time>
      </trkpt>
      <trkpt lat="46.41321" lon="-0.20599">
        <ele>72.9</ele>
        <time>2020-05-31T07:58:46Z</time>
      </trkpt>
      <trkpt lat="46.41319" lon="-0.20604">
        <ele>73.1</ele>
        <time>2020-05-31T07:58:47Z</time>
      </trkpt>
      <trkpt lat="46.41316" lon="-0.20609">
        <ele>73.3</ele>
        <time>2020-05-31T07:58:48Z</time>
      </trkpt>
      <trkpt lat="46.41315" lon="-0.20615">
        <ele>73.5</ele>
        <time>2020-05-31T07:58:49Z</time>
      </trkpt>
      <trkpt lat="46.41313" lon="-0.2062">
        <ele>73.7</ele>
        <time>2020-05-31T07:58:50Z</time>
      </trkpt>
      <trkpt lat="46.41312" lon="-0.20626">
        <ele>73.8</ele>
        <time>2020-05-31T07:58:51Z</time>
      </trkpt>
      <trkpt lat="46.4131" lon="-0.20632">
        <ele>74</ele>
        <time>2020-05-31T07:58:52Z</time>
      </trkpt>
      <trkpt lat="46.41308" lon="-0.20637">
        <ele>74.1</ele>
        <time>2020-05-31T07:58:53Z</time>
      </trkpt>
      <trkpt lat="46.41306" lon="-0.20643">
        <ele>74.3</ele>
        <time>2020-05-31T07:58:54Z</time>
      </trkpt>
      <trkpt lat="46.41305" lon="-0.2065">
        <ele>74.6</ele>
        <time>2020-05-31T07:58:55Z</time>
      </trkpt>
      <trkpt lat="46.41303" lon="-0.20656">
        <ele>74.8</ele>
        <time>2020-05-31T07:58:56Z</time>
      </trkpt>
      <trkpt lat="46.41301" lon="-0.20663">
        <ele>75</ele>
        <time>2020-05-31T07:58:57Z</time>
      </trkpt>
      <trkpt lat="46.41298" lon="-0.20668">
        <ele>75.2</ele>
        <time>2020-05-31T07:58:58Z</time>
      </trkpt>
      <trkpt lat="46.41297" lon="-0.20674">
        <ele>75.3</ele>
        <time>2020-05-31T07:58:59Z</time>
      </trkpt>
      <trkpt lat="46.41296" lon="-0.2068">
        <ele>75.5</ele>
        <time>2020-05-31T07:59:00Z</time>
      </trkpt>
      <trkpt lat="46.41293" lon="-0.20686">
        <ele>75.6</ele>
        <time>2020-05-31T07:59:01Z</time>
      </trkpt>
      <trkpt lat="46.41291" lon="-0.20692">
        <ele>75.8</ele>
        <time>2020-05-31T07:59:02Z</time>
      </trkpt>
      <trkpt lat="46.41289" lon="-0.20698">
        <ele>76</ele>
        <time>2020-05-31T07:59:03Z</time>
      </trkpt>
      <trkpt lat="46.41288" lon="-0.20704">
        <ele>76.1</ele>
        <time>2020-05-31T07:59:04Z</time>
      </trkpt>
      <trkpt lat="46.41286" lon="-0.20709">
        <ele>76.3</ele>
        <time>2020-05-31T07:59:05Z</time>
      </trkpt>
      <trkpt lat="46.41285" lon="-0.20714">
        <ele>76.5</ele>
        <time>2020-05-31T07:59:06Z</time>
      </trkpt>
      <trkpt lat="46.41283" lon="-0.20719">
        <ele>76.7</ele>
        <time>2020-05-31T07:59:07Z</time>
      </trkpt>
      <trkpt lat="46.41282" lon="-0.20724">
        <ele>76.9</ele>
        <time>2020-05-31T07:59:08Z</time>
      </trkpt>
      <trkpt lat="46.4128" lon="-0.2073">
        <ele>77.2</ele>
        <time>2020-05-31T07:59:09Z</time>
      </trkpt>
      <trkpt lat="46.41278" lon="-0.20737">
        <ele>77.5</ele>
        <time>2020-05-31T07:59:10Z</time>
      </trkpt>
      <trkpt lat="46.41277" lon="-0.20743">
        <ele>77.7</ele>
        <time>2020-05-31T07:59:11Z</time>
      </trkpt>
      <trkpt lat="46.41275" lon="-0.20748">
        <ele>77.9</ele>
        <time>2020-05-31T07:59:12Z</time>
      </trkpt>
      <trkpt lat="46.41274" lon="-0.20754">
        <ele>78.1</ele>
        <time>2020-05-31T07:59:13Z</time>
      </trkpt>
      <trkpt lat="46.41273" lon="-0.20759">
        <ele>78.3</ele>
        <time>2020-05-31T07:59:14Z</time>
      </trkpt>
      <trkpt lat="46.41272" lon="-0.20764">
        <ele>78.5</ele>
        <time>2020-05-31T07:59:15Z</time>
      </trkpt>
      <trkpt lat="46.4127" lon="-0.2077">
        <ele>78.6</ele>
        <time>2020-05-31T07:59:16Z</time>
      </trkpt>
      <trkpt lat="46.41269" lon="-0.20776">
        <ele>78.7</ele>
        <time>2020-05-31T07:59:17Z</time>
      </trkpt>
      <trkpt lat="46.41267" lon="-0.2078">
        <ele>78.8</ele>
        <time>2020-05-31T07:59:18Z</time>
      </trkpt>
      <trkpt lat="46.41266" lon="-0.20785">
        <ele>78.9</ele>
        <time>2020-05-31T07:59:19Z</time>
      </trkpt>
      <trkpt lat="46.41264" lon="-0.20791">
        <ele>79</ele>
        <time>2020-05-31T07:59:20Z</time>
      </trkpt>
      <trkpt lat="46.41263" lon="-0.20797">
        <ele>79.1</ele>
        <time>2020-05-31T07:59:21Z</time>
      </trkpt>
      <trkpt lat="46.41261" lon="-0.20803">
        <ele>79.2</ele>
        <time>2020-05-31T07:59:22Z</time>
      </trkpt>
      <trkpt lat="46.41259" lon="-0.20809">
        <ele>79.2</ele>
        <time>2020-05-31T07:59:23Z</time>
      </trkpt>
      <trkpt lat="46.41257" lon="-0.20814">
        <ele>79.3</ele>
        <time>2020-05-31T07:59:24Z</time>
      </trkpt>
      <trkpt lat="46.41255" lon="-0.2082">
        <ele>79.3</ele>
        <time>2020-05-31T07:59:25Z</time>
      </trkpt>
      <trkpt lat="46.41254" lon="-0.20825">
        <ele>79.3</ele>
        <time>2020-05-31T07:59:26Z</time>
      </trkpt>
      <trkpt lat="46.41252" lon="-0.2083">
        <ele>79.5</ele>
        <time>2020-05-31T07:59:27Z</time>
      </trkpt>
      <trkpt lat="46.41251" lon="-0.20835">
        <ele>79.7</ele>
        <time>2020-05-31T07:59:28Z</time>
      </trkpt>
      <trkpt lat="46.41249" lon="-0.20839">
        <ele>79.9</ele>
        <time>2020-05-31T07:59:29Z</time>
      </trkpt>
      <trkpt lat="46.41248" lon="-0.20845">
        <ele>80.1</ele>
        <time>2020-05-31T07:59:30Z</time>
      </trkpt>
      <trkpt lat="46.41247" lon="-0.2085">
        <ele>80.2</ele>
        <time>2020-05-31T07:59:31Z</time>
      </trkpt>
      <trkpt lat="46.41245" lon="-0.20855">
        <ele>80.4</ele>
        <time>2020-05-31T07:59:32Z</time>
      </trkpt>
      <trkpt lat="46.41243" lon="-0.2086">
        <ele>80.6</ele>
        <time>2020-05-31T07:59:33Z</time>
      </trkpt>
      <trkpt lat="46.41242" lon="-0.20865">
        <ele>80.8</ele>
        <time>2020-05-31T07:59:34Z</time>
      </trkpt>
      <trkpt lat="46.4124" lon="-0.2087">
        <ele>81</ele>
        <time>2020-05-31T07:59:35Z</time>
      </trkpt>
      <trkpt lat="46.41239" lon="-0.20875">
        <ele>81.2</ele>
        <time>2020-05-31T07:59:36Z</time>
      </trkpt>
      <trkpt lat="46.41238" lon="-0.2088">
        <ele>81.5</ele>
        <time>2020-05-31T07:59:37Z</time>
      </trkpt>
      <trkpt lat="46.41237" lon="-0.20886">
        <ele>81.7</ele>
        <time>2020-05-31T07:59:38Z</time>
      </trkpt>
      <trkpt lat="46.41236" lon="-0.20891">
        <ele>81.9</ele>
        <time>2020-05-31T07:59:39Z</time>
      </trkpt>
      <trkpt lat="46.41235" lon="-0.20896">
        <ele>82.1</ele>
        <time>2020-05-31T07:59:40Z</time>
      </trkpt>
      <trkpt lat="46.41233" lon="-0.20901">
        <ele>82.4</ele>
        <time>2020-05-31T07:59:41Z</time>
      </trkpt>
      <trkpt lat="46.41232" lon="-0.20906">
        <ele>82.6</ele>
        <time>2020-05-31T07:59:42Z</time>
      </trkpt>
      <trkpt lat="46.41231" lon="-0.20911">
        <ele>82.8</ele>
        <time>2020-05-31T07:59:43Z</time>
      </trkpt>
      <trkpt lat="46.41229" lon="-0.20916">
        <ele>82.9</ele>
        <time>2020-05-31T07:59:44Z</time>
      </trkpt>
      <trkpt lat="46.41228" lon="-0.20922">
        <ele>83.1</ele>
        <time>2020-05-31T07:59:45Z</time>
      </trkpt>
      <trkpt lat="46.41227" lon="-0.20927">
        <ele>83.3</ele>
        <time>2020-05-31T07:59:46Z</time>
      </trkpt>
      <trkpt lat="46.41225" lon="-0.20932">
        <ele>83.5</ele>
        <time>2020-05-31T07:59:47Z</time>
      </trkpt>
      <trkpt lat="46.41223" lon="-0.20938">
        <ele>83.6</ele>
        <time>2020-05-31T07:59:48Z</time>
      </trkpt>
      <trkpt lat="46.41221" lon="-0.20943">
        <ele>83.7</ele>
        <time>2020-05-31T07:59:49Z</time>
      </trkpt>
      <trkpt lat="46.4122" lon="-0.20948">
        <ele>83.8</ele>
        <time>2020-05-31T07:59:50Z</time>
      </trkpt>
      <trkpt lat="46.41218" lon="-0.20953">
        <ele>84.1</ele>
        <time>2020-05-31T07:59:51Z</time>
      </trkpt>
      <trkpt lat="46.41216" lon="-0.20958">
        <ele>84.2</ele>
        <time>2020-05-31T07:59:52Z</time>
      </trkpt>
      <trkpt lat="46.41214" lon="-0.20963">
        <ele>84.4</ele>
        <time>2020-05-31T07:59:53Z</time>
      </trkpt>
      <trkpt lat="46.41213" lon="-0.20967">
        <ele>84.6</ele>
        <time>2020-05-31T07:59:54Z</time>
      </trkpt>
      <trkpt lat="46.41212" lon="-0.20972">
        <ele>84.7</ele>
        <time>2020-05-31T07:59:55Z</time>
      </trkpt>
      <trkpt lat="46.41211" lon="-0.20977">
        <ele>84.9</ele>
        <time>2020-05-31T07:59:56Z</time>
      </trkpt>
      <trkpt lat="46.4121" lon="-0.20982">
        <ele>85.1</ele>
        <time>2020-05-31T07:59:57Z</time>
      </trkpt>
      <trkpt lat="46.41209" lon="-0.20987">
        <ele>85.3</ele>
        <time>2020-05-31T07:59:58Z</time>
      </trkpt>
      <trkpt lat="46.41208" lon="-0.20991">
        <ele>85.5</ele>
        <time>2020-05-31T07:59:59Z</time>
      </trkpt>
      <trkpt lat="46.41206" lon="-0.20996">
        <ele>85.6</ele>
        <time>2020-05-31T08:00:00Z</time>
      </trkpt>
      <trkpt lat="46.41205" lon="-0.21">
        <ele>85.8</ele>
        <time>2020-05-31T08:00:01Z</time>
      </trkpt>
      <trkpt lat="46.41204" lon="-0.21005">
        <ele>86</ele>
        <time>2020-05-31T08:00:02Z</time>
      </trkpt>
      <trkpt lat="46.41202" lon="-0.21009">
        <ele>86.1</ele>
        <time>2020-05-31T08:00:03Z</time>
      </trkpt>
      <trkpt lat="46.41201" lon="-0.21014">
        <ele>86.3</ele>
        <time>2020-05-31T08:00:04Z</time>
      </trkpt>
      <trkpt lat="46.412" lon="-0.2102">
        <ele>86.4</ele>
        <time>2020-05-31T08:00:05Z</time>
      </trkpt>
      <trkpt lat="46.41199" lon="-0.21024">
        <ele>86.6</ele>
        <time>2020-05-31T08:00:06Z</time>
      </trkpt>
      <trkpt lat="46.41199" lon="-0.2103">
        <ele>86.7</ele>
        <time>2020-05-31T08:00:07Z</time>
      </trkpt>
      <trkpt lat="46.41198" lon="-0.21034">
        <ele>86.8</ele>
        <time>2020-05-31T08:00:08Z</time>
      </trkpt>
      <trkpt lat="46.41196" lon="-0.21038">
        <ele>86.9</ele>
        <time>2020-05-31T08:00:09Z</time>
      </trkpt>
      <trkpt lat="46.41195" lon="-0.21043">
        <ele>86.9</ele>
        <time>2020-05-31T08:00:10Z</time>
      </trkpt>
      <trkpt lat="46.41193" lon="-0.21047">
        <ele>87</ele>
        <time>2020-05-31T08:00:11Z</time>
      </trkpt>
      <trkpt lat="46.41191" lon="-0.21052">
        <ele>87.1</ele>
        <time>2020-05-31T08:00:12Z</time>
      </trkpt>
      <trkpt lat="46.41189" lon="-0.21056">
        <ele>87.2</ele>
        <time>2020-05-31T08:00:13Z</time>
      </trkpt>
      <trkpt lat="46.41188" lon="-0.2106">
        <ele>87.3</ele>
        <time>2020-05-31T08:00:14Z</time>
      </trkpt>
      <trkpt lat="46.41186" lon="-0.21065">
        <ele>87.5</ele>
        <time>2020-05-31T08:00:15Z</time>
      </trkpt>
      <trkpt lat="46.41185" lon="-0.21069">
        <ele>87.6</ele>
        <time>2020-05-31T08:00:16Z</time>
      </trkpt>
      <trkpt lat="46.41183" lon="-0.21073">
        <ele>87.7</ele>
        <time>2020-05-31T08:00:17Z</time>
      </trkpt>
      <trkpt lat="46.41182" lon="-0.21077">
        <ele>87.8</ele>
        <time>2020-05-31T08:00:18Z</time>
      </trkpt>
      <trkpt lat="46.4118" lon="-0.21082">
        <ele>88</ele>
        <time>2020-05-31T08:00:19Z</time>
      </trkpt>
      <trkpt lat="46.4118" lon="-0.21086">
        <ele>88.1</ele>
        <time>2020-05-31T08:00:20Z</time>
      </trkpt>
      <trkpt lat="46.41178" lon="-0.21091">
        <ele>88.3</ele>
        <time>2020-05-31T08:00:21Z</time>
      </trkpt>
      <trkpt lat="46.41176" lon="-0.21096">
        <ele>88.4</ele>
        <time>2020-05-31T08:00:22Z</time>
      </trkpt>
      <trkpt lat="46.41175" lon="-0.211">
        <ele>88.6</ele>
        <time>2020-05-31T08:00:23Z</time>
      </trkpt>
      <trkpt lat="46.41174" lon="-0.21104">
        <ele>88.7</ele>
        <time>2020-05-31T08:00:24Z</time>
      </trkpt>
      <trkpt lat="46.41173" lon="-0.21108">
        <ele>88.8</ele>
        <time>2020-05-31T08:00:25Z</time>
      </trkpt>
      <trkpt lat="46.41171" lon="-0.21114">
        <ele>89</ele>
        <time>2020-05-31T08:00:26Z</time>
      </trkpt>
      <trkpt lat="46.41169" lon="-0.21119">
        <ele>89.2</ele>
        <time>2020-05-31T08:00:27Z</time>
      </trkpt>
      <trkpt lat="46.41168" lon="-0.21125">
        <ele>89.4</ele>
        <time>2020-05-31T08:00:28Z</time>
      </trkpt>
      <trkpt lat="46.41167" lon="-0.21131">
        <ele>89.6</ele>
        <time>2020-05-31T08:00:29Z</time>
      </trkpt>
      <trkpt lat="46.41165" lon="-0.21137">
        <ele>89.8</ele>
        <time>2020-05-31T08:00:30Z</time>
      </trkpt>
      <trkpt lat="46.41164" lon="-0.21143">
        <ele>90</ele>
        <time>2020-05-31T08:00:31Z</time>
      </trkpt>
      <trkpt lat="46.41162" lon="-0.21149">
        <ele>90.2</ele>
        <time>2020-05-31T08:00:32Z</time>
      </trkpt>
      <trkpt lat="46.4116" lon="-0.21155">
        <ele>90.4</ele>
        <time>2020-05-31T08:00:33Z</time>
      </trkpt>
      <trkpt lat="46.41159" lon="-0.21161">
        <ele>90.6</ele>
        <time>2020-05-31T08:00:34Z</time>
      </trkpt>
      <trkpt lat="46.41157" lon="-0.21168">
        <ele>90.9</ele>
        <time>2020-05-31T08:00:35Z</time>
      </trkpt>
      <trkpt lat="46.41156" lon="-0.21175">
        <ele>91.1</ele>
        <time>2020-05-31T08:00:36Z</time>
      </trkpt>
      <trkpt lat="46.41153" lon="-0.21183">
        <ele>91.4</ele>
        <time>2020-05-31T08:00:37Z</time>
      </trkpt>
      <trkpt lat="46.41151" lon="-0.2119">
        <ele>91.6</ele>
        <time>2020-05-31T08:00:38Z</time>
      </trkpt>
      <trkpt lat="46.4115" lon="-0.21196">
        <ele>91.9</ele>
        <time>2020-05-31T08:00:39Z</time>
      </trkpt>
      <trkpt lat="46.41148" lon="-0.21203">
        <ele>92.1</ele>
        <time>2020-05-31T08:00:40Z</time>
      </trkpt>
      <trkpt lat="46.41146" lon="-0.21209">
        <ele>92.3</ele>
        <time>2020-05-31T08:00:41Z</time>
      </trkpt>
      <trkpt lat="46.41143" lon="-0.21216">
        <ele>92.6</ele>
        <time>2020-05-31T08:00:42Z</time>
      </trkpt>
      <trkpt lat="46.41141" lon="-0.21222">
        <ele>92.8</ele>
        <time>2020-05-31T08:00:43Z</time>
      </trkpt>
      <trkpt lat="46.4114" lon="-0.21229">
        <ele>93</ele>
        <time>2020-05-31T08:00:44Z</time>
      </trkpt>
      <trkpt lat="46.41138" lon="-0.21236">
        <ele>93.2</ele>
        <time>2020-05-31T08:00:45Z</time>
      </trkpt>
      <trkpt lat="46.41136" lon="-0.21242">
        <ele>93.4</ele>
        <time>2020-05-31T08:00:46Z</time>
      </trkpt>
      <trkpt lat="46.41134" lon="-0.21249">
        <ele>93.7</ele>
        <time>2020-05-31T08:00:47Z</time>
      </trkpt>
      <trkpt lat="46.41133" lon="-0.21256">
        <ele>93.9</ele>
        <time>2020-05-31T08:00:48Z</time>
      </trkpt>
      <trkpt lat="46.41131" lon="-0.21262">
        <ele>94.1</ele>
        <time>2020-05-31T08:00:49Z</time>
      </trkpt>
      <trkpt lat="46.41129" lon="-0.21269">
        <ele>94.3</ele>
        <time>2020-05-31T08:00:50Z</time>
      </trkpt>
      <trkpt lat="46.41127" lon="-0.21276">
        <ele>94.5</ele>
        <time>2020-05-31T08:00:51Z</time>
      </trkpt>
      <trkpt lat="46.41125" lon="-0.21283">
        <ele>94.7</ele>
        <time>2020-05-31T08:00:52Z</time>
      </trkpt>
      <trkpt lat="46.41123" lon="-0.2129">
        <ele>94.8</ele>
        <time>2020-05-31T08:00:53Z</time>
      </trkpt>
      <trkpt lat="46.41121" lon="-0.21296">
        <ele>94.9</ele>
        <time>2020-05-31T08:00:54Z</time>
      </trkpt>
      <trkpt lat="46.4112" lon="-0.21304">
        <ele>94.9</ele>
        <time>2020-05-31T08:00:55Z</time>
      </trkpt>
      <trkpt lat="46.41118" lon="-0.21311">
        <ele>95</ele>
        <time>2020-05-31T08:00:56Z</time>
      </trkpt>
      <trkpt lat="46.41116" lon="-0.21318">
        <ele>95.4</ele>
        <time>2020-05-31T08:00:57Z</time>
      </trkpt>
      <trkpt lat="46.41114" lon="-0.21324">
        <ele>95.6</ele>
        <time>2020-05-31T08:00:58Z</time>
      </trkpt>
      <trkpt lat="46.41112" lon="-0.21331">
        <ele>95.8</ele>
        <time>2020-05-31T08:00:59Z</time>
      </trkpt>
      <trkpt lat="46.4111" lon="-0.21339">
        <ele>96.1</ele>
        <time>2020-05-31T08:01:00Z</time>
      </trkpt>
      <trkpt lat="46.41108" lon="-0.21345">
        <ele>96.4</ele>
        <time>2020-05-31T08:01:01Z</time>
      </trkpt>
      <trkpt lat="46.41107" lon="-0.21352">
        <ele>96.6</ele>
        <time>2020-05-31T08:01:02Z</time>
      </trkpt>
      <trkpt lat="46.41105" lon="-0.21359">
        <ele>96.9</ele>
        <time>2020-05-31T08:01:03Z</time>
      </trkpt>
      <trkpt lat="46.41103" lon="-0.21364">
        <ele>97.1</ele>
        <time>2020-05-31T08:01:04Z</time>
      </trkpt>
      <trkpt lat="46.41101" lon="-0.21372">
        <ele>97.4</ele>
        <time>2020-05-31T08:01:05Z</time>
      </trkpt>
      <trkpt lat="46.41099" lon="-0.21379">
        <ele>97.6</ele>
        <time>2020-05-31T08:01:06Z</time>
      </trkpt>
      <trkpt lat="46.41096" lon="-0.21387">
        <ele>97.9</ele>
        <time>2020-05-31T08:01:07Z</time>
      </trkpt>
      <trkpt lat="46.41095" lon="-0.21393">
        <ele>98.2</ele>
        <time>2020-05-31T08:01:08Z</time>
      </trkpt>
      <trkpt lat="46.41093" lon="-0.21399">
        <ele>98.4</ele>
        <time>2020-05-31T08:01:09Z</time>
      </trkpt>
      <trkpt lat="46.41092" lon="-0.21405">
        <ele>98.6</ele>
        <time>2020-05-31T08:01:10Z</time>
      </trkpt>
      <trkpt lat="46.4109" lon="-0.21411">
        <ele>98.8</ele>
        <time>2020-05-31T08:01:11Z</time>
      </trkpt>
      <trkpt lat="46.41089" lon="-0.21417">
        <ele>99</ele>
        <time>2020-05-31T08:01:12Z</time>
      </trkpt>
      <trkpt lat="46.41087" lon="-0.21423">
        <ele>99.2</ele>
        <time>2020-05-31T08:01:13Z</time>
      </trkpt>
      <trkpt lat="46.41086" lon="-0.21429">
        <ele>99.3</ele>
        <time>2020-05-31T08:01:14Z</time>
      </trkpt>
      <trkpt lat="46.41084" lon="-0.21436">
        <ele>99.5</ele>
        <time>2020-05-31T08:01:15Z</time>
      </trkpt>
      <trkpt lat="46.41082" lon="-0.21443">
        <ele>99.8</ele>
        <time>2020-05-31T08:01:16Z</time>
      </trkpt>
      <trkpt lat="46.41081" lon="-0.21449">
        <ele>99.9</ele>
        <time>2020-05-31T08:01:17Z</time>
      </trkpt>
      <trkpt lat="46.41078" lon="-0.21455">
        <ele>100.1</ele>
        <time>2020-05-31T08:01:18Z</time>
      </trkpt>
      <trkpt lat="46.41075" lon="-0.21461">
        <ele>100.2</ele>
        <time>2020-05-31T08:01:19Z</time>
      </trkpt>
      <trkpt lat="46.41072" lon="-0.21467">
        <ele>100.4</ele>
        <time>2020-05-31T08:01:20Z</time>
      </trkpt>
      <trkpt lat="46.41069" lon="-0.21473">
        <ele>100.5</ele>
        <time>2020-05-31T08:01:21Z</time>
      </trkpt>
      <trkpt lat="46.41065" lon="-0.2148">
        <ele>100.7</ele>
        <time>2020-05-31T08:01:22Z</time>
      </trkpt>
      <trkpt lat="46.41062" lon="-0.21488">
        <ele>100.9</ele>
        <time>2020-05-31T08:01:23Z</time>
      </trkpt>
      <trkpt lat="46.41059" lon="-0.21494">
        <ele>101</ele>
        <time>2020-05-31T08:01:24Z</time>
      </trkpt>
      <trkpt lat="46.41056" lon="-0.21502">
        <ele>101</ele>
        <time>2020-05-31T08:01:25Z</time>
      </trkpt>
      <trkpt lat="46.41052" lon="-0.2151">
        <ele>101.1</ele>
        <time>2020-05-31T08:01:26Z</time>
      </trkpt>
      <trkpt lat="46.41049" lon="-0.21518">
        <ele>101.2</ele>
        <time>2020-05-31T08:01:27Z</time>
      </trkpt>
      <trkpt lat="46.41045" lon="-0.21526">
        <ele>101.3</ele>
        <time>2020-05-31T08:01:28Z</time>
      </trkpt>
      <trkpt lat="46.41042" lon="-0.21534">
        <ele>101.3</ele>
        <time>2020-05-31T08:01:29Z</time>
      </trkpt>
      <trkpt lat="46.41038" lon="-0.21543">
        <ele>101.4</ele>
        <time>2020-05-31T08:01:30Z</time>
      </trkpt>
      <trkpt lat="46.41034" lon="-0.21551">
        <ele>101.5</ele>
        <time>2020-05-31T08:01:31Z</time>
      </trkpt>
      <trkpt lat="46.41031" lon="-0.21558">
        <ele>101.5</ele>
        <time>2020-05-31T08:01:32Z</time>
      </trkpt>
      <trkpt lat="46.41029" lon="-0.21566">
        <ele>101.6</ele>
        <time>2020-05-31T08:01:33Z</time>
      </trkpt>
      <trkpt lat="46.41025" lon="-0.21574">
        <ele>101.6</ele>
        <time>2020-05-31T08:01:34Z</time>
      </trkpt>
      <trkpt lat="46.41021" lon="-0.21582">
        <ele>101.7</ele>
        <time>2020-05-31T08:01:35Z</time>
      </trkpt>
      <trkpt lat="46.41017" lon="-0.21591">
        <ele>101.7</ele>
        <time>2020-05-31T08:01:36Z</time>
      </trkpt>
      <trkpt lat="46.41014" lon="-0.21599">
        <ele>101.7</ele>
        <time>2020-05-31T08:01:37Z</time>
      </trkpt>
      <trkpt lat="46.41011" lon="-0.21607">
        <ele>101.7</ele>
        <time>2020-05-31T08:01:38Z</time>
      </trkpt>
      <trkpt lat="46.41007" lon="-0.21616">
        <ele>101.7</ele>
        <time>2020-05-31T08:01:39Z</time>
      </trkpt>
      <trkpt lat="46.41004" lon="-0.21624">
        <ele>101.7</ele>
        <time>2020-05-31T08:01:40Z</time>
      </trkpt>
      <trkpt lat="46.41" lon="-0.21633">
        <ele>101.7</ele>
        <time>2020-05-31T08:01:41Z</time>
      </trkpt>
      <trkpt lat="46.40997" lon="-0.21641">
        <ele>101.7</ele>
        <time>2020-05-31T08:01:42Z</time>
      </trkpt>
      <trkpt lat="46.40994" lon="-0.21648">
        <ele>101.7</ele>
        <time>2020-05-31T08:01:43Z</time>
      </trkpt>
      <trkpt lat="46.4099" lon="-0.21657">
        <ele>101.8</ele>
        <time>2020-05-31T08:01:44Z</time>
      </trkpt>
      <trkpt lat="46.40988" lon="-0.21666">
        <ele>101.9</ele>
        <time>2020-05-31T08:01:45Z</time>
      </trkpt>
      <trkpt lat="46.40984" lon="-0.21675">
        <ele>102</ele>
        <time>2020-05-31T08:01:46Z</time>
      </trkpt>
      <trkpt lat="46.40981" lon="-0.21684">
        <ele>102.2</ele>
        <time>2020-05-31T08:01:47Z</time>
      </trkpt>
      <trkpt lat="46.40978" lon="-0.21692">
        <ele>102.3</ele>
        <time>2020-05-31T08:01:48Z</time>
      </trkpt>
      <trkpt lat="46.40973" lon="-0.21701">
        <ele>102.5</ele>
        <time>2020-05-31T08:01:49Z</time>
      </trkpt>
      <trkpt lat="46.4097" lon="-0.21709">
        <ele>102.6</ele>
        <time>2020-05-31T08:01:50Z</time>
      </trkpt>
      <trkpt lat="46.40966" lon="-0.21718">
        <ele>102.8</ele>
        <time>2020-05-31T08:01:51Z</time>
      </trkpt>
      <trkpt lat="46.40961" lon="-0.21726">
        <ele>102.9</ele>
        <time>2020-05-31T08:01:52Z</time>
      </trkpt>
      <trkpt lat="46.40957" lon="-0.21733">
        <ele>103.1</ele>
        <time>2020-05-31T08:01:53Z</time>
      </trkpt>
      <trkpt lat="46.40954" lon="-0.21742">
        <ele>103.3</ele>
        <time>2020-05-31T08:01:54Z</time>
      </trkpt>
      <trkpt lat="46.4095" lon="-0.21751">
        <ele>103.5</ele>
        <time>2020-05-31T08:01:55Z</time>
      </trkpt>
      <trkpt lat="46.40947" lon="-0.2176">
        <ele>103.6</ele>
        <time>2020-05-31T08:01:56Z</time>
      </trkpt>
      <trkpt lat="46.40944" lon="-0.21769">
        <ele>103.9</ele>
        <time>2020-05-31T08:01:57Z</time>
      </trkpt>
      <trkpt lat="46.4094" lon="-0.21777">
        <ele>104.1</ele>
        <time>2020-05-31T08:01:58Z</time>
      </trkpt>
      <trkpt lat="46.40937" lon="-0.21786">
        <ele>104.4</ele>
        <time>2020-05-31T08:01:59Z</time>
      </trkpt>
      <trkpt lat="46.40933" lon="-0.21795">
        <ele>104.7</ele>
        <time>2020-05-31T08:02:00Z</time>
      </trkpt>
      <trkpt lat="46.4093" lon="-0.21803">
        <ele>105</ele>
        <time>2020-05-31T08:02:01Z</time>
      </trkpt>
      <trkpt lat="46.40927" lon="-0.21811">
        <ele>105.3</ele>
        <time>2020-05-31T08:02:02Z</time>
      </trkpt>
      <trkpt lat="46.40924" lon="-0.2182">
        <ele>105.6</ele>
        <time>2020-05-31T08:02:03Z</time>
      </trkpt>
      <trkpt lat="46.40921" lon="-0.21828">
        <ele>105.9</ele>
        <time>2020-05-31T08:02:04Z</time>
      </trkpt>
      <trkpt lat="46.40918" lon="-0.21836">
        <ele>106.2</ele>
        <time>2020-05-31T08:02:05Z</time>
      </trkpt>
      <trkpt lat="46.40914" lon="-0.21842">
        <ele>106.6</ele>
        <time>2020-05-31T08:02:06Z</time>
      </trkpt>
      <trkpt lat="46.40911" lon="-0.21849">
        <ele>106.9</ele>
        <time>2020-05-31T08:02:07Z</time>
      </trkpt>
      <trkpt lat="46.40908" lon="-0.21856">
        <ele>107.2</ele>
        <time>2020-05-31T08:02:08Z</time>
      </trkpt>
      <trkpt lat="46.40905" lon="-0.21862">
        <ele>107.5</ele>
        <time>2020-05-31T08:02:09Z</time>
      </trkpt>
      <trkpt lat="46.40902" lon="-0.21868">
        <ele>107.7</ele>
        <time>2020-05-31T08:02:10Z</time>
      </trkpt>
      <trkpt lat="46.40899" lon="-0.21875">
        <ele>108</ele>
        <time>2020-05-31T08:02:11Z</time>
      </trkpt>
      <trkpt lat="46.40896" lon="-0.21882">
        <ele>108.3</ele>
        <time>2020-05-31T08:02:12Z</time>
      </trkpt>
      <trkpt lat="46.40894" lon="-0.21889">
        <ele>108.6</ele>
        <time>2020-05-31T08:02:13Z</time>
      </trkpt>
      <trkpt lat="46.40891" lon="-0.21896">
        <ele>108.8</ele>
        <time>2020-05-31T08:02:14Z</time>
      </trkpt>
      <trkpt lat="46.40889" lon="-0.219">
        <ele>109</ele>
        <time>2020-05-31T08:02:15Z</time>
      </trkpt>
      <trkpt lat="46.40886" lon="-0.21906">
        <ele>109.3</ele>
        <time>2020-05-31T08:02:16Z</time>
      </trkpt>
      <trkpt lat="46.40881" lon="-0.21915">
        <ele>109.7</ele>
        <time>2020-05-31T08:02:17Z</time>
      </trkpt>
      <trkpt lat="46.40878" lon="-0.21921">
        <ele>110</ele>
        <time>2020-05-31T08:02:18Z</time>
      </trkpt>
      <trkpt lat="46.40876" lon="-0.21925">
        <ele>110.2</ele>
        <time>2020-05-31T08:02:19Z</time>
      </trkpt>
      <trkpt lat="46.40873" lon="-0.21931">
        <ele>110.4</ele>
        <time>2020-05-31T08:02:20Z</time>
      </trkpt>
      <trkpt lat="46.40871" lon="-0.21938">
        <ele>110.7</ele>
        <time>2020-05-31T08:02:21Z</time>
      </trkpt>
      <trkpt lat="46.40869" lon="-0.21942">
        <ele>110.9</ele>
        <time>2020-05-31T08:02:22Z</time>
      </trkpt>
      <trkpt lat="46.40867" lon="-0.21948">
        <ele>111.1</ele>
        <time>2020-05-31T08:02:23Z</time>
      </trkpt>
      <trkpt lat="46.40864" lon="-0.21954">
        <ele>111.3</ele>
        <time>2020-05-31T08:02:24Z</time>
      </trkpt>
      <trkpt lat="46.40862" lon="-0.21959">
        <ele>111.5</ele>
        <time>2020-05-31T08:02:25Z</time>
      </trkpt>
      <trkpt lat="46.4086" lon="-0.21964">
        <ele>111.6</ele>
        <time>2020-05-31T08:02:26Z</time>
      </trkpt>
      <trkpt lat="46.40858" lon="-0.2197">
        <ele>111.7</ele>
        <time>2020-05-31T08:02:27Z</time>
      </trkpt>
      <trkpt lat="46.40856" lon="-0.21976">
        <ele>111.8</ele>
        <time>2020-05-31T08:02:28Z</time>
      </trkpt>
      <trkpt lat="46.40854" lon="-0.21982">
        <ele>111.9</ele>
        <time>2020-05-31T08:02:29Z</time>
      </trkpt>
      <trkpt lat="46.40851" lon="-0.21989">
        <ele>112</ele>
        <time>2020-05-31T08:02:30Z</time>
      </trkpt>
      <trkpt lat="46.40847" lon="-0.21995">
        <ele>112.1</ele>
        <time>2020-05-31T08:02:31Z</time>
      </trkpt>
      <trkpt lat="46.40845" lon="-0.22001">
        <ele>112.2</ele>
        <time>2020-05-31T08:02:32Z</time>
      </trkpt>
      <trkpt lat="46.40842" lon="-0.22008">
        <ele>112.4</ele>
        <time>2020-05-31T08:02:33Z</time>
      </trkpt>
      <trkpt lat="46.4084" lon="-0.22014">
        <ele>112.6</ele>
        <time>2020-05-31T08:02:34Z</time>
      </trkpt>
      <trkpt lat="46.40838" lon="-0.22019">
        <ele>112.8</ele>
        <time>2020-05-31T08:02:35Z</time>
      </trkpt>
      <trkpt lat="46.40836" lon="-0.22024">
        <ele>112.9</ele>
        <time>2020-05-31T08:02:36Z</time>
      </trkpt>
      <trkpt lat="46.40834" lon="-0.22029">
        <ele>113.1</ele>
        <time>2020-05-31T08:02:37Z</time>
      </trkpt>
      <trkpt lat="46.40831" lon="-0.22034">
        <ele>113.1</ele>
        <time>2020-05-31T08:02:38Z</time>
      </trkpt>
      <trkpt lat="46.40829" lon="-0.22041">
        <ele>113.2</ele>
        <time>2020-05-31T08:02:39Z</time>
      </trkpt>
      <trkpt lat="46.40826" lon="-0.22048">
        <ele>113.2</ele>
        <time>2020-05-31T08:02:40Z</time>
      </trkpt>
      <trkpt lat="46.40823" lon="-0.22056">
        <ele>113.4</ele>
        <time>2020-05-31T08:02:41Z</time>
      </trkpt>
      <trkpt lat="46.4082" lon="-0.22063">
        <ele>113.5</ele>
        <time>2020-05-31T08:02:42Z</time>
      </trkpt>
      <trkpt lat="46.40817" lon="-0.22069">
        <ele>113.6</ele>
        <time>2020-05-31T08:02:43Z</time>
      </trkpt>
      <trkpt lat="46.40814" lon="-0.22076">
        <ele>113.8</ele>
        <time>2020-05-31T08:02:44Z</time>
      </trkpt>
      <trkpt lat="46.4081" lon="-0.22083">
        <ele>114</ele>
        <time>2020-05-31T08:02:45Z</time>
      </trkpt>
      <trkpt lat="46.40807" lon="-0.2209">
        <ele>114.2</ele>
        <time>2020-05-31T08:02:46Z</time>
      </trkpt>
      <trkpt lat="46.40805" lon="-0.22097">
        <ele>114.3</ele>
        <time>2020-05-31T08:02:47Z</time>
      </trkpt>
      <trkpt lat="46.40802" lon="-0.22104">
        <ele>114.5</ele>
        <time>2020-05-31T08:02:48Z</time>
      </trkpt>
      <trkpt lat="46.408" lon="-0.22112">
        <ele>114.6</ele>
        <time>2020-05-31T08:02:49Z</time>
      </trkpt>
      <trkpt lat="46.40797" lon="-0.22119">
        <ele>114.6</ele>
        <time>2020-05-31T08:02:50Z</time>
      </trkpt>
      <trkpt lat="46.40794" lon="-0.22126">
        <ele>114.7</ele>
        <time>2020-05-31T08:02:51Z</time>
      </trkpt>
      <trkpt lat="46.40791" lon="-0.22133">
        <ele>114.7</ele>
        <time>2020-05-31T08:02:52Z</time>
      </trkpt>
      <trkpt lat="46.40789" lon="-0.22139">
        <ele>114.8</ele>
        <time>2020-05-31T08:02:53Z</time>
      </trkpt>
      <trkpt lat="46.40786" lon="-0.22147">
        <ele>114.9</ele>
        <time>2020-05-31T08:02:54Z</time>
      </trkpt>
      <trkpt lat="46.40784" lon="-0.22152">
        <ele>115</ele>
        <time>2020-05-31T08:02:55Z</time>
      </trkpt>
      <trkpt lat="46.40781" lon="-0.22161">
        <ele>115.1</ele>
        <time>2020-05-31T08:02:56Z</time>
      </trkpt>
      <trkpt lat="46.40779" lon="-0.22167">
        <ele>115.2</ele>
        <time>2020-05-31T08:02:57Z</time>
      </trkpt>
      <trkpt lat="46.40777" lon="-0.22173">
        <ele>115.3</ele>
        <time>2020-05-31T08:02:58Z</time>
      </trkpt>
      <trkpt lat="46.40775" lon="-0.22178">
        <ele>115.4</ele>
        <time>2020-05-31T08:02:59Z</time>
      </trkpt>
      <trkpt lat="46.40774" lon="-0.22183">
        <ele>115.4</ele>
        <time>2020-05-31T08:03:00Z</time>
      </trkpt>
      <trkpt lat="46.40772" lon="-0.22187">
        <ele>115.5</ele>
        <time>2020-05-31T08:03:01Z</time>
      </trkpt>
      <trkpt lat="46.40771" lon="-0.22189">
        <ele>115.5</ele>
        <time>2020-05-31T08:03:02Z</time>
      </trkpt>
      <trkpt lat="46.40771" lon="-0.22189">
        <ele>115.5</ele>
        <time>2020-05-31T08:03:03Z</time>
      </trkpt>
      <trkpt lat="46.40771" lon="-0.22189">
        <ele>115.5</ele>
        <time>2020-05-31T08:03:04Z</time>
      </trkpt>
      <trkpt lat="46.40771" lon="-0.22189">
        <ele>115.6</ele>
        <time>2020-05-31T08:03:05Z</time>
      </trkpt>
      <trkpt lat="46.40772" lon="-0.22188">
        <ele>115.6</ele>
        <time>2020-05-31T08:03:06Z</time>
      </trkpt>
      <trkpt lat="46.40772" lon="-0.22187">
        <ele>115.6</ele>
        <time>2020-05-31T08:03:07Z</time>
      </trkpt>
      <trkpt lat="46.40771" lon="-0.22187">
        <ele>115.6</ele>
        <time>2020-05-31T08:03:08Z</time>
      </trkpt>
      <trkpt lat="46.40771" lon="-0.22188">
        <ele>115.6</ele>
        <time>2020-05-31T08:03:09Z</time>
      </trkpt>
      <trkpt lat="46.40771" lon="-0.22188">
        <ele>115.6</ele>
        <time>2020-05-31T08:03:10Z</time>
      </trkpt>
      <trkpt lat="46.40771" lon="-0.22188">
        <ele>115.6</ele>
        <time>2020-05-31T08:03:11Z</time>
      </trkpt>
      <trkpt lat="46.40771" lon="-0.22188">
        <ele>115.6</ele>
        <time>2020-05-31T08:03:12Z</time>
      </trkpt>
      <trkpt lat="46.40771" lon="-0.22188">
        <ele>115.6</ele>
        <time>2020-05-31T08:03:13Z</time>
      </trkpt>
      <trkpt lat="46.40771" lon="-0.22188">
        <ele>115.6</ele>
        <time>2020-05-31T08:03:14Z</time>
      </trkpt>
      <trkpt lat="46.40771" lon="-0.22188">
        <ele>115.6</ele>
        <time>2020-05-31T08:03:15Z</time>
      </trkpt>
      <trkpt lat="46.40771" lon="-0.22188">
        <ele>115.6</ele>
        <time>2020-05-31T08:03:16Z</time>
      </trkpt>
      <trkpt lat="46.40771" lon="-0.22188">
        <ele>115.6</ele>
        <time>2020-05-31T08:03:17Z</time>
      </trkpt>
      <trkpt lat="46.40771" lon="-0.22188">
        <ele>115.6</ele>
        <time>2020-05-31T08:03:18Z</time>
      </trkpt>
      <trkpt lat="46.40771" lon="-0.22189">
        <ele>115.6</ele>
        <time>2020-05-31T08:03:19Z</time>
      </trkpt>
      <trkpt lat="46.40771" lon="-0.22189">
        <ele>115.6</ele>
        <time>2020-05-31T08:03:20Z</time>
      </trkpt>
      <trkpt lat="46.40771" lon="-0.22189">
        <ele>115.7</ele>
        <time>2020-05-31T08:03:21Z</time>
      </trkpt>
      <trkpt lat="46.40771" lon="-0.22189">
        <ele>115.7</ele>
        <time>2020-05-31T08:03:22Z</time>
      </trkpt>
      <trkpt lat="46.40771" lon="-0.22189">
        <ele>115.7</ele>
        <time>2020-05-31T08:03:23Z</time>
      </trkpt>
      <trkpt lat="46.40771" lon="-0.22189">
        <ele>115.7</ele>
        <time>2020-05-31T08:03:24Z</time>
      </trkpt>
      <trkpt lat="46.40771" lon="-0.22188">
        <ele>115.7</ele>
        <time>2020-05-31T08:03:25Z</time>
      </trkpt>
      <trkpt lat="46.40771" lon="-0.22188">
        <ele>115.7</ele>
        <time>2020-05-31T08:03:26Z</time>
      </trkpt>
      <trkpt lat="46.40771" lon="-0.22188">
        <ele>115.7</ele>
        <time>2020-05-31T08:03:27Z</time>
      </trkpt>
      <trkpt lat="46.40771" lon="-0.22188">
        <ele>115.7</ele>
        <time>2020-05-31T08:03:28Z</time>
      </trkpt>
      <trkpt lat="46.40771" lon="-0.22188">
        <ele>115.7</ele>
        <time>2020-05-31T08:03:29Z</time>
      </trkpt>
      <trkpt lat="46.40771" lon="-0.22188">
        <ele>115.7</ele>
        <time>2020-05-31T08:03:30Z</time>
      </trkpt>
      <trkpt lat="46.4077" lon="-0.22189">
        <ele>115.7</ele>
        <time>2020-05-31T08:03:31Z</time>
      </trkpt>
      <trkpt lat="46.4077" lon="-0.22189">
        <ele>115.7</ele>
        <time>2020-05-31T08:03:32Z</time>
      </trkpt>
      <trkpt lat="46.4077" lon="-0.22189">
        <ele>115.7</ele>
        <time>2020-05-31T08:03:33Z</time>
      </trkpt>
      <trkpt lat="46.40771" lon="-0.22189">
        <ele>115.7</ele>
        <time>2020-05-31T08:03:34Z</time>
      </trkpt>
      <trkpt lat="46.40771" lon="-0.22188">
        <ele>115.7</ele>
        <time>2020-05-31T08:03:35Z</time>
      </trkpt>
      <trkpt lat="46.40771" lon="-0.22188">
        <ele>115.7</ele>
        <time>2020-05-31T08:03:36Z</time>
      </trkpt>
      <trkpt lat="46.4077" lon="-0.22188">
        <ele>115.7</ele>
        <time>2020-05-31T08:03:37Z</time>
      </trkpt>
      <trkpt lat="46.40771" lon="-0.22187">
        <ele>115.7</ele>
        <time>2020-05-31T08:03:38Z</time>
      </trkpt>
      <trkpt lat="46.4077" lon="-0.22187">
        <ele>115.7</ele>
        <time>2020-05-31T08:03:39Z</time>
      </trkpt>
      <trkpt lat="46.4077" lon="-0.22187">
        <ele>115.7</ele>
        <time>2020-05-31T08:03:40Z</time>
      </trkpt>
      <trkpt lat="46.4077" lon="-0.22187">
        <ele>115.7</ele>
        <time>2020-05-31T08:03:41Z</time>
      </trkpt>
      <trkpt lat="46.4077" lon="-0.22188">
        <ele>115.8</ele>
        <time>2020-05-31T08:03:42Z</time>
      </trkpt>
      <trkpt lat="46.4077" lon="-0.22188">
        <ele>115.8</ele>
        <time>2020-05-31T08:03:43Z</time>
      </trkpt>
      <trkpt lat="46.40771" lon="-0.22188">
        <ele>115.8</ele>
        <time>2020-05-31T08:03:44Z</time>
      </trkpt>
      <trkpt lat="46.40771" lon="-0.22187">
        <ele>115.8</ele>
        <time>2020-05-31T08:03:45Z</time>
      </trkpt>
      <trkpt lat="46.40771" lon="-0.22188">
        <ele>115.8</ele>
        <time>2020-05-31T08:03:46Z</time>
      </trkpt>
      <trkpt lat="46.40771" lon="-0.22188">
        <ele>115.8</ele>
        <time>2020-05-31T08:03:47Z</time>
      </trkpt>
      <trkpt lat="46.40771" lon="-0.22189">
        <ele>115.8</ele>
        <time>2020-05-31T08:03:48Z</time>
      </trkpt>
      <trkpt lat="46.40771" lon="-0.22188">
        <ele>115.8</ele>
        <time>2020-05-31T08:03:49Z</time>
      </trkpt>
      <trkpt lat="46.40771" lon="-0.22187">
        <ele>115.8</ele>
        <time>2020-05-31T08:03:50Z</time>
      </trkpt>
      <trkpt lat="46.40771" lon="-0.22187">
        <ele>115.8</ele>
        <time>2020-05-31T08:03:51Z</time>
      </trkpt>
      <trkpt lat="46.40771" lon="-0.22186">
        <ele>115.8</ele>
        <time>2020-05-31T08:03:52Z</time>
      </trkpt>
      <trkpt lat="46.40772" lon="-0.22185">
        <ele>115.8</ele>
        <time>2020-05-31T08:03:53Z</time>
      </trkpt>
      <trkpt lat="46.40772" lon="-0.22185">
        <ele>115.8</ele>
        <time>2020-05-31T08:03:54Z</time>
      </trkpt>
      <trkpt lat="46.40772" lon="-0.22185">
        <ele>115.8</ele>
        <time>2020-05-31T08:03:55Z</time>
      </trkpt>
      <trkpt lat="46.40772" lon="-0.22184">
        <ele>115.9</ele>
        <time>2020-05-31T08:03:56Z</time>
      </trkpt>
      <trkpt lat="46.40772" lon="-0.22184">
        <ele>115.9</ele>
        <time>2020-05-31T08:03:57Z</time>
      </trkpt>
      <trkpt lat="46.40772" lon="-0.22184">
        <ele>115.9</ele>
        <time>2020-05-31T08:03:58Z</time>
      </trkpt>
      <trkpt lat="46.40772" lon="-0.22184">
        <ele>115.9</ele>
        <time>2020-05-31T08:03:59Z</time>
      </trkpt>
      <trkpt lat="46.40772" lon="-0.22184">
        <ele>115.9</ele>
        <time>2020-05-31T08:04:00Z</time>
      </trkpt>
      <trkpt lat="46.40772" lon="-0.22184">
        <ele>115.9</ele>
        <time>2020-05-31T08:04:01Z</time>
      </trkpt>
      <trkpt lat="46.40772" lon="-0.22183">
        <ele>115.9</ele>
        <time>2020-05-31T08:04:02Z</time>
      </trkpt>
      <trkpt lat="46.40772" lon="-0.22183">
        <ele>115.9</ele>
        <time>2020-05-31T08:04:03Z</time>
      </trkpt>
      <trkpt lat="46.40772" lon="-0.22182">
        <ele>115.9</ele>
        <time>2020-05-31T08:04:04Z</time>
      </trkpt>
      <trkpt lat="46.40772" lon="-0.22182">
        <ele>115.9</ele>
        <time>2020-05-31T08:04:05Z</time>
      </trkpt>
      <trkpt lat="46.40772" lon="-0.22182">
        <ele>115.9</ele>
        <time>2020-05-31T08:04:06Z</time>
      </trkpt>
      <trkpt lat="46.40772" lon="-0.22183">
        <ele>115.9</ele>
        <time>2020-05-31T08:04:07Z</time>
      </trkpt>
      <trkpt lat="46.40772" lon="-0.22183">
        <ele>115.9</ele>
        <time>2020-05-31T08:04:08Z</time>
      </trkpt>
      <trkpt lat="46.40772" lon="-0.22183">
        <ele>115.9</ele>
        <time>2020-05-31T08:04:09Z</time>
      </trkpt>
      <trkpt lat="46.40772" lon="-0.22183">
        <ele>115.9</ele>
        <time>2020-05-31T08:04:10Z</time>
      </trkpt>
      <trkpt lat="46.40772" lon="-0.22183">
        <ele>115.9</ele>
        <time>2020-05-31T08:04:11Z</time>
      </trkpt>
      <trkpt lat="46.40772" lon="-0.22183">
        <ele>115.9</ele>
        <time>2020-05-31T08:04:12Z</time>
      </trkpt>
      <trkpt lat="46.40772" lon="-0.22183">
        <ele>115.9</ele>
        <time>2020-05-31T08:04:13Z</time>
      </trkpt>
      <trkpt lat="46.40772" lon="-0.22183">
        <ele>115.9</ele>
        <time>2020-05-31T08:04:14Z</time>
      </trkpt>
      <trkpt lat="46.40772" lon="-0.22184">
        <ele>115.9</ele>
        <time>2020-05-31T08:04:15Z</time>
      </trkpt>
      <trkpt lat="46.40772" lon="-0.22184">
        <ele>115.9</ele>
        <time>2020-05-31T08:04:16Z</time>
      </trkpt>
      <trkpt lat="46.40772" lon="-0.22184">
        <ele>115.9</ele>
        <time>2020-05-31T08:04:17Z</time>
      </trkpt>
      <trkpt lat="46.40772" lon="-0.22184">
        <ele>115.9</ele>
        <time>2020-05-31T08:04:18Z</time>
      </trkpt>
      <trkpt lat="46.40772" lon="-0.22184">
        <ele>115.9</ele>
        <time>2020-05-31T08:04:19Z</time>
      </trkpt>
      <trkpt lat="46.40772" lon="-0.22184">
        <ele>116</ele>
        <time>2020-05-31T08:04:20Z</time>
      </trkpt>
      <trkpt lat="46.40772" lon="-0.22184">
        <ele>116</ele>
        <time>2020-05-31T08:04:21Z</time>
      </trkpt>
      <trkpt lat="46.40772" lon="-0.22183">
        <ele>116</ele>
        <time>2020-05-31T08:04:22Z</time>
      </trkpt>
      <trkpt lat="46.40772" lon="-0.22183">
        <ele>116</ele>
        <time>2020-05-31T08:04:23Z</time>
      </trkpt>
      <trkpt lat="46.40772" lon="-0.22184">
        <ele>116</ele>
        <time>2020-05-31T08:04:24Z</time>
      </trkpt>
      <trkpt lat="46.40772" lon="-0.22184">
        <ele>116</ele>
        <time>2020-05-31T08:04:25Z</time>
      </trkpt>
      <trkpt lat="46.40772" lon="-0.22184">
        <ele>116</ele>
        <time>2020-05-31T08:04:26Z</time>
      </trkpt>
      <trkpt lat="46.40772" lon="-0.22185">
        <ele>116</ele>
        <time>2020-05-31T08:04:27Z</time>
      </trkpt>
      <trkpt lat="46.40772" lon="-0.22186">
        <ele>116</ele>
        <time>2020-05-31T08:04:28Z</time>
      </trkpt>
      <trkpt lat="46.40771" lon="-0.22186">
        <ele>116</ele>
        <time>2020-05-31T08:04:29Z</time>
      </trkpt>
      <trkpt lat="46.40771" lon="-0.22186">
        <ele>116</ele>
        <time>2020-05-31T08:04:30Z</time>
      </trkpt>
      <trkpt lat="46.40771" lon="-0.22186">
        <ele>116</ele>
        <time>2020-05-31T08:04:31Z</time>
      </trkpt>
      <trkpt lat="46.40771" lon="-0.22187">
        <ele>116</ele>
        <time>2020-05-31T08:04:32Z</time>
      </trkpt>
      <trkpt lat="46.40771" lon="-0.22187">
        <ele>116</ele>
        <time>2020-05-31T08:04:33Z</time>
      </trkpt>
      <trkpt lat="46.40771" lon="-0.22187">
        <ele>116</ele>
        <time>2020-05-31T08:04:34Z</time>
      </trkpt>
      <trkpt lat="46.40771" lon="-0.22186">
        <ele>116</ele>
        <time>2020-05-31T08:04:35Z</time>
      </trkpt>
      <trkpt lat="46.40771" lon="-0.22186">
        <ele>116</ele>
        <time>2020-05-31T08:04:36Z</time>
      </trkpt>
      <trkpt lat="46.40771" lon="-0.22186">
        <ele>116</ele>
        <time>2020-05-31T08:04:37Z</time>
      </trkpt>
      <trkpt lat="46.40771" lon="-0.22186">
        <ele>116</ele>
        <time>2020-05-31T08:04:38Z</time>
      </trkpt>
      <trkpt lat="46.40771" lon="-0.22186">
        <ele>116</ele>
        <time>2020-05-31T08:04:39Z</time>
      </trkpt>
      <trkpt lat="46.4077" lon="-0.22186">
        <ele>116</ele>
        <time>2020-05-31T08:04:40Z</time>
      </trkpt>
      <trkpt lat="46.4077" lon="-0.22186">
        <ele>116</ele>
        <time>2020-05-31T08:04:42Z</time>
      </trkpt>
      <trkpt lat="46.4077" lon="-0.22186">
        <ele>116</ele>
        <time>2020-05-31T08:04:43Z</time>
      </trkpt>
      <trkpt lat="46.4077" lon="-0.22186">
        <ele>116.1</ele>
        <time>2020-05-31T08:04:44Z</time>
      </trkpt>
      <trkpt lat="46.4077" lon="-0.22187">
        <ele>116.1</ele>
        <time>2020-05-31T08:04:45Z</time>
      </trkpt>
      <trkpt lat="46.40769" lon="-0.22187">
        <ele>116.1</ele>
        <time>2020-05-31T08:04:46Z</time>
      </trkpt>
      <trkpt lat="46.40769" lon="-0.22187">
        <ele>116.1</ele>
        <time>2020-05-31T08:04:47Z</time>
      </trkpt>
      <trkpt lat="46.40769" lon="-0.22187">
        <ele>116.1</ele>
        <time>2020-05-31T08:04:48Z</time>
      </trkpt>
      <trkpt lat="46.40769" lon="-0.22187">
        <ele>116.1</ele>
        <time>2020-05-31T08:04:49Z</time>
      </trkpt>
      <trkpt lat="46.40769" lon="-0.22188">
        <ele>116.1</ele>
        <time>2020-05-31T08:04:50Z</time>
      </trkpt>
      <trkpt lat="46.40769" lon="-0.22188">
        <ele>116.1</ele>
        <time>2020-05-31T08:04:51Z</time>
      </trkpt>
      <trkpt lat="46.40769" lon="-0.22188">
        <ele>116.1</ele>
        <time>2020-05-31T08:04:52Z</time>
      </trkpt>
      <trkpt lat="46.40769" lon="-0.22189">
        <ele>116.1</ele>
        <time>2020-05-31T08:04:53Z</time>
      </trkpt>
      <trkpt lat="46.40768" lon="-0.22193">
        <ele>116.2</ele>
        <time>2020-05-31T08:04:54Z</time>
      </trkpt>
      <trkpt lat="46.40768" lon="-0.22195">
        <ele>116.2</ele>
        <time>2020-05-31T08:04:55Z</time>
      </trkpt>
      <trkpt lat="46.40766" lon="-0.22199">
        <ele>116.2</ele>
        <time>2020-05-31T08:04:56Z</time>
      </trkpt>
      <trkpt lat="46.40765" lon="-0.22202">
        <ele>116.3</ele>
        <time>2020-05-31T08:04:57Z</time>
      </trkpt>
      <trkpt lat="46.40764" lon="-0.22204">
        <ele>116.3</ele>
        <time>2020-05-31T08:04:58Z</time>
      </trkpt>
      <trkpt lat="46.40762" lon="-0.22207">
        <ele>116.4</ele>
        <time>2020-05-31T08:04:59Z</time>
      </trkpt>
      <trkpt lat="46.4076" lon="-0.22211">
        <ele>116.4</ele>
        <time>2020-05-31T08:05:00Z</time>
      </trkpt>
      <trkpt lat="46.40759" lon="-0.22216">
        <ele>116.5</ele>
        <time>2020-05-31T08:05:01Z</time>
      </trkpt>
      <trkpt lat="46.40758" lon="-0.22221">
        <ele>116.5</ele>
        <time>2020-05-31T08:05:02Z</time>
      </trkpt>
      <trkpt lat="46.40755" lon="-0.22225">
        <ele>116.6</ele>
        <time>2020-05-31T08:05:03Z</time>
      </trkpt>
      <trkpt lat="46.40753" lon="-0.2223">
        <ele>116.6</ele>
        <time>2020-05-31T08:05:04Z</time>
      </trkpt>
      <trkpt lat="46.40752" lon="-0.22236">
        <ele>116.6</ele>
        <time>2020-05-31T08:05:05Z</time>
      </trkpt>
      <trkpt lat="46.40751" lon="-0.22243">
        <ele>116.7</ele>
        <time>2020-05-31T08:05:06Z</time>
      </trkpt>
      <trkpt lat="46.40751" lon="-0.22248">
        <ele>116.7</ele>
        <time>2020-05-31T08:05:07Z</time>
      </trkpt>
      <trkpt lat="46.40754" lon="-0.2226">
        <ele>116.7</ele>
        <time>2020-05-31T08:05:08Z</time>
      </trkpt>
      <trkpt lat="46.40755" lon="-0.22265">
        <ele>116.7</ele>
        <time>2020-05-31T08:05:09Z</time>
      </trkpt>
      <trkpt lat="46.40756" lon="-0.2227">
        <ele>116.7</ele>
        <time>2020-05-31T08:05:10Z</time>
      </trkpt>
      <trkpt lat="46.40757" lon="-0.22276">
        <ele>116.7</ele>
        <time>2020-05-31T08:05:11Z</time>
      </trkpt>
      <trkpt lat="46.40757" lon="-0.22282">
        <ele>116.7</ele>
        <time>2020-05-31T08:05:12Z</time>
      </trkpt>
      <trkpt lat="46.40757" lon="-0.22287">
        <ele>116.7</ele>
        <time>2020-05-31T08:05:13Z</time>
      </trkpt>
      <trkpt lat="46.40757" lon="-0.22292">
        <ele>116.7</ele>
        <time>2020-05-31T08:05:14Z</time>
      </trkpt>
      <trkpt lat="46.40757" lon="-0.22298">
        <ele>116.7</ele>
        <time>2020-05-31T08:05:15Z</time>
      </trkpt>
      <trkpt lat="46.40758" lon="-0.22302">
        <ele>116.8</ele>
        <time>2020-05-31T08:05:16Z</time>
      </trkpt>
      <trkpt lat="46.40759" lon="-0.22307">
        <ele>116.8</ele>
        <time>2020-05-31T08:05:17Z</time>
      </trkpt>
      <trkpt lat="46.4076" lon="-0.22313">
        <ele>116.8</ele>
        <time>2020-05-31T08:05:18Z</time>
      </trkpt>
      <trkpt lat="46.40761" lon="-0.2232">
        <ele>116.7</ele>
        <time>2020-05-31T08:05:19Z</time>
      </trkpt>
      <trkpt lat="46.40761" lon="-0.22325">
        <ele>116.7</ele>
        <time>2020-05-31T08:05:20Z</time>
      </trkpt>
      <trkpt lat="46.40761" lon="-0.22331">
        <ele>116.7</ele>
        <time>2020-05-31T08:05:21Z</time>
      </trkpt>
      <trkpt lat="46.40761" lon="-0.22338">
        <ele>116.7</ele>
        <time>2020-05-31T08:05:22Z</time>
      </trkpt>
      <trkpt lat="46.40762" lon="-0.22346">
        <ele>116.7</ele>
        <time>2020-05-31T08:05:23Z</time>
      </trkpt>
      <trkpt lat="46.40762" lon="-0.22353">
        <ele>116.7</ele>
        <time>2020-05-31T08:05:24Z</time>
      </trkpt>
      <trkpt lat="46.40763" lon="-0.22359">
        <ele>116.7</ele>
        <time>2020-05-31T08:05:25Z</time>
      </trkpt>
      <trkpt lat="46.40763" lon="-0.22367">
        <ele>116.7</ele>
        <time>2020-05-31T08:05:26Z</time>
      </trkpt>
      <trkpt lat="46.40763" lon="-0.22373">
        <ele>116.7</ele>
        <time>2020-05-31T08:05:27Z</time>
      </trkpt>
      <trkpt lat="46.40763" lon="-0.22379">
        <ele>116.7</ele>
        <time>2020-05-31T08:05:28Z</time>
      </trkpt>
      <trkpt lat="46.40764" lon="-0.22387">
        <ele>116.7</ele>
        <time>2020-05-31T08:05:29Z</time>
      </trkpt>
      <trkpt lat="46.40764" lon="-0.22395">
        <ele>116.7</ele>
        <time>2020-05-31T08:05:30Z</time>
      </trkpt>
      <trkpt lat="46.40764" lon="-0.22403">
        <ele>116.7</ele>
        <time>2020-05-31T08:05:31Z</time>
      </trkpt>
      <trkpt lat="46.40764" lon="-0.22412">
        <ele>116.7</ele>
        <time>2020-05-31T08:05:32Z</time>
      </trkpt>
      <trkpt lat="46.40765" lon="-0.22419">
        <ele>116.7</ele>
        <time>2020-05-31T08:05:33Z</time>
      </trkpt>
      <trkpt lat="46.40766" lon="-0.22422">
        <ele>116.8</ele>
        <time>2020-05-31T08:05:34Z</time>
      </trkpt>
      <trkpt lat="46.40768" lon="-0.22429">
        <ele>116.4</ele>
        <time>2020-05-31T08:05:35Z</time>
      </trkpt>
      <trkpt lat="46.40769" lon="-0.22435">
        <ele>116.4</ele>
        <time>2020-05-31T08:05:36Z</time>
      </trkpt>
      <trkpt lat="46.40769" lon="-0.22441">
        <ele>116.3</ele>
        <time>2020-05-31T08:05:37Z</time>
      </trkpt>
      <trkpt lat="46.40768" lon="-0.22446">
        <ele>116.4</ele>
        <time>2020-05-31T08:05:38Z</time>
      </trkpt>
      <trkpt lat="46.40765" lon="-0.2245">
        <ele>116.4</ele>
        <time>2020-05-31T08:05:39Z</time>
      </trkpt>
      <trkpt lat="46.4076" lon="-0.22451">
        <ele>116.4</ele>
        <time>2020-05-31T08:05:40Z</time>
      </trkpt>
      <trkpt lat="46.40757" lon="-0.2245">
        <ele>116.9</ele>
        <time>2020-05-31T08:05:41Z</time>
      </trkpt>
      <trkpt lat="46.40752" lon="-0.22449">
        <ele>117</ele>
        <time>2020-05-31T08:05:42Z</time>
      </trkpt>
      <trkpt lat="46.40749" lon="-0.2245">
        <ele>117.1</ele>
        <time>2020-05-31T08:05:43Z</time>
      </trkpt>
      <trkpt lat="46.40745" lon="-0.22451">
        <ele>117.2</ele>
        <time>2020-05-31T08:05:44Z</time>
      </trkpt>
      <trkpt lat="46.40742" lon="-0.22453">
        <ele>117.3</ele>
        <time>2020-05-31T08:05:45Z</time>
      </trkpt>
      <trkpt lat="46.4074" lon="-0.22458">
        <ele>117.3</ele>
        <time>2020-05-31T08:05:46Z</time>
      </trkpt>
      <trkpt lat="46.40738" lon="-0.22463">
        <ele>117.3</ele>
        <time>2020-05-31T08:05:47Z</time>
      </trkpt>
      <trkpt lat="46.40736" lon="-0.22468">
        <ele>117.4</ele>
        <time>2020-05-31T08:05:48Z</time>
      </trkpt>
      <trkpt lat="46.40734" lon="-0.22474">
        <ele>117.4</ele>
        <time>2020-05-31T08:05:49Z</time>
      </trkpt>
      <trkpt lat="46.40732" lon="-0.2248">
        <ele>117.5</ele>
        <time>2020-05-31T08:05:50Z</time>
      </trkpt>
      <trkpt lat="46.4073" lon="-0.22484">
        <ele>117.5</ele>
        <time>2020-05-31T08:05:51Z</time>
      </trkpt>
      <trkpt lat="46.40728" lon="-0.22489">
        <ele>117.6</ele>
        <time>2020-05-31T08:05:52Z</time>
      </trkpt>
      <trkpt lat="46.40726" lon="-0.22494">
        <ele>117.6</ele>
        <time>2020-05-31T08:05:53Z</time>
      </trkpt>
      <trkpt lat="46.40724" lon="-0.225">
        <ele>117.7</ele>
        <time>2020-05-31T08:05:54Z</time>
      </trkpt>
      <trkpt lat="46.40722" lon="-0.22504">
        <ele>117.7</ele>
        <time>2020-05-31T08:05:55Z</time>
      </trkpt>
      <trkpt lat="46.4072" lon="-0.2251">
        <ele>117.8</ele>
        <time>2020-05-31T08:05:56Z</time>
      </trkpt>
      <trkpt lat="46.40718" lon="-0.22516">
        <ele>117.9</ele>
        <time>2020-05-31T08:05:57Z</time>
      </trkpt>
      <trkpt lat="46.40716" lon="-0.22522">
        <ele>118.1</ele>
        <time>2020-05-31T08:05:58Z</time>
      </trkpt>
      <trkpt lat="46.40714" lon="-0.22528">
        <ele>118.2</ele>
        <time>2020-05-31T08:05:59Z</time>
      </trkpt>
      <trkpt lat="46.40713" lon="-0.22534">
        <ele>118.3</ele>
        <time>2020-05-31T08:06:00Z</time>
      </trkpt>
      <trkpt lat="46.40712" lon="-0.2254">
        <ele>118.5</ele>
        <time>2020-05-31T08:06:01Z</time>
      </trkpt>
      <trkpt lat="46.4071" lon="-0.22545">
        <ele>118.6</ele>
        <time>2020-05-31T08:06:02Z</time>
      </trkpt>
      <trkpt lat="46.40708" lon="-0.22549">
        <ele>118.7</ele>
        <time>2020-05-31T08:06:03Z</time>
      </trkpt>
      <trkpt lat="46.40707" lon="-0.22553">
        <ele>118.7</ele>
        <time>2020-05-31T08:06:04Z</time>
      </trkpt>
      <trkpt lat="46.40706" lon="-0.22557">
        <ele>118.8</ele>
        <time>2020-05-31T08:06:05Z</time>
      </trkpt>
      <trkpt lat="46.40705" lon="-0.22563">
        <ele>118.9</ele>
        <time>2020-05-31T08:06:06Z</time>
      </trkpt>
      <trkpt lat="46.40704" lon="-0.22569">
        <ele>118.9</ele>
        <time>2020-05-31T08:06:07Z</time>
      </trkpt>
      <trkpt lat="46.40702" lon="-0.22575">
        <ele>119</ele>
        <time>2020-05-31T08:06:08Z</time>
      </trkpt>
      <trkpt lat="46.407" lon="-0.22581">
        <ele>119</ele>
        <time>2020-05-31T08:06:09Z</time>
      </trkpt>
      <trkpt lat="46.40698" lon="-0.22587">
        <ele>119.1</ele>
        <time>2020-05-31T08:06:10Z</time>
      </trkpt>
      <trkpt lat="46.40696" lon="-0.22593">
        <ele>119.1</ele>
        <time>2020-05-31T08:06:11Z</time>
      </trkpt>
      <trkpt lat="46.40694" lon="-0.226">
        <ele>119.1</ele>
        <time>2020-05-31T08:06:12Z</time>
      </trkpt>
      <trkpt lat="46.40691" lon="-0.22607">
        <ele>119.2</ele>
        <time>2020-05-31T08:06:13Z</time>
      </trkpt>
      <trkpt lat="46.40689" lon="-0.22614">
        <ele>119.2</ele>
        <time>2020-05-31T08:06:14Z</time>
      </trkpt>
      <trkpt lat="46.40687" lon="-0.2262">
        <ele>119.2</ele>
        <time>2020-05-31T08:06:15Z</time>
      </trkpt>
      <trkpt lat="46.40686" lon="-0.22626">
        <ele>119.2</ele>
        <time>2020-05-31T08:06:16Z</time>
      </trkpt>
      <trkpt lat="46.40684" lon="-0.22633">
        <ele>119.3</ele>
        <time>2020-05-31T08:06:17Z</time>
      </trkpt>
      <trkpt lat="46.40681" lon="-0.22639">
        <ele>119.2</ele>
        <time>2020-05-31T08:06:18Z</time>
      </trkpt>
      <trkpt lat="46.40678" lon="-0.22646">
        <ele>119.1</ele>
        <time>2020-05-31T08:06:19Z</time>
      </trkpt>
      <trkpt lat="46.40675" lon="-0.22653">
        <ele>119.1</ele>
        <time>2020-05-31T08:06:20Z</time>
      </trkpt>
      <trkpt lat="46.40672" lon="-0.2266">
        <ele>119</ele>
        <time>2020-05-31T08:06:21Z</time>
      </trkpt>
      <trkpt lat="46.40669" lon="-0.22667">
        <ele>119</ele>
        <time>2020-05-31T08:06:22Z</time>
      </trkpt>
      <trkpt lat="46.40667" lon="-0.22674">
        <ele>118.9</ele>
        <time>2020-05-31T08:06:23Z</time>
      </trkpt>
      <trkpt lat="46.40665" lon="-0.22679">
        <ele>118.9</ele>
        <time>2020-05-31T08:06:24Z</time>
      </trkpt>
      <trkpt lat="46.40663" lon="-0.22685">
        <ele>118.8</ele>
        <time>2020-05-31T08:06:25Z</time>
      </trkpt>
      <trkpt lat="46.40661" lon="-0.2269">
        <ele>118.8</ele>
        <time>2020-05-31T08:06:26Z</time>
      </trkpt>
      <trkpt lat="46.40659" lon="-0.22696">
        <ele>118.8</ele>
        <time>2020-05-31T08:06:27Z</time>
      </trkpt>
      <trkpt lat="46.40658" lon="-0.22702">
        <ele>118.8</ele>
        <time>2020-05-31T08:06:28Z</time>
      </trkpt>
      <trkpt lat="46.40656" lon="-0.22708">
        <ele>118.9</ele>
        <time>2020-05-31T08:06:29Z</time>
      </trkpt>
      <trkpt lat="46.40654" lon="-0.22713">
        <ele>119</ele>
        <time>2020-05-31T08:06:30Z</time>
      </trkpt>
      <trkpt lat="46.40652" lon="-0.22719">
        <ele>119</ele>
        <time>2020-05-31T08:06:31Z</time>
      </trkpt>
      <trkpt lat="46.40649" lon="-0.22725">
        <ele>119.1</ele>
        <time>2020-05-31T08:06:32Z</time>
      </trkpt>
      <trkpt lat="46.40647" lon="-0.22732">
        <ele>119.2</ele>
        <time>2020-05-31T08:06:33Z</time>
      </trkpt>
      <trkpt lat="46.40646" lon="-0.22736">
        <ele>119.2</ele>
        <time>2020-05-31T08:06:34Z</time>
      </trkpt>
      <trkpt lat="46.40645" lon="-0.22742">
        <ele>119.2</ele>
        <time>2020-05-31T08:06:35Z</time>
      </trkpt>
      <trkpt lat="46.40644" lon="-0.22747">
        <ele>119.3</ele>
        <time>2020-05-31T08:06:36Z</time>
      </trkpt>
      <trkpt lat="46.40642" lon="-0.22752">
        <ele>119.3</ele>
        <time>2020-05-31T08:06:37Z</time>
      </trkpt>
      <trkpt lat="46.4064" lon="-0.22757">
        <ele>119.3</ele>
        <time>2020-05-31T08:06:38Z</time>
      </trkpt>
      <trkpt lat="46.40639" lon="-0.22761">
        <ele>119.4</ele>
        <time>2020-05-31T08:06:39Z</time>
      </trkpt>
      <trkpt lat="46.40636" lon="-0.22765">
        <ele>119.4</ele>
        <time>2020-05-31T08:06:40Z</time>
      </trkpt>
      <trkpt lat="46.40636" lon="-0.22766">
        <ele>119.4</ele>
        <time>2020-05-31T08:06:41Z</time>
      </trkpt>
      <trkpt lat="46.40634" lon="-0.2277">
        <ele>119.4</ele>
        <time>2020-05-31T08:06:42Z</time>
      </trkpt>
      <trkpt lat="46.40633" lon="-0.22774">
        <ele>119.4</ele>
        <time>2020-05-31T08:06:43Z</time>
      </trkpt>
      <trkpt lat="46.40631" lon="-0.22779">
        <ele>119.4</ele>
        <time>2020-05-31T08:06:44Z</time>
      </trkpt>
      <trkpt lat="46.4063" lon="-0.22784">
        <ele>119.5</ele>
        <time>2020-05-31T08:06:45Z</time>
      </trkpt>
      <trkpt lat="46.40627" lon="-0.2279">
        <ele>119.5</ele>
        <time>2020-05-31T08:06:46Z</time>
      </trkpt>
      <trkpt lat="46.40625" lon="-0.22796">
        <ele>119.5</ele>
        <time>2020-05-31T08:06:47Z</time>
      </trkpt>
      <trkpt lat="46.40623" lon="-0.22802">
        <ele>119.5</ele>
        <time>2020-05-31T08:06:48Z</time>
      </trkpt>
      <trkpt lat="46.40621" lon="-0.22807">
        <ele>119.5</ele>
        <time>2020-05-31T08:06:49Z</time>
      </trkpt>
      <trkpt lat="46.4062" lon="-0.22812">
        <ele>119.6</ele>
        <time>2020-05-31T08:06:50Z</time>
      </trkpt>
      <trkpt lat="46.40618" lon="-0.22818">
        <ele>119.6</ele>
        <time>2020-05-31T08:06:51Z</time>
      </trkpt>
      <trkpt lat="46.40616" lon="-0.22823">
        <ele>119.6</ele>
        <time>2020-05-31T08:06:52Z</time>
      </trkpt>
      <trkpt lat="46.40614" lon="-0.22828">
        <ele>119.6</ele>
        <time>2020-05-31T08:06:53Z</time>
      </trkpt>
      <trkpt lat="46.40613" lon="-0.22834">
        <ele>119.7</ele>
        <time>2020-05-31T08:06:54Z</time>
      </trkpt>
      <trkpt lat="46.40611" lon="-0.2284">
        <ele>119.7</ele>
        <time>2020-05-31T08:06:55Z</time>
      </trkpt>
      <trkpt lat="46.40609" lon="-0.22846">
        <ele>119.7</ele>
        <time>2020-05-31T08:06:56Z</time>
      </trkpt>
      <trkpt lat="46.40607" lon="-0.22852">
        <ele>119.8</ele>
        <time>2020-05-31T08:06:57Z</time>
      </trkpt>
      <trkpt lat="46.40605" lon="-0.22858">
        <ele>119.8</ele>
        <time>2020-05-31T08:06:58Z</time>
      </trkpt>
      <trkpt lat="46.40603" lon="-0.22864">
        <ele>119.9</ele>
        <time>2020-05-31T08:06:59Z</time>
      </trkpt>
      <trkpt lat="46.40601" lon="-0.2287">
        <ele>119.9</ele>
        <time>2020-05-31T08:07:00Z</time>
      </trkpt>
      <trkpt lat="46.40599" lon="-0.22875">
        <ele>120</ele>
        <time>2020-05-31T08:07:01Z</time>
      </trkpt>
      <trkpt lat="46.40597" lon="-0.2288">
        <ele>120.1</ele>
        <time>2020-05-31T08:07:02Z</time>
      </trkpt>
      <trkpt lat="46.40596" lon="-0.22887">
        <ele>120.2</ele>
        <time>2020-05-31T08:07:03Z</time>
      </trkpt>
      <trkpt lat="46.40594" lon="-0.22891">
        <ele>120.2</ele>
        <time>2020-05-31T08:07:04Z</time>
      </trkpt>
      <trkpt lat="46.40593" lon="-0.22897">
        <ele>120.3</ele>
        <time>2020-05-31T08:07:05Z</time>
      </trkpt>
      <trkpt lat="46.4059" lon="-0.22904">
        <ele>120.4</ele>
        <time>2020-05-31T08:07:06Z</time>
      </trkpt>
      <trkpt lat="46.40587" lon="-0.22909">
        <ele>120.5</ele>
        <time>2020-05-31T08:07:07Z</time>
      </trkpt>
      <trkpt lat="46.40585" lon="-0.22916">
        <ele>120.6</ele>
        <time>2020-05-31T08:07:08Z</time>
      </trkpt>
      <trkpt lat="46.40583" lon="-0.22922">
        <ele>120.6</ele>
        <time>2020-05-31T08:07:09Z</time>
      </trkpt>
      <trkpt lat="46.40581" lon="-0.22928">
        <ele>120.7</ele>
        <time>2020-05-31T08:07:10Z</time>
      </trkpt>
      <trkpt lat="46.4058" lon="-0.22933">
        <ele>120.8</ele>
        <time>2020-05-31T08:07:11Z</time>
      </trkpt>
      <trkpt lat="46.40577" lon="-0.22938">
        <ele>120.8</ele>
        <time>2020-05-31T08:07:12Z</time>
      </trkpt>
      <trkpt lat="46.40576" lon="-0.22943">
        <ele>120.8</ele>
        <time>2020-05-31T08:07:13Z</time>
      </trkpt>
      <trkpt lat="46.40573" lon="-0.22948">
        <ele>120.9</ele>
        <time>2020-05-31T08:07:14Z</time>
      </trkpt>
      <trkpt lat="46.40572" lon="-0.22954">
        <ele>120.9</ele>
        <time>2020-05-31T08:07:15Z</time>
      </trkpt>
      <trkpt lat="46.4057" lon="-0.2296">
        <ele>120.9</ele>
        <time>2020-05-31T08:07:16Z</time>
      </trkpt>
      <trkpt lat="46.40568" lon="-0.22965">
        <ele>120.9</ele>
        <time>2020-05-31T08:07:17Z</time>
      </trkpt>
      <trkpt lat="46.40566" lon="-0.2297">
        <ele>120.9</ele>
        <time>2020-05-31T08:07:18Z</time>
      </trkpt>
      <trkpt lat="46.40563" lon="-0.22975">
        <ele>121</ele>
        <time>2020-05-31T08:07:19Z</time>
      </trkpt>
      <trkpt lat="46.40562" lon="-0.2298">
        <ele>121</ele>
        <time>2020-05-31T08:07:20Z</time>
      </trkpt>
      <trkpt lat="46.4056" lon="-0.22984">
        <ele>121</ele>
        <time>2020-05-31T08:07:21Z</time>
      </trkpt>
      <trkpt lat="46.40557" lon="-0.22989">
        <ele>121.1</ele>
        <time>2020-05-31T08:07:22Z</time>
      </trkpt>
      <trkpt lat="46.40555" lon="-0.22994">
        <ele>121.1</ele>
        <time>2020-05-31T08:07:23Z</time>
      </trkpt>
      <trkpt lat="46.40552" lon="-0.23">
        <ele>121.2</ele>
        <time>2020-05-31T08:07:24Z</time>
      </trkpt>
      <trkpt lat="46.4055" lon="-0.23005">
        <ele>121.2</ele>
        <time>2020-05-31T08:07:25Z</time>
      </trkpt>
      <trkpt lat="46.40549" lon="-0.23011">
        <ele>121.2</ele>
        <time>2020-05-31T08:07:26Z</time>
      </trkpt>
      <trkpt lat="46.40547" lon="-0.23018">
        <ele>121.3</ele>
        <time>2020-05-31T08:07:27Z</time>
      </trkpt>
      <trkpt lat="46.40544" lon="-0.23024">
        <ele>121.4</ele>
        <time>2020-05-31T08:07:28Z</time>
      </trkpt>
      <trkpt lat="46.40543" lon="-0.23031">
        <ele>121.4</ele>
        <time>2020-05-31T08:07:29Z</time>
      </trkpt>
      <trkpt lat="46.40541" lon="-0.23038">
        <ele>121.5</ele>
        <time>2020-05-31T08:07:30Z</time>
      </trkpt>
      <trkpt lat="46.4054" lon="-0.23045">
        <ele>121.5</ele>
        <time>2020-05-31T08:07:31Z</time>
      </trkpt>
      <trkpt lat="46.40539" lon="-0.2305">
        <ele>121.6</ele>
        <time>2020-05-31T08:07:32Z</time>
      </trkpt>
      <trkpt lat="46.40537" lon="-0.23056">
        <ele>121.6</ele>
        <time>2020-05-31T08:07:33Z</time>
      </trkpt>
      <trkpt lat="46.40536" lon="-0.23062">
        <ele>121.7</ele>
        <time>2020-05-31T08:07:34Z</time>
      </trkpt>
      <trkpt lat="46.40535" lon="-0.23068">
        <ele>121.8</ele>
        <time>2020-05-31T08:07:35Z</time>
      </trkpt>
      <trkpt lat="46.40533" lon="-0.23074">
        <ele>121.9</ele>
        <time>2020-05-31T08:07:36Z</time>
      </trkpt>
      <trkpt lat="46.40532" lon="-0.2308">
        <ele>122</ele>
        <time>2020-05-31T08:07:37Z</time>
      </trkpt>
      <trkpt lat="46.40531" lon="-0.23086">
        <ele>122</ele>
        <time>2020-05-31T08:07:38Z</time>
      </trkpt>
      <trkpt lat="46.4053" lon="-0.23092">
        <ele>122.1</ele>
        <time>2020-05-31T08:07:39Z</time>
      </trkpt>
      <trkpt lat="46.40529" lon="-0.23098">
        <ele>122.2</ele>
        <time>2020-05-31T08:07:40Z</time>
      </trkpt>
      <trkpt lat="46.40528" lon="-0.23104">
        <ele>122.2</ele>
        <time>2020-05-31T08:07:41Z</time>
      </trkpt>
      <trkpt lat="46.40527" lon="-0.23111">
        <ele>122.3</ele>
        <time>2020-05-31T08:07:42Z</time>
      </trkpt>
      <trkpt lat="46.40526" lon="-0.23118">
        <ele>122.4</ele>
        <time>2020-05-31T08:07:43Z</time>
      </trkpt>
      <trkpt lat="46.40525" lon="-0.23124">
        <ele>122.5</ele>
        <time>2020-05-31T08:07:44Z</time>
      </trkpt>
      <trkpt lat="46.40524" lon="-0.2313">
        <ele>122.5</ele>
        <time>2020-05-31T08:07:45Z</time>
      </trkpt>
      <trkpt lat="46.40524" lon="-0.23136">
        <ele>122.6</ele>
        <time>2020-05-31T08:07:46Z</time>
      </trkpt>
      <trkpt lat="46.40523" lon="-0.23142">
        <ele>122.7</ele>
        <time>2020-05-31T08:07:47Z</time>
      </trkpt>
      <trkpt lat="46.40521" lon="-0.23149">
        <ele>122.8</ele>
        <time>2020-05-31T08:07:48Z</time>
      </trkpt>
      <trkpt lat="46.4052" lon="-0.23155">
        <ele>122.9</ele>
        <time>2020-05-31T08:07:49Z</time>
      </trkpt>
      <trkpt lat="46.4052" lon="-0.23161">
        <ele>123</ele>
        <time>2020-05-31T08:07:50Z</time>
      </trkpt>
      <trkpt lat="46.40519" lon="-0.23168">
        <ele>123.1</ele>
        <time>2020-05-31T08:07:51Z</time>
      </trkpt>
      <trkpt lat="46.40518" lon="-0.23175">
        <ele>123.3</ele>
        <time>2020-05-31T08:07:52Z</time>
      </trkpt>
      <trkpt lat="46.40516" lon="-0.2318">
        <ele>123.4</ele>
        <time>2020-05-31T08:07:53Z</time>
      </trkpt>
      <trkpt lat="46.40515" lon="-0.23186">
        <ele>123.5</ele>
        <time>2020-05-31T08:07:54Z</time>
      </trkpt>
      <trkpt lat="46.40514" lon="-0.23193">
        <ele>123.6</ele>
        <time>2020-05-31T08:07:55Z</time>
      </trkpt>
      <trkpt lat="46.40513" lon="-0.23199">
        <ele>123.7</ele>
        <time>2020-05-31T08:07:56Z</time>
      </trkpt>
      <trkpt lat="46.40512" lon="-0.23205">
        <ele>123.8</ele>
        <time>2020-05-31T08:07:57Z</time>
      </trkpt>
      <trkpt lat="46.4051" lon="-0.23212">
        <ele>123.9</ele>
        <time>2020-05-31T08:07:58Z</time>
      </trkpt>
      <trkpt lat="46.40509" lon="-0.23218">
        <ele>123.9</ele>
        <time>2020-05-31T08:07:59Z</time>
      </trkpt>
      <trkpt lat="46.40508" lon="-0.23225">
        <ele>124</ele>
        <time>2020-05-31T08:08:00Z</time>
      </trkpt>
      <trkpt lat="46.40507" lon="-0.23232">
        <ele>124.1</ele>
        <time>2020-05-31T08:08:01Z</time>
      </trkpt>
      <trkpt lat="46.40506" lon="-0.23238">
        <ele>124.2</ele>
        <time>2020-05-31T08:08:02Z</time>
      </trkpt>
      <trkpt lat="46.40504" lon="-0.23245">
        <ele>124.4</ele>
        <time>2020-05-31T08:08:03Z</time>
      </trkpt>
      <trkpt lat="46.40502" lon="-0.2325">
        <ele>124.5</ele>
        <time>2020-05-31T08:08:04Z</time>
      </trkpt>
      <trkpt lat="46.405" lon="-0.23256">
        <ele>124.7</ele>
        <time>2020-05-31T08:08:05Z</time>
      </trkpt>
      <trkpt lat="46.40498" lon="-0.23261">
        <ele>124.8</ele>
        <time>2020-05-31T08:08:06Z</time>
      </trkpt>
      <trkpt lat="46.40496" lon="-0.23265">
        <ele>124.9</ele>
        <time>2020-05-31T08:08:07Z</time>
      </trkpt>
      <trkpt lat="46.40495" lon="-0.23268">
        <ele>125</ele>
        <time>2020-05-31T08:08:08Z</time>
      </trkpt>
      <trkpt lat="46.40495" lon="-0.23273">
        <ele>125.1</ele>
        <time>2020-05-31T08:08:09Z</time>
      </trkpt>
      <trkpt lat="46.40493" lon="-0.23276">
        <ele>125.2</ele>
        <time>2020-05-31T08:08:10Z</time>
      </trkpt>
      <trkpt lat="46.40492" lon="-0.2328">
        <ele>125.3</ele>
        <time>2020-05-31T08:08:11Z</time>
      </trkpt>
      <trkpt lat="46.4049" lon="-0.23285">
        <ele>125.5</ele>
        <time>2020-05-31T08:08:12Z</time>
      </trkpt>
      <trkpt lat="46.40489" lon="-0.2329">
        <ele>125.6</ele>
        <time>2020-05-31T08:08:13Z</time>
      </trkpt>
      <trkpt lat="46.40487" lon="-0.23296">
        <ele>125.7</ele>
        <time>2020-05-31T08:08:14Z</time>
      </trkpt>
      <trkpt lat="46.40484" lon="-0.23302">
        <ele>125.8</ele>
        <time>2020-05-31T08:08:15Z</time>
      </trkpt>
      <trkpt lat="46.40483" lon="-0.23306">
        <ele>125.8</ele>
        <time>2020-05-31T08:08:16Z</time>
      </trkpt>
      <trkpt lat="46.4048" lon="-0.23311">
        <ele>125.9</ele>
        <time>2020-05-31T08:08:17Z</time>
      </trkpt>
      <trkpt lat="46.40478" lon="-0.23316">
        <ele>125.9</ele>
        <time>2020-05-31T08:08:18Z</time>
      </trkpt>
      <trkpt lat="46.40475" lon="-0.23321">
        <ele>126</ele>
        <time>2020-05-31T08:08:19Z</time>
      </trkpt>
      <trkpt lat="46.40473" lon="-0.23326">
        <ele>126</ele>
        <time>2020-05-31T08:08:20Z</time>
      </trkpt>
      <trkpt lat="46.4047" lon="-0.23331">
        <ele>126</ele>
        <time>2020-05-31T08:08:21Z</time>
      </trkpt>
      <trkpt lat="46.40467" lon="-0.23337">
        <ele>126</ele>
        <time>2020-05-31T08:08:22Z</time>
      </trkpt>
      <trkpt lat="46.40465" lon="-0.23341">
        <ele>126</ele>
        <time>2020-05-31T08:08:23Z</time>
      </trkpt>
      <trkpt lat="46.40462" lon="-0.23346">
        <ele>126</ele>
        <time>2020-05-31T08:08:24Z</time>
      </trkpt>
      <trkpt lat="46.40458" lon="-0.23351">
        <ele>126</ele>
        <time>2020-05-31T08:08:25Z</time>
      </trkpt>
      <trkpt lat="46.40456" lon="-0.23356">
        <ele>126</ele>
        <time>2020-05-31T08:08:26Z</time>
      </trkpt>
      <trkpt lat="46.40453" lon="-0.23362">
        <ele>126</ele>
        <time>2020-05-31T08:08:27Z</time>
      </trkpt>
      <trkpt lat="46.4045" lon="-0.23368">
        <ele>125.9</ele>
        <time>2020-05-31T08:08:28Z</time>
      </trkpt>
      <trkpt lat="46.40447" lon="-0.23375">
        <ele>125.9</ele>
        <time>2020-05-31T08:08:29Z</time>
      </trkpt>
      <trkpt lat="46.40443" lon="-0.23381">
        <ele>125.8</ele>
        <time>2020-05-31T08:08:30Z</time>
      </trkpt>
      <trkpt lat="46.40439" lon="-0.23387">
        <ele>125.8</ele>
        <time>2020-05-31T08:08:31Z</time>
      </trkpt>
      <trkpt lat="46.40436" lon="-0.23393">
        <ele>125.8</ele>
        <time>2020-05-31T08:08:32Z</time>
      </trkpt>
      <trkpt lat="46.40432" lon="-0.23401">
        <ele>125.7</ele>
        <time>2020-05-31T08:08:33Z</time>
      </trkpt>
      <trkpt lat="46.40428" lon="-0.23407">
        <ele>125.7</ele>
        <time>2020-05-31T08:08:34Z</time>
      </trkpt>
      <trkpt lat="46.40424" lon="-0.23412">
        <ele>125.6</ele>
        <time>2020-05-31T08:08:35Z</time>
      </trkpt>
      <trkpt lat="46.4042" lon="-0.23419">
        <ele>125.6</ele>
        <time>2020-05-31T08:08:36Z</time>
      </trkpt>
      <trkpt lat="46.40415" lon="-0.23426">
        <ele>125.5</ele>
        <time>2020-05-31T08:08:37Z</time>
      </trkpt>
      <trkpt lat="46.40411" lon="-0.23432">
        <ele>125.3</ele>
        <time>2020-05-31T08:08:38Z</time>
      </trkpt>
      <trkpt lat="46.40406" lon="-0.23438">
        <ele>125.2</ele>
        <time>2020-05-31T08:08:39Z</time>
      </trkpt>
      <trkpt lat="46.40402" lon="-0.23444">
        <ele>125</ele>
        <time>2020-05-31T08:08:40Z</time>
      </trkpt>
      <trkpt lat="46.40397" lon="-0.23451">
        <ele>124.8</ele>
        <time>2020-05-31T08:08:41Z</time>
      </trkpt>
      <trkpt lat="46.40393" lon="-0.23455">
        <ele>124.7</ele>
        <time>2020-05-31T08:08:42Z</time>
      </trkpt>
      <trkpt lat="46.40389" lon="-0.23461">
        <ele>124.5</ele>
        <time>2020-05-31T08:08:43Z</time>
      </trkpt>
      <trkpt lat="46.40384" lon="-0.23468">
        <ele>124.3</ele>
        <time>2020-05-31T08:08:44Z</time>
      </trkpt>
      <trkpt lat="46.4038" lon="-0.23474">
        <ele>124.1</ele>
        <time>2020-05-31T08:08:45Z</time>
      </trkpt>
      <trkpt lat="46.40376" lon="-0.23481">
        <ele>123.9</ele>
        <time>2020-05-31T08:08:46Z</time>
      </trkpt>
      <trkpt lat="46.4037" lon="-0.2349">
        <ele>123.7</ele>
        <time>2020-05-31T08:08:47Z</time>
      </trkpt>
      <trkpt lat="46.40366" lon="-0.23495">
        <ele>123.5</ele>
        <time>2020-05-31T08:08:48Z</time>
      </trkpt>
      <trkpt lat="46.40361" lon="-0.23503">
        <ele>123.3</ele>
        <time>2020-05-31T08:08:49Z</time>
      </trkpt>
      <trkpt lat="46.40356" lon="-0.2351">
        <ele>123.1</ele>
        <time>2020-05-31T08:08:50Z</time>
      </trkpt>
      <trkpt lat="46.40353" lon="-0.23518">
        <ele>122.9</ele>
        <time>2020-05-31T08:08:51Z</time>
      </trkpt>
      <trkpt lat="46.40348" lon="-0.23526">
        <ele>122.8</ele>
        <time>2020-05-31T08:08:52Z</time>
      </trkpt>
      <trkpt lat="46.40344" lon="-0.23535">
        <ele>122.6</ele>
        <time>2020-05-31T08:08:53Z</time>
      </trkpt>
      <trkpt lat="46.4034" lon="-0.23544">
        <ele>122.5</ele>
        <time>2020-05-31T08:08:54Z</time>
      </trkpt>
      <trkpt lat="46.40335" lon="-0.23552">
        <ele>122.4</ele>
        <time>2020-05-31T08:08:55Z</time>
      </trkpt>
      <trkpt lat="46.4033" lon="-0.23563">
        <ele>122.2</ele>
        <time>2020-05-31T08:08:56Z</time>
      </trkpt>
      <trkpt lat="46.40325" lon="-0.23572">
        <ele>122.1</ele>
        <time>2020-05-31T08:08:57Z</time>
      </trkpt>
      <trkpt lat="46.40321" lon="-0.23581">
        <ele>122</ele>
        <time>2020-05-31T08:08:58Z</time>
      </trkpt>
      <trkpt lat="46.40317" lon="-0.23589">
        <ele>121.9</ele>
        <time>2020-05-31T08:08:59Z</time>
      </trkpt>
      <trkpt lat="46.40312" lon="-0.23598">
        <ele>121.8</ele>
        <time>2020-05-31T08:09:00Z</time>
      </trkpt>
      <trkpt lat="46.40308" lon="-0.23607">
        <ele>121.7</ele>
        <time>2020-05-31T08:09:01Z</time>
      </trkpt>
      <trkpt lat="46.40303" lon="-0.23615">
        <ele>121.7</ele>
        <time>2020-05-31T08:09:02Z</time>
      </trkpt>
      <trkpt lat="46.40299" lon="-0.23624">
        <ele>121.6</ele>
        <time>2020-05-31T08:09:03Z</time>
      </trkpt>
      <trkpt lat="46.40294" lon="-0.23631">
        <ele>121.6</ele>
        <time>2020-05-31T08:09:04Z</time>
      </trkpt>
      <trkpt lat="46.4029" lon="-0.2364">
        <ele>121.5</ele>
        <time>2020-05-31T08:09:05Z</time>
      </trkpt>
      <trkpt lat="46.40285" lon="-0.23648">
        <ele>121.5</ele>
        <time>2020-05-31T08:09:06Z</time>
      </trkpt>
      <trkpt lat="46.40281" lon="-0.23656">
        <ele>121.5</ele>
        <time>2020-05-31T08:09:07Z</time>
      </trkpt>
      <trkpt lat="46.40277" lon="-0.23664">
        <ele>121.5</ele>
        <time>2020-05-31T08:09:08Z</time>
      </trkpt>
      <trkpt lat="46.40272" lon="-0.23671">
        <ele>121.4</ele>
        <time>2020-05-31T08:09:09Z</time>
      </trkpt>
      <trkpt lat="46.40267" lon="-0.23679">
        <ele>121.4</ele>
        <time>2020-05-31T08:09:10Z</time>
      </trkpt>
      <trkpt lat="46.40263" lon="-0.23686">
        <ele>121.4</ele>
        <time>2020-05-31T08:09:11Z</time>
      </trkpt>
      <trkpt lat="46.40259" lon="-0.23693">
        <ele>121.4</ele>
        <time>2020-05-31T08:09:12Z</time>
      </trkpt>
      <trkpt lat="46.40254" lon="-0.23701">
        <ele>121.4</ele>
        <time>2020-05-31T08:09:13Z</time>
      </trkpt>
      <trkpt lat="46.40251" lon="-0.23708">
        <ele>121.3</ele>
        <time>2020-05-31T08:09:14Z</time>
      </trkpt>
      <trkpt lat="46.40247" lon="-0.23716">
        <ele>121.3</ele>
        <time>2020-05-31T08:09:15Z</time>
      </trkpt>
      <trkpt lat="46.40244" lon="-0.23725">
        <ele>121.2</ele>
        <time>2020-05-31T08:09:16Z</time>
      </trkpt>
      <trkpt lat="46.40241" lon="-0.23734">
        <ele>121.2</ele>
        <time>2020-05-31T08:09:17Z</time>
      </trkpt>
      <trkpt lat="46.4024" lon="-0.23745">
        <ele>121.2</ele>
        <time>2020-05-31T08:09:18Z</time>
      </trkpt>
      <trkpt lat="46.40238" lon="-0.23754">
        <ele>121.2</ele>
        <time>2020-05-31T08:09:19Z</time>
      </trkpt>
      <trkpt lat="46.40237" lon="-0.23764">
        <ele>121.2</ele>
        <time>2020-05-31T08:09:20Z</time>
      </trkpt>
      <trkpt lat="46.40235" lon="-0.23774">
        <ele>121.2</ele>
        <time>2020-05-31T08:09:21Z</time>
      </trkpt>
      <trkpt lat="46.40233" lon="-0.23784">
        <ele>121.2</ele>
        <time>2020-05-31T08:09:22Z</time>
      </trkpt>
      <trkpt lat="46.40232" lon="-0.23794">
        <ele>121.3</ele>
        <time>2020-05-31T08:09:23Z</time>
      </trkpt>
      <trkpt lat="46.40231" lon="-0.23804">
        <ele>121.3</ele>
        <time>2020-05-31T08:09:24Z</time>
      </trkpt>
      <trkpt lat="46.40229" lon="-0.23812">
        <ele>121.4</ele>
        <time>2020-05-31T08:09:25Z</time>
      </trkpt>
      <trkpt lat="46.40227" lon="-0.23821">
        <ele>121.4</ele>
        <time>2020-05-31T08:09:26Z</time>
      </trkpt>
      <trkpt lat="46.40226" lon="-0.23829">
        <ele>121.5</ele>
        <time>2020-05-31T08:09:27Z</time>
      </trkpt>
      <trkpt lat="46.40225" lon="-0.23837">
        <ele>121.5</ele>
        <time>2020-05-31T08:09:28Z</time>
      </trkpt>
      <trkpt lat="46.40224" lon="-0.23845">
        <ele>121.5</ele>
        <time>2020-05-31T08:09:29Z</time>
      </trkpt>
      <trkpt lat="46.40222" lon="-0.23853">
        <ele>121.6</ele>
        <time>2020-05-31T08:09:30Z</time>
      </trkpt>
      <trkpt lat="46.40221" lon="-0.2386">
        <ele>121.6</ele>
        <time>2020-05-31T08:09:31Z</time>
      </trkpt>
      <trkpt lat="46.40221" lon="-0.23868">
        <ele>121.7</ele>
        <time>2020-05-31T08:09:32Z</time>
      </trkpt>
      <trkpt lat="46.40219" lon="-0.23877">
        <ele>121.7</ele>
        <time>2020-05-31T08:09:33Z</time>
      </trkpt>
      <trkpt lat="46.40218" lon="-0.23885">
        <ele>121.7</ele>
        <time>2020-05-31T08:09:34Z</time>
      </trkpt>
      <trkpt lat="46.40216" lon="-0.23893">
        <ele>121.8</ele>
        <time>2020-05-31T08:09:35Z</time>
      </trkpt>
      <trkpt lat="46.40216" lon="-0.23901">
        <ele>121.8</ele>
        <time>2020-05-31T08:09:36Z</time>
      </trkpt>
      <trkpt lat="46.40214" lon="-0.23908">
        <ele>121.8</ele>
        <time>2020-05-31T08:09:37Z</time>
      </trkpt>
      <trkpt lat="46.40212" lon="-0.23916">
        <ele>121.8</ele>
        <time>2020-05-31T08:09:38Z</time>
      </trkpt>
      <trkpt lat="46.4021" lon="-0.23922">
        <ele>121.8</ele>
        <time>2020-05-31T08:09:39Z</time>
      </trkpt>
      <trkpt lat="46.40207" lon="-0.23928">
        <ele>121.8</ele>
        <time>2020-05-31T08:09:40Z</time>
      </trkpt>
      <trkpt lat="46.40205" lon="-0.23934">
        <ele>121.8</ele>
        <time>2020-05-31T08:09:41Z</time>
      </trkpt>
      <trkpt lat="46.40203" lon="-0.23939">
        <ele>121.8</ele>
        <time>2020-05-31T08:09:42Z</time>
      </trkpt>
      <trkpt lat="46.40201" lon="-0.23944">
        <ele>121.8</ele>
        <time>2020-05-31T08:09:43Z</time>
      </trkpt>
      <trkpt lat="46.40199" lon="-0.23949">
        <ele>121.8</ele>
        <time>2020-05-31T08:09:44Z</time>
      </trkpt>
      <trkpt lat="46.40197" lon="-0.23953">
        <ele>121.9</ele>
        <time>2020-05-31T08:09:45Z</time>
      </trkpt>
      <trkpt lat="46.40197" lon="-0.23958">
        <ele>121.9</ele>
        <time>2020-05-31T08:09:46Z</time>
      </trkpt>
      <trkpt lat="46.40196" lon="-0.23961">
        <ele>121.9</ele>
        <time>2020-05-31T08:09:47Z</time>
      </trkpt>
      <trkpt lat="46.40195" lon="-0.23967">
        <ele>121.9</ele>
        <time>2020-05-31T08:09:48Z</time>
      </trkpt>
      <trkpt lat="46.40195" lon="-0.23969">
        <ele>121.9</ele>
        <time>2020-05-31T08:09:49Z</time>
      </trkpt>
      <trkpt lat="46.40193" lon="-0.23973">
        <ele>121.9</ele>
        <time>2020-05-31T08:09:50Z</time>
      </trkpt>
      <trkpt lat="46.40193" lon="-0.23975">
        <ele>121.9</ele>
        <time>2020-05-31T08:09:51Z</time>
      </trkpt>
      <trkpt lat="46.40192" lon="-0.23979">
        <ele>121.9</ele>
        <time>2020-05-31T08:09:52Z</time>
      </trkpt>
      <trkpt lat="46.40191" lon="-0.2398">
        <ele>121.9</ele>
        <time>2020-05-31T08:09:53Z</time>
      </trkpt>
      <trkpt lat="46.4019" lon="-0.23985">
        <ele>121.9</ele>
        <time>2020-05-31T08:09:54Z</time>
      </trkpt>
      <trkpt lat="46.40189" lon="-0.23986">
        <ele>121.9</ele>
        <time>2020-05-31T08:09:55Z</time>
      </trkpt>
      <trkpt lat="46.40187" lon="-0.23991">
        <ele>121.9</ele>
        <time>2020-05-31T08:09:56Z</time>
      </trkpt>
      <trkpt lat="46.40187" lon="-0.23993">
        <ele>121.9</ele>
        <time>2020-05-31T08:09:57Z</time>
      </trkpt>
      <trkpt lat="46.40186" lon="-0.23996">
        <ele>121.9</ele>
        <time>2020-05-31T08:09:58Z</time>
      </trkpt>
      <trkpt lat="46.40184" lon="-0.23999">
        <ele>121.9</ele>
        <time>2020-05-31T08:09:59Z</time>
      </trkpt>
      <trkpt lat="46.40182" lon="-0.24003">
        <ele>121.9</ele>
        <time>2020-05-31T08:10:00Z</time>
      </trkpt>
      <trkpt lat="46.40182" lon="-0.24007">
        <ele>121.9</ele>
        <time>2020-05-31T08:10:01Z</time>
      </trkpt>
      <trkpt lat="46.40181" lon="-0.24009">
        <ele>121.9</ele>
        <time>2020-05-31T08:10:02Z</time>
      </trkpt>
      <trkpt lat="46.4018" lon="-0.24014">
        <ele>121.9</ele>
        <time>2020-05-31T08:10:03Z</time>
      </trkpt>
      <trkpt lat="46.40179" lon="-0.24015">
        <ele>121.9</ele>
        <time>2020-05-31T08:10:04Z</time>
      </trkpt>
      <trkpt lat="46.40178" lon="-0.2402">
        <ele>121.9</ele>
        <time>2020-05-31T08:10:05Z</time>
      </trkpt>
      <trkpt lat="46.40177" lon="-0.24021">
        <ele>121.9</ele>
        <time>2020-05-31T08:10:06Z</time>
      </trkpt>
      <trkpt lat="46.40176" lon="-0.24025">
        <ele>121.8</ele>
        <time>2020-05-31T08:10:07Z</time>
      </trkpt>
      <trkpt lat="46.40175" lon="-0.24028">
        <ele>121.8</ele>
        <time>2020-05-31T08:10:08Z</time>
      </trkpt>
      <trkpt lat="46.40174" lon="-0.24032">
        <ele>121.8</ele>
        <time>2020-05-31T08:10:09Z</time>
      </trkpt>
      <trkpt lat="46.40172" lon="-0.24035">
        <ele>121.7</ele>
        <time>2020-05-31T08:10:10Z</time>
      </trkpt>
      <trkpt lat="46.40172" lon="-0.24039">
        <ele>121.7</ele>
        <time>2020-05-31T08:10:11Z</time>
      </trkpt>
      <trkpt lat="46.40171" lon="-0.24043">
        <ele>121.7</ele>
        <time>2020-05-31T08:10:12Z</time>
      </trkpt>
      <trkpt lat="46.40171" lon="-0.24047">
        <ele>121.6</ele>
        <time>2020-05-31T08:10:13Z</time>
      </trkpt>
      <trkpt lat="46.40171" lon="-0.24052">
        <ele>121.5</ele>
        <time>2020-05-31T08:10:14Z</time>
      </trkpt>
      <trkpt lat="46.40171" lon="-0.24057">
        <ele>121.5</ele>
        <time>2020-05-31T08:10:15Z</time>
      </trkpt>
      <trkpt lat="46.4017" lon="-0.2406">
        <ele>121.4</ele>
        <time>2020-05-31T08:10:16Z</time>
      </trkpt>
      <trkpt lat="46.40169" lon="-0.24065">
        <ele>121.4</ele>
        <time>2020-05-31T08:10:17Z</time>
      </trkpt>
      <trkpt lat="46.40169" lon="-0.24069">
        <ele>121.3</ele>
        <time>2020-05-31T08:10:18Z</time>
      </trkpt>
      <trkpt lat="46.40167" lon="-0.24072">
        <ele>121.3</ele>
        <time>2020-05-31T08:10:19Z</time>
      </trkpt>
      <trkpt lat="46.40166" lon="-0.24077">
        <ele>121.2</ele>
        <time>2020-05-31T08:10:20Z</time>
      </trkpt>
      <trkpt lat="46.40165" lon="-0.24081">
        <ele>121.1</ele>
        <time>2020-05-31T08:10:21Z</time>
      </trkpt>
      <trkpt lat="46.40164" lon="-0.24086">
        <ele>121.1</ele>
        <time>2020-05-31T08:10:22Z</time>
      </trkpt>
      <trkpt lat="46.40163" lon="-0.2409">
        <ele>121</ele>
        <time>2020-05-31T08:10:23Z</time>
      </trkpt>
      <trkpt lat="46.40162" lon="-0.24094">
        <ele>121</ele>
        <time>2020-05-31T08:10:24Z</time>
      </trkpt>
      <trkpt lat="46.40161" lon="-0.24099">
        <ele>120.9</ele>
        <time>2020-05-31T08:10:25Z</time>
      </trkpt>
      <trkpt lat="46.4016" lon="-0.24103">
        <ele>120.9</ele>
        <time>2020-05-31T08:10:26Z</time>
      </trkpt>
      <trkpt lat="46.40159" lon="-0.24107">
        <ele>120.9</ele>
        <time>2020-05-31T08:10:27Z</time>
      </trkpt>
      <trkpt lat="46.40158" lon="-0.24113">
        <ele>120.8</ele>
        <time>2020-05-31T08:10:28Z</time>
      </trkpt>
      <trkpt lat="46.40158" lon="-0.24115">
        <ele>120.8</ele>
        <time>2020-05-31T08:10:29Z</time>
      </trkpt>
      <trkpt lat="46.40159" lon="-0.2412">
        <ele>120.8</ele>
        <time>2020-05-31T08:10:30Z</time>
      </trkpt>
      <trkpt lat="46.40159" lon="-0.24122">
        <ele>120.8</ele>
        <time>2020-05-31T08:10:31Z</time>
      </trkpt>
      <trkpt lat="46.40158" lon="-0.24128">
        <ele>120.7</ele>
        <time>2020-05-31T08:10:32Z</time>
      </trkpt>
      <trkpt lat="46.40158" lon="-0.2413">
        <ele>120.7</ele>
        <time>2020-05-31T08:10:33Z</time>
      </trkpt>
      <trkpt lat="46.40158" lon="-0.24134">
        <ele>120.7</ele>
        <time>2020-05-31T08:10:34Z</time>
      </trkpt>
      <trkpt lat="46.40157" lon="-0.24136">
        <ele>120.7</ele>
        <time>2020-05-31T08:10:35Z</time>
      </trkpt>
      <trkpt lat="46.40156" lon="-0.2414">
        <ele>120.6</ele>
        <time>2020-05-31T08:10:36Z</time>
      </trkpt>
      <trkpt lat="46.40156" lon="-0.24141">
        <ele>120.6</ele>
        <time>2020-05-31T08:10:37Z</time>
      </trkpt>
      <trkpt lat="46.40155" lon="-0.24145">
        <ele>120.6</ele>
        <time>2020-05-31T08:10:38Z</time>
      </trkpt>
      <trkpt lat="46.40154" lon="-0.24147">
        <ele>120.6</ele>
        <time>2020-05-31T08:10:39Z</time>
      </trkpt>
      <trkpt lat="46.40153" lon="-0.2415">
        <ele>120.5</ele>
        <time>2020-05-31T08:10:40Z</time>
      </trkpt>
      <trkpt lat="46.40151" lon="-0.24153">
        <ele>120.5</ele>
        <time>2020-05-31T08:10:41Z</time>
      </trkpt>
      <trkpt lat="46.4015" lon="-0.24158">
        <ele>120.4</ele>
        <time>2020-05-31T08:10:42Z</time>
      </trkpt>
      <trkpt lat="46.4015" lon="-0.2416">
        <ele>120.4</ele>
        <time>2020-05-31T08:10:43Z</time>
      </trkpt>
      <trkpt lat="46.40149" lon="-0.24164">
        <ele>120.4</ele>
        <time>2020-05-31T08:10:44Z</time>
      </trkpt>
      <trkpt lat="46.40149" lon="-0.24165">
        <ele>120.3</ele>
        <time>2020-05-31T08:10:45Z</time>
      </trkpt>
      <trkpt lat="46.40148" lon="-0.24171">
        <ele>120.3</ele>
        <time>2020-05-31T08:10:46Z</time>
      </trkpt>
      <trkpt lat="46.40148" lon="-0.24173">
        <ele>120.2</ele>
        <time>2020-05-31T08:10:47Z</time>
      </trkpt>
      <trkpt lat="46.40148" lon="-0.24178">
        <ele>120.2</ele>
        <time>2020-05-31T08:10:48Z</time>
      </trkpt>
      <trkpt lat="46.40147" lon="-0.24182">
        <ele>120.1</ele>
        <time>2020-05-31T08:10:49Z</time>
      </trkpt>
      <trkpt lat="46.40147" lon="-0.24187">
        <ele>120.1</ele>
        <time>2020-05-31T08:10:50Z</time>
      </trkpt>
      <trkpt lat="46.40147" lon="-0.24191">
        <ele>120</ele>
        <time>2020-05-31T08:10:51Z</time>
      </trkpt>
      <trkpt lat="46.40147" lon="-0.24195">
        <ele>119.9</ele>
        <time>2020-05-31T08:10:52Z</time>
      </trkpt>
      <trkpt lat="46.40147" lon="-0.24201">
        <ele>119.9</ele>
        <time>2020-05-31T08:10:53Z</time>
      </trkpt>
      <trkpt lat="46.40146" lon="-0.24202">
        <ele>119.8</ele>
        <time>2020-05-31T08:10:54Z</time>
      </trkpt>
      <trkpt lat="46.40145" lon="-0.24208">
        <ele>119.8</ele>
        <time>2020-05-31T08:10:55Z</time>
      </trkpt>
      <trkpt lat="46.40145" lon="-0.2421">
        <ele>119.7</ele>
        <time>2020-05-31T08:10:56Z</time>
      </trkpt>
      <trkpt lat="46.40144" lon="-0.24214">
        <ele>119.7</ele>
        <time>2020-05-31T08:10:57Z</time>
      </trkpt>
      <trkpt lat="46.40144" lon="-0.24218">
        <ele>119.6</ele>
        <time>2020-05-31T08:10:58Z</time>
      </trkpt>
      <trkpt lat="46.40143" lon="-0.24223">
        <ele>119.5</ele>
        <time>2020-05-31T08:10:59Z</time>
      </trkpt>
      <trkpt lat="46.40143" lon="-0.24227">
        <ele>119.5</ele>
        <time>2020-05-31T08:11:00Z</time>
      </trkpt>
      <trkpt lat="46.40143" lon="-0.24231">
        <ele>119.4</ele>
        <time>2020-05-31T08:11:01Z</time>
      </trkpt>
      <trkpt lat="46.40142" lon="-0.24236">
        <ele>119.3</ele>
        <time>2020-05-31T08:11:02Z</time>
      </trkpt>
      <trkpt lat="46.40142" lon="-0.24241">
        <ele>119.2</ele>
        <time>2020-05-31T08:11:03Z</time>
      </trkpt>
      <trkpt lat="46.40141" lon="-0.24247">
        <ele>119.1</ele>
        <time>2020-05-31T08:11:04Z</time>
      </trkpt>
      <trkpt lat="46.4014" lon="-0.24252">
        <ele>119.1</ele>
        <time>2020-05-31T08:11:05Z</time>
      </trkpt>
      <trkpt lat="46.40139" lon="-0.24257">
        <ele>119</ele>
        <time>2020-05-31T08:11:06Z</time>
      </trkpt>
      <trkpt lat="46.40137" lon="-0.24261">
        <ele>118.9</ele>
        <time>2020-05-31T08:11:07Z</time>
      </trkpt>
      <trkpt lat="46.40137" lon="-0.24265">
        <ele>118.8</ele>
        <time>2020-05-31T08:11:08Z</time>
      </trkpt>
      <trkpt lat="46.40137" lon="-0.2427">
        <ele>118.8</ele>
        <time>2020-05-31T08:11:09Z</time>
      </trkpt>
      <trkpt lat="46.40136" lon="-0.24275">
        <ele>118.7</ele>
        <time>2020-05-31T08:11:10Z</time>
      </trkpt>
      <trkpt lat="46.40136" lon="-0.2428">
        <ele>118.6</ele>
        <time>2020-05-31T08:11:11Z</time>
      </trkpt>
      <trkpt lat="46.40135" lon="-0.24284">
        <ele>118.5</ele>
        <time>2020-05-31T08:11:12Z</time>
      </trkpt>
      <trkpt lat="46.40135" lon="-0.24288">
        <ele>118.4</ele>
        <time>2020-05-31T08:11:13Z</time>
      </trkpt>
      <trkpt lat="46.40136" lon="-0.24292">
        <ele>118.4</ele>
        <time>2020-05-31T08:11:14Z</time>
      </trkpt>
      <trkpt lat="46.40136" lon="-0.24298">
        <ele>118.2</ele>
        <time>2020-05-31T08:11:15Z</time>
      </trkpt>
      <trkpt lat="46.40135" lon="-0.243">
        <ele>118.2</ele>
        <time>2020-05-31T08:11:16Z</time>
      </trkpt>
      <trkpt lat="46.40135" lon="-0.24305">
        <ele>118.1</ele>
        <time>2020-05-31T08:11:17Z</time>
      </trkpt>
      <trkpt lat="46.40134" lon="-0.2431">
        <ele>118</ele>
        <time>2020-05-31T08:11:18Z</time>
      </trkpt>
      <trkpt lat="46.40134" lon="-0.24314">
        <ele>118</ele>
        <time>2020-05-31T08:11:19Z</time>
      </trkpt>
      <trkpt lat="46.40133" lon="-0.24317">
        <ele>117.9</ele>
        <time>2020-05-31T08:11:20Z</time>
      </trkpt>
      <trkpt lat="46.40131" lon="-0.24322">
        <ele>117.8</ele>
        <time>2020-05-31T08:11:21Z</time>
      </trkpt>
      <trkpt lat="46.40131" lon="-0.24324">
        <ele>117.8</ele>
        <time>2020-05-31T08:11:22Z</time>
      </trkpt>
      <trkpt lat="46.40131" lon="-0.24329">
        <ele>117.7</ele>
        <time>2020-05-31T08:11:23Z</time>
      </trkpt>
      <trkpt lat="46.40131" lon="-0.2433">
        <ele>117.7</ele>
        <time>2020-05-31T08:11:24Z</time>
      </trkpt>
      <trkpt lat="46.40129" lon="-0.24334">
        <ele>117.6</ele>
        <time>2020-05-31T08:11:25Z</time>
      </trkpt>
      <trkpt lat="46.40128" lon="-0.24335">
        <ele>117.5</ele>
        <time>2020-05-31T08:11:26Z</time>
      </trkpt>
      <trkpt lat="46.40127" lon="-0.24337">
        <ele>117.5</ele>
        <time>2020-05-31T08:11:27Z</time>
      </trkpt>
      <trkpt lat="46.40127" lon="-0.24338">
        <ele>117.5</ele>
        <time>2020-05-31T08:11:28Z</time>
      </trkpt>
      <trkpt lat="46.40127" lon="-0.24338">
        <ele>117.5</ele>
        <time>2020-05-31T08:11:29Z</time>
      </trkpt>
      <trkpt lat="46.40126" lon="-0.24338">
        <ele>117.5</ele>
        <time>2020-05-31T08:11:30Z</time>
      </trkpt>
      <trkpt lat="46.40125" lon="-0.24338">
        <ele>117.4</ele>
        <time>2020-05-31T08:11:31Z</time>
      </trkpt>
      <trkpt lat="46.40125" lon="-0.24338">
        <ele>117.4</ele>
        <time>2020-05-31T08:11:32Z</time>
      </trkpt>
      <trkpt lat="46.40125" lon="-0.24338">
        <ele>117.4</ele>
        <time>2020-05-31T08:11:33Z</time>
      </trkpt>
      <trkpt lat="46.40124" lon="-0.24338">
        <ele>117.4</ele>
        <time>2020-05-31T08:11:34Z</time>
      </trkpt>
      <trkpt lat="46.40124" lon="-0.24338">
        <ele>117.4</ele>
        <time>2020-05-31T08:11:35Z</time>
      </trkpt>
      <trkpt lat="46.40123" lon="-0.24339">
        <ele>117.4</ele>
        <time>2020-05-31T08:11:36Z</time>
      </trkpt>
      <trkpt lat="46.40122" lon="-0.2434">
        <ele>117.3</ele>
        <time>2020-05-31T08:11:37Z</time>
      </trkpt>
      <trkpt lat="46.40121" lon="-0.24341">
        <ele>117.3</ele>
        <time>2020-05-31T08:11:38Z</time>
      </trkpt>
      <trkpt lat="46.40119" lon="-0.24342">
        <ele>117.2</ele>
        <time>2020-05-31T08:11:39Z</time>
      </trkpt>
      <trkpt lat="46.40118" lon="-0.24342">
        <ele>117.2</ele>
        <time>2020-05-31T08:11:40Z</time>
      </trkpt>
      <trkpt lat="46.40116" lon="-0.24342">
        <ele>117.2</ele>
        <time>2020-05-31T08:11:41Z</time>
      </trkpt>
      <trkpt lat="46.40115" lon="-0.24342">
        <ele>117.1</ele>
        <time>2020-05-31T08:11:42Z</time>
      </trkpt>
      <trkpt lat="46.40113" lon="-0.24341">
        <ele>117.1</ele>
        <time>2020-05-31T08:11:43Z</time>
      </trkpt>
      <trkpt lat="46.40111" lon="-0.24342">
        <ele>117.1</ele>
        <time>2020-05-31T08:11:44Z</time>
      </trkpt>
      <trkpt lat="46.4011" lon="-0.24342">
        <ele>117</ele>
        <time>2020-05-31T08:11:45Z</time>
      </trkpt>
      <trkpt lat="46.40108" lon="-0.24341">
        <ele>117</ele>
        <time>2020-05-31T08:11:46Z</time>
      </trkpt>
      <trkpt lat="46.40107" lon="-0.2434">
        <ele>117</ele>
        <time>2020-05-31T08:11:47Z</time>
      </trkpt>
      <trkpt lat="46.40106" lon="-0.2434">
        <ele>117</ele>
        <time>2020-05-31T08:11:48Z</time>
      </trkpt>
      <trkpt lat="46.40105" lon="-0.24341">
        <ele>116.9</ele>
        <time>2020-05-31T08:11:49Z</time>
      </trkpt>
      <trkpt lat="46.40103" lon="-0.24341">
        <ele>116.9</ele>
        <time>2020-05-31T08:11:50Z</time>
      </trkpt>
      <trkpt lat="46.40102" lon="-0.24341">
        <ele>116.9</ele>
        <time>2020-05-31T08:11:51Z</time>
      </trkpt>
      <trkpt lat="46.40101" lon="-0.24342">
        <ele>116.9</ele>
        <time>2020-05-31T08:11:52Z</time>
      </trkpt>
      <trkpt lat="46.40101" lon="-0.24341">
        <ele>116.9</ele>
        <time>2020-05-31T08:11:53Z</time>
      </trkpt>
      <trkpt lat="46.401" lon="-0.24341">
        <ele>116.9</ele>
        <time>2020-05-31T08:11:54Z</time>
      </trkpt>
      <trkpt lat="46.40099" lon="-0.24341">
        <ele>116.9</ele>
        <time>2020-05-31T08:11:55Z</time>
      </trkpt>
      <trkpt lat="46.40098" lon="-0.2434">
        <ele>116.8</ele>
        <time>2020-05-31T08:11:56Z</time>
      </trkpt>
      <trkpt lat="46.40097" lon="-0.2434">
        <ele>116.8</ele>
        <time>2020-05-31T08:11:57Z</time>
      </trkpt>
      <trkpt lat="46.40096" lon="-0.24339">
        <ele>116.8</ele>
        <time>2020-05-31T08:11:58Z</time>
      </trkpt>
      <trkpt lat="46.40096" lon="-0.24338">
        <ele>116.8</ele>
        <time>2020-05-31T08:11:59Z</time>
      </trkpt>
      <trkpt lat="46.40096" lon="-0.24338">
        <ele>116.8</ele>
        <time>2020-05-31T08:12:00Z</time>
      </trkpt>
      <trkpt lat="46.40096" lon="-0.24338">
        <ele>116.8</ele>
        <time>2020-05-31T08:12:01Z</time>
      </trkpt>
      <trkpt lat="46.40096" lon="-0.2434">
        <ele>116.8</ele>
        <time>2020-05-31T08:12:02Z</time>
      </trkpt>
      <trkpt lat="46.40095" lon="-0.24341">
        <ele>116.8</ele>
        <time>2020-05-31T08:12:03Z</time>
      </trkpt>
      <trkpt lat="46.40095" lon="-0.24341">
        <ele>116.8</ele>
        <time>2020-05-31T08:12:04Z</time>
      </trkpt>
      <trkpt lat="46.40095" lon="-0.24342">
        <ele>116.7</ele>
        <time>2020-05-31T08:12:05Z</time>
      </trkpt>
      <trkpt lat="46.40095" lon="-0.24342">
        <ele>116.7</ele>
        <time>2020-05-31T08:12:06Z</time>
      </trkpt>
      <trkpt lat="46.40095" lon="-0.24342">
        <ele>116.7</ele>
        <time>2020-05-31T08:12:07Z</time>
      </trkpt>
      <trkpt lat="46.40095" lon="-0.24342">
        <ele>116.7</ele>
        <time>2020-05-31T08:12:08Z</time>
      </trkpt>
      <trkpt lat="46.40095" lon="-0.24342">
        <ele>116.7</ele>
        <time>2020-05-31T08:12:09Z</time>
      </trkpt>
      <trkpt lat="46.40095" lon="-0.24342">
        <ele>116.7</ele>
        <time>2020-05-31T08:12:10Z</time>
      </trkpt>
      <trkpt lat="46.40095" lon="-0.24342">
        <ele>116.7</ele>
        <time>2020-05-31T08:12:11Z</time>
      </trkpt>
      <trkpt lat="46.40095" lon="-0.24342">
        <ele>116.7</ele>
        <time>2020-05-31T08:12:12Z</time>
      </trkpt>
      <trkpt lat="46.40095" lon="-0.24342">
        <ele>116.7</ele>
        <time>2020-05-31T08:12:13Z</time>
      </trkpt>
      <trkpt lat="46.40095" lon="-0.24342">
        <ele>116.7</ele>
        <time>2020-05-31T08:12:14Z</time>
      </trkpt>
      <trkpt lat="46.40095" lon="-0.24342">
        <ele>116.7</ele>
        <time>2020-05-31T08:12:15Z</time>
      </trkpt>
      <trkpt lat="46.40095" lon="-0.24342">
        <ele>116.7</ele>
        <time>2020-05-31T08:12:16Z</time>
      </trkpt>
      <trkpt lat="46.40095" lon="-0.24342">
        <ele>116.7</ele>
        <time>2020-05-31T08:12:17Z</time>
      </trkpt>
      <trkpt lat="46.40095" lon="-0.24342">
        <ele>116.7</ele>
        <time>2020-05-31T08:12:18Z</time>
      </trkpt>
      <trkpt lat="46.40095" lon="-0.24342">
        <ele>116.7</ele>
        <time>2020-05-31T08:12:19Z</time>
      </trkpt>
      <trkpt lat="46.40095" lon="-0.24342">
        <ele>116.7</ele>
        <time>2020-05-31T08:12:20Z</time>
      </trkpt>
      <trkpt lat="46.40095" lon="-0.24342">
        <ele>116.7</ele>
        <time>2020-05-31T08:12:21Z</time>
      </trkpt>
      <trkpt lat="46.40095" lon="-0.24342">
        <ele>116.7</ele>
        <time>2020-05-31T08:12:22Z</time>
      </trkpt>
      <trkpt lat="46.40095" lon="-0.24342">
        <ele>116.7</ele>
        <time>2020-05-31T08:12:23Z</time>
      </trkpt>
      <trkpt lat="46.40095" lon="-0.24342">
        <ele>116.7</ele>
        <time>2020-05-31T08:12:24Z</time>
      </trkpt>
      <trkpt lat="46.40095" lon="-0.24342">
        <ele>116.7</ele>
        <time>2020-05-31T08:12:25Z</time>
      </trkpt>
      <trkpt lat="46.40095" lon="-0.24342">
        <ele>116.7</ele>
        <time>2020-05-31T08:12:26Z</time>
      </trkpt>
      <trkpt lat="46.40095" lon="-0.24342">
        <ele>116.7</ele>
        <time>2020-05-31T08:12:27Z</time>
      </trkpt>
      <trkpt lat="46.40095" lon="-0.24342">
        <ele>116.7</ele>
        <time>2020-05-31T08:12:28Z</time>
      </trkpt>
      <trkpt lat="46.40095" lon="-0.24342">
        <ele>116.7</ele>
        <time>2020-05-31T08:12:29Z</time>
      </trkpt>
      <trkpt lat="46.40095" lon="-0.24342">
        <ele>116.7</ele>
        <time>2020-05-31T08:12:30Z</time>
      </trkpt>
      <trkpt lat="46.40095" lon="-0.24342">
        <ele>116.7</ele>
        <time>2020-05-31T08:12:31Z</time>
      </trkpt>
      <trkpt lat="46.40095" lon="-0.24342">
        <ele>116.7</ele>
        <time>2020-05-31T08:12:32Z</time>
      </trkpt>
      <trkpt lat="46.40095" lon="-0.24342">
        <ele>116.7</ele>
        <time>2020-05-31T08:12:33Z</time>
      </trkpt>
      <trkpt lat="46.40095" lon="-0.24342">
        <ele>116.7</ele>
        <time>2020-05-31T08:12:34Z</time>
      </trkpt>
      <trkpt lat="46.40095" lon="-0.24342">
        <ele>116.7</ele>
        <time>2020-05-31T08:12:35Z</time>
      </trkpt>
      <trkpt lat="46.40095" lon="-0.24342">
        <ele>116.7</ele>
        <time>2020-05-31T08:12:36Z</time>
      </trkpt>
      <trkpt lat="46.40095" lon="-0.24342">
        <ele>116.7</ele>
        <time>2020-05-31T08:12:37Z</time>
      </trkpt>
      <trkpt lat="46.40095" lon="-0.24342">
        <ele>116.7</ele>
        <time>2020-05-31T08:12:38Z</time>
      </trkpt>
      <trkpt lat="46.40095" lon="-0.24343">
        <ele>116.7</ele>
        <time>2020-05-31T08:12:39Z</time>
      </trkpt>
      <trkpt lat="46.40095" lon="-0.24343">
        <ele>116.7</ele>
        <time>2020-05-31T08:12:40Z</time>
      </trkpt>
      <trkpt lat="46.40095" lon="-0.24343">
        <ele>116.7</ele>
        <time>2020-05-31T08:12:41Z</time>
      </trkpt>
      <trkpt lat="46.40095" lon="-0.24343">
        <ele>116.7</ele>
        <time>2020-05-31T08:12:42Z</time>
      </trkpt>
      <trkpt lat="46.40095" lon="-0.24343">
        <ele>116.7</ele>
        <time>2020-05-31T08:12:43Z</time>
      </trkpt>
      <trkpt lat="46.40095" lon="-0.24343">
        <ele>116.7</ele>
        <time>2020-05-31T08:12:44Z</time>
      </trkpt>
      <trkpt lat="46.40095" lon="-0.24343">
        <ele>116.7</ele>
        <time>2020-05-31T08:12:45Z</time>
      </trkpt>
      <trkpt lat="46.40095" lon="-0.24343">
        <ele>116.7</ele>
        <time>2020-05-31T08:12:46Z</time>
      </trkpt>
      <trkpt lat="46.40095" lon="-0.24343">
        <ele>116.7</ele>
        <time>2020-05-31T08:12:47Z</time>
      </trkpt>
      <trkpt lat="46.40095" lon="-0.24343">
        <ele>116.7</ele>
        <time>2020-05-31T08:12:48Z</time>
      </trkpt>
      <trkpt lat="46.40095" lon="-0.24343">
        <ele>116.7</ele>
        <time>2020-05-31T08:12:49Z</time>
      </trkpt>
      <trkpt lat="46.40095" lon="-0.24343">
        <ele>116.7</ele>
        <time>2020-05-31T08:12:50Z</time>
      </trkpt>
      <trkpt lat="46.40095" lon="-0.24343">
        <ele>116.7</ele>
        <time>2020-05-31T08:12:51Z</time>
      </trkpt>
      <trkpt lat="46.40095" lon="-0.24343">
        <ele>116.7</ele>
        <time>2020-05-31T08:12:52Z</time>
      </trkpt>
      <trkpt lat="46.40095" lon="-0.24343">
        <ele>116.7</ele>
        <time>2020-05-31T08:12:53Z</time>
      </trkpt>
      <trkpt lat="46.40095" lon="-0.24343">
        <ele>116.7</ele>
        <time>2020-05-31T08:12:54Z</time>
      </trkpt>
      <trkpt lat="46.40095" lon="-0.24343">
        <ele>116.7</ele>
        <time>2020-05-31T08:12:55Z</time>
      </trkpt>
      <trkpt lat="46.40095" lon="-0.24343">
        <ele>116.7</ele>
        <time>2020-05-31T08:12:56Z</time>
      </trkpt>
      <trkpt lat="46.40095" lon="-0.24343">
        <ele>116.7</ele>
        <time>2020-05-31T08:12:57Z</time>
      </trkpt>
      <trkpt lat="46.40095" lon="-0.24343">
        <ele>116.7</ele>
        <time>2020-05-31T08:12:58Z</time>
      </trkpt>
      <trkpt lat="46.40094" lon="-0.24343">
        <ele>116.7</ele>
        <time>2020-05-31T08:12:59Z</time>
      </trkpt>
      <trkpt lat="46.40094" lon="-0.24343">
        <ele>116.7</ele>
        <time>2020-05-31T08:13:00Z</time>
      </trkpt>
      <trkpt lat="46.40094" lon="-0.24343">
        <ele>116.7</ele>
        <time>2020-05-31T08:13:01Z</time>
      </trkpt>
      <trkpt lat="46.40094" lon="-0.24343">
        <ele>116.7</ele>
        <time>2020-05-31T08:13:02Z</time>
      </trkpt>
      <trkpt lat="46.40094" lon="-0.24343">
        <ele>116.7</ele>
        <time>2020-05-31T08:13:03Z</time>
      </trkpt>
      <trkpt lat="46.40094" lon="-0.24343">
        <ele>116.7</ele>
        <time>2020-05-31T08:13:04Z</time>
      </trkpt>
      <trkpt lat="46.40094" lon="-0.24343">
        <ele>116.7</ele>
        <time>2020-05-31T08:13:05Z</time>
      </trkpt>
      <trkpt lat="46.40094" lon="-0.24343">
        <ele>116.7</ele>
        <time>2020-05-31T08:13:06Z</time>
      </trkpt>
      <trkpt lat="46.40094" lon="-0.24343">
        <ele>116.7</ele>
        <time>2020-05-31T08:13:07Z</time>
      </trkpt>
      <trkpt lat="46.40094" lon="-0.24343">
        <ele>116.7</ele>
        <time>2020-05-31T08:13:08Z</time>
      </trkpt>
      <trkpt lat="46.40094" lon="-0.24343">
        <ele>116.7</ele>
        <time>2020-05-31T08:13:09Z</time>
      </trkpt>
      <trkpt lat="46.40094" lon="-0.24343">
        <ele>116.7</ele>
        <time>2020-05-31T08:13:10Z</time>
      </trkpt>
      <trkpt lat="46.40094" lon="-0.24343">
        <ele>116.7</ele>
        <time>2020-05-31T08:13:11Z</time>
      </trkpt>
      <trkpt lat="46.40094" lon="-0.24343">
        <ele>116.7</ele>
        <time>2020-05-31T08:13:12Z</time>
      </trkpt>
      <trkpt lat="46.40094" lon="-0.24343">
        <ele>116.7</ele>
        <time>2020-05-31T08:13:13Z</time>
      </trkpt>
      <trkpt lat="46.40094" lon="-0.24343">
        <ele>116.7</ele>
        <time>2020-05-31T08:13:14Z</time>
      </trkpt>
      <trkpt lat="46.40094" lon="-0.24343">
        <ele>116.7</ele>
        <time>2020-05-31T08:13:15Z</time>
      </trkpt>
      <trkpt lat="46.40094" lon="-0.24343">
        <ele>116.7</ele>
        <time>2020-05-31T08:13:16Z</time>
      </trkpt>
      <trkpt lat="46.40094" lon="-0.24343">
        <ele>116.7</ele>
        <time>2020-05-31T08:13:17Z</time>
      </trkpt>
      <trkpt lat="46.40094" lon="-0.24343">
        <ele>116.7</ele>
        <time>2020-05-31T08:13:18Z</time>
      </trkpt>
      <trkpt lat="46.40094" lon="-0.24344">
        <ele>116.7</ele>
        <time>2020-05-31T08:13:19Z</time>
      </trkpt>
      <trkpt lat="46.40094" lon="-0.24344">
        <ele>116.7</ele>
        <time>2020-05-31T08:13:20Z</time>
      </trkpt>
      <trkpt lat="46.40094" lon="-0.24344">
        <ele>116.7</ele>
        <time>2020-05-31T08:13:21Z</time>
      </trkpt>
      <trkpt lat="46.40094" lon="-0.24344">
        <ele>116.7</ele>
        <time>2020-05-31T08:13:22Z</time>
      </trkpt>
      <trkpt lat="46.40094" lon="-0.24344">
        <ele>116.7</ele>
        <time>2020-05-31T08:13:23Z</time>
      </trkpt>
      <trkpt lat="46.40094" lon="-0.24344">
        <ele>116.7</ele>
        <time>2020-05-31T08:13:24Z</time>
      </trkpt>
      <trkpt lat="46.40094" lon="-0.24344">
        <ele>116.7</ele>
        <time>2020-05-31T08:13:25Z</time>
      </trkpt>
      <trkpt lat="46.40094" lon="-0.24344">
        <ele>116.7</ele>
        <time>2020-05-31T08:13:26Z</time>
      </trkpt>
      <trkpt lat="46.40094" lon="-0.24344">
        <ele>116.7</ele>
        <time>2020-05-31T08:13:27Z</time>
      </trkpt>
      <trkpt lat="46.40094" lon="-0.24344">
        <ele>116.7</ele>
        <time>2020-05-31T08:13:28Z</time>
      </trkpt>
      <trkpt lat="46.40094" lon="-0.24344">
        <ele>116.7</ele>
        <time>2020-05-31T08:13:29Z</time>
      </trkpt>
      <trkpt lat="46.40094" lon="-0.24344">
        <ele>116.7</ele>
        <time>2020-05-31T08:13:30Z</time>
      </trkpt>
      <trkpt lat="46.40094" lon="-0.24344">
        <ele>116.7</ele>
        <time>2020-05-31T08:13:31Z</time>
      </trkpt>
      <trkpt lat="46.40094" lon="-0.24344">
        <ele>116.7</ele>
        <time>2020-05-31T08:13:32Z</time>
      </trkpt>
      <trkpt lat="46.40094" lon="-0.24344">
        <ele>116.7</ele>
        <time>2020-05-31T08:13:33Z</time>
      </trkpt>
      <trkpt lat="46.40094" lon="-0.24344">
        <ele>116.7</ele>
        <time>2020-05-31T08:13:34Z</time>
      </trkpt>
      <trkpt lat="46.40094" lon="-0.24344">
        <ele>116.7</ele>
        <time>2020-05-31T08:13:35Z</time>
      </trkpt>
      <trkpt lat="46.40094" lon="-0.24344">
        <ele>116.7</ele>
        <time>2020-05-31T08:13:36Z</time>
      </trkpt>
      <trkpt lat="46.40094" lon="-0.24344">
        <ele>116.7</ele>
        <time>2020-05-31T08:13:37Z</time>
      </trkpt>
      <trkpt lat="46.40094" lon="-0.24344">
        <ele>116.7</ele>
        <time>2020-05-31T08:13:38Z</time>
      </trkpt>
      <trkpt lat="46.40094" lon="-0.24344">
        <ele>116.7</ele>
        <time>2020-05-31T08:13:39Z</time>
      </trkpt>
      <trkpt lat="46.40094" lon="-0.24344">
        <ele>116.7</ele>
        <time>2020-05-31T08:13:40Z</time>
      </trkpt>
      <trkpt lat="46.40094" lon="-0.24344">
        <ele>116.7</ele>
        <time>2020-05-31T08:13:41Z</time>
      </trkpt>
      <trkpt lat="46.40094" lon="-0.24344">
        <ele>116.7</ele>
        <time>2020-05-31T08:13:42Z</time>
      </trkpt>
      <trkpt lat="46.40094" lon="-0.24344">
        <ele>116.7</ele>
        <time>2020-05-31T08:13:43Z</time>
      </trkpt>
      <trkpt lat="46.40094" lon="-0.24344">
        <ele>116.7</ele>
        <time>2020-05-31T08:13:44Z</time>
      </trkpt>
      <trkpt lat="46.40094" lon="-0.24344">
        <ele>116.7</ele>
        <time>2020-05-31T08:13:45Z</time>
      </trkpt>
      <trkpt lat="46.40094" lon="-0.24344">
        <ele>116.7</ele>
        <time>2020-05-31T08:13:46Z</time>
      </trkpt>
      <trkpt lat="46.40094" lon="-0.24344">
        <ele>116.7</ele>
        <time>2020-05-31T08:13:47Z</time>
      </trkpt>
      <trkpt lat="46.40094" lon="-0.24344">
        <ele>116.7</ele>
        <time>2020-05-31T08:13:48Z</time>
      </trkpt>
      <trkpt lat="46.40094" lon="-0.24344">
        <ele>116.7</ele>
        <time>2020-05-31T08:13:49Z</time>
      </trkpt>
      <trkpt lat="46.40094" lon="-0.24344">
        <ele>116.7</ele>
        <time>2020-05-31T08:13:50Z</time>
      </trkpt>
      <trkpt lat="46.40094" lon="-0.24344">
        <ele>116.7</ele>
        <time>2020-05-31T08:13:51Z</time>
      </trkpt>
      <trkpt lat="46.40094" lon="-0.24344">
        <ele>116.7</ele>
        <time>2020-05-31T08:13:52Z</time>
      </trkpt>
      <trkpt lat="46.40094" lon="-0.24344">
        <ele>116.7</ele>
        <time>2020-05-31T08:13:53Z</time>
      </trkpt>
      <trkpt lat="46.40094" lon="-0.24344">
        <ele>116.7</ele>
        <time>2020-05-31T08:13:54Z</time>
      </trkpt>
      <trkpt lat="46.40094" lon="-0.24344">
        <ele>116.7</ele>
        <time>2020-05-31T08:13:55Z</time>
      </trkpt>
      <trkpt lat="46.40094" lon="-0.24344">
        <ele>116.7</ele>
        <time>2020-05-31T08:13:56Z</time>
      </trkpt>
      <trkpt lat="46.40094" lon="-0.24344">
        <ele>116.7</ele>
        <time>2020-05-31T08:13:57Z</time>
      </trkpt>
      <trkpt lat="46.40094" lon="-0.24344">
        <ele>116.7</ele>
        <time>2020-05-31T08:13:58Z</time>
      </trkpt>
      <trkpt lat="46.40094" lon="-0.24345">
        <ele>116.7</ele>
        <time>2020-05-31T08:13:59Z</time>
      </trkpt>
      <trkpt lat="46.40094" lon="-0.24345">
        <ele>116.7</ele>
        <time>2020-05-31T08:14:00Z</time>
      </trkpt>
      <trkpt lat="46.40094" lon="-0.24345">
        <ele>116.7</ele>
        <time>2020-05-31T08:14:01Z</time>
      </trkpt>
      <trkpt lat="46.40094" lon="-0.24345">
        <ele>116.7</ele>
        <time>2020-05-31T08:14:02Z</time>
      </trkpt>
      <trkpt lat="46.40094" lon="-0.24345">
        <ele>116.7</ele>
        <time>2020-05-31T08:14:03Z</time>
      </trkpt>
      <trkpt lat="46.40094" lon="-0.24345">
        <ele>116.7</ele>
        <time>2020-05-31T08:14:04Z</time>
      </trkpt>
      <trkpt lat="46.40094" lon="-0.24345">
        <ele>116.7</ele>
        <time>2020-05-31T08:14:05Z</time>
      </trkpt>
      <trkpt lat="46.40094" lon="-0.24345">
        <ele>116.7</ele>
        <time>2020-05-31T08:14:06Z</time>
      </trkpt>
      <trkpt lat="46.40094" lon="-0.24345">
        <ele>116.7</ele>
        <time>2020-05-31T08:14:07Z</time>
      </trkpt>
      <trkpt lat="46.40094" lon="-0.24345">
        <ele>116.7</ele>
        <time>2020-05-31T08:14:08Z</time>
      </trkpt>
      <trkpt lat="46.40094" lon="-0.24345">
        <ele>116.7</ele>
        <time>2020-05-31T08:14:09Z</time>
      </trkpt>
      <trkpt lat="46.40094" lon="-0.24345">
        <ele>116.7</ele>
        <time>2020-05-31T08:14:10Z</time>
      </trkpt>
      <trkpt lat="46.40094" lon="-0.24345">
        <ele>116.7</ele>
        <time>2020-05-31T08:14:11Z</time>
      </trkpt>
      <trkpt lat="46.40094" lon="-0.24345">
        <ele>116.7</ele>
        <time>2020-05-31T08:14:12Z</time>
      </trkpt>
      <trkpt lat="46.40094" lon="-0.24345">
        <ele>116.7</ele>
        <time>2020-05-31T08:14:13Z</time>
      </trkpt>
      <trkpt lat="46.40094" lon="-0.24345">
        <ele>116.7</ele>
        <time>2020-05-31T08:14:14Z</time>
      </trkpt>
      <trkpt lat="46.40094" lon="-0.24345">
        <ele>116.7</ele>
        <time>2020-05-31T08:14:15Z</time>
      </trkpt>
      <trkpt lat="46.40094" lon="-0.24345">
        <ele>116.7</ele>
        <time>2020-05-31T08:14:16Z</time>
      </trkpt>
      <trkpt lat="46.40094" lon="-0.24345">
        <ele>116.7</ele>
        <time>2020-05-31T08:14:17Z</time>
      </trkpt>
      <trkpt lat="46.40094" lon="-0.24345">
        <ele>116.7</ele>
        <time>2020-05-31T08:14:18Z</time>
      </trkpt>
      <trkpt lat="46.40094" lon="-0.24345">
        <ele>116.7</ele>
        <time>2020-05-31T08:14:19Z</time>
      </trkpt>
      <trkpt lat="46.40094" lon="-0.24345">
        <ele>116.7</ele>
        <time>2020-05-31T08:14:20Z</time>
      </trkpt>
      <trkpt lat="46.40094" lon="-0.24345">
        <ele>116.7</ele>
        <time>2020-05-31T08:14:21Z</time>
      </trkpt>
      <trkpt lat="46.40094" lon="-0.24345">
        <ele>116.7</ele>
        <time>2020-05-31T08:14:22Z</time>
      </trkpt>
      <trkpt lat="46.40094" lon="-0.24345">
        <ele>116.7</ele>
        <time>2020-05-31T08:14:23Z</time>
      </trkpt>
      <trkpt lat="46.40094" lon="-0.24345">
        <ele>116.7</ele>
        <time>2020-05-31T08:14:24Z</time>
      </trkpt>
      <trkpt lat="46.40094" lon="-0.24345">
        <ele>116.7</ele>
        <time>2020-05-31T08:14:25Z</time>
      </trkpt>
      <trkpt lat="46.40094" lon="-0.24345">
        <ele>116.7</ele>
        <time>2020-05-31T08:14:26Z</time>
      </trkpt>
      <trkpt lat="46.40094" lon="-0.24345">
        <ele>116.7</ele>
        <time>2020-05-31T08:14:27Z</time>
      </trkpt>
      <trkpt lat="46.40094" lon="-0.24345">
        <ele>116.7</ele>
        <time>2020-05-31T08:14:28Z</time>
      </trkpt>
      <trkpt lat="46.40094" lon="-0.24345">
        <ele>116.7</ele>
        <time>2020-05-31T08:14:29Z</time>
      </trkpt>
      <trkpt lat="46.40094" lon="-0.24345">
        <ele>116.7</ele>
        <time>2020-05-31T08:14:30Z</time>
      </trkpt>
      <trkpt lat="46.40094" lon="-0.24345">
        <ele>116.7</ele>
        <time>2020-05-31T08:14:31Z</time>
      </trkpt>
      <trkpt lat="46.40094" lon="-0.24345">
        <ele>116.7</ele>
        <time>2020-05-31T08:14:32Z</time>
      </trkpt>
      <trkpt lat="46.40094" lon="-0.24345">
        <ele>116.7</ele>
        <time>2020-05-31T08:14:33Z</time>
      </trkpt>
      <trkpt lat="46.40094" lon="-0.24345">
        <ele>116.7</ele>
        <time>2020-05-31T08:14:34Z</time>
      </trkpt>
      <trkpt lat="46.40094" lon="-0.24345">
        <ele>116.7</ele>
        <time>2020-05-31T08:14:35Z</time>
      </trkpt>
      <trkpt lat="46.40094" lon="-0.24345">
        <ele>116.7</ele>
        <time>2020-05-31T08:14:36Z</time>
      </trkpt>
      <trkpt lat="46.40094" lon="-0.24345">
        <ele>116.7</ele>
        <time>2020-05-31T08:14:37Z</time>
      </trkpt>
      <trkpt lat="46.40094" lon="-0.24346">
        <ele>116.7</ele>
        <time>2020-05-31T08:14:38Z</time>
      </trkpt>
      <trkpt lat="46.40094" lon="-0.24346">
        <ele>116.7</ele>
        <time>2020-05-31T08:14:39Z</time>
      </trkpt>
      <trkpt lat="46.40094" lon="-0.24346">
        <ele>116.7</ele>
        <time>2020-05-31T08:14:40Z</time>
      </trkpt>
      <trkpt lat="46.40094" lon="-0.24346">
        <ele>116.7</ele>
        <time>2020-05-31T08:14:41Z</time>
      </trkpt>
      <trkpt lat="46.40094" lon="-0.24346">
        <ele>116.7</ele>
        <time>2020-05-31T08:14:42Z</time>
      </trkpt>
      <trkpt lat="46.40094" lon="-0.24346">
        <ele>116.7</ele>
        <time>2020-05-31T08:14:43Z</time>
      </trkpt>
      <trkpt lat="46.40094" lon="-0.24346">
        <ele>116.7</ele>
        <time>2020-05-31T08:14:44Z</time>
      </trkpt>
      <trkpt lat="46.40094" lon="-0.24346">
        <ele>116.7</ele>
        <time>2020-05-31T08:14:45Z</time>
      </trkpt>
      <trkpt lat="46.40094" lon="-0.24346">
        <ele>116.7</ele>
        <time>2020-05-31T08:14:46Z</time>
      </trkpt>
      <trkpt lat="46.40094" lon="-0.24346">
        <ele>116.7</ele>
        <time>2020-05-31T08:14:47Z</time>
      </trkpt>
      <trkpt lat="46.40094" lon="-0.24346">
        <ele>116.7</ele>
        <time>2020-05-31T08:14:48Z</time>
      </trkpt>
      <trkpt lat="46.40094" lon="-0.24346">
        <ele>116.7</ele>
        <time>2020-05-31T08:14:49Z</time>
      </trkpt>
      <trkpt lat="46.40094" lon="-0.24346">
        <ele>116.7</ele>
        <time>2020-05-31T08:14:50Z</time>
      </trkpt>
      <trkpt lat="46.40094" lon="-0.24346">
        <ele>116.7</ele>
        <time>2020-05-31T08:14:51Z</time>
      </trkpt>
      <trkpt lat="46.40094" lon="-0.24346">
        <ele>116.7</ele>
        <time>2020-05-31T08:14:52Z</time>
      </trkpt>
      <trkpt lat="46.40094" lon="-0.24346">
        <ele>116.7</ele>
        <time>2020-05-31T08:14:53Z</time>
      </trkpt>
      <trkpt lat="46.40094" lon="-0.24346">
        <ele>116.7</ele>
        <time>2020-05-31T08:14:54Z</time>
      </trkpt>
      <trkpt lat="46.40094" lon="-0.24346">
        <ele>116.7</ele>
        <time>2020-05-31T08:14:55Z</time>
      </trkpt>
      <trkpt lat="46.40094" lon="-0.24346">
        <ele>116.7</ele>
        <time>2020-05-31T08:14:56Z</time>
      </trkpt>
      <trkpt lat="46.40094" lon="-0.24346">
        <ele>116.7</ele>
        <time>2020-05-31T08:14:57Z</time>
      </trkpt>
      <trkpt lat="46.40094" lon="-0.24346">
        <ele>116.7</ele>
        <time>2020-05-31T08:14:58Z</time>
      </trkpt>
      <trkpt lat="46.40094" lon="-0.24346">
        <ele>116.7</ele>
        <time>2020-05-31T08:14:59Z</time>
      </trkpt>
      <trkpt lat="46.40094" lon="-0.24346">
        <ele>116.7</ele>
        <time>2020-05-31T08:15:00Z</time>
      </trkpt>
      <trkpt lat="46.40094" lon="-0.24346">
        <ele>116.8</ele>
        <time>2020-05-31T08:15:01Z</time>
      </trkpt>
      <trkpt lat="46.40094" lon="-0.24346">
        <ele>116.8</ele>
        <time>2020-05-31T08:15:02Z</time>
      </trkpt>
      <trkpt lat="46.40094" lon="-0.24346">
        <ele>116.8</ele>
        <time>2020-05-31T08:15:03Z</time>
      </trkpt>
      <trkpt lat="46.40094" lon="-0.24346">
        <ele>116.8</ele>
        <time>2020-05-31T08:15:04Z</time>
      </trkpt>
      <trkpt lat="46.40094" lon="-0.24346">
        <ele>116.8</ele>
        <time>2020-05-31T08:15:05Z</time>
      </trkpt>
      <trkpt lat="46.40094" lon="-0.24346">
        <ele>116.8</ele>
        <time>2020-05-31T08:15:06Z</time>
      </trkpt>
      <trkpt lat="46.40094" lon="-0.24346">
        <ele>116.8</ele>
        <time>2020-05-31T08:15:07Z</time>
      </trkpt>
      <trkpt lat="46.40094" lon="-0.24346">
        <ele>116.8</ele>
        <time>2020-05-31T08:15:08Z</time>
      </trkpt>
      <trkpt lat="46.40094" lon="-0.24346">
        <ele>116.8</ele>
        <time>2020-05-31T08:15:09Z</time>
      </trkpt>
      <trkpt lat="46.40094" lon="-0.24346">
        <ele>116.8</ele>
        <time>2020-05-31T08:15:10Z</time>
      </trkpt>
      <trkpt lat="46.40094" lon="-0.24346">
        <ele>116.8</ele>
        <time>2020-05-31T08:15:11Z</time>
      </trkpt>
      <trkpt lat="46.40094" lon="-0.24346">
        <ele>116.8</ele>
        <time>2020-05-31T08:15:12Z</time>
      </trkpt>
      <trkpt lat="46.40094" lon="-0.24346">
        <ele>116.8</ele>
        <time>2020-05-31T08:15:13Z</time>
      </trkpt>
      <trkpt lat="46.40094" lon="-0.24346">
        <ele>116.8</ele>
        <time>2020-05-31T08:15:14Z</time>
      </trkpt>
      <trkpt lat="46.40094" lon="-0.24346">
        <ele>116.8</ele>
        <time>2020-05-31T08:15:15Z</time>
      </trkpt>
      <trkpt lat="46.40094" lon="-0.24346">
        <ele>116.8</ele>
        <time>2020-05-31T08:15:16Z</time>
      </trkpt>
      <trkpt lat="46.40094" lon="-0.24346">
        <ele>116.8</ele>
        <time>2020-05-31T08:15:17Z</time>
      </trkpt>
      <trkpt lat="46.40094" lon="-0.24347">
        <ele>116.8</ele>
        <time>2020-05-31T08:15:18Z</time>
      </trkpt>
      <trkpt lat="46.40094" lon="-0.24347">
        <ele>116.8</ele>
        <time>2020-05-31T08:15:19Z</time>
      </trkpt>
      <trkpt lat="46.40094" lon="-0.24347">
        <ele>116.8</ele>
        <time>2020-05-31T08:15:20Z</time>
      </trkpt>
      <trkpt lat="46.40094" lon="-0.24347">
        <ele>116.8</ele>
        <time>2020-05-31T08:15:21Z</time>
      </trkpt>
      <trkpt lat="46.40094" lon="-0.24347">
        <ele>116.9</ele>
        <time>2020-05-31T08:15:22Z</time>
      </trkpt>
      <trkpt lat="46.40094" lon="-0.24347">
        <ele>116.9</ele>
        <time>2020-05-31T08:15:23Z</time>
      </trkpt>
      <trkpt lat="46.40094" lon="-0.24347">
        <ele>116.9</ele>
        <time>2020-05-31T08:15:24Z</time>
      </trkpt>
      <trkpt lat="46.40094" lon="-0.24347">
        <ele>116.9</ele>
        <time>2020-05-31T08:15:25Z</time>
      </trkpt>
      <trkpt lat="46.40094" lon="-0.24347">
        <ele>116.9</ele>
        <time>2020-05-31T08:15:26Z</time>
      </trkpt>
      <trkpt lat="46.40094" lon="-0.24347">
        <ele>116.9</ele>
        <time>2020-05-31T08:15:27Z</time>
      </trkpt>
      <trkpt lat="46.40094" lon="-0.24347">
        <ele>116.9</ele>
        <time>2020-05-31T08:15:28Z</time>
      </trkpt>
      <trkpt lat="46.40094" lon="-0.24347">
        <ele>116.9</ele>
        <time>2020-05-31T08:15:29Z</time>
      </trkpt>
      <trkpt lat="46.40094" lon="-0.24347">
        <ele>116.9</ele>
        <time>2020-05-31T08:15:30Z</time>
      </trkpt>
      <trkpt lat="46.40094" lon="-0.24347">
        <ele>116.9</ele>
        <time>2020-05-31T08:15:31Z</time>
      </trkpt>
      <trkpt lat="46.40094" lon="-0.24347">
        <ele>116.9</ele>
        <time>2020-05-31T08:15:32Z</time>
      </trkpt>
      <trkpt lat="46.40094" lon="-0.24347">
        <ele>116.9</ele>
        <time>2020-05-31T08:15:33Z</time>
      </trkpt>
      <trkpt lat="46.40094" lon="-0.24347">
        <ele>116.9</ele>
        <time>2020-05-31T08:15:34Z</time>
      </trkpt>
      <trkpt lat="46.40094" lon="-0.24347">
        <ele>116.9</ele>
        <time>2020-05-31T08:15:35Z</time>
      </trkpt>
      <trkpt lat="46.40094" lon="-0.24347">
        <ele>116.9</ele>
        <time>2020-05-31T08:15:36Z</time>
      </trkpt>
      <trkpt lat="46.40094" lon="-0.24347">
        <ele>116.9</ele>
        <time>2020-05-31T08:15:37Z</time>
      </trkpt>
      <trkpt lat="46.40094" lon="-0.24347">
        <ele>116.9</ele>
        <time>2020-05-31T08:15:38Z</time>
      </trkpt>
      <trkpt lat="46.40094" lon="-0.24347">
        <ele>116.9</ele>
        <time>2020-05-31T08:15:39Z</time>
      </trkpt>
      <trkpt lat="46.40094" lon="-0.24347">
        <ele>116.9</ele>
        <time>2020-05-31T08:15:40Z</time>
      </trkpt>
      <trkpt lat="46.40094" lon="-0.24347">
        <ele>116.9</ele>
        <time>2020-05-31T08:15:41Z</time>
      </trkpt>
      <trkpt lat="46.40094" lon="-0.24347">
        <ele>117</ele>
        <time>2020-05-31T08:15:42Z</time>
      </trkpt>
      <trkpt lat="46.40094" lon="-0.24347">
        <ele>117</ele>
        <time>2020-05-31T08:15:43Z</time>
      </trkpt>
      <trkpt lat="46.40094" lon="-0.24347">
        <ele>117</ele>
        <time>2020-05-31T08:15:44Z</time>
      </trkpt>
      <trkpt lat="46.40094" lon="-0.24347">
        <ele>117</ele>
        <time>2020-05-31T08:15:45Z</time>
      </trkpt>
      <trkpt lat="46.40094" lon="-0.24347">
        <ele>117</ele>
        <time>2020-05-31T08:15:46Z</time>
      </trkpt>
      <trkpt lat="46.40094" lon="-0.24347">
        <ele>117</ele>
        <time>2020-05-31T08:15:47Z</time>
      </trkpt>
      <trkpt lat="46.40094" lon="-0.24347">
        <ele>117</ele>
        <time>2020-05-31T08:15:48Z</time>
      </trkpt>
      <trkpt lat="46.40094" lon="-0.24347">
        <ele>117</ele>
        <time>2020-05-31T08:15:49Z</time>
      </trkpt>
      <trkpt lat="46.40094" lon="-0.24347">
        <ele>117</ele>
        <time>2020-05-31T08:15:50Z</time>
      </trkpt>
      <trkpt lat="46.40094" lon="-0.24347">
        <ele>117</ele>
        <time>2020-05-31T08:15:51Z</time>
      </trkpt>
      <trkpt lat="46.40094" lon="-0.24347">
        <ele>117</ele>
        <time>2020-05-31T08:15:52Z</time>
      </trkpt>
      <trkpt lat="46.40094" lon="-0.24347">
        <ele>117</ele>
        <time>2020-05-31T08:15:53Z</time>
      </trkpt>
      <trkpt lat="46.40094" lon="-0.24347">
        <ele>117</ele>
        <time>2020-05-31T08:15:54Z</time>
      </trkpt>
      <trkpt lat="46.40094" lon="-0.24347">
        <ele>117</ele>
        <time>2020-05-31T08:15:55Z</time>
      </trkpt>
      <trkpt lat="46.40094" lon="-0.24347">
        <ele>117</ele>
        <time>2020-05-31T08:15:56Z</time>
      </trkpt>
      <trkpt lat="46.40094" lon="-0.24347">
        <ele>117</ele>
        <time>2020-05-31T08:15:57Z</time>
      </trkpt>
      <trkpt lat="46.40094" lon="-0.24348">
        <ele>117</ele>
        <time>2020-05-31T08:15:58Z</time>
      </trkpt>
      <trkpt lat="46.40094" lon="-0.24348">
        <ele>117</ele>
        <time>2020-05-31T08:15:59Z</time>
      </trkpt>
      <trkpt lat="46.40094" lon="-0.24348">
        <ele>117</ele>
        <time>2020-05-31T08:16:00Z</time>
      </trkpt>
      <trkpt lat="46.40094" lon="-0.24348">
        <ele>117</ele>
        <time>2020-05-31T08:16:01Z</time>
      </trkpt>
      <trkpt lat="46.40094" lon="-0.24348">
        <ele>117.1</ele>
        <time>2020-05-31T08:16:02Z</time>
      </trkpt>
      <trkpt lat="46.40094" lon="-0.24348">
        <ele>117.1</ele>
        <time>2020-05-31T08:16:03Z</time>
      </trkpt>
      <trkpt lat="46.40094" lon="-0.24348">
        <ele>117.1</ele>
        <time>2020-05-31T08:16:04Z</time>
      </trkpt>
      <trkpt lat="46.40094" lon="-0.24348">
        <ele>117.1</ele>
        <time>2020-05-31T08:16:05Z</time>
      </trkpt>
      <trkpt lat="46.40094" lon="-0.24348">
        <ele>117.1</ele>
        <time>2020-05-31T08:16:06Z</time>
      </trkpt>
      <trkpt lat="46.40094" lon="-0.24348">
        <ele>117.1</ele>
        <time>2020-05-31T08:16:07Z</time>
      </trkpt>
      <trkpt lat="46.40094" lon="-0.24348">
        <ele>117.1</ele>
        <time>2020-05-31T08:16:08Z</time>
      </trkpt>
      <trkpt lat="46.40094" lon="-0.24348">
        <ele>117.1</ele>
        <time>2020-05-31T08:16:09Z</time>
      </trkpt>
      <trkpt lat="46.40094" lon="-0.24348">
        <ele>117.1</ele>
        <time>2020-05-31T08:16:10Z</time>
      </trkpt>
      <trkpt lat="46.40094" lon="-0.24348">
        <ele>117.1</ele>
        <time>2020-05-31T08:16:11Z</time>
      </trkpt>
      <trkpt lat="46.40094" lon="-0.24348">
        <ele>117.1</ele>
        <time>2020-05-31T08:16:12Z</time>
      </trkpt>
      <trkpt lat="46.40094" lon="-0.24348">
        <ele>117.1</ele>
        <time>2020-05-31T08:16:13Z</time>
      </trkpt>
      <trkpt lat="46.40094" lon="-0.24348">
        <ele>117.1</ele>
        <time>2020-05-31T08:16:14Z</time>
      </trkpt>
      <trkpt lat="46.40094" lon="-0.24348">
        <ele>117.1</ele>
        <time>2020-05-31T08:16:15Z</time>
      </trkpt>
      <trkpt lat="46.40094" lon="-0.24348">
        <ele>117.1</ele>
        <time>2020-05-31T08:16:16Z</time>
      </trkpt>
      <trkpt lat="46.40094" lon="-0.24348">
        <ele>117.1</ele>
        <time>2020-05-31T08:16:17Z</time>
      </trkpt>
      <trkpt lat="46.40094" lon="-0.24348">
        <ele>117.1</ele>
        <time>2020-05-31T08:16:18Z</time>
      </trkpt>
      <trkpt lat="46.40094" lon="-0.24348">
        <ele>117.1</ele>
        <time>2020-05-31T08:16:19Z</time>
      </trkpt>
      <trkpt lat="46.40094" lon="-0.24348">
        <ele>117.1</ele>
        <time>2020-05-31T08:16:20Z</time>
      </trkpt>
      <trkpt lat="46.40094" lon="-0.24348">
        <ele>117.1</ele>
        <time>2020-05-31T08:16:21Z</time>
      </trkpt>
      <trkpt lat="46.40094" lon="-0.24348">
        <ele>117.1</ele>
        <time>2020-05-31T08:16:22Z</time>
      </trkpt>
      <trkpt lat="46.40094" lon="-0.24348">
        <ele>117.1</ele>
        <time>2020-05-31T08:16:23Z</time>
      </trkpt>
      <trkpt lat="46.40094" lon="-0.24348">
        <ele>117.2</ele>
        <time>2020-05-31T08:16:24Z</time>
      </trkpt>
      <trkpt lat="46.40094" lon="-0.24348">
        <ele>117.2</ele>
        <time>2020-05-31T08:16:25Z</time>
      </trkpt>
      <trkpt lat="46.40094" lon="-0.24348">
        <ele>117.2</ele>
        <time>2020-05-31T08:16:26Z</time>
      </trkpt>
      <trkpt lat="46.40094" lon="-0.24348">
        <ele>117.2</ele>
        <time>2020-05-31T08:16:27Z</time>
      </trkpt>
      <trkpt lat="46.40094" lon="-0.24348">
        <ele>117.2</ele>
        <time>2020-05-31T08:16:28Z</time>
      </trkpt>
      <trkpt lat="46.40094" lon="-0.24348">
        <ele>117.2</ele>
        <time>2020-05-31T08:16:29Z</time>
      </trkpt>
      <trkpt lat="46.40094" lon="-0.24348">
        <ele>117.2</ele>
        <time>2020-05-31T08:16:30Z</time>
      </trkpt>
      <trkpt lat="46.40093" lon="-0.24348">
        <ele>117.2</ele>
        <time>2020-05-31T08:16:31Z</time>
      </trkpt>
      <trkpt lat="46.40093" lon="-0.24348">
        <ele>117.2</ele>
        <time>2020-05-31T08:16:32Z</time>
      </trkpt>
      <trkpt lat="46.40093" lon="-0.24348">
        <ele>117.2</ele>
        <time>2020-05-31T08:16:33Z</time>
      </trkpt>
      <trkpt lat="46.40093" lon="-0.24348">
        <ele>117.2</ele>
        <time>2020-05-31T08:16:34Z</time>
      </trkpt>
      <trkpt lat="46.40093" lon="-0.24348">
        <ele>117.2</ele>
        <time>2020-05-31T08:16:35Z</time>
      </trkpt>
      <trkpt lat="46.40093" lon="-0.24348">
        <ele>117.2</ele>
        <time>2020-05-31T08:16:36Z</time>
      </trkpt>
      <trkpt lat="46.40093" lon="-0.24349">
        <ele>117.2</ele>
        <time>2020-05-31T08:16:37Z</time>
      </trkpt>
      <trkpt lat="46.40093" lon="-0.24349">
        <ele>117.2</ele>
        <time>2020-05-31T08:16:38Z</time>
      </trkpt>
      <trkpt lat="46.40093" lon="-0.24349">
        <ele>117.2</ele>
        <time>2020-05-31T08:16:39Z</time>
      </trkpt>
      <trkpt lat="46.40093" lon="-0.24349">
        <ele>117.2</ele>
        <time>2020-05-31T08:16:40Z</time>
      </trkpt>
      <trkpt lat="46.40093" lon="-0.24349">
        <ele>117.2</ele>
        <time>2020-05-31T08:16:41Z</time>
      </trkpt>
      <trkpt lat="46.40093" lon="-0.24349">
        <ele>117.2</ele>
        <time>2020-05-31T08:16:42Z</time>
      </trkpt>
      <trkpt lat="46.40093" lon="-0.24349">
        <ele>117.2</ele>
        <time>2020-05-31T08:16:43Z</time>
      </trkpt>
      <trkpt lat="46.40093" lon="-0.24349">
        <ele>117.2</ele>
        <time>2020-05-31T08:16:44Z</time>
      </trkpt>
      <trkpt lat="46.40093" lon="-0.24349">
        <ele>117.2</ele>
        <time>2020-05-31T08:16:45Z</time>
      </trkpt>
      <trkpt lat="46.40093" lon="-0.24349">
        <ele>117.2</ele>
        <time>2020-05-31T08:16:46Z</time>
      </trkpt>
      <trkpt lat="46.40093" lon="-0.24349">
        <ele>117.2</ele>
        <time>2020-05-31T08:16:47Z</time>
      </trkpt>
      <trkpt lat="46.40093" lon="-0.24349">
        <ele>117.2</ele>
        <time>2020-05-31T08:16:48Z</time>
      </trkpt>
      <trkpt lat="46.40093" lon="-0.24349">
        <ele>117.2</ele>
        <time>2020-05-31T08:16:49Z</time>
      </trkpt>
      <trkpt lat="46.40093" lon="-0.24349">
        <ele>117.2</ele>
        <time>2020-05-31T08:16:50Z</time>
      </trkpt>
      <trkpt lat="46.40093" lon="-0.24349">
        <ele>117.2</ele>
        <time>2020-05-31T08:16:51Z</time>
      </trkpt>
      <trkpt lat="46.40093" lon="-0.24349">
        <ele>117.2</ele>
        <time>2020-05-31T08:16:52Z</time>
      </trkpt>
      <trkpt lat="46.40093" lon="-0.24349">
        <ele>117.2</ele>
        <time>2020-05-31T08:16:53Z</time>
      </trkpt>
      <trkpt lat="46.40093" lon="-0.24349">
        <ele>117.2</ele>
        <time>2020-05-31T08:16:54Z</time>
      </trkpt>
      <trkpt lat="46.40093" lon="-0.24349">
        <ele>117.2</ele>
        <time>2020-05-31T08:16:55Z</time>
      </trkpt>
      <trkpt lat="46.40093" lon="-0.24349">
        <ele>117.2</ele>
        <time>2020-05-31T08:16:56Z</time>
      </trkpt>
      <trkpt lat="46.40093" lon="-0.24349">
        <ele>117.2</ele>
        <time>2020-05-31T08:16:57Z</time>
      </trkpt>
      <trkpt lat="46.40093" lon="-0.24349">
        <ele>117.2</ele>
        <time>2020-05-31T08:16:58Z</time>
      </trkpt>
      <trkpt lat="46.40093" lon="-0.24349">
        <ele>117.2</ele>
        <time>2020-05-31T08:16:59Z</time>
      </trkpt>
      <trkpt lat="46.40093" lon="-0.24349">
        <ele>117.2</ele>
        <time>2020-05-31T08:17:00Z</time>
      </trkpt>
      <trkpt lat="46.40093" lon="-0.24349">
        <ele>117.2</ele>
        <time>2020-05-31T08:17:01Z</time>
      </trkpt>
      <trkpt lat="46.40093" lon="-0.24349">
        <ele>117.2</ele>
        <time>2020-05-31T08:17:02Z</time>
      </trkpt>
      <trkpt lat="46.40093" lon="-0.24349">
        <ele>117.2</ele>
        <time>2020-05-31T08:17:03Z</time>
      </trkpt>
      <trkpt lat="46.40093" lon="-0.24349">
        <ele>117.2</ele>
        <time>2020-05-31T08:17:04Z</time>
      </trkpt>
      <trkpt lat="46.40093" lon="-0.24349">
        <ele>117.2</ele>
        <time>2020-05-31T08:17:05Z</time>
      </trkpt>
      <trkpt lat="46.40093" lon="-0.24349">
        <ele>117.2</ele>
        <time>2020-05-31T08:17:06Z</time>
      </trkpt>
      <trkpt lat="46.40093" lon="-0.24349">
        <ele>117.2</ele>
        <time>2020-05-31T08:17:07Z</time>
      </trkpt>
      <trkpt lat="46.40093" lon="-0.24349">
        <ele>117.2</ele>
        <time>2020-05-31T08:17:08Z</time>
      </trkpt>
      <trkpt lat="46.40093" lon="-0.24349">
        <ele>117.2</ele>
        <time>2020-05-31T08:17:09Z</time>
      </trkpt>
      <trkpt lat="46.40093" lon="-0.24349">
        <ele>117.2</ele>
        <time>2020-05-31T08:17:10Z</time>
      </trkpt>
      <trkpt lat="46.40093" lon="-0.24349">
        <ele>117.2</ele>
        <time>2020-05-31T08:17:11Z</time>
      </trkpt>
      <trkpt lat="46.40093" lon="-0.24349">
        <ele>117.2</ele>
        <time>2020-05-31T08:17:12Z</time>
      </trkpt>
      <trkpt lat="46.40093" lon="-0.24349">
        <ele>117.2</ele>
        <time>2020-05-31T08:17:13Z</time>
      </trkpt>
      <trkpt lat="46.40093" lon="-0.24349">
        <ele>117.2</ele>
        <time>2020-05-31T08:17:14Z</time>
      </trkpt>
      <trkpt lat="46.40093" lon="-0.24349">
        <ele>117.2</ele>
        <time>2020-05-31T08:17:15Z</time>
      </trkpt>
      <trkpt lat="46.40093" lon="-0.24349">
        <ele>117.2</ele>
        <time>2020-05-31T08:17:16Z</time>
      </trkpt>
      <trkpt lat="46.40093" lon="-0.2435">
        <ele>117.2</ele>
        <time>2020-05-31T08:17:17Z</time>
      </trkpt>
      <trkpt lat="46.40093" lon="-0.2435">
        <ele>117.2</ele>
        <time>2020-05-31T08:17:18Z</time>
      </trkpt>
      <trkpt lat="46.40093" lon="-0.2435">
        <ele>117.2</ele>
        <time>2020-05-31T08:17:19Z</time>
      </trkpt>
      <trkpt lat="46.40093" lon="-0.2435">
        <ele>117.2</ele>
        <time>2020-05-31T08:17:20Z</time>
      </trkpt>
      <trkpt lat="46.40093" lon="-0.2435">
        <ele>117.2</ele>
        <time>2020-05-31T08:17:21Z</time>
      </trkpt>
      <trkpt lat="46.40093" lon="-0.2435">
        <ele>117.2</ele>
        <time>2020-05-31T08:17:22Z</time>
      </trkpt>
      <trkpt lat="46.40093" lon="-0.2435">
        <ele>117.2</ele>
        <time>2020-05-31T08:17:23Z</time>
      </trkpt>
      <trkpt lat="46.40093" lon="-0.2435">
        <ele>117.2</ele>
        <time>2020-05-31T08:17:24Z</time>
      </trkpt>
      <trkpt lat="46.40093" lon="-0.2435">
        <ele>117.2</ele>
        <time>2020-05-31T08:17:25Z</time>
      </trkpt>
      <trkpt lat="46.40093" lon="-0.2435">
        <ele>117.2</ele>
        <time>2020-05-31T08:17:26Z</time>
      </trkpt>
      <trkpt lat="46.40093" lon="-0.2435">
        <ele>117.2</ele>
        <time>2020-05-31T08:17:27Z</time>
      </trkpt>
      <trkpt lat="46.40093" lon="-0.2435">
        <ele>117.2</ele>
        <time>2020-05-31T08:17:28Z</time>
      </trkpt>
      <trkpt lat="46.40093" lon="-0.2435">
        <ele>117.2</ele>
        <time>2020-05-31T08:17:29Z</time>
      </trkpt>
      <trkpt lat="46.40093" lon="-0.2435">
        <ele>117.2</ele>
        <time>2020-05-31T08:17:30Z</time>
      </trkpt>
      <trkpt lat="46.40093" lon="-0.2435">
        <ele>117.2</ele>
        <time>2020-05-31T08:17:31Z</time>
      </trkpt>
      <trkpt lat="46.40093" lon="-0.2435">
        <ele>117.2</ele>
        <time>2020-05-31T08:17:32Z</time>
      </trkpt>
      <trkpt lat="46.40093" lon="-0.2435">
        <ele>117.2</ele>
        <time>2020-05-31T08:17:33Z</time>
      </trkpt>
      <trkpt lat="46.40093" lon="-0.2435">
        <ele>117.2</ele>
        <time>2020-05-31T08:17:34Z</time>
      </trkpt>
      <trkpt lat="46.40093" lon="-0.2435">
        <ele>117.2</ele>
        <time>2020-05-31T08:17:35Z</time>
      </trkpt>
      <trkpt lat="46.40093" lon="-0.2435">
        <ele>117.2</ele>
        <time>2020-05-31T08:17:36Z</time>
      </trkpt>
      <trkpt lat="46.40093" lon="-0.2435">
        <ele>117.2</ele>
        <time>2020-05-31T08:17:37Z</time>
      </trkpt>
      <trkpt lat="46.40093" lon="-0.2435">
        <ele>117.2</ele>
        <time>2020-05-31T08:17:38Z</time>
      </trkpt>
      <trkpt lat="46.40093" lon="-0.2435">
        <ele>117.2</ele>
        <time>2020-05-31T08:17:39Z</time>
      </trkpt>
      <trkpt lat="46.40093" lon="-0.2435">
        <ele>117.2</ele>
        <time>2020-05-31T08:17:40Z</time>
      </trkpt>
      <trkpt lat="46.40093" lon="-0.2435">
        <ele>117.2</ele>
        <time>2020-05-31T08:17:41Z</time>
      </trkpt>
      <trkpt lat="46.40093" lon="-0.2435">
        <ele>117.2</ele>
        <time>2020-05-31T08:17:42Z</time>
      </trkpt>
      <trkpt lat="46.40093" lon="-0.2435">
        <ele>117.2</ele>
        <time>2020-05-31T08:17:43Z</time>
      </trkpt>
      <trkpt lat="46.40093" lon="-0.2435">
        <ele>117.2</ele>
        <time>2020-05-31T08:17:44Z</time>
      </trkpt>
      <trkpt lat="46.40093" lon="-0.2435">
        <ele>117.2</ele>
        <time>2020-05-31T08:17:45Z</time>
      </trkpt>
      <trkpt lat="46.40093" lon="-0.2435">
        <ele>117.2</ele>
        <time>2020-05-31T08:17:46Z</time>
      </trkpt>
      <trkpt lat="46.40093" lon="-0.2435">
        <ele>117.2</ele>
        <time>2020-05-31T08:17:47Z</time>
      </trkpt>
      <trkpt lat="46.40093" lon="-0.2435">
        <ele>117.2</ele>
        <time>2020-05-31T08:17:48Z</time>
      </trkpt>
      <trkpt lat="46.40093" lon="-0.2435">
        <ele>117.2</ele>
        <time>2020-05-31T08:17:49Z</time>
      </trkpt>
      <trkpt lat="46.40093" lon="-0.2435">
        <ele>117.2</ele>
        <time>2020-05-31T08:17:50Z</time>
      </trkpt>
      <trkpt lat="46.40093" lon="-0.2435">
        <ele>117.2</ele>
        <time>2020-05-31T08:17:51Z</time>
      </trkpt>
      <trkpt lat="46.40093" lon="-0.2435">
        <ele>117.2</ele>
        <time>2020-05-31T08:17:52Z</time>
      </trkpt>
      <trkpt lat="46.40093" lon="-0.2435">
        <ele>117.2</ele>
        <time>2020-05-31T08:17:53Z</time>
      </trkpt>
      <trkpt lat="46.40093" lon="-0.2435">
        <ele>117.2</ele>
        <time>2020-05-31T08:17:54Z</time>
      </trkpt>
      <trkpt lat="46.40093" lon="-0.2435">
        <ele>117.2</ele>
        <time>2020-05-31T08:17:55Z</time>
      </trkpt>
      <trkpt lat="46.40093" lon="-0.2435">
        <ele>117.2</ele>
        <time>2020-05-31T08:17:56Z</time>
      </trkpt>
      <trkpt lat="46.40093" lon="-0.24351">
        <ele>117.2</ele>
        <time>2020-05-31T08:17:57Z</time>
      </trkpt>
      <trkpt lat="46.40093" lon="-0.24351">
        <ele>117.2</ele>
        <time>2020-05-31T08:17:58Z</time>
      </trkpt>
      <trkpt lat="46.40093" lon="-0.24351">
        <ele>117.2</ele>
        <time>2020-05-31T08:17:59Z</time>
      </trkpt>
      <trkpt lat="46.40093" lon="-0.24351">
        <ele>117.2</ele>
        <time>2020-05-31T08:18:00Z</time>
      </trkpt>
      <trkpt lat="46.40093" lon="-0.24351">
        <ele>117.2</ele>
        <time>2020-05-31T08:18:01Z</time>
      </trkpt>
      <trkpt lat="46.40093" lon="-0.24351">
        <ele>117.2</ele>
        <time>2020-05-31T08:18:02Z</time>
      </trkpt>
      <trkpt lat="46.40093" lon="-0.24351">
        <ele>117.2</ele>
        <time>2020-05-31T08:18:03Z</time>
      </trkpt>
      <trkpt lat="46.40093" lon="-0.24351">
        <ele>117.2</ele>
        <time>2020-05-31T08:18:04Z</time>
      </trkpt>
      <trkpt lat="46.40093" lon="-0.24351">
        <ele>117.2</ele>
        <time>2020-05-31T08:18:05Z</time>
      </trkpt>
      <trkpt lat="46.40093" lon="-0.24351">
        <ele>117.2</ele>
        <time>2020-05-31T08:18:06Z</time>
      </trkpt>
      <trkpt lat="46.40093" lon="-0.24351">
        <ele>117.2</ele>
        <time>2020-05-31T08:18:07Z</time>
      </trkpt>
      <trkpt lat="46.40093" lon="-0.24351">
        <ele>117.2</ele>
        <time>2020-05-31T08:18:08Z</time>
      </trkpt>
      <trkpt lat="46.40093" lon="-0.24351">
        <ele>117.2</ele>
        <time>2020-05-31T08:18:09Z</time>
      </trkpt>
      <trkpt lat="46.40093" lon="-0.24351">
        <ele>117.2</ele>
        <time>2020-05-31T08:18:10Z</time>
      </trkpt>
      <trkpt lat="46.40093" lon="-0.24351">
        <ele>117.2</ele>
        <time>2020-05-31T08:18:11Z</time>
      </trkpt>
      <trkpt lat="46.40093" lon="-0.24351">
        <ele>117.2</ele>
        <time>2020-05-31T08:18:12Z</time>
      </trkpt>
      <trkpt lat="46.40093" lon="-0.24351">
        <ele>117.2</ele>
        <time>2020-05-31T08:18:13Z</time>
      </trkpt>
      <trkpt lat="46.40093" lon="-0.24351">
        <ele>117.2</ele>
        <time>2020-05-31T08:18:14Z</time>
      </trkpt>
      <trkpt lat="46.40093" lon="-0.24351">
        <ele>117.2</ele>
        <time>2020-05-31T08:18:15Z</time>
      </trkpt>
      <trkpt lat="46.40093" lon="-0.24351">
        <ele>117.2</ele>
        <time>2020-05-31T08:18:16Z</time>
      </trkpt>
      <trkpt lat="46.40093" lon="-0.24351">
        <ele>117.2</ele>
        <time>2020-05-31T08:18:17Z</time>
      </trkpt>
      <trkpt lat="46.40093" lon="-0.24351">
        <ele>117.2</ele>
        <time>2020-05-31T08:18:18Z</time>
      </trkpt>
      <trkpt lat="46.40093" lon="-0.24351">
        <ele>117.2</ele>
        <time>2020-05-31T08:18:19Z</time>
      </trkpt>
      <trkpt lat="46.40093" lon="-0.24351">
        <ele>117.2</ele>
        <time>2020-05-31T08:18:20Z</time>
      </trkpt>
      <trkpt lat="46.40093" lon="-0.24351">
        <ele>117.2</ele>
        <time>2020-05-31T08:18:21Z</time>
      </trkpt>
      <trkpt lat="46.40093" lon="-0.24351">
        <ele>117.2</ele>
        <time>2020-05-31T08:18:22Z</time>
      </trkpt>
      <trkpt lat="46.40093" lon="-0.24351">
        <ele>117.2</ele>
        <time>2020-05-31T08:18:23Z</time>
      </trkpt>
      <trkpt lat="46.40093" lon="-0.24351">
        <ele>117.2</ele>
        <time>2020-05-31T08:18:24Z</time>
      </trkpt>
      <trkpt lat="46.40093" lon="-0.24351">
        <ele>117.2</ele>
        <time>2020-05-31T08:18:25Z</time>
      </trkpt>
      <trkpt lat="46.40093" lon="-0.24351">
        <ele>117.2</ele>
        <time>2020-05-31T08:18:26Z</time>
      </trkpt>
      <trkpt lat="46.40093" lon="-0.24351">
        <ele>117.2</ele>
        <time>2020-05-31T08:18:27Z</time>
      </trkpt>
      <trkpt lat="46.40093" lon="-0.24351">
        <ele>117.2</ele>
        <time>2020-05-31T08:18:28Z</time>
      </trkpt>
      <trkpt lat="46.40093" lon="-0.24351">
        <ele>117.2</ele>
        <time>2020-05-31T08:18:29Z</time>
      </trkpt>
      <trkpt lat="46.40093" lon="-0.24351">
        <ele>117.2</ele>
        <time>2020-05-31T08:18:30Z</time>
      </trkpt>
      <trkpt lat="46.40093" lon="-0.24351">
        <ele>117.2</ele>
        <time>2020-05-31T08:18:31Z</time>
      </trkpt>
      <trkpt lat="46.40093" lon="-0.24351">
        <ele>117.2</ele>
        <time>2020-05-31T08:18:32Z</time>
      </trkpt>
      <trkpt lat="46.40093" lon="-0.24351">
        <ele>117.2</ele>
        <time>2020-05-31T08:18:33Z</time>
      </trkpt>
      <trkpt lat="46.40093" lon="-0.24351">
        <ele>117.2</ele>
        <time>2020-05-31T08:18:34Z</time>
      </trkpt>
      <trkpt lat="46.40093" lon="-0.24351">
        <ele>117.2</ele>
        <time>2020-05-31T08:18:35Z</time>
      </trkpt>
      <trkpt lat="46.40093" lon="-0.24352">
        <ele>117.2</ele>
        <time>2020-05-31T08:18:36Z</time>
      </trkpt>
      <trkpt lat="46.40093" lon="-0.24352">
        <ele>117.2</ele>
        <time>2020-05-31T08:18:37Z</time>
      </trkpt>
      <trkpt lat="46.40093" lon="-0.24352">
        <ele>117.2</ele>
        <time>2020-05-31T08:18:38Z</time>
      </trkpt>
      <trkpt lat="46.40093" lon="-0.24352">
        <ele>117.2</ele>
        <time>2020-05-31T08:18:39Z</time>
      </trkpt>
      <trkpt lat="46.40093" lon="-0.24352">
        <ele>117.2</ele>
        <time>2020-05-31T08:18:40Z</time>
      </trkpt>
      <trkpt lat="46.40093" lon="-0.24352">
        <ele>117.2</ele>
        <time>2020-05-31T08:18:41Z</time>
      </trkpt>
      <trkpt lat="46.40093" lon="-0.24352">
        <ele>117.2</ele>
        <time>2020-05-31T08:18:42Z</time>
      </trkpt>
      <trkpt lat="46.40093" lon="-0.24352">
        <ele>117.2</ele>
        <time>2020-05-31T08:18:43Z</time>
      </trkpt>
      <trkpt lat="46.40093" lon="-0.24352">
        <ele>117.2</ele>
        <time>2020-05-31T08:18:44Z</time>
      </trkpt>
      <trkpt lat="46.40093" lon="-0.24352">
        <ele>117.2</ele>
        <time>2020-05-31T08:18:45Z</time>
      </trkpt>
      <trkpt lat="46.40093" lon="-0.24352">
        <ele>117.2</ele>
        <time>2020-05-31T08:18:46Z</time>
      </trkpt>
      <trkpt lat="46.40093" lon="-0.24352">
        <ele>117.2</ele>
        <time>2020-05-31T08:18:47Z</time>
      </trkpt>
      <trkpt lat="46.40093" lon="-0.24352">
        <ele>117.2</ele>
        <time>2020-05-31T08:18:48Z</time>
      </trkpt>
      <trkpt lat="46.40093" lon="-0.24352">
        <ele>117.2</ele>
        <time>2020-05-31T08:18:49Z</time>
      </trkpt>
      <trkpt lat="46.40093" lon="-0.24352">
        <ele>117.2</ele>
        <time>2020-05-31T08:18:50Z</time>
      </trkpt>
      <trkpt lat="46.40093" lon="-0.24352">
        <ele>117.2</ele>
        <time>2020-05-31T08:18:51Z</time>
      </trkpt>
      <trkpt lat="46.40093" lon="-0.24352">
        <ele>117.2</ele>
        <time>2020-05-31T08:18:52Z</time>
      </trkpt>
      <trkpt lat="46.40093" lon="-0.24352">
        <ele>117.2</ele>
        <time>2020-05-31T08:18:53Z</time>
      </trkpt>
      <trkpt lat="46.40093" lon="-0.24352">
        <ele>117.2</ele>
        <time>2020-05-31T08:18:54Z</time>
      </trkpt>
      <trkpt lat="46.40093" lon="-0.24352">
        <ele>117.2</ele>
        <time>2020-05-31T08:18:55Z</time>
      </trkpt>
      <trkpt lat="46.40093" lon="-0.24352">
        <ele>117.2</ele>
        <time>2020-05-31T08:18:56Z</time>
      </trkpt>
      <trkpt lat="46.40093" lon="-0.24352">
        <ele>117.2</ele>
        <time>2020-05-31T08:18:57Z</time>
      </trkpt>
      <trkpt lat="46.40093" lon="-0.24352">
        <ele>117.2</ele>
        <time>2020-05-31T08:18:58Z</time>
      </trkpt>
      <trkpt lat="46.40093" lon="-0.24352">
        <ele>117.2</ele>
        <time>2020-05-31T08:18:59Z</time>
      </trkpt>
      <trkpt lat="46.40093" lon="-0.24352">
        <ele>117.2</ele>
        <time>2020-05-31T08:19:00Z</time>
      </trkpt>
      <trkpt lat="46.40093" lon="-0.24352">
        <ele>117.2</ele>
        <time>2020-05-31T08:19:01Z</time>
      </trkpt>
      <trkpt lat="46.40093" lon="-0.24352">
        <ele>117.2</ele>
        <time>2020-05-31T08:19:02Z</time>
      </trkpt>
      <trkpt lat="46.40093" lon="-0.24352">
        <ele>117.2</ele>
        <time>2020-05-31T08:19:03Z</time>
      </trkpt>
      <trkpt lat="46.40093" lon="-0.24352">
        <ele>117.2</ele>
        <time>2020-05-31T08:19:04Z</time>
      </trkpt>
      <trkpt lat="46.40093" lon="-0.24352">
        <ele>117.2</ele>
        <time>2020-05-31T08:19:05Z</time>
      </trkpt>
      <trkpt lat="46.40093" lon="-0.24352">
        <ele>117.2</ele>
        <time>2020-05-31T08:19:06Z</time>
      </trkpt>
      <trkpt lat="46.40093" lon="-0.24352">
        <ele>117.2</ele>
        <time>2020-05-31T08:19:07Z</time>
      </trkpt>
      <trkpt lat="46.40093" lon="-0.24352">
        <ele>117.2</ele>
        <time>2020-05-31T08:19:08Z</time>
      </trkpt>
      <trkpt lat="46.40093" lon="-0.24352">
        <ele>117.2</ele>
        <time>2020-05-31T08:19:09Z</time>
      </trkpt>
      <trkpt lat="46.40093" lon="-0.24352">
        <ele>117.2</ele>
        <time>2020-05-31T08:19:10Z</time>
      </trkpt>
      <trkpt lat="46.40093" lon="-0.24352">
        <ele>117.2</ele>
        <time>2020-05-31T08:19:11Z</time>
      </trkpt>
      <trkpt lat="46.40093" lon="-0.24352">
        <ele>117.2</ele>
        <time>2020-05-31T08:19:12Z</time>
      </trkpt>
      <trkpt lat="46.40093" lon="-0.24352">
        <ele>117.2</ele>
        <time>2020-05-31T08:19:13Z</time>
      </trkpt>
      <trkpt lat="46.40093" lon="-0.24352">
        <ele>117.2</ele>
        <time>2020-05-31T08:19:14Z</time>
      </trkpt>
      <trkpt lat="46.40093" lon="-0.24352">
        <ele>117.2</ele>
        <time>2020-05-31T08:19:15Z</time>
      </trkpt>
      <trkpt lat="46.40093" lon="-0.24353">
        <ele>117.2</ele>
        <time>2020-05-31T08:19:16Z</time>
      </trkpt>
      <trkpt lat="46.40093" lon="-0.24353">
        <ele>117.2</ele>
        <time>2020-05-31T08:19:17Z</time>
      </trkpt>
      <trkpt lat="46.40093" lon="-0.24353">
        <ele>117.2</ele>
        <time>2020-05-31T08:19:18Z</time>
      </trkpt>
      <trkpt lat="46.40093" lon="-0.24353">
        <ele>117.2</ele>
        <time>2020-05-31T08:19:19Z</time>
      </trkpt>
      <trkpt lat="46.40093" lon="-0.24353">
        <ele>117.2</ele>
        <time>2020-05-31T08:19:20Z</time>
      </trkpt>
      <trkpt lat="46.40093" lon="-0.24353">
        <ele>117.2</ele>
        <time>2020-05-31T08:19:21Z</time>
      </trkpt>
      <trkpt lat="46.40093" lon="-0.24353">
        <ele>117.2</ele>
        <time>2020-05-31T08:19:22Z</time>
      </trkpt>
      <trkpt lat="46.40093" lon="-0.24353">
        <ele>117.2</ele>
        <time>2020-05-31T08:19:23Z</time>
      </trkpt>
      <trkpt lat="46.40093" lon="-0.24353">
        <ele>117.2</ele>
        <time>2020-05-31T08:19:24Z</time>
      </trkpt>
      <trkpt lat="46.40093" lon="-0.24353">
        <ele>117.2</ele>
        <time>2020-05-31T08:19:25Z</time>
      </trkpt>
      <trkpt lat="46.40093" lon="-0.24353">
        <ele>117.2</ele>
        <time>2020-05-31T08:19:26Z</time>
      </trkpt>
      <trkpt lat="46.40093" lon="-0.24353">
        <ele>117.2</ele>
        <time>2020-05-31T08:19:27Z</time>
      </trkpt>
      <trkpt lat="46.40093" lon="-0.24353">
        <ele>117.2</ele>
        <time>2020-05-31T08:19:28Z</time>
      </trkpt>
      <trkpt lat="46.40093" lon="-0.24353">
        <ele>117.2</ele>
        <time>2020-05-31T08:19:29Z</time>
      </trkpt>
      <trkpt lat="46.40093" lon="-0.24353">
        <ele>117.2</ele>
        <time>2020-05-31T08:19:30Z</time>
      </trkpt>
      <trkpt lat="46.40093" lon="-0.24353">
        <ele>117.2</ele>
        <time>2020-05-31T08:19:31Z</time>
      </trkpt>
      <trkpt lat="46.40093" lon="-0.24353">
        <ele>117.2</ele>
        <time>2020-05-31T08:19:32Z</time>
      </trkpt>
      <trkpt lat="46.40093" lon="-0.24353">
        <ele>117.2</ele>
        <time>2020-05-31T08:19:33Z</time>
      </trkpt>
      <trkpt lat="46.40093" lon="-0.24353">
        <ele>117.2</ele>
        <time>2020-05-31T08:19:34Z</time>
      </trkpt>
      <trkpt lat="46.40093" lon="-0.24353">
        <ele>117.2</ele>
        <time>2020-05-31T08:19:35Z</time>
      </trkpt>
      <trkpt lat="46.40093" lon="-0.24353">
        <ele>117.2</ele>
        <time>2020-05-31T08:19:36Z</time>
      </trkpt>
      <trkpt lat="46.40093" lon="-0.24353">
        <ele>117.2</ele>
        <time>2020-05-31T08:19:37Z</time>
      </trkpt>
      <trkpt lat="46.40093" lon="-0.24353">
        <ele>117.2</ele>
        <time>2020-05-31T08:19:38Z</time>
      </trkpt>
      <trkpt lat="46.40093" lon="-0.24353">
        <ele>117.2</ele>
        <time>2020-05-31T08:19:39Z</time>
      </trkpt>
      <trkpt lat="46.40093" lon="-0.24353">
        <ele>117.2</ele>
        <time>2020-05-31T08:19:40Z</time>
      </trkpt>
      <trkpt lat="46.40093" lon="-0.24353">
        <ele>117.2</ele>
        <time>2020-05-31T08:19:41Z</time>
      </trkpt>
      <trkpt lat="46.40093" lon="-0.24353">
        <ele>117.2</ele>
        <time>2020-05-31T08:19:42Z</time>
      </trkpt>
      <trkpt lat="46.40093" lon="-0.24353">
        <ele>117.2</ele>
        <time>2020-05-31T08:19:43Z</time>
      </trkpt>
      <trkpt lat="46.40093" lon="-0.24353">
        <ele>117.2</ele>
        <time>2020-05-31T08:19:44Z</time>
      </trkpt>
      <trkpt lat="46.40093" lon="-0.24353">
        <ele>117.2</ele>
        <time>2020-05-31T08:19:45Z</time>
      </trkpt>
      <trkpt lat="46.40093" lon="-0.24353">
        <ele>117.2</ele>
        <time>2020-05-31T08:19:46Z</time>
      </trkpt>
      <trkpt lat="46.40093" lon="-0.24353">
        <ele>117.2</ele>
        <time>2020-05-31T08:19:47Z</time>
      </trkpt>
      <trkpt lat="46.40093" lon="-0.24353">
        <ele>117.2</ele>
        <time>2020-05-31T08:19:48Z</time>
      </trkpt>
      <trkpt lat="46.40093" lon="-0.24353">
        <ele>117.2</ele>
        <time>2020-05-31T08:19:49Z</time>
      </trkpt>
      <trkpt lat="46.40093" lon="-0.24353">
        <ele>117.2</ele>
        <time>2020-05-31T08:19:50Z</time>
      </trkpt>
      <trkpt lat="46.40093" lon="-0.24353">
        <ele>117.2</ele>
        <time>2020-05-31T08:19:51Z</time>
      </trkpt>
      <trkpt lat="46.40093" lon="-0.24353">
        <ele>117.2</ele>
        <time>2020-05-31T08:19:52Z</time>
      </trkpt>
      <trkpt lat="46.40093" lon="-0.24353">
        <ele>117.2</ele>
        <time>2020-05-31T08:19:53Z</time>
      </trkpt>
      <trkpt lat="46.40093" lon="-0.24353">
        <ele>117.2</ele>
        <time>2020-05-31T08:19:54Z</time>
      </trkpt>
      <trkpt lat="46.40093" lon="-0.24353">
        <ele>117.2</ele>
        <time>2020-05-31T08:19:55Z</time>
      </trkpt>
      <trkpt lat="46.40093" lon="-0.24354">
        <ele>117.2</ele>
        <time>2020-05-31T08:19:56Z</time>
      </trkpt>
      <trkpt lat="46.40093" lon="-0.24354">
        <ele>117.2</ele>
        <time>2020-05-31T08:19:57Z</time>
      </trkpt>
      <trkpt lat="46.40093" lon="-0.24354">
        <ele>117.2</ele>
        <time>2020-05-31T08:19:58Z</time>
      </trkpt>
      <trkpt lat="46.40093" lon="-0.24354">
        <ele>117.2</ele>
        <time>2020-05-31T08:19:59Z</time>
      </trkpt>
      <trkpt lat="46.40093" lon="-0.24354">
        <ele>117.2</ele>
        <time>2020-05-31T08:20:00Z</time>
      </trkpt>
      <trkpt lat="46.40093" lon="-0.24354">
        <ele>117.2</ele>
        <time>2020-05-31T08:20:01Z</time>
      </trkpt>
      <trkpt lat="46.40093" lon="-0.24354">
        <ele>117.2</ele>
        <time>2020-05-31T08:20:02Z</time>
      </trkpt>
      <trkpt lat="46.40092" lon="-0.24354">
        <ele>117.2</ele>
        <time>2020-05-31T08:20:03Z</time>
      </trkpt>
      <trkpt lat="46.40092" lon="-0.24354">
        <ele>117.2</ele>
        <time>2020-05-31T08:20:04Z</time>
      </trkpt>
      <trkpt lat="46.40092" lon="-0.24354">
        <ele>117.2</ele>
        <time>2020-05-31T08:20:05Z</time>
      </trkpt>
      <trkpt lat="46.40092" lon="-0.24354">
        <ele>117.2</ele>
        <time>2020-05-31T08:20:06Z</time>
      </trkpt>
      <trkpt lat="46.40092" lon="-0.24354">
        <ele>117.2</ele>
        <time>2020-05-31T08:20:07Z</time>
      </trkpt>
      <trkpt lat="46.40092" lon="-0.24354">
        <ele>117.2</ele>
        <time>2020-05-31T08:20:08Z</time>
      </trkpt>
      <trkpt lat="46.40092" lon="-0.24354">
        <ele>117.2</ele>
        <time>2020-05-31T08:20:09Z</time>
      </trkpt>
      <trkpt lat="46.40092" lon="-0.24354">
        <ele>117.2</ele>
        <time>2020-05-31T08:20:10Z</time>
      </trkpt>
      <trkpt lat="46.40092" lon="-0.24354">
        <ele>117.2</ele>
        <time>2020-05-31T08:20:11Z</time>
      </trkpt>
      <trkpt lat="46.40092" lon="-0.24354">
        <ele>117.2</ele>
        <time>2020-05-31T08:20:12Z</time>
      </trkpt>
      <trkpt lat="46.40092" lon="-0.24354">
        <ele>117.2</ele>
        <time>2020-05-31T08:20:13Z</time>
      </trkpt>
      <trkpt lat="46.40092" lon="-0.24354">
        <ele>117.2</ele>
        <time>2020-05-31T08:20:14Z</time>
      </trkpt>
      <trkpt lat="46.40092" lon="-0.24354">
        <ele>117.2</ele>
        <time>2020-05-31T08:20:15Z</time>
      </trkpt>
      <trkpt lat="46.40092" lon="-0.24354">
        <ele>117.2</ele>
        <time>2020-05-31T08:20:16Z</time>
      </trkpt>
      <trkpt lat="46.40092" lon="-0.24354">
        <ele>117.2</ele>
        <time>2020-05-31T08:20:17Z</time>
      </trkpt>
      <trkpt lat="46.40092" lon="-0.24354">
        <ele>117.2</ele>
        <time>2020-05-31T08:20:18Z</time>
      </trkpt>
      <trkpt lat="46.40092" lon="-0.24354">
        <ele>117.2</ele>
        <time>2020-05-31T08:20:19Z</time>
      </trkpt>
      <trkpt lat="46.40092" lon="-0.24354">
        <ele>117.2</ele>
        <time>2020-05-31T08:20:20Z</time>
      </trkpt>
      <trkpt lat="46.40092" lon="-0.24354">
        <ele>117.2</ele>
        <time>2020-05-31T08:20:21Z</time>
      </trkpt>
      <trkpt lat="46.40092" lon="-0.24354">
        <ele>117.2</ele>
        <time>2020-05-31T08:20:22Z</time>
      </trkpt>
      <trkpt lat="46.40092" lon="-0.24354">
        <ele>117.2</ele>
        <time>2020-05-31T08:20:23Z</time>
      </trkpt>
      <trkpt lat="46.40092" lon="-0.24354">
        <ele>117.2</ele>
        <time>2020-05-31T08:20:24Z</time>
      </trkpt>
      <trkpt lat="46.40092" lon="-0.24354">
        <ele>117.2</ele>
        <time>2020-05-31T08:20:25Z</time>
      </trkpt>
      <trkpt lat="46.40092" lon="-0.24354">
        <ele>117.2</ele>
        <time>2020-05-31T08:20:26Z</time>
      </trkpt>
      <trkpt lat="46.40092" lon="-0.24354">
        <ele>117.2</ele>
        <time>2020-05-31T08:20:27Z</time>
      </trkpt>
      <trkpt lat="46.40092" lon="-0.24354">
        <ele>117.2</ele>
        <time>2020-05-31T08:20:28Z</time>
      </trkpt>
      <trkpt lat="46.40092" lon="-0.24354">
        <ele>117.2</ele>
        <time>2020-05-31T08:20:29Z</time>
      </trkpt>
      <trkpt lat="46.40092" lon="-0.24354">
        <ele>117.2</ele>
        <time>2020-05-31T08:20:30Z</time>
      </trkpt>
      <trkpt lat="46.40092" lon="-0.24354">
        <ele>117.2</ele>
        <time>2020-05-31T08:20:31Z</time>
      </trkpt>
      <trkpt lat="46.40092" lon="-0.24354">
        <ele>117.2</ele>
        <time>2020-05-31T08:20:32Z</time>
      </trkpt>
      <trkpt lat="46.40092" lon="-0.24354">
        <ele>117.2</ele>
        <time>2020-05-31T08:20:33Z</time>
      </trkpt>
      <trkpt lat="46.40092" lon="-0.24355">
        <ele>117.2</ele>
        <time>2020-05-31T08:20:34Z</time>
      </trkpt>
      <trkpt lat="46.40092" lon="-0.24355">
        <ele>117.2</ele>
        <time>2020-05-31T08:20:35Z</time>
      </trkpt>
      <trkpt lat="46.40092" lon="-0.24355">
        <ele>117.2</ele>
        <time>2020-05-31T08:20:36Z</time>
      </trkpt>
      <trkpt lat="46.40092" lon="-0.24355">
        <ele>117.2</ele>
        <time>2020-05-31T08:20:37Z</time>
      </trkpt>
      <trkpt lat="46.40092" lon="-0.24355">
        <ele>117.2</ele>
        <time>2020-05-31T08:20:38Z</time>
      </trkpt>
      <trkpt lat="46.40092" lon="-0.24355">
        <ele>117.2</ele>
        <time>2020-05-31T08:20:39Z</time>
      </trkpt>
      <trkpt lat="46.40092" lon="-0.24355">
        <ele>117.2</ele>
        <time>2020-05-31T08:20:40Z</time>
      </trkpt>
      <trkpt lat="46.40092" lon="-0.24355">
        <ele>117.2</ele>
        <time>2020-05-31T08:20:41Z</time>
      </trkpt>
      <trkpt lat="46.40092" lon="-0.24355">
        <ele>117.2</ele>
        <time>2020-05-31T08:20:42Z</time>
      </trkpt>
      <trkpt lat="46.40092" lon="-0.24355">
        <ele>117.2</ele>
        <time>2020-05-31T08:20:43Z</time>
      </trkpt>
      <trkpt lat="46.40092" lon="-0.24355">
        <ele>117.2</ele>
        <time>2020-05-31T08:20:44Z</time>
      </trkpt>
      <trkpt lat="46.40092" lon="-0.24355">
        <ele>117.2</ele>
        <time>2020-05-31T08:20:45Z</time>
      </trkpt>
      <trkpt lat="46.40092" lon="-0.24355">
        <ele>117.2</ele>
        <time>2020-05-31T08:20:46Z</time>
      </trkpt>
      <trkpt lat="46.40092" lon="-0.24355">
        <ele>117.2</ele>
        <time>2020-05-31T08:20:47Z</time>
      </trkpt>
      <trkpt lat="46.40092" lon="-0.24355">
        <ele>117.2</ele>
        <time>2020-05-31T08:20:48Z</time>
      </trkpt>
      <trkpt lat="46.40092" lon="-0.24355">
        <ele>117.2</ele>
        <time>2020-05-31T08:20:49Z</time>
      </trkpt>
      <trkpt lat="46.40092" lon="-0.24355">
        <ele>117.2</ele>
        <time>2020-05-31T08:20:50Z</time>
      </trkpt>
      <trkpt lat="46.40092" lon="-0.24355">
        <ele>117.2</ele>
        <time>2020-05-31T08:20:51Z</time>
      </trkpt>
      <trkpt lat="46.40092" lon="-0.24355">
        <ele>117.2</ele>
        <time>2020-05-31T08:20:52Z</time>
      </trkpt>
      <trkpt lat="46.40092" lon="-0.24355">
        <ele>117.2</ele>
        <time>2020-05-31T08:20:53Z</time>
      </trkpt>
      <trkpt lat="46.40092" lon="-0.24355">
        <ele>117.2</ele>
        <time>2020-05-31T08:20:54Z</time>
      </trkpt>
      <trkpt lat="46.40092" lon="-0.24355">
        <ele>117.2</ele>
        <time>2020-05-31T08:20:55Z</time>
      </trkpt>
      <trkpt lat="46.40092" lon="-0.24355">
        <ele>117.2</ele>
        <time>2020-05-31T08:20:56Z</time>
      </trkpt>
      <trkpt lat="46.40092" lon="-0.24355">
        <ele>117.2</ele>
        <time>2020-05-31T08:20:57Z</time>
      </trkpt>
      <trkpt lat="46.40092" lon="-0.24355">
        <ele>117.2</ele>
        <time>2020-05-31T08:20:58Z</time>
      </trkpt>
      <trkpt lat="46.40092" lon="-0.24355">
        <ele>117.2</ele>
        <time>2020-05-31T08:20:59Z</time>
      </trkpt>
      <trkpt lat="46.40092" lon="-0.24355">
        <ele>117.2</ele>
        <time>2020-05-31T08:21:00Z</time>
      </trkpt>
      <trkpt lat="46.40092" lon="-0.24355">
        <ele>117.2</ele>
        <time>2020-05-31T08:21:01Z</time>
      </trkpt>
      <trkpt lat="46.40092" lon="-0.24355">
        <ele>117.2</ele>
        <time>2020-05-31T08:21:02Z</time>
      </trkpt>
      <trkpt lat="46.40092" lon="-0.24355">
        <ele>117.2</ele>
        <time>2020-05-31T08:21:03Z</time>
      </trkpt>
      <trkpt lat="46.40092" lon="-0.24355">
        <ele>117.2</ele>
        <time>2020-05-31T08:21:04Z</time>
      </trkpt>
      <trkpt lat="46.40092" lon="-0.24355">
        <ele>117.2</ele>
        <time>2020-05-31T08:21:05Z</time>
      </trkpt>
      <trkpt lat="46.40092" lon="-0.24355">
        <ele>117.2</ele>
        <time>2020-05-31T08:21:06Z</time>
      </trkpt>
      <trkpt lat="46.40092" lon="-0.24355">
        <ele>117.2</ele>
        <time>2020-05-31T08:21:07Z</time>
      </trkpt>
      <trkpt lat="46.40092" lon="-0.24355">
        <ele>117.2</ele>
        <time>2020-05-31T08:21:08Z</time>
      </trkpt>
      <trkpt lat="46.40092" lon="-0.24355">
        <ele>117.2</ele>
        <time>2020-05-31T08:21:09Z</time>
      </trkpt>
      <trkpt lat="46.40092" lon="-0.24356">
        <ele>117.2</ele>
        <time>2020-05-31T08:21:10Z</time>
      </trkpt>
      <trkpt lat="46.40091" lon="-0.24356">
        <ele>117.2</ele>
        <time>2020-05-31T08:21:11Z</time>
      </trkpt>
      <trkpt lat="46.40091" lon="-0.24356">
        <ele>117.2</ele>
        <time>2020-05-31T08:21:12Z</time>
      </trkpt>
      <trkpt lat="46.40091" lon="-0.24356">
        <ele>117.2</ele>
        <time>2020-05-31T08:21:13Z</time>
      </trkpt>
      <trkpt lat="46.40091" lon="-0.24356">
        <ele>117.2</ele>
        <time>2020-05-31T08:21:14Z</time>
      </trkpt>
      <trkpt lat="46.40091" lon="-0.24356">
        <ele>117.2</ele>
        <time>2020-05-31T08:21:15Z</time>
      </trkpt>
      <trkpt lat="46.40091" lon="-0.24356">
        <ele>117.2</ele>
        <time>2020-05-31T08:21:16Z</time>
      </trkpt>
      <trkpt lat="46.40091" lon="-0.24356">
        <ele>117.2</ele>
        <time>2020-05-31T08:21:17Z</time>
      </trkpt>
      <trkpt lat="46.40091" lon="-0.24356">
        <ele>117.2</ele>
        <time>2020-05-31T08:21:18Z</time>
      </trkpt>
      <trkpt lat="46.40091" lon="-0.24356">
        <ele>117.2</ele>
        <time>2020-05-31T08:21:19Z</time>
      </trkpt>
      <trkpt lat="46.40091" lon="-0.24356">
        <ele>117.2</ele>
        <time>2020-05-31T08:21:20Z</time>
      </trkpt>
      <trkpt lat="46.40091" lon="-0.24356">
        <ele>117.2</ele>
        <time>2020-05-31T08:21:21Z</time>
      </trkpt>
      <trkpt lat="46.40091" lon="-0.24356">
        <ele>117.2</ele>
        <time>2020-05-31T08:21:22Z</time>
      </trkpt>
      <trkpt lat="46.40091" lon="-0.24356">
        <ele>117.2</ele>
        <time>2020-05-31T08:21:23Z</time>
      </trkpt>
      <trkpt lat="46.40091" lon="-0.24356">
        <ele>117.2</ele>
        <time>2020-05-31T08:21:24Z</time>
      </trkpt>
      <trkpt lat="46.40091" lon="-0.24356">
        <ele>117.2</ele>
        <time>2020-05-31T08:21:25Z</time>
      </trkpt>
      <trkpt lat="46.40091" lon="-0.24356">
        <ele>117.2</ele>
        <time>2020-05-31T08:21:26Z</time>
      </trkpt>
      <trkpt lat="46.40091" lon="-0.24356">
        <ele>117.2</ele>
        <time>2020-05-31T08:21:27Z</time>
      </trkpt>
      <trkpt lat="46.40091" lon="-0.24356">
        <ele>117.2</ele>
        <time>2020-05-31T08:21:28Z</time>
      </trkpt>
      <trkpt lat="46.40091" lon="-0.24356">
        <ele>117.2</ele>
        <time>2020-05-31T08:21:29Z</time>
      </trkpt>
      <trkpt lat="46.40091" lon="-0.24356">
        <ele>117.2</ele>
        <time>2020-05-31T08:21:30Z</time>
      </trkpt>
      <trkpt lat="46.40091" lon="-0.24356">
        <ele>117.2</ele>
        <time>2020-05-31T08:21:31Z</time>
      </trkpt>
      <trkpt lat="46.40091" lon="-0.24356">
        <ele>117.2</ele>
        <time>2020-05-31T08:21:32Z</time>
      </trkpt>
      <trkpt lat="46.40091" lon="-0.24356">
        <ele>117.2</ele>
        <time>2020-05-31T08:21:33Z</time>
      </trkpt>
      <trkpt lat="46.40091" lon="-0.24356">
        <ele>117.2</ele>
        <time>2020-05-31T08:21:34Z</time>
      </trkpt>
      <trkpt lat="46.40091" lon="-0.24356">
        <ele>117.2</ele>
        <time>2020-05-31T08:21:35Z</time>
      </trkpt>
      <trkpt lat="46.40091" lon="-0.24356">
        <ele>117.2</ele>
        <time>2020-05-31T08:21:36Z</time>
      </trkpt>
      <trkpt lat="46.40091" lon="-0.24356">
        <ele>117.2</ele>
        <time>2020-05-31T08:21:37Z</time>
      </trkpt>
      <trkpt lat="46.40091" lon="-0.24356">
        <ele>117.2</ele>
        <time>2020-05-31T08:21:38Z</time>
      </trkpt>
      <trkpt lat="46.40091" lon="-0.24356">
        <ele>117.2</ele>
        <time>2020-05-31T08:21:39Z</time>
      </trkpt>
      <trkpt lat="46.40091" lon="-0.24356">
        <ele>117.2</ele>
        <time>2020-05-31T08:21:40Z</time>
      </trkpt>
      <trkpt lat="46.40091" lon="-0.24356">
        <ele>117.2</ele>
        <time>2020-05-31T08:21:41Z</time>
      </trkpt>
      <trkpt lat="46.40091" lon="-0.24356">
        <ele>117.2</ele>
        <time>2020-05-31T08:21:42Z</time>
      </trkpt>
      <trkpt lat="46.40091" lon="-0.24356">
        <ele>117.2</ele>
        <time>2020-05-31T08:21:43Z</time>
      </trkpt>
      <trkpt lat="46.40091" lon="-0.24356">
        <ele>117.2</ele>
        <time>2020-05-31T08:21:44Z</time>
      </trkpt>
      <trkpt lat="46.40091" lon="-0.24356">
        <ele>117.2</ele>
        <time>2020-05-31T08:21:45Z</time>
      </trkpt>
      <trkpt lat="46.40091" lon="-0.24356">
        <ele>117.2</ele>
        <time>2020-05-31T08:21:46Z</time>
      </trkpt>
      <trkpt lat="46.40091" lon="-0.24357">
        <ele>117.2</ele>
        <time>2020-05-31T08:21:47Z</time>
      </trkpt>
      <trkpt lat="46.40091" lon="-0.24357">
        <ele>117.2</ele>
        <time>2020-05-31T08:21:48Z</time>
      </trkpt>
      <trkpt lat="46.40091" lon="-0.24357">
        <ele>117.2</ele>
        <time>2020-05-31T08:21:49Z</time>
      </trkpt>
      <trkpt lat="46.40091" lon="-0.24357">
        <ele>117.2</ele>
        <time>2020-05-31T08:21:50Z</time>
      </trkpt>
      <trkpt lat="46.40091" lon="-0.24357">
        <ele>117.2</ele>
        <time>2020-05-31T08:21:51Z</time>
      </trkpt>
      <trkpt lat="46.40091" lon="-0.24357">
        <ele>117.2</ele>
        <time>2020-05-31T08:21:52Z</time>
      </trkpt>
      <trkpt lat="46.40091" lon="-0.24357">
        <ele>117.2</ele>
        <time>2020-05-31T08:21:53Z</time>
      </trkpt>
      <trkpt lat="46.40091" lon="-0.24357">
        <ele>117.2</ele>
        <time>2020-05-31T08:21:54Z</time>
      </trkpt>
      <trkpt lat="46.40091" lon="-0.24357">
        <ele>117.2</ele>
        <time>2020-05-31T08:21:55Z</time>
      </trkpt>
      <trkpt lat="46.40091" lon="-0.24357">
        <ele>117.2</ele>
        <time>2020-05-31T08:21:56Z</time>
      </trkpt>
      <trkpt lat="46.40091" lon="-0.24357">
        <ele>117.2</ele>
        <time>2020-05-31T08:21:57Z</time>
      </trkpt>
      <trkpt lat="46.40091" lon="-0.24357">
        <ele>117.2</ele>
        <time>2020-05-31T08:21:58Z</time>
      </trkpt>
      <trkpt lat="46.40091" lon="-0.24357">
        <ele>117.2</ele>
        <time>2020-05-31T08:21:59Z</time>
      </trkpt>
      <trkpt lat="46.40091" lon="-0.24357">
        <ele>117.2</ele>
        <time>2020-05-31T08:22:00Z</time>
      </trkpt>
      <trkpt lat="46.40091" lon="-0.24357">
        <ele>117.2</ele>
        <time>2020-05-31T08:22:01Z</time>
      </trkpt>
      <trkpt lat="46.40091" lon="-0.24357">
        <ele>117.2</ele>
        <time>2020-05-31T08:22:02Z</time>
      </trkpt>
      <trkpt lat="46.40091" lon="-0.24357">
        <ele>117.2</ele>
        <time>2020-05-31T08:22:03Z</time>
      </trkpt>
      <trkpt lat="46.40091" lon="-0.24357">
        <ele>117.2</ele>
        <time>2020-05-31T08:22:04Z</time>
      </trkpt>
      <trkpt lat="46.40091" lon="-0.24357">
        <ele>117.2</ele>
        <time>2020-05-31T08:22:05Z</time>
      </trkpt>
      <trkpt lat="46.40091" lon="-0.24357">
        <ele>117.2</ele>
        <time>2020-05-31T08:22:06Z</time>
      </trkpt>
      <trkpt lat="46.40091" lon="-0.24357">
        <ele>117.2</ele>
        <time>2020-05-31T08:22:07Z</time>
      </trkpt>
      <trkpt lat="46.40091" lon="-0.24357">
        <ele>117.2</ele>
        <time>2020-05-31T08:22:08Z</time>
      </trkpt>
      <trkpt lat="46.40091" lon="-0.24357">
        <ele>117.2</ele>
        <time>2020-05-31T08:22:09Z</time>
      </trkpt>
      <trkpt lat="46.40091" lon="-0.24357">
        <ele>117.2</ele>
        <time>2020-05-31T08:22:10Z</time>
      </trkpt>
      <trkpt lat="46.4009" lon="-0.24357">
        <ele>117.2</ele>
        <time>2020-05-31T08:22:11Z</time>
      </trkpt>
      <trkpt lat="46.4009" lon="-0.24357">
        <ele>117.2</ele>
        <time>2020-05-31T08:22:12Z</time>
      </trkpt>
      <trkpt lat="46.4009" lon="-0.24357">
        <ele>117.2</ele>
        <time>2020-05-31T08:22:13Z</time>
      </trkpt>
      <trkpt lat="46.4009" lon="-0.24357">
        <ele>117.2</ele>
        <time>2020-05-31T08:22:14Z</time>
      </trkpt>
      <trkpt lat="46.4009" lon="-0.24357">
        <ele>117.2</ele>
        <time>2020-05-31T08:22:15Z</time>
      </trkpt>
      <trkpt lat="46.4009" lon="-0.24357">
        <ele>117.2</ele>
        <time>2020-05-31T08:22:16Z</time>
      </trkpt>
      <trkpt lat="46.4009" lon="-0.24357">
        <ele>117.2</ele>
        <time>2020-05-31T08:22:17Z</time>
      </trkpt>
      <trkpt lat="46.4009" lon="-0.24357">
        <ele>117.2</ele>
        <time>2020-05-31T08:22:18Z</time>
      </trkpt>
      <trkpt lat="46.4009" lon="-0.24357">
        <ele>117.2</ele>
        <time>2020-05-31T08:22:19Z</time>
      </trkpt>
      <trkpt lat="46.4009" lon="-0.24357">
        <ele>117.2</ele>
        <time>2020-05-31T08:22:20Z</time>
      </trkpt>
      <trkpt lat="46.4009" lon="-0.24357">
        <ele>117.2</ele>
        <time>2020-05-31T08:22:21Z</time>
      </trkpt>
      <trkpt lat="46.4009" lon="-0.24357">
        <ele>117.2</ele>
        <time>2020-05-31T08:22:22Z</time>
      </trkpt>
      <trkpt lat="46.4009" lon="-0.24358">
        <ele>117.2</ele>
        <time>2020-05-31T08:22:23Z</time>
      </trkpt>
      <trkpt lat="46.4009" lon="-0.24358">
        <ele>117.2</ele>
        <time>2020-05-31T08:22:24Z</time>
      </trkpt>
      <trkpt lat="46.4009" lon="-0.24358">
        <ele>117.2</ele>
        <time>2020-05-31T08:22:25Z</time>
      </trkpt>
      <trkpt lat="46.4009" lon="-0.24358">
        <ele>117.2</ele>
        <time>2020-05-31T08:22:26Z</time>
      </trkpt>
      <trkpt lat="46.4009" lon="-0.24358">
        <ele>117.2</ele>
        <time>2020-05-31T08:22:27Z</time>
      </trkpt>
      <trkpt lat="46.4009" lon="-0.24358">
        <ele>117.2</ele>
        <time>2020-05-31T08:22:28Z</time>
      </trkpt>
      <trkpt lat="46.4009" lon="-0.24358">
        <ele>117.2</ele>
        <time>2020-05-31T08:22:29Z</time>
      </trkpt>
      <trkpt lat="46.4009" lon="-0.24358">
        <ele>117.2</ele>
        <time>2020-05-31T08:22:30Z</time>
      </trkpt>
      <trkpt lat="46.4009" lon="-0.24358">
        <ele>117.2</ele>
        <time>2020-05-31T08:22:31Z</time>
      </trkpt>
      <trkpt lat="46.4009" lon="-0.24358">
        <ele>117.2</ele>
        <time>2020-05-31T08:22:32Z</time>
      </trkpt>
      <trkpt lat="46.4009" lon="-0.24358">
        <ele>117.2</ele>
        <time>2020-05-31T08:22:33Z</time>
      </trkpt>
      <trkpt lat="46.4009" lon="-0.24358">
        <ele>117.2</ele>
        <time>2020-05-31T08:22:34Z</time>
      </trkpt>
      <trkpt lat="46.4009" lon="-0.24358">
        <ele>117.2</ele>
        <time>2020-05-31T08:22:35Z</time>
      </trkpt>
      <trkpt lat="46.4009" lon="-0.24358">
        <ele>117.2</ele>
        <time>2020-05-31T08:22:36Z</time>
      </trkpt>
      <trkpt lat="46.4009" lon="-0.24358">
        <ele>117.2</ele>
        <time>2020-05-31T08:22:37Z</time>
      </trkpt>
      <trkpt lat="46.4009" lon="-0.24358">
        <ele>117.2</ele>
        <time>2020-05-31T08:22:38Z</time>
      </trkpt>
      <trkpt lat="46.4009" lon="-0.24358">
        <ele>117.2</ele>
        <time>2020-05-31T08:22:39Z</time>
      </trkpt>
      <trkpt lat="46.4009" lon="-0.24358">
        <ele>117.2</ele>
        <time>2020-05-31T08:22:40Z</time>
      </trkpt>
      <trkpt lat="46.4009" lon="-0.24358">
        <ele>117.2</ele>
        <time>2020-05-31T08:22:41Z</time>
      </trkpt>
      <trkpt lat="46.4009" lon="-0.24358">
        <ele>117.2</ele>
        <time>2020-05-31T08:22:42Z</time>
      </trkpt>
      <trkpt lat="46.4009" lon="-0.24358">
        <ele>117.2</ele>
        <time>2020-05-31T08:22:43Z</time>
      </trkpt>
      <trkpt lat="46.4009" lon="-0.24358">
        <ele>117.2</ele>
        <time>2020-05-31T08:22:44Z</time>
      </trkpt>
      <trkpt lat="46.4009" lon="-0.24358">
        <ele>117.2</ele>
        <time>2020-05-31T08:22:45Z</time>
      </trkpt>
      <trkpt lat="46.4009" lon="-0.24358">
        <ele>117.2</ele>
        <time>2020-05-31T08:22:46Z</time>
      </trkpt>
      <trkpt lat="46.4009" lon="-0.24358">
        <ele>117.2</ele>
        <time>2020-05-31T08:22:47Z</time>
      </trkpt>
      <trkpt lat="46.4009" lon="-0.24358">
        <ele>117.2</ele>
        <time>2020-05-31T08:22:48Z</time>
      </trkpt>
      <trkpt lat="46.4009" lon="-0.24358">
        <ele>117.2</ele>
        <time>2020-05-31T08:22:49Z</time>
      </trkpt>
      <trkpt lat="46.4009" lon="-0.24358">
        <ele>117.2</ele>
        <time>2020-05-31T08:22:50Z</time>
      </trkpt>
      <trkpt lat="46.4009" lon="-0.24358">
        <ele>117.2</ele>
        <time>2020-05-31T08:22:51Z</time>
      </trkpt>
      <trkpt lat="46.4009" lon="-0.24358">
        <ele>117.2</ele>
        <time>2020-05-31T08:22:52Z</time>
      </trkpt>
      <trkpt lat="46.4009" lon="-0.24358">
        <ele>117.2</ele>
        <time>2020-05-31T08:22:53Z</time>
      </trkpt>
      <trkpt lat="46.4009" lon="-0.24358">
        <ele>117.2</ele>
        <time>2020-05-31T08:22:54Z</time>
      </trkpt>
      <trkpt lat="46.4009" lon="-0.24358">
        <ele>117.2</ele>
        <time>2020-05-31T08:22:55Z</time>
      </trkpt>
      <trkpt lat="46.4009" lon="-0.24358">
        <ele>117.2</ele>
        <time>2020-05-31T08:22:56Z</time>
      </trkpt>
      <trkpt lat="46.4009" lon="-0.24358">
        <ele>117.2</ele>
        <time>2020-05-31T08:22:57Z</time>
      </trkpt>
      <trkpt lat="46.4009" lon="-0.24358">
        <ele>117.2</ele>
        <time>2020-05-31T08:22:58Z</time>
      </trkpt>
      <trkpt lat="46.4009" lon="-0.24358">
        <ele>117.2</ele>
        <time>2020-05-31T08:22:59Z</time>
      </trkpt>
      <trkpt lat="46.4009" lon="-0.24359">
        <ele>117.2</ele>
        <time>2020-05-31T08:23:00Z</time>
      </trkpt>
      <trkpt lat="46.4009" lon="-0.24359">
        <ele>117.2</ele>
        <time>2020-05-31T08:23:01Z</time>
      </trkpt>
      <trkpt lat="46.4009" lon="-0.24359">
        <ele>117.2</ele>
        <time>2020-05-31T08:23:02Z</time>
      </trkpt>
      <trkpt lat="46.4009" lon="-0.24359">
        <ele>117.2</ele>
        <time>2020-05-31T08:23:03Z</time>
      </trkpt>
      <trkpt lat="46.4009" lon="-0.24359">
        <ele>117.2</ele>
        <time>2020-05-31T08:23:04Z</time>
      </trkpt>
      <trkpt lat="46.4009" lon="-0.24359">
        <ele>117.2</ele>
        <time>2020-05-31T08:23:05Z</time>
      </trkpt>
      <trkpt lat="46.4009" lon="-0.24359">
        <ele>117.2</ele>
        <time>2020-05-31T08:23:06Z</time>
      </trkpt>
      <trkpt lat="46.4009" lon="-0.24359">
        <ele>117.2</ele>
        <time>2020-05-31T08:23:07Z</time>
      </trkpt>
      <trkpt lat="46.4009" lon="-0.24359">
        <ele>117.2</ele>
        <time>2020-05-31T08:23:08Z</time>
      </trkpt>
      <trkpt lat="46.4009" lon="-0.24359">
        <ele>117.2</ele>
        <time>2020-05-31T08:23:09Z</time>
      </trkpt>
      <trkpt lat="46.4009" lon="-0.24359">
        <ele>117.2</ele>
        <time>2020-05-31T08:23:10Z</time>
      </trkpt>
      <trkpt lat="46.40089" lon="-0.24359">
        <ele>117.2</ele>
        <time>2020-05-31T08:23:11Z</time>
      </trkpt>
      <trkpt lat="46.40089" lon="-0.24359">
        <ele>117.2</ele>
        <time>2020-05-31T08:23:12Z</time>
      </trkpt>
      <trkpt lat="46.40089" lon="-0.24359">
        <ele>117.2</ele>
        <time>2020-05-31T08:23:13Z</time>
      </trkpt>
      <trkpt lat="46.40089" lon="-0.24359">
        <ele>117.2</ele>
        <time>2020-05-31T08:23:14Z</time>
      </trkpt>
      <trkpt lat="46.40089" lon="-0.24359">
        <ele>117.2</ele>
        <time>2020-05-31T08:23:15Z</time>
      </trkpt>
      <trkpt lat="46.40089" lon="-0.24359">
        <ele>117.2</ele>
        <time>2020-05-31T08:23:16Z</time>
      </trkpt>
      <trkpt lat="46.40089" lon="-0.24359">
        <ele>117.2</ele>
        <time>2020-05-31T08:23:17Z</time>
      </trkpt>
      <trkpt lat="46.40089" lon="-0.24359">
        <ele>117.2</ele>
        <time>2020-05-31T08:23:18Z</time>
      </trkpt>
      <trkpt lat="46.40089" lon="-0.24359">
        <ele>117.2</ele>
        <time>2020-05-31T08:23:19Z</time>
      </trkpt>
      <trkpt lat="46.40089" lon="-0.24359">
        <ele>117.2</ele>
        <time>2020-05-31T08:23:20Z</time>
      </trkpt>
      <trkpt lat="46.40089" lon="-0.24359">
        <ele>117.2</ele>
        <time>2020-05-31T08:23:21Z</time>
      </trkpt>
      <trkpt lat="46.40089" lon="-0.24359">
        <ele>117.2</ele>
        <time>2020-05-31T08:23:22Z</time>
      </trkpt>
      <trkpt lat="46.40089" lon="-0.24359">
        <ele>117.2</ele>
        <time>2020-05-31T08:23:23Z</time>
      </trkpt>
      <trkpt lat="46.40089" lon="-0.24359">
        <ele>117.2</ele>
        <time>2020-05-31T08:23:24Z</time>
      </trkpt>
      <trkpt lat="46.40089" lon="-0.24359">
        <ele>117.2</ele>
        <time>2020-05-31T08:23:25Z</time>
      </trkpt>
      <trkpt lat="46.40089" lon="-0.24359">
        <ele>117.2</ele>
        <time>2020-05-31T08:23:26Z</time>
      </trkpt>
      <trkpt lat="46.40089" lon="-0.24359">
        <ele>117.2</ele>
        <time>2020-05-31T08:23:27Z</time>
      </trkpt>
      <trkpt lat="46.40089" lon="-0.24359">
        <ele>117.2</ele>
        <time>2020-05-31T08:23:28Z</time>
      </trkpt>
      <trkpt lat="46.40089" lon="-0.24359">
        <ele>117.2</ele>
        <time>2020-05-31T08:23:29Z</time>
      </trkpt>
      <trkpt lat="46.40089" lon="-0.24359">
        <ele>117.2</ele>
        <time>2020-05-31T08:23:30Z</time>
      </trkpt>
      <trkpt lat="46.40089" lon="-0.24359">
        <ele>117.2</ele>
        <time>2020-05-31T08:23:31Z</time>
      </trkpt>
      <trkpt lat="46.40089" lon="-0.24359">
        <ele>117.2</ele>
        <time>2020-05-31T08:23:32Z</time>
      </trkpt>
      <trkpt lat="46.40089" lon="-0.24359">
        <ele>117.2</ele>
        <time>2020-05-31T08:23:33Z</time>
      </trkpt>
      <trkpt lat="46.40089" lon="-0.24359">
        <ele>117.2</ele>
        <time>2020-05-31T08:23:34Z</time>
      </trkpt>
      <trkpt lat="46.40089" lon="-0.24359">
        <ele>117.2</ele>
        <time>2020-05-31T08:23:35Z</time>
      </trkpt>
      <trkpt lat="46.40089" lon="-0.24359">
        <ele>117.2</ele>
        <time>2020-05-31T08:23:36Z</time>
      </trkpt>
      <trkpt lat="46.40089" lon="-0.2436">
        <ele>117.2</ele>
        <time>2020-05-31T08:23:37Z</time>
      </trkpt>
      <trkpt lat="46.40089" lon="-0.2436">
        <ele>117.2</ele>
        <time>2020-05-31T08:23:38Z</time>
      </trkpt>
      <trkpt lat="46.40089" lon="-0.2436">
        <ele>117.2</ele>
        <time>2020-05-31T08:23:39Z</time>
      </trkpt>
      <trkpt lat="46.40089" lon="-0.2436">
        <ele>117.2</ele>
        <time>2020-05-31T08:23:40Z</time>
      </trkpt>
      <trkpt lat="46.40089" lon="-0.2436">
        <ele>117.2</ele>
        <time>2020-05-31T08:23:41Z</time>
      </trkpt>
      <trkpt lat="46.40089" lon="-0.2436">
        <ele>117.2</ele>
        <time>2020-05-31T08:23:42Z</time>
      </trkpt>
      <trkpt lat="46.40089" lon="-0.2436">
        <ele>117.2</ele>
        <time>2020-05-31T08:23:43Z</time>
      </trkpt>
      <trkpt lat="46.40089" lon="-0.2436">
        <ele>117.2</ele>
        <time>2020-05-31T08:23:44Z</time>
      </trkpt>
      <trkpt lat="46.40089" lon="-0.2436">
        <ele>117.2</ele>
        <time>2020-05-31T08:23:45Z</time>
      </trkpt>
      <trkpt lat="46.40089" lon="-0.2436">
        <ele>117.2</ele>
        <time>2020-05-31T08:23:46Z</time>
      </trkpt>
      <trkpt lat="46.40089" lon="-0.2436">
        <ele>117.2</ele>
        <time>2020-05-31T08:23:47Z</time>
      </trkpt>
      <trkpt lat="46.40089" lon="-0.2436">
        <ele>117.2</ele>
        <time>2020-05-31T08:23:48Z</time>
      </trkpt>
      <trkpt lat="46.40089" lon="-0.2436">
        <ele>117.2</ele>
        <time>2020-05-31T08:23:49Z</time>
      </trkpt>
      <trkpt lat="46.4009" lon="-0.24361">
        <ele>117.2</ele>
        <time>2020-05-31T08:23:50Z</time>
      </trkpt>
      <trkpt lat="46.4009" lon="-0.24361">
        <ele>117.2</ele>
        <time>2020-05-31T08:23:51Z</time>
      </trkpt>
      <trkpt lat="46.40091" lon="-0.24363">
        <ele>117.2</ele>
        <time>2020-05-31T08:23:52Z</time>
      </trkpt>
      <trkpt lat="46.40091" lon="-0.24363">
        <ele>117.2</ele>
        <time>2020-05-31T08:23:53Z</time>
      </trkpt>
      <trkpt lat="46.40091" lon="-0.24364">
        <ele>117.2</ele>
        <time>2020-05-31T08:23:54Z</time>
      </trkpt>
      <trkpt lat="46.40091" lon="-0.24364">
        <ele>117.2</ele>
        <time>2020-05-31T08:23:55Z</time>
      </trkpt>
      <trkpt lat="46.40091" lon="-0.24365">
        <ele>117.2</ele>
        <time>2020-05-31T08:23:56Z</time>
      </trkpt>
      <trkpt lat="46.40091" lon="-0.24364">
        <ele>117.2</ele>
        <time>2020-05-31T08:23:57Z</time>
      </trkpt>
      <trkpt lat="46.40091" lon="-0.24365">
        <ele>117.2</ele>
        <time>2020-05-31T08:23:58Z</time>
      </trkpt>
      <trkpt lat="46.40092" lon="-0.24365">
        <ele>117.2</ele>
        <time>2020-05-31T08:23:59Z</time>
      </trkpt>
      <trkpt lat="46.40093" lon="-0.24366">
        <ele>117.2</ele>
        <time>2020-05-31T08:24:00Z</time>
      </trkpt>
      <trkpt lat="46.40093" lon="-0.24366">
        <ele>117.2</ele>
        <time>2020-05-31T08:24:01Z</time>
      </trkpt>
      <trkpt lat="46.40093" lon="-0.24366">
        <ele>117.2</ele>
        <time>2020-05-31T08:24:02Z</time>
      </trkpt>
      <trkpt lat="46.40093" lon="-0.24366">
        <ele>117.2</ele>
        <time>2020-05-31T08:24:03Z</time>
      </trkpt>
      <trkpt lat="46.40093" lon="-0.24366">
        <ele>117.2</ele>
        <time>2020-05-31T08:24:04Z</time>
      </trkpt>
      <trkpt lat="46.40093" lon="-0.24366">
        <ele>117.2</ele>
        <time>2020-05-31T08:24:05Z</time>
      </trkpt>
      <trkpt lat="46.40092" lon="-0.24366">
        <ele>117.2</ele>
        <time>2020-05-31T08:24:06Z</time>
      </trkpt>
      <trkpt lat="46.40093" lon="-0.24366">
        <ele>117.2</ele>
        <time>2020-05-31T08:24:07Z</time>
      </trkpt>
      <trkpt lat="46.40092" lon="-0.24365">
        <ele>117.2</ele>
        <time>2020-05-31T08:24:08Z</time>
      </trkpt>
      <trkpt lat="46.40092" lon="-0.24365">
        <ele>117.2</ele>
        <time>2020-05-31T08:24:09Z</time>
      </trkpt>
      <trkpt lat="46.40092" lon="-0.24366">
        <ele>117.2</ele>
        <time>2020-05-31T08:24:10Z</time>
      </trkpt>
      <trkpt lat="46.40092" lon="-0.24366">
        <ele>117.2</ele>
        <time>2020-05-31T08:24:11Z</time>
      </trkpt>
      <trkpt lat="46.40092" lon="-0.24365">
        <ele>117.2</ele>
        <time>2020-05-31T08:24:12Z</time>
      </trkpt>
      <trkpt lat="46.40092" lon="-0.24365">
        <ele>117.2</ele>
        <time>2020-05-31T08:24:13Z</time>
      </trkpt>
      <trkpt lat="46.40091" lon="-0.24365">
        <ele>117.2</ele>
        <time>2020-05-31T08:24:14Z</time>
      </trkpt>
      <trkpt lat="46.40091" lon="-0.24364">
        <ele>117.2</ele>
        <time>2020-05-31T08:24:15Z</time>
      </trkpt>
      <trkpt lat="46.40091" lon="-0.24365">
        <ele>117.2</ele>
        <time>2020-05-31T08:24:16Z</time>
      </trkpt>
      <trkpt lat="46.40091" lon="-0.24365">
        <ele>117.2</ele>
        <time>2020-05-31T08:24:17Z</time>
      </trkpt>
      <trkpt lat="46.40091" lon="-0.24365">
        <ele>117.2</ele>
        <time>2020-05-31T08:24:18Z</time>
      </trkpt>
      <trkpt lat="46.40091" lon="-0.24365">
        <ele>117.2</ele>
        <time>2020-05-31T08:24:19Z</time>
      </trkpt>
      <trkpt lat="46.40092" lon="-0.24365">
        <ele>117.2</ele>
        <time>2020-05-31T08:24:20Z</time>
      </trkpt>
      <trkpt lat="46.40092" lon="-0.24366">
        <ele>117.2</ele>
        <time>2020-05-31T08:24:21Z</time>
      </trkpt>
      <trkpt lat="46.40092" lon="-0.24367">
        <ele>117.1</ele>
        <time>2020-05-31T08:24:22Z</time>
      </trkpt>
      <trkpt lat="46.40092" lon="-0.24367">
        <ele>117.1</ele>
        <time>2020-05-31T08:24:23Z</time>
      </trkpt>
      <trkpt lat="46.40092" lon="-0.24367">
        <ele>117.1</ele>
        <time>2020-05-31T08:24:24Z</time>
      </trkpt>
      <trkpt lat="46.40092" lon="-0.24367">
        <ele>117.1</ele>
        <time>2020-05-31T08:24:25Z</time>
      </trkpt>
      <trkpt lat="46.40093" lon="-0.24367">
        <ele>117.1</ele>
        <time>2020-05-31T08:24:26Z</time>
      </trkpt>
      <trkpt lat="46.40092" lon="-0.24367">
        <ele>117.1</ele>
        <time>2020-05-31T08:24:27Z</time>
      </trkpt>
      <trkpt lat="46.40092" lon="-0.24367">
        <ele>117.1</ele>
        <time>2020-05-31T08:24:28Z</time>
      </trkpt>
      <trkpt lat="46.40092" lon="-0.24367">
        <ele>117.1</ele>
        <time>2020-05-31T08:24:29Z</time>
      </trkpt>
      <trkpt lat="46.40092" lon="-0.24368">
        <ele>117.1</ele>
        <time>2020-05-31T08:24:30Z</time>
      </trkpt>
      <trkpt lat="46.40091" lon="-0.24368">
        <ele>117.1</ele>
        <time>2020-05-31T08:24:31Z</time>
      </trkpt>
      <trkpt lat="46.40091" lon="-0.24369">
        <ele>117.1</ele>
        <time>2020-05-31T08:24:32Z</time>
      </trkpt>
      <trkpt lat="46.4009" lon="-0.2437">
        <ele>117.1</ele>
        <time>2020-05-31T08:24:33Z</time>
      </trkpt>
      <trkpt lat="46.4009" lon="-0.24371">
        <ele>117.1</ele>
        <time>2020-05-31T08:24:34Z</time>
      </trkpt>
      <trkpt lat="46.40089" lon="-0.24372">
        <ele>117.1</ele>
        <time>2020-05-31T08:24:35Z</time>
      </trkpt>
      <trkpt lat="46.40089" lon="-0.24374">
        <ele>117.1</ele>
        <time>2020-05-31T08:24:36Z</time>
      </trkpt>
      <trkpt lat="46.4009" lon="-0.24377">
        <ele>117.1</ele>
        <time>2020-05-31T08:24:37Z</time>
      </trkpt>
      <trkpt lat="46.4009" lon="-0.24378">
        <ele>117.1</ele>
        <time>2020-05-31T08:24:38Z</time>
      </trkpt>
      <trkpt lat="46.4009" lon="-0.2438">
        <ele>117.1</ele>
        <time>2020-05-31T08:24:39Z</time>
      </trkpt>
      <trkpt lat="46.40092" lon="-0.24383">
        <ele>117.1</ele>
        <time>2020-05-31T08:24:40Z</time>
      </trkpt>
      <trkpt lat="46.40093" lon="-0.24384">
        <ele>117.1</ele>
        <time>2020-05-31T08:24:41Z</time>
      </trkpt>
      <trkpt lat="46.40095" lon="-0.24388">
        <ele>117.1</ele>
        <time>2020-05-31T08:24:42Z</time>
      </trkpt>
      <trkpt lat="46.40095" lon="-0.2439">
        <ele>117.1</ele>
        <time>2020-05-31T08:24:43Z</time>
      </trkpt>
      <trkpt lat="46.40095" lon="-0.24396">
        <ele>117.1</ele>
        <time>2020-05-31T08:24:44Z</time>
      </trkpt>
      <trkpt lat="46.40094" lon="-0.24398">
        <ele>117.1</ele>
        <time>2020-05-31T08:24:45Z</time>
      </trkpt>
      <trkpt lat="46.40093" lon="-0.24402">
        <ele>117</ele>
        <time>2020-05-31T08:24:46Z</time>
      </trkpt>
      <trkpt lat="46.40093" lon="-0.24406">
        <ele>117</ele>
        <time>2020-05-31T08:24:47Z</time>
      </trkpt>
      <trkpt lat="46.40091" lon="-0.24411">
        <ele>117</ele>
        <time>2020-05-31T08:24:48Z</time>
      </trkpt>
      <trkpt lat="46.40091" lon="-0.24413">
        <ele>117</ele>
        <time>2020-05-31T08:24:49Z</time>
      </trkpt>
      <trkpt lat="46.4009" lon="-0.24417">
        <ele>117</ele>
        <time>2020-05-31T08:24:50Z</time>
      </trkpt>
      <trkpt lat="46.4009" lon="-0.24422">
        <ele>117</ele>
        <time>2020-05-31T08:24:51Z</time>
      </trkpt>
      <trkpt lat="46.40089" lon="-0.24426">
        <ele>117</ele>
        <time>2020-05-31T08:24:52Z</time>
      </trkpt>
      <trkpt lat="46.40089" lon="-0.2443">
        <ele>117</ele>
        <time>2020-05-31T08:24:53Z</time>
      </trkpt>
      <trkpt lat="46.40087" lon="-0.24434">
        <ele>117</ele>
        <time>2020-05-31T08:24:54Z</time>
      </trkpt>
      <trkpt lat="46.40086" lon="-0.24439">
        <ele>116.9</ele>
        <time>2020-05-31T08:24:55Z</time>
      </trkpt>
      <trkpt lat="46.40086" lon="-0.24441">
        <ele>116.9</ele>
        <time>2020-05-31T08:24:56Z</time>
      </trkpt>
      <trkpt lat="46.40086" lon="-0.24446">
        <ele>116.9</ele>
        <time>2020-05-31T08:24:57Z</time>
      </trkpt>
      <trkpt lat="46.40086" lon="-0.24451">
        <ele>116.9</ele>
        <time>2020-05-31T08:24:58Z</time>
      </trkpt>
      <trkpt lat="46.40086" lon="-0.24456">
        <ele>116.9</ele>
        <time>2020-05-31T08:24:59Z</time>
      </trkpt>
      <trkpt lat="46.40086" lon="-0.24458">
        <ele>116.9</ele>
        <time>2020-05-31T08:25:00Z</time>
      </trkpt>
      <trkpt lat="46.40085" lon="-0.24463">
        <ele>116.9</ele>
        <time>2020-05-31T08:25:01Z</time>
      </trkpt>
      <trkpt lat="46.40084" lon="-0.24468">
        <ele>116.9</ele>
        <time>2020-05-31T08:25:02Z</time>
      </trkpt>
      <trkpt lat="46.40083" lon="-0.2447">
        <ele>116.9</ele>
        <time>2020-05-31T08:25:03Z</time>
      </trkpt>
      <trkpt lat="46.40082" lon="-0.24476">
        <ele>116.8</ele>
        <time>2020-05-31T08:25:04Z</time>
      </trkpt>
      <trkpt lat="46.40082" lon="-0.24478">
        <ele>116.8</ele>
        <time>2020-05-31T08:25:05Z</time>
      </trkpt>
      <trkpt lat="46.40082" lon="-0.24483">
        <ele>116.8</ele>
        <time>2020-05-31T08:25:06Z</time>
      </trkpt>
      <trkpt lat="46.40082" lon="-0.24484">
        <ele>116.8</ele>
        <time>2020-05-31T08:25:07Z</time>
      </trkpt>
      <trkpt lat="46.40081" lon="-0.24487">
        <ele>116.8</ele>
        <time>2020-05-31T08:25:08Z</time>
      </trkpt>
      <trkpt lat="46.4008" lon="-0.24489">
        <ele>116.8</ele>
        <time>2020-05-31T08:25:09Z</time>
      </trkpt>
      <trkpt lat="46.40079" lon="-0.24492">
        <ele>116.8</ele>
        <time>2020-05-31T08:25:10Z</time>
      </trkpt>
      <trkpt lat="46.40079" lon="-0.24494">
        <ele>116.8</ele>
        <time>2020-05-31T08:25:11Z</time>
      </trkpt>
      <trkpt lat="46.40078" lon="-0.245">
        <ele>116.8</ele>
        <time>2020-05-31T08:25:12Z</time>
      </trkpt>
      <trkpt lat="46.40078" lon="-0.24502">
        <ele>116.8</ele>
        <time>2020-05-31T08:25:13Z</time>
      </trkpt>
      <trkpt lat="46.40078" lon="-0.24504">
        <ele>116.8</ele>
        <time>2020-05-31T08:25:14Z</time>
      </trkpt>
      <trkpt lat="46.40076" lon="-0.24505">
        <ele>116.8</ele>
        <time>2020-05-31T08:25:15Z</time>
      </trkpt>
      <trkpt lat="46.40075" lon="-0.2451">
        <ele>116.8</ele>
        <time>2020-05-31T08:25:16Z</time>
      </trkpt>
      <trkpt lat="46.40074" lon="-0.24512">
        <ele>116.8</ele>
        <time>2020-05-31T08:25:17Z</time>
      </trkpt>
      <trkpt lat="46.40071" lon="-0.24513">
        <ele>116.9</ele>
        <time>2020-05-31T08:25:18Z</time>
      </trkpt>
      <trkpt lat="46.4007" lon="-0.24512">
        <ele>116.9</ele>
        <time>2020-05-31T08:25:19Z</time>
      </trkpt>
      <trkpt lat="46.40066" lon="-0.2451">
        <ele>116.9</ele>
        <time>2020-05-31T08:25:20Z</time>
      </trkpt>
      <trkpt lat="46.40065" lon="-0.24509">
        <ele>116.9</ele>
        <time>2020-05-31T08:25:21Z</time>
      </trkpt>
      <trkpt lat="46.40063" lon="-0.24507">
        <ele>116.9</ele>
        <time>2020-05-31T08:25:22Z</time>
      </trkpt>
      <trkpt lat="46.4006" lon="-0.24506">
        <ele>116.8</ele>
        <time>2020-05-31T08:25:23Z</time>
      </trkpt>
      <trkpt lat="46.40056" lon="-0.24503">
        <ele>116.8</ele>
        <time>2020-05-31T08:25:24Z</time>
      </trkpt>
      <trkpt lat="46.40053" lon="-0.245">
        <ele>116.8</ele>
        <time>2020-05-31T08:25:25Z</time>
      </trkpt>
      <trkpt lat="46.40049" lon="-0.24497">
        <ele>116.9</ele>
        <time>2020-05-31T08:25:26Z</time>
      </trkpt>
      <trkpt lat="46.40045" lon="-0.24496">
        <ele>116.9</ele>
        <time>2020-05-31T08:25:27Z</time>
      </trkpt>
      <trkpt lat="46.40043" lon="-0.24496">
        <ele>117</ele>
        <time>2020-05-31T08:25:28Z</time>
      </trkpt>
      <trkpt lat="46.40039" lon="-0.24494">
        <ele>117.1</ele>
        <time>2020-05-31T08:25:29Z</time>
      </trkpt>
      <trkpt lat="46.40036" lon="-0.24494">
        <ele>117.2</ele>
        <time>2020-05-31T08:25:30Z</time>
      </trkpt>
      <trkpt lat="46.40033" lon="-0.24492">
        <ele>117.3</ele>
        <time>2020-05-31T08:25:31Z</time>
      </trkpt>
      <trkpt lat="46.40029" lon="-0.24491">
        <ele>117.4</ele>
        <time>2020-05-31T08:25:32Z</time>
      </trkpt>
      <trkpt lat="46.40025" lon="-0.2449">
        <ele>117.5</ele>
        <time>2020-05-31T08:25:33Z</time>
      </trkpt>
      <trkpt lat="46.40022" lon="-0.24489">
        <ele>117.6</ele>
        <time>2020-05-31T08:25:34Z</time>
      </trkpt>
      <trkpt lat="46.40019" lon="-0.24487">
        <ele>117.7</ele>
        <time>2020-05-31T08:25:35Z</time>
      </trkpt>
      <trkpt lat="46.40015" lon="-0.24485">
        <ele>117.8</ele>
        <time>2020-05-31T08:25:36Z</time>
      </trkpt>
      <trkpt lat="46.40011" lon="-0.24484">
        <ele>117.9</ele>
        <time>2020-05-31T08:25:37Z</time>
      </trkpt>
      <trkpt lat="46.40008" lon="-0.24483">
        <ele>118</ele>
        <time>2020-05-31T08:25:38Z</time>
      </trkpt>
      <trkpt lat="46.40005" lon="-0.24483">
        <ele>118.1</ele>
        <time>2020-05-31T08:25:39Z</time>
      </trkpt>
      <trkpt lat="46.40002" lon="-0.24481">
        <ele>118.2</ele>
        <time>2020-05-31T08:25:40Z</time>
      </trkpt>
      <trkpt lat="46.39999" lon="-0.2448">
        <ele>118.3</ele>
        <time>2020-05-31T08:25:41Z</time>
      </trkpt>
      <trkpt lat="46.39995" lon="-0.24478">
        <ele>118.3</ele>
        <time>2020-05-31T08:25:42Z</time>
      </trkpt>
      <trkpt lat="46.39992" lon="-0.24476">
        <ele>118.4</ele>
        <time>2020-05-31T08:25:43Z</time>
      </trkpt>
      <trkpt lat="46.39989" lon="-0.24474">
        <ele>118.5</ele>
        <time>2020-05-31T08:25:44Z</time>
      </trkpt>
      <trkpt lat="46.39985" lon="-0.24471">
        <ele>118.5</ele>
        <time>2020-05-31T08:25:45Z</time>
      </trkpt>
      <trkpt lat="46.39982" lon="-0.24468">
        <ele>118.5</ele>
        <time>2020-05-31T08:25:46Z</time>
      </trkpt>
      <trkpt lat="46.39978" lon="-0.24466">
        <ele>118.5</ele>
        <time>2020-05-31T08:25:47Z</time>
      </trkpt>
      <trkpt lat="46.39975" lon="-0.24465">
        <ele>118.6</ele>
        <time>2020-05-31T08:25:48Z</time>
      </trkpt>
      <trkpt lat="46.39972" lon="-0.24464">
        <ele>118.7</ele>
        <time>2020-05-31T08:25:49Z</time>
      </trkpt>
      <trkpt lat="46.3997" lon="-0.24463">
        <ele>118.8</ele>
        <time>2020-05-31T08:25:50Z</time>
      </trkpt>
      <trkpt lat="46.39966" lon="-0.2446">
        <ele>119</ele>
        <time>2020-05-31T08:25:51Z</time>
      </trkpt>
      <trkpt lat="46.39963" lon="-0.24458">
        <ele>119.1</ele>
        <time>2020-05-31T08:25:52Z</time>
      </trkpt>
      <trkpt lat="46.39961" lon="-0.24456">
        <ele>119.2</ele>
        <time>2020-05-31T08:25:53Z</time>
      </trkpt>
      <trkpt lat="46.39956" lon="-0.24455">
        <ele>119.3</ele>
        <time>2020-05-31T08:25:54Z</time>
      </trkpt>
      <trkpt lat="46.39954" lon="-0.24455">
        <ele>119.4</ele>
        <time>2020-05-31T08:25:55Z</time>
      </trkpt>
      <trkpt lat="46.39951" lon="-0.24454">
        <ele>119.5</ele>
        <time>2020-05-31T08:25:56Z</time>
      </trkpt>
      <trkpt lat="46.39948" lon="-0.24454">
        <ele>119.6</ele>
        <time>2020-05-31T08:25:57Z</time>
      </trkpt>
      <trkpt lat="46.39944" lon="-0.24453">
        <ele>119.7</ele>
        <time>2020-05-31T08:25:58Z</time>
      </trkpt>
      <trkpt lat="46.39942" lon="-0.24452">
        <ele>119.8</ele>
        <time>2020-05-31T08:25:59Z</time>
      </trkpt>
      <trkpt lat="46.39939" lon="-0.24451">
        <ele>119.9</ele>
        <time>2020-05-31T08:26:00Z</time>
      </trkpt>
      <trkpt lat="46.39935" lon="-0.2445">
        <ele>120.1</ele>
        <time>2020-05-31T08:26:01Z</time>
      </trkpt>
      <trkpt lat="46.39932" lon="-0.2445">
        <ele>120.2</ele>
        <time>2020-05-31T08:26:02Z</time>
      </trkpt>
      <trkpt lat="46.39929" lon="-0.24449">
        <ele>120.3</ele>
        <time>2020-05-31T08:26:03Z</time>
      </trkpt>
      <trkpt lat="46.39926" lon="-0.24448">
        <ele>120.4</ele>
        <time>2020-05-31T08:26:04Z</time>
      </trkpt>
      <trkpt lat="46.39922" lon="-0.24448">
        <ele>120.5</ele>
        <time>2020-05-31T08:26:05Z</time>
      </trkpt>
      <trkpt lat="46.3992" lon="-0.24449">
        <ele>120.8</ele>
        <time>2020-05-31T08:26:06Z</time>
      </trkpt>
      <trkpt lat="46.39918" lon="-0.24454">
        <ele>120.9</ele>
        <time>2020-05-31T08:26:07Z</time>
      </trkpt>
      <trkpt lat="46.39918" lon="-0.24456">
        <ele>121</ele>
        <time>2020-05-31T08:26:08Z</time>
      </trkpt>
      <trkpt lat="46.39917" lon="-0.2446">
        <ele>121.1</ele>
        <time>2020-05-31T08:26:09Z</time>
      </trkpt>
      <trkpt lat="46.39916" lon="-0.24464">
        <ele>121.2</ele>
        <time>2020-05-31T08:26:10Z</time>
      </trkpt>
      <trkpt lat="46.39915" lon="-0.24469">
        <ele>121.4</ele>
        <time>2020-05-31T08:26:11Z</time>
      </trkpt>
      <trkpt lat="46.39914" lon="-0.24473">
        <ele>121.5</ele>
        <time>2020-05-31T08:26:12Z</time>
      </trkpt>
      <trkpt lat="46.39914" lon="-0.24474">
        <ele>121.5</ele>
        <time>2020-05-31T08:26:13Z</time>
      </trkpt>
      <trkpt lat="46.39913" lon="-0.24475">
        <ele>121.6</ele>
        <time>2020-05-31T08:26:14Z</time>
      </trkpt>
      <trkpt lat="46.39913" lon="-0.24475">
        <ele>121.6</ele>
        <time>2020-05-31T08:26:15Z</time>
      </trkpt>
      <trkpt lat="46.39913" lon="-0.24475">
        <ele>121.6</ele>
        <time>2020-05-31T08:26:16Z</time>
      </trkpt>
      <trkpt lat="46.39913" lon="-0.24475">
        <ele>121.6</ele>
        <time>2020-05-31T08:26:17Z</time>
      </trkpt>
      <trkpt lat="46.39913" lon="-0.24475">
        <ele>121.6</ele>
        <time>2020-05-31T08:26:18Z</time>
      </trkpt>
      <trkpt lat="46.39913" lon="-0.24475">
        <ele>121.6</ele>
        <time>2020-05-31T08:26:19Z</time>
      </trkpt>
      <trkpt lat="46.39913" lon="-0.24476">
        <ele>121.6</ele>
        <time>2020-05-31T08:26:20Z</time>
      </trkpt>
      <trkpt lat="46.39913" lon="-0.24476">
        <ele>121.6</ele>
        <time>2020-05-31T08:26:21Z</time>
      </trkpt>
      <trkpt lat="46.39913" lon="-0.24476">
        <ele>121.6</ele>
        <time>2020-05-31T08:26:22Z</time>
      </trkpt>
      <trkpt lat="46.39913" lon="-0.24476">
        <ele>121.6</ele>
        <time>2020-05-31T08:26:23Z</time>
      </trkpt>
      <trkpt lat="46.39913" lon="-0.24476">
        <ele>121.6</ele>
        <time>2020-05-31T08:26:24Z</time>
      </trkpt>
      <trkpt lat="46.39913" lon="-0.24476">
        <ele>121.6</ele>
        <time>2020-05-31T08:26:25Z</time>
      </trkpt>
      <trkpt lat="46.39913" lon="-0.24476">
        <ele>121.6</ele>
        <time>2020-05-31T08:26:26Z</time>
      </trkpt>
      <trkpt lat="46.39913" lon="-0.24477">
        <ele>121.6</ele>
        <time>2020-05-31T08:26:27Z</time>
      </trkpt>
      <trkpt lat="46.39913" lon="-0.24477">
        <ele>121.6</ele>
        <time>2020-05-31T08:26:28Z</time>
      </trkpt>
      <trkpt lat="46.39913" lon="-0.24477">
        <ele>121.6</ele>
        <time>2020-05-31T08:26:29Z</time>
      </trkpt>
      <trkpt lat="46.39914" lon="-0.24477">
        <ele>121.8</ele>
        <time>2020-05-31T08:26:30Z</time>
      </trkpt>
      <trkpt lat="46.39914" lon="-0.24477">
        <ele>121.8</ele>
        <time>2020-05-31T08:26:31Z</time>
      </trkpt>
      <trkpt lat="46.39914" lon="-0.24477">
        <ele>121.8</ele>
        <time>2020-05-31T08:26:32Z</time>
      </trkpt>
      <trkpt lat="46.39914" lon="-0.24477">
        <ele>121.8</ele>
        <time>2020-05-31T08:26:33Z</time>
      </trkpt>
      <trkpt lat="46.39914" lon="-0.24478">
        <ele>121.8</ele>
        <time>2020-05-31T08:26:34Z</time>
      </trkpt>
      <trkpt lat="46.39914" lon="-0.24478">
        <ele>121.8</ele>
        <time>2020-05-31T08:26:35Z</time>
      </trkpt>
      <trkpt lat="46.39914" lon="-0.24478">
        <ele>121.8</ele>
        <time>2020-05-31T08:26:36Z</time>
      </trkpt>
      <trkpt lat="46.39914" lon="-0.24478">
        <ele>121.8</ele>
        <time>2020-05-31T08:26:37Z</time>
      </trkpt>
      <trkpt lat="46.39914" lon="-0.24478">
        <ele>121.8</ele>
        <time>2020-05-31T08:26:38Z</time>
      </trkpt>
      <trkpt lat="46.39914" lon="-0.24478">
        <ele>121.8</ele>
        <time>2020-05-31T08:26:39Z</time>
      </trkpt>
      <trkpt lat="46.39914" lon="-0.24478">
        <ele>121.8</ele>
        <time>2020-05-31T08:26:40Z</time>
      </trkpt>
      <trkpt lat="46.39914" lon="-0.24479">
        <ele>121.8</ele>
        <time>2020-05-31T08:26:41Z</time>
      </trkpt>
      <trkpt lat="46.39914" lon="-0.24479">
        <ele>121.8</ele>
        <time>2020-05-31T08:26:42Z</time>
      </trkpt>
      <trkpt lat="46.39914" lon="-0.24479">
        <ele>121.8</ele>
        <time>2020-05-31T08:26:43Z</time>
      </trkpt>
      <trkpt lat="46.39914" lon="-0.24479">
        <ele>121.8</ele>
        <time>2020-05-31T08:26:44Z</time>
      </trkpt>
      <trkpt lat="46.39914" lon="-0.24479">
        <ele>121.8</ele>
        <time>2020-05-31T08:26:45Z</time>
      </trkpt>
      <trkpt lat="46.39914" lon="-0.24479">
        <ele>121.8</ele>
        <time>2020-05-31T08:26:46Z</time>
      </trkpt>
      <trkpt lat="46.39914" lon="-0.24479">
        <ele>121.8</ele>
        <time>2020-05-31T08:26:47Z</time>
      </trkpt>
      <trkpt lat="46.39914" lon="-0.2448">
        <ele>121.8</ele>
        <time>2020-05-31T08:26:48Z</time>
      </trkpt>
      <trkpt lat="46.39915" lon="-0.2448">
        <ele>121.8</ele>
        <time>2020-05-31T08:26:49Z</time>
      </trkpt>
      <trkpt lat="46.39915" lon="-0.2448">
        <ele>121.8</ele>
        <time>2020-05-31T08:26:50Z</time>
      </trkpt>
      <trkpt lat="46.39915" lon="-0.2448">
        <ele>121.8</ele>
        <time>2020-05-31T08:26:51Z</time>
      </trkpt>
      <trkpt lat="46.39916" lon="-0.24484">
        <ele>121.8</ele>
        <time>2020-05-31T08:26:52Z</time>
      </trkpt>
      <trkpt lat="46.39916" lon="-0.24486">
        <ele>121.8</ele>
        <time>2020-05-31T08:26:53Z</time>
      </trkpt>
      <trkpt lat="46.39917" lon="-0.24489">
        <ele>121.7</ele>
        <time>2020-05-31T08:26:54Z</time>
      </trkpt>
      <trkpt lat="46.39918" lon="-0.24494">
        <ele>121.7</ele>
        <time>2020-05-31T08:26:55Z</time>
      </trkpt>
      <trkpt lat="46.39919" lon="-0.24498">
        <ele>121.7</ele>
        <time>2020-05-31T08:26:56Z</time>
      </trkpt>
      <trkpt lat="46.39921" lon="-0.24502">
        <ele>121.7</ele>
        <time>2020-05-31T08:26:57Z</time>
      </trkpt>
      <trkpt lat="46.39923" lon="-0.24507">
        <ele>121.7</ele>
        <time>2020-05-31T08:26:58Z</time>
      </trkpt>
      <trkpt lat="46.39925" lon="-0.24511">
        <ele>121.7</ele>
        <time>2020-05-31T08:26:59Z</time>
      </trkpt>
      <trkpt lat="46.39927" lon="-0.24516">
        <ele>121.6</ele>
        <time>2020-05-31T08:27:00Z</time>
      </trkpt>
      <trkpt lat="46.39929" lon="-0.24522">
        <ele>121.6</ele>
        <time>2020-05-31T08:27:01Z</time>
      </trkpt>
      <trkpt lat="46.39931" lon="-0.24525">
        <ele>121.5</ele>
        <time>2020-05-31T08:27:02Z</time>
      </trkpt>
      <trkpt lat="46.39933" lon="-0.24529">
        <ele>121.5</ele>
        <time>2020-05-31T08:27:03Z</time>
      </trkpt>
      <trkpt lat="46.39935" lon="-0.24533">
        <ele>121.4</ele>
        <time>2020-05-31T08:27:04Z</time>
      </trkpt>
      <trkpt lat="46.39937" lon="-0.24538">
        <ele>121.4</ele>
        <time>2020-05-31T08:27:05Z</time>
      </trkpt>
      <trkpt lat="46.3994" lon="-0.24542">
        <ele>121.3</ele>
        <time>2020-05-31T08:27:06Z</time>
      </trkpt>
      <trkpt lat="46.39943" lon="-0.24546">
        <ele>121.2</ele>
        <time>2020-05-31T08:27:07Z</time>
      </trkpt>
      <trkpt lat="46.39946" lon="-0.24551">
        <ele>121.2</ele>
        <time>2020-05-31T08:27:08Z</time>
      </trkpt>
      <trkpt lat="46.39948" lon="-0.24555">
        <ele>121.1</ele>
        <time>2020-05-31T08:27:09Z</time>
      </trkpt>
      <trkpt lat="46.39949" lon="-0.24562">
        <ele>121</ele>
        <time>2020-05-31T08:27:10Z</time>
      </trkpt>
      <trkpt lat="46.39951" lon="-0.24567">
        <ele>121</ele>
        <time>2020-05-31T08:27:11Z</time>
      </trkpt>
      <trkpt lat="46.39953" lon="-0.24572">
        <ele>120.9</ele>
        <time>2020-05-31T08:27:12Z</time>
      </trkpt>
      <trkpt lat="46.39955" lon="-0.24578">
        <ele>120.8</ele>
        <time>2020-05-31T08:27:13Z</time>
      </trkpt>
      <trkpt lat="46.39958" lon="-0.24583">
        <ele>120.8</ele>
        <time>2020-05-31T08:27:14Z</time>
      </trkpt>
      <trkpt lat="46.3996" lon="-0.2459">
        <ele>120.7</ele>
        <time>2020-05-31T08:27:15Z</time>
      </trkpt>
      <trkpt lat="46.39962" lon="-0.24594">
        <ele>120.7</ele>
        <time>2020-05-31T08:27:16Z</time>
      </trkpt>
      <trkpt lat="46.39966" lon="-0.24599">
        <ele>120.6</ele>
        <time>2020-05-31T08:27:17Z</time>
      </trkpt>
      <trkpt lat="46.39968" lon="-0.24604">
        <ele>120.5</ele>
        <time>2020-05-31T08:27:18Z</time>
      </trkpt>
      <trkpt lat="46.39971" lon="-0.24608">
        <ele>120.4</ele>
        <time>2020-05-31T08:27:19Z</time>
      </trkpt>
      <trkpt lat="46.39973" lon="-0.24614">
        <ele>120.4</ele>
        <time>2020-05-31T08:27:20Z</time>
      </trkpt>
      <trkpt lat="46.39976" lon="-0.24618">
        <ele>120.3</ele>
        <time>2020-05-31T08:27:21Z</time>
      </trkpt>
      <trkpt lat="46.39979" lon="-0.24624">
        <ele>120.2</ele>
        <time>2020-05-31T08:27:22Z</time>
      </trkpt>
      <trkpt lat="46.39982" lon="-0.24629">
        <ele>120.1</ele>
        <time>2020-05-31T08:27:23Z</time>
      </trkpt>
      <trkpt lat="46.39985" lon="-0.24634">
        <ele>119.9</ele>
        <time>2020-05-31T08:27:24Z</time>
      </trkpt>
      <trkpt lat="46.39988" lon="-0.24641">
        <ele>119.8</ele>
        <time>2020-05-31T08:27:25Z</time>
      </trkpt>
      <trkpt lat="46.3999" lon="-0.24648">
        <ele>119.7</ele>
        <time>2020-05-31T08:27:26Z</time>
      </trkpt>
      <trkpt lat="46.39993" lon="-0.24654">
        <ele>119.5</ele>
        <time>2020-05-31T08:27:27Z</time>
      </trkpt>
      <trkpt lat="46.39996" lon="-0.24661">
        <ele>119.3</ele>
        <time>2020-05-31T08:27:28Z</time>
      </trkpt>
      <trkpt lat="46.39998" lon="-0.24669">
        <ele>119.2</ele>
        <time>2020-05-31T08:27:29Z</time>
      </trkpt>
      <trkpt lat="46.40001" lon="-0.24676">
        <ele>119</ele>
        <time>2020-05-31T08:27:30Z</time>
      </trkpt>
      <trkpt lat="46.40004" lon="-0.24683">
        <ele>118.8</ele>
        <time>2020-05-31T08:27:31Z</time>
      </trkpt>
      <trkpt lat="46.40007" lon="-0.2469">
        <ele>118.7</ele>
        <time>2020-05-31T08:27:32Z</time>
      </trkpt>
      <trkpt lat="46.40011" lon="-0.24697">
        <ele>118.5</ele>
        <time>2020-05-31T08:27:33Z</time>
      </trkpt>
      <trkpt lat="46.40014" lon="-0.24705">
        <ele>118.4</ele>
        <time>2020-05-31T08:27:34Z</time>
      </trkpt>
      <trkpt lat="46.40017" lon="-0.24712">
        <ele>118.3</ele>
        <time>2020-05-31T08:27:35Z</time>
      </trkpt>
      <trkpt lat="46.40022" lon="-0.24717">
        <ele>118.2</ele>
        <time>2020-05-31T08:27:36Z</time>
      </trkpt>
      <trkpt lat="46.40026" lon="-0.24721">
        <ele>118.2</ele>
        <time>2020-05-31T08:27:37Z</time>
      </trkpt>
      <trkpt lat="46.40032" lon="-0.24724">
        <ele>118</ele>
        <time>2020-05-31T08:27:38Z</time>
      </trkpt>
      <trkpt lat="46.40038" lon="-0.24727">
        <ele>117.9</ele>
        <time>2020-05-31T08:27:39Z</time>
      </trkpt>
      <trkpt lat="46.40043" lon="-0.24729">
        <ele>117.8</ele>
        <time>2020-05-31T08:27:40Z</time>
      </trkpt>
      <trkpt lat="46.40049" lon="-0.24731">
        <ele>117.7</ele>
        <time>2020-05-31T08:27:41Z</time>
      </trkpt>
      <trkpt lat="46.40054" lon="-0.24732">
        <ele>117.7</ele>
        <time>2020-05-31T08:27:42Z</time>
      </trkpt>
      <trkpt lat="46.40058" lon="-0.24734">
        <ele>117.6</ele>
        <time>2020-05-31T08:27:43Z</time>
      </trkpt>
      <trkpt lat="46.40061" lon="-0.24738">
        <ele>117.5</ele>
        <time>2020-05-31T08:27:44Z</time>
      </trkpt>
      <trkpt lat="46.40062" lon="-0.24744">
        <ele>117.3</ele>
        <time>2020-05-31T08:27:45Z</time>
      </trkpt>
      <trkpt lat="46.40062" lon="-0.24752">
        <ele>117</ele>
        <time>2020-05-31T08:27:46Z</time>
      </trkpt>
      <trkpt lat="46.40061" lon="-0.24761">
        <ele>116.8</ele>
        <time>2020-05-31T08:27:47Z</time>
      </trkpt>
      <trkpt lat="46.4006" lon="-0.24768">
        <ele>116.5</ele>
        <time>2020-05-31T08:27:48Z</time>
      </trkpt>
      <trkpt lat="46.40059" lon="-0.24776">
        <ele>116.3</ele>
        <time>2020-05-31T08:27:49Z</time>
      </trkpt>
      <trkpt lat="46.40059" lon="-0.24784">
        <ele>116.1</ele>
        <time>2020-05-31T08:27:50Z</time>
      </trkpt>
      <trkpt lat="46.40059" lon="-0.24792">
        <ele>115.9</ele>
        <time>2020-05-31T08:27:51Z</time>
      </trkpt>
      <trkpt lat="46.40059" lon="-0.248">
        <ele>115.7</ele>
        <time>2020-05-31T08:27:52Z</time>
      </trkpt>
      <trkpt lat="46.40059" lon="-0.24808">
        <ele>115.4</ele>
        <time>2020-05-31T08:27:53Z</time>
      </trkpt>
      <trkpt lat="46.40058" lon="-0.24817">
        <ele>115.2</ele>
        <time>2020-05-31T08:27:54Z</time>
      </trkpt>
      <trkpt lat="46.40058" lon="-0.24825">
        <ele>115.1</ele>
        <time>2020-05-31T08:27:55Z</time>
      </trkpt>
      <trkpt lat="46.40058" lon="-0.24835">
        <ele>115</ele>
        <time>2020-05-31T08:27:56Z</time>
      </trkpt>
      <trkpt lat="46.40058" lon="-0.24844">
        <ele>114.8</ele>
        <time>2020-05-31T08:27:57Z</time>
      </trkpt>
      <trkpt lat="46.40059" lon="-0.24853">
        <ele>114.7</ele>
        <time>2020-05-31T08:27:58Z</time>
      </trkpt>
      <trkpt lat="46.4006" lon="-0.24862">
        <ele>114.6</ele>
        <time>2020-05-31T08:27:59Z</time>
      </trkpt>
      <trkpt lat="46.4006" lon="-0.24871">
        <ele>114.4</ele>
        <time>2020-05-31T08:28:00Z</time>
      </trkpt>
      <trkpt lat="46.40059" lon="-0.2488">
        <ele>114.3</ele>
        <time>2020-05-31T08:28:01Z</time>
      </trkpt>
      <trkpt lat="46.4006" lon="-0.24889">
        <ele>114.2</ele>
        <time>2020-05-31T08:28:02Z</time>
      </trkpt>
      <trkpt lat="46.40061" lon="-0.24898">
        <ele>114.1</ele>
        <time>2020-05-31T08:28:03Z</time>
      </trkpt>
      <trkpt lat="46.40064" lon="-0.24907">
        <ele>114.1</ele>
        <time>2020-05-31T08:28:04Z</time>
      </trkpt>
      <trkpt lat="46.40066" lon="-0.24915">
        <ele>113.5</ele>
        <time>2020-05-31T08:28:05Z</time>
      </trkpt>
      <trkpt lat="46.40069" lon="-0.24923">
        <ele>113.2</ele>
        <time>2020-05-31T08:28:06Z</time>
      </trkpt>
      <trkpt lat="46.40072" lon="-0.24929">
        <ele>113</ele>
        <time>2020-05-31T08:28:07Z</time>
      </trkpt>
      <trkpt lat="46.40074" lon="-0.24935">
        <ele>112.8</ele>
        <time>2020-05-31T08:28:08Z</time>
      </trkpt>
      <trkpt lat="46.40076" lon="-0.2494">
        <ele>112.7</ele>
        <time>2020-05-31T08:28:09Z</time>
      </trkpt>
      <trkpt lat="46.40079" lon="-0.24945">
        <ele>112.5</ele>
        <time>2020-05-31T08:28:10Z</time>
      </trkpt>
      <trkpt lat="46.4008" lon="-0.24948">
        <ele>112.4</ele>
        <time>2020-05-31T08:28:11Z</time>
      </trkpt>
      <trkpt lat="46.40083" lon="-0.24953">
        <ele>112.3</ele>
        <time>2020-05-31T08:28:12Z</time>
      </trkpt>
      <trkpt lat="46.40085" lon="-0.24956">
        <ele>112.1</ele>
        <time>2020-05-31T08:28:13Z</time>
      </trkpt>
      <trkpt lat="46.40089" lon="-0.2496">
        <ele>112</ele>
        <time>2020-05-31T08:28:14Z</time>
      </trkpt>
      <trkpt lat="46.40092" lon="-0.24963">
        <ele>111.7</ele>
        <time>2020-05-31T08:28:15Z</time>
      </trkpt>
      <trkpt lat="46.40095" lon="-0.24966">
        <ele>111.7</ele>
        <time>2020-05-31T08:28:16Z</time>
      </trkpt>
      <trkpt lat="46.40098" lon="-0.24968">
        <ele>111.6</ele>
        <time>2020-05-31T08:28:17Z</time>
      </trkpt>
      <trkpt lat="46.40104" lon="-0.24973">
        <ele>111.5</ele>
        <time>2020-05-31T08:28:18Z</time>
      </trkpt>
      <trkpt lat="46.40109" lon="-0.24976">
        <ele>111.4</ele>
        <time>2020-05-31T08:28:19Z</time>
      </trkpt>
      <trkpt lat="46.40113" lon="-0.24979">
        <ele>111.4</ele>
        <time>2020-05-31T08:28:20Z</time>
      </trkpt>
      <trkpt lat="46.40116" lon="-0.24981">
        <ele>111.3</ele>
        <time>2020-05-31T08:28:21Z</time>
      </trkpt>
      <trkpt lat="46.4012" lon="-0.24983">
        <ele>111.3</ele>
        <time>2020-05-31T08:28:22Z</time>
      </trkpt>
      <trkpt lat="46.40123" lon="-0.24986">
        <ele>111.3</ele>
        <time>2020-05-31T08:28:23Z</time>
      </trkpt>
      <trkpt lat="46.40126" lon="-0.24987">
        <ele>111.3</ele>
        <time>2020-05-31T08:28:24Z</time>
      </trkpt>
      <trkpt lat="46.40129" lon="-0.24987">
        <ele>111.3</ele>
        <time>2020-05-31T08:28:25Z</time>
      </trkpt>
      <trkpt lat="46.4013" lon="-0.24987">
        <ele>111.3</ele>
        <time>2020-05-31T08:28:26Z</time>
      </trkpt>
      <trkpt lat="46.40133" lon="-0.24987">
        <ele>111.3</ele>
        <time>2020-05-31T08:28:27Z</time>
      </trkpt>
      <trkpt lat="46.40134" lon="-0.24986">
        <ele>111.3</ele>
        <time>2020-05-31T08:28:28Z</time>
      </trkpt>
      <trkpt lat="46.40137" lon="-0.24986">
        <ele>111.3</ele>
        <time>2020-05-31T08:28:29Z</time>
      </trkpt>
      <trkpt lat="46.40138" lon="-0.24986">
        <ele>111.3</ele>
        <time>2020-05-31T08:28:30Z</time>
      </trkpt>
      <trkpt lat="46.40139" lon="-0.24986">
        <ele>111.3</ele>
        <time>2020-05-31T08:28:31Z</time>
      </trkpt>
      <trkpt lat="46.40138" lon="-0.24986">
        <ele>111.3</ele>
        <time>2020-05-31T08:28:32Z</time>
      </trkpt>
      <trkpt lat="46.40139" lon="-0.24986">
        <ele>111.3</ele>
        <time>2020-05-31T08:28:33Z</time>
      </trkpt>
      <trkpt lat="46.40136" lon="-0.24986">
        <ele>111.3</ele>
        <time>2020-05-31T08:28:34Z</time>
      </trkpt>
      <trkpt lat="46.40136" lon="-0.24986">
        <ele>111.3</ele>
        <time>2020-05-31T08:28:35Z</time>
      </trkpt>
      <trkpt lat="46.40136" lon="-0.24986">
        <ele>111.3</ele>
        <time>2020-05-31T08:28:36Z</time>
      </trkpt>
      <trkpt lat="46.40136" lon="-0.24986">
        <ele>111.3</ele>
        <time>2020-05-31T08:28:37Z</time>
      </trkpt>
      <trkpt lat="46.40136" lon="-0.24986">
        <ele>111.3</ele>
        <time>2020-05-31T08:28:38Z</time>
      </trkpt>
      <trkpt lat="46.40136" lon="-0.24987">
        <ele>111.3</ele>
        <time>2020-05-31T08:28:39Z</time>
      </trkpt>
      <trkpt lat="46.40137" lon="-0.24987">
        <ele>111.3</ele>
        <time>2020-05-31T08:28:40Z</time>
      </trkpt>
      <trkpt lat="46.40137" lon="-0.24987">
        <ele>111.3</ele>
        <time>2020-05-31T08:28:41Z</time>
      </trkpt>
      <trkpt lat="46.40137" lon="-0.24987">
        <ele>111.3</ele>
        <time>2020-05-31T08:28:42Z</time>
      </trkpt>
      <trkpt lat="46.40137" lon="-0.24987">
        <ele>111.3</ele>
        <time>2020-05-31T08:28:43Z</time>
      </trkpt>
      <trkpt lat="46.40137" lon="-0.24987">
        <ele>111.3</ele>
        <time>2020-05-31T08:28:44Z</time>
      </trkpt>
      <trkpt lat="46.40138" lon="-0.24988">
        <ele>111.3</ele>
        <time>2020-05-31T08:28:45Z</time>
      </trkpt>
      <trkpt lat="46.40138" lon="-0.24988">
        <ele>111.3</ele>
        <time>2020-05-31T08:28:46Z</time>
      </trkpt>
      <trkpt lat="46.40138" lon="-0.24989">
        <ele>111.3</ele>
        <time>2020-05-31T08:28:47Z</time>
      </trkpt>
      <trkpt lat="46.40138" lon="-0.24988">
        <ele>111.3</ele>
        <time>2020-05-31T08:28:48Z</time>
      </trkpt>
      <trkpt lat="46.40137" lon="-0.24988">
        <ele>111.3</ele>
        <time>2020-05-31T08:28:49Z</time>
      </trkpt>
      <trkpt lat="46.40137" lon="-0.24988">
        <ele>111.3</ele>
        <time>2020-05-31T08:28:50Z</time>
      </trkpt>
      <trkpt lat="46.40137" lon="-0.24988">
        <ele>111.3</ele>
        <time>2020-05-31T08:28:51Z</time>
      </trkpt>
      <trkpt lat="46.40137" lon="-0.24987">
        <ele>111.3</ele>
        <time>2020-05-31T08:28:52Z</time>
      </trkpt>
      <trkpt lat="46.40137" lon="-0.24987">
        <ele>111.3</ele>
        <time>2020-05-31T08:28:53Z</time>
      </trkpt>
      <trkpt lat="46.40137" lon="-0.24987">
        <ele>111.3</ele>
        <time>2020-05-31T08:28:54Z</time>
      </trkpt>
      <trkpt lat="46.40137" lon="-0.24987">
        <ele>111.3</ele>
        <time>2020-05-31T08:28:55Z</time>
      </trkpt>
      <trkpt lat="46.40137" lon="-0.24988">
        <ele>111.3</ele>
        <time>2020-05-31T08:28:56Z</time>
      </trkpt>
      <trkpt lat="46.40135" lon="-0.24987">
        <ele>111.3</ele>
        <time>2020-05-31T08:28:57Z</time>
      </trkpt>
      <trkpt lat="46.40135" lon="-0.24987">
        <ele>111.3</ele>
        <time>2020-05-31T08:28:58Z</time>
      </trkpt>
      <trkpt lat="46.40135" lon="-0.24986">
        <ele>111.3</ele>
        <time>2020-05-31T08:28:59Z</time>
      </trkpt>
      <trkpt lat="46.40136" lon="-0.24987">
        <ele>111.3</ele>
        <time>2020-05-31T08:29:00Z</time>
      </trkpt>
      <trkpt lat="46.40136" lon="-0.24987">
        <ele>111.3</ele>
        <time>2020-05-31T08:29:01Z</time>
      </trkpt>
      <trkpt lat="46.40137" lon="-0.24987">
        <ele>111.3</ele>
        <time>2020-05-31T08:29:02Z</time>
      </trkpt>
      <trkpt lat="46.40137" lon="-0.24987">
        <ele>111.3</ele>
        <time>2020-05-31T08:29:03Z</time>
      </trkpt>
      <trkpt lat="46.40137" lon="-0.24987">
        <ele>111.3</ele>
        <time>2020-05-31T08:29:04Z</time>
      </trkpt>
      <trkpt lat="46.40137" lon="-0.24987">
        <ele>111.3</ele>
        <time>2020-05-31T08:29:05Z</time>
      </trkpt>
      <trkpt lat="46.40137" lon="-0.24987">
        <ele>111.3</ele>
        <time>2020-05-31T08:29:06Z</time>
      </trkpt>
      <trkpt lat="46.40137" lon="-0.24987">
        <ele>111.3</ele>
        <time>2020-05-31T08:29:07Z</time>
      </trkpt>
      <trkpt lat="46.40136" lon="-0.24987">
        <ele>111.3</ele>
        <time>2020-05-31T08:29:08Z</time>
      </trkpt>
      <trkpt lat="46.40136" lon="-0.24986">
        <ele>111.3</ele>
        <time>2020-05-31T08:29:09Z</time>
      </trkpt>
      <trkpt lat="46.40136" lon="-0.24987">
        <ele>111.3</ele>
        <time>2020-05-31T08:29:10Z</time>
      </trkpt>
      <trkpt lat="46.40136" lon="-0.24987">
        <ele>111.3</ele>
        <time>2020-05-31T08:29:11Z</time>
      </trkpt>
      <trkpt lat="46.40135" lon="-0.24987">
        <ele>111.3</ele>
        <time>2020-05-31T08:29:12Z</time>
      </trkpt>
      <trkpt lat="46.40136" lon="-0.24987">
        <ele>111.3</ele>
        <time>2020-05-31T08:29:13Z</time>
      </trkpt>
      <trkpt lat="46.40136" lon="-0.24987">
        <ele>111.3</ele>
        <time>2020-05-31T08:29:14Z</time>
      </trkpt>
      <trkpt lat="46.40136" lon="-0.24987">
        <ele>111.3</ele>
        <time>2020-05-31T08:29:15Z</time>
      </trkpt>
      <trkpt lat="46.40136" lon="-0.24986">
        <ele>111.3</ele>
        <time>2020-05-31T08:29:16Z</time>
      </trkpt>
      <trkpt lat="46.40136" lon="-0.24986">
        <ele>111.3</ele>
        <time>2020-05-31T08:29:17Z</time>
      </trkpt>
      <trkpt lat="46.40137" lon="-0.24986">
        <ele>111.3</ele>
        <time>2020-05-31T08:29:18Z</time>
      </trkpt>
      <trkpt lat="46.40136" lon="-0.24985">
        <ele>111.3</ele>
        <time>2020-05-31T08:29:19Z</time>
      </trkpt>
      <trkpt lat="46.40136" lon="-0.24985">
        <ele>111.3</ele>
        <time>2020-05-31T08:29:20Z</time>
      </trkpt>
      <trkpt lat="46.40136" lon="-0.24985">
        <ele>111.3</ele>
        <time>2020-05-31T08:29:21Z</time>
      </trkpt>
      <trkpt lat="46.40136" lon="-0.24985">
        <ele>111.3</ele>
        <time>2020-05-31T08:29:22Z</time>
      </trkpt>
      <trkpt lat="46.40136" lon="-0.24985">
        <ele>111.3</ele>
        <time>2020-05-31T08:29:23Z</time>
      </trkpt>
      <trkpt lat="46.40137" lon="-0.24984">
        <ele>111.3</ele>
        <time>2020-05-31T08:29:24Z</time>
      </trkpt>
      <trkpt lat="46.40137" lon="-0.24983">
        <ele>111.3</ele>
        <time>2020-05-31T08:29:25Z</time>
      </trkpt>
      <trkpt lat="46.40137" lon="-0.24983">
        <ele>111.3</ele>
        <time>2020-05-31T08:29:26Z</time>
      </trkpt>
      <trkpt lat="46.40137" lon="-0.24982">
        <ele>111.3</ele>
        <time>2020-05-31T08:29:27Z</time>
      </trkpt>
      <trkpt lat="46.40138" lon="-0.24982">
        <ele>111.3</ele>
        <time>2020-05-31T08:29:28Z</time>
      </trkpt>
      <trkpt lat="46.40138" lon="-0.24981">
        <ele>111.3</ele>
        <time>2020-05-31T08:29:29Z</time>
      </trkpt>
      <trkpt lat="46.40139" lon="-0.2498">
        <ele>111.3</ele>
        <time>2020-05-31T08:29:30Z</time>
      </trkpt>
      <trkpt lat="46.40139" lon="-0.2498">
        <ele>111.3</ele>
        <time>2020-05-31T08:29:31Z</time>
      </trkpt>
      <trkpt lat="46.40139" lon="-0.2498">
        <ele>111.3</ele>
        <time>2020-05-31T08:29:32Z</time>
      </trkpt>
      <trkpt lat="46.40139" lon="-0.2498">
        <ele>111.3</ele>
        <time>2020-05-31T08:29:33Z</time>
      </trkpt>
      <trkpt lat="46.40139" lon="-0.2498">
        <ele>111.3</ele>
        <time>2020-05-31T08:29:34Z</time>
      </trkpt>
      <trkpt lat="46.40139" lon="-0.24979">
        <ele>111.3</ele>
        <time>2020-05-31T08:29:35Z</time>
      </trkpt>
      <trkpt lat="46.40139" lon="-0.2498">
        <ele>111.3</ele>
        <time>2020-05-31T08:29:36Z</time>
      </trkpt>
      <trkpt lat="46.40139" lon="-0.2498">
        <ele>111.3</ele>
        <time>2020-05-31T08:29:37Z</time>
      </trkpt>
      <trkpt lat="46.40139" lon="-0.2498">
        <ele>111.3</ele>
        <time>2020-05-31T08:29:38Z</time>
      </trkpt>
      <trkpt lat="46.4014" lon="-0.24981">
        <ele>111.3</ele>
        <time>2020-05-31T08:29:39Z</time>
      </trkpt>
      <trkpt lat="46.4014" lon="-0.24981">
        <ele>111.3</ele>
        <time>2020-05-31T08:29:40Z</time>
      </trkpt>
      <trkpt lat="46.4014" lon="-0.2498">
        <ele>111.3</ele>
        <time>2020-05-31T08:29:41Z</time>
      </trkpt>
      <trkpt lat="46.40139" lon="-0.24979">
        <ele>111.3</ele>
        <time>2020-05-31T08:29:42Z</time>
      </trkpt>
      <trkpt lat="46.40137" lon="-0.24979">
        <ele>111.3</ele>
        <time>2020-05-31T08:29:43Z</time>
      </trkpt>
      <trkpt lat="46.40135" lon="-0.24978">
        <ele>111.3</ele>
        <time>2020-05-31T08:29:44Z</time>
      </trkpt>
      <trkpt lat="46.40134" lon="-0.2498">
        <ele>111.3</ele>
        <time>2020-05-31T08:29:45Z</time>
      </trkpt>
      <trkpt lat="46.40133" lon="-0.2498">
        <ele>111.3</ele>
        <time>2020-05-31T08:29:46Z</time>
      </trkpt>
      <trkpt lat="46.40131" lon="-0.24981">
        <ele>111.3</ele>
        <time>2020-05-31T08:29:47Z</time>
      </trkpt>
      <trkpt lat="46.4013" lon="-0.24981">
        <ele>111.3</ele>
        <time>2020-05-31T08:29:48Z</time>
      </trkpt>
      <trkpt lat="46.40128" lon="-0.24983">
        <ele>111.3</ele>
        <time>2020-05-31T08:29:49Z</time>
      </trkpt>
      <trkpt lat="46.40127" lon="-0.24983">
        <ele>111.3</ele>
        <time>2020-05-31T08:29:50Z</time>
      </trkpt>
      <trkpt lat="46.40127" lon="-0.24983">
        <ele>111.3</ele>
        <time>2020-05-31T08:29:51Z</time>
      </trkpt>
      <trkpt lat="46.40127" lon="-0.24983">
        <ele>111.3</ele>
        <time>2020-05-31T08:29:52Z</time>
      </trkpt>
      <trkpt lat="46.40127" lon="-0.24983">
        <ele>111.4</ele>
        <time>2020-05-31T08:29:53Z</time>
      </trkpt>
      <trkpt lat="46.40127" lon="-0.24983">
        <ele>111.4</ele>
        <time>2020-05-31T08:29:54Z</time>
      </trkpt>
      <trkpt lat="46.40127" lon="-0.24983">
        <ele>111.4</ele>
        <time>2020-05-31T08:29:55Z</time>
      </trkpt>
      <trkpt lat="46.40128" lon="-0.24983">
        <ele>111.4</ele>
        <time>2020-05-31T08:29:56Z</time>
      </trkpt>
      <trkpt lat="46.40128" lon="-0.24983">
        <ele>111.4</ele>
        <time>2020-05-31T08:29:57Z</time>
      </trkpt>
      <trkpt lat="46.40128" lon="-0.24983">
        <ele>111.4</ele>
        <time>2020-05-31T08:29:58Z</time>
      </trkpt>
      <trkpt lat="46.40128" lon="-0.24983">
        <ele>111.4</ele>
        <time>2020-05-31T08:29:59Z</time>
      </trkpt>
      <trkpt lat="46.40128" lon="-0.24983">
        <ele>111.4</ele>
        <time>2020-05-31T08:30:00Z</time>
      </trkpt>
      <trkpt lat="46.40129" lon="-0.24983">
        <ele>111.4</ele>
        <time>2020-05-31T08:30:01Z</time>
      </trkpt>
      <trkpt lat="46.40129" lon="-0.24983">
        <ele>111.4</ele>
        <time>2020-05-31T08:30:02Z</time>
      </trkpt>
      <trkpt lat="46.40129" lon="-0.24983">
        <ele>111.4</ele>
        <time>2020-05-31T08:30:03Z</time>
      </trkpt>
      <trkpt lat="46.40129" lon="-0.24983">
        <ele>111.4</ele>
        <time>2020-05-31T08:30:04Z</time>
      </trkpt>
      <trkpt lat="46.40129" lon="-0.24983">
        <ele>111.4</ele>
        <time>2020-05-31T08:30:05Z</time>
      </trkpt>
      <trkpt lat="46.4013" lon="-0.24983">
        <ele>111.4</ele>
        <time>2020-05-31T08:30:06Z</time>
      </trkpt>
      <trkpt lat="46.4013" lon="-0.24982">
        <ele>111.4</ele>
        <time>2020-05-31T08:30:07Z</time>
      </trkpt>
      <trkpt lat="46.4013" lon="-0.24982">
        <ele>111.4</ele>
        <time>2020-05-31T08:30:08Z</time>
      </trkpt>
      <trkpt lat="46.4013" lon="-0.24982">
        <ele>111.4</ele>
        <time>2020-05-31T08:30:09Z</time>
      </trkpt>
      <trkpt lat="46.4013" lon="-0.24982">
        <ele>111.4</ele>
        <time>2020-05-31T08:30:10Z</time>
      </trkpt>
      <trkpt lat="46.40131" lon="-0.24982">
        <ele>111.4</ele>
        <time>2020-05-31T08:30:11Z</time>
      </trkpt>
      <trkpt lat="46.40131" lon="-0.24982">
        <ele>111.4</ele>
        <time>2020-05-31T08:30:12Z</time>
      </trkpt>
      <trkpt lat="46.40132" lon="-0.24982">
        <ele>111.4</ele>
        <time>2020-05-31T08:30:13Z</time>
      </trkpt>
      <trkpt lat="46.40134" lon="-0.24981">
        <ele>111.4</ele>
        <time>2020-05-31T08:30:14Z</time>
      </trkpt>
      <trkpt lat="46.40135" lon="-0.24981">
        <ele>111.4</ele>
        <time>2020-05-31T08:30:15Z</time>
      </trkpt>
      <trkpt lat="46.40136" lon="-0.2498">
        <ele>111.4</ele>
        <time>2020-05-31T08:30:16Z</time>
      </trkpt>
      <trkpt lat="46.40136" lon="-0.2498">
        <ele>111.4</ele>
        <time>2020-05-31T08:30:17Z</time>
      </trkpt>
      <trkpt lat="46.40136" lon="-0.2498">
        <ele>111.4</ele>
        <time>2020-05-31T08:30:18Z</time>
      </trkpt>
      <trkpt lat="46.40136" lon="-0.24979">
        <ele>111.4</ele>
        <time>2020-05-31T08:30:19Z</time>
      </trkpt>
      <trkpt lat="46.40136" lon="-0.24979">
        <ele>111.4</ele>
        <time>2020-05-31T08:30:20Z</time>
      </trkpt>
      <trkpt lat="46.40136" lon="-0.24979">
        <ele>111.4</ele>
        <time>2020-05-31T08:30:21Z</time>
      </trkpt>
      <trkpt lat="46.40136" lon="-0.24979">
        <ele>111.4</ele>
        <time>2020-05-31T08:30:22Z</time>
      </trkpt>
      <trkpt lat="46.40136" lon="-0.24979">
        <ele>111.4</ele>
        <time>2020-05-31T08:30:23Z</time>
      </trkpt>
      <trkpt lat="46.40136" lon="-0.24979">
        <ele>111.4</ele>
        <time>2020-05-31T08:30:24Z</time>
      </trkpt>
      <trkpt lat="46.40136" lon="-0.2498">
        <ele>111.4</ele>
        <time>2020-05-31T08:30:25Z</time>
      </trkpt>
      <trkpt lat="46.40136" lon="-0.2498">
        <ele>111.4</ele>
        <time>2020-05-31T08:30:26Z</time>
      </trkpt>
      <trkpt lat="46.40137" lon="-0.24981">
        <ele>111.4</ele>
        <time>2020-05-31T08:30:27Z</time>
      </trkpt>
      <trkpt lat="46.40137" lon="-0.24981">
        <ele>111.4</ele>
        <time>2020-05-31T08:30:28Z</time>
      </trkpt>
      <trkpt lat="46.40137" lon="-0.24981">
        <ele>111.4</ele>
        <time>2020-05-31T08:30:29Z</time>
      </trkpt>
      <trkpt lat="46.40137" lon="-0.24981">
        <ele>111.4</ele>
        <time>2020-05-31T08:30:30Z</time>
      </trkpt>
      <trkpt lat="46.40137" lon="-0.24981">
        <ele>111.4</ele>
        <time>2020-05-31T08:30:31Z</time>
      </trkpt>
      <trkpt lat="46.40137" lon="-0.24981">
        <ele>111.4</ele>
        <time>2020-05-31T08:30:32Z</time>
      </trkpt>
      <trkpt lat="46.40137" lon="-0.24981">
        <ele>111.4</ele>
        <time>2020-05-31T08:30:33Z</time>
      </trkpt>
      <trkpt lat="46.40137" lon="-0.24981">
        <ele>111.4</ele>
        <time>2020-05-31T08:30:34Z</time>
      </trkpt>
      <trkpt lat="46.40137" lon="-0.24981">
        <ele>111.4</ele>
        <time>2020-05-31T08:30:35Z</time>
      </trkpt>
      <trkpt lat="46.40137" lon="-0.24981">
        <ele>111.4</ele>
        <time>2020-05-31T08:30:36Z</time>
      </trkpt>
      <trkpt lat="46.40137" lon="-0.24981">
        <ele>111.4</ele>
        <time>2020-05-31T08:30:37Z</time>
      </trkpt>
      <trkpt lat="46.40137" lon="-0.24981">
        <ele>111.4</ele>
        <time>2020-05-31T08:30:38Z</time>
      </trkpt>
      <trkpt lat="46.40137" lon="-0.24981">
        <ele>111.4</ele>
        <time>2020-05-31T08:30:39Z</time>
      </trkpt>
      <trkpt lat="46.40137" lon="-0.24981">
        <ele>111.4</ele>
        <time>2020-05-31T08:30:40Z</time>
      </trkpt>
      <trkpt lat="46.40137" lon="-0.24981">
        <ele>111.4</ele>
        <time>2020-05-31T08:30:41Z</time>
      </trkpt>
      <trkpt lat="46.40138" lon="-0.24982">
        <ele>111.4</ele>
        <time>2020-05-31T08:30:42Z</time>
      </trkpt>
      <trkpt lat="46.40138" lon="-0.24983">
        <ele>111.4</ele>
        <time>2020-05-31T08:30:43Z</time>
      </trkpt>
      <trkpt lat="46.40139" lon="-0.24984">
        <ele>111.4</ele>
        <time>2020-05-31T08:30:44Z</time>
      </trkpt>
      <trkpt lat="46.40138" lon="-0.24985">
        <ele>111.4</ele>
        <time>2020-05-31T08:30:45Z</time>
      </trkpt>
      <trkpt lat="46.40138" lon="-0.24986">
        <ele>111.4</ele>
        <time>2020-05-31T08:30:46Z</time>
      </trkpt>
      <trkpt lat="46.40137" lon="-0.24986">
        <ele>111.4</ele>
        <time>2020-05-31T08:30:47Z</time>
      </trkpt>
      <trkpt lat="46.40136" lon="-0.24986">
        <ele>111.4</ele>
        <time>2020-05-31T08:30:48Z</time>
      </trkpt>
      <trkpt lat="46.40136" lon="-0.24987">
        <ele>111.4</ele>
        <time>2020-05-31T08:30:49Z</time>
      </trkpt>
      <trkpt lat="46.40136" lon="-0.24987">
        <ele>111.4</ele>
        <time>2020-05-31T08:30:50Z</time>
      </trkpt>
      <trkpt lat="46.40135" lon="-0.24986">
        <ele>111.4</ele>
        <time>2020-05-31T08:30:51Z</time>
      </trkpt>
      <trkpt lat="46.40134" lon="-0.24985">
        <ele>111.4</ele>
        <time>2020-05-31T08:30:52Z</time>
      </trkpt>
      <trkpt lat="46.40133" lon="-0.24984">
        <ele>111.4</ele>
        <time>2020-05-31T08:30:53Z</time>
      </trkpt>
      <trkpt lat="46.40132" lon="-0.24984">
        <ele>111.4</ele>
        <time>2020-05-31T08:30:54Z</time>
      </trkpt>
      <trkpt lat="46.40131" lon="-0.24984">
        <ele>111.4</ele>
        <time>2020-05-31T08:30:55Z</time>
      </trkpt>
      <trkpt lat="46.4013" lon="-0.24984">
        <ele>111.4</ele>
        <time>2020-05-31T08:30:56Z</time>
      </trkpt>
      <trkpt lat="46.40127" lon="-0.24986">
        <ele>111.4</ele>
        <time>2020-05-31T08:30:57Z</time>
      </trkpt>
      <trkpt lat="46.40124" lon="-0.24989">
        <ele>111.4</ele>
        <time>2020-05-31T08:30:58Z</time>
      </trkpt>
      <trkpt lat="46.40124" lon="-0.24991">
        <ele>111.4</ele>
        <time>2020-05-31T08:30:59Z</time>
      </trkpt>
      <trkpt lat="46.40122" lon="-0.24994">
        <ele>111.4</ele>
        <time>2020-05-31T08:31:00Z</time>
      </trkpt>
      <trkpt lat="46.4012" lon="-0.24997">
        <ele>111.4</ele>
        <time>2020-05-31T08:31:01Z</time>
      </trkpt>
      <trkpt lat="46.40119" lon="-0.24999">
        <ele>111.4</ele>
        <time>2020-05-31T08:31:02Z</time>
      </trkpt>
      <trkpt lat="46.40118" lon="-0.25003">
        <ele>111.5</ele>
        <time>2020-05-31T08:31:03Z</time>
      </trkpt>
      <trkpt lat="46.40117" lon="-0.25007">
        <ele>111.5</ele>
        <time>2020-05-31T08:31:04Z</time>
      </trkpt>
      <trkpt lat="46.40116" lon="-0.25011">
        <ele>111.5</ele>
        <time>2020-05-31T08:31:05Z</time>
      </trkpt>
      <trkpt lat="46.40115" lon="-0.25016">
        <ele>111.5</ele>
        <time>2020-05-31T08:31:06Z</time>
      </trkpt>
      <trkpt lat="46.40114" lon="-0.25022">
        <ele>111.5</ele>
        <time>2020-05-31T08:31:07Z</time>
      </trkpt>
      <trkpt lat="46.40114" lon="-0.25028">
        <ele>111.5</ele>
        <time>2020-05-31T08:31:08Z</time>
      </trkpt>
      <trkpt lat="46.40112" lon="-0.25035">
        <ele>111.6</ele>
        <time>2020-05-31T08:31:09Z</time>
      </trkpt>
      <trkpt lat="46.40111" lon="-0.25041">
        <ele>111.6</ele>
        <time>2020-05-31T08:31:10Z</time>
      </trkpt>
      <trkpt lat="46.4011" lon="-0.25046">
        <ele>111.6</ele>
        <time>2020-05-31T08:31:11Z</time>
      </trkpt>
      <trkpt lat="46.40108" lon="-0.25052">
        <ele>111.6</ele>
        <time>2020-05-31T08:31:12Z</time>
      </trkpt>
      <trkpt lat="46.40105" lon="-0.25056">
        <ele>111.6</ele>
        <time>2020-05-31T08:31:13Z</time>
      </trkpt>
      <trkpt lat="46.40101" lon="-0.2506">
        <ele>111.6</ele>
        <time>2020-05-31T08:31:14Z</time>
      </trkpt>
      <trkpt lat="46.40096" lon="-0.25063">
        <ele>111.7</ele>
        <time>2020-05-31T08:31:15Z</time>
      </trkpt>
      <trkpt lat="46.40092" lon="-0.25064">
        <ele>111.7</ele>
        <time>2020-05-31T08:31:16Z</time>
      </trkpt>
      <trkpt lat="46.40088" lon="-0.25065">
        <ele>111.7</ele>
        <time>2020-05-31T08:31:17Z</time>
      </trkpt>
      <trkpt lat="46.40084" lon="-0.25065">
        <ele>111.7</ele>
        <time>2020-05-31T08:31:18Z</time>
      </trkpt>
      <trkpt lat="46.40079" lon="-0.25065">
        <ele>111.7</ele>
        <time>2020-05-31T08:31:19Z</time>
      </trkpt>
      <trkpt lat="46.40074" lon="-0.25066">
        <ele>111.7</ele>
        <time>2020-05-31T08:31:20Z</time>
      </trkpt>
      <trkpt lat="46.40069" lon="-0.25067">
        <ele>111.7</ele>
        <time>2020-05-31T08:31:21Z</time>
      </trkpt>
      <trkpt lat="46.40066" lon="-0.25067">
        <ele>111.7</ele>
        <time>2020-05-31T08:31:22Z</time>
      </trkpt>
      <trkpt lat="46.40062" lon="-0.25068">
        <ele>111.7</ele>
        <time>2020-05-31T08:31:23Z</time>
      </trkpt>
      <trkpt lat="46.40059" lon="-0.25069">
        <ele>111.7</ele>
        <time>2020-05-31T08:31:24Z</time>
      </trkpt>
      <trkpt lat="46.40055" lon="-0.2507">
        <ele>111.7</ele>
        <time>2020-05-31T08:31:25Z</time>
      </trkpt>
      <trkpt lat="46.40051" lon="-0.2507">
        <ele>111.7</ele>
        <time>2020-05-31T08:31:26Z</time>
      </trkpt>
      <trkpt lat="46.40047" lon="-0.2507">
        <ele>111.7</ele>
        <time>2020-05-31T08:31:27Z</time>
      </trkpt>
      <trkpt lat="46.40043" lon="-0.25071">
        <ele>111.7</ele>
        <time>2020-05-31T08:31:28Z</time>
      </trkpt>
      <trkpt lat="46.4004" lon="-0.25073">
        <ele>111.7</ele>
        <time>2020-05-31T08:31:29Z</time>
      </trkpt>
      <trkpt lat="46.40037" lon="-0.25076">
        <ele>111.7</ele>
        <time>2020-05-31T08:31:30Z</time>
      </trkpt>
      <trkpt lat="46.40035" lon="-0.25082">
        <ele>111.7</ele>
        <time>2020-05-31T08:31:31Z</time>
      </trkpt>
      <trkpt lat="46.40033" lon="-0.25088">
        <ele>111.6</ele>
        <time>2020-05-31T08:31:32Z</time>
      </trkpt>
      <trkpt lat="46.40031" lon="-0.25094">
        <ele>111.6</ele>
        <time>2020-05-31T08:31:33Z</time>
      </trkpt>
      <trkpt lat="46.4003" lon="-0.251">
        <ele>111.6</ele>
        <time>2020-05-31T08:31:34Z</time>
      </trkpt>
      <trkpt lat="46.40027" lon="-0.25105">
        <ele>111.5</ele>
        <time>2020-05-31T08:31:35Z</time>
      </trkpt>
      <trkpt lat="46.40024" lon="-0.2511">
        <ele>111.5</ele>
        <time>2020-05-31T08:31:36Z</time>
      </trkpt>
      <trkpt lat="46.4002" lon="-0.25113">
        <ele>111.4</ele>
        <time>2020-05-31T08:31:37Z</time>
      </trkpt>
      <trkpt lat="46.40015" lon="-0.25116">
        <ele>111.3</ele>
        <time>2020-05-31T08:31:38Z</time>
      </trkpt>
      <trkpt lat="46.4001" lon="-0.25119">
        <ele>111.2</ele>
        <time>2020-05-31T08:31:39Z</time>
      </trkpt>
      <trkpt lat="46.40005" lon="-0.25122">
        <ele>111.1</ele>
        <time>2020-05-31T08:31:40Z</time>
      </trkpt>
      <trkpt lat="46.4" lon="-0.25125">
        <ele>111</ele>
        <time>2020-05-31T08:31:41Z</time>
      </trkpt>
      <trkpt lat="46.39996" lon="-0.25127">
        <ele>111</ele>
        <time>2020-05-31T08:31:42Z</time>
      </trkpt>
      <trkpt lat="46.39991" lon="-0.2513">
        <ele>110.9</ele>
        <time>2020-05-31T08:31:43Z</time>
      </trkpt>
      <trkpt lat="46.39987" lon="-0.25133">
        <ele>110.9</ele>
        <time>2020-05-31T08:31:44Z</time>
      </trkpt>
      <trkpt lat="46.39982" lon="-0.25136">
        <ele>110.6</ele>
        <time>2020-05-31T08:31:45Z</time>
      </trkpt>
      <trkpt lat="46.39978" lon="-0.25138">
        <ele>110.2</ele>
        <time>2020-05-31T08:31:46Z</time>
      </trkpt>
      <trkpt lat="46.39974" lon="-0.2514">
        <ele>109.9</ele>
        <time>2020-05-31T08:31:47Z</time>
      </trkpt>
      <trkpt lat="46.3997" lon="-0.25142">
        <ele>109.6</ele>
        <time>2020-05-31T08:31:48Z</time>
      </trkpt>
      <trkpt lat="46.39967" lon="-0.25147">
        <ele>109.3</ele>
        <time>2020-05-31T08:31:49Z</time>
      </trkpt>
      <trkpt lat="46.39964" lon="-0.25153">
        <ele>108.8</ele>
        <time>2020-05-31T08:31:50Z</time>
      </trkpt>
      <trkpt lat="46.39962" lon="-0.25161">
        <ele>108.6</ele>
        <time>2020-05-31T08:31:51Z</time>
      </trkpt>
      <trkpt lat="46.39961" lon="-0.25171">
        <ele>108.2</ele>
        <time>2020-05-31T08:31:52Z</time>
      </trkpt>
      <trkpt lat="46.39962" lon="-0.25181">
        <ele>107.7</ele>
        <time>2020-05-31T08:31:53Z</time>
      </trkpt>
      <trkpt lat="46.39963" lon="-0.25191">
        <ele>107.3</ele>
        <time>2020-05-31T08:31:54Z</time>
      </trkpt>
      <trkpt lat="46.39963" lon="-0.252">
        <ele>106.9</ele>
        <time>2020-05-31T08:31:55Z</time>
      </trkpt>
      <trkpt lat="46.39963" lon="-0.25208">
        <ele>106.6</ele>
        <time>2020-05-31T08:31:56Z</time>
      </trkpt>
      <trkpt lat="46.39964" lon="-0.25217">
        <ele>106.2</ele>
        <time>2020-05-31T08:31:57Z</time>
      </trkpt>
      <trkpt lat="46.39965" lon="-0.25227">
        <ele>105.8</ele>
        <time>2020-05-31T08:31:58Z</time>
      </trkpt>
      <trkpt lat="46.39966" lon="-0.25237">
        <ele>105.4</ele>
        <time>2020-05-31T08:31:59Z</time>
      </trkpt>
      <trkpt lat="46.39967" lon="-0.25247">
        <ele>104.9</ele>
        <time>2020-05-31T08:32:00Z</time>
      </trkpt>
      <trkpt lat="46.39968" lon="-0.25258">
        <ele>104.5</ele>
        <time>2020-05-31T08:32:01Z</time>
      </trkpt>
      <trkpt lat="46.39969" lon="-0.2527">
        <ele>104.1</ele>
        <time>2020-05-31T08:32:02Z</time>
      </trkpt>
      <trkpt lat="46.3997" lon="-0.25282">
        <ele>103.8</ele>
        <time>2020-05-31T08:32:03Z</time>
      </trkpt>
      <trkpt lat="46.39972" lon="-0.25293">
        <ele>103.6</ele>
        <time>2020-05-31T08:32:04Z</time>
      </trkpt>
      <trkpt lat="46.39974" lon="-0.25304">
        <ele>103.3</ele>
        <time>2020-05-31T08:32:05Z</time>
      </trkpt>
      <trkpt lat="46.39977" lon="-0.25316">
        <ele>102.9</ele>
        <time>2020-05-31T08:32:06Z</time>
      </trkpt>
      <trkpt lat="46.39981" lon="-0.25327">
        <ele>102.6</ele>
        <time>2020-05-31T08:32:07Z</time>
      </trkpt>
      <trkpt lat="46.39984" lon="-0.25338">
        <ele>102.2</ele>
        <time>2020-05-31T08:32:08Z</time>
      </trkpt>
      <trkpt lat="46.39988" lon="-0.25349">
        <ele>101.9</ele>
        <time>2020-05-31T08:32:09Z</time>
      </trkpt>
      <trkpt lat="46.39992" lon="-0.2536">
        <ele>101.6</ele>
        <time>2020-05-31T08:32:10Z</time>
      </trkpt>
      <trkpt lat="46.39995" lon="-0.25372">
        <ele>101.4</ele>
        <time>2020-05-31T08:32:11Z</time>
      </trkpt>
      <trkpt lat="46.39999" lon="-0.25383">
        <ele>101.3</ele>
        <time>2020-05-31T08:32:12Z</time>
      </trkpt>
      <trkpt lat="46.40002" lon="-0.25394">
        <ele>101.2</ele>
        <time>2020-05-31T08:32:13Z</time>
      </trkpt>
      <trkpt lat="46.40004" lon="-0.25405">
        <ele>101.1</ele>
        <time>2020-05-31T08:32:14Z</time>
      </trkpt>
      <trkpt lat="46.40006" lon="-0.25416">
        <ele>101.1</ele>
        <time>2020-05-31T08:32:15Z</time>
      </trkpt>
      <trkpt lat="46.40007" lon="-0.25427">
        <ele>101</ele>
        <time>2020-05-31T08:32:16Z</time>
      </trkpt>
      <trkpt lat="46.40008" lon="-0.25438">
        <ele>101</ele>
        <time>2020-05-31T08:32:17Z</time>
      </trkpt>
      <trkpt lat="46.40009" lon="-0.2545">
        <ele>100.9</ele>
        <time>2020-05-31T08:32:18Z</time>
      </trkpt>
      <trkpt lat="46.40009" lon="-0.25461">
        <ele>100.9</ele>
        <time>2020-05-31T08:32:19Z</time>
      </trkpt>
      <trkpt lat="46.40009" lon="-0.25471">
        <ele>100.9</ele>
        <time>2020-05-31T08:32:20Z</time>
      </trkpt>
      <trkpt lat="46.40009" lon="-0.25482">
        <ele>100.9</ele>
        <time>2020-05-31T08:32:21Z</time>
      </trkpt>
      <trkpt lat="46.4001" lon="-0.25493">
        <ele>100.9</ele>
        <time>2020-05-31T08:32:22Z</time>
      </trkpt>
      <trkpt lat="46.40011" lon="-0.25505">
        <ele>100.9</ele>
        <time>2020-05-31T08:32:23Z</time>
      </trkpt>
      <trkpt lat="46.40012" lon="-0.25516">
        <ele>100.9</ele>
        <time>2020-05-31T08:32:24Z</time>
      </trkpt>
      <trkpt lat="46.40011" lon="-0.25526">
        <ele>101</ele>
        <time>2020-05-31T08:32:25Z</time>
      </trkpt>
      <trkpt lat="46.40011" lon="-0.25537">
        <ele>101</ele>
        <time>2020-05-31T08:32:26Z</time>
      </trkpt>
      <trkpt lat="46.40012" lon="-0.25548">
        <ele>101</ele>
        <time>2020-05-31T08:32:27Z</time>
      </trkpt>
      <trkpt lat="46.40013" lon="-0.25559">
        <ele>101</ele>
        <time>2020-05-31T08:32:28Z</time>
      </trkpt>
      <trkpt lat="46.40013" lon="-0.25568">
        <ele>101</ele>
        <time>2020-05-31T08:32:29Z</time>
      </trkpt>
      <trkpt lat="46.40014" lon="-0.25578">
        <ele>101.1</ele>
        <time>2020-05-31T08:32:30Z</time>
      </trkpt>
      <trkpt lat="46.40015" lon="-0.25587">
        <ele>101.1</ele>
        <time>2020-05-31T08:32:31Z</time>
      </trkpt>
      <trkpt lat="46.40016" lon="-0.25595">
        <ele>101.2</ele>
        <time>2020-05-31T08:32:32Z</time>
      </trkpt>
      <trkpt lat="46.40016" lon="-0.25605">
        <ele>101.2</ele>
        <time>2020-05-31T08:32:33Z</time>
      </trkpt>
      <trkpt lat="46.40017" lon="-0.25613">
        <ele>101.3</ele>
        <time>2020-05-31T08:32:34Z</time>
      </trkpt>
      <trkpt lat="46.40019" lon="-0.25621">
        <ele>101.3</ele>
        <time>2020-05-31T08:32:35Z</time>
      </trkpt>
      <trkpt lat="46.4002" lon="-0.2563">
        <ele>101.3</ele>
        <time>2020-05-31T08:32:36Z</time>
      </trkpt>
      <trkpt lat="46.40022" lon="-0.25639">
        <ele>101.3</ele>
        <time>2020-05-31T08:32:37Z</time>
      </trkpt>
      <trkpt lat="46.40024" lon="-0.25647">
        <ele>101.3</ele>
        <time>2020-05-31T08:32:38Z</time>
      </trkpt>
      <trkpt lat="46.40026" lon="-0.25655">
        <ele>101.3</ele>
        <time>2020-05-31T08:32:39Z</time>
      </trkpt>
      <trkpt lat="46.40029" lon="-0.25663">
        <ele>101.4</ele>
        <time>2020-05-31T08:32:40Z</time>
      </trkpt>
      <trkpt lat="46.40031" lon="-0.25671">
        <ele>101.4</ele>
        <time>2020-05-31T08:32:41Z</time>
      </trkpt>
      <trkpt lat="46.40033" lon="-0.25678">
        <ele>101.5</ele>
        <time>2020-05-31T08:32:42Z</time>
      </trkpt>
      <trkpt lat="46.40034" lon="-0.25687">
        <ele>101.7</ele>
        <time>2020-05-31T08:32:43Z</time>
      </trkpt>
      <trkpt lat="46.40036" lon="-0.25695">
        <ele>101.8</ele>
        <time>2020-05-31T08:32:44Z</time>
      </trkpt>
      <trkpt lat="46.40037" lon="-0.25703">
        <ele>101.9</ele>
        <time>2020-05-31T08:32:45Z</time>
      </trkpt>
      <trkpt lat="46.40037" lon="-0.25711">
        <ele>102.1</ele>
        <time>2020-05-31T08:32:46Z</time>
      </trkpt>
      <trkpt lat="46.40036" lon="-0.25719">
        <ele>102.2</ele>
        <time>2020-05-31T08:32:47Z</time>
      </trkpt>
      <trkpt lat="46.40036" lon="-0.25727">
        <ele>102.3</ele>
        <time>2020-05-31T08:32:48Z</time>
      </trkpt>
      <trkpt lat="46.40037" lon="-0.25735">
        <ele>102.4</ele>
        <time>2020-05-31T08:32:49Z</time>
      </trkpt>
      <trkpt lat="46.40038" lon="-0.25743">
        <ele>102.5</ele>
        <time>2020-05-31T08:32:50Z</time>
      </trkpt>
      <trkpt lat="46.40038" lon="-0.2575">
        <ele>102.6</ele>
        <time>2020-05-31T08:32:51Z</time>
      </trkpt>
      <trkpt lat="46.40038" lon="-0.25758">
        <ele>102.7</ele>
        <time>2020-05-31T08:32:52Z</time>
      </trkpt>
      <trkpt lat="46.40038" lon="-0.25766">
        <ele>102.9</ele>
        <time>2020-05-31T08:32:53Z</time>
      </trkpt>
      <trkpt lat="46.40037" lon="-0.25773">
        <ele>102.9</ele>
        <time>2020-05-31T08:32:54Z</time>
      </trkpt>
      <trkpt lat="46.40037" lon="-0.25781">
        <ele>103</ele>
        <time>2020-05-31T08:32:55Z</time>
      </trkpt>
      <trkpt lat="46.40037" lon="-0.25789">
        <ele>103</ele>
        <time>2020-05-31T08:32:56Z</time>
      </trkpt>
      <trkpt lat="46.40038" lon="-0.25797">
        <ele>103.1</ele>
        <time>2020-05-31T08:32:57Z</time>
      </trkpt>
      <trkpt lat="46.40039" lon="-0.25804">
        <ele>103.3</ele>
        <time>2020-05-31T08:32:58Z</time>
      </trkpt>
      <trkpt lat="46.4004" lon="-0.25812">
        <ele>103.4</ele>
        <time>2020-05-31T08:32:59Z</time>
      </trkpt>
      <trkpt lat="46.4004" lon="-0.25819">
        <ele>103.6</ele>
        <time>2020-05-31T08:33:00Z</time>
      </trkpt>
      <trkpt lat="46.40041" lon="-0.25827">
        <ele>103.8</ele>
        <time>2020-05-31T08:33:01Z</time>
      </trkpt>
      <trkpt lat="46.40043" lon="-0.25834">
        <ele>104.1</ele>
        <time>2020-05-31T08:33:02Z</time>
      </trkpt>
      <trkpt lat="46.40044" lon="-0.25843">
        <ele>104.4</ele>
        <time>2020-05-31T08:33:03Z</time>
      </trkpt>
      <trkpt lat="46.40045" lon="-0.25852">
        <ele>104.7</ele>
        <time>2020-05-31T08:33:04Z</time>
      </trkpt>
      <trkpt lat="46.40046" lon="-0.25861">
        <ele>105</ele>
        <time>2020-05-31T08:33:05Z</time>
      </trkpt>
      <trkpt lat="46.40048" lon="-0.2587">
        <ele>105.4</ele>
        <time>2020-05-31T08:33:06Z</time>
      </trkpt>
      <trkpt lat="46.40049" lon="-0.25879">
        <ele>105.7</ele>
        <time>2020-05-31T08:33:07Z</time>
      </trkpt>
      <trkpt lat="46.40049" lon="-0.25888">
        <ele>106</ele>
        <time>2020-05-31T08:33:08Z</time>
      </trkpt>
      <trkpt lat="46.40049" lon="-0.25897">
        <ele>106.3</ele>
        <time>2020-05-31T08:33:09Z</time>
      </trkpt>
      <trkpt lat="46.4005" lon="-0.25906">
        <ele>106.7</ele>
        <time>2020-05-31T08:33:10Z</time>
      </trkpt>
      <trkpt lat="46.40052" lon="-0.25914">
        <ele>107.1</ele>
        <time>2020-05-31T08:33:11Z</time>
      </trkpt>
      <trkpt lat="46.40052" lon="-0.25923">
        <ele>107.5</ele>
        <time>2020-05-31T08:33:12Z</time>
      </trkpt>
      <trkpt lat="46.40053" lon="-0.25931">
        <ele>107.9</ele>
        <time>2020-05-31T08:33:13Z</time>
      </trkpt>
      <trkpt lat="46.40053" lon="-0.25939">
        <ele>108.3</ele>
        <time>2020-05-31T08:33:14Z</time>
      </trkpt>
      <trkpt lat="46.40053" lon="-0.25948">
        <ele>108.7</ele>
        <time>2020-05-31T08:33:15Z</time>
      </trkpt>
      <trkpt lat="46.40054" lon="-0.25956">
        <ele>109.1</ele>
        <time>2020-05-31T08:33:16Z</time>
      </trkpt>
      <trkpt lat="46.40055" lon="-0.25963">
        <ele>109.4</ele>
        <time>2020-05-31T08:33:17Z</time>
      </trkpt>
      <trkpt lat="46.40056" lon="-0.25971">
        <ele>109.8</ele>
        <time>2020-05-31T08:33:18Z</time>
      </trkpt>
      <trkpt lat="46.40057" lon="-0.25978">
        <ele>110</ele>
        <time>2020-05-31T08:33:19Z</time>
      </trkpt>
      <trkpt lat="46.40057" lon="-0.25986">
        <ele>110.3</ele>
        <time>2020-05-31T08:33:20Z</time>
      </trkpt>
      <trkpt lat="46.40058" lon="-0.25992">
        <ele>110.5</ele>
        <time>2020-05-31T08:33:21Z</time>
      </trkpt>
      <trkpt lat="46.40058" lon="-0.25999">
        <ele>110.8</ele>
        <time>2020-05-31T08:33:22Z</time>
      </trkpt>
      <trkpt lat="46.40058" lon="-0.26006">
        <ele>111</ele>
        <time>2020-05-31T08:33:23Z</time>
      </trkpt>
      <trkpt lat="46.40057" lon="-0.26012">
        <ele>111.2</ele>
        <time>2020-05-31T08:33:24Z</time>
      </trkpt>
      <trkpt lat="46.40057" lon="-0.26018">
        <ele>111.4</ele>
        <time>2020-05-31T08:33:25Z</time>
      </trkpt>
      <trkpt lat="46.40057" lon="-0.26024">
        <ele>111.6</ele>
        <time>2020-05-31T08:33:26Z</time>
      </trkpt>
      <trkpt lat="46.40056" lon="-0.2603">
        <ele>111.7</ele>
        <time>2020-05-31T08:33:27Z</time>
      </trkpt>
      <trkpt lat="46.40055" lon="-0.26036">
        <ele>111.9</ele>
        <time>2020-05-31T08:33:28Z</time>
      </trkpt>
      <trkpt lat="46.40053" lon="-0.26042">
        <ele>112</ele>
        <time>2020-05-31T08:33:29Z</time>
      </trkpt>
      <trkpt lat="46.40051" lon="-0.26048">
        <ele>112.1</ele>
        <time>2020-05-31T08:33:30Z</time>
      </trkpt>
      <trkpt lat="46.40049" lon="-0.26053">
        <ele>112.2</ele>
        <time>2020-05-31T08:33:31Z</time>
      </trkpt>
      <trkpt lat="46.40047" lon="-0.26057">
        <ele>112.2</ele>
        <time>2020-05-31T08:33:32Z</time>
      </trkpt>
      <trkpt lat="46.40045" lon="-0.26062">
        <ele>112.2</ele>
        <time>2020-05-31T08:33:33Z</time>
      </trkpt>
      <trkpt lat="46.40043" lon="-0.26067">
        <ele>112.2</ele>
        <time>2020-05-31T08:33:34Z</time>
      </trkpt>
      <trkpt lat="46.4004" lon="-0.26071">
        <ele>112.2</ele>
        <time>2020-05-31T08:33:35Z</time>
      </trkpt>
      <trkpt lat="46.40037" lon="-0.26075">
        <ele>112.1</ele>
        <time>2020-05-31T08:33:36Z</time>
      </trkpt>
      <trkpt lat="46.40035" lon="-0.26082">
        <ele>112</ele>
        <time>2020-05-31T08:33:37Z</time>
      </trkpt>
      <trkpt lat="46.40033" lon="-0.26089">
        <ele>111.9</ele>
        <time>2020-05-31T08:33:38Z</time>
      </trkpt>
      <trkpt lat="46.4003" lon="-0.26095">
        <ele>111.8</ele>
        <time>2020-05-31T08:33:39Z</time>
      </trkpt>
      <trkpt lat="46.40026" lon="-0.261">
        <ele>111.6</ele>
        <time>2020-05-31T08:33:40Z</time>
      </trkpt>
      <trkpt lat="46.40022" lon="-0.26105">
        <ele>111.5</ele>
        <time>2020-05-31T08:33:41Z</time>
      </trkpt>
      <trkpt lat="46.40018" lon="-0.26112">
        <ele>111.3</ele>
        <time>2020-05-31T08:33:42Z</time>
      </trkpt>
      <trkpt lat="46.40014" lon="-0.26118">
        <ele>111.2</ele>
        <time>2020-05-31T08:33:43Z</time>
      </trkpt>
      <trkpt lat="46.40011" lon="-0.26124">
        <ele>111</ele>
        <time>2020-05-31T08:33:44Z</time>
      </trkpt>
      <trkpt lat="46.40007" lon="-0.2613">
        <ele>110.9</ele>
        <time>2020-05-31T08:33:45Z</time>
      </trkpt>
      <trkpt lat="46.40003" lon="-0.26136">
        <ele>110.7</ele>
        <time>2020-05-31T08:33:46Z</time>
      </trkpt>
      <trkpt lat="46.39999" lon="-0.26143">
        <ele>110.5</ele>
        <time>2020-05-31T08:33:47Z</time>
      </trkpt>
      <trkpt lat="46.39995" lon="-0.2615">
        <ele>110.3</ele>
        <time>2020-05-31T08:33:48Z</time>
      </trkpt>
      <trkpt lat="46.39991" lon="-0.26157">
        <ele>110</ele>
        <time>2020-05-31T08:33:49Z</time>
      </trkpt>
      <trkpt lat="46.39988" lon="-0.26165">
        <ele>109.8</ele>
        <time>2020-05-31T08:33:50Z</time>
      </trkpt>
      <trkpt lat="46.39984" lon="-0.26173">
        <ele>109.5</ele>
        <time>2020-05-31T08:33:51Z</time>
      </trkpt>
      <trkpt lat="46.3998" lon="-0.26181">
        <ele>109.3</ele>
        <time>2020-05-31T08:33:52Z</time>
      </trkpt>
      <trkpt lat="46.39976" lon="-0.26189">
        <ele>109</ele>
        <time>2020-05-31T08:33:53Z</time>
      </trkpt>
      <trkpt lat="46.39971" lon="-0.26196">
        <ele>108.8</ele>
        <time>2020-05-31T08:33:54Z</time>
      </trkpt>
      <trkpt lat="46.39966" lon="-0.26204">
        <ele>108.5</ele>
        <time>2020-05-31T08:33:55Z</time>
      </trkpt>
      <trkpt lat="46.39961" lon="-0.26212">
        <ele>108.3</ele>
        <time>2020-05-31T08:33:56Z</time>
      </trkpt>
      <trkpt lat="46.39956" lon="-0.2622">
        <ele>108</ele>
        <time>2020-05-31T08:33:57Z</time>
      </trkpt>
      <trkpt lat="46.39951" lon="-0.26229">
        <ele>107.8</ele>
        <time>2020-05-31T08:33:58Z</time>
      </trkpt>
      <trkpt lat="46.39946" lon="-0.26238">
        <ele>107.6</ele>
        <time>2020-05-31T08:33:59Z</time>
      </trkpt>
      <trkpt lat="46.39941" lon="-0.26248">
        <ele>107.5</ele>
        <time>2020-05-31T08:34:00Z</time>
      </trkpt>
      <trkpt lat="46.39937" lon="-0.26257">
        <ele>107.3</ele>
        <time>2020-05-31T08:34:01Z</time>
      </trkpt>
      <trkpt lat="46.39932" lon="-0.26266">
        <ele>107.1</ele>
        <time>2020-05-31T08:34:02Z</time>
      </trkpt>
      <trkpt lat="46.39927" lon="-0.26276">
        <ele>107</ele>
        <time>2020-05-31T08:34:03Z</time>
      </trkpt>
      <trkpt lat="46.39923" lon="-0.26285">
        <ele>106.9</ele>
        <time>2020-05-31T08:34:04Z</time>
      </trkpt>
      <trkpt lat="46.39918" lon="-0.26294">
        <ele>106.8</ele>
        <time>2020-05-31T08:34:05Z</time>
      </trkpt>
      <trkpt lat="46.39915" lon="-0.26304">
        <ele>106.7</ele>
        <time>2020-05-31T08:34:06Z</time>
      </trkpt>
      <trkpt lat="46.39911" lon="-0.26313">
        <ele>106.6</ele>
        <time>2020-05-31T08:34:07Z</time>
      </trkpt>
      <trkpt lat="46.39908" lon="-0.26323">
        <ele>106.6</ele>
        <time>2020-05-31T08:34:08Z</time>
      </trkpt>
      <trkpt lat="46.39904" lon="-0.26333">
        <ele>106.6</ele>
        <time>2020-05-31T08:34:09Z</time>
      </trkpt>
      <trkpt lat="46.39902" lon="-0.26343">
        <ele>106.6</ele>
        <time>2020-05-31T08:34:10Z</time>
      </trkpt>
      <trkpt lat="46.39899" lon="-0.26353">
        <ele>106.6</ele>
        <time>2020-05-31T08:34:11Z</time>
      </trkpt>
      <trkpt lat="46.39897" lon="-0.26363">
        <ele>106.5</ele>
        <time>2020-05-31T08:34:12Z</time>
      </trkpt>
      <trkpt lat="46.39895" lon="-0.26373">
        <ele>106.5</ele>
        <time>2020-05-31T08:34:13Z</time>
      </trkpt>
      <trkpt lat="46.39894" lon="-0.26382">
        <ele>106.4</ele>
        <time>2020-05-31T08:34:14Z</time>
      </trkpt>
      <trkpt lat="46.39892" lon="-0.26392">
        <ele>106.3</ele>
        <time>2020-05-31T08:34:15Z</time>
      </trkpt>
      <trkpt lat="46.3989" lon="-0.26402">
        <ele>106.3</ele>
        <time>2020-05-31T08:34:16Z</time>
      </trkpt>
      <trkpt lat="46.39889" lon="-0.26411">
        <ele>106.3</ele>
        <time>2020-05-31T08:34:17Z</time>
      </trkpt>
      <trkpt lat="46.39887" lon="-0.26421">
        <ele>106.3</ele>
        <time>2020-05-31T08:34:18Z</time>
      </trkpt>
      <trkpt lat="46.39885" lon="-0.2643">
        <ele>106.3</ele>
        <time>2020-05-31T08:34:19Z</time>
      </trkpt>
      <trkpt lat="46.39884" lon="-0.26439">
        <ele>106.3</ele>
        <time>2020-05-31T08:34:20Z</time>
      </trkpt>
      <trkpt lat="46.39882" lon="-0.26448">
        <ele>106.2</ele>
        <time>2020-05-31T08:34:21Z</time>
      </trkpt>
      <trkpt lat="46.3988" lon="-0.26458">
        <ele>106.2</ele>
        <time>2020-05-31T08:34:22Z</time>
      </trkpt>
      <trkpt lat="46.39879" lon="-0.26467">
        <ele>106.2</ele>
        <time>2020-05-31T08:34:23Z</time>
      </trkpt>
      <trkpt lat="46.39877" lon="-0.26476">
        <ele>106.1</ele>
        <time>2020-05-31T08:34:24Z</time>
      </trkpt>
      <trkpt lat="46.39875" lon="-0.26485">
        <ele>106.1</ele>
        <time>2020-05-31T08:34:25Z</time>
      </trkpt>
      <trkpt lat="46.39874" lon="-0.26494">
        <ele>106.1</ele>
        <time>2020-05-31T08:34:26Z</time>
      </trkpt>
      <trkpt lat="46.39872" lon="-0.26503">
        <ele>106.1</ele>
        <time>2020-05-31T08:34:27Z</time>
      </trkpt>
      <trkpt lat="46.39871" lon="-0.26511">
        <ele>106.2</ele>
        <time>2020-05-31T08:34:28Z</time>
      </trkpt>
      <trkpt lat="46.3987" lon="-0.2652">
        <ele>106.2</ele>
        <time>2020-05-31T08:34:29Z</time>
      </trkpt>
      <trkpt lat="46.39868" lon="-0.26528">
        <ele>106.2</ele>
        <time>2020-05-31T08:34:30Z</time>
      </trkpt>
      <trkpt lat="46.39867" lon="-0.26537">
        <ele>106.3</ele>
        <time>2020-05-31T08:34:31Z</time>
      </trkpt>
      <trkpt lat="46.39866" lon="-0.26545">
        <ele>106.3</ele>
        <time>2020-05-31T08:34:32Z</time>
      </trkpt>
      <trkpt lat="46.39865" lon="-0.26553">
        <ele>106.4</ele>
        <time>2020-05-31T08:34:33Z</time>
      </trkpt>
      <trkpt lat="46.39864" lon="-0.2656">
        <ele>106.5</ele>
        <time>2020-05-31T08:34:34Z</time>
      </trkpt>
      <trkpt lat="46.39863" lon="-0.26568">
        <ele>106.5</ele>
        <time>2020-05-31T08:34:35Z</time>
      </trkpt>
      <trkpt lat="46.39862" lon="-0.26575">
        <ele>106.6</ele>
        <time>2020-05-31T08:34:36Z</time>
      </trkpt>
      <trkpt lat="46.39861" lon="-0.26582">
        <ele>106.7</ele>
        <time>2020-05-31T08:34:37Z</time>
      </trkpt>
      <trkpt lat="46.3986" lon="-0.26589">
        <ele>106.8</ele>
        <time>2020-05-31T08:34:38Z</time>
      </trkpt>
      <trkpt lat="46.39859" lon="-0.26596">
        <ele>106.8</ele>
        <time>2020-05-31T08:34:39Z</time>
      </trkpt>
      <trkpt lat="46.39858" lon="-0.26602">
        <ele>106.9</ele>
        <time>2020-05-31T08:34:40Z</time>
      </trkpt>
      <trkpt lat="46.39857" lon="-0.26609">
        <ele>107</ele>
        <time>2020-05-31T08:34:41Z</time>
      </trkpt>
      <trkpt lat="46.39857" lon="-0.26615">
        <ele>107.1</ele>
        <time>2020-05-31T08:34:42Z</time>
      </trkpt>
      <trkpt lat="46.39856" lon="-0.26621">
        <ele>107.2</ele>
        <time>2020-05-31T08:34:43Z</time>
      </trkpt>
      <trkpt lat="46.39856" lon="-0.26626">
        <ele>107.3</ele>
        <time>2020-05-31T08:34:44Z</time>
      </trkpt>
      <trkpt lat="46.39856" lon="-0.26631">
        <ele>107.4</ele>
        <time>2020-05-31T08:34:45Z</time>
      </trkpt>
      <trkpt lat="46.39856" lon="-0.26636">
        <ele>107.5</ele>
        <time>2020-05-31T08:34:46Z</time>
      </trkpt>
      <trkpt lat="46.39855" lon="-0.2664">
        <ele>107.6</ele>
        <time>2020-05-31T08:34:47Z</time>
      </trkpt>
      <trkpt lat="46.39855" lon="-0.26644">
        <ele>107.6</ele>
        <time>2020-05-31T08:34:48Z</time>
      </trkpt>
      <trkpt lat="46.39854" lon="-0.26649">
        <ele>107.7</ele>
        <time>2020-05-31T08:34:49Z</time>
      </trkpt>
      <trkpt lat="46.39853" lon="-0.26654">
        <ele>107.8</ele>
        <time>2020-05-31T08:34:50Z</time>
      </trkpt>
      <trkpt lat="46.39852" lon="-0.26659">
        <ele>107.9</ele>
        <time>2020-05-31T08:34:51Z</time>
      </trkpt>
      <trkpt lat="46.39852" lon="-0.26665">
        <ele>108</ele>
        <time>2020-05-31T08:34:52Z</time>
      </trkpt>
      <trkpt lat="46.39852" lon="-0.2667">
        <ele>108.1</ele>
        <time>2020-05-31T08:34:53Z</time>
      </trkpt>
      <trkpt lat="46.39851" lon="-0.26676">
        <ele>108.2</ele>
        <time>2020-05-31T08:34:54Z</time>
      </trkpt>
      <trkpt lat="46.39851" lon="-0.26682">
        <ele>108.3</ele>
        <time>2020-05-31T08:34:55Z</time>
      </trkpt>
      <trkpt lat="46.3985" lon="-0.26688">
        <ele>108.3</ele>
        <time>2020-05-31T08:34:56Z</time>
      </trkpt>
      <trkpt lat="46.3985" lon="-0.26694">
        <ele>108.4</ele>
        <time>2020-05-31T08:34:57Z</time>
      </trkpt>
      <trkpt lat="46.3985" lon="-0.267">
        <ele>108.4</ele>
        <time>2020-05-31T08:34:58Z</time>
      </trkpt>
      <trkpt lat="46.39849" lon="-0.26706">
        <ele>108.4</ele>
        <time>2020-05-31T08:34:59Z</time>
      </trkpt>
      <trkpt lat="46.39849" lon="-0.26713">
        <ele>108.4</ele>
        <time>2020-05-31T08:35:00Z</time>
      </trkpt>
      <trkpt lat="46.3985" lon="-0.2672">
        <ele>108.4</ele>
        <time>2020-05-31T08:35:01Z</time>
      </trkpt>
      <trkpt lat="46.3985" lon="-0.26726">
        <ele>108.3</ele>
        <time>2020-05-31T08:35:02Z</time>
      </trkpt>
      <trkpt lat="46.3985" lon="-0.26733">
        <ele>108.3</ele>
        <time>2020-05-31T08:35:03Z</time>
      </trkpt>
      <trkpt lat="46.3985" lon="-0.26739">
        <ele>108.2</ele>
        <time>2020-05-31T08:35:04Z</time>
      </trkpt>
      <trkpt lat="46.3985" lon="-0.26746">
        <ele>108.1</ele>
        <time>2020-05-31T08:35:05Z</time>
      </trkpt>
      <trkpt lat="46.39849" lon="-0.26753">
        <ele>108.1</ele>
        <time>2020-05-31T08:35:06Z</time>
      </trkpt>
      <trkpt lat="46.3985" lon="-0.26761">
        <ele>108</ele>
        <time>2020-05-31T08:35:07Z</time>
      </trkpt>
      <trkpt lat="46.3985" lon="-0.26768">
        <ele>107.9</ele>
        <time>2020-05-31T08:35:08Z</time>
      </trkpt>
      <trkpt lat="46.3985" lon="-0.26775">
        <ele>107.8</ele>
        <time>2020-05-31T08:35:09Z</time>
      </trkpt>
      <trkpt lat="46.39852" lon="-0.26783">
        <ele>107.7</ele>
        <time>2020-05-31T08:35:10Z</time>
      </trkpt>
      <trkpt lat="46.39852" lon="-0.2679">
        <ele>107.5</ele>
        <time>2020-05-31T08:35:11Z</time>
      </trkpt>
      <trkpt lat="46.39852" lon="-0.26797">
        <ele>107.5</ele>
        <time>2020-05-31T08:35:12Z</time>
      </trkpt>
      <trkpt lat="46.39851" lon="-0.26802">
        <ele>107.4</ele>
        <time>2020-05-31T08:35:13Z</time>
      </trkpt>
      <trkpt lat="46.39851" lon="-0.26808">
        <ele>107.3</ele>
        <time>2020-05-31T08:35:14Z</time>
      </trkpt>
      <trkpt lat="46.3985" lon="-0.26814">
        <ele>107.2</ele>
        <time>2020-05-31T08:35:15Z</time>
      </trkpt>
      <trkpt lat="46.39849" lon="-0.2682">
        <ele>107.1</ele>
        <time>2020-05-31T08:35:16Z</time>
      </trkpt>
      <trkpt lat="46.39849" lon="-0.26827">
        <ele>107</ele>
        <time>2020-05-31T08:35:17Z</time>
      </trkpt>
      <trkpt lat="46.3985" lon="-0.26834">
        <ele>107</ele>
        <time>2020-05-31T08:35:18Z</time>
      </trkpt>
      <trkpt lat="46.3985" lon="-0.26841">
        <ele>106.9</ele>
        <time>2020-05-31T08:35:19Z</time>
      </trkpt>
      <trkpt lat="46.39851" lon="-0.26848">
        <ele>106.9</ele>
        <time>2020-05-31T08:35:20Z</time>
      </trkpt>
      <trkpt lat="46.39851" lon="-0.26855">
        <ele>106.8</ele>
        <time>2020-05-31T08:35:21Z</time>
      </trkpt>
      <trkpt lat="46.39851" lon="-0.26863">
        <ele>106.8</ele>
        <time>2020-05-31T08:35:22Z</time>
      </trkpt>
      <trkpt lat="46.39852" lon="-0.2687">
        <ele>106.8</ele>
        <time>2020-05-31T08:35:23Z</time>
      </trkpt>
      <trkpt lat="46.39853" lon="-0.26878">
        <ele>106.8</ele>
        <time>2020-05-31T08:35:24Z</time>
      </trkpt>
      <trkpt lat="46.39853" lon="-0.26886">
        <ele>106.8</ele>
        <time>2020-05-31T08:35:25Z</time>
      </trkpt>
      <trkpt lat="46.39854" lon="-0.26893">
        <ele>106.8</ele>
        <time>2020-05-31T08:35:26Z</time>
      </trkpt>
      <trkpt lat="46.39854" lon="-0.26901">
        <ele>106.8</ele>
        <time>2020-05-31T08:35:27Z</time>
      </trkpt>
      <trkpt lat="46.39855" lon="-0.26909">
        <ele>106.8</ele>
        <time>2020-05-31T08:35:28Z</time>
      </trkpt>
      <trkpt lat="46.39857" lon="-0.26916">
        <ele>106.9</ele>
        <time>2020-05-31T08:35:29Z</time>
      </trkpt>
      <trkpt lat="46.39858" lon="-0.26923">
        <ele>106.9</ele>
        <time>2020-05-31T08:35:30Z</time>
      </trkpt>
      <trkpt lat="46.39858" lon="-0.2693">
        <ele>106.9</ele>
        <time>2020-05-31T08:35:31Z</time>
      </trkpt>
      <trkpt lat="46.39859" lon="-0.26937">
        <ele>107</ele>
        <time>2020-05-31T08:35:32Z</time>
      </trkpt>
      <trkpt lat="46.39859" lon="-0.26944">
        <ele>107</ele>
        <time>2020-05-31T08:35:33Z</time>
      </trkpt>
      <trkpt lat="46.39859" lon="-0.26951">
        <ele>107</ele>
        <time>2020-05-31T08:35:34Z</time>
      </trkpt>
      <trkpt lat="46.39859" lon="-0.26959">
        <ele>107</ele>
        <time>2020-05-31T08:35:35Z</time>
      </trkpt>
      <trkpt lat="46.3986" lon="-0.26966">
        <ele>107</ele>
        <time>2020-05-31T08:35:36Z</time>
      </trkpt>
      <trkpt lat="46.39861" lon="-0.26974">
        <ele>107.1</ele>
        <time>2020-05-31T08:35:37Z</time>
      </trkpt>
      <trkpt lat="46.39862" lon="-0.26982">
        <ele>107.1</ele>
        <time>2020-05-31T08:35:38Z</time>
      </trkpt>
      <trkpt lat="46.39864" lon="-0.2699">
        <ele>107.1</ele>
        <time>2020-05-31T08:35:39Z</time>
      </trkpt>
      <trkpt lat="46.39866" lon="-0.26998">
        <ele>107.1</ele>
        <time>2020-05-31T08:35:40Z</time>
      </trkpt>
      <trkpt lat="46.39868" lon="-0.27006">
        <ele>107.1</ele>
        <time>2020-05-31T08:35:41Z</time>
      </trkpt>
      <trkpt lat="46.39869" lon="-0.27014">
        <ele>107.1</ele>
        <time>2020-05-31T08:35:42Z</time>
      </trkpt>
      <trkpt lat="46.39871" lon="-0.27021">
        <ele>107.2</ele>
        <time>2020-05-31T08:35:43Z</time>
      </trkpt>
      <trkpt lat="46.39873" lon="-0.27028">
        <ele>107.2</ele>
        <time>2020-05-31T08:35:44Z</time>
      </trkpt>
      <trkpt lat="46.39875" lon="-0.27035">
        <ele>107.3</ele>
        <time>2020-05-31T08:35:45Z</time>
      </trkpt>
      <trkpt lat="46.39877" lon="-0.27042">
        <ele>107.4</ele>
        <time>2020-05-31T08:35:46Z</time>
      </trkpt>
      <trkpt lat="46.39878" lon="-0.27049">
        <ele>107.5</ele>
        <time>2020-05-31T08:35:47Z</time>
      </trkpt>
      <trkpt lat="46.39878" lon="-0.27056">
        <ele>107.6</ele>
        <time>2020-05-31T08:35:48Z</time>
      </trkpt>
      <trkpt lat="46.3988" lon="-0.27062">
        <ele>107.6</ele>
        <time>2020-05-31T08:35:49Z</time>
      </trkpt>
      <trkpt lat="46.3988" lon="-0.27068">
        <ele>107.7</ele>
        <time>2020-05-31T08:35:50Z</time>
      </trkpt>
      <trkpt lat="46.39878" lon="-0.27072">
        <ele>108.1</ele>
        <time>2020-05-31T08:35:51Z</time>
      </trkpt>
      <trkpt lat="46.39876" lon="-0.27077">
        <ele>108.2</ele>
        <time>2020-05-31T08:35:52Z</time>
      </trkpt>
      <trkpt lat="46.39873" lon="-0.2708">
        <ele>108.3</ele>
        <time>2020-05-31T08:35:53Z</time>
      </trkpt>
      <trkpt lat="46.3987" lon="-0.27083">
        <ele>108.4</ele>
        <time>2020-05-31T08:35:54Z</time>
      </trkpt>
      <trkpt lat="46.39866" lon="-0.27084">
        <ele>108.5</ele>
        <time>2020-05-31T08:35:55Z</time>
      </trkpt>
      <trkpt lat="46.39863" lon="-0.27084">
        <ele>108.5</ele>
        <time>2020-05-31T08:35:56Z</time>
      </trkpt>
      <trkpt lat="46.39859" lon="-0.27086">
        <ele>108.6</ele>
        <time>2020-05-31T08:35:57Z</time>
      </trkpt>
      <trkpt lat="46.39857" lon="-0.27089">
        <ele>108.7</ele>
        <time>2020-05-31T08:35:58Z</time>
      </trkpt>
      <trkpt lat="46.39855" lon="-0.27093">
        <ele>108.8</ele>
        <time>2020-05-31T08:35:59Z</time>
      </trkpt>
      <trkpt lat="46.39854" lon="-0.27097">
        <ele>108.8</ele>
        <time>2020-05-31T08:36:00Z</time>
      </trkpt>
      <trkpt lat="46.39852" lon="-0.27101">
        <ele>108.9</ele>
        <time>2020-05-31T08:36:01Z</time>
      </trkpt>
      <trkpt lat="46.39849" lon="-0.27102">
        <ele>109</ele>
        <time>2020-05-31T08:36:02Z</time>
      </trkpt>
      <trkpt lat="46.39846" lon="-0.27104">
        <ele>109.1</ele>
        <time>2020-05-31T08:36:03Z</time>
      </trkpt>
      <trkpt lat="46.39843" lon="-0.27108">
        <ele>109.2</ele>
        <time>2020-05-31T08:36:04Z</time>
      </trkpt>
      <trkpt lat="46.39841" lon="-0.27112">
        <ele>109.3</ele>
        <time>2020-05-31T08:36:05Z</time>
      </trkpt>
      <trkpt lat="46.39841" lon="-0.27118">
        <ele>109.4</ele>
        <time>2020-05-31T08:36:06Z</time>
      </trkpt>
      <trkpt lat="46.39839" lon="-0.27121">
        <ele>109.5</ele>
        <time>2020-05-31T08:36:07Z</time>
      </trkpt>
      <trkpt lat="46.39836" lon="-0.27124">
        <ele>109.6</ele>
        <time>2020-05-31T08:36:08Z</time>
      </trkpt>
      <trkpt lat="46.39834" lon="-0.27126">
        <ele>109.6</ele>
        <time>2020-05-31T08:36:09Z</time>
      </trkpt>
      <trkpt lat="46.39831" lon="-0.27129">
        <ele>109.7</ele>
        <time>2020-05-31T08:36:10Z</time>
      </trkpt>
      <trkpt lat="46.3983" lon="-0.2713">
        <ele>109.7</ele>
        <time>2020-05-31T08:36:11Z</time>
      </trkpt>
      <trkpt lat="46.39827" lon="-0.27132">
        <ele>109.8</ele>
        <time>2020-05-31T08:36:12Z</time>
      </trkpt>
      <trkpt lat="46.39826" lon="-0.27133">
        <ele>109.8</ele>
        <time>2020-05-31T08:36:13Z</time>
      </trkpt>
      <trkpt lat="46.39825" lon="-0.27136">
        <ele>109.9</ele>
        <time>2020-05-31T08:36:14Z</time>
      </trkpt>
      <trkpt lat="46.39822" lon="-0.27139">
        <ele>110</ele>
        <time>2020-05-31T08:36:15Z</time>
      </trkpt>
      <trkpt lat="46.3982" lon="-0.27142">
        <ele>110</ele>
        <time>2020-05-31T08:36:16Z</time>
      </trkpt>
      <trkpt lat="46.39817" lon="-0.27144">
        <ele>110.1</ele>
        <time>2020-05-31T08:36:17Z</time>
      </trkpt>
      <trkpt lat="46.39815" lon="-0.27147">
        <ele>110.2</ele>
        <time>2020-05-31T08:36:18Z</time>
      </trkpt>
      <trkpt lat="46.39813" lon="-0.2715">
        <ele>110.2</ele>
        <time>2020-05-31T08:36:19Z</time>
      </trkpt>
      <trkpt lat="46.3981" lon="-0.27152">
        <ele>110.3</ele>
        <time>2020-05-31T08:36:20Z</time>
      </trkpt>
      <trkpt lat="46.39807" lon="-0.27153">
        <ele>110.3</ele>
        <time>2020-05-31T08:36:21Z</time>
      </trkpt>
      <trkpt lat="46.39804" lon="-0.27156">
        <ele>110.4</ele>
        <time>2020-05-31T08:36:22Z</time>
      </trkpt>
      <trkpt lat="46.39801" lon="-0.27158">
        <ele>110.4</ele>
        <time>2020-05-31T08:36:23Z</time>
      </trkpt>
      <trkpt lat="46.39798" lon="-0.2716">
        <ele>110.4</ele>
        <time>2020-05-31T08:36:24Z</time>
      </trkpt>
      <trkpt lat="46.39795" lon="-0.27164">
        <ele>110.5</ele>
        <time>2020-05-31T08:36:25Z</time>
      </trkpt>
      <trkpt lat="46.39791" lon="-0.27167">
        <ele>110.5</ele>
        <time>2020-05-31T08:36:26Z</time>
      </trkpt>
      <trkpt lat="46.39788" lon="-0.27171">
        <ele>110.6</ele>
        <time>2020-05-31T08:36:27Z</time>
      </trkpt>
      <trkpt lat="46.39785" lon="-0.27175">
        <ele>110.6</ele>
        <time>2020-05-31T08:36:28Z</time>
      </trkpt>
      <trkpt lat="46.39781" lon="-0.27179">
        <ele>110.6</ele>
        <time>2020-05-31T08:36:29Z</time>
      </trkpt>
      <trkpt lat="46.39777" lon="-0.27182">
        <ele>110.6</ele>
        <time>2020-05-31T08:36:30Z</time>
      </trkpt>
      <trkpt lat="46.39773" lon="-0.27186">
        <ele>110.6</ele>
        <time>2020-05-31T08:36:31Z</time>
      </trkpt>
      <trkpt lat="46.3977" lon="-0.27191">
        <ele>110.5</ele>
        <time>2020-05-31T08:36:32Z</time>
      </trkpt>
      <trkpt lat="46.39766" lon="-0.27195">
        <ele>110.5</ele>
        <time>2020-05-31T08:36:33Z</time>
      </trkpt>
      <trkpt lat="46.39762" lon="-0.272">
        <ele>110.4</ele>
        <time>2020-05-31T08:36:34Z</time>
      </trkpt>
      <trkpt lat="46.39759" lon="-0.27205">
        <ele>110.3</ele>
        <time>2020-05-31T08:36:35Z</time>
      </trkpt>
      <trkpt lat="46.39756" lon="-0.2721">
        <ele>110.2</ele>
        <time>2020-05-31T08:36:36Z</time>
      </trkpt>
      <trkpt lat="46.39752" lon="-0.27215">
        <ele>110.1</ele>
        <time>2020-05-31T08:36:37Z</time>
      </trkpt>
      <trkpt lat="46.39748" lon="-0.2722">
        <ele>110</ele>
        <time>2020-05-31T08:36:38Z</time>
      </trkpt>
      <trkpt lat="46.39744" lon="-0.27224">
        <ele>109.9</ele>
        <time>2020-05-31T08:36:39Z</time>
      </trkpt>
      <trkpt lat="46.39739" lon="-0.27228">
        <ele>109.8</ele>
        <time>2020-05-31T08:36:40Z</time>
      </trkpt>
      <trkpt lat="46.39734" lon="-0.27232">
        <ele>109.7</ele>
        <time>2020-05-31T08:36:41Z</time>
      </trkpt>
      <trkpt lat="46.3973" lon="-0.27236">
        <ele>109.6</ele>
        <time>2020-05-31T08:36:42Z</time>
      </trkpt>
      <trkpt lat="46.39725" lon="-0.2724">
        <ele>109.5</ele>
        <time>2020-05-31T08:36:43Z</time>
      </trkpt>
      <trkpt lat="46.3972" lon="-0.27245">
        <ele>109.4</ele>
        <time>2020-05-31T08:36:44Z</time>
      </trkpt>
      <trkpt lat="46.39714" lon="-0.27249">
        <ele>109.3</ele>
        <time>2020-05-31T08:36:45Z</time>
      </trkpt>
      <trkpt lat="46.39709" lon="-0.27253">
        <ele>109.2</ele>
        <time>2020-05-31T08:36:46Z</time>
      </trkpt>
      <trkpt lat="46.39704" lon="-0.27258">
        <ele>109</ele>
        <time>2020-05-31T08:36:47Z</time>
      </trkpt>
      <trkpt lat="46.39699" lon="-0.27263">
        <ele>108.9</ele>
        <time>2020-05-31T08:36:48Z</time>
      </trkpt>
      <trkpt lat="46.39694" lon="-0.27267">
        <ele>108.8</ele>
        <time>2020-05-31T08:36:49Z</time>
      </trkpt>
      <trkpt lat="46.39688" lon="-0.27272">
        <ele>108.7</ele>
        <time>2020-05-31T08:36:50Z</time>
      </trkpt>
      <trkpt lat="46.39683" lon="-0.27277">
        <ele>108.6</ele>
        <time>2020-05-31T08:36:51Z</time>
      </trkpt>
      <trkpt lat="46.39677" lon="-0.2728">
        <ele>108.5</ele>
        <time>2020-05-31T08:36:52Z</time>
      </trkpt>
      <trkpt lat="46.39671" lon="-0.27283">
        <ele>108.4</ele>
        <time>2020-05-31T08:36:53Z</time>
      </trkpt>
      <trkpt lat="46.39666" lon="-0.27288">
        <ele>108.4</ele>
        <time>2020-05-31T08:36:54Z</time>
      </trkpt>
      <trkpt lat="46.3966" lon="-0.27291">
        <ele>108.3</ele>
        <time>2020-05-31T08:36:55Z</time>
      </trkpt>
      <trkpt lat="46.39654" lon="-0.27295">
        <ele>108.2</ele>
        <time>2020-05-31T08:36:56Z</time>
      </trkpt>
      <trkpt lat="46.3965" lon="-0.27299">
        <ele>108.1</ele>
        <time>2020-05-31T08:36:57Z</time>
      </trkpt>
      <trkpt lat="46.39645" lon="-0.27303">
        <ele>108.1</ele>
        <time>2020-05-31T08:36:58Z</time>
      </trkpt>
      <trkpt lat="46.39641" lon="-0.27308">
        <ele>108</ele>
        <time>2020-05-31T08:36:59Z</time>
      </trkpt>
      <trkpt lat="46.39637" lon="-0.27312">
        <ele>108</ele>
        <time>2020-05-31T08:37:00Z</time>
      </trkpt>
      <trkpt lat="46.39632" lon="-0.27316">
        <ele>107.9</ele>
        <time>2020-05-31T08:37:01Z</time>
      </trkpt>
      <trkpt lat="46.39628" lon="-0.27321">
        <ele>107.9</ele>
        <time>2020-05-31T08:37:02Z</time>
      </trkpt>
      <trkpt lat="46.39623" lon="-0.27324">
        <ele>107.8</ele>
        <time>2020-05-31T08:37:03Z</time>
      </trkpt>
      <trkpt lat="46.39618" lon="-0.27329">
        <ele>107.7</ele>
        <time>2020-05-31T08:37:04Z</time>
      </trkpt>
      <trkpt lat="46.39613" lon="-0.27333">
        <ele>107.7</ele>
        <time>2020-05-31T08:37:05Z</time>
      </trkpt>
      <trkpt lat="46.39609" lon="-0.27336">
        <ele>107.6</ele>
        <time>2020-05-31T08:37:06Z</time>
      </trkpt>
      <trkpt lat="46.39604" lon="-0.2734">
        <ele>107.5</ele>
        <time>2020-05-31T08:37:07Z</time>
      </trkpt>
      <trkpt lat="46.39599" lon="-0.27344">
        <ele>107.4</ele>
        <time>2020-05-31T08:37:08Z</time>
      </trkpt>
      <trkpt lat="46.39594" lon="-0.27348">
        <ele>107.4</ele>
        <time>2020-05-31T08:37:09Z</time>
      </trkpt>
      <trkpt lat="46.39589" lon="-0.27351">
        <ele>107.3</ele>
        <time>2020-05-31T08:37:10Z</time>
      </trkpt>
      <trkpt lat="46.39584" lon="-0.27354">
        <ele>107.2</ele>
        <time>2020-05-31T08:37:11Z</time>
      </trkpt>
      <trkpt lat="46.3958" lon="-0.27361">
        <ele>107.2</ele>
        <time>2020-05-31T08:37:12Z</time>
      </trkpt>
      <trkpt lat="46.39575" lon="-0.27365">
        <ele>107.1</ele>
        <time>2020-05-31T08:37:13Z</time>
      </trkpt>
      <trkpt lat="46.3957" lon="-0.27369">
        <ele>107.1</ele>
        <time>2020-05-31T08:37:14Z</time>
      </trkpt>
      <trkpt lat="46.39566" lon="-0.27374">
        <ele>107</ele>
        <time>2020-05-31T08:37:15Z</time>
      </trkpt>
      <trkpt lat="46.39562" lon="-0.27378">
        <ele>106.9</ele>
        <time>2020-05-31T08:37:16Z</time>
      </trkpt>
      <trkpt lat="46.39557" lon="-0.27382">
        <ele>106.9</ele>
        <time>2020-05-31T08:37:17Z</time>
      </trkpt>
      <trkpt lat="46.39552" lon="-0.27387">
        <ele>106.8</ele>
        <time>2020-05-31T08:37:18Z</time>
      </trkpt>
      <trkpt lat="46.39547" lon="-0.27392">
        <ele>106.8</ele>
        <time>2020-05-31T08:37:19Z</time>
      </trkpt>
      <trkpt lat="46.39542" lon="-0.27396">
        <ele>106.7</ele>
        <time>2020-05-31T08:37:20Z</time>
      </trkpt>
      <trkpt lat="46.39538" lon="-0.27401">
        <ele>106.7</ele>
        <time>2020-05-31T08:37:21Z</time>
      </trkpt>
      <trkpt lat="46.39534" lon="-0.27406">
        <ele>106.7</ele>
        <time>2020-05-31T08:37:22Z</time>
      </trkpt>
      <trkpt lat="46.3953" lon="-0.27412">
        <ele>106.6</ele>
        <time>2020-05-31T08:37:23Z</time>
      </trkpt>
      <trkpt lat="46.39525" lon="-0.27417">
        <ele>106.6</ele>
        <time>2020-05-31T08:37:24Z</time>
      </trkpt>
      <trkpt lat="46.3952" lon="-0.27422">
        <ele>106.6</ele>
        <time>2020-05-31T08:37:25Z</time>
      </trkpt>
      <trkpt lat="46.39515" lon="-0.27426">
        <ele>106.6</ele>
        <time>2020-05-31T08:37:26Z</time>
      </trkpt>
      <trkpt lat="46.3951" lon="-0.27431">
        <ele>106.5</ele>
        <time>2020-05-31T08:37:27Z</time>
      </trkpt>
      <trkpt lat="46.39506" lon="-0.27435">
        <ele>106.5</ele>
        <time>2020-05-31T08:37:28Z</time>
      </trkpt>
      <trkpt lat="46.39501" lon="-0.27439">
        <ele>106.4</ele>
        <time>2020-05-31T08:37:29Z</time>
      </trkpt>
      <trkpt lat="46.39496" lon="-0.27443">
        <ele>106.4</ele>
        <time>2020-05-31T08:37:30Z</time>
      </trkpt>
      <trkpt lat="46.39491" lon="-0.27447">
        <ele>106.3</ele>
        <time>2020-05-31T08:37:31Z</time>
      </trkpt>
      <trkpt lat="46.39486" lon="-0.27451">
        <ele>106.3</ele>
        <time>2020-05-31T08:37:32Z</time>
      </trkpt>
      <trkpt lat="46.39481" lon="-0.27454">
        <ele>106.2</ele>
        <time>2020-05-31T08:37:33Z</time>
      </trkpt>
      <trkpt lat="46.39476" lon="-0.27458">
        <ele>106.2</ele>
        <time>2020-05-31T08:37:34Z</time>
      </trkpt>
      <trkpt lat="46.3947" lon="-0.27461">
        <ele>106.1</ele>
        <time>2020-05-31T08:37:35Z</time>
      </trkpt>
      <trkpt lat="46.39465" lon="-0.27464">
        <ele>106.1</ele>
        <time>2020-05-31T08:37:36Z</time>
      </trkpt>
      <trkpt lat="46.39459" lon="-0.27466">
        <ele>106</ele>
        <time>2020-05-31T08:37:37Z</time>
      </trkpt>
      <trkpt lat="46.39454" lon="-0.27469">
        <ele>105.9</ele>
        <time>2020-05-31T08:37:38Z</time>
      </trkpt>
      <trkpt lat="46.39448" lon="-0.27471">
        <ele>105.8</ele>
        <time>2020-05-31T08:37:39Z</time>
      </trkpt>
      <trkpt lat="46.39442" lon="-0.27473">
        <ele>105.8</ele>
        <time>2020-05-31T08:37:40Z</time>
      </trkpt>
      <trkpt lat="46.39436" lon="-0.27475">
        <ele>105.7</ele>
        <time>2020-05-31T08:37:41Z</time>
      </trkpt>
      <trkpt lat="46.39431" lon="-0.27478">
        <ele>105.5</ele>
        <time>2020-05-31T08:37:42Z</time>
      </trkpt>
      <trkpt lat="46.39426" lon="-0.27481">
        <ele>105.4</ele>
        <time>2020-05-31T08:37:43Z</time>
      </trkpt>
      <trkpt lat="46.39421" lon="-0.27484">
        <ele>105.3</ele>
        <time>2020-05-31T08:37:44Z</time>
      </trkpt>
      <trkpt lat="46.39415" lon="-0.27486">
        <ele>105.2</ele>
        <time>2020-05-31T08:37:45Z</time>
      </trkpt>
      <trkpt lat="46.3941" lon="-0.27488">
        <ele>105.1</ele>
        <time>2020-05-31T08:37:46Z</time>
      </trkpt>
      <trkpt lat="46.39404" lon="-0.2749">
        <ele>105.1</ele>
        <time>2020-05-31T08:37:47Z</time>
      </trkpt>
      <trkpt lat="46.39399" lon="-0.27494">
        <ele>105</ele>
        <time>2020-05-31T08:37:48Z</time>
      </trkpt>
      <trkpt lat="46.39394" lon="-0.27496">
        <ele>104.9</ele>
        <time>2020-05-31T08:37:49Z</time>
      </trkpt>
      <trkpt lat="46.39389" lon="-0.27501">
        <ele>104.8</ele>
        <time>2020-05-31T08:37:50Z</time>
      </trkpt>
      <trkpt lat="46.39383" lon="-0.27504">
        <ele>104.6</ele>
        <time>2020-05-31T08:37:51Z</time>
      </trkpt>
      <trkpt lat="46.39377" lon="-0.27508">
        <ele>104.5</ele>
        <time>2020-05-31T08:37:52Z</time>
      </trkpt>
      <trkpt lat="46.39371" lon="-0.27512">
        <ele>104.4</ele>
        <time>2020-05-31T08:37:53Z</time>
      </trkpt>
      <trkpt lat="46.39365" lon="-0.27516">
        <ele>104.2</ele>
        <time>2020-05-31T08:37:54Z</time>
      </trkpt>
      <trkpt lat="46.39359" lon="-0.27522">
        <ele>104.1</ele>
        <time>2020-05-31T08:37:55Z</time>
      </trkpt>
      <trkpt lat="46.39353" lon="-0.27528">
        <ele>103.9</ele>
        <time>2020-05-31T08:37:56Z</time>
      </trkpt>
      <trkpt lat="46.39348" lon="-0.27535">
        <ele>103.8</ele>
        <time>2020-05-31T08:37:57Z</time>
      </trkpt>
      <trkpt lat="46.39342" lon="-0.2754">
        <ele>103.6</ele>
        <time>2020-05-31T08:37:58Z</time>
      </trkpt>
      <trkpt lat="46.39336" lon="-0.27546">
        <ele>103.5</ele>
        <time>2020-05-31T08:37:59Z</time>
      </trkpt>
      <trkpt lat="46.3933" lon="-0.27552">
        <ele>103.4</ele>
        <time>2020-05-31T08:38:00Z</time>
      </trkpt>
      <trkpt lat="46.39325" lon="-0.27557">
        <ele>103.3</ele>
        <time>2020-05-31T08:38:01Z</time>
      </trkpt>
      <trkpt lat="46.39319" lon="-0.27563">
        <ele>103.2</ele>
        <time>2020-05-31T08:38:02Z</time>
      </trkpt>
      <trkpt lat="46.39313" lon="-0.27569">
        <ele>103.2</ele>
        <time>2020-05-31T08:38:03Z</time>
      </trkpt>
      <trkpt lat="46.39308" lon="-0.27574">
        <ele>103.1</ele>
        <time>2020-05-31T08:38:04Z</time>
      </trkpt>
      <trkpt lat="46.39302" lon="-0.2758">
        <ele>103</ele>
        <time>2020-05-31T08:38:05Z</time>
      </trkpt>
      <trkpt lat="46.39297" lon="-0.27585">
        <ele>102.9</ele>
        <time>2020-05-31T08:38:06Z</time>
      </trkpt>
      <trkpt lat="46.39291" lon="-0.27591">
        <ele>102.9</ele>
        <time>2020-05-31T08:38:07Z</time>
      </trkpt>
      <trkpt lat="46.39285" lon="-0.27596">
        <ele>102.8</ele>
        <time>2020-05-31T08:38:08Z</time>
      </trkpt>
      <trkpt lat="46.39279" lon="-0.27601">
        <ele>102.8</ele>
        <time>2020-05-31T08:38:09Z</time>
      </trkpt>
      <trkpt lat="46.39274" lon="-0.27606">
        <ele>102.7</ele>
        <time>2020-05-31T08:38:10Z</time>
      </trkpt>
      <trkpt lat="46.39268" lon="-0.27611">
        <ele>102.6</ele>
        <time>2020-05-31T08:38:11Z</time>
      </trkpt>
      <trkpt lat="46.39263" lon="-0.27616">
        <ele>102.5</ele>
        <time>2020-05-31T08:38:12Z</time>
      </trkpt>
      <trkpt lat="46.39257" lon="-0.27619">
        <ele>102.5</ele>
        <time>2020-05-31T08:38:13Z</time>
      </trkpt>
      <trkpt lat="46.39252" lon="-0.27622">
        <ele>102.4</ele>
        <time>2020-05-31T08:38:14Z</time>
      </trkpt>
      <trkpt lat="46.39247" lon="-0.27625">
        <ele>102.4</ele>
        <time>2020-05-31T08:38:15Z</time>
      </trkpt>
      <trkpt lat="46.39242" lon="-0.2763">
        <ele>102.3</ele>
        <time>2020-05-31T08:38:16Z</time>
      </trkpt>
      <trkpt lat="46.39237" lon="-0.27634">
        <ele>102.2</ele>
        <time>2020-05-31T08:38:17Z</time>
      </trkpt>
      <trkpt lat="46.39232" lon="-0.27638">
        <ele>102.2</ele>
        <time>2020-05-31T08:38:18Z</time>
      </trkpt>
      <trkpt lat="46.39227" lon="-0.27643">
        <ele>102.1</ele>
        <time>2020-05-31T08:38:19Z</time>
      </trkpt>
      <trkpt lat="46.39222" lon="-0.27648">
        <ele>102</ele>
        <time>2020-05-31T08:38:20Z</time>
      </trkpt>
      <trkpt lat="46.39217" lon="-0.27653">
        <ele>101.9</ele>
        <time>2020-05-31T08:38:21Z</time>
      </trkpt>
      <trkpt lat="46.39213" lon="-0.27659">
        <ele>101.8</ele>
        <time>2020-05-31T08:38:22Z</time>
      </trkpt>
      <trkpt lat="46.39208" lon="-0.27663">
        <ele>101.7</ele>
        <time>2020-05-31T08:38:23Z</time>
      </trkpt>
      <trkpt lat="46.39204" lon="-0.27666">
        <ele>101.6</ele>
        <time>2020-05-31T08:38:24Z</time>
      </trkpt>
      <trkpt lat="46.39199" lon="-0.2767">
        <ele>101.5</ele>
        <time>2020-05-31T08:38:25Z</time>
      </trkpt>
      <trkpt lat="46.39194" lon="-0.27675">
        <ele>101.4</ele>
        <time>2020-05-31T08:38:26Z</time>
      </trkpt>
      <trkpt lat="46.39189" lon="-0.27679">
        <ele>101.4</ele>
        <time>2020-05-31T08:38:27Z</time>
      </trkpt>
      <trkpt lat="46.39184" lon="-0.27683">
        <ele>101.3</ele>
        <time>2020-05-31T08:38:28Z</time>
      </trkpt>
      <trkpt lat="46.39179" lon="-0.27688">
        <ele>101.2</ele>
        <time>2020-05-31T08:38:29Z</time>
      </trkpt>
      <trkpt lat="46.39174" lon="-0.27691">
        <ele>101.2</ele>
        <time>2020-05-31T08:38:30Z</time>
      </trkpt>
      <trkpt lat="46.3917" lon="-0.27695">
        <ele>101.2</ele>
        <time>2020-05-31T08:38:31Z</time>
      </trkpt>
      <trkpt lat="46.39165" lon="-0.27697">
        <ele>101.1</ele>
        <time>2020-05-31T08:38:32Z</time>
      </trkpt>
      <trkpt lat="46.3916" lon="-0.277">
        <ele>101.1</ele>
        <time>2020-05-31T08:38:33Z</time>
      </trkpt>
      <trkpt lat="46.39154" lon="-0.27702">
        <ele>101</ele>
        <time>2020-05-31T08:38:34Z</time>
      </trkpt>
      <trkpt lat="46.39149" lon="-0.27705">
        <ele>100.9</ele>
        <time>2020-05-31T08:38:35Z</time>
      </trkpt>
      <trkpt lat="46.39144" lon="-0.27708">
        <ele>100.9</ele>
        <time>2020-05-31T08:38:36Z</time>
      </trkpt>
      <trkpt lat="46.3914" lon="-0.27712">
        <ele>100.8</ele>
        <time>2020-05-31T08:38:37Z</time>
      </trkpt>
      <trkpt lat="46.39137" lon="-0.27718">
        <ele>100.8</ele>
        <time>2020-05-31T08:38:38Z</time>
      </trkpt>
      <trkpt lat="46.39135" lon="-0.27724">
        <ele>100.9</ele>
        <time>2020-05-31T08:38:39Z</time>
      </trkpt>
      <trkpt lat="46.39133" lon="-0.2773">
        <ele>100.9</ele>
        <time>2020-05-31T08:38:40Z</time>
      </trkpt>
      <trkpt lat="46.39131" lon="-0.27736">
        <ele>101</ele>
        <time>2020-05-31T08:38:41Z</time>
      </trkpt>
      <trkpt lat="46.39129" lon="-0.27742">
        <ele>100.8</ele>
        <time>2020-05-31T08:38:42Z</time>
      </trkpt>
      <trkpt lat="46.39127" lon="-0.27749">
        <ele>100.7</ele>
        <time>2020-05-31T08:38:43Z</time>
      </trkpt>
      <trkpt lat="46.39125" lon="-0.27755">
        <ele>100.6</ele>
        <time>2020-05-31T08:38:44Z</time>
      </trkpt>
      <trkpt lat="46.39122" lon="-0.27761">
        <ele>100.4</ele>
        <time>2020-05-31T08:38:45Z</time>
      </trkpt>
      <trkpt lat="46.39118" lon="-0.27767">
        <ele>100.3</ele>
        <time>2020-05-31T08:38:46Z</time>
      </trkpt>
      <trkpt lat="46.39114" lon="-0.2777">
        <ele>100.1</ele>
        <time>2020-05-31T08:38:47Z</time>
      </trkpt>
      <trkpt lat="46.39109" lon="-0.27774">
        <ele>100</ele>
        <time>2020-05-31T08:38:48Z</time>
      </trkpt>
      <trkpt lat="46.39104" lon="-0.27778">
        <ele>99.8</ele>
        <time>2020-05-31T08:38:49Z</time>
      </trkpt>
      <trkpt lat="46.39099" lon="-0.27783">
        <ele>99.6</ele>
        <time>2020-05-31T08:38:50Z</time>
      </trkpt>
      <trkpt lat="46.39094" lon="-0.27787">
        <ele>99.4</ele>
        <time>2020-05-31T08:38:51Z</time>
      </trkpt>
      <trkpt lat="46.39089" lon="-0.27793">
        <ele>99.3</ele>
        <time>2020-05-31T08:38:52Z</time>
      </trkpt>
      <trkpt lat="46.39085" lon="-0.27799">
        <ele>99.1</ele>
        <time>2020-05-31T08:38:53Z</time>
      </trkpt>
      <trkpt lat="46.39083" lon="-0.27806">
        <ele>99</ele>
        <time>2020-05-31T08:38:54Z</time>
      </trkpt>
      <trkpt lat="46.39082" lon="-0.27816">
        <ele>98.5</ele>
        <time>2020-05-31T08:38:55Z</time>
      </trkpt>
      <trkpt lat="46.39085" lon="-0.27824">
        <ele>98.4</ele>
        <time>2020-05-31T08:38:56Z</time>
      </trkpt>
      <trkpt lat="46.39089" lon="-0.27831">
        <ele>98.3</ele>
        <time>2020-05-31T08:38:57Z</time>
      </trkpt>
      <trkpt lat="46.39092" lon="-0.27839">
        <ele>98.2</ele>
        <time>2020-05-31T08:38:58Z</time>
      </trkpt>
      <trkpt lat="46.39096" lon="-0.27846">
        <ele>98.1</ele>
        <time>2020-05-31T08:38:59Z</time>
      </trkpt>
      <trkpt lat="46.39099" lon="-0.27853">
        <ele>97.9</ele>
        <time>2020-05-31T08:39:00Z</time>
      </trkpt>
      <trkpt lat="46.39103" lon="-0.2786">
        <ele>97.8</ele>
        <time>2020-05-31T08:39:01Z</time>
      </trkpt>
      <trkpt lat="46.39107" lon="-0.27866">
        <ele>97.7</ele>
        <time>2020-05-31T08:39:02Z</time>
      </trkpt>
      <trkpt lat="46.39112" lon="-0.27872">
        <ele>97.6</ele>
        <time>2020-05-31T08:39:03Z</time>
      </trkpt>
      <trkpt lat="46.39117" lon="-0.27879">
        <ele>97.5</ele>
        <time>2020-05-31T08:39:04Z</time>
      </trkpt>
      <trkpt lat="46.39121" lon="-0.27887">
        <ele>97.3</ele>
        <time>2020-05-31T08:39:05Z</time>
      </trkpt>
      <trkpt lat="46.39126" lon="-0.27894">
        <ele>97.2</ele>
        <time>2020-05-31T08:39:06Z</time>
      </trkpt>
      <trkpt lat="46.3913" lon="-0.27899">
        <ele>97.1</ele>
        <time>2020-05-31T08:39:07Z</time>
      </trkpt>
      <trkpt lat="46.39134" lon="-0.27906">
        <ele>96.9</ele>
        <time>2020-05-31T08:39:08Z</time>
      </trkpt>
      <trkpt lat="46.39138" lon="-0.27913">
        <ele>96.8</ele>
        <time>2020-05-31T08:39:09Z</time>
      </trkpt>
      <trkpt lat="46.39142" lon="-0.2792">
        <ele>96.7</ele>
        <time>2020-05-31T08:39:10Z</time>
      </trkpt>
      <trkpt lat="46.39147" lon="-0.27925">
        <ele>96.6</ele>
        <time>2020-05-31T08:39:11Z</time>
      </trkpt>
      <trkpt lat="46.39152" lon="-0.2793">
        <ele>96.5</ele>
        <time>2020-05-31T08:39:12Z</time>
      </trkpt>
      <trkpt lat="46.39156" lon="-0.27935">
        <ele>96.4</ele>
        <time>2020-05-31T08:39:13Z</time>
      </trkpt>
      <trkpt lat="46.39161" lon="-0.2794">
        <ele>96.3</ele>
        <time>2020-05-31T08:39:14Z</time>
      </trkpt>
      <trkpt lat="46.39166" lon="-0.27945">
        <ele>96.2</ele>
        <time>2020-05-31T08:39:15Z</time>
      </trkpt>
      <trkpt lat="46.3917" lon="-0.2795">
        <ele>96</ele>
        <time>2020-05-31T08:39:16Z</time>
      </trkpt>
      <trkpt lat="46.39174" lon="-0.27956">
        <ele>96</ele>
        <time>2020-05-31T08:39:17Z</time>
      </trkpt>
      <trkpt lat="46.39177" lon="-0.27963">
        <ele>95.9</ele>
        <time>2020-05-31T08:39:18Z</time>
      </trkpt>
      <trkpt lat="46.39181" lon="-0.2797">
        <ele>95.8</ele>
        <time>2020-05-31T08:39:19Z</time>
      </trkpt>
      <trkpt lat="46.39184" lon="-0.27977">
        <ele>95.7</ele>
        <time>2020-05-31T08:39:20Z</time>
      </trkpt>
      <trkpt lat="46.39187" lon="-0.27984">
        <ele>95.6</ele>
        <time>2020-05-31T08:39:21Z</time>
      </trkpt>
      <trkpt lat="46.39191" lon="-0.27991">
        <ele>95.5</ele>
        <time>2020-05-31T08:39:22Z</time>
      </trkpt>
      <trkpt lat="46.39194" lon="-0.27999">
        <ele>95.4</ele>
        <time>2020-05-31T08:39:23Z</time>
      </trkpt>
      <trkpt lat="46.39197" lon="-0.28007">
        <ele>95.4</ele>
        <time>2020-05-31T08:39:24Z</time>
      </trkpt>
      <trkpt lat="46.392" lon="-0.28015">
        <ele>95.3</ele>
        <time>2020-05-31T08:39:25Z</time>
      </trkpt>
      <trkpt lat="46.39202" lon="-0.28023">
        <ele>95.3</ele>
        <time>2020-05-31T08:39:26Z</time>
      </trkpt>
      <trkpt lat="46.39206" lon="-0.2803">
        <ele>95.3</ele>
        <time>2020-05-31T08:39:27Z</time>
      </trkpt>
      <trkpt lat="46.39209" lon="-0.28038">
        <ele>95.3</ele>
        <time>2020-05-31T08:39:28Z</time>
      </trkpt>
      <trkpt lat="46.39211" lon="-0.28046">
        <ele>95.2</ele>
        <time>2020-05-31T08:39:29Z</time>
      </trkpt>
      <trkpt lat="46.39214" lon="-0.28053">
        <ele>95.2</ele>
        <time>2020-05-31T08:39:30Z</time>
      </trkpt>
      <trkpt lat="46.39217" lon="-0.28061">
        <ele>95.2</ele>
        <time>2020-05-31T08:39:31Z</time>
      </trkpt>
      <trkpt lat="46.3922" lon="-0.28068">
        <ele>95.2</ele>
        <time>2020-05-31T08:39:32Z</time>
      </trkpt>
      <trkpt lat="46.39223" lon="-0.28075">
        <ele>95.1</ele>
        <time>2020-05-31T08:39:33Z</time>
      </trkpt>
      <trkpt lat="46.39226" lon="-0.28082">
        <ele>95.1</ele>
        <time>2020-05-31T08:39:34Z</time>
      </trkpt>
      <trkpt lat="46.39229" lon="-0.2809">
        <ele>95.1</ele>
        <time>2020-05-31T08:39:35Z</time>
      </trkpt>
      <trkpt lat="46.39232" lon="-0.28097">
        <ele>95.2</ele>
        <time>2020-05-31T08:39:36Z</time>
      </trkpt>
      <trkpt lat="46.39235" lon="-0.28104">
        <ele>95.3</ele>
        <time>2020-05-31T08:39:37Z</time>
      </trkpt>
      <trkpt lat="46.39238" lon="-0.28111">
        <ele>95.3</ele>
        <time>2020-05-31T08:39:38Z</time>
      </trkpt>
      <trkpt lat="46.39241" lon="-0.28118">
        <ele>95.4</ele>
        <time>2020-05-31T08:39:39Z</time>
      </trkpt>
      <trkpt lat="46.39245" lon="-0.28124">
        <ele>95.5</ele>
        <time>2020-05-31T08:39:40Z</time>
      </trkpt>
      <trkpt lat="46.39248" lon="-0.2813">
        <ele>95.6</ele>
        <time>2020-05-31T08:39:41Z</time>
      </trkpt>
      <trkpt lat="46.39252" lon="-0.28136">
        <ele>95.7</ele>
        <time>2020-05-31T08:39:42Z</time>
      </trkpt>
      <trkpt lat="46.39255" lon="-0.28142">
        <ele>95.8</ele>
        <time>2020-05-31T08:39:43Z</time>
      </trkpt>
      <trkpt lat="46.39258" lon="-0.28148">
        <ele>95.8</ele>
        <time>2020-05-31T08:39:44Z</time>
      </trkpt>
      <trkpt lat="46.39261" lon="-0.28154">
        <ele>95.9</ele>
        <time>2020-05-31T08:39:45Z</time>
      </trkpt>
      <trkpt lat="46.39264" lon="-0.2816">
        <ele>95.9</ele>
        <time>2020-05-31T08:39:46Z</time>
      </trkpt>
      <trkpt lat="46.39268" lon="-0.28166">
        <ele>96</ele>
        <time>2020-05-31T08:39:47Z</time>
      </trkpt>
      <trkpt lat="46.39271" lon="-0.28171">
        <ele>96.1</ele>
        <time>2020-05-31T08:39:48Z</time>
      </trkpt>
      <trkpt lat="46.39275" lon="-0.28176">
        <ele>96.1</ele>
        <time>2020-05-31T08:39:49Z</time>
      </trkpt>
      <trkpt lat="46.39278" lon="-0.28182">
        <ele>96.2</ele>
        <time>2020-05-31T08:39:50Z</time>
      </trkpt>
      <trkpt lat="46.39282" lon="-0.28187">
        <ele>96.2</ele>
        <time>2020-05-31T08:39:51Z</time>
      </trkpt>
      <trkpt lat="46.39285" lon="-0.28192">
        <ele>96.3</ele>
        <time>2020-05-31T08:39:52Z</time>
      </trkpt>
      <trkpt lat="46.39289" lon="-0.28198">
        <ele>96.3</ele>
        <time>2020-05-31T08:39:53Z</time>
      </trkpt>
      <trkpt lat="46.39293" lon="-0.28203">
        <ele>96.4</ele>
        <time>2020-05-31T08:39:54Z</time>
      </trkpt>
      <trkpt lat="46.39297" lon="-0.28208">
        <ele>96.5</ele>
        <time>2020-05-31T08:39:55Z</time>
      </trkpt>
      <trkpt lat="46.39301" lon="-0.28213">
        <ele>96.5</ele>
        <time>2020-05-31T08:39:56Z</time>
      </trkpt>
      <trkpt lat="46.39305" lon="-0.28218">
        <ele>96.6</ele>
        <time>2020-05-31T08:39:57Z</time>
      </trkpt>
      <trkpt lat="46.39309" lon="-0.28223">
        <ele>96.7</ele>
        <time>2020-05-31T08:39:58Z</time>
      </trkpt>
      <trkpt lat="46.39313" lon="-0.28228">
        <ele>96.8</ele>
        <time>2020-05-31T08:39:59Z</time>
      </trkpt>
      <trkpt lat="46.39318" lon="-0.28233">
        <ele>96.8</ele>
        <time>2020-05-31T08:40:00Z</time>
      </trkpt>
      <trkpt lat="46.39322" lon="-0.28237">
        <ele>96.9</ele>
        <time>2020-05-31T08:40:01Z</time>
      </trkpt>
      <trkpt lat="46.39326" lon="-0.28241">
        <ele>97</ele>
        <time>2020-05-31T08:40:02Z</time>
      </trkpt>
      <trkpt lat="46.39331" lon="-0.28245">
        <ele>97.1</ele>
        <time>2020-05-31T08:40:03Z</time>
      </trkpt>
      <trkpt lat="46.39335" lon="-0.28249">
        <ele>97.1</ele>
        <time>2020-05-31T08:40:04Z</time>
      </trkpt>
      <trkpt lat="46.3934" lon="-0.28253">
        <ele>97.2</ele>
        <time>2020-05-31T08:40:05Z</time>
      </trkpt>
      <trkpt lat="46.39344" lon="-0.28257">
        <ele>97.3</ele>
        <time>2020-05-31T08:40:06Z</time>
      </trkpt>
      <trkpt lat="46.39349" lon="-0.28261">
        <ele>97.3</ele>
        <time>2020-05-31T08:40:07Z</time>
      </trkpt>
      <trkpt lat="46.39354" lon="-0.28265">
        <ele>97.3</ele>
        <time>2020-05-31T08:40:08Z</time>
      </trkpt>
      <trkpt lat="46.39359" lon="-0.28268">
        <ele>97.3</ele>
        <time>2020-05-31T08:40:09Z</time>
      </trkpt>
      <trkpt lat="46.39364" lon="-0.28271">
        <ele>97.4</ele>
        <time>2020-05-31T08:40:10Z</time>
      </trkpt>
      <trkpt lat="46.39368" lon="-0.28275">
        <ele>97.4</ele>
        <time>2020-05-31T08:40:11Z</time>
      </trkpt>
      <trkpt lat="46.39372" lon="-0.28279">
        <ele>97.5</ele>
        <time>2020-05-31T08:40:12Z</time>
      </trkpt>
      <trkpt lat="46.39376" lon="-0.28284">
        <ele>97.6</ele>
        <time>2020-05-31T08:40:13Z</time>
      </trkpt>
      <trkpt lat="46.39379" lon="-0.28288">
        <ele>97.7</ele>
        <time>2020-05-31T08:40:14Z</time>
      </trkpt>
      <trkpt lat="46.39383" lon="-0.28291">
        <ele>97.9</ele>
        <time>2020-05-31T08:40:15Z</time>
      </trkpt>
      <trkpt lat="46.39387" lon="-0.28296">
        <ele>98</ele>
        <time>2020-05-31T08:40:16Z</time>
      </trkpt>
      <trkpt lat="46.39391" lon="-0.28299">
        <ele>98.1</ele>
        <time>2020-05-31T08:40:17Z</time>
      </trkpt>
      <trkpt lat="46.39396" lon="-0.28303">
        <ele>98.3</ele>
        <time>2020-05-31T08:40:18Z</time>
      </trkpt>
      <trkpt lat="46.394" lon="-0.28306">
        <ele>98.4</ele>
        <time>2020-05-31T08:40:19Z</time>
      </trkpt>
      <trkpt lat="46.39404" lon="-0.28309">
        <ele>98.6</ele>
        <time>2020-05-31T08:40:20Z</time>
      </trkpt>
      <trkpt lat="46.39408" lon="-0.28313">
        <ele>98.7</ele>
        <time>2020-05-31T08:40:21Z</time>
      </trkpt>
      <trkpt lat="46.39412" lon="-0.28317">
        <ele>98.8</ele>
        <time>2020-05-31T08:40:22Z</time>
      </trkpt>
      <trkpt lat="46.39415" lon="-0.28323">
        <ele>99</ele>
        <time>2020-05-31T08:40:23Z</time>
      </trkpt>
      <trkpt lat="46.39419" lon="-0.28328">
        <ele>99.1</ele>
        <time>2020-05-31T08:40:24Z</time>
      </trkpt>
      <trkpt lat="46.39422" lon="-0.28333">
        <ele>99.2</ele>
        <time>2020-05-31T08:40:25Z</time>
      </trkpt>
      <trkpt lat="46.39425" lon="-0.28338">
        <ele>99.4</ele>
        <time>2020-05-31T08:40:26Z</time>
      </trkpt>
      <trkpt lat="46.39429" lon="-0.28343">
        <ele>99.5</ele>
        <time>2020-05-31T08:40:27Z</time>
      </trkpt>
      <trkpt lat="46.39433" lon="-0.28347">
        <ele>99.7</ele>
        <time>2020-05-31T08:40:28Z</time>
      </trkpt>
      <trkpt lat="46.39437" lon="-0.28351">
        <ele>99.8</ele>
        <time>2020-05-31T08:40:29Z</time>
      </trkpt>
      <trkpt lat="46.3944" lon="-0.28355">
        <ele>100</ele>
        <time>2020-05-31T08:40:30Z</time>
      </trkpt>
      <trkpt lat="46.39443" lon="-0.2836">
        <ele>100.1</ele>
        <time>2020-05-31T08:40:31Z</time>
      </trkpt>
      <trkpt lat="46.39446" lon="-0.28365">
        <ele>100.3</ele>
        <time>2020-05-31T08:40:32Z</time>
      </trkpt>
      <trkpt lat="46.39449" lon="-0.28369">
        <ele>100.5</ele>
        <time>2020-05-31T08:40:33Z</time>
      </trkpt>
      <trkpt lat="46.39452" lon="-0.28374">
        <ele>100.6</ele>
        <time>2020-05-31T08:40:34Z</time>
      </trkpt>
      <trkpt lat="46.39455" lon="-0.28378">
        <ele>100.8</ele>
        <time>2020-05-31T08:40:35Z</time>
      </trkpt>
      <trkpt lat="46.39458" lon="-0.28383">
        <ele>100.9</ele>
        <time>2020-05-31T08:40:36Z</time>
      </trkpt>
      <trkpt lat="46.39462" lon="-0.28386">
        <ele>101.1</ele>
        <time>2020-05-31T08:40:37Z</time>
      </trkpt>
      <trkpt lat="46.39465" lon="-0.2839">
        <ele>101.2</ele>
        <time>2020-05-31T08:40:38Z</time>
      </trkpt>
      <trkpt lat="46.39467" lon="-0.28394">
        <ele>101.3</ele>
        <time>2020-05-31T08:40:39Z</time>
      </trkpt>
      <trkpt lat="46.3947" lon="-0.28398">
        <ele>101.5</ele>
        <time>2020-05-31T08:40:40Z</time>
      </trkpt>
      <trkpt lat="46.39473" lon="-0.28402">
        <ele>101.6</ele>
        <time>2020-05-31T08:40:41Z</time>
      </trkpt>
      <trkpt lat="46.39475" lon="-0.28405">
        <ele>101.7</ele>
        <time>2020-05-31T08:40:42Z</time>
      </trkpt>
      <trkpt lat="46.39478" lon="-0.28407">
        <ele>101.8</ele>
        <time>2020-05-31T08:40:43Z</time>
      </trkpt>
      <trkpt lat="46.39481" lon="-0.28409">
        <ele>102</ele>
        <time>2020-05-31T08:40:44Z</time>
      </trkpt>
      <trkpt lat="46.39483" lon="-0.28412">
        <ele>102.1</ele>
        <time>2020-05-31T08:40:45Z</time>
      </trkpt>
      <trkpt lat="46.39486" lon="-0.28416">
        <ele>102.2</ele>
        <time>2020-05-31T08:40:46Z</time>
      </trkpt>
      <trkpt lat="46.39489" lon="-0.28418">
        <ele>102.3</ele>
        <time>2020-05-31T08:40:47Z</time>
      </trkpt>
      <trkpt lat="46.39493" lon="-0.2842">
        <ele>102.4</ele>
        <time>2020-05-31T08:40:48Z</time>
      </trkpt>
      <trkpt lat="46.39496" lon="-0.28423">
        <ele>102.5</ele>
        <time>2020-05-31T08:40:49Z</time>
      </trkpt>
      <trkpt lat="46.39499" lon="-0.28427">
        <ele>102.6</ele>
        <time>2020-05-31T08:40:50Z</time>
      </trkpt>
      <trkpt lat="46.39501" lon="-0.2843">
        <ele>102.7</ele>
        <time>2020-05-31T08:40:51Z</time>
      </trkpt>
      <trkpt lat="46.39504" lon="-0.28434">
        <ele>102.8</ele>
        <time>2020-05-31T08:40:52Z</time>
      </trkpt>
      <trkpt lat="46.39505" lon="-0.28436">
        <ele>102.8</ele>
        <time>2020-05-31T08:40:53Z</time>
      </trkpt>
      <trkpt lat="46.39508" lon="-0.28439">
        <ele>102.8</ele>
        <time>2020-05-31T08:40:54Z</time>
      </trkpt>
      <trkpt lat="46.39511" lon="-0.28442">
        <ele>102.9</ele>
        <time>2020-05-31T08:40:55Z</time>
      </trkpt>
      <trkpt lat="46.39514" lon="-0.28446">
        <ele>103</ele>
        <time>2020-05-31T08:40:56Z</time>
      </trkpt>
      <trkpt lat="46.39518" lon="-0.2845">
        <ele>103.1</ele>
        <time>2020-05-31T08:40:57Z</time>
      </trkpt>
      <trkpt lat="46.39521" lon="-0.28454">
        <ele>103.2</ele>
        <time>2020-05-31T08:40:58Z</time>
      </trkpt>
      <trkpt lat="46.39525" lon="-0.28458">
        <ele>103.2</ele>
        <time>2020-05-31T08:40:59Z</time>
      </trkpt>
      <trkpt lat="46.39529" lon="-0.28461">
        <ele>103.3</ele>
        <time>2020-05-31T08:41:00Z</time>
      </trkpt>
      <trkpt lat="46.39533" lon="-0.28464">
        <ele>103.3</ele>
        <time>2020-05-31T08:41:01Z</time>
      </trkpt>
      <trkpt lat="46.39537" lon="-0.28468">
        <ele>103.4</ele>
        <time>2020-05-31T08:41:02Z</time>
      </trkpt>
      <trkpt lat="46.39541" lon="-0.28473">
        <ele>103.4</ele>
        <time>2020-05-31T08:41:03Z</time>
      </trkpt>
      <trkpt lat="46.39545" lon="-0.28475">
        <ele>103.5</ele>
        <time>2020-05-31T08:41:04Z</time>
      </trkpt>
      <trkpt lat="46.39548" lon="-0.28481">
        <ele>103.5</ele>
        <time>2020-05-31T08:41:05Z</time>
      </trkpt>
      <trkpt lat="46.39552" lon="-0.28485">
        <ele>103.5</ele>
        <time>2020-05-31T08:41:06Z</time>
      </trkpt>
      <trkpt lat="46.39554" lon="-0.28487">
        <ele>103.5</ele>
        <time>2020-05-31T08:41:07Z</time>
      </trkpt>
      <trkpt lat="46.39556" lon="-0.2849">
        <ele>103.5</ele>
        <time>2020-05-31T08:41:08Z</time>
      </trkpt>
      <trkpt lat="46.39559" lon="-0.28493">
        <ele>103.6</ele>
        <time>2020-05-31T08:41:09Z</time>
      </trkpt>
      <trkpt lat="46.39561" lon="-0.28495">
        <ele>103.6</ele>
        <time>2020-05-31T08:41:10Z</time>
      </trkpt>
      <trkpt lat="46.39564" lon="-0.28497">
        <ele>103.6</ele>
        <time>2020-05-31T08:41:11Z</time>
      </trkpt>
      <trkpt lat="46.39567" lon="-0.285">
        <ele>103.6</ele>
        <time>2020-05-31T08:41:12Z</time>
      </trkpt>
      <trkpt lat="46.3957" lon="-0.28503">
        <ele>103.6</ele>
        <time>2020-05-31T08:41:13Z</time>
      </trkpt>
      <trkpt lat="46.39573" lon="-0.28508">
        <ele>103.6</ele>
        <time>2020-05-31T08:41:14Z</time>
      </trkpt>
      <trkpt lat="46.39576" lon="-0.28512">
        <ele>103.6</ele>
        <time>2020-05-31T08:41:15Z</time>
      </trkpt>
      <trkpt lat="46.39579" lon="-0.28516">
        <ele>103.6</ele>
        <time>2020-05-31T08:41:16Z</time>
      </trkpt>
      <trkpt lat="46.39582" lon="-0.28519">
        <ele>103.6</ele>
        <time>2020-05-31T08:41:17Z</time>
      </trkpt>
      <trkpt lat="46.39586" lon="-0.28523">
        <ele>103.6</ele>
        <time>2020-05-31T08:41:18Z</time>
      </trkpt>
      <trkpt lat="46.39588" lon="-0.28525">
        <ele>103.6</ele>
        <time>2020-05-31T08:41:19Z</time>
      </trkpt>
      <trkpt lat="46.39591" lon="-0.2853">
        <ele>103.6</ele>
        <time>2020-05-31T08:41:20Z</time>
      </trkpt>
      <trkpt lat="46.39592" lon="-0.28532">
        <ele>103.6</ele>
        <time>2020-05-31T08:41:21Z</time>
      </trkpt>
      <trkpt lat="46.39595" lon="-0.28536">
        <ele>103.5</ele>
        <time>2020-05-31T08:41:22Z</time>
      </trkpt>
      <trkpt lat="46.39599" lon="-0.28544">
        <ele>103.5</ele>
        <time>2020-05-31T08:41:23Z</time>
      </trkpt>
      <trkpt lat="46.39601" lon="-0.2855">
        <ele>103.5</ele>
        <time>2020-05-31T08:41:24Z</time>
      </trkpt>
      <trkpt lat="46.39601" lon="-0.28556">
        <ele>103.4</ele>
        <time>2020-05-31T08:41:25Z</time>
      </trkpt>
      <trkpt lat="46.396" lon="-0.28563">
        <ele>103.3</ele>
        <time>2020-05-31T08:41:26Z</time>
      </trkpt>
      <trkpt lat="46.39598" lon="-0.2857">
        <ele>103.2</ele>
        <time>2020-05-31T08:41:27Z</time>
      </trkpt>
      <trkpt lat="46.39596" lon="-0.28578">
        <ele>103.1</ele>
        <time>2020-05-31T08:41:28Z</time>
      </trkpt>
      <trkpt lat="46.39593" lon="-0.28583">
        <ele>103</ele>
        <time>2020-05-31T08:41:29Z</time>
      </trkpt>
      <trkpt lat="46.39591" lon="-0.2859">
        <ele>102.9</ele>
        <time>2020-05-31T08:41:30Z</time>
      </trkpt>
      <trkpt lat="46.39588" lon="-0.28597">
        <ele>102.8</ele>
        <time>2020-05-31T08:41:31Z</time>
      </trkpt>
      <trkpt lat="46.39585" lon="-0.28604">
        <ele>102.6</ele>
        <time>2020-05-31T08:41:32Z</time>
      </trkpt>
      <trkpt lat="46.39583" lon="-0.28611">
        <ele>102.5</ele>
        <time>2020-05-31T08:41:33Z</time>
      </trkpt>
      <trkpt lat="46.3958" lon="-0.28618">
        <ele>102.4</ele>
        <time>2020-05-31T08:41:34Z</time>
      </trkpt>
      <trkpt lat="46.39577" lon="-0.28625">
        <ele>102.3</ele>
        <time>2020-05-31T08:41:35Z</time>
      </trkpt>
      <trkpt lat="46.39573" lon="-0.28632">
        <ele>102.2</ele>
        <time>2020-05-31T08:41:36Z</time>
      </trkpt>
      <trkpt lat="46.3957" lon="-0.2864">
        <ele>102</ele>
        <time>2020-05-31T08:41:37Z</time>
      </trkpt>
      <trkpt lat="46.39568" lon="-0.28649">
        <ele>101.9</ele>
        <time>2020-05-31T08:41:38Z</time>
      </trkpt>
      <trkpt lat="46.39565" lon="-0.28657">
        <ele>101.8</ele>
        <time>2020-05-31T08:41:39Z</time>
      </trkpt>
      <trkpt lat="46.39561" lon="-0.28666">
        <ele>101.6</ele>
        <time>2020-05-31T08:41:40Z</time>
      </trkpt>
      <trkpt lat="46.39558" lon="-0.28675">
        <ele>101.5</ele>
        <time>2020-05-31T08:41:41Z</time>
      </trkpt>
      <trkpt lat="46.39554" lon="-0.28683">
        <ele>101.4</ele>
        <time>2020-05-31T08:41:42Z</time>
      </trkpt>
      <trkpt lat="46.3955" lon="-0.28692">
        <ele>101.3</ele>
        <time>2020-05-31T08:41:43Z</time>
      </trkpt>
      <trkpt lat="46.39547" lon="-0.287">
        <ele>101.1</ele>
        <time>2020-05-31T08:41:44Z</time>
      </trkpt>
      <trkpt lat="46.39544" lon="-0.28711">
        <ele>101</ele>
        <time>2020-05-31T08:41:45Z</time>
      </trkpt>
      <trkpt lat="46.3954" lon="-0.2872">
        <ele>100.9</ele>
        <time>2020-05-31T08:41:46Z</time>
      </trkpt>
      <trkpt lat="46.39537" lon="-0.28728">
        <ele>100.7</ele>
        <time>2020-05-31T08:41:47Z</time>
      </trkpt>
      <trkpt lat="46.39533" lon="-0.28737">
        <ele>100.6</ele>
        <time>2020-05-31T08:41:48Z</time>
      </trkpt>
      <trkpt lat="46.39529" lon="-0.28747">
        <ele>100.4</ele>
        <time>2020-05-31T08:41:49Z</time>
      </trkpt>
      <trkpt lat="46.39524" lon="-0.28755">
        <ele>100.2</ele>
        <time>2020-05-31T08:41:50Z</time>
      </trkpt>
      <trkpt lat="46.3952" lon="-0.28765">
        <ele>100.1</ele>
        <time>2020-05-31T08:41:51Z</time>
      </trkpt>
      <trkpt lat="46.39516" lon="-0.28773">
        <ele>100</ele>
        <time>2020-05-31T08:41:52Z</time>
      </trkpt>
      <trkpt lat="46.39512" lon="-0.28782">
        <ele>99.9</ele>
        <time>2020-05-31T08:41:53Z</time>
      </trkpt>
      <trkpt lat="46.39508" lon="-0.28791">
        <ele>99.8</ele>
        <time>2020-05-31T08:41:54Z</time>
      </trkpt>
      <trkpt lat="46.39504" lon="-0.288">
        <ele>99.7</ele>
        <time>2020-05-31T08:41:55Z</time>
      </trkpt>
      <trkpt lat="46.395" lon="-0.28808">
        <ele>99.6</ele>
        <time>2020-05-31T08:41:56Z</time>
      </trkpt>
      <trkpt lat="46.39496" lon="-0.28817">
        <ele>99.5</ele>
        <time>2020-05-31T08:41:57Z</time>
      </trkpt>
      <trkpt lat="46.39492" lon="-0.28825">
        <ele>99.5</ele>
        <time>2020-05-31T08:41:58Z</time>
      </trkpt>
      <trkpt lat="46.39488" lon="-0.28833">
        <ele>99.4</ele>
        <time>2020-05-31T08:41:59Z</time>
      </trkpt>
      <trkpt lat="46.39483" lon="-0.2884">
        <ele>99.4</ele>
        <time>2020-05-31T08:42:00Z</time>
      </trkpt>
      <trkpt lat="46.39478" lon="-0.28848">
        <ele>99.4</ele>
        <time>2020-05-31T08:42:01Z</time>
      </trkpt>
      <trkpt lat="46.39473" lon="-0.28855">
        <ele>99.4</ele>
        <time>2020-05-31T08:42:02Z</time>
      </trkpt>
      <trkpt lat="46.39469" lon="-0.28863">
        <ele>99.3</ele>
        <time>2020-05-31T08:42:03Z</time>
      </trkpt>
      <trkpt lat="46.39465" lon="-0.28871">
        <ele>99.2</ele>
        <time>2020-05-31T08:42:04Z</time>
      </trkpt>
      <trkpt lat="46.3946" lon="-0.28879">
        <ele>99.1</ele>
        <time>2020-05-31T08:42:05Z</time>
      </trkpt>
      <trkpt lat="46.39456" lon="-0.28886">
        <ele>99</ele>
        <time>2020-05-31T08:42:06Z</time>
      </trkpt>
      <trkpt lat="46.39452" lon="-0.28895">
        <ele>98.8</ele>
        <time>2020-05-31T08:42:07Z</time>
      </trkpt>
      <trkpt lat="46.39448" lon="-0.28902">
        <ele>98.6</ele>
        <time>2020-05-31T08:42:08Z</time>
      </trkpt>
      <trkpt lat="46.39444" lon="-0.28911">
        <ele>98.5</ele>
        <time>2020-05-31T08:42:09Z</time>
      </trkpt>
      <trkpt lat="46.3944" lon="-0.28919">
        <ele>98.4</ele>
        <time>2020-05-31T08:42:10Z</time>
      </trkpt>
      <trkpt lat="46.39436" lon="-0.28927">
        <ele>98.3</ele>
        <time>2020-05-31T08:42:11Z</time>
      </trkpt>
      <trkpt lat="46.39432" lon="-0.28935">
        <ele>98.3</ele>
        <time>2020-05-31T08:42:12Z</time>
      </trkpt>
      <trkpt lat="46.39429" lon="-0.28944">
        <ele>98.2</ele>
        <time>2020-05-31T08:42:13Z</time>
      </trkpt>
      <trkpt lat="46.39425" lon="-0.28952">
        <ele>98.1</ele>
        <time>2020-05-31T08:42:14Z</time>
      </trkpt>
      <trkpt lat="46.39422" lon="-0.2896">
        <ele>98</ele>
        <time>2020-05-31T08:42:15Z</time>
      </trkpt>
      <trkpt lat="46.39418" lon="-0.28968">
        <ele>97.9</ele>
        <time>2020-05-31T08:42:16Z</time>
      </trkpt>
      <trkpt lat="46.39414" lon="-0.28975">
        <ele>97.8</ele>
        <time>2020-05-31T08:42:17Z</time>
      </trkpt>
      <trkpt lat="46.3941" lon="-0.28983">
        <ele>97.7</ele>
        <time>2020-05-31T08:42:18Z</time>
      </trkpt>
      <trkpt lat="46.39406" lon="-0.28991">
        <ele>97.5</ele>
        <time>2020-05-31T08:42:19Z</time>
      </trkpt>
      <trkpt lat="46.39401" lon="-0.28999">
        <ele>97.4</ele>
        <time>2020-05-31T08:42:20Z</time>
      </trkpt>
      <trkpt lat="46.39397" lon="-0.29006">
        <ele>97.4</ele>
        <time>2020-05-31T08:42:21Z</time>
      </trkpt>
      <trkpt lat="46.39392" lon="-0.29014">
        <ele>97.3</ele>
        <time>2020-05-31T08:42:22Z</time>
      </trkpt>
      <trkpt lat="46.39389" lon="-0.29023">
        <ele>97.2</ele>
        <time>2020-05-31T08:42:23Z</time>
      </trkpt>
      <trkpt lat="46.39384" lon="-0.2903">
        <ele>97.1</ele>
        <time>2020-05-31T08:42:24Z</time>
      </trkpt>
      <trkpt lat="46.39381" lon="-0.29038">
        <ele>97.1</ele>
        <time>2020-05-31T08:42:25Z</time>
      </trkpt>
      <trkpt lat="46.39377" lon="-0.29046">
        <ele>97</ele>
        <time>2020-05-31T08:42:26Z</time>
      </trkpt>
      <trkpt lat="46.39374" lon="-0.29054">
        <ele>96.9</ele>
        <time>2020-05-31T08:42:27Z</time>
      </trkpt>
      <trkpt lat="46.3937" lon="-0.29062">
        <ele>96.8</ele>
        <time>2020-05-31T08:42:28Z</time>
      </trkpt>
      <trkpt lat="46.39366" lon="-0.29071">
        <ele>96.7</ele>
        <time>2020-05-31T08:42:29Z</time>
      </trkpt>
      <trkpt lat="46.39362" lon="-0.29078">
        <ele>96.6</ele>
        <time>2020-05-31T08:42:30Z</time>
      </trkpt>
      <trkpt lat="46.39359" lon="-0.29087">
        <ele>96.5</ele>
        <time>2020-05-31T08:42:31Z</time>
      </trkpt>
      <trkpt lat="46.39355" lon="-0.29095">
        <ele>96.4</ele>
        <time>2020-05-31T08:42:32Z</time>
      </trkpt>
      <trkpt lat="46.39351" lon="-0.29102">
        <ele>96.3</ele>
        <time>2020-05-31T08:42:33Z</time>
      </trkpt>
      <trkpt lat="46.39347" lon="-0.2911">
        <ele>96.2</ele>
        <time>2020-05-31T08:42:34Z</time>
      </trkpt>
      <trkpt lat="46.39344" lon="-0.29118">
        <ele>96.1</ele>
        <time>2020-05-31T08:42:35Z</time>
      </trkpt>
      <trkpt lat="46.39341" lon="-0.29125">
        <ele>96</ele>
        <time>2020-05-31T08:42:36Z</time>
      </trkpt>
      <trkpt lat="46.39337" lon="-0.29132">
        <ele>95.9</ele>
        <time>2020-05-31T08:42:37Z</time>
      </trkpt>
      <trkpt lat="46.39334" lon="-0.2914">
        <ele>95.8</ele>
        <time>2020-05-31T08:42:38Z</time>
      </trkpt>
      <trkpt lat="46.3933" lon="-0.29147">
        <ele>95.7</ele>
        <time>2020-05-31T08:42:39Z</time>
      </trkpt>
      <trkpt lat="46.39326" lon="-0.29155">
        <ele>95.6</ele>
        <time>2020-05-31T08:42:40Z</time>
      </trkpt>
      <trkpt lat="46.39322" lon="-0.29162">
        <ele>95.5</ele>
        <time>2020-05-31T08:42:41Z</time>
      </trkpt>
      <trkpt lat="46.39318" lon="-0.29169">
        <ele>95.3</ele>
        <time>2020-05-31T08:42:42Z</time>
      </trkpt>
      <trkpt lat="46.39315" lon="-0.29177">
        <ele>95.2</ele>
        <time>2020-05-31T08:42:43Z</time>
      </trkpt>
      <trkpt lat="46.39311" lon="-0.29184">
        <ele>95.1</ele>
        <time>2020-05-31T08:42:44Z</time>
      </trkpt>
      <trkpt lat="46.39307" lon="-0.29192">
        <ele>95</ele>
        <time>2020-05-31T08:42:45Z</time>
      </trkpt>
      <trkpt lat="46.39303" lon="-0.29199">
        <ele>94.9</ele>
        <time>2020-05-31T08:42:46Z</time>
      </trkpt>
      <trkpt lat="46.39299" lon="-0.29206">
        <ele>94.7</ele>
        <time>2020-05-31T08:42:47Z</time>
      </trkpt>
      <trkpt lat="46.39294" lon="-0.29213">
        <ele>94.6</ele>
        <time>2020-05-31T08:42:48Z</time>
      </trkpt>
      <trkpt lat="46.3929" lon="-0.29221">
        <ele>94.5</ele>
        <time>2020-05-31T08:42:49Z</time>
      </trkpt>
      <trkpt lat="46.39285" lon="-0.29228">
        <ele>94.4</ele>
        <time>2020-05-31T08:42:50Z</time>
      </trkpt>
      <trkpt lat="46.39281" lon="-0.29236">
        <ele>94.2</ele>
        <time>2020-05-31T08:42:51Z</time>
      </trkpt>
      <trkpt lat="46.39276" lon="-0.29243">
        <ele>94.1</ele>
        <time>2020-05-31T08:42:52Z</time>
      </trkpt>
      <trkpt lat="46.39272" lon="-0.29251">
        <ele>93.9</ele>
        <time>2020-05-31T08:42:53Z</time>
      </trkpt>
      <trkpt lat="46.39267" lon="-0.29259">
        <ele>93.8</ele>
        <time>2020-05-31T08:42:54Z</time>
      </trkpt>
      <trkpt lat="46.39263" lon="-0.29267">
        <ele>93.7</ele>
        <time>2020-05-31T08:42:55Z</time>
      </trkpt>
      <trkpt lat="46.39258" lon="-0.29274">
        <ele>93.5</ele>
        <time>2020-05-31T08:42:56Z</time>
      </trkpt>
      <trkpt lat="46.39253" lon="-0.29282">
        <ele>93.4</ele>
        <time>2020-05-31T08:42:57Z</time>
      </trkpt>
      <trkpt lat="46.39249" lon="-0.2929">
        <ele>93.3</ele>
        <time>2020-05-31T08:42:58Z</time>
      </trkpt>
      <trkpt lat="46.39245" lon="-0.29298">
        <ele>93.1</ele>
        <time>2020-05-31T08:42:59Z</time>
      </trkpt>
      <trkpt lat="46.3924" lon="-0.29306">
        <ele>93</ele>
        <time>2020-05-31T08:43:00Z</time>
      </trkpt>
      <trkpt lat="46.39235" lon="-0.29313">
        <ele>92.8</ele>
        <time>2020-05-31T08:43:01Z</time>
      </trkpt>
      <trkpt lat="46.39231" lon="-0.29321">
        <ele>92.7</ele>
        <time>2020-05-31T08:43:02Z</time>
      </trkpt>
      <trkpt lat="46.39226" lon="-0.29329">
        <ele>92.5</ele>
        <time>2020-05-31T08:43:03Z</time>
      </trkpt>
      <trkpt lat="46.39222" lon="-0.29337">
        <ele>92.4</ele>
        <time>2020-05-31T08:43:04Z</time>
      </trkpt>
      <trkpt lat="46.39217" lon="-0.29345">
        <ele>92.3</ele>
        <time>2020-05-31T08:43:05Z</time>
      </trkpt>
      <trkpt lat="46.39213" lon="-0.29353">
        <ele>92.1</ele>
        <time>2020-05-31T08:43:06Z</time>
      </trkpt>
      <trkpt lat="46.39209" lon="-0.29362">
        <ele>92</ele>
        <time>2020-05-31T08:43:07Z</time>
      </trkpt>
      <trkpt lat="46.39204" lon="-0.2937">
        <ele>91.9</ele>
        <time>2020-05-31T08:43:08Z</time>
      </trkpt>
      <trkpt lat="46.39199" lon="-0.29378">
        <ele>91.8</ele>
        <time>2020-05-31T08:43:09Z</time>
      </trkpt>
      <trkpt lat="46.39195" lon="-0.29387">
        <ele>91.7</ele>
        <time>2020-05-31T08:43:10Z</time>
      </trkpt>
      <trkpt lat="46.3919" lon="-0.29396">
        <ele>91.6</ele>
        <time>2020-05-31T08:43:11Z</time>
      </trkpt>
      <trkpt lat="46.39186" lon="-0.29405">
        <ele>91.4</ele>
        <time>2020-05-31T08:43:12Z</time>
      </trkpt>
      <trkpt lat="46.39181" lon="-0.29414">
        <ele>91.2</ele>
        <time>2020-05-31T08:43:13Z</time>
      </trkpt>
      <trkpt lat="46.39177" lon="-0.29422">
        <ele>91</ele>
        <time>2020-05-31T08:43:14Z</time>
      </trkpt>
      <trkpt lat="46.39173" lon="-0.2943">
        <ele>90.8</ele>
        <time>2020-05-31T08:43:15Z</time>
      </trkpt>
      <trkpt lat="46.39168" lon="-0.29439">
        <ele>90.6</ele>
        <time>2020-05-31T08:43:16Z</time>
      </trkpt>
      <trkpt lat="46.39164" lon="-0.29447">
        <ele>90.4</ele>
        <time>2020-05-31T08:43:17Z</time>
      </trkpt>
      <trkpt lat="46.39159" lon="-0.29455">
        <ele>90.2</ele>
        <time>2020-05-31T08:43:18Z</time>
      </trkpt>
      <trkpt lat="46.39154" lon="-0.29464">
        <ele>90</ele>
        <time>2020-05-31T08:43:19Z</time>
      </trkpt>
      <trkpt lat="46.39148" lon="-0.29473">
        <ele>89.8</ele>
        <time>2020-05-31T08:43:20Z</time>
      </trkpt>
      <trkpt lat="46.39144" lon="-0.29482">
        <ele>89.6</ele>
        <time>2020-05-31T08:43:21Z</time>
      </trkpt>
      <trkpt lat="46.39139" lon="-0.29491">
        <ele>89.4</ele>
        <time>2020-05-31T08:43:22Z</time>
      </trkpt>
      <trkpt lat="46.39135" lon="-0.29501">
        <ele>89.2</ele>
        <time>2020-05-31T08:43:23Z</time>
      </trkpt>
      <trkpt lat="46.3913" lon="-0.2951">
        <ele>89</ele>
        <time>2020-05-31T08:43:24Z</time>
      </trkpt>
      <trkpt lat="46.39126" lon="-0.29519">
        <ele>88.7</ele>
        <time>2020-05-31T08:43:25Z</time>
      </trkpt>
      <trkpt lat="46.39121" lon="-0.29528">
        <ele>88.5</ele>
        <time>2020-05-31T08:43:26Z</time>
      </trkpt>
      <trkpt lat="46.39116" lon="-0.29538">
        <ele>88.3</ele>
        <time>2020-05-31T08:43:27Z</time>
      </trkpt>
      <trkpt lat="46.39112" lon="-0.29548">
        <ele>88</ele>
        <time>2020-05-31T08:43:28Z</time>
      </trkpt>
      <trkpt lat="46.39108" lon="-0.29558">
        <ele>87.8</ele>
        <time>2020-05-31T08:43:29Z</time>
      </trkpt>
      <trkpt lat="46.39105" lon="-0.29569">
        <ele>87.5</ele>
        <time>2020-05-31T08:43:30Z</time>
      </trkpt>
      <trkpt lat="46.39101" lon="-0.2958">
        <ele>87.3</ele>
        <time>2020-05-31T08:43:31Z</time>
      </trkpt>
      <trkpt lat="46.39097" lon="-0.29591">
        <ele>87.1</ele>
        <time>2020-05-31T08:43:32Z</time>
      </trkpt>
      <trkpt lat="46.39093" lon="-0.29602">
        <ele>86.9</ele>
        <time>2020-05-31T08:43:33Z</time>
      </trkpt>
      <trkpt lat="46.39089" lon="-0.29613">
        <ele>86.7</ele>
        <time>2020-05-31T08:43:34Z</time>
      </trkpt>
      <trkpt lat="46.39084" lon="-0.29623">
        <ele>86.5</ele>
        <time>2020-05-31T08:43:35Z</time>
      </trkpt>
      <trkpt lat="46.3908" lon="-0.29634">
        <ele>86.3</ele>
        <time>2020-05-31T08:43:36Z</time>
      </trkpt>
      <trkpt lat="46.39076" lon="-0.29646">
        <ele>86</ele>
        <time>2020-05-31T08:43:37Z</time>
      </trkpt>
      <trkpt lat="46.39072" lon="-0.29657">
        <ele>85.8</ele>
        <time>2020-05-31T08:43:38Z</time>
      </trkpt>
      <trkpt lat="46.39067" lon="-0.29667">
        <ele>85.6</ele>
        <time>2020-05-31T08:43:39Z</time>
      </trkpt>
      <trkpt lat="46.39063" lon="-0.29678">
        <ele>85.4</ele>
        <time>2020-05-31T08:43:40Z</time>
      </trkpt>
      <trkpt lat="46.39059" lon="-0.29689">
        <ele>85.2</ele>
        <time>2020-05-31T08:43:41Z</time>
      </trkpt>
      <trkpt lat="46.39055" lon="-0.297">
        <ele>85</ele>
        <time>2020-05-31T08:43:42Z</time>
      </trkpt>
      <trkpt lat="46.39051" lon="-0.29711">
        <ele>84.9</ele>
        <time>2020-05-31T08:43:43Z</time>
      </trkpt>
      <trkpt lat="46.39047" lon="-0.29722">
        <ele>84.8</ele>
        <time>2020-05-31T08:43:44Z</time>
      </trkpt>
      <trkpt lat="46.39042" lon="-0.29733">
        <ele>84.7</ele>
        <time>2020-05-31T08:43:45Z</time>
      </trkpt>
      <trkpt lat="46.39038" lon="-0.29743">
        <ele>84.6</ele>
        <time>2020-05-31T08:43:46Z</time>
      </trkpt>
      <trkpt lat="46.39033" lon="-0.29754">
        <ele>84.4</ele>
        <time>2020-05-31T08:43:47Z</time>
      </trkpt>
      <trkpt lat="46.39029" lon="-0.29765">
        <ele>84.2</ele>
        <time>2020-05-31T08:43:48Z</time>
      </trkpt>
      <trkpt lat="46.39025" lon="-0.29776">
        <ele>84.1</ele>
        <time>2020-05-31T08:43:49Z</time>
      </trkpt>
      <trkpt lat="46.39021" lon="-0.29788">
        <ele>83.9</ele>
        <time>2020-05-31T08:43:50Z</time>
      </trkpt>
      <trkpt lat="46.39016" lon="-0.29799">
        <ele>83.7</ele>
        <time>2020-05-31T08:43:51Z</time>
      </trkpt>
      <trkpt lat="46.39012" lon="-0.29811">
        <ele>83.5</ele>
        <time>2020-05-31T08:43:52Z</time>
      </trkpt>
      <trkpt lat="46.39008" lon="-0.29822">
        <ele>83.3</ele>
        <time>2020-05-31T08:43:53Z</time>
      </trkpt>
      <trkpt lat="46.39004" lon="-0.29834">
        <ele>83.1</ele>
        <time>2020-05-31T08:43:54Z</time>
      </trkpt>
      <trkpt lat="46.39" lon="-0.29845">
        <ele>82.9</ele>
        <time>2020-05-31T08:43:55Z</time>
      </trkpt>
      <trkpt lat="46.38995" lon="-0.29857">
        <ele>82.6</ele>
        <time>2020-05-31T08:43:56Z</time>
      </trkpt>
      <trkpt lat="46.38991" lon="-0.29869">
        <ele>82.4</ele>
        <time>2020-05-31T08:43:57Z</time>
      </trkpt>
      <trkpt lat="46.38987" lon="-0.29883">
        <ele>82.2</ele>
        <time>2020-05-31T08:43:58Z</time>
      </trkpt>
      <trkpt lat="46.38982" lon="-0.29896">
        <ele>82</ele>
        <time>2020-05-31T08:43:59Z</time>
      </trkpt>
      <trkpt lat="46.38979" lon="-0.29909">
        <ele>81.7</ele>
        <time>2020-05-31T08:44:00Z</time>
      </trkpt>
      <trkpt lat="46.38974" lon="-0.29921">
        <ele>81.5</ele>
        <time>2020-05-31T08:44:01Z</time>
      </trkpt>
      <trkpt lat="46.38969" lon="-0.29933">
        <ele>81.3</ele>
        <time>2020-05-31T08:44:02Z</time>
      </trkpt>
      <trkpt lat="46.38964" lon="-0.29946">
        <ele>81.1</ele>
        <time>2020-05-31T08:44:03Z</time>
      </trkpt>
      <trkpt lat="46.38959" lon="-0.29957">
        <ele>80.9</ele>
        <time>2020-05-31T08:44:04Z</time>
      </trkpt>
      <trkpt lat="46.38953" lon="-0.29968">
        <ele>80.7</ele>
        <time>2020-05-31T08:44:05Z</time>
      </trkpt>
      <trkpt lat="46.38947" lon="-0.29978">
        <ele>80.4</ele>
        <time>2020-05-31T08:44:06Z</time>
      </trkpt>
      <trkpt lat="46.38942" lon="-0.29988">
        <ele>80.3</ele>
        <time>2020-05-31T08:44:07Z</time>
      </trkpt>
      <trkpt lat="46.38936" lon="-0.29999">
        <ele>80.1</ele>
        <time>2020-05-31T08:44:08Z</time>
      </trkpt>
      <trkpt lat="46.38932" lon="-0.3001">
        <ele>79.9</ele>
        <time>2020-05-31T08:44:09Z</time>
      </trkpt>
      <trkpt lat="46.38928" lon="-0.30021">
        <ele>79.7</ele>
        <time>2020-05-31T08:44:10Z</time>
      </trkpt>
      <trkpt lat="46.38923" lon="-0.30033">
        <ele>79.5</ele>
        <time>2020-05-31T08:44:11Z</time>
      </trkpt>
      <trkpt lat="46.38919" lon="-0.30044">
        <ele>79.4</ele>
        <time>2020-05-31T08:44:12Z</time>
      </trkpt>
      <trkpt lat="46.38915" lon="-0.30055">
        <ele>79.3</ele>
        <time>2020-05-31T08:44:13Z</time>
      </trkpt>
      <trkpt lat="46.3891" lon="-0.30065">
        <ele>79.3</ele>
        <time>2020-05-31T08:44:14Z</time>
      </trkpt>
      <trkpt lat="46.38906" lon="-0.30076">
        <ele>79.2</ele>
        <time>2020-05-31T08:44:15Z</time>
      </trkpt>
      <trkpt lat="46.38902" lon="-0.30086">
        <ele>79.1</ele>
        <time>2020-05-31T08:44:16Z</time>
      </trkpt>
      <trkpt lat="46.38898" lon="-0.30097">
        <ele>78.9</ele>
        <time>2020-05-31T08:44:17Z</time>
      </trkpt>
      <trkpt lat="46.38893" lon="-0.30107">
        <ele>78.8</ele>
        <time>2020-05-31T08:44:18Z</time>
      </trkpt>
      <trkpt lat="46.38889" lon="-0.30117">
        <ele>78.7</ele>
        <time>2020-05-31T08:44:19Z</time>
      </trkpt>
      <trkpt lat="46.38884" lon="-0.30127">
        <ele>78.6</ele>
        <time>2020-05-31T08:44:20Z</time>
      </trkpt>
      <trkpt lat="46.3888" lon="-0.30137">
        <ele>78.5</ele>
        <time>2020-05-31T08:44:21Z</time>
      </trkpt>
      <trkpt lat="46.38876" lon="-0.30147">
        <ele>78.4</ele>
        <time>2020-05-31T08:44:22Z</time>
      </trkpt>
      <trkpt lat="46.38872" lon="-0.30157">
        <ele>78.4</ele>
        <time>2020-05-31T08:44:23Z</time>
      </trkpt>
      <trkpt lat="46.38869" lon="-0.30167">
        <ele>78.3</ele>
        <time>2020-05-31T08:44:24Z</time>
      </trkpt>
      <trkpt lat="46.38865" lon="-0.30176">
        <ele>78.3</ele>
        <time>2020-05-31T08:44:25Z</time>
      </trkpt>
      <trkpt lat="46.38861" lon="-0.30185">
        <ele>78.3</ele>
        <time>2020-05-31T08:44:26Z</time>
      </trkpt>
      <trkpt lat="46.38857" lon="-0.30194">
        <ele>78.2</ele>
        <time>2020-05-31T08:44:27Z</time>
      </trkpt>
      <trkpt lat="46.38854" lon="-0.30204">
        <ele>78.2</ele>
        <time>2020-05-31T08:44:28Z</time>
      </trkpt>
      <trkpt lat="46.38851" lon="-0.30214">
        <ele>78.2</ele>
        <time>2020-05-31T08:44:29Z</time>
      </trkpt>
      <trkpt lat="46.38847" lon="-0.30224">
        <ele>78.1</ele>
        <time>2020-05-31T08:44:30Z</time>
      </trkpt>
      <trkpt lat="46.38844" lon="-0.30233">
        <ele>78.1</ele>
        <time>2020-05-31T08:44:31Z</time>
      </trkpt>
      <trkpt lat="46.38841" lon="-0.30243">
        <ele>78</ele>
        <time>2020-05-31T08:44:32Z</time>
      </trkpt>
      <trkpt lat="46.38837" lon="-0.30252">
        <ele>78</ele>
        <time>2020-05-31T08:44:33Z</time>
      </trkpt>
      <trkpt lat="46.38834" lon="-0.30261">
        <ele>78</ele>
        <time>2020-05-31T08:44:34Z</time>
      </trkpt>
      <trkpt lat="46.38831" lon="-0.30269">
        <ele>77.9</ele>
        <time>2020-05-31T08:44:35Z</time>
      </trkpt>
      <trkpt lat="46.38828" lon="-0.30278">
        <ele>77.9</ele>
        <time>2020-05-31T08:44:36Z</time>
      </trkpt>
      <trkpt lat="46.38824" lon="-0.30286">
        <ele>77.9</ele>
        <time>2020-05-31T08:44:37Z</time>
      </trkpt>
      <trkpt lat="46.38821" lon="-0.30294">
        <ele>77.9</ele>
        <time>2020-05-31T08:44:38Z</time>
      </trkpt>
      <trkpt lat="46.38818" lon="-0.30302">
        <ele>77.9</ele>
        <time>2020-05-31T08:44:39Z</time>
      </trkpt>
      <trkpt lat="46.38814" lon="-0.3031">
        <ele>77.9</ele>
        <time>2020-05-31T08:44:40Z</time>
      </trkpt>
      <trkpt lat="46.38811" lon="-0.30317">
        <ele>77.9</ele>
        <time>2020-05-31T08:44:41Z</time>
      </trkpt>
      <trkpt lat="46.38808" lon="-0.30325">
        <ele>78</ele>
        <time>2020-05-31T08:44:42Z</time>
      </trkpt>
      <trkpt lat="46.38804" lon="-0.30332">
        <ele>78</ele>
        <time>2020-05-31T08:44:43Z</time>
      </trkpt>
      <trkpt lat="46.38801" lon="-0.30339">
        <ele>78</ele>
        <time>2020-05-31T08:44:44Z</time>
      </trkpt>
      <trkpt lat="46.38798" lon="-0.30346">
        <ele>78</ele>
        <time>2020-05-31T08:44:45Z</time>
      </trkpt>
      <trkpt lat="46.38796" lon="-0.30353">
        <ele>78</ele>
        <time>2020-05-31T08:44:46Z</time>
      </trkpt>
      <trkpt lat="46.38794" lon="-0.3036">
        <ele>78.1</ele>
        <time>2020-05-31T08:44:47Z</time>
      </trkpt>
      <trkpt lat="46.38792" lon="-0.30367">
        <ele>78.1</ele>
        <time>2020-05-31T08:44:48Z</time>
      </trkpt>
      <trkpt lat="46.38789" lon="-0.30374">
        <ele>78.1</ele>
        <time>2020-05-31T08:44:49Z</time>
      </trkpt>
      <trkpt lat="46.38787" lon="-0.3038">
        <ele>78.1</ele>
        <time>2020-05-31T08:44:50Z</time>
      </trkpt>
      <trkpt lat="46.38785" lon="-0.30387">
        <ele>78.1</ele>
        <time>2020-05-31T08:44:51Z</time>
      </trkpt>
      <trkpt lat="46.38784" lon="-0.30394">
        <ele>78.2</ele>
        <time>2020-05-31T08:44:52Z</time>
      </trkpt>
      <trkpt lat="46.38783" lon="-0.304">
        <ele>78.2</ele>
        <time>2020-05-31T08:44:53Z</time>
      </trkpt>
      <trkpt lat="46.3878" lon="-0.30406">
        <ele>78.2</ele>
        <time>2020-05-31T08:44:54Z</time>
      </trkpt>
      <trkpt lat="46.38778" lon="-0.30412">
        <ele>78.2</ele>
        <time>2020-05-31T08:44:55Z</time>
      </trkpt>
      <trkpt lat="46.38777" lon="-0.30419">
        <ele>78.3</ele>
        <time>2020-05-31T08:44:56Z</time>
      </trkpt>
      <trkpt lat="46.38775" lon="-0.30425">
        <ele>78.2</ele>
        <time>2020-05-31T08:44:57Z</time>
      </trkpt>
      <trkpt lat="46.38774" lon="-0.30431">
        <ele>78.2</ele>
        <time>2020-05-31T08:44:58Z</time>
      </trkpt>
      <trkpt lat="46.38773" lon="-0.30438">
        <ele>78.2</ele>
        <time>2020-05-31T08:44:59Z</time>
      </trkpt>
      <trkpt lat="46.38772" lon="-0.30444">
        <ele>78.2</ele>
        <time>2020-05-31T08:45:00Z</time>
      </trkpt>
      <trkpt lat="46.3877" lon="-0.3045">
        <ele>78.1</ele>
        <time>2020-05-31T08:45:01Z</time>
      </trkpt>
      <trkpt lat="46.38769" lon="-0.30456">
        <ele>78.1</ele>
        <time>2020-05-31T08:45:02Z</time>
      </trkpt>
      <trkpt lat="46.38768" lon="-0.30462">
        <ele>78.1</ele>
        <time>2020-05-31T08:45:03Z</time>
      </trkpt>
      <trkpt lat="46.38768" lon="-0.30469">
        <ele>78</ele>
        <time>2020-05-31T08:45:04Z</time>
      </trkpt>
      <trkpt lat="46.38766" lon="-0.30475">
        <ele>78</ele>
        <time>2020-05-31T08:45:05Z</time>
      </trkpt>
      <trkpt lat="46.38765" lon="-0.30481">
        <ele>78</ele>
        <time>2020-05-31T08:45:06Z</time>
      </trkpt>
      <trkpt lat="46.38763" lon="-0.30487">
        <ele>77.9</ele>
        <time>2020-05-31T08:45:07Z</time>
      </trkpt>
      <trkpt lat="46.38761" lon="-0.30494">
        <ele>77.9</ele>
        <time>2020-05-31T08:45:08Z</time>
      </trkpt>
      <trkpt lat="46.3876" lon="-0.305">
        <ele>77.8</ele>
        <time>2020-05-31T08:45:09Z</time>
      </trkpt>
      <trkpt lat="46.38759" lon="-0.30507">
        <ele>77.7</ele>
        <time>2020-05-31T08:45:10Z</time>
      </trkpt>
      <trkpt lat="46.38757" lon="-0.30513">
        <ele>77.7</ele>
        <time>2020-05-31T08:45:11Z</time>
      </trkpt>
      <trkpt lat="46.38755" lon="-0.30519">
        <ele>77.6</ele>
        <time>2020-05-31T08:45:12Z</time>
      </trkpt>
      <trkpt lat="46.38754" lon="-0.30526">
        <ele>77.5</ele>
        <time>2020-05-31T08:45:13Z</time>
      </trkpt>
      <trkpt lat="46.38753" lon="-0.30533">
        <ele>77.4</ele>
        <time>2020-05-31T08:45:14Z</time>
      </trkpt>
      <trkpt lat="46.38751" lon="-0.3054">
        <ele>77.4</ele>
        <time>2020-05-31T08:45:15Z</time>
      </trkpt>
      <trkpt lat="46.3875" lon="-0.30546">
        <ele>77.3</ele>
        <time>2020-05-31T08:45:16Z</time>
      </trkpt>
      <trkpt lat="46.38748" lon="-0.30552">
        <ele>77.3</ele>
        <time>2020-05-31T08:45:17Z</time>
      </trkpt>
      <trkpt lat="46.38746" lon="-0.30558">
        <ele>77.2</ele>
        <time>2020-05-31T08:45:18Z</time>
      </trkpt>
      <trkpt lat="46.38743" lon="-0.30564">
        <ele>77.1</ele>
        <time>2020-05-31T08:45:19Z</time>
      </trkpt>
      <trkpt lat="46.38742" lon="-0.30571">
        <ele>77.1</ele>
        <time>2020-05-31T08:45:20Z</time>
      </trkpt>
      <trkpt lat="46.38741" lon="-0.30578">
        <ele>76.9</ele>
        <time>2020-05-31T08:45:21Z</time>
      </trkpt>
      <trkpt lat="46.3874" lon="-0.30585">
        <ele>76.8</ele>
        <time>2020-05-31T08:45:22Z</time>
      </trkpt>
      <trkpt lat="46.38739" lon="-0.30592">
        <ele>76.7</ele>
        <time>2020-05-31T08:45:23Z</time>
      </trkpt>
      <trkpt lat="46.38738" lon="-0.30597">
        <ele>76.6</ele>
        <time>2020-05-31T08:45:24Z</time>
      </trkpt>
      <trkpt lat="46.38737" lon="-0.30602">
        <ele>76.6</ele>
        <time>2020-05-31T08:45:25Z</time>
      </trkpt>
      <trkpt lat="46.38737" lon="-0.30608">
        <ele>76.5</ele>
        <time>2020-05-31T08:45:26Z</time>
      </trkpt>
      <trkpt lat="46.38736" lon="-0.30613">
        <ele>76.4</ele>
        <time>2020-05-31T08:45:27Z</time>
      </trkpt>
      <trkpt lat="46.38735" lon="-0.30617">
        <ele>76.3</ele>
        <time>2020-05-31T08:45:28Z</time>
      </trkpt>
      <trkpt lat="46.38735" lon="-0.30621">
        <ele>76.3</ele>
        <time>2020-05-31T08:45:29Z</time>
      </trkpt>
      <trkpt lat="46.38733" lon="-0.30626">
        <ele>76.3</ele>
        <time>2020-05-31T08:45:30Z</time>
      </trkpt>
      <trkpt lat="46.38733" lon="-0.30627">
        <ele>76.3</ele>
        <time>2020-05-31T08:45:31Z</time>
      </trkpt>
      <trkpt lat="46.38731" lon="-0.30629">
        <ele>76.2</ele>
        <time>2020-05-31T08:45:32Z</time>
      </trkpt>
      <trkpt lat="46.3873" lon="-0.3063">
        <ele>76.2</ele>
        <time>2020-05-31T08:45:33Z</time>
      </trkpt>
      <trkpt lat="46.3873" lon="-0.3063">
        <ele>76.2</ele>
        <time>2020-05-31T08:45:34Z</time>
      </trkpt>
      <trkpt lat="46.3873" lon="-0.3063">
        <ele>76.2</ele>
        <time>2020-05-31T08:45:35Z</time>
      </trkpt>
      <trkpt lat="46.3873" lon="-0.30631">
        <ele>76.2</ele>
        <time>2020-05-31T08:45:36Z</time>
      </trkpt>
      <trkpt lat="46.3873" lon="-0.30631">
        <ele>76.2</ele>
        <time>2020-05-31T08:45:37Z</time>
      </trkpt>
      <trkpt lat="46.3873" lon="-0.30631">
        <ele>76.2</ele>
        <time>2020-05-31T08:45:38Z</time>
      </trkpt>
      <trkpt lat="46.38731" lon="-0.30631">
        <ele>76.2</ele>
        <time>2020-05-31T08:45:39Z</time>
      </trkpt>
      <trkpt lat="46.3873" lon="-0.30631">
        <ele>76.2</ele>
        <time>2020-05-31T08:45:40Z</time>
      </trkpt>
      <trkpt lat="46.3873" lon="-0.3063">
        <ele>76.2</ele>
        <time>2020-05-31T08:45:41Z</time>
      </trkpt>
      <trkpt lat="46.3873" lon="-0.3063">
        <ele>76.2</ele>
        <time>2020-05-31T08:45:42Z</time>
      </trkpt>
      <trkpt lat="46.38729" lon="-0.30629">
        <ele>76.2</ele>
        <time>2020-05-31T08:45:43Z</time>
      </trkpt>
      <trkpt lat="46.3873" lon="-0.30629">
        <ele>76.2</ele>
        <time>2020-05-31T08:45:44Z</time>
      </trkpt>
      <trkpt lat="46.3873" lon="-0.30629">
        <ele>76.2</ele>
        <time>2020-05-31T08:45:45Z</time>
      </trkpt>
      <trkpt lat="46.3873" lon="-0.30629">
        <ele>76.2</ele>
        <time>2020-05-31T08:45:46Z</time>
      </trkpt>
      <trkpt lat="46.38731" lon="-0.3063">
        <ele>76.2</ele>
        <time>2020-05-31T08:45:47Z</time>
      </trkpt>
      <trkpt lat="46.3873" lon="-0.3063">
        <ele>76.2</ele>
        <time>2020-05-31T08:45:48Z</time>
      </trkpt>
      <trkpt lat="46.3873" lon="-0.3063">
        <ele>76.2</ele>
        <time>2020-05-31T08:45:49Z</time>
      </trkpt>
      <trkpt lat="46.3873" lon="-0.3063">
        <ele>76.2</ele>
        <time>2020-05-31T08:45:50Z</time>
      </trkpt>
      <trkpt lat="46.3873" lon="-0.30631">
        <ele>76.2</ele>
        <time>2020-05-31T08:45:51Z</time>
      </trkpt>
      <trkpt lat="46.38731" lon="-0.30631">
        <ele>76.2</ele>
        <time>2020-05-31T08:45:52Z</time>
      </trkpt>
      <trkpt lat="46.38731" lon="-0.30631">
        <ele>76.2</ele>
        <time>2020-05-31T08:45:53Z</time>
      </trkpt>
      <trkpt lat="46.38731" lon="-0.30632">
        <ele>76.2</ele>
        <time>2020-05-31T08:45:54Z</time>
      </trkpt>
      <trkpt lat="46.38731" lon="-0.30632">
        <ele>76.2</ele>
        <time>2020-05-31T08:45:55Z</time>
      </trkpt>
      <trkpt lat="46.3873" lon="-0.30632">
        <ele>76.2</ele>
        <time>2020-05-31T08:45:56Z</time>
      </trkpt>
      <trkpt lat="46.3873" lon="-0.30632">
        <ele>76.2</ele>
        <time>2020-05-31T08:45:57Z</time>
      </trkpt>
      <trkpt lat="46.3873" lon="-0.30632">
        <ele>76.2</ele>
        <time>2020-05-31T08:45:58Z</time>
      </trkpt>
      <trkpt lat="46.3873" lon="-0.30632">
        <ele>76.2</ele>
        <time>2020-05-31T08:45:59Z</time>
      </trkpt>
      <trkpt lat="46.3873" lon="-0.30631">
        <ele>76.2</ele>
        <time>2020-05-31T08:46:00Z</time>
      </trkpt>
      <trkpt lat="46.3873" lon="-0.30631">
        <ele>76.2</ele>
        <time>2020-05-31T08:46:01Z</time>
      </trkpt>
      <trkpt lat="46.3873" lon="-0.30632">
        <ele>76.2</ele>
        <time>2020-05-31T08:46:02Z</time>
      </trkpt>
      <trkpt lat="46.3873" lon="-0.30633">
        <ele>76.2</ele>
        <time>2020-05-31T08:46:03Z</time>
      </trkpt>
      <trkpt lat="46.38729" lon="-0.30632">
        <ele>76.2</ele>
        <time>2020-05-31T08:46:04Z</time>
      </trkpt>
      <trkpt lat="46.38728" lon="-0.30632">
        <ele>76.2</ele>
        <time>2020-05-31T08:46:05Z</time>
      </trkpt>
      <trkpt lat="46.38727" lon="-0.30632">
        <ele>76.2</ele>
        <time>2020-05-31T08:46:06Z</time>
      </trkpt>
      <trkpt lat="46.38728" lon="-0.30632">
        <ele>76.2</ele>
        <time>2020-05-31T08:46:07Z</time>
      </trkpt>
      <trkpt lat="46.38729" lon="-0.30632">
        <ele>76.2</ele>
        <time>2020-05-31T08:46:08Z</time>
      </trkpt>
      <trkpt lat="46.38728" lon="-0.30632">
        <ele>76.2</ele>
        <time>2020-05-31T08:46:09Z</time>
      </trkpt>
      <trkpt lat="46.38729" lon="-0.30632">
        <ele>76.2</ele>
        <time>2020-05-31T08:46:10Z</time>
      </trkpt>
      <trkpt lat="46.3873" lon="-0.30632">
        <ele>76.2</ele>
        <time>2020-05-31T08:46:11Z</time>
      </trkpt>
      <trkpt lat="46.38729" lon="-0.30632">
        <ele>76.2</ele>
        <time>2020-05-31T08:46:12Z</time>
      </trkpt>
      <trkpt lat="46.38729" lon="-0.30632">
        <ele>76.2</ele>
        <time>2020-05-31T08:46:13Z</time>
      </trkpt>
      <trkpt lat="46.38729" lon="-0.30632">
        <ele>76.2</ele>
        <time>2020-05-31T08:46:14Z</time>
      </trkpt>
      <trkpt lat="46.38729" lon="-0.30632">
        <ele>76.2</ele>
        <time>2020-05-31T08:46:15Z</time>
      </trkpt>
      <trkpt lat="46.38728" lon="-0.30632">
        <ele>76.2</ele>
        <time>2020-05-31T08:46:16Z</time>
      </trkpt>
      <trkpt lat="46.38728" lon="-0.30632">
        <ele>76.2</ele>
        <time>2020-05-31T08:46:17Z</time>
      </trkpt>
      <trkpt lat="46.38729" lon="-0.30632">
        <ele>76.2</ele>
        <time>2020-05-31T08:46:18Z</time>
      </trkpt>
      <trkpt lat="46.38729" lon="-0.30632">
        <ele>76.2</ele>
        <time>2020-05-31T08:46:19Z</time>
      </trkpt>
      <trkpt lat="46.38728" lon="-0.30633">
        <ele>76.2</ele>
        <time>2020-05-31T08:46:20Z</time>
      </trkpt>
      <trkpt lat="46.38728" lon="-0.30633">
        <ele>76.2</ele>
        <time>2020-05-31T08:46:21Z</time>
      </trkpt>
      <trkpt lat="46.38728" lon="-0.30633">
        <ele>76.2</ele>
        <time>2020-05-31T08:46:22Z</time>
      </trkpt>
      <trkpt lat="46.38728" lon="-0.30633">
        <ele>76.2</ele>
        <time>2020-05-31T08:46:23Z</time>
      </trkpt>
      <trkpt lat="46.38728" lon="-0.30633">
        <ele>76.2</ele>
        <time>2020-05-31T08:46:24Z</time>
      </trkpt>
      <trkpt lat="46.38728" lon="-0.30633">
        <ele>76.2</ele>
        <time>2020-05-31T08:46:25Z</time>
      </trkpt>
      <trkpt lat="46.38728" lon="-0.30633">
        <ele>76.2</ele>
        <time>2020-05-31T08:46:26Z</time>
      </trkpt>
      <trkpt lat="46.38728" lon="-0.30633">
        <ele>76.2</ele>
        <time>2020-05-31T08:46:27Z</time>
      </trkpt>
      <trkpt lat="46.38728" lon="-0.30633">
        <ele>76.2</ele>
        <time>2020-05-31T08:46:28Z</time>
      </trkpt>
      <trkpt lat="46.38728" lon="-0.30633">
        <ele>76.2</ele>
        <time>2020-05-31T08:46:29Z</time>
      </trkpt>
      <trkpt lat="46.38728" lon="-0.30633">
        <ele>76.2</ele>
        <time>2020-05-31T08:46:30Z</time>
      </trkpt>
      <trkpt lat="46.38728" lon="-0.30633">
        <ele>76.2</ele>
        <time>2020-05-31T08:46:31Z</time>
      </trkpt>
      <trkpt lat="46.38728" lon="-0.30633">
        <ele>76.2</ele>
        <time>2020-05-31T08:46:32Z</time>
      </trkpt>
      <trkpt lat="46.38727" lon="-0.30633">
        <ele>76.2</ele>
        <time>2020-05-31T08:46:33Z</time>
      </trkpt>
      <trkpt lat="46.38727" lon="-0.30634">
        <ele>76.2</ele>
        <time>2020-05-31T08:46:34Z</time>
      </trkpt>
      <trkpt lat="46.38726" lon="-0.30634">
        <ele>76.2</ele>
        <time>2020-05-31T08:46:35Z</time>
      </trkpt>
      <trkpt lat="46.38727" lon="-0.30634">
        <ele>76.2</ele>
        <time>2020-05-31T08:46:36Z</time>
      </trkpt>
      <trkpt lat="46.38726" lon="-0.30634">
        <ele>76.2</ele>
        <time>2020-05-31T08:46:37Z</time>
      </trkpt>
      <trkpt lat="46.38727" lon="-0.30633">
        <ele>76.2</ele>
        <time>2020-05-31T08:46:38Z</time>
      </trkpt>
      <trkpt lat="46.38727" lon="-0.30634">
        <ele>76.2</ele>
        <time>2020-05-31T08:46:39Z</time>
      </trkpt>
      <trkpt lat="46.38727" lon="-0.30634">
        <ele>76.2</ele>
        <time>2020-05-31T08:46:40Z</time>
      </trkpt>
      <trkpt lat="46.38727" lon="-0.30635">
        <ele>76.2</ele>
        <time>2020-05-31T08:46:41Z</time>
      </trkpt>
      <trkpt lat="46.38727" lon="-0.30636">
        <ele>76.2</ele>
        <time>2020-05-31T08:46:42Z</time>
      </trkpt>
      <trkpt lat="46.38726" lon="-0.30637">
        <ele>76.2</ele>
        <time>2020-05-31T08:46:43Z</time>
      </trkpt>
      <trkpt lat="46.38727" lon="-0.30637">
        <ele>76.2</ele>
        <time>2020-05-31T08:46:44Z</time>
      </trkpt>
      <trkpt lat="46.38727" lon="-0.30637">
        <ele>76.2</ele>
        <time>2020-05-31T08:46:45Z</time>
      </trkpt>
      <trkpt lat="46.38727" lon="-0.30637">
        <ele>76.2</ele>
        <time>2020-05-31T08:46:46Z</time>
      </trkpt>
      <trkpt lat="46.38727" lon="-0.30637">
        <ele>76.2</ele>
        <time>2020-05-31T08:46:47Z</time>
      </trkpt>
      <trkpt lat="46.38728" lon="-0.30637">
        <ele>76.2</ele>
        <time>2020-05-31T08:46:48Z</time>
      </trkpt>
      <trkpt lat="46.38728" lon="-0.30637">
        <ele>76.2</ele>
        <time>2020-05-31T08:46:49Z</time>
      </trkpt>
      <trkpt lat="46.38728" lon="-0.30638">
        <ele>76.2</ele>
        <time>2020-05-31T08:46:50Z</time>
      </trkpt>
      <trkpt lat="46.38728" lon="-0.30637">
        <ele>76.2</ele>
        <time>2020-05-31T08:46:51Z</time>
      </trkpt>
      <trkpt lat="46.38729" lon="-0.30637">
        <ele>76.2</ele>
        <time>2020-05-31T08:46:52Z</time>
      </trkpt>
      <trkpt lat="46.38729" lon="-0.30638">
        <ele>76.2</ele>
        <time>2020-05-31T08:46:53Z</time>
      </trkpt>
      <trkpt lat="46.38728" lon="-0.30638">
        <ele>76.2</ele>
        <time>2020-05-31T08:46:54Z</time>
      </trkpt>
      <trkpt lat="46.38728" lon="-0.30638">
        <ele>76.2</ele>
        <time>2020-05-31T08:46:55Z</time>
      </trkpt>
      <trkpt lat="46.38728" lon="-0.30638">
        <ele>76.2</ele>
        <time>2020-05-31T08:46:56Z</time>
      </trkpt>
      <trkpt lat="46.38729" lon="-0.30638">
        <ele>76.2</ele>
        <time>2020-05-31T08:46:57Z</time>
      </trkpt>
      <trkpt lat="46.38729" lon="-0.30638">
        <ele>76.2</ele>
        <time>2020-05-31T08:46:58Z</time>
      </trkpt>
      <trkpt lat="46.38729" lon="-0.30638">
        <ele>76.2</ele>
        <time>2020-05-31T08:46:59Z</time>
      </trkpt>
      <trkpt lat="46.38728" lon="-0.30638">
        <ele>76.2</ele>
        <time>2020-05-31T08:47:00Z</time>
      </trkpt>
      <trkpt lat="46.38728" lon="-0.30639">
        <ele>76.2</ele>
        <time>2020-05-31T08:47:01Z</time>
      </trkpt>
      <trkpt lat="46.38727" lon="-0.30639">
        <ele>76.2</ele>
        <time>2020-05-31T08:47:02Z</time>
      </trkpt>
      <trkpt lat="46.38727" lon="-0.30639">
        <ele>76.2</ele>
        <time>2020-05-31T08:47:03Z</time>
      </trkpt>
      <trkpt lat="46.38727" lon="-0.30639">
        <ele>76.2</ele>
        <time>2020-05-31T08:47:04Z</time>
      </trkpt>
      <trkpt lat="46.38727" lon="-0.30638">
        <ele>76.2</ele>
        <time>2020-05-31T08:47:05Z</time>
      </trkpt>
      <trkpt lat="46.38728" lon="-0.30638">
        <ele>76.2</ele>
        <time>2020-05-31T08:47:06Z</time>
      </trkpt>
      <trkpt lat="46.38728" lon="-0.30638">
        <ele>76.2</ele>
        <time>2020-05-31T08:47:07Z</time>
      </trkpt>
      <trkpt lat="46.38727" lon="-0.30638">
        <ele>76.2</ele>
        <time>2020-05-31T08:47:08Z</time>
      </trkpt>
      <trkpt lat="46.38727" lon="-0.30638">
        <ele>76.2</ele>
        <time>2020-05-31T08:47:09Z</time>
      </trkpt>
      <trkpt lat="46.38726" lon="-0.30637">
        <ele>76.2</ele>
        <time>2020-05-31T08:47:10Z</time>
      </trkpt>
      <trkpt lat="46.38727" lon="-0.30638">
        <ele>76.2</ele>
        <time>2020-05-31T08:47:11Z</time>
      </trkpt>
      <trkpt lat="46.38728" lon="-0.30638">
        <ele>76.2</ele>
        <time>2020-05-31T08:47:12Z</time>
      </trkpt>
      <trkpt lat="46.38728" lon="-0.30638">
        <ele>76.2</ele>
        <time>2020-05-31T08:47:13Z</time>
      </trkpt>
      <trkpt lat="46.38728" lon="-0.30638">
        <ele>76.2</ele>
        <time>2020-05-31T08:47:14Z</time>
      </trkpt>
      <trkpt lat="46.38728" lon="-0.30638">
        <ele>76.2</ele>
        <time>2020-05-31T08:47:15Z</time>
      </trkpt>
      <trkpt lat="46.38728" lon="-0.30638">
        <ele>76.2</ele>
        <time>2020-05-31T08:47:16Z</time>
      </trkpt>
      <trkpt lat="46.38728" lon="-0.30638">
        <ele>76.2</ele>
        <time>2020-05-31T08:47:17Z</time>
      </trkpt>
      <trkpt lat="46.38728" lon="-0.30638">
        <ele>76.2</ele>
        <time>2020-05-31T08:47:18Z</time>
      </trkpt>
      <trkpt lat="46.38728" lon="-0.30638">
        <ele>76.2</ele>
        <time>2020-05-31T08:47:19Z</time>
      </trkpt>
      <trkpt lat="46.38728" lon="-0.30638">
        <ele>76.2</ele>
        <time>2020-05-31T08:47:20Z</time>
      </trkpt>
      <trkpt lat="46.38728" lon="-0.30638">
        <ele>76.2</ele>
        <time>2020-05-31T08:47:21Z</time>
      </trkpt>
      <trkpt lat="46.38728" lon="-0.30637">
        <ele>76.2</ele>
        <time>2020-05-31T08:47:22Z</time>
      </trkpt>
      <trkpt lat="46.38728" lon="-0.30637">
        <ele>76.2</ele>
        <time>2020-05-31T08:47:23Z</time>
      </trkpt>
      <trkpt lat="46.38728" lon="-0.30637">
        <ele>76.2</ele>
        <time>2020-05-31T08:47:24Z</time>
      </trkpt>
      <trkpt lat="46.38728" lon="-0.30637">
        <ele>76.2</ele>
        <time>2020-05-31T08:47:25Z</time>
      </trkpt>
      <trkpt lat="46.38728" lon="-0.30637">
        <ele>76.2</ele>
        <time>2020-05-31T08:47:26Z</time>
      </trkpt>
      <trkpt lat="46.38728" lon="-0.30637">
        <ele>76.2</ele>
        <time>2020-05-31T08:47:27Z</time>
      </trkpt>
      <trkpt lat="46.38727" lon="-0.30637">
        <ele>76.2</ele>
        <time>2020-05-31T08:47:28Z</time>
      </trkpt>
      <trkpt lat="46.38727" lon="-0.30637">
        <ele>76.2</ele>
        <time>2020-05-31T08:47:29Z</time>
      </trkpt>
      <trkpt lat="46.38727" lon="-0.30637">
        <ele>76.2</ele>
        <time>2020-05-31T08:47:30Z</time>
      </trkpt>
      <trkpt lat="46.38727" lon="-0.30637">
        <ele>76.2</ele>
        <time>2020-05-31T08:47:31Z</time>
      </trkpt>
      <trkpt lat="46.38727" lon="-0.30637">
        <ele>76.2</ele>
        <time>2020-05-31T08:47:32Z</time>
      </trkpt>
      <trkpt lat="46.38727" lon="-0.30637">
        <ele>76.2</ele>
        <time>2020-05-31T08:47:33Z</time>
      </trkpt>
      <trkpt lat="46.38727" lon="-0.30637">
        <ele>76.2</ele>
        <time>2020-05-31T08:47:34Z</time>
      </trkpt>
      <trkpt lat="46.38727" lon="-0.30637">
        <ele>76.2</ele>
        <time>2020-05-31T08:47:35Z</time>
      </trkpt>
      <trkpt lat="46.38727" lon="-0.30637">
        <ele>76.2</ele>
        <time>2020-05-31T08:47:36Z</time>
      </trkpt>
      <trkpt lat="46.38727" lon="-0.30637">
        <ele>76.2</ele>
        <time>2020-05-31T08:47:37Z</time>
      </trkpt>
      <trkpt lat="46.38727" lon="-0.30637">
        <ele>76.2</ele>
        <time>2020-05-31T08:47:38Z</time>
      </trkpt>
      <trkpt lat="46.38727" lon="-0.30637">
        <ele>76.2</ele>
        <time>2020-05-31T08:47:39Z</time>
      </trkpt>
      <trkpt lat="46.38727" lon="-0.30637">
        <ele>76.2</ele>
        <time>2020-05-31T08:47:40Z</time>
      </trkpt>
      <trkpt lat="46.38727" lon="-0.30637">
        <ele>76.2</ele>
        <time>2020-05-31T08:47:41Z</time>
      </trkpt>
      <trkpt lat="46.38727" lon="-0.30637">
        <ele>76.2</ele>
        <time>2020-05-31T08:47:42Z</time>
      </trkpt>
      <trkpt lat="46.38727" lon="-0.30637">
        <ele>76.2</ele>
        <time>2020-05-31T08:47:43Z</time>
      </trkpt>
      <trkpt lat="46.38727" lon="-0.30636">
        <ele>76.2</ele>
        <time>2020-05-31T08:47:44Z</time>
      </trkpt>
      <trkpt lat="46.38727" lon="-0.30636">
        <ele>76.2</ele>
        <time>2020-05-31T08:47:45Z</time>
      </trkpt>
      <trkpt lat="46.38727" lon="-0.30636">
        <ele>76.2</ele>
        <time>2020-05-31T08:47:46Z</time>
      </trkpt>
      <trkpt lat="46.38727" lon="-0.30636">
        <ele>76.2</ele>
        <time>2020-05-31T08:47:47Z</time>
      </trkpt>
      <trkpt lat="46.38727" lon="-0.30636">
        <ele>76.2</ele>
        <time>2020-05-31T08:47:48Z</time>
      </trkpt>
      <trkpt lat="46.38727" lon="-0.30636">
        <ele>76.2</ele>
        <time>2020-05-31T08:47:49Z</time>
      </trkpt>
      <trkpt lat="46.38727" lon="-0.30636">
        <ele>76.2</ele>
        <time>2020-05-31T08:47:50Z</time>
      </trkpt>
      <trkpt lat="46.38727" lon="-0.30636">
        <ele>76.2</ele>
        <time>2020-05-31T08:47:51Z</time>
      </trkpt>
      <trkpt lat="46.38727" lon="-0.30636">
        <ele>76.2</ele>
        <time>2020-05-31T08:47:52Z</time>
      </trkpt>
      <trkpt lat="46.38727" lon="-0.30636">
        <ele>76.2</ele>
        <time>2020-05-31T08:47:53Z</time>
      </trkpt>
      <trkpt lat="46.38727" lon="-0.30636">
        <ele>76.2</ele>
        <time>2020-05-31T08:47:54Z</time>
      </trkpt>
      <trkpt lat="46.38727" lon="-0.30636">
        <ele>76.2</ele>
        <time>2020-05-31T08:47:55Z</time>
      </trkpt>
      <trkpt lat="46.38727" lon="-0.30636">
        <ele>76.2</ele>
        <time>2020-05-31T08:47:56Z</time>
      </trkpt>
      <trkpt lat="46.38727" lon="-0.30636">
        <ele>76.2</ele>
        <time>2020-05-31T08:47:57Z</time>
      </trkpt>
      <trkpt lat="46.38727" lon="-0.30636">
        <ele>76.2</ele>
        <time>2020-05-31T08:47:58Z</time>
      </trkpt>
      <trkpt lat="46.38727" lon="-0.30636">
        <ele>76.2</ele>
        <time>2020-05-31T08:47:59Z</time>
      </trkpt>
      <trkpt lat="46.38727" lon="-0.30636">
        <ele>76.2</ele>
        <time>2020-05-31T08:48:00Z</time>
      </trkpt>
      <trkpt lat="46.38727" lon="-0.30636">
        <ele>76.2</ele>
        <time>2020-05-31T08:48:01Z</time>
      </trkpt>
      <trkpt lat="46.38727" lon="-0.30636">
        <ele>76.2</ele>
        <time>2020-05-31T08:48:02Z</time>
      </trkpt>
      <trkpt lat="46.38727" lon="-0.30637">
        <ele>76.2</ele>
        <time>2020-05-31T08:48:03Z</time>
      </trkpt>
      <trkpt lat="46.38727" lon="-0.30637">
        <ele>76.2</ele>
        <time>2020-05-31T08:48:04Z</time>
      </trkpt>
      <trkpt lat="46.38727" lon="-0.30637">
        <ele>76.2</ele>
        <time>2020-05-31T08:48:05Z</time>
      </trkpt>
      <trkpt lat="46.38727" lon="-0.30637">
        <ele>76.2</ele>
        <time>2020-05-31T08:48:06Z</time>
      </trkpt>
      <trkpt lat="46.38727" lon="-0.30637">
        <ele>76.2</ele>
        <time>2020-05-31T08:48:07Z</time>
      </trkpt>
      <trkpt lat="46.38727" lon="-0.30637">
        <ele>76.2</ele>
        <time>2020-05-31T08:48:08Z</time>
      </trkpt>
      <trkpt lat="46.38727" lon="-0.30637">
        <ele>76.2</ele>
        <time>2020-05-31T08:48:09Z</time>
      </trkpt>
      <trkpt lat="46.38727" lon="-0.30637">
        <ele>76.2</ele>
        <time>2020-05-31T08:48:10Z</time>
      </trkpt>
      <trkpt lat="46.38727" lon="-0.30637">
        <ele>76.2</ele>
        <time>2020-05-31T08:48:11Z</time>
      </trkpt>
      <trkpt lat="46.38727" lon="-0.30637">
        <ele>76.2</ele>
        <time>2020-05-31T08:48:12Z</time>
      </trkpt>
      <trkpt lat="46.38727" lon="-0.30637">
        <ele>76.2</ele>
        <time>2020-05-31T08:48:13Z</time>
      </trkpt>
      <trkpt lat="46.38727" lon="-0.30637">
        <ele>76.2</ele>
        <time>2020-05-31T08:48:14Z</time>
      </trkpt>
      <trkpt lat="46.38727" lon="-0.30637">
        <ele>76.2</ele>
        <time>2020-05-31T08:48:15Z</time>
      </trkpt>
      <trkpt lat="46.38727" lon="-0.30637">
        <ele>76.2</ele>
        <time>2020-05-31T08:48:16Z</time>
      </trkpt>
      <trkpt lat="46.38728" lon="-0.30637">
        <ele>76.2</ele>
        <time>2020-05-31T08:48:17Z</time>
      </trkpt>
      <trkpt lat="46.38728" lon="-0.30637">
        <ele>76.2</ele>
        <time>2020-05-31T08:48:18Z</time>
      </trkpt>
      <trkpt lat="46.38728" lon="-0.30637">
        <ele>76.2</ele>
        <time>2020-05-31T08:48:19Z</time>
      </trkpt>
      <trkpt lat="46.38728" lon="-0.30637">
        <ele>76.2</ele>
        <time>2020-05-31T08:48:20Z</time>
      </trkpt>
      <trkpt lat="46.38728" lon="-0.30637">
        <ele>76.2</ele>
        <time>2020-05-31T08:48:21Z</time>
      </trkpt>
      <trkpt lat="46.38728" lon="-0.30637">
        <ele>76.2</ele>
        <time>2020-05-31T08:48:22Z</time>
      </trkpt>
      <trkpt lat="46.38728" lon="-0.30638">
        <ele>76.2</ele>
        <time>2020-05-31T08:48:23Z</time>
      </trkpt>
      <trkpt lat="46.38728" lon="-0.30638">
        <ele>76.2</ele>
        <time>2020-05-31T08:48:24Z</time>
      </trkpt>
      <trkpt lat="46.38728" lon="-0.30637">
        <ele>76.2</ele>
        <time>2020-05-31T08:48:25Z</time>
      </trkpt>
      <trkpt lat="46.38727" lon="-0.30637">
        <ele>76.2</ele>
        <time>2020-05-31T08:48:26Z</time>
      </trkpt>
      <trkpt lat="46.38727" lon="-0.30637">
        <ele>76.2</ele>
        <time>2020-05-31T08:48:27Z</time>
      </trkpt>
      <trkpt lat="46.38727" lon="-0.30637">
        <ele>76.2</ele>
        <time>2020-05-31T08:48:28Z</time>
      </trkpt>
      <trkpt lat="46.38727" lon="-0.30637">
        <ele>76.2</ele>
        <time>2020-05-31T08:48:29Z</time>
      </trkpt>
      <trkpt lat="46.38727" lon="-0.30637">
        <ele>76.2</ele>
        <time>2020-05-31T08:48:30Z</time>
      </trkpt>
      <trkpt lat="46.38727" lon="-0.30637">
        <ele>76.2</ele>
        <time>2020-05-31T08:48:31Z</time>
      </trkpt>
      <trkpt lat="46.38727" lon="-0.30637">
        <ele>76.2</ele>
        <time>2020-05-31T08:48:32Z</time>
      </trkpt>
      <trkpt lat="46.38727" lon="-0.30637">
        <ele>76.2</ele>
        <time>2020-05-31T08:48:33Z</time>
      </trkpt>
      <trkpt lat="46.38727" lon="-0.30637">
        <ele>76.2</ele>
        <time>2020-05-31T08:48:34Z</time>
      </trkpt>
      <trkpt lat="46.38727" lon="-0.30637">
        <ele>76.2</ele>
        <time>2020-05-31T08:48:35Z</time>
      </trkpt>
      <trkpt lat="46.38727" lon="-0.30637">
        <ele>76.2</ele>
        <time>2020-05-31T08:48:36Z</time>
      </trkpt>
      <trkpt lat="46.38727" lon="-0.30637">
        <ele>76.2</ele>
        <time>2020-05-31T08:48:37Z</time>
      </trkpt>
      <trkpt lat="46.38727" lon="-0.30638">
        <ele>76.2</ele>
        <time>2020-05-31T08:48:38Z</time>
      </trkpt>
      <trkpt lat="46.38727" lon="-0.30637">
        <ele>76.2</ele>
        <time>2020-05-31T08:48:39Z</time>
      </trkpt>
      <trkpt lat="46.38727" lon="-0.30638">
        <ele>76.2</ele>
        <time>2020-05-31T08:48:40Z</time>
      </trkpt>
      <trkpt lat="46.38727" lon="-0.30638">
        <ele>76.2</ele>
        <time>2020-05-31T08:48:41Z</time>
      </trkpt>
      <trkpt lat="46.38728" lon="-0.30638">
        <ele>76.2</ele>
        <time>2020-05-31T08:48:42Z</time>
      </trkpt>
      <trkpt lat="46.38728" lon="-0.30639">
        <ele>76.2</ele>
        <time>2020-05-31T08:48:43Z</time>
      </trkpt>
      <trkpt lat="46.38729" lon="-0.3064">
        <ele>76.2</ele>
        <time>2020-05-31T08:48:44Z</time>
      </trkpt>
      <trkpt lat="46.3873" lon="-0.30645">
        <ele>76.2</ele>
        <time>2020-05-31T08:48:45Z</time>
      </trkpt>
      <trkpt lat="46.3873" lon="-0.30646">
        <ele>76.2</ele>
        <time>2020-05-31T08:48:46Z</time>
      </trkpt>
      <trkpt lat="46.38731" lon="-0.30652">
        <ele>76.2</ele>
        <time>2020-05-31T08:48:47Z</time>
      </trkpt>
      <trkpt lat="46.38731" lon="-0.30658">
        <ele>76.2</ele>
        <time>2020-05-31T08:48:48Z</time>
      </trkpt>
      <trkpt lat="46.38731" lon="-0.30663">
        <ele>76.2</ele>
        <time>2020-05-31T08:48:49Z</time>
      </trkpt>
      <trkpt lat="46.38731" lon="-0.30668">
        <ele>76.2</ele>
        <time>2020-05-31T08:48:50Z</time>
      </trkpt>
      <trkpt lat="46.38733" lon="-0.30672">
        <ele>76.2</ele>
        <time>2020-05-31T08:48:51Z</time>
      </trkpt>
      <trkpt lat="46.38733" lon="-0.30674">
        <ele>76.2</ele>
        <time>2020-05-31T08:48:52Z</time>
      </trkpt>
      <trkpt lat="46.38735" lon="-0.30678">
        <ele>76.2</ele>
        <time>2020-05-31T08:48:53Z</time>
      </trkpt>
      <trkpt lat="46.38735" lon="-0.30684">
        <ele>76.3</ele>
        <time>2020-05-31T08:48:54Z</time>
      </trkpt>
      <trkpt lat="46.38735" lon="-0.30688">
        <ele>76.3</ele>
        <time>2020-05-31T08:48:55Z</time>
      </trkpt>
      <trkpt lat="46.38735" lon="-0.30693">
        <ele>76.3</ele>
        <time>2020-05-31T08:48:56Z</time>
      </trkpt>
      <trkpt lat="46.38735" lon="-0.307">
        <ele>76.3</ele>
        <time>2020-05-31T08:48:57Z</time>
      </trkpt>
      <trkpt lat="46.38735" lon="-0.30705">
        <ele>76.3</ele>
        <time>2020-05-31T08:48:58Z</time>
      </trkpt>
      <trkpt lat="46.38735" lon="-0.3071">
        <ele>76.3</ele>
        <time>2020-05-31T08:48:59Z</time>
      </trkpt>
      <trkpt lat="46.38736" lon="-0.30714">
        <ele>76.2</ele>
        <time>2020-05-31T08:49:00Z</time>
      </trkpt>
      <trkpt lat="46.38734" lon="-0.30719">
        <ele>76.1</ele>
        <time>2020-05-31T08:49:01Z</time>
      </trkpt>
      <trkpt lat="46.38734" lon="-0.30724">
        <ele>76</ele>
        <time>2020-05-31T08:49:02Z</time>
      </trkpt>
      <trkpt lat="46.38734" lon="-0.3073">
        <ele>75.9</ele>
        <time>2020-05-31T08:49:03Z</time>
      </trkpt>
      <trkpt lat="46.38733" lon="-0.30735">
        <ele>75.8</ele>
        <time>2020-05-31T08:49:04Z</time>
      </trkpt>
      <trkpt lat="46.38731" lon="-0.30739">
        <ele>75.7</ele>
        <time>2020-05-31T08:49:05Z</time>
      </trkpt>
      <trkpt lat="46.38729" lon="-0.30743">
        <ele>75.7</ele>
        <time>2020-05-31T08:49:06Z</time>
      </trkpt>
      <trkpt lat="46.38728" lon="-0.30748">
        <ele>75.6</ele>
        <time>2020-05-31T08:49:07Z</time>
      </trkpt>
      <trkpt lat="46.38728" lon="-0.3075">
        <ele>75.5</ele>
        <time>2020-05-31T08:49:08Z</time>
      </trkpt>
      <trkpt lat="46.38726" lon="-0.30755">
        <ele>75.4</ele>
        <time>2020-05-31T08:49:09Z</time>
      </trkpt>
      <trkpt lat="46.38726" lon="-0.30759">
        <ele>75.4</ele>
        <time>2020-05-31T08:49:10Z</time>
      </trkpt>
      <trkpt lat="46.38725" lon="-0.30764">
        <ele>75.3</ele>
        <time>2020-05-31T08:49:11Z</time>
      </trkpt>
      <trkpt lat="46.38725" lon="-0.3077">
        <ele>75.1</ele>
        <time>2020-05-31T08:49:12Z</time>
      </trkpt>
      <trkpt lat="46.38724" lon="-0.30776">
        <ele>75</ele>
        <time>2020-05-31T08:49:13Z</time>
      </trkpt>
      <trkpt lat="46.38723" lon="-0.30781">
        <ele>74.9</ele>
        <time>2020-05-31T08:49:14Z</time>
      </trkpt>
      <trkpt lat="46.38721" lon="-0.30786">
        <ele>74.8</ele>
        <time>2020-05-31T08:49:15Z</time>
      </trkpt>
      <trkpt lat="46.3872" lon="-0.30793">
        <ele>74.7</ele>
        <time>2020-05-31T08:49:16Z</time>
      </trkpt>
      <trkpt lat="46.38719" lon="-0.30799">
        <ele>74.6</ele>
        <time>2020-05-31T08:49:17Z</time>
      </trkpt>
      <trkpt lat="46.38719" lon="-0.30804">
        <ele>74.5</ele>
        <time>2020-05-31T08:49:18Z</time>
      </trkpt>
      <trkpt lat="46.38718" lon="-0.30812">
        <ele>74.3</ele>
        <time>2020-05-31T08:49:19Z</time>
      </trkpt>
      <trkpt lat="46.38716" lon="-0.30819">
        <ele>74.2</ele>
        <time>2020-05-31T08:49:20Z</time>
      </trkpt>
      <trkpt lat="46.38717" lon="-0.30824">
        <ele>74.1</ele>
        <time>2020-05-31T08:49:21Z</time>
      </trkpt>
      <trkpt lat="46.38717" lon="-0.30829">
        <ele>73.9</ele>
        <time>2020-05-31T08:49:22Z</time>
      </trkpt>
      <trkpt lat="46.38716" lon="-0.30834">
        <ele>73.8</ele>
        <time>2020-05-31T08:49:23Z</time>
      </trkpt>
      <trkpt lat="46.38715" lon="-0.3084">
        <ele>73.7</ele>
        <time>2020-05-31T08:49:24Z</time>
      </trkpt>
      <trkpt lat="46.38714" lon="-0.30846">
        <ele>73.5</ele>
        <time>2020-05-31T08:49:25Z</time>
      </trkpt>
      <trkpt lat="46.38712" lon="-0.30853">
        <ele>73.4</ele>
        <time>2020-05-31T08:49:26Z</time>
      </trkpt>
      <trkpt lat="46.3871" lon="-0.3086">
        <ele>73.2</ele>
        <time>2020-05-31T08:49:27Z</time>
      </trkpt>
      <trkpt lat="46.38708" lon="-0.30869">
        <ele>73.1</ele>
        <time>2020-05-31T08:49:28Z</time>
      </trkpt>
      <trkpt lat="46.38706" lon="-0.30878">
        <ele>72.9</ele>
        <time>2020-05-31T08:49:29Z</time>
      </trkpt>
      <trkpt lat="46.38703" lon="-0.30887">
        <ele>72.7</ele>
        <time>2020-05-31T08:49:30Z</time>
      </trkpt>
      <trkpt lat="46.38701" lon="-0.30895">
        <ele>72.4</ele>
        <time>2020-05-31T08:49:31Z</time>
      </trkpt>
      <trkpt lat="46.387" lon="-0.30903">
        <ele>72.2</ele>
        <time>2020-05-31T08:49:32Z</time>
      </trkpt>
      <trkpt lat="46.38698" lon="-0.30911">
        <ele>72.1</ele>
        <time>2020-05-31T08:49:33Z</time>
      </trkpt>
      <trkpt lat="46.38696" lon="-0.30919">
        <ele>71.8</ele>
        <time>2020-05-31T08:49:34Z</time>
      </trkpt>
      <trkpt lat="46.38694" lon="-0.30926">
        <ele>71.6</ele>
        <time>2020-05-31T08:49:35Z</time>
      </trkpt>
      <trkpt lat="46.38691" lon="-0.30934">
        <ele>71.4</ele>
        <time>2020-05-31T08:49:36Z</time>
      </trkpt>
      <trkpt lat="46.38688" lon="-0.30941">
        <ele>71.2</ele>
        <time>2020-05-31T08:49:37Z</time>
      </trkpt>
      <trkpt lat="46.38684" lon="-0.30949">
        <ele>70.9</ele>
        <time>2020-05-31T08:49:38Z</time>
      </trkpt>
      <trkpt lat="46.38681" lon="-0.30957">
        <ele>70.7</ele>
        <time>2020-05-31T08:49:39Z</time>
      </trkpt>
      <trkpt lat="46.38677" lon="-0.30965">
        <ele>70.5</ele>
        <time>2020-05-31T08:49:40Z</time>
      </trkpt>
      <trkpt lat="46.38673" lon="-0.30972">
        <ele>70.3</ele>
        <time>2020-05-31T08:49:41Z</time>
      </trkpt>
      <trkpt lat="46.3867" lon="-0.30979">
        <ele>70.2</ele>
        <time>2020-05-31T08:49:42Z</time>
      </trkpt>
      <trkpt lat="46.38666" lon="-0.30986">
        <ele>70</ele>
        <time>2020-05-31T08:49:43Z</time>
      </trkpt>
      <trkpt lat="46.38662" lon="-0.30994">
        <ele>70</ele>
        <time>2020-05-31T08:49:44Z</time>
      </trkpt>
      <trkpt lat="46.38658" lon="-0.31">
        <ele>70</ele>
        <time>2020-05-31T08:49:45Z</time>
      </trkpt>
      <trkpt lat="46.38655" lon="-0.31006">
        <ele>70.1</ele>
        <time>2020-05-31T08:49:46Z</time>
      </trkpt>
      <trkpt lat="46.38651" lon="-0.31014">
        <ele>70.1</ele>
        <time>2020-05-31T08:49:47Z</time>
      </trkpt>
      <trkpt lat="46.38648" lon="-0.31021">
        <ele>70.1</ele>
        <time>2020-05-31T08:49:48Z</time>
      </trkpt>
      <trkpt lat="46.38644" lon="-0.31027">
        <ele>70.1</ele>
        <time>2020-05-31T08:49:49Z</time>
      </trkpt>
      <trkpt lat="46.38639" lon="-0.31034">
        <ele>70.1</ele>
        <time>2020-05-31T08:49:50Z</time>
      </trkpt>
      <trkpt lat="46.38636" lon="-0.31039">
        <ele>70.1</ele>
        <time>2020-05-31T08:49:51Z</time>
      </trkpt>
      <trkpt lat="46.38632" lon="-0.31045">
        <ele>70.1</ele>
        <time>2020-05-31T08:49:52Z</time>
      </trkpt>
      <trkpt lat="46.38627" lon="-0.31054">
        <ele>70</ele>
        <time>2020-05-31T08:49:53Z</time>
      </trkpt>
      <trkpt lat="46.38623" lon="-0.31062">
        <ele>69.9</ele>
        <time>2020-05-31T08:49:54Z</time>
      </trkpt>
      <trkpt lat="46.38619" lon="-0.3107">
        <ele>69.8</ele>
        <time>2020-05-31T08:49:55Z</time>
      </trkpt>
      <trkpt lat="46.38614" lon="-0.31078">
        <ele>69.6</ele>
        <time>2020-05-31T08:49:56Z</time>
      </trkpt>
      <trkpt lat="46.38612" lon="-0.31085">
        <ele>69.5</ele>
        <time>2020-05-31T08:49:57Z</time>
      </trkpt>
      <trkpt lat="46.38608" lon="-0.31093">
        <ele>69.4</ele>
        <time>2020-05-31T08:49:58Z</time>
      </trkpt>
      <trkpt lat="46.38605" lon="-0.31102">
        <ele>69.2</ele>
        <time>2020-05-31T08:49:59Z</time>
      </trkpt>
      <trkpt lat="46.38601" lon="-0.31111">
        <ele>69.1</ele>
        <time>2020-05-31T08:50:00Z</time>
      </trkpt>
      <trkpt lat="46.38599" lon="-0.31119">
        <ele>69</ele>
        <time>2020-05-31T08:50:01Z</time>
      </trkpt>
      <trkpt lat="46.38596" lon="-0.31129">
        <ele>68.8</ele>
        <time>2020-05-31T08:50:02Z</time>
      </trkpt>
      <trkpt lat="46.38592" lon="-0.31137">
        <ele>68.7</ele>
        <time>2020-05-31T08:50:03Z</time>
      </trkpt>
      <trkpt lat="46.38589" lon="-0.31146">
        <ele>68.6</ele>
        <time>2020-05-31T08:50:04Z</time>
      </trkpt>
      <trkpt lat="46.38587" lon="-0.31154">
        <ele>68.6</ele>
        <time>2020-05-31T08:50:05Z</time>
      </trkpt>
      <trkpt lat="46.38583" lon="-0.31163">
        <ele>68.5</ele>
        <time>2020-05-31T08:50:06Z</time>
      </trkpt>
      <trkpt lat="46.3858" lon="-0.31172">
        <ele>68.4</ele>
        <time>2020-05-31T08:50:07Z</time>
      </trkpt>
      <trkpt lat="46.38577" lon="-0.31181">
        <ele>68.3</ele>
        <time>2020-05-31T08:50:08Z</time>
      </trkpt>
      <trkpt lat="46.38574" lon="-0.3119">
        <ele>68.2</ele>
        <time>2020-05-31T08:50:09Z</time>
      </trkpt>
      <trkpt lat="46.38571" lon="-0.312">
        <ele>68.2</ele>
        <time>2020-05-31T08:50:10Z</time>
      </trkpt>
      <trkpt lat="46.38568" lon="-0.3121">
        <ele>68.1</ele>
        <time>2020-05-31T08:50:11Z</time>
      </trkpt>
      <trkpt lat="46.38565" lon="-0.31219">
        <ele>68</ele>
        <time>2020-05-31T08:50:12Z</time>
      </trkpt>
      <trkpt lat="46.38562" lon="-0.31228">
        <ele>68</ele>
        <time>2020-05-31T08:50:13Z</time>
      </trkpt>
      <trkpt lat="46.3856" lon="-0.31236">
        <ele>67.9</ele>
        <time>2020-05-31T08:50:14Z</time>
      </trkpt>
      <trkpt lat="46.38557" lon="-0.31244">
        <ele>67.9</ele>
        <time>2020-05-31T08:50:15Z</time>
      </trkpt>
      <trkpt lat="46.38554" lon="-0.31251">
        <ele>67.9</ele>
        <time>2020-05-31T08:50:16Z</time>
      </trkpt>
      <trkpt lat="46.38551" lon="-0.31259">
        <ele>67.8</ele>
        <time>2020-05-31T08:50:17Z</time>
      </trkpt>
      <trkpt lat="46.38547" lon="-0.31267">
        <ele>67.8</ele>
        <time>2020-05-31T08:50:18Z</time>
      </trkpt>
      <trkpt lat="46.38544" lon="-0.31275">
        <ele>67.8</ele>
        <time>2020-05-31T08:50:19Z</time>
      </trkpt>
      <trkpt lat="46.38541" lon="-0.31283">
        <ele>67.8</ele>
        <time>2020-05-31T08:50:20Z</time>
      </trkpt>
      <trkpt lat="46.38537" lon="-0.31291">
        <ele>67.8</ele>
        <time>2020-05-31T08:50:21Z</time>
      </trkpt>
      <trkpt lat="46.38535" lon="-0.31298">
        <ele>67.8</ele>
        <time>2020-05-31T08:50:22Z</time>
      </trkpt>
      <trkpt lat="46.38532" lon="-0.31305">
        <ele>67.8</ele>
        <time>2020-05-31T08:50:23Z</time>
      </trkpt>
      <trkpt lat="46.38529" lon="-0.31312">
        <ele>67.8</ele>
        <time>2020-05-31T08:50:24Z</time>
      </trkpt>
      <trkpt lat="46.38526" lon="-0.3132">
        <ele>67.7</ele>
        <time>2020-05-31T08:50:25Z</time>
      </trkpt>
      <trkpt lat="46.38524" lon="-0.31328">
        <ele>67.7</ele>
        <time>2020-05-31T08:50:26Z</time>
      </trkpt>
      <trkpt lat="46.38521" lon="-0.31336">
        <ele>67.6</ele>
        <time>2020-05-31T08:50:27Z</time>
      </trkpt>
      <trkpt lat="46.38519" lon="-0.31344">
        <ele>67.6</ele>
        <time>2020-05-31T08:50:28Z</time>
      </trkpt>
      <trkpt lat="46.38516" lon="-0.31352">
        <ele>67.5</ele>
        <time>2020-05-31T08:50:29Z</time>
      </trkpt>
      <trkpt lat="46.38514" lon="-0.31361">
        <ele>67.5</ele>
        <time>2020-05-31T08:50:30Z</time>
      </trkpt>
      <trkpt lat="46.38513" lon="-0.3137">
        <ele>67.6</ele>
        <time>2020-05-31T08:50:31Z</time>
      </trkpt>
      <trkpt lat="46.3851" lon="-0.31379">
        <ele>67.6</ele>
        <time>2020-05-31T08:50:32Z</time>
      </trkpt>
      <trkpt lat="46.38508" lon="-0.31388">
        <ele>67.7</ele>
        <time>2020-05-31T08:50:33Z</time>
      </trkpt>
      <trkpt lat="46.38506" lon="-0.31396">
        <ele>67.8</ele>
        <time>2020-05-31T08:50:34Z</time>
      </trkpt>
      <trkpt lat="46.38503" lon="-0.31404">
        <ele>67.9</ele>
        <time>2020-05-31T08:50:35Z</time>
      </trkpt>
      <trkpt lat="46.38501" lon="-0.31411">
        <ele>68</ele>
        <time>2020-05-31T08:50:36Z</time>
      </trkpt>
      <trkpt lat="46.38499" lon="-0.31418">
        <ele>68.1</ele>
        <time>2020-05-31T08:50:37Z</time>
      </trkpt>
      <trkpt lat="46.38497" lon="-0.31425">
        <ele>68.2</ele>
        <time>2020-05-31T08:50:38Z</time>
      </trkpt>
      <trkpt lat="46.38493" lon="-0.3143">
        <ele>68.3</ele>
        <time>2020-05-31T08:50:39Z</time>
      </trkpt>
      <trkpt lat="46.38491" lon="-0.31437">
        <ele>68.4</ele>
        <time>2020-05-31T08:50:40Z</time>
      </trkpt>
      <trkpt lat="46.38488" lon="-0.31443">
        <ele>68.6</ele>
        <time>2020-05-31T08:50:41Z</time>
      </trkpt>
      <trkpt lat="46.38485" lon="-0.3145">
        <ele>68.7</ele>
        <time>2020-05-31T08:50:42Z</time>
      </trkpt>
      <trkpt lat="46.38482" lon="-0.31456">
        <ele>68.8</ele>
        <time>2020-05-31T08:50:43Z</time>
      </trkpt>
      <trkpt lat="46.38479" lon="-0.31461">
        <ele>68.9</ele>
        <time>2020-05-31T08:50:44Z</time>
      </trkpt>
      <trkpt lat="46.38477" lon="-0.31467">
        <ele>69</ele>
        <time>2020-05-31T08:50:45Z</time>
      </trkpt>
      <trkpt lat="46.38474" lon="-0.31473">
        <ele>69.1</ele>
        <time>2020-05-31T08:50:46Z</time>
      </trkpt>
      <trkpt lat="46.3847" lon="-0.31478">
        <ele>69.2</ele>
        <time>2020-05-31T08:50:47Z</time>
      </trkpt>
      <trkpt lat="46.38467" lon="-0.31483">
        <ele>69.2</ele>
        <time>2020-05-31T08:50:48Z</time>
      </trkpt>
      <trkpt lat="46.38463" lon="-0.31487">
        <ele>69.3</ele>
        <time>2020-05-31T08:50:49Z</time>
      </trkpt>
      <trkpt lat="46.3846" lon="-0.31492">
        <ele>69.3</ele>
        <time>2020-05-31T08:50:50Z</time>
      </trkpt>
      <trkpt lat="46.38457" lon="-0.31497">
        <ele>69.3</ele>
        <time>2020-05-31T08:50:51Z</time>
      </trkpt>
      <trkpt lat="46.38455" lon="-0.31502">
        <ele>69.4</ele>
        <time>2020-05-31T08:50:52Z</time>
      </trkpt>
      <trkpt lat="46.38453" lon="-0.31507">
        <ele>69.5</ele>
        <time>2020-05-31T08:50:53Z</time>
      </trkpt>
      <trkpt lat="46.38451" lon="-0.31512">
        <ele>69.6</ele>
        <time>2020-05-31T08:50:54Z</time>
      </trkpt>
      <trkpt lat="46.38449" lon="-0.31517">
        <ele>69.6</ele>
        <time>2020-05-31T08:50:55Z</time>
      </trkpt>
      <trkpt lat="46.38447" lon="-0.31521">
        <ele>69.7</ele>
        <time>2020-05-31T08:50:56Z</time>
      </trkpt>
      <trkpt lat="46.38446" lon="-0.31525">
        <ele>69.8</ele>
        <time>2020-05-31T08:50:57Z</time>
      </trkpt>
      <trkpt lat="46.38444" lon="-0.31529">
        <ele>69.8</ele>
        <time>2020-05-31T08:50:58Z</time>
      </trkpt>
      <trkpt lat="46.38443" lon="-0.31532">
        <ele>69.9</ele>
        <time>2020-05-31T08:50:59Z</time>
      </trkpt>
      <trkpt lat="46.38442" lon="-0.31533">
        <ele>69.9</ele>
        <time>2020-05-31T08:51:00Z</time>
      </trkpt>
      <trkpt lat="46.38442" lon="-0.31534">
        <ele>69.9</ele>
        <time>2020-05-31T08:51:01Z</time>
      </trkpt>
      <trkpt lat="46.38442" lon="-0.31535">
        <ele>69.9</ele>
        <time>2020-05-31T08:51:02Z</time>
      </trkpt>
      <trkpt lat="46.38442" lon="-0.31535">
        <ele>69.9</ele>
        <time>2020-05-31T08:51:03Z</time>
      </trkpt>
      <trkpt lat="46.38442" lon="-0.31535">
        <ele>69.9</ele>
        <time>2020-05-31T08:51:04Z</time>
      </trkpt>
      <trkpt lat="46.38442" lon="-0.31536">
        <ele>69.9</ele>
        <time>2020-05-31T08:51:05Z</time>
      </trkpt>
      <trkpt lat="46.38442" lon="-0.31536">
        <ele>69.9</ele>
        <time>2020-05-31T08:51:06Z</time>
      </trkpt>
      <trkpt lat="46.38442" lon="-0.31536">
        <ele>69.9</ele>
        <time>2020-05-31T08:51:07Z</time>
      </trkpt>
      <trkpt lat="46.38441" lon="-0.31536">
        <ele>69.9</ele>
        <time>2020-05-31T08:51:08Z</time>
      </trkpt>
      <trkpt lat="46.38441" lon="-0.31535">
        <ele>69.9</ele>
        <time>2020-05-31T08:51:09Z</time>
      </trkpt>
      <trkpt lat="46.38441" lon="-0.31536">
        <ele>70</ele>
        <time>2020-05-31T08:51:10Z</time>
      </trkpt>
      <trkpt lat="46.38441" lon="-0.31535">
        <ele>70</ele>
        <time>2020-05-31T08:51:11Z</time>
      </trkpt>
      <trkpt lat="46.38442" lon="-0.31536">
        <ele>70</ele>
        <time>2020-05-31T08:51:12Z</time>
      </trkpt>
      <trkpt lat="46.38442" lon="-0.31537">
        <ele>70</ele>
        <time>2020-05-31T08:51:13Z</time>
      </trkpt>
      <trkpt lat="46.38442" lon="-0.31537">
        <ele>70</ele>
        <time>2020-05-31T08:51:14Z</time>
      </trkpt>
      <trkpt lat="46.38442" lon="-0.31538">
        <ele>70</ele>
        <time>2020-05-31T08:51:15Z</time>
      </trkpt>
      <trkpt lat="46.38441" lon="-0.31537">
        <ele>70</ele>
        <time>2020-05-31T08:51:16Z</time>
      </trkpt>
      <trkpt lat="46.38441" lon="-0.31538">
        <ele>70</ele>
        <time>2020-05-31T08:51:17Z</time>
      </trkpt>
      <trkpt lat="46.38441" lon="-0.31538">
        <ele>70</ele>
        <time>2020-05-31T08:51:18Z</time>
      </trkpt>
      <trkpt lat="46.38441" lon="-0.31538">
        <ele>70</ele>
        <time>2020-05-31T08:51:19Z</time>
      </trkpt>
      <trkpt lat="46.38441" lon="-0.31538">
        <ele>70</ele>
        <time>2020-05-31T08:51:20Z</time>
      </trkpt>
      <trkpt lat="46.38441" lon="-0.31539">
        <ele>70</ele>
        <time>2020-05-31T08:51:21Z</time>
      </trkpt>
      <trkpt lat="46.38442" lon="-0.31539">
        <ele>70</ele>
        <time>2020-05-31T08:51:22Z</time>
      </trkpt>
      <trkpt lat="46.38442" lon="-0.31539">
        <ele>70</ele>
        <time>2020-05-31T08:51:23Z</time>
      </trkpt>
      <trkpt lat="46.38442" lon="-0.3154">
        <ele>70</ele>
        <time>2020-05-31T08:51:24Z</time>
      </trkpt>
      <trkpt lat="46.38442" lon="-0.3154">
        <ele>70.1</ele>
        <time>2020-05-31T08:51:25Z</time>
      </trkpt>
      <trkpt lat="46.38442" lon="-0.3154">
        <ele>70.1</ele>
        <time>2020-05-31T08:51:26Z</time>
      </trkpt>
      <trkpt lat="46.38442" lon="-0.3154">
        <ele>70.1</ele>
        <time>2020-05-31T08:51:27Z</time>
      </trkpt>
      <trkpt lat="46.38442" lon="-0.3154">
        <ele>70.1</ele>
        <time>2020-05-31T08:51:28Z</time>
      </trkpt>
      <trkpt lat="46.38443" lon="-0.3154">
        <ele>70.1</ele>
        <time>2020-05-31T08:51:29Z</time>
      </trkpt>
      <trkpt lat="46.38443" lon="-0.3154">
        <ele>70.1</ele>
        <time>2020-05-31T08:51:30Z</time>
      </trkpt>
      <trkpt lat="46.38442" lon="-0.3154">
        <ele>70.1</ele>
        <time>2020-05-31T08:51:31Z</time>
      </trkpt>
      <trkpt lat="46.38443" lon="-0.31541">
        <ele>70.1</ele>
        <time>2020-05-31T08:51:32Z</time>
      </trkpt>
      <trkpt lat="46.38442" lon="-0.3154">
        <ele>70.1</ele>
        <time>2020-05-31T08:51:33Z</time>
      </trkpt>
      <trkpt lat="46.38442" lon="-0.3154">
        <ele>70.1</ele>
        <time>2020-05-31T08:51:34Z</time>
      </trkpt>
      <trkpt lat="46.38441" lon="-0.3154">
        <ele>70.1</ele>
        <time>2020-05-31T08:51:35Z</time>
      </trkpt>
      <trkpt lat="46.38441" lon="-0.3154">
        <ele>70.1</ele>
        <time>2020-05-31T08:51:36Z</time>
      </trkpt>
      <trkpt lat="46.38441" lon="-0.3154">
        <ele>70.1</ele>
        <time>2020-05-31T08:51:37Z</time>
      </trkpt>
      <trkpt lat="46.38441" lon="-0.3154">
        <ele>70.1</ele>
        <time>2020-05-31T08:51:38Z</time>
      </trkpt>
      <trkpt lat="46.38441" lon="-0.31541">
        <ele>70.1</ele>
        <time>2020-05-31T08:51:39Z</time>
      </trkpt>
      <trkpt lat="46.38441" lon="-0.31541">
        <ele>70.1</ele>
        <time>2020-05-31T08:51:40Z</time>
      </trkpt>
      <trkpt lat="46.38441" lon="-0.31541">
        <ele>70.1</ele>
        <time>2020-05-31T08:51:41Z</time>
      </trkpt>
      <trkpt lat="46.38441" lon="-0.31541">
        <ele>70.1</ele>
        <time>2020-05-31T08:51:42Z</time>
      </trkpt>
      <trkpt lat="46.38442" lon="-0.31541">
        <ele>70.1</ele>
        <time>2020-05-31T08:51:43Z</time>
      </trkpt>
      <trkpt lat="46.38442" lon="-0.31541">
        <ele>70.1</ele>
        <time>2020-05-31T08:51:44Z</time>
      </trkpt>
      <trkpt lat="46.38442" lon="-0.31542">
        <ele>70.2</ele>
        <time>2020-05-31T08:51:45Z</time>
      </trkpt>
      <trkpt lat="46.38442" lon="-0.31542">
        <ele>70.2</ele>
        <time>2020-05-31T08:51:46Z</time>
      </trkpt>
      <trkpt lat="46.38442" lon="-0.31542">
        <ele>70.2</ele>
        <time>2020-05-31T08:51:47Z</time>
      </trkpt>
      <trkpt lat="46.38442" lon="-0.31541">
        <ele>70.2</ele>
        <time>2020-05-31T08:51:48Z</time>
      </trkpt>
      <trkpt lat="46.38442" lon="-0.31541">
        <ele>70.2</ele>
        <time>2020-05-31T08:51:49Z</time>
      </trkpt>
      <trkpt lat="46.38442" lon="-0.31541">
        <ele>70.2</ele>
        <time>2020-05-31T08:51:50Z</time>
      </trkpt>
      <trkpt lat="46.38441" lon="-0.31541">
        <ele>70.2</ele>
        <time>2020-05-31T08:51:51Z</time>
      </trkpt>
      <trkpt lat="46.38441" lon="-0.31541">
        <ele>70.2</ele>
        <time>2020-05-31T08:51:52Z</time>
      </trkpt>
      <trkpt lat="46.38441" lon="-0.31541">
        <ele>70.2</ele>
        <time>2020-05-31T08:51:53Z</time>
      </trkpt>
      <trkpt lat="46.3844" lon="-0.31541">
        <ele>70.2</ele>
        <time>2020-05-31T08:51:54Z</time>
      </trkpt>
      <trkpt lat="46.3844" lon="-0.31541">
        <ele>70.2</ele>
        <time>2020-05-31T08:51:55Z</time>
      </trkpt>
      <trkpt lat="46.3844" lon="-0.3154">
        <ele>70.2</ele>
        <time>2020-05-31T08:51:56Z</time>
      </trkpt>
      <trkpt lat="46.3844" lon="-0.3154">
        <ele>70.2</ele>
        <time>2020-05-31T08:51:57Z</time>
      </trkpt>
      <trkpt lat="46.3844" lon="-0.3154">
        <ele>70.2</ele>
        <time>2020-05-31T08:51:58Z</time>
      </trkpt>
      <trkpt lat="46.38441" lon="-0.3154">
        <ele>70.2</ele>
        <time>2020-05-31T08:51:59Z</time>
      </trkpt>
      <trkpt lat="46.38441" lon="-0.3154">
        <ele>70.2</ele>
        <time>2020-05-31T08:52:00Z</time>
      </trkpt>
      <trkpt lat="46.38441" lon="-0.3154">
        <ele>70.2</ele>
        <time>2020-05-31T08:52:01Z</time>
      </trkpt>
      <trkpt lat="46.38441" lon="-0.3154">
        <ele>70.2</ele>
        <time>2020-05-31T08:52:02Z</time>
      </trkpt>
      <trkpt lat="46.38441" lon="-0.31541">
        <ele>70.2</ele>
        <time>2020-05-31T08:52:03Z</time>
      </trkpt>
      <trkpt lat="46.38441" lon="-0.3154">
        <ele>70.2</ele>
        <time>2020-05-31T08:52:04Z</time>
      </trkpt>
      <trkpt lat="46.38441" lon="-0.31541">
        <ele>70.2</ele>
        <time>2020-05-31T08:52:05Z</time>
      </trkpt>
      <trkpt lat="46.38441" lon="-0.31541">
        <ele>70.2</ele>
        <time>2020-05-31T08:52:06Z</time>
      </trkpt>
      <trkpt lat="46.38441" lon="-0.31541">
        <ele>70.2</ele>
        <time>2020-05-31T08:52:07Z</time>
      </trkpt>
      <trkpt lat="46.38441" lon="-0.31541">
        <ele>70.2</ele>
        <time>2020-05-31T08:52:08Z</time>
      </trkpt>
      <trkpt lat="46.38442" lon="-0.31542">
        <ele>70.2</ele>
        <time>2020-05-31T08:52:09Z</time>
      </trkpt>
      <trkpt lat="46.38441" lon="-0.31541">
        <ele>70.2</ele>
        <time>2020-05-31T08:52:10Z</time>
      </trkpt>
      <trkpt lat="46.38441" lon="-0.31541">
        <ele>70.2</ele>
        <time>2020-05-31T08:52:11Z</time>
      </trkpt>
      <trkpt lat="46.3844" lon="-0.31541">
        <ele>70.2</ele>
        <time>2020-05-31T08:52:12Z</time>
      </trkpt>
      <trkpt lat="46.3844" lon="-0.31542">
        <ele>70.2</ele>
        <time>2020-05-31T08:52:13Z</time>
      </trkpt>
      <trkpt lat="46.3844" lon="-0.31542">
        <ele>70.2</ele>
        <time>2020-05-31T08:52:14Z</time>
      </trkpt>
      <trkpt lat="46.3844" lon="-0.31542">
        <ele>70.2</ele>
        <time>2020-05-31T08:52:15Z</time>
      </trkpt>
      <trkpt lat="46.3844" lon="-0.31542">
        <ele>70.2</ele>
        <time>2020-05-31T08:52:16Z</time>
      </trkpt>
      <trkpt lat="46.3844" lon="-0.31542">
        <ele>70.2</ele>
        <time>2020-05-31T08:52:17Z</time>
      </trkpt>
      <trkpt lat="46.3844" lon="-0.31542">
        <ele>70.2</ele>
        <time>2020-05-31T08:52:18Z</time>
      </trkpt>
      <trkpt lat="46.3844" lon="-0.31542">
        <ele>70.2</ele>
        <time>2020-05-31T08:52:19Z</time>
      </trkpt>
      <trkpt lat="46.3844" lon="-0.31542">
        <ele>70.2</ele>
        <time>2020-05-31T08:52:20Z</time>
      </trkpt>
      <trkpt lat="46.3844" lon="-0.31542">
        <ele>70.2</ele>
        <time>2020-05-31T08:52:21Z</time>
      </trkpt>
      <trkpt lat="46.3844" lon="-0.31542">
        <ele>70.2</ele>
        <time>2020-05-31T08:52:22Z</time>
      </trkpt>
      <trkpt lat="46.3844" lon="-0.31542">
        <ele>70.2</ele>
        <time>2020-05-31T08:52:23Z</time>
      </trkpt>
      <trkpt lat="46.3844" lon="-0.31542">
        <ele>70.2</ele>
        <time>2020-05-31T08:52:24Z</time>
      </trkpt>
      <trkpt lat="46.3844" lon="-0.31542">
        <ele>70.2</ele>
        <time>2020-05-31T08:52:25Z</time>
      </trkpt>
      <trkpt lat="46.3844" lon="-0.31542">
        <ele>70.2</ele>
        <time>2020-05-31T08:52:26Z</time>
      </trkpt>
      <trkpt lat="46.3844" lon="-0.31542">
        <ele>70.2</ele>
        <time>2020-05-31T08:52:27Z</time>
      </trkpt>
      <trkpt lat="46.3844" lon="-0.31542">
        <ele>70.2</ele>
        <time>2020-05-31T08:52:28Z</time>
      </trkpt>
      <trkpt lat="46.3844" lon="-0.31542">
        <ele>70.2</ele>
        <time>2020-05-31T08:52:29Z</time>
      </trkpt>
      <trkpt lat="46.3844" lon="-0.31542">
        <ele>70.2</ele>
        <time>2020-05-31T08:52:30Z</time>
      </trkpt>
      <trkpt lat="46.3844" lon="-0.31542">
        <ele>70.2</ele>
        <time>2020-05-31T08:52:31Z</time>
      </trkpt>
      <trkpt lat="46.3844" lon="-0.31542">
        <ele>70.2</ele>
        <time>2020-05-31T08:52:32Z</time>
      </trkpt>
      <trkpt lat="46.3844" lon="-0.31542">
        <ele>70.2</ele>
        <time>2020-05-31T08:52:33Z</time>
      </trkpt>
      <trkpt lat="46.3844" lon="-0.31542">
        <ele>70.2</ele>
        <time>2020-05-31T08:52:34Z</time>
      </trkpt>
      <trkpt lat="46.3844" lon="-0.31542">
        <ele>70.2</ele>
        <time>2020-05-31T08:52:35Z</time>
      </trkpt>
      <trkpt lat="46.3844" lon="-0.31542">
        <ele>70.2</ele>
        <time>2020-05-31T08:52:36Z</time>
      </trkpt>
      <trkpt lat="46.3844" lon="-0.31542">
        <ele>70.2</ele>
        <time>2020-05-31T08:52:37Z</time>
      </trkpt>
      <trkpt lat="46.3844" lon="-0.31542">
        <ele>70.2</ele>
        <time>2020-05-31T08:52:38Z</time>
      </trkpt>
      <trkpt lat="46.3844" lon="-0.31542">
        <ele>70.2</ele>
        <time>2020-05-31T08:52:39Z</time>
      </trkpt>
      <trkpt lat="46.3844" lon="-0.31542">
        <ele>70.2</ele>
        <time>2020-05-31T08:52:40Z</time>
      </trkpt>
      <trkpt lat="46.3844" lon="-0.31542">
        <ele>70.2</ele>
        <time>2020-05-31T08:52:41Z</time>
      </trkpt>
      <trkpt lat="46.3844" lon="-0.31542">
        <ele>70.2</ele>
        <time>2020-05-31T08:52:42Z</time>
      </trkpt>
      <trkpt lat="46.3844" lon="-0.31542">
        <ele>70.2</ele>
        <time>2020-05-31T08:52:43Z</time>
      </trkpt>
      <trkpt lat="46.3844" lon="-0.31542">
        <ele>70.2</ele>
        <time>2020-05-31T08:52:44Z</time>
      </trkpt>
      <trkpt lat="46.3844" lon="-0.31543">
        <ele>70.2</ele>
        <time>2020-05-31T08:52:45Z</time>
      </trkpt>
      <trkpt lat="46.38439" lon="-0.31543">
        <ele>70.2</ele>
        <time>2020-05-31T08:52:46Z</time>
      </trkpt>
      <trkpt lat="46.38439" lon="-0.31543">
        <ele>70.2</ele>
        <time>2020-05-31T08:52:47Z</time>
      </trkpt>
      <trkpt lat="46.38439" lon="-0.31543">
        <ele>70.3</ele>
        <time>2020-05-31T08:52:48Z</time>
      </trkpt>
      <trkpt lat="46.38439" lon="-0.31544">
        <ele>70.3</ele>
        <time>2020-05-31T08:52:49Z</time>
      </trkpt>
      <trkpt lat="46.3844" lon="-0.31544">
        <ele>70.3</ele>
        <time>2020-05-31T08:52:50Z</time>
      </trkpt>
      <trkpt lat="46.3844" lon="-0.31544">
        <ele>70.3</ele>
        <time>2020-05-31T08:52:51Z</time>
      </trkpt>
      <trkpt lat="46.3844" lon="-0.31545">
        <ele>70.3</ele>
        <time>2020-05-31T08:52:52Z</time>
      </trkpt>
      <trkpt lat="46.38441" lon="-0.31545">
        <ele>70.3</ele>
        <time>2020-05-31T08:52:53Z</time>
      </trkpt>
      <trkpt lat="46.38441" lon="-0.31546">
        <ele>70.3</ele>
        <time>2020-05-31T08:52:54Z</time>
      </trkpt>
      <trkpt lat="46.38441" lon="-0.31546">
        <ele>70.3</ele>
        <time>2020-05-31T08:52:55Z</time>
      </trkpt>
      <trkpt lat="46.38442" lon="-0.31547">
        <ele>70.3</ele>
        <time>2020-05-31T08:52:56Z</time>
      </trkpt>
      <trkpt lat="46.38442" lon="-0.31547">
        <ele>70.3</ele>
        <time>2020-05-31T08:52:57Z</time>
      </trkpt>
      <trkpt lat="46.38442" lon="-0.31547">
        <ele>70.3</ele>
        <time>2020-05-31T08:52:58Z</time>
      </trkpt>
      <trkpt lat="46.38442" lon="-0.31547">
        <ele>70.3</ele>
        <time>2020-05-31T08:52:59Z</time>
      </trkpt>
      <trkpt lat="46.38443" lon="-0.31548">
        <ele>70.3</ele>
        <time>2020-05-31T08:53:00Z</time>
      </trkpt>
      <trkpt lat="46.38442" lon="-0.31547">
        <ele>70.3</ele>
        <time>2020-05-31T08:53:01Z</time>
      </trkpt>
      <trkpt lat="46.38442" lon="-0.31547">
        <ele>70.3</ele>
        <time>2020-05-31T08:53:02Z</time>
      </trkpt>
      <trkpt lat="46.38442" lon="-0.31547">
        <ele>70.3</ele>
        <time>2020-05-31T08:53:03Z</time>
      </trkpt>
      <trkpt lat="46.38441" lon="-0.31547">
        <ele>70.3</ele>
        <time>2020-05-31T08:53:04Z</time>
      </trkpt>
      <trkpt lat="46.38441" lon="-0.31547">
        <ele>70.3</ele>
        <time>2020-05-31T08:53:05Z</time>
      </trkpt>
      <trkpt lat="46.38441" lon="-0.31547">
        <ele>70.3</ele>
        <time>2020-05-31T08:53:06Z</time>
      </trkpt>
      <trkpt lat="46.3844" lon="-0.31547">
        <ele>70.3</ele>
        <time>2020-05-31T08:53:07Z</time>
      </trkpt>
      <trkpt lat="46.3844" lon="-0.31547">
        <ele>70.3</ele>
        <time>2020-05-31T08:53:08Z</time>
      </trkpt>
      <trkpt lat="46.3844" lon="-0.31547">
        <ele>70.3</ele>
        <time>2020-05-31T08:53:09Z</time>
      </trkpt>
      <trkpt lat="46.3844" lon="-0.31547">
        <ele>70.3</ele>
        <time>2020-05-31T08:53:10Z</time>
      </trkpt>
      <trkpt lat="46.38441" lon="-0.31548">
        <ele>70.3</ele>
        <time>2020-05-31T08:53:11Z</time>
      </trkpt>
      <trkpt lat="46.3844" lon="-0.31548">
        <ele>70.3</ele>
        <time>2020-05-31T08:53:12Z</time>
      </trkpt>
      <trkpt lat="46.3844" lon="-0.31548">
        <ele>70.3</ele>
        <time>2020-05-31T08:53:13Z</time>
      </trkpt>
      <trkpt lat="46.3844" lon="-0.31548">
        <ele>70.3</ele>
        <time>2020-05-31T08:53:14Z</time>
      </trkpt>
      <trkpt lat="46.3844" lon="-0.31549">
        <ele>70.3</ele>
        <time>2020-05-31T08:53:15Z</time>
      </trkpt>
      <trkpt lat="46.3844" lon="-0.31549">
        <ele>70.3</ele>
        <time>2020-05-31T08:53:16Z</time>
      </trkpt>
      <trkpt lat="46.3844" lon="-0.31549">
        <ele>70.3</ele>
        <time>2020-05-31T08:53:17Z</time>
      </trkpt>
      <trkpt lat="46.3844" lon="-0.31549">
        <ele>70.3</ele>
        <time>2020-05-31T08:53:18Z</time>
      </trkpt>
      <trkpt lat="46.3844" lon="-0.31549">
        <ele>70.3</ele>
        <time>2020-05-31T08:53:19Z</time>
      </trkpt>
      <trkpt lat="46.3844" lon="-0.31549">
        <ele>70.4</ele>
        <time>2020-05-31T08:53:20Z</time>
      </trkpt>
      <trkpt lat="46.38441" lon="-0.3155">
        <ele>70.4</ele>
        <time>2020-05-31T08:53:21Z</time>
      </trkpt>
      <trkpt lat="46.38442" lon="-0.3155">
        <ele>70.4</ele>
        <time>2020-05-31T08:53:22Z</time>
      </trkpt>
      <trkpt lat="46.38442" lon="-0.31551">
        <ele>70.4</ele>
        <time>2020-05-31T08:53:23Z</time>
      </trkpt>
      <trkpt lat="46.38443" lon="-0.31551">
        <ele>70.4</ele>
        <time>2020-05-31T08:53:24Z</time>
      </trkpt>
      <trkpt lat="46.38442" lon="-0.3155">
        <ele>70.4</ele>
        <time>2020-05-31T08:53:25Z</time>
      </trkpt>
      <trkpt lat="46.38442" lon="-0.3155">
        <ele>70.4</ele>
        <time>2020-05-31T08:53:26Z</time>
      </trkpt>
      <trkpt lat="46.38442" lon="-0.3155">
        <ele>70.4</ele>
        <time>2020-05-31T08:53:27Z</time>
      </trkpt>
      <trkpt lat="46.38443" lon="-0.31551">
        <ele>70.4</ele>
        <time>2020-05-31T08:53:28Z</time>
      </trkpt>
      <trkpt lat="46.38444" lon="-0.31551">
        <ele>70.4</ele>
        <time>2020-05-31T08:53:29Z</time>
      </trkpt>
      <trkpt lat="46.38444" lon="-0.31552">
        <ele>70.4</ele>
        <time>2020-05-31T08:53:30Z</time>
      </trkpt>
      <trkpt lat="46.38444" lon="-0.31553">
        <ele>70.4</ele>
        <time>2020-05-31T08:53:31Z</time>
      </trkpt>
      <trkpt lat="46.38444" lon="-0.31554">
        <ele>70.4</ele>
        <time>2020-05-31T08:53:32Z</time>
      </trkpt>
      <trkpt lat="46.38443" lon="-0.31555">
        <ele>70.4</ele>
        <time>2020-05-31T08:53:33Z</time>
      </trkpt>
      <trkpt lat="46.38443" lon="-0.31556">
        <ele>70.4</ele>
        <time>2020-05-31T08:53:34Z</time>
      </trkpt>
      <trkpt lat="46.38442" lon="-0.31556">
        <ele>70.4</ele>
        <time>2020-05-31T08:53:35Z</time>
      </trkpt>
      <trkpt lat="46.38442" lon="-0.31556">
        <ele>70.4</ele>
        <time>2020-05-31T08:53:36Z</time>
      </trkpt>
      <trkpt lat="46.3844" lon="-0.31554">
        <ele>70.4</ele>
        <time>2020-05-31T08:53:37Z</time>
      </trkpt>
      <trkpt lat="46.38439" lon="-0.31554">
        <ele>70.4</ele>
        <time>2020-05-31T08:53:38Z</time>
      </trkpt>
      <trkpt lat="46.38439" lon="-0.31554">
        <ele>70.4</ele>
        <time>2020-05-31T08:53:39Z</time>
      </trkpt>
      <trkpt lat="46.38438" lon="-0.31555">
        <ele>70.4</ele>
        <time>2020-05-31T08:53:40Z</time>
      </trkpt>
      <trkpt lat="46.38438" lon="-0.31556">
        <ele>70.4</ele>
        <time>2020-05-31T08:53:41Z</time>
      </trkpt>
      <trkpt lat="46.38437" lon="-0.31556">
        <ele>70.4</ele>
        <time>2020-05-31T08:53:42Z</time>
      </trkpt>
      <trkpt lat="46.38435" lon="-0.31559">
        <ele>70.4</ele>
        <time>2020-05-31T08:53:43Z</time>
      </trkpt>
      <trkpt lat="46.38434" lon="-0.3156">
        <ele>70.4</ele>
        <time>2020-05-31T08:53:44Z</time>
      </trkpt>
      <trkpt lat="46.38433" lon="-0.31565">
        <ele>70.3</ele>
        <time>2020-05-31T08:53:45Z</time>
      </trkpt>
      <trkpt lat="46.38432" lon="-0.31567">
        <ele>70.3</ele>
        <time>2020-05-31T08:53:46Z</time>
      </trkpt>
      <trkpt lat="46.38432" lon="-0.31572">
        <ele>70.3</ele>
        <time>2020-05-31T08:53:47Z</time>
      </trkpt>
      <trkpt lat="46.3843" lon="-0.31576">
        <ele>70.3</ele>
        <time>2020-05-31T08:53:48Z</time>
      </trkpt>
      <trkpt lat="46.38428" lon="-0.3158">
        <ele>70.2</ele>
        <time>2020-05-31T08:53:49Z</time>
      </trkpt>
      <trkpt lat="46.38426" lon="-0.31584">
        <ele>70.2</ele>
        <time>2020-05-31T08:53:50Z</time>
      </trkpt>
      <trkpt lat="46.38425" lon="-0.31588">
        <ele>70.2</ele>
        <time>2020-05-31T08:53:51Z</time>
      </trkpt>
      <trkpt lat="46.38423" lon="-0.31593">
        <ele>70.1</ele>
        <time>2020-05-31T08:53:52Z</time>
      </trkpt>
      <trkpt lat="46.38421" lon="-0.31597">
        <ele>70.1</ele>
        <time>2020-05-31T08:53:53Z</time>
      </trkpt>
      <trkpt lat="46.3842" lon="-0.31601">
        <ele>70.1</ele>
        <time>2020-05-31T08:53:54Z</time>
      </trkpt>
      <trkpt lat="46.38417" lon="-0.31604">
        <ele>70</ele>
        <time>2020-05-31T08:53:55Z</time>
      </trkpt>
      <trkpt lat="46.38416" lon="-0.3161">
        <ele>70</ele>
        <time>2020-05-31T08:53:56Z</time>
      </trkpt>
      <trkpt lat="46.38413" lon="-0.31615">
        <ele>69.9</ele>
        <time>2020-05-31T08:53:57Z</time>
      </trkpt>
      <trkpt lat="46.3841" lon="-0.3162">
        <ele>69.8</ele>
        <time>2020-05-31T08:53:58Z</time>
      </trkpt>
      <trkpt lat="46.38407" lon="-0.31626">
        <ele>69.7</ele>
        <time>2020-05-31T08:53:59Z</time>
      </trkpt>
      <trkpt lat="46.38405" lon="-0.31632">
        <ele>69.7</ele>
        <time>2020-05-31T08:54:00Z</time>
      </trkpt>
      <trkpt lat="46.38403" lon="-0.31637">
        <ele>69.7</ele>
        <time>2020-05-31T08:54:01Z</time>
      </trkpt>
      <trkpt lat="46.384" lon="-0.31643">
        <ele>69.6</ele>
        <time>2020-05-31T08:54:02Z</time>
      </trkpt>
      <trkpt lat="46.38398" lon="-0.3165">
        <ele>69.6</ele>
        <time>2020-05-31T08:54:03Z</time>
      </trkpt>
      <trkpt lat="46.38397" lon="-0.31656">
        <ele>69.5</ele>
        <time>2020-05-31T08:54:04Z</time>
      </trkpt>
      <trkpt lat="46.38395" lon="-0.31663">
        <ele>69.5</ele>
        <time>2020-05-31T08:54:05Z</time>
      </trkpt>
      <trkpt lat="46.38393" lon="-0.31671">
        <ele>69.4</ele>
        <time>2020-05-31T08:54:06Z</time>
      </trkpt>
      <trkpt lat="46.3839" lon="-0.31678">
        <ele>69.4</ele>
        <time>2020-05-31T08:54:07Z</time>
      </trkpt>
      <trkpt lat="46.38387" lon="-0.31686">
        <ele>69.3</ele>
        <time>2020-05-31T08:54:08Z</time>
      </trkpt>
      <trkpt lat="46.38384" lon="-0.31692">
        <ele>69.2</ele>
        <time>2020-05-31T08:54:09Z</time>
      </trkpt>
      <trkpt lat="46.38383" lon="-0.31698">
        <ele>69.2</ele>
        <time>2020-05-31T08:54:10Z</time>
      </trkpt>
      <trkpt lat="46.3838" lon="-0.31705">
        <ele>69.1</ele>
        <time>2020-05-31T08:54:11Z</time>
      </trkpt>
      <trkpt lat="46.38378" lon="-0.31713">
        <ele>69</ele>
        <time>2020-05-31T08:54:12Z</time>
      </trkpt>
      <trkpt lat="46.38375" lon="-0.31721">
        <ele>69</ele>
        <time>2020-05-31T08:54:13Z</time>
      </trkpt>
      <trkpt lat="46.38373" lon="-0.3173">
        <ele>68.9</ele>
        <time>2020-05-31T08:54:14Z</time>
      </trkpt>
      <trkpt lat="46.38372" lon="-0.31738">
        <ele>68.9</ele>
        <time>2020-05-31T08:54:15Z</time>
      </trkpt>
      <trkpt lat="46.3837" lon="-0.31745">
        <ele>68.8</ele>
        <time>2020-05-31T08:54:16Z</time>
      </trkpt>
      <trkpt lat="46.38368" lon="-0.31754">
        <ele>68.8</ele>
        <time>2020-05-31T08:54:17Z</time>
      </trkpt>
      <trkpt lat="46.38367" lon="-0.31762">
        <ele>68.8</ele>
        <time>2020-05-31T08:54:18Z</time>
      </trkpt>
      <trkpt lat="46.38366" lon="-0.3177">
        <ele>68.7</ele>
        <time>2020-05-31T08:54:19Z</time>
      </trkpt>
      <trkpt lat="46.38366" lon="-0.31778">
        <ele>68.7</ele>
        <time>2020-05-31T08:54:20Z</time>
      </trkpt>
      <trkpt lat="46.38366" lon="-0.31786">
        <ele>68.7</ele>
        <time>2020-05-31T08:54:21Z</time>
      </trkpt>
      <trkpt lat="46.38366" lon="-0.31794">
        <ele>68.7</ele>
        <time>2020-05-31T08:54:22Z</time>
      </trkpt>
      <trkpt lat="46.38366" lon="-0.318">
        <ele>68.6</ele>
        <time>2020-05-31T08:54:23Z</time>
      </trkpt>
      <trkpt lat="46.38366" lon="-0.31807">
        <ele>68.6</ele>
        <time>2020-05-31T08:54:24Z</time>
      </trkpt>
      <trkpt lat="46.38366" lon="-0.31814">
        <ele>68.6</ele>
        <time>2020-05-31T08:54:25Z</time>
      </trkpt>
      <trkpt lat="46.38366" lon="-0.3182">
        <ele>68.6</ele>
        <time>2020-05-31T08:54:26Z</time>
      </trkpt>
      <trkpt lat="46.38367" lon="-0.31826">
        <ele>68.6</ele>
        <time>2020-05-31T08:54:27Z</time>
      </trkpt>
      <trkpt lat="46.38367" lon="-0.3183">
        <ele>68.6</ele>
        <time>2020-05-31T08:54:28Z</time>
      </trkpt>
      <trkpt lat="46.38367" lon="-0.31838">
        <ele>68.6</ele>
        <time>2020-05-31T08:54:29Z</time>
      </trkpt>
      <trkpt lat="46.38367" lon="-0.31846">
        <ele>68.6</ele>
        <time>2020-05-31T08:54:30Z</time>
      </trkpt>
      <trkpt lat="46.38367" lon="-0.31852">
        <ele>68.5</ele>
        <time>2020-05-31T08:54:31Z</time>
      </trkpt>
      <trkpt lat="46.38367" lon="-0.3186">
        <ele>68.5</ele>
        <time>2020-05-31T08:54:32Z</time>
      </trkpt>
      <trkpt lat="46.38367" lon="-0.31868">
        <ele>68.5</ele>
        <time>2020-05-31T08:54:33Z</time>
      </trkpt>
      <trkpt lat="46.38366" lon="-0.31875">
        <ele>68.4</ele>
        <time>2020-05-31T08:54:34Z</time>
      </trkpt>
      <trkpt lat="46.38366" lon="-0.31884">
        <ele>68.4</ele>
        <time>2020-05-31T08:54:35Z</time>
      </trkpt>
      <trkpt lat="46.38366" lon="-0.31892">
        <ele>68.3</ele>
        <time>2020-05-31T08:54:36Z</time>
      </trkpt>
      <trkpt lat="46.38367" lon="-0.319">
        <ele>68.2</ele>
        <time>2020-05-31T08:54:37Z</time>
      </trkpt>
      <trkpt lat="46.38367" lon="-0.31908">
        <ele>68.1</ele>
        <time>2020-05-31T08:54:38Z</time>
      </trkpt>
      <trkpt lat="46.38367" lon="-0.31914">
        <ele>68.1</ele>
        <time>2020-05-31T08:54:39Z</time>
      </trkpt>
      <trkpt lat="46.38367" lon="-0.31922">
        <ele>68</ele>
        <time>2020-05-31T08:54:40Z</time>
      </trkpt>
      <trkpt lat="46.38367" lon="-0.31928">
        <ele>67.9</ele>
        <time>2020-05-31T08:54:41Z</time>
      </trkpt>
      <trkpt lat="46.38367" lon="-0.31936">
        <ele>67.9</ele>
        <time>2020-05-31T08:54:42Z</time>
      </trkpt>
      <trkpt lat="46.38367" lon="-0.31944">
        <ele>67.8</ele>
        <time>2020-05-31T08:54:43Z</time>
      </trkpt>
      <trkpt lat="46.38367" lon="-0.31952">
        <ele>67.8</ele>
        <time>2020-05-31T08:54:44Z</time>
      </trkpt>
      <trkpt lat="46.38366" lon="-0.3196">
        <ele>67.7</ele>
        <time>2020-05-31T08:54:45Z</time>
      </trkpt>
      <trkpt lat="46.38367" lon="-0.31967">
        <ele>67.7</ele>
        <time>2020-05-31T08:54:46Z</time>
      </trkpt>
      <trkpt lat="46.38367" lon="-0.31975">
        <ele>67.6</ele>
        <time>2020-05-31T08:54:47Z</time>
      </trkpt>
      <trkpt lat="46.38367" lon="-0.31982">
        <ele>67.6</ele>
        <time>2020-05-31T08:54:48Z</time>
      </trkpt>
      <trkpt lat="46.38366" lon="-0.3199">
        <ele>67.5</ele>
        <time>2020-05-31T08:54:49Z</time>
      </trkpt>
      <trkpt lat="46.38366" lon="-0.31998">
        <ele>67.5</ele>
        <time>2020-05-31T08:54:50Z</time>
      </trkpt>
      <trkpt lat="46.38366" lon="-0.32007">
        <ele>67.4</ele>
        <time>2020-05-31T08:54:51Z</time>
      </trkpt>
      <trkpt lat="46.38365" lon="-0.32016">
        <ele>67.4</ele>
        <time>2020-05-31T08:54:52Z</time>
      </trkpt>
      <trkpt lat="46.38364" lon="-0.32024">
        <ele>67.4</ele>
        <time>2020-05-31T08:54:53Z</time>
      </trkpt>
      <trkpt lat="46.38364" lon="-0.32032">
        <ele>67.4</ele>
        <time>2020-05-31T08:54:54Z</time>
      </trkpt>
      <trkpt lat="46.38363" lon="-0.32039">
        <ele>67.4</ele>
        <time>2020-05-31T08:54:55Z</time>
      </trkpt>
      <trkpt lat="46.38362" lon="-0.32047">
        <ele>67.4</ele>
        <time>2020-05-31T08:54:56Z</time>
      </trkpt>
      <trkpt lat="46.3836" lon="-0.32054">
        <ele>67.4</ele>
        <time>2020-05-31T08:54:57Z</time>
      </trkpt>
      <trkpt lat="46.38358" lon="-0.32062">
        <ele>67.4</ele>
        <time>2020-05-31T08:54:58Z</time>
      </trkpt>
      <trkpt lat="46.38358" lon="-0.32069">
        <ele>67.4</ele>
        <time>2020-05-31T08:54:59Z</time>
      </trkpt>
      <trkpt lat="46.38357" lon="-0.32077">
        <ele>67.4</ele>
        <time>2020-05-31T08:55:00Z</time>
      </trkpt>
      <trkpt lat="46.38356" lon="-0.32085">
        <ele>67.4</ele>
        <time>2020-05-31T08:55:01Z</time>
      </trkpt>
      <trkpt lat="46.38355" lon="-0.32093">
        <ele>67.4</ele>
        <time>2020-05-31T08:55:02Z</time>
      </trkpt>
      <trkpt lat="46.38354" lon="-0.32101">
        <ele>67.4</ele>
        <time>2020-05-31T08:55:03Z</time>
      </trkpt>
      <trkpt lat="46.38353" lon="-0.32108">
        <ele>67.4</ele>
        <time>2020-05-31T08:55:04Z</time>
      </trkpt>
      <trkpt lat="46.38351" lon="-0.32116">
        <ele>67.4</ele>
        <time>2020-05-31T08:55:05Z</time>
      </trkpt>
      <trkpt lat="46.3835" lon="-0.32124">
        <ele>67.3</ele>
        <time>2020-05-31T08:55:06Z</time>
      </trkpt>
      <trkpt lat="46.38348" lon="-0.32132">
        <ele>67.3</ele>
        <time>2020-05-31T08:55:07Z</time>
      </trkpt>
      <trkpt lat="46.38347" lon="-0.32139">
        <ele>67.3</ele>
        <time>2020-05-31T08:55:08Z</time>
      </trkpt>
      <trkpt lat="46.38346" lon="-0.32146">
        <ele>67.3</ele>
        <time>2020-05-31T08:55:09Z</time>
      </trkpt>
      <trkpt lat="46.38345" lon="-0.32154">
        <ele>67.3</ele>
        <time>2020-05-31T08:55:10Z</time>
      </trkpt>
      <trkpt lat="46.38345" lon="-0.32161">
        <ele>67.3</ele>
        <time>2020-05-31T08:55:11Z</time>
      </trkpt>
      <trkpt lat="46.38344" lon="-0.3217">
        <ele>67.3</ele>
        <time>2020-05-31T08:55:12Z</time>
      </trkpt>
      <trkpt lat="46.38343" lon="-0.32177">
        <ele>67.3</ele>
        <time>2020-05-31T08:55:13Z</time>
      </trkpt>
      <trkpt lat="46.38342" lon="-0.32186">
        <ele>67.3</ele>
        <time>2020-05-31T08:55:14Z</time>
      </trkpt>
      <trkpt lat="46.38341" lon="-0.32192">
        <ele>67.3</ele>
        <time>2020-05-31T08:55:15Z</time>
      </trkpt>
      <trkpt lat="46.3834" lon="-0.32199">
        <ele>67.3</ele>
        <time>2020-05-31T08:55:16Z</time>
      </trkpt>
      <trkpt lat="46.38338" lon="-0.32208">
        <ele>67.3</ele>
        <time>2020-05-31T08:55:17Z</time>
      </trkpt>
      <trkpt lat="46.38336" lon="-0.32215">
        <ele>67.3</ele>
        <time>2020-05-31T08:55:18Z</time>
      </trkpt>
      <trkpt lat="46.38336" lon="-0.32222">
        <ele>67.3</ele>
        <time>2020-05-31T08:55:19Z</time>
      </trkpt>
      <trkpt lat="46.38336" lon="-0.32229">
        <ele>67.3</ele>
        <time>2020-05-31T08:55:20Z</time>
      </trkpt>
      <trkpt lat="46.38338" lon="-0.32234">
        <ele>67.3</ele>
        <time>2020-05-31T08:55:21Z</time>
      </trkpt>
      <trkpt lat="46.38342" lon="-0.32235">
        <ele>67.1</ele>
        <time>2020-05-31T08:55:22Z</time>
      </trkpt>
      <trkpt lat="46.38347" lon="-0.32235">
        <ele>67</ele>
        <time>2020-05-31T08:55:23Z</time>
      </trkpt>
      <trkpt lat="46.38353" lon="-0.32235">
        <ele>66.8</ele>
        <time>2020-05-31T08:55:24Z</time>
      </trkpt>
      <trkpt lat="46.3836" lon="-0.32235">
        <ele>66.6</ele>
        <time>2020-05-31T08:55:25Z</time>
      </trkpt>
      <trkpt lat="46.38366" lon="-0.32236">
        <ele>66.3</ele>
        <time>2020-05-31T08:55:26Z</time>
      </trkpt>
      <trkpt lat="46.38373" lon="-0.32238">
        <ele>66.1</ele>
        <time>2020-05-31T08:55:27Z</time>
      </trkpt>
      <trkpt lat="46.38381" lon="-0.3224">
        <ele>65.8</ele>
        <time>2020-05-31T08:55:28Z</time>
      </trkpt>
      <trkpt lat="46.38389" lon="-0.32242">
        <ele>65.5</ele>
        <time>2020-05-31T08:55:29Z</time>
      </trkpt>
      <trkpt lat="46.38397" lon="-0.32244">
        <ele>65.2</ele>
        <time>2020-05-31T08:55:30Z</time>
      </trkpt>
      <trkpt lat="46.38407" lon="-0.32246">
        <ele>64.9</ele>
        <time>2020-05-31T08:55:31Z</time>
      </trkpt>
      <trkpt lat="46.38417" lon="-0.32249">
        <ele>64.6</ele>
        <time>2020-05-31T08:55:32Z</time>
      </trkpt>
      <trkpt lat="46.38426" lon="-0.32251">
        <ele>64.3</ele>
        <time>2020-05-31T08:55:33Z</time>
      </trkpt>
      <trkpt lat="46.38435" lon="-0.32254">
        <ele>64</ele>
        <time>2020-05-31T08:55:34Z</time>
      </trkpt>
      <trkpt lat="46.38445" lon="-0.32258">
        <ele>63.6</ele>
        <time>2020-05-31T08:55:35Z</time>
      </trkpt>
      <trkpt lat="46.38455" lon="-0.32263">
        <ele>63.3</ele>
        <time>2020-05-31T08:55:36Z</time>
      </trkpt>
      <trkpt lat="46.38465" lon="-0.32268">
        <ele>62.9</ele>
        <time>2020-05-31T08:55:37Z</time>
      </trkpt>
      <trkpt lat="46.38475" lon="-0.32274">
        <ele>62.5</ele>
        <time>2020-05-31T08:55:38Z</time>
      </trkpt>
      <trkpt lat="46.38485" lon="-0.3228">
        <ele>62</ele>
        <time>2020-05-31T08:55:39Z</time>
      </trkpt>
      <trkpt lat="46.38496" lon="-0.32286">
        <ele>61.6</ele>
        <time>2020-05-31T08:55:40Z</time>
      </trkpt>
      <trkpt lat="46.38506" lon="-0.32294">
        <ele>61.1</ele>
        <time>2020-05-31T08:55:41Z</time>
      </trkpt>
      <trkpt lat="46.38516" lon="-0.323">
        <ele>60.6</ele>
        <time>2020-05-31T08:55:42Z</time>
      </trkpt>
      <trkpt lat="46.38527" lon="-0.32307">
        <ele>59.9</ele>
        <time>2020-05-31T08:55:43Z</time>
      </trkpt>
      <trkpt lat="46.38538" lon="-0.32316">
        <ele>59.3</ele>
        <time>2020-05-31T08:55:44Z</time>
      </trkpt>
      <trkpt lat="46.38548" lon="-0.32324">
        <ele>58.6</ele>
        <time>2020-05-31T08:55:45Z</time>
      </trkpt>
      <trkpt lat="46.38559" lon="-0.32333">
        <ele>57.8</ele>
        <time>2020-05-31T08:55:46Z</time>
      </trkpt>
      <trkpt lat="46.38571" lon="-0.32342">
        <ele>56.9</ele>
        <time>2020-05-31T08:55:47Z</time>
      </trkpt>
      <trkpt lat="46.38582" lon="-0.32353">
        <ele>56</ele>
        <time>2020-05-31T08:55:48Z</time>
      </trkpt>
      <trkpt lat="46.38593" lon="-0.32364">
        <ele>55.2</ele>
        <time>2020-05-31T08:55:49Z</time>
      </trkpt>
      <trkpt lat="46.38604" lon="-0.32374">
        <ele>54.3</ele>
        <time>2020-05-31T08:55:50Z</time>
      </trkpt>
      <trkpt lat="46.38615" lon="-0.32386">
        <ele>53.4</ele>
        <time>2020-05-31T08:55:51Z</time>
      </trkpt>
      <trkpt lat="46.38626" lon="-0.32397">
        <ele>52.4</ele>
        <time>2020-05-31T08:55:52Z</time>
      </trkpt>
      <trkpt lat="46.38637" lon="-0.32409">
        <ele>51.4</ele>
        <time>2020-05-31T08:55:53Z</time>
      </trkpt>
      <trkpt lat="46.38648" lon="-0.32422">
        <ele>50.4</ele>
        <time>2020-05-31T08:55:54Z</time>
      </trkpt>
      <trkpt lat="46.38659" lon="-0.32434">
        <ele>49.3</ele>
        <time>2020-05-31T08:55:55Z</time>
      </trkpt>
      <trkpt lat="46.38669" lon="-0.32449">
        <ele>48.1</ele>
        <time>2020-05-31T08:55:56Z</time>
      </trkpt>
      <trkpt lat="46.38678" lon="-0.32465">
        <ele>47</ele>
        <time>2020-05-31T08:55:57Z</time>
      </trkpt>
      <trkpt lat="46.38687" lon="-0.3248">
        <ele>45.9</ele>
        <time>2020-05-31T08:55:58Z</time>
      </trkpt>
      <trkpt lat="46.38696" lon="-0.32497">
        <ele>44.8</ele>
        <time>2020-05-31T08:55:59Z</time>
      </trkpt>
      <trkpt lat="46.38705" lon="-0.32515">
        <ele>43.7</ele>
        <time>2020-05-31T08:56:00Z</time>
      </trkpt>
      <trkpt lat="46.38714" lon="-0.32532">
        <ele>42.7</ele>
        <time>2020-05-31T08:56:01Z</time>
      </trkpt>
      <trkpt lat="46.38722" lon="-0.3255">
        <ele>41.9</ele>
        <time>2020-05-31T08:56:02Z</time>
      </trkpt>
      <trkpt lat="46.38731" lon="-0.32567">
        <ele>41.4</ele>
        <time>2020-05-31T08:56:03Z</time>
      </trkpt>
      <trkpt lat="46.3874" lon="-0.32583">
        <ele>41</ele>
        <time>2020-05-31T08:56:04Z</time>
      </trkpt>
      <trkpt lat="46.38747" lon="-0.326">
        <ele>40.8</ele>
        <time>2020-05-31T08:56:05Z</time>
      </trkpt>
      <trkpt lat="46.38753" lon="-0.32617">
        <ele>40.7</ele>
        <time>2020-05-31T08:56:06Z</time>
      </trkpt>
      <trkpt lat="46.38759" lon="-0.32633">
        <ele>40.6</ele>
        <time>2020-05-31T08:56:07Z</time>
      </trkpt>
      <trkpt lat="46.38764" lon="-0.32649">
        <ele>40.5</ele>
        <time>2020-05-31T08:56:08Z</time>
      </trkpt>
      <trkpt lat="46.38769" lon="-0.32663">
        <ele>40.5</ele>
        <time>2020-05-31T08:56:09Z</time>
      </trkpt>
      <trkpt lat="46.38774" lon="-0.32677">
        <ele>40.4</ele>
        <time>2020-05-31T08:56:10Z</time>
      </trkpt>
      <trkpt lat="46.38779" lon="-0.32691">
        <ele>40.4</ele>
        <time>2020-05-31T08:56:11Z</time>
      </trkpt>
      <trkpt lat="46.38784" lon="-0.32703">
        <ele>40.4</ele>
        <time>2020-05-31T08:56:12Z</time>
      </trkpt>
      <trkpt lat="46.38788" lon="-0.32715">
        <ele>40.3</ele>
        <time>2020-05-31T08:56:13Z</time>
      </trkpt>
      <trkpt lat="46.38792" lon="-0.32726">
        <ele>40.3</ele>
        <time>2020-05-31T08:56:14Z</time>
      </trkpt>
      <trkpt lat="46.38797" lon="-0.32736">
        <ele>40.3</ele>
        <time>2020-05-31T08:56:15Z</time>
      </trkpt>
      <trkpt lat="46.38801" lon="-0.32747">
        <ele>40.3</ele>
        <time>2020-05-31T08:56:16Z</time>
      </trkpt>
      <trkpt lat="46.38806" lon="-0.32757">
        <ele>40.3</ele>
        <time>2020-05-31T08:56:17Z</time>
      </trkpt>
      <trkpt lat="46.38809" lon="-0.32767">
        <ele>40.3</ele>
        <time>2020-05-31T08:56:18Z</time>
      </trkpt>
      <trkpt lat="46.38813" lon="-0.32777">
        <ele>40.3</ele>
        <time>2020-05-31T08:56:19Z</time>
      </trkpt>
      <trkpt lat="46.38816" lon="-0.32787">
        <ele>40.3</ele>
        <time>2020-05-31T08:56:20Z</time>
      </trkpt>
      <trkpt lat="46.3882" lon="-0.32797">
        <ele>40.3</ele>
        <time>2020-05-31T08:56:21Z</time>
      </trkpt>
      <trkpt lat="46.38823" lon="-0.32806">
        <ele>40.4</ele>
        <time>2020-05-31T08:56:22Z</time>
      </trkpt>
      <trkpt lat="46.38827" lon="-0.32816">
        <ele>40.5</ele>
        <time>2020-05-31T08:56:23Z</time>
      </trkpt>
      <trkpt lat="46.38831" lon="-0.32826">
        <ele>40.5</ele>
        <time>2020-05-31T08:56:24Z</time>
      </trkpt>
      <trkpt lat="46.38834" lon="-0.32837">
        <ele>40.5</ele>
        <time>2020-05-31T08:56:25Z</time>
      </trkpt>
      <trkpt lat="46.38838" lon="-0.32846">
        <ele>40.5</ele>
        <time>2020-05-31T08:56:26Z</time>
      </trkpt>
      <trkpt lat="46.38842" lon="-0.32856">
        <ele>40.5</ele>
        <time>2020-05-31T08:56:27Z</time>
      </trkpt>
      <trkpt lat="46.38845" lon="-0.32866">
        <ele>40.5</ele>
        <time>2020-05-31T08:56:28Z</time>
      </trkpt>
      <trkpt lat="46.38849" lon="-0.32876">
        <ele>40.5</ele>
        <time>2020-05-31T08:56:29Z</time>
      </trkpt>
      <trkpt lat="46.38852" lon="-0.32886">
        <ele>40.6</ele>
        <time>2020-05-31T08:56:30Z</time>
      </trkpt>
      <trkpt lat="46.38855" lon="-0.32895">
        <ele>40.7</ele>
        <time>2020-05-31T08:56:31Z</time>
      </trkpt>
      <trkpt lat="46.38859" lon="-0.32904">
        <ele>40.8</ele>
        <time>2020-05-31T08:56:32Z</time>
      </trkpt>
      <trkpt lat="46.38862" lon="-0.32913">
        <ele>40.9</ele>
        <time>2020-05-31T08:56:33Z</time>
      </trkpt>
      <trkpt lat="46.38865" lon="-0.32922">
        <ele>41</ele>
        <time>2020-05-31T08:56:34Z</time>
      </trkpt>
      <trkpt lat="46.38869" lon="-0.3293">
        <ele>41.1</ele>
        <time>2020-05-31T08:56:35Z</time>
      </trkpt>
      <trkpt lat="46.38872" lon="-0.32939">
        <ele>41.3</ele>
        <time>2020-05-31T08:56:36Z</time>
      </trkpt>
      <trkpt lat="46.38875" lon="-0.32947">
        <ele>41.5</ele>
        <time>2020-05-31T08:56:37Z</time>
      </trkpt>
      <trkpt lat="46.38878" lon="-0.32956">
        <ele>41.7</ele>
        <time>2020-05-31T08:56:38Z</time>
      </trkpt>
      <trkpt lat="46.38881" lon="-0.32964">
        <ele>41.9</ele>
        <time>2020-05-31T08:56:39Z</time>
      </trkpt>
      <trkpt lat="46.38884" lon="-0.32972">
        <ele>42.1</ele>
        <time>2020-05-31T08:56:40Z</time>
      </trkpt>
      <trkpt lat="46.38887" lon="-0.3298">
        <ele>42.4</ele>
        <time>2020-05-31T08:56:41Z</time>
      </trkpt>
      <trkpt lat="46.38889" lon="-0.32988">
        <ele>42.6</ele>
        <time>2020-05-31T08:56:42Z</time>
      </trkpt>
      <trkpt lat="46.38891" lon="-0.32995">
        <ele>42.9</ele>
        <time>2020-05-31T08:56:43Z</time>
      </trkpt>
      <trkpt lat="46.38894" lon="-0.33003">
        <ele>43.2</ele>
        <time>2020-05-31T08:56:44Z</time>
      </trkpt>
      <trkpt lat="46.38896" lon="-0.3301">
        <ele>43.4</ele>
        <time>2020-05-31T08:56:45Z</time>
      </trkpt>
      <trkpt lat="46.38899" lon="-0.33017">
        <ele>43.7</ele>
        <time>2020-05-31T08:56:46Z</time>
      </trkpt>
      <trkpt lat="46.38902" lon="-0.33024">
        <ele>44</ele>
        <time>2020-05-31T08:56:47Z</time>
      </trkpt>
      <trkpt lat="46.38905" lon="-0.3303">
        <ele>44.3</ele>
        <time>2020-05-31T08:56:48Z</time>
      </trkpt>
      <trkpt lat="46.38907" lon="-0.33036">
        <ele>44.6</ele>
        <time>2020-05-31T08:56:49Z</time>
      </trkpt>
      <trkpt lat="46.3891" lon="-0.3304">
        <ele>44.9</ele>
        <time>2020-05-31T08:56:50Z</time>
      </trkpt>
      <trkpt lat="46.38912" lon="-0.33046">
        <ele>45.1</ele>
        <time>2020-05-31T08:56:51Z</time>
      </trkpt>
      <trkpt lat="46.38913" lon="-0.33051">
        <ele>45.4</ele>
        <time>2020-05-31T08:56:52Z</time>
      </trkpt>
      <trkpt lat="46.38915" lon="-0.33056">
        <ele>45.7</ele>
        <time>2020-05-31T08:56:53Z</time>
      </trkpt>
      <trkpt lat="46.38916" lon="-0.33061">
        <ele>46</ele>
        <time>2020-05-31T08:56:54Z</time>
      </trkpt>
      <trkpt lat="46.38917" lon="-0.33067">
        <ele>46.3</ele>
        <time>2020-05-31T08:56:55Z</time>
      </trkpt>
      <trkpt lat="46.38918" lon="-0.33071">
        <ele>46.6</ele>
        <time>2020-05-31T08:56:56Z</time>
      </trkpt>
      <trkpt lat="46.3892" lon="-0.33076">
        <ele>46.9</ele>
        <time>2020-05-31T08:56:57Z</time>
      </trkpt>
      <trkpt lat="46.38921" lon="-0.33081">
        <ele>47.2</ele>
        <time>2020-05-31T08:56:58Z</time>
      </trkpt>
      <trkpt lat="46.38923" lon="-0.33085">
        <ele>47.4</ele>
        <time>2020-05-31T08:56:59Z</time>
      </trkpt>
      <trkpt lat="46.38925" lon="-0.3309">
        <ele>47.7</ele>
        <time>2020-05-31T08:57:00Z</time>
      </trkpt>
      <trkpt lat="46.38927" lon="-0.33093">
        <ele>47.9</ele>
        <time>2020-05-31T08:57:01Z</time>
      </trkpt>
      <trkpt lat="46.38929" lon="-0.33097">
        <ele>48.2</ele>
        <time>2020-05-31T08:57:02Z</time>
      </trkpt>
      <trkpt lat="46.38931" lon="-0.331">
        <ele>48.4</ele>
        <time>2020-05-31T08:57:03Z</time>
      </trkpt>
      <trkpt lat="46.38933" lon="-0.33105">
        <ele>48.7</ele>
        <time>2020-05-31T08:57:04Z</time>
      </trkpt>
      <trkpt lat="46.38935" lon="-0.3311">
        <ele>49</ele>
        <time>2020-05-31T08:57:05Z</time>
      </trkpt>
      <trkpt lat="46.38936" lon="-0.33115">
        <ele>49.3</ele>
        <time>2020-05-31T08:57:06Z</time>
      </trkpt>
      <trkpt lat="46.38938" lon="-0.3312">
        <ele>49.6</ele>
        <time>2020-05-31T08:57:07Z</time>
      </trkpt>
      <trkpt lat="46.38939" lon="-0.33123">
        <ele>49.8</ele>
        <time>2020-05-31T08:57:08Z</time>
      </trkpt>
      <trkpt lat="46.3894" lon="-0.33127">
        <ele>50.1</ele>
        <time>2020-05-31T08:57:09Z</time>
      </trkpt>
      <trkpt lat="46.38942" lon="-0.33131">
        <ele>50.4</ele>
        <time>2020-05-31T08:57:10Z</time>
      </trkpt>
      <trkpt lat="46.38944" lon="-0.33137">
        <ele>50.8</ele>
        <time>2020-05-31T08:57:11Z</time>
      </trkpt>
      <trkpt lat="46.38945" lon="-0.33139">
        <ele>51</ele>
        <time>2020-05-31T08:57:12Z</time>
      </trkpt>
      <trkpt lat="46.38947" lon="-0.33143">
        <ele>51.3</ele>
        <time>2020-05-31T08:57:13Z</time>
      </trkpt>
      <trkpt lat="46.38949" lon="-0.33147">
        <ele>51.6</ele>
        <time>2020-05-31T08:57:14Z</time>
      </trkpt>
      <trkpt lat="46.38951" lon="-0.33153">
        <ele>52</ele>
        <time>2020-05-31T08:57:15Z</time>
      </trkpt>
      <trkpt lat="46.38952" lon="-0.33156">
        <ele>52.2</ele>
        <time>2020-05-31T08:57:16Z</time>
      </trkpt>
      <trkpt lat="46.38954" lon="-0.33161">
        <ele>52.6</ele>
        <time>2020-05-31T08:57:17Z</time>
      </trkpt>
      <trkpt lat="46.38955" lon="-0.33166">
        <ele>52.9</ele>
        <time>2020-05-31T08:57:18Z</time>
      </trkpt>
      <trkpt lat="46.38958" lon="-0.33172">
        <ele>53.3</ele>
        <time>2020-05-31T08:57:19Z</time>
      </trkpt>
      <trkpt lat="46.3896" lon="-0.33176">
        <ele>53.6</ele>
        <time>2020-05-31T08:57:20Z</time>
      </trkpt>
      <trkpt lat="46.38962" lon="-0.3318">
        <ele>53.9</ele>
        <time>2020-05-31T08:57:21Z</time>
      </trkpt>
      <trkpt lat="46.38963" lon="-0.33184">
        <ele>54.1</ele>
        <time>2020-05-31T08:57:22Z</time>
      </trkpt>
      <trkpt lat="46.38966" lon="-0.3319">
        <ele>54.4</ele>
        <time>2020-05-31T08:57:23Z</time>
      </trkpt>
      <trkpt lat="46.38967" lon="-0.33192">
        <ele>54.6</ele>
        <time>2020-05-31T08:57:24Z</time>
      </trkpt>
      <trkpt lat="46.38968" lon="-0.33198">
        <ele>54.9</ele>
        <time>2020-05-31T08:57:25Z</time>
      </trkpt>
      <trkpt lat="46.38968" lon="-0.332">
        <ele>55</ele>
        <time>2020-05-31T08:57:26Z</time>
      </trkpt>
      <trkpt lat="46.38971" lon="-0.33206">
        <ele>55.3</ele>
        <time>2020-05-31T08:57:27Z</time>
      </trkpt>
      <trkpt lat="46.38972" lon="-0.33208">
        <ele>55.4</ele>
        <time>2020-05-31T08:57:28Z</time>
      </trkpt>
      <trkpt lat="46.38973" lon="-0.33213">
        <ele>55.6</ele>
        <time>2020-05-31T08:57:29Z</time>
      </trkpt>
      <trkpt lat="46.38975" lon="-0.33216">
        <ele>55.8</ele>
        <time>2020-05-31T08:57:30Z</time>
      </trkpt>
      <trkpt lat="46.38976" lon="-0.33221">
        <ele>56.1</ele>
        <time>2020-05-31T08:57:31Z</time>
      </trkpt>
      <trkpt lat="46.38977" lon="-0.33222">
        <ele>56.1</ele>
        <time>2020-05-31T08:57:32Z</time>
      </trkpt>
      <trkpt lat="46.38978" lon="-0.33227">
        <ele>56.4</ele>
        <time>2020-05-31T08:57:33Z</time>
      </trkpt>
      <trkpt lat="46.3898" lon="-0.33232">
        <ele>56.6</ele>
        <time>2020-05-31T08:57:34Z</time>
      </trkpt>
      <trkpt lat="46.38982" lon="-0.33238">
        <ele>57</ele>
        <time>2020-05-31T08:57:35Z</time>
      </trkpt>
      <trkpt lat="46.38983" lon="-0.33242">
        <ele>57.2</ele>
        <time>2020-05-31T08:57:36Z</time>
      </trkpt>
      <trkpt lat="46.38985" lon="-0.33246">
        <ele>57.5</ele>
        <time>2020-05-31T08:57:37Z</time>
      </trkpt>
      <trkpt lat="46.38987" lon="-0.33251">
        <ele>57.7</ele>
        <time>2020-05-31T08:57:38Z</time>
      </trkpt>
      <trkpt lat="46.38988" lon="-0.33255">
        <ele>58</ele>
        <time>2020-05-31T08:57:39Z</time>
      </trkpt>
      <trkpt lat="46.3899" lon="-0.3326">
        <ele>58.3</ele>
        <time>2020-05-31T08:57:40Z</time>
      </trkpt>
      <trkpt lat="46.38992" lon="-0.33265">
        <ele>58.6</ele>
        <time>2020-05-31T08:57:41Z</time>
      </trkpt>
      <trkpt lat="46.38994" lon="-0.33271">
        <ele>59.1</ele>
        <time>2020-05-31T08:57:42Z</time>
      </trkpt>
      <trkpt lat="46.38996" lon="-0.33277">
        <ele>59.5</ele>
        <time>2020-05-31T08:57:43Z</time>
      </trkpt>
      <trkpt lat="46.38999" lon="-0.33282">
        <ele>59.9</ele>
        <time>2020-05-31T08:57:44Z</time>
      </trkpt>
      <trkpt lat="46.39" lon="-0.33286">
        <ele>60.1</ele>
        <time>2020-05-31T08:57:45Z</time>
      </trkpt>
      <trkpt lat="46.39002" lon="-0.3329">
        <ele>60.5</ele>
        <time>2020-05-31T08:57:46Z</time>
      </trkpt>
      <trkpt lat="46.39003" lon="-0.33295">
        <ele>60.8</ele>
        <time>2020-05-31T08:57:47Z</time>
      </trkpt>
      <trkpt lat="46.39005" lon="-0.33299">
        <ele>61.1</ele>
        <time>2020-05-31T08:57:48Z</time>
      </trkpt>
      <trkpt lat="46.39006" lon="-0.33305">
        <ele>61.5</ele>
        <time>2020-05-31T08:57:49Z</time>
      </trkpt>
      <trkpt lat="46.39007" lon="-0.33308">
        <ele>61.7</ele>
        <time>2020-05-31T08:57:50Z</time>
      </trkpt>
      <trkpt lat="46.39008" lon="-0.33311">
        <ele>61.9</ele>
        <time>2020-05-31T08:57:51Z</time>
      </trkpt>
      <trkpt lat="46.39009" lon="-0.33318">
        <ele>62.3</ele>
        <time>2020-05-31T08:57:52Z</time>
      </trkpt>
      <trkpt lat="46.3901" lon="-0.33321">
        <ele>62.5</ele>
        <time>2020-05-31T08:57:53Z</time>
      </trkpt>
      <trkpt lat="46.39012" lon="-0.33326">
        <ele>62.8</ele>
        <time>2020-05-31T08:57:54Z</time>
      </trkpt>
      <trkpt lat="46.39013" lon="-0.33328">
        <ele>63</ele>
        <time>2020-05-31T08:57:55Z</time>
      </trkpt>
      <trkpt lat="46.39015" lon="-0.33332">
        <ele>63.2</ele>
        <time>2020-05-31T08:57:56Z</time>
      </trkpt>
      <trkpt lat="46.39016" lon="-0.33337">
        <ele>63.5</ele>
        <time>2020-05-31T08:57:57Z</time>
      </trkpt>
      <trkpt lat="46.39017" lon="-0.33341">
        <ele>63.7</ele>
        <time>2020-05-31T08:57:58Z</time>
      </trkpt>
      <trkpt lat="46.39019" lon="-0.33345">
        <ele>63.9</ele>
        <time>2020-05-31T08:57:59Z</time>
      </trkpt>
      <trkpt lat="46.3902" lon="-0.33349">
        <ele>64.1</ele>
        <time>2020-05-31T08:58:00Z</time>
      </trkpt>
      <trkpt lat="46.39021" lon="-0.33353">
        <ele>64.2</ele>
        <time>2020-05-31T08:58:01Z</time>
      </trkpt>
      <trkpt lat="46.39022" lon="-0.33358">
        <ele>64.4</ele>
        <time>2020-05-31T08:58:02Z</time>
      </trkpt>
      <trkpt lat="46.39023" lon="-0.3336">
        <ele>64.4</ele>
        <time>2020-05-31T08:58:03Z</time>
      </trkpt>
      <trkpt lat="46.39024" lon="-0.33364">
        <ele>64.6</ele>
        <time>2020-05-31T08:58:04Z</time>
      </trkpt>
      <trkpt lat="46.39025" lon="-0.33369">
        <ele>64.7</ele>
        <time>2020-05-31T08:58:05Z</time>
      </trkpt>
      <trkpt lat="46.39026" lon="-0.33373">
        <ele>64.8</ele>
        <time>2020-05-31T08:58:06Z</time>
      </trkpt>
      <trkpt lat="46.39027" lon="-0.33379">
        <ele>65</ele>
        <time>2020-05-31T08:58:07Z</time>
      </trkpt>
      <trkpt lat="46.39028" lon="-0.33381">
        <ele>65.1</ele>
        <time>2020-05-31T08:58:08Z</time>
      </trkpt>
      <trkpt lat="46.39029" lon="-0.33386">
        <ele>65.3</ele>
        <time>2020-05-31T08:58:09Z</time>
      </trkpt>
      <trkpt lat="46.3903" lon="-0.3339">
        <ele>65.5</ele>
        <time>2020-05-31T08:58:10Z</time>
      </trkpt>
      <trkpt lat="46.39031" lon="-0.33395">
        <ele>65.7</ele>
        <time>2020-05-31T08:58:11Z</time>
      </trkpt>
      <trkpt lat="46.39032" lon="-0.33399">
        <ele>65.9</ele>
        <time>2020-05-31T08:58:12Z</time>
      </trkpt>
      <trkpt lat="46.39033" lon="-0.33403">
        <ele>66</ele>
        <time>2020-05-31T08:58:13Z</time>
      </trkpt>
      <trkpt lat="46.39035" lon="-0.33407">
        <ele>66.3</ele>
        <time>2020-05-31T08:58:14Z</time>
      </trkpt>
      <trkpt lat="46.39035" lon="-0.33411">
        <ele>66.4</ele>
        <time>2020-05-31T08:58:15Z</time>
      </trkpt>
      <trkpt lat="46.39037" lon="-0.33417">
        <ele>66.7</ele>
        <time>2020-05-31T08:58:16Z</time>
      </trkpt>
      <trkpt lat="46.39038" lon="-0.33423">
        <ele>67</ele>
        <time>2020-05-31T08:58:17Z</time>
      </trkpt>
      <trkpt lat="46.39038" lon="-0.33428">
        <ele>67.2</ele>
        <time>2020-05-31T08:58:18Z</time>
      </trkpt>
      <trkpt lat="46.3904" lon="-0.33433">
        <ele>67.4</ele>
        <time>2020-05-31T08:58:19Z</time>
      </trkpt>
      <trkpt lat="46.39041" lon="-0.33438">
        <ele>67.6</ele>
        <time>2020-05-31T08:58:20Z</time>
      </trkpt>
      <trkpt lat="46.39042" lon="-0.33443">
        <ele>67.8</ele>
        <time>2020-05-31T08:58:21Z</time>
      </trkpt>
      <trkpt lat="46.39042" lon="-0.33447">
        <ele>67.9</ele>
        <time>2020-05-31T08:58:22Z</time>
      </trkpt>
      <trkpt lat="46.39043" lon="-0.33449">
        <ele>68</ele>
        <time>2020-05-31T08:58:23Z</time>
      </trkpt>
      <trkpt lat="46.39044" lon="-0.33455">
        <ele>68.3</ele>
        <time>2020-05-31T08:58:24Z</time>
      </trkpt>
      <trkpt lat="46.39045" lon="-0.3346">
        <ele>68.4</ele>
        <time>2020-05-31T08:58:25Z</time>
      </trkpt>
      <trkpt lat="46.39046" lon="-0.33465">
        <ele>68.5</ele>
        <time>2020-05-31T08:58:26Z</time>
      </trkpt>
      <trkpt lat="46.39046" lon="-0.3347">
        <ele>68.7</ele>
        <time>2020-05-31T08:58:27Z</time>
      </trkpt>
      <trkpt lat="46.39047" lon="-0.33476">
        <ele>68.8</ele>
        <time>2020-05-31T08:58:28Z</time>
      </trkpt>
      <trkpt lat="46.39049" lon="-0.33482">
        <ele>69</ele>
        <time>2020-05-31T08:58:29Z</time>
      </trkpt>
      <trkpt lat="46.39049" lon="-0.33486">
        <ele>69.1</ele>
        <time>2020-05-31T08:58:30Z</time>
      </trkpt>
      <trkpt lat="46.39051" lon="-0.33491">
        <ele>69.2</ele>
        <time>2020-05-31T08:58:31Z</time>
      </trkpt>
      <trkpt lat="46.39052" lon="-0.33496">
        <ele>69.4</ele>
        <time>2020-05-31T08:58:32Z</time>
      </trkpt>
      <trkpt lat="46.39053" lon="-0.33501">
        <ele>69.5</ele>
        <time>2020-05-31T08:58:33Z</time>
      </trkpt>
      <trkpt lat="46.39054" lon="-0.33508">
        <ele>69.6</ele>
        <time>2020-05-31T08:58:34Z</time>
      </trkpt>
      <trkpt lat="46.39055" lon="-0.33513">
        <ele>69.7</ele>
        <time>2020-05-31T08:58:35Z</time>
      </trkpt>
      <trkpt lat="46.39055" lon="-0.33517">
        <ele>69.8</ele>
        <time>2020-05-31T08:58:36Z</time>
      </trkpt>
      <trkpt lat="46.39056" lon="-0.33521">
        <ele>69.9</ele>
        <time>2020-05-31T08:58:37Z</time>
      </trkpt>
      <trkpt lat="46.39057" lon="-0.33525">
        <ele>70</ele>
        <time>2020-05-31T08:58:38Z</time>
      </trkpt>
      <trkpt lat="46.39058" lon="-0.3353">
        <ele>70.1</ele>
        <time>2020-05-31T08:58:39Z</time>
      </trkpt>
      <trkpt lat="46.39059" lon="-0.33536">
        <ele>70.2</ele>
        <time>2020-05-31T08:58:40Z</time>
      </trkpt>
      <trkpt lat="46.3906" lon="-0.33541">
        <ele>70.3</ele>
        <time>2020-05-31T08:58:41Z</time>
      </trkpt>
      <trkpt lat="46.39061" lon="-0.33546">
        <ele>70.3</ele>
        <time>2020-05-31T08:58:42Z</time>
      </trkpt>
      <trkpt lat="46.39062" lon="-0.3355">
        <ele>70.4</ele>
        <time>2020-05-31T08:58:43Z</time>
      </trkpt>
      <trkpt lat="46.39063" lon="-0.33555">
        <ele>70.5</ele>
        <time>2020-05-31T08:58:44Z</time>
      </trkpt>
      <trkpt lat="46.39065" lon="-0.3356">
        <ele>70.5</ele>
        <time>2020-05-31T08:58:45Z</time>
      </trkpt>
      <trkpt lat="46.39066" lon="-0.33565">
        <ele>70.6</ele>
        <time>2020-05-31T08:58:46Z</time>
      </trkpt>
      <trkpt lat="46.39067" lon="-0.33569">
        <ele>70.6</ele>
        <time>2020-05-31T08:58:47Z</time>
      </trkpt>
      <trkpt lat="46.39069" lon="-0.33574">
        <ele>70.7</ele>
        <time>2020-05-31T08:58:48Z</time>
      </trkpt>
      <trkpt lat="46.3907" lon="-0.33577">
        <ele>70.7</ele>
        <time>2020-05-31T08:58:49Z</time>
      </trkpt>
      <trkpt lat="46.39071" lon="-0.33581">
        <ele>70.8</ele>
        <time>2020-05-31T08:58:50Z</time>
      </trkpt>
      <trkpt lat="46.39072" lon="-0.33586">
        <ele>70.8</ele>
        <time>2020-05-31T08:58:51Z</time>
      </trkpt>
      <trkpt lat="46.39073" lon="-0.33592">
        <ele>70.8</ele>
        <time>2020-05-31T08:58:52Z</time>
      </trkpt>
      <trkpt lat="46.39073" lon="-0.33595">
        <ele>70.8</ele>
        <time>2020-05-31T08:58:53Z</time>
      </trkpt>
      <trkpt lat="46.39074" lon="-0.33599">
        <ele>70.8</ele>
        <time>2020-05-31T08:58:54Z</time>
      </trkpt>
      <trkpt lat="46.39075" lon="-0.33603">
        <ele>70.8</ele>
        <time>2020-05-31T08:58:55Z</time>
      </trkpt>
      <trkpt lat="46.39075" lon="-0.33608">
        <ele>70.8</ele>
        <time>2020-05-31T08:58:56Z</time>
      </trkpt>
      <trkpt lat="46.39076" lon="-0.33613">
        <ele>70.7</ele>
        <time>2020-05-31T08:58:57Z</time>
      </trkpt>
      <trkpt lat="46.39078" lon="-0.33616">
        <ele>70.7</ele>
        <time>2020-05-31T08:58:58Z</time>
      </trkpt>
      <trkpt lat="46.3908" lon="-0.33624">
        <ele>70.6</ele>
        <time>2020-05-31T08:58:59Z</time>
      </trkpt>
      <trkpt lat="46.39081" lon="-0.33629">
        <ele>70.5</ele>
        <time>2020-05-31T08:59:00Z</time>
      </trkpt>
      <trkpt lat="46.39082" lon="-0.33634">
        <ele>70.4</ele>
        <time>2020-05-31T08:59:01Z</time>
      </trkpt>
      <trkpt lat="46.39083" lon="-0.3364">
        <ele>70.3</ele>
        <time>2020-05-31T08:59:02Z</time>
      </trkpt>
      <trkpt lat="46.39085" lon="-0.33646">
        <ele>70.2</ele>
        <time>2020-05-31T08:59:03Z</time>
      </trkpt>
      <trkpt lat="46.39086" lon="-0.33652">
        <ele>70</ele>
        <time>2020-05-31T08:59:04Z</time>
      </trkpt>
      <trkpt lat="46.39088" lon="-0.33659">
        <ele>69.9</ele>
        <time>2020-05-31T08:59:05Z</time>
      </trkpt>
      <trkpt lat="46.3909" lon="-0.33667">
        <ele>69.7</ele>
        <time>2020-05-31T08:59:06Z</time>
      </trkpt>
      <trkpt lat="46.39093" lon="-0.33675">
        <ele>69.5</ele>
        <time>2020-05-31T08:59:07Z</time>
      </trkpt>
      <trkpt lat="46.39095" lon="-0.33682">
        <ele>69.3</ele>
        <time>2020-05-31T08:59:08Z</time>
      </trkpt>
      <trkpt lat="46.39097" lon="-0.33691">
        <ele>69.1</ele>
        <time>2020-05-31T08:59:09Z</time>
      </trkpt>
      <trkpt lat="46.39099" lon="-0.33699">
        <ele>69</ele>
        <time>2020-05-31T08:59:10Z</time>
      </trkpt>
      <trkpt lat="46.39101" lon="-0.33708">
        <ele>68.8</ele>
        <time>2020-05-31T08:59:11Z</time>
      </trkpt>
      <trkpt lat="46.39104" lon="-0.33718">
        <ele>68.5</ele>
        <time>2020-05-31T08:59:12Z</time>
      </trkpt>
      <trkpt lat="46.39108" lon="-0.33726">
        <ele>68.4</ele>
        <time>2020-05-31T08:59:13Z</time>
      </trkpt>
      <trkpt lat="46.39111" lon="-0.33733">
        <ele>68.2</ele>
        <time>2020-05-31T08:59:14Z</time>
      </trkpt>
      <trkpt lat="46.39113" lon="-0.33741">
        <ele>68.1</ele>
        <time>2020-05-31T08:59:15Z</time>
      </trkpt>
      <trkpt lat="46.39115" lon="-0.33747">
        <ele>68</ele>
        <time>2020-05-31T08:59:16Z</time>
      </trkpt>
      <trkpt lat="46.39118" lon="-0.33753">
        <ele>68</ele>
        <time>2020-05-31T08:59:17Z</time>
      </trkpt>
      <trkpt lat="46.3912" lon="-0.33759">
        <ele>68</ele>
        <time>2020-05-31T08:59:18Z</time>
      </trkpt>
      <trkpt lat="46.39122" lon="-0.33762">
        <ele>68.1</ele>
        <time>2020-05-31T08:59:19Z</time>
      </trkpt>
      <trkpt lat="46.39123" lon="-0.33766">
        <ele>68.1</ele>
        <time>2020-05-31T08:59:20Z</time>
      </trkpt>
      <trkpt lat="46.39124" lon="-0.33768">
        <ele>68</ele>
        <time>2020-05-31T08:59:21Z</time>
      </trkpt>
      <trkpt lat="46.39124" lon="-0.33769">
        <ele>68</ele>
        <time>2020-05-31T08:59:22Z</time>
      </trkpt>
      <trkpt lat="46.39123" lon="-0.33775">
        <ele>68</ele>
        <time>2020-05-31T08:59:23Z</time>
      </trkpt>
      <trkpt lat="46.39121" lon="-0.33777">
        <ele>68</ele>
        <time>2020-05-31T08:59:24Z</time>
      </trkpt>
      <trkpt lat="46.39118" lon="-0.33781">
        <ele>68</ele>
        <time>2020-05-31T08:59:25Z</time>
      </trkpt>
      <trkpt lat="46.39114" lon="-0.33782">
        <ele>67.9</ele>
        <time>2020-05-31T08:59:26Z</time>
      </trkpt>
      <trkpt lat="46.3911" lon="-0.33782">
        <ele>67.9</ele>
        <time>2020-05-31T08:59:27Z</time>
      </trkpt>
      <trkpt lat="46.39105" lon="-0.33782">
        <ele>67.9</ele>
        <time>2020-05-31T08:59:28Z</time>
      </trkpt>
      <trkpt lat="46.39102" lon="-0.33783">
        <ele>67.9</ele>
        <time>2020-05-31T08:59:29Z</time>
      </trkpt>
      <trkpt lat="46.39099" lon="-0.33786">
        <ele>67.8</ele>
        <time>2020-05-31T08:59:30Z</time>
      </trkpt>
      <trkpt lat="46.39098" lon="-0.33787">
        <ele>67.8</ele>
        <time>2020-05-31T08:59:31Z</time>
      </trkpt>
      <trkpt lat="46.39096" lon="-0.33789">
        <ele>67.8</ele>
        <time>2020-05-31T08:59:32Z</time>
      </trkpt>
      <trkpt lat="46.39095" lon="-0.3379">
        <ele>67.8</ele>
        <time>2020-05-31T08:59:33Z</time>
      </trkpt>
      <trkpt lat="46.39094" lon="-0.33791">
        <ele>67.8</ele>
        <time>2020-05-31T08:59:34Z</time>
      </trkpt>
      <trkpt lat="46.39093" lon="-0.33793">
        <ele>67.8</ele>
        <time>2020-05-31T08:59:35Z</time>
      </trkpt>
      <trkpt lat="46.39093" lon="-0.33794">
        <ele>67.8</ele>
        <time>2020-05-31T08:59:36Z</time>
      </trkpt>
      <trkpt lat="46.39093" lon="-0.33794">
        <ele>67.8</ele>
        <time>2020-05-31T08:59:37Z</time>
      </trkpt>
      <trkpt lat="46.39094" lon="-0.33793">
        <ele>67.8</ele>
        <time>2020-05-31T08:59:38Z</time>
      </trkpt>
      <trkpt lat="46.39094" lon="-0.33793">
        <ele>67.8</ele>
        <time>2020-05-31T08:59:39Z</time>
      </trkpt>
      <trkpt lat="46.39094" lon="-0.33793">
        <ele>67.8</ele>
        <time>2020-05-31T08:59:40Z</time>
      </trkpt>
      <trkpt lat="46.39094" lon="-0.33793">
        <ele>67.8</ele>
        <time>2020-05-31T08:59:41Z</time>
      </trkpt>
      <trkpt lat="46.39094" lon="-0.33794">
        <ele>67.8</ele>
        <time>2020-05-31T08:59:42Z</time>
      </trkpt>
      <trkpt lat="46.39094" lon="-0.33794">
        <ele>67.8</ele>
        <time>2020-05-31T08:59:43Z</time>
      </trkpt>
      <trkpt lat="46.39094" lon="-0.33794">
        <ele>67.8</ele>
        <time>2020-05-31T08:59:44Z</time>
      </trkpt>
      <trkpt lat="46.39094" lon="-0.33794">
        <ele>67.8</ele>
        <time>2020-05-31T08:59:45Z</time>
      </trkpt>
      <trkpt lat="46.39094" lon="-0.33794">
        <ele>67.8</ele>
        <time>2020-05-31T08:59:46Z</time>
      </trkpt>
      <trkpt lat="46.39094" lon="-0.33794">
        <ele>67.8</ele>
        <time>2020-05-31T08:59:47Z</time>
      </trkpt>
      <trkpt lat="46.39094" lon="-0.33794">
        <ele>67.8</ele>
        <time>2020-05-31T08:59:48Z</time>
      </trkpt>
      <trkpt lat="46.39093" lon="-0.33794">
        <ele>67.8</ele>
        <time>2020-05-31T08:59:49Z</time>
      </trkpt>
      <trkpt lat="46.39093" lon="-0.33793">
        <ele>67.8</ele>
        <time>2020-05-31T08:59:50Z</time>
      </trkpt>
      <trkpt lat="46.39092" lon="-0.33793">
        <ele>67.8</ele>
        <time>2020-05-31T08:59:51Z</time>
      </trkpt>
      <trkpt lat="46.39093" lon="-0.33792">
        <ele>67.8</ele>
        <time>2020-05-31T08:59:52Z</time>
      </trkpt>
      <trkpt lat="46.39093" lon="-0.33792">
        <ele>67.8</ele>
        <time>2020-05-31T08:59:53Z</time>
      </trkpt>
      <trkpt lat="46.39093" lon="-0.33792">
        <ele>67.8</ele>
        <time>2020-05-31T08:59:54Z</time>
      </trkpt>
      <trkpt lat="46.39094" lon="-0.33792">
        <ele>67.8</ele>
        <time>2020-05-31T08:59:55Z</time>
      </trkpt>
      <trkpt lat="46.39094" lon="-0.33792">
        <ele>67.8</ele>
        <time>2020-05-31T08:59:56Z</time>
      </trkpt>
      <trkpt lat="46.39094" lon="-0.33791">
        <ele>67.8</ele>
        <time>2020-05-31T08:59:57Z</time>
      </trkpt>
      <trkpt lat="46.39094" lon="-0.33791">
        <ele>67.8</ele>
        <time>2020-05-31T08:59:58Z</time>
      </trkpt>
      <trkpt lat="46.39094" lon="-0.33791">
        <ele>67.8</ele>
        <time>2020-05-31T08:59:59Z</time>
      </trkpt>
      <trkpt lat="46.39094" lon="-0.33791">
        <ele>67.8</ele>
        <time>2020-05-31T09:00:00Z</time>
      </trkpt>
      <trkpt lat="46.39094" lon="-0.33791">
        <ele>67.8</ele>
        <time>2020-05-31T09:00:01Z</time>
      </trkpt>
      <trkpt lat="46.39094" lon="-0.33792">
        <ele>67.8</ele>
        <time>2020-05-31T09:00:02Z</time>
      </trkpt>
      <trkpt lat="46.39094" lon="-0.33793">
        <ele>67.8</ele>
        <time>2020-05-31T09:00:03Z</time>
      </trkpt>
      <trkpt lat="46.39094" lon="-0.33792">
        <ele>67.7</ele>
        <time>2020-05-31T09:00:04Z</time>
      </trkpt>
      <trkpt lat="46.39093" lon="-0.33792">
        <ele>67.7</ele>
        <time>2020-05-31T09:00:05Z</time>
      </trkpt>
      <trkpt lat="46.39093" lon="-0.33793">
        <ele>67.7</ele>
        <time>2020-05-31T09:00:06Z</time>
      </trkpt>
      <trkpt lat="46.3909" lon="-0.33794">
        <ele>67.7</ele>
        <time>2020-05-31T09:00:07Z</time>
      </trkpt>
      <trkpt lat="46.39088" lon="-0.33796">
        <ele>67.7</ele>
        <time>2020-05-31T09:00:08Z</time>
      </trkpt>
      <trkpt lat="46.39086" lon="-0.33799">
        <ele>67.7</ele>
        <time>2020-05-31T09:00:09Z</time>
      </trkpt>
      <trkpt lat="46.39083" lon="-0.33802">
        <ele>67.6</ele>
        <time>2020-05-31T09:00:10Z</time>
      </trkpt>
      <trkpt lat="46.3908" lon="-0.33805">
        <ele>67.6</ele>
        <time>2020-05-31T09:00:11Z</time>
      </trkpt>
      <trkpt lat="46.39077" lon="-0.33809">
        <ele>67.5</ele>
        <time>2020-05-31T09:00:12Z</time>
      </trkpt>
      <trkpt lat="46.39074" lon="-0.33812">
        <ele>67.5</ele>
        <time>2020-05-31T09:00:13Z</time>
      </trkpt>
      <trkpt lat="46.3907" lon="-0.33816">
        <ele>67.5</ele>
        <time>2020-05-31T09:00:14Z</time>
      </trkpt>
      <trkpt lat="46.39067" lon="-0.33819">
        <ele>67.4</ele>
        <time>2020-05-31T09:00:15Z</time>
      </trkpt>
      <trkpt lat="46.39061" lon="-0.33824">
        <ele>67.3</ele>
        <time>2020-05-31T09:00:16Z</time>
      </trkpt>
      <trkpt lat="46.39056" lon="-0.33828">
        <ele>67.3</ele>
        <time>2020-05-31T09:00:17Z</time>
      </trkpt>
      <trkpt lat="46.39051" lon="-0.33832">
        <ele>67.2</ele>
        <time>2020-05-31T09:00:18Z</time>
      </trkpt>
      <trkpt lat="46.39046" lon="-0.33837">
        <ele>67.1</ele>
        <time>2020-05-31T09:00:19Z</time>
      </trkpt>
      <trkpt lat="46.39041" lon="-0.33841">
        <ele>67</ele>
        <time>2020-05-31T09:00:20Z</time>
      </trkpt>
      <trkpt lat="46.39036" lon="-0.33846">
        <ele>67</ele>
        <time>2020-05-31T09:00:21Z</time>
      </trkpt>
      <trkpt lat="46.39031" lon="-0.33851">
        <ele>66.9</ele>
        <time>2020-05-31T09:00:22Z</time>
      </trkpt>
      <trkpt lat="46.39027" lon="-0.33856">
        <ele>66.8</ele>
        <time>2020-05-31T09:00:23Z</time>
      </trkpt>
      <trkpt lat="46.39022" lon="-0.33861">
        <ele>66.7</ele>
        <time>2020-05-31T09:00:24Z</time>
      </trkpt>
      <trkpt lat="46.39016" lon="-0.33867">
        <ele>66.5</ele>
        <time>2020-05-31T09:00:25Z</time>
      </trkpt>
      <trkpt lat="46.3901" lon="-0.33872">
        <ele>66.4</ele>
        <time>2020-05-31T09:00:26Z</time>
      </trkpt>
      <trkpt lat="46.39005" lon="-0.33878">
        <ele>66.3</ele>
        <time>2020-05-31T09:00:27Z</time>
      </trkpt>
      <trkpt lat="46.39" lon="-0.33884">
        <ele>66.1</ele>
        <time>2020-05-31T09:00:28Z</time>
      </trkpt>
      <trkpt lat="46.38994" lon="-0.33889">
        <ele>66</ele>
        <time>2020-05-31T09:00:29Z</time>
      </trkpt>
      <trkpt lat="46.38989" lon="-0.33894">
        <ele>65.9</ele>
        <time>2020-05-31T09:00:30Z</time>
      </trkpt>
      <trkpt lat="46.38983" lon="-0.33899">
        <ele>65.8</ele>
        <time>2020-05-31T09:00:31Z</time>
      </trkpt>
      <trkpt lat="46.38977" lon="-0.33904">
        <ele>65.7</ele>
        <time>2020-05-31T09:00:32Z</time>
      </trkpt>
      <trkpt lat="46.38972" lon="-0.3391">
        <ele>65.6</ele>
        <time>2020-05-31T09:00:33Z</time>
      </trkpt>
      <trkpt lat="46.38967" lon="-0.33916">
        <ele>65.5</ele>
        <time>2020-05-31T09:00:34Z</time>
      </trkpt>
      <trkpt lat="46.38962" lon="-0.33921">
        <ele>65.5</ele>
        <time>2020-05-31T09:00:35Z</time>
      </trkpt>
      <trkpt lat="46.38956" lon="-0.33927">
        <ele>65.4</ele>
        <time>2020-05-31T09:00:36Z</time>
      </trkpt>
      <trkpt lat="46.38951" lon="-0.33933">
        <ele>65.3</ele>
        <time>2020-05-31T09:00:37Z</time>
      </trkpt>
      <trkpt lat="46.38946" lon="-0.33938">
        <ele>65.3</ele>
        <time>2020-05-31T09:00:38Z</time>
      </trkpt>
      <trkpt lat="46.38941" lon="-0.33944">
        <ele>65.3</ele>
        <time>2020-05-31T09:00:39Z</time>
      </trkpt>
      <trkpt lat="46.38935" lon="-0.3395">
        <ele>65.3</ele>
        <time>2020-05-31T09:00:40Z</time>
      </trkpt>
      <trkpt lat="46.38929" lon="-0.33957">
        <ele>65.3</ele>
        <time>2020-05-31T09:00:41Z</time>
      </trkpt>
      <trkpt lat="46.38924" lon="-0.33962">
        <ele>65.3</ele>
        <time>2020-05-31T09:00:42Z</time>
      </trkpt>
      <trkpt lat="46.3892" lon="-0.33967">
        <ele>65.3</ele>
        <time>2020-05-31T09:00:43Z</time>
      </trkpt>
      <trkpt lat="46.38914" lon="-0.33973">
        <ele>65.2</ele>
        <time>2020-05-31T09:00:44Z</time>
      </trkpt>
      <trkpt lat="46.38908" lon="-0.33978">
        <ele>65.2</ele>
        <time>2020-05-31T09:00:45Z</time>
      </trkpt>
      <trkpt lat="46.38902" lon="-0.33983">
        <ele>65.2</ele>
        <time>2020-05-31T09:00:46Z</time>
      </trkpt>
      <trkpt lat="46.38897" lon="-0.33989">
        <ele>65.2</ele>
        <time>2020-05-31T09:00:47Z</time>
      </trkpt>
      <trkpt lat="46.38891" lon="-0.33996">
        <ele>65.2</ele>
        <time>2020-05-31T09:00:48Z</time>
      </trkpt>
      <trkpt lat="46.38885" lon="-0.34002">
        <ele>65.2</ele>
        <time>2020-05-31T09:00:49Z</time>
      </trkpt>
      <trkpt lat="46.38878" lon="-0.34008">
        <ele>65.2</ele>
        <time>2020-05-31T09:00:50Z</time>
      </trkpt>
      <trkpt lat="46.38871" lon="-0.34012">
        <ele>65.2</ele>
        <time>2020-05-31T09:00:51Z</time>
      </trkpt>
      <trkpt lat="46.38864" lon="-0.34016">
        <ele>65.2</ele>
        <time>2020-05-31T09:00:52Z</time>
      </trkpt>
      <trkpt lat="46.38857" lon="-0.3402">
        <ele>65.2</ele>
        <time>2020-05-31T09:00:53Z</time>
      </trkpt>
      <trkpt lat="46.3885" lon="-0.34024">
        <ele>65.2</ele>
        <time>2020-05-31T09:00:54Z</time>
      </trkpt>
      <trkpt lat="46.38843" lon="-0.34027">
        <ele>65.3</ele>
        <time>2020-05-31T09:00:55Z</time>
      </trkpt>
      <trkpt lat="46.38835" lon="-0.3403">
        <ele>65.3</ele>
        <time>2020-05-31T09:00:56Z</time>
      </trkpt>
      <trkpt lat="46.38828" lon="-0.34033">
        <ele>65.3</ele>
        <time>2020-05-31T09:00:57Z</time>
      </trkpt>
      <trkpt lat="46.38821" lon="-0.34036">
        <ele>65.3</ele>
        <time>2020-05-31T09:00:58Z</time>
      </trkpt>
      <trkpt lat="46.38814" lon="-0.34039">
        <ele>65.4</ele>
        <time>2020-05-31T09:00:59Z</time>
      </trkpt>
      <trkpt lat="46.38807" lon="-0.34042">
        <ele>65.4</ele>
        <time>2020-05-31T09:01:00Z</time>
      </trkpt>
      <trkpt lat="46.388" lon="-0.34045">
        <ele>65.5</ele>
        <time>2020-05-31T09:01:01Z</time>
      </trkpt>
      <trkpt lat="46.38793" lon="-0.34049">
        <ele>65.5</ele>
        <time>2020-05-31T09:01:02Z</time>
      </trkpt>
      <trkpt lat="46.38785" lon="-0.34052">
        <ele>65.6</ele>
        <time>2020-05-31T09:01:03Z</time>
      </trkpt>
      <trkpt lat="46.38778" lon="-0.34055">
        <ele>65.6</ele>
        <time>2020-05-31T09:01:04Z</time>
      </trkpt>
      <trkpt lat="46.38771" lon="-0.34059">
        <ele>65.6</ele>
        <time>2020-05-31T09:01:05Z</time>
      </trkpt>
      <trkpt lat="46.38764" lon="-0.34062">
        <ele>65.7</ele>
        <time>2020-05-31T09:01:06Z</time>
      </trkpt>
      <trkpt lat="46.38757" lon="-0.34065">
        <ele>65.8</ele>
        <time>2020-05-31T09:01:07Z</time>
      </trkpt>
      <trkpt lat="46.3875" lon="-0.34067">
        <ele>65.9</ele>
        <time>2020-05-31T09:01:08Z</time>
      </trkpt>
      <trkpt lat="46.38743" lon="-0.3407">
        <ele>66</ele>
        <time>2020-05-31T09:01:09Z</time>
      </trkpt>
      <trkpt lat="46.38736" lon="-0.34073">
        <ele>66.1</ele>
        <time>2020-05-31T09:01:10Z</time>
      </trkpt>
      <trkpt lat="46.3873" lon="-0.34076">
        <ele>66.2</ele>
        <time>2020-05-31T09:01:11Z</time>
      </trkpt>
      <trkpt lat="46.38723" lon="-0.34079">
        <ele>66.2</ele>
        <time>2020-05-31T09:01:12Z</time>
      </trkpt>
      <trkpt lat="46.38716" lon="-0.34083">
        <ele>66.2</ele>
        <time>2020-05-31T09:01:13Z</time>
      </trkpt>
      <trkpt lat="46.38709" lon="-0.34086">
        <ele>66.3</ele>
        <time>2020-05-31T09:01:14Z</time>
      </trkpt>
      <trkpt lat="46.38703" lon="-0.34089">
        <ele>66.5</ele>
        <time>2020-05-31T09:01:15Z</time>
      </trkpt>
      <trkpt lat="46.38696" lon="-0.34092">
        <ele>66.6</ele>
        <time>2020-05-31T09:01:16Z</time>
      </trkpt>
      <trkpt lat="46.38689" lon="-0.34095">
        <ele>66.7</ele>
        <time>2020-05-31T09:01:17Z</time>
      </trkpt>
      <trkpt lat="46.38682" lon="-0.34098">
        <ele>66.8</ele>
        <time>2020-05-31T09:01:18Z</time>
      </trkpt>
      <trkpt lat="46.38676" lon="-0.341">
        <ele>66.9</ele>
        <time>2020-05-31T09:01:19Z</time>
      </trkpt>
      <trkpt lat="46.38669" lon="-0.34103">
        <ele>67</ele>
        <time>2020-05-31T09:01:20Z</time>
      </trkpt>
      <trkpt lat="46.38663" lon="-0.34105">
        <ele>67.1</ele>
        <time>2020-05-31T09:01:21Z</time>
      </trkpt>
      <trkpt lat="46.38656" lon="-0.34108">
        <ele>67.2</ele>
        <time>2020-05-31T09:01:22Z</time>
      </trkpt>
      <trkpt lat="46.3865" lon="-0.3411">
        <ele>67.4</ele>
        <time>2020-05-31T09:01:23Z</time>
      </trkpt>
      <trkpt lat="46.38643" lon="-0.34113">
        <ele>67.4</ele>
        <time>2020-05-31T09:01:24Z</time>
      </trkpt>
      <trkpt lat="46.38636" lon="-0.34116">
        <ele>67.5</ele>
        <time>2020-05-31T09:01:25Z</time>
      </trkpt>
      <trkpt lat="46.3863" lon="-0.34118">
        <ele>67.5</ele>
        <time>2020-05-31T09:01:26Z</time>
      </trkpt>
      <trkpt lat="46.38624" lon="-0.34122">
        <ele>67.5</ele>
        <time>2020-05-31T09:01:27Z</time>
      </trkpt>
      <trkpt lat="46.38618" lon="-0.34125">
        <ele>67.5</ele>
        <time>2020-05-31T09:01:28Z</time>
      </trkpt>
      <trkpt lat="46.38612" lon="-0.34128">
        <ele>67.5</ele>
        <time>2020-05-31T09:01:29Z</time>
      </trkpt>
      <trkpt lat="46.38606" lon="-0.34131">
        <ele>67.5</ele>
        <time>2020-05-31T09:01:30Z</time>
      </trkpt>
      <trkpt lat="46.386" lon="-0.34133">
        <ele>67.4</ele>
        <time>2020-05-31T09:01:31Z</time>
      </trkpt>
      <trkpt lat="46.38594" lon="-0.34137">
        <ele>67.4</ele>
        <time>2020-05-31T09:01:32Z</time>
      </trkpt>
      <trkpt lat="46.38587" lon="-0.34139">
        <ele>67.3</ele>
        <time>2020-05-31T09:01:33Z</time>
      </trkpt>
      <trkpt lat="46.38581" lon="-0.34142">
        <ele>67.3</ele>
        <time>2020-05-31T09:01:34Z</time>
      </trkpt>
      <trkpt lat="46.38574" lon="-0.34145">
        <ele>67.2</ele>
        <time>2020-05-31T09:01:35Z</time>
      </trkpt>
      <trkpt lat="46.38568" lon="-0.34149">
        <ele>67.2</ele>
        <time>2020-05-31T09:01:36Z</time>
      </trkpt>
      <trkpt lat="46.38562" lon="-0.34152">
        <ele>67.1</ele>
        <time>2020-05-31T09:01:37Z</time>
      </trkpt>
      <trkpt lat="46.38556" lon="-0.34154">
        <ele>67</ele>
        <time>2020-05-31T09:01:38Z</time>
      </trkpt>
      <trkpt lat="46.38549" lon="-0.34156">
        <ele>66.9</ele>
        <time>2020-05-31T09:01:39Z</time>
      </trkpt>
      <trkpt lat="46.38543" lon="-0.34159">
        <ele>66.7</ele>
        <time>2020-05-31T09:01:40Z</time>
      </trkpt>
      <trkpt lat="46.38537" lon="-0.34162">
        <ele>66.6</ele>
        <time>2020-05-31T09:01:41Z</time>
      </trkpt>
      <trkpt lat="46.3853" lon="-0.34165">
        <ele>66.4</ele>
        <time>2020-05-31T09:01:42Z</time>
      </trkpt>
      <trkpt lat="46.38524" lon="-0.34167">
        <ele>66.3</ele>
        <time>2020-05-31T09:01:43Z</time>
      </trkpt>
      <trkpt lat="46.38518" lon="-0.3417">
        <ele>66.2</ele>
        <time>2020-05-31T09:01:44Z</time>
      </trkpt>
      <trkpt lat="46.38511" lon="-0.34172">
        <ele>66.1</ele>
        <time>2020-05-31T09:01:45Z</time>
      </trkpt>
      <trkpt lat="46.38505" lon="-0.34174">
        <ele>66</ele>
        <time>2020-05-31T09:01:46Z</time>
      </trkpt>
      <trkpt lat="46.38498" lon="-0.34176">
        <ele>65.9</ele>
        <time>2020-05-31T09:01:47Z</time>
      </trkpt>
      <trkpt lat="46.38491" lon="-0.34177">
        <ele>65.8</ele>
        <time>2020-05-31T09:01:48Z</time>
      </trkpt>
      <trkpt lat="46.38484" lon="-0.34179">
        <ele>65.7</ele>
        <time>2020-05-31T09:01:49Z</time>
      </trkpt>
      <trkpt lat="46.38477" lon="-0.34181">
        <ele>65.6</ele>
        <time>2020-05-31T09:01:50Z</time>
      </trkpt>
      <trkpt lat="46.3847" lon="-0.34183">
        <ele>65.4</ele>
        <time>2020-05-31T09:01:51Z</time>
      </trkpt>
      <trkpt lat="46.38463" lon="-0.34183">
        <ele>65.3</ele>
        <time>2020-05-31T09:01:52Z</time>
      </trkpt>
      <trkpt lat="46.38455" lon="-0.34184">
        <ele>65.1</ele>
        <time>2020-05-31T09:01:53Z</time>
      </trkpt>
      <trkpt lat="46.38447" lon="-0.34185">
        <ele>65</ele>
        <time>2020-05-31T09:01:54Z</time>
      </trkpt>
      <trkpt lat="46.38439" lon="-0.34187">
        <ele>64.9</ele>
        <time>2020-05-31T09:01:55Z</time>
      </trkpt>
      <trkpt lat="46.38432" lon="-0.34187">
        <ele>64.8</ele>
        <time>2020-05-31T09:01:56Z</time>
      </trkpt>
      <trkpt lat="46.38424" lon="-0.34188">
        <ele>64.7</ele>
        <time>2020-05-31T09:01:57Z</time>
      </trkpt>
      <trkpt lat="46.38416" lon="-0.34188">
        <ele>64.7</ele>
        <time>2020-05-31T09:01:58Z</time>
      </trkpt>
      <trkpt lat="46.38409" lon="-0.34188">
        <ele>64.6</ele>
        <time>2020-05-31T09:01:59Z</time>
      </trkpt>
      <trkpt lat="46.38401" lon="-0.34189">
        <ele>64.5</ele>
        <time>2020-05-31T09:02:00Z</time>
      </trkpt>
      <trkpt lat="46.38394" lon="-0.34189">
        <ele>64.5</ele>
        <time>2020-05-31T09:02:01Z</time>
      </trkpt>
      <trkpt lat="46.38388" lon="-0.34189">
        <ele>64.5</ele>
        <time>2020-05-31T09:02:02Z</time>
      </trkpt>
      <trkpt lat="46.38381" lon="-0.34188">
        <ele>64.5</ele>
        <time>2020-05-31T09:02:03Z</time>
      </trkpt>
      <trkpt lat="46.38375" lon="-0.34188">
        <ele>64.5</ele>
        <time>2020-05-31T09:02:04Z</time>
      </trkpt>
      <trkpt lat="46.38369" lon="-0.34186">
        <ele>64.5</ele>
        <time>2020-05-31T09:02:05Z</time>
      </trkpt>
      <trkpt lat="46.38363" lon="-0.34186">
        <ele>64.4</ele>
        <time>2020-05-31T09:02:06Z</time>
      </trkpt>
      <trkpt lat="46.38357" lon="-0.34186">
        <ele>64.4</ele>
        <time>2020-05-31T09:02:07Z</time>
      </trkpt>
      <trkpt lat="46.38352" lon="-0.34187">
        <ele>64.4</ele>
        <time>2020-05-31T09:02:08Z</time>
      </trkpt>
      <trkpt lat="46.38346" lon="-0.34186">
        <ele>64.4</ele>
        <time>2020-05-31T09:02:09Z</time>
      </trkpt>
      <trkpt lat="46.3834" lon="-0.34185">
        <ele>64.3</ele>
        <time>2020-05-31T09:02:10Z</time>
      </trkpt>
      <trkpt lat="46.38335" lon="-0.34184">
        <ele>64.3</ele>
        <time>2020-05-31T09:02:11Z</time>
      </trkpt>
      <trkpt lat="46.38329" lon="-0.34183">
        <ele>64.3</ele>
        <time>2020-05-31T09:02:12Z</time>
      </trkpt>
      <trkpt lat="46.38323" lon="-0.34182">
        <ele>64.3</ele>
        <time>2020-05-31T09:02:13Z</time>
      </trkpt>
      <trkpt lat="46.38317" lon="-0.34181">
        <ele>64.3</ele>
        <time>2020-05-31T09:02:14Z</time>
      </trkpt>
      <trkpt lat="46.38311" lon="-0.34181">
        <ele>64.3</ele>
        <time>2020-05-31T09:02:15Z</time>
      </trkpt>
      <trkpt lat="46.38305" lon="-0.34181">
        <ele>64.2</ele>
        <time>2020-05-31T09:02:16Z</time>
      </trkpt>
      <trkpt lat="46.38299" lon="-0.3418">
        <ele>64.1</ele>
        <time>2020-05-31T09:02:17Z</time>
      </trkpt>
      <trkpt lat="46.38293" lon="-0.34181">
        <ele>63.9</ele>
        <time>2020-05-31T09:02:18Z</time>
      </trkpt>
      <trkpt lat="46.38287" lon="-0.34181">
        <ele>63.7</ele>
        <time>2020-05-31T09:02:19Z</time>
      </trkpt>
      <trkpt lat="46.38281" lon="-0.3418">
        <ele>63.6</ele>
        <time>2020-05-31T09:02:20Z</time>
      </trkpt>
      <trkpt lat="46.38274" lon="-0.3418">
        <ele>63.4</ele>
        <time>2020-05-31T09:02:21Z</time>
      </trkpt>
      <trkpt lat="46.38267" lon="-0.34179">
        <ele>63.2</ele>
        <time>2020-05-31T09:02:22Z</time>
      </trkpt>
      <trkpt lat="46.3826" lon="-0.34179">
        <ele>63</ele>
        <time>2020-05-31T09:02:23Z</time>
      </trkpt>
      <trkpt lat="46.38253" lon="-0.34179">
        <ele>62.8</ele>
        <time>2020-05-31T09:02:24Z</time>
      </trkpt>
      <trkpt lat="46.38246" lon="-0.34178">
        <ele>62.6</ele>
        <time>2020-05-31T09:02:25Z</time>
      </trkpt>
      <trkpt lat="46.38239" lon="-0.3418">
        <ele>62.4</ele>
        <time>2020-05-31T09:02:26Z</time>
      </trkpt>
      <trkpt lat="46.38231" lon="-0.34181">
        <ele>62.2</ele>
        <time>2020-05-31T09:02:27Z</time>
      </trkpt>
      <trkpt lat="46.38224" lon="-0.34182">
        <ele>62</ele>
        <time>2020-05-31T09:02:28Z</time>
      </trkpt>
      <trkpt lat="46.38216" lon="-0.34183">
        <ele>61.8</ele>
        <time>2020-05-31T09:02:29Z</time>
      </trkpt>
      <trkpt lat="46.38208" lon="-0.34182">
        <ele>61.7</ele>
        <time>2020-05-31T09:02:30Z</time>
      </trkpt>
      <trkpt lat="46.38201" lon="-0.34182">
        <ele>61.5</ele>
        <time>2020-05-31T09:02:31Z</time>
      </trkpt>
      <trkpt lat="46.38193" lon="-0.34184">
        <ele>61.4</ele>
        <time>2020-05-31T09:02:32Z</time>
      </trkpt>
      <trkpt lat="46.38186" lon="-0.34184">
        <ele>61.2</ele>
        <time>2020-05-31T09:02:33Z</time>
      </trkpt>
      <trkpt lat="46.38178" lon="-0.34184">
        <ele>61.1</ele>
        <time>2020-05-31T09:02:34Z</time>
      </trkpt>
      <trkpt lat="46.3817" lon="-0.34184">
        <ele>61</ele>
        <time>2020-05-31T09:02:35Z</time>
      </trkpt>
      <trkpt lat="46.38162" lon="-0.34184">
        <ele>60.9</ele>
        <time>2020-05-31T09:02:36Z</time>
      </trkpt>
      <trkpt lat="46.38154" lon="-0.34184">
        <ele>60.7</ele>
        <time>2020-05-31T09:02:37Z</time>
      </trkpt>
      <trkpt lat="46.38147" lon="-0.34185">
        <ele>60.5</ele>
        <time>2020-05-31T09:02:38Z</time>
      </trkpt>
      <trkpt lat="46.38139" lon="-0.34187">
        <ele>60.3</ele>
        <time>2020-05-31T09:02:39Z</time>
      </trkpt>
      <trkpt lat="46.38132" lon="-0.34189">
        <ele>60.2</ele>
        <time>2020-05-31T09:02:40Z</time>
      </trkpt>
      <trkpt lat="46.38125" lon="-0.34193">
        <ele>60.1</ele>
        <time>2020-05-31T09:02:41Z</time>
      </trkpt>
      <trkpt lat="46.38118" lon="-0.34196">
        <ele>60</ele>
        <time>2020-05-31T09:02:42Z</time>
      </trkpt>
      <trkpt lat="46.38111" lon="-0.34198">
        <ele>59.9</ele>
        <time>2020-05-31T09:02:43Z</time>
      </trkpt>
      <trkpt lat="46.38103" lon="-0.34201">
        <ele>59.8</ele>
        <time>2020-05-31T09:02:44Z</time>
      </trkpt>
      <trkpt lat="46.38096" lon="-0.34203">
        <ele>59.7</ele>
        <time>2020-05-31T09:02:45Z</time>
      </trkpt>
      <trkpt lat="46.38089" lon="-0.34206">
        <ele>59.5</ele>
        <time>2020-05-31T09:02:46Z</time>
      </trkpt>
      <trkpt lat="46.38083" lon="-0.34209">
        <ele>59.4</ele>
        <time>2020-05-31T09:02:47Z</time>
      </trkpt>
      <trkpt lat="46.38076" lon="-0.34212">
        <ele>59.2</ele>
        <time>2020-05-31T09:02:48Z</time>
      </trkpt>
      <trkpt lat="46.38069" lon="-0.34215">
        <ele>59</ele>
        <time>2020-05-31T09:02:49Z</time>
      </trkpt>
      <trkpt lat="46.38062" lon="-0.34217">
        <ele>58.8</ele>
        <time>2020-05-31T09:02:50Z</time>
      </trkpt>
      <trkpt lat="46.38054" lon="-0.3422">
        <ele>58.6</ele>
        <time>2020-05-31T09:02:51Z</time>
      </trkpt>
      <trkpt lat="46.38047" lon="-0.34223">
        <ele>58.3</ele>
        <time>2020-05-31T09:02:52Z</time>
      </trkpt>
      <trkpt lat="46.38039" lon="-0.34225">
        <ele>58.1</ele>
        <time>2020-05-31T09:02:53Z</time>
      </trkpt>
      <trkpt lat="46.38032" lon="-0.34227">
        <ele>57.8</ele>
        <time>2020-05-31T09:02:54Z</time>
      </trkpt>
      <trkpt lat="46.38024" lon="-0.34229">
        <ele>57.5</ele>
        <time>2020-05-31T09:02:55Z</time>
      </trkpt>
      <trkpt lat="46.38017" lon="-0.34232">
        <ele>57.2</ele>
        <time>2020-05-31T09:02:56Z</time>
      </trkpt>
      <trkpt lat="46.38009" lon="-0.34236">
        <ele>56.7</ele>
        <time>2020-05-31T09:02:57Z</time>
      </trkpt>
      <trkpt lat="46.38001" lon="-0.34239">
        <ele>56.2</ele>
        <time>2020-05-31T09:02:58Z</time>
      </trkpt>
      <trkpt lat="46.37992" lon="-0.34243">
        <ele>55.7</ele>
        <time>2020-05-31T09:02:59Z</time>
      </trkpt>
      <trkpt lat="46.37984" lon="-0.34247">
        <ele>55</ele>
        <time>2020-05-31T09:03:00Z</time>
      </trkpt>
      <trkpt lat="46.37974" lon="-0.34251">
        <ele>54.2</ele>
        <time>2020-05-31T09:03:01Z</time>
      </trkpt>
      <trkpt lat="46.37965" lon="-0.34256">
        <ele>53.4</ele>
        <time>2020-05-31T09:03:02Z</time>
      </trkpt>
      <trkpt lat="46.37956" lon="-0.34261">
        <ele>52.4</ele>
        <time>2020-05-31T09:03:03Z</time>
      </trkpt>
      <trkpt lat="46.37947" lon="-0.34267">
        <ele>51.2</ele>
        <time>2020-05-31T09:03:04Z</time>
      </trkpt>
      <trkpt lat="46.37938" lon="-0.34274">
        <ele>50</ele>
        <time>2020-05-31T09:03:05Z</time>
      </trkpt>
      <trkpt lat="46.37929" lon="-0.34281">
        <ele>48.9</ele>
        <time>2020-05-31T09:03:06Z</time>
      </trkpt>
      <trkpt lat="46.3792" lon="-0.34286">
        <ele>47.7</ele>
        <time>2020-05-31T09:03:07Z</time>
      </trkpt>
      <trkpt lat="46.37911" lon="-0.34289">
        <ele>46.6</ele>
        <time>2020-05-31T09:03:08Z</time>
      </trkpt>
      <trkpt lat="46.37901" lon="-0.34293">
        <ele>45.4</ele>
        <time>2020-05-31T09:03:09Z</time>
      </trkpt>
      <trkpt lat="46.3789" lon="-0.34298">
        <ele>44.3</ele>
        <time>2020-05-31T09:03:10Z</time>
      </trkpt>
      <trkpt lat="46.37879" lon="-0.343">
        <ele>43.5</ele>
        <time>2020-05-31T09:03:11Z</time>
      </trkpt>
      <trkpt lat="46.37868" lon="-0.34301">
        <ele>43.2</ele>
        <time>2020-05-31T09:03:12Z</time>
      </trkpt>
      <trkpt lat="46.37856" lon="-0.34301">
        <ele>42.5</ele>
        <time>2020-05-31T09:03:13Z</time>
      </trkpt>
      <trkpt lat="46.37844" lon="-0.34301">
        <ele>41.7</ele>
        <time>2020-05-31T09:03:14Z</time>
      </trkpt>
      <trkpt lat="46.37831" lon="-0.34299">
        <ele>40.9</ele>
        <time>2020-05-31T09:03:15Z</time>
      </trkpt>
      <trkpt lat="46.37818" lon="-0.34296">
        <ele>40.3</ele>
        <time>2020-05-31T09:03:16Z</time>
      </trkpt>
      <trkpt lat="46.37805" lon="-0.34295">
        <ele>39.9</ele>
        <time>2020-05-31T09:03:17Z</time>
      </trkpt>
      <trkpt lat="46.37793" lon="-0.34292">
        <ele>39.5</ele>
        <time>2020-05-31T09:03:18Z</time>
      </trkpt>
      <trkpt lat="46.37781" lon="-0.34288">
        <ele>39.3</ele>
        <time>2020-05-31T09:03:19Z</time>
      </trkpt>
      <trkpt lat="46.37769" lon="-0.34284">
        <ele>39.1</ele>
        <time>2020-05-31T09:03:20Z</time>
      </trkpt>
      <trkpt lat="46.37758" lon="-0.34282">
        <ele>39.1</ele>
        <time>2020-05-31T09:03:21Z</time>
      </trkpt>
      <trkpt lat="46.37747" lon="-0.3428">
        <ele>39.1</ele>
        <time>2020-05-31T09:03:22Z</time>
      </trkpt>
      <trkpt lat="46.37736" lon="-0.34277">
        <ele>39.1</ele>
        <time>2020-05-31T09:03:23Z</time>
      </trkpt>
      <trkpt lat="46.37725" lon="-0.34275">
        <ele>39</ele>
        <time>2020-05-31T09:03:24Z</time>
      </trkpt>
      <trkpt lat="46.37714" lon="-0.34272">
        <ele>38.9</ele>
        <time>2020-05-31T09:03:25Z</time>
      </trkpt>
      <trkpt lat="46.37704" lon="-0.34269">
        <ele>38.8</ele>
        <time>2020-05-31T09:03:26Z</time>
      </trkpt>
      <trkpt lat="46.37694" lon="-0.34266">
        <ele>38.8</ele>
        <time>2020-05-31T09:03:27Z</time>
      </trkpt>
      <trkpt lat="46.37685" lon="-0.34263">
        <ele>38.8</ele>
        <time>2020-05-31T09:03:28Z</time>
      </trkpt>
      <trkpt lat="46.37676" lon="-0.3426">
        <ele>38.8</ele>
        <time>2020-05-31T09:03:29Z</time>
      </trkpt>
      <trkpt lat="46.37666" lon="-0.34258">
        <ele>38.7</ele>
        <time>2020-05-31T09:03:30Z</time>
      </trkpt>
      <trkpt lat="46.37658" lon="-0.34255">
        <ele>38.7</ele>
        <time>2020-05-31T09:03:31Z</time>
      </trkpt>
      <trkpt lat="46.37649" lon="-0.34253">
        <ele>38.7</ele>
        <time>2020-05-31T09:03:32Z</time>
      </trkpt>
      <trkpt lat="46.37641" lon="-0.3425">
        <ele>38.6</ele>
        <time>2020-05-31T09:03:33Z</time>
      </trkpt>
      <trkpt lat="46.37632" lon="-0.34247">
        <ele>38.6</ele>
        <time>2020-05-31T09:03:34Z</time>
      </trkpt>
      <trkpt lat="46.37624" lon="-0.34244">
        <ele>38.6</ele>
        <time>2020-05-31T09:03:35Z</time>
      </trkpt>
      <trkpt lat="46.37616" lon="-0.34241">
        <ele>38.6</ele>
        <time>2020-05-31T09:03:36Z</time>
      </trkpt>
      <trkpt lat="46.37609" lon="-0.34237">
        <ele>38.6</ele>
        <time>2020-05-31T09:03:37Z</time>
      </trkpt>
      <trkpt lat="46.37601" lon="-0.34234">
        <ele>38.6</ele>
        <time>2020-05-31T09:03:38Z</time>
      </trkpt>
      <trkpt lat="46.37593" lon="-0.34231">
        <ele>38.6</ele>
        <time>2020-05-31T09:03:39Z</time>
      </trkpt>
      <trkpt lat="46.37585" lon="-0.34229">
        <ele>38.6</ele>
        <time>2020-05-31T09:03:40Z</time>
      </trkpt>
      <trkpt lat="46.37577" lon="-0.34228">
        <ele>38.6</ele>
        <time>2020-05-31T09:03:41Z</time>
      </trkpt>
      <trkpt lat="46.3757" lon="-0.34225">
        <ele>38.6</ele>
        <time>2020-05-31T09:03:42Z</time>
      </trkpt>
      <trkpt lat="46.37562" lon="-0.34223">
        <ele>38.6</ele>
        <time>2020-05-31T09:03:43Z</time>
      </trkpt>
      <trkpt lat="46.37555" lon="-0.34222">
        <ele>38.6</ele>
        <time>2020-05-31T09:03:44Z</time>
      </trkpt>
      <trkpt lat="46.37547" lon="-0.3422">
        <ele>38.6</ele>
        <time>2020-05-31T09:03:45Z</time>
      </trkpt>
      <trkpt lat="46.3754" lon="-0.34219">
        <ele>38.5</ele>
        <time>2020-05-31T09:03:46Z</time>
      </trkpt>
      <trkpt lat="46.37532" lon="-0.34218">
        <ele>38.5</ele>
        <time>2020-05-31T09:03:47Z</time>
      </trkpt>
      <trkpt lat="46.37525" lon="-0.34219">
        <ele>38.5</ele>
        <time>2020-05-31T09:03:48Z</time>
      </trkpt>
      <trkpt lat="46.37517" lon="-0.3422">
        <ele>38.4</ele>
        <time>2020-05-31T09:03:49Z</time>
      </trkpt>
      <trkpt lat="46.3751" lon="-0.34221">
        <ele>38.4</ele>
        <time>2020-05-31T09:03:50Z</time>
      </trkpt>
      <trkpt lat="46.37503" lon="-0.34223">
        <ele>38.4</ele>
        <time>2020-05-31T09:03:51Z</time>
      </trkpt>
      <trkpt lat="46.37496" lon="-0.34225">
        <ele>38.4</ele>
        <time>2020-05-31T09:03:52Z</time>
      </trkpt>
      <trkpt lat="46.3749" lon="-0.34227">
        <ele>38.5</ele>
        <time>2020-05-31T09:03:53Z</time>
      </trkpt>
      <trkpt lat="46.37483" lon="-0.3423">
        <ele>38.5</ele>
        <time>2020-05-31T09:03:54Z</time>
      </trkpt>
      <trkpt lat="46.37476" lon="-0.34233">
        <ele>38.5</ele>
        <time>2020-05-31T09:03:55Z</time>
      </trkpt>
      <trkpt lat="46.37469" lon="-0.34237">
        <ele>38.5</ele>
        <time>2020-05-31T09:03:56Z</time>
      </trkpt>
      <trkpt lat="46.37463" lon="-0.34241">
        <ele>38.5</ele>
        <time>2020-05-31T09:03:57Z</time>
      </trkpt>
      <trkpt lat="46.37457" lon="-0.34246">
        <ele>38.5</ele>
        <time>2020-05-31T09:03:58Z</time>
      </trkpt>
      <trkpt lat="46.37451" lon="-0.34251">
        <ele>38.5</ele>
        <time>2020-05-31T09:03:59Z</time>
      </trkpt>
      <trkpt lat="46.37445" lon="-0.34255">
        <ele>38.5</ele>
        <time>2020-05-31T09:04:00Z</time>
      </trkpt>
      <trkpt lat="46.37439" lon="-0.34259">
        <ele>38.5</ele>
        <time>2020-05-31T09:04:01Z</time>
      </trkpt>
      <trkpt lat="46.37433" lon="-0.34264">
        <ele>38.5</ele>
        <time>2020-05-31T09:04:02Z</time>
      </trkpt>
      <trkpt lat="46.37428" lon="-0.34268">
        <ele>38.5</ele>
        <time>2020-05-31T09:04:03Z</time>
      </trkpt>
      <trkpt lat="46.37422" lon="-0.34272">
        <ele>38.5</ele>
        <time>2020-05-31T09:04:04Z</time>
      </trkpt>
      <trkpt lat="46.37416" lon="-0.34275">
        <ele>38.4</ele>
        <time>2020-05-31T09:04:05Z</time>
      </trkpt>
      <trkpt lat="46.37411" lon="-0.3428">
        <ele>38.4</ele>
        <time>2020-05-31T09:04:06Z</time>
      </trkpt>
      <trkpt lat="46.37406" lon="-0.34285">
        <ele>38.4</ele>
        <time>2020-05-31T09:04:07Z</time>
      </trkpt>
      <trkpt lat="46.374" lon="-0.3429">
        <ele>38.4</ele>
        <time>2020-05-31T09:04:08Z</time>
      </trkpt>
      <trkpt lat="46.37395" lon="-0.34294">
        <ele>38.3</ele>
        <time>2020-05-31T09:04:09Z</time>
      </trkpt>
      <trkpt lat="46.37389" lon="-0.34299">
        <ele>38.3</ele>
        <time>2020-05-31T09:04:10Z</time>
      </trkpt>
      <trkpt lat="46.37384" lon="-0.34304">
        <ele>38.3</ele>
        <time>2020-05-31T09:04:11Z</time>
      </trkpt>
      <trkpt lat="46.37379" lon="-0.34308">
        <ele>38.3</ele>
        <time>2020-05-31T09:04:12Z</time>
      </trkpt>
      <trkpt lat="46.37374" lon="-0.34314">
        <ele>38.2</ele>
        <time>2020-05-31T09:04:13Z</time>
      </trkpt>
      <trkpt lat="46.37369" lon="-0.34318">
        <ele>38.2</ele>
        <time>2020-05-31T09:04:14Z</time>
      </trkpt>
      <trkpt lat="46.37365" lon="-0.34323">
        <ele>38.2</ele>
        <time>2020-05-31T09:04:15Z</time>
      </trkpt>
      <trkpt lat="46.37361" lon="-0.34327">
        <ele>38.2</ele>
        <time>2020-05-31T09:04:16Z</time>
      </trkpt>
      <trkpt lat="46.37358" lon="-0.34333">
        <ele>38.2</ele>
        <time>2020-05-31T09:04:17Z</time>
      </trkpt>
      <trkpt lat="46.37353" lon="-0.34336">
        <ele>38.2</ele>
        <time>2020-05-31T09:04:18Z</time>
      </trkpt>
      <trkpt lat="46.37349" lon="-0.3434">
        <ele>38.2</ele>
        <time>2020-05-31T09:04:19Z</time>
      </trkpt>
      <trkpt lat="46.37345" lon="-0.34344">
        <ele>38.2</ele>
        <time>2020-05-31T09:04:20Z</time>
      </trkpt>
      <trkpt lat="46.37341" lon="-0.34348">
        <ele>38.3</ele>
        <time>2020-05-31T09:04:21Z</time>
      </trkpt>
      <trkpt lat="46.37337" lon="-0.34352">
        <ele>38.3</ele>
        <time>2020-05-31T09:04:22Z</time>
      </trkpt>
      <trkpt lat="46.37332" lon="-0.34356">
        <ele>38.4</ele>
        <time>2020-05-31T09:04:23Z</time>
      </trkpt>
      <trkpt lat="46.37327" lon="-0.3436">
        <ele>38.4</ele>
        <time>2020-05-31T09:04:24Z</time>
      </trkpt>
      <trkpt lat="46.37321" lon="-0.34364">
        <ele>38.5</ele>
        <time>2020-05-31T09:04:25Z</time>
      </trkpt>
      <trkpt lat="46.37315" lon="-0.34368">
        <ele>38.6</ele>
        <time>2020-05-31T09:04:26Z</time>
      </trkpt>
      <trkpt lat="46.37309" lon="-0.34372">
        <ele>38.7</ele>
        <time>2020-05-31T09:04:27Z</time>
      </trkpt>
      <trkpt lat="46.37304" lon="-0.34376">
        <ele>38.8</ele>
        <time>2020-05-31T09:04:28Z</time>
      </trkpt>
      <trkpt lat="46.37298" lon="-0.34381">
        <ele>38.8</ele>
        <time>2020-05-31T09:04:29Z</time>
      </trkpt>
      <trkpt lat="46.37292" lon="-0.34385">
        <ele>38.9</ele>
        <time>2020-05-31T09:04:30Z</time>
      </trkpt>
      <trkpt lat="46.37286" lon="-0.34387">
        <ele>39</ele>
        <time>2020-05-31T09:04:31Z</time>
      </trkpt>
      <trkpt lat="46.37279" lon="-0.3439">
        <ele>39.1</ele>
        <time>2020-05-31T09:04:32Z</time>
      </trkpt>
      <trkpt lat="46.37272" lon="-0.34393">
        <ele>39.3</ele>
        <time>2020-05-31T09:04:33Z</time>
      </trkpt>
      <trkpt lat="46.37266" lon="-0.34397">
        <ele>39.5</ele>
        <time>2020-05-31T09:04:34Z</time>
      </trkpt>
      <trkpt lat="46.37259" lon="-0.34402">
        <ele>39.6</ele>
        <time>2020-05-31T09:04:35Z</time>
      </trkpt>
      <trkpt lat="46.37252" lon="-0.34407">
        <ele>39.7</ele>
        <time>2020-05-31T09:04:36Z</time>
      </trkpt>
      <trkpt lat="46.37246" lon="-0.34412">
        <ele>39.9</ele>
        <time>2020-05-31T09:04:37Z</time>
      </trkpt>
      <trkpt lat="46.37241" lon="-0.34417">
        <ele>40.1</ele>
        <time>2020-05-31T09:04:38Z</time>
      </trkpt>
      <trkpt lat="46.37237" lon="-0.34421">
        <ele>40.2</ele>
        <time>2020-05-31T09:04:39Z</time>
      </trkpt>
      <trkpt lat="46.37233" lon="-0.34426">
        <ele>40.3</ele>
        <time>2020-05-31T09:04:40Z</time>
      </trkpt>
      <trkpt lat="46.37229" lon="-0.34431">
        <ele>40.4</ele>
        <time>2020-05-31T09:04:41Z</time>
      </trkpt>
      <trkpt lat="46.37225" lon="-0.34436">
        <ele>40.6</ele>
        <time>2020-05-31T09:04:42Z</time>
      </trkpt>
      <trkpt lat="46.37223" lon="-0.34444">
        <ele>40.9</ele>
        <time>2020-05-31T09:04:43Z</time>
      </trkpt>
      <trkpt lat="46.37223" lon="-0.34452">
        <ele>40.8</ele>
        <time>2020-05-31T09:04:44Z</time>
      </trkpt>
      <trkpt lat="46.37225" lon="-0.3446">
        <ele>40.8</ele>
        <time>2020-05-31T09:04:45Z</time>
      </trkpt>
      <trkpt lat="46.37227" lon="-0.34467">
        <ele>40.8</ele>
        <time>2020-05-31T09:04:46Z</time>
      </trkpt>
      <trkpt lat="46.37229" lon="-0.34474">
        <ele>40.7</ele>
        <time>2020-05-31T09:04:47Z</time>
      </trkpt>
      <trkpt lat="46.37231" lon="-0.3448">
        <ele>40.7</ele>
        <time>2020-05-31T09:04:48Z</time>
      </trkpt>
      <trkpt lat="46.37233" lon="-0.34485">
        <ele>40.7</ele>
        <time>2020-05-31T09:04:49Z</time>
      </trkpt>
      <trkpt lat="46.37236" lon="-0.34491">
        <ele>40.7</ele>
        <time>2020-05-31T09:04:50Z</time>
      </trkpt>
      <trkpt lat="46.37239" lon="-0.34496">
        <ele>40.7</ele>
        <time>2020-05-31T09:04:51Z</time>
      </trkpt>
      <trkpt lat="46.37241" lon="-0.34503">
        <ele>40.6</ele>
        <time>2020-05-31T09:04:52Z</time>
      </trkpt>
      <trkpt lat="46.37245" lon="-0.34508">
        <ele>40.6</ele>
        <time>2020-05-31T09:04:53Z</time>
      </trkpt>
      <trkpt lat="46.37251" lon="-0.34513">
        <ele>40.5</ele>
        <time>2020-05-31T09:04:54Z</time>
      </trkpt>
      <trkpt lat="46.37257" lon="-0.34517">
        <ele>40.5</ele>
        <time>2020-05-31T09:04:55Z</time>
      </trkpt>
      <trkpt lat="46.37263" lon="-0.34523">
        <ele>40.4</ele>
        <time>2020-05-31T09:04:56Z</time>
      </trkpt>
      <trkpt lat="46.37268" lon="-0.34529">
        <ele>40.4</ele>
        <time>2020-05-31T09:04:57Z</time>
      </trkpt>
      <trkpt lat="46.37274" lon="-0.34534">
        <ele>40.3</ele>
        <time>2020-05-31T09:04:58Z</time>
      </trkpt>
      <trkpt lat="46.37279" lon="-0.34541">
        <ele>40.3</ele>
        <time>2020-05-31T09:04:59Z</time>
      </trkpt>
      <trkpt lat="46.37285" lon="-0.34547">
        <ele>40.3</ele>
        <time>2020-05-31T09:05:00Z</time>
      </trkpt>
      <trkpt lat="46.37288" lon="-0.34556">
        <ele>40.3</ele>
        <time>2020-05-31T09:05:01Z</time>
      </trkpt>
      <trkpt lat="46.37291" lon="-0.34565">
        <ele>40.3</ele>
        <time>2020-05-31T09:05:02Z</time>
      </trkpt>
      <trkpt lat="46.37293" lon="-0.34575">
        <ele>40.3</ele>
        <time>2020-05-31T09:05:03Z</time>
      </trkpt>
      <trkpt lat="46.37295" lon="-0.34585">
        <ele>40.5</ele>
        <time>2020-05-31T09:05:04Z</time>
      </trkpt>
      <trkpt lat="46.37294" lon="-0.34594">
        <ele>40.7</ele>
        <time>2020-05-31T09:05:05Z</time>
      </trkpt>
      <trkpt lat="46.37292" lon="-0.34603">
        <ele>40.8</ele>
        <time>2020-05-31T09:05:06Z</time>
      </trkpt>
      <trkpt lat="46.37291" lon="-0.34611">
        <ele>40.9</ele>
        <time>2020-05-31T09:05:07Z</time>
      </trkpt>
      <trkpt lat="46.3729" lon="-0.3462">
        <ele>41.1</ele>
        <time>2020-05-31T09:05:08Z</time>
      </trkpt>
      <trkpt lat="46.37289" lon="-0.34628">
        <ele>41.3</ele>
        <time>2020-05-31T09:05:09Z</time>
      </trkpt>
      <trkpt lat="46.37287" lon="-0.34635">
        <ele>41.5</ele>
        <time>2020-05-31T09:05:10Z</time>
      </trkpt>
      <trkpt lat="46.37286" lon="-0.34643">
        <ele>41.8</ele>
        <time>2020-05-31T09:05:11Z</time>
      </trkpt>
      <trkpt lat="46.37285" lon="-0.3465">
        <ele>42</ele>
        <time>2020-05-31T09:05:12Z</time>
      </trkpt>
      <trkpt lat="46.37283" lon="-0.34656">
        <ele>42.2</ele>
        <time>2020-05-31T09:05:13Z</time>
      </trkpt>
      <trkpt lat="46.37283" lon="-0.34664">
        <ele>42.5</ele>
        <time>2020-05-31T09:05:14Z</time>
      </trkpt>
      <trkpt lat="46.37283" lon="-0.34671">
        <ele>42.8</ele>
        <time>2020-05-31T09:05:15Z</time>
      </trkpt>
      <trkpt lat="46.37283" lon="-0.34679">
        <ele>43.1</ele>
        <time>2020-05-31T09:05:16Z</time>
      </trkpt>
      <trkpt lat="46.37282" lon="-0.34686">
        <ele>43.4</ele>
        <time>2020-05-31T09:05:17Z</time>
      </trkpt>
      <trkpt lat="46.37282" lon="-0.34693">
        <ele>43.7</ele>
        <time>2020-05-31T09:05:18Z</time>
      </trkpt>
      <trkpt lat="46.37282" lon="-0.347">
        <ele>44</ele>
        <time>2020-05-31T09:05:19Z</time>
      </trkpt>
      <trkpt lat="46.37281" lon="-0.34708">
        <ele>44.4</ele>
        <time>2020-05-31T09:05:20Z</time>
      </trkpt>
      <trkpt lat="46.37281" lon="-0.34714">
        <ele>44.7</ele>
        <time>2020-05-31T09:05:21Z</time>
      </trkpt>
      <trkpt lat="46.37281" lon="-0.3472">
        <ele>45</ele>
        <time>2020-05-31T09:05:22Z</time>
      </trkpt>
      <trkpt lat="46.37281" lon="-0.34726">
        <ele>45.3</ele>
        <time>2020-05-31T09:05:23Z</time>
      </trkpt>
      <trkpt lat="46.37281" lon="-0.34731">
        <ele>45.6</ele>
        <time>2020-05-31T09:05:24Z</time>
      </trkpt>
      <trkpt lat="46.37282" lon="-0.34737">
        <ele>45.9</ele>
        <time>2020-05-31T09:05:25Z</time>
      </trkpt>
      <trkpt lat="46.37282" lon="-0.34742">
        <ele>46.2</ele>
        <time>2020-05-31T09:05:26Z</time>
      </trkpt>
      <trkpt lat="46.37282" lon="-0.34747">
        <ele>46.5</ele>
        <time>2020-05-31T09:05:27Z</time>
      </trkpt>
      <trkpt lat="46.37283" lon="-0.34753">
        <ele>46.8</ele>
        <time>2020-05-31T09:05:28Z</time>
      </trkpt>
      <trkpt lat="46.37283" lon="-0.34758">
        <ele>47</ele>
        <time>2020-05-31T09:05:29Z</time>
      </trkpt>
      <trkpt lat="46.37283" lon="-0.34764">
        <ele>47.3</ele>
        <time>2020-05-31T09:05:30Z</time>
      </trkpt>
      <trkpt lat="46.37283" lon="-0.34769">
        <ele>47.6</ele>
        <time>2020-05-31T09:05:31Z</time>
      </trkpt>
      <trkpt lat="46.37283" lon="-0.34775">
        <ele>47.8</ele>
        <time>2020-05-31T09:05:32Z</time>
      </trkpt>
      <trkpt lat="46.37283" lon="-0.34781">
        <ele>48.1</ele>
        <time>2020-05-31T09:05:33Z</time>
      </trkpt>
      <trkpt lat="46.37283" lon="-0.34787">
        <ele>48.4</ele>
        <time>2020-05-31T09:05:34Z</time>
      </trkpt>
      <trkpt lat="46.37283" lon="-0.34794">
        <ele>48.7</ele>
        <time>2020-05-31T09:05:35Z</time>
      </trkpt>
      <trkpt lat="46.37282" lon="-0.34801">
        <ele>49</ele>
        <time>2020-05-31T09:05:36Z</time>
      </trkpt>
      <trkpt lat="46.37283" lon="-0.34806">
        <ele>49.2</ele>
        <time>2020-05-31T09:05:37Z</time>
      </trkpt>
      <trkpt lat="46.37283" lon="-0.34811">
        <ele>49.4</ele>
        <time>2020-05-31T09:05:38Z</time>
      </trkpt>
      <trkpt lat="46.37282" lon="-0.34815">
        <ele>49.6</ele>
        <time>2020-05-31T09:05:39Z</time>
      </trkpt>
      <trkpt lat="46.37281" lon="-0.34821">
        <ele>49.9</ele>
        <time>2020-05-31T09:05:40Z</time>
      </trkpt>
      <trkpt lat="46.3728" lon="-0.34826">
        <ele>50.1</ele>
        <time>2020-05-31T09:05:41Z</time>
      </trkpt>
      <trkpt lat="46.3728" lon="-0.34828">
        <ele>50.2</ele>
        <time>2020-05-31T09:05:42Z</time>
      </trkpt>
      <trkpt lat="46.37279" lon="-0.34833">
        <ele>50.4</ele>
        <time>2020-05-31T09:05:43Z</time>
      </trkpt>
      <trkpt lat="46.37277" lon="-0.34837">
        <ele>50.6</ele>
        <time>2020-05-31T09:05:44Z</time>
      </trkpt>
      <trkpt lat="46.37276" lon="-0.34842">
        <ele>50.7</ele>
        <time>2020-05-31T09:05:45Z</time>
      </trkpt>
      <trkpt lat="46.37275" lon="-0.34847">
        <ele>50.9</ele>
        <time>2020-05-31T09:05:46Z</time>
      </trkpt>
      <trkpt lat="46.37275" lon="-0.34849">
        <ele>51</ele>
        <time>2020-05-31T09:05:47Z</time>
      </trkpt>
      <trkpt lat="46.37274" lon="-0.34854">
        <ele>51.2</ele>
        <time>2020-05-31T09:05:48Z</time>
      </trkpt>
      <trkpt lat="46.37273" lon="-0.34856">
        <ele>51.2</ele>
        <time>2020-05-31T09:05:49Z</time>
      </trkpt>
      <trkpt lat="46.37273" lon="-0.34861">
        <ele>51.4</ele>
        <time>2020-05-31T09:05:50Z</time>
      </trkpt>
      <trkpt lat="46.37271" lon="-0.34865">
        <ele>51.5</ele>
        <time>2020-05-31T09:05:51Z</time>
      </trkpt>
      <trkpt lat="46.3727" lon="-0.34869">
        <ele>51.6</ele>
        <time>2020-05-31T09:05:52Z</time>
      </trkpt>
      <trkpt lat="46.37268" lon="-0.34874">
        <ele>51.8</ele>
        <time>2020-05-31T09:05:53Z</time>
      </trkpt>
      <trkpt lat="46.37267" lon="-0.3488">
        <ele>51.9</ele>
        <time>2020-05-31T09:05:54Z</time>
      </trkpt>
      <trkpt lat="46.37266" lon="-0.34881">
        <ele>52</ele>
        <time>2020-05-31T09:05:55Z</time>
      </trkpt>
      <trkpt lat="46.37264" lon="-0.34885">
        <ele>52.1</ele>
        <time>2020-05-31T09:05:56Z</time>
      </trkpt>
      <trkpt lat="46.37262" lon="-0.3489">
        <ele>52.2</ele>
        <time>2020-05-31T09:05:57Z</time>
      </trkpt>
      <trkpt lat="46.37261" lon="-0.34893">
        <ele>52.3</ele>
        <time>2020-05-31T09:05:58Z</time>
      </trkpt>
      <trkpt lat="46.37258" lon="-0.34897">
        <ele>52.4</ele>
        <time>2020-05-31T09:05:59Z</time>
      </trkpt>
      <trkpt lat="46.37258" lon="-0.34899">
        <ele>52.4</ele>
        <time>2020-05-31T09:06:00Z</time>
      </trkpt>
      <trkpt lat="46.37256" lon="-0.34903">
        <ele>52.5</ele>
        <time>2020-05-31T09:06:01Z</time>
      </trkpt>
      <trkpt lat="46.37254" lon="-0.34907">
        <ele>52.5</ele>
        <time>2020-05-31T09:06:02Z</time>
      </trkpt>
      <trkpt lat="46.37252" lon="-0.34911">
        <ele>52.6</ele>
        <time>2020-05-31T09:06:03Z</time>
      </trkpt>
      <trkpt lat="46.37251" lon="-0.34916">
        <ele>52.6</ele>
        <time>2020-05-31T09:06:04Z</time>
      </trkpt>
      <trkpt lat="46.37249" lon="-0.34921">
        <ele>52.6</ele>
        <time>2020-05-31T09:06:05Z</time>
      </trkpt>
      <trkpt lat="46.37249" lon="-0.34923">
        <ele>52.6</ele>
        <time>2020-05-31T09:06:06Z</time>
      </trkpt>
      <trkpt lat="46.37247" lon="-0.34928">
        <ele>52.6</ele>
        <time>2020-05-31T09:06:07Z</time>
      </trkpt>
      <trkpt lat="46.37246" lon="-0.34932">
        <ele>52.6</ele>
        <time>2020-05-31T09:06:08Z</time>
      </trkpt>
      <trkpt lat="46.37245" lon="-0.34936">
        <ele>52.6</ele>
        <time>2020-05-31T09:06:09Z</time>
      </trkpt>
      <trkpt lat="46.37244" lon="-0.3494">
        <ele>52.6</ele>
        <time>2020-05-31T09:06:10Z</time>
      </trkpt>
      <trkpt lat="46.37242" lon="-0.34945">
        <ele>52.6</ele>
        <time>2020-05-31T09:06:11Z</time>
      </trkpt>
      <trkpt lat="46.3724" lon="-0.34949">
        <ele>52.6</ele>
        <time>2020-05-31T09:06:12Z</time>
      </trkpt>
      <trkpt lat="46.37239" lon="-0.34954">
        <ele>52.6</ele>
        <time>2020-05-31T09:06:13Z</time>
      </trkpt>
      <trkpt lat="46.37238" lon="-0.34955">
        <ele>52.6</ele>
        <time>2020-05-31T09:06:14Z</time>
      </trkpt>
      <trkpt lat="46.37236" lon="-0.34961">
        <ele>52.6</ele>
        <time>2020-05-31T09:06:15Z</time>
      </trkpt>
      <trkpt lat="46.37235" lon="-0.34963">
        <ele>52.6</ele>
        <time>2020-05-31T09:06:16Z</time>
      </trkpt>
      <trkpt lat="46.37234" lon="-0.34967">
        <ele>52.6</ele>
        <time>2020-05-31T09:06:17Z</time>
      </trkpt>
      <trkpt lat="46.37233" lon="-0.34971">
        <ele>52.6</ele>
        <time>2020-05-31T09:06:18Z</time>
      </trkpt>
      <trkpt lat="46.37232" lon="-0.34976">
        <ele>52.6</ele>
        <time>2020-05-31T09:06:19Z</time>
      </trkpt>
      <trkpt lat="46.37231" lon="-0.34982">
        <ele>52.7</ele>
        <time>2020-05-31T09:06:20Z</time>
      </trkpt>
      <trkpt lat="46.3723" lon="-0.34988">
        <ele>52.7</ele>
        <time>2020-05-31T09:06:21Z</time>
      </trkpt>
      <trkpt lat="46.37229" lon="-0.34994">
        <ele>52.6</ele>
        <time>2020-05-31T09:06:22Z</time>
      </trkpt>
      <trkpt lat="46.37226" lon="-0.35">
        <ele>52.6</ele>
        <time>2020-05-31T09:06:23Z</time>
      </trkpt>
      <trkpt lat="46.37225" lon="-0.35005">
        <ele>52.6</ele>
        <time>2020-05-31T09:06:24Z</time>
      </trkpt>
      <trkpt lat="46.37224" lon="-0.35011">
        <ele>52.6</ele>
        <time>2020-05-31T09:06:25Z</time>
      </trkpt>
      <trkpt lat="46.37223" lon="-0.35015">
        <ele>52.5</ele>
        <time>2020-05-31T09:06:26Z</time>
      </trkpt>
      <trkpt lat="46.37222" lon="-0.35017">
        <ele>52.5</ele>
        <time>2020-05-31T09:06:27Z</time>
      </trkpt>
      <trkpt lat="46.37222" lon="-0.35022">
        <ele>52.5</ele>
        <time>2020-05-31T09:06:28Z</time>
      </trkpt>
      <trkpt lat="46.37221" lon="-0.35027">
        <ele>52.5</ele>
        <time>2020-05-31T09:06:29Z</time>
      </trkpt>
      <trkpt lat="46.37219" lon="-0.35032">
        <ele>52.5</ele>
        <time>2020-05-31T09:06:30Z</time>
      </trkpt>
      <trkpt lat="46.37218" lon="-0.35039">
        <ele>52.5</ele>
        <time>2020-05-31T09:06:31Z</time>
      </trkpt>
      <trkpt lat="46.37216" lon="-0.35045">
        <ele>52.4</ele>
        <time>2020-05-31T09:06:32Z</time>
      </trkpt>
      <trkpt lat="46.37215" lon="-0.35051">
        <ele>52.4</ele>
        <time>2020-05-31T09:06:33Z</time>
      </trkpt>
      <trkpt lat="46.37213" lon="-0.35056">
        <ele>52.4</ele>
        <time>2020-05-31T09:06:34Z</time>
      </trkpt>
      <trkpt lat="46.37212" lon="-0.35062">
        <ele>52.3</ele>
        <time>2020-05-31T09:06:35Z</time>
      </trkpt>
      <trkpt lat="46.3721" lon="-0.35069">
        <ele>52.3</ele>
        <time>2020-05-31T09:06:36Z</time>
      </trkpt>
      <trkpt lat="46.37208" lon="-0.35074">
        <ele>52.2</ele>
        <time>2020-05-31T09:06:37Z</time>
      </trkpt>
      <trkpt lat="46.37207" lon="-0.35081">
        <ele>52.1</ele>
        <time>2020-05-31T09:06:38Z</time>
      </trkpt>
      <trkpt lat="46.37206" lon="-0.35088">
        <ele>52</ele>
        <time>2020-05-31T09:06:39Z</time>
      </trkpt>
      <trkpt lat="46.37205" lon="-0.35095">
        <ele>51.9</ele>
        <time>2020-05-31T09:06:40Z</time>
      </trkpt>
      <trkpt lat="46.37203" lon="-0.351">
        <ele>51.8</ele>
        <time>2020-05-31T09:06:41Z</time>
      </trkpt>
      <trkpt lat="46.37201" lon="-0.35107">
        <ele>51.7</ele>
        <time>2020-05-31T09:06:42Z</time>
      </trkpt>
      <trkpt lat="46.37199" lon="-0.35114">
        <ele>51.5</ele>
        <time>2020-05-31T09:06:43Z</time>
      </trkpt>
      <trkpt lat="46.37196" lon="-0.35124">
        <ele>51.3</ele>
        <time>2020-05-31T09:06:44Z</time>
      </trkpt>
      <trkpt lat="46.37194" lon="-0.35134">
        <ele>51.1</ele>
        <time>2020-05-31T09:06:45Z</time>
      </trkpt>
      <trkpt lat="46.37192" lon="-0.35142">
        <ele>50.7</ele>
        <time>2020-05-31T09:06:46Z</time>
      </trkpt>
      <trkpt lat="46.3719" lon="-0.3515">
        <ele>50.4</ele>
        <time>2020-05-31T09:06:47Z</time>
      </trkpt>
      <trkpt lat="46.37187" lon="-0.3516">
        <ele>49.9</ele>
        <time>2020-05-31T09:06:48Z</time>
      </trkpt>
      <trkpt lat="46.37185" lon="-0.35171">
        <ele>49.4</ele>
        <time>2020-05-31T09:06:49Z</time>
      </trkpt>
      <trkpt lat="46.37183" lon="-0.35182">
        <ele>48.8</ele>
        <time>2020-05-31T09:06:50Z</time>
      </trkpt>
      <trkpt lat="46.37181" lon="-0.35194">
        <ele>48.2</ele>
        <time>2020-05-31T09:06:51Z</time>
      </trkpt>
      <trkpt lat="46.37179" lon="-0.35205">
        <ele>47.6</ele>
        <time>2020-05-31T09:06:52Z</time>
      </trkpt>
      <trkpt lat="46.37177" lon="-0.35217">
        <ele>46.9</ele>
        <time>2020-05-31T09:06:53Z</time>
      </trkpt>
      <trkpt lat="46.37176" lon="-0.35231">
        <ele>46.2</ele>
        <time>2020-05-31T09:06:54Z</time>
      </trkpt>
      <trkpt lat="46.37174" lon="-0.35244">
        <ele>45.6</ele>
        <time>2020-05-31T09:06:55Z</time>
      </trkpt>
      <trkpt lat="46.37174" lon="-0.35259">
        <ele>45.3</ele>
        <time>2020-05-31T09:06:56Z</time>
      </trkpt>
      <trkpt lat="46.37173" lon="-0.35273">
        <ele>45.1</ele>
        <time>2020-05-31T09:06:57Z</time>
      </trkpt>
      <trkpt lat="46.37172" lon="-0.35287">
        <ele>44.9</ele>
        <time>2020-05-31T09:06:58Z</time>
      </trkpt>
      <trkpt lat="46.37171" lon="-0.35301">
        <ele>44.6</ele>
        <time>2020-05-31T09:06:59Z</time>
      </trkpt>
      <trkpt lat="46.3717" lon="-0.35315">
        <ele>44.3</ele>
        <time>2020-05-31T09:07:00Z</time>
      </trkpt>
      <trkpt lat="46.37169" lon="-0.35329">
        <ele>44.1</ele>
        <time>2020-05-31T09:07:01Z</time>
      </trkpt>
      <trkpt lat="46.37167" lon="-0.35343">
        <ele>43.8</ele>
        <time>2020-05-31T09:07:02Z</time>
      </trkpt>
      <trkpt lat="46.37165" lon="-0.35356">
        <ele>43.8</ele>
        <time>2020-05-31T09:07:03Z</time>
      </trkpt>
      <trkpt lat="46.37163" lon="-0.35368">
        <ele>43.9</ele>
        <time>2020-05-31T09:07:04Z</time>
      </trkpt>
      <trkpt lat="46.37161" lon="-0.3538">
        <ele>44.1</ele>
        <time>2020-05-31T09:07:05Z</time>
      </trkpt>
      <trkpt lat="46.37159" lon="-0.35392">
        <ele>44.3</ele>
        <time>2020-05-31T09:07:06Z</time>
      </trkpt>
      <trkpt lat="46.37158" lon="-0.35403">
        <ele>44.5</ele>
        <time>2020-05-31T09:07:07Z</time>
      </trkpt>
      <trkpt lat="46.37155" lon="-0.35413">
        <ele>44.6</ele>
        <time>2020-05-31T09:07:08Z</time>
      </trkpt>
      <trkpt lat="46.37152" lon="-0.35423">
        <ele>44.8</ele>
        <time>2020-05-31T09:07:09Z</time>
      </trkpt>
      <trkpt lat="46.37148" lon="-0.35431">
        <ele>45</ele>
        <time>2020-05-31T09:07:10Z</time>
      </trkpt>
      <trkpt lat="46.37144" lon="-0.3544">
        <ele>45.3</ele>
        <time>2020-05-31T09:07:11Z</time>
      </trkpt>
      <trkpt lat="46.37141" lon="-0.35449">
        <ele>45.6</ele>
        <time>2020-05-31T09:07:12Z</time>
      </trkpt>
      <trkpt lat="46.37137" lon="-0.35456">
        <ele>46</ele>
        <time>2020-05-31T09:07:13Z</time>
      </trkpt>
      <trkpt lat="46.37133" lon="-0.35464">
        <ele>46.3</ele>
        <time>2020-05-31T09:07:14Z</time>
      </trkpt>
      <trkpt lat="46.37129" lon="-0.35471">
        <ele>46.6</ele>
        <time>2020-05-31T09:07:15Z</time>
      </trkpt>
      <trkpt lat="46.37125" lon="-0.35478">
        <ele>46.9</ele>
        <time>2020-05-31T09:07:16Z</time>
      </trkpt>
      <trkpt lat="46.3712" lon="-0.35484">
        <ele>47.3</ele>
        <time>2020-05-31T09:07:17Z</time>
      </trkpt>
      <trkpt lat="46.37116" lon="-0.35491">
        <ele>47.6</ele>
        <time>2020-05-31T09:07:18Z</time>
      </trkpt>
      <trkpt lat="46.37111" lon="-0.35496">
        <ele>47.9</ele>
        <time>2020-05-31T09:07:19Z</time>
      </trkpt>
      <trkpt lat="46.37106" lon="-0.35502">
        <ele>48.1</ele>
        <time>2020-05-31T09:07:20Z</time>
      </trkpt>
      <trkpt lat="46.37101" lon="-0.35507">
        <ele>48.2</ele>
        <time>2020-05-31T09:07:21Z</time>
      </trkpt>
      <trkpt lat="46.37096" lon="-0.35512">
        <ele>48.3</ele>
        <time>2020-05-31T09:07:22Z</time>
      </trkpt>
      <trkpt lat="46.37091" lon="-0.35516">
        <ele>48.6</ele>
        <time>2020-05-31T09:07:23Z</time>
      </trkpt>
      <trkpt lat="46.37086" lon="-0.3552">
        <ele>48.9</ele>
        <time>2020-05-31T09:07:24Z</time>
      </trkpt>
      <trkpt lat="46.37082" lon="-0.35523">
        <ele>49.2</ele>
        <time>2020-05-31T09:07:25Z</time>
      </trkpt>
      <trkpt lat="46.37078" lon="-0.35528">
        <ele>49.4</ele>
        <time>2020-05-31T09:07:26Z</time>
      </trkpt>
      <trkpt lat="46.37074" lon="-0.35534">
        <ele>49.7</ele>
        <time>2020-05-31T09:07:27Z</time>
      </trkpt>
      <trkpt lat="46.37069" lon="-0.35539">
        <ele>49.9</ele>
        <time>2020-05-31T09:07:28Z</time>
      </trkpt>
      <trkpt lat="46.37065" lon="-0.35542">
        <ele>50.1</ele>
        <time>2020-05-31T09:07:29Z</time>
      </trkpt>
      <trkpt lat="46.3706" lon="-0.35546">
        <ele>50.4</ele>
        <time>2020-05-31T09:07:30Z</time>
      </trkpt>
      <trkpt lat="46.37057" lon="-0.3555">
        <ele>50.5</ele>
        <time>2020-05-31T09:07:31Z</time>
      </trkpt>
      <trkpt lat="46.37052" lon="-0.35556">
        <ele>50.7</ele>
        <time>2020-05-31T09:07:32Z</time>
      </trkpt>
      <trkpt lat="46.37048" lon="-0.35559">
        <ele>50.9</ele>
        <time>2020-05-31T09:07:33Z</time>
      </trkpt>
      <trkpt lat="46.37045" lon="-0.35563">
        <ele>51</ele>
        <time>2020-05-31T09:07:34Z</time>
      </trkpt>
      <trkpt lat="46.37042" lon="-0.35566">
        <ele>51.2</ele>
        <time>2020-05-31T09:07:35Z</time>
      </trkpt>
      <trkpt lat="46.37037" lon="-0.35571">
        <ele>51.3</ele>
        <time>2020-05-31T09:07:36Z</time>
      </trkpt>
      <trkpt lat="46.37033" lon="-0.35575">
        <ele>51.5</ele>
        <time>2020-05-31T09:07:37Z</time>
      </trkpt>
      <trkpt lat="46.37029" lon="-0.3558">
        <ele>51.6</ele>
        <time>2020-05-31T09:07:38Z</time>
      </trkpt>
      <trkpt lat="46.37025" lon="-0.35583">
        <ele>51.7</ele>
        <time>2020-05-31T09:07:39Z</time>
      </trkpt>
      <trkpt lat="46.3702" lon="-0.35587">
        <ele>51.8</ele>
        <time>2020-05-31T09:07:40Z</time>
      </trkpt>
      <trkpt lat="46.37016" lon="-0.35591">
        <ele>51.9</ele>
        <time>2020-05-31T09:07:41Z</time>
      </trkpt>
      <trkpt lat="46.37012" lon="-0.35595">
        <ele>52.1</ele>
        <time>2020-05-31T09:07:42Z</time>
      </trkpt>
      <trkpt lat="46.37009" lon="-0.35597">
        <ele>52.2</ele>
        <time>2020-05-31T09:07:43Z</time>
      </trkpt>
      <trkpt lat="46.37005" lon="-0.35601">
        <ele>52.3</ele>
        <time>2020-05-31T09:07:44Z</time>
      </trkpt>
      <trkpt lat="46.37001" lon="-0.35605">
        <ele>52.4</ele>
        <time>2020-05-31T09:07:45Z</time>
      </trkpt>
      <trkpt lat="46.36997" lon="-0.35609">
        <ele>52.6</ele>
        <time>2020-05-31T09:07:46Z</time>
      </trkpt>
      <trkpt lat="46.36994" lon="-0.35612">
        <ele>52.7</ele>
        <time>2020-05-31T09:07:47Z</time>
      </trkpt>
      <trkpt lat="46.36989" lon="-0.35617">
        <ele>52.8</ele>
        <time>2020-05-31T09:07:48Z</time>
      </trkpt>
      <trkpt lat="46.36985" lon="-0.35621">
        <ele>53</ele>
        <time>2020-05-31T09:07:49Z</time>
      </trkpt>
      <trkpt lat="46.36981" lon="-0.35624">
        <ele>53.1</ele>
        <time>2020-05-31T09:07:50Z</time>
      </trkpt>
      <trkpt lat="46.36977" lon="-0.35629">
        <ele>53.3</ele>
        <time>2020-05-31T09:07:51Z</time>
      </trkpt>
      <trkpt lat="46.36972" lon="-0.35633">
        <ele>53.4</ele>
        <time>2020-05-31T09:07:52Z</time>
      </trkpt>
      <trkpt lat="46.36968" lon="-0.35638">
        <ele>53.5</ele>
        <time>2020-05-31T09:07:53Z</time>
      </trkpt>
      <trkpt lat="46.36966" lon="-0.35642">
        <ele>53.6</ele>
        <time>2020-05-31T09:07:54Z</time>
      </trkpt>
      <trkpt lat="46.36962" lon="-0.35646">
        <ele>53.7</ele>
        <time>2020-05-31T09:07:55Z</time>
      </trkpt>
      <trkpt lat="46.36957" lon="-0.35651">
        <ele>53.8</ele>
        <time>2020-05-31T09:07:56Z</time>
      </trkpt>
      <trkpt lat="46.36953" lon="-0.35654">
        <ele>53.8</ele>
        <time>2020-05-31T09:07:57Z</time>
      </trkpt>
      <trkpt lat="46.36949" lon="-0.35658">
        <ele>53.9</ele>
        <time>2020-05-31T09:07:58Z</time>
      </trkpt>
      <trkpt lat="46.36945" lon="-0.35662">
        <ele>53.9</ele>
        <time>2020-05-31T09:07:59Z</time>
      </trkpt>
      <trkpt lat="46.36942" lon="-0.35668">
        <ele>54</ele>
        <time>2020-05-31T09:08:00Z</time>
      </trkpt>
      <trkpt lat="46.36938" lon="-0.35674">
        <ele>54</ele>
        <time>2020-05-31T09:08:01Z</time>
      </trkpt>
      <trkpt lat="46.36933" lon="-0.35678">
        <ele>54.1</ele>
        <time>2020-05-31T09:08:02Z</time>
      </trkpt>
      <trkpt lat="46.36929" lon="-0.35683">
        <ele>54.1</ele>
        <time>2020-05-31T09:08:03Z</time>
      </trkpt>
      <trkpt lat="46.36925" lon="-0.35686">
        <ele>54.1</ele>
        <time>2020-05-31T09:08:04Z</time>
      </trkpt>
      <trkpt lat="46.3692" lon="-0.35691">
        <ele>54.2</ele>
        <time>2020-05-31T09:08:05Z</time>
      </trkpt>
      <trkpt lat="46.36916" lon="-0.35695">
        <ele>54.2</ele>
        <time>2020-05-31T09:08:06Z</time>
      </trkpt>
      <trkpt lat="46.36912" lon="-0.35696">
        <ele>54.2</ele>
        <time>2020-05-31T09:08:07Z</time>
      </trkpt>
      <trkpt lat="46.36908" lon="-0.35698">
        <ele>54.2</ele>
        <time>2020-05-31T09:08:08Z</time>
      </trkpt>
      <trkpt lat="46.36904" lon="-0.35701">
        <ele>54.2</ele>
        <time>2020-05-31T09:08:09Z</time>
      </trkpt>
      <trkpt lat="46.369" lon="-0.35704">
        <ele>54.2</ele>
        <time>2020-05-31T09:08:10Z</time>
      </trkpt>
      <trkpt lat="46.36896" lon="-0.35708">
        <ele>54.2</ele>
        <time>2020-05-31T09:08:11Z</time>
      </trkpt>
      <trkpt lat="46.36891" lon="-0.35712">
        <ele>54.2</ele>
        <time>2020-05-31T09:08:12Z</time>
      </trkpt>
      <trkpt lat="46.36888" lon="-0.35715">
        <ele>54.2</ele>
        <time>2020-05-31T09:08:13Z</time>
      </trkpt>
      <trkpt lat="46.36885" lon="-0.35718">
        <ele>54.2</ele>
        <time>2020-05-31T09:08:14Z</time>
      </trkpt>
      <trkpt lat="46.36882" lon="-0.35721">
        <ele>54.2</ele>
        <time>2020-05-31T09:08:15Z</time>
      </trkpt>
      <trkpt lat="46.36878" lon="-0.35724">
        <ele>54.2</ele>
        <time>2020-05-31T09:08:16Z</time>
      </trkpt>
      <trkpt lat="46.36875" lon="-0.35728">
        <ele>54.2</ele>
        <time>2020-05-31T09:08:17Z</time>
      </trkpt>
      <trkpt lat="46.36872" lon="-0.35731">
        <ele>54.3</ele>
        <time>2020-05-31T09:08:18Z</time>
      </trkpt>
      <trkpt lat="46.36867" lon="-0.35734">
        <ele>54.3</ele>
        <time>2020-05-31T09:08:19Z</time>
      </trkpt>
      <trkpt lat="46.36863" lon="-0.35739">
        <ele>54.3</ele>
        <time>2020-05-31T09:08:20Z</time>
      </trkpt>
      <trkpt lat="46.36859" lon="-0.35744">
        <ele>54.3</ele>
        <time>2020-05-31T09:08:21Z</time>
      </trkpt>
      <trkpt lat="46.36855" lon="-0.35748">
        <ele>54.4</ele>
        <time>2020-05-31T09:08:22Z</time>
      </trkpt>
      <trkpt lat="46.3685" lon="-0.35752">
        <ele>54.4</ele>
        <time>2020-05-31T09:08:23Z</time>
      </trkpt>
      <trkpt lat="46.36845" lon="-0.35756">
        <ele>54.4</ele>
        <time>2020-05-31T09:08:24Z</time>
      </trkpt>
      <trkpt lat="46.36841" lon="-0.35761">
        <ele>54.4</ele>
        <time>2020-05-31T09:08:25Z</time>
      </trkpt>
      <trkpt lat="46.36837" lon="-0.35765">
        <ele>54.4</ele>
        <time>2020-05-31T09:08:26Z</time>
      </trkpt>
      <trkpt lat="46.36833" lon="-0.35768">
        <ele>54.5</ele>
        <time>2020-05-31T09:08:27Z</time>
      </trkpt>
      <trkpt lat="46.36829" lon="-0.35772">
        <ele>54.5</ele>
        <time>2020-05-31T09:08:28Z</time>
      </trkpt>
      <trkpt lat="46.36824" lon="-0.35775">
        <ele>54.5</ele>
        <time>2020-05-31T09:08:29Z</time>
      </trkpt>
      <trkpt lat="46.36819" lon="-0.35778">
        <ele>54.5</ele>
        <time>2020-05-31T09:08:30Z</time>
      </trkpt>
      <trkpt lat="46.36814" lon="-0.35782">
        <ele>54.5</ele>
        <time>2020-05-31T09:08:31Z</time>
      </trkpt>
      <trkpt lat="46.36809" lon="-0.35787">
        <ele>54.6</ele>
        <time>2020-05-31T09:08:32Z</time>
      </trkpt>
      <trkpt lat="46.36805" lon="-0.35788">
        <ele>54.6</ele>
        <time>2020-05-31T09:08:33Z</time>
      </trkpt>
      <trkpt lat="46.368" lon="-0.35793">
        <ele>54.6</ele>
        <time>2020-05-31T09:08:34Z</time>
      </trkpt>
      <trkpt lat="46.36794" lon="-0.35798">
        <ele>54.7</ele>
        <time>2020-05-31T09:08:35Z</time>
      </trkpt>
      <trkpt lat="46.36788" lon="-0.35802">
        <ele>54.8</ele>
        <time>2020-05-31T09:08:36Z</time>
      </trkpt>
      <trkpt lat="46.36783" lon="-0.35806">
        <ele>54.9</ele>
        <time>2020-05-31T09:08:37Z</time>
      </trkpt>
      <trkpt lat="46.36777" lon="-0.3581">
        <ele>55</ele>
        <time>2020-05-31T09:08:38Z</time>
      </trkpt>
      <trkpt lat="46.36773" lon="-0.35814">
        <ele>55.2</ele>
        <time>2020-05-31T09:08:39Z</time>
      </trkpt>
      <trkpt lat="46.36768" lon="-0.35818">
        <ele>55.3</ele>
        <time>2020-05-31T09:08:40Z</time>
      </trkpt>
      <trkpt lat="46.36763" lon="-0.35822">
        <ele>55.4</ele>
        <time>2020-05-31T09:08:41Z</time>
      </trkpt>
      <trkpt lat="46.36758" lon="-0.35826">
        <ele>55.6</ele>
        <time>2020-05-31T09:08:42Z</time>
      </trkpt>
      <trkpt lat="46.36753" lon="-0.35829">
        <ele>55.7</ele>
        <time>2020-05-31T09:08:43Z</time>
      </trkpt>
      <trkpt lat="46.36749" lon="-0.35833">
        <ele>55.8</ele>
        <time>2020-05-31T09:08:44Z</time>
      </trkpt>
      <trkpt lat="46.36744" lon="-0.35836">
        <ele>55.9</ele>
        <time>2020-05-31T09:08:45Z</time>
      </trkpt>
      <trkpt lat="46.36739" lon="-0.35838">
        <ele>56</ele>
        <time>2020-05-31T09:08:46Z</time>
      </trkpt>
      <trkpt lat="46.36735" lon="-0.35841">
        <ele>56.2</ele>
        <time>2020-05-31T09:08:47Z</time>
      </trkpt>
      <trkpt lat="46.3673" lon="-0.35843">
        <ele>56.3</ele>
        <time>2020-05-31T09:08:48Z</time>
      </trkpt>
      <trkpt lat="46.36725" lon="-0.35846">
        <ele>56.4</ele>
        <time>2020-05-31T09:08:49Z</time>
      </trkpt>
      <trkpt lat="46.3672" lon="-0.35849">
        <ele>56.5</ele>
        <time>2020-05-31T09:08:50Z</time>
      </trkpt>
      <trkpt lat="46.36715" lon="-0.35853">
        <ele>56.6</ele>
        <time>2020-05-31T09:08:51Z</time>
      </trkpt>
      <trkpt lat="46.3671" lon="-0.35858">
        <ele>56.7</ele>
        <time>2020-05-31T09:08:52Z</time>
      </trkpt>
      <trkpt lat="46.36705" lon="-0.3586">
        <ele>56.8</ele>
        <time>2020-05-31T09:08:53Z</time>
      </trkpt>
      <trkpt lat="46.36701" lon="-0.35863">
        <ele>56.8</ele>
        <time>2020-05-31T09:08:54Z</time>
      </trkpt>
      <trkpt lat="46.36698" lon="-0.35866">
        <ele>56.9</ele>
        <time>2020-05-31T09:08:55Z</time>
      </trkpt>
      <trkpt lat="46.36695" lon="-0.35868">
        <ele>56.9</ele>
        <time>2020-05-31T09:08:56Z</time>
      </trkpt>
      <trkpt lat="46.3669" lon="-0.35872">
        <ele>57</ele>
        <time>2020-05-31T09:08:57Z</time>
      </trkpt>
      <trkpt lat="46.36686" lon="-0.35875">
        <ele>57</ele>
        <time>2020-05-31T09:08:58Z</time>
      </trkpt>
      <trkpt lat="46.36682" lon="-0.35878">
        <ele>57</ele>
        <time>2020-05-31T09:08:59Z</time>
      </trkpt>
      <trkpt lat="46.36677" lon="-0.35882">
        <ele>57</ele>
        <time>2020-05-31T09:09:00Z</time>
      </trkpt>
      <trkpt lat="46.36673" lon="-0.35884">
        <ele>57</ele>
        <time>2020-05-31T09:09:01Z</time>
      </trkpt>
      <trkpt lat="46.36669" lon="-0.35888">
        <ele>57</ele>
        <time>2020-05-31T09:09:02Z</time>
      </trkpt>
      <trkpt lat="46.36664" lon="-0.35891">
        <ele>57</ele>
        <time>2020-05-31T09:09:03Z</time>
      </trkpt>
      <trkpt lat="46.36658" lon="-0.35893">
        <ele>56.9</ele>
        <time>2020-05-31T09:09:04Z</time>
      </trkpt>
      <trkpt lat="46.36653" lon="-0.35896">
        <ele>56.9</ele>
        <time>2020-05-31T09:09:05Z</time>
      </trkpt>
      <trkpt lat="46.36648" lon="-0.359">
        <ele>56.9</ele>
        <time>2020-05-31T09:09:06Z</time>
      </trkpt>
      <trkpt lat="46.36643" lon="-0.35904">
        <ele>56.8</ele>
        <time>2020-05-31T09:09:07Z</time>
      </trkpt>
      <trkpt lat="46.36638" lon="-0.35907">
        <ele>56.8</ele>
        <time>2020-05-31T09:09:08Z</time>
      </trkpt>
      <trkpt lat="46.36634" lon="-0.3591">
        <ele>56.8</ele>
        <time>2020-05-31T09:09:09Z</time>
      </trkpt>
      <trkpt lat="46.36629" lon="-0.35913">
        <ele>56.7</ele>
        <time>2020-05-31T09:09:10Z</time>
      </trkpt>
      <trkpt lat="46.36625" lon="-0.35916">
        <ele>56.7</ele>
        <time>2020-05-31T09:09:11Z</time>
      </trkpt>
      <trkpt lat="46.36622" lon="-0.3592">
        <ele>56.7</ele>
        <time>2020-05-31T09:09:12Z</time>
      </trkpt>
      <trkpt lat="46.36618" lon="-0.35925">
        <ele>56.6</ele>
        <time>2020-05-31T09:09:13Z</time>
      </trkpt>
      <trkpt lat="46.36613" lon="-0.3593">
        <ele>56.6</ele>
        <time>2020-05-31T09:09:14Z</time>
      </trkpt>
      <trkpt lat="46.36609" lon="-0.35934">
        <ele>56.5</ele>
        <time>2020-05-31T09:09:15Z</time>
      </trkpt>
      <trkpt lat="46.36605" lon="-0.35938">
        <ele>56.5</ele>
        <time>2020-05-31T09:09:16Z</time>
      </trkpt>
      <trkpt lat="46.36601" lon="-0.35944">
        <ele>56.5</ele>
        <time>2020-05-31T09:09:17Z</time>
      </trkpt>
      <trkpt lat="46.36596" lon="-0.35949">
        <ele>56.5</ele>
        <time>2020-05-31T09:09:18Z</time>
      </trkpt>
      <trkpt lat="46.36592" lon="-0.35953">
        <ele>56.5</ele>
        <time>2020-05-31T09:09:19Z</time>
      </trkpt>
      <trkpt lat="46.36588" lon="-0.35958">
        <ele>56.4</ele>
        <time>2020-05-31T09:09:20Z</time>
      </trkpt>
      <trkpt lat="46.36583" lon="-0.35961">
        <ele>56.4</ele>
        <time>2020-05-31T09:09:21Z</time>
      </trkpt>
      <trkpt lat="46.3658" lon="-0.35966">
        <ele>56.4</ele>
        <time>2020-05-31T09:09:22Z</time>
      </trkpt>
      <trkpt lat="46.36575" lon="-0.35971">
        <ele>56.4</ele>
        <time>2020-05-31T09:09:23Z</time>
      </trkpt>
      <trkpt lat="46.36571" lon="-0.35975">
        <ele>56.4</ele>
        <time>2020-05-31T09:09:24Z</time>
      </trkpt>
      <trkpt lat="46.36568" lon="-0.35981">
        <ele>56.4</ele>
        <time>2020-05-31T09:09:25Z</time>
      </trkpt>
      <trkpt lat="46.36564" lon="-0.35987">
        <ele>56.4</ele>
        <time>2020-05-31T09:09:26Z</time>
      </trkpt>
      <trkpt lat="46.3656" lon="-0.35993">
        <ele>56.4</ele>
        <time>2020-05-31T09:09:27Z</time>
      </trkpt>
      <trkpt lat="46.36557" lon="-0.35998">
        <ele>56.4</ele>
        <time>2020-05-31T09:09:28Z</time>
      </trkpt>
      <trkpt lat="46.36553" lon="-0.36002">
        <ele>56.4</ele>
        <time>2020-05-31T09:09:29Z</time>
      </trkpt>
      <trkpt lat="46.3655" lon="-0.36008">
        <ele>56.5</ele>
        <time>2020-05-31T09:09:30Z</time>
      </trkpt>
      <trkpt lat="46.36546" lon="-0.36012">
        <ele>56.5</ele>
        <time>2020-05-31T09:09:31Z</time>
      </trkpt>
      <trkpt lat="46.36543" lon="-0.36017">
        <ele>56.5</ele>
        <time>2020-05-31T09:09:32Z</time>
      </trkpt>
      <trkpt lat="46.3654" lon="-0.36023">
        <ele>56.5</ele>
        <time>2020-05-31T09:09:33Z</time>
      </trkpt>
      <trkpt lat="46.36535" lon="-0.36028">
        <ele>56.5</ele>
        <time>2020-05-31T09:09:34Z</time>
      </trkpt>
      <trkpt lat="46.36531" lon="-0.36034">
        <ele>56.5</ele>
        <time>2020-05-31T09:09:35Z</time>
      </trkpt>
      <trkpt lat="46.36527" lon="-0.36039">
        <ele>56.5</ele>
        <time>2020-05-31T09:09:36Z</time>
      </trkpt>
      <trkpt lat="46.36522" lon="-0.36045">
        <ele>56.5</ele>
        <time>2020-05-31T09:09:37Z</time>
      </trkpt>
      <trkpt lat="46.36518" lon="-0.36049">
        <ele>56.5</ele>
        <time>2020-05-31T09:09:38Z</time>
      </trkpt>
      <trkpt lat="46.36514" lon="-0.36055">
        <ele>56.5</ele>
        <time>2020-05-31T09:09:39Z</time>
      </trkpt>
      <trkpt lat="46.36511" lon="-0.36061">
        <ele>56.5</ele>
        <time>2020-05-31T09:09:40Z</time>
      </trkpt>
      <trkpt lat="46.36508" lon="-0.36065">
        <ele>56.6</ele>
        <time>2020-05-31T09:09:41Z</time>
      </trkpt>
      <trkpt lat="46.36505" lon="-0.3607">
        <ele>56.6</ele>
        <time>2020-05-31T09:09:42Z</time>
      </trkpt>
      <trkpt lat="46.36501" lon="-0.36076">
        <ele>56.6</ele>
        <time>2020-05-31T09:09:43Z</time>
      </trkpt>
      <trkpt lat="46.36498" lon="-0.36082">
        <ele>56.6</ele>
        <time>2020-05-31T09:09:44Z</time>
      </trkpt>
      <trkpt lat="46.36495" lon="-0.36089">
        <ele>56.6</ele>
        <time>2020-05-31T09:09:45Z</time>
      </trkpt>
      <trkpt lat="46.36492" lon="-0.36096">
        <ele>56.6</ele>
        <time>2020-05-31T09:09:46Z</time>
      </trkpt>
      <trkpt lat="46.3649" lon="-0.36103">
        <ele>56.6</ele>
        <time>2020-05-31T09:09:47Z</time>
      </trkpt>
      <trkpt lat="46.36487" lon="-0.3611">
        <ele>56.6</ele>
        <time>2020-05-31T09:09:48Z</time>
      </trkpt>
      <trkpt lat="46.36484" lon="-0.36116">
        <ele>56.7</ele>
        <time>2020-05-31T09:09:49Z</time>
      </trkpt>
      <trkpt lat="46.36481" lon="-0.36123">
        <ele>56.7</ele>
        <time>2020-05-31T09:09:50Z</time>
      </trkpt>
      <trkpt lat="46.36477" lon="-0.36129">
        <ele>56.7</ele>
        <time>2020-05-31T09:09:51Z</time>
      </trkpt>
      <trkpt lat="46.36474" lon="-0.36134">
        <ele>56.7</ele>
        <time>2020-05-31T09:09:52Z</time>
      </trkpt>
      <trkpt lat="46.36472" lon="-0.3614">
        <ele>56.7</ele>
        <time>2020-05-31T09:09:53Z</time>
      </trkpt>
      <trkpt lat="46.36469" lon="-0.36146">
        <ele>56.7</ele>
        <time>2020-05-31T09:09:54Z</time>
      </trkpt>
      <trkpt lat="46.36466" lon="-0.36153">
        <ele>56.7</ele>
        <time>2020-05-31T09:09:55Z</time>
      </trkpt>
      <trkpt lat="46.36464" lon="-0.3616">
        <ele>56.7</ele>
        <time>2020-05-31T09:09:56Z</time>
      </trkpt>
      <trkpt lat="46.36461" lon="-0.36167">
        <ele>56.8</ele>
        <time>2020-05-31T09:09:57Z</time>
      </trkpt>
      <trkpt lat="46.36459" lon="-0.36173">
        <ele>56.9</ele>
        <time>2020-05-31T09:09:58Z</time>
      </trkpt>
      <trkpt lat="46.36458" lon="-0.3618">
        <ele>57</ele>
        <time>2020-05-31T09:09:59Z</time>
      </trkpt>
      <trkpt lat="46.36455" lon="-0.36187">
        <ele>57.2</ele>
        <time>2020-05-31T09:10:00Z</time>
      </trkpt>
      <trkpt lat="46.36453" lon="-0.36194">
        <ele>57.3</ele>
        <time>2020-05-31T09:10:01Z</time>
      </trkpt>
      <trkpt lat="46.36451" lon="-0.362">
        <ele>57.4</ele>
        <time>2020-05-31T09:10:02Z</time>
      </trkpt>
      <trkpt lat="46.36448" lon="-0.36207">
        <ele>57.5</ele>
        <time>2020-05-31T09:10:03Z</time>
      </trkpt>
      <trkpt lat="46.36445" lon="-0.36213">
        <ele>57.5</ele>
        <time>2020-05-31T09:10:04Z</time>
      </trkpt>
      <trkpt lat="46.36443" lon="-0.3622">
        <ele>57.6</ele>
        <time>2020-05-31T09:10:05Z</time>
      </trkpt>
      <trkpt lat="46.3644" lon="-0.36226">
        <ele>57.6</ele>
        <time>2020-05-31T09:10:06Z</time>
      </trkpt>
      <trkpt lat="46.36439" lon="-0.36232">
        <ele>57.6</ele>
        <time>2020-05-31T09:10:07Z</time>
      </trkpt>
      <trkpt lat="46.36436" lon="-0.36237">
        <ele>57.6</ele>
        <time>2020-05-31T09:10:08Z</time>
      </trkpt>
      <trkpt lat="46.36434" lon="-0.36243">
        <ele>57.6</ele>
        <time>2020-05-31T09:10:09Z</time>
      </trkpt>
      <trkpt lat="46.36432" lon="-0.3625">
        <ele>57.6</ele>
        <time>2020-05-31T09:10:10Z</time>
      </trkpt>
      <trkpt lat="46.3643" lon="-0.36256">
        <ele>57.7</ele>
        <time>2020-05-31T09:10:11Z</time>
      </trkpt>
      <trkpt lat="46.36428" lon="-0.36263">
        <ele>57.8</ele>
        <time>2020-05-31T09:10:12Z</time>
      </trkpt>
      <trkpt lat="46.36426" lon="-0.3627">
        <ele>57.9</ele>
        <time>2020-05-31T09:10:13Z</time>
      </trkpt>
      <trkpt lat="46.36425" lon="-0.36276">
        <ele>57.9</ele>
        <time>2020-05-31T09:10:14Z</time>
      </trkpt>
      <trkpt lat="46.36423" lon="-0.36283">
        <ele>58</ele>
        <time>2020-05-31T09:10:15Z</time>
      </trkpt>
      <trkpt lat="46.36422" lon="-0.36291">
        <ele>58.1</ele>
        <time>2020-05-31T09:10:16Z</time>
      </trkpt>
      <trkpt lat="46.3642" lon="-0.36298">
        <ele>58.2</ele>
        <time>2020-05-31T09:10:17Z</time>
      </trkpt>
      <trkpt lat="46.36418" lon="-0.36305">
        <ele>58.3</ele>
        <time>2020-05-31T09:10:18Z</time>
      </trkpt>
      <trkpt lat="46.36416" lon="-0.36312">
        <ele>58.3</ele>
        <time>2020-05-31T09:10:19Z</time>
      </trkpt>
      <trkpt lat="46.36415" lon="-0.36318">
        <ele>58.4</ele>
        <time>2020-05-31T09:10:20Z</time>
      </trkpt>
      <trkpt lat="46.36414" lon="-0.36325">
        <ele>58.4</ele>
        <time>2020-05-31T09:10:21Z</time>
      </trkpt>
      <trkpt lat="46.36412" lon="-0.36333">
        <ele>58.5</ele>
        <time>2020-05-31T09:10:22Z</time>
      </trkpt>
      <trkpt lat="46.36411" lon="-0.3634">
        <ele>58.5</ele>
        <time>2020-05-31T09:10:23Z</time>
      </trkpt>
      <trkpt lat="46.36409" lon="-0.36347">
        <ele>58.6</ele>
        <time>2020-05-31T09:10:24Z</time>
      </trkpt>
      <trkpt lat="46.36407" lon="-0.36353">
        <ele>58.6</ele>
        <time>2020-05-31T09:10:25Z</time>
      </trkpt>
      <trkpt lat="46.36406" lon="-0.36359">
        <ele>58.7</ele>
        <time>2020-05-31T09:10:26Z</time>
      </trkpt>
      <trkpt lat="46.36404" lon="-0.36366">
        <ele>58.7</ele>
        <time>2020-05-31T09:10:27Z</time>
      </trkpt>
      <trkpt lat="46.36403" lon="-0.36372">
        <ele>58.8</ele>
        <time>2020-05-31T09:10:28Z</time>
      </trkpt>
      <trkpt lat="46.36402" lon="-0.36379">
        <ele>58.8</ele>
        <time>2020-05-31T09:10:29Z</time>
      </trkpt>
      <trkpt lat="46.36401" lon="-0.36388">
        <ele>58.8</ele>
        <time>2020-05-31T09:10:30Z</time>
      </trkpt>
      <trkpt lat="46.364" lon="-0.36394">
        <ele>58.8</ele>
        <time>2020-05-31T09:10:31Z</time>
      </trkpt>
      <trkpt lat="46.36399" lon="-0.36401">
        <ele>58.8</ele>
        <time>2020-05-31T09:10:32Z</time>
      </trkpt>
      <trkpt lat="46.36397" lon="-0.36409">
        <ele>58.8</ele>
        <time>2020-05-31T09:10:33Z</time>
      </trkpt>
      <trkpt lat="46.36396" lon="-0.36417">
        <ele>58.7</ele>
        <time>2020-05-31T09:10:34Z</time>
      </trkpt>
      <trkpt lat="46.36395" lon="-0.36425">
        <ele>58.7</ele>
        <time>2020-05-31T09:10:35Z</time>
      </trkpt>
      <trkpt lat="46.36394" lon="-0.36433">
        <ele>58.6</ele>
        <time>2020-05-31T09:10:36Z</time>
      </trkpt>
      <trkpt lat="46.36391" lon="-0.36441">
        <ele>58.5</ele>
        <time>2020-05-31T09:10:37Z</time>
      </trkpt>
      <trkpt lat="46.36388" lon="-0.36449">
        <ele>58.4</ele>
        <time>2020-05-31T09:10:38Z</time>
      </trkpt>
      <trkpt lat="46.36385" lon="-0.36458">
        <ele>58.3</ele>
        <time>2020-05-31T09:10:39Z</time>
      </trkpt>
      <trkpt lat="46.36382" lon="-0.36466">
        <ele>58.2</ele>
        <time>2020-05-31T09:10:40Z</time>
      </trkpt>
      <trkpt lat="46.36379" lon="-0.36477">
        <ele>58</ele>
        <time>2020-05-31T09:10:41Z</time>
      </trkpt>
      <trkpt lat="46.36375" lon="-0.36488">
        <ele>57.8</ele>
        <time>2020-05-31T09:10:42Z</time>
      </trkpt>
      <trkpt lat="46.36371" lon="-0.36497">
        <ele>57.6</ele>
        <time>2020-05-31T09:10:43Z</time>
      </trkpt>
      <trkpt lat="46.36366" lon="-0.36508">
        <ele>57.4</ele>
        <time>2020-05-31T09:10:44Z</time>
      </trkpt>
      <trkpt lat="46.3636" lon="-0.3652">
        <ele>57.1</ele>
        <time>2020-05-31T09:10:45Z</time>
      </trkpt>
      <trkpt lat="46.36354" lon="-0.36532">
        <ele>57</ele>
        <time>2020-05-31T09:10:46Z</time>
      </trkpt>
      <trkpt lat="46.36348" lon="-0.36543">
        <ele>57</ele>
        <time>2020-05-31T09:10:47Z</time>
      </trkpt>
      <trkpt lat="46.36341" lon="-0.36554">
        <ele>57.1</ele>
        <time>2020-05-31T09:10:48Z</time>
      </trkpt>
      <trkpt lat="46.36335" lon="-0.36564">
        <ele>57.2</ele>
        <time>2020-05-31T09:10:49Z</time>
      </trkpt>
      <trkpt lat="46.36329" lon="-0.36575">
        <ele>57.4</ele>
        <time>2020-05-31T09:10:50Z</time>
      </trkpt>
      <trkpt lat="46.36322" lon="-0.36584">
        <ele>57.6</ele>
        <time>2020-05-31T09:10:51Z</time>
      </trkpt>
      <trkpt lat="46.36316" lon="-0.36594">
        <ele>57.8</ele>
        <time>2020-05-31T09:10:52Z</time>
      </trkpt>
      <trkpt lat="46.3631" lon="-0.36605">
        <ele>57.9</ele>
        <time>2020-05-31T09:10:53Z</time>
      </trkpt>
      <trkpt lat="46.36305" lon="-0.36615">
        <ele>58</ele>
        <time>2020-05-31T09:10:54Z</time>
      </trkpt>
      <trkpt lat="46.36301" lon="-0.36626">
        <ele>58.2</ele>
        <time>2020-05-31T09:10:55Z</time>
      </trkpt>
      <trkpt lat="46.36298" lon="-0.36637">
        <ele>58.4</ele>
        <time>2020-05-31T09:10:56Z</time>
      </trkpt>
      <trkpt lat="46.36294" lon="-0.36648">
        <ele>58.7</ele>
        <time>2020-05-31T09:10:57Z</time>
      </trkpt>
      <trkpt lat="46.3629" lon="-0.36658">
        <ele>58.9</ele>
        <time>2020-05-31T09:10:58Z</time>
      </trkpt>
      <trkpt lat="46.36287" lon="-0.36669">
        <ele>59.1</ele>
        <time>2020-05-31T09:10:59Z</time>
      </trkpt>
      <trkpt lat="46.36283" lon="-0.36679">
        <ele>59.3</ele>
        <time>2020-05-31T09:11:00Z</time>
      </trkpt>
      <trkpt lat="46.3628" lon="-0.3669">
        <ele>59.5</ele>
        <time>2020-05-31T09:11:01Z</time>
      </trkpt>
      <trkpt lat="46.36276" lon="-0.36699">
        <ele>59.7</ele>
        <time>2020-05-31T09:11:02Z</time>
      </trkpt>
      <trkpt lat="46.36272" lon="-0.36709">
        <ele>60</ele>
        <time>2020-05-31T09:11:03Z</time>
      </trkpt>
      <trkpt lat="46.36269" lon="-0.36718">
        <ele>60.3</ele>
        <time>2020-05-31T09:11:04Z</time>
      </trkpt>
      <trkpt lat="46.36266" lon="-0.36728">
        <ele>60.6</ele>
        <time>2020-05-31T09:11:05Z</time>
      </trkpt>
      <trkpt lat="46.36262" lon="-0.36738">
        <ele>60.9</ele>
        <time>2020-05-31T09:11:06Z</time>
      </trkpt>
      <trkpt lat="46.36259" lon="-0.36749">
        <ele>61.1</ele>
        <time>2020-05-31T09:11:07Z</time>
      </trkpt>
      <trkpt lat="46.36256" lon="-0.36759">
        <ele>61.4</ele>
        <time>2020-05-31T09:11:08Z</time>
      </trkpt>
      <trkpt lat="46.36254" lon="-0.36769">
        <ele>61.6</ele>
        <time>2020-05-31T09:11:09Z</time>
      </trkpt>
      <trkpt lat="46.36252" lon="-0.3678">
        <ele>61.9</ele>
        <time>2020-05-31T09:11:10Z</time>
      </trkpt>
      <trkpt lat="46.3625" lon="-0.3679">
        <ele>62</ele>
        <time>2020-05-31T09:11:11Z</time>
      </trkpt>
      <trkpt lat="46.36249" lon="-0.368">
        <ele>62.1</ele>
        <time>2020-05-31T09:11:12Z</time>
      </trkpt>
      <trkpt lat="46.36247" lon="-0.3681">
        <ele>62.3</ele>
        <time>2020-05-31T09:11:13Z</time>
      </trkpt>
      <trkpt lat="46.36246" lon="-0.3682">
        <ele>62.5</ele>
        <time>2020-05-31T09:11:14Z</time>
      </trkpt>
      <trkpt lat="46.36246" lon="-0.36829">
        <ele>62.7</ele>
        <time>2020-05-31T09:11:15Z</time>
      </trkpt>
      <trkpt lat="46.36246" lon="-0.36839">
        <ele>62.9</ele>
        <time>2020-05-31T09:11:16Z</time>
      </trkpt>
      <trkpt lat="46.36246" lon="-0.36848">
        <ele>63.2</ele>
        <time>2020-05-31T09:11:17Z</time>
      </trkpt>
      <trkpt lat="46.36245" lon="-0.36858">
        <ele>63.4</ele>
        <time>2020-05-31T09:11:18Z</time>
      </trkpt>
      <trkpt lat="46.36246" lon="-0.36867">
        <ele>63.6</ele>
        <time>2020-05-31T09:11:19Z</time>
      </trkpt>
      <trkpt lat="46.36245" lon="-0.36876">
        <ele>63.8</ele>
        <time>2020-05-31T09:11:20Z</time>
      </trkpt>
      <trkpt lat="46.36246" lon="-0.36885">
        <ele>64</ele>
        <time>2020-05-31T09:11:21Z</time>
      </trkpt>
      <trkpt lat="46.36246" lon="-0.36893">
        <ele>64.2</ele>
        <time>2020-05-31T09:11:22Z</time>
      </trkpt>
      <trkpt lat="46.36245" lon="-0.36901">
        <ele>64.3</ele>
        <time>2020-05-31T09:11:23Z</time>
      </trkpt>
      <trkpt lat="46.36246" lon="-0.3691">
        <ele>64.6</ele>
        <time>2020-05-31T09:11:24Z</time>
      </trkpt>
      <trkpt lat="46.36245" lon="-0.36918">
        <ele>64.7</ele>
        <time>2020-05-31T09:11:25Z</time>
      </trkpt>
      <trkpt lat="46.36244" lon="-0.36925">
        <ele>64.9</ele>
        <time>2020-05-31T09:11:26Z</time>
      </trkpt>
      <trkpt lat="46.36243" lon="-0.36933">
        <ele>65</ele>
        <time>2020-05-31T09:11:27Z</time>
      </trkpt>
      <trkpt lat="46.36243" lon="-0.36941">
        <ele>65.2</ele>
        <time>2020-05-31T09:11:28Z</time>
      </trkpt>
      <trkpt lat="46.36241" lon="-0.36948">
        <ele>65.4</ele>
        <time>2020-05-31T09:11:29Z</time>
      </trkpt>
      <trkpt lat="46.3624" lon="-0.36955">
        <ele>65.6</ele>
        <time>2020-05-31T09:11:30Z</time>
      </trkpt>
      <trkpt lat="46.36239" lon="-0.36962">
        <ele>65.7</ele>
        <time>2020-05-31T09:11:31Z</time>
      </trkpt>
      <trkpt lat="46.36237" lon="-0.36969">
        <ele>65.9</ele>
        <time>2020-05-31T09:11:32Z</time>
      </trkpt>
      <trkpt lat="46.36236" lon="-0.36977">
        <ele>66.1</ele>
        <time>2020-05-31T09:11:33Z</time>
      </trkpt>
      <trkpt lat="46.36236" lon="-0.36984">
        <ele>66.3</ele>
        <time>2020-05-31T09:11:34Z</time>
      </trkpt>
      <trkpt lat="46.36236" lon="-0.36989">
        <ele>66.4</ele>
        <time>2020-05-31T09:11:35Z</time>
      </trkpt>
      <trkpt lat="46.36234" lon="-0.36997">
        <ele>66.6</ele>
        <time>2020-05-31T09:11:36Z</time>
      </trkpt>
      <trkpt lat="46.36232" lon="-0.37004">
        <ele>66.8</ele>
        <time>2020-05-31T09:11:37Z</time>
      </trkpt>
      <trkpt lat="46.36231" lon="-0.37008">
        <ele>67</ele>
        <time>2020-05-31T09:11:38Z</time>
      </trkpt>
      <trkpt lat="46.36228" lon="-0.37017">
        <ele>67.2</ele>
        <time>2020-05-31T09:11:39Z</time>
      </trkpt>
      <trkpt lat="46.36225" lon="-0.37024">
        <ele>67.4</ele>
        <time>2020-05-31T09:11:40Z</time>
      </trkpt>
      <trkpt lat="46.36223" lon="-0.3703">
        <ele>67.5</ele>
        <time>2020-05-31T09:11:41Z</time>
      </trkpt>
      <trkpt lat="46.36221" lon="-0.37036">
        <ele>67.7</ele>
        <time>2020-05-31T09:11:42Z</time>
      </trkpt>
      <trkpt lat="46.36219" lon="-0.37042">
        <ele>67.8</ele>
        <time>2020-05-31T09:11:43Z</time>
      </trkpt>
      <trkpt lat="46.36218" lon="-0.37049">
        <ele>68</ele>
        <time>2020-05-31T09:11:44Z</time>
      </trkpt>
      <trkpt lat="46.36216" lon="-0.37056">
        <ele>68.2</ele>
        <time>2020-05-31T09:11:45Z</time>
      </trkpt>
      <trkpt lat="46.36214" lon="-0.37063">
        <ele>68.4</ele>
        <time>2020-05-31T09:11:46Z</time>
      </trkpt>
      <trkpt lat="46.36213" lon="-0.3707">
        <ele>68.5</ele>
        <time>2020-05-31T09:11:47Z</time>
      </trkpt>
      <trkpt lat="46.36212" lon="-0.37076">
        <ele>68.7</ele>
        <time>2020-05-31T09:11:48Z</time>
      </trkpt>
      <trkpt lat="46.36211" lon="-0.37084">
        <ele>68.8</ele>
        <time>2020-05-31T09:11:49Z</time>
      </trkpt>
      <trkpt lat="46.3621" lon="-0.3709">
        <ele>69</ele>
        <time>2020-05-31T09:11:50Z</time>
      </trkpt>
      <trkpt lat="46.36208" lon="-0.37095">
        <ele>69.1</ele>
        <time>2020-05-31T09:11:51Z</time>
      </trkpt>
      <trkpt lat="46.36207" lon="-0.37101">
        <ele>69.2</ele>
        <time>2020-05-31T09:11:52Z</time>
      </trkpt>
      <trkpt lat="46.36206" lon="-0.37107">
        <ele>69.3</ele>
        <time>2020-05-31T09:11:53Z</time>
      </trkpt>
      <trkpt lat="46.36205" lon="-0.37113">
        <ele>69.5</ele>
        <time>2020-05-31T09:11:54Z</time>
      </trkpt>
      <trkpt lat="46.36204" lon="-0.37117">
        <ele>69.6</ele>
        <time>2020-05-31T09:11:55Z</time>
      </trkpt>
      <trkpt lat="46.36204" lon="-0.37123">
        <ele>69.8</ele>
        <time>2020-05-31T09:11:56Z</time>
      </trkpt>
      <trkpt lat="46.36204" lon="-0.3713">
        <ele>69.9</ele>
        <time>2020-05-31T09:11:57Z</time>
      </trkpt>
      <trkpt lat="46.36204" lon="-0.37136">
        <ele>70.1</ele>
        <time>2020-05-31T09:11:58Z</time>
      </trkpt>
      <trkpt lat="46.36204" lon="-0.3714">
        <ele>70.2</ele>
        <time>2020-05-31T09:11:59Z</time>
      </trkpt>
      <trkpt lat="46.36205" lon="-0.37145">
        <ele>70.3</ele>
        <time>2020-05-31T09:12:00Z</time>
      </trkpt>
      <trkpt lat="46.36206" lon="-0.37153">
        <ele>70.5</ele>
        <time>2020-05-31T09:12:01Z</time>
      </trkpt>
      <trkpt lat="46.36208" lon="-0.37161">
        <ele>70.4</ele>
        <time>2020-05-31T09:12:02Z</time>
      </trkpt>
      <trkpt lat="46.3621" lon="-0.37169">
        <ele>70.3</ele>
        <time>2020-05-31T09:12:03Z</time>
      </trkpt>
      <trkpt lat="46.3621" lon="-0.37176">
        <ele>70.3</ele>
        <time>2020-05-31T09:12:04Z</time>
      </trkpt>
      <trkpt lat="46.36209" lon="-0.37183">
        <ele>70.2</ele>
        <time>2020-05-31T09:12:05Z</time>
      </trkpt>
      <trkpt lat="46.36207" lon="-0.37188">
        <ele>70.2</ele>
        <time>2020-05-31T09:12:06Z</time>
      </trkpt>
      <trkpt lat="46.36204" lon="-0.37194">
        <ele>70.5</ele>
        <time>2020-05-31T09:12:07Z</time>
      </trkpt>
      <trkpt lat="46.362" lon="-0.37199">
        <ele>70.6</ele>
        <time>2020-05-31T09:12:08Z</time>
      </trkpt>
      <trkpt lat="46.36196" lon="-0.37205">
        <ele>70.7</ele>
        <time>2020-05-31T09:12:09Z</time>
      </trkpt>
      <trkpt lat="46.36191" lon="-0.37209">
        <ele>70.8</ele>
        <time>2020-05-31T09:12:10Z</time>
      </trkpt>
      <trkpt lat="46.36187" lon="-0.37213">
        <ele>70.9</ele>
        <time>2020-05-31T09:12:11Z</time>
      </trkpt>
      <trkpt lat="46.36182" lon="-0.37215">
        <ele>71</ele>
        <time>2020-05-31T09:12:12Z</time>
      </trkpt>
      <trkpt lat="46.36178" lon="-0.37217">
        <ele>71.1</ele>
        <time>2020-05-31T09:12:13Z</time>
      </trkpt>
      <trkpt lat="46.36175" lon="-0.37219">
        <ele>71.2</ele>
        <time>2020-05-31T09:12:14Z</time>
      </trkpt>
      <trkpt lat="46.36174" lon="-0.37219">
        <ele>71.2</ele>
        <time>2020-05-31T09:12:15Z</time>
      </trkpt>
      <trkpt lat="46.36174" lon="-0.37219">
        <ele>71.2</ele>
        <time>2020-05-31T09:12:16Z</time>
      </trkpt>
      <trkpt lat="46.36176" lon="-0.37219">
        <ele>71.3</ele>
        <time>2020-05-31T09:12:17Z</time>
      </trkpt>
      <trkpt lat="46.36176" lon="-0.37218">
        <ele>71.3</ele>
        <time>2020-05-31T09:12:18Z</time>
      </trkpt>
      <trkpt lat="46.36175" lon="-0.37218">
        <ele>71.3</ele>
        <time>2020-05-31T09:12:19Z</time>
      </trkpt>
      <trkpt lat="46.36175" lon="-0.37218">
        <ele>71.3</ele>
        <time>2020-05-31T09:12:20Z</time>
      </trkpt>
      <trkpt lat="46.36175" lon="-0.37218">
        <ele>71.3</ele>
        <time>2020-05-31T09:12:21Z</time>
      </trkpt>
      <trkpt lat="46.36175" lon="-0.37218">
        <ele>71.3</ele>
        <time>2020-05-31T09:12:22Z</time>
      </trkpt>
      <trkpt lat="46.36175" lon="-0.37218">
        <ele>71.3</ele>
        <time>2020-05-31T09:12:23Z</time>
      </trkpt>
      <trkpt lat="46.36175" lon="-0.37218">
        <ele>71.3</ele>
        <time>2020-05-31T09:12:24Z</time>
      </trkpt>
      <trkpt lat="46.36175" lon="-0.37217">
        <ele>71.3</ele>
        <time>2020-05-31T09:12:25Z</time>
      </trkpt>
      <trkpt lat="46.36175" lon="-0.37217">
        <ele>71.3</ele>
        <time>2020-05-31T09:12:26Z</time>
      </trkpt>
      <trkpt lat="46.36175" lon="-0.37217">
        <ele>71.3</ele>
        <time>2020-05-31T09:12:27Z</time>
      </trkpt>
      <trkpt lat="46.36175" lon="-0.37217">
        <ele>71.3</ele>
        <time>2020-05-31T09:12:28Z</time>
      </trkpt>
      <trkpt lat="46.36176" lon="-0.37217">
        <ele>71.3</ele>
        <time>2020-05-31T09:12:29Z</time>
      </trkpt>
      <trkpt lat="46.36176" lon="-0.37217">
        <ele>71.3</ele>
        <time>2020-05-31T09:12:30Z</time>
      </trkpt>
      <trkpt lat="46.36176" lon="-0.37217">
        <ele>71.4</ele>
        <time>2020-05-31T09:12:31Z</time>
      </trkpt>
      <trkpt lat="46.36176" lon="-0.37217">
        <ele>71.4</ele>
        <time>2020-05-31T09:12:32Z</time>
      </trkpt>
      <trkpt lat="46.36177" lon="-0.37217">
        <ele>71.4</ele>
        <time>2020-05-31T09:12:33Z</time>
      </trkpt>
      <trkpt lat="46.36177" lon="-0.37217">
        <ele>71.4</ele>
        <time>2020-05-31T09:12:34Z</time>
      </trkpt>
      <trkpt lat="46.36176" lon="-0.37217">
        <ele>71.4</ele>
        <time>2020-05-31T09:12:35Z</time>
      </trkpt>
      <trkpt lat="46.36176" lon="-0.37217">
        <ele>71.4</ele>
        <time>2020-05-31T09:12:36Z</time>
      </trkpt>
      <trkpt lat="46.36176" lon="-0.37217">
        <ele>71.4</ele>
        <time>2020-05-31T09:12:37Z</time>
      </trkpt>
      <trkpt lat="46.36175" lon="-0.37217">
        <ele>71.4</ele>
        <time>2020-05-31T09:12:38Z</time>
      </trkpt>
      <trkpt lat="46.36175" lon="-0.37218">
        <ele>71.4</ele>
        <time>2020-05-31T09:12:39Z</time>
      </trkpt>
      <trkpt lat="46.36175" lon="-0.37217">
        <ele>71.4</ele>
        <time>2020-05-31T09:12:40Z</time>
      </trkpt>
      <trkpt lat="46.36175" lon="-0.37218">
        <ele>71.4</ele>
        <time>2020-05-31T09:12:41Z</time>
      </trkpt>
      <trkpt lat="46.36174" lon="-0.37218">
        <ele>71.5</ele>
        <time>2020-05-31T09:12:42Z</time>
      </trkpt>
      <trkpt lat="46.36174" lon="-0.37219">
        <ele>71.5</ele>
        <time>2020-05-31T09:12:43Z</time>
      </trkpt>
      <trkpt lat="46.36174" lon="-0.37219">
        <ele>71.5</ele>
        <time>2020-05-31T09:12:44Z</time>
      </trkpt>
      <trkpt lat="46.36174" lon="-0.37219">
        <ele>71.5</ele>
        <time>2020-05-31T09:12:45Z</time>
      </trkpt>
      <trkpt lat="46.36174" lon="-0.37219">
        <ele>71.5</ele>
        <time>2020-05-31T09:12:46Z</time>
      </trkpt>
      <trkpt lat="46.36173" lon="-0.3722">
        <ele>71.5</ele>
        <time>2020-05-31T09:12:47Z</time>
      </trkpt>
      <trkpt lat="46.36173" lon="-0.3722">
        <ele>71.5</ele>
        <time>2020-05-31T09:12:48Z</time>
      </trkpt>
      <trkpt lat="46.36172" lon="-0.37221">
        <ele>71.5</ele>
        <time>2020-05-31T09:12:49Z</time>
      </trkpt>
      <trkpt lat="46.36172" lon="-0.37221">
        <ele>71.5</ele>
        <time>2020-05-31T09:12:50Z</time>
      </trkpt>
      <trkpt lat="46.36172" lon="-0.37221">
        <ele>71.5</ele>
        <time>2020-05-31T09:12:51Z</time>
      </trkpt>
      <trkpt lat="46.36172" lon="-0.37221">
        <ele>71.6</ele>
        <time>2020-05-31T09:12:52Z</time>
      </trkpt>
      <trkpt lat="46.36172" lon="-0.37221">
        <ele>71.6</ele>
        <time>2020-05-31T09:12:53Z</time>
      </trkpt>
      <trkpt lat="46.36172" lon="-0.37222">
        <ele>71.6</ele>
        <time>2020-05-31T09:12:54Z</time>
      </trkpt>
      <trkpt lat="46.36172" lon="-0.37221">
        <ele>71.6</ele>
        <time>2020-05-31T09:12:55Z</time>
      </trkpt>
      <trkpt lat="46.36172" lon="-0.37222">
        <ele>71.6</ele>
        <time>2020-05-31T09:12:56Z</time>
      </trkpt>
      <trkpt lat="46.36172" lon="-0.37222">
        <ele>71.6</ele>
        <time>2020-05-31T09:12:57Z</time>
      </trkpt>
      <trkpt lat="46.36171" lon="-0.37222">
        <ele>71.6</ele>
        <time>2020-05-31T09:12:58Z</time>
      </trkpt>
      <trkpt lat="46.36172" lon="-0.37221">
        <ele>71.6</ele>
        <time>2020-05-31T09:12:59Z</time>
      </trkpt>
      <trkpt lat="46.36172" lon="-0.37221">
        <ele>71.6</ele>
        <time>2020-05-31T09:13:00Z</time>
      </trkpt>
      <trkpt lat="46.36172" lon="-0.3722">
        <ele>71.6</ele>
        <time>2020-05-31T09:13:01Z</time>
      </trkpt>
      <trkpt lat="46.36173" lon="-0.3722">
        <ele>71.6</ele>
        <time>2020-05-31T09:13:02Z</time>
      </trkpt>
      <trkpt lat="46.36173" lon="-0.3722">
        <ele>71.6</ele>
        <time>2020-05-31T09:13:03Z</time>
      </trkpt>
      <trkpt lat="46.36173" lon="-0.3722">
        <ele>71.6</ele>
        <time>2020-05-31T09:13:04Z</time>
      </trkpt>
      <trkpt lat="46.36173" lon="-0.3722">
        <ele>71.6</ele>
        <time>2020-05-31T09:13:05Z</time>
      </trkpt>
      <trkpt lat="46.36173" lon="-0.3722">
        <ele>71.6</ele>
        <time>2020-05-31T09:13:06Z</time>
      </trkpt>
      <trkpt lat="46.36173" lon="-0.37219">
        <ele>71.7</ele>
        <time>2020-05-31T09:13:07Z</time>
      </trkpt>
      <trkpt lat="46.36173" lon="-0.37219">
        <ele>71.7</ele>
        <time>2020-05-31T09:13:08Z</time>
      </trkpt>
      <trkpt lat="46.36174" lon="-0.37218">
        <ele>71.7</ele>
        <time>2020-05-31T09:13:09Z</time>
      </trkpt>
      <trkpt lat="46.36174" lon="-0.37218">
        <ele>71.7</ele>
        <time>2020-05-31T09:13:10Z</time>
      </trkpt>
      <trkpt lat="46.36174" lon="-0.37218">
        <ele>71.7</ele>
        <time>2020-05-31T09:13:11Z</time>
      </trkpt>
      <trkpt lat="46.36174" lon="-0.37218">
        <ele>71.7</ele>
        <time>2020-05-31T09:13:12Z</time>
      </trkpt>
      <trkpt lat="46.36174" lon="-0.37218">
        <ele>71.7</ele>
        <time>2020-05-31T09:13:13Z</time>
      </trkpt>
      <trkpt lat="46.36173" lon="-0.37218">
        <ele>71.7</ele>
        <time>2020-05-31T09:13:14Z</time>
      </trkpt>
      <trkpt lat="46.36173" lon="-0.37219">
        <ele>71.7</ele>
        <time>2020-05-31T09:13:15Z</time>
      </trkpt>
      <trkpt lat="46.36173" lon="-0.3722">
        <ele>71.7</ele>
        <time>2020-05-31T09:13:16Z</time>
      </trkpt>
      <trkpt lat="46.36172" lon="-0.3722">
        <ele>71.7</ele>
        <time>2020-05-31T09:13:17Z</time>
      </trkpt>
      <trkpt lat="46.36172" lon="-0.37221">
        <ele>71.7</ele>
        <time>2020-05-31T09:13:18Z</time>
      </trkpt>
      <trkpt lat="46.36172" lon="-0.37221">
        <ele>71.7</ele>
        <time>2020-05-31T09:13:19Z</time>
      </trkpt>
      <trkpt lat="46.36172" lon="-0.37222">
        <ele>71.8</ele>
        <time>2020-05-31T09:13:20Z</time>
      </trkpt>
      <trkpt lat="46.36171" lon="-0.37222">
        <ele>71.8</ele>
        <time>2020-05-31T09:13:21Z</time>
      </trkpt>
      <trkpt lat="46.36169" lon="-0.37225">
        <ele>71.9</ele>
        <time>2020-05-31T09:13:22Z</time>
      </trkpt>
      <trkpt lat="46.36168" lon="-0.37225">
        <ele>72</ele>
        <time>2020-05-31T09:13:23Z</time>
      </trkpt>
      <trkpt lat="46.36166" lon="-0.37228">
        <ele>72.1</ele>
        <time>2020-05-31T09:13:24Z</time>
      </trkpt>
      <trkpt lat="46.36165" lon="-0.37235">
        <ele>72.3</ele>
        <time>2020-05-31T09:13:25Z</time>
      </trkpt>
      <trkpt lat="46.36164" lon="-0.37238">
        <ele>72.4</ele>
        <time>2020-05-31T09:13:26Z</time>
      </trkpt>
      <trkpt lat="46.36162" lon="-0.37243">
        <ele>72.5</ele>
        <time>2020-05-31T09:13:27Z</time>
      </trkpt>
      <trkpt lat="46.36159" lon="-0.37248">
        <ele>72.7</ele>
        <time>2020-05-31T09:13:28Z</time>
      </trkpt>
      <trkpt lat="46.36158" lon="-0.37252">
        <ele>72.8</ele>
        <time>2020-05-31T09:13:29Z</time>
      </trkpt>
      <trkpt lat="46.36154" lon="-0.37258">
        <ele>73</ele>
        <time>2020-05-31T09:13:30Z</time>
      </trkpt>
      <trkpt lat="46.36151" lon="-0.37262">
        <ele>73.2</ele>
        <time>2020-05-31T09:13:31Z</time>
      </trkpt>
      <trkpt lat="46.36147" lon="-0.37269">
        <ele>73.4</ele>
        <time>2020-05-31T09:13:32Z</time>
      </trkpt>
      <trkpt lat="46.36144" lon="-0.37274">
        <ele>73.6</ele>
        <time>2020-05-31T09:13:33Z</time>
      </trkpt>
      <trkpt lat="46.36141" lon="-0.37279">
        <ele>73.8</ele>
        <time>2020-05-31T09:13:34Z</time>
      </trkpt>
      <trkpt lat="46.36138" lon="-0.37285">
        <ele>74</ele>
        <time>2020-05-31T09:13:35Z</time>
      </trkpt>
      <trkpt lat="46.36136" lon="-0.37289">
        <ele>74.1</ele>
        <time>2020-05-31T09:13:36Z</time>
      </trkpt>
      <trkpt lat="46.36133" lon="-0.37295">
        <ele>74.3</ele>
        <time>2020-05-31T09:13:37Z</time>
      </trkpt>
      <trkpt lat="46.36131" lon="-0.373">
        <ele>74.4</ele>
        <time>2020-05-31T09:13:38Z</time>
      </trkpt>
      <trkpt lat="46.36129" lon="-0.37306">
        <ele>74.7</ele>
        <time>2020-05-31T09:13:39Z</time>
      </trkpt>
      <trkpt lat="46.36126" lon="-0.37311">
        <ele>74.8</ele>
        <time>2020-05-31T09:13:40Z</time>
      </trkpt>
      <trkpt lat="46.36123" lon="-0.37316">
        <ele>75</ele>
        <time>2020-05-31T09:13:41Z</time>
      </trkpt>
      <trkpt lat="46.36121" lon="-0.3732">
        <ele>75.1</ele>
        <time>2020-05-31T09:13:42Z</time>
      </trkpt>
      <trkpt lat="46.36118" lon="-0.37323">
        <ele>75.2</ele>
        <time>2020-05-31T09:13:43Z</time>
      </trkpt>
      <trkpt lat="46.36115" lon="-0.37328">
        <ele>75.4</ele>
        <time>2020-05-31T09:13:44Z</time>
      </trkpt>
      <trkpt lat="46.36113" lon="-0.37332">
        <ele>75.5</ele>
        <time>2020-05-31T09:13:45Z</time>
      </trkpt>
      <trkpt lat="46.3611" lon="-0.37337">
        <ele>75.8</ele>
        <time>2020-05-31T09:13:46Z</time>
      </trkpt>
      <trkpt lat="46.36107" lon="-0.37341">
        <ele>76</ele>
        <time>2020-05-31T09:13:47Z</time>
      </trkpt>
      <trkpt lat="46.36105" lon="-0.37345">
        <ele>76.2</ele>
        <time>2020-05-31T09:13:48Z</time>
      </trkpt>
      <trkpt lat="46.36103" lon="-0.37348">
        <ele>76.4</ele>
        <time>2020-05-31T09:13:49Z</time>
      </trkpt>
      <trkpt lat="46.36101" lon="-0.37354">
        <ele>76.6</ele>
        <time>2020-05-31T09:13:50Z</time>
      </trkpt>
      <trkpt lat="46.36099" lon="-0.37357">
        <ele>76.8</ele>
        <time>2020-05-31T09:13:51Z</time>
      </trkpt>
      <trkpt lat="46.36096" lon="-0.37362">
        <ele>77</ele>
        <time>2020-05-31T09:13:52Z</time>
      </trkpt>
      <trkpt lat="46.36096" lon="-0.37365">
        <ele>77.1</ele>
        <time>2020-05-31T09:13:53Z</time>
      </trkpt>
      <trkpt lat="46.36094" lon="-0.37369">
        <ele>77.3</ele>
        <time>2020-05-31T09:13:54Z</time>
      </trkpt>
      <trkpt lat="46.36092" lon="-0.37373">
        <ele>77.4</ele>
        <time>2020-05-31T09:13:55Z</time>
      </trkpt>
      <trkpt lat="46.36088" lon="-0.37377">
        <ele>77.6</ele>
        <time>2020-05-31T09:13:56Z</time>
      </trkpt>
      <trkpt lat="46.36085" lon="-0.37382">
        <ele>77.6</ele>
        <time>2020-05-31T09:13:57Z</time>
      </trkpt>
      <trkpt lat="46.36083" lon="-0.37386">
        <ele>77.6</ele>
        <time>2020-05-31T09:13:58Z</time>
      </trkpt>
      <trkpt lat="46.3608" lon="-0.37391">
        <ele>77.6</ele>
        <time>2020-05-31T09:13:59Z</time>
      </trkpt>
      <trkpt lat="46.36077" lon="-0.37395">
        <ele>77.7</ele>
        <time>2020-05-31T09:14:00Z</time>
      </trkpt>
      <trkpt lat="46.36075" lon="-0.37401">
        <ele>77.8</ele>
        <time>2020-05-31T09:14:01Z</time>
      </trkpt>
      <trkpt lat="46.36072" lon="-0.37404">
        <ele>77.9</ele>
        <time>2020-05-31T09:14:02Z</time>
      </trkpt>
      <trkpt lat="46.3607" lon="-0.37408">
        <ele>78</ele>
        <time>2020-05-31T09:14:03Z</time>
      </trkpt>
      <trkpt lat="46.36069" lon="-0.3741">
        <ele>78.1</ele>
        <time>2020-05-31T09:14:04Z</time>
      </trkpt>
      <trkpt lat="46.36067" lon="-0.37413">
        <ele>78.2</ele>
        <time>2020-05-31T09:14:05Z</time>
      </trkpt>
      <trkpt lat="46.36065" lon="-0.37417">
        <ele>78.3</ele>
        <time>2020-05-31T09:14:06Z</time>
      </trkpt>
      <trkpt lat="46.36062" lon="-0.37421">
        <ele>78.4</ele>
        <time>2020-05-31T09:14:07Z</time>
      </trkpt>
      <trkpt lat="46.36059" lon="-0.37425">
        <ele>78.6</ele>
        <time>2020-05-31T09:14:08Z</time>
      </trkpt>
      <trkpt lat="46.36056" lon="-0.37429">
        <ele>78.7</ele>
        <time>2020-05-31T09:14:09Z</time>
      </trkpt>
      <trkpt lat="46.36054" lon="-0.37432">
        <ele>78.9</ele>
        <time>2020-05-31T09:14:10Z</time>
      </trkpt>
      <trkpt lat="46.36051" lon="-0.37436">
        <ele>79</ele>
        <time>2020-05-31T09:14:11Z</time>
      </trkpt>
      <trkpt lat="46.36049" lon="-0.37439">
        <ele>79.2</ele>
        <time>2020-05-31T09:14:12Z</time>
      </trkpt>
      <trkpt lat="46.36048" lon="-0.37442">
        <ele>79.3</ele>
        <time>2020-05-31T09:14:13Z</time>
      </trkpt>
      <trkpt lat="46.36046" lon="-0.37446">
        <ele>79.4</ele>
        <time>2020-05-31T09:14:14Z</time>
      </trkpt>
      <trkpt lat="46.36043" lon="-0.37449">
        <ele>79.6</ele>
        <time>2020-05-31T09:14:15Z</time>
      </trkpt>
      <trkpt lat="46.36041" lon="-0.37452">
        <ele>79.7</ele>
        <time>2020-05-31T09:14:16Z</time>
      </trkpt>
      <trkpt lat="46.36037" lon="-0.37456">
        <ele>79.8</ele>
        <time>2020-05-31T09:14:17Z</time>
      </trkpt>
      <trkpt lat="46.36034" lon="-0.37459">
        <ele>79.9</ele>
        <time>2020-05-31T09:14:18Z</time>
      </trkpt>
      <trkpt lat="46.3603" lon="-0.37462">
        <ele>80</ele>
        <time>2020-05-31T09:14:19Z</time>
      </trkpt>
      <trkpt lat="46.36027" lon="-0.37465">
        <ele>80</ele>
        <time>2020-05-31T09:14:20Z</time>
      </trkpt>
      <trkpt lat="46.36022" lon="-0.37468">
        <ele>80.1</ele>
        <time>2020-05-31T09:14:21Z</time>
      </trkpt>
      <trkpt lat="46.36019" lon="-0.37473">
        <ele>80.2</ele>
        <time>2020-05-31T09:14:22Z</time>
      </trkpt>
      <trkpt lat="46.36016" lon="-0.37476">
        <ele>80.4</ele>
        <time>2020-05-31T09:14:23Z</time>
      </trkpt>
      <trkpt lat="46.36011" lon="-0.37479">
        <ele>80.5</ele>
        <time>2020-05-31T09:14:24Z</time>
      </trkpt>
      <trkpt lat="46.36008" lon="-0.37484">
        <ele>80.5</ele>
        <time>2020-05-31T09:14:25Z</time>
      </trkpt>
      <trkpt lat="46.36004" lon="-0.37488">
        <ele>80.6</ele>
        <time>2020-05-31T09:14:26Z</time>
      </trkpt>
      <trkpt lat="46.36001" lon="-0.37491">
        <ele>80.7</ele>
        <time>2020-05-31T09:14:27Z</time>
      </trkpt>
      <trkpt lat="46.35997" lon="-0.37495">
        <ele>80.8</ele>
        <time>2020-05-31T09:14:28Z</time>
      </trkpt>
      <trkpt lat="46.35994" lon="-0.375">
        <ele>80.9</ele>
        <time>2020-05-31T09:14:29Z</time>
      </trkpt>
      <trkpt lat="46.35991" lon="-0.37503">
        <ele>81</ele>
        <time>2020-05-31T09:14:30Z</time>
      </trkpt>
      <trkpt lat="46.35988" lon="-0.37507">
        <ele>81.1</ele>
        <time>2020-05-31T09:14:31Z</time>
      </trkpt>
      <trkpt lat="46.35985" lon="-0.37511">
        <ele>81.2</ele>
        <time>2020-05-31T09:14:32Z</time>
      </trkpt>
      <trkpt lat="46.35983" lon="-0.37513">
        <ele>81.2</ele>
        <time>2020-05-31T09:14:33Z</time>
      </trkpt>
      <trkpt lat="46.35981" lon="-0.37515">
        <ele>81.3</ele>
        <time>2020-05-31T09:14:34Z</time>
      </trkpt>
      <trkpt lat="46.35978" lon="-0.37519">
        <ele>81.4</ele>
        <time>2020-05-31T09:14:35Z</time>
      </trkpt>
      <trkpt lat="46.35974" lon="-0.37523">
        <ele>81.5</ele>
        <time>2020-05-31T09:14:36Z</time>
      </trkpt>
      <trkpt lat="46.3597" lon="-0.37527">
        <ele>81.5</ele>
        <time>2020-05-31T09:14:37Z</time>
      </trkpt>
      <trkpt lat="46.35966" lon="-0.37532">
        <ele>81.5</ele>
        <time>2020-05-31T09:14:38Z</time>
      </trkpt>
      <trkpt lat="46.35962" lon="-0.37538">
        <ele>81.5</ele>
        <time>2020-05-31T09:14:39Z</time>
      </trkpt>
      <trkpt lat="46.35958" lon="-0.37543">
        <ele>81.5</ele>
        <time>2020-05-31T09:14:40Z</time>
      </trkpt>
      <trkpt lat="46.35954" lon="-0.3755">
        <ele>81.4</ele>
        <time>2020-05-31T09:14:41Z</time>
      </trkpt>
      <trkpt lat="46.3595" lon="-0.37555">
        <ele>81.4</ele>
        <time>2020-05-31T09:14:42Z</time>
      </trkpt>
      <trkpt lat="46.35947" lon="-0.3756">
        <ele>81.4</ele>
        <time>2020-05-31T09:14:43Z</time>
      </trkpt>
      <trkpt lat="46.35943" lon="-0.37565">
        <ele>81.4</ele>
        <time>2020-05-31T09:14:44Z</time>
      </trkpt>
      <trkpt lat="46.3594" lon="-0.37571">
        <ele>81.4</ele>
        <time>2020-05-31T09:14:45Z</time>
      </trkpt>
      <trkpt lat="46.35937" lon="-0.37575">
        <ele>81.4</ele>
        <time>2020-05-31T09:14:46Z</time>
      </trkpt>
      <trkpt lat="46.35933" lon="-0.37581">
        <ele>81.5</ele>
        <time>2020-05-31T09:14:47Z</time>
      </trkpt>
      <trkpt lat="46.3593" lon="-0.37585">
        <ele>81.5</ele>
        <time>2020-05-31T09:14:48Z</time>
      </trkpt>
      <trkpt lat="46.35927" lon="-0.3759">
        <ele>81.5</ele>
        <time>2020-05-31T09:14:49Z</time>
      </trkpt>
      <trkpt lat="46.35924" lon="-0.37594">
        <ele>81.5</ele>
        <time>2020-05-31T09:14:50Z</time>
      </trkpt>
      <trkpt lat="46.35922" lon="-0.37598">
        <ele>81.5</ele>
        <time>2020-05-31T09:14:51Z</time>
      </trkpt>
      <trkpt lat="46.35919" lon="-0.37602">
        <ele>81.5</ele>
        <time>2020-05-31T09:14:52Z</time>
      </trkpt>
      <trkpt lat="46.35918" lon="-0.37602">
        <ele>81.5</ele>
        <time>2020-05-31T09:14:53Z</time>
      </trkpt>
      <trkpt lat="46.35917" lon="-0.37605">
        <ele>81.5</ele>
        <time>2020-05-31T09:14:54Z</time>
      </trkpt>
      <trkpt lat="46.35916" lon="-0.37606">
        <ele>81.5</ele>
        <time>2020-05-31T09:14:55Z</time>
      </trkpt>
      <trkpt lat="46.35915" lon="-0.37606">
        <ele>81.5</ele>
        <time>2020-05-31T09:14:56Z</time>
      </trkpt>
      <trkpt lat="46.35916" lon="-0.37606">
        <ele>81.5</ele>
        <time>2020-05-31T09:14:57Z</time>
      </trkpt>
      <trkpt lat="46.35916" lon="-0.37605">
        <ele>81.5</ele>
        <time>2020-05-31T09:14:58Z</time>
      </trkpt>
      <trkpt lat="46.35916" lon="-0.37603">
        <ele>81.5</ele>
        <time>2020-05-31T09:14:59Z</time>
      </trkpt>
      <trkpt lat="46.35916" lon="-0.37604">
        <ele>81.5</ele>
        <time>2020-05-31T09:15:00Z</time>
      </trkpt>
      <trkpt lat="46.35916" lon="-0.37603">
        <ele>81.5</ele>
        <time>2020-05-31T09:15:01Z</time>
      </trkpt>
      <trkpt lat="46.35916" lon="-0.37603">
        <ele>81.5</ele>
        <time>2020-05-31T09:15:02Z</time>
      </trkpt>
      <trkpt lat="46.35916" lon="-0.37603">
        <ele>81.5</ele>
        <time>2020-05-31T09:15:03Z</time>
      </trkpt>
      <trkpt lat="46.35916" lon="-0.37603">
        <ele>81.5</ele>
        <time>2020-05-31T09:15:04Z</time>
      </trkpt>
      <trkpt lat="46.35916" lon="-0.37603">
        <ele>81.5</ele>
        <time>2020-05-31T09:15:05Z</time>
      </trkpt>
      <trkpt lat="46.35916" lon="-0.37603">
        <ele>81.5</ele>
        <time>2020-05-31T09:15:06Z</time>
      </trkpt>
      <trkpt lat="46.35916" lon="-0.37603">
        <ele>81.5</ele>
        <time>2020-05-31T09:15:07Z</time>
      </trkpt>
      <trkpt lat="46.35916" lon="-0.37603">
        <ele>81.5</ele>
        <time>2020-05-31T09:15:08Z</time>
      </trkpt>
      <trkpt lat="46.35916" lon="-0.37603">
        <ele>81.5</ele>
        <time>2020-05-31T09:15:09Z</time>
      </trkpt>
      <trkpt lat="46.35916" lon="-0.37603">
        <ele>81.5</ele>
        <time>2020-05-31T09:15:10Z</time>
      </trkpt>
      <trkpt lat="46.35916" lon="-0.37602">
        <ele>81.5</ele>
        <time>2020-05-31T09:15:11Z</time>
      </trkpt>
      <trkpt lat="46.35917" lon="-0.37602">
        <ele>81.5</ele>
        <time>2020-05-31T09:15:12Z</time>
      </trkpt>
      <trkpt lat="46.35917" lon="-0.37603">
        <ele>81.5</ele>
        <time>2020-05-31T09:15:13Z</time>
      </trkpt>
      <trkpt lat="46.35917" lon="-0.37603">
        <ele>81.5</ele>
        <time>2020-05-31T09:15:14Z</time>
      </trkpt>
      <trkpt lat="46.35917" lon="-0.37603">
        <ele>81.5</ele>
        <time>2020-05-31T09:15:15Z</time>
      </trkpt>
      <trkpt lat="46.35917" lon="-0.37603">
        <ele>81.5</ele>
        <time>2020-05-31T09:15:16Z</time>
      </trkpt>
      <trkpt lat="46.35917" lon="-0.37603">
        <ele>81.5</ele>
        <time>2020-05-31T09:15:17Z</time>
      </trkpt>
      <trkpt lat="46.35917" lon="-0.37602">
        <ele>81.5</ele>
        <time>2020-05-31T09:15:18Z</time>
      </trkpt>
      <trkpt lat="46.35917" lon="-0.37602">
        <ele>81.5</ele>
        <time>2020-05-31T09:15:19Z</time>
      </trkpt>
      <trkpt lat="46.35916" lon="-0.37603">
        <ele>81.5</ele>
        <time>2020-05-31T09:15:20Z</time>
      </trkpt>
      <trkpt lat="46.35915" lon="-0.37604">
        <ele>81.5</ele>
        <time>2020-05-31T09:15:21Z</time>
      </trkpt>
      <trkpt lat="46.35913" lon="-0.37607">
        <ele>81.5</ele>
        <time>2020-05-31T09:15:22Z</time>
      </trkpt>
      <trkpt lat="46.35911" lon="-0.37612">
        <ele>81.5</ele>
        <time>2020-05-31T09:15:23Z</time>
      </trkpt>
      <trkpt lat="46.3591" lon="-0.37614">
        <ele>81.5</ele>
        <time>2020-05-31T09:15:24Z</time>
      </trkpt>
      <trkpt lat="46.35908" lon="-0.37618">
        <ele>81.5</ele>
        <time>2020-05-31T09:15:25Z</time>
      </trkpt>
      <trkpt lat="46.35906" lon="-0.37622">
        <ele>81.5</ele>
        <time>2020-05-31T09:15:26Z</time>
      </trkpt>
      <trkpt lat="46.35904" lon="-0.37628">
        <ele>81.5</ele>
        <time>2020-05-31T09:15:27Z</time>
      </trkpt>
      <trkpt lat="46.35901" lon="-0.37633">
        <ele>81.4</ele>
        <time>2020-05-31T09:15:28Z</time>
      </trkpt>
      <trkpt lat="46.359" lon="-0.37635">
        <ele>81.4</ele>
        <time>2020-05-31T09:15:29Z</time>
      </trkpt>
      <trkpt lat="46.35897" lon="-0.37639">
        <ele>81.4</ele>
        <time>2020-05-31T09:15:30Z</time>
      </trkpt>
      <trkpt lat="46.35894" lon="-0.37643">
        <ele>81.3</ele>
        <time>2020-05-31T09:15:31Z</time>
      </trkpt>
      <trkpt lat="46.3589" lon="-0.37648">
        <ele>81.3</ele>
        <time>2020-05-31T09:15:32Z</time>
      </trkpt>
      <trkpt lat="46.35888" lon="-0.37653">
        <ele>81.3</ele>
        <time>2020-05-31T09:15:33Z</time>
      </trkpt>
      <trkpt lat="46.35883" lon="-0.3766">
        <ele>81.2</ele>
        <time>2020-05-31T09:15:34Z</time>
      </trkpt>
      <trkpt lat="46.3588" lon="-0.37666">
        <ele>81.1</ele>
        <time>2020-05-31T09:15:35Z</time>
      </trkpt>
      <trkpt lat="46.35877" lon="-0.37672">
        <ele>81.1</ele>
        <time>2020-05-31T09:15:36Z</time>
      </trkpt>
      <trkpt lat="46.35873" lon="-0.37677">
        <ele>81</ele>
        <time>2020-05-31T09:15:37Z</time>
      </trkpt>
      <trkpt lat="46.3587" lon="-0.37684">
        <ele>80.9</ele>
        <time>2020-05-31T09:15:38Z</time>
      </trkpt>
      <trkpt lat="46.35866" lon="-0.37691">
        <ele>80.9</ele>
        <time>2020-05-31T09:15:39Z</time>
      </trkpt>
      <trkpt lat="46.35863" lon="-0.37697">
        <ele>80.9</ele>
        <time>2020-05-31T09:15:40Z</time>
      </trkpt>
      <trkpt lat="46.3586" lon="-0.37702">
        <ele>80.8</ele>
        <time>2020-05-31T09:15:41Z</time>
      </trkpt>
      <trkpt lat="46.35857" lon="-0.37707">
        <ele>80.8</ele>
        <time>2020-05-31T09:15:42Z</time>
      </trkpt>
      <trkpt lat="46.35855" lon="-0.37713">
        <ele>80.8</ele>
        <time>2020-05-31T09:15:43Z</time>
      </trkpt>
      <trkpt lat="46.35852" lon="-0.3772">
        <ele>80.8</ele>
        <time>2020-05-31T09:15:44Z</time>
      </trkpt>
      <trkpt lat="46.35851" lon="-0.37727">
        <ele>80.8</ele>
        <time>2020-05-31T09:15:45Z</time>
      </trkpt>
      <trkpt lat="46.35851" lon="-0.37733">
        <ele>80.9</ele>
        <time>2020-05-31T09:15:46Z</time>
      </trkpt>
      <trkpt lat="46.35852" lon="-0.37741">
        <ele>80.9</ele>
        <time>2020-05-31T09:15:47Z</time>
      </trkpt>
      <trkpt lat="46.35852" lon="-0.37749">
        <ele>80.9</ele>
        <time>2020-05-31T09:15:48Z</time>
      </trkpt>
      <trkpt lat="46.35849" lon="-0.37754">
        <ele>80.9</ele>
        <time>2020-05-31T09:15:49Z</time>
      </trkpt>
      <trkpt lat="46.35846" lon="-0.37757">
        <ele>80.8</ele>
        <time>2020-05-31T09:15:50Z</time>
      </trkpt>
      <trkpt lat="46.35841" lon="-0.37758">
        <ele>80.8</ele>
        <time>2020-05-31T09:15:51Z</time>
      </trkpt>
      <trkpt lat="46.35837" lon="-0.37759">
        <ele>80.8</ele>
        <time>2020-05-31T09:15:52Z</time>
      </trkpt>
      <trkpt lat="46.35832" lon="-0.37761">
        <ele>80.8</ele>
        <time>2020-05-31T09:15:53Z</time>
      </trkpt>
      <trkpt lat="46.35827" lon="-0.37763">
        <ele>80.8</ele>
        <time>2020-05-31T09:15:54Z</time>
      </trkpt>
      <trkpt lat="46.35824" lon="-0.37767">
        <ele>80.8</ele>
        <time>2020-05-31T09:15:55Z</time>
      </trkpt>
      <trkpt lat="46.3582" lon="-0.37772">
        <ele>80.7</ele>
        <time>2020-05-31T09:15:56Z</time>
      </trkpt>
      <trkpt lat="46.35816" lon="-0.37779">
        <ele>80.7</ele>
        <time>2020-05-31T09:15:57Z</time>
      </trkpt>
      <trkpt lat="46.35812" lon="-0.37786">
        <ele>80.7</ele>
        <time>2020-05-31T09:15:58Z</time>
      </trkpt>
      <trkpt lat="46.35809" lon="-0.37793">
        <ele>80.7</ele>
        <time>2020-05-31T09:15:59Z</time>
      </trkpt>
      <trkpt lat="46.35806" lon="-0.378">
        <ele>80.7</ele>
        <time>2020-05-31T09:16:00Z</time>
      </trkpt>
      <trkpt lat="46.35803" lon="-0.37806">
        <ele>80.7</ele>
        <time>2020-05-31T09:16:01Z</time>
      </trkpt>
      <trkpt lat="46.35799" lon="-0.37812">
        <ele>80.7</ele>
        <time>2020-05-31T09:16:02Z</time>
      </trkpt>
      <trkpt lat="46.35795" lon="-0.37818">
        <ele>80.7</ele>
        <time>2020-05-31T09:16:03Z</time>
      </trkpt>
      <trkpt lat="46.35792" lon="-0.37824">
        <ele>80.7</ele>
        <time>2020-05-31T09:16:04Z</time>
      </trkpt>
      <trkpt lat="46.35787" lon="-0.37828">
        <ele>80.6</ele>
        <time>2020-05-31T09:16:05Z</time>
      </trkpt>
      <trkpt lat="46.35782" lon="-0.37833">
        <ele>80.6</ele>
        <time>2020-05-31T09:16:06Z</time>
      </trkpt>
      <trkpt lat="46.35778" lon="-0.37837">
        <ele>80.6</ele>
        <time>2020-05-31T09:16:07Z</time>
      </trkpt>
      <trkpt lat="46.35775" lon="-0.37844">
        <ele>80.5</ele>
        <time>2020-05-31T09:16:08Z</time>
      </trkpt>
      <trkpt lat="46.35771" lon="-0.3785">
        <ele>80.5</ele>
        <time>2020-05-31T09:16:09Z</time>
      </trkpt>
      <trkpt lat="46.35768" lon="-0.37854">
        <ele>80.5</ele>
        <time>2020-05-31T09:16:10Z</time>
      </trkpt>
      <trkpt lat="46.35765" lon="-0.37859">
        <ele>80.4</ele>
        <time>2020-05-31T09:16:11Z</time>
      </trkpt>
      <trkpt lat="46.35761" lon="-0.37864">
        <ele>80.4</ele>
        <time>2020-05-31T09:16:12Z</time>
      </trkpt>
      <trkpt lat="46.35758" lon="-0.3787">
        <ele>80.3</ele>
        <time>2020-05-31T09:16:13Z</time>
      </trkpt>
      <trkpt lat="46.35755" lon="-0.37874">
        <ele>80.2</ele>
        <time>2020-05-31T09:16:14Z</time>
      </trkpt>
      <trkpt lat="46.35751" lon="-0.37878">
        <ele>80.2</ele>
        <time>2020-05-31T09:16:15Z</time>
      </trkpt>
      <trkpt lat="46.35747" lon="-0.37882">
        <ele>80.1</ele>
        <time>2020-05-31T09:16:16Z</time>
      </trkpt>
      <trkpt lat="46.35743" lon="-0.37887">
        <ele>80</ele>
        <time>2020-05-31T09:16:17Z</time>
      </trkpt>
      <trkpt lat="46.35739" lon="-0.37892">
        <ele>79.9</ele>
        <time>2020-05-31T09:16:18Z</time>
      </trkpt>
      <trkpt lat="46.35735" lon="-0.37896">
        <ele>79.8</ele>
        <time>2020-05-31T09:16:19Z</time>
      </trkpt>
      <trkpt lat="46.3573" lon="-0.37901">
        <ele>79.8</ele>
        <time>2020-05-31T09:16:20Z</time>
      </trkpt>
      <trkpt lat="46.35726" lon="-0.37905">
        <ele>79.7</ele>
        <time>2020-05-31T09:16:21Z</time>
      </trkpt>
      <trkpt lat="46.35722" lon="-0.37911">
        <ele>79.6</ele>
        <time>2020-05-31T09:16:22Z</time>
      </trkpt>
      <trkpt lat="46.35719" lon="-0.37916">
        <ele>79.6</ele>
        <time>2020-05-31T09:16:23Z</time>
      </trkpt>
      <trkpt lat="46.35714" lon="-0.3792">
        <ele>79.5</ele>
        <time>2020-05-31T09:16:24Z</time>
      </trkpt>
      <trkpt lat="46.3571" lon="-0.37925">
        <ele>79.5</ele>
        <time>2020-05-31T09:16:25Z</time>
      </trkpt>
      <trkpt lat="46.35706" lon="-0.3793">
        <ele>79.4</ele>
        <time>2020-05-31T09:16:26Z</time>
      </trkpt>
      <trkpt lat="46.35702" lon="-0.37935">
        <ele>79.3</ele>
        <time>2020-05-31T09:16:27Z</time>
      </trkpt>
      <trkpt lat="46.35699" lon="-0.3794">
        <ele>79.2</ele>
        <time>2020-05-31T09:16:28Z</time>
      </trkpt>
      <trkpt lat="46.35693" lon="-0.37945">
        <ele>79.2</ele>
        <time>2020-05-31T09:16:29Z</time>
      </trkpt>
      <trkpt lat="46.35689" lon="-0.37949">
        <ele>79.1</ele>
        <time>2020-05-31T09:16:30Z</time>
      </trkpt>
      <trkpt lat="46.35684" lon="-0.37954">
        <ele>79.1</ele>
        <time>2020-05-31T09:16:31Z</time>
      </trkpt>
      <trkpt lat="46.35679" lon="-0.37958">
        <ele>79</ele>
        <time>2020-05-31T09:16:32Z</time>
      </trkpt>
      <trkpt lat="46.35675" lon="-0.37964">
        <ele>79</ele>
        <time>2020-05-31T09:16:33Z</time>
      </trkpt>
      <trkpt lat="46.35671" lon="-0.3797">
        <ele>78.9</ele>
        <time>2020-05-31T09:16:34Z</time>
      </trkpt>
      <trkpt lat="46.35666" lon="-0.37975">
        <ele>78.8</ele>
        <time>2020-05-31T09:16:35Z</time>
      </trkpt>
      <trkpt lat="46.35662" lon="-0.3798">
        <ele>78.8</ele>
        <time>2020-05-31T09:16:36Z</time>
      </trkpt>
      <trkpt lat="46.35658" lon="-0.37984">
        <ele>78.7</ele>
        <time>2020-05-31T09:16:37Z</time>
      </trkpt>
      <trkpt lat="46.35654" lon="-0.37989">
        <ele>78.7</ele>
        <time>2020-05-31T09:16:38Z</time>
      </trkpt>
      <trkpt lat="46.3565" lon="-0.37993">
        <ele>78.6</ele>
        <time>2020-05-31T09:16:39Z</time>
      </trkpt>
      <trkpt lat="46.35644" lon="-0.37997">
        <ele>78.6</ele>
        <time>2020-05-31T09:16:40Z</time>
      </trkpt>
      <trkpt lat="46.3564" lon="-0.38002">
        <ele>78.5</ele>
        <time>2020-05-31T09:16:41Z</time>
      </trkpt>
      <trkpt lat="46.35636" lon="-0.38007">
        <ele>78.4</ele>
        <time>2020-05-31T09:16:42Z</time>
      </trkpt>
      <trkpt lat="46.3563" lon="-0.38013">
        <ele>78.2</ele>
        <time>2020-05-31T09:16:43Z</time>
      </trkpt>
      <trkpt lat="46.35625" lon="-0.3802">
        <ele>78.1</ele>
        <time>2020-05-31T09:16:44Z</time>
      </trkpt>
      <trkpt lat="46.35621" lon="-0.38026">
        <ele>78</ele>
        <time>2020-05-31T09:16:45Z</time>
      </trkpt>
      <trkpt lat="46.35617" lon="-0.38032">
        <ele>78</ele>
        <time>2020-05-31T09:16:46Z</time>
      </trkpt>
      <trkpt lat="46.35612" lon="-0.38038">
        <ele>77.9</ele>
        <time>2020-05-31T09:16:47Z</time>
      </trkpt>
      <trkpt lat="46.35608" lon="-0.38044">
        <ele>77.8</ele>
        <time>2020-05-31T09:16:48Z</time>
      </trkpt>
      <trkpt lat="46.35604" lon="-0.38049">
        <ele>77.7</ele>
        <time>2020-05-31T09:16:49Z</time>
      </trkpt>
      <trkpt lat="46.356" lon="-0.38054">
        <ele>77.6</ele>
        <time>2020-05-31T09:16:50Z</time>
      </trkpt>
      <trkpt lat="46.35597" lon="-0.38059">
        <ele>77.5</ele>
        <time>2020-05-31T09:16:51Z</time>
      </trkpt>
      <trkpt lat="46.35594" lon="-0.38064">
        <ele>77.4</ele>
        <time>2020-05-31T09:16:52Z</time>
      </trkpt>
      <trkpt lat="46.35592" lon="-0.38068">
        <ele>77.4</ele>
        <time>2020-05-31T09:16:53Z</time>
      </trkpt>
      <trkpt lat="46.35592" lon="-0.38069">
        <ele>77.4</ele>
        <time>2020-05-31T09:16:54Z</time>
      </trkpt>
      <trkpt lat="46.35593" lon="-0.38071">
        <ele>77.4</ele>
        <time>2020-05-31T09:16:55Z</time>
      </trkpt>
      <trkpt lat="46.35593" lon="-0.38071">
        <ele>77.3</ele>
        <time>2020-05-31T09:16:56Z</time>
      </trkpt>
      <trkpt lat="46.35594" lon="-0.38069">
        <ele>77.3</ele>
        <time>2020-05-31T09:16:57Z</time>
      </trkpt>
      <trkpt lat="46.35594" lon="-0.38069">
        <ele>77.3</ele>
        <time>2020-05-31T09:16:58Z</time>
      </trkpt>
      <trkpt lat="46.35594" lon="-0.38068">
        <ele>77.3</ele>
        <time>2020-05-31T09:16:59Z</time>
      </trkpt>
      <trkpt lat="46.35594" lon="-0.38067">
        <ele>77.3</ele>
        <time>2020-05-31T09:17:00Z</time>
      </trkpt>
      <trkpt lat="46.35594" lon="-0.38067">
        <ele>77.3</ele>
        <time>2020-05-31T09:17:01Z</time>
      </trkpt>
      <trkpt lat="46.35594" lon="-0.38068">
        <ele>77.3</ele>
        <time>2020-05-31T09:17:02Z</time>
      </trkpt>
      <trkpt lat="46.35595" lon="-0.38067">
        <ele>77.3</ele>
        <time>2020-05-31T09:17:03Z</time>
      </trkpt>
      <trkpt lat="46.35595" lon="-0.38066">
        <ele>77.3</ele>
        <time>2020-05-31T09:17:04Z</time>
      </trkpt>
      <trkpt lat="46.35596" lon="-0.38066">
        <ele>77.2</ele>
        <time>2020-05-31T09:17:05Z</time>
      </trkpt>
      <trkpt lat="46.35596" lon="-0.38065">
        <ele>77.2</ele>
        <time>2020-05-31T09:17:06Z</time>
      </trkpt>
      <trkpt lat="46.35596" lon="-0.38065">
        <ele>77.2</ele>
        <time>2020-05-31T09:17:07Z</time>
      </trkpt>
      <trkpt lat="46.35596" lon="-0.38066">
        <ele>77.2</ele>
        <time>2020-05-31T09:17:08Z</time>
      </trkpt>
      <trkpt lat="46.35596" lon="-0.38066">
        <ele>77.2</ele>
        <time>2020-05-31T09:17:09Z</time>
      </trkpt>
      <trkpt lat="46.35596" lon="-0.38066">
        <ele>77.2</ele>
        <time>2020-05-31T09:17:10Z</time>
      </trkpt>
      <trkpt lat="46.35597" lon="-0.38066">
        <ele>77.2</ele>
        <time>2020-05-31T09:17:11Z</time>
      </trkpt>
      <trkpt lat="46.35597" lon="-0.38066">
        <ele>77.2</ele>
        <time>2020-05-31T09:17:12Z</time>
      </trkpt>
      <trkpt lat="46.35596" lon="-0.38067">
        <ele>77.2</ele>
        <time>2020-05-31T09:17:13Z</time>
      </trkpt>
      <trkpt lat="46.35596" lon="-0.38067">
        <ele>77.2</ele>
        <time>2020-05-31T09:17:14Z</time>
      </trkpt>
      <trkpt lat="46.35596" lon="-0.38068">
        <ele>77.2</ele>
        <time>2020-05-31T09:17:15Z</time>
      </trkpt>
      <trkpt lat="46.35596" lon="-0.38068">
        <ele>77.2</ele>
        <time>2020-05-31T09:17:16Z</time>
      </trkpt>
      <trkpt lat="46.35596" lon="-0.38068">
        <ele>77.2</ele>
        <time>2020-05-31T09:17:17Z</time>
      </trkpt>
      <trkpt lat="46.35597" lon="-0.38067">
        <ele>77.2</ele>
        <time>2020-05-31T09:17:18Z</time>
      </trkpt>
      <trkpt lat="46.35597" lon="-0.38066">
        <ele>77.1</ele>
        <time>2020-05-31T09:17:19Z</time>
      </trkpt>
      <trkpt lat="46.35597" lon="-0.38066">
        <ele>77.1</ele>
        <time>2020-05-31T09:17:20Z</time>
      </trkpt>
      <trkpt lat="46.35598" lon="-0.38066">
        <ele>77.2</ele>
        <time>2020-05-31T09:17:21Z</time>
      </trkpt>
      <trkpt lat="46.35598" lon="-0.38066">
        <ele>77.2</ele>
        <time>2020-05-31T09:17:22Z</time>
      </trkpt>
      <trkpt lat="46.35598" lon="-0.38066">
        <ele>77.2</ele>
        <time>2020-05-31T09:17:23Z</time>
      </trkpt>
      <trkpt lat="46.35598" lon="-0.38066">
        <ele>77.2</ele>
        <time>2020-05-31T09:17:24Z</time>
      </trkpt>
      <trkpt lat="46.35598" lon="-0.38066">
        <ele>77.2</ele>
        <time>2020-05-31T09:17:25Z</time>
      </trkpt>
      <trkpt lat="46.35598" lon="-0.38066">
        <ele>77.2</ele>
        <time>2020-05-31T09:17:26Z</time>
      </trkpt>
      <trkpt lat="46.35598" lon="-0.38066">
        <ele>77.2</ele>
        <time>2020-05-31T09:17:27Z</time>
      </trkpt>
      <trkpt lat="46.35597" lon="-0.38067">
        <ele>77.2</ele>
        <time>2020-05-31T09:17:28Z</time>
      </trkpt>
      <trkpt lat="46.35597" lon="-0.38066">
        <ele>77.2</ele>
        <time>2020-05-31T09:17:29Z</time>
      </trkpt>
      <trkpt lat="46.35598" lon="-0.38066">
        <ele>77.2</ele>
        <time>2020-05-31T09:17:30Z</time>
      </trkpt>
      <trkpt lat="46.35598" lon="-0.38066">
        <ele>77.2</ele>
        <time>2020-05-31T09:17:31Z</time>
      </trkpt>
      <trkpt lat="46.35598" lon="-0.38066">
        <ele>77.2</ele>
        <time>2020-05-31T09:17:32Z</time>
      </trkpt>
      <trkpt lat="46.35598" lon="-0.38066">
        <ele>77.2</ele>
        <time>2020-05-31T09:17:33Z</time>
      </trkpt>
      <trkpt lat="46.35598" lon="-0.38066">
        <ele>77.2</ele>
        <time>2020-05-31T09:17:34Z</time>
      </trkpt>
      <trkpt lat="46.35598" lon="-0.38066">
        <ele>77.2</ele>
        <time>2020-05-31T09:17:35Z</time>
      </trkpt>
      <trkpt lat="46.35598" lon="-0.38066">
        <ele>77.2</ele>
        <time>2020-05-31T09:17:36Z</time>
      </trkpt>
      <trkpt lat="46.35598" lon="-0.38066">
        <ele>77.2</ele>
        <time>2020-05-31T09:17:37Z</time>
      </trkpt>
      <trkpt lat="46.35598" lon="-0.38066">
        <ele>77.2</ele>
        <time>2020-05-31T09:17:38Z</time>
      </trkpt>
      <trkpt lat="46.35598" lon="-0.38066">
        <ele>77.2</ele>
        <time>2020-05-31T09:17:39Z</time>
      </trkpt>
      <trkpt lat="46.35598" lon="-0.38066">
        <ele>77.2</ele>
        <time>2020-05-31T09:17:40Z</time>
      </trkpt>
      <trkpt lat="46.35598" lon="-0.38066">
        <ele>77.2</ele>
        <time>2020-05-31T09:17:41Z</time>
      </trkpt>
      <trkpt lat="46.35598" lon="-0.38066">
        <ele>77.2</ele>
        <time>2020-05-31T09:17:42Z</time>
      </trkpt>
      <trkpt lat="46.35598" lon="-0.38066">
        <ele>77.2</ele>
        <time>2020-05-31T09:17:43Z</time>
      </trkpt>
      <trkpt lat="46.35598" lon="-0.38066">
        <ele>77.2</ele>
        <time>2020-05-31T09:17:44Z</time>
      </trkpt>
      <trkpt lat="46.35598" lon="-0.38066">
        <ele>77.2</ele>
        <time>2020-05-31T09:17:45Z</time>
      </trkpt>
      <trkpt lat="46.35598" lon="-0.38066">
        <ele>77.2</ele>
        <time>2020-05-31T09:17:46Z</time>
      </trkpt>
      <trkpt lat="46.35598" lon="-0.38067">
        <ele>77.2</ele>
        <time>2020-05-31T09:17:47Z</time>
      </trkpt>
      <trkpt lat="46.35598" lon="-0.38067">
        <ele>77.2</ele>
        <time>2020-05-31T09:17:48Z</time>
      </trkpt>
      <trkpt lat="46.35598" lon="-0.38067">
        <ele>77.2</ele>
        <time>2020-05-31T09:17:49Z</time>
      </trkpt>
      <trkpt lat="46.35598" lon="-0.38068">
        <ele>77.2</ele>
        <time>2020-05-31T09:17:50Z</time>
      </trkpt>
      <trkpt lat="46.35598" lon="-0.38068">
        <ele>77.2</ele>
        <time>2020-05-31T09:17:51Z</time>
      </trkpt>
      <trkpt lat="46.35598" lon="-0.38068">
        <ele>77.2</ele>
        <time>2020-05-31T09:17:52Z</time>
      </trkpt>
      <trkpt lat="46.35598" lon="-0.38068">
        <ele>77.2</ele>
        <time>2020-05-31T09:17:53Z</time>
      </trkpt>
      <trkpt lat="46.35598" lon="-0.38069">
        <ele>77.2</ele>
        <time>2020-05-31T09:17:54Z</time>
      </trkpt>
      <trkpt lat="46.35598" lon="-0.38069">
        <ele>77.2</ele>
        <time>2020-05-31T09:17:55Z</time>
      </trkpt>
      <trkpt lat="46.35598" lon="-0.38069">
        <ele>77.1</ele>
        <time>2020-05-31T09:17:56Z</time>
      </trkpt>
      <trkpt lat="46.35598" lon="-0.38069">
        <ele>77.1</ele>
        <time>2020-05-31T09:17:57Z</time>
      </trkpt>
      <trkpt lat="46.35598" lon="-0.38069">
        <ele>77.1</ele>
        <time>2020-05-31T09:17:58Z</time>
      </trkpt>
      <trkpt lat="46.35598" lon="-0.38069">
        <ele>77.1</ele>
        <time>2020-05-31T09:17:59Z</time>
      </trkpt>
      <trkpt lat="46.35598" lon="-0.38069">
        <ele>77.1</ele>
        <time>2020-05-31T09:18:00Z</time>
      </trkpt>
      <trkpt lat="46.35598" lon="-0.38069">
        <ele>77.1</ele>
        <time>2020-05-31T09:18:01Z</time>
      </trkpt>
      <trkpt lat="46.35598" lon="-0.38069">
        <ele>77.1</ele>
        <time>2020-05-31T09:18:02Z</time>
      </trkpt>
      <trkpt lat="46.35598" lon="-0.38069">
        <ele>77.1</ele>
        <time>2020-05-31T09:18:03Z</time>
      </trkpt>
      <trkpt lat="46.35598" lon="-0.38069">
        <ele>77.1</ele>
        <time>2020-05-31T09:18:04Z</time>
      </trkpt>
      <trkpt lat="46.35598" lon="-0.38069">
        <ele>77.1</ele>
        <time>2020-05-31T09:18:05Z</time>
      </trkpt>
      <trkpt lat="46.35598" lon="-0.38069">
        <ele>77.1</ele>
        <time>2020-05-31T09:18:06Z</time>
      </trkpt>
      <trkpt lat="46.35598" lon="-0.38069">
        <ele>77.1</ele>
        <time>2020-05-31T09:18:07Z</time>
      </trkpt>
      <trkpt lat="46.35598" lon="-0.38069">
        <ele>77.1</ele>
        <time>2020-05-31T09:18:08Z</time>
      </trkpt>
      <trkpt lat="46.35598" lon="-0.38069">
        <ele>77.1</ele>
        <time>2020-05-31T09:18:09Z</time>
      </trkpt>
      <trkpt lat="46.35598" lon="-0.38069">
        <ele>77.2</ele>
        <time>2020-05-31T09:18:10Z</time>
      </trkpt>
      <trkpt lat="46.35598" lon="-0.38069">
        <ele>77.2</ele>
        <time>2020-05-31T09:18:11Z</time>
      </trkpt>
      <trkpt lat="46.35598" lon="-0.38069">
        <ele>77.2</ele>
        <time>2020-05-31T09:18:12Z</time>
      </trkpt>
      <trkpt lat="46.35598" lon="-0.38069">
        <ele>77.2</ele>
        <time>2020-05-31T09:18:13Z</time>
      </trkpt>
      <trkpt lat="46.35598" lon="-0.3807">
        <ele>77.2</ele>
        <time>2020-05-31T09:18:14Z</time>
      </trkpt>
      <trkpt lat="46.35598" lon="-0.3807">
        <ele>77.2</ele>
        <time>2020-05-31T09:18:15Z</time>
      </trkpt>
      <trkpt lat="46.35598" lon="-0.38069">
        <ele>77.2</ele>
        <time>2020-05-31T09:18:16Z</time>
      </trkpt>
      <trkpt lat="46.35598" lon="-0.3807">
        <ele>77.2</ele>
        <time>2020-05-31T09:18:17Z</time>
      </trkpt>
      <trkpt lat="46.35599" lon="-0.38069">
        <ele>77.2</ele>
        <time>2020-05-31T09:18:18Z</time>
      </trkpt>
      <trkpt lat="46.35599" lon="-0.3807">
        <ele>77.2</ele>
        <time>2020-05-31T09:18:19Z</time>
      </trkpt>
      <trkpt lat="46.35599" lon="-0.38069">
        <ele>77.2</ele>
        <time>2020-05-31T09:18:20Z</time>
      </trkpt>
      <trkpt lat="46.35599" lon="-0.38069">
        <ele>77.2</ele>
        <time>2020-05-31T09:18:21Z</time>
      </trkpt>
      <trkpt lat="46.35599" lon="-0.38069">
        <ele>77.2</ele>
        <time>2020-05-31T09:18:22Z</time>
      </trkpt>
      <trkpt lat="46.35599" lon="-0.38068">
        <ele>77.2</ele>
        <time>2020-05-31T09:18:23Z</time>
      </trkpt>
      <trkpt lat="46.35599" lon="-0.38068">
        <ele>77.2</ele>
        <time>2020-05-31T09:18:24Z</time>
      </trkpt>
      <trkpt lat="46.35599" lon="-0.38068">
        <ele>77.2</ele>
        <time>2020-05-31T09:18:25Z</time>
      </trkpt>
      <trkpt lat="46.35598" lon="-0.38068">
        <ele>77.2</ele>
        <time>2020-05-31T09:18:26Z</time>
      </trkpt>
      <trkpt lat="46.35598" lon="-0.38069">
        <ele>77.2</ele>
        <time>2020-05-31T09:18:27Z</time>
      </trkpt>
      <trkpt lat="46.35599" lon="-0.38069">
        <ele>77.2</ele>
        <time>2020-05-31T09:18:28Z</time>
      </trkpt>
      <trkpt lat="46.35599" lon="-0.38069">
        <ele>77.2</ele>
        <time>2020-05-31T09:18:29Z</time>
      </trkpt>
      <trkpt lat="46.35599" lon="-0.38069">
        <ele>77.2</ele>
        <time>2020-05-31T09:18:30Z</time>
      </trkpt>
      <trkpt lat="46.35599" lon="-0.38069">
        <ele>77.2</ele>
        <time>2020-05-31T09:18:31Z</time>
      </trkpt>
      <trkpt lat="46.35599" lon="-0.38068">
        <ele>77.1</ele>
        <time>2020-05-31T09:18:32Z</time>
      </trkpt>
      <trkpt lat="46.35599" lon="-0.38068">
        <ele>77.1</ele>
        <time>2020-05-31T09:18:33Z</time>
      </trkpt>
      <trkpt lat="46.35599" lon="-0.38068">
        <ele>77.1</ele>
        <time>2020-05-31T09:18:34Z</time>
      </trkpt>
      <trkpt lat="46.35599" lon="-0.38068">
        <ele>77.1</ele>
        <time>2020-05-31T09:18:35Z</time>
      </trkpt>
      <trkpt lat="46.35599" lon="-0.38068">
        <ele>77.1</ele>
        <time>2020-05-31T09:18:36Z</time>
      </trkpt>
      <trkpt lat="46.35599" lon="-0.38068">
        <ele>77.1</ele>
        <time>2020-05-31T09:18:37Z</time>
      </trkpt>
      <trkpt lat="46.35599" lon="-0.38068">
        <ele>77.1</ele>
        <time>2020-05-31T09:18:38Z</time>
      </trkpt>
      <trkpt lat="46.35599" lon="-0.38068">
        <ele>77.1</ele>
        <time>2020-05-31T09:18:39Z</time>
      </trkpt>
      <trkpt lat="46.35599" lon="-0.38068">
        <ele>77.1</ele>
        <time>2020-05-31T09:18:40Z</time>
      </trkpt>
      <trkpt lat="46.35599" lon="-0.38068">
        <ele>77.1</ele>
        <time>2020-05-31T09:18:41Z</time>
      </trkpt>
      <trkpt lat="46.35599" lon="-0.38068">
        <ele>77.1</ele>
        <time>2020-05-31T09:18:42Z</time>
      </trkpt>
      <trkpt lat="46.35599" lon="-0.38068">
        <ele>77.1</ele>
        <time>2020-05-31T09:18:43Z</time>
      </trkpt>
      <trkpt lat="46.35599" lon="-0.38069">
        <ele>77.1</ele>
        <time>2020-05-31T09:18:44Z</time>
      </trkpt>
      <trkpt lat="46.35599" lon="-0.38069">
        <ele>77.1</ele>
        <time>2020-05-31T09:18:45Z</time>
      </trkpt>
      <trkpt lat="46.35599" lon="-0.38069">
        <ele>77.1</ele>
        <time>2020-05-31T09:18:46Z</time>
      </trkpt>
      <trkpt lat="46.35599" lon="-0.38069">
        <ele>77.1</ele>
        <time>2020-05-31T09:18:47Z</time>
      </trkpt>
      <trkpt lat="46.35599" lon="-0.38069">
        <ele>77.1</ele>
        <time>2020-05-31T09:18:48Z</time>
      </trkpt>
      <trkpt lat="46.35599" lon="-0.38068">
        <ele>77.1</ele>
        <time>2020-05-31T09:18:49Z</time>
      </trkpt>
      <trkpt lat="46.35599" lon="-0.38068">
        <ele>77.1</ele>
        <time>2020-05-31T09:18:50Z</time>
      </trkpt>
      <trkpt lat="46.35599" lon="-0.38068">
        <ele>77.1</ele>
        <time>2020-05-31T09:18:51Z</time>
      </trkpt>
      <trkpt lat="46.35599" lon="-0.38068">
        <ele>77.1</ele>
        <time>2020-05-31T09:18:52Z</time>
      </trkpt>
      <trkpt lat="46.35599" lon="-0.38068">
        <ele>77.1</ele>
        <time>2020-05-31T09:18:53Z</time>
      </trkpt>
      <trkpt lat="46.35599" lon="-0.38068">
        <ele>77.1</ele>
        <time>2020-05-31T09:18:54Z</time>
      </trkpt>
      <trkpt lat="46.35599" lon="-0.38068">
        <ele>77.1</ele>
        <time>2020-05-31T09:18:55Z</time>
      </trkpt>
      <trkpt lat="46.35599" lon="-0.38069">
        <ele>77.1</ele>
        <time>2020-05-31T09:18:56Z</time>
      </trkpt>
      <trkpt lat="46.35599" lon="-0.38069">
        <ele>77.1</ele>
        <time>2020-05-31T09:18:57Z</time>
      </trkpt>
      <trkpt lat="46.35599" lon="-0.38069">
        <ele>77.1</ele>
        <time>2020-05-31T09:18:58Z</time>
      </trkpt>
      <trkpt lat="46.35599" lon="-0.38069">
        <ele>77.1</ele>
        <time>2020-05-31T09:18:59Z</time>
      </trkpt>
      <trkpt lat="46.35599" lon="-0.38069">
        <ele>77.1</ele>
        <time>2020-05-31T09:19:00Z</time>
      </trkpt>
      <trkpt lat="46.35599" lon="-0.38069">
        <ele>77.1</ele>
        <time>2020-05-31T09:19:01Z</time>
      </trkpt>
      <trkpt lat="46.35599" lon="-0.38069">
        <ele>77.1</ele>
        <time>2020-05-31T09:19:02Z</time>
      </trkpt>
      <trkpt lat="46.35599" lon="-0.38069">
        <ele>77.1</ele>
        <time>2020-05-31T09:19:03Z</time>
      </trkpt>
      <trkpt lat="46.35599" lon="-0.38069">
        <ele>77.1</ele>
        <time>2020-05-31T09:19:04Z</time>
      </trkpt>
      <trkpt lat="46.35599" lon="-0.38069">
        <ele>77.1</ele>
        <time>2020-05-31T09:19:05Z</time>
      </trkpt>
      <trkpt lat="46.35598" lon="-0.38069">
        <ele>77.1</ele>
        <time>2020-05-31T09:19:06Z</time>
      </trkpt>
      <trkpt lat="46.35598" lon="-0.38069">
        <ele>77.1</ele>
        <time>2020-05-31T09:19:07Z</time>
      </trkpt>
      <trkpt lat="46.35597" lon="-0.3807">
        <ele>77.1</ele>
        <time>2020-05-31T09:19:08Z</time>
      </trkpt>
      <trkpt lat="46.35597" lon="-0.38071">
        <ele>77.1</ele>
        <time>2020-05-31T09:19:09Z</time>
      </trkpt>
      <trkpt lat="46.35597" lon="-0.38071">
        <ele>77.1</ele>
        <time>2020-05-31T09:19:10Z</time>
      </trkpt>
      <trkpt lat="46.35597" lon="-0.38071">
        <ele>77.1</ele>
        <time>2020-05-31T09:19:11Z</time>
      </trkpt>
      <trkpt lat="46.35597" lon="-0.38071">
        <ele>77.1</ele>
        <time>2020-05-31T09:19:12Z</time>
      </trkpt>
      <trkpt lat="46.35597" lon="-0.38071">
        <ele>77.1</ele>
        <time>2020-05-31T09:19:13Z</time>
      </trkpt>
      <trkpt lat="46.35597" lon="-0.3807">
        <ele>77.1</ele>
        <time>2020-05-31T09:19:14Z</time>
      </trkpt>
      <trkpt lat="46.35597" lon="-0.3807">
        <ele>77.1</ele>
        <time>2020-05-31T09:19:15Z</time>
      </trkpt>
      <trkpt lat="46.35597" lon="-0.3807">
        <ele>77.1</ele>
        <time>2020-05-31T09:19:16Z</time>
      </trkpt>
      <trkpt lat="46.35598" lon="-0.3807">
        <ele>77.1</ele>
        <time>2020-05-31T09:19:17Z</time>
      </trkpt>
      <trkpt lat="46.35598" lon="-0.3807">
        <ele>77.1</ele>
        <time>2020-05-31T09:19:18Z</time>
      </trkpt>
      <trkpt lat="46.35598" lon="-0.3807">
        <ele>77.1</ele>
        <time>2020-05-31T09:19:19Z</time>
      </trkpt>
      <trkpt lat="46.35598" lon="-0.38069">
        <ele>77.1</ele>
        <time>2020-05-31T09:19:20Z</time>
      </trkpt>
      <trkpt lat="46.35598" lon="-0.38069">
        <ele>77.1</ele>
        <time>2020-05-31T09:19:21Z</time>
      </trkpt>
      <trkpt lat="46.35598" lon="-0.38069">
        <ele>77.1</ele>
        <time>2020-05-31T09:19:22Z</time>
      </trkpt>
      <trkpt lat="46.35598" lon="-0.38069">
        <ele>77.1</ele>
        <time>2020-05-31T09:19:23Z</time>
      </trkpt>
      <trkpt lat="46.35599" lon="-0.38069">
        <ele>77.1</ele>
        <time>2020-05-31T09:19:24Z</time>
      </trkpt>
      <trkpt lat="46.35599" lon="-0.38069">
        <ele>77.1</ele>
        <time>2020-05-31T09:19:25Z</time>
      </trkpt>
      <trkpt lat="46.35599" lon="-0.38068">
        <ele>77.1</ele>
        <time>2020-05-31T09:19:26Z</time>
      </trkpt>
      <trkpt lat="46.35599" lon="-0.38068">
        <ele>77.1</ele>
        <time>2020-05-31T09:19:27Z</time>
      </trkpt>
      <trkpt lat="46.35599" lon="-0.38068">
        <ele>77</ele>
        <time>2020-05-31T09:19:28Z</time>
      </trkpt>
      <trkpt lat="46.35599" lon="-0.38068">
        <ele>77</ele>
        <time>2020-05-31T09:19:29Z</time>
      </trkpt>
      <trkpt lat="46.35599" lon="-0.38068">
        <ele>77</ele>
        <time>2020-05-31T09:19:30Z</time>
      </trkpt>
      <trkpt lat="46.356" lon="-0.38068">
        <ele>77</ele>
        <time>2020-05-31T09:19:31Z</time>
      </trkpt>
      <trkpt lat="46.356" lon="-0.38067">
        <ele>77</ele>
        <time>2020-05-31T09:19:32Z</time>
      </trkpt>
      <trkpt lat="46.356" lon="-0.38067">
        <ele>77</ele>
        <time>2020-05-31T09:19:33Z</time>
      </trkpt>
      <trkpt lat="46.356" lon="-0.38067">
        <ele>77</ele>
        <time>2020-05-31T09:19:34Z</time>
      </trkpt>
      <trkpt lat="46.356" lon="-0.38069">
        <ele>77</ele>
        <time>2020-05-31T09:19:35Z</time>
      </trkpt>
      <trkpt lat="46.35601" lon="-0.38069">
        <ele>77</ele>
        <time>2020-05-31T09:19:36Z</time>
      </trkpt>
      <trkpt lat="46.35601" lon="-0.38069">
        <ele>77</ele>
        <time>2020-05-31T09:19:37Z</time>
      </trkpt>
      <trkpt lat="46.35601" lon="-0.38069">
        <ele>77</ele>
        <time>2020-05-31T09:19:38Z</time>
      </trkpt>
      <trkpt lat="46.35601" lon="-0.38069">
        <ele>77</ele>
        <time>2020-05-31T09:19:39Z</time>
      </trkpt>
      <trkpt lat="46.356" lon="-0.38069">
        <ele>77</ele>
        <time>2020-05-31T09:19:40Z</time>
      </trkpt>
      <trkpt lat="46.35601" lon="-0.38068">
        <ele>77</ele>
        <time>2020-05-31T09:19:41Z</time>
      </trkpt>
      <trkpt lat="46.356" lon="-0.38068">
        <ele>77</ele>
        <time>2020-05-31T09:19:42Z</time>
      </trkpt>
      <trkpt lat="46.356" lon="-0.38068">
        <ele>77</ele>
        <time>2020-05-31T09:19:43Z</time>
      </trkpt>
      <trkpt lat="46.356" lon="-0.38068">
        <ele>77</ele>
        <time>2020-05-31T09:19:44Z</time>
      </trkpt>
      <trkpt lat="46.356" lon="-0.38068">
        <ele>77</ele>
        <time>2020-05-31T09:19:45Z</time>
      </trkpt>
      <trkpt lat="46.356" lon="-0.38069">
        <ele>77</ele>
        <time>2020-05-31T09:19:46Z</time>
      </trkpt>
      <trkpt lat="46.356" lon="-0.38069">
        <ele>77</ele>
        <time>2020-05-31T09:19:47Z</time>
      </trkpt>
      <trkpt lat="46.356" lon="-0.3807">
        <ele>77</ele>
        <time>2020-05-31T09:19:48Z</time>
      </trkpt>
      <trkpt lat="46.356" lon="-0.3807">
        <ele>77</ele>
        <time>2020-05-31T09:19:49Z</time>
      </trkpt>
      <trkpt lat="46.356" lon="-0.3807">
        <ele>77</ele>
        <time>2020-05-31T09:19:50Z</time>
      </trkpt>
      <trkpt lat="46.356" lon="-0.3807">
        <ele>77</ele>
        <time>2020-05-31T09:19:51Z</time>
      </trkpt>
      <trkpt lat="46.356" lon="-0.3807">
        <ele>77</ele>
        <time>2020-05-31T09:19:52Z</time>
      </trkpt>
      <trkpt lat="46.35599" lon="-0.38071">
        <ele>76.9</ele>
        <time>2020-05-31T09:19:53Z</time>
      </trkpt>
      <trkpt lat="46.35599" lon="-0.3807">
        <ele>76.9</ele>
        <time>2020-05-31T09:19:54Z</time>
      </trkpt>
      <trkpt lat="46.356" lon="-0.3807">
        <ele>76.9</ele>
        <time>2020-05-31T09:19:55Z</time>
      </trkpt>
      <trkpt lat="46.356" lon="-0.3807">
        <ele>76.9</ele>
        <time>2020-05-31T09:19:56Z</time>
      </trkpt>
      <trkpt lat="46.356" lon="-0.3807">
        <ele>76.9</ele>
        <time>2020-05-31T09:19:57Z</time>
      </trkpt>
      <trkpt lat="46.356" lon="-0.3807">
        <ele>76.9</ele>
        <time>2020-05-31T09:19:58Z</time>
      </trkpt>
      <trkpt lat="46.35599" lon="-0.3807">
        <ele>76.9</ele>
        <time>2020-05-31T09:19:59Z</time>
      </trkpt>
      <trkpt lat="46.356" lon="-0.3807">
        <ele>76.9</ele>
        <time>2020-05-31T09:20:00Z</time>
      </trkpt>
      <trkpt lat="46.356" lon="-0.38071">
        <ele>76.9</ele>
        <time>2020-05-31T09:20:01Z</time>
      </trkpt>
      <trkpt lat="46.356" lon="-0.38071">
        <ele>76.9</ele>
        <time>2020-05-31T09:20:02Z</time>
      </trkpt>
      <trkpt lat="46.356" lon="-0.38071">
        <ele>76.9</ele>
        <time>2020-05-31T09:20:03Z</time>
      </trkpt>
      <trkpt lat="46.356" lon="-0.3807">
        <ele>76.9</ele>
        <time>2020-05-31T09:20:04Z</time>
      </trkpt>
      <trkpt lat="46.356" lon="-0.3807">
        <ele>76.9</ele>
        <time>2020-05-31T09:20:05Z</time>
      </trkpt>
      <trkpt lat="46.356" lon="-0.3807">
        <ele>76.9</ele>
        <time>2020-05-31T09:20:06Z</time>
      </trkpt>
      <trkpt lat="46.356" lon="-0.3807">
        <ele>76.9</ele>
        <time>2020-05-31T09:20:07Z</time>
      </trkpt>
      <trkpt lat="46.356" lon="-0.3807">
        <ele>76.9</ele>
        <time>2020-05-31T09:20:08Z</time>
      </trkpt>
      <trkpt lat="46.356" lon="-0.3807">
        <ele>76.9</ele>
        <time>2020-05-31T09:20:09Z</time>
      </trkpt>
      <trkpt lat="46.356" lon="-0.3807">
        <ele>76.9</ele>
        <time>2020-05-31T09:20:10Z</time>
      </trkpt>
      <trkpt lat="46.356" lon="-0.3807">
        <ele>76.9</ele>
        <time>2020-05-31T09:20:11Z</time>
      </trkpt>
      <trkpt lat="46.356" lon="-0.3807">
        <ele>76.9</ele>
        <time>2020-05-31T09:20:12Z</time>
      </trkpt>
      <trkpt lat="46.356" lon="-0.3807">
        <ele>76.9</ele>
        <time>2020-05-31T09:20:13Z</time>
      </trkpt>
      <trkpt lat="46.356" lon="-0.3807">
        <ele>76.9</ele>
        <time>2020-05-31T09:20:14Z</time>
      </trkpt>
      <trkpt lat="46.356" lon="-0.3807">
        <ele>76.9</ele>
        <time>2020-05-31T09:20:15Z</time>
      </trkpt>
      <trkpt lat="46.356" lon="-0.3807">
        <ele>76.9</ele>
        <time>2020-05-31T09:20:16Z</time>
      </trkpt>
      <trkpt lat="46.356" lon="-0.3807">
        <ele>76.9</ele>
        <time>2020-05-31T09:20:17Z</time>
      </trkpt>
      <trkpt lat="46.356" lon="-0.3807">
        <ele>76.9</ele>
        <time>2020-05-31T09:20:18Z</time>
      </trkpt>
      <trkpt lat="46.356" lon="-0.3807">
        <ele>76.9</ele>
        <time>2020-05-31T09:20:19Z</time>
      </trkpt>
      <trkpt lat="46.356" lon="-0.3807">
        <ele>76.9</ele>
        <time>2020-05-31T09:20:20Z</time>
      </trkpt>
      <trkpt lat="46.356" lon="-0.3807">
        <ele>76.9</ele>
        <time>2020-05-31T09:20:21Z</time>
      </trkpt>
      <trkpt lat="46.356" lon="-0.3807">
        <ele>76.9</ele>
        <time>2020-05-31T09:20:22Z</time>
      </trkpt>
      <trkpt lat="46.356" lon="-0.3807">
        <ele>76.9</ele>
        <time>2020-05-31T09:20:23Z</time>
      </trkpt>
      <trkpt lat="46.356" lon="-0.3807">
        <ele>76.9</ele>
        <time>2020-05-31T09:20:24Z</time>
      </trkpt>
      <trkpt lat="46.356" lon="-0.3807">
        <ele>76.9</ele>
        <time>2020-05-31T09:20:25Z</time>
      </trkpt>
      <trkpt lat="46.356" lon="-0.38069">
        <ele>76.9</ele>
        <time>2020-05-31T09:20:26Z</time>
      </trkpt>
      <trkpt lat="46.356" lon="-0.38069">
        <ele>76.9</ele>
        <time>2020-05-31T09:20:27Z</time>
      </trkpt>
      <trkpt lat="46.356" lon="-0.38069">
        <ele>76.9</ele>
        <time>2020-05-31T09:20:28Z</time>
      </trkpt>
      <trkpt lat="46.356" lon="-0.38068">
        <ele>76.9</ele>
        <time>2020-05-31T09:20:29Z</time>
      </trkpt>
      <trkpt lat="46.356" lon="-0.38068">
        <ele>76.9</ele>
        <time>2020-05-31T09:20:30Z</time>
      </trkpt>
      <trkpt lat="46.35601" lon="-0.38066">
        <ele>76.9</ele>
        <time>2020-05-31T09:20:31Z</time>
      </trkpt>
      <trkpt lat="46.35601" lon="-0.38066">
        <ele>76.9</ele>
        <time>2020-05-31T09:20:32Z</time>
      </trkpt>
      <trkpt lat="46.356" lon="-0.38066">
        <ele>76.9</ele>
        <time>2020-05-31T09:20:33Z</time>
      </trkpt>
      <trkpt lat="46.356" lon="-0.38066">
        <ele>76.9</ele>
        <time>2020-05-31T09:20:34Z</time>
      </trkpt>
      <trkpt lat="46.356" lon="-0.38066">
        <ele>76.9</ele>
        <time>2020-05-31T09:20:35Z</time>
      </trkpt>
      <trkpt lat="46.356" lon="-0.38066">
        <ele>76.9</ele>
        <time>2020-05-31T09:20:36Z</time>
      </trkpt>
      <trkpt lat="46.356" lon="-0.38065">
        <ele>76.9</ele>
        <time>2020-05-31T09:20:37Z</time>
      </trkpt>
      <trkpt lat="46.356" lon="-0.38066">
        <ele>76.9</ele>
        <time>2020-05-31T09:20:38Z</time>
      </trkpt>
      <trkpt lat="46.356" lon="-0.38066">
        <ele>76.9</ele>
        <time>2020-05-31T09:20:39Z</time>
      </trkpt>
      <trkpt lat="46.356" lon="-0.38066">
        <ele>76.9</ele>
        <time>2020-05-31T09:20:40Z</time>
      </trkpt>
      <trkpt lat="46.356" lon="-0.38066">
        <ele>76.9</ele>
        <time>2020-05-31T09:20:41Z</time>
      </trkpt>
      <trkpt lat="46.356" lon="-0.38066">
        <ele>76.9</ele>
        <time>2020-05-31T09:20:42Z</time>
      </trkpt>
      <trkpt lat="46.35601" lon="-0.38065">
        <ele>76.8</ele>
        <time>2020-05-31T09:20:43Z</time>
      </trkpt>
      <trkpt lat="46.35601" lon="-0.38065">
        <ele>76.8</ele>
        <time>2020-05-31T09:20:44Z</time>
      </trkpt>
      <trkpt lat="46.35601" lon="-0.38065">
        <ele>76.8</ele>
        <time>2020-05-31T09:20:45Z</time>
      </trkpt>
      <trkpt lat="46.35601" lon="-0.38065">
        <ele>76.8</ele>
        <time>2020-05-31T09:20:46Z</time>
      </trkpt>
      <trkpt lat="46.35601" lon="-0.38065">
        <ele>76.8</ele>
        <time>2020-05-31T09:20:47Z</time>
      </trkpt>
      <trkpt lat="46.35601" lon="-0.38065">
        <ele>76.8</ele>
        <time>2020-05-31T09:20:48Z</time>
      </trkpt>
      <trkpt lat="46.35601" lon="-0.38065">
        <ele>76.8</ele>
        <time>2020-05-31T09:20:49Z</time>
      </trkpt>
      <trkpt lat="46.35601" lon="-0.38065">
        <ele>76.8</ele>
        <time>2020-05-31T09:20:50Z</time>
      </trkpt>
      <trkpt lat="46.35601" lon="-0.38065">
        <ele>76.8</ele>
        <time>2020-05-31T09:20:51Z</time>
      </trkpt>
      <trkpt lat="46.356" lon="-0.38065">
        <ele>76.8</ele>
        <time>2020-05-31T09:20:52Z</time>
      </trkpt>
      <trkpt lat="46.356" lon="-0.38065">
        <ele>76.8</ele>
        <time>2020-05-31T09:20:53Z</time>
      </trkpt>
      <trkpt lat="46.35601" lon="-0.38065">
        <ele>76.8</ele>
        <time>2020-05-31T09:20:54Z</time>
      </trkpt>
      <trkpt lat="46.356" lon="-0.38065">
        <ele>76.8</ele>
        <time>2020-05-31T09:20:55Z</time>
      </trkpt>
      <trkpt lat="46.356" lon="-0.38065">
        <ele>76.8</ele>
        <time>2020-05-31T09:20:56Z</time>
      </trkpt>
      <trkpt lat="46.35601" lon="-0.38065">
        <ele>76.8</ele>
        <time>2020-05-31T09:20:57Z</time>
      </trkpt>
      <trkpt lat="46.35601" lon="-0.38066">
        <ele>76.8</ele>
        <time>2020-05-31T09:20:58Z</time>
      </trkpt>
      <trkpt lat="46.35601" lon="-0.38065">
        <ele>76.8</ele>
        <time>2020-05-31T09:20:59Z</time>
      </trkpt>
      <trkpt lat="46.35601" lon="-0.38065">
        <ele>76.8</ele>
        <time>2020-05-31T09:21:00Z</time>
      </trkpt>
      <trkpt lat="46.35601" lon="-0.38065">
        <ele>76.8</ele>
        <time>2020-05-31T09:21:01Z</time>
      </trkpt>
      <trkpt lat="46.35601" lon="-0.38065">
        <ele>76.8</ele>
        <time>2020-05-31T09:21:02Z</time>
      </trkpt>
      <trkpt lat="46.35601" lon="-0.38065">
        <ele>76.8</ele>
        <time>2020-05-31T09:21:03Z</time>
      </trkpt>
      <trkpt lat="46.35601" lon="-0.38065">
        <ele>76.8</ele>
        <time>2020-05-31T09:21:04Z</time>
      </trkpt>
      <trkpt lat="46.35601" lon="-0.38065">
        <ele>76.8</ele>
        <time>2020-05-31T09:21:05Z</time>
      </trkpt>
      <trkpt lat="46.35601" lon="-0.38065">
        <ele>76.8</ele>
        <time>2020-05-31T09:21:06Z</time>
      </trkpt>
      <trkpt lat="46.35601" lon="-0.38065">
        <ele>76.8</ele>
        <time>2020-05-31T09:21:07Z</time>
      </trkpt>
      <trkpt lat="46.35601" lon="-0.38065">
        <ele>76.8</ele>
        <time>2020-05-31T09:21:08Z</time>
      </trkpt>
      <trkpt lat="46.35601" lon="-0.38065">
        <ele>76.8</ele>
        <time>2020-05-31T09:21:09Z</time>
      </trkpt>
      <trkpt lat="46.35601" lon="-0.38065">
        <ele>76.8</ele>
        <time>2020-05-31T09:21:10Z</time>
      </trkpt>
      <trkpt lat="46.35601" lon="-0.38064">
        <ele>76.8</ele>
        <time>2020-05-31T09:21:11Z</time>
      </trkpt>
      <trkpt lat="46.35602" lon="-0.38065">
        <ele>76.8</ele>
        <time>2020-05-31T09:21:12Z</time>
      </trkpt>
      <trkpt lat="46.35602" lon="-0.38065">
        <ele>76.8</ele>
        <time>2020-05-31T09:21:13Z</time>
      </trkpt>
      <trkpt lat="46.35602" lon="-0.38065">
        <ele>76.8</ele>
        <time>2020-05-31T09:21:14Z</time>
      </trkpt>
      <trkpt lat="46.35602" lon="-0.38065">
        <ele>76.8</ele>
        <time>2020-05-31T09:21:15Z</time>
      </trkpt>
      <trkpt lat="46.35602" lon="-0.38065">
        <ele>76.8</ele>
        <time>2020-05-31T09:21:16Z</time>
      </trkpt>
      <trkpt lat="46.35602" lon="-0.38065">
        <ele>76.8</ele>
        <time>2020-05-31T09:21:17Z</time>
      </trkpt>
      <trkpt lat="46.35602" lon="-0.38065">
        <ele>76.8</ele>
        <time>2020-05-31T09:21:18Z</time>
      </trkpt>
      <trkpt lat="46.35602" lon="-0.38065">
        <ele>76.8</ele>
        <time>2020-05-31T09:21:19Z</time>
      </trkpt>
      <trkpt lat="46.35602" lon="-0.38065">
        <ele>76.8</ele>
        <time>2020-05-31T09:21:20Z</time>
      </trkpt>
      <trkpt lat="46.35602" lon="-0.38065">
        <ele>76.8</ele>
        <time>2020-05-31T09:21:21Z</time>
      </trkpt>
      <trkpt lat="46.35602" lon="-0.38065">
        <ele>76.8</ele>
        <time>2020-05-31T09:21:22Z</time>
      </trkpt>
      <trkpt lat="46.35602" lon="-0.38065">
        <ele>76.8</ele>
        <time>2020-05-31T09:21:23Z</time>
      </trkpt>
      <trkpt lat="46.35602" lon="-0.38065">
        <ele>76.8</ele>
        <time>2020-05-31T09:21:24Z</time>
      </trkpt>
      <trkpt lat="46.35601" lon="-0.38065">
        <ele>76.8</ele>
        <time>2020-05-31T09:21:25Z</time>
      </trkpt>
      <trkpt lat="46.35601" lon="-0.38066">
        <ele>76.8</ele>
        <time>2020-05-31T09:21:26Z</time>
      </trkpt>
      <trkpt lat="46.356" lon="-0.38066">
        <ele>76.8</ele>
        <time>2020-05-31T09:21:27Z</time>
      </trkpt>
      <trkpt lat="46.356" lon="-0.38066">
        <ele>76.8</ele>
        <time>2020-05-31T09:21:28Z</time>
      </trkpt>
      <trkpt lat="46.356" lon="-0.38066">
        <ele>76.8</ele>
        <time>2020-05-31T09:21:29Z</time>
      </trkpt>
      <trkpt lat="46.356" lon="-0.38066">
        <ele>76.7</ele>
        <time>2020-05-31T09:21:30Z</time>
      </trkpt>
      <trkpt lat="46.356" lon="-0.38066">
        <ele>76.7</ele>
        <time>2020-05-31T09:21:31Z</time>
      </trkpt>
      <trkpt lat="46.356" lon="-0.38066">
        <ele>76.7</ele>
        <time>2020-05-31T09:21:32Z</time>
      </trkpt>
      <trkpt lat="46.35599" lon="-0.38066">
        <ele>76.7</ele>
        <time>2020-05-31T09:21:33Z</time>
      </trkpt>
      <trkpt lat="46.35599" lon="-0.38066">
        <ele>76.7</ele>
        <time>2020-05-31T09:21:34Z</time>
      </trkpt>
      <trkpt lat="46.356" lon="-0.38066">
        <ele>76.7</ele>
        <time>2020-05-31T09:21:35Z</time>
      </trkpt>
      <trkpt lat="46.356" lon="-0.38067">
        <ele>76.7</ele>
        <time>2020-05-31T09:21:36Z</time>
      </trkpt>
      <trkpt lat="46.35599" lon="-0.38067">
        <ele>76.7</ele>
        <time>2020-05-31T09:21:37Z</time>
      </trkpt>
      <trkpt lat="46.35599" lon="-0.38067">
        <ele>76.7</ele>
        <time>2020-05-31T09:21:38Z</time>
      </trkpt>
      <trkpt lat="46.35598" lon="-0.38067">
        <ele>76.7</ele>
        <time>2020-05-31T09:21:39Z</time>
      </trkpt>
      <trkpt lat="46.35598" lon="-0.38067">
        <ele>76.7</ele>
        <time>2020-05-31T09:21:40Z</time>
      </trkpt>
      <trkpt lat="46.35598" lon="-0.38067">
        <ele>76.7</ele>
        <time>2020-05-31T09:21:41Z</time>
      </trkpt>
      <trkpt lat="46.35598" lon="-0.38067">
        <ele>76.7</ele>
        <time>2020-05-31T09:21:42Z</time>
      </trkpt>
      <trkpt lat="46.35598" lon="-0.38067">
        <ele>76.7</ele>
        <time>2020-05-31T09:21:43Z</time>
      </trkpt>
      <trkpt lat="46.35598" lon="-0.38066">
        <ele>76.7</ele>
        <time>2020-05-31T09:21:44Z</time>
      </trkpt>
      <trkpt lat="46.35598" lon="-0.38066">
        <ele>76.7</ele>
        <time>2020-05-31T09:21:45Z</time>
      </trkpt>
      <trkpt lat="46.35598" lon="-0.38066">
        <ele>76.7</ele>
        <time>2020-05-31T09:21:46Z</time>
      </trkpt>
      <trkpt lat="46.35598" lon="-0.38066">
        <ele>76.7</ele>
        <time>2020-05-31T09:21:47Z</time>
      </trkpt>
      <trkpt lat="46.35598" lon="-0.38066">
        <ele>76.7</ele>
        <time>2020-05-31T09:21:48Z</time>
      </trkpt>
      <trkpt lat="46.35598" lon="-0.38066">
        <ele>76.7</ele>
        <time>2020-05-31T09:21:49Z</time>
      </trkpt>
      <trkpt lat="46.35598" lon="-0.38066">
        <ele>76.7</ele>
        <time>2020-05-31T09:21:50Z</time>
      </trkpt>
      <trkpt lat="46.35598" lon="-0.38066">
        <ele>76.7</ele>
        <time>2020-05-31T09:21:51Z</time>
      </trkpt>
      <trkpt lat="46.35598" lon="-0.38066">
        <ele>76.7</ele>
        <time>2020-05-31T09:21:52Z</time>
      </trkpt>
      <trkpt lat="46.35598" lon="-0.38066">
        <ele>76.7</ele>
        <time>2020-05-31T09:21:53Z</time>
      </trkpt>
      <trkpt lat="46.35598" lon="-0.38067">
        <ele>76.7</ele>
        <time>2020-05-31T09:21:54Z</time>
      </trkpt>
      <trkpt lat="46.35598" lon="-0.38067">
        <ele>76.7</ele>
        <time>2020-05-31T09:21:55Z</time>
      </trkpt>
      <trkpt lat="46.35598" lon="-0.38067">
        <ele>76.7</ele>
        <time>2020-05-31T09:21:56Z</time>
      </trkpt>
      <trkpt lat="46.35598" lon="-0.38067">
        <ele>76.7</ele>
        <time>2020-05-31T09:21:57Z</time>
      </trkpt>
      <trkpt lat="46.35598" lon="-0.38068">
        <ele>76.7</ele>
        <time>2020-05-31T09:21:58Z</time>
      </trkpt>
      <trkpt lat="46.35598" lon="-0.38069">
        <ele>76.6</ele>
        <time>2020-05-31T09:21:59Z</time>
      </trkpt>
      <trkpt lat="46.35597" lon="-0.38069">
        <ele>76.6</ele>
        <time>2020-05-31T09:22:00Z</time>
      </trkpt>
      <trkpt lat="46.35598" lon="-0.38069">
        <ele>76.6</ele>
        <time>2020-05-31T09:22:01Z</time>
      </trkpt>
      <trkpt lat="46.35598" lon="-0.38069">
        <ele>76.6</ele>
        <time>2020-05-31T09:22:02Z</time>
      </trkpt>
      <trkpt lat="46.35598" lon="-0.38069">
        <ele>76.6</ele>
        <time>2020-05-31T09:22:03Z</time>
      </trkpt>
      <trkpt lat="46.35598" lon="-0.38069">
        <ele>76.6</ele>
        <time>2020-05-31T09:22:04Z</time>
      </trkpt>
      <trkpt lat="46.35598" lon="-0.38069">
        <ele>76.6</ele>
        <time>2020-05-31T09:22:05Z</time>
      </trkpt>
      <trkpt lat="46.35598" lon="-0.38068">
        <ele>76.6</ele>
        <time>2020-05-31T09:22:06Z</time>
      </trkpt>
      <trkpt lat="46.35598" lon="-0.38068">
        <ele>76.6</ele>
        <time>2020-05-31T09:22:07Z</time>
      </trkpt>
      <trkpt lat="46.35598" lon="-0.38068">
        <ele>76.6</ele>
        <time>2020-05-31T09:22:08Z</time>
      </trkpt>
      <trkpt lat="46.35598" lon="-0.38068">
        <ele>76.6</ele>
        <time>2020-05-31T09:22:09Z</time>
      </trkpt>
      <trkpt lat="46.35598" lon="-0.38068">
        <ele>76.6</ele>
        <time>2020-05-31T09:22:10Z</time>
      </trkpt>
      <trkpt lat="46.35597" lon="-0.38069">
        <ele>76.6</ele>
        <time>2020-05-31T09:22:11Z</time>
      </trkpt>
      <trkpt lat="46.35597" lon="-0.38069">
        <ele>76.6</ele>
        <time>2020-05-31T09:22:12Z</time>
      </trkpt>
      <trkpt lat="46.35598" lon="-0.3807">
        <ele>76.6</ele>
        <time>2020-05-31T09:22:13Z</time>
      </trkpt>
      <trkpt lat="46.35598" lon="-0.3807">
        <ele>76.6</ele>
        <time>2020-05-31T09:22:14Z</time>
      </trkpt>
      <trkpt lat="46.35599" lon="-0.3807">
        <ele>76.6</ele>
        <time>2020-05-31T09:22:15Z</time>
      </trkpt>
      <trkpt lat="46.35599" lon="-0.3807">
        <ele>76.6</ele>
        <time>2020-05-31T09:22:16Z</time>
      </trkpt>
      <trkpt lat="46.35599" lon="-0.3807">
        <ele>76.6</ele>
        <time>2020-05-31T09:22:17Z</time>
      </trkpt>
      <trkpt lat="46.35599" lon="-0.3807">
        <ele>76.6</ele>
        <time>2020-05-31T09:22:18Z</time>
      </trkpt>
      <trkpt lat="46.35599" lon="-0.3807">
        <ele>76.6</ele>
        <time>2020-05-31T09:22:19Z</time>
      </trkpt>
      <trkpt lat="46.35599" lon="-0.38071">
        <ele>76.6</ele>
        <time>2020-05-31T09:22:20Z</time>
      </trkpt>
      <trkpt lat="46.356" lon="-0.38071">
        <ele>76.6</ele>
        <time>2020-05-31T09:22:21Z</time>
      </trkpt>
      <trkpt lat="46.356" lon="-0.38071">
        <ele>76.6</ele>
        <time>2020-05-31T09:22:22Z</time>
      </trkpt>
      <trkpt lat="46.35601" lon="-0.38071">
        <ele>76.6</ele>
        <time>2020-05-31T09:22:23Z</time>
      </trkpt>
      <trkpt lat="46.35601" lon="-0.38071">
        <ele>76.6</ele>
        <time>2020-05-31T09:22:24Z</time>
      </trkpt>
      <trkpt lat="46.35601" lon="-0.38071">
        <ele>76.6</ele>
        <time>2020-05-31T09:22:25Z</time>
      </trkpt>
      <trkpt lat="46.35601" lon="-0.38071">
        <ele>76.6</ele>
        <time>2020-05-31T09:22:26Z</time>
      </trkpt>
      <trkpt lat="46.35601" lon="-0.38071">
        <ele>76.6</ele>
        <time>2020-05-31T09:22:27Z</time>
      </trkpt>
      <trkpt lat="46.35601" lon="-0.38071">
        <ele>76.6</ele>
        <time>2020-05-31T09:22:28Z</time>
      </trkpt>
      <trkpt lat="46.35601" lon="-0.38071">
        <ele>76.6</ele>
        <time>2020-05-31T09:22:29Z</time>
      </trkpt>
      <trkpt lat="46.35601" lon="-0.38071">
        <ele>76.6</ele>
        <time>2020-05-31T09:22:30Z</time>
      </trkpt>
      <trkpt lat="46.35601" lon="-0.38071">
        <ele>76.6</ele>
        <time>2020-05-31T09:22:31Z</time>
      </trkpt>
      <trkpt lat="46.356" lon="-0.38071">
        <ele>76.5</ele>
        <time>2020-05-31T09:22:32Z</time>
      </trkpt>
      <trkpt lat="46.356" lon="-0.38071">
        <ele>76.5</ele>
        <time>2020-05-31T09:22:33Z</time>
      </trkpt>
      <trkpt lat="46.35599" lon="-0.38071">
        <ele>76.5</ele>
        <time>2020-05-31T09:22:34Z</time>
      </trkpt>
      <trkpt lat="46.35599" lon="-0.3807">
        <ele>76.5</ele>
        <time>2020-05-31T09:22:35Z</time>
      </trkpt>
      <trkpt lat="46.35599" lon="-0.38069">
        <ele>76.5</ele>
        <time>2020-05-31T09:22:36Z</time>
      </trkpt>
      <trkpt lat="46.35598" lon="-0.38069">
        <ele>76.5</ele>
        <time>2020-05-31T09:22:37Z</time>
      </trkpt>
      <trkpt lat="46.35598" lon="-0.38069">
        <ele>76.5</ele>
        <time>2020-05-31T09:22:38Z</time>
      </trkpt>
      <trkpt lat="46.35598" lon="-0.38069">
        <ele>76.5</ele>
        <time>2020-05-31T09:22:39Z</time>
      </trkpt>
      <trkpt lat="46.35598" lon="-0.38068">
        <ele>76.5</ele>
        <time>2020-05-31T09:22:40Z</time>
      </trkpt>
      <trkpt lat="46.35598" lon="-0.38067">
        <ele>76.5</ele>
        <time>2020-05-31T09:22:41Z</time>
      </trkpt>
      <trkpt lat="46.35598" lon="-0.38067">
        <ele>76.5</ele>
        <time>2020-05-31T09:22:42Z</time>
      </trkpt>
      <trkpt lat="46.35598" lon="-0.38067">
        <ele>76.5</ele>
        <time>2020-05-31T09:22:43Z</time>
      </trkpt>
      <trkpt lat="46.35598" lon="-0.38067">
        <ele>76.5</ele>
        <time>2020-05-31T09:22:44Z</time>
      </trkpt>
      <trkpt lat="46.35598" lon="-0.38067">
        <ele>76.5</ele>
        <time>2020-05-31T09:22:45Z</time>
      </trkpt>
      <trkpt lat="46.35598" lon="-0.38067">
        <ele>76.5</ele>
        <time>2020-05-31T09:22:46Z</time>
      </trkpt>
      <trkpt lat="46.35598" lon="-0.38067">
        <ele>76.5</ele>
        <time>2020-05-31T09:22:47Z</time>
      </trkpt>
      <trkpt lat="46.35598" lon="-0.38068">
        <ele>76.5</ele>
        <time>2020-05-31T09:22:48Z</time>
      </trkpt>
      <trkpt lat="46.35598" lon="-0.38068">
        <ele>76.5</ele>
        <time>2020-05-31T09:22:49Z</time>
      </trkpt>
      <trkpt lat="46.35598" lon="-0.38068">
        <ele>76.5</ele>
        <time>2020-05-31T09:22:50Z</time>
      </trkpt>
      <trkpt lat="46.35598" lon="-0.38068">
        <ele>76.5</ele>
        <time>2020-05-31T09:22:51Z</time>
      </trkpt>
      <trkpt lat="46.35598" lon="-0.38068">
        <ele>76.5</ele>
        <time>2020-05-31T09:22:52Z</time>
      </trkpt>
      <trkpt lat="46.35598" lon="-0.38068">
        <ele>76.5</ele>
        <time>2020-05-31T09:22:53Z</time>
      </trkpt>
      <trkpt lat="46.35598" lon="-0.38069">
        <ele>76.5</ele>
        <time>2020-05-31T09:22:54Z</time>
      </trkpt>
      <trkpt lat="46.35598" lon="-0.3807">
        <ele>76.4</ele>
        <time>2020-05-31T09:22:55Z</time>
      </trkpt>
      <trkpt lat="46.35598" lon="-0.3807">
        <ele>76.4</ele>
        <time>2020-05-31T09:22:56Z</time>
      </trkpt>
      <trkpt lat="46.35598" lon="-0.3807">
        <ele>76.4</ele>
        <time>2020-05-31T09:22:57Z</time>
      </trkpt>
      <trkpt lat="46.35599" lon="-0.3807">
        <ele>76.4</ele>
        <time>2020-05-31T09:22:58Z</time>
      </trkpt>
      <trkpt lat="46.35599" lon="-0.38069">
        <ele>76.4</ele>
        <time>2020-05-31T09:22:59Z</time>
      </trkpt>
      <trkpt lat="46.35599" lon="-0.38069">
        <ele>76.4</ele>
        <time>2020-05-31T09:23:00Z</time>
      </trkpt>
      <trkpt lat="46.35599" lon="-0.38069">
        <ele>76.4</ele>
        <time>2020-05-31T09:23:01Z</time>
      </trkpt>
      <trkpt lat="46.35599" lon="-0.3807">
        <ele>76.4</ele>
        <time>2020-05-31T09:23:02Z</time>
      </trkpt>
      <trkpt lat="46.35599" lon="-0.38069">
        <ele>76.4</ele>
        <time>2020-05-31T09:23:03Z</time>
      </trkpt>
      <trkpt lat="46.35599" lon="-0.38069">
        <ele>76.4</ele>
        <time>2020-05-31T09:23:04Z</time>
      </trkpt>
      <trkpt lat="46.35599" lon="-0.38069">
        <ele>76.4</ele>
        <time>2020-05-31T09:23:05Z</time>
      </trkpt>
      <trkpt lat="46.35599" lon="-0.38069">
        <ele>76.4</ele>
        <time>2020-05-31T09:23:06Z</time>
      </trkpt>
      <trkpt lat="46.35599" lon="-0.3807">
        <ele>76.4</ele>
        <time>2020-05-31T09:23:07Z</time>
      </trkpt>
      <trkpt lat="46.35599" lon="-0.3807">
        <ele>76.4</ele>
        <time>2020-05-31T09:23:08Z</time>
      </trkpt>
      <trkpt lat="46.356" lon="-0.3807">
        <ele>76.4</ele>
        <time>2020-05-31T09:23:09Z</time>
      </trkpt>
      <trkpt lat="46.356" lon="-0.38069">
        <ele>76.4</ele>
        <time>2020-05-31T09:23:10Z</time>
      </trkpt>
      <trkpt lat="46.356" lon="-0.38068">
        <ele>76.4</ele>
        <time>2020-05-31T09:23:11Z</time>
      </trkpt>
      <trkpt lat="46.356" lon="-0.38068">
        <ele>76.4</ele>
        <time>2020-05-31T09:23:12Z</time>
      </trkpt>
      <trkpt lat="46.356" lon="-0.38068">
        <ele>76.4</ele>
        <time>2020-05-31T09:23:13Z</time>
      </trkpt>
      <trkpt lat="46.356" lon="-0.38068">
        <ele>76.4</ele>
        <time>2020-05-31T09:23:14Z</time>
      </trkpt>
      <trkpt lat="46.356" lon="-0.38068">
        <ele>76.4</ele>
        <time>2020-05-31T09:23:15Z</time>
      </trkpt>
      <trkpt lat="46.356" lon="-0.38068">
        <ele>76.4</ele>
        <time>2020-05-31T09:23:16Z</time>
      </trkpt>
      <trkpt lat="46.35601" lon="-0.38067">
        <ele>76.4</ele>
        <time>2020-05-31T09:23:17Z</time>
      </trkpt>
      <trkpt lat="46.35601" lon="-0.38067">
        <ele>76.4</ele>
        <time>2020-05-31T09:23:18Z</time>
      </trkpt>
      <trkpt lat="46.35601" lon="-0.38067">
        <ele>76.4</ele>
        <time>2020-05-31T09:23:19Z</time>
      </trkpt>
      <trkpt lat="46.35601" lon="-0.38067">
        <ele>76.4</ele>
        <time>2020-05-31T09:23:20Z</time>
      </trkpt>
      <trkpt lat="46.35601" lon="-0.38067">
        <ele>76.4</ele>
        <time>2020-05-31T09:23:21Z</time>
      </trkpt>
      <trkpt lat="46.35601" lon="-0.38067">
        <ele>76.4</ele>
        <time>2020-05-31T09:23:22Z</time>
      </trkpt>
      <trkpt lat="46.356" lon="-0.38067">
        <ele>76.4</ele>
        <time>2020-05-31T09:23:23Z</time>
      </trkpt>
      <trkpt lat="46.35601" lon="-0.38067">
        <ele>76.4</ele>
        <time>2020-05-31T09:23:24Z</time>
      </trkpt>
      <trkpt lat="46.356" lon="-0.38067">
        <ele>76.3</ele>
        <time>2020-05-31T09:23:25Z</time>
      </trkpt>
      <trkpt lat="46.356" lon="-0.38067">
        <ele>76.3</ele>
        <time>2020-05-31T09:23:26Z</time>
      </trkpt>
      <trkpt lat="46.35601" lon="-0.38067">
        <ele>76.3</ele>
        <time>2020-05-31T09:23:27Z</time>
      </trkpt>
      <trkpt lat="46.356" lon="-0.38068">
        <ele>76.3</ele>
        <time>2020-05-31T09:23:28Z</time>
      </trkpt>
      <trkpt lat="46.356" lon="-0.38069">
        <ele>76.3</ele>
        <time>2020-05-31T09:23:29Z</time>
      </trkpt>
      <trkpt lat="46.356" lon="-0.38069">
        <ele>76.3</ele>
        <time>2020-05-31T09:23:30Z</time>
      </trkpt>
      <trkpt lat="46.356" lon="-0.38069">
        <ele>76.3</ele>
        <time>2020-05-31T09:23:31Z</time>
      </trkpt>
      <trkpt lat="46.356" lon="-0.38069">
        <ele>76.3</ele>
        <time>2020-05-31T09:23:32Z</time>
      </trkpt>
      <trkpt lat="46.356" lon="-0.38069">
        <ele>76.3</ele>
        <time>2020-05-31T09:23:33Z</time>
      </trkpt>
      <trkpt lat="46.356" lon="-0.38069">
        <ele>76.3</ele>
        <time>2020-05-31T09:23:34Z</time>
      </trkpt>
      <trkpt lat="46.356" lon="-0.38069">
        <ele>76.3</ele>
        <time>2020-05-31T09:23:35Z</time>
      </trkpt>
      <trkpt lat="46.356" lon="-0.38069">
        <ele>76.3</ele>
        <time>2020-05-31T09:23:36Z</time>
      </trkpt>
      <trkpt lat="46.356" lon="-0.38069">
        <ele>76.3</ele>
        <time>2020-05-31T09:23:37Z</time>
      </trkpt>
      <trkpt lat="46.356" lon="-0.38068">
        <ele>76.3</ele>
        <time>2020-05-31T09:23:38Z</time>
      </trkpt>
      <trkpt lat="46.35601" lon="-0.38069">
        <ele>76.3</ele>
        <time>2020-05-31T09:23:39Z</time>
      </trkpt>
      <trkpt lat="46.35601" lon="-0.3807">
        <ele>76.3</ele>
        <time>2020-05-31T09:23:40Z</time>
      </trkpt>
      <trkpt lat="46.356" lon="-0.3807">
        <ele>76.3</ele>
        <time>2020-05-31T09:23:41Z</time>
      </trkpt>
      <trkpt lat="46.356" lon="-0.3807">
        <ele>76.3</ele>
        <time>2020-05-31T09:23:42Z</time>
      </trkpt>
      <trkpt lat="46.35601" lon="-0.3807">
        <ele>76.3</ele>
        <time>2020-05-31T09:23:43Z</time>
      </trkpt>
      <trkpt lat="46.35601" lon="-0.3807">
        <ele>76.3</ele>
        <time>2020-05-31T09:23:44Z</time>
      </trkpt>
      <trkpt lat="46.35601" lon="-0.3807">
        <ele>76.3</ele>
        <time>2020-05-31T09:23:45Z</time>
      </trkpt>
      <trkpt lat="46.35601" lon="-0.3807">
        <ele>76.3</ele>
        <time>2020-05-31T09:23:46Z</time>
      </trkpt>
      <trkpt lat="46.35601" lon="-0.38071">
        <ele>76.3</ele>
        <time>2020-05-31T09:23:47Z</time>
      </trkpt>
      <trkpt lat="46.35601" lon="-0.3807">
        <ele>76.3</ele>
        <time>2020-05-31T09:23:48Z</time>
      </trkpt>
      <trkpt lat="46.35601" lon="-0.38069">
        <ele>76.2</ele>
        <time>2020-05-31T09:23:49Z</time>
      </trkpt>
      <trkpt lat="46.35601" lon="-0.38069">
        <ele>76.2</ele>
        <time>2020-05-31T09:23:50Z</time>
      </trkpt>
      <trkpt lat="46.35602" lon="-0.38068">
        <ele>76.2</ele>
        <time>2020-05-31T09:23:51Z</time>
      </trkpt>
      <trkpt lat="46.35602" lon="-0.38068">
        <ele>76.2</ele>
        <time>2020-05-31T09:23:52Z</time>
      </trkpt>
      <trkpt lat="46.35602" lon="-0.38068">
        <ele>76.2</ele>
        <time>2020-05-31T09:23:53Z</time>
      </trkpt>
      <trkpt lat="46.35602" lon="-0.38068">
        <ele>76.2</ele>
        <time>2020-05-31T09:23:54Z</time>
      </trkpt>
      <trkpt lat="46.35602" lon="-0.38068">
        <ele>76.2</ele>
        <time>2020-05-31T09:23:55Z</time>
      </trkpt>
      <trkpt lat="46.35602" lon="-0.38068">
        <ele>76.2</ele>
        <time>2020-05-31T09:23:56Z</time>
      </trkpt>
      <trkpt lat="46.35602" lon="-0.38068">
        <ele>76.2</ele>
        <time>2020-05-31T09:23:57Z</time>
      </trkpt>
      <trkpt lat="46.35602" lon="-0.38067">
        <ele>76.2</ele>
        <time>2020-05-31T09:23:58Z</time>
      </trkpt>
      <trkpt lat="46.35602" lon="-0.38067">
        <ele>76.2</ele>
        <time>2020-05-31T09:23:59Z</time>
      </trkpt>
      <trkpt lat="46.35602" lon="-0.38067">
        <ele>76.2</ele>
        <time>2020-05-31T09:24:00Z</time>
      </trkpt>
      <trkpt lat="46.35602" lon="-0.38067">
        <ele>76.2</ele>
        <time>2020-05-31T09:24:01Z</time>
      </trkpt>
      <trkpt lat="46.35602" lon="-0.38067">
        <ele>76.2</ele>
        <time>2020-05-31T09:24:02Z</time>
      </trkpt>
      <trkpt lat="46.35602" lon="-0.38067">
        <ele>76.2</ele>
        <time>2020-05-31T09:24:03Z</time>
      </trkpt>
      <trkpt lat="46.35602" lon="-0.38067">
        <ele>76.2</ele>
        <time>2020-05-31T09:24:04Z</time>
      </trkpt>
      <trkpt lat="46.35602" lon="-0.38067">
        <ele>76.2</ele>
        <time>2020-05-31T09:24:05Z</time>
      </trkpt>
      <trkpt lat="46.35602" lon="-0.38067">
        <ele>76.2</ele>
        <time>2020-05-31T09:24:06Z</time>
      </trkpt>
      <trkpt lat="46.35602" lon="-0.38067">
        <ele>76.2</ele>
        <time>2020-05-31T09:24:07Z</time>
      </trkpt>
      <trkpt lat="46.35602" lon="-0.38067">
        <ele>76.2</ele>
        <time>2020-05-31T09:24:08Z</time>
      </trkpt>
      <trkpt lat="46.35602" lon="-0.38067">
        <ele>76.2</ele>
        <time>2020-05-31T09:24:09Z</time>
      </trkpt>
      <trkpt lat="46.35602" lon="-0.38067">
        <ele>76.2</ele>
        <time>2020-05-31T09:24:10Z</time>
      </trkpt>
      <trkpt lat="46.35602" lon="-0.38067">
        <ele>76.2</ele>
        <time>2020-05-31T09:24:11Z</time>
      </trkpt>
      <trkpt lat="46.35601" lon="-0.38067">
        <ele>76.2</ele>
        <time>2020-05-31T09:24:12Z</time>
      </trkpt>
      <trkpt lat="46.35601" lon="-0.38067">
        <ele>76.2</ele>
        <time>2020-05-31T09:24:13Z</time>
      </trkpt>
      <trkpt lat="46.35601" lon="-0.38067">
        <ele>76.2</ele>
        <time>2020-05-31T09:24:14Z</time>
      </trkpt>
      <trkpt lat="46.35601" lon="-0.38067">
        <ele>76.2</ele>
        <time>2020-05-31T09:24:15Z</time>
      </trkpt>
      <trkpt lat="46.35601" lon="-0.38067">
        <ele>76.2</ele>
        <time>2020-05-31T09:24:16Z</time>
      </trkpt>
      <trkpt lat="46.35601" lon="-0.38068">
        <ele>76.2</ele>
        <time>2020-05-31T09:24:17Z</time>
      </trkpt>
      <trkpt lat="46.35601" lon="-0.38068">
        <ele>76.2</ele>
        <time>2020-05-31T09:24:18Z</time>
      </trkpt>
      <trkpt lat="46.35601" lon="-0.38068">
        <ele>76.2</ele>
        <time>2020-05-31T09:24:19Z</time>
      </trkpt>
      <trkpt lat="46.35601" lon="-0.38068">
        <ele>76.2</ele>
        <time>2020-05-31T09:24:20Z</time>
      </trkpt>
      <trkpt lat="46.35601" lon="-0.38067">
        <ele>76.2</ele>
        <time>2020-05-31T09:24:21Z</time>
      </trkpt>
      <trkpt lat="46.35601" lon="-0.38067">
        <ele>76.2</ele>
        <time>2020-05-31T09:24:22Z</time>
      </trkpt>
      <trkpt lat="46.35601" lon="-0.38067">
        <ele>76.2</ele>
        <time>2020-05-31T09:24:23Z</time>
      </trkpt>
      <trkpt lat="46.35601" lon="-0.38067">
        <ele>76.2</ele>
        <time>2020-05-31T09:24:24Z</time>
      </trkpt>
      <trkpt lat="46.35601" lon="-0.38067">
        <ele>76.2</ele>
        <time>2020-05-31T09:24:25Z</time>
      </trkpt>
      <trkpt lat="46.35601" lon="-0.38068">
        <ele>76.2</ele>
        <time>2020-05-31T09:24:26Z</time>
      </trkpt>
      <trkpt lat="46.35601" lon="-0.38068">
        <ele>76.2</ele>
        <time>2020-05-31T09:24:27Z</time>
      </trkpt>
      <trkpt lat="46.35601" lon="-0.38069">
        <ele>76.2</ele>
        <time>2020-05-31T09:24:28Z</time>
      </trkpt>
      <trkpt lat="46.35601" lon="-0.38069">
        <ele>76.2</ele>
        <time>2020-05-31T09:24:29Z</time>
      </trkpt>
      <trkpt lat="46.35601" lon="-0.38069">
        <ele>76.2</ele>
        <time>2020-05-31T09:24:30Z</time>
      </trkpt>
      <trkpt lat="46.35602" lon="-0.38068">
        <ele>76.1</ele>
        <time>2020-05-31T09:24:31Z</time>
      </trkpt>
      <trkpt lat="46.35601" lon="-0.38068">
        <ele>76.1</ele>
        <time>2020-05-31T09:24:32Z</time>
      </trkpt>
      <trkpt lat="46.35602" lon="-0.38069">
        <ele>76.1</ele>
        <time>2020-05-31T09:24:33Z</time>
      </trkpt>
      <trkpt lat="46.35602" lon="-0.3807">
        <ele>76.1</ele>
        <time>2020-05-31T09:24:34Z</time>
      </trkpt>
      <trkpt lat="46.35603" lon="-0.3807">
        <ele>76.1</ele>
        <time>2020-05-31T09:24:35Z</time>
      </trkpt>
      <trkpt lat="46.35603" lon="-0.3807">
        <ele>76.1</ele>
        <time>2020-05-31T09:24:36Z</time>
      </trkpt>
      <trkpt lat="46.35605" lon="-0.38068">
        <ele>76.1</ele>
        <time>2020-05-31T09:24:37Z</time>
      </trkpt>
      <trkpt lat="46.35605" lon="-0.38067">
        <ele>76.1</ele>
        <time>2020-05-31T09:24:38Z</time>
      </trkpt>
      <trkpt lat="46.35605" lon="-0.38067">
        <ele>76.1</ele>
        <time>2020-05-31T09:24:39Z</time>
      </trkpt>
      <trkpt lat="46.35605" lon="-0.38067">
        <ele>76.1</ele>
        <time>2020-05-31T09:24:40Z</time>
      </trkpt>
      <trkpt lat="46.35605" lon="-0.38067">
        <ele>76.1</ele>
        <time>2020-05-31T09:24:41Z</time>
      </trkpt>
      <trkpt lat="46.35605" lon="-0.38067">
        <ele>76.1</ele>
        <time>2020-05-31T09:24:42Z</time>
      </trkpt>
      <trkpt lat="46.35605" lon="-0.38067">
        <ele>76.1</ele>
        <time>2020-05-31T09:24:43Z</time>
      </trkpt>
      <trkpt lat="46.35604" lon="-0.38067">
        <ele>76.1</ele>
        <time>2020-05-31T09:24:44Z</time>
      </trkpt>
      <trkpt lat="46.35604" lon="-0.38068">
        <ele>76.1</ele>
        <time>2020-05-31T09:24:45Z</time>
      </trkpt>
      <trkpt lat="46.35603" lon="-0.38068">
        <ele>76.1</ele>
        <time>2020-05-31T09:24:46Z</time>
      </trkpt>
      <trkpt lat="46.35603" lon="-0.38068">
        <ele>76.1</ele>
        <time>2020-05-31T09:24:47Z</time>
      </trkpt>
      <trkpt lat="46.35603" lon="-0.38068">
        <ele>76.1</ele>
        <time>2020-05-31T09:24:48Z</time>
      </trkpt>
      <trkpt lat="46.35603" lon="-0.38068">
        <ele>76.1</ele>
        <time>2020-05-31T09:24:49Z</time>
      </trkpt>
      <trkpt lat="46.35603" lon="-0.38068">
        <ele>76</ele>
        <time>2020-05-31T09:24:50Z</time>
      </trkpt>
      <trkpt lat="46.35603" lon="-0.38068">
        <ele>76</ele>
        <time>2020-05-31T09:24:51Z</time>
      </trkpt>
      <trkpt lat="46.35603" lon="-0.38068">
        <ele>76</ele>
        <time>2020-05-31T09:24:52Z</time>
      </trkpt>
      <trkpt lat="46.35603" lon="-0.38068">
        <ele>76</ele>
        <time>2020-05-31T09:24:53Z</time>
      </trkpt>
      <trkpt lat="46.35603" lon="-0.38068">
        <ele>76</ele>
        <time>2020-05-31T09:24:54Z</time>
      </trkpt>
      <trkpt lat="46.35603" lon="-0.38068">
        <ele>76</ele>
        <time>2020-05-31T09:24:55Z</time>
      </trkpt>
      <trkpt lat="46.35603" lon="-0.38068">
        <ele>76</ele>
        <time>2020-05-31T09:24:56Z</time>
      </trkpt>
      <trkpt lat="46.35603" lon="-0.38068">
        <ele>76</ele>
        <time>2020-05-31T09:24:57Z</time>
      </trkpt>
      <trkpt lat="46.35603" lon="-0.38068">
        <ele>76</ele>
        <time>2020-05-31T09:24:58Z</time>
      </trkpt>
      <trkpt lat="46.35603" lon="-0.38068">
        <ele>76</ele>
        <time>2020-05-31T09:24:59Z</time>
      </trkpt>
      <trkpt lat="46.35603" lon="-0.38068">
        <ele>76</ele>
        <time>2020-05-31T09:25:00Z</time>
      </trkpt>
      <trkpt lat="46.35603" lon="-0.38068">
        <ele>76</ele>
        <time>2020-05-31T09:25:01Z</time>
      </trkpt>
      <trkpt lat="46.35602" lon="-0.38068">
        <ele>76</ele>
        <time>2020-05-31T09:25:02Z</time>
      </trkpt>
      <trkpt lat="46.35602" lon="-0.38068">
        <ele>76</ele>
        <time>2020-05-31T09:25:03Z</time>
      </trkpt>
      <trkpt lat="46.35602" lon="-0.38068">
        <ele>76</ele>
        <time>2020-05-31T09:25:04Z</time>
      </trkpt>
      <trkpt lat="46.35602" lon="-0.38068">
        <ele>76</ele>
        <time>2020-05-31T09:25:05Z</time>
      </trkpt>
      <trkpt lat="46.35602" lon="-0.38068">
        <ele>76</ele>
        <time>2020-05-31T09:25:06Z</time>
      </trkpt>
      <trkpt lat="46.35602" lon="-0.38068">
        <ele>76</ele>
        <time>2020-05-31T09:25:07Z</time>
      </trkpt>
      <trkpt lat="46.35602" lon="-0.38068">
        <ele>76</ele>
        <time>2020-05-31T09:25:08Z</time>
      </trkpt>
      <trkpt lat="46.35602" lon="-0.38068">
        <ele>76</ele>
        <time>2020-05-31T09:25:09Z</time>
      </trkpt>
      <trkpt lat="46.35602" lon="-0.38068">
        <ele>76</ele>
        <time>2020-05-31T09:25:10Z</time>
      </trkpt>
      <trkpt lat="46.35602" lon="-0.38068">
        <ele>76</ele>
        <time>2020-05-31T09:25:11Z</time>
      </trkpt>
      <trkpt lat="46.35602" lon="-0.38068">
        <ele>76</ele>
        <time>2020-05-31T09:25:12Z</time>
      </trkpt>
      <trkpt lat="46.35602" lon="-0.38068">
        <ele>76</ele>
        <time>2020-05-31T09:25:13Z</time>
      </trkpt>
      <trkpt lat="46.35602" lon="-0.38068">
        <ele>76</ele>
        <time>2020-05-31T09:25:14Z</time>
      </trkpt>
      <trkpt lat="46.35602" lon="-0.38068">
        <ele>76</ele>
        <time>2020-05-31T09:25:15Z</time>
      </trkpt>
      <trkpt lat="46.35602" lon="-0.38068">
        <ele>76</ele>
        <time>2020-05-31T09:25:16Z</time>
      </trkpt>
      <trkpt lat="46.35601" lon="-0.38067">
        <ele>76</ele>
        <time>2020-05-31T09:25:17Z</time>
      </trkpt>
      <trkpt lat="46.35601" lon="-0.38066">
        <ele>76</ele>
        <time>2020-05-31T09:25:18Z</time>
      </trkpt>
      <trkpt lat="46.356" lon="-0.38066">
        <ele>76</ele>
        <time>2020-05-31T09:25:19Z</time>
      </trkpt>
      <trkpt lat="46.356" lon="-0.38066">
        <ele>76</ele>
        <time>2020-05-31T09:25:20Z</time>
      </trkpt>
      <trkpt lat="46.356" lon="-0.38066">
        <ele>76</ele>
        <time>2020-05-31T09:25:21Z</time>
      </trkpt>
      <trkpt lat="46.356" lon="-0.38066">
        <ele>76</ele>
        <time>2020-05-31T09:25:22Z</time>
      </trkpt>
      <trkpt lat="46.356" lon="-0.38066">
        <ele>76</ele>
        <time>2020-05-31T09:25:23Z</time>
      </trkpt>
      <trkpt lat="46.356" lon="-0.38066">
        <ele>76</ele>
        <time>2020-05-31T09:25:24Z</time>
      </trkpt>
      <trkpt lat="46.35599" lon="-0.38066">
        <ele>76</ele>
        <time>2020-05-31T09:25:25Z</time>
      </trkpt>
      <trkpt lat="46.35599" lon="-0.38066">
        <ele>76</ele>
        <time>2020-05-31T09:25:26Z</time>
      </trkpt>
      <trkpt lat="46.35599" lon="-0.38066">
        <ele>76</ele>
        <time>2020-05-31T09:25:27Z</time>
      </trkpt>
      <trkpt lat="46.35598" lon="-0.38065">
        <ele>75.9</ele>
        <time>2020-05-31T09:25:28Z</time>
      </trkpt>
      <trkpt lat="46.35598" lon="-0.38066">
        <ele>75.9</ele>
        <time>2020-05-31T09:25:29Z</time>
      </trkpt>
      <trkpt lat="46.35598" lon="-0.38066">
        <ele>75.9</ele>
        <time>2020-05-31T09:25:30Z</time>
      </trkpt>
      <trkpt lat="46.35598" lon="-0.38066">
        <ele>75.9</ele>
        <time>2020-05-31T09:25:31Z</time>
      </trkpt>
      <trkpt lat="46.35598" lon="-0.38066">
        <ele>75.9</ele>
        <time>2020-05-31T09:25:32Z</time>
      </trkpt>
      <trkpt lat="46.35597" lon="-0.38066">
        <ele>75.9</ele>
        <time>2020-05-31T09:25:33Z</time>
      </trkpt>
      <trkpt lat="46.35598" lon="-0.38066">
        <ele>75.9</ele>
        <time>2020-05-31T09:25:34Z</time>
      </trkpt>
      <trkpt lat="46.35597" lon="-0.38066">
        <ele>75.9</ele>
        <time>2020-05-31T09:25:35Z</time>
      </trkpt>
      <trkpt lat="46.35597" lon="-0.38066">
        <ele>75.9</ele>
        <time>2020-05-31T09:25:36Z</time>
      </trkpt>
      <trkpt lat="46.35598" lon="-0.38066">
        <ele>75.9</ele>
        <time>2020-05-31T09:25:37Z</time>
      </trkpt>
      <trkpt lat="46.35598" lon="-0.38065">
        <ele>75.9</ele>
        <time>2020-05-31T09:25:38Z</time>
      </trkpt>
      <trkpt lat="46.35598" lon="-0.38065">
        <ele>75.9</ele>
        <time>2020-05-31T09:25:39Z</time>
      </trkpt>
      <trkpt lat="46.35598" lon="-0.38065">
        <ele>75.9</ele>
        <time>2020-05-31T09:25:40Z</time>
      </trkpt>
      <trkpt lat="46.35597" lon="-0.38065">
        <ele>75.9</ele>
        <time>2020-05-31T09:25:41Z</time>
      </trkpt>
      <trkpt lat="46.35597" lon="-0.38065">
        <ele>75.9</ele>
        <time>2020-05-31T09:25:42Z</time>
      </trkpt>
      <trkpt lat="46.35597" lon="-0.38065">
        <ele>75.9</ele>
        <time>2020-05-31T09:25:43Z</time>
      </trkpt>
      <trkpt lat="46.35597" lon="-0.38065">
        <ele>75.9</ele>
        <time>2020-05-31T09:25:44Z</time>
      </trkpt>
      <trkpt lat="46.35597" lon="-0.38064">
        <ele>75.9</ele>
        <time>2020-05-31T09:25:45Z</time>
      </trkpt>
      <trkpt lat="46.35597" lon="-0.38064">
        <ele>75.9</ele>
        <time>2020-05-31T09:25:46Z</time>
      </trkpt>
      <trkpt lat="46.35597" lon="-0.38064">
        <ele>75.9</ele>
        <time>2020-05-31T09:25:47Z</time>
      </trkpt>
      <trkpt lat="46.35597" lon="-0.38064">
        <ele>75.9</ele>
        <time>2020-05-31T09:25:48Z</time>
      </trkpt>
      <trkpt lat="46.35597" lon="-0.38064">
        <ele>75.9</ele>
        <time>2020-05-31T09:25:49Z</time>
      </trkpt>
      <trkpt lat="46.35597" lon="-0.38064">
        <ele>75.9</ele>
        <time>2020-05-31T09:25:50Z</time>
      </trkpt>
      <trkpt lat="46.35597" lon="-0.38065">
        <ele>75.9</ele>
        <time>2020-05-31T09:25:51Z</time>
      </trkpt>
      <trkpt lat="46.35596" lon="-0.38065">
        <ele>75.9</ele>
        <time>2020-05-31T09:25:52Z</time>
      </trkpt>
      <trkpt lat="46.35596" lon="-0.38065">
        <ele>75.9</ele>
        <time>2020-05-31T09:25:53Z</time>
      </trkpt>
      <trkpt lat="46.35595" lon="-0.38066">
        <ele>75.9</ele>
        <time>2020-05-31T09:25:54Z</time>
      </trkpt>
      <trkpt lat="46.35595" lon="-0.38066">
        <ele>75.9</ele>
        <time>2020-05-31T09:25:55Z</time>
      </trkpt>
      <trkpt lat="46.35594" lon="-0.38066">
        <ele>75.9</ele>
        <time>2020-05-31T09:25:56Z</time>
      </trkpt>
      <trkpt lat="46.35594" lon="-0.38067">
        <ele>75.9</ele>
        <time>2020-05-31T09:25:57Z</time>
      </trkpt>
      <trkpt lat="46.35594" lon="-0.38067">
        <ele>75.9</ele>
        <time>2020-05-31T09:25:58Z</time>
      </trkpt>
      <trkpt lat="46.35593" lon="-0.38067">
        <ele>75.9</ele>
        <time>2020-05-31T09:25:59Z</time>
      </trkpt>
      <trkpt lat="46.35593" lon="-0.38067">
        <ele>75.9</ele>
        <time>2020-05-31T09:26:00Z</time>
      </trkpt>
      <trkpt lat="46.35592" lon="-0.38068">
        <ele>75.9</ele>
        <time>2020-05-31T09:26:01Z</time>
      </trkpt>
      <trkpt lat="46.3559" lon="-0.38071">
        <ele>75.8</ele>
        <time>2020-05-31T09:26:02Z</time>
      </trkpt>
      <trkpt lat="46.35586" lon="-0.38078">
        <ele>75.8</ele>
        <time>2020-05-31T09:26:03Z</time>
      </trkpt>
      <trkpt lat="46.35582" lon="-0.38085">
        <ele>75.7</ele>
        <time>2020-05-31T09:26:04Z</time>
      </trkpt>
      <trkpt lat="46.35578" lon="-0.38091">
        <ele>75.7</ele>
        <time>2020-05-31T09:26:05Z</time>
      </trkpt>
      <trkpt lat="46.35575" lon="-0.38095">
        <ele>75.7</ele>
        <time>2020-05-31T09:26:06Z</time>
      </trkpt>
      <trkpt lat="46.35572" lon="-0.381">
        <ele>75.6</ele>
        <time>2020-05-31T09:26:07Z</time>
      </trkpt>
      <trkpt lat="46.35569" lon="-0.38105">
        <ele>75.6</ele>
        <time>2020-05-31T09:26:08Z</time>
      </trkpt>
      <trkpt lat="46.35566" lon="-0.3811">
        <ele>75.6</ele>
        <time>2020-05-31T09:26:09Z</time>
      </trkpt>
      <trkpt lat="46.35563" lon="-0.38115">
        <ele>75.4</ele>
        <time>2020-05-31T09:26:10Z</time>
      </trkpt>
      <trkpt lat="46.3556" lon="-0.38121">
        <ele>75.4</ele>
        <time>2020-05-31T09:26:11Z</time>
      </trkpt>
      <trkpt lat="46.35557" lon="-0.38128">
        <ele>75.2</ele>
        <time>2020-05-31T09:26:12Z</time>
      </trkpt>
      <trkpt lat="46.35554" lon="-0.38133">
        <ele>75.1</ele>
        <time>2020-05-31T09:26:13Z</time>
      </trkpt>
      <trkpt lat="46.35551" lon="-0.38138">
        <ele>75.1</ele>
        <time>2020-05-31T09:26:14Z</time>
      </trkpt>
      <trkpt lat="46.35548" lon="-0.38143">
        <ele>75</ele>
        <time>2020-05-31T09:26:15Z</time>
      </trkpt>
      <trkpt lat="46.35544" lon="-0.38148">
        <ele>74.8</ele>
        <time>2020-05-31T09:26:16Z</time>
      </trkpt>
      <trkpt lat="46.3554" lon="-0.38153">
        <ele>74.7</ele>
        <time>2020-05-31T09:26:17Z</time>
      </trkpt>
      <trkpt lat="46.35537" lon="-0.38157">
        <ele>74.5</ele>
        <time>2020-05-31T09:26:18Z</time>
      </trkpt>
      <trkpt lat="46.35533" lon="-0.38163">
        <ele>74.3</ele>
        <time>2020-05-31T09:26:19Z</time>
      </trkpt>
      <trkpt lat="46.35528" lon="-0.38169">
        <ele>74.1</ele>
        <time>2020-05-31T09:26:20Z</time>
      </trkpt>
      <trkpt lat="46.35523" lon="-0.38176">
        <ele>73.9</ele>
        <time>2020-05-31T09:26:21Z</time>
      </trkpt>
      <trkpt lat="46.3552" lon="-0.38182">
        <ele>73.7</ele>
        <time>2020-05-31T09:26:22Z</time>
      </trkpt>
      <trkpt lat="46.35515" lon="-0.3819">
        <ele>73.5</ele>
        <time>2020-05-31T09:26:23Z</time>
      </trkpt>
      <trkpt lat="46.35511" lon="-0.38197">
        <ele>73.4</ele>
        <time>2020-05-31T09:26:24Z</time>
      </trkpt>
      <trkpt lat="46.35507" lon="-0.38203">
        <ele>73.2</ele>
        <time>2020-05-31T09:26:25Z</time>
      </trkpt>
      <trkpt lat="46.35503" lon="-0.3821">
        <ele>73.1</ele>
        <time>2020-05-31T09:26:26Z</time>
      </trkpt>
      <trkpt lat="46.35498" lon="-0.38215">
        <ele>72.9</ele>
        <time>2020-05-31T09:26:27Z</time>
      </trkpt>
      <trkpt lat="46.35493" lon="-0.38222">
        <ele>72.7</ele>
        <time>2020-05-31T09:26:28Z</time>
      </trkpt>
      <trkpt lat="46.35487" lon="-0.38229">
        <ele>72.4</ele>
        <time>2020-05-31T09:26:29Z</time>
      </trkpt>
      <trkpt lat="46.35481" lon="-0.38237">
        <ele>72.2</ele>
        <time>2020-05-31T09:26:30Z</time>
      </trkpt>
      <trkpt lat="46.35475" lon="-0.38244">
        <ele>71.9</ele>
        <time>2020-05-31T09:26:31Z</time>
      </trkpt>
      <trkpt lat="46.35469" lon="-0.38251">
        <ele>71.7</ele>
        <time>2020-05-31T09:26:32Z</time>
      </trkpt>
      <trkpt lat="46.35462" lon="-0.38258">
        <ele>71.5</ele>
        <time>2020-05-31T09:26:33Z</time>
      </trkpt>
      <trkpt lat="46.35455" lon="-0.38265">
        <ele>71.3</ele>
        <time>2020-05-31T09:26:34Z</time>
      </trkpt>
      <trkpt lat="46.35449" lon="-0.38272">
        <ele>71.1</ele>
        <time>2020-05-31T09:26:35Z</time>
      </trkpt>
      <trkpt lat="46.35442" lon="-0.38279">
        <ele>70.8</ele>
        <time>2020-05-31T09:26:36Z</time>
      </trkpt>
      <trkpt lat="46.35436" lon="-0.38286">
        <ele>70.6</ele>
        <time>2020-05-31T09:26:37Z</time>
      </trkpt>
      <trkpt lat="46.35429" lon="-0.38293">
        <ele>70.4</ele>
        <time>2020-05-31T09:26:38Z</time>
      </trkpt>
      <trkpt lat="46.35423" lon="-0.383">
        <ele>70.2</ele>
        <time>2020-05-31T09:26:39Z</time>
      </trkpt>
      <trkpt lat="46.35417" lon="-0.38306">
        <ele>70</ele>
        <time>2020-05-31T09:26:40Z</time>
      </trkpt>
      <trkpt lat="46.3541" lon="-0.38314">
        <ele>69.8</ele>
        <time>2020-05-31T09:26:41Z</time>
      </trkpt>
      <trkpt lat="46.35404" lon="-0.38321">
        <ele>69.6</ele>
        <time>2020-05-31T09:26:42Z</time>
      </trkpt>
      <trkpt lat="46.35399" lon="-0.38329">
        <ele>69.5</ele>
        <time>2020-05-31T09:26:43Z</time>
      </trkpt>
      <trkpt lat="46.35393" lon="-0.38337">
        <ele>69.3</ele>
        <time>2020-05-31T09:26:44Z</time>
      </trkpt>
      <trkpt lat="46.35388" lon="-0.38345">
        <ele>69.1</ele>
        <time>2020-05-31T09:26:45Z</time>
      </trkpt>
      <trkpt lat="46.35383" lon="-0.38353">
        <ele>69</ele>
        <time>2020-05-31T09:26:46Z</time>
      </trkpt>
      <trkpt lat="46.35379" lon="-0.38362">
        <ele>68.8</ele>
        <time>2020-05-31T09:26:47Z</time>
      </trkpt>
      <trkpt lat="46.35374" lon="-0.38371">
        <ele>68.7</ele>
        <time>2020-05-31T09:26:48Z</time>
      </trkpt>
      <trkpt lat="46.35369" lon="-0.3838">
        <ele>68.6</ele>
        <time>2020-05-31T09:26:49Z</time>
      </trkpt>
      <trkpt lat="46.35364" lon="-0.38388">
        <ele>68.4</ele>
        <time>2020-05-31T09:26:50Z</time>
      </trkpt>
      <trkpt lat="46.3536" lon="-0.38398">
        <ele>68.3</ele>
        <time>2020-05-31T09:26:51Z</time>
      </trkpt>
      <trkpt lat="46.35356" lon="-0.38407">
        <ele>68.1</ele>
        <time>2020-05-31T09:26:52Z</time>
      </trkpt>
      <trkpt lat="46.35352" lon="-0.38416">
        <ele>68</ele>
        <time>2020-05-31T09:26:53Z</time>
      </trkpt>
      <trkpt lat="46.35347" lon="-0.38426">
        <ele>67.8</ele>
        <time>2020-05-31T09:26:54Z</time>
      </trkpt>
      <trkpt lat="46.35343" lon="-0.38435">
        <ele>67.7</ele>
        <time>2020-05-31T09:26:55Z</time>
      </trkpt>
      <trkpt lat="46.35338" lon="-0.38444">
        <ele>67.5</ele>
        <time>2020-05-31T09:26:56Z</time>
      </trkpt>
      <trkpt lat="46.35333" lon="-0.38453">
        <ele>67.4</ele>
        <time>2020-05-31T09:26:57Z</time>
      </trkpt>
      <trkpt lat="46.35329" lon="-0.38463">
        <ele>67.4</ele>
        <time>2020-05-31T09:26:58Z</time>
      </trkpt>
      <trkpt lat="46.35324" lon="-0.38473">
        <ele>67.3</ele>
        <time>2020-05-31T09:26:59Z</time>
      </trkpt>
      <trkpt lat="46.3532" lon="-0.38483">
        <ele>67.2</ele>
        <time>2020-05-31T09:27:00Z</time>
      </trkpt>
      <trkpt lat="46.35315" lon="-0.38493">
        <ele>67.1</ele>
        <time>2020-05-31T09:27:01Z</time>
      </trkpt>
      <trkpt lat="46.3531" lon="-0.38503">
        <ele>67</ele>
        <time>2020-05-31T09:27:02Z</time>
      </trkpt>
      <trkpt lat="46.35305" lon="-0.38512">
        <ele>66.9</ele>
        <time>2020-05-31T09:27:03Z</time>
      </trkpt>
      <trkpt lat="46.353" lon="-0.38522">
        <ele>66.8</ele>
        <time>2020-05-31T09:27:04Z</time>
      </trkpt>
      <trkpt lat="46.35295" lon="-0.38531">
        <ele>66.6</ele>
        <time>2020-05-31T09:27:05Z</time>
      </trkpt>
      <trkpt lat="46.3529" lon="-0.3854">
        <ele>66.4</ele>
        <time>2020-05-31T09:27:06Z</time>
      </trkpt>
      <trkpt lat="46.35284" lon="-0.38549">
        <ele>66.3</ele>
        <time>2020-05-31T09:27:07Z</time>
      </trkpt>
      <trkpt lat="46.35279" lon="-0.38559">
        <ele>66.2</ele>
        <time>2020-05-31T09:27:08Z</time>
      </trkpt>
      <trkpt lat="46.35274" lon="-0.38568">
        <ele>66.2</ele>
        <time>2020-05-31T09:27:09Z</time>
      </trkpt>
      <trkpt lat="46.35269" lon="-0.38577">
        <ele>66.1</ele>
        <time>2020-05-31T09:27:10Z</time>
      </trkpt>
      <trkpt lat="46.35265" lon="-0.38586">
        <ele>66.1</ele>
        <time>2020-05-31T09:27:11Z</time>
      </trkpt>
      <trkpt lat="46.3526" lon="-0.38594">
        <ele>66</ele>
        <time>2020-05-31T09:27:12Z</time>
      </trkpt>
      <trkpt lat="46.35255" lon="-0.38602">
        <ele>66</ele>
        <time>2020-05-31T09:27:13Z</time>
      </trkpt>
      <trkpt lat="46.35251" lon="-0.3861">
        <ele>65.9</ele>
        <time>2020-05-31T09:27:14Z</time>
      </trkpt>
      <trkpt lat="46.35247" lon="-0.38617">
        <ele>65.9</ele>
        <time>2020-05-31T09:27:15Z</time>
      </trkpt>
      <trkpt lat="46.35244" lon="-0.38625">
        <ele>65.8</ele>
        <time>2020-05-31T09:27:16Z</time>
      </trkpt>
      <trkpt lat="46.35243" lon="-0.38634">
        <ele>65.8</ele>
        <time>2020-05-31T09:27:17Z</time>
      </trkpt>
      <trkpt lat="46.35243" lon="-0.38642">
        <ele>65.9</ele>
        <time>2020-05-31T09:27:18Z</time>
      </trkpt>
      <trkpt lat="46.35241" lon="-0.38651">
        <ele>65.9</ele>
        <time>2020-05-31T09:27:19Z</time>
      </trkpt>
      <trkpt lat="46.35237" lon="-0.38657">
        <ele>65.9</ele>
        <time>2020-05-31T09:27:20Z</time>
      </trkpt>
      <trkpt lat="46.35231" lon="-0.38659">
        <ele>65.7</ele>
        <time>2020-05-31T09:27:21Z</time>
      </trkpt>
      <trkpt lat="46.35227" lon="-0.38655">
        <ele>65.7</ele>
        <time>2020-05-31T09:27:22Z</time>
      </trkpt>
      <trkpt lat="46.35225" lon="-0.38649">
        <ele>65.6</ele>
        <time>2020-05-31T09:27:23Z</time>
      </trkpt>
      <trkpt lat="46.35224" lon="-0.38641">
        <ele>65.6</ele>
        <time>2020-05-31T09:27:24Z</time>
      </trkpt>
      <trkpt lat="46.35227" lon="-0.38634">
        <ele>65.7</ele>
        <time>2020-05-31T09:27:25Z</time>
      </trkpt>
      <trkpt lat="46.3523" lon="-0.38629">
        <ele>65.7</ele>
        <time>2020-05-31T09:27:26Z</time>
      </trkpt>
      <trkpt lat="46.35235" lon="-0.38626">
        <ele>65.8</ele>
        <time>2020-05-31T09:27:27Z</time>
      </trkpt>
      <trkpt lat="46.3524" lon="-0.38627">
        <ele>65.8</ele>
        <time>2020-05-31T09:27:28Z</time>
      </trkpt>
      <trkpt lat="46.35243" lon="-0.38633">
        <ele>65.8</ele>
        <time>2020-05-31T09:27:29Z</time>
      </trkpt>
      <trkpt lat="46.35244" lon="-0.3864">
        <ele>65.9</ele>
        <time>2020-05-31T09:27:30Z</time>
      </trkpt>
      <trkpt lat="46.35243" lon="-0.38647">
        <ele>65.9</ele>
        <time>2020-05-31T09:27:31Z</time>
      </trkpt>
      <trkpt lat="46.35239" lon="-0.38652">
        <ele>65.9</ele>
        <time>2020-05-31T09:27:32Z</time>
      </trkpt>
      <trkpt lat="46.35235" lon="-0.38656">
        <ele>65.8</ele>
        <time>2020-05-31T09:27:33Z</time>
      </trkpt>
      <trkpt lat="46.35231" lon="-0.3866">
        <ele>65.7</ele>
        <time>2020-05-31T09:27:34Z</time>
      </trkpt>
      <trkpt lat="46.35227" lon="-0.38663">
        <ele>65.7</ele>
        <time>2020-05-31T09:27:35Z</time>
      </trkpt>
      <trkpt lat="46.35222" lon="-0.38665">
        <ele>65.5</ele>
        <time>2020-05-31T09:27:36Z</time>
      </trkpt>
      <trkpt lat="46.35219" lon="-0.38666">
        <ele>65.4</ele>
        <time>2020-05-31T09:27:37Z</time>
      </trkpt>
      <trkpt lat="46.35217" lon="-0.3867">
        <ele>65.4</ele>
        <time>2020-05-31T09:27:38Z</time>
      </trkpt>
      <trkpt lat="46.35218" lon="-0.38675">
        <ele>65.3</ele>
        <time>2020-05-31T09:27:39Z</time>
      </trkpt>
      <trkpt lat="46.35217" lon="-0.38681">
        <ele>65.2</ele>
        <time>2020-05-31T09:27:40Z</time>
      </trkpt>
      <trkpt lat="46.35215" lon="-0.38687">
        <ele>65.2</ele>
        <time>2020-05-31T09:27:41Z</time>
      </trkpt>
      <trkpt lat="46.35212" lon="-0.38692">
        <ele>65.1</ele>
        <time>2020-05-31T09:27:42Z</time>
      </trkpt>
      <trkpt lat="46.35208" lon="-0.38698">
        <ele>64.9</ele>
        <time>2020-05-31T09:27:43Z</time>
      </trkpt>
      <trkpt lat="46.35204" lon="-0.38704">
        <ele>64.8</ele>
        <time>2020-05-31T09:27:44Z</time>
      </trkpt>
      <trkpt lat="46.352" lon="-0.3871">
        <ele>64.7</ele>
        <time>2020-05-31T09:27:45Z</time>
      </trkpt>
      <trkpt lat="46.35196" lon="-0.38717">
        <ele>64.6</ele>
        <time>2020-05-31T09:27:46Z</time>
      </trkpt>
      <trkpt lat="46.35191" lon="-0.38723">
        <ele>64.4</ele>
        <time>2020-05-31T09:27:47Z</time>
      </trkpt>
      <trkpt lat="46.35186" lon="-0.38729">
        <ele>64.3</ele>
        <time>2020-05-31T09:27:48Z</time>
      </trkpt>
      <trkpt lat="46.35181" lon="-0.38736">
        <ele>64.2</ele>
        <time>2020-05-31T09:27:49Z</time>
      </trkpt>
      <trkpt lat="46.35176" lon="-0.38743">
        <ele>64.1</ele>
        <time>2020-05-31T09:27:50Z</time>
      </trkpt>
      <trkpt lat="46.3517" lon="-0.3875">
        <ele>64</ele>
        <time>2020-05-31T09:27:51Z</time>
      </trkpt>
      <trkpt lat="46.35165" lon="-0.38758">
        <ele>63.8</ele>
        <time>2020-05-31T09:27:52Z</time>
      </trkpt>
      <trkpt lat="46.3516" lon="-0.38766">
        <ele>63.7</ele>
        <time>2020-05-31T09:27:53Z</time>
      </trkpt>
      <trkpt lat="46.35155" lon="-0.38774">
        <ele>63.6</ele>
        <time>2020-05-31T09:27:54Z</time>
      </trkpt>
      <trkpt lat="46.3515" lon="-0.38783">
        <ele>63.5</ele>
        <time>2020-05-31T09:27:55Z</time>
      </trkpt>
      <trkpt lat="46.35145" lon="-0.38791">
        <ele>63.3</ele>
        <time>2020-05-31T09:27:56Z</time>
      </trkpt>
      <trkpt lat="46.3514" lon="-0.38799">
        <ele>63.2</ele>
        <time>2020-05-31T09:27:57Z</time>
      </trkpt>
      <trkpt lat="46.35135" lon="-0.38808">
        <ele>63.2</ele>
        <time>2020-05-31T09:27:58Z</time>
      </trkpt>
      <trkpt lat="46.35129" lon="-0.38817">
        <ele>63.1</ele>
        <time>2020-05-31T09:27:59Z</time>
      </trkpt>
      <trkpt lat="46.35124" lon="-0.38825">
        <ele>63</ele>
        <time>2020-05-31T09:28:00Z</time>
      </trkpt>
      <trkpt lat="46.3512" lon="-0.38833">
        <ele>62.9</ele>
        <time>2020-05-31T09:28:01Z</time>
      </trkpt>
      <trkpt lat="46.35115" lon="-0.38842">
        <ele>62.8</ele>
        <time>2020-05-31T09:28:02Z</time>
      </trkpt>
      <trkpt lat="46.35111" lon="-0.38851">
        <ele>62.7</ele>
        <time>2020-05-31T09:28:03Z</time>
      </trkpt>
      <trkpt lat="46.35107" lon="-0.38859">
        <ele>62.7</ele>
        <time>2020-05-31T09:28:04Z</time>
      </trkpt>
      <trkpt lat="46.35103" lon="-0.38867">
        <ele>62.6</ele>
        <time>2020-05-31T09:28:05Z</time>
      </trkpt>
      <trkpt lat="46.35099" lon="-0.38875">
        <ele>62.5</ele>
        <time>2020-05-31T09:28:06Z</time>
      </trkpt>
      <trkpt lat="46.35096" lon="-0.38881">
        <ele>62.4</ele>
        <time>2020-05-31T09:28:07Z</time>
      </trkpt>
      <trkpt lat="46.35093" lon="-0.38888">
        <ele>62.4</ele>
        <time>2020-05-31T09:28:08Z</time>
      </trkpt>
      <trkpt lat="46.3509" lon="-0.38895">
        <ele>62.4</ele>
        <time>2020-05-31T09:28:09Z</time>
      </trkpt>
      <trkpt lat="46.35086" lon="-0.38901">
        <ele>62.4</ele>
        <time>2020-05-31T09:28:10Z</time>
      </trkpt>
      <trkpt lat="46.35082" lon="-0.38907">
        <ele>62.4</ele>
        <time>2020-05-31T09:28:11Z</time>
      </trkpt>
      <trkpt lat="46.35079" lon="-0.38914">
        <ele>62.5</ele>
        <time>2020-05-31T09:28:12Z</time>
      </trkpt>
      <trkpt lat="46.35075" lon="-0.3892">
        <ele>62.6</ele>
        <time>2020-05-31T09:28:13Z</time>
      </trkpt>
      <trkpt lat="46.35071" lon="-0.38927">
        <ele>62.6</ele>
        <time>2020-05-31T09:28:14Z</time>
      </trkpt>
      <trkpt lat="46.35068" lon="-0.38934">
        <ele>62.7</ele>
        <time>2020-05-31T09:28:15Z</time>
      </trkpt>
      <trkpt lat="46.35065" lon="-0.38939">
        <ele>62.8</ele>
        <time>2020-05-31T09:28:16Z</time>
      </trkpt>
      <trkpt lat="46.35062" lon="-0.38945">
        <ele>62.8</ele>
        <time>2020-05-31T09:28:17Z</time>
      </trkpt>
      <trkpt lat="46.35059" lon="-0.38951">
        <ele>62.9</ele>
        <time>2020-05-31T09:28:18Z</time>
      </trkpt>
      <trkpt lat="46.35056" lon="-0.38957">
        <ele>62.9</ele>
        <time>2020-05-31T09:28:19Z</time>
      </trkpt>
      <trkpt lat="46.35053" lon="-0.38962">
        <ele>63</ele>
        <time>2020-05-31T09:28:20Z</time>
      </trkpt>
      <trkpt lat="46.35049" lon="-0.38968">
        <ele>63</ele>
        <time>2020-05-31T09:28:21Z</time>
      </trkpt>
      <trkpt lat="46.35046" lon="-0.38973">
        <ele>63</ele>
        <time>2020-05-31T09:28:22Z</time>
      </trkpt>
      <trkpt lat="46.35042" lon="-0.38978">
        <ele>63</ele>
        <time>2020-05-31T09:28:23Z</time>
      </trkpt>
      <trkpt lat="46.35038" lon="-0.38983">
        <ele>63</ele>
        <time>2020-05-31T09:28:24Z</time>
      </trkpt>
      <trkpt lat="46.35034" lon="-0.38987">
        <ele>62.9</ele>
        <time>2020-05-31T09:28:25Z</time>
      </trkpt>
      <trkpt lat="46.3503" lon="-0.38992">
        <ele>62.9</ele>
        <time>2020-05-31T09:28:26Z</time>
      </trkpt>
      <trkpt lat="46.35026" lon="-0.38997">
        <ele>63</ele>
        <time>2020-05-31T09:28:27Z</time>
      </trkpt>
      <trkpt lat="46.35022" lon="-0.39003">
        <ele>62.9</ele>
        <time>2020-05-31T09:28:28Z</time>
      </trkpt>
      <trkpt lat="46.35018" lon="-0.39009">
        <ele>62.9</ele>
        <time>2020-05-31T09:28:29Z</time>
      </trkpt>
      <trkpt lat="46.35014" lon="-0.39014">
        <ele>62.9</ele>
        <time>2020-05-31T09:28:30Z</time>
      </trkpt>
      <trkpt lat="46.3501" lon="-0.3902">
        <ele>62.8</ele>
        <time>2020-05-31T09:28:31Z</time>
      </trkpt>
      <trkpt lat="46.35005" lon="-0.39026">
        <ele>62.7</ele>
        <time>2020-05-31T09:28:32Z</time>
      </trkpt>
      <trkpt lat="46.35001" lon="-0.39031">
        <ele>62.7</ele>
        <time>2020-05-31T09:28:33Z</time>
      </trkpt>
      <trkpt lat="46.34996" lon="-0.39037">
        <ele>62.6</ele>
        <time>2020-05-31T09:28:34Z</time>
      </trkpt>
      <trkpt lat="46.34991" lon="-0.39042">
        <ele>62.5</ele>
        <time>2020-05-31T09:28:35Z</time>
      </trkpt>
      <trkpt lat="46.34986" lon="-0.39046">
        <ele>62.5</ele>
        <time>2020-05-31T09:28:36Z</time>
      </trkpt>
      <trkpt lat="46.3498" lon="-0.3905">
        <ele>62.5</ele>
        <time>2020-05-31T09:28:37Z</time>
      </trkpt>
      <trkpt lat="46.34975" lon="-0.39053">
        <ele>62.4</ele>
        <time>2020-05-31T09:28:38Z</time>
      </trkpt>
      <trkpt lat="46.3497" lon="-0.39057">
        <ele>62.4</ele>
        <time>2020-05-31T09:28:39Z</time>
      </trkpt>
      <trkpt lat="46.34966" lon="-0.39059">
        <ele>62.4</ele>
        <time>2020-05-31T09:28:40Z</time>
      </trkpt>
      <trkpt lat="46.34964" lon="-0.39063">
        <ele>62.4</ele>
        <time>2020-05-31T09:28:41Z</time>
      </trkpt>
      <trkpt lat="46.34961" lon="-0.39065">
        <ele>62.4</ele>
        <time>2020-05-31T09:28:42Z</time>
      </trkpt>
      <trkpt lat="46.34958" lon="-0.39069">
        <ele>62.4</ele>
        <time>2020-05-31T09:28:43Z</time>
      </trkpt>
      <trkpt lat="46.34958" lon="-0.39071">
        <ele>62.4</ele>
        <time>2020-05-31T09:28:44Z</time>
      </trkpt>
      <trkpt lat="46.34955" lon="-0.39075">
        <ele>62.5</ele>
        <time>2020-05-31T09:28:45Z</time>
      </trkpt>
      <trkpt lat="46.34951" lon="-0.39077">
        <ele>62.5</ele>
        <time>2020-05-31T09:28:46Z</time>
      </trkpt>
      <trkpt lat="46.34948" lon="-0.3908">
        <ele>62.5</ele>
        <time>2020-05-31T09:28:47Z</time>
      </trkpt>
      <trkpt lat="46.34945" lon="-0.39082">
        <ele>62.6</ele>
        <time>2020-05-31T09:28:48Z</time>
      </trkpt>
      <trkpt lat="46.34942" lon="-0.39086">
        <ele>62.6</ele>
        <time>2020-05-31T09:28:49Z</time>
      </trkpt>
      <trkpt lat="46.3494" lon="-0.3909">
        <ele>62.6</ele>
        <time>2020-05-31T09:28:50Z</time>
      </trkpt>
      <trkpt lat="46.34936" lon="-0.39094">
        <ele>62.7</ele>
        <time>2020-05-31T09:28:51Z</time>
      </trkpt>
      <trkpt lat="46.34932" lon="-0.39098">
        <ele>62.8</ele>
        <time>2020-05-31T09:28:52Z</time>
      </trkpt>
      <trkpt lat="46.34928" lon="-0.39101">
        <ele>62.8</ele>
        <time>2020-05-31T09:28:53Z</time>
      </trkpt>
      <trkpt lat="46.34924" lon="-0.39104">
        <ele>62.9</ele>
        <time>2020-05-31T09:28:54Z</time>
      </trkpt>
      <trkpt lat="46.34921" lon="-0.39107">
        <ele>63</ele>
        <time>2020-05-31T09:28:55Z</time>
      </trkpt>
      <trkpt lat="46.34918" lon="-0.39111">
        <ele>63.1</ele>
        <time>2020-05-31T09:28:56Z</time>
      </trkpt>
      <trkpt lat="46.34915" lon="-0.39114">
        <ele>63.1</ele>
        <time>2020-05-31T09:28:57Z</time>
      </trkpt>
      <trkpt lat="46.34911" lon="-0.39118">
        <ele>63.2</ele>
        <time>2020-05-31T09:28:58Z</time>
      </trkpt>
      <trkpt lat="46.34907" lon="-0.39122">
        <ele>63.3</ele>
        <time>2020-05-31T09:28:59Z</time>
      </trkpt>
      <trkpt lat="46.34902" lon="-0.39127">
        <ele>63.5</ele>
        <time>2020-05-31T09:29:00Z</time>
      </trkpt>
      <trkpt lat="46.34898" lon="-0.39131">
        <ele>63.6</ele>
        <time>2020-05-31T09:29:01Z</time>
      </trkpt>
      <trkpt lat="46.34893" lon="-0.39136">
        <ele>63.7</ele>
        <time>2020-05-31T09:29:02Z</time>
      </trkpt>
      <trkpt lat="46.34887" lon="-0.39142">
        <ele>63.8</ele>
        <time>2020-05-31T09:29:03Z</time>
      </trkpt>
      <trkpt lat="46.34882" lon="-0.39147">
        <ele>64</ele>
        <time>2020-05-31T09:29:04Z</time>
      </trkpt>
      <trkpt lat="46.34877" lon="-0.39152">
        <ele>64</ele>
        <time>2020-05-31T09:29:05Z</time>
      </trkpt>
      <trkpt lat="46.34872" lon="-0.39156">
        <ele>64.1</ele>
        <time>2020-05-31T09:29:06Z</time>
      </trkpt>
      <trkpt lat="46.34867" lon="-0.3916">
        <ele>64.2</ele>
        <time>2020-05-31T09:29:07Z</time>
      </trkpt>
      <trkpt lat="46.34863" lon="-0.39163">
        <ele>64.3</ele>
        <time>2020-05-31T09:29:08Z</time>
      </trkpt>
      <trkpt lat="46.34859" lon="-0.39165">
        <ele>64.4</ele>
        <time>2020-05-31T09:29:09Z</time>
      </trkpt>
      <trkpt lat="46.34856" lon="-0.39169">
        <ele>64.6</ele>
        <time>2020-05-31T09:29:10Z</time>
      </trkpt>
      <trkpt lat="46.34852" lon="-0.39172">
        <ele>64.7</ele>
        <time>2020-05-31T09:29:11Z</time>
      </trkpt>
      <trkpt lat="46.34849" lon="-0.39175">
        <ele>64.8</ele>
        <time>2020-05-31T09:29:12Z</time>
      </trkpt>
      <trkpt lat="46.34846" lon="-0.3918">
        <ele>64.9</ele>
        <time>2020-05-31T09:29:13Z</time>
      </trkpt>
      <trkpt lat="46.34843" lon="-0.39184">
        <ele>65</ele>
        <time>2020-05-31T09:29:14Z</time>
      </trkpt>
      <trkpt lat="46.34841" lon="-0.39188">
        <ele>65</ele>
        <time>2020-05-31T09:29:15Z</time>
      </trkpt>
      <trkpt lat="46.34839" lon="-0.39191">
        <ele>65.1</ele>
        <time>2020-05-31T09:29:16Z</time>
      </trkpt>
      <trkpt lat="46.34836" lon="-0.39194">
        <ele>65.1</ele>
        <time>2020-05-31T09:29:17Z</time>
      </trkpt>
      <trkpt lat="46.34834" lon="-0.39197">
        <ele>65.1</ele>
        <time>2020-05-31T09:29:18Z</time>
      </trkpt>
      <trkpt lat="46.3483" lon="-0.392">
        <ele>65.2</ele>
        <time>2020-05-31T09:29:19Z</time>
      </trkpt>
      <trkpt lat="46.34827" lon="-0.39203">
        <ele>65.2</ele>
        <time>2020-05-31T09:29:20Z</time>
      </trkpt>
      <trkpt lat="46.34824" lon="-0.39207">
        <ele>65.3</ele>
        <time>2020-05-31T09:29:21Z</time>
      </trkpt>
      <trkpt lat="46.34821" lon="-0.39211">
        <ele>65.3</ele>
        <time>2020-05-31T09:29:22Z</time>
      </trkpt>
      <trkpt lat="46.34818" lon="-0.39215">
        <ele>65.4</ele>
        <time>2020-05-31T09:29:23Z</time>
      </trkpt>
      <trkpt lat="46.34816" lon="-0.39218">
        <ele>65.4</ele>
        <time>2020-05-31T09:29:24Z</time>
      </trkpt>
      <trkpt lat="46.34814" lon="-0.39222">
        <ele>65.4</ele>
        <time>2020-05-31T09:29:25Z</time>
      </trkpt>
      <trkpt lat="46.3481" lon="-0.39227">
        <ele>65.5</ele>
        <time>2020-05-31T09:29:26Z</time>
      </trkpt>
      <trkpt lat="46.34808" lon="-0.39231">
        <ele>65.5</ele>
        <time>2020-05-31T09:29:27Z</time>
      </trkpt>
      <trkpt lat="46.34805" lon="-0.39236">
        <ele>65.6</ele>
        <time>2020-05-31T09:29:28Z</time>
      </trkpt>
      <trkpt lat="46.34803" lon="-0.3924">
        <ele>65.6</ele>
        <time>2020-05-31T09:29:29Z</time>
      </trkpt>
      <trkpt lat="46.34802" lon="-0.39244">
        <ele>65.7</ele>
        <time>2020-05-31T09:29:30Z</time>
      </trkpt>
      <trkpt lat="46.348" lon="-0.39248">
        <ele>65.8</ele>
        <time>2020-05-31T09:29:31Z</time>
      </trkpt>
      <trkpt lat="46.34797" lon="-0.39253">
        <ele>65.8</ele>
        <time>2020-05-31T09:29:32Z</time>
      </trkpt>
      <trkpt lat="46.34795" lon="-0.39258">
        <ele>65.9</ele>
        <time>2020-05-31T09:29:33Z</time>
      </trkpt>
      <trkpt lat="46.34792" lon="-0.39261">
        <ele>66</ele>
        <time>2020-05-31T09:29:34Z</time>
      </trkpt>
      <trkpt lat="46.3479" lon="-0.39266">
        <ele>66.1</ele>
        <time>2020-05-31T09:29:35Z</time>
      </trkpt>
      <trkpt lat="46.34787" lon="-0.39271">
        <ele>66.2</ele>
        <time>2020-05-31T09:29:36Z</time>
      </trkpt>
      <trkpt lat="46.34785" lon="-0.39276">
        <ele>66.3</ele>
        <time>2020-05-31T09:29:37Z</time>
      </trkpt>
      <trkpt lat="46.34782" lon="-0.39282">
        <ele>66.4</ele>
        <time>2020-05-31T09:29:38Z</time>
      </trkpt>
      <trkpt lat="46.34779" lon="-0.39287">
        <ele>66.5</ele>
        <time>2020-05-31T09:29:39Z</time>
      </trkpt>
      <trkpt lat="46.34777" lon="-0.39294">
        <ele>66.6</ele>
        <time>2020-05-31T09:29:40Z</time>
      </trkpt>
      <trkpt lat="46.34774" lon="-0.39299">
        <ele>66.8</ele>
        <time>2020-05-31T09:29:41Z</time>
      </trkpt>
      <trkpt lat="46.34772" lon="-0.39305">
        <ele>66.9</ele>
        <time>2020-05-31T09:29:42Z</time>
      </trkpt>
      <trkpt lat="46.34769" lon="-0.39312">
        <ele>67.1</ele>
        <time>2020-05-31T09:29:43Z</time>
      </trkpt>
      <trkpt lat="46.34767" lon="-0.39318">
        <ele>67.2</ele>
        <time>2020-05-31T09:29:44Z</time>
      </trkpt>
      <trkpt lat="46.34766" lon="-0.39323">
        <ele>67.3</ele>
        <time>2020-05-31T09:29:45Z</time>
      </trkpt>
      <trkpt lat="46.34764" lon="-0.39329">
        <ele>67.4</ele>
        <time>2020-05-31T09:29:46Z</time>
      </trkpt>
      <trkpt lat="46.34763" lon="-0.39335">
        <ele>67.5</ele>
        <time>2020-05-31T09:29:47Z</time>
      </trkpt>
      <trkpt lat="46.34762" lon="-0.3934">
        <ele>67.6</ele>
        <time>2020-05-31T09:29:48Z</time>
      </trkpt>
      <trkpt lat="46.3476" lon="-0.39347">
        <ele>67.8</ele>
        <time>2020-05-31T09:29:49Z</time>
      </trkpt>
      <trkpt lat="46.34757" lon="-0.39353">
        <ele>67.9</ele>
        <time>2020-05-31T09:29:50Z</time>
      </trkpt>
      <trkpt lat="46.34755" lon="-0.39359">
        <ele>68</ele>
        <time>2020-05-31T09:29:51Z</time>
      </trkpt>
      <trkpt lat="46.34754" lon="-0.39365">
        <ele>68.2</ele>
        <time>2020-05-31T09:29:52Z</time>
      </trkpt>
      <trkpt lat="46.34752" lon="-0.39371">
        <ele>68.3</ele>
        <time>2020-05-31T09:29:53Z</time>
      </trkpt>
      <trkpt lat="46.3475" lon="-0.39378">
        <ele>68.4</ele>
        <time>2020-05-31T09:29:54Z</time>
      </trkpt>
      <trkpt lat="46.34748" lon="-0.39384">
        <ele>68.5</ele>
        <time>2020-05-31T09:29:55Z</time>
      </trkpt>
      <trkpt lat="46.34748" lon="-0.39389">
        <ele>68.7</ele>
        <time>2020-05-31T09:29:56Z</time>
      </trkpt>
      <trkpt lat="46.34747" lon="-0.39396">
        <ele>68.8</ele>
        <time>2020-05-31T09:29:57Z</time>
      </trkpt>
      <trkpt lat="46.34747" lon="-0.39402">
        <ele>68.9</ele>
        <time>2020-05-31T09:29:58Z</time>
      </trkpt>
      <trkpt lat="46.34747" lon="-0.39408">
        <ele>69.1</ele>
        <time>2020-05-31T09:29:59Z</time>
      </trkpt>
      <trkpt lat="46.34746" lon="-0.39412">
        <ele>69.2</ele>
        <time>2020-05-31T09:30:00Z</time>
      </trkpt>
      <trkpt lat="46.34745" lon="-0.39419">
        <ele>69.4</ele>
        <time>2020-05-31T09:30:01Z</time>
      </trkpt>
      <trkpt lat="46.34744" lon="-0.39424">
        <ele>69.6</ele>
        <time>2020-05-31T09:30:02Z</time>
      </trkpt>
      <trkpt lat="46.34743" lon="-0.39429">
        <ele>69.7</ele>
        <time>2020-05-31T09:30:03Z</time>
      </trkpt>
      <trkpt lat="46.34742" lon="-0.39433">
        <ele>69.9</ele>
        <time>2020-05-31T09:30:04Z</time>
      </trkpt>
      <trkpt lat="46.3474" lon="-0.39439">
        <ele>70.1</ele>
        <time>2020-05-31T09:30:05Z</time>
      </trkpt>
      <trkpt lat="46.34738" lon="-0.39444">
        <ele>70.3</ele>
        <time>2020-05-31T09:30:06Z</time>
      </trkpt>
      <trkpt lat="46.34735" lon="-0.3945">
        <ele>70.6</ele>
        <time>2020-05-31T09:30:07Z</time>
      </trkpt>
      <trkpt lat="46.34732" lon="-0.39454">
        <ele>70.9</ele>
        <time>2020-05-31T09:30:08Z</time>
      </trkpt>
      <trkpt lat="46.3473" lon="-0.39458">
        <ele>71.1</ele>
        <time>2020-05-31T09:30:09Z</time>
      </trkpt>
      <trkpt lat="46.34728" lon="-0.39463">
        <ele>71.3</ele>
        <time>2020-05-31T09:30:10Z</time>
      </trkpt>
      <trkpt lat="46.34727" lon="-0.39467">
        <ele>71.5</ele>
        <time>2020-05-31T09:30:11Z</time>
      </trkpt>
      <trkpt lat="46.34725" lon="-0.39471">
        <ele>71.7</ele>
        <time>2020-05-31T09:30:12Z</time>
      </trkpt>
      <trkpt lat="46.34723" lon="-0.39476">
        <ele>72</ele>
        <time>2020-05-31T09:30:13Z</time>
      </trkpt>
      <trkpt lat="46.3472" lon="-0.39482">
        <ele>72.3</ele>
        <time>2020-05-31T09:30:14Z</time>
      </trkpt>
      <trkpt lat="46.34718" lon="-0.39486">
        <ele>72.5</ele>
        <time>2020-05-31T09:30:15Z</time>
      </trkpt>
      <trkpt lat="46.34715" lon="-0.39491">
        <ele>72.8</ele>
        <time>2020-05-31T09:30:16Z</time>
      </trkpt>
      <trkpt lat="46.34713" lon="-0.39496">
        <ele>73</ele>
        <time>2020-05-31T09:30:17Z</time>
      </trkpt>
      <trkpt lat="46.3471" lon="-0.395">
        <ele>73.3</ele>
        <time>2020-05-31T09:30:18Z</time>
      </trkpt>
      <trkpt lat="46.34709" lon="-0.39505">
        <ele>73.5</ele>
        <time>2020-05-31T09:30:19Z</time>
      </trkpt>
      <trkpt lat="46.3471" lon="-0.39509">
        <ele>73.6</ele>
        <time>2020-05-31T09:30:20Z</time>
      </trkpt>
      <trkpt lat="46.3471" lon="-0.3951">
        <ele>73.7</ele>
        <time>2020-05-31T09:30:21Z</time>
      </trkpt>
      <trkpt lat="46.34709" lon="-0.39515">
        <ele>73.8</ele>
        <time>2020-05-31T09:30:22Z</time>
      </trkpt>
      <trkpt lat="46.34709" lon="-0.39516">
        <ele>73.9</ele>
        <time>2020-05-31T09:30:23Z</time>
      </trkpt>
      <trkpt lat="46.34709" lon="-0.39519">
        <ele>73.9</ele>
        <time>2020-05-31T09:30:24Z</time>
      </trkpt>
      <trkpt lat="46.34709" lon="-0.39522">
        <ele>74</ele>
        <time>2020-05-31T09:30:25Z</time>
      </trkpt>
      <trkpt lat="46.34708" lon="-0.39524">
        <ele>74.1</ele>
        <time>2020-05-31T09:30:26Z</time>
      </trkpt>
      <trkpt lat="46.34709" lon="-0.39526">
        <ele>74.1</ele>
        <time>2020-05-31T09:30:27Z</time>
      </trkpt>
      <trkpt lat="46.34709" lon="-0.39526">
        <ele>74.1</ele>
        <time>2020-05-31T09:30:28Z</time>
      </trkpt>
      <trkpt lat="46.34709" lon="-0.39527">
        <ele>74.2</ele>
        <time>2020-05-31T09:30:29Z</time>
      </trkpt>
      <trkpt lat="46.34709" lon="-0.39528">
        <ele>74.2</ele>
        <time>2020-05-31T09:30:30Z</time>
      </trkpt>
      <trkpt lat="46.34708" lon="-0.39528">
        <ele>74.2</ele>
        <time>2020-05-31T09:30:31Z</time>
      </trkpt>
      <trkpt lat="46.34708" lon="-0.39528">
        <ele>74.2</ele>
        <time>2020-05-31T09:30:32Z</time>
      </trkpt>
      <trkpt lat="46.34708" lon="-0.39529">
        <ele>74.2</ele>
        <time>2020-05-31T09:30:33Z</time>
      </trkpt>
      <trkpt lat="46.34708" lon="-0.39529">
        <ele>74.2</ele>
        <time>2020-05-31T09:30:34Z</time>
      </trkpt>
      <trkpt lat="46.34708" lon="-0.39529">
        <ele>74.2</ele>
        <time>2020-05-31T09:30:35Z</time>
      </trkpt>
      <trkpt lat="46.34709" lon="-0.3953">
        <ele>74.3</ele>
        <time>2020-05-31T09:30:36Z</time>
      </trkpt>
      <trkpt lat="46.34709" lon="-0.3953">
        <ele>74.3</ele>
        <time>2020-05-31T09:30:37Z</time>
      </trkpt>
      <trkpt lat="46.34709" lon="-0.39529">
        <ele>74.3</ele>
        <time>2020-05-31T09:30:38Z</time>
      </trkpt>
      <trkpt lat="46.34709" lon="-0.39529">
        <ele>74.3</ele>
        <time>2020-05-31T09:30:39Z</time>
      </trkpt>
      <trkpt lat="46.34709" lon="-0.39528">
        <ele>74.3</ele>
        <time>2020-05-31T09:30:40Z</time>
      </trkpt>
      <trkpt lat="46.34708" lon="-0.39531">
        <ele>74.3</ele>
        <time>2020-05-31T09:30:41Z</time>
      </trkpt>
      <trkpt lat="46.34707" lon="-0.39534">
        <ele>74.4</ele>
        <time>2020-05-31T09:30:42Z</time>
      </trkpt>
      <trkpt lat="46.34704" lon="-0.39538">
        <ele>74.5</ele>
        <time>2020-05-31T09:30:43Z</time>
      </trkpt>
      <trkpt lat="46.34703" lon="-0.39539">
        <ele>74.7</ele>
        <time>2020-05-31T09:30:44Z</time>
      </trkpt>
      <trkpt lat="46.34699" lon="-0.3954">
        <ele>74.9</ele>
        <time>2020-05-31T09:30:45Z</time>
      </trkpt>
      <trkpt lat="46.34695" lon="-0.39541">
        <ele>75</ele>
        <time>2020-05-31T09:30:46Z</time>
      </trkpt>
      <trkpt lat="46.34694" lon="-0.39542">
        <ele>75.1</ele>
        <time>2020-05-31T09:30:47Z</time>
      </trkpt>
      <trkpt lat="46.34691" lon="-0.39544">
        <ele>75.2</ele>
        <time>2020-05-31T09:30:48Z</time>
      </trkpt>
      <trkpt lat="46.34688" lon="-0.39548">
        <ele>75.3</ele>
        <time>2020-05-31T09:30:49Z</time>
      </trkpt>
      <trkpt lat="46.34685" lon="-0.39553">
        <ele>75.5</ele>
        <time>2020-05-31T09:30:50Z</time>
      </trkpt>
      <trkpt lat="46.34683" lon="-0.39557">
        <ele>75.6</ele>
        <time>2020-05-31T09:30:51Z</time>
      </trkpt>
      <trkpt lat="46.34681" lon="-0.39561">
        <ele>75.7</ele>
        <time>2020-05-31T09:30:52Z</time>
      </trkpt>
      <trkpt lat="46.34679" lon="-0.39566">
        <ele>75.8</ele>
        <time>2020-05-31T09:30:53Z</time>
      </trkpt>
      <trkpt lat="46.34676" lon="-0.3957">
        <ele>75.9</ele>
        <time>2020-05-31T09:30:54Z</time>
      </trkpt>
      <trkpt lat="46.34675" lon="-0.39574">
        <ele>76</ele>
        <time>2020-05-31T09:30:55Z</time>
      </trkpt>
      <trkpt lat="46.34672" lon="-0.39578">
        <ele>76.1</ele>
        <time>2020-05-31T09:30:56Z</time>
      </trkpt>
      <trkpt lat="46.34671" lon="-0.39582">
        <ele>76.2</ele>
        <time>2020-05-31T09:30:57Z</time>
      </trkpt>
      <trkpt lat="46.34668" lon="-0.39587">
        <ele>76.3</ele>
        <time>2020-05-31T09:30:58Z</time>
      </trkpt>
      <trkpt lat="46.34666" lon="-0.39592">
        <ele>76.4</ele>
        <time>2020-05-31T09:30:59Z</time>
      </trkpt>
      <trkpt lat="46.34665" lon="-0.39596">
        <ele>76.5</ele>
        <time>2020-05-31T09:31:00Z</time>
      </trkpt>
      <trkpt lat="46.34663" lon="-0.39601">
        <ele>76.5</ele>
        <time>2020-05-31T09:31:01Z</time>
      </trkpt>
      <trkpt lat="46.34661" lon="-0.39606">
        <ele>76.6</ele>
        <time>2020-05-31T09:31:02Z</time>
      </trkpt>
      <trkpt lat="46.34658" lon="-0.39611">
        <ele>76.7</ele>
        <time>2020-05-31T09:31:03Z</time>
      </trkpt>
      <trkpt lat="46.34655" lon="-0.39616">
        <ele>76.8</ele>
        <time>2020-05-31T09:31:04Z</time>
      </trkpt>
      <trkpt lat="46.34652" lon="-0.3962">
        <ele>76.9</ele>
        <time>2020-05-31T09:31:05Z</time>
      </trkpt>
      <trkpt lat="46.34649" lon="-0.39625">
        <ele>77</ele>
        <time>2020-05-31T09:31:06Z</time>
      </trkpt>
      <trkpt lat="46.34646" lon="-0.3963">
        <ele>77.1</ele>
        <time>2020-05-31T09:31:07Z</time>
      </trkpt>
      <trkpt lat="46.34643" lon="-0.39634">
        <ele>77.2</ele>
        <time>2020-05-31T09:31:08Z</time>
      </trkpt>
      <trkpt lat="46.3464" lon="-0.39638">
        <ele>77.3</ele>
        <time>2020-05-31T09:31:09Z</time>
      </trkpt>
      <trkpt lat="46.34637" lon="-0.39642">
        <ele>77.3</ele>
        <time>2020-05-31T09:31:10Z</time>
      </trkpt>
      <trkpt lat="46.34635" lon="-0.39647">
        <ele>77.4</ele>
        <time>2020-05-31T09:31:11Z</time>
      </trkpt>
      <trkpt lat="46.34633" lon="-0.39653">
        <ele>77.5</ele>
        <time>2020-05-31T09:31:12Z</time>
      </trkpt>
      <trkpt lat="46.34632" lon="-0.39655">
        <ele>77.5</ele>
        <time>2020-05-31T09:31:13Z</time>
      </trkpt>
      <trkpt lat="46.3463" lon="-0.39661">
        <ele>77.5</ele>
        <time>2020-05-31T09:31:14Z</time>
      </trkpt>
      <trkpt lat="46.34628" lon="-0.39667">
        <ele>77.6</ele>
        <time>2020-05-31T09:31:15Z</time>
      </trkpt>
      <trkpt lat="46.34626" lon="-0.39672">
        <ele>77.6</ele>
        <time>2020-05-31T09:31:16Z</time>
      </trkpt>
      <trkpt lat="46.34623" lon="-0.39678">
        <ele>77.6</ele>
        <time>2020-05-31T09:31:17Z</time>
      </trkpt>
      <trkpt lat="46.34621" lon="-0.39684">
        <ele>77.7</ele>
        <time>2020-05-31T09:31:18Z</time>
      </trkpt>
      <trkpt lat="46.34619" lon="-0.3969">
        <ele>77.7</ele>
        <time>2020-05-31T09:31:19Z</time>
      </trkpt>
      <trkpt lat="46.34616" lon="-0.39697">
        <ele>77.7</ele>
        <time>2020-05-31T09:31:20Z</time>
      </trkpt>
      <trkpt lat="46.34613" lon="-0.39702">
        <ele>77.7</ele>
        <time>2020-05-31T09:31:21Z</time>
      </trkpt>
      <trkpt lat="46.3461" lon="-0.39706">
        <ele>77.7</ele>
        <time>2020-05-31T09:31:22Z</time>
      </trkpt>
      <trkpt lat="46.34607" lon="-0.39711">
        <ele>77.7</ele>
        <time>2020-05-31T09:31:23Z</time>
      </trkpt>
      <trkpt lat="46.34605" lon="-0.39718">
        <ele>77.7</ele>
        <time>2020-05-31T09:31:24Z</time>
      </trkpt>
      <trkpt lat="46.34602" lon="-0.39726">
        <ele>77.7</ele>
        <time>2020-05-31T09:31:25Z</time>
      </trkpt>
      <trkpt lat="46.34601" lon="-0.39734">
        <ele>77.7</ele>
        <time>2020-05-31T09:31:26Z</time>
      </trkpt>
      <trkpt lat="46.346" lon="-0.3974">
        <ele>77.7</ele>
        <time>2020-05-31T09:31:27Z</time>
      </trkpt>
      <trkpt lat="46.34599" lon="-0.39746">
        <ele>77.7</ele>
        <time>2020-05-31T09:31:28Z</time>
      </trkpt>
      <trkpt lat="46.34597" lon="-0.39753">
        <ele>77.8</ele>
        <time>2020-05-31T09:31:29Z</time>
      </trkpt>
      <trkpt lat="46.34597" lon="-0.39757">
        <ele>77.8</ele>
        <time>2020-05-31T09:31:30Z</time>
      </trkpt>
      <trkpt lat="46.34595" lon="-0.39765">
        <ele>77.8</ele>
        <time>2020-05-31T09:31:31Z</time>
      </trkpt>
      <trkpt lat="46.34593" lon="-0.39773">
        <ele>77.8</ele>
        <time>2020-05-31T09:31:32Z</time>
      </trkpt>
      <trkpt lat="46.34592" lon="-0.3978">
        <ele>77.8</ele>
        <time>2020-05-31T09:31:33Z</time>
      </trkpt>
      <trkpt lat="46.3459" lon="-0.39787">
        <ele>77.8</ele>
        <time>2020-05-31T09:31:34Z</time>
      </trkpt>
      <trkpt lat="46.34589" lon="-0.39794">
        <ele>77.8</ele>
        <time>2020-05-31T09:31:35Z</time>
      </trkpt>
      <trkpt lat="46.34588" lon="-0.39802">
        <ele>77.8</ele>
        <time>2020-05-31T09:31:36Z</time>
      </trkpt>
      <trkpt lat="46.34586" lon="-0.39808">
        <ele>77.8</ele>
        <time>2020-05-31T09:31:37Z</time>
      </trkpt>
      <trkpt lat="46.34584" lon="-0.39816">
        <ele>77.9</ele>
        <time>2020-05-31T09:31:38Z</time>
      </trkpt>
      <trkpt lat="46.34583" lon="-0.39823">
        <ele>77.9</ele>
        <time>2020-05-31T09:31:39Z</time>
      </trkpt>
      <trkpt lat="46.34583" lon="-0.39827">
        <ele>77.9</ele>
        <time>2020-05-31T09:31:40Z</time>
      </trkpt>
      <trkpt lat="46.34583" lon="-0.39832">
        <ele>77.8</ele>
        <time>2020-05-31T09:31:41Z</time>
      </trkpt>
      <trkpt lat="46.34584" lon="-0.39837">
        <ele>77.8</ele>
        <time>2020-05-31T09:31:42Z</time>
      </trkpt>
      <trkpt lat="46.34583" lon="-0.39842">
        <ele>77.8</ele>
        <time>2020-05-31T09:31:43Z</time>
      </trkpt>
      <trkpt lat="46.34583" lon="-0.39847">
        <ele>77.8</ele>
        <time>2020-05-31T09:31:44Z</time>
      </trkpt>
      <trkpt lat="46.34582" lon="-0.39853">
        <ele>77.7</ele>
        <time>2020-05-31T09:31:45Z</time>
      </trkpt>
      <trkpt lat="46.34582" lon="-0.39859">
        <ele>77.7</ele>
        <time>2020-05-31T09:31:46Z</time>
      </trkpt>
      <trkpt lat="46.34581" lon="-0.39866">
        <ele>77.7</ele>
        <time>2020-05-31T09:31:47Z</time>
      </trkpt>
      <trkpt lat="46.3458" lon="-0.39872">
        <ele>77.6</ele>
        <time>2020-05-31T09:31:48Z</time>
      </trkpt>
      <trkpt lat="46.3458" lon="-0.39878">
        <ele>77.6</ele>
        <time>2020-05-31T09:31:49Z</time>
      </trkpt>
      <trkpt lat="46.3458" lon="-0.39884">
        <ele>77.6</ele>
        <time>2020-05-31T09:31:50Z</time>
      </trkpt>
      <trkpt lat="46.34581" lon="-0.3989">
        <ele>77.5</ele>
        <time>2020-05-31T09:31:51Z</time>
      </trkpt>
      <trkpt lat="46.34579" lon="-0.39896">
        <ele>77.5</ele>
        <time>2020-05-31T09:31:52Z</time>
      </trkpt>
      <trkpt lat="46.3458" lon="-0.39902">
        <ele>77.4</ele>
        <time>2020-05-31T09:31:53Z</time>
      </trkpt>
      <trkpt lat="46.3458" lon="-0.39907">
        <ele>77.4</ele>
        <time>2020-05-31T09:31:54Z</time>
      </trkpt>
      <trkpt lat="46.3458" lon="-0.39913">
        <ele>77.4</ele>
        <time>2020-05-31T09:31:55Z</time>
      </trkpt>
      <trkpt lat="46.3458" lon="-0.39915">
        <ele>77.4</ele>
        <time>2020-05-31T09:31:56Z</time>
      </trkpt>
      <trkpt lat="46.34578" lon="-0.39918">
        <ele>77.4</ele>
        <time>2020-05-31T09:31:57Z</time>
      </trkpt>
      <trkpt lat="46.34578" lon="-0.39919">
        <ele>77.4</ele>
        <time>2020-05-31T09:31:58Z</time>
      </trkpt>
      <trkpt lat="46.34578" lon="-0.39924">
        <ele>77.4</ele>
        <time>2020-05-31T09:31:59Z</time>
      </trkpt>
      <trkpt lat="46.34579" lon="-0.39926">
        <ele>77.4</ele>
        <time>2020-05-31T09:32:00Z</time>
      </trkpt>
      <trkpt lat="46.34581" lon="-0.39929">
        <ele>77.4</ele>
        <time>2020-05-31T09:32:01Z</time>
      </trkpt>
      <trkpt lat="46.34582" lon="-0.39933">
        <ele>77.4</ele>
        <time>2020-05-31T09:32:02Z</time>
      </trkpt>
      <trkpt lat="46.34585" lon="-0.39936">
        <ele>77.3</ele>
        <time>2020-05-31T09:32:03Z</time>
      </trkpt>
      <trkpt lat="46.34587" lon="-0.39941">
        <ele>77.3</ele>
        <time>2020-05-31T09:32:04Z</time>
      </trkpt>
      <trkpt lat="46.34588" lon="-0.39946">
        <ele>77.3</ele>
        <time>2020-05-31T09:32:05Z</time>
      </trkpt>
      <trkpt lat="46.34589" lon="-0.39951">
        <ele>77.3</ele>
        <time>2020-05-31T09:32:06Z</time>
      </trkpt>
      <trkpt lat="46.3459" lon="-0.39958">
        <ele>77.3</ele>
        <time>2020-05-31T09:32:07Z</time>
      </trkpt>
      <trkpt lat="46.34591" lon="-0.39964">
        <ele>77.3</ele>
        <time>2020-05-31T09:32:08Z</time>
      </trkpt>
      <trkpt lat="46.34592" lon="-0.3997">
        <ele>77.3</ele>
        <time>2020-05-31T09:32:09Z</time>
      </trkpt>
      <trkpt lat="46.34593" lon="-0.39978">
        <ele>77.2</ele>
        <time>2020-05-31T09:32:10Z</time>
      </trkpt>
      <trkpt lat="46.34593" lon="-0.39983">
        <ele>77.2</ele>
        <time>2020-05-31T09:32:11Z</time>
      </trkpt>
      <trkpt lat="46.34594" lon="-0.39988">
        <ele>77.2</ele>
        <time>2020-05-31T09:32:12Z</time>
      </trkpt>
      <trkpt lat="46.34595" lon="-0.39994">
        <ele>77.3</ele>
        <time>2020-05-31T09:32:13Z</time>
      </trkpt>
      <trkpt lat="46.34595" lon="-0.4">
        <ele>77.3</ele>
        <time>2020-05-31T09:32:14Z</time>
      </trkpt>
      <trkpt lat="46.34596" lon="-0.40005">
        <ele>77.3</ele>
        <time>2020-05-31T09:32:15Z</time>
      </trkpt>
      <trkpt lat="46.34596" lon="-0.40011">
        <ele>77.3</ele>
        <time>2020-05-31T09:32:16Z</time>
      </trkpt>
      <trkpt lat="46.34597" lon="-0.40018">
        <ele>77.3</ele>
        <time>2020-05-31T09:32:17Z</time>
      </trkpt>
      <trkpt lat="46.34598" lon="-0.40025">
        <ele>77.3</ele>
        <time>2020-05-31T09:32:18Z</time>
      </trkpt>
      <trkpt lat="46.34598" lon="-0.40032">
        <ele>77.4</ele>
        <time>2020-05-31T09:32:19Z</time>
      </trkpt>
      <trkpt lat="46.34599" lon="-0.40037">
        <ele>77.4</ele>
        <time>2020-05-31T09:32:20Z</time>
      </trkpt>
      <trkpt lat="46.34599" lon="-0.40043">
        <ele>77.4</ele>
        <time>2020-05-31T09:32:21Z</time>
      </trkpt>
      <trkpt lat="46.346" lon="-0.40049">
        <ele>77.4</ele>
        <time>2020-05-31T09:32:22Z</time>
      </trkpt>
      <trkpt lat="46.34601" lon="-0.40056">
        <ele>77.4</ele>
        <time>2020-05-31T09:32:23Z</time>
      </trkpt>
      <trkpt lat="46.34602" lon="-0.40062">
        <ele>77.4</ele>
        <time>2020-05-31T09:32:24Z</time>
      </trkpt>
      <trkpt lat="46.34602" lon="-0.4007">
        <ele>77.4</ele>
        <time>2020-05-31T09:32:25Z</time>
      </trkpt>
      <trkpt lat="46.34603" lon="-0.40076">
        <ele>77.4</ele>
        <time>2020-05-31T09:32:26Z</time>
      </trkpt>
      <trkpt lat="46.34603" lon="-0.40082">
        <ele>77.4</ele>
        <time>2020-05-31T09:32:27Z</time>
      </trkpt>
      <trkpt lat="46.34605" lon="-0.4009">
        <ele>77.4</ele>
        <time>2020-05-31T09:32:28Z</time>
      </trkpt>
      <trkpt lat="46.34606" lon="-0.40098">
        <ele>77.5</ele>
        <time>2020-05-31T09:32:29Z</time>
      </trkpt>
      <trkpt lat="46.34606" lon="-0.40105">
        <ele>77.5</ele>
        <time>2020-05-31T09:32:30Z</time>
      </trkpt>
      <trkpt lat="46.34606" lon="-0.40111">
        <ele>77.5</ele>
        <time>2020-05-31T09:32:31Z</time>
      </trkpt>
      <trkpt lat="46.34607" lon="-0.40118">
        <ele>77.5</ele>
        <time>2020-05-31T09:32:32Z</time>
      </trkpt>
      <trkpt lat="46.34609" lon="-0.40124">
        <ele>77.5</ele>
        <time>2020-05-31T09:32:33Z</time>
      </trkpt>
      <trkpt lat="46.34609" lon="-0.40132">
        <ele>77.5</ele>
        <time>2020-05-31T09:32:34Z</time>
      </trkpt>
      <trkpt lat="46.3461" lon="-0.4014">
        <ele>77.5</ele>
        <time>2020-05-31T09:32:35Z</time>
      </trkpt>
      <trkpt lat="46.3461" lon="-0.40147">
        <ele>77.5</ele>
        <time>2020-05-31T09:32:36Z</time>
      </trkpt>
      <trkpt lat="46.34611" lon="-0.40155">
        <ele>77.5</ele>
        <time>2020-05-31T09:32:37Z</time>
      </trkpt>
      <trkpt lat="46.34612" lon="-0.40162">
        <ele>77.4</ele>
        <time>2020-05-31T09:32:38Z</time>
      </trkpt>
      <trkpt lat="46.34613" lon="-0.40169">
        <ele>77.4</ele>
        <time>2020-05-31T09:32:39Z</time>
      </trkpt>
      <trkpt lat="46.34614" lon="-0.40177">
        <ele>77.4</ele>
        <time>2020-05-31T09:32:40Z</time>
      </trkpt>
      <trkpt lat="46.34615" lon="-0.40185">
        <ele>77.3</ele>
        <time>2020-05-31T09:32:41Z</time>
      </trkpt>
      <trkpt lat="46.34615" lon="-0.40193">
        <ele>77.3</ele>
        <time>2020-05-31T09:32:42Z</time>
      </trkpt>
      <trkpt lat="46.34615" lon="-0.402">
        <ele>77.2</ele>
        <time>2020-05-31T09:32:43Z</time>
      </trkpt>
      <trkpt lat="46.34616" lon="-0.40208">
        <ele>77.2</ele>
        <time>2020-05-31T09:32:44Z</time>
      </trkpt>
      <trkpt lat="46.34615" lon="-0.40215">
        <ele>77.2</ele>
        <time>2020-05-31T09:32:45Z</time>
      </trkpt>
      <trkpt lat="46.34616" lon="-0.40221">
        <ele>77.2</ele>
        <time>2020-05-31T09:32:46Z</time>
      </trkpt>
      <trkpt lat="46.34617" lon="-0.40228">
        <ele>77.2</ele>
        <time>2020-05-31T09:32:47Z</time>
      </trkpt>
      <trkpt lat="46.34617" lon="-0.40235">
        <ele>77.2</ele>
        <time>2020-05-31T09:32:48Z</time>
      </trkpt>
      <trkpt lat="46.34618" lon="-0.40242">
        <ele>77.1</ele>
        <time>2020-05-31T09:32:49Z</time>
      </trkpt>
      <trkpt lat="46.34618" lon="-0.40251">
        <ele>77.1</ele>
        <time>2020-05-31T09:32:50Z</time>
      </trkpt>
      <trkpt lat="46.34618" lon="-0.40259">
        <ele>77.1</ele>
        <time>2020-05-31T09:32:51Z</time>
      </trkpt>
      <trkpt lat="46.34618" lon="-0.40267">
        <ele>77</ele>
        <time>2020-05-31T09:32:52Z</time>
      </trkpt>
      <trkpt lat="46.34618" lon="-0.40274">
        <ele>76.9</ele>
        <time>2020-05-31T09:32:53Z</time>
      </trkpt>
      <trkpt lat="46.34617" lon="-0.40282">
        <ele>76.8</ele>
        <time>2020-05-31T09:32:54Z</time>
      </trkpt>
      <trkpt lat="46.34617" lon="-0.4029">
        <ele>76.7</ele>
        <time>2020-05-31T09:32:55Z</time>
      </trkpt>
      <trkpt lat="46.34615" lon="-0.40296">
        <ele>76.6</ele>
        <time>2020-05-31T09:32:56Z</time>
      </trkpt>
      <trkpt lat="46.34614" lon="-0.40305">
        <ele>76.5</ele>
        <time>2020-05-31T09:32:57Z</time>
      </trkpt>
      <trkpt lat="46.34614" lon="-0.40314">
        <ele>76.4</ele>
        <time>2020-05-31T09:32:58Z</time>
      </trkpt>
      <trkpt lat="46.34613" lon="-0.40322">
        <ele>76.3</ele>
        <time>2020-05-31T09:32:59Z</time>
      </trkpt>
      <trkpt lat="46.34613" lon="-0.40331">
        <ele>76.2</ele>
        <time>2020-05-31T09:33:00Z</time>
      </trkpt>
      <trkpt lat="46.34611" lon="-0.4034">
        <ele>76.1</ele>
        <time>2020-05-31T09:33:01Z</time>
      </trkpt>
      <trkpt lat="46.3461" lon="-0.40349">
        <ele>76</ele>
        <time>2020-05-31T09:33:02Z</time>
      </trkpt>
      <trkpt lat="46.3461" lon="-0.40358">
        <ele>75.9</ele>
        <time>2020-05-31T09:33:03Z</time>
      </trkpt>
      <trkpt lat="46.34609" lon="-0.40367">
        <ele>75.8</ele>
        <time>2020-05-31T09:33:04Z</time>
      </trkpt>
      <trkpt lat="46.34608" lon="-0.40377">
        <ele>75.7</ele>
        <time>2020-05-31T09:33:05Z</time>
      </trkpt>
      <trkpt lat="46.34607" lon="-0.40387">
        <ele>75.6</ele>
        <time>2020-05-31T09:33:06Z</time>
      </trkpt>
      <trkpt lat="46.34605" lon="-0.40396">
        <ele>75.5</ele>
        <time>2020-05-31T09:33:07Z</time>
      </trkpt>
      <trkpt lat="46.34602" lon="-0.40406">
        <ele>75.5</ele>
        <time>2020-05-31T09:33:08Z</time>
      </trkpt>
      <trkpt lat="46.34601" lon="-0.40413">
        <ele>75.4</ele>
        <time>2020-05-31T09:33:09Z</time>
      </trkpt>
      <trkpt lat="46.34598" lon="-0.40423">
        <ele>75.3</ele>
        <time>2020-05-31T09:33:10Z</time>
      </trkpt>
      <trkpt lat="46.34595" lon="-0.40433">
        <ele>75.1</ele>
        <time>2020-05-31T09:33:11Z</time>
      </trkpt>
      <trkpt lat="46.34593" lon="-0.40443">
        <ele>75</ele>
        <time>2020-05-31T09:33:12Z</time>
      </trkpt>
      <trkpt lat="46.3459" lon="-0.40452">
        <ele>74.9</ele>
        <time>2020-05-31T09:33:13Z</time>
      </trkpt>
      <trkpt lat="46.34588" lon="-0.4046">
        <ele>74.8</ele>
        <time>2020-05-31T09:33:14Z</time>
      </trkpt>
      <trkpt lat="46.34585" lon="-0.40468">
        <ele>74.7</ele>
        <time>2020-05-31T09:33:15Z</time>
      </trkpt>
      <trkpt lat="46.34583" lon="-0.40475">
        <ele>74.6</ele>
        <time>2020-05-31T09:33:16Z</time>
      </trkpt>
      <trkpt lat="46.34582" lon="-0.40483">
        <ele>74.6</ele>
        <time>2020-05-31T09:33:17Z</time>
      </trkpt>
      <trkpt lat="46.34581" lon="-0.40489">
        <ele>74.5</ele>
        <time>2020-05-31T09:33:18Z</time>
      </trkpt>
      <trkpt lat="46.34581" lon="-0.40496">
        <ele>74.4</ele>
        <time>2020-05-31T09:33:19Z</time>
      </trkpt>
      <trkpt lat="46.3458" lon="-0.40503">
        <ele>74.4</ele>
        <time>2020-05-31T09:33:20Z</time>
      </trkpt>
      <trkpt lat="46.34578" lon="-0.40508">
        <ele>74.3</ele>
        <time>2020-05-31T09:33:21Z</time>
      </trkpt>
      <trkpt lat="46.34574" lon="-0.40513">
        <ele>74.2</ele>
        <time>2020-05-31T09:33:22Z</time>
      </trkpt>
      <trkpt lat="46.34569" lon="-0.40518">
        <ele>74.1</ele>
        <time>2020-05-31T09:33:23Z</time>
      </trkpt>
      <trkpt lat="46.34565" lon="-0.40526">
        <ele>74</ele>
        <time>2020-05-31T09:33:24Z</time>
      </trkpt>
      <trkpt lat="46.34562" lon="-0.40533">
        <ele>73.8</ele>
        <time>2020-05-31T09:33:25Z</time>
      </trkpt>
      <trkpt lat="46.34559" lon="-0.40541">
        <ele>73.7</ele>
        <time>2020-05-31T09:33:26Z</time>
      </trkpt>
      <trkpt lat="46.34555" lon="-0.40549">
        <ele>73.6</ele>
        <time>2020-05-31T09:33:27Z</time>
      </trkpt>
      <trkpt lat="46.34551" lon="-0.40557">
        <ele>73.4</ele>
        <time>2020-05-31T09:33:28Z</time>
      </trkpt>
      <trkpt lat="46.34549" lon="-0.40561">
        <ele>73.4</ele>
        <time>2020-05-31T09:33:29Z</time>
      </trkpt>
      <trkpt lat="46.34545" lon="-0.40569">
        <ele>73.2</ele>
        <time>2020-05-31T09:33:30Z</time>
      </trkpt>
      <trkpt lat="46.34542" lon="-0.40577">
        <ele>73.1</ele>
        <time>2020-05-31T09:33:31Z</time>
      </trkpt>
      <trkpt lat="46.34538" lon="-0.40585">
        <ele>73</ele>
        <time>2020-05-31T09:33:32Z</time>
      </trkpt>
      <trkpt lat="46.34535" lon="-0.40592">
        <ele>72.8</ele>
        <time>2020-05-31T09:33:33Z</time>
      </trkpt>
      <trkpt lat="46.34531" lon="-0.406">
        <ele>72.7</ele>
        <time>2020-05-31T09:33:34Z</time>
      </trkpt>
      <trkpt lat="46.34528" lon="-0.40607">
        <ele>72.5</ele>
        <time>2020-05-31T09:33:35Z</time>
      </trkpt>
      <trkpt lat="46.34525" lon="-0.40615">
        <ele>72.3</ele>
        <time>2020-05-31T09:33:36Z</time>
      </trkpt>
      <trkpt lat="46.34522" lon="-0.40623">
        <ele>72.2</ele>
        <time>2020-05-31T09:33:37Z</time>
      </trkpt>
      <trkpt lat="46.34518" lon="-0.4063">
        <ele>72.1</ele>
        <time>2020-05-31T09:33:38Z</time>
      </trkpt>
      <trkpt lat="46.34515" lon="-0.40636">
        <ele>72</ele>
        <time>2020-05-31T09:33:39Z</time>
      </trkpt>
      <trkpt lat="46.34511" lon="-0.40643">
        <ele>71.9</ele>
        <time>2020-05-31T09:33:40Z</time>
      </trkpt>
      <trkpt lat="46.34506" lon="-0.4065">
        <ele>71.9</ele>
        <time>2020-05-31T09:33:41Z</time>
      </trkpt>
      <trkpt lat="46.34503" lon="-0.40658">
        <ele>71.9</ele>
        <time>2020-05-31T09:33:42Z</time>
      </trkpt>
      <trkpt lat="46.34501" lon="-0.40666">
        <ele>71.8</ele>
        <time>2020-05-31T09:33:43Z</time>
      </trkpt>
      <trkpt lat="46.34498" lon="-0.40675">
        <ele>71.7</ele>
        <time>2020-05-31T09:33:44Z</time>
      </trkpt>
      <trkpt lat="46.34496" lon="-0.40683">
        <ele>71.6</ele>
        <time>2020-05-31T09:33:45Z</time>
      </trkpt>
      <trkpt lat="46.34494" lon="-0.4069">
        <ele>71.6</ele>
        <time>2020-05-31T09:33:46Z</time>
      </trkpt>
      <trkpt lat="46.34491" lon="-0.40698">
        <ele>71.5</ele>
        <time>2020-05-31T09:33:47Z</time>
      </trkpt>
      <trkpt lat="46.34488" lon="-0.40707">
        <ele>71.4</ele>
        <time>2020-05-31T09:33:48Z</time>
      </trkpt>
      <trkpt lat="46.34487" lon="-0.40715">
        <ele>71.3</ele>
        <time>2020-05-31T09:33:49Z</time>
      </trkpt>
      <trkpt lat="46.34484" lon="-0.40724">
        <ele>71.1</ele>
        <time>2020-05-31T09:33:50Z</time>
      </trkpt>
      <trkpt lat="46.34483" lon="-0.40731">
        <ele>71.1</ele>
        <time>2020-05-31T09:33:51Z</time>
      </trkpt>
      <trkpt lat="46.34481" lon="-0.40739">
        <ele>71</ele>
        <time>2020-05-31T09:33:52Z</time>
      </trkpt>
      <trkpt lat="46.34479" lon="-0.40746">
        <ele>70.9</ele>
        <time>2020-05-31T09:33:53Z</time>
      </trkpt>
      <trkpt lat="46.34476" lon="-0.40753">
        <ele>70.9</ele>
        <time>2020-05-31T09:33:54Z</time>
      </trkpt>
      <trkpt lat="46.34473" lon="-0.40759">
        <ele>70.9</ele>
        <time>2020-05-31T09:33:55Z</time>
      </trkpt>
      <trkpt lat="46.34471" lon="-0.40767">
        <ele>70.9</ele>
        <time>2020-05-31T09:33:56Z</time>
      </trkpt>
      <trkpt lat="46.34469" lon="-0.40774">
        <ele>70.8</ele>
        <time>2020-05-31T09:33:57Z</time>
      </trkpt>
      <trkpt lat="46.34467" lon="-0.40781">
        <ele>70.7</ele>
        <time>2020-05-31T09:33:58Z</time>
      </trkpt>
      <trkpt lat="46.34464" lon="-0.40788">
        <ele>70.7</ele>
        <time>2020-05-31T09:33:59Z</time>
      </trkpt>
      <trkpt lat="46.34462" lon="-0.40796">
        <ele>70.6</ele>
        <time>2020-05-31T09:34:00Z</time>
      </trkpt>
      <trkpt lat="46.34459" lon="-0.40803">
        <ele>70.5</ele>
        <time>2020-05-31T09:34:01Z</time>
      </trkpt>
      <trkpt lat="46.34455" lon="-0.4081">
        <ele>70.4</ele>
        <time>2020-05-31T09:34:02Z</time>
      </trkpt>
      <trkpt lat="46.34451" lon="-0.40816">
        <ele>70.3</ele>
        <time>2020-05-31T09:34:03Z</time>
      </trkpt>
      <trkpt lat="46.34447" lon="-0.40824">
        <ele>70.2</ele>
        <time>2020-05-31T09:34:04Z</time>
      </trkpt>
      <trkpt lat="46.34443" lon="-0.4083">
        <ele>70.1</ele>
        <time>2020-05-31T09:34:05Z</time>
      </trkpt>
      <trkpt lat="46.3444" lon="-0.40838">
        <ele>70</ele>
        <time>2020-05-31T09:34:06Z</time>
      </trkpt>
      <trkpt lat="46.34436" lon="-0.40844">
        <ele>69.9</ele>
        <time>2020-05-31T09:34:07Z</time>
      </trkpt>
      <trkpt lat="46.34432" lon="-0.40851">
        <ele>69.8</ele>
        <time>2020-05-31T09:34:08Z</time>
      </trkpt>
      <trkpt lat="46.34429" lon="-0.40857">
        <ele>69.8</ele>
        <time>2020-05-31T09:34:09Z</time>
      </trkpt>
      <trkpt lat="46.34426" lon="-0.40863">
        <ele>69.7</ele>
        <time>2020-05-31T09:34:10Z</time>
      </trkpt>
      <trkpt lat="46.34422" lon="-0.40869">
        <ele>69.6</ele>
        <time>2020-05-31T09:34:11Z</time>
      </trkpt>
      <trkpt lat="46.34418" lon="-0.40876">
        <ele>69.6</ele>
        <time>2020-05-31T09:34:12Z</time>
      </trkpt>
      <trkpt lat="46.34415" lon="-0.40883">
        <ele>69.5</ele>
        <time>2020-05-31T09:34:13Z</time>
      </trkpt>
      <trkpt lat="46.34411" lon="-0.40889">
        <ele>69.4</ele>
        <time>2020-05-31T09:34:14Z</time>
      </trkpt>
      <trkpt lat="46.34408" lon="-0.40897">
        <ele>69.4</ele>
        <time>2020-05-31T09:34:15Z</time>
      </trkpt>
      <trkpt lat="46.34405" lon="-0.40904">
        <ele>69.3</ele>
        <time>2020-05-31T09:34:16Z</time>
      </trkpt>
      <trkpt lat="46.34401" lon="-0.4091">
        <ele>69.3</ele>
        <time>2020-05-31T09:34:17Z</time>
      </trkpt>
      <trkpt lat="46.34397" lon="-0.40916">
        <ele>69.3</ele>
        <time>2020-05-31T09:34:18Z</time>
      </trkpt>
      <trkpt lat="46.34394" lon="-0.40922">
        <ele>69.3</ele>
        <time>2020-05-31T09:34:19Z</time>
      </trkpt>
      <trkpt lat="46.34392" lon="-0.40929">
        <ele>69.3</ele>
        <time>2020-05-31T09:34:20Z</time>
      </trkpt>
      <trkpt lat="46.3439" lon="-0.40936">
        <ele>69.4</ele>
        <time>2020-05-31T09:34:21Z</time>
      </trkpt>
      <trkpt lat="46.34388" lon="-0.40943">
        <ele>69.4</ele>
        <time>2020-05-31T09:34:22Z</time>
      </trkpt>
      <trkpt lat="46.34386" lon="-0.40951">
        <ele>69.5</ele>
        <time>2020-05-31T09:34:23Z</time>
      </trkpt>
      <trkpt lat="46.34383" lon="-0.40959">
        <ele>69.5</ele>
        <time>2020-05-31T09:34:24Z</time>
      </trkpt>
      <trkpt lat="46.34381" lon="-0.40964">
        <ele>69.5</ele>
        <time>2020-05-31T09:34:25Z</time>
      </trkpt>
      <trkpt lat="46.34379" lon="-0.40972">
        <ele>69.5</ele>
        <time>2020-05-31T09:34:26Z</time>
      </trkpt>
      <trkpt lat="46.34376" lon="-0.4098">
        <ele>69.4</ele>
        <time>2020-05-31T09:34:27Z</time>
      </trkpt>
      <trkpt lat="46.34374" lon="-0.40987">
        <ele>69.4</ele>
        <time>2020-05-31T09:34:28Z</time>
      </trkpt>
      <trkpt lat="46.34371" lon="-0.40993">
        <ele>69.4</ele>
        <time>2020-05-31T09:34:29Z</time>
      </trkpt>
      <trkpt lat="46.34369" lon="-0.41001">
        <ele>69.3</ele>
        <time>2020-05-31T09:34:30Z</time>
      </trkpt>
      <trkpt lat="46.34366" lon="-0.41011">
        <ele>69.3</ele>
        <time>2020-05-31T09:34:31Z</time>
      </trkpt>
      <trkpt lat="46.34364" lon="-0.41017">
        <ele>69.3</ele>
        <time>2020-05-31T09:34:32Z</time>
      </trkpt>
      <trkpt lat="46.34362" lon="-0.41025">
        <ele>69.3</ele>
        <time>2020-05-31T09:34:33Z</time>
      </trkpt>
      <trkpt lat="46.3436" lon="-0.41031">
        <ele>69.3</ele>
        <time>2020-05-31T09:34:34Z</time>
      </trkpt>
      <trkpt lat="46.34357" lon="-0.41037">
        <ele>69.3</ele>
        <time>2020-05-31T09:34:35Z</time>
      </trkpt>
      <trkpt lat="46.34355" lon="-0.41043">
        <ele>69.4</ele>
        <time>2020-05-31T09:34:36Z</time>
      </trkpt>
      <trkpt lat="46.34354" lon="-0.41049">
        <ele>69.4</ele>
        <time>2020-05-31T09:34:37Z</time>
      </trkpt>
      <trkpt lat="46.34351" lon="-0.41057">
        <ele>69.4</ele>
        <time>2020-05-31T09:34:38Z</time>
      </trkpt>
      <trkpt lat="46.34349" lon="-0.41063">
        <ele>69.5</ele>
        <time>2020-05-31T09:34:39Z</time>
      </trkpt>
      <trkpt lat="46.34347" lon="-0.41069">
        <ele>69.5</ele>
        <time>2020-05-31T09:34:40Z</time>
      </trkpt>
      <trkpt lat="46.34343" lon="-0.41076">
        <ele>69.5</ele>
        <time>2020-05-31T09:34:41Z</time>
      </trkpt>
      <trkpt lat="46.34341" lon="-0.41084">
        <ele>69.6</ele>
        <time>2020-05-31T09:34:42Z</time>
      </trkpt>
      <trkpt lat="46.34339" lon="-0.4109">
        <ele>69.6</ele>
        <time>2020-05-31T09:34:43Z</time>
      </trkpt>
      <trkpt lat="46.34337" lon="-0.41097">
        <ele>69.7</ele>
        <time>2020-05-31T09:34:44Z</time>
      </trkpt>
      <trkpt lat="46.34334" lon="-0.41104">
        <ele>69.7</ele>
        <time>2020-05-31T09:34:45Z</time>
      </trkpt>
      <trkpt lat="46.34331" lon="-0.4111">
        <ele>69.8</ele>
        <time>2020-05-31T09:34:46Z</time>
      </trkpt>
      <trkpt lat="46.34328" lon="-0.41118">
        <ele>69.9</ele>
        <time>2020-05-31T09:34:47Z</time>
      </trkpt>
      <trkpt lat="46.34327" lon="-0.41125">
        <ele>69.9</ele>
        <time>2020-05-31T09:34:48Z</time>
      </trkpt>
      <trkpt lat="46.34325" lon="-0.41132">
        <ele>70</ele>
        <time>2020-05-31T09:34:49Z</time>
      </trkpt>
      <trkpt lat="46.34323" lon="-0.4114">
        <ele>70.1</ele>
        <time>2020-05-31T09:34:50Z</time>
      </trkpt>
      <trkpt lat="46.34321" lon="-0.41149">
        <ele>70.2</ele>
        <time>2020-05-31T09:34:51Z</time>
      </trkpt>
      <trkpt lat="46.3432" lon="-0.41157">
        <ele>70.3</ele>
        <time>2020-05-31T09:34:52Z</time>
      </trkpt>
      <trkpt lat="46.34317" lon="-0.41164">
        <ele>70.4</ele>
        <time>2020-05-31T09:34:53Z</time>
      </trkpt>
      <trkpt lat="46.34315" lon="-0.41171">
        <ele>70.4</ele>
        <time>2020-05-31T09:34:54Z</time>
      </trkpt>
      <trkpt lat="46.34313" lon="-0.41178">
        <ele>70.5</ele>
        <time>2020-05-31T09:34:55Z</time>
      </trkpt>
      <trkpt lat="46.34311" lon="-0.41185">
        <ele>70.5</ele>
        <time>2020-05-31T09:34:56Z</time>
      </trkpt>
      <trkpt lat="46.34309" lon="-0.41193">
        <ele>70.5</ele>
        <time>2020-05-31T09:34:57Z</time>
      </trkpt>
      <trkpt lat="46.34307" lon="-0.412">
        <ele>70.5</ele>
        <time>2020-05-31T09:34:58Z</time>
      </trkpt>
      <trkpt lat="46.34305" lon="-0.41207">
        <ele>70.5</ele>
        <time>2020-05-31T09:34:59Z</time>
      </trkpt>
      <trkpt lat="46.34304" lon="-0.41215">
        <ele>70.5</ele>
        <time>2020-05-31T09:35:00Z</time>
      </trkpt>
      <trkpt lat="46.34302" lon="-0.4122">
        <ele>70.5</ele>
        <time>2020-05-31T09:35:01Z</time>
      </trkpt>
      <trkpt lat="46.34301" lon="-0.41228">
        <ele>70.5</ele>
        <time>2020-05-31T09:35:02Z</time>
      </trkpt>
      <trkpt lat="46.34299" lon="-0.41237">
        <ele>70.5</ele>
        <time>2020-05-31T09:35:03Z</time>
      </trkpt>
      <trkpt lat="46.34296" lon="-0.41243">
        <ele>70.5</ele>
        <time>2020-05-31T09:35:04Z</time>
      </trkpt>
      <trkpt lat="46.34295" lon="-0.41251">
        <ele>70.5</ele>
        <time>2020-05-31T09:35:05Z</time>
      </trkpt>
      <trkpt lat="46.34293" lon="-0.41259">
        <ele>70.5</ele>
        <time>2020-05-31T09:35:06Z</time>
      </trkpt>
      <trkpt lat="46.34291" lon="-0.41265">
        <ele>70.6</ele>
        <time>2020-05-31T09:35:07Z</time>
      </trkpt>
      <trkpt lat="46.3429" lon="-0.41274">
        <ele>70.6</ele>
        <time>2020-05-31T09:35:08Z</time>
      </trkpt>
      <trkpt lat="46.34289" lon="-0.4128">
        <ele>70.6</ele>
        <time>2020-05-31T09:35:09Z</time>
      </trkpt>
      <trkpt lat="46.34287" lon="-0.41288">
        <ele>70.6</ele>
        <time>2020-05-31T09:35:10Z</time>
      </trkpt>
      <trkpt lat="46.34286" lon="-0.41297">
        <ele>70.6</ele>
        <time>2020-05-31T09:35:11Z</time>
      </trkpt>
      <trkpt lat="46.34285" lon="-0.41304">
        <ele>70.6</ele>
        <time>2020-05-31T09:35:12Z</time>
      </trkpt>
      <trkpt lat="46.34284" lon="-0.41309">
        <ele>70.7</ele>
        <time>2020-05-31T09:35:13Z</time>
      </trkpt>
      <trkpt lat="46.34282" lon="-0.41317">
        <ele>70.7</ele>
        <time>2020-05-31T09:35:14Z</time>
      </trkpt>
      <trkpt lat="46.34281" lon="-0.41325">
        <ele>70.7</ele>
        <time>2020-05-31T09:35:15Z</time>
      </trkpt>
      <trkpt lat="46.34281" lon="-0.41332">
        <ele>70.7</ele>
        <time>2020-05-31T09:35:16Z</time>
      </trkpt>
      <trkpt lat="46.34279" lon="-0.41341">
        <ele>70.7</ele>
        <time>2020-05-31T09:35:17Z</time>
      </trkpt>
      <trkpt lat="46.34278" lon="-0.41349">
        <ele>70.7</ele>
        <time>2020-05-31T09:35:18Z</time>
      </trkpt>
      <trkpt lat="46.34278" lon="-0.41357">
        <ele>70.7</ele>
        <time>2020-05-31T09:35:19Z</time>
      </trkpt>
      <trkpt lat="46.34277" lon="-0.41364">
        <ele>70.7</ele>
        <time>2020-05-31T09:35:20Z</time>
      </trkpt>
      <trkpt lat="46.34276" lon="-0.41371">
        <ele>70.7</ele>
        <time>2020-05-31T09:35:21Z</time>
      </trkpt>
      <trkpt lat="46.34274" lon="-0.41378">
        <ele>70.6</ele>
        <time>2020-05-31T09:35:22Z</time>
      </trkpt>
      <trkpt lat="46.34272" lon="-0.41386">
        <ele>70.6</ele>
        <time>2020-05-31T09:35:23Z</time>
      </trkpt>
      <trkpt lat="46.3427" lon="-0.41394">
        <ele>70.6</ele>
        <time>2020-05-31T09:35:24Z</time>
      </trkpt>
      <trkpt lat="46.34268" lon="-0.41402">
        <ele>70.6</ele>
        <time>2020-05-31T09:35:25Z</time>
      </trkpt>
      <trkpt lat="46.34266" lon="-0.4141">
        <ele>70.6</ele>
        <time>2020-05-31T09:35:26Z</time>
      </trkpt>
      <trkpt lat="46.34265" lon="-0.41418">
        <ele>70.6</ele>
        <time>2020-05-31T09:35:27Z</time>
      </trkpt>
      <trkpt lat="46.34264" lon="-0.41425">
        <ele>70.6</ele>
        <time>2020-05-31T09:35:28Z</time>
      </trkpt>
      <trkpt lat="46.34263" lon="-0.41434">
        <ele>70.6</ele>
        <time>2020-05-31T09:35:29Z</time>
      </trkpt>
      <trkpt lat="46.34261" lon="-0.41442">
        <ele>70.6</ele>
        <time>2020-05-31T09:35:30Z</time>
      </trkpt>
      <trkpt lat="46.3426" lon="-0.4145">
        <ele>70.6</ele>
        <time>2020-05-31T09:35:31Z</time>
      </trkpt>
      <trkpt lat="46.34258" lon="-0.41458">
        <ele>70.5</ele>
        <time>2020-05-31T09:35:32Z</time>
      </trkpt>
      <trkpt lat="46.34255" lon="-0.41466">
        <ele>70.5</ele>
        <time>2020-05-31T09:35:33Z</time>
      </trkpt>
      <trkpt lat="46.34253" lon="-0.41473">
        <ele>70.4</ele>
        <time>2020-05-31T09:35:34Z</time>
      </trkpt>
      <trkpt lat="46.34251" lon="-0.4148">
        <ele>70.3</ele>
        <time>2020-05-31T09:35:35Z</time>
      </trkpt>
      <trkpt lat="46.3425" lon="-0.4149">
        <ele>70.3</ele>
        <time>2020-05-31T09:35:36Z</time>
      </trkpt>
      <trkpt lat="46.34248" lon="-0.41497">
        <ele>70.2</ele>
        <time>2020-05-31T09:35:37Z</time>
      </trkpt>
      <trkpt lat="46.34246" lon="-0.41504">
        <ele>70.2</ele>
        <time>2020-05-31T09:35:38Z</time>
      </trkpt>
      <trkpt lat="46.34244" lon="-0.41512">
        <ele>70.2</ele>
        <time>2020-05-31T09:35:39Z</time>
      </trkpt>
      <trkpt lat="46.34241" lon="-0.41519">
        <ele>70.2</ele>
        <time>2020-05-31T09:35:40Z</time>
      </trkpt>
      <trkpt lat="46.34238" lon="-0.41527">
        <ele>70.2</ele>
        <time>2020-05-31T09:35:41Z</time>
      </trkpt>
      <trkpt lat="46.34233" lon="-0.41535">
        <ele>70.2</ele>
        <time>2020-05-31T09:35:42Z</time>
      </trkpt>
      <trkpt lat="46.34228" lon="-0.41542">
        <ele>70.2</ele>
        <time>2020-05-31T09:35:43Z</time>
      </trkpt>
      <trkpt lat="46.34224" lon="-0.41548">
        <ele>70.2</ele>
        <time>2020-05-31T09:35:44Z</time>
      </trkpt>
      <trkpt lat="46.3422" lon="-0.41553">
        <ele>70.2</ele>
        <time>2020-05-31T09:35:45Z</time>
      </trkpt>
      <trkpt lat="46.34216" lon="-0.41558">
        <ele>70.1</ele>
        <time>2020-05-31T09:35:46Z</time>
      </trkpt>
      <trkpt lat="46.34211" lon="-0.41564">
        <ele>70.1</ele>
        <time>2020-05-31T09:35:47Z</time>
      </trkpt>
      <trkpt lat="46.34207" lon="-0.4157">
        <ele>70.1</ele>
        <time>2020-05-31T09:35:48Z</time>
      </trkpt>
      <trkpt lat="46.34202" lon="-0.41576">
        <ele>70</ele>
        <time>2020-05-31T09:35:49Z</time>
      </trkpt>
      <trkpt lat="46.34197" lon="-0.41582">
        <ele>70</ele>
        <time>2020-05-31T09:35:50Z</time>
      </trkpt>
      <trkpt lat="46.34193" lon="-0.41586">
        <ele>70</ele>
        <time>2020-05-31T09:35:51Z</time>
      </trkpt>
      <trkpt lat="46.34189" lon="-0.41593">
        <ele>69.8</ele>
        <time>2020-05-31T09:35:52Z</time>
      </trkpt>
      <trkpt lat="46.34184" lon="-0.41598">
        <ele>69.7</ele>
        <time>2020-05-31T09:35:53Z</time>
      </trkpt>
      <trkpt lat="46.3418" lon="-0.41603">
        <ele>69.6</ele>
        <time>2020-05-31T09:35:54Z</time>
      </trkpt>
      <trkpt lat="46.34176" lon="-0.41609">
        <ele>69.5</ele>
        <time>2020-05-31T09:35:55Z</time>
      </trkpt>
      <trkpt lat="46.34171" lon="-0.41615">
        <ele>69.3</ele>
        <time>2020-05-31T09:35:56Z</time>
      </trkpt>
      <trkpt lat="46.34166" lon="-0.4162">
        <ele>69.2</ele>
        <time>2020-05-31T09:35:57Z</time>
      </trkpt>
      <trkpt lat="46.34162" lon="-0.41625">
        <ele>69.1</ele>
        <time>2020-05-31T09:35:58Z</time>
      </trkpt>
      <trkpt lat="46.34156" lon="-0.41633">
        <ele>68.9</ele>
        <time>2020-05-31T09:35:59Z</time>
      </trkpt>
      <trkpt lat="46.34153" lon="-0.41637">
        <ele>68.9</ele>
        <time>2020-05-31T09:36:00Z</time>
      </trkpt>
      <trkpt lat="46.34149" lon="-0.41642">
        <ele>68.8</ele>
        <time>2020-05-31T09:36:01Z</time>
      </trkpt>
      <trkpt lat="46.34145" lon="-0.41647">
        <ele>68.8</ele>
        <time>2020-05-31T09:36:02Z</time>
      </trkpt>
      <trkpt lat="46.34141" lon="-0.41653">
        <ele>68.8</ele>
        <time>2020-05-31T09:36:03Z</time>
      </trkpt>
      <trkpt lat="46.34136" lon="-0.41658">
        <ele>68.7</ele>
        <time>2020-05-31T09:36:04Z</time>
      </trkpt>
      <trkpt lat="46.34132" lon="-0.41663">
        <ele>68.7</ele>
        <time>2020-05-31T09:36:05Z</time>
      </trkpt>
      <trkpt lat="46.34128" lon="-0.41668">
        <ele>68.6</ele>
        <time>2020-05-31T09:36:06Z</time>
      </trkpt>
      <trkpt lat="46.34124" lon="-0.41674">
        <ele>68.5</ele>
        <time>2020-05-31T09:36:07Z</time>
      </trkpt>
      <trkpt lat="46.3412" lon="-0.4168">
        <ele>68.5</ele>
        <time>2020-05-31T09:36:08Z</time>
      </trkpt>
      <trkpt lat="46.34116" lon="-0.41687">
        <ele>68.3</ele>
        <time>2020-05-31T09:36:09Z</time>
      </trkpt>
      <trkpt lat="46.34113" lon="-0.41692">
        <ele>68.3</ele>
        <time>2020-05-31T09:36:10Z</time>
      </trkpt>
      <trkpt lat="46.34108" lon="-0.41699">
        <ele>68.2</ele>
        <time>2020-05-31T09:36:11Z</time>
      </trkpt>
      <trkpt lat="46.34104" lon="-0.41705">
        <ele>68.1</ele>
        <time>2020-05-31T09:36:12Z</time>
      </trkpt>
      <trkpt lat="46.34101" lon="-0.4171">
        <ele>68.1</ele>
        <time>2020-05-31T09:36:13Z</time>
      </trkpt>
      <trkpt lat="46.34096" lon="-0.41718">
        <ele>68.1</ele>
        <time>2020-05-31T09:36:14Z</time>
      </trkpt>
      <trkpt lat="46.34092" lon="-0.41724">
        <ele>68</ele>
        <time>2020-05-31T09:36:15Z</time>
      </trkpt>
      <trkpt lat="46.34088" lon="-0.4173">
        <ele>68</ele>
        <time>2020-05-31T09:36:16Z</time>
      </trkpt>
      <trkpt lat="46.34086" lon="-0.41736">
        <ele>68</ele>
        <time>2020-05-31T09:36:17Z</time>
      </trkpt>
      <trkpt lat="46.34082" lon="-0.41744">
        <ele>67.8</ele>
        <time>2020-05-31T09:36:18Z</time>
      </trkpt>
      <trkpt lat="46.34079" lon="-0.4175">
        <ele>67.8</ele>
        <time>2020-05-31T09:36:19Z</time>
      </trkpt>
      <trkpt lat="46.34075" lon="-0.41754">
        <ele>67.7</ele>
        <time>2020-05-31T09:36:20Z</time>
      </trkpt>
      <trkpt lat="46.3407" lon="-0.4176">
        <ele>67.6</ele>
        <time>2020-05-31T09:36:21Z</time>
      </trkpt>
      <trkpt lat="46.34066" lon="-0.41766">
        <ele>67.5</ele>
        <time>2020-05-31T09:36:22Z</time>
      </trkpt>
      <trkpt lat="46.34061" lon="-0.41772">
        <ele>67.5</ele>
        <time>2020-05-31T09:36:23Z</time>
      </trkpt>
      <trkpt lat="46.34058" lon="-0.41776">
        <ele>67.5</ele>
        <time>2020-05-31T09:36:24Z</time>
      </trkpt>
      <trkpt lat="46.34054" lon="-0.41782">
        <ele>67.4</ele>
        <time>2020-05-31T09:36:25Z</time>
      </trkpt>
      <trkpt lat="46.3405" lon="-0.41788">
        <ele>67.3</ele>
        <time>2020-05-31T09:36:26Z</time>
      </trkpt>
      <trkpt lat="46.34046" lon="-0.41796">
        <ele>67.2</ele>
        <time>2020-05-31T09:36:27Z</time>
      </trkpt>
      <trkpt lat="46.34042" lon="-0.41803">
        <ele>67.1</ele>
        <time>2020-05-31T09:36:28Z</time>
      </trkpt>
      <trkpt lat="46.34039" lon="-0.4181">
        <ele>67</ele>
        <time>2020-05-31T09:36:29Z</time>
      </trkpt>
      <trkpt lat="46.34035" lon="-0.41817">
        <ele>66.9</ele>
        <time>2020-05-31T09:36:30Z</time>
      </trkpt>
      <trkpt lat="46.34033" lon="-0.41822">
        <ele>66.8</ele>
        <time>2020-05-31T09:36:31Z</time>
      </trkpt>
      <trkpt lat="46.34029" lon="-0.4183">
        <ele>66.7</ele>
        <time>2020-05-31T09:36:32Z</time>
      </trkpt>
      <trkpt lat="46.34025" lon="-0.41836">
        <ele>66.7</ele>
        <time>2020-05-31T09:36:33Z</time>
      </trkpt>
      <trkpt lat="46.34022" lon="-0.41843">
        <ele>66.6</ele>
        <time>2020-05-31T09:36:34Z</time>
      </trkpt>
      <trkpt lat="46.34018" lon="-0.41848">
        <ele>66.5</ele>
        <time>2020-05-31T09:36:35Z</time>
      </trkpt>
      <trkpt lat="46.34014" lon="-0.41855">
        <ele>66.4</ele>
        <time>2020-05-31T09:36:36Z</time>
      </trkpt>
      <trkpt lat="46.3401" lon="-0.41861">
        <ele>66.3</ele>
        <time>2020-05-31T09:36:37Z</time>
      </trkpt>
      <trkpt lat="46.34004" lon="-0.41869">
        <ele>66.1</ele>
        <time>2020-05-31T09:36:38Z</time>
      </trkpt>
      <trkpt lat="46.34" lon="-0.41876">
        <ele>66</ele>
        <time>2020-05-31T09:36:39Z</time>
      </trkpt>
      <trkpt lat="46.33996" lon="-0.41883">
        <ele>65.9</ele>
        <time>2020-05-31T09:36:40Z</time>
      </trkpt>
      <trkpt lat="46.33991" lon="-0.41888">
        <ele>65.9</ele>
        <time>2020-05-31T09:36:41Z</time>
      </trkpt>
      <trkpt lat="46.33987" lon="-0.41895">
        <ele>65.9</ele>
        <time>2020-05-31T09:36:42Z</time>
      </trkpt>
      <trkpt lat="46.33983" lon="-0.41902">
        <ele>65.8</ele>
        <time>2020-05-31T09:36:43Z</time>
      </trkpt>
      <trkpt lat="46.3398" lon="-0.4191">
        <ele>65.6</ele>
        <time>2020-05-31T09:36:44Z</time>
      </trkpt>
      <trkpt lat="46.33976" lon="-0.41919">
        <ele>65.5</ele>
        <time>2020-05-31T09:36:45Z</time>
      </trkpt>
      <trkpt lat="46.33971" lon="-0.41928">
        <ele>65.4</ele>
        <time>2020-05-31T09:36:46Z</time>
      </trkpt>
      <trkpt lat="46.33967" lon="-0.41937">
        <ele>65.2</ele>
        <time>2020-05-31T09:36:47Z</time>
      </trkpt>
      <trkpt lat="46.33962" lon="-0.41946">
        <ele>65.1</ele>
        <time>2020-05-31T09:36:48Z</time>
      </trkpt>
      <trkpt lat="46.33958" lon="-0.41954">
        <ele>65</ele>
        <time>2020-05-31T09:36:49Z</time>
      </trkpt>
      <trkpt lat="46.33954" lon="-0.41962">
        <ele>64.8</ele>
        <time>2020-05-31T09:36:50Z</time>
      </trkpt>
      <trkpt lat="46.33951" lon="-0.41969">
        <ele>64.7</ele>
        <time>2020-05-31T09:36:51Z</time>
      </trkpt>
      <trkpt lat="46.33947" lon="-0.41978">
        <ele>64.5</ele>
        <time>2020-05-31T09:36:52Z</time>
      </trkpt>
      <trkpt lat="46.33942" lon="-0.41985">
        <ele>64.3</ele>
        <time>2020-05-31T09:36:53Z</time>
      </trkpt>
      <trkpt lat="46.33938" lon="-0.41993">
        <ele>64.1</ele>
        <time>2020-05-31T09:36:54Z</time>
      </trkpt>
      <trkpt lat="46.33934" lon="-0.42002">
        <ele>64</ele>
        <time>2020-05-31T09:36:55Z</time>
      </trkpt>
      <trkpt lat="46.3393" lon="-0.4201">
        <ele>63.9</ele>
        <time>2020-05-31T09:36:56Z</time>
      </trkpt>
      <trkpt lat="46.33927" lon="-0.42019">
        <ele>63.8</ele>
        <time>2020-05-31T09:36:57Z</time>
      </trkpt>
      <trkpt lat="46.33923" lon="-0.42029">
        <ele>63.6</ele>
        <time>2020-05-31T09:36:58Z</time>
      </trkpt>
      <trkpt lat="46.3392" lon="-0.42038">
        <ele>63.5</ele>
        <time>2020-05-31T09:36:59Z</time>
      </trkpt>
      <trkpt lat="46.33916" lon="-0.42046">
        <ele>63.3</ele>
        <time>2020-05-31T09:37:00Z</time>
      </trkpt>
      <trkpt lat="46.33913" lon="-0.42054">
        <ele>63.2</ele>
        <time>2020-05-31T09:37:01Z</time>
      </trkpt>
      <trkpt lat="46.3391" lon="-0.42062">
        <ele>63.1</ele>
        <time>2020-05-31T09:37:02Z</time>
      </trkpt>
      <trkpt lat="46.33908" lon="-0.4207">
        <ele>62.9</ele>
        <time>2020-05-31T09:37:03Z</time>
      </trkpt>
      <trkpt lat="46.33908" lon="-0.42077">
        <ele>62.9</ele>
        <time>2020-05-31T09:37:04Z</time>
      </trkpt>
      <trkpt lat="46.33913" lon="-0.42083">
        <ele>62.9</ele>
        <time>2020-05-31T09:37:05Z</time>
      </trkpt>
      <trkpt lat="46.33918" lon="-0.42087">
        <ele>62.8</ele>
        <time>2020-05-31T09:37:06Z</time>
      </trkpt>
      <trkpt lat="46.33922" lon="-0.42092">
        <ele>62.7</ele>
        <time>2020-05-31T09:37:07Z</time>
      </trkpt>
      <trkpt lat="46.33925" lon="-0.42099">
        <ele>62.6</ele>
        <time>2020-05-31T09:37:08Z</time>
      </trkpt>
      <trkpt lat="46.33929" lon="-0.42104">
        <ele>62.5</ele>
        <time>2020-05-31T09:37:09Z</time>
      </trkpt>
      <trkpt lat="46.33932" lon="-0.4211">
        <ele>62.3</ele>
        <time>2020-05-31T09:37:10Z</time>
      </trkpt>
      <trkpt lat="46.33936" lon="-0.42116">
        <ele>62.2</ele>
        <time>2020-05-31T09:37:11Z</time>
      </trkpt>
      <trkpt lat="46.3394" lon="-0.42121">
        <ele>62</ele>
        <time>2020-05-31T09:37:12Z</time>
      </trkpt>
      <trkpt lat="46.33944" lon="-0.42127">
        <ele>61.9</ele>
        <time>2020-05-31T09:37:13Z</time>
      </trkpt>
      <trkpt lat="46.33949" lon="-0.42133">
        <ele>61.7</ele>
        <time>2020-05-31T09:37:14Z</time>
      </trkpt>
      <trkpt lat="46.33954" lon="-0.4214">
        <ele>61.5</ele>
        <time>2020-05-31T09:37:15Z</time>
      </trkpt>
      <trkpt lat="46.33959" lon="-0.42147">
        <ele>61.2</ele>
        <time>2020-05-31T09:37:16Z</time>
      </trkpt>
      <trkpt lat="46.33964" lon="-0.42153">
        <ele>61</ele>
        <time>2020-05-31T09:37:17Z</time>
      </trkpt>
      <trkpt lat="46.3397" lon="-0.4216">
        <ele>60.7</ele>
        <time>2020-05-31T09:37:18Z</time>
      </trkpt>
      <trkpt lat="46.33975" lon="-0.42167">
        <ele>60.5</ele>
        <time>2020-05-31T09:37:19Z</time>
      </trkpt>
      <trkpt lat="46.3398" lon="-0.42174">
        <ele>60.2</ele>
        <time>2020-05-31T09:37:20Z</time>
      </trkpt>
      <trkpt lat="46.33985" lon="-0.42182">
        <ele>59.8</ele>
        <time>2020-05-31T09:37:21Z</time>
      </trkpt>
      <trkpt lat="46.3399" lon="-0.4219">
        <ele>59.5</ele>
        <time>2020-05-31T09:37:22Z</time>
      </trkpt>
      <trkpt lat="46.33995" lon="-0.42199">
        <ele>59.2</ele>
        <time>2020-05-31T09:37:23Z</time>
      </trkpt>
      <trkpt lat="46.34001" lon="-0.42207">
        <ele>58.9</ele>
        <time>2020-05-31T09:37:24Z</time>
      </trkpt>
      <trkpt lat="46.34007" lon="-0.42215">
        <ele>58.7</ele>
        <time>2020-05-31T09:37:25Z</time>
      </trkpt>
      <trkpt lat="46.34013" lon="-0.42223">
        <ele>58.5</ele>
        <time>2020-05-31T09:37:26Z</time>
      </trkpt>
      <trkpt lat="46.34019" lon="-0.4223">
        <ele>58.5</ele>
        <time>2020-05-31T09:37:27Z</time>
      </trkpt>
      <trkpt lat="46.34025" lon="-0.42238">
        <ele>58.6</ele>
        <time>2020-05-31T09:37:28Z</time>
      </trkpt>
      <trkpt lat="46.34029" lon="-0.42247">
        <ele>58.6</ele>
        <time>2020-05-31T09:37:29Z</time>
      </trkpt>
      <trkpt lat="46.34033" lon="-0.42255">
        <ele>58.6</ele>
        <time>2020-05-31T09:37:30Z</time>
      </trkpt>
      <trkpt lat="46.34038" lon="-0.42263">
        <ele>58.7</ele>
        <time>2020-05-31T09:37:31Z</time>
      </trkpt>
      <trkpt lat="46.34042" lon="-0.4227">
        <ele>58.8</ele>
        <time>2020-05-31T09:37:32Z</time>
      </trkpt>
      <trkpt lat="46.34047" lon="-0.42277">
        <ele>58.8</ele>
        <time>2020-05-31T09:37:33Z</time>
      </trkpt>
      <trkpt lat="46.34051" lon="-0.42284">
        <ele>58.9</ele>
        <time>2020-05-31T09:37:34Z</time>
      </trkpt>
      <trkpt lat="46.34056" lon="-0.4229">
        <ele>59</ele>
        <time>2020-05-31T09:37:35Z</time>
      </trkpt>
      <trkpt lat="46.3406" lon="-0.42296">
        <ele>59.1</ele>
        <time>2020-05-31T09:37:36Z</time>
      </trkpt>
      <trkpt lat="46.34064" lon="-0.42303">
        <ele>59.3</ele>
        <time>2020-05-31T09:37:37Z</time>
      </trkpt>
      <trkpt lat="46.34067" lon="-0.42309">
        <ele>59.5</ele>
        <time>2020-05-31T09:37:38Z</time>
      </trkpt>
      <trkpt lat="46.34071" lon="-0.42315">
        <ele>59.7</ele>
        <time>2020-05-31T09:37:39Z</time>
      </trkpt>
      <trkpt lat="46.34075" lon="-0.4232">
        <ele>59.9</ele>
        <time>2020-05-31T09:37:40Z</time>
      </trkpt>
      <trkpt lat="46.34079" lon="-0.42326">
        <ele>60.1</ele>
        <time>2020-05-31T09:37:41Z</time>
      </trkpt>
      <trkpt lat="46.34083" lon="-0.42331">
        <ele>60.4</ele>
        <time>2020-05-31T09:37:42Z</time>
      </trkpt>
      <trkpt lat="46.34087" lon="-0.42337">
        <ele>60.6</ele>
        <time>2020-05-31T09:37:43Z</time>
      </trkpt>
      <trkpt lat="46.3409" lon="-0.42342">
        <ele>60.8</ele>
        <time>2020-05-31T09:37:44Z</time>
      </trkpt>
      <trkpt lat="46.34094" lon="-0.42348">
        <ele>61</ele>
        <time>2020-05-31T09:37:45Z</time>
      </trkpt>
      <trkpt lat="46.34097" lon="-0.42353">
        <ele>61.3</ele>
        <time>2020-05-31T09:37:46Z</time>
      </trkpt>
      <trkpt lat="46.341" lon="-0.4236">
        <ele>61.5</ele>
        <time>2020-05-31T09:37:47Z</time>
      </trkpt>
      <trkpt lat="46.34104" lon="-0.42365">
        <ele>61.7</ele>
        <time>2020-05-31T09:37:48Z</time>
      </trkpt>
      <trkpt lat="46.34106" lon="-0.42371">
        <ele>61.9</ele>
        <time>2020-05-31T09:37:49Z</time>
      </trkpt>
      <trkpt lat="46.34109" lon="-0.42377">
        <ele>62.1</ele>
        <time>2020-05-31T09:37:50Z</time>
      </trkpt>
      <trkpt lat="46.34113" lon="-0.42379">
        <ele>62.2</ele>
        <time>2020-05-31T09:37:51Z</time>
      </trkpt>
      <trkpt lat="46.34117" lon="-0.42383">
        <ele>62.4</ele>
        <time>2020-05-31T09:37:52Z</time>
      </trkpt>
      <trkpt lat="46.3412" lon="-0.42386">
        <ele>62.5</ele>
        <time>2020-05-31T09:37:53Z</time>
      </trkpt>
      <trkpt lat="46.34122" lon="-0.42389">
        <ele>62.6</ele>
        <time>2020-05-31T09:37:54Z</time>
      </trkpt>
      <trkpt lat="46.34124" lon="-0.42392">
        <ele>62.7</ele>
        <time>2020-05-31T09:37:55Z</time>
      </trkpt>
      <trkpt lat="46.34125" lon="-0.42392">
        <ele>62.7</ele>
        <time>2020-05-31T09:37:56Z</time>
      </trkpt>
      <trkpt lat="46.34125" lon="-0.42393">
        <ele>62.8</ele>
        <time>2020-05-31T09:37:57Z</time>
      </trkpt>
      <trkpt lat="46.34126" lon="-0.42393">
        <ele>62.8</ele>
        <time>2020-05-31T09:37:58Z</time>
      </trkpt>
      <trkpt lat="46.34126" lon="-0.42393">
        <ele>62.8</ele>
        <time>2020-05-31T09:37:59Z</time>
      </trkpt>
      <trkpt lat="46.34126" lon="-0.42393">
        <ele>62.8</ele>
        <time>2020-05-31T09:38:00Z</time>
      </trkpt>
      <trkpt lat="46.34127" lon="-0.42393">
        <ele>62.8</ele>
        <time>2020-05-31T09:38:01Z</time>
      </trkpt>
      <trkpt lat="46.34127" lon="-0.42394">
        <ele>62.8</ele>
        <time>2020-05-31T09:38:02Z</time>
      </trkpt>
      <trkpt lat="46.34127" lon="-0.42394">
        <ele>62.8</ele>
        <time>2020-05-31T09:38:03Z</time>
      </trkpt>
      <trkpt lat="46.34128" lon="-0.42394">
        <ele>62.9</ele>
        <time>2020-05-31T09:38:04Z</time>
      </trkpt>
      <trkpt lat="46.34129" lon="-0.42396">
        <ele>62.9</ele>
        <time>2020-05-31T09:38:05Z</time>
      </trkpt>
      <trkpt lat="46.3413" lon="-0.42398">
        <ele>63</ele>
        <time>2020-05-31T09:38:06Z</time>
      </trkpt>
      <trkpt lat="46.3413" lon="-0.42399">
        <ele>63</ele>
        <time>2020-05-31T09:38:07Z</time>
      </trkpt>
      <trkpt lat="46.34132" lon="-0.42403">
        <ele>63.1</ele>
        <time>2020-05-31T09:38:08Z</time>
      </trkpt>
      <trkpt lat="46.34133" lon="-0.42404">
        <ele>63.1</ele>
        <time>2020-05-31T09:38:09Z</time>
      </trkpt>
      <trkpt lat="46.34135" lon="-0.42407">
        <ele>63.2</ele>
        <time>2020-05-31T09:38:10Z</time>
      </trkpt>
      <trkpt lat="46.34139" lon="-0.42409">
        <ele>63.3</ele>
        <time>2020-05-31T09:38:11Z</time>
      </trkpt>
      <trkpt lat="46.34142" lon="-0.4241">
        <ele>63.5</ele>
        <time>2020-05-31T09:38:12Z</time>
      </trkpt>
      <trkpt lat="46.34145" lon="-0.4241">
        <ele>63.5</ele>
        <time>2020-05-31T09:38:13Z</time>
      </trkpt>
      <trkpt lat="46.34148" lon="-0.42409">
        <ele>63.5</ele>
        <time>2020-05-31T09:38:14Z</time>
      </trkpt>
      <trkpt lat="46.34151" lon="-0.42406">
        <ele>63.5</ele>
        <time>2020-05-31T09:38:15Z</time>
      </trkpt>
      <trkpt lat="46.34154" lon="-0.42403">
        <ele>63.5</ele>
        <time>2020-05-31T09:38:16Z</time>
      </trkpt>
      <trkpt lat="46.34157" lon="-0.424">
        <ele>63.6</ele>
        <time>2020-05-31T09:38:17Z</time>
      </trkpt>
      <trkpt lat="46.34158" lon="-0.42399">
        <ele>63.6</ele>
        <time>2020-05-31T09:38:18Z</time>
      </trkpt>
      <trkpt lat="46.34162" lon="-0.42397">
        <ele>63.6</ele>
        <time>2020-05-31T09:38:19Z</time>
      </trkpt>
      <trkpt lat="46.34164" lon="-0.42397">
        <ele>63.6</ele>
        <time>2020-05-31T09:38:20Z</time>
      </trkpt>
      <trkpt lat="46.34168" lon="-0.42397">
        <ele>63.7</ele>
        <time>2020-05-31T09:38:21Z</time>
      </trkpt>
      <trkpt lat="46.34171" lon="-0.42397">
        <ele>63.7</ele>
        <time>2020-05-31T09:38:22Z</time>
      </trkpt>
      <trkpt lat="46.34175" lon="-0.42402">
        <ele>63.7</ele>
        <time>2020-05-31T09:38:23Z</time>
      </trkpt>
      <trkpt lat="46.34178" lon="-0.42406">
        <ele>63.8</ele>
        <time>2020-05-31T09:38:24Z</time>
      </trkpt>
      <trkpt lat="46.34181" lon="-0.4241">
        <ele>63.8</ele>
        <time>2020-05-31T09:38:25Z</time>
      </trkpt>
      <trkpt lat="46.34185" lon="-0.42413">
        <ele>63.9</ele>
        <time>2020-05-31T09:38:26Z</time>
      </trkpt>
      <trkpt lat="46.34188" lon="-0.42417">
        <ele>64</ele>
        <time>2020-05-31T09:38:27Z</time>
      </trkpt>
      <trkpt lat="46.34192" lon="-0.42421">
        <ele>64</ele>
        <time>2020-05-31T09:38:28Z</time>
      </trkpt>
      <trkpt lat="46.34195" lon="-0.42424">
        <ele>64.1</ele>
        <time>2020-05-31T09:38:29Z</time>
      </trkpt>
      <trkpt lat="46.34199" lon="-0.42428">
        <ele>64.2</ele>
        <time>2020-05-31T09:38:30Z</time>
      </trkpt>
      <trkpt lat="46.34203" lon="-0.42432">
        <ele>64.3</ele>
        <time>2020-05-31T09:38:31Z</time>
      </trkpt>
      <trkpt lat="46.34208" lon="-0.42436">
        <ele>64.4</ele>
        <time>2020-05-31T09:38:32Z</time>
      </trkpt>
      <trkpt lat="46.34211" lon="-0.4244">
        <ele>64.5</ele>
        <time>2020-05-31T09:38:33Z</time>
      </trkpt>
      <trkpt lat="46.34213" lon="-0.42445">
        <ele>64.6</ele>
        <time>2020-05-31T09:38:34Z</time>
      </trkpt>
      <trkpt lat="46.34216" lon="-0.42449">
        <ele>64.6</ele>
        <time>2020-05-31T09:38:35Z</time>
      </trkpt>
      <trkpt lat="46.34219" lon="-0.42453">
        <ele>64.7</ele>
        <time>2020-05-31T09:38:36Z</time>
      </trkpt>
      <trkpt lat="46.34221" lon="-0.42457">
        <ele>64.8</ele>
        <time>2020-05-31T09:38:37Z</time>
      </trkpt>
      <trkpt lat="46.34224" lon="-0.42461">
        <ele>64.8</ele>
        <time>2020-05-31T09:38:38Z</time>
      </trkpt>
      <trkpt lat="46.34226" lon="-0.42464">
        <ele>64.8</ele>
        <time>2020-05-31T09:38:39Z</time>
      </trkpt>
      <trkpt lat="46.3423" lon="-0.42468">
        <ele>64.9</ele>
        <time>2020-05-31T09:38:40Z</time>
      </trkpt>
      <trkpt lat="46.34231" lon="-0.42469">
        <ele>64.9</ele>
        <time>2020-05-31T09:38:41Z</time>
      </trkpt>
      <trkpt lat="46.34234" lon="-0.42472">
        <ele>64.9</ele>
        <time>2020-05-31T09:38:42Z</time>
      </trkpt>
      <trkpt lat="46.34236" lon="-0.42476">
        <ele>64.9</ele>
        <time>2020-05-31T09:38:43Z</time>
      </trkpt>
      <trkpt lat="46.34238" lon="-0.42478">
        <ele>64.9</ele>
        <time>2020-05-31T09:38:44Z</time>
      </trkpt>
      <trkpt lat="46.34239" lon="-0.42482">
        <ele>64.9</ele>
        <time>2020-05-31T09:38:45Z</time>
      </trkpt>
      <trkpt lat="46.34241" lon="-0.42487">
        <ele>64.9</ele>
        <time>2020-05-31T09:38:46Z</time>
      </trkpt>
      <trkpt lat="46.34243" lon="-0.42492">
        <ele>64.9</ele>
        <time>2020-05-31T09:38:47Z</time>
      </trkpt>
      <trkpt lat="46.34245" lon="-0.42495">
        <ele>64.9</ele>
        <time>2020-05-31T09:38:48Z</time>
      </trkpt>
      <trkpt lat="46.34248" lon="-0.42498">
        <ele>64.9</ele>
        <time>2020-05-31T09:38:49Z</time>
      </trkpt>
      <trkpt lat="46.34251" lon="-0.42501">
        <ele>64.9</ele>
        <time>2020-05-31T09:38:50Z</time>
      </trkpt>
      <trkpt lat="46.34255" lon="-0.42504">
        <ele>64.9</ele>
        <time>2020-05-31T09:38:51Z</time>
      </trkpt>
      <trkpt lat="46.34258" lon="-0.42509">
        <ele>64.9</ele>
        <time>2020-05-31T09:38:52Z</time>
      </trkpt>
      <trkpt lat="46.34261" lon="-0.42513">
        <ele>64.8</ele>
        <time>2020-05-31T09:38:53Z</time>
      </trkpt>
      <trkpt lat="46.34265" lon="-0.42517">
        <ele>64.8</ele>
        <time>2020-05-31T09:38:54Z</time>
      </trkpt>
      <trkpt lat="46.34269" lon="-0.4252">
        <ele>64.7</ele>
        <time>2020-05-31T09:38:55Z</time>
      </trkpt>
      <trkpt lat="46.34272" lon="-0.42524">
        <ele>64.6</ele>
        <time>2020-05-31T09:38:56Z</time>
      </trkpt>
      <trkpt lat="46.34275" lon="-0.42528">
        <ele>64.6</ele>
        <time>2020-05-31T09:38:57Z</time>
      </trkpt>
      <trkpt lat="46.34279" lon="-0.42534">
        <ele>64.5</ele>
        <time>2020-05-31T09:38:58Z</time>
      </trkpt>
      <trkpt lat="46.34283" lon="-0.42538">
        <ele>64.4</ele>
        <time>2020-05-31T09:38:59Z</time>
      </trkpt>
      <trkpt lat="46.34286" lon="-0.42543">
        <ele>64.3</ele>
        <time>2020-05-31T09:39:00Z</time>
      </trkpt>
      <trkpt lat="46.34289" lon="-0.42548">
        <ele>64.2</ele>
        <time>2020-05-31T09:39:01Z</time>
      </trkpt>
      <trkpt lat="46.34293" lon="-0.42553">
        <ele>64.1</ele>
        <time>2020-05-31T09:39:02Z</time>
      </trkpt>
      <trkpt lat="46.34296" lon="-0.42559">
        <ele>64</ele>
        <time>2020-05-31T09:39:03Z</time>
      </trkpt>
      <trkpt lat="46.34299" lon="-0.42565">
        <ele>63.9</ele>
        <time>2020-05-31T09:39:04Z</time>
      </trkpt>
      <trkpt lat="46.34302" lon="-0.42572">
        <ele>63.7</ele>
        <time>2020-05-31T09:39:05Z</time>
      </trkpt>
      <trkpt lat="46.34306" lon="-0.42578">
        <ele>63.6</ele>
        <time>2020-05-31T09:39:06Z</time>
      </trkpt>
      <trkpt lat="46.3431" lon="-0.42584">
        <ele>63.4</ele>
        <time>2020-05-31T09:39:07Z</time>
      </trkpt>
      <trkpt lat="46.34314" lon="-0.42591">
        <ele>63.3</ele>
        <time>2020-05-31T09:39:08Z</time>
      </trkpt>
      <trkpt lat="46.34319" lon="-0.42598">
        <ele>63.1</ele>
        <time>2020-05-31T09:39:09Z</time>
      </trkpt>
      <trkpt lat="46.34323" lon="-0.42605">
        <ele>62.9</ele>
        <time>2020-05-31T09:39:10Z</time>
      </trkpt>
      <trkpt lat="46.34327" lon="-0.42611">
        <ele>62.7</ele>
        <time>2020-05-31T09:39:11Z</time>
      </trkpt>
      <trkpt lat="46.34332" lon="-0.42618">
        <ele>62.5</ele>
        <time>2020-05-31T09:39:12Z</time>
      </trkpt>
      <trkpt lat="46.34336" lon="-0.42626">
        <ele>62.3</ele>
        <time>2020-05-31T09:39:13Z</time>
      </trkpt>
      <trkpt lat="46.3434" lon="-0.42634">
        <ele>62.1</ele>
        <time>2020-05-31T09:39:14Z</time>
      </trkpt>
      <trkpt lat="46.34345" lon="-0.42642">
        <ele>61.9</ele>
        <time>2020-05-31T09:39:15Z</time>
      </trkpt>
      <trkpt lat="46.3435" lon="-0.42648">
        <ele>61.8</ele>
        <time>2020-05-31T09:39:16Z</time>
      </trkpt>
      <trkpt lat="46.34355" lon="-0.42656">
        <ele>61.6</ele>
        <time>2020-05-31T09:39:17Z</time>
      </trkpt>
      <trkpt lat="46.3436" lon="-0.42663">
        <ele>61.4</ele>
        <time>2020-05-31T09:39:18Z</time>
      </trkpt>
      <trkpt lat="46.34365" lon="-0.42671">
        <ele>61.3</ele>
        <time>2020-05-31T09:39:19Z</time>
      </trkpt>
      <trkpt lat="46.34369" lon="-0.42678">
        <ele>61.3</ele>
        <time>2020-05-31T09:39:20Z</time>
      </trkpt>
      <trkpt lat="46.34373" lon="-0.42685">
        <ele>61.3</ele>
        <time>2020-05-31T09:39:21Z</time>
      </trkpt>
      <trkpt lat="46.34377" lon="-0.42694">
        <ele>61.3</ele>
        <time>2020-05-31T09:39:22Z</time>
      </trkpt>
      <trkpt lat="46.34381" lon="-0.42703">
        <ele>61.4</ele>
        <time>2020-05-31T09:39:23Z</time>
      </trkpt>
      <trkpt lat="46.34384" lon="-0.42712">
        <ele>61.4</ele>
        <time>2020-05-31T09:39:24Z</time>
      </trkpt>
      <trkpt lat="46.34388" lon="-0.4272">
        <ele>61.4</ele>
        <time>2020-05-31T09:39:25Z</time>
      </trkpt>
      <trkpt lat="46.34391" lon="-0.42727">
        <ele>61.5</ele>
        <time>2020-05-31T09:39:26Z</time>
      </trkpt>
      <trkpt lat="46.34394" lon="-0.42732">
        <ele>61.5</ele>
        <time>2020-05-31T09:39:27Z</time>
      </trkpt>
      <trkpt lat="46.34399" lon="-0.42738">
        <ele>61.5</ele>
        <time>2020-05-31T09:39:28Z</time>
      </trkpt>
      <trkpt lat="46.34404" lon="-0.42743">
        <ele>61.5</ele>
        <time>2020-05-31T09:39:29Z</time>
      </trkpt>
      <trkpt lat="46.34408" lon="-0.42749">
        <ele>61.6</ele>
        <time>2020-05-31T09:39:30Z</time>
      </trkpt>
      <trkpt lat="46.34414" lon="-0.42754">
        <ele>61.7</ele>
        <time>2020-05-31T09:39:31Z</time>
      </trkpt>
      <trkpt lat="46.34419" lon="-0.4276">
        <ele>61.7</ele>
        <time>2020-05-31T09:39:32Z</time>
      </trkpt>
      <trkpt lat="46.34424" lon="-0.42767">
        <ele>61.7</ele>
        <time>2020-05-31T09:39:33Z</time>
      </trkpt>
      <trkpt lat="46.34428" lon="-0.42773">
        <ele>61.7</ele>
        <time>2020-05-31T09:39:34Z</time>
      </trkpt>
      <trkpt lat="46.34433" lon="-0.4278">
        <ele>61.7</ele>
        <time>2020-05-31T09:39:35Z</time>
      </trkpt>
      <trkpt lat="46.34437" lon="-0.42787">
        <ele>61.7</ele>
        <time>2020-05-31T09:39:36Z</time>
      </trkpt>
      <trkpt lat="46.34442" lon="-0.42793">
        <ele>61.7</ele>
        <time>2020-05-31T09:39:37Z</time>
      </trkpt>
      <trkpt lat="46.34447" lon="-0.42798">
        <ele>61.7</ele>
        <time>2020-05-31T09:39:38Z</time>
      </trkpt>
      <trkpt lat="46.34451" lon="-0.42803">
        <ele>61.7</ele>
        <time>2020-05-31T09:39:39Z</time>
      </trkpt>
      <trkpt lat="46.34456" lon="-0.42809">
        <ele>61.8</ele>
        <time>2020-05-31T09:39:40Z</time>
      </trkpt>
      <trkpt lat="46.3446" lon="-0.42815">
        <ele>61.8</ele>
        <time>2020-05-31T09:39:41Z</time>
      </trkpt>
      <trkpt lat="46.34465" lon="-0.42821">
        <ele>62</ele>
        <time>2020-05-31T09:39:42Z</time>
      </trkpt>
      <trkpt lat="46.34469" lon="-0.42826">
        <ele>62.2</ele>
        <time>2020-05-31T09:39:43Z</time>
      </trkpt>
      <trkpt lat="46.34473" lon="-0.42832">
        <ele>62.4</ele>
        <time>2020-05-31T09:39:44Z</time>
      </trkpt>
      <trkpt lat="46.34478" lon="-0.42837">
        <ele>62.6</ele>
        <time>2020-05-31T09:39:45Z</time>
      </trkpt>
      <trkpt lat="46.34483" lon="-0.42841">
        <ele>62.8</ele>
        <time>2020-05-31T09:39:46Z</time>
      </trkpt>
      <trkpt lat="46.34487" lon="-0.42846">
        <ele>63</ele>
        <time>2020-05-31T09:39:47Z</time>
      </trkpt>
      <trkpt lat="46.34491" lon="-0.4285">
        <ele>63.2</ele>
        <time>2020-05-31T09:39:48Z</time>
      </trkpt>
      <trkpt lat="46.34494" lon="-0.42854">
        <ele>63.4</ele>
        <time>2020-05-31T09:39:49Z</time>
      </trkpt>
      <trkpt lat="46.34498" lon="-0.42859">
        <ele>63.5</ele>
        <time>2020-05-31T09:39:50Z</time>
      </trkpt>
      <trkpt lat="46.34501" lon="-0.42863">
        <ele>63.7</ele>
        <time>2020-05-31T09:39:51Z</time>
      </trkpt>
      <trkpt lat="46.34504" lon="-0.42868">
        <ele>63.9</ele>
        <time>2020-05-31T09:39:52Z</time>
      </trkpt>
      <trkpt lat="46.34506" lon="-0.42873">
        <ele>64</ele>
        <time>2020-05-31T09:39:53Z</time>
      </trkpt>
      <trkpt lat="46.34509" lon="-0.42877">
        <ele>64.2</ele>
        <time>2020-05-31T09:39:54Z</time>
      </trkpt>
      <trkpt lat="46.34512" lon="-0.42881">
        <ele>64.3</ele>
        <time>2020-05-31T09:39:55Z</time>
      </trkpt>
      <trkpt lat="46.34516" lon="-0.42885">
        <ele>64.5</ele>
        <time>2020-05-31T09:39:56Z</time>
      </trkpt>
      <trkpt lat="46.3452" lon="-0.42889">
        <ele>64.6</ele>
        <time>2020-05-31T09:39:57Z</time>
      </trkpt>
      <trkpt lat="46.34524" lon="-0.42892">
        <ele>64.8</ele>
        <time>2020-05-31T09:39:58Z</time>
      </trkpt>
      <trkpt lat="46.34527" lon="-0.42896">
        <ele>64.9</ele>
        <time>2020-05-31T09:39:59Z</time>
      </trkpt>
      <trkpt lat="46.34531" lon="-0.429">
        <ele>65.1</ele>
        <time>2020-05-31T09:40:00Z</time>
      </trkpt>
      <trkpt lat="46.34535" lon="-0.42904">
        <ele>65.2</ele>
        <time>2020-05-31T09:40:01Z</time>
      </trkpt>
      <trkpt lat="46.34539" lon="-0.42907">
        <ele>65.4</ele>
        <time>2020-05-31T09:40:02Z</time>
      </trkpt>
      <trkpt lat="46.34543" lon="-0.4291">
        <ele>65.6</ele>
        <time>2020-05-31T09:40:03Z</time>
      </trkpt>
      <trkpt lat="46.34546" lon="-0.42914">
        <ele>65.7</ele>
        <time>2020-05-31T09:40:04Z</time>
      </trkpt>
      <trkpt lat="46.34549" lon="-0.42918">
        <ele>65.8</ele>
        <time>2020-05-31T09:40:05Z</time>
      </trkpt>
      <trkpt lat="46.34552" lon="-0.4292">
        <ele>66</ele>
        <time>2020-05-31T09:40:06Z</time>
      </trkpt>
      <trkpt lat="46.34556" lon="-0.42923">
        <ele>66.1</ele>
        <time>2020-05-31T09:40:07Z</time>
      </trkpt>
      <trkpt lat="46.3456" lon="-0.42926">
        <ele>66.3</ele>
        <time>2020-05-31T09:40:08Z</time>
      </trkpt>
      <trkpt lat="46.34564" lon="-0.4293">
        <ele>66.5</ele>
        <time>2020-05-31T09:40:09Z</time>
      </trkpt>
      <trkpt lat="46.34567" lon="-0.42933">
        <ele>66.7</ele>
        <time>2020-05-31T09:40:10Z</time>
      </trkpt>
      <trkpt lat="46.3457" lon="-0.42937">
        <ele>66.8</ele>
        <time>2020-05-31T09:40:11Z</time>
      </trkpt>
      <trkpt lat="46.34574" lon="-0.42941">
        <ele>67</ele>
        <time>2020-05-31T09:40:12Z</time>
      </trkpt>
      <trkpt lat="46.34578" lon="-0.42944">
        <ele>67.2</ele>
        <time>2020-05-31T09:40:13Z</time>
      </trkpt>
      <trkpt lat="46.34581" lon="-0.42947">
        <ele>67.4</ele>
        <time>2020-05-31T09:40:14Z</time>
      </trkpt>
      <trkpt lat="46.34585" lon="-0.42951">
        <ele>67.5</ele>
        <time>2020-05-31T09:40:15Z</time>
      </trkpt>
      <trkpt lat="46.34588" lon="-0.42954">
        <ele>67.7</ele>
        <time>2020-05-31T09:40:16Z</time>
      </trkpt>
      <trkpt lat="46.34591" lon="-0.42958">
        <ele>67.8</ele>
        <time>2020-05-31T09:40:17Z</time>
      </trkpt>
      <trkpt lat="46.34594" lon="-0.42961">
        <ele>67.9</ele>
        <time>2020-05-31T09:40:18Z</time>
      </trkpt>
      <trkpt lat="46.34598" lon="-0.42965">
        <ele>68</ele>
        <time>2020-05-31T09:40:19Z</time>
      </trkpt>
      <trkpt lat="46.34601" lon="-0.42968">
        <ele>68.1</ele>
        <time>2020-05-31T09:40:20Z</time>
      </trkpt>
      <trkpt lat="46.34605" lon="-0.42972">
        <ele>68.2</ele>
        <time>2020-05-31T09:40:21Z</time>
      </trkpt>
      <trkpt lat="46.34608" lon="-0.42977">
        <ele>68.3</ele>
        <time>2020-05-31T09:40:22Z</time>
      </trkpt>
      <trkpt lat="46.34612" lon="-0.4298">
        <ele>68.4</ele>
        <time>2020-05-31T09:40:23Z</time>
      </trkpt>
      <trkpt lat="46.34616" lon="-0.42985">
        <ele>68.5</ele>
        <time>2020-05-31T09:40:24Z</time>
      </trkpt>
      <trkpt lat="46.3462" lon="-0.42989">
        <ele>68.5</ele>
        <time>2020-05-31T09:40:25Z</time>
      </trkpt>
      <trkpt lat="46.34624" lon="-0.42993">
        <ele>68.5</ele>
        <time>2020-05-31T09:40:26Z</time>
      </trkpt>
      <trkpt lat="46.34628" lon="-0.42996">
        <ele>68.6</ele>
        <time>2020-05-31T09:40:27Z</time>
      </trkpt>
      <trkpt lat="46.34633" lon="-0.43">
        <ele>68.7</ele>
        <time>2020-05-31T09:40:28Z</time>
      </trkpt>
      <trkpt lat="46.34637" lon="-0.43004">
        <ele>68.7</ele>
        <time>2020-05-31T09:40:29Z</time>
      </trkpt>
      <trkpt lat="46.3464" lon="-0.43009">
        <ele>68.8</ele>
        <time>2020-05-31T09:40:30Z</time>
      </trkpt>
      <trkpt lat="46.34644" lon="-0.43014">
        <ele>68.9</ele>
        <time>2020-05-31T09:40:31Z</time>
      </trkpt>
      <trkpt lat="46.34648" lon="-0.43019">
        <ele>69</ele>
        <time>2020-05-31T09:40:32Z</time>
      </trkpt>
      <trkpt lat="46.34652" lon="-0.43023">
        <ele>69</ele>
        <time>2020-05-31T09:40:33Z</time>
      </trkpt>
      <trkpt lat="46.34656" lon="-0.43026">
        <ele>69.1</ele>
        <time>2020-05-31T09:40:34Z</time>
      </trkpt>
      <trkpt lat="46.34659" lon="-0.43031">
        <ele>69.1</ele>
        <time>2020-05-31T09:40:35Z</time>
      </trkpt>
      <trkpt lat="46.34663" lon="-0.43035">
        <ele>69.2</ele>
        <time>2020-05-31T09:40:36Z</time>
      </trkpt>
      <trkpt lat="46.34667" lon="-0.43039">
        <ele>69.2</ele>
        <time>2020-05-31T09:40:37Z</time>
      </trkpt>
      <trkpt lat="46.3467" lon="-0.43044">
        <ele>69.2</ele>
        <time>2020-05-31T09:40:38Z</time>
      </trkpt>
      <trkpt lat="46.34674" lon="-0.43048">
        <ele>69.2</ele>
        <time>2020-05-31T09:40:39Z</time>
      </trkpt>
      <trkpt lat="46.34677" lon="-0.43053">
        <ele>69.2</ele>
        <time>2020-05-31T09:40:40Z</time>
      </trkpt>
      <trkpt lat="46.34682" lon="-0.43057">
        <ele>69.3</ele>
        <time>2020-05-31T09:40:41Z</time>
      </trkpt>
      <trkpt lat="46.34686" lon="-0.43061">
        <ele>69.3</ele>
        <time>2020-05-31T09:40:42Z</time>
      </trkpt>
      <trkpt lat="46.34689" lon="-0.43066">
        <ele>69.3</ele>
        <time>2020-05-31T09:40:43Z</time>
      </trkpt>
      <trkpt lat="46.34692" lon="-0.43072">
        <ele>69.3</ele>
        <time>2020-05-31T09:40:44Z</time>
      </trkpt>
      <trkpt lat="46.34696" lon="-0.43076">
        <ele>69.3</ele>
        <time>2020-05-31T09:40:45Z</time>
      </trkpt>
      <trkpt lat="46.347" lon="-0.43081">
        <ele>69.3</ele>
        <time>2020-05-31T09:40:46Z</time>
      </trkpt>
      <trkpt lat="46.34704" lon="-0.43085">
        <ele>69.3</ele>
        <time>2020-05-31T09:40:47Z</time>
      </trkpt>
      <trkpt lat="46.34708" lon="-0.43089">
        <ele>69.3</ele>
        <time>2020-05-31T09:40:48Z</time>
      </trkpt>
      <trkpt lat="46.34712" lon="-0.43093">
        <ele>69.3</ele>
        <time>2020-05-31T09:40:49Z</time>
      </trkpt>
      <trkpt lat="46.34716" lon="-0.43097">
        <ele>69.3</ele>
        <time>2020-05-31T09:40:50Z</time>
      </trkpt>
      <trkpt lat="46.3472" lon="-0.43099">
        <ele>69.3</ele>
        <time>2020-05-31T09:40:51Z</time>
      </trkpt>
      <trkpt lat="46.34724" lon="-0.43104">
        <ele>69.3</ele>
        <time>2020-05-31T09:40:52Z</time>
      </trkpt>
      <trkpt lat="46.34728" lon="-0.43108">
        <ele>69.3</ele>
        <time>2020-05-31T09:40:53Z</time>
      </trkpt>
      <trkpt lat="46.34732" lon="-0.43111">
        <ele>69.3</ele>
        <time>2020-05-31T09:40:54Z</time>
      </trkpt>
      <trkpt lat="46.34736" lon="-0.43114">
        <ele>69.3</ele>
        <time>2020-05-31T09:40:55Z</time>
      </trkpt>
      <trkpt lat="46.3474" lon="-0.43118">
        <ele>69.3</ele>
        <time>2020-05-31T09:40:56Z</time>
      </trkpt>
      <trkpt lat="46.34744" lon="-0.43122">
        <ele>69.3</ele>
        <time>2020-05-31T09:40:57Z</time>
      </trkpt>
      <trkpt lat="46.34747" lon="-0.43127">
        <ele>69.3</ele>
        <time>2020-05-31T09:40:58Z</time>
      </trkpt>
      <trkpt lat="46.3475" lon="-0.43132">
        <ele>69.3</ele>
        <time>2020-05-31T09:40:59Z</time>
      </trkpt>
      <trkpt lat="46.34754" lon="-0.43136">
        <ele>69.3</ele>
        <time>2020-05-31T09:41:00Z</time>
      </trkpt>
      <trkpt lat="46.34757" lon="-0.4314">
        <ele>69.3</ele>
        <time>2020-05-31T09:41:01Z</time>
      </trkpt>
      <trkpt lat="46.3476" lon="-0.43143">
        <ele>69.3</ele>
        <time>2020-05-31T09:41:02Z</time>
      </trkpt>
      <trkpt lat="46.34764" lon="-0.43147">
        <ele>69.3</ele>
        <time>2020-05-31T09:41:03Z</time>
      </trkpt>
      <trkpt lat="46.34767" lon="-0.4315">
        <ele>69.3</ele>
        <time>2020-05-31T09:41:04Z</time>
      </trkpt>
      <trkpt lat="46.3477" lon="-0.43155">
        <ele>69.4</ele>
        <time>2020-05-31T09:41:05Z</time>
      </trkpt>
      <trkpt lat="46.34773" lon="-0.43158">
        <ele>69.4</ele>
        <time>2020-05-31T09:41:06Z</time>
      </trkpt>
      <trkpt lat="46.34776" lon="-0.43162">
        <ele>69.4</ele>
        <time>2020-05-31T09:41:07Z</time>
      </trkpt>
      <trkpt lat="46.34779" lon="-0.43165">
        <ele>69.4</ele>
        <time>2020-05-31T09:41:08Z</time>
      </trkpt>
      <trkpt lat="46.34783" lon="-0.43168">
        <ele>69.4</ele>
        <time>2020-05-31T09:41:09Z</time>
      </trkpt>
      <trkpt lat="46.34786" lon="-0.4317">
        <ele>69.4</ele>
        <time>2020-05-31T09:41:10Z</time>
      </trkpt>
      <trkpt lat="46.3479" lon="-0.4317">
        <ele>69.4</ele>
        <time>2020-05-31T09:41:11Z</time>
      </trkpt>
      <trkpt lat="46.34794" lon="-0.4317">
        <ele>69.5</ele>
        <time>2020-05-31T09:41:12Z</time>
      </trkpt>
      <trkpt lat="46.34797" lon="-0.43166">
        <ele>69.6</ele>
        <time>2020-05-31T09:41:13Z</time>
      </trkpt>
      <trkpt lat="46.34799" lon="-0.43161">
        <ele>69.7</ele>
        <time>2020-05-31T09:41:14Z</time>
      </trkpt>
      <trkpt lat="46.34801" lon="-0.43156">
        <ele>69.8</ele>
        <time>2020-05-31T09:41:15Z</time>
      </trkpt>
      <trkpt lat="46.34804" lon="-0.43152">
        <ele>69.9</ele>
        <time>2020-05-31T09:41:16Z</time>
      </trkpt>
      <trkpt lat="46.34806" lon="-0.43148">
        <ele>70</ele>
        <time>2020-05-31T09:41:17Z</time>
      </trkpt>
      <trkpt lat="46.34809" lon="-0.43144">
        <ele>70.1</ele>
        <time>2020-05-31T09:41:18Z</time>
      </trkpt>
      <trkpt lat="46.34811" lon="-0.4314">
        <ele>70.2</ele>
        <time>2020-05-31T09:41:19Z</time>
      </trkpt>
      <trkpt lat="46.34814" lon="-0.43136">
        <ele>70.4</ele>
        <time>2020-05-31T09:41:20Z</time>
      </trkpt>
      <trkpt lat="46.34816" lon="-0.43131">
        <ele>70.5</ele>
        <time>2020-05-31T09:41:21Z</time>
      </trkpt>
      <trkpt lat="46.34818" lon="-0.43126">
        <ele>70.6</ele>
        <time>2020-05-31T09:41:22Z</time>
      </trkpt>
      <trkpt lat="46.34821" lon="-0.43122">
        <ele>70.7</ele>
        <time>2020-05-31T09:41:23Z</time>
      </trkpt>
      <trkpt lat="46.34823" lon="-0.43118">
        <ele>70.9</ele>
        <time>2020-05-31T09:41:24Z</time>
      </trkpt>
      <trkpt lat="46.34826" lon="-0.43113">
        <ele>71</ele>
        <time>2020-05-31T09:41:25Z</time>
      </trkpt>
      <trkpt lat="46.34828" lon="-0.43109">
        <ele>71.1</ele>
        <time>2020-05-31T09:41:26Z</time>
      </trkpt>
      <trkpt lat="46.3483" lon="-0.43105">
        <ele>71.2</ele>
        <time>2020-05-31T09:41:27Z</time>
      </trkpt>
      <trkpt lat="46.34831" lon="-0.43099">
        <ele>71.3</ele>
        <time>2020-05-31T09:41:28Z</time>
      </trkpt>
      <trkpt lat="46.34832" lon="-0.43095">
        <ele>71.4</ele>
        <time>2020-05-31T09:41:29Z</time>
      </trkpt>
      <trkpt lat="46.34835" lon="-0.43091">
        <ele>71.5</ele>
        <time>2020-05-31T09:41:30Z</time>
      </trkpt>
      <trkpt lat="46.34837" lon="-0.43086">
        <ele>71.6</ele>
        <time>2020-05-31T09:41:31Z</time>
      </trkpt>
      <trkpt lat="46.34839" lon="-0.43082">
        <ele>71.7</ele>
        <time>2020-05-31T09:41:32Z</time>
      </trkpt>
      <trkpt lat="46.34842" lon="-0.43078">
        <ele>71.8</ele>
        <time>2020-05-31T09:41:33Z</time>
      </trkpt>
      <trkpt lat="46.34845" lon="-0.43073">
        <ele>72</ele>
        <time>2020-05-31T09:41:34Z</time>
      </trkpt>
      <trkpt lat="46.34848" lon="-0.43069">
        <ele>72.1</ele>
        <time>2020-05-31T09:41:35Z</time>
      </trkpt>
      <trkpt lat="46.34851" lon="-0.43065">
        <ele>72.2</ele>
        <time>2020-05-31T09:41:36Z</time>
      </trkpt>
      <trkpt lat="46.34854" lon="-0.43063">
        <ele>72.3</ele>
        <time>2020-05-31T09:41:37Z</time>
      </trkpt>
      <trkpt lat="46.34856" lon="-0.4306">
        <ele>72.6</ele>
        <time>2020-05-31T09:41:38Z</time>
      </trkpt>
      <trkpt lat="46.34859" lon="-0.43058">
        <ele>72.7</ele>
        <time>2020-05-31T09:41:39Z</time>
      </trkpt>
      <trkpt lat="46.34862" lon="-0.43056">
        <ele>72.7</ele>
        <time>2020-05-31T09:41:40Z</time>
      </trkpt>
      <trkpt lat="46.34865" lon="-0.43059">
        <ele>72.8</ele>
        <time>2020-05-31T09:41:41Z</time>
      </trkpt>
      <trkpt lat="46.34866" lon="-0.43061">
        <ele>72.8</ele>
        <time>2020-05-31T09:41:42Z</time>
      </trkpt>
      <trkpt lat="46.34867" lon="-0.43066">
        <ele>72.8</ele>
        <time>2020-05-31T09:41:43Z</time>
      </trkpt>
      <trkpt lat="46.34869" lon="-0.4307">
        <ele>72.9</ele>
        <time>2020-05-31T09:41:44Z</time>
      </trkpt>
      <trkpt lat="46.34871" lon="-0.43074">
        <ele>72.9</ele>
        <time>2020-05-31T09:41:45Z</time>
      </trkpt>
      <trkpt lat="46.34873" lon="-0.43078">
        <ele>73</ele>
        <time>2020-05-31T09:41:46Z</time>
      </trkpt>
      <trkpt lat="46.34874" lon="-0.43082">
        <ele>73</ele>
        <time>2020-05-31T09:41:47Z</time>
      </trkpt>
      <trkpt lat="46.34875" lon="-0.43086">
        <ele>73</ele>
        <time>2020-05-31T09:41:48Z</time>
      </trkpt>
      <trkpt lat="46.34877" lon="-0.43091">
        <ele>73.1</ele>
        <time>2020-05-31T09:41:49Z</time>
      </trkpt>
      <trkpt lat="46.34877" lon="-0.43093">
        <ele>73.1</ele>
        <time>2020-05-31T09:41:50Z</time>
      </trkpt>
      <trkpt lat="46.34879" lon="-0.43098">
        <ele>73.2</ele>
        <time>2020-05-31T09:41:51Z</time>
      </trkpt>
      <trkpt lat="46.3488" lon="-0.431">
        <ele>73.2</ele>
        <time>2020-05-31T09:41:52Z</time>
      </trkpt>
      <trkpt lat="46.34881" lon="-0.43104">
        <ele>73.3</ele>
        <time>2020-05-31T09:41:53Z</time>
      </trkpt>
      <trkpt lat="46.34883" lon="-0.43107">
        <ele>73.3</ele>
        <time>2020-05-31T09:41:54Z</time>
      </trkpt>
      <trkpt lat="46.34885" lon="-0.43112">
        <ele>73.4</ele>
        <time>2020-05-31T09:41:55Z</time>
      </trkpt>
      <trkpt lat="46.34886" lon="-0.43118">
        <ele>73.5</ele>
        <time>2020-05-31T09:41:56Z</time>
      </trkpt>
      <trkpt lat="46.34888" lon="-0.43122">
        <ele>73.5</ele>
        <time>2020-05-31T09:41:57Z</time>
      </trkpt>
      <trkpt lat="46.3489" lon="-0.43125">
        <ele>73.6</ele>
        <time>2020-05-31T09:41:58Z</time>
      </trkpt>
      <trkpt lat="46.34891" lon="-0.43129">
        <ele>73.6</ele>
        <time>2020-05-31T09:41:59Z</time>
      </trkpt>
      <trkpt lat="46.34893" lon="-0.43132">
        <ele>73.6</ele>
        <time>2020-05-31T09:42:00Z</time>
      </trkpt>
      <trkpt lat="46.34895" lon="-0.43136">
        <ele>73.6</ele>
        <time>2020-05-31T09:42:01Z</time>
      </trkpt>
      <trkpt lat="46.34897" lon="-0.43139">
        <ele>73.6</ele>
        <time>2020-05-31T09:42:02Z</time>
      </trkpt>
      <trkpt lat="46.34899" lon="-0.43142">
        <ele>73.6</ele>
        <time>2020-05-31T09:42:03Z</time>
      </trkpt>
      <trkpt lat="46.34901" lon="-0.43146">
        <ele>73.6</ele>
        <time>2020-05-31T09:42:04Z</time>
      </trkpt>
      <trkpt lat="46.34905" lon="-0.43149">
        <ele>73.6</ele>
        <time>2020-05-31T09:42:05Z</time>
      </trkpt>
      <trkpt lat="46.34906" lon="-0.43154">
        <ele>73.6</ele>
        <time>2020-05-31T09:42:06Z</time>
      </trkpt>
      <trkpt lat="46.34909" lon="-0.43158">
        <ele>73.6</ele>
        <time>2020-05-31T09:42:07Z</time>
      </trkpt>
      <trkpt lat="46.34912" lon="-0.43162">
        <ele>73.6</ele>
        <time>2020-05-31T09:42:08Z</time>
      </trkpt>
      <trkpt lat="46.34914" lon="-0.43166">
        <ele>73.6</ele>
        <time>2020-05-31T09:42:09Z</time>
      </trkpt>
      <trkpt lat="46.34917" lon="-0.4317">
        <ele>73.6</ele>
        <time>2020-05-31T09:42:10Z</time>
      </trkpt>
      <trkpt lat="46.34918" lon="-0.43175">
        <ele>73.6</ele>
        <time>2020-05-31T09:42:11Z</time>
      </trkpt>
      <trkpt lat="46.3492" lon="-0.43179">
        <ele>73.6</ele>
        <time>2020-05-31T09:42:12Z</time>
      </trkpt>
      <trkpt lat="46.34922" lon="-0.43182">
        <ele>73.6</ele>
        <time>2020-05-31T09:42:13Z</time>
      </trkpt>
      <trkpt lat="46.34924" lon="-0.43185">
        <ele>73.5</ele>
        <time>2020-05-31T09:42:14Z</time>
      </trkpt>
      <trkpt lat="46.34926" lon="-0.43189">
        <ele>73.5</ele>
        <time>2020-05-31T09:42:15Z</time>
      </trkpt>
      <trkpt lat="46.34928" lon="-0.43192">
        <ele>73.5</ele>
        <time>2020-05-31T09:42:16Z</time>
      </trkpt>
      <trkpt lat="46.3493" lon="-0.43197">
        <ele>73.5</ele>
        <time>2020-05-31T09:42:17Z</time>
      </trkpt>
      <trkpt lat="46.34933" lon="-0.43202">
        <ele>73.5</ele>
        <time>2020-05-31T09:42:18Z</time>
      </trkpt>
      <trkpt lat="46.34934" lon="-0.43207">
        <ele>73.5</ele>
        <time>2020-05-31T09:42:19Z</time>
      </trkpt>
      <trkpt lat="46.34936" lon="-0.43212">
        <ele>73.5</ele>
        <time>2020-05-31T09:42:20Z</time>
      </trkpt>
      <trkpt lat="46.34937" lon="-0.43217">
        <ele>73.5</ele>
        <time>2020-05-31T09:42:21Z</time>
      </trkpt>
      <trkpt lat="46.34938" lon="-0.43222">
        <ele>73.5</ele>
        <time>2020-05-31T09:42:22Z</time>
      </trkpt>
      <trkpt lat="46.34939" lon="-0.43227">
        <ele>73.4</ele>
        <time>2020-05-31T09:42:23Z</time>
      </trkpt>
      <trkpt lat="46.34942" lon="-0.43231">
        <ele>73.4</ele>
        <time>2020-05-31T09:42:24Z</time>
      </trkpt>
      <trkpt lat="46.34944" lon="-0.43236">
        <ele>73.4</ele>
        <time>2020-05-31T09:42:25Z</time>
      </trkpt>
      <trkpt lat="46.34945" lon="-0.43242">
        <ele>73.4</ele>
        <time>2020-05-31T09:42:26Z</time>
      </trkpt>
      <trkpt lat="46.34947" lon="-0.43247">
        <ele>73.3</ele>
        <time>2020-05-31T09:42:27Z</time>
      </trkpt>
      <trkpt lat="46.3495" lon="-0.43251">
        <ele>73.3</ele>
        <time>2020-05-31T09:42:28Z</time>
      </trkpt>
      <trkpt lat="46.34953" lon="-0.43256">
        <ele>73.2</ele>
        <time>2020-05-31T09:42:29Z</time>
      </trkpt>
      <trkpt lat="46.34954" lon="-0.43262">
        <ele>73.2</ele>
        <time>2020-05-31T09:42:30Z</time>
      </trkpt>
      <trkpt lat="46.34957" lon="-0.43268">
        <ele>73.1</ele>
        <time>2020-05-31T09:42:31Z</time>
      </trkpt>
      <trkpt lat="46.34959" lon="-0.43274">
        <ele>73</ele>
        <time>2020-05-31T09:42:32Z</time>
      </trkpt>
      <trkpt lat="46.34962" lon="-0.4328">
        <ele>73</ele>
        <time>2020-05-31T09:42:33Z</time>
      </trkpt>
      <trkpt lat="46.34964" lon="-0.43285">
        <ele>72.9</ele>
        <time>2020-05-31T09:42:34Z</time>
      </trkpt>
      <trkpt lat="46.34967" lon="-0.43291">
        <ele>72.8</ele>
        <time>2020-05-31T09:42:35Z</time>
      </trkpt>
      <trkpt lat="46.34969" lon="-0.43297">
        <ele>72.8</ele>
        <time>2020-05-31T09:42:36Z</time>
      </trkpt>
      <trkpt lat="46.34971" lon="-0.43304">
        <ele>72.7</ele>
        <time>2020-05-31T09:42:37Z</time>
      </trkpt>
      <trkpt lat="46.34973" lon="-0.4331">
        <ele>72.6</ele>
        <time>2020-05-31T09:42:38Z</time>
      </trkpt>
      <trkpt lat="46.34975" lon="-0.43317">
        <ele>72.6</ele>
        <time>2020-05-31T09:42:39Z</time>
      </trkpt>
      <trkpt lat="46.34977" lon="-0.43324">
        <ele>72.5</ele>
        <time>2020-05-31T09:42:40Z</time>
      </trkpt>
      <trkpt lat="46.34978" lon="-0.43331">
        <ele>72.4</ele>
        <time>2020-05-31T09:42:41Z</time>
      </trkpt>
      <trkpt lat="46.3498" lon="-0.43338">
        <ele>72.4</ele>
        <time>2020-05-31T09:42:42Z</time>
      </trkpt>
      <trkpt lat="46.34982" lon="-0.43344">
        <ele>72.3</ele>
        <time>2020-05-31T09:42:43Z</time>
      </trkpt>
      <trkpt lat="46.34984" lon="-0.43351">
        <ele>72.3</ele>
        <time>2020-05-31T09:42:44Z</time>
      </trkpt>
      <trkpt lat="46.34986" lon="-0.43358">
        <ele>72.2</ele>
        <time>2020-05-31T09:42:45Z</time>
      </trkpt>
      <trkpt lat="46.34988" lon="-0.43364">
        <ele>72.2</ele>
        <time>2020-05-31T09:42:46Z</time>
      </trkpt>
      <trkpt lat="46.3499" lon="-0.43371">
        <ele>72.2</ele>
        <time>2020-05-31T09:42:47Z</time>
      </trkpt>
      <trkpt lat="46.34993" lon="-0.43378">
        <ele>72.2</ele>
        <time>2020-05-31T09:42:48Z</time>
      </trkpt>
      <trkpt lat="46.34995" lon="-0.43385">
        <ele>72.2</ele>
        <time>2020-05-31T09:42:49Z</time>
      </trkpt>
      <trkpt lat="46.34997" lon="-0.43392">
        <ele>72.1</ele>
        <time>2020-05-31T09:42:50Z</time>
      </trkpt>
      <trkpt lat="46.34998" lon="-0.43398">
        <ele>72.1</ele>
        <time>2020-05-31T09:42:51Z</time>
      </trkpt>
      <trkpt lat="46.35" lon="-0.43406">
        <ele>72</ele>
        <time>2020-05-31T09:42:52Z</time>
      </trkpt>
      <trkpt lat="46.35001" lon="-0.43413">
        <ele>71.9</ele>
        <time>2020-05-31T09:42:53Z</time>
      </trkpt>
      <trkpt lat="46.35004" lon="-0.43419">
        <ele>71.8</ele>
        <time>2020-05-31T09:42:54Z</time>
      </trkpt>
      <trkpt lat="46.35005" lon="-0.43427">
        <ele>71.7</ele>
        <time>2020-05-31T09:42:55Z</time>
      </trkpt>
      <trkpt lat="46.35007" lon="-0.43433">
        <ele>71.6</ele>
        <time>2020-05-31T09:42:56Z</time>
      </trkpt>
      <trkpt lat="46.35008" lon="-0.4344">
        <ele>71.4</ele>
        <time>2020-05-31T09:42:57Z</time>
      </trkpt>
      <trkpt lat="46.3501" lon="-0.43447">
        <ele>71.3</ele>
        <time>2020-05-31T09:42:58Z</time>
      </trkpt>
      <trkpt lat="46.35011" lon="-0.43454">
        <ele>71.2</ele>
        <time>2020-05-31T09:42:59Z</time>
      </trkpt>
      <trkpt lat="46.35013" lon="-0.43461">
        <ele>71</ele>
        <time>2020-05-31T09:43:00Z</time>
      </trkpt>
      <trkpt lat="46.35015" lon="-0.43468">
        <ele>70.9</ele>
        <time>2020-05-31T09:43:01Z</time>
      </trkpt>
      <trkpt lat="46.35017" lon="-0.43475">
        <ele>70.8</ele>
        <time>2020-05-31T09:43:02Z</time>
      </trkpt>
      <trkpt lat="46.35018" lon="-0.43482">
        <ele>70.7</ele>
        <time>2020-05-31T09:43:03Z</time>
      </trkpt>
      <trkpt lat="46.35019" lon="-0.4349">
        <ele>70.6</ele>
        <time>2020-05-31T09:43:04Z</time>
      </trkpt>
      <trkpt lat="46.35021" lon="-0.43497">
        <ele>70.5</ele>
        <time>2020-05-31T09:43:05Z</time>
      </trkpt>
      <trkpt lat="46.35023" lon="-0.43504">
        <ele>70.4</ele>
        <time>2020-05-31T09:43:06Z</time>
      </trkpt>
      <trkpt lat="46.35024" lon="-0.43511">
        <ele>70.3</ele>
        <time>2020-05-31T09:43:07Z</time>
      </trkpt>
      <trkpt lat="46.35026" lon="-0.43518">
        <ele>70.3</ele>
        <time>2020-05-31T09:43:08Z</time>
      </trkpt>
      <trkpt lat="46.35027" lon="-0.43526">
        <ele>70.2</ele>
        <time>2020-05-31T09:43:09Z</time>
      </trkpt>
      <trkpt lat="46.3503" lon="-0.43534">
        <ele>70.1</ele>
        <time>2020-05-31T09:43:10Z</time>
      </trkpt>
      <trkpt lat="46.35031" lon="-0.43541">
        <ele>70</ele>
        <time>2020-05-31T09:43:11Z</time>
      </trkpt>
      <trkpt lat="46.35033" lon="-0.43547">
        <ele>69.9</ele>
        <time>2020-05-31T09:43:12Z</time>
      </trkpt>
      <trkpt lat="46.35035" lon="-0.43555">
        <ele>69.8</ele>
        <time>2020-05-31T09:43:13Z</time>
      </trkpt>
      <trkpt lat="46.35036" lon="-0.43562">
        <ele>69.7</ele>
        <time>2020-05-31T09:43:14Z</time>
      </trkpt>
      <trkpt lat="46.35038" lon="-0.43569">
        <ele>69.6</ele>
        <time>2020-05-31T09:43:15Z</time>
      </trkpt>
      <trkpt lat="46.3504" lon="-0.43577">
        <ele>69.5</ele>
        <time>2020-05-31T09:43:16Z</time>
      </trkpt>
      <trkpt lat="46.35042" lon="-0.43584">
        <ele>69.4</ele>
        <time>2020-05-31T09:43:17Z</time>
      </trkpt>
      <trkpt lat="46.35043" lon="-0.43592">
        <ele>69.3</ele>
        <time>2020-05-31T09:43:18Z</time>
      </trkpt>
      <trkpt lat="46.35044" lon="-0.436">
        <ele>69.2</ele>
        <time>2020-05-31T09:43:19Z</time>
      </trkpt>
      <trkpt lat="46.35047" lon="-0.43608">
        <ele>69.1</ele>
        <time>2020-05-31T09:43:20Z</time>
      </trkpt>
      <trkpt lat="46.35049" lon="-0.43616">
        <ele>69</ele>
        <time>2020-05-31T09:43:21Z</time>
      </trkpt>
      <trkpt lat="46.3505" lon="-0.43623">
        <ele>68.9</ele>
        <time>2020-05-31T09:43:22Z</time>
      </trkpt>
      <trkpt lat="46.35052" lon="-0.43631">
        <ele>68.8</ele>
        <time>2020-05-31T09:43:23Z</time>
      </trkpt>
      <trkpt lat="46.35054" lon="-0.43639">
        <ele>68.7</ele>
        <time>2020-05-31T09:43:24Z</time>
      </trkpt>
      <trkpt lat="46.35056" lon="-0.43646">
        <ele>68.6</ele>
        <time>2020-05-31T09:43:25Z</time>
      </trkpt>
      <trkpt lat="46.35057" lon="-0.43653">
        <ele>68.6</ele>
        <time>2020-05-31T09:43:26Z</time>
      </trkpt>
      <trkpt lat="46.35059" lon="-0.43661">
        <ele>68.5</ele>
        <time>2020-05-31T09:43:27Z</time>
      </trkpt>
      <trkpt lat="46.35061" lon="-0.43668">
        <ele>68.5</ele>
        <time>2020-05-31T09:43:28Z</time>
      </trkpt>
      <trkpt lat="46.35063" lon="-0.43675">
        <ele>68.4</ele>
        <time>2020-05-31T09:43:29Z</time>
      </trkpt>
      <trkpt lat="46.35065" lon="-0.43682">
        <ele>68.4</ele>
        <time>2020-05-31T09:43:30Z</time>
      </trkpt>
      <trkpt lat="46.35065" lon="-0.43689">
        <ele>68.4</ele>
        <time>2020-05-31T09:43:31Z</time>
      </trkpt>
      <trkpt lat="46.35067" lon="-0.43696">
        <ele>68.3</ele>
        <time>2020-05-31T09:43:32Z</time>
      </trkpt>
      <trkpt lat="46.35068" lon="-0.43703">
        <ele>68.3</ele>
        <time>2020-05-31T09:43:33Z</time>
      </trkpt>
      <trkpt lat="46.35069" lon="-0.4371">
        <ele>68.3</ele>
        <time>2020-05-31T09:43:34Z</time>
      </trkpt>
      <trkpt lat="46.35071" lon="-0.43718">
        <ele>68.2</ele>
        <time>2020-05-31T09:43:35Z</time>
      </trkpt>
      <trkpt lat="46.35072" lon="-0.43726">
        <ele>68.2</ele>
        <time>2020-05-31T09:43:36Z</time>
      </trkpt>
      <trkpt lat="46.35072" lon="-0.43733">
        <ele>68.1</ele>
        <time>2020-05-31T09:43:37Z</time>
      </trkpt>
      <trkpt lat="46.35073" lon="-0.4374">
        <ele>68</ele>
        <time>2020-05-31T09:43:38Z</time>
      </trkpt>
      <trkpt lat="46.35075" lon="-0.43746">
        <ele>67.9</ele>
        <time>2020-05-31T09:43:39Z</time>
      </trkpt>
      <trkpt lat="46.35075" lon="-0.43753">
        <ele>67.7</ele>
        <time>2020-05-31T09:43:40Z</time>
      </trkpt>
      <trkpt lat="46.35075" lon="-0.4376">
        <ele>67.6</ele>
        <time>2020-05-31T09:43:41Z</time>
      </trkpt>
      <trkpt lat="46.35076" lon="-0.43768">
        <ele>67.4</ele>
        <time>2020-05-31T09:43:42Z</time>
      </trkpt>
      <trkpt lat="46.35077" lon="-0.43776">
        <ele>67.3</ele>
        <time>2020-05-31T09:43:43Z</time>
      </trkpt>
      <trkpt lat="46.35078" lon="-0.43784">
        <ele>67.2</ele>
        <time>2020-05-31T09:43:44Z</time>
      </trkpt>
      <trkpt lat="46.35078" lon="-0.43793">
        <ele>67.1</ele>
        <time>2020-05-31T09:43:45Z</time>
      </trkpt>
      <trkpt lat="46.35079" lon="-0.43802">
        <ele>67.1</ele>
        <time>2020-05-31T09:43:46Z</time>
      </trkpt>
      <trkpt lat="46.3508" lon="-0.4381">
        <ele>67</ele>
        <time>2020-05-31T09:43:47Z</time>
      </trkpt>
      <trkpt lat="46.35082" lon="-0.43819">
        <ele>67</ele>
        <time>2020-05-31T09:43:48Z</time>
      </trkpt>
      <trkpt lat="46.35084" lon="-0.43827">
        <ele>66.9</ele>
        <time>2020-05-31T09:43:49Z</time>
      </trkpt>
      <trkpt lat="46.35085" lon="-0.43836">
        <ele>66.8</ele>
        <time>2020-05-31T09:43:50Z</time>
      </trkpt>
      <trkpt lat="46.35084" lon="-0.43845">
        <ele>66.7</ele>
        <time>2020-05-31T09:43:51Z</time>
      </trkpt>
      <trkpt lat="46.35084" lon="-0.43854">
        <ele>66.6</ele>
        <time>2020-05-31T09:43:52Z</time>
      </trkpt>
      <trkpt lat="46.35084" lon="-0.43864">
        <ele>66.6</ele>
        <time>2020-05-31T09:43:53Z</time>
      </trkpt>
      <trkpt lat="46.35084" lon="-0.43873">
        <ele>66.5</ele>
        <time>2020-05-31T09:43:54Z</time>
      </trkpt>
      <trkpt lat="46.35085" lon="-0.43882">
        <ele>66.4</ele>
        <time>2020-05-31T09:43:55Z</time>
      </trkpt>
      <trkpt lat="46.35086" lon="-0.43891">
        <ele>66.3</ele>
        <time>2020-05-31T09:43:56Z</time>
      </trkpt>
      <trkpt lat="46.35087" lon="-0.439">
        <ele>66.3</ele>
        <time>2020-05-31T09:43:57Z</time>
      </trkpt>
      <trkpt lat="46.35088" lon="-0.43908">
        <ele>66.2</ele>
        <time>2020-05-31T09:43:58Z</time>
      </trkpt>
      <trkpt lat="46.35089" lon="-0.43917">
        <ele>66.2</ele>
        <time>2020-05-31T09:43:59Z</time>
      </trkpt>
      <trkpt lat="46.35091" lon="-0.43926">
        <ele>66.1</ele>
        <time>2020-05-31T09:44:00Z</time>
      </trkpt>
      <trkpt lat="46.35092" lon="-0.43935">
        <ele>66.1</ele>
        <time>2020-05-31T09:44:01Z</time>
      </trkpt>
      <trkpt lat="46.35094" lon="-0.43944">
        <ele>66</ele>
        <time>2020-05-31T09:44:02Z</time>
      </trkpt>
      <trkpt lat="46.35095" lon="-0.43952">
        <ele>65.9</ele>
        <time>2020-05-31T09:44:03Z</time>
      </trkpt>
      <trkpt lat="46.35097" lon="-0.4396">
        <ele>65.9</ele>
        <time>2020-05-31T09:44:04Z</time>
      </trkpt>
      <trkpt lat="46.35099" lon="-0.43969">
        <ele>65.8</ele>
        <time>2020-05-31T09:44:05Z</time>
      </trkpt>
      <trkpt lat="46.35101" lon="-0.43977">
        <ele>65.7</ele>
        <time>2020-05-31T09:44:06Z</time>
      </trkpt>
      <trkpt lat="46.35103" lon="-0.43985">
        <ele>65.6</ele>
        <time>2020-05-31T09:44:07Z</time>
      </trkpt>
      <trkpt lat="46.35105" lon="-0.43993">
        <ele>65.5</ele>
        <time>2020-05-31T09:44:08Z</time>
      </trkpt>
      <trkpt lat="46.35106" lon="-0.44">
        <ele>65.5</ele>
        <time>2020-05-31T09:44:09Z</time>
      </trkpt>
      <trkpt lat="46.35107" lon="-0.44008">
        <ele>65.4</ele>
        <time>2020-05-31T09:44:10Z</time>
      </trkpt>
      <trkpt lat="46.3511" lon="-0.44015">
        <ele>65.3</ele>
        <time>2020-05-31T09:44:11Z</time>
      </trkpt>
      <trkpt lat="46.35112" lon="-0.44022">
        <ele>65.3</ele>
        <time>2020-05-31T09:44:12Z</time>
      </trkpt>
      <trkpt lat="46.35113" lon="-0.44029">
        <ele>65.2</ele>
        <time>2020-05-31T09:44:13Z</time>
      </trkpt>
      <trkpt lat="46.35114" lon="-0.44036">
        <ele>65.1</ele>
        <time>2020-05-31T09:44:14Z</time>
      </trkpt>
      <trkpt lat="46.35115" lon="-0.44042">
        <ele>65</ele>
        <time>2020-05-31T09:44:15Z</time>
      </trkpt>
      <trkpt lat="46.35117" lon="-0.44047">
        <ele>65</ele>
        <time>2020-05-31T09:44:16Z</time>
      </trkpt>
      <trkpt lat="46.3512" lon="-0.4405">
        <ele>64.9</ele>
        <time>2020-05-31T09:44:17Z</time>
      </trkpt>
      <trkpt lat="46.35121" lon="-0.44054">
        <ele>64.9</ele>
        <time>2020-05-31T09:44:18Z</time>
      </trkpt>
      <trkpt lat="46.35121" lon="-0.44055">
        <ele>64.8</ele>
        <time>2020-05-31T09:44:19Z</time>
      </trkpt>
      <trkpt lat="46.35121" lon="-0.44057">
        <ele>64.8</ele>
        <time>2020-05-31T09:44:20Z</time>
      </trkpt>
      <trkpt lat="46.35122" lon="-0.44058">
        <ele>64.8</ele>
        <time>2020-05-31T09:44:21Z</time>
      </trkpt>
      <trkpt lat="46.35123" lon="-0.44059">
        <ele>64.8</ele>
        <time>2020-05-31T09:44:22Z</time>
      </trkpt>
      <trkpt lat="46.35124" lon="-0.44059">
        <ele>64.8</ele>
        <time>2020-05-31T09:44:23Z</time>
      </trkpt>
      <trkpt lat="46.35124" lon="-0.44059">
        <ele>64.8</ele>
        <time>2020-05-31T09:44:24Z</time>
      </trkpt>
      <trkpt lat="46.35124" lon="-0.4406">
        <ele>64.7</ele>
        <time>2020-05-31T09:44:25Z</time>
      </trkpt>
      <trkpt lat="46.35124" lon="-0.4406">
        <ele>64.7</ele>
        <time>2020-05-31T09:44:26Z</time>
      </trkpt>
      <trkpt lat="46.35124" lon="-0.4406">
        <ele>64.7</ele>
        <time>2020-05-31T09:44:27Z</time>
      </trkpt>
      <trkpt lat="46.35125" lon="-0.4406">
        <ele>64.7</ele>
        <time>2020-05-31T09:44:28Z</time>
      </trkpt>
      <trkpt lat="46.35124" lon="-0.44062">
        <ele>64.7</ele>
        <time>2020-05-31T09:44:29Z</time>
      </trkpt>
      <trkpt lat="46.35125" lon="-0.44066">
        <ele>64.6</ele>
        <time>2020-05-31T09:44:30Z</time>
      </trkpt>
      <trkpt lat="46.35125" lon="-0.44068">
        <ele>64.6</ele>
        <time>2020-05-31T09:44:31Z</time>
      </trkpt>
      <trkpt lat="46.35125" lon="-0.44072">
        <ele>64.6</ele>
        <time>2020-05-31T09:44:32Z</time>
      </trkpt>
      <trkpt lat="46.35125" lon="-0.44077">
        <ele>64.5</ele>
        <time>2020-05-31T09:44:33Z</time>
      </trkpt>
      <trkpt lat="46.35125" lon="-0.44082">
        <ele>64.5</ele>
        <time>2020-05-31T09:44:34Z</time>
      </trkpt>
      <trkpt lat="46.35125" lon="-0.44088">
        <ele>64.5</ele>
        <time>2020-05-31T09:44:35Z</time>
      </trkpt>
      <trkpt lat="46.35125" lon="-0.44093">
        <ele>64.4</ele>
        <time>2020-05-31T09:44:36Z</time>
      </trkpt>
      <trkpt lat="46.35125" lon="-0.44099">
        <ele>64.4</ele>
        <time>2020-05-31T09:44:37Z</time>
      </trkpt>
      <trkpt lat="46.35125" lon="-0.44104">
        <ele>64.4</ele>
        <time>2020-05-31T09:44:38Z</time>
      </trkpt>
      <trkpt lat="46.35126" lon="-0.44109">
        <ele>64.4</ele>
        <time>2020-05-31T09:44:39Z</time>
      </trkpt>
      <trkpt lat="46.35126" lon="-0.44115">
        <ele>64.4</ele>
        <time>2020-05-31T09:44:40Z</time>
      </trkpt>
      <trkpt lat="46.35127" lon="-0.44121">
        <ele>64.4</ele>
        <time>2020-05-31T09:44:41Z</time>
      </trkpt>
      <trkpt lat="46.35127" lon="-0.44127">
        <ele>64.4</ele>
        <time>2020-05-31T09:44:42Z</time>
      </trkpt>
      <trkpt lat="46.35128" lon="-0.44133">
        <ele>64.4</ele>
        <time>2020-05-31T09:44:43Z</time>
      </trkpt>
      <trkpt lat="46.35129" lon="-0.44139">
        <ele>64.4</ele>
        <time>2020-05-31T09:44:44Z</time>
      </trkpt>
      <trkpt lat="46.3513" lon="-0.44145">
        <ele>64.4</ele>
        <time>2020-05-31T09:44:45Z</time>
      </trkpt>
      <trkpt lat="46.35131" lon="-0.44152">
        <ele>64.4</ele>
        <time>2020-05-31T09:44:46Z</time>
      </trkpt>
      <trkpt lat="46.35132" lon="-0.44158">
        <ele>64.3</ele>
        <time>2020-05-31T09:44:47Z</time>
      </trkpt>
      <trkpt lat="46.35133" lon="-0.44165">
        <ele>64.3</ele>
        <time>2020-05-31T09:44:48Z</time>
      </trkpt>
      <trkpt lat="46.35133" lon="-0.44172">
        <ele>64.3</ele>
        <time>2020-05-31T09:44:49Z</time>
      </trkpt>
      <trkpt lat="46.35134" lon="-0.44178">
        <ele>64.3</ele>
        <time>2020-05-31T09:44:50Z</time>
      </trkpt>
      <trkpt lat="46.35136" lon="-0.44185">
        <ele>64.3</ele>
        <time>2020-05-31T09:44:51Z</time>
      </trkpt>
      <trkpt lat="46.35137" lon="-0.44192">
        <ele>64.2</ele>
        <time>2020-05-31T09:44:52Z</time>
      </trkpt>
      <trkpt lat="46.35139" lon="-0.44198">
        <ele>64.2</ele>
        <time>2020-05-31T09:44:53Z</time>
      </trkpt>
      <trkpt lat="46.3514" lon="-0.44205">
        <ele>64.2</ele>
        <time>2020-05-31T09:44:54Z</time>
      </trkpt>
      <trkpt lat="46.3514" lon="-0.44212">
        <ele>64.2</ele>
        <time>2020-05-31T09:44:55Z</time>
      </trkpt>
      <trkpt lat="46.35141" lon="-0.44218">
        <ele>64.1</ele>
        <time>2020-05-31T09:44:56Z</time>
      </trkpt>
      <trkpt lat="46.35143" lon="-0.44225">
        <ele>64.1</ele>
        <time>2020-05-31T09:44:57Z</time>
      </trkpt>
      <trkpt lat="46.35145" lon="-0.44231">
        <ele>64.1</ele>
        <time>2020-05-31T09:44:58Z</time>
      </trkpt>
      <trkpt lat="46.35146" lon="-0.44238">
        <ele>64</ele>
        <time>2020-05-31T09:44:59Z</time>
      </trkpt>
      <trkpt lat="46.35146" lon="-0.44244">
        <ele>64</ele>
        <time>2020-05-31T09:45:00Z</time>
      </trkpt>
      <trkpt lat="46.35146" lon="-0.4425">
        <ele>64</ele>
        <time>2020-05-31T09:45:01Z</time>
      </trkpt>
      <trkpt lat="46.35148" lon="-0.44257">
        <ele>63.9</ele>
        <time>2020-05-31T09:45:02Z</time>
      </trkpt>
      <trkpt lat="46.35149" lon="-0.44264">
        <ele>63.9</ele>
        <time>2020-05-31T09:45:03Z</time>
      </trkpt>
      <trkpt lat="46.35151" lon="-0.44271">
        <ele>63.8</ele>
        <time>2020-05-31T09:45:04Z</time>
      </trkpt>
      <trkpt lat="46.3515" lon="-0.44279">
        <ele>63.8</ele>
        <time>2020-05-31T09:45:05Z</time>
      </trkpt>
      <trkpt lat="46.35151" lon="-0.44286">
        <ele>63.7</ele>
        <time>2020-05-31T09:45:06Z</time>
      </trkpt>
      <trkpt lat="46.35151" lon="-0.44294">
        <ele>63.7</ele>
        <time>2020-05-31T09:45:07Z</time>
      </trkpt>
      <trkpt lat="46.35152" lon="-0.44301">
        <ele>63.7</ele>
        <time>2020-05-31T09:45:08Z</time>
      </trkpt>
      <trkpt lat="46.35153" lon="-0.44308">
        <ele>63.6</ele>
        <time>2020-05-31T09:45:09Z</time>
      </trkpt>
      <trkpt lat="46.35153" lon="-0.44315">
        <ele>63.6</ele>
        <time>2020-05-31T09:45:10Z</time>
      </trkpt>
      <trkpt lat="46.35153" lon="-0.44322">
        <ele>63.5</ele>
        <time>2020-05-31T09:45:11Z</time>
      </trkpt>
      <trkpt lat="46.35154" lon="-0.44329">
        <ele>63.5</ele>
        <time>2020-05-31T09:45:12Z</time>
      </trkpt>
      <trkpt lat="46.35154" lon="-0.44337">
        <ele>63.4</ele>
        <time>2020-05-31T09:45:13Z</time>
      </trkpt>
      <trkpt lat="46.35154" lon="-0.44345">
        <ele>63.4</ele>
        <time>2020-05-31T09:45:14Z</time>
      </trkpt>
      <trkpt lat="46.35155" lon="-0.44353">
        <ele>63.3</ele>
        <time>2020-05-31T09:45:15Z</time>
      </trkpt>
      <trkpt lat="46.35155" lon="-0.44361">
        <ele>63.3</ele>
        <time>2020-05-31T09:45:16Z</time>
      </trkpt>
      <trkpt lat="46.35156" lon="-0.4437">
        <ele>63.3</ele>
        <time>2020-05-31T09:45:17Z</time>
      </trkpt>
      <trkpt lat="46.35158" lon="-0.44378">
        <ele>63.2</ele>
        <time>2020-05-31T09:45:18Z</time>
      </trkpt>
      <trkpt lat="46.3516" lon="-0.44386">
        <ele>63.2</ele>
        <time>2020-05-31T09:45:19Z</time>
      </trkpt>
      <trkpt lat="46.35161" lon="-0.44394">
        <ele>63.1</ele>
        <time>2020-05-31T09:45:20Z</time>
      </trkpt>
      <trkpt lat="46.35162" lon="-0.44403">
        <ele>63.1</ele>
        <time>2020-05-31T09:45:21Z</time>
      </trkpt>
      <trkpt lat="46.35163" lon="-0.44412">
        <ele>63</ele>
        <time>2020-05-31T09:45:22Z</time>
      </trkpt>
      <trkpt lat="46.35165" lon="-0.4442">
        <ele>63</ele>
        <time>2020-05-31T09:45:23Z</time>
      </trkpt>
      <trkpt lat="46.35166" lon="-0.44428">
        <ele>62.9</ele>
        <time>2020-05-31T09:45:24Z</time>
      </trkpt>
      <trkpt lat="46.35168" lon="-0.44437">
        <ele>62.8</ele>
        <time>2020-05-31T09:45:25Z</time>
      </trkpt>
      <trkpt lat="46.35171" lon="-0.44446">
        <ele>62.8</ele>
        <time>2020-05-31T09:45:26Z</time>
      </trkpt>
      <trkpt lat="46.35173" lon="-0.44454">
        <ele>62.7</ele>
        <time>2020-05-31T09:45:27Z</time>
      </trkpt>
      <trkpt lat="46.35175" lon="-0.44463">
        <ele>62.7</ele>
        <time>2020-05-31T09:45:28Z</time>
      </trkpt>
      <trkpt lat="46.35178" lon="-0.44472">
        <ele>62.6</ele>
        <time>2020-05-31T09:45:29Z</time>
      </trkpt>
      <trkpt lat="46.35179" lon="-0.44481">
        <ele>62.5</ele>
        <time>2020-05-31T09:45:30Z</time>
      </trkpt>
      <trkpt lat="46.35181" lon="-0.4449">
        <ele>62.4</ele>
        <time>2020-05-31T09:45:31Z</time>
      </trkpt>
      <trkpt lat="46.35183" lon="-0.44498">
        <ele>62.4</ele>
        <time>2020-05-31T09:45:32Z</time>
      </trkpt>
      <trkpt lat="46.35185" lon="-0.44506">
        <ele>62.2</ele>
        <time>2020-05-31T09:45:33Z</time>
      </trkpt>
      <trkpt lat="46.35187" lon="-0.44515">
        <ele>62.1</ele>
        <time>2020-05-31T09:45:34Z</time>
      </trkpt>
      <trkpt lat="46.35189" lon="-0.44524">
        <ele>62</ele>
        <time>2020-05-31T09:45:35Z</time>
      </trkpt>
      <trkpt lat="46.35191" lon="-0.44532">
        <ele>61.9</ele>
        <time>2020-05-31T09:45:36Z</time>
      </trkpt>
      <trkpt lat="46.35194" lon="-0.4454">
        <ele>61.8</ele>
        <time>2020-05-31T09:45:37Z</time>
      </trkpt>
      <trkpt lat="46.35196" lon="-0.44549">
        <ele>61.7</ele>
        <time>2020-05-31T09:45:38Z</time>
      </trkpt>
      <trkpt lat="46.35197" lon="-0.44559">
        <ele>61.6</ele>
        <time>2020-05-31T09:45:39Z</time>
      </trkpt>
      <trkpt lat="46.35199" lon="-0.44568">
        <ele>61.5</ele>
        <time>2020-05-31T09:45:40Z</time>
      </trkpt>
      <trkpt lat="46.35202" lon="-0.44578">
        <ele>61.4</ele>
        <time>2020-05-31T09:45:41Z</time>
      </trkpt>
      <trkpt lat="46.35204" lon="-0.44587">
        <ele>61.3</ele>
        <time>2020-05-31T09:45:42Z</time>
      </trkpt>
      <trkpt lat="46.35207" lon="-0.44596">
        <ele>61.2</ele>
        <time>2020-05-31T09:45:43Z</time>
      </trkpt>
      <trkpt lat="46.35209" lon="-0.44605">
        <ele>61</ele>
        <time>2020-05-31T09:45:44Z</time>
      </trkpt>
      <trkpt lat="46.3521" lon="-0.44614">
        <ele>60.9</ele>
        <time>2020-05-31T09:45:45Z</time>
      </trkpt>
      <trkpt lat="46.35212" lon="-0.44622">
        <ele>60.8</ele>
        <time>2020-05-31T09:45:46Z</time>
      </trkpt>
      <trkpt lat="46.35215" lon="-0.4463">
        <ele>60.7</ele>
        <time>2020-05-31T09:45:47Z</time>
      </trkpt>
      <trkpt lat="46.35217" lon="-0.44639">
        <ele>60.6</ele>
        <time>2020-05-31T09:45:48Z</time>
      </trkpt>
      <trkpt lat="46.35219" lon="-0.44648">
        <ele>60.4</ele>
        <time>2020-05-31T09:45:49Z</time>
      </trkpt>
      <trkpt lat="46.3522" lon="-0.44656">
        <ele>60.3</ele>
        <time>2020-05-31T09:45:50Z</time>
      </trkpt>
      <trkpt lat="46.35221" lon="-0.44665">
        <ele>60.1</ele>
        <time>2020-05-31T09:45:51Z</time>
      </trkpt>
      <trkpt lat="46.35223" lon="-0.44674">
        <ele>60</ele>
        <time>2020-05-31T09:45:52Z</time>
      </trkpt>
      <trkpt lat="46.35225" lon="-0.44683">
        <ele>59.9</ele>
        <time>2020-05-31T09:45:53Z</time>
      </trkpt>
      <trkpt lat="46.35227" lon="-0.44693">
        <ele>59.8</ele>
        <time>2020-05-31T09:45:54Z</time>
      </trkpt>
      <trkpt lat="46.3523" lon="-0.44701">
        <ele>59.7</ele>
        <time>2020-05-31T09:45:55Z</time>
      </trkpt>
      <trkpt lat="46.35232" lon="-0.4471">
        <ele>59.6</ele>
        <time>2020-05-31T09:45:56Z</time>
      </trkpt>
      <trkpt lat="46.35235" lon="-0.44719">
        <ele>59.4</ele>
        <time>2020-05-31T09:45:57Z</time>
      </trkpt>
      <trkpt lat="46.35238" lon="-0.44729">
        <ele>59.2</ele>
        <time>2020-05-31T09:45:58Z</time>
      </trkpt>
      <trkpt lat="46.35241" lon="-0.44737">
        <ele>59</ele>
        <time>2020-05-31T09:45:59Z</time>
      </trkpt>
      <trkpt lat="46.35244" lon="-0.44746">
        <ele>58.8</ele>
        <time>2020-05-31T09:46:00Z</time>
      </trkpt>
      <trkpt lat="46.35248" lon="-0.44755">
        <ele>58.7</ele>
        <time>2020-05-31T09:46:01Z</time>
      </trkpt>
      <trkpt lat="46.35251" lon="-0.44764">
        <ele>58.5</ele>
        <time>2020-05-31T09:46:02Z</time>
      </trkpt>
      <trkpt lat="46.35255" lon="-0.44774">
        <ele>58.3</ele>
        <time>2020-05-31T09:46:03Z</time>
      </trkpt>
      <trkpt lat="46.35259" lon="-0.44782">
        <ele>58.1</ele>
        <time>2020-05-31T09:46:04Z</time>
      </trkpt>
      <trkpt lat="46.35263" lon="-0.44791">
        <ele>58</ele>
        <time>2020-05-31T09:46:05Z</time>
      </trkpt>
      <trkpt lat="46.35267" lon="-0.44799">
        <ele>57.8</ele>
        <time>2020-05-31T09:46:06Z</time>
      </trkpt>
      <trkpt lat="46.35272" lon="-0.44806">
        <ele>57.6</ele>
        <time>2020-05-31T09:46:07Z</time>
      </trkpt>
      <trkpt lat="46.35276" lon="-0.44814">
        <ele>57.5</ele>
        <time>2020-05-31T09:46:08Z</time>
      </trkpt>
      <trkpt lat="46.35281" lon="-0.44822">
        <ele>57.3</ele>
        <time>2020-05-31T09:46:09Z</time>
      </trkpt>
      <trkpt lat="46.35286" lon="-0.44829">
        <ele>57.1</ele>
        <time>2020-05-31T09:46:10Z</time>
      </trkpt>
      <trkpt lat="46.35291" lon="-0.44837">
        <ele>57</ele>
        <time>2020-05-31T09:46:11Z</time>
      </trkpt>
      <trkpt lat="46.35297" lon="-0.44844">
        <ele>56.8</ele>
        <time>2020-05-31T09:46:12Z</time>
      </trkpt>
      <trkpt lat="46.35302" lon="-0.44851">
        <ele>56.6</ele>
        <time>2020-05-31T09:46:13Z</time>
      </trkpt>
      <trkpt lat="46.35308" lon="-0.44858">
        <ele>56.4</ele>
        <time>2020-05-31T09:46:14Z</time>
      </trkpt>
      <trkpt lat="46.35313" lon="-0.44865">
        <ele>56.2</ele>
        <time>2020-05-31T09:46:15Z</time>
      </trkpt>
      <trkpt lat="46.35319" lon="-0.44871">
        <ele>56</ele>
        <time>2020-05-31T09:46:16Z</time>
      </trkpt>
      <trkpt lat="46.35325" lon="-0.44877">
        <ele>55.8</ele>
        <time>2020-05-31T09:46:17Z</time>
      </trkpt>
      <trkpt lat="46.35332" lon="-0.44882">
        <ele>55.6</ele>
        <time>2020-05-31T09:46:18Z</time>
      </trkpt>
      <trkpt lat="46.35338" lon="-0.44888">
        <ele>55.3</ele>
        <time>2020-05-31T09:46:19Z</time>
      </trkpt>
      <trkpt lat="46.35344" lon="-0.44893">
        <ele>55.1</ele>
        <time>2020-05-31T09:46:20Z</time>
      </trkpt>
      <trkpt lat="46.35349" lon="-0.44899">
        <ele>54.9</ele>
        <time>2020-05-31T09:46:21Z</time>
      </trkpt>
      <trkpt lat="46.35355" lon="-0.44905">
        <ele>54.7</ele>
        <time>2020-05-31T09:46:22Z</time>
      </trkpt>
      <trkpt lat="46.35362" lon="-0.44911">
        <ele>54.4</ele>
        <time>2020-05-31T09:46:23Z</time>
      </trkpt>
      <trkpt lat="46.35368" lon="-0.44918">
        <ele>54.2</ele>
        <time>2020-05-31T09:46:24Z</time>
      </trkpt>
      <trkpt lat="46.35374" lon="-0.44925">
        <ele>54</ele>
        <time>2020-05-31T09:46:25Z</time>
      </trkpt>
      <trkpt lat="46.35379" lon="-0.44933">
        <ele>53.7</ele>
        <time>2020-05-31T09:46:26Z</time>
      </trkpt>
      <trkpt lat="46.35386" lon="-0.44942">
        <ele>53.4</ele>
        <time>2020-05-31T09:46:27Z</time>
      </trkpt>
      <trkpt lat="46.35392" lon="-0.4495">
        <ele>53.2</ele>
        <time>2020-05-31T09:46:28Z</time>
      </trkpt>
      <trkpt lat="46.35397" lon="-0.44958">
        <ele>52.9</ele>
        <time>2020-05-31T09:46:29Z</time>
      </trkpt>
      <trkpt lat="46.35402" lon="-0.4497">
        <ele>52.6</ele>
        <time>2020-05-31T09:46:30Z</time>
      </trkpt>
      <trkpt lat="46.35406" lon="-0.44981">
        <ele>52.3</ele>
        <time>2020-05-31T09:46:31Z</time>
      </trkpt>
      <trkpt lat="46.3541" lon="-0.44991">
        <ele>52</ele>
        <time>2020-05-31T09:46:32Z</time>
      </trkpt>
      <trkpt lat="46.35414" lon="-0.45">
        <ele>51.7</ele>
        <time>2020-05-31T09:46:33Z</time>
      </trkpt>
      <trkpt lat="46.35418" lon="-0.45011">
        <ele>51.5</ele>
        <time>2020-05-31T09:46:34Z</time>
      </trkpt>
      <trkpt lat="46.35422" lon="-0.45021">
        <ele>51.2</ele>
        <time>2020-05-31T09:46:35Z</time>
      </trkpt>
      <trkpt lat="46.35426" lon="-0.45032">
        <ele>50.9</ele>
        <time>2020-05-31T09:46:36Z</time>
      </trkpt>
      <trkpt lat="46.3543" lon="-0.45041">
        <ele>50.7</ele>
        <time>2020-05-31T09:46:37Z</time>
      </trkpt>
      <trkpt lat="46.35434" lon="-0.45051">
        <ele>50.5</ele>
        <time>2020-05-31T09:46:38Z</time>
      </trkpt>
      <trkpt lat="46.35438" lon="-0.45062">
        <ele>50.4</ele>
        <time>2020-05-31T09:46:39Z</time>
      </trkpt>
      <trkpt lat="46.35443" lon="-0.45073">
        <ele>50.1</ele>
        <time>2020-05-31T09:46:40Z</time>
      </trkpt>
      <trkpt lat="46.35447" lon="-0.45082">
        <ele>49.9</ele>
        <time>2020-05-31T09:46:41Z</time>
      </trkpt>
      <trkpt lat="46.35451" lon="-0.45093">
        <ele>49.6</ele>
        <time>2020-05-31T09:46:42Z</time>
      </trkpt>
      <trkpt lat="46.35454" lon="-0.45103">
        <ele>49.3</ele>
        <time>2020-05-31T09:46:43Z</time>
      </trkpt>
      <trkpt lat="46.35458" lon="-0.45114">
        <ele>49</ele>
        <time>2020-05-31T09:46:44Z</time>
      </trkpt>
      <trkpt lat="46.35462" lon="-0.45124">
        <ele>48.7</ele>
        <time>2020-05-31T09:46:45Z</time>
      </trkpt>
      <trkpt lat="46.35466" lon="-0.45133">
        <ele>48.5</ele>
        <time>2020-05-31T09:46:46Z</time>
      </trkpt>
      <trkpt lat="46.3547" lon="-0.45144">
        <ele>48.4</ele>
        <time>2020-05-31T09:46:47Z</time>
      </trkpt>
      <trkpt lat="46.35474" lon="-0.45155">
        <ele>48</ele>
        <time>2020-05-31T09:46:48Z</time>
      </trkpt>
      <trkpt lat="46.35478" lon="-0.45166">
        <ele>47.6</ele>
        <time>2020-05-31T09:46:49Z</time>
      </trkpt>
      <trkpt lat="46.35483" lon="-0.45176">
        <ele>47.2</ele>
        <time>2020-05-31T09:46:50Z</time>
      </trkpt>
      <trkpt lat="46.35487" lon="-0.45186">
        <ele>46.8</ele>
        <time>2020-05-31T09:46:51Z</time>
      </trkpt>
      <trkpt lat="46.3549" lon="-0.45196">
        <ele>46.6</ele>
        <time>2020-05-31T09:46:52Z</time>
      </trkpt>
      <trkpt lat="46.35494" lon="-0.45207">
        <ele>46.4</ele>
        <time>2020-05-31T09:46:53Z</time>
      </trkpt>
      <trkpt lat="46.35497" lon="-0.45217">
        <ele>46.2</ele>
        <time>2020-05-31T09:46:54Z</time>
      </trkpt>
      <trkpt lat="46.35502" lon="-0.45226">
        <ele>45.9</ele>
        <time>2020-05-31T09:46:55Z</time>
      </trkpt>
      <trkpt lat="46.35507" lon="-0.45236">
        <ele>45.6</ele>
        <time>2020-05-31T09:46:56Z</time>
      </trkpt>
      <trkpt lat="46.3551" lon="-0.45246">
        <ele>45.3</ele>
        <time>2020-05-31T09:46:57Z</time>
      </trkpt>
      <trkpt lat="46.35513" lon="-0.45256">
        <ele>45</ele>
        <time>2020-05-31T09:46:58Z</time>
      </trkpt>
      <trkpt lat="46.35516" lon="-0.45265">
        <ele>44.7</ele>
        <time>2020-05-31T09:46:59Z</time>
      </trkpt>
      <trkpt lat="46.35519" lon="-0.45274">
        <ele>44.5</ele>
        <time>2020-05-31T09:47:00Z</time>
      </trkpt>
      <trkpt lat="46.3552" lon="-0.45283">
        <ele>44.3</ele>
        <time>2020-05-31T09:47:01Z</time>
      </trkpt>
      <trkpt lat="46.35523" lon="-0.4529">
        <ele>44.1</ele>
        <time>2020-05-31T09:47:02Z</time>
      </trkpt>
      <trkpt lat="46.35524" lon="-0.45299">
        <ele>43.9</ele>
        <time>2020-05-31T09:47:03Z</time>
      </trkpt>
      <trkpt lat="46.35526" lon="-0.45308">
        <ele>43.6</ele>
        <time>2020-05-31T09:47:04Z</time>
      </trkpt>
      <trkpt lat="46.35529" lon="-0.45318">
        <ele>43.5</ele>
        <time>2020-05-31T09:47:05Z</time>
      </trkpt>
      <trkpt lat="46.35531" lon="-0.45328">
        <ele>43.3</ele>
        <time>2020-05-31T09:47:06Z</time>
      </trkpt>
      <trkpt lat="46.35532" lon="-0.45339">
        <ele>43.1</ele>
        <time>2020-05-31T09:47:07Z</time>
      </trkpt>
      <trkpt lat="46.35535" lon="-0.45349">
        <ele>42.8</ele>
        <time>2020-05-31T09:47:08Z</time>
      </trkpt>
      <trkpt lat="46.3554" lon="-0.45358">
        <ele>42.6</ele>
        <time>2020-05-31T09:47:09Z</time>
      </trkpt>
      <trkpt lat="46.35544" lon="-0.45367">
        <ele>42.4</ele>
        <time>2020-05-31T09:47:10Z</time>
      </trkpt>
      <trkpt lat="46.35548" lon="-0.45377">
        <ele>42.2</ele>
        <time>2020-05-31T09:47:11Z</time>
      </trkpt>
      <trkpt lat="46.35552" lon="-0.45385">
        <ele>42.1</ele>
        <time>2020-05-31T09:47:12Z</time>
      </trkpt>
      <trkpt lat="46.35556" lon="-0.45393">
        <ele>41.9</ele>
        <time>2020-05-31T09:47:13Z</time>
      </trkpt>
      <trkpt lat="46.3556" lon="-0.45401">
        <ele>41.8</ele>
        <time>2020-05-31T09:47:14Z</time>
      </trkpt>
      <trkpt lat="46.35563" lon="-0.45408">
        <ele>41.6</ele>
        <time>2020-05-31T09:47:15Z</time>
      </trkpt>
      <trkpt lat="46.35567" lon="-0.45415">
        <ele>41.5</ele>
        <time>2020-05-31T09:47:16Z</time>
      </trkpt>
      <trkpt lat="46.35571" lon="-0.45421">
        <ele>41.3</ele>
        <time>2020-05-31T09:47:17Z</time>
      </trkpt>
      <trkpt lat="46.35574" lon="-0.45428">
        <ele>41.1</ele>
        <time>2020-05-31T09:47:18Z</time>
      </trkpt>
      <trkpt lat="46.35578" lon="-0.45435">
        <ele>40.9</ele>
        <time>2020-05-31T09:47:19Z</time>
      </trkpt>
      <trkpt lat="46.35582" lon="-0.45442">
        <ele>40.7</ele>
        <time>2020-05-31T09:47:20Z</time>
      </trkpt>
      <trkpt lat="46.35585" lon="-0.45448">
        <ele>40.5</ele>
        <time>2020-05-31T09:47:21Z</time>
      </trkpt>
      <trkpt lat="46.35588" lon="-0.45455">
        <ele>40.4</ele>
        <time>2020-05-31T09:47:22Z</time>
      </trkpt>
      <trkpt lat="46.35592" lon="-0.45462">
        <ele>40.2</ele>
        <time>2020-05-31T09:47:23Z</time>
      </trkpt>
      <trkpt lat="46.35596" lon="-0.45468">
        <ele>40</ele>
        <time>2020-05-31T09:47:24Z</time>
      </trkpt>
      <trkpt lat="46.356" lon="-0.45475">
        <ele>39.8</ele>
        <time>2020-05-31T09:47:25Z</time>
      </trkpt>
      <trkpt lat="46.35604" lon="-0.45481">
        <ele>39.6</ele>
        <time>2020-05-31T09:47:26Z</time>
      </trkpt>
      <trkpt lat="46.35609" lon="-0.45486">
        <ele>39.4</ele>
        <time>2020-05-31T09:47:27Z</time>
      </trkpt>
      <trkpt lat="46.35612" lon="-0.45492">
        <ele>39.2</ele>
        <time>2020-05-31T09:47:28Z</time>
      </trkpt>
      <trkpt lat="46.35616" lon="-0.45499">
        <ele>39</ele>
        <time>2020-05-31T09:47:29Z</time>
      </trkpt>
      <trkpt lat="46.3562" lon="-0.45506">
        <ele>38.7</ele>
        <time>2020-05-31T09:47:30Z</time>
      </trkpt>
      <trkpt lat="46.35623" lon="-0.45514">
        <ele>38.4</ele>
        <time>2020-05-31T09:47:31Z</time>
      </trkpt>
      <trkpt lat="46.35628" lon="-0.45521">
        <ele>38.1</ele>
        <time>2020-05-31T09:47:32Z</time>
      </trkpt>
      <trkpt lat="46.35632" lon="-0.45529">
        <ele>37.7</ele>
        <time>2020-05-31T09:47:33Z</time>
      </trkpt>
      <trkpt lat="46.35637" lon="-0.45536">
        <ele>37.4</ele>
        <time>2020-05-31T09:47:34Z</time>
      </trkpt>
      <trkpt lat="46.35642" lon="-0.45543">
        <ele>37.1</ele>
        <time>2020-05-31T09:47:35Z</time>
      </trkpt>
      <trkpt lat="46.35644" lon="-0.45552">
        <ele>36.8</ele>
        <time>2020-05-31T09:47:36Z</time>
      </trkpt>
      <trkpt lat="46.35648" lon="-0.45561">
        <ele>36.5</ele>
        <time>2020-05-31T09:47:37Z</time>
      </trkpt>
      <trkpt lat="46.35651" lon="-0.45569">
        <ele>36.2</ele>
        <time>2020-05-31T09:47:38Z</time>
      </trkpt>
      <trkpt lat="46.35655" lon="-0.45577">
        <ele>35.9</ele>
        <time>2020-05-31T09:47:39Z</time>
      </trkpt>
      <trkpt lat="46.35657" lon="-0.45585">
        <ele>35.7</ele>
        <time>2020-05-31T09:47:40Z</time>
      </trkpt>
      <trkpt lat="46.35662" lon="-0.45592">
        <ele>35.4</ele>
        <time>2020-05-31T09:47:41Z</time>
      </trkpt>
      <trkpt lat="46.35665" lon="-0.456">
        <ele>35.2</ele>
        <time>2020-05-31T09:47:42Z</time>
      </trkpt>
      <trkpt lat="46.35667" lon="-0.45609">
        <ele>35</ele>
        <time>2020-05-31T09:47:43Z</time>
      </trkpt>
      <trkpt lat="46.35669" lon="-0.45618">
        <ele>34.7</ele>
        <time>2020-05-31T09:47:44Z</time>
      </trkpt>
      <trkpt lat="46.35672" lon="-0.45627">
        <ele>34.4</ele>
        <time>2020-05-31T09:47:45Z</time>
      </trkpt>
      <trkpt lat="46.35674" lon="-0.45637">
        <ele>34.1</ele>
        <time>2020-05-31T09:47:46Z</time>
      </trkpt>
      <trkpt lat="46.35676" lon="-0.45647">
        <ele>33.8</ele>
        <time>2020-05-31T09:47:47Z</time>
      </trkpt>
      <trkpt lat="46.35677" lon="-0.45658">
        <ele>33.6</ele>
        <time>2020-05-31T09:47:48Z</time>
      </trkpt>
      <trkpt lat="46.3568" lon="-0.45668">
        <ele>33.4</ele>
        <time>2020-05-31T09:47:49Z</time>
      </trkpt>
      <trkpt lat="46.35684" lon="-0.45678">
        <ele>33.2</ele>
        <time>2020-05-31T09:47:50Z</time>
      </trkpt>
      <trkpt lat="46.35688" lon="-0.45687">
        <ele>32.9</ele>
        <time>2020-05-31T09:47:51Z</time>
      </trkpt>
      <trkpt lat="46.35691" lon="-0.45695">
        <ele>32.5</ele>
        <time>2020-05-31T09:47:52Z</time>
      </trkpt>
      <trkpt lat="46.35694" lon="-0.45706">
        <ele>32</ele>
        <time>2020-05-31T09:47:53Z</time>
      </trkpt>
      <trkpt lat="46.35696" lon="-0.45715">
        <ele>31.5</ele>
        <time>2020-05-31T09:47:54Z</time>
      </trkpt>
      <trkpt lat="46.35698" lon="-0.45725">
        <ele>31</ele>
        <time>2020-05-31T09:47:55Z</time>
      </trkpt>
      <trkpt lat="46.357" lon="-0.45734">
        <ele>30.4</ele>
        <time>2020-05-31T09:47:56Z</time>
      </trkpt>
      <trkpt lat="46.35702" lon="-0.45743">
        <ele>29.9</ele>
        <time>2020-05-31T09:47:57Z</time>
      </trkpt>
      <trkpt lat="46.35703" lon="-0.45751">
        <ele>29.4</ele>
        <time>2020-05-31T09:47:58Z</time>
      </trkpt>
      <trkpt lat="46.35704" lon="-0.45759">
        <ele>28.9</ele>
        <time>2020-05-31T09:47:59Z</time>
      </trkpt>
      <trkpt lat="46.35707" lon="-0.45766">
        <ele>28.5</ele>
        <time>2020-05-31T09:48:00Z</time>
      </trkpt>
      <trkpt lat="46.35708" lon="-0.45773">
        <ele>28.1</ele>
        <time>2020-05-31T09:48:01Z</time>
      </trkpt>
      <trkpt lat="46.35709" lon="-0.4578">
        <ele>27.8</ele>
        <time>2020-05-31T09:48:02Z</time>
      </trkpt>
      <trkpt lat="46.35709" lon="-0.45784">
        <ele>27.6</ele>
        <time>2020-05-31T09:48:03Z</time>
      </trkpt>
      <trkpt lat="46.35708" lon="-0.45787">
        <ele>27.1</ele>
        <time>2020-05-31T09:48:04Z</time>
      </trkpt>
      <trkpt lat="46.35704" lon="-0.45789">
        <ele>26.9</ele>
        <time>2020-05-31T09:48:05Z</time>
      </trkpt>
      <trkpt lat="46.357" lon="-0.45788">
        <ele>26.6</ele>
        <time>2020-05-31T09:48:06Z</time>
      </trkpt>
      <trkpt lat="46.35695" lon="-0.45789">
        <ele>26.3</ele>
        <time>2020-05-31T09:48:07Z</time>
      </trkpt>
      <trkpt lat="46.35691" lon="-0.45792">
        <ele>25.9</ele>
        <time>2020-05-31T09:48:08Z</time>
      </trkpt>
      <trkpt lat="46.35687" lon="-0.45794">
        <ele>25.5</ele>
        <time>2020-05-31T09:48:09Z</time>
      </trkpt>
      <trkpt lat="46.35682" lon="-0.45793">
        <ele>25</ele>
        <time>2020-05-31T09:48:10Z</time>
      </trkpt>
      <trkpt lat="46.35676" lon="-0.45789">
        <ele>24.4</ele>
        <time>2020-05-31T09:48:11Z</time>
      </trkpt>
      <trkpt lat="46.35671" lon="-0.45783">
        <ele>23.8</ele>
        <time>2020-05-31T09:48:12Z</time>
      </trkpt>
      <trkpt lat="46.35667" lon="-0.45774">
        <ele>23.1</ele>
        <time>2020-05-31T09:48:13Z</time>
      </trkpt>
      <trkpt lat="46.35661" lon="-0.45765">
        <ele>22.3</ele>
        <time>2020-05-31T09:48:14Z</time>
      </trkpt>
      <trkpt lat="46.35656" lon="-0.45754">
        <ele>21.6</ele>
        <time>2020-05-31T09:48:15Z</time>
      </trkpt>
      <trkpt lat="46.3565" lon="-0.45743">
        <ele>21</ele>
        <time>2020-05-31T09:48:16Z</time>
      </trkpt>
      <trkpt lat="46.35644" lon="-0.45732">
        <ele>20.4</ele>
        <time>2020-05-31T09:48:17Z</time>
      </trkpt>
      <trkpt lat="46.35637" lon="-0.45722">
        <ele>19.8</ele>
        <time>2020-05-31T09:48:18Z</time>
      </trkpt>
      <trkpt lat="46.35629" lon="-0.45712">
        <ele>19.2</ele>
        <time>2020-05-31T09:48:19Z</time>
      </trkpt>
      <trkpt lat="46.35622" lon="-0.45701">
        <ele>18.7</ele>
        <time>2020-05-31T09:48:20Z</time>
      </trkpt>
      <trkpt lat="46.35615" lon="-0.4569">
        <ele>18.3</ele>
        <time>2020-05-31T09:48:21Z</time>
      </trkpt>
      <trkpt lat="46.35608" lon="-0.45681">
        <ele>18.1</ele>
        <time>2020-05-31T09:48:22Z</time>
      </trkpt>
      <trkpt lat="46.35601" lon="-0.45671">
        <ele>17.9</ele>
        <time>2020-05-31T09:48:23Z</time>
      </trkpt>
      <trkpt lat="46.35594" lon="-0.45663">
        <ele>17.8</ele>
        <time>2020-05-31T09:48:24Z</time>
      </trkpt>
      <trkpt lat="46.35588" lon="-0.45656">
        <ele>17.7</ele>
        <time>2020-05-31T09:48:25Z</time>
      </trkpt>
      <trkpt lat="46.35583" lon="-0.45648">
        <ele>17.6</ele>
        <time>2020-05-31T09:48:26Z</time>
      </trkpt>
      <trkpt lat="46.35578" lon="-0.45642">
        <ele>17.5</ele>
        <time>2020-05-31T09:48:27Z</time>
      </trkpt>
      <trkpt lat="46.35573" lon="-0.45638">
        <ele>17.5</ele>
        <time>2020-05-31T09:48:28Z</time>
      </trkpt>
      <trkpt lat="46.35565" lon="-0.45639">
        <ele>17.4</ele>
        <time>2020-05-31T09:48:29Z</time>
      </trkpt>
      <trkpt lat="46.35559" lon="-0.45643">
        <ele>17.4</ele>
        <time>2020-05-31T09:48:30Z</time>
      </trkpt>
      <trkpt lat="46.35554" lon="-0.45649">
        <ele>17.4</ele>
        <time>2020-05-31T09:48:31Z</time>
      </trkpt>
      <trkpt lat="46.35549" lon="-0.45656">
        <ele>17.3</ele>
        <time>2020-05-31T09:48:32Z</time>
      </trkpt>
      <trkpt lat="46.35546" lon="-0.45661">
        <ele>17.3</ele>
        <time>2020-05-31T09:48:33Z</time>
      </trkpt>
      <trkpt lat="46.35543" lon="-0.45664">
        <ele>17.3</ele>
        <time>2020-05-31T09:48:34Z</time>
      </trkpt>
      <trkpt lat="46.3554" lon="-0.45667">
        <ele>17.3</ele>
        <time>2020-05-31T09:48:35Z</time>
      </trkpt>
      <trkpt lat="46.35537" lon="-0.45669">
        <ele>17.3</ele>
        <time>2020-05-31T09:48:36Z</time>
      </trkpt>
      <trkpt lat="46.35533" lon="-0.45674">
        <ele>17.2</ele>
        <time>2020-05-31T09:48:37Z</time>
      </trkpt>
      <trkpt lat="46.35529" lon="-0.45679">
        <ele>17.2</ele>
        <time>2020-05-31T09:48:38Z</time>
      </trkpt>
      <trkpt lat="46.35524" lon="-0.45685">
        <ele>17.2</ele>
        <time>2020-05-31T09:48:39Z</time>
      </trkpt>
      <trkpt lat="46.3552" lon="-0.45691">
        <ele>17.2</ele>
        <time>2020-05-31T09:48:40Z</time>
      </trkpt>
      <trkpt lat="46.35515" lon="-0.45698">
        <ele>17.2</ele>
        <time>2020-05-31T09:48:41Z</time>
      </trkpt>
      <trkpt lat="46.3551" lon="-0.45704">
        <ele>17.1</ele>
        <time>2020-05-31T09:48:42Z</time>
      </trkpt>
      <trkpt lat="46.35506" lon="-0.45712">
        <ele>17.1</ele>
        <time>2020-05-31T09:48:43Z</time>
      </trkpt>
      <trkpt lat="46.35502" lon="-0.45719">
        <ele>17</ele>
        <time>2020-05-31T09:48:44Z</time>
      </trkpt>
      <trkpt lat="46.35498" lon="-0.45727">
        <ele>17</ele>
        <time>2020-05-31T09:48:45Z</time>
      </trkpt>
      <trkpt lat="46.35494" lon="-0.45734">
        <ele>16.9</ele>
        <time>2020-05-31T09:48:46Z</time>
      </trkpt>
      <trkpt lat="46.3549" lon="-0.45741">
        <ele>16.8</ele>
        <time>2020-05-31T09:48:47Z</time>
      </trkpt>
      <trkpt lat="46.35485" lon="-0.45746">
        <ele>16.8</ele>
        <time>2020-05-31T09:48:48Z</time>
      </trkpt>
      <trkpt lat="46.35481" lon="-0.45752">
        <ele>16.8</ele>
        <time>2020-05-31T09:48:49Z</time>
      </trkpt>
      <trkpt lat="46.35476" lon="-0.45756">
        <ele>16.7</ele>
        <time>2020-05-31T09:48:50Z</time>
      </trkpt>
      <trkpt lat="46.35471" lon="-0.45757">
        <ele>16.8</ele>
        <time>2020-05-31T09:48:51Z</time>
      </trkpt>
      <trkpt lat="46.35466" lon="-0.45756">
        <ele>16.8</ele>
        <time>2020-05-31T09:48:52Z</time>
      </trkpt>
      <trkpt lat="46.3546" lon="-0.45751">
        <ele>16.9</ele>
        <time>2020-05-31T09:48:53Z</time>
      </trkpt>
      <trkpt lat="46.35456" lon="-0.45746">
        <ele>16.9</ele>
        <time>2020-05-31T09:48:54Z</time>
      </trkpt>
      <trkpt lat="46.35452" lon="-0.45741">
        <ele>17</ele>
        <time>2020-05-31T09:48:55Z</time>
      </trkpt>
      <trkpt lat="46.35448" lon="-0.45736">
        <ele>17.1</ele>
        <time>2020-05-31T09:48:56Z</time>
      </trkpt>
      <trkpt lat="46.35444" lon="-0.45732">
        <ele>17.2</ele>
        <time>2020-05-31T09:48:57Z</time>
      </trkpt>
      <trkpt lat="46.35441" lon="-0.45727">
        <ele>17.2</ele>
        <time>2020-05-31T09:48:58Z</time>
      </trkpt>
      <trkpt lat="46.35437" lon="-0.45724">
        <ele>17.3</ele>
        <time>2020-05-31T09:48:59Z</time>
      </trkpt>
      <trkpt lat="46.35433" lon="-0.4572">
        <ele>17.4</ele>
        <time>2020-05-31T09:49:00Z</time>
      </trkpt>
      <trkpt lat="46.3543" lon="-0.45716">
        <ele>17.5</ele>
        <time>2020-05-31T09:49:01Z</time>
      </trkpt>
      <trkpt lat="46.35426" lon="-0.45712">
        <ele>17.6</ele>
        <time>2020-05-31T09:49:02Z</time>
      </trkpt>
      <trkpt lat="46.35421" lon="-0.4571">
        <ele>17.8</ele>
        <time>2020-05-31T09:49:03Z</time>
      </trkpt>
      <trkpt lat="46.35416" lon="-0.45709">
        <ele>17.9</ele>
        <time>2020-05-31T09:49:04Z</time>
      </trkpt>
      <trkpt lat="46.35412" lon="-0.45709">
        <ele>18</ele>
        <time>2020-05-31T09:49:05Z</time>
      </trkpt>
      <trkpt lat="46.35408" lon="-0.45708">
        <ele>18.1</ele>
        <time>2020-05-31T09:49:06Z</time>
      </trkpt>
      <trkpt lat="46.35404" lon="-0.45708">
        <ele>18.2</ele>
        <time>2020-05-31T09:49:07Z</time>
      </trkpt>
      <trkpt lat="46.354" lon="-0.45709">
        <ele>18.5</ele>
        <time>2020-05-31T09:49:08Z</time>
      </trkpt>
      <trkpt lat="46.35396" lon="-0.45711">
        <ele>18.6</ele>
        <time>2020-05-31T09:49:09Z</time>
      </trkpt>
      <trkpt lat="46.35392" lon="-0.45713">
        <ele>18.8</ele>
        <time>2020-05-31T09:49:10Z</time>
      </trkpt>
      <trkpt lat="46.35389" lon="-0.45716">
        <ele>19</ele>
        <time>2020-05-31T09:49:11Z</time>
      </trkpt>
      <trkpt lat="46.35386" lon="-0.45719">
        <ele>19.2</ele>
        <time>2020-05-31T09:49:12Z</time>
      </trkpt>
      <trkpt lat="46.35385" lon="-0.4572">
        <ele>19.3</ele>
        <time>2020-05-31T09:49:13Z</time>
      </trkpt>
      <trkpt lat="46.35382" lon="-0.45724">
        <ele>19.6</ele>
        <time>2020-05-31T09:49:14Z</time>
      </trkpt>
      <trkpt lat="46.35379" lon="-0.45727">
        <ele>19.8</ele>
        <time>2020-05-31T09:49:15Z</time>
      </trkpt>
      <trkpt lat="46.35377" lon="-0.45729">
        <ele>20.1</ele>
        <time>2020-05-31T09:49:16Z</time>
      </trkpt>
      <trkpt lat="46.35374" lon="-0.45732">
        <ele>20.3</ele>
        <time>2020-05-31T09:49:17Z</time>
      </trkpt>
      <trkpt lat="46.35371" lon="-0.45736">
        <ele>20.5</ele>
        <time>2020-05-31T09:49:18Z</time>
      </trkpt>
      <trkpt lat="46.35369" lon="-0.45739">
        <ele>20.8</ele>
        <time>2020-05-31T09:49:19Z</time>
      </trkpt>
      <trkpt lat="46.35367" lon="-0.45743">
        <ele>21</ele>
        <time>2020-05-31T09:49:20Z</time>
      </trkpt>
      <trkpt lat="46.35365" lon="-0.45746">
        <ele>21.2</ele>
        <time>2020-05-31T09:49:21Z</time>
      </trkpt>
      <trkpt lat="46.35362" lon="-0.45748">
        <ele>21.3</ele>
        <time>2020-05-31T09:49:22Z</time>
      </trkpt>
      <trkpt lat="46.3536" lon="-0.45751">
        <ele>21.5</ele>
        <time>2020-05-31T09:49:23Z</time>
      </trkpt>
      <trkpt lat="46.35358" lon="-0.45754">
        <ele>21.7</ele>
        <time>2020-05-31T09:49:24Z</time>
      </trkpt>
      <trkpt lat="46.35355" lon="-0.45758">
        <ele>22</ele>
        <time>2020-05-31T09:49:25Z</time>
      </trkpt>
      <trkpt lat="46.35354" lon="-0.4576">
        <ele>22</ele>
        <time>2020-05-31T09:49:26Z</time>
      </trkpt>
      <trkpt lat="46.3535" lon="-0.45764">
        <ele>22.3</ele>
        <time>2020-05-31T09:49:27Z</time>
      </trkpt>
      <trkpt lat="46.35348" lon="-0.45767">
        <ele>22.5</ele>
        <time>2020-05-31T09:49:28Z</time>
      </trkpt>
      <trkpt lat="46.35347" lon="-0.45769">
        <ele>22.5</ele>
        <time>2020-05-31T09:49:29Z</time>
      </trkpt>
      <trkpt lat="46.35344" lon="-0.45773">
        <ele>22.7</ele>
        <time>2020-05-31T09:49:30Z</time>
      </trkpt>
      <trkpt lat="46.35342" lon="-0.45775">
        <ele>22.8</ele>
        <time>2020-05-31T09:49:31Z</time>
      </trkpt>
      <trkpt lat="46.3534" lon="-0.45779">
        <ele>23</ele>
        <time>2020-05-31T09:49:32Z</time>
      </trkpt>
      <trkpt lat="46.35339" lon="-0.4578">
        <ele>23.1</ele>
        <time>2020-05-31T09:49:33Z</time>
      </trkpt>
      <trkpt lat="46.35336" lon="-0.45783">
        <ele>23.2</ele>
        <time>2020-05-31T09:49:34Z</time>
      </trkpt>
      <trkpt lat="46.35332" lon="-0.45787">
        <ele>23.3</ele>
        <time>2020-05-31T09:49:35Z</time>
      </trkpt>
      <trkpt lat="46.35329" lon="-0.4579">
        <ele>23.5</ele>
        <time>2020-05-31T09:49:36Z</time>
      </trkpt>
      <trkpt lat="46.35326" lon="-0.45794">
        <ele>23.6</ele>
        <time>2020-05-31T09:49:37Z</time>
      </trkpt>
      <trkpt lat="46.35324" lon="-0.45798">
        <ele>23.7</ele>
        <time>2020-05-31T09:49:38Z</time>
      </trkpt>
      <trkpt lat="46.35321" lon="-0.45802">
        <ele>23.9</ele>
        <time>2020-05-31T09:49:39Z</time>
      </trkpt>
      <trkpt lat="46.35318" lon="-0.45806">
        <ele>24</ele>
        <time>2020-05-31T09:49:40Z</time>
      </trkpt>
      <trkpt lat="46.35315" lon="-0.4581">
        <ele>24.1</ele>
        <time>2020-05-31T09:49:41Z</time>
      </trkpt>
      <trkpt lat="46.35313" lon="-0.45813">
        <ele>24.1</ele>
        <time>2020-05-31T09:49:42Z</time>
      </trkpt>
      <trkpt lat="46.3531" lon="-0.4582">
        <ele>24.2</ele>
        <time>2020-05-31T09:49:43Z</time>
      </trkpt>
      <trkpt lat="46.35307" lon="-0.45824">
        <ele>24.3</ele>
        <time>2020-05-31T09:49:44Z</time>
      </trkpt>
      <trkpt lat="46.35303" lon="-0.45826">
        <ele>24.4</ele>
        <time>2020-05-31T09:49:45Z</time>
      </trkpt>
      <trkpt lat="46.353" lon="-0.4583">
        <ele>24.4</ele>
        <time>2020-05-31T09:49:46Z</time>
      </trkpt>
      <trkpt lat="46.35297" lon="-0.45834">
        <ele>24.5</ele>
        <time>2020-05-31T09:49:47Z</time>
      </trkpt>
      <trkpt lat="46.35294" lon="-0.45838">
        <ele>24.6</ele>
        <time>2020-05-31T09:49:48Z</time>
      </trkpt>
      <trkpt lat="46.35291" lon="-0.45842">
        <ele>24.7</ele>
        <time>2020-05-31T09:49:49Z</time>
      </trkpt>
      <trkpt lat="46.35288" lon="-0.45846">
        <ele>24.7</ele>
        <time>2020-05-31T09:49:50Z</time>
      </trkpt>
      <trkpt lat="46.35285" lon="-0.4585">
        <ele>24.8</ele>
        <time>2020-05-31T09:49:51Z</time>
      </trkpt>
      <trkpt lat="46.35283" lon="-0.45854">
        <ele>24.9</ele>
        <time>2020-05-31T09:49:52Z</time>
      </trkpt>
      <trkpt lat="46.3528" lon="-0.45858">
        <ele>24.9</ele>
        <time>2020-05-31T09:49:53Z</time>
      </trkpt>
      <trkpt lat="46.35278" lon="-0.45863">
        <ele>25</ele>
        <time>2020-05-31T09:49:54Z</time>
      </trkpt>
      <trkpt lat="46.35275" lon="-0.45869">
        <ele>25.1</ele>
        <time>2020-05-31T09:49:55Z</time>
      </trkpt>
      <trkpt lat="46.35272" lon="-0.45872">
        <ele>25.2</ele>
        <time>2020-05-31T09:49:56Z</time>
      </trkpt>
      <trkpt lat="46.3527" lon="-0.45874">
        <ele>25.2</ele>
        <time>2020-05-31T09:49:57Z</time>
      </trkpt>
      <trkpt lat="46.35267" lon="-0.45878">
        <ele>25.2</ele>
        <time>2020-05-31T09:49:58Z</time>
      </trkpt>
      <trkpt lat="46.35265" lon="-0.45882">
        <ele>25.3</ele>
        <time>2020-05-31T09:49:59Z</time>
      </trkpt>
      <trkpt lat="46.35263" lon="-0.45886">
        <ele>25.3</ele>
        <time>2020-05-31T09:50:00Z</time>
      </trkpt>
      <trkpt lat="46.35259" lon="-0.45892">
        <ele>25.4</ele>
        <time>2020-05-31T09:50:01Z</time>
      </trkpt>
      <trkpt lat="46.35257" lon="-0.45897">
        <ele>25.4</ele>
        <time>2020-05-31T09:50:02Z</time>
      </trkpt>
      <trkpt lat="46.35255" lon="-0.45901">
        <ele>25.5</ele>
        <time>2020-05-31T09:50:03Z</time>
      </trkpt>
      <trkpt lat="46.35252" lon="-0.45907">
        <ele>25.5</ele>
        <time>2020-05-31T09:50:04Z</time>
      </trkpt>
      <trkpt lat="46.3525" lon="-0.45913">
        <ele>25.6</ele>
        <time>2020-05-31T09:50:05Z</time>
      </trkpt>
      <trkpt lat="46.35249" lon="-0.45918">
        <ele>25.6</ele>
        <time>2020-05-31T09:50:06Z</time>
      </trkpt>
      <trkpt lat="46.35247" lon="-0.45922">
        <ele>25.7</ele>
        <time>2020-05-31T09:50:07Z</time>
      </trkpt>
      <trkpt lat="46.35244" lon="-0.45926">
        <ele>25.7</ele>
        <time>2020-05-31T09:50:08Z</time>
      </trkpt>
      <trkpt lat="46.35242" lon="-0.45931">
        <ele>25.8</ele>
        <time>2020-05-31T09:50:09Z</time>
      </trkpt>
      <trkpt lat="46.35239" lon="-0.45935">
        <ele>25.9</ele>
        <time>2020-05-31T09:50:10Z</time>
      </trkpt>
      <trkpt lat="46.35236" lon="-0.4594">
        <ele>26</ele>
        <time>2020-05-31T09:50:11Z</time>
      </trkpt>
      <trkpt lat="46.35234" lon="-0.45946">
        <ele>26</ele>
        <time>2020-05-31T09:50:12Z</time>
      </trkpt>
      <trkpt lat="46.35232" lon="-0.4595">
        <ele>26.1</ele>
        <time>2020-05-31T09:50:13Z</time>
      </trkpt>
      <trkpt lat="46.35229" lon="-0.45956">
        <ele>26.2</ele>
        <time>2020-05-31T09:50:14Z</time>
      </trkpt>
      <trkpt lat="46.35226" lon="-0.45963">
        <ele>26.3</ele>
        <time>2020-05-31T09:50:15Z</time>
      </trkpt>
      <trkpt lat="46.35223" lon="-0.45968">
        <ele>26.3</ele>
        <time>2020-05-31T09:50:16Z</time>
      </trkpt>
      <trkpt lat="46.35221" lon="-0.45972">
        <ele>26.4</ele>
        <time>2020-05-31T09:50:17Z</time>
      </trkpt>
      <trkpt lat="46.35219" lon="-0.45977">
        <ele>26.5</ele>
        <time>2020-05-31T09:50:18Z</time>
      </trkpt>
      <trkpt lat="46.35217" lon="-0.45983">
        <ele>26.6</ele>
        <time>2020-05-31T09:50:19Z</time>
      </trkpt>
      <trkpt lat="46.35215" lon="-0.45989">
        <ele>26.7</ele>
        <time>2020-05-31T09:50:20Z</time>
      </trkpt>
      <trkpt lat="46.35211" lon="-0.45995">
        <ele>26.8</ele>
        <time>2020-05-31T09:50:21Z</time>
      </trkpt>
      <trkpt lat="46.3521" lon="-0.46">
        <ele>26.9</ele>
        <time>2020-05-31T09:50:22Z</time>
      </trkpt>
      <trkpt lat="46.35208" lon="-0.46006">
        <ele>26.9</ele>
        <time>2020-05-31T09:50:23Z</time>
      </trkpt>
      <trkpt lat="46.35207" lon="-0.46011">
        <ele>27</ele>
        <time>2020-05-31T09:50:24Z</time>
      </trkpt>
      <trkpt lat="46.35205" lon="-0.46016">
        <ele>27.1</ele>
        <time>2020-05-31T09:50:25Z</time>
      </trkpt>
      <trkpt lat="46.35204" lon="-0.4602">
        <ele>27.1</ele>
        <time>2020-05-31T09:50:26Z</time>
      </trkpt>
      <trkpt lat="46.35203" lon="-0.46026">
        <ele>27.2</ele>
        <time>2020-05-31T09:50:27Z</time>
      </trkpt>
      <trkpt lat="46.35202" lon="-0.46031">
        <ele>27.3</ele>
        <time>2020-05-31T09:50:28Z</time>
      </trkpt>
      <trkpt lat="46.35201" lon="-0.46037">
        <ele>27.3</ele>
        <time>2020-05-31T09:50:29Z</time>
      </trkpt>
      <trkpt lat="46.35201" lon="-0.46042">
        <ele>27.4</ele>
        <time>2020-05-31T09:50:30Z</time>
      </trkpt>
      <trkpt lat="46.352" lon="-0.46048">
        <ele>27.5</ele>
        <time>2020-05-31T09:50:31Z</time>
      </trkpt>
      <trkpt lat="46.35199" lon="-0.46054">
        <ele>27.6</ele>
        <time>2020-05-31T09:50:32Z</time>
      </trkpt>
      <trkpt lat="46.35197" lon="-0.4606">
        <ele>27.7</ele>
        <time>2020-05-31T09:50:33Z</time>
      </trkpt>
      <trkpt lat="46.35196" lon="-0.46066">
        <ele>27.7</ele>
        <time>2020-05-31T09:50:34Z</time>
      </trkpt>
      <trkpt lat="46.35195" lon="-0.46073">
        <ele>27.8</ele>
        <time>2020-05-31T09:50:35Z</time>
      </trkpt>
      <trkpt lat="46.35193" lon="-0.46078">
        <ele>27.9</ele>
        <time>2020-05-31T09:50:36Z</time>
      </trkpt>
      <trkpt lat="46.35192" lon="-0.46084">
        <ele>28</ele>
        <time>2020-05-31T09:50:37Z</time>
      </trkpt>
      <trkpt lat="46.35189" lon="-0.46089">
        <ele>28.1</ele>
        <time>2020-05-31T09:50:38Z</time>
      </trkpt>
      <trkpt lat="46.35187" lon="-0.46093">
        <ele>28.2</ele>
        <time>2020-05-31T09:50:39Z</time>
      </trkpt>
      <trkpt lat="46.35184" lon="-0.46097">
        <ele>28.3</ele>
        <time>2020-05-31T09:50:40Z</time>
      </trkpt>
      <trkpt lat="46.35182" lon="-0.46102">
        <ele>28.4</ele>
        <time>2020-05-31T09:50:41Z</time>
      </trkpt>
      <trkpt lat="46.3518" lon="-0.46106">
        <ele>28.4</ele>
        <time>2020-05-31T09:50:42Z</time>
      </trkpt>
      <trkpt lat="46.35177" lon="-0.46111">
        <ele>28.5</ele>
        <time>2020-05-31T09:50:43Z</time>
      </trkpt>
      <trkpt lat="46.35175" lon="-0.46116">
        <ele>28.6</ele>
        <time>2020-05-31T09:50:44Z</time>
      </trkpt>
      <trkpt lat="46.35174" lon="-0.46122">
        <ele>28.7</ele>
        <time>2020-05-31T09:50:45Z</time>
      </trkpt>
      <trkpt lat="46.35173" lon="-0.46128">
        <ele>28.7</ele>
        <time>2020-05-31T09:50:46Z</time>
      </trkpt>
      <trkpt lat="46.35172" lon="-0.46135">
        <ele>28.8</ele>
        <time>2020-05-31T09:50:47Z</time>
      </trkpt>
      <trkpt lat="46.35173" lon="-0.4614">
        <ele>28.9</ele>
        <time>2020-05-31T09:50:48Z</time>
      </trkpt>
      <trkpt lat="46.35174" lon="-0.46145">
        <ele>28.9</ele>
        <time>2020-05-31T09:50:49Z</time>
      </trkpt>
      <trkpt lat="46.35175" lon="-0.46151">
        <ele>28.9</ele>
        <time>2020-05-31T09:50:50Z</time>
      </trkpt>
      <trkpt lat="46.35177" lon="-0.46156">
        <ele>29</ele>
        <time>2020-05-31T09:50:51Z</time>
      </trkpt>
      <trkpt lat="46.35179" lon="-0.46161">
        <ele>29</ele>
        <time>2020-05-31T09:50:52Z</time>
      </trkpt>
      <trkpt lat="46.35181" lon="-0.46165">
        <ele>29.1</ele>
        <time>2020-05-31T09:50:53Z</time>
      </trkpt>
      <trkpt lat="46.35183" lon="-0.4617">
        <ele>29.2</ele>
        <time>2020-05-31T09:50:54Z</time>
      </trkpt>
      <trkpt lat="46.35185" lon="-0.46175">
        <ele>29.2</ele>
        <time>2020-05-31T09:50:55Z</time>
      </trkpt>
      <trkpt lat="46.35187" lon="-0.46181">
        <ele>29.4</ele>
        <time>2020-05-31T09:50:56Z</time>
      </trkpt>
      <trkpt lat="46.35189" lon="-0.46186">
        <ele>29.5</ele>
        <time>2020-05-31T09:50:57Z</time>
      </trkpt>
      <trkpt lat="46.35191" lon="-0.4619">
        <ele>29.6</ele>
        <time>2020-05-31T09:50:58Z</time>
      </trkpt>
      <trkpt lat="46.35192" lon="-0.46194">
        <ele>29.6</ele>
        <time>2020-05-31T09:50:59Z</time>
      </trkpt>
      <trkpt lat="46.35194" lon="-0.46198">
        <ele>29.7</ele>
        <time>2020-05-31T09:51:00Z</time>
      </trkpt>
      <trkpt lat="46.35195" lon="-0.46202">
        <ele>29.8</ele>
        <time>2020-05-31T09:51:01Z</time>
      </trkpt>
      <trkpt lat="46.35197" lon="-0.46206">
        <ele>29.9</ele>
        <time>2020-05-31T09:51:02Z</time>
      </trkpt>
      <trkpt lat="46.35199" lon="-0.4621">
        <ele>30</ele>
        <time>2020-05-31T09:51:03Z</time>
      </trkpt>
      <trkpt lat="46.35201" lon="-0.46214">
        <ele>30.1</ele>
        <time>2020-05-31T09:51:04Z</time>
      </trkpt>
      <trkpt lat="46.35204" lon="-0.46218">
        <ele>30.2</ele>
        <time>2020-05-31T09:51:05Z</time>
      </trkpt>
      <trkpt lat="46.35204" lon="-0.46219">
        <ele>30.2</ele>
        <time>2020-05-31T09:51:06Z</time>
      </trkpt>
      <trkpt lat="46.35206" lon="-0.46223">
        <ele>30.3</ele>
        <time>2020-05-31T09:51:07Z</time>
      </trkpt>
      <trkpt lat="46.35207" lon="-0.46228">
        <ele>30.4</ele>
        <time>2020-05-31T09:51:08Z</time>
      </trkpt>
      <trkpt lat="46.35208" lon="-0.46232">
        <ele>30.5</ele>
        <time>2020-05-31T09:51:09Z</time>
      </trkpt>
      <trkpt lat="46.3521" lon="-0.46237">
        <ele>30.6</ele>
        <time>2020-05-31T09:51:10Z</time>
      </trkpt>
      <trkpt lat="46.35212" lon="-0.46241">
        <ele>30.7</ele>
        <time>2020-05-31T09:51:11Z</time>
      </trkpt>
      <trkpt lat="46.35214" lon="-0.46245">
        <ele>30.8</ele>
        <time>2020-05-31T09:51:12Z</time>
      </trkpt>
      <trkpt lat="46.35216" lon="-0.46249">
        <ele>30.9</ele>
        <time>2020-05-31T09:51:13Z</time>
      </trkpt>
      <trkpt lat="46.35217" lon="-0.46255">
        <ele>31</ele>
        <time>2020-05-31T09:51:14Z</time>
      </trkpt>
      <trkpt lat="46.35218" lon="-0.46258">
        <ele>31</ele>
        <time>2020-05-31T09:51:15Z</time>
      </trkpt>
      <trkpt lat="46.3522" lon="-0.46264">
        <ele>31.1</ele>
        <time>2020-05-31T09:51:16Z</time>
      </trkpt>
      <trkpt lat="46.35221" lon="-0.46266">
        <ele>31.1</ele>
        <time>2020-05-31T09:51:17Z</time>
      </trkpt>
      <trkpt lat="46.35223" lon="-0.46272">
        <ele>31.1</ele>
        <time>2020-05-31T09:51:18Z</time>
      </trkpt>
      <trkpt lat="46.35223" lon="-0.46274">
        <ele>31.3</ele>
        <time>2020-05-31T09:51:19Z</time>
      </trkpt>
      <trkpt lat="46.35224" lon="-0.46281">
        <ele>31.4</ele>
        <time>2020-05-31T09:51:20Z</time>
      </trkpt>
      <trkpt lat="46.35225" lon="-0.46286">
        <ele>31.5</ele>
        <time>2020-05-31T09:51:21Z</time>
      </trkpt>
      <trkpt lat="46.35225" lon="-0.46291">
        <ele>31.6</ele>
        <time>2020-05-31T09:51:22Z</time>
      </trkpt>
      <trkpt lat="46.35226" lon="-0.46296">
        <ele>31.7</ele>
        <time>2020-05-31T09:51:23Z</time>
      </trkpt>
      <trkpt lat="46.35227" lon="-0.46303">
        <ele>31.9</ele>
        <time>2020-05-31T09:51:24Z</time>
      </trkpt>
      <trkpt lat="46.35228" lon="-0.46307">
        <ele>32</ele>
        <time>2020-05-31T09:51:25Z</time>
      </trkpt>
      <trkpt lat="46.35229" lon="-0.46313">
        <ele>32.1</ele>
        <time>2020-05-31T09:51:26Z</time>
      </trkpt>
      <trkpt lat="46.3523" lon="-0.46318">
        <ele>32.2</ele>
        <time>2020-05-31T09:51:27Z</time>
      </trkpt>
      <trkpt lat="46.35229" lon="-0.46324">
        <ele>32.4</ele>
        <time>2020-05-31T09:51:28Z</time>
      </trkpt>
      <trkpt lat="46.3523" lon="-0.4633">
        <ele>32.5</ele>
        <time>2020-05-31T09:51:29Z</time>
      </trkpt>
      <trkpt lat="46.35231" lon="-0.46335">
        <ele>32.6</ele>
        <time>2020-05-31T09:51:30Z</time>
      </trkpt>
      <trkpt lat="46.35231" lon="-0.46341">
        <ele>32.7</ele>
        <time>2020-05-31T09:51:31Z</time>
      </trkpt>
      <trkpt lat="46.35231" lon="-0.46347">
        <ele>32.9</ele>
        <time>2020-05-31T09:51:32Z</time>
      </trkpt>
      <trkpt lat="46.35231" lon="-0.46352">
        <ele>33</ele>
        <time>2020-05-31T09:51:33Z</time>
      </trkpt>
      <trkpt lat="46.3523" lon="-0.46358">
        <ele>33.1</ele>
        <time>2020-05-31T09:51:34Z</time>
      </trkpt>
      <trkpt lat="46.35229" lon="-0.46364">
        <ele>33.3</ele>
        <time>2020-05-31T09:51:35Z</time>
      </trkpt>
      <trkpt lat="46.35228" lon="-0.46369">
        <ele>33.4</ele>
        <time>2020-05-31T09:51:36Z</time>
      </trkpt>
      <trkpt lat="46.35227" lon="-0.46374">
        <ele>33.5</ele>
        <time>2020-05-31T09:51:37Z</time>
      </trkpt>
      <trkpt lat="46.35226" lon="-0.46378">
        <ele>33.6</ele>
        <time>2020-05-31T09:51:38Z</time>
      </trkpt>
      <trkpt lat="46.35225" lon="-0.46384">
        <ele>33.7</ele>
        <time>2020-05-31T09:51:39Z</time>
      </trkpt>
      <trkpt lat="46.35225" lon="-0.46386">
        <ele>33.7</ele>
        <time>2020-05-31T09:51:40Z</time>
      </trkpt>
      <trkpt lat="46.35223" lon="-0.4639">
        <ele>33.8</ele>
        <time>2020-05-31T09:51:41Z</time>
      </trkpt>
      <trkpt lat="46.35221" lon="-0.46395">
        <ele>34</ele>
        <time>2020-05-31T09:51:42Z</time>
      </trkpt>
      <trkpt lat="46.3522" lon="-0.46401">
        <ele>34.1</ele>
        <time>2020-05-31T09:51:43Z</time>
      </trkpt>
      <trkpt lat="46.35218" lon="-0.46406">
        <ele>34.2</ele>
        <time>2020-05-31T09:51:44Z</time>
      </trkpt>
      <trkpt lat="46.35216" lon="-0.4641">
        <ele>34.3</ele>
        <time>2020-05-31T09:51:45Z</time>
      </trkpt>
      <trkpt lat="46.35216" lon="-0.46416">
        <ele>34.4</ele>
        <time>2020-05-31T09:51:46Z</time>
      </trkpt>
      <trkpt lat="46.35215" lon="-0.46422">
        <ele>34.6</ele>
        <time>2020-05-31T09:51:47Z</time>
      </trkpt>
      <trkpt lat="46.35213" lon="-0.46427">
        <ele>34.7</ele>
        <time>2020-05-31T09:51:48Z</time>
      </trkpt>
      <trkpt lat="46.35212" lon="-0.46431">
        <ele>34.8</ele>
        <time>2020-05-31T09:51:49Z</time>
      </trkpt>
      <trkpt lat="46.35211" lon="-0.46436">
        <ele>34.9</ele>
        <time>2020-05-31T09:51:50Z</time>
      </trkpt>
      <trkpt lat="46.35211" lon="-0.4644">
        <ele>34.9</ele>
        <time>2020-05-31T09:51:51Z</time>
      </trkpt>
      <trkpt lat="46.3521" lon="-0.46445">
        <ele>35</ele>
        <time>2020-05-31T09:51:52Z</time>
      </trkpt>
      <trkpt lat="46.35209" lon="-0.4645">
        <ele>35.1</ele>
        <time>2020-05-31T09:51:53Z</time>
      </trkpt>
      <trkpt lat="46.35209" lon="-0.46456">
        <ele>35.3</ele>
        <time>2020-05-31T09:51:54Z</time>
      </trkpt>
      <trkpt lat="46.35208" lon="-0.46462">
        <ele>35.3</ele>
        <time>2020-05-31T09:51:55Z</time>
      </trkpt>
      <trkpt lat="46.35208" lon="-0.46466">
        <ele>35.4</ele>
        <time>2020-05-31T09:51:56Z</time>
      </trkpt>
      <trkpt lat="46.35208" lon="-0.46472">
        <ele>35.5</ele>
        <time>2020-05-31T09:51:57Z</time>
      </trkpt>
      <trkpt lat="46.35206" lon="-0.46475">
        <ele>35.5</ele>
        <time>2020-05-31T09:51:58Z</time>
      </trkpt>
      <trkpt lat="46.35205" lon="-0.4648">
        <ele>35.6</ele>
        <time>2020-05-31T09:51:59Z</time>
      </trkpt>
      <trkpt lat="46.35204" lon="-0.46484">
        <ele>35.6</ele>
        <time>2020-05-31T09:52:00Z</time>
      </trkpt>
      <trkpt lat="46.35202" lon="-0.46488">
        <ele>35.7</ele>
        <time>2020-05-31T09:52:01Z</time>
      </trkpt>
      <trkpt lat="46.35201" lon="-0.46493">
        <ele>35.7</ele>
        <time>2020-05-31T09:52:02Z</time>
      </trkpt>
      <trkpt lat="46.35198" lon="-0.46497">
        <ele>35.7</ele>
        <time>2020-05-31T09:52:03Z</time>
      </trkpt>
      <trkpt lat="46.35196" lon="-0.46502">
        <ele>35.8</ele>
        <time>2020-05-31T09:52:04Z</time>
      </trkpt>
      <trkpt lat="46.35194" lon="-0.46506">
        <ele>35.8</ele>
        <time>2020-05-31T09:52:05Z</time>
      </trkpt>
      <trkpt lat="46.35191" lon="-0.46509">
        <ele>35.9</ele>
        <time>2020-05-31T09:52:06Z</time>
      </trkpt>
      <trkpt lat="46.35189" lon="-0.46512">
        <ele>35.9</ele>
        <time>2020-05-31T09:52:07Z</time>
      </trkpt>
      <trkpt lat="46.35187" lon="-0.46514">
        <ele>36</ele>
        <time>2020-05-31T09:52:08Z</time>
      </trkpt>
      <trkpt lat="46.35186" lon="-0.46515">
        <ele>36</ele>
        <time>2020-05-31T09:52:09Z</time>
      </trkpt>
      <trkpt lat="46.35185" lon="-0.46515">
        <ele>36</ele>
        <time>2020-05-31T09:52:10Z</time>
      </trkpt>
      <trkpt lat="46.35186" lon="-0.46515">
        <ele>36</ele>
        <time>2020-05-31T09:52:11Z</time>
      </trkpt>
      <trkpt lat="46.35186" lon="-0.46515">
        <ele>36</ele>
        <time>2020-05-31T09:52:12Z</time>
      </trkpt>
      <trkpt lat="46.35187" lon="-0.46515">
        <ele>36</ele>
        <time>2020-05-31T09:52:13Z</time>
      </trkpt>
      <trkpt lat="46.35187" lon="-0.46515">
        <ele>36</ele>
        <time>2020-05-31T09:52:14Z</time>
      </trkpt>
      <trkpt lat="46.35187" lon="-0.46515">
        <ele>36</ele>
        <time>2020-05-31T09:52:15Z</time>
      </trkpt>
      <trkpt lat="46.35187" lon="-0.46515">
        <ele>36.1</ele>
        <time>2020-05-31T09:52:16Z</time>
      </trkpt>
      <trkpt lat="46.35187" lon="-0.46515">
        <ele>36.1</ele>
        <time>2020-05-31T09:52:17Z</time>
      </trkpt>
      <trkpt lat="46.35187" lon="-0.46515">
        <ele>36.1</ele>
        <time>2020-05-31T09:52:18Z</time>
      </trkpt>
      <trkpt lat="46.35188" lon="-0.46515">
        <ele>36.1</ele>
        <time>2020-05-31T09:52:19Z</time>
      </trkpt>
      <trkpt lat="46.35188" lon="-0.46515">
        <ele>36.1</ele>
        <time>2020-05-31T09:52:20Z</time>
      </trkpt>
      <trkpt lat="46.35188" lon="-0.46516">
        <ele>36.1</ele>
        <time>2020-05-31T09:52:21Z</time>
      </trkpt>
      <trkpt lat="46.35188" lon="-0.46516">
        <ele>36.1</ele>
        <time>2020-05-31T09:52:22Z</time>
      </trkpt>
      <trkpt lat="46.35188" lon="-0.46516">
        <ele>36.1</ele>
        <time>2020-05-31T09:52:23Z</time>
      </trkpt>
      <trkpt lat="46.35188" lon="-0.46516">
        <ele>36.1</ele>
        <time>2020-05-31T09:52:24Z</time>
      </trkpt>
      <trkpt lat="46.35188" lon="-0.46516">
        <ele>36.1</ele>
        <time>2020-05-31T09:52:25Z</time>
      </trkpt>
      <trkpt lat="46.35188" lon="-0.46516">
        <ele>36.1</ele>
        <time>2020-05-31T09:52:26Z</time>
      </trkpt>
      <trkpt lat="46.35188" lon="-0.46516">
        <ele>36.1</ele>
        <time>2020-05-31T09:52:27Z</time>
      </trkpt>
      <trkpt lat="46.35188" lon="-0.46516">
        <ele>36.1</ele>
        <time>2020-05-31T09:52:28Z</time>
      </trkpt>
      <trkpt lat="46.35188" lon="-0.46516">
        <ele>36.1</ele>
        <time>2020-05-31T09:52:29Z</time>
      </trkpt>
      <trkpt lat="46.35188" lon="-0.46516">
        <ele>36.1</ele>
        <time>2020-05-31T09:52:30Z</time>
      </trkpt>
      <trkpt lat="46.35188" lon="-0.46516">
        <ele>36.1</ele>
        <time>2020-05-31T09:52:31Z</time>
      </trkpt>
      <trkpt lat="46.35188" lon="-0.46516">
        <ele>36.1</ele>
        <time>2020-05-31T09:52:32Z</time>
      </trkpt>
      <trkpt lat="46.35188" lon="-0.46516">
        <ele>36.1</ele>
        <time>2020-05-31T09:52:33Z</time>
      </trkpt>
      <trkpt lat="46.35188" lon="-0.46516">
        <ele>36.1</ele>
        <time>2020-05-31T09:52:34Z</time>
      </trkpt>
      <trkpt lat="46.35188" lon="-0.46516">
        <ele>36.1</ele>
        <time>2020-05-31T09:52:35Z</time>
      </trkpt>
      <trkpt lat="46.35188" lon="-0.46516">
        <ele>36.1</ele>
        <time>2020-05-31T09:52:36Z</time>
      </trkpt>
      <trkpt lat="46.35188" lon="-0.46516">
        <ele>36.1</ele>
        <time>2020-05-31T09:52:37Z</time>
      </trkpt>
      <trkpt lat="46.35188" lon="-0.46516">
        <ele>36.1</ele>
        <time>2020-05-31T09:52:38Z</time>
      </trkpt>
      <trkpt lat="46.35188" lon="-0.46516">
        <ele>36.1</ele>
        <time>2020-05-31T09:52:39Z</time>
      </trkpt>
      <trkpt lat="46.35188" lon="-0.46516">
        <ele>36.1</ele>
        <time>2020-05-31T09:52:40Z</time>
      </trkpt>
      <trkpt lat="46.35188" lon="-0.46516">
        <ele>36.1</ele>
        <time>2020-05-31T09:52:41Z</time>
      </trkpt>
      <trkpt lat="46.35188" lon="-0.46516">
        <ele>36.1</ele>
        <time>2020-05-31T09:52:42Z</time>
      </trkpt>
      <trkpt lat="46.35188" lon="-0.46516">
        <ele>36.1</ele>
        <time>2020-05-31T09:52:43Z</time>
      </trkpt>
      <trkpt lat="46.35188" lon="-0.46516">
        <ele>36.1</ele>
        <time>2020-05-31T09:52:44Z</time>
      </trkpt>
      <trkpt lat="46.35188" lon="-0.46517">
        <ele>36.1</ele>
        <time>2020-05-31T09:52:45Z</time>
      </trkpt>
      <trkpt lat="46.35188" lon="-0.46517">
        <ele>36.1</ele>
        <time>2020-05-31T09:52:46Z</time>
      </trkpt>
      <trkpt lat="46.35188" lon="-0.46517">
        <ele>36.1</ele>
        <time>2020-05-31T09:52:47Z</time>
      </trkpt>
      <trkpt lat="46.35188" lon="-0.46517">
        <ele>36.1</ele>
        <time>2020-05-31T09:52:48Z</time>
      </trkpt>
      <trkpt lat="46.35188" lon="-0.46517">
        <ele>36.1</ele>
        <time>2020-05-31T09:52:49Z</time>
      </trkpt>
      <trkpt lat="46.35188" lon="-0.46516">
        <ele>36.1</ele>
        <time>2020-05-31T09:52:50Z</time>
      </trkpt>
      <trkpt lat="46.35188" lon="-0.46517">
        <ele>36.1</ele>
        <time>2020-05-31T09:52:51Z</time>
      </trkpt>
      <trkpt lat="46.35188" lon="-0.46517">
        <ele>36.1</ele>
        <time>2020-05-31T09:52:52Z</time>
      </trkpt>
      <trkpt lat="46.35188" lon="-0.46516">
        <ele>36.1</ele>
        <time>2020-05-31T09:52:53Z</time>
      </trkpt>
      <trkpt lat="46.35188" lon="-0.46516">
        <ele>36.1</ele>
        <time>2020-05-31T09:52:54Z</time>
      </trkpt>
      <trkpt lat="46.35188" lon="-0.46516">
        <ele>36.1</ele>
        <time>2020-05-31T09:52:55Z</time>
      </trkpt>
      <trkpt lat="46.35188" lon="-0.46515">
        <ele>36.2</ele>
        <time>2020-05-31T09:52:56Z</time>
      </trkpt>
      <trkpt lat="46.35188" lon="-0.46513">
        <ele>36.2</ele>
        <time>2020-05-31T09:52:57Z</time>
      </trkpt>
      <trkpt lat="46.35188" lon="-0.46514">
        <ele>36.2</ele>
        <time>2020-05-31T09:52:58Z</time>
      </trkpt>
      <trkpt lat="46.35187" lon="-0.46514">
        <ele>36.2</ele>
        <time>2020-05-31T09:52:59Z</time>
      </trkpt>
      <trkpt lat="46.35188" lon="-0.46514">
        <ele>36.2</ele>
        <time>2020-05-31T09:53:00Z</time>
      </trkpt>
      <trkpt lat="46.35188" lon="-0.46513">
        <ele>36.2</ele>
        <time>2020-05-31T09:53:01Z</time>
      </trkpt>
      <trkpt lat="46.35187" lon="-0.46514">
        <ele>36.2</ele>
        <time>2020-05-31T09:53:02Z</time>
      </trkpt>
      <trkpt lat="46.35187" lon="-0.46515">
        <ele>36.2</ele>
        <time>2020-05-31T09:53:03Z</time>
      </trkpt>
      <trkpt lat="46.35186" lon="-0.46516">
        <ele>36.2</ele>
        <time>2020-05-31T09:53:04Z</time>
      </trkpt>
      <trkpt lat="46.35184" lon="-0.46518">
        <ele>36.3</ele>
        <time>2020-05-31T09:53:05Z</time>
      </trkpt>
      <trkpt lat="46.3518" lon="-0.46519">
        <ele>36.3</ele>
        <time>2020-05-31T09:53:06Z</time>
      </trkpt>
      <trkpt lat="46.35179" lon="-0.46519">
        <ele>36.3</ele>
        <time>2020-05-31T09:53:07Z</time>
      </trkpt>
      <trkpt lat="46.35176" lon="-0.4652">
        <ele>36.4</ele>
        <time>2020-05-31T09:53:08Z</time>
      </trkpt>
      <trkpt lat="46.35175" lon="-0.4652">
        <ele>36.4</ele>
        <time>2020-05-31T09:53:09Z</time>
      </trkpt>
      <trkpt lat="46.35171" lon="-0.46521">
        <ele>36.4</ele>
        <time>2020-05-31T09:53:10Z</time>
      </trkpt>
      <trkpt lat="46.35171" lon="-0.46522">
        <ele>36.5</ele>
        <time>2020-05-31T09:53:11Z</time>
      </trkpt>
      <trkpt lat="46.35168" lon="-0.46525">
        <ele>36.5</ele>
        <time>2020-05-31T09:53:12Z</time>
      </trkpt>
      <trkpt lat="46.35166" lon="-0.46525">
        <ele>36.5</ele>
        <time>2020-05-31T09:53:13Z</time>
      </trkpt>
      <trkpt lat="46.35164" lon="-0.46526">
        <ele>36.5</ele>
        <time>2020-05-31T09:53:14Z</time>
      </trkpt>
      <trkpt lat="46.35163" lon="-0.46527">
        <ele>36.5</ele>
        <time>2020-05-31T09:53:15Z</time>
      </trkpt>
      <trkpt lat="46.3516" lon="-0.4653">
        <ele>36.6</ele>
        <time>2020-05-31T09:53:16Z</time>
      </trkpt>
      <trkpt lat="46.35159" lon="-0.46531">
        <ele>36.7</ele>
        <time>2020-05-31T09:53:17Z</time>
      </trkpt>
      <trkpt lat="46.35155" lon="-0.46534">
        <ele>36.7</ele>
        <time>2020-05-31T09:53:18Z</time>
      </trkpt>
      <trkpt lat="46.35154" lon="-0.46535">
        <ele>36.8</ele>
        <time>2020-05-31T09:53:19Z</time>
      </trkpt>
      <trkpt lat="46.35152" lon="-0.46537">
        <ele>36.8</ele>
        <time>2020-05-31T09:53:20Z</time>
      </trkpt>
      <trkpt lat="46.35149" lon="-0.46539">
        <ele>36.9</ele>
        <time>2020-05-31T09:53:21Z</time>
      </trkpt>
      <trkpt lat="46.35146" lon="-0.4654">
        <ele>37</ele>
        <time>2020-05-31T09:53:22Z</time>
      </trkpt>
      <trkpt lat="46.35143" lon="-0.46543">
        <ele>37.1</ele>
        <time>2020-05-31T09:53:23Z</time>
      </trkpt>
      <trkpt lat="46.35142" lon="-0.46544">
        <ele>37.1</ele>
        <time>2020-05-31T09:53:24Z</time>
      </trkpt>
      <trkpt lat="46.35139" lon="-0.46547">
        <ele>37.2</ele>
        <time>2020-05-31T09:53:25Z</time>
      </trkpt>
      <trkpt lat="46.35136" lon="-0.46551">
        <ele>37.3</ele>
        <time>2020-05-31T09:53:26Z</time>
      </trkpt>
      <trkpt lat="46.35134" lon="-0.46554">
        <ele>37.4</ele>
        <time>2020-05-31T09:53:27Z</time>
      </trkpt>
      <trkpt lat="46.35131" lon="-0.46557">
        <ele>37.5</ele>
        <time>2020-05-31T09:53:28Z</time>
      </trkpt>
      <trkpt lat="46.35129" lon="-0.4656">
        <ele>37.6</ele>
        <time>2020-05-31T09:53:29Z</time>
      </trkpt>
      <trkpt lat="46.35127" lon="-0.46563">
        <ele>37.8</ele>
        <time>2020-05-31T09:53:30Z</time>
      </trkpt>
      <trkpt lat="46.35124" lon="-0.46567">
        <ele>37.9</ele>
        <time>2020-05-31T09:53:31Z</time>
      </trkpt>
      <trkpt lat="46.35123" lon="-0.46569">
        <ele>38</ele>
        <time>2020-05-31T09:53:32Z</time>
      </trkpt>
      <trkpt lat="46.3512" lon="-0.46571">
        <ele>38.1</ele>
        <time>2020-05-31T09:53:33Z</time>
      </trkpt>
      <trkpt lat="46.35116" lon="-0.46575">
        <ele>38.3</ele>
        <time>2020-05-31T09:53:34Z</time>
      </trkpt>
      <trkpt lat="46.35114" lon="-0.46579">
        <ele>38.4</ele>
        <time>2020-05-31T09:53:35Z</time>
      </trkpt>
      <trkpt lat="46.35111" lon="-0.46582">
        <ele>38.6</ele>
        <time>2020-05-31T09:53:36Z</time>
      </trkpt>
      <trkpt lat="46.35108" lon="-0.46584">
        <ele>38.7</ele>
        <time>2020-05-31T09:53:37Z</time>
      </trkpt>
      <trkpt lat="46.35105" lon="-0.46586">
        <ele>38.9</ele>
        <time>2020-05-31T09:53:38Z</time>
      </trkpt>
      <trkpt lat="46.35101" lon="-0.4659">
        <ele>39.1</ele>
        <time>2020-05-31T09:53:39Z</time>
      </trkpt>
      <trkpt lat="46.35099" lon="-0.46592">
        <ele>39.2</ele>
        <time>2020-05-31T09:53:40Z</time>
      </trkpt>
      <trkpt lat="46.35095" lon="-0.46596">
        <ele>39.4</ele>
        <time>2020-05-31T09:53:41Z</time>
      </trkpt>
      <trkpt lat="46.35091" lon="-0.46601">
        <ele>39.6</ele>
        <time>2020-05-31T09:53:42Z</time>
      </trkpt>
      <trkpt lat="46.35087" lon="-0.46604">
        <ele>39.8</ele>
        <time>2020-05-31T09:53:43Z</time>
      </trkpt>
      <trkpt lat="46.35083" lon="-0.46608">
        <ele>40</ele>
        <time>2020-05-31T09:53:44Z</time>
      </trkpt>
      <trkpt lat="46.3508" lon="-0.46611">
        <ele>40.1</ele>
        <time>2020-05-31T09:53:45Z</time>
      </trkpt>
      <trkpt lat="46.35076" lon="-0.46615">
        <ele>40.3</ele>
        <time>2020-05-31T09:53:46Z</time>
      </trkpt>
      <trkpt lat="46.35073" lon="-0.46618">
        <ele>40.4</ele>
        <time>2020-05-31T09:53:47Z</time>
      </trkpt>
      <trkpt lat="46.35071" lon="-0.46622">
        <ele>40.4</ele>
        <time>2020-05-31T09:53:48Z</time>
      </trkpt>
      <trkpt lat="46.35067" lon="-0.46626">
        <ele>40.5</ele>
        <time>2020-05-31T09:53:49Z</time>
      </trkpt>
      <trkpt lat="46.35065" lon="-0.4663">
        <ele>40.6</ele>
        <time>2020-05-31T09:53:50Z</time>
      </trkpt>
      <trkpt lat="46.35062" lon="-0.46633">
        <ele>40.7</ele>
        <time>2020-05-31T09:53:51Z</time>
      </trkpt>
      <trkpt lat="46.3506" lon="-0.46636">
        <ele>40.7</ele>
        <time>2020-05-31T09:53:52Z</time>
      </trkpt>
      <trkpt lat="46.35058" lon="-0.46639">
        <ele>40.8</ele>
        <time>2020-05-31T09:53:53Z</time>
      </trkpt>
      <trkpt lat="46.35057" lon="-0.46643">
        <ele>40.8</ele>
        <time>2020-05-31T09:53:54Z</time>
      </trkpt>
      <trkpt lat="46.35055" lon="-0.46647">
        <ele>40.9</ele>
        <time>2020-05-31T09:53:55Z</time>
      </trkpt>
      <trkpt lat="46.35054" lon="-0.46649">
        <ele>40.9</ele>
        <time>2020-05-31T09:53:56Z</time>
      </trkpt>
      <trkpt lat="46.35053" lon="-0.46654">
        <ele>41.3</ele>
        <time>2020-05-31T09:53:57Z</time>
      </trkpt>
      <trkpt lat="46.35052" lon="-0.46658">
        <ele>41.5</ele>
        <time>2020-05-31T09:53:58Z</time>
      </trkpt>
      <trkpt lat="46.35052" lon="-0.46663">
        <ele>41.7</ele>
        <time>2020-05-31T09:53:59Z</time>
      </trkpt>
      <trkpt lat="46.35053" lon="-0.46667">
        <ele>41.8</ele>
        <time>2020-05-31T09:54:00Z</time>
      </trkpt>
      <trkpt lat="46.35054" lon="-0.46671">
        <ele>41.9</ele>
        <time>2020-05-31T09:54:01Z</time>
      </trkpt>
      <trkpt lat="46.35055" lon="-0.46676">
        <ele>42.1</ele>
        <time>2020-05-31T09:54:02Z</time>
      </trkpt>
      <trkpt lat="46.35055" lon="-0.46681">
        <ele>42.2</ele>
        <time>2020-05-31T09:54:03Z</time>
      </trkpt>
      <trkpt lat="46.35056" lon="-0.46685">
        <ele>42.4</ele>
        <time>2020-05-31T09:54:04Z</time>
      </trkpt>
      <trkpt lat="46.35057" lon="-0.46689">
        <ele>42.5</ele>
        <time>2020-05-31T09:54:05Z</time>
      </trkpt>
      <trkpt lat="46.35057" lon="-0.46694">
        <ele>42.7</ele>
        <time>2020-05-31T09:54:06Z</time>
      </trkpt>
      <trkpt lat="46.35057" lon="-0.46698">
        <ele>42.8</ele>
        <time>2020-05-31T09:54:07Z</time>
      </trkpt>
      <trkpt lat="46.35055" lon="-0.46703">
        <ele>43</ele>
        <time>2020-05-31T09:54:08Z</time>
      </trkpt>
      <trkpt lat="46.35055" lon="-0.46705">
        <ele>43.1</ele>
        <time>2020-05-31T09:54:09Z</time>
      </trkpt>
      <trkpt lat="46.35056" lon="-0.46707">
        <ele>43.1</ele>
        <time>2020-05-31T09:54:10Z</time>
      </trkpt>
      <trkpt lat="46.35057" lon="-0.4671">
        <ele>43.2</ele>
        <time>2020-05-31T09:54:11Z</time>
      </trkpt>
      <trkpt lat="46.35056" lon="-0.46715">
        <ele>43.4</ele>
        <time>2020-05-31T09:54:12Z</time>
      </trkpt>
      <trkpt lat="46.35057" lon="-0.46717">
        <ele>43.5</ele>
        <time>2020-05-31T09:54:13Z</time>
      </trkpt>
      <trkpt lat="46.35057" lon="-0.46722">
        <ele>43.7</ele>
        <time>2020-05-31T09:54:14Z</time>
      </trkpt>
      <trkpt lat="46.35058" lon="-0.46726">
        <ele>43.9</ele>
        <time>2020-05-31T09:54:15Z</time>
      </trkpt>
      <trkpt lat="46.3506" lon="-0.4673">
        <ele>44</ele>
        <time>2020-05-31T09:54:16Z</time>
      </trkpt>
      <trkpt lat="46.35061" lon="-0.46734">
        <ele>44.2</ele>
        <time>2020-05-31T09:54:17Z</time>
      </trkpt>
      <trkpt lat="46.35062" lon="-0.46739">
        <ele>44.4</ele>
        <time>2020-05-31T09:54:18Z</time>
      </trkpt>
      <trkpt lat="46.35062" lon="-0.46743">
        <ele>44.5</ele>
        <time>2020-05-31T09:54:19Z</time>
      </trkpt>
      <trkpt lat="46.35062" lon="-0.46748">
        <ele>44.7</ele>
        <time>2020-05-31T09:54:20Z</time>
      </trkpt>
      <trkpt lat="46.35061" lon="-0.46753">
        <ele>44.9</ele>
        <time>2020-05-31T09:54:21Z</time>
      </trkpt>
      <trkpt lat="46.35061" lon="-0.46755">
        <ele>45</ele>
        <time>2020-05-31T09:54:22Z</time>
      </trkpt>
      <trkpt lat="46.35061" lon="-0.46759">
        <ele>45.1</ele>
        <time>2020-05-31T09:54:23Z</time>
      </trkpt>
      <trkpt lat="46.35061" lon="-0.46765">
        <ele>45.3</ele>
        <time>2020-05-31T09:54:24Z</time>
      </trkpt>
      <trkpt lat="46.35061" lon="-0.46767">
        <ele>45.4</ele>
        <time>2020-05-31T09:54:25Z</time>
      </trkpt>
      <trkpt lat="46.3506" lon="-0.46771">
        <ele>45.5</ele>
        <time>2020-05-31T09:54:26Z</time>
      </trkpt>
      <trkpt lat="46.35058" lon="-0.46776">
        <ele>45.7</ele>
        <time>2020-05-31T09:54:27Z</time>
      </trkpt>
      <trkpt lat="46.35057" lon="-0.46781">
        <ele>45.8</ele>
        <time>2020-05-31T09:54:28Z</time>
      </trkpt>
      <trkpt lat="46.35057" lon="-0.46787">
        <ele>46</ele>
        <time>2020-05-31T09:54:29Z</time>
      </trkpt>
      <trkpt lat="46.35057" lon="-0.46793">
        <ele>46.1</ele>
        <time>2020-05-31T09:54:30Z</time>
      </trkpt>
      <trkpt lat="46.35055" lon="-0.46798">
        <ele>46.3</ele>
        <time>2020-05-31T09:54:31Z</time>
      </trkpt>
      <trkpt lat="46.35054" lon="-0.46804">
        <ele>46.4</ele>
        <time>2020-05-31T09:54:32Z</time>
      </trkpt>
      <trkpt lat="46.35052" lon="-0.46809">
        <ele>46.6</ele>
        <time>2020-05-31T09:54:33Z</time>
      </trkpt>
      <trkpt lat="46.3505" lon="-0.46814">
        <ele>46.7</ele>
        <time>2020-05-31T09:54:34Z</time>
      </trkpt>
      <trkpt lat="46.35047" lon="-0.46819">
        <ele>46.8</ele>
        <time>2020-05-31T09:54:35Z</time>
      </trkpt>
      <trkpt lat="46.35045" lon="-0.46823">
        <ele>46.9</ele>
        <time>2020-05-31T09:54:36Z</time>
      </trkpt>
      <trkpt lat="46.35043" lon="-0.46827">
        <ele>47</ele>
        <time>2020-05-31T09:54:37Z</time>
      </trkpt>
      <trkpt lat="46.3504" lon="-0.46831">
        <ele>47.1</ele>
        <time>2020-05-31T09:54:38Z</time>
      </trkpt>
      <trkpt lat="46.35037" lon="-0.46835">
        <ele>47.2</ele>
        <time>2020-05-31T09:54:39Z</time>
      </trkpt>
      <trkpt lat="46.35035" lon="-0.4684">
        <ele>47.2</ele>
        <time>2020-05-31T09:54:40Z</time>
      </trkpt>
      <trkpt lat="46.35032" lon="-0.46845">
        <ele>47.3</ele>
        <time>2020-05-31T09:54:41Z</time>
      </trkpt>
      <trkpt lat="46.35029" lon="-0.46849">
        <ele>47.3</ele>
        <time>2020-05-31T09:54:42Z</time>
      </trkpt>
      <trkpt lat="46.35026" lon="-0.46854">
        <ele>47.3</ele>
        <time>2020-05-31T09:54:43Z</time>
      </trkpt>
      <trkpt lat="46.35024" lon="-0.46861">
        <ele>47.4</ele>
        <time>2020-05-31T09:54:44Z</time>
      </trkpt>
      <trkpt lat="46.35023" lon="-0.46867">
        <ele>47.4</ele>
        <time>2020-05-31T09:54:45Z</time>
      </trkpt>
      <trkpt lat="46.35021" lon="-0.46871">
        <ele>47.5</ele>
        <time>2020-05-31T09:54:46Z</time>
      </trkpt>
      <trkpt lat="46.35018" lon="-0.46876">
        <ele>47.5</ele>
        <time>2020-05-31T09:54:47Z</time>
      </trkpt>
      <trkpt lat="46.35016" lon="-0.46881">
        <ele>47.5</ele>
        <time>2020-05-31T09:54:48Z</time>
      </trkpt>
      <trkpt lat="46.35013" lon="-0.46887">
        <ele>47.6</ele>
        <time>2020-05-31T09:54:49Z</time>
      </trkpt>
      <trkpt lat="46.35011" lon="-0.46892">
        <ele>47.7</ele>
        <time>2020-05-31T09:54:50Z</time>
      </trkpt>
      <trkpt lat="46.35008" lon="-0.46896">
        <ele>47.9</ele>
        <time>2020-05-31T09:54:51Z</time>
      </trkpt>
      <trkpt lat="46.35005" lon="-0.46901">
        <ele>48</ele>
        <time>2020-05-31T09:54:52Z</time>
      </trkpt>
      <trkpt lat="46.35003" lon="-0.46906">
        <ele>48.1</ele>
        <time>2020-05-31T09:54:53Z</time>
      </trkpt>
      <trkpt lat="46.35001" lon="-0.46911">
        <ele>48.3</ele>
        <time>2020-05-31T09:54:54Z</time>
      </trkpt>
      <trkpt lat="46.35" lon="-0.46915">
        <ele>48.3</ele>
        <time>2020-05-31T09:54:55Z</time>
      </trkpt>
      <trkpt lat="46.34999" lon="-0.4692">
        <ele>48.4</ele>
        <time>2020-05-31T09:54:56Z</time>
      </trkpt>
      <trkpt lat="46.34998" lon="-0.46926">
        <ele>48.5</ele>
        <time>2020-05-31T09:54:57Z</time>
      </trkpt>
      <trkpt lat="46.34998" lon="-0.46931">
        <ele>48.6</ele>
        <time>2020-05-31T09:54:58Z</time>
      </trkpt>
      <trkpt lat="46.34998" lon="-0.46937">
        <ele>48.8</ele>
        <time>2020-05-31T09:54:59Z</time>
      </trkpt>
      <trkpt lat="46.34998" lon="-0.46942">
        <ele>48.9</ele>
        <time>2020-05-31T09:55:00Z</time>
      </trkpt>
      <trkpt lat="46.34998" lon="-0.46947">
        <ele>49.1</ele>
        <time>2020-05-31T09:55:01Z</time>
      </trkpt>
      <trkpt lat="46.34998" lon="-0.46951">
        <ele>49.2</ele>
        <time>2020-05-31T09:55:02Z</time>
      </trkpt>
      <trkpt lat="46.34997" lon="-0.46956">
        <ele>49.4</ele>
        <time>2020-05-31T09:55:03Z</time>
      </trkpt>
      <trkpt lat="46.34997" lon="-0.46958">
        <ele>49.4</ele>
        <time>2020-05-31T09:55:04Z</time>
      </trkpt>
      <trkpt lat="46.34996" lon="-0.46962">
        <ele>49.7</ele>
        <time>2020-05-31T09:55:05Z</time>
      </trkpt>
      <trkpt lat="46.34995" lon="-0.46963">
        <ele>49.7</ele>
        <time>2020-05-31T09:55:06Z</time>
      </trkpt>
      <trkpt lat="46.34992" lon="-0.46965">
        <ele>49.8</ele>
        <time>2020-05-31T09:55:07Z</time>
      </trkpt>
      <trkpt lat="46.34992" lon="-0.46967">
        <ele>49.8</ele>
        <time>2020-05-31T09:55:08Z</time>
      </trkpt>
      <trkpt lat="46.34991" lon="-0.46968">
        <ele>49.8</ele>
        <time>2020-05-31T09:55:09Z</time>
      </trkpt>
      <trkpt lat="46.3499" lon="-0.46969">
        <ele>49.9</ele>
        <time>2020-05-31T09:55:10Z</time>
      </trkpt>
      <trkpt lat="46.34988" lon="-0.4697">
        <ele>49.9</ele>
        <time>2020-05-31T09:55:11Z</time>
      </trkpt>
      <trkpt lat="46.34987" lon="-0.4697">
        <ele>49.9</ele>
        <time>2020-05-31T09:55:12Z</time>
      </trkpt>
      <trkpt lat="46.34986" lon="-0.4697">
        <ele>49.9</ele>
        <time>2020-05-31T09:55:13Z</time>
      </trkpt>
      <trkpt lat="46.34985" lon="-0.46971">
        <ele>50</ele>
        <time>2020-05-31T09:55:14Z</time>
      </trkpt>
      <trkpt lat="46.34983" lon="-0.46972">
        <ele>50</ele>
        <time>2020-05-31T09:55:15Z</time>
      </trkpt>
      <trkpt lat="46.34981" lon="-0.46973">
        <ele>50.1</ele>
        <time>2020-05-31T09:55:16Z</time>
      </trkpt>
      <trkpt lat="46.3498" lon="-0.46974">
        <ele>50.1</ele>
        <time>2020-05-31T09:55:17Z</time>
      </trkpt>
      <trkpt lat="46.34979" lon="-0.46974">
        <ele>50.1</ele>
        <time>2020-05-31T09:55:18Z</time>
      </trkpt>
      <trkpt lat="46.34977" lon="-0.46975">
        <ele>50.1</ele>
        <time>2020-05-31T09:55:19Z</time>
      </trkpt>
      <trkpt lat="46.34977" lon="-0.46976">
        <ele>50.1</ele>
        <time>2020-05-31T09:55:20Z</time>
      </trkpt>
      <trkpt lat="46.34975" lon="-0.46977">
        <ele>50.2</ele>
        <time>2020-05-31T09:55:21Z</time>
      </trkpt>
      <trkpt lat="46.34974" lon="-0.46977">
        <ele>50.2</ele>
        <time>2020-05-31T09:55:22Z</time>
      </trkpt>
      <trkpt lat="46.34973" lon="-0.46978">
        <ele>50.2</ele>
        <time>2020-05-31T09:55:23Z</time>
      </trkpt>
      <trkpt lat="46.34971" lon="-0.46978">
        <ele>50.3</ele>
        <time>2020-05-31T09:55:24Z</time>
      </trkpt>
      <trkpt lat="46.34971" lon="-0.46978">
        <ele>50.3</ele>
        <time>2020-05-31T09:55:25Z</time>
      </trkpt>
      <trkpt lat="46.3497" lon="-0.46979">
        <ele>50.3</ele>
        <time>2020-05-31T09:55:26Z</time>
      </trkpt>
      <trkpt lat="46.34967" lon="-0.4698">
        <ele>50.4</ele>
        <time>2020-05-31T09:55:27Z</time>
      </trkpt>
      <trkpt lat="46.34966" lon="-0.4698">
        <ele>50.4</ele>
        <time>2020-05-31T09:55:28Z</time>
      </trkpt>
      <trkpt lat="46.34964" lon="-0.46981">
        <ele>50.4</ele>
        <time>2020-05-31T09:55:29Z</time>
      </trkpt>
      <trkpt lat="46.34963" lon="-0.46982">
        <ele>50.4</ele>
        <time>2020-05-31T09:55:30Z</time>
      </trkpt>
      <trkpt lat="46.34962" lon="-0.46982">
        <ele>50.5</ele>
        <time>2020-05-31T09:55:31Z</time>
      </trkpt>
      <trkpt lat="46.34961" lon="-0.46982">
        <ele>50.5</ele>
        <time>2020-05-31T09:55:32Z</time>
      </trkpt>
      <trkpt lat="46.34961" lon="-0.46982">
        <ele>50.5</ele>
        <time>2020-05-31T09:55:33Z</time>
      </trkpt>
      <trkpt lat="46.3496" lon="-0.46982">
        <ele>50.5</ele>
        <time>2020-05-31T09:55:34Z</time>
      </trkpt>
      <trkpt lat="46.3496" lon="-0.46982">
        <ele>50.5</ele>
        <time>2020-05-31T09:55:35Z</time>
      </trkpt>
      <trkpt lat="46.3496" lon="-0.46982">
        <ele>50.5</ele>
        <time>2020-05-31T09:55:36Z</time>
      </trkpt>
      <trkpt lat="46.3496" lon="-0.46982">
        <ele>50.5</ele>
        <time>2020-05-31T09:55:37Z</time>
      </trkpt>
      <trkpt lat="46.3496" lon="-0.46982">
        <ele>50.5</ele>
        <time>2020-05-31T09:55:38Z</time>
      </trkpt>
      <trkpt lat="46.3496" lon="-0.46982">
        <ele>50.5</ele>
        <time>2020-05-31T09:55:39Z</time>
      </trkpt>
      <trkpt lat="46.3496" lon="-0.46982">
        <ele>50.5</ele>
        <time>2020-05-31T09:55:40Z</time>
      </trkpt>
      <trkpt lat="46.3496" lon="-0.46982">
        <ele>50.5</ele>
        <time>2020-05-31T09:55:41Z</time>
      </trkpt>
      <trkpt lat="46.3496" lon="-0.46982">
        <ele>50.5</ele>
        <time>2020-05-31T09:55:42Z</time>
      </trkpt>
      <trkpt lat="46.3496" lon="-0.46982">
        <ele>50.5</ele>
        <time>2020-05-31T09:55:43Z</time>
      </trkpt>
      <trkpt lat="46.3496" lon="-0.46982">
        <ele>50.5</ele>
        <time>2020-05-31T09:55:44Z</time>
      </trkpt>
      <trkpt lat="46.3496" lon="-0.46983">
        <ele>50.5</ele>
        <time>2020-05-31T09:55:45Z</time>
      </trkpt>
      <trkpt lat="46.3496" lon="-0.46983">
        <ele>50.5</ele>
        <time>2020-05-31T09:55:46Z</time>
      </trkpt>
      <trkpt lat="46.3496" lon="-0.46984">
        <ele>50.5</ele>
        <time>2020-05-31T09:55:47Z</time>
      </trkpt>
      <trkpt lat="46.34959" lon="-0.46985">
        <ele>50.6</ele>
        <time>2020-05-31T09:55:48Z</time>
      </trkpt>
      <trkpt lat="46.34959" lon="-0.46986">
        <ele>50.6</ele>
        <time>2020-05-31T09:55:49Z</time>
      </trkpt>
      <trkpt lat="46.34959" lon="-0.46986">
        <ele>50.6</ele>
        <time>2020-05-31T09:55:50Z</time>
      </trkpt>
      <trkpt lat="46.34959" lon="-0.46986">
        <ele>50.6</ele>
        <time>2020-05-31T09:55:51Z</time>
      </trkpt>
      <trkpt lat="46.34959" lon="-0.46985">
        <ele>50.6</ele>
        <time>2020-05-31T09:55:52Z</time>
      </trkpt>
      <trkpt lat="46.34958" lon="-0.46986">
        <ele>50.6</ele>
        <time>2020-05-31T09:55:53Z</time>
      </trkpt>
      <trkpt lat="46.34957" lon="-0.46986">
        <ele>50.6</ele>
        <time>2020-05-31T09:55:54Z</time>
      </trkpt>
      <trkpt lat="46.34956" lon="-0.46986">
        <ele>50.6</ele>
        <time>2020-05-31T09:55:55Z</time>
      </trkpt>
      <trkpt lat="46.34954" lon="-0.46987">
        <ele>50.6</ele>
        <time>2020-05-31T09:55:56Z</time>
      </trkpt>
      <trkpt lat="46.34953" lon="-0.46988">
        <ele>50.7</ele>
        <time>2020-05-31T09:55:57Z</time>
      </trkpt>
      <trkpt lat="46.3495" lon="-0.4699">
        <ele>50.7</ele>
        <time>2020-05-31T09:55:58Z</time>
      </trkpt>
      <trkpt lat="46.34947" lon="-0.46993">
        <ele>50.7</ele>
        <time>2020-05-31T09:55:59Z</time>
      </trkpt>
      <trkpt lat="46.34944" lon="-0.46995">
        <ele>50.8</ele>
        <time>2020-05-31T09:56:00Z</time>
      </trkpt>
      <trkpt lat="46.34941" lon="-0.46997">
        <ele>50.8</ele>
        <time>2020-05-31T09:56:01Z</time>
      </trkpt>
      <trkpt lat="46.3494" lon="-0.46998">
        <ele>50.8</ele>
        <time>2020-05-31T09:56:02Z</time>
      </trkpt>
      <trkpt lat="46.34937" lon="-0.47001">
        <ele>50.9</ele>
        <time>2020-05-31T09:56:03Z</time>
      </trkpt>
      <trkpt lat="46.34936" lon="-0.47002">
        <ele>50.9</ele>
        <time>2020-05-31T09:56:04Z</time>
      </trkpt>
      <trkpt lat="46.34933" lon="-0.47004">
        <ele>50.9</ele>
        <time>2020-05-31T09:56:05Z</time>
      </trkpt>
      <trkpt lat="46.34929" lon="-0.47005">
        <ele>51</ele>
        <time>2020-05-31T09:56:06Z</time>
      </trkpt>
      <trkpt lat="46.34926" lon="-0.47005">
        <ele>51</ele>
        <time>2020-05-31T09:56:07Z</time>
      </trkpt>
      <trkpt lat="46.34922" lon="-0.47006">
        <ele>51</ele>
        <time>2020-05-31T09:56:08Z</time>
      </trkpt>
      <trkpt lat="46.34919" lon="-0.47007">
        <ele>51.1</ele>
        <time>2020-05-31T09:56:09Z</time>
      </trkpt>
      <trkpt lat="46.34916" lon="-0.47009">
        <ele>51.1</ele>
        <time>2020-05-31T09:56:10Z</time>
      </trkpt>
      <trkpt lat="46.34913" lon="-0.4701">
        <ele>51.2</ele>
        <time>2020-05-31T09:56:11Z</time>
      </trkpt>
      <trkpt lat="46.34912" lon="-0.47011">
        <ele>51.2</ele>
        <time>2020-05-31T09:56:12Z</time>
      </trkpt>
      <trkpt lat="46.34908" lon="-0.47013">
        <ele>51.2</ele>
        <time>2020-05-31T09:56:13Z</time>
      </trkpt>
      <trkpt lat="46.34907" lon="-0.47013">
        <ele>51.2</ele>
        <time>2020-05-31T09:56:14Z</time>
      </trkpt>
      <trkpt lat="46.34904" lon="-0.47016">
        <ele>51.2</ele>
        <time>2020-05-31T09:56:15Z</time>
      </trkpt>
      <trkpt lat="46.34904" lon="-0.47016">
        <ele>51.3</ele>
        <time>2020-05-31T09:56:16Z</time>
      </trkpt>
      <trkpt lat="46.34901" lon="-0.47017">
        <ele>51.3</ele>
        <time>2020-05-31T09:56:17Z</time>
      </trkpt>
      <trkpt lat="46.34899" lon="-0.47016">
        <ele>51.3</ele>
        <time>2020-05-31T09:56:18Z</time>
      </trkpt>
      <trkpt lat="46.34897" lon="-0.47017">
        <ele>51.3</ele>
        <time>2020-05-31T09:56:19Z</time>
      </trkpt>
      <trkpt lat="46.34896" lon="-0.47017">
        <ele>51.3</ele>
        <time>2020-05-31T09:56:20Z</time>
      </trkpt>
      <trkpt lat="46.34893" lon="-0.47018">
        <ele>51.2</ele>
        <time>2020-05-31T09:56:21Z</time>
      </trkpt>
      <trkpt lat="46.34892" lon="-0.47018">
        <ele>51.2</ele>
        <time>2020-05-31T09:56:22Z</time>
      </trkpt>
      <trkpt lat="46.34891" lon="-0.47019">
        <ele>51.2</ele>
        <time>2020-05-31T09:56:23Z</time>
      </trkpt>
      <trkpt lat="46.3489" lon="-0.4702">
        <ele>51.2</ele>
        <time>2020-05-31T09:56:24Z</time>
      </trkpt>
      <trkpt lat="46.34889" lon="-0.47021">
        <ele>51.2</ele>
        <time>2020-05-31T12:13:22Z</time>
      </trkpt>
      <trkpt lat="46.34888" lon="-0.47022">
        <ele>51.2</ele>
        <time>2020-05-31T12:13:23Z</time>
      </trkpt>
      <trkpt lat="46.34887" lon="-0.47023">
        <ele>51.2</ele>
        <time>2020-05-31T12:13:24Z</time>
      </trkpt>
      <trkpt lat="46.34886" lon="-0.47024">
        <ele>51.2</ele>
        <time>2020-05-31T12:13:25Z</time>
      </trkpt>
      <trkpt lat="46.34885" lon="-0.47025">
        <ele>51.2</ele>
        <time>2020-05-31T12:13:26Z</time>
      </trkpt>
      <trkpt lat="46.34884" lon="-0.47026">
        <ele>51.2</ele>
        <time>2020-05-31T12:13:27Z</time>
      </trkpt>
      <trkpt lat="46.34883" lon="-0.47027">
        <ele>51.2</ele>
        <time>2020-05-31T12:13:28Z</time>
      </trkpt>
      <trkpt lat="46.34882" lon="-0.47029">
        <ele>51.1</ele>
        <time>2020-05-31T12:13:29Z</time>
      </trkpt>
      <trkpt lat="46.34881" lon="-0.4703">
        <ele>51.1</ele>
        <time>2020-05-31T12:13:30Z</time>
      </trkpt>
      <trkpt lat="46.34877" lon="-0.47032">
        <ele>51.1</ele>
        <time>2020-05-31T12:13:31Z</time>
      </trkpt>
      <trkpt lat="46.34876" lon="-0.47032">
        <ele>51.1</ele>
        <time>2020-05-31T12:13:32Z</time>
      </trkpt>
      <trkpt lat="46.34873" lon="-0.47035">
        <ele>51.1</ele>
        <time>2020-05-31T12:13:33Z</time>
      </trkpt>
      <trkpt lat="46.3487" lon="-0.47037">
        <ele>51</ele>
        <time>2020-05-31T12:13:34Z</time>
      </trkpt>
      <trkpt lat="46.34867" lon="-0.47038">
        <ele>51</ele>
        <time>2020-05-31T12:13:35Z</time>
      </trkpt>
      <trkpt lat="46.34863" lon="-0.47038">
        <ele>50.9</ele>
        <time>2020-05-31T12:13:36Z</time>
      </trkpt>
      <trkpt lat="46.3486" lon="-0.47039">
        <ele>50.9</ele>
        <time>2020-05-31T12:13:37Z</time>
      </trkpt>
      <trkpt lat="46.34856" lon="-0.47041">
        <ele>50.9</ele>
        <time>2020-05-31T12:13:38Z</time>
      </trkpt>
      <trkpt lat="46.34852" lon="-0.47043">
        <ele>50.8</ele>
        <time>2020-05-31T12:13:39Z</time>
      </trkpt>
      <trkpt lat="46.34849" lon="-0.47044">
        <ele>50.8</ele>
        <time>2020-05-31T12:13:40Z</time>
      </trkpt>
      <trkpt lat="46.34845" lon="-0.47046">
        <ele>50.7</ele>
        <time>2020-05-31T12:13:41Z</time>
      </trkpt>
      <trkpt lat="46.34841" lon="-0.47048">
        <ele>50.7</ele>
        <time>2020-05-31T12:13:42Z</time>
      </trkpt>
      <trkpt lat="46.34837" lon="-0.47049">
        <ele>50.6</ele>
        <time>2020-05-31T12:13:43Z</time>
      </trkpt>
      <trkpt lat="46.34833" lon="-0.4705">
        <ele>50.6</ele>
        <time>2020-05-31T12:13:44Z</time>
      </trkpt>
      <trkpt lat="46.34829" lon="-0.47054">
        <ele>50.6</ele>
        <time>2020-05-31T12:13:45Z</time>
      </trkpt>
      <trkpt lat="46.34825" lon="-0.47056">
        <ele>50.5</ele>
        <time>2020-05-31T12:13:46Z</time>
      </trkpt>
      <trkpt lat="46.3482" lon="-0.47057">
        <ele>50.5</ele>
        <time>2020-05-31T12:13:47Z</time>
      </trkpt>
      <trkpt lat="46.34816" lon="-0.4706">
        <ele>50.5</ele>
        <time>2020-05-31T12:13:48Z</time>
      </trkpt>
      <trkpt lat="46.34812" lon="-0.47063">
        <ele>50.5</ele>
        <time>2020-05-31T12:13:49Z</time>
      </trkpt>
      <trkpt lat="46.34807" lon="-0.47065">
        <ele>50.5</ele>
        <time>2020-05-31T12:13:50Z</time>
      </trkpt>
      <trkpt lat="46.34803" lon="-0.47068">
        <ele>50.6</ele>
        <time>2020-05-31T12:13:51Z</time>
      </trkpt>
      <trkpt lat="46.34799" lon="-0.47071">
        <ele>50.6</ele>
        <time>2020-05-31T12:13:52Z</time>
      </trkpt>
      <trkpt lat="46.34796" lon="-0.47077">
        <ele>50.6</ele>
        <time>2020-05-31T12:13:53Z</time>
      </trkpt>
      <trkpt lat="46.34794" lon="-0.47082">
        <ele>50.6</ele>
        <time>2020-05-31T12:13:54Z</time>
      </trkpt>
      <trkpt lat="46.34792" lon="-0.47088">
        <ele>50.6</ele>
        <time>2020-05-31T12:13:55Z</time>
      </trkpt>
      <trkpt lat="46.34792" lon="-0.47094">
        <ele>50.6</ele>
        <time>2020-05-31T12:13:56Z</time>
      </trkpt>
      <trkpt lat="46.34793" lon="-0.47099">
        <ele>50.7</ele>
        <time>2020-05-31T12:13:57Z</time>
      </trkpt>
      <trkpt lat="46.34794" lon="-0.47104">
        <ele>50.7</ele>
        <time>2020-05-31T12:13:58Z</time>
      </trkpt>
      <trkpt lat="46.34796" lon="-0.47108">
        <ele>50.7</ele>
        <time>2020-05-31T12:13:59Z</time>
      </trkpt>
      <trkpt lat="46.34799" lon="-0.47114">
        <ele>50.8</ele>
        <time>2020-05-31T12:14:00Z</time>
      </trkpt>
      <trkpt lat="46.34802" lon="-0.47119">
        <ele>50.9</ele>
        <time>2020-05-31T12:14:01Z</time>
      </trkpt>
      <trkpt lat="46.34804" lon="-0.47125">
        <ele>51</ele>
        <time>2020-05-31T12:14:02Z</time>
      </trkpt>
      <trkpt lat="46.34807" lon="-0.4713">
        <ele>51.1</ele>
        <time>2020-05-31T12:14:03Z</time>
      </trkpt>
      <trkpt lat="46.34809" lon="-0.47135">
        <ele>51.2</ele>
        <time>2020-05-31T12:14:04Z</time>
      </trkpt>
      <trkpt lat="46.3481" lon="-0.47142">
        <ele>51.4</ele>
        <time>2020-05-31T12:14:05Z</time>
      </trkpt>
      <trkpt lat="46.34813" lon="-0.47147">
        <ele>51.5</ele>
        <time>2020-05-31T12:14:06Z</time>
      </trkpt>
      <trkpt lat="46.34815" lon="-0.47153">
        <ele>51.6</ele>
        <time>2020-05-31T12:14:07Z</time>
      </trkpt>
      <trkpt lat="46.34818" lon="-0.4716">
        <ele>51.8</ele>
        <time>2020-05-31T12:14:08Z</time>
      </trkpt>
      <trkpt lat="46.3482" lon="-0.47165">
        <ele>51.9</ele>
        <time>2020-05-31T12:14:09Z</time>
      </trkpt>
      <trkpt lat="46.34823" lon="-0.4717">
        <ele>52</ele>
        <time>2020-05-31T12:14:10Z</time>
      </trkpt>
      <trkpt lat="46.34826" lon="-0.47176">
        <ele>52.1</ele>
        <time>2020-05-31T12:14:11Z</time>
      </trkpt>
      <trkpt lat="46.34829" lon="-0.47182">
        <ele>52.3</ele>
        <time>2020-05-31T12:14:12Z</time>
      </trkpt>
      <trkpt lat="46.34831" lon="-0.47187">
        <ele>52.4</ele>
        <time>2020-05-31T12:14:13Z</time>
      </trkpt>
      <trkpt lat="46.34833" lon="-0.47192">
        <ele>52.4</ele>
        <time>2020-05-31T12:14:14Z</time>
      </trkpt>
      <trkpt lat="46.34835" lon="-0.47196">
        <ele>52.5</ele>
        <time>2020-05-31T12:14:15Z</time>
      </trkpt>
      <trkpt lat="46.34835" lon="-0.47201">
        <ele>52.6</ele>
        <time>2020-05-31T12:14:16Z</time>
      </trkpt>
      <trkpt lat="46.34835" lon="-0.47205">
        <ele>52.6</ele>
        <time>2020-05-31T12:14:17Z</time>
      </trkpt>
      <trkpt lat="46.34835" lon="-0.4721">
        <ele>52.6</ele>
        <time>2020-05-31T12:14:18Z</time>
      </trkpt>
      <trkpt lat="46.34835" lon="-0.47215">
        <ele>52.6</ele>
        <time>2020-05-31T12:14:19Z</time>
      </trkpt>
      <trkpt lat="46.34834" lon="-0.4722">
        <ele>52.6</ele>
        <time>2020-05-31T12:14:20Z</time>
      </trkpt>
      <trkpt lat="46.34834" lon="-0.47225">
        <ele>52.6</ele>
        <time>2020-05-31T12:14:21Z</time>
      </trkpt>
      <trkpt lat="46.34833" lon="-0.4723">
        <ele>52.6</ele>
        <time>2020-05-31T12:14:22Z</time>
      </trkpt>
      <trkpt lat="46.34833" lon="-0.47236">
        <ele>52.6</ele>
        <time>2020-05-31T12:14:23Z</time>
      </trkpt>
      <trkpt lat="46.34834" lon="-0.47242">
        <ele>52.6</ele>
        <time>2020-05-31T12:14:24Z</time>
      </trkpt>
      <trkpt lat="46.34834" lon="-0.47247">
        <ele>52.6</ele>
        <time>2020-05-31T12:14:25Z</time>
      </trkpt>
      <trkpt lat="46.34833" lon="-0.47253">
        <ele>52.6</ele>
        <time>2020-05-31T12:14:26Z</time>
      </trkpt>
      <trkpt lat="46.34833" lon="-0.47258">
        <ele>52.6</ele>
        <time>2020-05-31T12:14:27Z</time>
      </trkpt>
      <trkpt lat="46.34833" lon="-0.47264">
        <ele>52.6</ele>
        <time>2020-05-31T12:14:28Z</time>
      </trkpt>
      <trkpt lat="46.34833" lon="-0.4727">
        <ele>52.6</ele>
        <time>2020-05-31T12:14:29Z</time>
      </trkpt>
      <trkpt lat="46.34833" lon="-0.47275">
        <ele>52.6</ele>
        <time>2020-05-31T12:14:30Z</time>
      </trkpt>
      <trkpt lat="46.34833" lon="-0.47282">
        <ele>52.6</ele>
        <time>2020-05-31T12:14:31Z</time>
      </trkpt>
      <trkpt lat="46.34833" lon="-0.47288">
        <ele>52.6</ele>
        <time>2020-05-31T12:14:32Z</time>
      </trkpt>
      <trkpt lat="46.34833" lon="-0.47294">
        <ele>52.6</ele>
        <time>2020-05-31T12:14:33Z</time>
      </trkpt>
      <trkpt lat="46.34832" lon="-0.47299">
        <ele>52.6</ele>
        <time>2020-05-31T12:14:34Z</time>
      </trkpt>
      <trkpt lat="46.34832" lon="-0.47305">
        <ele>52.6</ele>
        <time>2020-05-31T12:14:35Z</time>
      </trkpt>
      <trkpt lat="46.34831" lon="-0.4731">
        <ele>52.6</ele>
        <time>2020-05-31T12:14:36Z</time>
      </trkpt>
      <trkpt lat="46.34831" lon="-0.47315">
        <ele>52.6</ele>
        <time>2020-05-31T12:14:37Z</time>
      </trkpt>
      <trkpt lat="46.34831" lon="-0.47319">
        <ele>52.6</ele>
        <time>2020-05-31T12:14:38Z</time>
      </trkpt>
      <trkpt lat="46.34831" lon="-0.47325">
        <ele>52.6</ele>
        <time>2020-05-31T12:14:39Z</time>
      </trkpt>
      <trkpt lat="46.34832" lon="-0.4733">
        <ele>52.6</ele>
        <time>2020-05-31T12:14:40Z</time>
      </trkpt>
      <trkpt lat="46.34833" lon="-0.47337">
        <ele>52.6</ele>
        <time>2020-05-31T12:14:41Z</time>
      </trkpt>
      <trkpt lat="46.34833" lon="-0.47344">
        <ele>52.5</ele>
        <time>2020-05-31T12:14:42Z</time>
      </trkpt>
      <trkpt lat="46.34833" lon="-0.4735">
        <ele>52.5</ele>
        <time>2020-05-31T12:14:43Z</time>
      </trkpt>
      <trkpt lat="46.34833" lon="-0.47356">
        <ele>52.5</ele>
        <time>2020-05-31T12:14:44Z</time>
      </trkpt>
      <trkpt lat="46.34834" lon="-0.47363">
        <ele>52.4</ele>
        <time>2020-05-31T12:14:45Z</time>
      </trkpt>
      <trkpt lat="46.34835" lon="-0.4737">
        <ele>52.4</ele>
        <time>2020-05-31T12:14:46Z</time>
      </trkpt>
      <trkpt lat="46.34835" lon="-0.47378">
        <ele>52.3</ele>
        <time>2020-05-31T12:14:47Z</time>
      </trkpt>
      <trkpt lat="46.34836" lon="-0.47385">
        <ele>52.3</ele>
        <time>2020-05-31T12:14:48Z</time>
      </trkpt>
      <trkpt lat="46.34836" lon="-0.47392">
        <ele>52.2</ele>
        <time>2020-05-31T12:14:49Z</time>
      </trkpt>
      <trkpt lat="46.34836" lon="-0.474">
        <ele>52.2</ele>
        <time>2020-05-31T12:14:50Z</time>
      </trkpt>
      <trkpt lat="46.34837" lon="-0.47407">
        <ele>52.2</ele>
        <time>2020-05-31T12:14:51Z</time>
      </trkpt>
      <trkpt lat="46.34836" lon="-0.47415">
        <ele>52.1</ele>
        <time>2020-05-31T12:14:52Z</time>
      </trkpt>
      <trkpt lat="46.34835" lon="-0.47422">
        <ele>52</ele>
        <time>2020-05-31T12:14:53Z</time>
      </trkpt>
      <trkpt lat="46.34834" lon="-0.47429">
        <ele>51.9</ele>
        <time>2020-05-31T12:14:54Z</time>
      </trkpt>
      <trkpt lat="46.34834" lon="-0.47436">
        <ele>51.8</ele>
        <time>2020-05-31T12:14:55Z</time>
      </trkpt>
      <trkpt lat="46.34833" lon="-0.47444">
        <ele>51.7</ele>
        <time>2020-05-31T12:14:56Z</time>
      </trkpt>
      <trkpt lat="46.34832" lon="-0.47452">
        <ele>51.6</ele>
        <time>2020-05-31T12:14:57Z</time>
      </trkpt>
      <trkpt lat="46.34832" lon="-0.47461">
        <ele>51.4</ele>
        <time>2020-05-31T12:14:58Z</time>
      </trkpt>
      <trkpt lat="46.34831" lon="-0.47471">
        <ele>51.2</ele>
        <time>2020-05-31T12:14:59Z</time>
      </trkpt>
      <trkpt lat="46.3483" lon="-0.4748">
        <ele>51.1</ele>
        <time>2020-05-31T12:15:00Z</time>
      </trkpt>
      <trkpt lat="46.34829" lon="-0.47489">
        <ele>50.9</ele>
        <time>2020-05-31T12:15:01Z</time>
      </trkpt>
      <trkpt lat="46.34829" lon="-0.47499">
        <ele>50.7</ele>
        <time>2020-05-31T12:15:02Z</time>
      </trkpt>
      <trkpt lat="46.34828" lon="-0.47508">
        <ele>50.6</ele>
        <time>2020-05-31T12:15:03Z</time>
      </trkpt>
      <trkpt lat="46.34827" lon="-0.47518">
        <ele>50.4</ele>
        <time>2020-05-31T12:15:04Z</time>
      </trkpt>
      <trkpt lat="46.34825" lon="-0.47529">
        <ele>50.1</ele>
        <time>2020-05-31T12:15:05Z</time>
      </trkpt>
      <trkpt lat="46.34825" lon="-0.47539">
        <ele>49.7</ele>
        <time>2020-05-31T12:15:06Z</time>
      </trkpt>
      <trkpt lat="46.34823" lon="-0.47549">
        <ele>49.5</ele>
        <time>2020-05-31T12:15:07Z</time>
      </trkpt>
      <trkpt lat="46.34822" lon="-0.47559">
        <ele>49.3</ele>
        <time>2020-05-31T12:15:08Z</time>
      </trkpt>
      <trkpt lat="46.34821" lon="-0.47568">
        <ele>49</ele>
        <time>2020-05-31T12:15:09Z</time>
      </trkpt>
      <trkpt lat="46.34821" lon="-0.47578">
        <ele>48.8</ele>
        <time>2020-05-31T12:15:10Z</time>
      </trkpt>
      <trkpt lat="46.3482" lon="-0.47589">
        <ele>48.5</ele>
        <time>2020-05-31T12:15:11Z</time>
      </trkpt>
      <trkpt lat="46.3482" lon="-0.476">
        <ele>48.3</ele>
        <time>2020-05-31T12:15:12Z</time>
      </trkpt>
      <trkpt lat="46.34819" lon="-0.47611">
        <ele>48.1</ele>
        <time>2020-05-31T12:15:13Z</time>
      </trkpt>
      <trkpt lat="46.34818" lon="-0.47622">
        <ele>47.7</ele>
        <time>2020-05-31T12:15:14Z</time>
      </trkpt>
      <trkpt lat="46.34817" lon="-0.47632">
        <ele>47.3</ele>
        <time>2020-05-31T12:15:15Z</time>
      </trkpt>
      <trkpt lat="46.34816" lon="-0.47644">
        <ele>46.8</ele>
        <time>2020-05-31T12:15:16Z</time>
      </trkpt>
      <trkpt lat="46.34816" lon="-0.47656">
        <ele>46.2</ele>
        <time>2020-05-31T12:15:17Z</time>
      </trkpt>
      <trkpt lat="46.34816" lon="-0.47667">
        <ele>45.6</ele>
        <time>2020-05-31T12:15:18Z</time>
      </trkpt>
      <trkpt lat="46.34816" lon="-0.47678">
        <ele>45.1</ele>
        <time>2020-05-31T12:15:19Z</time>
      </trkpt>
      <trkpt lat="46.34817" lon="-0.47687">
        <ele>44.6</ele>
        <time>2020-05-31T12:15:20Z</time>
      </trkpt>
      <trkpt lat="46.34818" lon="-0.47696">
        <ele>44.1</ele>
        <time>2020-05-31T12:15:21Z</time>
      </trkpt>
      <trkpt lat="46.34818" lon="-0.47702">
        <ele>43.7</ele>
        <time>2020-05-31T12:15:22Z</time>
      </trkpt>
      <trkpt lat="46.34819" lon="-0.47709">
        <ele>43.3</ele>
        <time>2020-05-31T12:15:23Z</time>
      </trkpt>
      <trkpt lat="46.34819" lon="-0.47715">
        <ele>42.9</ele>
        <time>2020-05-31T12:15:24Z</time>
      </trkpt>
      <trkpt lat="46.34819" lon="-0.47721">
        <ele>42.6</ele>
        <time>2020-05-31T12:15:25Z</time>
      </trkpt>
      <trkpt lat="46.34819" lon="-0.47727">
        <ele>42.4</ele>
        <time>2020-05-31T12:15:26Z</time>
      </trkpt>
      <trkpt lat="46.34819" lon="-0.47731">
        <ele>42.2</ele>
        <time>2020-05-31T12:15:27Z</time>
      </trkpt>
      <trkpt lat="46.3482" lon="-0.47733">
        <ele>42.1</ele>
        <time>2020-05-31T12:15:28Z</time>
      </trkpt>
      <trkpt lat="46.34821" lon="-0.47734">
        <ele>42.1</ele>
        <time>2020-05-31T12:15:29Z</time>
      </trkpt>
      <trkpt lat="46.3482" lon="-0.47735">
        <ele>42</ele>
        <time>2020-05-31T12:15:30Z</time>
      </trkpt>
      <trkpt lat="46.3482" lon="-0.47736">
        <ele>42</ele>
        <time>2020-05-31T12:15:31Z</time>
      </trkpt>
      <trkpt lat="46.3482" lon="-0.47738">
        <ele>42</ele>
        <time>2020-05-31T12:15:32Z</time>
      </trkpt>
      <trkpt lat="46.3482" lon="-0.47739">
        <ele>41.9</ele>
        <time>2020-05-31T12:15:33Z</time>
      </trkpt>
      <trkpt lat="46.3482" lon="-0.4774">
        <ele>41.9</ele>
        <time>2020-05-31T12:15:34Z</time>
      </trkpt>
      <trkpt lat="46.3482" lon="-0.47741">
        <ele>41.8</ele>
        <time>2020-05-31T12:15:35Z</time>
      </trkpt>
      <trkpt lat="46.34821" lon="-0.47745">
        <ele>41.7</ele>
        <time>2020-05-31T12:15:36Z</time>
      </trkpt>
      <trkpt lat="46.34821" lon="-0.47749">
        <ele>41.6</ele>
        <time>2020-05-31T12:15:37Z</time>
      </trkpt>
      <trkpt lat="46.34821" lon="-0.47754">
        <ele>41.5</ele>
        <time>2020-05-31T12:15:38Z</time>
      </trkpt>
      <trkpt lat="46.34819" lon="-0.47758">
        <ele>41.3</ele>
        <time>2020-05-31T12:15:39Z</time>
      </trkpt>
      <trkpt lat="46.34818" lon="-0.47764">
        <ele>41.2</ele>
        <time>2020-05-31T12:15:40Z</time>
      </trkpt>
      <trkpt lat="46.34817" lon="-0.47771">
        <ele>40.9</ele>
        <time>2020-05-31T12:15:41Z</time>
      </trkpt>
      <trkpt lat="46.34816" lon="-0.47778">
        <ele>40.6</ele>
        <time>2020-05-31T12:15:42Z</time>
      </trkpt>
      <trkpt lat="46.34815" lon="-0.47786">
        <ele>40.2</ele>
        <time>2020-05-31T12:15:43Z</time>
      </trkpt>
      <trkpt lat="46.34814" lon="-0.47795">
        <ele>39.8</ele>
        <time>2020-05-31T12:15:44Z</time>
      </trkpt>
      <trkpt lat="46.34812" lon="-0.47804">
        <ele>39.4</ele>
        <time>2020-05-31T12:15:45Z</time>
      </trkpt>
      <trkpt lat="46.34811" lon="-0.47813">
        <ele>39.1</ele>
        <time>2020-05-31T12:15:46Z</time>
      </trkpt>
      <trkpt lat="46.34809" lon="-0.47821">
        <ele>38.7</ele>
        <time>2020-05-31T12:15:47Z</time>
      </trkpt>
      <trkpt lat="46.34807" lon="-0.4783">
        <ele>38.3</ele>
        <time>2020-05-31T12:15:48Z</time>
      </trkpt>
      <trkpt lat="46.34805" lon="-0.4784">
        <ele>37.8</ele>
        <time>2020-05-31T12:15:49Z</time>
      </trkpt>
      <trkpt lat="46.34803" lon="-0.47851">
        <ele>37.2</ele>
        <time>2020-05-31T12:15:50Z</time>
      </trkpt>
      <trkpt lat="46.34801" lon="-0.47863">
        <ele>36.7</ele>
        <time>2020-05-31T12:15:51Z</time>
      </trkpt>
      <trkpt lat="46.34799" lon="-0.47875">
        <ele>36.1</ele>
        <time>2020-05-31T12:15:52Z</time>
      </trkpt>
      <trkpt lat="46.34797" lon="-0.47887">
        <ele>35.5</ele>
        <time>2020-05-31T12:15:53Z</time>
      </trkpt>
      <trkpt lat="46.34795" lon="-0.47899">
        <ele>34.9</ele>
        <time>2020-05-31T12:15:54Z</time>
      </trkpt>
      <trkpt lat="46.34792" lon="-0.47911">
        <ele>34.4</ele>
        <time>2020-05-31T12:15:55Z</time>
      </trkpt>
      <trkpt lat="46.34789" lon="-0.47923">
        <ele>33.9</ele>
        <time>2020-05-31T12:15:56Z</time>
      </trkpt>
      <trkpt lat="46.34786" lon="-0.47935">
        <ele>33.5</ele>
        <time>2020-05-31T12:15:57Z</time>
      </trkpt>
      <trkpt lat="46.34782" lon="-0.47947">
        <ele>33.2</ele>
        <time>2020-05-31T12:15:58Z</time>
      </trkpt>
      <trkpt lat="46.34779" lon="-0.47961">
        <ele>33.1</ele>
        <time>2020-05-31T12:15:59Z</time>
      </trkpt>
      <trkpt lat="46.34776" lon="-0.47974">
        <ele>33</ele>
        <time>2020-05-31T12:16:00Z</time>
      </trkpt>
      <trkpt lat="46.34774" lon="-0.47987">
        <ele>32.8</ele>
        <time>2020-05-31T12:16:01Z</time>
      </trkpt>
      <trkpt lat="46.34771" lon="-0.48">
        <ele>32.6</ele>
        <time>2020-05-31T12:16:02Z</time>
      </trkpt>
      <trkpt lat="46.34767" lon="-0.48012">
        <ele>32.4</ele>
        <time>2020-05-31T12:16:03Z</time>
      </trkpt>
      <trkpt lat="46.34763" lon="-0.48024">
        <ele>32.1</ele>
        <time>2020-05-31T12:16:04Z</time>
      </trkpt>
      <trkpt lat="46.3476" lon="-0.48037">
        <ele>31.8</ele>
        <time>2020-05-31T12:16:05Z</time>
      </trkpt>
      <trkpt lat="46.34758" lon="-0.48049">
        <ele>31.4</ele>
        <time>2020-05-31T12:16:06Z</time>
      </trkpt>
      <trkpt lat="46.34756" lon="-0.48062">
        <ele>31.1</ele>
        <time>2020-05-31T12:16:07Z</time>
      </trkpt>
      <trkpt lat="46.34753" lon="-0.48075">
        <ele>30.8</ele>
        <time>2020-05-31T12:16:08Z</time>
      </trkpt>
      <trkpt lat="46.34751" lon="-0.48087">
        <ele>30.5</ele>
        <time>2020-05-31T12:16:09Z</time>
      </trkpt>
      <trkpt lat="46.3475" lon="-0.481">
        <ele>30.3</ele>
        <time>2020-05-31T12:16:10Z</time>
      </trkpt>
      <trkpt lat="46.34748" lon="-0.48113">
        <ele>30.1</ele>
        <time>2020-05-31T12:16:11Z</time>
      </trkpt>
      <trkpt lat="46.34746" lon="-0.48125">
        <ele>30.1</ele>
        <time>2020-05-31T12:16:12Z</time>
      </trkpt>
      <trkpt lat="46.34745" lon="-0.48137">
        <ele>30.1</ele>
        <time>2020-05-31T12:16:13Z</time>
      </trkpt>
      <trkpt lat="46.34745" lon="-0.48149">
        <ele>30</ele>
        <time>2020-05-31T12:16:14Z</time>
      </trkpt>
      <trkpt lat="46.34744" lon="-0.48159">
        <ele>29.9</ele>
        <time>2020-05-31T12:16:15Z</time>
      </trkpt>
      <trkpt lat="46.34744" lon="-0.4817">
        <ele>29.8</ele>
        <time>2020-05-31T12:16:16Z</time>
      </trkpt>
      <trkpt lat="46.34744" lon="-0.48179">
        <ele>29.7</ele>
        <time>2020-05-31T12:16:17Z</time>
      </trkpt>
      <trkpt lat="46.34745" lon="-0.48188">
        <ele>29.7</ele>
        <time>2020-05-31T12:16:18Z</time>
      </trkpt>
      <trkpt lat="46.34749" lon="-0.48196">
        <ele>29.6</ele>
        <time>2020-05-31T12:16:19Z</time>
      </trkpt>
      <trkpt lat="46.34754" lon="-0.48201">
        <ele>29.5</ele>
        <time>2020-05-31T12:16:20Z</time>
      </trkpt>
      <trkpt lat="46.3476" lon="-0.48205">
        <ele>29.4</ele>
        <time>2020-05-31T12:16:21Z</time>
      </trkpt>
      <trkpt lat="46.34765" lon="-0.48212">
        <ele>29.4</ele>
        <time>2020-05-31T12:16:22Z</time>
      </trkpt>
      <trkpt lat="46.34768" lon="-0.4822">
        <ele>29.5</ele>
        <time>2020-05-31T12:16:23Z</time>
      </trkpt>
      <trkpt lat="46.34771" lon="-0.48229">
        <ele>29.5</ele>
        <time>2020-05-31T12:16:24Z</time>
      </trkpt>
      <trkpt lat="46.34772" lon="-0.48239">
        <ele>29.6</ele>
        <time>2020-05-31T12:16:25Z</time>
      </trkpt>
      <trkpt lat="46.3477" lon="-0.48247">
        <ele>29.6</ele>
        <time>2020-05-31T12:16:26Z</time>
      </trkpt>
      <trkpt lat="46.34767" lon="-0.48254">
        <ele>29.5</ele>
        <time>2020-05-31T12:16:27Z</time>
      </trkpt>
      <trkpt lat="46.34762" lon="-0.48259">
        <ele>29.5</ele>
        <time>2020-05-31T12:16:28Z</time>
      </trkpt>
      <trkpt lat="46.34756" lon="-0.48262">
        <ele>29.4</ele>
        <time>2020-05-31T12:16:29Z</time>
      </trkpt>
      <trkpt lat="46.3475" lon="-0.48263">
        <ele>29.3</ele>
        <time>2020-05-31T12:16:30Z</time>
      </trkpt>
      <trkpt lat="46.34744" lon="-0.48265">
        <ele>29.3</ele>
        <time>2020-05-31T12:16:31Z</time>
      </trkpt>
      <trkpt lat="46.34738" lon="-0.48268">
        <ele>29.1</ele>
        <time>2020-05-31T12:16:32Z</time>
      </trkpt>
      <trkpt lat="46.34733" lon="-0.48273">
        <ele>29</ele>
        <time>2020-05-31T12:16:33Z</time>
      </trkpt>
      <trkpt lat="46.34728" lon="-0.4828">
        <ele>29</ele>
        <time>2020-05-31T12:16:34Z</time>
      </trkpt>
      <trkpt lat="46.34723" lon="-0.48287">
        <ele>28.9</ele>
        <time>2020-05-31T12:16:35Z</time>
      </trkpt>
      <trkpt lat="46.34717" lon="-0.48293">
        <ele>28.9</ele>
        <time>2020-05-31T12:16:36Z</time>
      </trkpt>
      <trkpt lat="46.34711" lon="-0.48299">
        <ele>28.9</ele>
        <time>2020-05-31T12:16:37Z</time>
      </trkpt>
      <trkpt lat="46.34705" lon="-0.48304">
        <ele>28.9</ele>
        <time>2020-05-31T12:16:38Z</time>
      </trkpt>
      <trkpt lat="46.34699" lon="-0.48309">
        <ele>28.8</ele>
        <time>2020-05-31T12:16:39Z</time>
      </trkpt>
      <trkpt lat="46.34692" lon="-0.48313">
        <ele>28.8</ele>
        <time>2020-05-31T12:16:40Z</time>
      </trkpt>
      <trkpt lat="46.34685" lon="-0.48317">
        <ele>28.7</ele>
        <time>2020-05-31T12:16:41Z</time>
      </trkpt>
      <trkpt lat="46.34678" lon="-0.4832">
        <ele>28.7</ele>
        <time>2020-05-31T12:16:42Z</time>
      </trkpt>
      <trkpt lat="46.34671" lon="-0.48324">
        <ele>28.6</ele>
        <time>2020-05-31T12:16:43Z</time>
      </trkpt>
      <trkpt lat="46.34664" lon="-0.48328">
        <ele>28.6</ele>
        <time>2020-05-31T12:16:44Z</time>
      </trkpt>
      <trkpt lat="46.34658" lon="-0.48332">
        <ele>28.5</ele>
        <time>2020-05-31T12:16:45Z</time>
      </trkpt>
      <trkpt lat="46.34651" lon="-0.48336">
        <ele>28.5</ele>
        <time>2020-05-31T12:16:46Z</time>
      </trkpt>
      <trkpt lat="46.34644" lon="-0.48341">
        <ele>28.5</ele>
        <time>2020-05-31T12:16:47Z</time>
      </trkpt>
      <trkpt lat="46.34638" lon="-0.48345">
        <ele>28.5</ele>
        <time>2020-05-31T12:16:48Z</time>
      </trkpt>
      <trkpt lat="46.34631" lon="-0.48349">
        <ele>28.5</ele>
        <time>2020-05-31T12:16:49Z</time>
      </trkpt>
      <trkpt lat="46.34625" lon="-0.48353">
        <ele>28.5</ele>
        <time>2020-05-31T12:16:50Z</time>
      </trkpt>
      <trkpt lat="46.34619" lon="-0.48358">
        <ele>28.5</ele>
        <time>2020-05-31T12:16:51Z</time>
      </trkpt>
      <trkpt lat="46.34612" lon="-0.48362">
        <ele>28.5</ele>
        <time>2020-05-31T12:16:52Z</time>
      </trkpt>
      <trkpt lat="46.34606" lon="-0.48366">
        <ele>28.5</ele>
        <time>2020-05-31T12:16:53Z</time>
      </trkpt>
      <trkpt lat="46.346" lon="-0.48371">
        <ele>28.5</ele>
        <time>2020-05-31T12:16:54Z</time>
      </trkpt>
      <trkpt lat="46.34594" lon="-0.48376">
        <ele>28.6</ele>
        <time>2020-05-31T12:16:55Z</time>
      </trkpt>
      <trkpt lat="46.34588" lon="-0.48382">
        <ele>28.6</ele>
        <time>2020-05-31T12:16:56Z</time>
      </trkpt>
      <trkpt lat="46.34582" lon="-0.48388">
        <ele>28.7</ele>
        <time>2020-05-31T12:16:57Z</time>
      </trkpt>
      <trkpt lat="46.34576" lon="-0.48393">
        <ele>28.7</ele>
        <time>2020-05-31T12:16:58Z</time>
      </trkpt>
      <trkpt lat="46.34569" lon="-0.48399">
        <ele>28.8</ele>
        <time>2020-05-31T12:16:59Z</time>
      </trkpt>
      <trkpt lat="46.34562" lon="-0.48404">
        <ele>28.9</ele>
        <time>2020-05-31T12:17:00Z</time>
      </trkpt>
      <trkpt lat="46.34556" lon="-0.48409">
        <ele>28.9</ele>
        <time>2020-05-31T12:17:01Z</time>
      </trkpt>
      <trkpt lat="46.34551" lon="-0.48413">
        <ele>28.9</ele>
        <time>2020-05-31T12:17:02Z</time>
      </trkpt>
      <trkpt lat="46.34546" lon="-0.48417">
        <ele>28.9</ele>
        <time>2020-05-31T12:17:03Z</time>
      </trkpt>
      <trkpt lat="46.34541" lon="-0.48422">
        <ele>29</ele>
        <time>2020-05-31T12:17:04Z</time>
      </trkpt>
      <trkpt lat="46.34536" lon="-0.48426">
        <ele>29</ele>
        <time>2020-05-31T12:17:05Z</time>
      </trkpt>
      <trkpt lat="46.34531" lon="-0.48429">
        <ele>29</ele>
        <time>2020-05-31T12:17:06Z</time>
      </trkpt>
      <trkpt lat="46.34526" lon="-0.48432">
        <ele>29</ele>
        <time>2020-05-31T12:17:07Z</time>
      </trkpt>
      <trkpt lat="46.34522" lon="-0.48436">
        <ele>29</ele>
        <time>2020-05-31T12:17:08Z</time>
      </trkpt>
      <trkpt lat="46.34517" lon="-0.4844">
        <ele>29</ele>
        <time>2020-05-31T12:17:09Z</time>
      </trkpt>
      <trkpt lat="46.34513" lon="-0.48444">
        <ele>29.1</ele>
        <time>2020-05-31T12:17:10Z</time>
      </trkpt>
      <trkpt lat="46.34509" lon="-0.48448">
        <ele>29.3</ele>
        <time>2020-05-31T12:17:11Z</time>
      </trkpt>
      <trkpt lat="46.34504" lon="-0.48452">
        <ele>29.4</ele>
        <time>2020-05-31T12:17:12Z</time>
      </trkpt>
      <trkpt lat="46.34501" lon="-0.48457">
        <ele>29.5</ele>
        <time>2020-05-31T12:17:13Z</time>
      </trkpt>
      <trkpt lat="46.34496" lon="-0.48461">
        <ele>29.6</ele>
        <time>2020-05-31T12:17:14Z</time>
      </trkpt>
      <trkpt lat="46.34492" lon="-0.48466">
        <ele>29.8</ele>
        <time>2020-05-31T12:17:15Z</time>
      </trkpt>
      <trkpt lat="46.34487" lon="-0.4847">
        <ele>30</ele>
        <time>2020-05-31T12:17:16Z</time>
      </trkpt>
      <trkpt lat="46.34482" lon="-0.48474">
        <ele>30.1</ele>
        <time>2020-05-31T12:17:17Z</time>
      </trkpt>
      <trkpt lat="46.34478" lon="-0.48478">
        <ele>30.2</ele>
        <time>2020-05-31T12:17:18Z</time>
      </trkpt>
      <trkpt lat="46.34474" lon="-0.48482">
        <ele>30.4</ele>
        <time>2020-05-31T12:17:19Z</time>
      </trkpt>
      <trkpt lat="46.3447" lon="-0.48486">
        <ele>30.5</ele>
        <time>2020-05-31T12:17:20Z</time>
      </trkpt>
      <trkpt lat="46.34466" lon="-0.4849">
        <ele>30.7</ele>
        <time>2020-05-31T12:17:21Z</time>
      </trkpt>
      <trkpt lat="46.34461" lon="-0.48494">
        <ele>30.8</ele>
        <time>2020-05-31T12:17:22Z</time>
      </trkpt>
      <trkpt lat="46.34457" lon="-0.48499">
        <ele>31</ele>
        <time>2020-05-31T12:17:23Z</time>
      </trkpt>
      <trkpt lat="46.34453" lon="-0.48502">
        <ele>31.2</ele>
        <time>2020-05-31T12:17:24Z</time>
      </trkpt>
      <trkpt lat="46.34448" lon="-0.48506">
        <ele>31.4</ele>
        <time>2020-05-31T12:17:25Z</time>
      </trkpt>
      <trkpt lat="46.34444" lon="-0.4851">
        <ele>31.6</ele>
        <time>2020-05-31T12:17:26Z</time>
      </trkpt>
      <trkpt lat="46.3444" lon="-0.48513">
        <ele>31.8</ele>
        <time>2020-05-31T12:17:27Z</time>
      </trkpt>
      <trkpt lat="46.34436" lon="-0.48517">
        <ele>32</ele>
        <time>2020-05-31T12:17:28Z</time>
      </trkpt>
      <trkpt lat="46.34432" lon="-0.48521">
        <ele>32.1</ele>
        <time>2020-05-31T12:17:29Z</time>
      </trkpt>
      <trkpt lat="46.34429" lon="-0.48526">
        <ele>32.3</ele>
        <time>2020-05-31T12:17:30Z</time>
      </trkpt>
      <trkpt lat="46.34425" lon="-0.48531">
        <ele>32.5</ele>
        <time>2020-05-31T12:17:31Z</time>
      </trkpt>
      <trkpt lat="46.34421" lon="-0.48534">
        <ele>32.6</ele>
        <time>2020-05-31T12:17:32Z</time>
      </trkpt>
      <trkpt lat="46.34417" lon="-0.48537">
        <ele>32.7</ele>
        <time>2020-05-31T12:17:33Z</time>
      </trkpt>
      <trkpt lat="46.34412" lon="-0.48541">
        <ele>32.8</ele>
        <time>2020-05-31T12:17:34Z</time>
      </trkpt>
      <trkpt lat="46.34408" lon="-0.48545">
        <ele>32.9</ele>
        <time>2020-05-31T12:17:35Z</time>
      </trkpt>
      <trkpt lat="46.34404" lon="-0.48549">
        <ele>33</ele>
        <time>2020-05-31T12:17:36Z</time>
      </trkpt>
      <trkpt lat="46.34401" lon="-0.48555">
        <ele>33</ele>
        <time>2020-05-31T12:17:37Z</time>
      </trkpt>
      <trkpt lat="46.34396" lon="-0.4856">
        <ele>33.3</ele>
        <time>2020-05-31T12:17:38Z</time>
      </trkpt>
      <trkpt lat="46.34392" lon="-0.48563">
        <ele>33.4</ele>
        <time>2020-05-31T12:17:39Z</time>
      </trkpt>
      <trkpt lat="46.34388" lon="-0.48566">
        <ele>33.6</ele>
        <time>2020-05-31T12:17:40Z</time>
      </trkpt>
      <trkpt lat="46.34384" lon="-0.4857">
        <ele>33.7</ele>
        <time>2020-05-31T12:17:41Z</time>
      </trkpt>
      <trkpt lat="46.34381" lon="-0.48574">
        <ele>33.8</ele>
        <time>2020-05-31T12:17:42Z</time>
      </trkpt>
      <trkpt lat="46.34377" lon="-0.48576">
        <ele>34</ele>
        <time>2020-05-31T12:17:43Z</time>
      </trkpt>
      <trkpt lat="46.34373" lon="-0.4858">
        <ele>34.1</ele>
        <time>2020-05-31T12:17:44Z</time>
      </trkpt>
      <trkpt lat="46.34369" lon="-0.48583">
        <ele>34.2</ele>
        <time>2020-05-31T12:17:45Z</time>
      </trkpt>
      <trkpt lat="46.34366" lon="-0.48587">
        <ele>34.4</ele>
        <time>2020-05-31T12:17:46Z</time>
      </trkpt>
      <trkpt lat="46.34362" lon="-0.48592">
        <ele>34.6</ele>
        <time>2020-05-31T12:17:47Z</time>
      </trkpt>
      <trkpt lat="46.34358" lon="-0.48596">
        <ele>34.7</ele>
        <time>2020-05-31T12:17:48Z</time>
      </trkpt>
      <trkpt lat="46.34354" lon="-0.486">
        <ele>34.9</ele>
        <time>2020-05-31T12:17:49Z</time>
      </trkpt>
      <trkpt lat="46.3435" lon="-0.48604">
        <ele>35</ele>
        <time>2020-05-31T12:17:50Z</time>
      </trkpt>
      <trkpt lat="46.34346" lon="-0.48607">
        <ele>35.2</ele>
        <time>2020-05-31T12:17:51Z</time>
      </trkpt>
      <trkpt lat="46.34342" lon="-0.48611">
        <ele>35.3</ele>
        <time>2020-05-31T12:17:52Z</time>
      </trkpt>
      <trkpt lat="46.34338" lon="-0.48614">
        <ele>35.4</ele>
        <time>2020-05-31T12:17:53Z</time>
      </trkpt>
      <trkpt lat="46.34335" lon="-0.48617">
        <ele>35.6</ele>
        <time>2020-05-31T12:17:54Z</time>
      </trkpt>
      <trkpt lat="46.34331" lon="-0.4862">
        <ele>35.7</ele>
        <time>2020-05-31T12:17:55Z</time>
      </trkpt>
      <trkpt lat="46.34327" lon="-0.48624">
        <ele>35.9</ele>
        <time>2020-05-31T12:17:56Z</time>
      </trkpt>
      <trkpt lat="46.34323" lon="-0.48628">
        <ele>36</ele>
        <time>2020-05-31T12:17:57Z</time>
      </trkpt>
      <trkpt lat="46.3432" lon="-0.48632">
        <ele>36.2</ele>
        <time>2020-05-31T12:17:58Z</time>
      </trkpt>
      <trkpt lat="46.34315" lon="-0.48635">
        <ele>36.3</ele>
        <time>2020-05-31T12:17:59Z</time>
      </trkpt>
      <trkpt lat="46.3431" lon="-0.48638">
        <ele>36.5</ele>
        <time>2020-05-31T12:18:00Z</time>
      </trkpt>
      <trkpt lat="46.34306" lon="-0.48641">
        <ele>36.6</ele>
        <time>2020-05-31T12:18:01Z</time>
      </trkpt>
      <trkpt lat="46.34302" lon="-0.48645">
        <ele>36.8</ele>
        <time>2020-05-31T12:18:02Z</time>
      </trkpt>
      <trkpt lat="46.34298" lon="-0.4865">
        <ele>36.9</ele>
        <time>2020-05-31T12:18:03Z</time>
      </trkpt>
      <trkpt lat="46.34295" lon="-0.48656">
        <ele>37</ele>
        <time>2020-05-31T12:18:04Z</time>
      </trkpt>
      <trkpt lat="46.34291" lon="-0.48662">
        <ele>37.1</ele>
        <time>2020-05-31T12:18:05Z</time>
      </trkpt>
      <trkpt lat="46.34288" lon="-0.48667">
        <ele>37.2</ele>
        <time>2020-05-31T12:18:06Z</time>
      </trkpt>
      <trkpt lat="46.34284" lon="-0.48672">
        <ele>37.2</ele>
        <time>2020-05-31T12:18:07Z</time>
      </trkpt>
      <trkpt lat="46.34281" lon="-0.48678">
        <ele>37.2</ele>
        <time>2020-05-31T12:18:08Z</time>
      </trkpt>
      <trkpt lat="46.34277" lon="-0.48682">
        <ele>37.2</ele>
        <time>2020-05-31T12:18:09Z</time>
      </trkpt>
      <trkpt lat="46.34273" lon="-0.48687">
        <ele>37.1</ele>
        <time>2020-05-31T12:18:10Z</time>
      </trkpt>
      <trkpt lat="46.34269" lon="-0.48692">
        <ele>37.1</ele>
        <time>2020-05-31T12:18:11Z</time>
      </trkpt>
      <trkpt lat="46.34266" lon="-0.48697">
        <ele>37.1</ele>
        <time>2020-05-31T12:18:12Z</time>
      </trkpt>
      <trkpt lat="46.34262" lon="-0.48701">
        <ele>37</ele>
        <time>2020-05-31T12:18:13Z</time>
      </trkpt>
      <trkpt lat="46.34258" lon="-0.48705">
        <ele>37.2</ele>
        <time>2020-05-31T12:18:14Z</time>
      </trkpt>
      <trkpt lat="46.34254" lon="-0.48709">
        <ele>37.3</ele>
        <time>2020-05-31T12:18:15Z</time>
      </trkpt>
      <trkpt lat="46.3425" lon="-0.48712">
        <ele>37.4</ele>
        <time>2020-05-31T12:18:16Z</time>
      </trkpt>
      <trkpt lat="46.34247" lon="-0.48717">
        <ele>37.5</ele>
        <time>2020-05-31T12:18:17Z</time>
      </trkpt>
      <trkpt lat="46.34244" lon="-0.48721">
        <ele>37.6</ele>
        <time>2020-05-31T12:18:18Z</time>
      </trkpt>
      <trkpt lat="46.34241" lon="-0.48726">
        <ele>37.7</ele>
        <time>2020-05-31T12:18:19Z</time>
      </trkpt>
      <trkpt lat="46.34237" lon="-0.48731">
        <ele>37.8</ele>
        <time>2020-05-31T12:18:20Z</time>
      </trkpt>
      <trkpt lat="46.34234" lon="-0.48736">
        <ele>37.9</ele>
        <time>2020-05-31T12:18:21Z</time>
      </trkpt>
      <trkpt lat="46.3423" lon="-0.48741">
        <ele>38</ele>
        <time>2020-05-31T12:18:22Z</time>
      </trkpt>
      <trkpt lat="46.34227" lon="-0.48746">
        <ele>38</ele>
        <time>2020-05-31T12:18:23Z</time>
      </trkpt>
      <trkpt lat="46.34223" lon="-0.4875">
        <ele>38.1</ele>
        <time>2020-05-31T12:18:24Z</time>
      </trkpt>
      <trkpt lat="46.34221" lon="-0.48756">
        <ele>38.1</ele>
        <time>2020-05-31T12:18:25Z</time>
      </trkpt>
      <trkpt lat="46.34217" lon="-0.48761">
        <ele>38.1</ele>
        <time>2020-05-31T12:18:26Z</time>
      </trkpt>
      <trkpt lat="46.34214" lon="-0.48767">
        <ele>38.1</ele>
        <time>2020-05-31T12:18:27Z</time>
      </trkpt>
      <trkpt lat="46.3421" lon="-0.48772">
        <ele>38.1</ele>
        <time>2020-05-31T12:18:28Z</time>
      </trkpt>
      <trkpt lat="46.34207" lon="-0.48778">
        <ele>38.1</ele>
        <time>2020-05-31T12:18:29Z</time>
      </trkpt>
      <trkpt lat="46.34203" lon="-0.48783">
        <ele>38.1</ele>
        <time>2020-05-31T12:18:30Z</time>
      </trkpt>
      <trkpt lat="46.34199" lon="-0.48789">
        <ele>38.1</ele>
        <time>2020-05-31T12:18:31Z</time>
      </trkpt>
      <trkpt lat="46.34195" lon="-0.48794">
        <ele>38.1</ele>
        <time>2020-05-31T12:18:32Z</time>
      </trkpt>
      <trkpt lat="46.34191" lon="-0.48799">
        <ele>38</ele>
        <time>2020-05-31T12:18:33Z</time>
      </trkpt>
      <trkpt lat="46.34187" lon="-0.48805">
        <ele>38</ele>
        <time>2020-05-31T12:18:34Z</time>
      </trkpt>
      <trkpt lat="46.34184" lon="-0.48812">
        <ele>38</ele>
        <time>2020-05-31T12:18:35Z</time>
      </trkpt>
      <trkpt lat="46.3418" lon="-0.48818">
        <ele>38</ele>
        <time>2020-05-31T12:18:36Z</time>
      </trkpt>
      <trkpt lat="46.34176" lon="-0.48823">
        <ele>38</ele>
        <time>2020-05-31T12:18:37Z</time>
      </trkpt>
      <trkpt lat="46.34171" lon="-0.48828">
        <ele>38</ele>
        <time>2020-05-31T12:18:38Z</time>
      </trkpt>
      <trkpt lat="46.34167" lon="-0.48834">
        <ele>38</ele>
        <time>2020-05-31T12:18:39Z</time>
      </trkpt>
      <trkpt lat="46.34162" lon="-0.48839">
        <ele>37.9</ele>
        <time>2020-05-31T12:18:40Z</time>
      </trkpt>
      <trkpt lat="46.3416" lon="-0.48847">
        <ele>37.9</ele>
        <time>2020-05-31T12:18:41Z</time>
      </trkpt>
      <trkpt lat="46.34156" lon="-0.48853">
        <ele>37.8</ele>
        <time>2020-05-31T12:18:42Z</time>
      </trkpt>
      <trkpt lat="46.34151" lon="-0.48858">
        <ele>37.7</ele>
        <time>2020-05-31T12:18:43Z</time>
      </trkpt>
      <trkpt lat="46.34147" lon="-0.48863">
        <ele>37.7</ele>
        <time>2020-05-31T12:18:44Z</time>
      </trkpt>
      <trkpt lat="46.34142" lon="-0.48868">
        <ele>37.6</ele>
        <time>2020-05-31T12:18:45Z</time>
      </trkpt>
      <trkpt lat="46.34137" lon="-0.48872">
        <ele>37.5</ele>
        <time>2020-05-31T12:18:46Z</time>
      </trkpt>
      <trkpt lat="46.34133" lon="-0.48879">
        <ele>37.4</ele>
        <time>2020-05-31T12:18:47Z</time>
      </trkpt>
      <trkpt lat="46.34128" lon="-0.48883">
        <ele>37.4</ele>
        <time>2020-05-31T12:18:48Z</time>
      </trkpt>
      <trkpt lat="46.34124" lon="-0.48888">
        <ele>37.4</ele>
        <time>2020-05-31T12:18:49Z</time>
      </trkpt>
      <trkpt lat="46.3412" lon="-0.48891">
        <ele>37.4</ele>
        <time>2020-05-31T12:18:50Z</time>
      </trkpt>
      <trkpt lat="46.34116" lon="-0.48894">
        <ele>37.4</ele>
        <time>2020-05-31T12:18:51Z</time>
      </trkpt>
      <trkpt lat="46.34113" lon="-0.48898">
        <ele>37.4</ele>
        <time>2020-05-31T12:18:52Z</time>
      </trkpt>
      <trkpt lat="46.34109" lon="-0.48901">
        <ele>37.4</ele>
        <time>2020-05-31T12:18:53Z</time>
      </trkpt>
      <trkpt lat="46.34107" lon="-0.48905">
        <ele>37.4</ele>
        <time>2020-05-31T12:18:54Z</time>
      </trkpt>
      <trkpt lat="46.34104" lon="-0.48907">
        <ele>37.4</ele>
        <time>2020-05-31T12:18:55Z</time>
      </trkpt>
      <trkpt lat="46.34101" lon="-0.48909">
        <ele>37.4</ele>
        <time>2020-05-31T12:18:56Z</time>
      </trkpt>
      <trkpt lat="46.34099" lon="-0.48912">
        <ele>37.4</ele>
        <time>2020-05-31T12:18:57Z</time>
      </trkpt>
      <trkpt lat="46.34096" lon="-0.48915">
        <ele>37.4</ele>
        <time>2020-05-31T12:18:58Z</time>
      </trkpt>
      <trkpt lat="46.34093" lon="-0.48916">
        <ele>37.4</ele>
        <time>2020-05-31T12:18:59Z</time>
      </trkpt>
      <trkpt lat="46.34091" lon="-0.48918">
        <ele>37.3</ele>
        <time>2020-05-31T12:19:00Z</time>
      </trkpt>
      <trkpt lat="46.34087" lon="-0.4892">
        <ele>37.3</ele>
        <time>2020-05-31T12:19:01Z</time>
      </trkpt>
      <trkpt lat="46.34084" lon="-0.48922">
        <ele>37.2</ele>
        <time>2020-05-31T12:19:02Z</time>
      </trkpt>
      <trkpt lat="46.34079" lon="-0.48924">
        <ele>37.1</ele>
        <time>2020-05-31T12:19:03Z</time>
      </trkpt>
      <trkpt lat="46.34074" lon="-0.48926">
        <ele>37.1</ele>
        <time>2020-05-31T12:19:04Z</time>
      </trkpt>
      <trkpt lat="46.34069" lon="-0.48928">
        <ele>37</ele>
        <time>2020-05-31T12:19:05Z</time>
      </trkpt>
      <trkpt lat="46.34064" lon="-0.48932">
        <ele>36.8</ele>
        <time>2020-05-31T12:19:06Z</time>
      </trkpt>
      <trkpt lat="46.34058" lon="-0.48937">
        <ele>36.7</ele>
        <time>2020-05-31T12:19:07Z</time>
      </trkpt>
      <trkpt lat="46.34053" lon="-0.48941">
        <ele>36.5</ele>
        <time>2020-05-31T12:19:08Z</time>
      </trkpt>
      <trkpt lat="46.34048" lon="-0.48947">
        <ele>36.3</ele>
        <time>2020-05-31T12:19:09Z</time>
      </trkpt>
      <trkpt lat="46.34042" lon="-0.48951">
        <ele>36.2</ele>
        <time>2020-05-31T12:19:10Z</time>
      </trkpt>
      <trkpt lat="46.34036" lon="-0.48957">
        <ele>36</ele>
        <time>2020-05-31T12:19:11Z</time>
      </trkpt>
      <trkpt lat="46.3403" lon="-0.48962">
        <ele>35.9</ele>
        <time>2020-05-31T12:19:12Z</time>
      </trkpt>
      <trkpt lat="46.34024" lon="-0.48967">
        <ele>35.7</ele>
        <time>2020-05-31T12:19:13Z</time>
      </trkpt>
      <trkpt lat="46.34017" lon="-0.48973">
        <ele>35.6</ele>
        <time>2020-05-31T12:19:14Z</time>
      </trkpt>
      <trkpt lat="46.34011" lon="-0.48977">
        <ele>35.5</ele>
        <time>2020-05-31T12:19:15Z</time>
      </trkpt>
      <trkpt lat="46.34004" lon="-0.48982">
        <ele>35.4</ele>
        <time>2020-05-31T12:19:16Z</time>
      </trkpt>
      <trkpt lat="46.33997" lon="-0.48987">
        <ele>35.3</ele>
        <time>2020-05-31T12:19:17Z</time>
      </trkpt>
      <trkpt lat="46.3399" lon="-0.48991">
        <ele>35.1</ele>
        <time>2020-05-31T12:19:18Z</time>
      </trkpt>
      <trkpt lat="46.33984" lon="-0.48997">
        <ele>34.8</ele>
        <time>2020-05-31T12:19:19Z</time>
      </trkpt>
      <trkpt lat="46.33977" lon="-0.49003">
        <ele>34.4</ele>
        <time>2020-05-31T12:19:20Z</time>
      </trkpt>
      <trkpt lat="46.33969" lon="-0.49008">
        <ele>33.9</ele>
        <time>2020-05-31T12:19:21Z</time>
      </trkpt>
      <trkpt lat="46.33962" lon="-0.49014">
        <ele>33.4</ele>
        <time>2020-05-31T12:19:22Z</time>
      </trkpt>
      <trkpt lat="46.33955" lon="-0.49018">
        <ele>33</ele>
        <time>2020-05-31T12:19:23Z</time>
      </trkpt>
      <trkpt lat="46.33948" lon="-0.49024">
        <ele>32.5</ele>
        <time>2020-05-31T12:19:24Z</time>
      </trkpt>
      <trkpt lat="46.3394" lon="-0.49028">
        <ele>32.1</ele>
        <time>2020-05-31T12:19:25Z</time>
      </trkpt>
      <trkpt lat="46.33933" lon="-0.49034">
        <ele>31.6</ele>
        <time>2020-05-31T12:19:26Z</time>
      </trkpt>
      <trkpt lat="46.33925" lon="-0.4904">
        <ele>31.2</ele>
        <time>2020-05-31T12:19:27Z</time>
      </trkpt>
      <trkpt lat="46.33917" lon="-0.49045">
        <ele>31</ele>
        <time>2020-05-31T12:19:28Z</time>
      </trkpt>
      <trkpt lat="46.3391" lon="-0.49051">
        <ele>30.7</ele>
        <time>2020-05-31T12:19:29Z</time>
      </trkpt>
      <trkpt lat="46.33902" lon="-0.49057">
        <ele>30.5</ele>
        <time>2020-05-31T12:19:30Z</time>
      </trkpt>
      <trkpt lat="46.33894" lon="-0.49064">
        <ele>30.2</ele>
        <time>2020-05-31T12:19:31Z</time>
      </trkpt>
      <trkpt lat="46.33887" lon="-0.4907">
        <ele>29.9</ele>
        <time>2020-05-31T12:19:32Z</time>
      </trkpt>
      <trkpt lat="46.33879" lon="-0.49078">
        <ele>29.6</ele>
        <time>2020-05-31T12:19:33Z</time>
      </trkpt>
      <trkpt lat="46.33872" lon="-0.49085">
        <ele>29.3</ele>
        <time>2020-05-31T12:19:34Z</time>
      </trkpt>
      <trkpt lat="46.33863" lon="-0.49091">
        <ele>29</ele>
        <time>2020-05-31T12:19:35Z</time>
      </trkpt>
      <trkpt lat="46.33855" lon="-0.49096">
        <ele>28.8</ele>
        <time>2020-05-31T12:19:36Z</time>
      </trkpt>
      <trkpt lat="46.33847" lon="-0.491">
        <ele>28.6</ele>
        <time>2020-05-31T12:19:37Z</time>
      </trkpt>
      <trkpt lat="46.33838" lon="-0.49104">
        <ele>28.4</ele>
        <time>2020-05-31T12:19:38Z</time>
      </trkpt>
      <trkpt lat="46.3383" lon="-0.49103">
        <ele>28.2</ele>
        <time>2020-05-31T12:19:39Z</time>
      </trkpt>
      <trkpt lat="46.33821" lon="-0.491">
        <ele>28.1</ele>
        <time>2020-05-31T12:19:40Z</time>
      </trkpt>
      <trkpt lat="46.33814" lon="-0.49093">
        <ele>28</ele>
        <time>2020-05-31T12:19:41Z</time>
      </trkpt>
      <trkpt lat="46.33807" lon="-0.49088">
        <ele>28</ele>
        <time>2020-05-31T12:19:42Z</time>
      </trkpt>
      <trkpt lat="46.33801" lon="-0.49081">
        <ele>28</ele>
        <time>2020-05-31T12:19:43Z</time>
      </trkpt>
      <trkpt lat="46.33794" lon="-0.49077">
        <ele>28</ele>
        <time>2020-05-31T12:19:44Z</time>
      </trkpt>
      <trkpt lat="46.33789" lon="-0.49073">
        <ele>28</ele>
        <time>2020-05-31T12:19:45Z</time>
      </trkpt>
      <trkpt lat="46.33784" lon="-0.4907">
        <ele>28</ele>
        <time>2020-05-31T12:19:46Z</time>
      </trkpt>
      <trkpt lat="46.3378" lon="-0.49069">
        <ele>28</ele>
        <time>2020-05-31T12:19:47Z</time>
      </trkpt>
      <trkpt lat="46.33776" lon="-0.49069">
        <ele>28</ele>
        <time>2020-05-31T12:19:48Z</time>
      </trkpt>
      <trkpt lat="46.33775" lon="-0.49071">
        <ele>28</ele>
        <time>2020-05-31T12:19:49Z</time>
      </trkpt>
      <trkpt lat="46.33773" lon="-0.49072">
        <ele>27.9</ele>
        <time>2020-05-31T12:19:50Z</time>
      </trkpt>
      <trkpt lat="46.33772" lon="-0.49074">
        <ele>27.9</ele>
        <time>2020-05-31T12:19:51Z</time>
      </trkpt>
      <trkpt lat="46.33771" lon="-0.49076">
        <ele>27.8</ele>
        <time>2020-05-31T12:19:52Z</time>
      </trkpt>
      <trkpt lat="46.3377" lon="-0.4908">
        <ele>27.7</ele>
        <time>2020-05-31T12:19:53Z</time>
      </trkpt>
      <trkpt lat="46.3377" lon="-0.49081">
        <ele>27.7</ele>
        <time>2020-05-31T12:19:54Z</time>
      </trkpt>
      <trkpt lat="46.33769" lon="-0.49085">
        <ele>27.6</ele>
        <time>2020-05-31T12:19:55Z</time>
      </trkpt>
      <trkpt lat="46.33767" lon="-0.49089">
        <ele>27.4</ele>
        <time>2020-05-31T12:19:56Z</time>
      </trkpt>
      <trkpt lat="46.33765" lon="-0.49094">
        <ele>27.2</ele>
        <time>2020-05-31T12:19:57Z</time>
      </trkpt>
      <trkpt lat="46.33764" lon="-0.491">
        <ele>26.9</ele>
        <time>2020-05-31T12:19:58Z</time>
      </trkpt>
      <trkpt lat="46.33762" lon="-0.49106">
        <ele>26.5</ele>
        <time>2020-05-31T12:19:59Z</time>
      </trkpt>
      <trkpt lat="46.33759" lon="-0.49113">
        <ele>26.1</ele>
        <time>2020-05-31T12:20:00Z</time>
      </trkpt>
      <trkpt lat="46.33757" lon="-0.49121">
        <ele>25.6</ele>
        <time>2020-05-31T12:20:01Z</time>
      </trkpt>
      <trkpt lat="46.33754" lon="-0.49129">
        <ele>25</ele>
        <time>2020-05-31T12:20:02Z</time>
      </trkpt>
      <trkpt lat="46.33751" lon="-0.49138">
        <ele>24.5</ele>
        <time>2020-05-31T12:20:03Z</time>
      </trkpt>
      <trkpt lat="46.33748" lon="-0.49147">
        <ele>23.9</ele>
        <time>2020-05-31T12:20:04Z</time>
      </trkpt>
      <trkpt lat="46.33745" lon="-0.49157">
        <ele>23.4</ele>
        <time>2020-05-31T12:20:05Z</time>
      </trkpt>
      <trkpt lat="46.33741" lon="-0.49168">
        <ele>22.8</ele>
        <time>2020-05-31T12:20:06Z</time>
      </trkpt>
      <trkpt lat="46.33737" lon="-0.49179">
        <ele>22.3</ele>
        <time>2020-05-31T12:20:07Z</time>
      </trkpt>
      <trkpt lat="46.33732" lon="-0.4919">
        <ele>21.8</ele>
        <time>2020-05-31T12:20:08Z</time>
      </trkpt>
      <trkpt lat="46.33728" lon="-0.49202">
        <ele>21.3</ele>
        <time>2020-05-31T12:20:09Z</time>
      </trkpt>
      <trkpt lat="46.33724" lon="-0.49213">
        <ele>20.8</ele>
        <time>2020-05-31T12:20:10Z</time>
      </trkpt>
      <trkpt lat="46.3372" lon="-0.49226">
        <ele>20.2</ele>
        <time>2020-05-31T12:20:11Z</time>
      </trkpt>
      <trkpt lat="46.33715" lon="-0.49239">
        <ele>19.6</ele>
        <time>2020-05-31T12:20:12Z</time>
      </trkpt>
      <trkpt lat="46.33711" lon="-0.49252">
        <ele>19.1</ele>
        <time>2020-05-31T12:20:13Z</time>
      </trkpt>
      <trkpt lat="46.33706" lon="-0.49266">
        <ele>18.6</ele>
        <time>2020-05-31T12:20:14Z</time>
      </trkpt>
      <trkpt lat="46.337" lon="-0.49279">
        <ele>18.2</ele>
        <time>2020-05-31T12:20:15Z</time>
      </trkpt>
      <trkpt lat="46.33694" lon="-0.49292">
        <ele>17.9</ele>
        <time>2020-05-31T12:20:16Z</time>
      </trkpt>
      <trkpt lat="46.33689" lon="-0.49306">
        <ele>17.7</ele>
        <time>2020-05-31T12:20:17Z</time>
      </trkpt>
      <trkpt lat="46.33686" lon="-0.4932">
        <ele>17.6</ele>
        <time>2020-05-31T12:20:18Z</time>
      </trkpt>
      <trkpt lat="46.33681" lon="-0.49334">
        <ele>17.5</ele>
        <time>2020-05-31T12:20:19Z</time>
      </trkpt>
      <trkpt lat="46.33677" lon="-0.49347">
        <ele>17.5</ele>
        <time>2020-05-31T12:20:20Z</time>
      </trkpt>
      <trkpt lat="46.33673" lon="-0.49359">
        <ele>17.5</ele>
        <time>2020-05-31T12:20:21Z</time>
      </trkpt>
      <trkpt lat="46.33668" lon="-0.49372">
        <ele>17.6</ele>
        <time>2020-05-31T12:20:22Z</time>
      </trkpt>
      <trkpt lat="46.33665" lon="-0.49385">
        <ele>17.7</ele>
        <time>2020-05-31T12:20:23Z</time>
      </trkpt>
      <trkpt lat="46.33663" lon="-0.49398">
        <ele>17.8</ele>
        <time>2020-05-31T12:20:24Z</time>
      </trkpt>
      <trkpt lat="46.33662" lon="-0.49411">
        <ele>18.1</ele>
        <time>2020-05-31T12:20:25Z</time>
      </trkpt>
      <trkpt lat="46.33662" lon="-0.49424">
        <ele>18.4</ele>
        <time>2020-05-31T12:20:26Z</time>
      </trkpt>
      <trkpt lat="46.33662" lon="-0.49437">
        <ele>18.7</ele>
        <time>2020-05-31T12:20:27Z</time>
      </trkpt>
      <trkpt lat="46.33662" lon="-0.4945">
        <ele>18.9</ele>
        <time>2020-05-31T12:20:28Z</time>
      </trkpt>
      <trkpt lat="46.33662" lon="-0.49462">
        <ele>19.2</ele>
        <time>2020-05-31T12:20:29Z</time>
      </trkpt>
      <trkpt lat="46.33663" lon="-0.49474">
        <ele>19.4</ele>
        <time>2020-05-31T12:20:30Z</time>
      </trkpt>
      <trkpt lat="46.33664" lon="-0.49487">
        <ele>19.7</ele>
        <time>2020-05-31T12:20:31Z</time>
      </trkpt>
      <trkpt lat="46.33665" lon="-0.49499">
        <ele>19.9</ele>
        <time>2020-05-31T12:20:32Z</time>
      </trkpt>
      <trkpt lat="46.33666" lon="-0.4951">
        <ele>20.1</ele>
        <time>2020-05-31T12:20:33Z</time>
      </trkpt>
      <trkpt lat="46.33667" lon="-0.49522">
        <ele>20.4</ele>
        <time>2020-05-31T12:20:34Z</time>
      </trkpt>
      <trkpt lat="46.33668" lon="-0.49533">
        <ele>20.6</ele>
        <time>2020-05-31T12:20:35Z</time>
      </trkpt>
      <trkpt lat="46.33669" lon="-0.49544">
        <ele>20.8</ele>
        <time>2020-05-31T12:20:36Z</time>
      </trkpt>
      <trkpt lat="46.3367" lon="-0.49556">
        <ele>21.1</ele>
        <time>2020-05-31T12:20:37Z</time>
      </trkpt>
      <trkpt lat="46.33672" lon="-0.49566">
        <ele>21.4</ele>
        <time>2020-05-31T12:20:38Z</time>
      </trkpt>
      <trkpt lat="46.33673" lon="-0.49576">
        <ele>21.6</ele>
        <time>2020-05-31T12:20:39Z</time>
      </trkpt>
      <trkpt lat="46.33674" lon="-0.49586">
        <ele>21.9</ele>
        <time>2020-05-31T12:20:40Z</time>
      </trkpt>
      <trkpt lat="46.33675" lon="-0.49596">
        <ele>22.3</ele>
        <time>2020-05-31T12:20:41Z</time>
      </trkpt>
      <trkpt lat="46.33676" lon="-0.49605">
        <ele>22.6</ele>
        <time>2020-05-31T12:20:42Z</time>
      </trkpt>
      <trkpt lat="46.33678" lon="-0.49613">
        <ele>23</ele>
        <time>2020-05-31T12:20:43Z</time>
      </trkpt>
      <trkpt lat="46.33679" lon="-0.49621">
        <ele>23.3</ele>
        <time>2020-05-31T12:20:44Z</time>
      </trkpt>
      <trkpt lat="46.33679" lon="-0.49629">
        <ele>23.6</ele>
        <time>2020-05-31T12:20:45Z</time>
      </trkpt>
      <trkpt lat="46.33679" lon="-0.49636">
        <ele>23.9</ele>
        <time>2020-05-31T12:20:46Z</time>
      </trkpt>
      <trkpt lat="46.33679" lon="-0.49643">
        <ele>24.2</ele>
        <time>2020-05-31T12:20:47Z</time>
      </trkpt>
      <trkpt lat="46.33679" lon="-0.49649">
        <ele>24.5</ele>
        <time>2020-05-31T12:20:48Z</time>
      </trkpt>
      <trkpt lat="46.33679" lon="-0.49656">
        <ele>24.8</ele>
        <time>2020-05-31T12:20:49Z</time>
      </trkpt>
      <trkpt lat="46.33679" lon="-0.49663">
        <ele>25.1</ele>
        <time>2020-05-31T12:20:50Z</time>
      </trkpt>
      <trkpt lat="46.33678" lon="-0.4967">
        <ele>25.4</ele>
        <time>2020-05-31T12:20:51Z</time>
      </trkpt>
      <trkpt lat="46.33677" lon="-0.49677">
        <ele>25.7</ele>
        <time>2020-05-31T12:20:52Z</time>
      </trkpt>
      <trkpt lat="46.33677" lon="-0.49684">
        <ele>26.1</ele>
        <time>2020-05-31T12:20:53Z</time>
      </trkpt>
      <trkpt lat="46.33675" lon="-0.4969">
        <ele>26.4</ele>
        <time>2020-05-31T12:20:54Z</time>
      </trkpt>
      <trkpt lat="46.33674" lon="-0.49696">
        <ele>26.7</ele>
        <time>2020-05-31T12:20:55Z</time>
      </trkpt>
      <trkpt lat="46.33673" lon="-0.49701">
        <ele>27</ele>
        <time>2020-05-31T12:20:56Z</time>
      </trkpt>
      <trkpt lat="46.33672" lon="-0.49706">
        <ele>27.3</ele>
        <time>2020-05-31T12:20:57Z</time>
      </trkpt>
      <trkpt lat="46.3367" lon="-0.49711">
        <ele>27.6</ele>
        <time>2020-05-31T12:20:58Z</time>
      </trkpt>
      <trkpt lat="46.33669" lon="-0.49715">
        <ele>27.9</ele>
        <time>2020-05-31T12:20:59Z</time>
      </trkpt>
      <trkpt lat="46.33669" lon="-0.49719">
        <ele>28.2</ele>
        <time>2020-05-31T12:21:00Z</time>
      </trkpt>
      <trkpt lat="46.33668" lon="-0.49724">
        <ele>28.4</ele>
        <time>2020-05-31T12:21:01Z</time>
      </trkpt>
      <trkpt lat="46.33668" lon="-0.49729">
        <ele>28.8</ele>
        <time>2020-05-31T12:21:02Z</time>
      </trkpt>
      <trkpt lat="46.33668" lon="-0.49731">
        <ele>28.9</ele>
        <time>2020-05-31T12:21:03Z</time>
      </trkpt>
      <trkpt lat="46.33668" lon="-0.49736">
        <ele>29.3</ele>
        <time>2020-05-31T12:21:04Z</time>
      </trkpt>
      <trkpt lat="46.33668" lon="-0.49738">
        <ele>29.4</ele>
        <time>2020-05-31T12:21:05Z</time>
      </trkpt>
      <trkpt lat="46.33667" lon="-0.49742">
        <ele>29.7</ele>
        <time>2020-05-31T12:21:06Z</time>
      </trkpt>
      <trkpt lat="46.33666" lon="-0.49746">
        <ele>29.9</ele>
        <time>2020-05-31T12:21:07Z</time>
      </trkpt>
      <trkpt lat="46.33666" lon="-0.49751">
        <ele>30.2</ele>
        <time>2020-05-31T12:21:08Z</time>
      </trkpt>
      <trkpt lat="46.33666" lon="-0.49755">
        <ele>30.5</ele>
        <time>2020-05-31T12:21:09Z</time>
      </trkpt>
      <trkpt lat="46.33666" lon="-0.49761">
        <ele>30.8</ele>
        <time>2020-05-31T12:21:10Z</time>
      </trkpt>
      <trkpt lat="46.33666" lon="-0.49763">
        <ele>30.9</ele>
        <time>2020-05-31T12:21:11Z</time>
      </trkpt>
      <trkpt lat="46.33666" lon="-0.49768">
        <ele>31.2</ele>
        <time>2020-05-31T12:21:12Z</time>
      </trkpt>
      <trkpt lat="46.33665" lon="-0.4977">
        <ele>31.3</ele>
        <time>2020-05-31T12:21:13Z</time>
      </trkpt>
      <trkpt lat="46.33665" lon="-0.49776">
        <ele>31.6</ele>
        <time>2020-05-31T12:21:14Z</time>
      </trkpt>
      <trkpt lat="46.33666" lon="-0.49778">
        <ele>31.7</ele>
        <time>2020-05-31T12:21:15Z</time>
      </trkpt>
      <trkpt lat="46.33666" lon="-0.49782">
        <ele>31.9</ele>
        <time>2020-05-31T12:21:16Z</time>
      </trkpt>
      <trkpt lat="46.33666" lon="-0.49788">
        <ele>32.2</ele>
        <time>2020-05-31T12:21:17Z</time>
      </trkpt>
      <trkpt lat="46.33666" lon="-0.49791">
        <ele>32.3</ele>
        <time>2020-05-31T12:21:18Z</time>
      </trkpt>
      <trkpt lat="46.33665" lon="-0.49797">
        <ele>32.6</ele>
        <time>2020-05-31T12:21:19Z</time>
      </trkpt>
      <trkpt lat="46.33664" lon="-0.49799">
        <ele>32.7</ele>
        <time>2020-05-31T12:21:20Z</time>
      </trkpt>
      <trkpt lat="46.33664" lon="-0.49805">
        <ele>33</ele>
        <time>2020-05-31T12:21:21Z</time>
      </trkpt>
      <trkpt lat="46.33664" lon="-0.49809">
        <ele>33.2</ele>
        <time>2020-05-31T12:21:22Z</time>
      </trkpt>
      <trkpt lat="46.33663" lon="-0.49814">
        <ele>33.3</ele>
        <time>2020-05-31T12:21:23Z</time>
      </trkpt>
      <trkpt lat="46.33661" lon="-0.49819">
        <ele>33.6</ele>
        <time>2020-05-31T12:21:24Z</time>
      </trkpt>
      <trkpt lat="46.33661" lon="-0.49822">
        <ele>33.7</ele>
        <time>2020-05-31T12:21:25Z</time>
      </trkpt>
      <trkpt lat="46.3366" lon="-0.49824">
        <ele>33.7</ele>
        <time>2020-05-31T12:21:26Z</time>
      </trkpt>
      <trkpt lat="46.33659" lon="-0.49829">
        <ele>33.9</ele>
        <time>2020-05-31T12:21:27Z</time>
      </trkpt>
      <trkpt lat="46.33658" lon="-0.49834">
        <ele>34</ele>
        <time>2020-05-31T12:21:28Z</time>
      </trkpt>
      <trkpt lat="46.33657" lon="-0.49839">
        <ele>34.1</ele>
        <time>2020-05-31T12:21:29Z</time>
      </trkpt>
      <trkpt lat="46.33656" lon="-0.49844">
        <ele>34.2</ele>
        <time>2020-05-31T12:21:30Z</time>
      </trkpt>
      <trkpt lat="46.33656" lon="-0.49848">
        <ele>34.3</ele>
        <time>2020-05-31T12:21:31Z</time>
      </trkpt>
      <trkpt lat="46.33654" lon="-0.49851">
        <ele>34.4</ele>
        <time>2020-05-31T12:21:32Z</time>
      </trkpt>
      <trkpt lat="46.33652" lon="-0.49855">
        <ele>34.5</ele>
        <time>2020-05-31T12:21:33Z</time>
      </trkpt>
      <trkpt lat="46.3365" lon="-0.49861">
        <ele>34.6</ele>
        <time>2020-05-31T12:21:34Z</time>
      </trkpt>
      <trkpt lat="46.33648" lon="-0.49868">
        <ele>34.6</ele>
        <time>2020-05-31T12:21:35Z</time>
      </trkpt>
      <trkpt lat="46.33646" lon="-0.49873">
        <ele>34.7</ele>
        <time>2020-05-31T12:21:36Z</time>
      </trkpt>
      <trkpt lat="46.33645" lon="-0.49879">
        <ele>34.7</ele>
        <time>2020-05-31T12:21:37Z</time>
      </trkpt>
      <trkpt lat="46.33642" lon="-0.49884">
        <ele>34.8</ele>
        <time>2020-05-31T12:21:38Z</time>
      </trkpt>
      <trkpt lat="46.3364" lon="-0.49887">
        <ele>34.8</ele>
        <time>2020-05-31T12:21:39Z</time>
      </trkpt>
      <trkpt lat="46.33638" lon="-0.49893">
        <ele>34.9</ele>
        <time>2020-05-31T12:21:40Z</time>
      </trkpt>
      <trkpt lat="46.33637" lon="-0.49896">
        <ele>34.9</ele>
        <time>2020-05-31T12:21:41Z</time>
      </trkpt>
      <trkpt lat="46.33636" lon="-0.49901">
        <ele>34.9</ele>
        <time>2020-05-31T12:21:42Z</time>
      </trkpt>
      <trkpt lat="46.33635" lon="-0.49903">
        <ele>35</ele>
        <time>2020-05-31T12:21:43Z</time>
      </trkpt>
      <trkpt lat="46.33635" lon="-0.49907">
        <ele>35</ele>
        <time>2020-05-31T12:21:44Z</time>
      </trkpt>
      <trkpt lat="46.33633" lon="-0.49914">
        <ele>35</ele>
        <time>2020-05-31T12:21:45Z</time>
      </trkpt>
      <trkpt lat="46.33632" lon="-0.49919">
        <ele>35.1</ele>
        <time>2020-05-31T12:21:46Z</time>
      </trkpt>
      <trkpt lat="46.3363" lon="-0.49923">
        <ele>35.1</ele>
        <time>2020-05-31T12:21:47Z</time>
      </trkpt>
      <trkpt lat="46.33628" lon="-0.49929">
        <ele>35.1</ele>
        <time>2020-05-31T12:21:48Z</time>
      </trkpt>
      <trkpt lat="46.33628" lon="-0.49934">
        <ele>35.1</ele>
        <time>2020-05-31T12:21:49Z</time>
      </trkpt>
      <trkpt lat="46.33627" lon="-0.49941">
        <ele>35.1</ele>
        <time>2020-05-31T12:21:50Z</time>
      </trkpt>
      <trkpt lat="46.33625" lon="-0.49948">
        <ele>35.1</ele>
        <time>2020-05-31T12:21:51Z</time>
      </trkpt>
      <trkpt lat="46.33624" lon="-0.49953">
        <ele>35.1</ele>
        <time>2020-05-31T12:21:52Z</time>
      </trkpt>
      <trkpt lat="46.33622" lon="-0.49958">
        <ele>35</ele>
        <time>2020-05-31T12:21:53Z</time>
      </trkpt>
      <trkpt lat="46.33621" lon="-0.49965">
        <ele>35</ele>
        <time>2020-05-31T12:21:54Z</time>
      </trkpt>
      <trkpt lat="46.3362" lon="-0.49969">
        <ele>35</ele>
        <time>2020-05-31T12:21:55Z</time>
      </trkpt>
      <trkpt lat="46.33618" lon="-0.49974">
        <ele>35</ele>
        <time>2020-05-31T12:21:56Z</time>
      </trkpt>
      <trkpt lat="46.33616" lon="-0.4998">
        <ele>34.9</ele>
        <time>2020-05-31T12:21:57Z</time>
      </trkpt>
      <trkpt lat="46.33614" lon="-0.49986">
        <ele>34.9</ele>
        <time>2020-05-31T12:21:58Z</time>
      </trkpt>
      <trkpt lat="46.33612" lon="-0.49993">
        <ele>34.9</ele>
        <time>2020-05-31T12:21:59Z</time>
      </trkpt>
      <trkpt lat="46.3361" lon="-0.50001">
        <ele>34.9</ele>
        <time>2020-05-31T12:22:00Z</time>
      </trkpt>
      <trkpt lat="46.33607" lon="-0.50009">
        <ele>34.8</ele>
        <time>2020-05-31T12:22:01Z</time>
      </trkpt>
      <trkpt lat="46.33604" lon="-0.50017">
        <ele>34.8</ele>
        <time>2020-05-31T12:22:02Z</time>
      </trkpt>
      <trkpt lat="46.33602" lon="-0.50025">
        <ele>34.8</ele>
        <time>2020-05-31T12:22:03Z</time>
      </trkpt>
      <trkpt lat="46.33599" lon="-0.50032">
        <ele>34.8</ele>
        <time>2020-05-31T12:22:04Z</time>
      </trkpt>
      <trkpt lat="46.33596" lon="-0.50039">
        <ele>34.8</ele>
        <time>2020-05-31T12:22:05Z</time>
      </trkpt>
      <trkpt lat="46.33594" lon="-0.50047">
        <ele>34.7</ele>
        <time>2020-05-31T12:22:06Z</time>
      </trkpt>
      <trkpt lat="46.33591" lon="-0.50054">
        <ele>34.7</ele>
        <time>2020-05-31T12:22:07Z</time>
      </trkpt>
      <trkpt lat="46.33588" lon="-0.50061">
        <ele>34.7</ele>
        <time>2020-05-31T12:22:08Z</time>
      </trkpt>
      <trkpt lat="46.33585" lon="-0.50068">
        <ele>34.7</ele>
        <time>2020-05-31T12:22:09Z</time>
      </trkpt>
      <trkpt lat="46.33582" lon="-0.50074">
        <ele>34.7</ele>
        <time>2020-05-31T12:22:10Z</time>
      </trkpt>
      <trkpt lat="46.33579" lon="-0.5008">
        <ele>34.7</ele>
        <time>2020-05-31T12:22:11Z</time>
      </trkpt>
      <trkpt lat="46.33578" lon="-0.50086">
        <ele>34.7</ele>
        <time>2020-05-31T12:22:12Z</time>
      </trkpt>
      <trkpt lat="46.33575" lon="-0.50093">
        <ele>34.8</ele>
        <time>2020-05-31T12:22:13Z</time>
      </trkpt>
      <trkpt lat="46.33572" lon="-0.501">
        <ele>34.8</ele>
        <time>2020-05-31T12:22:14Z</time>
      </trkpt>
      <trkpt lat="46.3357" lon="-0.50108">
        <ele>34.8</ele>
        <time>2020-05-31T12:22:15Z</time>
      </trkpt>
      <trkpt lat="46.33567" lon="-0.50116">
        <ele>34.8</ele>
        <time>2020-05-31T12:22:16Z</time>
      </trkpt>
      <trkpt lat="46.33565" lon="-0.50122">
        <ele>34.8</ele>
        <time>2020-05-31T12:22:17Z</time>
      </trkpt>
      <trkpt lat="46.33562" lon="-0.50128">
        <ele>34.8</ele>
        <time>2020-05-31T12:22:18Z</time>
      </trkpt>
      <trkpt lat="46.33561" lon="-0.50132">
        <ele>34.8</ele>
        <time>2020-05-31T12:22:19Z</time>
      </trkpt>
      <trkpt lat="46.33559" lon="-0.50137">
        <ele>34.8</ele>
        <time>2020-05-31T12:22:20Z</time>
      </trkpt>
      <trkpt lat="46.33557" lon="-0.50144">
        <ele>34.8</ele>
        <time>2020-05-31T12:22:21Z</time>
      </trkpt>
      <trkpt lat="46.33555" lon="-0.5015">
        <ele>34.8</ele>
        <time>2020-05-31T12:22:22Z</time>
      </trkpt>
      <trkpt lat="46.33553" lon="-0.50156">
        <ele>34.8</ele>
        <time>2020-05-31T12:22:23Z</time>
      </trkpt>
      <trkpt lat="46.3355" lon="-0.50161">
        <ele>34.8</ele>
        <time>2020-05-31T12:22:24Z</time>
      </trkpt>
      <trkpt lat="46.33548" lon="-0.50167">
        <ele>34.9</ele>
        <time>2020-05-31T12:22:25Z</time>
      </trkpt>
      <trkpt lat="46.33547" lon="-0.50172">
        <ele>34.9</ele>
        <time>2020-05-31T12:22:26Z</time>
      </trkpt>
      <trkpt lat="46.33545" lon="-0.50179">
        <ele>34.9</ele>
        <time>2020-05-31T12:22:27Z</time>
      </trkpt>
      <trkpt lat="46.33543" lon="-0.50184">
        <ele>34.9</ele>
        <time>2020-05-31T12:22:28Z</time>
      </trkpt>
      <trkpt lat="46.33541" lon="-0.50188">
        <ele>34.9</ele>
        <time>2020-05-31T12:22:29Z</time>
      </trkpt>
      <trkpt lat="46.3354" lon="-0.50193">
        <ele>34.9</ele>
        <time>2020-05-31T12:22:30Z</time>
      </trkpt>
      <trkpt lat="46.33539" lon="-0.50196">
        <ele>34.9</ele>
        <time>2020-05-31T12:22:31Z</time>
      </trkpt>
      <trkpt lat="46.33537" lon="-0.50202">
        <ele>34.9</ele>
        <time>2020-05-31T12:22:32Z</time>
      </trkpt>
      <trkpt lat="46.33535" lon="-0.50207">
        <ele>34.9</ele>
        <time>2020-05-31T12:22:33Z</time>
      </trkpt>
      <trkpt lat="46.33533" lon="-0.50212">
        <ele>34.9</ele>
        <time>2020-05-31T12:22:34Z</time>
      </trkpt>
      <trkpt lat="46.33531" lon="-0.50217">
        <ele>34.9</ele>
        <time>2020-05-31T12:22:35Z</time>
      </trkpt>
      <trkpt lat="46.3353" lon="-0.50222">
        <ele>34.9</ele>
        <time>2020-05-31T12:22:36Z</time>
      </trkpt>
      <trkpt lat="46.33528" lon="-0.50226">
        <ele>34.9</ele>
        <time>2020-05-31T12:22:37Z</time>
      </trkpt>
      <trkpt lat="46.33526" lon="-0.50231">
        <ele>34.9</ele>
        <time>2020-05-31T12:22:38Z</time>
      </trkpt>
      <trkpt lat="46.33524" lon="-0.50236">
        <ele>34.9</ele>
        <time>2020-05-31T12:22:39Z</time>
      </trkpt>
      <trkpt lat="46.33522" lon="-0.50241">
        <ele>34.9</ele>
        <time>2020-05-31T12:22:40Z</time>
      </trkpt>
      <trkpt lat="46.3352" lon="-0.50246">
        <ele>34.9</ele>
        <time>2020-05-31T12:22:41Z</time>
      </trkpt>
      <trkpt lat="46.33518" lon="-0.5025">
        <ele>34.9</ele>
        <time>2020-05-31T12:22:42Z</time>
      </trkpt>
      <trkpt lat="46.33516" lon="-0.50256">
        <ele>34.9</ele>
        <time>2020-05-31T12:22:43Z</time>
      </trkpt>
      <trkpt lat="46.33514" lon="-0.50259">
        <ele>34.9</ele>
        <time>2020-05-31T12:22:44Z</time>
      </trkpt>
      <trkpt lat="46.33511" lon="-0.50266">
        <ele>34.9</ele>
        <time>2020-05-31T12:22:45Z</time>
      </trkpt>
      <trkpt lat="46.3351" lon="-0.5027">
        <ele>34.9</ele>
        <time>2020-05-31T12:22:46Z</time>
      </trkpt>
      <trkpt lat="46.33508" lon="-0.50275">
        <ele>34.9</ele>
        <time>2020-05-31T12:22:47Z</time>
      </trkpt>
      <trkpt lat="46.33507" lon="-0.50279">
        <ele>34.9</ele>
        <time>2020-05-31T12:22:48Z</time>
      </trkpt>
      <trkpt lat="46.33506" lon="-0.50283">
        <ele>34.9</ele>
        <time>2020-05-31T12:22:49Z</time>
      </trkpt>
      <trkpt lat="46.33504" lon="-0.50288">
        <ele>34.8</ele>
        <time>2020-05-31T12:22:50Z</time>
      </trkpt>
      <trkpt lat="46.33501" lon="-0.50295">
        <ele>34.8</ele>
        <time>2020-05-31T12:22:51Z</time>
      </trkpt>
      <trkpt lat="46.335" lon="-0.503">
        <ele>34.8</ele>
        <time>2020-05-31T12:22:52Z</time>
      </trkpt>
      <trkpt lat="46.33498" lon="-0.50305">
        <ele>34.7</ele>
        <time>2020-05-31T12:22:53Z</time>
      </trkpt>
      <trkpt lat="46.33497" lon="-0.5031">
        <ele>34.6</ele>
        <time>2020-05-31T12:22:54Z</time>
      </trkpt>
      <trkpt lat="46.33495" lon="-0.50315">
        <ele>34.6</ele>
        <time>2020-05-31T12:22:55Z</time>
      </trkpt>
      <trkpt lat="46.33495" lon="-0.50317">
        <ele>34.6</ele>
        <time>2020-05-31T12:22:56Z</time>
      </trkpt>
      <trkpt lat="46.33494" lon="-0.50323">
        <ele>34.6</ele>
        <time>2020-05-31T12:22:57Z</time>
      </trkpt>
      <trkpt lat="46.33494" lon="-0.50325">
        <ele>34.6</ele>
        <time>2020-05-31T12:22:58Z</time>
      </trkpt>
      <trkpt lat="46.33494" lon="-0.5033">
        <ele>34.5</ele>
        <time>2020-05-31T12:22:59Z</time>
      </trkpt>
      <trkpt lat="46.33495" lon="-0.50335">
        <ele>34.5</ele>
        <time>2020-05-31T12:23:00Z</time>
      </trkpt>
      <trkpt lat="46.33496" lon="-0.50338">
        <ele>34.5</ele>
        <time>2020-05-31T12:23:01Z</time>
      </trkpt>
      <trkpt lat="46.33498" lon="-0.50341">
        <ele>34.5</ele>
        <time>2020-05-31T12:23:02Z</time>
      </trkpt>
      <trkpt lat="46.33499" lon="-0.50343">
        <ele>34.5</ele>
        <time>2020-05-31T12:23:03Z</time>
      </trkpt>
      <trkpt lat="46.33499" lon="-0.50343">
        <ele>34.5</ele>
        <time>2020-05-31T12:23:04Z</time>
      </trkpt>
      <trkpt lat="46.33499" lon="-0.50343">
        <ele>34.5</ele>
        <time>2020-05-31T12:23:05Z</time>
      </trkpt>
      <trkpt lat="46.33499" lon="-0.50343">
        <ele>34.5</ele>
        <time>2020-05-31T12:23:06Z</time>
      </trkpt>
      <trkpt lat="46.33499" lon="-0.50343">
        <ele>34.5</ele>
        <time>2020-05-31T12:23:07Z</time>
      </trkpt>
      <trkpt lat="46.33499" lon="-0.50344">
        <ele>34.5</ele>
        <time>2020-05-31T12:23:08Z</time>
      </trkpt>
      <trkpt lat="46.33499" lon="-0.50344">
        <ele>34.5</ele>
        <time>2020-05-31T12:23:09Z</time>
      </trkpt>
      <trkpt lat="46.33499" lon="-0.50344">
        <ele>34.5</ele>
        <time>2020-05-31T12:23:10Z</time>
      </trkpt>
      <trkpt lat="46.33499" lon="-0.50344">
        <ele>34.5</ele>
        <time>2020-05-31T12:23:11Z</time>
      </trkpt>
      <trkpt lat="46.33499" lon="-0.50344">
        <ele>34.5</ele>
        <time>2020-05-31T12:23:12Z</time>
      </trkpt>
      <trkpt lat="46.33499" lon="-0.50344">
        <ele>34.5</ele>
        <time>2020-05-31T12:23:13Z</time>
      </trkpt>
      <trkpt lat="46.33499" lon="-0.50344">
        <ele>34.4</ele>
        <time>2020-05-31T12:23:14Z</time>
      </trkpt>
      <trkpt lat="46.33499" lon="-0.50344">
        <ele>34.4</ele>
        <time>2020-05-31T12:23:15Z</time>
      </trkpt>
      <trkpt lat="46.335" lon="-0.50345">
        <ele>34.4</ele>
        <time>2020-05-31T12:23:16Z</time>
      </trkpt>
      <trkpt lat="46.335" lon="-0.50345">
        <ele>34.4</ele>
        <time>2020-05-31T12:23:17Z</time>
      </trkpt>
      <trkpt lat="46.335" lon="-0.50345">
        <ele>34.4</ele>
        <time>2020-05-31T12:23:18Z</time>
      </trkpt>
      <trkpt lat="46.335" lon="-0.50345">
        <ele>34.4</ele>
        <time>2020-05-31T12:23:19Z</time>
      </trkpt>
      <trkpt lat="46.335" lon="-0.50345">
        <ele>34.4</ele>
        <time>2020-05-31T12:23:20Z</time>
      </trkpt>
      <trkpt lat="46.335" lon="-0.50345">
        <ele>34.4</ele>
        <time>2020-05-31T12:23:21Z</time>
      </trkpt>
      <trkpt lat="46.335" lon="-0.50345">
        <ele>34.4</ele>
        <time>2020-05-31T12:23:22Z</time>
      </trkpt>
      <trkpt lat="46.335" lon="-0.50345">
        <ele>34.4</ele>
        <time>2020-05-31T12:23:23Z</time>
      </trkpt>
      <trkpt lat="46.33504" lon="-0.50348">
        <ele>34.4</ele>
        <time>2020-05-31T12:23:24Z</time>
      </trkpt>
      <trkpt lat="46.33507" lon="-0.5035">
        <ele>34.3</ele>
        <time>2020-05-31T12:23:25Z</time>
      </trkpt>
      <trkpt lat="46.33511" lon="-0.50352">
        <ele>34.2</ele>
        <time>2020-05-31T12:23:26Z</time>
      </trkpt>
      <trkpt lat="46.33516" lon="-0.50354">
        <ele>34.1</ele>
        <time>2020-05-31T12:23:27Z</time>
      </trkpt>
      <trkpt lat="46.3352" lon="-0.50355">
        <ele>34</ele>
        <time>2020-05-31T12:23:28Z</time>
      </trkpt>
      <trkpt lat="46.33523" lon="-0.50357">
        <ele>34</ele>
        <time>2020-05-31T12:23:29Z</time>
      </trkpt>
      <trkpt lat="46.33526" lon="-0.50359">
        <ele>33.9</ele>
        <time>2020-05-31T12:23:30Z</time>
      </trkpt>
      <trkpt lat="46.33531" lon="-0.5036">
        <ele>33.8</ele>
        <time>2020-05-31T12:23:31Z</time>
      </trkpt>
      <trkpt lat="46.33535" lon="-0.50361">
        <ele>33.7</ele>
        <time>2020-05-31T12:23:32Z</time>
      </trkpt>
      <trkpt lat="46.33539" lon="-0.50361">
        <ele>33.7</ele>
        <time>2020-05-31T12:23:33Z</time>
      </trkpt>
      <trkpt lat="46.33543" lon="-0.50361">
        <ele>33.6</ele>
        <time>2020-05-31T12:23:34Z</time>
      </trkpt>
      <trkpt lat="46.33548" lon="-0.50361">
        <ele>33.5</ele>
        <time>2020-05-31T12:23:35Z</time>
      </trkpt>
      <trkpt lat="46.33552" lon="-0.50361">
        <ele>33.5</ele>
        <time>2020-05-31T12:23:36Z</time>
      </trkpt>
      <trkpt lat="46.33557" lon="-0.50363">
        <ele>33.4</ele>
        <time>2020-05-31T12:23:37Z</time>
      </trkpt>
      <trkpt lat="46.33562" lon="-0.50363">
        <ele>33.4</ele>
        <time>2020-05-31T12:23:38Z</time>
      </trkpt>
      <trkpt lat="46.33567" lon="-0.50363">
        <ele>33.3</ele>
        <time>2020-05-31T12:23:39Z</time>
      </trkpt>
      <trkpt lat="46.33571" lon="-0.50364">
        <ele>33.3</ele>
        <time>2020-05-31T12:23:40Z</time>
      </trkpt>
      <trkpt lat="46.33575" lon="-0.50364">
        <ele>33.2</ele>
        <time>2020-05-31T12:23:41Z</time>
      </trkpt>
      <trkpt lat="46.3358" lon="-0.50365">
        <ele>33.1</ele>
        <time>2020-05-31T12:23:42Z</time>
      </trkpt>
      <trkpt lat="46.33584" lon="-0.50367">
        <ele>33.1</ele>
        <time>2020-05-31T12:23:43Z</time>
      </trkpt>
      <trkpt lat="46.33589" lon="-0.50369">
        <ele>33</ele>
        <time>2020-05-31T12:23:44Z</time>
      </trkpt>
      <trkpt lat="46.33593" lon="-0.50371">
        <ele>33</ele>
        <time>2020-05-31T12:23:45Z</time>
      </trkpt>
      <trkpt lat="46.33597" lon="-0.50374">
        <ele>32.9</ele>
        <time>2020-05-31T12:23:46Z</time>
      </trkpt>
      <trkpt lat="46.33602" lon="-0.50378">
        <ele>32.8</ele>
        <time>2020-05-31T12:23:47Z</time>
      </trkpt>
      <trkpt lat="46.33609" lon="-0.50382">
        <ele>32.7</ele>
        <time>2020-05-31T12:23:48Z</time>
      </trkpt>
      <trkpt lat="46.33613" lon="-0.50386">
        <ele>32.7</ele>
        <time>2020-05-31T12:23:49Z</time>
      </trkpt>
      <trkpt lat="46.33617" lon="-0.5039">
        <ele>32.6</ele>
        <time>2020-05-31T12:23:50Z</time>
      </trkpt>
      <trkpt lat="46.33622" lon="-0.50394">
        <ele>32.5</ele>
        <time>2020-05-31T12:23:51Z</time>
      </trkpt>
      <trkpt lat="46.33627" lon="-0.50398">
        <ele>32.4</ele>
        <time>2020-05-31T12:23:52Z</time>
      </trkpt>
      <trkpt lat="46.33631" lon="-0.50403">
        <ele>32.3</ele>
        <time>2020-05-31T12:23:53Z</time>
      </trkpt>
      <trkpt lat="46.33636" lon="-0.50406">
        <ele>32.3</ele>
        <time>2020-05-31T12:23:54Z</time>
      </trkpt>
      <trkpt lat="46.33643" lon="-0.50411">
        <ele>32.1</ele>
        <time>2020-05-31T12:23:55Z</time>
      </trkpt>
      <trkpt lat="46.33647" lon="-0.50413">
        <ele>32</ele>
        <time>2020-05-31T12:23:56Z</time>
      </trkpt>
      <trkpt lat="46.33652" lon="-0.50417">
        <ele>31.9</ele>
        <time>2020-05-31T12:23:57Z</time>
      </trkpt>
      <trkpt lat="46.33658" lon="-0.5042">
        <ele>31.7</ele>
        <time>2020-05-31T12:23:58Z</time>
      </trkpt>
      <trkpt lat="46.33663" lon="-0.50423">
        <ele>31.6</ele>
        <time>2020-05-31T12:23:59Z</time>
      </trkpt>
      <trkpt lat="46.33668" lon="-0.50427">
        <ele>31.4</ele>
        <time>2020-05-31T12:24:00Z</time>
      </trkpt>
      <trkpt lat="46.33673" lon="-0.50432">
        <ele>31.2</ele>
        <time>2020-05-31T12:24:01Z</time>
      </trkpt>
      <trkpt lat="46.33677" lon="-0.50436">
        <ele>31</ele>
        <time>2020-05-31T12:24:02Z</time>
      </trkpt>
      <trkpt lat="46.33682" lon="-0.5044">
        <ele>30.7</ele>
        <time>2020-05-31T12:24:03Z</time>
      </trkpt>
      <trkpt lat="46.33686" lon="-0.50445">
        <ele>30.3</ele>
        <time>2020-05-31T12:24:04Z</time>
      </trkpt>
      <trkpt lat="46.33691" lon="-0.50449">
        <ele>30</ele>
        <time>2020-05-31T12:24:05Z</time>
      </trkpt>
      <trkpt lat="46.33695" lon="-0.50456">
        <ele>29.6</ele>
        <time>2020-05-31T12:24:06Z</time>
      </trkpt>
      <trkpt lat="46.33698" lon="-0.50466">
        <ele>29.1</ele>
        <time>2020-05-31T12:24:07Z</time>
      </trkpt>
      <trkpt lat="46.337" lon="-0.50479">
        <ele>28.4</ele>
        <time>2020-05-31T12:24:08Z</time>
      </trkpt>
      <trkpt lat="46.33699" lon="-0.50491">
        <ele>27.7</ele>
        <time>2020-05-31T12:24:09Z</time>
      </trkpt>
      <trkpt lat="46.33693" lon="-0.50504">
        <ele>26.7</ele>
        <time>2020-05-31T12:24:10Z</time>
      </trkpt>
      <trkpt lat="46.33685" lon="-0.50512">
        <ele>25.6</ele>
        <time>2020-05-31T12:24:11Z</time>
      </trkpt>
      <trkpt lat="46.33677" lon="-0.50521">
        <ele>24.5</ele>
        <time>2020-05-31T12:24:12Z</time>
      </trkpt>
      <trkpt lat="46.33667" lon="-0.5053">
        <ele>23.1</ele>
        <time>2020-05-31T12:24:13Z</time>
      </trkpt>
      <trkpt lat="46.33658" lon="-0.5054">
        <ele>21.7</ele>
        <time>2020-05-31T12:24:14Z</time>
      </trkpt>
      <trkpt lat="46.33649" lon="-0.5055">
        <ele>20.3</ele>
        <time>2020-05-31T12:24:15Z</time>
      </trkpt>
      <trkpt lat="46.33642" lon="-0.50562">
        <ele>19</ele>
        <time>2020-05-31T12:24:16Z</time>
      </trkpt>
      <trkpt lat="46.33635" lon="-0.50575">
        <ele>17.7</ele>
        <time>2020-05-31T12:24:17Z</time>
      </trkpt>
      <trkpt lat="46.33629" lon="-0.5059">
        <ele>16.6</ele>
        <time>2020-05-31T12:24:18Z</time>
      </trkpt>
      <trkpt lat="46.33624" lon="-0.50605">
        <ele>15.6</ele>
        <time>2020-05-31T12:24:19Z</time>
      </trkpt>
      <trkpt lat="46.33619" lon="-0.50621">
        <ele>14.7</ele>
        <time>2020-05-31T12:24:20Z</time>
      </trkpt>
      <trkpt lat="46.33617" lon="-0.50636">
        <ele>14</ele>
        <time>2020-05-31T12:24:21Z</time>
      </trkpt>
      <trkpt lat="46.33616" lon="-0.50649">
        <ele>13.5</ele>
        <time>2020-05-31T12:24:22Z</time>
      </trkpt>
      <trkpt lat="46.33615" lon="-0.50659">
        <ele>13.2</ele>
        <time>2020-05-31T12:24:23Z</time>
      </trkpt>
      <trkpt lat="46.33615" lon="-0.50666">
        <ele>12.9</ele>
        <time>2020-05-31T12:24:24Z</time>
      </trkpt>
      <trkpt lat="46.33614" lon="-0.50672">
        <ele>12.8</ele>
        <time>2020-05-31T12:24:25Z</time>
      </trkpt>
      <trkpt lat="46.33614" lon="-0.50676">
        <ele>12.7</ele>
        <time>2020-05-31T12:24:26Z</time>
      </trkpt>
      <trkpt lat="46.33614" lon="-0.50679">
        <ele>12.6</ele>
        <time>2020-05-31T12:24:27Z</time>
      </trkpt>
      <trkpt lat="46.33613" lon="-0.50681">
        <ele>12.6</ele>
        <time>2020-05-31T12:24:28Z</time>
      </trkpt>
      <trkpt lat="46.33612" lon="-0.50683">
        <ele>12.6</ele>
        <time>2020-05-31T12:24:29Z</time>
      </trkpt>
      <trkpt lat="46.33612" lon="-0.50686">
        <ele>12.6</ele>
        <time>2020-05-31T12:24:30Z</time>
      </trkpt>
      <trkpt lat="46.33613" lon="-0.50687">
        <ele>12.7</ele>
        <time>2020-05-31T12:24:31Z</time>
      </trkpt>
      <trkpt lat="46.33614" lon="-0.50688">
        <ele>12.7</ele>
        <time>2020-05-31T12:24:32Z</time>
      </trkpt>
      <trkpt lat="46.33617" lon="-0.50687">
        <ele>12.7</ele>
        <time>2020-05-31T12:24:33Z</time>
      </trkpt>
      <trkpt lat="46.33617" lon="-0.50688">
        <ele>12.7</ele>
        <time>2020-05-31T12:24:34Z</time>
      </trkpt>
      <trkpt lat="46.33618" lon="-0.50689">
        <ele>12.7</ele>
        <time>2020-05-31T12:24:35Z</time>
      </trkpt>
      <trkpt lat="46.33621" lon="-0.50689">
        <ele>12.8</ele>
        <time>2020-05-31T12:24:36Z</time>
      </trkpt>
      <trkpt lat="46.33623" lon="-0.50689">
        <ele>12.8</ele>
        <time>2020-05-31T12:24:37Z</time>
      </trkpt>
      <trkpt lat="46.33626" lon="-0.50691">
        <ele>12.8</ele>
        <time>2020-05-31T12:24:38Z</time>
      </trkpt>
      <trkpt lat="46.33627" lon="-0.50692">
        <ele>12.8</ele>
        <time>2020-05-31T12:24:39Z</time>
      </trkpt>
      <trkpt lat="46.3363" lon="-0.50693">
        <ele>12.9</ele>
        <time>2020-05-31T12:24:40Z</time>
      </trkpt>
      <trkpt lat="46.33631" lon="-0.50694">
        <ele>12.9</ele>
        <time>2020-05-31T12:24:41Z</time>
      </trkpt>
      <trkpt lat="46.33634" lon="-0.50695">
        <ele>12.9</ele>
        <time>2020-05-31T12:24:42Z</time>
      </trkpt>
      <trkpt lat="46.33638" lon="-0.50697">
        <ele>12.9</ele>
        <time>2020-05-31T12:24:43Z</time>
      </trkpt>
      <trkpt lat="46.3364" lon="-0.50698">
        <ele>12.9</ele>
        <time>2020-05-31T12:24:44Z</time>
      </trkpt>
      <trkpt lat="46.33643" lon="-0.50699">
        <ele>13</ele>
        <time>2020-05-31T12:24:45Z</time>
      </trkpt>
      <trkpt lat="46.33646" lon="-0.50701">
        <ele>13</ele>
        <time>2020-05-31T12:24:46Z</time>
      </trkpt>
      <trkpt lat="46.3365" lon="-0.50703">
        <ele>13.1</ele>
        <time>2020-05-31T12:24:47Z</time>
      </trkpt>
      <trkpt lat="46.33653" lon="-0.50706">
        <ele>13.1</ele>
        <time>2020-05-31T12:24:48Z</time>
      </trkpt>
      <trkpt lat="46.33656" lon="-0.50706">
        <ele>13.2</ele>
        <time>2020-05-31T12:24:49Z</time>
      </trkpt>
      <trkpt lat="46.3366" lon="-0.50707">
        <ele>13.2</ele>
        <time>2020-05-31T12:24:50Z</time>
      </trkpt>
      <trkpt lat="46.33663" lon="-0.50708">
        <ele>13.2</ele>
        <time>2020-05-31T12:24:51Z</time>
      </trkpt>
      <trkpt lat="46.33666" lon="-0.50708">
        <ele>13.3</ele>
        <time>2020-05-31T12:24:52Z</time>
      </trkpt>
      <trkpt lat="46.3367" lon="-0.50709">
        <ele>13.3</ele>
        <time>2020-05-31T12:24:53Z</time>
      </trkpt>
      <trkpt lat="46.33673" lon="-0.5071">
        <ele>13.3</ele>
        <time>2020-05-31T12:24:54Z</time>
      </trkpt>
      <trkpt lat="46.33676" lon="-0.50711">
        <ele>13.4</ele>
        <time>2020-05-31T12:24:55Z</time>
      </trkpt>
      <trkpt lat="46.3368" lon="-0.50712">
        <ele>13.4</ele>
        <time>2020-05-31T12:24:56Z</time>
      </trkpt>
      <trkpt lat="46.33683" lon="-0.50713">
        <ele>13.4</ele>
        <time>2020-05-31T12:24:57Z</time>
      </trkpt>
      <trkpt lat="46.33687" lon="-0.50714">
        <ele>13.5</ele>
        <time>2020-05-31T12:24:58Z</time>
      </trkpt>
      <trkpt lat="46.33691" lon="-0.50715">
        <ele>13.5</ele>
        <time>2020-05-31T12:24:59Z</time>
      </trkpt>
      <trkpt lat="46.33695" lon="-0.50715">
        <ele>13.6</ele>
        <time>2020-05-31T12:25:00Z</time>
      </trkpt>
      <trkpt lat="46.33699" lon="-0.50718">
        <ele>13.6</ele>
        <time>2020-05-31T12:25:01Z</time>
      </trkpt>
      <trkpt lat="46.33703" lon="-0.50718">
        <ele>13.7</ele>
        <time>2020-05-31T12:25:02Z</time>
      </trkpt>
      <trkpt lat="46.33706" lon="-0.50718">
        <ele>13.8</ele>
        <time>2020-05-31T12:25:03Z</time>
      </trkpt>
      <trkpt lat="46.3371" lon="-0.50717">
        <ele>13.8</ele>
        <time>2020-05-31T12:25:04Z</time>
      </trkpt>
      <trkpt lat="46.33714" lon="-0.50718">
        <ele>13.9</ele>
        <time>2020-05-31T12:25:05Z</time>
      </trkpt>
      <trkpt lat="46.33718" lon="-0.50719">
        <ele>14</ele>
        <time>2020-05-31T12:25:06Z</time>
      </trkpt>
      <trkpt lat="46.33721" lon="-0.5072">
        <ele>14.1</ele>
        <time>2020-05-31T12:25:07Z</time>
      </trkpt>
      <trkpt lat="46.33725" lon="-0.50722">
        <ele>14.2</ele>
        <time>2020-05-31T12:25:08Z</time>
      </trkpt>
      <trkpt lat="46.33729" lon="-0.50725">
        <ele>14.4</ele>
        <time>2020-05-31T12:25:09Z</time>
      </trkpt>
      <trkpt lat="46.33733" lon="-0.50727">
        <ele>14.5</ele>
        <time>2020-05-31T12:25:10Z</time>
      </trkpt>
      <trkpt lat="46.33737" lon="-0.50728">
        <ele>14.7</ele>
        <time>2020-05-31T12:25:11Z</time>
      </trkpt>
      <trkpt lat="46.33741" lon="-0.50727">
        <ele>14.8</ele>
        <time>2020-05-31T12:25:12Z</time>
      </trkpt>
      <trkpt lat="46.33744" lon="-0.50728">
        <ele>14.9</ele>
        <time>2020-05-31T12:25:13Z</time>
      </trkpt>
      <trkpt lat="46.33748" lon="-0.5073">
        <ele>15</ele>
        <time>2020-05-31T12:25:14Z</time>
      </trkpt>
      <trkpt lat="46.33752" lon="-0.50732">
        <ele>15.2</ele>
        <time>2020-05-31T12:25:15Z</time>
      </trkpt>
      <trkpt lat="46.33756" lon="-0.50735">
        <ele>15.3</ele>
        <time>2020-05-31T12:25:16Z</time>
      </trkpt>
      <trkpt lat="46.3376" lon="-0.50737">
        <ele>15.5</ele>
        <time>2020-05-31T12:25:17Z</time>
      </trkpt>
      <trkpt lat="46.33765" lon="-0.50739">
        <ele>15.7</ele>
        <time>2020-05-31T12:25:18Z</time>
      </trkpt>
      <trkpt lat="46.33768" lon="-0.50742">
        <ele>15.9</ele>
        <time>2020-05-31T12:25:19Z</time>
      </trkpt>
      <trkpt lat="46.33772" lon="-0.50746">
        <ele>16.1</ele>
        <time>2020-05-31T12:25:20Z</time>
      </trkpt>
      <trkpt lat="46.33775" lon="-0.5075">
        <ele>16.3</ele>
        <time>2020-05-31T12:25:21Z</time>
      </trkpt>
      <trkpt lat="46.33777" lon="-0.50755">
        <ele>16.5</ele>
        <time>2020-05-31T12:25:22Z</time>
      </trkpt>
      <trkpt lat="46.33779" lon="-0.50761">
        <ele>16.8</ele>
        <time>2020-05-31T12:25:23Z</time>
      </trkpt>
      <trkpt lat="46.33782" lon="-0.50767">
        <ele>17</ele>
        <time>2020-05-31T12:25:24Z</time>
      </trkpt>
      <trkpt lat="46.33784" lon="-0.50771">
        <ele>17.3</ele>
        <time>2020-05-31T12:25:25Z</time>
      </trkpt>
      <trkpt lat="46.33786" lon="-0.50776">
        <ele>17.5</ele>
        <time>2020-05-31T12:25:26Z</time>
      </trkpt>
      <trkpt lat="46.33788" lon="-0.50781">
        <ele>17.7</ele>
        <time>2020-05-31T12:25:27Z</time>
      </trkpt>
      <trkpt lat="46.33788" lon="-0.50786">
        <ele>18</ele>
        <time>2020-05-31T12:25:28Z</time>
      </trkpt>
      <trkpt lat="46.33789" lon="-0.50791">
        <ele>18.3</ele>
        <time>2020-05-31T12:25:29Z</time>
      </trkpt>
      <trkpt lat="46.3379" lon="-0.50796">
        <ele>18.5</ele>
        <time>2020-05-31T12:25:30Z</time>
      </trkpt>
      <trkpt lat="46.33792" lon="-0.50801">
        <ele>18.9</ele>
        <time>2020-05-31T12:25:31Z</time>
      </trkpt>
      <trkpt lat="46.33794" lon="-0.50806">
        <ele>19.3</ele>
        <time>2020-05-31T12:25:32Z</time>
      </trkpt>
      <trkpt lat="46.33795" lon="-0.50811">
        <ele>19.6</ele>
        <time>2020-05-31T12:25:33Z</time>
      </trkpt>
      <trkpt lat="46.33796" lon="-0.50816">
        <ele>19.9</ele>
        <time>2020-05-31T12:25:34Z</time>
      </trkpt>
      <trkpt lat="46.33796" lon="-0.50821">
        <ele>20.2</ele>
        <time>2020-05-31T12:25:35Z</time>
      </trkpt>
      <trkpt lat="46.33797" lon="-0.50826">
        <ele>20.5</ele>
        <time>2020-05-31T12:25:36Z</time>
      </trkpt>
      <trkpt lat="46.33797" lon="-0.5083">
        <ele>20.8</ele>
        <time>2020-05-31T12:25:37Z</time>
      </trkpt>
      <trkpt lat="46.33798" lon="-0.50834">
        <ele>21.1</ele>
        <time>2020-05-31T12:25:38Z</time>
      </trkpt>
      <trkpt lat="46.33798" lon="-0.50838">
        <ele>21.3</ele>
        <time>2020-05-31T12:25:39Z</time>
      </trkpt>
      <trkpt lat="46.338" lon="-0.50843">
        <ele>21.7</ele>
        <time>2020-05-31T12:25:40Z</time>
      </trkpt>
      <trkpt lat="46.33801" lon="-0.50844">
        <ele>21.8</ele>
        <time>2020-05-31T12:25:41Z</time>
      </trkpt>
      <trkpt lat="46.33802" lon="-0.50849">
        <ele>22.2</ele>
        <time>2020-05-31T12:25:42Z</time>
      </trkpt>
      <trkpt lat="46.33803" lon="-0.50851">
        <ele>22.4</ele>
        <time>2020-05-31T12:25:43Z</time>
      </trkpt>
      <trkpt lat="46.33805" lon="-0.50856">
        <ele>22.8</ele>
        <time>2020-05-31T12:25:44Z</time>
      </trkpt>
      <trkpt lat="46.33806" lon="-0.50858">
        <ele>22.9</ele>
        <time>2020-05-31T12:25:45Z</time>
      </trkpt>
      <trkpt lat="46.33807" lon="-0.50862">
        <ele>23.2</ele>
        <time>2020-05-31T12:25:46Z</time>
      </trkpt>
      <trkpt lat="46.33808" lon="-0.50866">
        <ele>23.5</ele>
        <time>2020-05-31T12:25:47Z</time>
      </trkpt>
      <trkpt lat="46.33809" lon="-0.5087">
        <ele>23.8</ele>
        <time>2020-05-31T12:25:48Z</time>
      </trkpt>
      <trkpt lat="46.3381" lon="-0.50875">
        <ele>24.1</ele>
        <time>2020-05-31T12:25:49Z</time>
      </trkpt>
      <trkpt lat="46.33811" lon="-0.50879">
        <ele>24.4</ele>
        <time>2020-05-31T12:25:50Z</time>
      </trkpt>
      <trkpt lat="46.33812" lon="-0.50883">
        <ele>24.7</ele>
        <time>2020-05-31T12:25:51Z</time>
      </trkpt>
      <trkpt lat="46.33812" lon="-0.50887">
        <ele>25</ele>
        <time>2020-05-31T12:25:52Z</time>
      </trkpt>
      <trkpt lat="46.33815" lon="-0.5089">
        <ele>25.2</ele>
        <time>2020-05-31T12:25:53Z</time>
      </trkpt>
      <trkpt lat="46.33816" lon="-0.50894">
        <ele>25.5</ele>
        <time>2020-05-31T12:25:54Z</time>
      </trkpt>
      <trkpt lat="46.33817" lon="-0.50898">
        <ele>25.7</ele>
        <time>2020-05-31T12:25:55Z</time>
      </trkpt>
      <trkpt lat="46.33818" lon="-0.50901">
        <ele>25.8</ele>
        <time>2020-05-31T12:25:56Z</time>
      </trkpt>
      <trkpt lat="46.3382" lon="-0.50906">
        <ele>26</ele>
        <time>2020-05-31T12:25:57Z</time>
      </trkpt>
      <trkpt lat="46.33821" lon="-0.50908">
        <ele>26</ele>
        <time>2020-05-31T12:25:58Z</time>
      </trkpt>
      <trkpt lat="46.33821" lon="-0.50914">
        <ele>26.1</ele>
        <time>2020-05-31T12:25:59Z</time>
      </trkpt>
      <trkpt lat="46.33821" lon="-0.50916">
        <ele>26.2</ele>
        <time>2020-05-31T12:26:00Z</time>
      </trkpt>
      <trkpt lat="46.33822" lon="-0.50921">
        <ele>26.4</ele>
        <time>2020-05-31T12:26:01Z</time>
      </trkpt>
      <trkpt lat="46.33821" lon="-0.50923">
        <ele>26.5</ele>
        <time>2020-05-31T12:26:02Z</time>
      </trkpt>
      <trkpt lat="46.3382" lon="-0.50928">
        <ele>26.6</ele>
        <time>2020-05-31T12:26:03Z</time>
      </trkpt>
      <trkpt lat="46.3382" lon="-0.5093">
        <ele>26.7</ele>
        <time>2020-05-31T12:26:04Z</time>
      </trkpt>
      <trkpt lat="46.33819" lon="-0.50935">
        <ele>26.9</ele>
        <time>2020-05-31T12:26:05Z</time>
      </trkpt>
      <trkpt lat="46.33818" lon="-0.50936">
        <ele>27</ele>
        <time>2020-05-31T12:26:06Z</time>
      </trkpt>
      <trkpt lat="46.33817" lon="-0.5094">
        <ele>27.2</ele>
        <time>2020-05-31T12:26:07Z</time>
      </trkpt>
      <trkpt lat="46.33816" lon="-0.50945">
        <ele>27.5</ele>
        <time>2020-05-31T12:26:08Z</time>
      </trkpt>
      <trkpt lat="46.33816" lon="-0.50947">
        <ele>27.6</ele>
        <time>2020-05-31T12:26:09Z</time>
      </trkpt>
      <trkpt lat="46.33815" lon="-0.50951">
        <ele>27.8</ele>
        <time>2020-05-31T12:26:10Z</time>
      </trkpt>
      <trkpt lat="46.33814" lon="-0.50957">
        <ele>28</ele>
        <time>2020-05-31T12:26:11Z</time>
      </trkpt>
      <trkpt lat="46.33813" lon="-0.50959">
        <ele>28.2</ele>
        <time>2020-05-31T12:26:12Z</time>
      </trkpt>
      <trkpt lat="46.33811" lon="-0.50964">
        <ele>28.5</ele>
        <time>2020-05-31T12:26:13Z</time>
      </trkpt>
      <trkpt lat="46.3381" lon="-0.50966">
        <ele>28.6</ele>
        <time>2020-05-31T12:26:14Z</time>
      </trkpt>
      <trkpt lat="46.33808" lon="-0.50969">
        <ele>28.8</ele>
        <time>2020-05-31T12:26:15Z</time>
      </trkpt>
      <trkpt lat="46.33806" lon="-0.50974">
        <ele>29.1</ele>
        <time>2020-05-31T12:26:16Z</time>
      </trkpt>
      <trkpt lat="46.33804" lon="-0.50977">
        <ele>29.3</ele>
        <time>2020-05-31T12:26:17Z</time>
      </trkpt>
      <trkpt lat="46.33802" lon="-0.5098">
        <ele>29.5</ele>
        <time>2020-05-31T12:26:18Z</time>
      </trkpt>
      <trkpt lat="46.33801" lon="-0.50985">
        <ele>29.8</ele>
        <time>2020-05-31T12:26:19Z</time>
      </trkpt>
      <trkpt lat="46.338" lon="-0.50986">
        <ele>29.9</ele>
        <time>2020-05-31T12:26:20Z</time>
      </trkpt>
      <trkpt lat="46.33798" lon="-0.5099">
        <ele>30.1</ele>
        <time>2020-05-31T12:26:21Z</time>
      </trkpt>
      <trkpt lat="46.33796" lon="-0.50994">
        <ele>30.3</ele>
        <time>2020-05-31T12:26:22Z</time>
      </trkpt>
      <trkpt lat="46.33794" lon="-0.50998">
        <ele>30.5</ele>
        <time>2020-05-31T12:26:23Z</time>
      </trkpt>
      <trkpt lat="46.33793" lon="-0.50999">
        <ele>30.6</ele>
        <time>2020-05-31T12:26:24Z</time>
      </trkpt>
      <trkpt lat="46.33791" lon="-0.51002">
        <ele>30.8</ele>
        <time>2020-05-31T12:26:25Z</time>
      </trkpt>
      <trkpt lat="46.33791" lon="-0.51003">
        <ele>30.9</ele>
        <time>2020-05-31T12:26:26Z</time>
      </trkpt>
      <trkpt lat="46.33789" lon="-0.51007">
        <ele>31.1</ele>
        <time>2020-05-31T12:26:27Z</time>
      </trkpt>
      <trkpt lat="46.33788" lon="-0.51008">
        <ele>31.2</ele>
        <time>2020-05-31T12:26:28Z</time>
      </trkpt>
      <trkpt lat="46.33786" lon="-0.51012">
        <ele>31.4</ele>
        <time>2020-05-31T12:26:29Z</time>
      </trkpt>
      <trkpt lat="46.33786" lon="-0.51013">
        <ele>31.5</ele>
        <time>2020-05-31T12:26:30Z</time>
      </trkpt>
      <trkpt lat="46.33785" lon="-0.51018">
        <ele>31.7</ele>
        <time>2020-05-31T12:26:31Z</time>
      </trkpt>
      <trkpt lat="46.33784" lon="-0.5102">
        <ele>31.8</ele>
        <time>2020-05-31T12:26:32Z</time>
      </trkpt>
      <trkpt lat="46.33782" lon="-0.51024">
        <ele>32</ele>
        <time>2020-05-31T12:26:33Z</time>
      </trkpt>
      <trkpt lat="46.33782" lon="-0.51026">
        <ele>32.1</ele>
        <time>2020-05-31T12:26:34Z</time>
      </trkpt>
      <trkpt lat="46.3378" lon="-0.5103">
        <ele>32.3</ele>
        <time>2020-05-31T12:26:35Z</time>
      </trkpt>
      <trkpt lat="46.33779" lon="-0.51035">
        <ele>32.5</ele>
        <time>2020-05-31T12:26:36Z</time>
      </trkpt>
      <trkpt lat="46.33778" lon="-0.51036">
        <ele>32.6</ele>
        <time>2020-05-31T12:26:37Z</time>
      </trkpt>
      <trkpt lat="46.33777" lon="-0.51041">
        <ele>32.8</ele>
        <time>2020-05-31T12:26:38Z</time>
      </trkpt>
      <trkpt lat="46.33775" lon="-0.51044">
        <ele>33</ele>
        <time>2020-05-31T12:26:39Z</time>
      </trkpt>
      <trkpt lat="46.33774" lon="-0.51049">
        <ele>33.1</ele>
        <time>2020-05-31T12:26:40Z</time>
      </trkpt>
      <trkpt lat="46.33772" lon="-0.51053">
        <ele>33.3</ele>
        <time>2020-05-31T12:26:41Z</time>
      </trkpt>
      <trkpt lat="46.33771" lon="-0.51057">
        <ele>33.5</ele>
        <time>2020-05-31T12:26:42Z</time>
      </trkpt>
      <trkpt lat="46.3377" lon="-0.51062">
        <ele>33.6</ele>
        <time>2020-05-31T12:26:43Z</time>
      </trkpt>
      <trkpt lat="46.33768" lon="-0.51066">
        <ele>33.8</ele>
        <time>2020-05-31T12:26:44Z</time>
      </trkpt>
      <trkpt lat="46.33767" lon="-0.5107">
        <ele>33.9</ele>
        <time>2020-05-31T12:26:45Z</time>
      </trkpt>
      <trkpt lat="46.33765" lon="-0.51074">
        <ele>34.1</ele>
        <time>2020-05-31T12:26:46Z</time>
      </trkpt>
      <trkpt lat="46.33764" lon="-0.51078">
        <ele>34.2</ele>
        <time>2020-05-31T12:26:47Z</time>
      </trkpt>
      <trkpt lat="46.33762" lon="-0.51082">
        <ele>34.4</ele>
        <time>2020-05-31T12:26:48Z</time>
      </trkpt>
      <trkpt lat="46.3376" lon="-0.51086">
        <ele>34.5</ele>
        <time>2020-05-31T12:26:49Z</time>
      </trkpt>
      <trkpt lat="46.33759" lon="-0.5109">
        <ele>34.7</ele>
        <time>2020-05-31T12:26:50Z</time>
      </trkpt>
      <trkpt lat="46.33758" lon="-0.51095">
        <ele>34.8</ele>
        <time>2020-05-31T12:26:51Z</time>
      </trkpt>
      <trkpt lat="46.33756" lon="-0.51098">
        <ele>35</ele>
        <time>2020-05-31T12:26:52Z</time>
      </trkpt>
      <trkpt lat="46.33754" lon="-0.51102">
        <ele>35.1</ele>
        <time>2020-05-31T12:26:53Z</time>
      </trkpt>
      <trkpt lat="46.33753" lon="-0.51107">
        <ele>35.2</ele>
        <time>2020-05-31T12:26:54Z</time>
      </trkpt>
      <trkpt lat="46.33752" lon="-0.51111">
        <ele>35.4</ele>
        <time>2020-05-31T12:26:55Z</time>
      </trkpt>
      <trkpt lat="46.3375" lon="-0.51115">
        <ele>35.5</ele>
        <time>2020-05-31T12:26:56Z</time>
      </trkpt>
      <trkpt lat="46.33748" lon="-0.51118">
        <ele>35.6</ele>
        <time>2020-05-31T12:26:57Z</time>
      </trkpt>
      <trkpt lat="46.33746" lon="-0.51122">
        <ele>35.7</ele>
        <time>2020-05-31T12:26:58Z</time>
      </trkpt>
      <trkpt lat="46.33744" lon="-0.51126">
        <ele>35.9</ele>
        <time>2020-05-31T12:26:59Z</time>
      </trkpt>
      <trkpt lat="46.33743" lon="-0.51127">
        <ele>35.9</ele>
        <time>2020-05-31T12:27:00Z</time>
      </trkpt>
      <trkpt lat="46.33742" lon="-0.51131">
        <ele>36</ele>
        <time>2020-05-31T12:27:01Z</time>
      </trkpt>
      <trkpt lat="46.33741" lon="-0.51137">
        <ele>36.1</ele>
        <time>2020-05-31T12:27:02Z</time>
      </trkpt>
      <trkpt lat="46.33741" lon="-0.51138">
        <ele>36.1</ele>
        <time>2020-05-31T12:27:03Z</time>
      </trkpt>
      <trkpt lat="46.33739" lon="-0.51143">
        <ele>36.3</ele>
        <time>2020-05-31T12:27:04Z</time>
      </trkpt>
      <trkpt lat="46.33738" lon="-0.51145">
        <ele>36.3</ele>
        <time>2020-05-31T12:27:05Z</time>
      </trkpt>
      <trkpt lat="46.33736" lon="-0.5115">
        <ele>36.4</ele>
        <time>2020-05-31T12:27:06Z</time>
      </trkpt>
      <trkpt lat="46.33735" lon="-0.51152">
        <ele>36.5</ele>
        <time>2020-05-31T12:27:07Z</time>
      </trkpt>
      <trkpt lat="46.33733" lon="-0.51156">
        <ele>36.5</ele>
        <time>2020-05-31T12:27:08Z</time>
      </trkpt>
      <trkpt lat="46.33731" lon="-0.5116">
        <ele>36.5</ele>
        <time>2020-05-31T12:27:09Z</time>
      </trkpt>
      <trkpt lat="46.33729" lon="-0.51163">
        <ele>36.6</ele>
        <time>2020-05-31T12:27:10Z</time>
      </trkpt>
      <trkpt lat="46.33727" lon="-0.51167">
        <ele>36.6</ele>
        <time>2020-05-31T12:27:11Z</time>
      </trkpt>
      <trkpt lat="46.33725" lon="-0.51172">
        <ele>36.6</ele>
        <time>2020-05-31T12:27:12Z</time>
      </trkpt>
      <trkpt lat="46.33723" lon="-0.51177">
        <ele>36.6</ele>
        <time>2020-05-31T12:27:13Z</time>
      </trkpt>
      <trkpt lat="46.33722" lon="-0.51181">
        <ele>36.6</ele>
        <time>2020-05-31T12:27:14Z</time>
      </trkpt>
      <trkpt lat="46.33721" lon="-0.51185">
        <ele>36.6</ele>
        <time>2020-05-31T12:27:15Z</time>
      </trkpt>
      <trkpt lat="46.33719" lon="-0.51189">
        <ele>36.6</ele>
        <time>2020-05-31T12:27:16Z</time>
      </trkpt>
      <trkpt lat="46.33718" lon="-0.51193">
        <ele>36.6</ele>
        <time>2020-05-31T12:27:17Z</time>
      </trkpt>
      <trkpt lat="46.33716" lon="-0.51197">
        <ele>36.6</ele>
        <time>2020-05-31T12:27:18Z</time>
      </trkpt>
      <trkpt lat="46.33714" lon="-0.51202">
        <ele>36.6</ele>
        <time>2020-05-31T12:27:19Z</time>
      </trkpt>
      <trkpt lat="46.33713" lon="-0.51203">
        <ele>36.6</ele>
        <time>2020-05-31T12:27:20Z</time>
      </trkpt>
      <trkpt lat="46.33712" lon="-0.51206">
        <ele>36.6</ele>
        <time>2020-05-31T12:27:21Z</time>
      </trkpt>
      <trkpt lat="46.33712" lon="-0.51208">
        <ele>36.6</ele>
        <time>2020-05-31T12:27:22Z</time>
      </trkpt>
      <trkpt lat="46.33712" lon="-0.51209">
        <ele>36.6</ele>
        <time>2020-05-31T12:27:23Z</time>
      </trkpt>
      <trkpt lat="46.33713" lon="-0.51209">
        <ele>36.6</ele>
        <time>2020-05-31T12:27:24Z</time>
      </trkpt>
      <trkpt lat="46.33713" lon="-0.51208">
        <ele>36.6</ele>
        <time>2020-05-31T12:27:25Z</time>
      </trkpt>
      <trkpt lat="46.33713" lon="-0.51208">
        <ele>36.6</ele>
        <time>2020-05-31T12:27:26Z</time>
      </trkpt>
      <trkpt lat="46.33713" lon="-0.51209">
        <ele>36.6</ele>
        <time>2020-05-31T12:27:27Z</time>
      </trkpt>
      <trkpt lat="46.33713" lon="-0.51209">
        <ele>36.6</ele>
        <time>2020-05-31T12:27:28Z</time>
      </trkpt>
      <trkpt lat="46.33713" lon="-0.51209">
        <ele>36.6</ele>
        <time>2020-05-31T12:27:29Z</time>
      </trkpt>
      <trkpt lat="46.33713" lon="-0.51208">
        <ele>36.6</ele>
        <time>2020-05-31T12:27:30Z</time>
      </trkpt>
      <trkpt lat="46.33713" lon="-0.51208">
        <ele>36.6</ele>
        <time>2020-05-31T12:27:31Z</time>
      </trkpt>
      <trkpt lat="46.33713" lon="-0.51207">
        <ele>36.6</ele>
        <time>2020-05-31T12:27:32Z</time>
      </trkpt>
      <trkpt lat="46.33713" lon="-0.51207">
        <ele>36.6</ele>
        <time>2020-05-31T12:27:33Z</time>
      </trkpt>
      <trkpt lat="46.33713" lon="-0.51208">
        <ele>36.6</ele>
        <time>2020-05-31T12:27:34Z</time>
      </trkpt>
      <trkpt lat="46.33713" lon="-0.51208">
        <ele>36.6</ele>
        <time>2020-05-31T12:27:35Z</time>
      </trkpt>
      <trkpt lat="46.33712" lon="-0.51209">
        <ele>36.6</ele>
        <time>2020-05-31T12:27:36Z</time>
      </trkpt>
      <trkpt lat="46.33712" lon="-0.51209">
        <ele>36.6</ele>
        <time>2020-05-31T12:27:37Z</time>
      </trkpt>
      <trkpt lat="46.33712" lon="-0.51209">
        <ele>36.6</ele>
        <time>2020-05-31T12:27:38Z</time>
      </trkpt>
      <trkpt lat="46.33713" lon="-0.51209">
        <ele>36.6</ele>
        <time>2020-05-31T12:27:39Z</time>
      </trkpt>
      <trkpt lat="46.33713" lon="-0.51209">
        <ele>36.6</ele>
        <time>2020-05-31T12:27:40Z</time>
      </trkpt>
      <trkpt lat="46.33712" lon="-0.5121">
        <ele>36.6</ele>
        <time>2020-05-31T12:27:41Z</time>
      </trkpt>
      <trkpt lat="46.33713" lon="-0.5121">
        <ele>36.6</ele>
        <time>2020-05-31T12:27:42Z</time>
      </trkpt>
      <trkpt lat="46.33713" lon="-0.5121">
        <ele>36.6</ele>
        <time>2020-05-31T12:27:43Z</time>
      </trkpt>
      <trkpt lat="46.33713" lon="-0.5121">
        <ele>36.6</ele>
        <time>2020-05-31T12:27:44Z</time>
      </trkpt>
      <trkpt lat="46.33713" lon="-0.5121">
        <ele>36.6</ele>
        <time>2020-05-31T12:27:45Z</time>
      </trkpt>
      <trkpt lat="46.33714" lon="-0.5121">
        <ele>36.6</ele>
        <time>2020-05-31T12:27:46Z</time>
      </trkpt>
      <trkpt lat="46.33716" lon="-0.51209">
        <ele>36.6</ele>
        <time>2020-05-31T12:27:47Z</time>
      </trkpt>
      <trkpt lat="46.33716" lon="-0.51208">
        <ele>36.6</ele>
        <time>2020-05-31T12:27:48Z</time>
      </trkpt>
      <trkpt lat="46.33717" lon="-0.51208">
        <ele>36.6</ele>
        <time>2020-05-31T12:27:49Z</time>
      </trkpt>
      <trkpt lat="46.33718" lon="-0.51208">
        <ele>36.6</ele>
        <time>2020-05-31T12:27:50Z</time>
      </trkpt>
      <trkpt lat="46.33719" lon="-0.51209">
        <ele>36.6</ele>
        <time>2020-05-31T12:27:51Z</time>
      </trkpt>
      <trkpt lat="46.3372" lon="-0.51208">
        <ele>36.6</ele>
        <time>2020-05-31T12:27:52Z</time>
      </trkpt>
      <trkpt lat="46.3372" lon="-0.51209">
        <ele>36.6</ele>
        <time>2020-05-31T12:27:53Z</time>
      </trkpt>
      <trkpt lat="46.3372" lon="-0.51208">
        <ele>36.6</ele>
        <time>2020-05-31T12:27:54Z</time>
      </trkpt>
      <trkpt lat="46.3372" lon="-0.51208">
        <ele>36.6</ele>
        <time>2020-05-31T12:27:55Z</time>
      </trkpt>
      <trkpt lat="46.3372" lon="-0.51208">
        <ele>36.6</ele>
        <time>2020-05-31T12:27:56Z</time>
      </trkpt>
      <trkpt lat="46.33721" lon="-0.51208">
        <ele>36.6</ele>
        <time>2020-05-31T12:27:57Z</time>
      </trkpt>
      <trkpt lat="46.33721" lon="-0.51208">
        <ele>36.6</ele>
        <time>2020-05-31T12:27:58Z</time>
      </trkpt>
      <trkpt lat="46.33722" lon="-0.51207">
        <ele>36.6</ele>
        <time>2020-05-31T12:27:59Z</time>
      </trkpt>
      <trkpt lat="46.33722" lon="-0.51207">
        <ele>36.6</ele>
        <time>2020-05-31T12:28:00Z</time>
      </trkpt>
      <trkpt lat="46.33722" lon="-0.51207">
        <ele>36.6</ele>
        <time>2020-05-31T12:28:01Z</time>
      </trkpt>
      <trkpt lat="46.33722" lon="-0.51207">
        <ele>36.6</ele>
        <time>2020-05-31T12:28:02Z</time>
      </trkpt>
      <trkpt lat="46.33722" lon="-0.51207">
        <ele>36.6</ele>
        <time>2020-05-31T12:28:03Z</time>
      </trkpt>
      <trkpt lat="46.33722" lon="-0.51207">
        <ele>36.6</ele>
        <time>2020-05-31T12:28:04Z</time>
      </trkpt>
      <trkpt lat="46.33722" lon="-0.51207">
        <ele>36.6</ele>
        <time>2020-05-31T12:28:05Z</time>
      </trkpt>
      <trkpt lat="46.33722" lon="-0.51207">
        <ele>36.6</ele>
        <time>2020-05-31T12:28:06Z</time>
      </trkpt>
      <trkpt lat="46.33722" lon="-0.51207">
        <ele>36.6</ele>
        <time>2020-05-31T12:28:07Z</time>
      </trkpt>
      <trkpt lat="46.33722" lon="-0.51207">
        <ele>36.6</ele>
        <time>2020-05-31T12:28:08Z</time>
      </trkpt>
      <trkpt lat="46.33722" lon="-0.51207">
        <ele>36.6</ele>
        <time>2020-05-31T12:28:09Z</time>
      </trkpt>
      <trkpt lat="46.33722" lon="-0.51207">
        <ele>36.6</ele>
        <time>2020-05-31T12:28:10Z</time>
      </trkpt>
      <trkpt lat="46.33722" lon="-0.51207">
        <ele>36.6</ele>
        <time>2020-05-31T12:28:11Z</time>
      </trkpt>
      <trkpt lat="46.33722" lon="-0.51207">
        <ele>36.6</ele>
        <time>2020-05-31T12:28:12Z</time>
      </trkpt>
      <trkpt lat="46.33722" lon="-0.51207">
        <ele>36.6</ele>
        <time>2020-05-31T12:28:13Z</time>
      </trkpt>
      <trkpt lat="46.33722" lon="-0.51207">
        <ele>36.6</ele>
        <time>2020-05-31T12:28:14Z</time>
      </trkpt>
      <trkpt lat="46.33722" lon="-0.51207">
        <ele>36.6</ele>
        <time>2020-05-31T12:28:15Z</time>
      </trkpt>
      <trkpt lat="46.33722" lon="-0.51207">
        <ele>36.6</ele>
        <time>2020-05-31T12:28:16Z</time>
      </trkpt>
      <trkpt lat="46.33721" lon="-0.51206">
        <ele>36.6</ele>
        <time>2020-05-31T12:28:17Z</time>
      </trkpt>
      <trkpt lat="46.33721" lon="-0.51206">
        <ele>36.6</ele>
        <time>2020-05-31T12:28:18Z</time>
      </trkpt>
      <trkpt lat="46.3372" lon="-0.51207">
        <ele>36.6</ele>
        <time>2020-05-31T12:28:19Z</time>
      </trkpt>
      <trkpt lat="46.3372" lon="-0.51209">
        <ele>36.6</ele>
        <time>2020-05-31T12:28:20Z</time>
      </trkpt>
      <trkpt lat="46.3372" lon="-0.5121">
        <ele>36.6</ele>
        <time>2020-05-31T12:28:21Z</time>
      </trkpt>
      <trkpt lat="46.3372" lon="-0.51211">
        <ele>36.6</ele>
        <time>2020-05-31T12:28:22Z</time>
      </trkpt>
      <trkpt lat="46.33718" lon="-0.51215">
        <ele>36.6</ele>
        <time>2020-05-31T12:28:23Z</time>
      </trkpt>
      <trkpt lat="46.33718" lon="-0.51216">
        <ele>36.6</ele>
        <time>2020-05-31T12:28:24Z</time>
      </trkpt>
      <trkpt lat="46.33715" lon="-0.5122">
        <ele>36.6</ele>
        <time>2020-05-31T12:28:25Z</time>
      </trkpt>
      <trkpt lat="46.33714" lon="-0.51225">
        <ele>36.5</ele>
        <time>2020-05-31T12:28:26Z</time>
      </trkpt>
      <trkpt lat="46.33713" lon="-0.51226">
        <ele>36.5</ele>
        <time>2020-05-31T12:28:27Z</time>
      </trkpt>
      <trkpt lat="46.33711" lon="-0.51232">
        <ele>36.5</ele>
        <time>2020-05-31T12:28:28Z</time>
      </trkpt>
      <trkpt lat="46.33709" lon="-0.51236">
        <ele>36.5</ele>
        <time>2020-05-31T12:28:29Z</time>
      </trkpt>
      <trkpt lat="46.33706" lon="-0.51239">
        <ele>36.4</ele>
        <time>2020-05-31T12:28:30Z</time>
      </trkpt>
      <trkpt lat="46.33704" lon="-0.51244">
        <ele>36.4</ele>
        <time>2020-05-31T12:28:31Z</time>
      </trkpt>
      <trkpt lat="46.33702" lon="-0.51247">
        <ele>36.4</ele>
        <time>2020-05-31T12:28:32Z</time>
      </trkpt>
      <trkpt lat="46.33701" lon="-0.51252">
        <ele>36.3</ele>
        <time>2020-05-31T12:28:33Z</time>
      </trkpt>
      <trkpt lat="46.33701" lon="-0.51256">
        <ele>36.3</ele>
        <time>2020-05-31T12:28:34Z</time>
      </trkpt>
      <trkpt lat="46.337" lon="-0.51261">
        <ele>36.2</ele>
        <time>2020-05-31T12:28:35Z</time>
      </trkpt>
      <trkpt lat="46.337" lon="-0.51265">
        <ele>36.1</ele>
        <time>2020-05-31T12:28:36Z</time>
      </trkpt>
      <trkpt lat="46.33698" lon="-0.5127">
        <ele>36.1</ele>
        <time>2020-05-31T12:28:37Z</time>
      </trkpt>
      <trkpt lat="46.33695" lon="-0.51274">
        <ele>36</ele>
        <time>2020-05-31T12:28:38Z</time>
      </trkpt>
      <trkpt lat="46.33693" lon="-0.51276">
        <ele>35.9</ele>
        <time>2020-05-31T12:28:39Z</time>
      </trkpt>
      <trkpt lat="46.33691" lon="-0.5128">
        <ele>35.9</ele>
        <time>2020-05-31T12:28:40Z</time>
      </trkpt>
      <trkpt lat="46.3369" lon="-0.51284">
        <ele>35.8</ele>
        <time>2020-05-31T12:28:41Z</time>
      </trkpt>
      <trkpt lat="46.33688" lon="-0.51288">
        <ele>35.7</ele>
        <time>2020-05-31T12:28:42Z</time>
      </trkpt>
      <trkpt lat="46.33688" lon="-0.51289">
        <ele>35.7</ele>
        <time>2020-05-31T12:28:43Z</time>
      </trkpt>
      <trkpt lat="46.33688" lon="-0.51289">
        <ele>35.7</ele>
        <time>2020-05-31T12:28:44Z</time>
      </trkpt>
      <trkpt lat="46.33688" lon="-0.5129">
        <ele>35.7</ele>
        <time>2020-05-31T12:28:45Z</time>
      </trkpt>
      <trkpt lat="46.33689" lon="-0.5129">
        <ele>35.7</ele>
        <time>2020-05-31T12:28:46Z</time>
      </trkpt>
      <trkpt lat="46.33688" lon="-0.5129">
        <ele>35.7</ele>
        <time>2020-05-31T12:28:47Z</time>
      </trkpt>
      <trkpt lat="46.33689" lon="-0.5129">
        <ele>35.7</ele>
        <time>2020-05-31T12:28:48Z</time>
      </trkpt>
      <trkpt lat="46.33688" lon="-0.5129">
        <ele>35.7</ele>
        <time>2020-05-31T12:28:49Z</time>
      </trkpt>
      <trkpt lat="46.33688" lon="-0.51289">
        <ele>35.7</ele>
        <time>2020-05-31T12:28:50Z</time>
      </trkpt>
      <trkpt lat="46.33688" lon="-0.5129">
        <ele>35.6</ele>
        <time>2020-05-31T12:28:51Z</time>
      </trkpt>
      <trkpt lat="46.33688" lon="-0.51291">
        <ele>35.6</ele>
        <time>2020-05-31T12:28:52Z</time>
      </trkpt>
      <trkpt lat="46.33689" lon="-0.51293">
        <ele>35.6</ele>
        <time>2020-05-31T12:28:53Z</time>
      </trkpt>
      <trkpt lat="46.33688" lon="-0.51298">
        <ele>35.5</ele>
        <time>2020-05-31T12:28:54Z</time>
      </trkpt>
      <trkpt lat="46.33687" lon="-0.51299">
        <ele>35.5</ele>
        <time>2020-05-31T12:28:55Z</time>
      </trkpt>
      <trkpt lat="46.33685" lon="-0.51302">
        <ele>35.5</ele>
        <time>2020-05-31T12:28:56Z</time>
      </trkpt>
      <trkpt lat="46.33683" lon="-0.51306">
        <ele>35.4</ele>
        <time>2020-05-31T12:28:57Z</time>
      </trkpt>
      <trkpt lat="46.33681" lon="-0.51309">
        <ele>35.3</ele>
        <time>2020-05-31T12:28:58Z</time>
      </trkpt>
      <trkpt lat="46.3368" lon="-0.51313">
        <ele>35.3</ele>
        <time>2020-05-31T12:28:59Z</time>
      </trkpt>
      <trkpt lat="46.33678" lon="-0.51318">
        <ele>35.2</ele>
        <time>2020-05-31T12:29:00Z</time>
      </trkpt>
      <trkpt lat="46.33675" lon="-0.51323">
        <ele>35.2</ele>
        <time>2020-05-31T12:29:01Z</time>
      </trkpt>
      <trkpt lat="46.33673" lon="-0.51327">
        <ele>35.1</ele>
        <time>2020-05-31T12:29:02Z</time>
      </trkpt>
      <trkpt lat="46.33672" lon="-0.51332">
        <ele>35</ele>
        <time>2020-05-31T12:29:03Z</time>
      </trkpt>
      <trkpt lat="46.3367" lon="-0.51337">
        <ele>35</ele>
        <time>2020-05-31T12:29:04Z</time>
      </trkpt>
      <trkpt lat="46.33668" lon="-0.51342">
        <ele>34.9</ele>
        <time>2020-05-31T12:29:05Z</time>
      </trkpt>
      <trkpt lat="46.33666" lon="-0.51346">
        <ele>34.9</ele>
        <time>2020-05-31T12:29:06Z</time>
      </trkpt>
      <trkpt lat="46.33665" lon="-0.5135">
        <ele>34.8</ele>
        <time>2020-05-31T12:29:07Z</time>
      </trkpt>
      <trkpt lat="46.33664" lon="-0.51355">
        <ele>34.8</ele>
        <time>2020-05-31T12:29:08Z</time>
      </trkpt>
      <trkpt lat="46.33662" lon="-0.5136">
        <ele>34.7</ele>
        <time>2020-05-31T12:29:09Z</time>
      </trkpt>
      <trkpt lat="46.33659" lon="-0.51365">
        <ele>34.6</ele>
        <time>2020-05-31T12:29:10Z</time>
      </trkpt>
      <trkpt lat="46.33657" lon="-0.51371">
        <ele>34.6</ele>
        <time>2020-05-31T12:29:11Z</time>
      </trkpt>
      <trkpt lat="46.33655" lon="-0.51376">
        <ele>34.5</ele>
        <time>2020-05-31T12:29:12Z</time>
      </trkpt>
      <trkpt lat="46.33654" lon="-0.5138">
        <ele>34.4</ele>
        <time>2020-05-31T12:29:13Z</time>
      </trkpt>
      <trkpt lat="46.33652" lon="-0.51385">
        <ele>34.4</ele>
        <time>2020-05-31T12:29:14Z</time>
      </trkpt>
      <trkpt lat="46.3365" lon="-0.5139">
        <ele>34.3</ele>
        <time>2020-05-31T12:29:15Z</time>
      </trkpt>
      <trkpt lat="46.33648" lon="-0.51395">
        <ele>34.2</ele>
        <time>2020-05-31T12:29:16Z</time>
      </trkpt>
      <trkpt lat="46.33646" lon="-0.514">
        <ele>34.1</ele>
        <time>2020-05-31T12:29:17Z</time>
      </trkpt>
      <trkpt lat="46.33645" lon="-0.51405">
        <ele>34.1</ele>
        <time>2020-05-31T12:29:18Z</time>
      </trkpt>
      <trkpt lat="46.33644" lon="-0.51409">
        <ele>34</ele>
        <time>2020-05-31T12:29:19Z</time>
      </trkpt>
      <trkpt lat="46.33644" lon="-0.51412">
        <ele>34</ele>
        <time>2020-05-31T12:29:20Z</time>
      </trkpt>
      <trkpt lat="46.33643" lon="-0.51413">
        <ele>33.9</ele>
        <time>2020-05-31T12:29:21Z</time>
      </trkpt>
      <trkpt lat="46.33643" lon="-0.51413">
        <ele>33.9</ele>
        <time>2020-05-31T12:29:22Z</time>
      </trkpt>
      <trkpt lat="46.33644" lon="-0.51413">
        <ele>33.9</ele>
        <time>2020-05-31T12:29:23Z</time>
      </trkpt>
      <trkpt lat="46.33643" lon="-0.51413">
        <ele>33.9</ele>
        <time>2020-05-31T12:29:24Z</time>
      </trkpt>
      <trkpt lat="46.33643" lon="-0.51413">
        <ele>33.9</ele>
        <time>2020-05-31T12:29:25Z</time>
      </trkpt>
      <trkpt lat="46.33644" lon="-0.51413">
        <ele>33.9</ele>
        <time>2020-05-31T12:29:26Z</time>
      </trkpt>
      <trkpt lat="46.33644" lon="-0.51413">
        <ele>33.9</ele>
        <time>2020-05-31T12:29:27Z</time>
      </trkpt>
      <trkpt lat="46.33643" lon="-0.51413">
        <ele>33.9</ele>
        <time>2020-05-31T12:29:28Z</time>
      </trkpt>
      <trkpt lat="46.33643" lon="-0.51412">
        <ele>33.9</ele>
        <time>2020-05-31T12:29:29Z</time>
      </trkpt>
      <trkpt lat="46.33644" lon="-0.51412">
        <ele>33.9</ele>
        <time>2020-05-31T12:29:30Z</time>
      </trkpt>
      <trkpt lat="46.33644" lon="-0.51412">
        <ele>33.9</ele>
        <time>2020-05-31T12:29:31Z</time>
      </trkpt>
      <trkpt lat="46.33644" lon="-0.51412">
        <ele>33.9</ele>
        <time>2020-05-31T12:29:32Z</time>
      </trkpt>
      <trkpt lat="46.33644" lon="-0.51412">
        <ele>33.8</ele>
        <time>2020-05-31T12:29:33Z</time>
      </trkpt>
      <trkpt lat="46.33644" lon="-0.51412">
        <ele>33.8</ele>
        <time>2020-05-31T12:29:34Z</time>
      </trkpt>
      <trkpt lat="46.33645" lon="-0.51412">
        <ele>33.8</ele>
        <time>2020-05-31T12:29:35Z</time>
      </trkpt>
      <trkpt lat="46.33645" lon="-0.51412">
        <ele>33.8</ele>
        <time>2020-05-31T12:29:36Z</time>
      </trkpt>
      <trkpt lat="46.33645" lon="-0.51412">
        <ele>33.8</ele>
        <time>2020-05-31T12:29:37Z</time>
      </trkpt>
      <trkpt lat="46.33645" lon="-0.51412">
        <ele>33.8</ele>
        <time>2020-05-31T12:29:38Z</time>
      </trkpt>
      <trkpt lat="46.33646" lon="-0.51412">
        <ele>33.8</ele>
        <time>2020-05-31T12:29:39Z</time>
      </trkpt>
      <trkpt lat="46.33646" lon="-0.51412">
        <ele>33.8</ele>
        <time>2020-05-31T12:29:40Z</time>
      </trkpt>
      <trkpt lat="46.33645" lon="-0.51412">
        <ele>33.8</ele>
        <time>2020-05-31T12:29:41Z</time>
      </trkpt>
      <trkpt lat="46.33645" lon="-0.51412">
        <ele>33.8</ele>
        <time>2020-05-31T12:29:42Z</time>
      </trkpt>
      <trkpt lat="46.33644" lon="-0.51412">
        <ele>33.7</ele>
        <time>2020-05-31T12:29:43Z</time>
      </trkpt>
      <trkpt lat="46.33644" lon="-0.51412">
        <ele>33.7</ele>
        <time>2020-05-31T12:29:44Z</time>
      </trkpt>
      <trkpt lat="46.33643" lon="-0.51412">
        <ele>33.7</ele>
        <time>2020-05-31T12:29:45Z</time>
      </trkpt>
      <trkpt lat="46.33643" lon="-0.51412">
        <ele>33.7</ele>
        <time>2020-05-31T12:29:46Z</time>
      </trkpt>
      <trkpt lat="46.33642" lon="-0.51412">
        <ele>33.7</ele>
        <time>2020-05-31T12:29:47Z</time>
      </trkpt>
      <trkpt lat="46.33643" lon="-0.51412">
        <ele>33.7</ele>
        <time>2020-05-31T12:29:48Z</time>
      </trkpt>
      <trkpt lat="46.33643" lon="-0.51411">
        <ele>33.7</ele>
        <time>2020-05-31T12:29:49Z</time>
      </trkpt>
      <trkpt lat="46.33644" lon="-0.51412">
        <ele>33.6</ele>
        <time>2020-05-31T12:29:50Z</time>
      </trkpt>
      <trkpt lat="46.33644" lon="-0.51412">
        <ele>33.6</ele>
        <time>2020-05-31T12:29:51Z</time>
      </trkpt>
      <trkpt lat="46.33645" lon="-0.51412">
        <ele>33.6</ele>
        <time>2020-05-31T12:29:52Z</time>
      </trkpt>
      <trkpt lat="46.33645" lon="-0.51412">
        <ele>33.6</ele>
        <time>2020-05-31T12:29:53Z</time>
      </trkpt>
      <trkpt lat="46.33645" lon="-0.51412">
        <ele>33.6</ele>
        <time>2020-05-31T12:29:54Z</time>
      </trkpt>
      <trkpt lat="46.33646" lon="-0.51413">
        <ele>33.6</ele>
        <time>2020-05-31T12:29:55Z</time>
      </trkpt>
      <trkpt lat="46.33646" lon="-0.51413">
        <ele>33.6</ele>
        <time>2020-05-31T12:29:56Z</time>
      </trkpt>
      <trkpt lat="46.33647" lon="-0.51413">
        <ele>33.6</ele>
        <time>2020-05-31T12:29:57Z</time>
      </trkpt>
      <trkpt lat="46.33646" lon="-0.51414">
        <ele>33.6</ele>
        <time>2020-05-31T12:29:58Z</time>
      </trkpt>
      <trkpt lat="46.33647" lon="-0.51416">
        <ele>33.5</ele>
        <time>2020-05-31T12:29:59Z</time>
      </trkpt>
      <trkpt lat="46.33645" lon="-0.51417">
        <ele>33.5</ele>
        <time>2020-05-31T12:30:00Z</time>
      </trkpt>
      <trkpt lat="46.33642" lon="-0.5142">
        <ele>33.4</ele>
        <time>2020-05-31T12:30:01Z</time>
      </trkpt>
      <trkpt lat="46.33639" lon="-0.51423">
        <ele>33.2</ele>
        <time>2020-05-31T12:30:02Z</time>
      </trkpt>
      <trkpt lat="46.33636" lon="-0.51424">
        <ele>33.1</ele>
        <time>2020-05-31T12:30:03Z</time>
      </trkpt>
      <trkpt lat="46.33633" lon="-0.51426">
        <ele>33.1</ele>
        <time>2020-05-31T12:30:04Z</time>
      </trkpt>
      <trkpt lat="46.3363" lon="-0.51428">
        <ele>33</ele>
        <time>2020-05-31T12:30:05Z</time>
      </trkpt>
      <trkpt lat="46.33627" lon="-0.5143">
        <ele>32.9</ele>
        <time>2020-05-31T12:30:06Z</time>
      </trkpt>
      <trkpt lat="46.33624" lon="-0.51433">
        <ele>32.8</ele>
        <time>2020-05-31T12:30:07Z</time>
      </trkpt>
      <trkpt lat="46.33621" lon="-0.51437">
        <ele>32.7</ele>
        <time>2020-05-31T12:30:08Z</time>
      </trkpt>
      <trkpt lat="46.33618" lon="-0.51441">
        <ele>32.6</ele>
        <time>2020-05-31T12:30:09Z</time>
      </trkpt>
      <trkpt lat="46.33615" lon="-0.51446">
        <ele>32.5</ele>
        <time>2020-05-31T12:30:10Z</time>
      </trkpt>
      <trkpt lat="46.33612" lon="-0.51451">
        <ele>32.3</ele>
        <time>2020-05-31T12:30:11Z</time>
      </trkpt>
      <trkpt lat="46.33608" lon="-0.51455">
        <ele>32.2</ele>
        <time>2020-05-31T12:30:12Z</time>
      </trkpt>
      <trkpt lat="46.33605" lon="-0.5146">
        <ele>32.1</ele>
        <time>2020-05-31T12:30:13Z</time>
      </trkpt>
      <trkpt lat="46.33601" lon="-0.51464">
        <ele>32</ele>
        <time>2020-05-31T12:30:14Z</time>
      </trkpt>
      <trkpt lat="46.33597" lon="-0.51469">
        <ele>31.9</ele>
        <time>2020-05-31T12:30:15Z</time>
      </trkpt>
      <trkpt lat="46.33593" lon="-0.51475">
        <ele>31.8</ele>
        <time>2020-05-31T12:30:16Z</time>
      </trkpt>
      <trkpt lat="46.33589" lon="-0.5148">
        <ele>31.6</ele>
        <time>2020-05-31T12:30:17Z</time>
      </trkpt>
      <trkpt lat="46.33584" lon="-0.51485">
        <ele>31.5</ele>
        <time>2020-05-31T12:30:18Z</time>
      </trkpt>
      <trkpt lat="46.3358" lon="-0.5149">
        <ele>31.3</ele>
        <time>2020-05-31T12:30:19Z</time>
      </trkpt>
      <trkpt lat="46.33575" lon="-0.51496">
        <ele>31.2</ele>
        <time>2020-05-31T12:30:20Z</time>
      </trkpt>
      <trkpt lat="46.33571" lon="-0.51502">
        <ele>31</ele>
        <time>2020-05-31T12:30:21Z</time>
      </trkpt>
      <trkpt lat="46.33567" lon="-0.51508">
        <ele>30.9</ele>
        <time>2020-05-31T12:30:22Z</time>
      </trkpt>
      <trkpt lat="46.33562" lon="-0.51513">
        <ele>30.8</ele>
        <time>2020-05-31T12:30:23Z</time>
      </trkpt>
      <trkpt lat="46.33558" lon="-0.51519">
        <ele>30.7</ele>
        <time>2020-05-31T12:30:24Z</time>
      </trkpt>
      <trkpt lat="46.33553" lon="-0.51524">
        <ele>30.7</ele>
        <time>2020-05-31T12:30:25Z</time>
      </trkpt>
      <trkpt lat="46.33549" lon="-0.5153">
        <ele>30.7</ele>
        <time>2020-05-31T12:30:26Z</time>
      </trkpt>
      <trkpt lat="46.33544" lon="-0.51535">
        <ele>30.6</ele>
        <time>2020-05-31T12:30:27Z</time>
      </trkpt>
      <trkpt lat="46.3354" lon="-0.51541">
        <ele>30.5</ele>
        <time>2020-05-31T12:30:28Z</time>
      </trkpt>
      <trkpt lat="46.33535" lon="-0.51546">
        <ele>30.4</ele>
        <time>2020-05-31T12:30:29Z</time>
      </trkpt>
      <trkpt lat="46.3353" lon="-0.51551">
        <ele>30.2</ele>
        <time>2020-05-31T12:30:30Z</time>
      </trkpt>
      <trkpt lat="46.33525" lon="-0.51556">
        <ele>30.1</ele>
        <time>2020-05-31T12:30:31Z</time>
      </trkpt>
      <trkpt lat="46.3352" lon="-0.51561">
        <ele>29.9</ele>
        <time>2020-05-31T12:30:32Z</time>
      </trkpt>
      <trkpt lat="46.33514" lon="-0.51567">
        <ele>29.8</ele>
        <time>2020-05-31T12:30:33Z</time>
      </trkpt>
      <trkpt lat="46.33509" lon="-0.51573">
        <ele>29.6</ele>
        <time>2020-05-31T12:30:34Z</time>
      </trkpt>
      <trkpt lat="46.33504" lon="-0.51579">
        <ele>29.5</ele>
        <time>2020-05-31T12:30:35Z</time>
      </trkpt>
      <trkpt lat="46.33499" lon="-0.51585">
        <ele>29.3</ele>
        <time>2020-05-31T12:30:36Z</time>
      </trkpt>
      <trkpt lat="46.33494" lon="-0.51592">
        <ele>29.2</ele>
        <time>2020-05-31T12:30:37Z</time>
      </trkpt>
      <trkpt lat="46.33488" lon="-0.51598">
        <ele>29</ele>
        <time>2020-05-31T12:30:38Z</time>
      </trkpt>
      <trkpt lat="46.33482" lon="-0.51605">
        <ele>28.8</ele>
        <time>2020-05-31T12:30:39Z</time>
      </trkpt>
      <trkpt lat="46.33476" lon="-0.51611">
        <ele>28.5</ele>
        <time>2020-05-31T12:30:40Z</time>
      </trkpt>
      <trkpt lat="46.3347" lon="-0.51617">
        <ele>28.3</ele>
        <time>2020-05-31T12:30:41Z</time>
      </trkpt>
      <trkpt lat="46.33464" lon="-0.51624">
        <ele>28.1</ele>
        <time>2020-05-31T12:30:42Z</time>
      </trkpt>
      <trkpt lat="46.33458" lon="-0.51631">
        <ele>27.9</ele>
        <time>2020-05-31T12:30:43Z</time>
      </trkpt>
      <trkpt lat="46.33453" lon="-0.51638">
        <ele>27.7</ele>
        <time>2020-05-31T12:30:44Z</time>
      </trkpt>
      <trkpt lat="46.33447" lon="-0.51645">
        <ele>27.5</ele>
        <time>2020-05-31T12:30:45Z</time>
      </trkpt>
      <trkpt lat="46.33441" lon="-0.51653">
        <ele>27.4</ele>
        <time>2020-05-31T12:30:46Z</time>
      </trkpt>
      <trkpt lat="46.33435" lon="-0.5166">
        <ele>27.2</ele>
        <time>2020-05-31T12:30:47Z</time>
      </trkpt>
      <trkpt lat="46.33429" lon="-0.51667">
        <ele>27.1</ele>
        <time>2020-05-31T12:30:48Z</time>
      </trkpt>
      <trkpt lat="46.33422" lon="-0.51674">
        <ele>27</ele>
        <time>2020-05-31T12:30:49Z</time>
      </trkpt>
      <trkpt lat="46.33417" lon="-0.51681">
        <ele>26.9</ele>
        <time>2020-05-31T12:30:50Z</time>
      </trkpt>
      <trkpt lat="46.33411" lon="-0.51687">
        <ele>26.8</ele>
        <time>2020-05-31T12:30:51Z</time>
      </trkpt>
      <trkpt lat="46.33406" lon="-0.51693">
        <ele>26.7</ele>
        <time>2020-05-31T12:30:52Z</time>
      </trkpt>
      <trkpt lat="46.33401" lon="-0.51699">
        <ele>26.6</ele>
        <time>2020-05-31T12:30:53Z</time>
      </trkpt>
      <trkpt lat="46.33397" lon="-0.51704">
        <ele>26.5</ele>
        <time>2020-05-31T12:30:54Z</time>
      </trkpt>
      <trkpt lat="46.33393" lon="-0.51709">
        <ele>26.4</ele>
        <time>2020-05-31T12:30:55Z</time>
      </trkpt>
      <trkpt lat="46.33389" lon="-0.51713">
        <ele>26.3</ele>
        <time>2020-05-31T12:30:56Z</time>
      </trkpt>
      <trkpt lat="46.33386" lon="-0.51716">
        <ele>26.2</ele>
        <time>2020-05-31T12:30:57Z</time>
      </trkpt>
      <trkpt lat="46.33386" lon="-0.51718">
        <ele>26.2</ele>
        <time>2020-05-31T12:30:58Z</time>
      </trkpt>
      <trkpt lat="46.33387" lon="-0.51718">
        <ele>26.2</ele>
        <time>2020-05-31T12:30:59Z</time>
      </trkpt>
      <trkpt lat="46.33386" lon="-0.51719">
        <ele>26.2</ele>
        <time>2020-05-31T12:31:00Z</time>
      </trkpt>
      <trkpt lat="46.33385" lon="-0.51719">
        <ele>26.2</ele>
        <time>2020-05-31T12:31:01Z</time>
      </trkpt>
      <trkpt lat="46.33385" lon="-0.51718">
        <ele>26.2</ele>
        <time>2020-05-31T12:31:02Z</time>
      </trkpt>
      <trkpt lat="46.33385" lon="-0.51719">
        <ele>26.2</ele>
        <time>2020-05-31T12:31:03Z</time>
      </trkpt>
      <trkpt lat="46.33385" lon="-0.51719">
        <ele>26.2</ele>
        <time>2020-05-31T12:31:04Z</time>
      </trkpt>
      <trkpt lat="46.33385" lon="-0.51719">
        <ele>26.2</ele>
        <time>2020-05-31T12:31:05Z</time>
      </trkpt>
      <trkpt lat="46.33385" lon="-0.51719">
        <ele>26.2</ele>
        <time>2020-05-31T12:31:06Z</time>
      </trkpt>
      <trkpt lat="46.33384" lon="-0.51719">
        <ele>26.2</ele>
        <time>2020-05-31T12:31:07Z</time>
      </trkpt>
      <trkpt lat="46.33385" lon="-0.5172">
        <ele>26.1</ele>
        <time>2020-05-31T12:31:08Z</time>
      </trkpt>
      <trkpt lat="46.33384" lon="-0.51721">
        <ele>26.1</ele>
        <time>2020-05-31T12:31:09Z</time>
      </trkpt>
      <trkpt lat="46.33384" lon="-0.5172">
        <ele>26.1</ele>
        <time>2020-05-31T12:31:10Z</time>
      </trkpt>
      <trkpt lat="46.33384" lon="-0.51721">
        <ele>26.1</ele>
        <time>2020-05-31T12:31:11Z</time>
      </trkpt>
      <trkpt lat="46.33383" lon="-0.51723">
        <ele>26.1</ele>
        <time>2020-05-31T12:31:12Z</time>
      </trkpt>
      <trkpt lat="46.33382" lon="-0.51724">
        <ele>26.1</ele>
        <time>2020-05-31T12:31:13Z</time>
      </trkpt>
      <trkpt lat="46.33381" lon="-0.51726">
        <ele>26</ele>
        <time>2020-05-31T12:31:14Z</time>
      </trkpt>
      <trkpt lat="46.33379" lon="-0.51729">
        <ele>26</ele>
        <time>2020-05-31T12:31:15Z</time>
      </trkpt>
      <trkpt lat="46.33378" lon="-0.51731">
        <ele>26</ele>
        <time>2020-05-31T12:31:16Z</time>
      </trkpt>
      <trkpt lat="46.33375" lon="-0.51733">
        <ele>25.9</ele>
        <time>2020-05-31T12:31:17Z</time>
      </trkpt>
      <trkpt lat="46.33373" lon="-0.51736">
        <ele>25.9</ele>
        <time>2020-05-31T12:31:18Z</time>
      </trkpt>
      <trkpt lat="46.33371" lon="-0.51738">
        <ele>25.8</ele>
        <time>2020-05-31T12:31:19Z</time>
      </trkpt>
      <trkpt lat="46.33368" lon="-0.51742">
        <ele>25.8</ele>
        <time>2020-05-31T12:31:20Z</time>
      </trkpt>
      <trkpt lat="46.33365" lon="-0.51746">
        <ele>25.7</ele>
        <time>2020-05-31T12:31:21Z</time>
      </trkpt>
      <trkpt lat="46.33362" lon="-0.51751">
        <ele>25.6</ele>
        <time>2020-05-31T12:31:22Z</time>
      </trkpt>
      <trkpt lat="46.33359" lon="-0.51754">
        <ele>25.6</ele>
        <time>2020-05-31T12:31:23Z</time>
      </trkpt>
      <trkpt lat="46.33355" lon="-0.51758">
        <ele>25.5</ele>
        <time>2020-05-31T12:31:24Z</time>
      </trkpt>
      <trkpt lat="46.33352" lon="-0.51762">
        <ele>25.5</ele>
        <time>2020-05-31T12:31:25Z</time>
      </trkpt>
      <trkpt lat="46.33348" lon="-0.51767">
        <ele>25.5</ele>
        <time>2020-05-31T12:31:26Z</time>
      </trkpt>
      <trkpt lat="46.33344" lon="-0.51772">
        <ele>25.4</ele>
        <time>2020-05-31T12:31:27Z</time>
      </trkpt>
      <trkpt lat="46.33339" lon="-0.51777">
        <ele>25.4</ele>
        <time>2020-05-31T12:31:28Z</time>
      </trkpt>
      <trkpt lat="46.33334" lon="-0.51782">
        <ele>25.4</ele>
        <time>2020-05-31T12:31:29Z</time>
      </trkpt>
      <trkpt lat="46.3333" lon="-0.51789">
        <ele>25.3</ele>
        <time>2020-05-31T12:31:30Z</time>
      </trkpt>
      <trkpt lat="46.33325" lon="-0.51797">
        <ele>25.3</ele>
        <time>2020-05-31T12:31:31Z</time>
      </trkpt>
      <trkpt lat="46.3332" lon="-0.51803">
        <ele>25.3</ele>
        <time>2020-05-31T12:31:32Z</time>
      </trkpt>
      <trkpt lat="46.33314" lon="-0.51809">
        <ele>25.2</ele>
        <time>2020-05-31T12:31:33Z</time>
      </trkpt>
      <trkpt lat="46.33308" lon="-0.51816">
        <ele>25.1</ele>
        <time>2020-05-31T12:31:34Z</time>
      </trkpt>
      <trkpt lat="46.33303" lon="-0.51823">
        <ele>25</ele>
        <time>2020-05-31T12:31:35Z</time>
      </trkpt>
      <trkpt lat="46.33297" lon="-0.5183">
        <ele>24.9</ele>
        <time>2020-05-31T12:31:36Z</time>
      </trkpt>
      <trkpt lat="46.33291" lon="-0.51837">
        <ele>24.7</ele>
        <time>2020-05-31T12:31:37Z</time>
      </trkpt>
      <trkpt lat="46.33285" lon="-0.51843">
        <ele>24.5</ele>
        <time>2020-05-31T12:31:38Z</time>
      </trkpt>
      <trkpt lat="46.33279" lon="-0.5185">
        <ele>24.4</ele>
        <time>2020-05-31T12:31:39Z</time>
      </trkpt>
      <trkpt lat="46.33273" lon="-0.51856">
        <ele>24.3</ele>
        <time>2020-05-31T12:31:40Z</time>
      </trkpt>
      <trkpt lat="46.33267" lon="-0.51863">
        <ele>24.2</ele>
        <time>2020-05-31T12:31:41Z</time>
      </trkpt>
      <trkpt lat="46.33262" lon="-0.5187">
        <ele>24.2</ele>
        <time>2020-05-31T12:31:42Z</time>
      </trkpt>
      <trkpt lat="46.33256" lon="-0.51877">
        <ele>24.2</ele>
        <time>2020-05-31T12:31:43Z</time>
      </trkpt>
      <trkpt lat="46.33251" lon="-0.51884">
        <ele>24.1</ele>
        <time>2020-05-31T12:31:44Z</time>
      </trkpt>
      <trkpt lat="46.33245" lon="-0.51891">
        <ele>24.1</ele>
        <time>2020-05-31T12:31:45Z</time>
      </trkpt>
      <trkpt lat="46.3324" lon="-0.51897">
        <ele>24.1</ele>
        <time>2020-05-31T12:31:46Z</time>
      </trkpt>
      <trkpt lat="46.33235" lon="-0.51903">
        <ele>24.1</ele>
        <time>2020-05-31T12:31:47Z</time>
      </trkpt>
      <trkpt lat="46.3323" lon="-0.51909">
        <ele>24.1</ele>
        <time>2020-05-31T12:31:48Z</time>
      </trkpt>
      <trkpt lat="46.33225" lon="-0.51915">
        <ele>24</ele>
        <time>2020-05-31T12:31:49Z</time>
      </trkpt>
      <trkpt lat="46.3322" lon="-0.51921">
        <ele>24</ele>
        <time>2020-05-31T12:31:50Z</time>
      </trkpt>
      <trkpt lat="46.33216" lon="-0.51927">
        <ele>24</ele>
        <time>2020-05-31T12:31:51Z</time>
      </trkpt>
      <trkpt lat="46.33211" lon="-0.51933">
        <ele>24</ele>
        <time>2020-05-31T12:31:52Z</time>
      </trkpt>
      <trkpt lat="46.33207" lon="-0.51938">
        <ele>24</ele>
        <time>2020-05-31T12:31:53Z</time>
      </trkpt>
      <trkpt lat="46.33203" lon="-0.51944">
        <ele>24</ele>
        <time>2020-05-31T12:31:54Z</time>
      </trkpt>
      <trkpt lat="46.33198" lon="-0.51949">
        <ele>24</ele>
        <time>2020-05-31T12:31:55Z</time>
      </trkpt>
      <trkpt lat="46.33194" lon="-0.51954">
        <ele>24</ele>
        <time>2020-05-31T12:31:56Z</time>
      </trkpt>
      <trkpt lat="46.3319" lon="-0.5196">
        <ele>23.9</ele>
        <time>2020-05-31T12:31:57Z</time>
      </trkpt>
      <trkpt lat="46.33185" lon="-0.51965">
        <ele>23.9</ele>
        <time>2020-05-31T12:31:58Z</time>
      </trkpt>
      <trkpt lat="46.33181" lon="-0.5197">
        <ele>23.8</ele>
        <time>2020-05-31T12:31:59Z</time>
      </trkpt>
      <trkpt lat="46.33176" lon="-0.51976">
        <ele>23.8</ele>
        <time>2020-05-31T12:32:00Z</time>
      </trkpt>
      <trkpt lat="46.33172" lon="-0.51982">
        <ele>23.8</ele>
        <time>2020-05-31T12:32:01Z</time>
      </trkpt>
      <trkpt lat="46.33167" lon="-0.51988">
        <ele>23.7</ele>
        <time>2020-05-31T12:32:02Z</time>
      </trkpt>
      <trkpt lat="46.33162" lon="-0.51993">
        <ele>23.7</ele>
        <time>2020-05-31T12:32:03Z</time>
      </trkpt>
      <trkpt lat="46.33157" lon="-0.51999">
        <ele>23.6</ele>
        <time>2020-05-31T12:32:04Z</time>
      </trkpt>
      <trkpt lat="46.33153" lon="-0.52004">
        <ele>23.6</ele>
        <time>2020-05-31T12:32:05Z</time>
      </trkpt>
      <trkpt lat="46.33148" lon="-0.5201">
        <ele>23.6</ele>
        <time>2020-05-31T12:32:06Z</time>
      </trkpt>
      <trkpt lat="46.33144" lon="-0.52015">
        <ele>23.5</ele>
        <time>2020-05-31T12:32:07Z</time>
      </trkpt>
      <trkpt lat="46.33139" lon="-0.52019">
        <ele>23.5</ele>
        <time>2020-05-31T12:32:08Z</time>
      </trkpt>
      <trkpt lat="46.33134" lon="-0.52023">
        <ele>23.5</ele>
        <time>2020-05-31T12:32:09Z</time>
      </trkpt>
      <trkpt lat="46.3313" lon="-0.52026">
        <ele>23.5</ele>
        <time>2020-05-31T12:32:10Z</time>
      </trkpt>
      <trkpt lat="46.33126" lon="-0.5203">
        <ele>23.5</ele>
        <time>2020-05-31T12:32:11Z</time>
      </trkpt>
      <trkpt lat="46.33123" lon="-0.52034">
        <ele>23.4</ele>
        <time>2020-05-31T12:32:12Z</time>
      </trkpt>
      <trkpt lat="46.33119" lon="-0.52039">
        <ele>23.4</ele>
        <time>2020-05-31T12:32:13Z</time>
      </trkpt>
      <trkpt lat="46.33116" lon="-0.52043">
        <ele>23.4</ele>
        <time>2020-05-31T12:32:14Z</time>
      </trkpt>
      <trkpt lat="46.33112" lon="-0.52047">
        <ele>23.4</ele>
        <time>2020-05-31T12:32:15Z</time>
      </trkpt>
      <trkpt lat="46.33109" lon="-0.5205">
        <ele>23.4</ele>
        <time>2020-05-31T12:32:16Z</time>
      </trkpt>
      <trkpt lat="46.33105" lon="-0.52053">
        <ele>23.3</ele>
        <time>2020-05-31T12:32:17Z</time>
      </trkpt>
      <trkpt lat="46.33102" lon="-0.52055">
        <ele>23.2</ele>
        <time>2020-05-31T12:32:18Z</time>
      </trkpt>
      <trkpt lat="46.33099" lon="-0.52057">
        <ele>23.1</ele>
        <time>2020-05-31T12:32:19Z</time>
      </trkpt>
      <trkpt lat="46.33095" lon="-0.52059">
        <ele>23</ele>
        <time>2020-05-31T12:32:20Z</time>
      </trkpt>
      <trkpt lat="46.33092" lon="-0.5206">
        <ele>23</ele>
        <time>2020-05-31T12:32:21Z</time>
      </trkpt>
      <trkpt lat="46.33089" lon="-0.52061">
        <ele>22.9</ele>
        <time>2020-05-31T12:32:22Z</time>
      </trkpt>
      <trkpt lat="46.33086" lon="-0.52062">
        <ele>22.8</ele>
        <time>2020-05-31T12:32:23Z</time>
      </trkpt>
      <trkpt lat="46.33084" lon="-0.52063">
        <ele>22.8</ele>
        <time>2020-05-31T12:32:24Z</time>
      </trkpt>
      <trkpt lat="46.33083" lon="-0.52064">
        <ele>22.7</ele>
        <time>2020-05-31T12:32:25Z</time>
      </trkpt>
      <trkpt lat="46.33082" lon="-0.52064">
        <ele>22.7</ele>
        <time>2020-05-31T12:32:26Z</time>
      </trkpt>
      <trkpt lat="46.33082" lon="-0.52064">
        <ele>22.7</ele>
        <time>2020-05-31T12:32:27Z</time>
      </trkpt>
      <trkpt lat="46.33081" lon="-0.52064">
        <ele>22.7</ele>
        <time>2020-05-31T12:32:28Z</time>
      </trkpt>
      <trkpt lat="46.33081" lon="-0.52064">
        <ele>22.7</ele>
        <time>2020-05-31T12:32:29Z</time>
      </trkpt>
      <trkpt lat="46.33081" lon="-0.52064">
        <ele>22.7</ele>
        <time>2020-05-31T12:32:30Z</time>
      </trkpt>
      <trkpt lat="46.33081" lon="-0.52064">
        <ele>22.7</ele>
        <time>2020-05-31T12:32:31Z</time>
      </trkpt>
      <trkpt lat="46.3308" lon="-0.52064">
        <ele>22.6</ele>
        <time>2020-05-31T12:32:32Z</time>
      </trkpt>
      <trkpt lat="46.3308" lon="-0.52064">
        <ele>22.6</ele>
        <time>2020-05-31T12:32:33Z</time>
      </trkpt>
      <trkpt lat="46.3308" lon="-0.52064">
        <ele>22.6</ele>
        <time>2020-05-31T12:32:34Z</time>
      </trkpt>
      <trkpt lat="46.33079" lon="-0.52064">
        <ele>22.6</ele>
        <time>2020-05-31T12:32:35Z</time>
      </trkpt>
      <trkpt lat="46.33079" lon="-0.52064">
        <ele>22.6</ele>
        <time>2020-05-31T12:32:36Z</time>
      </trkpt>
      <trkpt lat="46.33079" lon="-0.52064">
        <ele>22.6</ele>
        <time>2020-05-31T12:32:37Z</time>
      </trkpt>
      <trkpt lat="46.33078" lon="-0.52065">
        <ele>22.6</ele>
        <time>2020-05-31T12:32:38Z</time>
      </trkpt>
      <trkpt lat="46.33076" lon="-0.52066">
        <ele>22.5</ele>
        <time>2020-05-31T12:32:39Z</time>
      </trkpt>
      <trkpt lat="46.33073" lon="-0.52069">
        <ele>22.4</ele>
        <time>2020-05-31T12:32:40Z</time>
      </trkpt>
      <trkpt lat="46.33072" lon="-0.52069">
        <ele>22.4</ele>
        <time>2020-05-31T12:32:41Z</time>
      </trkpt>
      <trkpt lat="46.33069" lon="-0.52073">
        <ele>22.3</ele>
        <time>2020-05-31T12:32:42Z</time>
      </trkpt>
      <trkpt lat="46.33068" lon="-0.52074">
        <ele>22.2</ele>
        <time>2020-05-31T12:32:43Z</time>
      </trkpt>
      <trkpt lat="46.33066" lon="-0.52076">
        <ele>22.1</ele>
        <time>2020-05-31T12:32:44Z</time>
      </trkpt>
      <trkpt lat="46.33063" lon="-0.52078">
        <ele>22</ele>
        <time>2020-05-31T12:32:45Z</time>
      </trkpt>
      <trkpt lat="46.3306" lon="-0.5208">
        <ele>21.9</ele>
        <time>2020-05-31T12:32:46Z</time>
      </trkpt>
      <trkpt lat="46.33057" lon="-0.52082">
        <ele>21.7</ele>
        <time>2020-05-31T12:32:47Z</time>
      </trkpt>
      <trkpt lat="46.33054" lon="-0.52086">
        <ele>21.4</ele>
        <time>2020-05-31T12:32:48Z</time>
      </trkpt>
      <trkpt lat="46.3305" lon="-0.52089">
        <ele>21.2</ele>
        <time>2020-05-31T12:32:49Z</time>
      </trkpt>
      <trkpt lat="46.33046" lon="-0.52092">
        <ele>20.9</ele>
        <time>2020-05-31T12:32:50Z</time>
      </trkpt>
      <trkpt lat="46.33041" lon="-0.52096">
        <ele>20.4</ele>
        <time>2020-05-31T12:32:51Z</time>
      </trkpt>
      <trkpt lat="46.33035" lon="-0.52099">
        <ele>20</ele>
        <time>2020-05-31T12:32:52Z</time>
      </trkpt>
      <trkpt lat="46.33028" lon="-0.52103">
        <ele>19.5</ele>
        <time>2020-05-31T12:32:53Z</time>
      </trkpt>
      <trkpt lat="46.33022" lon="-0.52107">
        <ele>19.1</ele>
        <time>2020-05-31T12:32:54Z</time>
      </trkpt>
      <trkpt lat="46.33015" lon="-0.5211">
        <ele>18.9</ele>
        <time>2020-05-31T12:32:55Z</time>
      </trkpt>
      <trkpt lat="46.33008" lon="-0.52115">
        <ele>18.9</ele>
        <time>2020-05-31T12:32:56Z</time>
      </trkpt>
      <trkpt lat="46.33" lon="-0.5212">
        <ele>18.9</ele>
        <time>2020-05-31T12:32:57Z</time>
      </trkpt>
      <trkpt lat="46.32994" lon="-0.52124">
        <ele>19</ele>
        <time>2020-05-31T12:32:58Z</time>
      </trkpt>
      <trkpt lat="46.32988" lon="-0.52128">
        <ele>19</ele>
        <time>2020-05-31T12:32:59Z</time>
      </trkpt>
      <trkpt lat="46.32984" lon="-0.52133">
        <ele>19</ele>
        <time>2020-05-31T12:33:00Z</time>
      </trkpt>
      <trkpt lat="46.32979" lon="-0.52137">
        <ele>19.1</ele>
        <time>2020-05-31T12:33:01Z</time>
      </trkpt>
      <trkpt lat="46.32974" lon="-0.52141">
        <ele>19.1</ele>
        <time>2020-05-31T12:33:02Z</time>
      </trkpt>
      <trkpt lat="46.3297" lon="-0.52144">
        <ele>19.1</ele>
        <time>2020-05-31T12:33:03Z</time>
      </trkpt>
      <trkpt lat="46.32966" lon="-0.52147">
        <ele>19.1</ele>
        <time>2020-05-31T12:33:04Z</time>
      </trkpt>
      <trkpt lat="46.32963" lon="-0.52149">
        <ele>19.1</ele>
        <time>2020-05-31T12:33:05Z</time>
      </trkpt>
      <trkpt lat="46.3296" lon="-0.52151">
        <ele>19.1</ele>
        <time>2020-05-31T12:33:06Z</time>
      </trkpt>
      <trkpt lat="46.32958" lon="-0.52153">
        <ele>19.1</ele>
        <time>2020-05-31T12:33:07Z</time>
      </trkpt>
      <trkpt lat="46.32955" lon="-0.52156">
        <ele>19.1</ele>
        <time>2020-05-31T12:33:08Z</time>
      </trkpt>
      <trkpt lat="46.32954" lon="-0.52157">
        <ele>19.1</ele>
        <time>2020-05-31T12:33:09Z</time>
      </trkpt>
      <trkpt lat="46.32953" lon="-0.52157">
        <ele>19.1</ele>
        <time>2020-05-31T12:33:10Z</time>
      </trkpt>
      <trkpt lat="46.32953" lon="-0.52156">
        <ele>19.1</ele>
        <time>2020-05-31T12:33:11Z</time>
      </trkpt>
      <trkpt lat="46.32953" lon="-0.52156">
        <ele>19.1</ele>
        <time>2020-05-31T12:33:12Z</time>
      </trkpt>
      <trkpt lat="46.32953" lon="-0.52155">
        <ele>19.1</ele>
        <time>2020-05-31T12:33:13Z</time>
      </trkpt>
      <trkpt lat="46.32952" lon="-0.52154">
        <ele>19.1</ele>
        <time>2020-05-31T12:33:14Z</time>
      </trkpt>
      <trkpt lat="46.32951" lon="-0.52153">
        <ele>19.1</ele>
        <time>2020-05-31T12:33:15Z</time>
      </trkpt>
      <trkpt lat="46.32951" lon="-0.52152">
        <ele>19.1</ele>
        <time>2020-05-31T12:33:16Z</time>
      </trkpt>
      <trkpt lat="46.32951" lon="-0.52152">
        <ele>19.1</ele>
        <time>2020-05-31T12:33:17Z</time>
      </trkpt>
      <trkpt lat="46.32951" lon="-0.52153">
        <ele>19.1</ele>
        <time>2020-05-31T12:33:18Z</time>
      </trkpt>
      <trkpt lat="46.32951" lon="-0.52152">
        <ele>19.1</ele>
        <time>2020-05-31T12:33:19Z</time>
      </trkpt>
      <trkpt lat="46.32951" lon="-0.52151">
        <ele>19.1</ele>
        <time>2020-05-31T12:33:20Z</time>
      </trkpt>
      <trkpt lat="46.32951" lon="-0.5215">
        <ele>19.1</ele>
        <time>2020-05-31T12:33:21Z</time>
      </trkpt>
      <trkpt lat="46.32951" lon="-0.5215">
        <ele>19.1</ele>
        <time>2020-05-31T12:33:22Z</time>
      </trkpt>
      <trkpt lat="46.32951" lon="-0.5215">
        <ele>19.1</ele>
        <time>2020-05-31T12:33:23Z</time>
      </trkpt>
      <trkpt lat="46.32951" lon="-0.52151">
        <ele>19.1</ele>
        <time>2020-05-31T12:33:24Z</time>
      </trkpt>
      <trkpt lat="46.32951" lon="-0.52152">
        <ele>19.1</ele>
        <time>2020-05-31T12:33:25Z</time>
      </trkpt>
      <trkpt lat="46.32951" lon="-0.52153">
        <ele>19.1</ele>
        <time>2020-05-31T12:33:26Z</time>
      </trkpt>
      <trkpt lat="46.32951" lon="-0.52153">
        <ele>19.1</ele>
        <time>2020-05-31T12:33:27Z</time>
      </trkpt>
      <trkpt lat="46.32951" lon="-0.52154">
        <ele>19.1</ele>
        <time>2020-05-31T12:33:28Z</time>
      </trkpt>
      <trkpt lat="46.32951" lon="-0.52154">
        <ele>19.1</ele>
        <time>2020-05-31T12:33:29Z</time>
      </trkpt>
      <trkpt lat="46.32952" lon="-0.52154">
        <ele>19.1</ele>
        <time>2020-05-31T12:33:30Z</time>
      </trkpt>
      <trkpt lat="46.32951" lon="-0.52154">
        <ele>19.1</ele>
        <time>2020-05-31T12:33:31Z</time>
      </trkpt>
      <trkpt lat="46.32951" lon="-0.52154">
        <ele>19.1</ele>
        <time>2020-05-31T12:33:32Z</time>
      </trkpt>
      <trkpt lat="46.32951" lon="-0.52153">
        <ele>19.1</ele>
        <time>2020-05-31T12:33:33Z</time>
      </trkpt>
      <trkpt lat="46.32952" lon="-0.52154">
        <ele>19.1</ele>
        <time>2020-05-31T12:33:34Z</time>
      </trkpt>
      <trkpt lat="46.32951" lon="-0.52153">
        <ele>19.1</ele>
        <time>2020-05-31T12:33:35Z</time>
      </trkpt>
      <trkpt lat="46.32952" lon="-0.52154">
        <ele>19.1</ele>
        <time>2020-05-31T12:33:36Z</time>
      </trkpt>
      <trkpt lat="46.32952" lon="-0.52154">
        <ele>19.1</ele>
        <time>2020-05-31T12:33:37Z</time>
      </trkpt>
      <trkpt lat="46.32952" lon="-0.52154">
        <ele>19.1</ele>
        <time>2020-05-31T12:33:38Z</time>
      </trkpt>
      <trkpt lat="46.32952" lon="-0.52157">
        <ele>19.1</ele>
        <time>2020-05-31T12:33:39Z</time>
      </trkpt>
      <trkpt lat="46.32952" lon="-0.52156">
        <ele>19.1</ele>
        <time>2020-05-31T12:33:40Z</time>
      </trkpt>
      <trkpt lat="46.32952" lon="-0.52157">
        <ele>19.1</ele>
        <time>2020-05-31T12:33:41Z</time>
      </trkpt>
      <trkpt lat="46.32952" lon="-0.52158">
        <ele>19.1</ele>
        <time>2020-05-31T12:33:42Z</time>
      </trkpt>
      <trkpt lat="46.32951" lon="-0.52157">
        <ele>19.1</ele>
        <time>2020-05-31T12:33:43Z</time>
      </trkpt>
      <trkpt lat="46.32951" lon="-0.52157">
        <ele>19.1</ele>
        <time>2020-05-31T12:33:44Z</time>
      </trkpt>
      <trkpt lat="46.32951" lon="-0.52157">
        <ele>19.1</ele>
        <time>2020-05-31T12:33:45Z</time>
      </trkpt>
      <trkpt lat="46.32951" lon="-0.52158">
        <ele>19.1</ele>
        <time>2020-05-31T12:33:46Z</time>
      </trkpt>
      <trkpt lat="46.32951" lon="-0.52157">
        <ele>19.1</ele>
        <time>2020-05-31T12:33:47Z</time>
      </trkpt>
      <trkpt lat="46.3295" lon="-0.52157">
        <ele>19.1</ele>
        <time>2020-05-31T12:33:48Z</time>
      </trkpt>
      <trkpt lat="46.3295" lon="-0.52157">
        <ele>19.1</ele>
        <time>2020-05-31T12:33:49Z</time>
      </trkpt>
      <trkpt lat="46.3295" lon="-0.52157">
        <ele>19.1</ele>
        <time>2020-05-31T12:33:50Z</time>
      </trkpt>
      <trkpt lat="46.3295" lon="-0.52156">
        <ele>19.1</ele>
        <time>2020-05-31T12:33:51Z</time>
      </trkpt>
      <trkpt lat="46.3295" lon="-0.52156">
        <ele>19.1</ele>
        <time>2020-05-31T12:33:52Z</time>
      </trkpt>
      <trkpt lat="46.3295" lon="-0.52156">
        <ele>19.1</ele>
        <time>2020-05-31T12:33:53Z</time>
      </trkpt>
      <trkpt lat="46.3295" lon="-0.52156">
        <ele>19.1</ele>
        <time>2020-05-31T12:33:54Z</time>
      </trkpt>
      <trkpt lat="46.3295" lon="-0.52157">
        <ele>19.1</ele>
        <time>2020-05-31T12:33:55Z</time>
      </trkpt>
      <trkpt lat="46.3295" lon="-0.52158">
        <ele>19.1</ele>
        <time>2020-05-31T12:33:56Z</time>
      </trkpt>
      <trkpt lat="46.32951" lon="-0.52159">
        <ele>19.1</ele>
        <time>2020-05-31T12:33:57Z</time>
      </trkpt>
      <trkpt lat="46.32952" lon="-0.52161">
        <ele>19.1</ele>
        <time>2020-05-31T12:33:58Z</time>
      </trkpt>
      <trkpt lat="46.32955" lon="-0.52161">
        <ele>19</ele>
        <time>2020-05-31T12:33:59Z</time>
      </trkpt>
      <trkpt lat="46.32956" lon="-0.52161">
        <ele>19</ele>
        <time>2020-05-31T12:34:00Z</time>
      </trkpt>
      <trkpt lat="46.32959" lon="-0.52164">
        <ele>18.9</ele>
        <time>2020-05-31T12:34:01Z</time>
      </trkpt>
      <trkpt lat="46.32959" lon="-0.52165">
        <ele>18.9</ele>
        <time>2020-05-31T12:34:02Z</time>
      </trkpt>
      <trkpt lat="46.32962" lon="-0.52169">
        <ele>18.9</ele>
        <time>2020-05-31T12:34:03Z</time>
      </trkpt>
      <trkpt lat="46.32963" lon="-0.5217">
        <ele>18.8</ele>
        <time>2020-05-31T12:34:04Z</time>
      </trkpt>
      <trkpt lat="46.32965" lon="-0.52174">
        <ele>18.7</ele>
        <time>2020-05-31T12:34:05Z</time>
      </trkpt>
      <trkpt lat="46.32966" lon="-0.52176">
        <ele>18.7</ele>
        <time>2020-05-31T12:34:06Z</time>
      </trkpt>
      <trkpt lat="46.32967" lon="-0.5218">
        <ele>18.6</ele>
        <time>2020-05-31T12:34:07Z</time>
      </trkpt>
      <trkpt lat="46.32968" lon="-0.52185">
        <ele>18.4</ele>
        <time>2020-05-31T12:34:08Z</time>
      </trkpt>
      <trkpt lat="46.32969" lon="-0.52191">
        <ele>18.2</ele>
        <time>2020-05-31T12:34:09Z</time>
      </trkpt>
      <trkpt lat="46.32971" lon="-0.52197">
        <ele>17.9</ele>
        <time>2020-05-31T12:34:10Z</time>
      </trkpt>
      <trkpt lat="46.32973" lon="-0.52203">
        <ele>17.5</ele>
        <time>2020-05-31T12:34:11Z</time>
      </trkpt>
      <trkpt lat="46.32976" lon="-0.52211">
        <ele>17</ele>
        <time>2020-05-31T12:34:12Z</time>
      </trkpt>
      <trkpt lat="46.32978" lon="-0.52219">
        <ele>16.5</ele>
        <time>2020-05-31T12:34:13Z</time>
      </trkpt>
      <trkpt lat="46.32981" lon="-0.52229">
        <ele>15.9</ele>
        <time>2020-05-31T12:34:14Z</time>
      </trkpt>
      <trkpt lat="46.32982" lon="-0.5224">
        <ele>15.2</ele>
        <time>2020-05-31T12:34:15Z</time>
      </trkpt>
      <trkpt lat="46.32984" lon="-0.52251">
        <ele>14.6</ele>
        <time>2020-05-31T12:34:16Z</time>
      </trkpt>
      <trkpt lat="46.32986" lon="-0.52262">
        <ele>14.1</ele>
        <time>2020-05-31T12:34:17Z</time>
      </trkpt>
      <trkpt lat="46.32989" lon="-0.52274">
        <ele>13.5</ele>
        <time>2020-05-31T12:34:18Z</time>
      </trkpt>
      <trkpt lat="46.32992" lon="-0.52285">
        <ele>13.1</ele>
        <time>2020-05-31T12:34:19Z</time>
      </trkpt>
      <trkpt lat="46.32994" lon="-0.52297">
        <ele>12.8</ele>
        <time>2020-05-31T12:34:20Z</time>
      </trkpt>
      <trkpt lat="46.32996" lon="-0.52309">
        <ele>12.6</ele>
        <time>2020-05-31T12:34:21Z</time>
      </trkpt>
      <trkpt lat="46.32998" lon="-0.52322">
        <ele>12.4</ele>
        <time>2020-05-31T12:34:22Z</time>
      </trkpt>
      <trkpt lat="46.33" lon="-0.52334">
        <ele>12.2</ele>
        <time>2020-05-31T12:34:23Z</time>
      </trkpt>
      <trkpt lat="46.33003" lon="-0.52346">
        <ele>12</ele>
        <time>2020-05-31T12:34:24Z</time>
      </trkpt>
      <trkpt lat="46.33005" lon="-0.52358">
        <ele>11.8</ele>
        <time>2020-05-31T12:34:25Z</time>
      </trkpt>
      <trkpt lat="46.33009" lon="-0.52368">
        <ele>11.7</ele>
        <time>2020-05-31T12:34:26Z</time>
      </trkpt>
      <trkpt lat="46.33013" lon="-0.52379">
        <ele>11.5</ele>
        <time>2020-05-31T12:34:27Z</time>
      </trkpt>
      <trkpt lat="46.33016" lon="-0.52389">
        <ele>11.3</ele>
        <time>2020-05-31T12:34:28Z</time>
      </trkpt>
      <trkpt lat="46.3302" lon="-0.52399">
        <ele>11.2</ele>
        <time>2020-05-31T12:34:29Z</time>
      </trkpt>
      <trkpt lat="46.33023" lon="-0.52409">
        <ele>11.1</ele>
        <time>2020-05-31T12:34:30Z</time>
      </trkpt>
      <trkpt lat="46.33027" lon="-0.52419">
        <ele>10.9</ele>
        <time>2020-05-31T12:34:31Z</time>
      </trkpt>
      <trkpt lat="46.3303" lon="-0.52428">
        <ele>10.8</ele>
        <time>2020-05-31T12:34:32Z</time>
      </trkpt>
      <trkpt lat="46.33033" lon="-0.52438">
        <ele>10.7</ele>
        <time>2020-05-31T12:34:33Z</time>
      </trkpt>
      <trkpt lat="46.33037" lon="-0.52447">
        <ele>10.7</ele>
        <time>2020-05-31T12:34:34Z</time>
      </trkpt>
      <trkpt lat="46.33039" lon="-0.52457">
        <ele>10.6</ele>
        <time>2020-05-31T12:34:35Z</time>
      </trkpt>
      <trkpt lat="46.33042" lon="-0.52466">
        <ele>10.6</ele>
        <time>2020-05-31T12:34:36Z</time>
      </trkpt>
      <trkpt lat="46.33045" lon="-0.52475">
        <ele>10.5</ele>
        <time>2020-05-31T12:34:37Z</time>
      </trkpt>
      <trkpt lat="46.33048" lon="-0.52484">
        <ele>10.4</ele>
        <time>2020-05-31T12:34:38Z</time>
      </trkpt>
      <trkpt lat="46.33051" lon="-0.52493">
        <ele>10.3</ele>
        <time>2020-05-31T12:34:39Z</time>
      </trkpt>
      <trkpt lat="46.33054" lon="-0.52501">
        <ele>10.2</ele>
        <time>2020-05-31T12:34:40Z</time>
      </trkpt>
      <trkpt lat="46.33058" lon="-0.52509">
        <ele>10.2</ele>
        <time>2020-05-31T12:34:41Z</time>
      </trkpt>
      <trkpt lat="46.33061" lon="-0.52518">
        <ele>10.1</ele>
        <time>2020-05-31T12:34:42Z</time>
      </trkpt>
      <trkpt lat="46.33064" lon="-0.52526">
        <ele>10.1</ele>
        <time>2020-05-31T12:34:43Z</time>
      </trkpt>
      <trkpt lat="46.33067" lon="-0.52534">
        <ele>10.1</ele>
        <time>2020-05-31T12:34:44Z</time>
      </trkpt>
      <trkpt lat="46.33069" lon="-0.52542">
        <ele>10.1</ele>
        <time>2020-05-31T12:34:45Z</time>
      </trkpt>
      <trkpt lat="46.3307" lon="-0.5255">
        <ele>10.1</ele>
        <time>2020-05-31T12:34:46Z</time>
      </trkpt>
      <trkpt lat="46.33072" lon="-0.52558">
        <ele>10.1</ele>
        <time>2020-05-31T12:34:47Z</time>
      </trkpt>
      <trkpt lat="46.33074" lon="-0.52566">
        <ele>10.1</ele>
        <time>2020-05-31T12:34:48Z</time>
      </trkpt>
      <trkpt lat="46.33076" lon="-0.52573">
        <ele>10.1</ele>
        <time>2020-05-31T12:34:49Z</time>
      </trkpt>
      <trkpt lat="46.33078" lon="-0.5258">
        <ele>10.1</ele>
        <time>2020-05-31T12:34:50Z</time>
      </trkpt>
      <trkpt lat="46.3308" lon="-0.52587">
        <ele>10.1</ele>
        <time>2020-05-31T12:34:51Z</time>
      </trkpt>
      <trkpt lat="46.33082" lon="-0.52595">
        <ele>10.1</ele>
        <time>2020-05-31T12:34:52Z</time>
      </trkpt>
      <trkpt lat="46.33084" lon="-0.52602">
        <ele>10.1</ele>
        <time>2020-05-31T12:34:53Z</time>
      </trkpt>
      <trkpt lat="46.33086" lon="-0.5261">
        <ele>10.1</ele>
        <time>2020-05-31T12:34:54Z</time>
      </trkpt>
      <trkpt lat="46.33088" lon="-0.52618">
        <ele>10</ele>
        <time>2020-05-31T12:34:55Z</time>
      </trkpt>
      <trkpt lat="46.3309" lon="-0.52626">
        <ele>10</ele>
        <time>2020-05-31T12:34:56Z</time>
      </trkpt>
      <trkpt lat="46.33092" lon="-0.52634">
        <ele>9.9</ele>
        <time>2020-05-31T12:34:57Z</time>
      </trkpt>
      <trkpt lat="46.33094" lon="-0.52642">
        <ele>9.9</ele>
        <time>2020-05-31T12:34:58Z</time>
      </trkpt>
      <trkpt lat="46.33097" lon="-0.5265">
        <ele>9.8</ele>
        <time>2020-05-31T12:34:59Z</time>
      </trkpt>
      <trkpt lat="46.33099" lon="-0.52658">
        <ele>9.8</ele>
        <time>2020-05-31T12:35:00Z</time>
      </trkpt>
      <trkpt lat="46.33102" lon="-0.52666">
        <ele>9.7</ele>
        <time>2020-05-31T12:35:01Z</time>
      </trkpt>
      <trkpt lat="46.33104" lon="-0.52674">
        <ele>9.6</ele>
        <time>2020-05-31T12:35:02Z</time>
      </trkpt>
      <trkpt lat="46.33107" lon="-0.52682">
        <ele>9.6</ele>
        <time>2020-05-31T12:35:03Z</time>
      </trkpt>
      <trkpt lat="46.3311" lon="-0.5269">
        <ele>9.5</ele>
        <time>2020-05-31T12:35:04Z</time>
      </trkpt>
      <trkpt lat="46.33113" lon="-0.52698">
        <ele>9.5</ele>
        <time>2020-05-31T12:35:05Z</time>
      </trkpt>
      <trkpt lat="46.33115" lon="-0.52707">
        <ele>9.4</ele>
        <time>2020-05-31T12:35:06Z</time>
      </trkpt>
      <trkpt lat="46.33117" lon="-0.52716">
        <ele>9.4</ele>
        <time>2020-05-31T12:35:07Z</time>
      </trkpt>
      <trkpt lat="46.3312" lon="-0.52726">
        <ele>9.3</ele>
        <time>2020-05-31T12:35:08Z</time>
      </trkpt>
      <trkpt lat="46.33123" lon="-0.52735">
        <ele>9.3</ele>
        <time>2020-05-31T12:35:09Z</time>
      </trkpt>
      <trkpt lat="46.33125" lon="-0.52744">
        <ele>9.3</ele>
        <time>2020-05-31T12:35:10Z</time>
      </trkpt>
      <trkpt lat="46.33128" lon="-0.52753">
        <ele>9.2</ele>
        <time>2020-05-31T12:35:11Z</time>
      </trkpt>
      <trkpt lat="46.33131" lon="-0.52762">
        <ele>9.2</ele>
        <time>2020-05-31T12:35:12Z</time>
      </trkpt>
      <trkpt lat="46.33135" lon="-0.52771">
        <ele>9.2</ele>
        <time>2020-05-31T12:35:13Z</time>
      </trkpt>
      <trkpt lat="46.33139" lon="-0.52779">
        <ele>9.2</ele>
        <time>2020-05-31T12:35:14Z</time>
      </trkpt>
      <trkpt lat="46.33143" lon="-0.52788">
        <ele>9.1</ele>
        <time>2020-05-31T12:35:15Z</time>
      </trkpt>
      <trkpt lat="46.33146" lon="-0.52796">
        <ele>9.1</ele>
        <time>2020-05-31T12:35:16Z</time>
      </trkpt>
      <trkpt lat="46.3315" lon="-0.52805">
        <ele>9.1</ele>
        <time>2020-05-31T12:35:17Z</time>
      </trkpt>
      <trkpt lat="46.33153" lon="-0.52813">
        <ele>9</ele>
        <time>2020-05-31T12:35:18Z</time>
      </trkpt>
      <trkpt lat="46.33156" lon="-0.52821">
        <ele>9</ele>
        <time>2020-05-31T12:35:19Z</time>
      </trkpt>
      <trkpt lat="46.33159" lon="-0.52829">
        <ele>8.9</ele>
        <time>2020-05-31T12:35:20Z</time>
      </trkpt>
      <trkpt lat="46.33162" lon="-0.52838">
        <ele>8.8</ele>
        <time>2020-05-31T12:35:21Z</time>
      </trkpt>
      <trkpt lat="46.33164" lon="-0.52846">
        <ele>8.7</ele>
        <time>2020-05-31T12:35:22Z</time>
      </trkpt>
      <trkpt lat="46.33165" lon="-0.52856">
        <ele>8.5</ele>
        <time>2020-05-31T12:35:23Z</time>
      </trkpt>
      <trkpt lat="46.33164" lon="-0.52865">
        <ele>8.3</ele>
        <time>2020-05-31T12:35:24Z</time>
      </trkpt>
      <trkpt lat="46.33161" lon="-0.52873">
        <ele>8.1</ele>
        <time>2020-05-31T12:35:25Z</time>
      </trkpt>
      <trkpt lat="46.33156" lon="-0.52881">
        <ele>7.9</ele>
        <time>2020-05-31T12:35:26Z</time>
      </trkpt>
      <trkpt lat="46.33151" lon="-0.52887">
        <ele>7.7</ele>
        <time>2020-05-31T12:35:27Z</time>
      </trkpt>
      <trkpt lat="46.33145" lon="-0.52894">
        <ele>7.6</ele>
        <time>2020-05-31T12:35:28Z</time>
      </trkpt>
      <trkpt lat="46.33139" lon="-0.529">
        <ele>7.4</ele>
        <time>2020-05-31T12:35:29Z</time>
      </trkpt>
      <trkpt lat="46.33134" lon="-0.52906">
        <ele>7.3</ele>
        <time>2020-05-31T12:35:30Z</time>
      </trkpt>
      <trkpt lat="46.33128" lon="-0.52913">
        <ele>7.2</ele>
        <time>2020-05-31T12:35:31Z</time>
      </trkpt>
      <trkpt lat="46.33123" lon="-0.52918">
        <ele>7.1</ele>
        <time>2020-05-31T12:35:32Z</time>
      </trkpt>
      <trkpt lat="46.33118" lon="-0.52925">
        <ele>7</ele>
        <time>2020-05-31T12:35:33Z</time>
      </trkpt>
      <trkpt lat="46.33113" lon="-0.52931">
        <ele>7</ele>
        <time>2020-05-31T12:35:34Z</time>
      </trkpt>
      <trkpt lat="46.33109" lon="-0.52936">
        <ele>7</ele>
        <time>2020-05-31T12:35:35Z</time>
      </trkpt>
      <trkpt lat="46.33105" lon="-0.52941">
        <ele>7</ele>
        <time>2020-05-31T12:35:36Z</time>
      </trkpt>
      <trkpt lat="46.33102" lon="-0.52948">
        <ele>7</ele>
        <time>2020-05-31T12:35:37Z</time>
      </trkpt>
      <trkpt lat="46.33103" lon="-0.52955">
        <ele>7</ele>
        <time>2020-05-31T12:35:38Z</time>
      </trkpt>
      <trkpt lat="46.33106" lon="-0.5296">
        <ele>7.1</ele>
        <time>2020-05-31T12:35:39Z</time>
      </trkpt>
      <trkpt lat="46.3311" lon="-0.52966">
        <ele>7.1</ele>
        <time>2020-05-31T12:35:40Z</time>
      </trkpt>
      <trkpt lat="46.33113" lon="-0.52969">
        <ele>7.2</ele>
        <time>2020-05-31T12:35:41Z</time>
      </trkpt>
      <trkpt lat="46.33117" lon="-0.52972">
        <ele>7.3</ele>
        <time>2020-05-31T12:35:42Z</time>
      </trkpt>
      <trkpt lat="46.3312" lon="-0.52976">
        <ele>7.4</ele>
        <time>2020-05-31T12:35:43Z</time>
      </trkpt>
      <trkpt lat="46.33122" lon="-0.5298">
        <ele>7.5</ele>
        <time>2020-05-31T12:35:44Z</time>
      </trkpt>
      <trkpt lat="46.33124" lon="-0.52983">
        <ele>7.5</ele>
        <time>2020-05-31T12:35:45Z</time>
      </trkpt>
      <trkpt lat="46.33127" lon="-0.52988">
        <ele>7.6</ele>
        <time>2020-05-31T12:35:46Z</time>
      </trkpt>
      <trkpt lat="46.33129" lon="-0.52992">
        <ele>7.7</ele>
        <time>2020-05-31T12:35:47Z</time>
      </trkpt>
      <trkpt lat="46.33131" lon="-0.52995">
        <ele>7.7</ele>
        <time>2020-05-31T12:35:48Z</time>
      </trkpt>
      <trkpt lat="46.33134" lon="-0.52999">
        <ele>7.8</ele>
        <time>2020-05-31T12:35:49Z</time>
      </trkpt>
      <trkpt lat="46.33136" lon="-0.53003">
        <ele>7.8</ele>
        <time>2020-05-31T12:35:50Z</time>
      </trkpt>
      <trkpt lat="46.33139" lon="-0.53006">
        <ele>7.8</ele>
        <time>2020-05-31T12:35:51Z</time>
      </trkpt>
      <trkpt lat="46.33141" lon="-0.5301">
        <ele>7.8</ele>
        <time>2020-05-31T12:35:52Z</time>
      </trkpt>
      <trkpt lat="46.33143" lon="-0.53013">
        <ele>7.9</ele>
        <time>2020-05-31T12:35:53Z</time>
      </trkpt>
      <trkpt lat="46.33145" lon="-0.53018">
        <ele>7.9</ele>
        <time>2020-05-31T12:35:54Z</time>
      </trkpt>
      <trkpt lat="46.33148" lon="-0.53023">
        <ele>7.9</ele>
        <time>2020-05-31T12:35:55Z</time>
      </trkpt>
      <trkpt lat="46.3315" lon="-0.53028">
        <ele>7.9</ele>
        <time>2020-05-31T12:35:56Z</time>
      </trkpt>
      <trkpt lat="46.33153" lon="-0.53032">
        <ele>7.9</ele>
        <time>2020-05-31T12:35:57Z</time>
      </trkpt>
      <trkpt lat="46.33157" lon="-0.53037">
        <ele>7.9</ele>
        <time>2020-05-31T12:35:58Z</time>
      </trkpt>
      <trkpt lat="46.33159" lon="-0.53042">
        <ele>8</ele>
        <time>2020-05-31T12:35:59Z</time>
      </trkpt>
      <trkpt lat="46.33161" lon="-0.53046">
        <ele>8</ele>
        <time>2020-05-31T12:36:00Z</time>
      </trkpt>
      <trkpt lat="46.33163" lon="-0.53051">
        <ele>8</ele>
        <time>2020-05-31T12:36:01Z</time>
      </trkpt>
      <trkpt lat="46.33165" lon="-0.53055">
        <ele>8</ele>
        <time>2020-05-31T12:36:02Z</time>
      </trkpt>
      <trkpt lat="46.33167" lon="-0.5306">
        <ele>8</ele>
        <time>2020-05-31T12:36:03Z</time>
      </trkpt>
      <trkpt lat="46.33169" lon="-0.53064">
        <ele>8</ele>
        <time>2020-05-31T12:36:04Z</time>
      </trkpt>
      <trkpt lat="46.33171" lon="-0.53069">
        <ele>8</ele>
        <time>2020-05-31T12:36:05Z</time>
      </trkpt>
      <trkpt lat="46.33174" lon="-0.53073">
        <ele>8</ele>
        <time>2020-05-31T12:36:06Z</time>
      </trkpt>
      <trkpt lat="46.33178" lon="-0.53077">
        <ele>8</ele>
        <time>2020-05-31T12:36:07Z</time>
      </trkpt>
      <trkpt lat="46.33181" lon="-0.5308">
        <ele>8</ele>
        <time>2020-05-31T12:36:08Z</time>
      </trkpt>
      <trkpt lat="46.33184" lon="-0.53083">
        <ele>8</ele>
        <time>2020-05-31T12:36:09Z</time>
      </trkpt>
      <trkpt lat="46.33186" lon="-0.53087">
        <ele>8</ele>
        <time>2020-05-31T12:36:10Z</time>
      </trkpt>
      <trkpt lat="46.33189" lon="-0.53091">
        <ele>8</ele>
        <time>2020-05-31T12:36:11Z</time>
      </trkpt>
      <trkpt lat="46.33192" lon="-0.53095">
        <ele>8</ele>
        <time>2020-05-31T12:36:12Z</time>
      </trkpt>
      <trkpt lat="46.33195" lon="-0.53099">
        <ele>8</ele>
        <time>2020-05-31T12:36:13Z</time>
      </trkpt>
      <trkpt lat="46.33198" lon="-0.53103">
        <ele>7.9</ele>
        <time>2020-05-31T12:36:14Z</time>
      </trkpt>
      <trkpt lat="46.332" lon="-0.53106">
        <ele>7.9</ele>
        <time>2020-05-31T12:36:15Z</time>
      </trkpt>
      <trkpt lat="46.33203" lon="-0.5311">
        <ele>7.9</ele>
        <time>2020-05-31T12:36:16Z</time>
      </trkpt>
      <trkpt lat="46.33204" lon="-0.53114">
        <ele>7.9</ele>
        <time>2020-05-31T12:36:17Z</time>
      </trkpt>
      <trkpt lat="46.33206" lon="-0.53118">
        <ele>7.9</ele>
        <time>2020-05-31T12:36:18Z</time>
      </trkpt>
      <trkpt lat="46.33207" lon="-0.53123">
        <ele>7.8</ele>
        <time>2020-05-31T12:36:19Z</time>
      </trkpt>
      <trkpt lat="46.33209" lon="-0.53129">
        <ele>7.8</ele>
        <time>2020-05-31T12:36:20Z</time>
      </trkpt>
      <trkpt lat="46.33211" lon="-0.53134">
        <ele>7.8</ele>
        <time>2020-05-31T12:36:21Z</time>
      </trkpt>
      <trkpt lat="46.33213" lon="-0.5314">
        <ele>7.7</ele>
        <time>2020-05-31T12:36:22Z</time>
      </trkpt>
      <trkpt lat="46.33214" lon="-0.53145">
        <ele>7.7</ele>
        <time>2020-05-31T12:36:23Z</time>
      </trkpt>
      <trkpt lat="46.33216" lon="-0.5315">
        <ele>7.6</ele>
        <time>2020-05-31T12:36:24Z</time>
      </trkpt>
      <trkpt lat="46.33217" lon="-0.53154">
        <ele>7.6</ele>
        <time>2020-05-31T12:36:25Z</time>
      </trkpt>
      <trkpt lat="46.33218" lon="-0.53159">
        <ele>7.5</ele>
        <time>2020-05-31T12:36:26Z</time>
      </trkpt>
      <trkpt lat="46.33219" lon="-0.53164">
        <ele>7.5</ele>
        <time>2020-05-31T12:36:27Z</time>
      </trkpt>
      <trkpt lat="46.3322" lon="-0.53168">
        <ele>7.4</ele>
        <time>2020-05-31T12:36:28Z</time>
      </trkpt>
      <trkpt lat="46.33222" lon="-0.53172">
        <ele>7.4</ele>
        <time>2020-05-31T12:36:29Z</time>
      </trkpt>
      <trkpt lat="46.33223" lon="-0.53177">
        <ele>7.4</ele>
        <time>2020-05-31T12:36:30Z</time>
      </trkpt>
      <trkpt lat="46.33224" lon="-0.53183">
        <ele>7.3</ele>
        <time>2020-05-31T12:36:31Z</time>
      </trkpt>
      <trkpt lat="46.33225" lon="-0.53189">
        <ele>7.2</ele>
        <time>2020-05-31T12:36:32Z</time>
      </trkpt>
      <trkpt lat="46.33228" lon="-0.53193">
        <ele>7.2</ele>
        <time>2020-05-31T12:36:33Z</time>
      </trkpt>
      <trkpt lat="46.3323" lon="-0.53198">
        <ele>7.2</ele>
        <time>2020-05-31T12:36:34Z</time>
      </trkpt>
      <trkpt lat="46.33232" lon="-0.53203">
        <ele>7.2</ele>
        <time>2020-05-31T12:36:35Z</time>
      </trkpt>
      <trkpt lat="46.33234" lon="-0.53208">
        <ele>7.1</ele>
        <time>2020-05-31T12:36:36Z</time>
      </trkpt>
      <trkpt lat="46.33237" lon="-0.53211">
        <ele>7.1</ele>
        <time>2020-05-31T12:36:37Z</time>
      </trkpt>
      <trkpt lat="46.3324" lon="-0.53216">
        <ele>7.1</ele>
        <time>2020-05-31T12:36:38Z</time>
      </trkpt>
      <trkpt lat="46.33241" lon="-0.53222">
        <ele>7.1</ele>
        <time>2020-05-31T12:36:39Z</time>
      </trkpt>
      <trkpt lat="46.33244" lon="-0.53228">
        <ele>7.1</ele>
        <time>2020-05-31T12:36:40Z</time>
      </trkpt>
      <trkpt lat="46.33246" lon="-0.53233">
        <ele>7.1</ele>
        <time>2020-05-31T12:36:41Z</time>
      </trkpt>
      <trkpt lat="46.33249" lon="-0.5324">
        <ele>7.1</ele>
        <time>2020-05-31T12:36:42Z</time>
      </trkpt>
      <trkpt lat="46.33251" lon="-0.53246">
        <ele>7.1</ele>
        <time>2020-05-31T12:36:43Z</time>
      </trkpt>
      <trkpt lat="46.33253" lon="-0.53252">
        <ele>7.1</ele>
        <time>2020-05-31T12:36:44Z</time>
      </trkpt>
      <trkpt lat="46.33255" lon="-0.53258">
        <ele>7.1</ele>
        <time>2020-05-31T12:36:45Z</time>
      </trkpt>
      <trkpt lat="46.33257" lon="-0.53265">
        <ele>7.1</ele>
        <time>2020-05-31T12:36:46Z</time>
      </trkpt>
      <trkpt lat="46.33259" lon="-0.53271">
        <ele>7.1</ele>
        <time>2020-05-31T12:36:47Z</time>
      </trkpt>
      <trkpt lat="46.33262" lon="-0.53275">
        <ele>7.1</ele>
        <time>2020-05-31T12:36:48Z</time>
      </trkpt>
      <trkpt lat="46.33264" lon="-0.53281">
        <ele>7.1</ele>
        <time>2020-05-31T12:36:49Z</time>
      </trkpt>
      <trkpt lat="46.33267" lon="-0.53286">
        <ele>7.1</ele>
        <time>2020-05-31T12:36:50Z</time>
      </trkpt>
      <trkpt lat="46.3327" lon="-0.53291">
        <ele>7.2</ele>
        <time>2020-05-31T12:36:51Z</time>
      </trkpt>
      <trkpt lat="46.33272" lon="-0.53298">
        <ele>7.2</ele>
        <time>2020-05-31T12:36:52Z</time>
      </trkpt>
      <trkpt lat="46.33274" lon="-0.53303">
        <ele>7.2</ele>
        <time>2020-05-31T12:36:53Z</time>
      </trkpt>
      <trkpt lat="46.33276" lon="-0.5331">
        <ele>7.2</ele>
        <time>2020-05-31T12:36:54Z</time>
      </trkpt>
      <trkpt lat="46.33277" lon="-0.53316">
        <ele>7.2</ele>
        <time>2020-05-31T12:36:55Z</time>
      </trkpt>
      <trkpt lat="46.3328" lon="-0.53321">
        <ele>7.3</ele>
        <time>2020-05-31T12:36:56Z</time>
      </trkpt>
      <trkpt lat="46.33282" lon="-0.53327">
        <ele>7.3</ele>
        <time>2020-05-31T12:36:57Z</time>
      </trkpt>
      <trkpt lat="46.33283" lon="-0.53333">
        <ele>7.3</ele>
        <time>2020-05-31T12:36:58Z</time>
      </trkpt>
      <trkpt lat="46.33285" lon="-0.53339">
        <ele>7.3</ele>
        <time>2020-05-31T12:36:59Z</time>
      </trkpt>
      <trkpt lat="46.33287" lon="-0.53345">
        <ele>7.4</ele>
        <time>2020-05-31T12:37:00Z</time>
      </trkpt>
      <trkpt lat="46.33289" lon="-0.5335">
        <ele>7.4</ele>
        <time>2020-05-31T12:37:01Z</time>
      </trkpt>
      <trkpt lat="46.33292" lon="-0.53355">
        <ele>7.4</ele>
        <time>2020-05-31T12:37:02Z</time>
      </trkpt>
      <trkpt lat="46.33294" lon="-0.53361">
        <ele>7.5</ele>
        <time>2020-05-31T12:37:03Z</time>
      </trkpt>
      <trkpt lat="46.33296" lon="-0.53368">
        <ele>7.5</ele>
        <time>2020-05-31T12:37:04Z</time>
      </trkpt>
      <trkpt lat="46.33298" lon="-0.53375">
        <ele>7.5</ele>
        <time>2020-05-31T12:37:05Z</time>
      </trkpt>
      <trkpt lat="46.333" lon="-0.53381">
        <ele>7.6</ele>
        <time>2020-05-31T12:37:06Z</time>
      </trkpt>
      <trkpt lat="46.33303" lon="-0.53387">
        <ele>7.6</ele>
        <time>2020-05-31T12:37:07Z</time>
      </trkpt>
      <trkpt lat="46.33305" lon="-0.53392">
        <ele>7.7</ele>
        <time>2020-05-31T12:37:08Z</time>
      </trkpt>
      <trkpt lat="46.33307" lon="-0.53398">
        <ele>7.7</ele>
        <time>2020-05-31T12:37:09Z</time>
      </trkpt>
      <trkpt lat="46.33309" lon="-0.53404">
        <ele>7.8</ele>
        <time>2020-05-31T12:37:10Z</time>
      </trkpt>
      <trkpt lat="46.33311" lon="-0.5341">
        <ele>7.8</ele>
        <time>2020-05-31T12:37:11Z</time>
      </trkpt>
      <trkpt lat="46.33312" lon="-0.53417">
        <ele>7.9</ele>
        <time>2020-05-31T12:37:12Z</time>
      </trkpt>
      <trkpt lat="46.33314" lon="-0.53423">
        <ele>7.9</ele>
        <time>2020-05-31T12:37:13Z</time>
      </trkpt>
      <trkpt lat="46.33315" lon="-0.53429">
        <ele>7.9</ele>
        <time>2020-05-31T12:37:14Z</time>
      </trkpt>
      <trkpt lat="46.33318" lon="-0.53434">
        <ele>7.9</ele>
        <time>2020-05-31T12:37:15Z</time>
      </trkpt>
      <trkpt lat="46.3332" lon="-0.53441">
        <ele>7.9</ele>
        <time>2020-05-31T12:37:16Z</time>
      </trkpt>
      <trkpt lat="46.33322" lon="-0.53447">
        <ele>7.9</ele>
        <time>2020-05-31T12:37:17Z</time>
      </trkpt>
      <trkpt lat="46.33324" lon="-0.53454">
        <ele>7.9</ele>
        <time>2020-05-31T12:37:18Z</time>
      </trkpt>
      <trkpt lat="46.33326" lon="-0.53461">
        <ele>7.9</ele>
        <time>2020-05-31T12:37:19Z</time>
      </trkpt>
      <trkpt lat="46.33329" lon="-0.53467">
        <ele>7.9</ele>
        <time>2020-05-31T12:37:20Z</time>
      </trkpt>
      <trkpt lat="46.33331" lon="-0.53473">
        <ele>7.9</ele>
        <time>2020-05-31T12:37:21Z</time>
      </trkpt>
      <trkpt lat="46.33332" lon="-0.53479">
        <ele>7.9</ele>
        <time>2020-05-31T12:37:22Z</time>
      </trkpt>
      <trkpt lat="46.33334" lon="-0.53486">
        <ele>7.9</ele>
        <time>2020-05-31T12:37:23Z</time>
      </trkpt>
      <trkpt lat="46.33336" lon="-0.53492">
        <ele>7.9</ele>
        <time>2020-05-31T12:37:24Z</time>
      </trkpt>
      <trkpt lat="46.33337" lon="-0.53498">
        <ele>7.9</ele>
        <time>2020-05-31T12:37:25Z</time>
      </trkpt>
      <trkpt lat="46.33338" lon="-0.53505">
        <ele>7.9</ele>
        <time>2020-05-31T12:37:26Z</time>
      </trkpt>
      <trkpt lat="46.33339" lon="-0.53511">
        <ele>7.9</ele>
        <time>2020-05-31T12:37:27Z</time>
      </trkpt>
      <trkpt lat="46.3334" lon="-0.53518">
        <ele>7.9</ele>
        <time>2020-05-31T12:37:28Z</time>
      </trkpt>
      <trkpt lat="46.33341" lon="-0.53525">
        <ele>7.9</ele>
        <time>2020-05-31T12:37:29Z</time>
      </trkpt>
      <trkpt lat="46.33342" lon="-0.53531">
        <ele>7.9</ele>
        <time>2020-05-31T12:37:30Z</time>
      </trkpt>
      <trkpt lat="46.33343" lon="-0.53536">
        <ele>7.9</ele>
        <time>2020-05-31T12:37:31Z</time>
      </trkpt>
      <trkpt lat="46.33343" lon="-0.53541">
        <ele>8</ele>
        <time>2020-05-31T12:37:32Z</time>
      </trkpt>
      <trkpt lat="46.33344" lon="-0.53543">
        <ele>8</ele>
        <time>2020-05-31T12:37:33Z</time>
      </trkpt>
      <trkpt lat="46.33344" lon="-0.53543">
        <ele>8</ele>
        <time>2020-05-31T12:37:34Z</time>
      </trkpt>
      <trkpt lat="46.33344" lon="-0.53543">
        <ele>8</ele>
        <time>2020-05-31T12:37:35Z</time>
      </trkpt>
      <trkpt lat="46.33345" lon="-0.53543">
        <ele>8</ele>
        <time>2020-05-31T12:37:36Z</time>
      </trkpt>
      <trkpt lat="46.33345" lon="-0.53543">
        <ele>8</ele>
        <time>2020-05-31T12:37:37Z</time>
      </trkpt>
      <trkpt lat="46.33345" lon="-0.53543">
        <ele>8</ele>
        <time>2020-05-31T12:37:38Z</time>
      </trkpt>
      <trkpt lat="46.33346" lon="-0.53543">
        <ele>8</ele>
        <time>2020-05-31T12:37:39Z</time>
      </trkpt>
      <trkpt lat="46.33345" lon="-0.53544">
        <ele>8</ele>
        <time>2020-05-31T12:37:40Z</time>
      </trkpt>
      <trkpt lat="46.33345" lon="-0.53544">
        <ele>8</ele>
        <time>2020-05-31T12:37:41Z</time>
      </trkpt>
      <trkpt lat="46.33345" lon="-0.53544">
        <ele>8</ele>
        <time>2020-05-31T12:37:42Z</time>
      </trkpt>
      <trkpt lat="46.33345" lon="-0.53544">
        <ele>8</ele>
        <time>2020-05-31T12:37:43Z</time>
      </trkpt>
      <trkpt lat="46.33346" lon="-0.53544">
        <ele>8</ele>
        <time>2020-05-31T12:37:44Z</time>
      </trkpt>
      <trkpt lat="46.33346" lon="-0.53545">
        <ele>8</ele>
        <time>2020-05-31T12:37:45Z</time>
      </trkpt>
      <trkpt lat="46.33346" lon="-0.53545">
        <ele>8</ele>
        <time>2020-05-31T12:37:46Z</time>
      </trkpt>
      <trkpt lat="46.33346" lon="-0.53545">
        <ele>8</ele>
        <time>2020-05-31T12:37:47Z</time>
      </trkpt>
      <trkpt lat="46.33347" lon="-0.53544">
        <ele>8</ele>
        <time>2020-05-31T12:37:48Z</time>
      </trkpt>
      <trkpt lat="46.33347" lon="-0.53544">
        <ele>8</ele>
        <time>2020-05-31T12:37:49Z</time>
      </trkpt>
      <trkpt lat="46.33347" lon="-0.53545">
        <ele>8</ele>
        <time>2020-05-31T12:37:50Z</time>
      </trkpt>
      <trkpt lat="46.33347" lon="-0.53545">
        <ele>8</ele>
        <time>2020-05-31T12:37:51Z</time>
      </trkpt>
      <trkpt lat="46.33348" lon="-0.53546">
        <ele>8</ele>
        <time>2020-05-31T12:37:52Z</time>
      </trkpt>
      <trkpt lat="46.33347" lon="-0.53546">
        <ele>8</ele>
        <time>2020-05-31T12:37:53Z</time>
      </trkpt>
      <trkpt lat="46.33347" lon="-0.53546">
        <ele>8</ele>
        <time>2020-05-31T12:37:54Z</time>
      </trkpt>
      <trkpt lat="46.33347" lon="-0.53546">
        <ele>8</ele>
        <time>2020-05-31T12:37:55Z</time>
      </trkpt>
      <trkpt lat="46.33346" lon="-0.53547">
        <ele>8</ele>
        <time>2020-05-31T12:37:56Z</time>
      </trkpt>
      <trkpt lat="46.33345" lon="-0.53547">
        <ele>8</ele>
        <time>2020-05-31T12:37:57Z</time>
      </trkpt>
      <trkpt lat="46.33345" lon="-0.53548">
        <ele>8</ele>
        <time>2020-05-31T12:37:58Z</time>
      </trkpt>
      <trkpt lat="46.33344" lon="-0.53548">
        <ele>8</ele>
        <time>2020-05-31T12:37:59Z</time>
      </trkpt>
      <trkpt lat="46.33343" lon="-0.53549">
        <ele>8</ele>
        <time>2020-05-31T12:38:00Z</time>
      </trkpt>
      <trkpt lat="46.33343" lon="-0.53549">
        <ele>8</ele>
        <time>2020-05-31T12:38:01Z</time>
      </trkpt>
      <trkpt lat="46.33343" lon="-0.5355">
        <ele>8</ele>
        <time>2020-05-31T12:38:02Z</time>
      </trkpt>
      <trkpt lat="46.33344" lon="-0.53549">
        <ele>8</ele>
        <time>2020-05-31T12:38:03Z</time>
      </trkpt>
      <trkpt lat="46.33345" lon="-0.53549">
        <ele>8.1</ele>
        <time>2020-05-31T12:38:04Z</time>
      </trkpt>
      <trkpt lat="46.33345" lon="-0.53549">
        <ele>8.1</ele>
        <time>2020-05-31T12:38:05Z</time>
      </trkpt>
      <trkpt lat="46.33345" lon="-0.53549">
        <ele>8.1</ele>
        <time>2020-05-31T12:38:06Z</time>
      </trkpt>
      <trkpt lat="46.33345" lon="-0.53549">
        <ele>8.1</ele>
        <time>2020-05-31T12:38:07Z</time>
      </trkpt>
      <trkpt lat="46.33345" lon="-0.53549">
        <ele>8.1</ele>
        <time>2020-05-31T12:38:08Z</time>
      </trkpt>
      <trkpt lat="46.33345" lon="-0.53549">
        <ele>8.1</ele>
        <time>2020-05-31T12:38:09Z</time>
      </trkpt>
      <trkpt lat="46.33345" lon="-0.5355">
        <ele>8.1</ele>
        <time>2020-05-31T12:38:10Z</time>
      </trkpt>
      <trkpt lat="46.33346" lon="-0.53551">
        <ele>8.1</ele>
        <time>2020-05-31T12:38:11Z</time>
      </trkpt>
      <trkpt lat="46.33347" lon="-0.53553">
        <ele>8.1</ele>
        <time>2020-05-31T12:38:12Z</time>
      </trkpt>
      <trkpt lat="46.33347" lon="-0.53556">
        <ele>8.2</ele>
        <time>2020-05-31T12:38:13Z</time>
      </trkpt>
      <trkpt lat="46.33347" lon="-0.53561">
        <ele>8.2</ele>
        <time>2020-05-31T12:38:14Z</time>
      </trkpt>
      <trkpt lat="46.33347" lon="-0.53563">
        <ele>8.3</ele>
        <time>2020-05-31T12:38:15Z</time>
      </trkpt>
      <trkpt lat="46.33347" lon="-0.53568">
        <ele>8.3</ele>
        <time>2020-05-31T12:38:16Z</time>
      </trkpt>
      <trkpt lat="46.33349" lon="-0.53573">
        <ele>8.4</ele>
        <time>2020-05-31T12:38:17Z</time>
      </trkpt>
      <trkpt lat="46.3335" lon="-0.53578">
        <ele>8.5</ele>
        <time>2020-05-31T12:38:18Z</time>
      </trkpt>
      <trkpt lat="46.33351" lon="-0.53583">
        <ele>8.6</ele>
        <time>2020-05-31T12:38:19Z</time>
      </trkpt>
      <trkpt lat="46.33352" lon="-0.53587">
        <ele>8.6</ele>
        <time>2020-05-31T12:38:20Z</time>
      </trkpt>
      <trkpt lat="46.33354" lon="-0.53593">
        <ele>8.7</ele>
        <time>2020-05-31T12:38:21Z</time>
      </trkpt>
      <trkpt lat="46.33357" lon="-0.536">
        <ele>8.8</ele>
        <time>2020-05-31T12:38:22Z</time>
      </trkpt>
      <trkpt lat="46.33359" lon="-0.53607">
        <ele>8.9</ele>
        <time>2020-05-31T12:38:23Z</time>
      </trkpt>
      <trkpt lat="46.33361" lon="-0.53614">
        <ele>8.9</ele>
        <time>2020-05-31T12:38:24Z</time>
      </trkpt>
      <trkpt lat="46.33363" lon="-0.53621">
        <ele>9</ele>
        <time>2020-05-31T12:38:25Z</time>
      </trkpt>
      <trkpt lat="46.33365" lon="-0.53627">
        <ele>9.1</ele>
        <time>2020-05-31T12:38:26Z</time>
      </trkpt>
      <trkpt lat="46.33368" lon="-0.53634">
        <ele>9.2</ele>
        <time>2020-05-31T12:38:27Z</time>
      </trkpt>
      <trkpt lat="46.3337" lon="-0.53641">
        <ele>9.3</ele>
        <time>2020-05-31T12:38:28Z</time>
      </trkpt>
      <trkpt lat="46.33373" lon="-0.53648">
        <ele>9.4</ele>
        <time>2020-05-31T12:38:29Z</time>
      </trkpt>
      <trkpt lat="46.33375" lon="-0.53654">
        <ele>9.5</ele>
        <time>2020-05-31T12:38:30Z</time>
      </trkpt>
      <trkpt lat="46.33378" lon="-0.53661">
        <ele>9.6</ele>
        <time>2020-05-31T12:38:31Z</time>
      </trkpt>
      <trkpt lat="46.3338" lon="-0.53667">
        <ele>9.7</ele>
        <time>2020-05-31T12:38:32Z</time>
      </trkpt>
      <trkpt lat="46.33383" lon="-0.53673">
        <ele>9.8</ele>
        <time>2020-05-31T12:38:33Z</time>
      </trkpt>
      <trkpt lat="46.33385" lon="-0.53679">
        <ele>9.9</ele>
        <time>2020-05-31T12:38:34Z</time>
      </trkpt>
      <trkpt lat="46.33387" lon="-0.53684">
        <ele>9.9</ele>
        <time>2020-05-31T12:38:35Z</time>
      </trkpt>
      <trkpt lat="46.33389" lon="-0.53688">
        <ele>10</ele>
        <time>2020-05-31T12:38:36Z</time>
      </trkpt>
      <trkpt lat="46.33391" lon="-0.53693">
        <ele>10.1</ele>
        <time>2020-05-31T12:38:37Z</time>
      </trkpt>
      <trkpt lat="46.33393" lon="-0.53698">
        <ele>10.1</ele>
        <time>2020-05-31T12:38:38Z</time>
      </trkpt>
      <trkpt lat="46.33395" lon="-0.53704">
        <ele>10.2</ele>
        <time>2020-05-31T12:38:39Z</time>
      </trkpt>
      <trkpt lat="46.33396" lon="-0.53708">
        <ele>10.3</ele>
        <time>2020-05-31T12:38:40Z</time>
      </trkpt>
      <trkpt lat="46.33398" lon="-0.53712">
        <ele>10.3</ele>
        <time>2020-05-31T12:38:41Z</time>
      </trkpt>
      <trkpt lat="46.334" lon="-0.53717">
        <ele>10.4</ele>
        <time>2020-05-31T12:38:42Z</time>
      </trkpt>
      <trkpt lat="46.33402" lon="-0.53723">
        <ele>10.5</ele>
        <time>2020-05-31T12:38:43Z</time>
      </trkpt>
      <trkpt lat="46.33405" lon="-0.53728">
        <ele>10.5</ele>
        <time>2020-05-31T12:38:44Z</time>
      </trkpt>
      <trkpt lat="46.33407" lon="-0.53733">
        <ele>10.6</ele>
        <time>2020-05-31T12:38:45Z</time>
      </trkpt>
      <trkpt lat="46.33409" lon="-0.53739">
        <ele>10.6</ele>
        <time>2020-05-31T12:38:46Z</time>
      </trkpt>
      <trkpt lat="46.33412" lon="-0.53744">
        <ele>10.7</ele>
        <time>2020-05-31T12:38:47Z</time>
      </trkpt>
      <trkpt lat="46.33415" lon="-0.53751">
        <ele>10.8</ele>
        <time>2020-05-31T12:38:48Z</time>
      </trkpt>
      <trkpt lat="46.33417" lon="-0.53755">
        <ele>10.8</ele>
        <time>2020-05-31T12:38:49Z</time>
      </trkpt>
      <trkpt lat="46.3342" lon="-0.53761">
        <ele>10.9</ele>
        <time>2020-05-31T12:38:50Z</time>
      </trkpt>
      <trkpt lat="46.33422" lon="-0.53766">
        <ele>10.9</ele>
        <time>2020-05-31T12:38:51Z</time>
      </trkpt>
      <trkpt lat="46.33424" lon="-0.53772">
        <ele>11</ele>
        <time>2020-05-31T12:38:52Z</time>
      </trkpt>
      <trkpt lat="46.33426" lon="-0.53777">
        <ele>11.1</ele>
        <time>2020-05-31T12:38:53Z</time>
      </trkpt>
      <trkpt lat="46.33428" lon="-0.53782">
        <ele>11.1</ele>
        <time>2020-05-31T12:38:54Z</time>
      </trkpt>
      <trkpt lat="46.3343" lon="-0.53787">
        <ele>11.2</ele>
        <time>2020-05-31T12:38:55Z</time>
      </trkpt>
      <trkpt lat="46.33433" lon="-0.53793">
        <ele>11.3</ele>
        <time>2020-05-31T12:38:56Z</time>
      </trkpt>
      <trkpt lat="46.33435" lon="-0.53799">
        <ele>11.3</ele>
        <time>2020-05-31T12:38:57Z</time>
      </trkpt>
      <trkpt lat="46.33437" lon="-0.53805">
        <ele>11.4</ele>
        <time>2020-05-31T12:38:58Z</time>
      </trkpt>
      <trkpt lat="46.33439" lon="-0.53811">
        <ele>11.5</ele>
        <time>2020-05-31T12:38:59Z</time>
      </trkpt>
      <trkpt lat="46.33441" lon="-0.53817">
        <ele>11.5</ele>
        <time>2020-05-31T12:39:00Z</time>
      </trkpt>
      <trkpt lat="46.33443" lon="-0.53823">
        <ele>11.6</ele>
        <time>2020-05-31T12:39:01Z</time>
      </trkpt>
      <trkpt lat="46.33445" lon="-0.53829">
        <ele>11.6</ele>
        <time>2020-05-31T12:39:02Z</time>
      </trkpt>
      <trkpt lat="46.33447" lon="-0.53835">
        <ele>11.7</ele>
        <time>2020-05-31T12:39:03Z</time>
      </trkpt>
      <trkpt lat="46.3345" lon="-0.53841">
        <ele>11.7</ele>
        <time>2020-05-31T12:39:04Z</time>
      </trkpt>
      <trkpt lat="46.33451" lon="-0.53845">
        <ele>11.8</ele>
        <time>2020-05-31T12:39:05Z</time>
      </trkpt>
      <trkpt lat="46.33453" lon="-0.53849">
        <ele>11.8</ele>
        <time>2020-05-31T12:39:06Z</time>
      </trkpt>
      <trkpt lat="46.33454" lon="-0.53854">
        <ele>11.9</ele>
        <time>2020-05-31T12:39:07Z</time>
      </trkpt>
      <trkpt lat="46.33455" lon="-0.53859">
        <ele>11.9</ele>
        <time>2020-05-31T12:39:08Z</time>
      </trkpt>
      <trkpt lat="46.33457" lon="-0.53866">
        <ele>12</ele>
        <time>2020-05-31T12:39:09Z</time>
      </trkpt>
      <trkpt lat="46.33459" lon="-0.53871">
        <ele>12.1</ele>
        <time>2020-05-31T12:39:10Z</time>
      </trkpt>
      <trkpt lat="46.33461" lon="-0.53879">
        <ele>12.1</ele>
        <time>2020-05-31T12:39:11Z</time>
      </trkpt>
      <trkpt lat="46.33463" lon="-0.53885">
        <ele>12.2</ele>
        <time>2020-05-31T12:39:12Z</time>
      </trkpt>
      <trkpt lat="46.33465" lon="-0.53891">
        <ele>12.2</ele>
        <time>2020-05-31T12:39:13Z</time>
      </trkpt>
      <trkpt lat="46.33467" lon="-0.53897">
        <ele>12.2</ele>
        <time>2020-05-31T12:39:14Z</time>
      </trkpt>
      <trkpt lat="46.33468" lon="-0.53904">
        <ele>12.2</ele>
        <time>2020-05-31T12:39:15Z</time>
      </trkpt>
      <trkpt lat="46.3347" lon="-0.5391">
        <ele>12.3</ele>
        <time>2020-05-31T12:39:16Z</time>
      </trkpt>
      <trkpt lat="46.33472" lon="-0.53917">
        <ele>12.3</ele>
        <time>2020-05-31T12:39:17Z</time>
      </trkpt>
      <trkpt lat="46.33474" lon="-0.53924">
        <ele>12.3</ele>
        <time>2020-05-31T12:39:18Z</time>
      </trkpt>
      <trkpt lat="46.33476" lon="-0.5393">
        <ele>12.3</ele>
        <time>2020-05-31T12:39:19Z</time>
      </trkpt>
      <trkpt lat="46.33478" lon="-0.53937">
        <ele>12.4</ele>
        <time>2020-05-31T12:39:20Z</time>
      </trkpt>
      <trkpt lat="46.3348" lon="-0.53943">
        <ele>12.3</ele>
        <time>2020-05-31T12:39:21Z</time>
      </trkpt>
      <trkpt lat="46.33482" lon="-0.53951">
        <ele>12.3</ele>
        <time>2020-05-31T12:39:22Z</time>
      </trkpt>
      <trkpt lat="46.33484" lon="-0.53958">
        <ele>12.3</ele>
        <time>2020-05-31T12:39:23Z</time>
      </trkpt>
      <trkpt lat="46.33486" lon="-0.53965">
        <ele>12.2</ele>
        <time>2020-05-31T12:39:24Z</time>
      </trkpt>
      <trkpt lat="46.33488" lon="-0.53972">
        <ele>12.2</ele>
        <time>2020-05-31T12:39:25Z</time>
      </trkpt>
      <trkpt lat="46.3349" lon="-0.53978">
        <ele>12.2</ele>
        <time>2020-05-31T12:39:26Z</time>
      </trkpt>
      <trkpt lat="46.33491" lon="-0.53985">
        <ele>12.1</ele>
        <time>2020-05-31T12:39:27Z</time>
      </trkpt>
      <trkpt lat="46.33493" lon="-0.53992">
        <ele>12.1</ele>
        <time>2020-05-31T12:39:28Z</time>
      </trkpt>
      <trkpt lat="46.33494" lon="-0.53999">
        <ele>12.1</ele>
        <time>2020-05-31T12:39:29Z</time>
      </trkpt>
      <trkpt lat="46.33496" lon="-0.54007">
        <ele>12</ele>
        <time>2020-05-31T12:39:30Z</time>
      </trkpt>
      <trkpt lat="46.33498" lon="-0.54014">
        <ele>12</ele>
        <time>2020-05-31T12:39:31Z</time>
      </trkpt>
      <trkpt lat="46.335" lon="-0.54023">
        <ele>12</ele>
        <time>2020-05-31T12:39:32Z</time>
      </trkpt>
      <trkpt lat="46.33501" lon="-0.5403">
        <ele>11.9</ele>
        <time>2020-05-31T12:39:33Z</time>
      </trkpt>
      <trkpt lat="46.33503" lon="-0.54038">
        <ele>11.9</ele>
        <time>2020-05-31T12:39:34Z</time>
      </trkpt>
      <trkpt lat="46.33505" lon="-0.54047">
        <ele>11.9</ele>
        <time>2020-05-31T12:39:35Z</time>
      </trkpt>
      <trkpt lat="46.33506" lon="-0.54055">
        <ele>11.8</ele>
        <time>2020-05-31T12:39:36Z</time>
      </trkpt>
      <trkpt lat="46.33507" lon="-0.54064">
        <ele>11.8</ele>
        <time>2020-05-31T12:39:37Z</time>
      </trkpt>
      <trkpt lat="46.33509" lon="-0.54072">
        <ele>11.8</ele>
        <time>2020-05-31T12:39:38Z</time>
      </trkpt>
      <trkpt lat="46.33511" lon="-0.54081">
        <ele>11.7</ele>
        <time>2020-05-31T12:39:39Z</time>
      </trkpt>
      <trkpt lat="46.33513" lon="-0.54089">
        <ele>11.7</ele>
        <time>2020-05-31T12:39:40Z</time>
      </trkpt>
      <trkpt lat="46.33514" lon="-0.54098">
        <ele>11.6</ele>
        <time>2020-05-31T12:39:41Z</time>
      </trkpt>
      <trkpt lat="46.33516" lon="-0.54108">
        <ele>11.6</ele>
        <time>2020-05-31T12:39:42Z</time>
      </trkpt>
      <trkpt lat="46.33518" lon="-0.54117">
        <ele>11.5</ele>
        <time>2020-05-31T12:39:43Z</time>
      </trkpt>
      <trkpt lat="46.3352" lon="-0.54126">
        <ele>11.5</ele>
        <time>2020-05-31T12:39:44Z</time>
      </trkpt>
      <trkpt lat="46.33521" lon="-0.54135">
        <ele>11.5</ele>
        <time>2020-05-31T12:39:45Z</time>
      </trkpt>
      <trkpt lat="46.33523" lon="-0.54143">
        <ele>11.4</ele>
        <time>2020-05-31T12:39:46Z</time>
      </trkpt>
      <trkpt lat="46.33526" lon="-0.5415">
        <ele>11.4</ele>
        <time>2020-05-31T12:39:47Z</time>
      </trkpt>
      <trkpt lat="46.33528" lon="-0.54158">
        <ele>11.3</ele>
        <time>2020-05-31T12:39:48Z</time>
      </trkpt>
      <trkpt lat="46.33529" lon="-0.54167">
        <ele>11.3</ele>
        <time>2020-05-31T12:39:49Z</time>
      </trkpt>
      <trkpt lat="46.33531" lon="-0.54175">
        <ele>11.3</ele>
        <time>2020-05-31T12:39:50Z</time>
      </trkpt>
      <trkpt lat="46.33534" lon="-0.54183">
        <ele>11.3</ele>
        <time>2020-05-31T12:39:51Z</time>
      </trkpt>
      <trkpt lat="46.33536" lon="-0.54191">
        <ele>11.3</ele>
        <time>2020-05-31T12:39:52Z</time>
      </trkpt>
      <trkpt lat="46.33537" lon="-0.542">
        <ele>11.3</ele>
        <time>2020-05-31T12:39:53Z</time>
      </trkpt>
      <trkpt lat="46.33539" lon="-0.54207">
        <ele>11.3</ele>
        <time>2020-05-31T12:39:54Z</time>
      </trkpt>
      <trkpt lat="46.3354" lon="-0.54216">
        <ele>11.3</ele>
        <time>2020-05-31T12:39:55Z</time>
      </trkpt>
      <trkpt lat="46.33542" lon="-0.54223">
        <ele>11.3</ele>
        <time>2020-05-31T12:39:56Z</time>
      </trkpt>
      <trkpt lat="46.33544" lon="-0.5423">
        <ele>11.3</ele>
        <time>2020-05-31T12:39:57Z</time>
      </trkpt>
      <trkpt lat="46.33546" lon="-0.54239">
        <ele>11.3</ele>
        <time>2020-05-31T12:39:58Z</time>
      </trkpt>
      <trkpt lat="46.33548" lon="-0.54248">
        <ele>11.3</ele>
        <time>2020-05-31T12:39:59Z</time>
      </trkpt>
      <trkpt lat="46.33549" lon="-0.54255">
        <ele>11.3</ele>
        <time>2020-05-31T12:40:00Z</time>
      </trkpt>
      <trkpt lat="46.33551" lon="-0.54263">
        <ele>11.3</ele>
        <time>2020-05-31T12:40:01Z</time>
      </trkpt>
      <trkpt lat="46.33553" lon="-0.54269">
        <ele>11.3</ele>
        <time>2020-05-31T12:40:02Z</time>
      </trkpt>
      <trkpt lat="46.33554" lon="-0.54276">
        <ele>11.3</ele>
        <time>2020-05-31T12:40:03Z</time>
      </trkpt>
      <trkpt lat="46.33556" lon="-0.54284">
        <ele>11.3</ele>
        <time>2020-05-31T12:40:04Z</time>
      </trkpt>
      <trkpt lat="46.33558" lon="-0.54293">
        <ele>11.3</ele>
        <time>2020-05-31T12:40:05Z</time>
      </trkpt>
      <trkpt lat="46.3356" lon="-0.54301">
        <ele>11.3</ele>
        <time>2020-05-31T12:40:06Z</time>
      </trkpt>
      <trkpt lat="46.33561" lon="-0.54309">
        <ele>11.3</ele>
        <time>2020-05-31T12:40:07Z</time>
      </trkpt>
      <trkpt lat="46.33563" lon="-0.54316">
        <ele>11.3</ele>
        <time>2020-05-31T12:40:08Z</time>
      </trkpt>
      <trkpt lat="46.33564" lon="-0.54324">
        <ele>11.3</ele>
        <time>2020-05-31T12:40:09Z</time>
      </trkpt>
      <trkpt lat="46.33566" lon="-0.54332">
        <ele>11.2</ele>
        <time>2020-05-31T12:40:10Z</time>
      </trkpt>
      <trkpt lat="46.33567" lon="-0.54339">
        <ele>11.2</ele>
        <time>2020-05-31T12:40:11Z</time>
      </trkpt>
      <trkpt lat="46.33569" lon="-0.54347">
        <ele>11.1</ele>
        <time>2020-05-31T12:40:12Z</time>
      </trkpt>
      <trkpt lat="46.33571" lon="-0.54355">
        <ele>11</ele>
        <time>2020-05-31T12:40:13Z</time>
      </trkpt>
      <trkpt lat="46.33573" lon="-0.54363">
        <ele>11</ele>
        <time>2020-05-31T12:40:14Z</time>
      </trkpt>
      <trkpt lat="46.33575" lon="-0.54371">
        <ele>10.9</ele>
        <time>2020-05-31T12:40:15Z</time>
      </trkpt>
      <trkpt lat="46.33577" lon="-0.5438">
        <ele>10.8</ele>
        <time>2020-05-31T12:40:16Z</time>
      </trkpt>
      <trkpt lat="46.33579" lon="-0.54389">
        <ele>10.8</ele>
        <time>2020-05-31T12:40:17Z</time>
      </trkpt>
      <trkpt lat="46.33581" lon="-0.54397">
        <ele>10.8</ele>
        <time>2020-05-31T12:40:18Z</time>
      </trkpt>
      <trkpt lat="46.33583" lon="-0.54405">
        <ele>10.7</ele>
        <time>2020-05-31T12:40:19Z</time>
      </trkpt>
      <trkpt lat="46.33586" lon="-0.54413">
        <ele>10.7</ele>
        <time>2020-05-31T12:40:20Z</time>
      </trkpt>
      <trkpt lat="46.33588" lon="-0.54422">
        <ele>10.7</ele>
        <time>2020-05-31T12:40:21Z</time>
      </trkpt>
      <trkpt lat="46.3359" lon="-0.5443">
        <ele>10.7</ele>
        <time>2020-05-31T12:40:22Z</time>
      </trkpt>
      <trkpt lat="46.33592" lon="-0.54438">
        <ele>10.8</ele>
        <time>2020-05-31T12:40:23Z</time>
      </trkpt>
      <trkpt lat="46.33594" lon="-0.54447">
        <ele>10.8</ele>
        <time>2020-05-31T12:40:24Z</time>
      </trkpt>
      <trkpt lat="46.33596" lon="-0.54456">
        <ele>10.8</ele>
        <time>2020-05-31T12:40:25Z</time>
      </trkpt>
      <trkpt lat="46.33597" lon="-0.54465">
        <ele>10.8</ele>
        <time>2020-05-31T12:40:26Z</time>
      </trkpt>
      <trkpt lat="46.33599" lon="-0.54473">
        <ele>10.8</ele>
        <time>2020-05-31T12:40:27Z</time>
      </trkpt>
      <trkpt lat="46.33601" lon="-0.54481">
        <ele>10.9</ele>
        <time>2020-05-31T12:40:28Z</time>
      </trkpt>
      <trkpt lat="46.33603" lon="-0.54489">
        <ele>10.9</ele>
        <time>2020-05-31T12:40:29Z</time>
      </trkpt>
      <trkpt lat="46.33605" lon="-0.54498">
        <ele>11</ele>
        <time>2020-05-31T12:40:30Z</time>
      </trkpt>
      <trkpt lat="46.33607" lon="-0.54506">
        <ele>11</ele>
        <time>2020-05-31T12:40:31Z</time>
      </trkpt>
      <trkpt lat="46.33609" lon="-0.54514">
        <ele>11</ele>
        <time>2020-05-31T12:40:32Z</time>
      </trkpt>
      <trkpt lat="46.33611" lon="-0.54522">
        <ele>11.1</ele>
        <time>2020-05-31T12:40:33Z</time>
      </trkpt>
      <trkpt lat="46.33613" lon="-0.5453">
        <ele>11.1</ele>
        <time>2020-05-31T12:40:34Z</time>
      </trkpt>
      <trkpt lat="46.33614" lon="-0.54538">
        <ele>11.1</ele>
        <time>2020-05-31T12:40:35Z</time>
      </trkpt>
      <trkpt lat="46.33616" lon="-0.54546">
        <ele>11.2</ele>
        <time>2020-05-31T12:40:36Z</time>
      </trkpt>
      <trkpt lat="46.33618" lon="-0.54555">
        <ele>11.2</ele>
        <time>2020-05-31T12:40:37Z</time>
      </trkpt>
      <trkpt lat="46.33619" lon="-0.54563">
        <ele>11.3</ele>
        <time>2020-05-31T12:40:38Z</time>
      </trkpt>
      <trkpt lat="46.3362" lon="-0.54571">
        <ele>11.4</ele>
        <time>2020-05-31T12:40:39Z</time>
      </trkpt>
      <trkpt lat="46.33622" lon="-0.54578">
        <ele>11.4</ele>
        <time>2020-05-31T12:40:40Z</time>
      </trkpt>
      <trkpt lat="46.33623" lon="-0.54584">
        <ele>11.4</ele>
        <time>2020-05-31T12:40:41Z</time>
      </trkpt>
      <trkpt lat="46.33625" lon="-0.54592">
        <ele>11.5</ele>
        <time>2020-05-31T12:40:42Z</time>
      </trkpt>
      <trkpt lat="46.33627" lon="-0.546">
        <ele>11.5</ele>
        <time>2020-05-31T12:40:43Z</time>
      </trkpt>
      <trkpt lat="46.33628" lon="-0.54606">
        <ele>11.5</ele>
        <time>2020-05-31T12:40:45Z</time>
      </trkpt>
      <trkpt lat="46.3363" lon="-0.54612">
        <ele>11.6</ele>
        <time>2020-05-31T12:40:46Z</time>
      </trkpt>
      <trkpt lat="46.33632" lon="-0.54619">
        <ele>11.6</ele>
        <time>2020-05-31T12:40:47Z</time>
      </trkpt>
      <trkpt lat="46.33634" lon="-0.54624">
        <ele>11.6</ele>
        <time>2020-05-31T12:40:48Z</time>
      </trkpt>
      <trkpt lat="46.33635" lon="-0.5463">
        <ele>11.6</ele>
        <time>2020-05-31T12:40:49Z</time>
      </trkpt>
      <trkpt lat="46.33637" lon="-0.54636">
        <ele>11.7</ele>
        <time>2020-05-31T12:40:50Z</time>
      </trkpt>
      <trkpt lat="46.33638" lon="-0.54643">
        <ele>11.7</ele>
        <time>2020-05-31T12:40:51Z</time>
      </trkpt>
      <trkpt lat="46.3364" lon="-0.54649">
        <ele>11.7</ele>
        <time>2020-05-31T12:40:52Z</time>
      </trkpt>
      <trkpt lat="46.33641" lon="-0.54655">
        <ele>11.7</ele>
        <time>2020-05-31T12:40:53Z</time>
      </trkpt>
      <trkpt lat="46.33643" lon="-0.54662">
        <ele>11.8</ele>
        <time>2020-05-31T12:40:54Z</time>
      </trkpt>
      <trkpt lat="46.33644" lon="-0.54669">
        <ele>11.8</ele>
        <time>2020-05-31T12:40:55Z</time>
      </trkpt>
      <trkpt lat="46.33646" lon="-0.54678">
        <ele>11.8</ele>
        <time>2020-05-31T12:40:56Z</time>
      </trkpt>
      <trkpt lat="46.33648" lon="-0.54685">
        <ele>11.9</ele>
        <time>2020-05-31T12:40:57Z</time>
      </trkpt>
      <trkpt lat="46.3365" lon="-0.54693">
        <ele>11.9</ele>
        <time>2020-05-31T12:40:58Z</time>
      </trkpt>
      <trkpt lat="46.33652" lon="-0.54701">
        <ele>11.9</ele>
        <time>2020-05-31T12:40:59Z</time>
      </trkpt>
      <trkpt lat="46.33654" lon="-0.54708">
        <ele>12</ele>
        <time>2020-05-31T12:41:00Z</time>
      </trkpt>
      <trkpt lat="46.33657" lon="-0.54717">
        <ele>12</ele>
        <time>2020-05-31T12:41:01Z</time>
      </trkpt>
      <trkpt lat="46.33659" lon="-0.54725">
        <ele>12</ele>
        <time>2020-05-31T12:41:02Z</time>
      </trkpt>
      <trkpt lat="46.33662" lon="-0.54733">
        <ele>12.1</ele>
        <time>2020-05-31T12:41:03Z</time>
      </trkpt>
      <trkpt lat="46.33664" lon="-0.54741">
        <ele>12.1</ele>
        <time>2020-05-31T12:41:04Z</time>
      </trkpt>
      <trkpt lat="46.33667" lon="-0.54749">
        <ele>12.1</ele>
        <time>2020-05-31T12:41:05Z</time>
      </trkpt>
      <trkpt lat="46.3367" lon="-0.54756">
        <ele>12.1</ele>
        <time>2020-05-31T12:41:06Z</time>
      </trkpt>
      <trkpt lat="46.33673" lon="-0.54764">
        <ele>12.1</ele>
        <time>2020-05-31T12:41:07Z</time>
      </trkpt>
      <trkpt lat="46.33676" lon="-0.54771">
        <ele>12.1</ele>
        <time>2020-05-31T12:41:08Z</time>
      </trkpt>
      <trkpt lat="46.3368" lon="-0.54779">
        <ele>12.1</ele>
        <time>2020-05-31T12:41:09Z</time>
      </trkpt>
      <trkpt lat="46.33683" lon="-0.54787">
        <ele>12.2</ele>
        <time>2020-05-31T12:41:10Z</time>
      </trkpt>
      <trkpt lat="46.33686" lon="-0.54793">
        <ele>12.2</ele>
        <time>2020-05-31T12:41:11Z</time>
      </trkpt>
      <trkpt lat="46.33689" lon="-0.548">
        <ele>12.2</ele>
        <time>2020-05-31T12:41:12Z</time>
      </trkpt>
      <trkpt lat="46.33693" lon="-0.54807">
        <ele>12.3</ele>
        <time>2020-05-31T12:41:13Z</time>
      </trkpt>
      <trkpt lat="46.33697" lon="-0.54814">
        <ele>12.3</ele>
        <time>2020-05-31T12:41:14Z</time>
      </trkpt>
      <trkpt lat="46.337" lon="-0.54821">
        <ele>12.4</ele>
        <time>2020-05-31T12:41:15Z</time>
      </trkpt>
      <trkpt lat="46.33704" lon="-0.54827">
        <ele>12.4</ele>
        <time>2020-05-31T12:41:16Z</time>
      </trkpt>
      <trkpt lat="46.33708" lon="-0.54834">
        <ele>12.5</ele>
        <time>2020-05-31T12:41:17Z</time>
      </trkpt>
      <trkpt lat="46.33712" lon="-0.54841">
        <ele>12.5</ele>
        <time>2020-05-31T12:41:18Z</time>
      </trkpt>
      <trkpt lat="46.33716" lon="-0.54846">
        <ele>12.5</ele>
        <time>2020-05-31T12:41:19Z</time>
      </trkpt>
      <trkpt lat="46.3372" lon="-0.54852">
        <ele>12.6</ele>
        <time>2020-05-31T12:41:20Z</time>
      </trkpt>
      <trkpt lat="46.33724" lon="-0.54859">
        <ele>12.6</ele>
        <time>2020-05-31T12:41:21Z</time>
      </trkpt>
      <trkpt lat="46.33728" lon="-0.54865">
        <ele>12.6</ele>
        <time>2020-05-31T12:41:22Z</time>
      </trkpt>
      <trkpt lat="46.33733" lon="-0.54871">
        <ele>12.5</ele>
        <time>2020-05-31T12:41:23Z</time>
      </trkpt>
      <trkpt lat="46.33738" lon="-0.54877">
        <ele>12.5</ele>
        <time>2020-05-31T12:41:24Z</time>
      </trkpt>
      <trkpt lat="46.33743" lon="-0.54883">
        <ele>12.5</ele>
        <time>2020-05-31T12:41:25Z</time>
      </trkpt>
      <trkpt lat="46.33749" lon="-0.54889">
        <ele>12.4</ele>
        <time>2020-05-31T12:41:26Z</time>
      </trkpt>
      <trkpt lat="46.33754" lon="-0.54895">
        <ele>12.4</ele>
        <time>2020-05-31T12:41:27Z</time>
      </trkpt>
      <trkpt lat="46.33759" lon="-0.549">
        <ele>12.5</ele>
        <time>2020-05-31T12:41:28Z</time>
      </trkpt>
      <trkpt lat="46.33765" lon="-0.54905">
        <ele>12.7</ele>
        <time>2020-05-31T12:41:29Z</time>
      </trkpt>
      <trkpt lat="46.3377" lon="-0.5491">
        <ele>12.8</ele>
        <time>2020-05-31T12:41:30Z</time>
      </trkpt>
      <trkpt lat="46.33775" lon="-0.54915">
        <ele>13</ele>
        <time>2020-05-31T12:41:31Z</time>
      </trkpt>
      <trkpt lat="46.3378" lon="-0.54918">
        <ele>13.1</ele>
        <time>2020-05-31T12:41:32Z</time>
      </trkpt>
      <trkpt lat="46.33785" lon="-0.54922">
        <ele>13.3</ele>
        <time>2020-05-31T12:41:33Z</time>
      </trkpt>
      <trkpt lat="46.3379" lon="-0.54925">
        <ele>13.5</ele>
        <time>2020-05-31T12:41:34Z</time>
      </trkpt>
      <trkpt lat="46.33793" lon="-0.5493">
        <ele>13.6</ele>
        <time>2020-05-31T12:41:35Z</time>
      </trkpt>
      <trkpt lat="46.33796" lon="-0.54935">
        <ele>13.8</ele>
        <time>2020-05-31T12:41:36Z</time>
      </trkpt>
      <trkpt lat="46.33797" lon="-0.54941">
        <ele>13.8</ele>
        <time>2020-05-31T12:41:37Z</time>
      </trkpt>
      <trkpt lat="46.33797" lon="-0.54947">
        <ele>13.8</ele>
        <time>2020-05-31T12:41:38Z</time>
      </trkpt>
      <trkpt lat="46.33797" lon="-0.54952">
        <ele>13.8</ele>
        <time>2020-05-31T12:41:39Z</time>
      </trkpt>
      <trkpt lat="46.33797" lon="-0.54958">
        <ele>13.9</ele>
        <time>2020-05-31T12:41:40Z</time>
      </trkpt>
      <trkpt lat="46.33797" lon="-0.54964">
        <ele>13.9</ele>
        <time>2020-05-31T12:41:41Z</time>
      </trkpt>
      <trkpt lat="46.33796" lon="-0.54969">
        <ele>13.9</ele>
        <time>2020-05-31T12:41:42Z</time>
      </trkpt>
      <trkpt lat="46.33796" lon="-0.54975">
        <ele>14</ele>
        <time>2020-05-31T12:41:43Z</time>
      </trkpt>
      <trkpt lat="46.33796" lon="-0.54982">
        <ele>14</ele>
        <time>2020-05-31T12:41:44Z</time>
      </trkpt>
      <trkpt lat="46.33796" lon="-0.54988">
        <ele>14.1</ele>
        <time>2020-05-31T12:41:45Z</time>
      </trkpt>
      <trkpt lat="46.33796" lon="-0.54995">
        <ele>14.2</ele>
        <time>2020-05-31T12:41:46Z</time>
      </trkpt>
      <trkpt lat="46.33796" lon="-0.55">
        <ele>14.2</ele>
        <time>2020-05-31T12:41:47Z</time>
      </trkpt>
      <trkpt lat="46.33796" lon="-0.55006">
        <ele>14.3</ele>
        <time>2020-05-31T12:41:48Z</time>
      </trkpt>
      <trkpt lat="46.33796" lon="-0.55012">
        <ele>14.4</ele>
        <time>2020-05-31T12:41:49Z</time>
      </trkpt>
      <trkpt lat="46.33796" lon="-0.55017">
        <ele>14.5</ele>
        <time>2020-05-31T12:41:50Z</time>
      </trkpt>
      <trkpt lat="46.33797" lon="-0.55022">
        <ele>14.6</ele>
        <time>2020-05-31T12:41:51Z</time>
      </trkpt>
      <trkpt lat="46.33797" lon="-0.55029">
        <ele>14.6</ele>
        <time>2020-05-31T12:41:52Z</time>
      </trkpt>
      <trkpt lat="46.33797" lon="-0.55034">
        <ele>14.7</ele>
        <time>2020-05-31T12:41:53Z</time>
      </trkpt>
      <trkpt lat="46.33797" lon="-0.5504">
        <ele>14.8</ele>
        <time>2020-05-31T12:41:54Z</time>
      </trkpt>
      <trkpt lat="46.33798" lon="-0.55045">
        <ele>14.8</ele>
        <time>2020-05-31T12:41:55Z</time>
      </trkpt>
      <trkpt lat="46.33798" lon="-0.5505">
        <ele>14.9</ele>
        <time>2020-05-31T12:41:56Z</time>
      </trkpt>
      <trkpt lat="46.33798" lon="-0.55056">
        <ele>15</ele>
        <time>2020-05-31T12:41:57Z</time>
      </trkpt>
      <trkpt lat="46.33798" lon="-0.55062">
        <ele>15</ele>
        <time>2020-05-31T12:41:58Z</time>
      </trkpt>
      <trkpt lat="46.33798" lon="-0.55066">
        <ele>15.1</ele>
        <time>2020-05-31T12:41:59Z</time>
      </trkpt>
      <trkpt lat="46.33799" lon="-0.55072">
        <ele>15.2</ele>
        <time>2020-05-31T12:42:00Z</time>
      </trkpt>
      <trkpt lat="46.33799" lon="-0.55074">
        <ele>15.2</ele>
        <time>2020-05-31T12:42:01Z</time>
      </trkpt>
      <trkpt lat="46.33799" lon="-0.5508">
        <ele>15.3</ele>
        <time>2020-05-31T12:42:02Z</time>
      </trkpt>
      <trkpt lat="46.338" lon="-0.55084">
        <ele>15.3</ele>
        <time>2020-05-31T12:42:03Z</time>
      </trkpt>
      <trkpt lat="46.338" lon="-0.5509">
        <ele>15.4</ele>
        <time>2020-05-31T12:42:04Z</time>
      </trkpt>
      <trkpt lat="46.33801" lon="-0.55095">
        <ele>15.4</ele>
        <time>2020-05-31T12:42:05Z</time>
      </trkpt>
      <trkpt lat="46.33802" lon="-0.551">
        <ele>15.5</ele>
        <time>2020-05-31T12:42:06Z</time>
      </trkpt>
      <trkpt lat="46.33802" lon="-0.55106">
        <ele>15.5</ele>
        <time>2020-05-31T12:42:07Z</time>
      </trkpt>
      <trkpt lat="46.33803" lon="-0.55112">
        <ele>15.6</ele>
        <time>2020-05-31T12:42:08Z</time>
      </trkpt>
      <trkpt lat="46.33803" lon="-0.55117">
        <ele>15.6</ele>
        <time>2020-05-31T12:42:09Z</time>
      </trkpt>
      <trkpt lat="46.33803" lon="-0.55123">
        <ele>15.7</ele>
        <time>2020-05-31T12:42:10Z</time>
      </trkpt>
      <trkpt lat="46.33804" lon="-0.55129">
        <ele>15.7</ele>
        <time>2020-05-31T12:42:11Z</time>
      </trkpt>
      <trkpt lat="46.33804" lon="-0.55136">
        <ele>15.7</ele>
        <time>2020-05-31T12:42:12Z</time>
      </trkpt>
      <trkpt lat="46.33805" lon="-0.55142">
        <ele>15.7</ele>
        <time>2020-05-31T12:42:13Z</time>
      </trkpt>
      <trkpt lat="46.33806" lon="-0.55148">
        <ele>15.7</ele>
        <time>2020-05-31T12:42:14Z</time>
      </trkpt>
      <trkpt lat="46.33806" lon="-0.55154">
        <ele>15.7</ele>
        <time>2020-05-31T12:42:15Z</time>
      </trkpt>
      <trkpt lat="46.33807" lon="-0.5516">
        <ele>15.7</ele>
        <time>2020-05-31T12:42:16Z</time>
      </trkpt>
      <trkpt lat="46.33808" lon="-0.55166">
        <ele>15.7</ele>
        <time>2020-05-31T12:42:17Z</time>
      </trkpt>
      <trkpt lat="46.33808" lon="-0.55172">
        <ele>15.7</ele>
        <time>2020-05-31T12:42:18Z</time>
      </trkpt>
      <trkpt lat="46.33809" lon="-0.55178">
        <ele>15.7</ele>
        <time>2020-05-31T12:42:19Z</time>
      </trkpt>
      <trkpt lat="46.33809" lon="-0.55184">
        <ele>15.7</ele>
        <time>2020-05-31T12:42:20Z</time>
      </trkpt>
      <trkpt lat="46.33809" lon="-0.5519">
        <ele>15.7</ele>
        <time>2020-05-31T12:42:21Z</time>
      </trkpt>
      <trkpt lat="46.3381" lon="-0.55196">
        <ele>15.7</ele>
        <time>2020-05-31T12:42:22Z</time>
      </trkpt>
      <trkpt lat="46.3381" lon="-0.55201">
        <ele>15.7</ele>
        <time>2020-05-31T12:42:23Z</time>
      </trkpt>
      <trkpt lat="46.33811" lon="-0.55207">
        <ele>15.7</ele>
        <time>2020-05-31T12:42:24Z</time>
      </trkpt>
      <trkpt lat="46.33811" lon="-0.55212">
        <ele>15.7</ele>
        <time>2020-05-31T12:42:25Z</time>
      </trkpt>
      <trkpt lat="46.33811" lon="-0.55218">
        <ele>15.7</ele>
        <time>2020-05-31T12:42:26Z</time>
      </trkpt>
      <trkpt lat="46.33811" lon="-0.55223">
        <ele>15.7</ele>
        <time>2020-05-31T12:42:27Z</time>
      </trkpt>
      <trkpt lat="46.33812" lon="-0.5523">
        <ele>15.7</ele>
        <time>2020-05-31T12:42:28Z</time>
      </trkpt>
      <trkpt lat="46.33812" lon="-0.55235">
        <ele>15.7</ele>
        <time>2020-05-31T12:42:29Z</time>
      </trkpt>
      <trkpt lat="46.33812" lon="-0.55241">
        <ele>15.7</ele>
        <time>2020-05-31T12:42:30Z</time>
      </trkpt>
      <trkpt lat="46.33813" lon="-0.55248">
        <ele>15.7</ele>
        <time>2020-05-31T12:42:31Z</time>
      </trkpt>
      <trkpt lat="46.33813" lon="-0.55255">
        <ele>15.7</ele>
        <time>2020-05-31T12:42:32Z</time>
      </trkpt>
      <trkpt lat="46.33813" lon="-0.55262">
        <ele>15.8</ele>
        <time>2020-05-31T12:42:33Z</time>
      </trkpt>
      <trkpt lat="46.33813" lon="-0.55269">
        <ele>15.8</ele>
        <time>2020-05-31T12:42:34Z</time>
      </trkpt>
      <trkpt lat="46.33814" lon="-0.55276">
        <ele>15.8</ele>
        <time>2020-05-31T12:42:35Z</time>
      </trkpt>
      <trkpt lat="46.33814" lon="-0.55283">
        <ele>15.8</ele>
        <time>2020-05-31T12:42:36Z</time>
      </trkpt>
      <trkpt lat="46.33815" lon="-0.5529">
        <ele>15.8</ele>
        <time>2020-05-31T12:42:37Z</time>
      </trkpt>
      <trkpt lat="46.33815" lon="-0.55297">
        <ele>15.8</ele>
        <time>2020-05-31T12:42:38Z</time>
      </trkpt>
      <trkpt lat="46.33816" lon="-0.55305">
        <ele>15.8</ele>
        <time>2020-05-31T12:42:39Z</time>
      </trkpt>
      <trkpt lat="46.33816" lon="-0.55311">
        <ele>15.7</ele>
        <time>2020-05-31T12:42:40Z</time>
      </trkpt>
      <trkpt lat="46.33816" lon="-0.55318">
        <ele>15.7</ele>
        <time>2020-05-31T12:42:41Z</time>
      </trkpt>
      <trkpt lat="46.33816" lon="-0.55325">
        <ele>15.7</ele>
        <time>2020-05-31T12:42:42Z</time>
      </trkpt>
      <trkpt lat="46.33816" lon="-0.55331">
        <ele>15.7</ele>
        <time>2020-05-31T12:42:43Z</time>
      </trkpt>
      <trkpt lat="46.33816" lon="-0.55338">
        <ele>15.7</ele>
        <time>2020-05-31T12:42:44Z</time>
      </trkpt>
      <trkpt lat="46.33816" lon="-0.55345">
        <ele>15.7</ele>
        <time>2020-05-31T12:42:45Z</time>
      </trkpt>
      <trkpt lat="46.33816" lon="-0.55351">
        <ele>15.7</ele>
        <time>2020-05-31T12:42:46Z</time>
      </trkpt>
      <trkpt lat="46.33816" lon="-0.55357">
        <ele>15.7</ele>
        <time>2020-05-31T12:42:47Z</time>
      </trkpt>
      <trkpt lat="46.33816" lon="-0.55363">
        <ele>15.7</ele>
        <time>2020-05-31T12:42:48Z</time>
      </trkpt>
      <trkpt lat="46.33817" lon="-0.5537">
        <ele>15.7</ele>
        <time>2020-05-31T12:42:49Z</time>
      </trkpt>
      <trkpt lat="46.33816" lon="-0.55377">
        <ele>15.7</ele>
        <time>2020-05-31T12:42:50Z</time>
      </trkpt>
      <trkpt lat="46.33816" lon="-0.55384">
        <ele>15.7</ele>
        <time>2020-05-31T12:42:51Z</time>
      </trkpt>
      <trkpt lat="46.33816" lon="-0.5539">
        <ele>15.6</ele>
        <time>2020-05-31T12:42:52Z</time>
      </trkpt>
      <trkpt lat="46.33815" lon="-0.55397">
        <ele>15.6</ele>
        <time>2020-05-31T12:42:53Z</time>
      </trkpt>
      <trkpt lat="46.33814" lon="-0.55404">
        <ele>15.6</ele>
        <time>2020-05-31T12:42:54Z</time>
      </trkpt>
      <trkpt lat="46.33812" lon="-0.5541">
        <ele>15.6</ele>
        <time>2020-05-31T12:42:55Z</time>
      </trkpt>
      <trkpt lat="46.33811" lon="-0.55417">
        <ele>15.5</ele>
        <time>2020-05-31T12:42:56Z</time>
      </trkpt>
      <trkpt lat="46.3381" lon="-0.55423">
        <ele>15.5</ele>
        <time>2020-05-31T12:42:57Z</time>
      </trkpt>
      <trkpt lat="46.33809" lon="-0.55429">
        <ele>15.5</ele>
        <time>2020-05-31T12:42:58Z</time>
      </trkpt>
      <trkpt lat="46.33808" lon="-0.55436">
        <ele>15.5</ele>
        <time>2020-05-31T12:42:59Z</time>
      </trkpt>
      <trkpt lat="46.33807" lon="-0.55442">
        <ele>15.5</ele>
        <time>2020-05-31T12:43:00Z</time>
      </trkpt>
      <trkpt lat="46.33806" lon="-0.55449">
        <ele>15.4</ele>
        <time>2020-05-31T12:43:01Z</time>
      </trkpt>
      <trkpt lat="46.33804" lon="-0.55456">
        <ele>15.4</ele>
        <time>2020-05-31T12:43:02Z</time>
      </trkpt>
      <trkpt lat="46.33803" lon="-0.55463">
        <ele>15.4</ele>
        <time>2020-05-31T12:43:03Z</time>
      </trkpt>
      <trkpt lat="46.33803" lon="-0.55469">
        <ele>15.4</ele>
        <time>2020-05-31T12:43:04Z</time>
      </trkpt>
      <trkpt lat="46.33803" lon="-0.55475">
        <ele>15.3</ele>
        <time>2020-05-31T12:43:05Z</time>
      </trkpt>
      <trkpt lat="46.33802" lon="-0.55482">
        <ele>15.3</ele>
        <time>2020-05-31T12:43:06Z</time>
      </trkpt>
      <trkpt lat="46.33801" lon="-0.55489">
        <ele>15.3</ele>
        <time>2020-05-31T12:43:07Z</time>
      </trkpt>
      <trkpt lat="46.338" lon="-0.55497">
        <ele>15.3</ele>
        <time>2020-05-31T12:43:08Z</time>
      </trkpt>
      <trkpt lat="46.338" lon="-0.55505">
        <ele>15.2</ele>
        <time>2020-05-31T12:43:09Z</time>
      </trkpt>
      <trkpt lat="46.33799" lon="-0.55513">
        <ele>15.2</ele>
        <time>2020-05-31T12:43:10Z</time>
      </trkpt>
      <trkpt lat="46.33799" lon="-0.55521">
        <ele>15.2</ele>
        <time>2020-05-31T12:43:11Z</time>
      </trkpt>
      <trkpt lat="46.33798" lon="-0.55528">
        <ele>15.2</ele>
        <time>2020-05-31T12:43:12Z</time>
      </trkpt>
      <trkpt lat="46.33797" lon="-0.55535">
        <ele>15.2</ele>
        <time>2020-05-31T12:43:13Z</time>
      </trkpt>
      <trkpt lat="46.33796" lon="-0.55543">
        <ele>15.2</ele>
        <time>2020-05-31T12:43:14Z</time>
      </trkpt>
      <trkpt lat="46.33795" lon="-0.5555">
        <ele>15.2</ele>
        <time>2020-05-31T12:43:15Z</time>
      </trkpt>
      <trkpt lat="46.33795" lon="-0.55558">
        <ele>15.2</ele>
        <time>2020-05-31T12:43:16Z</time>
      </trkpt>
      <trkpt lat="46.33795" lon="-0.55566">
        <ele>15.2</ele>
        <time>2020-05-31T12:43:17Z</time>
      </trkpt>
      <trkpt lat="46.33795" lon="-0.55574">
        <ele>15.2</ele>
        <time>2020-05-31T12:43:18Z</time>
      </trkpt>
      <trkpt lat="46.33795" lon="-0.55581">
        <ele>15.2</ele>
        <time>2020-05-31T12:43:19Z</time>
      </trkpt>
      <trkpt lat="46.33795" lon="-0.5559">
        <ele>15.2</ele>
        <time>2020-05-31T12:43:20Z</time>
      </trkpt>
      <trkpt lat="46.33796" lon="-0.55598">
        <ele>15.2</ele>
        <time>2020-05-31T12:43:21Z</time>
      </trkpt>
      <trkpt lat="46.33796" lon="-0.55607">
        <ele>15.2</ele>
        <time>2020-05-31T12:43:22Z</time>
      </trkpt>
      <trkpt lat="46.33795" lon="-0.55614">
        <ele>15.2</ele>
        <time>2020-05-31T12:43:23Z</time>
      </trkpt>
      <trkpt lat="46.33795" lon="-0.55621">
        <ele>15.2</ele>
        <time>2020-05-31T12:43:24Z</time>
      </trkpt>
      <trkpt lat="46.33795" lon="-0.55628">
        <ele>15.2</ele>
        <time>2020-05-31T12:43:25Z</time>
      </trkpt>
      <trkpt lat="46.33795" lon="-0.55635">
        <ele>15.1</ele>
        <time>2020-05-31T12:43:26Z</time>
      </trkpt>
      <trkpt lat="46.33796" lon="-0.55643">
        <ele>15.1</ele>
        <time>2020-05-31T12:43:27Z</time>
      </trkpt>
      <trkpt lat="46.33796" lon="-0.5565">
        <ele>15.1</ele>
        <time>2020-05-31T12:43:28Z</time>
      </trkpt>
      <trkpt lat="46.33796" lon="-0.55657">
        <ele>15.1</ele>
        <time>2020-05-31T12:43:29Z</time>
      </trkpt>
      <trkpt lat="46.33796" lon="-0.55665">
        <ele>15.1</ele>
        <time>2020-05-31T12:43:30Z</time>
      </trkpt>
      <trkpt lat="46.33795" lon="-0.55672">
        <ele>15.1</ele>
        <time>2020-05-31T12:43:31Z</time>
      </trkpt>
      <trkpt lat="46.33795" lon="-0.55679">
        <ele>15.1</ele>
        <time>2020-05-31T12:43:32Z</time>
      </trkpt>
      <trkpt lat="46.33795" lon="-0.55686">
        <ele>15.1</ele>
        <time>2020-05-31T12:43:33Z</time>
      </trkpt>
      <trkpt lat="46.33795" lon="-0.55693">
        <ele>15</ele>
        <time>2020-05-31T12:43:34Z</time>
      </trkpt>
      <trkpt lat="46.33795" lon="-0.55699">
        <ele>15</ele>
        <time>2020-05-31T12:43:35Z</time>
      </trkpt>
      <trkpt lat="46.33794" lon="-0.55707">
        <ele>14.9</ele>
        <time>2020-05-31T12:43:36Z</time>
      </trkpt>
      <trkpt lat="46.33794" lon="-0.55714">
        <ele>14.8</ele>
        <time>2020-05-31T12:43:37Z</time>
      </trkpt>
      <trkpt lat="46.33793" lon="-0.5572">
        <ele>14.8</ele>
        <time>2020-05-31T12:43:38Z</time>
      </trkpt>
      <trkpt lat="46.33792" lon="-0.55726">
        <ele>14.7</ele>
        <time>2020-05-31T12:43:39Z</time>
      </trkpt>
      <trkpt lat="46.33792" lon="-0.55733">
        <ele>14.6</ele>
        <time>2020-05-31T12:43:40Z</time>
      </trkpt>
      <trkpt lat="46.33791" lon="-0.55741">
        <ele>14.5</ele>
        <time>2020-05-31T12:43:41Z</time>
      </trkpt>
      <trkpt lat="46.3379" lon="-0.55749">
        <ele>14.4</ele>
        <time>2020-05-31T12:43:42Z</time>
      </trkpt>
      <trkpt lat="46.33789" lon="-0.55756">
        <ele>14.4</ele>
        <time>2020-05-31T12:43:43Z</time>
      </trkpt>
      <trkpt lat="46.33789" lon="-0.55764">
        <ele>14.3</ele>
        <time>2020-05-31T12:43:44Z</time>
      </trkpt>
      <trkpt lat="46.33788" lon="-0.55772">
        <ele>14.3</ele>
        <time>2020-05-31T12:43:45Z</time>
      </trkpt>
      <trkpt lat="46.33788" lon="-0.5578">
        <ele>14.3</ele>
        <time>2020-05-31T12:43:46Z</time>
      </trkpt>
      <trkpt lat="46.33788" lon="-0.55787">
        <ele>14.3</ele>
        <time>2020-05-31T12:43:47Z</time>
      </trkpt>
      <trkpt lat="46.33787" lon="-0.55795">
        <ele>14.2</ele>
        <time>2020-05-31T12:43:48Z</time>
      </trkpt>
      <trkpt lat="46.33786" lon="-0.55803">
        <ele>14.2</ele>
        <time>2020-05-31T12:43:49Z</time>
      </trkpt>
      <trkpt lat="46.33785" lon="-0.55811">
        <ele>14.2</ele>
        <time>2020-05-31T12:43:50Z</time>
      </trkpt>
      <trkpt lat="46.33784" lon="-0.55819">
        <ele>14.2</ele>
        <time>2020-05-31T12:43:51Z</time>
      </trkpt>
      <trkpt lat="46.33783" lon="-0.55827">
        <ele>14.2</ele>
        <time>2020-05-31T12:43:52Z</time>
      </trkpt>
      <trkpt lat="46.33782" lon="-0.55836">
        <ele>14.1</ele>
        <time>2020-05-31T12:43:53Z</time>
      </trkpt>
      <trkpt lat="46.33781" lon="-0.55845">
        <ele>14.1</ele>
        <time>2020-05-31T12:43:54Z</time>
      </trkpt>
      <trkpt lat="46.33781" lon="-0.55853">
        <ele>14.1</ele>
        <time>2020-05-31T12:43:55Z</time>
      </trkpt>
      <trkpt lat="46.3378" lon="-0.55862">
        <ele>14.1</ele>
        <time>2020-05-31T12:43:56Z</time>
      </trkpt>
      <trkpt lat="46.33779" lon="-0.55869">
        <ele>14.1</ele>
        <time>2020-05-31T12:43:57Z</time>
      </trkpt>
      <trkpt lat="46.33779" lon="-0.55876">
        <ele>14.1</ele>
        <time>2020-05-31T12:43:58Z</time>
      </trkpt>
      <trkpt lat="46.33778" lon="-0.55883">
        <ele>14.1</ele>
        <time>2020-05-31T12:43:59Z</time>
      </trkpt>
      <trkpt lat="46.33778" lon="-0.55891">
        <ele>14.1</ele>
        <time>2020-05-31T12:44:00Z</time>
      </trkpt>
      <trkpt lat="46.33777" lon="-0.55898">
        <ele>14</ele>
        <time>2020-05-31T12:44:01Z</time>
      </trkpt>
      <trkpt lat="46.33777" lon="-0.55905">
        <ele>14</ele>
        <time>2020-05-31T12:44:02Z</time>
      </trkpt>
      <trkpt lat="46.33777" lon="-0.55912">
        <ele>14</ele>
        <time>2020-05-31T12:44:03Z</time>
      </trkpt>
      <trkpt lat="46.33776" lon="-0.5592">
        <ele>14</ele>
        <time>2020-05-31T12:44:04Z</time>
      </trkpt>
      <trkpt lat="46.33776" lon="-0.55928">
        <ele>14</ele>
        <time>2020-05-31T12:44:05Z</time>
      </trkpt>
      <trkpt lat="46.33775" lon="-0.55936">
        <ele>13.9</ele>
        <time>2020-05-31T12:44:06Z</time>
      </trkpt>
      <trkpt lat="46.33774" lon="-0.55943">
        <ele>13.9</ele>
        <time>2020-05-31T12:44:07Z</time>
      </trkpt>
      <trkpt lat="46.33772" lon="-0.5595">
        <ele>13.9</ele>
        <time>2020-05-31T12:44:08Z</time>
      </trkpt>
      <trkpt lat="46.3377" lon="-0.55957">
        <ele>13.9</ele>
        <time>2020-05-31T12:44:09Z</time>
      </trkpt>
      <trkpt lat="46.33769" lon="-0.55964">
        <ele>13.9</ele>
        <time>2020-05-31T12:44:10Z</time>
      </trkpt>
      <trkpt lat="46.33768" lon="-0.55972">
        <ele>13.9</ele>
        <time>2020-05-31T12:44:11Z</time>
      </trkpt>
      <trkpt lat="46.33765" lon="-0.5598">
        <ele>13.8</ele>
        <time>2020-05-31T12:44:12Z</time>
      </trkpt>
      <trkpt lat="46.33761" lon="-0.55987">
        <ele>13.8</ele>
        <time>2020-05-31T12:44:13Z</time>
      </trkpt>
      <trkpt lat="46.33758" lon="-0.55993">
        <ele>13.8</ele>
        <time>2020-05-31T12:44:14Z</time>
      </trkpt>
      <trkpt lat="46.33755" lon="-0.56001">
        <ele>13.8</ele>
        <time>2020-05-31T12:44:15Z</time>
      </trkpt>
      <trkpt lat="46.33752" lon="-0.56007">
        <ele>13.8</ele>
        <time>2020-05-31T12:44:16Z</time>
      </trkpt>
      <trkpt lat="46.33749" lon="-0.56012">
        <ele>13.8</ele>
        <time>2020-05-31T12:44:17Z</time>
      </trkpt>
      <trkpt lat="46.33745" lon="-0.56017">
        <ele>13.8</ele>
        <time>2020-05-31T12:44:18Z</time>
      </trkpt>
      <trkpt lat="46.33741" lon="-0.56023">
        <ele>13.8</ele>
        <time>2020-05-31T12:44:19Z</time>
      </trkpt>
      <trkpt lat="46.33737" lon="-0.56029">
        <ele>13.8</ele>
        <time>2020-05-31T12:44:20Z</time>
      </trkpt>
      <trkpt lat="46.33733" lon="-0.56035">
        <ele>13.8</ele>
        <time>2020-05-31T12:44:21Z</time>
      </trkpt>
      <trkpt lat="46.33729" lon="-0.5604">
        <ele>13.8</ele>
        <time>2020-05-31T12:44:22Z</time>
      </trkpt>
      <trkpt lat="46.33724" lon="-0.56046">
        <ele>13.7</ele>
        <time>2020-05-31T12:44:23Z</time>
      </trkpt>
      <trkpt lat="46.3372" lon="-0.56051">
        <ele>13.7</ele>
        <time>2020-05-31T12:44:24Z</time>
      </trkpt>
      <trkpt lat="46.33716" lon="-0.56056">
        <ele>13.7</ele>
        <time>2020-05-31T12:44:25Z</time>
      </trkpt>
      <trkpt lat="46.33711" lon="-0.56061">
        <ele>13.7</ele>
        <time>2020-05-31T12:44:26Z</time>
      </trkpt>
      <trkpt lat="46.33707" lon="-0.56066">
        <ele>13.6</ele>
        <time>2020-05-31T12:44:27Z</time>
      </trkpt>
      <trkpt lat="46.33703" lon="-0.56072">
        <ele>13.6</ele>
        <time>2020-05-31T12:44:28Z</time>
      </trkpt>
      <trkpt lat="46.33699" lon="-0.56078">
        <ele>13.5</ele>
        <time>2020-05-31T12:44:29Z</time>
      </trkpt>
      <trkpt lat="46.33695" lon="-0.56083">
        <ele>13.5</ele>
        <time>2020-05-31T12:44:30Z</time>
      </trkpt>
      <trkpt lat="46.3369" lon="-0.56089">
        <ele>13.4</ele>
        <time>2020-05-31T12:44:31Z</time>
      </trkpt>
      <trkpt lat="46.33685" lon="-0.56096">
        <ele>13.3</ele>
        <time>2020-05-31T12:44:32Z</time>
      </trkpt>
      <trkpt lat="46.3368" lon="-0.56101">
        <ele>13.2</ele>
        <time>2020-05-31T12:44:33Z</time>
      </trkpt>
      <trkpt lat="46.33674" lon="-0.56106">
        <ele>13.1</ele>
        <time>2020-05-31T12:44:34Z</time>
      </trkpt>
      <trkpt lat="46.33669" lon="-0.56112">
        <ele>13</ele>
        <time>2020-05-31T12:44:35Z</time>
      </trkpt>
      <trkpt lat="46.33664" lon="-0.56115">
        <ele>13</ele>
        <time>2020-05-31T12:44:36Z</time>
      </trkpt>
      <trkpt lat="46.33659" lon="-0.56118">
        <ele>12.9</ele>
        <time>2020-05-31T12:44:37Z</time>
      </trkpt>
      <trkpt lat="46.33654" lon="-0.56123">
        <ele>12.9</ele>
        <time>2020-05-31T12:44:38Z</time>
      </trkpt>
      <trkpt lat="46.33648" lon="-0.56128">
        <ele>12.8</ele>
        <time>2020-05-31T12:44:39Z</time>
      </trkpt>
      <trkpt lat="46.33642" lon="-0.56134">
        <ele>12.8</ele>
        <time>2020-05-31T12:44:40Z</time>
      </trkpt>
      <trkpt lat="46.33636" lon="-0.56139">
        <ele>12.8</ele>
        <time>2020-05-31T12:44:41Z</time>
      </trkpt>
      <trkpt lat="46.33631" lon="-0.56144">
        <ele>12.8</ele>
        <time>2020-05-31T12:44:42Z</time>
      </trkpt>
      <trkpt lat="46.33627" lon="-0.56148">
        <ele>12.8</ele>
        <time>2020-05-31T12:44:43Z</time>
      </trkpt>
      <trkpt lat="46.33622" lon="-0.56155">
        <ele>12.8</ele>
        <time>2020-05-31T12:44:44Z</time>
      </trkpt>
      <trkpt lat="46.33619" lon="-0.56163">
        <ele>12.9</ele>
        <time>2020-05-31T12:44:45Z</time>
      </trkpt>
      <trkpt lat="46.33616" lon="-0.56169">
        <ele>12.9</ele>
        <time>2020-05-31T12:44:46Z</time>
      </trkpt>
      <trkpt lat="46.33613" lon="-0.56176">
        <ele>12.9</ele>
        <time>2020-05-31T12:44:47Z</time>
      </trkpt>
      <trkpt lat="46.33609" lon="-0.56184">
        <ele>12.9</ele>
        <time>2020-05-31T12:44:48Z</time>
      </trkpt>
      <trkpt lat="46.33606" lon="-0.56192">
        <ele>12.9</ele>
        <time>2020-05-31T12:44:49Z</time>
      </trkpt>
      <trkpt lat="46.33603" lon="-0.56198">
        <ele>12.9</ele>
        <time>2020-05-31T12:44:50Z</time>
      </trkpt>
      <trkpt lat="46.336" lon="-0.56205">
        <ele>12.9</ele>
        <time>2020-05-31T12:44:51Z</time>
      </trkpt>
      <trkpt lat="46.33597" lon="-0.56213">
        <ele>12.9</ele>
        <time>2020-05-31T12:44:52Z</time>
      </trkpt>
      <trkpt lat="46.33594" lon="-0.5622">
        <ele>12.9</ele>
        <time>2020-05-31T12:44:53Z</time>
      </trkpt>
      <trkpt lat="46.33592" lon="-0.56225">
        <ele>12.9</ele>
        <time>2020-05-31T12:44:54Z</time>
      </trkpt>
      <trkpt lat="46.33589" lon="-0.56231">
        <ele>12.9</ele>
        <time>2020-05-31T12:44:55Z</time>
      </trkpt>
      <trkpt lat="46.33585" lon="-0.56237">
        <ele>12.9</ele>
        <time>2020-05-31T12:44:56Z</time>
      </trkpt>
      <trkpt lat="46.33582" lon="-0.56243">
        <ele>12.9</ele>
        <time>2020-05-31T12:44:57Z</time>
      </trkpt>
      <trkpt lat="46.33579" lon="-0.56249">
        <ele>12.9</ele>
        <time>2020-05-31T12:44:58Z</time>
      </trkpt>
      <trkpt lat="46.33576" lon="-0.56253">
        <ele>13</ele>
        <time>2020-05-31T12:44:59Z</time>
      </trkpt>
      <trkpt lat="46.33573" lon="-0.56256">
        <ele>13</ele>
        <time>2020-05-31T12:45:00Z</time>
      </trkpt>
      <trkpt lat="46.33571" lon="-0.5626">
        <ele>13</ele>
        <time>2020-05-31T12:45:01Z</time>
      </trkpt>
      <trkpt lat="46.33569" lon="-0.56265">
        <ele>13</ele>
        <time>2020-05-31T12:45:02Z</time>
      </trkpt>
      <trkpt lat="46.33566" lon="-0.5627">
        <ele>13.1</ele>
        <time>2020-05-31T12:45:03Z</time>
      </trkpt>
      <trkpt lat="46.33563" lon="-0.56276">
        <ele>13.1</ele>
        <time>2020-05-31T12:45:04Z</time>
      </trkpt>
      <trkpt lat="46.3356" lon="-0.56282">
        <ele>13.2</ele>
        <time>2020-05-31T12:45:05Z</time>
      </trkpt>
      <trkpt lat="46.33558" lon="-0.56287">
        <ele>13.3</ele>
        <time>2020-05-31T12:45:06Z</time>
      </trkpt>
      <trkpt lat="46.33556" lon="-0.56293">
        <ele>13.4</ele>
        <time>2020-05-31T12:45:07Z</time>
      </trkpt>
      <trkpt lat="46.33553" lon="-0.56298">
        <ele>13.4</ele>
        <time>2020-05-31T12:45:08Z</time>
      </trkpt>
      <trkpt lat="46.3355" lon="-0.56304">
        <ele>13.5</ele>
        <time>2020-05-31T12:45:09Z</time>
      </trkpt>
      <trkpt lat="46.33547" lon="-0.5631">
        <ele>13.6</ele>
        <time>2020-05-31T12:45:10Z</time>
      </trkpt>
      <trkpt lat="46.33544" lon="-0.56315">
        <ele>13.6</ele>
        <time>2020-05-31T12:45:11Z</time>
      </trkpt>
      <trkpt lat="46.33541" lon="-0.56321">
        <ele>13.7</ele>
        <time>2020-05-31T12:45:12Z</time>
      </trkpt>
      <trkpt lat="46.33538" lon="-0.56327">
        <ele>13.8</ele>
        <time>2020-05-31T12:45:13Z</time>
      </trkpt>
      <trkpt lat="46.33534" lon="-0.56333">
        <ele>13.8</ele>
        <time>2020-05-31T12:45:14Z</time>
      </trkpt>
      <trkpt lat="46.33531" lon="-0.5634">
        <ele>13.9</ele>
        <time>2020-05-31T12:45:15Z</time>
      </trkpt>
      <trkpt lat="46.33528" lon="-0.56345">
        <ele>13.9</ele>
        <time>2020-05-31T12:45:16Z</time>
      </trkpt>
      <trkpt lat="46.33525" lon="-0.56353">
        <ele>14</ele>
        <time>2020-05-31T12:45:17Z</time>
      </trkpt>
      <trkpt lat="46.33522" lon="-0.56359">
        <ele>14.1</ele>
        <time>2020-05-31T12:45:18Z</time>
      </trkpt>
      <trkpt lat="46.33519" lon="-0.56366">
        <ele>14.2</ele>
        <time>2020-05-31T12:45:19Z</time>
      </trkpt>
      <trkpt lat="46.33516" lon="-0.56372">
        <ele>14.3</ele>
        <time>2020-05-31T12:45:20Z</time>
      </trkpt>
      <trkpt lat="46.33513" lon="-0.56378">
        <ele>14.3</ele>
        <time>2020-05-31T12:45:21Z</time>
      </trkpt>
      <trkpt lat="46.3351" lon="-0.56384">
        <ele>14.4</ele>
        <time>2020-05-31T12:45:22Z</time>
      </trkpt>
      <trkpt lat="46.33507" lon="-0.5639">
        <ele>14.5</ele>
        <time>2020-05-31T12:45:23Z</time>
      </trkpt>
      <trkpt lat="46.33504" lon="-0.56395">
        <ele>14.5</ele>
        <time>2020-05-31T12:45:24Z</time>
      </trkpt>
      <trkpt lat="46.33501" lon="-0.564">
        <ele>14.6</ele>
        <time>2020-05-31T12:45:25Z</time>
      </trkpt>
      <trkpt lat="46.33498" lon="-0.56405">
        <ele>14.7</ele>
        <time>2020-05-31T12:45:26Z</time>
      </trkpt>
      <trkpt lat="46.33494" lon="-0.56412">
        <ele>14.7</ele>
        <time>2020-05-31T12:45:27Z</time>
      </trkpt>
      <trkpt lat="46.3349" lon="-0.56417">
        <ele>14.8</ele>
        <time>2020-05-31T12:45:28Z</time>
      </trkpt>
      <trkpt lat="46.33486" lon="-0.56424">
        <ele>14.9</ele>
        <time>2020-05-31T12:45:29Z</time>
      </trkpt>
      <trkpt lat="46.33482" lon="-0.56428">
        <ele>15</ele>
        <time>2020-05-31T12:45:30Z</time>
      </trkpt>
      <trkpt lat="46.33479" lon="-0.56431">
        <ele>15.1</ele>
        <time>2020-05-31T12:45:31Z</time>
      </trkpt>
      <trkpt lat="46.33476" lon="-0.56437">
        <ele>15.1</ele>
        <time>2020-05-31T12:45:32Z</time>
      </trkpt>
      <trkpt lat="46.33473" lon="-0.56442">
        <ele>15.2</ele>
        <time>2020-05-31T12:45:33Z</time>
      </trkpt>
      <trkpt lat="46.33471" lon="-0.56445">
        <ele>15.2</ele>
        <time>2020-05-31T12:45:34Z</time>
      </trkpt>
      <trkpt lat="46.33469" lon="-0.5645">
        <ele>15.3</ele>
        <time>2020-05-31T12:45:35Z</time>
      </trkpt>
      <trkpt lat="46.33467" lon="-0.56454">
        <ele>15.3</ele>
        <time>2020-05-31T12:45:36Z</time>
      </trkpt>
      <trkpt lat="46.33465" lon="-0.5646">
        <ele>15.3</ele>
        <time>2020-05-31T12:45:37Z</time>
      </trkpt>
      <trkpt lat="46.33462" lon="-0.56465">
        <ele>15.4</ele>
        <time>2020-05-31T12:45:38Z</time>
      </trkpt>
      <trkpt lat="46.33461" lon="-0.56467">
        <ele>15.4</ele>
        <time>2020-05-31T12:45:39Z</time>
      </trkpt>
      <trkpt lat="46.33458" lon="-0.56473">
        <ele>15.4</ele>
        <time>2020-05-31T12:45:40Z</time>
      </trkpt>
      <trkpt lat="46.33457" lon="-0.56476">
        <ele>15.5</ele>
        <time>2020-05-31T12:45:41Z</time>
      </trkpt>
      <trkpt lat="46.33456" lon="-0.5648">
        <ele>15.5</ele>
        <time>2020-05-31T12:45:42Z</time>
      </trkpt>
      <trkpt lat="46.33453" lon="-0.56484">
        <ele>15.5</ele>
        <time>2020-05-31T12:45:43Z</time>
      </trkpt>
      <trkpt lat="46.33452" lon="-0.56487">
        <ele>15.5</ele>
        <time>2020-05-31T12:45:44Z</time>
      </trkpt>
      <trkpt lat="46.3345" lon="-0.56491">
        <ele>15.6</ele>
        <time>2020-05-31T12:45:45Z</time>
      </trkpt>
      <trkpt lat="46.33448" lon="-0.56495">
        <ele>15.6</ele>
        <time>2020-05-31T12:45:46Z</time>
      </trkpt>
      <trkpt lat="46.33446" lon="-0.56501">
        <ele>15.6</ele>
        <time>2020-05-31T12:45:47Z</time>
      </trkpt>
      <trkpt lat="46.33444" lon="-0.56507">
        <ele>15.6</ele>
        <time>2020-05-31T12:45:48Z</time>
      </trkpt>
      <trkpt lat="46.33442" lon="-0.56513">
        <ele>15.6</ele>
        <time>2020-05-31T12:45:49Z</time>
      </trkpt>
      <trkpt lat="46.33439" lon="-0.5652">
        <ele>15.6</ele>
        <time>2020-05-31T12:45:50Z</time>
      </trkpt>
      <trkpt lat="46.33437" lon="-0.56523">
        <ele>15.6</ele>
        <time>2020-05-31T12:45:51Z</time>
      </trkpt>
      <trkpt lat="46.33434" lon="-0.56528">
        <ele>15.6</ele>
        <time>2020-05-31T12:45:52Z</time>
      </trkpt>
      <trkpt lat="46.33432" lon="-0.56533">
        <ele>15.6</ele>
        <time>2020-05-31T12:45:53Z</time>
      </trkpt>
      <trkpt lat="46.33429" lon="-0.56539">
        <ele>15.6</ele>
        <time>2020-05-31T12:45:54Z</time>
      </trkpt>
      <trkpt lat="46.33426" lon="-0.56544">
        <ele>15.6</ele>
        <time>2020-05-31T12:45:55Z</time>
      </trkpt>
      <trkpt lat="46.33424" lon="-0.5655">
        <ele>15.6</ele>
        <time>2020-05-31T12:45:56Z</time>
      </trkpt>
      <trkpt lat="46.33421" lon="-0.56555">
        <ele>15.6</ele>
        <time>2020-05-31T12:45:57Z</time>
      </trkpt>
      <trkpt lat="46.33419" lon="-0.56561">
        <ele>15.6</ele>
        <time>2020-05-31T12:45:58Z</time>
      </trkpt>
      <trkpt lat="46.33417" lon="-0.56567">
        <ele>15.6</ele>
        <time>2020-05-31T12:45:59Z</time>
      </trkpt>
      <trkpt lat="46.33415" lon="-0.56573">
        <ele>15.6</ele>
        <time>2020-05-31T12:46:00Z</time>
      </trkpt>
      <trkpt lat="46.33412" lon="-0.56579">
        <ele>15.6</ele>
        <time>2020-05-31T12:46:01Z</time>
      </trkpt>
      <trkpt lat="46.33409" lon="-0.56586">
        <ele>15.6</ele>
        <time>2020-05-31T12:46:02Z</time>
      </trkpt>
      <trkpt lat="46.33407" lon="-0.56592">
        <ele>15.6</ele>
        <time>2020-05-31T12:46:03Z</time>
      </trkpt>
      <trkpt lat="46.33404" lon="-0.56598">
        <ele>15.6</ele>
        <time>2020-05-31T12:46:04Z</time>
      </trkpt>
      <trkpt lat="46.33401" lon="-0.56605">
        <ele>15.6</ele>
        <time>2020-05-31T12:46:05Z</time>
      </trkpt>
      <trkpt lat="46.33398" lon="-0.56611">
        <ele>15.6</ele>
        <time>2020-05-31T12:46:06Z</time>
      </trkpt>
      <trkpt lat="46.33395" lon="-0.56617">
        <ele>15.6</ele>
        <time>2020-05-31T12:46:07Z</time>
      </trkpt>
      <trkpt lat="46.33392" lon="-0.56622">
        <ele>15.6</ele>
        <time>2020-05-31T12:46:08Z</time>
      </trkpt>
      <trkpt lat="46.3339" lon="-0.56627">
        <ele>15.6</ele>
        <time>2020-05-31T12:46:09Z</time>
      </trkpt>
      <trkpt lat="46.33388" lon="-0.56633">
        <ele>15.6</ele>
        <time>2020-05-31T12:46:10Z</time>
      </trkpt>
      <trkpt lat="46.33385" lon="-0.56641">
        <ele>15.6</ele>
        <time>2020-05-31T12:46:11Z</time>
      </trkpt>
      <trkpt lat="46.33382" lon="-0.56647">
        <ele>15.6</ele>
        <time>2020-05-31T12:46:12Z</time>
      </trkpt>
      <trkpt lat="46.33379" lon="-0.56653">
        <ele>15.6</ele>
        <time>2020-05-31T12:46:13Z</time>
      </trkpt>
      <trkpt lat="46.33376" lon="-0.5666">
        <ele>15.6</ele>
        <time>2020-05-31T12:46:14Z</time>
      </trkpt>
      <trkpt lat="46.33373" lon="-0.56666">
        <ele>15.6</ele>
        <time>2020-05-31T12:46:15Z</time>
      </trkpt>
      <trkpt lat="46.3337" lon="-0.56674">
        <ele>15.6</ele>
        <time>2020-05-31T12:46:16Z</time>
      </trkpt>
      <trkpt lat="46.33367" lon="-0.5668">
        <ele>15.6</ele>
        <time>2020-05-31T12:46:17Z</time>
      </trkpt>
      <trkpt lat="46.33363" lon="-0.56686">
        <ele>15.6</ele>
        <time>2020-05-31T12:46:18Z</time>
      </trkpt>
      <trkpt lat="46.33361" lon="-0.56691">
        <ele>15.6</ele>
        <time>2020-05-31T12:46:19Z</time>
      </trkpt>
      <trkpt lat="46.33358" lon="-0.56696">
        <ele>15.6</ele>
        <time>2020-05-31T12:46:20Z</time>
      </trkpt>
      <trkpt lat="46.33355" lon="-0.567">
        <ele>15.6</ele>
        <time>2020-05-31T12:46:21Z</time>
      </trkpt>
      <trkpt lat="46.33352" lon="-0.56706">
        <ele>15.6</ele>
        <time>2020-05-31T12:46:22Z</time>
      </trkpt>
      <trkpt lat="46.33348" lon="-0.5671">
        <ele>15.6</ele>
        <time>2020-05-31T12:46:23Z</time>
      </trkpt>
      <trkpt lat="46.33345" lon="-0.56715">
        <ele>15.6</ele>
        <time>2020-05-31T12:46:24Z</time>
      </trkpt>
      <trkpt lat="46.3334" lon="-0.5672">
        <ele>15.6</ele>
        <time>2020-05-31T12:46:25Z</time>
      </trkpt>
      <trkpt lat="46.33337" lon="-0.56725">
        <ele>15.6</ele>
        <time>2020-05-31T12:46:26Z</time>
      </trkpt>
      <trkpt lat="46.33334" lon="-0.5673">
        <ele>15.6</ele>
        <time>2020-05-31T12:46:27Z</time>
      </trkpt>
      <trkpt lat="46.33331" lon="-0.56735">
        <ele>15.7</ele>
        <time>2020-05-31T12:46:28Z</time>
      </trkpt>
      <trkpt lat="46.33328" lon="-0.5674">
        <ele>15.7</ele>
        <time>2020-05-31T12:46:29Z</time>
      </trkpt>
      <trkpt lat="46.33325" lon="-0.56745">
        <ele>15.7</ele>
        <time>2020-05-31T12:46:30Z</time>
      </trkpt>
      <trkpt lat="46.33322" lon="-0.5675">
        <ele>15.7</ele>
        <time>2020-05-31T12:46:31Z</time>
      </trkpt>
      <trkpt lat="46.33319" lon="-0.56754">
        <ele>15.7</ele>
        <time>2020-05-31T12:46:32Z</time>
      </trkpt>
      <trkpt lat="46.33316" lon="-0.5676">
        <ele>15.8</ele>
        <time>2020-05-31T12:46:33Z</time>
      </trkpt>
      <trkpt lat="46.33312" lon="-0.56766">
        <ele>15.8</ele>
        <time>2020-05-31T12:46:34Z</time>
      </trkpt>
      <trkpt lat="46.33309" lon="-0.56771">
        <ele>15.8</ele>
        <time>2020-05-31T12:46:35Z</time>
      </trkpt>
      <trkpt lat="46.33306" lon="-0.56775">
        <ele>15.9</ele>
        <time>2020-05-31T12:46:36Z</time>
      </trkpt>
      <trkpt lat="46.33303" lon="-0.56781">
        <ele>15.9</ele>
        <time>2020-05-31T12:46:37Z</time>
      </trkpt>
      <trkpt lat="46.33299" lon="-0.56786">
        <ele>15.9</ele>
        <time>2020-05-31T12:46:38Z</time>
      </trkpt>
      <trkpt lat="46.33296" lon="-0.56791">
        <ele>16</ele>
        <time>2020-05-31T12:46:39Z</time>
      </trkpt>
      <trkpt lat="46.33293" lon="-0.56796">
        <ele>16</ele>
        <time>2020-05-31T12:46:40Z</time>
      </trkpt>
      <trkpt lat="46.3329" lon="-0.56801">
        <ele>16</ele>
        <time>2020-05-31T12:46:41Z</time>
      </trkpt>
      <trkpt lat="46.33288" lon="-0.56805">
        <ele>16</ele>
        <time>2020-05-31T12:46:42Z</time>
      </trkpt>
      <trkpt lat="46.33285" lon="-0.5681">
        <ele>16.1</ele>
        <time>2020-05-31T12:46:43Z</time>
      </trkpt>
      <trkpt lat="46.33283" lon="-0.56815">
        <ele>16.1</ele>
        <time>2020-05-31T12:46:44Z</time>
      </trkpt>
      <trkpt lat="46.33279" lon="-0.56821">
        <ele>16.1</ele>
        <time>2020-05-31T12:46:45Z</time>
      </trkpt>
      <trkpt lat="46.33275" lon="-0.56826">
        <ele>16.2</ele>
        <time>2020-05-31T12:46:46Z</time>
      </trkpt>
      <trkpt lat="46.33269" lon="-0.56832">
        <ele>16.3</ele>
        <time>2020-05-31T12:46:47Z</time>
      </trkpt>
      <trkpt lat="46.33266" lon="-0.56839">
        <ele>16.3</ele>
        <time>2020-05-31T12:46:48Z</time>
      </trkpt>
      <trkpt lat="46.33261" lon="-0.56844">
        <ele>16.4</ele>
        <time>2020-05-31T12:46:49Z</time>
      </trkpt>
      <trkpt lat="46.33258" lon="-0.5685">
        <ele>16.4</ele>
        <time>2020-05-31T12:46:50Z</time>
      </trkpt>
      <trkpt lat="46.33255" lon="-0.56855">
        <ele>16.5</ele>
        <time>2020-05-31T12:46:51Z</time>
      </trkpt>
      <trkpt lat="46.33249" lon="-0.56863">
        <ele>16.5</ele>
        <time>2020-05-31T12:46:52Z</time>
      </trkpt>
      <trkpt lat="46.33244" lon="-0.56869">
        <ele>16.6</ele>
        <time>2020-05-31T12:46:53Z</time>
      </trkpt>
      <trkpt lat="46.33241" lon="-0.56875">
        <ele>16.7</ele>
        <time>2020-05-31T12:46:54Z</time>
      </trkpt>
      <trkpt lat="46.33236" lon="-0.5688">
        <ele>16.7</ele>
        <time>2020-05-31T12:46:55Z</time>
      </trkpt>
      <trkpt lat="46.33232" lon="-0.56885">
        <ele>16.8</ele>
        <time>2020-05-31T12:46:56Z</time>
      </trkpt>
      <trkpt lat="46.33228" lon="-0.56893">
        <ele>16.9</ele>
        <time>2020-05-31T12:46:57Z</time>
      </trkpt>
      <trkpt lat="46.33224" lon="-0.56898">
        <ele>17</ele>
        <time>2020-05-31T12:46:58Z</time>
      </trkpt>
      <trkpt lat="46.3322" lon="-0.56905">
        <ele>17</ele>
        <time>2020-05-31T12:46:59Z</time>
      </trkpt>
      <trkpt lat="46.33217" lon="-0.56911">
        <ele>17</ele>
        <time>2020-05-31T12:47:00Z</time>
      </trkpt>
      <trkpt lat="46.33213" lon="-0.56917">
        <ele>17.1</ele>
        <time>2020-05-31T12:47:01Z</time>
      </trkpt>
      <trkpt lat="46.3321" lon="-0.56921">
        <ele>17</ele>
        <time>2020-05-31T12:47:02Z</time>
      </trkpt>
      <trkpt lat="46.33207" lon="-0.56927">
        <ele>17</ele>
        <time>2020-05-31T12:47:03Z</time>
      </trkpt>
      <trkpt lat="46.33204" lon="-0.56934">
        <ele>17</ele>
        <time>2020-05-31T12:47:04Z</time>
      </trkpt>
      <trkpt lat="46.33202" lon="-0.56939">
        <ele>17</ele>
        <time>2020-05-31T12:47:05Z</time>
      </trkpt>
      <trkpt lat="46.33199" lon="-0.56945">
        <ele>17</ele>
        <time>2020-05-31T12:47:06Z</time>
      </trkpt>
      <trkpt lat="46.33195" lon="-0.56952">
        <ele>17</ele>
        <time>2020-05-31T12:47:07Z</time>
      </trkpt>
      <trkpt lat="46.33191" lon="-0.56958">
        <ele>17</ele>
        <time>2020-05-31T12:47:08Z</time>
      </trkpt>
      <trkpt lat="46.33188" lon="-0.56962">
        <ele>17</ele>
        <time>2020-05-31T12:47:09Z</time>
      </trkpt>
      <trkpt lat="46.33186" lon="-0.56966">
        <ele>17.1</ele>
        <time>2020-05-31T12:47:10Z</time>
      </trkpt>
      <trkpt lat="46.33183" lon="-0.56972">
        <ele>17.1</ele>
        <time>2020-05-31T12:47:11Z</time>
      </trkpt>
      <trkpt lat="46.3318" lon="-0.56977">
        <ele>17.1</ele>
        <time>2020-05-31T12:47:12Z</time>
      </trkpt>
      <trkpt lat="46.33177" lon="-0.56982">
        <ele>17.1</ele>
        <time>2020-05-31T12:47:13Z</time>
      </trkpt>
      <trkpt lat="46.3317" lon="-0.56987">
        <ele>17.1</ele>
        <time>2020-05-31T12:47:14Z</time>
      </trkpt>
      <trkpt lat="46.33165" lon="-0.56991">
        <ele>17</ele>
        <time>2020-05-31T12:47:15Z</time>
      </trkpt>
      <trkpt lat="46.33161" lon="-0.56994">
        <ele>17</ele>
        <time>2020-05-31T12:47:16Z</time>
      </trkpt>
      <trkpt lat="46.33157" lon="-0.56998">
        <ele>17</ele>
        <time>2020-05-31T12:47:17Z</time>
      </trkpt>
      <trkpt lat="46.33151" lon="-0.57004">
        <ele>17</ele>
        <time>2020-05-31T12:47:18Z</time>
      </trkpt>
      <trkpt lat="46.33146" lon="-0.57009">
        <ele>17</ele>
        <time>2020-05-31T12:47:19Z</time>
      </trkpt>
      <trkpt lat="46.3314" lon="-0.57013">
        <ele>17</ele>
        <time>2020-05-31T12:47:20Z</time>
      </trkpt>
      <trkpt lat="46.33133" lon="-0.57019">
        <ele>17</ele>
        <time>2020-05-31T12:47:21Z</time>
      </trkpt>
      <trkpt lat="46.3312" lon="-0.57031">
        <ele>17</ele>
        <time>2020-05-31T12:47:22Z</time>
      </trkpt>
      <trkpt lat="46.33113" lon="-0.57038">
        <ele>16.9</ele>
        <time>2020-05-31T12:47:23Z</time>
      </trkpt>
      <trkpt lat="46.33105" lon="-0.57046">
        <ele>16.9</ele>
        <time>2020-05-31T12:47:24Z</time>
      </trkpt>
      <trkpt lat="46.33097" lon="-0.57053">
        <ele>16.8</ele>
        <time>2020-05-31T12:47:25Z</time>
      </trkpt>
      <trkpt lat="46.3309" lon="-0.57061">
        <ele>16.7</ele>
        <time>2020-05-31T12:47:26Z</time>
      </trkpt>
      <trkpt lat="46.33082" lon="-0.57068">
        <ele>16.5</ele>
        <time>2020-05-31T12:47:27Z</time>
      </trkpt>
      <trkpt lat="46.33075" lon="-0.57076">
        <ele>16.4</ele>
        <time>2020-05-31T12:47:28Z</time>
      </trkpt>
      <trkpt lat="46.33068" lon="-0.57083">
        <ele>16.2</ele>
        <time>2020-05-31T12:47:29Z</time>
      </trkpt>
      <trkpt lat="46.33062" lon="-0.5709">
        <ele>16.1</ele>
        <time>2020-05-31T12:47:30Z</time>
      </trkpt>
      <trkpt lat="46.33055" lon="-0.57097">
        <ele>16</ele>
        <time>2020-05-31T12:47:31Z</time>
      </trkpt>
      <trkpt lat="46.33048" lon="-0.57102">
        <ele>15.9</ele>
        <time>2020-05-31T12:47:32Z</time>
      </trkpt>
      <trkpt lat="46.33042" lon="-0.57107">
        <ele>15.8</ele>
        <time>2020-05-31T12:47:33Z</time>
      </trkpt>
      <trkpt lat="46.33036" lon="-0.57114">
        <ele>15.7</ele>
        <time>2020-05-31T12:47:34Z</time>
      </trkpt>
      <trkpt lat="46.3303" lon="-0.57119">
        <ele>15.5</ele>
        <time>2020-05-31T12:47:35Z</time>
      </trkpt>
      <trkpt lat="46.33023" lon="-0.57125">
        <ele>15.4</ele>
        <time>2020-05-31T12:47:36Z</time>
      </trkpt>
      <trkpt lat="46.33018" lon="-0.57131">
        <ele>15.3</ele>
        <time>2020-05-31T12:47:37Z</time>
      </trkpt>
      <trkpt lat="46.33013" lon="-0.57136">
        <ele>15.3</ele>
        <time>2020-05-31T12:47:38Z</time>
      </trkpt>
      <trkpt lat="46.33007" lon="-0.57142">
        <ele>15.2</ele>
        <time>2020-05-31T12:47:39Z</time>
      </trkpt>
      <trkpt lat="46.33002" lon="-0.57148">
        <ele>15.1</ele>
        <time>2020-05-31T12:47:40Z</time>
      </trkpt>
      <trkpt lat="46.32997" lon="-0.57153">
        <ele>15.1</ele>
        <time>2020-05-31T12:47:41Z</time>
      </trkpt>
      <trkpt lat="46.32992" lon="-0.57157">
        <ele>15</ele>
        <time>2020-05-31T12:47:42Z</time>
      </trkpt>
      <trkpt lat="46.32988" lon="-0.57161">
        <ele>15</ele>
        <time>2020-05-31T12:47:43Z</time>
      </trkpt>
      <trkpt lat="46.32984" lon="-0.57165">
        <ele>14.9</ele>
        <time>2020-05-31T12:47:44Z</time>
      </trkpt>
      <trkpt lat="46.3298" lon="-0.57169">
        <ele>14.9</ele>
        <time>2020-05-31T12:47:45Z</time>
      </trkpt>
      <trkpt lat="46.32975" lon="-0.57172">
        <ele>14.9</ele>
        <time>2020-05-31T12:47:46Z</time>
      </trkpt>
      <trkpt lat="46.3297" lon="-0.57176">
        <ele>14.8</ele>
        <time>2020-05-31T12:47:47Z</time>
      </trkpt>
      <trkpt lat="46.32964" lon="-0.5718">
        <ele>14.8</ele>
        <time>2020-05-31T12:47:48Z</time>
      </trkpt>
      <trkpt lat="46.3296" lon="-0.57183">
        <ele>14.7</ele>
        <time>2020-05-31T12:47:49Z</time>
      </trkpt>
      <trkpt lat="46.32957" lon="-0.57186">
        <ele>14.7</ele>
        <time>2020-05-31T12:47:50Z</time>
      </trkpt>
      <trkpt lat="46.32953" lon="-0.57191">
        <ele>14.7</ele>
        <time>2020-05-31T12:47:51Z</time>
      </trkpt>
      <trkpt lat="46.3295" lon="-0.57195">
        <ele>14.7</ele>
        <time>2020-05-31T12:47:52Z</time>
      </trkpt>
      <trkpt lat="46.32946" lon="-0.572">
        <ele>14.6</ele>
        <time>2020-05-31T12:47:53Z</time>
      </trkpt>
      <trkpt lat="46.32942" lon="-0.57205">
        <ele>14.6</ele>
        <time>2020-05-31T12:47:54Z</time>
      </trkpt>
      <trkpt lat="46.32939" lon="-0.57208">
        <ele>14.6</ele>
        <time>2020-05-31T12:47:55Z</time>
      </trkpt>
      <trkpt lat="46.32937" lon="-0.57211">
        <ele>14.6</ele>
        <time>2020-05-31T12:47:56Z</time>
      </trkpt>
      <trkpt lat="46.32934" lon="-0.57213">
        <ele>14.6</ele>
        <time>2020-05-31T12:47:57Z</time>
      </trkpt>
      <trkpt lat="46.32931" lon="-0.57216">
        <ele>14.6</ele>
        <time>2020-05-31T12:47:58Z</time>
      </trkpt>
      <trkpt lat="46.32928" lon="-0.5722">
        <ele>14.5</ele>
        <time>2020-05-31T12:47:59Z</time>
      </trkpt>
      <trkpt lat="46.32926" lon="-0.57223">
        <ele>14.5</ele>
        <time>2020-05-31T12:48:00Z</time>
      </trkpt>
      <trkpt lat="46.32923" lon="-0.57225">
        <ele>14.5</ele>
        <time>2020-05-31T12:48:01Z</time>
      </trkpt>
      <trkpt lat="46.3292" lon="-0.57228">
        <ele>14.5</ele>
        <time>2020-05-31T12:48:02Z</time>
      </trkpt>
      <trkpt lat="46.32917" lon="-0.5723">
        <ele>14.4</ele>
        <time>2020-05-31T12:48:03Z</time>
      </trkpt>
      <trkpt lat="46.32914" lon="-0.57233">
        <ele>14.4</ele>
        <time>2020-05-31T12:48:04Z</time>
      </trkpt>
      <trkpt lat="46.32911" lon="-0.57236">
        <ele>14.4</ele>
        <time>2020-05-31T12:48:05Z</time>
      </trkpt>
      <trkpt lat="46.32907" lon="-0.5724">
        <ele>14.3</ele>
        <time>2020-05-31T12:48:06Z</time>
      </trkpt>
      <trkpt lat="46.32904" lon="-0.57244">
        <ele>14.3</ele>
        <time>2020-05-31T12:48:07Z</time>
      </trkpt>
      <trkpt lat="46.329" lon="-0.57247">
        <ele>14.2</ele>
        <time>2020-05-31T12:48:08Z</time>
      </trkpt>
      <trkpt lat="46.32897" lon="-0.57251">
        <ele>14.2</ele>
        <time>2020-05-31T12:48:09Z</time>
      </trkpt>
      <trkpt lat="46.32893" lon="-0.57254">
        <ele>14.1</ele>
        <time>2020-05-31T12:48:10Z</time>
      </trkpt>
      <trkpt lat="46.3289" lon="-0.57258">
        <ele>14.1</ele>
        <time>2020-05-31T12:48:11Z</time>
      </trkpt>
      <trkpt lat="46.32887" lon="-0.57262">
        <ele>14</ele>
        <time>2020-05-31T12:48:12Z</time>
      </trkpt>
      <trkpt lat="46.32884" lon="-0.57265">
        <ele>14</ele>
        <time>2020-05-31T12:48:13Z</time>
      </trkpt>
      <trkpt lat="46.32881" lon="-0.57268">
        <ele>14</ele>
        <time>2020-05-31T12:48:14Z</time>
      </trkpt>
      <trkpt lat="46.32877" lon="-0.5727">
        <ele>13.9</ele>
        <time>2020-05-31T12:48:15Z</time>
      </trkpt>
      <trkpt lat="46.32873" lon="-0.57273">
        <ele>13.9</ele>
        <time>2020-05-31T12:48:16Z</time>
      </trkpt>
      <trkpt lat="46.32869" lon="-0.57275">
        <ele>13.8</ele>
        <time>2020-05-31T12:48:17Z</time>
      </trkpt>
      <trkpt lat="46.32864" lon="-0.57278">
        <ele>13.7</ele>
        <time>2020-05-31T12:48:18Z</time>
      </trkpt>
      <trkpt lat="46.3286" lon="-0.57281">
        <ele>13.6</ele>
        <time>2020-05-31T12:48:19Z</time>
      </trkpt>
      <trkpt lat="46.32854" lon="-0.57284">
        <ele>13.6</ele>
        <time>2020-05-31T12:48:20Z</time>
      </trkpt>
      <trkpt lat="46.32849" lon="-0.57287">
        <ele>13.5</ele>
        <time>2020-05-31T12:48:21Z</time>
      </trkpt>
      <trkpt lat="46.32844" lon="-0.5729">
        <ele>13.4</ele>
        <time>2020-05-31T12:48:22Z</time>
      </trkpt>
      <trkpt lat="46.3284" lon="-0.57294">
        <ele>13.3</ele>
        <time>2020-05-31T12:48:23Z</time>
      </trkpt>
      <trkpt lat="46.32835" lon="-0.57298">
        <ele>13.2</ele>
        <time>2020-05-31T12:48:24Z</time>
      </trkpt>
      <trkpt lat="46.3283" lon="-0.57302">
        <ele>13.1</ele>
        <time>2020-05-31T12:48:25Z</time>
      </trkpt>
      <trkpt lat="46.32825" lon="-0.57305">
        <ele>13</ele>
        <time>2020-05-31T12:48:26Z</time>
      </trkpt>
      <trkpt lat="46.32819" lon="-0.57308">
        <ele>12.9</ele>
        <time>2020-05-31T12:48:27Z</time>
      </trkpt>
      <trkpt lat="46.32814" lon="-0.57312">
        <ele>12.8</ele>
        <time>2020-05-31T12:48:28Z</time>
      </trkpt>
      <trkpt lat="46.32809" lon="-0.57316">
        <ele>12.7</ele>
        <time>2020-05-31T12:48:29Z</time>
      </trkpt>
      <trkpt lat="46.32805" lon="-0.57321">
        <ele>12.6</ele>
        <time>2020-05-31T12:48:30Z</time>
      </trkpt>
      <trkpt lat="46.328" lon="-0.57326">
        <ele>12.5</ele>
        <time>2020-05-31T12:48:31Z</time>
      </trkpt>
      <trkpt lat="46.32795" lon="-0.57331">
        <ele>12.4</ele>
        <time>2020-05-31T12:48:32Z</time>
      </trkpt>
      <trkpt lat="46.32791" lon="-0.57336">
        <ele>12.3</ele>
        <time>2020-05-31T12:48:33Z</time>
      </trkpt>
      <trkpt lat="46.32787" lon="-0.5734">
        <ele>12.2</ele>
        <time>2020-05-31T12:48:34Z</time>
      </trkpt>
      <trkpt lat="46.32783" lon="-0.57345">
        <ele>12.2</ele>
        <time>2020-05-31T12:48:35Z</time>
      </trkpt>
      <trkpt lat="46.32779" lon="-0.57351">
        <ele>12.1</ele>
        <time>2020-05-31T12:48:36Z</time>
      </trkpt>
      <trkpt lat="46.32775" lon="-0.57357">
        <ele>12.1</ele>
        <time>2020-05-31T12:48:37Z</time>
      </trkpt>
      <trkpt lat="46.32772" lon="-0.57364">
        <ele>12.1</ele>
        <time>2020-05-31T12:48:38Z</time>
      </trkpt>
      <trkpt lat="46.3277" lon="-0.57371">
        <ele>12.1</ele>
        <time>2020-05-31T12:48:39Z</time>
      </trkpt>
      <trkpt lat="46.32768" lon="-0.57378">
        <ele>12.2</ele>
        <time>2020-05-31T12:48:40Z</time>
      </trkpt>
      <trkpt lat="46.32766" lon="-0.57385">
        <ele>12.2</ele>
        <time>2020-05-31T12:48:41Z</time>
      </trkpt>
      <trkpt lat="46.32764" lon="-0.57392">
        <ele>12.2</ele>
        <time>2020-05-31T12:48:42Z</time>
      </trkpt>
      <trkpt lat="46.32762" lon="-0.57399">
        <ele>12.1</ele>
        <time>2020-05-31T12:48:43Z</time>
      </trkpt>
      <trkpt lat="46.3276" lon="-0.57407">
        <ele>12.1</ele>
        <time>2020-05-31T12:48:44Z</time>
      </trkpt>
      <trkpt lat="46.32757" lon="-0.57416">
        <ele>12.1</ele>
        <time>2020-05-31T12:48:45Z</time>
      </trkpt>
      <trkpt lat="46.32755" lon="-0.57423">
        <ele>12</ele>
        <time>2020-05-31T12:48:46Z</time>
      </trkpt>
      <trkpt lat="46.32752" lon="-0.57431">
        <ele>12</ele>
        <time>2020-05-31T12:48:47Z</time>
      </trkpt>
      <trkpt lat="46.3275" lon="-0.57439">
        <ele>12</ele>
        <time>2020-05-31T12:48:48Z</time>
      </trkpt>
      <trkpt lat="46.32748" lon="-0.57447">
        <ele>11.9</ele>
        <time>2020-05-31T12:48:49Z</time>
      </trkpt>
      <trkpt lat="46.32745" lon="-0.57455">
        <ele>11.8</ele>
        <time>2020-05-31T12:48:50Z</time>
      </trkpt>
      <trkpt lat="46.32743" lon="-0.57463">
        <ele>11.7</ele>
        <time>2020-05-31T12:48:51Z</time>
      </trkpt>
      <trkpt lat="46.3274" lon="-0.5747">
        <ele>11.6</ele>
        <time>2020-05-31T12:48:52Z</time>
      </trkpt>
      <trkpt lat="46.32738" lon="-0.57478">
        <ele>11.5</ele>
        <time>2020-05-31T12:48:53Z</time>
      </trkpt>
      <trkpt lat="46.32735" lon="-0.57486">
        <ele>11.4</ele>
        <time>2020-05-31T12:48:54Z</time>
      </trkpt>
      <trkpt lat="46.32733" lon="-0.57493">
        <ele>11.3</ele>
        <time>2020-05-31T12:48:55Z</time>
      </trkpt>
      <trkpt lat="46.3273" lon="-0.575">
        <ele>11.2</ele>
        <time>2020-05-31T12:48:56Z</time>
      </trkpt>
      <trkpt lat="46.32727" lon="-0.57507">
        <ele>11.2</ele>
        <time>2020-05-31T12:48:57Z</time>
      </trkpt>
      <trkpt lat="46.32723" lon="-0.57514">
        <ele>11.1</ele>
        <time>2020-05-31T12:48:58Z</time>
      </trkpt>
      <trkpt lat="46.3272" lon="-0.57521">
        <ele>11</ele>
        <time>2020-05-31T12:48:59Z</time>
      </trkpt>
      <trkpt lat="46.32717" lon="-0.57528">
        <ele>10.9</ele>
        <time>2020-05-31T12:49:00Z</time>
      </trkpt>
      <trkpt lat="46.32715" lon="-0.57536">
        <ele>10.8</ele>
        <time>2020-05-31T12:49:01Z</time>
      </trkpt>
      <trkpt lat="46.32712" lon="-0.57544">
        <ele>10.7</ele>
        <time>2020-05-31T12:49:02Z</time>
      </trkpt>
      <trkpt lat="46.32709" lon="-0.57552">
        <ele>10.7</ele>
        <time>2020-05-31T12:49:03Z</time>
      </trkpt>
      <trkpt lat="46.32706" lon="-0.57559">
        <ele>10.7</ele>
        <time>2020-05-31T12:49:04Z</time>
      </trkpt>
      <trkpt lat="46.32703" lon="-0.57566">
        <ele>10.6</ele>
        <time>2020-05-31T12:49:05Z</time>
      </trkpt>
      <trkpt lat="46.32701" lon="-0.57574">
        <ele>10.6</ele>
        <time>2020-05-31T12:49:06Z</time>
      </trkpt>
      <trkpt lat="46.32698" lon="-0.57581">
        <ele>10.5</ele>
        <time>2020-05-31T12:49:07Z</time>
      </trkpt>
      <trkpt lat="46.32695" lon="-0.57588">
        <ele>10.4</ele>
        <time>2020-05-31T12:49:08Z</time>
      </trkpt>
      <trkpt lat="46.32693" lon="-0.57596">
        <ele>10.3</ele>
        <time>2020-05-31T12:49:09Z</time>
      </trkpt>
      <trkpt lat="46.32691" lon="-0.57603">
        <ele>10.2</ele>
        <time>2020-05-31T12:49:10Z</time>
      </trkpt>
      <trkpt lat="46.32689" lon="-0.5761">
        <ele>10.1</ele>
        <time>2020-05-31T12:49:11Z</time>
      </trkpt>
      <trkpt lat="46.32687" lon="-0.57617">
        <ele>10</ele>
        <time>2020-05-31T12:49:12Z</time>
      </trkpt>
      <trkpt lat="46.32685" lon="-0.57626">
        <ele>9.9</ele>
        <time>2020-05-31T12:49:13Z</time>
      </trkpt>
      <trkpt lat="46.32683" lon="-0.57635">
        <ele>9.8</ele>
        <time>2020-05-31T12:49:14Z</time>
      </trkpt>
      <trkpt lat="46.32681" lon="-0.57643">
        <ele>9.7</ele>
        <time>2020-05-31T12:49:15Z</time>
      </trkpt>
      <trkpt lat="46.3268" lon="-0.57649">
        <ele>9.6</ele>
        <time>2020-05-31T12:49:16Z</time>
      </trkpt>
      <trkpt lat="46.32677" lon="-0.57657">
        <ele>9.6</ele>
        <time>2020-05-31T12:49:17Z</time>
      </trkpt>
      <trkpt lat="46.32674" lon="-0.57664">
        <ele>9.5</ele>
        <time>2020-05-31T12:49:18Z</time>
      </trkpt>
      <trkpt lat="46.32672" lon="-0.5767">
        <ele>9.5</ele>
        <time>2020-05-31T12:49:19Z</time>
      </trkpt>
      <trkpt lat="46.32669" lon="-0.57679">
        <ele>9.4</ele>
        <time>2020-05-31T12:49:20Z</time>
      </trkpt>
      <trkpt lat="46.32666" lon="-0.57688">
        <ele>9.3</ele>
        <time>2020-05-31T12:49:21Z</time>
      </trkpt>
      <trkpt lat="46.32664" lon="-0.57697">
        <ele>9.2</ele>
        <time>2020-05-31T12:49:22Z</time>
      </trkpt>
      <trkpt lat="46.32661" lon="-0.57705">
        <ele>9.2</ele>
        <time>2020-05-31T12:49:23Z</time>
      </trkpt>
      <trkpt lat="46.32659" lon="-0.57712">
        <ele>9.1</ele>
        <time>2020-05-31T12:49:24Z</time>
      </trkpt>
      <trkpt lat="46.32657" lon="-0.57718">
        <ele>9.1</ele>
        <time>2020-05-31T12:49:25Z</time>
      </trkpt>
      <trkpt lat="46.32655" lon="-0.57724">
        <ele>9.1</ele>
        <time>2020-05-31T12:49:26Z</time>
      </trkpt>
      <trkpt lat="46.32652" lon="-0.57731">
        <ele>9</ele>
        <time>2020-05-31T12:49:27Z</time>
      </trkpt>
      <trkpt lat="46.3265" lon="-0.57737">
        <ele>9</ele>
        <time>2020-05-31T12:49:28Z</time>
      </trkpt>
      <trkpt lat="46.32648" lon="-0.57743">
        <ele>9</ele>
        <time>2020-05-31T12:49:29Z</time>
      </trkpt>
      <trkpt lat="46.32645" lon="-0.57749">
        <ele>9</ele>
        <time>2020-05-31T12:49:30Z</time>
      </trkpt>
      <trkpt lat="46.32643" lon="-0.57755">
        <ele>9</ele>
        <time>2020-05-31T12:49:31Z</time>
      </trkpt>
      <trkpt lat="46.32641" lon="-0.5776">
        <ele>9</ele>
        <time>2020-05-31T12:49:32Z</time>
      </trkpt>
      <trkpt lat="46.32639" lon="-0.57767">
        <ele>9</ele>
        <time>2020-05-31T12:49:33Z</time>
      </trkpt>
      <trkpt lat="46.32636" lon="-0.57775">
        <ele>9</ele>
        <time>2020-05-31T12:49:34Z</time>
      </trkpt>
      <trkpt lat="46.32633" lon="-0.57781">
        <ele>9</ele>
        <time>2020-05-31T12:49:35Z</time>
      </trkpt>
      <trkpt lat="46.32631" lon="-0.57787">
        <ele>9</ele>
        <time>2020-05-31T12:49:36Z</time>
      </trkpt>
      <trkpt lat="46.32629" lon="-0.57794">
        <ele>9</ele>
        <time>2020-05-31T12:49:37Z</time>
      </trkpt>
      <trkpt lat="46.32624" lon="-0.57802">
        <ele>9.1</ele>
        <time>2020-05-31T12:49:38Z</time>
      </trkpt>
      <trkpt lat="46.3262" lon="-0.57809">
        <ele>9.1</ele>
        <time>2020-05-31T12:49:39Z</time>
      </trkpt>
      <trkpt lat="46.32616" lon="-0.57816">
        <ele>9.1</ele>
        <time>2020-05-31T12:49:40Z</time>
      </trkpt>
      <trkpt lat="46.32613" lon="-0.57822">
        <ele>9.2</ele>
        <time>2020-05-31T12:49:41Z</time>
      </trkpt>
      <trkpt lat="46.32611" lon="-0.57828">
        <ele>9.2</ele>
        <time>2020-05-31T12:49:42Z</time>
      </trkpt>
      <trkpt lat="46.32608" lon="-0.57835">
        <ele>9.2</ele>
        <time>2020-05-31T12:49:43Z</time>
      </trkpt>
      <trkpt lat="46.32605" lon="-0.57843">
        <ele>9.2</ele>
        <time>2020-05-31T12:49:44Z</time>
      </trkpt>
      <trkpt lat="46.32602" lon="-0.5785">
        <ele>9.2</ele>
        <time>2020-05-31T12:49:45Z</time>
      </trkpt>
      <trkpt lat="46.32599" lon="-0.57855">
        <ele>9.3</ele>
        <time>2020-05-31T12:49:46Z</time>
      </trkpt>
      <trkpt lat="46.32596" lon="-0.5786">
        <ele>9.3</ele>
        <time>2020-05-31T12:49:47Z</time>
      </trkpt>
      <trkpt lat="46.32594" lon="-0.57865">
        <ele>9.3</ele>
        <time>2020-05-31T12:49:48Z</time>
      </trkpt>
      <trkpt lat="46.32591" lon="-0.5787">
        <ele>9.3</ele>
        <time>2020-05-31T12:49:49Z</time>
      </trkpt>
      <trkpt lat="46.32589" lon="-0.57875">
        <ele>9.3</ele>
        <time>2020-05-31T12:49:50Z</time>
      </trkpt>
      <trkpt lat="46.32586" lon="-0.57879">
        <ele>9.3</ele>
        <time>2020-05-31T12:49:51Z</time>
      </trkpt>
      <trkpt lat="46.32583" lon="-0.57886">
        <ele>9.3</ele>
        <time>2020-05-31T12:49:52Z</time>
      </trkpt>
      <trkpt lat="46.3258" lon="-0.57894">
        <ele>9.3</ele>
        <time>2020-05-31T12:49:53Z</time>
      </trkpt>
      <trkpt lat="46.32575" lon="-0.57901">
        <ele>9.4</ele>
        <time>2020-05-31T12:49:54Z</time>
      </trkpt>
      <trkpt lat="46.32572" lon="-0.57908">
        <ele>9.4</ele>
        <time>2020-05-31T12:49:55Z</time>
      </trkpt>
      <trkpt lat="46.3257" lon="-0.57916">
        <ele>9.4</ele>
        <time>2020-05-31T12:49:56Z</time>
      </trkpt>
      <trkpt lat="46.32567" lon="-0.57924">
        <ele>9.3</ele>
        <time>2020-05-31T12:49:57Z</time>
      </trkpt>
      <trkpt lat="46.32564" lon="-0.57931">
        <ele>9.3</ele>
        <time>2020-05-31T12:49:58Z</time>
      </trkpt>
      <trkpt lat="46.32562" lon="-0.57939">
        <ele>9.2</ele>
        <time>2020-05-31T12:49:59Z</time>
      </trkpt>
      <trkpt lat="46.32559" lon="-0.57947">
        <ele>9</ele>
        <time>2020-05-31T12:50:00Z</time>
      </trkpt>
      <trkpt lat="46.32556" lon="-0.57955">
        <ele>8.9</ele>
        <time>2020-05-31T12:50:01Z</time>
      </trkpt>
      <trkpt lat="46.32549" lon="-0.57963">
        <ele>8.8</ele>
        <time>2020-05-31T12:50:02Z</time>
      </trkpt>
      <trkpt lat="46.32546" lon="-0.57973">
        <ele>8.7</ele>
        <time>2020-05-31T12:50:03Z</time>
      </trkpt>
      <trkpt lat="46.32543" lon="-0.57983">
        <ele>8.7</ele>
        <time>2020-05-31T12:50:04Z</time>
      </trkpt>
      <trkpt lat="46.32539" lon="-0.57992">
        <ele>8.6</ele>
        <time>2020-05-31T12:50:05Z</time>
      </trkpt>
      <trkpt lat="46.32534" lon="-0.58001">
        <ele>8.6</ele>
        <time>2020-05-31T12:50:06Z</time>
      </trkpt>
      <trkpt lat="46.3253" lon="-0.58012">
        <ele>8.6</ele>
        <time>2020-05-31T12:50:07Z</time>
      </trkpt>
      <trkpt lat="46.32525" lon="-0.58023">
        <ele>8.6</ele>
        <time>2020-05-31T12:50:08Z</time>
      </trkpt>
      <trkpt lat="46.3252" lon="-0.58033">
        <ele>8.6</ele>
        <time>2020-05-31T12:50:09Z</time>
      </trkpt>
      <trkpt lat="46.32516" lon="-0.58044">
        <ele>8.6</ele>
        <time>2020-05-31T12:50:10Z</time>
      </trkpt>
      <trkpt lat="46.32513" lon="-0.58058">
        <ele>8.6</ele>
        <time>2020-05-31T12:50:11Z</time>
      </trkpt>
      <trkpt lat="46.3251" lon="-0.5807">
        <ele>8.5</ele>
        <time>2020-05-31T12:50:12Z</time>
      </trkpt>
      <trkpt lat="46.32507" lon="-0.58081">
        <ele>8.5</ele>
        <time>2020-05-31T12:50:13Z</time>
      </trkpt>
      <trkpt lat="46.32505" lon="-0.58092">
        <ele>8.5</ele>
        <time>2020-05-31T12:50:14Z</time>
      </trkpt>
      <trkpt lat="46.32503" lon="-0.58103">
        <ele>8.5</ele>
        <time>2020-05-31T12:50:15Z</time>
      </trkpt>
      <trkpt lat="46.325" lon="-0.58113">
        <ele>8.5</ele>
        <time>2020-05-31T12:50:16Z</time>
      </trkpt>
      <trkpt lat="46.32498" lon="-0.58122">
        <ele>8.4</ele>
        <time>2020-05-31T12:50:17Z</time>
      </trkpt>
      <trkpt lat="46.32495" lon="-0.5813">
        <ele>8.4</ele>
        <time>2020-05-31T12:50:18Z</time>
      </trkpt>
      <trkpt lat="46.32492" lon="-0.58136">
        <ele>8.4</ele>
        <time>2020-05-31T12:50:19Z</time>
      </trkpt>
      <trkpt lat="46.3249" lon="-0.58144">
        <ele>8.4</ele>
        <time>2020-05-31T12:50:20Z</time>
      </trkpt>
      <trkpt lat="46.32487" lon="-0.58151">
        <ele>8.3</ele>
        <time>2020-05-31T12:50:21Z</time>
      </trkpt>
      <trkpt lat="46.32485" lon="-0.58158">
        <ele>8.3</ele>
        <time>2020-05-31T12:50:22Z</time>
      </trkpt>
      <trkpt lat="46.32482" lon="-0.58165">
        <ele>8.3</ele>
        <time>2020-05-31T12:50:23Z</time>
      </trkpt>
      <trkpt lat="46.32481" lon="-0.58171">
        <ele>8.2</ele>
        <time>2020-05-31T12:50:24Z</time>
      </trkpt>
      <trkpt lat="46.32479" lon="-0.5818">
        <ele>8.2</ele>
        <time>2020-05-31T12:50:25Z</time>
      </trkpt>
      <trkpt lat="46.32477" lon="-0.58188">
        <ele>8.2</ele>
        <time>2020-05-31T12:50:26Z</time>
      </trkpt>
      <trkpt lat="46.32475" lon="-0.58196">
        <ele>8.2</ele>
        <time>2020-05-31T12:50:27Z</time>
      </trkpt>
      <trkpt lat="46.32474" lon="-0.58204">
        <ele>8.1</ele>
        <time>2020-05-31T12:50:28Z</time>
      </trkpt>
      <trkpt lat="46.32472" lon="-0.5821">
        <ele>8.1</ele>
        <time>2020-05-31T12:50:29Z</time>
      </trkpt>
      <trkpt lat="46.3247" lon="-0.58217">
        <ele>8.1</ele>
        <time>2020-05-31T12:50:30Z</time>
      </trkpt>
      <trkpt lat="46.32468" lon="-0.58222">
        <ele>8.1</ele>
        <time>2020-05-31T12:50:31Z</time>
      </trkpt>
      <trkpt lat="46.32467" lon="-0.58227">
        <ele>8.1</ele>
        <time>2020-05-31T12:50:32Z</time>
      </trkpt>
      <trkpt lat="46.32465" lon="-0.58235">
        <ele>8.1</ele>
        <time>2020-05-31T12:50:33Z</time>
      </trkpt>
      <trkpt lat="46.32464" lon="-0.58243">
        <ele>8.1</ele>
        <time>2020-05-31T12:50:34Z</time>
      </trkpt>
      <trkpt lat="46.32463" lon="-0.5825">
        <ele>8.1</ele>
        <time>2020-05-31T12:50:35Z</time>
      </trkpt>
      <trkpt lat="46.32462" lon="-0.58257">
        <ele>8.1</ele>
        <time>2020-05-31T12:50:36Z</time>
      </trkpt>
      <trkpt lat="46.3246" lon="-0.58263">
        <ele>8.1</ele>
        <time>2020-05-31T12:50:37Z</time>
      </trkpt>
      <trkpt lat="46.32459" lon="-0.58269">
        <ele>8.1</ele>
        <time>2020-05-31T12:50:38Z</time>
      </trkpt>
      <trkpt lat="46.32457" lon="-0.58276">
        <ele>8.1</ele>
        <time>2020-05-31T12:50:39Z</time>
      </trkpt>
      <trkpt lat="46.32455" lon="-0.58282">
        <ele>8.1</ele>
        <time>2020-05-31T12:50:40Z</time>
      </trkpt>
      <trkpt lat="46.32454" lon="-0.58289">
        <ele>8.1</ele>
        <time>2020-05-31T12:50:41Z</time>
      </trkpt>
      <trkpt lat="46.32452" lon="-0.58295">
        <ele>8.1</ele>
        <time>2020-05-31T12:50:42Z</time>
      </trkpt>
      <trkpt lat="46.3245" lon="-0.58302">
        <ele>8.1</ele>
        <time>2020-05-31T12:50:43Z</time>
      </trkpt>
      <trkpt lat="46.32449" lon="-0.58308">
        <ele>8.1</ele>
        <time>2020-05-31T12:50:44Z</time>
      </trkpt>
      <trkpt lat="46.32447" lon="-0.58314">
        <ele>8.1</ele>
        <time>2020-05-31T12:50:45Z</time>
      </trkpt>
      <trkpt lat="46.32446" lon="-0.58318">
        <ele>8.1</ele>
        <time>2020-05-31T12:50:46Z</time>
      </trkpt>
      <trkpt lat="46.32445" lon="-0.58324">
        <ele>8.1</ele>
        <time>2020-05-31T12:50:47Z</time>
      </trkpt>
      <trkpt lat="46.32444" lon="-0.58329">
        <ele>8.1</ele>
        <time>2020-05-31T12:50:48Z</time>
      </trkpt>
      <trkpt lat="46.32443" lon="-0.58335">
        <ele>8.1</ele>
        <time>2020-05-31T12:50:49Z</time>
      </trkpt>
      <trkpt lat="46.32442" lon="-0.5834">
        <ele>8.1</ele>
        <time>2020-05-31T12:50:50Z</time>
      </trkpt>
      <trkpt lat="46.32441" lon="-0.58345">
        <ele>8.1</ele>
        <time>2020-05-31T12:50:51Z</time>
      </trkpt>
      <trkpt lat="46.3244" lon="-0.58351">
        <ele>8.1</ele>
        <time>2020-05-31T12:50:52Z</time>
      </trkpt>
      <trkpt lat="46.32438" lon="-0.58357">
        <ele>8.1</ele>
        <time>2020-05-31T12:50:53Z</time>
      </trkpt>
      <trkpt lat="46.32436" lon="-0.58362">
        <ele>8.1</ele>
        <time>2020-05-31T12:50:54Z</time>
      </trkpt>
      <trkpt lat="46.32435" lon="-0.58368">
        <ele>8.1</ele>
        <time>2020-05-31T12:50:55Z</time>
      </trkpt>
      <trkpt lat="46.32434" lon="-0.58375">
        <ele>8.1</ele>
        <time>2020-05-31T12:50:56Z</time>
      </trkpt>
      <trkpt lat="46.32433" lon="-0.58381">
        <ele>8.1</ele>
        <time>2020-05-31T12:50:57Z</time>
      </trkpt>
      <trkpt lat="46.32432" lon="-0.58387">
        <ele>8.1</ele>
        <time>2020-05-31T12:50:58Z</time>
      </trkpt>
      <trkpt lat="46.3243" lon="-0.58395">
        <ele>8</ele>
        <time>2020-05-31T12:50:59Z</time>
      </trkpt>
      <trkpt lat="46.32427" lon="-0.58401">
        <ele>8</ele>
        <time>2020-05-31T12:51:00Z</time>
      </trkpt>
      <trkpt lat="46.32425" lon="-0.58408">
        <ele>8</ele>
        <time>2020-05-31T12:51:01Z</time>
      </trkpt>
      <trkpt lat="46.32423" lon="-0.58415">
        <ele>8</ele>
        <time>2020-05-31T12:51:02Z</time>
      </trkpt>
      <trkpt lat="46.32421" lon="-0.58422">
        <ele>7.9</ele>
        <time>2020-05-31T12:51:03Z</time>
      </trkpt>
      <trkpt lat="46.32419" lon="-0.58428">
        <ele>7.9</ele>
        <time>2020-05-31T12:51:04Z</time>
      </trkpt>
      <trkpt lat="46.32417" lon="-0.58433">
        <ele>7.9</ele>
        <time>2020-05-31T12:51:05Z</time>
      </trkpt>
      <trkpt lat="46.32416" lon="-0.58438">
        <ele>7.8</ele>
        <time>2020-05-31T12:51:06Z</time>
      </trkpt>
      <trkpt lat="46.32415" lon="-0.58444">
        <ele>7.8</ele>
        <time>2020-05-31T12:51:07Z</time>
      </trkpt>
      <trkpt lat="46.32413" lon="-0.5845">
        <ele>7.8</ele>
        <time>2020-05-31T12:51:08Z</time>
      </trkpt>
      <trkpt lat="46.32411" lon="-0.58456">
        <ele>7.8</ele>
        <time>2020-05-31T12:51:09Z</time>
      </trkpt>
      <trkpt lat="46.3241" lon="-0.58461">
        <ele>7.7</ele>
        <time>2020-05-31T12:51:10Z</time>
      </trkpt>
      <trkpt lat="46.32408" lon="-0.58466">
        <ele>7.7</ele>
        <time>2020-05-31T12:51:11Z</time>
      </trkpt>
      <trkpt lat="46.32405" lon="-0.58473">
        <ele>7.7</ele>
        <time>2020-05-31T12:51:12Z</time>
      </trkpt>
      <trkpt lat="46.32402" lon="-0.58479">
        <ele>7.7</ele>
        <time>2020-05-31T12:51:13Z</time>
      </trkpt>
      <trkpt lat="46.324" lon="-0.58483">
        <ele>7.6</ele>
        <time>2020-05-31T12:51:14Z</time>
      </trkpt>
      <trkpt lat="46.32398" lon="-0.58488">
        <ele>7.6</ele>
        <time>2020-05-31T12:51:15Z</time>
      </trkpt>
      <trkpt lat="46.32395" lon="-0.58493">
        <ele>7.6</ele>
        <time>2020-05-31T12:51:16Z</time>
      </trkpt>
      <trkpt lat="46.32391" lon="-0.58499">
        <ele>7.6</ele>
        <time>2020-05-31T12:51:17Z</time>
      </trkpt>
      <trkpt lat="46.32387" lon="-0.58504">
        <ele>7.6</ele>
        <time>2020-05-31T12:51:18Z</time>
      </trkpt>
      <trkpt lat="46.32386" lon="-0.58513">
        <ele>7.5</ele>
        <time>2020-05-31T12:51:19Z</time>
      </trkpt>
      <trkpt lat="46.32384" lon="-0.58519">
        <ele>7.5</ele>
        <time>2020-05-31T12:51:20Z</time>
      </trkpt>
      <trkpt lat="46.32382" lon="-0.58525">
        <ele>7.5</ele>
        <time>2020-05-31T12:51:21Z</time>
      </trkpt>
      <trkpt lat="46.3238" lon="-0.58532">
        <ele>7.5</ele>
        <time>2020-05-31T12:51:22Z</time>
      </trkpt>
      <trkpt lat="46.32378" lon="-0.58538">
        <ele>7.5</ele>
        <time>2020-05-31T12:51:23Z</time>
      </trkpt>
      <trkpt lat="46.32377" lon="-0.58544">
        <ele>7.4</ele>
        <time>2020-05-31T12:51:24Z</time>
      </trkpt>
      <trkpt lat="46.32375" lon="-0.5855">
        <ele>7.4</ele>
        <time>2020-05-31T12:51:25Z</time>
      </trkpt>
      <trkpt lat="46.32373" lon="-0.58557">
        <ele>7.4</ele>
        <time>2020-05-31T12:51:26Z</time>
      </trkpt>
      <trkpt lat="46.32371" lon="-0.58565">
        <ele>7.4</ele>
        <time>2020-05-31T12:51:27Z</time>
      </trkpt>
      <trkpt lat="46.32369" lon="-0.58573">
        <ele>7.4</ele>
        <time>2020-05-31T12:51:28Z</time>
      </trkpt>
      <trkpt lat="46.32368" lon="-0.58581">
        <ele>7.4</ele>
        <time>2020-05-31T12:51:29Z</time>
      </trkpt>
      <trkpt lat="46.32367" lon="-0.5859">
        <ele>7.4</ele>
        <time>2020-05-31T12:51:30Z</time>
      </trkpt>
      <trkpt lat="46.32366" lon="-0.58598">
        <ele>7.4</ele>
        <time>2020-05-31T12:51:31Z</time>
      </trkpt>
      <trkpt lat="46.32365" lon="-0.58607">
        <ele>7.4</ele>
        <time>2020-05-31T12:51:32Z</time>
      </trkpt>
      <trkpt lat="46.32363" lon="-0.58615">
        <ele>7.4</ele>
        <time>2020-05-31T12:51:33Z</time>
      </trkpt>
      <trkpt lat="46.32362" lon="-0.58624">
        <ele>7.5</ele>
        <time>2020-05-31T12:51:34Z</time>
      </trkpt>
      <trkpt lat="46.3236" lon="-0.58631">
        <ele>7.5</ele>
        <time>2020-05-31T12:51:35Z</time>
      </trkpt>
      <trkpt lat="46.32357" lon="-0.58637">
        <ele>7.5</ele>
        <time>2020-05-31T12:51:36Z</time>
      </trkpt>
      <trkpt lat="46.32354" lon="-0.58644">
        <ele>7.5</ele>
        <time>2020-05-31T12:51:37Z</time>
      </trkpt>
      <trkpt lat="46.32351" lon="-0.58651">
        <ele>7.5</ele>
        <time>2020-05-31T12:51:38Z</time>
      </trkpt>
      <trkpt lat="46.32348" lon="-0.58658">
        <ele>7.5</ele>
        <time>2020-05-31T12:51:39Z</time>
      </trkpt>
      <trkpt lat="46.32344" lon="-0.58665">
        <ele>7.5</ele>
        <time>2020-05-31T12:51:40Z</time>
      </trkpt>
      <trkpt lat="46.32341" lon="-0.58671">
        <ele>7.5</ele>
        <time>2020-05-31T12:51:41Z</time>
      </trkpt>
      <trkpt lat="46.32339" lon="-0.58677">
        <ele>7.5</ele>
        <time>2020-05-31T12:51:42Z</time>
      </trkpt>
      <trkpt lat="46.32336" lon="-0.58684">
        <ele>7.4</ele>
        <time>2020-05-31T12:51:43Z</time>
      </trkpt>
      <trkpt lat="46.32333" lon="-0.58689">
        <ele>7.4</ele>
        <time>2020-05-31T12:51:44Z</time>
      </trkpt>
      <trkpt lat="46.32329" lon="-0.58695">
        <ele>7.4</ele>
        <time>2020-05-31T12:51:45Z</time>
      </trkpt>
      <trkpt lat="46.32326" lon="-0.58701">
        <ele>7.4</ele>
        <time>2020-05-31T12:51:46Z</time>
      </trkpt>
      <trkpt lat="46.32322" lon="-0.58707">
        <ele>7.4</ele>
        <time>2020-05-31T12:51:47Z</time>
      </trkpt>
      <trkpt lat="46.32318" lon="-0.58712">
        <ele>7.4</ele>
        <time>2020-05-31T12:51:48Z</time>
      </trkpt>
      <trkpt lat="46.32315" lon="-0.58717">
        <ele>7.3</ele>
        <time>2020-05-31T12:51:49Z</time>
      </trkpt>
      <trkpt lat="46.32312" lon="-0.58723">
        <ele>7.3</ele>
        <time>2020-05-31T12:51:50Z</time>
      </trkpt>
      <trkpt lat="46.32308" lon="-0.58729">
        <ele>7.2</ele>
        <time>2020-05-31T12:51:51Z</time>
      </trkpt>
      <trkpt lat="46.32304" lon="-0.58735">
        <ele>7.2</ele>
        <time>2020-05-31T12:51:52Z</time>
      </trkpt>
      <trkpt lat="46.323" lon="-0.58741">
        <ele>7.2</ele>
        <time>2020-05-31T12:51:53Z</time>
      </trkpt>
      <trkpt lat="46.32297" lon="-0.58747">
        <ele>7.1</ele>
        <time>2020-05-31T12:51:54Z</time>
      </trkpt>
      <trkpt lat="46.32294" lon="-0.58754">
        <ele>7.1</ele>
        <time>2020-05-31T12:51:55Z</time>
      </trkpt>
      <trkpt lat="46.3229" lon="-0.5876">
        <ele>7.1</ele>
        <time>2020-05-31T12:51:56Z</time>
      </trkpt>
      <trkpt lat="46.32287" lon="-0.58766">
        <ele>7</ele>
        <time>2020-05-31T12:51:57Z</time>
      </trkpt>
      <trkpt lat="46.32284" lon="-0.58773">
        <ele>7</ele>
        <time>2020-05-31T12:51:58Z</time>
      </trkpt>
      <trkpt lat="46.32281" lon="-0.5878">
        <ele>7</ele>
        <time>2020-05-31T12:51:59Z</time>
      </trkpt>
      <trkpt lat="46.32277" lon="-0.58786">
        <ele>6.9</ele>
        <time>2020-05-31T12:52:00Z</time>
      </trkpt>
      <trkpt lat="46.32273" lon="-0.58791">
        <ele>6.8</ele>
        <time>2020-05-31T12:52:01Z</time>
      </trkpt>
      <trkpt lat="46.32269" lon="-0.58796">
        <ele>6.7</ele>
        <time>2020-05-31T12:52:02Z</time>
      </trkpt>
      <trkpt lat="46.32266" lon="-0.58803">
        <ele>6.7</ele>
        <time>2020-05-31T12:52:03Z</time>
      </trkpt>
      <trkpt lat="46.32262" lon="-0.58808">
        <ele>6.6</ele>
        <time>2020-05-31T12:52:04Z</time>
      </trkpt>
      <trkpt lat="46.32259" lon="-0.58815">
        <ele>6.6</ele>
        <time>2020-05-31T12:52:05Z</time>
      </trkpt>
      <trkpt lat="46.32255" lon="-0.58819">
        <ele>6.5</ele>
        <time>2020-05-31T12:52:06Z</time>
      </trkpt>
      <trkpt lat="46.3225" lon="-0.58824">
        <ele>6.5</ele>
        <time>2020-05-31T12:52:07Z</time>
      </trkpt>
      <trkpt lat="46.32246" lon="-0.5883">
        <ele>6.4</ele>
        <time>2020-05-31T12:52:08Z</time>
      </trkpt>
      <trkpt lat="46.32242" lon="-0.58835">
        <ele>6.3</ele>
        <time>2020-05-31T12:52:09Z</time>
      </trkpt>
      <trkpt lat="46.32238" lon="-0.58841">
        <ele>6.3</ele>
        <time>2020-05-31T12:52:10Z</time>
      </trkpt>
      <trkpt lat="46.32235" lon="-0.58847">
        <ele>6.2</ele>
        <time>2020-05-31T12:52:11Z</time>
      </trkpt>
      <trkpt lat="46.32231" lon="-0.58852">
        <ele>6</ele>
        <time>2020-05-31T12:52:12Z</time>
      </trkpt>
      <trkpt lat="46.32227" lon="-0.58857">
        <ele>5.9</ele>
        <time>2020-05-31T12:52:13Z</time>
      </trkpt>
      <trkpt lat="46.32223" lon="-0.58862">
        <ele>5.8</ele>
        <time>2020-05-31T12:52:14Z</time>
      </trkpt>
      <trkpt lat="46.32219" lon="-0.58867">
        <ele>5.7</ele>
        <time>2020-05-31T12:52:15Z</time>
      </trkpt>
      <trkpt lat="46.32215" lon="-0.58871">
        <ele>5.7</ele>
        <time>2020-05-31T12:52:16Z</time>
      </trkpt>
      <trkpt lat="46.32211" lon="-0.58876">
        <ele>5.6</ele>
        <time>2020-05-31T12:52:17Z</time>
      </trkpt>
      <trkpt lat="46.32207" lon="-0.58881">
        <ele>5.5</ele>
        <time>2020-05-31T12:52:18Z</time>
      </trkpt>
      <trkpt lat="46.32203" lon="-0.58887">
        <ele>5.4</ele>
        <time>2020-05-31T12:52:19Z</time>
      </trkpt>
      <trkpt lat="46.32199" lon="-0.58894">
        <ele>5.4</ele>
        <time>2020-05-31T12:52:20Z</time>
      </trkpt>
      <trkpt lat="46.32195" lon="-0.58899">
        <ele>5.4</ele>
        <time>2020-05-31T12:52:21Z</time>
      </trkpt>
      <trkpt lat="46.32191" lon="-0.58904">
        <ele>5.4</ele>
        <time>2020-05-31T12:52:22Z</time>
      </trkpt>
      <trkpt lat="46.32188" lon="-0.58909">
        <ele>5.3</ele>
        <time>2020-05-31T12:52:23Z</time>
      </trkpt>
      <trkpt lat="46.32185" lon="-0.58913">
        <ele>5.3</ele>
        <time>2020-05-31T12:52:24Z</time>
      </trkpt>
      <trkpt lat="46.32182" lon="-0.5892">
        <ele>5.3</ele>
        <time>2020-05-31T12:52:25Z</time>
      </trkpt>
      <trkpt lat="46.32179" lon="-0.58928">
        <ele>5.3</ele>
        <time>2020-05-31T12:52:26Z</time>
      </trkpt>
      <trkpt lat="46.32176" lon="-0.58935">
        <ele>5.2</ele>
        <time>2020-05-31T12:52:27Z</time>
      </trkpt>
      <trkpt lat="46.32174" lon="-0.58943">
        <ele>5.2</ele>
        <time>2020-05-31T12:52:28Z</time>
      </trkpt>
      <trkpt lat="46.32171" lon="-0.58951">
        <ele>5.2</ele>
        <time>2020-05-31T12:52:29Z</time>
      </trkpt>
      <trkpt lat="46.32169" lon="-0.58959">
        <ele>5.2</ele>
        <time>2020-05-31T12:52:30Z</time>
      </trkpt>
      <trkpt lat="46.32166" lon="-0.58967">
        <ele>5.2</ele>
        <time>2020-05-31T12:52:31Z</time>
      </trkpt>
      <trkpt lat="46.32164" lon="-0.58974">
        <ele>5.2</ele>
        <time>2020-05-31T12:52:32Z</time>
      </trkpt>
      <trkpt lat="46.32161" lon="-0.58981">
        <ele>5.2</ele>
        <time>2020-05-31T12:52:33Z</time>
      </trkpt>
      <trkpt lat="46.32158" lon="-0.58987">
        <ele>5.2</ele>
        <time>2020-05-31T12:52:34Z</time>
      </trkpt>
      <trkpt lat="46.32155" lon="-0.58995">
        <ele>5.2</ele>
        <time>2020-05-31T12:52:35Z</time>
      </trkpt>
      <trkpt lat="46.32151" lon="-0.59003">
        <ele>5.2</ele>
        <time>2020-05-31T12:52:36Z</time>
      </trkpt>
      <trkpt lat="46.32149" lon="-0.59011">
        <ele>5.2</ele>
        <time>2020-05-31T12:52:37Z</time>
      </trkpt>
      <trkpt lat="46.32145" lon="-0.59018">
        <ele>5.1</ele>
        <time>2020-05-31T12:52:38Z</time>
      </trkpt>
      <trkpt lat="46.32142" lon="-0.59025">
        <ele>5.1</ele>
        <time>2020-05-31T12:52:39Z</time>
      </trkpt>
      <trkpt lat="46.32139" lon="-0.59033">
        <ele>5.1</ele>
        <time>2020-05-31T12:52:40Z</time>
      </trkpt>
      <trkpt lat="46.32137" lon="-0.59041">
        <ele>5.1</ele>
        <time>2020-05-31T12:52:41Z</time>
      </trkpt>
      <trkpt lat="46.32134" lon="-0.59048">
        <ele>5.1</ele>
        <time>2020-05-31T12:52:42Z</time>
      </trkpt>
      <trkpt lat="46.3213" lon="-0.59054">
        <ele>5.1</ele>
        <time>2020-05-31T12:52:43Z</time>
      </trkpt>
      <trkpt lat="46.32127" lon="-0.5906">
        <ele>5.1</ele>
        <time>2020-05-31T12:52:44Z</time>
      </trkpt>
      <trkpt lat="46.32124" lon="-0.59066">
        <ele>5.1</ele>
        <time>2020-05-31T12:52:45Z</time>
      </trkpt>
      <trkpt lat="46.32121" lon="-0.59072">
        <ele>5.1</ele>
        <time>2020-05-31T12:52:46Z</time>
      </trkpt>
      <trkpt lat="46.32118" lon="-0.59077">
        <ele>5.1</ele>
        <time>2020-05-31T12:52:47Z</time>
      </trkpt>
      <trkpt lat="46.32115" lon="-0.59082">
        <ele>5.1</ele>
        <time>2020-05-31T12:52:48Z</time>
      </trkpt>
      <trkpt lat="46.3211" lon="-0.59087">
        <ele>5.1</ele>
        <time>2020-05-31T12:52:49Z</time>
      </trkpt>
      <trkpt lat="46.32105" lon="-0.59092">
        <ele>5.2</ele>
        <time>2020-05-31T12:52:50Z</time>
      </trkpt>
      <trkpt lat="46.32101" lon="-0.59098">
        <ele>5.2</ele>
        <time>2020-05-31T12:52:51Z</time>
      </trkpt>
      <trkpt lat="46.32096" lon="-0.59103">
        <ele>5.2</ele>
        <time>2020-05-31T12:52:52Z</time>
      </trkpt>
      <trkpt lat="46.3209" lon="-0.59106">
        <ele>5.3</ele>
        <time>2020-05-31T12:52:53Z</time>
      </trkpt>
      <trkpt lat="46.32086" lon="-0.59109">
        <ele>5.3</ele>
        <time>2020-05-31T12:52:54Z</time>
      </trkpt>
      <trkpt lat="46.32082" lon="-0.59112">
        <ele>5.3</ele>
        <time>2020-05-31T12:52:55Z</time>
      </trkpt>
      <trkpt lat="46.32078" lon="-0.59116">
        <ele>5.4</ele>
        <time>2020-05-31T12:52:56Z</time>
      </trkpt>
      <trkpt lat="46.32074" lon="-0.5912">
        <ele>5.4</ele>
        <time>2020-05-31T12:52:57Z</time>
      </trkpt>
      <trkpt lat="46.32069" lon="-0.59122">
        <ele>5.3</ele>
        <time>2020-05-31T12:52:58Z</time>
      </trkpt>
      <trkpt lat="46.32065" lon="-0.59126">
        <ele>5.3</ele>
        <time>2020-05-31T12:52:59Z</time>
      </trkpt>
      <trkpt lat="46.3206" lon="-0.5913">
        <ele>5.3</ele>
        <time>2020-05-31T12:53:00Z</time>
      </trkpt>
      <trkpt lat="46.32056" lon="-0.59134">
        <ele>5.2</ele>
        <time>2020-05-31T12:53:01Z</time>
      </trkpt>
      <trkpt lat="46.32053" lon="-0.59137">
        <ele>5.2</ele>
        <time>2020-05-31T12:53:02Z</time>
      </trkpt>
      <trkpt lat="46.32049" lon="-0.5914">
        <ele>5.2</ele>
        <time>2020-05-31T12:53:03Z</time>
      </trkpt>
      <trkpt lat="46.32046" lon="-0.59144">
        <ele>5.2</ele>
        <time>2020-05-31T12:53:04Z</time>
      </trkpt>
      <trkpt lat="46.32042" lon="-0.59147">
        <ele>5.1</ele>
        <time>2020-05-31T12:53:05Z</time>
      </trkpt>
      <trkpt lat="46.32038" lon="-0.59153">
        <ele>5.1</ele>
        <time>2020-05-31T12:53:06Z</time>
      </trkpt>
      <trkpt lat="46.32033" lon="-0.59157">
        <ele>5.1</ele>
        <time>2020-05-31T12:53:07Z</time>
      </trkpt>
      <trkpt lat="46.32029" lon="-0.5916">
        <ele>5</ele>
        <time>2020-05-31T12:53:08Z</time>
      </trkpt>
      <trkpt lat="46.32025" lon="-0.59163">
        <ele>5</ele>
        <time>2020-05-31T12:53:09Z</time>
      </trkpt>
      <trkpt lat="46.32021" lon="-0.59167">
        <ele>5</ele>
        <time>2020-05-31T12:53:10Z</time>
      </trkpt>
      <trkpt lat="46.32016" lon="-0.59171">
        <ele>5</ele>
        <time>2020-05-31T12:53:11Z</time>
      </trkpt>
      <trkpt lat="46.32012" lon="-0.59177">
        <ele>4.9</ele>
        <time>2020-05-31T12:53:12Z</time>
      </trkpt>
      <trkpt lat="46.32007" lon="-0.59183">
        <ele>4.9</ele>
        <time>2020-05-31T12:53:13Z</time>
      </trkpt>
      <trkpt lat="46.32001" lon="-0.59188">
        <ele>4.9</ele>
        <time>2020-05-31T12:53:14Z</time>
      </trkpt>
      <trkpt lat="46.31997" lon="-0.59192">
        <ele>4.9</ele>
        <time>2020-05-31T12:53:15Z</time>
      </trkpt>
      <trkpt lat="46.31993" lon="-0.59196">
        <ele>4.9</ele>
        <time>2020-05-31T12:53:16Z</time>
      </trkpt>
      <trkpt lat="46.3199" lon="-0.59202">
        <ele>4.9</ele>
        <time>2020-05-31T12:53:17Z</time>
      </trkpt>
      <trkpt lat="46.31986" lon="-0.59207">
        <ele>4.8</ele>
        <time>2020-05-31T12:53:18Z</time>
      </trkpt>
      <trkpt lat="46.31981" lon="-0.59211">
        <ele>4.8</ele>
        <time>2020-05-31T12:53:19Z</time>
      </trkpt>
      <trkpt lat="46.31976" lon="-0.59217">
        <ele>4.8</ele>
        <time>2020-05-31T12:53:20Z</time>
      </trkpt>
      <trkpt lat="46.31972" lon="-0.59223">
        <ele>4.8</ele>
        <time>2020-05-31T12:53:21Z</time>
      </trkpt>
      <trkpt lat="46.31969" lon="-0.59229">
        <ele>4.8</ele>
        <time>2020-05-31T12:53:22Z</time>
      </trkpt>
      <trkpt lat="46.31965" lon="-0.59236">
        <ele>4.8</ele>
        <time>2020-05-31T12:53:23Z</time>
      </trkpt>
      <trkpt lat="46.31962" lon="-0.59242">
        <ele>4.8</ele>
        <time>2020-05-31T12:53:24Z</time>
      </trkpt>
      <trkpt lat="46.31959" lon="-0.59249">
        <ele>4.8</ele>
        <time>2020-05-31T12:53:25Z</time>
      </trkpt>
      <trkpt lat="46.31956" lon="-0.59257">
        <ele>4.8</ele>
        <time>2020-05-31T12:53:26Z</time>
      </trkpt>
      <trkpt lat="46.31954" lon="-0.59264">
        <ele>4.8</ele>
        <time>2020-05-31T12:53:27Z</time>
      </trkpt>
      <trkpt lat="46.31952" lon="-0.59273">
        <ele>4.9</ele>
        <time>2020-05-31T12:53:28Z</time>
      </trkpt>
      <trkpt lat="46.3195" lon="-0.59282">
        <ele>4.9</ele>
        <time>2020-05-31T12:53:29Z</time>
      </trkpt>
      <trkpt lat="46.31947" lon="-0.59289">
        <ele>4.9</ele>
        <time>2020-05-31T12:53:30Z</time>
      </trkpt>
      <trkpt lat="46.31945" lon="-0.59296">
        <ele>4.9</ele>
        <time>2020-05-31T12:53:31Z</time>
      </trkpt>
      <trkpt lat="46.31943" lon="-0.59304">
        <ele>4.9</ele>
        <time>2020-05-31T12:53:32Z</time>
      </trkpt>
      <trkpt lat="46.3194" lon="-0.59311">
        <ele>4.9</ele>
        <time>2020-05-31T12:53:33Z</time>
      </trkpt>
      <trkpt lat="46.31938" lon="-0.59318">
        <ele>4.9</ele>
        <time>2020-05-31T12:53:34Z</time>
      </trkpt>
      <trkpt lat="46.31936" lon="-0.59327">
        <ele>5</ele>
        <time>2020-05-31T12:53:35Z</time>
      </trkpt>
      <trkpt lat="46.31934" lon="-0.59335">
        <ele>5</ele>
        <time>2020-05-31T12:53:36Z</time>
      </trkpt>
      <trkpt lat="46.31928" lon="-0.59343">
        <ele>5</ele>
        <time>2020-05-31T12:53:37Z</time>
      </trkpt>
      <trkpt lat="46.31927" lon="-0.59352">
        <ele>5</ele>
        <time>2020-05-31T12:53:38Z</time>
      </trkpt>
      <trkpt lat="46.31926" lon="-0.59361">
        <ele>5</ele>
        <time>2020-05-31T12:53:39Z</time>
      </trkpt>
      <trkpt lat="46.31926" lon="-0.59369">
        <ele>5.1</ele>
        <time>2020-05-31T12:53:40Z</time>
      </trkpt>
      <trkpt lat="46.31925" lon="-0.59378">
        <ele>5.1</ele>
        <time>2020-05-31T12:53:41Z</time>
      </trkpt>
      <trkpt lat="46.31924" lon="-0.59386">
        <ele>5.1</ele>
        <time>2020-05-31T12:53:42Z</time>
      </trkpt>
      <trkpt lat="46.31924" lon="-0.59395">
        <ele>5.1</ele>
        <time>2020-05-31T12:53:43Z</time>
      </trkpt>
      <trkpt lat="46.31923" lon="-0.59403">
        <ele>5.1</ele>
        <time>2020-05-31T12:53:44Z</time>
      </trkpt>
      <trkpt lat="46.31922" lon="-0.59411">
        <ele>5.1</ele>
        <time>2020-05-31T12:53:45Z</time>
      </trkpt>
      <trkpt lat="46.31922" lon="-0.5942">
        <ele>5.1</ele>
        <time>2020-05-31T12:53:46Z</time>
      </trkpt>
      <trkpt lat="46.31921" lon="-0.59428">
        <ele>5.1</ele>
        <time>2020-05-31T12:53:47Z</time>
      </trkpt>
      <trkpt lat="46.31921" lon="-0.59437">
        <ele>5.1</ele>
        <time>2020-05-31T12:53:48Z</time>
      </trkpt>
      <trkpt lat="46.3192" lon="-0.59445">
        <ele>5.1</ele>
        <time>2020-05-31T12:53:49Z</time>
      </trkpt>
      <trkpt lat="46.31919" lon="-0.59453">
        <ele>5</ele>
        <time>2020-05-31T12:53:50Z</time>
      </trkpt>
      <trkpt lat="46.31919" lon="-0.59461">
        <ele>5</ele>
        <time>2020-05-31T12:53:51Z</time>
      </trkpt>
      <trkpt lat="46.31917" lon="-0.59469">
        <ele>5</ele>
        <time>2020-05-31T12:53:52Z</time>
      </trkpt>
      <trkpt lat="46.31917" lon="-0.59476">
        <ele>5</ele>
        <time>2020-05-31T12:53:53Z</time>
      </trkpt>
      <trkpt lat="46.31915" lon="-0.59483">
        <ele>5</ele>
        <time>2020-05-31T12:53:54Z</time>
      </trkpt>
      <trkpt lat="46.31913" lon="-0.5949">
        <ele>5.1</ele>
        <time>2020-05-31T12:53:55Z</time>
      </trkpt>
      <trkpt lat="46.31911" lon="-0.59497">
        <ele>5.1</ele>
        <time>2020-05-31T12:53:56Z</time>
      </trkpt>
      <trkpt lat="46.31908" lon="-0.59504">
        <ele>5.1</ele>
        <time>2020-05-31T12:53:57Z</time>
      </trkpt>
      <trkpt lat="46.31906" lon="-0.59511">
        <ele>5.1</ele>
        <time>2020-05-31T12:53:58Z</time>
      </trkpt>
      <trkpt lat="46.31904" lon="-0.59519">
        <ele>5.1</ele>
        <time>2020-05-31T12:53:59Z</time>
      </trkpt>
      <trkpt lat="46.31901" lon="-0.59525">
        <ele>5.1</ele>
        <time>2020-05-31T12:54:00Z</time>
      </trkpt>
      <trkpt lat="46.31899" lon="-0.59532">
        <ele>5.1</ele>
        <time>2020-05-31T12:54:01Z</time>
      </trkpt>
      <trkpt lat="46.31896" lon="-0.59539">
        <ele>5.1</ele>
        <time>2020-05-31T12:54:02Z</time>
      </trkpt>
      <trkpt lat="46.31892" lon="-0.59545">
        <ele>5.1</ele>
        <time>2020-05-31T12:54:03Z</time>
      </trkpt>
      <trkpt lat="46.31888" lon="-0.59551">
        <ele>5.1</ele>
        <time>2020-05-31T12:54:04Z</time>
      </trkpt>
      <trkpt lat="46.31885" lon="-0.59558">
        <ele>5.2</ele>
        <time>2020-05-31T12:54:05Z</time>
      </trkpt>
      <trkpt lat="46.31882" lon="-0.59565">
        <ele>5.2</ele>
        <time>2020-05-31T12:54:06Z</time>
      </trkpt>
      <trkpt lat="46.31879" lon="-0.59572">
        <ele>5.2</ele>
        <time>2020-05-31T12:54:07Z</time>
      </trkpt>
      <trkpt lat="46.31875" lon="-0.59579">
        <ele>5.2</ele>
        <time>2020-05-31T12:54:08Z</time>
      </trkpt>
      <trkpt lat="46.31872" lon="-0.59584">
        <ele>5.2</ele>
        <time>2020-05-31T12:54:09Z</time>
      </trkpt>
      <trkpt lat="46.3187" lon="-0.59589">
        <ele>5.2</ele>
        <time>2020-05-31T12:54:10Z</time>
      </trkpt>
      <trkpt lat="46.31867" lon="-0.59595">
        <ele>5.2</ele>
        <time>2020-05-31T12:54:11Z</time>
      </trkpt>
      <trkpt lat="46.31863" lon="-0.59601">
        <ele>5.2</ele>
        <time>2020-05-31T12:54:12Z</time>
      </trkpt>
      <trkpt lat="46.3186" lon="-0.59607">
        <ele>5.2</ele>
        <time>2020-05-31T12:54:13Z</time>
      </trkpt>
      <trkpt lat="46.31857" lon="-0.59614">
        <ele>5.2</ele>
        <time>2020-05-31T12:54:14Z</time>
      </trkpt>
      <trkpt lat="46.31853" lon="-0.59619">
        <ele>5.2</ele>
        <time>2020-05-31T12:54:15Z</time>
      </trkpt>
      <trkpt lat="46.31849" lon="-0.59625">
        <ele>5.3</ele>
        <time>2020-05-31T12:54:16Z</time>
      </trkpt>
      <trkpt lat="46.31846" lon="-0.5963">
        <ele>5.3</ele>
        <time>2020-05-31T12:54:17Z</time>
      </trkpt>
      <trkpt lat="46.31843" lon="-0.59636">
        <ele>5.3</ele>
        <time>2020-05-31T12:54:18Z</time>
      </trkpt>
      <trkpt lat="46.3184" lon="-0.59642">
        <ele>5.3</ele>
        <time>2020-05-31T12:54:19Z</time>
      </trkpt>
      <trkpt lat="46.31837" lon="-0.59649">
        <ele>5.3</ele>
        <time>2020-05-31T12:54:20Z</time>
      </trkpt>
      <trkpt lat="46.31834" lon="-0.59654">
        <ele>5.3</ele>
        <time>2020-05-31T12:54:21Z</time>
      </trkpt>
      <trkpt lat="46.31831" lon="-0.59659">
        <ele>5.3</ele>
        <time>2020-05-31T12:54:22Z</time>
      </trkpt>
      <trkpt lat="46.31828" lon="-0.59664">
        <ele>5.4</ele>
        <time>2020-05-31T12:54:23Z</time>
      </trkpt>
      <trkpt lat="46.31825" lon="-0.59667">
        <ele>5.3</ele>
        <time>2020-05-31T12:54:24Z</time>
      </trkpt>
      <trkpt lat="46.31822" lon="-0.59672">
        <ele>5.3</ele>
        <time>2020-05-31T12:54:25Z</time>
      </trkpt>
      <trkpt lat="46.3182" lon="-0.59678">
        <ele>5.3</ele>
        <time>2020-05-31T12:54:26Z</time>
      </trkpt>
      <trkpt lat="46.31817" lon="-0.59684">
        <ele>5.2</ele>
        <time>2020-05-31T12:54:27Z</time>
      </trkpt>
      <trkpt lat="46.31813" lon="-0.5969">
        <ele>5.2</ele>
        <time>2020-05-31T12:54:28Z</time>
      </trkpt>
      <trkpt lat="46.31808" lon="-0.59695">
        <ele>5.2</ele>
        <time>2020-05-31T12:54:29Z</time>
      </trkpt>
      <trkpt lat="46.31803" lon="-0.59701">
        <ele>5.1</ele>
        <time>2020-05-31T12:54:30Z</time>
      </trkpt>
      <trkpt lat="46.31799" lon="-0.59707">
        <ele>5.1</ele>
        <time>2020-05-31T12:54:31Z</time>
      </trkpt>
      <trkpt lat="46.31796" lon="-0.59713">
        <ele>5.1</ele>
        <time>2020-05-31T12:54:32Z</time>
      </trkpt>
      <trkpt lat="46.31793" lon="-0.59718">
        <ele>5.1</ele>
        <time>2020-05-31T12:54:33Z</time>
      </trkpt>
      <trkpt lat="46.31788" lon="-0.59722">
        <ele>5.1</ele>
        <time>2020-05-31T12:54:34Z</time>
      </trkpt>
      <trkpt lat="46.31784" lon="-0.59727">
        <ele>5.1</ele>
        <time>2020-05-31T12:54:35Z</time>
      </trkpt>
      <trkpt lat="46.31778" lon="-0.59732">
        <ele>5</ele>
        <time>2020-05-31T12:54:36Z</time>
      </trkpt>
      <trkpt lat="46.31773" lon="-0.59736">
        <ele>5</ele>
        <time>2020-05-31T12:54:37Z</time>
      </trkpt>
      <trkpt lat="46.31768" lon="-0.5974">
        <ele>5</ele>
        <time>2020-05-31T12:54:38Z</time>
      </trkpt>
      <trkpt lat="46.31765" lon="-0.59746">
        <ele>5</ele>
        <time>2020-05-31T12:54:39Z</time>
      </trkpt>
      <trkpt lat="46.31761" lon="-0.59753">
        <ele>5</ele>
        <time>2020-05-31T12:54:40Z</time>
      </trkpt>
      <trkpt lat="46.31758" lon="-0.5976">
        <ele>5</ele>
        <time>2020-05-31T12:54:41Z</time>
      </trkpt>
      <trkpt lat="46.31755" lon="-0.59768">
        <ele>4.9</ele>
        <time>2020-05-31T12:54:42Z</time>
      </trkpt>
      <trkpt lat="46.31751" lon="-0.59774">
        <ele>4.9</ele>
        <time>2020-05-31T12:54:43Z</time>
      </trkpt>
      <trkpt lat="46.31747" lon="-0.59778">
        <ele>4.9</ele>
        <time>2020-05-31T12:54:44Z</time>
      </trkpt>
      <trkpt lat="46.31742" lon="-0.59784">
        <ele>4.9</ele>
        <time>2020-05-31T12:54:45Z</time>
      </trkpt>
      <trkpt lat="46.31737" lon="-0.59791">
        <ele>4.9</ele>
        <time>2020-05-31T12:54:46Z</time>
      </trkpt>
      <trkpt lat="46.31732" lon="-0.59798">
        <ele>4.9</ele>
        <time>2020-05-31T12:54:47Z</time>
      </trkpt>
      <trkpt lat="46.31726" lon="-0.59805">
        <ele>4.8</ele>
        <time>2020-05-31T12:54:48Z</time>
      </trkpt>
      <trkpt lat="46.3172" lon="-0.59812">
        <ele>4.8</ele>
        <time>2020-05-31T12:54:49Z</time>
      </trkpt>
      <trkpt lat="46.31713" lon="-0.59818">
        <ele>4.8</ele>
        <time>2020-05-31T12:54:50Z</time>
      </trkpt>
      <trkpt lat="46.31707" lon="-0.59824">
        <ele>4.8</ele>
        <time>2020-05-31T12:54:51Z</time>
      </trkpt>
      <trkpt lat="46.31701" lon="-0.59831">
        <ele>4.8</ele>
        <time>2020-05-31T12:54:52Z</time>
      </trkpt>
      <trkpt lat="46.31696" lon="-0.5984">
        <ele>4.8</ele>
        <time>2020-05-31T12:54:53Z</time>
      </trkpt>
      <trkpt lat="46.31691" lon="-0.59847">
        <ele>4.8</ele>
        <time>2020-05-31T12:54:54Z</time>
      </trkpt>
      <trkpt lat="46.31686" lon="-0.59854">
        <ele>4.7</ele>
        <time>2020-05-31T12:54:55Z</time>
      </trkpt>
      <trkpt lat="46.31681" lon="-0.59859">
        <ele>4.7</ele>
        <time>2020-05-31T12:54:56Z</time>
      </trkpt>
      <trkpt lat="46.31676" lon="-0.59864">
        <ele>4.7</ele>
        <time>2020-05-31T12:54:57Z</time>
      </trkpt>
      <trkpt lat="46.31672" lon="-0.59869">
        <ele>4.7</ele>
        <time>2020-05-31T12:54:58Z</time>
      </trkpt>
      <trkpt lat="46.31667" lon="-0.59872">
        <ele>4.7</ele>
        <time>2020-05-31T12:54:59Z</time>
      </trkpt>
      <trkpt lat="46.31662" lon="-0.59878">
        <ele>4.7</ele>
        <time>2020-05-31T12:55:00Z</time>
      </trkpt>
      <trkpt lat="46.31657" lon="-0.59885">
        <ele>4.7</ele>
        <time>2020-05-31T12:55:01Z</time>
      </trkpt>
      <trkpt lat="46.31652" lon="-0.59891">
        <ele>4.7</ele>
        <time>2020-05-31T12:55:02Z</time>
      </trkpt>
      <trkpt lat="46.31647" lon="-0.59897">
        <ele>4.7</ele>
        <time>2020-05-31T12:55:03Z</time>
      </trkpt>
      <trkpt lat="46.31643" lon="-0.59902">
        <ele>4.7</ele>
        <time>2020-05-31T12:55:04Z</time>
      </trkpt>
      <trkpt lat="46.31638" lon="-0.59908">
        <ele>4.7</ele>
        <time>2020-05-31T12:55:05Z</time>
      </trkpt>
      <trkpt lat="46.31634" lon="-0.59914">
        <ele>4.7</ele>
        <time>2020-05-31T12:55:06Z</time>
      </trkpt>
      <trkpt lat="46.3163" lon="-0.59919">
        <ele>4.7</ele>
        <time>2020-05-31T12:55:07Z</time>
      </trkpt>
      <trkpt lat="46.31626" lon="-0.59925">
        <ele>4.7</ele>
        <time>2020-05-31T12:55:08Z</time>
      </trkpt>
      <trkpt lat="46.31622" lon="-0.59931">
        <ele>4.7</ele>
        <time>2020-05-31T12:55:09Z</time>
      </trkpt>
      <trkpt lat="46.31617" lon="-0.59937">
        <ele>4.7</ele>
        <time>2020-05-31T12:55:10Z</time>
      </trkpt>
      <trkpt lat="46.31613" lon="-0.59943">
        <ele>4.7</ele>
        <time>2020-05-31T12:55:11Z</time>
      </trkpt>
      <trkpt lat="46.31609" lon="-0.59949">
        <ele>4.7</ele>
        <time>2020-05-31T12:55:12Z</time>
      </trkpt>
      <trkpt lat="46.31605" lon="-0.59954">
        <ele>4.7</ele>
        <time>2020-05-31T12:55:13Z</time>
      </trkpt>
      <trkpt lat="46.31602" lon="-0.59961">
        <ele>4.7</ele>
        <time>2020-05-31T12:55:14Z</time>
      </trkpt>
      <trkpt lat="46.316" lon="-0.59965">
        <ele>4.7</ele>
        <time>2020-05-31T12:55:15Z</time>
      </trkpt>
      <trkpt lat="46.31597" lon="-0.5997">
        <ele>4.6</ele>
        <time>2020-05-31T12:55:16Z</time>
      </trkpt>
      <trkpt lat="46.31593" lon="-0.59976">
        <ele>4.6</ele>
        <time>2020-05-31T12:55:17Z</time>
      </trkpt>
      <trkpt lat="46.3159" lon="-0.59983">
        <ele>4.6</ele>
        <time>2020-05-31T12:55:18Z</time>
      </trkpt>
      <trkpt lat="46.31587" lon="-0.59989">
        <ele>4.6</ele>
        <time>2020-05-31T12:55:19Z</time>
      </trkpt>
      <trkpt lat="46.31585" lon="-0.59996">
        <ele>4.6</ele>
        <time>2020-05-31T12:55:20Z</time>
      </trkpt>
      <trkpt lat="46.31583" lon="-0.60003">
        <ele>4.6</ele>
        <time>2020-05-31T12:55:21Z</time>
      </trkpt>
      <trkpt lat="46.3158" lon="-0.60012">
        <ele>4.6</ele>
        <time>2020-05-31T12:55:22Z</time>
      </trkpt>
      <trkpt lat="46.31578" lon="-0.6002">
        <ele>4.6</ele>
        <time>2020-05-31T12:55:23Z</time>
      </trkpt>
      <trkpt lat="46.31575" lon="-0.60026">
        <ele>4.6</ele>
        <time>2020-05-31T12:55:24Z</time>
      </trkpt>
      <trkpt lat="46.31572" lon="-0.60033">
        <ele>4.6</ele>
        <time>2020-05-31T12:55:25Z</time>
      </trkpt>
      <trkpt lat="46.3157" lon="-0.6004">
        <ele>4.6</ele>
        <time>2020-05-31T12:55:26Z</time>
      </trkpt>
      <trkpt lat="46.31569" lon="-0.60048">
        <ele>4.5</ele>
        <time>2020-05-31T12:55:27Z</time>
      </trkpt>
      <trkpt lat="46.31567" lon="-0.60056">
        <ele>4.5</ele>
        <time>2020-05-31T12:55:28Z</time>
      </trkpt>
      <trkpt lat="46.31565" lon="-0.60063">
        <ele>4.5</ele>
        <time>2020-05-31T12:55:29Z</time>
      </trkpt>
      <trkpt lat="46.31563" lon="-0.60071">
        <ele>4.5</ele>
        <time>2020-05-31T12:55:30Z</time>
      </trkpt>
      <trkpt lat="46.31562" lon="-0.60077">
        <ele>4.4</ele>
        <time>2020-05-31T12:55:31Z</time>
      </trkpt>
      <trkpt lat="46.3156" lon="-0.60084">
        <ele>4.4</ele>
        <time>2020-05-31T12:55:32Z</time>
      </trkpt>
      <trkpt lat="46.31558" lon="-0.6009">
        <ele>4.4</ele>
        <time>2020-05-31T12:55:33Z</time>
      </trkpt>
      <trkpt lat="46.31556" lon="-0.60098">
        <ele>4.4</ele>
        <time>2020-05-31T12:55:34Z</time>
      </trkpt>
      <trkpt lat="46.31555" lon="-0.60106">
        <ele>4.4</ele>
        <time>2020-05-31T12:55:35Z</time>
      </trkpt>
      <trkpt lat="46.31555" lon="-0.60113">
        <ele>4.4</ele>
        <time>2020-05-31T12:55:36Z</time>
      </trkpt>
      <trkpt lat="46.31551" lon="-0.60119">
        <ele>4.4</ele>
        <time>2020-05-31T12:55:37Z</time>
      </trkpt>
      <trkpt lat="46.31549" lon="-0.60126">
        <ele>4.5</ele>
        <time>2020-05-31T12:55:38Z</time>
      </trkpt>
      <trkpt lat="46.31548" lon="-0.60133">
        <ele>4.5</ele>
        <time>2020-05-31T12:55:39Z</time>
      </trkpt>
      <trkpt lat="46.31547" lon="-0.60139">
        <ele>4.5</ele>
        <time>2020-05-31T12:55:40Z</time>
      </trkpt>
      <trkpt lat="46.31545" lon="-0.60145">
        <ele>4.5</ele>
        <time>2020-05-31T12:55:41Z</time>
      </trkpt>
      <trkpt lat="46.31544" lon="-0.60152">
        <ele>4.6</ele>
        <time>2020-05-31T12:55:42Z</time>
      </trkpt>
      <trkpt lat="46.31543" lon="-0.60158">
        <ele>4.6</ele>
        <time>2020-05-31T12:55:43Z</time>
      </trkpt>
      <trkpt lat="46.31541" lon="-0.60164">
        <ele>4.6</ele>
        <time>2020-05-31T12:55:44Z</time>
      </trkpt>
      <trkpt lat="46.31539" lon="-0.6017">
        <ele>4.6</ele>
        <time>2020-05-31T12:55:45Z</time>
      </trkpt>
      <trkpt lat="46.31537" lon="-0.60174">
        <ele>4.6</ele>
        <time>2020-05-31T12:55:46Z</time>
      </trkpt>
      <trkpt lat="46.31536" lon="-0.6018">
        <ele>4.6</ele>
        <time>2020-05-31T12:55:47Z</time>
      </trkpt>
      <trkpt lat="46.31535" lon="-0.60185">
        <ele>4.6</ele>
        <time>2020-05-31T12:55:48Z</time>
      </trkpt>
      <trkpt lat="46.31534" lon="-0.6019">
        <ele>4.6</ele>
        <time>2020-05-31T12:55:49Z</time>
      </trkpt>
      <trkpt lat="46.31533" lon="-0.60195">
        <ele>4.6</ele>
        <time>2020-05-31T12:55:50Z</time>
      </trkpt>
      <trkpt lat="46.31532" lon="-0.602">
        <ele>4.6</ele>
        <time>2020-05-31T12:55:51Z</time>
      </trkpt>
      <trkpt lat="46.3153" lon="-0.60205">
        <ele>4.6</ele>
        <time>2020-05-31T12:55:52Z</time>
      </trkpt>
      <trkpt lat="46.31529" lon="-0.60212">
        <ele>4.6</ele>
        <time>2020-05-31T12:55:53Z</time>
      </trkpt>
      <trkpt lat="46.31527" lon="-0.60219">
        <ele>4.7</ele>
        <time>2020-05-31T12:55:54Z</time>
      </trkpt>
      <trkpt lat="46.31525" lon="-0.60226">
        <ele>4.7</ele>
        <time>2020-05-31T12:55:55Z</time>
      </trkpt>
      <trkpt lat="46.31524" lon="-0.60232">
        <ele>4.7</ele>
        <time>2020-05-31T12:55:56Z</time>
      </trkpt>
      <trkpt lat="46.31522" lon="-0.60238">
        <ele>4.7</ele>
        <time>2020-05-31T12:55:57Z</time>
      </trkpt>
      <trkpt lat="46.3152" lon="-0.60245">
        <ele>4.7</ele>
        <time>2020-05-31T12:55:58Z</time>
      </trkpt>
      <trkpt lat="46.31518" lon="-0.60252">
        <ele>4.8</ele>
        <time>2020-05-31T12:55:59Z</time>
      </trkpt>
      <trkpt lat="46.31517" lon="-0.6026">
        <ele>4.8</ele>
        <time>2020-05-31T12:56:00Z</time>
      </trkpt>
      <trkpt lat="46.31515" lon="-0.60267">
        <ele>4.8</ele>
        <time>2020-05-31T12:56:01Z</time>
      </trkpt>
      <trkpt lat="46.31514" lon="-0.60273">
        <ele>4.8</ele>
        <time>2020-05-31T12:56:02Z</time>
      </trkpt>
      <trkpt lat="46.31512" lon="-0.60279">
        <ele>4.8</ele>
        <time>2020-05-31T12:56:03Z</time>
      </trkpt>
      <trkpt lat="46.31511" lon="-0.60286">
        <ele>4.8</ele>
        <time>2020-05-31T12:56:04Z</time>
      </trkpt>
      <trkpt lat="46.3151" lon="-0.60293">
        <ele>4.8</ele>
        <time>2020-05-31T12:56:05Z</time>
      </trkpt>
      <trkpt lat="46.31508" lon="-0.60301">
        <ele>4.8</ele>
        <time>2020-05-31T12:56:06Z</time>
      </trkpt>
      <trkpt lat="46.31507" lon="-0.60308">
        <ele>4.8</ele>
        <time>2020-05-31T12:56:07Z</time>
      </trkpt>
      <trkpt lat="46.31506" lon="-0.60316">
        <ele>4.8</ele>
        <time>2020-05-31T12:56:08Z</time>
      </trkpt>
      <trkpt lat="46.31505" lon="-0.60325">
        <ele>4.8</ele>
        <time>2020-05-31T12:56:09Z</time>
      </trkpt>
      <trkpt lat="46.31504" lon="-0.60333">
        <ele>4.8</ele>
        <time>2020-05-31T12:56:10Z</time>
      </trkpt>
      <trkpt lat="46.31503" lon="-0.60341">
        <ele>4.8</ele>
        <time>2020-05-31T12:56:11Z</time>
      </trkpt>
      <trkpt lat="46.31502" lon="-0.60349">
        <ele>4.8</ele>
        <time>2020-05-31T12:56:12Z</time>
      </trkpt>
      <trkpt lat="46.31501" lon="-0.60357">
        <ele>4.8</ele>
        <time>2020-05-31T12:56:13Z</time>
      </trkpt>
      <trkpt lat="46.31501" lon="-0.60365">
        <ele>4.8</ele>
        <time>2020-05-31T12:56:14Z</time>
      </trkpt>
      <trkpt lat="46.315" lon="-0.60373">
        <ele>4.8</ele>
        <time>2020-05-31T12:56:15Z</time>
      </trkpt>
      <trkpt lat="46.315" lon="-0.60381">
        <ele>4.8</ele>
        <time>2020-05-31T12:56:16Z</time>
      </trkpt>
      <trkpt lat="46.31495" lon="-0.60388">
        <ele>4.8</ele>
        <time>2020-05-31T12:56:17Z</time>
      </trkpt>
      <trkpt lat="46.31493" lon="-0.60395">
        <ele>4.8</ele>
        <time>2020-05-31T12:56:18Z</time>
      </trkpt>
      <trkpt lat="46.31493" lon="-0.60402">
        <ele>4.8</ele>
        <time>2020-05-31T12:56:19Z</time>
      </trkpt>
      <trkpt lat="46.31492" lon="-0.60409">
        <ele>4.8</ele>
        <time>2020-05-31T12:56:20Z</time>
      </trkpt>
      <trkpt lat="46.31491" lon="-0.60416">
        <ele>4.8</ele>
        <time>2020-05-31T12:56:21Z</time>
      </trkpt>
      <trkpt lat="46.3149" lon="-0.60423">
        <ele>4.8</ele>
        <time>2020-05-31T12:56:22Z</time>
      </trkpt>
      <trkpt lat="46.3149" lon="-0.6043">
        <ele>4.8</ele>
        <time>2020-05-31T12:56:23Z</time>
      </trkpt>
      <trkpt lat="46.3149" lon="-0.60436">
        <ele>4.8</ele>
        <time>2020-05-31T12:56:24Z</time>
      </trkpt>
      <trkpt lat="46.31489" lon="-0.60441">
        <ele>4.8</ele>
        <time>2020-05-31T12:56:25Z</time>
      </trkpt>
      <trkpt lat="46.31489" lon="-0.60445">
        <ele>4.8</ele>
        <time>2020-05-31T12:56:26Z</time>
      </trkpt>
      <trkpt lat="46.31489" lon="-0.60448">
        <ele>4.8</ele>
        <time>2020-05-31T12:56:27Z</time>
      </trkpt>
      <trkpt lat="46.31488" lon="-0.6045">
        <ele>4.8</ele>
        <time>2020-05-31T12:56:28Z</time>
      </trkpt>
      <trkpt lat="46.31488" lon="-0.6045">
        <ele>4.8</ele>
        <time>2020-05-31T12:56:29Z</time>
      </trkpt>
      <trkpt lat="46.31488" lon="-0.6045">
        <ele>4.8</ele>
        <time>2020-05-31T12:56:30Z</time>
      </trkpt>
      <trkpt lat="46.31488" lon="-0.6045">
        <ele>4.8</ele>
        <time>2020-05-31T12:56:31Z</time>
      </trkpt>
      <trkpt lat="46.31488" lon="-0.60451">
        <ele>4.8</ele>
        <time>2020-05-31T12:56:32Z</time>
      </trkpt>
      <trkpt lat="46.31488" lon="-0.60452">
        <ele>4.8</ele>
        <time>2020-05-31T12:56:33Z</time>
      </trkpt>
      <trkpt lat="46.31488" lon="-0.60453">
        <ele>4.8</ele>
        <time>2020-05-31T12:56:34Z</time>
      </trkpt>
      <trkpt lat="46.31488" lon="-0.60454">
        <ele>4.8</ele>
        <time>2020-05-31T12:56:35Z</time>
      </trkpt>
      <trkpt lat="46.31488" lon="-0.60454">
        <ele>4.8</ele>
        <time>2020-05-31T12:56:36Z</time>
      </trkpt>
      <trkpt lat="46.31488" lon="-0.60455">
        <ele>4.8</ele>
        <time>2020-05-31T12:56:37Z</time>
      </trkpt>
      <trkpt lat="46.31488" lon="-0.60455">
        <ele>4.8</ele>
        <time>2020-05-31T12:56:38Z</time>
      </trkpt>
      <trkpt lat="46.31488" lon="-0.60456">
        <ele>4.8</ele>
        <time>2020-05-31T12:56:39Z</time>
      </trkpt>
      <trkpt lat="46.31487" lon="-0.60457">
        <ele>4.8</ele>
        <time>2020-05-31T12:56:40Z</time>
      </trkpt>
      <trkpt lat="46.31487" lon="-0.60458">
        <ele>4.8</ele>
        <time>2020-05-31T12:56:41Z</time>
      </trkpt>
      <trkpt lat="46.31487" lon="-0.60459">
        <ele>4.8</ele>
        <time>2020-05-31T12:56:42Z</time>
      </trkpt>
      <trkpt lat="46.31487" lon="-0.60459">
        <ele>4.8</ele>
        <time>2020-05-31T12:56:43Z</time>
      </trkpt>
      <trkpt lat="46.31487" lon="-0.60459">
        <ele>4.8</ele>
        <time>2020-05-31T12:56:44Z</time>
      </trkpt>
      <trkpt lat="46.31487" lon="-0.60459">
        <ele>4.8</ele>
        <time>2020-05-31T12:56:45Z</time>
      </trkpt>
      <trkpt lat="46.31487" lon="-0.60459">
        <ele>4.8</ele>
        <time>2020-05-31T12:56:46Z</time>
      </trkpt>
      <trkpt lat="46.31487" lon="-0.60459">
        <ele>4.8</ele>
        <time>2020-05-31T12:56:47Z</time>
      </trkpt>
      <trkpt lat="46.31487" lon="-0.6046">
        <ele>4.8</ele>
        <time>2020-05-31T12:56:48Z</time>
      </trkpt>
      <trkpt lat="46.31487" lon="-0.6046">
        <ele>4.8</ele>
        <time>2020-05-31T12:56:49Z</time>
      </trkpt>
      <trkpt lat="46.31487" lon="-0.6046">
        <ele>4.8</ele>
        <time>2020-05-31T12:56:50Z</time>
      </trkpt>
      <trkpt lat="46.31487" lon="-0.6046">
        <ele>4.8</ele>
        <time>2020-05-31T12:56:51Z</time>
      </trkpt>
      <trkpt lat="46.31487" lon="-0.6046">
        <ele>4.8</ele>
        <time>2020-05-31T12:56:52Z</time>
      </trkpt>
      <trkpt lat="46.31487" lon="-0.6046">
        <ele>4.8</ele>
        <time>2020-05-31T12:56:53Z</time>
      </trkpt>
      <trkpt lat="46.31487" lon="-0.6046">
        <ele>4.8</ele>
        <time>2020-05-31T12:56:54Z</time>
      </trkpt>
      <trkpt lat="46.31487" lon="-0.60459">
        <ele>4.8</ele>
        <time>2020-05-31T12:56:55Z</time>
      </trkpt>
      <trkpt lat="46.31486" lon="-0.60459">
        <ele>4.8</ele>
        <time>2020-05-31T12:56:56Z</time>
      </trkpt>
      <trkpt lat="46.31485" lon="-0.60459">
        <ele>4.8</ele>
        <time>2020-05-31T12:56:57Z</time>
      </trkpt>
      <trkpt lat="46.31485" lon="-0.60459">
        <ele>4.8</ele>
        <time>2020-05-31T12:56:58Z</time>
      </trkpt>
      <trkpt lat="46.31485" lon="-0.60459">
        <ele>4.8</ele>
        <time>2020-05-31T12:56:59Z</time>
      </trkpt>
      <trkpt lat="46.31485" lon="-0.60459">
        <ele>4.8</ele>
        <time>2020-05-31T12:57:00Z</time>
      </trkpt>
      <trkpt lat="46.31485" lon="-0.6046">
        <ele>4.8</ele>
        <time>2020-05-31T12:57:01Z</time>
      </trkpt>
      <trkpt lat="46.31485" lon="-0.6046">
        <ele>4.8</ele>
        <time>2020-05-31T12:57:02Z</time>
      </trkpt>
      <trkpt lat="46.31485" lon="-0.60461">
        <ele>4.8</ele>
        <time>2020-05-31T12:57:03Z</time>
      </trkpt>
      <trkpt lat="46.31485" lon="-0.60461">
        <ele>4.8</ele>
        <time>2020-05-31T12:57:04Z</time>
      </trkpt>
      <trkpt lat="46.31485" lon="-0.60461">
        <ele>4.8</ele>
        <time>2020-05-31T12:57:05Z</time>
      </trkpt>
      <trkpt lat="46.31486" lon="-0.60462">
        <ele>4.8</ele>
        <time>2020-05-31T12:57:06Z</time>
      </trkpt>
      <trkpt lat="46.31486" lon="-0.60462">
        <ele>4.8</ele>
        <time>2020-05-31T12:57:07Z</time>
      </trkpt>
      <trkpt lat="46.31486" lon="-0.60462">
        <ele>4.8</ele>
        <time>2020-05-31T12:57:08Z</time>
      </trkpt>
      <trkpt lat="46.31486" lon="-0.60463">
        <ele>4.8</ele>
        <time>2020-05-31T12:57:09Z</time>
      </trkpt>
      <trkpt lat="46.31486" lon="-0.60463">
        <ele>4.8</ele>
        <time>2020-05-31T12:57:10Z</time>
      </trkpt>
      <trkpt lat="46.31486" lon="-0.60463">
        <ele>4.8</ele>
        <time>2020-05-31T12:57:11Z</time>
      </trkpt>
      <trkpt lat="46.31486" lon="-0.60464">
        <ele>4.8</ele>
        <time>2020-05-31T12:57:12Z</time>
      </trkpt>
      <trkpt lat="46.31487" lon="-0.60464">
        <ele>4.8</ele>
        <time>2020-05-31T12:57:13Z</time>
      </trkpt>
      <trkpt lat="46.31487" lon="-0.60464">
        <ele>4.8</ele>
        <time>2020-05-31T12:57:14Z</time>
      </trkpt>
      <trkpt lat="46.31487" lon="-0.60465">
        <ele>4.8</ele>
        <time>2020-05-31T12:57:15Z</time>
      </trkpt>
      <trkpt lat="46.31487" lon="-0.60465">
        <ele>4.8</ele>
        <time>2020-05-31T12:57:16Z</time>
      </trkpt>
      <trkpt lat="46.31486" lon="-0.60466">
        <ele>4.8</ele>
        <time>2020-05-31T12:57:17Z</time>
      </trkpt>
      <trkpt lat="46.31487" lon="-0.60466">
        <ele>4.8</ele>
        <time>2020-05-31T12:57:18Z</time>
      </trkpt>
      <trkpt lat="46.31487" lon="-0.60467">
        <ele>4.8</ele>
        <time>2020-05-31T12:57:19Z</time>
      </trkpt>
      <trkpt lat="46.31487" lon="-0.60466">
        <ele>4.8</ele>
        <time>2020-05-31T12:57:20Z</time>
      </trkpt>
      <trkpt lat="46.31487" lon="-0.60467">
        <ele>4.8</ele>
        <time>2020-05-31T12:57:21Z</time>
      </trkpt>
      <trkpt lat="46.31487" lon="-0.60467">
        <ele>4.8</ele>
        <time>2020-05-31T12:57:22Z</time>
      </trkpt>
      <trkpt lat="46.31487" lon="-0.60467">
        <ele>4.8</ele>
        <time>2020-05-31T12:57:23Z</time>
      </trkpt>
      <trkpt lat="46.31487" lon="-0.60467">
        <ele>4.8</ele>
        <time>2020-05-31T12:57:24Z</time>
      </trkpt>
      <trkpt lat="46.31487" lon="-0.60467">
        <ele>4.8</ele>
        <time>2020-05-31T12:57:25Z</time>
      </trkpt>
      <trkpt lat="46.31487" lon="-0.60466">
        <ele>4.8</ele>
        <time>2020-05-31T12:57:26Z</time>
      </trkpt>
      <trkpt lat="46.31487" lon="-0.60466">
        <ele>4.8</ele>
        <time>2020-05-31T12:57:27Z</time>
      </trkpt>
      <trkpt lat="46.31487" lon="-0.60466">
        <ele>4.8</ele>
        <time>2020-05-31T12:57:28Z</time>
      </trkpt>
      <trkpt lat="46.31487" lon="-0.60467">
        <ele>4.8</ele>
        <time>2020-05-31T12:57:29Z</time>
      </trkpt>
      <trkpt lat="46.31487" lon="-0.60467">
        <ele>4.8</ele>
        <time>2020-05-31T12:57:30Z</time>
      </trkpt>
      <trkpt lat="46.31487" lon="-0.60467">
        <ele>4.8</ele>
        <time>2020-05-31T12:57:31Z</time>
      </trkpt>
      <trkpt lat="46.31487" lon="-0.60467">
        <ele>4.8</ele>
        <time>2020-05-31T12:57:32Z</time>
      </trkpt>
      <trkpt lat="46.31487" lon="-0.60467">
        <ele>4.8</ele>
        <time>2020-05-31T12:57:33Z</time>
      </trkpt>
      <trkpt lat="46.31487" lon="-0.60467">
        <ele>4.8</ele>
        <time>2020-05-31T12:57:34Z</time>
      </trkpt>
      <trkpt lat="46.31487" lon="-0.60467">
        <ele>4.8</ele>
        <time>2020-05-31T12:57:35Z</time>
      </trkpt>
      <trkpt lat="46.31487" lon="-0.60467">
        <ele>4.8</ele>
        <time>2020-05-31T12:57:36Z</time>
      </trkpt>
      <trkpt lat="46.31487" lon="-0.60467">
        <ele>4.8</ele>
        <time>2020-05-31T12:57:37Z</time>
      </trkpt>
      <trkpt lat="46.31487" lon="-0.60466">
        <ele>4.8</ele>
        <time>2020-05-31T12:57:38Z</time>
      </trkpt>
      <trkpt lat="46.31487" lon="-0.60466">
        <ele>4.8</ele>
        <time>2020-05-31T12:57:39Z</time>
      </trkpt>
      <trkpt lat="46.31487" lon="-0.60466">
        <ele>4.8</ele>
        <time>2020-05-31T12:57:40Z</time>
      </trkpt>
      <trkpt lat="46.31487" lon="-0.60466">
        <ele>4.8</ele>
        <time>2020-05-31T12:57:41Z</time>
      </trkpt>
      <trkpt lat="46.31487" lon="-0.60466">
        <ele>4.8</ele>
        <time>2020-05-31T12:57:42Z</time>
      </trkpt>
      <trkpt lat="46.31487" lon="-0.60466">
        <ele>4.8</ele>
        <time>2020-05-31T12:57:43Z</time>
      </trkpt>
      <trkpt lat="46.31487" lon="-0.60467">
        <ele>4.8</ele>
        <time>2020-05-31T12:57:44Z</time>
      </trkpt>
      <trkpt lat="46.31487" lon="-0.60467">
        <ele>4.8</ele>
        <time>2020-05-31T12:57:45Z</time>
      </trkpt>
      <trkpt lat="46.31487" lon="-0.60467">
        <ele>4.8</ele>
        <time>2020-05-31T12:57:46Z</time>
      </trkpt>
      <trkpt lat="46.31487" lon="-0.60467">
        <ele>4.8</ele>
        <time>2020-05-31T12:57:47Z</time>
      </trkpt>
      <trkpt lat="46.31487" lon="-0.60467">
        <ele>4.8</ele>
        <time>2020-05-31T12:57:48Z</time>
      </trkpt>
      <trkpt lat="46.31487" lon="-0.60467">
        <ele>4.8</ele>
        <time>2020-05-31T12:57:49Z</time>
      </trkpt>
      <trkpt lat="46.31487" lon="-0.60468">
        <ele>4.8</ele>
        <time>2020-05-31T12:57:50Z</time>
      </trkpt>
      <trkpt lat="46.31487" lon="-0.60468">
        <ele>4.8</ele>
        <time>2020-05-31T12:57:51Z</time>
      </trkpt>
      <trkpt lat="46.31487" lon="-0.60468">
        <ele>4.8</ele>
        <time>2020-05-31T12:57:52Z</time>
      </trkpt>
      <trkpt lat="46.31487" lon="-0.60467">
        <ele>4.8</ele>
        <time>2020-05-31T12:57:53Z</time>
      </trkpt>
      <trkpt lat="46.31487" lon="-0.60468">
        <ele>4.8</ele>
        <time>2020-05-31T12:57:54Z</time>
      </trkpt>
      <trkpt lat="46.31487" lon="-0.60468">
        <ele>4.8</ele>
        <time>2020-05-31T12:57:55Z</time>
      </trkpt>
      <trkpt lat="46.31487" lon="-0.60468">
        <ele>4.8</ele>
        <time>2020-05-31T12:57:56Z</time>
      </trkpt>
      <trkpt lat="46.31487" lon="-0.60467">
        <ele>4.8</ele>
        <time>2020-05-31T12:57:57Z</time>
      </trkpt>
      <trkpt lat="46.31487" lon="-0.60468">
        <ele>4.8</ele>
        <time>2020-05-31T12:57:58Z</time>
      </trkpt>
      <trkpt lat="46.31487" lon="-0.60468">
        <ele>4.8</ele>
        <time>2020-05-31T12:57:59Z</time>
      </trkpt>
      <trkpt lat="46.31487" lon="-0.60468">
        <ele>4.8</ele>
        <time>2020-05-31T12:58:00Z</time>
      </trkpt>
      <trkpt lat="46.31487" lon="-0.60469">
        <ele>4.8</ele>
        <time>2020-05-31T12:58:01Z</time>
      </trkpt>
      <trkpt lat="46.31486" lon="-0.60469">
        <ele>4.8</ele>
        <time>2020-05-31T12:58:02Z</time>
      </trkpt>
      <trkpt lat="46.31486" lon="-0.60469">
        <ele>4.8</ele>
        <time>2020-05-31T12:58:03Z</time>
      </trkpt>
      <trkpt lat="46.31486" lon="-0.60469">
        <ele>4.8</ele>
        <time>2020-05-31T12:58:04Z</time>
      </trkpt>
      <trkpt lat="46.31486" lon="-0.6047">
        <ele>4.8</ele>
        <time>2020-05-31T12:58:05Z</time>
      </trkpt>
      <trkpt lat="46.31486" lon="-0.6047">
        <ele>4.8</ele>
        <time>2020-05-31T12:58:06Z</time>
      </trkpt>
      <trkpt lat="46.31486" lon="-0.60471">
        <ele>4.8</ele>
        <time>2020-05-31T12:58:07Z</time>
      </trkpt>
      <trkpt lat="46.31486" lon="-0.60471">
        <ele>4.8</ele>
        <time>2020-05-31T12:58:08Z</time>
      </trkpt>
      <trkpt lat="46.31486" lon="-0.60471">
        <ele>4.8</ele>
        <time>2020-05-31T12:58:09Z</time>
      </trkpt>
      <trkpt lat="46.31486" lon="-0.60472">
        <ele>4.8</ele>
        <time>2020-05-31T12:58:10Z</time>
      </trkpt>
      <trkpt lat="46.31486" lon="-0.60471">
        <ele>4.8</ele>
        <time>2020-05-31T12:58:11Z</time>
      </trkpt>
      <trkpt lat="46.31486" lon="-0.60471">
        <ele>4.8</ele>
        <time>2020-05-31T12:58:12Z</time>
      </trkpt>
      <trkpt lat="46.31486" lon="-0.60471">
        <ele>4.8</ele>
        <time>2020-05-31T12:58:13Z</time>
      </trkpt>
      <trkpt lat="46.31486" lon="-0.60472">
        <ele>4.8</ele>
        <time>2020-05-31T12:58:14Z</time>
      </trkpt>
      <trkpt lat="46.31486" lon="-0.60472">
        <ele>4.8</ele>
        <time>2020-05-31T12:58:15Z</time>
      </trkpt>
      <trkpt lat="46.31486" lon="-0.60471">
        <ele>4.8</ele>
        <time>2020-05-31T12:58:16Z</time>
      </trkpt>
      <trkpt lat="46.31486" lon="-0.60471">
        <ele>4.8</ele>
        <time>2020-05-31T12:58:17Z</time>
      </trkpt>
      <trkpt lat="46.31486" lon="-0.60471">
        <ele>4.8</ele>
        <time>2020-05-31T12:58:18Z</time>
      </trkpt>
      <trkpt lat="46.31486" lon="-0.60471">
        <ele>4.8</ele>
        <time>2020-05-31T12:58:19Z</time>
      </trkpt>
      <trkpt lat="46.31486" lon="-0.60472">
        <ele>4.8</ele>
        <time>2020-05-31T12:58:20Z</time>
      </trkpt>
      <trkpt lat="46.31486" lon="-0.60472">
        <ele>4.8</ele>
        <time>2020-05-31T12:58:21Z</time>
      </trkpt>
      <trkpt lat="46.31486" lon="-0.60472">
        <ele>4.8</ele>
        <time>2020-05-31T12:58:22Z</time>
      </trkpt>
      <trkpt lat="46.31486" lon="-0.60472">
        <ele>4.8</ele>
        <time>2020-05-31T12:58:23Z</time>
      </trkpt>
      <trkpt lat="46.31486" lon="-0.60472">
        <ele>4.8</ele>
        <time>2020-05-31T12:58:24Z</time>
      </trkpt>
      <trkpt lat="46.31486" lon="-0.60472">
        <ele>4.8</ele>
        <time>2020-05-31T12:58:25Z</time>
      </trkpt>
      <trkpt lat="46.31486" lon="-0.60472">
        <ele>4.8</ele>
        <time>2020-05-31T12:58:26Z</time>
      </trkpt>
      <trkpt lat="46.31486" lon="-0.60472">
        <ele>4.8</ele>
        <time>2020-05-31T12:58:27Z</time>
      </trkpt>
      <trkpt lat="46.31486" lon="-0.60473">
        <ele>4.8</ele>
        <time>2020-05-31T12:58:28Z</time>
      </trkpt>
      <trkpt lat="46.31486" lon="-0.60473">
        <ele>4.8</ele>
        <time>2020-05-31T12:58:29Z</time>
      </trkpt>
      <trkpt lat="46.31486" lon="-0.60473">
        <ele>4.8</ele>
        <time>2020-05-31T12:58:30Z</time>
      </trkpt>
      <trkpt lat="46.31486" lon="-0.60473">
        <ele>4.8</ele>
        <time>2020-05-31T12:58:31Z</time>
      </trkpt>
      <trkpt lat="46.31486" lon="-0.60473">
        <ele>4.8</ele>
        <time>2020-05-31T12:58:32Z</time>
      </trkpt>
      <trkpt lat="46.31486" lon="-0.60473">
        <ele>4.8</ele>
        <time>2020-05-31T12:58:33Z</time>
      </trkpt>
      <trkpt lat="46.31486" lon="-0.60473">
        <ele>4.8</ele>
        <time>2020-05-31T12:58:34Z</time>
      </trkpt>
      <trkpt lat="46.31486" lon="-0.60473">
        <ele>4.8</ele>
        <time>2020-05-31T12:58:35Z</time>
      </trkpt>
      <trkpt lat="46.31486" lon="-0.60474">
        <ele>4.8</ele>
        <time>2020-05-31T12:58:36Z</time>
      </trkpt>
      <trkpt lat="46.31486" lon="-0.60474">
        <ele>4.8</ele>
        <time>2020-05-31T12:58:37Z</time>
      </trkpt>
      <trkpt lat="46.31486" lon="-0.60474">
        <ele>4.8</ele>
        <time>2020-05-31T12:58:38Z</time>
      </trkpt>
      <trkpt lat="46.31485" lon="-0.60473">
        <ele>4.8</ele>
        <time>2020-05-31T12:58:39Z</time>
      </trkpt>
      <trkpt lat="46.31485" lon="-0.60474">
        <ele>4.8</ele>
        <time>2020-05-31T12:58:40Z</time>
      </trkpt>
      <trkpt lat="46.31485" lon="-0.60473">
        <ele>4.8</ele>
        <time>2020-05-31T12:58:41Z</time>
      </trkpt>
      <trkpt lat="46.31484" lon="-0.60473">
        <ele>4.8</ele>
        <time>2020-05-31T12:58:42Z</time>
      </trkpt>
      <trkpt lat="46.31484" lon="-0.60473">
        <ele>4.8</ele>
        <time>2020-05-31T12:58:43Z</time>
      </trkpt>
      <trkpt lat="46.31483" lon="-0.60472">
        <ele>4.8</ele>
        <time>2020-05-31T12:58:44Z</time>
      </trkpt>
      <trkpt lat="46.31483" lon="-0.60472">
        <ele>4.8</ele>
        <time>2020-05-31T12:58:45Z</time>
      </trkpt>
      <trkpt lat="46.31483" lon="-0.60472">
        <ele>4.8</ele>
        <time>2020-05-31T12:58:46Z</time>
      </trkpt>
      <trkpt lat="46.31483" lon="-0.60471">
        <ele>4.8</ele>
        <time>2020-05-31T12:58:47Z</time>
      </trkpt>
      <trkpt lat="46.31483" lon="-0.60471">
        <ele>4.8</ele>
        <time>2020-05-31T12:58:48Z</time>
      </trkpt>
      <trkpt lat="46.31484" lon="-0.60471">
        <ele>4.8</ele>
        <time>2020-05-31T12:58:49Z</time>
      </trkpt>
      <trkpt lat="46.31483" lon="-0.60471">
        <ele>4.8</ele>
        <time>2020-05-31T12:58:50Z</time>
      </trkpt>
      <trkpt lat="46.31483" lon="-0.60471">
        <ele>4.8</ele>
        <time>2020-05-31T12:58:51Z</time>
      </trkpt>
      <trkpt lat="46.31483" lon="-0.6047">
        <ele>4.8</ele>
        <time>2020-05-31T12:58:52Z</time>
      </trkpt>
      <trkpt lat="46.31482" lon="-0.6047">
        <ele>4.8</ele>
        <time>2020-05-31T12:58:53Z</time>
      </trkpt>
      <trkpt lat="46.31482" lon="-0.60471">
        <ele>4.8</ele>
        <time>2020-05-31T12:58:54Z</time>
      </trkpt>
      <trkpt lat="46.31482" lon="-0.6047">
        <ele>4.8</ele>
        <time>2020-05-31T12:58:55Z</time>
      </trkpt>
      <trkpt lat="46.31481" lon="-0.6047">
        <ele>4.8</ele>
        <time>2020-05-31T12:58:56Z</time>
      </trkpt>
      <trkpt lat="46.31481" lon="-0.6047">
        <ele>4.8</ele>
        <time>2020-05-31T12:58:57Z</time>
      </trkpt>
      <trkpt lat="46.31481" lon="-0.6047">
        <ele>4.8</ele>
        <time>2020-05-31T12:58:58Z</time>
      </trkpt>
      <trkpt lat="46.31481" lon="-0.6047">
        <ele>4.8</ele>
        <time>2020-05-31T12:58:59Z</time>
      </trkpt>
      <trkpt lat="46.31481" lon="-0.6047">
        <ele>4.8</ele>
        <time>2020-05-31T12:59:00Z</time>
      </trkpt>
      <trkpt lat="46.31482" lon="-0.6047">
        <ele>4.8</ele>
        <time>2020-05-31T12:59:01Z</time>
      </trkpt>
      <trkpt lat="46.31482" lon="-0.6047">
        <ele>4.8</ele>
        <time>2020-05-31T12:59:02Z</time>
      </trkpt>
      <trkpt lat="46.31482" lon="-0.60471">
        <ele>4.8</ele>
        <time>2020-05-31T12:59:03Z</time>
      </trkpt>
      <trkpt lat="46.31482" lon="-0.60471">
        <ele>4.8</ele>
        <time>2020-05-31T12:59:04Z</time>
      </trkpt>
      <trkpt lat="46.31483" lon="-0.60471">
        <ele>4.8</ele>
        <time>2020-05-31T12:59:05Z</time>
      </trkpt>
      <trkpt lat="46.31483" lon="-0.6047">
        <ele>4.8</ele>
        <time>2020-05-31T12:59:06Z</time>
      </trkpt>
      <trkpt lat="46.31483" lon="-0.6047">
        <ele>4.8</ele>
        <time>2020-05-31T12:59:07Z</time>
      </trkpt>
      <trkpt lat="46.31483" lon="-0.6047">
        <ele>4.8</ele>
        <time>2020-05-31T12:59:08Z</time>
      </trkpt>
      <trkpt lat="46.31483" lon="-0.6047">
        <ele>4.8</ele>
        <time>2020-05-31T12:59:09Z</time>
      </trkpt>
      <trkpt lat="46.31483" lon="-0.6047">
        <ele>4.8</ele>
        <time>2020-05-31T12:59:10Z</time>
      </trkpt>
      <trkpt lat="46.31483" lon="-0.6047">
        <ele>4.8</ele>
        <time>2020-05-31T12:59:11Z</time>
      </trkpt>
      <trkpt lat="46.31483" lon="-0.6047">
        <ele>4.8</ele>
        <time>2020-05-31T12:59:12Z</time>
      </trkpt>
      <trkpt lat="46.31483" lon="-0.6047">
        <ele>4.8</ele>
        <time>2020-05-31T12:59:13Z</time>
      </trkpt>
      <trkpt lat="46.31483" lon="-0.6047">
        <ele>4.8</ele>
        <time>2020-05-31T12:59:14Z</time>
      </trkpt>
      <trkpt lat="46.31483" lon="-0.6047">
        <ele>4.8</ele>
        <time>2020-05-31T12:59:15Z</time>
      </trkpt>
      <trkpt lat="46.31483" lon="-0.6047">
        <ele>4.8</ele>
        <time>2020-05-31T12:59:16Z</time>
      </trkpt>
      <trkpt lat="46.31483" lon="-0.6047">
        <ele>4.8</ele>
        <time>2020-05-31T12:59:17Z</time>
      </trkpt>
      <trkpt lat="46.31483" lon="-0.6047">
        <ele>4.8</ele>
        <time>2020-05-31T12:59:18Z</time>
      </trkpt>
      <trkpt lat="46.31483" lon="-0.6047">
        <ele>4.8</ele>
        <time>2020-05-31T12:59:19Z</time>
      </trkpt>
      <trkpt lat="46.31483" lon="-0.6047">
        <ele>4.8</ele>
        <time>2020-05-31T12:59:20Z</time>
      </trkpt>
      <trkpt lat="46.31483" lon="-0.6047">
        <ele>4.8</ele>
        <time>2020-05-31T12:59:21Z</time>
      </trkpt>
      <trkpt lat="46.31483" lon="-0.6047">
        <ele>4.8</ele>
        <time>2020-05-31T12:59:22Z</time>
      </trkpt>
      <trkpt lat="46.31483" lon="-0.6047">
        <ele>4.8</ele>
        <time>2020-05-31T12:59:23Z</time>
      </trkpt>
      <trkpt lat="46.31484" lon="-0.6047">
        <ele>4.8</ele>
        <time>2020-05-31T12:59:24Z</time>
      </trkpt>
      <trkpt lat="46.31484" lon="-0.6047">
        <ele>4.8</ele>
        <time>2020-05-31T12:59:25Z</time>
      </trkpt>
      <trkpt lat="46.31484" lon="-0.6047">
        <ele>4.8</ele>
        <time>2020-05-31T12:59:26Z</time>
      </trkpt>
      <trkpt lat="46.31483" lon="-0.6047">
        <ele>4.8</ele>
        <time>2020-05-31T12:59:27Z</time>
      </trkpt>
      <trkpt lat="46.31483" lon="-0.6047">
        <ele>4.8</ele>
        <time>2020-05-31T12:59:28Z</time>
      </trkpt>
      <trkpt lat="46.31483" lon="-0.6047">
        <ele>4.8</ele>
        <time>2020-05-31T12:59:29Z</time>
      </trkpt>
      <trkpt lat="46.31483" lon="-0.6047">
        <ele>4.8</ele>
        <time>2020-05-31T12:59:30Z</time>
      </trkpt>
      <trkpt lat="46.31483" lon="-0.60471">
        <ele>4.8</ele>
        <time>2020-05-31T12:59:31Z</time>
      </trkpt>
      <trkpt lat="46.31484" lon="-0.60471">
        <ele>4.8</ele>
        <time>2020-05-31T12:59:32Z</time>
      </trkpt>
      <trkpt lat="46.31484" lon="-0.60471">
        <ele>4.8</ele>
        <time>2020-05-31T12:59:33Z</time>
      </trkpt>
      <trkpt lat="46.31484" lon="-0.60471">
        <ele>4.8</ele>
        <time>2020-05-31T12:59:34Z</time>
      </trkpt>
      <trkpt lat="46.31485" lon="-0.60471">
        <ele>4.8</ele>
        <time>2020-05-31T12:59:35Z</time>
      </trkpt>
      <trkpt lat="46.31485" lon="-0.60471">
        <ele>4.8</ele>
        <time>2020-05-31T12:59:36Z</time>
      </trkpt>
      <trkpt lat="46.31485" lon="-0.60471">
        <ele>4.8</ele>
        <time>2020-05-31T12:59:37Z</time>
      </trkpt>
      <trkpt lat="46.31485" lon="-0.60471">
        <ele>4.8</ele>
        <time>2020-05-31T12:59:38Z</time>
      </trkpt>
      <trkpt lat="46.31485" lon="-0.60471">
        <ele>4.8</ele>
        <time>2020-05-31T12:59:39Z</time>
      </trkpt>
      <trkpt lat="46.31485" lon="-0.60471">
        <ele>4.8</ele>
        <time>2020-05-31T12:59:40Z</time>
      </trkpt>
      <trkpt lat="46.31485" lon="-0.60471">
        <ele>4.8</ele>
        <time>2020-05-31T12:59:41Z</time>
      </trkpt>
      <trkpt lat="46.31485" lon="-0.60471">
        <ele>4.8</ele>
        <time>2020-05-31T12:59:42Z</time>
      </trkpt>
      <trkpt lat="46.31485" lon="-0.60472">
        <ele>4.8</ele>
        <time>2020-05-31T12:59:43Z</time>
      </trkpt>
      <trkpt lat="46.31485" lon="-0.60473">
        <ele>4.8</ele>
        <time>2020-05-31T12:59:44Z</time>
      </trkpt>
      <trkpt lat="46.31485" lon="-0.60473">
        <ele>4.8</ele>
        <time>2020-05-31T12:59:45Z</time>
      </trkpt>
      <trkpt lat="46.31484" lon="-0.60473">
        <ele>4.8</ele>
        <time>2020-05-31T12:59:46Z</time>
      </trkpt>
      <trkpt lat="46.31483" lon="-0.60474">
        <ele>4.8</ele>
        <time>2020-05-31T12:59:47Z</time>
      </trkpt>
      <trkpt lat="46.31483" lon="-0.60474">
        <ele>4.8</ele>
        <time>2020-05-31T12:59:48Z</time>
      </trkpt>
      <trkpt lat="46.31483" lon="-0.60475">
        <ele>4.8</ele>
        <time>2020-05-31T12:59:49Z</time>
      </trkpt>
      <trkpt lat="46.31483" lon="-0.60474">
        <ele>4.8</ele>
        <time>2020-05-31T12:59:50Z</time>
      </trkpt>
      <trkpt lat="46.31482" lon="-0.60473">
        <ele>4.8</ele>
        <time>2020-05-31T12:59:51Z</time>
      </trkpt>
      <trkpt lat="46.31481" lon="-0.60471">
        <ele>4.8</ele>
        <time>2020-05-31T12:59:52Z</time>
      </trkpt>
      <trkpt lat="46.31481" lon="-0.6047">
        <ele>4.8</ele>
        <time>2020-05-31T12:59:53Z</time>
      </trkpt>
      <trkpt lat="46.31481" lon="-0.60469">
        <ele>4.8</ele>
        <time>2020-05-31T12:59:54Z</time>
      </trkpt>
      <trkpt lat="46.3148" lon="-0.60469">
        <ele>4.8</ele>
        <time>2020-05-31T12:59:55Z</time>
      </trkpt>
      <trkpt lat="46.31481" lon="-0.60468">
        <ele>4.8</ele>
        <time>2020-05-31T12:59:56Z</time>
      </trkpt>
      <trkpt lat="46.31481" lon="-0.60468">
        <ele>4.8</ele>
        <time>2020-05-31T12:59:57Z</time>
      </trkpt>
      <trkpt lat="46.31481" lon="-0.60467">
        <ele>4.8</ele>
        <time>2020-05-31T12:59:58Z</time>
      </trkpt>
      <trkpt lat="46.31481" lon="-0.60467">
        <ele>4.8</ele>
        <time>2020-05-31T12:59:59Z</time>
      </trkpt>
      <trkpt lat="46.31481" lon="-0.60467">
        <ele>4.8</ele>
        <time>2020-05-31T13:00:00Z</time>
      </trkpt>
      <trkpt lat="46.31481" lon="-0.60467">
        <ele>4.8</ele>
        <time>2020-05-31T13:00:01Z</time>
      </trkpt>
      <trkpt lat="46.31481" lon="-0.60467">
        <ele>4.8</ele>
        <time>2020-05-31T13:00:02Z</time>
      </trkpt>
      <trkpt lat="46.31482" lon="-0.60466">
        <ele>4.8</ele>
        <time>2020-05-31T13:00:03Z</time>
      </trkpt>
      <trkpt lat="46.31482" lon="-0.60466">
        <ele>4.8</ele>
        <time>2020-05-31T13:00:04Z</time>
      </trkpt>
      <trkpt lat="46.31482" lon="-0.60466">
        <ele>4.8</ele>
        <time>2020-05-31T13:00:05Z</time>
      </trkpt>
      <trkpt lat="46.31482" lon="-0.60466">
        <ele>4.8</ele>
        <time>2020-05-31T13:00:06Z</time>
      </trkpt>
      <trkpt lat="46.31482" lon="-0.60466">
        <ele>4.8</ele>
        <time>2020-05-31T13:00:07Z</time>
      </trkpt>
      <trkpt lat="46.31482" lon="-0.60466">
        <ele>4.8</ele>
        <time>2020-05-31T13:00:08Z</time>
      </trkpt>
      <trkpt lat="46.31482" lon="-0.60466">
        <ele>4.8</ele>
        <time>2020-05-31T13:00:09Z</time>
      </trkpt>
      <trkpt lat="46.31482" lon="-0.60466">
        <ele>4.8</ele>
        <time>2020-05-31T13:00:10Z</time>
      </trkpt>
      <trkpt lat="46.31482" lon="-0.60466">
        <ele>4.8</ele>
        <time>2020-05-31T13:00:11Z</time>
      </trkpt>
      <trkpt lat="46.31482" lon="-0.60466">
        <ele>4.8</ele>
        <time>2020-05-31T13:00:12Z</time>
      </trkpt>
      <trkpt lat="46.31482" lon="-0.60466">
        <ele>4.8</ele>
        <time>2020-05-31T13:00:13Z</time>
      </trkpt>
      <trkpt lat="46.31482" lon="-0.60466">
        <ele>4.8</ele>
        <time>2020-05-31T13:00:14Z</time>
      </trkpt>
      <trkpt lat="46.31483" lon="-0.60465">
        <ele>4.8</ele>
        <time>2020-05-31T13:00:15Z</time>
      </trkpt>
      <trkpt lat="46.31483" lon="-0.60464">
        <ele>4.8</ele>
        <time>2020-05-31T13:00:16Z</time>
      </trkpt>
      <trkpt lat="46.31483" lon="-0.60464">
        <ele>4.8</ele>
        <time>2020-05-31T13:00:17Z</time>
      </trkpt>
      <trkpt lat="46.31484" lon="-0.60463">
        <ele>4.8</ele>
        <time>2020-05-31T13:00:18Z</time>
      </trkpt>
      <trkpt lat="46.31484" lon="-0.60463">
        <ele>4.8</ele>
        <time>2020-05-31T13:00:19Z</time>
      </trkpt>
      <trkpt lat="46.31484" lon="-0.60463">
        <ele>4.8</ele>
        <time>2020-05-31T13:00:20Z</time>
      </trkpt>
      <trkpt lat="46.31484" lon="-0.60462">
        <ele>4.8</ele>
        <time>2020-05-31T13:00:21Z</time>
      </trkpt>
      <trkpt lat="46.31485" lon="-0.60462">
        <ele>4.8</ele>
        <time>2020-05-31T13:00:22Z</time>
      </trkpt>
      <trkpt lat="46.31485" lon="-0.60461">
        <ele>4.8</ele>
        <time>2020-05-31T13:00:23Z</time>
      </trkpt>
      <trkpt lat="46.31485" lon="-0.6046">
        <ele>4.8</ele>
        <time>2020-05-31T13:00:24Z</time>
      </trkpt>
      <trkpt lat="46.31484" lon="-0.6046">
        <ele>4.8</ele>
        <time>2020-05-31T13:00:25Z</time>
      </trkpt>
      <trkpt lat="46.31484" lon="-0.60459">
        <ele>4.8</ele>
        <time>2020-05-31T13:00:26Z</time>
      </trkpt>
      <trkpt lat="46.31484" lon="-0.6046">
        <ele>4.8</ele>
        <time>2020-05-31T13:00:27Z</time>
      </trkpt>
      <trkpt lat="46.31483" lon="-0.6046">
        <ele>4.8</ele>
        <time>2020-05-31T13:00:28Z</time>
      </trkpt>
      <trkpt lat="46.31483" lon="-0.60459">
        <ele>4.8</ele>
        <time>2020-05-31T13:00:29Z</time>
      </trkpt>
      <trkpt lat="46.31482" lon="-0.60459">
        <ele>4.8</ele>
        <time>2020-05-31T13:00:30Z</time>
      </trkpt>
      <trkpt lat="46.31482" lon="-0.60459">
        <ele>4.8</ele>
        <time>2020-05-31T13:00:31Z</time>
      </trkpt>
      <trkpt lat="46.31482" lon="-0.60459">
        <ele>4.8</ele>
        <time>2020-05-31T13:00:32Z</time>
      </trkpt>
      <trkpt lat="46.31482" lon="-0.60458">
        <ele>4.8</ele>
        <time>2020-05-31T13:00:33Z</time>
      </trkpt>
      <trkpt lat="46.31481" lon="-0.60457">
        <ele>4.8</ele>
        <time>2020-05-31T13:00:34Z</time>
      </trkpt>
      <trkpt lat="46.31482" lon="-0.60457">
        <ele>4.8</ele>
        <time>2020-05-31T13:00:35Z</time>
      </trkpt>
      <trkpt lat="46.31482" lon="-0.60458">
        <ele>4.8</ele>
        <time>2020-05-31T13:00:36Z</time>
      </trkpt>
      <trkpt lat="46.31483" lon="-0.60458">
        <ele>4.8</ele>
        <time>2020-05-31T13:00:37Z</time>
      </trkpt>
      <trkpt lat="46.31483" lon="-0.60458">
        <ele>4.8</ele>
        <time>2020-05-31T13:00:38Z</time>
      </trkpt>
      <trkpt lat="46.31484" lon="-0.60459">
        <ele>4.8</ele>
        <time>2020-05-31T13:00:39Z</time>
      </trkpt>
      <trkpt lat="46.31485" lon="-0.60459">
        <ele>4.8</ele>
        <time>2020-05-31T13:00:40Z</time>
      </trkpt>
      <trkpt lat="46.31485" lon="-0.60459">
        <ele>4.8</ele>
        <time>2020-05-31T13:00:41Z</time>
      </trkpt>
      <trkpt lat="46.31485" lon="-0.60458">
        <ele>4.8</ele>
        <time>2020-05-31T13:00:42Z</time>
      </trkpt>
      <trkpt lat="46.31485" lon="-0.60458">
        <ele>4.8</ele>
        <time>2020-05-31T13:00:43Z</time>
      </trkpt>
      <trkpt lat="46.31485" lon="-0.60458">
        <ele>4.8</ele>
        <time>2020-05-31T13:00:44Z</time>
      </trkpt>
      <trkpt lat="46.31485" lon="-0.60458">
        <ele>4.8</ele>
        <time>2020-05-31T13:00:45Z</time>
      </trkpt>
      <trkpt lat="46.31485" lon="-0.60458">
        <ele>4.8</ele>
        <time>2020-05-31T13:00:46Z</time>
      </trkpt>
      <trkpt lat="46.31485" lon="-0.60458">
        <ele>4.8</ele>
        <time>2020-05-31T13:00:47Z</time>
      </trkpt>
      <trkpt lat="46.31485" lon="-0.60458">
        <ele>4.8</ele>
        <time>2020-05-31T13:00:48Z</time>
      </trkpt>
      <trkpt lat="46.31485" lon="-0.60458">
        <ele>4.8</ele>
        <time>2020-05-31T13:00:49Z</time>
      </trkpt>
      <trkpt lat="46.31484" lon="-0.60458">
        <ele>4.8</ele>
        <time>2020-05-31T13:00:50Z</time>
      </trkpt>
      <trkpt lat="46.31484" lon="-0.60458">
        <ele>4.8</ele>
        <time>2020-05-31T13:00:51Z</time>
      </trkpt>
      <trkpt lat="46.31485" lon="-0.60458">
        <ele>4.8</ele>
        <time>2020-05-31T13:00:52Z</time>
      </trkpt>
      <trkpt lat="46.31485" lon="-0.60457">
        <ele>4.8</ele>
        <time>2020-05-31T13:00:53Z</time>
      </trkpt>
      <trkpt lat="46.31485" lon="-0.60458">
        <ele>4.8</ele>
        <time>2020-05-31T13:00:54Z</time>
      </trkpt>
      <trkpt lat="46.31485" lon="-0.60457">
        <ele>4.8</ele>
        <time>2020-05-31T13:00:55Z</time>
      </trkpt>
      <trkpt lat="46.31484" lon="-0.60457">
        <ele>4.8</ele>
        <time>2020-05-31T13:00:56Z</time>
      </trkpt>
      <trkpt lat="46.31484" lon="-0.60457">
        <ele>4.8</ele>
        <time>2020-05-31T13:00:57Z</time>
      </trkpt>
      <trkpt lat="46.31484" lon="-0.60457">
        <ele>4.8</ele>
        <time>2020-05-31T13:00:58Z</time>
      </trkpt>
      <trkpt lat="46.31485" lon="-0.60457">
        <ele>4.8</ele>
        <time>2020-05-31T13:00:59Z</time>
      </trkpt>
      <trkpt lat="46.31485" lon="-0.60457">
        <ele>4.8</ele>
        <time>2020-05-31T13:01:00Z</time>
      </trkpt>
      <trkpt lat="46.31484" lon="-0.60458">
        <ele>4.8</ele>
        <time>2020-05-31T13:01:01Z</time>
      </trkpt>
      <trkpt lat="46.31484" lon="-0.60459">
        <ele>4.8</ele>
        <time>2020-05-31T13:01:02Z</time>
      </trkpt>
      <trkpt lat="46.31483" lon="-0.60461">
        <ele>4.8</ele>
        <time>2020-05-31T13:01:03Z</time>
      </trkpt>
      <trkpt lat="46.31483" lon="-0.60462">
        <ele>4.8</ele>
        <time>2020-05-31T13:01:04Z</time>
      </trkpt>
      <trkpt lat="46.31483" lon="-0.60462">
        <ele>4.8</ele>
        <time>2020-05-31T13:01:05Z</time>
      </trkpt>
      <trkpt lat="46.31483" lon="-0.60463">
        <ele>4.8</ele>
        <time>2020-05-31T13:01:06Z</time>
      </trkpt>
      <trkpt lat="46.31483" lon="-0.60462">
        <ele>4.8</ele>
        <time>2020-05-31T13:01:07Z</time>
      </trkpt>
      <trkpt lat="46.31483" lon="-0.60464">
        <ele>4.8</ele>
        <time>2020-05-31T13:01:08Z</time>
      </trkpt>
      <trkpt lat="46.31483" lon="-0.60465">
        <ele>4.8</ele>
        <time>2020-05-31T13:01:09Z</time>
      </trkpt>
      <trkpt lat="46.31483" lon="-0.60466">
        <ele>4.8</ele>
        <time>2020-05-31T13:01:10Z</time>
      </trkpt>
      <trkpt lat="46.31484" lon="-0.60467">
        <ele>4.8</ele>
        <time>2020-05-31T13:01:11Z</time>
      </trkpt>
      <trkpt lat="46.31484" lon="-0.60467">
        <ele>4.8</ele>
        <time>2020-05-31T13:01:12Z</time>
      </trkpt>
      <trkpt lat="46.31484" lon="-0.60467">
        <ele>4.8</ele>
        <time>2020-05-31T13:01:13Z</time>
      </trkpt>
      <trkpt lat="46.31484" lon="-0.60468">
        <ele>4.8</ele>
        <time>2020-05-31T13:01:14Z</time>
      </trkpt>
      <trkpt lat="46.31484" lon="-0.60468">
        <ele>4.8</ele>
        <time>2020-05-31T13:01:15Z</time>
      </trkpt>
      <trkpt lat="46.31484" lon="-0.60468">
        <ele>4.8</ele>
        <time>2020-05-31T13:01:16Z</time>
      </trkpt>
      <trkpt lat="46.31484" lon="-0.60468">
        <ele>4.8</ele>
        <time>2020-05-31T13:01:17Z</time>
      </trkpt>
      <trkpt lat="46.31484" lon="-0.60468">
        <ele>4.8</ele>
        <time>2020-05-31T13:01:18Z</time>
      </trkpt>
      <trkpt lat="46.31484" lon="-0.60468">
        <ele>4.8</ele>
        <time>2020-05-31T13:01:19Z</time>
      </trkpt>
      <trkpt lat="46.31484" lon="-0.60468">
        <ele>4.8</ele>
        <time>2020-05-31T13:01:20Z</time>
      </trkpt>
      <trkpt lat="46.31484" lon="-0.60468">
        <ele>4.8</ele>
        <time>2020-05-31T13:01:21Z</time>
      </trkpt>
      <trkpt lat="46.31484" lon="-0.60468">
        <ele>4.8</ele>
        <time>2020-05-31T13:01:22Z</time>
      </trkpt>
      <trkpt lat="46.31484" lon="-0.60468">
        <ele>4.8</ele>
        <time>2020-05-31T13:01:24Z</time>
      </trkpt>
      <trkpt lat="46.31484" lon="-0.60468">
        <ele>4.8</ele>
        <time>2020-05-31T13:01:25Z</time>
      </trkpt>
      <trkpt lat="46.31484" lon="-0.60468">
        <ele>4.8</ele>
        <time>2020-05-31T13:01:26Z</time>
      </trkpt>
      <trkpt lat="46.31484" lon="-0.60468">
        <ele>4.8</ele>
        <time>2020-05-31T13:01:27Z</time>
      </trkpt>
      <trkpt lat="46.31484" lon="-0.60468">
        <ele>4.8</ele>
        <time>2020-05-31T13:01:28Z</time>
      </trkpt>
      <trkpt lat="46.31484" lon="-0.60468">
        <ele>4.8</ele>
        <time>2020-05-31T13:01:29Z</time>
      </trkpt>
      <trkpt lat="46.31484" lon="-0.60468">
        <ele>4.8</ele>
        <time>2020-05-31T13:01:30Z</time>
      </trkpt>
      <trkpt lat="46.31484" lon="-0.60468">
        <ele>4.8</ele>
        <time>2020-05-31T13:01:31Z</time>
      </trkpt>
      <trkpt lat="46.31484" lon="-0.60468">
        <ele>4.8</ele>
        <time>2020-05-31T13:01:32Z</time>
      </trkpt>
      <trkpt lat="46.31484" lon="-0.60468">
        <ele>4.8</ele>
        <time>2020-05-31T13:01:33Z</time>
      </trkpt>
      <trkpt lat="46.31484" lon="-0.60468">
        <ele>4.8</ele>
        <time>2020-05-31T13:01:34Z</time>
      </trkpt>
      <trkpt lat="46.31485" lon="-0.60469">
        <ele>4.8</ele>
        <time>2020-05-31T13:01:35Z</time>
      </trkpt>
      <trkpt lat="46.31485" lon="-0.60469">
        <ele>4.8</ele>
        <time>2020-05-31T13:01:36Z</time>
      </trkpt>
      <trkpt lat="46.31485" lon="-0.60469">
        <ele>4.8</ele>
        <time>2020-05-31T13:01:37Z</time>
      </trkpt>
      <trkpt lat="46.31485" lon="-0.6047">
        <ele>4.8</ele>
        <time>2020-05-31T13:01:38Z</time>
      </trkpt>
      <trkpt lat="46.31485" lon="-0.6047">
        <ele>4.8</ele>
        <time>2020-05-31T13:01:39Z</time>
      </trkpt>
      <trkpt lat="46.31485" lon="-0.6047">
        <ele>4.8</ele>
        <time>2020-05-31T13:01:40Z</time>
      </trkpt>
      <trkpt lat="46.31485" lon="-0.60471">
        <ele>4.8</ele>
        <time>2020-05-31T13:01:41Z</time>
      </trkpt>
      <trkpt lat="46.31486" lon="-0.60472">
        <ele>4.8</ele>
        <time>2020-05-31T13:01:42Z</time>
      </trkpt>
      <trkpt lat="46.31485" lon="-0.60473">
        <ele>4.8</ele>
        <time>2020-05-31T13:01:43Z</time>
      </trkpt>
      <trkpt lat="46.31484" lon="-0.60475">
        <ele>4.8</ele>
        <time>2020-05-31T13:01:44Z</time>
      </trkpt>
      <trkpt lat="46.31484" lon="-0.60476">
        <ele>4.8</ele>
        <time>2020-05-31T13:01:45Z</time>
      </trkpt>
      <trkpt lat="46.31484" lon="-0.60477">
        <ele>4.8</ele>
        <time>2020-05-31T13:01:46Z</time>
      </trkpt>
      <trkpt lat="46.31484" lon="-0.60477">
        <ele>4.8</ele>
        <time>2020-05-31T13:01:47Z</time>
      </trkpt>
      <trkpt lat="46.31484" lon="-0.60478">
        <ele>4.8</ele>
        <time>2020-05-31T13:01:48Z</time>
      </trkpt>
      <trkpt lat="46.31484" lon="-0.60479">
        <ele>4.8</ele>
        <time>2020-05-31T13:01:49Z</time>
      </trkpt>
      <trkpt lat="46.31484" lon="-0.6048">
        <ele>4.8</ele>
        <time>2020-05-31T13:01:50Z</time>
      </trkpt>
      <trkpt lat="46.31484" lon="-0.60481">
        <ele>4.8</ele>
        <time>2020-05-31T13:01:51Z</time>
      </trkpt>
      <trkpt lat="46.31483" lon="-0.60481">
        <ele>4.8</ele>
        <time>2020-05-31T13:01:52Z</time>
      </trkpt>
      <trkpt lat="46.31483" lon="-0.60482">
        <ele>4.8</ele>
        <time>2020-05-31T13:01:53Z</time>
      </trkpt>
      <trkpt lat="46.31483" lon="-0.60482">
        <ele>4.8</ele>
        <time>2020-05-31T13:01:54Z</time>
      </trkpt>
      <trkpt lat="46.31482" lon="-0.60482">
        <ele>4.8</ele>
        <time>2020-05-31T13:01:55Z</time>
      </trkpt>
      <trkpt lat="46.31482" lon="-0.60483">
        <ele>4.8</ele>
        <time>2020-05-31T13:01:56Z</time>
      </trkpt>
      <trkpt lat="46.31482" lon="-0.60482">
        <ele>4.8</ele>
        <time>2020-05-31T13:01:57Z</time>
      </trkpt>
      <trkpt lat="46.31482" lon="-0.60482">
        <ele>4.8</ele>
        <time>2020-05-31T13:01:58Z</time>
      </trkpt>
      <trkpt lat="46.31482" lon="-0.60481">
        <ele>4.8</ele>
        <time>2020-05-31T13:01:59Z</time>
      </trkpt>
      <trkpt lat="46.31481" lon="-0.6048">
        <ele>4.8</ele>
        <time>2020-05-31T13:02:00Z</time>
      </trkpt>
      <trkpt lat="46.31481" lon="-0.6048">
        <ele>4.8</ele>
        <time>2020-05-31T13:02:01Z</time>
      </trkpt>
      <trkpt lat="46.31481" lon="-0.6048">
        <ele>4.8</ele>
        <time>2020-05-31T13:02:02Z</time>
      </trkpt>
      <trkpt lat="46.31482" lon="-0.60481">
        <ele>4.8</ele>
        <time>2020-05-31T13:02:03Z</time>
      </trkpt>
      <trkpt lat="46.31482" lon="-0.6048">
        <ele>4.8</ele>
        <time>2020-05-31T13:02:04Z</time>
      </trkpt>
      <trkpt lat="46.31482" lon="-0.6048">
        <ele>4.8</ele>
        <time>2020-05-31T13:02:05Z</time>
      </trkpt>
      <trkpt lat="46.31483" lon="-0.6048">
        <ele>4.8</ele>
        <time>2020-05-31T13:02:06Z</time>
      </trkpt>
      <trkpt lat="46.31483" lon="-0.60479">
        <ele>4.8</ele>
        <time>2020-05-31T13:02:07Z</time>
      </trkpt>
      <trkpt lat="46.31483" lon="-0.60479">
        <ele>4.8</ele>
        <time>2020-05-31T13:02:08Z</time>
      </trkpt>
      <trkpt lat="46.31483" lon="-0.60479">
        <ele>4.8</ele>
        <time>2020-05-31T13:02:09Z</time>
      </trkpt>
      <trkpt lat="46.31483" lon="-0.60479">
        <ele>4.8</ele>
        <time>2020-05-31T13:02:10Z</time>
      </trkpt>
      <trkpt lat="46.31484" lon="-0.60478">
        <ele>4.8</ele>
        <time>2020-05-31T13:02:11Z</time>
      </trkpt>
      <trkpt lat="46.31484" lon="-0.60478">
        <ele>4.8</ele>
        <time>2020-05-31T13:02:12Z</time>
      </trkpt>
      <trkpt lat="46.31484" lon="-0.60478">
        <ele>4.8</ele>
        <time>2020-05-31T13:02:13Z</time>
      </trkpt>
      <trkpt lat="46.31484" lon="-0.60478">
        <ele>4.8</ele>
        <time>2020-05-31T13:02:14Z</time>
      </trkpt>
      <trkpt lat="46.31485" lon="-0.60478">
        <ele>4.8</ele>
        <time>2020-05-31T13:02:15Z</time>
      </trkpt>
      <trkpt lat="46.31484" lon="-0.60477">
        <ele>4.8</ele>
        <time>2020-05-31T13:02:16Z</time>
      </trkpt>
      <trkpt lat="46.31484" lon="-0.60477">
        <ele>4.8</ele>
        <time>2020-05-31T13:02:17Z</time>
      </trkpt>
      <trkpt lat="46.31484" lon="-0.60475">
        <ele>4.8</ele>
        <time>2020-05-31T13:02:18Z</time>
      </trkpt>
      <trkpt lat="46.31484" lon="-0.60475">
        <ele>4.8</ele>
        <time>2020-05-31T13:02:19Z</time>
      </trkpt>
      <trkpt lat="46.31484" lon="-0.60475">
        <ele>4.8</ele>
        <time>2020-05-31T13:02:20Z</time>
      </trkpt>
      <trkpt lat="46.31484" lon="-0.60475">
        <ele>4.8</ele>
        <time>2020-05-31T13:02:21Z</time>
      </trkpt>
      <trkpt lat="46.31484" lon="-0.60475">
        <ele>4.8</ele>
        <time>2020-05-31T13:02:22Z</time>
      </trkpt>
      <trkpt lat="46.31484" lon="-0.60475">
        <ele>4.8</ele>
        <time>2020-05-31T13:02:23Z</time>
      </trkpt>
      <trkpt lat="46.31484" lon="-0.60476">
        <ele>4.8</ele>
        <time>2020-05-31T13:02:24Z</time>
      </trkpt>
      <trkpt lat="46.31485" lon="-0.60476">
        <ele>4.8</ele>
        <time>2020-05-31T13:02:25Z</time>
      </trkpt>
      <trkpt lat="46.31485" lon="-0.60476">
        <ele>4.8</ele>
        <time>2020-05-31T13:02:26Z</time>
      </trkpt>
      <trkpt lat="46.31486" lon="-0.60476">
        <ele>4.8</ele>
        <time>2020-05-31T13:02:27Z</time>
      </trkpt>
      <trkpt lat="46.31486" lon="-0.60476">
        <ele>4.8</ele>
        <time>2020-05-31T13:02:28Z</time>
      </trkpt>
      <trkpt lat="46.31486" lon="-0.60476">
        <ele>4.8</ele>
        <time>2020-05-31T13:02:29Z</time>
      </trkpt>
      <trkpt lat="46.31486" lon="-0.60476">
        <ele>4.8</ele>
        <time>2020-05-31T13:02:30Z</time>
      </trkpt>
      <trkpt lat="46.31486" lon="-0.60477">
        <ele>4.8</ele>
        <time>2020-05-31T13:02:31Z</time>
      </trkpt>
      <trkpt lat="46.31486" lon="-0.60476">
        <ele>4.8</ele>
        <time>2020-05-31T13:02:32Z</time>
      </trkpt>
      <trkpt lat="46.31486" lon="-0.60476">
        <ele>4.8</ele>
        <time>2020-05-31T13:02:33Z</time>
      </trkpt>
      <trkpt lat="46.31486" lon="-0.60476">
        <ele>4.8</ele>
        <time>2020-05-31T13:02:34Z</time>
      </trkpt>
      <trkpt lat="46.31486" lon="-0.60476">
        <ele>4.8</ele>
        <time>2020-05-31T13:02:35Z</time>
      </trkpt>
      <trkpt lat="46.31486" lon="-0.60474">
        <ele>4.8</ele>
        <time>2020-05-31T13:02:36Z</time>
      </trkpt>
      <trkpt lat="46.31487" lon="-0.60473">
        <ele>4.8</ele>
        <time>2020-05-31T13:02:37Z</time>
      </trkpt>
      <trkpt lat="46.31487" lon="-0.60471">
        <ele>4.8</ele>
        <time>2020-05-31T13:02:38Z</time>
      </trkpt>
      <trkpt lat="46.31487" lon="-0.60471">
        <ele>4.8</ele>
        <time>2020-05-31T13:02:39Z</time>
      </trkpt>
      <trkpt lat="46.31488" lon="-0.60469">
        <ele>4.8</ele>
        <time>2020-05-31T13:02:40Z</time>
      </trkpt>
      <trkpt lat="46.31488" lon="-0.60468">
        <ele>4.8</ele>
        <time>2020-05-31T13:02:41Z</time>
      </trkpt>
      <trkpt lat="46.31488" lon="-0.60467">
        <ele>4.8</ele>
        <time>2020-05-31T13:02:42Z</time>
      </trkpt>
      <trkpt lat="46.31488" lon="-0.60466">
        <ele>4.8</ele>
        <time>2020-05-31T13:02:43Z</time>
      </trkpt>
      <trkpt lat="46.31489" lon="-0.60465">
        <ele>4.8</ele>
        <time>2020-05-31T13:02:44Z</time>
      </trkpt>
      <trkpt lat="46.3149" lon="-0.60465">
        <ele>4.8</ele>
        <time>2020-05-31T13:02:45Z</time>
      </trkpt>
      <trkpt lat="46.3149" lon="-0.60464">
        <ele>4.8</ele>
        <time>2020-05-31T13:02:46Z</time>
      </trkpt>
      <trkpt lat="46.31491" lon="-0.60464">
        <ele>4.8</ele>
        <time>2020-05-31T13:02:47Z</time>
      </trkpt>
      <trkpt lat="46.31491" lon="-0.60464">
        <ele>4.8</ele>
        <time>2020-05-31T13:02:48Z</time>
      </trkpt>
      <trkpt lat="46.31491" lon="-0.60463">
        <ele>4.8</ele>
        <time>2020-05-31T13:02:49Z</time>
      </trkpt>
      <trkpt lat="46.31491" lon="-0.60463">
        <ele>4.8</ele>
        <time>2020-05-31T13:02:50Z</time>
      </trkpt>
      <trkpt lat="46.31491" lon="-0.60463">
        <ele>4.8</ele>
        <time>2020-05-31T13:02:51Z</time>
      </trkpt>
      <trkpt lat="46.31491" lon="-0.60462">
        <ele>4.8</ele>
        <time>2020-05-31T13:02:52Z</time>
      </trkpt>
      <trkpt lat="46.31491" lon="-0.60462">
        <ele>4.8</ele>
        <time>2020-05-31T13:02:53Z</time>
      </trkpt>
      <trkpt lat="46.31491" lon="-0.60462">
        <ele>4.8</ele>
        <time>2020-05-31T13:02:54Z</time>
      </trkpt>
      <trkpt lat="46.31491" lon="-0.60461">
        <ele>4.8</ele>
        <time>2020-05-31T13:02:55Z</time>
      </trkpt>
      <trkpt lat="46.31492" lon="-0.60461">
        <ele>4.8</ele>
        <time>2020-05-31T13:02:56Z</time>
      </trkpt>
      <trkpt lat="46.31492" lon="-0.60461">
        <ele>4.8</ele>
        <time>2020-05-31T13:02:57Z</time>
      </trkpt>
      <trkpt lat="46.31492" lon="-0.6046">
        <ele>4.8</ele>
        <time>2020-05-31T13:02:58Z</time>
      </trkpt>
      <trkpt lat="46.31492" lon="-0.6046">
        <ele>4.8</ele>
        <time>2020-05-31T13:02:59Z</time>
      </trkpt>
      <trkpt lat="46.31492" lon="-0.6046">
        <ele>4.8</ele>
        <time>2020-05-31T13:03:00Z</time>
      </trkpt>
      <trkpt lat="46.31492" lon="-0.6046">
        <ele>4.8</ele>
        <time>2020-05-31T13:03:01Z</time>
      </trkpt>
      <trkpt lat="46.31492" lon="-0.60459">
        <ele>4.8</ele>
        <time>2020-05-31T13:03:02Z</time>
      </trkpt>
      <trkpt lat="46.31492" lon="-0.60459">
        <ele>4.8</ele>
        <time>2020-05-31T13:03:03Z</time>
      </trkpt>
      <trkpt lat="46.31493" lon="-0.60456">
        <ele>4.8</ele>
        <time>2020-05-31T13:03:04Z</time>
      </trkpt>
      <trkpt lat="46.31492" lon="-0.60454">
        <ele>4.8</ele>
        <time>2020-05-31T13:03:05Z</time>
      </trkpt>
      <trkpt lat="46.31492" lon="-0.60453">
        <ele>4.8</ele>
        <time>2020-05-31T13:03:06Z</time>
      </trkpt>
      <trkpt lat="46.31492" lon="-0.60453">
        <ele>4.8</ele>
        <time>2020-05-31T13:03:07Z</time>
      </trkpt>
      <trkpt lat="46.31492" lon="-0.60452">
        <ele>4.8</ele>
        <time>2020-05-31T13:03:08Z</time>
      </trkpt>
      <trkpt lat="46.31493" lon="-0.60451">
        <ele>4.8</ele>
        <time>2020-05-31T13:03:09Z</time>
      </trkpt>
      <trkpt lat="46.31492" lon="-0.60449">
        <ele>4.8</ele>
        <time>2020-05-31T13:03:10Z</time>
      </trkpt>
      <trkpt lat="46.31492" lon="-0.60448">
        <ele>4.8</ele>
        <time>2020-05-31T13:03:11Z</time>
      </trkpt>
      <trkpt lat="46.31492" lon="-0.60447">
        <ele>4.8</ele>
        <time>2020-05-31T13:03:12Z</time>
      </trkpt>
      <trkpt lat="46.31491" lon="-0.60447">
        <ele>4.8</ele>
        <time>2020-05-31T13:03:13Z</time>
      </trkpt>
      <trkpt lat="46.31491" lon="-0.60446">
        <ele>4.8</ele>
        <time>2020-05-31T13:03:14Z</time>
      </trkpt>
      <trkpt lat="46.31491" lon="-0.60447">
        <ele>4.8</ele>
        <time>2020-05-31T13:03:15Z</time>
      </trkpt>
      <trkpt lat="46.31491" lon="-0.60446">
        <ele>4.8</ele>
        <time>2020-05-31T13:03:16Z</time>
      </trkpt>
      <trkpt lat="46.31491" lon="-0.60446">
        <ele>4.8</ele>
        <time>2020-05-31T13:03:17Z</time>
      </trkpt>
      <trkpt lat="46.31491" lon="-0.60446">
        <ele>4.8</ele>
        <time>2020-05-31T13:03:18Z</time>
      </trkpt>
      <trkpt lat="46.31491" lon="-0.60447">
        <ele>4.8</ele>
        <time>2020-05-31T13:03:19Z</time>
      </trkpt>
      <trkpt lat="46.31491" lon="-0.60447">
        <ele>4.8</ele>
        <time>2020-05-31T13:03:20Z</time>
      </trkpt>
      <trkpt lat="46.3149" lon="-0.60447">
        <ele>4.8</ele>
        <time>2020-05-31T13:03:21Z</time>
      </trkpt>
      <trkpt lat="46.3149" lon="-0.60448">
        <ele>4.8</ele>
        <time>2020-05-31T13:03:22Z</time>
      </trkpt>
      <trkpt lat="46.3149" lon="-0.60448">
        <ele>4.8</ele>
        <time>2020-05-31T13:03:23Z</time>
      </trkpt>
      <trkpt lat="46.31489" lon="-0.60449">
        <ele>4.8</ele>
        <time>2020-05-31T13:03:24Z</time>
      </trkpt>
      <trkpt lat="46.31489" lon="-0.6045">
        <ele>4.8</ele>
        <time>2020-05-31T13:03:25Z</time>
      </trkpt>
      <trkpt lat="46.3149" lon="-0.60448">
        <ele>4.8</ele>
        <time>2020-05-31T13:03:26Z</time>
      </trkpt>
      <trkpt lat="46.3149" lon="-0.60448">
        <ele>4.8</ele>
        <time>2020-05-31T13:03:27Z</time>
      </trkpt>
      <trkpt lat="46.3149" lon="-0.60447">
        <ele>4.8</ele>
        <time>2020-05-31T13:03:28Z</time>
      </trkpt>
      <trkpt lat="46.3149" lon="-0.60447">
        <ele>4.8</ele>
        <time>2020-05-31T13:03:29Z</time>
      </trkpt>
      <trkpt lat="46.31491" lon="-0.60446">
        <ele>4.8</ele>
        <time>2020-05-31T13:03:30Z</time>
      </trkpt>
      <trkpt lat="46.31491" lon="-0.60446">
        <ele>4.8</ele>
        <time>2020-05-31T13:03:31Z</time>
      </trkpt>
      <trkpt lat="46.31492" lon="-0.60447">
        <ele>4.8</ele>
        <time>2020-05-31T13:03:32Z</time>
      </trkpt>
      <trkpt lat="46.31492" lon="-0.60446">
        <ele>4.8</ele>
        <time>2020-05-31T13:03:33Z</time>
      </trkpt>
      <trkpt lat="46.31492" lon="-0.60446">
        <ele>4.8</ele>
        <time>2020-05-31T13:03:34Z</time>
      </trkpt>
      <trkpt lat="46.31492" lon="-0.60446">
        <ele>4.8</ele>
        <time>2020-05-31T13:03:35Z</time>
      </trkpt>
      <trkpt lat="46.31492" lon="-0.60446">
        <ele>4.8</ele>
        <time>2020-05-31T13:03:36Z</time>
      </trkpt>
      <trkpt lat="46.31492" lon="-0.60445">
        <ele>4.8</ele>
        <time>2020-05-31T13:03:37Z</time>
      </trkpt>
      <trkpt lat="46.31492" lon="-0.60445">
        <ele>4.8</ele>
        <time>2020-05-31T13:03:38Z</time>
      </trkpt>
      <trkpt lat="46.31492" lon="-0.60446">
        <ele>4.8</ele>
        <time>2020-05-31T13:03:39Z</time>
      </trkpt>
      <trkpt lat="46.31492" lon="-0.60446">
        <ele>4.8</ele>
        <time>2020-05-31T13:03:40Z</time>
      </trkpt>
      <trkpt lat="46.31492" lon="-0.60446">
        <ele>4.8</ele>
        <time>2020-05-31T13:03:41Z</time>
      </trkpt>
      <trkpt lat="46.31492" lon="-0.60446">
        <ele>4.8</ele>
        <time>2020-05-31T13:03:42Z</time>
      </trkpt>
      <trkpt lat="46.31492" lon="-0.60446">
        <ele>4.8</ele>
        <time>2020-05-31T13:03:43Z</time>
      </trkpt>
      <trkpt lat="46.31492" lon="-0.60446">
        <ele>4.8</ele>
        <time>2020-05-31T13:03:44Z</time>
      </trkpt>
      <trkpt lat="46.31492" lon="-0.60447">
        <ele>4.8</ele>
        <time>2020-05-31T13:03:45Z</time>
      </trkpt>
      <trkpt lat="46.31492" lon="-0.60447">
        <ele>4.8</ele>
        <time>2020-05-31T13:03:46Z</time>
      </trkpt>
      <trkpt lat="46.31492" lon="-0.60446">
        <ele>4.8</ele>
        <time>2020-05-31T13:03:47Z</time>
      </trkpt>
      <trkpt lat="46.31492" lon="-0.60446">
        <ele>4.8</ele>
        <time>2020-05-31T13:03:48Z</time>
      </trkpt>
      <trkpt lat="46.31491" lon="-0.60446">
        <ele>4.8</ele>
        <time>2020-05-31T13:03:49Z</time>
      </trkpt>
      <trkpt lat="46.31491" lon="-0.60447">
        <ele>4.8</ele>
        <time>2020-05-31T13:03:50Z</time>
      </trkpt>
      <trkpt lat="46.3149" lon="-0.60447">
        <ele>4.8</ele>
        <time>2020-05-31T13:03:51Z</time>
      </trkpt>
      <trkpt lat="46.3149" lon="-0.60447">
        <ele>4.8</ele>
        <time>2020-05-31T13:03:52Z</time>
      </trkpt>
      <trkpt lat="46.31491" lon="-0.60448">
        <ele>4.8</ele>
        <time>2020-05-31T13:03:53Z</time>
      </trkpt>
      <trkpt lat="46.31491" lon="-0.60449">
        <ele>4.8</ele>
        <time>2020-05-31T13:03:54Z</time>
      </trkpt>
      <trkpt lat="46.31491" lon="-0.60449">
        <ele>4.8</ele>
        <time>2020-05-31T13:03:55Z</time>
      </trkpt>
      <trkpt lat="46.31492" lon="-0.60451">
        <ele>4.8</ele>
        <time>2020-05-31T13:03:56Z</time>
      </trkpt>
      <trkpt lat="46.31492" lon="-0.60452">
        <ele>4.8</ele>
        <time>2020-05-31T13:03:57Z</time>
      </trkpt>
      <trkpt lat="46.31491" lon="-0.60454">
        <ele>4.8</ele>
        <time>2020-05-31T13:03:58Z</time>
      </trkpt>
      <trkpt lat="46.31491" lon="-0.60454">
        <ele>4.8</ele>
        <time>2020-05-31T13:03:59Z</time>
      </trkpt>
      <trkpt lat="46.3149" lon="-0.60455">
        <ele>4.8</ele>
        <time>2020-05-31T13:04:00Z</time>
      </trkpt>
      <trkpt lat="46.3149" lon="-0.60455">
        <ele>4.8</ele>
        <time>2020-05-31T13:04:01Z</time>
      </trkpt>
      <trkpt lat="46.31489" lon="-0.60456">
        <ele>4.8</ele>
        <time>2020-05-31T13:04:02Z</time>
      </trkpt>
      <trkpt lat="46.31489" lon="-0.60457">
        <ele>4.8</ele>
        <time>2020-05-31T13:04:03Z</time>
      </trkpt>
      <trkpt lat="46.31489" lon="-0.60457">
        <ele>4.8</ele>
        <time>2020-05-31T13:04:04Z</time>
      </trkpt>
      <trkpt lat="46.31489" lon="-0.60457">
        <ele>4.8</ele>
        <time>2020-05-31T13:04:05Z</time>
      </trkpt>
      <trkpt lat="46.31489" lon="-0.60457">
        <ele>4.8</ele>
        <time>2020-05-31T13:04:06Z</time>
      </trkpt>
      <trkpt lat="46.31489" lon="-0.60457">
        <ele>4.8</ele>
        <time>2020-05-31T13:04:07Z</time>
      </trkpt>
      <trkpt lat="46.31489" lon="-0.60458">
        <ele>4.8</ele>
        <time>2020-05-31T13:04:08Z</time>
      </trkpt>
      <trkpt lat="46.31489" lon="-0.60458">
        <ele>4.8</ele>
        <time>2020-05-31T13:04:09Z</time>
      </trkpt>
      <trkpt lat="46.31489" lon="-0.60458">
        <ele>4.8</ele>
        <time>2020-05-31T13:04:10Z</time>
      </trkpt>
      <trkpt lat="46.31488" lon="-0.60458">
        <ele>4.8</ele>
        <time>2020-05-31T13:04:11Z</time>
      </trkpt>
      <trkpt lat="46.31488" lon="-0.60459">
        <ele>4.8</ele>
        <time>2020-05-31T13:04:12Z</time>
      </trkpt>
      <trkpt lat="46.31488" lon="-0.6046">
        <ele>4.8</ele>
        <time>2020-05-31T13:04:13Z</time>
      </trkpt>
      <trkpt lat="46.31488" lon="-0.60461">
        <ele>4.8</ele>
        <time>2020-05-31T13:04:14Z</time>
      </trkpt>
      <trkpt lat="46.31488" lon="-0.60461">
        <ele>4.8</ele>
        <time>2020-05-31T13:04:15Z</time>
      </trkpt>
      <trkpt lat="46.31488" lon="-0.60461">
        <ele>4.8</ele>
        <time>2020-05-31T13:04:16Z</time>
      </trkpt>
      <trkpt lat="46.31488" lon="-0.60462">
        <ele>4.8</ele>
        <time>2020-05-31T13:04:17Z</time>
      </trkpt>
      <trkpt lat="46.31489" lon="-0.60462">
        <ele>4.8</ele>
        <time>2020-05-31T13:04:18Z</time>
      </trkpt>
      <trkpt lat="46.31489" lon="-0.60463">
        <ele>4.8</ele>
        <time>2020-05-31T13:04:19Z</time>
      </trkpt>
      <trkpt lat="46.31488" lon="-0.60463">
        <ele>4.8</ele>
        <time>2020-05-31T13:04:20Z</time>
      </trkpt>
      <trkpt lat="46.31488" lon="-0.60463">
        <ele>4.8</ele>
        <time>2020-05-31T13:04:21Z</time>
      </trkpt>
      <trkpt lat="46.31488" lon="-0.60463">
        <ele>4.8</ele>
        <time>2020-05-31T13:04:22Z</time>
      </trkpt>
      <trkpt lat="46.31488" lon="-0.60463">
        <ele>4.8</ele>
        <time>2020-05-31T13:04:23Z</time>
      </trkpt>
      <trkpt lat="46.31488" lon="-0.60463">
        <ele>4.8</ele>
        <time>2020-05-31T13:04:24Z</time>
      </trkpt>
      <trkpt lat="46.31488" lon="-0.60463">
        <ele>4.8</ele>
        <time>2020-05-31T13:04:25Z</time>
      </trkpt>
      <trkpt lat="46.31488" lon="-0.60463">
        <ele>4.8</ele>
        <time>2020-05-31T13:04:26Z</time>
      </trkpt>
      <trkpt lat="46.31488" lon="-0.60463">
        <ele>4.8</ele>
        <time>2020-05-31T13:04:27Z</time>
      </trkpt>
      <trkpt lat="46.31488" lon="-0.60463">
        <ele>4.8</ele>
        <time>2020-05-31T13:04:28Z</time>
      </trkpt>
      <trkpt lat="46.31488" lon="-0.60463">
        <ele>4.8</ele>
        <time>2020-05-31T13:04:29Z</time>
      </trkpt>
      <trkpt lat="46.31488" lon="-0.60463">
        <ele>4.8</ele>
        <time>2020-05-31T13:04:30Z</time>
      </trkpt>
      <trkpt lat="46.31488" lon="-0.60463">
        <ele>4.8</ele>
        <time>2020-05-31T13:04:31Z</time>
      </trkpt>
      <trkpt lat="46.31488" lon="-0.60463">
        <ele>4.8</ele>
        <time>2020-05-31T13:04:32Z</time>
      </trkpt>
      <trkpt lat="46.31489" lon="-0.60463">
        <ele>4.8</ele>
        <time>2020-05-31T13:04:33Z</time>
      </trkpt>
      <trkpt lat="46.31489" lon="-0.60463">
        <ele>4.8</ele>
        <time>2020-05-31T13:04:34Z</time>
      </trkpt>
      <trkpt lat="46.31489" lon="-0.60464">
        <ele>4.8</ele>
        <time>2020-05-31T13:04:35Z</time>
      </trkpt>
      <trkpt lat="46.31489" lon="-0.60464">
        <ele>4.8</ele>
        <time>2020-05-31T13:04:36Z</time>
      </trkpt>
      <trkpt lat="46.31489" lon="-0.60464">
        <ele>4.8</ele>
        <time>2020-05-31T13:04:37Z</time>
      </trkpt>
      <trkpt lat="46.31489" lon="-0.60464">
        <ele>4.8</ele>
        <time>2020-05-31T13:04:38Z</time>
      </trkpt>
      <trkpt lat="46.31489" lon="-0.60464">
        <ele>4.8</ele>
        <time>2020-05-31T13:04:39Z</time>
      </trkpt>
      <trkpt lat="46.3149" lon="-0.60464">
        <ele>4.8</ele>
        <time>2020-05-31T13:04:40Z</time>
      </trkpt>
      <trkpt lat="46.3149" lon="-0.60463">
        <ele>4.8</ele>
        <time>2020-05-31T13:04:41Z</time>
      </trkpt>
      <trkpt lat="46.31491" lon="-0.60463">
        <ele>4.8</ele>
        <time>2020-05-31T13:04:42Z</time>
      </trkpt>
      <trkpt lat="46.31491" lon="-0.60462">
        <ele>4.8</ele>
        <time>2020-05-31T13:04:43Z</time>
      </trkpt>
      <trkpt lat="46.31491" lon="-0.60462">
        <ele>4.8</ele>
        <time>2020-05-31T13:04:44Z</time>
      </trkpt>
      <trkpt lat="46.31492" lon="-0.60461">
        <ele>4.8</ele>
        <time>2020-05-31T13:04:45Z</time>
      </trkpt>
      <trkpt lat="46.31492" lon="-0.6046">
        <ele>4.8</ele>
        <time>2020-05-31T13:04:46Z</time>
      </trkpt>
      <trkpt lat="46.31493" lon="-0.6046">
        <ele>4.8</ele>
        <time>2020-05-31T13:04:47Z</time>
      </trkpt>
      <trkpt lat="46.31493" lon="-0.60459">
        <ele>4.8</ele>
        <time>2020-05-31T13:04:48Z</time>
      </trkpt>
      <trkpt lat="46.31493" lon="-0.60458">
        <ele>4.8</ele>
        <time>2020-05-31T13:04:49Z</time>
      </trkpt>
      <trkpt lat="46.31493" lon="-0.60457">
        <ele>4.8</ele>
        <time>2020-05-31T13:04:50Z</time>
      </trkpt>
      <trkpt lat="46.31494" lon="-0.60457">
        <ele>4.8</ele>
        <time>2020-05-31T13:04:51Z</time>
      </trkpt>
      <trkpt lat="46.31494" lon="-0.60457">
        <ele>4.8</ele>
        <time>2020-05-31T13:04:52Z</time>
      </trkpt>
      <trkpt lat="46.31494" lon="-0.60456">
        <ele>4.8</ele>
        <time>2020-05-31T13:04:53Z</time>
      </trkpt>
      <trkpt lat="46.31495" lon="-0.60456">
        <ele>4.8</ele>
        <time>2020-05-31T13:04:54Z</time>
      </trkpt>
      <trkpt lat="46.31495" lon="-0.60456">
        <ele>4.8</ele>
        <time>2020-05-31T13:04:55Z</time>
      </trkpt>
      <trkpt lat="46.31495" lon="-0.60456">
        <ele>4.8</ele>
        <time>2020-05-31T13:04:56Z</time>
      </trkpt>
      <trkpt lat="46.31495" lon="-0.60456">
        <ele>4.8</ele>
        <time>2020-05-31T13:04:57Z</time>
      </trkpt>
      <trkpt lat="46.31495" lon="-0.60456">
        <ele>4.8</ele>
        <time>2020-05-31T13:04:58Z</time>
      </trkpt>
      <trkpt lat="46.31495" lon="-0.60456">
        <ele>4.8</ele>
        <time>2020-05-31T13:04:59Z</time>
      </trkpt>
      <trkpt lat="46.31495" lon="-0.60456">
        <ele>4.8</ele>
        <time>2020-05-31T13:05:00Z</time>
      </trkpt>
      <trkpt lat="46.31495" lon="-0.60456">
        <ele>4.8</ele>
        <time>2020-05-31T13:05:01Z</time>
      </trkpt>
      <trkpt lat="46.31495" lon="-0.60455">
        <ele>4.8</ele>
        <time>2020-05-31T13:05:02Z</time>
      </trkpt>
      <trkpt lat="46.31495" lon="-0.60456">
        <ele>4.8</ele>
        <time>2020-05-31T13:05:03Z</time>
      </trkpt>
      <trkpt lat="46.31495" lon="-0.60456">
        <ele>4.8</ele>
        <time>2020-05-31T13:05:04Z</time>
      </trkpt>
      <trkpt lat="46.31495" lon="-0.60456">
        <ele>4.8</ele>
        <time>2020-05-31T13:05:05Z</time>
      </trkpt>
      <trkpt lat="46.31495" lon="-0.60456">
        <ele>4.8</ele>
        <time>2020-05-31T13:05:06Z</time>
      </trkpt>
      <trkpt lat="46.31496" lon="-0.60458">
        <ele>4.8</ele>
        <time>2020-05-31T13:05:07Z</time>
      </trkpt>
      <trkpt lat="46.31496" lon="-0.60459">
        <ele>4.8</ele>
        <time>2020-05-31T13:05:08Z</time>
      </trkpt>
      <trkpt lat="46.31497" lon="-0.60459">
        <ele>4.8</ele>
        <time>2020-05-31T13:05:09Z</time>
      </trkpt>
      <trkpt lat="46.31497" lon="-0.6046">
        <ele>4.8</ele>
        <time>2020-05-31T13:05:10Z</time>
      </trkpt>
      <trkpt lat="46.31497" lon="-0.6046">
        <ele>4.8</ele>
        <time>2020-05-31T13:05:11Z</time>
      </trkpt>
      <trkpt lat="46.31498" lon="-0.6046">
        <ele>4.8</ele>
        <time>2020-05-31T13:05:12Z</time>
      </trkpt>
      <trkpt lat="46.31498" lon="-0.6046">
        <ele>4.8</ele>
        <time>2020-05-31T13:05:13Z</time>
      </trkpt>
      <trkpt lat="46.31498" lon="-0.60461">
        <ele>4.8</ele>
        <time>2020-05-31T13:05:14Z</time>
      </trkpt>
      <trkpt lat="46.31498" lon="-0.60461">
        <ele>4.8</ele>
        <time>2020-05-31T13:05:15Z</time>
      </trkpt>
      <trkpt lat="46.31498" lon="-0.60461">
        <ele>4.8</ele>
        <time>2020-05-31T13:05:16Z</time>
      </trkpt>
      <trkpt lat="46.31498" lon="-0.60461">
        <ele>4.8</ele>
        <time>2020-05-31T13:05:17Z</time>
      </trkpt>
      <trkpt lat="46.31498" lon="-0.60462">
        <ele>4.8</ele>
        <time>2020-05-31T13:05:18Z</time>
      </trkpt>
      <trkpt lat="46.31498" lon="-0.60462">
        <ele>4.8</ele>
        <time>2020-05-31T13:05:19Z</time>
      </trkpt>
      <trkpt lat="46.31498" lon="-0.60462">
        <ele>4.8</ele>
        <time>2020-05-31T13:05:20Z</time>
      </trkpt>
      <trkpt lat="46.31498" lon="-0.60462">
        <ele>4.8</ele>
        <time>2020-05-31T13:05:21Z</time>
      </trkpt>
      <trkpt lat="46.31498" lon="-0.60463">
        <ele>4.8</ele>
        <time>2020-05-31T13:05:22Z</time>
      </trkpt>
      <trkpt lat="46.31499" lon="-0.60463">
        <ele>4.8</ele>
        <time>2020-05-31T13:05:23Z</time>
      </trkpt>
      <trkpt lat="46.31499" lon="-0.60463">
        <ele>4.8</ele>
        <time>2020-05-31T13:05:24Z</time>
      </trkpt>
      <trkpt lat="46.31499" lon="-0.60463">
        <ele>4.8</ele>
        <time>2020-05-31T13:05:25Z</time>
      </trkpt>
      <trkpt lat="46.31499" lon="-0.60463">
        <ele>4.8</ele>
        <time>2020-05-31T13:05:26Z</time>
      </trkpt>
      <trkpt lat="46.31499" lon="-0.60464">
        <ele>4.8</ele>
        <time>2020-05-31T13:05:27Z</time>
      </trkpt>
      <trkpt lat="46.31499" lon="-0.60464">
        <ele>4.8</ele>
        <time>2020-05-31T13:05:28Z</time>
      </trkpt>
      <trkpt lat="46.31499" lon="-0.60464">
        <ele>4.8</ele>
        <time>2020-05-31T13:05:29Z</time>
      </trkpt>
      <trkpt lat="46.31499" lon="-0.60464">
        <ele>4.8</ele>
        <time>2020-05-31T13:05:30Z</time>
      </trkpt>
      <trkpt lat="46.31499" lon="-0.60465">
        <ele>4.8</ele>
        <time>2020-05-31T13:05:31Z</time>
      </trkpt>
      <trkpt lat="46.31499" lon="-0.60465">
        <ele>4.8</ele>
        <time>2020-05-31T13:05:32Z</time>
      </trkpt>
      <trkpt lat="46.315" lon="-0.60465">
        <ele>4.8</ele>
        <time>2020-05-31T13:05:33Z</time>
      </trkpt>
      <trkpt lat="46.315" lon="-0.60465">
        <ele>4.8</ele>
        <time>2020-05-31T13:05:34Z</time>
      </trkpt>
      <trkpt lat="46.315" lon="-0.60466">
        <ele>4.8</ele>
        <time>2020-05-31T13:05:35Z</time>
      </trkpt>
      <trkpt lat="46.315" lon="-0.60466">
        <ele>4.8</ele>
        <time>2020-05-31T13:05:36Z</time>
      </trkpt>
      <trkpt lat="46.315" lon="-0.60466">
        <ele>4.8</ele>
        <time>2020-05-31T13:05:37Z</time>
      </trkpt>
      <trkpt lat="46.315" lon="-0.60466">
        <ele>4.8</ele>
        <time>2020-05-31T13:05:38Z</time>
      </trkpt>
      <trkpt lat="46.315" lon="-0.60467">
        <ele>4.8</ele>
        <time>2020-05-31T13:05:39Z</time>
      </trkpt>
      <trkpt lat="46.315" lon="-0.60467">
        <ele>4.8</ele>
        <time>2020-05-31T13:05:40Z</time>
      </trkpt>
      <trkpt lat="46.315" lon="-0.60467">
        <ele>4.8</ele>
        <time>2020-05-31T13:05:41Z</time>
      </trkpt>
      <trkpt lat="46.315" lon="-0.60467">
        <ele>4.8</ele>
        <time>2020-05-31T13:05:42Z</time>
      </trkpt>
      <trkpt lat="46.315" lon="-0.60467">
        <ele>4.8</ele>
        <time>2020-05-31T13:05:43Z</time>
      </trkpt>
      <trkpt lat="46.31499" lon="-0.60466">
        <ele>4.8</ele>
        <time>2020-05-31T13:05:44Z</time>
      </trkpt>
      <trkpt lat="46.31498" lon="-0.60465">
        <ele>4.8</ele>
        <time>2020-05-31T13:05:45Z</time>
      </trkpt>
      <trkpt lat="46.31498" lon="-0.60466">
        <ele>4.8</ele>
        <time>2020-05-31T13:05:46Z</time>
      </trkpt>
      <trkpt lat="46.31499" lon="-0.60468">
        <ele>4.8</ele>
        <time>2020-05-31T13:05:47Z</time>
      </trkpt>
      <trkpt lat="46.31499" lon="-0.60468">
        <ele>4.8</ele>
        <time>2020-05-31T13:05:48Z</time>
      </trkpt>
      <trkpt lat="46.31498" lon="-0.60468">
        <ele>4.8</ele>
        <time>2020-05-31T13:05:49Z</time>
      </trkpt>
      <trkpt lat="46.31497" lon="-0.60468">
        <ele>4.8</ele>
        <time>2020-05-31T13:05:50Z</time>
      </trkpt>
      <trkpt lat="46.31496" lon="-0.60467">
        <ele>4.8</ele>
        <time>2020-05-31T13:05:51Z</time>
      </trkpt>
      <trkpt lat="46.31496" lon="-0.60466">
        <ele>4.8</ele>
        <time>2020-05-31T13:05:52Z</time>
      </trkpt>
      <trkpt lat="46.31496" lon="-0.60466">
        <ele>4.8</ele>
        <time>2020-05-31T13:05:53Z</time>
      </trkpt>
      <trkpt lat="46.31496" lon="-0.60466">
        <ele>4.8</ele>
        <time>2020-05-31T13:05:54Z</time>
      </trkpt>
      <trkpt lat="46.31496" lon="-0.60466">
        <ele>4.8</ele>
        <time>2020-05-31T13:05:55Z</time>
      </trkpt>
      <trkpt lat="46.31495" lon="-0.60466">
        <ele>4.8</ele>
        <time>2020-05-31T13:05:56Z</time>
      </trkpt>
      <trkpt lat="46.31496" lon="-0.60466">
        <ele>4.8</ele>
        <time>2020-05-31T13:05:57Z</time>
      </trkpt>
      <trkpt lat="46.31496" lon="-0.60466">
        <ele>4.8</ele>
        <time>2020-05-31T13:05:58Z</time>
      </trkpt>
      <trkpt lat="46.31496" lon="-0.60466">
        <ele>4.8</ele>
        <time>2020-05-31T13:05:59Z</time>
      </trkpt>
      <trkpt lat="46.31496" lon="-0.60467">
        <ele>4.8</ele>
        <time>2020-05-31T13:06:00Z</time>
      </trkpt>
      <trkpt lat="46.31496" lon="-0.60467">
        <ele>4.8</ele>
        <time>2020-05-31T13:06:01Z</time>
      </trkpt>
      <trkpt lat="46.31496" lon="-0.60467">
        <ele>4.8</ele>
        <time>2020-05-31T13:06:02Z</time>
      </trkpt>
      <trkpt lat="46.31496" lon="-0.60466">
        <ele>4.8</ele>
        <time>2020-05-31T13:06:03Z</time>
      </trkpt>
      <trkpt lat="46.31495" lon="-0.60465">
        <ele>4.8</ele>
        <time>2020-05-31T13:06:04Z</time>
      </trkpt>
      <trkpt lat="46.31495" lon="-0.60464">
        <ele>4.8</ele>
        <time>2020-05-31T13:06:05Z</time>
      </trkpt>
      <trkpt lat="46.31494" lon="-0.60464">
        <ele>4.8</ele>
        <time>2020-05-31T13:06:06Z</time>
      </trkpt>
      <trkpt lat="46.31493" lon="-0.60463">
        <ele>4.8</ele>
        <time>2020-05-31T13:06:07Z</time>
      </trkpt>
      <trkpt lat="46.31493" lon="-0.60464">
        <ele>4.8</ele>
        <time>2020-05-31T13:06:08Z</time>
      </trkpt>
      <trkpt lat="46.31492" lon="-0.60463">
        <ele>4.8</ele>
        <time>2020-05-31T13:06:09Z</time>
      </trkpt>
      <trkpt lat="46.31492" lon="-0.60462">
        <ele>4.8</ele>
        <time>2020-05-31T13:06:10Z</time>
      </trkpt>
      <trkpt lat="46.31491" lon="-0.60461">
        <ele>4.8</ele>
        <time>2020-05-31T13:06:11Z</time>
      </trkpt>
      <trkpt lat="46.31491" lon="-0.6046">
        <ele>4.8</ele>
        <time>2020-05-31T13:06:12Z</time>
      </trkpt>
      <trkpt lat="46.3149" lon="-0.60459">
        <ele>4.8</ele>
        <time>2020-05-31T13:06:13Z</time>
      </trkpt>
      <trkpt lat="46.3149" lon="-0.6046">
        <ele>4.8</ele>
        <time>2020-05-31T13:06:14Z</time>
      </trkpt>
      <trkpt lat="46.3149" lon="-0.6046">
        <ele>4.8</ele>
        <time>2020-05-31T13:06:15Z</time>
      </trkpt>
      <trkpt lat="46.31491" lon="-0.6046">
        <ele>4.8</ele>
        <time>2020-05-31T13:06:16Z</time>
      </trkpt>
      <trkpt lat="46.31491" lon="-0.60459">
        <ele>4.8</ele>
        <time>2020-05-31T13:06:17Z</time>
      </trkpt>
      <trkpt lat="46.31492" lon="-0.60459">
        <ele>4.8</ele>
        <time>2020-05-31T13:06:18Z</time>
      </trkpt>
      <trkpt lat="46.31492" lon="-0.60459">
        <ele>4.8</ele>
        <time>2020-05-31T13:06:19Z</time>
      </trkpt>
      <trkpt lat="46.31492" lon="-0.60459">
        <ele>4.8</ele>
        <time>2020-05-31T13:06:20Z</time>
      </trkpt>
      <trkpt lat="46.31492" lon="-0.60459">
        <ele>4.8</ele>
        <time>2020-05-31T13:06:21Z</time>
      </trkpt>
      <trkpt lat="46.31492" lon="-0.60459">
        <ele>4.8</ele>
        <time>2020-05-31T13:06:22Z</time>
      </trkpt>
      <trkpt lat="46.31492" lon="-0.60458">
        <ele>4.8</ele>
        <time>2020-05-31T13:06:23Z</time>
      </trkpt>
      <trkpt lat="46.31492" lon="-0.60458">
        <ele>4.8</ele>
        <time>2020-05-31T13:06:24Z</time>
      </trkpt>
      <trkpt lat="46.31492" lon="-0.60458">
        <ele>4.8</ele>
        <time>2020-05-31T13:06:25Z</time>
      </trkpt>
      <trkpt lat="46.31492" lon="-0.60458">
        <ele>4.8</ele>
        <time>2020-05-31T13:06:26Z</time>
      </trkpt>
      <trkpt lat="46.31492" lon="-0.60458">
        <ele>4.8</ele>
        <time>2020-05-31T13:06:27Z</time>
      </trkpt>
      <trkpt lat="46.31492" lon="-0.60458">
        <ele>4.8</ele>
        <time>2020-05-31T13:06:28Z</time>
      </trkpt>
      <trkpt lat="46.31492" lon="-0.60459">
        <ele>4.8</ele>
        <time>2020-05-31T13:06:29Z</time>
      </trkpt>
      <trkpt lat="46.31492" lon="-0.60459">
        <ele>4.8</ele>
        <time>2020-05-31T13:06:30Z</time>
      </trkpt>
      <trkpt lat="46.31492" lon="-0.60459">
        <ele>4.8</ele>
        <time>2020-05-31T13:06:31Z</time>
      </trkpt>
      <trkpt lat="46.31492" lon="-0.60459">
        <ele>4.8</ele>
        <time>2020-05-31T13:06:32Z</time>
      </trkpt>
      <trkpt lat="46.31493" lon="-0.60459">
        <ele>4.8</ele>
        <time>2020-05-31T13:06:33Z</time>
      </trkpt>
      <trkpt lat="46.31493" lon="-0.60459">
        <ele>4.8</ele>
        <time>2020-05-31T13:06:34Z</time>
      </trkpt>
      <trkpt lat="46.31493" lon="-0.60459">
        <ele>4.8</ele>
        <time>2020-05-31T13:06:35Z</time>
      </trkpt>
      <trkpt lat="46.31493" lon="-0.60458">
        <ele>4.8</ele>
        <time>2020-05-31T13:06:36Z</time>
      </trkpt>
      <trkpt lat="46.31493" lon="-0.60458">
        <ele>4.8</ele>
        <time>2020-05-31T13:06:37Z</time>
      </trkpt>
      <trkpt lat="46.31493" lon="-0.60458">
        <ele>4.8</ele>
        <time>2020-05-31T13:06:38Z</time>
      </trkpt>
      <trkpt lat="46.31493" lon="-0.60458">
        <ele>4.8</ele>
        <time>2020-05-31T13:06:39Z</time>
      </trkpt>
      <trkpt lat="46.31493" lon="-0.60458">
        <ele>4.8</ele>
        <time>2020-05-31T13:06:40Z</time>
      </trkpt>
      <trkpt lat="46.31493" lon="-0.60458">
        <ele>4.8</ele>
        <time>2020-05-31T13:06:41Z</time>
      </trkpt>
      <trkpt lat="46.31493" lon="-0.60457">
        <ele>4.8</ele>
        <time>2020-05-31T13:06:42Z</time>
      </trkpt>
      <trkpt lat="46.31493" lon="-0.60457">
        <ele>4.8</ele>
        <time>2020-05-31T13:06:43Z</time>
      </trkpt>
      <trkpt lat="46.31493" lon="-0.60457">
        <ele>4.8</ele>
        <time>2020-05-31T13:06:44Z</time>
      </trkpt>
      <trkpt lat="46.31493" lon="-0.60457">
        <ele>4.8</ele>
        <time>2020-05-31T13:06:45Z</time>
      </trkpt>
      <trkpt lat="46.31493" lon="-0.60456">
        <ele>4.8</ele>
        <time>2020-05-31T13:06:46Z</time>
      </trkpt>
      <trkpt lat="46.31493" lon="-0.60455">
        <ele>4.8</ele>
        <time>2020-05-31T13:06:47Z</time>
      </trkpt>
      <trkpt lat="46.31493" lon="-0.60454">
        <ele>4.8</ele>
        <time>2020-05-31T13:06:48Z</time>
      </trkpt>
      <trkpt lat="46.31494" lon="-0.60453">
        <ele>4.8</ele>
        <time>2020-05-31T13:06:49Z</time>
      </trkpt>
      <trkpt lat="46.31494" lon="-0.60453">
        <ele>4.8</ele>
        <time>2020-05-31T13:06:50Z</time>
      </trkpt>
      <trkpt lat="46.31494" lon="-0.60452">
        <ele>4.8</ele>
        <time>2020-05-31T13:06:51Z</time>
      </trkpt>
      <trkpt lat="46.31494" lon="-0.60452">
        <ele>4.8</ele>
        <time>2020-05-31T13:06:52Z</time>
      </trkpt>
      <trkpt lat="46.31494" lon="-0.60452">
        <ele>4.8</ele>
        <time>2020-05-31T13:06:53Z</time>
      </trkpt>
      <trkpt lat="46.31494" lon="-0.60452">
        <ele>4.8</ele>
        <time>2020-05-31T13:06:54Z</time>
      </trkpt>
      <trkpt lat="46.31493" lon="-0.60452">
        <ele>4.8</ele>
        <time>2020-05-31T13:06:55Z</time>
      </trkpt>
      <trkpt lat="46.31493" lon="-0.60451">
        <ele>4.8</ele>
        <time>2020-05-31T13:06:56Z</time>
      </trkpt>
      <trkpt lat="46.31493" lon="-0.60451">
        <ele>4.8</ele>
        <time>2020-05-31T13:06:57Z</time>
      </trkpt>
      <trkpt lat="46.31492" lon="-0.6045">
        <ele>4.8</ele>
        <time>2020-05-31T13:06:58Z</time>
      </trkpt>
      <trkpt lat="46.31492" lon="-0.60449">
        <ele>4.8</ele>
        <time>2020-05-31T13:06:59Z</time>
      </trkpt>
      <trkpt lat="46.31492" lon="-0.60449">
        <ele>4.8</ele>
        <time>2020-05-31T13:07:00Z</time>
      </trkpt>
      <trkpt lat="46.31492" lon="-0.6045">
        <ele>4.8</ele>
        <time>2020-05-31T13:07:01Z</time>
      </trkpt>
      <trkpt lat="46.31492" lon="-0.60451">
        <ele>4.8</ele>
        <time>2020-05-31T13:07:02Z</time>
      </trkpt>
      <trkpt lat="46.31492" lon="-0.60451">
        <ele>4.8</ele>
        <time>2020-05-31T13:07:03Z</time>
      </trkpt>
      <trkpt lat="46.31492" lon="-0.60451">
        <ele>4.8</ele>
        <time>2020-05-31T13:07:04Z</time>
      </trkpt>
      <trkpt lat="46.31492" lon="-0.60451">
        <ele>4.8</ele>
        <time>2020-05-31T13:07:05Z</time>
      </trkpt>
      <trkpt lat="46.31492" lon="-0.60451">
        <ele>4.8</ele>
        <time>2020-05-31T13:07:06Z</time>
      </trkpt>
      <trkpt lat="46.31492" lon="-0.60451">
        <ele>4.8</ele>
        <time>2020-05-31T13:07:07Z</time>
      </trkpt>
      <trkpt lat="46.31492" lon="-0.60451">
        <ele>4.8</ele>
        <time>2020-05-31T13:07:08Z</time>
      </trkpt>
      <trkpt lat="46.31492" lon="-0.60451">
        <ele>4.8</ele>
        <time>2020-05-31T13:07:09Z</time>
      </trkpt>
      <trkpt lat="46.31492" lon="-0.60451">
        <ele>4.8</ele>
        <time>2020-05-31T13:07:10Z</time>
      </trkpt>
      <trkpt lat="46.31492" lon="-0.60451">
        <ele>4.8</ele>
        <time>2020-05-31T13:07:11Z</time>
      </trkpt>
      <trkpt lat="46.31492" lon="-0.60451">
        <ele>4.8</ele>
        <time>2020-05-31T13:07:12Z</time>
      </trkpt>
      <trkpt lat="46.31492" lon="-0.60451">
        <ele>4.8</ele>
        <time>2020-05-31T13:07:13Z</time>
      </trkpt>
      <trkpt lat="46.31492" lon="-0.60451">
        <ele>4.8</ele>
        <time>2020-05-31T13:07:14Z</time>
      </trkpt>
      <trkpt lat="46.31492" lon="-0.60451">
        <ele>4.8</ele>
        <time>2020-05-31T13:07:15Z</time>
      </trkpt>
      <trkpt lat="46.31492" lon="-0.60451">
        <ele>4.8</ele>
        <time>2020-05-31T13:07:16Z</time>
      </trkpt>
      <trkpt lat="46.31492" lon="-0.60451">
        <ele>4.8</ele>
        <time>2020-05-31T13:07:17Z</time>
      </trkpt>
      <trkpt lat="46.31492" lon="-0.60451">
        <ele>4.8</ele>
        <time>2020-05-31T13:07:18Z</time>
      </trkpt>
      <trkpt lat="46.31492" lon="-0.60451">
        <ele>4.8</ele>
        <time>2020-05-31T13:07:19Z</time>
      </trkpt>
      <trkpt lat="46.31492" lon="-0.60451">
        <ele>4.8</ele>
        <time>2020-05-31T13:07:20Z</time>
      </trkpt>
      <trkpt lat="46.31494" lon="-0.60451">
        <ele>4.8</ele>
        <time>2020-05-31T13:07:21Z</time>
      </trkpt>
      <trkpt lat="46.31493" lon="-0.60451">
        <ele>4.8</ele>
        <time>2020-05-31T13:07:22Z</time>
      </trkpt>
      <trkpt lat="46.31493" lon="-0.60451">
        <ele>4.8</ele>
        <time>2020-05-31T13:07:23Z</time>
      </trkpt>
      <trkpt lat="46.31493" lon="-0.6045">
        <ele>4.8</ele>
        <time>2020-05-31T13:07:24Z</time>
      </trkpt>
      <trkpt lat="46.31493" lon="-0.6045">
        <ele>4.8</ele>
        <time>2020-05-31T13:07:25Z</time>
      </trkpt>
      <trkpt lat="46.31493" lon="-0.6045">
        <ele>4.8</ele>
        <time>2020-05-31T13:07:26Z</time>
      </trkpt>
      <trkpt lat="46.31493" lon="-0.6045">
        <ele>4.8</ele>
        <time>2020-05-31T13:07:27Z</time>
      </trkpt>
      <trkpt lat="46.31493" lon="-0.6045">
        <ele>4.8</ele>
        <time>2020-05-31T13:07:28Z</time>
      </trkpt>
      <trkpt lat="46.31493" lon="-0.6045">
        <ele>4.8</ele>
        <time>2020-05-31T13:07:29Z</time>
      </trkpt>
      <trkpt lat="46.31492" lon="-0.6045">
        <ele>4.8</ele>
        <time>2020-05-31T13:07:30Z</time>
      </trkpt>
      <trkpt lat="46.31492" lon="-0.6045">
        <ele>4.8</ele>
        <time>2020-05-31T13:07:31Z</time>
      </trkpt>
      <trkpt lat="46.31491" lon="-0.6045">
        <ele>4.8</ele>
        <time>2020-05-31T13:07:32Z</time>
      </trkpt>
      <trkpt lat="46.31491" lon="-0.6045">
        <ele>4.8</ele>
        <time>2020-05-31T13:07:33Z</time>
      </trkpt>
      <trkpt lat="46.31491" lon="-0.6045">
        <ele>4.8</ele>
        <time>2020-05-31T13:07:34Z</time>
      </trkpt>
      <trkpt lat="46.31491" lon="-0.6045">
        <ele>4.8</ele>
        <time>2020-05-31T13:07:35Z</time>
      </trkpt>
      <trkpt lat="46.31491" lon="-0.6045">
        <ele>4.8</ele>
        <time>2020-05-31T13:07:36Z</time>
      </trkpt>
      <trkpt lat="46.31491" lon="-0.6045">
        <ele>4.8</ele>
        <time>2020-05-31T13:07:37Z</time>
      </trkpt>
      <trkpt lat="46.31491" lon="-0.6045">
        <ele>4.8</ele>
        <time>2020-05-31T13:07:38Z</time>
      </trkpt>
      <trkpt lat="46.31491" lon="-0.6045">
        <ele>4.8</ele>
        <time>2020-05-31T13:07:39Z</time>
      </trkpt>
      <trkpt lat="46.31491" lon="-0.6045">
        <ele>4.8</ele>
        <time>2020-05-31T13:07:40Z</time>
      </trkpt>
      <trkpt lat="46.31491" lon="-0.6045">
        <ele>4.8</ele>
        <time>2020-05-31T13:07:41Z</time>
      </trkpt>
      <trkpt lat="46.31499" lon="-0.60455">
        <ele>4.8</ele>
        <time>2020-05-31T13:07:54Z</time>
      </trkpt>
      <trkpt lat="46.31496" lon="-0.60453">
        <ele>4.8</ele>
        <time>2020-05-31T13:07:55Z</time>
      </trkpt>
      <trkpt lat="46.31496" lon="-0.60453">
        <ele>4.8</ele>
        <time>2020-05-31T13:07:56Z</time>
      </trkpt>
      <trkpt lat="46.31496" lon="-0.60453">
        <ele>4.8</ele>
        <time>2020-05-31T13:07:57Z</time>
      </trkpt>
      <trkpt lat="46.31495" lon="-0.60452">
        <ele>4.8</ele>
        <time>2020-05-31T13:07:58Z</time>
      </trkpt>
      <trkpt lat="46.31494" lon="-0.60452">
        <ele>4.8</ele>
        <time>2020-05-31T13:07:59Z</time>
      </trkpt>
      <trkpt lat="46.31494" lon="-0.60452">
        <ele>4.8</ele>
        <time>2020-05-31T13:08:00Z</time>
      </trkpt>
      <trkpt lat="46.31493" lon="-0.60451">
        <ele>4.8</ele>
        <time>2020-05-31T13:08:01Z</time>
      </trkpt>
      <trkpt lat="46.31493" lon="-0.60451">
        <ele>4.8</ele>
        <time>2020-05-31T13:08:02Z</time>
      </trkpt>
      <trkpt lat="46.31492" lon="-0.60451">
        <ele>4.8</ele>
        <time>2020-05-31T13:08:03Z</time>
      </trkpt>
      <trkpt lat="46.31492" lon="-0.60451">
        <ele>4.8</ele>
        <time>2020-05-31T13:08:04Z</time>
      </trkpt>
      <trkpt lat="46.31491" lon="-0.60451">
        <ele>4.8</ele>
        <time>2020-05-31T13:08:05Z</time>
      </trkpt>
      <trkpt lat="46.31491" lon="-0.60451">
        <ele>4.8</ele>
        <time>2020-05-31T13:08:06Z</time>
      </trkpt>
      <trkpt lat="46.3149" lon="-0.6045">
        <ele>4.8</ele>
        <time>2020-05-31T13:08:07Z</time>
      </trkpt>
      <trkpt lat="46.31491" lon="-0.60451">
        <ele>4.8</ele>
        <time>2020-05-31T13:08:08Z</time>
      </trkpt>
      <trkpt lat="46.3149" lon="-0.60451">
        <ele>4.8</ele>
        <time>2020-05-31T13:08:09Z</time>
      </trkpt>
      <trkpt lat="46.31489" lon="-0.6045">
        <ele>4.8</ele>
        <time>2020-05-31T13:08:10Z</time>
      </trkpt>
      <trkpt lat="46.31488" lon="-0.60449">
        <ele>4.8</ele>
        <time>2020-05-31T13:08:11Z</time>
      </trkpt>
      <trkpt lat="46.31489" lon="-0.60448">
        <ele>4.8</ele>
        <time>2020-05-31T13:08:12Z</time>
      </trkpt>
      <trkpt lat="46.31488" lon="-0.60447">
        <ele>4.8</ele>
        <time>2020-05-31T13:08:13Z</time>
      </trkpt>
      <trkpt lat="46.31488" lon="-0.60447">
        <ele>4.8</ele>
        <time>2020-05-31T13:08:14Z</time>
      </trkpt>
      <trkpt lat="46.31489" lon="-0.60447">
        <ele>4.8</ele>
        <time>2020-05-31T13:08:15Z</time>
      </trkpt>
      <trkpt lat="46.31488" lon="-0.60449">
        <ele>4.8</ele>
        <time>2020-05-31T13:08:16Z</time>
      </trkpt>
      <trkpt lat="46.31488" lon="-0.60449">
        <ele>4.8</ele>
        <time>2020-05-31T13:08:17Z</time>
      </trkpt>
      <trkpt lat="46.31488" lon="-0.60449">
        <ele>4.8</ele>
        <time>2020-05-31T13:08:18Z</time>
      </trkpt>
      <trkpt lat="46.31489" lon="-0.60447">
        <ele>4.8</ele>
        <time>2020-05-31T13:08:19Z</time>
      </trkpt>
      <trkpt lat="46.31489" lon="-0.60448">
        <ele>4.8</ele>
        <time>2020-05-31T13:08:20Z</time>
      </trkpt>
      <trkpt lat="46.31489" lon="-0.60449">
        <ele>4.8</ele>
        <time>2020-05-31T13:08:21Z</time>
      </trkpt>
      <trkpt lat="46.31488" lon="-0.60449">
        <ele>4.8</ele>
        <time>2020-05-31T13:08:22Z</time>
      </trkpt>
      <trkpt lat="46.31488" lon="-0.6045">
        <ele>4.8</ele>
        <time>2020-05-31T13:08:23Z</time>
      </trkpt>
      <trkpt lat="46.31489" lon="-0.6045">
        <ele>4.8</ele>
        <time>2020-05-31T13:08:24Z</time>
      </trkpt>
      <trkpt lat="46.31489" lon="-0.60451">
        <ele>4.8</ele>
        <time>2020-05-31T13:08:25Z</time>
      </trkpt>
      <trkpt lat="46.3149" lon="-0.60452">
        <ele>4.8</ele>
        <time>2020-05-31T13:08:26Z</time>
      </trkpt>
      <trkpt lat="46.31491" lon="-0.60452">
        <ele>4.8</ele>
        <time>2020-05-31T13:08:27Z</time>
      </trkpt>
      <trkpt lat="46.31491" lon="-0.60453">
        <ele>4.8</ele>
        <time>2020-05-31T13:08:28Z</time>
      </trkpt>
      <trkpt lat="46.31491" lon="-0.60453">
        <ele>4.8</ele>
        <time>2020-05-31T13:08:29Z</time>
      </trkpt>
      <trkpt lat="46.31491" lon="-0.60453">
        <ele>4.8</ele>
        <time>2020-05-31T13:08:30Z</time>
      </trkpt>
      <trkpt lat="46.31492" lon="-0.60453">
        <ele>4.8</ele>
        <time>2020-05-31T13:08:31Z</time>
      </trkpt>
      <trkpt lat="46.31492" lon="-0.60452">
        <ele>4.8</ele>
        <time>2020-05-31T13:08:32Z</time>
      </trkpt>
      <trkpt lat="46.31492" lon="-0.60451">
        <ele>4.8</ele>
        <time>2020-05-31T13:08:33Z</time>
      </trkpt>
      <trkpt lat="46.3149" lon="-0.60449">
        <ele>4.8</ele>
        <time>2020-05-31T13:08:34Z</time>
      </trkpt>
      <trkpt lat="46.3149" lon="-0.6045">
        <ele>4.8</ele>
        <time>2020-05-31T13:08:35Z</time>
      </trkpt>
      <trkpt lat="46.31491" lon="-0.60451">
        <ele>4.8</ele>
        <time>2020-05-31T13:08:36Z</time>
      </trkpt>
      <trkpt lat="46.31491" lon="-0.60452">
        <ele>4.8</ele>
        <time>2020-05-31T13:08:37Z</time>
      </trkpt>
      <trkpt lat="46.31492" lon="-0.60453">
        <ele>4.8</ele>
        <time>2020-05-31T13:08:38Z</time>
      </trkpt>
      <trkpt lat="46.31492" lon="-0.60454">
        <ele>4.8</ele>
        <time>2020-05-31T13:08:39Z</time>
      </trkpt>
      <trkpt lat="46.31494" lon="-0.60458">
        <ele>4.8</ele>
        <time>2020-05-31T13:08:40Z</time>
      </trkpt>
      <trkpt lat="46.31494" lon="-0.60459">
        <ele>4.8</ele>
        <time>2020-05-31T13:08:41Z</time>
      </trkpt>
      <trkpt lat="46.31494" lon="-0.6046">
        <ele>4.8</ele>
        <time>2020-05-31T13:08:42Z</time>
      </trkpt>
      <trkpt lat="46.31494" lon="-0.6046">
        <ele>4.8</ele>
        <time>2020-05-31T13:08:43Z</time>
      </trkpt>
      <trkpt lat="46.31495" lon="-0.60461">
        <ele>4.8</ele>
        <time>2020-05-31T13:08:44Z</time>
      </trkpt>
      <trkpt lat="46.31495" lon="-0.60461">
        <ele>4.8</ele>
        <time>2020-05-31T13:08:45Z</time>
      </trkpt>
      <trkpt lat="46.31495" lon="-0.60461">
        <ele>4.8</ele>
        <time>2020-05-31T13:08:46Z</time>
      </trkpt>
      <trkpt lat="46.31495" lon="-0.60462">
        <ele>4.8</ele>
        <time>2020-05-31T13:08:47Z</time>
      </trkpt>
      <trkpt lat="46.31496" lon="-0.60462">
        <ele>4.8</ele>
        <time>2020-05-31T13:08:48Z</time>
      </trkpt>
      <trkpt lat="46.31496" lon="-0.60463">
        <ele>4.8</ele>
        <time>2020-05-31T13:08:49Z</time>
      </trkpt>
      <trkpt lat="46.31498" lon="-0.60464">
        <ele>4.8</ele>
        <time>2020-05-31T13:08:50Z</time>
      </trkpt>
      <trkpt lat="46.31498" lon="-0.60464">
        <ele>4.8</ele>
        <time>2020-05-31T13:08:51Z</time>
      </trkpt>
      <trkpt lat="46.31499" lon="-0.60464">
        <ele>4.8</ele>
        <time>2020-05-31T13:08:52Z</time>
      </trkpt>
      <trkpt lat="46.315" lon="-0.60465">
        <ele>4.8</ele>
        <time>2020-05-31T13:08:53Z</time>
      </trkpt>
      <trkpt lat="46.315" lon="-0.60465">
        <ele>4.8</ele>
        <time>2020-05-31T13:08:54Z</time>
      </trkpt>
      <trkpt lat="46.31501" lon="-0.60466">
        <ele>4.8</ele>
        <time>2020-05-31T13:08:55Z</time>
      </trkpt>
      <trkpt lat="46.31502" lon="-0.60466">
        <ele>4.8</ele>
        <time>2020-05-31T13:08:56Z</time>
      </trkpt>
      <trkpt lat="46.31502" lon="-0.60467">
        <ele>4.8</ele>
        <time>2020-05-31T13:08:57Z</time>
      </trkpt>
      <trkpt lat="46.31504" lon="-0.60468">
        <ele>4.8</ele>
        <time>2020-05-31T13:08:58Z</time>
      </trkpt>
      <trkpt lat="46.31504" lon="-0.60468">
        <ele>4.8</ele>
        <time>2020-05-31T13:08:59Z</time>
      </trkpt>
      <trkpt lat="46.31504" lon="-0.60468">
        <ele>4.8</ele>
        <time>2020-05-31T13:09:00Z</time>
      </trkpt>
      <trkpt lat="46.31504" lon="-0.60468">
        <ele>4.8</ele>
        <time>2020-05-31T13:09:01Z</time>
      </trkpt>
      <trkpt lat="46.31504" lon="-0.60468">
        <ele>4.8</ele>
        <time>2020-05-31T13:09:02Z</time>
      </trkpt>
      <trkpt lat="46.31504" lon="-0.60468">
        <ele>4.8</ele>
        <time>2020-05-31T13:09:03Z</time>
      </trkpt>
      <trkpt lat="46.31504" lon="-0.60469">
        <ele>4.8</ele>
        <time>2020-05-31T13:09:04Z</time>
      </trkpt>
      <trkpt lat="46.31505" lon="-0.60469">
        <ele>4.8</ele>
        <time>2020-05-31T13:09:05Z</time>
      </trkpt>
      <trkpt lat="46.31505" lon="-0.60469">
        <ele>4.8</ele>
        <time>2020-05-31T13:09:06Z</time>
      </trkpt>
      <trkpt lat="46.31505" lon="-0.60469">
        <ele>4.8</ele>
        <time>2020-05-31T13:09:07Z</time>
      </trkpt>
      <trkpt lat="46.31504" lon="-0.60469">
        <ele>4.8</ele>
        <time>2020-05-31T13:09:08Z</time>
      </trkpt>
      <trkpt lat="46.31503" lon="-0.60468">
        <ele>4.8</ele>
        <time>2020-05-31T13:09:09Z</time>
      </trkpt>
      <trkpt lat="46.31503" lon="-0.60467">
        <ele>4.8</ele>
        <time>2020-05-31T13:09:10Z</time>
      </trkpt>
      <trkpt lat="46.31502" lon="-0.60467">
        <ele>4.8</ele>
        <time>2020-05-31T13:09:11Z</time>
      </trkpt>
      <trkpt lat="46.31502" lon="-0.60466">
        <ele>4.8</ele>
        <time>2020-05-31T13:09:12Z</time>
      </trkpt>
      <trkpt lat="46.31501" lon="-0.60466">
        <ele>4.8</ele>
        <time>2020-05-31T13:09:13Z</time>
      </trkpt>
      <trkpt lat="46.315" lon="-0.60466">
        <ele>4.8</ele>
        <time>2020-05-31T13:09:14Z</time>
      </trkpt>
      <trkpt lat="46.315" lon="-0.60465">
        <ele>4.8</ele>
        <time>2020-05-31T13:09:15Z</time>
      </trkpt>
      <trkpt lat="46.31499" lon="-0.60465">
        <ele>4.8</ele>
        <time>2020-05-31T13:09:16Z</time>
      </trkpt>
      <trkpt lat="46.31498" lon="-0.60465">
        <ele>4.8</ele>
        <time>2020-05-31T13:09:17Z</time>
      </trkpt>
      <trkpt lat="46.31498" lon="-0.60464">
        <ele>4.8</ele>
        <time>2020-05-31T13:09:18Z</time>
      </trkpt>
      <trkpt lat="46.31497" lon="-0.60464">
        <ele>4.8</ele>
        <time>2020-05-31T13:09:19Z</time>
      </trkpt>
      <trkpt lat="46.31496" lon="-0.60463">
        <ele>4.8</ele>
        <time>2020-05-31T13:09:20Z</time>
      </trkpt>
      <trkpt lat="46.31494" lon="-0.60462">
        <ele>4.8</ele>
        <time>2020-05-31T13:09:21Z</time>
      </trkpt>
      <trkpt lat="46.31493" lon="-0.60461">
        <ele>4.8</ele>
        <time>2020-05-31T13:09:22Z</time>
      </trkpt>
      <trkpt lat="46.31492" lon="-0.6046">
        <ele>4.8</ele>
        <time>2020-05-31T13:09:23Z</time>
      </trkpt>
      <trkpt lat="46.31492" lon="-0.60459">
        <ele>4.8</ele>
        <time>2020-05-31T13:09:24Z</time>
      </trkpt>
      <trkpt lat="46.31492" lon="-0.60459">
        <ele>4.8</ele>
        <time>2020-05-31T13:09:25Z</time>
      </trkpt>
      <trkpt lat="46.31492" lon="-0.60459">
        <ele>4.8</ele>
        <time>2020-05-31T13:09:26Z</time>
      </trkpt>
      <trkpt lat="46.31492" lon="-0.60459">
        <ele>4.8</ele>
        <time>2020-05-31T13:09:27Z</time>
      </trkpt>
      <trkpt lat="46.31491" lon="-0.60459">
        <ele>4.8</ele>
        <time>2020-05-31T13:09:28Z</time>
      </trkpt>
      <trkpt lat="46.31491" lon="-0.60459">
        <ele>4.8</ele>
        <time>2020-05-31T13:09:29Z</time>
      </trkpt>
      <trkpt lat="46.31491" lon="-0.60459">
        <ele>4.8</ele>
        <time>2020-05-31T13:09:30Z</time>
      </trkpt>
      <trkpt lat="46.31491" lon="-0.60458">
        <ele>4.8</ele>
        <time>2020-05-31T13:09:31Z</time>
      </trkpt>
      <trkpt lat="46.31491" lon="-0.60458">
        <ele>4.8</ele>
        <time>2020-05-31T13:09:32Z</time>
      </trkpt>
      <trkpt lat="46.31491" lon="-0.60458">
        <ele>4.8</ele>
        <time>2020-05-31T13:09:33Z</time>
      </trkpt>
      <trkpt lat="46.31491" lon="-0.60458">
        <ele>4.8</ele>
        <time>2020-05-31T13:09:34Z</time>
      </trkpt>
      <trkpt lat="46.3149" lon="-0.60458">
        <ele>4.8</ele>
        <time>2020-05-31T13:09:35Z</time>
      </trkpt>
      <trkpt lat="46.3149" lon="-0.60458">
        <ele>4.8</ele>
        <time>2020-05-31T13:09:36Z</time>
      </trkpt>
      <trkpt lat="46.3149" lon="-0.60458">
        <ele>4.8</ele>
        <time>2020-05-31T13:09:37Z</time>
      </trkpt>
      <trkpt lat="46.3149" lon="-0.60458">
        <ele>4.8</ele>
        <time>2020-05-31T13:09:38Z</time>
      </trkpt>
      <trkpt lat="46.3149" lon="-0.60458">
        <ele>4.8</ele>
        <time>2020-05-31T13:09:39Z</time>
      </trkpt>
      <trkpt lat="46.3149" lon="-0.60458">
        <ele>4.8</ele>
        <time>2020-05-31T13:09:40Z</time>
      </trkpt>
      <trkpt lat="46.3149" lon="-0.60458">
        <ele>4.8</ele>
        <time>2020-05-31T13:09:41Z</time>
      </trkpt>
      <trkpt lat="46.31489" lon="-0.60458">
        <ele>4.8</ele>
        <time>2020-05-31T13:09:42Z</time>
      </trkpt>
      <trkpt lat="46.3149" lon="-0.60458">
        <ele>4.8</ele>
        <time>2020-05-31T13:09:43Z</time>
      </trkpt>
      <trkpt lat="46.3149" lon="-0.60458">
        <ele>4.8</ele>
        <time>2020-05-31T13:09:44Z</time>
      </trkpt>
      <trkpt lat="46.3149" lon="-0.60458">
        <ele>4.8</ele>
        <time>2020-05-31T13:09:45Z</time>
      </trkpt>
      <trkpt lat="46.31491" lon="-0.60459">
        <ele>4.8</ele>
        <time>2020-05-31T13:09:46Z</time>
      </trkpt>
      <trkpt lat="46.31491" lon="-0.60459">
        <ele>4.8</ele>
        <time>2020-05-31T13:09:47Z</time>
      </trkpt>
      <trkpt lat="46.31491" lon="-0.60459">
        <ele>4.8</ele>
        <time>2020-05-31T13:09:48Z</time>
      </trkpt>
      <trkpt lat="46.31491" lon="-0.60459">
        <ele>4.8</ele>
        <time>2020-05-31T13:09:49Z</time>
      </trkpt>
      <trkpt lat="46.3149" lon="-0.60458">
        <ele>4.8</ele>
        <time>2020-05-31T13:09:50Z</time>
      </trkpt>
      <trkpt lat="46.3149" lon="-0.60458">
        <ele>4.8</ele>
        <time>2020-05-31T13:09:51Z</time>
      </trkpt>
      <trkpt lat="46.31489" lon="-0.60458">
        <ele>4.8</ele>
        <time>2020-05-31T13:09:52Z</time>
      </trkpt>
      <trkpt lat="46.31489" lon="-0.60458">
        <ele>4.8</ele>
        <time>2020-05-31T13:09:53Z</time>
      </trkpt>
      <trkpt lat="46.31489" lon="-0.60458">
        <ele>4.8</ele>
        <time>2020-05-31T13:09:54Z</time>
      </trkpt>
      <trkpt lat="46.31489" lon="-0.60459">
        <ele>4.8</ele>
        <time>2020-05-31T13:09:55Z</time>
      </trkpt>
      <trkpt lat="46.31489" lon="-0.60459">
        <ele>4.8</ele>
        <time>2020-05-31T13:09:56Z</time>
      </trkpt>
      <trkpt lat="46.31489" lon="-0.60459">
        <ele>4.8</ele>
        <time>2020-05-31T13:09:57Z</time>
      </trkpt>
      <trkpt lat="46.31488" lon="-0.60458">
        <ele>4.8</ele>
        <time>2020-05-31T13:09:58Z</time>
      </trkpt>
      <trkpt lat="46.31488" lon="-0.60457">
        <ele>4.8</ele>
        <time>2020-05-31T13:09:59Z</time>
      </trkpt>
      <trkpt lat="46.31488" lon="-0.60457">
        <ele>4.8</ele>
        <time>2020-05-31T13:10:00Z</time>
      </trkpt>
      <trkpt lat="46.31488" lon="-0.60457">
        <ele>4.8</ele>
        <time>2020-05-31T13:10:01Z</time>
      </trkpt>
      <trkpt lat="46.31488" lon="-0.60456">
        <ele>4.8</ele>
        <time>2020-05-31T13:10:02Z</time>
      </trkpt>
      <trkpt lat="46.31488" lon="-0.60456">
        <ele>4.8</ele>
        <time>2020-05-31T13:10:03Z</time>
      </trkpt>
      <trkpt lat="46.31488" lon="-0.60455">
        <ele>4.8</ele>
        <time>2020-05-31T13:10:04Z</time>
      </trkpt>
      <trkpt lat="46.31488" lon="-0.60456">
        <ele>4.8</ele>
        <time>2020-05-31T13:10:05Z</time>
      </trkpt>
      <trkpt lat="46.31488" lon="-0.60455">
        <ele>4.8</ele>
        <time>2020-05-31T13:10:06Z</time>
      </trkpt>
      <trkpt lat="46.31488" lon="-0.60455">
        <ele>4.8</ele>
        <time>2020-05-31T13:10:07Z</time>
      </trkpt>
      <trkpt lat="46.31488" lon="-0.60455">
        <ele>4.8</ele>
        <time>2020-05-31T13:10:08Z</time>
      </trkpt>
      <trkpt lat="46.31489" lon="-0.60456">
        <ele>4.8</ele>
        <time>2020-05-31T13:10:09Z</time>
      </trkpt>
      <trkpt lat="46.31489" lon="-0.60456">
        <ele>4.8</ele>
        <time>2020-05-31T13:10:10Z</time>
      </trkpt>
      <trkpt lat="46.31489" lon="-0.60456">
        <ele>4.8</ele>
        <time>2020-05-31T13:10:11Z</time>
      </trkpt>
      <trkpt lat="46.31489" lon="-0.60456">
        <ele>4.8</ele>
        <time>2020-05-31T13:10:12Z</time>
      </trkpt>
      <trkpt lat="46.31489" lon="-0.60455">
        <ele>4.8</ele>
        <time>2020-05-31T13:10:13Z</time>
      </trkpt>
      <trkpt lat="46.31489" lon="-0.60455">
        <ele>4.8</ele>
        <time>2020-05-31T13:10:14Z</time>
      </trkpt>
      <trkpt lat="46.31489" lon="-0.60455">
        <ele>4.8</ele>
        <time>2020-05-31T13:10:15Z</time>
      </trkpt>
      <trkpt lat="46.31489" lon="-0.60455">
        <ele>4.8</ele>
        <time>2020-05-31T13:10:16Z</time>
      </trkpt>
      <trkpt lat="46.31489" lon="-0.60455">
        <ele>4.8</ele>
        <time>2020-05-31T13:10:17Z</time>
      </trkpt>
      <trkpt lat="46.31489" lon="-0.60455">
        <ele>4.8</ele>
        <time>2020-05-31T13:10:18Z</time>
      </trkpt>
      <trkpt lat="46.31489" lon="-0.60455">
        <ele>4.8</ele>
        <time>2020-05-31T13:10:19Z</time>
      </trkpt>
      <trkpt lat="46.31489" lon="-0.60455">
        <ele>4.8</ele>
        <time>2020-05-31T13:10:20Z</time>
      </trkpt>
      <trkpt lat="46.31489" lon="-0.60455">
        <ele>4.8</ele>
        <time>2020-05-31T13:10:21Z</time>
      </trkpt>
      <trkpt lat="46.31489" lon="-0.60455">
        <ele>4.8</ele>
        <time>2020-05-31T13:10:22Z</time>
      </trkpt>
      <trkpt lat="46.31489" lon="-0.60455">
        <ele>4.8</ele>
        <time>2020-05-31T13:10:23Z</time>
      </trkpt>
      <trkpt lat="46.31488" lon="-0.60455">
        <ele>4.8</ele>
        <time>2020-05-31T13:10:24Z</time>
      </trkpt>
      <trkpt lat="46.31488" lon="-0.60455">
        <ele>4.8</ele>
        <time>2020-05-31T13:10:25Z</time>
      </trkpt>
      <trkpt lat="46.31487" lon="-0.60455">
        <ele>4.8</ele>
        <time>2020-05-31T13:10:26Z</time>
      </trkpt>
      <trkpt lat="46.31487" lon="-0.60455">
        <ele>4.8</ele>
        <time>2020-05-31T13:10:27Z</time>
      </trkpt>
      <trkpt lat="46.31486" lon="-0.60455">
        <ele>4.8</ele>
        <time>2020-05-31T13:10:28Z</time>
      </trkpt>
      <trkpt lat="46.31486" lon="-0.60455">
        <ele>4.8</ele>
        <time>2020-05-31T13:10:29Z</time>
      </trkpt>
      <trkpt lat="46.31486" lon="-0.60454">
        <ele>4.8</ele>
        <time>2020-05-31T13:10:30Z</time>
      </trkpt>
      <trkpt lat="46.31486" lon="-0.60454">
        <ele>4.8</ele>
        <time>2020-05-31T13:10:31Z</time>
      </trkpt>
      <trkpt lat="46.31486" lon="-0.60454">
        <ele>4.8</ele>
        <time>2020-05-31T13:10:32Z</time>
      </trkpt>
      <trkpt lat="46.31486" lon="-0.60454">
        <ele>4.8</ele>
        <time>2020-05-31T13:10:33Z</time>
      </trkpt>
      <trkpt lat="46.31486" lon="-0.60454">
        <ele>4.8</ele>
        <time>2020-05-31T13:10:34Z</time>
      </trkpt>
      <trkpt lat="46.31486" lon="-0.60453">
        <ele>4.8</ele>
        <time>2020-05-31T13:10:35Z</time>
      </trkpt>
      <trkpt lat="46.31487" lon="-0.60454">
        <ele>4.8</ele>
        <time>2020-05-31T13:10:36Z</time>
      </trkpt>
      <trkpt lat="46.31487" lon="-0.60456">
        <ele>4.8</ele>
        <time>2020-05-31T13:10:37Z</time>
      </trkpt>
      <trkpt lat="46.31487" lon="-0.60456">
        <ele>4.8</ele>
        <time>2020-05-31T13:10:38Z</time>
      </trkpt>
      <trkpt lat="46.31486" lon="-0.60455">
        <ele>4.8</ele>
        <time>2020-05-31T13:10:39Z</time>
      </trkpt>
      <trkpt lat="46.31487" lon="-0.60455">
        <ele>4.8</ele>
        <time>2020-05-31T13:10:40Z</time>
      </trkpt>
      <trkpt lat="46.31487" lon="-0.60455">
        <ele>4.8</ele>
        <time>2020-05-31T13:10:41Z</time>
      </trkpt>
      <trkpt lat="46.31488" lon="-0.60456">
        <ele>4.8</ele>
        <time>2020-05-31T13:10:42Z</time>
      </trkpt>
      <trkpt lat="46.31488" lon="-0.60457">
        <ele>4.8</ele>
        <time>2020-05-31T13:10:43Z</time>
      </trkpt>
      <trkpt lat="46.31488" lon="-0.60457">
        <ele>4.8</ele>
        <time>2020-05-31T13:10:44Z</time>
      </trkpt>
      <trkpt lat="46.31489" lon="-0.60458">
        <ele>4.8</ele>
        <time>2020-05-31T13:10:45Z</time>
      </trkpt>
      <trkpt lat="46.31489" lon="-0.6046">
        <ele>4.8</ele>
        <time>2020-05-31T13:10:46Z</time>
      </trkpt>
      <trkpt lat="46.31489" lon="-0.60461">
        <ele>4.8</ele>
        <time>2020-05-31T13:10:47Z</time>
      </trkpt>
      <trkpt lat="46.31489" lon="-0.60462">
        <ele>4.8</ele>
        <time>2020-05-31T13:10:48Z</time>
      </trkpt>
      <trkpt lat="46.31489" lon="-0.60463">
        <ele>4.8</ele>
        <time>2020-05-31T13:10:49Z</time>
      </trkpt>
      <trkpt lat="46.31489" lon="-0.60463">
        <ele>4.8</ele>
        <time>2020-05-31T13:10:50Z</time>
      </trkpt>
      <trkpt lat="46.31489" lon="-0.60463">
        <ele>4.8</ele>
        <time>2020-05-31T13:10:51Z</time>
      </trkpt>
      <trkpt lat="46.31489" lon="-0.60463">
        <ele>4.8</ele>
        <time>2020-05-31T13:10:52Z</time>
      </trkpt>
      <trkpt lat="46.3149" lon="-0.60463">
        <ele>4.8</ele>
        <time>2020-05-31T13:10:53Z</time>
      </trkpt>
      <trkpt lat="46.31489" lon="-0.60462">
        <ele>4.8</ele>
        <time>2020-05-31T13:10:54Z</time>
      </trkpt>
      <trkpt lat="46.31488" lon="-0.60461">
        <ele>4.8</ele>
        <time>2020-05-31T13:10:55Z</time>
      </trkpt>
      <trkpt lat="46.31488" lon="-0.60462">
        <ele>4.8</ele>
        <time>2020-05-31T13:10:56Z</time>
      </trkpt>
      <trkpt lat="46.31488" lon="-0.60461">
        <ele>4.8</ele>
        <time>2020-05-31T13:10:57Z</time>
      </trkpt>
      <trkpt lat="46.31489" lon="-0.60461">
        <ele>4.8</ele>
        <time>2020-05-31T13:10:58Z</time>
      </trkpt>
      <trkpt lat="46.31489" lon="-0.60461">
        <ele>4.8</ele>
        <time>2020-05-31T13:10:59Z</time>
      </trkpt>
      <trkpt lat="46.31489" lon="-0.6046">
        <ele>4.8</ele>
        <time>2020-05-31T13:11:00Z</time>
      </trkpt>
      <trkpt lat="46.3149" lon="-0.60459">
        <ele>4.8</ele>
        <time>2020-05-31T13:11:01Z</time>
      </trkpt>
      <trkpt lat="46.3149" lon="-0.6046">
        <ele>4.8</ele>
        <time>2020-05-31T13:11:02Z</time>
      </trkpt>
      <trkpt lat="46.31491" lon="-0.6046">
        <ele>4.8</ele>
        <time>2020-05-31T13:11:03Z</time>
      </trkpt>
      <trkpt lat="46.31492" lon="-0.6046">
        <ele>4.8</ele>
        <time>2020-05-31T13:11:04Z</time>
      </trkpt>
      <trkpt lat="46.31493" lon="-0.60459">
        <ele>4.8</ele>
        <time>2020-05-31T13:11:05Z</time>
      </trkpt>
      <trkpt lat="46.31493" lon="-0.60459">
        <ele>4.8</ele>
        <time>2020-05-31T13:11:06Z</time>
      </trkpt>
      <trkpt lat="46.31493" lon="-0.60459">
        <ele>4.8</ele>
        <time>2020-05-31T13:11:07Z</time>
      </trkpt>
      <trkpt lat="46.31492" lon="-0.6046">
        <ele>4.8</ele>
        <time>2020-05-31T13:11:08Z</time>
      </trkpt>
      <trkpt lat="46.31492" lon="-0.6046">
        <ele>4.8</ele>
        <time>2020-05-31T13:11:09Z</time>
      </trkpt>
      <trkpt lat="46.31492" lon="-0.6046">
        <ele>4.8</ele>
        <time>2020-05-31T13:11:10Z</time>
      </trkpt>
      <trkpt lat="46.31491" lon="-0.60461">
        <ele>4.8</ele>
        <time>2020-05-31T13:11:11Z</time>
      </trkpt>
      <trkpt lat="46.31492" lon="-0.60461">
        <ele>4.8</ele>
        <time>2020-05-31T13:11:12Z</time>
      </trkpt>
      <trkpt lat="46.31492" lon="-0.60461">
        <ele>4.8</ele>
        <time>2020-05-31T13:11:13Z</time>
      </trkpt>
      <trkpt lat="46.31492" lon="-0.60461">
        <ele>4.8</ele>
        <time>2020-05-31T13:11:14Z</time>
      </trkpt>
      <trkpt lat="46.31492" lon="-0.60461">
        <ele>4.8</ele>
        <time>2020-05-31T13:11:15Z</time>
      </trkpt>
      <trkpt lat="46.31492" lon="-0.60461">
        <ele>4.8</ele>
        <time>2020-05-31T13:11:16Z</time>
      </trkpt>
      <trkpt lat="46.31492" lon="-0.60461">
        <ele>4.8</ele>
        <time>2020-05-31T13:11:17Z</time>
      </trkpt>
      <trkpt lat="46.31492" lon="-0.60461">
        <ele>4.8</ele>
        <time>2020-05-31T13:11:18Z</time>
      </trkpt>
      <trkpt lat="46.31492" lon="-0.60461">
        <ele>4.8</ele>
        <time>2020-05-31T13:11:19Z</time>
      </trkpt>
      <trkpt lat="46.31492" lon="-0.60461">
        <ele>4.8</ele>
        <time>2020-05-31T13:11:20Z</time>
      </trkpt>
      <trkpt lat="46.31492" lon="-0.60461">
        <ele>4.8</ele>
        <time>2020-05-31T13:11:21Z</time>
      </trkpt>
      <trkpt lat="46.31492" lon="-0.60461">
        <ele>4.8</ele>
        <time>2020-05-31T13:11:22Z</time>
      </trkpt>
      <trkpt lat="46.31492" lon="-0.60461">
        <ele>4.8</ele>
        <time>2020-05-31T13:11:23Z</time>
      </trkpt>
      <trkpt lat="46.31492" lon="-0.60461">
        <ele>4.8</ele>
        <time>2020-05-31T13:11:24Z</time>
      </trkpt>
      <trkpt lat="46.31492" lon="-0.60461">
        <ele>4.8</ele>
        <time>2020-05-31T13:11:25Z</time>
      </trkpt>
      <trkpt lat="46.31492" lon="-0.60461">
        <ele>4.8</ele>
        <time>2020-05-31T13:11:26Z</time>
      </trkpt>
      <trkpt lat="46.31491" lon="-0.60461">
        <ele>4.8</ele>
        <time>2020-05-31T13:11:27Z</time>
      </trkpt>
      <trkpt lat="46.31491" lon="-0.60461">
        <ele>4.8</ele>
        <time>2020-05-31T13:11:28Z</time>
      </trkpt>
      <trkpt lat="46.31491" lon="-0.60461">
        <ele>4.8</ele>
        <time>2020-05-31T13:11:29Z</time>
      </trkpt>
      <trkpt lat="46.31491" lon="-0.6046">
        <ele>4.8</ele>
        <time>2020-05-31T13:11:30Z</time>
      </trkpt>
      <trkpt lat="46.31491" lon="-0.60458">
        <ele>4.8</ele>
        <time>2020-05-31T13:11:31Z</time>
      </trkpt>
      <trkpt lat="46.31491" lon="-0.60457">
        <ele>4.8</ele>
        <time>2020-05-31T13:11:32Z</time>
      </trkpt>
      <trkpt lat="46.31492" lon="-0.60455">
        <ele>4.8</ele>
        <time>2020-05-31T13:11:33Z</time>
      </trkpt>
      <trkpt lat="46.31492" lon="-0.60454">
        <ele>4.8</ele>
        <time>2020-05-31T13:11:34Z</time>
      </trkpt>
      <trkpt lat="46.31492" lon="-0.60454">
        <ele>4.8</ele>
        <time>2020-05-31T13:11:35Z</time>
      </trkpt>
      <trkpt lat="46.31492" lon="-0.60454">
        <ele>4.8</ele>
        <time>2020-05-31T13:11:36Z</time>
      </trkpt>
      <trkpt lat="46.31492" lon="-0.60454">
        <ele>4.8</ele>
        <time>2020-05-31T13:11:37Z</time>
      </trkpt>
      <trkpt lat="46.31492" lon="-0.60454">
        <ele>4.8</ele>
        <time>2020-05-31T13:11:38Z</time>
      </trkpt>
      <trkpt lat="46.31492" lon="-0.60454">
        <ele>4.8</ele>
        <time>2020-05-31T13:11:39Z</time>
      </trkpt>
      <trkpt lat="46.31492" lon="-0.60454">
        <ele>4.8</ele>
        <time>2020-05-31T13:11:40Z</time>
      </trkpt>
      <trkpt lat="46.31493" lon="-0.60454">
        <ele>4.8</ele>
        <time>2020-05-31T13:11:41Z</time>
      </trkpt>
      <trkpt lat="46.31493" lon="-0.60453">
        <ele>4.8</ele>
        <time>2020-05-31T13:11:42Z</time>
      </trkpt>
      <trkpt lat="46.31494" lon="-0.60454">
        <ele>4.8</ele>
        <time>2020-05-31T13:11:43Z</time>
      </trkpt>
      <trkpt lat="46.31494" lon="-0.60454">
        <ele>4.8</ele>
        <time>2020-05-31T13:11:44Z</time>
      </trkpt>
      <trkpt lat="46.31495" lon="-0.60454">
        <ele>4.8</ele>
        <time>2020-05-31T13:11:45Z</time>
      </trkpt>
      <trkpt lat="46.31496" lon="-0.60455">
        <ele>4.8</ele>
        <time>2020-05-31T13:11:46Z</time>
      </trkpt>
      <trkpt lat="46.31496" lon="-0.60455">
        <ele>4.8</ele>
        <time>2020-05-31T13:11:47Z</time>
      </trkpt>
      <trkpt lat="46.31496" lon="-0.60455">
        <ele>4.8</ele>
        <time>2020-05-31T13:11:48Z</time>
      </trkpt>
      <trkpt lat="46.31496" lon="-0.60455">
        <ele>4.8</ele>
        <time>2020-05-31T13:11:49Z</time>
      </trkpt>
      <trkpt lat="46.31496" lon="-0.60455">
        <ele>4.8</ele>
        <time>2020-05-31T13:11:50Z</time>
      </trkpt>
      <trkpt lat="46.31496" lon="-0.60455">
        <ele>4.8</ele>
        <time>2020-05-31T13:11:51Z</time>
      </trkpt>
      <trkpt lat="46.31496" lon="-0.60456">
        <ele>4.8</ele>
        <time>2020-05-31T13:11:52Z</time>
      </trkpt>
      <trkpt lat="46.31495" lon="-0.60456">
        <ele>4.8</ele>
        <time>2020-05-31T13:11:53Z</time>
      </trkpt>
      <trkpt lat="46.31496" lon="-0.60456">
        <ele>4.8</ele>
        <time>2020-05-31T13:11:54Z</time>
      </trkpt>
      <trkpt lat="46.31495" lon="-0.60456">
        <ele>4.8</ele>
        <time>2020-05-31T13:11:55Z</time>
      </trkpt>
      <trkpt lat="46.31495" lon="-0.60457">
        <ele>4.8</ele>
        <time>2020-05-31T13:11:56Z</time>
      </trkpt>
      <trkpt lat="46.31495" lon="-0.60458">
        <ele>4.8</ele>
        <time>2020-05-31T13:11:57Z</time>
      </trkpt>
      <trkpt lat="46.31495" lon="-0.60459">
        <ele>4.8</ele>
        <time>2020-05-31T13:11:58Z</time>
      </trkpt>
      <trkpt lat="46.31494" lon="-0.6046">
        <ele>4.8</ele>
        <time>2020-05-31T13:11:59Z</time>
      </trkpt>
      <trkpt lat="46.31494" lon="-0.60461">
        <ele>4.8</ele>
        <time>2020-05-31T13:12:00Z</time>
      </trkpt>
      <trkpt lat="46.31494" lon="-0.60461">
        <ele>4.8</ele>
        <time>2020-05-31T13:12:01Z</time>
      </trkpt>
      <trkpt lat="46.31493" lon="-0.60459">
        <ele>4.8</ele>
        <time>2020-05-31T13:12:02Z</time>
      </trkpt>
      <trkpt lat="46.31493" lon="-0.6046">
        <ele>4.8</ele>
        <time>2020-05-31T13:12:03Z</time>
      </trkpt>
      <trkpt lat="46.31493" lon="-0.6046">
        <ele>4.8</ele>
        <time>2020-05-31T13:12:04Z</time>
      </trkpt>
      <trkpt lat="46.31492" lon="-0.60458">
        <ele>4.8</ele>
        <time>2020-05-31T13:12:05Z</time>
      </trkpt>
      <trkpt lat="46.31491" lon="-0.60458">
        <ele>4.8</ele>
        <time>2020-05-31T13:12:06Z</time>
      </trkpt>
      <trkpt lat="46.3149" lon="-0.60456">
        <ele>4.8</ele>
        <time>2020-05-31T13:12:07Z</time>
      </trkpt>
      <trkpt lat="46.3149" lon="-0.60455">
        <ele>4.8</ele>
        <time>2020-05-31T13:12:08Z</time>
      </trkpt>
      <trkpt lat="46.31489" lon="-0.60455">
        <ele>4.8</ele>
        <time>2020-05-31T13:12:09Z</time>
      </trkpt>
      <trkpt lat="46.31488" lon="-0.60454">
        <ele>4.8</ele>
        <time>2020-05-31T13:12:10Z</time>
      </trkpt>
      <trkpt lat="46.31487" lon="-0.60454">
        <ele>4.8</ele>
        <time>2020-05-31T13:12:11Z</time>
      </trkpt>
      <trkpt lat="46.31486" lon="-0.60454">
        <ele>4.8</ele>
        <time>2020-05-31T13:12:12Z</time>
      </trkpt>
      <trkpt lat="46.31485" lon="-0.60454">
        <ele>4.8</ele>
        <time>2020-05-31T13:12:13Z</time>
      </trkpt>
      <trkpt lat="46.31485" lon="-0.60455">
        <ele>4.8</ele>
        <time>2020-05-31T13:12:14Z</time>
      </trkpt>
      <trkpt lat="46.31485" lon="-0.60455">
        <ele>4.8</ele>
        <time>2020-05-31T13:12:15Z</time>
      </trkpt>
      <trkpt lat="46.31484" lon="-0.60454">
        <ele>4.8</ele>
        <time>2020-05-31T13:12:16Z</time>
      </trkpt>
      <trkpt lat="46.31484" lon="-0.60454">
        <ele>4.8</ele>
        <time>2020-05-31T13:12:17Z</time>
      </trkpt>
      <trkpt lat="46.31483" lon="-0.60453">
        <ele>4.8</ele>
        <time>2020-05-31T13:12:18Z</time>
      </trkpt>
      <trkpt lat="46.31483" lon="-0.60454">
        <ele>4.8</ele>
        <time>2020-05-31T13:12:19Z</time>
      </trkpt>
      <trkpt lat="46.31484" lon="-0.60454">
        <ele>4.8</ele>
        <time>2020-05-31T13:12:20Z</time>
      </trkpt>
      <trkpt lat="46.31484" lon="-0.60454">
        <ele>4.8</ele>
        <time>2020-05-31T13:12:21Z</time>
      </trkpt>
      <trkpt lat="46.31484" lon="-0.60454">
        <ele>4.8</ele>
        <time>2020-05-31T13:12:22Z</time>
      </trkpt>
      <trkpt lat="46.31484" lon="-0.60454">
        <ele>4.8</ele>
        <time>2020-05-31T13:12:23Z</time>
      </trkpt>
      <trkpt lat="46.31485" lon="-0.60454">
        <ele>4.8</ele>
        <time>2020-05-31T13:12:24Z</time>
      </trkpt>
      <trkpt lat="46.31485" lon="-0.60454">
        <ele>4.8</ele>
        <time>2020-05-31T13:12:25Z</time>
      </trkpt>
      <trkpt lat="46.31485" lon="-0.60454">
        <ele>4.8</ele>
        <time>2020-05-31T13:12:26Z</time>
      </trkpt>
      <trkpt lat="46.31485" lon="-0.60454">
        <ele>4.8</ele>
        <time>2020-05-31T13:12:27Z</time>
      </trkpt>
      <trkpt lat="46.31485" lon="-0.60454">
        <ele>4.8</ele>
        <time>2020-05-31T13:12:28Z</time>
      </trkpt>
      <trkpt lat="46.31486" lon="-0.60454">
        <ele>4.8</ele>
        <time>2020-05-31T13:12:29Z</time>
      </trkpt>
      <trkpt lat="46.31486" lon="-0.60454">
        <ele>4.8</ele>
        <time>2020-05-31T13:12:30Z</time>
      </trkpt>
      <trkpt lat="46.31486" lon="-0.60454">
        <ele>4.8</ele>
        <time>2020-05-31T13:12:31Z</time>
      </trkpt>
      <trkpt lat="46.31486" lon="-0.60454">
        <ele>4.8</ele>
        <time>2020-05-31T13:12:32Z</time>
      </trkpt>
      <trkpt lat="46.31487" lon="-0.60454">
        <ele>4.8</ele>
        <time>2020-05-31T13:12:33Z</time>
      </trkpt>
      <trkpt lat="46.31487" lon="-0.60454">
        <ele>4.8</ele>
        <time>2020-05-31T13:12:34Z</time>
      </trkpt>
      <trkpt lat="46.31487" lon="-0.60454">
        <ele>4.8</ele>
        <time>2020-05-31T13:12:35Z</time>
      </trkpt>
      <trkpt lat="46.31487" lon="-0.60454">
        <ele>4.8</ele>
        <time>2020-05-31T13:12:36Z</time>
      </trkpt>
      <trkpt lat="46.31488" lon="-0.60454">
        <ele>4.8</ele>
        <time>2020-05-31T13:12:37Z</time>
      </trkpt>
      <trkpt lat="46.31488" lon="-0.60454">
        <ele>4.8</ele>
        <time>2020-05-31T13:12:38Z</time>
      </trkpt>
      <trkpt lat="46.31488" lon="-0.60454">
        <ele>4.8</ele>
        <time>2020-05-31T13:12:39Z</time>
      </trkpt>
      <trkpt lat="46.31488" lon="-0.60454">
        <ele>4.8</ele>
        <time>2020-05-31T13:12:40Z</time>
      </trkpt>
      <trkpt lat="46.31488" lon="-0.60454">
        <ele>4.8</ele>
        <time>2020-05-31T13:12:41Z</time>
      </trkpt>
      <trkpt lat="46.31489" lon="-0.60454">
        <ele>4.8</ele>
        <time>2020-05-31T13:12:42Z</time>
      </trkpt>
      <trkpt lat="46.31489" lon="-0.60454">
        <ele>4.8</ele>
        <time>2020-05-31T13:12:43Z</time>
      </trkpt>
      <trkpt lat="46.31489" lon="-0.60454">
        <ele>4.8</ele>
        <time>2020-05-31T13:12:44Z</time>
      </trkpt>
      <trkpt lat="46.31489" lon="-0.60454">
        <ele>4.8</ele>
        <time>2020-05-31T13:12:45Z</time>
      </trkpt>
      <trkpt lat="46.3149" lon="-0.60454">
        <ele>4.8</ele>
        <time>2020-05-31T13:12:46Z</time>
      </trkpt>
      <trkpt lat="46.3149" lon="-0.60454">
        <ele>4.8</ele>
        <time>2020-05-31T13:12:47Z</time>
      </trkpt>
      <trkpt lat="46.31493" lon="-0.60455">
        <ele>4.8</ele>
        <time>2020-05-31T13:12:48Z</time>
      </trkpt>
      <trkpt lat="46.31494" lon="-0.60456">
        <ele>4.8</ele>
        <time>2020-05-31T13:12:49Z</time>
      </trkpt>
      <trkpt lat="46.31496" lon="-0.60457">
        <ele>4.8</ele>
        <time>2020-05-31T13:12:50Z</time>
      </trkpt>
      <trkpt lat="46.31498" lon="-0.60459">
        <ele>4.9</ele>
        <time>2020-05-31T13:12:51Z</time>
      </trkpt>
      <trkpt lat="46.31498" lon="-0.60458">
        <ele>4.9</ele>
        <time>2020-05-31T13:12:52Z</time>
      </trkpt>
      <trkpt lat="46.31498" lon="-0.60458">
        <ele>4.9</ele>
        <time>2020-05-31T13:12:53Z</time>
      </trkpt>
      <trkpt lat="46.31498" lon="-0.60458">
        <ele>4.9</ele>
        <time>2020-05-31T13:12:54Z</time>
      </trkpt>
      <trkpt lat="46.31498" lon="-0.60458">
        <ele>4.9</ele>
        <time>2020-05-31T13:12:55Z</time>
      </trkpt>
      <trkpt lat="46.31498" lon="-0.60458">
        <ele>4.9</ele>
        <time>2020-05-31T13:12:56Z</time>
      </trkpt>
      <trkpt lat="46.31498" lon="-0.60458">
        <ele>4.9</ele>
        <time>2020-05-31T13:12:57Z</time>
      </trkpt>
      <trkpt lat="46.31498" lon="-0.60458">
        <ele>4.9</ele>
        <time>2020-05-31T13:12:58Z</time>
      </trkpt>
      <trkpt lat="46.31499" lon="-0.60459">
        <ele>4.9</ele>
        <time>2020-05-31T13:12:59Z</time>
      </trkpt>
      <trkpt lat="46.31499" lon="-0.60459">
        <ele>4.9</ele>
        <time>2020-05-31T13:13:00Z</time>
      </trkpt>
      <trkpt lat="46.31499" lon="-0.60459">
        <ele>4.9</ele>
        <time>2020-05-31T13:13:01Z</time>
      </trkpt>
      <trkpt lat="46.31499" lon="-0.60459">
        <ele>4.9</ele>
        <time>2020-05-31T13:13:02Z</time>
      </trkpt>
      <trkpt lat="46.31499" lon="-0.60459">
        <ele>4.9</ele>
        <time>2020-05-31T13:13:03Z</time>
      </trkpt>
      <trkpt lat="46.31497" lon="-0.60461">
        <ele>4.9</ele>
        <time>2020-05-31T13:13:04Z</time>
      </trkpt>
      <trkpt lat="46.31497" lon="-0.60461">
        <ele>4.9</ele>
        <time>2020-05-31T13:13:05Z</time>
      </trkpt>
      <trkpt lat="46.31497" lon="-0.60461">
        <ele>4.9</ele>
        <time>2020-05-31T13:13:06Z</time>
      </trkpt>
      <trkpt lat="46.31496" lon="-0.6046">
        <ele>4.9</ele>
        <time>2020-05-31T13:13:07Z</time>
      </trkpt>
      <trkpt lat="46.31496" lon="-0.6046">
        <ele>4.9</ele>
        <time>2020-05-31T13:13:08Z</time>
      </trkpt>
      <trkpt lat="46.31496" lon="-0.6046">
        <ele>4.9</ele>
        <time>2020-05-31T13:13:09Z</time>
      </trkpt>
      <trkpt lat="46.31496" lon="-0.6046">
        <ele>4.9</ele>
        <time>2020-05-31T13:13:10Z</time>
      </trkpt>
      <trkpt lat="46.31496" lon="-0.6046">
        <ele>4.9</ele>
        <time>2020-05-31T13:13:11Z</time>
      </trkpt>
      <trkpt lat="46.31497" lon="-0.6046">
        <ele>4.9</ele>
        <time>2020-05-31T13:13:12Z</time>
      </trkpt>
      <trkpt lat="46.31497" lon="-0.6046">
        <ele>4.9</ele>
        <time>2020-05-31T13:13:13Z</time>
      </trkpt>
      <trkpt lat="46.31497" lon="-0.6046">
        <ele>4.9</ele>
        <time>2020-05-31T13:13:14Z</time>
      </trkpt>
      <trkpt lat="46.31497" lon="-0.6046">
        <ele>4.9</ele>
        <time>2020-05-31T13:13:15Z</time>
      </trkpt>
      <trkpt lat="46.31496" lon="-0.6046">
        <ele>4.9</ele>
        <time>2020-05-31T13:13:16Z</time>
      </trkpt>
      <trkpt lat="46.31495" lon="-0.60459">
        <ele>4.9</ele>
        <time>2020-05-31T13:13:17Z</time>
      </trkpt>
      <trkpt lat="46.31495" lon="-0.60459">
        <ele>4.9</ele>
        <time>2020-05-31T13:13:18Z</time>
      </trkpt>
      <trkpt lat="46.31494" lon="-0.60459">
        <ele>4.9</ele>
        <time>2020-05-31T13:13:19Z</time>
      </trkpt>
      <trkpt lat="46.31494" lon="-0.60459">
        <ele>4.9</ele>
        <time>2020-05-31T13:13:20Z</time>
      </trkpt>
      <trkpt lat="46.31493" lon="-0.60458">
        <ele>4.9</ele>
        <time>2020-05-31T13:13:21Z</time>
      </trkpt>
      <trkpt lat="46.31493" lon="-0.60458">
        <ele>4.9</ele>
        <time>2020-05-31T13:13:22Z</time>
      </trkpt>
      <trkpt lat="46.31492" lon="-0.60458">
        <ele>4.9</ele>
        <time>2020-05-31T13:13:23Z</time>
      </trkpt>
      <trkpt lat="46.31491" lon="-0.60458">
        <ele>4.9</ele>
        <time>2020-05-31T13:13:24Z</time>
      </trkpt>
      <trkpt lat="46.31492" lon="-0.60458">
        <ele>4.9</ele>
        <time>2020-05-31T13:13:25Z</time>
      </trkpt>
      <trkpt lat="46.31493" lon="-0.60458">
        <ele>4.9</ele>
        <time>2020-05-31T13:13:26Z</time>
      </trkpt>
      <trkpt lat="46.31493" lon="-0.60459">
        <ele>4.9</ele>
        <time>2020-05-31T13:13:27Z</time>
      </trkpt>
      <trkpt lat="46.31493" lon="-0.60458">
        <ele>4.9</ele>
        <time>2020-05-31T13:13:28Z</time>
      </trkpt>
      <trkpt lat="46.31493" lon="-0.60458">
        <ele>4.9</ele>
        <time>2020-05-31T13:13:29Z</time>
      </trkpt>
      <trkpt lat="46.31493" lon="-0.60459">
        <ele>4.9</ele>
        <time>2020-05-31T13:13:30Z</time>
      </trkpt>
      <trkpt lat="46.31494" lon="-0.60459">
        <ele>4.9</ele>
        <time>2020-05-31T13:13:31Z</time>
      </trkpt>
      <trkpt lat="46.31494" lon="-0.60458">
        <ele>4.9</ele>
        <time>2020-05-31T13:13:32Z</time>
      </trkpt>
      <trkpt lat="46.31494" lon="-0.60458">
        <ele>4.9</ele>
        <time>2020-05-31T13:13:33Z</time>
      </trkpt>
      <trkpt lat="46.31494" lon="-0.60457">
        <ele>4.9</ele>
        <time>2020-05-31T13:13:34Z</time>
      </trkpt>
      <trkpt lat="46.31494" lon="-0.60457">
        <ele>4.9</ele>
        <time>2020-05-31T13:13:35Z</time>
      </trkpt>
      <trkpt lat="46.31494" lon="-0.60458">
        <ele>4.9</ele>
        <time>2020-05-31T13:13:36Z</time>
      </trkpt>
      <trkpt lat="46.31493" lon="-0.60457">
        <ele>4.9</ele>
        <time>2020-05-31T13:13:37Z</time>
      </trkpt>
      <trkpt lat="46.31493" lon="-0.60457">
        <ele>4.9</ele>
        <time>2020-05-31T13:13:38Z</time>
      </trkpt>
      <trkpt lat="46.31493" lon="-0.60456">
        <ele>4.9</ele>
        <time>2020-05-31T13:13:39Z</time>
      </trkpt>
      <trkpt lat="46.31492" lon="-0.60456">
        <ele>4.9</ele>
        <time>2020-05-31T13:13:40Z</time>
      </trkpt>
      <trkpt lat="46.31492" lon="-0.60456">
        <ele>4.9</ele>
        <time>2020-05-31T13:13:41Z</time>
      </trkpt>
      <trkpt lat="46.31491" lon="-0.60455">
        <ele>4.9</ele>
        <time>2020-05-31T13:13:42Z</time>
      </trkpt>
      <trkpt lat="46.3149" lon="-0.60456">
        <ele>4.9</ele>
        <time>2020-05-31T13:13:43Z</time>
      </trkpt>
      <trkpt lat="46.3149" lon="-0.60455">
        <ele>4.9</ele>
        <time>2020-05-31T13:13:44Z</time>
      </trkpt>
      <trkpt lat="46.3149" lon="-0.60455">
        <ele>4.9</ele>
        <time>2020-05-31T13:13:45Z</time>
      </trkpt>
      <trkpt lat="46.31489" lon="-0.60454">
        <ele>4.9</ele>
        <time>2020-05-31T13:13:46Z</time>
      </trkpt>
      <trkpt lat="46.31489" lon="-0.60455">
        <ele>4.9</ele>
        <time>2020-05-31T13:13:47Z</time>
      </trkpt>
      <trkpt lat="46.31488" lon="-0.60455">
        <ele>4.9</ele>
        <time>2020-05-31T13:13:48Z</time>
      </trkpt>
      <trkpt lat="46.31488" lon="-0.60456">
        <ele>4.9</ele>
        <time>2020-05-31T13:13:49Z</time>
      </trkpt>
      <trkpt lat="46.31487" lon="-0.60456">
        <ele>4.9</ele>
        <time>2020-05-31T13:13:50Z</time>
      </trkpt>
      <trkpt lat="46.31487" lon="-0.60456">
        <ele>4.9</ele>
        <time>2020-05-31T13:13:51Z</time>
      </trkpt>
      <trkpt lat="46.31486" lon="-0.60457">
        <ele>4.9</ele>
        <time>2020-05-31T13:13:52Z</time>
      </trkpt>
      <trkpt lat="46.31486" lon="-0.60457">
        <ele>4.9</ele>
        <time>2020-05-31T13:13:53Z</time>
      </trkpt>
      <trkpt lat="46.31485" lon="-0.60458">
        <ele>4.9</ele>
        <time>2020-05-31T13:13:54Z</time>
      </trkpt>
      <trkpt lat="46.31485" lon="-0.60458">
        <ele>4.9</ele>
        <time>2020-05-31T13:13:55Z</time>
      </trkpt>
      <trkpt lat="46.31485" lon="-0.60458">
        <ele>4.9</ele>
        <time>2020-05-31T13:13:56Z</time>
      </trkpt>
      <trkpt lat="46.31484" lon="-0.60458">
        <ele>4.9</ele>
        <time>2020-05-31T13:13:57Z</time>
      </trkpt>
      <trkpt lat="46.31484" lon="-0.60458">
        <ele>4.9</ele>
        <time>2020-05-31T13:13:58Z</time>
      </trkpt>
      <trkpt lat="46.31483" lon="-0.60459">
        <ele>4.9</ele>
        <time>2020-05-31T13:13:59Z</time>
      </trkpt>
      <trkpt lat="46.31483" lon="-0.60459">
        <ele>4.9</ele>
        <time>2020-05-31T13:14:00Z</time>
      </trkpt>
      <trkpt lat="46.31482" lon="-0.60459">
        <ele>4.9</ele>
        <time>2020-05-31T13:14:01Z</time>
      </trkpt>
      <trkpt lat="46.31479" lon="-0.60461">
        <ele>4.9</ele>
        <time>2020-05-31T13:14:02Z</time>
      </trkpt>
      <trkpt lat="46.31478" lon="-0.60461">
        <ele>4.9</ele>
        <time>2020-05-31T13:14:03Z</time>
      </trkpt>
      <trkpt lat="46.31477" lon="-0.60462">
        <ele>4.9</ele>
        <time>2020-05-31T13:14:04Z</time>
      </trkpt>
      <trkpt lat="46.31475" lon="-0.60463">
        <ele>4.9</ele>
        <time>2020-05-31T13:14:05Z</time>
      </trkpt>
      <trkpt lat="46.31475" lon="-0.60464">
        <ele>4.9</ele>
        <time>2020-05-31T13:14:06Z</time>
      </trkpt>
      <trkpt lat="46.31474" lon="-0.60466">
        <ele>4.9</ele>
        <time>2020-05-31T13:14:07Z</time>
      </trkpt>
      <trkpt lat="46.31473" lon="-0.60467">
        <ele>4.9</ele>
        <time>2020-05-31T13:14:08Z</time>
      </trkpt>
      <trkpt lat="46.31472" lon="-0.60468">
        <ele>4.9</ele>
        <time>2020-05-31T13:14:09Z</time>
      </trkpt>
      <trkpt lat="46.31473" lon="-0.60468">
        <ele>4.9</ele>
        <time>2020-05-31T13:14:10Z</time>
      </trkpt>
      <trkpt lat="46.31473" lon="-0.60469">
        <ele>4.9</ele>
        <time>2020-05-31T13:14:11Z</time>
      </trkpt>
      <trkpt lat="46.31474" lon="-0.6047">
        <ele>4.9</ele>
        <time>2020-05-31T13:14:12Z</time>
      </trkpt>
      <trkpt lat="46.31474" lon="-0.60471">
        <ele>4.9</ele>
        <time>2020-05-31T13:14:13Z</time>
      </trkpt>
      <trkpt lat="46.31475" lon="-0.60471">
        <ele>4.9</ele>
        <time>2020-05-31T13:14:14Z</time>
      </trkpt>
      <trkpt lat="46.31475" lon="-0.60471">
        <ele>4.9</ele>
        <time>2020-05-31T13:14:15Z</time>
      </trkpt>
      <trkpt lat="46.31476" lon="-0.60471">
        <ele>4.9</ele>
        <time>2020-05-31T13:14:16Z</time>
      </trkpt>
      <trkpt lat="46.31476" lon="-0.60471">
        <ele>4.9</ele>
        <time>2020-05-31T13:14:17Z</time>
      </trkpt>
      <trkpt lat="46.31476" lon="-0.60472">
        <ele>4.9</ele>
        <time>2020-05-31T13:14:18Z</time>
      </trkpt>
      <trkpt lat="46.31477" lon="-0.60472">
        <ele>4.9</ele>
        <time>2020-05-31T13:14:19Z</time>
      </trkpt>
      <trkpt lat="46.31477" lon="-0.60472">
        <ele>4.9</ele>
        <time>2020-05-31T13:14:20Z</time>
      </trkpt>
      <trkpt lat="46.31477" lon="-0.60472">
        <ele>4.9</ele>
        <time>2020-05-31T13:14:21Z</time>
      </trkpt>
      <trkpt lat="46.31478" lon="-0.60471">
        <ele>4.9</ele>
        <time>2020-05-31T13:14:22Z</time>
      </trkpt>
      <trkpt lat="46.31478" lon="-0.60471">
        <ele>4.9</ele>
        <time>2020-05-31T13:14:23Z</time>
      </trkpt>
      <trkpt lat="46.31478" lon="-0.6047">
        <ele>4.9</ele>
        <time>2020-05-31T13:14:24Z</time>
      </trkpt>
      <trkpt lat="46.31479" lon="-0.6047">
        <ele>4.9</ele>
        <time>2020-05-31T13:14:25Z</time>
      </trkpt>
      <trkpt lat="46.31479" lon="-0.6047">
        <ele>4.9</ele>
        <time>2020-05-31T13:14:26Z</time>
      </trkpt>
      <trkpt lat="46.31479" lon="-0.60469">
        <ele>4.9</ele>
        <time>2020-05-31T13:14:27Z</time>
      </trkpt>
      <trkpt lat="46.3148" lon="-0.60469">
        <ele>4.9</ele>
        <time>2020-05-31T13:14:28Z</time>
      </trkpt>
      <trkpt lat="46.3148" lon="-0.60467">
        <ele>4.9</ele>
        <time>2020-05-31T13:14:29Z</time>
      </trkpt>
      <trkpt lat="46.31481" lon="-0.60466">
        <ele>4.9</ele>
        <time>2020-05-31T13:14:30Z</time>
      </trkpt>
      <trkpt lat="46.31482" lon="-0.60465">
        <ele>4.9</ele>
        <time>2020-05-31T13:14:31Z</time>
      </trkpt>
      <trkpt lat="46.31482" lon="-0.60464">
        <ele>4.9</ele>
        <time>2020-05-31T13:14:32Z</time>
      </trkpt>
      <trkpt lat="46.31483" lon="-0.60463">
        <ele>4.9</ele>
        <time>2020-05-31T13:14:33Z</time>
      </trkpt>
      <trkpt lat="46.31483" lon="-0.60464">
        <ele>4.9</ele>
        <time>2020-05-31T13:14:34Z</time>
      </trkpt>
      <trkpt lat="46.31483" lon="-0.60464">
        <ele>4.9</ele>
        <time>2020-05-31T13:14:35Z</time>
      </trkpt>
      <trkpt lat="46.31483" lon="-0.60463">
        <ele>4.9</ele>
        <time>2020-05-31T13:14:36Z</time>
      </trkpt>
      <trkpt lat="46.31483" lon="-0.60462">
        <ele>4.9</ele>
        <time>2020-05-31T13:14:37Z</time>
      </trkpt>
      <trkpt lat="46.31483" lon="-0.60462">
        <ele>4.9</ele>
        <time>2020-05-31T13:14:38Z</time>
      </trkpt>
      <trkpt lat="46.31483" lon="-0.60462">
        <ele>4.9</ele>
        <time>2020-05-31T13:14:39Z</time>
      </trkpt>
      <trkpt lat="46.31483" lon="-0.60463">
        <ele>4.9</ele>
        <time>2020-05-31T13:14:40Z</time>
      </trkpt>
      <trkpt lat="46.31483" lon="-0.60463">
        <ele>4.9</ele>
        <time>2020-05-31T13:14:41Z</time>
      </trkpt>
      <trkpt lat="46.31483" lon="-0.60463">
        <ele>4.9</ele>
        <time>2020-05-31T13:14:42Z</time>
      </trkpt>
      <trkpt lat="46.31482" lon="-0.60462">
        <ele>4.9</ele>
        <time>2020-05-31T13:14:43Z</time>
      </trkpt>
      <trkpt lat="46.31482" lon="-0.60462">
        <ele>4.9</ele>
        <time>2020-05-31T13:14:44Z</time>
      </trkpt>
      <trkpt lat="46.31482" lon="-0.60462">
        <ele>4.9</ele>
        <time>2020-05-31T13:14:45Z</time>
      </trkpt>
      <trkpt lat="46.31482" lon="-0.60462">
        <ele>4.9</ele>
        <time>2020-05-31T13:14:46Z</time>
      </trkpt>
      <trkpt lat="46.31482" lon="-0.60462">
        <ele>4.9</ele>
        <time>2020-05-31T13:14:47Z</time>
      </trkpt>
      <trkpt lat="46.31482" lon="-0.60461">
        <ele>4.9</ele>
        <time>2020-05-31T13:14:48Z</time>
      </trkpt>
      <trkpt lat="46.31482" lon="-0.60461">
        <ele>4.9</ele>
        <time>2020-05-31T13:14:49Z</time>
      </trkpt>
      <trkpt lat="46.31482" lon="-0.6046">
        <ele>4.9</ele>
        <time>2020-05-31T13:14:50Z</time>
      </trkpt>
      <trkpt lat="46.31482" lon="-0.60459">
        <ele>4.9</ele>
        <time>2020-05-31T13:14:51Z</time>
      </trkpt>
      <trkpt lat="46.31482" lon="-0.60459">
        <ele>4.9</ele>
        <time>2020-05-31T13:14:52Z</time>
      </trkpt>
      <trkpt lat="46.31482" lon="-0.60458">
        <ele>4.9</ele>
        <time>2020-05-31T13:14:53Z</time>
      </trkpt>
      <trkpt lat="46.31483" lon="-0.6046">
        <ele>5</ele>
        <time>2020-05-31T13:14:54Z</time>
      </trkpt>
      <trkpt lat="46.31483" lon="-0.60458">
        <ele>5</ele>
        <time>2020-05-31T13:14:55Z</time>
      </trkpt>
      <trkpt lat="46.31483" lon="-0.60457">
        <ele>5</ele>
        <time>2020-05-31T13:14:56Z</time>
      </trkpt>
      <trkpt lat="46.31483" lon="-0.60456">
        <ele>5</ele>
        <time>2020-05-31T13:14:57Z</time>
      </trkpt>
      <trkpt lat="46.31484" lon="-0.60456">
        <ele>5</ele>
        <time>2020-05-31T13:14:58Z</time>
      </trkpt>
      <trkpt lat="46.31484" lon="-0.60456">
        <ele>5</ele>
        <time>2020-05-31T13:14:59Z</time>
      </trkpt>
      <trkpt lat="46.31484" lon="-0.60456">
        <ele>5</ele>
        <time>2020-05-31T13:15:00Z</time>
      </trkpt>
      <trkpt lat="46.31485" lon="-0.60456">
        <ele>5</ele>
        <time>2020-05-31T13:15:01Z</time>
      </trkpt>
      <trkpt lat="46.31485" lon="-0.60457">
        <ele>5</ele>
        <time>2020-05-31T13:15:02Z</time>
      </trkpt>
      <trkpt lat="46.31485" lon="-0.60457">
        <ele>5</ele>
        <time>2020-05-31T13:15:03Z</time>
      </trkpt>
      <trkpt lat="46.31485" lon="-0.60457">
        <ele>5</ele>
        <time>2020-05-31T13:15:04Z</time>
      </trkpt>
      <trkpt lat="46.31485" lon="-0.60457">
        <ele>5</ele>
        <time>2020-05-31T13:15:05Z</time>
      </trkpt>
      <trkpt lat="46.31486" lon="-0.60457">
        <ele>5</ele>
        <time>2020-05-31T13:15:06Z</time>
      </trkpt>
      <trkpt lat="46.31486" lon="-0.60458">
        <ele>5</ele>
        <time>2020-05-31T13:15:07Z</time>
      </trkpt>
      <trkpt lat="46.31486" lon="-0.60458">
        <ele>5</ele>
        <time>2020-05-31T13:15:08Z</time>
      </trkpt>
      <trkpt lat="46.31486" lon="-0.60458">
        <ele>5</ele>
        <time>2020-05-31T13:15:09Z</time>
      </trkpt>
      <trkpt lat="46.31486" lon="-0.60458">
        <ele>5</ele>
        <time>2020-05-31T13:15:10Z</time>
      </trkpt>
      <trkpt lat="46.31487" lon="-0.60458">
        <ele>5</ele>
        <time>2020-05-31T13:15:11Z</time>
      </trkpt>
      <trkpt lat="46.31487" lon="-0.60459">
        <ele>5</ele>
        <time>2020-05-31T13:15:12Z</time>
      </trkpt>
      <trkpt lat="46.31487" lon="-0.60459">
        <ele>5</ele>
        <time>2020-05-31T13:15:13Z</time>
      </trkpt>
      <trkpt lat="46.31487" lon="-0.60459">
        <ele>5</ele>
        <time>2020-05-31T13:15:14Z</time>
      </trkpt>
      <trkpt lat="46.31487" lon="-0.60459">
        <ele>5</ele>
        <time>2020-05-31T13:15:15Z</time>
      </trkpt>
      <trkpt lat="46.31488" lon="-0.6046">
        <ele>5</ele>
        <time>2020-05-31T13:15:16Z</time>
      </trkpt>
      <trkpt lat="46.31488" lon="-0.6046">
        <ele>5</ele>
        <time>2020-05-31T13:15:17Z</time>
      </trkpt>
      <trkpt lat="46.31488" lon="-0.6046">
        <ele>5</ele>
        <time>2020-05-31T13:15:18Z</time>
      </trkpt>
      <trkpt lat="46.31488" lon="-0.6046">
        <ele>5</ele>
        <time>2020-05-31T13:15:19Z</time>
      </trkpt>
      <trkpt lat="46.31488" lon="-0.6046">
        <ele>5</ele>
        <time>2020-05-31T13:15:20Z</time>
      </trkpt>
      <trkpt lat="46.31488" lon="-0.6046">
        <ele>5</ele>
        <time>2020-05-31T13:15:21Z</time>
      </trkpt>
      <trkpt lat="46.31488" lon="-0.6046">
        <ele>5</ele>
        <time>2020-05-31T13:15:22Z</time>
      </trkpt>
      <trkpt lat="46.31488" lon="-0.6046">
        <ele>5</ele>
        <time>2020-05-31T13:15:23Z</time>
      </trkpt>
      <trkpt lat="46.31487" lon="-0.60461">
        <ele>5</ele>
        <time>2020-05-31T13:15:24Z</time>
      </trkpt>
      <trkpt lat="46.31487" lon="-0.60461">
        <ele>5</ele>
        <time>2020-05-31T13:15:25Z</time>
      </trkpt>
      <trkpt lat="46.31487" lon="-0.60461">
        <ele>5</ele>
        <time>2020-05-31T13:15:26Z</time>
      </trkpt>
      <trkpt lat="46.31487" lon="-0.60461">
        <ele>5</ele>
        <time>2020-05-31T13:15:27Z</time>
      </trkpt>
      <trkpt lat="46.31487" lon="-0.60462">
        <ele>5</ele>
        <time>2020-05-31T13:15:28Z</time>
      </trkpt>
      <trkpt lat="46.31487" lon="-0.60462">
        <ele>5</ele>
        <time>2020-05-31T13:15:29Z</time>
      </trkpt>
      <trkpt lat="46.31487" lon="-0.60463">
        <ele>5</ele>
        <time>2020-05-31T13:15:30Z</time>
      </trkpt>
      <trkpt lat="46.31486" lon="-0.60464">
        <ele>5</ele>
        <time>2020-05-31T13:15:31Z</time>
      </trkpt>
      <trkpt lat="46.31486" lon="-0.60464">
        <ele>5</ele>
        <time>2020-05-31T13:15:32Z</time>
      </trkpt>
      <trkpt lat="46.31486" lon="-0.60464">
        <ele>5</ele>
        <time>2020-05-31T13:15:33Z</time>
      </trkpt>
      <trkpt lat="46.31486" lon="-0.60464">
        <ele>5</ele>
        <time>2020-05-31T13:15:34Z</time>
      </trkpt>
      <trkpt lat="46.31486" lon="-0.60464">
        <ele>5</ele>
        <time>2020-05-31T13:15:35Z</time>
      </trkpt>
      <trkpt lat="46.31486" lon="-0.60464">
        <ele>5</ele>
        <time>2020-05-31T13:15:36Z</time>
      </trkpt>
      <trkpt lat="46.31486" lon="-0.60464">
        <ele>5</ele>
        <time>2020-05-31T13:15:37Z</time>
      </trkpt>
      <trkpt lat="46.31486" lon="-0.60464">
        <ele>5</ele>
        <time>2020-05-31T13:15:38Z</time>
      </trkpt>
      <trkpt lat="46.31486" lon="-0.60464">
        <ele>5</ele>
        <time>2020-05-31T13:15:39Z</time>
      </trkpt>
      <trkpt lat="46.31486" lon="-0.60464">
        <ele>5</ele>
        <time>2020-05-31T13:15:40Z</time>
      </trkpt>
      <trkpt lat="46.31486" lon="-0.60464">
        <ele>5</ele>
        <time>2020-05-31T13:15:41Z</time>
      </trkpt>
      <trkpt lat="46.31486" lon="-0.60464">
        <ele>5</ele>
        <time>2020-05-31T13:15:42Z</time>
      </trkpt>
      <trkpt lat="46.31486" lon="-0.60464">
        <ele>5</ele>
        <time>2020-05-31T13:15:43Z</time>
      </trkpt>
      <trkpt lat="46.31486" lon="-0.60464">
        <ele>5</ele>
        <time>2020-05-31T13:15:44Z</time>
      </trkpt>
      <trkpt lat="46.31486" lon="-0.60464">
        <ele>5</ele>
        <time>2020-05-31T13:15:45Z</time>
      </trkpt>
      <trkpt lat="46.31486" lon="-0.60464">
        <ele>5</ele>
        <time>2020-05-31T13:15:46Z</time>
      </trkpt>
      <trkpt lat="46.31486" lon="-0.60464">
        <ele>5</ele>
        <time>2020-05-31T13:15:47Z</time>
      </trkpt>
      <trkpt lat="46.31486" lon="-0.60464">
        <ele>5</ele>
        <time>2020-05-31T13:15:48Z</time>
      </trkpt>
      <trkpt lat="46.31486" lon="-0.60464">
        <ele>5</ele>
        <time>2020-05-31T13:15:49Z</time>
      </trkpt>
      <trkpt lat="46.31486" lon="-0.60464">
        <ele>5</ele>
        <time>2020-05-31T13:15:50Z</time>
      </trkpt>
      <trkpt lat="46.31485" lon="-0.60465">
        <ele>5</ele>
        <time>2020-05-31T13:15:51Z</time>
      </trkpt>
      <trkpt lat="46.31485" lon="-0.60465">
        <ele>5</ele>
        <time>2020-05-31T13:15:52Z</time>
      </trkpt>
      <trkpt lat="46.31485" lon="-0.60464">
        <ele>5</ele>
        <time>2020-05-31T13:15:53Z</time>
      </trkpt>
      <trkpt lat="46.31485" lon="-0.60464">
        <ele>5</ele>
        <time>2020-05-31T13:15:54Z</time>
      </trkpt>
      <trkpt lat="46.31485" lon="-0.60464">
        <ele>5</ele>
        <time>2020-05-31T13:15:55Z</time>
      </trkpt>
      <trkpt lat="46.31486" lon="-0.60464">
        <ele>5</ele>
        <time>2020-05-31T13:15:56Z</time>
      </trkpt>
      <trkpt lat="46.31486" lon="-0.60464">
        <ele>5</ele>
        <time>2020-05-31T13:15:57Z</time>
      </trkpt>
      <trkpt lat="46.31486" lon="-0.60463">
        <ele>5</ele>
        <time>2020-05-31T13:15:58Z</time>
      </trkpt>
      <trkpt lat="46.31486" lon="-0.60463">
        <ele>5</ele>
        <time>2020-05-31T13:15:59Z</time>
      </trkpt>
      <trkpt lat="46.31486" lon="-0.60462">
        <ele>5</ele>
        <time>2020-05-31T13:16:00Z</time>
      </trkpt>
      <trkpt lat="46.31486" lon="-0.60463">
        <ele>5</ele>
        <time>2020-05-31T13:16:01Z</time>
      </trkpt>
      <trkpt lat="46.31486" lon="-0.60462">
        <ele>5</ele>
        <time>2020-05-31T13:16:02Z</time>
      </trkpt>
      <trkpt lat="46.31486" lon="-0.60462">
        <ele>5</ele>
        <time>2020-05-31T13:16:03Z</time>
      </trkpt>
      <trkpt lat="46.31487" lon="-0.60462">
        <ele>5</ele>
        <time>2020-05-31T13:16:04Z</time>
      </trkpt>
      <trkpt lat="46.31487" lon="-0.60462">
        <ele>5</ele>
        <time>2020-05-31T13:16:05Z</time>
      </trkpt>
      <trkpt lat="46.31486" lon="-0.60462">
        <ele>5</ele>
        <time>2020-05-31T13:16:06Z</time>
      </trkpt>
      <trkpt lat="46.31487" lon="-0.60462">
        <ele>5</ele>
        <time>2020-05-31T13:16:07Z</time>
      </trkpt>
      <trkpt lat="46.31486" lon="-0.60462">
        <ele>5</ele>
        <time>2020-05-31T13:16:08Z</time>
      </trkpt>
      <trkpt lat="46.31486" lon="-0.60461">
        <ele>5</ele>
        <time>2020-05-31T13:16:09Z</time>
      </trkpt>
      <trkpt lat="46.31486" lon="-0.60461">
        <ele>5</ele>
        <time>2020-05-31T13:16:10Z</time>
      </trkpt>
      <trkpt lat="46.31487" lon="-0.6046">
        <ele>5</ele>
        <time>2020-05-31T13:16:11Z</time>
      </trkpt>
      <trkpt lat="46.31487" lon="-0.6046">
        <ele>5</ele>
        <time>2020-05-31T13:16:12Z</time>
      </trkpt>
      <trkpt lat="46.31487" lon="-0.60459">
        <ele>5</ele>
        <time>2020-05-31T13:16:13Z</time>
      </trkpt>
      <trkpt lat="46.31489" lon="-0.60458">
        <ele>5</ele>
        <time>2020-05-31T13:16:14Z</time>
      </trkpt>
      <trkpt lat="46.3149" lon="-0.60457">
        <ele>5</ele>
        <time>2020-05-31T13:16:15Z</time>
      </trkpt>
      <trkpt lat="46.31491" lon="-0.60457">
        <ele>5</ele>
        <time>2020-05-31T13:16:16Z</time>
      </trkpt>
      <trkpt lat="46.31494" lon="-0.60456">
        <ele>5</ele>
        <time>2020-05-31T13:16:17Z</time>
      </trkpt>
      <trkpt lat="46.31496" lon="-0.60455">
        <ele>5</ele>
        <time>2020-05-31T13:16:18Z</time>
      </trkpt>
      <trkpt lat="46.31496" lon="-0.60456">
        <ele>5</ele>
        <time>2020-05-31T13:16:19Z</time>
      </trkpt>
      <trkpt lat="46.31496" lon="-0.60456">
        <ele>5</ele>
        <time>2020-05-31T13:16:20Z</time>
      </trkpt>
      <trkpt lat="46.31497" lon="-0.60456">
        <ele>5</ele>
        <time>2020-05-31T13:16:21Z</time>
      </trkpt>
      <trkpt lat="46.31497" lon="-0.60457">
        <ele>5</ele>
        <time>2020-05-31T13:16:22Z</time>
      </trkpt>
      <trkpt lat="46.31498" lon="-0.60457">
        <ele>5</ele>
        <time>2020-05-31T13:16:23Z</time>
      </trkpt>
      <trkpt lat="46.31498" lon="-0.60457">
        <ele>5</ele>
        <time>2020-05-31T13:16:24Z</time>
      </trkpt>
      <trkpt lat="46.31499" lon="-0.60458">
        <ele>5</ele>
        <time>2020-05-31T13:16:25Z</time>
      </trkpt>
      <trkpt lat="46.31499" lon="-0.60458">
        <ele>5</ele>
        <time>2020-05-31T13:16:26Z</time>
      </trkpt>
      <trkpt lat="46.315" lon="-0.60458">
        <ele>5</ele>
        <time>2020-05-31T13:16:27Z</time>
      </trkpt>
      <trkpt lat="46.315" lon="-0.60459">
        <ele>5</ele>
        <time>2020-05-31T13:16:28Z</time>
      </trkpt>
      <trkpt lat="46.31501" lon="-0.60459">
        <ele>5</ele>
        <time>2020-05-31T13:16:29Z</time>
      </trkpt>
      <trkpt lat="46.31501" lon="-0.60459">
        <ele>5</ele>
        <time>2020-05-31T13:16:30Z</time>
      </trkpt>
      <trkpt lat="46.31501" lon="-0.6046">
        <ele>5</ele>
        <time>2020-05-31T13:16:31Z</time>
      </trkpt>
      <trkpt lat="46.31502" lon="-0.6046">
        <ele>5</ele>
        <time>2020-05-31T13:16:32Z</time>
      </trkpt>
      <trkpt lat="46.31502" lon="-0.6046">
        <ele>5</ele>
        <time>2020-05-31T13:16:33Z</time>
      </trkpt>
      <trkpt lat="46.31503" lon="-0.60461">
        <ele>5</ele>
        <time>2020-05-31T13:16:34Z</time>
      </trkpt>
      <trkpt lat="46.31503" lon="-0.60461">
        <ele>5</ele>
        <time>2020-05-31T13:16:35Z</time>
      </trkpt>
      <trkpt lat="46.31504" lon="-0.60461">
        <ele>5</ele>
        <time>2020-05-31T13:16:36Z</time>
      </trkpt>
      <trkpt lat="46.31504" lon="-0.60462">
        <ele>5</ele>
        <time>2020-05-31T13:16:37Z</time>
      </trkpt>
      <trkpt lat="46.31505" lon="-0.60462">
        <ele>5</ele>
        <time>2020-05-31T13:16:38Z</time>
      </trkpt>
      <trkpt lat="46.31505" lon="-0.60462">
        <ele>5</ele>
        <time>2020-05-31T13:16:39Z</time>
      </trkpt>
      <trkpt lat="46.31506" lon="-0.60463">
        <ele>5</ele>
        <time>2020-05-31T13:16:40Z</time>
      </trkpt>
      <trkpt lat="46.31506" lon="-0.60463">
        <ele>5</ele>
        <time>2020-05-31T13:16:41Z</time>
      </trkpt>
      <trkpt lat="46.31506" lon="-0.60463">
        <ele>5</ele>
        <time>2020-05-31T13:16:42Z</time>
      </trkpt>
      <trkpt lat="46.31507" lon="-0.60464">
        <ele>5</ele>
        <time>2020-05-31T13:16:43Z</time>
      </trkpt>
      <trkpt lat="46.31507" lon="-0.60464">
        <ele>5</ele>
        <time>2020-05-31T13:16:44Z</time>
      </trkpt>
      <trkpt lat="46.31508" lon="-0.60464">
        <ele>5</ele>
        <time>2020-05-31T13:16:45Z</time>
      </trkpt>
      <trkpt lat="46.31508" lon="-0.60465">
        <ele>5</ele>
        <time>2020-05-31T13:16:46Z</time>
      </trkpt>
      <trkpt lat="46.31509" lon="-0.60465">
        <ele>5</ele>
        <time>2020-05-31T13:16:47Z</time>
      </trkpt>
      <trkpt lat="46.31509" lon="-0.60465">
        <ele>5</ele>
        <time>2020-05-31T13:16:48Z</time>
      </trkpt>
      <trkpt lat="46.3151" lon="-0.60466">
        <ele>5</ele>
        <time>2020-05-31T13:16:49Z</time>
      </trkpt>
      <trkpt lat="46.3151" lon="-0.60466">
        <ele>5</ele>
        <time>2020-05-31T13:16:50Z</time>
      </trkpt>
      <trkpt lat="46.31511" lon="-0.60466">
        <ele>5</ele>
        <time>2020-05-31T13:16:51Z</time>
      </trkpt>
      <trkpt lat="46.31511" lon="-0.60467">
        <ele>5</ele>
        <time>2020-05-31T13:16:52Z</time>
      </trkpt>
      <trkpt lat="46.31511" lon="-0.60467">
        <ele>5.1</ele>
        <time>2020-05-31T13:16:53Z</time>
      </trkpt>
      <trkpt lat="46.31512" lon="-0.60467">
        <ele>5.1</ele>
        <time>2020-05-31T13:16:54Z</time>
      </trkpt>
      <trkpt lat="46.31512" lon="-0.60467">
        <ele>5.1</ele>
        <time>2020-05-31T13:16:55Z</time>
      </trkpt>
      <trkpt lat="46.31513" lon="-0.60468">
        <ele>5.1</ele>
        <time>2020-05-31T13:16:56Z</time>
      </trkpt>
      <trkpt lat="46.31513" lon="-0.60468">
        <ele>5.1</ele>
        <time>2020-05-31T13:16:57Z</time>
      </trkpt>
      <trkpt lat="46.31514" lon="-0.60468">
        <ele>5.1</ele>
        <time>2020-05-31T13:16:58Z</time>
      </trkpt>
      <trkpt lat="46.31514" lon="-0.60469">
        <ele>5.1</ele>
        <time>2020-05-31T13:16:59Z</time>
      </trkpt>
      <trkpt lat="46.31515" lon="-0.60469">
        <ele>5.1</ele>
        <time>2020-05-31T13:17:00Z</time>
      </trkpt>
      <trkpt lat="46.31515" lon="-0.60469">
        <ele>5.1</ele>
        <time>2020-05-31T13:17:01Z</time>
      </trkpt>
      <trkpt lat="46.31516" lon="-0.6047">
        <ele>5.1</ele>
        <time>2020-05-31T13:17:02Z</time>
      </trkpt>
      <trkpt lat="46.31516" lon="-0.6047">
        <ele>5.1</ele>
        <time>2020-05-31T13:17:03Z</time>
      </trkpt>
      <trkpt lat="46.31516" lon="-0.6047">
        <ele>5.1</ele>
        <time>2020-05-31T13:17:04Z</time>
      </trkpt>
      <trkpt lat="46.31517" lon="-0.60471">
        <ele>5.1</ele>
        <time>2020-05-31T13:17:05Z</time>
      </trkpt>
      <trkpt lat="46.31517" lon="-0.60471">
        <ele>5.1</ele>
        <time>2020-05-31T13:17:06Z</time>
      </trkpt>
      <trkpt lat="46.31518" lon="-0.60471">
        <ele>5.1</ele>
        <time>2020-05-31T13:17:07Z</time>
      </trkpt>
      <trkpt lat="46.31518" lon="-0.60472">
        <ele>5.1</ele>
        <time>2020-05-31T13:17:08Z</time>
      </trkpt>
      <trkpt lat="46.31519" lon="-0.60472">
        <ele>5.1</ele>
        <time>2020-05-31T13:17:09Z</time>
      </trkpt>
      <trkpt lat="46.31519" lon="-0.60472">
        <ele>5.1</ele>
        <time>2020-05-31T13:17:10Z</time>
      </trkpt>
      <trkpt lat="46.3152" lon="-0.60473">
        <ele>5.1</ele>
        <time>2020-05-31T13:17:11Z</time>
      </trkpt>
      <trkpt lat="46.3152" lon="-0.60473">
        <ele>5.1</ele>
        <time>2020-05-31T13:17:12Z</time>
      </trkpt>
      <trkpt lat="46.31521" lon="-0.60473">
        <ele>5.1</ele>
        <time>2020-05-31T13:17:13Z</time>
      </trkpt>
      <trkpt lat="46.31516" lon="-0.6047">
        <ele>5.1</ele>
        <time>2020-05-31T13:17:14Z</time>
      </trkpt>
      <trkpt lat="46.31513" lon="-0.60467">
        <ele>5.1</ele>
        <time>2020-05-31T13:17:15Z</time>
      </trkpt>
      <trkpt lat="46.31512" lon="-0.60466">
        <ele>5.1</ele>
        <time>2020-05-31T13:17:16Z</time>
      </trkpt>
      <trkpt lat="46.3151" lon="-0.60465">
        <ele>5.1</ele>
        <time>2020-05-31T13:17:17Z</time>
      </trkpt>
      <trkpt lat="46.31509" lon="-0.60464">
        <ele>5.1</ele>
        <time>2020-05-31T13:17:18Z</time>
      </trkpt>
      <trkpt lat="46.31509" lon="-0.60465">
        <ele>5.1</ele>
        <time>2020-05-31T13:17:19Z</time>
      </trkpt>
      <trkpt lat="46.31508" lon="-0.60465">
        <ele>5.1</ele>
        <time>2020-05-31T13:17:20Z</time>
      </trkpt>
      <trkpt lat="46.31509" lon="-0.60466">
        <ele>5.1</ele>
        <time>2020-05-31T13:17:21Z</time>
      </trkpt>
      <trkpt lat="46.31508" lon="-0.60465">
        <ele>5.1</ele>
        <time>2020-05-31T13:17:22Z</time>
      </trkpt>
      <trkpt lat="46.31509" lon="-0.60465">
        <ele>5.1</ele>
        <time>2020-05-31T13:17:23Z</time>
      </trkpt>
      <trkpt lat="46.31509" lon="-0.60465">
        <ele>5.1</ele>
        <time>2020-05-31T13:17:24Z</time>
      </trkpt>
      <trkpt lat="46.31509" lon="-0.60465">
        <ele>5.1</ele>
        <time>2020-05-31T13:17:25Z</time>
      </trkpt>
      <trkpt lat="46.3151" lon="-0.60465">
        <ele>5.1</ele>
        <time>2020-05-31T13:17:26Z</time>
      </trkpt>
      <trkpt lat="46.31512" lon="-0.60465">
        <ele>5.1</ele>
        <time>2020-05-31T13:17:27Z</time>
      </trkpt>
      <trkpt lat="46.31513" lon="-0.60466">
        <ele>5.1</ele>
        <time>2020-05-31T13:17:28Z</time>
      </trkpt>
      <trkpt lat="46.31513" lon="-0.60467">
        <ele>5.1</ele>
        <time>2020-05-31T13:17:29Z</time>
      </trkpt>
      <trkpt lat="46.31515" lon="-0.60469">
        <ele>5.1</ele>
        <time>2020-05-31T13:17:30Z</time>
      </trkpt>
      <trkpt lat="46.31514" lon="-0.60469">
        <ele>5.1</ele>
        <time>2020-05-31T13:17:31Z</time>
      </trkpt>
      <trkpt lat="46.31514" lon="-0.60468">
        <ele>5.1</ele>
        <time>2020-05-31T13:17:32Z</time>
      </trkpt>
      <trkpt lat="46.31513" lon="-0.60466">
        <ele>5.1</ele>
        <time>2020-05-31T13:17:33Z</time>
      </trkpt>
      <trkpt lat="46.31511" lon="-0.60464">
        <ele>5.1</ele>
        <time>2020-05-31T13:17:34Z</time>
      </trkpt>
      <trkpt lat="46.31511" lon="-0.60464">
        <ele>5.1</ele>
        <time>2020-05-31T13:17:35Z</time>
      </trkpt>
      <trkpt lat="46.3151" lon="-0.60463">
        <ele>5.1</ele>
        <time>2020-05-31T13:17:36Z</time>
      </trkpt>
      <trkpt lat="46.31509" lon="-0.60463">
        <ele>5.1</ele>
        <time>2020-05-31T13:17:37Z</time>
      </trkpt>
      <trkpt lat="46.31507" lon="-0.60463">
        <ele>5.1</ele>
        <time>2020-05-31T13:17:38Z</time>
      </trkpt>
      <trkpt lat="46.31505" lon="-0.60463">
        <ele>5.1</ele>
        <time>2020-05-31T13:17:39Z</time>
      </trkpt>
      <trkpt lat="46.31504" lon="-0.60463">
        <ele>5.1</ele>
        <time>2020-05-31T13:17:40Z</time>
      </trkpt>
      <trkpt lat="46.31504" lon="-0.60463">
        <ele>5.1</ele>
        <time>2020-05-31T13:17:41Z</time>
      </trkpt>
      <trkpt lat="46.31504" lon="-0.60463">
        <ele>5.1</ele>
        <time>2020-05-31T13:17:42Z</time>
      </trkpt>
      <trkpt lat="46.31504" lon="-0.60462">
        <ele>5.1</ele>
        <time>2020-05-31T13:17:43Z</time>
      </trkpt>
      <trkpt lat="46.31504" lon="-0.60462">
        <ele>5.1</ele>
        <time>2020-05-31T13:17:44Z</time>
      </trkpt>
      <trkpt lat="46.31504" lon="-0.60462">
        <ele>5.1</ele>
        <time>2020-05-31T13:17:45Z</time>
      </trkpt>
      <trkpt lat="46.31503" lon="-0.60462">
        <ele>5.1</ele>
        <time>2020-05-31T13:17:46Z</time>
      </trkpt>
      <trkpt lat="46.31503" lon="-0.60462">
        <ele>5.1</ele>
        <time>2020-05-31T13:17:47Z</time>
      </trkpt>
      <trkpt lat="46.31503" lon="-0.60461">
        <ele>5</ele>
        <time>2020-05-31T13:17:48Z</time>
      </trkpt>
      <trkpt lat="46.31503" lon="-0.60461">
        <ele>5</ele>
        <time>2020-05-31T13:17:49Z</time>
      </trkpt>
      <trkpt lat="46.31503" lon="-0.60461">
        <ele>5</ele>
        <time>2020-05-31T13:17:50Z</time>
      </trkpt>
      <trkpt lat="46.31502" lon="-0.60461">
        <ele>5</ele>
        <time>2020-05-31T13:17:51Z</time>
      </trkpt>
      <trkpt lat="46.31502" lon="-0.60462">
        <ele>5</ele>
        <time>2020-05-31T13:17:52Z</time>
      </trkpt>
      <trkpt lat="46.31502" lon="-0.60463">
        <ele>5</ele>
        <time>2020-05-31T13:17:53Z</time>
      </trkpt>
      <trkpt lat="46.31501" lon="-0.60463">
        <ele>5</ele>
        <time>2020-05-31T13:17:54Z</time>
      </trkpt>
      <trkpt lat="46.31501" lon="-0.60464">
        <ele>5</ele>
        <time>2020-05-31T13:17:55Z</time>
      </trkpt>
      <trkpt lat="46.31501" lon="-0.60464">
        <ele>5</ele>
        <time>2020-05-31T13:17:56Z</time>
      </trkpt>
      <trkpt lat="46.31501" lon="-0.60464">
        <ele>5</ele>
        <time>2020-05-31T13:17:57Z</time>
      </trkpt>
      <trkpt lat="46.31501" lon="-0.60464">
        <ele>5</ele>
        <time>2020-05-31T13:17:58Z</time>
      </trkpt>
      <trkpt lat="46.31501" lon="-0.60464">
        <ele>5</ele>
        <time>2020-05-31T13:17:59Z</time>
      </trkpt>
      <trkpt lat="46.31501" lon="-0.60464">
        <ele>5</ele>
        <time>2020-05-31T13:18:00Z</time>
      </trkpt>
      <trkpt lat="46.31501" lon="-0.60464">
        <ele>5</ele>
        <time>2020-05-31T13:18:01Z</time>
      </trkpt>
      <trkpt lat="46.31501" lon="-0.60464">
        <ele>5</ele>
        <time>2020-05-31T13:18:02Z</time>
      </trkpt>
      <trkpt lat="46.31501" lon="-0.60464">
        <ele>5</ele>
        <time>2020-05-31T13:18:03Z</time>
      </trkpt>
      <trkpt lat="46.31501" lon="-0.60464">
        <ele>5</ele>
        <time>2020-05-31T13:18:04Z</time>
      </trkpt>
      <trkpt lat="46.31501" lon="-0.60464">
        <ele>5</ele>
        <time>2020-05-31T13:18:05Z</time>
      </trkpt>
      <trkpt lat="46.315" lon="-0.60463">
        <ele>5</ele>
        <time>2020-05-31T13:18:06Z</time>
      </trkpt>
      <trkpt lat="46.315" lon="-0.60464">
        <ele>5</ele>
        <time>2020-05-31T13:18:07Z</time>
      </trkpt>
      <trkpt lat="46.315" lon="-0.60464">
        <ele>5</ele>
        <time>2020-05-31T13:18:08Z</time>
      </trkpt>
      <trkpt lat="46.31501" lon="-0.60464">
        <ele>5</ele>
        <time>2020-05-31T13:18:09Z</time>
      </trkpt>
      <trkpt lat="46.315" lon="-0.60464">
        <ele>5</ele>
        <time>2020-05-31T13:18:10Z</time>
      </trkpt>
      <trkpt lat="46.31501" lon="-0.60465">
        <ele>5</ele>
        <time>2020-05-31T13:18:11Z</time>
      </trkpt>
      <trkpt lat="46.315" lon="-0.60465">
        <ele>5</ele>
        <time>2020-05-31T13:18:12Z</time>
      </trkpt>
      <trkpt lat="46.315" lon="-0.60465">
        <ele>5</ele>
        <time>2020-05-31T13:18:13Z</time>
      </trkpt>
      <trkpt lat="46.315" lon="-0.60465">
        <ele>5</ele>
        <time>2020-05-31T13:18:14Z</time>
      </trkpt>
      <trkpt lat="46.315" lon="-0.60465">
        <ele>5</ele>
        <time>2020-05-31T13:18:15Z</time>
      </trkpt>
      <trkpt lat="46.31499" lon="-0.60464">
        <ele>5</ele>
        <time>2020-05-31T13:18:16Z</time>
      </trkpt>
      <trkpt lat="46.31498" lon="-0.60464">
        <ele>5</ele>
        <time>2020-05-31T13:18:17Z</time>
      </trkpt>
      <trkpt lat="46.31498" lon="-0.60463">
        <ele>5</ele>
        <time>2020-05-31T13:18:18Z</time>
      </trkpt>
      <trkpt lat="46.31497" lon="-0.60463">
        <ele>5</ele>
        <time>2020-05-31T13:18:19Z</time>
      </trkpt>
      <trkpt lat="46.31497" lon="-0.60463">
        <ele>5</ele>
        <time>2020-05-31T13:18:20Z</time>
      </trkpt>
      <trkpt lat="46.31496" lon="-0.60462">
        <ele>4.9</ele>
        <time>2020-05-31T13:18:21Z</time>
      </trkpt>
      <trkpt lat="46.31496" lon="-0.60462">
        <ele>4.9</ele>
        <time>2020-05-31T13:18:22Z</time>
      </trkpt>
      <trkpt lat="46.31496" lon="-0.60462">
        <ele>4.9</ele>
        <time>2020-05-31T13:18:23Z</time>
      </trkpt>
      <trkpt lat="46.31496" lon="-0.60462">
        <ele>4.9</ele>
        <time>2020-05-31T13:18:24Z</time>
      </trkpt>
      <trkpt lat="46.31496" lon="-0.60463">
        <ele>4.9</ele>
        <time>2020-05-31T13:18:25Z</time>
      </trkpt>
      <trkpt lat="46.31496" lon="-0.60463">
        <ele>4.9</ele>
        <time>2020-05-31T13:18:26Z</time>
      </trkpt>
      <trkpt lat="46.31496" lon="-0.60464">
        <ele>4.9</ele>
        <time>2020-05-31T13:18:27Z</time>
      </trkpt>
      <trkpt lat="46.31496" lon="-0.60463">
        <ele>4.9</ele>
        <time>2020-05-31T13:18:28Z</time>
      </trkpt>
      <trkpt lat="46.31495" lon="-0.60463">
        <ele>4.9</ele>
        <time>2020-05-31T13:18:29Z</time>
      </trkpt>
      <trkpt lat="46.31495" lon="-0.60463">
        <ele>4.9</ele>
        <time>2020-05-31T13:18:30Z</time>
      </trkpt>
      <trkpt lat="46.31495" lon="-0.60463">
        <ele>4.9</ele>
        <time>2020-05-31T13:18:31Z</time>
      </trkpt>
      <trkpt lat="46.31494" lon="-0.60463">
        <ele>4.9</ele>
        <time>2020-05-31T13:18:32Z</time>
      </trkpt>
      <trkpt lat="46.31494" lon="-0.60463">
        <ele>4.9</ele>
        <time>2020-05-31T13:18:33Z</time>
      </trkpt>
      <trkpt lat="46.31492" lon="-0.60462">
        <ele>4.9</ele>
        <time>2020-05-31T13:18:34Z</time>
      </trkpt>
      <trkpt lat="46.31491" lon="-0.60461">
        <ele>4.9</ele>
        <time>2020-05-31T13:18:35Z</time>
      </trkpt>
      <trkpt lat="46.31491" lon="-0.60461">
        <ele>4.9</ele>
        <time>2020-05-31T13:18:36Z</time>
      </trkpt>
      <trkpt lat="46.31491" lon="-0.60461">
        <ele>4.9</ele>
        <time>2020-05-31T13:18:37Z</time>
      </trkpt>
      <trkpt lat="46.31491" lon="-0.60461">
        <ele>4.9</ele>
        <time>2020-05-31T13:18:38Z</time>
      </trkpt>
      <trkpt lat="46.31491" lon="-0.60461">
        <ele>4.9</ele>
        <time>2020-05-31T13:18:39Z</time>
      </trkpt>
      <trkpt lat="46.31491" lon="-0.60461">
        <ele>4.9</ele>
        <time>2020-05-31T13:18:40Z</time>
      </trkpt>
      <trkpt lat="46.31491" lon="-0.60461">
        <ele>4.9</ele>
        <time>2020-05-31T13:18:41Z</time>
      </trkpt>
      <trkpt lat="46.31491" lon="-0.60461">
        <ele>4.9</ele>
        <time>2020-05-31T13:18:42Z</time>
      </trkpt>
      <trkpt lat="46.31491" lon="-0.60461">
        <ele>4.9</ele>
        <time>2020-05-31T13:18:43Z</time>
      </trkpt>
      <trkpt lat="46.31491" lon="-0.60462">
        <ele>4.9</ele>
        <time>2020-05-31T13:18:44Z</time>
      </trkpt>
      <trkpt lat="46.31491" lon="-0.60462">
        <ele>4.9</ele>
        <time>2020-05-31T13:18:45Z</time>
      </trkpt>
      <trkpt lat="46.31491" lon="-0.60462">
        <ele>4.9</ele>
        <time>2020-05-31T13:18:46Z</time>
      </trkpt>
      <trkpt lat="46.3149" lon="-0.60463">
        <ele>4.9</ele>
        <time>2020-05-31T13:18:47Z</time>
      </trkpt>
      <trkpt lat="46.3149" lon="-0.60464">
        <ele>4.9</ele>
        <time>2020-05-31T13:18:48Z</time>
      </trkpt>
      <trkpt lat="46.3149" lon="-0.60463">
        <ele>4.9</ele>
        <time>2020-05-31T13:18:49Z</time>
      </trkpt>
      <trkpt lat="46.3149" lon="-0.60464">
        <ele>4.9</ele>
        <time>2020-05-31T13:18:51Z</time>
      </trkpt>
      <trkpt lat="46.3149" lon="-0.60464">
        <ele>4.9</ele>
        <time>2020-05-31T13:18:52Z</time>
      </trkpt>
      <trkpt lat="46.31491" lon="-0.60465">
        <ele>4.9</ele>
        <time>2020-05-31T13:18:53Z</time>
      </trkpt>
      <trkpt lat="46.31491" lon="-0.60465">
        <ele>4.9</ele>
        <time>2020-05-31T13:18:54Z</time>
      </trkpt>
      <trkpt lat="46.31491" lon="-0.60464">
        <ele>4.9</ele>
        <time>2020-05-31T13:18:55Z</time>
      </trkpt>
      <trkpt lat="46.31491" lon="-0.60464">
        <ele>4.8</ele>
        <time>2020-05-31T13:18:56Z</time>
      </trkpt>
      <trkpt lat="46.31491" lon="-0.60464">
        <ele>4.8</ele>
        <time>2020-05-31T13:18:57Z</time>
      </trkpt>
      <trkpt lat="46.31492" lon="-0.60464">
        <ele>4.8</ele>
        <time>2020-05-31T13:18:58Z</time>
      </trkpt>
      <trkpt lat="46.31492" lon="-0.60464">
        <ele>4.8</ele>
        <time>2020-05-31T13:18:59Z</time>
      </trkpt>
      <trkpt lat="46.31492" lon="-0.60464">
        <ele>4.8</ele>
        <time>2020-05-31T13:19:00Z</time>
      </trkpt>
      <trkpt lat="46.31492" lon="-0.60464">
        <ele>4.8</ele>
        <time>2020-05-31T13:19:01Z</time>
      </trkpt>
      <trkpt lat="46.31492" lon="-0.60464">
        <ele>4.8</ele>
        <time>2020-05-31T13:19:02Z</time>
      </trkpt>
      <trkpt lat="46.31492" lon="-0.60464">
        <ele>4.8</ele>
        <time>2020-05-31T13:19:03Z</time>
      </trkpt>
      <trkpt lat="46.31492" lon="-0.60464">
        <ele>4.8</ele>
        <time>2020-05-31T13:19:04Z</time>
      </trkpt>
      <trkpt lat="46.31492" lon="-0.60464">
        <ele>4.8</ele>
        <time>2020-05-31T13:19:05Z</time>
      </trkpt>
      <trkpt lat="46.31492" lon="-0.60464">
        <ele>4.8</ele>
        <time>2020-05-31T13:19:06Z</time>
      </trkpt>
      <trkpt lat="46.31492" lon="-0.60464">
        <ele>4.8</ele>
        <time>2020-05-31T13:19:07Z</time>
      </trkpt>
      <trkpt lat="46.31492" lon="-0.60464">
        <ele>4.8</ele>
        <time>2020-05-31T13:19:08Z</time>
      </trkpt>
      <trkpt lat="46.31492" lon="-0.60464">
        <ele>4.8</ele>
        <time>2020-05-31T13:19:09Z</time>
      </trkpt>
      <trkpt lat="46.31492" lon="-0.60464">
        <ele>4.8</ele>
        <time>2020-05-31T13:19:10Z</time>
      </trkpt>
      <trkpt lat="46.31492" lon="-0.60464">
        <ele>4.8</ele>
        <time>2020-05-31T13:19:11Z</time>
      </trkpt>
      <trkpt lat="46.31492" lon="-0.60464">
        <ele>4.8</ele>
        <time>2020-05-31T13:19:12Z</time>
      </trkpt>
      <trkpt lat="46.31492" lon="-0.60464">
        <ele>4.8</ele>
        <time>2020-05-31T13:19:13Z</time>
      </trkpt>
      <trkpt lat="46.31492" lon="-0.60464">
        <ele>4.8</ele>
        <time>2020-05-31T13:19:14Z</time>
      </trkpt>
      <trkpt lat="46.31493" lon="-0.60464">
        <ele>4.8</ele>
        <time>2020-05-31T13:19:15Z</time>
      </trkpt>
      <trkpt lat="46.31493" lon="-0.60464">
        <ele>4.8</ele>
        <time>2020-05-31T13:19:16Z</time>
      </trkpt>
      <trkpt lat="46.31493" lon="-0.60465">
        <ele>4.8</ele>
        <time>2020-05-31T13:19:17Z</time>
      </trkpt>
      <trkpt lat="46.31494" lon="-0.60465">
        <ele>4.8</ele>
        <time>2020-05-31T13:19:18Z</time>
      </trkpt>
      <trkpt lat="46.31494" lon="-0.60466">
        <ele>4.8</ele>
        <time>2020-05-31T13:19:19Z</time>
      </trkpt>
      <trkpt lat="46.31493" lon="-0.60466">
        <ele>4.8</ele>
        <time>2020-05-31T13:19:20Z</time>
      </trkpt>
      <trkpt lat="46.31493" lon="-0.60465">
        <ele>4.8</ele>
        <time>2020-05-31T13:19:21Z</time>
      </trkpt>
      <trkpt lat="46.31493" lon="-0.60465">
        <ele>4.8</ele>
        <time>2020-05-31T13:19:22Z</time>
      </trkpt>
      <trkpt lat="46.31492" lon="-0.60465">
        <ele>4.8</ele>
        <time>2020-05-31T13:19:23Z</time>
      </trkpt>
      <trkpt lat="46.31492" lon="-0.60465">
        <ele>4.8</ele>
        <time>2020-05-31T13:19:24Z</time>
      </trkpt>
      <trkpt lat="46.31492" lon="-0.60464">
        <ele>4.8</ele>
        <time>2020-05-31T13:19:25Z</time>
      </trkpt>
      <trkpt lat="46.31492" lon="-0.60464">
        <ele>4.8</ele>
        <time>2020-05-31T13:19:26Z</time>
      </trkpt>
      <trkpt lat="46.31491" lon="-0.60465">
        <ele>4.8</ele>
        <time>2020-05-31T13:19:27Z</time>
      </trkpt>
      <trkpt lat="46.31491" lon="-0.60466">
        <ele>4.8</ele>
        <time>2020-05-31T13:19:28Z</time>
      </trkpt>
      <trkpt lat="46.31491" lon="-0.60466">
        <ele>4.8</ele>
        <time>2020-05-31T13:19:29Z</time>
      </trkpt>
      <trkpt lat="46.31491" lon="-0.60467">
        <ele>4.8</ele>
        <time>2020-05-31T13:19:30Z</time>
      </trkpt>
      <trkpt lat="46.31492" lon="-0.60469">
        <ele>4.8</ele>
        <time>2020-05-31T13:19:31Z</time>
      </trkpt>
      <trkpt lat="46.31492" lon="-0.60469">
        <ele>4.8</ele>
        <time>2020-05-31T13:19:32Z</time>
      </trkpt>
      <trkpt lat="46.31491" lon="-0.60469">
        <ele>4.8</ele>
        <time>2020-05-31T13:19:33Z</time>
      </trkpt>
      <trkpt lat="46.31491" lon="-0.60471">
        <ele>4.8</ele>
        <time>2020-05-31T13:19:34Z</time>
      </trkpt>
      <trkpt lat="46.31491" lon="-0.60472">
        <ele>4.8</ele>
        <time>2020-05-31T13:19:35Z</time>
      </trkpt>
      <trkpt lat="46.31491" lon="-0.60472">
        <ele>4.8</ele>
        <time>2020-05-31T13:19:36Z</time>
      </trkpt>
      <trkpt lat="46.31491" lon="-0.60473">
        <ele>4.8</ele>
        <time>2020-05-31T13:19:37Z</time>
      </trkpt>
      <trkpt lat="46.31491" lon="-0.60474">
        <ele>4.8</ele>
        <time>2020-05-31T13:19:38Z</time>
      </trkpt>
      <trkpt lat="46.31491" lon="-0.60476">
        <ele>4.8</ele>
        <time>2020-05-31T13:19:39Z</time>
      </trkpt>
      <trkpt lat="46.31491" lon="-0.60479">
        <ele>4.8</ele>
        <time>2020-05-31T13:19:40Z</time>
      </trkpt>
      <trkpt lat="46.31491" lon="-0.60484">
        <ele>4.8</ele>
        <time>2020-05-31T13:19:41Z</time>
      </trkpt>
      <trkpt lat="46.3149" lon="-0.60487">
        <ele>4.9</ele>
        <time>2020-05-31T13:19:42Z</time>
      </trkpt>
      <trkpt lat="46.3149" lon="-0.60492">
        <ele>4.9</ele>
        <time>2020-05-31T13:19:43Z</time>
      </trkpt>
      <trkpt lat="46.31489" lon="-0.60497">
        <ele>4.9</ele>
        <time>2020-05-31T13:19:44Z</time>
      </trkpt>
      <trkpt lat="46.31488" lon="-0.60502">
        <ele>4.9</ele>
        <time>2020-05-31T13:19:45Z</time>
      </trkpt>
      <trkpt lat="46.31487" lon="-0.60507">
        <ele>4.9</ele>
        <time>2020-05-31T13:19:46Z</time>
      </trkpt>
      <trkpt lat="46.31486" lon="-0.60513">
        <ele>4.9</ele>
        <time>2020-05-31T13:19:47Z</time>
      </trkpt>
      <trkpt lat="46.31485" lon="-0.60519">
        <ele>4.9</ele>
        <time>2020-05-31T13:19:48Z</time>
      </trkpt>
      <trkpt lat="46.31484" lon="-0.60525">
        <ele>4.9</ele>
        <time>2020-05-31T13:19:49Z</time>
      </trkpt>
      <trkpt lat="46.31484" lon="-0.60532">
        <ele>4.9</ele>
        <time>2020-05-31T13:19:50Z</time>
      </trkpt>
      <trkpt lat="46.31483" lon="-0.60538">
        <ele>4.9</ele>
        <time>2020-05-31T13:19:51Z</time>
      </trkpt>
      <trkpt lat="46.31483" lon="-0.60545">
        <ele>5</ele>
        <time>2020-05-31T13:19:52Z</time>
      </trkpt>
      <trkpt lat="46.31482" lon="-0.60551">
        <ele>5</ele>
        <time>2020-05-31T13:19:53Z</time>
      </trkpt>
      <trkpt lat="46.31482" lon="-0.60557">
        <ele>5</ele>
        <time>2020-05-31T13:19:54Z</time>
      </trkpt>
      <trkpt lat="46.31482" lon="-0.60564">
        <ele>5</ele>
        <time>2020-05-31T13:19:55Z</time>
      </trkpt>
      <trkpt lat="46.31481" lon="-0.60571">
        <ele>5</ele>
        <time>2020-05-31T13:19:56Z</time>
      </trkpt>
      <trkpt lat="46.31481" lon="-0.60579">
        <ele>5</ele>
        <time>2020-05-31T13:19:57Z</time>
      </trkpt>
      <trkpt lat="46.3148" lon="-0.60585">
        <ele>5.1</ele>
        <time>2020-05-31T13:19:58Z</time>
      </trkpt>
      <trkpt lat="46.3148" lon="-0.6059">
        <ele>5.1</ele>
        <time>2020-05-31T13:19:59Z</time>
      </trkpt>
      <trkpt lat="46.3148" lon="-0.60597">
        <ele>5.1</ele>
        <time>2020-05-31T13:20:00Z</time>
      </trkpt>
      <trkpt lat="46.3148" lon="-0.60603">
        <ele>5.1</ele>
        <time>2020-05-31T13:20:01Z</time>
      </trkpt>
      <trkpt lat="46.31479" lon="-0.60608">
        <ele>5.1</ele>
        <time>2020-05-31T13:20:02Z</time>
      </trkpt>
      <trkpt lat="46.31479" lon="-0.60613">
        <ele>5.1</ele>
        <time>2020-05-31T13:20:03Z</time>
      </trkpt>
      <trkpt lat="46.31478" lon="-0.60619">
        <ele>5.1</ele>
        <time>2020-05-31T13:20:04Z</time>
      </trkpt>
      <trkpt lat="46.31478" lon="-0.60625">
        <ele>5.1</ele>
        <time>2020-05-31T13:20:05Z</time>
      </trkpt>
      <trkpt lat="46.31478" lon="-0.6063">
        <ele>5.1</ele>
        <time>2020-05-31T13:20:06Z</time>
      </trkpt>
      <trkpt lat="46.31478" lon="-0.60637">
        <ele>5.1</ele>
        <time>2020-05-31T13:20:07Z</time>
      </trkpt>
      <trkpt lat="46.31478" lon="-0.60643">
        <ele>5.1</ele>
        <time>2020-05-31T13:20:08Z</time>
      </trkpt>
      <trkpt lat="46.31477" lon="-0.6065">
        <ele>5.1</ele>
        <time>2020-05-31T13:20:09Z</time>
      </trkpt>
      <trkpt lat="46.31477" lon="-0.60657">
        <ele>5.2</ele>
        <time>2020-05-31T13:20:10Z</time>
      </trkpt>
      <trkpt lat="46.31476" lon="-0.60664">
        <ele>5.2</ele>
        <time>2020-05-31T13:20:11Z</time>
      </trkpt>
      <trkpt lat="46.31476" lon="-0.60671">
        <ele>5.2</ele>
        <time>2020-05-31T13:20:12Z</time>
      </trkpt>
      <trkpt lat="46.31476" lon="-0.6068">
        <ele>5.2</ele>
        <time>2020-05-31T13:20:13Z</time>
      </trkpt>
      <trkpt lat="46.31477" lon="-0.60688">
        <ele>5.2</ele>
        <time>2020-05-31T13:20:14Z</time>
      </trkpt>
      <trkpt lat="46.31477" lon="-0.60697">
        <ele>5.3</ele>
        <time>2020-05-31T13:20:15Z</time>
      </trkpt>
      <trkpt lat="46.31478" lon="-0.60704">
        <ele>5.3</ele>
        <time>2020-05-31T13:20:16Z</time>
      </trkpt>
      <trkpt lat="46.31479" lon="-0.6071">
        <ele>5.3</ele>
        <time>2020-05-31T13:20:17Z</time>
      </trkpt>
      <trkpt lat="46.31479" lon="-0.60718">
        <ele>5.3</ele>
        <time>2020-05-31T13:20:18Z</time>
      </trkpt>
      <trkpt lat="46.3148" lon="-0.60725">
        <ele>5.4</ele>
        <time>2020-05-31T13:20:19Z</time>
      </trkpt>
      <trkpt lat="46.31481" lon="-0.60732">
        <ele>5.4</ele>
        <time>2020-05-31T13:20:20Z</time>
      </trkpt>
      <trkpt lat="46.31483" lon="-0.60738">
        <ele>5.4</ele>
        <time>2020-05-31T13:20:21Z</time>
      </trkpt>
      <trkpt lat="46.31486" lon="-0.60746">
        <ele>5.4</ele>
        <time>2020-05-31T13:20:22Z</time>
      </trkpt>
      <trkpt lat="46.31488" lon="-0.60753">
        <ele>5.4</ele>
        <time>2020-05-31T13:20:23Z</time>
      </trkpt>
      <trkpt lat="46.31489" lon="-0.6076">
        <ele>5.5</ele>
        <time>2020-05-31T13:20:24Z</time>
      </trkpt>
      <trkpt lat="46.31491" lon="-0.60767">
        <ele>5.5</ele>
        <time>2020-05-31T13:20:25Z</time>
      </trkpt>
      <trkpt lat="46.31492" lon="-0.60774">
        <ele>5.5</ele>
        <time>2020-05-31T13:20:26Z</time>
      </trkpt>
      <trkpt lat="46.31494" lon="-0.6078">
        <ele>5.5</ele>
        <time>2020-05-31T13:20:27Z</time>
      </trkpt>
      <trkpt lat="46.31496" lon="-0.60787">
        <ele>5.5</ele>
        <time>2020-05-31T13:20:28Z</time>
      </trkpt>
      <trkpt lat="46.31496" lon="-0.60794">
        <ele>5.5</ele>
        <time>2020-05-31T13:20:29Z</time>
      </trkpt>
      <trkpt lat="46.31497" lon="-0.60801">
        <ele>5.5</ele>
        <time>2020-05-31T13:20:30Z</time>
      </trkpt>
      <trkpt lat="46.31497" lon="-0.60806">
        <ele>5.5</ele>
        <time>2020-05-31T13:20:31Z</time>
      </trkpt>
      <trkpt lat="46.31496" lon="-0.60813">
        <ele>5.5</ele>
        <time>2020-05-31T13:20:32Z</time>
      </trkpt>
      <trkpt lat="46.31496" lon="-0.60819">
        <ele>5.5</ele>
        <time>2020-05-31T13:20:33Z</time>
      </trkpt>
      <trkpt lat="46.31495" lon="-0.60826">
        <ele>5.5</ele>
        <time>2020-05-31T13:20:34Z</time>
      </trkpt>
      <trkpt lat="46.31494" lon="-0.60833">
        <ele>5.5</ele>
        <time>2020-05-31T13:20:35Z</time>
      </trkpt>
      <trkpt lat="46.31492" lon="-0.6084">
        <ele>5.5</ele>
        <time>2020-05-31T13:20:36Z</time>
      </trkpt>
      <trkpt lat="46.3149" lon="-0.60845">
        <ele>5.5</ele>
        <time>2020-05-31T13:20:37Z</time>
      </trkpt>
      <trkpt lat="46.31487" lon="-0.60852">
        <ele>5.5</ele>
        <time>2020-05-31T13:20:38Z</time>
      </trkpt>
      <trkpt lat="46.31486" lon="-0.60857">
        <ele>5.5</ele>
        <time>2020-05-31T13:20:39Z</time>
      </trkpt>
      <trkpt lat="46.31484" lon="-0.60862">
        <ele>5.5</ele>
        <time>2020-05-31T13:20:40Z</time>
      </trkpt>
      <trkpt lat="46.3148" lon="-0.60866">
        <ele>5.5</ele>
        <time>2020-05-31T13:20:41Z</time>
      </trkpt>
      <trkpt lat="46.31477" lon="-0.60871">
        <ele>5.5</ele>
        <time>2020-05-31T13:20:42Z</time>
      </trkpt>
      <trkpt lat="46.31473" lon="-0.60874">
        <ele>5.5</ele>
        <time>2020-05-31T13:20:43Z</time>
      </trkpt>
      <trkpt lat="46.3147" lon="-0.60878">
        <ele>5.5</ele>
        <time>2020-05-31T13:20:44Z</time>
      </trkpt>
      <trkpt lat="46.31466" lon="-0.60882">
        <ele>5.5</ele>
        <time>2020-05-31T13:20:45Z</time>
      </trkpt>
      <trkpt lat="46.31461" lon="-0.60886">
        <ele>5.4</ele>
        <time>2020-05-31T13:20:46Z</time>
      </trkpt>
      <trkpt lat="46.31456" lon="-0.6089">
        <ele>5.4</ele>
        <time>2020-05-31T13:20:47Z</time>
      </trkpt>
      <trkpt lat="46.31452" lon="-0.60893">
        <ele>5.4</ele>
        <time>2020-05-31T13:20:48Z</time>
      </trkpt>
      <trkpt lat="46.31448" lon="-0.60897">
        <ele>5.4</ele>
        <time>2020-05-31T13:20:49Z</time>
      </trkpt>
      <trkpt lat="46.31444" lon="-0.60901">
        <ele>5.3</ele>
        <time>2020-05-31T13:20:50Z</time>
      </trkpt>
      <trkpt lat="46.3144" lon="-0.60905">
        <ele>5.3</ele>
        <time>2020-05-31T13:20:51Z</time>
      </trkpt>
      <trkpt lat="46.31436" lon="-0.60909">
        <ele>5.3</ele>
        <time>2020-05-31T13:20:52Z</time>
      </trkpt>
      <trkpt lat="46.31432" lon="-0.60914">
        <ele>5.2</ele>
        <time>2020-05-31T13:20:53Z</time>
      </trkpt>
      <trkpt lat="46.31428" lon="-0.60918">
        <ele>5.2</ele>
        <time>2020-05-31T13:20:54Z</time>
      </trkpt>
      <trkpt lat="46.31424" lon="-0.60921">
        <ele>5.1</ele>
        <time>2020-05-31T13:20:55Z</time>
      </trkpt>
      <trkpt lat="46.31419" lon="-0.60925">
        <ele>5</ele>
        <time>2020-05-31T13:20:56Z</time>
      </trkpt>
      <trkpt lat="46.31416" lon="-0.60928">
        <ele>5</ele>
        <time>2020-05-31T13:20:57Z</time>
      </trkpt>
      <trkpt lat="46.31412" lon="-0.60932">
        <ele>4.9</ele>
        <time>2020-05-31T13:20:58Z</time>
      </trkpt>
      <trkpt lat="46.31408" lon="-0.60936">
        <ele>4.8</ele>
        <time>2020-05-31T13:20:59Z</time>
      </trkpt>
      <trkpt lat="46.31404" lon="-0.6094">
        <ele>4.7</ele>
        <time>2020-05-31T13:21:00Z</time>
      </trkpt>
      <trkpt lat="46.314" lon="-0.60944">
        <ele>4.7</ele>
        <time>2020-05-31T13:21:01Z</time>
      </trkpt>
      <trkpt lat="46.31395" lon="-0.60948">
        <ele>4.6</ele>
        <time>2020-05-31T13:21:02Z</time>
      </trkpt>
      <trkpt lat="46.31388" lon="-0.60956">
        <ele>4.6</ele>
        <time>2020-05-31T13:21:03Z</time>
      </trkpt>
      <trkpt lat="46.31383" lon="-0.60963">
        <ele>4.5</ele>
        <time>2020-05-31T13:21:04Z</time>
      </trkpt>
      <trkpt lat="46.31377" lon="-0.60969">
        <ele>4.5</ele>
        <time>2020-05-31T13:21:05Z</time>
      </trkpt>
      <trkpt lat="46.31372" lon="-0.60974">
        <ele>4.5</ele>
        <time>2020-05-31T13:21:06Z</time>
      </trkpt>
      <trkpt lat="46.31366" lon="-0.60979">
        <ele>4.5</ele>
        <time>2020-05-31T13:21:07Z</time>
      </trkpt>
      <trkpt lat="46.3136" lon="-0.60983">
        <ele>4.5</ele>
        <time>2020-05-31T13:21:08Z</time>
      </trkpt>
      <trkpt lat="46.31354" lon="-0.60988">
        <ele>4.5</ele>
        <time>2020-05-31T13:21:09Z</time>
      </trkpt>
      <trkpt lat="46.3135" lon="-0.60992">
        <ele>4.4</ele>
        <time>2020-05-31T13:21:10Z</time>
      </trkpt>
      <trkpt lat="46.31345" lon="-0.60997">
        <ele>4.4</ele>
        <time>2020-05-31T13:21:11Z</time>
      </trkpt>
      <trkpt lat="46.31341" lon="-0.61001">
        <ele>4.4</ele>
        <time>2020-05-31T13:21:12Z</time>
      </trkpt>
      <trkpt lat="46.31337" lon="-0.61007">
        <ele>4.4</ele>
        <time>2020-05-31T13:21:13Z</time>
      </trkpt>
      <trkpt lat="46.31333" lon="-0.61011">
        <ele>4.4</ele>
        <time>2020-05-31T13:21:14Z</time>
      </trkpt>
      <trkpt lat="46.31329" lon="-0.61016">
        <ele>4.4</ele>
        <time>2020-05-31T13:21:15Z</time>
      </trkpt>
      <trkpt lat="46.31325" lon="-0.61022">
        <ele>4.4</ele>
        <time>2020-05-31T13:21:16Z</time>
      </trkpt>
      <trkpt lat="46.31321" lon="-0.61028">
        <ele>4.4</ele>
        <time>2020-05-31T13:21:17Z</time>
      </trkpt>
      <trkpt lat="46.31317" lon="-0.61033">
        <ele>4.3</ele>
        <time>2020-05-31T13:21:18Z</time>
      </trkpt>
      <trkpt lat="46.31315" lon="-0.6104">
        <ele>4.3</ele>
        <time>2020-05-31T13:21:19Z</time>
      </trkpt>
      <trkpt lat="46.31313" lon="-0.61046">
        <ele>4.3</ele>
        <time>2020-05-31T13:21:20Z</time>
      </trkpt>
      <trkpt lat="46.31311" lon="-0.61053">
        <ele>4.2</ele>
        <time>2020-05-31T13:21:21Z</time>
      </trkpt>
      <trkpt lat="46.31309" lon="-0.61061">
        <ele>4.2</ele>
        <time>2020-05-31T13:21:22Z</time>
      </trkpt>
      <trkpt lat="46.31308" lon="-0.61069">
        <ele>4.2</ele>
        <time>2020-05-31T13:21:23Z</time>
      </trkpt>
      <trkpt lat="46.31306" lon="-0.61078">
        <ele>4.2</ele>
        <time>2020-05-31T13:21:24Z</time>
      </trkpt>
      <trkpt lat="46.31305" lon="-0.61087">
        <ele>4.2</ele>
        <time>2020-05-31T13:21:25Z</time>
      </trkpt>
      <trkpt lat="46.31304" lon="-0.61096">
        <ele>4.2</ele>
        <time>2020-05-31T13:21:26Z</time>
      </trkpt>
      <trkpt lat="46.31305" lon="-0.61104">
        <ele>4.2</ele>
        <time>2020-05-31T13:21:27Z</time>
      </trkpt>
      <trkpt lat="46.31305" lon="-0.61114">
        <ele>4.2</ele>
        <time>2020-05-31T13:21:28Z</time>
      </trkpt>
      <trkpt lat="46.31304" lon="-0.61125">
        <ele>4.2</ele>
        <time>2020-05-31T13:21:29Z</time>
      </trkpt>
      <trkpt lat="46.31304" lon="-0.61137">
        <ele>4.2</ele>
        <time>2020-05-31T13:21:30Z</time>
      </trkpt>
      <trkpt lat="46.31305" lon="-0.61147">
        <ele>4.2</ele>
        <time>2020-05-31T13:21:31Z</time>
      </trkpt>
      <trkpt lat="46.31305" lon="-0.61158">
        <ele>4.2</ele>
        <time>2020-05-31T13:21:32Z</time>
      </trkpt>
      <trkpt lat="46.31307" lon="-0.61168">
        <ele>4.2</ele>
        <time>2020-05-31T13:21:33Z</time>
      </trkpt>
      <trkpt lat="46.31309" lon="-0.61176">
        <ele>4.1</ele>
        <time>2020-05-31T13:21:34Z</time>
      </trkpt>
      <trkpt lat="46.3131" lon="-0.61184">
        <ele>4.1</ele>
        <time>2020-05-31T13:21:35Z</time>
      </trkpt>
      <trkpt lat="46.31312" lon="-0.61193">
        <ele>4.1</ele>
        <time>2020-05-31T13:21:36Z</time>
      </trkpt>
      <trkpt lat="46.31314" lon="-0.612">
        <ele>4.2</ele>
        <time>2020-05-31T13:21:37Z</time>
      </trkpt>
      <trkpt lat="46.31315" lon="-0.61209">
        <ele>4.2</ele>
        <time>2020-05-31T13:21:38Z</time>
      </trkpt>
      <trkpt lat="46.31317" lon="-0.61218">
        <ele>4.2</ele>
        <time>2020-05-31T13:21:39Z</time>
      </trkpt>
      <trkpt lat="46.31318" lon="-0.61226">
        <ele>4.3</ele>
        <time>2020-05-31T13:21:40Z</time>
      </trkpt>
      <trkpt lat="46.31319" lon="-0.61235">
        <ele>4.3</ele>
        <time>2020-05-31T13:21:41Z</time>
      </trkpt>
      <trkpt lat="46.31321" lon="-0.61241">
        <ele>4.3</ele>
        <time>2020-05-31T13:21:42Z</time>
      </trkpt>
      <trkpt lat="46.31323" lon="-0.61249">
        <ele>4.3</ele>
        <time>2020-05-31T13:21:43Z</time>
      </trkpt>
      <trkpt lat="46.31325" lon="-0.61256">
        <ele>4.3</ele>
        <time>2020-05-31T13:21:44Z</time>
      </trkpt>
      <trkpt lat="46.31326" lon="-0.61262">
        <ele>4.3</ele>
        <time>2020-05-31T13:21:45Z</time>
      </trkpt>
      <trkpt lat="46.31328" lon="-0.61269">
        <ele>4.3</ele>
        <time>2020-05-31T13:21:46Z</time>
      </trkpt>
      <trkpt lat="46.31329" lon="-0.61276">
        <ele>4.4</ele>
        <time>2020-05-31T13:21:47Z</time>
      </trkpt>
      <trkpt lat="46.3133" lon="-0.61285">
        <ele>4.4</ele>
        <time>2020-05-31T13:21:48Z</time>
      </trkpt>
      <trkpt lat="46.31331" lon="-0.61294">
        <ele>4.4</ele>
        <time>2020-05-31T13:21:49Z</time>
      </trkpt>
      <trkpt lat="46.31331" lon="-0.61301">
        <ele>4.3</ele>
        <time>2020-05-31T13:21:50Z</time>
      </trkpt>
      <trkpt lat="46.31331" lon="-0.6131">
        <ele>4.3</ele>
        <time>2020-05-31T13:21:51Z</time>
      </trkpt>
      <trkpt lat="46.31331" lon="-0.61317">
        <ele>4.3</ele>
        <time>2020-05-31T13:21:52Z</time>
      </trkpt>
      <trkpt lat="46.3133" lon="-0.61325">
        <ele>4.3</ele>
        <time>2020-05-31T13:21:53Z</time>
      </trkpt>
      <trkpt lat="46.3133" lon="-0.61334">
        <ele>4.3</ele>
        <time>2020-05-31T13:21:54Z</time>
      </trkpt>
      <trkpt lat="46.31329" lon="-0.61344">
        <ele>4.3</ele>
        <time>2020-05-31T13:21:55Z</time>
      </trkpt>
      <trkpt lat="46.31327" lon="-0.61353">
        <ele>4.3</ele>
        <time>2020-05-31T13:21:56Z</time>
      </trkpt>
      <trkpt lat="46.31325" lon="-0.61364">
        <ele>4.3</ele>
        <time>2020-05-31T13:21:57Z</time>
      </trkpt>
      <trkpt lat="46.31323" lon="-0.61376">
        <ele>4.3</ele>
        <time>2020-05-31T13:21:58Z</time>
      </trkpt>
      <trkpt lat="46.31321" lon="-0.61385">
        <ele>4.3</ele>
        <time>2020-05-31T13:21:59Z</time>
      </trkpt>
      <trkpt lat="46.31318" lon="-0.61394">
        <ele>4.3</ele>
        <time>2020-05-31T13:22:00Z</time>
      </trkpt>
      <trkpt lat="46.31314" lon="-0.61402">
        <ele>4.4</ele>
        <time>2020-05-31T13:22:01Z</time>
      </trkpt>
      <trkpt lat="46.3131" lon="-0.61411">
        <ele>4.4</ele>
        <time>2020-05-31T13:22:02Z</time>
      </trkpt>
      <trkpt lat="46.31309" lon="-0.61419">
        <ele>4.4</ele>
        <time>2020-05-31T13:22:03Z</time>
      </trkpt>
      <trkpt lat="46.31306" lon="-0.61426">
        <ele>4.4</ele>
        <time>2020-05-31T13:22:04Z</time>
      </trkpt>
      <trkpt lat="46.31302" lon="-0.61433">
        <ele>4.4</ele>
        <time>2020-05-31T13:22:05Z</time>
      </trkpt>
      <trkpt lat="46.31299" lon="-0.61441">
        <ele>4.5</ele>
        <time>2020-05-31T13:22:06Z</time>
      </trkpt>
      <trkpt lat="46.31295" lon="-0.61449">
        <ele>4.6</ele>
        <time>2020-05-31T13:22:07Z</time>
      </trkpt>
      <trkpt lat="46.31291" lon="-0.61456">
        <ele>4.6</ele>
        <time>2020-05-31T13:22:08Z</time>
      </trkpt>
      <trkpt lat="46.31288" lon="-0.61463">
        <ele>4.7</ele>
        <time>2020-05-31T13:22:09Z</time>
      </trkpt>
      <trkpt lat="46.31285" lon="-0.61471">
        <ele>4.7</ele>
        <time>2020-05-31T13:22:10Z</time>
      </trkpt>
      <trkpt lat="46.31282" lon="-0.61478">
        <ele>4.8</ele>
        <time>2020-05-31T13:22:11Z</time>
      </trkpt>
      <trkpt lat="46.31279" lon="-0.61482">
        <ele>4.8</ele>
        <time>2020-05-31T13:22:12Z</time>
      </trkpt>
      <trkpt lat="46.31276" lon="-0.61489">
        <ele>4.9</ele>
        <time>2020-05-31T13:22:13Z</time>
      </trkpt>
      <trkpt lat="46.31273" lon="-0.61496">
        <ele>4.9</ele>
        <time>2020-05-31T13:22:14Z</time>
      </trkpt>
      <trkpt lat="46.31269" lon="-0.61503">
        <ele>4.9</ele>
        <time>2020-05-31T13:22:15Z</time>
      </trkpt>
      <trkpt lat="46.31266" lon="-0.6151">
        <ele>5</ele>
        <time>2020-05-31T13:22:16Z</time>
      </trkpt>
      <trkpt lat="46.31263" lon="-0.61516">
        <ele>5</ele>
        <time>2020-05-31T13:22:17Z</time>
      </trkpt>
      <trkpt lat="46.3126" lon="-0.61522">
        <ele>5</ele>
        <time>2020-05-31T13:22:18Z</time>
      </trkpt>
      <trkpt lat="46.31256" lon="-0.61528">
        <ele>5.1</ele>
        <time>2020-05-31T13:22:19Z</time>
      </trkpt>
      <trkpt lat="46.31253" lon="-0.61535">
        <ele>5.1</ele>
        <time>2020-05-31T13:22:20Z</time>
      </trkpt>
      <trkpt lat="46.3125" lon="-0.61542">
        <ele>5.1</ele>
        <time>2020-05-31T13:22:21Z</time>
      </trkpt>
      <trkpt lat="46.31247" lon="-0.61548">
        <ele>5.1</ele>
        <time>2020-05-31T13:22:22Z</time>
      </trkpt>
      <trkpt lat="46.31243" lon="-0.61555">
        <ele>5.2</ele>
        <time>2020-05-31T13:22:23Z</time>
      </trkpt>
      <trkpt lat="46.3124" lon="-0.6156">
        <ele>5.2</ele>
        <time>2020-05-31T13:22:24Z</time>
      </trkpt>
      <trkpt lat="46.31237" lon="-0.61565">
        <ele>5.2</ele>
        <time>2020-05-31T13:22:25Z</time>
      </trkpt>
      <trkpt lat="46.31235" lon="-0.61571">
        <ele>5.2</ele>
        <time>2020-05-31T13:22:26Z</time>
      </trkpt>
      <trkpt lat="46.31232" lon="-0.61577">
        <ele>5.2</ele>
        <time>2020-05-31T13:22:27Z</time>
      </trkpt>
      <trkpt lat="46.31229" lon="-0.61584">
        <ele>5.3</ele>
        <time>2020-05-31T13:22:28Z</time>
      </trkpt>
      <trkpt lat="46.31226" lon="-0.6159">
        <ele>5.3</ele>
        <time>2020-05-31T13:22:29Z</time>
      </trkpt>
      <trkpt lat="46.31222" lon="-0.61595">
        <ele>5.3</ele>
        <time>2020-05-31T13:22:30Z</time>
      </trkpt>
      <trkpt lat="46.31217" lon="-0.61598">
        <ele>5.3</ele>
        <time>2020-05-31T13:22:31Z</time>
      </trkpt>
      <trkpt lat="46.31211" lon="-0.616">
        <ele>5.3</ele>
        <time>2020-05-31T13:22:32Z</time>
      </trkpt>
      <trkpt lat="46.31206" lon="-0.61602">
        <ele>5.3</ele>
        <time>2020-05-31T13:22:33Z</time>
      </trkpt>
      <trkpt lat="46.31202" lon="-0.61605">
        <ele>5.3</ele>
        <time>2020-05-31T13:22:34Z</time>
      </trkpt>
      <trkpt lat="46.31197" lon="-0.61609">
        <ele>5.3</ele>
        <time>2020-05-31T13:22:35Z</time>
      </trkpt>
      <trkpt lat="46.31192" lon="-0.61613">
        <ele>5.2</ele>
        <time>2020-05-31T13:22:36Z</time>
      </trkpt>
      <trkpt lat="46.31187" lon="-0.61616">
        <ele>5.2</ele>
        <time>2020-05-31T13:22:37Z</time>
      </trkpt>
      <trkpt lat="46.31182" lon="-0.61621">
        <ele>5.2</ele>
        <time>2020-05-31T13:22:38Z</time>
      </trkpt>
      <trkpt lat="46.31176" lon="-0.61625">
        <ele>5.2</ele>
        <time>2020-05-31T13:22:39Z</time>
      </trkpt>
      <trkpt lat="46.31171" lon="-0.61629">
        <ele>5.2</ele>
        <time>2020-05-31T13:22:40Z</time>
      </trkpt>
      <trkpt lat="46.31166" lon="-0.61638">
        <ele>5.2</ele>
        <time>2020-05-31T13:22:41Z</time>
      </trkpt>
      <trkpt lat="46.31162" lon="-0.61642">
        <ele>5.2</ele>
        <time>2020-05-31T13:22:42Z</time>
      </trkpt>
      <trkpt lat="46.31158" lon="-0.61646">
        <ele>5.1</ele>
        <time>2020-05-31T13:22:43Z</time>
      </trkpt>
      <trkpt lat="46.31154" lon="-0.6165">
        <ele>5.1</ele>
        <time>2020-05-31T13:22:44Z</time>
      </trkpt>
      <trkpt lat="46.31149" lon="-0.61654">
        <ele>5.1</ele>
        <time>2020-05-31T13:22:45Z</time>
      </trkpt>
      <trkpt lat="46.31144" lon="-0.61657">
        <ele>5.1</ele>
        <time>2020-05-31T13:22:46Z</time>
      </trkpt>
      <trkpt lat="46.31141" lon="-0.61659">
        <ele>5.1</ele>
        <time>2020-05-31T13:22:47Z</time>
      </trkpt>
      <trkpt lat="46.31137" lon="-0.61661">
        <ele>5.1</ele>
        <time>2020-05-31T13:22:48Z</time>
      </trkpt>
      <trkpt lat="46.31133" lon="-0.61664">
        <ele>5.1</ele>
        <time>2020-05-31T13:22:49Z</time>
      </trkpt>
      <trkpt lat="46.31128" lon="-0.61667">
        <ele>5.1</ele>
        <time>2020-05-31T13:22:50Z</time>
      </trkpt>
      <trkpt lat="46.31124" lon="-0.61671">
        <ele>5.1</ele>
        <time>2020-05-31T13:22:51Z</time>
      </trkpt>
      <trkpt lat="46.3112" lon="-0.61675">
        <ele>5</ele>
        <time>2020-05-31T13:22:52Z</time>
      </trkpt>
      <trkpt lat="46.31115" lon="-0.61679">
        <ele>5</ele>
        <time>2020-05-31T13:22:53Z</time>
      </trkpt>
      <trkpt lat="46.31111" lon="-0.61683">
        <ele>5</ele>
        <time>2020-05-31T13:22:54Z</time>
      </trkpt>
      <trkpt lat="46.31106" lon="-0.61687">
        <ele>5</ele>
        <time>2020-05-31T13:22:55Z</time>
      </trkpt>
      <trkpt lat="46.31102" lon="-0.61692">
        <ele>5</ele>
        <time>2020-05-31T13:22:56Z</time>
      </trkpt>
      <trkpt lat="46.31098" lon="-0.61697">
        <ele>5</ele>
        <time>2020-05-31T13:22:57Z</time>
      </trkpt>
      <trkpt lat="46.31094" lon="-0.61702">
        <ele>5</ele>
        <time>2020-05-31T13:22:58Z</time>
      </trkpt>
      <trkpt lat="46.3109" lon="-0.61709">
        <ele>4.9</ele>
        <time>2020-05-31T13:22:59Z</time>
      </trkpt>
      <trkpt lat="46.31087" lon="-0.61717">
        <ele>4.9</ele>
        <time>2020-05-31T13:23:00Z</time>
      </trkpt>
      <trkpt lat="46.31084" lon="-0.61725">
        <ele>4.9</ele>
        <time>2020-05-31T13:23:01Z</time>
      </trkpt>
      <trkpt lat="46.3108" lon="-0.61733">
        <ele>4.9</ele>
        <time>2020-05-31T13:23:02Z</time>
      </trkpt>
      <trkpt lat="46.31077" lon="-0.61742">
        <ele>4.9</ele>
        <time>2020-05-31T13:23:03Z</time>
      </trkpt>
      <trkpt lat="46.31073" lon="-0.61751">
        <ele>4.9</ele>
        <time>2020-05-31T13:23:04Z</time>
      </trkpt>
      <trkpt lat="46.31069" lon="-0.61759">
        <ele>4.8</ele>
        <time>2020-05-31T13:23:05Z</time>
      </trkpt>
      <trkpt lat="46.31066" lon="-0.61766">
        <ele>4.8</ele>
        <time>2020-05-31T13:23:06Z</time>
      </trkpt>
      <trkpt lat="46.31063" lon="-0.61774">
        <ele>4.8</ele>
        <time>2020-05-31T13:23:07Z</time>
      </trkpt>
      <trkpt lat="46.3106" lon="-0.61784">
        <ele>4.7</ele>
        <time>2020-05-31T13:23:08Z</time>
      </trkpt>
      <trkpt lat="46.31058" lon="-0.61794">
        <ele>4.6</ele>
        <time>2020-05-31T13:23:09Z</time>
      </trkpt>
      <trkpt lat="46.31055" lon="-0.61804">
        <ele>4.6</ele>
        <time>2020-05-31T13:23:10Z</time>
      </trkpt>
      <trkpt lat="46.31053" lon="-0.61813">
        <ele>4.6</ele>
        <time>2020-05-31T13:23:11Z</time>
      </trkpt>
      <trkpt lat="46.3105" lon="-0.61822">
        <ele>4.5</ele>
        <time>2020-05-31T13:23:12Z</time>
      </trkpt>
      <trkpt lat="46.31047" lon="-0.61832">
        <ele>4.5</ele>
        <time>2020-05-31T13:23:13Z</time>
      </trkpt>
      <trkpt lat="46.31046" lon="-0.61842">
        <ele>4.5</ele>
        <time>2020-05-31T13:23:14Z</time>
      </trkpt>
      <trkpt lat="46.31044" lon="-0.6185">
        <ele>4.4</ele>
        <time>2020-05-31T13:23:15Z</time>
      </trkpt>
      <trkpt lat="46.31043" lon="-0.6186">
        <ele>4.4</ele>
        <time>2020-05-31T13:23:16Z</time>
      </trkpt>
      <trkpt lat="46.31041" lon="-0.61869">
        <ele>4.4</ele>
        <time>2020-05-31T13:23:17Z</time>
      </trkpt>
      <trkpt lat="46.31039" lon="-0.61878">
        <ele>4.4</ele>
        <time>2020-05-31T13:23:18Z</time>
      </trkpt>
      <trkpt lat="46.31038" lon="-0.61886">
        <ele>4.4</ele>
        <time>2020-05-31T13:23:19Z</time>
      </trkpt>
      <trkpt lat="46.31037" lon="-0.61895">
        <ele>4.3</ele>
        <time>2020-05-31T13:23:20Z</time>
      </trkpt>
      <trkpt lat="46.31034" lon="-0.61902">
        <ele>4.3</ele>
        <time>2020-05-31T13:23:21Z</time>
      </trkpt>
      <trkpt lat="46.31033" lon="-0.61911">
        <ele>4.3</ele>
        <time>2020-05-31T13:23:22Z</time>
      </trkpt>
      <trkpt lat="46.31032" lon="-0.6192">
        <ele>4.3</ele>
        <time>2020-05-31T13:23:23Z</time>
      </trkpt>
      <trkpt lat="46.31031" lon="-0.61928">
        <ele>4.3</ele>
        <time>2020-05-31T13:23:24Z</time>
      </trkpt>
      <trkpt lat="46.31029" lon="-0.61937">
        <ele>4.3</ele>
        <time>2020-05-31T13:23:25Z</time>
      </trkpt>
      <trkpt lat="46.31028" lon="-0.61947">
        <ele>4.3</ele>
        <time>2020-05-31T13:23:26Z</time>
      </trkpt>
      <trkpt lat="46.31027" lon="-0.61955">
        <ele>4.3</ele>
        <time>2020-05-31T13:23:27Z</time>
      </trkpt>
      <trkpt lat="46.31026" lon="-0.61965">
        <ele>4.3</ele>
        <time>2020-05-31T13:23:28Z</time>
      </trkpt>
      <trkpt lat="46.31025" lon="-0.61973">
        <ele>4.3</ele>
        <time>2020-05-31T13:23:29Z</time>
      </trkpt>
      <trkpt lat="46.31025" lon="-0.61982">
        <ele>4.3</ele>
        <time>2020-05-31T13:23:30Z</time>
      </trkpt>
      <trkpt lat="46.31024" lon="-0.6199">
        <ele>4.3</ele>
        <time>2020-05-31T13:23:31Z</time>
      </trkpt>
      <trkpt lat="46.31025" lon="-0.61995">
        <ele>4.3</ele>
        <time>2020-05-31T13:23:32Z</time>
      </trkpt>
      <trkpt lat="46.31025" lon="-0.62003">
        <ele>4.3</ele>
        <time>2020-05-31T13:23:33Z</time>
      </trkpt>
      <trkpt lat="46.31023" lon="-0.62012">
        <ele>4.3</ele>
        <time>2020-05-31T13:23:34Z</time>
      </trkpt>
      <trkpt lat="46.31022" lon="-0.62021">
        <ele>4.3</ele>
        <time>2020-05-31T13:23:35Z</time>
      </trkpt>
      <trkpt lat="46.3102" lon="-0.62031">
        <ele>4.3</ele>
        <time>2020-05-31T13:23:36Z</time>
      </trkpt>
      <trkpt lat="46.31019" lon="-0.6204">
        <ele>4.3</ele>
        <time>2020-05-31T13:23:37Z</time>
      </trkpt>
      <trkpt lat="46.31017" lon="-0.62049">
        <ele>4.4</ele>
        <time>2020-05-31T13:23:38Z</time>
      </trkpt>
      <trkpt lat="46.31016" lon="-0.62058">
        <ele>4.4</ele>
        <time>2020-05-31T13:23:39Z</time>
      </trkpt>
      <trkpt lat="46.31016" lon="-0.62065">
        <ele>4.4</ele>
        <time>2020-05-31T13:23:40Z</time>
      </trkpt>
      <trkpt lat="46.31015" lon="-0.62074">
        <ele>4.4</ele>
        <time>2020-05-31T13:23:41Z</time>
      </trkpt>
      <trkpt lat="46.31013" lon="-0.62083">
        <ele>4.4</ele>
        <time>2020-05-31T13:23:42Z</time>
      </trkpt>
      <trkpt lat="46.31011" lon="-0.62092">
        <ele>4.4</ele>
        <time>2020-05-31T13:23:43Z</time>
      </trkpt>
      <trkpt lat="46.31011" lon="-0.62102">
        <ele>4.4</ele>
        <time>2020-05-31T13:23:44Z</time>
      </trkpt>
      <trkpt lat="46.3101" lon="-0.62113">
        <ele>4.4</ele>
        <time>2020-05-31T13:23:45Z</time>
      </trkpt>
      <trkpt lat="46.31009" lon="-0.62124">
        <ele>4.4</ele>
        <time>2020-05-31T13:23:46Z</time>
      </trkpt>
      <trkpt lat="46.31009" lon="-0.62134">
        <ele>4.4</ele>
        <time>2020-05-31T13:23:47Z</time>
      </trkpt>
      <trkpt lat="46.31008" lon="-0.62145">
        <ele>4.5</ele>
        <time>2020-05-31T13:23:48Z</time>
      </trkpt>
      <trkpt lat="46.31007" lon="-0.62154">
        <ele>4.5</ele>
        <time>2020-05-31T13:23:49Z</time>
      </trkpt>
      <trkpt lat="46.31006" lon="-0.62163">
        <ele>4.5</ele>
        <time>2020-05-31T13:23:50Z</time>
      </trkpt>
      <trkpt lat="46.31006" lon="-0.62173">
        <ele>4.5</ele>
        <time>2020-05-31T13:23:51Z</time>
      </trkpt>
      <trkpt lat="46.31007" lon="-0.62182">
        <ele>4.4</ele>
        <time>2020-05-31T13:23:52Z</time>
      </trkpt>
      <trkpt lat="46.31009" lon="-0.62188">
        <ele>4.4</ele>
        <time>2020-05-31T13:23:53Z</time>
      </trkpt>
      <trkpt lat="46.3101" lon="-0.62196">
        <ele>4.4</ele>
        <time>2020-05-31T13:23:54Z</time>
      </trkpt>
      <trkpt lat="46.31011" lon="-0.62206">
        <ele>4.4</ele>
        <time>2020-05-31T13:23:55Z</time>
      </trkpt>
      <trkpt lat="46.31012" lon="-0.62213">
        <ele>4.4</ele>
        <time>2020-05-31T13:23:56Z</time>
      </trkpt>
      <trkpt lat="46.31013" lon="-0.62221">
        <ele>4.4</ele>
        <time>2020-05-31T13:23:57Z</time>
      </trkpt>
      <trkpt lat="46.31014" lon="-0.62229">
        <ele>4.4</ele>
        <time>2020-05-31T13:23:58Z</time>
      </trkpt>
      <trkpt lat="46.31015" lon="-0.62237">
        <ele>4.4</ele>
        <time>2020-05-31T13:23:59Z</time>
      </trkpt>
      <trkpt lat="46.31016" lon="-0.62245">
        <ele>4.4</ele>
        <time>2020-05-31T13:24:00Z</time>
      </trkpt>
      <trkpt lat="46.31018" lon="-0.62254">
        <ele>4.5</ele>
        <time>2020-05-31T13:24:01Z</time>
      </trkpt>
      <trkpt lat="46.31019" lon="-0.62263">
        <ele>4.5</ele>
        <time>2020-05-31T13:24:02Z</time>
      </trkpt>
      <trkpt lat="46.31021" lon="-0.62271">
        <ele>4.5</ele>
        <time>2020-05-31T13:24:03Z</time>
      </trkpt>
      <trkpt lat="46.31024" lon="-0.62279">
        <ele>4.5</ele>
        <time>2020-05-31T13:24:04Z</time>
      </trkpt>
      <trkpt lat="46.31027" lon="-0.62286">
        <ele>4.5</ele>
        <time>2020-05-31T13:24:05Z</time>
      </trkpt>
      <trkpt lat="46.3103" lon="-0.62295">
        <ele>4.5</ele>
        <time>2020-05-31T13:24:06Z</time>
      </trkpt>
      <trkpt lat="46.31032" lon="-0.62304">
        <ele>4.5</ele>
        <time>2020-05-31T13:24:07Z</time>
      </trkpt>
      <trkpt lat="46.31035" lon="-0.62312">
        <ele>4.5</ele>
        <time>2020-05-31T13:24:08Z</time>
      </trkpt>
      <trkpt lat="46.31038" lon="-0.62321">
        <ele>4.6</ele>
        <time>2020-05-31T13:24:09Z</time>
      </trkpt>
      <trkpt lat="46.31041" lon="-0.62328">
        <ele>4.6</ele>
        <time>2020-05-31T13:24:10Z</time>
      </trkpt>
      <trkpt lat="46.31044" lon="-0.62337">
        <ele>4.6</ele>
        <time>2020-05-31T13:24:11Z</time>
      </trkpt>
      <trkpt lat="46.31047" lon="-0.62348">
        <ele>4.6</ele>
        <time>2020-05-31T13:24:12Z</time>
      </trkpt>
      <trkpt lat="46.31049" lon="-0.62355">
        <ele>4.6</ele>
        <time>2020-05-31T13:24:13Z</time>
      </trkpt>
      <trkpt lat="46.31052" lon="-0.62363">
        <ele>4.6</ele>
        <time>2020-05-31T13:24:14Z</time>
      </trkpt>
      <trkpt lat="46.31054" lon="-0.62367">
        <ele>4.6</ele>
        <time>2020-05-31T13:24:15Z</time>
      </trkpt>
      <trkpt lat="46.31057" lon="-0.62373">
        <ele>4.6</ele>
        <time>2020-05-31T13:24:16Z</time>
      </trkpt>
      <trkpt lat="46.31059" lon="-0.62378">
        <ele>4.6</ele>
        <time>2020-05-31T13:24:17Z</time>
      </trkpt>
      <trkpt lat="46.31062" lon="-0.62384">
        <ele>4.6</ele>
        <time>2020-05-31T13:24:18Z</time>
      </trkpt>
      <trkpt lat="46.31064" lon="-0.62391">
        <ele>4.7</ele>
        <time>2020-05-31T13:24:19Z</time>
      </trkpt>
      <trkpt lat="46.31067" lon="-0.62399">
        <ele>4.7</ele>
        <time>2020-05-31T13:24:20Z</time>
      </trkpt>
      <trkpt lat="46.3107" lon="-0.62406">
        <ele>4.7</ele>
        <time>2020-05-31T13:24:21Z</time>
      </trkpt>
      <trkpt lat="46.31072" lon="-0.62413">
        <ele>4.7</ele>
        <time>2020-05-31T13:24:22Z</time>
      </trkpt>
      <trkpt lat="46.31074" lon="-0.62419">
        <ele>4.7</ele>
        <time>2020-05-31T13:24:23Z</time>
      </trkpt>
      <trkpt lat="46.31076" lon="-0.62425">
        <ele>4.7</ele>
        <time>2020-05-31T13:24:24Z</time>
      </trkpt>
      <trkpt lat="46.31077" lon="-0.62432">
        <ele>4.8</ele>
        <time>2020-05-31T13:24:25Z</time>
      </trkpt>
      <trkpt lat="46.31079" lon="-0.62439">
        <ele>4.8</ele>
        <time>2020-05-31T13:24:26Z</time>
      </trkpt>
      <trkpt lat="46.3108" lon="-0.62445">
        <ele>4.8</ele>
        <time>2020-05-31T13:24:27Z</time>
      </trkpt>
      <trkpt lat="46.31082" lon="-0.6245">
        <ele>4.8</ele>
        <time>2020-05-31T13:24:28Z</time>
      </trkpt>
      <trkpt lat="46.31084" lon="-0.62456">
        <ele>4.8</ele>
        <time>2020-05-31T13:24:29Z</time>
      </trkpt>
      <trkpt lat="46.31086" lon="-0.62462">
        <ele>4.8</ele>
        <time>2020-05-31T13:24:30Z</time>
      </trkpt>
      <trkpt lat="46.31088" lon="-0.62468">
        <ele>4.8</ele>
        <time>2020-05-31T13:24:31Z</time>
      </trkpt>
      <trkpt lat="46.3109" lon="-0.62474">
        <ele>4.8</ele>
        <time>2020-05-31T13:24:32Z</time>
      </trkpt>
      <trkpt lat="46.31092" lon="-0.6248">
        <ele>4.8</ele>
        <time>2020-05-31T13:24:33Z</time>
      </trkpt>
      <trkpt lat="46.31094" lon="-0.62487">
        <ele>4.8</ele>
        <time>2020-05-31T13:24:34Z</time>
      </trkpt>
      <trkpt lat="46.31097" lon="-0.62493">
        <ele>4.8</ele>
        <time>2020-05-31T13:24:35Z</time>
      </trkpt>
      <trkpt lat="46.311" lon="-0.62499">
        <ele>4.8</ele>
        <time>2020-05-31T13:24:36Z</time>
      </trkpt>
      <trkpt lat="46.31103" lon="-0.62506">
        <ele>4.8</ele>
        <time>2020-05-31T13:24:37Z</time>
      </trkpt>
      <trkpt lat="46.31105" lon="-0.62512">
        <ele>4.8</ele>
        <time>2020-05-31T13:24:38Z</time>
      </trkpt>
      <trkpt lat="46.31108" lon="-0.62519">
        <ele>4.8</ele>
        <time>2020-05-31T13:24:39Z</time>
      </trkpt>
      <trkpt lat="46.31111" lon="-0.62526">
        <ele>4.9</ele>
        <time>2020-05-31T13:24:40Z</time>
      </trkpt>
      <trkpt lat="46.31113" lon="-0.62532">
        <ele>4.9</ele>
        <time>2020-05-31T13:24:41Z</time>
      </trkpt>
      <trkpt lat="46.31116" lon="-0.62539">
        <ele>4.9</ele>
        <time>2020-05-31T13:24:42Z</time>
      </trkpt>
      <trkpt lat="46.31119" lon="-0.62546">
        <ele>4.9</ele>
        <time>2020-05-31T13:24:43Z</time>
      </trkpt>
      <trkpt lat="46.31122" lon="-0.62552">
        <ele>4.9</ele>
        <time>2020-05-31T13:24:44Z</time>
      </trkpt>
      <trkpt lat="46.31124" lon="-0.62559">
        <ele>4.9</ele>
        <time>2020-05-31T13:24:45Z</time>
      </trkpt>
      <trkpt lat="46.31128" lon="-0.62566">
        <ele>4.9</ele>
        <time>2020-05-31T13:24:46Z</time>
      </trkpt>
      <trkpt lat="46.31131" lon="-0.62573">
        <ele>4.9</ele>
        <time>2020-05-31T13:24:47Z</time>
      </trkpt>
      <trkpt lat="46.31134" lon="-0.62579">
        <ele>5</ele>
        <time>2020-05-31T13:24:48Z</time>
      </trkpt>
      <trkpt lat="46.31137" lon="-0.62585">
        <ele>5</ele>
        <time>2020-05-31T13:24:49Z</time>
      </trkpt>
      <trkpt lat="46.31139" lon="-0.62591">
        <ele>5</ele>
        <time>2020-05-31T13:24:50Z</time>
      </trkpt>
      <trkpt lat="46.31142" lon="-0.62597">
        <ele>5</ele>
        <time>2020-05-31T13:24:51Z</time>
      </trkpt>
      <trkpt lat="46.31144" lon="-0.62602">
        <ele>5</ele>
        <time>2020-05-31T13:24:52Z</time>
      </trkpt>
      <trkpt lat="46.31147" lon="-0.62607">
        <ele>5</ele>
        <time>2020-05-31T13:24:53Z</time>
      </trkpt>
      <trkpt lat="46.3115" lon="-0.62612">
        <ele>5</ele>
        <time>2020-05-31T13:24:54Z</time>
      </trkpt>
      <trkpt lat="46.31154" lon="-0.62618">
        <ele>5</ele>
        <time>2020-05-31T13:24:55Z</time>
      </trkpt>
      <trkpt lat="46.31157" lon="-0.62626">
        <ele>5</ele>
        <time>2020-05-31T13:24:56Z</time>
      </trkpt>
      <trkpt lat="46.3116" lon="-0.62632">
        <ele>5</ele>
        <time>2020-05-31T13:24:57Z</time>
      </trkpt>
      <trkpt lat="46.31162" lon="-0.62637">
        <ele>5</ele>
        <time>2020-05-31T13:24:58Z</time>
      </trkpt>
      <trkpt lat="46.31165" lon="-0.62642">
        <ele>5</ele>
        <time>2020-05-31T13:24:59Z</time>
      </trkpt>
      <trkpt lat="46.31167" lon="-0.62646">
        <ele>5</ele>
        <time>2020-05-31T13:25:00Z</time>
      </trkpt>
      <trkpt lat="46.31169" lon="-0.62652">
        <ele>5.1</ele>
        <time>2020-05-31T13:25:01Z</time>
      </trkpt>
      <trkpt lat="46.31171" lon="-0.62658">
        <ele>5.1</ele>
        <time>2020-05-31T13:25:02Z</time>
      </trkpt>
      <trkpt lat="46.31173" lon="-0.62665">
        <ele>5.1</ele>
        <time>2020-05-31T13:25:03Z</time>
      </trkpt>
      <trkpt lat="46.31176" lon="-0.62671">
        <ele>5.1</ele>
        <time>2020-05-31T13:25:04Z</time>
      </trkpt>
      <trkpt lat="46.31178" lon="-0.62678">
        <ele>5.1</ele>
        <time>2020-05-31T13:25:05Z</time>
      </trkpt>
      <trkpt lat="46.31182" lon="-0.62684">
        <ele>5.1</ele>
        <time>2020-05-31T13:25:06Z</time>
      </trkpt>
      <trkpt lat="46.31185" lon="-0.6269">
        <ele>5.1</ele>
        <time>2020-05-31T13:25:07Z</time>
      </trkpt>
      <trkpt lat="46.31189" lon="-0.62698">
        <ele>5.1</ele>
        <time>2020-05-31T13:25:08Z</time>
      </trkpt>
      <trkpt lat="46.31192" lon="-0.62706">
        <ele>5.1</ele>
        <time>2020-05-31T13:25:09Z</time>
      </trkpt>
      <trkpt lat="46.31196" lon="-0.62714">
        <ele>5.1</ele>
        <time>2020-05-31T13:25:10Z</time>
      </trkpt>
      <trkpt lat="46.312" lon="-0.62723">
        <ele>5.1</ele>
        <time>2020-05-31T13:25:11Z</time>
      </trkpt>
      <trkpt lat="46.31205" lon="-0.62731">
        <ele>5.1</ele>
        <time>2020-05-31T13:25:12Z</time>
      </trkpt>
      <trkpt lat="46.31209" lon="-0.62738">
        <ele>5.2</ele>
        <time>2020-05-31T13:25:13Z</time>
      </trkpt>
      <trkpt lat="46.31212" lon="-0.62746">
        <ele>5.2</ele>
        <time>2020-05-31T13:25:14Z</time>
      </trkpt>
      <trkpt lat="46.31216" lon="-0.62753">
        <ele>5.2</ele>
        <time>2020-05-31T13:25:15Z</time>
      </trkpt>
      <trkpt lat="46.31219" lon="-0.62758">
        <ele>5.2</ele>
        <time>2020-05-31T13:25:16Z</time>
      </trkpt>
      <trkpt lat="46.31223" lon="-0.62765">
        <ele>5.2</ele>
        <time>2020-05-31T13:25:17Z</time>
      </trkpt>
      <trkpt lat="46.31226" lon="-0.62772">
        <ele>5.2</ele>
        <time>2020-05-31T13:25:18Z</time>
      </trkpt>
      <trkpt lat="46.31231" lon="-0.62779">
        <ele>5.2</ele>
        <time>2020-05-31T13:25:19Z</time>
      </trkpt>
      <trkpt lat="46.31234" lon="-0.62786">
        <ele>5.2</ele>
        <time>2020-05-31T13:25:20Z</time>
      </trkpt>
      <trkpt lat="46.31238" lon="-0.62793">
        <ele>5.2</ele>
        <time>2020-05-31T13:25:21Z</time>
      </trkpt>
      <trkpt lat="46.31242" lon="-0.628">
        <ele>5.2</ele>
        <time>2020-05-31T13:25:22Z</time>
      </trkpt>
      <trkpt lat="46.31245" lon="-0.62806">
        <ele>5.2</ele>
        <time>2020-05-31T13:25:23Z</time>
      </trkpt>
      <trkpt lat="46.31248" lon="-0.62813">
        <ele>5.2</ele>
        <time>2020-05-31T13:25:24Z</time>
      </trkpt>
      <trkpt lat="46.31253" lon="-0.6282">
        <ele>5.3</ele>
        <time>2020-05-31T13:25:25Z</time>
      </trkpt>
      <trkpt lat="46.31256" lon="-0.62826">
        <ele>5.3</ele>
        <time>2020-05-31T13:25:26Z</time>
      </trkpt>
      <trkpt lat="46.31259" lon="-0.62833">
        <ele>5.3</ele>
        <time>2020-05-31T13:25:27Z</time>
      </trkpt>
      <trkpt lat="46.31261" lon="-0.62839">
        <ele>5.3</ele>
        <time>2020-05-31T13:25:28Z</time>
      </trkpt>
      <trkpt lat="46.31262" lon="-0.62845">
        <ele>5.3</ele>
        <time>2020-05-31T13:25:29Z</time>
      </trkpt>
      <trkpt lat="46.31264" lon="-0.62851">
        <ele>5.3</ele>
        <time>2020-05-31T13:25:30Z</time>
      </trkpt>
      <trkpt lat="46.31266" lon="-0.62858">
        <ele>5.3</ele>
        <time>2020-05-31T13:25:31Z</time>
      </trkpt>
      <trkpt lat="46.31267" lon="-0.62865">
        <ele>5.3</ele>
        <time>2020-05-31T13:25:32Z</time>
      </trkpt>
      <trkpt lat="46.31269" lon="-0.62872">
        <ele>5.3</ele>
        <time>2020-05-31T13:25:33Z</time>
      </trkpt>
      <trkpt lat="46.3127" lon="-0.62881">
        <ele>5.3</ele>
        <time>2020-05-31T13:25:34Z</time>
      </trkpt>
      <trkpt lat="46.31272" lon="-0.62891">
        <ele>5.3</ele>
        <time>2020-05-31T13:25:35Z</time>
      </trkpt>
      <trkpt lat="46.31273" lon="-0.629">
        <ele>5.3</ele>
        <time>2020-05-31T13:25:36Z</time>
      </trkpt>
      <trkpt lat="46.31273" lon="-0.62908">
        <ele>5.3</ele>
        <time>2020-05-31T13:25:37Z</time>
      </trkpt>
      <trkpt lat="46.31272" lon="-0.62917">
        <ele>5.3</ele>
        <time>2020-05-31T13:25:38Z</time>
      </trkpt>
      <trkpt lat="46.31271" lon="-0.62926">
        <ele>5.3</ele>
        <time>2020-05-31T13:25:39Z</time>
      </trkpt>
      <trkpt lat="46.3127" lon="-0.62936">
        <ele>5.3</ele>
        <time>2020-05-31T13:25:40Z</time>
      </trkpt>
      <trkpt lat="46.31268" lon="-0.62944">
        <ele>5.3</ele>
        <time>2020-05-31T13:25:41Z</time>
      </trkpt>
      <trkpt lat="46.31266" lon="-0.62951">
        <ele>5.3</ele>
        <time>2020-05-31T13:25:42Z</time>
      </trkpt>
      <trkpt lat="46.31264" lon="-0.6296">
        <ele>5.3</ele>
        <time>2020-05-31T13:25:43Z</time>
      </trkpt>
      <trkpt lat="46.31262" lon="-0.62967">
        <ele>5.2</ele>
        <time>2020-05-31T13:25:44Z</time>
      </trkpt>
      <trkpt lat="46.3126" lon="-0.62974">
        <ele>5.2</ele>
        <time>2020-05-31T13:25:45Z</time>
      </trkpt>
      <trkpt lat="46.31255" lon="-0.62981">
        <ele>5.2</ele>
        <time>2020-05-31T13:25:46Z</time>
      </trkpt>
      <trkpt lat="46.31252" lon="-0.62988">
        <ele>5.2</ele>
        <time>2020-05-31T13:25:47Z</time>
      </trkpt>
      <trkpt lat="46.31248" lon="-0.62996">
        <ele>5.2</ele>
        <time>2020-05-31T13:25:48Z</time>
      </trkpt>
      <trkpt lat="46.31244" lon="-0.63004">
        <ele>5.2</ele>
        <time>2020-05-31T13:25:49Z</time>
      </trkpt>
      <trkpt lat="46.31241" lon="-0.6301">
        <ele>5.2</ele>
        <time>2020-05-31T13:25:50Z</time>
      </trkpt>
      <trkpt lat="46.31238" lon="-0.63017">
        <ele>5.2</ele>
        <time>2020-05-31T13:25:51Z</time>
      </trkpt>
      <trkpt lat="46.31234" lon="-0.63024">
        <ele>5.2</ele>
        <time>2020-05-31T13:25:52Z</time>
      </trkpt>
      <trkpt lat="46.31229" lon="-0.63031">
        <ele>5.1</ele>
        <time>2020-05-31T13:25:53Z</time>
      </trkpt>
      <trkpt lat="46.31225" lon="-0.63038">
        <ele>5.1</ele>
        <time>2020-05-31T13:25:54Z</time>
      </trkpt>
      <trkpt lat="46.31221" lon="-0.63045">
        <ele>5.1</ele>
        <time>2020-05-31T13:25:55Z</time>
      </trkpt>
      <trkpt lat="46.31216" lon="-0.63054">
        <ele>5.1</ele>
        <time>2020-05-31T13:25:56Z</time>
      </trkpt>
      <trkpt lat="46.31212" lon="-0.63062">
        <ele>5.1</ele>
        <time>2020-05-31T13:25:57Z</time>
      </trkpt>
      <trkpt lat="46.31207" lon="-0.63069">
        <ele>5.1</ele>
        <time>2020-05-31T13:25:58Z</time>
      </trkpt>
      <trkpt lat="46.31202" lon="-0.63077">
        <ele>5.1</ele>
        <time>2020-05-31T13:25:59Z</time>
      </trkpt>
      <trkpt lat="46.31197" lon="-0.63083">
        <ele>5</ele>
        <time>2020-05-31T13:26:00Z</time>
      </trkpt>
      <trkpt lat="46.31192" lon="-0.6309">
        <ele>5</ele>
        <time>2020-05-31T13:26:01Z</time>
      </trkpt>
      <trkpt lat="46.31188" lon="-0.63097">
        <ele>5</ele>
        <time>2020-05-31T13:26:02Z</time>
      </trkpt>
      <trkpt lat="46.31185" lon="-0.63104">
        <ele>5</ele>
        <time>2020-05-31T13:26:03Z</time>
      </trkpt>
      <trkpt lat="46.31181" lon="-0.63111">
        <ele>5</ele>
        <time>2020-05-31T13:26:04Z</time>
      </trkpt>
      <trkpt lat="46.31178" lon="-0.63119">
        <ele>5</ele>
        <time>2020-05-31T13:26:05Z</time>
      </trkpt>
      <trkpt lat="46.31176" lon="-0.63128">
        <ele>5</ele>
        <time>2020-05-31T13:26:06Z</time>
      </trkpt>
      <trkpt lat="46.31173" lon="-0.63137">
        <ele>4.9</ele>
        <time>2020-05-31T13:26:07Z</time>
      </trkpt>
      <trkpt lat="46.31171" lon="-0.63146">
        <ele>4.9</ele>
        <time>2020-05-31T13:26:08Z</time>
      </trkpt>
      <trkpt lat="46.31168" lon="-0.63155">
        <ele>4.9</ele>
        <time>2020-05-31T13:26:09Z</time>
      </trkpt>
      <trkpt lat="46.31166" lon="-0.63164">
        <ele>4.8</ele>
        <time>2020-05-31T13:26:10Z</time>
      </trkpt>
      <trkpt lat="46.31164" lon="-0.63173">
        <ele>4.8</ele>
        <time>2020-05-31T13:26:11Z</time>
      </trkpt>
      <trkpt lat="46.31161" lon="-0.63183">
        <ele>4.8</ele>
        <time>2020-05-31T13:26:12Z</time>
      </trkpt>
      <trkpt lat="46.31159" lon="-0.63192">
        <ele>4.7</ele>
        <time>2020-05-31T13:26:13Z</time>
      </trkpt>
      <trkpt lat="46.31156" lon="-0.63205">
        <ele>4.7</ele>
        <time>2020-05-31T13:26:14Z</time>
      </trkpt>
      <trkpt lat="46.31154" lon="-0.63215">
        <ele>4.7</ele>
        <time>2020-05-31T13:26:15Z</time>
      </trkpt>
      <trkpt lat="46.31153" lon="-0.63223">
        <ele>4.6</ele>
        <time>2020-05-31T13:26:16Z</time>
      </trkpt>
      <trkpt lat="46.31153" lon="-0.63231">
        <ele>4.6</ele>
        <time>2020-05-31T13:26:17Z</time>
      </trkpt>
      <trkpt lat="46.31153" lon="-0.6324">
        <ele>4.6</ele>
        <time>2020-05-31T13:26:18Z</time>
      </trkpt>
      <trkpt lat="46.31153" lon="-0.63248">
        <ele>4.5</ele>
        <time>2020-05-31T13:26:19Z</time>
      </trkpt>
      <trkpt lat="46.31154" lon="-0.63257">
        <ele>4.5</ele>
        <time>2020-05-31T13:26:20Z</time>
      </trkpt>
      <trkpt lat="46.31154" lon="-0.63264">
        <ele>4.5</ele>
        <time>2020-05-31T13:26:21Z</time>
      </trkpt>
      <trkpt lat="46.31155" lon="-0.63272">
        <ele>4.4</ele>
        <time>2020-05-31T13:26:22Z</time>
      </trkpt>
      <trkpt lat="46.31156" lon="-0.6328">
        <ele>4.4</ele>
        <time>2020-05-31T13:26:23Z</time>
      </trkpt>
      <trkpt lat="46.31158" lon="-0.63288">
        <ele>4.4</ele>
        <time>2020-05-31T13:26:24Z</time>
      </trkpt>
      <trkpt lat="46.3116" lon="-0.63297">
        <ele>4.4</ele>
        <time>2020-05-31T13:26:25Z</time>
      </trkpt>
      <trkpt lat="46.31161" lon="-0.63305">
        <ele>4.4</ele>
        <time>2020-05-31T13:26:26Z</time>
      </trkpt>
      <trkpt lat="46.31163" lon="-0.63312">
        <ele>4.3</ele>
        <time>2020-05-31T13:26:27Z</time>
      </trkpt>
      <trkpt lat="46.31165" lon="-0.6332">
        <ele>4.3</ele>
        <time>2020-05-31T13:26:28Z</time>
      </trkpt>
      <trkpt lat="46.31167" lon="-0.63329">
        <ele>4.3</ele>
        <time>2020-05-31T13:26:29Z</time>
      </trkpt>
      <trkpt lat="46.3117" lon="-0.63338">
        <ele>4.3</ele>
        <time>2020-05-31T13:26:30Z</time>
      </trkpt>
      <trkpt lat="46.31173" lon="-0.63346">
        <ele>4.3</ele>
        <time>2020-05-31T13:26:31Z</time>
      </trkpt>
      <trkpt lat="46.31175" lon="-0.63353">
        <ele>4.3</ele>
        <time>2020-05-31T13:26:32Z</time>
      </trkpt>
      <trkpt lat="46.31177" lon="-0.63359">
        <ele>4.3</ele>
        <time>2020-05-31T13:26:33Z</time>
      </trkpt>
      <trkpt lat="46.3118" lon="-0.63367">
        <ele>4.3</ele>
        <time>2020-05-31T13:26:34Z</time>
      </trkpt>
      <trkpt lat="46.31183" lon="-0.63373">
        <ele>4.3</ele>
        <time>2020-05-31T13:26:35Z</time>
      </trkpt>
      <trkpt lat="46.31186" lon="-0.6338">
        <ele>4.3</ele>
        <time>2020-05-31T13:26:36Z</time>
      </trkpt>
      <trkpt lat="46.31189" lon="-0.63386">
        <ele>4.3</ele>
        <time>2020-05-31T13:26:37Z</time>
      </trkpt>
      <trkpt lat="46.31192" lon="-0.63392">
        <ele>4.3</ele>
        <time>2020-05-31T13:26:38Z</time>
      </trkpt>
      <trkpt lat="46.31195" lon="-0.63398">
        <ele>4.2</ele>
        <time>2020-05-31T13:26:39Z</time>
      </trkpt>
      <trkpt lat="46.31198" lon="-0.63405">
        <ele>4.2</ele>
        <time>2020-05-31T13:26:40Z</time>
      </trkpt>
      <trkpt lat="46.31201" lon="-0.63411">
        <ele>4.2</ele>
        <time>2020-05-31T13:26:41Z</time>
      </trkpt>
      <trkpt lat="46.31203" lon="-0.63417">
        <ele>4.2</ele>
        <time>2020-05-31T13:26:42Z</time>
      </trkpt>
      <trkpt lat="46.31206" lon="-0.63423">
        <ele>4.2</ele>
        <time>2020-05-31T13:26:43Z</time>
      </trkpt>
      <trkpt lat="46.31209" lon="-0.63429">
        <ele>4.3</ele>
        <time>2020-05-31T13:26:44Z</time>
      </trkpt>
      <trkpt lat="46.31211" lon="-0.63436">
        <ele>4.3</ele>
        <time>2020-05-31T13:26:45Z</time>
      </trkpt>
      <trkpt lat="46.31214" lon="-0.63443">
        <ele>4.3</ele>
        <time>2020-05-31T13:26:46Z</time>
      </trkpt>
      <trkpt lat="46.31216" lon="-0.63449">
        <ele>4.3</ele>
        <time>2020-05-31T13:26:47Z</time>
      </trkpt>
      <trkpt lat="46.31219" lon="-0.63455">
        <ele>4.3</ele>
        <time>2020-05-31T13:26:48Z</time>
      </trkpt>
      <trkpt lat="46.31221" lon="-0.63462">
        <ele>4.3</ele>
        <time>2020-05-31T13:26:49Z</time>
      </trkpt>
      <trkpt lat="46.31224" lon="-0.63469">
        <ele>4.3</ele>
        <time>2020-05-31T13:26:50Z</time>
      </trkpt>
      <trkpt lat="46.31226" lon="-0.63477">
        <ele>4.2</ele>
        <time>2020-05-31T13:26:51Z</time>
      </trkpt>
      <trkpt lat="46.3123" lon="-0.63485">
        <ele>4.2</ele>
        <time>2020-05-31T13:26:52Z</time>
      </trkpt>
      <trkpt lat="46.31233" lon="-0.63492">
        <ele>4.2</ele>
        <time>2020-05-31T13:26:53Z</time>
      </trkpt>
      <trkpt lat="46.31236" lon="-0.63499">
        <ele>4.2</ele>
        <time>2020-05-31T13:26:54Z</time>
      </trkpt>
      <trkpt lat="46.31239" lon="-0.63506">
        <ele>4.2</ele>
        <time>2020-05-31T13:26:55Z</time>
      </trkpt>
      <trkpt lat="46.31242" lon="-0.63512">
        <ele>4.2</ele>
        <time>2020-05-31T13:26:56Z</time>
      </trkpt>
      <trkpt lat="46.31245" lon="-0.63518">
        <ele>4.2</ele>
        <time>2020-05-31T13:26:57Z</time>
      </trkpt>
      <trkpt lat="46.31248" lon="-0.63525">
        <ele>4.2</ele>
        <time>2020-05-31T13:26:58Z</time>
      </trkpt>
      <trkpt lat="46.3125" lon="-0.63532">
        <ele>4.2</ele>
        <time>2020-05-31T13:26:59Z</time>
      </trkpt>
      <trkpt lat="46.31253" lon="-0.63539">
        <ele>4.2</ele>
        <time>2020-05-31T13:27:00Z</time>
      </trkpt>
      <trkpt lat="46.31256" lon="-0.63547">
        <ele>4.2</ele>
        <time>2020-05-31T13:27:01Z</time>
      </trkpt>
      <trkpt lat="46.3126" lon="-0.63555">
        <ele>4.2</ele>
        <time>2020-05-31T13:27:02Z</time>
      </trkpt>
      <trkpt lat="46.31263" lon="-0.63562">
        <ele>4.2</ele>
        <time>2020-05-31T13:27:03Z</time>
      </trkpt>
      <trkpt lat="46.31267" lon="-0.63569">
        <ele>4.2</ele>
        <time>2020-05-31T13:27:04Z</time>
      </trkpt>
      <trkpt lat="46.3127" lon="-0.63575">
        <ele>4.2</ele>
        <time>2020-05-31T13:27:05Z</time>
      </trkpt>
      <trkpt lat="46.31273" lon="-0.63582">
        <ele>4.1</ele>
        <time>2020-05-31T13:27:06Z</time>
      </trkpt>
      <trkpt lat="46.31276" lon="-0.63588">
        <ele>4.1</ele>
        <time>2020-05-31T13:27:07Z</time>
      </trkpt>
      <trkpt lat="46.31279" lon="-0.63595">
        <ele>4.1</ele>
        <time>2020-05-31T13:27:08Z</time>
      </trkpt>
      <trkpt lat="46.31282" lon="-0.63602">
        <ele>4.1</ele>
        <time>2020-05-31T13:27:09Z</time>
      </trkpt>
      <trkpt lat="46.31285" lon="-0.63608">
        <ele>4.1</ele>
        <time>2020-05-31T13:27:10Z</time>
      </trkpt>
      <trkpt lat="46.31288" lon="-0.63615">
        <ele>4.1</ele>
        <time>2020-05-31T13:27:11Z</time>
      </trkpt>
      <trkpt lat="46.31292" lon="-0.63621">
        <ele>4</ele>
        <time>2020-05-31T13:27:12Z</time>
      </trkpt>
      <trkpt lat="46.31295" lon="-0.63628">
        <ele>4</ele>
        <time>2020-05-31T13:27:13Z</time>
      </trkpt>
      <trkpt lat="46.31298" lon="-0.63635">
        <ele>4</ele>
        <time>2020-05-31T13:27:14Z</time>
      </trkpt>
      <trkpt lat="46.31301" lon="-0.63642">
        <ele>4</ele>
        <time>2020-05-31T13:27:15Z</time>
      </trkpt>
      <trkpt lat="46.31304" lon="-0.63651">
        <ele>4</ele>
        <time>2020-05-31T13:27:16Z</time>
      </trkpt>
      <trkpt lat="46.31306" lon="-0.63658">
        <ele>4</ele>
        <time>2020-05-31T13:27:17Z</time>
      </trkpt>
      <trkpt lat="46.3131" lon="-0.63664">
        <ele>4.1</ele>
        <time>2020-05-31T13:27:18Z</time>
      </trkpt>
      <trkpt lat="46.31312" lon="-0.63672">
        <ele>4.1</ele>
        <time>2020-05-31T13:27:19Z</time>
      </trkpt>
      <trkpt lat="46.31315" lon="-0.6368">
        <ele>4.1</ele>
        <time>2020-05-31T13:27:20Z</time>
      </trkpt>
      <trkpt lat="46.31318" lon="-0.63687">
        <ele>4.1</ele>
        <time>2020-05-31T13:27:21Z</time>
      </trkpt>
      <trkpt lat="46.3132" lon="-0.63695">
        <ele>4.1</ele>
        <time>2020-05-31T13:27:22Z</time>
      </trkpt>
      <trkpt lat="46.31323" lon="-0.63702">
        <ele>4.2</ele>
        <time>2020-05-31T13:27:23Z</time>
      </trkpt>
      <trkpt lat="46.31327" lon="-0.6371">
        <ele>4.2</ele>
        <time>2020-05-31T13:27:24Z</time>
      </trkpt>
      <trkpt lat="46.31329" lon="-0.63717">
        <ele>4.2</ele>
        <time>2020-05-31T13:27:25Z</time>
      </trkpt>
      <trkpt lat="46.31332" lon="-0.63725">
        <ele>4.2</ele>
        <time>2020-05-31T13:27:26Z</time>
      </trkpt>
      <trkpt lat="46.31334" lon="-0.63731">
        <ele>4.3</ele>
        <time>2020-05-31T13:27:27Z</time>
      </trkpt>
      <trkpt lat="46.31337" lon="-0.63738">
        <ele>4.3</ele>
        <time>2020-05-31T13:27:28Z</time>
      </trkpt>
      <trkpt lat="46.3134" lon="-0.63745">
        <ele>4.3</ele>
        <time>2020-05-31T13:27:29Z</time>
      </trkpt>
      <trkpt lat="46.31343" lon="-0.63751">
        <ele>4.3</ele>
        <time>2020-05-31T13:27:30Z</time>
      </trkpt>
      <trkpt lat="46.31347" lon="-0.63758">
        <ele>4.4</ele>
        <time>2020-05-31T13:27:31Z</time>
      </trkpt>
      <trkpt lat="46.3135" lon="-0.63766">
        <ele>4.4</ele>
        <time>2020-05-31T13:27:32Z</time>
      </trkpt>
      <trkpt lat="46.31353" lon="-0.63773">
        <ele>4.4</ele>
        <time>2020-05-31T13:27:33Z</time>
      </trkpt>
      <trkpt lat="46.31356" lon="-0.6378">
        <ele>4.4</ele>
        <time>2020-05-31T13:27:34Z</time>
      </trkpt>
      <trkpt lat="46.31359" lon="-0.63786">
        <ele>4.4</ele>
        <time>2020-05-31T13:27:35Z</time>
      </trkpt>
      <trkpt lat="46.31361" lon="-0.63793">
        <ele>4.3</ele>
        <time>2020-05-31T13:27:36Z</time>
      </trkpt>
      <trkpt lat="46.31364" lon="-0.638">
        <ele>4.3</ele>
        <time>2020-05-31T13:27:37Z</time>
      </trkpt>
      <trkpt lat="46.31367" lon="-0.63807">
        <ele>4.3</ele>
        <time>2020-05-31T13:27:38Z</time>
      </trkpt>
      <trkpt lat="46.31369" lon="-0.63813">
        <ele>4.3</ele>
        <time>2020-05-31T13:27:39Z</time>
      </trkpt>
      <trkpt lat="46.31373" lon="-0.6382">
        <ele>4.3</ele>
        <time>2020-05-31T13:27:40Z</time>
      </trkpt>
      <trkpt lat="46.31376" lon="-0.63826">
        <ele>4.3</ele>
        <time>2020-05-31T13:27:41Z</time>
      </trkpt>
      <trkpt lat="46.3138" lon="-0.6383">
        <ele>4.3</ele>
        <time>2020-05-31T13:27:42Z</time>
      </trkpt>
      <trkpt lat="46.31382" lon="-0.63834">
        <ele>4.3</ele>
        <time>2020-05-31T13:27:43Z</time>
      </trkpt>
      <trkpt lat="46.31386" lon="-0.63839">
        <ele>4.3</ele>
        <time>2020-05-31T13:27:44Z</time>
      </trkpt>
      <trkpt lat="46.3139" lon="-0.63845">
        <ele>4.3</ele>
        <time>2020-05-31T13:27:45Z</time>
      </trkpt>
      <trkpt lat="46.31396" lon="-0.6385">
        <ele>4.4</ele>
        <time>2020-05-31T13:27:46Z</time>
      </trkpt>
      <trkpt lat="46.31402" lon="-0.63854">
        <ele>4.5</ele>
        <time>2020-05-31T13:27:47Z</time>
      </trkpt>
      <trkpt lat="46.31407" lon="-0.63859">
        <ele>4.6</ele>
        <time>2020-05-31T13:27:48Z</time>
      </trkpt>
      <trkpt lat="46.31413" lon="-0.63863">
        <ele>4.6</ele>
        <time>2020-05-31T13:27:49Z</time>
      </trkpt>
      <trkpt lat="46.31418" lon="-0.63867">
        <ele>4.7</ele>
        <time>2020-05-31T13:27:50Z</time>
      </trkpt>
      <trkpt lat="46.31422" lon="-0.6387">
        <ele>4.8</ele>
        <time>2020-05-31T13:27:51Z</time>
      </trkpt>
      <trkpt lat="46.31427" lon="-0.63874">
        <ele>4.9</ele>
        <time>2020-05-31T13:27:52Z</time>
      </trkpt>
      <trkpt lat="46.31432" lon="-0.63879">
        <ele>4.9</ele>
        <time>2020-05-31T13:27:53Z</time>
      </trkpt>
      <trkpt lat="46.31436" lon="-0.63883">
        <ele>5</ele>
        <time>2020-05-31T13:27:54Z</time>
      </trkpt>
      <trkpt lat="46.31439" lon="-0.63886">
        <ele>5.1</ele>
        <time>2020-05-31T13:27:55Z</time>
      </trkpt>
      <trkpt lat="46.31442" lon="-0.63889">
        <ele>5.2</ele>
        <time>2020-05-31T13:27:56Z</time>
      </trkpt>
      <trkpt lat="46.31445" lon="-0.63893">
        <ele>5.2</ele>
        <time>2020-05-31T13:27:57Z</time>
      </trkpt>
      <trkpt lat="46.31448" lon="-0.63896">
        <ele>5.3</ele>
        <time>2020-05-31T13:27:58Z</time>
      </trkpt>
      <trkpt lat="46.31451" lon="-0.63899">
        <ele>5.4</ele>
        <time>2020-05-31T13:27:59Z</time>
      </trkpt>
      <trkpt lat="46.31455" lon="-0.63903">
        <ele>5.5</ele>
        <time>2020-05-31T13:28:00Z</time>
      </trkpt>
      <trkpt lat="46.31458" lon="-0.63908">
        <ele>5.6</ele>
        <time>2020-05-31T13:28:01Z</time>
      </trkpt>
      <trkpt lat="46.31461" lon="-0.63913">
        <ele>5.6</ele>
        <time>2020-05-31T13:28:02Z</time>
      </trkpt>
      <trkpt lat="46.31464" lon="-0.63918">
        <ele>5.7</ele>
        <time>2020-05-31T13:28:03Z</time>
      </trkpt>
      <trkpt lat="46.31464" lon="-0.63924">
        <ele>5.8</ele>
        <time>2020-05-31T13:28:04Z</time>
      </trkpt>
      <trkpt lat="46.31464" lon="-0.63931">
        <ele>5.9</ele>
        <time>2020-05-31T13:28:05Z</time>
      </trkpt>
      <trkpt lat="46.31464" lon="-0.63939">
        <ele>6</ele>
        <time>2020-05-31T13:28:06Z</time>
      </trkpt>
      <trkpt lat="46.31464" lon="-0.63946">
        <ele>6.1</ele>
        <time>2020-05-31T13:28:07Z</time>
      </trkpt>
      <trkpt lat="46.31465" lon="-0.63955">
        <ele>6.3</ele>
        <time>2020-05-31T13:28:08Z</time>
      </trkpt>
      <trkpt lat="46.31464" lon="-0.63962">
        <ele>6.4</ele>
        <time>2020-05-31T13:28:09Z</time>
      </trkpt>
      <trkpt lat="46.31463" lon="-0.63966">
        <ele>6.4</ele>
        <time>2020-05-31T13:28:10Z</time>
      </trkpt>
      <trkpt lat="46.31461" lon="-0.6397">
        <ele>6.5</ele>
        <time>2020-05-31T13:28:11Z</time>
      </trkpt>
      <trkpt lat="46.31458" lon="-0.63973">
        <ele>6.5</ele>
        <time>2020-05-31T13:28:12Z</time>
      </trkpt>
      <trkpt lat="46.31455" lon="-0.63975">
        <ele>6.6</ele>
        <time>2020-05-31T13:28:13Z</time>
      </trkpt>
      <trkpt lat="46.31452" lon="-0.63977">
        <ele>6.6</ele>
        <time>2020-05-31T13:28:14Z</time>
      </trkpt>
      <trkpt lat="46.31448" lon="-0.6398">
        <ele>6.6</ele>
        <time>2020-05-31T13:28:15Z</time>
      </trkpt>
      <trkpt lat="46.31443" lon="-0.63981">
        <ele>6.7</ele>
        <time>2020-05-31T13:28:16Z</time>
      </trkpt>
      <trkpt lat="46.31439" lon="-0.63986">
        <ele>6.7</ele>
        <time>2020-05-31T13:28:17Z</time>
      </trkpt>
      <trkpt lat="46.31436" lon="-0.63989">
        <ele>6.6</ele>
        <time>2020-05-31T13:28:18Z</time>
      </trkpt>
      <trkpt lat="46.31432" lon="-0.63992">
        <ele>6.6</ele>
        <time>2020-05-31T13:28:19Z</time>
      </trkpt>
      <trkpt lat="46.31429" lon="-0.63994">
        <ele>6.6</ele>
        <time>2020-05-31T13:28:20Z</time>
      </trkpt>
      <trkpt lat="46.31425" lon="-0.63996">
        <ele>6.6</ele>
        <time>2020-05-31T13:28:21Z</time>
      </trkpt>
      <trkpt lat="46.31422" lon="-0.64">
        <ele>6.5</ele>
        <time>2020-05-31T13:28:22Z</time>
      </trkpt>
      <trkpt lat="46.31417" lon="-0.64004">
        <ele>6.5</ele>
        <time>2020-05-31T13:28:23Z</time>
      </trkpt>
      <trkpt lat="46.31414" lon="-0.64007">
        <ele>6.4</ele>
        <time>2020-05-31T13:28:24Z</time>
      </trkpt>
      <trkpt lat="46.31408" lon="-0.64011">
        <ele>6.4</ele>
        <time>2020-05-31T13:28:25Z</time>
      </trkpt>
      <trkpt lat="46.31404" lon="-0.64013">
        <ele>6.3</ele>
        <time>2020-05-31T13:28:26Z</time>
      </trkpt>
      <trkpt lat="46.314" lon="-0.64015">
        <ele>6.2</ele>
        <time>2020-05-31T13:28:27Z</time>
      </trkpt>
      <trkpt lat="46.31395" lon="-0.64019">
        <ele>6.1</ele>
        <time>2020-05-31T13:28:28Z</time>
      </trkpt>
      <trkpt lat="46.3139" lon="-0.64022">
        <ele>6</ele>
        <time>2020-05-31T13:28:29Z</time>
      </trkpt>
      <trkpt lat="46.31385" lon="-0.64025">
        <ele>5.9</ele>
        <time>2020-05-31T13:28:30Z</time>
      </trkpt>
      <trkpt lat="46.3138" lon="-0.64028">
        <ele>5.9</ele>
        <time>2020-05-31T13:28:31Z</time>
      </trkpt>
      <trkpt lat="46.31375" lon="-0.64033">
        <ele>5.8</ele>
        <time>2020-05-31T13:28:32Z</time>
      </trkpt>
      <trkpt lat="46.31371" lon="-0.64036">
        <ele>5.8</ele>
        <time>2020-05-31T13:28:33Z</time>
      </trkpt>
      <trkpt lat="46.31366" lon="-0.64039">
        <ele>5.7</ele>
        <time>2020-05-31T13:28:34Z</time>
      </trkpt>
      <trkpt lat="46.31361" lon="-0.64042">
        <ele>5.7</ele>
        <time>2020-05-31T13:28:35Z</time>
      </trkpt>
      <trkpt lat="46.31355" lon="-0.64045">
        <ele>5.7</ele>
        <time>2020-05-31T13:28:36Z</time>
      </trkpt>
      <trkpt lat="46.31349" lon="-0.64048">
        <ele>5.7</ele>
        <time>2020-05-31T13:28:37Z</time>
      </trkpt>
      <trkpt lat="46.31344" lon="-0.64052">
        <ele>5.7</ele>
        <time>2020-05-31T13:28:38Z</time>
      </trkpt>
      <trkpt lat="46.31339" lon="-0.64057">
        <ele>5.7</ele>
        <time>2020-05-31T13:28:39Z</time>
      </trkpt>
      <trkpt lat="46.31335" lon="-0.64062">
        <ele>5.7</ele>
        <time>2020-05-31T13:28:40Z</time>
      </trkpt>
      <trkpt lat="46.3133" lon="-0.64066">
        <ele>5.7</ele>
        <time>2020-05-31T13:28:41Z</time>
      </trkpt>
      <trkpt lat="46.31325" lon="-0.64071">
        <ele>5.7</ele>
        <time>2020-05-31T13:28:42Z</time>
      </trkpt>
      <trkpt lat="46.31321" lon="-0.64074">
        <ele>5.7</ele>
        <time>2020-05-31T13:28:43Z</time>
      </trkpt>
      <trkpt lat="46.31315" lon="-0.64078">
        <ele>5.6</ele>
        <time>2020-05-31T13:28:44Z</time>
      </trkpt>
      <trkpt lat="46.31309" lon="-0.64082">
        <ele>5.6</ele>
        <time>2020-05-31T13:28:45Z</time>
      </trkpt>
      <trkpt lat="46.31305" lon="-0.64083">
        <ele>5.6</ele>
        <time>2020-05-31T13:28:46Z</time>
      </trkpt>
      <trkpt lat="46.313" lon="-0.64085">
        <ele>5.6</ele>
        <time>2020-05-31T13:28:47Z</time>
      </trkpt>
      <trkpt lat="46.31294" lon="-0.64089">
        <ele>5.5</ele>
        <time>2020-05-31T13:28:48Z</time>
      </trkpt>
      <trkpt lat="46.31288" lon="-0.64093">
        <ele>5.5</ele>
        <time>2020-05-31T13:28:49Z</time>
      </trkpt>
      <trkpt lat="46.31282" lon="-0.64097">
        <ele>5.4</ele>
        <time>2020-05-31T13:28:50Z</time>
      </trkpt>
      <trkpt lat="46.31277" lon="-0.641">
        <ele>5.4</ele>
        <time>2020-05-31T13:28:51Z</time>
      </trkpt>
      <trkpt lat="46.31271" lon="-0.64104">
        <ele>5.3</ele>
        <time>2020-05-31T13:28:52Z</time>
      </trkpt>
      <trkpt lat="46.31265" lon="-0.64108">
        <ele>5.2</ele>
        <time>2020-05-31T13:28:53Z</time>
      </trkpt>
      <trkpt lat="46.31258" lon="-0.64111">
        <ele>5.2</ele>
        <time>2020-05-31T13:28:54Z</time>
      </trkpt>
      <trkpt lat="46.31252" lon="-0.64115">
        <ele>5.1</ele>
        <time>2020-05-31T13:28:55Z</time>
      </trkpt>
      <trkpt lat="46.31247" lon="-0.64119">
        <ele>5.1</ele>
        <time>2020-05-31T13:28:56Z</time>
      </trkpt>
      <trkpt lat="46.31241" lon="-0.64123">
        <ele>5.1</ele>
        <time>2020-05-31T13:28:57Z</time>
      </trkpt>
      <trkpt lat="46.31235" lon="-0.64129">
        <ele>5.1</ele>
        <time>2020-05-31T13:28:58Z</time>
      </trkpt>
      <trkpt lat="46.31229" lon="-0.64132">
        <ele>5.1</ele>
        <time>2020-05-31T13:28:59Z</time>
      </trkpt>
      <trkpt lat="46.31223" lon="-0.64136">
        <ele>5.1</ele>
        <time>2020-05-31T13:29:00Z</time>
      </trkpt>
      <trkpt lat="46.31218" lon="-0.64139">
        <ele>5.1</ele>
        <time>2020-05-31T13:29:01Z</time>
      </trkpt>
      <trkpt lat="46.31212" lon="-0.64143">
        <ele>5</ele>
        <time>2020-05-31T13:29:02Z</time>
      </trkpt>
      <trkpt lat="46.31207" lon="-0.64146">
        <ele>5</ele>
        <time>2020-05-31T13:29:03Z</time>
      </trkpt>
      <trkpt lat="46.31201" lon="-0.64148">
        <ele>5</ele>
        <time>2020-05-31T13:29:04Z</time>
      </trkpt>
      <trkpt lat="46.31195" lon="-0.64153">
        <ele>4.9</ele>
        <time>2020-05-31T13:29:05Z</time>
      </trkpt>
      <trkpt lat="46.31189" lon="-0.64158">
        <ele>4.9</ele>
        <time>2020-05-31T13:29:06Z</time>
      </trkpt>
      <trkpt lat="46.31183" lon="-0.64164">
        <ele>4.8</ele>
        <time>2020-05-31T13:29:07Z</time>
      </trkpt>
      <trkpt lat="46.31176" lon="-0.6417">
        <ele>4.8</ele>
        <time>2020-05-31T13:29:08Z</time>
      </trkpt>
      <trkpt lat="46.31169" lon="-0.64175">
        <ele>4.8</ele>
        <time>2020-05-31T13:29:09Z</time>
      </trkpt>
      <trkpt lat="46.31163" lon="-0.6418">
        <ele>4.7</ele>
        <time>2020-05-31T13:29:10Z</time>
      </trkpt>
      <trkpt lat="46.31157" lon="-0.64185">
        <ele>4.7</ele>
        <time>2020-05-31T13:29:11Z</time>
      </trkpt>
      <trkpt lat="46.31151" lon="-0.64191">
        <ele>4.7</ele>
        <time>2020-05-31T13:29:12Z</time>
      </trkpt>
      <trkpt lat="46.31145" lon="-0.64197">
        <ele>4.7</ele>
        <time>2020-05-31T13:29:13Z</time>
      </trkpt>
      <trkpt lat="46.31139" lon="-0.64202">
        <ele>4.8</ele>
        <time>2020-05-31T13:29:14Z</time>
      </trkpt>
      <trkpt lat="46.31134" lon="-0.64207">
        <ele>4.9</ele>
        <time>2020-05-31T13:29:15Z</time>
      </trkpt>
      <trkpt lat="46.31129" lon="-0.64212">
        <ele>4.9</ele>
        <time>2020-05-31T13:29:16Z</time>
      </trkpt>
      <trkpt lat="46.31125" lon="-0.64216">
        <ele>5</ele>
        <time>2020-05-31T13:29:17Z</time>
      </trkpt>
      <trkpt lat="46.3112" lon="-0.64221">
        <ele>5</ele>
        <time>2020-05-31T13:29:18Z</time>
      </trkpt>
      <trkpt lat="46.31116" lon="-0.64224">
        <ele>5.1</ele>
        <time>2020-05-31T13:29:19Z</time>
      </trkpt>
      <trkpt lat="46.31112" lon="-0.64228">
        <ele>5.2</ele>
        <time>2020-05-31T13:29:20Z</time>
      </trkpt>
      <trkpt lat="46.31107" lon="-0.64232">
        <ele>5.2</ele>
        <time>2020-05-31T13:29:21Z</time>
      </trkpt>
      <trkpt lat="46.31104" lon="-0.64235">
        <ele>5.3</ele>
        <time>2020-05-31T13:29:22Z</time>
      </trkpt>
      <trkpt lat="46.311" lon="-0.64239">
        <ele>5.3</ele>
        <time>2020-05-31T13:29:23Z</time>
      </trkpt>
      <trkpt lat="46.31096" lon="-0.64242">
        <ele>5.4</ele>
        <time>2020-05-31T13:29:24Z</time>
      </trkpt>
      <trkpt lat="46.31093" lon="-0.64246">
        <ele>5.5</ele>
        <time>2020-05-31T13:29:25Z</time>
      </trkpt>
      <trkpt lat="46.31089" lon="-0.6425">
        <ele>5.5</ele>
        <time>2020-05-31T13:29:26Z</time>
      </trkpt>
      <trkpt lat="46.31087" lon="-0.64253">
        <ele>5.5</ele>
        <time>2020-05-31T13:29:27Z</time>
      </trkpt>
      <trkpt lat="46.31084" lon="-0.64257">
        <ele>5.6</ele>
        <time>2020-05-31T13:29:28Z</time>
      </trkpt>
      <trkpt lat="46.31082" lon="-0.64259">
        <ele>5.6</ele>
        <time>2020-05-31T13:29:29Z</time>
      </trkpt>
      <trkpt lat="46.31078" lon="-0.64263">
        <ele>5.6</ele>
        <time>2020-05-31T13:29:30Z</time>
      </trkpt>
      <trkpt lat="46.31074" lon="-0.64268">
        <ele>5.7</ele>
        <time>2020-05-31T13:29:31Z</time>
      </trkpt>
      <trkpt lat="46.3107" lon="-0.64273">
        <ele>5.7</ele>
        <time>2020-05-31T13:29:32Z</time>
      </trkpt>
      <trkpt lat="46.31066" lon="-0.64276">
        <ele>5.8</ele>
        <time>2020-05-31T13:29:33Z</time>
      </trkpt>
      <trkpt lat="46.31062" lon="-0.64279">
        <ele>5.8</ele>
        <time>2020-05-31T13:29:34Z</time>
      </trkpt>
      <trkpt lat="46.31058" lon="-0.64284">
        <ele>5.8</ele>
        <time>2020-05-31T13:29:35Z</time>
      </trkpt>
      <trkpt lat="46.31055" lon="-0.64287">
        <ele>5.9</ele>
        <time>2020-05-31T13:29:36Z</time>
      </trkpt>
      <trkpt lat="46.31052" lon="-0.64291">
        <ele>5.9</ele>
        <time>2020-05-31T13:29:37Z</time>
      </trkpt>
      <trkpt lat="46.31047" lon="-0.64294">
        <ele>5.9</ele>
        <time>2020-05-31T13:29:38Z</time>
      </trkpt>
      <trkpt lat="46.31043" lon="-0.64299">
        <ele>6</ele>
        <time>2020-05-31T13:29:39Z</time>
      </trkpt>
      <trkpt lat="46.31039" lon="-0.64302">
        <ele>6</ele>
        <time>2020-05-31T13:29:40Z</time>
      </trkpt>
      <trkpt lat="46.31035" lon="-0.64306">
        <ele>6</ele>
        <time>2020-05-31T13:29:41Z</time>
      </trkpt>
      <trkpt lat="46.3103" lon="-0.6431">
        <ele>6</ele>
        <time>2020-05-31T13:29:42Z</time>
      </trkpt>
      <trkpt lat="46.31026" lon="-0.64315">
        <ele>6</ele>
        <time>2020-05-31T13:29:43Z</time>
      </trkpt>
      <trkpt lat="46.31021" lon="-0.64319">
        <ele>6</ele>
        <time>2020-05-31T13:29:44Z</time>
      </trkpt>
      <trkpt lat="46.31015" lon="-0.64325">
        <ele>6</ele>
        <time>2020-05-31T13:29:45Z</time>
      </trkpt>
      <trkpt lat="46.3101" lon="-0.64331">
        <ele>6</ele>
        <time>2020-05-31T13:29:46Z</time>
      </trkpt>
      <trkpt lat="46.31004" lon="-0.64334">
        <ele>6</ele>
        <time>2020-05-31T13:29:47Z</time>
      </trkpt>
      <trkpt lat="46.30998" lon="-0.64341">
        <ele>6</ele>
        <time>2020-05-31T13:29:48Z</time>
      </trkpt>
      <trkpt lat="46.30992" lon="-0.64345">
        <ele>6</ele>
        <time>2020-05-31T13:29:49Z</time>
      </trkpt>
      <trkpt lat="46.30987" lon="-0.64348">
        <ele>6</ele>
        <time>2020-05-31T13:29:50Z</time>
      </trkpt>
      <trkpt lat="46.30981" lon="-0.64353">
        <ele>6</ele>
        <time>2020-05-31T13:29:51Z</time>
      </trkpt>
      <trkpt lat="46.30976" lon="-0.64358">
        <ele>6</ele>
        <time>2020-05-31T13:29:52Z</time>
      </trkpt>
      <trkpt lat="46.30971" lon="-0.64365">
        <ele>6</ele>
        <time>2020-05-31T13:29:53Z</time>
      </trkpt>
      <trkpt lat="46.30966" lon="-0.6437">
        <ele>6</ele>
        <time>2020-05-31T13:29:54Z</time>
      </trkpt>
      <trkpt lat="46.30961" lon="-0.64374">
        <ele>6</ele>
        <time>2020-05-31T13:29:55Z</time>
      </trkpt>
      <trkpt lat="46.30955" lon="-0.64378">
        <ele>6.1</ele>
        <time>2020-05-31T13:29:56Z</time>
      </trkpt>
      <trkpt lat="46.30949" lon="-0.64382">
        <ele>6.2</ele>
        <time>2020-05-31T13:29:57Z</time>
      </trkpt>
      <trkpt lat="46.30943" lon="-0.64387">
        <ele>6.4</ele>
        <time>2020-05-31T13:29:58Z</time>
      </trkpt>
      <trkpt lat="46.30937" lon="-0.64391">
        <ele>6.4</ele>
        <time>2020-05-31T13:29:59Z</time>
      </trkpt>
      <trkpt lat="46.30931" lon="-0.64397">
        <ele>6.5</ele>
        <time>2020-05-31T13:30:00Z</time>
      </trkpt>
      <trkpt lat="46.30926" lon="-0.64401">
        <ele>6.6</ele>
        <time>2020-05-31T13:30:01Z</time>
      </trkpt>
      <trkpt lat="46.30921" lon="-0.64404">
        <ele>6.6</ele>
        <time>2020-05-31T13:30:02Z</time>
      </trkpt>
      <trkpt lat="46.30917" lon="-0.64406">
        <ele>6.6</ele>
        <time>2020-05-31T13:30:03Z</time>
      </trkpt>
      <trkpt lat="46.30912" lon="-0.64408">
        <ele>6.7</ele>
        <time>2020-05-31T13:30:04Z</time>
      </trkpt>
      <trkpt lat="46.3091" lon="-0.6441">
        <ele>6.7</ele>
        <time>2020-05-31T13:30:05Z</time>
      </trkpt>
      <trkpt lat="46.30906" lon="-0.64413">
        <ele>6.8</ele>
        <time>2020-05-31T13:30:06Z</time>
      </trkpt>
      <trkpt lat="46.30903" lon="-0.64415">
        <ele>6.8</ele>
        <time>2020-05-31T13:30:07Z</time>
      </trkpt>
      <trkpt lat="46.30899" lon="-0.64418">
        <ele>6.8</ele>
        <time>2020-05-31T13:30:08Z</time>
      </trkpt>
      <trkpt lat="46.30894" lon="-0.64421">
        <ele>6.9</ele>
        <time>2020-05-31T13:30:09Z</time>
      </trkpt>
      <trkpt lat="46.3089" lon="-0.64426">
        <ele>6.9</ele>
        <time>2020-05-31T13:30:10Z</time>
      </trkpt>
      <trkpt lat="46.30886" lon="-0.64429">
        <ele>6.9</ele>
        <time>2020-05-31T13:30:11Z</time>
      </trkpt>
      <trkpt lat="46.30881" lon="-0.64432">
        <ele>7</ele>
        <time>2020-05-31T13:30:12Z</time>
      </trkpt>
      <trkpt lat="46.30877" lon="-0.64436">
        <ele>7</ele>
        <time>2020-05-31T13:30:13Z</time>
      </trkpt>
      <trkpt lat="46.30872" lon="-0.6444">
        <ele>7</ele>
        <time>2020-05-31T13:30:14Z</time>
      </trkpt>
      <trkpt lat="46.30866" lon="-0.64441">
        <ele>7</ele>
        <time>2020-05-31T13:30:15Z</time>
      </trkpt>
      <trkpt lat="46.30861" lon="-0.64445">
        <ele>7</ele>
        <time>2020-05-31T13:30:16Z</time>
      </trkpt>
      <trkpt lat="46.30856" lon="-0.64448">
        <ele>7</ele>
        <time>2020-05-31T13:30:17Z</time>
      </trkpt>
      <trkpt lat="46.30851" lon="-0.64452">
        <ele>7</ele>
        <time>2020-05-31T13:30:18Z</time>
      </trkpt>
      <trkpt lat="46.30846" lon="-0.64457">
        <ele>7</ele>
        <time>2020-05-31T13:30:19Z</time>
      </trkpt>
      <trkpt lat="46.30842" lon="-0.64463">
        <ele>7</ele>
        <time>2020-05-31T13:30:20Z</time>
      </trkpt>
      <trkpt lat="46.3084" lon="-0.64471">
        <ele>7</ele>
        <time>2020-05-31T13:30:21Z</time>
      </trkpt>
      <trkpt lat="46.30838" lon="-0.64478">
        <ele>7.1</ele>
        <time>2020-05-31T13:30:22Z</time>
      </trkpt>
      <trkpt lat="46.30838" lon="-0.64485">
        <ele>7.3</ele>
        <time>2020-05-31T13:30:23Z</time>
      </trkpt>
      <trkpt lat="46.30838" lon="-0.64492">
        <ele>7.4</ele>
        <time>2020-05-31T13:30:24Z</time>
      </trkpt>
      <trkpt lat="46.30839" lon="-0.64499">
        <ele>7.6</ele>
        <time>2020-05-31T13:30:25Z</time>
      </trkpt>
      <trkpt lat="46.30839" lon="-0.64505">
        <ele>7.7</ele>
        <time>2020-05-31T13:30:26Z</time>
      </trkpt>
      <trkpt lat="46.3084" lon="-0.64511">
        <ele>7.8</ele>
        <time>2020-05-31T13:30:27Z</time>
      </trkpt>
      <trkpt lat="46.30841" lon="-0.64517">
        <ele>7.9</ele>
        <time>2020-05-31T13:30:28Z</time>
      </trkpt>
      <trkpt lat="46.30843" lon="-0.64522">
        <ele>8</ele>
        <time>2020-05-31T13:30:29Z</time>
      </trkpt>
      <trkpt lat="46.30844" lon="-0.64526">
        <ele>8</ele>
        <time>2020-05-31T13:30:30Z</time>
      </trkpt>
      <trkpt lat="46.30845" lon="-0.64531">
        <ele>8.1</ele>
        <time>2020-05-31T13:30:31Z</time>
      </trkpt>
      <trkpt lat="46.30846" lon="-0.64538">
        <ele>8.2</ele>
        <time>2020-05-31T13:30:32Z</time>
      </trkpt>
      <trkpt lat="46.30846" lon="-0.64544">
        <ele>8.2</ele>
        <time>2020-05-31T13:30:33Z</time>
      </trkpt>
      <trkpt lat="46.30848" lon="-0.64551">
        <ele>8.3</ele>
        <time>2020-05-31T13:30:34Z</time>
      </trkpt>
      <trkpt lat="46.30849" lon="-0.64557">
        <ele>8.3</ele>
        <time>2020-05-31T13:30:35Z</time>
      </trkpt>
      <trkpt lat="46.30849" lon="-0.64563">
        <ele>8.3</ele>
        <time>2020-05-31T13:30:36Z</time>
      </trkpt>
      <trkpt lat="46.30851" lon="-0.6457">
        <ele>8.3</ele>
        <time>2020-05-31T13:30:37Z</time>
      </trkpt>
      <trkpt lat="46.30852" lon="-0.64576">
        <ele>8.3</ele>
        <time>2020-05-31T13:30:38Z</time>
      </trkpt>
      <trkpt lat="46.30853" lon="-0.64583">
        <ele>8.3</ele>
        <time>2020-05-31T13:30:39Z</time>
      </trkpt>
      <trkpt lat="46.30854" lon="-0.6459">
        <ele>8.2</ele>
        <time>2020-05-31T13:30:40Z</time>
      </trkpt>
      <trkpt lat="46.30855" lon="-0.64597">
        <ele>8.1</ele>
        <time>2020-05-31T13:30:41Z</time>
      </trkpt>
      <trkpt lat="46.30856" lon="-0.64605">
        <ele>8</ele>
        <time>2020-05-31T13:30:42Z</time>
      </trkpt>
      <trkpt lat="46.30856" lon="-0.64614">
        <ele>7.9</ele>
        <time>2020-05-31T13:30:43Z</time>
      </trkpt>
      <trkpt lat="46.30858" lon="-0.64623">
        <ele>7.7</ele>
        <time>2020-05-31T13:30:44Z</time>
      </trkpt>
      <trkpt lat="46.30859" lon="-0.64632">
        <ele>7.5</ele>
        <time>2020-05-31T13:30:45Z</time>
      </trkpt>
      <trkpt lat="46.30861" lon="-0.6464">
        <ele>7.3</ele>
        <time>2020-05-31T13:30:46Z</time>
      </trkpt>
      <trkpt lat="46.30861" lon="-0.64647">
        <ele>7.1</ele>
        <time>2020-05-31T13:30:47Z</time>
      </trkpt>
      <trkpt lat="46.30862" lon="-0.64656">
        <ele>6.8</ele>
        <time>2020-05-31T13:30:48Z</time>
      </trkpt>
      <trkpt lat="46.30863" lon="-0.64664">
        <ele>6.5</ele>
        <time>2020-05-31T13:30:49Z</time>
      </trkpt>
      <trkpt lat="46.30865" lon="-0.64672">
        <ele>6.3</ele>
        <time>2020-05-31T13:30:50Z</time>
      </trkpt>
      <trkpt lat="46.30866" lon="-0.64678">
        <ele>6.1</ele>
        <time>2020-05-31T13:30:51Z</time>
      </trkpt>
      <trkpt lat="46.30867" lon="-0.64684">
        <ele>6</ele>
        <time>2020-05-31T13:30:52Z</time>
      </trkpt>
      <trkpt lat="46.30868" lon="-0.6469">
        <ele>5.8</ele>
        <time>2020-05-31T13:30:53Z</time>
      </trkpt>
      <trkpt lat="46.30868" lon="-0.64695">
        <ele>5.8</ele>
        <time>2020-05-31T13:30:54Z</time>
      </trkpt>
      <trkpt lat="46.30868" lon="-0.64701">
        <ele>5.7</ele>
        <time>2020-05-31T13:30:55Z</time>
      </trkpt>
      <trkpt lat="46.30866" lon="-0.64705">
        <ele>5.7</ele>
        <time>2020-05-31T13:30:56Z</time>
      </trkpt>
      <trkpt lat="46.30863" lon="-0.6471">
        <ele>5.7</ele>
        <time>2020-05-31T13:30:57Z</time>
      </trkpt>
      <trkpt lat="46.3086" lon="-0.64713">
        <ele>5.6</ele>
        <time>2020-05-31T13:30:58Z</time>
      </trkpt>
      <trkpt lat="46.30858" lon="-0.64717">
        <ele>5.6</ele>
        <time>2020-05-31T13:30:59Z</time>
      </trkpt>
      <trkpt lat="46.30855" lon="-0.64722">
        <ele>5.6</ele>
        <time>2020-05-31T13:31:00Z</time>
      </trkpt>
      <trkpt lat="46.30852" lon="-0.64727">
        <ele>5.5</ele>
        <time>2020-05-31T13:31:01Z</time>
      </trkpt>
      <trkpt lat="46.30848" lon="-0.64731">
        <ele>5.5</ele>
        <time>2020-05-31T13:31:02Z</time>
      </trkpt>
      <trkpt lat="46.30844" lon="-0.64737">
        <ele>5.5</ele>
        <time>2020-05-31T13:31:03Z</time>
      </trkpt>
      <trkpt lat="46.3084" lon="-0.64742">
        <ele>5.6</ele>
        <time>2020-05-31T13:31:04Z</time>
      </trkpt>
      <trkpt lat="46.30836" lon="-0.64747">
        <ele>5.6</ele>
        <time>2020-05-31T13:31:05Z</time>
      </trkpt>
      <trkpt lat="46.30832" lon="-0.64751">
        <ele>5.7</ele>
        <time>2020-05-31T13:31:06Z</time>
      </trkpt>
      <trkpt lat="46.30826" lon="-0.6476">
        <ele>5.8</ele>
        <time>2020-05-31T13:31:07Z</time>
      </trkpt>
      <trkpt lat="46.30822" lon="-0.64763">
        <ele>5.8</ele>
        <time>2020-05-31T13:31:08Z</time>
      </trkpt>
      <trkpt lat="46.30817" lon="-0.64767">
        <ele>5.9</ele>
        <time>2020-05-31T13:31:09Z</time>
      </trkpt>
      <trkpt lat="46.30814" lon="-0.64772">
        <ele>6</ele>
        <time>2020-05-31T13:31:10Z</time>
      </trkpt>
      <trkpt lat="46.30809" lon="-0.64777">
        <ele>6.1</ele>
        <time>2020-05-31T13:31:11Z</time>
      </trkpt>
      <trkpt lat="46.30806" lon="-0.64782">
        <ele>6.1</ele>
        <time>2020-05-31T13:31:12Z</time>
      </trkpt>
      <trkpt lat="46.30801" lon="-0.64788">
        <ele>6.3</ele>
        <time>2020-05-31T13:31:13Z</time>
      </trkpt>
      <trkpt lat="46.30796" lon="-0.64793">
        <ele>6.4</ele>
        <time>2020-05-31T13:31:14Z</time>
      </trkpt>
      <trkpt lat="46.30793" lon="-0.64799">
        <ele>6.5</ele>
        <time>2020-05-31T13:31:15Z</time>
      </trkpt>
      <trkpt lat="46.3079" lon="-0.64805">
        <ele>6.6</ele>
        <time>2020-05-31T13:31:16Z</time>
      </trkpt>
      <trkpt lat="46.30788" lon="-0.64813">
        <ele>6.7</ele>
        <time>2020-05-31T13:31:17Z</time>
      </trkpt>
      <trkpt lat="46.30788" lon="-0.64821">
        <ele>6.8</ele>
        <time>2020-05-31T13:31:18Z</time>
      </trkpt>
      <trkpt lat="46.30787" lon="-0.64828">
        <ele>6.8</ele>
        <time>2020-05-31T13:31:19Z</time>
      </trkpt>
      <trkpt lat="46.30786" lon="-0.64834">
        <ele>6.9</ele>
        <time>2020-05-31T13:31:20Z</time>
      </trkpt>
      <trkpt lat="46.30786" lon="-0.64841">
        <ele>6.9</ele>
        <time>2020-05-31T13:31:21Z</time>
      </trkpt>
      <trkpt lat="46.30785" lon="-0.64848">
        <ele>7</ele>
        <time>2020-05-31T13:31:22Z</time>
      </trkpt>
      <trkpt lat="46.30785" lon="-0.64854">
        <ele>7</ele>
        <time>2020-05-31T13:31:23Z</time>
      </trkpt>
      <trkpt lat="46.30784" lon="-0.6486">
        <ele>7.1</ele>
        <time>2020-05-31T13:31:24Z</time>
      </trkpt>
      <trkpt lat="46.30784" lon="-0.64866">
        <ele>7.1</ele>
        <time>2020-05-31T13:31:25Z</time>
      </trkpt>
      <trkpt lat="46.30781" lon="-0.64869">
        <ele>7.2</ele>
        <time>2020-05-31T13:31:26Z</time>
      </trkpt>
      <trkpt lat="46.30778" lon="-0.64872">
        <ele>7.4</ele>
        <time>2020-05-31T13:31:27Z</time>
      </trkpt>
      <trkpt lat="46.30775" lon="-0.64872">
        <ele>7.6</ele>
        <time>2020-05-31T13:31:28Z</time>
      </trkpt>
      <trkpt lat="46.30771" lon="-0.64871">
        <ele>7.9</ele>
        <time>2020-05-31T13:31:29Z</time>
      </trkpt>
      <trkpt lat="46.30767" lon="-0.64871">
        <ele>8.3</ele>
        <time>2020-05-31T13:31:30Z</time>
      </trkpt>
      <trkpt lat="46.30763" lon="-0.64871">
        <ele>8.6</ele>
        <time>2020-05-31T13:31:31Z</time>
      </trkpt>
      <trkpt lat="46.3076" lon="-0.64872">
        <ele>8.9</ele>
        <time>2020-05-31T13:31:32Z</time>
      </trkpt>
      <trkpt lat="46.30756" lon="-0.64873">
        <ele>9.3</ele>
        <time>2020-05-31T13:31:33Z</time>
      </trkpt>
      <trkpt lat="46.30752" lon="-0.64872">
        <ele>9.6</ele>
        <time>2020-05-31T13:31:34Z</time>
      </trkpt>
      <trkpt lat="46.30748" lon="-0.64872">
        <ele>10</ele>
        <time>2020-05-31T13:31:35Z</time>
      </trkpt>
      <trkpt lat="46.30745" lon="-0.64876">
        <ele>10.3</ele>
        <time>2020-05-31T13:31:36Z</time>
      </trkpt>
      <trkpt lat="46.30743" lon="-0.6488">
        <ele>10.6</ele>
        <time>2020-05-31T13:31:37Z</time>
      </trkpt>
      <trkpt lat="46.30741" lon="-0.64883">
        <ele>10.7</ele>
        <time>2020-05-31T13:31:38Z</time>
      </trkpt>
      <trkpt lat="46.30741" lon="-0.64884">
        <ele>10.7</ele>
        <time>2020-05-31T13:31:39Z</time>
      </trkpt>
      <trkpt lat="46.30741" lon="-0.64886">
        <ele>10.7</ele>
        <time>2020-05-31T13:31:40Z</time>
      </trkpt>
      <trkpt lat="46.30741" lon="-0.64889">
        <ele>10.7</ele>
        <time>2020-05-31T13:31:41Z</time>
      </trkpt>
      <trkpt lat="46.30742" lon="-0.64893">
        <ele>10.8</ele>
        <time>2020-05-31T13:31:42Z</time>
      </trkpt>
      <trkpt lat="46.30742" lon="-0.64895">
        <ele>10.9</ele>
        <time>2020-05-31T13:31:43Z</time>
      </trkpt>
      <trkpt lat="46.30742" lon="-0.64899">
        <ele>10.9</ele>
        <time>2020-05-31T13:31:44Z</time>
      </trkpt>
      <trkpt lat="46.30743" lon="-0.64904">
        <ele>11</ele>
        <time>2020-05-31T13:31:45Z</time>
      </trkpt>
      <trkpt lat="46.30743" lon="-0.64908">
        <ele>11.1</ele>
        <time>2020-05-31T13:31:46Z</time>
      </trkpt>
      <trkpt lat="46.30743" lon="-0.64912">
        <ele>11.2</ele>
        <time>2020-05-31T13:31:47Z</time>
      </trkpt>
      <trkpt lat="46.30743" lon="-0.64914">
        <ele>11.3</ele>
        <time>2020-05-31T13:31:48Z</time>
      </trkpt>
      <trkpt lat="46.30741" lon="-0.64919">
        <ele>11.4</ele>
        <time>2020-05-31T13:31:49Z</time>
      </trkpt>
      <trkpt lat="46.30741" lon="-0.64924">
        <ele>11.6</ele>
        <time>2020-05-31T13:31:50Z</time>
      </trkpt>
      <trkpt lat="46.3074" lon="-0.64928">
        <ele>11.7</ele>
        <time>2020-05-31T13:31:51Z</time>
      </trkpt>
      <trkpt lat="46.30738" lon="-0.64935">
        <ele>11.9</ele>
        <time>2020-05-31T13:31:52Z</time>
      </trkpt>
      <trkpt lat="46.30736" lon="-0.6494">
        <ele>12.1</ele>
        <time>2020-05-31T13:31:53Z</time>
      </trkpt>
      <trkpt lat="46.30734" lon="-0.64944">
        <ele>12.2</ele>
        <time>2020-05-31T13:31:54Z</time>
      </trkpt>
      <trkpt lat="46.30733" lon="-0.64948">
        <ele>12.3</ele>
        <time>2020-05-31T13:31:55Z</time>
      </trkpt>
      <trkpt lat="46.30731" lon="-0.64951">
        <ele>12.4</ele>
        <time>2020-05-31T13:31:56Z</time>
      </trkpt>
      <trkpt lat="46.30731" lon="-0.64955">
        <ele>12.5</ele>
        <time>2020-05-31T13:31:57Z</time>
      </trkpt>
      <trkpt lat="46.3073" lon="-0.64959">
        <ele>12.5</ele>
        <time>2020-05-31T13:31:58Z</time>
      </trkpt>
      <trkpt lat="46.3073" lon="-0.64966">
        <ele>12.6</ele>
        <time>2020-05-31T13:31:59Z</time>
      </trkpt>
      <trkpt lat="46.30731" lon="-0.64973">
        <ele>12.6</ele>
        <time>2020-05-31T13:32:00Z</time>
      </trkpt>
      <trkpt lat="46.30732" lon="-0.64982">
        <ele>12.5</ele>
        <time>2020-05-31T13:32:01Z</time>
      </trkpt>
      <trkpt lat="46.30733" lon="-0.64991">
        <ele>12.4</ele>
        <time>2020-05-31T13:32:02Z</time>
      </trkpt>
      <trkpt lat="46.30734" lon="-0.64998">
        <ele>12.3</ele>
        <time>2020-05-31T13:32:03Z</time>
      </trkpt>
      <trkpt lat="46.30735" lon="-0.65005">
        <ele>12.2</ele>
        <time>2020-05-31T13:32:04Z</time>
      </trkpt>
      <trkpt lat="46.30735" lon="-0.65013">
        <ele>12.1</ele>
        <time>2020-05-31T13:32:05Z</time>
      </trkpt>
      <trkpt lat="46.30738" lon="-0.65021">
        <ele>12</ele>
        <time>2020-05-31T13:32:06Z</time>
      </trkpt>
      <trkpt lat="46.30739" lon="-0.65031">
        <ele>11.9</ele>
        <time>2020-05-31T13:32:07Z</time>
      </trkpt>
      <trkpt lat="46.3074" lon="-0.6504">
        <ele>11.7</ele>
        <time>2020-05-31T13:32:08Z</time>
      </trkpt>
      <trkpt lat="46.30742" lon="-0.65047">
        <ele>11.6</ele>
        <time>2020-05-31T13:32:09Z</time>
      </trkpt>
      <trkpt lat="46.30744" lon="-0.65053">
        <ele>11.5</ele>
        <time>2020-05-31T13:32:10Z</time>
      </trkpt>
      <trkpt lat="46.30746" lon="-0.6506">
        <ele>11.4</ele>
        <time>2020-05-31T13:32:11Z</time>
      </trkpt>
      <trkpt lat="46.30746" lon="-0.65069">
        <ele>11.3</ele>
        <time>2020-05-31T13:32:12Z</time>
      </trkpt>
      <trkpt lat="46.30746" lon="-0.65077">
        <ele>11.2</ele>
        <time>2020-05-31T13:32:13Z</time>
      </trkpt>
      <trkpt lat="46.30747" lon="-0.65085">
        <ele>11.1</ele>
        <time>2020-05-31T13:32:14Z</time>
      </trkpt>
      <trkpt lat="46.30748" lon="-0.65094">
        <ele>11.1</ele>
        <time>2020-05-31T13:32:15Z</time>
      </trkpt>
      <trkpt lat="46.30749" lon="-0.65102">
        <ele>11</ele>
        <time>2020-05-31T13:32:16Z</time>
      </trkpt>
      <trkpt lat="46.30749" lon="-0.65109">
        <ele>11</ele>
        <time>2020-05-31T13:32:17Z</time>
      </trkpt>
      <trkpt lat="46.3075" lon="-0.65116">
        <ele>11</ele>
        <time>2020-05-31T13:32:18Z</time>
      </trkpt>
      <trkpt lat="46.3075" lon="-0.65123">
        <ele>10.9</ele>
        <time>2020-05-31T13:32:19Z</time>
      </trkpt>
      <trkpt lat="46.30751" lon="-0.65131">
        <ele>10.9</ele>
        <time>2020-05-31T13:32:20Z</time>
      </trkpt>
      <trkpt lat="46.30752" lon="-0.6514">
        <ele>10.9</ele>
        <time>2020-05-31T13:32:21Z</time>
      </trkpt>
      <trkpt lat="46.30753" lon="-0.65148">
        <ele>10.8</ele>
        <time>2020-05-31T13:32:22Z</time>
      </trkpt>
      <trkpt lat="46.30754" lon="-0.65154">
        <ele>10.7</ele>
        <time>2020-05-31T13:32:23Z</time>
      </trkpt>
      <trkpt lat="46.30754" lon="-0.6516">
        <ele>10.7</ele>
        <time>2020-05-31T13:32:24Z</time>
      </trkpt>
      <trkpt lat="46.30753" lon="-0.65166">
        <ele>10.6</ele>
        <time>2020-05-31T13:32:25Z</time>
      </trkpt>
      <trkpt lat="46.30751" lon="-0.65169">
        <ele>10.6</ele>
        <time>2020-05-31T13:32:26Z</time>
      </trkpt>
      <trkpt lat="46.3075" lon="-0.6517">
        <ele>10.6</ele>
        <time>2020-05-31T13:32:27Z</time>
      </trkpt>
      <trkpt lat="46.30747" lon="-0.65172">
        <ele>10.7</ele>
        <time>2020-05-31T13:32:28Z</time>
      </trkpt>
      <trkpt lat="46.30746" lon="-0.65172">
        <ele>10.7</ele>
        <time>2020-05-31T13:32:29Z</time>
      </trkpt>
      <trkpt lat="46.30743" lon="-0.65172">
        <ele>10.8</ele>
        <time>2020-05-31T13:32:30Z</time>
      </trkpt>
      <trkpt lat="46.30739" lon="-0.65173">
        <ele>10.9</ele>
        <time>2020-05-31T13:32:31Z</time>
      </trkpt>
      <trkpt lat="46.30736" lon="-0.65173">
        <ele>11</ele>
        <time>2020-05-31T13:32:32Z</time>
      </trkpt>
      <trkpt lat="46.30732" lon="-0.65174">
        <ele>11.2</ele>
        <time>2020-05-31T13:32:33Z</time>
      </trkpt>
      <trkpt lat="46.30727" lon="-0.65176">
        <ele>11.4</ele>
        <time>2020-05-31T13:32:34Z</time>
      </trkpt>
      <trkpt lat="46.30722" lon="-0.65177">
        <ele>11.7</ele>
        <time>2020-05-31T13:32:35Z</time>
      </trkpt>
      <trkpt lat="46.30716" lon="-0.65177">
        <ele>11.9</ele>
        <time>2020-05-31T13:32:36Z</time>
      </trkpt>
      <trkpt lat="46.30711" lon="-0.65178">
        <ele>12.1</ele>
        <time>2020-05-31T13:32:37Z</time>
      </trkpt>
      <trkpt lat="46.30707" lon="-0.65179">
        <ele>12.3</ele>
        <time>2020-05-31T13:32:38Z</time>
      </trkpt>
      <trkpt lat="46.30701" lon="-0.6518">
        <ele>12.5</ele>
        <time>2020-05-31T13:32:39Z</time>
      </trkpt>
      <trkpt lat="46.30696" lon="-0.65182">
        <ele>12.7</ele>
        <time>2020-05-31T13:32:40Z</time>
      </trkpt>
      <trkpt lat="46.30692" lon="-0.65185">
        <ele>12.9</ele>
        <time>2020-05-31T13:32:41Z</time>
      </trkpt>
      <trkpt lat="46.30688" lon="-0.65185">
        <ele>13</ele>
        <time>2020-05-31T13:32:42Z</time>
      </trkpt>
      <trkpt lat="46.30684" lon="-0.65189">
        <ele>13.2</ele>
        <time>2020-05-31T13:32:43Z</time>
      </trkpt>
      <trkpt lat="46.30682" lon="-0.6519">
        <ele>13.3</ele>
        <time>2020-05-31T13:32:44Z</time>
      </trkpt>
      <trkpt lat="46.30679" lon="-0.65193">
        <ele>13.4</ele>
        <time>2020-05-31T13:32:45Z</time>
      </trkpt>
      <trkpt lat="46.30676" lon="-0.65196">
        <ele>13.6</ele>
        <time>2020-05-31T13:32:46Z</time>
      </trkpt>
      <trkpt lat="46.30674" lon="-0.65199">
        <ele>13.7</ele>
        <time>2020-05-31T13:32:47Z</time>
      </trkpt>
      <trkpt lat="46.30671" lon="-0.652">
        <ele>13.8</ele>
        <time>2020-05-31T13:32:48Z</time>
      </trkpt>
      <trkpt lat="46.30668" lon="-0.65202">
        <ele>13.8</ele>
        <time>2020-05-31T13:32:49Z</time>
      </trkpt>
      <trkpt lat="46.30666" lon="-0.65204">
        <ele>13.9</ele>
        <time>2020-05-31T13:32:50Z</time>
      </trkpt>
      <trkpt lat="46.30662" lon="-0.65206">
        <ele>14</ele>
        <time>2020-05-31T13:32:51Z</time>
      </trkpt>
      <trkpt lat="46.30659" lon="-0.65208">
        <ele>14.1</ele>
        <time>2020-05-31T13:32:52Z</time>
      </trkpt>
      <trkpt lat="46.30656" lon="-0.65209">
        <ele>14.1</ele>
        <time>2020-05-31T13:32:53Z</time>
      </trkpt>
      <trkpt lat="46.30652" lon="-0.65211">
        <ele>14.2</ele>
        <time>2020-05-31T13:32:54Z</time>
      </trkpt>
      <trkpt lat="46.30648" lon="-0.65213">
        <ele>14.3</ele>
        <time>2020-05-31T13:32:55Z</time>
      </trkpt>
      <trkpt lat="46.30643" lon="-0.65215">
        <ele>14.3</ele>
        <time>2020-05-31T13:32:56Z</time>
      </trkpt>
      <trkpt lat="46.30639" lon="-0.65218">
        <ele>14.4</ele>
        <time>2020-05-31T13:32:57Z</time>
      </trkpt>
      <trkpt lat="46.30636" lon="-0.6522">
        <ele>14.4</ele>
        <time>2020-05-31T13:32:58Z</time>
      </trkpt>
      <trkpt lat="46.30632" lon="-0.65222">
        <ele>14.5</ele>
        <time>2020-05-31T13:32:59Z</time>
      </trkpt>
      <trkpt lat="46.30629" lon="-0.65223">
        <ele>14.5</ele>
        <time>2020-05-31T13:33:00Z</time>
      </trkpt>
      <trkpt lat="46.30626" lon="-0.65224">
        <ele>14.5</ele>
        <time>2020-05-31T13:33:01Z</time>
      </trkpt>
      <trkpt lat="46.30623" lon="-0.65226">
        <ele>14.6</ele>
        <time>2020-05-31T13:33:02Z</time>
      </trkpt>
      <trkpt lat="46.30619" lon="-0.65228">
        <ele>14.6</ele>
        <time>2020-05-31T13:33:03Z</time>
      </trkpt>
      <trkpt lat="46.30615" lon="-0.65231">
        <ele>14.6</ele>
        <time>2020-05-31T13:33:04Z</time>
      </trkpt>
      <trkpt lat="46.30611" lon="-0.65233">
        <ele>14.6</ele>
        <time>2020-05-31T13:33:05Z</time>
      </trkpt>
      <trkpt lat="46.30606" lon="-0.65235">
        <ele>14.7</ele>
        <time>2020-05-31T13:33:06Z</time>
      </trkpt>
      <trkpt lat="46.30602" lon="-0.65237">
        <ele>14.7</ele>
        <time>2020-05-31T13:33:07Z</time>
      </trkpt>
      <trkpt lat="46.30598" lon="-0.6524">
        <ele>14.7</ele>
        <time>2020-05-31T13:33:08Z</time>
      </trkpt>
      <trkpt lat="46.30595" lon="-0.65244">
        <ele>14.8</ele>
        <time>2020-05-31T13:33:09Z</time>
      </trkpt>
      <trkpt lat="46.30591" lon="-0.65246">
        <ele>14.8</ele>
        <time>2020-05-31T13:33:10Z</time>
      </trkpt>
      <trkpt lat="46.30586" lon="-0.65247">
        <ele>14.8</ele>
        <time>2020-05-31T13:33:11Z</time>
      </trkpt>
      <trkpt lat="46.30582" lon="-0.65249">
        <ele>14.8</ele>
        <time>2020-05-31T13:33:12Z</time>
      </trkpt>
      <trkpt lat="46.30579" lon="-0.65253">
        <ele>14.8</ele>
        <time>2020-05-31T13:33:13Z</time>
      </trkpt>
      <trkpt lat="46.30574" lon="-0.65256">
        <ele>14.7</ele>
        <time>2020-05-31T13:33:14Z</time>
      </trkpt>
      <trkpt lat="46.3057" lon="-0.65259">
        <ele>14.7</ele>
        <time>2020-05-31T13:33:15Z</time>
      </trkpt>
      <trkpt lat="46.30565" lon="-0.65262">
        <ele>14.6</ele>
        <time>2020-05-31T13:33:16Z</time>
      </trkpt>
      <trkpt lat="46.3056" lon="-0.65264">
        <ele>14.6</ele>
        <time>2020-05-31T13:33:17Z</time>
      </trkpt>
      <trkpt lat="46.30556" lon="-0.65265">
        <ele>14.5</ele>
        <time>2020-05-31T13:33:18Z</time>
      </trkpt>
      <trkpt lat="46.30551" lon="-0.65268">
        <ele>14.5</ele>
        <time>2020-05-31T13:33:19Z</time>
      </trkpt>
      <trkpt lat="46.30546" lon="-0.65271">
        <ele>14.4</ele>
        <time>2020-05-31T13:33:20Z</time>
      </trkpt>
      <trkpt lat="46.30541" lon="-0.65275">
        <ele>14.3</ele>
        <time>2020-05-31T13:33:21Z</time>
      </trkpt>
      <trkpt lat="46.30536" lon="-0.65279">
        <ele>14.2</ele>
        <time>2020-05-31T13:33:22Z</time>
      </trkpt>
      <trkpt lat="46.30531" lon="-0.65283">
        <ele>14.1</ele>
        <time>2020-05-31T13:33:23Z</time>
      </trkpt>
      <trkpt lat="46.30525" lon="-0.65286">
        <ele>14</ele>
        <time>2020-05-31T13:33:24Z</time>
      </trkpt>
      <trkpt lat="46.30519" lon="-0.65288">
        <ele>13.9</ele>
        <time>2020-05-31T13:33:25Z</time>
      </trkpt>
      <trkpt lat="46.30513" lon="-0.6529">
        <ele>13.8</ele>
        <time>2020-05-31T13:33:26Z</time>
      </trkpt>
      <trkpt lat="46.30508" lon="-0.65293">
        <ele>13.7</ele>
        <time>2020-05-31T13:33:27Z</time>
      </trkpt>
      <trkpt lat="46.30503" lon="-0.65295">
        <ele>13.6</ele>
        <time>2020-05-31T13:33:28Z</time>
      </trkpt>
      <trkpt lat="46.30499" lon="-0.65299">
        <ele>13.5</ele>
        <time>2020-05-31T13:33:29Z</time>
      </trkpt>
      <trkpt lat="46.30494" lon="-0.65303">
        <ele>13.5</ele>
        <time>2020-05-31T13:33:30Z</time>
      </trkpt>
      <trkpt lat="46.30489" lon="-0.65305">
        <ele>13.4</ele>
        <time>2020-05-31T13:33:31Z</time>
      </trkpt>
      <trkpt lat="46.30484" lon="-0.65308">
        <ele>13.3</ele>
        <time>2020-05-31T13:33:32Z</time>
      </trkpt>
      <trkpt lat="46.30479" lon="-0.6531">
        <ele>13.2</ele>
        <time>2020-05-31T13:33:33Z</time>
      </trkpt>
      <trkpt lat="46.30474" lon="-0.65313">
        <ele>13.1</ele>
        <time>2020-05-31T13:33:34Z</time>
      </trkpt>
      <trkpt lat="46.3047" lon="-0.65315">
        <ele>13.1</ele>
        <time>2020-05-31T13:33:35Z</time>
      </trkpt>
      <trkpt lat="46.30465" lon="-0.65317">
        <ele>13</ele>
        <time>2020-05-31T13:33:36Z</time>
      </trkpt>
      <trkpt lat="46.3046" lon="-0.6532">
        <ele>12.9</ele>
        <time>2020-05-31T13:33:37Z</time>
      </trkpt>
      <trkpt lat="46.30455" lon="-0.65322">
        <ele>12.8</ele>
        <time>2020-05-31T13:33:38Z</time>
      </trkpt>
      <trkpt lat="46.30449" lon="-0.65326">
        <ele>12.8</ele>
        <time>2020-05-31T13:33:39Z</time>
      </trkpt>
      <trkpt lat="46.30443" lon="-0.6533">
        <ele>12.7</ele>
        <time>2020-05-31T13:33:40Z</time>
      </trkpt>
      <trkpt lat="46.30436" lon="-0.65333">
        <ele>12.6</ele>
        <time>2020-05-31T13:33:41Z</time>
      </trkpt>
      <trkpt lat="46.3043" lon="-0.65334">
        <ele>12.5</ele>
        <time>2020-05-31T13:33:42Z</time>
      </trkpt>
      <trkpt lat="46.30425" lon="-0.65339">
        <ele>12.3</ele>
        <time>2020-05-31T13:33:43Z</time>
      </trkpt>
      <trkpt lat="46.30421" lon="-0.65343">
        <ele>12.3</ele>
        <time>2020-05-31T13:33:44Z</time>
      </trkpt>
      <trkpt lat="46.30417" lon="-0.65348">
        <ele>12.3</ele>
        <time>2020-05-31T13:33:45Z</time>
      </trkpt>
      <trkpt lat="46.30413" lon="-0.65354">
        <ele>12.2</ele>
        <time>2020-05-31T13:33:46Z</time>
      </trkpt>
      <trkpt lat="46.30409" lon="-0.65361">
        <ele>12.1</ele>
        <time>2020-05-31T13:33:47Z</time>
      </trkpt>
      <trkpt lat="46.30405" lon="-0.65367">
        <ele>12</ele>
        <time>2020-05-31T13:33:48Z</time>
      </trkpt>
      <trkpt lat="46.30401" lon="-0.65373">
        <ele>11.9</ele>
        <time>2020-05-31T13:33:49Z</time>
      </trkpt>
      <trkpt lat="46.30398" lon="-0.65381">
        <ele>11.8</ele>
        <time>2020-05-31T13:33:50Z</time>
      </trkpt>
      <trkpt lat="46.30395" lon="-0.65388">
        <ele>11.7</ele>
        <time>2020-05-31T13:33:51Z</time>
      </trkpt>
      <trkpt lat="46.30391" lon="-0.65394">
        <ele>11.6</ele>
        <time>2020-05-31T13:33:52Z</time>
      </trkpt>
      <trkpt lat="46.30387" lon="-0.65402">
        <ele>11.4</ele>
        <time>2020-05-31T13:33:53Z</time>
      </trkpt>
      <trkpt lat="46.30384" lon="-0.65407">
        <ele>11.3</ele>
        <time>2020-05-31T13:33:54Z</time>
      </trkpt>
      <trkpt lat="46.3038" lon="-0.65414">
        <ele>11.2</ele>
        <time>2020-05-31T13:33:55Z</time>
      </trkpt>
      <trkpt lat="46.30377" lon="-0.65422">
        <ele>11.1</ele>
        <time>2020-05-31T13:33:56Z</time>
      </trkpt>
      <trkpt lat="46.30373" lon="-0.6543">
        <ele>11</ele>
        <time>2020-05-31T13:33:57Z</time>
      </trkpt>
      <trkpt lat="46.3037" lon="-0.65437">
        <ele>10.9</ele>
        <time>2020-05-31T13:33:58Z</time>
      </trkpt>
      <trkpt lat="46.30368" lon="-0.65444">
        <ele>10.8</ele>
        <time>2020-05-31T13:33:59Z</time>
      </trkpt>
      <trkpt lat="46.30365" lon="-0.6545">
        <ele>10.7</ele>
        <time>2020-05-31T13:34:00Z</time>
      </trkpt>
      <trkpt lat="46.30363" lon="-0.65457">
        <ele>10.6</ele>
        <time>2020-05-31T13:34:01Z</time>
      </trkpt>
      <trkpt lat="46.3036" lon="-0.65463">
        <ele>10.5</ele>
        <time>2020-05-31T13:34:02Z</time>
      </trkpt>
      <trkpt lat="46.3036" lon="-0.65469">
        <ele>10.4</ele>
        <time>2020-05-31T13:34:03Z</time>
      </trkpt>
      <trkpt lat="46.30358" lon="-0.65476">
        <ele>10.4</ele>
        <time>2020-05-31T13:34:04Z</time>
      </trkpt>
      <trkpt lat="46.30356" lon="-0.65483">
        <ele>10.2</ele>
        <time>2020-05-31T13:34:05Z</time>
      </trkpt>
      <trkpt lat="46.30354" lon="-0.65491">
        <ele>10.1</ele>
        <time>2020-05-31T13:34:06Z</time>
      </trkpt>
      <trkpt lat="46.30352" lon="-0.65499">
        <ele>10</ele>
        <time>2020-05-31T13:34:07Z</time>
      </trkpt>
      <trkpt lat="46.3035" lon="-0.65507">
        <ele>9.9</ele>
        <time>2020-05-31T13:34:08Z</time>
      </trkpt>
      <trkpt lat="46.30348" lon="-0.65516">
        <ele>9.8</ele>
        <time>2020-05-31T13:34:09Z</time>
      </trkpt>
      <trkpt lat="46.30346" lon="-0.65524">
        <ele>9.8</ele>
        <time>2020-05-31T13:34:10Z</time>
      </trkpt>
      <trkpt lat="46.30343" lon="-0.65533">
        <ele>9.7</ele>
        <time>2020-05-31T13:34:11Z</time>
      </trkpt>
      <trkpt lat="46.30341" lon="-0.65542">
        <ele>9.6</ele>
        <time>2020-05-31T13:34:12Z</time>
      </trkpt>
      <trkpt lat="46.30338" lon="-0.65552">
        <ele>9.5</ele>
        <time>2020-05-31T13:34:13Z</time>
      </trkpt>
      <trkpt lat="46.30334" lon="-0.65561">
        <ele>9.4</ele>
        <time>2020-05-31T13:34:14Z</time>
      </trkpt>
      <trkpt lat="46.30331" lon="-0.65571">
        <ele>9.3</ele>
        <time>2020-05-31T13:34:15Z</time>
      </trkpt>
      <trkpt lat="46.30328" lon="-0.65579">
        <ele>9.2</ele>
        <time>2020-05-31T13:34:16Z</time>
      </trkpt>
      <trkpt lat="46.30325" lon="-0.65587">
        <ele>9.2</ele>
        <time>2020-05-31T13:34:17Z</time>
      </trkpt>
      <trkpt lat="46.30322" lon="-0.65595">
        <ele>9.1</ele>
        <time>2020-05-31T13:34:18Z</time>
      </trkpt>
      <trkpt lat="46.30319" lon="-0.65603">
        <ele>9</ele>
        <time>2020-05-31T13:34:19Z</time>
      </trkpt>
      <trkpt lat="46.30316" lon="-0.65609">
        <ele>9</ele>
        <time>2020-05-31T13:34:20Z</time>
      </trkpt>
      <trkpt lat="46.30314" lon="-0.65616">
        <ele>8.9</ele>
        <time>2020-05-31T13:34:21Z</time>
      </trkpt>
      <trkpt lat="46.30312" lon="-0.65623">
        <ele>8.8</ele>
        <time>2020-05-31T13:34:22Z</time>
      </trkpt>
      <trkpt lat="46.30309" lon="-0.65631">
        <ele>8.8</ele>
        <time>2020-05-31T13:34:23Z</time>
      </trkpt>
      <trkpt lat="46.30307" lon="-0.65638">
        <ele>8.7</ele>
        <time>2020-05-31T13:34:24Z</time>
      </trkpt>
      <trkpt lat="46.30304" lon="-0.65646">
        <ele>8.6</ele>
        <time>2020-05-31T13:34:25Z</time>
      </trkpt>
      <trkpt lat="46.30301" lon="-0.65653">
        <ele>8.5</ele>
        <time>2020-05-31T13:34:26Z</time>
      </trkpt>
      <trkpt lat="46.30297" lon="-0.65662">
        <ele>8.4</ele>
        <time>2020-05-31T13:34:27Z</time>
      </trkpt>
      <trkpt lat="46.30294" lon="-0.6567">
        <ele>8.3</ele>
        <time>2020-05-31T13:34:28Z</time>
      </trkpt>
      <trkpt lat="46.3029" lon="-0.65677">
        <ele>8.3</ele>
        <time>2020-05-31T13:34:29Z</time>
      </trkpt>
      <trkpt lat="46.30285" lon="-0.65685">
        <ele>8.2</ele>
        <time>2020-05-31T13:34:30Z</time>
      </trkpt>
      <trkpt lat="46.30282" lon="-0.65693">
        <ele>8.1</ele>
        <time>2020-05-31T13:34:31Z</time>
      </trkpt>
      <trkpt lat="46.30278" lon="-0.657">
        <ele>8</ele>
        <time>2020-05-31T13:34:32Z</time>
      </trkpt>
      <trkpt lat="46.30275" lon="-0.65707">
        <ele>8</ele>
        <time>2020-05-31T13:34:33Z</time>
      </trkpt>
      <trkpt lat="46.30272" lon="-0.65714">
        <ele>7.9</ele>
        <time>2020-05-31T13:34:34Z</time>
      </trkpt>
      <trkpt lat="46.30268" lon="-0.65721">
        <ele>7.9</ele>
        <time>2020-05-31T13:34:35Z</time>
      </trkpt>
      <trkpt lat="46.30264" lon="-0.65727">
        <ele>7.8</ele>
        <time>2020-05-31T13:34:36Z</time>
      </trkpt>
      <trkpt lat="46.3026" lon="-0.65733">
        <ele>7.8</ele>
        <time>2020-05-31T13:34:37Z</time>
      </trkpt>
      <trkpt lat="46.30256" lon="-0.6574">
        <ele>7.7</ele>
        <time>2020-05-31T13:34:38Z</time>
      </trkpt>
      <trkpt lat="46.30252" lon="-0.65747">
        <ele>7.6</ele>
        <time>2020-05-31T13:34:39Z</time>
      </trkpt>
      <trkpt lat="46.30247" lon="-0.65754">
        <ele>7.5</ele>
        <time>2020-05-31T13:34:40Z</time>
      </trkpt>
      <trkpt lat="46.30243" lon="-0.6576">
        <ele>7.4</ele>
        <time>2020-05-31T13:34:41Z</time>
      </trkpt>
      <trkpt lat="46.30239" lon="-0.65765">
        <ele>7.3</ele>
        <time>2020-05-31T13:34:42Z</time>
      </trkpt>
      <trkpt lat="46.30235" lon="-0.6577">
        <ele>7.3</ele>
        <time>2020-05-31T13:34:43Z</time>
      </trkpt>
      <trkpt lat="46.30232" lon="-0.65776">
        <ele>7.2</ele>
        <time>2020-05-31T13:34:44Z</time>
      </trkpt>
      <trkpt lat="46.30227" lon="-0.65781">
        <ele>7.2</ele>
        <time>2020-05-31T13:34:45Z</time>
      </trkpt>
      <trkpt lat="46.30223" lon="-0.65786">
        <ele>7.1</ele>
        <time>2020-05-31T13:34:46Z</time>
      </trkpt>
      <trkpt lat="46.30219" lon="-0.65791">
        <ele>7.1</ele>
        <time>2020-05-31T13:34:47Z</time>
      </trkpt>
      <trkpt lat="46.30214" lon="-0.65796">
        <ele>7</ele>
        <time>2020-05-31T13:34:48Z</time>
      </trkpt>
      <trkpt lat="46.3021" lon="-0.65801">
        <ele>7</ele>
        <time>2020-05-31T13:34:49Z</time>
      </trkpt>
      <trkpt lat="46.30205" lon="-0.65805">
        <ele>7</ele>
        <time>2020-05-31T13:34:50Z</time>
      </trkpt>
      <trkpt lat="46.302" lon="-0.65807">
        <ele>6.9</ele>
        <time>2020-05-31T13:34:51Z</time>
      </trkpt>
      <trkpt lat="46.30195" lon="-0.6581">
        <ele>6.9</ele>
        <time>2020-05-31T13:34:52Z</time>
      </trkpt>
      <trkpt lat="46.3019" lon="-0.65813">
        <ele>6.9</ele>
        <time>2020-05-31T13:34:53Z</time>
      </trkpt>
      <trkpt lat="46.30182" lon="-0.65816">
        <ele>6.8</ele>
        <time>2020-05-31T13:34:54Z</time>
      </trkpt>
      <trkpt lat="46.30177" lon="-0.65817">
        <ele>6.9</ele>
        <time>2020-05-31T13:34:55Z</time>
      </trkpt>
      <trkpt lat="46.30172" lon="-0.65818">
        <ele>6.9</ele>
        <time>2020-05-31T13:34:56Z</time>
      </trkpt>
      <trkpt lat="46.30167" lon="-0.65819">
        <ele>6.9</ele>
        <time>2020-05-31T13:34:57Z</time>
      </trkpt>
      <trkpt lat="46.30162" lon="-0.6582">
        <ele>6.9</ele>
        <time>2020-05-31T13:34:58Z</time>
      </trkpt>
      <trkpt lat="46.30158" lon="-0.65821">
        <ele>6.9</ele>
        <time>2020-05-31T13:34:59Z</time>
      </trkpt>
      <trkpt lat="46.30154" lon="-0.65823">
        <ele>6.9</ele>
        <time>2020-05-31T13:35:00Z</time>
      </trkpt>
      <trkpt lat="46.3015" lon="-0.65825">
        <ele>6.9</ele>
        <time>2020-05-31T13:35:01Z</time>
      </trkpt>
      <trkpt lat="46.30146" lon="-0.65827">
        <ele>6.9</ele>
        <time>2020-05-31T13:35:02Z</time>
      </trkpt>
      <trkpt lat="46.30141" lon="-0.6583">
        <ele>6.9</ele>
        <time>2020-05-31T13:35:03Z</time>
      </trkpt>
      <trkpt lat="46.30137" lon="-0.65835">
        <ele>6.9</ele>
        <time>2020-05-31T13:35:04Z</time>
      </trkpt>
      <trkpt lat="46.30133" lon="-0.65839">
        <ele>6.9</ele>
        <time>2020-05-31T13:35:05Z</time>
      </trkpt>
      <trkpt lat="46.30129" lon="-0.65844">
        <ele>6.9</ele>
        <time>2020-05-31T13:35:06Z</time>
      </trkpt>
      <trkpt lat="46.30125" lon="-0.65848">
        <ele>6.9</ele>
        <time>2020-05-31T13:35:07Z</time>
      </trkpt>
      <trkpt lat="46.30122" lon="-0.65853">
        <ele>7</ele>
        <time>2020-05-31T13:35:08Z</time>
      </trkpt>
      <trkpt lat="46.30119" lon="-0.65857">
        <ele>7</ele>
        <time>2020-05-31T13:35:09Z</time>
      </trkpt>
      <trkpt lat="46.30116" lon="-0.65862">
        <ele>7.1</ele>
        <time>2020-05-31T13:35:10Z</time>
      </trkpt>
      <trkpt lat="46.30113" lon="-0.65867">
        <ele>7.2</ele>
        <time>2020-05-31T13:35:11Z</time>
      </trkpt>
      <trkpt lat="46.3011" lon="-0.65873">
        <ele>7.2</ele>
        <time>2020-05-31T13:35:12Z</time>
      </trkpt>
      <trkpt lat="46.30107" lon="-0.6588">
        <ele>7.3</ele>
        <time>2020-05-31T13:35:13Z</time>
      </trkpt>
      <trkpt lat="46.30105" lon="-0.65885">
        <ele>7.4</ele>
        <time>2020-05-31T13:35:14Z</time>
      </trkpt>
      <trkpt lat="46.30102" lon="-0.65894">
        <ele>7.5</ele>
        <time>2020-05-31T13:35:15Z</time>
      </trkpt>
      <trkpt lat="46.301" lon="-0.659">
        <ele>7.5</ele>
        <time>2020-05-31T13:35:16Z</time>
      </trkpt>
      <trkpt lat="46.30097" lon="-0.65908">
        <ele>7.6</ele>
        <time>2020-05-31T13:35:17Z</time>
      </trkpt>
      <trkpt lat="46.30095" lon="-0.65915">
        <ele>7.7</ele>
        <time>2020-05-31T13:35:18Z</time>
      </trkpt>
      <trkpt lat="46.30093" lon="-0.65922">
        <ele>7.8</ele>
        <time>2020-05-31T13:35:19Z</time>
      </trkpt>
      <trkpt lat="46.30091" lon="-0.65928">
        <ele>7.8</ele>
        <time>2020-05-31T13:35:20Z</time>
      </trkpt>
      <trkpt lat="46.30089" lon="-0.65934">
        <ele>7.9</ele>
        <time>2020-05-31T13:35:21Z</time>
      </trkpt>
      <trkpt lat="46.30088" lon="-0.65939">
        <ele>7.9</ele>
        <time>2020-05-31T13:35:22Z</time>
      </trkpt>
      <trkpt lat="46.30086" lon="-0.65946">
        <ele>7.9</ele>
        <time>2020-05-31T13:35:23Z</time>
      </trkpt>
      <trkpt lat="46.30084" lon="-0.65952">
        <ele>8</ele>
        <time>2020-05-31T13:35:24Z</time>
      </trkpt>
      <trkpt lat="46.30082" lon="-0.65959">
        <ele>8.1</ele>
        <time>2020-05-31T13:35:25Z</time>
      </trkpt>
      <trkpt lat="46.3008" lon="-0.65964">
        <ele>8.2</ele>
        <time>2020-05-31T13:35:26Z</time>
      </trkpt>
      <trkpt lat="46.30078" lon="-0.6597">
        <ele>8.3</ele>
        <time>2020-05-31T13:35:27Z</time>
      </trkpt>
      <trkpt lat="46.30076" lon="-0.65976">
        <ele>8.5</ele>
        <time>2020-05-31T13:35:28Z</time>
      </trkpt>
      <trkpt lat="46.30074" lon="-0.65982">
        <ele>8.6</ele>
        <time>2020-05-31T13:35:29Z</time>
      </trkpt>
      <trkpt lat="46.30072" lon="-0.65989">
        <ele>8.8</ele>
        <time>2020-05-31T13:35:30Z</time>
      </trkpt>
      <trkpt lat="46.30069" lon="-0.65995">
        <ele>8.9</ele>
        <time>2020-05-31T13:35:31Z</time>
      </trkpt>
      <trkpt lat="46.30066" lon="-0.66001">
        <ele>9.1</ele>
        <time>2020-05-31T13:35:32Z</time>
      </trkpt>
      <trkpt lat="46.30064" lon="-0.66007">
        <ele>9.3</ele>
        <time>2020-05-31T13:35:33Z</time>
      </trkpt>
      <trkpt lat="46.30061" lon="-0.66012">
        <ele>9.4</ele>
        <time>2020-05-31T13:35:34Z</time>
      </trkpt>
      <trkpt lat="46.3006" lon="-0.66017">
        <ele>9.6</ele>
        <time>2020-05-31T13:35:35Z</time>
      </trkpt>
      <trkpt lat="46.30057" lon="-0.66023">
        <ele>9.8</ele>
        <time>2020-05-31T13:35:36Z</time>
      </trkpt>
      <trkpt lat="46.30055" lon="-0.66029">
        <ele>10</ele>
        <time>2020-05-31T13:35:37Z</time>
      </trkpt>
      <trkpt lat="46.30053" lon="-0.66035">
        <ele>10.2</ele>
        <time>2020-05-31T13:35:38Z</time>
      </trkpt>
      <trkpt lat="46.30051" lon="-0.6604">
        <ele>10.4</ele>
        <time>2020-05-31T13:35:39Z</time>
      </trkpt>
      <trkpt lat="46.30049" lon="-0.66045">
        <ele>10.6</ele>
        <time>2020-05-31T13:35:40Z</time>
      </trkpt>
      <trkpt lat="46.30047" lon="-0.66051">
        <ele>10.8</ele>
        <time>2020-05-31T13:35:41Z</time>
      </trkpt>
      <trkpt lat="46.30045" lon="-0.66057">
        <ele>11</ele>
        <time>2020-05-31T13:35:42Z</time>
      </trkpt>
      <trkpt lat="46.30043" lon="-0.66062">
        <ele>11.2</ele>
        <time>2020-05-31T13:35:43Z</time>
      </trkpt>
      <trkpt lat="46.3004" lon="-0.66068">
        <ele>11.5</ele>
        <time>2020-05-31T13:35:44Z</time>
      </trkpt>
      <trkpt lat="46.30038" lon="-0.66073">
        <ele>11.7</ele>
        <time>2020-05-31T13:35:45Z</time>
      </trkpt>
      <trkpt lat="46.30035" lon="-0.66077">
        <ele>11.9</ele>
        <time>2020-05-31T13:35:46Z</time>
      </trkpt>
      <trkpt lat="46.30033" lon="-0.66081">
        <ele>12.1</ele>
        <time>2020-05-31T13:35:47Z</time>
      </trkpt>
      <trkpt lat="46.30031" lon="-0.66086">
        <ele>12.3</ele>
        <time>2020-05-31T13:35:48Z</time>
      </trkpt>
      <trkpt lat="46.30028" lon="-0.6609">
        <ele>12.6</ele>
        <time>2020-05-31T13:35:49Z</time>
      </trkpt>
      <trkpt lat="46.30026" lon="-0.66094">
        <ele>12.8</ele>
        <time>2020-05-31T13:35:50Z</time>
      </trkpt>
      <trkpt lat="46.30023" lon="-0.66099">
        <ele>13</ele>
        <time>2020-05-31T13:35:51Z</time>
      </trkpt>
      <trkpt lat="46.3002" lon="-0.66103">
        <ele>13.2</ele>
        <time>2020-05-31T13:35:52Z</time>
      </trkpt>
      <trkpt lat="46.30017" lon="-0.66106">
        <ele>13.4</ele>
        <time>2020-05-31T13:35:53Z</time>
      </trkpt>
      <trkpt lat="46.30014" lon="-0.6611">
        <ele>13.5</ele>
        <time>2020-05-31T13:35:54Z</time>
      </trkpt>
      <trkpt lat="46.30012" lon="-0.66114">
        <ele>13.7</ele>
        <time>2020-05-31T13:35:55Z</time>
      </trkpt>
      <trkpt lat="46.30009" lon="-0.66117">
        <ele>13.8</ele>
        <time>2020-05-31T13:35:56Z</time>
      </trkpt>
      <trkpt lat="46.30007" lon="-0.66122">
        <ele>14</ele>
        <time>2020-05-31T13:35:57Z</time>
      </trkpt>
      <trkpt lat="46.30005" lon="-0.66125">
        <ele>14.1</ele>
        <time>2020-05-31T13:35:58Z</time>
      </trkpt>
      <trkpt lat="46.30003" lon="-0.66129">
        <ele>14.3</ele>
        <time>2020-05-31T13:35:59Z</time>
      </trkpt>
      <trkpt lat="46.29999" lon="-0.66132">
        <ele>14.5</ele>
        <time>2020-05-31T13:36:00Z</time>
      </trkpt>
      <trkpt lat="46.29996" lon="-0.66135">
        <ele>14.6</ele>
        <time>2020-05-31T13:36:01Z</time>
      </trkpt>
      <trkpt lat="46.29993" lon="-0.66138">
        <ele>14.7</ele>
        <time>2020-05-31T13:36:02Z</time>
      </trkpt>
      <trkpt lat="46.29991" lon="-0.66143">
        <ele>14.9</ele>
        <time>2020-05-31T13:36:03Z</time>
      </trkpt>
      <trkpt lat="46.29987" lon="-0.66148">
        <ele>15.1</ele>
        <time>2020-05-31T13:36:04Z</time>
      </trkpt>
      <trkpt lat="46.29984" lon="-0.6615">
        <ele>15.2</ele>
        <time>2020-05-31T13:36:05Z</time>
      </trkpt>
      <trkpt lat="46.29981" lon="-0.66153">
        <ele>15.3</ele>
        <time>2020-05-31T13:36:06Z</time>
      </trkpt>
      <trkpt lat="46.29978" lon="-0.66158">
        <ele>15.4</ele>
        <time>2020-05-31T13:36:07Z</time>
      </trkpt>
      <trkpt lat="46.29976" lon="-0.66162">
        <ele>15.5</ele>
        <time>2020-05-31T13:36:08Z</time>
      </trkpt>
      <trkpt lat="46.29973" lon="-0.66166">
        <ele>15.6</ele>
        <time>2020-05-31T13:36:09Z</time>
      </trkpt>
      <trkpt lat="46.2997" lon="-0.66168">
        <ele>15.8</ele>
        <time>2020-05-31T13:36:10Z</time>
      </trkpt>
      <trkpt lat="46.29967" lon="-0.66171">
        <ele>15.9</ele>
        <time>2020-05-31T13:36:11Z</time>
      </trkpt>
      <trkpt lat="46.29965" lon="-0.66175">
        <ele>16</ele>
        <time>2020-05-31T13:36:12Z</time>
      </trkpt>
      <trkpt lat="46.29962" lon="-0.66178">
        <ele>16.1</ele>
        <time>2020-05-31T13:36:13Z</time>
      </trkpt>
      <trkpt lat="46.29959" lon="-0.66182">
        <ele>16.2</ele>
        <time>2020-05-31T13:36:14Z</time>
      </trkpt>
      <trkpt lat="46.29957" lon="-0.66185">
        <ele>16.4</ele>
        <time>2020-05-31T13:36:15Z</time>
      </trkpt>
      <trkpt lat="46.29955" lon="-0.66189">
        <ele>16.5</ele>
        <time>2020-05-31T13:36:16Z</time>
      </trkpt>
      <trkpt lat="46.29951" lon="-0.66193">
        <ele>16.6</ele>
        <time>2020-05-31T13:36:17Z</time>
      </trkpt>
      <trkpt lat="46.29948" lon="-0.66197">
        <ele>16.8</ele>
        <time>2020-05-31T13:36:18Z</time>
      </trkpt>
      <trkpt lat="46.29945" lon="-0.66202">
        <ele>17</ele>
        <time>2020-05-31T13:36:19Z</time>
      </trkpt>
      <trkpt lat="46.29943" lon="-0.66206">
        <ele>17.1</ele>
        <time>2020-05-31T13:36:20Z</time>
      </trkpt>
      <trkpt lat="46.29941" lon="-0.6621">
        <ele>17.3</ele>
        <time>2020-05-31T13:36:21Z</time>
      </trkpt>
      <trkpt lat="46.29938" lon="-0.66215">
        <ele>17.4</ele>
        <time>2020-05-31T13:36:22Z</time>
      </trkpt>
      <trkpt lat="46.29936" lon="-0.66219">
        <ele>17.5</ele>
        <time>2020-05-31T13:36:23Z</time>
      </trkpt>
      <trkpt lat="46.29934" lon="-0.66224">
        <ele>17.6</ele>
        <time>2020-05-31T13:36:24Z</time>
      </trkpt>
      <trkpt lat="46.29932" lon="-0.66228">
        <ele>17.7</ele>
        <time>2020-05-31T13:36:25Z</time>
      </trkpt>
      <trkpt lat="46.29929" lon="-0.66234">
        <ele>17.8</ele>
        <time>2020-05-31T13:36:26Z</time>
      </trkpt>
      <trkpt lat="46.29927" lon="-0.66237">
        <ele>18</ele>
        <time>2020-05-31T13:36:27Z</time>
      </trkpt>
      <trkpt lat="46.29925" lon="-0.66244">
        <ele>18.2</ele>
        <time>2020-05-31T13:36:28Z</time>
      </trkpt>
      <trkpt lat="46.29923" lon="-0.6625">
        <ele>18.5</ele>
        <time>2020-05-31T13:36:29Z</time>
      </trkpt>
      <trkpt lat="46.29921" lon="-0.66254">
        <ele>18.6</ele>
        <time>2020-05-31T13:36:30Z</time>
      </trkpt>
      <trkpt lat="46.2992" lon="-0.66259">
        <ele>18.9</ele>
        <time>2020-05-31T13:36:31Z</time>
      </trkpt>
      <trkpt lat="46.29919" lon="-0.66263">
        <ele>19.1</ele>
        <time>2020-05-31T13:36:32Z</time>
      </trkpt>
      <trkpt lat="46.29918" lon="-0.66268">
        <ele>19.3</ele>
        <time>2020-05-31T13:36:33Z</time>
      </trkpt>
      <trkpt lat="46.29918" lon="-0.66272">
        <ele>19.5</ele>
        <time>2020-05-31T13:36:34Z</time>
      </trkpt>
      <trkpt lat="46.29918" lon="-0.66277">
        <ele>19.7</ele>
        <time>2020-05-31T13:36:35Z</time>
      </trkpt>
      <trkpt lat="46.29919" lon="-0.66283">
        <ele>20.1</ele>
        <time>2020-05-31T13:36:36Z</time>
      </trkpt>
      <trkpt lat="46.29919" lon="-0.66285">
        <ele>20.2</ele>
        <time>2020-05-31T13:36:37Z</time>
      </trkpt>
      <trkpt lat="46.29919" lon="-0.66289">
        <ele>20.4</ele>
        <time>2020-05-31T13:36:38Z</time>
      </trkpt>
      <trkpt lat="46.29918" lon="-0.66295">
        <ele>20.7</ele>
        <time>2020-05-31T13:36:39Z</time>
      </trkpt>
      <trkpt lat="46.29918" lon="-0.663">
        <ele>21</ele>
        <time>2020-05-31T13:36:40Z</time>
      </trkpt>
      <trkpt lat="46.29918" lon="-0.66305">
        <ele>21.2</ele>
        <time>2020-05-31T13:36:41Z</time>
      </trkpt>
      <trkpt lat="46.29918" lon="-0.66311">
        <ele>21.4</ele>
        <time>2020-05-31T13:36:42Z</time>
      </trkpt>
      <trkpt lat="46.2992" lon="-0.66312">
        <ele>21.5</ele>
        <time>2020-05-31T13:36:43Z</time>
      </trkpt>
      <trkpt lat="46.2992" lon="-0.66315">
        <ele>21.6</ele>
        <time>2020-05-31T13:36:44Z</time>
      </trkpt>
      <trkpt lat="46.29921" lon="-0.66319">
        <ele>21.8</ele>
        <time>2020-05-31T13:36:45Z</time>
      </trkpt>
      <trkpt lat="46.29921" lon="-0.6632">
        <ele>21.8</ele>
        <time>2020-05-31T13:36:46Z</time>
      </trkpt>
      <trkpt lat="46.29921" lon="-0.66324">
        <ele>21.9</ele>
        <time>2020-05-31T13:36:47Z</time>
      </trkpt>
      <trkpt lat="46.29923" lon="-0.66328">
        <ele>22</ele>
        <time>2020-05-31T13:36:48Z</time>
      </trkpt>
      <trkpt lat="46.29923" lon="-0.66329">
        <ele>22</ele>
        <time>2020-05-31T13:36:49Z</time>
      </trkpt>
      <trkpt lat="46.29924" lon="-0.66334">
        <ele>22</ele>
        <time>2020-05-31T13:36:50Z</time>
      </trkpt>
      <trkpt lat="46.29924" lon="-0.66339">
        <ele>22.3</ele>
        <time>2020-05-31T13:36:51Z</time>
      </trkpt>
      <trkpt lat="46.29925" lon="-0.66343">
        <ele>22.4</ele>
        <time>2020-05-31T13:36:52Z</time>
      </trkpt>
      <trkpt lat="46.29926" lon="-0.66347">
        <ele>22.6</ele>
        <time>2020-05-31T13:36:53Z</time>
      </trkpt>
      <trkpt lat="46.29927" lon="-0.66352">
        <ele>22.8</ele>
        <time>2020-05-31T13:36:54Z</time>
      </trkpt>
      <trkpt lat="46.29927" lon="-0.66353">
        <ele>22.9</ele>
        <time>2020-05-31T13:36:55Z</time>
      </trkpt>
      <trkpt lat="46.29928" lon="-0.66358">
        <ele>23.1</ele>
        <time>2020-05-31T13:36:56Z</time>
      </trkpt>
      <trkpt lat="46.29929" lon="-0.66363">
        <ele>23.4</ele>
        <time>2020-05-31T13:36:57Z</time>
      </trkpt>
      <trkpt lat="46.29929" lon="-0.66368">
        <ele>23.7</ele>
        <time>2020-05-31T13:36:58Z</time>
      </trkpt>
      <trkpt lat="46.2993" lon="-0.66374">
        <ele>24</ele>
        <time>2020-05-31T13:36:59Z</time>
      </trkpt>
      <trkpt lat="46.2993" lon="-0.66379">
        <ele>24.2</ele>
        <time>2020-05-31T13:37:00Z</time>
      </trkpt>
      <trkpt lat="46.29929" lon="-0.66384">
        <ele>24.5</ele>
        <time>2020-05-31T13:37:01Z</time>
      </trkpt>
      <trkpt lat="46.29929" lon="-0.66386">
        <ele>24.6</ele>
        <time>2020-05-31T13:37:02Z</time>
      </trkpt>
      <trkpt lat="46.2993" lon="-0.6639">
        <ele>24.8</ele>
        <time>2020-05-31T13:37:03Z</time>
      </trkpt>
      <trkpt lat="46.2993" lon="-0.66391">
        <ele>24.9</ele>
        <time>2020-05-31T13:37:04Z</time>
      </trkpt>
      <trkpt lat="46.29931" lon="-0.66396">
        <ele>25.1</ele>
        <time>2020-05-31T13:37:05Z</time>
      </trkpt>
      <trkpt lat="46.29931" lon="-0.66397">
        <ele>25.2</ele>
        <time>2020-05-31T13:37:06Z</time>
      </trkpt>
      <trkpt lat="46.2993" lon="-0.66402">
        <ele>25.4</ele>
        <time>2020-05-31T13:37:07Z</time>
      </trkpt>
      <trkpt lat="46.2993" lon="-0.66406">
        <ele>25.5</ele>
        <time>2020-05-31T13:37:08Z</time>
      </trkpt>
      <trkpt lat="46.29932" lon="-0.66412">
        <ele>25.7</ele>
        <time>2020-05-31T13:37:09Z</time>
      </trkpt>
      <trkpt lat="46.29932" lon="-0.66418">
        <ele>25.9</ele>
        <time>2020-05-31T13:37:10Z</time>
      </trkpt>
      <trkpt lat="46.29933" lon="-0.66423">
        <ele>26</ele>
        <time>2020-05-31T13:37:11Z</time>
      </trkpt>
      <trkpt lat="46.29933" lon="-0.66428">
        <ele>26.2</ele>
        <time>2020-05-31T13:37:12Z</time>
      </trkpt>
      <trkpt lat="46.29933" lon="-0.66432">
        <ele>26.2</ele>
        <time>2020-05-31T13:37:13Z</time>
      </trkpt>
      <trkpt lat="46.29932" lon="-0.66437">
        <ele>26.2</ele>
        <time>2020-05-31T13:37:14Z</time>
      </trkpt>
      <trkpt lat="46.29932" lon="-0.66441">
        <ele>26.3</ele>
        <time>2020-05-31T13:37:15Z</time>
      </trkpt>
      <trkpt lat="46.29931" lon="-0.66448">
        <ele>26.3</ele>
        <time>2020-05-31T13:37:16Z</time>
      </trkpt>
      <trkpt lat="46.29931" lon="-0.66455">
        <ele>26.3</ele>
        <time>2020-05-31T13:37:17Z</time>
      </trkpt>
      <trkpt lat="46.29931" lon="-0.6646">
        <ele>26.4</ele>
        <time>2020-05-31T13:37:18Z</time>
      </trkpt>
      <trkpt lat="46.29931" lon="-0.66465">
        <ele>26.4</ele>
        <time>2020-05-31T13:37:19Z</time>
      </trkpt>
      <trkpt lat="46.2993" lon="-0.66472">
        <ele>26.4</ele>
        <time>2020-05-31T13:37:20Z</time>
      </trkpt>
      <trkpt lat="46.2993" lon="-0.66479">
        <ele>26.5</ele>
        <time>2020-05-31T13:37:21Z</time>
      </trkpt>
      <trkpt lat="46.2993" lon="-0.66486">
        <ele>26.5</ele>
        <time>2020-05-31T13:37:22Z</time>
      </trkpt>
      <trkpt lat="46.2993" lon="-0.66493">
        <ele>26.5</ele>
        <time>2020-05-31T13:37:23Z</time>
      </trkpt>
      <trkpt lat="46.2993" lon="-0.665">
        <ele>26.5</ele>
        <time>2020-05-31T13:37:24Z</time>
      </trkpt>
      <trkpt lat="46.2993" lon="-0.66505">
        <ele>26.5</ele>
        <time>2020-05-31T13:37:25Z</time>
      </trkpt>
      <trkpt lat="46.29931" lon="-0.66511">
        <ele>26.5</ele>
        <time>2020-05-31T13:37:26Z</time>
      </trkpt>
      <trkpt lat="46.2993" lon="-0.66516">
        <ele>26.5</ele>
        <time>2020-05-31T13:37:27Z</time>
      </trkpt>
      <trkpt lat="46.2993" lon="-0.66522">
        <ele>26.5</ele>
        <time>2020-05-31T13:37:28Z</time>
      </trkpt>
      <trkpt lat="46.2993" lon="-0.66528">
        <ele>26.5</ele>
        <time>2020-05-31T13:37:29Z</time>
      </trkpt>
      <trkpt lat="46.2993" lon="-0.66532">
        <ele>26.6</ele>
        <time>2020-05-31T13:37:30Z</time>
      </trkpt>
      <trkpt lat="46.29927" lon="-0.66536">
        <ele>26.6</ele>
        <time>2020-05-31T13:37:31Z</time>
      </trkpt>
      <trkpt lat="46.29925" lon="-0.66536">
        <ele>26.6</ele>
        <time>2020-05-31T13:37:32Z</time>
      </trkpt>
      <trkpt lat="46.29922" lon="-0.66536">
        <ele>26.7</ele>
        <time>2020-05-31T13:37:33Z</time>
      </trkpt>
      <trkpt lat="46.29919" lon="-0.66538">
        <ele>26.7</ele>
        <time>2020-05-31T13:37:34Z</time>
      </trkpt>
      <trkpt lat="46.29916" lon="-0.66538">
        <ele>26.8</ele>
        <time>2020-05-31T13:37:35Z</time>
      </trkpt>
      <trkpt lat="46.29912" lon="-0.66539">
        <ele>26.8</ele>
        <time>2020-05-31T13:37:36Z</time>
      </trkpt>
      <trkpt lat="46.29909" lon="-0.66539">
        <ele>26.9</ele>
        <time>2020-05-31T13:37:37Z</time>
      </trkpt>
      <trkpt lat="46.29906" lon="-0.66541">
        <ele>26.9</ele>
        <time>2020-05-31T13:37:38Z</time>
      </trkpt>
      <trkpt lat="46.29902" lon="-0.66541">
        <ele>27</ele>
        <time>2020-05-31T13:37:39Z</time>
      </trkpt>
      <trkpt lat="46.299" lon="-0.66542">
        <ele>27</ele>
        <time>2020-05-31T13:37:40Z</time>
      </trkpt>
      <trkpt lat="46.29898" lon="-0.66542">
        <ele>27.1</ele>
        <time>2020-05-31T13:37:41Z</time>
      </trkpt>
      <trkpt lat="46.29895" lon="-0.66543">
        <ele>27.1</ele>
        <time>2020-05-31T13:37:42Z</time>
      </trkpt>
      <trkpt lat="46.29891" lon="-0.66544">
        <ele>27.2</ele>
        <time>2020-05-31T13:37:43Z</time>
      </trkpt>
      <trkpt lat="46.2989" lon="-0.66544">
        <ele>27.2</ele>
        <time>2020-05-31T13:37:44Z</time>
      </trkpt>
      <trkpt lat="46.29887" lon="-0.66546">
        <ele>27.2</ele>
        <time>2020-05-31T13:37:45Z</time>
      </trkpt>
      <trkpt lat="46.29884" lon="-0.66546">
        <ele>27.3</ele>
        <time>2020-05-31T13:37:46Z</time>
      </trkpt>
      <trkpt lat="46.29883" lon="-0.66546">
        <ele>27.3</ele>
        <time>2020-05-31T13:37:47Z</time>
      </trkpt>
      <trkpt lat="46.29879" lon="-0.66545">
        <ele>27.3</ele>
        <time>2020-05-31T13:37:48Z</time>
      </trkpt>
      <trkpt lat="46.29878" lon="-0.66545">
        <ele>27.4</ele>
        <time>2020-05-31T13:37:49Z</time>
      </trkpt>
      <trkpt lat="46.29875" lon="-0.66546">
        <ele>27.4</ele>
        <time>2020-05-31T13:37:50Z</time>
      </trkpt>
      <trkpt lat="46.29873" lon="-0.66546">
        <ele>27.4</ele>
        <time>2020-05-31T13:37:51Z</time>
      </trkpt>
      <trkpt lat="46.2987" lon="-0.66547">
        <ele>27.5</ele>
        <time>2020-05-31T13:37:52Z</time>
      </trkpt>
      <trkpt lat="46.29869" lon="-0.66547">
        <ele>27.5</ele>
        <time>2020-05-31T13:37:53Z</time>
      </trkpt>
      <trkpt lat="46.29866" lon="-0.66548">
        <ele>27.5</ele>
        <time>2020-05-31T13:37:54Z</time>
      </trkpt>
      <trkpt lat="46.29865" lon="-0.66549">
        <ele>27.5</ele>
        <time>2020-05-31T13:37:55Z</time>
      </trkpt>
      <trkpt lat="46.29862" lon="-0.66551">
        <ele>27.5</ele>
        <time>2020-05-31T13:37:56Z</time>
      </trkpt>
      <trkpt lat="46.29861" lon="-0.66552">
        <ele>27.6</ele>
        <time>2020-05-31T13:37:57Z</time>
      </trkpt>
      <trkpt lat="46.29858" lon="-0.66553">
        <ele>27.6</ele>
        <time>2020-05-31T13:37:58Z</time>
      </trkpt>
      <trkpt lat="46.29857" lon="-0.66554">
        <ele>27.6</ele>
        <time>2020-05-31T13:37:59Z</time>
      </trkpt>
      <trkpt lat="46.29853" lon="-0.66555">
        <ele>27.7</ele>
        <time>2020-05-31T13:38:00Z</time>
      </trkpt>
      <trkpt lat="46.29852" lon="-0.66556">
        <ele>27.7</ele>
        <time>2020-05-31T13:38:01Z</time>
      </trkpt>
      <trkpt lat="46.29849" lon="-0.66557">
        <ele>27.7</ele>
        <time>2020-05-31T13:38:02Z</time>
      </trkpt>
      <trkpt lat="46.29846" lon="-0.66558">
        <ele>27.8</ele>
        <time>2020-05-31T13:38:03Z</time>
      </trkpt>
      <trkpt lat="46.29842" lon="-0.6656">
        <ele>27.8</ele>
        <time>2020-05-31T13:38:04Z</time>
      </trkpt>
      <trkpt lat="46.2984" lon="-0.66561">
        <ele>27.9</ele>
        <time>2020-05-31T13:38:05Z</time>
      </trkpt>
      <trkpt lat="46.29836" lon="-0.66563">
        <ele>27.9</ele>
        <time>2020-05-31T13:38:06Z</time>
      </trkpt>
      <trkpt lat="46.29834" lon="-0.66563">
        <ele>27.9</ele>
        <time>2020-05-31T13:38:07Z</time>
      </trkpt>
      <trkpt lat="46.29831" lon="-0.66564">
        <ele>28</ele>
        <time>2020-05-31T13:38:08Z</time>
      </trkpt>
      <trkpt lat="46.29827" lon="-0.66565">
        <ele>28</ele>
        <time>2020-05-31T13:38:09Z</time>
      </trkpt>
      <trkpt lat="46.29824" lon="-0.66565">
        <ele>28.1</ele>
        <time>2020-05-31T13:38:10Z</time>
      </trkpt>
      <trkpt lat="46.29821" lon="-0.66565">
        <ele>28.1</ele>
        <time>2020-05-31T13:38:11Z</time>
      </trkpt>
      <trkpt lat="46.29818" lon="-0.66564">
        <ele>28.1</ele>
        <time>2020-05-31T13:38:12Z</time>
      </trkpt>
      <trkpt lat="46.29814" lon="-0.66565">
        <ele>28.2</ele>
        <time>2020-05-31T13:38:13Z</time>
      </trkpt>
      <trkpt lat="46.29813" lon="-0.66565">
        <ele>28.2</ele>
        <time>2020-05-31T13:38:14Z</time>
      </trkpt>
      <trkpt lat="46.2981" lon="-0.66566">
        <ele>28.2</ele>
        <time>2020-05-31T13:38:15Z</time>
      </trkpt>
      <trkpt lat="46.29807" lon="-0.66567">
        <ele>28.2</ele>
        <time>2020-05-31T13:38:16Z</time>
      </trkpt>
      <trkpt lat="46.29804" lon="-0.66568">
        <ele>28.2</ele>
        <time>2020-05-31T13:38:17Z</time>
      </trkpt>
      <trkpt lat="46.29801" lon="-0.66569">
        <ele>28.3</ele>
        <time>2020-05-31T13:38:18Z</time>
      </trkpt>
      <trkpt lat="46.29798" lon="-0.66569">
        <ele>28.3</ele>
        <time>2020-05-31T13:38:19Z</time>
      </trkpt>
      <trkpt lat="46.29795" lon="-0.6657">
        <ele>28.3</ele>
        <time>2020-05-31T13:38:20Z</time>
      </trkpt>
      <trkpt lat="46.29791" lon="-0.66572">
        <ele>28.4</ele>
        <time>2020-05-31T13:38:21Z</time>
      </trkpt>
      <trkpt lat="46.2979" lon="-0.66572">
        <ele>28.4</ele>
        <time>2020-05-31T13:38:22Z</time>
      </trkpt>
      <trkpt lat="46.29787" lon="-0.66573">
        <ele>28.4</ele>
        <time>2020-05-31T13:38:23Z</time>
      </trkpt>
      <trkpt lat="46.29784" lon="-0.66574">
        <ele>28.4</ele>
        <time>2020-05-31T13:38:24Z</time>
      </trkpt>
      <trkpt lat="46.29781" lon="-0.66575">
        <ele>28.5</ele>
        <time>2020-05-31T13:38:25Z</time>
      </trkpt>
      <trkpt lat="46.29778" lon="-0.66575">
        <ele>28.5</ele>
        <time>2020-05-31T13:38:26Z</time>
      </trkpt>
      <trkpt lat="46.29775" lon="-0.66576">
        <ele>28.5</ele>
        <time>2020-05-31T13:38:27Z</time>
      </trkpt>
      <trkpt lat="46.29771" lon="-0.66577">
        <ele>28.5</ele>
        <time>2020-05-31T13:38:28Z</time>
      </trkpt>
      <trkpt lat="46.2977" lon="-0.66578">
        <ele>28.6</ele>
        <time>2020-05-31T13:38:29Z</time>
      </trkpt>
      <trkpt lat="46.29767" lon="-0.66581">
        <ele>28.6</ele>
        <time>2020-05-31T13:38:30Z</time>
      </trkpt>
      <trkpt lat="46.29767" lon="-0.66582">
        <ele>28.6</ele>
        <time>2020-05-31T13:38:31Z</time>
      </trkpt>
      <trkpt lat="46.29766" lon="-0.66587">
        <ele>28.5</ele>
        <time>2020-05-31T13:38:32Z</time>
      </trkpt>
      <trkpt lat="46.29766" lon="-0.66589">
        <ele>28.5</ele>
        <time>2020-05-31T13:38:33Z</time>
      </trkpt>
      <trkpt lat="46.29765" lon="-0.66593">
        <ele>28.5</ele>
        <time>2020-05-31T13:38:34Z</time>
      </trkpt>
      <trkpt lat="46.29765" lon="-0.66598">
        <ele>28.5</ele>
        <time>2020-05-31T13:38:35Z</time>
      </trkpt>
      <trkpt lat="46.29765" lon="-0.66604">
        <ele>28.4</ele>
        <time>2020-05-31T13:38:36Z</time>
      </trkpt>
      <trkpt lat="46.29765" lon="-0.66609">
        <ele>28.4</ele>
        <time>2020-05-31T13:38:37Z</time>
      </trkpt>
      <trkpt lat="46.29765" lon="-0.66615">
        <ele>28.3</ele>
        <time>2020-05-31T13:38:38Z</time>
      </trkpt>
      <trkpt lat="46.29765" lon="-0.66621">
        <ele>28.3</ele>
        <time>2020-05-31T13:38:39Z</time>
      </trkpt>
      <trkpt lat="46.29765" lon="-0.66628">
        <ele>28.2</ele>
        <time>2020-05-31T13:38:40Z</time>
      </trkpt>
      <trkpt lat="46.29766" lon="-0.66634">
        <ele>28.1</ele>
        <time>2020-05-31T13:38:41Z</time>
      </trkpt>
      <trkpt lat="46.29766" lon="-0.66642">
        <ele>28.1</ele>
        <time>2020-05-31T13:38:42Z</time>
      </trkpt>
      <trkpt lat="46.29768" lon="-0.66649">
        <ele>28</ele>
        <time>2020-05-31T13:38:43Z</time>
      </trkpt>
      <trkpt lat="46.29769" lon="-0.66656">
        <ele>27.9</ele>
        <time>2020-05-31T13:38:44Z</time>
      </trkpt>
      <trkpt lat="46.2977" lon="-0.66663">
        <ele>27.9</ele>
        <time>2020-05-31T13:38:45Z</time>
      </trkpt>
      <trkpt lat="46.2977" lon="-0.6667">
        <ele>27.8</ele>
        <time>2020-05-31T13:38:46Z</time>
      </trkpt>
      <trkpt lat="46.29771" lon="-0.66678">
        <ele>27.7</ele>
        <time>2020-05-31T13:38:47Z</time>
      </trkpt>
      <trkpt lat="46.29773" lon="-0.66685">
        <ele>27.7</ele>
        <time>2020-05-31T13:38:48Z</time>
      </trkpt>
      <trkpt lat="46.29774" lon="-0.66693">
        <ele>27.6</ele>
        <time>2020-05-31T13:38:49Z</time>
      </trkpt>
      <trkpt lat="46.29775" lon="-0.667">
        <ele>27.5</ele>
        <time>2020-05-31T13:38:50Z</time>
      </trkpt>
      <trkpt lat="46.29776" lon="-0.66708">
        <ele>27.4</ele>
        <time>2020-05-31T13:38:51Z</time>
      </trkpt>
      <trkpt lat="46.29776" lon="-0.66716">
        <ele>27.3</ele>
        <time>2020-05-31T13:38:52Z</time>
      </trkpt>
      <trkpt lat="46.29776" lon="-0.66724">
        <ele>27.2</ele>
        <time>2020-05-31T13:38:53Z</time>
      </trkpt>
      <trkpt lat="46.29777" lon="-0.66732">
        <ele>27.1</ele>
        <time>2020-05-31T13:38:54Z</time>
      </trkpt>
      <trkpt lat="46.29777" lon="-0.66741">
        <ele>26.9</ele>
        <time>2020-05-31T13:38:55Z</time>
      </trkpt>
      <trkpt lat="46.29776" lon="-0.6675">
        <ele>26.8</ele>
        <time>2020-05-31T13:38:56Z</time>
      </trkpt>
      <trkpt lat="46.29776" lon="-0.66759">
        <ele>26.6</ele>
        <time>2020-05-31T13:38:57Z</time>
      </trkpt>
      <trkpt lat="46.29776" lon="-0.66767">
        <ele>26.5</ele>
        <time>2020-05-31T13:38:58Z</time>
      </trkpt>
      <trkpt lat="46.29776" lon="-0.66776">
        <ele>26.3</ele>
        <time>2020-05-31T13:38:59Z</time>
      </trkpt>
      <trkpt lat="46.29775" lon="-0.66785">
        <ele>26.1</ele>
        <time>2020-05-31T13:39:00Z</time>
      </trkpt>
      <trkpt lat="46.29775" lon="-0.66795">
        <ele>25.9</ele>
        <time>2020-05-31T13:39:01Z</time>
      </trkpt>
      <trkpt lat="46.29774" lon="-0.66803">
        <ele>25.8</ele>
        <time>2020-05-31T13:39:02Z</time>
      </trkpt>
      <trkpt lat="46.29774" lon="-0.66812">
        <ele>25.7</ele>
        <time>2020-05-31T13:39:03Z</time>
      </trkpt>
      <trkpt lat="46.29773" lon="-0.66821">
        <ele>25.6</ele>
        <time>2020-05-31T13:39:04Z</time>
      </trkpt>
      <trkpt lat="46.29772" lon="-0.66828">
        <ele>25.6</ele>
        <time>2020-05-31T13:39:05Z</time>
      </trkpt>
      <trkpt lat="46.29771" lon="-0.66838">
        <ele>25.5</ele>
        <time>2020-05-31T13:39:06Z</time>
      </trkpt>
      <trkpt lat="46.2977" lon="-0.66846">
        <ele>25.4</ele>
        <time>2020-05-31T13:39:07Z</time>
      </trkpt>
      <trkpt lat="46.29768" lon="-0.66854">
        <ele>25.3</ele>
        <time>2020-05-31T13:39:08Z</time>
      </trkpt>
      <trkpt lat="46.29767" lon="-0.66863">
        <ele>25.3</ele>
        <time>2020-05-31T13:39:09Z</time>
      </trkpt>
      <trkpt lat="46.29765" lon="-0.66872">
        <ele>25.2</ele>
        <time>2020-05-31T13:39:10Z</time>
      </trkpt>
      <trkpt lat="46.29763" lon="-0.66881">
        <ele>25.1</ele>
        <time>2020-05-31T13:39:11Z</time>
      </trkpt>
      <trkpt lat="46.29761" lon="-0.6689">
        <ele>25</ele>
        <time>2020-05-31T13:39:12Z</time>
      </trkpt>
      <trkpt lat="46.29759" lon="-0.66899">
        <ele>24.9</ele>
        <time>2020-05-31T13:39:13Z</time>
      </trkpt>
      <trkpt lat="46.29757" lon="-0.66907">
        <ele>24.8</ele>
        <time>2020-05-31T13:39:14Z</time>
      </trkpt>
      <trkpt lat="46.29755" lon="-0.66916">
        <ele>24.7</ele>
        <time>2020-05-31T13:39:15Z</time>
      </trkpt>
      <trkpt lat="46.29753" lon="-0.66925">
        <ele>24.6</ele>
        <time>2020-05-31T13:39:16Z</time>
      </trkpt>
      <trkpt lat="46.29751" lon="-0.66934">
        <ele>24.5</ele>
        <time>2020-05-31T13:39:17Z</time>
      </trkpt>
      <trkpt lat="46.29749" lon="-0.66943">
        <ele>24.4</ele>
        <time>2020-05-31T13:39:18Z</time>
      </trkpt>
      <trkpt lat="46.29747" lon="-0.66953">
        <ele>24.4</ele>
        <time>2020-05-31T13:39:19Z</time>
      </trkpt>
      <trkpt lat="46.29745" lon="-0.66962">
        <ele>24.3</ele>
        <time>2020-05-31T13:39:20Z</time>
      </trkpt>
      <trkpt lat="46.29743" lon="-0.66971">
        <ele>24.2</ele>
        <time>2020-05-31T13:39:21Z</time>
      </trkpt>
      <trkpt lat="46.29741" lon="-0.6698">
        <ele>24.1</ele>
        <time>2020-05-31T13:39:22Z</time>
      </trkpt>
      <trkpt lat="46.29739" lon="-0.66988">
        <ele>24</ele>
        <time>2020-05-31T13:39:23Z</time>
      </trkpt>
      <trkpt lat="46.29737" lon="-0.66998">
        <ele>24</ele>
        <time>2020-05-31T13:39:24Z</time>
      </trkpt>
      <trkpt lat="46.29735" lon="-0.67007">
        <ele>23.9</ele>
        <time>2020-05-31T13:39:25Z</time>
      </trkpt>
      <trkpt lat="46.29732" lon="-0.67016">
        <ele>23.9</ele>
        <time>2020-05-31T13:39:26Z</time>
      </trkpt>
      <trkpt lat="46.29729" lon="-0.67026">
        <ele>23.9</ele>
        <time>2020-05-31T13:39:27Z</time>
      </trkpt>
      <trkpt lat="46.29727" lon="-0.67036">
        <ele>23.8</ele>
        <time>2020-05-31T13:39:28Z</time>
      </trkpt>
      <trkpt lat="46.29724" lon="-0.67045">
        <ele>23.8</ele>
        <time>2020-05-31T13:39:29Z</time>
      </trkpt>
      <trkpt lat="46.29722" lon="-0.67053">
        <ele>23.8</ele>
        <time>2020-05-31T13:39:30Z</time>
      </trkpt>
      <trkpt lat="46.2972" lon="-0.67061">
        <ele>23.7</ele>
        <time>2020-05-31T13:39:31Z</time>
      </trkpt>
      <trkpt lat="46.29718" lon="-0.67069">
        <ele>23.7</ele>
        <time>2020-05-31T13:39:32Z</time>
      </trkpt>
      <trkpt lat="46.29716" lon="-0.67076">
        <ele>23.7</ele>
        <time>2020-05-31T13:39:33Z</time>
      </trkpt>
      <trkpt lat="46.29714" lon="-0.67083">
        <ele>23.7</ele>
        <time>2020-05-31T13:39:34Z</time>
      </trkpt>
      <trkpt lat="46.29712" lon="-0.6709">
        <ele>23.7</ele>
        <time>2020-05-31T13:39:35Z</time>
      </trkpt>
      <trkpt lat="46.2971" lon="-0.67099">
        <ele>23.7</ele>
        <time>2020-05-31T13:39:36Z</time>
      </trkpt>
      <trkpt lat="46.29709" lon="-0.67107">
        <ele>23.6</ele>
        <time>2020-05-31T13:39:37Z</time>
      </trkpt>
      <trkpt lat="46.29707" lon="-0.67115">
        <ele>23.6</ele>
        <time>2020-05-31T13:39:38Z</time>
      </trkpt>
      <trkpt lat="46.29705" lon="-0.67122">
        <ele>23.6</ele>
        <time>2020-05-31T13:39:39Z</time>
      </trkpt>
      <trkpt lat="46.29703" lon="-0.6713">
        <ele>23.6</ele>
        <time>2020-05-31T13:39:40Z</time>
      </trkpt>
      <trkpt lat="46.29702" lon="-0.67137">
        <ele>23.6</ele>
        <time>2020-05-31T13:39:41Z</time>
      </trkpt>
      <trkpt lat="46.297" lon="-0.67145">
        <ele>23.5</ele>
        <time>2020-05-31T13:39:42Z</time>
      </trkpt>
      <trkpt lat="46.29699" lon="-0.67152">
        <ele>23.5</ele>
        <time>2020-05-31T13:39:43Z</time>
      </trkpt>
      <trkpt lat="46.29697" lon="-0.6716">
        <ele>23.5</ele>
        <time>2020-05-31T13:39:44Z</time>
      </trkpt>
      <trkpt lat="46.29695" lon="-0.67167">
        <ele>23.5</ele>
        <time>2020-05-31T13:39:45Z</time>
      </trkpt>
      <trkpt lat="46.29693" lon="-0.67176">
        <ele>23.5</ele>
        <time>2020-05-31T13:39:46Z</time>
      </trkpt>
      <trkpt lat="46.29691" lon="-0.67185">
        <ele>23.5</ele>
        <time>2020-05-31T13:39:47Z</time>
      </trkpt>
      <trkpt lat="46.2969" lon="-0.67189">
        <ele>23.5</ele>
        <time>2020-05-31T13:39:48Z</time>
      </trkpt>
      <trkpt lat="46.29688" lon="-0.67196">
        <ele>23.5</ele>
        <time>2020-05-31T13:39:49Z</time>
      </trkpt>
      <trkpt lat="46.29688" lon="-0.67203">
        <ele>23.4</ele>
        <time>2020-05-31T13:39:50Z</time>
      </trkpt>
      <trkpt lat="46.29686" lon="-0.67214">
        <ele>23.4</ele>
        <time>2020-05-31T13:39:51Z</time>
      </trkpt>
      <trkpt lat="46.29683" lon="-0.67223">
        <ele>23.4</ele>
        <time>2020-05-31T13:39:52Z</time>
      </trkpt>
      <trkpt lat="46.29682" lon="-0.67229">
        <ele>23.4</ele>
        <time>2020-05-31T13:39:53Z</time>
      </trkpt>
      <trkpt lat="46.2968" lon="-0.67238">
        <ele>23.4</ele>
        <time>2020-05-31T13:39:54Z</time>
      </trkpt>
      <trkpt lat="46.29678" lon="-0.67245">
        <ele>23.4</ele>
        <time>2020-05-31T13:39:55Z</time>
      </trkpt>
      <trkpt lat="46.29676" lon="-0.67254">
        <ele>23.4</ele>
        <time>2020-05-31T13:39:56Z</time>
      </trkpt>
      <trkpt lat="46.29674" lon="-0.67263">
        <ele>23.4</ele>
        <time>2020-05-31T13:39:57Z</time>
      </trkpt>
      <trkpt lat="46.29672" lon="-0.67271">
        <ele>23.3</ele>
        <time>2020-05-31T13:39:58Z</time>
      </trkpt>
      <trkpt lat="46.29671" lon="-0.67279">
        <ele>23.3</ele>
        <time>2020-05-31T13:39:59Z</time>
      </trkpt>
      <trkpt lat="46.2967" lon="-0.67288">
        <ele>23.3</ele>
        <time>2020-05-31T13:40:00Z</time>
      </trkpt>
      <trkpt lat="46.29668" lon="-0.67297">
        <ele>23.2</ele>
        <time>2020-05-31T13:40:01Z</time>
      </trkpt>
      <trkpt lat="46.29667" lon="-0.67306">
        <ele>23.1</ele>
        <time>2020-05-31T13:40:02Z</time>
      </trkpt>
      <trkpt lat="46.29667" lon="-0.67314">
        <ele>23.1</ele>
        <time>2020-05-31T13:40:03Z</time>
      </trkpt>
      <trkpt lat="46.29666" lon="-0.6732">
        <ele>23.1</ele>
        <time>2020-05-31T13:40:04Z</time>
      </trkpt>
      <trkpt lat="46.29667" lon="-0.6733">
        <ele>23</ele>
        <time>2020-05-31T13:40:05Z</time>
      </trkpt>
      <trkpt lat="46.29667" lon="-0.6734">
        <ele>22.9</ele>
        <time>2020-05-31T13:40:06Z</time>
      </trkpt>
      <trkpt lat="46.29668" lon="-0.67351">
        <ele>22.8</ele>
        <time>2020-05-31T13:40:07Z</time>
      </trkpt>
      <trkpt lat="46.29668" lon="-0.67361">
        <ele>22.7</ele>
        <time>2020-05-31T13:40:08Z</time>
      </trkpt>
      <trkpt lat="46.29669" lon="-0.67371">
        <ele>22.5</ele>
        <time>2020-05-31T13:40:09Z</time>
      </trkpt>
      <trkpt lat="46.29669" lon="-0.67381">
        <ele>22.4</ele>
        <time>2020-05-31T13:40:10Z</time>
      </trkpt>
      <trkpt lat="46.29669" lon="-0.67392">
        <ele>22.3</ele>
        <time>2020-05-31T13:40:11Z</time>
      </trkpt>
      <trkpt lat="46.2967" lon="-0.67402">
        <ele>22.2</ele>
        <time>2020-05-31T13:40:12Z</time>
      </trkpt>
      <trkpt lat="46.2967" lon="-0.67412">
        <ele>22.1</ele>
        <time>2020-05-31T13:40:13Z</time>
      </trkpt>
      <trkpt lat="46.2967" lon="-0.67422">
        <ele>22.1</ele>
        <time>2020-05-31T13:40:14Z</time>
      </trkpt>
      <trkpt lat="46.2967" lon="-0.67432">
        <ele>22</ele>
        <time>2020-05-31T13:40:15Z</time>
      </trkpt>
      <trkpt lat="46.2967" lon="-0.67442">
        <ele>22</ele>
        <time>2020-05-31T13:40:16Z</time>
      </trkpt>
      <trkpt lat="46.2967" lon="-0.67452">
        <ele>21.9</ele>
        <time>2020-05-31T13:40:17Z</time>
      </trkpt>
      <trkpt lat="46.2967" lon="-0.67462">
        <ele>21.9</ele>
        <time>2020-05-31T13:40:18Z</time>
      </trkpt>
      <trkpt lat="46.29671" lon="-0.67471">
        <ele>21.8</ele>
        <time>2020-05-31T13:40:19Z</time>
      </trkpt>
      <trkpt lat="46.29671" lon="-0.67481">
        <ele>21.7</ele>
        <time>2020-05-31T13:40:20Z</time>
      </trkpt>
      <trkpt lat="46.29671" lon="-0.6749">
        <ele>21.6</ele>
        <time>2020-05-31T13:40:21Z</time>
      </trkpt>
      <trkpt lat="46.29672" lon="-0.67499">
        <ele>21.5</ele>
        <time>2020-05-31T13:40:22Z</time>
      </trkpt>
      <trkpt lat="46.29673" lon="-0.67509">
        <ele>21.4</ele>
        <time>2020-05-31T13:40:23Z</time>
      </trkpt>
      <trkpt lat="46.29673" lon="-0.67519">
        <ele>21.4</ele>
        <time>2020-05-31T13:40:24Z</time>
      </trkpt>
      <trkpt lat="46.29674" lon="-0.67528">
        <ele>21.3</ele>
        <time>2020-05-31T13:40:25Z</time>
      </trkpt>
      <trkpt lat="46.29674" lon="-0.67538">
        <ele>21.2</ele>
        <time>2020-05-31T13:40:26Z</time>
      </trkpt>
      <trkpt lat="46.29675" lon="-0.67547">
        <ele>21.1</ele>
        <time>2020-05-31T13:40:27Z</time>
      </trkpt>
      <trkpt lat="46.29676" lon="-0.67557">
        <ele>21</ele>
        <time>2020-05-31T13:40:28Z</time>
      </trkpt>
      <trkpt lat="46.29677" lon="-0.67566">
        <ele>20.9</ele>
        <time>2020-05-31T13:40:29Z</time>
      </trkpt>
      <trkpt lat="46.29677" lon="-0.67576">
        <ele>20.8</ele>
        <time>2020-05-31T13:40:30Z</time>
      </trkpt>
      <trkpt lat="46.29678" lon="-0.67586">
        <ele>20.6</ele>
        <time>2020-05-31T13:40:31Z</time>
      </trkpt>
      <trkpt lat="46.29679" lon="-0.67596">
        <ele>20.5</ele>
        <time>2020-05-31T13:40:32Z</time>
      </trkpt>
      <trkpt lat="46.2968" lon="-0.67605">
        <ele>20.3</ele>
        <time>2020-05-31T13:40:33Z</time>
      </trkpt>
      <trkpt lat="46.29681" lon="-0.67615">
        <ele>20.2</ele>
        <time>2020-05-31T13:40:34Z</time>
      </trkpt>
      <trkpt lat="46.29681" lon="-0.67626">
        <ele>20</ele>
        <time>2020-05-31T13:40:35Z</time>
      </trkpt>
      <trkpt lat="46.29682" lon="-0.67636">
        <ele>19.9</ele>
        <time>2020-05-31T13:40:36Z</time>
      </trkpt>
      <trkpt lat="46.29682" lon="-0.67645">
        <ele>19.9</ele>
        <time>2020-05-31T13:40:37Z</time>
      </trkpt>
      <trkpt lat="46.29683" lon="-0.67655">
        <ele>19.9</ele>
        <time>2020-05-31T13:40:38Z</time>
      </trkpt>
      <trkpt lat="46.29684" lon="-0.67664">
        <ele>19.8</ele>
        <time>2020-05-31T13:40:39Z</time>
      </trkpt>
      <trkpt lat="46.29684" lon="-0.67671">
        <ele>19.8</ele>
        <time>2020-05-31T13:40:40Z</time>
      </trkpt>
      <trkpt lat="46.29686" lon="-0.67678">
        <ele>19.8</ele>
        <time>2020-05-31T13:40:41Z</time>
      </trkpt>
      <trkpt lat="46.29686" lon="-0.67685">
        <ele>19.8</ele>
        <time>2020-05-31T13:40:42Z</time>
      </trkpt>
      <trkpt lat="46.29687" lon="-0.67691">
        <ele>19.8</ele>
        <time>2020-05-31T13:40:43Z</time>
      </trkpt>
      <trkpt lat="46.29686" lon="-0.67696">
        <ele>19.8</ele>
        <time>2020-05-31T13:40:44Z</time>
      </trkpt>
      <trkpt lat="46.29684" lon="-0.67702">
        <ele>19.7</ele>
        <time>2020-05-31T13:40:45Z</time>
      </trkpt>
      <trkpt lat="46.29684" lon="-0.67708">
        <ele>19.7</ele>
        <time>2020-05-31T13:40:46Z</time>
      </trkpt>
      <trkpt lat="46.29685" lon="-0.67715">
        <ele>19.7</ele>
        <time>2020-05-31T13:40:47Z</time>
      </trkpt>
      <trkpt lat="46.29685" lon="-0.67722">
        <ele>19.7</ele>
        <time>2020-05-31T13:40:48Z</time>
      </trkpt>
      <trkpt lat="46.29686" lon="-0.6773">
        <ele>19.7</ele>
        <time>2020-05-31T13:40:49Z</time>
      </trkpt>
      <trkpt lat="46.29687" lon="-0.67737">
        <ele>19.7</ele>
        <time>2020-05-31T13:40:50Z</time>
      </trkpt>
      <trkpt lat="46.29686" lon="-0.67745">
        <ele>19.7</ele>
        <time>2020-05-31T13:40:51Z</time>
      </trkpt>
      <trkpt lat="46.29685" lon="-0.67752">
        <ele>19.6</ele>
        <time>2020-05-31T13:40:52Z</time>
      </trkpt>
      <trkpt lat="46.29685" lon="-0.6776">
        <ele>19.6</ele>
        <time>2020-05-31T13:40:53Z</time>
      </trkpt>
      <trkpt lat="46.29685" lon="-0.67768">
        <ele>19.6</ele>
        <time>2020-05-31T13:40:54Z</time>
      </trkpt>
      <trkpt lat="46.29685" lon="-0.67776">
        <ele>19.6</ele>
        <time>2020-05-31T13:40:55Z</time>
      </trkpt>
      <trkpt lat="46.29684" lon="-0.67784">
        <ele>19.6</ele>
        <time>2020-05-31T13:40:56Z</time>
      </trkpt>
      <trkpt lat="46.29684" lon="-0.67793">
        <ele>19.6</ele>
        <time>2020-05-31T13:40:57Z</time>
      </trkpt>
      <trkpt lat="46.29683" lon="-0.67801">
        <ele>19.6</ele>
        <time>2020-05-31T13:40:58Z</time>
      </trkpt>
      <trkpt lat="46.29682" lon="-0.6781">
        <ele>19.6</ele>
        <time>2020-05-31T13:40:59Z</time>
      </trkpt>
      <trkpt lat="46.29682" lon="-0.67818">
        <ele>19.6</ele>
        <time>2020-05-31T13:41:00Z</time>
      </trkpt>
      <trkpt lat="46.29681" lon="-0.67827">
        <ele>19.6</ele>
        <time>2020-05-31T13:41:01Z</time>
      </trkpt>
      <trkpt lat="46.2968" lon="-0.67835">
        <ele>19.7</ele>
        <time>2020-05-31T13:41:02Z</time>
      </trkpt>
      <trkpt lat="46.29679" lon="-0.67844">
        <ele>19.7</ele>
        <time>2020-05-31T13:41:03Z</time>
      </trkpt>
      <trkpt lat="46.29679" lon="-0.67852">
        <ele>19.7</ele>
        <time>2020-05-31T13:41:04Z</time>
      </trkpt>
      <trkpt lat="46.29679" lon="-0.67861">
        <ele>19.7</ele>
        <time>2020-05-31T13:41:05Z</time>
      </trkpt>
      <trkpt lat="46.29679" lon="-0.6787">
        <ele>19.7</ele>
        <time>2020-05-31T13:41:06Z</time>
      </trkpt>
      <trkpt lat="46.29679" lon="-0.6788">
        <ele>19.7</ele>
        <time>2020-05-31T13:41:07Z</time>
      </trkpt>
      <trkpt lat="46.2968" lon="-0.6789">
        <ele>19.7</ele>
        <time>2020-05-31T13:41:08Z</time>
      </trkpt>
      <trkpt lat="46.29681" lon="-0.679">
        <ele>19.7</ele>
        <time>2020-05-31T13:41:09Z</time>
      </trkpt>
      <trkpt lat="46.29682" lon="-0.6791">
        <ele>19.6</ele>
        <time>2020-05-31T13:41:10Z</time>
      </trkpt>
      <trkpt lat="46.29688" lon="-0.67919">
        <ele>19.5</ele>
        <time>2020-05-31T13:41:11Z</time>
      </trkpt>
      <trkpt lat="46.29689" lon="-0.67929">
        <ele>19.4</ele>
        <time>2020-05-31T13:41:12Z</time>
      </trkpt>
      <trkpt lat="46.2969" lon="-0.67939">
        <ele>19.2</ele>
        <time>2020-05-31T13:41:13Z</time>
      </trkpt>
      <trkpt lat="46.29692" lon="-0.67949">
        <ele>19.1</ele>
        <time>2020-05-31T13:41:14Z</time>
      </trkpt>
      <trkpt lat="46.29693" lon="-0.67959">
        <ele>19</ele>
        <time>2020-05-31T13:41:15Z</time>
      </trkpt>
      <trkpt lat="46.29696" lon="-0.67969">
        <ele>19</ele>
        <time>2020-05-31T13:41:16Z</time>
      </trkpt>
      <trkpt lat="46.29697" lon="-0.67979">
        <ele>19</ele>
        <time>2020-05-31T13:41:17Z</time>
      </trkpt>
      <trkpt lat="46.29699" lon="-0.6799">
        <ele>19</ele>
        <time>2020-05-31T13:41:18Z</time>
      </trkpt>
      <trkpt lat="46.297" lon="-0.67999">
        <ele>19</ele>
        <time>2020-05-31T13:41:19Z</time>
      </trkpt>
      <trkpt lat="46.29702" lon="-0.68009">
        <ele>19</ele>
        <time>2020-05-31T13:41:20Z</time>
      </trkpt>
      <trkpt lat="46.29702" lon="-0.6802">
        <ele>18.9</ele>
        <time>2020-05-31T13:41:21Z</time>
      </trkpt>
      <trkpt lat="46.29703" lon="-0.68031">
        <ele>18.8</ele>
        <time>2020-05-31T13:41:22Z</time>
      </trkpt>
      <trkpt lat="46.29707" lon="-0.68041">
        <ele>18.7</ele>
        <time>2020-05-31T13:41:23Z</time>
      </trkpt>
      <trkpt lat="46.29709" lon="-0.68051">
        <ele>18.6</ele>
        <time>2020-05-31T13:41:24Z</time>
      </trkpt>
      <trkpt lat="46.2971" lon="-0.68062">
        <ele>18.5</ele>
        <time>2020-05-31T13:41:25Z</time>
      </trkpt>
      <trkpt lat="46.29712" lon="-0.68072">
        <ele>18.4</ele>
        <time>2020-05-31T13:41:26Z</time>
      </trkpt>
      <trkpt lat="46.29714" lon="-0.68082">
        <ele>18.3</ele>
        <time>2020-05-31T13:41:27Z</time>
      </trkpt>
      <trkpt lat="46.29715" lon="-0.68093">
        <ele>18.2</ele>
        <time>2020-05-31T13:41:28Z</time>
      </trkpt>
      <trkpt lat="46.29716" lon="-0.68104">
        <ele>18.1</ele>
        <time>2020-05-31T13:41:29Z</time>
      </trkpt>
      <trkpt lat="46.29717" lon="-0.68116">
        <ele>17.9</ele>
        <time>2020-05-31T13:41:30Z</time>
      </trkpt>
      <trkpt lat="46.29718" lon="-0.68127">
        <ele>17.8</ele>
        <time>2020-05-31T13:41:31Z</time>
      </trkpt>
      <trkpt lat="46.29719" lon="-0.68138">
        <ele>17.7</ele>
        <time>2020-05-31T13:41:32Z</time>
      </trkpt>
      <trkpt lat="46.2972" lon="-0.68148">
        <ele>17.6</ele>
        <time>2020-05-31T13:41:33Z</time>
      </trkpt>
      <trkpt lat="46.29722" lon="-0.68159">
        <ele>17.5</ele>
        <time>2020-05-31T13:41:34Z</time>
      </trkpt>
      <trkpt lat="46.29723" lon="-0.6817">
        <ele>17.4</ele>
        <time>2020-05-31T13:41:35Z</time>
      </trkpt>
      <trkpt lat="46.29725" lon="-0.68181">
        <ele>17.3</ele>
        <time>2020-05-31T13:41:36Z</time>
      </trkpt>
      <trkpt lat="46.29725" lon="-0.68192">
        <ele>17.2</ele>
        <time>2020-05-31T13:41:37Z</time>
      </trkpt>
      <trkpt lat="46.29727" lon="-0.68203">
        <ele>17</ele>
        <time>2020-05-31T13:41:38Z</time>
      </trkpt>
      <trkpt lat="46.29728" lon="-0.68214">
        <ele>16.9</ele>
        <time>2020-05-31T13:41:39Z</time>
      </trkpt>
      <trkpt lat="46.29728" lon="-0.68225">
        <ele>16.7</ele>
        <time>2020-05-31T13:41:40Z</time>
      </trkpt>
      <trkpt lat="46.29728" lon="-0.68236">
        <ele>16.4</ele>
        <time>2020-05-31T13:41:41Z</time>
      </trkpt>
      <trkpt lat="46.29729" lon="-0.68247">
        <ele>16.3</ele>
        <time>2020-05-31T13:41:42Z</time>
      </trkpt>
      <trkpt lat="46.29729" lon="-0.68258">
        <ele>16.2</ele>
        <time>2020-05-31T13:41:43Z</time>
      </trkpt>
      <trkpt lat="46.29729" lon="-0.68269">
        <ele>16.2</ele>
        <time>2020-05-31T13:41:44Z</time>
      </trkpt>
      <trkpt lat="46.29729" lon="-0.6828">
        <ele>15.9</ele>
        <time>2020-05-31T13:41:45Z</time>
      </trkpt>
      <trkpt lat="46.29729" lon="-0.68291">
        <ele>15.8</ele>
        <time>2020-05-31T13:41:46Z</time>
      </trkpt>
      <trkpt lat="46.29729" lon="-0.68302">
        <ele>15.7</ele>
        <time>2020-05-31T13:41:47Z</time>
      </trkpt>
      <trkpt lat="46.29728" lon="-0.68312">
        <ele>15.7</ele>
        <time>2020-05-31T13:41:48Z</time>
      </trkpt>
      <trkpt lat="46.29727" lon="-0.68323">
        <ele>15.6</ele>
        <time>2020-05-31T13:41:49Z</time>
      </trkpt>
      <trkpt lat="46.29726" lon="-0.68334">
        <ele>15.6</ele>
        <time>2020-05-31T13:41:50Z</time>
      </trkpt>
      <trkpt lat="46.29726" lon="-0.68344">
        <ele>15.5</ele>
        <time>2020-05-31T13:41:51Z</time>
      </trkpt>
      <trkpt lat="46.29725" lon="-0.68355">
        <ele>15.4</ele>
        <time>2020-05-31T13:41:52Z</time>
      </trkpt>
      <trkpt lat="46.29725" lon="-0.68366">
        <ele>15.3</ele>
        <time>2020-05-31T13:41:53Z</time>
      </trkpt>
      <trkpt lat="46.29724" lon="-0.68376">
        <ele>15.2</ele>
        <time>2020-05-31T13:41:54Z</time>
      </trkpt>
      <trkpt lat="46.29723" lon="-0.68387">
        <ele>15.1</ele>
        <time>2020-05-31T13:41:55Z</time>
      </trkpt>
      <trkpt lat="46.29723" lon="-0.68397">
        <ele>15</ele>
        <time>2020-05-31T13:41:56Z</time>
      </trkpt>
      <trkpt lat="46.29721" lon="-0.68407">
        <ele>14.9</ele>
        <time>2020-05-31T13:41:57Z</time>
      </trkpt>
      <trkpt lat="46.2972" lon="-0.68418">
        <ele>14.8</ele>
        <time>2020-05-31T13:41:58Z</time>
      </trkpt>
      <trkpt lat="46.29719" lon="-0.68427">
        <ele>14.8</ele>
        <time>2020-05-31T13:41:59Z</time>
      </trkpt>
      <trkpt lat="46.29718" lon="-0.68437">
        <ele>14.7</ele>
        <time>2020-05-31T13:42:00Z</time>
      </trkpt>
      <trkpt lat="46.29716" lon="-0.68446">
        <ele>14.6</ele>
        <time>2020-05-31T13:42:01Z</time>
      </trkpt>
      <trkpt lat="46.29716" lon="-0.68456">
        <ele>14.4</ele>
        <time>2020-05-31T13:42:02Z</time>
      </trkpt>
      <trkpt lat="46.29715" lon="-0.68466">
        <ele>14.3</ele>
        <time>2020-05-31T13:42:03Z</time>
      </trkpt>
      <trkpt lat="46.29714" lon="-0.68475">
        <ele>14.1</ele>
        <time>2020-05-31T13:42:04Z</time>
      </trkpt>
      <trkpt lat="46.29713" lon="-0.68485">
        <ele>14</ele>
        <time>2020-05-31T13:42:05Z</time>
      </trkpt>
      <trkpt lat="46.29713" lon="-0.68495">
        <ele>13.9</ele>
        <time>2020-05-31T13:42:06Z</time>
      </trkpt>
      <trkpt lat="46.29712" lon="-0.68504">
        <ele>13.8</ele>
        <time>2020-05-31T13:42:07Z</time>
      </trkpt>
      <trkpt lat="46.29711" lon="-0.68514">
        <ele>13.8</ele>
        <time>2020-05-31T13:42:08Z</time>
      </trkpt>
      <trkpt lat="46.29711" lon="-0.68524">
        <ele>13.7</ele>
        <time>2020-05-31T13:42:09Z</time>
      </trkpt>
      <trkpt lat="46.29711" lon="-0.68535">
        <ele>13.6</ele>
        <time>2020-05-31T13:42:10Z</time>
      </trkpt>
      <trkpt lat="46.2971" lon="-0.68545">
        <ele>13.5</ele>
        <time>2020-05-31T13:42:11Z</time>
      </trkpt>
      <trkpt lat="46.29711" lon="-0.68556">
        <ele>13.5</ele>
        <time>2020-05-31T13:42:12Z</time>
      </trkpt>
      <trkpt lat="46.29711" lon="-0.68566">
        <ele>13.4</ele>
        <time>2020-05-31T13:42:13Z</time>
      </trkpt>
      <trkpt lat="46.29712" lon="-0.68577">
        <ele>13.4</ele>
        <time>2020-05-31T13:42:14Z</time>
      </trkpt>
      <trkpt lat="46.29713" lon="-0.68587">
        <ele>13.3</ele>
        <time>2020-05-31T13:42:15Z</time>
      </trkpt>
      <trkpt lat="46.29714" lon="-0.68598">
        <ele>13.2</ele>
        <time>2020-05-31T13:42:16Z</time>
      </trkpt>
      <trkpt lat="46.29714" lon="-0.68608">
        <ele>13.2</ele>
        <time>2020-05-31T13:42:17Z</time>
      </trkpt>
      <trkpt lat="46.29716" lon="-0.68619">
        <ele>13.1</ele>
        <time>2020-05-31T13:42:18Z</time>
      </trkpt>
      <trkpt lat="46.29718" lon="-0.68629">
        <ele>13.1</ele>
        <time>2020-05-31T13:42:19Z</time>
      </trkpt>
      <trkpt lat="46.29718" lon="-0.68639">
        <ele>13</ele>
        <time>2020-05-31T13:42:20Z</time>
      </trkpt>
      <trkpt lat="46.29718" lon="-0.68648">
        <ele>13</ele>
        <time>2020-05-31T13:42:21Z</time>
      </trkpt>
      <trkpt lat="46.29716" lon="-0.68657">
        <ele>13</ele>
        <time>2020-05-31T13:42:22Z</time>
      </trkpt>
      <trkpt lat="46.29715" lon="-0.68666">
        <ele>12.9</ele>
        <time>2020-05-31T13:42:23Z</time>
      </trkpt>
      <trkpt lat="46.29714" lon="-0.68675">
        <ele>12.8</ele>
        <time>2020-05-31T13:42:24Z</time>
      </trkpt>
      <trkpt lat="46.29713" lon="-0.68684">
        <ele>12.7</ele>
        <time>2020-05-31T13:42:25Z</time>
      </trkpt>
      <trkpt lat="46.29712" lon="-0.68692">
        <ele>12.5</ele>
        <time>2020-05-31T13:42:26Z</time>
      </trkpt>
      <trkpt lat="46.29711" lon="-0.68701">
        <ele>12.4</ele>
        <time>2020-05-31T13:42:27Z</time>
      </trkpt>
      <trkpt lat="46.29709" lon="-0.68709">
        <ele>12.3</ele>
        <time>2020-05-31T13:42:28Z</time>
      </trkpt>
      <trkpt lat="46.29707" lon="-0.68716">
        <ele>12.2</ele>
        <time>2020-05-31T13:42:29Z</time>
      </trkpt>
      <trkpt lat="46.29705" lon="-0.68723">
        <ele>12</ele>
        <time>2020-05-31T13:42:30Z</time>
      </trkpt>
      <trkpt lat="46.29703" lon="-0.6873">
        <ele>12</ele>
        <time>2020-05-31T13:42:31Z</time>
      </trkpt>
      <trkpt lat="46.29701" lon="-0.68736">
        <ele>11.8</ele>
        <time>2020-05-31T13:42:32Z</time>
      </trkpt>
      <trkpt lat="46.29698" lon="-0.68743">
        <ele>11.8</ele>
        <time>2020-05-31T13:42:33Z</time>
      </trkpt>
      <trkpt lat="46.29695" lon="-0.68749">
        <ele>11.7</ele>
        <time>2020-05-31T13:42:34Z</time>
      </trkpt>
      <trkpt lat="46.29693" lon="-0.68756">
        <ele>11.6</ele>
        <time>2020-05-31T13:42:35Z</time>
      </trkpt>
      <trkpt lat="46.29691" lon="-0.68764">
        <ele>11.4</ele>
        <time>2020-05-31T13:42:36Z</time>
      </trkpt>
      <trkpt lat="46.29687" lon="-0.6877">
        <ele>11.3</ele>
        <time>2020-05-31T13:42:37Z</time>
      </trkpt>
      <trkpt lat="46.29684" lon="-0.68777">
        <ele>11.2</ele>
        <time>2020-05-31T13:42:38Z</time>
      </trkpt>
      <trkpt lat="46.29681" lon="-0.68786">
        <ele>11</ele>
        <time>2020-05-31T13:42:39Z</time>
      </trkpt>
      <trkpt lat="46.29678" lon="-0.68794">
        <ele>10.9</ele>
        <time>2020-05-31T13:42:40Z</time>
      </trkpt>
      <trkpt lat="46.29675" lon="-0.68803">
        <ele>10.7</ele>
        <time>2020-05-31T13:42:41Z</time>
      </trkpt>
      <trkpt lat="46.29673" lon="-0.68811">
        <ele>10.6</ele>
        <time>2020-05-31T13:42:42Z</time>
      </trkpt>
      <trkpt lat="46.29671" lon="-0.6882">
        <ele>10.5</ele>
        <time>2020-05-31T13:42:43Z</time>
      </trkpt>
      <trkpt lat="46.2967" lon="-0.68829">
        <ele>10.3</ele>
        <time>2020-05-31T13:42:44Z</time>
      </trkpt>
      <trkpt lat="46.29669" lon="-0.68839">
        <ele>10.1</ele>
        <time>2020-05-31T13:42:45Z</time>
      </trkpt>
      <trkpt lat="46.29668" lon="-0.6885">
        <ele>9.9</ele>
        <time>2020-05-31T13:42:46Z</time>
      </trkpt>
      <trkpt lat="46.29668" lon="-0.6886">
        <ele>9.7</ele>
        <time>2020-05-31T13:42:47Z</time>
      </trkpt>
      <trkpt lat="46.29667" lon="-0.68871">
        <ele>9.5</ele>
        <time>2020-05-31T13:42:48Z</time>
      </trkpt>
      <trkpt lat="46.29668" lon="-0.68881">
        <ele>9.3</ele>
        <time>2020-05-31T13:42:49Z</time>
      </trkpt>
      <trkpt lat="46.29668" lon="-0.68891">
        <ele>9.2</ele>
        <time>2020-05-31T13:42:50Z</time>
      </trkpt>
      <trkpt lat="46.29668" lon="-0.689">
        <ele>9</ele>
        <time>2020-05-31T13:42:51Z</time>
      </trkpt>
      <trkpt lat="46.29668" lon="-0.68909">
        <ele>8.9</ele>
        <time>2020-05-31T13:42:52Z</time>
      </trkpt>
      <trkpt lat="46.29667" lon="-0.68917">
        <ele>8.8</ele>
        <time>2020-05-31T13:42:53Z</time>
      </trkpt>
      <trkpt lat="46.29666" lon="-0.68924">
        <ele>8.7</ele>
        <time>2020-05-31T13:42:54Z</time>
      </trkpt>
      <trkpt lat="46.29665" lon="-0.68931">
        <ele>8.6</ele>
        <time>2020-05-31T13:42:55Z</time>
      </trkpt>
      <trkpt lat="46.29665" lon="-0.68937">
        <ele>8.6</ele>
        <time>2020-05-31T13:42:56Z</time>
      </trkpt>
      <trkpt lat="46.29664" lon="-0.68943">
        <ele>8.5</ele>
        <time>2020-05-31T13:42:57Z</time>
      </trkpt>
      <trkpt lat="46.29662" lon="-0.68949">
        <ele>8.4</ele>
        <time>2020-05-31T13:42:58Z</time>
      </trkpt>
      <trkpt lat="46.29661" lon="-0.68954">
        <ele>8.4</ele>
        <time>2020-05-31T13:42:59Z</time>
      </trkpt>
      <trkpt lat="46.29661" lon="-0.68959">
        <ele>8.2</ele>
        <time>2020-05-31T13:43:00Z</time>
      </trkpt>
      <trkpt lat="46.29661" lon="-0.68961">
        <ele>8.2</ele>
        <time>2020-05-31T13:43:01Z</time>
      </trkpt>
      <trkpt lat="46.29661" lon="-0.68966">
        <ele>8.1</ele>
        <time>2020-05-31T13:43:02Z</time>
      </trkpt>
      <trkpt lat="46.29661" lon="-0.68968">
        <ele>8.1</ele>
        <time>2020-05-31T13:43:03Z</time>
      </trkpt>
      <trkpt lat="46.29662" lon="-0.6897">
        <ele>8.1</ele>
        <time>2020-05-31T13:43:04Z</time>
      </trkpt>
      <trkpt lat="46.29662" lon="-0.68971">
        <ele>8</ele>
        <time>2020-05-31T13:43:05Z</time>
      </trkpt>
      <trkpt lat="46.29661" lon="-0.68971">
        <ele>8</ele>
        <time>2020-05-31T13:43:06Z</time>
      </trkpt>
      <trkpt lat="46.2966" lon="-0.6897">
        <ele>8</ele>
        <time>2020-05-31T13:43:07Z</time>
      </trkpt>
      <trkpt lat="46.29658" lon="-0.6897">
        <ele>8</ele>
        <time>2020-05-31T13:43:08Z</time>
      </trkpt>
      <trkpt lat="46.29657" lon="-0.68971">
        <ele>7.9</ele>
        <time>2020-05-31T13:43:09Z</time>
      </trkpt>
      <trkpt lat="46.29656" lon="-0.68972">
        <ele>7.9</ele>
        <time>2020-05-31T13:43:10Z</time>
      </trkpt>
      <trkpt lat="46.29656" lon="-0.68973">
        <ele>7.9</ele>
        <time>2020-05-31T13:43:11Z</time>
      </trkpt>
      <trkpt lat="46.29656" lon="-0.68974">
        <ele>7.9</ele>
        <time>2020-05-31T13:43:12Z</time>
      </trkpt>
      <trkpt lat="46.29656" lon="-0.68974">
        <ele>7.9</ele>
        <time>2020-05-31T13:43:13Z</time>
      </trkpt>
      <trkpt lat="46.29655" lon="-0.68974">
        <ele>7.9</ele>
        <time>2020-05-31T13:43:14Z</time>
      </trkpt>
      <trkpt lat="46.29654" lon="-0.68974">
        <ele>7.8</ele>
        <time>2020-05-31T13:43:15Z</time>
      </trkpt>
      <trkpt lat="46.29654" lon="-0.68974">
        <ele>7.8</ele>
        <time>2020-05-31T13:43:16Z</time>
      </trkpt>
      <trkpt lat="46.29654" lon="-0.68975">
        <ele>7.8</ele>
        <time>2020-05-31T13:43:17Z</time>
      </trkpt>
      <trkpt lat="46.29655" lon="-0.68976">
        <ele>7.8</ele>
        <time>2020-05-31T13:43:18Z</time>
      </trkpt>
      <trkpt lat="46.29654" lon="-0.68976">
        <ele>7.8</ele>
        <time>2020-05-31T13:43:19Z</time>
      </trkpt>
      <trkpt lat="46.29654" lon="-0.68976">
        <ele>7.8</ele>
        <time>2020-05-31T13:43:20Z</time>
      </trkpt>
      <trkpt lat="46.29654" lon="-0.68977">
        <ele>7.8</ele>
        <time>2020-05-31T13:43:21Z</time>
      </trkpt>
      <trkpt lat="46.29652" lon="-0.68977">
        <ele>7.8</ele>
        <time>2020-05-31T13:43:22Z</time>
      </trkpt>
      <trkpt lat="46.29652" lon="-0.68977">
        <ele>7.8</ele>
        <time>2020-05-31T13:43:23Z</time>
      </trkpt>
      <trkpt lat="46.29652" lon="-0.68977">
        <ele>7.8</ele>
        <time>2020-05-31T13:43:24Z</time>
      </trkpt>
      <trkpt lat="46.29651" lon="-0.68977">
        <ele>7.8</ele>
        <time>2020-05-31T13:43:25Z</time>
      </trkpt>
      <trkpt lat="46.2965" lon="-0.68977">
        <ele>7.7</ele>
        <time>2020-05-31T13:43:26Z</time>
      </trkpt>
      <trkpt lat="46.2965" lon="-0.68977">
        <ele>7.7</ele>
        <time>2020-05-31T13:43:27Z</time>
      </trkpt>
      <trkpt lat="46.2965" lon="-0.68977">
        <ele>7.7</ele>
        <time>2020-05-31T13:43:28Z</time>
      </trkpt>
      <trkpt lat="46.2965" lon="-0.68978">
        <ele>7.7</ele>
        <time>2020-05-31T13:43:29Z</time>
      </trkpt>
      <trkpt lat="46.29649" lon="-0.68979">
        <ele>7.7</ele>
        <time>2020-05-31T13:43:30Z</time>
      </trkpt>
      <trkpt lat="46.29649" lon="-0.6898">
        <ele>7.7</ele>
        <time>2020-05-31T13:43:31Z</time>
      </trkpt>
      <trkpt lat="46.29649" lon="-0.68981">
        <ele>7.7</ele>
        <time>2020-05-31T13:43:32Z</time>
      </trkpt>
      <trkpt lat="46.29648" lon="-0.68982">
        <ele>7.6</ele>
        <time>2020-05-31T13:43:33Z</time>
      </trkpt>
      <trkpt lat="46.29646" lon="-0.68984">
        <ele>7.6</ele>
        <time>2020-05-31T13:43:34Z</time>
      </trkpt>
      <trkpt lat="46.29643" lon="-0.68987">
        <ele>7.5</ele>
        <time>2020-05-31T13:43:35Z</time>
      </trkpt>
      <trkpt lat="46.29642" lon="-0.68988">
        <ele>7.5</ele>
        <time>2020-05-31T13:43:36Z</time>
      </trkpt>
      <trkpt lat="46.29638" lon="-0.68992">
        <ele>7.4</ele>
        <time>2020-05-31T13:43:37Z</time>
      </trkpt>
      <trkpt lat="46.29637" lon="-0.68993">
        <ele>7.4</ele>
        <time>2020-05-31T13:43:38Z</time>
      </trkpt>
      <trkpt lat="46.29635" lon="-0.68996">
        <ele>7.3</ele>
        <time>2020-05-31T13:43:39Z</time>
      </trkpt>
      <trkpt lat="46.29631" lon="-0.69">
        <ele>7.2</ele>
        <time>2020-05-31T13:43:40Z</time>
      </trkpt>
      <trkpt lat="46.29628" lon="-0.69005">
        <ele>7.1</ele>
        <time>2020-05-31T13:43:41Z</time>
      </trkpt>
      <trkpt lat="46.29624" lon="-0.69009">
        <ele>7</ele>
        <time>2020-05-31T13:43:42Z</time>
      </trkpt>
      <trkpt lat="46.29619" lon="-0.69012">
        <ele>6.9</ele>
        <time>2020-05-31T13:43:43Z</time>
      </trkpt>
      <trkpt lat="46.29615" lon="-0.69014">
        <ele>6.9</ele>
        <time>2020-05-31T13:43:44Z</time>
      </trkpt>
      <trkpt lat="46.29612" lon="-0.69017">
        <ele>6.8</ele>
        <time>2020-05-31T13:43:45Z</time>
      </trkpt>
      <trkpt lat="46.29608" lon="-0.69019">
        <ele>6.7</ele>
        <time>2020-05-31T13:43:46Z</time>
      </trkpt>
      <trkpt lat="46.29605" lon="-0.69022">
        <ele>6.7</ele>
        <time>2020-05-31T13:43:47Z</time>
      </trkpt>
      <trkpt lat="46.29601" lon="-0.69025">
        <ele>6.6</ele>
        <time>2020-05-31T13:43:48Z</time>
      </trkpt>
      <trkpt lat="46.29597" lon="-0.69028">
        <ele>6.6</ele>
        <time>2020-05-31T13:43:49Z</time>
      </trkpt>
      <trkpt lat="46.29593" lon="-0.69032">
        <ele>6.5</ele>
        <time>2020-05-31T13:43:50Z</time>
      </trkpt>
      <trkpt lat="46.29589" lon="-0.69036">
        <ele>6.5</ele>
        <time>2020-05-31T13:43:51Z</time>
      </trkpt>
      <trkpt lat="46.29586" lon="-0.6904">
        <ele>6.5</ele>
        <time>2020-05-31T13:43:52Z</time>
      </trkpt>
      <trkpt lat="46.29582" lon="-0.69044">
        <ele>6.5</ele>
        <time>2020-05-31T13:43:53Z</time>
      </trkpt>
      <trkpt lat="46.29577" lon="-0.69046">
        <ele>6.6</ele>
        <time>2020-05-31T13:43:54Z</time>
      </trkpt>
      <trkpt lat="46.29573" lon="-0.69049">
        <ele>6.7</ele>
        <time>2020-05-31T13:43:55Z</time>
      </trkpt>
      <trkpt lat="46.29569" lon="-0.69051">
        <ele>6.7</ele>
        <time>2020-05-31T13:43:56Z</time>
      </trkpt>
      <trkpt lat="46.29565" lon="-0.69055">
        <ele>6.8</ele>
        <time>2020-05-31T13:43:57Z</time>
      </trkpt>
      <trkpt lat="46.2956" lon="-0.69057">
        <ele>6.8</ele>
        <time>2020-05-31T13:43:58Z</time>
      </trkpt>
      <trkpt lat="46.29555" lon="-0.69059">
        <ele>6.9</ele>
        <time>2020-05-31T13:43:59Z</time>
      </trkpt>
      <trkpt lat="46.29551" lon="-0.6906">
        <ele>6.9</ele>
        <time>2020-05-31T13:44:00Z</time>
      </trkpt>
      <trkpt lat="46.29546" lon="-0.69062">
        <ele>7</ele>
        <time>2020-05-31T13:44:01Z</time>
      </trkpt>
      <trkpt lat="46.29541" lon="-0.69064">
        <ele>7.1</ele>
        <time>2020-05-31T13:44:02Z</time>
      </trkpt>
      <trkpt lat="46.29536" lon="-0.69065">
        <ele>7.2</ele>
        <time>2020-05-31T13:44:03Z</time>
      </trkpt>
      <trkpt lat="46.29532" lon="-0.69067">
        <ele>7.3</ele>
        <time>2020-05-31T13:44:04Z</time>
      </trkpt>
      <trkpt lat="46.29528" lon="-0.69069">
        <ele>7.4</ele>
        <time>2020-05-31T13:44:05Z</time>
      </trkpt>
      <trkpt lat="46.29523" lon="-0.69071">
        <ele>7.5</ele>
        <time>2020-05-31T13:44:06Z</time>
      </trkpt>
      <trkpt lat="46.29517" lon="-0.69073">
        <ele>7.6</ele>
        <time>2020-05-31T13:44:07Z</time>
      </trkpt>
      <trkpt lat="46.29512" lon="-0.69075">
        <ele>7.7</ele>
        <time>2020-05-31T13:44:08Z</time>
      </trkpt>
      <trkpt lat="46.29507" lon="-0.69076">
        <ele>7.8</ele>
        <time>2020-05-31T13:44:09Z</time>
      </trkpt>
      <trkpt lat="46.29502" lon="-0.69077">
        <ele>7.9</ele>
        <time>2020-05-31T13:44:10Z</time>
      </trkpt>
      <trkpt lat="46.29498" lon="-0.69078">
        <ele>8</ele>
        <time>2020-05-31T13:44:11Z</time>
      </trkpt>
      <trkpt lat="46.29493" lon="-0.69078">
        <ele>8.2</ele>
        <time>2020-05-31T13:44:12Z</time>
      </trkpt>
      <trkpt lat="46.29488" lon="-0.69079">
        <ele>8.3</ele>
        <time>2020-05-31T13:44:13Z</time>
      </trkpt>
      <trkpt lat="46.29483" lon="-0.69081">
        <ele>8.4</ele>
        <time>2020-05-31T13:44:14Z</time>
      </trkpt>
      <trkpt lat="46.29478" lon="-0.69082">
        <ele>8.5</ele>
        <time>2020-05-31T13:44:15Z</time>
      </trkpt>
      <trkpt lat="46.29473" lon="-0.69083">
        <ele>8.6</ele>
        <time>2020-05-31T13:44:16Z</time>
      </trkpt>
      <trkpt lat="46.29468" lon="-0.69083">
        <ele>8.6</ele>
        <time>2020-05-31T13:44:17Z</time>
      </trkpt>
      <trkpt lat="46.29464" lon="-0.69081">
        <ele>8.8</ele>
        <time>2020-05-31T13:44:18Z</time>
      </trkpt>
      <trkpt lat="46.2946" lon="-0.69081">
        <ele>8.9</ele>
        <time>2020-05-31T13:44:19Z</time>
      </trkpt>
      <trkpt lat="46.29456" lon="-0.69082">
        <ele>8.9</ele>
        <time>2020-05-31T13:44:20Z</time>
      </trkpt>
      <trkpt lat="46.2945" lon="-0.69084">
        <ele>9</ele>
        <time>2020-05-31T13:44:21Z</time>
      </trkpt>
      <trkpt lat="46.29446" lon="-0.69084">
        <ele>9.1</ele>
        <time>2020-05-31T13:44:22Z</time>
      </trkpt>
      <trkpt lat="46.29441" lon="-0.69085">
        <ele>9.2</ele>
        <time>2020-05-31T13:44:23Z</time>
      </trkpt>
      <trkpt lat="46.29436" lon="-0.69085">
        <ele>9.2</ele>
        <time>2020-05-31T13:44:24Z</time>
      </trkpt>
      <trkpt lat="46.29432" lon="-0.69085">
        <ele>9.3</ele>
        <time>2020-05-31T13:44:25Z</time>
      </trkpt>
      <trkpt lat="46.29428" lon="-0.69084">
        <ele>9.3</ele>
        <time>2020-05-31T13:44:26Z</time>
      </trkpt>
      <trkpt lat="46.29424" lon="-0.69085">
        <ele>9.3</ele>
        <time>2020-05-31T13:44:27Z</time>
      </trkpt>
      <trkpt lat="46.29419" lon="-0.69085">
        <ele>9.4</ele>
        <time>2020-05-31T13:44:28Z</time>
      </trkpt>
      <trkpt lat="46.29415" lon="-0.69085">
        <ele>9.5</ele>
        <time>2020-05-31T13:44:29Z</time>
      </trkpt>
      <trkpt lat="46.2941" lon="-0.69085">
        <ele>9.5</ele>
        <time>2020-05-31T13:44:30Z</time>
      </trkpt>
      <trkpt lat="46.29405" lon="-0.69084">
        <ele>9.5</ele>
        <time>2020-05-31T13:44:31Z</time>
      </trkpt>
      <trkpt lat="46.29399" lon="-0.69083">
        <ele>9.5</ele>
        <time>2020-05-31T13:44:32Z</time>
      </trkpt>
      <trkpt lat="46.29394" lon="-0.69082">
        <ele>9.5</ele>
        <time>2020-05-31T13:44:33Z</time>
      </trkpt>
      <trkpt lat="46.29389" lon="-0.69081">
        <ele>9.5</ele>
        <time>2020-05-31T13:44:34Z</time>
      </trkpt>
      <trkpt lat="46.29383" lon="-0.6908">
        <ele>9.5</ele>
        <time>2020-05-31T13:44:35Z</time>
      </trkpt>
      <trkpt lat="46.29377" lon="-0.69081">
        <ele>9.5</ele>
        <time>2020-05-31T13:44:36Z</time>
      </trkpt>
      <trkpt lat="46.29371" lon="-0.69079">
        <ele>9.5</ele>
        <time>2020-05-31T13:44:37Z</time>
      </trkpt>
      <trkpt lat="46.29366" lon="-0.69079">
        <ele>9.5</ele>
        <time>2020-05-31T13:44:38Z</time>
      </trkpt>
      <trkpt lat="46.2936" lon="-0.69079">
        <ele>9.5</ele>
        <time>2020-05-31T13:44:39Z</time>
      </trkpt>
      <trkpt lat="46.29354" lon="-0.69077">
        <ele>9.5</ele>
        <time>2020-05-31T13:44:40Z</time>
      </trkpt>
      <trkpt lat="46.29348" lon="-0.69076">
        <ele>9.6</ele>
        <time>2020-05-31T13:44:41Z</time>
      </trkpt>
      <trkpt lat="46.29342" lon="-0.69073">
        <ele>9.6</ele>
        <time>2020-05-31T13:44:42Z</time>
      </trkpt>
      <trkpt lat="46.29336" lon="-0.69072">
        <ele>9.6</ele>
        <time>2020-05-31T13:44:43Z</time>
      </trkpt>
      <trkpt lat="46.29329" lon="-0.69071">
        <ele>9.7</ele>
        <time>2020-05-31T13:44:44Z</time>
      </trkpt>
      <trkpt lat="46.29324" lon="-0.69069">
        <ele>9.7</ele>
        <time>2020-05-31T13:44:45Z</time>
      </trkpt>
      <trkpt lat="46.29319" lon="-0.69066">
        <ele>9.7</ele>
        <time>2020-05-31T13:44:46Z</time>
      </trkpt>
      <trkpt lat="46.29313" lon="-0.69064">
        <ele>9.7</ele>
        <time>2020-05-31T13:44:47Z</time>
      </trkpt>
      <trkpt lat="46.29307" lon="-0.69063">
        <ele>9.8</ele>
        <time>2020-05-31T13:44:48Z</time>
      </trkpt>
      <trkpt lat="46.29302" lon="-0.69062">
        <ele>9.8</ele>
        <time>2020-05-31T13:44:49Z</time>
      </trkpt>
      <trkpt lat="46.29295" lon="-0.69061">
        <ele>9.8</ele>
        <time>2020-05-31T13:44:50Z</time>
      </trkpt>
      <trkpt lat="46.2929" lon="-0.69061">
        <ele>9.7</ele>
        <time>2020-05-31T13:44:51Z</time>
      </trkpt>
      <trkpt lat="46.29284" lon="-0.6906">
        <ele>9.7</ele>
        <time>2020-05-31T13:44:52Z</time>
      </trkpt>
      <trkpt lat="46.29278" lon="-0.6906">
        <ele>9.6</ele>
        <time>2020-05-31T13:44:53Z</time>
      </trkpt>
      <trkpt lat="46.29272" lon="-0.69059">
        <ele>9.5</ele>
        <time>2020-05-31T13:44:54Z</time>
      </trkpt>
      <trkpt lat="46.29266" lon="-0.69057">
        <ele>9.5</ele>
        <time>2020-05-31T13:44:55Z</time>
      </trkpt>
      <trkpt lat="46.2926" lon="-0.69056">
        <ele>9.4</ele>
        <time>2020-05-31T13:44:56Z</time>
      </trkpt>
      <trkpt lat="46.29254" lon="-0.69055">
        <ele>9.3</ele>
        <time>2020-05-31T13:44:57Z</time>
      </trkpt>
      <trkpt lat="46.29248" lon="-0.69055">
        <ele>9.2</ele>
        <time>2020-05-31T13:44:58Z</time>
      </trkpt>
      <trkpt lat="46.29242" lon="-0.69055">
        <ele>9.2</ele>
        <time>2020-05-31T13:44:59Z</time>
      </trkpt>
      <trkpt lat="46.29236" lon="-0.69054">
        <ele>9.1</ele>
        <time>2020-05-31T13:45:00Z</time>
      </trkpt>
      <trkpt lat="46.2923" lon="-0.69053">
        <ele>9.1</ele>
        <time>2020-05-31T13:45:01Z</time>
      </trkpt>
      <trkpt lat="46.29224" lon="-0.69052">
        <ele>9</ele>
        <time>2020-05-31T13:45:02Z</time>
      </trkpt>
      <trkpt lat="46.29218" lon="-0.69052">
        <ele>9</ele>
        <time>2020-05-31T13:45:03Z</time>
      </trkpt>
      <trkpt lat="46.29212" lon="-0.69051">
        <ele>9</ele>
        <time>2020-05-31T13:45:04Z</time>
      </trkpt>
      <trkpt lat="46.29206" lon="-0.69051">
        <ele>9</ele>
        <time>2020-05-31T13:45:05Z</time>
      </trkpt>
      <trkpt lat="46.292" lon="-0.6905">
        <ele>9</ele>
        <time>2020-05-31T13:45:06Z</time>
      </trkpt>
      <trkpt lat="46.29195" lon="-0.6905">
        <ele>9</ele>
        <time>2020-05-31T13:45:07Z</time>
      </trkpt>
      <trkpt lat="46.29189" lon="-0.69049">
        <ele>9</ele>
        <time>2020-05-31T13:45:08Z</time>
      </trkpt>
      <trkpt lat="46.29184" lon="-0.69048">
        <ele>9</ele>
        <time>2020-05-31T13:45:09Z</time>
      </trkpt>
      <trkpt lat="46.29178" lon="-0.69047">
        <ele>9.1</ele>
        <time>2020-05-31T13:45:10Z</time>
      </trkpt>
      <trkpt lat="46.29173" lon="-0.69047">
        <ele>9.1</ele>
        <time>2020-05-31T13:45:11Z</time>
      </trkpt>
      <trkpt lat="46.29168" lon="-0.69046">
        <ele>9.1</ele>
        <time>2020-05-31T13:45:12Z</time>
      </trkpt>
      <trkpt lat="46.29163" lon="-0.69046">
        <ele>9.1</ele>
        <time>2020-05-31T13:45:13Z</time>
      </trkpt>
      <trkpt lat="46.29158" lon="-0.69045">
        <ele>9.1</ele>
        <time>2020-05-31T13:45:14Z</time>
      </trkpt>
      <trkpt lat="46.29153" lon="-0.69044">
        <ele>9.2</ele>
        <time>2020-05-31T13:45:15Z</time>
      </trkpt>
      <trkpt lat="46.29148" lon="-0.69044">
        <ele>9.2</ele>
        <time>2020-05-31T13:45:16Z</time>
      </trkpt>
      <trkpt lat="46.29143" lon="-0.69042">
        <ele>9.2</ele>
        <time>2020-05-31T13:45:17Z</time>
      </trkpt>
      <trkpt lat="46.29137" lon="-0.69042">
        <ele>9.2</ele>
        <time>2020-05-31T13:45:18Z</time>
      </trkpt>
      <trkpt lat="46.29132" lon="-0.69043">
        <ele>9.2</ele>
        <time>2020-05-31T13:45:19Z</time>
      </trkpt>
      <trkpt lat="46.29126" lon="-0.69043">
        <ele>9.3</ele>
        <time>2020-05-31T13:45:20Z</time>
      </trkpt>
      <trkpt lat="46.29121" lon="-0.69044">
        <ele>9.3</ele>
        <time>2020-05-31T13:45:21Z</time>
      </trkpt>
      <trkpt lat="46.29115" lon="-0.69044">
        <ele>9.3</ele>
        <time>2020-05-31T13:45:22Z</time>
      </trkpt>
      <trkpt lat="46.2911" lon="-0.69044">
        <ele>9.3</ele>
        <time>2020-05-31T13:45:23Z</time>
      </trkpt>
      <trkpt lat="46.29104" lon="-0.69044">
        <ele>9.3</ele>
        <time>2020-05-31T13:45:24Z</time>
      </trkpt>
      <trkpt lat="46.29098" lon="-0.69044">
        <ele>9.3</ele>
        <time>2020-05-31T13:45:25Z</time>
      </trkpt>
      <trkpt lat="46.29092" lon="-0.69045">
        <ele>9.3</ele>
        <time>2020-05-31T13:45:26Z</time>
      </trkpt>
      <trkpt lat="46.29087" lon="-0.69046">
        <ele>9.4</ele>
        <time>2020-05-31T13:45:27Z</time>
      </trkpt>
      <trkpt lat="46.29081" lon="-0.69044">
        <ele>9.4</ele>
        <time>2020-05-31T13:45:28Z</time>
      </trkpt>
      <trkpt lat="46.29076" lon="-0.69045">
        <ele>9.4</ele>
        <time>2020-05-31T13:45:29Z</time>
      </trkpt>
      <trkpt lat="46.2907" lon="-0.69047">
        <ele>9.4</ele>
        <time>2020-05-31T13:45:30Z</time>
      </trkpt>
      <trkpt lat="46.29064" lon="-0.69048">
        <ele>9.3</ele>
        <time>2020-05-31T13:45:31Z</time>
      </trkpt>
      <trkpt lat="46.29058" lon="-0.6905">
        <ele>9.2</ele>
        <time>2020-05-31T13:45:32Z</time>
      </trkpt>
      <trkpt lat="46.29052" lon="-0.6905">
        <ele>9.2</ele>
        <time>2020-05-31T13:45:33Z</time>
      </trkpt>
      <trkpt lat="46.29045" lon="-0.69051">
        <ele>9.1</ele>
        <time>2020-05-31T13:45:34Z</time>
      </trkpt>
      <trkpt lat="46.29039" lon="-0.69051">
        <ele>8.9</ele>
        <time>2020-05-31T13:45:35Z</time>
      </trkpt>
      <trkpt lat="46.29033" lon="-0.69051">
        <ele>8.8</ele>
        <time>2020-05-31T13:45:36Z</time>
      </trkpt>
      <trkpt lat="46.29027" lon="-0.69051">
        <ele>8.7</ele>
        <time>2020-05-31T13:45:37Z</time>
      </trkpt>
      <trkpt lat="46.2902" lon="-0.69051">
        <ele>8.6</ele>
        <time>2020-05-31T13:45:38Z</time>
      </trkpt>
      <trkpt lat="46.29014" lon="-0.69051">
        <ele>8.4</ele>
        <time>2020-05-31T13:45:39Z</time>
      </trkpt>
      <trkpt lat="46.29007" lon="-0.6905">
        <ele>8.3</ele>
        <time>2020-05-31T13:45:40Z</time>
      </trkpt>
      <trkpt lat="46.29" lon="-0.69051">
        <ele>8.2</ele>
        <time>2020-05-31T13:45:41Z</time>
      </trkpt>
      <trkpt lat="46.28993" lon="-0.69051">
        <ele>8.1</ele>
        <time>2020-05-31T13:45:42Z</time>
      </trkpt>
      <trkpt lat="46.28987" lon="-0.69051">
        <ele>8.1</ele>
        <time>2020-05-31T13:45:43Z</time>
      </trkpt>
      <trkpt lat="46.2898" lon="-0.69052">
        <ele>8.1</ele>
        <time>2020-05-31T13:45:44Z</time>
      </trkpt>
      <trkpt lat="46.28974" lon="-0.69055">
        <ele>8</ele>
        <time>2020-05-31T13:45:45Z</time>
      </trkpt>
      <trkpt lat="46.28968" lon="-0.69055">
        <ele>8</ele>
        <time>2020-05-31T13:45:46Z</time>
      </trkpt>
      <trkpt lat="46.28961" lon="-0.69055">
        <ele>7.9</ele>
        <time>2020-05-31T13:45:47Z</time>
      </trkpt>
      <trkpt lat="46.28955" lon="-0.69056">
        <ele>7.9</ele>
        <time>2020-05-31T13:45:48Z</time>
      </trkpt>
      <trkpt lat="46.28949" lon="-0.69058">
        <ele>7.8</ele>
        <time>2020-05-31T13:45:49Z</time>
      </trkpt>
      <trkpt lat="46.28943" lon="-0.69061">
        <ele>7.8</ele>
        <time>2020-05-31T13:45:50Z</time>
      </trkpt>
      <trkpt lat="46.28937" lon="-0.69063">
        <ele>7.7</ele>
        <time>2020-05-31T13:45:51Z</time>
      </trkpt>
      <trkpt lat="46.2893" lon="-0.69069">
        <ele>7.7</ele>
        <time>2020-05-31T13:45:52Z</time>
      </trkpt>
      <trkpt lat="46.28923" lon="-0.6907">
        <ele>7.7</ele>
        <time>2020-05-31T13:45:53Z</time>
      </trkpt>
      <trkpt lat="46.28916" lon="-0.69071">
        <ele>7.6</ele>
        <time>2020-05-31T13:45:54Z</time>
      </trkpt>
      <trkpt lat="46.2891" lon="-0.69072">
        <ele>7.6</ele>
        <time>2020-05-31T13:45:55Z</time>
      </trkpt>
      <trkpt lat="46.28903" lon="-0.69073">
        <ele>7.6</ele>
        <time>2020-05-31T13:45:56Z</time>
      </trkpt>
      <trkpt lat="46.28897" lon="-0.69074">
        <ele>7.6</ele>
        <time>2020-05-31T13:45:57Z</time>
      </trkpt>
      <trkpt lat="46.28891" lon="-0.69076">
        <ele>7.6</ele>
        <time>2020-05-31T13:45:58Z</time>
      </trkpt>
      <trkpt lat="46.28884" lon="-0.69077">
        <ele>7.6</ele>
        <time>2020-05-31T13:45:59Z</time>
      </trkpt>
      <trkpt lat="46.28878" lon="-0.69078">
        <ele>7.6</ele>
        <time>2020-05-31T13:46:00Z</time>
      </trkpt>
      <trkpt lat="46.28872" lon="-0.69079">
        <ele>7.6</ele>
        <time>2020-05-31T13:46:01Z</time>
      </trkpt>
      <trkpt lat="46.28866" lon="-0.69079">
        <ele>7.6</ele>
        <time>2020-05-31T13:46:02Z</time>
      </trkpt>
      <trkpt lat="46.2886" lon="-0.69081">
        <ele>7.6</ele>
        <time>2020-05-31T13:46:03Z</time>
      </trkpt>
      <trkpt lat="46.28854" lon="-0.69083">
        <ele>7.6</ele>
        <time>2020-05-31T13:46:04Z</time>
      </trkpt>
      <trkpt lat="46.28848" lon="-0.69084">
        <ele>7.6</ele>
        <time>2020-05-31T13:46:05Z</time>
      </trkpt>
      <trkpt lat="46.28843" lon="-0.69086">
        <ele>7.6</ele>
        <time>2020-05-31T13:46:06Z</time>
      </trkpt>
      <trkpt lat="46.28837" lon="-0.69086">
        <ele>7.6</ele>
        <time>2020-05-31T13:46:07Z</time>
      </trkpt>
      <trkpt lat="46.28831" lon="-0.69086">
        <ele>7.7</ele>
        <time>2020-05-31T13:46:08Z</time>
      </trkpt>
      <trkpt lat="46.28825" lon="-0.69087">
        <ele>7.7</ele>
        <time>2020-05-31T13:46:09Z</time>
      </trkpt>
      <trkpt lat="46.2882" lon="-0.69088">
        <ele>7.7</ele>
        <time>2020-05-31T13:46:10Z</time>
      </trkpt>
      <trkpt lat="46.28814" lon="-0.69094">
        <ele>7.8</ele>
        <time>2020-05-31T13:46:11Z</time>
      </trkpt>
      <trkpt lat="46.28809" lon="-0.69096">
        <ele>7.9</ele>
        <time>2020-05-31T13:46:12Z</time>
      </trkpt>
      <trkpt lat="46.28803" lon="-0.69099">
        <ele>8</ele>
        <time>2020-05-31T13:46:13Z</time>
      </trkpt>
      <trkpt lat="46.28798" lon="-0.69101">
        <ele>8</ele>
        <time>2020-05-31T13:46:14Z</time>
      </trkpt>
      <trkpt lat="46.28792" lon="-0.69104">
        <ele>8.1</ele>
        <time>2020-05-31T13:46:15Z</time>
      </trkpt>
      <trkpt lat="46.28787" lon="-0.69107">
        <ele>8.3</ele>
        <time>2020-05-31T13:46:16Z</time>
      </trkpt>
      <trkpt lat="46.28782" lon="-0.69111">
        <ele>8.4</ele>
        <time>2020-05-31T13:46:17Z</time>
      </trkpt>
      <trkpt lat="46.28777" lon="-0.69115">
        <ele>8.5</ele>
        <time>2020-05-31T13:46:18Z</time>
      </trkpt>
      <trkpt lat="46.28772" lon="-0.6912">
        <ele>8.6</ele>
        <time>2020-05-31T13:46:19Z</time>
      </trkpt>
      <trkpt lat="46.28767" lon="-0.69123">
        <ele>8.7</ele>
        <time>2020-05-31T13:46:20Z</time>
      </trkpt>
      <trkpt lat="46.28763" lon="-0.69126">
        <ele>8.9</ele>
        <time>2020-05-31T13:46:21Z</time>
      </trkpt>
      <trkpt lat="46.28758" lon="-0.6913">
        <ele>9</ele>
        <time>2020-05-31T13:46:22Z</time>
      </trkpt>
      <trkpt lat="46.28755" lon="-0.69135">
        <ele>9.2</ele>
        <time>2020-05-31T13:46:23Z</time>
      </trkpt>
      <trkpt lat="46.2875" lon="-0.69139">
        <ele>9.3</ele>
        <time>2020-05-31T13:46:24Z</time>
      </trkpt>
      <trkpt lat="46.28746" lon="-0.69144">
        <ele>9.5</ele>
        <time>2020-05-31T13:46:25Z</time>
      </trkpt>
      <trkpt lat="46.28742" lon="-0.69149">
        <ele>9.6</ele>
        <time>2020-05-31T13:46:26Z</time>
      </trkpt>
      <trkpt lat="46.28738" lon="-0.69154">
        <ele>9.8</ele>
        <time>2020-05-31T13:46:27Z</time>
      </trkpt>
      <trkpt lat="46.28734" lon="-0.69158">
        <ele>9.9</ele>
        <time>2020-05-31T13:46:28Z</time>
      </trkpt>
      <trkpt lat="46.28731" lon="-0.69164">
        <ele>10.1</ele>
        <time>2020-05-31T13:46:29Z</time>
      </trkpt>
      <trkpt lat="46.28728" lon="-0.69168">
        <ele>10.2</ele>
        <time>2020-05-31T13:46:30Z</time>
      </trkpt>
      <trkpt lat="46.28725" lon="-0.69173">
        <ele>10.4</ele>
        <time>2020-05-31T13:46:31Z</time>
      </trkpt>
      <trkpt lat="46.28723" lon="-0.69177">
        <ele>10.5</ele>
        <time>2020-05-31T13:46:32Z</time>
      </trkpt>
      <trkpt lat="46.2872" lon="-0.69181">
        <ele>10.6</ele>
        <time>2020-05-31T13:46:33Z</time>
      </trkpt>
      <trkpt lat="46.28716" lon="-0.69186">
        <ele>10.7</ele>
        <time>2020-05-31T13:46:34Z</time>
      </trkpt>
      <trkpt lat="46.28713" lon="-0.69191">
        <ele>10.9</ele>
        <time>2020-05-31T13:46:35Z</time>
      </trkpt>
      <trkpt lat="46.2871" lon="-0.69196">
        <ele>10.9</ele>
        <time>2020-05-31T13:46:36Z</time>
      </trkpt>
      <trkpt lat="46.28707" lon="-0.692">
        <ele>11</ele>
        <time>2020-05-31T13:46:37Z</time>
      </trkpt>
      <trkpt lat="46.28703" lon="-0.69204">
        <ele>11.1</ele>
        <time>2020-05-31T13:46:38Z</time>
      </trkpt>
      <trkpt lat="46.28701" lon="-0.69208">
        <ele>11.1</ele>
        <time>2020-05-31T13:46:39Z</time>
      </trkpt>
      <trkpt lat="46.28696" lon="-0.69209">
        <ele>11.1</ele>
        <time>2020-05-31T13:46:40Z</time>
      </trkpt>
      <trkpt lat="46.28693" lon="-0.6921">
        <ele>11.1</ele>
        <time>2020-05-31T13:46:41Z</time>
      </trkpt>
      <trkpt lat="46.28691" lon="-0.6921">
        <ele>11.1</ele>
        <time>2020-05-31T13:46:42Z</time>
      </trkpt>
      <trkpt lat="46.2869" lon="-0.69211">
        <ele>11.1</ele>
        <time>2020-05-31T13:46:43Z</time>
      </trkpt>
      <trkpt lat="46.2869" lon="-0.69211">
        <ele>11.1</ele>
        <time>2020-05-31T13:46:44Z</time>
      </trkpt>
      <trkpt lat="46.28689" lon="-0.69211">
        <ele>11.1</ele>
        <time>2020-05-31T13:46:45Z</time>
      </trkpt>
      <trkpt lat="46.28689" lon="-0.69211">
        <ele>11.1</ele>
        <time>2020-05-31T13:46:46Z</time>
      </trkpt>
      <trkpt lat="46.28688" lon="-0.69211">
        <ele>11.1</ele>
        <time>2020-05-31T13:46:47Z</time>
      </trkpt>
      <trkpt lat="46.28688" lon="-0.69211">
        <ele>11.1</ele>
        <time>2020-05-31T13:46:48Z</time>
      </trkpt>
      <trkpt lat="46.28688" lon="-0.69212">
        <ele>11.1</ele>
        <time>2020-05-31T13:46:49Z</time>
      </trkpt>
      <trkpt lat="46.28687" lon="-0.69211">
        <ele>11.1</ele>
        <time>2020-05-31T13:46:50Z</time>
      </trkpt>
      <trkpt lat="46.28687" lon="-0.69212">
        <ele>11.1</ele>
        <time>2020-05-31T13:46:51Z</time>
      </trkpt>
      <trkpt lat="46.28687" lon="-0.69212">
        <ele>11.1</ele>
        <time>2020-05-31T13:46:52Z</time>
      </trkpt>
      <trkpt lat="46.28687" lon="-0.69213">
        <ele>11.1</ele>
        <time>2020-05-31T13:46:53Z</time>
      </trkpt>
      <trkpt lat="46.28686" lon="-0.69212">
        <ele>11.1</ele>
        <time>2020-05-31T13:46:54Z</time>
      </trkpt>
      <trkpt lat="46.28686" lon="-0.69213">
        <ele>11.1</ele>
        <time>2020-05-31T13:46:55Z</time>
      </trkpt>
      <trkpt lat="46.28686" lon="-0.69213">
        <ele>11.1</ele>
        <time>2020-05-31T13:46:56Z</time>
      </trkpt>
      <trkpt lat="46.28686" lon="-0.69214">
        <ele>11.1</ele>
        <time>2020-05-31T13:46:57Z</time>
      </trkpt>
      <trkpt lat="46.28686" lon="-0.69214">
        <ele>11.1</ele>
        <time>2020-05-31T13:46:58Z</time>
      </trkpt>
      <trkpt lat="46.28686" lon="-0.69215">
        <ele>11.1</ele>
        <time>2020-05-31T13:46:59Z</time>
      </trkpt>
      <trkpt lat="46.28686" lon="-0.69215">
        <ele>11.1</ele>
        <time>2020-05-31T13:47:00Z</time>
      </trkpt>
      <trkpt lat="46.28685" lon="-0.69215">
        <ele>11.1</ele>
        <time>2020-05-31T13:47:01Z</time>
      </trkpt>
      <trkpt lat="46.28685" lon="-0.69216">
        <ele>11.1</ele>
        <time>2020-05-31T13:47:02Z</time>
      </trkpt>
      <trkpt lat="46.28685" lon="-0.69216">
        <ele>11.1</ele>
        <time>2020-05-31T13:47:03Z</time>
      </trkpt>
      <trkpt lat="46.28685" lon="-0.69216">
        <ele>11.1</ele>
        <time>2020-05-31T13:47:04Z</time>
      </trkpt>
      <trkpt lat="46.28684" lon="-0.69217">
        <ele>11.1</ele>
        <time>2020-05-31T13:47:05Z</time>
      </trkpt>
      <trkpt lat="46.28684" lon="-0.69217">
        <ele>11.1</ele>
        <time>2020-05-31T13:47:06Z</time>
      </trkpt>
      <trkpt lat="46.28684" lon="-0.69218">
        <ele>11.1</ele>
        <time>2020-05-31T13:47:07Z</time>
      </trkpt>
      <trkpt lat="46.28683" lon="-0.69218">
        <ele>11.1</ele>
        <time>2020-05-31T13:47:08Z</time>
      </trkpt>
      <trkpt lat="46.28683" lon="-0.69219">
        <ele>11.1</ele>
        <time>2020-05-31T13:47:09Z</time>
      </trkpt>
      <trkpt lat="46.28683" lon="-0.69219">
        <ele>11.1</ele>
        <time>2020-05-31T13:47:10Z</time>
      </trkpt>
      <trkpt lat="46.28682" lon="-0.69219">
        <ele>11.1</ele>
        <time>2020-05-31T13:47:11Z</time>
      </trkpt>
      <trkpt lat="46.28682" lon="-0.69219">
        <ele>11.1</ele>
        <time>2020-05-31T13:47:12Z</time>
      </trkpt>
      <trkpt lat="46.28682" lon="-0.69219">
        <ele>11.1</ele>
        <time>2020-05-31T13:47:13Z</time>
      </trkpt>
      <trkpt lat="46.28682" lon="-0.69219">
        <ele>11.1</ele>
        <time>2020-05-31T13:47:14Z</time>
      </trkpt>
      <trkpt lat="46.28682" lon="-0.69219">
        <ele>11</ele>
        <time>2020-05-31T13:47:15Z</time>
      </trkpt>
      <trkpt lat="46.28682" lon="-0.6922">
        <ele>11</ele>
        <time>2020-05-31T13:47:16Z</time>
      </trkpt>
      <trkpt lat="46.28682" lon="-0.69221">
        <ele>11</ele>
        <time>2020-05-31T13:47:17Z</time>
      </trkpt>
      <trkpt lat="46.28683" lon="-0.69222">
        <ele>11</ele>
        <time>2020-05-31T13:47:18Z</time>
      </trkpt>
      <trkpt lat="46.28684" lon="-0.69223">
        <ele>11</ele>
        <time>2020-05-31T13:47:19Z</time>
      </trkpt>
      <trkpt lat="46.28684" lon="-0.69224">
        <ele>11</ele>
        <time>2020-05-31T13:47:20Z</time>
      </trkpt>
      <trkpt lat="46.28684" lon="-0.69224">
        <ele>11</ele>
        <time>2020-05-31T13:47:21Z</time>
      </trkpt>
      <trkpt lat="46.28684" lon="-0.69225">
        <ele>11</ele>
        <time>2020-05-31T13:47:22Z</time>
      </trkpt>
      <trkpt lat="46.28685" lon="-0.69226">
        <ele>11</ele>
        <time>2020-05-31T13:47:23Z</time>
      </trkpt>
      <trkpt lat="46.28685" lon="-0.69226">
        <ele>11</ele>
        <time>2020-05-31T13:47:24Z</time>
      </trkpt>
      <trkpt lat="46.28685" lon="-0.69227">
        <ele>11</ele>
        <time>2020-05-31T13:47:25Z</time>
      </trkpt>
      <trkpt lat="46.28685" lon="-0.69228">
        <ele>11</ele>
        <time>2020-05-31T13:47:26Z</time>
      </trkpt>
      <trkpt lat="46.28685" lon="-0.69228">
        <ele>11</ele>
        <time>2020-05-31T13:47:27Z</time>
      </trkpt>
      <trkpt lat="46.28685" lon="-0.69228">
        <ele>11</ele>
        <time>2020-05-31T13:47:28Z</time>
      </trkpt>
      <trkpt lat="46.28685" lon="-0.69228">
        <ele>11</ele>
        <time>2020-05-31T13:47:29Z</time>
      </trkpt>
      <trkpt lat="46.28684" lon="-0.69228">
        <ele>11</ele>
        <time>2020-05-31T13:47:30Z</time>
      </trkpt>
      <trkpt lat="46.28684" lon="-0.69229">
        <ele>11</ele>
        <time>2020-05-31T13:47:31Z</time>
      </trkpt>
      <trkpt lat="46.28684" lon="-0.69229">
        <ele>11</ele>
        <time>2020-05-31T13:47:32Z</time>
      </trkpt>
      <trkpt lat="46.28683" lon="-0.69229">
        <ele>11</ele>
        <time>2020-05-31T13:47:33Z</time>
      </trkpt>
      <trkpt lat="46.28683" lon="-0.69229">
        <ele>11</ele>
        <time>2020-05-31T13:47:34Z</time>
      </trkpt>
      <trkpt lat="46.28683" lon="-0.69229">
        <ele>11</ele>
        <time>2020-05-31T13:47:35Z</time>
      </trkpt>
      <trkpt lat="46.28683" lon="-0.6923">
        <ele>11</ele>
        <time>2020-05-31T13:47:36Z</time>
      </trkpt>
      <trkpt lat="46.28682" lon="-0.6923">
        <ele>11</ele>
        <time>2020-05-31T13:47:37Z</time>
      </trkpt>
      <trkpt lat="46.28682" lon="-0.6923">
        <ele>11</ele>
        <time>2020-05-31T13:47:38Z</time>
      </trkpt>
      <trkpt lat="46.28679" lon="-0.69231">
        <ele>11</ele>
        <time>2020-05-31T13:47:39Z</time>
      </trkpt>
      <trkpt lat="46.28678" lon="-0.69232">
        <ele>11</ele>
        <time>2020-05-31T13:47:40Z</time>
      </trkpt>
      <trkpt lat="46.28675" lon="-0.69235">
        <ele>11</ele>
        <time>2020-05-31T13:47:41Z</time>
      </trkpt>
      <trkpt lat="46.28674" lon="-0.69235">
        <ele>11</ele>
        <time>2020-05-31T13:47:42Z</time>
      </trkpt>
      <trkpt lat="46.28671" lon="-0.69238">
        <ele>11</ele>
        <time>2020-05-31T13:47:43Z</time>
      </trkpt>
      <trkpt lat="46.28669" lon="-0.6924">
        <ele>11</ele>
        <time>2020-05-31T13:47:44Z</time>
      </trkpt>
      <trkpt lat="46.28667" lon="-0.69245">
        <ele>11</ele>
        <time>2020-05-31T13:47:45Z</time>
      </trkpt>
      <trkpt lat="46.28664" lon="-0.69248">
        <ele>11</ele>
        <time>2020-05-31T13:47:46Z</time>
      </trkpt>
      <trkpt lat="46.28661" lon="-0.69252">
        <ele>11</ele>
        <time>2020-05-31T13:47:47Z</time>
      </trkpt>
      <trkpt lat="46.28658" lon="-0.69256">
        <ele>11</ele>
        <time>2020-05-31T13:47:48Z</time>
      </trkpt>
      <trkpt lat="46.28655" lon="-0.6926">
        <ele>11</ele>
        <time>2020-05-31T13:47:49Z</time>
      </trkpt>
      <trkpt lat="46.28652" lon="-0.69265">
        <ele>10.9</ele>
        <time>2020-05-31T13:47:50Z</time>
      </trkpt>
      <trkpt lat="46.28649" lon="-0.6927">
        <ele>10.9</ele>
        <time>2020-05-31T13:47:51Z</time>
      </trkpt>
      <trkpt lat="46.28645" lon="-0.69275">
        <ele>10.9</ele>
        <time>2020-05-31T13:47:52Z</time>
      </trkpt>
      <trkpt lat="46.28639" lon="-0.69277">
        <ele>10.9</ele>
        <time>2020-05-31T13:47:53Z</time>
      </trkpt>
      <trkpt lat="46.28634" lon="-0.69282">
        <ele>10.9</ele>
        <time>2020-05-31T13:47:54Z</time>
      </trkpt>
      <trkpt lat="46.2863" lon="-0.69286">
        <ele>10.9</ele>
        <time>2020-05-31T13:47:55Z</time>
      </trkpt>
      <trkpt lat="46.28626" lon="-0.6929">
        <ele>10.9</ele>
        <time>2020-05-31T13:47:56Z</time>
      </trkpt>
      <trkpt lat="46.28623" lon="-0.69297">
        <ele>10.9</ele>
        <time>2020-05-31T13:47:57Z</time>
      </trkpt>
      <trkpt lat="46.28619" lon="-0.69301">
        <ele>10.8</ele>
        <time>2020-05-31T13:47:58Z</time>
      </trkpt>
      <trkpt lat="46.28615" lon="-0.69307">
        <ele>10.8</ele>
        <time>2020-05-31T13:47:59Z</time>
      </trkpt>
      <trkpt lat="46.28611" lon="-0.69312">
        <ele>10.7</ele>
        <time>2020-05-31T13:48:00Z</time>
      </trkpt>
      <trkpt lat="46.28609" lon="-0.69317">
        <ele>10.6</ele>
        <time>2020-05-31T13:48:01Z</time>
      </trkpt>
      <trkpt lat="46.28608" lon="-0.6932">
        <ele>10.6</ele>
        <time>2020-05-31T13:48:02Z</time>
      </trkpt>
      <trkpt lat="46.28607" lon="-0.69322">
        <ele>10.6</ele>
        <time>2020-05-31T13:48:03Z</time>
      </trkpt>
      <trkpt lat="46.28609" lon="-0.69324">
        <ele>10.5</ele>
        <time>2020-05-31T13:48:04Z</time>
      </trkpt>
      <trkpt lat="46.28609" lon="-0.69324">
        <ele>10.5</ele>
        <time>2020-05-31T13:48:05Z</time>
      </trkpt>
      <trkpt lat="46.28609" lon="-0.69324">
        <ele>10.5</ele>
        <time>2020-05-31T13:48:06Z</time>
      </trkpt>
      <trkpt lat="46.28609" lon="-0.69324">
        <ele>10.5</ele>
        <time>2020-05-31T13:48:07Z</time>
      </trkpt>
      <trkpt lat="46.28609" lon="-0.69324">
        <ele>10.5</ele>
        <time>2020-05-31T13:48:08Z</time>
      </trkpt>
      <trkpt lat="46.28609" lon="-0.69325">
        <ele>10.5</ele>
        <time>2020-05-31T13:48:09Z</time>
      </trkpt>
      <trkpt lat="46.28609" lon="-0.69326">
        <ele>10.5</ele>
        <time>2020-05-31T13:48:10Z</time>
      </trkpt>
      <trkpt lat="46.28609" lon="-0.69326">
        <ele>10.5</ele>
        <time>2020-05-31T13:48:11Z</time>
      </trkpt>
      <trkpt lat="46.28609" lon="-0.69326">
        <ele>10.5</ele>
        <time>2020-05-31T13:48:12Z</time>
      </trkpt>
      <trkpt lat="46.28609" lon="-0.69326">
        <ele>10.5</ele>
        <time>2020-05-31T13:48:13Z</time>
      </trkpt>
      <trkpt lat="46.2861" lon="-0.69327">
        <ele>10.5</ele>
        <time>2020-05-31T13:48:14Z</time>
      </trkpt>
      <trkpt lat="46.28611" lon="-0.69328">
        <ele>10.4</ele>
        <time>2020-05-31T13:48:15Z</time>
      </trkpt>
      <trkpt lat="46.2861" lon="-0.69327">
        <ele>10.4</ele>
        <time>2020-05-31T13:48:16Z</time>
      </trkpt>
      <trkpt lat="46.2861" lon="-0.69327">
        <ele>10.4</ele>
        <time>2020-05-31T13:48:17Z</time>
      </trkpt>
      <trkpt lat="46.2861" lon="-0.69328">
        <ele>10.4</ele>
        <time>2020-05-31T13:48:18Z</time>
      </trkpt>
      <trkpt lat="46.28611" lon="-0.69329">
        <ele>10.4</ele>
        <time>2020-05-31T13:48:19Z</time>
      </trkpt>
      <trkpt lat="46.2861" lon="-0.6933">
        <ele>10.4</ele>
        <time>2020-05-31T13:48:20Z</time>
      </trkpt>
      <trkpt lat="46.28609" lon="-0.69331">
        <ele>10.4</ele>
        <time>2020-05-31T13:48:21Z</time>
      </trkpt>
      <trkpt lat="46.28607" lon="-0.69334">
        <ele>10.3</ele>
        <time>2020-05-31T13:48:22Z</time>
      </trkpt>
      <trkpt lat="46.28606" lon="-0.69335">
        <ele>10.3</ele>
        <time>2020-05-31T13:48:23Z</time>
      </trkpt>
      <trkpt lat="46.28604" lon="-0.69338">
        <ele>10.3</ele>
        <time>2020-05-31T13:48:24Z</time>
      </trkpt>
      <trkpt lat="46.28601" lon="-0.69341">
        <ele>10.2</ele>
        <time>2020-05-31T13:48:25Z</time>
      </trkpt>
      <trkpt lat="46.28599" lon="-0.69344">
        <ele>10.2</ele>
        <time>2020-05-31T13:48:26Z</time>
      </trkpt>
      <trkpt lat="46.28596" lon="-0.69348">
        <ele>10.1</ele>
        <time>2020-05-31T13:48:27Z</time>
      </trkpt>
      <trkpt lat="46.28594" lon="-0.69352">
        <ele>10.1</ele>
        <time>2020-05-31T13:48:28Z</time>
      </trkpt>
      <trkpt lat="46.28591" lon="-0.69355">
        <ele>10</ele>
        <time>2020-05-31T13:48:29Z</time>
      </trkpt>
      <trkpt lat="46.28587" lon="-0.69358">
        <ele>10</ele>
        <time>2020-05-31T13:48:30Z</time>
      </trkpt>
      <trkpt lat="46.28585" lon="-0.69363">
        <ele>9.9</ele>
        <time>2020-05-31T13:48:31Z</time>
      </trkpt>
      <trkpt lat="46.28582" lon="-0.69368">
        <ele>9.9</ele>
        <time>2020-05-31T13:48:32Z</time>
      </trkpt>
      <trkpt lat="46.28579" lon="-0.69374">
        <ele>9.8</ele>
        <time>2020-05-31T13:48:33Z</time>
      </trkpt>
      <trkpt lat="46.28575" lon="-0.69379">
        <ele>9.7</ele>
        <time>2020-05-31T13:48:34Z</time>
      </trkpt>
      <trkpt lat="46.28571" lon="-0.69385">
        <ele>9.7</ele>
        <time>2020-05-31T13:48:35Z</time>
      </trkpt>
      <trkpt lat="46.28567" lon="-0.69392">
        <ele>9.6</ele>
        <time>2020-05-31T13:48:36Z</time>
      </trkpt>
      <trkpt lat="46.28564" lon="-0.694">
        <ele>9.6</ele>
        <time>2020-05-31T13:48:37Z</time>
      </trkpt>
      <trkpt lat="46.28559" lon="-0.69407">
        <ele>9.5</ele>
        <time>2020-05-31T13:48:38Z</time>
      </trkpt>
      <trkpt lat="46.28555" lon="-0.69416">
        <ele>9.5</ele>
        <time>2020-05-31T13:48:39Z</time>
      </trkpt>
      <trkpt lat="46.2855" lon="-0.69426">
        <ele>9.4</ele>
        <time>2020-05-31T13:48:40Z</time>
      </trkpt>
      <trkpt lat="46.28544" lon="-0.69436">
        <ele>9.3</ele>
        <time>2020-05-31T13:48:41Z</time>
      </trkpt>
      <trkpt lat="46.2854" lon="-0.69448">
        <ele>9.2</ele>
        <time>2020-05-31T13:48:42Z</time>
      </trkpt>
      <trkpt lat="46.28529" lon="-0.69456">
        <ele>9.1</ele>
        <time>2020-05-31T13:48:43Z</time>
      </trkpt>
      <trkpt lat="46.28522" lon="-0.69468">
        <ele>9</ele>
        <time>2020-05-31T13:48:44Z</time>
      </trkpt>
      <trkpt lat="46.28518" lon="-0.69481">
        <ele>9</ele>
        <time>2020-05-31T13:48:45Z</time>
      </trkpt>
      <trkpt lat="46.28513" lon="-0.69494">
        <ele>9</ele>
        <time>2020-05-31T13:48:46Z</time>
      </trkpt>
      <trkpt lat="46.28509" lon="-0.69508">
        <ele>8.9</ele>
        <time>2020-05-31T13:48:47Z</time>
      </trkpt>
      <trkpt lat="46.28506" lon="-0.69522">
        <ele>8.9</ele>
        <time>2020-05-31T13:48:48Z</time>
      </trkpt>
      <trkpt lat="46.28503" lon="-0.69536">
        <ele>8.9</ele>
        <time>2020-05-31T13:48:49Z</time>
      </trkpt>
      <trkpt lat="46.28501" lon="-0.69551">
        <ele>8.9</ele>
        <time>2020-05-31T13:48:50Z</time>
      </trkpt>
      <trkpt lat="46.28498" lon="-0.69565">
        <ele>8.9</ele>
        <time>2020-05-31T13:48:51Z</time>
      </trkpt>
      <trkpt lat="46.28495" lon="-0.69579">
        <ele>8.9</ele>
        <time>2020-05-31T13:48:52Z</time>
      </trkpt>
      <trkpt lat="46.28492" lon="-0.69594">
        <ele>8.9</ele>
        <time>2020-05-31T13:48:53Z</time>
      </trkpt>
      <trkpt lat="46.28489" lon="-0.69608">
        <ele>8.8</ele>
        <time>2020-05-31T13:48:54Z</time>
      </trkpt>
      <trkpt lat="46.28487" lon="-0.69623">
        <ele>8.8</ele>
        <time>2020-05-31T13:48:55Z</time>
      </trkpt>
      <trkpt lat="46.28485" lon="-0.69637">
        <ele>8.8</ele>
        <time>2020-05-31T13:48:56Z</time>
      </trkpt>
      <trkpt lat="46.28482" lon="-0.6965">
        <ele>8.8</ele>
        <time>2020-05-31T13:48:57Z</time>
      </trkpt>
      <trkpt lat="46.2848" lon="-0.69664">
        <ele>8.8</ele>
        <time>2020-05-31T13:48:58Z</time>
      </trkpt>
      <trkpt lat="46.28478" lon="-0.69677">
        <ele>8.8</ele>
        <time>2020-05-31T13:48:59Z</time>
      </trkpt>
      <trkpt lat="46.28476" lon="-0.6969">
        <ele>8.9</ele>
        <time>2020-05-31T13:49:00Z</time>
      </trkpt>
      <trkpt lat="46.28474" lon="-0.69703">
        <ele>8.9</ele>
        <time>2020-05-31T13:49:01Z</time>
      </trkpt>
      <trkpt lat="46.28472" lon="-0.69716">
        <ele>9</ele>
        <time>2020-05-31T13:49:02Z</time>
      </trkpt>
      <trkpt lat="46.2847" lon="-0.69729">
        <ele>9</ele>
        <time>2020-05-31T13:49:03Z</time>
      </trkpt>
      <trkpt lat="46.28469" lon="-0.69741">
        <ele>9.1</ele>
        <time>2020-05-31T13:49:04Z</time>
      </trkpt>
      <trkpt lat="46.28467" lon="-0.69754">
        <ele>9.2</ele>
        <time>2020-05-31T13:49:05Z</time>
      </trkpt>
      <trkpt lat="46.28465" lon="-0.69765">
        <ele>9.3</ele>
        <time>2020-05-31T13:49:06Z</time>
      </trkpt>
      <trkpt lat="46.28463" lon="-0.69777">
        <ele>9.4</ele>
        <time>2020-05-31T13:49:07Z</time>
      </trkpt>
      <trkpt lat="46.28461" lon="-0.69788">
        <ele>9.5</ele>
        <time>2020-05-31T13:49:08Z</time>
      </trkpt>
      <trkpt lat="46.28459" lon="-0.69799">
        <ele>9.6</ele>
        <time>2020-05-31T13:49:09Z</time>
      </trkpt>
      <trkpt lat="46.28456" lon="-0.6981">
        <ele>9.7</ele>
        <time>2020-05-31T13:49:10Z</time>
      </trkpt>
      <trkpt lat="46.28454" lon="-0.6982">
        <ele>9.7</ele>
        <time>2020-05-31T13:49:11Z</time>
      </trkpt>
      <trkpt lat="46.28451" lon="-0.6983">
        <ele>9.8</ele>
        <time>2020-05-31T13:49:12Z</time>
      </trkpt>
      <trkpt lat="46.28448" lon="-0.69839">
        <ele>9.8</ele>
        <time>2020-05-31T13:49:13Z</time>
      </trkpt>
      <trkpt lat="46.28446" lon="-0.69848">
        <ele>9.9</ele>
        <time>2020-05-31T13:49:14Z</time>
      </trkpt>
      <trkpt lat="46.28443" lon="-0.69857">
        <ele>9.9</ele>
        <time>2020-05-31T13:49:15Z</time>
      </trkpt>
      <trkpt lat="46.2844" lon="-0.69865">
        <ele>10</ele>
        <time>2020-05-31T13:49:16Z</time>
      </trkpt>
      <trkpt lat="46.28438" lon="-0.69873">
        <ele>10</ele>
        <time>2020-05-31T13:49:17Z</time>
      </trkpt>
      <trkpt lat="46.28436" lon="-0.69881">
        <ele>10.1</ele>
        <time>2020-05-31T13:49:18Z</time>
      </trkpt>
      <trkpt lat="46.28433" lon="-0.69889">
        <ele>10.2</ele>
        <time>2020-05-31T13:49:19Z</time>
      </trkpt>
      <trkpt lat="46.2843" lon="-0.69897">
        <ele>10.4</ele>
        <time>2020-05-31T13:49:20Z</time>
      </trkpt>
      <trkpt lat="46.28427" lon="-0.69903">
        <ele>10.5</ele>
        <time>2020-05-31T13:49:21Z</time>
      </trkpt>
      <trkpt lat="46.28425" lon="-0.69911">
        <ele>10.6</ele>
        <time>2020-05-31T13:49:22Z</time>
      </trkpt>
      <trkpt lat="46.28421" lon="-0.69915">
        <ele>10.7</ele>
        <time>2020-05-31T13:49:23Z</time>
      </trkpt>
      <trkpt lat="46.28417" lon="-0.6992">
        <ele>10.9</ele>
        <time>2020-05-31T13:49:24Z</time>
      </trkpt>
      <trkpt lat="46.28415" lon="-0.69926">
        <ele>11</ele>
        <time>2020-05-31T13:49:25Z</time>
      </trkpt>
      <trkpt lat="46.28412" lon="-0.69931">
        <ele>11.1</ele>
        <time>2020-05-31T13:49:26Z</time>
      </trkpt>
      <trkpt lat="46.28408" lon="-0.69934">
        <ele>11.2</ele>
        <time>2020-05-31T13:49:27Z</time>
      </trkpt>
      <trkpt lat="46.28406" lon="-0.69941">
        <ele>11.3</ele>
        <time>2020-05-31T13:49:28Z</time>
      </trkpt>
      <trkpt lat="46.28402" lon="-0.69945">
        <ele>11.4</ele>
        <time>2020-05-31T13:49:29Z</time>
      </trkpt>
      <trkpt lat="46.28398" lon="-0.69948">
        <ele>11.5</ele>
        <time>2020-05-31T13:49:30Z</time>
      </trkpt>
      <trkpt lat="46.28395" lon="-0.69953">
        <ele>11.7</ele>
        <time>2020-05-31T13:49:31Z</time>
      </trkpt>
      <trkpt lat="46.28392" lon="-0.69957">
        <ele>11.8</ele>
        <time>2020-05-31T13:49:32Z</time>
      </trkpt>
      <trkpt lat="46.28388" lon="-0.69962">
        <ele>11.9</ele>
        <time>2020-05-31T13:49:33Z</time>
      </trkpt>
      <trkpt lat="46.28384" lon="-0.69965">
        <ele>12.1</ele>
        <time>2020-05-31T13:49:34Z</time>
      </trkpt>
      <trkpt lat="46.28381" lon="-0.6997">
        <ele>12.2</ele>
        <time>2020-05-31T13:49:35Z</time>
      </trkpt>
      <trkpt lat="46.28377" lon="-0.69973">
        <ele>12.4</ele>
        <time>2020-05-31T13:49:36Z</time>
      </trkpt>
      <trkpt lat="46.28374" lon="-0.69976">
        <ele>12.5</ele>
        <time>2020-05-31T13:49:37Z</time>
      </trkpt>
      <trkpt lat="46.2837" lon="-0.69979">
        <ele>12.7</ele>
        <time>2020-05-31T13:49:38Z</time>
      </trkpt>
      <trkpt lat="46.28367" lon="-0.69983">
        <ele>12.8</ele>
        <time>2020-05-31T13:49:39Z</time>
      </trkpt>
      <trkpt lat="46.28362" lon="-0.69985">
        <ele>12.9</ele>
        <time>2020-05-31T13:49:40Z</time>
      </trkpt>
      <trkpt lat="46.28358" lon="-0.69988">
        <ele>13</ele>
        <time>2020-05-31T13:49:41Z</time>
      </trkpt>
      <trkpt lat="46.28354" lon="-0.69991">
        <ele>13.1</ele>
        <time>2020-05-31T13:49:42Z</time>
      </trkpt>
      <trkpt lat="46.2835" lon="-0.69992">
        <ele>13.2</ele>
        <time>2020-05-31T13:49:43Z</time>
      </trkpt>
      <trkpt lat="46.28345" lon="-0.69994">
        <ele>13.2</ele>
        <time>2020-05-31T13:49:44Z</time>
      </trkpt>
      <trkpt lat="46.28341" lon="-0.69998">
        <ele>13.3</ele>
        <time>2020-05-31T13:49:45Z</time>
      </trkpt>
      <trkpt lat="46.28337" lon="-0.70001">
        <ele>13.3</ele>
        <time>2020-05-31T13:49:46Z</time>
      </trkpt>
      <trkpt lat="46.28333" lon="-0.70004">
        <ele>13.3</ele>
        <time>2020-05-31T13:49:47Z</time>
      </trkpt>
      <trkpt lat="46.28328" lon="-0.70006">
        <ele>13.4</ele>
        <time>2020-05-31T13:49:48Z</time>
      </trkpt>
      <trkpt lat="46.28323" lon="-0.70008">
        <ele>13.4</ele>
        <time>2020-05-31T13:49:49Z</time>
      </trkpt>
      <trkpt lat="46.28318" lon="-0.7001">
        <ele>13.4</ele>
        <time>2020-05-31T13:49:50Z</time>
      </trkpt>
      <trkpt lat="46.28314" lon="-0.70013">
        <ele>13.4</ele>
        <time>2020-05-31T13:49:51Z</time>
      </trkpt>
      <trkpt lat="46.2831" lon="-0.70015">
        <ele>13.3</ele>
        <time>2020-05-31T13:49:52Z</time>
      </trkpt>
      <trkpt lat="46.28306" lon="-0.70018">
        <ele>13.3</ele>
        <time>2020-05-31T13:49:53Z</time>
      </trkpt>
      <trkpt lat="46.28301" lon="-0.7002">
        <ele>13.2</ele>
        <time>2020-05-31T13:49:54Z</time>
      </trkpt>
      <trkpt lat="46.28297" lon="-0.70023">
        <ele>13.2</ele>
        <time>2020-05-31T13:49:55Z</time>
      </trkpt>
      <trkpt lat="46.28292" lon="-0.70025">
        <ele>13.1</ele>
        <time>2020-05-31T13:49:56Z</time>
      </trkpt>
      <trkpt lat="46.28288" lon="-0.70027">
        <ele>13</ele>
        <time>2020-05-31T13:49:57Z</time>
      </trkpt>
      <trkpt lat="46.28283" lon="-0.70028">
        <ele>12.9</ele>
        <time>2020-05-31T13:49:58Z</time>
      </trkpt>
      <trkpt lat="46.28278" lon="-0.70031">
        <ele>12.8</ele>
        <time>2020-05-31T13:49:59Z</time>
      </trkpt>
      <trkpt lat="46.28274" lon="-0.70032">
        <ele>12.7</ele>
        <time>2020-05-31T13:50:00Z</time>
      </trkpt>
      <trkpt lat="46.28269" lon="-0.70035">
        <ele>12.6</ele>
        <time>2020-05-31T13:50:01Z</time>
      </trkpt>
      <trkpt lat="46.28265" lon="-0.70038">
        <ele>12.5</ele>
        <time>2020-05-31T13:50:02Z</time>
      </trkpt>
      <trkpt lat="46.2826" lon="-0.7004">
        <ele>12.4</ele>
        <time>2020-05-31T13:50:03Z</time>
      </trkpt>
      <trkpt lat="46.28255" lon="-0.70041">
        <ele>12.3</ele>
        <time>2020-05-31T13:50:04Z</time>
      </trkpt>
      <trkpt lat="46.2825" lon="-0.70044">
        <ele>12.1</ele>
        <time>2020-05-31T13:50:05Z</time>
      </trkpt>
      <trkpt lat="46.28245" lon="-0.70045">
        <ele>12</ele>
        <time>2020-05-31T13:50:06Z</time>
      </trkpt>
      <trkpt lat="46.28239" lon="-0.70048">
        <ele>11.8</ele>
        <time>2020-05-31T13:50:07Z</time>
      </trkpt>
      <trkpt lat="46.28234" lon="-0.70052">
        <ele>11.7</ele>
        <time>2020-05-31T13:50:08Z</time>
      </trkpt>
      <trkpt lat="46.28228" lon="-0.70056">
        <ele>11.5</ele>
        <time>2020-05-31T13:50:09Z</time>
      </trkpt>
      <trkpt lat="46.28223" lon="-0.7006">
        <ele>11.4</ele>
        <time>2020-05-31T13:50:10Z</time>
      </trkpt>
      <trkpt lat="46.28217" lon="-0.70063">
        <ele>11.3</ele>
        <time>2020-05-31T13:50:11Z</time>
      </trkpt>
      <trkpt lat="46.28211" lon="-0.70066">
        <ele>11.2</ele>
        <time>2020-05-31T13:50:12Z</time>
      </trkpt>
      <trkpt lat="46.28205" lon="-0.70068">
        <ele>11.1</ele>
        <time>2020-05-31T13:50:13Z</time>
      </trkpt>
      <trkpt lat="46.28199" lon="-0.70071">
        <ele>11</ele>
        <time>2020-05-31T13:50:14Z</time>
      </trkpt>
      <trkpt lat="46.28193" lon="-0.70073">
        <ele>11</ele>
        <time>2020-05-31T13:50:15Z</time>
      </trkpt>
      <trkpt lat="46.28186" lon="-0.70075">
        <ele>11</ele>
        <time>2020-05-31T13:50:16Z</time>
      </trkpt>
      <trkpt lat="46.28179" lon="-0.70078">
        <ele>10.9</ele>
        <time>2020-05-31T13:50:17Z</time>
      </trkpt>
      <trkpt lat="46.28173" lon="-0.7008">
        <ele>10.9</ele>
        <time>2020-05-31T13:50:18Z</time>
      </trkpt>
      <trkpt lat="46.28166" lon="-0.70084">
        <ele>10.9</ele>
        <time>2020-05-31T13:50:19Z</time>
      </trkpt>
      <trkpt lat="46.2816" lon="-0.70087">
        <ele>10.9</ele>
        <time>2020-05-31T13:50:20Z</time>
      </trkpt>
      <trkpt lat="46.28154" lon="-0.70089">
        <ele>10.9</ele>
        <time>2020-05-31T13:50:21Z</time>
      </trkpt>
      <trkpt lat="46.28148" lon="-0.70091">
        <ele>10.9</ele>
        <time>2020-05-31T13:50:22Z</time>
      </trkpt>
      <trkpt lat="46.28142" lon="-0.70093">
        <ele>10.9</ele>
        <time>2020-05-31T13:50:23Z</time>
      </trkpt>
      <trkpt lat="46.28136" lon="-0.70095">
        <ele>10.9</ele>
        <time>2020-05-31T13:50:24Z</time>
      </trkpt>
      <trkpt lat="46.2813" lon="-0.70097">
        <ele>10.9</ele>
        <time>2020-05-31T13:50:25Z</time>
      </trkpt>
      <trkpt lat="46.28124" lon="-0.70098">
        <ele>10.9</ele>
        <time>2020-05-31T13:50:26Z</time>
      </trkpt>
      <trkpt lat="46.28118" lon="-0.701">
        <ele>10.9</ele>
        <time>2020-05-31T13:50:27Z</time>
      </trkpt>
      <trkpt lat="46.28113" lon="-0.70101">
        <ele>10.9</ele>
        <time>2020-05-31T13:50:28Z</time>
      </trkpt>
      <trkpt lat="46.28108" lon="-0.70102">
        <ele>10.9</ele>
        <time>2020-05-31T13:50:29Z</time>
      </trkpt>
      <trkpt lat="46.28103" lon="-0.70104">
        <ele>10.9</ele>
        <time>2020-05-31T13:50:30Z</time>
      </trkpt>
      <trkpt lat="46.28098" lon="-0.70107">
        <ele>10.9</ele>
        <time>2020-05-31T13:50:31Z</time>
      </trkpt>
      <trkpt lat="46.28093" lon="-0.7011">
        <ele>10.9</ele>
        <time>2020-05-31T13:50:32Z</time>
      </trkpt>
      <trkpt lat="46.28088" lon="-0.70112">
        <ele>10.9</ele>
        <time>2020-05-31T13:50:33Z</time>
      </trkpt>
      <trkpt lat="46.28084" lon="-0.70114">
        <ele>10.9</ele>
        <time>2020-05-31T13:50:34Z</time>
      </trkpt>
      <trkpt lat="46.28079" lon="-0.70117">
        <ele>10.9</ele>
        <time>2020-05-31T13:50:35Z</time>
      </trkpt>
      <trkpt lat="46.28074" lon="-0.70119">
        <ele>10.9</ele>
        <time>2020-05-31T13:50:36Z</time>
      </trkpt>
      <trkpt lat="46.28069" lon="-0.70121">
        <ele>10.9</ele>
        <time>2020-05-31T13:50:37Z</time>
      </trkpt>
      <trkpt lat="46.28064" lon="-0.70124">
        <ele>10.9</ele>
        <time>2020-05-31T13:50:38Z</time>
      </trkpt>
      <trkpt lat="46.28059" lon="-0.70127">
        <ele>10.9</ele>
        <time>2020-05-31T13:50:39Z</time>
      </trkpt>
      <trkpt lat="46.28054" lon="-0.70129">
        <ele>10.9</ele>
        <time>2020-05-31T13:50:40Z</time>
      </trkpt>
      <trkpt lat="46.2805" lon="-0.70136">
        <ele>10.9</ele>
        <time>2020-05-31T13:50:41Z</time>
      </trkpt>
      <trkpt lat="46.28046" lon="-0.7014">
        <ele>10.9</ele>
        <time>2020-05-31T13:50:42Z</time>
      </trkpt>
      <trkpt lat="46.28041" lon="-0.70142">
        <ele>10.9</ele>
        <time>2020-05-31T13:50:43Z</time>
      </trkpt>
      <trkpt lat="46.28036" lon="-0.70144">
        <ele>10.9</ele>
        <time>2020-05-31T13:50:44Z</time>
      </trkpt>
      <trkpt lat="46.28032" lon="-0.70146">
        <ele>10.9</ele>
        <time>2020-05-31T13:50:45Z</time>
      </trkpt>
      <trkpt lat="46.28027" lon="-0.70148">
        <ele>11</ele>
        <time>2020-05-31T13:50:46Z</time>
      </trkpt>
      <trkpt lat="46.28022" lon="-0.70152">
        <ele>11</ele>
        <time>2020-05-31T13:50:47Z</time>
      </trkpt>
      <trkpt lat="46.28017" lon="-0.70154">
        <ele>11</ele>
        <time>2020-05-31T13:50:48Z</time>
      </trkpt>
      <trkpt lat="46.28012" lon="-0.70157">
        <ele>11</ele>
        <time>2020-05-31T13:50:49Z</time>
      </trkpt>
      <trkpt lat="46.28006" lon="-0.7016">
        <ele>11.1</ele>
        <time>2020-05-31T13:50:50Z</time>
      </trkpt>
      <trkpt lat="46.28" lon="-0.70163">
        <ele>11.1</ele>
        <time>2020-05-31T13:50:51Z</time>
      </trkpt>
      <trkpt lat="46.27995" lon="-0.70166">
        <ele>11.1</ele>
        <time>2020-05-31T13:50:52Z</time>
      </trkpt>
      <trkpt lat="46.27989" lon="-0.70169">
        <ele>11.2</ele>
        <time>2020-05-31T13:50:53Z</time>
      </trkpt>
      <trkpt lat="46.27983" lon="-0.70172">
        <ele>11.2</ele>
        <time>2020-05-31T13:50:54Z</time>
      </trkpt>
      <trkpt lat="46.27978" lon="-0.70175">
        <ele>11.3</ele>
        <time>2020-05-31T13:50:55Z</time>
      </trkpt>
      <trkpt lat="46.27972" lon="-0.70178">
        <ele>11.3</ele>
        <time>2020-05-31T13:50:56Z</time>
      </trkpt>
      <trkpt lat="46.27966" lon="-0.70182">
        <ele>11.4</ele>
        <time>2020-05-31T13:50:57Z</time>
      </trkpt>
      <trkpt lat="46.2796" lon="-0.70185">
        <ele>11.4</ele>
        <time>2020-05-31T13:50:58Z</time>
      </trkpt>
      <trkpt lat="46.27954" lon="-0.70188">
        <ele>11.4</ele>
        <time>2020-05-31T13:50:59Z</time>
      </trkpt>
      <trkpt lat="46.27948" lon="-0.70191">
        <ele>11.5</ele>
        <time>2020-05-31T13:51:00Z</time>
      </trkpt>
      <trkpt lat="46.27942" lon="-0.70193">
        <ele>11.5</ele>
        <time>2020-05-31T13:51:01Z</time>
      </trkpt>
      <trkpt lat="46.27936" lon="-0.70196">
        <ele>11.6</ele>
        <time>2020-05-31T13:51:02Z</time>
      </trkpt>
      <trkpt lat="46.27929" lon="-0.70199">
        <ele>11.6</ele>
        <time>2020-05-31T13:51:03Z</time>
      </trkpt>
      <trkpt lat="46.27922" lon="-0.70202">
        <ele>11.6</ele>
        <time>2020-05-31T13:51:04Z</time>
      </trkpt>
      <trkpt lat="46.27915" lon="-0.70206">
        <ele>11.7</ele>
        <time>2020-05-31T13:51:05Z</time>
      </trkpt>
      <trkpt lat="46.27907" lon="-0.7021">
        <ele>11.7</ele>
        <time>2020-05-31T13:51:06Z</time>
      </trkpt>
      <trkpt lat="46.279" lon="-0.70214">
        <ele>11.7</ele>
        <time>2020-05-31T13:51:07Z</time>
      </trkpt>
      <trkpt lat="46.27892" lon="-0.70217">
        <ele>11.7</ele>
        <time>2020-05-31T13:51:08Z</time>
      </trkpt>
      <trkpt lat="46.27885" lon="-0.7022">
        <ele>11.7</ele>
        <time>2020-05-31T13:51:09Z</time>
      </trkpt>
      <trkpt lat="46.27877" lon="-0.70223">
        <ele>11.8</ele>
        <time>2020-05-31T13:51:10Z</time>
      </trkpt>
      <trkpt lat="46.27871" lon="-0.70226">
        <ele>11.8</ele>
        <time>2020-05-31T13:51:11Z</time>
      </trkpt>
      <trkpt lat="46.27864" lon="-0.70229">
        <ele>11.8</ele>
        <time>2020-05-31T13:51:12Z</time>
      </trkpt>
      <trkpt lat="46.27857" lon="-0.70232">
        <ele>11.8</ele>
        <time>2020-05-31T13:51:13Z</time>
      </trkpt>
      <trkpt lat="46.27851" lon="-0.70236">
        <ele>11.8</ele>
        <time>2020-05-31T13:51:14Z</time>
      </trkpt>
      <trkpt lat="46.27844" lon="-0.7024">
        <ele>11.8</ele>
        <time>2020-05-31T13:51:15Z</time>
      </trkpt>
      <trkpt lat="46.27838" lon="-0.70243">
        <ele>11.9</ele>
        <time>2020-05-31T13:51:16Z</time>
      </trkpt>
      <trkpt lat="46.27831" lon="-0.70246">
        <ele>11.9</ele>
        <time>2020-05-31T13:51:17Z</time>
      </trkpt>
      <trkpt lat="46.27825" lon="-0.70249">
        <ele>11.9</ele>
        <time>2020-05-31T13:51:18Z</time>
      </trkpt>
      <trkpt lat="46.27819" lon="-0.70252">
        <ele>11.9</ele>
        <time>2020-05-31T13:51:19Z</time>
      </trkpt>
      <trkpt lat="46.27813" lon="-0.70255">
        <ele>11.9</ele>
        <time>2020-05-31T13:51:20Z</time>
      </trkpt>
      <trkpt lat="46.27807" lon="-0.70258">
        <ele>11.9</ele>
        <time>2020-05-31T13:51:21Z</time>
      </trkpt>
      <trkpt lat="46.27801" lon="-0.70262">
        <ele>11.9</ele>
        <time>2020-05-31T13:51:22Z</time>
      </trkpt>
      <trkpt lat="46.27796" lon="-0.70265">
        <ele>11.9</ele>
        <time>2020-05-31T13:51:23Z</time>
      </trkpt>
      <trkpt lat="46.2779" lon="-0.70268">
        <ele>11.8</ele>
        <time>2020-05-31T13:51:24Z</time>
      </trkpt>
      <trkpt lat="46.27784" lon="-0.70271">
        <ele>11.7</ele>
        <time>2020-05-31T13:51:25Z</time>
      </trkpt>
      <trkpt lat="46.27778" lon="-0.70274">
        <ele>11.6</ele>
        <time>2020-05-31T13:51:26Z</time>
      </trkpt>
      <trkpt lat="46.27772" lon="-0.70277">
        <ele>11.6</ele>
        <time>2020-05-31T13:51:27Z</time>
      </trkpt>
      <trkpt lat="46.27766" lon="-0.7028">
        <ele>11.5</ele>
        <time>2020-05-31T13:51:28Z</time>
      </trkpt>
      <trkpt lat="46.27759" lon="-0.70281">
        <ele>11.4</ele>
        <time>2020-05-31T13:51:29Z</time>
      </trkpt>
      <trkpt lat="46.27753" lon="-0.70283">
        <ele>11.3</ele>
        <time>2020-05-31T13:51:30Z</time>
      </trkpt>
      <trkpt lat="46.27747" lon="-0.70286">
        <ele>11.2</ele>
        <time>2020-05-31T13:51:31Z</time>
      </trkpt>
      <trkpt lat="46.2774" lon="-0.70289">
        <ele>11.1</ele>
        <time>2020-05-31T13:51:32Z</time>
      </trkpt>
      <trkpt lat="46.27734" lon="-0.70292">
        <ele>11.1</ele>
        <time>2020-05-31T13:51:33Z</time>
      </trkpt>
      <trkpt lat="46.27727" lon="-0.70294">
        <ele>11.1</ele>
        <time>2020-05-31T13:51:34Z</time>
      </trkpt>
      <trkpt lat="46.27721" lon="-0.70297">
        <ele>11</ele>
        <time>2020-05-31T13:51:35Z</time>
      </trkpt>
      <trkpt lat="46.27714" lon="-0.703">
        <ele>11</ele>
        <time>2020-05-31T13:51:36Z</time>
      </trkpt>
      <trkpt lat="46.27707" lon="-0.70303">
        <ele>11</ele>
        <time>2020-05-31T13:51:37Z</time>
      </trkpt>
      <trkpt lat="46.27701" lon="-0.70307">
        <ele>10.9</ele>
        <time>2020-05-31T13:51:38Z</time>
      </trkpt>
      <trkpt lat="46.27694" lon="-0.70309">
        <ele>10.9</ele>
        <time>2020-05-31T13:51:39Z</time>
      </trkpt>
      <trkpt lat="46.27687" lon="-0.70312">
        <ele>10.9</ele>
        <time>2020-05-31T13:51:40Z</time>
      </trkpt>
      <trkpt lat="46.27681" lon="-0.70315">
        <ele>10.8</ele>
        <time>2020-05-31T13:51:41Z</time>
      </trkpt>
      <trkpt lat="46.27674" lon="-0.70318">
        <ele>10.8</ele>
        <time>2020-05-31T13:51:42Z</time>
      </trkpt>
      <trkpt lat="46.27668" lon="-0.70321">
        <ele>10.8</ele>
        <time>2020-05-31T13:51:43Z</time>
      </trkpt>
      <trkpt lat="46.27661" lon="-0.70325">
        <ele>10.8</ele>
        <time>2020-05-31T13:51:44Z</time>
      </trkpt>
      <trkpt lat="46.27654" lon="-0.70328">
        <ele>10.8</ele>
        <time>2020-05-31T13:51:45Z</time>
      </trkpt>
      <trkpt lat="46.27648" lon="-0.70331">
        <ele>10.8</ele>
        <time>2020-05-31T13:51:46Z</time>
      </trkpt>
      <trkpt lat="46.27642" lon="-0.70335">
        <ele>10.8</ele>
        <time>2020-05-31T13:51:47Z</time>
      </trkpt>
      <trkpt lat="46.27635" lon="-0.70337">
        <ele>10.8</ele>
        <time>2020-05-31T13:51:48Z</time>
      </trkpt>
      <trkpt lat="46.27629" lon="-0.7034">
        <ele>10.8</ele>
        <time>2020-05-31T13:51:49Z</time>
      </trkpt>
      <trkpt lat="46.27622" lon="-0.70343">
        <ele>10.8</ele>
        <time>2020-05-31T13:51:50Z</time>
      </trkpt>
      <trkpt lat="46.27616" lon="-0.70346">
        <ele>10.8</ele>
        <time>2020-05-31T13:51:51Z</time>
      </trkpt>
      <trkpt lat="46.2761" lon="-0.70348">
        <ele>10.9</ele>
        <time>2020-05-31T13:51:52Z</time>
      </trkpt>
      <trkpt lat="46.27604" lon="-0.70351">
        <ele>10.9</ele>
        <time>2020-05-31T13:51:53Z</time>
      </trkpt>
      <trkpt lat="46.27598" lon="-0.70354">
        <ele>10.9</ele>
        <time>2020-05-31T13:51:54Z</time>
      </trkpt>
      <trkpt lat="46.27591" lon="-0.70357">
        <ele>10.9</ele>
        <time>2020-05-31T13:51:55Z</time>
      </trkpt>
      <trkpt lat="46.27585" lon="-0.7036">
        <ele>10.9</ele>
        <time>2020-05-31T13:51:56Z</time>
      </trkpt>
      <trkpt lat="46.27579" lon="-0.70363">
        <ele>10.9</ele>
        <time>2020-05-31T13:51:57Z</time>
      </trkpt>
      <trkpt lat="46.27573" lon="-0.70366">
        <ele>10.9</ele>
        <time>2020-05-31T13:51:58Z</time>
      </trkpt>
      <trkpt lat="46.27567" lon="-0.70369">
        <ele>10.9</ele>
        <time>2020-05-31T13:51:59Z</time>
      </trkpt>
      <trkpt lat="46.2756" lon="-0.70371">
        <ele>10.9</ele>
        <time>2020-05-31T13:52:00Z</time>
      </trkpt>
      <trkpt lat="46.27554" lon="-0.70375">
        <ele>10.9</ele>
        <time>2020-05-31T13:52:01Z</time>
      </trkpt>
      <trkpt lat="46.27548" lon="-0.70379">
        <ele>10.9</ele>
        <time>2020-05-31T13:52:02Z</time>
      </trkpt>
      <trkpt lat="46.27542" lon="-0.70383">
        <ele>10.9</ele>
        <time>2020-05-31T13:52:03Z</time>
      </trkpt>
      <trkpt lat="46.27536" lon="-0.70387">
        <ele>10.9</ele>
        <time>2020-05-31T13:52:04Z</time>
      </trkpt>
      <trkpt lat="46.2753" lon="-0.70391">
        <ele>10.9</ele>
        <time>2020-05-31T13:52:05Z</time>
      </trkpt>
      <trkpt lat="46.27524" lon="-0.70395">
        <ele>10.9</ele>
        <time>2020-05-31T13:52:06Z</time>
      </trkpt>
      <trkpt lat="46.27519" lon="-0.704">
        <ele>10.9</ele>
        <time>2020-05-31T13:52:07Z</time>
      </trkpt>
      <trkpt lat="46.27513" lon="-0.70405">
        <ele>10.9</ele>
        <time>2020-05-31T13:52:08Z</time>
      </trkpt>
      <trkpt lat="46.27508" lon="-0.7041">
        <ele>10.9</ele>
        <time>2020-05-31T13:52:09Z</time>
      </trkpt>
      <trkpt lat="46.27502" lon="-0.70415">
        <ele>10.9</ele>
        <time>2020-05-31T13:52:10Z</time>
      </trkpt>
      <trkpt lat="46.27496" lon="-0.7042">
        <ele>10.9</ele>
        <time>2020-05-31T13:52:11Z</time>
      </trkpt>
      <trkpt lat="46.27491" lon="-0.70425">
        <ele>10.9</ele>
        <time>2020-05-31T13:52:12Z</time>
      </trkpt>
      <trkpt lat="46.27486" lon="-0.7043">
        <ele>10.9</ele>
        <time>2020-05-31T13:52:13Z</time>
      </trkpt>
      <trkpt lat="46.2748" lon="-0.70435">
        <ele>10.9</ele>
        <time>2020-05-31T13:52:14Z</time>
      </trkpt>
      <trkpt lat="46.27475" lon="-0.7044">
        <ele>10.9</ele>
        <time>2020-05-31T13:52:15Z</time>
      </trkpt>
      <trkpt lat="46.27469" lon="-0.70445">
        <ele>10.9</ele>
        <time>2020-05-31T13:52:16Z</time>
      </trkpt>
      <trkpt lat="46.27464" lon="-0.7045">
        <ele>10.9</ele>
        <time>2020-05-31T13:52:17Z</time>
      </trkpt>
      <trkpt lat="46.27459" lon="-0.70456">
        <ele>10.9</ele>
        <time>2020-05-31T13:52:18Z</time>
      </trkpt>
      <trkpt lat="46.27453" lon="-0.70461">
        <ele>10.9</ele>
        <time>2020-05-31T13:52:19Z</time>
      </trkpt>
      <trkpt lat="46.27448" lon="-0.70468">
        <ele>10.9</ele>
        <time>2020-05-31T13:52:20Z</time>
      </trkpt>
      <trkpt lat="46.27443" lon="-0.70473">
        <ele>10.8</ele>
        <time>2020-05-31T13:52:21Z</time>
      </trkpt>
      <trkpt lat="46.27437" lon="-0.70479">
        <ele>10.8</ele>
        <time>2020-05-31T13:52:22Z</time>
      </trkpt>
      <trkpt lat="46.27432" lon="-0.70485">
        <ele>10.7</ele>
        <time>2020-05-31T13:52:23Z</time>
      </trkpt>
      <trkpt lat="46.27426" lon="-0.70491">
        <ele>10.7</ele>
        <time>2020-05-31T13:52:24Z</time>
      </trkpt>
      <trkpt lat="46.27421" lon="-0.70498">
        <ele>10.7</ele>
        <time>2020-05-31T13:52:25Z</time>
      </trkpt>
      <trkpt lat="46.27415" lon="-0.70504">
        <ele>10.7</ele>
        <time>2020-05-31T13:52:26Z</time>
      </trkpt>
      <trkpt lat="46.2741" lon="-0.7051">
        <ele>10.7</ele>
        <time>2020-05-31T13:52:27Z</time>
      </trkpt>
      <trkpt lat="46.27405" lon="-0.70516">
        <ele>10.7</ele>
        <time>2020-05-31T13:52:28Z</time>
      </trkpt>
      <trkpt lat="46.27399" lon="-0.70522">
        <ele>10.7</ele>
        <time>2020-05-31T13:52:29Z</time>
      </trkpt>
      <trkpt lat="46.27394" lon="-0.70528">
        <ele>10.7</ele>
        <time>2020-05-31T13:52:30Z</time>
      </trkpt>
      <trkpt lat="46.2739" lon="-0.70535">
        <ele>10.6</ele>
        <time>2020-05-31T13:52:31Z</time>
      </trkpt>
      <trkpt lat="46.27384" lon="-0.7054">
        <ele>10.6</ele>
        <time>2020-05-31T13:52:32Z</time>
      </trkpt>
      <trkpt lat="46.27379" lon="-0.70545">
        <ele>10.6</ele>
        <time>2020-05-31T13:52:33Z</time>
      </trkpt>
      <trkpt lat="46.27375" lon="-0.70552">
        <ele>10.6</ele>
        <time>2020-05-31T13:52:34Z</time>
      </trkpt>
      <trkpt lat="46.2737" lon="-0.70559">
        <ele>10.5</ele>
        <time>2020-05-31T13:52:35Z</time>
      </trkpt>
      <trkpt lat="46.27365" lon="-0.70564">
        <ele>10.5</ele>
        <time>2020-05-31T13:52:36Z</time>
      </trkpt>
      <trkpt lat="46.2736" lon="-0.70568">
        <ele>10.5</ele>
        <time>2020-05-31T13:52:37Z</time>
      </trkpt>
      <trkpt lat="46.27355" lon="-0.70573">
        <ele>10.5</ele>
        <time>2020-05-31T13:52:38Z</time>
      </trkpt>
      <trkpt lat="46.2735" lon="-0.70578">
        <ele>10.5</ele>
        <time>2020-05-31T13:52:39Z</time>
      </trkpt>
      <trkpt lat="46.27345" lon="-0.70584">
        <ele>10.4</ele>
        <time>2020-05-31T13:52:40Z</time>
      </trkpt>
      <trkpt lat="46.27341" lon="-0.7059">
        <ele>10.4</ele>
        <time>2020-05-31T13:52:41Z</time>
      </trkpt>
      <trkpt lat="46.27336" lon="-0.70596">
        <ele>10.4</ele>
        <time>2020-05-31T13:52:42Z</time>
      </trkpt>
      <trkpt lat="46.27332" lon="-0.70602">
        <ele>10.3</ele>
        <time>2020-05-31T13:52:43Z</time>
      </trkpt>
      <trkpt lat="46.27327" lon="-0.70607">
        <ele>10.3</ele>
        <time>2020-05-31T13:52:44Z</time>
      </trkpt>
      <trkpt lat="46.27322" lon="-0.70611">
        <ele>10.3</ele>
        <time>2020-05-31T13:52:45Z</time>
      </trkpt>
      <trkpt lat="46.27317" lon="-0.70616">
        <ele>10.3</ele>
        <time>2020-05-31T13:52:46Z</time>
      </trkpt>
      <trkpt lat="46.27312" lon="-0.70621">
        <ele>10.2</ele>
        <time>2020-05-31T13:52:47Z</time>
      </trkpt>
      <trkpt lat="46.27307" lon="-0.70626">
        <ele>10.2</ele>
        <time>2020-05-31T13:52:48Z</time>
      </trkpt>
      <trkpt lat="46.27303" lon="-0.70631">
        <ele>10.2</ele>
        <time>2020-05-31T13:52:49Z</time>
      </trkpt>
      <trkpt lat="46.27298" lon="-0.70636">
        <ele>10.1</ele>
        <time>2020-05-31T13:52:50Z</time>
      </trkpt>
      <trkpt lat="46.27293" lon="-0.70642">
        <ele>10.1</ele>
        <time>2020-05-31T13:52:51Z</time>
      </trkpt>
      <trkpt lat="46.27288" lon="-0.70648">
        <ele>10</ele>
        <time>2020-05-31T13:52:52Z</time>
      </trkpt>
      <trkpt lat="46.27283" lon="-0.70655">
        <ele>9.9</ele>
        <time>2020-05-31T13:52:53Z</time>
      </trkpt>
      <trkpt lat="46.27278" lon="-0.70661">
        <ele>9.9</ele>
        <time>2020-05-31T13:52:54Z</time>
      </trkpt>
      <trkpt lat="46.27272" lon="-0.70665">
        <ele>9.8</ele>
        <time>2020-05-31T13:52:55Z</time>
      </trkpt>
      <trkpt lat="46.27267" lon="-0.70671">
        <ele>9.7</ele>
        <time>2020-05-31T13:52:56Z</time>
      </trkpt>
      <trkpt lat="46.27261" lon="-0.70677">
        <ele>9.6</ele>
        <time>2020-05-31T13:52:57Z</time>
      </trkpt>
      <trkpt lat="46.27256" lon="-0.70683">
        <ele>9.5</ele>
        <time>2020-05-31T13:52:58Z</time>
      </trkpt>
      <trkpt lat="46.2725" lon="-0.70689">
        <ele>9.5</ele>
        <time>2020-05-31T13:52:59Z</time>
      </trkpt>
      <trkpt lat="46.27245" lon="-0.70694">
        <ele>9.4</ele>
        <time>2020-05-31T13:53:00Z</time>
      </trkpt>
      <trkpt lat="46.27239" lon="-0.707">
        <ele>9.3</ele>
        <time>2020-05-31T13:53:01Z</time>
      </trkpt>
      <trkpt lat="46.27234" lon="-0.70707">
        <ele>9.2</ele>
        <time>2020-05-31T13:53:02Z</time>
      </trkpt>
      <trkpt lat="46.27228" lon="-0.70711">
        <ele>9.1</ele>
        <time>2020-05-31T13:53:03Z</time>
      </trkpt>
      <trkpt lat="46.27222" lon="-0.70716">
        <ele>8.9</ele>
        <time>2020-05-31T13:53:04Z</time>
      </trkpt>
      <trkpt lat="46.27217" lon="-0.70722">
        <ele>8.8</ele>
        <time>2020-05-31T13:53:05Z</time>
      </trkpt>
      <trkpt lat="46.27212" lon="-0.70728">
        <ele>8.7</ele>
        <time>2020-05-31T13:53:06Z</time>
      </trkpt>
      <trkpt lat="46.27207" lon="-0.70733">
        <ele>8.6</ele>
        <time>2020-05-31T13:53:07Z</time>
      </trkpt>
      <trkpt lat="46.27201" lon="-0.70739">
        <ele>8.5</ele>
        <time>2020-05-31T13:53:08Z</time>
      </trkpt>
      <trkpt lat="46.27196" lon="-0.70743">
        <ele>8.4</ele>
        <time>2020-05-31T13:53:09Z</time>
      </trkpt>
      <trkpt lat="46.27191" lon="-0.70749">
        <ele>8.3</ele>
        <time>2020-05-31T13:53:10Z</time>
      </trkpt>
      <trkpt lat="46.27186" lon="-0.70754">
        <ele>8.2</ele>
        <time>2020-05-31T13:53:11Z</time>
      </trkpt>
      <trkpt lat="46.27181" lon="-0.70759">
        <ele>8</ele>
        <time>2020-05-31T13:53:12Z</time>
      </trkpt>
      <trkpt lat="46.27175" lon="-0.70763">
        <ele>7.8</ele>
        <time>2020-05-31T13:53:13Z</time>
      </trkpt>
      <trkpt lat="46.2717" lon="-0.70768">
        <ele>7.7</ele>
        <time>2020-05-31T13:53:14Z</time>
      </trkpt>
      <trkpt lat="46.27165" lon="-0.70772">
        <ele>7.6</ele>
        <time>2020-05-31T13:53:15Z</time>
      </trkpt>
      <trkpt lat="46.27159" lon="-0.70777">
        <ele>7.4</ele>
        <time>2020-05-31T13:53:16Z</time>
      </trkpt>
      <trkpt lat="46.27154" lon="-0.70781">
        <ele>7.4</ele>
        <time>2020-05-31T13:53:17Z</time>
      </trkpt>
      <trkpt lat="46.27148" lon="-0.70785">
        <ele>7.3</ele>
        <time>2020-05-31T13:53:18Z</time>
      </trkpt>
      <trkpt lat="46.27143" lon="-0.70789">
        <ele>7.3</ele>
        <time>2020-05-31T13:53:19Z</time>
      </trkpt>
      <trkpt lat="46.27137" lon="-0.70792">
        <ele>7.3</ele>
        <time>2020-05-31T13:53:20Z</time>
      </trkpt>
      <trkpt lat="46.2713" lon="-0.70795">
        <ele>7.2</ele>
        <time>2020-05-31T13:53:21Z</time>
      </trkpt>
      <trkpt lat="46.27124" lon="-0.70799">
        <ele>7.1</ele>
        <time>2020-05-31T13:53:22Z</time>
      </trkpt>
      <trkpt lat="46.27118" lon="-0.70803">
        <ele>7</ele>
        <time>2020-05-31T13:53:23Z</time>
      </trkpt>
      <trkpt lat="46.27112" lon="-0.70807">
        <ele>7</ele>
        <time>2020-05-31T13:53:24Z</time>
      </trkpt>
      <trkpt lat="46.27107" lon="-0.70811">
        <ele>7</ele>
        <time>2020-05-31T13:53:25Z</time>
      </trkpt>
      <trkpt lat="46.27101" lon="-0.70814">
        <ele>6.9</ele>
        <time>2020-05-31T13:53:26Z</time>
      </trkpt>
      <trkpt lat="46.27096" lon="-0.70816">
        <ele>6.9</ele>
        <time>2020-05-31T13:53:27Z</time>
      </trkpt>
      <trkpt lat="46.2709" lon="-0.7082">
        <ele>6.9</ele>
        <time>2020-05-31T13:53:28Z</time>
      </trkpt>
      <trkpt lat="46.27085" lon="-0.70824">
        <ele>6.9</ele>
        <time>2020-05-31T13:53:29Z</time>
      </trkpt>
      <trkpt lat="46.2708" lon="-0.70828">
        <ele>6.9</ele>
        <time>2020-05-31T13:53:30Z</time>
      </trkpt>
      <trkpt lat="46.27074" lon="-0.7083">
        <ele>6.9</ele>
        <time>2020-05-31T13:53:31Z</time>
      </trkpt>
      <trkpt lat="46.27069" lon="-0.70833">
        <ele>6.9</ele>
        <time>2020-05-31T13:53:32Z</time>
      </trkpt>
      <trkpt lat="46.27064" lon="-0.70836">
        <ele>6.8</ele>
        <time>2020-05-31T13:53:33Z</time>
      </trkpt>
      <trkpt lat="46.2706" lon="-0.70838">
        <ele>6.8</ele>
        <time>2020-05-31T13:53:34Z</time>
      </trkpt>
      <trkpt lat="46.27055" lon="-0.70842">
        <ele>6.8</ele>
        <time>2020-05-31T13:53:35Z</time>
      </trkpt>
      <trkpt lat="46.2705" lon="-0.70846">
        <ele>6.8</ele>
        <time>2020-05-31T13:53:36Z</time>
      </trkpt>
      <trkpt lat="46.27046" lon="-0.7085">
        <ele>6.8</ele>
        <time>2020-05-31T13:53:37Z</time>
      </trkpt>
      <trkpt lat="46.27041" lon="-0.70853">
        <ele>6.9</ele>
        <time>2020-05-31T13:53:38Z</time>
      </trkpt>
      <trkpt lat="46.27036" lon="-0.70856">
        <ele>6.9</ele>
        <time>2020-05-31T13:53:39Z</time>
      </trkpt>
      <trkpt lat="46.27031" lon="-0.70858">
        <ele>6.9</ele>
        <time>2020-05-31T13:53:40Z</time>
      </trkpt>
      <trkpt lat="46.27025" lon="-0.70859">
        <ele>6.9</ele>
        <time>2020-05-31T13:53:41Z</time>
      </trkpt>
      <trkpt lat="46.27021" lon="-0.70862">
        <ele>6.9</ele>
        <time>2020-05-31T13:53:42Z</time>
      </trkpt>
      <trkpt lat="46.27016" lon="-0.70867">
        <ele>6.9</ele>
        <time>2020-05-31T13:53:43Z</time>
      </trkpt>
      <trkpt lat="46.27011" lon="-0.70871">
        <ele>6.9</ele>
        <time>2020-05-31T13:53:44Z</time>
      </trkpt>
      <trkpt lat="46.27006" lon="-0.70873">
        <ele>6.9</ele>
        <time>2020-05-31T13:53:45Z</time>
      </trkpt>
      <trkpt lat="46.27002" lon="-0.70877">
        <ele>6.9</ele>
        <time>2020-05-31T13:53:46Z</time>
      </trkpt>
      <trkpt lat="46.26997" lon="-0.70881">
        <ele>6.9</ele>
        <time>2020-05-31T13:53:47Z</time>
      </trkpt>
      <trkpt lat="46.26993" lon="-0.70885">
        <ele>6.9</ele>
        <time>2020-05-31T13:53:48Z</time>
      </trkpt>
      <trkpt lat="46.26988" lon="-0.70891">
        <ele>6.8</ele>
        <time>2020-05-31T13:53:49Z</time>
      </trkpt>
      <trkpt lat="46.26984" lon="-0.70896">
        <ele>6.8</ele>
        <time>2020-05-31T13:53:50Z</time>
      </trkpt>
      <trkpt lat="46.2698" lon="-0.70902">
        <ele>6.8</ele>
        <time>2020-05-31T13:53:51Z</time>
      </trkpt>
      <trkpt lat="46.26976" lon="-0.70908">
        <ele>6.8</ele>
        <time>2020-05-31T13:53:52Z</time>
      </trkpt>
      <trkpt lat="46.26973" lon="-0.70914">
        <ele>6.8</ele>
        <time>2020-05-31T13:53:53Z</time>
      </trkpt>
      <trkpt lat="46.26969" lon="-0.70919">
        <ele>6.9</ele>
        <time>2020-05-31T13:53:54Z</time>
      </trkpt>
      <trkpt lat="46.26965" lon="-0.70925">
        <ele>6.9</ele>
        <time>2020-05-31T13:53:55Z</time>
      </trkpt>
      <trkpt lat="46.26962" lon="-0.70931">
        <ele>7</ele>
        <time>2020-05-31T13:53:56Z</time>
      </trkpt>
      <trkpt lat="46.26958" lon="-0.70936">
        <ele>7</ele>
        <time>2020-05-31T13:53:57Z</time>
      </trkpt>
      <trkpt lat="46.26956" lon="-0.70944">
        <ele>7</ele>
        <time>2020-05-31T13:53:58Z</time>
      </trkpt>
      <trkpt lat="46.26952" lon="-0.70949">
        <ele>7.1</ele>
        <time>2020-05-31T13:53:59Z</time>
      </trkpt>
      <trkpt lat="46.26949" lon="-0.70954">
        <ele>7.1</ele>
        <time>2020-05-31T13:54:00Z</time>
      </trkpt>
      <trkpt lat="46.26946" lon="-0.70961">
        <ele>7.1</ele>
        <time>2020-05-31T13:54:01Z</time>
      </trkpt>
      <trkpt lat="46.26943" lon="-0.70966">
        <ele>7.1</ele>
        <time>2020-05-31T13:54:02Z</time>
      </trkpt>
      <trkpt lat="46.26939" lon="-0.70971">
        <ele>7.1</ele>
        <time>2020-05-31T13:54:03Z</time>
      </trkpt>
      <trkpt lat="46.26936" lon="-0.70976">
        <ele>7.1</ele>
        <time>2020-05-31T13:54:04Z</time>
      </trkpt>
      <trkpt lat="46.26932" lon="-0.70982">
        <ele>7.1</ele>
        <time>2020-05-31T13:54:05Z</time>
      </trkpt>
      <trkpt lat="46.26929" lon="-0.70987">
        <ele>7.1</ele>
        <time>2020-05-31T13:54:06Z</time>
      </trkpt>
      <trkpt lat="46.26926" lon="-0.70993">
        <ele>7.1</ele>
        <time>2020-05-31T13:54:07Z</time>
      </trkpt>
      <trkpt lat="46.26922" lon="-0.70997">
        <ele>7</ele>
        <time>2020-05-31T13:54:08Z</time>
      </trkpt>
      <trkpt lat="46.26919" lon="-0.71003">
        <ele>7</ele>
        <time>2020-05-31T13:54:09Z</time>
      </trkpt>
      <trkpt lat="46.26915" lon="-0.71009">
        <ele>7</ele>
        <time>2020-05-31T13:54:10Z</time>
      </trkpt>
      <trkpt lat="46.26911" lon="-0.71014">
        <ele>7</ele>
        <time>2020-05-31T13:54:11Z</time>
      </trkpt>
      <trkpt lat="46.26908" lon="-0.71019">
        <ele>7</ele>
        <time>2020-05-31T13:54:12Z</time>
      </trkpt>
      <trkpt lat="46.26904" lon="-0.71024">
        <ele>7</ele>
        <time>2020-05-31T13:54:13Z</time>
      </trkpt>
      <trkpt lat="46.26901" lon="-0.7103">
        <ele>7</ele>
        <time>2020-05-31T13:54:14Z</time>
      </trkpt>
      <trkpt lat="46.26898" lon="-0.71035">
        <ele>6.9</ele>
        <time>2020-05-31T13:54:15Z</time>
      </trkpt>
      <trkpt lat="46.26895" lon="-0.7104">
        <ele>6.9</ele>
        <time>2020-05-31T13:54:16Z</time>
      </trkpt>
      <trkpt lat="46.26891" lon="-0.71045">
        <ele>6.9</ele>
        <time>2020-05-31T13:54:17Z</time>
      </trkpt>
      <trkpt lat="46.26888" lon="-0.71051">
        <ele>6.9</ele>
        <time>2020-05-31T13:54:18Z</time>
      </trkpt>
      <trkpt lat="46.26884" lon="-0.71055">
        <ele>6.9</ele>
        <time>2020-05-31T13:54:19Z</time>
      </trkpt>
      <trkpt lat="46.26881" lon="-0.7106">
        <ele>6.9</ele>
        <time>2020-05-31T13:54:20Z</time>
      </trkpt>
      <trkpt lat="46.26877" lon="-0.71065">
        <ele>6.8</ele>
        <time>2020-05-31T13:54:21Z</time>
      </trkpt>
      <trkpt lat="46.26874" lon="-0.71071">
        <ele>6.8</ele>
        <time>2020-05-31T13:54:22Z</time>
      </trkpt>
      <trkpt lat="46.2687" lon="-0.71076">
        <ele>6.8</ele>
        <time>2020-05-31T13:54:23Z</time>
      </trkpt>
      <trkpt lat="46.26867" lon="-0.71081">
        <ele>6.7</ele>
        <time>2020-05-31T13:54:24Z</time>
      </trkpt>
      <trkpt lat="46.26864" lon="-0.71086">
        <ele>6.7</ele>
        <time>2020-05-31T13:54:25Z</time>
      </trkpt>
      <trkpt lat="46.2686" lon="-0.71091">
        <ele>6.6</ele>
        <time>2020-05-31T13:54:26Z</time>
      </trkpt>
      <trkpt lat="46.26857" lon="-0.71097">
        <ele>6.6</ele>
        <time>2020-05-31T13:54:27Z</time>
      </trkpt>
      <trkpt lat="46.26853" lon="-0.71102">
        <ele>6.5</ele>
        <time>2020-05-31T13:54:28Z</time>
      </trkpt>
      <trkpt lat="46.26849" lon="-0.71107">
        <ele>6.4</ele>
        <time>2020-05-31T13:54:29Z</time>
      </trkpt>
      <trkpt lat="46.26845" lon="-0.71113">
        <ele>6.4</ele>
        <time>2020-05-31T13:54:30Z</time>
      </trkpt>
      <trkpt lat="46.26841" lon="-0.71118">
        <ele>6.3</ele>
        <time>2020-05-31T13:54:31Z</time>
      </trkpt>
      <trkpt lat="46.26837" lon="-0.71123">
        <ele>6.2</ele>
        <time>2020-05-31T13:54:32Z</time>
      </trkpt>
      <trkpt lat="46.26831" lon="-0.71129">
        <ele>6.2</ele>
        <time>2020-05-31T13:54:33Z</time>
      </trkpt>
      <trkpt lat="46.26826" lon="-0.71135">
        <ele>6.2</ele>
        <time>2020-05-31T13:54:34Z</time>
      </trkpt>
      <trkpt lat="46.2682" lon="-0.71138">
        <ele>6.1</ele>
        <time>2020-05-31T13:54:35Z</time>
      </trkpt>
      <trkpt lat="46.26814" lon="-0.71142">
        <ele>6</ele>
        <time>2020-05-31T13:54:36Z</time>
      </trkpt>
      <trkpt lat="46.26809" lon="-0.71146">
        <ele>6.1</ele>
        <time>2020-05-31T13:54:37Z</time>
      </trkpt>
      <trkpt lat="46.26803" lon="-0.7115">
        <ele>6.1</ele>
        <time>2020-05-31T13:54:38Z</time>
      </trkpt>
      <trkpt lat="46.26797" lon="-0.71154">
        <ele>6.1</ele>
        <time>2020-05-31T13:54:39Z</time>
      </trkpt>
      <trkpt lat="46.26791" lon="-0.71157">
        <ele>6.1</ele>
        <time>2020-05-31T13:54:40Z</time>
      </trkpt>
      <trkpt lat="46.26785" lon="-0.71159">
        <ele>6.1</ele>
        <time>2020-05-31T13:54:41Z</time>
      </trkpt>
      <trkpt lat="46.2678" lon="-0.71162">
        <ele>6.1</ele>
        <time>2020-05-31T13:54:42Z</time>
      </trkpt>
      <trkpt lat="46.26775" lon="-0.71166">
        <ele>6.1</ele>
        <time>2020-05-31T13:54:43Z</time>
      </trkpt>
      <trkpt lat="46.26771" lon="-0.71169">
        <ele>6.1</ele>
        <time>2020-05-31T13:54:44Z</time>
      </trkpt>
      <trkpt lat="46.26766" lon="-0.71171">
        <ele>6.1</ele>
        <time>2020-05-31T13:54:45Z</time>
      </trkpt>
      <trkpt lat="46.26762" lon="-0.71175">
        <ele>6.1</ele>
        <time>2020-05-31T13:54:46Z</time>
      </trkpt>
      <trkpt lat="46.26758" lon="-0.71177">
        <ele>6.1</ele>
        <time>2020-05-31T13:54:47Z</time>
      </trkpt>
      <trkpt lat="46.26754" lon="-0.71181">
        <ele>6.1</ele>
        <time>2020-05-31T13:54:48Z</time>
      </trkpt>
      <trkpt lat="46.26751" lon="-0.71185">
        <ele>6.1</ele>
        <time>2020-05-31T13:54:49Z</time>
      </trkpt>
      <trkpt lat="46.26746" lon="-0.7119">
        <ele>6.1</ele>
        <time>2020-05-31T13:54:50Z</time>
      </trkpt>
      <trkpt lat="46.26742" lon="-0.71195">
        <ele>6.1</ele>
        <time>2020-05-31T13:54:51Z</time>
      </trkpt>
      <trkpt lat="46.26737" lon="-0.71201">
        <ele>6.1</ele>
        <time>2020-05-31T13:54:52Z</time>
      </trkpt>
      <trkpt lat="46.26731" lon="-0.71206">
        <ele>6.1</ele>
        <time>2020-05-31T13:54:53Z</time>
      </trkpt>
      <trkpt lat="46.26726" lon="-0.71211">
        <ele>6</ele>
        <time>2020-05-31T13:54:54Z</time>
      </trkpt>
      <trkpt lat="46.2672" lon="-0.71216">
        <ele>6</ele>
        <time>2020-05-31T13:54:55Z</time>
      </trkpt>
      <trkpt lat="46.26715" lon="-0.71223">
        <ele>6</ele>
        <time>2020-05-31T13:54:56Z</time>
      </trkpt>
      <trkpt lat="46.2671" lon="-0.7123">
        <ele>5.9</ele>
        <time>2020-05-31T13:54:57Z</time>
      </trkpt>
      <trkpt lat="46.26705" lon="-0.71237">
        <ele>5.9</ele>
        <time>2020-05-31T13:54:58Z</time>
      </trkpt>
      <trkpt lat="46.267" lon="-0.71243">
        <ele>5.9</ele>
        <time>2020-05-31T13:54:59Z</time>
      </trkpt>
      <trkpt lat="46.26695" lon="-0.71249">
        <ele>5.9</ele>
        <time>2020-05-31T13:55:00Z</time>
      </trkpt>
      <trkpt lat="46.26691" lon="-0.71256">
        <ele>5.8</ele>
        <time>2020-05-31T13:55:01Z</time>
      </trkpt>
      <trkpt lat="46.26687" lon="-0.71264">
        <ele>5.8</ele>
        <time>2020-05-31T13:55:02Z</time>
      </trkpt>
      <trkpt lat="46.26685" lon="-0.71274">
        <ele>5.8</ele>
        <time>2020-05-31T13:55:03Z</time>
      </trkpt>
      <trkpt lat="46.26682" lon="-0.71283">
        <ele>5.7</ele>
        <time>2020-05-31T13:55:04Z</time>
      </trkpt>
      <trkpt lat="46.26679" lon="-0.71292">
        <ele>5.7</ele>
        <time>2020-05-31T13:55:05Z</time>
      </trkpt>
      <trkpt lat="46.26676" lon="-0.713">
        <ele>5.7</ele>
        <time>2020-05-31T13:55:06Z</time>
      </trkpt>
      <trkpt lat="46.26673" lon="-0.71309">
        <ele>5.8</ele>
        <time>2020-05-31T13:55:07Z</time>
      </trkpt>
      <trkpt lat="46.2667" lon="-0.71318">
        <ele>5.9</ele>
        <time>2020-05-31T13:55:08Z</time>
      </trkpt>
      <trkpt lat="46.26667" lon="-0.71327">
        <ele>6</ele>
        <time>2020-05-31T13:55:09Z</time>
      </trkpt>
      <trkpt lat="46.26665" lon="-0.71336">
        <ele>6</ele>
        <time>2020-05-31T13:55:10Z</time>
      </trkpt>
      <trkpt lat="46.26662" lon="-0.71344">
        <ele>6.1</ele>
        <time>2020-05-31T13:55:11Z</time>
      </trkpt>
      <trkpt lat="46.26658" lon="-0.71352">
        <ele>6.2</ele>
        <time>2020-05-31T13:55:12Z</time>
      </trkpt>
      <trkpt lat="46.26654" lon="-0.71359">
        <ele>6.2</ele>
        <time>2020-05-31T13:55:13Z</time>
      </trkpt>
      <trkpt lat="46.2665" lon="-0.71366">
        <ele>6.2</ele>
        <time>2020-05-31T13:55:14Z</time>
      </trkpt>
      <trkpt lat="46.26645" lon="-0.71372">
        <ele>6.2</ele>
        <time>2020-05-31T13:55:15Z</time>
      </trkpt>
      <trkpt lat="46.26641" lon="-0.71379">
        <ele>6.1</ele>
        <time>2020-05-31T13:55:16Z</time>
      </trkpt>
      <trkpt lat="46.26636" lon="-0.71386">
        <ele>6.1</ele>
        <time>2020-05-31T13:55:17Z</time>
      </trkpt>
      <trkpt lat="46.26631" lon="-0.71391">
        <ele>6.1</ele>
        <time>2020-05-31T13:55:18Z</time>
      </trkpt>
      <trkpt lat="46.26626" lon="-0.71395">
        <ele>6.1</ele>
        <time>2020-05-31T13:55:19Z</time>
      </trkpt>
      <trkpt lat="46.2662" lon="-0.71399">
        <ele>6.1</ele>
        <time>2020-05-31T13:55:20Z</time>
      </trkpt>
      <trkpt lat="46.26613" lon="-0.71401">
        <ele>6.1</ele>
        <time>2020-05-31T13:55:21Z</time>
      </trkpt>
      <trkpt lat="46.26607" lon="-0.71403">
        <ele>6.1</ele>
        <time>2020-05-31T13:55:22Z</time>
      </trkpt>
      <trkpt lat="46.266" lon="-0.71405">
        <ele>6.1</ele>
        <time>2020-05-31T13:55:23Z</time>
      </trkpt>
      <trkpt lat="46.26594" lon="-0.71407">
        <ele>6.1</ele>
        <time>2020-05-31T13:55:24Z</time>
      </trkpt>
      <trkpt lat="46.26588" lon="-0.71408">
        <ele>6.1</ele>
        <time>2020-05-31T13:55:25Z</time>
      </trkpt>
      <trkpt lat="46.26582" lon="-0.71408">
        <ele>6.1</ele>
        <time>2020-05-31T13:55:26Z</time>
      </trkpt>
      <trkpt lat="46.26577" lon="-0.71409">
        <ele>6</ele>
        <time>2020-05-31T13:55:27Z</time>
      </trkpt>
      <trkpt lat="46.26571" lon="-0.7141">
        <ele>6</ele>
        <time>2020-05-31T13:55:28Z</time>
      </trkpt>
      <trkpt lat="46.26567" lon="-0.71412">
        <ele>6</ele>
        <time>2020-05-31T13:55:29Z</time>
      </trkpt>
      <trkpt lat="46.26563" lon="-0.71411">
        <ele>6</ele>
        <time>2020-05-31T13:55:30Z</time>
      </trkpt>
      <trkpt lat="46.2656" lon="-0.71413">
        <ele>6</ele>
        <time>2020-05-31T13:55:31Z</time>
      </trkpt>
      <trkpt lat="46.26557" lon="-0.71413">
        <ele>6</ele>
        <time>2020-05-31T13:55:32Z</time>
      </trkpt>
      <trkpt lat="46.26556" lon="-0.71413">
        <ele>6</ele>
        <time>2020-05-31T13:55:33Z</time>
      </trkpt>
      <trkpt lat="46.26553" lon="-0.71413">
        <ele>6</ele>
        <time>2020-05-31T13:55:34Z</time>
      </trkpt>
      <trkpt lat="46.26552" lon="-0.71413">
        <ele>6</ele>
        <time>2020-05-31T13:55:35Z</time>
      </trkpt>
      <trkpt lat="46.26549" lon="-0.71411">
        <ele>6</ele>
        <time>2020-05-31T13:55:36Z</time>
      </trkpt>
      <trkpt lat="46.26547" lon="-0.7141">
        <ele>6</ele>
        <time>2020-05-31T13:55:37Z</time>
      </trkpt>
      <trkpt lat="46.26544" lon="-0.71409">
        <ele>6</ele>
        <time>2020-05-31T13:55:38Z</time>
      </trkpt>
      <trkpt lat="46.26543" lon="-0.71409">
        <ele>6</ele>
        <time>2020-05-31T13:55:39Z</time>
      </trkpt>
      <trkpt lat="46.2654" lon="-0.7141">
        <ele>6</ele>
        <time>2020-05-31T13:55:40Z</time>
      </trkpt>
      <trkpt lat="46.26538" lon="-0.7141">
        <ele>6</ele>
        <time>2020-05-31T13:55:41Z</time>
      </trkpt>
      <trkpt lat="46.26536" lon="-0.71412">
        <ele>6</ele>
        <time>2020-05-31T13:55:42Z</time>
      </trkpt>
      <trkpt lat="46.26535" lon="-0.71414">
        <ele>6</ele>
        <time>2020-05-31T13:55:43Z</time>
      </trkpt>
      <trkpt lat="46.26534" lon="-0.71418">
        <ele>6</ele>
        <time>2020-05-31T13:55:44Z</time>
      </trkpt>
      <trkpt lat="46.26533" lon="-0.71423">
        <ele>6</ele>
        <time>2020-05-31T13:55:45Z</time>
      </trkpt>
      <trkpt lat="46.26531" lon="-0.71427">
        <ele>6</ele>
        <time>2020-05-31T13:55:46Z</time>
      </trkpt>
      <trkpt lat="46.2653" lon="-0.71431">
        <ele>6.1</ele>
        <time>2020-05-31T13:55:47Z</time>
      </trkpt>
      <trkpt lat="46.26528" lon="-0.71435">
        <ele>6.1</ele>
        <time>2020-05-31T13:55:48Z</time>
      </trkpt>
      <trkpt lat="46.26526" lon="-0.7144">
        <ele>6.1</ele>
        <time>2020-05-31T13:55:49Z</time>
      </trkpt>
      <trkpt lat="46.26524" lon="-0.71445">
        <ele>6.1</ele>
        <time>2020-05-31T13:55:50Z</time>
      </trkpt>
      <trkpt lat="46.26522" lon="-0.7145">
        <ele>6.2</ele>
        <time>2020-05-31T13:55:51Z</time>
      </trkpt>
      <trkpt lat="46.26517" lon="-0.71454">
        <ele>6.2</ele>
        <time>2020-05-31T13:55:52Z</time>
      </trkpt>
      <trkpt lat="46.26514" lon="-0.71459">
        <ele>6.3</ele>
        <time>2020-05-31T13:55:53Z</time>
      </trkpt>
      <trkpt lat="46.26512" lon="-0.71465">
        <ele>6.3</ele>
        <time>2020-05-31T13:55:54Z</time>
      </trkpt>
      <trkpt lat="46.2651" lon="-0.71471">
        <ele>6.4</ele>
        <time>2020-05-31T13:55:55Z</time>
      </trkpt>
      <trkpt lat="46.26508" lon="-0.71477">
        <ele>6.5</ele>
        <time>2020-05-31T13:55:56Z</time>
      </trkpt>
      <trkpt lat="46.26506" lon="-0.71483">
        <ele>6.6</ele>
        <time>2020-05-31T13:55:57Z</time>
      </trkpt>
      <trkpt lat="46.26503" lon="-0.71488">
        <ele>6.7</ele>
        <time>2020-05-31T13:55:58Z</time>
      </trkpt>
      <trkpt lat="46.26501" lon="-0.71493">
        <ele>6.8</ele>
        <time>2020-05-31T13:55:59Z</time>
      </trkpt>
      <trkpt lat="46.26498" lon="-0.71499">
        <ele>6.9</ele>
        <time>2020-05-31T13:56:00Z</time>
      </trkpt>
      <trkpt lat="46.26496" lon="-0.71504">
        <ele>6.9</ele>
        <time>2020-05-31T13:56:01Z</time>
      </trkpt>
      <trkpt lat="46.26493" lon="-0.71509">
        <ele>7</ele>
        <time>2020-05-31T13:56:02Z</time>
      </trkpt>
      <trkpt lat="46.26491" lon="-0.71515">
        <ele>7.1</ele>
        <time>2020-05-31T13:56:03Z</time>
      </trkpt>
      <trkpt lat="46.26489" lon="-0.7152">
        <ele>7.2</ele>
        <time>2020-05-31T13:56:04Z</time>
      </trkpt>
      <trkpt lat="46.26488" lon="-0.71525">
        <ele>7.2</ele>
        <time>2020-05-31T13:56:05Z</time>
      </trkpt>
      <trkpt lat="46.26486" lon="-0.7153">
        <ele>7.3</ele>
        <time>2020-05-31T13:56:06Z</time>
      </trkpt>
      <trkpt lat="46.26484" lon="-0.71534">
        <ele>7.4</ele>
        <time>2020-05-31T13:56:07Z</time>
      </trkpt>
      <trkpt lat="46.26483" lon="-0.71539">
        <ele>7.4</ele>
        <time>2020-05-31T13:56:08Z</time>
      </trkpt>
      <trkpt lat="46.26481" lon="-0.71543">
        <ele>7.5</ele>
        <time>2020-05-31T13:56:09Z</time>
      </trkpt>
      <trkpt lat="46.26479" lon="-0.71549">
        <ele>7.6</ele>
        <time>2020-05-31T13:56:10Z</time>
      </trkpt>
      <trkpt lat="46.26477" lon="-0.71555">
        <ele>7.7</ele>
        <time>2020-05-31T13:56:11Z</time>
      </trkpt>
      <trkpt lat="46.26475" lon="-0.71561">
        <ele>7.8</ele>
        <time>2020-05-31T13:56:12Z</time>
      </trkpt>
      <trkpt lat="46.26473" lon="-0.71566">
        <ele>7.8</ele>
        <time>2020-05-31T13:56:13Z</time>
      </trkpt>
      <trkpt lat="46.26471" lon="-0.71572">
        <ele>7.9</ele>
        <time>2020-05-31T13:56:14Z</time>
      </trkpt>
      <trkpt lat="46.26469" lon="-0.71577">
        <ele>8</ele>
        <time>2020-05-31T13:56:15Z</time>
      </trkpt>
      <trkpt lat="46.26468" lon="-0.71583">
        <ele>8.1</ele>
        <time>2020-05-31T13:56:16Z</time>
      </trkpt>
      <trkpt lat="46.26466" lon="-0.71589">
        <ele>8.2</ele>
        <time>2020-05-31T13:56:17Z</time>
      </trkpt>
      <trkpt lat="46.26464" lon="-0.71596">
        <ele>8.3</ele>
        <time>2020-05-31T13:56:18Z</time>
      </trkpt>
      <trkpt lat="46.26462" lon="-0.71602">
        <ele>8.4</ele>
        <time>2020-05-31T13:56:19Z</time>
      </trkpt>
      <trkpt lat="46.26461" lon="-0.71608">
        <ele>8.5</ele>
        <time>2020-05-31T13:56:20Z</time>
      </trkpt>
      <trkpt lat="46.2646" lon="-0.71614">
        <ele>8.6</ele>
        <time>2020-05-31T13:56:21Z</time>
      </trkpt>
      <trkpt lat="46.26458" lon="-0.71619">
        <ele>8.7</ele>
        <time>2020-05-31T13:56:22Z</time>
      </trkpt>
      <trkpt lat="46.26457" lon="-0.71625">
        <ele>8.8</ele>
        <time>2020-05-31T13:56:23Z</time>
      </trkpt>
      <trkpt lat="46.26456" lon="-0.71631">
        <ele>8.8</ele>
        <time>2020-05-31T13:56:24Z</time>
      </trkpt>
      <trkpt lat="46.26455" lon="-0.71637">
        <ele>8.9</ele>
        <time>2020-05-31T13:56:25Z</time>
      </trkpt>
      <trkpt lat="46.26454" lon="-0.71642">
        <ele>9</ele>
        <time>2020-05-31T13:56:26Z</time>
      </trkpt>
      <trkpt lat="46.26453" lon="-0.71647">
        <ele>9</ele>
        <time>2020-05-31T13:56:27Z</time>
      </trkpt>
      <trkpt lat="46.26452" lon="-0.71652">
        <ele>9.1</ele>
        <time>2020-05-31T13:56:28Z</time>
      </trkpt>
      <trkpt lat="46.26451" lon="-0.71657">
        <ele>9.2</ele>
        <time>2020-05-31T13:56:29Z</time>
      </trkpt>
      <trkpt lat="46.26451" lon="-0.71662">
        <ele>9.2</ele>
        <time>2020-05-31T13:56:30Z</time>
      </trkpt>
      <trkpt lat="46.2645" lon="-0.71668">
        <ele>9.3</ele>
        <time>2020-05-31T13:56:31Z</time>
      </trkpt>
      <trkpt lat="46.2645" lon="-0.71673">
        <ele>9.3</ele>
        <time>2020-05-31T13:56:32Z</time>
      </trkpt>
      <trkpt lat="46.2645" lon="-0.71677">
        <ele>9.3</ele>
        <time>2020-05-31T13:56:33Z</time>
      </trkpt>
      <trkpt lat="46.26448" lon="-0.71682">
        <ele>9.3</ele>
        <time>2020-05-31T13:56:34Z</time>
      </trkpt>
      <trkpt lat="46.26449" lon="-0.71687">
        <ele>9.4</ele>
        <time>2020-05-31T13:56:35Z</time>
      </trkpt>
      <trkpt lat="46.2645" lon="-0.71691">
        <ele>9.4</ele>
        <time>2020-05-31T13:56:36Z</time>
      </trkpt>
      <trkpt lat="46.2645" lon="-0.71697">
        <ele>9.4</ele>
        <time>2020-05-31T13:56:37Z</time>
      </trkpt>
      <trkpt lat="46.2645" lon="-0.71699">
        <ele>9.4</ele>
        <time>2020-05-31T13:56:38Z</time>
      </trkpt>
      <trkpt lat="46.26451" lon="-0.71704">
        <ele>9.4</ele>
        <time>2020-05-31T13:56:39Z</time>
      </trkpt>
      <trkpt lat="46.26451" lon="-0.71705">
        <ele>9.4</ele>
        <time>2020-05-31T13:56:40Z</time>
      </trkpt>
      <trkpt lat="46.26452" lon="-0.71711">
        <ele>9.5</ele>
        <time>2020-05-31T13:56:41Z</time>
      </trkpt>
      <trkpt lat="46.26452" lon="-0.71713">
        <ele>9.5</ele>
        <time>2020-05-31T13:56:42Z</time>
      </trkpt>
      <trkpt lat="46.26453" lon="-0.71717">
        <ele>9.5</ele>
        <time>2020-05-31T13:56:43Z</time>
      </trkpt>
      <trkpt lat="46.26454" lon="-0.71721">
        <ele>9.5</ele>
        <time>2020-05-31T13:56:44Z</time>
      </trkpt>
      <trkpt lat="46.26454" lon="-0.71726">
        <ele>9.6</ele>
        <time>2020-05-31T13:56:45Z</time>
      </trkpt>
      <trkpt lat="46.26455" lon="-0.71731">
        <ele>9.6</ele>
        <time>2020-05-31T13:56:46Z</time>
      </trkpt>
      <trkpt lat="46.26456" lon="-0.71736">
        <ele>9.6</ele>
        <time>2020-05-31T13:56:47Z</time>
      </trkpt>
      <trkpt lat="46.26456" lon="-0.71742">
        <ele>9.7</ele>
        <time>2020-05-31T13:56:48Z</time>
      </trkpt>
      <trkpt lat="46.26458" lon="-0.71748">
        <ele>9.7</ele>
        <time>2020-05-31T13:56:49Z</time>
      </trkpt>
      <trkpt lat="46.26459" lon="-0.71754">
        <ele>9.8</ele>
        <time>2020-05-31T13:56:50Z</time>
      </trkpt>
      <trkpt lat="46.2646" lon="-0.71759">
        <ele>9.8</ele>
        <time>2020-05-31T13:56:51Z</time>
      </trkpt>
      <trkpt lat="46.26461" lon="-0.71765">
        <ele>9.9</ele>
        <time>2020-05-31T13:56:52Z</time>
      </trkpt>
      <trkpt lat="46.26461" lon="-0.71772">
        <ele>9.9</ele>
        <time>2020-05-31T13:56:53Z</time>
      </trkpt>
      <trkpt lat="46.26461" lon="-0.71778">
        <ele>10</ele>
        <time>2020-05-31T13:56:54Z</time>
      </trkpt>
      <trkpt lat="46.26461" lon="-0.71785">
        <ele>10</ele>
        <time>2020-05-31T13:56:55Z</time>
      </trkpt>
      <trkpt lat="46.26462" lon="-0.71791">
        <ele>10.1</ele>
        <time>2020-05-31T13:56:56Z</time>
      </trkpt>
      <trkpt lat="46.26463" lon="-0.71798">
        <ele>10.1</ele>
        <time>2020-05-31T13:56:57Z</time>
      </trkpt>
      <trkpt lat="46.26463" lon="-0.71805">
        <ele>10.1</ele>
        <time>2020-05-31T13:56:58Z</time>
      </trkpt>
      <trkpt lat="46.26464" lon="-0.71811">
        <ele>10.2</ele>
        <time>2020-05-31T13:56:59Z</time>
      </trkpt>
      <trkpt lat="46.26465" lon="-0.71818">
        <ele>10.2</ele>
        <time>2020-05-31T13:57:00Z</time>
      </trkpt>
      <trkpt lat="46.26466" lon="-0.71824">
        <ele>10.3</ele>
        <time>2020-05-31T13:57:01Z</time>
      </trkpt>
      <trkpt lat="46.26466" lon="-0.71831">
        <ele>10.3</ele>
        <time>2020-05-31T13:57:02Z</time>
      </trkpt>
      <trkpt lat="46.26468" lon="-0.71838">
        <ele>10.3</ele>
        <time>2020-05-31T13:57:03Z</time>
      </trkpt>
      <trkpt lat="46.26471" lon="-0.71845">
        <ele>10.4</ele>
        <time>2020-05-31T13:57:04Z</time>
      </trkpt>
      <trkpt lat="46.26472" lon="-0.71852">
        <ele>10.4</ele>
        <time>2020-05-31T13:57:05Z</time>
      </trkpt>
      <trkpt lat="46.26473" lon="-0.71859">
        <ele>10.4</ele>
        <time>2020-05-31T13:57:06Z</time>
      </trkpt>
      <trkpt lat="46.26474" lon="-0.71866">
        <ele>10.4</ele>
        <time>2020-05-31T13:57:07Z</time>
      </trkpt>
      <trkpt lat="46.26474" lon="-0.71874">
        <ele>10.4</ele>
        <time>2020-05-31T13:57:08Z</time>
      </trkpt>
      <trkpt lat="46.26474" lon="-0.71882">
        <ele>10.4</ele>
        <time>2020-05-31T13:57:09Z</time>
      </trkpt>
      <trkpt lat="46.26475" lon="-0.71889">
        <ele>10.4</ele>
        <time>2020-05-31T13:57:10Z</time>
      </trkpt>
      <trkpt lat="46.26477" lon="-0.71897">
        <ele>10.4</ele>
        <time>2020-05-31T13:57:11Z</time>
      </trkpt>
      <trkpt lat="46.26479" lon="-0.71904">
        <ele>10.4</ele>
        <time>2020-05-31T13:57:12Z</time>
      </trkpt>
      <trkpt lat="46.26481" lon="-0.71912">
        <ele>10.4</ele>
        <time>2020-05-31T13:57:13Z</time>
      </trkpt>
      <trkpt lat="46.26482" lon="-0.7192">
        <ele>10.4</ele>
        <time>2020-05-31T13:57:14Z</time>
      </trkpt>
      <trkpt lat="46.26483" lon="-0.71928">
        <ele>10.4</ele>
        <time>2020-05-31T13:57:15Z</time>
      </trkpt>
      <trkpt lat="46.26487" lon="-0.71935">
        <ele>10.3</ele>
        <time>2020-05-31T13:57:16Z</time>
      </trkpt>
      <trkpt lat="46.26489" lon="-0.71943">
        <ele>10.3</ele>
        <time>2020-05-31T13:57:17Z</time>
      </trkpt>
      <trkpt lat="46.2649" lon="-0.71951">
        <ele>10.3</ele>
        <time>2020-05-31T13:57:18Z</time>
      </trkpt>
      <trkpt lat="46.26491" lon="-0.7196">
        <ele>10.3</ele>
        <time>2020-05-31T13:57:19Z</time>
      </trkpt>
      <trkpt lat="46.26492" lon="-0.71969">
        <ele>10.3</ele>
        <time>2020-05-31T13:57:20Z</time>
      </trkpt>
      <trkpt lat="46.26493" lon="-0.71977">
        <ele>10.3</ele>
        <time>2020-05-31T13:57:21Z</time>
      </trkpt>
      <trkpt lat="46.26493" lon="-0.71986">
        <ele>10.3</ele>
        <time>2020-05-31T13:57:22Z</time>
      </trkpt>
      <trkpt lat="46.26493" lon="-0.71995">
        <ele>10.3</ele>
        <time>2020-05-31T13:57:23Z</time>
      </trkpt>
      <trkpt lat="46.26493" lon="-0.72003">
        <ele>10.3</ele>
        <time>2020-05-31T13:57:24Z</time>
      </trkpt>
      <trkpt lat="46.26494" lon="-0.72012">
        <ele>10.3</ele>
        <time>2020-05-31T13:57:25Z</time>
      </trkpt>
      <trkpt lat="46.26494" lon="-0.72021">
        <ele>10.3</ele>
        <time>2020-05-31T13:57:26Z</time>
      </trkpt>
      <trkpt lat="46.26494" lon="-0.7203">
        <ele>10.3</ele>
        <time>2020-05-31T13:57:27Z</time>
      </trkpt>
      <trkpt lat="46.26494" lon="-0.72038">
        <ele>10.3</ele>
        <time>2020-05-31T13:57:28Z</time>
      </trkpt>
      <trkpt lat="46.26494" lon="-0.72047">
        <ele>10.3</ele>
        <time>2020-05-31T13:57:29Z</time>
      </trkpt>
      <trkpt lat="46.26494" lon="-0.72055">
        <ele>10.3</ele>
        <time>2020-05-31T13:57:30Z</time>
      </trkpt>
      <trkpt lat="46.26494" lon="-0.72063">
        <ele>10.3</ele>
        <time>2020-05-31T13:57:31Z</time>
      </trkpt>
      <trkpt lat="46.26495" lon="-0.72072">
        <ele>10.2</ele>
        <time>2020-05-31T13:57:32Z</time>
      </trkpt>
      <trkpt lat="46.26495" lon="-0.72081">
        <ele>10.2</ele>
        <time>2020-05-31T13:57:33Z</time>
      </trkpt>
      <trkpt lat="46.26496" lon="-0.7209">
        <ele>10.1</ele>
        <time>2020-05-31T13:57:34Z</time>
      </trkpt>
      <trkpt lat="46.26496" lon="-0.72099">
        <ele>10.1</ele>
        <time>2020-05-31T13:57:35Z</time>
      </trkpt>
      <trkpt lat="46.26496" lon="-0.72109">
        <ele>10</ele>
        <time>2020-05-31T13:57:36Z</time>
      </trkpt>
      <trkpt lat="46.26496" lon="-0.72119">
        <ele>9.8</ele>
        <time>2020-05-31T13:57:37Z</time>
      </trkpt>
      <trkpt lat="46.26496" lon="-0.72128">
        <ele>9.7</ele>
        <time>2020-05-31T13:57:38Z</time>
      </trkpt>
      <trkpt lat="46.26495" lon="-0.72137">
        <ele>9.6</ele>
        <time>2020-05-31T13:57:39Z</time>
      </trkpt>
      <trkpt lat="46.26496" lon="-0.72147">
        <ele>9.4</ele>
        <time>2020-05-31T13:57:40Z</time>
      </trkpt>
      <trkpt lat="46.26496" lon="-0.72156">
        <ele>9.3</ele>
        <time>2020-05-31T13:57:41Z</time>
      </trkpt>
      <trkpt lat="46.26497" lon="-0.72166">
        <ele>9.3</ele>
        <time>2020-05-31T13:57:42Z</time>
      </trkpt>
      <trkpt lat="46.26499" lon="-0.72175">
        <ele>9.2</ele>
        <time>2020-05-31T13:57:43Z</time>
      </trkpt>
      <trkpt lat="46.265" lon="-0.72185">
        <ele>9.2</ele>
        <time>2020-05-31T13:57:44Z</time>
      </trkpt>
      <trkpt lat="46.26501" lon="-0.72194">
        <ele>9.1</ele>
        <time>2020-05-31T13:57:45Z</time>
      </trkpt>
      <trkpt lat="46.26502" lon="-0.72203">
        <ele>9.1</ele>
        <time>2020-05-31T13:57:46Z</time>
      </trkpt>
      <trkpt lat="46.26502" lon="-0.72212">
        <ele>9</ele>
        <time>2020-05-31T13:57:47Z</time>
      </trkpt>
      <trkpt lat="46.26502" lon="-0.72222">
        <ele>9</ele>
        <time>2020-05-31T13:57:48Z</time>
      </trkpt>
      <trkpt lat="46.26502" lon="-0.72231">
        <ele>8.9</ele>
        <time>2020-05-31T13:57:49Z</time>
      </trkpt>
      <trkpt lat="46.26503" lon="-0.7224">
        <ele>8.8</ele>
        <time>2020-05-31T13:57:50Z</time>
      </trkpt>
      <trkpt lat="46.26503" lon="-0.72249">
        <ele>8.8</ele>
        <time>2020-05-31T13:57:51Z</time>
      </trkpt>
      <trkpt lat="46.26503" lon="-0.72257">
        <ele>8.7</ele>
        <time>2020-05-31T13:57:52Z</time>
      </trkpt>
      <trkpt lat="46.26503" lon="-0.72266">
        <ele>8.6</ele>
        <time>2020-05-31T13:57:53Z</time>
      </trkpt>
      <trkpt lat="46.26502" lon="-0.72275">
        <ele>8.6</ele>
        <time>2020-05-31T13:57:54Z</time>
      </trkpt>
      <trkpt lat="46.26502" lon="-0.72283">
        <ele>8.5</ele>
        <time>2020-05-31T13:57:55Z</time>
      </trkpt>
      <trkpt lat="46.26502" lon="-0.72292">
        <ele>8.5</ele>
        <time>2020-05-31T13:57:56Z</time>
      </trkpt>
      <trkpt lat="46.26502" lon="-0.723">
        <ele>8.4</ele>
        <time>2020-05-31T13:57:57Z</time>
      </trkpt>
      <trkpt lat="46.26502" lon="-0.72308">
        <ele>8.3</ele>
        <time>2020-05-31T13:57:58Z</time>
      </trkpt>
      <trkpt lat="46.26502" lon="-0.72316">
        <ele>8.3</ele>
        <time>2020-05-31T13:57:59Z</time>
      </trkpt>
      <trkpt lat="46.26501" lon="-0.72324">
        <ele>8.2</ele>
        <time>2020-05-31T13:58:00Z</time>
      </trkpt>
      <trkpt lat="46.265" lon="-0.72332">
        <ele>8.1</ele>
        <time>2020-05-31T13:58:01Z</time>
      </trkpt>
      <trkpt lat="46.26498" lon="-0.7234">
        <ele>8.1</ele>
        <time>2020-05-31T13:58:02Z</time>
      </trkpt>
      <trkpt lat="46.26496" lon="-0.72347">
        <ele>8</ele>
        <time>2020-05-31T13:58:03Z</time>
      </trkpt>
      <trkpt lat="46.26494" lon="-0.72355">
        <ele>7.9</ele>
        <time>2020-05-31T13:58:04Z</time>
      </trkpt>
      <trkpt lat="46.26491" lon="-0.72363">
        <ele>7.9</ele>
        <time>2020-05-31T13:58:05Z</time>
      </trkpt>
      <trkpt lat="46.26489" lon="-0.7237">
        <ele>7.8</ele>
        <time>2020-05-31T13:58:06Z</time>
      </trkpt>
      <trkpt lat="46.26487" lon="-0.72378">
        <ele>7.8</ele>
        <time>2020-05-31T13:58:07Z</time>
      </trkpt>
      <trkpt lat="46.26485" lon="-0.72385">
        <ele>7.7</ele>
        <time>2020-05-31T13:58:08Z</time>
      </trkpt>
      <trkpt lat="46.26482" lon="-0.72393">
        <ele>7.7</ele>
        <time>2020-05-31T13:58:09Z</time>
      </trkpt>
      <trkpt lat="46.26479" lon="-0.724">
        <ele>7.6</ele>
        <time>2020-05-31T13:58:10Z</time>
      </trkpt>
      <trkpt lat="46.26476" lon="-0.72408">
        <ele>7.5</ele>
        <time>2020-05-31T13:58:11Z</time>
      </trkpt>
      <trkpt lat="46.26474" lon="-0.72415">
        <ele>7.5</ele>
        <time>2020-05-31T13:58:12Z</time>
      </trkpt>
      <trkpt lat="46.26471" lon="-0.72423">
        <ele>7.4</ele>
        <time>2020-05-31T13:58:13Z</time>
      </trkpt>
      <trkpt lat="46.26469" lon="-0.7243">
        <ele>7.3</ele>
        <time>2020-05-31T13:58:14Z</time>
      </trkpt>
      <trkpt lat="46.26466" lon="-0.72437">
        <ele>7.3</ele>
        <time>2020-05-31T13:58:15Z</time>
      </trkpt>
      <trkpt lat="46.26463" lon="-0.72443">
        <ele>7.2</ele>
        <time>2020-05-31T13:58:16Z</time>
      </trkpt>
      <trkpt lat="46.26461" lon="-0.7245">
        <ele>7.2</ele>
        <time>2020-05-31T13:58:17Z</time>
      </trkpt>
      <trkpt lat="46.26458" lon="-0.72457">
        <ele>7.2</ele>
        <time>2020-05-31T13:58:18Z</time>
      </trkpt>
      <trkpt lat="46.26455" lon="-0.72463">
        <ele>7.1</ele>
        <time>2020-05-31T13:58:19Z</time>
      </trkpt>
      <trkpt lat="46.26452" lon="-0.7247">
        <ele>7.1</ele>
        <time>2020-05-31T13:58:20Z</time>
      </trkpt>
      <trkpt lat="46.26448" lon="-0.72475">
        <ele>7.1</ele>
        <time>2020-05-31T13:58:21Z</time>
      </trkpt>
      <trkpt lat="46.26444" lon="-0.72482">
        <ele>7</ele>
        <time>2020-05-31T13:58:22Z</time>
      </trkpt>
      <trkpt lat="46.2644" lon="-0.72489">
        <ele>7</ele>
        <time>2020-05-31T13:58:23Z</time>
      </trkpt>
      <trkpt lat="46.26437" lon="-0.72496">
        <ele>6.9</ele>
        <time>2020-05-31T13:58:24Z</time>
      </trkpt>
      <trkpt lat="46.26433" lon="-0.72502">
        <ele>6.8</ele>
        <time>2020-05-31T13:58:25Z</time>
      </trkpt>
      <trkpt lat="46.26429" lon="-0.72508">
        <ele>6.7</ele>
        <time>2020-05-31T13:58:26Z</time>
      </trkpt>
      <trkpt lat="46.26425" lon="-0.72514">
        <ele>6.6</ele>
        <time>2020-05-31T13:58:27Z</time>
      </trkpt>
      <trkpt lat="46.26422" lon="-0.7252">
        <ele>6.5</ele>
        <time>2020-05-31T13:58:28Z</time>
      </trkpt>
      <trkpt lat="46.26418" lon="-0.72527">
        <ele>6.4</ele>
        <time>2020-05-31T13:58:29Z</time>
      </trkpt>
      <trkpt lat="46.26414" lon="-0.72533">
        <ele>6.3</ele>
        <time>2020-05-31T13:58:30Z</time>
      </trkpt>
      <trkpt lat="46.2641" lon="-0.72539">
        <ele>6.3</ele>
        <time>2020-05-31T13:58:31Z</time>
      </trkpt>
      <trkpt lat="46.26405" lon="-0.72545">
        <ele>6.3</ele>
        <time>2020-05-31T13:58:32Z</time>
      </trkpt>
      <trkpt lat="46.26401" lon="-0.72551">
        <ele>6.3</ele>
        <time>2020-05-31T13:58:33Z</time>
      </trkpt>
      <trkpt lat="46.26396" lon="-0.72557">
        <ele>6.3</ele>
        <time>2020-05-31T13:58:34Z</time>
      </trkpt>
      <trkpt lat="46.26391" lon="-0.72564">
        <ele>6.3</ele>
        <time>2020-05-31T13:58:35Z</time>
      </trkpt>
      <trkpt lat="46.26386" lon="-0.7257">
        <ele>6.3</ele>
        <time>2020-05-31T13:58:36Z</time>
      </trkpt>
      <trkpt lat="46.26381" lon="-0.72576">
        <ele>6.3</ele>
        <time>2020-05-31T13:58:37Z</time>
      </trkpt>
      <trkpt lat="46.26375" lon="-0.72581">
        <ele>6.2</ele>
        <time>2020-05-31T13:58:38Z</time>
      </trkpt>
      <trkpt lat="46.2637" lon="-0.72587">
        <ele>6.2</ele>
        <time>2020-05-31T13:58:39Z</time>
      </trkpt>
      <trkpt lat="46.26365" lon="-0.72592">
        <ele>6.2</ele>
        <time>2020-05-31T13:58:40Z</time>
      </trkpt>
      <trkpt lat="46.2636" lon="-0.72597">
        <ele>6.2</ele>
        <time>2020-05-31T13:58:41Z</time>
      </trkpt>
      <trkpt lat="46.26355" lon="-0.72601">
        <ele>6.2</ele>
        <time>2020-05-31T13:58:42Z</time>
      </trkpt>
      <trkpt lat="46.2635" lon="-0.72606">
        <ele>6.2</ele>
        <time>2020-05-31T13:58:43Z</time>
      </trkpt>
      <trkpt lat="46.26345" lon="-0.72611">
        <ele>6.2</ele>
        <time>2020-05-31T13:58:44Z</time>
      </trkpt>
      <trkpt lat="46.2634" lon="-0.72616">
        <ele>6.3</ele>
        <time>2020-05-31T13:58:45Z</time>
      </trkpt>
      <trkpt lat="46.26335" lon="-0.72621">
        <ele>6.3</ele>
        <time>2020-05-31T13:58:46Z</time>
      </trkpt>
      <trkpt lat="46.2633" lon="-0.72625">
        <ele>6.3</ele>
        <time>2020-05-31T13:58:47Z</time>
      </trkpt>
      <trkpt lat="46.26325" lon="-0.72628">
        <ele>6.4</ele>
        <time>2020-05-31T13:58:48Z</time>
      </trkpt>
      <trkpt lat="46.2632" lon="-0.72632">
        <ele>6.4</ele>
        <time>2020-05-31T13:58:49Z</time>
      </trkpt>
      <trkpt lat="46.26315" lon="-0.72635">
        <ele>6.4</ele>
        <time>2020-05-31T13:58:50Z</time>
      </trkpt>
      <trkpt lat="46.2631" lon="-0.72639">
        <ele>6.5</ele>
        <time>2020-05-31T13:58:51Z</time>
      </trkpt>
      <trkpt lat="46.26305" lon="-0.72643">
        <ele>6.5</ele>
        <time>2020-05-31T13:58:52Z</time>
      </trkpt>
      <trkpt lat="46.263" lon="-0.72646">
        <ele>6.5</ele>
        <time>2020-05-31T13:58:53Z</time>
      </trkpt>
      <trkpt lat="46.26294" lon="-0.72651">
        <ele>6.5</ele>
        <time>2020-05-31T13:58:54Z</time>
      </trkpt>
      <trkpt lat="46.26289" lon="-0.72656">
        <ele>6.5</ele>
        <time>2020-05-31T13:58:55Z</time>
      </trkpt>
      <trkpt lat="46.26284" lon="-0.7266">
        <ele>6.5</ele>
        <time>2020-05-31T13:58:56Z</time>
      </trkpt>
      <trkpt lat="46.26278" lon="-0.72664">
        <ele>6.5</ele>
        <time>2020-05-31T13:58:57Z</time>
      </trkpt>
      <trkpt lat="46.26272" lon="-0.72668">
        <ele>6.5</ele>
        <time>2020-05-31T13:58:58Z</time>
      </trkpt>
      <trkpt lat="46.26267" lon="-0.72672">
        <ele>6.5</ele>
        <time>2020-05-31T13:58:59Z</time>
      </trkpt>
      <trkpt lat="46.26261" lon="-0.72677">
        <ele>6.5</ele>
        <time>2020-05-31T13:59:00Z</time>
      </trkpt>
      <trkpt lat="46.26255" lon="-0.72681">
        <ele>6.5</ele>
        <time>2020-05-31T13:59:01Z</time>
      </trkpt>
      <trkpt lat="46.26248" lon="-0.72685">
        <ele>6.6</ele>
        <time>2020-05-31T13:59:02Z</time>
      </trkpt>
      <trkpt lat="46.26242" lon="-0.72688">
        <ele>6.6</ele>
        <time>2020-05-31T13:59:03Z</time>
      </trkpt>
      <trkpt lat="46.26236" lon="-0.72692">
        <ele>6.6</ele>
        <time>2020-05-31T13:59:04Z</time>
      </trkpt>
      <trkpt lat="46.26229" lon="-0.72696">
        <ele>6.7</ele>
        <time>2020-05-31T13:59:05Z</time>
      </trkpt>
      <trkpt lat="46.26223" lon="-0.727">
        <ele>6.7</ele>
        <time>2020-05-31T13:59:06Z</time>
      </trkpt>
      <trkpt lat="46.26217" lon="-0.72705">
        <ele>6.7</ele>
        <time>2020-05-31T13:59:07Z</time>
      </trkpt>
      <trkpt lat="46.26211" lon="-0.7271">
        <ele>6.7</ele>
        <time>2020-05-31T13:59:08Z</time>
      </trkpt>
      <trkpt lat="46.26205" lon="-0.72715">
        <ele>6.7</ele>
        <time>2020-05-31T13:59:09Z</time>
      </trkpt>
      <trkpt lat="46.262" lon="-0.72721">
        <ele>6.7</ele>
        <time>2020-05-31T13:59:10Z</time>
      </trkpt>
      <trkpt lat="46.26194" lon="-0.72726">
        <ele>6.7</ele>
        <time>2020-05-31T13:59:11Z</time>
      </trkpt>
      <trkpt lat="46.26187" lon="-0.72731">
        <ele>6.7</ele>
        <time>2020-05-31T13:59:12Z</time>
      </trkpt>
      <trkpt lat="46.26181" lon="-0.72736">
        <ele>6.7</ele>
        <time>2020-05-31T13:59:13Z</time>
      </trkpt>
      <trkpt lat="46.26175" lon="-0.72741">
        <ele>6.7</ele>
        <time>2020-05-31T13:59:14Z</time>
      </trkpt>
      <trkpt lat="46.26169" lon="-0.72746">
        <ele>6.7</ele>
        <time>2020-05-31T13:59:15Z</time>
      </trkpt>
      <trkpt lat="46.26163" lon="-0.7275">
        <ele>6.8</ele>
        <time>2020-05-31T13:59:16Z</time>
      </trkpt>
      <trkpt lat="46.26158" lon="-0.72756">
        <ele>6.8</ele>
        <time>2020-05-31T13:59:17Z</time>
      </trkpt>
      <trkpt lat="46.26152" lon="-0.72761">
        <ele>6.8</ele>
        <time>2020-05-31T13:59:18Z</time>
      </trkpt>
      <trkpt lat="46.26146" lon="-0.72765">
        <ele>6.8</ele>
        <time>2020-05-31T13:59:19Z</time>
      </trkpt>
      <trkpt lat="46.2614" lon="-0.72769">
        <ele>6.9</ele>
        <time>2020-05-31T13:59:20Z</time>
      </trkpt>
      <trkpt lat="46.26134" lon="-0.72774">
        <ele>6.9</ele>
        <time>2020-05-31T13:59:21Z</time>
      </trkpt>
      <trkpt lat="46.26128" lon="-0.72779">
        <ele>6.9</ele>
        <time>2020-05-31T13:59:22Z</time>
      </trkpt>
      <trkpt lat="46.26122" lon="-0.72784">
        <ele>6.9</ele>
        <time>2020-05-31T13:59:23Z</time>
      </trkpt>
      <trkpt lat="46.26116" lon="-0.72789">
        <ele>6.9</ele>
        <time>2020-05-31T13:59:24Z</time>
      </trkpt>
      <trkpt lat="46.2611" lon="-0.72793">
        <ele>6.9</ele>
        <time>2020-05-31T13:59:25Z</time>
      </trkpt>
      <trkpt lat="46.26104" lon="-0.72797">
        <ele>6.8</ele>
        <time>2020-05-31T13:59:26Z</time>
      </trkpt>
      <trkpt lat="46.26097" lon="-0.72802">
        <ele>6.8</ele>
        <time>2020-05-31T13:59:27Z</time>
      </trkpt>
      <trkpt lat="46.26091" lon="-0.72807">
        <ele>6.8</ele>
        <time>2020-05-31T13:59:28Z</time>
      </trkpt>
      <trkpt lat="46.26085" lon="-0.72812">
        <ele>6.8</ele>
        <time>2020-05-31T13:59:29Z</time>
      </trkpt>
      <trkpt lat="46.26079" lon="-0.72816">
        <ele>6.7</ele>
        <time>2020-05-31T13:59:30Z</time>
      </trkpt>
      <trkpt lat="46.26074" lon="-0.72821">
        <ele>6.6</ele>
        <time>2020-05-31T13:59:31Z</time>
      </trkpt>
      <trkpt lat="46.26068" lon="-0.72826">
        <ele>6.5</ele>
        <time>2020-05-31T13:59:32Z</time>
      </trkpt>
      <trkpt lat="46.26062" lon="-0.7283">
        <ele>6.4</ele>
        <time>2020-05-31T13:59:33Z</time>
      </trkpt>
      <trkpt lat="46.26056" lon="-0.72835">
        <ele>6.3</ele>
        <time>2020-05-31T13:59:34Z</time>
      </trkpt>
      <trkpt lat="46.26051" lon="-0.72841">
        <ele>6.1</ele>
        <time>2020-05-31T13:59:35Z</time>
      </trkpt>
      <trkpt lat="46.26045" lon="-0.72846">
        <ele>6</ele>
        <time>2020-05-31T13:59:36Z</time>
      </trkpt>
      <trkpt lat="46.2604" lon="-0.72852">
        <ele>5.9</ele>
        <time>2020-05-31T13:59:37Z</time>
      </trkpt>
      <trkpt lat="46.26035" lon="-0.72858">
        <ele>5.8</ele>
        <time>2020-05-31T13:59:38Z</time>
      </trkpt>
      <trkpt lat="46.2603" lon="-0.72865">
        <ele>5.8</ele>
        <time>2020-05-31T13:59:39Z</time>
      </trkpt>
      <trkpt lat="46.26025" lon="-0.72872">
        <ele>5.8</ele>
        <time>2020-05-31T13:59:40Z</time>
      </trkpt>
      <trkpt lat="46.26021" lon="-0.72878">
        <ele>5.7</ele>
        <time>2020-05-31T13:59:41Z</time>
      </trkpt>
      <trkpt lat="46.26016" lon="-0.72885">
        <ele>5.7</ele>
        <time>2020-05-31T13:59:42Z</time>
      </trkpt>
      <trkpt lat="46.26012" lon="-0.72892">
        <ele>5.6</ele>
        <time>2020-05-31T13:59:43Z</time>
      </trkpt>
      <trkpt lat="46.26008" lon="-0.72899">
        <ele>5.5</ele>
        <time>2020-05-31T13:59:44Z</time>
      </trkpt>
      <trkpt lat="46.26005" lon="-0.72907">
        <ele>5.5</ele>
        <time>2020-05-31T13:59:45Z</time>
      </trkpt>
      <trkpt lat="46.26001" lon="-0.72915">
        <ele>5.5</ele>
        <time>2020-05-31T13:59:46Z</time>
      </trkpt>
      <trkpt lat="46.25997" lon="-0.72922">
        <ele>5.5</ele>
        <time>2020-05-31T13:59:47Z</time>
      </trkpt>
      <trkpt lat="46.25994" lon="-0.7293">
        <ele>5.4</ele>
        <time>2020-05-31T13:59:48Z</time>
      </trkpt>
      <trkpt lat="46.25991" lon="-0.72938">
        <ele>5.4</ele>
        <time>2020-05-31T13:59:49Z</time>
      </trkpt>
      <trkpt lat="46.25988" lon="-0.72946">
        <ele>5.4</ele>
        <time>2020-05-31T13:59:50Z</time>
      </trkpt>
      <trkpt lat="46.25984" lon="-0.72953">
        <ele>5.4</ele>
        <time>2020-05-31T13:59:51Z</time>
      </trkpt>
      <trkpt lat="46.25981" lon="-0.72961">
        <ele>5.4</ele>
        <time>2020-05-31T13:59:52Z</time>
      </trkpt>
      <trkpt lat="46.25978" lon="-0.72968">
        <ele>5.5</ele>
        <time>2020-05-31T13:59:53Z</time>
      </trkpt>
      <trkpt lat="46.25974" lon="-0.72975">
        <ele>5.5</ele>
        <time>2020-05-31T13:59:54Z</time>
      </trkpt>
      <trkpt lat="46.2597" lon="-0.72981">
        <ele>5.5</ele>
        <time>2020-05-31T13:59:55Z</time>
      </trkpt>
      <trkpt lat="46.25966" lon="-0.72988">
        <ele>5.5</ele>
        <time>2020-05-31T13:59:56Z</time>
      </trkpt>
      <trkpt lat="46.25964" lon="-0.72995">
        <ele>5.6</ele>
        <time>2020-05-31T13:59:57Z</time>
      </trkpt>
      <trkpt lat="46.2596" lon="-0.73001">
        <ele>5.6</ele>
        <time>2020-05-31T13:59:58Z</time>
      </trkpt>
      <trkpt lat="46.25957" lon="-0.73007">
        <ele>5.6</ele>
        <time>2020-05-31T13:59:59Z</time>
      </trkpt>
      <trkpt lat="46.25953" lon="-0.73012">
        <ele>5.6</ele>
        <time>2020-05-31T14:00:00Z</time>
      </trkpt>
      <trkpt lat="46.2595" lon="-0.73018">
        <ele>5.7</ele>
        <time>2020-05-31T14:00:01Z</time>
      </trkpt>
      <trkpt lat="46.25947" lon="-0.73023">
        <ele>5.7</ele>
        <time>2020-05-31T14:00:02Z</time>
      </trkpt>
      <trkpt lat="46.25944" lon="-0.73028">
        <ele>5.8</ele>
        <time>2020-05-31T14:00:03Z</time>
      </trkpt>
      <trkpt lat="46.25941" lon="-0.73034">
        <ele>5.8</ele>
        <time>2020-05-31T14:00:04Z</time>
      </trkpt>
      <trkpt lat="46.25938" lon="-0.7304">
        <ele>5.9</ele>
        <time>2020-05-31T14:00:05Z</time>
      </trkpt>
      <trkpt lat="46.25934" lon="-0.73046">
        <ele>5.9</ele>
        <time>2020-05-31T14:00:06Z</time>
      </trkpt>
      <trkpt lat="46.25932" lon="-0.73052">
        <ele>6</ele>
        <time>2020-05-31T14:00:07Z</time>
      </trkpt>
      <trkpt lat="46.25929" lon="-0.73058">
        <ele>6.1</ele>
        <time>2020-05-31T14:00:08Z</time>
      </trkpt>
      <trkpt lat="46.25926" lon="-0.73064">
        <ele>6.2</ele>
        <time>2020-05-31T14:00:09Z</time>
      </trkpt>
      <trkpt lat="46.25924" lon="-0.7307">
        <ele>6.3</ele>
        <time>2020-05-31T14:00:10Z</time>
      </trkpt>
      <trkpt lat="46.25921" lon="-0.73077">
        <ele>6.4</ele>
        <time>2020-05-31T14:00:11Z</time>
      </trkpt>
      <trkpt lat="46.25918" lon="-0.73083">
        <ele>6.5</ele>
        <time>2020-05-31T14:00:12Z</time>
      </trkpt>
      <trkpt lat="46.25916" lon="-0.7309">
        <ele>6.6</ele>
        <time>2020-05-31T14:00:13Z</time>
      </trkpt>
      <trkpt lat="46.25915" lon="-0.73097">
        <ele>6.7</ele>
        <time>2020-05-31T14:00:14Z</time>
      </trkpt>
      <trkpt lat="46.25913" lon="-0.73103">
        <ele>6.7</ele>
        <time>2020-05-31T14:00:15Z</time>
      </trkpt>
      <trkpt lat="46.2591" lon="-0.7311">
        <ele>6.8</ele>
        <time>2020-05-31T14:00:16Z</time>
      </trkpt>
      <trkpt lat="46.25908" lon="-0.73116">
        <ele>6.8</ele>
        <time>2020-05-31T14:00:17Z</time>
      </trkpt>
      <trkpt lat="46.25907" lon="-0.73123">
        <ele>6.8</ele>
        <time>2020-05-31T14:00:18Z</time>
      </trkpt>
      <trkpt lat="46.25904" lon="-0.73129">
        <ele>6.8</ele>
        <time>2020-05-31T14:00:19Z</time>
      </trkpt>
      <trkpt lat="46.25901" lon="-0.73136">
        <ele>6.8</ele>
        <time>2020-05-31T14:00:20Z</time>
      </trkpt>
      <trkpt lat="46.25899" lon="-0.73143">
        <ele>6.9</ele>
        <time>2020-05-31T14:00:21Z</time>
      </trkpt>
      <trkpt lat="46.25897" lon="-0.73149">
        <ele>7</ele>
        <time>2020-05-31T14:00:22Z</time>
      </trkpt>
      <trkpt lat="46.25896" lon="-0.73156">
        <ele>7.1</ele>
        <time>2020-05-31T14:00:23Z</time>
      </trkpt>
      <trkpt lat="46.25887" lon="-0.73159">
        <ele>7.2</ele>
        <time>2020-05-31T14:00:24Z</time>
      </trkpt>
      <trkpt lat="46.25884" lon="-0.73165">
        <ele>7.3</ele>
        <time>2020-05-31T14:00:25Z</time>
      </trkpt>
      <trkpt lat="46.25882" lon="-0.73172">
        <ele>7.4</ele>
        <time>2020-05-31T14:00:26Z</time>
      </trkpt>
      <trkpt lat="46.2588" lon="-0.73179">
        <ele>7.5</ele>
        <time>2020-05-31T14:00:27Z</time>
      </trkpt>
      <trkpt lat="46.25878" lon="-0.73186">
        <ele>7.6</ele>
        <time>2020-05-31T14:00:28Z</time>
      </trkpt>
      <trkpt lat="46.25876" lon="-0.73194">
        <ele>7.6</ele>
        <time>2020-05-31T14:00:29Z</time>
      </trkpt>
      <trkpt lat="46.25874" lon="-0.73201">
        <ele>7.7</ele>
        <time>2020-05-31T14:00:30Z</time>
      </trkpt>
      <trkpt lat="46.25873" lon="-0.73209">
        <ele>7.7</ele>
        <time>2020-05-31T14:00:31Z</time>
      </trkpt>
      <trkpt lat="46.25871" lon="-0.73216">
        <ele>7.8</ele>
        <time>2020-05-31T14:00:32Z</time>
      </trkpt>
      <trkpt lat="46.2587" lon="-0.73223">
        <ele>7.9</ele>
        <time>2020-05-31T14:00:33Z</time>
      </trkpt>
      <trkpt lat="46.25868" lon="-0.7323">
        <ele>8</ele>
        <time>2020-05-31T14:00:34Z</time>
      </trkpt>
      <trkpt lat="46.25866" lon="-0.73237">
        <ele>8.2</ele>
        <time>2020-05-31T14:00:35Z</time>
      </trkpt>
      <trkpt lat="46.25864" lon="-0.73244">
        <ele>8.3</ele>
        <time>2020-05-31T14:00:36Z</time>
      </trkpt>
      <trkpt lat="46.25863" lon="-0.73251">
        <ele>8.4</ele>
        <time>2020-05-31T14:00:37Z</time>
      </trkpt>
      <trkpt lat="46.25861" lon="-0.73257">
        <ele>8.5</ele>
        <time>2020-05-31T14:00:38Z</time>
      </trkpt>
      <trkpt lat="46.25859" lon="-0.73264">
        <ele>8.6</ele>
        <time>2020-05-31T14:00:39Z</time>
      </trkpt>
      <trkpt lat="46.25858" lon="-0.7327">
        <ele>8.6</ele>
        <time>2020-05-31T14:00:40Z</time>
      </trkpt>
      <trkpt lat="46.25856" lon="-0.73277">
        <ele>8.7</ele>
        <time>2020-05-31T14:00:41Z</time>
      </trkpt>
      <trkpt lat="46.25853" lon="-0.73282">
        <ele>8.8</ele>
        <time>2020-05-31T14:00:42Z</time>
      </trkpt>
      <trkpt lat="46.2585" lon="-0.73288">
        <ele>8.8</ele>
        <time>2020-05-31T14:00:43Z</time>
      </trkpt>
      <trkpt lat="46.25847" lon="-0.73294">
        <ele>8.9</ele>
        <time>2020-05-31T14:00:44Z</time>
      </trkpt>
      <trkpt lat="46.25844" lon="-0.73301">
        <ele>9</ele>
        <time>2020-05-31T14:00:45Z</time>
      </trkpt>
      <trkpt lat="46.25842" lon="-0.73306">
        <ele>9.1</ele>
        <time>2020-05-31T14:00:46Z</time>
      </trkpt>
      <trkpt lat="46.2584" lon="-0.73313">
        <ele>9.2</ele>
        <time>2020-05-31T14:00:47Z</time>
      </trkpt>
      <trkpt lat="46.25838" lon="-0.73319">
        <ele>9.2</ele>
        <time>2020-05-31T14:00:48Z</time>
      </trkpt>
      <trkpt lat="46.25835" lon="-0.73323">
        <ele>9.3</ele>
        <time>2020-05-31T14:00:49Z</time>
      </trkpt>
      <trkpt lat="46.25833" lon="-0.73328">
        <ele>9.3</ele>
        <time>2020-05-31T14:00:50Z</time>
      </trkpt>
      <trkpt lat="46.2583" lon="-0.73331">
        <ele>9.4</ele>
        <time>2020-05-31T14:00:51Z</time>
      </trkpt>
      <trkpt lat="46.25828" lon="-0.73335">
        <ele>9.4</ele>
        <time>2020-05-31T14:00:52Z</time>
      </trkpt>
      <trkpt lat="46.25825" lon="-0.73339">
        <ele>9.4</ele>
        <time>2020-05-31T14:00:53Z</time>
      </trkpt>
      <trkpt lat="46.25823" lon="-0.73343">
        <ele>9.4</ele>
        <time>2020-05-31T14:00:54Z</time>
      </trkpt>
      <trkpt lat="46.2582" lon="-0.73346">
        <ele>9.4</ele>
        <time>2020-05-31T14:00:55Z</time>
      </trkpt>
      <trkpt lat="46.25818" lon="-0.73349">
        <ele>9.4</ele>
        <time>2020-05-31T14:00:56Z</time>
      </trkpt>
      <trkpt lat="46.25815" lon="-0.73352">
        <ele>9.5</ele>
        <time>2020-05-31T14:00:57Z</time>
      </trkpt>
      <trkpt lat="46.25812" lon="-0.73355">
        <ele>9.5</ele>
        <time>2020-05-31T14:00:58Z</time>
      </trkpt>
      <trkpt lat="46.25809" lon="-0.73358">
        <ele>9.5</ele>
        <time>2020-05-31T14:00:59Z</time>
      </trkpt>
      <trkpt lat="46.25807" lon="-0.73361">
        <ele>9.5</ele>
        <time>2020-05-31T14:01:00Z</time>
      </trkpt>
      <trkpt lat="46.25805" lon="-0.73365">
        <ele>9.5</ele>
        <time>2020-05-31T14:01:01Z</time>
      </trkpt>
      <trkpt lat="46.25802" lon="-0.73368">
        <ele>9.5</ele>
        <time>2020-05-31T14:01:02Z</time>
      </trkpt>
      <trkpt lat="46.25799" lon="-0.73371">
        <ele>9.5</ele>
        <time>2020-05-31T14:01:03Z</time>
      </trkpt>
      <trkpt lat="46.25797" lon="-0.73375">
        <ele>9.5</ele>
        <time>2020-05-31T14:01:04Z</time>
      </trkpt>
      <trkpt lat="46.25794" lon="-0.73379">
        <ele>9.4</ele>
        <time>2020-05-31T14:01:05Z</time>
      </trkpt>
      <trkpt lat="46.25791" lon="-0.73382">
        <ele>9.4</ele>
        <time>2020-05-31T14:01:06Z</time>
      </trkpt>
      <trkpt lat="46.25788" lon="-0.73386">
        <ele>9.4</ele>
        <time>2020-05-31T14:01:07Z</time>
      </trkpt>
      <trkpt lat="46.25785" lon="-0.7339">
        <ele>9.4</ele>
        <time>2020-05-31T14:01:08Z</time>
      </trkpt>
      <trkpt lat="46.25782" lon="-0.73394">
        <ele>9.4</ele>
        <time>2020-05-31T14:01:09Z</time>
      </trkpt>
      <trkpt lat="46.25778" lon="-0.73398">
        <ele>9.4</ele>
        <time>2020-05-31T14:01:10Z</time>
      </trkpt>
      <trkpt lat="46.25775" lon="-0.73403">
        <ele>9.4</ele>
        <time>2020-05-31T14:01:11Z</time>
      </trkpt>
      <trkpt lat="46.25771" lon="-0.73407">
        <ele>9.4</ele>
        <time>2020-05-31T14:01:12Z</time>
      </trkpt>
      <trkpt lat="46.25768" lon="-0.73412">
        <ele>9.3</ele>
        <time>2020-05-31T14:01:13Z</time>
      </trkpt>
      <trkpt lat="46.25764" lon="-0.73416">
        <ele>9.3</ele>
        <time>2020-05-31T14:01:14Z</time>
      </trkpt>
      <trkpt lat="46.25761" lon="-0.73421">
        <ele>9.3</ele>
        <time>2020-05-31T14:01:15Z</time>
      </trkpt>
      <trkpt lat="46.25756" lon="-0.73425">
        <ele>9.3</ele>
        <time>2020-05-31T14:01:16Z</time>
      </trkpt>
      <trkpt lat="46.25753" lon="-0.7343">
        <ele>9.3</ele>
        <time>2020-05-31T14:01:17Z</time>
      </trkpt>
      <trkpt lat="46.25749" lon="-0.73435">
        <ele>9.3</ele>
        <time>2020-05-31T14:01:18Z</time>
      </trkpt>
      <trkpt lat="46.25745" lon="-0.73441">
        <ele>9.3</ele>
        <time>2020-05-31T14:01:19Z</time>
      </trkpt>
      <trkpt lat="46.25741" lon="-0.73446">
        <ele>9.3</ele>
        <time>2020-05-31T14:01:20Z</time>
      </trkpt>
      <trkpt lat="46.25737" lon="-0.73451">
        <ele>9.3</ele>
        <time>2020-05-31T14:01:21Z</time>
      </trkpt>
      <trkpt lat="46.25734" lon="-0.73457">
        <ele>9.2</ele>
        <time>2020-05-31T14:01:22Z</time>
      </trkpt>
      <trkpt lat="46.25731" lon="-0.73461">
        <ele>9.2</ele>
        <time>2020-05-31T14:01:23Z</time>
      </trkpt>
      <trkpt lat="46.25727" lon="-0.73467">
        <ele>9.2</ele>
        <time>2020-05-31T14:01:24Z</time>
      </trkpt>
      <trkpt lat="46.25723" lon="-0.73471">
        <ele>9.2</ele>
        <time>2020-05-31T14:01:25Z</time>
      </trkpt>
      <trkpt lat="46.25719" lon="-0.73476">
        <ele>9.2</ele>
        <time>2020-05-31T14:01:26Z</time>
      </trkpt>
      <trkpt lat="46.25716" lon="-0.7348">
        <ele>9.2</ele>
        <time>2020-05-31T14:01:27Z</time>
      </trkpt>
      <trkpt lat="46.25712" lon="-0.73485">
        <ele>9.2</ele>
        <time>2020-05-31T14:01:28Z</time>
      </trkpt>
      <trkpt lat="46.25708" lon="-0.7349">
        <ele>9.2</ele>
        <time>2020-05-31T14:01:29Z</time>
      </trkpt>
      <trkpt lat="46.25705" lon="-0.73495">
        <ele>9.2</ele>
        <time>2020-05-31T14:01:30Z</time>
      </trkpt>
      <trkpt lat="46.25701" lon="-0.73499">
        <ele>9.2</ele>
        <time>2020-05-31T14:01:31Z</time>
      </trkpt>
      <trkpt lat="46.25698" lon="-0.73504">
        <ele>9.2</ele>
        <time>2020-05-31T14:01:32Z</time>
      </trkpt>
      <trkpt lat="46.25695" lon="-0.73509">
        <ele>9.2</ele>
        <time>2020-05-31T14:01:33Z</time>
      </trkpt>
      <trkpt lat="46.25692" lon="-0.73514">
        <ele>9.1</ele>
        <time>2020-05-31T14:01:34Z</time>
      </trkpt>
      <trkpt lat="46.2569" lon="-0.7352">
        <ele>9.1</ele>
        <time>2020-05-31T14:01:35Z</time>
      </trkpt>
      <trkpt lat="46.25687" lon="-0.73526">
        <ele>9.1</ele>
        <time>2020-05-31T14:01:36Z</time>
      </trkpt>
      <trkpt lat="46.25685" lon="-0.73532">
        <ele>9</ele>
        <time>2020-05-31T14:01:37Z</time>
      </trkpt>
      <trkpt lat="46.25682" lon="-0.73537">
        <ele>9</ele>
        <time>2020-05-31T14:01:38Z</time>
      </trkpt>
      <trkpt lat="46.25679" lon="-0.73542">
        <ele>9</ele>
        <time>2020-05-31T14:01:39Z</time>
      </trkpt>
      <trkpt lat="46.25675" lon="-0.73547">
        <ele>8.9</ele>
        <time>2020-05-31T14:01:40Z</time>
      </trkpt>
      <trkpt lat="46.25672" lon="-0.73552">
        <ele>8.9</ele>
        <time>2020-05-31T14:01:41Z</time>
      </trkpt>
      <trkpt lat="46.25669" lon="-0.73558">
        <ele>8.9</ele>
        <time>2020-05-31T14:01:42Z</time>
      </trkpt>
      <trkpt lat="46.25665" lon="-0.73563">
        <ele>8.8</ele>
        <time>2020-05-31T14:01:43Z</time>
      </trkpt>
      <trkpt lat="46.25662" lon="-0.73568">
        <ele>8.8</ele>
        <time>2020-05-31T14:01:44Z</time>
      </trkpt>
      <trkpt lat="46.25659" lon="-0.73573">
        <ele>8.8</ele>
        <time>2020-05-31T14:01:45Z</time>
      </trkpt>
      <trkpt lat="46.25657" lon="-0.73579">
        <ele>8.8</ele>
        <time>2020-05-31T14:01:46Z</time>
      </trkpt>
      <trkpt lat="46.25655" lon="-0.73585">
        <ele>8.7</ele>
        <time>2020-05-31T14:01:47Z</time>
      </trkpt>
      <trkpt lat="46.25653" lon="-0.7359">
        <ele>8.7</ele>
        <time>2020-05-31T14:01:48Z</time>
      </trkpt>
      <trkpt lat="46.25651" lon="-0.73597">
        <ele>8.7</ele>
        <time>2020-05-31T14:01:49Z</time>
      </trkpt>
      <trkpt lat="46.25649" lon="-0.73603">
        <ele>8.7</ele>
        <time>2020-05-31T14:01:50Z</time>
      </trkpt>
      <trkpt lat="46.25647" lon="-0.7361">
        <ele>8.7</ele>
        <time>2020-05-31T14:01:51Z</time>
      </trkpt>
      <trkpt lat="46.25644" lon="-0.73615">
        <ele>8.6</ele>
        <time>2020-05-31T14:01:52Z</time>
      </trkpt>
      <trkpt lat="46.25642" lon="-0.73621">
        <ele>8.6</ele>
        <time>2020-05-31T14:01:53Z</time>
      </trkpt>
      <trkpt lat="46.25641" lon="-0.73628">
        <ele>8.6</ele>
        <time>2020-05-31T14:01:54Z</time>
      </trkpt>
      <trkpt lat="46.25638" lon="-0.73634">
        <ele>8.5</ele>
        <time>2020-05-31T14:01:55Z</time>
      </trkpt>
      <trkpt lat="46.25636" lon="-0.7364">
        <ele>8.5</ele>
        <time>2020-05-31T14:01:56Z</time>
      </trkpt>
      <trkpt lat="46.25634" lon="-0.73646">
        <ele>8.5</ele>
        <time>2020-05-31T14:01:57Z</time>
      </trkpt>
      <trkpt lat="46.25633" lon="-0.73653">
        <ele>8.5</ele>
        <time>2020-05-31T14:01:58Z</time>
      </trkpt>
      <trkpt lat="46.25631" lon="-0.73658">
        <ele>8.4</ele>
        <time>2020-05-31T14:01:59Z</time>
      </trkpt>
      <trkpt lat="46.2563" lon="-0.73665">
        <ele>8.4</ele>
        <time>2020-05-31T14:02:00Z</time>
      </trkpt>
      <trkpt lat="46.25628" lon="-0.73672">
        <ele>8.4</ele>
        <time>2020-05-31T14:02:01Z</time>
      </trkpt>
      <trkpt lat="46.25626" lon="-0.73678">
        <ele>8.3</ele>
        <time>2020-05-31T14:02:02Z</time>
      </trkpt>
      <trkpt lat="46.25623" lon="-0.73684">
        <ele>8.3</ele>
        <time>2020-05-31T14:02:03Z</time>
      </trkpt>
      <trkpt lat="46.25621" lon="-0.73691">
        <ele>8.3</ele>
        <time>2020-05-31T14:02:04Z</time>
      </trkpt>
      <trkpt lat="46.25619" lon="-0.73697">
        <ele>8.3</ele>
        <time>2020-05-31T14:02:05Z</time>
      </trkpt>
      <trkpt lat="46.25617" lon="-0.73704">
        <ele>8.3</ele>
        <time>2020-05-31T14:02:06Z</time>
      </trkpt>
      <trkpt lat="46.25616" lon="-0.7371">
        <ele>8.3</ele>
        <time>2020-05-31T14:02:07Z</time>
      </trkpt>
      <trkpt lat="46.25614" lon="-0.73717">
        <ele>8.3</ele>
        <time>2020-05-31T14:02:08Z</time>
      </trkpt>
      <trkpt lat="46.25613" lon="-0.73724">
        <ele>8.3</ele>
        <time>2020-05-31T14:02:09Z</time>
      </trkpt>
      <trkpt lat="46.25612" lon="-0.73731">
        <ele>8.3</ele>
        <time>2020-05-31T14:02:10Z</time>
      </trkpt>
      <trkpt lat="46.2561" lon="-0.73737">
        <ele>8.3</ele>
        <time>2020-05-31T14:02:11Z</time>
      </trkpt>
      <trkpt lat="46.25609" lon="-0.73744">
        <ele>8.2</ele>
        <time>2020-05-31T14:02:12Z</time>
      </trkpt>
      <trkpt lat="46.25607" lon="-0.73752">
        <ele>8.2</ele>
        <time>2020-05-31T14:02:13Z</time>
      </trkpt>
      <trkpt lat="46.25606" lon="-0.73759">
        <ele>8.2</ele>
        <time>2020-05-31T14:02:14Z</time>
      </trkpt>
      <trkpt lat="46.25605" lon="-0.73767">
        <ele>8.1</ele>
        <time>2020-05-31T14:02:15Z</time>
      </trkpt>
      <trkpt lat="46.25603" lon="-0.73774">
        <ele>8.1</ele>
        <time>2020-05-31T14:02:16Z</time>
      </trkpt>
      <trkpt lat="46.25601" lon="-0.73781">
        <ele>8</ele>
        <time>2020-05-31T14:02:17Z</time>
      </trkpt>
      <trkpt lat="46.256" lon="-0.73787">
        <ele>8</ele>
        <time>2020-05-31T14:02:18Z</time>
      </trkpt>
      <trkpt lat="46.25598" lon="-0.73794">
        <ele>8</ele>
        <time>2020-05-31T14:02:19Z</time>
      </trkpt>
      <trkpt lat="46.25596" lon="-0.738">
        <ele>7.9</ele>
        <time>2020-05-31T14:02:20Z</time>
      </trkpt>
      <trkpt lat="46.25594" lon="-0.73807">
        <ele>7.9</ele>
        <time>2020-05-31T14:02:21Z</time>
      </trkpt>
      <trkpt lat="46.25593" lon="-0.73814">
        <ele>7.8</ele>
        <time>2020-05-31T14:02:22Z</time>
      </trkpt>
      <trkpt lat="46.25591" lon="-0.7382">
        <ele>7.8</ele>
        <time>2020-05-31T14:02:23Z</time>
      </trkpt>
      <trkpt lat="46.25589" lon="-0.73826">
        <ele>7.8</ele>
        <time>2020-05-31T14:02:24Z</time>
      </trkpt>
      <trkpt lat="46.25588" lon="-0.73834">
        <ele>7.7</ele>
        <time>2020-05-31T14:02:25Z</time>
      </trkpt>
      <trkpt lat="46.25586" lon="-0.7384">
        <ele>7.7</ele>
        <time>2020-05-31T14:02:26Z</time>
      </trkpt>
      <trkpt lat="46.25584" lon="-0.73847">
        <ele>7.6</ele>
        <time>2020-05-31T14:02:27Z</time>
      </trkpt>
      <trkpt lat="46.25582" lon="-0.73853">
        <ele>7.6</ele>
        <time>2020-05-31T14:02:28Z</time>
      </trkpt>
      <trkpt lat="46.2558" lon="-0.7386">
        <ele>7.5</ele>
        <time>2020-05-31T14:02:29Z</time>
      </trkpt>
      <trkpt lat="46.25579" lon="-0.73867">
        <ele>7.5</ele>
        <time>2020-05-31T14:02:30Z</time>
      </trkpt>
      <trkpt lat="46.25578" lon="-0.73874">
        <ele>7.4</ele>
        <time>2020-05-31T14:02:31Z</time>
      </trkpt>
      <trkpt lat="46.25576" lon="-0.73881">
        <ele>7.4</ele>
        <time>2020-05-31T14:02:32Z</time>
      </trkpt>
      <trkpt lat="46.25574" lon="-0.73888">
        <ele>7.3</ele>
        <time>2020-05-31T14:02:33Z</time>
      </trkpt>
      <trkpt lat="46.25571" lon="-0.73894">
        <ele>7.3</ele>
        <time>2020-05-31T14:02:34Z</time>
      </trkpt>
      <trkpt lat="46.25564" lon="-0.73899">
        <ele>7.2</ele>
        <time>2020-05-31T14:02:35Z</time>
      </trkpt>
      <trkpt lat="46.25561" lon="-0.73906">
        <ele>7.2</ele>
        <time>2020-05-31T14:02:36Z</time>
      </trkpt>
      <trkpt lat="46.25559" lon="-0.73913">
        <ele>7.1</ele>
        <time>2020-05-31T14:02:37Z</time>
      </trkpt>
      <trkpt lat="46.25557" lon="-0.7392">
        <ele>7.1</ele>
        <time>2020-05-31T14:02:38Z</time>
      </trkpt>
      <trkpt lat="46.25554" lon="-0.73927">
        <ele>7.1</ele>
        <time>2020-05-31T14:02:39Z</time>
      </trkpt>
      <trkpt lat="46.25552" lon="-0.73934">
        <ele>7</ele>
        <time>2020-05-31T14:02:40Z</time>
      </trkpt>
      <trkpt lat="46.25551" lon="-0.73942">
        <ele>7</ele>
        <time>2020-05-31T14:02:41Z</time>
      </trkpt>
      <trkpt lat="46.25548" lon="-0.73949">
        <ele>7</ele>
        <time>2020-05-31T14:02:42Z</time>
      </trkpt>
      <trkpt lat="46.25546" lon="-0.73956">
        <ele>6.9</ele>
        <time>2020-05-31T14:02:43Z</time>
      </trkpt>
      <trkpt lat="46.25544" lon="-0.73964">
        <ele>6.9</ele>
        <time>2020-05-31T14:02:44Z</time>
      </trkpt>
      <trkpt lat="46.25542" lon="-0.73972">
        <ele>6.9</ele>
        <time>2020-05-31T14:02:45Z</time>
      </trkpt>
      <trkpt lat="46.2554" lon="-0.73979">
        <ele>6.9</ele>
        <time>2020-05-31T14:02:46Z</time>
      </trkpt>
      <trkpt lat="46.25538" lon="-0.73987">
        <ele>6.8</ele>
        <time>2020-05-31T14:02:47Z</time>
      </trkpt>
      <trkpt lat="46.25536" lon="-0.73995">
        <ele>6.8</ele>
        <time>2020-05-31T14:02:48Z</time>
      </trkpt>
      <trkpt lat="46.25533" lon="-0.74003">
        <ele>6.7</ele>
        <time>2020-05-31T14:02:49Z</time>
      </trkpt>
      <trkpt lat="46.25531" lon="-0.7401">
        <ele>6.7</ele>
        <time>2020-05-31T14:02:50Z</time>
      </trkpt>
      <trkpt lat="46.25529" lon="-0.74018">
        <ele>6.6</ele>
        <time>2020-05-31T14:02:51Z</time>
      </trkpt>
      <trkpt lat="46.25527" lon="-0.74025">
        <ele>6.6</ele>
        <time>2020-05-31T14:02:52Z</time>
      </trkpt>
      <trkpt lat="46.25525" lon="-0.74032">
        <ele>6.5</ele>
        <time>2020-05-31T14:02:53Z</time>
      </trkpt>
      <trkpt lat="46.25522" lon="-0.7404">
        <ele>6.5</ele>
        <time>2020-05-31T14:02:54Z</time>
      </trkpt>
      <trkpt lat="46.2552" lon="-0.74047">
        <ele>6.4</ele>
        <time>2020-05-31T14:02:55Z</time>
      </trkpt>
      <trkpt lat="46.25518" lon="-0.74054">
        <ele>6.4</ele>
        <time>2020-05-31T14:02:56Z</time>
      </trkpt>
      <trkpt lat="46.25516" lon="-0.74061">
        <ele>6.4</ele>
        <time>2020-05-31T14:02:57Z</time>
      </trkpt>
      <trkpt lat="46.25514" lon="-0.74069">
        <ele>6.4</ele>
        <time>2020-05-31T14:02:58Z</time>
      </trkpt>
      <trkpt lat="46.25512" lon="-0.74077">
        <ele>6.3</ele>
        <time>2020-05-31T14:02:59Z</time>
      </trkpt>
      <trkpt lat="46.25511" lon="-0.74084">
        <ele>6.3</ele>
        <time>2020-05-31T14:03:00Z</time>
      </trkpt>
      <trkpt lat="46.25509" lon="-0.74092">
        <ele>6.3</ele>
        <time>2020-05-31T14:03:01Z</time>
      </trkpt>
      <trkpt lat="46.25508" lon="-0.741">
        <ele>6.2</ele>
        <time>2020-05-31T14:03:02Z</time>
      </trkpt>
      <trkpt lat="46.25507" lon="-0.74108">
        <ele>6.2</ele>
        <time>2020-05-31T14:03:03Z</time>
      </trkpt>
      <trkpt lat="46.25505" lon="-0.74115">
        <ele>6.2</ele>
        <time>2020-05-31T14:03:04Z</time>
      </trkpt>
      <trkpt lat="46.25503" lon="-0.74122">
        <ele>6.2</ele>
        <time>2020-05-31T14:03:05Z</time>
      </trkpt>
      <trkpt lat="46.25502" lon="-0.7413">
        <ele>6.2</ele>
        <time>2020-05-31T14:03:06Z</time>
      </trkpt>
      <trkpt lat="46.255" lon="-0.74137">
        <ele>6.2</ele>
        <time>2020-05-31T14:03:07Z</time>
      </trkpt>
      <trkpt lat="46.25498" lon="-0.74144">
        <ele>6.2</ele>
        <time>2020-05-31T14:03:08Z</time>
      </trkpt>
      <trkpt lat="46.25496" lon="-0.74151">
        <ele>6.2</ele>
        <time>2020-05-31T14:03:09Z</time>
      </trkpt>
      <trkpt lat="46.25495" lon="-0.74159">
        <ele>6.2</ele>
        <time>2020-05-31T14:03:10Z</time>
      </trkpt>
      <trkpt lat="46.25494" lon="-0.74166">
        <ele>6.1</ele>
        <time>2020-05-31T14:03:11Z</time>
      </trkpt>
      <trkpt lat="46.25493" lon="-0.74173">
        <ele>6.1</ele>
        <time>2020-05-31T14:03:12Z</time>
      </trkpt>
      <trkpt lat="46.25491" lon="-0.7418">
        <ele>6.1</ele>
        <time>2020-05-31T14:03:13Z</time>
      </trkpt>
      <trkpt lat="46.2549" lon="-0.74187">
        <ele>6.1</ele>
        <time>2020-05-31T14:03:14Z</time>
      </trkpt>
      <trkpt lat="46.25484" lon="-0.74194">
        <ele>6.1</ele>
        <time>2020-05-31T14:03:15Z</time>
      </trkpt>
      <trkpt lat="46.25483" lon="-0.74202">
        <ele>6.1</ele>
        <time>2020-05-31T14:03:16Z</time>
      </trkpt>
      <trkpt lat="46.25481" lon="-0.7421">
        <ele>6.1</ele>
        <time>2020-05-31T14:03:17Z</time>
      </trkpt>
      <trkpt lat="46.25479" lon="-0.74218">
        <ele>6</ele>
        <time>2020-05-31T14:03:18Z</time>
      </trkpt>
      <trkpt lat="46.25478" lon="-0.74226">
        <ele>6</ele>
        <time>2020-05-31T14:03:19Z</time>
      </trkpt>
      <trkpt lat="46.25476" lon="-0.74234">
        <ele>5.9</ele>
        <time>2020-05-31T14:03:20Z</time>
      </trkpt>
      <trkpt lat="46.25475" lon="-0.74243">
        <ele>5.9</ele>
        <time>2020-05-31T14:03:21Z</time>
      </trkpt>
      <trkpt lat="46.25472" lon="-0.74251">
        <ele>5.8</ele>
        <time>2020-05-31T14:03:22Z</time>
      </trkpt>
      <trkpt lat="46.25471" lon="-0.74259">
        <ele>5.8</ele>
        <time>2020-05-31T14:03:23Z</time>
      </trkpt>
      <trkpt lat="46.2547" lon="-0.74268">
        <ele>5.7</ele>
        <time>2020-05-31T14:03:24Z</time>
      </trkpt>
      <trkpt lat="46.25468" lon="-0.74277">
        <ele>5.6</ele>
        <time>2020-05-31T14:03:25Z</time>
      </trkpt>
      <trkpt lat="46.25467" lon="-0.74286">
        <ele>5.5</ele>
        <time>2020-05-31T14:03:26Z</time>
      </trkpt>
      <trkpt lat="46.25465" lon="-0.74295">
        <ele>5.4</ele>
        <time>2020-05-31T14:03:27Z</time>
      </trkpt>
      <trkpt lat="46.25464" lon="-0.74303">
        <ele>5.4</ele>
        <time>2020-05-31T14:03:28Z</time>
      </trkpt>
      <trkpt lat="46.25462" lon="-0.74312">
        <ele>5.3</ele>
        <time>2020-05-31T14:03:29Z</time>
      </trkpt>
      <trkpt lat="46.25461" lon="-0.7432">
        <ele>5.2</ele>
        <time>2020-05-31T14:03:30Z</time>
      </trkpt>
      <trkpt lat="46.2546" lon="-0.74327">
        <ele>5.2</ele>
        <time>2020-05-31T14:03:31Z</time>
      </trkpt>
      <trkpt lat="46.25459" lon="-0.74335">
        <ele>5.1</ele>
        <time>2020-05-31T14:03:32Z</time>
      </trkpt>
      <trkpt lat="46.25458" lon="-0.74342">
        <ele>5</ele>
        <time>2020-05-31T14:03:33Z</time>
      </trkpt>
      <trkpt lat="46.25458" lon="-0.74348">
        <ele>5</ele>
        <time>2020-05-31T14:03:34Z</time>
      </trkpt>
      <trkpt lat="46.25455" lon="-0.74354">
        <ele>5</ele>
        <time>2020-05-31T14:03:35Z</time>
      </trkpt>
      <trkpt lat="46.25454" lon="-0.74361">
        <ele>4.9</ele>
        <time>2020-05-31T14:03:36Z</time>
      </trkpt>
      <trkpt lat="46.25453" lon="-0.74368">
        <ele>4.9</ele>
        <time>2020-05-31T14:03:37Z</time>
      </trkpt>
      <trkpt lat="46.25452" lon="-0.74376">
        <ele>4.9</ele>
        <time>2020-05-31T14:03:38Z</time>
      </trkpt>
      <trkpt lat="46.2545" lon="-0.74385">
        <ele>4.9</ele>
        <time>2020-05-31T14:03:39Z</time>
      </trkpt>
      <trkpt lat="46.25448" lon="-0.74393">
        <ele>4.9</ele>
        <time>2020-05-31T14:03:40Z</time>
      </trkpt>
      <trkpt lat="46.25447" lon="-0.74402">
        <ele>4.9</ele>
        <time>2020-05-31T14:03:41Z</time>
      </trkpt>
      <trkpt lat="46.25446" lon="-0.7441">
        <ele>4.8</ele>
        <time>2020-05-31T14:03:42Z</time>
      </trkpt>
      <trkpt lat="46.25444" lon="-0.74419">
        <ele>4.8</ele>
        <time>2020-05-31T14:03:43Z</time>
      </trkpt>
      <trkpt lat="46.25442" lon="-0.74427">
        <ele>4.7</ele>
        <time>2020-05-31T14:03:44Z</time>
      </trkpt>
      <trkpt lat="46.25441" lon="-0.74436">
        <ele>4.6</ele>
        <time>2020-05-31T14:03:45Z</time>
      </trkpt>
      <trkpt lat="46.25439" lon="-0.74445">
        <ele>4.6</ele>
        <time>2020-05-31T14:03:46Z</time>
      </trkpt>
      <trkpt lat="46.25438" lon="-0.74454">
        <ele>4.5</ele>
        <time>2020-05-31T14:03:47Z</time>
      </trkpt>
      <trkpt lat="46.25436" lon="-0.74462">
        <ele>4.5</ele>
        <time>2020-05-31T14:03:48Z</time>
      </trkpt>
      <trkpt lat="46.25436" lon="-0.74471">
        <ele>4.5</ele>
        <time>2020-05-31T14:03:49Z</time>
      </trkpt>
      <trkpt lat="46.25434" lon="-0.74481">
        <ele>4.4</ele>
        <time>2020-05-31T14:03:50Z</time>
      </trkpt>
      <trkpt lat="46.25433" lon="-0.7449">
        <ele>4.4</ele>
        <time>2020-05-31T14:03:51Z</time>
      </trkpt>
      <trkpt lat="46.25432" lon="-0.74498">
        <ele>4.5</ele>
        <time>2020-05-31T14:03:52Z</time>
      </trkpt>
      <trkpt lat="46.25431" lon="-0.74506">
        <ele>4.5</ele>
        <time>2020-05-31T14:03:53Z</time>
      </trkpt>
      <trkpt lat="46.2543" lon="-0.74513">
        <ele>4.5</ele>
        <time>2020-05-31T14:03:54Z</time>
      </trkpt>
      <trkpt lat="46.25429" lon="-0.74522">
        <ele>4.6</ele>
        <time>2020-05-31T14:03:55Z</time>
      </trkpt>
      <trkpt lat="46.25428" lon="-0.7453">
        <ele>4.6</ele>
        <time>2020-05-31T14:03:56Z</time>
      </trkpt>
      <trkpt lat="46.25427" lon="-0.74539">
        <ele>4.7</ele>
        <time>2020-05-31T14:03:57Z</time>
      </trkpt>
      <trkpt lat="46.25425" lon="-0.74547">
        <ele>4.7</ele>
        <time>2020-05-31T14:03:58Z</time>
      </trkpt>
      <trkpt lat="46.25424" lon="-0.74556">
        <ele>4.7</ele>
        <time>2020-05-31T14:03:59Z</time>
      </trkpt>
      <trkpt lat="46.25423" lon="-0.74564">
        <ele>4.7</ele>
        <time>2020-05-31T14:04:00Z</time>
      </trkpt>
      <trkpt lat="46.25422" lon="-0.74572">
        <ele>4.7</ele>
        <time>2020-05-31T14:04:01Z</time>
      </trkpt>
      <trkpt lat="46.25421" lon="-0.74581">
        <ele>4.7</ele>
        <time>2020-05-31T14:04:02Z</time>
      </trkpt>
      <trkpt lat="46.2542" lon="-0.7459">
        <ele>4.7</ele>
        <time>2020-05-31T14:04:03Z</time>
      </trkpt>
      <trkpt lat="46.25419" lon="-0.74598">
        <ele>4.7</ele>
        <time>2020-05-31T14:04:04Z</time>
      </trkpt>
      <trkpt lat="46.25417" lon="-0.74607">
        <ele>4.6</ele>
        <time>2020-05-31T14:04:05Z</time>
      </trkpt>
      <trkpt lat="46.25416" lon="-0.74615">
        <ele>4.6</ele>
        <time>2020-05-31T14:04:06Z</time>
      </trkpt>
      <trkpt lat="46.25415" lon="-0.74624">
        <ele>4.6</ele>
        <time>2020-05-31T14:04:07Z</time>
      </trkpt>
      <trkpt lat="46.25414" lon="-0.74633">
        <ele>4.6</ele>
        <time>2020-05-31T14:04:08Z</time>
      </trkpt>
      <trkpt lat="46.25413" lon="-0.74642">
        <ele>4.6</ele>
        <time>2020-05-31T14:04:09Z</time>
      </trkpt>
      <trkpt lat="46.25411" lon="-0.7465">
        <ele>4.6</ele>
        <time>2020-05-31T14:04:10Z</time>
      </trkpt>
      <trkpt lat="46.25411" lon="-0.74659">
        <ele>4.6</ele>
        <time>2020-05-31T14:04:11Z</time>
      </trkpt>
      <trkpt lat="46.2541" lon="-0.74667">
        <ele>4.5</ele>
        <time>2020-05-31T14:04:12Z</time>
      </trkpt>
      <trkpt lat="46.25408" lon="-0.74675">
        <ele>4.5</ele>
        <time>2020-05-31T14:04:13Z</time>
      </trkpt>
      <trkpt lat="46.25407" lon="-0.74683">
        <ele>4.5</ele>
        <time>2020-05-31T14:04:14Z</time>
      </trkpt>
      <trkpt lat="46.25406" lon="-0.74691">
        <ele>4.5</ele>
        <time>2020-05-31T14:04:15Z</time>
      </trkpt>
      <trkpt lat="46.25404" lon="-0.747">
        <ele>4.5</ele>
        <time>2020-05-31T14:04:16Z</time>
      </trkpt>
      <trkpt lat="46.25403" lon="-0.74708">
        <ele>4.5</ele>
        <time>2020-05-31T14:04:17Z</time>
      </trkpt>
      <trkpt lat="46.25402" lon="-0.74717">
        <ele>4.5</ele>
        <time>2020-05-31T14:04:18Z</time>
      </trkpt>
      <trkpt lat="46.254" lon="-0.74725">
        <ele>4.5</ele>
        <time>2020-05-31T14:04:19Z</time>
      </trkpt>
      <trkpt lat="46.25399" lon="-0.74734">
        <ele>4.5</ele>
        <time>2020-05-31T14:04:20Z</time>
      </trkpt>
      <trkpt lat="46.25398" lon="-0.74742">
        <ele>4.5</ele>
        <time>2020-05-31T14:04:21Z</time>
      </trkpt>
      <trkpt lat="46.25397" lon="-0.74751">
        <ele>4.5</ele>
        <time>2020-05-31T14:04:22Z</time>
      </trkpt>
      <trkpt lat="46.25395" lon="-0.74758">
        <ele>4.5</ele>
        <time>2020-05-31T14:04:23Z</time>
      </trkpt>
      <trkpt lat="46.25394" lon="-0.74766">
        <ele>4.5</ele>
        <time>2020-05-31T14:04:24Z</time>
      </trkpt>
      <trkpt lat="46.25393" lon="-0.74775">
        <ele>4.6</ele>
        <time>2020-05-31T14:04:25Z</time>
      </trkpt>
      <trkpt lat="46.25392" lon="-0.74783">
        <ele>4.6</ele>
        <time>2020-05-31T14:04:26Z</time>
      </trkpt>
      <trkpt lat="46.25391" lon="-0.74792">
        <ele>4.6</ele>
        <time>2020-05-31T14:04:27Z</time>
      </trkpt>
      <trkpt lat="46.25389" lon="-0.74802">
        <ele>4.6</ele>
        <time>2020-05-31T14:04:28Z</time>
      </trkpt>
      <trkpt lat="46.25388" lon="-0.7481">
        <ele>4.6</ele>
        <time>2020-05-31T14:04:29Z</time>
      </trkpt>
      <trkpt lat="46.25387" lon="-0.74818">
        <ele>4.6</ele>
        <time>2020-05-31T14:04:30Z</time>
      </trkpt>
      <trkpt lat="46.25386" lon="-0.74826">
        <ele>4.7</ele>
        <time>2020-05-31T14:04:31Z</time>
      </trkpt>
      <trkpt lat="46.25385" lon="-0.74834">
        <ele>4.7</ele>
        <time>2020-05-31T14:04:32Z</time>
      </trkpt>
      <trkpt lat="46.25384" lon="-0.74841">
        <ele>4.7</ele>
        <time>2020-05-31T14:04:33Z</time>
      </trkpt>
      <trkpt lat="46.25383" lon="-0.74848">
        <ele>4.7</ele>
        <time>2020-05-31T14:04:34Z</time>
      </trkpt>
      <trkpt lat="46.25383" lon="-0.74855">
        <ele>4.7</ele>
        <time>2020-05-31T14:04:35Z</time>
      </trkpt>
      <trkpt lat="46.25381" lon="-0.74863">
        <ele>4.7</ele>
        <time>2020-05-31T14:04:36Z</time>
      </trkpt>
      <trkpt lat="46.25379" lon="-0.7487">
        <ele>4.7</ele>
        <time>2020-05-31T14:04:37Z</time>
      </trkpt>
      <trkpt lat="46.25377" lon="-0.74877">
        <ele>4.7</ele>
        <time>2020-05-31T14:04:38Z</time>
      </trkpt>
      <trkpt lat="46.25377" lon="-0.74885">
        <ele>4.7</ele>
        <time>2020-05-31T14:04:39Z</time>
      </trkpt>
      <trkpt lat="46.2537" lon="-0.74891">
        <ele>4.8</ele>
        <time>2020-05-31T14:04:40Z</time>
      </trkpt>
      <trkpt lat="46.25369" lon="-0.74898">
        <ele>4.8</ele>
        <time>2020-05-31T14:04:41Z</time>
      </trkpt>
      <trkpt lat="46.25368" lon="-0.74905">
        <ele>4.8</ele>
        <time>2020-05-31T14:04:42Z</time>
      </trkpt>
      <trkpt lat="46.25368" lon="-0.74912">
        <ele>4.8</ele>
        <time>2020-05-31T14:04:43Z</time>
      </trkpt>
      <trkpt lat="46.25366" lon="-0.7492">
        <ele>4.8</ele>
        <time>2020-05-31T14:04:44Z</time>
      </trkpt>
      <trkpt lat="46.25365" lon="-0.74928">
        <ele>4.8</ele>
        <time>2020-05-31T14:04:45Z</time>
      </trkpt>
      <trkpt lat="46.25364" lon="-0.74935">
        <ele>4.8</ele>
        <time>2020-05-31T14:04:46Z</time>
      </trkpt>
      <trkpt lat="46.25363" lon="-0.74943">
        <ele>4.8</ele>
        <time>2020-05-31T14:04:47Z</time>
      </trkpt>
      <trkpt lat="46.25362" lon="-0.74951">
        <ele>4.9</ele>
        <time>2020-05-31T14:04:48Z</time>
      </trkpt>
      <trkpt lat="46.25361" lon="-0.74959">
        <ele>4.9</ele>
        <time>2020-05-31T14:04:49Z</time>
      </trkpt>
      <trkpt lat="46.2536" lon="-0.74967">
        <ele>4.9</ele>
        <time>2020-05-31T14:04:50Z</time>
      </trkpt>
      <trkpt lat="46.25358" lon="-0.74975">
        <ele>4.9</ele>
        <time>2020-05-31T14:04:51Z</time>
      </trkpt>
      <trkpt lat="46.25357" lon="-0.74982">
        <ele>4.9</ele>
        <time>2020-05-31T14:04:52Z</time>
      </trkpt>
      <trkpt lat="46.25355" lon="-0.74991">
        <ele>4.9</ele>
        <time>2020-05-31T14:04:53Z</time>
      </trkpt>
      <trkpt lat="46.25354" lon="-0.75">
        <ele>4.9</ele>
        <time>2020-05-31T14:04:54Z</time>
      </trkpt>
      <trkpt lat="46.25353" lon="-0.75009">
        <ele>5</ele>
        <time>2020-05-31T14:04:55Z</time>
      </trkpt>
      <trkpt lat="46.25352" lon="-0.75017">
        <ele>5</ele>
        <time>2020-05-31T14:04:56Z</time>
      </trkpt>
      <trkpt lat="46.25351" lon="-0.75025">
        <ele>5</ele>
        <time>2020-05-31T14:04:57Z</time>
      </trkpt>
      <trkpt lat="46.25349" lon="-0.75033">
        <ele>5</ele>
        <time>2020-05-31T14:04:58Z</time>
      </trkpt>
      <trkpt lat="46.25348" lon="-0.75042">
        <ele>5</ele>
        <time>2020-05-31T14:04:59Z</time>
      </trkpt>
      <trkpt lat="46.25346" lon="-0.75051">
        <ele>5</ele>
        <time>2020-05-31T14:05:00Z</time>
      </trkpt>
      <trkpt lat="46.25345" lon="-0.7506">
        <ele>5.1</ele>
        <time>2020-05-31T14:05:01Z</time>
      </trkpt>
      <trkpt lat="46.25344" lon="-0.75069">
        <ele>5.1</ele>
        <time>2020-05-31T14:05:02Z</time>
      </trkpt>
      <trkpt lat="46.25342" lon="-0.75077">
        <ele>5.1</ele>
        <time>2020-05-31T14:05:03Z</time>
      </trkpt>
      <trkpt lat="46.25341" lon="-0.75085">
        <ele>5.1</ele>
        <time>2020-05-31T14:05:04Z</time>
      </trkpt>
      <trkpt lat="46.2534" lon="-0.75093">
        <ele>5.1</ele>
        <time>2020-05-31T14:05:05Z</time>
      </trkpt>
      <trkpt lat="46.25339" lon="-0.75101">
        <ele>5.1</ele>
        <time>2020-05-31T14:05:06Z</time>
      </trkpt>
      <trkpt lat="46.25337" lon="-0.75108">
        <ele>5.2</ele>
        <time>2020-05-31T14:05:07Z</time>
      </trkpt>
      <trkpt lat="46.25337" lon="-0.75116">
        <ele>5.2</ele>
        <time>2020-05-31T14:05:08Z</time>
      </trkpt>
      <trkpt lat="46.25335" lon="-0.75123">
        <ele>5.2</ele>
        <time>2020-05-31T14:05:09Z</time>
      </trkpt>
      <trkpt lat="46.25334" lon="-0.7513">
        <ele>5.2</ele>
        <time>2020-05-31T14:05:10Z</time>
      </trkpt>
      <trkpt lat="46.25333" lon="-0.75137">
        <ele>5.2</ele>
        <time>2020-05-31T14:05:11Z</time>
      </trkpt>
      <trkpt lat="46.25332" lon="-0.75143">
        <ele>5.2</ele>
        <time>2020-05-31T14:05:12Z</time>
      </trkpt>
      <trkpt lat="46.25331" lon="-0.7515">
        <ele>5.2</ele>
        <time>2020-05-31T14:05:13Z</time>
      </trkpt>
      <trkpt lat="46.25331" lon="-0.75156">
        <ele>5.2</ele>
        <time>2020-05-31T14:05:14Z</time>
      </trkpt>
      <trkpt lat="46.25329" lon="-0.75163">
        <ele>5.2</ele>
        <time>2020-05-31T14:05:15Z</time>
      </trkpt>
      <trkpt lat="46.25327" lon="-0.75171">
        <ele>5.3</ele>
        <time>2020-05-31T14:05:16Z</time>
      </trkpt>
      <trkpt lat="46.25327" lon="-0.75179">
        <ele>5.3</ele>
        <time>2020-05-31T14:05:17Z</time>
      </trkpt>
      <trkpt lat="46.25326" lon="-0.75186">
        <ele>5.2</ele>
        <time>2020-05-31T14:05:18Z</time>
      </trkpt>
      <trkpt lat="46.25326" lon="-0.75193">
        <ele>5.2</ele>
        <time>2020-05-31T14:05:19Z</time>
      </trkpt>
      <trkpt lat="46.25325" lon="-0.752">
        <ele>5.2</ele>
        <time>2020-05-31T14:05:20Z</time>
      </trkpt>
      <trkpt lat="46.25325" lon="-0.75207">
        <ele>5.2</ele>
        <time>2020-05-31T14:05:21Z</time>
      </trkpt>
      <trkpt lat="46.25324" lon="-0.75213">
        <ele>5.2</ele>
        <time>2020-05-31T14:05:22Z</time>
      </trkpt>
      <trkpt lat="46.25324" lon="-0.7522">
        <ele>5.2</ele>
        <time>2020-05-31T14:05:23Z</time>
      </trkpt>
      <trkpt lat="46.25323" lon="-0.75226">
        <ele>5.2</ele>
        <time>2020-05-31T14:05:24Z</time>
      </trkpt>
      <trkpt lat="46.25322" lon="-0.75232">
        <ele>5.1</ele>
        <time>2020-05-31T14:05:25Z</time>
      </trkpt>
      <trkpt lat="46.2532" lon="-0.75238">
        <ele>5.1</ele>
        <time>2020-05-31T14:05:26Z</time>
      </trkpt>
      <trkpt lat="46.25316" lon="-0.75244">
        <ele>5.1</ele>
        <time>2020-05-31T14:05:27Z</time>
      </trkpt>
      <trkpt lat="46.25315" lon="-0.7525">
        <ele>5.1</ele>
        <time>2020-05-31T14:05:28Z</time>
      </trkpt>
      <trkpt lat="46.25314" lon="-0.75257">
        <ele>5.1</ele>
        <time>2020-05-31T14:05:29Z</time>
      </trkpt>
      <trkpt lat="46.25314" lon="-0.75265">
        <ele>5.1</ele>
        <time>2020-05-31T14:05:30Z</time>
      </trkpt>
      <trkpt lat="46.25314" lon="-0.75273">
        <ele>5.1</ele>
        <time>2020-05-31T14:05:31Z</time>
      </trkpt>
      <trkpt lat="46.25313" lon="-0.7528">
        <ele>5.1</ele>
        <time>2020-05-31T14:05:32Z</time>
      </trkpt>
      <trkpt lat="46.25311" lon="-0.75286">
        <ele>5.1</ele>
        <time>2020-05-31T14:05:33Z</time>
      </trkpt>
      <trkpt lat="46.2531" lon="-0.75293">
        <ele>5.2</ele>
        <time>2020-05-31T14:05:34Z</time>
      </trkpt>
      <trkpt lat="46.25308" lon="-0.75299">
        <ele>5.2</ele>
        <time>2020-05-31T14:05:35Z</time>
      </trkpt>
      <trkpt lat="46.25307" lon="-0.75305">
        <ele>5.3</ele>
        <time>2020-05-31T14:05:36Z</time>
      </trkpt>
      <trkpt lat="46.25306" lon="-0.75313">
        <ele>5.3</ele>
        <time>2020-05-31T14:05:37Z</time>
      </trkpt>
      <trkpt lat="46.25305" lon="-0.7532">
        <ele>5.4</ele>
        <time>2020-05-31T14:05:38Z</time>
      </trkpt>
      <trkpt lat="46.25304" lon="-0.75327">
        <ele>5.5</ele>
        <time>2020-05-31T14:05:39Z</time>
      </trkpt>
      <trkpt lat="46.25303" lon="-0.75334">
        <ele>5.5</ele>
        <time>2020-05-31T14:05:40Z</time>
      </trkpt>
      <trkpt lat="46.25301" lon="-0.75342">
        <ele>5.6</ele>
        <time>2020-05-31T14:05:41Z</time>
      </trkpt>
      <trkpt lat="46.253" lon="-0.75349">
        <ele>5.7</ele>
        <time>2020-05-31T14:05:42Z</time>
      </trkpt>
      <trkpt lat="46.25299" lon="-0.75355">
        <ele>5.7</ele>
        <time>2020-05-31T14:05:43Z</time>
      </trkpt>
      <trkpt lat="46.25298" lon="-0.75362">
        <ele>5.8</ele>
        <time>2020-05-31T14:05:44Z</time>
      </trkpt>
      <trkpt lat="46.25296" lon="-0.7537">
        <ele>5.9</ele>
        <time>2020-05-31T14:05:45Z</time>
      </trkpt>
      <trkpt lat="46.25295" lon="-0.75379">
        <ele>6.1</ele>
        <time>2020-05-31T14:05:46Z</time>
      </trkpt>
      <trkpt lat="46.25293" lon="-0.7539">
        <ele>6.2</ele>
        <time>2020-05-31T14:05:47Z</time>
      </trkpt>
      <trkpt lat="46.25291" lon="-0.75399">
        <ele>6.4</ele>
        <time>2020-05-31T14:05:48Z</time>
      </trkpt>
      <trkpt lat="46.25289" lon="-0.7541">
        <ele>6.5</ele>
        <time>2020-05-31T14:05:49Z</time>
      </trkpt>
      <trkpt lat="46.25287" lon="-0.75422">
        <ele>6.6</ele>
        <time>2020-05-31T14:05:50Z</time>
      </trkpt>
      <trkpt lat="46.25285" lon="-0.75431">
        <ele>6.7</ele>
        <time>2020-05-31T14:05:51Z</time>
      </trkpt>
      <trkpt lat="46.25284" lon="-0.75437">
        <ele>6.7</ele>
        <time>2020-05-31T14:05:52Z</time>
      </trkpt>
      <trkpt lat="46.25282" lon="-0.75445">
        <ele>6.8</ele>
        <time>2020-05-31T14:05:53Z</time>
      </trkpt>
      <trkpt lat="46.25281" lon="-0.75452">
        <ele>6.8</ele>
        <time>2020-05-31T14:05:54Z</time>
      </trkpt>
      <trkpt lat="46.2528" lon="-0.7546">
        <ele>6.8</ele>
        <time>2020-05-31T14:05:55Z</time>
      </trkpt>
      <trkpt lat="46.25278" lon="-0.75467">
        <ele>6.9</ele>
        <time>2020-05-31T14:05:56Z</time>
      </trkpt>
      <trkpt lat="46.25278" lon="-0.75475">
        <ele>6.9</ele>
        <time>2020-05-31T14:05:57Z</time>
      </trkpt>
      <trkpt lat="46.25277" lon="-0.75481">
        <ele>6.9</ele>
        <time>2020-05-31T14:05:58Z</time>
      </trkpt>
      <trkpt lat="46.25276" lon="-0.75487">
        <ele>6.9</ele>
        <time>2020-05-31T14:05:59Z</time>
      </trkpt>
      <trkpt lat="46.25275" lon="-0.75493">
        <ele>6.8</ele>
        <time>2020-05-31T14:06:00Z</time>
      </trkpt>
      <trkpt lat="46.25274" lon="-0.75497">
        <ele>6.8</ele>
        <time>2020-05-31T14:06:01Z</time>
      </trkpt>
      <trkpt lat="46.25272" lon="-0.75503">
        <ele>6.7</ele>
        <time>2020-05-31T14:06:02Z</time>
      </trkpt>
      <trkpt lat="46.25271" lon="-0.75508">
        <ele>6.7</ele>
        <time>2020-05-31T14:06:03Z</time>
      </trkpt>
      <trkpt lat="46.25269" lon="-0.75515">
        <ele>6.7</ele>
        <time>2020-05-31T14:06:04Z</time>
      </trkpt>
      <trkpt lat="46.25269" lon="-0.75521">
        <ele>6.7</ele>
        <time>2020-05-31T14:06:05Z</time>
      </trkpt>
      <trkpt lat="46.25268" lon="-0.75527">
        <ele>6.6</ele>
        <time>2020-05-31T14:06:06Z</time>
      </trkpt>
      <trkpt lat="46.25268" lon="-0.75535">
        <ele>6.6</ele>
        <time>2020-05-31T14:06:07Z</time>
      </trkpt>
      <trkpt lat="46.25267" lon="-0.75543">
        <ele>6.5</ele>
        <time>2020-05-31T14:06:08Z</time>
      </trkpt>
      <trkpt lat="46.25267" lon="-0.75551">
        <ele>6.4</ele>
        <time>2020-05-31T14:06:09Z</time>
      </trkpt>
      <trkpt lat="46.25265" lon="-0.75559">
        <ele>6.3</ele>
        <time>2020-05-31T14:06:10Z</time>
      </trkpt>
      <trkpt lat="46.25265" lon="-0.75564">
        <ele>6.2</ele>
        <time>2020-05-31T14:06:11Z</time>
      </trkpt>
      <trkpt lat="46.25263" lon="-0.75567">
        <ele>6.2</ele>
        <time>2020-05-31T14:06:12Z</time>
      </trkpt>
      <trkpt lat="46.25261" lon="-0.75568">
        <ele>6.2</ele>
        <time>2020-05-31T14:06:13Z</time>
      </trkpt>
      <trkpt lat="46.25258" lon="-0.75568">
        <ele>6.2</ele>
        <time>2020-05-31T14:06:14Z</time>
      </trkpt>
      <trkpt lat="46.25253" lon="-0.75566">
        <ele>6.2</ele>
        <time>2020-05-31T14:06:15Z</time>
      </trkpt>
      <trkpt lat="46.2525" lon="-0.75565">
        <ele>6.2</ele>
        <time>2020-05-31T14:06:16Z</time>
      </trkpt>
      <trkpt lat="46.25247" lon="-0.75562">
        <ele>6.2</ele>
        <time>2020-05-31T14:06:17Z</time>
      </trkpt>
      <trkpt lat="46.25245" lon="-0.75557">
        <ele>6.3</ele>
        <time>2020-05-31T14:06:18Z</time>
      </trkpt>
      <trkpt lat="46.25243" lon="-0.75554">
        <ele>6.3</ele>
        <time>2020-05-31T14:06:19Z</time>
      </trkpt>
      <trkpt lat="46.25241" lon="-0.75551">
        <ele>6.3</ele>
        <time>2020-05-31T14:06:20Z</time>
      </trkpt>
      <trkpt lat="46.25239" lon="-0.75549">
        <ele>6.3</ele>
        <time>2020-05-31T14:06:21Z</time>
      </trkpt>
      <trkpt lat="46.25236" lon="-0.75544">
        <ele>6.3</ele>
        <time>2020-05-31T14:06:22Z</time>
      </trkpt>
      <trkpt lat="46.25233" lon="-0.7554">
        <ele>6.3</ele>
        <time>2020-05-31T14:06:23Z</time>
      </trkpt>
      <trkpt lat="46.2523" lon="-0.75537">
        <ele>6.3</ele>
        <time>2020-05-31T14:06:24Z</time>
      </trkpt>
      <trkpt lat="46.25227" lon="-0.75534">
        <ele>6.3</ele>
        <time>2020-05-31T14:06:25Z</time>
      </trkpt>
      <trkpt lat="46.25225" lon="-0.7553">
        <ele>6.3</ele>
        <time>2020-05-31T14:06:26Z</time>
      </trkpt>
      <trkpt lat="46.25225" lon="-0.75528">
        <ele>6.3</ele>
        <time>2020-05-31T14:06:27Z</time>
      </trkpt>
      <trkpt lat="46.25224" lon="-0.75523">
        <ele>6.3</ele>
        <time>2020-05-31T14:06:28Z</time>
      </trkpt>
      <trkpt lat="46.25223" lon="-0.75522">
        <ele>6.3</ele>
        <time>2020-05-31T14:06:29Z</time>
      </trkpt>
      <trkpt lat="46.25222" lon="-0.75517">
        <ele>6.3</ele>
        <time>2020-05-31T14:06:30Z</time>
      </trkpt>
      <trkpt lat="46.25222" lon="-0.75516">
        <ele>6.3</ele>
        <time>2020-05-31T14:06:31Z</time>
      </trkpt>
      <trkpt lat="46.25221" lon="-0.7551">
        <ele>6.2</ele>
        <time>2020-05-31T14:06:32Z</time>
      </trkpt>
      <trkpt lat="46.25221" lon="-0.75508">
        <ele>6.2</ele>
        <time>2020-05-31T14:06:33Z</time>
      </trkpt>
      <trkpt lat="46.2522" lon="-0.75504">
        <ele>6.2</ele>
        <time>2020-05-31T14:06:34Z</time>
      </trkpt>
      <trkpt lat="46.2522" lon="-0.75502">
        <ele>6.2</ele>
        <time>2020-05-31T14:06:35Z</time>
      </trkpt>
      <trkpt lat="46.2522" lon="-0.75498">
        <ele>6.2</ele>
        <time>2020-05-31T14:06:36Z</time>
      </trkpt>
      <trkpt lat="46.2522" lon="-0.75496">
        <ele>6.1</ele>
        <time>2020-05-31T14:06:37Z</time>
      </trkpt>
      <trkpt lat="46.25219" lon="-0.75492">
        <ele>6.1</ele>
        <time>2020-05-31T14:06:38Z</time>
      </trkpt>
      <trkpt lat="46.25218" lon="-0.75487">
        <ele>6.1</ele>
        <time>2020-05-31T14:06:39Z</time>
      </trkpt>
      <trkpt lat="46.25218" lon="-0.75485">
        <ele>6.1</ele>
        <time>2020-05-31T14:06:40Z</time>
      </trkpt>
      <trkpt lat="46.25217" lon="-0.75482">
        <ele>6</ele>
        <time>2020-05-31T14:06:41Z</time>
      </trkpt>
      <trkpt lat="46.25217" lon="-0.7548">
        <ele>6</ele>
        <time>2020-05-31T14:06:42Z</time>
      </trkpt>
      <trkpt lat="46.25215" lon="-0.75475">
        <ele>6</ele>
        <time>2020-05-31T14:06:43Z</time>
      </trkpt>
      <trkpt lat="46.25214" lon="-0.75474">
        <ele>6</ele>
        <time>2020-05-31T14:06:44Z</time>
      </trkpt>
      <trkpt lat="46.25213" lon="-0.7547">
        <ele>5.9</ele>
        <time>2020-05-31T14:06:45Z</time>
      </trkpt>
      <trkpt lat="46.25213" lon="-0.75469">
        <ele>5.9</ele>
        <time>2020-05-31T14:06:46Z</time>
      </trkpt>
      <trkpt lat="46.25212" lon="-0.75466">
        <ele>5.9</ele>
        <time>2020-05-31T14:06:47Z</time>
      </trkpt>
      <trkpt lat="46.25212" lon="-0.75465">
        <ele>5.9</ele>
        <time>2020-05-31T14:06:48Z</time>
      </trkpt>
      <trkpt lat="46.25212" lon="-0.75464">
        <ele>5.9</ele>
        <time>2020-05-31T14:06:49Z</time>
      </trkpt>
      <trkpt lat="46.25211" lon="-0.75463">
        <ele>5.9</ele>
        <time>2020-05-31T14:06:50Z</time>
      </trkpt>
      <trkpt lat="46.25211" lon="-0.75462">
        <ele>5.9</ele>
        <time>2020-05-31T14:06:51Z</time>
      </trkpt>
      <trkpt lat="46.2521" lon="-0.75462">
        <ele>5.9</ele>
        <time>2020-05-31T14:06:52Z</time>
      </trkpt>
      <trkpt lat="46.2521" lon="-0.75462">
        <ele>5.9</ele>
        <time>2020-05-31T14:06:53Z</time>
      </trkpt>
      <trkpt lat="46.2521" lon="-0.75462">
        <ele>5.9</ele>
        <time>2020-05-31T14:06:54Z</time>
      </trkpt>
      <trkpt lat="46.2521" lon="-0.75462">
        <ele>5.9</ele>
        <time>2020-05-31T14:06:55Z</time>
      </trkpt>
      <trkpt lat="46.2521" lon="-0.75462">
        <ele>5.9</ele>
        <time>2020-05-31T14:06:56Z</time>
      </trkpt>
      <trkpt lat="46.2521" lon="-0.75462">
        <ele>5.9</ele>
        <time>2020-05-31T14:06:57Z</time>
      </trkpt>
      <trkpt lat="46.2521" lon="-0.75462">
        <ele>5.9</ele>
        <time>2020-05-31T14:06:58Z</time>
      </trkpt>
      <trkpt lat="46.2521" lon="-0.75463">
        <ele>5.9</ele>
        <time>2020-05-31T14:06:59Z</time>
      </trkpt>
      <trkpt lat="46.25209" lon="-0.75465">
        <ele>5.9</ele>
        <time>2020-05-31T14:07:00Z</time>
      </trkpt>
      <trkpt lat="46.25209" lon="-0.75466">
        <ele>5.9</ele>
        <time>2020-05-31T14:07:01Z</time>
      </trkpt>
      <trkpt lat="46.25209" lon="-0.75467">
        <ele>5.9</ele>
        <time>2020-05-31T14:07:02Z</time>
      </trkpt>
      <trkpt lat="46.25209" lon="-0.75466">
        <ele>5.9</ele>
        <time>2020-05-31T14:07:03Z</time>
      </trkpt>
      <trkpt lat="46.25209" lon="-0.75467">
        <ele>5.9</ele>
        <time>2020-05-31T14:07:04Z</time>
      </trkpt>
      <trkpt lat="46.25209" lon="-0.75467">
        <ele>5.9</ele>
        <time>2020-05-31T14:07:05Z</time>
      </trkpt>
      <trkpt lat="46.25208" lon="-0.75467">
        <ele>5.9</ele>
        <time>2020-05-31T14:07:06Z</time>
      </trkpt>
      <trkpt lat="46.25208" lon="-0.75467">
        <ele>5.9</ele>
        <time>2020-05-31T14:07:07Z</time>
      </trkpt>
      <trkpt lat="46.25208" lon="-0.75467">
        <ele>5.9</ele>
        <time>2020-05-31T14:07:08Z</time>
      </trkpt>
      <trkpt lat="46.25208" lon="-0.75466">
        <ele>5.9</ele>
        <time>2020-05-31T14:07:09Z</time>
      </trkpt>
      <trkpt lat="46.25208" lon="-0.75466">
        <ele>5.9</ele>
        <time>2020-05-31T14:07:10Z</time>
      </trkpt>
      <trkpt lat="46.25208" lon="-0.75466">
        <ele>5.9</ele>
        <time>2020-05-31T14:07:11Z</time>
      </trkpt>
      <trkpt lat="46.25208" lon="-0.75466">
        <ele>5.9</ele>
        <time>2020-05-31T14:07:12Z</time>
      </trkpt>
      <trkpt lat="46.25208" lon="-0.75466">
        <ele>5.9</ele>
        <time>2020-05-31T14:07:13Z</time>
      </trkpt>
      <trkpt lat="46.25208" lon="-0.75465">
        <ele>5.9</ele>
        <time>2020-05-31T14:07:14Z</time>
      </trkpt>
      <trkpt lat="46.25208" lon="-0.75465">
        <ele>5.9</ele>
        <time>2020-05-31T14:07:15Z</time>
      </trkpt>
      <trkpt lat="46.25208" lon="-0.75465">
        <ele>5.9</ele>
        <time>2020-05-31T14:07:16Z</time>
      </trkpt>
      <trkpt lat="46.25209" lon="-0.75465">
        <ele>5.9</ele>
        <time>2020-05-31T14:07:17Z</time>
      </trkpt>
      <trkpt lat="46.25209" lon="-0.75465">
        <ele>5.9</ele>
        <time>2020-05-31T14:07:18Z</time>
      </trkpt>
      <trkpt lat="46.25209" lon="-0.75467">
        <ele>5.9</ele>
        <time>2020-05-31T14:07:19Z</time>
      </trkpt>
      <trkpt lat="46.25209" lon="-0.75467">
        <ele>5.9</ele>
        <time>2020-05-31T14:07:20Z</time>
      </trkpt>
      <trkpt lat="46.2521" lon="-0.75467">
        <ele>5.9</ele>
        <time>2020-05-31T14:07:21Z</time>
      </trkpt>
      <trkpt lat="46.25209" lon="-0.75467">
        <ele>5.9</ele>
        <time>2020-05-31T14:07:22Z</time>
      </trkpt>
      <trkpt lat="46.25209" lon="-0.75465">
        <ele>5.9</ele>
        <time>2020-05-31T14:07:23Z</time>
      </trkpt>
      <trkpt lat="46.25209" lon="-0.75465">
        <ele>5.9</ele>
        <time>2020-05-31T14:07:24Z</time>
      </trkpt>
      <trkpt lat="46.2521" lon="-0.75464">
        <ele>5.9</ele>
        <time>2020-05-31T14:07:25Z</time>
      </trkpt>
      <trkpt lat="46.2521" lon="-0.75463">
        <ele>5.9</ele>
        <time>2020-05-31T14:07:26Z</time>
      </trkpt>
      <trkpt lat="46.2521" lon="-0.75463">
        <ele>5.9</ele>
        <time>2020-05-31T14:07:27Z</time>
      </trkpt>
      <trkpt lat="46.25211" lon="-0.75463">
        <ele>5.9</ele>
        <time>2020-05-31T14:07:28Z</time>
      </trkpt>
      <trkpt lat="46.25212" lon="-0.75464">
        <ele>5.9</ele>
        <time>2020-05-31T14:07:29Z</time>
      </trkpt>
      <trkpt lat="46.25212" lon="-0.75464">
        <ele>5.9</ele>
        <time>2020-05-31T14:07:30Z</time>
      </trkpt>
      <trkpt lat="46.25213" lon="-0.75464">
        <ele>5.9</ele>
        <time>2020-05-31T14:07:31Z</time>
      </trkpt>
      <trkpt lat="46.25213" lon="-0.75465">
        <ele>5.9</ele>
        <time>2020-05-31T14:07:32Z</time>
      </trkpt>
      <trkpt lat="46.25213" lon="-0.75465">
        <ele>5.9</ele>
        <time>2020-05-31T14:07:33Z</time>
      </trkpt>
      <trkpt lat="46.25213" lon="-0.75465">
        <ele>5.9</ele>
        <time>2020-05-31T14:07:34Z</time>
      </trkpt>
      <trkpt lat="46.25213" lon="-0.75465">
        <ele>5.9</ele>
        <time>2020-05-31T14:07:35Z</time>
      </trkpt>
      <trkpt lat="46.25213" lon="-0.75465">
        <ele>5.9</ele>
        <time>2020-05-31T14:07:36Z</time>
      </trkpt>
      <trkpt lat="46.25212" lon="-0.75465">
        <ele>5.9</ele>
        <time>2020-05-31T14:07:37Z</time>
      </trkpt>
      <trkpt lat="46.25212" lon="-0.75465">
        <ele>5.9</ele>
        <time>2020-05-31T14:07:38Z</time>
      </trkpt>
      <trkpt lat="46.25212" lon="-0.75465">
        <ele>5.9</ele>
        <time>2020-05-31T14:07:39Z</time>
      </trkpt>
      <trkpt lat="46.25212" lon="-0.75465">
        <ele>5.9</ele>
        <time>2020-05-31T14:07:40Z</time>
      </trkpt>
      <trkpt lat="46.25212" lon="-0.75464">
        <ele>5.9</ele>
        <time>2020-05-31T14:07:41Z</time>
      </trkpt>
      <trkpt lat="46.25212" lon="-0.75465">
        <ele>5.9</ele>
        <time>2020-05-31T14:07:42Z</time>
      </trkpt>
      <trkpt lat="46.25212" lon="-0.75464">
        <ele>5.9</ele>
        <time>2020-05-31T14:07:43Z</time>
      </trkpt>
      <trkpt lat="46.25212" lon="-0.75464">
        <ele>5.9</ele>
        <time>2020-05-31T14:07:44Z</time>
      </trkpt>
      <trkpt lat="46.25212" lon="-0.75464">
        <ele>5.9</ele>
        <time>2020-05-31T14:07:45Z</time>
      </trkpt>
      <trkpt lat="46.25212" lon="-0.75464">
        <ele>5.9</ele>
        <time>2020-05-31T14:07:46Z</time>
      </trkpt>
      <trkpt lat="46.25212" lon="-0.75464">
        <ele>5.9</ele>
        <time>2020-05-31T14:07:47Z</time>
      </trkpt>
      <trkpt lat="46.25212" lon="-0.75464">
        <ele>5.9</ele>
        <time>2020-05-31T14:07:48Z</time>
      </trkpt>
      <trkpt lat="46.25212" lon="-0.75464">
        <ele>5.9</ele>
        <time>2020-05-31T14:07:49Z</time>
      </trkpt>
      <trkpt lat="46.25212" lon="-0.75464">
        <ele>5.9</ele>
        <time>2020-05-31T14:07:50Z</time>
      </trkpt>
      <trkpt lat="46.25212" lon="-0.75464">
        <ele>5.9</ele>
        <time>2020-05-31T14:07:51Z</time>
      </trkpt>
      <trkpt lat="46.25212" lon="-0.75464">
        <ele>5.9</ele>
        <time>2020-05-31T14:07:52Z</time>
      </trkpt>
      <trkpt lat="46.25212" lon="-0.75464">
        <ele>5.9</ele>
        <time>2020-05-31T14:07:53Z</time>
      </trkpt>
      <trkpt lat="46.25212" lon="-0.75464">
        <ele>5.9</ele>
        <time>2020-05-31T14:07:54Z</time>
      </trkpt>
      <trkpt lat="46.25212" lon="-0.75464">
        <ele>5.9</ele>
        <time>2020-05-31T14:07:55Z</time>
      </trkpt>
      <trkpt lat="46.25212" lon="-0.75464">
        <ele>5.9</ele>
        <time>2020-05-31T14:07:56Z</time>
      </trkpt>
      <trkpt lat="46.25212" lon="-0.75464">
        <ele>5.9</ele>
        <time>2020-05-31T14:07:57Z</time>
      </trkpt>
      <trkpt lat="46.25212" lon="-0.75464">
        <ele>5.9</ele>
        <time>2020-05-31T14:07:58Z</time>
      </trkpt>
      <trkpt lat="46.25212" lon="-0.75464">
        <ele>5.9</ele>
        <time>2020-05-31T14:07:59Z</time>
      </trkpt>
      <trkpt lat="46.25212" lon="-0.75464">
        <ele>5.9</ele>
        <time>2020-05-31T14:08:00Z</time>
      </trkpt>
      <trkpt lat="46.25212" lon="-0.75464">
        <ele>5.9</ele>
        <time>2020-05-31T14:08:01Z</time>
      </trkpt>
      <trkpt lat="46.25212" lon="-0.75464">
        <ele>5.9</ele>
        <time>2020-05-31T14:08:02Z</time>
      </trkpt>
      <trkpt lat="46.25212" lon="-0.75464">
        <ele>5.9</ele>
        <time>2020-05-31T14:08:03Z</time>
      </trkpt>
      <trkpt lat="46.25212" lon="-0.75464">
        <ele>5.9</ele>
        <time>2020-05-31T14:08:04Z</time>
      </trkpt>
      <trkpt lat="46.25212" lon="-0.75464">
        <ele>5.9</ele>
        <time>2020-05-31T14:08:05Z</time>
      </trkpt>
      <trkpt lat="46.25212" lon="-0.75464">
        <ele>5.9</ele>
        <time>2020-05-31T14:08:06Z</time>
      </trkpt>
      <trkpt lat="46.25212" lon="-0.75464">
        <ele>5.9</ele>
        <time>2020-05-31T14:08:07Z</time>
      </trkpt>
      <trkpt lat="46.25212" lon="-0.75464">
        <ele>5.9</ele>
        <time>2020-05-31T14:08:08Z</time>
      </trkpt>
      <trkpt lat="46.25212" lon="-0.75464">
        <ele>5.9</ele>
        <time>2020-05-31T14:08:09Z</time>
      </trkpt>
      <trkpt lat="46.25212" lon="-0.75464">
        <ele>5.9</ele>
        <time>2020-05-31T14:08:10Z</time>
      </trkpt>
      <trkpt lat="46.25212" lon="-0.75464">
        <ele>5.9</ele>
        <time>2020-05-31T14:08:11Z</time>
      </trkpt>
      <trkpt lat="46.25212" lon="-0.75464">
        <ele>5.9</ele>
        <time>2020-05-31T14:08:12Z</time>
      </trkpt>
      <trkpt lat="46.25212" lon="-0.75464">
        <ele>5.9</ele>
        <time>2020-05-31T14:08:13Z</time>
      </trkpt>
      <trkpt lat="46.25212" lon="-0.75464">
        <ele>5.9</ele>
        <time>2020-05-31T14:08:14Z</time>
      </trkpt>
      <trkpt lat="46.25212" lon="-0.75464">
        <ele>5.9</ele>
        <time>2020-05-31T14:08:15Z</time>
      </trkpt>
      <trkpt lat="46.25212" lon="-0.75464">
        <ele>5.9</ele>
        <time>2020-05-31T14:08:16Z</time>
      </trkpt>
      <trkpt lat="46.25212" lon="-0.75464">
        <ele>5.9</ele>
        <time>2020-05-31T14:08:17Z</time>
      </trkpt>
      <trkpt lat="46.25212" lon="-0.75464">
        <ele>5.9</ele>
        <time>2020-05-31T14:08:18Z</time>
      </trkpt>
      <trkpt lat="46.25212" lon="-0.75464">
        <ele>5.9</ele>
        <time>2020-05-31T14:08:19Z</time>
      </trkpt>
      <trkpt lat="46.25212" lon="-0.75464">
        <ele>5.9</ele>
        <time>2020-05-31T14:08:20Z</time>
      </trkpt>
      <trkpt lat="46.25212" lon="-0.75464">
        <ele>5.9</ele>
        <time>2020-05-31T14:08:21Z</time>
      </trkpt>
      <trkpt lat="46.25212" lon="-0.75464">
        <ele>5.9</ele>
        <time>2020-05-31T14:08:22Z</time>
      </trkpt>
      <trkpt lat="46.25212" lon="-0.75464">
        <ele>5.9</ele>
        <time>2020-05-31T14:08:23Z</time>
      </trkpt>
      <trkpt lat="46.25212" lon="-0.75464">
        <ele>5.9</ele>
        <time>2020-05-31T14:08:24Z</time>
      </trkpt>
      <trkpt lat="46.25212" lon="-0.75464">
        <ele>5.9</ele>
        <time>2020-05-31T14:08:25Z</time>
      </trkpt>
      <trkpt lat="46.25212" lon="-0.75464">
        <ele>5.9</ele>
        <time>2020-05-31T14:08:26Z</time>
      </trkpt>
      <trkpt lat="46.25212" lon="-0.75464">
        <ele>5.9</ele>
        <time>2020-05-31T14:08:27Z</time>
      </trkpt>
      <trkpt lat="46.25212" lon="-0.75464">
        <ele>5.9</ele>
        <time>2020-05-31T14:08:28Z</time>
      </trkpt>
      <trkpt lat="46.25212" lon="-0.75464">
        <ele>5.9</ele>
        <time>2020-05-31T14:08:29Z</time>
      </trkpt>
      <trkpt lat="46.25212" lon="-0.75464">
        <ele>5.9</ele>
        <time>2020-05-31T14:08:30Z</time>
      </trkpt>
      <trkpt lat="46.25212" lon="-0.75464">
        <ele>5.9</ele>
        <time>2020-05-31T14:08:31Z</time>
      </trkpt>
      <trkpt lat="46.25212" lon="-0.75464">
        <ele>5.9</ele>
        <time>2020-05-31T14:08:32Z</time>
      </trkpt>
      <trkpt lat="46.25212" lon="-0.75464">
        <ele>5.9</ele>
        <time>2020-05-31T14:08:33Z</time>
      </trkpt>
      <trkpt lat="46.25212" lon="-0.75464">
        <ele>5.9</ele>
        <time>2020-05-31T14:08:34Z</time>
      </trkpt>
      <trkpt lat="46.25212" lon="-0.75464">
        <ele>5.9</ele>
        <time>2020-05-31T14:08:35Z</time>
      </trkpt>
      <trkpt lat="46.25212" lon="-0.75464">
        <ele>5.9</ele>
        <time>2020-05-31T14:08:36Z</time>
      </trkpt>
      <trkpt lat="46.25212" lon="-0.75464">
        <ele>5.9</ele>
        <time>2020-05-31T14:08:37Z</time>
      </trkpt>
      <trkpt lat="46.25212" lon="-0.75464">
        <ele>5.9</ele>
        <time>2020-05-31T14:08:38Z</time>
      </trkpt>
      <trkpt lat="46.25212" lon="-0.75463">
        <ele>5.9</ele>
        <time>2020-05-31T14:08:39Z</time>
      </trkpt>
      <trkpt lat="46.25212" lon="-0.75463">
        <ele>5.9</ele>
        <time>2020-05-31T14:08:40Z</time>
      </trkpt>
      <trkpt lat="46.25212" lon="-0.75463">
        <ele>5.9</ele>
        <time>2020-05-31T14:08:41Z</time>
      </trkpt>
      <trkpt lat="46.25212" lon="-0.75463">
        <ele>5.9</ele>
        <time>2020-05-31T14:08:42Z</time>
      </trkpt>
      <trkpt lat="46.25213" lon="-0.75462">
        <ele>5.9</ele>
        <time>2020-05-31T14:08:43Z</time>
      </trkpt>
      <trkpt lat="46.25213" lon="-0.75462">
        <ele>5.9</ele>
        <time>2020-05-31T14:08:44Z</time>
      </trkpt>
      <trkpt lat="46.25213" lon="-0.75462">
        <ele>5.9</ele>
        <time>2020-05-31T14:08:45Z</time>
      </trkpt>
      <trkpt lat="46.25213" lon="-0.75462">
        <ele>5.9</ele>
        <time>2020-05-31T14:08:46Z</time>
      </trkpt>
      <trkpt lat="46.25213" lon="-0.75462">
        <ele>5.9</ele>
        <time>2020-05-31T14:08:47Z</time>
      </trkpt>
      <trkpt lat="46.25213" lon="-0.75462">
        <ele>5.9</ele>
        <time>2020-05-31T14:08:48Z</time>
      </trkpt>
      <trkpt lat="46.25213" lon="-0.75462">
        <ele>5.9</ele>
        <time>2020-05-31T14:08:49Z</time>
      </trkpt>
      <trkpt lat="46.25213" lon="-0.75462">
        <ele>5.9</ele>
        <time>2020-05-31T14:08:50Z</time>
      </trkpt>
      <trkpt lat="46.25213" lon="-0.75462">
        <ele>5.9</ele>
        <time>2020-05-31T14:08:51Z</time>
      </trkpt>
      <trkpt lat="46.25213" lon="-0.75462">
        <ele>5.9</ele>
        <time>2020-05-31T14:08:52Z</time>
      </trkpt>
      <trkpt lat="46.25213" lon="-0.75462">
        <ele>5.9</ele>
        <time>2020-05-31T14:08:53Z</time>
      </trkpt>
      <trkpt lat="46.25213" lon="-0.75462">
        <ele>5.9</ele>
        <time>2020-05-31T14:08:54Z</time>
      </trkpt>
      <trkpt lat="46.25213" lon="-0.75462">
        <ele>5.9</ele>
        <time>2020-05-31T14:08:55Z</time>
      </trkpt>
      <trkpt lat="46.25213" lon="-0.75462">
        <ele>5.9</ele>
        <time>2020-05-31T14:08:56Z</time>
      </trkpt>
      <trkpt lat="46.25213" lon="-0.75462">
        <ele>5.9</ele>
        <time>2020-05-31T14:08:57Z</time>
      </trkpt>
      <trkpt lat="46.25213" lon="-0.75462">
        <ele>5.9</ele>
        <time>2020-05-31T14:08:58Z</time>
      </trkpt>
      <trkpt lat="46.25213" lon="-0.75462">
        <ele>5.9</ele>
        <time>2020-05-31T14:08:59Z</time>
      </trkpt>
      <trkpt lat="46.25213" lon="-0.75462">
        <ele>5.9</ele>
        <time>2020-05-31T14:09:00Z</time>
      </trkpt>
      <trkpt lat="46.25213" lon="-0.75462">
        <ele>5.9</ele>
        <time>2020-05-31T14:09:01Z</time>
      </trkpt>
      <trkpt lat="46.25213" lon="-0.75462">
        <ele>5.9</ele>
        <time>2020-05-31T14:09:02Z</time>
      </trkpt>
      <trkpt lat="46.25213" lon="-0.75462">
        <ele>5.9</ele>
        <time>2020-05-31T14:09:03Z</time>
      </trkpt>
      <trkpt lat="46.25213" lon="-0.75462">
        <ele>5.9</ele>
        <time>2020-05-31T14:09:04Z</time>
      </trkpt>
      <trkpt lat="46.25213" lon="-0.75462">
        <ele>5.9</ele>
        <time>2020-05-31T14:09:05Z</time>
      </trkpt>
      <trkpt lat="46.25213" lon="-0.75462">
        <ele>5.9</ele>
        <time>2020-05-31T14:09:06Z</time>
      </trkpt>
      <trkpt lat="46.25213" lon="-0.75462">
        <ele>5.9</ele>
        <time>2020-05-31T14:09:07Z</time>
      </trkpt>
      <trkpt lat="46.25213" lon="-0.75462">
        <ele>5.9</ele>
        <time>2020-05-31T14:09:08Z</time>
      </trkpt>
      <trkpt lat="46.25213" lon="-0.75462">
        <ele>5.9</ele>
        <time>2020-05-31T14:09:09Z</time>
      </trkpt>
      <trkpt lat="46.25213" lon="-0.75462">
        <ele>5.9</ele>
        <time>2020-05-31T14:09:10Z</time>
      </trkpt>
      <trkpt lat="46.25213" lon="-0.75462">
        <ele>5.9</ele>
        <time>2020-05-31T14:09:11Z</time>
      </trkpt>
      <trkpt lat="46.25213" lon="-0.75462">
        <ele>5.9</ele>
        <time>2020-05-31T14:09:12Z</time>
      </trkpt>
      <trkpt lat="46.25213" lon="-0.75462">
        <ele>5.9</ele>
        <time>2020-05-31T14:09:13Z</time>
      </trkpt>
      <trkpt lat="46.25213" lon="-0.75462">
        <ele>5.9</ele>
        <time>2020-05-31T14:09:14Z</time>
      </trkpt>
      <trkpt lat="46.25213" lon="-0.75462">
        <ele>5.9</ele>
        <time>2020-05-31T14:09:15Z</time>
      </trkpt>
      <trkpt lat="46.25213" lon="-0.75462">
        <ele>5.9</ele>
        <time>2020-05-31T14:09:16Z</time>
      </trkpt>
      <trkpt lat="46.25213" lon="-0.75462">
        <ele>5.9</ele>
        <time>2020-05-31T14:09:17Z</time>
      </trkpt>
      <trkpt lat="46.25213" lon="-0.75462">
        <ele>5.9</ele>
        <time>2020-05-31T14:09:18Z</time>
      </trkpt>
      <trkpt lat="46.25213" lon="-0.75462">
        <ele>5.9</ele>
        <time>2020-05-31T14:09:19Z</time>
      </trkpt>
      <trkpt lat="46.25213" lon="-0.75462">
        <ele>5.9</ele>
        <time>2020-05-31T14:09:20Z</time>
      </trkpt>
      <trkpt lat="46.25213" lon="-0.75462">
        <ele>5.9</ele>
        <time>2020-05-31T14:09:21Z</time>
      </trkpt>
      <trkpt lat="46.25213" lon="-0.75462">
        <ele>5.9</ele>
        <time>2020-05-31T14:09:22Z</time>
      </trkpt>
      <trkpt lat="46.25213" lon="-0.75462">
        <ele>5.9</ele>
        <time>2020-05-31T14:09:23Z</time>
      </trkpt>
      <trkpt lat="46.25213" lon="-0.75462">
        <ele>5.9</ele>
        <time>2020-05-31T14:09:24Z</time>
      </trkpt>
      <trkpt lat="46.25213" lon="-0.75462">
        <ele>5.9</ele>
        <time>2020-05-31T14:09:25Z</time>
      </trkpt>
      <trkpt lat="46.25213" lon="-0.75462">
        <ele>5.9</ele>
        <time>2020-05-31T14:09:26Z</time>
      </trkpt>
      <trkpt lat="46.25213" lon="-0.75462">
        <ele>5.9</ele>
        <time>2020-05-31T14:09:27Z</time>
      </trkpt>
      <trkpt lat="46.25213" lon="-0.75462">
        <ele>5.9</ele>
        <time>2020-05-31T14:09:28Z</time>
      </trkpt>
      <trkpt lat="46.25213" lon="-0.75461">
        <ele>5.9</ele>
        <time>2020-05-31T14:09:29Z</time>
      </trkpt>
      <trkpt lat="46.25213" lon="-0.75461">
        <ele>5.9</ele>
        <time>2020-05-31T14:09:30Z</time>
      </trkpt>
      <trkpt lat="46.25213" lon="-0.75461">
        <ele>5.9</ele>
        <time>2020-05-31T14:09:31Z</time>
      </trkpt>
      <trkpt lat="46.25213" lon="-0.75461">
        <ele>5.9</ele>
        <time>2020-05-31T14:09:32Z</time>
      </trkpt>
      <trkpt lat="46.25213" lon="-0.75461">
        <ele>5.9</ele>
        <time>2020-05-31T14:09:33Z</time>
      </trkpt>
      <trkpt lat="46.25213" lon="-0.7546">
        <ele>5.9</ele>
        <time>2020-05-31T14:09:34Z</time>
      </trkpt>
      <trkpt lat="46.25214" lon="-0.7546">
        <ele>5.9</ele>
        <time>2020-05-31T14:09:35Z</time>
      </trkpt>
      <trkpt lat="46.25214" lon="-0.75461">
        <ele>5.9</ele>
        <time>2020-05-31T14:09:36Z</time>
      </trkpt>
      <trkpt lat="46.25214" lon="-0.75462">
        <ele>5.9</ele>
        <time>2020-05-31T14:09:37Z</time>
      </trkpt>
      <trkpt lat="46.25214" lon="-0.75462">
        <ele>5.9</ele>
        <time>2020-05-31T14:09:38Z</time>
      </trkpt>
      <trkpt lat="46.25214" lon="-0.75462">
        <ele>5.9</ele>
        <time>2020-05-31T14:09:39Z</time>
      </trkpt>
      <trkpt lat="46.25214" lon="-0.75462">
        <ele>5.9</ele>
        <time>2020-05-31T14:09:40Z</time>
      </trkpt>
      <trkpt lat="46.25214" lon="-0.75462">
        <ele>5.9</ele>
        <time>2020-05-31T14:09:41Z</time>
      </trkpt>
      <trkpt lat="46.25214" lon="-0.75462">
        <ele>5.9</ele>
        <time>2020-05-31T14:09:42Z</time>
      </trkpt>
      <trkpt lat="46.25214" lon="-0.75462">
        <ele>5.9</ele>
        <time>2020-05-31T14:09:43Z</time>
      </trkpt>
      <trkpt lat="46.25214" lon="-0.75462">
        <ele>5.9</ele>
        <time>2020-05-31T14:09:44Z</time>
      </trkpt>
      <trkpt lat="46.25214" lon="-0.75462">
        <ele>5.9</ele>
        <time>2020-05-31T14:09:45Z</time>
      </trkpt>
      <trkpt lat="46.25214" lon="-0.75462">
        <ele>5.9</ele>
        <time>2020-05-31T14:09:46Z</time>
      </trkpt>
      <trkpt lat="46.25214" lon="-0.75462">
        <ele>5.9</ele>
        <time>2020-05-31T14:09:47Z</time>
      </trkpt>
      <trkpt lat="46.25214" lon="-0.75462">
        <ele>5.9</ele>
        <time>2020-05-31T14:09:48Z</time>
      </trkpt>
      <trkpt lat="46.25214" lon="-0.75462">
        <ele>5.9</ele>
        <time>2020-05-31T14:09:49Z</time>
      </trkpt>
      <trkpt lat="46.25214" lon="-0.75462">
        <ele>5.9</ele>
        <time>2020-05-31T14:09:50Z</time>
      </trkpt>
      <trkpt lat="46.25214" lon="-0.75462">
        <ele>5.9</ele>
        <time>2020-05-31T14:09:51Z</time>
      </trkpt>
      <trkpt lat="46.25214" lon="-0.75462">
        <ele>5.9</ele>
        <time>2020-05-31T14:09:52Z</time>
      </trkpt>
      <trkpt lat="46.25214" lon="-0.75462">
        <ele>5.9</ele>
        <time>2020-05-31T14:09:53Z</time>
      </trkpt>
      <trkpt lat="46.25214" lon="-0.75462">
        <ele>5.9</ele>
        <time>2020-05-31T14:09:54Z</time>
      </trkpt>
      <trkpt lat="46.25214" lon="-0.75462">
        <ele>5.9</ele>
        <time>2020-05-31T14:09:55Z</time>
      </trkpt>
      <trkpt lat="46.25214" lon="-0.75462">
        <ele>5.9</ele>
        <time>2020-05-31T14:09:56Z</time>
      </trkpt>
      <trkpt lat="46.25214" lon="-0.75462">
        <ele>5.9</ele>
        <time>2020-05-31T14:09:57Z</time>
      </trkpt>
      <trkpt lat="46.25214" lon="-0.75462">
        <ele>5.9</ele>
        <time>2020-05-31T14:09:58Z</time>
      </trkpt>
      <trkpt lat="46.25214" lon="-0.75462">
        <ele>5.9</ele>
        <time>2020-05-31T14:09:59Z</time>
      </trkpt>
      <trkpt lat="46.25214" lon="-0.75462">
        <ele>5.9</ele>
        <time>2020-05-31T14:10:00Z</time>
      </trkpt>
      <trkpt lat="46.25214" lon="-0.75462">
        <ele>5.9</ele>
        <time>2020-05-31T14:10:01Z</time>
      </trkpt>
      <trkpt lat="46.25214" lon="-0.75462">
        <ele>5.9</ele>
        <time>2020-05-31T14:10:02Z</time>
      </trkpt>
      <trkpt lat="46.25214" lon="-0.75462">
        <ele>5.9</ele>
        <time>2020-05-31T14:10:03Z</time>
      </trkpt>
      <trkpt lat="46.25214" lon="-0.75462">
        <ele>5.9</ele>
        <time>2020-05-31T14:10:04Z</time>
      </trkpt>
      <trkpt lat="46.25214" lon="-0.75462">
        <ele>5.9</ele>
        <time>2020-05-31T14:10:05Z</time>
      </trkpt>
      <trkpt lat="46.25214" lon="-0.75462">
        <ele>5.9</ele>
        <time>2020-05-31T14:10:06Z</time>
      </trkpt>
      <trkpt lat="46.25214" lon="-0.75462">
        <ele>5.9</ele>
        <time>2020-05-31T14:10:07Z</time>
      </trkpt>
      <trkpt lat="46.25214" lon="-0.75462">
        <ele>5.9</ele>
        <time>2020-05-31T14:10:08Z</time>
      </trkpt>
      <trkpt lat="46.25214" lon="-0.75462">
        <ele>5.9</ele>
        <time>2020-05-31T14:10:09Z</time>
      </trkpt>
      <trkpt lat="46.25214" lon="-0.75462">
        <ele>5.9</ele>
        <time>2020-05-31T14:10:10Z</time>
      </trkpt>
      <trkpt lat="46.25214" lon="-0.75462">
        <ele>5.9</ele>
        <time>2020-05-31T14:10:11Z</time>
      </trkpt>
      <trkpt lat="46.25214" lon="-0.75462">
        <ele>5.9</ele>
        <time>2020-05-31T14:10:12Z</time>
      </trkpt>
      <trkpt lat="46.25214" lon="-0.75462">
        <ele>5.9</ele>
        <time>2020-05-31T14:10:13Z</time>
      </trkpt>
      <trkpt lat="46.25214" lon="-0.75462">
        <ele>5.9</ele>
        <time>2020-05-31T14:10:14Z</time>
      </trkpt>
      <trkpt lat="46.25214" lon="-0.75462">
        <ele>5.9</ele>
        <time>2020-05-31T14:10:15Z</time>
      </trkpt>
      <trkpt lat="46.25214" lon="-0.75462">
        <ele>5.9</ele>
        <time>2020-05-31T14:10:16Z</time>
      </trkpt>
      <trkpt lat="46.25214" lon="-0.75462">
        <ele>5.9</ele>
        <time>2020-05-31T14:10:17Z</time>
      </trkpt>
      <trkpt lat="46.25214" lon="-0.75462">
        <ele>5.9</ele>
        <time>2020-05-31T14:10:18Z</time>
      </trkpt>
      <trkpt lat="46.25214" lon="-0.75462">
        <ele>5.9</ele>
        <time>2020-05-31T14:10:19Z</time>
      </trkpt>
      <trkpt lat="46.25214" lon="-0.75462">
        <ele>5.9</ele>
        <time>2020-05-31T14:10:20Z</time>
      </trkpt>
      <trkpt lat="46.25214" lon="-0.75462">
        <ele>5.9</ele>
        <time>2020-05-31T14:10:21Z</time>
      </trkpt>
      <trkpt lat="46.25214" lon="-0.75462">
        <ele>5.9</ele>
        <time>2020-05-31T14:10:22Z</time>
      </trkpt>
      <trkpt lat="46.25214" lon="-0.75462">
        <ele>5.9</ele>
        <time>2020-05-31T14:10:23Z</time>
      </trkpt>
      <trkpt lat="46.25214" lon="-0.75462">
        <ele>5.9</ele>
        <time>2020-05-31T14:10:24Z</time>
      </trkpt>
      <trkpt lat="46.25214" lon="-0.75462">
        <ele>5.9</ele>
        <time>2020-05-31T14:10:25Z</time>
      </trkpt>
      <trkpt lat="46.25214" lon="-0.75462">
        <ele>5.9</ele>
        <time>2020-05-31T14:10:26Z</time>
      </trkpt>
      <trkpt lat="46.25214" lon="-0.75462">
        <ele>5.9</ele>
        <time>2020-05-31T14:10:27Z</time>
      </trkpt>
      <trkpt lat="46.25214" lon="-0.75462">
        <ele>5.9</ele>
        <time>2020-05-31T14:10:28Z</time>
      </trkpt>
      <trkpt lat="46.25214" lon="-0.75462">
        <ele>5.9</ele>
        <time>2020-05-31T14:10:29Z</time>
      </trkpt>
      <trkpt lat="46.25214" lon="-0.75462">
        <ele>5.9</ele>
        <time>2020-05-31T14:10:30Z</time>
      </trkpt>
      <trkpt lat="46.25214" lon="-0.75462">
        <ele>5.9</ele>
        <time>2020-05-31T14:10:31Z</time>
      </trkpt>
      <trkpt lat="46.25214" lon="-0.75462">
        <ele>5.9</ele>
        <time>2020-05-31T14:10:32Z</time>
      </trkpt>
      <trkpt lat="46.25214" lon="-0.75462">
        <ele>5.9</ele>
        <time>2020-05-31T14:10:33Z</time>
      </trkpt>
      <trkpt lat="46.25214" lon="-0.75462">
        <ele>5.9</ele>
        <time>2020-05-31T14:10:34Z</time>
      </trkpt>
      <trkpt lat="46.25214" lon="-0.75462">
        <ele>5.9</ele>
        <time>2020-05-31T14:10:35Z</time>
      </trkpt>
      <trkpt lat="46.25214" lon="-0.75462">
        <ele>5.9</ele>
        <time>2020-05-31T14:10:36Z</time>
      </trkpt>
      <trkpt lat="46.25214" lon="-0.75462">
        <ele>5.9</ele>
        <time>2020-05-31T14:10:37Z</time>
      </trkpt>
      <trkpt lat="46.25214" lon="-0.75462">
        <ele>5.9</ele>
        <time>2020-05-31T14:10:38Z</time>
      </trkpt>
      <trkpt lat="46.25214" lon="-0.75462">
        <ele>5.9</ele>
        <time>2020-05-31T14:10:39Z</time>
      </trkpt>
      <trkpt lat="46.25214" lon="-0.75462">
        <ele>5.9</ele>
        <time>2020-05-31T14:10:40Z</time>
      </trkpt>
      <trkpt lat="46.25214" lon="-0.75462">
        <ele>5.9</ele>
        <time>2020-05-31T14:10:41Z</time>
      </trkpt>
      <trkpt lat="46.25214" lon="-0.75462">
        <ele>5.9</ele>
        <time>2020-05-31T14:10:42Z</time>
      </trkpt>
      <trkpt lat="46.25214" lon="-0.75462">
        <ele>5.9</ele>
        <time>2020-05-31T14:10:43Z</time>
      </trkpt>
      <trkpt lat="46.25214" lon="-0.75462">
        <ele>5.9</ele>
        <time>2020-05-31T14:10:44Z</time>
      </trkpt>
      <trkpt lat="46.25214" lon="-0.75461">
        <ele>5.9</ele>
        <time>2020-05-31T14:10:45Z</time>
      </trkpt>
      <trkpt lat="46.25214" lon="-0.75461">
        <ele>5.9</ele>
        <time>2020-05-31T14:10:46Z</time>
      </trkpt>
      <trkpt lat="46.25215" lon="-0.75461">
        <ele>5.9</ele>
        <time>2020-05-31T14:10:47Z</time>
      </trkpt>
      <trkpt lat="46.25215" lon="-0.7546">
        <ele>5.9</ele>
        <time>2020-05-31T14:10:48Z</time>
      </trkpt>
      <trkpt lat="46.25214" lon="-0.7546">
        <ele>5.9</ele>
        <time>2020-05-31T14:10:49Z</time>
      </trkpt>
      <trkpt lat="46.25214" lon="-0.7546">
        <ele>5.9</ele>
        <time>2020-05-31T14:10:50Z</time>
      </trkpt>
      <trkpt lat="46.25214" lon="-0.7546">
        <ele>5.9</ele>
        <time>2020-05-31T14:10:51Z</time>
      </trkpt>
      <trkpt lat="46.25214" lon="-0.7546">
        <ele>5.9</ele>
        <time>2020-05-31T14:10:52Z</time>
      </trkpt>
      <trkpt lat="46.25265" lon="-0.75572">
        <ele>6.2</ele>
        <time>2020-05-31T15:10:12Z</time>
      </trkpt>
      <trkpt lat="46.25265" lon="-0.75572">
        <ele>6.2</ele>
        <time>2020-05-31T15:10:13Z</time>
      </trkpt>
      <trkpt lat="46.25265" lon="-0.75572">
        <ele>6.2</ele>
        <time>2020-05-31T15:10:14Z</time>
      </trkpt>
      <trkpt lat="46.25265" lon="-0.75572">
        <ele>6.2</ele>
        <time>2020-05-31T15:10:15Z</time>
      </trkpt>
      <trkpt lat="46.25265" lon="-0.75572">
        <ele>6.2</ele>
        <time>2020-05-31T15:10:16Z</time>
      </trkpt>
      <trkpt lat="46.25265" lon="-0.75572">
        <ele>6.2</ele>
        <time>2020-05-31T15:10:17Z</time>
      </trkpt>
      <trkpt lat="46.25265" lon="-0.75572">
        <ele>6.2</ele>
        <time>2020-05-31T15:10:18Z</time>
      </trkpt>
      <trkpt lat="46.25265" lon="-0.75572">
        <ele>6.2</ele>
        <time>2020-05-31T15:10:19Z</time>
      </trkpt>
      <trkpt lat="46.25265" lon="-0.75572">
        <ele>6.2</ele>
        <time>2020-05-31T15:10:20Z</time>
      </trkpt>
      <trkpt lat="46.25266" lon="-0.75572">
        <ele>6.2</ele>
        <time>2020-05-31T15:10:21Z</time>
      </trkpt>
      <trkpt lat="46.25266" lon="-0.75572">
        <ele>6.2</ele>
        <time>2020-05-31T15:10:22Z</time>
      </trkpt>
      <trkpt lat="46.25266" lon="-0.75572">
        <ele>6.2</ele>
        <time>2020-05-31T15:10:23Z</time>
      </trkpt>
      <trkpt lat="46.25266" lon="-0.75572">
        <ele>6.2</ele>
        <time>2020-05-31T15:10:24Z</time>
      </trkpt>
      <trkpt lat="46.25266" lon="-0.75571">
        <ele>6.2</ele>
        <time>2020-05-31T15:10:25Z</time>
      </trkpt>
      <trkpt lat="46.25267" lon="-0.75572">
        <ele>6.2</ele>
        <time>2020-05-31T15:10:26Z</time>
      </trkpt>
      <trkpt lat="46.25267" lon="-0.75572">
        <ele>6.2</ele>
        <time>2020-05-31T15:10:27Z</time>
      </trkpt>
      <trkpt lat="46.25267" lon="-0.75573">
        <ele>6.2</ele>
        <time>2020-05-31T15:10:28Z</time>
      </trkpt>
      <trkpt lat="46.25267" lon="-0.75573">
        <ele>6.2</ele>
        <time>2020-05-31T15:10:29Z</time>
      </trkpt>
      <trkpt lat="46.25267" lon="-0.75573">
        <ele>6.2</ele>
        <time>2020-05-31T15:10:30Z</time>
      </trkpt>
      <trkpt lat="46.25267" lon="-0.75573">
        <ele>6.2</ele>
        <time>2020-05-31T15:10:31Z</time>
      </trkpt>
      <trkpt lat="46.25267" lon="-0.75572">
        <ele>6.2</ele>
        <time>2020-05-31T15:10:32Z</time>
      </trkpt>
      <trkpt lat="46.25266" lon="-0.75571">
        <ele>6.2</ele>
        <time>2020-05-31T15:10:33Z</time>
      </trkpt>
      <trkpt lat="46.25266" lon="-0.7557">
        <ele>6.2</ele>
        <time>2020-05-31T15:10:34Z</time>
      </trkpt>
      <trkpt lat="46.25266" lon="-0.75568">
        <ele>6.2</ele>
        <time>2020-05-31T15:10:35Z</time>
      </trkpt>
      <trkpt lat="46.25267" lon="-0.75568">
        <ele>6.2</ele>
        <time>2020-05-31T15:10:36Z</time>
      </trkpt>
      <trkpt lat="46.25267" lon="-0.75569">
        <ele>6.2</ele>
        <time>2020-05-31T15:10:37Z</time>
      </trkpt>
      <trkpt lat="46.25267" lon="-0.7557">
        <ele>6.2</ele>
        <time>2020-05-31T15:10:38Z</time>
      </trkpt>
      <trkpt lat="46.25267" lon="-0.75571">
        <ele>6.2</ele>
        <time>2020-05-31T15:10:39Z</time>
      </trkpt>
      <trkpt lat="46.25267" lon="-0.75572">
        <ele>6.2</ele>
        <time>2020-05-31T15:10:40Z</time>
      </trkpt>
      <trkpt lat="46.25268" lon="-0.75573">
        <ele>6.2</ele>
        <time>2020-05-31T15:10:41Z</time>
      </trkpt>
      <trkpt lat="46.25268" lon="-0.75574">
        <ele>6.2</ele>
        <time>2020-05-31T15:10:42Z</time>
      </trkpt>
      <trkpt lat="46.25268" lon="-0.75576">
        <ele>6.2</ele>
        <time>2020-05-31T15:10:43Z</time>
      </trkpt>
      <trkpt lat="46.25268" lon="-0.75576">
        <ele>6.2</ele>
        <time>2020-05-31T15:10:44Z</time>
      </trkpt>
      <trkpt lat="46.25269" lon="-0.75578">
        <ele>6.2</ele>
        <time>2020-05-31T15:10:45Z</time>
      </trkpt>
      <trkpt lat="46.25268" lon="-0.75582">
        <ele>6.1</ele>
        <time>2020-05-31T15:10:46Z</time>
      </trkpt>
      <trkpt lat="46.25268" lon="-0.75583">
        <ele>6.1</ele>
        <time>2020-05-31T15:10:47Z</time>
      </trkpt>
      <trkpt lat="46.25267" lon="-0.75588">
        <ele>6.1</ele>
        <time>2020-05-31T15:10:48Z</time>
      </trkpt>
      <trkpt lat="46.25267" lon="-0.7559">
        <ele>6.1</ele>
        <time>2020-05-31T15:10:49Z</time>
      </trkpt>
      <trkpt lat="46.25266" lon="-0.75596">
        <ele>6.1</ele>
        <time>2020-05-31T15:10:50Z</time>
      </trkpt>
      <trkpt lat="46.25265" lon="-0.75604">
        <ele>6</ele>
        <time>2020-05-31T15:10:51Z</time>
      </trkpt>
      <trkpt lat="46.25263" lon="-0.75612">
        <ele>5.9</ele>
        <time>2020-05-31T15:10:52Z</time>
      </trkpt>
      <trkpt lat="46.25262" lon="-0.75621">
        <ele>5.8</ele>
        <time>2020-05-31T15:10:53Z</time>
      </trkpt>
      <trkpt lat="46.25261" lon="-0.7563">
        <ele>5.7</ele>
        <time>2020-05-31T15:10:54Z</time>
      </trkpt>
      <trkpt lat="46.2526" lon="-0.75639">
        <ele>5.6</ele>
        <time>2020-05-31T15:10:55Z</time>
      </trkpt>
      <trkpt lat="46.25258" lon="-0.7565">
        <ele>5.5</ele>
        <time>2020-05-31T15:10:56Z</time>
      </trkpt>
      <trkpt lat="46.25257" lon="-0.75661">
        <ele>5.4</ele>
        <time>2020-05-31T15:10:57Z</time>
      </trkpt>
      <trkpt lat="46.25255" lon="-0.75669">
        <ele>5.3</ele>
        <time>2020-05-31T15:10:58Z</time>
      </trkpt>
      <trkpt lat="46.25255" lon="-0.75677">
        <ele>5.2</ele>
        <time>2020-05-31T15:10:59Z</time>
      </trkpt>
      <trkpt lat="46.25252" lon="-0.75685">
        <ele>5.1</ele>
        <time>2020-05-31T15:11:00Z</time>
      </trkpt>
      <trkpt lat="46.2525" lon="-0.75694">
        <ele>5</ele>
        <time>2020-05-31T15:11:01Z</time>
      </trkpt>
      <trkpt lat="46.25248" lon="-0.75702">
        <ele>4.9</ele>
        <time>2020-05-31T15:11:02Z</time>
      </trkpt>
      <trkpt lat="46.25247" lon="-0.75713">
        <ele>4.8</ele>
        <time>2020-05-31T15:11:03Z</time>
      </trkpt>
      <trkpt lat="46.25245" lon="-0.75723">
        <ele>4.7</ele>
        <time>2020-05-31T15:11:04Z</time>
      </trkpt>
      <trkpt lat="46.25244" lon="-0.75734">
        <ele>4.7</ele>
        <time>2020-05-31T15:11:05Z</time>
      </trkpt>
      <trkpt lat="46.25242" lon="-0.75744">
        <ele>4.6</ele>
        <time>2020-05-31T15:11:06Z</time>
      </trkpt>
      <trkpt lat="46.2524" lon="-0.75752">
        <ele>4.6</ele>
        <time>2020-05-31T15:11:07Z</time>
      </trkpt>
      <trkpt lat="46.25239" lon="-0.7576">
        <ele>4.6</ele>
        <time>2020-05-31T15:11:08Z</time>
      </trkpt>
      <trkpt lat="46.25237" lon="-0.75768">
        <ele>4.5</ele>
        <time>2020-05-31T15:11:09Z</time>
      </trkpt>
      <trkpt lat="46.25235" lon="-0.75776">
        <ele>4.5</ele>
        <time>2020-05-31T15:11:10Z</time>
      </trkpt>
      <trkpt lat="46.25233" lon="-0.75785">
        <ele>4.5</ele>
        <time>2020-05-31T15:11:11Z</time>
      </trkpt>
      <trkpt lat="46.25232" lon="-0.75794">
        <ele>4.5</ele>
        <time>2020-05-31T15:11:12Z</time>
      </trkpt>
      <trkpt lat="46.2523" lon="-0.75801">
        <ele>4.5</ele>
        <time>2020-05-31T15:11:13Z</time>
      </trkpt>
      <trkpt lat="46.25229" lon="-0.7581">
        <ele>4.5</ele>
        <time>2020-05-31T15:11:14Z</time>
      </trkpt>
      <trkpt lat="46.25228" lon="-0.75818">
        <ele>4.5</ele>
        <time>2020-05-31T15:11:15Z</time>
      </trkpt>
      <trkpt lat="46.25226" lon="-0.75825">
        <ele>4.5</ele>
        <time>2020-05-31T15:11:16Z</time>
      </trkpt>
      <trkpt lat="46.25225" lon="-0.75832">
        <ele>4.5</ele>
        <time>2020-05-31T15:11:17Z</time>
      </trkpt>
      <trkpt lat="46.25224" lon="-0.7584">
        <ele>4.5</ele>
        <time>2020-05-31T15:11:18Z</time>
      </trkpt>
      <trkpt lat="46.25222" lon="-0.75848">
        <ele>4.5</ele>
        <time>2020-05-31T15:11:19Z</time>
      </trkpt>
      <trkpt lat="46.25221" lon="-0.75856">
        <ele>4.5</ele>
        <time>2020-05-31T15:11:20Z</time>
      </trkpt>
      <trkpt lat="46.2522" lon="-0.75863">
        <ele>4.5</ele>
        <time>2020-05-31T15:11:21Z</time>
      </trkpt>
      <trkpt lat="46.25219" lon="-0.75872">
        <ele>4.5</ele>
        <time>2020-05-31T15:11:22Z</time>
      </trkpt>
      <trkpt lat="46.25217" lon="-0.75881">
        <ele>4.5</ele>
        <time>2020-05-31T15:11:23Z</time>
      </trkpt>
      <trkpt lat="46.25216" lon="-0.75892">
        <ele>4.5</ele>
        <time>2020-05-31T15:11:24Z</time>
      </trkpt>
      <trkpt lat="46.25214" lon="-0.75903">
        <ele>4.5</ele>
        <time>2020-05-31T15:11:25Z</time>
      </trkpt>
      <trkpt lat="46.25212" lon="-0.75915">
        <ele>4.5</ele>
        <time>2020-05-31T15:11:26Z</time>
      </trkpt>
      <trkpt lat="46.25208" lon="-0.75926">
        <ele>4.5</ele>
        <time>2020-05-31T15:11:27Z</time>
      </trkpt>
      <trkpt lat="46.25206" lon="-0.75937">
        <ele>4.5</ele>
        <time>2020-05-31T15:11:28Z</time>
      </trkpt>
      <trkpt lat="46.25205" lon="-0.75947">
        <ele>4.5</ele>
        <time>2020-05-31T15:11:29Z</time>
      </trkpt>
      <trkpt lat="46.25202" lon="-0.75957">
        <ele>4.5</ele>
        <time>2020-05-31T15:11:30Z</time>
      </trkpt>
      <trkpt lat="46.25201" lon="-0.75968">
        <ele>4.5</ele>
        <time>2020-05-31T15:11:31Z</time>
      </trkpt>
      <trkpt lat="46.252" lon="-0.75977">
        <ele>4.6</ele>
        <time>2020-05-31T15:11:32Z</time>
      </trkpt>
      <trkpt lat="46.25199" lon="-0.75985">
        <ele>4.6</ele>
        <time>2020-05-31T15:11:33Z</time>
      </trkpt>
      <trkpt lat="46.25198" lon="-0.75992">
        <ele>4.6</ele>
        <time>2020-05-31T15:11:34Z</time>
      </trkpt>
      <trkpt lat="46.25196" lon="-0.76002">
        <ele>4.6</ele>
        <time>2020-05-31T15:11:35Z</time>
      </trkpt>
      <trkpt lat="46.25195" lon="-0.76011">
        <ele>4.7</ele>
        <time>2020-05-31T15:11:36Z</time>
      </trkpt>
      <trkpt lat="46.25194" lon="-0.76021">
        <ele>4.7</ele>
        <time>2020-05-31T15:11:37Z</time>
      </trkpt>
      <trkpt lat="46.25192" lon="-0.7603">
        <ele>4.8</ele>
        <time>2020-05-31T15:11:38Z</time>
      </trkpt>
      <trkpt lat="46.25191" lon="-0.76039">
        <ele>4.8</ele>
        <time>2020-05-31T15:11:39Z</time>
      </trkpt>
      <trkpt lat="46.2519" lon="-0.76047">
        <ele>4.9</ele>
        <time>2020-05-31T15:11:40Z</time>
      </trkpt>
      <trkpt lat="46.25187" lon="-0.76057">
        <ele>5</ele>
        <time>2020-05-31T15:11:41Z</time>
      </trkpt>
      <trkpt lat="46.25186" lon="-0.76065">
        <ele>5.1</ele>
        <time>2020-05-31T15:11:42Z</time>
      </trkpt>
      <trkpt lat="46.25185" lon="-0.76072">
        <ele>5.2</ele>
        <time>2020-05-31T15:11:43Z</time>
      </trkpt>
      <trkpt lat="46.25184" lon="-0.7608">
        <ele>5.3</ele>
        <time>2020-05-31T15:11:44Z</time>
      </trkpt>
      <trkpt lat="46.25182" lon="-0.76089">
        <ele>5.5</ele>
        <time>2020-05-31T15:11:45Z</time>
      </trkpt>
      <trkpt lat="46.25181" lon="-0.76098">
        <ele>5.6</ele>
        <time>2020-05-31T15:11:46Z</time>
      </trkpt>
      <trkpt lat="46.2518" lon="-0.76105">
        <ele>5.6</ele>
        <time>2020-05-31T15:11:47Z</time>
      </trkpt>
      <trkpt lat="46.25179" lon="-0.76114">
        <ele>5.7</ele>
        <time>2020-05-31T15:11:48Z</time>
      </trkpt>
      <trkpt lat="46.25179" lon="-0.76121">
        <ele>5.7</ele>
        <time>2020-05-31T15:11:49Z</time>
      </trkpt>
      <trkpt lat="46.25179" lon="-0.76127">
        <ele>5.8</ele>
        <time>2020-05-31T15:11:50Z</time>
      </trkpt>
      <trkpt lat="46.25179" lon="-0.76133">
        <ele>5.8</ele>
        <time>2020-05-31T15:11:51Z</time>
      </trkpt>
      <trkpt lat="46.25178" lon="-0.76139">
        <ele>5.8</ele>
        <time>2020-05-31T15:11:52Z</time>
      </trkpt>
      <trkpt lat="46.25177" lon="-0.76144">
        <ele>5.8</ele>
        <time>2020-05-31T15:11:53Z</time>
      </trkpt>
      <trkpt lat="46.25175" lon="-0.76148">
        <ele>5.8</ele>
        <time>2020-05-31T15:11:54Z</time>
      </trkpt>
      <trkpt lat="46.25175" lon="-0.76148">
        <ele>5.8</ele>
        <time>2020-05-31T15:11:55Z</time>
      </trkpt>
      <trkpt lat="46.25174" lon="-0.76152">
        <ele>5.8</ele>
        <time>2020-05-31T15:11:56Z</time>
      </trkpt>
      <trkpt lat="46.25173" lon="-0.76157">
        <ele>5.8</ele>
        <time>2020-05-31T15:11:57Z</time>
      </trkpt>
      <trkpt lat="46.25172" lon="-0.76159">
        <ele>5.8</ele>
        <time>2020-05-31T15:11:58Z</time>
      </trkpt>
      <trkpt lat="46.25171" lon="-0.76163">
        <ele>5.9</ele>
        <time>2020-05-31T15:11:59Z</time>
      </trkpt>
      <trkpt lat="46.2517" lon="-0.76168">
        <ele>5.9</ele>
        <time>2020-05-31T15:12:00Z</time>
      </trkpt>
      <trkpt lat="46.25169" lon="-0.76172">
        <ele>5.9</ele>
        <time>2020-05-31T15:12:01Z</time>
      </trkpt>
      <trkpt lat="46.25168" lon="-0.76176">
        <ele>5.9</ele>
        <time>2020-05-31T15:12:02Z</time>
      </trkpt>
      <trkpt lat="46.25167" lon="-0.76181">
        <ele>6</ele>
        <time>2020-05-31T15:12:03Z</time>
      </trkpt>
      <trkpt lat="46.25166" lon="-0.76188">
        <ele>6</ele>
        <time>2020-05-31T15:12:04Z</time>
      </trkpt>
      <trkpt lat="46.25165" lon="-0.76192">
        <ele>6</ele>
        <time>2020-05-31T15:12:05Z</time>
      </trkpt>
      <trkpt lat="46.25164" lon="-0.76198">
        <ele>6</ele>
        <time>2020-05-31T15:12:06Z</time>
      </trkpt>
      <trkpt lat="46.25162" lon="-0.76206">
        <ele>6</ele>
        <time>2020-05-31T15:12:07Z</time>
      </trkpt>
      <trkpt lat="46.25161" lon="-0.76212">
        <ele>6</ele>
        <time>2020-05-31T15:12:08Z</time>
      </trkpt>
      <trkpt lat="46.25159" lon="-0.76218">
        <ele>6</ele>
        <time>2020-05-31T15:12:09Z</time>
      </trkpt>
      <trkpt lat="46.25157" lon="-0.76222">
        <ele>6</ele>
        <time>2020-05-31T15:12:10Z</time>
      </trkpt>
      <trkpt lat="46.25155" lon="-0.76231">
        <ele>6.1</ele>
        <time>2020-05-31T15:12:11Z</time>
      </trkpt>
      <trkpt lat="46.25154" lon="-0.76237">
        <ele>6.1</ele>
        <time>2020-05-31T15:12:12Z</time>
      </trkpt>
      <trkpt lat="46.2515" lon="-0.76241">
        <ele>6.1</ele>
        <time>2020-05-31T15:12:13Z</time>
      </trkpt>
      <trkpt lat="46.25148" lon="-0.76245">
        <ele>6.1</ele>
        <time>2020-05-31T15:12:14Z</time>
      </trkpt>
      <trkpt lat="46.25146" lon="-0.76251">
        <ele>6.1</ele>
        <time>2020-05-31T15:12:15Z</time>
      </trkpt>
      <trkpt lat="46.25144" lon="-0.76257">
        <ele>6.1</ele>
        <time>2020-05-31T15:12:16Z</time>
      </trkpt>
      <trkpt lat="46.25141" lon="-0.76264">
        <ele>6.1</ele>
        <time>2020-05-31T15:12:17Z</time>
      </trkpt>
      <trkpt lat="46.25138" lon="-0.76269">
        <ele>6.1</ele>
        <time>2020-05-31T15:12:18Z</time>
      </trkpt>
      <trkpt lat="46.25136" lon="-0.76274">
        <ele>6.1</ele>
        <time>2020-05-31T15:12:19Z</time>
      </trkpt>
      <trkpt lat="46.25133" lon="-0.76279">
        <ele>6.1</ele>
        <time>2020-05-31T15:12:20Z</time>
      </trkpt>
      <trkpt lat="46.2513" lon="-0.76286">
        <ele>6.1</ele>
        <time>2020-05-31T15:12:21Z</time>
      </trkpt>
      <trkpt lat="46.25128" lon="-0.76291">
        <ele>6.1</ele>
        <time>2020-05-31T15:12:22Z</time>
      </trkpt>
      <trkpt lat="46.25125" lon="-0.76296">
        <ele>6.1</ele>
        <time>2020-05-31T15:12:23Z</time>
      </trkpt>
      <trkpt lat="46.25122" lon="-0.76302">
        <ele>6.1</ele>
        <time>2020-05-31T15:12:24Z</time>
      </trkpt>
      <trkpt lat="46.25118" lon="-0.76306">
        <ele>6.1</ele>
        <time>2020-05-31T15:12:25Z</time>
      </trkpt>
      <trkpt lat="46.25114" lon="-0.76311">
        <ele>6.2</ele>
        <time>2020-05-31T15:12:26Z</time>
      </trkpt>
      <trkpt lat="46.25111" lon="-0.76314">
        <ele>6.2</ele>
        <time>2020-05-31T15:12:27Z</time>
      </trkpt>
      <trkpt lat="46.25108" lon="-0.76318">
        <ele>6.2</ele>
        <time>2020-05-31T15:12:28Z</time>
      </trkpt>
      <trkpt lat="46.25104" lon="-0.7632">
        <ele>6.2</ele>
        <time>2020-05-31T15:12:29Z</time>
      </trkpt>
      <trkpt lat="46.25101" lon="-0.76323">
        <ele>6.2</ele>
        <time>2020-05-31T15:12:30Z</time>
      </trkpt>
      <trkpt lat="46.25098" lon="-0.76326">
        <ele>6.2</ele>
        <time>2020-05-31T15:12:31Z</time>
      </trkpt>
      <trkpt lat="46.25096" lon="-0.76329">
        <ele>6.2</ele>
        <time>2020-05-31T15:12:32Z</time>
      </trkpt>
      <trkpt lat="46.25093" lon="-0.76333">
        <ele>6.2</ele>
        <time>2020-05-31T15:12:33Z</time>
      </trkpt>
      <trkpt lat="46.2509" lon="-0.76337">
        <ele>6.2</ele>
        <time>2020-05-31T15:12:34Z</time>
      </trkpt>
      <trkpt lat="46.25088" lon="-0.7634">
        <ele>6.2</ele>
        <time>2020-05-31T15:12:35Z</time>
      </trkpt>
      <trkpt lat="46.25085" lon="-0.76343">
        <ele>6.2</ele>
        <time>2020-05-31T15:12:36Z</time>
      </trkpt>
      <trkpt lat="46.25082" lon="-0.76345">
        <ele>6.2</ele>
        <time>2020-05-31T15:12:37Z</time>
      </trkpt>
      <trkpt lat="46.2508" lon="-0.76348">
        <ele>6.3</ele>
        <time>2020-05-31T15:12:38Z</time>
      </trkpt>
      <trkpt lat="46.25077" lon="-0.76353">
        <ele>6.3</ele>
        <time>2020-05-31T15:12:39Z</time>
      </trkpt>
      <trkpt lat="46.25075" lon="-0.76357">
        <ele>6.3</ele>
        <time>2020-05-31T15:12:40Z</time>
      </trkpt>
      <trkpt lat="46.25071" lon="-0.76361">
        <ele>6.3</ele>
        <time>2020-05-31T15:12:41Z</time>
      </trkpt>
      <trkpt lat="46.25068" lon="-0.76366">
        <ele>6.3</ele>
        <time>2020-05-31T15:12:42Z</time>
      </trkpt>
      <trkpt lat="46.25065" lon="-0.76371">
        <ele>6.4</ele>
        <time>2020-05-31T15:12:43Z</time>
      </trkpt>
      <trkpt lat="46.25062" lon="-0.76375">
        <ele>6.5</ele>
        <time>2020-05-31T15:12:44Z</time>
      </trkpt>
      <trkpt lat="46.25059" lon="-0.7638">
        <ele>6.5</ele>
        <time>2020-05-31T15:12:45Z</time>
      </trkpt>
      <trkpt lat="46.25057" lon="-0.76387">
        <ele>6.6</ele>
        <time>2020-05-31T15:12:46Z</time>
      </trkpt>
      <trkpt lat="46.25054" lon="-0.76393">
        <ele>6.6</ele>
        <time>2020-05-31T15:12:47Z</time>
      </trkpt>
      <trkpt lat="46.25052" lon="-0.76399">
        <ele>6.7</ele>
        <time>2020-05-31T15:12:48Z</time>
      </trkpt>
      <trkpt lat="46.2505" lon="-0.76405">
        <ele>6.7</ele>
        <time>2020-05-31T15:12:49Z</time>
      </trkpt>
      <trkpt lat="46.25047" lon="-0.76411">
        <ele>6.9</ele>
        <time>2020-05-31T15:12:50Z</time>
      </trkpt>
      <trkpt lat="46.25045" lon="-0.76416">
        <ele>6.9</ele>
        <time>2020-05-31T15:12:51Z</time>
      </trkpt>
      <trkpt lat="46.25043" lon="-0.76422">
        <ele>7</ele>
        <time>2020-05-31T15:12:52Z</time>
      </trkpt>
      <trkpt lat="46.2504" lon="-0.76428">
        <ele>7</ele>
        <time>2020-05-31T15:12:53Z</time>
      </trkpt>
      <trkpt lat="46.25038" lon="-0.76434">
        <ele>7.1</ele>
        <time>2020-05-31T15:12:54Z</time>
      </trkpt>
      <trkpt lat="46.25036" lon="-0.7644">
        <ele>7.2</ele>
        <time>2020-05-31T15:12:55Z</time>
      </trkpt>
      <trkpt lat="46.25034" lon="-0.76446">
        <ele>7.3</ele>
        <time>2020-05-31T15:12:56Z</time>
      </trkpt>
      <trkpt lat="46.25033" lon="-0.76453">
        <ele>7.4</ele>
        <time>2020-05-31T15:12:57Z</time>
      </trkpt>
      <trkpt lat="46.25032" lon="-0.7646">
        <ele>7.5</ele>
        <time>2020-05-31T15:12:58Z</time>
      </trkpt>
      <trkpt lat="46.2503" lon="-0.76468">
        <ele>7.6</ele>
        <time>2020-05-31T15:12:59Z</time>
      </trkpt>
      <trkpt lat="46.25029" lon="-0.76474">
        <ele>7.7</ele>
        <time>2020-05-31T15:13:00Z</time>
      </trkpt>
      <trkpt lat="46.25028" lon="-0.76481">
        <ele>7.8</ele>
        <time>2020-05-31T15:13:01Z</time>
      </trkpt>
      <trkpt lat="46.25026" lon="-0.76487">
        <ele>7.9</ele>
        <time>2020-05-31T15:13:02Z</time>
      </trkpt>
      <trkpt lat="46.25024" lon="-0.76492">
        <ele>7.9</ele>
        <time>2020-05-31T15:13:03Z</time>
      </trkpt>
      <trkpt lat="46.25022" lon="-0.76497">
        <ele>8</ele>
        <time>2020-05-31T15:13:04Z</time>
      </trkpt>
      <trkpt lat="46.25021" lon="-0.76505">
        <ele>8.1</ele>
        <time>2020-05-31T15:13:05Z</time>
      </trkpt>
      <trkpt lat="46.25019" lon="-0.7651">
        <ele>8.1</ele>
        <time>2020-05-31T15:13:06Z</time>
      </trkpt>
      <trkpt lat="46.25017" lon="-0.76517">
        <ele>8.3</ele>
        <time>2020-05-31T15:13:07Z</time>
      </trkpt>
      <trkpt lat="46.25015" lon="-0.76523">
        <ele>8.4</ele>
        <time>2020-05-31T15:13:08Z</time>
      </trkpt>
      <trkpt lat="46.25014" lon="-0.76528">
        <ele>8.4</ele>
        <time>2020-05-31T15:13:09Z</time>
      </trkpt>
      <trkpt lat="46.25011" lon="-0.76534">
        <ele>8.5</ele>
        <time>2020-05-31T15:13:10Z</time>
      </trkpt>
      <trkpt lat="46.25009" lon="-0.76537">
        <ele>8.6</ele>
        <time>2020-05-31T15:13:11Z</time>
      </trkpt>
      <trkpt lat="46.25007" lon="-0.76542">
        <ele>8.7</ele>
        <time>2020-05-31T15:13:12Z</time>
      </trkpt>
      <trkpt lat="46.25005" lon="-0.76547">
        <ele>8.7</ele>
        <time>2020-05-31T15:13:13Z</time>
      </trkpt>
      <trkpt lat="46.25003" lon="-0.76551">
        <ele>8.7</ele>
        <time>2020-05-31T15:13:14Z</time>
      </trkpt>
      <trkpt lat="46.25001" lon="-0.76557">
        <ele>8.8</ele>
        <time>2020-05-31T15:13:15Z</time>
      </trkpt>
      <trkpt lat="46.24999" lon="-0.76561">
        <ele>8.8</ele>
        <time>2020-05-31T15:13:16Z</time>
      </trkpt>
      <trkpt lat="46.24997" lon="-0.76566">
        <ele>8.8</ele>
        <time>2020-05-31T15:13:17Z</time>
      </trkpt>
      <trkpt lat="46.24995" lon="-0.76572">
        <ele>8.8</ele>
        <time>2020-05-31T15:13:18Z</time>
      </trkpt>
      <trkpt lat="46.24994" lon="-0.76578">
        <ele>8.8</ele>
        <time>2020-05-31T15:13:19Z</time>
      </trkpt>
      <trkpt lat="46.24992" lon="-0.76584">
        <ele>8.8</ele>
        <time>2020-05-31T15:13:20Z</time>
      </trkpt>
      <trkpt lat="46.24991" lon="-0.76589">
        <ele>8.8</ele>
        <time>2020-05-31T15:13:21Z</time>
      </trkpt>
      <trkpt lat="46.24989" lon="-0.76595">
        <ele>8.8</ele>
        <time>2020-05-31T15:13:22Z</time>
      </trkpt>
      <trkpt lat="46.24987" lon="-0.76601">
        <ele>8.8</ele>
        <time>2020-05-31T15:13:23Z</time>
      </trkpt>
      <trkpt lat="46.24985" lon="-0.76606">
        <ele>8.7</ele>
        <time>2020-05-31T15:13:24Z</time>
      </trkpt>
      <trkpt lat="46.24983" lon="-0.76613">
        <ele>8.7</ele>
        <time>2020-05-31T15:13:25Z</time>
      </trkpt>
      <trkpt lat="46.2498" lon="-0.76618">
        <ele>8.7</ele>
        <time>2020-05-31T15:13:26Z</time>
      </trkpt>
      <trkpt lat="46.24978" lon="-0.76623">
        <ele>8.6</ele>
        <time>2020-05-31T15:13:27Z</time>
      </trkpt>
      <trkpt lat="46.24976" lon="-0.7663">
        <ele>8.6</ele>
        <time>2020-05-31T15:13:28Z</time>
      </trkpt>
      <trkpt lat="46.24973" lon="-0.76636">
        <ele>8.6</ele>
        <time>2020-05-31T15:13:29Z</time>
      </trkpt>
      <trkpt lat="46.24971" lon="-0.76642">
        <ele>8.5</ele>
        <time>2020-05-31T15:13:30Z</time>
      </trkpt>
      <trkpt lat="46.2497" lon="-0.76648">
        <ele>8.5</ele>
        <time>2020-05-31T15:13:31Z</time>
      </trkpt>
      <trkpt lat="46.24967" lon="-0.76653">
        <ele>8.5</ele>
        <time>2020-05-31T15:13:32Z</time>
      </trkpt>
      <trkpt lat="46.24965" lon="-0.76659">
        <ele>8.5</ele>
        <time>2020-05-31T15:13:33Z</time>
      </trkpt>
      <trkpt lat="46.24963" lon="-0.76664">
        <ele>8.5</ele>
        <time>2020-05-31T15:13:34Z</time>
      </trkpt>
      <trkpt lat="46.24961" lon="-0.76669">
        <ele>8.5</ele>
        <time>2020-05-31T15:13:35Z</time>
      </trkpt>
      <trkpt lat="46.24959" lon="-0.76672">
        <ele>8.5</ele>
        <time>2020-05-31T15:13:36Z</time>
      </trkpt>
      <trkpt lat="46.24956" lon="-0.76679">
        <ele>8.5</ele>
        <time>2020-05-31T15:13:37Z</time>
      </trkpt>
      <trkpt lat="46.24955" lon="-0.76683">
        <ele>8.5</ele>
        <time>2020-05-31T15:13:38Z</time>
      </trkpt>
      <trkpt lat="46.24952" lon="-0.76687">
        <ele>8.5</ele>
        <time>2020-05-31T15:13:39Z</time>
      </trkpt>
      <trkpt lat="46.24951" lon="-0.76694">
        <ele>8.5</ele>
        <time>2020-05-31T15:13:40Z</time>
      </trkpt>
      <trkpt lat="46.2495" lon="-0.76699">
        <ele>8.5</ele>
        <time>2020-05-31T15:13:41Z</time>
      </trkpt>
      <trkpt lat="46.24948" lon="-0.76704">
        <ele>8.5</ele>
        <time>2020-05-31T15:13:42Z</time>
      </trkpt>
      <trkpt lat="46.24946" lon="-0.7671">
        <ele>8.5</ele>
        <time>2020-05-31T15:13:43Z</time>
      </trkpt>
      <trkpt lat="46.24945" lon="-0.76716">
        <ele>8.5</ele>
        <time>2020-05-31T15:13:44Z</time>
      </trkpt>
      <trkpt lat="46.24943" lon="-0.76722">
        <ele>8.5</ele>
        <time>2020-05-31T15:13:45Z</time>
      </trkpt>
      <trkpt lat="46.24941" lon="-0.76728">
        <ele>8.5</ele>
        <time>2020-05-31T15:13:46Z</time>
      </trkpt>
      <trkpt lat="46.2494" lon="-0.76736">
        <ele>8.4</ele>
        <time>2020-05-31T15:13:47Z</time>
      </trkpt>
      <trkpt lat="46.24938" lon="-0.76743">
        <ele>8.4</ele>
        <time>2020-05-31T15:13:48Z</time>
      </trkpt>
      <trkpt lat="46.24936" lon="-0.76749">
        <ele>8.4</ele>
        <time>2020-05-31T15:13:49Z</time>
      </trkpt>
      <trkpt lat="46.24934" lon="-0.76756">
        <ele>8.4</ele>
        <time>2020-05-31T15:13:50Z</time>
      </trkpt>
      <trkpt lat="46.24933" lon="-0.76764">
        <ele>8.4</ele>
        <time>2020-05-31T15:13:51Z</time>
      </trkpt>
      <trkpt lat="46.24932" lon="-0.76771">
        <ele>8.4</ele>
        <time>2020-05-31T15:13:52Z</time>
      </trkpt>
      <trkpt lat="46.24932" lon="-0.76778">
        <ele>8.4</ele>
        <time>2020-05-31T15:13:53Z</time>
      </trkpt>
      <trkpt lat="46.24931" lon="-0.76784">
        <ele>8.4</ele>
        <time>2020-05-31T15:13:54Z</time>
      </trkpt>
      <trkpt lat="46.2493" lon="-0.76792">
        <ele>8.4</ele>
        <time>2020-05-31T15:13:55Z</time>
      </trkpt>
      <trkpt lat="46.24929" lon="-0.76798">
        <ele>8.4</ele>
        <time>2020-05-31T15:13:56Z</time>
      </trkpt>
      <trkpt lat="46.24929" lon="-0.76806">
        <ele>8.4</ele>
        <time>2020-05-31T15:13:57Z</time>
      </trkpt>
      <trkpt lat="46.24928" lon="-0.76813">
        <ele>8.3</ele>
        <time>2020-05-31T15:13:58Z</time>
      </trkpt>
      <trkpt lat="46.24927" lon="-0.76821">
        <ele>8.3</ele>
        <time>2020-05-31T15:13:59Z</time>
      </trkpt>
      <trkpt lat="46.24926" lon="-0.76829">
        <ele>8.2</ele>
        <time>2020-05-31T15:14:00Z</time>
      </trkpt>
      <trkpt lat="46.24926" lon="-0.76837">
        <ele>8.2</ele>
        <time>2020-05-31T15:14:01Z</time>
      </trkpt>
      <trkpt lat="46.24925" lon="-0.76846">
        <ele>8.1</ele>
        <time>2020-05-31T15:14:02Z</time>
      </trkpt>
      <trkpt lat="46.24925" lon="-0.76854">
        <ele>8</ele>
        <time>2020-05-31T15:14:03Z</time>
      </trkpt>
      <trkpt lat="46.24924" lon="-0.76861">
        <ele>8</ele>
        <time>2020-05-31T15:14:04Z</time>
      </trkpt>
      <trkpt lat="46.24923" lon="-0.76868">
        <ele>7.9</ele>
        <time>2020-05-31T15:14:05Z</time>
      </trkpt>
      <trkpt lat="46.24922" lon="-0.76875">
        <ele>7.8</ele>
        <time>2020-05-31T15:14:06Z</time>
      </trkpt>
      <trkpt lat="46.24921" lon="-0.76882">
        <ele>7.8</ele>
        <time>2020-05-31T15:14:07Z</time>
      </trkpt>
      <trkpt lat="46.2492" lon="-0.76889">
        <ele>7.7</ele>
        <time>2020-05-31T15:14:08Z</time>
      </trkpt>
      <trkpt lat="46.24919" lon="-0.76894">
        <ele>7.7</ele>
        <time>2020-05-31T15:14:09Z</time>
      </trkpt>
      <trkpt lat="46.24919" lon="-0.76901">
        <ele>7.6</ele>
        <time>2020-05-31T15:14:10Z</time>
      </trkpt>
      <trkpt lat="46.24918" lon="-0.76907">
        <ele>7.6</ele>
        <time>2020-05-31T15:14:11Z</time>
      </trkpt>
      <trkpt lat="46.24917" lon="-0.76914">
        <ele>7.6</ele>
        <time>2020-05-31T15:14:12Z</time>
      </trkpt>
      <trkpt lat="46.24917" lon="-0.7692">
        <ele>7.6</ele>
        <time>2020-05-31T15:14:13Z</time>
      </trkpt>
      <trkpt lat="46.24916" lon="-0.76927">
        <ele>7.6</ele>
        <time>2020-05-31T15:14:14Z</time>
      </trkpt>
      <trkpt lat="46.24916" lon="-0.76934">
        <ele>7.6</ele>
        <time>2020-05-31T15:14:15Z</time>
      </trkpt>
      <trkpt lat="46.24915" lon="-0.76941">
        <ele>7.6</ele>
        <time>2020-05-31T15:14:16Z</time>
      </trkpt>
      <trkpt lat="46.24915" lon="-0.76949">
        <ele>7.6</ele>
        <time>2020-05-31T15:14:17Z</time>
      </trkpt>
      <trkpt lat="46.24914" lon="-0.76955">
        <ele>7.5</ele>
        <time>2020-05-31T15:14:18Z</time>
      </trkpt>
      <trkpt lat="46.24914" lon="-0.76962">
        <ele>7.5</ele>
        <time>2020-05-31T15:14:19Z</time>
      </trkpt>
      <trkpt lat="46.24913" lon="-0.76968">
        <ele>7.5</ele>
        <time>2020-05-31T15:14:20Z</time>
      </trkpt>
      <trkpt lat="46.24912" lon="-0.76975">
        <ele>7.5</ele>
        <time>2020-05-31T15:14:21Z</time>
      </trkpt>
      <trkpt lat="46.24912" lon="-0.76983">
        <ele>7.5</ele>
        <time>2020-05-31T15:14:22Z</time>
      </trkpt>
      <trkpt lat="46.24911" lon="-0.7699">
        <ele>7.4</ele>
        <time>2020-05-31T15:14:23Z</time>
      </trkpt>
      <trkpt lat="46.24911" lon="-0.76998">
        <ele>7.4</ele>
        <time>2020-05-31T15:14:24Z</time>
      </trkpt>
      <trkpt lat="46.24909" lon="-0.77004">
        <ele>7.4</ele>
        <time>2020-05-31T15:14:25Z</time>
      </trkpt>
      <trkpt lat="46.24909" lon="-0.7701">
        <ele>7.4</ele>
        <time>2020-05-31T15:14:26Z</time>
      </trkpt>
      <trkpt lat="46.24908" lon="-0.77017">
        <ele>7.4</ele>
        <time>2020-05-31T15:14:27Z</time>
      </trkpt>
      <trkpt lat="46.24908" lon="-0.77023">
        <ele>7.3</ele>
        <time>2020-05-31T15:14:28Z</time>
      </trkpt>
      <trkpt lat="46.24908" lon="-0.7703">
        <ele>7.3</ele>
        <time>2020-05-31T15:14:29Z</time>
      </trkpt>
      <trkpt lat="46.24908" lon="-0.77038">
        <ele>7.3</ele>
        <time>2020-05-31T15:14:30Z</time>
      </trkpt>
      <trkpt lat="46.24908" lon="-0.77043">
        <ele>7.3</ele>
        <time>2020-05-31T15:14:31Z</time>
      </trkpt>
      <trkpt lat="46.24908" lon="-0.77051">
        <ele>7.2</ele>
        <time>2020-05-31T15:14:32Z</time>
      </trkpt>
      <trkpt lat="46.24907" lon="-0.77058">
        <ele>7.2</ele>
        <time>2020-05-31T15:14:33Z</time>
      </trkpt>
      <trkpt lat="46.24907" lon="-0.77066">
        <ele>7.2</ele>
        <time>2020-05-31T15:14:34Z</time>
      </trkpt>
      <trkpt lat="46.24905" lon="-0.77074">
        <ele>7.2</ele>
        <time>2020-05-31T15:14:35Z</time>
      </trkpt>
      <trkpt lat="46.24904" lon="-0.77081">
        <ele>7.1</ele>
        <time>2020-05-31T15:14:36Z</time>
      </trkpt>
      <trkpt lat="46.24903" lon="-0.77089">
        <ele>7.1</ele>
        <time>2020-05-31T15:14:37Z</time>
      </trkpt>
      <trkpt lat="46.24902" lon="-0.77097">
        <ele>7.1</ele>
        <time>2020-05-31T15:14:38Z</time>
      </trkpt>
      <trkpt lat="46.249" lon="-0.77103">
        <ele>7.1</ele>
        <time>2020-05-31T15:14:39Z</time>
      </trkpt>
      <trkpt lat="46.24899" lon="-0.77109">
        <ele>7</ele>
        <time>2020-05-31T15:14:40Z</time>
      </trkpt>
      <trkpt lat="46.24898" lon="-0.77115">
        <ele>7</ele>
        <time>2020-05-31T15:14:41Z</time>
      </trkpt>
      <trkpt lat="46.24897" lon="-0.77121">
        <ele>7</ele>
        <time>2020-05-31T15:14:42Z</time>
      </trkpt>
      <trkpt lat="46.24897" lon="-0.77126">
        <ele>7</ele>
        <time>2020-05-31T15:14:43Z</time>
      </trkpt>
      <trkpt lat="46.24897" lon="-0.77132">
        <ele>7</ele>
        <time>2020-05-31T15:14:44Z</time>
      </trkpt>
      <trkpt lat="46.24896" lon="-0.7714">
        <ele>7</ele>
        <time>2020-05-31T15:14:45Z</time>
      </trkpt>
      <trkpt lat="46.24895" lon="-0.77146">
        <ele>7</ele>
        <time>2020-05-31T15:14:46Z</time>
      </trkpt>
      <trkpt lat="46.24894" lon="-0.77152">
        <ele>7</ele>
        <time>2020-05-31T15:14:47Z</time>
      </trkpt>
      <trkpt lat="46.24894" lon="-0.77158">
        <ele>6.9</ele>
        <time>2020-05-31T15:14:48Z</time>
      </trkpt>
      <trkpt lat="46.24894" lon="-0.77164">
        <ele>6.9</ele>
        <time>2020-05-31T15:14:49Z</time>
      </trkpt>
      <trkpt lat="46.24893" lon="-0.77169">
        <ele>6.9</ele>
        <time>2020-05-31T15:14:50Z</time>
      </trkpt>
      <trkpt lat="46.24892" lon="-0.77175">
        <ele>6.9</ele>
        <time>2020-05-31T15:14:51Z</time>
      </trkpt>
      <trkpt lat="46.24892" lon="-0.77181">
        <ele>6.9</ele>
        <time>2020-05-31T15:14:52Z</time>
      </trkpt>
      <trkpt lat="46.24891" lon="-0.77187">
        <ele>6.9</ele>
        <time>2020-05-31T15:14:53Z</time>
      </trkpt>
      <trkpt lat="46.24891" lon="-0.77195">
        <ele>7</ele>
        <time>2020-05-31T15:14:54Z</time>
      </trkpt>
      <trkpt lat="46.2489" lon="-0.77201">
        <ele>7</ele>
        <time>2020-05-31T15:14:55Z</time>
      </trkpt>
      <trkpt lat="46.24889" lon="-0.77208">
        <ele>7</ele>
        <time>2020-05-31T15:14:56Z</time>
      </trkpt>
      <trkpt lat="46.24888" lon="-0.77214">
        <ele>7</ele>
        <time>2020-05-31T15:14:57Z</time>
      </trkpt>
      <trkpt lat="46.24887" lon="-0.77219">
        <ele>7.1</ele>
        <time>2020-05-31T15:14:58Z</time>
      </trkpt>
      <trkpt lat="46.24886" lon="-0.77226">
        <ele>7.1</ele>
        <time>2020-05-31T15:14:59Z</time>
      </trkpt>
      <trkpt lat="46.24885" lon="-0.77232">
        <ele>7.2</ele>
        <time>2020-05-31T15:15:00Z</time>
      </trkpt>
      <trkpt lat="46.24885" lon="-0.77239">
        <ele>7.2</ele>
        <time>2020-05-31T15:15:01Z</time>
      </trkpt>
      <trkpt lat="46.24883" lon="-0.77245">
        <ele>7.3</ele>
        <time>2020-05-31T15:15:02Z</time>
      </trkpt>
      <trkpt lat="46.24883" lon="-0.77251">
        <ele>7.4</ele>
        <time>2020-05-31T15:15:03Z</time>
      </trkpt>
      <trkpt lat="46.24882" lon="-0.77258">
        <ele>7.5</ele>
        <time>2020-05-31T15:15:04Z</time>
      </trkpt>
      <trkpt lat="46.2488" lon="-0.77264">
        <ele>7.6</ele>
        <time>2020-05-31T15:15:05Z</time>
      </trkpt>
      <trkpt lat="46.24879" lon="-0.77269">
        <ele>7.7</ele>
        <time>2020-05-31T15:15:06Z</time>
      </trkpt>
      <trkpt lat="46.24878" lon="-0.77276">
        <ele>7.7</ele>
        <time>2020-05-31T15:15:07Z</time>
      </trkpt>
      <trkpt lat="46.24877" lon="-0.77283">
        <ele>7.8</ele>
        <time>2020-05-31T15:15:08Z</time>
      </trkpt>
      <trkpt lat="46.24876" lon="-0.77289">
        <ele>7.9</ele>
        <time>2020-05-31T15:15:09Z</time>
      </trkpt>
      <trkpt lat="46.24875" lon="-0.77297">
        <ele>7.9</ele>
        <time>2020-05-31T15:15:10Z</time>
      </trkpt>
      <trkpt lat="46.24874" lon="-0.77304">
        <ele>7.9</ele>
        <time>2020-05-31T15:15:11Z</time>
      </trkpt>
      <trkpt lat="46.24874" lon="-0.77312">
        <ele>8</ele>
        <time>2020-05-31T15:15:12Z</time>
      </trkpt>
      <trkpt lat="46.24872" lon="-0.77318">
        <ele>8</ele>
        <time>2020-05-31T15:15:13Z</time>
      </trkpt>
      <trkpt lat="46.24872" lon="-0.77326">
        <ele>8</ele>
        <time>2020-05-31T15:15:14Z</time>
      </trkpt>
      <trkpt lat="46.2487" lon="-0.77333">
        <ele>8</ele>
        <time>2020-05-31T15:15:15Z</time>
      </trkpt>
      <trkpt lat="46.24869" lon="-0.7734">
        <ele>8</ele>
        <time>2020-05-31T15:15:16Z</time>
      </trkpt>
      <trkpt lat="46.24868" lon="-0.77347">
        <ele>8.1</ele>
        <time>2020-05-31T15:15:17Z</time>
      </trkpt>
      <trkpt lat="46.24868" lon="-0.77354">
        <ele>8.1</ele>
        <time>2020-05-31T15:15:18Z</time>
      </trkpt>
      <trkpt lat="46.24866" lon="-0.77361">
        <ele>8.1</ele>
        <time>2020-05-31T15:15:19Z</time>
      </trkpt>
      <trkpt lat="46.24866" lon="-0.77369">
        <ele>8.2</ele>
        <time>2020-05-31T15:15:20Z</time>
      </trkpt>
      <trkpt lat="46.24865" lon="-0.77377">
        <ele>8.2</ele>
        <time>2020-05-31T15:15:21Z</time>
      </trkpt>
      <trkpt lat="46.24864" lon="-0.77384">
        <ele>8.3</ele>
        <time>2020-05-31T15:15:22Z</time>
      </trkpt>
      <trkpt lat="46.24862" lon="-0.77391">
        <ele>8.3</ele>
        <time>2020-05-31T15:15:23Z</time>
      </trkpt>
      <trkpt lat="46.2486" lon="-0.77396">
        <ele>8.3</ele>
        <time>2020-05-31T15:15:24Z</time>
      </trkpt>
      <trkpt lat="46.24858" lon="-0.77402">
        <ele>8.4</ele>
        <time>2020-05-31T15:15:25Z</time>
      </trkpt>
      <trkpt lat="46.24856" lon="-0.77408">
        <ele>8.4</ele>
        <time>2020-05-31T15:15:26Z</time>
      </trkpt>
      <trkpt lat="46.24853" lon="-0.77415">
        <ele>8.4</ele>
        <time>2020-05-31T15:15:27Z</time>
      </trkpt>
      <trkpt lat="46.2485" lon="-0.77421">
        <ele>8.5</ele>
        <time>2020-05-31T15:15:28Z</time>
      </trkpt>
      <trkpt lat="46.24848" lon="-0.77427">
        <ele>8.5</ele>
        <time>2020-05-31T15:15:29Z</time>
      </trkpt>
      <trkpt lat="46.24845" lon="-0.77433">
        <ele>8.6</ele>
        <time>2020-05-31T15:15:30Z</time>
      </trkpt>
      <trkpt lat="46.24842" lon="-0.77439">
        <ele>8.6</ele>
        <time>2020-05-31T15:15:31Z</time>
      </trkpt>
      <trkpt lat="46.2484" lon="-0.77445">
        <ele>8.7</ele>
        <time>2020-05-31T15:15:32Z</time>
      </trkpt>
      <trkpt lat="46.24836" lon="-0.77449">
        <ele>8.7</ele>
        <time>2020-05-31T15:15:33Z</time>
      </trkpt>
      <trkpt lat="46.24834" lon="-0.77455">
        <ele>8.8</ele>
        <time>2020-05-31T15:15:34Z</time>
      </trkpt>
      <trkpt lat="46.24831" lon="-0.77461">
        <ele>8.8</ele>
        <time>2020-05-31T15:15:35Z</time>
      </trkpt>
      <trkpt lat="46.24829" lon="-0.77468">
        <ele>8.8</ele>
        <time>2020-05-31T15:15:36Z</time>
      </trkpt>
      <trkpt lat="46.24826" lon="-0.77473">
        <ele>8.9</ele>
        <time>2020-05-31T15:15:37Z</time>
      </trkpt>
      <trkpt lat="46.24823" lon="-0.77479">
        <ele>8.9</ele>
        <time>2020-05-31T15:15:38Z</time>
      </trkpt>
      <trkpt lat="46.2482" lon="-0.77484">
        <ele>8.9</ele>
        <time>2020-05-31T15:15:39Z</time>
      </trkpt>
      <trkpt lat="46.24817" lon="-0.77489">
        <ele>9</ele>
        <time>2020-05-31T15:15:40Z</time>
      </trkpt>
      <trkpt lat="46.24813" lon="-0.77495">
        <ele>9</ele>
        <time>2020-05-31T15:15:41Z</time>
      </trkpt>
      <trkpt lat="46.24811" lon="-0.77502">
        <ele>9</ele>
        <time>2020-05-31T15:15:42Z</time>
      </trkpt>
      <trkpt lat="46.24807" lon="-0.77507">
        <ele>9</ele>
        <time>2020-05-31T15:15:43Z</time>
      </trkpt>
      <trkpt lat="46.24805" lon="-0.77513">
        <ele>9</ele>
        <time>2020-05-31T15:15:44Z</time>
      </trkpt>
      <trkpt lat="46.24801" lon="-0.77518">
        <ele>9</ele>
        <time>2020-05-31T15:15:45Z</time>
      </trkpt>
      <trkpt lat="46.24798" lon="-0.77524">
        <ele>9</ele>
        <time>2020-05-31T15:15:46Z</time>
      </trkpt>
      <trkpt lat="46.24795" lon="-0.7753">
        <ele>9</ele>
        <time>2020-05-31T15:15:47Z</time>
      </trkpt>
      <trkpt lat="46.24792" lon="-0.77536">
        <ele>9</ele>
        <time>2020-05-31T15:15:48Z</time>
      </trkpt>
      <trkpt lat="46.24789" lon="-0.77542">
        <ele>9</ele>
        <time>2020-05-31T15:15:49Z</time>
      </trkpt>
      <trkpt lat="46.24787" lon="-0.77548">
        <ele>8.9</ele>
        <time>2020-05-31T15:15:50Z</time>
      </trkpt>
      <trkpt lat="46.24784" lon="-0.77554">
        <ele>8.9</ele>
        <time>2020-05-31T15:15:51Z</time>
      </trkpt>
      <trkpt lat="46.24783" lon="-0.7756">
        <ele>8.9</ele>
        <time>2020-05-31T15:15:52Z</time>
      </trkpt>
      <trkpt lat="46.24781" lon="-0.77566">
        <ele>8.9</ele>
        <time>2020-05-31T15:15:53Z</time>
      </trkpt>
      <trkpt lat="46.2478" lon="-0.77574">
        <ele>8.8</ele>
        <time>2020-05-31T15:15:54Z</time>
      </trkpt>
      <trkpt lat="46.24778" lon="-0.7758">
        <ele>8.8</ele>
        <time>2020-05-31T15:15:55Z</time>
      </trkpt>
      <trkpt lat="46.24777" lon="-0.77587">
        <ele>8.8</ele>
        <time>2020-05-31T15:15:56Z</time>
      </trkpt>
      <trkpt lat="46.24775" lon="-0.77593">
        <ele>8.8</ele>
        <time>2020-05-31T15:15:57Z</time>
      </trkpt>
      <trkpt lat="46.24773" lon="-0.77601">
        <ele>8.7</ele>
        <time>2020-05-31T15:15:58Z</time>
      </trkpt>
      <trkpt lat="46.24773" lon="-0.77608">
        <ele>8.7</ele>
        <time>2020-05-31T15:15:59Z</time>
      </trkpt>
      <trkpt lat="46.24773" lon="-0.77615">
        <ele>8.7</ele>
        <time>2020-05-31T15:16:00Z</time>
      </trkpt>
      <trkpt lat="46.24772" lon="-0.77622">
        <ele>8.6</ele>
        <time>2020-05-31T15:16:01Z</time>
      </trkpt>
      <trkpt lat="46.24773" lon="-0.7763">
        <ele>8.6</ele>
        <time>2020-05-31T15:16:02Z</time>
      </trkpt>
      <trkpt lat="46.24772" lon="-0.77637">
        <ele>8.5</ele>
        <time>2020-05-31T15:16:03Z</time>
      </trkpt>
      <trkpt lat="46.24771" lon="-0.77645">
        <ele>8.5</ele>
        <time>2020-05-31T15:16:04Z</time>
      </trkpt>
      <trkpt lat="46.24771" lon="-0.77652">
        <ele>8.5</ele>
        <time>2020-05-31T15:16:05Z</time>
      </trkpt>
      <trkpt lat="46.24772" lon="-0.77659">
        <ele>8.4</ele>
        <time>2020-05-31T15:16:06Z</time>
      </trkpt>
      <trkpt lat="46.24772" lon="-0.77667">
        <ele>8.4</ele>
        <time>2020-05-31T15:16:07Z</time>
      </trkpt>
      <trkpt lat="46.24773" lon="-0.77673">
        <ele>8.4</ele>
        <time>2020-05-31T15:16:08Z</time>
      </trkpt>
      <trkpt lat="46.24774" lon="-0.77681">
        <ele>8.4</ele>
        <time>2020-05-31T15:16:09Z</time>
      </trkpt>
      <trkpt lat="46.24775" lon="-0.77689">
        <ele>8.3</ele>
        <time>2020-05-31T15:16:10Z</time>
      </trkpt>
      <trkpt lat="46.24775" lon="-0.77697">
        <ele>8.3</ele>
        <time>2020-05-31T15:16:11Z</time>
      </trkpt>
      <trkpt lat="46.24776" lon="-0.77705">
        <ele>8.2</ele>
        <time>2020-05-31T15:16:12Z</time>
      </trkpt>
      <trkpt lat="46.24776" lon="-0.77713">
        <ele>8.2</ele>
        <time>2020-05-31T15:16:13Z</time>
      </trkpt>
      <trkpt lat="46.24777" lon="-0.77722">
        <ele>8.1</ele>
        <time>2020-05-31T15:16:14Z</time>
      </trkpt>
      <trkpt lat="46.24777" lon="-0.7773">
        <ele>8.1</ele>
        <time>2020-05-31T15:16:15Z</time>
      </trkpt>
      <trkpt lat="46.24777" lon="-0.77737">
        <ele>8.1</ele>
        <time>2020-05-31T15:16:16Z</time>
      </trkpt>
      <trkpt lat="46.24777" lon="-0.77746">
        <ele>8</ele>
        <time>2020-05-31T15:16:17Z</time>
      </trkpt>
      <trkpt lat="46.24777" lon="-0.77756">
        <ele>8</ele>
        <time>2020-05-31T15:16:18Z</time>
      </trkpt>
      <trkpt lat="46.24777" lon="-0.77766">
        <ele>8</ele>
        <time>2020-05-31T15:16:19Z</time>
      </trkpt>
      <trkpt lat="46.24777" lon="-0.77775">
        <ele>7.9</ele>
        <time>2020-05-31T15:16:20Z</time>
      </trkpt>
      <trkpt lat="46.24776" lon="-0.77783">
        <ele>7.9</ele>
        <time>2020-05-31T15:16:21Z</time>
      </trkpt>
      <trkpt lat="46.24776" lon="-0.77793">
        <ele>7.9</ele>
        <time>2020-05-31T15:16:22Z</time>
      </trkpt>
      <trkpt lat="46.24777" lon="-0.77803">
        <ele>7.9</ele>
        <time>2020-05-31T15:16:23Z</time>
      </trkpt>
      <trkpt lat="46.24777" lon="-0.77812">
        <ele>7.9</ele>
        <time>2020-05-31T15:16:24Z</time>
      </trkpt>
      <trkpt lat="46.24777" lon="-0.77821">
        <ele>7.9</ele>
        <time>2020-05-31T15:16:25Z</time>
      </trkpt>
      <trkpt lat="46.24777" lon="-0.77831">
        <ele>7.9</ele>
        <time>2020-05-31T15:16:26Z</time>
      </trkpt>
      <trkpt lat="46.24777" lon="-0.7784">
        <ele>7.9</ele>
        <time>2020-05-31T15:16:27Z</time>
      </trkpt>
      <trkpt lat="46.24778" lon="-0.77848">
        <ele>7.9</ele>
        <time>2020-05-31T15:16:28Z</time>
      </trkpt>
      <trkpt lat="46.24778" lon="-0.77855">
        <ele>8</ele>
        <time>2020-05-31T15:16:29Z</time>
      </trkpt>
      <trkpt lat="46.24778" lon="-0.77862">
        <ele>8</ele>
        <time>2020-05-31T15:16:30Z</time>
      </trkpt>
      <trkpt lat="46.24777" lon="-0.7787">
        <ele>8</ele>
        <time>2020-05-31T15:16:31Z</time>
      </trkpt>
      <trkpt lat="46.24777" lon="-0.77878">
        <ele>8.1</ele>
        <time>2020-05-31T15:16:32Z</time>
      </trkpt>
      <trkpt lat="46.24777" lon="-0.77886">
        <ele>8.1</ele>
        <time>2020-05-31T15:16:33Z</time>
      </trkpt>
      <trkpt lat="46.24777" lon="-0.77895">
        <ele>8.2</ele>
        <time>2020-05-31T15:16:34Z</time>
      </trkpt>
      <trkpt lat="46.24777" lon="-0.77903">
        <ele>8.3</ele>
        <time>2020-05-31T15:16:35Z</time>
      </trkpt>
      <trkpt lat="46.24778" lon="-0.77911">
        <ele>8.3</ele>
        <time>2020-05-31T15:16:36Z</time>
      </trkpt>
      <trkpt lat="46.24777" lon="-0.77917">
        <ele>8.4</ele>
        <time>2020-05-31T15:16:37Z</time>
      </trkpt>
      <trkpt lat="46.24777" lon="-0.77922">
        <ele>8.4</ele>
        <time>2020-05-31T15:16:38Z</time>
      </trkpt>
      <trkpt lat="46.24777" lon="-0.77929">
        <ele>8.5</ele>
        <time>2020-05-31T15:16:39Z</time>
      </trkpt>
      <trkpt lat="46.24776" lon="-0.77934">
        <ele>8.5</ele>
        <time>2020-05-31T15:16:40Z</time>
      </trkpt>
      <trkpt lat="46.24776" lon="-0.7794">
        <ele>8.6</ele>
        <time>2020-05-31T15:16:41Z</time>
      </trkpt>
      <trkpt lat="46.24776" lon="-0.77946">
        <ele>8.6</ele>
        <time>2020-05-31T15:16:42Z</time>
      </trkpt>
      <trkpt lat="46.24777" lon="-0.77952">
        <ele>8.7</ele>
        <time>2020-05-31T15:16:43Z</time>
      </trkpt>
      <trkpt lat="46.24777" lon="-0.77957">
        <ele>8.7</ele>
        <time>2020-05-31T15:16:44Z</time>
      </trkpt>
      <trkpt lat="46.24777" lon="-0.77961">
        <ele>8.8</ele>
        <time>2020-05-31T15:16:45Z</time>
      </trkpt>
      <trkpt lat="46.24777" lon="-0.77966">
        <ele>8.8</ele>
        <time>2020-05-31T15:16:46Z</time>
      </trkpt>
      <trkpt lat="46.24777" lon="-0.7797">
        <ele>8.9</ele>
        <time>2020-05-31T15:16:47Z</time>
      </trkpt>
      <trkpt lat="46.24777" lon="-0.77976">
        <ele>8.9</ele>
        <time>2020-05-31T15:16:48Z</time>
      </trkpt>
      <trkpt lat="46.24777" lon="-0.7798">
        <ele>8.9</ele>
        <time>2020-05-31T15:16:49Z</time>
      </trkpt>
      <trkpt lat="46.24778" lon="-0.77986">
        <ele>9</ele>
        <time>2020-05-31T15:16:50Z</time>
      </trkpt>
      <trkpt lat="46.24779" lon="-0.77988">
        <ele>9</ele>
        <time>2020-05-31T15:16:51Z</time>
      </trkpt>
      <trkpt lat="46.24779" lon="-0.77993">
        <ele>9.1</ele>
        <time>2020-05-31T15:16:52Z</time>
      </trkpt>
      <trkpt lat="46.24779" lon="-0.77997">
        <ele>9.1</ele>
        <time>2020-05-31T15:16:53Z</time>
      </trkpt>
      <trkpt lat="46.24779" lon="-0.78004">
        <ele>9.2</ele>
        <time>2020-05-31T15:16:54Z</time>
      </trkpt>
      <trkpt lat="46.24779" lon="-0.78007">
        <ele>9.2</ele>
        <time>2020-05-31T15:16:55Z</time>
      </trkpt>
      <trkpt lat="46.24779" lon="-0.78012">
        <ele>9.2</ele>
        <time>2020-05-31T15:16:56Z</time>
      </trkpt>
      <trkpt lat="46.24779" lon="-0.78014">
        <ele>9.2</ele>
        <time>2020-05-31T15:16:57Z</time>
      </trkpt>
      <trkpt lat="46.24779" lon="-0.78016">
        <ele>9.2</ele>
        <time>2020-05-31T15:16:58Z</time>
      </trkpt>
      <trkpt lat="46.24779" lon="-0.78017">
        <ele>9.2</ele>
        <time>2020-05-31T15:16:59Z</time>
      </trkpt>
      <trkpt lat="46.24779" lon="-0.78018">
        <ele>9.2</ele>
        <time>2020-05-31T15:17:00Z</time>
      </trkpt>
      <trkpt lat="46.2478" lon="-0.7802">
        <ele>9.3</ele>
        <time>2020-05-31T15:17:01Z</time>
      </trkpt>
      <trkpt lat="46.2478" lon="-0.78021">
        <ele>9.3</ele>
        <time>2020-05-31T15:17:02Z</time>
      </trkpt>
      <trkpt lat="46.2478" lon="-0.78021">
        <ele>9.3</ele>
        <time>2020-05-31T15:17:03Z</time>
      </trkpt>
      <trkpt lat="46.2478" lon="-0.78021">
        <ele>9.3</ele>
        <time>2020-05-31T15:17:04Z</time>
      </trkpt>
      <trkpt lat="46.2478" lon="-0.78022">
        <ele>9.3</ele>
        <time>2020-05-31T15:17:05Z</time>
      </trkpt>
      <trkpt lat="46.2478" lon="-0.78022">
        <ele>9.3</ele>
        <time>2020-05-31T15:17:06Z</time>
      </trkpt>
      <trkpt lat="46.2478" lon="-0.78023">
        <ele>9.3</ele>
        <time>2020-05-31T15:17:07Z</time>
      </trkpt>
      <trkpt lat="46.2478" lon="-0.78023">
        <ele>9.3</ele>
        <time>2020-05-31T15:17:08Z</time>
      </trkpt>
      <trkpt lat="46.2478" lon="-0.78024">
        <ele>9.3</ele>
        <time>2020-05-31T15:17:09Z</time>
      </trkpt>
      <trkpt lat="46.2478" lon="-0.78026">
        <ele>9.3</ele>
        <time>2020-05-31T15:17:10Z</time>
      </trkpt>
      <trkpt lat="46.2478" lon="-0.78028">
        <ele>9.3</ele>
        <time>2020-05-31T15:17:11Z</time>
      </trkpt>
      <trkpt lat="46.24779" lon="-0.78032">
        <ele>9.3</ele>
        <time>2020-05-31T15:17:12Z</time>
      </trkpt>
      <trkpt lat="46.24779" lon="-0.78037">
        <ele>9.4</ele>
        <time>2020-05-31T15:17:13Z</time>
      </trkpt>
      <trkpt lat="46.24779" lon="-0.78042">
        <ele>9.4</ele>
        <time>2020-05-31T15:17:14Z</time>
      </trkpt>
      <trkpt lat="46.24779" lon="-0.7805">
        <ele>9.4</ele>
        <time>2020-05-31T15:17:15Z</time>
      </trkpt>
      <trkpt lat="46.24779" lon="-0.78058">
        <ele>9.5</ele>
        <time>2020-05-31T15:17:16Z</time>
      </trkpt>
      <trkpt lat="46.24779" lon="-0.78065">
        <ele>9.5</ele>
        <time>2020-05-31T15:17:17Z</time>
      </trkpt>
      <trkpt lat="46.24779" lon="-0.78073">
        <ele>9.6</ele>
        <time>2020-05-31T15:17:18Z</time>
      </trkpt>
      <trkpt lat="46.24777" lon="-0.78081">
        <ele>9.6</ele>
        <time>2020-05-31T15:17:19Z</time>
      </trkpt>
      <trkpt lat="46.24777" lon="-0.78091">
        <ele>9.7</ele>
        <time>2020-05-31T15:17:20Z</time>
      </trkpt>
      <trkpt lat="46.24776" lon="-0.781">
        <ele>9.7</ele>
        <time>2020-05-31T15:17:21Z</time>
      </trkpt>
      <trkpt lat="46.24774" lon="-0.78108">
        <ele>9.7</ele>
        <time>2020-05-31T15:17:22Z</time>
      </trkpt>
      <trkpt lat="46.24774" lon="-0.78118">
        <ele>9.7</ele>
        <time>2020-05-31T15:17:23Z</time>
      </trkpt>
      <trkpt lat="46.24772" lon="-0.78126">
        <ele>9.7</ele>
        <time>2020-05-31T15:17:24Z</time>
      </trkpt>
      <trkpt lat="46.24771" lon="-0.78132">
        <ele>9.7</ele>
        <time>2020-05-31T15:17:25Z</time>
      </trkpt>
      <trkpt lat="46.2477" lon="-0.78139">
        <ele>9.7</ele>
        <time>2020-05-31T15:17:26Z</time>
      </trkpt>
      <trkpt lat="46.24769" lon="-0.78148">
        <ele>9.7</ele>
        <time>2020-05-31T15:17:27Z</time>
      </trkpt>
      <trkpt lat="46.24767" lon="-0.78156">
        <ele>9.8</ele>
        <time>2020-05-31T15:17:28Z</time>
      </trkpt>
      <trkpt lat="46.24766" lon="-0.78166">
        <ele>9.8</ele>
        <time>2020-05-31T15:17:29Z</time>
      </trkpt>
      <trkpt lat="46.24764" lon="-0.78175">
        <ele>9.8</ele>
        <time>2020-05-31T15:17:30Z</time>
      </trkpt>
      <trkpt lat="46.24763" lon="-0.78184">
        <ele>9.8</ele>
        <time>2020-05-31T15:17:31Z</time>
      </trkpt>
      <trkpt lat="46.24761" lon="-0.78192">
        <ele>9.8</ele>
        <time>2020-05-31T15:17:32Z</time>
      </trkpt>
      <trkpt lat="46.24759" lon="-0.78199">
        <ele>9.8</ele>
        <time>2020-05-31T15:17:33Z</time>
      </trkpt>
      <trkpt lat="46.24758" lon="-0.78205">
        <ele>9.8</ele>
        <time>2020-05-31T15:17:34Z</time>
      </trkpt>
      <trkpt lat="46.24756" lon="-0.78213">
        <ele>9.9</ele>
        <time>2020-05-31T15:17:35Z</time>
      </trkpt>
      <trkpt lat="46.24755" lon="-0.7822">
        <ele>9.9</ele>
        <time>2020-05-31T15:17:36Z</time>
      </trkpt>
      <trkpt lat="46.24753" lon="-0.78227">
        <ele>9.8</ele>
        <time>2020-05-31T15:17:37Z</time>
      </trkpt>
      <trkpt lat="46.24752" lon="-0.78235">
        <ele>9.8</ele>
        <time>2020-05-31T15:17:38Z</time>
      </trkpt>
      <trkpt lat="46.2475" lon="-0.78243">
        <ele>9.9</ele>
        <time>2020-05-31T15:17:39Z</time>
      </trkpt>
      <trkpt lat="46.24749" lon="-0.78253">
        <ele>9.9</ele>
        <time>2020-05-31T15:17:40Z</time>
      </trkpt>
      <trkpt lat="46.24747" lon="-0.78261">
        <ele>9.9</ele>
        <time>2020-05-31T15:17:41Z</time>
      </trkpt>
      <trkpt lat="46.24746" lon="-0.7827">
        <ele>10</ele>
        <time>2020-05-31T15:17:42Z</time>
      </trkpt>
      <trkpt lat="46.24744" lon="-0.78278">
        <ele>10</ele>
        <time>2020-05-31T15:17:43Z</time>
      </trkpt>
      <trkpt lat="46.24743" lon="-0.78288">
        <ele>10.1</ele>
        <time>2020-05-31T15:17:44Z</time>
      </trkpt>
      <trkpt lat="46.24741" lon="-0.78298">
        <ele>10.2</ele>
        <time>2020-05-31T15:17:45Z</time>
      </trkpt>
      <trkpt lat="46.24739" lon="-0.78307">
        <ele>10.2</ele>
        <time>2020-05-31T15:17:46Z</time>
      </trkpt>
      <trkpt lat="46.24737" lon="-0.78317">
        <ele>10.3</ele>
        <time>2020-05-31T15:17:47Z</time>
      </trkpt>
      <trkpt lat="46.24736" lon="-0.78326">
        <ele>10.4</ele>
        <time>2020-05-31T15:17:48Z</time>
      </trkpt>
      <trkpt lat="46.24734" lon="-0.78335">
        <ele>10.5</ele>
        <time>2020-05-31T15:17:49Z</time>
      </trkpt>
      <trkpt lat="46.24732" lon="-0.78344">
        <ele>10.5</ele>
        <time>2020-05-31T15:17:50Z</time>
      </trkpt>
      <trkpt lat="46.2473" lon="-0.78354">
        <ele>10.6</ele>
        <time>2020-05-31T15:17:51Z</time>
      </trkpt>
      <trkpt lat="46.24728" lon="-0.78365">
        <ele>10.6</ele>
        <time>2020-05-31T15:17:52Z</time>
      </trkpt>
      <trkpt lat="46.24726" lon="-0.78375">
        <ele>10.7</ele>
        <time>2020-05-31T15:17:53Z</time>
      </trkpt>
      <trkpt lat="46.24725" lon="-0.78385">
        <ele>10.7</ele>
        <time>2020-05-31T15:17:54Z</time>
      </trkpt>
      <trkpt lat="46.24723" lon="-0.78395">
        <ele>10.8</ele>
        <time>2020-05-31T15:17:55Z</time>
      </trkpt>
      <trkpt lat="46.24721" lon="-0.78406">
        <ele>10.8</ele>
        <time>2020-05-31T15:17:56Z</time>
      </trkpt>
      <trkpt lat="46.2472" lon="-0.78417">
        <ele>10.9</ele>
        <time>2020-05-31T15:17:57Z</time>
      </trkpt>
      <trkpt lat="46.24718" lon="-0.78429">
        <ele>11</ele>
        <time>2020-05-31T15:17:58Z</time>
      </trkpt>
      <trkpt lat="46.24717" lon="-0.7844">
        <ele>11.1</ele>
        <time>2020-05-31T15:17:59Z</time>
      </trkpt>
      <trkpt lat="46.24716" lon="-0.78451">
        <ele>11.3</ele>
        <time>2020-05-31T15:18:00Z</time>
      </trkpt>
      <trkpt lat="46.24714" lon="-0.78462">
        <ele>11.4</ele>
        <time>2020-05-31T15:18:01Z</time>
      </trkpt>
      <trkpt lat="46.24713" lon="-0.78473">
        <ele>11.6</ele>
        <time>2020-05-31T15:18:02Z</time>
      </trkpt>
      <trkpt lat="46.2471" lon="-0.78483">
        <ele>11.7</ele>
        <time>2020-05-31T15:18:03Z</time>
      </trkpt>
      <trkpt lat="46.24708" lon="-0.78493">
        <ele>11.8</ele>
        <time>2020-05-31T15:18:04Z</time>
      </trkpt>
      <trkpt lat="46.24708" lon="-0.78503">
        <ele>11.9</ele>
        <time>2020-05-31T15:18:05Z</time>
      </trkpt>
      <trkpt lat="46.24707" lon="-0.78513">
        <ele>12</ele>
        <time>2020-05-31T15:18:06Z</time>
      </trkpt>
      <trkpt lat="46.24706" lon="-0.78523">
        <ele>12.1</ele>
        <time>2020-05-31T15:18:07Z</time>
      </trkpt>
      <trkpt lat="46.24705" lon="-0.78532">
        <ele>12.1</ele>
        <time>2020-05-31T15:18:08Z</time>
      </trkpt>
      <trkpt lat="46.24705" lon="-0.78541">
        <ele>12.1</ele>
        <time>2020-05-31T15:18:09Z</time>
      </trkpt>
      <trkpt lat="46.24704" lon="-0.78549">
        <ele>12.1</ele>
        <time>2020-05-31T15:18:10Z</time>
      </trkpt>
      <trkpt lat="46.24703" lon="-0.78558">
        <ele>12.2</ele>
        <time>2020-05-31T15:18:11Z</time>
      </trkpt>
      <trkpt lat="46.24702" lon="-0.78567">
        <ele>12.2</ele>
        <time>2020-05-31T15:18:12Z</time>
      </trkpt>
      <trkpt lat="46.24701" lon="-0.78576">
        <ele>12.2</ele>
        <time>2020-05-31T15:18:13Z</time>
      </trkpt>
      <trkpt lat="46.24701" lon="-0.78585">
        <ele>12.2</ele>
        <time>2020-05-31T15:18:14Z</time>
      </trkpt>
      <trkpt lat="46.247" lon="-0.78593">
        <ele>12.3</ele>
        <time>2020-05-31T15:18:15Z</time>
      </trkpt>
      <trkpt lat="46.247" lon="-0.78602">
        <ele>12.3</ele>
        <time>2020-05-31T15:18:16Z</time>
      </trkpt>
      <trkpt lat="46.247" lon="-0.7861">
        <ele>12.4</ele>
        <time>2020-05-31T15:18:17Z</time>
      </trkpt>
      <trkpt lat="46.24701" lon="-0.78617">
        <ele>12.4</ele>
        <time>2020-05-31T15:18:18Z</time>
      </trkpt>
      <trkpt lat="46.24701" lon="-0.78624">
        <ele>12.5</ele>
        <time>2020-05-31T15:18:19Z</time>
      </trkpt>
      <trkpt lat="46.24702" lon="-0.7863">
        <ele>12.6</ele>
        <time>2020-05-31T15:18:20Z</time>
      </trkpt>
      <trkpt lat="46.24702" lon="-0.78638">
        <ele>12.6</ele>
        <time>2020-05-31T15:18:21Z</time>
      </trkpt>
      <trkpt lat="46.24704" lon="-0.78646">
        <ele>12.6</ele>
        <time>2020-05-31T15:18:22Z</time>
      </trkpt>
      <trkpt lat="46.24705" lon="-0.78653">
        <ele>12.7</ele>
        <time>2020-05-31T15:18:23Z</time>
      </trkpt>
      <trkpt lat="46.24707" lon="-0.78661">
        <ele>12.7</ele>
        <time>2020-05-31T15:18:24Z</time>
      </trkpt>
      <trkpt lat="46.24708" lon="-0.78668">
        <ele>12.7</ele>
        <time>2020-05-31T15:18:25Z</time>
      </trkpt>
      <trkpt lat="46.24709" lon="-0.78676">
        <ele>12.7</ele>
        <time>2020-05-31T15:18:26Z</time>
      </trkpt>
      <trkpt lat="46.2471" lon="-0.78684">
        <ele>12.7</ele>
        <time>2020-05-31T15:18:27Z</time>
      </trkpt>
      <trkpt lat="46.24711" lon="-0.78692">
        <ele>12.7</ele>
        <time>2020-05-31T15:18:28Z</time>
      </trkpt>
      <trkpt lat="46.24714" lon="-0.78699">
        <ele>12.8</ele>
        <time>2020-05-31T15:18:29Z</time>
      </trkpt>
      <trkpt lat="46.24716" lon="-0.78707">
        <ele>12.8</ele>
        <time>2020-05-31T15:18:30Z</time>
      </trkpt>
      <trkpt lat="46.24718" lon="-0.78714">
        <ele>12.8</ele>
        <time>2020-05-31T15:18:31Z</time>
      </trkpt>
      <trkpt lat="46.24721" lon="-0.78722">
        <ele>12.8</ele>
        <time>2020-05-31T15:18:32Z</time>
      </trkpt>
      <trkpt lat="46.24723" lon="-0.78729">
        <ele>12.8</ele>
        <time>2020-05-31T15:18:33Z</time>
      </trkpt>
      <trkpt lat="46.24726" lon="-0.78736">
        <ele>12.8</ele>
        <time>2020-05-31T15:18:34Z</time>
      </trkpt>
      <trkpt lat="46.24729" lon="-0.78743">
        <ele>12.8</ele>
        <time>2020-05-31T15:18:35Z</time>
      </trkpt>
      <trkpt lat="46.24733" lon="-0.7875">
        <ele>12.8</ele>
        <time>2020-05-31T15:18:36Z</time>
      </trkpt>
      <trkpt lat="46.24736" lon="-0.78756">
        <ele>12.7</ele>
        <time>2020-05-31T15:18:37Z</time>
      </trkpt>
      <trkpt lat="46.24738" lon="-0.78763">
        <ele>12.7</ele>
        <time>2020-05-31T15:18:38Z</time>
      </trkpt>
      <trkpt lat="46.24742" lon="-0.7877">
        <ele>12.6</ele>
        <time>2020-05-31T15:18:39Z</time>
      </trkpt>
      <trkpt lat="46.24745" lon="-0.78776">
        <ele>12.5</ele>
        <time>2020-05-31T15:18:40Z</time>
      </trkpt>
      <trkpt lat="46.24749" lon="-0.78783">
        <ele>12.5</ele>
        <time>2020-05-31T15:18:41Z</time>
      </trkpt>
      <trkpt lat="46.24752" lon="-0.7879">
        <ele>12.4</ele>
        <time>2020-05-31T15:18:42Z</time>
      </trkpt>
      <trkpt lat="46.24754" lon="-0.78797">
        <ele>12.3</ele>
        <time>2020-05-31T15:18:43Z</time>
      </trkpt>
      <trkpt lat="46.24757" lon="-0.78804">
        <ele>12.3</ele>
        <time>2020-05-31T15:18:44Z</time>
      </trkpt>
      <trkpt lat="46.2476" lon="-0.78811">
        <ele>12.2</ele>
        <time>2020-05-31T15:18:45Z</time>
      </trkpt>
      <trkpt lat="46.24762" lon="-0.78819">
        <ele>12.1</ele>
        <time>2020-05-31T15:18:46Z</time>
      </trkpt>
      <trkpt lat="46.24764" lon="-0.78827">
        <ele>12.1</ele>
        <time>2020-05-31T15:18:47Z</time>
      </trkpt>
      <trkpt lat="46.24766" lon="-0.78834">
        <ele>12.1</ele>
        <time>2020-05-31T15:18:48Z</time>
      </trkpt>
      <trkpt lat="46.24768" lon="-0.78842">
        <ele>12.1</ele>
        <time>2020-05-31T15:18:49Z</time>
      </trkpt>
      <trkpt lat="46.24771" lon="-0.7885">
        <ele>12.1</ele>
        <time>2020-05-31T15:18:50Z</time>
      </trkpt>
      <trkpt lat="46.24772" lon="-0.78859">
        <ele>12.1</ele>
        <time>2020-05-31T15:18:51Z</time>
      </trkpt>
      <trkpt lat="46.24774" lon="-0.78867">
        <ele>12.1</ele>
        <time>2020-05-31T15:18:52Z</time>
      </trkpt>
      <trkpt lat="46.24776" lon="-0.78876">
        <ele>12.1</ele>
        <time>2020-05-31T15:18:53Z</time>
      </trkpt>
      <trkpt lat="46.24778" lon="-0.78885">
        <ele>12</ele>
        <time>2020-05-31T15:18:54Z</time>
      </trkpt>
      <trkpt lat="46.2478" lon="-0.78894">
        <ele>12</ele>
        <time>2020-05-31T15:18:55Z</time>
      </trkpt>
      <trkpt lat="46.24781" lon="-0.78904">
        <ele>11.9</ele>
        <time>2020-05-31T15:18:56Z</time>
      </trkpt>
      <trkpt lat="46.24782" lon="-0.78913">
        <ele>11.8</ele>
        <time>2020-05-31T15:18:57Z</time>
      </trkpt>
      <trkpt lat="46.24783" lon="-0.78923">
        <ele>11.7</ele>
        <time>2020-05-31T15:18:58Z</time>
      </trkpt>
      <trkpt lat="46.24784" lon="-0.78933">
        <ele>11.6</ele>
        <time>2020-05-31T15:18:59Z</time>
      </trkpt>
      <trkpt lat="46.24785" lon="-0.78942">
        <ele>11.5</ele>
        <time>2020-05-31T15:19:00Z</time>
      </trkpt>
      <trkpt lat="46.24785" lon="-0.78952">
        <ele>11.3</ele>
        <time>2020-05-31T15:19:01Z</time>
      </trkpt>
      <trkpt lat="46.24785" lon="-0.78961">
        <ele>11.2</ele>
        <time>2020-05-31T15:19:02Z</time>
      </trkpt>
      <trkpt lat="46.24785" lon="-0.78971">
        <ele>11.1</ele>
        <time>2020-05-31T15:19:03Z</time>
      </trkpt>
      <trkpt lat="46.24784" lon="-0.78981">
        <ele>11</ele>
        <time>2020-05-31T15:19:04Z</time>
      </trkpt>
      <trkpt lat="46.24784" lon="-0.78991">
        <ele>10.9</ele>
        <time>2020-05-31T15:19:05Z</time>
      </trkpt>
      <trkpt lat="46.24783" lon="-0.79">
        <ele>10.9</ele>
        <time>2020-05-31T15:19:06Z</time>
      </trkpt>
      <trkpt lat="46.24782" lon="-0.7901">
        <ele>10.8</ele>
        <time>2020-05-31T15:19:07Z</time>
      </trkpt>
      <trkpt lat="46.24782" lon="-0.7902">
        <ele>10.8</ele>
        <time>2020-05-31T15:19:08Z</time>
      </trkpt>
      <trkpt lat="46.24781" lon="-0.7903">
        <ele>10.8</ele>
        <time>2020-05-31T15:19:09Z</time>
      </trkpt>
      <trkpt lat="46.2478" lon="-0.7904">
        <ele>10.7</ele>
        <time>2020-05-31T15:19:10Z</time>
      </trkpt>
      <trkpt lat="46.2478" lon="-0.7905">
        <ele>10.7</ele>
        <time>2020-05-31T15:19:11Z</time>
      </trkpt>
      <trkpt lat="46.24779" lon="-0.79059">
        <ele>10.6</ele>
        <time>2020-05-31T15:19:12Z</time>
      </trkpt>
      <trkpt lat="46.24778" lon="-0.79069">
        <ele>10.4</ele>
        <time>2020-05-31T15:19:13Z</time>
      </trkpt>
      <trkpt lat="46.24777" lon="-0.79079">
        <ele>10.3</ele>
        <time>2020-05-31T15:19:14Z</time>
      </trkpt>
      <trkpt lat="46.24777" lon="-0.79089">
        <ele>10.1</ele>
        <time>2020-05-31T15:19:15Z</time>
      </trkpt>
      <trkpt lat="46.24776" lon="-0.79098">
        <ele>10</ele>
        <time>2020-05-31T15:19:16Z</time>
      </trkpt>
      <trkpt lat="46.24775" lon="-0.79107">
        <ele>10</ele>
        <time>2020-05-31T15:19:17Z</time>
      </trkpt>
      <trkpt lat="46.24775" lon="-0.79116">
        <ele>9.9</ele>
        <time>2020-05-31T15:19:18Z</time>
      </trkpt>
      <trkpt lat="46.24775" lon="-0.79126">
        <ele>9.9</ele>
        <time>2020-05-31T15:19:19Z</time>
      </trkpt>
      <trkpt lat="46.24774" lon="-0.79135">
        <ele>9.9</ele>
        <time>2020-05-31T15:19:20Z</time>
      </trkpt>
      <trkpt lat="46.24774" lon="-0.79144">
        <ele>10</ele>
        <time>2020-05-31T15:19:21Z</time>
      </trkpt>
      <trkpt lat="46.24773" lon="-0.79152">
        <ele>10</ele>
        <time>2020-05-31T15:19:22Z</time>
      </trkpt>
      <trkpt lat="46.24773" lon="-0.79161">
        <ele>9.9</ele>
        <time>2020-05-31T15:19:23Z</time>
      </trkpt>
      <trkpt lat="46.24773" lon="-0.79169">
        <ele>9.9</ele>
        <time>2020-05-31T15:19:24Z</time>
      </trkpt>
      <trkpt lat="46.24772" lon="-0.79178">
        <ele>9.9</ele>
        <time>2020-05-31T15:19:25Z</time>
      </trkpt>
      <trkpt lat="46.24772" lon="-0.79186">
        <ele>9.9</ele>
        <time>2020-05-31T15:19:26Z</time>
      </trkpt>
      <trkpt lat="46.24772" lon="-0.79194">
        <ele>9.9</ele>
        <time>2020-05-31T15:19:27Z</time>
      </trkpt>
      <trkpt lat="46.24773" lon="-0.79202">
        <ele>9.9</ele>
        <time>2020-05-31T15:19:28Z</time>
      </trkpt>
      <trkpt lat="46.24773" lon="-0.7921">
        <ele>9.9</ele>
        <time>2020-05-31T15:19:29Z</time>
      </trkpt>
      <trkpt lat="46.24773" lon="-0.79218">
        <ele>9.9</ele>
        <time>2020-05-31T15:19:30Z</time>
      </trkpt>
      <trkpt lat="46.24773" lon="-0.79226">
        <ele>9.9</ele>
        <time>2020-05-31T15:19:31Z</time>
      </trkpt>
      <trkpt lat="46.24773" lon="-0.79234">
        <ele>9.9</ele>
        <time>2020-05-31T15:19:32Z</time>
      </trkpt>
      <trkpt lat="46.24774" lon="-0.79242">
        <ele>9.9</ele>
        <time>2020-05-31T15:19:33Z</time>
      </trkpt>
      <trkpt lat="46.24774" lon="-0.79251">
        <ele>10</ele>
        <time>2020-05-31T15:19:34Z</time>
      </trkpt>
      <trkpt lat="46.24775" lon="-0.79259">
        <ele>10.1</ele>
        <time>2020-05-31T15:19:35Z</time>
      </trkpt>
      <trkpt lat="46.24775" lon="-0.79267">
        <ele>10.1</ele>
        <time>2020-05-31T15:19:36Z</time>
      </trkpt>
      <trkpt lat="46.24776" lon="-0.79275">
        <ele>10.2</ele>
        <time>2020-05-31T15:19:37Z</time>
      </trkpt>
      <trkpt lat="46.24776" lon="-0.79283">
        <ele>10.2</ele>
        <time>2020-05-31T15:19:38Z</time>
      </trkpt>
      <trkpt lat="46.24776" lon="-0.7929">
        <ele>10.3</ele>
        <time>2020-05-31T15:19:39Z</time>
      </trkpt>
      <trkpt lat="46.24776" lon="-0.79297">
        <ele>10.3</ele>
        <time>2020-05-31T15:19:40Z</time>
      </trkpt>
      <trkpt lat="46.24775" lon="-0.79305">
        <ele>10.3</ele>
        <time>2020-05-31T15:19:41Z</time>
      </trkpt>
      <trkpt lat="46.24775" lon="-0.79312">
        <ele>10.3</ele>
        <time>2020-05-31T15:19:42Z</time>
      </trkpt>
      <trkpt lat="46.24774" lon="-0.7932">
        <ele>10.3</ele>
        <time>2020-05-31T15:19:43Z</time>
      </trkpt>
      <trkpt lat="46.24773" lon="-0.79327">
        <ele>10.3</ele>
        <time>2020-05-31T15:19:44Z</time>
      </trkpt>
      <trkpt lat="46.24772" lon="-0.79335">
        <ele>10.4</ele>
        <time>2020-05-31T15:19:45Z</time>
      </trkpt>
      <trkpt lat="46.24771" lon="-0.79343">
        <ele>10.4</ele>
        <time>2020-05-31T15:19:46Z</time>
      </trkpt>
      <trkpt lat="46.2477" lon="-0.7935">
        <ele>10.4</ele>
        <time>2020-05-31T15:19:47Z</time>
      </trkpt>
      <trkpt lat="46.24769" lon="-0.79358">
        <ele>10.4</ele>
        <time>2020-05-31T15:19:48Z</time>
      </trkpt>
      <trkpt lat="46.24768" lon="-0.79366">
        <ele>10.4</ele>
        <time>2020-05-31T15:19:49Z</time>
      </trkpt>
      <trkpt lat="46.24766" lon="-0.79374">
        <ele>10.5</ele>
        <time>2020-05-31T15:19:50Z</time>
      </trkpt>
      <trkpt lat="46.24765" lon="-0.79382">
        <ele>10.5</ele>
        <time>2020-05-31T15:19:51Z</time>
      </trkpt>
      <trkpt lat="46.24763" lon="-0.79389">
        <ele>10.5</ele>
        <time>2020-05-31T15:19:52Z</time>
      </trkpt>
      <trkpt lat="46.24761" lon="-0.79397">
        <ele>10.5</ele>
        <time>2020-05-31T15:19:53Z</time>
      </trkpt>
      <trkpt lat="46.24759" lon="-0.79405">
        <ele>10.5</ele>
        <time>2020-05-31T15:19:54Z</time>
      </trkpt>
      <trkpt lat="46.24757" lon="-0.79412">
        <ele>10.5</ele>
        <time>2020-05-31T15:19:55Z</time>
      </trkpt>
      <trkpt lat="46.24755" lon="-0.7942">
        <ele>10.6</ele>
        <time>2020-05-31T15:19:56Z</time>
      </trkpt>
      <trkpt lat="46.24753" lon="-0.79427">
        <ele>10.6</ele>
        <time>2020-05-31T15:19:57Z</time>
      </trkpt>
      <trkpt lat="46.24751" lon="-0.79434">
        <ele>10.6</ele>
        <time>2020-05-31T15:19:58Z</time>
      </trkpt>
      <trkpt lat="46.24748" lon="-0.79442">
        <ele>10.7</ele>
        <time>2020-05-31T15:19:59Z</time>
      </trkpt>
      <trkpt lat="46.24746" lon="-0.7945">
        <ele>10.7</ele>
        <time>2020-05-31T15:20:00Z</time>
      </trkpt>
      <trkpt lat="46.24744" lon="-0.79458">
        <ele>10.7</ele>
        <time>2020-05-31T15:20:01Z</time>
      </trkpt>
      <trkpt lat="46.24742" lon="-0.79466">
        <ele>10.7</ele>
        <time>2020-05-31T15:20:02Z</time>
      </trkpt>
      <trkpt lat="46.2474" lon="-0.79474">
        <ele>10.7</ele>
        <time>2020-05-31T15:20:03Z</time>
      </trkpt>
      <trkpt lat="46.24738" lon="-0.79482">
        <ele>10.7</ele>
        <time>2020-05-31T15:20:04Z</time>
      </trkpt>
      <trkpt lat="46.24736" lon="-0.7949">
        <ele>10.7</ele>
        <time>2020-05-31T15:20:05Z</time>
      </trkpt>
      <trkpt lat="46.24734" lon="-0.79498">
        <ele>10.7</ele>
        <time>2020-05-31T15:20:06Z</time>
      </trkpt>
      <trkpt lat="46.24732" lon="-0.79505">
        <ele>10.7</ele>
        <time>2020-05-31T15:20:07Z</time>
      </trkpt>
      <trkpt lat="46.2473" lon="-0.79513">
        <ele>10.7</ele>
        <time>2020-05-31T15:20:08Z</time>
      </trkpt>
      <trkpt lat="46.24727" lon="-0.79521">
        <ele>10.7</ele>
        <time>2020-05-31T15:20:09Z</time>
      </trkpt>
      <trkpt lat="46.24725" lon="-0.79529">
        <ele>10.8</ele>
        <time>2020-05-31T15:20:10Z</time>
      </trkpt>
      <trkpt lat="46.24722" lon="-0.79536">
        <ele>10.8</ele>
        <time>2020-05-31T15:20:11Z</time>
      </trkpt>
      <trkpt lat="46.2472" lon="-0.79543">
        <ele>10.9</ele>
        <time>2020-05-31T15:20:12Z</time>
      </trkpt>
      <trkpt lat="46.24717" lon="-0.7955">
        <ele>10.9</ele>
        <time>2020-05-31T15:20:13Z</time>
      </trkpt>
      <trkpt lat="46.24715" lon="-0.79557">
        <ele>11</ele>
        <time>2020-05-31T15:20:14Z</time>
      </trkpt>
      <trkpt lat="46.24713" lon="-0.79564">
        <ele>11</ele>
        <time>2020-05-31T15:20:15Z</time>
      </trkpt>
      <trkpt lat="46.24711" lon="-0.79571">
        <ele>11.1</ele>
        <time>2020-05-31T15:20:16Z</time>
      </trkpt>
      <trkpt lat="46.24709" lon="-0.79578">
        <ele>11.2</ele>
        <time>2020-05-31T15:20:17Z</time>
      </trkpt>
      <trkpt lat="46.24708" lon="-0.79584">
        <ele>11.2</ele>
        <time>2020-05-31T15:20:18Z</time>
      </trkpt>
      <trkpt lat="46.24706" lon="-0.7959">
        <ele>11.3</ele>
        <time>2020-05-31T15:20:19Z</time>
      </trkpt>
      <trkpt lat="46.24704" lon="-0.79595">
        <ele>11.3</ele>
        <time>2020-05-31T15:20:20Z</time>
      </trkpt>
      <trkpt lat="46.24702" lon="-0.79601">
        <ele>11.3</ele>
        <time>2020-05-31T15:20:21Z</time>
      </trkpt>
      <trkpt lat="46.247" lon="-0.79607">
        <ele>11.3</ele>
        <time>2020-05-31T15:20:22Z</time>
      </trkpt>
      <trkpt lat="46.24698" lon="-0.79612">
        <ele>11.4</ele>
        <time>2020-05-31T15:20:23Z</time>
      </trkpt>
      <trkpt lat="46.24696" lon="-0.79617">
        <ele>11.4</ele>
        <time>2020-05-31T15:20:24Z</time>
      </trkpt>
      <trkpt lat="46.24694" lon="-0.79621">
        <ele>11.4</ele>
        <time>2020-05-31T15:20:25Z</time>
      </trkpt>
      <trkpt lat="46.24692" lon="-0.79625">
        <ele>11.5</ele>
        <time>2020-05-31T15:20:26Z</time>
      </trkpt>
      <trkpt lat="46.24689" lon="-0.7963">
        <ele>11.5</ele>
        <time>2020-05-31T15:20:27Z</time>
      </trkpt>
      <trkpt lat="46.24687" lon="-0.79635">
        <ele>11.5</ele>
        <time>2020-05-31T15:20:28Z</time>
      </trkpt>
      <trkpt lat="46.24685" lon="-0.79641">
        <ele>11.6</ele>
        <time>2020-05-31T15:20:29Z</time>
      </trkpt>
      <trkpt lat="46.24683" lon="-0.79647">
        <ele>11.7</ele>
        <time>2020-05-31T15:20:30Z</time>
      </trkpt>
      <trkpt lat="46.24681" lon="-0.79654">
        <ele>11.7</ele>
        <time>2020-05-31T15:20:31Z</time>
      </trkpt>
      <trkpt lat="46.24679" lon="-0.7966">
        <ele>11.8</ele>
        <time>2020-05-31T15:20:32Z</time>
      </trkpt>
      <trkpt lat="46.24677" lon="-0.79666">
        <ele>11.8</ele>
        <time>2020-05-31T15:20:33Z</time>
      </trkpt>
      <trkpt lat="46.24675" lon="-0.79673">
        <ele>11.9</ele>
        <time>2020-05-31T15:20:34Z</time>
      </trkpt>
      <trkpt lat="46.24673" lon="-0.79679">
        <ele>11.9</ele>
        <time>2020-05-31T15:20:35Z</time>
      </trkpt>
      <trkpt lat="46.2467" lon="-0.79685">
        <ele>12</ele>
        <time>2020-05-31T15:20:36Z</time>
      </trkpt>
      <trkpt lat="46.24668" lon="-0.79692">
        <ele>12.1</ele>
        <time>2020-05-31T15:20:37Z</time>
      </trkpt>
      <trkpt lat="46.24666" lon="-0.79699">
        <ele>12.1</ele>
        <time>2020-05-31T15:20:38Z</time>
      </trkpt>
      <trkpt lat="46.24664" lon="-0.79705">
        <ele>12.2</ele>
        <time>2020-05-31T15:20:39Z</time>
      </trkpt>
      <trkpt lat="46.24662" lon="-0.79711">
        <ele>12.2</ele>
        <time>2020-05-31T15:20:40Z</time>
      </trkpt>
      <trkpt lat="46.24659" lon="-0.79717">
        <ele>12.2</ele>
        <time>2020-05-31T15:20:41Z</time>
      </trkpt>
      <trkpt lat="46.24657" lon="-0.79723">
        <ele>12.3</ele>
        <time>2020-05-31T15:20:42Z</time>
      </trkpt>
      <trkpt lat="46.24655" lon="-0.79729">
        <ele>12.4</ele>
        <time>2020-05-31T15:20:43Z</time>
      </trkpt>
      <trkpt lat="46.24653" lon="-0.79735">
        <ele>12.5</ele>
        <time>2020-05-31T15:20:44Z</time>
      </trkpt>
      <trkpt lat="46.2465" lon="-0.79741">
        <ele>12.6</ele>
        <time>2020-05-31T15:20:45Z</time>
      </trkpt>
      <trkpt lat="46.24648" lon="-0.79748">
        <ele>12.7</ele>
        <time>2020-05-31T15:20:46Z</time>
      </trkpt>
      <trkpt lat="46.24646" lon="-0.79755">
        <ele>12.8</ele>
        <time>2020-05-31T15:20:47Z</time>
      </trkpt>
      <trkpt lat="46.24643" lon="-0.79761">
        <ele>13</ele>
        <time>2020-05-31T15:20:48Z</time>
      </trkpt>
      <trkpt lat="46.24641" lon="-0.79767">
        <ele>13.1</ele>
        <time>2020-05-31T15:20:49Z</time>
      </trkpt>
      <trkpt lat="46.24638" lon="-0.79773">
        <ele>13.2</ele>
        <time>2020-05-31T15:20:50Z</time>
      </trkpt>
      <trkpt lat="46.24636" lon="-0.79778">
        <ele>13.2</ele>
        <time>2020-05-31T15:20:51Z</time>
      </trkpt>
      <trkpt lat="46.24634" lon="-0.79784">
        <ele>13.3</ele>
        <time>2020-05-31T15:20:52Z</time>
      </trkpt>
      <trkpt lat="46.24632" lon="-0.79789">
        <ele>13.4</ele>
        <time>2020-05-31T15:20:53Z</time>
      </trkpt>
      <trkpt lat="46.2463" lon="-0.79794">
        <ele>13.4</ele>
        <time>2020-05-31T15:20:54Z</time>
      </trkpt>
      <trkpt lat="46.24628" lon="-0.79799">
        <ele>13.5</ele>
        <time>2020-05-31T15:20:55Z</time>
      </trkpt>
      <trkpt lat="46.24626" lon="-0.79804">
        <ele>13.5</ele>
        <time>2020-05-31T15:20:56Z</time>
      </trkpt>
      <trkpt lat="46.24624" lon="-0.79809">
        <ele>13.6</ele>
        <time>2020-05-31T15:20:57Z</time>
      </trkpt>
      <trkpt lat="46.24622" lon="-0.79814">
        <ele>13.7</ele>
        <time>2020-05-31T15:20:58Z</time>
      </trkpt>
      <trkpt lat="46.24621" lon="-0.79819">
        <ele>13.7</ele>
        <time>2020-05-31T15:20:59Z</time>
      </trkpt>
      <trkpt lat="46.24619" lon="-0.79824">
        <ele>13.8</ele>
        <time>2020-05-31T15:21:00Z</time>
      </trkpt>
      <trkpt lat="46.24617" lon="-0.79829">
        <ele>13.8</ele>
        <time>2020-05-31T15:21:01Z</time>
      </trkpt>
      <trkpt lat="46.24615" lon="-0.79834">
        <ele>13.9</ele>
        <time>2020-05-31T15:21:02Z</time>
      </trkpt>
      <trkpt lat="46.24613" lon="-0.7984">
        <ele>13.9</ele>
        <time>2020-05-31T15:21:03Z</time>
      </trkpt>
      <trkpt lat="46.24611" lon="-0.79845">
        <ele>14</ele>
        <time>2020-05-31T15:21:04Z</time>
      </trkpt>
      <trkpt lat="46.2461" lon="-0.79851">
        <ele>14.1</ele>
        <time>2020-05-31T15:21:05Z</time>
      </trkpt>
      <trkpt lat="46.24608" lon="-0.79857">
        <ele>14.2</ele>
        <time>2020-05-31T15:21:06Z</time>
      </trkpt>
      <trkpt lat="46.24607" lon="-0.79863">
        <ele>14.2</ele>
        <time>2020-05-31T15:21:07Z</time>
      </trkpt>
      <trkpt lat="46.24606" lon="-0.79869">
        <ele>14.3</ele>
        <time>2020-05-31T15:21:08Z</time>
      </trkpt>
      <trkpt lat="46.24604" lon="-0.79875">
        <ele>14.4</ele>
        <time>2020-05-31T15:21:09Z</time>
      </trkpt>
      <trkpt lat="46.24603" lon="-0.79881">
        <ele>14.5</ele>
        <time>2020-05-31T15:21:10Z</time>
      </trkpt>
      <trkpt lat="46.24601" lon="-0.79887">
        <ele>14.6</ele>
        <time>2020-05-31T15:21:11Z</time>
      </trkpt>
      <trkpt lat="46.246" lon="-0.79893">
        <ele>14.6</ele>
        <time>2020-05-31T15:21:12Z</time>
      </trkpt>
      <trkpt lat="46.24598" lon="-0.799">
        <ele>14.7</ele>
        <time>2020-05-31T15:21:13Z</time>
      </trkpt>
      <trkpt lat="46.24597" lon="-0.79906">
        <ele>14.7</ele>
        <time>2020-05-31T15:21:14Z</time>
      </trkpt>
      <trkpt lat="46.24595" lon="-0.79912">
        <ele>14.8</ele>
        <time>2020-05-31T15:21:15Z</time>
      </trkpt>
      <trkpt lat="46.24594" lon="-0.79918">
        <ele>14.9</ele>
        <time>2020-05-31T15:21:16Z</time>
      </trkpt>
      <trkpt lat="46.24593" lon="-0.79925">
        <ele>14.9</ele>
        <time>2020-05-31T15:21:17Z</time>
      </trkpt>
      <trkpt lat="46.24591" lon="-0.79931">
        <ele>15</ele>
        <time>2020-05-31T15:21:18Z</time>
      </trkpt>
      <trkpt lat="46.2459" lon="-0.79937">
        <ele>15</ele>
        <time>2020-05-31T15:21:19Z</time>
      </trkpt>
      <trkpt lat="46.24589" lon="-0.79944">
        <ele>15.1</ele>
        <time>2020-05-31T15:21:20Z</time>
      </trkpt>
      <trkpt lat="46.24587" lon="-0.7995">
        <ele>15.1</ele>
        <time>2020-05-31T15:21:21Z</time>
      </trkpt>
      <trkpt lat="46.24586" lon="-0.79957">
        <ele>15.1</ele>
        <time>2020-05-31T15:21:22Z</time>
      </trkpt>
      <trkpt lat="46.24585" lon="-0.79964">
        <ele>15.2</ele>
        <time>2020-05-31T15:21:23Z</time>
      </trkpt>
      <trkpt lat="46.24583" lon="-0.79971">
        <ele>15.2</ele>
        <time>2020-05-31T15:21:24Z</time>
      </trkpt>
      <trkpt lat="46.24582" lon="-0.79978">
        <ele>15.2</ele>
        <time>2020-05-31T15:21:25Z</time>
      </trkpt>
      <trkpt lat="46.2458" lon="-0.79985">
        <ele>15.2</ele>
        <time>2020-05-31T15:21:26Z</time>
      </trkpt>
      <trkpt lat="46.24579" lon="-0.79992">
        <ele>15.3</ele>
        <time>2020-05-31T15:21:27Z</time>
      </trkpt>
      <trkpt lat="46.24578" lon="-0.79999">
        <ele>15.3</ele>
        <time>2020-05-31T15:21:28Z</time>
      </trkpt>
      <trkpt lat="46.24577" lon="-0.80007">
        <ele>15.3</ele>
        <time>2020-05-31T15:21:29Z</time>
      </trkpt>
      <trkpt lat="46.24575" lon="-0.80014">
        <ele>15.4</ele>
        <time>2020-05-31T15:21:30Z</time>
      </trkpt>
      <trkpt lat="46.24574" lon="-0.8002">
        <ele>15.4</ele>
        <time>2020-05-31T15:21:31Z</time>
      </trkpt>
      <trkpt lat="46.24572" lon="-0.80027">
        <ele>15.5</ele>
        <time>2020-05-31T15:21:32Z</time>
      </trkpt>
      <trkpt lat="46.24572" lon="-0.80034">
        <ele>15.5</ele>
        <time>2020-05-31T15:21:33Z</time>
      </trkpt>
      <trkpt lat="46.24571" lon="-0.80041">
        <ele>15.6</ele>
        <time>2020-05-31T15:21:34Z</time>
      </trkpt>
      <trkpt lat="46.24569" lon="-0.80047">
        <ele>15.6</ele>
        <time>2020-05-31T15:21:35Z</time>
      </trkpt>
      <trkpt lat="46.24567" lon="-0.80053">
        <ele>15.7</ele>
        <time>2020-05-31T15:21:36Z</time>
      </trkpt>
      <trkpt lat="46.24566" lon="-0.80058">
        <ele>15.7</ele>
        <time>2020-05-31T15:21:37Z</time>
      </trkpt>
      <trkpt lat="46.24565" lon="-0.80064">
        <ele>15.7</ele>
        <time>2020-05-31T15:21:38Z</time>
      </trkpt>
      <trkpt lat="46.24564" lon="-0.8007">
        <ele>15.8</ele>
        <time>2020-05-31T15:21:39Z</time>
      </trkpt>
      <trkpt lat="46.24563" lon="-0.80077">
        <ele>15.9</ele>
        <time>2020-05-31T15:21:40Z</time>
      </trkpt>
      <trkpt lat="46.24562" lon="-0.80083">
        <ele>15.9</ele>
        <time>2020-05-31T15:21:41Z</time>
      </trkpt>
      <trkpt lat="46.24561" lon="-0.80089">
        <ele>16</ele>
        <time>2020-05-31T15:21:42Z</time>
      </trkpt>
      <trkpt lat="46.24559" lon="-0.80095">
        <ele>16</ele>
        <time>2020-05-31T15:21:43Z</time>
      </trkpt>
      <trkpt lat="46.24558" lon="-0.80102">
        <ele>16.1</ele>
        <time>2020-05-31T15:21:44Z</time>
      </trkpt>
      <trkpt lat="46.24557" lon="-0.80108">
        <ele>16.1</ele>
        <time>2020-05-31T15:21:45Z</time>
      </trkpt>
      <trkpt lat="46.24556" lon="-0.80115">
        <ele>16.2</ele>
        <time>2020-05-31T15:21:46Z</time>
      </trkpt>
      <trkpt lat="46.24555" lon="-0.80122">
        <ele>16.2</ele>
        <time>2020-05-31T15:21:47Z</time>
      </trkpt>
      <trkpt lat="46.24553" lon="-0.80129">
        <ele>16.2</ele>
        <time>2020-05-31T15:21:48Z</time>
      </trkpt>
      <trkpt lat="46.24552" lon="-0.80136">
        <ele>16.3</ele>
        <time>2020-05-31T15:21:49Z</time>
      </trkpt>
      <trkpt lat="46.24551" lon="-0.80143">
        <ele>16.3</ele>
        <time>2020-05-31T15:21:50Z</time>
      </trkpt>
      <trkpt lat="46.24549" lon="-0.80149">
        <ele>16.3</ele>
        <time>2020-05-31T15:21:51Z</time>
      </trkpt>
      <trkpt lat="46.24547" lon="-0.80156">
        <ele>16.3</ele>
        <time>2020-05-31T15:21:52Z</time>
      </trkpt>
      <trkpt lat="46.24546" lon="-0.80163">
        <ele>16.4</ele>
        <time>2020-05-31T15:21:53Z</time>
      </trkpt>
      <trkpt lat="46.24545" lon="-0.8017">
        <ele>16.4</ele>
        <time>2020-05-31T15:21:54Z</time>
      </trkpt>
      <trkpt lat="46.24544" lon="-0.80177">
        <ele>16.4</ele>
        <time>2020-05-31T15:21:55Z</time>
      </trkpt>
      <trkpt lat="46.24543" lon="-0.80184">
        <ele>16.4</ele>
        <time>2020-05-31T15:21:56Z</time>
      </trkpt>
      <trkpt lat="46.24541" lon="-0.80192">
        <ele>16.3</ele>
        <time>2020-05-31T15:21:57Z</time>
      </trkpt>
      <trkpt lat="46.2454" lon="-0.80199">
        <ele>16.3</ele>
        <time>2020-05-31T15:21:58Z</time>
      </trkpt>
      <trkpt lat="46.2454" lon="-0.80206">
        <ele>16.3</ele>
        <time>2020-05-31T15:21:59Z</time>
      </trkpt>
      <trkpt lat="46.24539" lon="-0.80213">
        <ele>16.3</ele>
        <time>2020-05-31T15:22:00Z</time>
      </trkpt>
      <trkpt lat="46.24537" lon="-0.8022">
        <ele>16.3</ele>
        <time>2020-05-31T15:22:01Z</time>
      </trkpt>
      <trkpt lat="46.24536" lon="-0.80226">
        <ele>16.3</ele>
        <time>2020-05-31T15:22:02Z</time>
      </trkpt>
      <trkpt lat="46.24535" lon="-0.80233">
        <ele>16.3</ele>
        <time>2020-05-31T15:22:03Z</time>
      </trkpt>
      <trkpt lat="46.24534" lon="-0.8024">
        <ele>16.3</ele>
        <time>2020-05-31T15:22:04Z</time>
      </trkpt>
      <trkpt lat="46.24533" lon="-0.80247">
        <ele>16.3</ele>
        <time>2020-05-31T15:22:05Z</time>
      </trkpt>
      <trkpt lat="46.2453" lon="-0.80253">
        <ele>16.3</ele>
        <time>2020-05-31T15:22:06Z</time>
      </trkpt>
      <trkpt lat="46.24528" lon="-0.8026">
        <ele>16.3</ele>
        <time>2020-05-31T15:22:07Z</time>
      </trkpt>
      <trkpt lat="46.24527" lon="-0.80267">
        <ele>16.3</ele>
        <time>2020-05-31T15:22:08Z</time>
      </trkpt>
      <trkpt lat="46.24526" lon="-0.80274">
        <ele>16.3</ele>
        <time>2020-05-31T15:22:09Z</time>
      </trkpt>
      <trkpt lat="46.24524" lon="-0.80281">
        <ele>16.3</ele>
        <time>2020-05-31T15:22:10Z</time>
      </trkpt>
      <trkpt lat="46.24522" lon="-0.80288">
        <ele>16.3</ele>
        <time>2020-05-31T15:22:11Z</time>
      </trkpt>
      <trkpt lat="46.24521" lon="-0.80295">
        <ele>16.3</ele>
        <time>2020-05-31T15:22:12Z</time>
      </trkpt>
      <trkpt lat="46.2452" lon="-0.80303">
        <ele>16.3</ele>
        <time>2020-05-31T15:22:13Z</time>
      </trkpt>
      <trkpt lat="46.24519" lon="-0.80311">
        <ele>16.3</ele>
        <time>2020-05-31T15:22:14Z</time>
      </trkpt>
      <trkpt lat="46.24517" lon="-0.8032">
        <ele>16.3</ele>
        <time>2020-05-31T15:22:15Z</time>
      </trkpt>
      <trkpt lat="46.24516" lon="-0.80328">
        <ele>16.4</ele>
        <time>2020-05-31T15:22:16Z</time>
      </trkpt>
      <trkpt lat="46.24515" lon="-0.80336">
        <ele>16.4</ele>
        <time>2020-05-31T15:22:17Z</time>
      </trkpt>
      <trkpt lat="46.24513" lon="-0.80345">
        <ele>16.4</ele>
        <time>2020-05-31T15:22:18Z</time>
      </trkpt>
      <trkpt lat="46.24512" lon="-0.80352">
        <ele>16.5</ele>
        <time>2020-05-31T15:22:19Z</time>
      </trkpt>
      <trkpt lat="46.24511" lon="-0.8036">
        <ele>16.5</ele>
        <time>2020-05-31T15:22:20Z</time>
      </trkpt>
      <trkpt lat="46.24508" lon="-0.80367">
        <ele>16.6</ele>
        <time>2020-05-31T15:22:21Z</time>
      </trkpt>
      <trkpt lat="46.24507" lon="-0.80375">
        <ele>16.7</ele>
        <time>2020-05-31T15:22:22Z</time>
      </trkpt>
      <trkpt lat="46.24506" lon="-0.80384">
        <ele>16.7</ele>
        <time>2020-05-31T15:22:23Z</time>
      </trkpt>
      <trkpt lat="46.24504" lon="-0.80392">
        <ele>16.8</ele>
        <time>2020-05-31T15:22:24Z</time>
      </trkpt>
      <trkpt lat="46.24502" lon="-0.80401">
        <ele>16.8</ele>
        <time>2020-05-31T15:22:25Z</time>
      </trkpt>
      <trkpt lat="46.245" lon="-0.8041">
        <ele>16.9</ele>
        <time>2020-05-31T15:22:26Z</time>
      </trkpt>
      <trkpt lat="46.24499" lon="-0.80419">
        <ele>16.9</ele>
        <time>2020-05-31T15:22:27Z</time>
      </trkpt>
      <trkpt lat="46.24497" lon="-0.80428">
        <ele>17</ele>
        <time>2020-05-31T15:22:28Z</time>
      </trkpt>
      <trkpt lat="46.24496" lon="-0.80437">
        <ele>17</ele>
        <time>2020-05-31T15:22:29Z</time>
      </trkpt>
      <trkpt lat="46.24495" lon="-0.80446">
        <ele>17.1</ele>
        <time>2020-05-31T15:22:30Z</time>
      </trkpt>
      <trkpt lat="46.24494" lon="-0.80455">
        <ele>17.1</ele>
        <time>2020-05-31T15:22:31Z</time>
      </trkpt>
      <trkpt lat="46.24493" lon="-0.80463">
        <ele>17.2</ele>
        <time>2020-05-31T15:22:32Z</time>
      </trkpt>
      <trkpt lat="46.24492" lon="-0.80472">
        <ele>17.3</ele>
        <time>2020-05-31T15:22:33Z</time>
      </trkpt>
      <trkpt lat="46.24491" lon="-0.8048">
        <ele>17.4</ele>
        <time>2020-05-31T15:22:34Z</time>
      </trkpt>
      <trkpt lat="46.24489" lon="-0.80488">
        <ele>17.5</ele>
        <time>2020-05-31T15:22:35Z</time>
      </trkpt>
      <trkpt lat="46.24488" lon="-0.80496">
        <ele>17.6</ele>
        <time>2020-05-31T15:22:36Z</time>
      </trkpt>
      <trkpt lat="46.24487" lon="-0.80504">
        <ele>17.7</ele>
        <time>2020-05-31T15:22:37Z</time>
      </trkpt>
      <trkpt lat="46.24485" lon="-0.80512">
        <ele>17.9</ele>
        <time>2020-05-31T15:22:38Z</time>
      </trkpt>
      <trkpt lat="46.24483" lon="-0.80519">
        <ele>18</ele>
        <time>2020-05-31T15:22:39Z</time>
      </trkpt>
      <trkpt lat="46.24482" lon="-0.80526">
        <ele>18.1</ele>
        <time>2020-05-31T15:22:40Z</time>
      </trkpt>
      <trkpt lat="46.24481" lon="-0.80533">
        <ele>18.2</ele>
        <time>2020-05-31T15:22:41Z</time>
      </trkpt>
      <trkpt lat="46.24481" lon="-0.80539">
        <ele>18.3</ele>
        <time>2020-05-31T15:22:42Z</time>
      </trkpt>
      <trkpt lat="46.24479" lon="-0.80545">
        <ele>18.4</ele>
        <time>2020-05-31T15:22:43Z</time>
      </trkpt>
      <trkpt lat="46.24478" lon="-0.8055">
        <ele>18.5</ele>
        <time>2020-05-31T15:22:44Z</time>
      </trkpt>
      <trkpt lat="46.24477" lon="-0.80556">
        <ele>18.6</ele>
        <time>2020-05-31T15:22:45Z</time>
      </trkpt>
      <trkpt lat="46.24477" lon="-0.80561">
        <ele>18.7</ele>
        <time>2020-05-31T15:22:46Z</time>
      </trkpt>
      <trkpt lat="46.24476" lon="-0.80567">
        <ele>18.8</ele>
        <time>2020-05-31T15:22:47Z</time>
      </trkpt>
      <trkpt lat="46.24474" lon="-0.80572">
        <ele>18.9</ele>
        <time>2020-05-31T15:22:48Z</time>
      </trkpt>
      <trkpt lat="46.24473" lon="-0.80578">
        <ele>19</ele>
        <time>2020-05-31T15:22:49Z</time>
      </trkpt>
      <trkpt lat="46.24473" lon="-0.80583">
        <ele>19.1</ele>
        <time>2020-05-31T15:22:50Z</time>
      </trkpt>
      <trkpt lat="46.24472" lon="-0.80589">
        <ele>19.2</ele>
        <time>2020-05-31T15:22:51Z</time>
      </trkpt>
      <trkpt lat="46.24471" lon="-0.80595">
        <ele>19.3</ele>
        <time>2020-05-31T15:22:52Z</time>
      </trkpt>
      <trkpt lat="46.2447" lon="-0.806">
        <ele>19.3</ele>
        <time>2020-05-31T15:22:53Z</time>
      </trkpt>
      <trkpt lat="46.24469" lon="-0.80606">
        <ele>19.4</ele>
        <time>2020-05-31T15:22:54Z</time>
      </trkpt>
      <trkpt lat="46.24469" lon="-0.80612">
        <ele>19.4</ele>
        <time>2020-05-31T15:22:55Z</time>
      </trkpt>
      <trkpt lat="46.24468" lon="-0.80619">
        <ele>19.4</ele>
        <time>2020-05-31T15:22:56Z</time>
      </trkpt>
      <trkpt lat="46.24468" lon="-0.80625">
        <ele>19.5</ele>
        <time>2020-05-31T15:22:57Z</time>
      </trkpt>
      <trkpt lat="46.24467" lon="-0.80631">
        <ele>19.5</ele>
        <time>2020-05-31T15:22:58Z</time>
      </trkpt>
      <trkpt lat="46.24466" lon="-0.80637">
        <ele>19.6</ele>
        <time>2020-05-31T15:22:59Z</time>
      </trkpt>
      <trkpt lat="46.24466" lon="-0.80644">
        <ele>19.6</ele>
        <time>2020-05-31T15:23:00Z</time>
      </trkpt>
      <trkpt lat="46.24464" lon="-0.8065">
        <ele>19.7</ele>
        <time>2020-05-31T15:23:01Z</time>
      </trkpt>
      <trkpt lat="46.24463" lon="-0.80657">
        <ele>19.7</ele>
        <time>2020-05-31T15:23:02Z</time>
      </trkpt>
      <trkpt lat="46.24461" lon="-0.80663">
        <ele>19.8</ele>
        <time>2020-05-31T15:23:03Z</time>
      </trkpt>
      <trkpt lat="46.24459" lon="-0.80668">
        <ele>19.9</ele>
        <time>2020-05-31T15:23:04Z</time>
      </trkpt>
      <trkpt lat="46.24457" lon="-0.80674">
        <ele>20</ele>
        <time>2020-05-31T15:23:05Z</time>
      </trkpt>
      <trkpt lat="46.24454" lon="-0.80679">
        <ele>20.2</ele>
        <time>2020-05-31T15:23:06Z</time>
      </trkpt>
      <trkpt lat="46.24452" lon="-0.80684">
        <ele>20.4</ele>
        <time>2020-05-31T15:23:07Z</time>
      </trkpt>
      <trkpt lat="46.2445" lon="-0.8069">
        <ele>20.5</ele>
        <time>2020-05-31T15:23:08Z</time>
      </trkpt>
      <trkpt lat="46.24448" lon="-0.80695">
        <ele>20.5</ele>
        <time>2020-05-31T15:23:09Z</time>
      </trkpt>
      <trkpt lat="46.24446" lon="-0.80699">
        <ele>20.6</ele>
        <time>2020-05-31T15:23:10Z</time>
      </trkpt>
      <trkpt lat="46.24444" lon="-0.80704">
        <ele>20.6</ele>
        <time>2020-05-31T15:23:11Z</time>
      </trkpt>
      <trkpt lat="46.24441" lon="-0.80709">
        <ele>20.6</ele>
        <time>2020-05-31T15:23:12Z</time>
      </trkpt>
      <trkpt lat="46.24439" lon="-0.80713">
        <ele>20.7</ele>
        <time>2020-05-31T15:23:13Z</time>
      </trkpt>
      <trkpt lat="46.24436" lon="-0.80718">
        <ele>20.7</ele>
        <time>2020-05-31T15:23:14Z</time>
      </trkpt>
      <trkpt lat="46.24433" lon="-0.80722">
        <ele>20.7</ele>
        <time>2020-05-31T15:23:15Z</time>
      </trkpt>
      <trkpt lat="46.2443" lon="-0.80727">
        <ele>20.7</ele>
        <time>2020-05-31T15:23:16Z</time>
      </trkpt>
      <trkpt lat="46.24427" lon="-0.8073">
        <ele>20.7</ele>
        <time>2020-05-31T15:23:17Z</time>
      </trkpt>
      <trkpt lat="46.24424" lon="-0.80734">
        <ele>20.8</ele>
        <time>2020-05-31T15:23:18Z</time>
      </trkpt>
      <trkpt lat="46.2442" lon="-0.80737">
        <ele>20.8</ele>
        <time>2020-05-31T15:23:19Z</time>
      </trkpt>
      <trkpt lat="46.24417" lon="-0.80741">
        <ele>20.8</ele>
        <time>2020-05-31T15:23:20Z</time>
      </trkpt>
      <trkpt lat="46.24414" lon="-0.80744">
        <ele>20.9</ele>
        <time>2020-05-31T15:23:21Z</time>
      </trkpt>
      <trkpt lat="46.24411" lon="-0.80747">
        <ele>20.9</ele>
        <time>2020-05-31T15:23:22Z</time>
      </trkpt>
      <trkpt lat="46.24408" lon="-0.80751">
        <ele>21</ele>
        <time>2020-05-31T15:23:23Z</time>
      </trkpt>
      <trkpt lat="46.24405" lon="-0.80755">
        <ele>21</ele>
        <time>2020-05-31T15:23:24Z</time>
      </trkpt>
      <trkpt lat="46.24402" lon="-0.80758">
        <ele>21.1</ele>
        <time>2020-05-31T15:23:25Z</time>
      </trkpt>
      <trkpt lat="46.24399" lon="-0.80762">
        <ele>21.1</ele>
        <time>2020-05-31T15:23:26Z</time>
      </trkpt>
      <trkpt lat="46.24396" lon="-0.80766">
        <ele>21.2</ele>
        <time>2020-05-31T15:23:27Z</time>
      </trkpt>
      <trkpt lat="46.24394" lon="-0.8077">
        <ele>21.2</ele>
        <time>2020-05-31T15:23:28Z</time>
      </trkpt>
      <trkpt lat="46.24391" lon="-0.80773">
        <ele>21.2</ele>
        <time>2020-05-31T15:23:29Z</time>
      </trkpt>
      <trkpt lat="46.24389" lon="-0.80777">
        <ele>21.2</ele>
        <time>2020-05-31T15:23:30Z</time>
      </trkpt>
      <trkpt lat="46.24387" lon="-0.8078">
        <ele>21.2</ele>
        <time>2020-05-31T15:23:31Z</time>
      </trkpt>
      <trkpt lat="46.24384" lon="-0.80784">
        <ele>21.2</ele>
        <time>2020-05-31T15:23:32Z</time>
      </trkpt>
      <trkpt lat="46.24382" lon="-0.80788">
        <ele>21.3</ele>
        <time>2020-05-31T15:23:33Z</time>
      </trkpt>
      <trkpt lat="46.24379" lon="-0.80793">
        <ele>21.3</ele>
        <time>2020-05-31T15:23:34Z</time>
      </trkpt>
      <trkpt lat="46.24376" lon="-0.80798">
        <ele>21.4</ele>
        <time>2020-05-31T15:23:35Z</time>
      </trkpt>
      <trkpt lat="46.24373" lon="-0.80803">
        <ele>21.4</ele>
        <time>2020-05-31T15:23:36Z</time>
      </trkpt>
      <trkpt lat="46.2437" lon="-0.80809">
        <ele>21.5</ele>
        <time>2020-05-31T15:23:37Z</time>
      </trkpt>
      <trkpt lat="46.24367" lon="-0.80814">
        <ele>21.6</ele>
        <time>2020-05-31T15:23:38Z</time>
      </trkpt>
      <trkpt lat="46.24363" lon="-0.80819">
        <ele>21.6</ele>
        <time>2020-05-31T15:23:39Z</time>
      </trkpt>
      <trkpt lat="46.2436" lon="-0.80824">
        <ele>21.6</ele>
        <time>2020-05-31T15:23:40Z</time>
      </trkpt>
      <trkpt lat="46.24356" lon="-0.80829">
        <ele>21.6</ele>
        <time>2020-05-31T15:23:41Z</time>
      </trkpt>
      <trkpt lat="46.24353" lon="-0.80835">
        <ele>21.7</ele>
        <time>2020-05-31T15:23:42Z</time>
      </trkpt>
      <trkpt lat="46.24349" lon="-0.8084">
        <ele>21.8</ele>
        <time>2020-05-31T15:23:43Z</time>
      </trkpt>
      <trkpt lat="46.24346" lon="-0.80846">
        <ele>21.9</ele>
        <time>2020-05-31T15:23:44Z</time>
      </trkpt>
      <trkpt lat="46.24343" lon="-0.80851">
        <ele>22</ele>
        <time>2020-05-31T15:23:45Z</time>
      </trkpt>
      <trkpt lat="46.2434" lon="-0.80855">
        <ele>22.1</ele>
        <time>2020-05-31T15:23:46Z</time>
      </trkpt>
      <trkpt lat="46.24337" lon="-0.80859">
        <ele>22.2</ele>
        <time>2020-05-31T15:23:47Z</time>
      </trkpt>
      <trkpt lat="46.24334" lon="-0.80862">
        <ele>22.3</ele>
        <time>2020-05-31T15:23:48Z</time>
      </trkpt>
      <trkpt lat="46.24332" lon="-0.80866">
        <ele>22.3</ele>
        <time>2020-05-31T15:23:49Z</time>
      </trkpt>
      <trkpt lat="46.24329" lon="-0.80871">
        <ele>22.4</ele>
        <time>2020-05-31T15:23:50Z</time>
      </trkpt>
      <trkpt lat="46.24326" lon="-0.80876">
        <ele>22.5</ele>
        <time>2020-05-31T15:23:51Z</time>
      </trkpt>
      <trkpt lat="46.24322" lon="-0.80881">
        <ele>22.6</ele>
        <time>2020-05-31T15:23:52Z</time>
      </trkpt>
      <trkpt lat="46.24318" lon="-0.80887">
        <ele>22.6</ele>
        <time>2020-05-31T15:23:53Z</time>
      </trkpt>
      <trkpt lat="46.24314" lon="-0.80891">
        <ele>22.7</ele>
        <time>2020-05-31T15:23:54Z</time>
      </trkpt>
      <trkpt lat="46.24311" lon="-0.80895">
        <ele>22.8</ele>
        <time>2020-05-31T15:23:55Z</time>
      </trkpt>
      <trkpt lat="46.24308" lon="-0.80899">
        <ele>22.9</ele>
        <time>2020-05-31T15:23:56Z</time>
      </trkpt>
      <trkpt lat="46.24305" lon="-0.80903">
        <ele>23.1</ele>
        <time>2020-05-31T15:23:57Z</time>
      </trkpt>
      <trkpt lat="46.24303" lon="-0.80908">
        <ele>23.2</ele>
        <time>2020-05-31T15:23:58Z</time>
      </trkpt>
      <trkpt lat="46.24301" lon="-0.80913">
        <ele>23.3</ele>
        <time>2020-05-31T15:23:59Z</time>
      </trkpt>
      <trkpt lat="46.24301" lon="-0.80919">
        <ele>23.4</ele>
        <time>2020-05-31T15:24:00Z</time>
      </trkpt>
      <trkpt lat="46.24301" lon="-0.80926">
        <ele>23.8</ele>
        <time>2020-05-31T15:24:01Z</time>
      </trkpt>
      <trkpt lat="46.24302" lon="-0.80933">
        <ele>23.9</ele>
        <time>2020-05-31T15:24:02Z</time>
      </trkpt>
      <trkpt lat="46.24303" lon="-0.8094">
        <ele>23.9</ele>
        <time>2020-05-31T15:24:03Z</time>
      </trkpt>
      <trkpt lat="46.24303" lon="-0.80947">
        <ele>24</ele>
        <time>2020-05-31T15:24:04Z</time>
      </trkpt>
      <trkpt lat="46.24304" lon="-0.80953">
        <ele>24</ele>
        <time>2020-05-31T15:24:05Z</time>
      </trkpt>
      <trkpt lat="46.24304" lon="-0.8096">
        <ele>24</ele>
        <time>2020-05-31T15:24:06Z</time>
      </trkpt>
      <trkpt lat="46.24304" lon="-0.80966">
        <ele>24</ele>
        <time>2020-05-31T15:24:07Z</time>
      </trkpt>
      <trkpt lat="46.24305" lon="-0.80973">
        <ele>24</ele>
        <time>2020-05-31T15:24:08Z</time>
      </trkpt>
      <trkpt lat="46.24305" lon="-0.8098">
        <ele>24</ele>
        <time>2020-05-31T15:24:09Z</time>
      </trkpt>
      <trkpt lat="46.24306" lon="-0.80987">
        <ele>24</ele>
        <time>2020-05-31T15:24:10Z</time>
      </trkpt>
      <trkpt lat="46.24307" lon="-0.80994">
        <ele>24</ele>
        <time>2020-05-31T15:24:11Z</time>
      </trkpt>
      <trkpt lat="46.24308" lon="-0.81001">
        <ele>24</ele>
        <time>2020-05-31T15:24:12Z</time>
      </trkpt>
      <trkpt lat="46.24309" lon="-0.81009">
        <ele>23.9</ele>
        <time>2020-05-31T15:24:13Z</time>
      </trkpt>
      <trkpt lat="46.2431" lon="-0.81015">
        <ele>23.9</ele>
        <time>2020-05-31T15:24:14Z</time>
      </trkpt>
      <trkpt lat="46.24311" lon="-0.81022">
        <ele>23.9</ele>
        <time>2020-05-31T15:24:15Z</time>
      </trkpt>
      <trkpt lat="46.24311" lon="-0.8103">
        <ele>23.9</ele>
        <time>2020-05-31T15:24:16Z</time>
      </trkpt>
      <trkpt lat="46.24312" lon="-0.81037">
        <ele>23.9</ele>
        <time>2020-05-31T15:24:17Z</time>
      </trkpt>
      <trkpt lat="46.24313" lon="-0.81045">
        <ele>23.9</ele>
        <time>2020-05-31T15:24:18Z</time>
      </trkpt>
      <trkpt lat="46.24314" lon="-0.81054">
        <ele>23.9</ele>
        <time>2020-05-31T15:24:19Z</time>
      </trkpt>
      <trkpt lat="46.24315" lon="-0.81063">
        <ele>23.9</ele>
        <time>2020-05-31T15:24:20Z</time>
      </trkpt>
      <trkpt lat="46.24315" lon="-0.8107">
        <ele>23.8</ele>
        <time>2020-05-31T15:24:21Z</time>
      </trkpt>
      <trkpt lat="46.24313" lon="-0.81077">
        <ele>23.7</ele>
        <time>2020-05-31T15:24:22Z</time>
      </trkpt>
      <trkpt lat="46.24313" lon="-0.81085">
        <ele>23.7</ele>
        <time>2020-05-31T15:24:23Z</time>
      </trkpt>
      <trkpt lat="46.24314" lon="-0.81093">
        <ele>23.6</ele>
        <time>2020-05-31T15:24:24Z</time>
      </trkpt>
      <trkpt lat="46.24315" lon="-0.81102">
        <ele>23.6</ele>
        <time>2020-05-31T15:24:25Z</time>
      </trkpt>
      <trkpt lat="46.24317" lon="-0.8111">
        <ele>23.6</ele>
        <time>2020-05-31T15:24:26Z</time>
      </trkpt>
      <trkpt lat="46.24318" lon="-0.81118">
        <ele>23.4</ele>
        <time>2020-05-31T15:24:27Z</time>
      </trkpt>
      <trkpt lat="46.24319" lon="-0.81127">
        <ele>23.1</ele>
        <time>2020-05-31T15:24:28Z</time>
      </trkpt>
      <trkpt lat="46.24321" lon="-0.81135">
        <ele>22.9</ele>
        <time>2020-05-31T15:24:29Z</time>
      </trkpt>
      <trkpt lat="46.24322" lon="-0.81142">
        <ele>22.7</ele>
        <time>2020-05-31T15:24:30Z</time>
      </trkpt>
      <trkpt lat="46.24324" lon="-0.8115">
        <ele>22.3</ele>
        <time>2020-05-31T15:24:31Z</time>
      </trkpt>
      <trkpt lat="46.24325" lon="-0.81157">
        <ele>22.2</ele>
        <time>2020-05-31T15:24:32Z</time>
      </trkpt>
      <trkpt lat="46.24327" lon="-0.81164">
        <ele>22</ele>
        <time>2020-05-31T15:24:33Z</time>
      </trkpt>
      <trkpt lat="46.24329" lon="-0.8117">
        <ele>21.8</ele>
        <time>2020-05-31T15:24:34Z</time>
      </trkpt>
      <trkpt lat="46.2433" lon="-0.81176">
        <ele>21.7</ele>
        <time>2020-05-31T15:24:35Z</time>
      </trkpt>
      <trkpt lat="46.24332" lon="-0.81183">
        <ele>21.5</ele>
        <time>2020-05-31T15:24:36Z</time>
      </trkpt>
      <trkpt lat="46.24333" lon="-0.81191">
        <ele>21.4</ele>
        <time>2020-05-31T15:24:37Z</time>
      </trkpt>
      <trkpt lat="46.24335" lon="-0.81198">
        <ele>21.3</ele>
        <time>2020-05-31T15:24:38Z</time>
      </trkpt>
      <trkpt lat="46.24337" lon="-0.81206">
        <ele>21.2</ele>
        <time>2020-05-31T15:24:39Z</time>
      </trkpt>
      <trkpt lat="46.24339" lon="-0.81213">
        <ele>21.1</ele>
        <time>2020-05-31T15:24:40Z</time>
      </trkpt>
      <trkpt lat="46.24341" lon="-0.8122">
        <ele>21</ele>
        <time>2020-05-31T15:24:41Z</time>
      </trkpt>
      <trkpt lat="46.24343" lon="-0.81227">
        <ele>20.9</ele>
        <time>2020-05-31T15:24:42Z</time>
      </trkpt>
      <trkpt lat="46.24345" lon="-0.81234">
        <ele>20.8</ele>
        <time>2020-05-31T15:24:43Z</time>
      </trkpt>
      <trkpt lat="46.24347" lon="-0.8124">
        <ele>20.7</ele>
        <time>2020-05-31T15:24:44Z</time>
      </trkpt>
      <trkpt lat="46.24348" lon="-0.81247">
        <ele>20.7</ele>
        <time>2020-05-31T15:24:45Z</time>
      </trkpt>
      <trkpt lat="46.2435" lon="-0.81254">
        <ele>20.6</ele>
        <time>2020-05-31T15:24:46Z</time>
      </trkpt>
      <trkpt lat="46.24351" lon="-0.8126">
        <ele>20.5</ele>
        <time>2020-05-31T15:24:47Z</time>
      </trkpt>
      <trkpt lat="46.24352" lon="-0.81266">
        <ele>20.5</ele>
        <time>2020-05-31T15:24:48Z</time>
      </trkpt>
      <trkpt lat="46.24353" lon="-0.81271">
        <ele>20.5</ele>
        <time>2020-05-31T15:24:49Z</time>
      </trkpt>
      <trkpt lat="46.24354" lon="-0.81276">
        <ele>20.4</ele>
        <time>2020-05-31T15:24:50Z</time>
      </trkpt>
      <trkpt lat="46.24354" lon="-0.81281">
        <ele>20.4</ele>
        <time>2020-05-31T15:24:51Z</time>
      </trkpt>
      <trkpt lat="46.24354" lon="-0.81283">
        <ele>20.4</ele>
        <time>2020-05-31T15:24:52Z</time>
      </trkpt>
      <trkpt lat="46.24354" lon="-0.81287">
        <ele>20.4</ele>
        <time>2020-05-31T15:24:53Z</time>
      </trkpt>
      <trkpt lat="46.24354" lon="-0.81288">
        <ele>20.4</ele>
        <time>2020-05-31T15:24:54Z</time>
      </trkpt>
      <trkpt lat="46.24352" lon="-0.81292">
        <ele>20.4</ele>
        <time>2020-05-31T15:24:55Z</time>
      </trkpt>
      <trkpt lat="46.24351" lon="-0.81293">
        <ele>20.3</ele>
        <time>2020-05-31T15:24:56Z</time>
      </trkpt>
      <trkpt lat="46.24348" lon="-0.81298">
        <ele>20.3</ele>
        <time>2020-05-31T15:24:57Z</time>
      </trkpt>
      <trkpt lat="46.24348" lon="-0.81299">
        <ele>20.3</ele>
        <time>2020-05-31T15:24:58Z</time>
      </trkpt>
      <trkpt lat="46.24345" lon="-0.81301">
        <ele>20.3</ele>
        <time>2020-05-31T15:24:59Z</time>
      </trkpt>
      <trkpt lat="46.24343" lon="-0.81301">
        <ele>20.3</ele>
        <time>2020-05-31T15:25:00Z</time>
      </trkpt>
      <trkpt lat="46.2434" lon="-0.81302">
        <ele>20.3</ele>
        <time>2020-05-31T15:25:01Z</time>
      </trkpt>
      <trkpt lat="46.24339" lon="-0.81302">
        <ele>20.3</ele>
        <time>2020-05-31T15:25:02Z</time>
      </trkpt>
      <trkpt lat="46.24336" lon="-0.81301">
        <ele>20.3</ele>
        <time>2020-05-31T15:25:03Z</time>
      </trkpt>
      <trkpt lat="46.24336" lon="-0.813">
        <ele>20.3</ele>
        <time>2020-05-31T15:25:04Z</time>
      </trkpt>
      <trkpt lat="46.24333" lon="-0.81298">
        <ele>20.4</ele>
        <time>2020-05-31T15:25:05Z</time>
      </trkpt>
      <trkpt lat="46.24332" lon="-0.81298">
        <ele>20.4</ele>
        <time>2020-05-31T15:25:06Z</time>
      </trkpt>
      <trkpt lat="46.24329" lon="-0.81297">
        <ele>20.4</ele>
        <time>2020-05-31T15:25:07Z</time>
      </trkpt>
      <trkpt lat="46.24328" lon="-0.81297">
        <ele>20.4</ele>
        <time>2020-05-31T15:25:08Z</time>
      </trkpt>
      <trkpt lat="46.24326" lon="-0.81296">
        <ele>20.4</ele>
        <time>2020-05-31T15:25:09Z</time>
      </trkpt>
      <trkpt lat="46.24325" lon="-0.81296">
        <ele>20.4</ele>
        <time>2020-05-31T15:25:10Z</time>
      </trkpt>
      <trkpt lat="46.24321" lon="-0.81297">
        <ele>20.4</ele>
        <time>2020-05-31T15:25:11Z</time>
      </trkpt>
      <trkpt lat="46.2432" lon="-0.81298">
        <ele>20.4</ele>
        <time>2020-05-31T15:25:12Z</time>
      </trkpt>
      <trkpt lat="46.24317" lon="-0.81301">
        <ele>20.3</ele>
        <time>2020-05-31T15:25:13Z</time>
      </trkpt>
      <trkpt lat="46.24314" lon="-0.81302">
        <ele>20.3</ele>
        <time>2020-05-31T15:25:14Z</time>
      </trkpt>
      <trkpt lat="46.24311" lon="-0.81303">
        <ele>20.4</ele>
        <time>2020-05-31T15:25:15Z</time>
      </trkpt>
      <trkpt lat="46.24309" lon="-0.81303">
        <ele>20.4</ele>
        <time>2020-05-31T15:25:16Z</time>
      </trkpt>
      <trkpt lat="46.24306" lon="-0.81304">
        <ele>20.4</ele>
        <time>2020-05-31T15:25:17Z</time>
      </trkpt>
      <trkpt lat="46.24303" lon="-0.81304">
        <ele>20.5</ele>
        <time>2020-05-31T15:25:18Z</time>
      </trkpt>
      <trkpt lat="46.243" lon="-0.81305">
        <ele>20.5</ele>
        <time>2020-05-31T15:25:19Z</time>
      </trkpt>
      <trkpt lat="46.24297" lon="-0.81306">
        <ele>20.6</ele>
        <time>2020-05-31T15:25:20Z</time>
      </trkpt>
      <trkpt lat="46.24293" lon="-0.81316">
        <ele>20.7</ele>
        <time>2020-05-31T15:25:21Z</time>
      </trkpt>
      <trkpt lat="46.2429" lon="-0.81316">
        <ele>20.8</ele>
        <time>2020-05-31T15:25:22Z</time>
      </trkpt>
      <trkpt lat="46.24286" lon="-0.81315">
        <ele>20.9</ele>
        <time>2020-05-31T15:25:23Z</time>
      </trkpt>
      <trkpt lat="46.24283" lon="-0.81316">
        <ele>21</ele>
        <time>2020-05-31T15:25:24Z</time>
      </trkpt>
      <trkpt lat="46.2428" lon="-0.81316">
        <ele>21.1</ele>
        <time>2020-05-31T15:25:25Z</time>
      </trkpt>
      <trkpt lat="46.24276" lon="-0.81317">
        <ele>21.2</ele>
        <time>2020-05-31T15:25:26Z</time>
      </trkpt>
      <trkpt lat="46.24273" lon="-0.81317">
        <ele>21.2</ele>
        <time>2020-05-31T15:25:27Z</time>
      </trkpt>
      <trkpt lat="46.24269" lon="-0.81318">
        <ele>21.3</ele>
        <time>2020-05-31T15:25:28Z</time>
      </trkpt>
      <trkpt lat="46.24266" lon="-0.81319">
        <ele>21.3</ele>
        <time>2020-05-31T15:25:29Z</time>
      </trkpt>
      <trkpt lat="46.24262" lon="-0.8132">
        <ele>21.4</ele>
        <time>2020-05-31T15:25:30Z</time>
      </trkpt>
      <trkpt lat="46.24258" lon="-0.81321">
        <ele>21.4</ele>
        <time>2020-05-31T15:25:31Z</time>
      </trkpt>
      <trkpt lat="46.24254" lon="-0.81322">
        <ele>21.5</ele>
        <time>2020-05-31T15:25:32Z</time>
      </trkpt>
      <trkpt lat="46.24251" lon="-0.81323">
        <ele>21.5</ele>
        <time>2020-05-31T15:25:33Z</time>
      </trkpt>
      <trkpt lat="46.24247" lon="-0.81325">
        <ele>21.6</ele>
        <time>2020-05-31T15:25:34Z</time>
      </trkpt>
      <trkpt lat="46.24244" lon="-0.8133">
        <ele>21.6</ele>
        <time>2020-05-31T15:25:35Z</time>
      </trkpt>
      <trkpt lat="46.2424" lon="-0.81332">
        <ele>21.6</ele>
        <time>2020-05-31T15:25:36Z</time>
      </trkpt>
      <trkpt lat="46.24235" lon="-0.81334">
        <ele>21.7</ele>
        <time>2020-05-31T15:25:37Z</time>
      </trkpt>
      <trkpt lat="46.24231" lon="-0.81336">
        <ele>21.8</ele>
        <time>2020-05-31T15:25:38Z</time>
      </trkpt>
      <trkpt lat="46.24226" lon="-0.81338">
        <ele>21.8</ele>
        <time>2020-05-31T15:25:39Z</time>
      </trkpt>
      <trkpt lat="46.24222" lon="-0.8134">
        <ele>21.9</ele>
        <time>2020-05-31T15:25:40Z</time>
      </trkpt>
      <trkpt lat="46.24218" lon="-0.8134">
        <ele>22</ele>
        <time>2020-05-31T15:25:41Z</time>
      </trkpt>
      <trkpt lat="46.24214" lon="-0.81341">
        <ele>22.1</ele>
        <time>2020-05-31T15:25:42Z</time>
      </trkpt>
      <trkpt lat="46.2421" lon="-0.81343">
        <ele>22.2</ele>
        <time>2020-05-31T15:25:43Z</time>
      </trkpt>
      <trkpt lat="46.24206" lon="-0.81345">
        <ele>22.3</ele>
        <time>2020-05-31T15:25:44Z</time>
      </trkpt>
      <trkpt lat="46.24203" lon="-0.81347">
        <ele>22.4</ele>
        <time>2020-05-31T15:25:45Z</time>
      </trkpt>
      <trkpt lat="46.242" lon="-0.81348">
        <ele>22.5</ele>
        <time>2020-05-31T15:25:46Z</time>
      </trkpt>
      <trkpt lat="46.24196" lon="-0.8135">
        <ele>22.5</ele>
        <time>2020-05-31T15:25:47Z</time>
      </trkpt>
      <trkpt lat="46.24193" lon="-0.81351">
        <ele>22.6</ele>
        <time>2020-05-31T15:25:48Z</time>
      </trkpt>
      <trkpt lat="46.24189" lon="-0.81353">
        <ele>22.7</ele>
        <time>2020-05-31T15:25:49Z</time>
      </trkpt>
      <trkpt lat="46.24185" lon="-0.81356">
        <ele>22.7</ele>
        <time>2020-05-31T15:25:50Z</time>
      </trkpt>
      <trkpt lat="46.24182" lon="-0.81358">
        <ele>22.8</ele>
        <time>2020-05-31T15:25:51Z</time>
      </trkpt>
      <trkpt lat="46.24178" lon="-0.8136">
        <ele>22.9</ele>
        <time>2020-05-31T15:25:52Z</time>
      </trkpt>
      <trkpt lat="46.24175" lon="-0.81365">
        <ele>23</ele>
        <time>2020-05-31T15:25:53Z</time>
      </trkpt>
      <trkpt lat="46.24172" lon="-0.81369">
        <ele>23.1</ele>
        <time>2020-05-31T15:25:54Z</time>
      </trkpt>
      <trkpt lat="46.24169" lon="-0.81374">
        <ele>23.2</ele>
        <time>2020-05-31T15:25:55Z</time>
      </trkpt>
      <trkpt lat="46.24167" lon="-0.81379">
        <ele>23.2</ele>
        <time>2020-05-31T15:25:56Z</time>
      </trkpt>
      <trkpt lat="46.24165" lon="-0.81384">
        <ele>23.3</ele>
        <time>2020-05-31T15:25:57Z</time>
      </trkpt>
      <trkpt lat="46.24165" lon="-0.81391">
        <ele>23.5</ele>
        <time>2020-05-31T15:25:58Z</time>
      </trkpt>
      <trkpt lat="46.24163" lon="-0.81396">
        <ele>23.6</ele>
        <time>2020-05-31T15:25:59Z</time>
      </trkpt>
      <trkpt lat="46.24161" lon="-0.814">
        <ele>23.7</ele>
        <time>2020-05-31T15:26:00Z</time>
      </trkpt>
      <trkpt lat="46.24159" lon="-0.81405">
        <ele>23.8</ele>
        <time>2020-05-31T15:26:01Z</time>
      </trkpt>
      <trkpt lat="46.24157" lon="-0.8141">
        <ele>24</ele>
        <time>2020-05-31T15:26:02Z</time>
      </trkpt>
      <trkpt lat="46.24155" lon="-0.81415">
        <ele>24</ele>
        <time>2020-05-31T15:26:03Z</time>
      </trkpt>
      <trkpt lat="46.24152" lon="-0.8142">
        <ele>24.1</ele>
        <time>2020-05-31T15:26:04Z</time>
      </trkpt>
      <trkpt lat="46.24149" lon="-0.81425">
        <ele>24.2</ele>
        <time>2020-05-31T15:26:05Z</time>
      </trkpt>
      <trkpt lat="46.24146" lon="-0.81431">
        <ele>24.3</ele>
        <time>2020-05-31T15:26:06Z</time>
      </trkpt>
      <trkpt lat="46.24144" lon="-0.81437">
        <ele>24.4</ele>
        <time>2020-05-31T15:26:07Z</time>
      </trkpt>
      <trkpt lat="46.24141" lon="-0.81442">
        <ele>24.4</ele>
        <time>2020-05-31T15:26:08Z</time>
      </trkpt>
      <trkpt lat="46.24138" lon="-0.81447">
        <ele>24.4</ele>
        <time>2020-05-31T15:26:09Z</time>
      </trkpt>
      <trkpt lat="46.24135" lon="-0.81453">
        <ele>24.4</ele>
        <time>2020-05-31T15:26:10Z</time>
      </trkpt>
      <trkpt lat="46.24133" lon="-0.81459">
        <ele>24.4</ele>
        <time>2020-05-31T15:26:11Z</time>
      </trkpt>
      <trkpt lat="46.24131" lon="-0.81465">
        <ele>24.4</ele>
        <time>2020-05-31T15:26:12Z</time>
      </trkpt>
      <trkpt lat="46.24129" lon="-0.81472">
        <ele>24.4</ele>
        <time>2020-05-31T15:26:13Z</time>
      </trkpt>
      <trkpt lat="46.24124" lon="-0.81476">
        <ele>24.4</ele>
        <time>2020-05-31T15:26:14Z</time>
      </trkpt>
      <trkpt lat="46.24121" lon="-0.81482">
        <ele>24.4</ele>
        <time>2020-05-31T15:26:15Z</time>
      </trkpt>
      <trkpt lat="46.24119" lon="-0.81488">
        <ele>24.4</ele>
        <time>2020-05-31T15:26:16Z</time>
      </trkpt>
      <trkpt lat="46.24118" lon="-0.81495">
        <ele>24.4</ele>
        <time>2020-05-31T15:26:17Z</time>
      </trkpt>
      <trkpt lat="46.24116" lon="-0.81501">
        <ele>24.4</ele>
        <time>2020-05-31T15:26:18Z</time>
      </trkpt>
      <trkpt lat="46.24115" lon="-0.81508">
        <ele>24.4</ele>
        <time>2020-05-31T15:26:19Z</time>
      </trkpt>
      <trkpt lat="46.24114" lon="-0.81515">
        <ele>24.4</ele>
        <time>2020-05-31T15:26:20Z</time>
      </trkpt>
      <trkpt lat="46.24112" lon="-0.81521">
        <ele>24.4</ele>
        <time>2020-05-31T15:26:21Z</time>
      </trkpt>
      <trkpt lat="46.24111" lon="-0.81528">
        <ele>24.4</ele>
        <time>2020-05-31T15:26:22Z</time>
      </trkpt>
      <trkpt lat="46.24108" lon="-0.81534">
        <ele>24.3</ele>
        <time>2020-05-31T15:26:23Z</time>
      </trkpt>
      <trkpt lat="46.24107" lon="-0.81542">
        <ele>24.3</ele>
        <time>2020-05-31T15:26:24Z</time>
      </trkpt>
      <trkpt lat="46.24106" lon="-0.81549">
        <ele>24.3</ele>
        <time>2020-05-31T15:26:25Z</time>
      </trkpt>
      <trkpt lat="46.24104" lon="-0.81555">
        <ele>24.3</ele>
        <time>2020-05-31T15:26:26Z</time>
      </trkpt>
      <trkpt lat="46.24102" lon="-0.81562">
        <ele>24.3</ele>
        <time>2020-05-31T15:26:27Z</time>
      </trkpt>
      <trkpt lat="46.24102" lon="-0.81569">
        <ele>24.3</ele>
        <time>2020-05-31T15:26:28Z</time>
      </trkpt>
      <trkpt lat="46.241" lon="-0.81577">
        <ele>24.3</ele>
        <time>2020-05-31T15:26:29Z</time>
      </trkpt>
      <trkpt lat="46.24098" lon="-0.81584">
        <ele>24.3</ele>
        <time>2020-05-31T15:26:30Z</time>
      </trkpt>
      <trkpt lat="46.24097" lon="-0.81592">
        <ele>24.2</ele>
        <time>2020-05-31T15:26:31Z</time>
      </trkpt>
      <trkpt lat="46.24094" lon="-0.816">
        <ele>24.2</ele>
        <time>2020-05-31T15:26:32Z</time>
      </trkpt>
      <trkpt lat="46.24092" lon="-0.81607">
        <ele>24.2</ele>
        <time>2020-05-31T15:26:33Z</time>
      </trkpt>
      <trkpt lat="46.24091" lon="-0.81615">
        <ele>24.2</ele>
        <time>2020-05-31T15:26:34Z</time>
      </trkpt>
      <trkpt lat="46.24089" lon="-0.81623">
        <ele>24.2</ele>
        <time>2020-05-31T15:26:35Z</time>
      </trkpt>
      <trkpt lat="46.24087" lon="-0.81632">
        <ele>24.2</ele>
        <time>2020-05-31T15:26:36Z</time>
      </trkpt>
      <trkpt lat="46.24087" lon="-0.8164">
        <ele>24.2</ele>
        <time>2020-05-31T15:26:37Z</time>
      </trkpt>
      <trkpt lat="46.24085" lon="-0.81649">
        <ele>24.1</ele>
        <time>2020-05-31T15:26:38Z</time>
      </trkpt>
      <trkpt lat="46.24084" lon="-0.81657">
        <ele>24.1</ele>
        <time>2020-05-31T15:26:39Z</time>
      </trkpt>
      <trkpt lat="46.24085" lon="-0.81666">
        <ele>24</ele>
        <time>2020-05-31T15:26:40Z</time>
      </trkpt>
      <trkpt lat="46.24085" lon="-0.81676">
        <ele>24</ele>
        <time>2020-05-31T15:26:41Z</time>
      </trkpt>
      <trkpt lat="46.24085" lon="-0.81686">
        <ele>23.9</ele>
        <time>2020-05-31T15:26:42Z</time>
      </trkpt>
      <trkpt lat="46.24085" lon="-0.81696">
        <ele>23.9</ele>
        <time>2020-05-31T15:26:43Z</time>
      </trkpt>
      <trkpt lat="46.24085" lon="-0.81706">
        <ele>23.8</ele>
        <time>2020-05-31T15:26:44Z</time>
      </trkpt>
      <trkpt lat="46.24083" lon="-0.81716">
        <ele>23.8</ele>
        <time>2020-05-31T15:26:45Z</time>
      </trkpt>
      <trkpt lat="46.24082" lon="-0.81725">
        <ele>23.8</ele>
        <time>2020-05-31T15:26:46Z</time>
      </trkpt>
      <trkpt lat="46.24081" lon="-0.81735">
        <ele>23.8</ele>
        <time>2020-05-31T15:26:47Z</time>
      </trkpt>
      <trkpt lat="46.24082" lon="-0.81744">
        <ele>23.7</ele>
        <time>2020-05-31T15:26:48Z</time>
      </trkpt>
      <trkpt lat="46.24082" lon="-0.81753">
        <ele>23.7</ele>
        <time>2020-05-31T15:26:49Z</time>
      </trkpt>
      <trkpt lat="46.24082" lon="-0.81762">
        <ele>23.7</ele>
        <time>2020-05-31T15:26:50Z</time>
      </trkpt>
      <trkpt lat="46.24081" lon="-0.81772">
        <ele>23.8</ele>
        <time>2020-05-31T15:26:51Z</time>
      </trkpt>
      <trkpt lat="46.24081" lon="-0.81781">
        <ele>23.8</ele>
        <time>2020-05-31T15:26:52Z</time>
      </trkpt>
      <trkpt lat="46.2408" lon="-0.8179">
        <ele>23.8</ele>
        <time>2020-05-31T15:26:53Z</time>
      </trkpt>
      <trkpt lat="46.24079" lon="-0.81799">
        <ele>23.9</ele>
        <time>2020-05-31T15:26:54Z</time>
      </trkpt>
      <trkpt lat="46.24078" lon="-0.81808">
        <ele>24</ele>
        <time>2020-05-31T15:26:55Z</time>
      </trkpt>
      <trkpt lat="46.24077" lon="-0.81816">
        <ele>24.1</ele>
        <time>2020-05-31T15:26:56Z</time>
      </trkpt>
      <trkpt lat="46.24077" lon="-0.81825">
        <ele>24.3</ele>
        <time>2020-05-31T15:26:57Z</time>
      </trkpt>
      <trkpt lat="46.24076" lon="-0.81833">
        <ele>24.4</ele>
        <time>2020-05-31T15:26:58Z</time>
      </trkpt>
      <trkpt lat="46.24075" lon="-0.8184">
        <ele>24.5</ele>
        <time>2020-05-31T15:26:59Z</time>
      </trkpt>
      <trkpt lat="46.24074" lon="-0.81848">
        <ele>24.7</ele>
        <time>2020-05-31T15:27:00Z</time>
      </trkpt>
      <trkpt lat="46.24073" lon="-0.81854">
        <ele>24.8</ele>
        <time>2020-05-31T15:27:01Z</time>
      </trkpt>
      <trkpt lat="46.24072" lon="-0.81862">
        <ele>24.9</ele>
        <time>2020-05-31T15:27:02Z</time>
      </trkpt>
      <trkpt lat="46.24071" lon="-0.81868">
        <ele>25.1</ele>
        <time>2020-05-31T15:27:03Z</time>
      </trkpt>
      <trkpt lat="46.2407" lon="-0.81875">
        <ele>25.2</ele>
        <time>2020-05-31T15:27:04Z</time>
      </trkpt>
      <trkpt lat="46.24068" lon="-0.81881">
        <ele>25.3</ele>
        <time>2020-05-31T15:27:05Z</time>
      </trkpt>
      <trkpt lat="46.24067" lon="-0.81888">
        <ele>25.4</ele>
        <time>2020-05-31T15:27:06Z</time>
      </trkpt>
      <trkpt lat="46.24065" lon="-0.81894">
        <ele>25.5</ele>
        <time>2020-05-31T15:27:07Z</time>
      </trkpt>
      <trkpt lat="46.24063" lon="-0.81901">
        <ele>25.6</ele>
        <time>2020-05-31T15:27:08Z</time>
      </trkpt>
      <trkpt lat="46.24063" lon="-0.81908">
        <ele>25.7</ele>
        <time>2020-05-31T15:27:09Z</time>
      </trkpt>
      <trkpt lat="46.24062" lon="-0.81914">
        <ele>25.9</ele>
        <time>2020-05-31T15:27:10Z</time>
      </trkpt>
      <trkpt lat="46.24061" lon="-0.81921">
        <ele>26</ele>
        <time>2020-05-31T15:27:11Z</time>
      </trkpt>
      <trkpt lat="46.2406" lon="-0.81927">
        <ele>26.1</ele>
        <time>2020-05-31T15:27:12Z</time>
      </trkpt>
      <trkpt lat="46.2406" lon="-0.81933">
        <ele>26.2</ele>
        <time>2020-05-31T15:27:13Z</time>
      </trkpt>
      <trkpt lat="46.24059" lon="-0.8194">
        <ele>26.3</ele>
        <time>2020-05-31T15:27:14Z</time>
      </trkpt>
      <trkpt lat="46.24058" lon="-0.81946">
        <ele>26.4</ele>
        <time>2020-05-31T15:27:15Z</time>
      </trkpt>
      <trkpt lat="46.24057" lon="-0.81952">
        <ele>26.4</ele>
        <time>2020-05-31T15:27:16Z</time>
      </trkpt>
      <trkpt lat="46.24055" lon="-0.81958">
        <ele>26.5</ele>
        <time>2020-05-31T15:27:17Z</time>
      </trkpt>
      <trkpt lat="46.24054" lon="-0.81964">
        <ele>26.5</ele>
        <time>2020-05-31T15:27:18Z</time>
      </trkpt>
      <trkpt lat="46.24053" lon="-0.81971">
        <ele>26.5</ele>
        <time>2020-05-31T15:27:19Z</time>
      </trkpt>
      <trkpt lat="46.2405" lon="-0.81977">
        <ele>26.6</ele>
        <time>2020-05-31T15:27:20Z</time>
      </trkpt>
      <trkpt lat="46.24049" lon="-0.81983">
        <ele>26.7</ele>
        <time>2020-05-31T15:27:21Z</time>
      </trkpt>
      <trkpt lat="46.24048" lon="-0.81989">
        <ele>26.7</ele>
        <time>2020-05-31T15:27:22Z</time>
      </trkpt>
      <trkpt lat="46.24047" lon="-0.81996">
        <ele>26.8</ele>
        <time>2020-05-31T15:27:23Z</time>
      </trkpt>
      <trkpt lat="46.24044" lon="-0.82002">
        <ele>26.9</ele>
        <time>2020-05-31T15:27:24Z</time>
      </trkpt>
      <trkpt lat="46.24042" lon="-0.82008">
        <ele>26.9</ele>
        <time>2020-05-31T15:27:25Z</time>
      </trkpt>
      <trkpt lat="46.24041" lon="-0.82015">
        <ele>27</ele>
        <time>2020-05-31T15:27:26Z</time>
      </trkpt>
      <trkpt lat="46.24039" lon="-0.82022">
        <ele>27.1</ele>
        <time>2020-05-31T15:27:27Z</time>
      </trkpt>
      <trkpt lat="46.24037" lon="-0.82028">
        <ele>27.2</ele>
        <time>2020-05-31T15:27:28Z</time>
      </trkpt>
      <trkpt lat="46.24035" lon="-0.82035">
        <ele>27.2</ele>
        <time>2020-05-31T15:27:29Z</time>
      </trkpt>
      <trkpt lat="46.24033" lon="-0.82041">
        <ele>27.3</ele>
        <time>2020-05-31T15:27:30Z</time>
      </trkpt>
      <trkpt lat="46.24031" lon="-0.82048">
        <ele>27.4</ele>
        <time>2020-05-31T15:27:31Z</time>
      </trkpt>
      <trkpt lat="46.24027" lon="-0.82053">
        <ele>27.4</ele>
        <time>2020-05-31T15:27:32Z</time>
      </trkpt>
      <trkpt lat="46.24024" lon="-0.82059">
        <ele>27.4</ele>
        <time>2020-05-31T15:27:33Z</time>
      </trkpt>
      <trkpt lat="46.24021" lon="-0.82066">
        <ele>27.5</ele>
        <time>2020-05-31T15:27:34Z</time>
      </trkpt>
      <trkpt lat="46.24018" lon="-0.82072">
        <ele>27.5</ele>
        <time>2020-05-31T15:27:35Z</time>
      </trkpt>
      <trkpt lat="46.24014" lon="-0.82078">
        <ele>27.6</ele>
        <time>2020-05-31T15:27:36Z</time>
      </trkpt>
      <trkpt lat="46.24011" lon="-0.82084">
        <ele>27.6</ele>
        <time>2020-05-31T15:27:37Z</time>
      </trkpt>
      <trkpt lat="46.24007" lon="-0.8209">
        <ele>27.6</ele>
        <time>2020-05-31T15:27:38Z</time>
      </trkpt>
      <trkpt lat="46.24003" lon="-0.82096">
        <ele>27.7</ele>
        <time>2020-05-31T15:27:39Z</time>
      </trkpt>
      <trkpt lat="46.23999" lon="-0.82102">
        <ele>27.7</ele>
        <time>2020-05-31T15:27:40Z</time>
      </trkpt>
      <trkpt lat="46.23995" lon="-0.82108">
        <ele>27.8</ele>
        <time>2020-05-31T15:27:41Z</time>
      </trkpt>
      <trkpt lat="46.23991" lon="-0.82114">
        <ele>27.8</ele>
        <time>2020-05-31T15:27:42Z</time>
      </trkpt>
      <trkpt lat="46.23986" lon="-0.8212">
        <ele>27.9</ele>
        <time>2020-05-31T15:27:43Z</time>
      </trkpt>
      <trkpt lat="46.23982" lon="-0.82126">
        <ele>28</ele>
        <time>2020-05-31T15:27:44Z</time>
      </trkpt>
      <trkpt lat="46.23977" lon="-0.82131">
        <ele>28.1</ele>
        <time>2020-05-31T15:27:45Z</time>
      </trkpt>
      <trkpt lat="46.23972" lon="-0.82137">
        <ele>28.2</ele>
        <time>2020-05-31T15:27:46Z</time>
      </trkpt>
      <trkpt lat="46.23968" lon="-0.82143">
        <ele>28.3</ele>
        <time>2020-05-31T15:27:47Z</time>
      </trkpt>
      <trkpt lat="46.23962" lon="-0.82149">
        <ele>28.4</ele>
        <time>2020-05-31T15:27:48Z</time>
      </trkpt>
      <trkpt lat="46.23958" lon="-0.82155">
        <ele>28.5</ele>
        <time>2020-05-31T15:27:49Z</time>
      </trkpt>
      <trkpt lat="46.23953" lon="-0.82162">
        <ele>28.6</ele>
        <time>2020-05-31T15:27:50Z</time>
      </trkpt>
      <trkpt lat="46.23948" lon="-0.82168">
        <ele>28.7</ele>
        <time>2020-05-31T15:27:51Z</time>
      </trkpt>
      <trkpt lat="46.23943" lon="-0.82174">
        <ele>28.8</ele>
        <time>2020-05-31T15:27:52Z</time>
      </trkpt>
      <trkpt lat="46.23938" lon="-0.8218">
        <ele>29</ele>
        <time>2020-05-31T15:27:53Z</time>
      </trkpt>
      <trkpt lat="46.23933" lon="-0.82185">
        <ele>29.1</ele>
        <time>2020-05-31T15:27:54Z</time>
      </trkpt>
      <trkpt lat="46.23928" lon="-0.82191">
        <ele>29.2</ele>
        <time>2020-05-31T15:27:55Z</time>
      </trkpt>
      <trkpt lat="46.23924" lon="-0.82197">
        <ele>29.4</ele>
        <time>2020-05-31T15:27:56Z</time>
      </trkpt>
      <trkpt lat="46.23919" lon="-0.82203">
        <ele>29.5</ele>
        <time>2020-05-31T15:27:57Z</time>
      </trkpt>
      <trkpt lat="46.23915" lon="-0.8221">
        <ele>29.7</ele>
        <time>2020-05-31T15:27:58Z</time>
      </trkpt>
      <trkpt lat="46.23911" lon="-0.82216">
        <ele>29.8</ele>
        <time>2020-05-31T15:27:59Z</time>
      </trkpt>
      <trkpt lat="46.23908" lon="-0.82223">
        <ele>30</ele>
        <time>2020-05-31T15:28:00Z</time>
      </trkpt>
      <trkpt lat="46.23904" lon="-0.82229">
        <ele>30.2</ele>
        <time>2020-05-31T15:28:01Z</time>
      </trkpt>
      <trkpt lat="46.239" lon="-0.82236">
        <ele>30.3</ele>
        <time>2020-05-31T15:28:02Z</time>
      </trkpt>
      <trkpt lat="46.23897" lon="-0.82244">
        <ele>30.5</ele>
        <time>2020-05-31T15:28:03Z</time>
      </trkpt>
      <trkpt lat="46.23895" lon="-0.82251">
        <ele>30.6</ele>
        <time>2020-05-31T15:28:04Z</time>
      </trkpt>
      <trkpt lat="46.23893" lon="-0.82259">
        <ele>30.8</ele>
        <time>2020-05-31T15:28:05Z</time>
      </trkpt>
      <trkpt lat="46.23892" lon="-0.82267">
        <ele>31</ele>
        <time>2020-05-31T15:28:06Z</time>
      </trkpt>
      <trkpt lat="46.23892" lon="-0.82275">
        <ele>31.1</ele>
        <time>2020-05-31T15:28:07Z</time>
      </trkpt>
      <trkpt lat="46.23892" lon="-0.82283">
        <ele>31.3</ele>
        <time>2020-05-31T15:28:08Z</time>
      </trkpt>
      <trkpt lat="46.23892" lon="-0.82291">
        <ele>31.4</ele>
        <time>2020-05-31T15:28:09Z</time>
      </trkpt>
      <trkpt lat="46.23894" lon="-0.82298">
        <ele>31.5</ele>
        <time>2020-05-31T15:28:10Z</time>
      </trkpt>
      <trkpt lat="46.23895" lon="-0.82305">
        <ele>31.7</ele>
        <time>2020-05-31T15:28:11Z</time>
      </trkpt>
      <trkpt lat="46.23897" lon="-0.82312">
        <ele>31.9</ele>
        <time>2020-05-31T15:28:12Z</time>
      </trkpt>
      <trkpt lat="46.23899" lon="-0.8232">
        <ele>32</ele>
        <time>2020-05-31T15:28:13Z</time>
      </trkpt>
      <trkpt lat="46.239" lon="-0.82327">
        <ele>32.2</ele>
        <time>2020-05-31T15:28:14Z</time>
      </trkpt>
      <trkpt lat="46.23902" lon="-0.82334">
        <ele>32.4</ele>
        <time>2020-05-31T15:28:15Z</time>
      </trkpt>
      <trkpt lat="46.23903" lon="-0.82341">
        <ele>32.5</ele>
        <time>2020-05-31T15:28:16Z</time>
      </trkpt>
      <trkpt lat="46.23905" lon="-0.82348">
        <ele>32.7</ele>
        <time>2020-05-31T15:28:17Z</time>
      </trkpt>
      <trkpt lat="46.23906" lon="-0.82355">
        <ele>32.8</ele>
        <time>2020-05-31T15:28:18Z</time>
      </trkpt>
      <trkpt lat="46.23908" lon="-0.82362">
        <ele>33</ele>
        <time>2020-05-31T15:28:19Z</time>
      </trkpt>
      <trkpt lat="46.23909" lon="-0.82369">
        <ele>33.1</ele>
        <time>2020-05-31T15:28:20Z</time>
      </trkpt>
      <trkpt lat="46.2391" lon="-0.82376">
        <ele>33.3</ele>
        <time>2020-05-31T15:28:21Z</time>
      </trkpt>
      <trkpt lat="46.23912" lon="-0.82382">
        <ele>33.4</ele>
        <time>2020-05-31T15:28:22Z</time>
      </trkpt>
      <trkpt lat="46.23914" lon="-0.82388">
        <ele>33.5</ele>
        <time>2020-05-31T15:28:23Z</time>
      </trkpt>
      <trkpt lat="46.23916" lon="-0.82395">
        <ele>33.7</ele>
        <time>2020-05-31T15:28:24Z</time>
      </trkpt>
      <trkpt lat="46.23917" lon="-0.82401">
        <ele>33.8</ele>
        <time>2020-05-31T15:28:25Z</time>
      </trkpt>
      <trkpt lat="46.23918" lon="-0.82407">
        <ele>33.9</ele>
        <time>2020-05-31T15:28:26Z</time>
      </trkpt>
      <trkpt lat="46.23919" lon="-0.82414">
        <ele>34</ele>
        <time>2020-05-31T15:28:27Z</time>
      </trkpt>
      <trkpt lat="46.2392" lon="-0.82421">
        <ele>34.1</ele>
        <time>2020-05-31T15:28:28Z</time>
      </trkpt>
      <trkpt lat="46.23921" lon="-0.82428">
        <ele>34.3</ele>
        <time>2020-05-31T15:28:29Z</time>
      </trkpt>
      <trkpt lat="46.23923" lon="-0.82434">
        <ele>34.4</ele>
        <time>2020-05-31T15:28:30Z</time>
      </trkpt>
      <trkpt lat="46.23925" lon="-0.82441">
        <ele>34.6</ele>
        <time>2020-05-31T15:28:31Z</time>
      </trkpt>
      <trkpt lat="46.23926" lon="-0.82448">
        <ele>34.7</ele>
        <time>2020-05-31T15:28:32Z</time>
      </trkpt>
      <trkpt lat="46.23927" lon="-0.82455">
        <ele>34.8</ele>
        <time>2020-05-31T15:28:33Z</time>
      </trkpt>
      <trkpt lat="46.23928" lon="-0.82461">
        <ele>35</ele>
        <time>2020-05-31T15:28:34Z</time>
      </trkpt>
      <trkpt lat="46.23929" lon="-0.82467">
        <ele>35.1</ele>
        <time>2020-05-31T15:28:35Z</time>
      </trkpt>
      <trkpt lat="46.2393" lon="-0.82473">
        <ele>35.2</ele>
        <time>2020-05-31T15:28:36Z</time>
      </trkpt>
      <trkpt lat="46.23931" lon="-0.8248">
        <ele>35.3</ele>
        <time>2020-05-31T15:28:37Z</time>
      </trkpt>
      <trkpt lat="46.23931" lon="-0.82486">
        <ele>35.4</ele>
        <time>2020-05-31T15:28:38Z</time>
      </trkpt>
      <trkpt lat="46.23932" lon="-0.82492">
        <ele>35.5</ele>
        <time>2020-05-31T15:28:39Z</time>
      </trkpt>
      <trkpt lat="46.23932" lon="-0.82499">
        <ele>35.7</ele>
        <time>2020-05-31T15:28:40Z</time>
      </trkpt>
      <trkpt lat="46.23933" lon="-0.82505">
        <ele>35.8</ele>
        <time>2020-05-31T15:28:41Z</time>
      </trkpt>
      <trkpt lat="46.23934" lon="-0.82512">
        <ele>35.9</ele>
        <time>2020-05-31T15:28:42Z</time>
      </trkpt>
      <trkpt lat="46.23934" lon="-0.82518">
        <ele>36.1</ele>
        <time>2020-05-31T15:28:43Z</time>
      </trkpt>
      <trkpt lat="46.23935" lon="-0.82524">
        <ele>36.2</ele>
        <time>2020-05-31T15:28:44Z</time>
      </trkpt>
      <trkpt lat="46.23936" lon="-0.8253">
        <ele>36.3</ele>
        <time>2020-05-31T15:28:45Z</time>
      </trkpt>
      <trkpt lat="46.23936" lon="-0.82536">
        <ele>36.4</ele>
        <time>2020-05-31T15:28:46Z</time>
      </trkpt>
      <trkpt lat="46.23938" lon="-0.82542">
        <ele>36.6</ele>
        <time>2020-05-31T15:28:47Z</time>
      </trkpt>
      <trkpt lat="46.23939" lon="-0.82548">
        <ele>36.7</ele>
        <time>2020-05-31T15:28:48Z</time>
      </trkpt>
      <trkpt lat="46.2394" lon="-0.82554">
        <ele>36.8</ele>
        <time>2020-05-31T15:28:49Z</time>
      </trkpt>
      <trkpt lat="46.2394" lon="-0.8256">
        <ele>36.9</ele>
        <time>2020-05-31T15:28:50Z</time>
      </trkpt>
      <trkpt lat="46.23941" lon="-0.82566">
        <ele>37</ele>
        <time>2020-05-31T15:28:51Z</time>
      </trkpt>
      <trkpt lat="46.23941" lon="-0.82572">
        <ele>37.2</ele>
        <time>2020-05-31T15:28:52Z</time>
      </trkpt>
      <trkpt lat="46.23941" lon="-0.82578">
        <ele>37.3</ele>
        <time>2020-05-31T15:28:53Z</time>
      </trkpt>
      <trkpt lat="46.23942" lon="-0.82585">
        <ele>37.4</ele>
        <time>2020-05-31T15:28:54Z</time>
      </trkpt>
      <trkpt lat="46.23943" lon="-0.82591">
        <ele>37.5</ele>
        <time>2020-05-31T15:28:55Z</time>
      </trkpt>
      <trkpt lat="46.23945" lon="-0.82597">
        <ele>37.6</ele>
        <time>2020-05-31T15:28:56Z</time>
      </trkpt>
      <trkpt lat="46.23945" lon="-0.82604">
        <ele>37.8</ele>
        <time>2020-05-31T15:28:57Z</time>
      </trkpt>
      <trkpt lat="46.23946" lon="-0.8261">
        <ele>37.9</ele>
        <time>2020-05-31T15:28:58Z</time>
      </trkpt>
      <trkpt lat="46.23946" lon="-0.82617">
        <ele>38</ele>
        <time>2020-05-31T15:28:59Z</time>
      </trkpt>
      <trkpt lat="46.23946" lon="-0.82624">
        <ele>38.2</ele>
        <time>2020-05-31T15:29:00Z</time>
      </trkpt>
      <trkpt lat="46.23946" lon="-0.8263">
        <ele>38.3</ele>
        <time>2020-05-31T15:29:01Z</time>
      </trkpt>
      <trkpt lat="46.23945" lon="-0.82637">
        <ele>38.5</ele>
        <time>2020-05-31T15:29:02Z</time>
      </trkpt>
      <trkpt lat="46.23945" lon="-0.82643">
        <ele>38.6</ele>
        <time>2020-05-31T15:29:03Z</time>
      </trkpt>
      <trkpt lat="46.23943" lon="-0.82649">
        <ele>38.6</ele>
        <time>2020-05-31T15:29:04Z</time>
      </trkpt>
      <trkpt lat="46.23942" lon="-0.82654">
        <ele>38.7</ele>
        <time>2020-05-31T15:29:05Z</time>
      </trkpt>
      <trkpt lat="46.23941" lon="-0.82659">
        <ele>38.7</ele>
        <time>2020-05-31T15:29:06Z</time>
      </trkpt>
      <trkpt lat="46.23939" lon="-0.82665">
        <ele>38.8</ele>
        <time>2020-05-31T15:29:07Z</time>
      </trkpt>
      <trkpt lat="46.23938" lon="-0.8267">
        <ele>38.9</ele>
        <time>2020-05-31T15:29:08Z</time>
      </trkpt>
      <trkpt lat="46.23936" lon="-0.82676">
        <ele>39</ele>
        <time>2020-05-31T15:29:09Z</time>
      </trkpt>
      <trkpt lat="46.23935" lon="-0.82681">
        <ele>39.1</ele>
        <time>2020-05-31T15:29:10Z</time>
      </trkpt>
      <trkpt lat="46.23933" lon="-0.82685">
        <ele>39.2</ele>
        <time>2020-05-31T15:29:11Z</time>
      </trkpt>
      <trkpt lat="46.23932" lon="-0.8269">
        <ele>39.2</ele>
        <time>2020-05-31T15:29:12Z</time>
      </trkpt>
      <trkpt lat="46.23931" lon="-0.82694">
        <ele>39.3</ele>
        <time>2020-05-31T15:29:13Z</time>
      </trkpt>
      <trkpt lat="46.2393" lon="-0.82698">
        <ele>39.4</ele>
        <time>2020-05-31T15:29:14Z</time>
      </trkpt>
      <trkpt lat="46.23927" lon="-0.82701">
        <ele>39.4</ele>
        <time>2020-05-31T15:29:15Z</time>
      </trkpt>
      <trkpt lat="46.23926" lon="-0.82702">
        <ele>39.5</ele>
        <time>2020-05-31T15:29:16Z</time>
      </trkpt>
      <trkpt lat="46.23925" lon="-0.82706">
        <ele>39.5</ele>
        <time>2020-05-31T15:29:17Z</time>
      </trkpt>
      <trkpt lat="46.23925" lon="-0.82708">
        <ele>39.5</ele>
        <time>2020-05-31T15:29:18Z</time>
      </trkpt>
      <trkpt lat="46.23926" lon="-0.82712">
        <ele>39.6</ele>
        <time>2020-05-31T15:29:19Z</time>
      </trkpt>
      <trkpt lat="46.23924" lon="-0.82716">
        <ele>39.7</ele>
        <time>2020-05-31T15:29:20Z</time>
      </trkpt>
      <trkpt lat="46.23922" lon="-0.8272">
        <ele>39.8</ele>
        <time>2020-05-31T15:29:21Z</time>
      </trkpt>
      <trkpt lat="46.23919" lon="-0.82724">
        <ele>39.8</ele>
        <time>2020-05-31T15:29:22Z</time>
      </trkpt>
      <trkpt lat="46.23917" lon="-0.82728">
        <ele>39.9</ele>
        <time>2020-05-31T15:29:23Z</time>
      </trkpt>
      <trkpt lat="46.23915" lon="-0.82732">
        <ele>40</ele>
        <time>2020-05-31T15:29:24Z</time>
      </trkpt>
      <trkpt lat="46.23913" lon="-0.82737">
        <ele>40.1</ele>
        <time>2020-05-31T15:29:25Z</time>
      </trkpt>
      <trkpt lat="46.23911" lon="-0.82742">
        <ele>40.2</ele>
        <time>2020-05-31T15:29:26Z</time>
      </trkpt>
      <trkpt lat="46.2391" lon="-0.82747">
        <ele>40.3</ele>
        <time>2020-05-31T15:29:27Z</time>
      </trkpt>
      <trkpt lat="46.23909" lon="-0.82752">
        <ele>40.4</ele>
        <time>2020-05-31T15:29:28Z</time>
      </trkpt>
      <trkpt lat="46.23907" lon="-0.82758">
        <ele>40.5</ele>
        <time>2020-05-31T15:29:29Z</time>
      </trkpt>
      <trkpt lat="46.23905" lon="-0.82763">
        <ele>40.6</ele>
        <time>2020-05-31T15:29:30Z</time>
      </trkpt>
      <trkpt lat="46.23904" lon="-0.82769">
        <ele>40.7</ele>
        <time>2020-05-31T15:29:31Z</time>
      </trkpt>
      <trkpt lat="46.23902" lon="-0.82774">
        <ele>40.8</ele>
        <time>2020-05-31T15:29:32Z</time>
      </trkpt>
      <trkpt lat="46.239" lon="-0.82779">
        <ele>40.9</ele>
        <time>2020-05-31T15:29:33Z</time>
      </trkpt>
      <trkpt lat="46.23897" lon="-0.82784">
        <ele>41</ele>
        <time>2020-05-31T15:29:34Z</time>
      </trkpt>
      <trkpt lat="46.23895" lon="-0.82789">
        <ele>41</ele>
        <time>2020-05-31T15:29:35Z</time>
      </trkpt>
      <trkpt lat="46.23893" lon="-0.82795">
        <ele>41.1</ele>
        <time>2020-05-31T15:29:36Z</time>
      </trkpt>
      <trkpt lat="46.23891" lon="-0.828">
        <ele>41.2</ele>
        <time>2020-05-31T15:29:37Z</time>
      </trkpt>
      <trkpt lat="46.2389" lon="-0.82806">
        <ele>41.2</ele>
        <time>2020-05-31T15:29:38Z</time>
      </trkpt>
      <trkpt lat="46.23887" lon="-0.82811">
        <ele>41.3</ele>
        <time>2020-05-31T15:29:39Z</time>
      </trkpt>
      <trkpt lat="46.23885" lon="-0.82816">
        <ele>41.3</ele>
        <time>2020-05-31T15:29:40Z</time>
      </trkpt>
      <trkpt lat="46.23882" lon="-0.82821">
        <ele>41.4</ele>
        <time>2020-05-31T15:29:41Z</time>
      </trkpt>
      <trkpt lat="46.2388" lon="-0.82826">
        <ele>41.5</ele>
        <time>2020-05-31T15:29:42Z</time>
      </trkpt>
      <trkpt lat="46.23878" lon="-0.82832">
        <ele>41.5</ele>
        <time>2020-05-31T15:29:43Z</time>
      </trkpt>
      <trkpt lat="46.23877" lon="-0.82837">
        <ele>41.6</ele>
        <time>2020-05-31T15:29:44Z</time>
      </trkpt>
      <trkpt lat="46.23875" lon="-0.82843">
        <ele>41.6</ele>
        <time>2020-05-31T15:29:45Z</time>
      </trkpt>
      <trkpt lat="46.23874" lon="-0.82848">
        <ele>41.6</ele>
        <time>2020-05-31T15:29:46Z</time>
      </trkpt>
      <trkpt lat="46.23874" lon="-0.82854">
        <ele>41.7</ele>
        <time>2020-05-31T15:29:47Z</time>
      </trkpt>
      <trkpt lat="46.23874" lon="-0.8286">
        <ele>41.7</ele>
        <time>2020-05-31T15:29:48Z</time>
      </trkpt>
      <trkpt lat="46.23872" lon="-0.82866">
        <ele>41.7</ele>
        <time>2020-05-31T15:29:49Z</time>
      </trkpt>
      <trkpt lat="46.23871" lon="-0.82872">
        <ele>41.8</ele>
        <time>2020-05-31T15:29:50Z</time>
      </trkpt>
      <trkpt lat="46.23869" lon="-0.82877">
        <ele>41.8</ele>
        <time>2020-05-31T15:29:51Z</time>
      </trkpt>
      <trkpt lat="46.23867" lon="-0.82883">
        <ele>41.9</ele>
        <time>2020-05-31T15:29:52Z</time>
      </trkpt>
      <trkpt lat="46.23865" lon="-0.82888">
        <ele>41.9</ele>
        <time>2020-05-31T15:29:53Z</time>
      </trkpt>
      <trkpt lat="46.23864" lon="-0.82893">
        <ele>41.9</ele>
        <time>2020-05-31T15:29:54Z</time>
      </trkpt>
      <trkpt lat="46.23862" lon="-0.82899">
        <ele>42</ele>
        <time>2020-05-31T15:29:55Z</time>
      </trkpt>
      <trkpt lat="46.23861" lon="-0.82904">
        <ele>42</ele>
        <time>2020-05-31T15:29:56Z</time>
      </trkpt>
      <trkpt lat="46.23859" lon="-0.82909">
        <ele>42</ele>
        <time>2020-05-31T15:29:57Z</time>
      </trkpt>
      <trkpt lat="46.23857" lon="-0.82914">
        <ele>42.1</ele>
        <time>2020-05-31T15:29:58Z</time>
      </trkpt>
      <trkpt lat="46.23855" lon="-0.82919">
        <ele>42.1</ele>
        <time>2020-05-31T15:29:59Z</time>
      </trkpt>
      <trkpt lat="46.23854" lon="-0.82925">
        <ele>42.2</ele>
        <time>2020-05-31T15:30:00Z</time>
      </trkpt>
      <trkpt lat="46.23852" lon="-0.8293">
        <ele>42.2</ele>
        <time>2020-05-31T15:30:01Z</time>
      </trkpt>
      <trkpt lat="46.2385" lon="-0.82935">
        <ele>42.2</ele>
        <time>2020-05-31T15:30:02Z</time>
      </trkpt>
      <trkpt lat="46.23848" lon="-0.8294">
        <ele>42.2</ele>
        <time>2020-05-31T15:30:03Z</time>
      </trkpt>
      <trkpt lat="46.23847" lon="-0.82945">
        <ele>42.3</ele>
        <time>2020-05-31T15:30:04Z</time>
      </trkpt>
      <trkpt lat="46.23846" lon="-0.8295">
        <ele>42.3</ele>
        <time>2020-05-31T15:30:05Z</time>
      </trkpt>
      <trkpt lat="46.23845" lon="-0.82955">
        <ele>42.3</ele>
        <time>2020-05-31T15:30:06Z</time>
      </trkpt>
      <trkpt lat="46.23844" lon="-0.8296">
        <ele>42.3</ele>
        <time>2020-05-31T15:30:07Z</time>
      </trkpt>
      <trkpt lat="46.23843" lon="-0.82965">
        <ele>42.3</ele>
        <time>2020-05-31T15:30:08Z</time>
      </trkpt>
      <trkpt lat="46.23842" lon="-0.82971">
        <ele>42.3</ele>
        <time>2020-05-31T15:30:09Z</time>
      </trkpt>
      <trkpt lat="46.2384" lon="-0.82976">
        <ele>42.2</ele>
        <time>2020-05-31T15:30:10Z</time>
      </trkpt>
      <trkpt lat="46.23839" lon="-0.82981">
        <ele>42.2</ele>
        <time>2020-05-31T15:30:11Z</time>
      </trkpt>
      <trkpt lat="46.23837" lon="-0.82986">
        <ele>42.1</ele>
        <time>2020-05-31T15:30:12Z</time>
      </trkpt>
      <trkpt lat="46.23836" lon="-0.82991">
        <ele>42.1</ele>
        <time>2020-05-31T15:30:13Z</time>
      </trkpt>
      <trkpt lat="46.23834" lon="-0.82996">
        <ele>42</ele>
        <time>2020-05-31T15:30:14Z</time>
      </trkpt>
      <trkpt lat="46.23833" lon="-0.83001">
        <ele>42</ele>
        <time>2020-05-31T15:30:15Z</time>
      </trkpt>
      <trkpt lat="46.23832" lon="-0.83007">
        <ele>41.9</ele>
        <time>2020-05-31T15:30:16Z</time>
      </trkpt>
      <trkpt lat="46.23831" lon="-0.83013">
        <ele>41.9</ele>
        <time>2020-05-31T15:30:17Z</time>
      </trkpt>
      <trkpt lat="46.23831" lon="-0.83019">
        <ele>41.8</ele>
        <time>2020-05-31T15:30:18Z</time>
      </trkpt>
      <trkpt lat="46.23832" lon="-0.83025">
        <ele>41.7</ele>
        <time>2020-05-31T15:30:19Z</time>
      </trkpt>
      <trkpt lat="46.23831" lon="-0.8303">
        <ele>41.7</ele>
        <time>2020-05-31T15:30:20Z</time>
      </trkpt>
      <trkpt lat="46.2383" lon="-0.83036">
        <ele>41.6</ele>
        <time>2020-05-31T15:30:21Z</time>
      </trkpt>
      <trkpt lat="46.23829" lon="-0.83042">
        <ele>41.6</ele>
        <time>2020-05-31T15:30:22Z</time>
      </trkpt>
      <trkpt lat="46.23829" lon="-0.83048">
        <ele>41.6</ele>
        <time>2020-05-31T15:30:23Z</time>
      </trkpt>
      <trkpt lat="46.23827" lon="-0.83054">
        <ele>41.6</ele>
        <time>2020-05-31T15:30:24Z</time>
      </trkpt>
      <trkpt lat="46.23826" lon="-0.83059">
        <ele>41.5</ele>
        <time>2020-05-31T15:30:25Z</time>
      </trkpt>
      <trkpt lat="46.23825" lon="-0.83066">
        <ele>41.5</ele>
        <time>2020-05-31T15:30:26Z</time>
      </trkpt>
      <trkpt lat="46.23825" lon="-0.83072">
        <ele>41.5</ele>
        <time>2020-05-31T15:30:27Z</time>
      </trkpt>
      <trkpt lat="46.23825" lon="-0.83078">
        <ele>41.5</ele>
        <time>2020-05-31T15:30:28Z</time>
      </trkpt>
      <trkpt lat="46.23825" lon="-0.83084">
        <ele>41.5</ele>
        <time>2020-05-31T15:30:29Z</time>
      </trkpt>
      <trkpt lat="46.23824" lon="-0.83091">
        <ele>41.5</ele>
        <time>2020-05-31T15:30:30Z</time>
      </trkpt>
      <trkpt lat="46.23823" lon="-0.83097">
        <ele>41.6</ele>
        <time>2020-05-31T15:30:31Z</time>
      </trkpt>
      <trkpt lat="46.23823" lon="-0.83104">
        <ele>41.6</ele>
        <time>2020-05-31T15:30:32Z</time>
      </trkpt>
      <trkpt lat="46.23823" lon="-0.8311">
        <ele>41.5</ele>
        <time>2020-05-31T15:30:33Z</time>
      </trkpt>
      <trkpt lat="46.23822" lon="-0.83117">
        <ele>41.5</ele>
        <time>2020-05-31T15:30:34Z</time>
      </trkpt>
      <trkpt lat="46.23821" lon="-0.83124">
        <ele>41.5</ele>
        <time>2020-05-31T15:30:35Z</time>
      </trkpt>
      <trkpt lat="46.2382" lon="-0.8313">
        <ele>41.4</ele>
        <time>2020-05-31T15:30:36Z</time>
      </trkpt>
      <trkpt lat="46.2382" lon="-0.83137">
        <ele>41.4</ele>
        <time>2020-05-31T15:30:37Z</time>
      </trkpt>
      <trkpt lat="46.2382" lon="-0.83143">
        <ele>41.4</ele>
        <time>2020-05-31T15:30:38Z</time>
      </trkpt>
      <trkpt lat="46.23819" lon="-0.8315">
        <ele>41.4</ele>
        <time>2020-05-31T15:30:39Z</time>
      </trkpt>
      <trkpt lat="46.23818" lon="-0.83156">
        <ele>41.3</ele>
        <time>2020-05-31T15:30:40Z</time>
      </trkpt>
      <trkpt lat="46.23818" lon="-0.83163">
        <ele>41.3</ele>
        <time>2020-05-31T15:30:41Z</time>
      </trkpt>
      <trkpt lat="46.23817" lon="-0.8317">
        <ele>41.3</ele>
        <time>2020-05-31T15:30:42Z</time>
      </trkpt>
      <trkpt lat="46.23816" lon="-0.83176">
        <ele>41.2</ele>
        <time>2020-05-31T15:30:43Z</time>
      </trkpt>
      <trkpt lat="46.23816" lon="-0.83183">
        <ele>41.2</ele>
        <time>2020-05-31T15:30:44Z</time>
      </trkpt>
      <trkpt lat="46.23816" lon="-0.83188">
        <ele>41.2</ele>
        <time>2020-05-31T15:30:45Z</time>
      </trkpt>
      <trkpt lat="46.23815" lon="-0.83194">
        <ele>41.2</ele>
        <time>2020-05-31T15:30:46Z</time>
      </trkpt>
      <trkpt lat="46.23814" lon="-0.83199">
        <ele>41.1</ele>
        <time>2020-05-31T15:30:47Z</time>
      </trkpt>
      <trkpt lat="46.23813" lon="-0.83205">
        <ele>41.1</ele>
        <time>2020-05-31T15:30:48Z</time>
      </trkpt>
      <trkpt lat="46.23812" lon="-0.83211">
        <ele>41.1</ele>
        <time>2020-05-31T15:30:49Z</time>
      </trkpt>
      <trkpt lat="46.23811" lon="-0.83217">
        <ele>41.1</ele>
        <time>2020-05-31T15:30:50Z</time>
      </trkpt>
      <trkpt lat="46.2381" lon="-0.83223">
        <ele>41.1</ele>
        <time>2020-05-31T15:30:51Z</time>
      </trkpt>
      <trkpt lat="46.23808" lon="-0.83229">
        <ele>41.1</ele>
        <time>2020-05-31T15:30:52Z</time>
      </trkpt>
      <trkpt lat="46.23806" lon="-0.83234">
        <ele>41</ele>
        <time>2020-05-31T15:30:53Z</time>
      </trkpt>
      <trkpt lat="46.23804" lon="-0.8324">
        <ele>41</ele>
        <time>2020-05-31T15:30:54Z</time>
      </trkpt>
      <trkpt lat="46.23802" lon="-0.83246">
        <ele>41</ele>
        <time>2020-05-31T15:30:55Z</time>
      </trkpt>
      <trkpt lat="46.238" lon="-0.83251">
        <ele>41</ele>
        <time>2020-05-31T15:30:56Z</time>
      </trkpt>
      <trkpt lat="46.23799" lon="-0.83257">
        <ele>41</ele>
        <time>2020-05-31T15:30:57Z</time>
      </trkpt>
      <trkpt lat="46.23797" lon="-0.83262">
        <ele>41</ele>
        <time>2020-05-31T15:30:58Z</time>
      </trkpt>
      <trkpt lat="46.23796" lon="-0.83268">
        <ele>40.9</ele>
        <time>2020-05-31T15:30:59Z</time>
      </trkpt>
      <trkpt lat="46.23794" lon="-0.83273">
        <ele>40.9</ele>
        <time>2020-05-31T15:31:00Z</time>
      </trkpt>
      <trkpt lat="46.23791" lon="-0.83278">
        <ele>40.9</ele>
        <time>2020-05-31T15:31:01Z</time>
      </trkpt>
      <trkpt lat="46.2379" lon="-0.83283">
        <ele>40.9</ele>
        <time>2020-05-31T15:31:02Z</time>
      </trkpt>
      <trkpt lat="46.23788" lon="-0.83288">
        <ele>40.9</ele>
        <time>2020-05-31T15:31:03Z</time>
      </trkpt>
      <trkpt lat="46.23786" lon="-0.83294">
        <ele>40.9</ele>
        <time>2020-05-31T15:31:04Z</time>
      </trkpt>
      <trkpt lat="46.23783" lon="-0.83299">
        <ele>40.9</ele>
        <time>2020-05-31T15:31:05Z</time>
      </trkpt>
      <trkpt lat="46.23781" lon="-0.83304">
        <ele>40.9</ele>
        <time>2020-05-31T15:31:06Z</time>
      </trkpt>
      <trkpt lat="46.23778" lon="-0.83308">
        <ele>40.9</ele>
        <time>2020-05-31T15:31:07Z</time>
      </trkpt>
      <trkpt lat="46.23776" lon="-0.83313">
        <ele>40.8</ele>
        <time>2020-05-31T15:31:08Z</time>
      </trkpt>
      <trkpt lat="46.23774" lon="-0.83318">
        <ele>40.8</ele>
        <time>2020-05-31T15:31:09Z</time>
      </trkpt>
      <trkpt lat="46.23772" lon="-0.83323">
        <ele>40.8</ele>
        <time>2020-05-31T15:31:10Z</time>
      </trkpt>
      <trkpt lat="46.23769" lon="-0.83328">
        <ele>40.7</ele>
        <time>2020-05-31T15:31:11Z</time>
      </trkpt>
      <trkpt lat="46.23766" lon="-0.83331">
        <ele>40.7</ele>
        <time>2020-05-31T15:31:12Z</time>
      </trkpt>
      <trkpt lat="46.23763" lon="-0.83336">
        <ele>40.6</ele>
        <time>2020-05-31T15:31:13Z</time>
      </trkpt>
      <trkpt lat="46.23761" lon="-0.83341">
        <ele>40.6</ele>
        <time>2020-05-31T15:31:14Z</time>
      </trkpt>
      <trkpt lat="46.23758" lon="-0.83346">
        <ele>40.6</ele>
        <time>2020-05-31T15:31:15Z</time>
      </trkpt>
      <trkpt lat="46.23756" lon="-0.8335">
        <ele>40.5</ele>
        <time>2020-05-31T15:31:16Z</time>
      </trkpt>
      <trkpt lat="46.23753" lon="-0.83355">
        <ele>40.5</ele>
        <time>2020-05-31T15:31:17Z</time>
      </trkpt>
      <trkpt lat="46.2375" lon="-0.8336">
        <ele>40.5</ele>
        <time>2020-05-31T15:31:18Z</time>
      </trkpt>
      <trkpt lat="46.23747" lon="-0.83364">
        <ele>40.4</ele>
        <time>2020-05-31T15:31:19Z</time>
      </trkpt>
      <trkpt lat="46.23745" lon="-0.83369">
        <ele>40.4</ele>
        <time>2020-05-31T15:31:20Z</time>
      </trkpt>
      <trkpt lat="46.23742" lon="-0.83373">
        <ele>40.3</ele>
        <time>2020-05-31T15:31:21Z</time>
      </trkpt>
      <trkpt lat="46.23739" lon="-0.83378">
        <ele>40.3</ele>
        <time>2020-05-31T15:31:22Z</time>
      </trkpt>
      <trkpt lat="46.23737" lon="-0.83382">
        <ele>40.3</ele>
        <time>2020-05-31T15:31:23Z</time>
      </trkpt>
      <trkpt lat="46.23734" lon="-0.83387">
        <ele>40.2</ele>
        <time>2020-05-31T15:31:24Z</time>
      </trkpt>
      <trkpt lat="46.23731" lon="-0.83391">
        <ele>40.2</ele>
        <time>2020-05-31T15:31:25Z</time>
      </trkpt>
      <trkpt lat="46.23728" lon="-0.83395">
        <ele>40.2</ele>
        <time>2020-05-31T15:31:26Z</time>
      </trkpt>
      <trkpt lat="46.23725" lon="-0.83399">
        <ele>40.1</ele>
        <time>2020-05-31T15:31:27Z</time>
      </trkpt>
      <trkpt lat="46.23721" lon="-0.83402">
        <ele>40.1</ele>
        <time>2020-05-31T15:31:28Z</time>
      </trkpt>
      <trkpt lat="46.23718" lon="-0.83405">
        <ele>40.1</ele>
        <time>2020-05-31T15:31:29Z</time>
      </trkpt>
      <trkpt lat="46.23715" lon="-0.83408">
        <ele>40.1</ele>
        <time>2020-05-31T15:31:30Z</time>
      </trkpt>
      <trkpt lat="46.23711" lon="-0.83411">
        <ele>40</ele>
        <time>2020-05-31T15:31:31Z</time>
      </trkpt>
      <trkpt lat="46.23707" lon="-0.83414">
        <ele>40</ele>
        <time>2020-05-31T15:31:32Z</time>
      </trkpt>
      <trkpt lat="46.23704" lon="-0.83416">
        <ele>40</ele>
        <time>2020-05-31T15:31:33Z</time>
      </trkpt>
      <trkpt lat="46.237" lon="-0.83418">
        <ele>40</ele>
        <time>2020-05-31T15:31:34Z</time>
      </trkpt>
      <trkpt lat="46.23697" lon="-0.83421">
        <ele>40</ele>
        <time>2020-05-31T15:31:35Z</time>
      </trkpt>
      <trkpt lat="46.23693" lon="-0.83423">
        <ele>40</ele>
        <time>2020-05-31T15:31:36Z</time>
      </trkpt>
      <trkpt lat="46.23689" lon="-0.83424">
        <ele>39.9</ele>
        <time>2020-05-31T15:31:37Z</time>
      </trkpt>
      <trkpt lat="46.23686" lon="-0.83427">
        <ele>39.9</ele>
        <time>2020-05-31T15:31:38Z</time>
      </trkpt>
      <trkpt lat="46.23683" lon="-0.83429">
        <ele>39.9</ele>
        <time>2020-05-31T15:31:39Z</time>
      </trkpt>
      <trkpt lat="46.2368" lon="-0.83432">
        <ele>39.9</ele>
        <time>2020-05-31T15:31:40Z</time>
      </trkpt>
      <trkpt lat="46.23676" lon="-0.83435">
        <ele>39.9</ele>
        <time>2020-05-31T15:31:41Z</time>
      </trkpt>
      <trkpt lat="46.23672" lon="-0.83437">
        <ele>39.9</ele>
        <time>2020-05-31T15:31:42Z</time>
      </trkpt>
      <trkpt lat="46.23668" lon="-0.83438">
        <ele>39.9</ele>
        <time>2020-05-31T15:31:43Z</time>
      </trkpt>
      <trkpt lat="46.23664" lon="-0.83441">
        <ele>39.9</ele>
        <time>2020-05-31T15:31:44Z</time>
      </trkpt>
      <trkpt lat="46.23661" lon="-0.83443">
        <ele>39.9</ele>
        <time>2020-05-31T15:31:45Z</time>
      </trkpt>
      <trkpt lat="46.23658" lon="-0.83444">
        <ele>39.8</ele>
        <time>2020-05-31T15:31:46Z</time>
      </trkpt>
      <trkpt lat="46.23655" lon="-0.83446">
        <ele>39.8</ele>
        <time>2020-05-31T15:31:47Z</time>
      </trkpt>
      <trkpt lat="46.23651" lon="-0.83447">
        <ele>39.8</ele>
        <time>2020-05-31T15:31:48Z</time>
      </trkpt>
      <trkpt lat="46.23648" lon="-0.83448">
        <ele>39.8</ele>
        <time>2020-05-31T15:31:49Z</time>
      </trkpt>
      <trkpt lat="46.23644" lon="-0.8345">
        <ele>39.8</ele>
        <time>2020-05-31T15:31:50Z</time>
      </trkpt>
      <trkpt lat="46.23641" lon="-0.83452">
        <ele>39.8</ele>
        <time>2020-05-31T15:31:51Z</time>
      </trkpt>
      <trkpt lat="46.23638" lon="-0.83455">
        <ele>39.8</ele>
        <time>2020-05-31T15:31:52Z</time>
      </trkpt>
      <trkpt lat="46.23635" lon="-0.83458">
        <ele>39.8</ele>
        <time>2020-05-31T15:31:53Z</time>
      </trkpt>
      <trkpt lat="46.23632" lon="-0.8346">
        <ele>39.8</ele>
        <time>2020-05-31T15:31:54Z</time>
      </trkpt>
      <trkpt lat="46.23629" lon="-0.83462">
        <ele>39.8</ele>
        <time>2020-05-31T15:31:55Z</time>
      </trkpt>
      <trkpt lat="46.23626" lon="-0.83465">
        <ele>39.8</ele>
        <time>2020-05-31T15:31:56Z</time>
      </trkpt>
      <trkpt lat="46.23623" lon="-0.83468">
        <ele>39.8</ele>
        <time>2020-05-31T15:31:57Z</time>
      </trkpt>
      <trkpt lat="46.2362" lon="-0.83469">
        <ele>39.8</ele>
        <time>2020-05-31T15:31:58Z</time>
      </trkpt>
      <trkpt lat="46.23617" lon="-0.8347">
        <ele>39.8</ele>
        <time>2020-05-31T15:31:59Z</time>
      </trkpt>
      <trkpt lat="46.23614" lon="-0.83471">
        <ele>39.8</ele>
        <time>2020-05-31T15:32:00Z</time>
      </trkpt>
      <trkpt lat="46.23611" lon="-0.83473">
        <ele>39.8</ele>
        <time>2020-05-31T15:32:01Z</time>
      </trkpt>
      <trkpt lat="46.23608" lon="-0.83475">
        <ele>39.8</ele>
        <time>2020-05-31T15:32:02Z</time>
      </trkpt>
      <trkpt lat="46.23605" lon="-0.83477">
        <ele>39.8</ele>
        <time>2020-05-31T15:32:03Z</time>
      </trkpt>
      <trkpt lat="46.23602" lon="-0.83478">
        <ele>39.8</ele>
        <time>2020-05-31T15:32:04Z</time>
      </trkpt>
      <trkpt lat="46.23599" lon="-0.8348">
        <ele>39.8</ele>
        <time>2020-05-31T15:32:05Z</time>
      </trkpt>
      <trkpt lat="46.23596" lon="-0.83482">
        <ele>39.7</ele>
        <time>2020-05-31T15:32:06Z</time>
      </trkpt>
      <trkpt lat="46.23593" lon="-0.83485">
        <ele>39.7</ele>
        <time>2020-05-31T15:32:07Z</time>
      </trkpt>
      <trkpt lat="46.2359" lon="-0.83486">
        <ele>39.7</ele>
        <time>2020-05-31T15:32:08Z</time>
      </trkpt>
      <trkpt lat="46.23587" lon="-0.83488">
        <ele>39.7</ele>
        <time>2020-05-31T15:32:09Z</time>
      </trkpt>
      <trkpt lat="46.23584" lon="-0.83489">
        <ele>39.7</ele>
        <time>2020-05-31T15:32:10Z</time>
      </trkpt>
      <trkpt lat="46.23581" lon="-0.83492">
        <ele>39.7</ele>
        <time>2020-05-31T15:32:11Z</time>
      </trkpt>
      <trkpt lat="46.23578" lon="-0.83494">
        <ele>39.7</ele>
        <time>2020-05-31T15:32:12Z</time>
      </trkpt>
      <trkpt lat="46.23575" lon="-0.83496">
        <ele>39.6</ele>
        <time>2020-05-31T15:32:13Z</time>
      </trkpt>
      <trkpt lat="46.23572" lon="-0.83497">
        <ele>39.6</ele>
        <time>2020-05-31T15:32:14Z</time>
      </trkpt>
      <trkpt lat="46.23569" lon="-0.83498">
        <ele>39.6</ele>
        <time>2020-05-31T15:32:15Z</time>
      </trkpt>
      <trkpt lat="46.23566" lon="-0.83499">
        <ele>39.6</ele>
        <time>2020-05-31T15:32:16Z</time>
      </trkpt>
      <trkpt lat="46.23563" lon="-0.835">
        <ele>39.6</ele>
        <time>2020-05-31T15:32:17Z</time>
      </trkpt>
      <trkpt lat="46.2356" lon="-0.83502">
        <ele>39.6</ele>
        <time>2020-05-31T15:32:18Z</time>
      </trkpt>
      <trkpt lat="46.23557" lon="-0.83504">
        <ele>39.5</ele>
        <time>2020-05-31T15:32:19Z</time>
      </trkpt>
      <trkpt lat="46.23554" lon="-0.83506">
        <ele>39.5</ele>
        <time>2020-05-31T15:32:20Z</time>
      </trkpt>
      <trkpt lat="46.23551" lon="-0.83508">
        <ele>39.5</ele>
        <time>2020-05-31T15:32:21Z</time>
      </trkpt>
      <trkpt lat="46.23548" lon="-0.8351">
        <ele>39.5</ele>
        <time>2020-05-31T15:32:22Z</time>
      </trkpt>
      <trkpt lat="46.23545" lon="-0.83512">
        <ele>39.5</ele>
        <time>2020-05-31T15:32:23Z</time>
      </trkpt>
      <trkpt lat="46.23543" lon="-0.83516">
        <ele>39.5</ele>
        <time>2020-05-31T15:32:24Z</time>
      </trkpt>
      <trkpt lat="46.2354" lon="-0.83518">
        <ele>39.5</ele>
        <time>2020-05-31T15:32:25Z</time>
      </trkpt>
      <trkpt lat="46.23537" lon="-0.83519">
        <ele>39.4</ele>
        <time>2020-05-31T15:32:26Z</time>
      </trkpt>
      <trkpt lat="46.23534" lon="-0.83523">
        <ele>39.4</ele>
        <time>2020-05-31T15:32:27Z</time>
      </trkpt>
      <trkpt lat="46.23532" lon="-0.83525">
        <ele>39.4</ele>
        <time>2020-05-31T15:32:28Z</time>
      </trkpt>
      <trkpt lat="46.23529" lon="-0.83528">
        <ele>39.4</ele>
        <time>2020-05-31T15:32:29Z</time>
      </trkpt>
      <trkpt lat="46.23526" lon="-0.83531">
        <ele>39.4</ele>
        <time>2020-05-31T15:32:30Z</time>
      </trkpt>
      <trkpt lat="46.23523" lon="-0.83534">
        <ele>39.4</ele>
        <time>2020-05-31T15:32:31Z</time>
      </trkpt>
      <trkpt lat="46.23521" lon="-0.83537">
        <ele>39.4</ele>
        <time>2020-05-31T15:32:32Z</time>
      </trkpt>
      <trkpt lat="46.23517" lon="-0.83539">
        <ele>39.4</ele>
        <time>2020-05-31T15:32:33Z</time>
      </trkpt>
      <trkpt lat="46.23514" lon="-0.83542">
        <ele>39.3</ele>
        <time>2020-05-31T15:32:34Z</time>
      </trkpt>
      <trkpt lat="46.23511" lon="-0.83546">
        <ele>39.3</ele>
        <time>2020-05-31T15:32:35Z</time>
      </trkpt>
      <trkpt lat="46.23509" lon="-0.83549">
        <ele>39.3</ele>
        <time>2020-05-31T15:32:36Z</time>
      </trkpt>
      <trkpt lat="46.23506" lon="-0.83553">
        <ele>39.3</ele>
        <time>2020-05-31T15:32:37Z</time>
      </trkpt>
      <trkpt lat="46.23503" lon="-0.83556">
        <ele>39.3</ele>
        <time>2020-05-31T15:32:38Z</time>
      </trkpt>
      <trkpt lat="46.235" lon="-0.8356">
        <ele>39.3</ele>
        <time>2020-05-31T15:32:39Z</time>
      </trkpt>
      <trkpt lat="46.23497" lon="-0.83562">
        <ele>39.2</ele>
        <time>2020-05-31T15:32:40Z</time>
      </trkpt>
      <trkpt lat="46.23494" lon="-0.83565">
        <ele>39.2</ele>
        <time>2020-05-31T15:32:41Z</time>
      </trkpt>
      <trkpt lat="46.23492" lon="-0.83569">
        <ele>39.2</ele>
        <time>2020-05-31T15:32:42Z</time>
      </trkpt>
      <trkpt lat="46.23489" lon="-0.83573">
        <ele>39.2</ele>
        <time>2020-05-31T15:32:43Z</time>
      </trkpt>
      <trkpt lat="46.23487" lon="-0.83577">
        <ele>39.1</ele>
        <time>2020-05-31T15:32:44Z</time>
      </trkpt>
      <trkpt lat="46.23484" lon="-0.83581">
        <ele>39.1</ele>
        <time>2020-05-31T15:32:45Z</time>
      </trkpt>
      <trkpt lat="46.23482" lon="-0.83584">
        <ele>39.1</ele>
        <time>2020-05-31T15:32:46Z</time>
      </trkpt>
      <trkpt lat="46.23479" lon="-0.83588">
        <ele>39.1</ele>
        <time>2020-05-31T15:32:47Z</time>
      </trkpt>
      <trkpt lat="46.23477" lon="-0.83593">
        <ele>39</ele>
        <time>2020-05-31T15:32:48Z</time>
      </trkpt>
      <trkpt lat="46.23476" lon="-0.83598">
        <ele>39</ele>
        <time>2020-05-31T15:32:49Z</time>
      </trkpt>
      <trkpt lat="46.23474" lon="-0.83603">
        <ele>39</ele>
        <time>2020-05-31T15:32:50Z</time>
      </trkpt>
      <trkpt lat="46.23472" lon="-0.83608">
        <ele>39</ele>
        <time>2020-05-31T15:32:51Z</time>
      </trkpt>
      <trkpt lat="46.2347" lon="-0.83613">
        <ele>38.9</ele>
        <time>2020-05-31T15:32:52Z</time>
      </trkpt>
      <trkpt lat="46.23468" lon="-0.83618">
        <ele>38.9</ele>
        <time>2020-05-31T15:32:53Z</time>
      </trkpt>
      <trkpt lat="46.23468" lon="-0.83623">
        <ele>38.8</ele>
        <time>2020-05-31T15:32:54Z</time>
      </trkpt>
      <trkpt lat="46.23467" lon="-0.8363">
        <ele>38.8</ele>
        <time>2020-05-31T15:32:55Z</time>
      </trkpt>
      <trkpt lat="46.23465" lon="-0.83636">
        <ele>38.7</ele>
        <time>2020-05-31T15:32:56Z</time>
      </trkpt>
      <trkpt lat="46.23464" lon="-0.83642">
        <ele>38.7</ele>
        <time>2020-05-31T15:32:57Z</time>
      </trkpt>
      <trkpt lat="46.23463" lon="-0.83648">
        <ele>38.6</ele>
        <time>2020-05-31T15:32:58Z</time>
      </trkpt>
      <trkpt lat="46.23463" lon="-0.83655">
        <ele>38.5</ele>
        <time>2020-05-31T15:32:59Z</time>
      </trkpt>
      <trkpt lat="46.23462" lon="-0.83662">
        <ele>38.4</ele>
        <time>2020-05-31T15:33:00Z</time>
      </trkpt>
      <trkpt lat="46.23461" lon="-0.83668">
        <ele>38.3</ele>
        <time>2020-05-31T15:33:01Z</time>
      </trkpt>
      <trkpt lat="46.23461" lon="-0.83675">
        <ele>38.3</ele>
        <time>2020-05-31T15:33:02Z</time>
      </trkpt>
      <trkpt lat="46.23461" lon="-0.83682">
        <ele>38.2</ele>
        <time>2020-05-31T15:33:03Z</time>
      </trkpt>
      <trkpt lat="46.2346" lon="-0.83688">
        <ele>38.1</ele>
        <time>2020-05-31T15:33:04Z</time>
      </trkpt>
      <trkpt lat="46.23459" lon="-0.83695">
        <ele>38</ele>
        <time>2020-05-31T15:33:05Z</time>
      </trkpt>
      <trkpt lat="46.23458" lon="-0.83702">
        <ele>37.9</ele>
        <time>2020-05-31T15:33:06Z</time>
      </trkpt>
      <trkpt lat="46.23458" lon="-0.83709">
        <ele>37.8</ele>
        <time>2020-05-31T15:33:07Z</time>
      </trkpt>
      <trkpt lat="46.23455" lon="-0.83715">
        <ele>37.7</ele>
        <time>2020-05-31T15:33:08Z</time>
      </trkpt>
      <trkpt lat="46.23454" lon="-0.83721">
        <ele>37.6</ele>
        <time>2020-05-31T15:33:09Z</time>
      </trkpt>
      <trkpt lat="46.23451" lon="-0.83728">
        <ele>37.5</ele>
        <time>2020-05-31T15:33:10Z</time>
      </trkpt>
      <trkpt lat="46.2345" lon="-0.83735">
        <ele>37.3</ele>
        <time>2020-05-31T15:33:11Z</time>
      </trkpt>
      <trkpt lat="46.23448" lon="-0.83742">
        <ele>37.2</ele>
        <time>2020-05-31T15:33:12Z</time>
      </trkpt>
      <trkpt lat="46.23446" lon="-0.83749">
        <ele>37.1</ele>
        <time>2020-05-31T15:33:13Z</time>
      </trkpt>
      <trkpt lat="46.23445" lon="-0.83757">
        <ele>37</ele>
        <time>2020-05-31T15:33:14Z</time>
      </trkpt>
      <trkpt lat="46.23445" lon="-0.83765">
        <ele>36.9</ele>
        <time>2020-05-31T15:33:15Z</time>
      </trkpt>
      <trkpt lat="46.23444" lon="-0.83773">
        <ele>36.8</ele>
        <time>2020-05-31T15:33:16Z</time>
      </trkpt>
      <trkpt lat="46.23444" lon="-0.83781">
        <ele>36.7</ele>
        <time>2020-05-31T15:33:17Z</time>
      </trkpt>
      <trkpt lat="46.23443" lon="-0.83788">
        <ele>36.6</ele>
        <time>2020-05-31T15:33:18Z</time>
      </trkpt>
      <trkpt lat="46.23443" lon="-0.83797">
        <ele>36.5</ele>
        <time>2020-05-31T15:33:19Z</time>
      </trkpt>
      <trkpt lat="46.23442" lon="-0.83805">
        <ele>36.4</ele>
        <time>2020-05-31T15:33:20Z</time>
      </trkpt>
      <trkpt lat="46.2344" lon="-0.83813">
        <ele>36.3</ele>
        <time>2020-05-31T15:33:21Z</time>
      </trkpt>
      <trkpt lat="46.23439" lon="-0.83821">
        <ele>36.2</ele>
        <time>2020-05-31T15:33:22Z</time>
      </trkpt>
      <trkpt lat="46.23439" lon="-0.83829">
        <ele>36</ele>
        <time>2020-05-31T15:33:23Z</time>
      </trkpt>
      <trkpt lat="46.23438" lon="-0.83837">
        <ele>35.9</ele>
        <time>2020-05-31T15:33:24Z</time>
      </trkpt>
      <trkpt lat="46.23437" lon="-0.83846">
        <ele>35.8</ele>
        <time>2020-05-31T15:33:25Z</time>
      </trkpt>
      <trkpt lat="46.23437" lon="-0.83855">
        <ele>35.7</ele>
        <time>2020-05-31T15:33:26Z</time>
      </trkpt>
      <trkpt lat="46.23436" lon="-0.83863">
        <ele>35.5</ele>
        <time>2020-05-31T15:33:27Z</time>
      </trkpt>
      <trkpt lat="46.23435" lon="-0.83872">
        <ele>35.3</ele>
        <time>2020-05-31T15:33:28Z</time>
      </trkpt>
      <trkpt lat="46.23434" lon="-0.8388">
        <ele>35.2</ele>
        <time>2020-05-31T15:33:29Z</time>
      </trkpt>
      <trkpt lat="46.23433" lon="-0.83889">
        <ele>35</ele>
        <time>2020-05-31T15:33:30Z</time>
      </trkpt>
      <trkpt lat="46.23432" lon="-0.83898">
        <ele>34.9</ele>
        <time>2020-05-31T15:33:31Z</time>
      </trkpt>
      <trkpt lat="46.2343" lon="-0.83907">
        <ele>34.7</ele>
        <time>2020-05-31T15:33:32Z</time>
      </trkpt>
      <trkpt lat="46.23429" lon="-0.83916">
        <ele>34.6</ele>
        <time>2020-05-31T15:33:33Z</time>
      </trkpt>
      <trkpt lat="46.23427" lon="-0.83925">
        <ele>34.4</ele>
        <time>2020-05-31T15:33:34Z</time>
      </trkpt>
      <trkpt lat="46.23426" lon="-0.83935">
        <ele>34.2</ele>
        <time>2020-05-31T15:33:35Z</time>
      </trkpt>
      <trkpt lat="46.23425" lon="-0.83944">
        <ele>34.1</ele>
        <time>2020-05-31T15:33:36Z</time>
      </trkpt>
      <trkpt lat="46.23423" lon="-0.83954">
        <ele>33.9</ele>
        <time>2020-05-31T15:33:37Z</time>
      </trkpt>
      <trkpt lat="46.23421" lon="-0.83963">
        <ele>33.7</ele>
        <time>2020-05-31T15:33:38Z</time>
      </trkpt>
      <trkpt lat="46.2342" lon="-0.83973">
        <ele>33.6</ele>
        <time>2020-05-31T15:33:39Z</time>
      </trkpt>
      <trkpt lat="46.23419" lon="-0.83982">
        <ele>33.4</ele>
        <time>2020-05-31T15:33:40Z</time>
      </trkpt>
      <trkpt lat="46.23419" lon="-0.83993">
        <ele>33.3</ele>
        <time>2020-05-31T15:33:41Z</time>
      </trkpt>
      <trkpt lat="46.23417" lon="-0.84002">
        <ele>33.2</ele>
        <time>2020-05-31T15:33:42Z</time>
      </trkpt>
      <trkpt lat="46.23416" lon="-0.84012">
        <ele>33</ele>
        <time>2020-05-31T15:33:43Z</time>
      </trkpt>
      <trkpt lat="46.23415" lon="-0.84022">
        <ele>32.9</ele>
        <time>2020-05-31T15:33:44Z</time>
      </trkpt>
      <trkpt lat="46.23413" lon="-0.84032">
        <ele>32.7</ele>
        <time>2020-05-31T15:33:45Z</time>
      </trkpt>
      <trkpt lat="46.23412" lon="-0.84043">
        <ele>32.6</ele>
        <time>2020-05-31T15:33:46Z</time>
      </trkpt>
      <trkpt lat="46.2341" lon="-0.84053">
        <ele>32.4</ele>
        <time>2020-05-31T15:33:47Z</time>
      </trkpt>
      <trkpt lat="46.23408" lon="-0.84064">
        <ele>32.3</ele>
        <time>2020-05-31T15:33:48Z</time>
      </trkpt>
      <trkpt lat="46.23407" lon="-0.84074">
        <ele>32.1</ele>
        <time>2020-05-31T15:33:49Z</time>
      </trkpt>
      <trkpt lat="46.23405" lon="-0.84085">
        <ele>32.1</ele>
        <time>2020-05-31T15:33:50Z</time>
      </trkpt>
      <trkpt lat="46.23403" lon="-0.84096">
        <ele>32.1</ele>
        <time>2020-05-31T15:33:51Z</time>
      </trkpt>
      <trkpt lat="46.23401" lon="-0.84106">
        <ele>32</ele>
        <time>2020-05-31T15:33:52Z</time>
      </trkpt>
      <trkpt lat="46.23399" lon="-0.84117">
        <ele>31.9</ele>
        <time>2020-05-31T15:33:53Z</time>
      </trkpt>
      <trkpt lat="46.23396" lon="-0.84127">
        <ele>31.8</ele>
        <time>2020-05-31T15:33:54Z</time>
      </trkpt>
      <trkpt lat="46.23394" lon="-0.84138">
        <ele>31.7</ele>
        <time>2020-05-31T15:33:55Z</time>
      </trkpt>
      <trkpt lat="46.23391" lon="-0.84148">
        <ele>31.6</ele>
        <time>2020-05-31T15:33:56Z</time>
      </trkpt>
      <trkpt lat="46.23389" lon="-0.84159">
        <ele>31.5</ele>
        <time>2020-05-31T15:33:57Z</time>
      </trkpt>
      <trkpt lat="46.23387" lon="-0.8417">
        <ele>31.4</ele>
        <time>2020-05-31T15:33:58Z</time>
      </trkpt>
      <trkpt lat="46.23385" lon="-0.84181">
        <ele>31.4</ele>
        <time>2020-05-31T15:33:59Z</time>
      </trkpt>
      <trkpt lat="46.23384" lon="-0.84192">
        <ele>31.3</ele>
        <time>2020-05-31T15:34:00Z</time>
      </trkpt>
      <trkpt lat="46.23383" lon="-0.84203">
        <ele>31.3</ele>
        <time>2020-05-31T15:34:01Z</time>
      </trkpt>
      <trkpt lat="46.23383" lon="-0.84214">
        <ele>31.3</ele>
        <time>2020-05-31T15:34:02Z</time>
      </trkpt>
      <trkpt lat="46.23383" lon="-0.84225">
        <ele>31.3</ele>
        <time>2020-05-31T15:34:03Z</time>
      </trkpt>
      <trkpt lat="46.23383" lon="-0.84236">
        <ele>31.3</ele>
        <time>2020-05-31T15:34:04Z</time>
      </trkpt>
      <trkpt lat="46.23382" lon="-0.84247">
        <ele>31.4</ele>
        <time>2020-05-31T15:34:05Z</time>
      </trkpt>
      <trkpt lat="46.23382" lon="-0.84258">
        <ele>31.4</ele>
        <time>2020-05-31T15:34:06Z</time>
      </trkpt>
      <trkpt lat="46.23382" lon="-0.84269">
        <ele>31.4</ele>
        <time>2020-05-31T15:34:07Z</time>
      </trkpt>
      <trkpt lat="46.23381" lon="-0.84279">
        <ele>31.5</ele>
        <time>2020-05-31T15:34:08Z</time>
      </trkpt>
      <trkpt lat="46.23381" lon="-0.84289">
        <ele>31.5</ele>
        <time>2020-05-31T15:34:09Z</time>
      </trkpt>
      <trkpt lat="46.23381" lon="-0.84299">
        <ele>31.6</ele>
        <time>2020-05-31T15:34:10Z</time>
      </trkpt>
      <trkpt lat="46.23381" lon="-0.84309">
        <ele>31.6</ele>
        <time>2020-05-31T15:34:11Z</time>
      </trkpt>
      <trkpt lat="46.23382" lon="-0.8432">
        <ele>31.7</ele>
        <time>2020-05-31T15:34:12Z</time>
      </trkpt>
      <trkpt lat="46.23381" lon="-0.8433">
        <ele>31.7</ele>
        <time>2020-05-31T15:34:13Z</time>
      </trkpt>
      <trkpt lat="46.23381" lon="-0.8434">
        <ele>31.7</ele>
        <time>2020-05-31T15:34:14Z</time>
      </trkpt>
      <trkpt lat="46.23381" lon="-0.84349">
        <ele>31.8</ele>
        <time>2020-05-31T15:34:15Z</time>
      </trkpt>
      <trkpt lat="46.2338" lon="-0.84359">
        <ele>31.8</ele>
        <time>2020-05-31T15:34:16Z</time>
      </trkpt>
      <trkpt lat="46.2338" lon="-0.84368">
        <ele>31.8</ele>
        <time>2020-05-31T15:34:17Z</time>
      </trkpt>
      <trkpt lat="46.2338" lon="-0.84378">
        <ele>31.9</ele>
        <time>2020-05-31T15:34:18Z</time>
      </trkpt>
      <trkpt lat="46.23379" lon="-0.84387">
        <ele>31.9</ele>
        <time>2020-05-31T15:34:19Z</time>
      </trkpt>
      <trkpt lat="46.23379" lon="-0.84395">
        <ele>31.9</ele>
        <time>2020-05-31T15:34:20Z</time>
      </trkpt>
      <trkpt lat="46.23379" lon="-0.84404">
        <ele>31.9</ele>
        <time>2020-05-31T15:34:21Z</time>
      </trkpt>
      <trkpt lat="46.23378" lon="-0.84413">
        <ele>32</ele>
        <time>2020-05-31T15:34:22Z</time>
      </trkpt>
      <trkpt lat="46.23377" lon="-0.84422">
        <ele>32</ele>
        <time>2020-05-31T15:34:23Z</time>
      </trkpt>
      <trkpt lat="46.23376" lon="-0.84431">
        <ele>32</ele>
        <time>2020-05-31T15:34:24Z</time>
      </trkpt>
      <trkpt lat="46.23375" lon="-0.84441">
        <ele>31.9</ele>
        <time>2020-05-31T15:34:25Z</time>
      </trkpt>
      <trkpt lat="46.23375" lon="-0.8445">
        <ele>31.9</ele>
        <time>2020-05-31T15:34:26Z</time>
      </trkpt>
      <trkpt lat="46.23373" lon="-0.8446">
        <ele>31.9</ele>
        <time>2020-05-31T15:34:27Z</time>
      </trkpt>
      <trkpt lat="46.23372" lon="-0.8447">
        <ele>31.9</ele>
        <time>2020-05-31T15:34:28Z</time>
      </trkpt>
      <trkpt lat="46.23367" lon="-0.84478">
        <ele>31.9</ele>
        <time>2020-05-31T15:34:29Z</time>
      </trkpt>
      <trkpt lat="46.23366" lon="-0.84487">
        <ele>31.9</ele>
        <time>2020-05-31T15:34:30Z</time>
      </trkpt>
      <trkpt lat="46.23365" lon="-0.84496">
        <ele>32</ele>
        <time>2020-05-31T15:34:31Z</time>
      </trkpt>
      <trkpt lat="46.23364" lon="-0.84505">
        <ele>32</ele>
        <time>2020-05-31T15:34:32Z</time>
      </trkpt>
      <trkpt lat="46.23364" lon="-0.84515">
        <ele>32.1</ele>
        <time>2020-05-31T15:34:33Z</time>
      </trkpt>
      <trkpt lat="46.23364" lon="-0.84525">
        <ele>32.1</ele>
        <time>2020-05-31T15:34:34Z</time>
      </trkpt>
      <trkpt lat="46.23363" lon="-0.84535">
        <ele>32.1</ele>
        <time>2020-05-31T15:34:35Z</time>
      </trkpt>
      <trkpt lat="46.23362" lon="-0.84545">
        <ele>32.1</ele>
        <time>2020-05-31T15:34:36Z</time>
      </trkpt>
      <trkpt lat="46.23361" lon="-0.84555">
        <ele>32.1</ele>
        <time>2020-05-31T15:34:37Z</time>
      </trkpt>
      <trkpt lat="46.23361" lon="-0.84565">
        <ele>32.1</ele>
        <time>2020-05-31T15:34:38Z</time>
      </trkpt>
      <trkpt lat="46.2336" lon="-0.84575">
        <ele>32.2</ele>
        <time>2020-05-31T15:34:39Z</time>
      </trkpt>
      <trkpt lat="46.2336" lon="-0.84585">
        <ele>32.2</ele>
        <time>2020-05-31T15:34:40Z</time>
      </trkpt>
      <trkpt lat="46.23359" lon="-0.84595">
        <ele>32.2</ele>
        <time>2020-05-31T15:34:41Z</time>
      </trkpt>
      <trkpt lat="46.23358" lon="-0.84605">
        <ele>32.2</ele>
        <time>2020-05-31T15:34:42Z</time>
      </trkpt>
      <trkpt lat="46.23358" lon="-0.84615">
        <ele>32.2</ele>
        <time>2020-05-31T15:34:43Z</time>
      </trkpt>
      <trkpt lat="46.23357" lon="-0.84625">
        <ele>32.3</ele>
        <time>2020-05-31T15:34:44Z</time>
      </trkpt>
      <trkpt lat="46.23356" lon="-0.84635">
        <ele>32.3</ele>
        <time>2020-05-31T15:34:45Z</time>
      </trkpt>
      <trkpt lat="46.23356" lon="-0.84644">
        <ele>32.4</ele>
        <time>2020-05-31T15:34:46Z</time>
      </trkpt>
      <trkpt lat="46.23356" lon="-0.84652">
        <ele>32.4</ele>
        <time>2020-05-31T15:34:47Z</time>
      </trkpt>
      <trkpt lat="46.23355" lon="-0.84661">
        <ele>32.5</ele>
        <time>2020-05-31T15:34:48Z</time>
      </trkpt>
      <trkpt lat="46.23355" lon="-0.8467">
        <ele>32.6</ele>
        <time>2020-05-31T15:34:49Z</time>
      </trkpt>
      <trkpt lat="46.23354" lon="-0.84678">
        <ele>32.6</ele>
        <time>2020-05-31T15:34:50Z</time>
      </trkpt>
      <trkpt lat="46.23354" lon="-0.84687">
        <ele>32.7</ele>
        <time>2020-05-31T15:34:51Z</time>
      </trkpt>
      <trkpt lat="46.23353" lon="-0.84694">
        <ele>32.8</ele>
        <time>2020-05-31T15:34:52Z</time>
      </trkpt>
      <trkpt lat="46.23353" lon="-0.84702">
        <ele>32.8</ele>
        <time>2020-05-31T15:34:53Z</time>
      </trkpt>
      <trkpt lat="46.23352" lon="-0.84709">
        <ele>32.9</ele>
        <time>2020-05-31T15:34:54Z</time>
      </trkpt>
      <trkpt lat="46.23352" lon="-0.84716">
        <ele>32.9</ele>
        <time>2020-05-31T15:34:55Z</time>
      </trkpt>
      <trkpt lat="46.23352" lon="-0.84724">
        <ele>33</ele>
        <time>2020-05-31T15:34:56Z</time>
      </trkpt>
      <trkpt lat="46.23351" lon="-0.84731">
        <ele>33</ele>
        <time>2020-05-31T15:34:57Z</time>
      </trkpt>
      <trkpt lat="46.23351" lon="-0.84738">
        <ele>33.1</ele>
        <time>2020-05-31T15:34:58Z</time>
      </trkpt>
      <trkpt lat="46.2335" lon="-0.84746">
        <ele>33.1</ele>
        <time>2020-05-31T15:34:59Z</time>
      </trkpt>
      <trkpt lat="46.2335" lon="-0.84754">
        <ele>33.1</ele>
        <time>2020-05-31T15:35:00Z</time>
      </trkpt>
      <trkpt lat="46.23349" lon="-0.84762">
        <ele>33.2</ele>
        <time>2020-05-31T15:35:01Z</time>
      </trkpt>
      <trkpt lat="46.23349" lon="-0.84771">
        <ele>33.2</ele>
        <time>2020-05-31T15:35:02Z</time>
      </trkpt>
      <trkpt lat="46.23348" lon="-0.84779">
        <ele>33.3</ele>
        <time>2020-05-31T15:35:03Z</time>
      </trkpt>
      <trkpt lat="46.23348" lon="-0.84787">
        <ele>33.3</ele>
        <time>2020-05-31T15:35:04Z</time>
      </trkpt>
      <trkpt lat="46.23347" lon="-0.84795">
        <ele>33.4</ele>
        <time>2020-05-31T15:35:05Z</time>
      </trkpt>
      <trkpt lat="46.23346" lon="-0.84803">
        <ele>33.5</ele>
        <time>2020-05-31T15:35:06Z</time>
      </trkpt>
      <trkpt lat="46.23346" lon="-0.84811">
        <ele>33.6</ele>
        <time>2020-05-31T15:35:07Z</time>
      </trkpt>
      <trkpt lat="46.23346" lon="-0.84819">
        <ele>33.6</ele>
        <time>2020-05-31T15:35:08Z</time>
      </trkpt>
      <trkpt lat="46.23346" lon="-0.84826">
        <ele>33.6</ele>
        <time>2020-05-31T15:35:09Z</time>
      </trkpt>
      <trkpt lat="46.23345" lon="-0.84833">
        <ele>33.7</ele>
        <time>2020-05-31T15:35:10Z</time>
      </trkpt>
      <trkpt lat="46.23345" lon="-0.8484">
        <ele>33.7</ele>
        <time>2020-05-31T15:35:11Z</time>
      </trkpt>
      <trkpt lat="46.23344" lon="-0.84848">
        <ele>33.7</ele>
        <time>2020-05-31T15:35:12Z</time>
      </trkpt>
      <trkpt lat="46.23344" lon="-0.84855">
        <ele>33.7</ele>
        <time>2020-05-31T15:35:13Z</time>
      </trkpt>
      <trkpt lat="46.23343" lon="-0.84862">
        <ele>33.7</ele>
        <time>2020-05-31T15:35:14Z</time>
      </trkpt>
      <trkpt lat="46.23343" lon="-0.8487">
        <ele>33.8</ele>
        <time>2020-05-31T15:35:15Z</time>
      </trkpt>
      <trkpt lat="46.23342" lon="-0.84878">
        <ele>33.8</ele>
        <time>2020-05-31T15:35:16Z</time>
      </trkpt>
      <trkpt lat="46.23342" lon="-0.84885">
        <ele>33.8</ele>
        <time>2020-05-31T15:35:17Z</time>
      </trkpt>
      <trkpt lat="46.23342" lon="-0.84893">
        <ele>33.8</ele>
        <time>2020-05-31T15:35:18Z</time>
      </trkpt>
      <trkpt lat="46.23342" lon="-0.849">
        <ele>33.8</ele>
        <time>2020-05-31T15:35:19Z</time>
      </trkpt>
      <trkpt lat="46.23342" lon="-0.84907">
        <ele>33.8</ele>
        <time>2020-05-31T15:35:20Z</time>
      </trkpt>
      <trkpt lat="46.23341" lon="-0.84914">
        <ele>33.9</ele>
        <time>2020-05-31T15:35:21Z</time>
      </trkpt>
      <trkpt lat="46.23341" lon="-0.84921">
        <ele>33.9</ele>
        <time>2020-05-31T15:35:22Z</time>
      </trkpt>
      <trkpt lat="46.2334" lon="-0.84928">
        <ele>33.9</ele>
        <time>2020-05-31T15:35:23Z</time>
      </trkpt>
      <trkpt lat="46.23339" lon="-0.84934">
        <ele>34</ele>
        <time>2020-05-31T15:35:24Z</time>
      </trkpt>
      <trkpt lat="46.23339" lon="-0.84941">
        <ele>34.1</ele>
        <time>2020-05-31T15:35:25Z</time>
      </trkpt>
      <trkpt lat="46.2334" lon="-0.84948">
        <ele>34.2</ele>
        <time>2020-05-31T15:35:26Z</time>
      </trkpt>
      <trkpt lat="46.23339" lon="-0.84955">
        <ele>34.3</ele>
        <time>2020-05-31T15:35:27Z</time>
      </trkpt>
      <trkpt lat="46.23339" lon="-0.84963">
        <ele>34.4</ele>
        <time>2020-05-31T15:35:28Z</time>
      </trkpt>
      <trkpt lat="46.23339" lon="-0.84971">
        <ele>34.4</ele>
        <time>2020-05-31T15:35:29Z</time>
      </trkpt>
      <trkpt lat="46.23338" lon="-0.84979">
        <ele>34.5</ele>
        <time>2020-05-31T15:35:30Z</time>
      </trkpt>
      <trkpt lat="46.23337" lon="-0.84987">
        <ele>34.6</ele>
        <time>2020-05-31T15:35:31Z</time>
      </trkpt>
      <trkpt lat="46.23337" lon="-0.84996">
        <ele>34.6</ele>
        <time>2020-05-31T15:35:32Z</time>
      </trkpt>
      <trkpt lat="46.23336" lon="-0.85004">
        <ele>34.7</ele>
        <time>2020-05-31T15:35:33Z</time>
      </trkpt>
      <trkpt lat="46.23336" lon="-0.85014">
        <ele>34.7</ele>
        <time>2020-05-31T15:35:34Z</time>
      </trkpt>
      <trkpt lat="46.23336" lon="-0.85023">
        <ele>34.7</ele>
        <time>2020-05-31T15:35:35Z</time>
      </trkpt>
      <trkpt lat="46.23335" lon="-0.85031">
        <ele>34.7</ele>
        <time>2020-05-31T15:35:36Z</time>
      </trkpt>
      <trkpt lat="46.23333" lon="-0.85039">
        <ele>34.7</ele>
        <time>2020-05-31T15:35:37Z</time>
      </trkpt>
      <trkpt lat="46.23333" lon="-0.85048">
        <ele>34.7</ele>
        <time>2020-05-31T15:35:38Z</time>
      </trkpt>
      <trkpt lat="46.23332" lon="-0.85056">
        <ele>34.6</ele>
        <time>2020-05-31T15:35:39Z</time>
      </trkpt>
      <trkpt lat="46.23331" lon="-0.85064">
        <ele>34.6</ele>
        <time>2020-05-31T15:35:40Z</time>
      </trkpt>
      <trkpt lat="46.23331" lon="-0.85071">
        <ele>34.6</ele>
        <time>2020-05-31T15:35:41Z</time>
      </trkpt>
      <trkpt lat="46.2333" lon="-0.85079">
        <ele>34.6</ele>
        <time>2020-05-31T15:35:42Z</time>
      </trkpt>
      <trkpt lat="46.23331" lon="-0.85086">
        <ele>34.6</ele>
        <time>2020-05-31T15:35:43Z</time>
      </trkpt>
      <trkpt lat="46.23331" lon="-0.85093">
        <ele>34.6</ele>
        <time>2020-05-31T15:35:44Z</time>
      </trkpt>
      <trkpt lat="46.23331" lon="-0.851">
        <ele>34.6</ele>
        <time>2020-05-31T15:35:45Z</time>
      </trkpt>
      <trkpt lat="46.23331" lon="-0.85107">
        <ele>34.6</ele>
        <time>2020-05-31T15:35:46Z</time>
      </trkpt>
      <trkpt lat="46.2333" lon="-0.85114">
        <ele>34.6</ele>
        <time>2020-05-31T15:35:47Z</time>
      </trkpt>
      <trkpt lat="46.23329" lon="-0.85121">
        <ele>34.6</ele>
        <time>2020-05-31T15:35:48Z</time>
      </trkpt>
      <trkpt lat="46.23329" lon="-0.85129">
        <ele>34.6</ele>
        <time>2020-05-31T15:35:49Z</time>
      </trkpt>
      <trkpt lat="46.23328" lon="-0.85136">
        <ele>34.6</ele>
        <time>2020-05-31T15:35:50Z</time>
      </trkpt>
      <trkpt lat="46.23327" lon="-0.85144">
        <ele>34.6</ele>
        <time>2020-05-31T15:35:51Z</time>
      </trkpt>
      <trkpt lat="46.23328" lon="-0.85152">
        <ele>34.5</ele>
        <time>2020-05-31T15:35:52Z</time>
      </trkpt>
      <trkpt lat="46.23327" lon="-0.8516">
        <ele>34.5</ele>
        <time>2020-05-31T15:35:53Z</time>
      </trkpt>
      <trkpt lat="46.23327" lon="-0.85168">
        <ele>34.5</ele>
        <time>2020-05-31T15:35:54Z</time>
      </trkpt>
      <trkpt lat="46.23327" lon="-0.85175">
        <ele>34.5</ele>
        <time>2020-05-31T15:35:55Z</time>
      </trkpt>
      <trkpt lat="46.23325" lon="-0.85182">
        <ele>34.5</ele>
        <time>2020-05-31T15:35:56Z</time>
      </trkpt>
      <trkpt lat="46.23324" lon="-0.85189">
        <ele>34.5</ele>
        <time>2020-05-31T15:35:57Z</time>
      </trkpt>
      <trkpt lat="46.23323" lon="-0.85196">
        <ele>34.5</ele>
        <time>2020-05-31T15:35:58Z</time>
      </trkpt>
      <trkpt lat="46.23321" lon="-0.85203">
        <ele>34.5</ele>
        <time>2020-05-31T15:35:59Z</time>
      </trkpt>
      <trkpt lat="46.23319" lon="-0.85212">
        <ele>34.5</ele>
        <time>2020-05-31T15:36:00Z</time>
      </trkpt>
      <trkpt lat="46.23317" lon="-0.85219">
        <ele>34.4</ele>
        <time>2020-05-31T15:36:01Z</time>
      </trkpt>
      <trkpt lat="46.23312" lon="-0.85225">
        <ele>34.3</ele>
        <time>2020-05-31T15:36:02Z</time>
      </trkpt>
      <trkpt lat="46.23308" lon="-0.8523">
        <ele>34.3</ele>
        <time>2020-05-31T15:36:03Z</time>
      </trkpt>
      <trkpt lat="46.23303" lon="-0.85236">
        <ele>34.2</ele>
        <time>2020-05-31T15:36:04Z</time>
      </trkpt>
      <trkpt lat="46.23298" lon="-0.8524">
        <ele>34.1</ele>
        <time>2020-05-31T15:36:05Z</time>
      </trkpt>
      <trkpt lat="46.23293" lon="-0.85245">
        <ele>34</ele>
        <time>2020-05-31T15:36:06Z</time>
      </trkpt>
      <trkpt lat="46.23287" lon="-0.85249">
        <ele>33.9</ele>
        <time>2020-05-31T15:36:07Z</time>
      </trkpt>
      <trkpt lat="46.23282" lon="-0.85253">
        <ele>33.8</ele>
        <time>2020-05-31T15:36:08Z</time>
      </trkpt>
      <trkpt lat="46.23277" lon="-0.85258">
        <ele>33.7</ele>
        <time>2020-05-31T15:36:09Z</time>
      </trkpt>
      <trkpt lat="46.23271" lon="-0.85261">
        <ele>33.6</ele>
        <time>2020-05-31T15:36:10Z</time>
      </trkpt>
      <trkpt lat="46.23266" lon="-0.85265">
        <ele>33.5</ele>
        <time>2020-05-31T15:36:11Z</time>
      </trkpt>
      <trkpt lat="46.23261" lon="-0.85267">
        <ele>33.4</ele>
        <time>2020-05-31T15:36:12Z</time>
      </trkpt>
      <trkpt lat="46.23256" lon="-0.8527">
        <ele>33.3</ele>
        <time>2020-05-31T15:36:13Z</time>
      </trkpt>
      <trkpt lat="46.23251" lon="-0.85274">
        <ele>33.2</ele>
        <time>2020-05-31T15:36:14Z</time>
      </trkpt>
      <trkpt lat="46.23246" lon="-0.85278">
        <ele>33.1</ele>
        <time>2020-05-31T15:36:15Z</time>
      </trkpt>
      <trkpt lat="46.23241" lon="-0.85283">
        <ele>32.9</ele>
        <time>2020-05-31T15:36:16Z</time>
      </trkpt>
      <trkpt lat="46.23236" lon="-0.85287">
        <ele>32.9</ele>
        <time>2020-05-31T15:36:17Z</time>
      </trkpt>
      <trkpt lat="46.2323" lon="-0.85291">
        <ele>32.8</ele>
        <time>2020-05-31T15:36:18Z</time>
      </trkpt>
      <trkpt lat="46.23224" lon="-0.85295">
        <ele>32.7</ele>
        <time>2020-05-31T15:36:19Z</time>
      </trkpt>
      <trkpt lat="46.23218" lon="-0.85299">
        <ele>32.6</ele>
        <time>2020-05-31T15:36:20Z</time>
      </trkpt>
      <trkpt lat="46.23213" lon="-0.85304">
        <ele>32.4</ele>
        <time>2020-05-31T15:36:21Z</time>
      </trkpt>
      <trkpt lat="46.23207" lon="-0.85308">
        <ele>32.3</ele>
        <time>2020-05-31T15:36:22Z</time>
      </trkpt>
      <trkpt lat="46.23201" lon="-0.85312">
        <ele>32.1</ele>
        <time>2020-05-31T15:36:23Z</time>
      </trkpt>
      <trkpt lat="46.23195" lon="-0.85317">
        <ele>32</ele>
        <time>2020-05-31T15:36:24Z</time>
      </trkpt>
      <trkpt lat="46.23189" lon="-0.85321">
        <ele>31.9</ele>
        <time>2020-05-31T15:36:25Z</time>
      </trkpt>
      <trkpt lat="46.23183" lon="-0.85326">
        <ele>31.8</ele>
        <time>2020-05-31T15:36:26Z</time>
      </trkpt>
      <trkpt lat="46.23177" lon="-0.85331">
        <ele>31.7</ele>
        <time>2020-05-31T15:36:27Z</time>
      </trkpt>
      <trkpt lat="46.23171" lon="-0.85336">
        <ele>31.7</ele>
        <time>2020-05-31T15:36:28Z</time>
      </trkpt>
      <trkpt lat="46.23165" lon="-0.85341">
        <ele>31.6</ele>
        <time>2020-05-31T15:36:29Z</time>
      </trkpt>
      <trkpt lat="46.23159" lon="-0.85345">
        <ele>31.5</ele>
        <time>2020-05-31T15:36:30Z</time>
      </trkpt>
      <trkpt lat="46.23153" lon="-0.8535">
        <ele>31.4</ele>
        <time>2020-05-31T15:36:31Z</time>
      </trkpt>
      <trkpt lat="46.23146" lon="-0.85355">
        <ele>31.4</ele>
        <time>2020-05-31T15:36:32Z</time>
      </trkpt>
      <trkpt lat="46.2314" lon="-0.8536">
        <ele>31.3</ele>
        <time>2020-05-31T15:36:33Z</time>
      </trkpt>
      <trkpt lat="46.23135" lon="-0.85365">
        <ele>31.2</ele>
        <time>2020-05-31T15:36:34Z</time>
      </trkpt>
      <trkpt lat="46.23129" lon="-0.85371">
        <ele>31.1</ele>
        <time>2020-05-31T15:36:35Z</time>
      </trkpt>
      <trkpt lat="46.23123" lon="-0.85376">
        <ele>31</ele>
        <time>2020-05-31T15:36:36Z</time>
      </trkpt>
      <trkpt lat="46.23117" lon="-0.85381">
        <ele>31</ele>
        <time>2020-05-31T15:36:37Z</time>
      </trkpt>
      <trkpt lat="46.23111" lon="-0.85386">
        <ele>30.9</ele>
        <time>2020-05-31T15:36:38Z</time>
      </trkpt>
      <trkpt lat="46.23104" lon="-0.8539">
        <ele>30.8</ele>
        <time>2020-05-31T15:36:39Z</time>
      </trkpt>
      <trkpt lat="46.23099" lon="-0.85395">
        <ele>30.8</ele>
        <time>2020-05-31T15:36:40Z</time>
      </trkpt>
      <trkpt lat="46.23093" lon="-0.85399">
        <ele>30.7</ele>
        <time>2020-05-31T15:36:41Z</time>
      </trkpt>
      <trkpt lat="46.23087" lon="-0.85403">
        <ele>30.6</ele>
        <time>2020-05-31T15:36:42Z</time>
      </trkpt>
      <trkpt lat="46.23081" lon="-0.85408">
        <ele>30.6</ele>
        <time>2020-05-31T15:36:43Z</time>
      </trkpt>
      <trkpt lat="46.23075" lon="-0.85412">
        <ele>30.5</ele>
        <time>2020-05-31T15:36:44Z</time>
      </trkpt>
      <trkpt lat="46.23069" lon="-0.85416">
        <ele>30.5</ele>
        <time>2020-05-31T15:36:45Z</time>
      </trkpt>
      <trkpt lat="46.23064" lon="-0.8542">
        <ele>30.4</ele>
        <time>2020-05-31T15:36:46Z</time>
      </trkpt>
      <trkpt lat="46.23058" lon="-0.85424">
        <ele>30.3</ele>
        <time>2020-05-31T15:36:47Z</time>
      </trkpt>
      <trkpt lat="46.23052" lon="-0.85428">
        <ele>30.1</ele>
        <time>2020-05-31T15:36:48Z</time>
      </trkpt>
      <trkpt lat="46.23047" lon="-0.8543">
        <ele>30</ele>
        <time>2020-05-31T15:36:49Z</time>
      </trkpt>
      <trkpt lat="46.23042" lon="-0.85434">
        <ele>29.9</ele>
        <time>2020-05-31T15:36:50Z</time>
      </trkpt>
      <trkpt lat="46.23037" lon="-0.85438">
        <ele>29.9</ele>
        <time>2020-05-31T15:36:51Z</time>
      </trkpt>
      <trkpt lat="46.23032" lon="-0.85441">
        <ele>29.8</ele>
        <time>2020-05-31T15:36:52Z</time>
      </trkpt>
      <trkpt lat="46.23025" lon="-0.85443">
        <ele>29.7</ele>
        <time>2020-05-31T15:36:53Z</time>
      </trkpt>
      <trkpt lat="46.23019" lon="-0.85447">
        <ele>29.6</ele>
        <time>2020-05-31T15:36:54Z</time>
      </trkpt>
      <trkpt lat="46.23013" lon="-0.85448">
        <ele>29.5</ele>
        <time>2020-05-31T15:36:55Z</time>
      </trkpt>
      <trkpt lat="46.23008" lon="-0.8545">
        <ele>29.4</ele>
        <time>2020-05-31T15:36:56Z</time>
      </trkpt>
      <trkpt lat="46.23002" lon="-0.85452">
        <ele>29.3</ele>
        <time>2020-05-31T15:36:57Z</time>
      </trkpt>
      <trkpt lat="46.22997" lon="-0.85454">
        <ele>29.2</ele>
        <time>2020-05-31T15:36:58Z</time>
      </trkpt>
      <trkpt lat="46.22992" lon="-0.85457">
        <ele>29.1</ele>
        <time>2020-05-31T15:36:59Z</time>
      </trkpt>
      <trkpt lat="46.22986" lon="-0.85459">
        <ele>28.9</ele>
        <time>2020-05-31T15:37:00Z</time>
      </trkpt>
      <trkpt lat="46.22981" lon="-0.85463">
        <ele>28.9</ele>
        <time>2020-05-31T15:37:01Z</time>
      </trkpt>
      <trkpt lat="46.22976" lon="-0.85466">
        <ele>28.8</ele>
        <time>2020-05-31T15:37:02Z</time>
      </trkpt>
      <trkpt lat="46.2297" lon="-0.85469">
        <ele>28.8</ele>
        <time>2020-05-31T15:37:03Z</time>
      </trkpt>
      <trkpt lat="46.22964" lon="-0.85472">
        <ele>28.7</ele>
        <time>2020-05-31T15:37:04Z</time>
      </trkpt>
      <trkpt lat="46.22958" lon="-0.85476">
        <ele>28.5</ele>
        <time>2020-05-31T15:37:05Z</time>
      </trkpt>
      <trkpt lat="46.22953" lon="-0.85479">
        <ele>28.4</ele>
        <time>2020-05-31T15:37:06Z</time>
      </trkpt>
      <trkpt lat="46.22946" lon="-0.85482">
        <ele>28.2</ele>
        <time>2020-05-31T15:37:07Z</time>
      </trkpt>
      <trkpt lat="46.2294" lon="-0.85486">
        <ele>28</ele>
        <time>2020-05-31T15:37:08Z</time>
      </trkpt>
      <trkpt lat="46.22935" lon="-0.8549">
        <ele>27.8</ele>
        <time>2020-05-31T15:37:09Z</time>
      </trkpt>
      <trkpt lat="46.22929" lon="-0.85493">
        <ele>27.6</ele>
        <time>2020-05-31T15:37:10Z</time>
      </trkpt>
      <trkpt lat="46.22924" lon="-0.85498">
        <ele>27.4</ele>
        <time>2020-05-31T15:37:11Z</time>
      </trkpt>
      <trkpt lat="46.22919" lon="-0.85501">
        <ele>27.3</ele>
        <time>2020-05-31T15:37:12Z</time>
      </trkpt>
      <trkpt lat="46.22913" lon="-0.85503">
        <ele>27.2</ele>
        <time>2020-05-31T15:37:13Z</time>
      </trkpt>
      <trkpt lat="46.22908" lon="-0.85505">
        <ele>27.1</ele>
        <time>2020-05-31T15:37:14Z</time>
      </trkpt>
      <trkpt lat="46.22904" lon="-0.85507">
        <ele>27</ele>
        <time>2020-05-31T15:37:15Z</time>
      </trkpt>
      <trkpt lat="46.22901" lon="-0.85511">
        <ele>26.9</ele>
        <time>2020-05-31T15:37:16Z</time>
      </trkpt>
      <trkpt lat="46.229" lon="-0.85515">
        <ele>26.8</ele>
        <time>2020-05-31T15:37:17Z</time>
      </trkpt>
      <trkpt lat="46.229" lon="-0.8552">
        <ele>26.7</ele>
        <time>2020-05-31T15:37:18Z</time>
      </trkpt>
      <trkpt lat="46.22901" lon="-0.85526">
        <ele>26.8</ele>
        <time>2020-05-31T15:37:19Z</time>
      </trkpt>
      <trkpt lat="46.22902" lon="-0.85531">
        <ele>26.8</ele>
        <time>2020-05-31T15:37:20Z</time>
      </trkpt>
      <trkpt lat="46.22902" lon="-0.85539">
        <ele>26.8</ele>
        <time>2020-05-31T15:37:21Z</time>
      </trkpt>
      <trkpt lat="46.22903" lon="-0.85545">
        <ele>26.8</ele>
        <time>2020-05-31T15:37:22Z</time>
      </trkpt>
      <trkpt lat="46.22904" lon="-0.85551">
        <ele>26.8</ele>
        <time>2020-05-31T15:37:23Z</time>
      </trkpt>
      <trkpt lat="46.22906" lon="-0.85557">
        <ele>26.9</ele>
        <time>2020-05-31T15:37:24Z</time>
      </trkpt>
      <trkpt lat="46.22907" lon="-0.85563">
        <ele>26.9</ele>
        <time>2020-05-31T15:37:25Z</time>
      </trkpt>
      <trkpt lat="46.2291" lon="-0.85569">
        <ele>26.9</ele>
        <time>2020-05-31T15:37:26Z</time>
      </trkpt>
      <trkpt lat="46.22911" lon="-0.85575">
        <ele>26.9</ele>
        <time>2020-05-31T15:37:27Z</time>
      </trkpt>
      <trkpt lat="46.22913" lon="-0.85581">
        <ele>27</ele>
        <time>2020-05-31T15:37:28Z</time>
      </trkpt>
      <trkpt lat="46.22913" lon="-0.85587">
        <ele>27</ele>
        <time>2020-05-31T15:37:29Z</time>
      </trkpt>
      <trkpt lat="46.22915" lon="-0.85594">
        <ele>27</ele>
        <time>2020-05-31T15:37:30Z</time>
      </trkpt>
      <trkpt lat="46.22916" lon="-0.85602">
        <ele>27</ele>
        <time>2020-05-31T15:37:31Z</time>
      </trkpt>
      <trkpt lat="46.22918" lon="-0.85609">
        <ele>27</ele>
        <time>2020-05-31T15:37:32Z</time>
      </trkpt>
      <trkpt lat="46.2292" lon="-0.85616">
        <ele>27.1</ele>
        <time>2020-05-31T15:37:33Z</time>
      </trkpt>
      <trkpt lat="46.22921" lon="-0.85623">
        <ele>27.1</ele>
        <time>2020-05-31T15:37:34Z</time>
      </trkpt>
      <trkpt lat="46.22923" lon="-0.85631">
        <ele>27.1</ele>
        <time>2020-05-31T15:37:35Z</time>
      </trkpt>
      <trkpt lat="46.22925" lon="-0.8564">
        <ele>27.2</ele>
        <time>2020-05-31T15:37:36Z</time>
      </trkpt>
      <trkpt lat="46.22927" lon="-0.85647">
        <ele>27.2</ele>
        <time>2020-05-31T15:37:37Z</time>
      </trkpt>
      <trkpt lat="46.22929" lon="-0.85655">
        <ele>27.2</ele>
        <time>2020-05-31T15:37:38Z</time>
      </trkpt>
      <trkpt lat="46.2293" lon="-0.85664">
        <ele>27.3</ele>
        <time>2020-05-31T15:37:39Z</time>
      </trkpt>
      <trkpt lat="46.22932" lon="-0.85671">
        <ele>27.3</ele>
        <time>2020-05-31T15:37:40Z</time>
      </trkpt>
      <trkpt lat="46.22933" lon="-0.85679">
        <ele>27.3</ele>
        <time>2020-05-31T15:37:41Z</time>
      </trkpt>
      <trkpt lat="46.22935" lon="-0.85687">
        <ele>27.4</ele>
        <time>2020-05-31T15:37:42Z</time>
      </trkpt>
      <trkpt lat="46.22936" lon="-0.85693">
        <ele>27.4</ele>
        <time>2020-05-31T15:37:43Z</time>
      </trkpt>
      <trkpt lat="46.22936" lon="-0.85702">
        <ele>27.5</ele>
        <time>2020-05-31T15:37:44Z</time>
      </trkpt>
      <trkpt lat="46.22935" lon="-0.85711">
        <ele>27.5</ele>
        <time>2020-05-31T15:37:45Z</time>
      </trkpt>
      <trkpt lat="46.22935" lon="-0.85719">
        <ele>27.5</ele>
        <time>2020-05-31T15:37:46Z</time>
      </trkpt>
      <trkpt lat="46.22935" lon="-0.85728">
        <ele>27.6</ele>
        <time>2020-05-31T15:37:47Z</time>
      </trkpt>
      <trkpt lat="46.22935" lon="-0.85737">
        <ele>27.7</ele>
        <time>2020-05-31T15:37:48Z</time>
      </trkpt>
      <trkpt lat="46.22935" lon="-0.85748">
        <ele>27.8</ele>
        <time>2020-05-31T15:37:49Z</time>
      </trkpt>
      <trkpt lat="46.22934" lon="-0.85757">
        <ele>28</ele>
        <time>2020-05-31T15:37:50Z</time>
      </trkpt>
      <trkpt lat="46.22933" lon="-0.85767">
        <ele>28.2</ele>
        <time>2020-05-31T15:37:51Z</time>
      </trkpt>
      <trkpt lat="46.22932" lon="-0.85778">
        <ele>28.3</ele>
        <time>2020-05-31T15:37:52Z</time>
      </trkpt>
      <trkpt lat="46.22931" lon="-0.85787">
        <ele>28.3</ele>
        <time>2020-05-31T15:37:53Z</time>
      </trkpt>
      <trkpt lat="46.2293" lon="-0.85797">
        <ele>28.3</ele>
        <time>2020-05-31T15:37:54Z</time>
      </trkpt>
      <trkpt lat="46.2293" lon="-0.85806">
        <ele>28.4</ele>
        <time>2020-05-31T15:37:55Z</time>
      </trkpt>
      <trkpt lat="46.22931" lon="-0.85816">
        <ele>28.4</ele>
        <time>2020-05-31T15:37:56Z</time>
      </trkpt>
      <trkpt lat="46.2293" lon="-0.85825">
        <ele>28.4</ele>
        <time>2020-05-31T15:37:57Z</time>
      </trkpt>
      <trkpt lat="46.2293" lon="-0.85835">
        <ele>28.4</ele>
        <time>2020-05-31T15:37:58Z</time>
      </trkpt>
      <trkpt lat="46.22929" lon="-0.85843">
        <ele>28.5</ele>
        <time>2020-05-31T15:37:59Z</time>
      </trkpt>
      <trkpt lat="46.22928" lon="-0.85851">
        <ele>28.5</ele>
        <time>2020-05-31T15:38:00Z</time>
      </trkpt>
      <trkpt lat="46.22927" lon="-0.85858">
        <ele>28.5</ele>
        <time>2020-05-31T15:38:01Z</time>
      </trkpt>
      <trkpt lat="46.22927" lon="-0.85865">
        <ele>28.5</ele>
        <time>2020-05-31T15:38:02Z</time>
      </trkpt>
      <trkpt lat="46.22925" lon="-0.8587">
        <ele>28.5</ele>
        <time>2020-05-31T15:38:03Z</time>
      </trkpt>
      <trkpt lat="46.22924" lon="-0.85872">
        <ele>28.5</ele>
        <time>2020-05-31T15:38:04Z</time>
      </trkpt>
      <trkpt lat="46.22923" lon="-0.85876">
        <ele>28.6</ele>
        <time>2020-05-31T15:38:05Z</time>
      </trkpt>
      <trkpt lat="46.22922" lon="-0.85879">
        <ele>28.6</ele>
        <time>2020-05-31T15:38:06Z</time>
      </trkpt>
      <trkpt lat="46.22922" lon="-0.85884">
        <ele>28.6</ele>
        <time>2020-05-31T15:38:07Z</time>
      </trkpt>
      <trkpt lat="46.2292" lon="-0.85888">
        <ele>28.5</ele>
        <time>2020-05-31T15:38:08Z</time>
      </trkpt>
      <trkpt lat="46.22917" lon="-0.85893">
        <ele>28.4</ele>
        <time>2020-05-31T15:38:09Z</time>
      </trkpt>
      <trkpt lat="46.22916" lon="-0.85895">
        <ele>28.4</ele>
        <time>2020-05-31T15:38:10Z</time>
      </trkpt>
      <trkpt lat="46.22913" lon="-0.85897">
        <ele>28.4</ele>
        <time>2020-05-31T15:38:11Z</time>
      </trkpt>
      <trkpt lat="46.22911" lon="-0.859">
        <ele>28.3</ele>
        <time>2020-05-31T15:38:12Z</time>
      </trkpt>
      <trkpt lat="46.22907" lon="-0.85904">
        <ele>28.2</ele>
        <time>2020-05-31T15:38:13Z</time>
      </trkpt>
      <trkpt lat="46.22904" lon="-0.85907">
        <ele>28.1</ele>
        <time>2020-05-31T15:38:14Z</time>
      </trkpt>
      <trkpt lat="46.22901" lon="-0.85909">
        <ele>28</ele>
        <time>2020-05-31T15:38:15Z</time>
      </trkpt>
      <trkpt lat="46.22896" lon="-0.85911">
        <ele>27.9</ele>
        <time>2020-05-31T15:38:16Z</time>
      </trkpt>
      <trkpt lat="46.22893" lon="-0.85915">
        <ele>27.8</ele>
        <time>2020-05-31T15:38:17Z</time>
      </trkpt>
      <trkpt lat="46.2289" lon="-0.85918">
        <ele>27.8</ele>
        <time>2020-05-31T15:38:18Z</time>
      </trkpt>
      <trkpt lat="46.22887" lon="-0.85921">
        <ele>27.6</ele>
        <time>2020-05-31T15:38:19Z</time>
      </trkpt>
      <trkpt lat="46.22883" lon="-0.85924">
        <ele>27.6</ele>
        <time>2020-05-31T15:38:20Z</time>
      </trkpt>
      <trkpt lat="46.22878" lon="-0.85929">
        <ele>27.3</ele>
        <time>2020-05-31T15:38:21Z</time>
      </trkpt>
      <trkpt lat="46.22873" lon="-0.85933">
        <ele>27.3</ele>
        <time>2020-05-31T15:38:22Z</time>
      </trkpt>
      <trkpt lat="46.22867" lon="-0.85937">
        <ele>27.2</ele>
        <time>2020-05-31T15:38:23Z</time>
      </trkpt>
      <trkpt lat="46.2286" lon="-0.85941">
        <ele>27.1</ele>
        <time>2020-05-31T15:38:24Z</time>
      </trkpt>
      <trkpt lat="46.22855" lon="-0.85944">
        <ele>26.9</ele>
        <time>2020-05-31T15:38:25Z</time>
      </trkpt>
      <trkpt lat="46.22849" lon="-0.85947">
        <ele>26.7</ele>
        <time>2020-05-31T15:38:26Z</time>
      </trkpt>
      <trkpt lat="46.22843" lon="-0.85949">
        <ele>26.6</ele>
        <time>2020-05-31T15:38:27Z</time>
      </trkpt>
      <trkpt lat="46.22837" lon="-0.85951">
        <ele>26.4</ele>
        <time>2020-05-31T15:38:28Z</time>
      </trkpt>
      <trkpt lat="46.2283" lon="-0.85952">
        <ele>26.2</ele>
        <time>2020-05-31T15:38:29Z</time>
      </trkpt>
      <trkpt lat="46.22825" lon="-0.85954">
        <ele>26.1</ele>
        <time>2020-05-31T15:38:30Z</time>
      </trkpt>
      <trkpt lat="46.22821" lon="-0.85955">
        <ele>26.1</ele>
        <time>2020-05-31T15:38:31Z</time>
      </trkpt>
      <trkpt lat="46.22816" lon="-0.85956">
        <ele>26.1</ele>
        <time>2020-05-31T15:38:32Z</time>
      </trkpt>
      <trkpt lat="46.22812" lon="-0.85957">
        <ele>26</ele>
        <time>2020-05-31T15:38:33Z</time>
      </trkpt>
      <trkpt lat="46.22808" lon="-0.85959">
        <ele>26</ele>
        <time>2020-05-31T15:38:34Z</time>
      </trkpt>
      <trkpt lat="46.22805" lon="-0.8596">
        <ele>25.9</ele>
        <time>2020-05-31T15:38:35Z</time>
      </trkpt>
      <trkpt lat="46.22803" lon="-0.85961">
        <ele>25.9</ele>
        <time>2020-05-31T15:38:36Z</time>
      </trkpt>
      <trkpt lat="46.22802" lon="-0.85963">
        <ele>25.9</ele>
        <time>2020-05-31T15:38:37Z</time>
      </trkpt>
      <trkpt lat="46.228" lon="-0.85964">
        <ele>25.9</ele>
        <time>2020-05-31T15:38:38Z</time>
      </trkpt>
      <trkpt lat="46.22798" lon="-0.85964">
        <ele>25.8</ele>
        <time>2020-05-31T15:38:39Z</time>
      </trkpt>
      <trkpt lat="46.22797" lon="-0.85965">
        <ele>25.8</ele>
        <time>2020-05-31T15:38:40Z</time>
      </trkpt>
      <trkpt lat="46.22795" lon="-0.85966">
        <ele>25.8</ele>
        <time>2020-05-31T15:38:41Z</time>
      </trkpt>
      <trkpt lat="46.22794" lon="-0.85967">
        <ele>25.8</ele>
        <time>2020-05-31T15:38:42Z</time>
      </trkpt>
      <trkpt lat="46.22792" lon="-0.8597">
        <ele>25.8</ele>
        <time>2020-05-31T15:38:43Z</time>
      </trkpt>
      <trkpt lat="46.22792" lon="-0.85971">
        <ele>25.8</ele>
        <time>2020-05-31T15:38:44Z</time>
      </trkpt>
      <trkpt lat="46.22791" lon="-0.85976">
        <ele>25.8</ele>
        <time>2020-05-31T15:38:45Z</time>
      </trkpt>
      <trkpt lat="46.22791" lon="-0.85978">
        <ele>25.8</ele>
        <time>2020-05-31T15:38:46Z</time>
      </trkpt>
      <trkpt lat="46.2279" lon="-0.85982">
        <ele>25.8</ele>
        <time>2020-05-31T15:38:47Z</time>
      </trkpt>
      <trkpt lat="46.2279" lon="-0.85984">
        <ele>25.8</ele>
        <time>2020-05-31T15:38:48Z</time>
      </trkpt>
      <trkpt lat="46.22791" lon="-0.85989">
        <ele>25.8</ele>
        <time>2020-05-31T15:38:49Z</time>
      </trkpt>
      <trkpt lat="46.22791" lon="-0.8599">
        <ele>25.8</ele>
        <time>2020-05-31T15:38:50Z</time>
      </trkpt>
      <trkpt lat="46.22792" lon="-0.85994">
        <ele>25.8</ele>
        <time>2020-05-31T15:38:51Z</time>
      </trkpt>
      <trkpt lat="46.22793" lon="-0.86">
        <ele>25.8</ele>
        <time>2020-05-31T15:38:52Z</time>
      </trkpt>
      <trkpt lat="46.22793" lon="-0.86002">
        <ele>25.8</ele>
        <time>2020-05-31T15:38:53Z</time>
      </trkpt>
      <trkpt lat="46.22794" lon="-0.86007">
        <ele>25.9</ele>
        <time>2020-05-31T15:38:54Z</time>
      </trkpt>
      <trkpt lat="46.22796" lon="-0.86012">
        <ele>26</ele>
        <time>2020-05-31T15:38:55Z</time>
      </trkpt>
      <trkpt lat="46.22796" lon="-0.86017">
        <ele>26</ele>
        <time>2020-05-31T15:38:56Z</time>
      </trkpt>
      <trkpt lat="46.22797" lon="-0.86023">
        <ele>26.1</ele>
        <time>2020-05-31T15:38:57Z</time>
      </trkpt>
      <trkpt lat="46.22798" lon="-0.86029">
        <ele>26.2</ele>
        <time>2020-05-31T15:38:58Z</time>
      </trkpt>
      <trkpt lat="46.228" lon="-0.86034">
        <ele>26.3</ele>
        <time>2020-05-31T15:38:59Z</time>
      </trkpt>
      <trkpt lat="46.22801" lon="-0.86039">
        <ele>26.3</ele>
        <time>2020-05-31T15:39:00Z</time>
      </trkpt>
      <trkpt lat="46.22805" lon="-0.86046">
        <ele>26.4</ele>
        <time>2020-05-31T15:39:01Z</time>
      </trkpt>
      <trkpt lat="46.22808" lon="-0.86053">
        <ele>26.4</ele>
        <time>2020-05-31T15:39:02Z</time>
      </trkpt>
      <trkpt lat="46.22809" lon="-0.86059">
        <ele>26.4</ele>
        <time>2020-05-31T15:39:03Z</time>
      </trkpt>
      <trkpt lat="46.2281" lon="-0.86068">
        <ele>26.5</ele>
        <time>2020-05-31T15:39:04Z</time>
      </trkpt>
      <trkpt lat="46.22811" lon="-0.86073">
        <ele>26.5</ele>
        <time>2020-05-31T15:39:05Z</time>
      </trkpt>
      <trkpt lat="46.22809" lon="-0.86079">
        <ele>26.5</ele>
        <time>2020-05-31T15:39:06Z</time>
      </trkpt>
      <trkpt lat="46.22811" lon="-0.86084">
        <ele>26.5</ele>
        <time>2020-05-31T15:39:07Z</time>
      </trkpt>
      <trkpt lat="46.22812" lon="-0.86089">
        <ele>26.5</ele>
        <time>2020-05-31T15:39:08Z</time>
      </trkpt>
      <trkpt lat="46.22814" lon="-0.86093">
        <ele>26.5</ele>
        <time>2020-05-31T15:39:09Z</time>
      </trkpt>
      <trkpt lat="46.22814" lon="-0.86094">
        <ele>26.5</ele>
        <time>2020-05-31T15:39:10Z</time>
      </trkpt>
      <trkpt lat="46.22817" lon="-0.86094">
        <ele>26.5</ele>
        <time>2020-05-31T15:39:11Z</time>
      </trkpt>
      <trkpt lat="46.22819" lon="-0.86093">
        <ele>26.5</ele>
        <time>2020-05-31T15:39:12Z</time>
      </trkpt>
      <trkpt lat="46.22822" lon="-0.86092">
        <ele>26.6</ele>
        <time>2020-05-31T15:39:13Z</time>
      </trkpt>
      <trkpt lat="46.22825" lon="-0.86091">
        <ele>26.6</ele>
        <time>2020-05-31T15:39:14Z</time>
      </trkpt>
      <trkpt lat="46.22828" lon="-0.8609">
        <ele>26.7</ele>
        <time>2020-05-31T15:39:15Z</time>
      </trkpt>
      <trkpt lat="46.22832" lon="-0.86088">
        <ele>26.8</ele>
        <time>2020-05-31T15:39:16Z</time>
      </trkpt>
      <trkpt lat="46.22838" lon="-0.86084">
        <ele>26.9</ele>
        <time>2020-05-31T15:39:17Z</time>
      </trkpt>
      <trkpt lat="46.22843" lon="-0.8608">
        <ele>27</ele>
        <time>2020-05-31T15:39:18Z</time>
      </trkpt>
      <trkpt lat="46.22847" lon="-0.86078">
        <ele>27.1</ele>
        <time>2020-05-31T15:39:19Z</time>
      </trkpt>
      <trkpt lat="46.22852" lon="-0.86075">
        <ele>27.3</ele>
        <time>2020-05-31T15:39:20Z</time>
      </trkpt>
      <trkpt lat="46.22856" lon="-0.86073">
        <ele>27.4</ele>
        <time>2020-05-31T15:39:21Z</time>
      </trkpt>
      <trkpt lat="46.2286" lon="-0.8607">
        <ele>27.5</ele>
        <time>2020-05-31T15:39:22Z</time>
      </trkpt>
      <trkpt lat="46.22864" lon="-0.86067">
        <ele>27.6</ele>
        <time>2020-05-31T15:39:23Z</time>
      </trkpt>
      <trkpt lat="46.22868" lon="-0.86063">
        <ele>27.7</ele>
        <time>2020-05-31T15:39:24Z</time>
      </trkpt>
      <trkpt lat="46.22873" lon="-0.8606">
        <ele>27.8</ele>
        <time>2020-05-31T15:39:25Z</time>
      </trkpt>
      <trkpt lat="46.22877" lon="-0.86056">
        <ele>27.9</ele>
        <time>2020-05-31T15:39:26Z</time>
      </trkpt>
      <trkpt lat="46.22881" lon="-0.86053">
        <ele>28</ele>
        <time>2020-05-31T15:39:27Z</time>
      </trkpt>
      <trkpt lat="46.22884" lon="-0.86051">
        <ele>28</ele>
        <time>2020-05-31T15:39:28Z</time>
      </trkpt>
      <trkpt lat="46.22886" lon="-0.86047">
        <ele>28.1</ele>
        <time>2020-05-31T15:39:29Z</time>
      </trkpt>
      <trkpt lat="46.22887" lon="-0.86043">
        <ele>28.1</ele>
        <time>2020-05-31T15:39:30Z</time>
      </trkpt>
      <trkpt lat="46.22889" lon="-0.86039">
        <ele>28.1</ele>
        <time>2020-05-31T15:39:31Z</time>
      </trkpt>
      <trkpt lat="46.22892" lon="-0.86036">
        <ele>28.1</ele>
        <time>2020-05-31T15:39:32Z</time>
      </trkpt>
      <trkpt lat="46.22894" lon="-0.86033">
        <ele>28.1</ele>
        <time>2020-05-31T15:39:33Z</time>
      </trkpt>
      <trkpt lat="46.22894" lon="-0.86031">
        <ele>28.1</ele>
        <time>2020-05-31T15:39:34Z</time>
      </trkpt>
      <trkpt lat="46.22894" lon="-0.8603">
        <ele>28.1</ele>
        <time>2020-05-31T15:39:35Z</time>
      </trkpt>
      <trkpt lat="46.22893" lon="-0.86029">
        <ele>28.1</ele>
        <time>2020-05-31T15:39:36Z</time>
      </trkpt>
      <trkpt lat="46.22893" lon="-0.8603">
        <ele>28.1</ele>
        <time>2020-05-31T15:39:37Z</time>
      </trkpt>
      <trkpt lat="46.22892" lon="-0.8603">
        <ele>28.1</ele>
        <time>2020-05-31T15:39:38Z</time>
      </trkpt>
      <trkpt lat="46.22892" lon="-0.86031">
        <ele>28.1</ele>
        <time>2020-05-31T15:39:39Z</time>
      </trkpt>
      <trkpt lat="46.22892" lon="-0.86031">
        <ele>28.1</ele>
        <time>2020-05-31T15:39:40Z</time>
      </trkpt>
      <trkpt lat="46.22892" lon="-0.86031">
        <ele>28.1</ele>
        <time>2020-05-31T15:39:41Z</time>
      </trkpt>
      <trkpt lat="46.22891" lon="-0.86031">
        <ele>28.1</ele>
        <time>2020-05-31T15:39:42Z</time>
      </trkpt>
      <trkpt lat="46.22891" lon="-0.86031">
        <ele>28.1</ele>
        <time>2020-05-31T15:39:43Z</time>
      </trkpt>
      <trkpt lat="46.2289" lon="-0.8603">
        <ele>28.1</ele>
        <time>2020-05-31T15:39:44Z</time>
      </trkpt>
      <trkpt lat="46.2289" lon="-0.8603">
        <ele>28.1</ele>
        <time>2020-05-31T15:39:45Z</time>
      </trkpt>
      <trkpt lat="46.2289" lon="-0.86029">
        <ele>28.1</ele>
        <time>2020-05-31T15:39:46Z</time>
      </trkpt>
      <trkpt lat="46.2289" lon="-0.86029">
        <ele>28.1</ele>
        <time>2020-05-31T15:39:47Z</time>
      </trkpt>
      <trkpt lat="46.2289" lon="-0.86029">
        <ele>28.1</ele>
        <time>2020-05-31T15:39:48Z</time>
      </trkpt>
      <trkpt lat="46.2289" lon="-0.86029">
        <ele>28.1</ele>
        <time>2020-05-31T15:39:49Z</time>
      </trkpt>
      <trkpt lat="46.2289" lon="-0.86029">
        <ele>28.1</ele>
        <time>2020-05-31T15:39:50Z</time>
      </trkpt>
      <trkpt lat="46.2289" lon="-0.86029">
        <ele>28.1</ele>
        <time>2020-05-31T15:39:51Z</time>
      </trkpt>
      <trkpt lat="46.2289" lon="-0.86029">
        <ele>28.1</ele>
        <time>2020-05-31T15:39:52Z</time>
      </trkpt>
      <trkpt lat="46.2289" lon="-0.86029">
        <ele>28.1</ele>
        <time>2020-05-31T15:39:53Z</time>
      </trkpt>
      <trkpt lat="46.2289" lon="-0.86029">
        <ele>28.1</ele>
        <time>2020-05-31T15:39:54Z</time>
      </trkpt>
      <trkpt lat="46.2289" lon="-0.86029">
        <ele>28.1</ele>
        <time>2020-05-31T15:39:55Z</time>
      </trkpt>
      <trkpt lat="46.2289" lon="-0.86029">
        <ele>28.1</ele>
        <time>2020-05-31T15:39:56Z</time>
      </trkpt>
      <trkpt lat="46.2289" lon="-0.86029">
        <ele>28.1</ele>
        <time>2020-05-31T15:39:57Z</time>
      </trkpt>
      <trkpt lat="46.2289" lon="-0.86029">
        <ele>28.1</ele>
        <time>2020-05-31T15:39:58Z</time>
      </trkpt>
      <trkpt lat="46.2289" lon="-0.86029">
        <ele>28.1</ele>
        <time>2020-05-31T15:39:59Z</time>
      </trkpt>
      <trkpt lat="46.2289" lon="-0.86027">
        <ele>28.1</ele>
        <time>2020-05-31T15:40:00Z</time>
      </trkpt>
      <trkpt lat="46.2289" lon="-0.86027">
        <ele>28.1</ele>
        <time>2020-05-31T15:40:01Z</time>
      </trkpt>
      <trkpt lat="46.2289" lon="-0.86026">
        <ele>28.1</ele>
        <time>2020-05-31T15:40:02Z</time>
      </trkpt>
      <trkpt lat="46.22891" lon="-0.86025">
        <ele>28.1</ele>
        <time>2020-05-31T15:40:03Z</time>
      </trkpt>
      <trkpt lat="46.22891" lon="-0.86026">
        <ele>28.1</ele>
        <time>2020-05-31T15:40:04Z</time>
      </trkpt>
      <trkpt lat="46.22891" lon="-0.86027">
        <ele>28.1</ele>
        <time>2020-05-31T15:40:05Z</time>
      </trkpt>
      <trkpt lat="46.22892" lon="-0.86027">
        <ele>28.1</ele>
        <time>2020-05-31T15:40:06Z</time>
      </trkpt>
      <trkpt lat="46.22892" lon="-0.86027">
        <ele>28.1</ele>
        <time>2020-05-31T15:40:07Z</time>
      </trkpt>
      <trkpt lat="46.22892" lon="-0.86027">
        <ele>28.1</ele>
        <time>2020-05-31T15:40:08Z</time>
      </trkpt>
      <trkpt lat="46.22892" lon="-0.86028">
        <ele>28.1</ele>
        <time>2020-05-31T15:40:09Z</time>
      </trkpt>
      <trkpt lat="46.22892" lon="-0.86028">
        <ele>28.2</ele>
        <time>2020-05-31T15:40:10Z</time>
      </trkpt>
      <trkpt lat="46.22892" lon="-0.86028">
        <ele>28.2</ele>
        <time>2020-05-31T15:40:11Z</time>
      </trkpt>
      <trkpt lat="46.22892" lon="-0.86028">
        <ele>28.2</ele>
        <time>2020-05-31T15:40:12Z</time>
      </trkpt>
      <trkpt lat="46.22892" lon="-0.86029">
        <ele>28.2</ele>
        <time>2020-05-31T15:40:13Z</time>
      </trkpt>
      <trkpt lat="46.22892" lon="-0.86029">
        <ele>28.2</ele>
        <time>2020-05-31T15:40:14Z</time>
      </trkpt>
      <trkpt lat="46.22892" lon="-0.86029">
        <ele>28.2</ele>
        <time>2020-05-31T15:40:15Z</time>
      </trkpt>
      <trkpt lat="46.22892" lon="-0.86028">
        <ele>28.2</ele>
        <time>2020-05-31T15:40:16Z</time>
      </trkpt>
      <trkpt lat="46.22892" lon="-0.86027">
        <ele>28.2</ele>
        <time>2020-05-31T15:40:17Z</time>
      </trkpt>
      <trkpt lat="46.22891" lon="-0.86026">
        <ele>28.2</ele>
        <time>2020-05-31T15:40:18Z</time>
      </trkpt>
      <trkpt lat="46.22892" lon="-0.86027">
        <ele>28.2</ele>
        <time>2020-05-31T15:40:19Z</time>
      </trkpt>
      <trkpt lat="46.22892" lon="-0.86028">
        <ele>28.2</ele>
        <time>2020-05-31T15:40:20Z</time>
      </trkpt>
      <trkpt lat="46.22892" lon="-0.86028">
        <ele>28.2</ele>
        <time>2020-05-31T15:40:21Z</time>
      </trkpt>
      <trkpt lat="46.22892" lon="-0.86029">
        <ele>28.2</ele>
        <time>2020-05-31T15:40:22Z</time>
      </trkpt>
      <trkpt lat="46.22893" lon="-0.86031">
        <ele>28.2</ele>
        <time>2020-05-31T15:40:23Z</time>
      </trkpt>
      <trkpt lat="46.22893" lon="-0.86031">
        <ele>28.2</ele>
        <time>2020-05-31T15:40:24Z</time>
      </trkpt>
      <trkpt lat="46.22893" lon="-0.86031">
        <ele>28.2</ele>
        <time>2020-05-31T15:40:25Z</time>
      </trkpt>
      <trkpt lat="46.22894" lon="-0.86031">
        <ele>28.2</ele>
        <time>2020-05-31T15:40:26Z</time>
      </trkpt>
      <trkpt lat="46.22894" lon="-0.86032">
        <ele>28.2</ele>
        <time>2020-05-31T15:40:27Z</time>
      </trkpt>
      <trkpt lat="46.22894" lon="-0.86032">
        <ele>28.2</ele>
        <time>2020-05-31T15:40:28Z</time>
      </trkpt>
      <trkpt lat="46.22894" lon="-0.86032">
        <ele>28.2</ele>
        <time>2020-05-31T15:40:29Z</time>
      </trkpt>
      <trkpt lat="46.22894" lon="-0.86031">
        <ele>28.2</ele>
        <time>2020-05-31T15:40:30Z</time>
      </trkpt>
      <trkpt lat="46.22894" lon="-0.86032">
        <ele>28.2</ele>
        <time>2020-05-31T15:40:31Z</time>
      </trkpt>
      <trkpt lat="46.22894" lon="-0.86031">
        <ele>28.2</ele>
        <time>2020-05-31T15:40:32Z</time>
      </trkpt>
      <trkpt lat="46.22895" lon="-0.86031">
        <ele>28.2</ele>
        <time>2020-05-31T15:40:33Z</time>
      </trkpt>
      <trkpt lat="46.22895" lon="-0.86031">
        <ele>28.2</ele>
        <time>2020-05-31T15:40:34Z</time>
      </trkpt>
      <trkpt lat="46.22894" lon="-0.86031">
        <ele>28.2</ele>
        <time>2020-05-31T15:40:35Z</time>
      </trkpt>
      <trkpt lat="46.22895" lon="-0.86031">
        <ele>28.2</ele>
        <time>2020-05-31T15:40:36Z</time>
      </trkpt>
      <trkpt lat="46.22895" lon="-0.86031">
        <ele>28.2</ele>
        <time>2020-05-31T15:40:37Z</time>
      </trkpt>
      <trkpt lat="46.22895" lon="-0.86031">
        <ele>28.2</ele>
        <time>2020-05-31T15:40:38Z</time>
      </trkpt>
      <trkpt lat="46.22895" lon="-0.86031">
        <ele>28.2</ele>
        <time>2020-05-31T15:40:39Z</time>
      </trkpt>
      <trkpt lat="46.22895" lon="-0.86031">
        <ele>28.2</ele>
        <time>2020-05-31T15:40:40Z</time>
      </trkpt>
      <trkpt lat="46.22895" lon="-0.86031">
        <ele>28.2</ele>
        <time>2020-05-31T15:40:41Z</time>
      </trkpt>
      <trkpt lat="46.22895" lon="-0.8603">
        <ele>28.2</ele>
        <time>2020-05-31T15:40:42Z</time>
      </trkpt>
      <trkpt lat="46.22895" lon="-0.8603">
        <ele>28.2</ele>
        <time>2020-05-31T15:40:43Z</time>
      </trkpt>
      <trkpt lat="46.22895" lon="-0.8603">
        <ele>28.2</ele>
        <time>2020-05-31T15:40:44Z</time>
      </trkpt>
      <trkpt lat="46.22895" lon="-0.86029">
        <ele>28.2</ele>
        <time>2020-05-31T15:40:45Z</time>
      </trkpt>
      <trkpt lat="46.22895" lon="-0.86028">
        <ele>28.2</ele>
        <time>2020-05-31T15:40:46Z</time>
      </trkpt>
      <trkpt lat="46.22895" lon="-0.86026">
        <ele>28.2</ele>
        <time>2020-05-31T15:40:47Z</time>
      </trkpt>
      <trkpt lat="46.22894" lon="-0.86025">
        <ele>28.2</ele>
        <time>2020-05-31T15:40:48Z</time>
      </trkpt>
      <trkpt lat="46.22894" lon="-0.86024">
        <ele>28.2</ele>
        <time>2020-05-31T15:40:49Z</time>
      </trkpt>
      <trkpt lat="46.22894" lon="-0.86024">
        <ele>28.2</ele>
        <time>2020-05-31T15:40:50Z</time>
      </trkpt>
      <trkpt lat="46.22894" lon="-0.86024">
        <ele>28.2</ele>
        <time>2020-05-31T15:40:51Z</time>
      </trkpt>
      <trkpt lat="46.22894" lon="-0.86023">
        <ele>28.2</ele>
        <time>2020-05-31T15:40:52Z</time>
      </trkpt>
      <trkpt lat="46.22894" lon="-0.86022">
        <ele>28.2</ele>
        <time>2020-05-31T15:40:53Z</time>
      </trkpt>
      <trkpt lat="46.22894" lon="-0.86022">
        <ele>28.2</ele>
        <time>2020-05-31T15:40:54Z</time>
      </trkpt>
      <trkpt lat="46.22895" lon="-0.86023">
        <ele>28.2</ele>
        <time>2020-05-31T15:40:55Z</time>
      </trkpt>
      <trkpt lat="46.22895" lon="-0.86022">
        <ele>28.2</ele>
        <time>2020-05-31T15:40:56Z</time>
      </trkpt>
      <trkpt lat="46.22895" lon="-0.86022">
        <ele>28.2</ele>
        <time>2020-05-31T15:40:57Z</time>
      </trkpt>
      <trkpt lat="46.22895" lon="-0.86022">
        <ele>28.2</ele>
        <time>2020-05-31T15:40:58Z</time>
      </trkpt>
      <trkpt lat="46.22895" lon="-0.86022">
        <ele>28.2</ele>
        <time>2020-05-31T15:40:59Z</time>
      </trkpt>
      <trkpt lat="46.22895" lon="-0.86023">
        <ele>28.2</ele>
        <time>2020-05-31T15:41:00Z</time>
      </trkpt>
      <trkpt lat="46.22895" lon="-0.86024">
        <ele>28.2</ele>
        <time>2020-05-31T15:41:01Z</time>
      </trkpt>
      <trkpt lat="46.22895" lon="-0.86025">
        <ele>28.2</ele>
        <time>2020-05-31T15:41:02Z</time>
      </trkpt>
      <trkpt lat="46.22895" lon="-0.86026">
        <ele>28.2</ele>
        <time>2020-05-31T15:41:03Z</time>
      </trkpt>
      <trkpt lat="46.22895" lon="-0.86027">
        <ele>28.2</ele>
        <time>2020-05-31T15:41:04Z</time>
      </trkpt>
      <trkpt lat="46.22895" lon="-0.86028">
        <ele>28.2</ele>
        <time>2020-05-31T15:41:05Z</time>
      </trkpt>
      <trkpt lat="46.22896" lon="-0.86029">
        <ele>28.2</ele>
        <time>2020-05-31T15:41:06Z</time>
      </trkpt>
      <trkpt lat="46.22896" lon="-0.8603">
        <ele>28.2</ele>
        <time>2020-05-31T15:41:07Z</time>
      </trkpt>
      <trkpt lat="46.22897" lon="-0.8603">
        <ele>28.2</ele>
        <time>2020-05-31T15:41:08Z</time>
      </trkpt>
      <trkpt lat="46.22898" lon="-0.8603">
        <ele>28.2</ele>
        <time>2020-05-31T15:41:09Z</time>
      </trkpt>
      <trkpt lat="46.22898" lon="-0.8603">
        <ele>28.2</ele>
        <time>2020-05-31T15:41:10Z</time>
      </trkpt>
      <trkpt lat="46.22898" lon="-0.86031">
        <ele>28.2</ele>
        <time>2020-05-31T15:41:11Z</time>
      </trkpt>
      <trkpt lat="46.22899" lon="-0.86031">
        <ele>28.2</ele>
        <time>2020-05-31T15:41:12Z</time>
      </trkpt>
      <trkpt lat="46.22899" lon="-0.86031">
        <ele>28.2</ele>
        <time>2020-05-31T15:41:13Z</time>
      </trkpt>
      <trkpt lat="46.22899" lon="-0.86031">
        <ele>28.2</ele>
        <time>2020-05-31T15:41:14Z</time>
      </trkpt>
      <trkpt lat="46.22899" lon="-0.86031">
        <ele>28.2</ele>
        <time>2020-05-31T15:41:15Z</time>
      </trkpt>
      <trkpt lat="46.22899" lon="-0.86031">
        <ele>28.2</ele>
        <time>2020-05-31T15:41:16Z</time>
      </trkpt>
      <trkpt lat="46.22898" lon="-0.86031">
        <ele>28.2</ele>
        <time>2020-05-31T15:41:17Z</time>
      </trkpt>
      <trkpt lat="46.22898" lon="-0.86031">
        <ele>28.2</ele>
        <time>2020-05-31T15:41:18Z</time>
      </trkpt>
      <trkpt lat="46.22898" lon="-0.86032">
        <ele>28.2</ele>
        <time>2020-05-31T15:41:19Z</time>
      </trkpt>
      <trkpt lat="46.22898" lon="-0.86032">
        <ele>28.2</ele>
        <time>2020-05-31T15:41:20Z</time>
      </trkpt>
      <trkpt lat="46.22897" lon="-0.86032">
        <ele>28.2</ele>
        <time>2020-05-31T15:41:21Z</time>
      </trkpt>
      <trkpt lat="46.22897" lon="-0.86032">
        <ele>28.2</ele>
        <time>2020-05-31T15:41:22Z</time>
      </trkpt>
      <trkpt lat="46.22897" lon="-0.86032">
        <ele>28.2</ele>
        <time>2020-05-31T15:41:23Z</time>
      </trkpt>
      <trkpt lat="46.22897" lon="-0.86033">
        <ele>28.2</ele>
        <time>2020-05-31T15:41:24Z</time>
      </trkpt>
      <trkpt lat="46.22897" lon="-0.86033">
        <ele>28.2</ele>
        <time>2020-05-31T15:41:25Z</time>
      </trkpt>
      <trkpt lat="46.22897" lon="-0.86032">
        <ele>28.2</ele>
        <time>2020-05-31T15:41:26Z</time>
      </trkpt>
      <trkpt lat="46.22897" lon="-0.86031">
        <ele>28.2</ele>
        <time>2020-05-31T15:41:27Z</time>
      </trkpt>
      <trkpt lat="46.22897" lon="-0.86031">
        <ele>28.2</ele>
        <time>2020-05-31T15:41:28Z</time>
      </trkpt>
      <trkpt lat="46.22897" lon="-0.86031">
        <ele>28.2</ele>
        <time>2020-05-31T15:41:29Z</time>
      </trkpt>
      <trkpt lat="46.22897" lon="-0.86031">
        <ele>28.2</ele>
        <time>2020-05-31T15:41:30Z</time>
      </trkpt>
      <trkpt lat="46.22897" lon="-0.86031">
        <ele>28.2</ele>
        <time>2020-05-31T15:41:31Z</time>
      </trkpt>
      <trkpt lat="46.22897" lon="-0.86031">
        <ele>28.2</ele>
        <time>2020-05-31T15:41:32Z</time>
      </trkpt>
      <trkpt lat="46.22897" lon="-0.86031">
        <ele>28.2</ele>
        <time>2020-05-31T15:41:33Z</time>
      </trkpt>
      <trkpt lat="46.22897" lon="-0.86031">
        <ele>28.2</ele>
        <time>2020-05-31T15:41:34Z</time>
      </trkpt>
      <trkpt lat="46.22897" lon="-0.86031">
        <ele>28.2</ele>
        <time>2020-05-31T15:41:35Z</time>
      </trkpt>
      <trkpt lat="46.22897" lon="-0.8603">
        <ele>28.2</ele>
        <time>2020-05-31T15:41:36Z</time>
      </trkpt>
      <trkpt lat="46.22897" lon="-0.8603">
        <ele>28.2</ele>
        <time>2020-05-31T15:41:37Z</time>
      </trkpt>
      <trkpt lat="46.22897" lon="-0.8603">
        <ele>28.2</ele>
        <time>2020-05-31T15:41:38Z</time>
      </trkpt>
      <trkpt lat="46.22897" lon="-0.8603">
        <ele>28.2</ele>
        <time>2020-05-31T15:41:39Z</time>
      </trkpt>
      <trkpt lat="46.22897" lon="-0.8603">
        <ele>28.2</ele>
        <time>2020-05-31T15:41:40Z</time>
      </trkpt>
      <trkpt lat="46.22896" lon="-0.86029">
        <ele>28.2</ele>
        <time>2020-05-31T15:41:41Z</time>
      </trkpt>
      <trkpt lat="46.22896" lon="-0.86029">
        <ele>28.2</ele>
        <time>2020-05-31T15:41:42Z</time>
      </trkpt>
      <trkpt lat="46.22896" lon="-0.86029">
        <ele>28.2</ele>
        <time>2020-05-31T15:41:43Z</time>
      </trkpt>
      <trkpt lat="46.22896" lon="-0.86029">
        <ele>28.2</ele>
        <time>2020-05-31T15:41:44Z</time>
      </trkpt>
      <trkpt lat="46.22896" lon="-0.86028">
        <ele>28.2</ele>
        <time>2020-05-31T15:41:45Z</time>
      </trkpt>
      <trkpt lat="46.22897" lon="-0.86028">
        <ele>28.2</ele>
        <time>2020-05-31T15:41:46Z</time>
      </trkpt>
      <trkpt lat="46.22897" lon="-0.86028">
        <ele>28.2</ele>
        <time>2020-05-31T15:41:47Z</time>
      </trkpt>
      <trkpt lat="46.22897" lon="-0.86028">
        <ele>28.2</ele>
        <time>2020-05-31T15:41:48Z</time>
      </trkpt>
      <trkpt lat="46.22898" lon="-0.86028">
        <ele>28.2</ele>
        <time>2020-05-31T15:41:49Z</time>
      </trkpt>
      <trkpt lat="46.22898" lon="-0.86028">
        <ele>28.2</ele>
        <time>2020-05-31T15:41:50Z</time>
      </trkpt>
      <trkpt lat="46.229" lon="-0.86027">
        <ele>28.2</ele>
        <time>2020-05-31T15:41:51Z</time>
      </trkpt>
      <trkpt lat="46.229" lon="-0.86027">
        <ele>28.2</ele>
        <time>2020-05-31T15:41:52Z</time>
      </trkpt>
      <trkpt lat="46.229" lon="-0.86027">
        <ele>28.2</ele>
        <time>2020-05-31T15:41:53Z</time>
      </trkpt>
      <trkpt lat="46.229" lon="-0.86027">
        <ele>28.2</ele>
        <time>2020-05-31T15:41:54Z</time>
      </trkpt>
      <trkpt lat="46.229" lon="-0.86027">
        <ele>28.2</ele>
        <time>2020-05-31T15:41:55Z</time>
      </trkpt>
      <trkpt lat="46.229" lon="-0.86027">
        <ele>28.2</ele>
        <time>2020-05-31T15:41:56Z</time>
      </trkpt>
      <trkpt lat="46.229" lon="-0.86027">
        <ele>28.2</ele>
        <time>2020-05-31T15:41:57Z</time>
      </trkpt>
      <trkpt lat="46.22901" lon="-0.86027">
        <ele>28.2</ele>
        <time>2020-05-31T15:41:58Z</time>
      </trkpt>
      <trkpt lat="46.22901" lon="-0.86027">
        <ele>28.2</ele>
        <time>2020-05-31T15:41:59Z</time>
      </trkpt>
      <trkpt lat="46.22902" lon="-0.86027">
        <ele>28.2</ele>
        <time>2020-05-31T15:42:00Z</time>
      </trkpt>
      <trkpt lat="46.22902" lon="-0.86028">
        <ele>28.2</ele>
        <time>2020-05-31T15:42:01Z</time>
      </trkpt>
      <trkpt lat="46.22902" lon="-0.86028">
        <ele>28.2</ele>
        <time>2020-05-31T15:42:02Z</time>
      </trkpt>
      <trkpt lat="46.22902" lon="-0.86028">
        <ele>28.2</ele>
        <time>2020-05-31T15:42:03Z</time>
      </trkpt>
      <trkpt lat="46.22902" lon="-0.86028">
        <ele>28.2</ele>
        <time>2020-05-31T15:42:04Z</time>
      </trkpt>
      <trkpt lat="46.22902" lon="-0.86028">
        <ele>28.2</ele>
        <time>2020-05-31T15:42:05Z</time>
      </trkpt>
      <trkpt lat="46.22902" lon="-0.86028">
        <ele>28.2</ele>
        <time>2020-05-31T15:42:06Z</time>
      </trkpt>
      <trkpt lat="46.22902" lon="-0.86028">
        <ele>28.2</ele>
        <time>2020-05-31T15:42:07Z</time>
      </trkpt>
      <trkpt lat="46.22902" lon="-0.86028">
        <ele>28.2</ele>
        <time>2020-05-31T15:42:08Z</time>
      </trkpt>
      <trkpt lat="46.22901" lon="-0.86028">
        <ele>28.2</ele>
        <time>2020-05-31T15:42:09Z</time>
      </trkpt>
      <trkpt lat="46.22901" lon="-0.86028">
        <ele>28.2</ele>
        <time>2020-05-31T15:42:10Z</time>
      </trkpt>
      <trkpt lat="46.22901" lon="-0.86028">
        <ele>28.2</ele>
        <time>2020-05-31T15:42:11Z</time>
      </trkpt>
      <trkpt lat="46.22901" lon="-0.86028">
        <ele>28.2</ele>
        <time>2020-05-31T15:42:12Z</time>
      </trkpt>
      <trkpt lat="46.22901" lon="-0.86028">
        <ele>28.2</ele>
        <time>2020-05-31T15:42:13Z</time>
      </trkpt>
      <trkpt lat="46.22901" lon="-0.86028">
        <ele>28.2</ele>
        <time>2020-05-31T15:42:14Z</time>
      </trkpt>
      <trkpt lat="46.22901" lon="-0.86028">
        <ele>28.2</ele>
        <time>2020-05-31T15:42:15Z</time>
      </trkpt>
      <trkpt lat="46.22901" lon="-0.86028">
        <ele>28.3</ele>
        <time>2020-05-31T15:42:16Z</time>
      </trkpt>
      <trkpt lat="46.22901" lon="-0.86028">
        <ele>28.3</ele>
        <time>2020-05-31T15:42:17Z</time>
      </trkpt>
      <trkpt lat="46.22901" lon="-0.86028">
        <ele>28.3</ele>
        <time>2020-05-31T15:42:18Z</time>
      </trkpt>
      <trkpt lat="46.22901" lon="-0.86028">
        <ele>28.3</ele>
        <time>2020-05-31T15:42:19Z</time>
      </trkpt>
      <trkpt lat="46.229" lon="-0.86027">
        <ele>28.3</ele>
        <time>2020-05-31T15:42:20Z</time>
      </trkpt>
      <trkpt lat="46.229" lon="-0.86027">
        <ele>28.3</ele>
        <time>2020-05-31T15:42:21Z</time>
      </trkpt>
      <trkpt lat="46.229" lon="-0.86027">
        <ele>28.3</ele>
        <time>2020-05-31T15:42:22Z</time>
      </trkpt>
      <trkpt lat="46.229" lon="-0.86027">
        <ele>28.3</ele>
        <time>2020-05-31T15:42:23Z</time>
      </trkpt>
      <trkpt lat="46.229" lon="-0.86026">
        <ele>28.3</ele>
        <time>2020-05-31T15:42:24Z</time>
      </trkpt>
      <trkpt lat="46.22899" lon="-0.86026">
        <ele>28.3</ele>
        <time>2020-05-31T15:42:25Z</time>
      </trkpt>
      <trkpt lat="46.22899" lon="-0.86025">
        <ele>28.3</ele>
        <time>2020-05-31T15:42:26Z</time>
      </trkpt>
      <trkpt lat="46.22899" lon="-0.86025">
        <ele>28.3</ele>
        <time>2020-05-31T15:42:27Z</time>
      </trkpt>
      <trkpt lat="46.22899" lon="-0.86024">
        <ele>28.3</ele>
        <time>2020-05-31T15:42:28Z</time>
      </trkpt>
      <trkpt lat="46.22899" lon="-0.86023">
        <ele>28.3</ele>
        <time>2020-05-31T15:42:29Z</time>
      </trkpt>
      <trkpt lat="46.22899" lon="-0.86024">
        <ele>28.3</ele>
        <time>2020-05-31T15:42:30Z</time>
      </trkpt>
      <trkpt lat="46.22898" lon="-0.86025">
        <ele>28.3</ele>
        <time>2020-05-31T15:42:31Z</time>
      </trkpt>
      <trkpt lat="46.22898" lon="-0.86027">
        <ele>28.3</ele>
        <time>2020-05-31T15:42:32Z</time>
      </trkpt>
      <trkpt lat="46.22897" lon="-0.86028">
        <ele>28.3</ele>
        <time>2020-05-31T15:42:33Z</time>
      </trkpt>
      <trkpt lat="46.22897" lon="-0.8603">
        <ele>28.3</ele>
        <time>2020-05-31T15:42:34Z</time>
      </trkpt>
      <trkpt lat="46.22894" lon="-0.86033">
        <ele>28.2</ele>
        <time>2020-05-31T15:42:35Z</time>
      </trkpt>
      <trkpt lat="46.22894" lon="-0.86034">
        <ele>28.2</ele>
        <time>2020-05-31T15:42:36Z</time>
      </trkpt>
      <trkpt lat="46.22893" lon="-0.86035">
        <ele>28.2</ele>
        <time>2020-05-31T15:42:37Z</time>
      </trkpt>
      <trkpt lat="46.22893" lon="-0.86037">
        <ele>28.2</ele>
        <time>2020-05-31T15:42:38Z</time>
      </trkpt>
      <trkpt lat="46.22892" lon="-0.86038">
        <ele>28.2</ele>
        <time>2020-05-31T15:42:39Z</time>
      </trkpt>
      <trkpt lat="46.22892" lon="-0.86038">
        <ele>28.2</ele>
        <time>2020-05-31T15:42:40Z</time>
      </trkpt>
      <trkpt lat="46.22892" lon="-0.86038">
        <ele>28.2</ele>
        <time>2020-05-31T15:42:41Z</time>
      </trkpt>
      <trkpt lat="46.22892" lon="-0.86038">
        <ele>28.2</ele>
        <time>2020-05-31T15:42:42Z</time>
      </trkpt>
      <trkpt lat="46.22892" lon="-0.86038">
        <ele>28.2</ele>
        <time>2020-05-31T15:42:43Z</time>
      </trkpt>
      <trkpt lat="46.22892" lon="-0.86038">
        <ele>28.2</ele>
        <time>2020-05-31T15:42:44Z</time>
      </trkpt>
      <trkpt lat="46.22892" lon="-0.86038">
        <ele>28.2</ele>
        <time>2020-05-31T15:42:45Z</time>
      </trkpt>
      <trkpt lat="46.22892" lon="-0.86038">
        <ele>28.2</ele>
        <time>2020-05-31T15:42:46Z</time>
      </trkpt>
      <trkpt lat="46.22892" lon="-0.86038">
        <ele>28.2</ele>
        <time>2020-05-31T15:42:47Z</time>
      </trkpt>
      <trkpt lat="46.22891" lon="-0.86038">
        <ele>28.2</ele>
        <time>2020-05-31T15:42:48Z</time>
      </trkpt>
      <trkpt lat="46.22891" lon="-0.86038">
        <ele>28.2</ele>
        <time>2020-05-31T15:42:49Z</time>
      </trkpt>
      <trkpt lat="46.22891" lon="-0.86038">
        <ele>28.2</ele>
        <time>2020-05-31T15:42:50Z</time>
      </trkpt>
      <trkpt lat="46.22891" lon="-0.86038">
        <ele>28.2</ele>
        <time>2020-05-31T15:42:51Z</time>
      </trkpt>
      <trkpt lat="46.22891" lon="-0.86038">
        <ele>28.2</ele>
        <time>2020-05-31T15:42:52Z</time>
      </trkpt>
      <trkpt lat="46.22891" lon="-0.86038">
        <ele>28.2</ele>
        <time>2020-05-31T15:42:53Z</time>
      </trkpt>
      <trkpt lat="46.22891" lon="-0.86038">
        <ele>28.2</ele>
        <time>2020-05-31T15:42:54Z</time>
      </trkpt>
      <trkpt lat="46.22891" lon="-0.86039">
        <ele>28.2</ele>
        <time>2020-05-31T15:42:55Z</time>
      </trkpt>
      <trkpt lat="46.22891" lon="-0.86039">
        <ele>28.2</ele>
        <time>2020-05-31T15:42:56Z</time>
      </trkpt>
      <trkpt lat="46.22891" lon="-0.86039">
        <ele>28.2</ele>
        <time>2020-05-31T15:42:57Z</time>
      </trkpt>
      <trkpt lat="46.22891" lon="-0.86039">
        <ele>28.2</ele>
        <time>2020-05-31T15:42:58Z</time>
      </trkpt>
      <trkpt lat="46.22891" lon="-0.86039">
        <ele>28.2</ele>
        <time>2020-05-31T15:42:59Z</time>
      </trkpt>
      <trkpt lat="46.22891" lon="-0.86039">
        <ele>28.2</ele>
        <time>2020-05-31T15:43:00Z</time>
      </trkpt>
      <trkpt lat="46.22891" lon="-0.86039">
        <ele>28.2</ele>
        <time>2020-05-31T15:43:01Z</time>
      </trkpt>
      <trkpt lat="46.22891" lon="-0.86039">
        <ele>28.2</ele>
        <time>2020-05-31T15:43:02Z</time>
      </trkpt>
      <trkpt lat="46.22891" lon="-0.86039">
        <ele>28.2</ele>
        <time>2020-05-31T15:43:03Z</time>
      </trkpt>
      <trkpt lat="46.22891" lon="-0.86039">
        <ele>28.2</ele>
        <time>2020-05-31T15:43:04Z</time>
      </trkpt>
      <trkpt lat="46.22891" lon="-0.86039">
        <ele>28.2</ele>
        <time>2020-05-31T15:43:05Z</time>
      </trkpt>
      <trkpt lat="46.22892" lon="-0.86039">
        <ele>28.2</ele>
        <time>2020-05-31T15:43:06Z</time>
      </trkpt>
      <trkpt lat="46.22893" lon="-0.8604">
        <ele>28.2</ele>
        <time>2020-05-31T15:43:07Z</time>
      </trkpt>
      <trkpt lat="46.22894" lon="-0.8604">
        <ele>28.2</ele>
        <time>2020-05-31T15:43:08Z</time>
      </trkpt>
      <trkpt lat="46.22894" lon="-0.8604">
        <ele>28.2</ele>
        <time>2020-05-31T15:43:09Z</time>
      </trkpt>
      <trkpt lat="46.22894" lon="-0.8604">
        <ele>28.2</ele>
        <time>2020-05-31T15:43:10Z</time>
      </trkpt>
      <trkpt lat="46.22894" lon="-0.8604">
        <ele>28.2</ele>
        <time>2020-05-31T15:43:11Z</time>
      </trkpt>
      <trkpt lat="46.22894" lon="-0.8604">
        <ele>28.2</ele>
        <time>2020-05-31T15:43:12Z</time>
      </trkpt>
      <trkpt lat="46.22894" lon="-0.8604">
        <ele>28.2</ele>
        <time>2020-05-31T15:43:13Z</time>
      </trkpt>
      <trkpt lat="46.22894" lon="-0.8604">
        <ele>28.2</ele>
        <time>2020-05-31T15:43:14Z</time>
      </trkpt>
      <trkpt lat="46.22894" lon="-0.8604">
        <ele>28.2</ele>
        <time>2020-05-31T15:43:15Z</time>
      </trkpt>
      <trkpt lat="46.22894" lon="-0.8604">
        <ele>28.2</ele>
        <time>2020-05-31T15:43:16Z</time>
      </trkpt>
      <trkpt lat="46.22894" lon="-0.8604">
        <ele>28.2</ele>
        <time>2020-05-31T15:43:17Z</time>
      </trkpt>
      <trkpt lat="46.22894" lon="-0.8604">
        <ele>28.2</ele>
        <time>2020-05-31T15:43:18Z</time>
      </trkpt>
      <trkpt lat="46.22893" lon="-0.8604">
        <ele>28.2</ele>
        <time>2020-05-31T15:43:19Z</time>
      </trkpt>
      <trkpt lat="46.22893" lon="-0.8604">
        <ele>28.2</ele>
        <time>2020-05-31T15:43:20Z</time>
      </trkpt>
      <trkpt lat="46.22894" lon="-0.8604">
        <ele>28.2</ele>
        <time>2020-05-31T15:43:21Z</time>
      </trkpt>
      <trkpt lat="46.22894" lon="-0.8604">
        <ele>28.2</ele>
        <time>2020-05-31T15:43:22Z</time>
      </trkpt>
      <trkpt lat="46.22894" lon="-0.8604">
        <ele>28.2</ele>
        <time>2020-05-31T15:43:23Z</time>
      </trkpt>
      <trkpt lat="46.22894" lon="-0.8604">
        <ele>28.2</ele>
        <time>2020-05-31T15:43:24Z</time>
      </trkpt>
      <trkpt lat="46.22894" lon="-0.8604">
        <ele>28.2</ele>
        <time>2020-05-31T15:43:25Z</time>
      </trkpt>
      <trkpt lat="46.22894" lon="-0.86041">
        <ele>28.2</ele>
        <time>2020-05-31T15:43:26Z</time>
      </trkpt>
      <trkpt lat="46.22893" lon="-0.86041">
        <ele>28.2</ele>
        <time>2020-05-31T15:43:27Z</time>
      </trkpt>
      <trkpt lat="46.22893" lon="-0.86041">
        <ele>28.2</ele>
        <time>2020-05-31T15:43:28Z</time>
      </trkpt>
      <trkpt lat="46.22893" lon="-0.86041">
        <ele>28.2</ele>
        <time>2020-05-31T15:43:29Z</time>
      </trkpt>
      <trkpt lat="46.22893" lon="-0.86041">
        <ele>28.2</ele>
        <time>2020-05-31T15:43:30Z</time>
      </trkpt>
      <trkpt lat="46.22893" lon="-0.86042">
        <ele>28.2</ele>
        <time>2020-05-31T15:43:31Z</time>
      </trkpt>
      <trkpt lat="46.22893" lon="-0.86042">
        <ele>28.2</ele>
        <time>2020-05-31T15:43:32Z</time>
      </trkpt>
      <trkpt lat="46.22893" lon="-0.86042">
        <ele>28.2</ele>
        <time>2020-05-31T15:43:33Z</time>
      </trkpt>
      <trkpt lat="46.22893" lon="-0.86041">
        <ele>28.2</ele>
        <time>2020-05-31T15:43:34Z</time>
      </trkpt>
      <trkpt lat="46.22892" lon="-0.86041">
        <ele>28.2</ele>
        <time>2020-05-31T15:43:35Z</time>
      </trkpt>
      <trkpt lat="46.22893" lon="-0.8604">
        <ele>28.2</ele>
        <time>2020-05-31T15:43:36Z</time>
      </trkpt>
      <trkpt lat="46.22892" lon="-0.8604">
        <ele>28.2</ele>
        <time>2020-05-31T15:43:37Z</time>
      </trkpt>
      <trkpt lat="46.22892" lon="-0.8604">
        <ele>28.2</ele>
        <time>2020-05-31T15:43:38Z</time>
      </trkpt>
      <trkpt lat="46.22892" lon="-0.8604">
        <ele>28.2</ele>
        <time>2020-05-31T15:43:39Z</time>
      </trkpt>
      <trkpt lat="46.22892" lon="-0.8604">
        <ele>28.2</ele>
        <time>2020-05-31T15:43:40Z</time>
      </trkpt>
      <trkpt lat="46.22892" lon="-0.8604">
        <ele>28.2</ele>
        <time>2020-05-31T15:43:41Z</time>
      </trkpt>
      <trkpt lat="46.22892" lon="-0.8604">
        <ele>28.2</ele>
        <time>2020-05-31T15:43:42Z</time>
      </trkpt>
      <trkpt lat="46.22892" lon="-0.8604">
        <ele>28.2</ele>
        <time>2020-05-31T15:43:43Z</time>
      </trkpt>
      <trkpt lat="46.22892" lon="-0.86041">
        <ele>28.2</ele>
        <time>2020-05-31T15:43:44Z</time>
      </trkpt>
      <trkpt lat="46.22892" lon="-0.86041">
        <ele>28.2</ele>
        <time>2020-05-31T15:43:45Z</time>
      </trkpt>
      <trkpt lat="46.22892" lon="-0.86041">
        <ele>28.2</ele>
        <time>2020-05-31T15:43:46Z</time>
      </trkpt>
      <trkpt lat="46.22892" lon="-0.86041">
        <ele>28.2</ele>
        <time>2020-05-31T15:43:47Z</time>
      </trkpt>
      <trkpt lat="46.22892" lon="-0.8604">
        <ele>28.2</ele>
        <time>2020-05-31T15:43:48Z</time>
      </trkpt>
      <trkpt lat="46.22892" lon="-0.8604">
        <ele>28.2</ele>
        <time>2020-05-31T15:43:49Z</time>
      </trkpt>
      <trkpt lat="46.22892" lon="-0.8604">
        <ele>28.2</ele>
        <time>2020-05-31T15:43:50Z</time>
      </trkpt>
      <trkpt lat="46.22892" lon="-0.8604">
        <ele>28.2</ele>
        <time>2020-05-31T15:43:51Z</time>
      </trkpt>
      <trkpt lat="46.22892" lon="-0.8604">
        <ele>28.2</ele>
        <time>2020-05-31T15:43:52Z</time>
      </trkpt>
      <trkpt lat="46.22892" lon="-0.8604">
        <ele>28.2</ele>
        <time>2020-05-31T15:43:53Z</time>
      </trkpt>
      <trkpt lat="46.22892" lon="-0.8604">
        <ele>28.2</ele>
        <time>2020-05-31T15:43:54Z</time>
      </trkpt>
      <trkpt lat="46.22892" lon="-0.8604">
        <ele>28.2</ele>
        <time>2020-05-31T15:43:55Z</time>
      </trkpt>
      <trkpt lat="46.22892" lon="-0.8604">
        <ele>28.2</ele>
        <time>2020-05-31T15:43:56Z</time>
      </trkpt>
      <trkpt lat="46.22892" lon="-0.8604">
        <ele>28.2</ele>
        <time>2020-05-31T15:43:57Z</time>
      </trkpt>
      <trkpt lat="46.22892" lon="-0.8604">
        <ele>28.2</ele>
        <time>2020-05-31T15:43:58Z</time>
      </trkpt>
      <trkpt lat="46.22892" lon="-0.8604">
        <ele>28.2</ele>
        <time>2020-05-31T15:43:59Z</time>
      </trkpt>
      <trkpt lat="46.22892" lon="-0.8604">
        <ele>28.2</ele>
        <time>2020-05-31T15:44:00Z</time>
      </trkpt>
      <trkpt lat="46.22892" lon="-0.86039">
        <ele>28.2</ele>
        <time>2020-05-31T15:44:01Z</time>
      </trkpt>
      <trkpt lat="46.22892" lon="-0.86039">
        <ele>28.2</ele>
        <time>2020-05-31T15:44:02Z</time>
      </trkpt>
      <trkpt lat="46.22892" lon="-0.86039">
        <ele>28.2</ele>
        <time>2020-05-31T15:44:03Z</time>
      </trkpt>
      <trkpt lat="46.22892" lon="-0.86039">
        <ele>28.2</ele>
        <time>2020-05-31T15:44:04Z</time>
      </trkpt>
      <trkpt lat="46.22892" lon="-0.86038">
        <ele>28.2</ele>
        <time>2020-05-31T15:44:05Z</time>
      </trkpt>
      <trkpt lat="46.22891" lon="-0.86038">
        <ele>28.2</ele>
        <time>2020-05-31T15:44:06Z</time>
      </trkpt>
      <trkpt lat="46.22891" lon="-0.86038">
        <ele>28.2</ele>
        <time>2020-05-31T15:44:07Z</time>
      </trkpt>
      <trkpt lat="46.22891" lon="-0.86038">
        <ele>28.2</ele>
        <time>2020-05-31T15:44:08Z</time>
      </trkpt>
      <trkpt lat="46.22891" lon="-0.86038">
        <ele>28.2</ele>
        <time>2020-05-31T15:44:09Z</time>
      </trkpt>
      <trkpt lat="46.22891" lon="-0.86038">
        <ele>28.2</ele>
        <time>2020-05-31T15:44:10Z</time>
      </trkpt>
      <trkpt lat="46.22891" lon="-0.86038">
        <ele>28.2</ele>
        <time>2020-05-31T15:44:11Z</time>
      </trkpt>
      <trkpt lat="46.22891" lon="-0.86038">
        <ele>28.2</ele>
        <time>2020-05-31T15:44:12Z</time>
      </trkpt>
      <trkpt lat="46.22891" lon="-0.86038">
        <ele>28.2</ele>
        <time>2020-05-31T15:44:13Z</time>
      </trkpt>
      <trkpt lat="46.22891" lon="-0.86038">
        <ele>28.2</ele>
        <time>2020-05-31T15:44:14Z</time>
      </trkpt>
      <trkpt lat="46.22891" lon="-0.86038">
        <ele>28.2</ele>
        <time>2020-05-31T15:44:15Z</time>
      </trkpt>
      <trkpt lat="46.22891" lon="-0.86038">
        <ele>28.2</ele>
        <time>2020-05-31T15:44:16Z</time>
      </trkpt>
      <trkpt lat="46.22891" lon="-0.86038">
        <ele>28.2</ele>
        <time>2020-05-31T15:44:17Z</time>
      </trkpt>
      <trkpt lat="46.22891" lon="-0.86037">
        <ele>28.2</ele>
        <time>2020-05-31T15:44:18Z</time>
      </trkpt>
      <trkpt lat="46.22891" lon="-0.86038">
        <ele>28.2</ele>
        <time>2020-05-31T15:44:19Z</time>
      </trkpt>
      <trkpt lat="46.22891" lon="-0.86037">
        <ele>28.2</ele>
        <time>2020-05-31T15:44:20Z</time>
      </trkpt>
      <trkpt lat="46.22891" lon="-0.86037">
        <ele>28.2</ele>
        <time>2020-05-31T15:44:21Z</time>
      </trkpt>
      <trkpt lat="46.22891" lon="-0.86037">
        <ele>28.2</ele>
        <time>2020-05-31T15:44:22Z</time>
      </trkpt>
      <trkpt lat="46.22892" lon="-0.86037">
        <ele>28.2</ele>
        <time>2020-05-31T15:44:23Z</time>
      </trkpt>
      <trkpt lat="46.22892" lon="-0.86037">
        <ele>28.2</ele>
        <time>2020-05-31T15:44:24Z</time>
      </trkpt>
      <trkpt lat="46.22892" lon="-0.86037">
        <ele>28.2</ele>
        <time>2020-05-31T15:44:25Z</time>
      </trkpt>
      <trkpt lat="46.22892" lon="-0.86037">
        <ele>28.2</ele>
        <time>2020-05-31T15:44:26Z</time>
      </trkpt>
      <trkpt lat="46.22892" lon="-0.86037">
        <ele>28.2</ele>
        <time>2020-05-31T15:44:27Z</time>
      </trkpt>
      <trkpt lat="46.22892" lon="-0.86037">
        <ele>28.2</ele>
        <time>2020-05-31T15:44:28Z</time>
      </trkpt>
      <trkpt lat="46.22892" lon="-0.86037">
        <ele>28.2</ele>
        <time>2020-05-31T15:44:29Z</time>
      </trkpt>
      <trkpt lat="46.22892" lon="-0.86037">
        <ele>28.2</ele>
        <time>2020-05-31T15:44:30Z</time>
      </trkpt>
      <trkpt lat="46.22892" lon="-0.86037">
        <ele>28.2</ele>
        <time>2020-05-31T15:44:31Z</time>
      </trkpt>
      <trkpt lat="46.22892" lon="-0.86037">
        <ele>28.2</ele>
        <time>2020-05-31T15:44:32Z</time>
      </trkpt>
      <trkpt lat="46.22892" lon="-0.86037">
        <ele>28.2</ele>
        <time>2020-05-31T15:44:33Z</time>
      </trkpt>
      <trkpt lat="46.22892" lon="-0.86039">
        <ele>28.2</ele>
        <time>2020-05-31T15:44:34Z</time>
      </trkpt>
      <trkpt lat="46.22892" lon="-0.86039">
        <ele>28.2</ele>
        <time>2020-05-31T15:44:35Z</time>
      </trkpt>
      <trkpt lat="46.22892" lon="-0.86039">
        <ele>28.2</ele>
        <time>2020-05-31T15:44:36Z</time>
      </trkpt>
      <trkpt lat="46.22892" lon="-0.86039">
        <ele>28.2</ele>
        <time>2020-05-31T15:44:37Z</time>
      </trkpt>
      <trkpt lat="46.22892" lon="-0.86039">
        <ele>28.2</ele>
        <time>2020-05-31T15:44:38Z</time>
      </trkpt>
      <trkpt lat="46.22892" lon="-0.86039">
        <ele>28.2</ele>
        <time>2020-05-31T15:44:39Z</time>
      </trkpt>
      <trkpt lat="46.22892" lon="-0.86039">
        <ele>28.2</ele>
        <time>2020-05-31T15:44:40Z</time>
      </trkpt>
      <trkpt lat="46.22892" lon="-0.86039">
        <ele>28.2</ele>
        <time>2020-05-31T15:44:41Z</time>
      </trkpt>
      <trkpt lat="46.22892" lon="-0.86039">
        <ele>28.2</ele>
        <time>2020-05-31T15:44:42Z</time>
      </trkpt>
      <trkpt lat="46.22892" lon="-0.86039">
        <ele>28.2</ele>
        <time>2020-05-31T15:44:43Z</time>
      </trkpt>
      <trkpt lat="46.22892" lon="-0.86039">
        <ele>28.2</ele>
        <time>2020-05-31T15:44:44Z</time>
      </trkpt>
      <trkpt lat="46.22892" lon="-0.86039">
        <ele>28.2</ele>
        <time>2020-05-31T15:44:45Z</time>
      </trkpt>
      <trkpt lat="46.22892" lon="-0.86039">
        <ele>28.2</ele>
        <time>2020-05-31T15:44:46Z</time>
      </trkpt>
      <trkpt lat="46.22892" lon="-0.86039">
        <ele>28.2</ele>
        <time>2020-05-31T15:44:47Z</time>
      </trkpt>
      <trkpt lat="46.22892" lon="-0.8604">
        <ele>28.2</ele>
        <time>2020-05-31T15:44:48Z</time>
      </trkpt>
      <trkpt lat="46.22892" lon="-0.8604">
        <ele>28.2</ele>
        <time>2020-05-31T15:44:49Z</time>
      </trkpt>
      <trkpt lat="46.22892" lon="-0.8604">
        <ele>28.2</ele>
        <time>2020-05-31T15:44:50Z</time>
      </trkpt>
      <trkpt lat="46.22892" lon="-0.86039">
        <ele>28.2</ele>
        <time>2020-05-31T15:44:51Z</time>
      </trkpt>
      <trkpt lat="46.22892" lon="-0.86039">
        <ele>28.2</ele>
        <time>2020-05-31T15:44:52Z</time>
      </trkpt>
      <trkpt lat="46.22892" lon="-0.86039">
        <ele>28.2</ele>
        <time>2020-05-31T15:44:53Z</time>
      </trkpt>
      <trkpt lat="46.22892" lon="-0.86039">
        <ele>28.2</ele>
        <time>2020-05-31T15:44:54Z</time>
      </trkpt>
      <trkpt lat="46.22892" lon="-0.86039">
        <ele>28.2</ele>
        <time>2020-05-31T15:44:55Z</time>
      </trkpt>
      <trkpt lat="46.22892" lon="-0.86039">
        <ele>28.2</ele>
        <time>2020-05-31T15:44:56Z</time>
      </trkpt>
      <trkpt lat="46.22893" lon="-0.86039">
        <ele>28.2</ele>
        <time>2020-05-31T15:44:57Z</time>
      </trkpt>
      <trkpt lat="46.22893" lon="-0.86039">
        <ele>28.2</ele>
        <time>2020-05-31T15:44:58Z</time>
      </trkpt>
      <trkpt lat="46.22893" lon="-0.86039">
        <ele>28.2</ele>
        <time>2020-05-31T15:44:59Z</time>
      </trkpt>
      <trkpt lat="46.22893" lon="-0.86039">
        <ele>28.2</ele>
        <time>2020-05-31T15:45:00Z</time>
      </trkpt>
      <trkpt lat="46.22893" lon="-0.86039">
        <ele>28.2</ele>
        <time>2020-05-31T15:45:01Z</time>
      </trkpt>
      <trkpt lat="46.22893" lon="-0.86039">
        <ele>28.2</ele>
        <time>2020-05-31T15:45:02Z</time>
      </trkpt>
      <trkpt lat="46.22893" lon="-0.86039">
        <ele>28.2</ele>
        <time>2020-05-31T15:45:03Z</time>
      </trkpt>
      <trkpt lat="46.22893" lon="-0.86039">
        <ele>28.2</ele>
        <time>2020-05-31T15:45:04Z</time>
      </trkpt>
      <trkpt lat="46.22893" lon="-0.86039">
        <ele>28.2</ele>
        <time>2020-05-31T15:45:05Z</time>
      </trkpt>
      <trkpt lat="46.22893" lon="-0.86038">
        <ele>28.2</ele>
        <time>2020-05-31T15:45:06Z</time>
      </trkpt>
      <trkpt lat="46.22893" lon="-0.86038">
        <ele>28.2</ele>
        <time>2020-05-31T15:45:07Z</time>
      </trkpt>
      <trkpt lat="46.22893" lon="-0.86038">
        <ele>28.2</ele>
        <time>2020-05-31T15:45:08Z</time>
      </trkpt>
      <trkpt lat="46.22893" lon="-0.86038">
        <ele>28.2</ele>
        <time>2020-05-31T15:45:09Z</time>
      </trkpt>
      <trkpt lat="46.22893" lon="-0.86038">
        <ele>28.2</ele>
        <time>2020-05-31T15:45:10Z</time>
      </trkpt>
      <trkpt lat="46.22893" lon="-0.86038">
        <ele>28.2</ele>
        <time>2020-05-31T15:45:11Z</time>
      </trkpt>
      <trkpt lat="46.22893" lon="-0.86038">
        <ele>28.2</ele>
        <time>2020-05-31T15:45:12Z</time>
      </trkpt>
      <trkpt lat="46.22893" lon="-0.86038">
        <ele>28.2</ele>
        <time>2020-05-31T15:45:13Z</time>
      </trkpt>
      <trkpt lat="46.22893" lon="-0.86038">
        <ele>28.2</ele>
        <time>2020-05-31T15:45:14Z</time>
      </trkpt>
      <trkpt lat="46.22893" lon="-0.86038">
        <ele>28.2</ele>
        <time>2020-05-31T15:45:15Z</time>
      </trkpt>
      <trkpt lat="46.22893" lon="-0.86038">
        <ele>28.2</ele>
        <time>2020-05-31T15:45:16Z</time>
      </trkpt>
      <trkpt lat="46.22893" lon="-0.86038">
        <ele>28.2</ele>
        <time>2020-05-31T15:45:17Z</time>
      </trkpt>
      <trkpt lat="46.22893" lon="-0.86038">
        <ele>28.2</ele>
        <time>2020-05-31T15:45:18Z</time>
      </trkpt>
      <trkpt lat="46.22893" lon="-0.86038">
        <ele>28.2</ele>
        <time>2020-05-31T15:45:19Z</time>
      </trkpt>
      <trkpt lat="46.22893" lon="-0.86038">
        <ele>28.2</ele>
        <time>2020-05-31T15:45:20Z</time>
      </trkpt>
      <trkpt lat="46.22893" lon="-0.86038">
        <ele>28.2</ele>
        <time>2020-05-31T15:45:21Z</time>
      </trkpt>
      <trkpt lat="46.22893" lon="-0.86038">
        <ele>28.2</ele>
        <time>2020-05-31T15:45:22Z</time>
      </trkpt>
      <trkpt lat="46.22893" lon="-0.86038">
        <ele>28.2</ele>
        <time>2020-05-31T15:45:23Z</time>
      </trkpt>
      <trkpt lat="46.22893" lon="-0.86038">
        <ele>28.2</ele>
        <time>2020-05-31T15:45:24Z</time>
      </trkpt>
      <trkpt lat="46.22893" lon="-0.86038">
        <ele>28.2</ele>
        <time>2020-05-31T15:45:25Z</time>
      </trkpt>
      <trkpt lat="46.22893" lon="-0.86038">
        <ele>28.2</ele>
        <time>2020-05-31T15:45:26Z</time>
      </trkpt>
      <trkpt lat="46.22893" lon="-0.86038">
        <ele>28.2</ele>
        <time>2020-05-31T15:45:27Z</time>
      </trkpt>
      <trkpt lat="46.22893" lon="-0.86038">
        <ele>28.2</ele>
        <time>2020-05-31T15:45:28Z</time>
      </trkpt>
      <trkpt lat="46.22894" lon="-0.86038">
        <ele>28.2</ele>
        <time>2020-05-31T15:45:29Z</time>
      </trkpt>
      <trkpt lat="46.22893" lon="-0.8604">
        <ele>28.2</ele>
        <time>2020-05-31T15:45:30Z</time>
      </trkpt>
      <trkpt lat="46.22894" lon="-0.86039">
        <ele>28.2</ele>
        <time>2020-05-31T15:45:31Z</time>
      </trkpt>
      <trkpt lat="46.22894" lon="-0.86039">
        <ele>28.2</ele>
        <time>2020-05-31T15:45:32Z</time>
      </trkpt>
      <trkpt lat="46.22895" lon="-0.86039">
        <ele>28.2</ele>
        <time>2020-05-31T15:45:33Z</time>
      </trkpt>
      <trkpt lat="46.22895" lon="-0.86039">
        <ele>28.2</ele>
        <time>2020-05-31T15:45:34Z</time>
      </trkpt>
      <trkpt lat="46.22895" lon="-0.8604">
        <ele>28.2</ele>
        <time>2020-05-31T15:45:35Z</time>
      </trkpt>
      <trkpt lat="46.22896" lon="-0.86039">
        <ele>28.2</ele>
        <time>2020-05-31T15:45:36Z</time>
      </trkpt>
      <trkpt lat="46.22896" lon="-0.86039">
        <ele>28.2</ele>
        <time>2020-05-31T15:45:37Z</time>
      </trkpt>
      <trkpt lat="46.22896" lon="-0.86039">
        <ele>28.2</ele>
        <time>2020-05-31T15:45:38Z</time>
      </trkpt>
      <trkpt lat="46.22896" lon="-0.86039">
        <ele>28.2</ele>
        <time>2020-05-31T15:45:39Z</time>
      </trkpt>
      <trkpt lat="46.22896" lon="-0.86039">
        <ele>28.2</ele>
        <time>2020-05-31T15:45:40Z</time>
      </trkpt>
      <trkpt lat="46.22896" lon="-0.86039">
        <ele>28.2</ele>
        <time>2020-05-31T15:45:41Z</time>
      </trkpt>
      <trkpt lat="46.22896" lon="-0.86039">
        <ele>28.2</ele>
        <time>2020-05-31T15:45:42Z</time>
      </trkpt>
      <trkpt lat="46.22896" lon="-0.86039">
        <ele>28.2</ele>
        <time>2020-05-31T15:45:43Z</time>
      </trkpt>
      <trkpt lat="46.22896" lon="-0.86039">
        <ele>28.2</ele>
        <time>2020-05-31T15:45:44Z</time>
      </trkpt>
      <trkpt lat="46.22896" lon="-0.86039">
        <ele>28.2</ele>
        <time>2020-05-31T15:45:45Z</time>
      </trkpt>
      <trkpt lat="46.22896" lon="-0.86039">
        <ele>28.2</ele>
        <time>2020-05-31T15:45:46Z</time>
      </trkpt>
      <trkpt lat="46.22896" lon="-0.86039">
        <ele>28.2</ele>
        <time>2020-05-31T15:45:47Z</time>
      </trkpt>
      <trkpt lat="46.22896" lon="-0.86039">
        <ele>28.2</ele>
        <time>2020-05-31T15:45:49Z</time>
      </trkpt>
      <trkpt lat="46.22896" lon="-0.86039">
        <ele>28.2</ele>
        <time>2020-05-31T15:45:50Z</time>
      </trkpt>
      <trkpt lat="46.22897" lon="-0.86039">
        <ele>28.2</ele>
        <time>2020-05-31T15:45:51Z</time>
      </trkpt>
      <trkpt lat="46.22897" lon="-0.86039">
        <ele>28.2</ele>
        <time>2020-05-31T15:45:52Z</time>
      </trkpt>
      <trkpt lat="46.22897" lon="-0.86039">
        <ele>28.2</ele>
        <time>2020-05-31T15:45:53Z</time>
      </trkpt>
      <trkpt lat="46.22897" lon="-0.86039">
        <ele>28.2</ele>
        <time>2020-05-31T15:45:54Z</time>
      </trkpt>
      <trkpt lat="46.22897" lon="-0.86039">
        <ele>28.2</ele>
        <time>2020-05-31T15:45:55Z</time>
      </trkpt>
      <trkpt lat="46.22897" lon="-0.86039">
        <ele>28.2</ele>
        <time>2020-05-31T15:45:56Z</time>
      </trkpt>
      <trkpt lat="46.22897" lon="-0.86039">
        <ele>28.2</ele>
        <time>2020-05-31T15:45:57Z</time>
      </trkpt>
      <trkpt lat="46.22897" lon="-0.86039">
        <ele>28.2</ele>
        <time>2020-05-31T15:45:58Z</time>
      </trkpt>
      <trkpt lat="46.22897" lon="-0.86039">
        <ele>28.2</ele>
        <time>2020-05-31T15:45:59Z</time>
      </trkpt>
      <trkpt lat="46.22897" lon="-0.86039">
        <ele>28.2</ele>
        <time>2020-05-31T15:46:00Z</time>
      </trkpt>
      <trkpt lat="46.22897" lon="-0.8604">
        <ele>28.2</ele>
        <time>2020-05-31T15:46:01Z</time>
      </trkpt>
      <trkpt lat="46.22896" lon="-0.8604">
        <ele>28.2</ele>
        <time>2020-05-31T15:46:02Z</time>
      </trkpt>
      <trkpt lat="46.22896" lon="-0.8604">
        <ele>28.2</ele>
        <time>2020-05-31T15:46:03Z</time>
      </trkpt>
      <trkpt lat="46.22897" lon="-0.8604">
        <ele>28.2</ele>
        <time>2020-05-31T15:46:04Z</time>
      </trkpt>
      <trkpt lat="46.22897" lon="-0.8604">
        <ele>28.2</ele>
        <time>2020-05-31T15:46:05Z</time>
      </trkpt>
      <trkpt lat="46.22897" lon="-0.86039">
        <ele>28.2</ele>
        <time>2020-05-31T15:46:06Z</time>
      </trkpt>
      <trkpt lat="46.22897" lon="-0.86039">
        <ele>28.2</ele>
        <time>2020-05-31T15:46:07Z</time>
      </trkpt>
      <trkpt lat="46.22897" lon="-0.86039">
        <ele>28.2</ele>
        <time>2020-05-31T15:46:08Z</time>
      </trkpt>
      <trkpt lat="46.22897" lon="-0.86039">
        <ele>28.2</ele>
        <time>2020-05-31T15:46:09Z</time>
      </trkpt>
      <trkpt lat="46.22897" lon="-0.86039">
        <ele>28.2</ele>
        <time>2020-05-31T15:46:10Z</time>
      </trkpt>
      <trkpt lat="46.22897" lon="-0.86039">
        <ele>28.2</ele>
        <time>2020-05-31T15:46:11Z</time>
      </trkpt>
      <trkpt lat="46.22897" lon="-0.86039">
        <ele>28.2</ele>
        <time>2020-05-31T15:46:12Z</time>
      </trkpt>
      <trkpt lat="46.22897" lon="-0.86039">
        <ele>28.2</ele>
        <time>2020-05-31T15:46:13Z</time>
      </trkpt>
      <trkpt lat="46.22897" lon="-0.86039">
        <ele>28.2</ele>
        <time>2020-05-31T15:46:14Z</time>
      </trkpt>
      <trkpt lat="46.22897" lon="-0.86039">
        <ele>28.2</ele>
        <time>2020-05-31T15:46:15Z</time>
      </trkpt>
      <trkpt lat="46.22897" lon="-0.86039">
        <ele>28.2</ele>
        <time>2020-05-31T15:46:16Z</time>
      </trkpt>
      <trkpt lat="46.22897" lon="-0.86039">
        <ele>28.2</ele>
        <time>2020-05-31T15:46:17Z</time>
      </trkpt>
      <trkpt lat="46.22897" lon="-0.86038">
        <ele>28.2</ele>
        <time>2020-05-31T15:46:18Z</time>
      </trkpt>
      <trkpt lat="46.22897" lon="-0.86038">
        <ele>28.2</ele>
        <time>2020-05-31T15:46:19Z</time>
      </trkpt>
      <trkpt lat="46.22897" lon="-0.86038">
        <ele>28.2</ele>
        <time>2020-05-31T15:46:20Z</time>
      </trkpt>
      <trkpt lat="46.22897" lon="-0.86038">
        <ele>28.2</ele>
        <time>2020-05-31T15:46:21Z</time>
      </trkpt>
      <trkpt lat="46.22897" lon="-0.86038">
        <ele>28.2</ele>
        <time>2020-05-31T15:46:22Z</time>
      </trkpt>
      <trkpt lat="46.22897" lon="-0.86038">
        <ele>28.2</ele>
        <time>2020-05-31T15:46:23Z</time>
      </trkpt>
      <trkpt lat="46.22897" lon="-0.86039">
        <ele>28.2</ele>
        <time>2020-05-31T15:46:24Z</time>
      </trkpt>
      <trkpt lat="46.22897" lon="-0.8604">
        <ele>28.2</ele>
        <time>2020-05-31T15:46:25Z</time>
      </trkpt>
      <trkpt lat="46.22897" lon="-0.86041">
        <ele>28.2</ele>
        <time>2020-05-31T15:46:26Z</time>
      </trkpt>
      <trkpt lat="46.22896" lon="-0.86043">
        <ele>28.2</ele>
        <time>2020-05-31T15:46:27Z</time>
      </trkpt>
      <trkpt lat="46.22893" lon="-0.86044">
        <ele>28.2</ele>
        <time>2020-05-31T15:46:28Z</time>
      </trkpt>
      <trkpt lat="46.2289" lon="-0.86046">
        <ele>28.2</ele>
        <time>2020-05-31T15:46:29Z</time>
      </trkpt>
      <trkpt lat="46.22886" lon="-0.8605">
        <ele>28.1</ele>
        <time>2020-05-31T15:46:30Z</time>
      </trkpt>
      <trkpt lat="46.22882" lon="-0.86053">
        <ele>28.1</ele>
        <time>2020-05-31T15:46:31Z</time>
      </trkpt>
      <trkpt lat="46.22877" lon="-0.86057">
        <ele>27.9</ele>
        <time>2020-05-31T15:46:32Z</time>
      </trkpt>
      <trkpt lat="46.22873" lon="-0.86059">
        <ele>27.8</ele>
        <time>2020-05-31T15:46:33Z</time>
      </trkpt>
      <trkpt lat="46.22869" lon="-0.86062">
        <ele>27.8</ele>
        <time>2020-05-31T15:46:34Z</time>
      </trkpt>
      <trkpt lat="46.22864" lon="-0.86065">
        <ele>27.7</ele>
        <time>2020-05-31T15:46:35Z</time>
      </trkpt>
      <trkpt lat="46.2286" lon="-0.86068">
        <ele>27.5</ele>
        <time>2020-05-31T15:46:36Z</time>
      </trkpt>
      <trkpt lat="46.22856" lon="-0.86072">
        <ele>27.4</ele>
        <time>2020-05-31T15:46:37Z</time>
      </trkpt>
      <trkpt lat="46.22851" lon="-0.86075">
        <ele>27.2</ele>
        <time>2020-05-31T15:46:38Z</time>
      </trkpt>
      <trkpt lat="46.22846" lon="-0.86079">
        <ele>27.1</ele>
        <time>2020-05-31T15:46:39Z</time>
      </trkpt>
      <trkpt lat="46.22843" lon="-0.86081">
        <ele>27</ele>
        <time>2020-05-31T15:46:40Z</time>
      </trkpt>
      <trkpt lat="46.22838" lon="-0.86084">
        <ele>26.9</ele>
        <time>2020-05-31T15:46:41Z</time>
      </trkpt>
      <trkpt lat="46.22834" lon="-0.86087">
        <ele>26.8</ele>
        <time>2020-05-31T15:46:42Z</time>
      </trkpt>
      <trkpt lat="46.2283" lon="-0.86091">
        <ele>26.7</ele>
        <time>2020-05-31T15:46:43Z</time>
      </trkpt>
      <trkpt lat="46.22826" lon="-0.86093">
        <ele>26.7</ele>
        <time>2020-05-31T15:46:44Z</time>
      </trkpt>
      <trkpt lat="46.22823" lon="-0.86096">
        <ele>26.6</ele>
        <time>2020-05-31T15:46:45Z</time>
      </trkpt>
      <trkpt lat="46.22819" lon="-0.86098">
        <ele>26.6</ele>
        <time>2020-05-31T15:46:46Z</time>
      </trkpt>
      <trkpt lat="46.22815" lon="-0.86102">
        <ele>26.5</ele>
        <time>2020-05-31T15:46:47Z</time>
      </trkpt>
      <trkpt lat="46.22811" lon="-0.86106">
        <ele>26.3</ele>
        <time>2020-05-31T15:46:48Z</time>
      </trkpt>
      <trkpt lat="46.22806" lon="-0.86109">
        <ele>26.2</ele>
        <time>2020-05-31T15:46:49Z</time>
      </trkpt>
      <trkpt lat="46.22801" lon="-0.8611">
        <ele>26</ele>
        <time>2020-05-31T15:46:50Z</time>
      </trkpt>
      <trkpt lat="46.22795" lon="-0.86111">
        <ele>25.9</ele>
        <time>2020-05-31T15:46:51Z</time>
      </trkpt>
      <trkpt lat="46.22788" lon="-0.86111">
        <ele>25.7</ele>
        <time>2020-05-31T15:46:52Z</time>
      </trkpt>
      <trkpt lat="46.22781" lon="-0.86113">
        <ele>25.5</ele>
        <time>2020-05-31T15:46:53Z</time>
      </trkpt>
      <trkpt lat="46.22775" lon="-0.86115">
        <ele>25.3</ele>
        <time>2020-05-31T15:46:54Z</time>
      </trkpt>
      <trkpt lat="46.2277" lon="-0.86116">
        <ele>25.1</ele>
        <time>2020-05-31T15:46:55Z</time>
      </trkpt>
      <trkpt lat="46.22764" lon="-0.86117">
        <ele>25</ele>
        <time>2020-05-31T15:46:56Z</time>
      </trkpt>
      <trkpt lat="46.22758" lon="-0.86119">
        <ele>24.8</ele>
        <time>2020-05-31T15:46:57Z</time>
      </trkpt>
      <trkpt lat="46.22752" lon="-0.8612">
        <ele>24.7</ele>
        <time>2020-05-31T15:46:58Z</time>
      </trkpt>
      <trkpt lat="46.22746" lon="-0.86122">
        <ele>24.5</ele>
        <time>2020-05-31T15:46:59Z</time>
      </trkpt>
      <trkpt lat="46.2274" lon="-0.86123">
        <ele>24.4</ele>
        <time>2020-05-31T15:47:00Z</time>
      </trkpt>
      <trkpt lat="46.22736" lon="-0.86124">
        <ele>24.4</ele>
        <time>2020-05-31T15:47:01Z</time>
      </trkpt>
      <trkpt lat="46.22733" lon="-0.86125">
        <ele>24.3</ele>
        <time>2020-05-31T15:47:02Z</time>
      </trkpt>
      <trkpt lat="46.22731" lon="-0.86125">
        <ele>24.3</ele>
        <time>2020-05-31T15:47:03Z</time>
      </trkpt>
      <trkpt lat="46.22731" lon="-0.86126">
        <ele>24.3</ele>
        <time>2020-05-31T15:47:04Z</time>
      </trkpt>
      <trkpt lat="46.2273" lon="-0.86131">
        <ele>24.3</ele>
        <time>2020-05-31T15:47:05Z</time>
      </trkpt>
      <trkpt lat="46.2273" lon="-0.86133">
        <ele>24.3</ele>
        <time>2020-05-31T15:47:06Z</time>
      </trkpt>
      <trkpt lat="46.2273" lon="-0.86137">
        <ele>24.3</ele>
        <time>2020-05-31T15:47:07Z</time>
      </trkpt>
      <trkpt lat="46.2273" lon="-0.86142">
        <ele>24.4</ele>
        <time>2020-05-31T15:47:08Z</time>
      </trkpt>
      <trkpt lat="46.2273" lon="-0.86147">
        <ele>24.4</ele>
        <time>2020-05-31T15:47:09Z</time>
      </trkpt>
      <trkpt lat="46.2273" lon="-0.86152">
        <ele>24.4</ele>
        <time>2020-05-31T15:47:10Z</time>
      </trkpt>
      <trkpt lat="46.2273" lon="-0.86157">
        <ele>24.4</ele>
        <time>2020-05-31T15:47:11Z</time>
      </trkpt>
      <trkpt lat="46.2273" lon="-0.86162">
        <ele>24.5</ele>
        <time>2020-05-31T15:47:12Z</time>
      </trkpt>
      <trkpt lat="46.2273" lon="-0.86167">
        <ele>24.5</ele>
        <time>2020-05-31T15:47:13Z</time>
      </trkpt>
      <trkpt lat="46.2273" lon="-0.86173">
        <ele>24.5</ele>
        <time>2020-05-31T15:47:14Z</time>
      </trkpt>
      <trkpt lat="46.2273" lon="-0.86178">
        <ele>24.6</ele>
        <time>2020-05-31T15:47:15Z</time>
      </trkpt>
      <trkpt lat="46.2273" lon="-0.86185">
        <ele>24.6</ele>
        <time>2020-05-31T15:47:16Z</time>
      </trkpt>
      <trkpt lat="46.2273" lon="-0.86191">
        <ele>24.6</ele>
        <time>2020-05-31T15:47:17Z</time>
      </trkpt>
      <trkpt lat="46.2273" lon="-0.86197">
        <ele>24.6</ele>
        <time>2020-05-31T15:47:18Z</time>
      </trkpt>
      <trkpt lat="46.2273" lon="-0.86204">
        <ele>24.6</ele>
        <time>2020-05-31T15:47:19Z</time>
      </trkpt>
      <trkpt lat="46.2273" lon="-0.86212">
        <ele>24.6</ele>
        <time>2020-05-31T15:47:20Z</time>
      </trkpt>
      <trkpt lat="46.2273" lon="-0.86221">
        <ele>24.5</ele>
        <time>2020-05-31T15:47:21Z</time>
      </trkpt>
      <trkpt lat="46.2273" lon="-0.86229">
        <ele>24.5</ele>
        <time>2020-05-31T15:47:22Z</time>
      </trkpt>
      <trkpt lat="46.2273" lon="-0.86238">
        <ele>24.5</ele>
        <time>2020-05-31T15:47:23Z</time>
      </trkpt>
      <trkpt lat="46.22729" lon="-0.86247">
        <ele>24.5</ele>
        <time>2020-05-31T15:47:24Z</time>
      </trkpt>
      <trkpt lat="46.22728" lon="-0.86256">
        <ele>24.5</ele>
        <time>2020-05-31T15:47:25Z</time>
      </trkpt>
      <trkpt lat="46.22727" lon="-0.86265">
        <ele>24.5</ele>
        <time>2020-05-31T15:47:26Z</time>
      </trkpt>
      <trkpt lat="46.22727" lon="-0.86275">
        <ele>24.4</ele>
        <time>2020-05-31T15:47:27Z</time>
      </trkpt>
      <trkpt lat="46.22727" lon="-0.86283">
        <ele>24.4</ele>
        <time>2020-05-31T15:47:28Z</time>
      </trkpt>
      <trkpt lat="46.22727" lon="-0.86291">
        <ele>24.4</ele>
        <time>2020-05-31T15:47:29Z</time>
      </trkpt>
      <trkpt lat="46.22727" lon="-0.863">
        <ele>24.4</ele>
        <time>2020-05-31T15:47:30Z</time>
      </trkpt>
      <trkpt lat="46.22726" lon="-0.86309">
        <ele>24.4</ele>
        <time>2020-05-31T15:47:31Z</time>
      </trkpt>
      <trkpt lat="46.22727" lon="-0.86316">
        <ele>24.4</ele>
        <time>2020-05-31T15:47:32Z</time>
      </trkpt>
      <trkpt lat="46.22727" lon="-0.86321">
        <ele>24.3</ele>
        <time>2020-05-31T15:47:33Z</time>
      </trkpt>
      <trkpt lat="46.22729" lon="-0.86325">
        <ele>24.3</ele>
        <time>2020-05-31T15:47:34Z</time>
      </trkpt>
      <trkpt lat="46.2273" lon="-0.86325">
        <ele>24.6</ele>
        <time>2020-05-31T15:47:35Z</time>
      </trkpt>
      <trkpt lat="46.22734" lon="-0.86323">
        <ele>24.6</ele>
        <time>2020-05-31T15:47:36Z</time>
      </trkpt>
      <trkpt lat="46.22739" lon="-0.86321">
        <ele>24.7</ele>
        <time>2020-05-31T15:47:37Z</time>
      </trkpt>
      <trkpt lat="46.22744" lon="-0.86318">
        <ele>24.8</ele>
        <time>2020-05-31T15:47:38Z</time>
      </trkpt>
      <trkpt lat="46.22748" lon="-0.86315">
        <ele>24.9</ele>
        <time>2020-05-31T15:47:39Z</time>
      </trkpt>
      <trkpt lat="46.22752" lon="-0.86313">
        <ele>25</ele>
        <time>2020-05-31T15:47:40Z</time>
      </trkpt>
      <trkpt lat="46.22755" lon="-0.86312">
        <ele>25.1</ele>
        <time>2020-05-31T15:47:41Z</time>
      </trkpt>
      <trkpt lat="46.22758" lon="-0.86312">
        <ele>25.3</ele>
        <time>2020-05-31T15:47:42Z</time>
      </trkpt>
      <trkpt lat="46.2276" lon="-0.86315">
        <ele>25.3</ele>
        <time>2020-05-31T15:47:43Z</time>
      </trkpt>
      <trkpt lat="46.22762" lon="-0.8632">
        <ele>25.4</ele>
        <time>2020-05-31T15:47:44Z</time>
      </trkpt>
      <trkpt lat="46.22763" lon="-0.86324">
        <ele>25.4</ele>
        <time>2020-05-31T15:47:45Z</time>
      </trkpt>
      <trkpt lat="46.22764" lon="-0.8633">
        <ele>25.5</ele>
        <time>2020-05-31T15:47:46Z</time>
      </trkpt>
      <trkpt lat="46.22765" lon="-0.86335">
        <ele>25.7</ele>
        <time>2020-05-31T15:47:47Z</time>
      </trkpt>
      <trkpt lat="46.22767" lon="-0.8634">
        <ele>25.8</ele>
        <time>2020-05-31T15:47:48Z</time>
      </trkpt>
      <trkpt lat="46.22767" lon="-0.86345">
        <ele>25.9</ele>
        <time>2020-05-31T15:47:49Z</time>
      </trkpt>
      <trkpt lat="46.22768" lon="-0.8635">
        <ele>26</ele>
        <time>2020-05-31T15:47:50Z</time>
      </trkpt>
      <trkpt lat="46.22769" lon="-0.86356">
        <ele>26.1</ele>
        <time>2020-05-31T15:47:51Z</time>
      </trkpt>
      <trkpt lat="46.2277" lon="-0.86361">
        <ele>26.1</ele>
        <time>2020-05-31T15:47:52Z</time>
      </trkpt>
      <trkpt lat="46.22771" lon="-0.86367">
        <ele>26.1</ele>
        <time>2020-05-31T15:47:53Z</time>
      </trkpt>
      <trkpt lat="46.22773" lon="-0.86374">
        <ele>26.1</ele>
        <time>2020-05-31T15:47:54Z</time>
      </trkpt>
      <trkpt lat="46.22774" lon="-0.86379">
        <ele>26.1</ele>
        <time>2020-05-31T15:47:55Z</time>
      </trkpt>
      <trkpt lat="46.22776" lon="-0.86383">
        <ele>26.1</ele>
        <time>2020-05-31T15:47:56Z</time>
      </trkpt>
      <trkpt lat="46.22777" lon="-0.86389">
        <ele>26.1</ele>
        <time>2020-05-31T15:47:57Z</time>
      </trkpt>
      <trkpt lat="46.22778" lon="-0.86394">
        <ele>26.1</ele>
        <time>2020-05-31T15:47:58Z</time>
      </trkpt>
      <trkpt lat="46.22779" lon="-0.86399">
        <ele>26.1</ele>
        <time>2020-05-31T15:47:59Z</time>
      </trkpt>
      <trkpt lat="46.2278" lon="-0.86403">
        <ele>26.1</ele>
        <time>2020-05-31T15:48:00Z</time>
      </trkpt>
      <trkpt lat="46.22781" lon="-0.86405">
        <ele>26.1</ele>
        <time>2020-05-31T15:48:01Z</time>
      </trkpt>
      <trkpt lat="46.22781" lon="-0.86405">
        <ele>26.1</ele>
        <time>2020-05-31T15:48:02Z</time>
      </trkpt>
      <trkpt lat="46.22781" lon="-0.86405">
        <ele>26.1</ele>
        <time>2020-05-31T15:48:03Z</time>
      </trkpt>
      <trkpt lat="46.2278" lon="-0.86406">
        <ele>26.1</ele>
        <time>2020-05-31T15:48:04Z</time>
      </trkpt>
      <trkpt lat="46.22781" lon="-0.86406">
        <ele>26.1</ele>
        <time>2020-05-31T15:48:05Z</time>
      </trkpt>
      <trkpt lat="46.22781" lon="-0.86406">
        <ele>26.1</ele>
        <time>2020-05-31T15:48:06Z</time>
      </trkpt>
      <trkpt lat="46.22782" lon="-0.86406">
        <ele>26.1</ele>
        <time>2020-05-31T15:48:07Z</time>
      </trkpt>
      <trkpt lat="46.22782" lon="-0.86406">
        <ele>26.1</ele>
        <time>2020-05-31T15:48:08Z</time>
      </trkpt>
      <trkpt lat="46.22782" lon="-0.86407">
        <ele>26.1</ele>
        <time>2020-05-31T15:48:09Z</time>
      </trkpt>
      <trkpt lat="46.22782" lon="-0.86407">
        <ele>26.1</ele>
        <time>2020-05-31T15:48:10Z</time>
      </trkpt>
      <trkpt lat="46.22782" lon="-0.86407">
        <ele>26.1</ele>
        <time>2020-05-31T15:48:11Z</time>
      </trkpt>
      <trkpt lat="46.22782" lon="-0.86407">
        <ele>26.1</ele>
        <time>2020-05-31T15:48:12Z</time>
      </trkpt>
      <trkpt lat="46.22782" lon="-0.86407">
        <ele>26.1</ele>
        <time>2020-05-31T15:48:13Z</time>
      </trkpt>
      <trkpt lat="46.22782" lon="-0.86407">
        <ele>26.1</ele>
        <time>2020-05-31T15:48:14Z</time>
      </trkpt>
      <trkpt lat="46.22783" lon="-0.86408">
        <ele>26.1</ele>
        <time>2020-05-31T15:48:15Z</time>
      </trkpt>
      <trkpt lat="46.22783" lon="-0.86408">
        <ele>26.1</ele>
        <time>2020-05-31T15:48:16Z</time>
      </trkpt>
      <trkpt lat="46.22783" lon="-0.86408">
        <ele>26.1</ele>
        <time>2020-05-31T15:48:17Z</time>
      </trkpt>
      <trkpt lat="46.22783" lon="-0.86408">
        <ele>26.1</ele>
        <time>2020-05-31T15:48:18Z</time>
      </trkpt>
      <trkpt lat="46.22783" lon="-0.86408">
        <ele>26.1</ele>
        <time>2020-05-31T15:48:19Z</time>
      </trkpt>
      <trkpt lat="46.22783" lon="-0.86408">
        <ele>26.1</ele>
        <time>2020-05-31T15:48:20Z</time>
      </trkpt>
      <trkpt lat="46.22783" lon="-0.86409">
        <ele>26.1</ele>
        <time>2020-05-31T15:48:21Z</time>
      </trkpt>
      <trkpt lat="46.22783" lon="-0.86409">
        <ele>26.1</ele>
        <time>2020-05-31T15:48:22Z</time>
      </trkpt>
      <trkpt lat="46.22783" lon="-0.86409">
        <ele>26.1</ele>
        <time>2020-05-31T15:48:23Z</time>
      </trkpt>
      <trkpt lat="46.22783" lon="-0.86409">
        <ele>26.1</ele>
        <time>2020-05-31T15:48:24Z</time>
      </trkpt>
      <trkpt lat="46.22783" lon="-0.86409">
        <ele>26.1</ele>
        <time>2020-05-31T15:48:25Z</time>
      </trkpt>
      <trkpt lat="46.22783" lon="-0.86409">
        <ele>26.1</ele>
        <time>2020-05-31T15:48:26Z</time>
      </trkpt>
      <trkpt lat="46.22784" lon="-0.86409">
        <ele>26.1</ele>
        <time>2020-05-31T15:48:27Z</time>
      </trkpt>
      <trkpt lat="46.22784" lon="-0.8641">
        <ele>26.1</ele>
        <time>2020-05-31T15:48:28Z</time>
      </trkpt>
      <trkpt lat="46.22784" lon="-0.8641">
        <ele>26.1</ele>
        <time>2020-05-31T15:48:29Z</time>
      </trkpt>
      <trkpt lat="46.22784" lon="-0.8641">
        <ele>26.1</ele>
        <time>2020-05-31T15:48:30Z</time>
      </trkpt>
      <trkpt lat="46.22784" lon="-0.8641">
        <ele>26.1</ele>
        <time>2020-05-31T15:48:31Z</time>
      </trkpt>
      <trkpt lat="46.22784" lon="-0.8641">
        <ele>26.1</ele>
        <time>2020-05-31T15:48:32Z</time>
      </trkpt>
      <trkpt lat="46.22784" lon="-0.8641">
        <ele>26.1</ele>
        <time>2020-05-31T15:48:33Z</time>
      </trkpt>
      <trkpt lat="46.22784" lon="-0.86411">
        <ele>26.1</ele>
        <time>2020-05-31T15:48:34Z</time>
      </trkpt>
      <trkpt lat="46.22784" lon="-0.86411">
        <ele>26.1</ele>
        <time>2020-05-31T15:48:35Z</time>
      </trkpt>
      <trkpt lat="46.22784" lon="-0.86411">
        <ele>26.1</ele>
        <time>2020-05-31T15:48:36Z</time>
      </trkpt>
      <trkpt lat="46.22784" lon="-0.86411">
        <ele>26.1</ele>
        <time>2020-05-31T15:48:37Z</time>
      </trkpt>
      <trkpt lat="46.22784" lon="-0.86411">
        <ele>26.1</ele>
        <time>2020-05-31T15:48:38Z</time>
      </trkpt>
      <trkpt lat="46.22784" lon="-0.86411">
        <ele>26.1</ele>
        <time>2020-05-31T15:48:39Z</time>
      </trkpt>
      <trkpt lat="46.22785" lon="-0.86415">
        <ele>26.1</ele>
        <time>2020-05-31T15:48:40Z</time>
      </trkpt>
      <trkpt lat="46.22785" lon="-0.86417">
        <ele>26.1</ele>
        <time>2020-05-31T15:48:41Z</time>
      </trkpt>
      <trkpt lat="46.22787" lon="-0.86423">
        <ele>26.1</ele>
        <time>2020-05-31T15:48:42Z</time>
      </trkpt>
      <trkpt lat="46.22787" lon="-0.86424">
        <ele>26.1</ele>
        <time>2020-05-31T15:48:43Z</time>
      </trkpt>
      <trkpt lat="46.22789" lon="-0.86428">
        <ele>26.1</ele>
        <time>2020-05-31T15:48:44Z</time>
      </trkpt>
      <trkpt lat="46.22791" lon="-0.86433">
        <ele>26.2</ele>
        <time>2020-05-31T15:48:45Z</time>
      </trkpt>
      <trkpt lat="46.22792" lon="-0.86439">
        <ele>26.2</ele>
        <time>2020-05-31T15:48:46Z</time>
      </trkpt>
      <trkpt lat="46.22793" lon="-0.86443">
        <ele>26.3</ele>
        <time>2020-05-31T15:48:47Z</time>
      </trkpt>
      <trkpt lat="46.22794" lon="-0.8645">
        <ele>26.4</ele>
        <time>2020-05-31T15:48:48Z</time>
      </trkpt>
      <trkpt lat="46.22795" lon="-0.86456">
        <ele>26.5</ele>
        <time>2020-05-31T15:48:49Z</time>
      </trkpt>
      <trkpt lat="46.22796" lon="-0.86462">
        <ele>26.6</ele>
        <time>2020-05-31T15:48:50Z</time>
      </trkpt>
      <trkpt lat="46.22797" lon="-0.86468">
        <ele>26.6</ele>
        <time>2020-05-31T15:48:51Z</time>
      </trkpt>
      <trkpt lat="46.22797" lon="-0.86475">
        <ele>26.6</ele>
        <time>2020-05-31T15:48:52Z</time>
      </trkpt>
      <trkpt lat="46.22797" lon="-0.86481">
        <ele>26.6</ele>
        <time>2020-05-31T15:48:53Z</time>
      </trkpt>
      <trkpt lat="46.22798" lon="-0.86487">
        <ele>26.4</ele>
        <time>2020-05-31T15:48:54Z</time>
      </trkpt>
      <trkpt lat="46.22798" lon="-0.86494">
        <ele>26.3</ele>
        <time>2020-05-31T15:48:55Z</time>
      </trkpt>
      <trkpt lat="46.22799" lon="-0.865">
        <ele>26.2</ele>
        <time>2020-05-31T15:48:56Z</time>
      </trkpt>
      <trkpt lat="46.228" lon="-0.86506">
        <ele>26</ele>
        <time>2020-05-31T15:48:57Z</time>
      </trkpt>
      <trkpt lat="46.228" lon="-0.86512">
        <ele>26</ele>
        <time>2020-05-31T15:48:58Z</time>
      </trkpt>
      <trkpt lat="46.22801" lon="-0.86518">
        <ele>26</ele>
        <time>2020-05-31T15:48:59Z</time>
      </trkpt>
      <trkpt lat="46.22801" lon="-0.86524">
        <ele>25.9</ele>
        <time>2020-05-31T15:49:00Z</time>
      </trkpt>
      <trkpt lat="46.22801" lon="-0.86529">
        <ele>25.9</ele>
        <time>2020-05-31T15:49:01Z</time>
      </trkpt>
      <trkpt lat="46.22801" lon="-0.86534">
        <ele>25.9</ele>
        <time>2020-05-31T15:49:02Z</time>
      </trkpt>
      <trkpt lat="46.22802" lon="-0.86538">
        <ele>25.9</ele>
        <time>2020-05-31T15:49:03Z</time>
      </trkpt>
      <trkpt lat="46.22802" lon="-0.86543">
        <ele>25.9</ele>
        <time>2020-05-31T15:49:04Z</time>
      </trkpt>
      <trkpt lat="46.22803" lon="-0.86547">
        <ele>25.9</ele>
        <time>2020-05-31T15:49:05Z</time>
      </trkpt>
      <trkpt lat="46.22803" lon="-0.86552">
        <ele>25.9</ele>
        <time>2020-05-31T15:49:06Z</time>
      </trkpt>
      <trkpt lat="46.22804" lon="-0.86559">
        <ele>25.8</ele>
        <time>2020-05-31T15:49:07Z</time>
      </trkpt>
      <trkpt lat="46.22805" lon="-0.86566">
        <ele>25.8</ele>
        <time>2020-05-31T15:49:08Z</time>
      </trkpt>
      <trkpt lat="46.22806" lon="-0.86573">
        <ele>25.8</ele>
        <time>2020-05-31T15:49:09Z</time>
      </trkpt>
      <trkpt lat="46.22807" lon="-0.86578">
        <ele>25.7</ele>
        <time>2020-05-31T15:49:10Z</time>
      </trkpt>
      <trkpt lat="46.22809" lon="-0.86584">
        <ele>25.7</ele>
        <time>2020-05-31T15:49:11Z</time>
      </trkpt>
      <trkpt lat="46.2281" lon="-0.86589">
        <ele>25.6</ele>
        <time>2020-05-31T15:49:12Z</time>
      </trkpt>
      <trkpt lat="46.22811" lon="-0.86594">
        <ele>25.5</ele>
        <time>2020-05-31T15:49:13Z</time>
      </trkpt>
      <trkpt lat="46.22812" lon="-0.866">
        <ele>25.4</ele>
        <time>2020-05-31T15:49:14Z</time>
      </trkpt>
      <trkpt lat="46.22813" lon="-0.86605">
        <ele>25.3</ele>
        <time>2020-05-31T15:49:15Z</time>
      </trkpt>
      <trkpt lat="46.22814" lon="-0.8661">
        <ele>25.1</ele>
        <time>2020-05-31T15:49:16Z</time>
      </trkpt>
      <trkpt lat="46.22815" lon="-0.86615">
        <ele>25</ele>
        <time>2020-05-31T15:49:17Z</time>
      </trkpt>
      <trkpt lat="46.22816" lon="-0.8662">
        <ele>24.9</ele>
        <time>2020-05-31T15:49:18Z</time>
      </trkpt>
      <trkpt lat="46.22817" lon="-0.86625">
        <ele>24.9</ele>
        <time>2020-05-31T15:49:19Z</time>
      </trkpt>
      <trkpt lat="46.22818" lon="-0.8663">
        <ele>24.8</ele>
        <time>2020-05-31T15:49:20Z</time>
      </trkpt>
      <trkpt lat="46.22819" lon="-0.86635">
        <ele>24.8</ele>
        <time>2020-05-31T15:49:21Z</time>
      </trkpt>
      <trkpt lat="46.2282" lon="-0.86639">
        <ele>24.8</ele>
        <time>2020-05-31T15:49:22Z</time>
      </trkpt>
      <trkpt lat="46.2282" lon="-0.86641">
        <ele>24.8</ele>
        <time>2020-05-31T15:49:23Z</time>
      </trkpt>
      <trkpt lat="46.22821" lon="-0.86646">
        <ele>24.7</ele>
        <time>2020-05-31T15:49:24Z</time>
      </trkpt>
      <trkpt lat="46.22821" lon="-0.86648">
        <ele>24.7</ele>
        <time>2020-05-31T15:49:25Z</time>
      </trkpt>
      <trkpt lat="46.22821" lon="-0.86653">
        <ele>24.7</ele>
        <time>2020-05-31T15:49:26Z</time>
      </trkpt>
      <trkpt lat="46.2282" lon="-0.86655">
        <ele>24.7</ele>
        <time>2020-05-31T15:49:27Z</time>
      </trkpt>
      <trkpt lat="46.2282" lon="-0.86659">
        <ele>24.7</ele>
        <time>2020-05-31T15:49:28Z</time>
      </trkpt>
      <trkpt lat="46.22821" lon="-0.8666">
        <ele>24.7</ele>
        <time>2020-05-31T15:49:29Z</time>
      </trkpt>
      <trkpt lat="46.22821" lon="-0.86661">
        <ele>24.7</ele>
        <time>2020-05-31T15:49:30Z</time>
      </trkpt>
      <trkpt lat="46.2282" lon="-0.86665">
        <ele>24.6</ele>
        <time>2020-05-31T15:49:31Z</time>
      </trkpt>
      <trkpt lat="46.2282" lon="-0.86667">
        <ele>24.6</ele>
        <time>2020-05-31T15:49:32Z</time>
      </trkpt>
      <trkpt lat="46.22819" lon="-0.86673">
        <ele>24.6</ele>
        <time>2020-05-31T15:49:33Z</time>
      </trkpt>
      <trkpt lat="46.22819" lon="-0.86675">
        <ele>24.6</ele>
        <time>2020-05-31T15:49:34Z</time>
      </trkpt>
      <trkpt lat="46.22818" lon="-0.86679">
        <ele>24.6</ele>
        <time>2020-05-31T15:49:35Z</time>
      </trkpt>
      <trkpt lat="46.22817" lon="-0.86683">
        <ele>24.5</ele>
        <time>2020-05-31T15:49:36Z</time>
      </trkpt>
      <trkpt lat="46.22817" lon="-0.86687">
        <ele>24.5</ele>
        <time>2020-05-31T15:49:37Z</time>
      </trkpt>
      <trkpt lat="46.22816" lon="-0.86692">
        <ele>24.5</ele>
        <time>2020-05-31T15:49:38Z</time>
      </trkpt>
      <trkpt lat="46.22816" lon="-0.86696">
        <ele>24.5</ele>
        <time>2020-05-31T15:49:39Z</time>
      </trkpt>
      <trkpt lat="46.22815" lon="-0.86701">
        <ele>24.4</ele>
        <time>2020-05-31T15:49:40Z</time>
      </trkpt>
      <trkpt lat="46.22814" lon="-0.86705">
        <ele>24.4</ele>
        <time>2020-05-31T15:49:41Z</time>
      </trkpt>
      <trkpt lat="46.22814" lon="-0.86709">
        <ele>24.4</ele>
        <time>2020-05-31T15:49:42Z</time>
      </trkpt>
      <trkpt lat="46.22813" lon="-0.86713">
        <ele>24.4</ele>
        <time>2020-05-31T15:49:43Z</time>
      </trkpt>
      <trkpt lat="46.22813" lon="-0.86718">
        <ele>24.4</ele>
        <time>2020-05-31T15:49:44Z</time>
      </trkpt>
      <trkpt lat="46.22813" lon="-0.86723">
        <ele>24.3</ele>
        <time>2020-05-31T15:49:45Z</time>
      </trkpt>
      <trkpt lat="46.22813" lon="-0.86727">
        <ele>24.3</ele>
        <time>2020-05-31T15:49:46Z</time>
      </trkpt>
      <trkpt lat="46.22813" lon="-0.86732">
        <ele>24.3</ele>
        <time>2020-05-31T15:49:47Z</time>
      </trkpt>
      <trkpt lat="46.22813" lon="-0.86737">
        <ele>24.3</ele>
        <time>2020-05-31T15:49:48Z</time>
      </trkpt>
      <trkpt lat="46.22814" lon="-0.86743">
        <ele>24.2</ele>
        <time>2020-05-31T15:49:49Z</time>
      </trkpt>
      <trkpt lat="46.22814" lon="-0.86749">
        <ele>24.2</ele>
        <time>2020-05-31T15:49:50Z</time>
      </trkpt>
      <trkpt lat="46.22814" lon="-0.86757">
        <ele>24.2</ele>
        <time>2020-05-31T15:49:51Z</time>
      </trkpt>
      <trkpt lat="46.22815" lon="-0.86764">
        <ele>24.1</ele>
        <time>2020-05-31T15:49:52Z</time>
      </trkpt>
      <trkpt lat="46.22815" lon="-0.86771">
        <ele>24.1</ele>
        <time>2020-05-31T15:49:53Z</time>
      </trkpt>
      <trkpt lat="46.22816" lon="-0.86778">
        <ele>24.1</ele>
        <time>2020-05-31T15:49:54Z</time>
      </trkpt>
      <trkpt lat="46.22818" lon="-0.86785">
        <ele>24</ele>
        <time>2020-05-31T15:49:55Z</time>
      </trkpt>
      <trkpt lat="46.22818" lon="-0.8679">
        <ele>24</ele>
        <time>2020-05-31T15:49:56Z</time>
      </trkpt>
      <trkpt lat="46.22819" lon="-0.86796">
        <ele>24</ele>
        <time>2020-05-31T15:49:57Z</time>
      </trkpt>
      <trkpt lat="46.22819" lon="-0.86803">
        <ele>23.9</ele>
        <time>2020-05-31T15:49:58Z</time>
      </trkpt>
      <trkpt lat="46.2282" lon="-0.86809">
        <ele>23.9</ele>
        <time>2020-05-31T15:49:59Z</time>
      </trkpt>
      <trkpt lat="46.2282" lon="-0.86815">
        <ele>23.9</ele>
        <time>2020-05-31T15:50:00Z</time>
      </trkpt>
      <trkpt lat="46.22821" lon="-0.8682">
        <ele>23.8</ele>
        <time>2020-05-31T15:50:01Z</time>
      </trkpt>
      <trkpt lat="46.22821" lon="-0.86826">
        <ele>23.8</ele>
        <time>2020-05-31T15:50:02Z</time>
      </trkpt>
      <trkpt lat="46.22822" lon="-0.86831">
        <ele>23.8</ele>
        <time>2020-05-31T15:50:03Z</time>
      </trkpt>
      <trkpt lat="46.22823" lon="-0.86836">
        <ele>23.7</ele>
        <time>2020-05-31T15:50:04Z</time>
      </trkpt>
      <trkpt lat="46.22823" lon="-0.86842">
        <ele>23.7</ele>
        <time>2020-05-31T15:50:05Z</time>
      </trkpt>
      <trkpt lat="46.22824" lon="-0.86847">
        <ele>23.7</ele>
        <time>2020-05-31T15:50:06Z</time>
      </trkpt>
      <trkpt lat="46.22825" lon="-0.86853">
        <ele>23.7</ele>
        <time>2020-05-31T15:50:07Z</time>
      </trkpt>
      <trkpt lat="46.22826" lon="-0.86857">
        <ele>23.6</ele>
        <time>2020-05-31T15:50:08Z</time>
      </trkpt>
      <trkpt lat="46.22827" lon="-0.86864">
        <ele>23.6</ele>
        <time>2020-05-31T15:50:09Z</time>
      </trkpt>
      <trkpt lat="46.22827" lon="-0.86868">
        <ele>23.6</ele>
        <time>2020-05-31T15:50:10Z</time>
      </trkpt>
      <trkpt lat="46.22828" lon="-0.86873">
        <ele>23.6</ele>
        <time>2020-05-31T15:50:11Z</time>
      </trkpt>
      <trkpt lat="46.22828" lon="-0.86878">
        <ele>23.5</ele>
        <time>2020-05-31T15:50:12Z</time>
      </trkpt>
      <trkpt lat="46.22828" lon="-0.86883">
        <ele>23.5</ele>
        <time>2020-05-31T15:50:13Z</time>
      </trkpt>
      <trkpt lat="46.22828" lon="-0.86888">
        <ele>23.5</ele>
        <time>2020-05-31T15:50:14Z</time>
      </trkpt>
      <trkpt lat="46.22828" lon="-0.86894">
        <ele>23.4</ele>
        <time>2020-05-31T15:50:15Z</time>
      </trkpt>
      <trkpt lat="46.22829" lon="-0.86899">
        <ele>23.4</ele>
        <time>2020-05-31T15:50:16Z</time>
      </trkpt>
      <trkpt lat="46.2283" lon="-0.86905">
        <ele>23.4</ele>
        <time>2020-05-31T15:50:17Z</time>
      </trkpt>
      <trkpt lat="46.2283" lon="-0.86911">
        <ele>23.4</ele>
        <time>2020-05-31T15:50:18Z</time>
      </trkpt>
      <trkpt lat="46.22832" lon="-0.86916">
        <ele>23.3</ele>
        <time>2020-05-31T15:50:19Z</time>
      </trkpt>
      <trkpt lat="46.22833" lon="-0.86922">
        <ele>23.3</ele>
        <time>2020-05-31T15:50:20Z</time>
      </trkpt>
      <trkpt lat="46.22833" lon="-0.86926">
        <ele>23.3</ele>
        <time>2020-05-31T15:50:21Z</time>
      </trkpt>
      <trkpt lat="46.22833" lon="-0.86931">
        <ele>23.3</ele>
        <time>2020-05-31T15:50:22Z</time>
      </trkpt>
      <trkpt lat="46.22833" lon="-0.86936">
        <ele>23.2</ele>
        <time>2020-05-31T15:50:23Z</time>
      </trkpt>
      <trkpt lat="46.22832" lon="-0.86941">
        <ele>23.2</ele>
        <time>2020-05-31T15:50:24Z</time>
      </trkpt>
      <trkpt lat="46.22833" lon="-0.86945">
        <ele>23.2</ele>
        <time>2020-05-31T15:50:25Z</time>
      </trkpt>
      <trkpt lat="46.22833" lon="-0.86949">
        <ele>23.2</ele>
        <time>2020-05-31T15:50:26Z</time>
      </trkpt>
      <trkpt lat="46.22833" lon="-0.86954">
        <ele>23.1</ele>
        <time>2020-05-31T15:50:27Z</time>
      </trkpt>
      <trkpt lat="46.22833" lon="-0.86955">
        <ele>23.1</ele>
        <time>2020-05-31T15:50:28Z</time>
      </trkpt>
      <trkpt lat="46.22833" lon="-0.86958">
        <ele>23.1</ele>
        <time>2020-05-31T15:50:29Z</time>
      </trkpt>
      <trkpt lat="46.22833" lon="-0.8696">
        <ele>23.1</ele>
        <time>2020-05-31T15:50:30Z</time>
      </trkpt>
      <trkpt lat="46.22833" lon="-0.86961">
        <ele>23.1</ele>
        <time>2020-05-31T15:50:31Z</time>
      </trkpt>
      <trkpt lat="46.22832" lon="-0.86961">
        <ele>23.1</ele>
        <time>2020-05-31T15:50:32Z</time>
      </trkpt>
      <trkpt lat="46.22832" lon="-0.86962">
        <ele>23.1</ele>
        <time>2020-05-31T15:50:33Z</time>
      </trkpt>
      <trkpt lat="46.22832" lon="-0.86963">
        <ele>23.1</ele>
        <time>2020-05-31T15:50:34Z</time>
      </trkpt>
      <trkpt lat="46.22832" lon="-0.86964">
        <ele>23.1</ele>
        <time>2020-05-31T15:50:35Z</time>
      </trkpt>
      <trkpt lat="46.22832" lon="-0.86965">
        <ele>23.1</ele>
        <time>2020-05-31T15:50:36Z</time>
      </trkpt>
      <trkpt lat="46.22831" lon="-0.86966">
        <ele>23.1</ele>
        <time>2020-05-31T15:50:37Z</time>
      </trkpt>
      <trkpt lat="46.22831" lon="-0.86967">
        <ele>23.1</ele>
        <time>2020-05-31T15:50:38Z</time>
      </trkpt>
      <trkpt lat="46.22831" lon="-0.86968">
        <ele>23.1</ele>
        <time>2020-05-31T15:50:39Z</time>
      </trkpt>
      <trkpt lat="46.2283" lon="-0.86968">
        <ele>23.1</ele>
        <time>2020-05-31T15:50:40Z</time>
      </trkpt>
      <trkpt lat="46.22829" lon="-0.86968">
        <ele>23.1</ele>
        <time>2020-05-31T15:50:41Z</time>
      </trkpt>
      <trkpt lat="46.22828" lon="-0.86968">
        <ele>23.2</ele>
        <time>2020-05-31T15:50:42Z</time>
      </trkpt>
      <trkpt lat="46.22827" lon="-0.86968">
        <ele>23.2</ele>
        <time>2020-05-31T15:50:43Z</time>
      </trkpt>
      <trkpt lat="46.22827" lon="-0.86966">
        <ele>23.2</ele>
        <time>2020-05-31T15:50:44Z</time>
      </trkpt>
      <trkpt lat="46.22827" lon="-0.86966">
        <ele>23.2</ele>
        <time>2020-05-31T15:50:45Z</time>
      </trkpt>
      <trkpt lat="46.22827" lon="-0.86966">
        <ele>23.2</ele>
        <time>2020-05-31T15:50:46Z</time>
      </trkpt>
      <trkpt lat="46.22827" lon="-0.86966">
        <ele>23.2</ele>
        <time>2020-05-31T15:50:47Z</time>
      </trkpt>
      <trkpt lat="46.22827" lon="-0.86966">
        <ele>23.2</ele>
        <time>2020-05-31T15:50:48Z</time>
      </trkpt>
      <trkpt lat="46.22827" lon="-0.86966">
        <ele>23.2</ele>
        <time>2020-05-31T15:50:49Z</time>
      </trkpt>
      <trkpt lat="46.22827" lon="-0.86966">
        <ele>23.2</ele>
        <time>2020-05-31T15:50:50Z</time>
      </trkpt>
      <trkpt lat="46.22827" lon="-0.86966">
        <ele>23.2</ele>
        <time>2020-05-31T15:50:51Z</time>
      </trkpt>
      <trkpt lat="46.22827" lon="-0.86966">
        <ele>23.2</ele>
        <time>2020-05-31T15:50:52Z</time>
      </trkpt>
      <trkpt lat="46.22827" lon="-0.86966">
        <ele>23.2</ele>
        <time>2020-05-31T15:50:53Z</time>
      </trkpt>
      <trkpt lat="46.22827" lon="-0.86966">
        <ele>23.2</ele>
        <time>2020-05-31T15:50:54Z</time>
      </trkpt>
      <trkpt lat="46.22827" lon="-0.86966">
        <ele>23.2</ele>
        <time>2020-05-31T15:50:55Z</time>
      </trkpt>
      <trkpt lat="46.22827" lon="-0.86966">
        <ele>23.2</ele>
        <time>2020-05-31T15:50:56Z</time>
      </trkpt>
      <trkpt lat="46.22827" lon="-0.86966">
        <ele>23.2</ele>
        <time>2020-05-31T15:50:57Z</time>
      </trkpt>
      <trkpt lat="46.22827" lon="-0.86966">
        <ele>23.2</ele>
        <time>2020-05-31T15:50:58Z</time>
      </trkpt>
      <trkpt lat="46.22827" lon="-0.86966">
        <ele>23.2</ele>
        <time>2020-05-31T15:50:59Z</time>
      </trkpt>
      <trkpt lat="46.22827" lon="-0.86965">
        <ele>23.2</ele>
        <time>2020-05-31T15:51:00Z</time>
      </trkpt>
      <trkpt lat="46.22827" lon="-0.86965">
        <ele>23.2</ele>
        <time>2020-05-31T15:51:01Z</time>
      </trkpt>
      <trkpt lat="46.22827" lon="-0.86965">
        <ele>23.2</ele>
        <time>2020-05-31T15:51:02Z</time>
      </trkpt>
      <trkpt lat="46.22828" lon="-0.86965">
        <ele>23.2</ele>
        <time>2020-05-31T15:51:03Z</time>
      </trkpt>
      <trkpt lat="46.22828" lon="-0.86965">
        <ele>23.2</ele>
        <time>2020-05-31T15:51:04Z</time>
      </trkpt>
      <trkpt lat="46.22828" lon="-0.86965">
        <ele>23.2</ele>
        <time>2020-05-31T15:51:05Z</time>
      </trkpt>
      <trkpt lat="46.22827" lon="-0.86965">
        <ele>23.2</ele>
        <time>2020-05-31T15:51:06Z</time>
      </trkpt>
      <trkpt lat="46.22827" lon="-0.86965">
        <ele>23.2</ele>
        <time>2020-05-31T15:51:07Z</time>
      </trkpt>
      <trkpt lat="46.22827" lon="-0.86965">
        <ele>23.2</ele>
        <time>2020-05-31T15:51:08Z</time>
      </trkpt>
      <trkpt lat="46.22827" lon="-0.86965">
        <ele>23.2</ele>
        <time>2020-05-31T15:51:09Z</time>
      </trkpt>
      <trkpt lat="46.22827" lon="-0.86965">
        <ele>23.2</ele>
        <time>2020-05-31T15:51:10Z</time>
      </trkpt>
      <trkpt lat="46.22828" lon="-0.86966">
        <ele>23.2</ele>
        <time>2020-05-31T15:51:11Z</time>
      </trkpt>
      <trkpt lat="46.22828" lon="-0.86966">
        <ele>23.2</ele>
        <time>2020-05-31T15:51:12Z</time>
      </trkpt>
      <trkpt lat="46.22828" lon="-0.86966">
        <ele>23.2</ele>
        <time>2020-05-31T15:51:13Z</time>
      </trkpt>
      <trkpt lat="46.22828" lon="-0.86966">
        <ele>23.2</ele>
        <time>2020-05-31T15:51:14Z</time>
      </trkpt>
      <trkpt lat="46.22828" lon="-0.86966">
        <ele>23.2</ele>
        <time>2020-05-31T15:51:15Z</time>
      </trkpt>
      <trkpt lat="46.22828" lon="-0.86966">
        <ele>23.2</ele>
        <time>2020-05-31T15:51:16Z</time>
      </trkpt>
      <trkpt lat="46.22828" lon="-0.86966">
        <ele>23.2</ele>
        <time>2020-05-31T15:51:17Z</time>
      </trkpt>
      <trkpt lat="46.22828" lon="-0.86966">
        <ele>23.2</ele>
        <time>2020-05-31T15:51:18Z</time>
      </trkpt>
      <trkpt lat="46.22828" lon="-0.86966">
        <ele>23.2</ele>
        <time>2020-05-31T15:51:19Z</time>
      </trkpt>
      <trkpt lat="46.22828" lon="-0.86966">
        <ele>23.2</ele>
        <time>2020-05-31T15:51:20Z</time>
      </trkpt>
      <trkpt lat="46.22828" lon="-0.86966">
        <ele>23.2</ele>
        <time>2020-05-31T15:51:21Z</time>
      </trkpt>
      <trkpt lat="46.22828" lon="-0.86967">
        <ele>23.2</ele>
        <time>2020-05-31T15:51:22Z</time>
      </trkpt>
      <trkpt lat="46.22828" lon="-0.86967">
        <ele>23.2</ele>
        <time>2020-05-31T15:51:23Z</time>
      </trkpt>
      <trkpt lat="46.22828" lon="-0.86967">
        <ele>23.2</ele>
        <time>2020-05-31T15:51:24Z</time>
      </trkpt>
      <trkpt lat="46.22828" lon="-0.86967">
        <ele>23.2</ele>
        <time>2020-05-31T15:51:25Z</time>
      </trkpt>
      <trkpt lat="46.22828" lon="-0.86967">
        <ele>23.2</ele>
        <time>2020-05-31T15:51:26Z</time>
      </trkpt>
      <trkpt lat="46.22828" lon="-0.86967">
        <ele>23.2</ele>
        <time>2020-05-31T15:51:27Z</time>
      </trkpt>
      <trkpt lat="46.22829" lon="-0.86967">
        <ele>23.2</ele>
        <time>2020-05-31T15:51:28Z</time>
      </trkpt>
      <trkpt lat="46.22829" lon="-0.86967">
        <ele>23.2</ele>
        <time>2020-05-31T15:51:29Z</time>
      </trkpt>
      <trkpt lat="46.22829" lon="-0.86967">
        <ele>23.2</ele>
        <time>2020-05-31T15:51:30Z</time>
      </trkpt>
      <trkpt lat="46.22829" lon="-0.86968">
        <ele>23.2</ele>
        <time>2020-05-31T15:51:31Z</time>
      </trkpt>
      <trkpt lat="46.22829" lon="-0.86968">
        <ele>23.2</ele>
        <time>2020-05-31T15:51:32Z</time>
      </trkpt>
      <trkpt lat="46.22829" lon="-0.86968">
        <ele>23.2</ele>
        <time>2020-05-31T15:51:33Z</time>
      </trkpt>
      <trkpt lat="46.22829" lon="-0.86968">
        <ele>23.2</ele>
        <time>2020-05-31T15:51:34Z</time>
      </trkpt>
      <trkpt lat="46.22829" lon="-0.86968">
        <ele>23.2</ele>
        <time>2020-05-31T15:51:36Z</time>
      </trkpt>
      <trkpt lat="46.22829" lon="-0.86968">
        <ele>23.2</ele>
        <time>2020-05-31T15:51:37Z</time>
      </trkpt>
      <trkpt lat="46.2283" lon="-0.86968">
        <ele>23.2</ele>
        <time>2020-05-31T15:51:38Z</time>
      </trkpt>
      <trkpt lat="46.2283" lon="-0.86968">
        <ele>23.2</ele>
        <time>2020-05-31T15:51:39Z</time>
      </trkpt>
      <trkpt lat="46.2283" lon="-0.86968">
        <ele>23.2</ele>
        <time>2020-05-31T15:51:40Z</time>
      </trkpt>
      <trkpt lat="46.2283" lon="-0.86968">
        <ele>23.2</ele>
        <time>2020-05-31T15:51:41Z</time>
      </trkpt>
      <trkpt lat="46.2283" lon="-0.86968">
        <ele>23.2</ele>
        <time>2020-05-31T15:51:42Z</time>
      </trkpt>
      <trkpt lat="46.2283" lon="-0.86968">
        <ele>23.2</ele>
        <time>2020-05-31T15:51:43Z</time>
      </trkpt>
      <trkpt lat="46.2283" lon="-0.86968">
        <ele>23.2</ele>
        <time>2020-05-31T15:51:44Z</time>
      </trkpt>
      <trkpt lat="46.2283" lon="-0.86968">
        <ele>23.2</ele>
        <time>2020-05-31T15:51:45Z</time>
      </trkpt>
      <trkpt lat="46.2283" lon="-0.86968">
        <ele>23.2</ele>
        <time>2020-05-31T15:51:46Z</time>
      </trkpt>
      <trkpt lat="46.2283" lon="-0.86968">
        <ele>23.2</ele>
        <time>2020-05-31T15:51:47Z</time>
      </trkpt>
      <trkpt lat="46.2283" lon="-0.86968">
        <ele>23.2</ele>
        <time>2020-05-31T15:51:48Z</time>
      </trkpt>
      <trkpt lat="46.2283" lon="-0.86968">
        <ele>23.2</ele>
        <time>2020-05-31T15:51:49Z</time>
      </trkpt>
      <trkpt lat="46.2283" lon="-0.86968">
        <ele>23.2</ele>
        <time>2020-05-31T15:51:50Z</time>
      </trkpt>
      <trkpt lat="46.2283" lon="-0.86968">
        <ele>23.2</ele>
        <time>2020-05-31T15:51:51Z</time>
      </trkpt>
      <trkpt lat="46.2283" lon="-0.86968">
        <ele>23.2</ele>
        <time>2020-05-31T15:51:52Z</time>
      </trkpt>
      <trkpt lat="46.2283" lon="-0.86968">
        <ele>23.2</ele>
        <time>2020-05-31T15:51:53Z</time>
      </trkpt>
      <trkpt lat="46.2283" lon="-0.86968">
        <ele>23.2</ele>
        <time>2020-05-31T15:51:54Z</time>
      </trkpt>
      <trkpt lat="46.2283" lon="-0.86968">
        <ele>23.2</ele>
        <time>2020-05-31T15:51:55Z</time>
      </trkpt>
      <trkpt lat="46.2283" lon="-0.86968">
        <ele>23.2</ele>
        <time>2020-05-31T15:51:56Z</time>
      </trkpt>
      <trkpt lat="46.2283" lon="-0.86968">
        <ele>23.2</ele>
        <time>2020-05-31T15:51:57Z</time>
      </trkpt>
      <trkpt lat="46.2283" lon="-0.86968">
        <ele>23.2</ele>
        <time>2020-05-31T15:51:58Z</time>
      </trkpt>
      <trkpt lat="46.2283" lon="-0.86968">
        <ele>23.2</ele>
        <time>2020-05-31T15:51:59Z</time>
      </trkpt>
      <trkpt lat="46.2283" lon="-0.86968">
        <ele>23.2</ele>
        <time>2020-05-31T15:52:00Z</time>
      </trkpt>
      <trkpt lat="46.22831" lon="-0.86968">
        <ele>23.2</ele>
        <time>2020-05-31T15:52:01Z</time>
      </trkpt>
      <trkpt lat="46.22831" lon="-0.86968">
        <ele>23.2</ele>
        <time>2020-05-31T15:52:02Z</time>
      </trkpt>
      <trkpt lat="46.22831" lon="-0.86968">
        <ele>23.2</ele>
        <time>2020-05-31T15:52:03Z</time>
      </trkpt>
      <trkpt lat="46.22831" lon="-0.86968">
        <ele>23.2</ele>
        <time>2020-05-31T15:52:04Z</time>
      </trkpt>
      <trkpt lat="46.22831" lon="-0.86968">
        <ele>23.2</ele>
        <time>2020-05-31T15:52:05Z</time>
      </trkpt>
      <trkpt lat="46.22831" lon="-0.86968">
        <ele>23.2</ele>
        <time>2020-05-31T15:52:06Z</time>
      </trkpt>
      <trkpt lat="46.22831" lon="-0.86968">
        <ele>23.2</ele>
        <time>2020-05-31T15:52:07Z</time>
      </trkpt>
      <trkpt lat="46.22831" lon="-0.86968">
        <ele>23.2</ele>
        <time>2020-05-31T15:52:08Z</time>
      </trkpt>
      <trkpt lat="46.2283" lon="-0.86968">
        <ele>23.2</ele>
        <time>2020-05-31T15:52:09Z</time>
      </trkpt>
      <trkpt lat="46.22831" lon="-0.86968">
        <ele>23.2</ele>
        <time>2020-05-31T15:52:10Z</time>
      </trkpt>
      <trkpt lat="46.22831" lon="-0.86968">
        <ele>23.2</ele>
        <time>2020-05-31T15:52:11Z</time>
      </trkpt>
      <trkpt lat="46.22831" lon="-0.86968">
        <ele>23.2</ele>
        <time>2020-05-31T15:52:12Z</time>
      </trkpt>
      <trkpt lat="46.22831" lon="-0.86968">
        <ele>23.2</ele>
        <time>2020-05-31T15:52:13Z</time>
      </trkpt>
      <trkpt lat="46.22831" lon="-0.86968">
        <ele>23.2</ele>
        <time>2020-05-31T15:52:14Z</time>
      </trkpt>
      <trkpt lat="46.22831" lon="-0.86968">
        <ele>23.2</ele>
        <time>2020-05-31T15:52:15Z</time>
      </trkpt>
      <trkpt lat="46.22831" lon="-0.86968">
        <ele>23.2</ele>
        <time>2020-05-31T15:52:16Z</time>
      </trkpt>
      <trkpt lat="46.22831" lon="-0.86968">
        <ele>23.2</ele>
        <time>2020-05-31T15:52:17Z</time>
      </trkpt>
      <trkpt lat="46.22831" lon="-0.86968">
        <ele>23.2</ele>
        <time>2020-05-31T15:52:18Z</time>
      </trkpt>
      <trkpt lat="46.22831" lon="-0.86968">
        <ele>23.2</ele>
        <time>2020-05-31T15:52:19Z</time>
      </trkpt>
      <trkpt lat="46.22831" lon="-0.86968">
        <ele>23.2</ele>
        <time>2020-05-31T15:52:20Z</time>
      </trkpt>
      <trkpt lat="46.22831" lon="-0.86968">
        <ele>23.2</ele>
        <time>2020-05-31T15:52:21Z</time>
      </trkpt>
      <trkpt lat="46.22831" lon="-0.86968">
        <ele>23.2</ele>
        <time>2020-05-31T15:52:22Z</time>
      </trkpt>
      <trkpt lat="46.22831" lon="-0.86968">
        <ele>23.2</ele>
        <time>2020-05-31T15:52:23Z</time>
      </trkpt>
      <trkpt lat="46.22831" lon="-0.86968">
        <ele>23.2</ele>
        <time>2020-05-31T15:52:24Z</time>
      </trkpt>
      <trkpt lat="46.22831" lon="-0.86968">
        <ele>23.2</ele>
        <time>2020-05-31T15:52:25Z</time>
      </trkpt>
      <trkpt lat="46.22831" lon="-0.86968">
        <ele>23.2</ele>
        <time>2020-05-31T15:52:26Z</time>
      </trkpt>
      <trkpt lat="46.22831" lon="-0.86968">
        <ele>23.2</ele>
        <time>2020-05-31T15:52:27Z</time>
      </trkpt>
      <trkpt lat="46.22831" lon="-0.86968">
        <ele>23.2</ele>
        <time>2020-05-31T15:52:28Z</time>
      </trkpt>
      <trkpt lat="46.22831" lon="-0.86968">
        <ele>23.2</ele>
        <time>2020-05-31T15:52:29Z</time>
      </trkpt>
      <trkpt lat="46.22831" lon="-0.86968">
        <ele>23.2</ele>
        <time>2020-05-31T15:52:30Z</time>
      </trkpt>
      <trkpt lat="46.22831" lon="-0.86968">
        <ele>23.2</ele>
        <time>2020-05-31T15:52:31Z</time>
      </trkpt>
      <trkpt lat="46.22831" lon="-0.86968">
        <ele>23.2</ele>
        <time>2020-05-31T15:52:32Z</time>
      </trkpt>
      <trkpt lat="46.22831" lon="-0.86968">
        <ele>23.2</ele>
        <time>2020-05-31T15:52:33Z</time>
      </trkpt>
      <trkpt lat="46.22831" lon="-0.86968">
        <ele>23.2</ele>
        <time>2020-05-31T15:52:34Z</time>
      </trkpt>
      <trkpt lat="46.22831" lon="-0.86968">
        <ele>23.2</ele>
        <time>2020-05-31T15:52:35Z</time>
      </trkpt>
      <trkpt lat="46.22831" lon="-0.86968">
        <ele>23.2</ele>
        <time>2020-05-31T15:52:36Z</time>
      </trkpt>
      <trkpt lat="46.22831" lon="-0.86968">
        <ele>23.2</ele>
        <time>2020-05-31T15:52:37Z</time>
      </trkpt>
      <trkpt lat="46.22831" lon="-0.86968">
        <ele>23.2</ele>
        <time>2020-05-31T15:52:38Z</time>
      </trkpt>
      <trkpt lat="46.22831" lon="-0.86968">
        <ele>23.2</ele>
        <time>2020-05-31T15:52:39Z</time>
      </trkpt>
      <trkpt lat="46.22831" lon="-0.86968">
        <ele>23.2</ele>
        <time>2020-05-31T15:52:40Z</time>
      </trkpt>
      <trkpt lat="46.22831" lon="-0.86968">
        <ele>23.2</ele>
        <time>2020-05-31T15:52:41Z</time>
      </trkpt>
      <trkpt lat="46.22831" lon="-0.86968">
        <ele>23.2</ele>
        <time>2020-05-31T15:52:42Z</time>
      </trkpt>
      <trkpt lat="46.22831" lon="-0.86968">
        <ele>23.2</ele>
        <time>2020-05-31T15:52:43Z</time>
      </trkpt>
      <trkpt lat="46.22831" lon="-0.86968">
        <ele>23.2</ele>
        <time>2020-05-31T15:52:44Z</time>
      </trkpt>
      <trkpt lat="46.22831" lon="-0.86968">
        <ele>23.2</ele>
        <time>2020-05-31T15:52:45Z</time>
      </trkpt>
      <trkpt lat="46.22831" lon="-0.86968">
        <ele>23.2</ele>
        <time>2020-05-31T15:52:46Z</time>
      </trkpt>
      <trkpt lat="46.22831" lon="-0.86969">
        <ele>23.2</ele>
        <time>2020-05-31T15:52:47Z</time>
      </trkpt>
      <trkpt lat="46.22831" lon="-0.86969">
        <ele>23.2</ele>
        <time>2020-05-31T15:52:48Z</time>
      </trkpt>
      <trkpt lat="46.22831" lon="-0.86969">
        <ele>23.2</ele>
        <time>2020-05-31T15:52:49Z</time>
      </trkpt>
      <trkpt lat="46.22831" lon="-0.86969">
        <ele>23.2</ele>
        <time>2020-05-31T15:52:50Z</time>
      </trkpt>
      <trkpt lat="46.22831" lon="-0.86968">
        <ele>23.2</ele>
        <time>2020-05-31T15:52:51Z</time>
      </trkpt>
      <trkpt lat="46.22831" lon="-0.86968">
        <ele>23.2</ele>
        <time>2020-05-31T15:52:52Z</time>
      </trkpt>
      <trkpt lat="46.22831" lon="-0.86968">
        <ele>23.2</ele>
        <time>2020-05-31T15:52:53Z</time>
      </trkpt>
      <trkpt lat="46.22831" lon="-0.86968">
        <ele>23.2</ele>
        <time>2020-05-31T15:52:54Z</time>
      </trkpt>
      <trkpt lat="46.22831" lon="-0.86968">
        <ele>23.2</ele>
        <time>2020-05-31T15:52:55Z</time>
      </trkpt>
      <trkpt lat="46.22831" lon="-0.86968">
        <ele>23.2</ele>
        <time>2020-05-31T15:52:56Z</time>
      </trkpt>
      <trkpt lat="46.22831" lon="-0.86968">
        <ele>23.2</ele>
        <time>2020-05-31T15:52:57Z</time>
      </trkpt>
      <trkpt lat="46.22831" lon="-0.86968">
        <ele>23.2</ele>
        <time>2020-05-31T15:52:58Z</time>
      </trkpt>
      <trkpt lat="46.22831" lon="-0.86971">
        <ele>23.2</ele>
        <time>2020-05-31T15:52:59Z</time>
      </trkpt>
      <trkpt lat="46.22831" lon="-0.86973">
        <ele>23.2</ele>
        <time>2020-05-31T15:53:00Z</time>
      </trkpt>
      <trkpt lat="46.22831" lon="-0.86974">
        <ele>23.2</ele>
        <time>2020-05-31T15:53:01Z</time>
      </trkpt>
      <trkpt lat="46.22831" lon="-0.86975">
        <ele>23.2</ele>
        <time>2020-05-31T15:53:02Z</time>
      </trkpt>
      <trkpt lat="46.22831" lon="-0.86975">
        <ele>23.2</ele>
        <time>2020-05-31T15:53:03Z</time>
      </trkpt>
      <trkpt lat="46.22831" lon="-0.86975">
        <ele>23.2</ele>
        <time>2020-05-31T15:53:04Z</time>
      </trkpt>
      <trkpt lat="46.22831" lon="-0.86975">
        <ele>23.2</ele>
        <time>2020-05-31T15:53:05Z</time>
      </trkpt>
      <trkpt lat="46.22831" lon="-0.86975">
        <ele>23.2</ele>
        <time>2020-05-31T15:53:06Z</time>
      </trkpt>
      <trkpt lat="46.22831" lon="-0.86976">
        <ele>23.3</ele>
        <time>2020-05-31T15:53:07Z</time>
      </trkpt>
      <trkpt lat="46.22831" lon="-0.86976">
        <ele>23.3</ele>
        <time>2020-05-31T15:53:08Z</time>
      </trkpt>
      <trkpt lat="46.22831" lon="-0.86976">
        <ele>23.3</ele>
        <time>2020-05-31T15:53:09Z</time>
      </trkpt>
      <trkpt lat="46.22831" lon="-0.86976">
        <ele>23.3</ele>
        <time>2020-05-31T15:53:10Z</time>
      </trkpt>
      <trkpt lat="46.22831" lon="-0.86976">
        <ele>23.3</ele>
        <time>2020-05-31T15:53:11Z</time>
      </trkpt>
      <trkpt lat="46.22831" lon="-0.86976">
        <ele>23.3</ele>
        <time>2020-05-31T15:53:12Z</time>
      </trkpt>
      <trkpt lat="46.22831" lon="-0.86976">
        <ele>23.3</ele>
        <time>2020-05-31T15:53:13Z</time>
      </trkpt>
      <trkpt lat="46.22831" lon="-0.86976">
        <ele>23.3</ele>
        <time>2020-05-31T15:53:14Z</time>
      </trkpt>
      <trkpt lat="46.22831" lon="-0.86976">
        <ele>23.3</ele>
        <time>2020-05-31T15:53:15Z</time>
      </trkpt>
      <trkpt lat="46.22831" lon="-0.86975">
        <ele>23.3</ele>
        <time>2020-05-31T15:53:16Z</time>
      </trkpt>
      <trkpt lat="46.22831" lon="-0.86975">
        <ele>23.3</ele>
        <time>2020-05-31T15:53:17Z</time>
      </trkpt>
      <trkpt lat="46.22831" lon="-0.86975">
        <ele>23.3</ele>
        <time>2020-05-31T15:53:18Z</time>
      </trkpt>
      <trkpt lat="46.22831" lon="-0.86975">
        <ele>23.3</ele>
        <time>2020-05-31T15:53:19Z</time>
      </trkpt>
      <trkpt lat="46.22831" lon="-0.86975">
        <ele>23.3</ele>
        <time>2020-05-31T15:53:20Z</time>
      </trkpt>
      <trkpt lat="46.22831" lon="-0.86975">
        <ele>23.3</ele>
        <time>2020-05-31T15:53:21Z</time>
      </trkpt>
      <trkpt lat="46.22831" lon="-0.86975">
        <ele>23.3</ele>
        <time>2020-05-31T15:53:22Z</time>
      </trkpt>
      <trkpt lat="46.22831" lon="-0.86975">
        <ele>23.3</ele>
        <time>2020-05-31T15:53:23Z</time>
      </trkpt>
      <trkpt lat="46.22831" lon="-0.86975">
        <ele>23.3</ele>
        <time>2020-05-31T15:53:24Z</time>
      </trkpt>
      <trkpt lat="46.22831" lon="-0.86975">
        <ele>23.3</ele>
        <time>2020-05-31T15:53:25Z</time>
      </trkpt>
      <trkpt lat="46.22831" lon="-0.86975">
        <ele>23.3</ele>
        <time>2020-05-31T15:53:26Z</time>
      </trkpt>
      <trkpt lat="46.22831" lon="-0.86975">
        <ele>23.3</ele>
        <time>2020-05-31T15:53:27Z</time>
      </trkpt>
      <trkpt lat="46.22831" lon="-0.86975">
        <ele>23.3</ele>
        <time>2020-05-31T15:53:28Z</time>
      </trkpt>
      <trkpt lat="46.22832" lon="-0.86975">
        <ele>23.3</ele>
        <time>2020-05-31T15:53:29Z</time>
      </trkpt>
      <trkpt lat="46.22832" lon="-0.86976">
        <ele>23.3</ele>
        <time>2020-05-31T15:53:30Z</time>
      </trkpt>
      <trkpt lat="46.22832" lon="-0.86976">
        <ele>23.3</ele>
        <time>2020-05-31T15:53:31Z</time>
      </trkpt>
      <trkpt lat="46.22832" lon="-0.86976">
        <ele>23.3</ele>
        <time>2020-05-31T15:53:32Z</time>
      </trkpt>
      <trkpt lat="46.22832" lon="-0.86976">
        <ele>23.3</ele>
        <time>2020-05-31T15:53:33Z</time>
      </trkpt>
      <trkpt lat="46.22832" lon="-0.86976">
        <ele>23.3</ele>
        <time>2020-05-31T15:53:34Z</time>
      </trkpt>
      <trkpt lat="46.22832" lon="-0.86976">
        <ele>23.3</ele>
        <time>2020-05-31T15:53:35Z</time>
      </trkpt>
      <trkpt lat="46.22832" lon="-0.86976">
        <ele>23.3</ele>
        <time>2020-05-31T15:53:36Z</time>
      </trkpt>
      <trkpt lat="46.22832" lon="-0.86976">
        <ele>23.3</ele>
        <time>2020-05-31T15:53:37Z</time>
      </trkpt>
      <trkpt lat="46.22832" lon="-0.86976">
        <ele>23.3</ele>
        <time>2020-05-31T15:53:38Z</time>
      </trkpt>
      <trkpt lat="46.22832" lon="-0.86976">
        <ele>23.3</ele>
        <time>2020-05-31T15:53:39Z</time>
      </trkpt>
      <trkpt lat="46.22832" lon="-0.86976">
        <ele>23.3</ele>
        <time>2020-05-31T15:53:40Z</time>
      </trkpt>
      <trkpt lat="46.22832" lon="-0.86976">
        <ele>23.3</ele>
        <time>2020-05-31T15:53:41Z</time>
      </trkpt>
      <trkpt lat="46.22832" lon="-0.86976">
        <ele>23.3</ele>
        <time>2020-05-31T15:53:42Z</time>
      </trkpt>
      <trkpt lat="46.22832" lon="-0.86976">
        <ele>23.3</ele>
        <time>2020-05-31T15:53:43Z</time>
      </trkpt>
      <trkpt lat="46.22832" lon="-0.86976">
        <ele>23.3</ele>
        <time>2020-05-31T15:53:44Z</time>
      </trkpt>
      <trkpt lat="46.22832" lon="-0.86976">
        <ele>23.3</ele>
        <time>2020-05-31T15:53:45Z</time>
      </trkpt>
      <trkpt lat="46.22832" lon="-0.86976">
        <ele>23.3</ele>
        <time>2020-05-31T15:53:46Z</time>
      </trkpt>
      <trkpt lat="46.22832" lon="-0.86976">
        <ele>23.3</ele>
        <time>2020-05-31T15:53:47Z</time>
      </trkpt>
      <trkpt lat="46.22832" lon="-0.86976">
        <ele>23.3</ele>
        <time>2020-05-31T15:53:48Z</time>
      </trkpt>
      <trkpt lat="46.22832" lon="-0.86976">
        <ele>23.3</ele>
        <time>2020-05-31T15:53:49Z</time>
      </trkpt>
      <trkpt lat="46.22832" lon="-0.86976">
        <ele>23.3</ele>
        <time>2020-05-31T15:53:50Z</time>
      </trkpt>
      <trkpt lat="46.22832" lon="-0.86976">
        <ele>23.3</ele>
        <time>2020-05-31T15:53:51Z</time>
      </trkpt>
      <trkpt lat="46.22832" lon="-0.86976">
        <ele>23.3</ele>
        <time>2020-05-31T15:53:52Z</time>
      </trkpt>
      <trkpt lat="46.22832" lon="-0.86976">
        <ele>23.3</ele>
        <time>2020-05-31T15:53:53Z</time>
      </trkpt>
      <trkpt lat="46.22832" lon="-0.86976">
        <ele>23.3</ele>
        <time>2020-05-31T15:53:54Z</time>
      </trkpt>
      <trkpt lat="46.22832" lon="-0.86976">
        <ele>23.3</ele>
        <time>2020-05-31T15:53:55Z</time>
      </trkpt>
      <trkpt lat="46.22832" lon="-0.86976">
        <ele>23.3</ele>
        <time>2020-05-31T15:53:56Z</time>
      </trkpt>
      <trkpt lat="46.22832" lon="-0.86975">
        <ele>23.3</ele>
        <time>2020-05-31T15:53:57Z</time>
      </trkpt>
      <trkpt lat="46.22832" lon="-0.86975">
        <ele>23.3</ele>
        <time>2020-05-31T15:53:58Z</time>
      </trkpt>
      <trkpt lat="46.22832" lon="-0.86975">
        <ele>23.3</ele>
        <time>2020-05-31T15:53:59Z</time>
      </trkpt>
      <trkpt lat="46.22832" lon="-0.86975">
        <ele>23.3</ele>
        <time>2020-05-31T15:54:00Z</time>
      </trkpt>
      <trkpt lat="46.22832" lon="-0.86975">
        <ele>23.3</ele>
        <time>2020-05-31T15:54:01Z</time>
      </trkpt>
      <trkpt lat="46.22832" lon="-0.86975">
        <ele>23.3</ele>
        <time>2020-05-31T15:54:02Z</time>
      </trkpt>
      <trkpt lat="46.22832" lon="-0.86975">
        <ele>23.3</ele>
        <time>2020-05-31T15:54:03Z</time>
      </trkpt>
      <trkpt lat="46.22831" lon="-0.86974">
        <ele>23.3</ele>
        <time>2020-05-31T15:54:04Z</time>
      </trkpt>
      <trkpt lat="46.22831" lon="-0.86973">
        <ele>23.3</ele>
        <time>2020-05-31T15:54:05Z</time>
      </trkpt>
      <trkpt lat="46.22832" lon="-0.86972">
        <ele>23.3</ele>
        <time>2020-05-31T15:54:06Z</time>
      </trkpt>
      <trkpt lat="46.22833" lon="-0.86969">
        <ele>23.3</ele>
        <time>2020-05-31T15:54:07Z</time>
      </trkpt>
      <trkpt lat="46.22834" lon="-0.86965">
        <ele>23.3</ele>
        <time>2020-05-31T15:54:08Z</time>
      </trkpt>
      <trkpt lat="46.22834" lon="-0.86964">
        <ele>23.3</ele>
        <time>2020-05-31T15:54:09Z</time>
      </trkpt>
      <trkpt lat="46.22834" lon="-0.86959">
        <ele>23.4</ele>
        <time>2020-05-31T15:54:10Z</time>
      </trkpt>
      <trkpt lat="46.22834" lon="-0.86957">
        <ele>23.4</ele>
        <time>2020-05-31T15:54:11Z</time>
      </trkpt>
      <trkpt lat="46.22834" lon="-0.86953">
        <ele>23.4</ele>
        <time>2020-05-31T15:54:12Z</time>
      </trkpt>
      <trkpt lat="46.22834" lon="-0.86947">
        <ele>23.4</ele>
        <time>2020-05-31T15:54:13Z</time>
      </trkpt>
      <trkpt lat="46.22833" lon="-0.8694">
        <ele>23.4</ele>
        <time>2020-05-31T15:54:14Z</time>
      </trkpt>
      <trkpt lat="46.22833" lon="-0.86935">
        <ele>23.5</ele>
        <time>2020-05-31T15:54:15Z</time>
      </trkpt>
      <trkpt lat="46.22832" lon="-0.86931">
        <ele>23.5</ele>
        <time>2020-05-31T15:54:16Z</time>
      </trkpt>
      <trkpt lat="46.22832" lon="-0.86925">
        <ele>23.5</ele>
        <time>2020-05-31T15:54:17Z</time>
      </trkpt>
      <trkpt lat="46.22832" lon="-0.8692">
        <ele>23.5</ele>
        <time>2020-05-31T15:54:18Z</time>
      </trkpt>
      <trkpt lat="46.22831" lon="-0.86914">
        <ele>23.6</ele>
        <time>2020-05-31T15:54:19Z</time>
      </trkpt>
      <trkpt lat="46.2283" lon="-0.86908">
        <ele>23.6</ele>
        <time>2020-05-31T15:54:20Z</time>
      </trkpt>
      <trkpt lat="46.2283" lon="-0.86902">
        <ele>23.6</ele>
        <time>2020-05-31T15:54:21Z</time>
      </trkpt>
      <trkpt lat="46.22829" lon="-0.86896">
        <ele>23.6</ele>
        <time>2020-05-31T15:54:22Z</time>
      </trkpt>
      <trkpt lat="46.22829" lon="-0.8689">
        <ele>23.7</ele>
        <time>2020-05-31T15:54:23Z</time>
      </trkpt>
      <trkpt lat="46.22828" lon="-0.86884">
        <ele>23.7</ele>
        <time>2020-05-31T15:54:24Z</time>
      </trkpt>
      <trkpt lat="46.22827" lon="-0.86878">
        <ele>23.7</ele>
        <time>2020-05-31T15:54:25Z</time>
      </trkpt>
      <trkpt lat="46.22826" lon="-0.86871">
        <ele>23.7</ele>
        <time>2020-05-31T15:54:26Z</time>
      </trkpt>
      <trkpt lat="46.22826" lon="-0.86861">
        <ele>23.8</ele>
        <time>2020-05-31T15:54:27Z</time>
      </trkpt>
      <trkpt lat="46.22826" lon="-0.86854">
        <ele>23.8</ele>
        <time>2020-05-31T15:54:28Z</time>
      </trkpt>
      <trkpt lat="46.22825" lon="-0.86848">
        <ele>23.8</ele>
        <time>2020-05-31T15:54:29Z</time>
      </trkpt>
      <trkpt lat="46.22825" lon="-0.8684">
        <ele>23.9</ele>
        <time>2020-05-31T15:54:30Z</time>
      </trkpt>
      <trkpt lat="46.22824" lon="-0.86834">
        <ele>23.9</ele>
        <time>2020-05-31T15:54:31Z</time>
      </trkpt>
      <trkpt lat="46.22822" lon="-0.86827">
        <ele>23.9</ele>
        <time>2020-05-31T15:54:32Z</time>
      </trkpt>
      <trkpt lat="46.22821" lon="-0.86819">
        <ele>24</ele>
        <time>2020-05-31T15:54:33Z</time>
      </trkpt>
      <trkpt lat="46.22821" lon="-0.86813">
        <ele>24</ele>
        <time>2020-05-31T15:54:34Z</time>
      </trkpt>
      <trkpt lat="46.2282" lon="-0.86806">
        <ele>24</ele>
        <time>2020-05-31T15:54:35Z</time>
      </trkpt>
      <trkpt lat="46.22819" lon="-0.86799">
        <ele>24.1</ele>
        <time>2020-05-31T15:54:36Z</time>
      </trkpt>
      <trkpt lat="46.22818" lon="-0.86791">
        <ele>24.1</ele>
        <time>2020-05-31T15:54:37Z</time>
      </trkpt>
      <trkpt lat="46.22817" lon="-0.86784">
        <ele>24.1</ele>
        <time>2020-05-31T15:54:38Z</time>
      </trkpt>
      <trkpt lat="46.22816" lon="-0.86778">
        <ele>24.2</ele>
        <time>2020-05-31T15:54:39Z</time>
      </trkpt>
      <trkpt lat="46.22815" lon="-0.86771">
        <ele>24.2</ele>
        <time>2020-05-31T15:54:40Z</time>
      </trkpt>
      <trkpt lat="46.22814" lon="-0.86764">
        <ele>24.2</ele>
        <time>2020-05-31T15:54:41Z</time>
      </trkpt>
      <trkpt lat="46.22814" lon="-0.86758">
        <ele>24.2</ele>
        <time>2020-05-31T15:54:42Z</time>
      </trkpt>
      <trkpt lat="46.22814" lon="-0.86751">
        <ele>24.3</ele>
        <time>2020-05-31T15:54:43Z</time>
      </trkpt>
      <trkpt lat="46.22813" lon="-0.86744">
        <ele>24.3</ele>
        <time>2020-05-31T15:54:44Z</time>
      </trkpt>
      <trkpt lat="46.22813" lon="-0.86738">
        <ele>24.3</ele>
        <time>2020-05-31T15:54:45Z</time>
      </trkpt>
      <trkpt lat="46.22813" lon="-0.8673">
        <ele>24.4</ele>
        <time>2020-05-31T15:54:46Z</time>
      </trkpt>
      <trkpt lat="46.22813" lon="-0.86724">
        <ele>24.4</ele>
        <time>2020-05-31T15:54:47Z</time>
      </trkpt>
      <trkpt lat="46.22813" lon="-0.86718">
        <ele>24.4</ele>
        <time>2020-05-31T15:54:48Z</time>
      </trkpt>
      <trkpt lat="46.22813" lon="-0.86712">
        <ele>24.4</ele>
        <time>2020-05-31T15:54:49Z</time>
      </trkpt>
      <trkpt lat="46.22813" lon="-0.86704">
        <ele>24.5</ele>
        <time>2020-05-31T15:54:50Z</time>
      </trkpt>
      <trkpt lat="46.22814" lon="-0.86698">
        <ele>24.5</ele>
        <time>2020-05-31T15:54:51Z</time>
      </trkpt>
      <trkpt lat="46.22815" lon="-0.86692">
        <ele>24.5</ele>
        <time>2020-05-31T15:54:52Z</time>
      </trkpt>
      <trkpt lat="46.22817" lon="-0.86686">
        <ele>24.6</ele>
        <time>2020-05-31T15:54:53Z</time>
      </trkpt>
      <trkpt lat="46.22818" lon="-0.8668">
        <ele>24.6</ele>
        <time>2020-05-31T15:54:54Z</time>
      </trkpt>
      <trkpt lat="46.22819" lon="-0.86674">
        <ele>24.6</ele>
        <time>2020-05-31T15:54:55Z</time>
      </trkpt>
      <trkpt lat="46.22818" lon="-0.86667">
        <ele>24.6</ele>
        <time>2020-05-31T15:54:56Z</time>
      </trkpt>
      <trkpt lat="46.22819" lon="-0.86662">
        <ele>24.7</ele>
        <time>2020-05-31T15:54:57Z</time>
      </trkpt>
      <trkpt lat="46.2282" lon="-0.86658">
        <ele>24.7</ele>
        <time>2020-05-31T15:54:58Z</time>
      </trkpt>
      <trkpt lat="46.22821" lon="-0.86656">
        <ele>24.7</ele>
        <time>2020-05-31T15:54:59Z</time>
      </trkpt>
      <trkpt lat="46.22823" lon="-0.86654">
        <ele>24.7</ele>
        <time>2020-05-31T15:55:00Z</time>
      </trkpt>
      <trkpt lat="46.22825" lon="-0.86651">
        <ele>24.7</ele>
        <time>2020-05-31T15:55:01Z</time>
      </trkpt>
      <trkpt lat="46.22826" lon="-0.8665">
        <ele>24.7</ele>
        <time>2020-05-31T15:55:02Z</time>
      </trkpt>
      <trkpt lat="46.22828" lon="-0.86648">
        <ele>24.8</ele>
        <time>2020-05-31T15:55:03Z</time>
      </trkpt>
      <trkpt lat="46.22829" lon="-0.86648">
        <ele>24.8</ele>
        <time>2020-05-31T15:55:04Z</time>
      </trkpt>
      <trkpt lat="46.22832" lon="-0.86645">
        <ele>24.8</ele>
        <time>2020-05-31T15:55:05Z</time>
      </trkpt>
      <trkpt lat="46.22833" lon="-0.86644">
        <ele>24.8</ele>
        <time>2020-05-31T15:55:06Z</time>
      </trkpt>
      <trkpt lat="46.22836" lon="-0.86642">
        <ele>24.8</ele>
        <time>2020-05-31T15:55:07Z</time>
      </trkpt>
      <trkpt lat="46.22839" lon="-0.8664">
        <ele>24.9</ele>
        <time>2020-05-31T15:55:08Z</time>
      </trkpt>
      <trkpt lat="46.22842" lon="-0.86637">
        <ele>25</ele>
        <time>2020-05-31T15:55:09Z</time>
      </trkpt>
      <trkpt lat="46.22846" lon="-0.86636">
        <ele>25.1</ele>
        <time>2020-05-31T15:55:10Z</time>
      </trkpt>
      <trkpt lat="46.22847" lon="-0.86636">
        <ele>25.1</ele>
        <time>2020-05-31T15:55:11Z</time>
      </trkpt>
      <trkpt lat="46.22851" lon="-0.86635">
        <ele>25.2</ele>
        <time>2020-05-31T15:55:12Z</time>
      </trkpt>
      <trkpt lat="46.22852" lon="-0.86635">
        <ele>25.2</ele>
        <time>2020-05-31T15:55:13Z</time>
      </trkpt>
      <trkpt lat="46.22855" lon="-0.86635">
        <ele>25.3</ele>
        <time>2020-05-31T15:55:14Z</time>
      </trkpt>
      <trkpt lat="46.22858" lon="-0.86635">
        <ele>25.4</ele>
        <time>2020-05-31T15:55:15Z</time>
      </trkpt>
      <trkpt lat="46.22862" lon="-0.86635">
        <ele>25.5</ele>
        <time>2020-05-31T15:55:16Z</time>
      </trkpt>
      <trkpt lat="46.22865" lon="-0.86634">
        <ele>25.6</ele>
        <time>2020-05-31T15:55:17Z</time>
      </trkpt>
      <trkpt lat="46.22868" lon="-0.86634">
        <ele>25.7</ele>
        <time>2020-05-31T15:55:18Z</time>
      </trkpt>
      <trkpt lat="46.22871" lon="-0.86632">
        <ele>25.8</ele>
        <time>2020-05-31T15:55:19Z</time>
      </trkpt>
      <trkpt lat="46.22874" lon="-0.86629">
        <ele>25.8</ele>
        <time>2020-05-31T15:55:20Z</time>
      </trkpt>
      <trkpt lat="46.22877" lon="-0.86628">
        <ele>25.9</ele>
        <time>2020-05-31T15:55:21Z</time>
      </trkpt>
      <trkpt lat="46.2288" lon="-0.86626">
        <ele>26</ele>
        <time>2020-05-31T15:55:22Z</time>
      </trkpt>
      <trkpt lat="46.22884" lon="-0.86623">
        <ele>26</ele>
        <time>2020-05-31T15:55:23Z</time>
      </trkpt>
      <trkpt lat="46.22885" lon="-0.86621">
        <ele>26.1</ele>
        <time>2020-05-31T15:55:24Z</time>
      </trkpt>
      <trkpt lat="46.22888" lon="-0.86618">
        <ele>26.1</ele>
        <time>2020-05-31T15:55:25Z</time>
      </trkpt>
      <trkpt lat="46.22891" lon="-0.86616">
        <ele>26.2</ele>
        <time>2020-05-31T15:55:26Z</time>
      </trkpt>
      <trkpt lat="46.22894" lon="-0.86615">
        <ele>26.3</ele>
        <time>2020-05-31T15:55:27Z</time>
      </trkpt>
      <trkpt lat="46.22897" lon="-0.86612">
        <ele>26.3</ele>
        <time>2020-05-31T15:55:28Z</time>
      </trkpt>
      <trkpt lat="46.229" lon="-0.86609">
        <ele>26.4</ele>
        <time>2020-05-31T15:55:29Z</time>
      </trkpt>
      <trkpt lat="46.22903" lon="-0.86606">
        <ele>26.4</ele>
        <time>2020-05-31T15:55:30Z</time>
      </trkpt>
      <trkpt lat="46.22905" lon="-0.86604">
        <ele>26.5</ele>
        <time>2020-05-31T15:55:31Z</time>
      </trkpt>
      <trkpt lat="46.22908" lon="-0.86602">
        <ele>26.5</ele>
        <time>2020-05-31T15:55:32Z</time>
      </trkpt>
      <trkpt lat="46.22911" lon="-0.86599">
        <ele>26.6</ele>
        <time>2020-05-31T15:55:33Z</time>
      </trkpt>
      <trkpt lat="46.22914" lon="-0.86598">
        <ele>26.6</ele>
        <time>2020-05-31T15:55:34Z</time>
      </trkpt>
      <trkpt lat="46.22919" lon="-0.86594">
        <ele>26.7</ele>
        <time>2020-05-31T15:55:35Z</time>
      </trkpt>
      <trkpt lat="46.22922" lon="-0.86592">
        <ele>26.7</ele>
        <time>2020-05-31T15:55:36Z</time>
      </trkpt>
      <trkpt lat="46.22925" lon="-0.86591">
        <ele>26.8</ele>
        <time>2020-05-31T15:55:37Z</time>
      </trkpt>
      <trkpt lat="46.22928" lon="-0.8659">
        <ele>26.8</ele>
        <time>2020-05-31T15:55:38Z</time>
      </trkpt>
      <trkpt lat="46.22931" lon="-0.86589">
        <ele>26.8</ele>
        <time>2020-05-31T15:55:39Z</time>
      </trkpt>
      <trkpt lat="46.22934" lon="-0.8659">
        <ele>26.8</ele>
        <time>2020-05-31T15:55:40Z</time>
      </trkpt>
      <trkpt lat="46.22938" lon="-0.86591">
        <ele>26.8</ele>
        <time>2020-05-31T15:55:41Z</time>
      </trkpt>
      <trkpt lat="46.22941" lon="-0.86594">
        <ele>26.8</ele>
        <time>2020-05-31T15:55:42Z</time>
      </trkpt>
      <trkpt lat="46.22944" lon="-0.86595">
        <ele>26.7</ele>
        <time>2020-05-31T15:55:43Z</time>
      </trkpt>
      <trkpt lat="46.22947" lon="-0.86597">
        <ele>26.7</ele>
        <time>2020-05-31T15:55:44Z</time>
      </trkpt>
      <trkpt lat="46.2295" lon="-0.86599">
        <ele>26.7</ele>
        <time>2020-05-31T15:55:45Z</time>
      </trkpt>
      <trkpt lat="46.22954" lon="-0.866">
        <ele>26.6</ele>
        <time>2020-05-31T15:55:46Z</time>
      </trkpt>
      <trkpt lat="46.22957" lon="-0.86602">
        <ele>26.6</ele>
        <time>2020-05-31T15:55:47Z</time>
      </trkpt>
      <trkpt lat="46.22961" lon="-0.86603">
        <ele>26.5</ele>
        <time>2020-05-31T15:55:48Z</time>
      </trkpt>
      <trkpt lat="46.22966" lon="-0.86606">
        <ele>26.4</ele>
        <time>2020-05-31T15:55:49Z</time>
      </trkpt>
      <trkpt lat="46.22969" lon="-0.8661">
        <ele>26.3</ele>
        <time>2020-05-31T15:55:50Z</time>
      </trkpt>
      <trkpt lat="46.22973" lon="-0.86613">
        <ele>26.1</ele>
        <time>2020-05-31T15:55:51Z</time>
      </trkpt>
      <trkpt lat="46.22978" lon="-0.86615">
        <ele>26</ele>
        <time>2020-05-31T15:55:52Z</time>
      </trkpt>
      <trkpt lat="46.22983" lon="-0.86618">
        <ele>25.9</ele>
        <time>2020-05-31T15:55:53Z</time>
      </trkpt>
      <trkpt lat="46.22989" lon="-0.86619">
        <ele>26</ele>
        <time>2020-05-31T15:55:54Z</time>
      </trkpt>
      <trkpt lat="46.22994" lon="-0.86621">
        <ele>26.1</ele>
        <time>2020-05-31T15:55:55Z</time>
      </trkpt>
      <trkpt lat="46.22998" lon="-0.86624">
        <ele>26.2</ele>
        <time>2020-05-31T15:55:56Z</time>
      </trkpt>
      <trkpt lat="46.23004" lon="-0.86626">
        <ele>26.3</ele>
        <time>2020-05-31T15:55:57Z</time>
      </trkpt>
      <trkpt lat="46.23008" lon="-0.86627">
        <ele>26.4</ele>
        <time>2020-05-31T15:55:58Z</time>
      </trkpt>
      <trkpt lat="46.23012" lon="-0.86629">
        <ele>26.4</ele>
        <time>2020-05-31T15:55:59Z</time>
      </trkpt>
      <trkpt lat="46.23016" lon="-0.86631">
        <ele>26.3</ele>
        <time>2020-05-31T15:56:00Z</time>
      </trkpt>
      <trkpt lat="46.23019" lon="-0.86632">
        <ele>26.3</ele>
        <time>2020-05-31T15:56:01Z</time>
      </trkpt>
      <trkpt lat="46.23023" lon="-0.86635">
        <ele>26.3</ele>
        <time>2020-05-31T15:56:02Z</time>
      </trkpt>
      <trkpt lat="46.23026" lon="-0.86636">
        <ele>26.2</ele>
        <time>2020-05-31T15:56:03Z</time>
      </trkpt>
      <trkpt lat="46.23029" lon="-0.86639">
        <ele>26.2</ele>
        <time>2020-05-31T15:56:04Z</time>
      </trkpt>
      <trkpt lat="46.23032" lon="-0.86641">
        <ele>26.2</ele>
        <time>2020-05-31T15:56:05Z</time>
      </trkpt>
      <trkpt lat="46.23036" lon="-0.86642">
        <ele>26.2</ele>
        <time>2020-05-31T15:56:06Z</time>
      </trkpt>
      <trkpt lat="46.2304" lon="-0.86643">
        <ele>26.1</ele>
        <time>2020-05-31T15:56:07Z</time>
      </trkpt>
      <trkpt lat="46.23043" lon="-0.86645">
        <ele>26.1</ele>
        <time>2020-05-31T15:56:08Z</time>
      </trkpt>
      <trkpt lat="46.23046" lon="-0.86647">
        <ele>26.1</ele>
        <time>2020-05-31T15:56:09Z</time>
      </trkpt>
      <trkpt lat="46.2305" lon="-0.86648">
        <ele>26.1</ele>
        <time>2020-05-31T15:56:10Z</time>
      </trkpt>
      <trkpt lat="46.23053" lon="-0.8665">
        <ele>26.1</ele>
        <time>2020-05-31T15:56:11Z</time>
      </trkpt>
      <trkpt lat="46.23056" lon="-0.86652">
        <ele>26.1</ele>
        <time>2020-05-31T15:56:12Z</time>
      </trkpt>
      <trkpt lat="46.2306" lon="-0.86654">
        <ele>26.1</ele>
        <time>2020-05-31T15:56:13Z</time>
      </trkpt>
      <trkpt lat="46.23063" lon="-0.86655">
        <ele>26.1</ele>
        <time>2020-05-31T15:56:14Z</time>
      </trkpt>
      <trkpt lat="46.23066" lon="-0.86656">
        <ele>26.1</ele>
        <time>2020-05-31T15:56:15Z</time>
      </trkpt>
      <trkpt lat="46.23069" lon="-0.86657">
        <ele>26.1</ele>
        <time>2020-05-31T15:56:16Z</time>
      </trkpt>
      <trkpt lat="46.23072" lon="-0.86658">
        <ele>26.2</ele>
        <time>2020-05-31T15:56:17Z</time>
      </trkpt>
      <trkpt lat="46.23075" lon="-0.86658">
        <ele>26.2</ele>
        <time>2020-05-31T15:56:18Z</time>
      </trkpt>
      <trkpt lat="46.23079" lon="-0.86659">
        <ele>26.2</ele>
        <time>2020-05-31T15:56:19Z</time>
      </trkpt>
      <trkpt lat="46.23083" lon="-0.86661">
        <ele>26.2</ele>
        <time>2020-05-31T15:56:20Z</time>
      </trkpt>
      <trkpt lat="46.23087" lon="-0.86662">
        <ele>26.3</ele>
        <time>2020-05-31T15:56:21Z</time>
      </trkpt>
      <trkpt lat="46.2309" lon="-0.86663">
        <ele>26.3</ele>
        <time>2020-05-31T15:56:22Z</time>
      </trkpt>
      <trkpt lat="46.23092" lon="-0.86664">
        <ele>26.4</ele>
        <time>2020-05-31T15:56:23Z</time>
      </trkpt>
      <trkpt lat="46.23096" lon="-0.86664">
        <ele>26.4</ele>
        <time>2020-05-31T15:56:24Z</time>
      </trkpt>
      <trkpt lat="46.23097" lon="-0.86663">
        <ele>26.5</ele>
        <time>2020-05-31T15:56:25Z</time>
      </trkpt>
      <trkpt lat="46.23101" lon="-0.86664">
        <ele>26.5</ele>
        <time>2020-05-31T15:56:26Z</time>
      </trkpt>
      <trkpt lat="46.23103" lon="-0.86664">
        <ele>26.6</ele>
        <time>2020-05-31T15:56:27Z</time>
      </trkpt>
      <trkpt lat="46.23107" lon="-0.86666">
        <ele>26.6</ele>
        <time>2020-05-31T15:56:28Z</time>
      </trkpt>
      <trkpt lat="46.2311" lon="-0.86667">
        <ele>26.6</ele>
        <time>2020-05-31T15:56:29Z</time>
      </trkpt>
      <trkpt lat="46.23114" lon="-0.86668">
        <ele>26.6</ele>
        <time>2020-05-31T15:56:30Z</time>
      </trkpt>
      <trkpt lat="46.23118" lon="-0.86667">
        <ele>26.6</ele>
        <time>2020-05-31T15:56:31Z</time>
      </trkpt>
      <trkpt lat="46.23122" lon="-0.86667">
        <ele>26.6</ele>
        <time>2020-05-31T15:56:32Z</time>
      </trkpt>
      <trkpt lat="46.23125" lon="-0.86668">
        <ele>26.6</ele>
        <time>2020-05-31T15:56:33Z</time>
      </trkpt>
      <trkpt lat="46.23129" lon="-0.86669">
        <ele>26.6</ele>
        <time>2020-05-31T15:56:34Z</time>
      </trkpt>
      <trkpt lat="46.23134" lon="-0.8667">
        <ele>26.6</ele>
        <time>2020-05-31T15:56:35Z</time>
      </trkpt>
      <trkpt lat="46.23138" lon="-0.86671">
        <ele>26.6</ele>
        <time>2020-05-31T15:56:36Z</time>
      </trkpt>
      <trkpt lat="46.23144" lon="-0.86671">
        <ele>26.6</ele>
        <time>2020-05-31T15:56:37Z</time>
      </trkpt>
      <trkpt lat="46.23147" lon="-0.86672">
        <ele>26.6</ele>
        <time>2020-05-31T15:56:38Z</time>
      </trkpt>
      <trkpt lat="46.23151" lon="-0.86674">
        <ele>26.6</ele>
        <time>2020-05-31T15:56:39Z</time>
      </trkpt>
      <trkpt lat="46.23156" lon="-0.86674">
        <ele>26.7</ele>
        <time>2020-05-31T15:56:40Z</time>
      </trkpt>
      <trkpt lat="46.23157" lon="-0.86674">
        <ele>26.7</ele>
        <time>2020-05-31T15:56:41Z</time>
      </trkpt>
      <trkpt lat="46.23161" lon="-0.86676">
        <ele>26.8</ele>
        <time>2020-05-31T15:56:42Z</time>
      </trkpt>
      <trkpt lat="46.23164" lon="-0.86676">
        <ele>26.8</ele>
        <time>2020-05-31T15:56:43Z</time>
      </trkpt>
      <trkpt lat="46.23167" lon="-0.86678">
        <ele>26.9</ele>
        <time>2020-05-31T15:56:44Z</time>
      </trkpt>
      <trkpt lat="46.2317" lon="-0.86678">
        <ele>27</ele>
        <time>2020-05-31T15:56:45Z</time>
      </trkpt>
      <trkpt lat="46.23173" lon="-0.86679">
        <ele>27.1</ele>
        <time>2020-05-31T15:56:46Z</time>
      </trkpt>
      <trkpt lat="46.23176" lon="-0.86679">
        <ele>27.1</ele>
        <time>2020-05-31T15:56:47Z</time>
      </trkpt>
      <trkpt lat="46.2318" lon="-0.86681">
        <ele>27.2</ele>
        <time>2020-05-31T15:56:48Z</time>
      </trkpt>
      <trkpt lat="46.23181" lon="-0.86681">
        <ele>27.3</ele>
        <time>2020-05-31T15:56:49Z</time>
      </trkpt>
      <trkpt lat="46.23186" lon="-0.86681">
        <ele>27.4</ele>
        <time>2020-05-31T15:56:50Z</time>
      </trkpt>
      <trkpt lat="46.23188" lon="-0.86682">
        <ele>27.4</ele>
        <time>2020-05-31T15:56:51Z</time>
      </trkpt>
      <trkpt lat="46.23192" lon="-0.86683">
        <ele>27.5</ele>
        <time>2020-05-31T15:56:52Z</time>
      </trkpt>
      <trkpt lat="46.23196" lon="-0.86684">
        <ele>27.5</ele>
        <time>2020-05-31T15:56:53Z</time>
      </trkpt>
      <trkpt lat="46.232" lon="-0.86686">
        <ele>27.6</ele>
        <time>2020-05-31T15:56:54Z</time>
      </trkpt>
      <trkpt lat="46.23203" lon="-0.86685">
        <ele>27.7</ele>
        <time>2020-05-31T15:56:55Z</time>
      </trkpt>
      <trkpt lat="46.23206" lon="-0.86683">
        <ele>27.7</ele>
        <time>2020-05-31T15:56:56Z</time>
      </trkpt>
      <trkpt lat="46.23208" lon="-0.86682">
        <ele>27.8</ele>
        <time>2020-05-31T15:56:57Z</time>
      </trkpt>
      <trkpt lat="46.23211" lon="-0.86681">
        <ele>27.8</ele>
        <time>2020-05-31T15:56:58Z</time>
      </trkpt>
      <trkpt lat="46.23215" lon="-0.86682">
        <ele>27.9</ele>
        <time>2020-05-31T15:56:59Z</time>
      </trkpt>
      <trkpt lat="46.23219" lon="-0.86682">
        <ele>28</ele>
        <time>2020-05-31T15:57:00Z</time>
      </trkpt>
      <trkpt lat="46.23223" lon="-0.86682">
        <ele>28.1</ele>
        <time>2020-05-31T15:57:01Z</time>
      </trkpt>
      <trkpt lat="46.23227" lon="-0.86682">
        <ele>28.2</ele>
        <time>2020-05-31T15:57:02Z</time>
      </trkpt>
      <trkpt lat="46.23229" lon="-0.86682">
        <ele>28.2</ele>
        <time>2020-05-31T15:57:03Z</time>
      </trkpt>
      <trkpt lat="46.23232" lon="-0.86683">
        <ele>28.2</ele>
        <time>2020-05-31T15:57:04Z</time>
      </trkpt>
      <trkpt lat="46.23235" lon="-0.86683">
        <ele>28.3</ele>
        <time>2020-05-31T15:57:05Z</time>
      </trkpt>
      <trkpt lat="46.23239" lon="-0.86683">
        <ele>28.3</ele>
        <time>2020-05-31T15:57:06Z</time>
      </trkpt>
      <trkpt lat="46.23243" lon="-0.86683">
        <ele>28.3</ele>
        <time>2020-05-31T15:57:07Z</time>
      </trkpt>
      <trkpt lat="46.23247" lon="-0.86684">
        <ele>28.3</ele>
        <time>2020-05-31T15:57:08Z</time>
      </trkpt>
      <trkpt lat="46.2325" lon="-0.86684">
        <ele>28.2</ele>
        <time>2020-05-31T15:57:09Z</time>
      </trkpt>
      <trkpt lat="46.23254" lon="-0.86683">
        <ele>28.2</ele>
        <time>2020-05-31T15:57:10Z</time>
      </trkpt>
      <trkpt lat="46.23257" lon="-0.86683">
        <ele>28.2</ele>
        <time>2020-05-31T15:57:11Z</time>
      </trkpt>
      <trkpt lat="46.23261" lon="-0.86683">
        <ele>28.2</ele>
        <time>2020-05-31T15:57:12Z</time>
      </trkpt>
      <trkpt lat="46.23262" lon="-0.86684">
        <ele>28.2</ele>
        <time>2020-05-31T15:57:13Z</time>
      </trkpt>
      <trkpt lat="46.23264" lon="-0.86685">
        <ele>28.2</ele>
        <time>2020-05-31T15:57:14Z</time>
      </trkpt>
      <trkpt lat="46.23264" lon="-0.86684">
        <ele>28.1</ele>
        <time>2020-05-31T15:57:15Z</time>
      </trkpt>
      <trkpt lat="46.23265" lon="-0.86685">
        <ele>28.1</ele>
        <time>2020-05-31T15:57:16Z</time>
      </trkpt>
      <trkpt lat="46.23265" lon="-0.86685">
        <ele>28.1</ele>
        <time>2020-05-31T15:57:17Z</time>
      </trkpt>
      <trkpt lat="46.23265" lon="-0.86685">
        <ele>28.1</ele>
        <time>2020-05-31T15:57:18Z</time>
      </trkpt>
      <trkpt lat="46.23265" lon="-0.86685">
        <ele>28.1</ele>
        <time>2020-05-31T15:57:19Z</time>
      </trkpt>
      <trkpt lat="46.23265" lon="-0.86686">
        <ele>28.1</ele>
        <time>2020-05-31T15:57:20Z</time>
      </trkpt>
      <trkpt lat="46.23265" lon="-0.86686">
        <ele>28.1</ele>
        <time>2020-05-31T15:57:21Z</time>
      </trkpt>
      <trkpt lat="46.23265" lon="-0.86686">
        <ele>28.1</ele>
        <time>2020-05-31T15:57:22Z</time>
      </trkpt>
      <trkpt lat="46.23265" lon="-0.86686">
        <ele>28.1</ele>
        <time>2020-05-31T15:57:23Z</time>
      </trkpt>
      <trkpt lat="46.23265" lon="-0.86686">
        <ele>28.1</ele>
        <time>2020-05-31T15:57:24Z</time>
      </trkpt>
      <trkpt lat="46.23264" lon="-0.86686">
        <ele>28.1</ele>
        <time>2020-05-31T15:57:25Z</time>
      </trkpt>
      <trkpt lat="46.23264" lon="-0.86686">
        <ele>28.1</ele>
        <time>2020-05-31T15:57:26Z</time>
      </trkpt>
      <trkpt lat="46.23264" lon="-0.86686">
        <ele>28.1</ele>
        <time>2020-05-31T15:57:27Z</time>
      </trkpt>
      <trkpt lat="46.23264" lon="-0.86686">
        <ele>28.1</ele>
        <time>2020-05-31T15:57:28Z</time>
      </trkpt>
      <trkpt lat="46.23264" lon="-0.86686">
        <ele>28.1</ele>
        <time>2020-05-31T15:57:29Z</time>
      </trkpt>
      <trkpt lat="46.23264" lon="-0.86687">
        <ele>28.1</ele>
        <time>2020-05-31T15:57:30Z</time>
      </trkpt>
      <trkpt lat="46.23264" lon="-0.86687">
        <ele>28.1</ele>
        <time>2020-05-31T15:57:31Z</time>
      </trkpt>
      <trkpt lat="46.23264" lon="-0.86687">
        <ele>28.1</ele>
        <time>2020-05-31T15:57:32Z</time>
      </trkpt>
      <trkpt lat="46.23264" lon="-0.86687">
        <ele>28.1</ele>
        <time>2020-05-31T15:57:33Z</time>
      </trkpt>
      <trkpt lat="46.23264" lon="-0.86687">
        <ele>28.1</ele>
        <time>2020-05-31T15:57:34Z</time>
      </trkpt>
      <trkpt lat="46.23264" lon="-0.86687">
        <ele>28.1</ele>
        <time>2020-05-31T15:57:35Z</time>
      </trkpt>
      <trkpt lat="46.23264" lon="-0.86687">
        <ele>28.1</ele>
        <time>2020-05-31T15:57:36Z</time>
      </trkpt>
      <trkpt lat="46.23264" lon="-0.86687">
        <ele>28.1</ele>
        <time>2020-05-31T15:57:37Z</time>
      </trkpt>
      <trkpt lat="46.23264" lon="-0.86687">
        <ele>28.1</ele>
        <time>2020-05-31T15:57:38Z</time>
      </trkpt>
      <trkpt lat="46.23264" lon="-0.86687">
        <ele>28.1</ele>
        <time>2020-05-31T15:57:39Z</time>
      </trkpt>
      <trkpt lat="46.23264" lon="-0.86688">
        <ele>28.1</ele>
        <time>2020-05-31T15:57:40Z</time>
      </trkpt>
      <trkpt lat="46.23264" lon="-0.86688">
        <ele>28.1</ele>
        <time>2020-05-31T15:57:41Z</time>
      </trkpt>
      <trkpt lat="46.23264" lon="-0.86688">
        <ele>28.1</ele>
        <time>2020-05-31T15:57:42Z</time>
      </trkpt>
      <trkpt lat="46.23264" lon="-0.86688">
        <ele>28.1</ele>
        <time>2020-05-31T15:57:43Z</time>
      </trkpt>
      <trkpt lat="46.23264" lon="-0.86688">
        <ele>28.1</ele>
        <time>2020-05-31T15:57:44Z</time>
      </trkpt>
      <trkpt lat="46.23264" lon="-0.86688">
        <ele>28.1</ele>
        <time>2020-05-31T15:57:45Z</time>
      </trkpt>
      <trkpt lat="46.23264" lon="-0.86688">
        <ele>28.1</ele>
        <time>2020-05-31T15:57:46Z</time>
      </trkpt>
      <trkpt lat="46.23264" lon="-0.86688">
        <ele>28.1</ele>
        <time>2020-05-31T15:57:47Z</time>
      </trkpt>
      <trkpt lat="46.23264" lon="-0.86688">
        <ele>28.1</ele>
        <time>2020-05-31T15:57:48Z</time>
      </trkpt>
      <trkpt lat="46.23263" lon="-0.86688">
        <ele>28.1</ele>
        <time>2020-05-31T15:57:49Z</time>
      </trkpt>
      <trkpt lat="46.23263" lon="-0.86688">
        <ele>28.1</ele>
        <time>2020-05-31T15:57:50Z</time>
      </trkpt>
      <trkpt lat="46.23263" lon="-0.86689">
        <ele>28.1</ele>
        <time>2020-05-31T15:57:51Z</time>
      </trkpt>
      <trkpt lat="46.23263" lon="-0.86689">
        <ele>28.1</ele>
        <time>2020-05-31T15:57:52Z</time>
      </trkpt>
      <trkpt lat="46.23263" lon="-0.86689">
        <ele>28.1</ele>
        <time>2020-05-31T15:57:53Z</time>
      </trkpt>
      <trkpt lat="46.23263" lon="-0.86689">
        <ele>28.1</ele>
        <time>2020-05-31T15:57:54Z</time>
      </trkpt>
      <trkpt lat="46.23263" lon="-0.86689">
        <ele>28.1</ele>
        <time>2020-05-31T15:57:55Z</time>
      </trkpt>
      <trkpt lat="46.23263" lon="-0.86689">
        <ele>28.1</ele>
        <time>2020-05-31T15:57:56Z</time>
      </trkpt>
      <trkpt lat="46.23263" lon="-0.86689">
        <ele>28.1</ele>
        <time>2020-05-31T15:57:57Z</time>
      </trkpt>
      <trkpt lat="46.23263" lon="-0.86689">
        <ele>28.1</ele>
        <time>2020-05-31T15:57:58Z</time>
      </trkpt>
      <trkpt lat="46.23263" lon="-0.86689">
        <ele>28.1</ele>
        <time>2020-05-31T15:57:59Z</time>
      </trkpt>
      <trkpt lat="46.23263" lon="-0.86689">
        <ele>28.1</ele>
        <time>2020-05-31T15:58:00Z</time>
      </trkpt>
      <trkpt lat="46.23263" lon="-0.8669">
        <ele>28.1</ele>
        <time>2020-05-31T15:58:01Z</time>
      </trkpt>
      <trkpt lat="46.23263" lon="-0.8669">
        <ele>28.1</ele>
        <time>2020-05-31T15:58:02Z</time>
      </trkpt>
      <trkpt lat="46.23263" lon="-0.8669">
        <ele>28.1</ele>
        <time>2020-05-31T15:58:03Z</time>
      </trkpt>
      <trkpt lat="46.23263" lon="-0.8669">
        <ele>28.1</ele>
        <time>2020-05-31T15:58:04Z</time>
      </trkpt>
      <trkpt lat="46.23263" lon="-0.8669">
        <ele>28.1</ele>
        <time>2020-05-31T15:58:05Z</time>
      </trkpt>
      <trkpt lat="46.23263" lon="-0.8669">
        <ele>28.1</ele>
        <time>2020-05-31T15:58:06Z</time>
      </trkpt>
      <trkpt lat="46.23263" lon="-0.8669">
        <ele>28.1</ele>
        <time>2020-05-31T15:58:07Z</time>
      </trkpt>
      <trkpt lat="46.23263" lon="-0.8669">
        <ele>28.1</ele>
        <time>2020-05-31T15:58:08Z</time>
      </trkpt>
      <trkpt lat="46.23263" lon="-0.8669">
        <ele>28.1</ele>
        <time>2020-05-31T15:58:09Z</time>
      </trkpt>
      <trkpt lat="46.23263" lon="-0.8669">
        <ele>28.1</ele>
        <time>2020-05-31T15:58:10Z</time>
      </trkpt>
      <trkpt lat="46.23263" lon="-0.86691">
        <ele>28.1</ele>
        <time>2020-05-31T15:58:11Z</time>
      </trkpt>
      <trkpt lat="46.23263" lon="-0.86691">
        <ele>28.1</ele>
        <time>2020-05-31T15:58:12Z</time>
      </trkpt>
      <trkpt lat="46.23262" lon="-0.86691">
        <ele>28.1</ele>
        <time>2020-05-31T15:58:13Z</time>
      </trkpt>
      <trkpt lat="46.23262" lon="-0.86691">
        <ele>28.1</ele>
        <time>2020-05-31T15:58:14Z</time>
      </trkpt>
      <trkpt lat="46.23259" lon="-0.86692">
        <ele>28.1</ele>
        <time>2020-05-31T15:58:15Z</time>
      </trkpt>
      <trkpt lat="46.23257" lon="-0.86692">
        <ele>28.1</ele>
        <time>2020-05-31T15:58:16Z</time>
      </trkpt>
      <trkpt lat="46.23254" lon="-0.86689">
        <ele>28.1</ele>
        <time>2020-05-31T15:58:17Z</time>
      </trkpt>
      <trkpt lat="46.2325" lon="-0.86687">
        <ele>28.1</ele>
        <time>2020-05-31T15:58:18Z</time>
      </trkpt>
      <trkpt lat="46.23247" lon="-0.86686">
        <ele>28.1</ele>
        <time>2020-05-31T15:58:19Z</time>
      </trkpt>
      <trkpt lat="46.23244" lon="-0.86686">
        <ele>28.2</ele>
        <time>2020-05-31T15:58:20Z</time>
      </trkpt>
      <trkpt lat="46.2324" lon="-0.86687">
        <ele>28.2</ele>
        <time>2020-05-31T15:58:21Z</time>
      </trkpt>
      <trkpt lat="46.23237" lon="-0.86687">
        <ele>28.2</ele>
        <time>2020-05-31T15:58:22Z</time>
      </trkpt>
      <trkpt lat="46.23233" lon="-0.86687">
        <ele>28.2</ele>
        <time>2020-05-31T15:58:23Z</time>
      </trkpt>
      <trkpt lat="46.23229" lon="-0.86687">
        <ele>28.3</ele>
        <time>2020-05-31T15:58:24Z</time>
      </trkpt>
      <trkpt lat="46.23225" lon="-0.86688">
        <ele>28.3</ele>
        <time>2020-05-31T15:58:25Z</time>
      </trkpt>
      <trkpt lat="46.23221" lon="-0.86688">
        <ele>28.2</ele>
        <time>2020-05-31T15:58:26Z</time>
      </trkpt>
      <trkpt lat="46.23217" lon="-0.86687">
        <ele>28.2</ele>
        <time>2020-05-31T15:58:27Z</time>
      </trkpt>
      <trkpt lat="46.23213" lon="-0.86687">
        <ele>28.1</ele>
        <time>2020-05-31T15:58:28Z</time>
      </trkpt>
      <trkpt lat="46.23209" lon="-0.86686">
        <ele>28</ele>
        <time>2020-05-31T15:58:29Z</time>
      </trkpt>
      <trkpt lat="46.23205" lon="-0.86684">
        <ele>27.9</ele>
        <time>2020-05-31T15:58:30Z</time>
      </trkpt>
      <trkpt lat="46.23201" lon="-0.86684">
        <ele>27.8</ele>
        <time>2020-05-31T15:58:31Z</time>
      </trkpt>
      <trkpt lat="46.23197" lon="-0.86685">
        <ele>27.7</ele>
        <time>2020-05-31T15:58:32Z</time>
      </trkpt>
      <trkpt lat="46.23193" lon="-0.86686">
        <ele>27.7</ele>
        <time>2020-05-31T15:58:33Z</time>
      </trkpt>
      <trkpt lat="46.2319" lon="-0.86686">
        <ele>27.6</ele>
        <time>2020-05-31T15:58:34Z</time>
      </trkpt>
      <trkpt lat="46.23188" lon="-0.86686">
        <ele>27.6</ele>
        <time>2020-05-31T15:58:35Z</time>
      </trkpt>
      <trkpt lat="46.23185" lon="-0.86685">
        <ele>27.5</ele>
        <time>2020-05-31T15:58:36Z</time>
      </trkpt>
      <trkpt lat="46.23182" lon="-0.86683">
        <ele>27.5</ele>
        <time>2020-05-31T15:58:37Z</time>
      </trkpt>
      <trkpt lat="46.23179" lon="-0.86682">
        <ele>27.4</ele>
        <time>2020-05-31T15:58:38Z</time>
      </trkpt>
      <trkpt lat="46.23175" lon="-0.86681">
        <ele>27.3</ele>
        <time>2020-05-31T15:58:39Z</time>
      </trkpt>
      <trkpt lat="46.23171" lon="-0.86681">
        <ele>27.2</ele>
        <time>2020-05-31T15:58:40Z</time>
      </trkpt>
      <trkpt lat="46.23167" lon="-0.86681">
        <ele>27.1</ele>
        <time>2020-05-31T15:58:41Z</time>
      </trkpt>
      <trkpt lat="46.23162" lon="-0.86679">
        <ele>26.9</ele>
        <time>2020-05-31T15:58:42Z</time>
      </trkpt>
      <trkpt lat="46.23157" lon="-0.86677">
        <ele>26.8</ele>
        <time>2020-05-31T15:58:43Z</time>
      </trkpt>
      <trkpt lat="46.23151" lon="-0.86676">
        <ele>26.7</ele>
        <time>2020-05-31T15:58:44Z</time>
      </trkpt>
      <trkpt lat="46.23146" lon="-0.86676">
        <ele>26.6</ele>
        <time>2020-05-31T15:58:45Z</time>
      </trkpt>
      <trkpt lat="46.23141" lon="-0.86675">
        <ele>26.6</ele>
        <time>2020-05-31T15:58:46Z</time>
      </trkpt>
      <trkpt lat="46.23136" lon="-0.86675">
        <ele>26.6</ele>
        <time>2020-05-31T15:58:47Z</time>
      </trkpt>
      <trkpt lat="46.23133" lon="-0.86675">
        <ele>26.6</ele>
        <time>2020-05-31T15:58:48Z</time>
      </trkpt>
      <trkpt lat="46.2313" lon="-0.86674">
        <ele>26.6</ele>
        <time>2020-05-31T15:58:49Z</time>
      </trkpt>
      <trkpt lat="46.23126" lon="-0.86672">
        <ele>26.6</ele>
        <time>2020-05-31T15:58:50Z</time>
      </trkpt>
      <trkpt lat="46.23121" lon="-0.86671">
        <ele>26.6</ele>
        <time>2020-05-31T15:58:51Z</time>
      </trkpt>
      <trkpt lat="46.23118" lon="-0.8667">
        <ele>26.6</ele>
        <time>2020-05-31T15:58:52Z</time>
      </trkpt>
      <trkpt lat="46.23113" lon="-0.86668">
        <ele>26.6</ele>
        <time>2020-05-31T15:58:53Z</time>
      </trkpt>
      <trkpt lat="46.2311" lon="-0.86667">
        <ele>26.6</ele>
        <time>2020-05-31T15:58:54Z</time>
      </trkpt>
      <trkpt lat="46.23105" lon="-0.86666">
        <ele>26.6</ele>
        <time>2020-05-31T15:58:55Z</time>
      </trkpt>
      <trkpt lat="46.23102" lon="-0.86665">
        <ele>26.6</ele>
        <time>2020-05-31T15:58:56Z</time>
      </trkpt>
      <trkpt lat="46.23099" lon="-0.86663">
        <ele>26.5</ele>
        <time>2020-05-31T15:58:58Z</time>
      </trkpt>
      <trkpt lat="46.23095" lon="-0.86662">
        <ele>26.4</ele>
        <time>2020-05-31T15:58:59Z</time>
      </trkpt>
      <trkpt lat="46.23091" lon="-0.86661">
        <ele>26.3</ele>
        <time>2020-05-31T15:59:00Z</time>
      </trkpt>
      <trkpt lat="46.23087" lon="-0.86659">
        <ele>26.3</ele>
        <time>2020-05-31T15:59:01Z</time>
      </trkpt>
      <trkpt lat="46.23083" lon="-0.86658">
        <ele>26.2</ele>
        <time>2020-05-31T15:59:02Z</time>
      </trkpt>
      <trkpt lat="46.23079" lon="-0.86657">
        <ele>26.2</ele>
        <time>2020-05-31T15:59:03Z</time>
      </trkpt>
      <trkpt lat="46.23075" lon="-0.86655">
        <ele>26.2</ele>
        <time>2020-05-31T15:59:04Z</time>
      </trkpt>
      <trkpt lat="46.23072" lon="-0.86654">
        <ele>26.2</ele>
        <time>2020-05-31T15:59:05Z</time>
      </trkpt>
      <trkpt lat="46.23069" lon="-0.86652">
        <ele>26.1</ele>
        <time>2020-05-31T15:59:06Z</time>
      </trkpt>
      <trkpt lat="46.23066" lon="-0.86651">
        <ele>26.1</ele>
        <time>2020-05-31T15:59:07Z</time>
      </trkpt>
      <trkpt lat="46.23064" lon="-0.86651">
        <ele>26.1</ele>
        <time>2020-05-31T15:59:08Z</time>
      </trkpt>
      <trkpt lat="46.23059" lon="-0.8665">
        <ele>26.1</ele>
        <time>2020-05-31T15:59:09Z</time>
      </trkpt>
      <trkpt lat="46.23055" lon="-0.86647">
        <ele>26.1</ele>
        <time>2020-05-31T15:59:10Z</time>
      </trkpt>
      <trkpt lat="46.23051" lon="-0.86646">
        <ele>26.1</ele>
        <time>2020-05-31T15:59:11Z</time>
      </trkpt>
      <trkpt lat="46.23048" lon="-0.86644">
        <ele>26.1</ele>
        <time>2020-05-31T15:59:12Z</time>
      </trkpt>
      <trkpt lat="46.23044" lon="-0.86641">
        <ele>26.1</ele>
        <time>2020-05-31T15:59:13Z</time>
      </trkpt>
      <trkpt lat="46.2304" lon="-0.86639">
        <ele>26.1</ele>
        <time>2020-05-31T15:59:14Z</time>
      </trkpt>
      <trkpt lat="46.23036" lon="-0.86637">
        <ele>26.2</ele>
        <time>2020-05-31T15:59:15Z</time>
      </trkpt>
      <trkpt lat="46.23032" lon="-0.86635">
        <ele>26.2</ele>
        <time>2020-05-31T15:59:16Z</time>
      </trkpt>
      <trkpt lat="46.23028" lon="-0.86634">
        <ele>26.2</ele>
        <time>2020-05-31T15:59:17Z</time>
      </trkpt>
      <trkpt lat="46.23025" lon="-0.86633">
        <ele>26.3</ele>
        <time>2020-05-31T15:59:18Z</time>
      </trkpt>
      <trkpt lat="46.2302" lon="-0.86632">
        <ele>26.3</ele>
        <time>2020-05-31T15:59:19Z</time>
      </trkpt>
      <trkpt lat="46.23015" lon="-0.8663">
        <ele>26.4</ele>
        <time>2020-05-31T15:59:20Z</time>
      </trkpt>
      <trkpt lat="46.2301" lon="-0.86628">
        <ele>26.4</ele>
        <time>2020-05-31T15:59:21Z</time>
      </trkpt>
      <trkpt lat="46.23004" lon="-0.86627">
        <ele>26.3</ele>
        <time>2020-05-31T15:59:22Z</time>
      </trkpt>
      <trkpt lat="46.22999" lon="-0.86625">
        <ele>26.2</ele>
        <time>2020-05-31T15:59:23Z</time>
      </trkpt>
      <trkpt lat="46.22993" lon="-0.86623">
        <ele>26.1</ele>
        <time>2020-05-31T15:59:24Z</time>
      </trkpt>
      <trkpt lat="46.22988" lon="-0.86621">
        <ele>26</ele>
        <time>2020-05-31T15:59:25Z</time>
      </trkpt>
      <trkpt lat="46.22984" lon="-0.86618">
        <ele>25.9</ele>
        <time>2020-05-31T15:59:26Z</time>
      </trkpt>
      <trkpt lat="46.2298" lon="-0.86615">
        <ele>26</ele>
        <time>2020-05-31T15:59:27Z</time>
      </trkpt>
      <trkpt lat="46.22976" lon="-0.86613">
        <ele>26.1</ele>
        <time>2020-05-31T15:59:28Z</time>
      </trkpt>
      <trkpt lat="46.22971" lon="-0.8661">
        <ele>26.2</ele>
        <time>2020-05-31T15:59:29Z</time>
      </trkpt>
      <trkpt lat="46.22966" lon="-0.86607">
        <ele>26.4</ele>
        <time>2020-05-31T15:59:30Z</time>
      </trkpt>
      <trkpt lat="46.22962" lon="-0.86605">
        <ele>26.5</ele>
        <time>2020-05-31T15:59:31Z</time>
      </trkpt>
      <trkpt lat="46.22958" lon="-0.86602">
        <ele>26.6</ele>
        <time>2020-05-31T15:59:32Z</time>
      </trkpt>
      <trkpt lat="46.22953" lon="-0.866">
        <ele>26.6</ele>
        <time>2020-05-31T15:59:33Z</time>
      </trkpt>
      <trkpt lat="46.22949" lon="-0.86597">
        <ele>26.7</ele>
        <time>2020-05-31T15:59:34Z</time>
      </trkpt>
      <trkpt lat="46.22947" lon="-0.86594">
        <ele>26.7</ele>
        <time>2020-05-31T15:59:35Z</time>
      </trkpt>
      <trkpt lat="46.22942" lon="-0.86591">
        <ele>26.8</ele>
        <time>2020-05-31T15:59:36Z</time>
      </trkpt>
      <trkpt lat="46.22937" lon="-0.86589">
        <ele>26.8</ele>
        <time>2020-05-31T15:59:37Z</time>
      </trkpt>
      <trkpt lat="46.22933" lon="-0.86587">
        <ele>26.8</ele>
        <time>2020-05-31T15:59:38Z</time>
      </trkpt>
      <trkpt lat="46.22928" lon="-0.86587">
        <ele>26.8</ele>
        <time>2020-05-31T15:59:39Z</time>
      </trkpt>
      <trkpt lat="46.22923" lon="-0.86588">
        <ele>26.7</ele>
        <time>2020-05-31T15:59:40Z</time>
      </trkpt>
      <trkpt lat="46.22919" lon="-0.86591">
        <ele>26.7</ele>
        <time>2020-05-31T15:59:41Z</time>
      </trkpt>
      <trkpt lat="46.22911" lon="-0.86597">
        <ele>26.6</ele>
        <time>2020-05-31T15:59:42Z</time>
      </trkpt>
      <trkpt lat="46.22907" lon="-0.866">
        <ele>26.5</ele>
        <time>2020-05-31T15:59:43Z</time>
      </trkpt>
      <trkpt lat="46.22903" lon="-0.86604">
        <ele>26.4</ele>
        <time>2020-05-31T15:59:44Z</time>
      </trkpt>
      <trkpt lat="46.22898" lon="-0.86608">
        <ele>26.3</ele>
        <time>2020-05-31T15:59:45Z</time>
      </trkpt>
      <trkpt lat="46.22894" lon="-0.86611">
        <ele>26.2</ele>
        <time>2020-05-31T15:59:46Z</time>
      </trkpt>
      <trkpt lat="46.22889" lon="-0.86614">
        <ele>26.2</ele>
        <time>2020-05-31T15:59:47Z</time>
      </trkpt>
      <trkpt lat="46.22886" lon="-0.86618">
        <ele>26.1</ele>
        <time>2020-05-31T15:59:48Z</time>
      </trkpt>
      <trkpt lat="46.22883" lon="-0.86622">
        <ele>26</ele>
        <time>2020-05-31T15:59:49Z</time>
      </trkpt>
      <trkpt lat="46.22878" lon="-0.86625">
        <ele>25.9</ele>
        <time>2020-05-31T15:59:50Z</time>
      </trkpt>
      <trkpt lat="46.22873" lon="-0.86629">
        <ele>25.8</ele>
        <time>2020-05-31T15:59:51Z</time>
      </trkpt>
      <trkpt lat="46.22869" lon="-0.86633">
        <ele>25.7</ele>
        <time>2020-05-31T15:59:52Z</time>
      </trkpt>
      <trkpt lat="46.22863" lon="-0.86635">
        <ele>25.5</ele>
        <time>2020-05-31T15:59:53Z</time>
      </trkpt>
      <trkpt lat="46.22858" lon="-0.86638">
        <ele>25.3</ele>
        <time>2020-05-31T15:59:54Z</time>
      </trkpt>
      <trkpt lat="46.22852" lon="-0.86641">
        <ele>25.2</ele>
        <time>2020-05-31T15:59:55Z</time>
      </trkpt>
      <trkpt lat="46.22848" lon="-0.86643">
        <ele>25</ele>
        <time>2020-05-31T15:59:56Z</time>
      </trkpt>
      <trkpt lat="46.22844" lon="-0.86644">
        <ele>24.9</ele>
        <time>2020-05-31T15:59:57Z</time>
      </trkpt>
      <trkpt lat="46.22839" lon="-0.86646">
        <ele>24.8</ele>
        <time>2020-05-31T15:59:58Z</time>
      </trkpt>
      <trkpt lat="46.22835" lon="-0.86648">
        <ele>24.8</ele>
        <time>2020-05-31T15:59:59Z</time>
      </trkpt>
      <trkpt lat="46.22831" lon="-0.8665">
        <ele>24.8</ele>
        <time>2020-05-31T16:00:00Z</time>
      </trkpt>
      <trkpt lat="46.22827" lon="-0.86652">
        <ele>24.8</ele>
        <time>2020-05-31T16:00:01Z</time>
      </trkpt>
      <trkpt lat="46.22823" lon="-0.86653">
        <ele>24.7</ele>
        <time>2020-05-31T16:00:02Z</time>
      </trkpt>
      <trkpt lat="46.22819" lon="-0.86653">
        <ele>24.7</ele>
        <time>2020-05-31T16:00:03Z</time>
      </trkpt>
      <trkpt lat="46.22814" lon="-0.86652">
        <ele>24.7</ele>
        <time>2020-05-31T16:00:04Z</time>
      </trkpt>
      <trkpt lat="46.22809" lon="-0.86652">
        <ele>24.7</ele>
        <time>2020-05-31T16:00:05Z</time>
      </trkpt>
      <trkpt lat="46.22805" lon="-0.86651">
        <ele>24.7</ele>
        <time>2020-05-31T16:00:06Z</time>
      </trkpt>
      <trkpt lat="46.228" lon="-0.8665">
        <ele>24.7</ele>
        <time>2020-05-31T16:00:07Z</time>
      </trkpt>
      <trkpt lat="46.22794" lon="-0.86651">
        <ele>24.7</ele>
        <time>2020-05-31T16:00:08Z</time>
      </trkpt>
      <trkpt lat="46.22789" lon="-0.86651">
        <ele>24.7</ele>
        <time>2020-05-31T16:00:09Z</time>
      </trkpt>
      <trkpt lat="46.22784" lon="-0.86651">
        <ele>24.7</ele>
        <time>2020-05-31T16:00:10Z</time>
      </trkpt>
      <trkpt lat="46.22779" lon="-0.86651">
        <ele>24.7</ele>
        <time>2020-05-31T16:00:11Z</time>
      </trkpt>
      <trkpt lat="46.22773" lon="-0.8665">
        <ele>24.7</ele>
        <time>2020-05-31T16:00:12Z</time>
      </trkpt>
      <trkpt lat="46.22767" lon="-0.8665">
        <ele>24.6</ele>
        <time>2020-05-31T16:00:13Z</time>
      </trkpt>
      <trkpt lat="46.22762" lon="-0.8665">
        <ele>24.6</ele>
        <time>2020-05-31T16:00:14Z</time>
      </trkpt>
      <trkpt lat="46.22757" lon="-0.86649">
        <ele>24.5</ele>
        <time>2020-05-31T16:00:15Z</time>
      </trkpt>
      <trkpt lat="46.22752" lon="-0.86648">
        <ele>24.5</ele>
        <time>2020-05-31T16:00:16Z</time>
      </trkpt>
      <trkpt lat="46.22747" lon="-0.86647">
        <ele>24.4</ele>
        <time>2020-05-31T16:00:17Z</time>
      </trkpt>
      <trkpt lat="46.22742" lon="-0.86646">
        <ele>24.3</ele>
        <time>2020-05-31T16:00:18Z</time>
      </trkpt>
      <trkpt lat="46.22737" lon="-0.86646">
        <ele>24.2</ele>
        <time>2020-05-31T16:00:19Z</time>
      </trkpt>
      <trkpt lat="46.22732" lon="-0.86647">
        <ele>24.2</ele>
        <time>2020-05-31T16:00:20Z</time>
      </trkpt>
      <trkpt lat="46.22729" lon="-0.86648">
        <ele>24.1</ele>
        <time>2020-05-31T16:00:21Z</time>
      </trkpt>
      <trkpt lat="46.22727" lon="-0.86652">
        <ele>24.1</ele>
        <time>2020-05-31T16:00:22Z</time>
      </trkpt>
      <trkpt lat="46.22726" lon="-0.86657">
        <ele>24.1</ele>
        <time>2020-05-31T16:00:23Z</time>
      </trkpt>
      <trkpt lat="46.22725" lon="-0.86663">
        <ele>24.1</ele>
        <time>2020-05-31T16:00:24Z</time>
      </trkpt>
      <trkpt lat="46.22725" lon="-0.8667">
        <ele>24</ele>
        <time>2020-05-31T16:00:25Z</time>
      </trkpt>
      <trkpt lat="46.22724" lon="-0.86678">
        <ele>24</ele>
        <time>2020-05-31T16:00:26Z</time>
      </trkpt>
      <trkpt lat="46.22723" lon="-0.86685">
        <ele>23.9</ele>
        <time>2020-05-31T16:00:27Z</time>
      </trkpt>
      <trkpt lat="46.22723" lon="-0.86692">
        <ele>23.9</ele>
        <time>2020-05-31T16:00:28Z</time>
      </trkpt>
      <trkpt lat="46.22724" lon="-0.86698">
        <ele>23.8</ele>
        <time>2020-05-31T16:00:29Z</time>
      </trkpt>
      <trkpt lat="46.22723" lon="-0.86704">
        <ele>23.8</ele>
        <time>2020-05-31T16:00:30Z</time>
      </trkpt>
      <trkpt lat="46.22723" lon="-0.8671">
        <ele>23.8</ele>
        <time>2020-05-31T16:00:31Z</time>
      </trkpt>
      <trkpt lat="46.22723" lon="-0.86717">
        <ele>23.7</ele>
        <time>2020-05-31T16:00:32Z</time>
      </trkpt>
      <trkpt lat="46.22723" lon="-0.86723">
        <ele>23.7</ele>
        <time>2020-05-31T16:00:33Z</time>
      </trkpt>
      <trkpt lat="46.22723" lon="-0.86729">
        <ele>23.6</ele>
        <time>2020-05-31T16:00:34Z</time>
      </trkpt>
      <trkpt lat="46.22723" lon="-0.86736">
        <ele>23.6</ele>
        <time>2020-05-31T16:00:35Z</time>
      </trkpt>
      <trkpt lat="46.22723" lon="-0.86742">
        <ele>23.5</ele>
        <time>2020-05-31T16:00:36Z</time>
      </trkpt>
      <trkpt lat="46.22723" lon="-0.86748">
        <ele>23.5</ele>
        <time>2020-05-31T16:00:37Z</time>
      </trkpt>
      <trkpt lat="46.22723" lon="-0.86754">
        <ele>23.4</ele>
        <time>2020-05-31T16:00:38Z</time>
      </trkpt>
      <trkpt lat="46.22722" lon="-0.8676">
        <ele>23.4</ele>
        <time>2020-05-31T16:00:39Z</time>
      </trkpt>
      <trkpt lat="46.22722" lon="-0.86767">
        <ele>23.3</ele>
        <time>2020-05-31T16:00:40Z</time>
      </trkpt>
      <trkpt lat="46.22722" lon="-0.86771">
        <ele>23.3</ele>
        <time>2020-05-31T16:00:41Z</time>
      </trkpt>
      <trkpt lat="46.22723" lon="-0.86777">
        <ele>23.2</ele>
        <time>2020-05-31T16:00:42Z</time>
      </trkpt>
      <trkpt lat="46.22723" lon="-0.86783">
        <ele>23.1</ele>
        <time>2020-05-31T16:00:43Z</time>
      </trkpt>
      <trkpt lat="46.22724" lon="-0.86788">
        <ele>23.1</ele>
        <time>2020-05-31T16:00:44Z</time>
      </trkpt>
      <trkpt lat="46.22724" lon="-0.86794">
        <ele>23</ele>
        <time>2020-05-31T16:00:45Z</time>
      </trkpt>
      <trkpt lat="46.22724" lon="-0.868">
        <ele>23</ele>
        <time>2020-05-31T16:00:46Z</time>
      </trkpt>
      <trkpt lat="46.22723" lon="-0.86805">
        <ele>22.9</ele>
        <time>2020-05-31T16:00:47Z</time>
      </trkpt>
      <trkpt lat="46.22723" lon="-0.86811">
        <ele>22.9</ele>
        <time>2020-05-31T16:00:48Z</time>
      </trkpt>
      <trkpt lat="46.22723" lon="-0.86817">
        <ele>22.8</ele>
        <time>2020-05-31T16:00:49Z</time>
      </trkpt>
      <trkpt lat="46.22722" lon="-0.86824">
        <ele>22.7</ele>
        <time>2020-05-31T16:00:50Z</time>
      </trkpt>
      <trkpt lat="46.22722" lon="-0.8683">
        <ele>22.7</ele>
        <time>2020-05-31T16:00:51Z</time>
      </trkpt>
      <trkpt lat="46.22722" lon="-0.86836">
        <ele>22.6</ele>
        <time>2020-05-31T16:00:52Z</time>
      </trkpt>
      <trkpt lat="46.22722" lon="-0.86844">
        <ele>22.6</ele>
        <time>2020-05-31T16:00:53Z</time>
      </trkpt>
      <trkpt lat="46.22723" lon="-0.8685">
        <ele>22.5</ele>
        <time>2020-05-31T16:00:54Z</time>
      </trkpt>
      <trkpt lat="46.22723" lon="-0.86856">
        <ele>22.5</ele>
        <time>2020-05-31T16:00:55Z</time>
      </trkpt>
      <trkpt lat="46.22724" lon="-0.86864">
        <ele>22.4</ele>
        <time>2020-05-31T16:00:56Z</time>
      </trkpt>
      <trkpt lat="46.22723" lon="-0.86873">
        <ele>22.2</ele>
        <time>2020-05-31T16:00:57Z</time>
      </trkpt>
      <trkpt lat="46.22723" lon="-0.86884">
        <ele>22.1</ele>
        <time>2020-05-31T16:00:58Z</time>
      </trkpt>
      <trkpt lat="46.22723" lon="-0.86894">
        <ele>22</ele>
        <time>2020-05-31T16:00:59Z</time>
      </trkpt>
      <trkpt lat="46.22723" lon="-0.86903">
        <ele>21.9</ele>
        <time>2020-05-31T16:01:00Z</time>
      </trkpt>
      <trkpt lat="46.22723" lon="-0.86912">
        <ele>21.8</ele>
        <time>2020-05-31T16:01:01Z</time>
      </trkpt>
      <trkpt lat="46.22723" lon="-0.86921">
        <ele>21.8</ele>
        <time>2020-05-31T16:01:02Z</time>
      </trkpt>
      <trkpt lat="46.22723" lon="-0.8693">
        <ele>21.7</ele>
        <time>2020-05-31T16:01:03Z</time>
      </trkpt>
      <trkpt lat="46.22722" lon="-0.86939">
        <ele>21.7</ele>
        <time>2020-05-31T16:01:04Z</time>
      </trkpt>
      <trkpt lat="46.22721" lon="-0.8695">
        <ele>21.6</ele>
        <time>2020-05-31T16:01:05Z</time>
      </trkpt>
      <trkpt lat="46.22721" lon="-0.86959">
        <ele>21.5</ele>
        <time>2020-05-31T16:01:06Z</time>
      </trkpt>
      <trkpt lat="46.2272" lon="-0.86969">
        <ele>21.5</ele>
        <time>2020-05-31T16:01:07Z</time>
      </trkpt>
      <trkpt lat="46.22721" lon="-0.86978">
        <ele>21.5</ele>
        <time>2020-05-31T16:01:08Z</time>
      </trkpt>
      <trkpt lat="46.2272" lon="-0.86987">
        <ele>21.4</ele>
        <time>2020-05-31T16:01:09Z</time>
      </trkpt>
      <trkpt lat="46.2272" lon="-0.86997">
        <ele>21.4</ele>
        <time>2020-05-31T16:01:10Z</time>
      </trkpt>
      <trkpt lat="46.22719" lon="-0.87006">
        <ele>21.3</ele>
        <time>2020-05-31T16:01:11Z</time>
      </trkpt>
      <trkpt lat="46.22719" lon="-0.87015">
        <ele>21.3</ele>
        <time>2020-05-31T16:01:12Z</time>
      </trkpt>
      <trkpt lat="46.22718" lon="-0.87023">
        <ele>21.3</ele>
        <time>2020-05-31T16:01:13Z</time>
      </trkpt>
      <trkpt lat="46.22718" lon="-0.87031">
        <ele>21.2</ele>
        <time>2020-05-31T16:01:14Z</time>
      </trkpt>
      <trkpt lat="46.22718" lon="-0.87037">
        <ele>21.2</ele>
        <time>2020-05-31T16:01:15Z</time>
      </trkpt>
      <trkpt lat="46.22718" lon="-0.87045">
        <ele>21.2</ele>
        <time>2020-05-31T16:01:16Z</time>
      </trkpt>
      <trkpt lat="46.22718" lon="-0.87053">
        <ele>21.1</ele>
        <time>2020-05-31T16:01:17Z</time>
      </trkpt>
      <trkpt lat="46.22718" lon="-0.8706">
        <ele>21.1</ele>
        <time>2020-05-31T16:01:18Z</time>
      </trkpt>
      <trkpt lat="46.22717" lon="-0.8707">
        <ele>21.1</ele>
        <time>2020-05-31T16:01:19Z</time>
      </trkpt>
      <trkpt lat="46.22717" lon="-0.87079">
        <ele>21.1</ele>
        <time>2020-05-31T16:01:20Z</time>
      </trkpt>
      <trkpt lat="46.22716" lon="-0.87087">
        <ele>21.1</ele>
        <time>2020-05-31T16:01:21Z</time>
      </trkpt>
      <trkpt lat="46.22715" lon="-0.87096">
        <ele>21.1</ele>
        <time>2020-05-31T16:01:22Z</time>
      </trkpt>
      <trkpt lat="46.22715" lon="-0.87105">
        <ele>21</ele>
        <time>2020-05-31T16:01:23Z</time>
      </trkpt>
      <trkpt lat="46.22714" lon="-0.87114">
        <ele>21</ele>
        <time>2020-05-31T16:01:24Z</time>
      </trkpt>
      <trkpt lat="46.22714" lon="-0.87123">
        <ele>20.9</ele>
        <time>2020-05-31T16:01:25Z</time>
      </trkpt>
      <trkpt lat="46.22713" lon="-0.87131">
        <ele>20.8</ele>
        <time>2020-05-31T16:01:26Z</time>
      </trkpt>
      <trkpt lat="46.22713" lon="-0.87138">
        <ele>20.7</ele>
        <time>2020-05-31T16:01:27Z</time>
      </trkpt>
      <trkpt lat="46.22713" lon="-0.87143">
        <ele>20.7</ele>
        <time>2020-05-31T16:01:28Z</time>
      </trkpt>
      <trkpt lat="46.22713" lon="-0.87149">
        <ele>20.6</ele>
        <time>2020-05-31T16:01:29Z</time>
      </trkpt>
      <trkpt lat="46.22712" lon="-0.8715">
        <ele>20.6</ele>
        <time>2020-05-31T16:01:30Z</time>
      </trkpt>
      <trkpt lat="46.22713" lon="-0.87156">
        <ele>20.6</ele>
        <time>2020-05-31T16:01:31Z</time>
      </trkpt>
      <trkpt lat="46.22714" lon="-0.87159">
        <ele>20.6</ele>
        <time>2020-05-31T16:01:32Z</time>
      </trkpt>
      <trkpt lat="46.22715" lon="-0.87166">
        <ele>20.5</ele>
        <time>2020-05-31T16:01:33Z</time>
      </trkpt>
      <trkpt lat="46.22716" lon="-0.87173">
        <ele>20.5</ele>
        <time>2020-05-31T16:01:34Z</time>
      </trkpt>
      <trkpt lat="46.22716" lon="-0.87181">
        <ele>20.5</ele>
        <time>2020-05-31T16:01:35Z</time>
      </trkpt>
      <trkpt lat="46.22716" lon="-0.87189">
        <ele>20.5</ele>
        <time>2020-05-31T16:01:36Z</time>
      </trkpt>
      <trkpt lat="46.22714" lon="-0.87197">
        <ele>20.5</ele>
        <time>2020-05-31T16:01:37Z</time>
      </trkpt>
      <trkpt lat="46.22712" lon="-0.87205">
        <ele>20.4</ele>
        <time>2020-05-31T16:01:38Z</time>
      </trkpt>
      <trkpt lat="46.22711" lon="-0.87213">
        <ele>20.4</ele>
        <time>2020-05-31T16:01:39Z</time>
      </trkpt>
      <trkpt lat="46.2271" lon="-0.8722">
        <ele>20.3</ele>
        <time>2020-05-31T16:01:40Z</time>
      </trkpt>
      <trkpt lat="46.22711" lon="-0.87228">
        <ele>20.3</ele>
        <time>2020-05-31T16:01:41Z</time>
      </trkpt>
      <trkpt lat="46.22711" lon="-0.87238">
        <ele>20.2</ele>
        <time>2020-05-31T16:01:42Z</time>
      </trkpt>
      <trkpt lat="46.22712" lon="-0.87248">
        <ele>20.2</ele>
        <time>2020-05-31T16:01:43Z</time>
      </trkpt>
      <trkpt lat="46.22713" lon="-0.87258">
        <ele>20.1</ele>
        <time>2020-05-31T16:01:44Z</time>
      </trkpt>
      <trkpt lat="46.22714" lon="-0.87267">
        <ele>20</ele>
        <time>2020-05-31T16:01:45Z</time>
      </trkpt>
      <trkpt lat="46.22714" lon="-0.87277">
        <ele>20</ele>
        <time>2020-05-31T16:01:46Z</time>
      </trkpt>
      <trkpt lat="46.22714" lon="-0.87286">
        <ele>19.8</ele>
        <time>2020-05-31T16:01:47Z</time>
      </trkpt>
      <trkpt lat="46.22714" lon="-0.87295">
        <ele>19.8</ele>
        <time>2020-05-31T16:01:48Z</time>
      </trkpt>
      <trkpt lat="46.22711" lon="-0.87304">
        <ele>19.8</ele>
        <time>2020-05-31T16:01:49Z</time>
      </trkpt>
      <trkpt lat="46.22709" lon="-0.87314">
        <ele>19.8</ele>
        <time>2020-05-31T16:01:50Z</time>
      </trkpt>
      <trkpt lat="46.22708" lon="-0.87324">
        <ele>19.8</ele>
        <time>2020-05-31T16:01:51Z</time>
      </trkpt>
      <trkpt lat="46.22708" lon="-0.87334">
        <ele>19.7</ele>
        <time>2020-05-31T16:01:52Z</time>
      </trkpt>
      <trkpt lat="46.22707" lon="-0.87344">
        <ele>19.7</ele>
        <time>2020-05-31T16:01:53Z</time>
      </trkpt>
      <trkpt lat="46.22707" lon="-0.87355">
        <ele>19.7</ele>
        <time>2020-05-31T16:01:54Z</time>
      </trkpt>
      <trkpt lat="46.22706" lon="-0.87365">
        <ele>19.6</ele>
        <time>2020-05-31T16:01:55Z</time>
      </trkpt>
      <trkpt lat="46.22706" lon="-0.87374">
        <ele>19.6</ele>
        <time>2020-05-31T16:01:56Z</time>
      </trkpt>
      <trkpt lat="46.22705" lon="-0.87384">
        <ele>19.5</ele>
        <time>2020-05-31T16:01:57Z</time>
      </trkpt>
      <trkpt lat="46.22706" lon="-0.87394">
        <ele>19.5</ele>
        <time>2020-05-31T16:01:58Z</time>
      </trkpt>
      <trkpt lat="46.22706" lon="-0.87404">
        <ele>19.5</ele>
        <time>2020-05-31T16:01:59Z</time>
      </trkpt>
      <trkpt lat="46.22707" lon="-0.87413">
        <ele>19.4</ele>
        <time>2020-05-31T16:02:00Z</time>
      </trkpt>
      <trkpt lat="46.22707" lon="-0.87423">
        <ele>19.4</ele>
        <time>2020-05-31T16:02:01Z</time>
      </trkpt>
      <trkpt lat="46.22708" lon="-0.87433">
        <ele>19.4</ele>
        <time>2020-05-31T16:02:02Z</time>
      </trkpt>
      <trkpt lat="46.22709" lon="-0.87442">
        <ele>19.4</ele>
        <time>2020-05-31T16:02:03Z</time>
      </trkpt>
      <trkpt lat="46.2271" lon="-0.87452">
        <ele>19.4</ele>
        <time>2020-05-31T16:02:04Z</time>
      </trkpt>
      <trkpt lat="46.22712" lon="-0.87461">
        <ele>19.4</ele>
        <time>2020-05-31T16:02:05Z</time>
      </trkpt>
      <trkpt lat="46.22713" lon="-0.87471">
        <ele>19.4</ele>
        <time>2020-05-31T16:02:06Z</time>
      </trkpt>
      <trkpt lat="46.22715" lon="-0.8748">
        <ele>19.4</ele>
        <time>2020-05-31T16:02:07Z</time>
      </trkpt>
      <trkpt lat="46.22717" lon="-0.87489">
        <ele>19.4</ele>
        <time>2020-05-31T16:02:08Z</time>
      </trkpt>
      <trkpt lat="46.22719" lon="-0.87498">
        <ele>19.4</ele>
        <time>2020-05-31T16:02:09Z</time>
      </trkpt>
      <trkpt lat="46.22722" lon="-0.87507">
        <ele>19.4</ele>
        <time>2020-05-31T16:02:10Z</time>
      </trkpt>
      <trkpt lat="46.22724" lon="-0.87515">
        <ele>19.4</ele>
        <time>2020-05-31T16:02:11Z</time>
      </trkpt>
      <trkpt lat="46.22726" lon="-0.87524">
        <ele>19.4</ele>
        <time>2020-05-31T16:02:12Z</time>
      </trkpt>
      <trkpt lat="46.22728" lon="-0.87533">
        <ele>19.4</ele>
        <time>2020-05-31T16:02:13Z</time>
      </trkpt>
      <trkpt lat="46.22731" lon="-0.87542">
        <ele>19.4</ele>
        <time>2020-05-31T16:02:14Z</time>
      </trkpt>
      <trkpt lat="46.22733" lon="-0.87551">
        <ele>19.4</ele>
        <time>2020-05-31T16:02:15Z</time>
      </trkpt>
      <trkpt lat="46.22736" lon="-0.87559">
        <ele>19.4</ele>
        <time>2020-05-31T16:02:16Z</time>
      </trkpt>
      <trkpt lat="46.22739" lon="-0.87566">
        <ele>19.4</ele>
        <time>2020-05-31T16:02:17Z</time>
      </trkpt>
      <trkpt lat="46.22742" lon="-0.87574">
        <ele>19.4</ele>
        <time>2020-05-31T16:02:18Z</time>
      </trkpt>
      <trkpt lat="46.22745" lon="-0.87581">
        <ele>19.4</ele>
        <time>2020-05-31T16:02:19Z</time>
      </trkpt>
      <trkpt lat="46.22749" lon="-0.87588">
        <ele>19.4</ele>
        <time>2020-05-31T16:02:20Z</time>
      </trkpt>
      <trkpt lat="46.22752" lon="-0.87594">
        <ele>19.4</ele>
        <time>2020-05-31T16:02:21Z</time>
      </trkpt>
      <trkpt lat="46.22756" lon="-0.876">
        <ele>19.5</ele>
        <time>2020-05-31T16:02:22Z</time>
      </trkpt>
      <trkpt lat="46.2276" lon="-0.87606">
        <ele>19.5</ele>
        <time>2020-05-31T16:02:23Z</time>
      </trkpt>
      <trkpt lat="46.22764" lon="-0.87611">
        <ele>19.5</ele>
        <time>2020-05-31T16:02:24Z</time>
      </trkpt>
      <trkpt lat="46.22769" lon="-0.87614">
        <ele>19.4</ele>
        <time>2020-05-31T16:02:25Z</time>
      </trkpt>
      <trkpt lat="46.22774" lon="-0.87615">
        <ele>19.4</ele>
        <time>2020-05-31T16:02:26Z</time>
      </trkpt>
      <trkpt lat="46.22779" lon="-0.87616">
        <ele>19.4</ele>
        <time>2020-05-31T16:02:27Z</time>
      </trkpt>
      <trkpt lat="46.22784" lon="-0.87614">
        <ele>19.4</ele>
        <time>2020-05-31T16:02:28Z</time>
      </trkpt>
      <trkpt lat="46.22789" lon="-0.87614">
        <ele>19.4</ele>
        <time>2020-05-31T16:02:29Z</time>
      </trkpt>
      <trkpt lat="46.22794" lon="-0.87613">
        <ele>19.4</ele>
        <time>2020-05-31T16:02:30Z</time>
      </trkpt>
      <trkpt lat="46.22799" lon="-0.87612">
        <ele>19.4</ele>
        <time>2020-05-31T16:02:31Z</time>
      </trkpt>
      <trkpt lat="46.22804" lon="-0.8761">
        <ele>19.4</ele>
        <time>2020-05-31T16:02:32Z</time>
      </trkpt>
      <trkpt lat="46.22809" lon="-0.87609">
        <ele>19.4</ele>
        <time>2020-05-31T16:02:33Z</time>
      </trkpt>
      <trkpt lat="46.22814" lon="-0.87607">
        <ele>19.4</ele>
        <time>2020-05-31T16:02:34Z</time>
      </trkpt>
      <trkpt lat="46.22818" lon="-0.87604">
        <ele>19.4</ele>
        <time>2020-05-31T16:02:35Z</time>
      </trkpt>
      <trkpt lat="46.22821" lon="-0.87599">
        <ele>19.3</ele>
        <time>2020-05-31T16:02:36Z</time>
      </trkpt>
      <trkpt lat="46.22824" lon="-0.87595">
        <ele>19.3</ele>
        <time>2020-05-31T16:02:37Z</time>
      </trkpt>
      <trkpt lat="46.22827" lon="-0.87592">
        <ele>19.3</ele>
        <time>2020-05-31T16:02:38Z</time>
      </trkpt>
      <trkpt lat="46.2283" lon="-0.87592">
        <ele>19.3</ele>
        <time>2020-05-31T16:02:39Z</time>
      </trkpt>
      <trkpt lat="46.22833" lon="-0.87592">
        <ele>19.3</ele>
        <time>2020-05-31T16:02:40Z</time>
      </trkpt>
      <trkpt lat="46.22836" lon="-0.87594">
        <ele>19.3</ele>
        <time>2020-05-31T16:02:41Z</time>
      </trkpt>
      <trkpt lat="46.22836" lon="-0.87596">
        <ele>19.3</ele>
        <time>2020-05-31T16:02:42Z</time>
      </trkpt>
      <trkpt lat="46.22837" lon="-0.87601">
        <ele>19.3</ele>
        <time>2020-05-31T16:02:43Z</time>
      </trkpt>
      <trkpt lat="46.22838" lon="-0.87603">
        <ele>19.3</ele>
        <time>2020-05-31T16:02:44Z</time>
      </trkpt>
      <trkpt lat="46.22837" lon="-0.87607">
        <ele>19.3</ele>
        <time>2020-05-31T16:02:45Z</time>
      </trkpt>
      <trkpt lat="46.22836" lon="-0.8761">
        <ele>19.3</ele>
        <time>2020-05-31T16:02:46Z</time>
      </trkpt>
      <trkpt lat="46.22836" lon="-0.87615">
        <ele>19.3</ele>
        <time>2020-05-31T16:02:47Z</time>
      </trkpt>
      <trkpt lat="46.22835" lon="-0.87619">
        <ele>19.3</ele>
        <time>2020-05-31T16:02:48Z</time>
      </trkpt>
      <trkpt lat="46.22833" lon="-0.87624">
        <ele>19.3</ele>
        <time>2020-05-31T16:02:49Z</time>
      </trkpt>
      <trkpt lat="46.22832" lon="-0.87628">
        <ele>19.3</ele>
        <time>2020-05-31T16:02:50Z</time>
      </trkpt>
      <trkpt lat="46.22831" lon="-0.87633">
        <ele>19.3</ele>
        <time>2020-05-31T16:02:51Z</time>
      </trkpt>
      <trkpt lat="46.2283" lon="-0.87639">
        <ele>19.3</ele>
        <time>2020-05-31T16:02:52Z</time>
      </trkpt>
      <trkpt lat="46.2283" lon="-0.87646">
        <ele>19.3</ele>
        <time>2020-05-31T16:02:53Z</time>
      </trkpt>
      <trkpt lat="46.22829" lon="-0.87653">
        <ele>19.2</ele>
        <time>2020-05-31T16:02:54Z</time>
      </trkpt>
      <trkpt lat="46.22829" lon="-0.8766">
        <ele>19.2</ele>
        <time>2020-05-31T16:02:55Z</time>
      </trkpt>
      <trkpt lat="46.22828" lon="-0.87666">
        <ele>19.2</ele>
        <time>2020-05-31T16:02:56Z</time>
      </trkpt>
      <trkpt lat="46.22828" lon="-0.87674">
        <ele>19.2</ele>
        <time>2020-05-31T16:02:57Z</time>
      </trkpt>
      <trkpt lat="46.22827" lon="-0.87681">
        <ele>19.2</ele>
        <time>2020-05-31T16:02:58Z</time>
      </trkpt>
      <trkpt lat="46.22826" lon="-0.87689">
        <ele>19.2</ele>
        <time>2020-05-31T16:02:59Z</time>
      </trkpt>
      <trkpt lat="46.22825" lon="-0.87697">
        <ele>19.1</ele>
        <time>2020-05-31T16:03:00Z</time>
      </trkpt>
      <trkpt lat="46.22824" lon="-0.87706">
        <ele>19.1</ele>
        <time>2020-05-31T16:03:01Z</time>
      </trkpt>
      <trkpt lat="46.22824" lon="-0.87715">
        <ele>19.1</ele>
        <time>2020-05-31T16:03:02Z</time>
      </trkpt>
      <trkpt lat="46.22825" lon="-0.87724">
        <ele>19.1</ele>
        <time>2020-05-31T16:03:03Z</time>
      </trkpt>
      <trkpt lat="46.22827" lon="-0.87732">
        <ele>19.1</ele>
        <time>2020-05-31T16:03:04Z</time>
      </trkpt>
      <trkpt lat="46.22829" lon="-0.8774">
        <ele>19.1</ele>
        <time>2020-05-31T16:03:05Z</time>
      </trkpt>
      <trkpt lat="46.2283" lon="-0.87748">
        <ele>19.1</ele>
        <time>2020-05-31T16:03:06Z</time>
      </trkpt>
      <trkpt lat="46.22833" lon="-0.87755">
        <ele>19</ele>
        <time>2020-05-31T16:03:07Z</time>
      </trkpt>
      <trkpt lat="46.22836" lon="-0.87761">
        <ele>19</ele>
        <time>2020-05-31T16:03:08Z</time>
      </trkpt>
      <trkpt lat="46.22839" lon="-0.87768">
        <ele>19</ele>
        <time>2020-05-31T16:03:09Z</time>
      </trkpt>
      <trkpt lat="46.22843" lon="-0.87774">
        <ele>19</ele>
        <time>2020-05-31T16:03:10Z</time>
      </trkpt>
      <trkpt lat="46.22846" lon="-0.87781">
        <ele>19</ele>
        <time>2020-05-31T16:03:11Z</time>
      </trkpt>
      <trkpt lat="46.2285" lon="-0.87786">
        <ele>19</ele>
        <time>2020-05-31T16:03:12Z</time>
      </trkpt>
      <trkpt lat="46.22853" lon="-0.87793">
        <ele>19</ele>
        <time>2020-05-31T16:03:13Z</time>
      </trkpt>
      <trkpt lat="46.22857" lon="-0.87799">
        <ele>18.9</ele>
        <time>2020-05-31T16:03:14Z</time>
      </trkpt>
      <trkpt lat="46.2286" lon="-0.87807">
        <ele>18.4</ele>
        <time>2020-05-31T16:03:15Z</time>
      </trkpt>
      <trkpt lat="46.22863" lon="-0.87813">
        <ele>18.4</ele>
        <time>2020-05-31T16:03:16Z</time>
      </trkpt>
      <trkpt lat="46.22866" lon="-0.8782">
        <ele>18.4</ele>
        <time>2020-05-31T16:03:17Z</time>
      </trkpt>
      <trkpt lat="46.22869" lon="-0.87826">
        <ele>18.4</ele>
        <time>2020-05-31T16:03:18Z</time>
      </trkpt>
      <trkpt lat="46.22872" lon="-0.87832">
        <ele>18.4</ele>
        <time>2020-05-31T16:03:19Z</time>
      </trkpt>
      <trkpt lat="46.22874" lon="-0.87841">
        <ele>18.4</ele>
        <time>2020-05-31T16:03:20Z</time>
      </trkpt>
      <trkpt lat="46.22876" lon="-0.87849">
        <ele>18.5</ele>
        <time>2020-05-31T16:03:21Z</time>
      </trkpt>
      <trkpt lat="46.22877" lon="-0.87856">
        <ele>18.5</ele>
        <time>2020-05-31T16:03:22Z</time>
      </trkpt>
      <trkpt lat="46.22879" lon="-0.87863">
        <ele>18.5</ele>
        <time>2020-05-31T16:03:23Z</time>
      </trkpt>
      <trkpt lat="46.22879" lon="-0.87871">
        <ele>18.5</ele>
        <time>2020-05-31T16:03:24Z</time>
      </trkpt>
      <trkpt lat="46.22879" lon="-0.87878">
        <ele>18.5</ele>
        <time>2020-05-31T16:03:25Z</time>
      </trkpt>
      <trkpt lat="46.2288" lon="-0.87885">
        <ele>18.5</ele>
        <time>2020-05-31T16:03:26Z</time>
      </trkpt>
      <trkpt lat="46.2288" lon="-0.87892">
        <ele>18.5</ele>
        <time>2020-05-31T16:03:27Z</time>
      </trkpt>
      <trkpt lat="46.2288" lon="-0.87899">
        <ele>18.6</ele>
        <time>2020-05-31T16:03:28Z</time>
      </trkpt>
      <trkpt lat="46.22879" lon="-0.87904">
        <ele>18.6</ele>
        <time>2020-05-31T16:03:29Z</time>
      </trkpt>
      <trkpt lat="46.2288" lon="-0.87912">
        <ele>18.6</ele>
        <time>2020-05-31T16:03:30Z</time>
      </trkpt>
      <trkpt lat="46.2288" lon="-0.87917">
        <ele>18.6</ele>
        <time>2020-05-31T16:03:31Z</time>
      </trkpt>
      <trkpt lat="46.2288" lon="-0.87922">
        <ele>18.6</ele>
        <time>2020-05-31T16:03:32Z</time>
      </trkpt>
      <trkpt lat="46.22881" lon="-0.87925">
        <ele>18.7</ele>
        <time>2020-05-31T16:03:33Z</time>
      </trkpt>
      <trkpt lat="46.22881" lon="-0.87927">
        <ele>18.7</ele>
        <time>2020-05-31T16:03:34Z</time>
      </trkpt>
      <trkpt lat="46.22881" lon="-0.87928">
        <ele>18.7</ele>
        <time>2020-05-31T16:03:35Z</time>
      </trkpt>
      <trkpt lat="46.2288" lon="-0.8793">
        <ele>18.7</ele>
        <time>2020-05-31T16:03:36Z</time>
      </trkpt>
      <trkpt lat="46.2288" lon="-0.87931">
        <ele>18.7</ele>
        <time>2020-05-31T16:03:37Z</time>
      </trkpt>
      <trkpt lat="46.2288" lon="-0.8793">
        <ele>18.8</ele>
        <time>2020-05-31T16:03:38Z</time>
      </trkpt>
      <trkpt lat="46.2288" lon="-0.87929">
        <ele>18.8</ele>
        <time>2020-05-31T16:03:39Z</time>
      </trkpt>
      <trkpt lat="46.22881" lon="-0.87928">
        <ele>18.8</ele>
        <time>2020-05-31T16:03:40Z</time>
      </trkpt>
      <trkpt lat="46.22881" lon="-0.87928">
        <ele>18.8</ele>
        <time>2020-05-31T16:03:41Z</time>
      </trkpt>
      <trkpt lat="46.22882" lon="-0.87927">
        <ele>18.8</ele>
        <time>2020-05-31T16:03:42Z</time>
      </trkpt>
      <trkpt lat="46.22882" lon="-0.87927">
        <ele>18.8</ele>
        <time>2020-05-31T16:03:43Z</time>
      </trkpt>
      <trkpt lat="46.22882" lon="-0.87927">
        <ele>18.8</ele>
        <time>2020-05-31T16:03:44Z</time>
      </trkpt>
      <trkpt lat="46.22882" lon="-0.87927">
        <ele>18.8</ele>
        <time>2020-05-31T16:03:45Z</time>
      </trkpt>
      <trkpt lat="46.22882" lon="-0.87927">
        <ele>18.8</ele>
        <time>2020-05-31T16:03:46Z</time>
      </trkpt>
      <trkpt lat="46.22882" lon="-0.87926">
        <ele>18.8</ele>
        <time>2020-05-31T16:03:47Z</time>
      </trkpt>
      <trkpt lat="46.22882" lon="-0.87926">
        <ele>18.8</ele>
        <time>2020-05-31T16:03:48Z</time>
      </trkpt>
      <trkpt lat="46.22882" lon="-0.87926">
        <ele>18.8</ele>
        <time>2020-05-31T16:03:49Z</time>
      </trkpt>
      <trkpt lat="46.22882" lon="-0.87926">
        <ele>18.8</ele>
        <time>2020-05-31T16:03:50Z</time>
      </trkpt>
      <trkpt lat="46.22882" lon="-0.87926">
        <ele>18.8</ele>
        <time>2020-05-31T16:03:51Z</time>
      </trkpt>
      <trkpt lat="46.22882" lon="-0.87925">
        <ele>18.8</ele>
        <time>2020-05-31T16:03:52Z</time>
      </trkpt>
      <trkpt lat="46.22882" lon="-0.87925">
        <ele>18.8</ele>
        <time>2020-05-31T16:03:53Z</time>
      </trkpt>
      <trkpt lat="46.22882" lon="-0.87925">
        <ele>18.8</ele>
        <time>2020-05-31T16:03:54Z</time>
      </trkpt>
      <trkpt lat="46.22881" lon="-0.87926">
        <ele>18.8</ele>
        <time>2020-05-31T16:03:55Z</time>
      </trkpt>
      <trkpt lat="46.22881" lon="-0.87927">
        <ele>18.8</ele>
        <time>2020-05-31T16:03:56Z</time>
      </trkpt>
      <trkpt lat="46.2288" lon="-0.87929">
        <ele>18.8</ele>
        <time>2020-05-31T16:03:57Z</time>
      </trkpt>
      <trkpt lat="46.22878" lon="-0.87931">
        <ele>18.8</ele>
        <time>2020-05-31T16:03:58Z</time>
      </trkpt>
      <trkpt lat="46.22874" lon="-0.87932">
        <ele>18.9</ele>
        <time>2020-05-31T16:03:59Z</time>
      </trkpt>
      <trkpt lat="46.22869" lon="-0.8793">
        <ele>18.9</ele>
        <time>2020-05-31T16:04:00Z</time>
      </trkpt>
      <trkpt lat="46.22865" lon="-0.87928">
        <ele>18.9</ele>
        <time>2020-05-31T16:04:01Z</time>
      </trkpt>
      <trkpt lat="46.22862" lon="-0.87926">
        <ele>19</ele>
        <time>2020-05-31T16:04:02Z</time>
      </trkpt>
      <trkpt lat="46.22857" lon="-0.87924">
        <ele>19.1</ele>
        <time>2020-05-31T16:04:03Z</time>
      </trkpt>
      <trkpt lat="46.22853" lon="-0.87922">
        <ele>19.2</ele>
        <time>2020-05-31T16:04:04Z</time>
      </trkpt>
      <trkpt lat="46.22848" lon="-0.87919">
        <ele>19.3</ele>
        <time>2020-05-31T16:04:05Z</time>
      </trkpt>
      <trkpt lat="46.22844" lon="-0.87917">
        <ele>19.4</ele>
        <time>2020-05-31T16:04:06Z</time>
      </trkpt>
      <trkpt lat="46.2284" lon="-0.87914">
        <ele>19.5</ele>
        <time>2020-05-31T16:04:07Z</time>
      </trkpt>
      <trkpt lat="46.22836" lon="-0.87913">
        <ele>19.5</ele>
        <time>2020-05-31T16:04:08Z</time>
      </trkpt>
      <trkpt lat="46.22832" lon="-0.87909">
        <ele>19.7</ele>
        <time>2020-05-31T16:04:09Z</time>
      </trkpt>
      <trkpt lat="46.22828" lon="-0.87907">
        <ele>19.8</ele>
        <time>2020-05-31T16:04:10Z</time>
      </trkpt>
      <trkpt lat="46.22824" lon="-0.87905">
        <ele>19.9</ele>
        <time>2020-05-31T16:04:11Z</time>
      </trkpt>
      <trkpt lat="46.2282" lon="-0.87902">
        <ele>20</ele>
        <time>2020-05-31T16:04:12Z</time>
      </trkpt>
      <trkpt lat="46.22816" lon="-0.87901">
        <ele>20.1</ele>
        <time>2020-05-31T16:04:13Z</time>
      </trkpt>
      <trkpt lat="46.22812" lon="-0.87899">
        <ele>20.2</ele>
        <time>2020-05-31T16:04:14Z</time>
      </trkpt>
      <trkpt lat="46.22808" lon="-0.87897">
        <ele>20.4</ele>
        <time>2020-05-31T16:04:15Z</time>
      </trkpt>
      <trkpt lat="46.22805" lon="-0.87894">
        <ele>20.5</ele>
        <time>2020-05-31T16:04:16Z</time>
      </trkpt>
      <trkpt lat="46.22801" lon="-0.87891">
        <ele>20.6</ele>
        <time>2020-05-31T16:04:17Z</time>
      </trkpt>
      <trkpt lat="46.22796" lon="-0.87889">
        <ele>20.8</ele>
        <time>2020-05-31T16:04:18Z</time>
      </trkpt>
      <trkpt lat="46.22791" lon="-0.87887">
        <ele>20.9</ele>
        <time>2020-05-31T16:04:19Z</time>
      </trkpt>
      <trkpt lat="46.22787" lon="-0.87884">
        <ele>21</ele>
        <time>2020-05-31T16:04:20Z</time>
      </trkpt>
      <trkpt lat="46.22783" lon="-0.87882">
        <ele>21.1</ele>
        <time>2020-05-31T16:04:21Z</time>
      </trkpt>
      <trkpt lat="46.22778" lon="-0.87879">
        <ele>21.3</ele>
        <time>2020-05-31T16:04:22Z</time>
      </trkpt>
      <trkpt lat="46.22774" lon="-0.87877">
        <ele>21.4</ele>
        <time>2020-05-31T16:04:23Z</time>
      </trkpt>
      <trkpt lat="46.22769" lon="-0.87874">
        <ele>21.5</ele>
        <time>2020-05-31T16:04:24Z</time>
      </trkpt>
      <trkpt lat="46.22765" lon="-0.87871">
        <ele>21.7</ele>
        <time>2020-05-31T16:04:25Z</time>
      </trkpt>
      <trkpt lat="46.22761" lon="-0.87869">
        <ele>21.8</ele>
        <time>2020-05-31T16:04:26Z</time>
      </trkpt>
      <trkpt lat="46.22756" lon="-0.87867">
        <ele>22</ele>
        <time>2020-05-31T16:04:27Z</time>
      </trkpt>
      <trkpt lat="46.22753" lon="-0.87864">
        <ele>22.1</ele>
        <time>2020-05-31T16:04:28Z</time>
      </trkpt>
      <trkpt lat="46.22748" lon="-0.87862">
        <ele>22.2</ele>
        <time>2020-05-31T16:04:29Z</time>
      </trkpt>
      <trkpt lat="46.22745" lon="-0.8786">
        <ele>22.4</ele>
        <time>2020-05-31T16:04:30Z</time>
      </trkpt>
      <trkpt lat="46.22741" lon="-0.87857">
        <ele>22.5</ele>
        <time>2020-05-31T16:04:31Z</time>
      </trkpt>
      <trkpt lat="46.22738" lon="-0.87855">
        <ele>22.6</ele>
        <time>2020-05-31T16:04:32Z</time>
      </trkpt>
      <trkpt lat="46.22734" lon="-0.87854">
        <ele>22.7</ele>
        <time>2020-05-31T16:04:33Z</time>
      </trkpt>
      <trkpt lat="46.22731" lon="-0.87852">
        <ele>22.8</ele>
        <time>2020-05-31T16:04:34Z</time>
      </trkpt>
      <trkpt lat="46.22727" lon="-0.8785">
        <ele>22.9</ele>
        <time>2020-05-31T16:04:35Z</time>
      </trkpt>
      <trkpt lat="46.22724" lon="-0.87847">
        <ele>23</ele>
        <time>2020-05-31T16:04:36Z</time>
      </trkpt>
      <trkpt lat="46.2272" lon="-0.87846">
        <ele>23.1</ele>
        <time>2020-05-31T16:04:37Z</time>
      </trkpt>
      <trkpt lat="46.22715" lon="-0.87844">
        <ele>23.1</ele>
        <time>2020-05-31T16:04:38Z</time>
      </trkpt>
      <trkpt lat="46.22711" lon="-0.87842">
        <ele>23.2</ele>
        <time>2020-05-31T16:04:39Z</time>
      </trkpt>
      <trkpt lat="46.22707" lon="-0.87841">
        <ele>23.2</ele>
        <time>2020-05-31T16:04:40Z</time>
      </trkpt>
      <trkpt lat="46.22703" lon="-0.87841">
        <ele>23.2</ele>
        <time>2020-05-31T16:04:41Z</time>
      </trkpt>
      <trkpt lat="46.22699" lon="-0.87839">
        <ele>23.2</ele>
        <time>2020-05-31T16:04:42Z</time>
      </trkpt>
      <trkpt lat="46.22694" lon="-0.87839">
        <ele>23.2</ele>
        <time>2020-05-31T16:04:43Z</time>
      </trkpt>
      <trkpt lat="46.22689" lon="-0.87839">
        <ele>23.2</ele>
        <time>2020-05-31T16:04:44Z</time>
      </trkpt>
      <trkpt lat="46.22684" lon="-0.87839">
        <ele>23.2</ele>
        <time>2020-05-31T16:04:45Z</time>
      </trkpt>
      <trkpt lat="46.22679" lon="-0.87837">
        <ele>23.2</ele>
        <time>2020-05-31T16:04:46Z</time>
      </trkpt>
      <trkpt lat="46.22674" lon="-0.87837">
        <ele>23.2</ele>
        <time>2020-05-31T16:04:47Z</time>
      </trkpt>
      <trkpt lat="46.2267" lon="-0.87838">
        <ele>23.2</ele>
        <time>2020-05-31T16:04:48Z</time>
      </trkpt>
      <trkpt lat="46.22665" lon="-0.87838">
        <ele>23.2</ele>
        <time>2020-05-31T16:04:49Z</time>
      </trkpt>
      <trkpt lat="46.2266" lon="-0.87839">
        <ele>23.2</ele>
        <time>2020-05-31T16:04:50Z</time>
      </trkpt>
      <trkpt lat="46.22655" lon="-0.87841">
        <ele>23.2</ele>
        <time>2020-05-31T16:04:51Z</time>
      </trkpt>
      <trkpt lat="46.2265" lon="-0.87842">
        <ele>23.2</ele>
        <time>2020-05-31T16:04:52Z</time>
      </trkpt>
      <trkpt lat="46.22645" lon="-0.87844">
        <ele>23.2</ele>
        <time>2020-05-31T16:04:53Z</time>
      </trkpt>
      <trkpt lat="46.22638" lon="-0.87846">
        <ele>23.1</ele>
        <time>2020-05-31T16:04:54Z</time>
      </trkpt>
      <trkpt lat="46.22632" lon="-0.87848">
        <ele>23</ele>
        <time>2020-05-31T16:04:55Z</time>
      </trkpt>
      <trkpt lat="46.22627" lon="-0.87851">
        <ele>22.9</ele>
        <time>2020-05-31T16:04:56Z</time>
      </trkpt>
      <trkpt lat="46.22621" lon="-0.87854">
        <ele>22.8</ele>
        <time>2020-05-31T16:04:57Z</time>
      </trkpt>
      <trkpt lat="46.22616" lon="-0.87856">
        <ele>22.7</ele>
        <time>2020-05-31T16:04:58Z</time>
      </trkpt>
      <trkpt lat="46.22609" lon="-0.8786">
        <ele>22.5</ele>
        <time>2020-05-31T16:04:59Z</time>
      </trkpt>
      <trkpt lat="46.22603" lon="-0.87864">
        <ele>22.4</ele>
        <time>2020-05-31T16:05:00Z</time>
      </trkpt>
      <trkpt lat="46.22597" lon="-0.87868">
        <ele>22.2</ele>
        <time>2020-05-31T16:05:01Z</time>
      </trkpt>
      <trkpt lat="46.22591" lon="-0.87872">
        <ele>22</ele>
        <time>2020-05-31T16:05:02Z</time>
      </trkpt>
      <trkpt lat="46.22584" lon="-0.87876">
        <ele>21.8</ele>
        <time>2020-05-31T16:05:03Z</time>
      </trkpt>
      <trkpt lat="46.22577" lon="-0.8788">
        <ele>21.6</ele>
        <time>2020-05-31T16:05:04Z</time>
      </trkpt>
      <trkpt lat="46.22572" lon="-0.87884">
        <ele>21.4</ele>
        <time>2020-05-31T16:05:05Z</time>
      </trkpt>
      <trkpt lat="46.22564" lon="-0.87888">
        <ele>21.2</ele>
        <time>2020-05-31T16:05:06Z</time>
      </trkpt>
      <trkpt lat="46.22557" lon="-0.87893">
        <ele>21</ele>
        <time>2020-05-31T16:05:07Z</time>
      </trkpt>
      <trkpt lat="46.2255" lon="-0.87897">
        <ele>20.8</ele>
        <time>2020-05-31T16:05:08Z</time>
      </trkpt>
      <trkpt lat="46.22543" lon="-0.87901">
        <ele>20.7</ele>
        <time>2020-05-31T16:05:09Z</time>
      </trkpt>
      <trkpt lat="46.22535" lon="-0.87904">
        <ele>20.1</ele>
        <time>2020-05-31T16:05:10Z</time>
      </trkpt>
      <trkpt lat="46.22527" lon="-0.87905">
        <ele>19.6</ele>
        <time>2020-05-31T16:05:11Z</time>
      </trkpt>
      <trkpt lat="46.22518" lon="-0.87906">
        <ele>19.1</ele>
        <time>2020-05-31T16:05:12Z</time>
      </trkpt>
      <trkpt lat="46.2251" lon="-0.87907">
        <ele>18.7</ele>
        <time>2020-05-31T16:05:13Z</time>
      </trkpt>
      <trkpt lat="46.22502" lon="-0.87909">
        <ele>18.6</ele>
        <time>2020-05-31T16:05:14Z</time>
      </trkpt>
      <trkpt lat="46.22494" lon="-0.8791">
        <ele>18.5</ele>
        <time>2020-05-31T16:05:15Z</time>
      </trkpt>
      <trkpt lat="46.22487" lon="-0.8791">
        <ele>18.5</ele>
        <time>2020-05-31T16:05:16Z</time>
      </trkpt>
      <trkpt lat="46.22479" lon="-0.87911">
        <ele>18.4</ele>
        <time>2020-05-31T16:05:17Z</time>
      </trkpt>
      <trkpt lat="46.22472" lon="-0.8791">
        <ele>18.3</ele>
        <time>2020-05-31T16:05:18Z</time>
      </trkpt>
      <trkpt lat="46.22465" lon="-0.87909">
        <ele>18.2</ele>
        <time>2020-05-31T16:05:19Z</time>
      </trkpt>
      <trkpt lat="46.22457" lon="-0.87908">
        <ele>18.2</ele>
        <time>2020-05-31T16:05:20Z</time>
      </trkpt>
      <trkpt lat="46.22451" lon="-0.87906">
        <ele>18.1</ele>
        <time>2020-05-31T16:05:21Z</time>
      </trkpt>
      <trkpt lat="46.22444" lon="-0.87904">
        <ele>18</ele>
        <time>2020-05-31T16:05:22Z</time>
      </trkpt>
      <trkpt lat="46.22437" lon="-0.87902">
        <ele>17.9</ele>
        <time>2020-05-31T16:05:23Z</time>
      </trkpt>
      <trkpt lat="46.22431" lon="-0.87899">
        <ele>17.8</ele>
        <time>2020-05-31T16:05:24Z</time>
      </trkpt>
      <trkpt lat="46.22425" lon="-0.87896">
        <ele>17.7</ele>
        <time>2020-05-31T16:05:25Z</time>
      </trkpt>
      <trkpt lat="46.22419" lon="-0.87893">
        <ele>17.6</ele>
        <time>2020-05-31T16:05:26Z</time>
      </trkpt>
      <trkpt lat="46.22413" lon="-0.87889">
        <ele>17.6</ele>
        <time>2020-05-31T16:05:27Z</time>
      </trkpt>
      <trkpt lat="46.22408" lon="-0.87884">
        <ele>17.5</ele>
        <time>2020-05-31T16:05:28Z</time>
      </trkpt>
      <trkpt lat="46.22402" lon="-0.8788">
        <ele>17.5</ele>
        <time>2020-05-31T16:05:29Z</time>
      </trkpt>
      <trkpt lat="46.22397" lon="-0.87876">
        <ele>17.4</ele>
        <time>2020-05-31T16:05:30Z</time>
      </trkpt>
      <trkpt lat="46.22392" lon="-0.87872">
        <ele>17.4</ele>
        <time>2020-05-31T16:05:31Z</time>
      </trkpt>
      <trkpt lat="46.22386" lon="-0.87867">
        <ele>17.3</ele>
        <time>2020-05-31T16:05:32Z</time>
      </trkpt>
      <trkpt lat="46.22381" lon="-0.87863">
        <ele>17.3</ele>
        <time>2020-05-31T16:05:33Z</time>
      </trkpt>
      <trkpt lat="46.22376" lon="-0.87859">
        <ele>17.2</ele>
        <time>2020-05-31T16:05:34Z</time>
      </trkpt>
      <trkpt lat="46.22371" lon="-0.87854">
        <ele>17.1</ele>
        <time>2020-05-31T16:05:35Z</time>
      </trkpt>
      <trkpt lat="46.22366" lon="-0.8785">
        <ele>17</ele>
        <time>2020-05-31T16:05:36Z</time>
      </trkpt>
      <trkpt lat="46.22361" lon="-0.87846">
        <ele>16.9</ele>
        <time>2020-05-31T16:05:37Z</time>
      </trkpt>
      <trkpt lat="46.22357" lon="-0.87843">
        <ele>16.8</ele>
        <time>2020-05-31T16:05:38Z</time>
      </trkpt>
      <trkpt lat="46.22352" lon="-0.87839">
        <ele>16.7</ele>
        <time>2020-05-31T16:05:39Z</time>
      </trkpt>
      <trkpt lat="46.22348" lon="-0.87836">
        <ele>16.7</ele>
        <time>2020-05-31T16:05:40Z</time>
      </trkpt>
      <trkpt lat="46.22343" lon="-0.87832">
        <ele>16.7</ele>
        <time>2020-05-31T16:05:41Z</time>
      </trkpt>
      <trkpt lat="46.22339" lon="-0.87829">
        <ele>16.7</ele>
        <time>2020-05-31T16:05:42Z</time>
      </trkpt>
      <trkpt lat="46.22335" lon="-0.87825">
        <ele>16.7</ele>
        <time>2020-05-31T16:05:43Z</time>
      </trkpt>
      <trkpt lat="46.22331" lon="-0.87823">
        <ele>16.8</ele>
        <time>2020-05-31T16:05:44Z</time>
      </trkpt>
      <trkpt lat="46.22327" lon="-0.8782">
        <ele>16.8</ele>
        <time>2020-05-31T16:05:45Z</time>
      </trkpt>
      <trkpt lat="46.22322" lon="-0.87818">
        <ele>16.8</ele>
        <time>2020-05-31T16:05:46Z</time>
      </trkpt>
      <trkpt lat="46.22318" lon="-0.87816">
        <ele>16.8</ele>
        <time>2020-05-31T16:05:47Z</time>
      </trkpt>
      <trkpt lat="46.22313" lon="-0.87813">
        <ele>16.8</ele>
        <time>2020-05-31T16:05:48Z</time>
      </trkpt>
      <trkpt lat="46.22309" lon="-0.8781">
        <ele>16.7</ele>
        <time>2020-05-31T16:05:49Z</time>
      </trkpt>
      <trkpt lat="46.22305" lon="-0.87808">
        <ele>16.7</ele>
        <time>2020-05-31T16:05:50Z</time>
      </trkpt>
      <trkpt lat="46.223" lon="-0.87807">
        <ele>16.7</ele>
        <time>2020-05-31T16:05:51Z</time>
      </trkpt>
      <trkpt lat="46.22296" lon="-0.87804">
        <ele>16.7</ele>
        <time>2020-05-31T16:05:52Z</time>
      </trkpt>
      <trkpt lat="46.22292" lon="-0.87802">
        <ele>16.7</ele>
        <time>2020-05-31T16:05:53Z</time>
      </trkpt>
      <trkpt lat="46.22288" lon="-0.87801">
        <ele>16.7</ele>
        <time>2020-05-31T16:05:54Z</time>
      </trkpt>
      <trkpt lat="46.22284" lon="-0.87799">
        <ele>16.7</ele>
        <time>2020-05-31T16:05:55Z</time>
      </trkpt>
      <trkpt lat="46.22279" lon="-0.87798">
        <ele>16.6</ele>
        <time>2020-05-31T16:05:56Z</time>
      </trkpt>
      <trkpt lat="46.22274" lon="-0.87796">
        <ele>16.6</ele>
        <time>2020-05-31T16:05:57Z</time>
      </trkpt>
      <trkpt lat="46.2227" lon="-0.87794">
        <ele>16.6</ele>
        <time>2020-05-31T16:05:58Z</time>
      </trkpt>
      <trkpt lat="46.22264" lon="-0.87792">
        <ele>16.6</ele>
        <time>2020-05-31T16:05:59Z</time>
      </trkpt>
      <trkpt lat="46.22259" lon="-0.8779">
        <ele>16.5</ele>
        <time>2020-05-31T16:06:00Z</time>
      </trkpt>
      <trkpt lat="46.22254" lon="-0.87788">
        <ele>16.5</ele>
        <time>2020-05-31T16:06:01Z</time>
      </trkpt>
      <trkpt lat="46.22248" lon="-0.87786">
        <ele>16.4</ele>
        <time>2020-05-31T16:06:02Z</time>
      </trkpt>
      <trkpt lat="46.22243" lon="-0.87785">
        <ele>16.4</ele>
        <time>2020-05-31T16:06:03Z</time>
      </trkpt>
      <trkpt lat="46.22237" lon="-0.87783">
        <ele>16.3</ele>
        <time>2020-05-31T16:06:04Z</time>
      </trkpt>
      <trkpt lat="46.22232" lon="-0.87781">
        <ele>16.3</ele>
        <time>2020-05-31T16:06:05Z</time>
      </trkpt>
      <trkpt lat="46.22226" lon="-0.8778">
        <ele>16.2</ele>
        <time>2020-05-31T16:06:06Z</time>
      </trkpt>
      <trkpt lat="46.2222" lon="-0.87778">
        <ele>16.2</ele>
        <time>2020-05-31T16:06:07Z</time>
      </trkpt>
      <trkpt lat="46.22214" lon="-0.87776">
        <ele>16.2</ele>
        <time>2020-05-31T16:06:08Z</time>
      </trkpt>
      <trkpt lat="46.22208" lon="-0.87774">
        <ele>16.2</ele>
        <time>2020-05-31T16:06:09Z</time>
      </trkpt>
      <trkpt lat="46.22202" lon="-0.87772">
        <ele>16.1</ele>
        <time>2020-05-31T16:06:10Z</time>
      </trkpt>
      <trkpt lat="46.22196" lon="-0.8777">
        <ele>16.1</ele>
        <time>2020-05-31T16:06:11Z</time>
      </trkpt>
      <trkpt lat="46.2219" lon="-0.87767">
        <ele>16.1</ele>
        <time>2020-05-31T16:06:12Z</time>
      </trkpt>
      <trkpt lat="46.22184" lon="-0.87765">
        <ele>16</ele>
        <time>2020-05-31T16:06:13Z</time>
      </trkpt>
      <trkpt lat="46.22177" lon="-0.87764">
        <ele>15.9</ele>
        <time>2020-05-31T16:06:14Z</time>
      </trkpt>
      <trkpt lat="46.22171" lon="-0.87761">
        <ele>15.9</ele>
        <time>2020-05-31T16:06:15Z</time>
      </trkpt>
      <trkpt lat="46.22164" lon="-0.87759">
        <ele>15.8</ele>
        <time>2020-05-31T16:06:16Z</time>
      </trkpt>
      <trkpt lat="46.22158" lon="-0.87757">
        <ele>15.7</ele>
        <time>2020-05-31T16:06:17Z</time>
      </trkpt>
      <trkpt lat="46.22152" lon="-0.87755">
        <ele>15.7</ele>
        <time>2020-05-31T16:06:18Z</time>
      </trkpt>
      <trkpt lat="46.22145" lon="-0.87753">
        <ele>15.6</ele>
        <time>2020-05-31T16:06:19Z</time>
      </trkpt>
      <trkpt lat="46.22139" lon="-0.87751">
        <ele>15.6</ele>
        <time>2020-05-31T16:06:20Z</time>
      </trkpt>
      <trkpt lat="46.22132" lon="-0.87749">
        <ele>15.6</ele>
        <time>2020-05-31T16:06:21Z</time>
      </trkpt>
      <trkpt lat="46.22126" lon="-0.87746">
        <ele>15.6</ele>
        <time>2020-05-31T16:06:22Z</time>
      </trkpt>
      <trkpt lat="46.22119" lon="-0.87744">
        <ele>15.6</ele>
        <time>2020-05-31T16:06:23Z</time>
      </trkpt>
      <trkpt lat="46.22113" lon="-0.87742">
        <ele>15.6</ele>
        <time>2020-05-31T16:06:24Z</time>
      </trkpt>
      <trkpt lat="46.22107" lon="-0.8774">
        <ele>15.6</ele>
        <time>2020-05-31T16:06:25Z</time>
      </trkpt>
      <trkpt lat="46.221" lon="-0.87738">
        <ele>15.6</ele>
        <time>2020-05-31T16:06:26Z</time>
      </trkpt>
      <trkpt lat="46.22094" lon="-0.87736">
        <ele>15.5</ele>
        <time>2020-05-31T16:06:27Z</time>
      </trkpt>
      <trkpt lat="46.22088" lon="-0.87734">
        <ele>15.4</ele>
        <time>2020-05-31T16:06:28Z</time>
      </trkpt>
      <trkpt lat="46.22082" lon="-0.87732">
        <ele>15.3</ele>
        <time>2020-05-31T16:06:29Z</time>
      </trkpt>
      <trkpt lat="46.22076" lon="-0.87729">
        <ele>15.2</ele>
        <time>2020-05-31T16:06:30Z</time>
      </trkpt>
      <trkpt lat="46.2207" lon="-0.87727">
        <ele>15</ele>
        <time>2020-05-31T16:06:31Z</time>
      </trkpt>
      <trkpt lat="46.22064" lon="-0.87725">
        <ele>14.9</ele>
        <time>2020-05-31T16:06:32Z</time>
      </trkpt>
      <trkpt lat="46.22058" lon="-0.87723">
        <ele>14.9</ele>
        <time>2020-05-31T16:06:33Z</time>
      </trkpt>
      <trkpt lat="46.22052" lon="-0.87721">
        <ele>14.9</ele>
        <time>2020-05-31T16:06:34Z</time>
      </trkpt>
      <trkpt lat="46.22046" lon="-0.87719">
        <ele>14.9</ele>
        <time>2020-05-31T16:06:35Z</time>
      </trkpt>
      <trkpt lat="46.2204" lon="-0.87717">
        <ele>14.9</ele>
        <time>2020-05-31T16:06:36Z</time>
      </trkpt>
      <trkpt lat="46.22034" lon="-0.87714">
        <ele>14.9</ele>
        <time>2020-05-31T16:06:37Z</time>
      </trkpt>
      <trkpt lat="46.22029" lon="-0.87712">
        <ele>14.8</ele>
        <time>2020-05-31T16:06:38Z</time>
      </trkpt>
      <trkpt lat="46.22023" lon="-0.8771">
        <ele>14.7</ele>
        <time>2020-05-31T16:06:39Z</time>
      </trkpt>
      <trkpt lat="46.22017" lon="-0.87708">
        <ele>14.6</ele>
        <time>2020-05-31T16:06:40Z</time>
      </trkpt>
      <trkpt lat="46.22011" lon="-0.87706">
        <ele>14.5</ele>
        <time>2020-05-31T16:06:41Z</time>
      </trkpt>
      <trkpt lat="46.22005" lon="-0.87704">
        <ele>14.4</ele>
        <time>2020-05-31T16:06:42Z</time>
      </trkpt>
      <trkpt lat="46.21999" lon="-0.87702">
        <ele>14.3</ele>
        <time>2020-05-31T16:06:43Z</time>
      </trkpt>
      <trkpt lat="46.21992" lon="-0.877">
        <ele>14.2</ele>
        <time>2020-05-31T16:06:44Z</time>
      </trkpt>
      <trkpt lat="46.21986" lon="-0.87698">
        <ele>14.1</ele>
        <time>2020-05-31T16:06:45Z</time>
      </trkpt>
      <trkpt lat="46.21979" lon="-0.87696">
        <ele>14</ele>
        <time>2020-05-31T16:06:46Z</time>
      </trkpt>
      <trkpt lat="46.21972" lon="-0.87695">
        <ele>13.9</ele>
        <time>2020-05-31T16:06:47Z</time>
      </trkpt>
      <trkpt lat="46.21965" lon="-0.87693">
        <ele>13.8</ele>
        <time>2020-05-31T16:06:48Z</time>
      </trkpt>
      <trkpt lat="46.21959" lon="-0.87691">
        <ele>13.7</ele>
        <time>2020-05-31T16:06:49Z</time>
      </trkpt>
      <trkpt lat="46.21952" lon="-0.87689">
        <ele>13.6</ele>
        <time>2020-05-31T16:06:50Z</time>
      </trkpt>
      <trkpt lat="46.21945" lon="-0.87687">
        <ele>13.5</ele>
        <time>2020-05-31T16:06:51Z</time>
      </trkpt>
      <trkpt lat="46.21939" lon="-0.87685">
        <ele>13.4</ele>
        <time>2020-05-31T16:06:52Z</time>
      </trkpt>
      <trkpt lat="46.21932" lon="-0.87682">
        <ele>13.2</ele>
        <time>2020-05-31T16:06:53Z</time>
      </trkpt>
      <trkpt lat="46.21926" lon="-0.8768">
        <ele>13.1</ele>
        <time>2020-05-31T16:06:54Z</time>
      </trkpt>
      <trkpt lat="46.21919" lon="-0.87677">
        <ele>12.9</ele>
        <time>2020-05-31T16:06:55Z</time>
      </trkpt>
      <trkpt lat="46.21913" lon="-0.87675">
        <ele>12.8</ele>
        <time>2020-05-31T16:06:56Z</time>
      </trkpt>
      <trkpt lat="46.21907" lon="-0.87674">
        <ele>12.7</ele>
        <time>2020-05-31T16:06:57Z</time>
      </trkpt>
      <trkpt lat="46.219" lon="-0.87671">
        <ele>12.7</ele>
        <time>2020-05-31T16:06:58Z</time>
      </trkpt>
      <trkpt lat="46.21894" lon="-0.87669">
        <ele>12.6</ele>
        <time>2020-05-31T16:06:59Z</time>
      </trkpt>
      <trkpt lat="46.21888" lon="-0.87667">
        <ele>12.6</ele>
        <time>2020-05-31T16:07:00Z</time>
      </trkpt>
      <trkpt lat="46.21882" lon="-0.87665">
        <ele>12.6</ele>
        <time>2020-05-31T16:07:01Z</time>
      </trkpt>
      <trkpt lat="46.21876" lon="-0.87663">
        <ele>12.6</ele>
        <time>2020-05-31T16:07:02Z</time>
      </trkpt>
      <trkpt lat="46.2187" lon="-0.87661">
        <ele>12.6</ele>
        <time>2020-05-31T16:07:03Z</time>
      </trkpt>
      <trkpt lat="46.21865" lon="-0.8766">
        <ele>12.6</ele>
        <time>2020-05-31T16:07:04Z</time>
      </trkpt>
      <trkpt lat="46.21859" lon="-0.87658">
        <ele>12.6</ele>
        <time>2020-05-31T16:07:05Z</time>
      </trkpt>
      <trkpt lat="46.21854" lon="-0.87657">
        <ele>12.6</ele>
        <time>2020-05-31T16:07:06Z</time>
      </trkpt>
      <trkpt lat="46.21849" lon="-0.87656">
        <ele>12.5</ele>
        <time>2020-05-31T16:07:07Z</time>
      </trkpt>
      <trkpt lat="46.21844" lon="-0.87654">
        <ele>12.5</ele>
        <time>2020-05-31T16:07:08Z</time>
      </trkpt>
      <trkpt lat="46.21839" lon="-0.87653">
        <ele>12.5</ele>
        <time>2020-05-31T16:07:09Z</time>
      </trkpt>
      <trkpt lat="46.21834" lon="-0.87652">
        <ele>12.5</ele>
        <time>2020-05-31T16:07:10Z</time>
      </trkpt>
      <trkpt lat="46.2183" lon="-0.8765">
        <ele>12.5</ele>
        <time>2020-05-31T16:07:11Z</time>
      </trkpt>
      <trkpt lat="46.21826" lon="-0.87651">
        <ele>12.5</ele>
        <time>2020-05-31T16:07:12Z</time>
      </trkpt>
      <trkpt lat="46.21823" lon="-0.87653">
        <ele>12.5</ele>
        <time>2020-05-31T16:07:13Z</time>
      </trkpt>
      <trkpt lat="46.21822" lon="-0.87658">
        <ele>12.4</ele>
        <time>2020-05-31T16:07:14Z</time>
      </trkpt>
      <trkpt lat="46.21822" lon="-0.87665">
        <ele>12.4</ele>
        <time>2020-05-31T16:07:15Z</time>
      </trkpt>
      <trkpt lat="46.21824" lon="-0.87671">
        <ele>12.4</ele>
        <time>2020-05-31T16:07:16Z</time>
      </trkpt>
      <trkpt lat="46.21824" lon="-0.87678">
        <ele>12.4</ele>
        <time>2020-05-31T16:07:17Z</time>
      </trkpt>
      <trkpt lat="46.21825" lon="-0.87686">
        <ele>12.4</ele>
        <time>2020-05-31T16:07:18Z</time>
      </trkpt>
      <trkpt lat="46.21827" lon="-0.87694">
        <ele>12.3</ele>
        <time>2020-05-31T16:07:19Z</time>
      </trkpt>
      <trkpt lat="46.21828" lon="-0.87701">
        <ele>12.3</ele>
        <time>2020-05-31T16:07:20Z</time>
      </trkpt>
      <trkpt lat="46.21829" lon="-0.87709">
        <ele>12.2</ele>
        <time>2020-05-31T16:07:21Z</time>
      </trkpt>
      <trkpt lat="46.2183" lon="-0.87718">
        <ele>12.2</ele>
        <time>2020-05-31T16:07:22Z</time>
      </trkpt>
      <trkpt lat="46.21831" lon="-0.87726">
        <ele>12.1</ele>
        <time>2020-05-31T16:07:23Z</time>
      </trkpt>
      <trkpt lat="46.21832" lon="-0.87734">
        <ele>12.1</ele>
        <time>2020-05-31T16:07:24Z</time>
      </trkpt>
      <trkpt lat="46.21833" lon="-0.87742">
        <ele>12</ele>
        <time>2020-05-31T16:07:25Z</time>
      </trkpt>
      <trkpt lat="46.21834" lon="-0.8775">
        <ele>12</ele>
        <time>2020-05-31T16:07:26Z</time>
      </trkpt>
      <trkpt lat="46.21834" lon="-0.87758">
        <ele>11.9</ele>
        <time>2020-05-31T16:07:27Z</time>
      </trkpt>
      <trkpt lat="46.21834" lon="-0.87766">
        <ele>11.9</ele>
        <time>2020-05-31T16:07:28Z</time>
      </trkpt>
      <trkpt lat="46.21835" lon="-0.87775">
        <ele>11.9</ele>
        <time>2020-05-31T16:07:29Z</time>
      </trkpt>
      <trkpt lat="46.21836" lon="-0.87783">
        <ele>11.9</ele>
        <time>2020-05-31T16:07:30Z</time>
      </trkpt>
      <trkpt lat="46.21836" lon="-0.87791">
        <ele>11.9</ele>
        <time>2020-05-31T16:07:31Z</time>
      </trkpt>
      <trkpt lat="46.21836" lon="-0.87798">
        <ele>12</ele>
        <time>2020-05-31T16:07:32Z</time>
      </trkpt>
      <trkpt lat="46.21836" lon="-0.87806">
        <ele>12</ele>
        <time>2020-05-31T16:07:33Z</time>
      </trkpt>
      <trkpt lat="46.21835" lon="-0.87814">
        <ele>12</ele>
        <time>2020-05-31T16:07:34Z</time>
      </trkpt>
      <trkpt lat="46.21835" lon="-0.87822">
        <ele>12</ele>
        <time>2020-05-31T16:07:35Z</time>
      </trkpt>
      <trkpt lat="46.21834" lon="-0.87829">
        <ele>12</ele>
        <time>2020-05-31T16:07:36Z</time>
      </trkpt>
      <trkpt lat="46.21833" lon="-0.87837">
        <ele>12</ele>
        <time>2020-05-31T16:07:37Z</time>
      </trkpt>
      <trkpt lat="46.21833" lon="-0.87844">
        <ele>12</ele>
        <time>2020-05-31T16:07:38Z</time>
      </trkpt>
      <trkpt lat="46.21832" lon="-0.87852">
        <ele>12</ele>
        <time>2020-05-31T16:07:39Z</time>
      </trkpt>
      <trkpt lat="46.21832" lon="-0.8786">
        <ele>12</ele>
        <time>2020-05-31T16:07:40Z</time>
      </trkpt>
      <trkpt lat="46.21831" lon="-0.87868">
        <ele>12</ele>
        <time>2020-05-31T16:07:41Z</time>
      </trkpt>
      <trkpt lat="46.2183" lon="-0.87877">
        <ele>12</ele>
        <time>2020-05-31T16:07:42Z</time>
      </trkpt>
      <trkpt lat="46.21829" lon="-0.87885">
        <ele>12</ele>
        <time>2020-05-31T16:07:43Z</time>
      </trkpt>
      <trkpt lat="46.21828" lon="-0.87893">
        <ele>12</ele>
        <time>2020-05-31T16:07:44Z</time>
      </trkpt>
      <trkpt lat="46.21828" lon="-0.87902">
        <ele>12</ele>
        <time>2020-05-31T16:07:45Z</time>
      </trkpt>
      <trkpt lat="46.21827" lon="-0.8791">
        <ele>12</ele>
        <time>2020-05-31T16:07:46Z</time>
      </trkpt>
      <trkpt lat="46.21827" lon="-0.87918">
        <ele>11.9</ele>
        <time>2020-05-31T16:07:47Z</time>
      </trkpt>
      <trkpt lat="46.21826" lon="-0.87926">
        <ele>11.9</ele>
        <time>2020-05-31T16:07:48Z</time>
      </trkpt>
      <trkpt lat="46.21826" lon="-0.87934">
        <ele>11.9</ele>
        <time>2020-05-31T16:07:49Z</time>
      </trkpt>
      <trkpt lat="46.21826" lon="-0.87943">
        <ele>11.8</ele>
        <time>2020-05-31T16:07:50Z</time>
      </trkpt>
      <trkpt lat="46.21826" lon="-0.87952">
        <ele>11.8</ele>
        <time>2020-05-31T16:07:51Z</time>
      </trkpt>
      <trkpt lat="46.21826" lon="-0.8796">
        <ele>11.8</ele>
        <time>2020-05-31T16:07:52Z</time>
      </trkpt>
      <trkpt lat="46.21826" lon="-0.87969">
        <ele>11.8</ele>
        <time>2020-05-31T16:07:53Z</time>
      </trkpt>
      <trkpt lat="46.21825" lon="-0.87978">
        <ele>11.8</ele>
        <time>2020-05-31T16:07:54Z</time>
      </trkpt>
      <trkpt lat="46.21825" lon="-0.87988">
        <ele>11.8</ele>
        <time>2020-05-31T16:07:55Z</time>
      </trkpt>
      <trkpt lat="46.21824" lon="-0.87997">
        <ele>11.7</ele>
        <time>2020-05-31T16:07:56Z</time>
      </trkpt>
      <trkpt lat="46.21824" lon="-0.88006">
        <ele>11.7</ele>
        <time>2020-05-31T16:07:57Z</time>
      </trkpt>
      <trkpt lat="46.21824" lon="-0.88015">
        <ele>11.7</ele>
        <time>2020-05-31T16:07:58Z</time>
      </trkpt>
      <trkpt lat="46.21824" lon="-0.88025">
        <ele>11.6</ele>
        <time>2020-05-31T16:07:59Z</time>
      </trkpt>
      <trkpt lat="46.21825" lon="-0.88034">
        <ele>11.6</ele>
        <time>2020-05-31T16:08:00Z</time>
      </trkpt>
      <trkpt lat="46.21825" lon="-0.88043">
        <ele>11.6</ele>
        <time>2020-05-31T16:08:01Z</time>
      </trkpt>
      <trkpt lat="46.21825" lon="-0.88052">
        <ele>11.6</ele>
        <time>2020-05-31T16:08:02Z</time>
      </trkpt>
      <trkpt lat="46.21825" lon="-0.88062">
        <ele>11.6</ele>
        <time>2020-05-31T16:08:03Z</time>
      </trkpt>
      <trkpt lat="46.21826" lon="-0.88071">
        <ele>11.6</ele>
        <time>2020-05-31T16:08:04Z</time>
      </trkpt>
      <trkpt lat="46.21827" lon="-0.8808">
        <ele>11.6</ele>
        <time>2020-05-31T16:08:05Z</time>
      </trkpt>
      <trkpt lat="46.21828" lon="-0.88089">
        <ele>11.7</ele>
        <time>2020-05-31T16:08:06Z</time>
      </trkpt>
      <trkpt lat="46.21828" lon="-0.88098">
        <ele>11.7</ele>
        <time>2020-05-31T16:08:07Z</time>
      </trkpt>
      <trkpt lat="46.2183" lon="-0.88106">
        <ele>11.7</ele>
        <time>2020-05-31T16:08:08Z</time>
      </trkpt>
      <trkpt lat="46.21831" lon="-0.88116">
        <ele>11.6</ele>
        <time>2020-05-31T16:08:09Z</time>
      </trkpt>
      <trkpt lat="46.21833" lon="-0.88125">
        <ele>11.6</ele>
        <time>2020-05-31T16:08:10Z</time>
      </trkpt>
      <trkpt lat="46.21834" lon="-0.88134">
        <ele>11.6</ele>
        <time>2020-05-31T16:08:11Z</time>
      </trkpt>
      <trkpt lat="46.21835" lon="-0.88143">
        <ele>11.6</ele>
        <time>2020-05-31T16:08:12Z</time>
      </trkpt>
      <trkpt lat="46.21836" lon="-0.88151">
        <ele>11.6</ele>
        <time>2020-05-31T16:08:13Z</time>
      </trkpt>
      <trkpt lat="46.21838" lon="-0.88159">
        <ele>11.6</ele>
        <time>2020-05-31T16:08:14Z</time>
      </trkpt>
      <trkpt lat="46.21839" lon="-0.88169">
        <ele>11.5</ele>
        <time>2020-05-31T16:08:15Z</time>
      </trkpt>
      <trkpt lat="46.21841" lon="-0.88177">
        <ele>11.5</ele>
        <time>2020-05-31T16:08:16Z</time>
      </trkpt>
      <trkpt lat="46.21843" lon="-0.88186">
        <ele>11.5</ele>
        <time>2020-05-31T16:08:17Z</time>
      </trkpt>
      <trkpt lat="46.21844" lon="-0.88194">
        <ele>11.5</ele>
        <time>2020-05-31T16:08:18Z</time>
      </trkpt>
      <trkpt lat="46.21846" lon="-0.88202">
        <ele>11.5</ele>
        <time>2020-05-31T16:08:19Z</time>
      </trkpt>
      <trkpt lat="46.21848" lon="-0.88209">
        <ele>11.5</ele>
        <time>2020-05-31T16:08:20Z</time>
      </trkpt>
      <trkpt lat="46.2185" lon="-0.88217">
        <ele>11.4</ele>
        <time>2020-05-31T16:08:21Z</time>
      </trkpt>
      <trkpt lat="46.21852" lon="-0.88225">
        <ele>11.4</ele>
        <time>2020-05-31T16:08:22Z</time>
      </trkpt>
      <trkpt lat="46.21854" lon="-0.88233">
        <ele>11.4</ele>
        <time>2020-05-31T16:08:23Z</time>
      </trkpt>
      <trkpt lat="46.21856" lon="-0.88242">
        <ele>11.4</ele>
        <time>2020-05-31T16:08:24Z</time>
      </trkpt>
      <trkpt lat="46.21859" lon="-0.88251">
        <ele>11.3</ele>
        <time>2020-05-31T16:08:25Z</time>
      </trkpt>
      <trkpt lat="46.21861" lon="-0.88259">
        <ele>11.3</ele>
        <time>2020-05-31T16:08:26Z</time>
      </trkpt>
      <trkpt lat="46.21863" lon="-0.88268">
        <ele>11.3</ele>
        <time>2020-05-31T16:08:27Z</time>
      </trkpt>
      <trkpt lat="46.21864" lon="-0.88276">
        <ele>11.3</ele>
        <time>2020-05-31T16:08:28Z</time>
      </trkpt>
      <trkpt lat="46.21865" lon="-0.88285">
        <ele>11.3</ele>
        <time>2020-05-31T16:08:29Z</time>
      </trkpt>
      <trkpt lat="46.21867" lon="-0.88294">
        <ele>11.3</ele>
        <time>2020-05-31T16:08:30Z</time>
      </trkpt>
      <trkpt lat="46.21869" lon="-0.88303">
        <ele>11.3</ele>
        <time>2020-05-31T16:08:31Z</time>
      </trkpt>
      <trkpt lat="46.21872" lon="-0.88313">
        <ele>11.2</ele>
        <time>2020-05-31T16:08:32Z</time>
      </trkpt>
      <trkpt lat="46.21873" lon="-0.88322">
        <ele>11.2</ele>
        <time>2020-05-31T16:08:33Z</time>
      </trkpt>
      <trkpt lat="46.21875" lon="-0.88331">
        <ele>11.2</ele>
        <time>2020-05-31T16:08:34Z</time>
      </trkpt>
      <trkpt lat="46.21877" lon="-0.8834">
        <ele>11.3</ele>
        <time>2020-05-31T16:08:35Z</time>
      </trkpt>
      <trkpt lat="46.21878" lon="-0.88349">
        <ele>11.3</ele>
        <time>2020-05-31T16:08:36Z</time>
      </trkpt>
      <trkpt lat="46.21879" lon="-0.88357">
        <ele>11.3</ele>
        <time>2020-05-31T16:08:37Z</time>
      </trkpt>
      <trkpt lat="46.21879" lon="-0.88366">
        <ele>11.3</ele>
        <time>2020-05-31T16:08:38Z</time>
      </trkpt>
      <trkpt lat="46.21881" lon="-0.88374">
        <ele>11.3</ele>
        <time>2020-05-31T16:08:39Z</time>
      </trkpt>
      <trkpt lat="46.21883" lon="-0.88382">
        <ele>11.3</ele>
        <time>2020-05-31T16:08:40Z</time>
      </trkpt>
      <trkpt lat="46.21883" lon="-0.8839">
        <ele>11.3</ele>
        <time>2020-05-31T16:08:41Z</time>
      </trkpt>
      <trkpt lat="46.21884" lon="-0.88398">
        <ele>11.3</ele>
        <time>2020-05-31T16:08:42Z</time>
      </trkpt>
      <trkpt lat="46.21884" lon="-0.88407">
        <ele>11.4</ele>
        <time>2020-05-31T16:08:43Z</time>
      </trkpt>
      <trkpt lat="46.21885" lon="-0.88415">
        <ele>11.4</ele>
        <time>2020-05-31T16:08:44Z</time>
      </trkpt>
      <trkpt lat="46.21886" lon="-0.88423">
        <ele>11.5</ele>
        <time>2020-05-31T16:08:45Z</time>
      </trkpt>
      <trkpt lat="46.21888" lon="-0.8843">
        <ele>11.5</ele>
        <time>2020-05-31T16:08:46Z</time>
      </trkpt>
      <trkpt lat="46.21889" lon="-0.88437">
        <ele>11.5</ele>
        <time>2020-05-31T16:08:47Z</time>
      </trkpt>
      <trkpt lat="46.2189" lon="-0.88445">
        <ele>11.5</ele>
        <time>2020-05-31T16:08:48Z</time>
      </trkpt>
      <trkpt lat="46.21892" lon="-0.88452">
        <ele>11.5</ele>
        <time>2020-05-31T16:08:49Z</time>
      </trkpt>
      <trkpt lat="46.21893" lon="-0.8846">
        <ele>11.5</ele>
        <time>2020-05-31T16:08:50Z</time>
      </trkpt>
      <trkpt lat="46.21894" lon="-0.88467">
        <ele>11.5</ele>
        <time>2020-05-31T16:08:51Z</time>
      </trkpt>
      <trkpt lat="46.21895" lon="-0.88474">
        <ele>11.5</ele>
        <time>2020-05-31T16:08:52Z</time>
      </trkpt>
      <trkpt lat="46.21895" lon="-0.88481">
        <ele>11.5</ele>
        <time>2020-05-31T16:08:53Z</time>
      </trkpt>
      <trkpt lat="46.21896" lon="-0.88488">
        <ele>11.5</ele>
        <time>2020-05-31T16:08:54Z</time>
      </trkpt>
      <trkpt lat="46.21895" lon="-0.88496">
        <ele>11.5</ele>
        <time>2020-05-31T16:08:55Z</time>
      </trkpt>
      <trkpt lat="46.21894" lon="-0.88503">
        <ele>11.5</ele>
        <time>2020-05-31T16:08:56Z</time>
      </trkpt>
      <trkpt lat="46.21894" lon="-0.8851">
        <ele>11.5</ele>
        <time>2020-05-31T16:08:57Z</time>
      </trkpt>
      <trkpt lat="46.21894" lon="-0.88516">
        <ele>11.5</ele>
        <time>2020-05-31T16:08:58Z</time>
      </trkpt>
      <trkpt lat="46.21894" lon="-0.88523">
        <ele>11.6</ele>
        <time>2020-05-31T16:08:59Z</time>
      </trkpt>
      <trkpt lat="46.21894" lon="-0.88529">
        <ele>11.6</ele>
        <time>2020-05-31T16:09:00Z</time>
      </trkpt>
      <trkpt lat="46.21894" lon="-0.88534">
        <ele>11.6</ele>
        <time>2020-05-31T16:09:01Z</time>
      </trkpt>
      <trkpt lat="46.21896" lon="-0.88539">
        <ele>11.6</ele>
        <time>2020-05-31T16:09:02Z</time>
      </trkpt>
      <trkpt lat="46.21897" lon="-0.88542">
        <ele>11.6</ele>
        <time>2020-05-31T16:09:03Z</time>
      </trkpt>
      <trkpt lat="46.21896" lon="-0.88547">
        <ele>11.6</ele>
        <time>2020-05-31T16:09:04Z</time>
      </trkpt>
      <trkpt lat="46.21895" lon="-0.88548">
        <ele>11.7</ele>
        <time>2020-05-31T16:09:05Z</time>
      </trkpt>
      <trkpt lat="46.21892" lon="-0.88549">
        <ele>11.7</ele>
        <time>2020-05-31T16:09:06Z</time>
      </trkpt>
      <trkpt lat="46.21889" lon="-0.88551">
        <ele>11.7</ele>
        <time>2020-05-31T16:09:07Z</time>
      </trkpt>
      <trkpt lat="46.21887" lon="-0.88554">
        <ele>11.6</ele>
        <time>2020-05-31T16:09:08Z</time>
      </trkpt>
      <trkpt lat="46.21884" lon="-0.88556">
        <ele>11.6</ele>
        <time>2020-05-31T16:09:09Z</time>
      </trkpt>
      <trkpt lat="46.2188" lon="-0.88558">
        <ele>11.6</ele>
        <time>2020-05-31T16:09:10Z</time>
      </trkpt>
      <trkpt lat="46.21877" lon="-0.88562">
        <ele>11.6</ele>
        <time>2020-05-31T16:09:11Z</time>
      </trkpt>
      <trkpt lat="46.21874" lon="-0.88565">
        <ele>11.5</ele>
        <time>2020-05-31T16:09:12Z</time>
      </trkpt>
      <trkpt lat="46.2187" lon="-0.88567">
        <ele>11.5</ele>
        <time>2020-05-31T16:09:13Z</time>
      </trkpt>
      <trkpt lat="46.21868" lon="-0.88573">
        <ele>11.5</ele>
        <time>2020-05-31T16:09:14Z</time>
      </trkpt>
      <trkpt lat="46.21865" lon="-0.88577">
        <ele>11.5</ele>
        <time>2020-05-31T16:09:15Z</time>
      </trkpt>
      <trkpt lat="46.21863" lon="-0.88582">
        <ele>11.4</ele>
        <time>2020-05-31T16:09:16Z</time>
      </trkpt>
      <trkpt lat="46.21859" lon="-0.88586">
        <ele>11.4</ele>
        <time>2020-05-31T16:09:17Z</time>
      </trkpt>
      <trkpt lat="46.21856" lon="-0.88589">
        <ele>11.4</ele>
        <time>2020-05-31T16:09:18Z</time>
      </trkpt>
      <trkpt lat="46.21853" lon="-0.88593">
        <ele>11.4</ele>
        <time>2020-05-31T16:09:19Z</time>
      </trkpt>
      <trkpt lat="46.2185" lon="-0.88596">
        <ele>11.4</ele>
        <time>2020-05-31T16:09:20Z</time>
      </trkpt>
      <trkpt lat="46.21848" lon="-0.88599">
        <ele>11.4</ele>
        <time>2020-05-31T16:09:21Z</time>
      </trkpt>
      <trkpt lat="46.21844" lon="-0.886">
        <ele>11.4</ele>
        <time>2020-05-31T16:09:22Z</time>
      </trkpt>
      <trkpt lat="46.21841" lon="-0.88602">
        <ele>11.4</ele>
        <time>2020-05-31T16:09:23Z</time>
      </trkpt>
      <trkpt lat="46.21838" lon="-0.88605">
        <ele>11.4</ele>
        <time>2020-05-31T16:09:24Z</time>
      </trkpt>
      <trkpt lat="46.21835" lon="-0.88607">
        <ele>11.4</ele>
        <time>2020-05-31T16:09:25Z</time>
      </trkpt>
      <trkpt lat="46.21832" lon="-0.88611">
        <ele>11.3</ele>
        <time>2020-05-31T16:09:26Z</time>
      </trkpt>
      <trkpt lat="46.21828" lon="-0.88614">
        <ele>11.3</ele>
        <time>2020-05-31T16:09:27Z</time>
      </trkpt>
      <trkpt lat="46.21825" lon="-0.88617">
        <ele>11.4</ele>
        <time>2020-05-31T16:09:28Z</time>
      </trkpt>
      <trkpt lat="46.21822" lon="-0.88619">
        <ele>11.4</ele>
        <time>2020-05-31T16:09:29Z</time>
      </trkpt>
      <trkpt lat="46.21818" lon="-0.88623">
        <ele>11.4</ele>
        <time>2020-05-31T16:09:30Z</time>
      </trkpt>
      <trkpt lat="46.21813" lon="-0.88629">
        <ele>11.4</ele>
        <time>2020-05-31T16:09:31Z</time>
      </trkpt>
      <trkpt lat="46.21808" lon="-0.88633">
        <ele>11.4</ele>
        <time>2020-05-31T16:09:32Z</time>
      </trkpt>
      <trkpt lat="46.21803" lon="-0.88635">
        <ele>11.4</ele>
        <time>2020-05-31T16:09:33Z</time>
      </trkpt>
      <trkpt lat="46.21799" lon="-0.88635">
        <ele>11.4</ele>
        <time>2020-05-31T16:09:34Z</time>
      </trkpt>
      <trkpt lat="46.21794" lon="-0.88636">
        <ele>11.5</ele>
        <time>2020-05-31T16:09:35Z</time>
      </trkpt>
      <trkpt lat="46.21789" lon="-0.88637">
        <ele>11.5</ele>
        <time>2020-05-31T16:09:36Z</time>
      </trkpt>
      <trkpt lat="46.21784" lon="-0.88638">
        <ele>11.5</ele>
        <time>2020-05-31T16:09:37Z</time>
      </trkpt>
      <trkpt lat="46.2178" lon="-0.8864">
        <ele>11.5</ele>
        <time>2020-05-31T16:09:38Z</time>
      </trkpt>
      <trkpt lat="46.21774" lon="-0.88641">
        <ele>11.4</ele>
        <time>2020-05-31T16:09:39Z</time>
      </trkpt>
      <trkpt lat="46.2177" lon="-0.88643">
        <ele>11.4</ele>
        <time>2020-05-31T16:09:40Z</time>
      </trkpt>
      <trkpt lat="46.21765" lon="-0.88645">
        <ele>11.4</ele>
        <time>2020-05-31T16:09:41Z</time>
      </trkpt>
      <trkpt lat="46.2176" lon="-0.88647">
        <ele>11.4</ele>
        <time>2020-05-31T16:09:42Z</time>
      </trkpt>
      <trkpt lat="46.21755" lon="-0.88651">
        <ele>11.4</ele>
        <time>2020-05-31T16:09:43Z</time>
      </trkpt>
      <trkpt lat="46.2175" lon="-0.88654">
        <ele>11.3</ele>
        <time>2020-05-31T16:09:44Z</time>
      </trkpt>
      <trkpt lat="46.21744" lon="-0.88656">
        <ele>11.3</ele>
        <time>2020-05-31T16:09:45Z</time>
      </trkpt>
      <trkpt lat="46.21739" lon="-0.88659">
        <ele>11.2</ele>
        <time>2020-05-31T16:09:46Z</time>
      </trkpt>
      <trkpt lat="46.21733" lon="-0.88662">
        <ele>11.1</ele>
        <time>2020-05-31T16:09:47Z</time>
      </trkpt>
      <trkpt lat="46.21727" lon="-0.88665">
        <ele>11</ele>
        <time>2020-05-31T16:09:48Z</time>
      </trkpt>
      <trkpt lat="46.21721" lon="-0.88668">
        <ele>10.9</ele>
        <time>2020-05-31T16:09:49Z</time>
      </trkpt>
      <trkpt lat="46.21716" lon="-0.88671">
        <ele>10.8</ele>
        <time>2020-05-31T16:09:50Z</time>
      </trkpt>
      <trkpt lat="46.2171" lon="-0.88673">
        <ele>10.7</ele>
        <time>2020-05-31T16:09:51Z</time>
      </trkpt>
      <trkpt lat="46.21705" lon="-0.88676">
        <ele>10.6</ele>
        <time>2020-05-31T16:09:52Z</time>
      </trkpt>
      <trkpt lat="46.21699" lon="-0.8868">
        <ele>10.6</ele>
        <time>2020-05-31T16:09:53Z</time>
      </trkpt>
      <trkpt lat="46.21694" lon="-0.88682">
        <ele>10.6</ele>
        <time>2020-05-31T16:09:54Z</time>
      </trkpt>
      <trkpt lat="46.2169" lon="-0.88683">
        <ele>10.6</ele>
        <time>2020-05-31T16:09:55Z</time>
      </trkpt>
      <trkpt lat="46.21684" lon="-0.88685">
        <ele>10.6</ele>
        <time>2020-05-31T16:09:56Z</time>
      </trkpt>
      <trkpt lat="46.21678" lon="-0.88687">
        <ele>10.6</ele>
        <time>2020-05-31T16:09:57Z</time>
      </trkpt>
      <trkpt lat="46.21672" lon="-0.88689">
        <ele>10.6</ele>
        <time>2020-05-31T16:09:58Z</time>
      </trkpt>
      <trkpt lat="46.21666" lon="-0.88692">
        <ele>10.6</ele>
        <time>2020-05-31T16:09:59Z</time>
      </trkpt>
      <trkpt lat="46.21659" lon="-0.88694">
        <ele>10.6</ele>
        <time>2020-05-31T16:10:00Z</time>
      </trkpt>
      <trkpt lat="46.21652" lon="-0.88699">
        <ele>10.6</ele>
        <time>2020-05-31T16:10:01Z</time>
      </trkpt>
      <trkpt lat="46.21646" lon="-0.88703">
        <ele>10.5</ele>
        <time>2020-05-31T16:10:02Z</time>
      </trkpt>
      <trkpt lat="46.2164" lon="-0.88706">
        <ele>10.5</ele>
        <time>2020-05-31T16:10:03Z</time>
      </trkpt>
      <trkpt lat="46.21634" lon="-0.88709">
        <ele>10.6</ele>
        <time>2020-05-31T16:10:04Z</time>
      </trkpt>
      <trkpt lat="46.21628" lon="-0.8871">
        <ele>10.6</ele>
        <time>2020-05-31T16:10:05Z</time>
      </trkpt>
      <trkpt lat="46.21623" lon="-0.88713">
        <ele>10.6</ele>
        <time>2020-05-31T16:10:06Z</time>
      </trkpt>
      <trkpt lat="46.21618" lon="-0.88716">
        <ele>10.7</ele>
        <time>2020-05-31T16:10:07Z</time>
      </trkpt>
      <trkpt lat="46.21612" lon="-0.88719">
        <ele>10.7</ele>
        <time>2020-05-31T16:10:08Z</time>
      </trkpt>
      <trkpt lat="46.21607" lon="-0.88722">
        <ele>10.8</ele>
        <time>2020-05-31T16:10:09Z</time>
      </trkpt>
      <trkpt lat="46.21601" lon="-0.88725">
        <ele>10.8</ele>
        <time>2020-05-31T16:10:10Z</time>
      </trkpt>
      <trkpt lat="46.21596" lon="-0.88729">
        <ele>10.9</ele>
        <time>2020-05-31T16:10:11Z</time>
      </trkpt>
      <trkpt lat="46.21592" lon="-0.88733">
        <ele>10.9</ele>
        <time>2020-05-31T16:10:12Z</time>
      </trkpt>
      <trkpt lat="46.21588" lon="-0.88736">
        <ele>10.9</ele>
        <time>2020-05-31T16:10:13Z</time>
      </trkpt>
      <trkpt lat="46.21585" lon="-0.88743">
        <ele>11</ele>
        <time>2020-05-31T16:10:14Z</time>
      </trkpt>
      <trkpt lat="46.21582" lon="-0.88748">
        <ele>11</ele>
        <time>2020-05-31T16:10:15Z</time>
      </trkpt>
      <trkpt lat="46.2158" lon="-0.88753">
        <ele>11</ele>
        <time>2020-05-31T16:10:16Z</time>
      </trkpt>
      <trkpt lat="46.21576" lon="-0.88758">
        <ele>11</ele>
        <time>2020-05-31T16:10:17Z</time>
      </trkpt>
      <trkpt lat="46.21573" lon="-0.88762">
        <ele>11.1</ele>
        <time>2020-05-31T16:10:18Z</time>
      </trkpt>
      <trkpt lat="46.21569" lon="-0.88767">
        <ele>11.2</ele>
        <time>2020-05-31T16:10:19Z</time>
      </trkpt>
      <trkpt lat="46.21567" lon="-0.88771">
        <ele>11.2</ele>
        <time>2020-05-31T16:10:20Z</time>
      </trkpt>
      <trkpt lat="46.21564" lon="-0.88775">
        <ele>11.3</ele>
        <time>2020-05-31T16:10:21Z</time>
      </trkpt>
      <trkpt lat="46.21563" lon="-0.88779">
        <ele>11.3</ele>
        <time>2020-05-31T16:10:22Z</time>
      </trkpt>
      <trkpt lat="46.21561" lon="-0.88785">
        <ele>11.4</ele>
        <time>2020-05-31T16:10:23Z</time>
      </trkpt>
      <trkpt lat="46.21561" lon="-0.8879">
        <ele>11.3</ele>
        <time>2020-05-31T16:10:24Z</time>
      </trkpt>
      <trkpt lat="46.21562" lon="-0.88795">
        <ele>11.2</ele>
        <time>2020-05-31T16:10:25Z</time>
      </trkpt>
      <trkpt lat="46.21562" lon="-0.888">
        <ele>11.2</ele>
        <time>2020-05-31T16:10:26Z</time>
      </trkpt>
      <trkpt lat="46.21563" lon="-0.88804">
        <ele>11.2</ele>
        <time>2020-05-31T16:10:27Z</time>
      </trkpt>
      <trkpt lat="46.21563" lon="-0.88808">
        <ele>11.1</ele>
        <time>2020-05-31T16:10:28Z</time>
      </trkpt>
      <trkpt lat="46.21564" lon="-0.88812">
        <ele>11.1</ele>
        <time>2020-05-31T16:10:29Z</time>
      </trkpt>
      <trkpt lat="46.21565" lon="-0.88816">
        <ele>11</ele>
        <time>2020-05-31T16:10:30Z</time>
      </trkpt>
      <trkpt lat="46.21566" lon="-0.88821">
        <ele>11</ele>
        <time>2020-05-31T16:10:31Z</time>
      </trkpt>
      <trkpt lat="46.21568" lon="-0.88826">
        <ele>10.9</ele>
        <time>2020-05-31T16:10:32Z</time>
      </trkpt>
      <trkpt lat="46.21569" lon="-0.88832">
        <ele>10.9</ele>
        <time>2020-05-31T16:10:33Z</time>
      </trkpt>
      <trkpt lat="46.21571" lon="-0.88839">
        <ele>10.8</ele>
        <time>2020-05-31T16:10:34Z</time>
      </trkpt>
      <trkpt lat="46.21573" lon="-0.88846">
        <ele>10.7</ele>
        <time>2020-05-31T16:10:35Z</time>
      </trkpt>
      <trkpt lat="46.21575" lon="-0.88853">
        <ele>10.7</ele>
        <time>2020-05-31T16:10:36Z</time>
      </trkpt>
      <trkpt lat="46.21577" lon="-0.88858">
        <ele>10.6</ele>
        <time>2020-05-31T16:10:37Z</time>
      </trkpt>
      <trkpt lat="46.21579" lon="-0.88863">
        <ele>10.6</ele>
        <time>2020-05-31T16:10:38Z</time>
      </trkpt>
      <trkpt lat="46.2158" lon="-0.88867">
        <ele>10.6</ele>
        <time>2020-05-31T16:10:39Z</time>
      </trkpt>
      <trkpt lat="46.21582" lon="-0.88872">
        <ele>10.6</ele>
        <time>2020-05-31T16:10:40Z</time>
      </trkpt>
      <trkpt lat="46.21585" lon="-0.88877">
        <ele>10.5</ele>
        <time>2020-05-31T16:10:41Z</time>
      </trkpt>
      <trkpt lat="46.21586" lon="-0.88884">
        <ele>10.5</ele>
        <time>2020-05-31T16:10:42Z</time>
      </trkpt>
      <trkpt lat="46.21587" lon="-0.8889">
        <ele>10.5</ele>
        <time>2020-05-31T16:10:43Z</time>
      </trkpt>
      <trkpt lat="46.21589" lon="-0.88895">
        <ele>10.5</ele>
        <time>2020-05-31T16:10:44Z</time>
      </trkpt>
      <trkpt lat="46.21591" lon="-0.889">
        <ele>10.5</ele>
        <time>2020-05-31T16:10:45Z</time>
      </trkpt>
      <trkpt lat="46.21592" lon="-0.88904">
        <ele>10.5</ele>
        <time>2020-05-31T16:10:46Z</time>
      </trkpt>
      <trkpt lat="46.21593" lon="-0.88909">
        <ele>10.5</ele>
        <time>2020-05-31T16:10:47Z</time>
      </trkpt>
      <trkpt lat="46.21594" lon="-0.88914">
        <ele>10.5</ele>
        <time>2020-05-31T16:10:48Z</time>
      </trkpt>
      <trkpt lat="46.21596" lon="-0.88919">
        <ele>10.5</ele>
        <time>2020-05-31T16:10:49Z</time>
      </trkpt>
      <trkpt lat="46.21598" lon="-0.88926">
        <ele>10.4</ele>
        <time>2020-05-31T16:10:50Z</time>
      </trkpt>
      <trkpt lat="46.216" lon="-0.88933">
        <ele>10.4</ele>
        <time>2020-05-31T16:10:51Z</time>
      </trkpt>
      <trkpt lat="46.21602" lon="-0.88939">
        <ele>10.4</ele>
        <time>2020-05-31T16:10:52Z</time>
      </trkpt>
      <trkpt lat="46.21604" lon="-0.88944">
        <ele>10.4</ele>
        <time>2020-05-31T16:10:53Z</time>
      </trkpt>
      <trkpt lat="46.21605" lon="-0.8895">
        <ele>10.4</ele>
        <time>2020-05-31T16:10:54Z</time>
      </trkpt>
      <trkpt lat="46.21607" lon="-0.88956">
        <ele>10.4</ele>
        <time>2020-05-31T16:10:55Z</time>
      </trkpt>
      <trkpt lat="46.2161" lon="-0.88963">
        <ele>10.4</ele>
        <time>2020-05-31T16:10:56Z</time>
      </trkpt>
      <trkpt lat="46.21612" lon="-0.88969">
        <ele>10.4</ele>
        <time>2020-05-31T16:10:57Z</time>
      </trkpt>
      <trkpt lat="46.21614" lon="-0.88976">
        <ele>10.4</ele>
        <time>2020-05-31T16:10:58Z</time>
      </trkpt>
      <trkpt lat="46.21616" lon="-0.88984">
        <ele>10.3</ele>
        <time>2020-05-31T16:10:59Z</time>
      </trkpt>
      <trkpt lat="46.21618" lon="-0.88992">
        <ele>10.3</ele>
        <time>2020-05-31T16:11:00Z</time>
      </trkpt>
      <trkpt lat="46.2162" lon="-0.89001">
        <ele>10.3</ele>
        <time>2020-05-31T16:11:01Z</time>
      </trkpt>
      <trkpt lat="46.21621" lon="-0.89009">
        <ele>10.3</ele>
        <time>2020-05-31T16:11:02Z</time>
      </trkpt>
      <trkpt lat="46.21623" lon="-0.89016">
        <ele>10.4</ele>
        <time>2020-05-31T16:11:03Z</time>
      </trkpt>
      <trkpt lat="46.21625" lon="-0.89024">
        <ele>10.4</ele>
        <time>2020-05-31T16:11:04Z</time>
      </trkpt>
      <trkpt lat="46.21625" lon="-0.89031">
        <ele>10.5</ele>
        <time>2020-05-31T16:11:05Z</time>
      </trkpt>
      <trkpt lat="46.21627" lon="-0.89038">
        <ele>10.5</ele>
        <time>2020-05-31T16:11:06Z</time>
      </trkpt>
      <trkpt lat="46.21629" lon="-0.89045">
        <ele>10.5</ele>
        <time>2020-05-31T16:11:07Z</time>
      </trkpt>
      <trkpt lat="46.2163" lon="-0.89053">
        <ele>10.5</ele>
        <time>2020-05-31T16:11:08Z</time>
      </trkpt>
      <trkpt lat="46.21631" lon="-0.8906">
        <ele>10.5</ele>
        <time>2020-05-31T16:11:09Z</time>
      </trkpt>
      <trkpt lat="46.21633" lon="-0.89067">
        <ele>10.5</ele>
        <time>2020-05-31T16:11:10Z</time>
      </trkpt>
      <trkpt lat="46.21635" lon="-0.89074">
        <ele>10.5</ele>
        <time>2020-05-31T16:11:11Z</time>
      </trkpt>
      <trkpt lat="46.21638" lon="-0.89081">
        <ele>10.4</ele>
        <time>2020-05-31T16:11:12Z</time>
      </trkpt>
      <trkpt lat="46.21641" lon="-0.89087">
        <ele>10.4</ele>
        <time>2020-05-31T16:11:13Z</time>
      </trkpt>
      <trkpt lat="46.21643" lon="-0.89093">
        <ele>10.4</ele>
        <time>2020-05-31T16:11:14Z</time>
      </trkpt>
      <trkpt lat="46.21647" lon="-0.891">
        <ele>10.3</ele>
        <time>2020-05-31T16:11:15Z</time>
      </trkpt>
      <trkpt lat="46.2165" lon="-0.89107">
        <ele>10.3</ele>
        <time>2020-05-31T16:11:16Z</time>
      </trkpt>
      <trkpt lat="46.21654" lon="-0.89113">
        <ele>10.2</ele>
        <time>2020-05-31T16:11:17Z</time>
      </trkpt>
      <trkpt lat="46.21657" lon="-0.89118">
        <ele>10.2</ele>
        <time>2020-05-31T16:11:18Z</time>
      </trkpt>
      <trkpt lat="46.21661" lon="-0.89124">
        <ele>10.2</ele>
        <time>2020-05-31T16:11:19Z</time>
      </trkpt>
      <trkpt lat="46.21664" lon="-0.8913">
        <ele>10.2</ele>
        <time>2020-05-31T16:11:20Z</time>
      </trkpt>
      <trkpt lat="46.21667" lon="-0.89136">
        <ele>10.2</ele>
        <time>2020-05-31T16:11:21Z</time>
      </trkpt>
      <trkpt lat="46.21671" lon="-0.89141">
        <ele>10.2</ele>
        <time>2020-05-31T16:11:22Z</time>
      </trkpt>
      <trkpt lat="46.21674" lon="-0.89147">
        <ele>10.2</ele>
        <time>2020-05-31T16:11:23Z</time>
      </trkpt>
      <trkpt lat="46.21678" lon="-0.89152">
        <ele>10.2</ele>
        <time>2020-05-31T16:11:24Z</time>
      </trkpt>
      <trkpt lat="46.21681" lon="-0.89157">
        <ele>10.2</ele>
        <time>2020-05-31T16:11:25Z</time>
      </trkpt>
      <trkpt lat="46.21685" lon="-0.89163">
        <ele>10.1</ele>
        <time>2020-05-31T16:11:26Z</time>
      </trkpt>
      <trkpt lat="46.21687" lon="-0.89169">
        <ele>10.1</ele>
        <time>2020-05-31T16:11:27Z</time>
      </trkpt>
      <trkpt lat="46.2169" lon="-0.89175">
        <ele>10.1</ele>
        <time>2020-05-31T16:11:28Z</time>
      </trkpt>
      <trkpt lat="46.21693" lon="-0.89181">
        <ele>10.1</ele>
        <time>2020-05-31T16:11:29Z</time>
      </trkpt>
      <trkpt lat="46.21697" lon="-0.89186">
        <ele>10.1</ele>
        <time>2020-05-31T16:11:30Z</time>
      </trkpt>
      <trkpt lat="46.21699" lon="-0.89192">
        <ele>10.1</ele>
        <time>2020-05-31T16:11:31Z</time>
      </trkpt>
      <trkpt lat="46.21701" lon="-0.89198">
        <ele>10.1</ele>
        <time>2020-05-31T16:11:32Z</time>
      </trkpt>
      <trkpt lat="46.21704" lon="-0.89205">
        <ele>10</ele>
        <time>2020-05-31T16:11:33Z</time>
      </trkpt>
      <trkpt lat="46.21706" lon="-0.8921">
        <ele>10</ele>
        <time>2020-05-31T16:11:34Z</time>
      </trkpt>
      <trkpt lat="46.21708" lon="-0.89216">
        <ele>10</ele>
        <time>2020-05-31T16:11:35Z</time>
      </trkpt>
      <trkpt lat="46.2171" lon="-0.89222">
        <ele>10</ele>
        <time>2020-05-31T16:11:36Z</time>
      </trkpt>
      <trkpt lat="46.21712" lon="-0.89227">
        <ele>9.9</ele>
        <time>2020-05-31T16:11:37Z</time>
      </trkpt>
      <trkpt lat="46.21714" lon="-0.89232">
        <ele>9.9</ele>
        <time>2020-05-31T16:11:38Z</time>
      </trkpt>
      <trkpt lat="46.21716" lon="-0.89237">
        <ele>9.8</ele>
        <time>2020-05-31T16:11:39Z</time>
      </trkpt>
      <trkpt lat="46.21718" lon="-0.89242">
        <ele>9.7</ele>
        <time>2020-05-31T16:11:40Z</time>
      </trkpt>
      <trkpt lat="46.2172" lon="-0.89247">
        <ele>9.6</ele>
        <time>2020-05-31T16:11:41Z</time>
      </trkpt>
      <trkpt lat="46.21722" lon="-0.89251">
        <ele>9.5</ele>
        <time>2020-05-31T16:11:42Z</time>
      </trkpt>
      <trkpt lat="46.21723" lon="-0.89256">
        <ele>9.4</ele>
        <time>2020-05-31T16:11:43Z</time>
      </trkpt>
      <trkpt lat="46.21725" lon="-0.8926">
        <ele>9.4</ele>
        <time>2020-05-31T16:11:44Z</time>
      </trkpt>
      <trkpt lat="46.21726" lon="-0.89265">
        <ele>9.3</ele>
        <time>2020-05-31T16:11:45Z</time>
      </trkpt>
      <trkpt lat="46.21728" lon="-0.89269">
        <ele>9.3</ele>
        <time>2020-05-31T16:11:46Z</time>
      </trkpt>
      <trkpt lat="46.2173" lon="-0.89273">
        <ele>9.2</ele>
        <time>2020-05-31T16:11:47Z</time>
      </trkpt>
      <trkpt lat="46.21731" lon="-0.89277">
        <ele>9.2</ele>
        <time>2020-05-31T16:11:48Z</time>
      </trkpt>
      <trkpt lat="46.21733" lon="-0.89282">
        <ele>9.2</ele>
        <time>2020-05-31T16:11:49Z</time>
      </trkpt>
      <trkpt lat="46.21734" lon="-0.89285">
        <ele>9.2</ele>
        <time>2020-05-31T16:11:50Z</time>
      </trkpt>
      <trkpt lat="46.21736" lon="-0.8929">
        <ele>9.2</ele>
        <time>2020-05-31T16:11:51Z</time>
      </trkpt>
      <trkpt lat="46.21738" lon="-0.89294">
        <ele>9.2</ele>
        <time>2020-05-31T16:11:52Z</time>
      </trkpt>
      <trkpt lat="46.2174" lon="-0.893">
        <ele>9.2</ele>
        <time>2020-05-31T16:11:53Z</time>
      </trkpt>
      <trkpt lat="46.21742" lon="-0.89305">
        <ele>9.2</ele>
        <time>2020-05-31T16:11:54Z</time>
      </trkpt>
      <trkpt lat="46.21744" lon="-0.89311">
        <ele>9.1</ele>
        <time>2020-05-31T16:11:55Z</time>
      </trkpt>
      <trkpt lat="46.21746" lon="-0.89318">
        <ele>9.1</ele>
        <time>2020-05-31T16:11:56Z</time>
      </trkpt>
      <trkpt lat="46.21748" lon="-0.89324">
        <ele>9.1</ele>
        <time>2020-05-31T16:11:57Z</time>
      </trkpt>
      <trkpt lat="46.21749" lon="-0.89331">
        <ele>9.1</ele>
        <time>2020-05-31T16:11:58Z</time>
      </trkpt>
      <trkpt lat="46.21751" lon="-0.89337">
        <ele>9.1</ele>
        <time>2020-05-31T16:11:59Z</time>
      </trkpt>
      <trkpt lat="46.21752" lon="-0.89343">
        <ele>9.1</ele>
        <time>2020-05-31T16:12:00Z</time>
      </trkpt>
      <trkpt lat="46.21754" lon="-0.89349">
        <ele>9.1</ele>
        <time>2020-05-31T16:12:01Z</time>
      </trkpt>
      <trkpt lat="46.21756" lon="-0.89356">
        <ele>9.1</ele>
        <time>2020-05-31T16:12:02Z</time>
      </trkpt>
      <trkpt lat="46.21758" lon="-0.89362">
        <ele>9.1</ele>
        <time>2020-05-31T16:12:03Z</time>
      </trkpt>
      <trkpt lat="46.2176" lon="-0.89369">
        <ele>9.1</ele>
        <time>2020-05-31T16:12:04Z</time>
      </trkpt>
      <trkpt lat="46.21761" lon="-0.89375">
        <ele>9.1</ele>
        <time>2020-05-31T16:12:05Z</time>
      </trkpt>
      <trkpt lat="46.21763" lon="-0.89381">
        <ele>9.1</ele>
        <time>2020-05-31T16:12:06Z</time>
      </trkpt>
      <trkpt lat="46.21765" lon="-0.89388">
        <ele>9.1</ele>
        <time>2020-05-31T16:12:07Z</time>
      </trkpt>
      <trkpt lat="46.21766" lon="-0.89394">
        <ele>9.1</ele>
        <time>2020-05-31T16:12:08Z</time>
      </trkpt>
      <trkpt lat="46.21768" lon="-0.894">
        <ele>9.1</ele>
        <time>2020-05-31T16:12:09Z</time>
      </trkpt>
      <trkpt lat="46.2177" lon="-0.89407">
        <ele>9.1</ele>
        <time>2020-05-31T16:12:10Z</time>
      </trkpt>
      <trkpt lat="46.21771" lon="-0.89414">
        <ele>9.1</ele>
        <time>2020-05-31T16:12:11Z</time>
      </trkpt>
      <trkpt lat="46.21773" lon="-0.89421">
        <ele>9</ele>
        <time>2020-05-31T16:12:12Z</time>
      </trkpt>
      <trkpt lat="46.21775" lon="-0.89429">
        <ele>9</ele>
        <time>2020-05-31T16:12:13Z</time>
      </trkpt>
      <trkpt lat="46.21776" lon="-0.89436">
        <ele>9</ele>
        <time>2020-05-31T16:12:14Z</time>
      </trkpt>
      <trkpt lat="46.21778" lon="-0.89444">
        <ele>9</ele>
        <time>2020-05-31T16:12:15Z</time>
      </trkpt>
      <trkpt lat="46.2178" lon="-0.8945">
        <ele>9</ele>
        <time>2020-05-31T16:12:16Z</time>
      </trkpt>
      <trkpt lat="46.21782" lon="-0.89458">
        <ele>9</ele>
        <time>2020-05-31T16:12:17Z</time>
      </trkpt>
      <trkpt lat="46.21784" lon="-0.89465">
        <ele>8.9</ele>
        <time>2020-05-31T16:12:18Z</time>
      </trkpt>
      <trkpt lat="46.21785" lon="-0.89473">
        <ele>8.9</ele>
        <time>2020-05-31T16:12:19Z</time>
      </trkpt>
      <trkpt lat="46.21787" lon="-0.8948">
        <ele>8.9</ele>
        <time>2020-05-31T16:12:20Z</time>
      </trkpt>
      <trkpt lat="46.21788" lon="-0.89487">
        <ele>8.9</ele>
        <time>2020-05-31T16:12:21Z</time>
      </trkpt>
      <trkpt lat="46.2179" lon="-0.89494">
        <ele>8.9</ele>
        <time>2020-05-31T16:12:22Z</time>
      </trkpt>
      <trkpt lat="46.21791" lon="-0.89501">
        <ele>8.9</ele>
        <time>2020-05-31T16:12:23Z</time>
      </trkpt>
      <trkpt lat="46.21793" lon="-0.89508">
        <ele>8.9</ele>
        <time>2020-05-31T16:12:24Z</time>
      </trkpt>
      <trkpt lat="46.21794" lon="-0.89515">
        <ele>8.9</ele>
        <time>2020-05-31T16:12:25Z</time>
      </trkpt>
      <trkpt lat="46.21795" lon="-0.89522">
        <ele>8.9</ele>
        <time>2020-05-31T16:12:26Z</time>
      </trkpt>
      <trkpt lat="46.21796" lon="-0.89529">
        <ele>8.8</ele>
        <time>2020-05-31T16:12:27Z</time>
      </trkpt>
      <trkpt lat="46.21798" lon="-0.89536">
        <ele>8.8</ele>
        <time>2020-05-31T16:12:28Z</time>
      </trkpt>
      <trkpt lat="46.21799" lon="-0.89544">
        <ele>8.8</ele>
        <time>2020-05-31T16:12:29Z</time>
      </trkpt>
      <trkpt lat="46.218" lon="-0.89552">
        <ele>8.8</ele>
        <time>2020-05-31T16:12:30Z</time>
      </trkpt>
      <trkpt lat="46.21801" lon="-0.89561">
        <ele>8.8</ele>
        <time>2020-05-31T16:12:31Z</time>
      </trkpt>
      <trkpt lat="46.21802" lon="-0.89569">
        <ele>8.7</ele>
        <time>2020-05-31T16:12:32Z</time>
      </trkpt>
      <trkpt lat="46.21803" lon="-0.89577">
        <ele>8.7</ele>
        <time>2020-05-31T16:12:33Z</time>
      </trkpt>
      <trkpt lat="46.21804" lon="-0.89586">
        <ele>8.7</ele>
        <time>2020-05-31T16:12:34Z</time>
      </trkpt>
      <trkpt lat="46.21806" lon="-0.89595">
        <ele>8.7</ele>
        <time>2020-05-31T16:12:35Z</time>
      </trkpt>
      <trkpt lat="46.21807" lon="-0.89603">
        <ele>8.7</ele>
        <time>2020-05-31T16:12:36Z</time>
      </trkpt>
      <trkpt lat="46.21808" lon="-0.89611">
        <ele>8.7</ele>
        <time>2020-05-31T16:12:37Z</time>
      </trkpt>
      <trkpt lat="46.21809" lon="-0.89619">
        <ele>8.7</ele>
        <time>2020-05-31T16:12:38Z</time>
      </trkpt>
      <trkpt lat="46.2181" lon="-0.89627">
        <ele>8.7</ele>
        <time>2020-05-31T16:12:39Z</time>
      </trkpt>
      <trkpt lat="46.2181" lon="-0.89635">
        <ele>8.7</ele>
        <time>2020-05-31T16:12:40Z</time>
      </trkpt>
      <trkpt lat="46.21811" lon="-0.89643">
        <ele>8.7</ele>
        <time>2020-05-31T16:12:41Z</time>
      </trkpt>
      <trkpt lat="46.21812" lon="-0.89651">
        <ele>8.7</ele>
        <time>2020-05-31T16:12:42Z</time>
      </trkpt>
      <trkpt lat="46.21813" lon="-0.8966">
        <ele>8.7</ele>
        <time>2020-05-31T16:12:43Z</time>
      </trkpt>
      <trkpt lat="46.21815" lon="-0.89668">
        <ele>8.7</ele>
        <time>2020-05-31T16:12:44Z</time>
      </trkpt>
      <trkpt lat="46.21816" lon="-0.89677">
        <ele>8.7</ele>
        <time>2020-05-31T16:12:45Z</time>
      </trkpt>
      <trkpt lat="46.21817" lon="-0.89686">
        <ele>8.7</ele>
        <time>2020-05-31T16:12:46Z</time>
      </trkpt>
      <trkpt lat="46.21818" lon="-0.89695">
        <ele>8.7</ele>
        <time>2020-05-31T16:12:47Z</time>
      </trkpt>
      <trkpt lat="46.21818" lon="-0.89703">
        <ele>8.6</ele>
        <time>2020-05-31T16:12:48Z</time>
      </trkpt>
      <trkpt lat="46.21819" lon="-0.89712">
        <ele>8.6</ele>
        <time>2020-05-31T16:12:49Z</time>
      </trkpt>
      <trkpt lat="46.2182" lon="-0.8972">
        <ele>8.6</ele>
        <time>2020-05-31T16:12:50Z</time>
      </trkpt>
      <trkpt lat="46.21821" lon="-0.89728">
        <ele>8.6</ele>
        <time>2020-05-31T16:12:51Z</time>
      </trkpt>
      <trkpt lat="46.21823" lon="-0.89736">
        <ele>8.6</ele>
        <time>2020-05-31T16:12:52Z</time>
      </trkpt>
      <trkpt lat="46.21824" lon="-0.89744">
        <ele>8.6</ele>
        <time>2020-05-31T16:12:53Z</time>
      </trkpt>
      <trkpt lat="46.21825" lon="-0.89752">
        <ele>8.6</ele>
        <time>2020-05-31T16:12:54Z</time>
      </trkpt>
      <trkpt lat="46.21826" lon="-0.8976">
        <ele>8.6</ele>
        <time>2020-05-31T16:12:55Z</time>
      </trkpt>
      <trkpt lat="46.21827" lon="-0.89768">
        <ele>8.6</ele>
        <time>2020-05-31T16:12:56Z</time>
      </trkpt>
      <trkpt lat="46.21828" lon="-0.89776">
        <ele>8.6</ele>
        <time>2020-05-31T16:12:57Z</time>
      </trkpt>
      <trkpt lat="46.21828" lon="-0.89784">
        <ele>8.6</ele>
        <time>2020-05-31T16:12:58Z</time>
      </trkpt>
      <trkpt lat="46.2183" lon="-0.89792">
        <ele>8.6</ele>
        <time>2020-05-31T16:12:59Z</time>
      </trkpt>
      <trkpt lat="46.21831" lon="-0.898">
        <ele>8.6</ele>
        <time>2020-05-31T16:13:00Z</time>
      </trkpt>
      <trkpt lat="46.21832" lon="-0.89808">
        <ele>8.5</ele>
        <time>2020-05-31T16:13:01Z</time>
      </trkpt>
      <trkpt lat="46.21834" lon="-0.89816">
        <ele>8.5</ele>
        <time>2020-05-31T16:13:02Z</time>
      </trkpt>
      <trkpt lat="46.21835" lon="-0.89824">
        <ele>8.5</ele>
        <time>2020-05-31T16:13:03Z</time>
      </trkpt>
      <trkpt lat="46.21837" lon="-0.89832">
        <ele>8.5</ele>
        <time>2020-05-31T16:13:04Z</time>
      </trkpt>
      <trkpt lat="46.21838" lon="-0.8984">
        <ele>8.5</ele>
        <time>2020-05-31T16:13:05Z</time>
      </trkpt>
      <trkpt lat="46.2184" lon="-0.89848">
        <ele>8.5</ele>
        <time>2020-05-31T16:13:06Z</time>
      </trkpt>
      <trkpt lat="46.21841" lon="-0.89856">
        <ele>8.5</ele>
        <time>2020-05-31T16:13:07Z</time>
      </trkpt>
      <trkpt lat="46.21842" lon="-0.89864">
        <ele>8.5</ele>
        <time>2020-05-31T16:13:08Z</time>
      </trkpt>
      <trkpt lat="46.21843" lon="-0.89873">
        <ele>8.5</ele>
        <time>2020-05-31T16:13:09Z</time>
      </trkpt>
      <trkpt lat="46.21845" lon="-0.89881">
        <ele>8.5</ele>
        <time>2020-05-31T16:13:10Z</time>
      </trkpt>
      <trkpt lat="46.21846" lon="-0.8989">
        <ele>8.4</ele>
        <time>2020-05-31T16:13:11Z</time>
      </trkpt>
      <trkpt lat="46.21847" lon="-0.89898">
        <ele>8.4</ele>
        <time>2020-05-31T16:13:12Z</time>
      </trkpt>
      <trkpt lat="46.21848" lon="-0.89907">
        <ele>8.4</ele>
        <time>2020-05-31T16:13:13Z</time>
      </trkpt>
      <trkpt lat="46.21849" lon="-0.89915">
        <ele>8.4</ele>
        <time>2020-05-31T16:13:14Z</time>
      </trkpt>
      <trkpt lat="46.2185" lon="-0.89924">
        <ele>8.4</ele>
        <time>2020-05-31T16:13:15Z</time>
      </trkpt>
      <trkpt lat="46.21851" lon="-0.89933">
        <ele>8.4</ele>
        <time>2020-05-31T16:13:16Z</time>
      </trkpt>
      <trkpt lat="46.21853" lon="-0.89942">
        <ele>8.4</ele>
        <time>2020-05-31T16:13:17Z</time>
      </trkpt>
      <trkpt lat="46.21854" lon="-0.89951">
        <ele>8.4</ele>
        <time>2020-05-31T16:13:18Z</time>
      </trkpt>
      <trkpt lat="46.21856" lon="-0.89959">
        <ele>8.4</ele>
        <time>2020-05-31T16:13:19Z</time>
      </trkpt>
      <trkpt lat="46.21857" lon="-0.89968">
        <ele>8.4</ele>
        <time>2020-05-31T16:13:20Z</time>
      </trkpt>
      <trkpt lat="46.21858" lon="-0.89976">
        <ele>8.4</ele>
        <time>2020-05-31T16:13:21Z</time>
      </trkpt>
      <trkpt lat="46.2186" lon="-0.89985">
        <ele>8.4</ele>
        <time>2020-05-31T16:13:22Z</time>
      </trkpt>
      <trkpt lat="46.21861" lon="-0.89994">
        <ele>8.5</ele>
        <time>2020-05-31T16:13:23Z</time>
      </trkpt>
      <trkpt lat="46.21862" lon="-0.90002">
        <ele>8.5</ele>
        <time>2020-05-31T16:13:24Z</time>
      </trkpt>
      <trkpt lat="46.21864" lon="-0.9001">
        <ele>8.5</ele>
        <time>2020-05-31T16:13:25Z</time>
      </trkpt>
      <trkpt lat="46.21866" lon="-0.90019">
        <ele>8.5</ele>
        <time>2020-05-31T16:13:26Z</time>
      </trkpt>
      <trkpt lat="46.21867" lon="-0.90028">
        <ele>8.5</ele>
        <time>2020-05-31T16:13:27Z</time>
      </trkpt>
      <trkpt lat="46.21869" lon="-0.90037">
        <ele>8.5</ele>
        <time>2020-05-31T16:13:28Z</time>
      </trkpt>
      <trkpt lat="46.2187" lon="-0.90045">
        <ele>8.5</ele>
        <time>2020-05-31T16:13:29Z</time>
      </trkpt>
      <trkpt lat="46.21872" lon="-0.90054">
        <ele>8.5</ele>
        <time>2020-05-31T16:13:30Z</time>
      </trkpt>
      <trkpt lat="46.21874" lon="-0.90062">
        <ele>8.5</ele>
        <time>2020-05-31T16:13:31Z</time>
      </trkpt>
      <trkpt lat="46.21876" lon="-0.90071">
        <ele>8.5</ele>
        <time>2020-05-31T16:13:32Z</time>
      </trkpt>
      <trkpt lat="46.21878" lon="-0.9008">
        <ele>8.5</ele>
        <time>2020-05-31T16:13:33Z</time>
      </trkpt>
      <trkpt lat="46.2188" lon="-0.90089">
        <ele>8.5</ele>
        <time>2020-05-31T16:13:34Z</time>
      </trkpt>
      <trkpt lat="46.21881" lon="-0.90099">
        <ele>8.5</ele>
        <time>2020-05-31T16:13:35Z</time>
      </trkpt>
      <trkpt lat="46.21883" lon="-0.90108">
        <ele>8.5</ele>
        <time>2020-05-31T16:13:36Z</time>
      </trkpt>
      <trkpt lat="46.21885" lon="-0.90117">
        <ele>8.5</ele>
        <time>2020-05-31T16:13:37Z</time>
      </trkpt>
      <trkpt lat="46.21886" lon="-0.90126">
        <ele>8.5</ele>
        <time>2020-05-31T16:13:38Z</time>
      </trkpt>
      <trkpt lat="46.21888" lon="-0.90135">
        <ele>8.5</ele>
        <time>2020-05-31T16:13:39Z</time>
      </trkpt>
      <trkpt lat="46.21889" lon="-0.90145">
        <ele>8.5</ele>
        <time>2020-05-31T16:13:40Z</time>
      </trkpt>
      <trkpt lat="46.21891" lon="-0.90153">
        <ele>8.5</ele>
        <time>2020-05-31T16:13:41Z</time>
      </trkpt>
      <trkpt lat="46.21892" lon="-0.90162">
        <ele>8.4</ele>
        <time>2020-05-31T16:13:42Z</time>
      </trkpt>
      <trkpt lat="46.21893" lon="-0.90171">
        <ele>8.4</ele>
        <time>2020-05-31T16:13:43Z</time>
      </trkpt>
      <trkpt lat="46.21894" lon="-0.9018">
        <ele>8.4</ele>
        <time>2020-05-31T16:13:44Z</time>
      </trkpt>
      <trkpt lat="46.21896" lon="-0.90189">
        <ele>8.4</ele>
        <time>2020-05-31T16:13:45Z</time>
      </trkpt>
      <trkpt lat="46.21897" lon="-0.90198">
        <ele>8.4</ele>
        <time>2020-05-31T16:13:46Z</time>
      </trkpt>
      <trkpt lat="46.21899" lon="-0.90207">
        <ele>8.4</ele>
        <time>2020-05-31T16:13:47Z</time>
      </trkpt>
      <trkpt lat="46.219" lon="-0.90215">
        <ele>8.4</ele>
        <time>2020-05-31T16:13:48Z</time>
      </trkpt>
      <trkpt lat="46.21901" lon="-0.90224">
        <ele>8.4</ele>
        <time>2020-05-31T16:13:49Z</time>
      </trkpt>
      <trkpt lat="46.21903" lon="-0.90233">
        <ele>8.4</ele>
        <time>2020-05-31T16:13:50Z</time>
      </trkpt>
      <trkpt lat="46.21904" lon="-0.90241">
        <ele>8.4</ele>
        <time>2020-05-31T16:13:51Z</time>
      </trkpt>
      <trkpt lat="46.21905" lon="-0.9025">
        <ele>8.4</ele>
        <time>2020-05-31T16:13:52Z</time>
      </trkpt>
      <trkpt lat="46.21906" lon="-0.90259">
        <ele>8.4</ele>
        <time>2020-05-31T16:13:53Z</time>
      </trkpt>
      <trkpt lat="46.21907" lon="-0.90269">
        <ele>8.4</ele>
        <time>2020-05-31T16:13:54Z</time>
      </trkpt>
      <trkpt lat="46.21909" lon="-0.90278">
        <ele>8.3</ele>
        <time>2020-05-31T16:13:55Z</time>
      </trkpt>
      <trkpt lat="46.2191" lon="-0.90286">
        <ele>8.3</ele>
        <time>2020-05-31T16:13:56Z</time>
      </trkpt>
      <trkpt lat="46.21912" lon="-0.90295">
        <ele>8.3</ele>
        <time>2020-05-31T16:13:57Z</time>
      </trkpt>
      <trkpt lat="46.21914" lon="-0.90303">
        <ele>8.3</ele>
        <time>2020-05-31T16:13:58Z</time>
      </trkpt>
      <trkpt lat="46.21917" lon="-0.90312">
        <ele>8.3</ele>
        <time>2020-05-31T16:13:59Z</time>
      </trkpt>
      <trkpt lat="46.21919" lon="-0.90321">
        <ele>8.3</ele>
        <time>2020-05-31T16:14:00Z</time>
      </trkpt>
      <trkpt lat="46.21922" lon="-0.9033">
        <ele>8.3</ele>
        <time>2020-05-31T16:14:01Z</time>
      </trkpt>
      <trkpt lat="46.21925" lon="-0.9034">
        <ele>8.3</ele>
        <time>2020-05-31T16:14:02Z</time>
      </trkpt>
      <trkpt lat="46.21929" lon="-0.90348">
        <ele>8.3</ele>
        <time>2020-05-31T16:14:03Z</time>
      </trkpt>
      <trkpt lat="46.21934" lon="-0.90355">
        <ele>8.2</ele>
        <time>2020-05-31T16:14:04Z</time>
      </trkpt>
      <trkpt lat="46.21939" lon="-0.90362">
        <ele>8.2</ele>
        <time>2020-05-31T16:14:05Z</time>
      </trkpt>
      <trkpt lat="46.21944" lon="-0.90369">
        <ele>8.2</ele>
        <time>2020-05-31T16:14:06Z</time>
      </trkpt>
      <trkpt lat="46.21949" lon="-0.90375">
        <ele>8.2</ele>
        <time>2020-05-31T16:14:07Z</time>
      </trkpt>
      <trkpt lat="46.21953" lon="-0.90381">
        <ele>8.2</ele>
        <time>2020-05-31T16:14:08Z</time>
      </trkpt>
      <trkpt lat="46.21958" lon="-0.90388">
        <ele>8.2</ele>
        <time>2020-05-31T16:14:09Z</time>
      </trkpt>
      <trkpt lat="46.21963" lon="-0.90395">
        <ele>8.2</ele>
        <time>2020-05-31T16:14:10Z</time>
      </trkpt>
      <trkpt lat="46.21967" lon="-0.90403">
        <ele>8.1</ele>
        <time>2020-05-31T16:14:11Z</time>
      </trkpt>
      <trkpt lat="46.21971" lon="-0.9041">
        <ele>8.1</ele>
        <time>2020-05-31T16:14:12Z</time>
      </trkpt>
      <trkpt lat="46.21974" lon="-0.90418">
        <ele>8.1</ele>
        <time>2020-05-31T16:14:13Z</time>
      </trkpt>
      <trkpt lat="46.21977" lon="-0.90426">
        <ele>8.1</ele>
        <time>2020-05-31T16:14:14Z</time>
      </trkpt>
      <trkpt lat="46.21979" lon="-0.90435">
        <ele>8.1</ele>
        <time>2020-05-31T16:14:15Z</time>
      </trkpt>
      <trkpt lat="46.21981" lon="-0.90444">
        <ele>8.1</ele>
        <time>2020-05-31T16:14:16Z</time>
      </trkpt>
      <trkpt lat="46.21983" lon="-0.90452">
        <ele>8.1</ele>
        <time>2020-05-31T16:14:17Z</time>
      </trkpt>
      <trkpt lat="46.21984" lon="-0.90461">
        <ele>8.1</ele>
        <time>2020-05-31T16:14:18Z</time>
      </trkpt>
      <trkpt lat="46.21984" lon="-0.9047">
        <ele>8.1</ele>
        <time>2020-05-31T16:14:19Z</time>
      </trkpt>
      <trkpt lat="46.21985" lon="-0.9048">
        <ele>8.1</ele>
        <time>2020-05-31T16:14:20Z</time>
      </trkpt>
      <trkpt lat="46.21985" lon="-0.90489">
        <ele>8.1</ele>
        <time>2020-05-31T16:14:21Z</time>
      </trkpt>
      <trkpt lat="46.21985" lon="-0.90498">
        <ele>8.1</ele>
        <time>2020-05-31T16:14:22Z</time>
      </trkpt>
      <trkpt lat="46.21985" lon="-0.90506">
        <ele>8.1</ele>
        <time>2020-05-31T16:14:23Z</time>
      </trkpt>
      <trkpt lat="46.21985" lon="-0.90515">
        <ele>8.1</ele>
        <time>2020-05-31T16:14:24Z</time>
      </trkpt>
      <trkpt lat="46.21986" lon="-0.90524">
        <ele>8.1</ele>
        <time>2020-05-31T16:14:25Z</time>
      </trkpt>
      <trkpt lat="46.21986" lon="-0.90533">
        <ele>8.1</ele>
        <time>2020-05-31T16:14:26Z</time>
      </trkpt>
      <trkpt lat="46.21986" lon="-0.90541">
        <ele>8.1</ele>
        <time>2020-05-31T16:14:27Z</time>
      </trkpt>
      <trkpt lat="46.21986" lon="-0.90549">
        <ele>8.1</ele>
        <time>2020-05-31T16:14:28Z</time>
      </trkpt>
      <trkpt lat="46.21985" lon="-0.90558">
        <ele>8</ele>
        <time>2020-05-31T16:14:29Z</time>
      </trkpt>
      <trkpt lat="46.21985" lon="-0.90566">
        <ele>8</ele>
        <time>2020-05-31T16:14:30Z</time>
      </trkpt>
      <trkpt lat="46.21984" lon="-0.90574">
        <ele>8</ele>
        <time>2020-05-31T16:14:31Z</time>
      </trkpt>
      <trkpt lat="46.21983" lon="-0.90583">
        <ele>8</ele>
        <time>2020-05-31T16:14:32Z</time>
      </trkpt>
      <trkpt lat="46.21983" lon="-0.90591">
        <ele>8</ele>
        <time>2020-05-31T16:14:33Z</time>
      </trkpt>
      <trkpt lat="46.21982" lon="-0.906">
        <ele>8</ele>
        <time>2020-05-31T16:14:34Z</time>
      </trkpt>
      <trkpt lat="46.21981" lon="-0.90608">
        <ele>8</ele>
        <time>2020-05-31T16:14:35Z</time>
      </trkpt>
      <trkpt lat="46.2198" lon="-0.90618">
        <ele>7.9</ele>
        <time>2020-05-31T16:14:36Z</time>
      </trkpt>
      <trkpt lat="46.21979" lon="-0.90627">
        <ele>7.9</ele>
        <time>2020-05-31T16:14:37Z</time>
      </trkpt>
      <trkpt lat="46.21978" lon="-0.90637">
        <ele>7.9</ele>
        <time>2020-05-31T16:14:38Z</time>
      </trkpt>
      <trkpt lat="46.21977" lon="-0.90646">
        <ele>7.9</ele>
        <time>2020-05-31T16:14:39Z</time>
      </trkpt>
      <trkpt lat="46.21975" lon="-0.90656">
        <ele>7.8</ele>
        <time>2020-05-31T16:14:40Z</time>
      </trkpt>
      <trkpt lat="46.21974" lon="-0.90666">
        <ele>7.7</ele>
        <time>2020-05-31T16:14:41Z</time>
      </trkpt>
      <trkpt lat="46.21973" lon="-0.90676">
        <ele>7.6</ele>
        <time>2020-05-31T16:14:42Z</time>
      </trkpt>
      <trkpt lat="46.21972" lon="-0.90686">
        <ele>7.5</ele>
        <time>2020-05-31T16:14:43Z</time>
      </trkpt>
      <trkpt lat="46.21971" lon="-0.90697">
        <ele>7.3</ele>
        <time>2020-05-31T16:14:44Z</time>
      </trkpt>
      <trkpt lat="46.2197" lon="-0.90707">
        <ele>7.1</ele>
        <time>2020-05-31T16:14:45Z</time>
      </trkpt>
      <trkpt lat="46.2197" lon="-0.90718">
        <ele>7.1</ele>
        <time>2020-05-31T16:14:46Z</time>
      </trkpt>
      <trkpt lat="46.2197" lon="-0.90729">
        <ele>7</ele>
        <time>2020-05-31T16:14:47Z</time>
      </trkpt>
      <trkpt lat="46.2197" lon="-0.9074">
        <ele>7</ele>
        <time>2020-05-31T16:14:48Z</time>
      </trkpt>
      <trkpt lat="46.21971" lon="-0.90751">
        <ele>7.1</ele>
        <time>2020-05-31T16:14:49Z</time>
      </trkpt>
      <trkpt lat="46.21972" lon="-0.90762">
        <ele>7.1</ele>
        <time>2020-05-31T16:14:50Z</time>
      </trkpt>
      <trkpt lat="46.21974" lon="-0.90771">
        <ele>7.1</ele>
        <time>2020-05-31T16:14:51Z</time>
      </trkpt>
      <trkpt lat="46.21977" lon="-0.90781">
        <ele>7.1</ele>
        <time>2020-05-31T16:14:52Z</time>
      </trkpt>
      <trkpt lat="46.2198" lon="-0.9079">
        <ele>7.1</ele>
        <time>2020-05-31T16:14:53Z</time>
      </trkpt>
      <trkpt lat="46.21982" lon="-0.908">
        <ele>7.1</ele>
        <time>2020-05-31T16:14:54Z</time>
      </trkpt>
      <trkpt lat="46.21985" lon="-0.90809">
        <ele>7.1</ele>
        <time>2020-05-31T16:14:55Z</time>
      </trkpt>
      <trkpt lat="46.21987" lon="-0.90817">
        <ele>7.1</ele>
        <time>2020-05-31T16:14:56Z</time>
      </trkpt>
      <trkpt lat="46.2199" lon="-0.90825">
        <ele>7.1</ele>
        <time>2020-05-31T16:14:57Z</time>
      </trkpt>
      <trkpt lat="46.21993" lon="-0.90833">
        <ele>7.1</ele>
        <time>2020-05-31T16:14:58Z</time>
      </trkpt>
      <trkpt lat="46.21995" lon="-0.90841">
        <ele>7.1</ele>
        <time>2020-05-31T16:14:59Z</time>
      </trkpt>
      <trkpt lat="46.21997" lon="-0.90848">
        <ele>7.1</ele>
        <time>2020-05-31T16:15:00Z</time>
      </trkpt>
      <trkpt lat="46.21999" lon="-0.90856">
        <ele>7.1</ele>
        <time>2020-05-31T16:15:01Z</time>
      </trkpt>
      <trkpt lat="46.22002" lon="-0.90863">
        <ele>7.2</ele>
        <time>2020-05-31T16:15:02Z</time>
      </trkpt>
      <trkpt lat="46.22004" lon="-0.90871">
        <ele>7.2</ele>
        <time>2020-05-31T16:15:03Z</time>
      </trkpt>
      <trkpt lat="46.22006" lon="-0.90879">
        <ele>7.2</ele>
        <time>2020-05-31T16:15:04Z</time>
      </trkpt>
      <trkpt lat="46.22008" lon="-0.90886">
        <ele>7.2</ele>
        <time>2020-05-31T16:15:05Z</time>
      </trkpt>
      <trkpt lat="46.22009" lon="-0.90894">
        <ele>7.2</ele>
        <time>2020-05-31T16:15:06Z</time>
      </trkpt>
      <trkpt lat="46.22011" lon="-0.90902">
        <ele>7.3</ele>
        <time>2020-05-31T16:15:07Z</time>
      </trkpt>
      <trkpt lat="46.22013" lon="-0.90911">
        <ele>7.3</ele>
        <time>2020-05-31T16:15:08Z</time>
      </trkpt>
      <trkpt lat="46.22015" lon="-0.90919">
        <ele>7.3</ele>
        <time>2020-05-31T16:15:09Z</time>
      </trkpt>
      <trkpt lat="46.22017" lon="-0.90928">
        <ele>7.4</ele>
        <time>2020-05-31T16:15:10Z</time>
      </trkpt>
      <trkpt lat="46.22018" lon="-0.90937">
        <ele>7.4</ele>
        <time>2020-05-31T16:15:11Z</time>
      </trkpt>
      <trkpt lat="46.22019" lon="-0.90945">
        <ele>7.4</ele>
        <time>2020-05-31T16:15:12Z</time>
      </trkpt>
      <trkpt lat="46.22021" lon="-0.90954">
        <ele>7.5</ele>
        <time>2020-05-31T16:15:13Z</time>
      </trkpt>
      <trkpt lat="46.22022" lon="-0.90963">
        <ele>7.5</ele>
        <time>2020-05-31T16:15:14Z</time>
      </trkpt>
      <trkpt lat="46.22023" lon="-0.90972">
        <ele>7.5</ele>
        <time>2020-05-31T16:15:15Z</time>
      </trkpt>
      <trkpt lat="46.22025" lon="-0.90982">
        <ele>7.5</ele>
        <time>2020-05-31T16:15:16Z</time>
      </trkpt>
      <trkpt lat="46.22027" lon="-0.90991">
        <ele>7.6</ele>
        <time>2020-05-31T16:15:17Z</time>
      </trkpt>
      <trkpt lat="46.22028" lon="-0.91">
        <ele>7.6</ele>
        <time>2020-05-31T16:15:18Z</time>
      </trkpt>
      <trkpt lat="46.22029" lon="-0.91008">
        <ele>7.6</ele>
        <time>2020-05-31T16:15:19Z</time>
      </trkpt>
      <trkpt lat="46.22031" lon="-0.91018">
        <ele>7.7</ele>
        <time>2020-05-31T16:15:20Z</time>
      </trkpt>
      <trkpt lat="46.22032" lon="-0.91027">
        <ele>7.7</ele>
        <time>2020-05-31T16:15:21Z</time>
      </trkpt>
      <trkpt lat="46.22033" lon="-0.91037">
        <ele>7.8</ele>
        <time>2020-05-31T16:15:22Z</time>
      </trkpt>
      <trkpt lat="46.22034" lon="-0.91046">
        <ele>8</ele>
        <time>2020-05-31T16:15:23Z</time>
      </trkpt>
      <trkpt lat="46.22035" lon="-0.91055">
        <ele>8.1</ele>
        <time>2020-05-31T16:15:24Z</time>
      </trkpt>
      <trkpt lat="46.22037" lon="-0.91064">
        <ele>8.3</ele>
        <time>2020-05-31T16:15:25Z</time>
      </trkpt>
      <trkpt lat="46.22038" lon="-0.91073">
        <ele>8.4</ele>
        <time>2020-05-31T16:15:26Z</time>
      </trkpt>
      <trkpt lat="46.22039" lon="-0.91082">
        <ele>8.4</ele>
        <time>2020-05-31T16:15:27Z</time>
      </trkpt>
      <trkpt lat="46.22041" lon="-0.9109">
        <ele>8.4</ele>
        <time>2020-05-31T16:15:28Z</time>
      </trkpt>
      <trkpt lat="46.22043" lon="-0.91099">
        <ele>8.4</ele>
        <time>2020-05-31T16:15:29Z</time>
      </trkpt>
      <trkpt lat="46.22044" lon="-0.91108">
        <ele>8.4</ele>
        <time>2020-05-31T16:15:30Z</time>
      </trkpt>
      <trkpt lat="46.22045" lon="-0.91117">
        <ele>8.5</ele>
        <time>2020-05-31T16:15:31Z</time>
      </trkpt>
      <trkpt lat="46.22047" lon="-0.91125">
        <ele>8.6</ele>
        <time>2020-05-31T16:15:32Z</time>
      </trkpt>
      <trkpt lat="46.22048" lon="-0.91133">
        <ele>8.7</ele>
        <time>2020-05-31T16:15:33Z</time>
      </trkpt>
      <trkpt lat="46.22049" lon="-0.91141">
        <ele>8.9</ele>
        <time>2020-05-31T16:15:34Z</time>
      </trkpt>
      <trkpt lat="46.22051" lon="-0.91149">
        <ele>9</ele>
        <time>2020-05-31T16:15:35Z</time>
      </trkpt>
      <trkpt lat="46.22053" lon="-0.91157">
        <ele>9.1</ele>
        <time>2020-05-31T16:15:36Z</time>
      </trkpt>
      <trkpt lat="46.22055" lon="-0.91164">
        <ele>9.2</ele>
        <time>2020-05-31T16:15:37Z</time>
      </trkpt>
      <trkpt lat="46.22056" lon="-0.91172">
        <ele>9.3</ele>
        <time>2020-05-31T16:15:38Z</time>
      </trkpt>
      <trkpt lat="46.22057" lon="-0.91179">
        <ele>9.4</ele>
        <time>2020-05-31T16:15:39Z</time>
      </trkpt>
      <trkpt lat="46.22058" lon="-0.91185">
        <ele>9.5</ele>
        <time>2020-05-31T16:15:40Z</time>
      </trkpt>
      <trkpt lat="46.2206" lon="-0.91191">
        <ele>9.6</ele>
        <time>2020-05-31T16:15:41Z</time>
      </trkpt>
      <trkpt lat="46.22061" lon="-0.91197">
        <ele>9.7</ele>
        <time>2020-05-31T16:15:42Z</time>
      </trkpt>
      <trkpt lat="46.22063" lon="-0.91203">
        <ele>9.8</ele>
        <time>2020-05-31T16:15:43Z</time>
      </trkpt>
      <trkpt lat="46.22064" lon="-0.91209">
        <ele>9.8</ele>
        <time>2020-05-31T16:15:44Z</time>
      </trkpt>
      <trkpt lat="46.22066" lon="-0.91215">
        <ele>9.9</ele>
        <time>2020-05-31T16:15:45Z</time>
      </trkpt>
      <trkpt lat="46.22067" lon="-0.9122">
        <ele>10</ele>
        <time>2020-05-31T16:15:46Z</time>
      </trkpt>
      <trkpt lat="46.22069" lon="-0.91225">
        <ele>10.1</ele>
        <time>2020-05-31T16:15:47Z</time>
      </trkpt>
      <trkpt lat="46.2207" lon="-0.91229">
        <ele>10.1</ele>
        <time>2020-05-31T16:15:48Z</time>
      </trkpt>
      <trkpt lat="46.22071" lon="-0.91234">
        <ele>10.2</ele>
        <time>2020-05-31T16:15:49Z</time>
      </trkpt>
      <trkpt lat="46.22073" lon="-0.91238">
        <ele>10.2</ele>
        <time>2020-05-31T16:15:50Z</time>
      </trkpt>
      <trkpt lat="46.22074" lon="-0.91243">
        <ele>10.3</ele>
        <time>2020-05-31T16:15:51Z</time>
      </trkpt>
      <trkpt lat="46.22076" lon="-0.91246">
        <ele>10.3</ele>
        <time>2020-05-31T16:15:52Z</time>
      </trkpt>
      <trkpt lat="46.22077" lon="-0.9125">
        <ele>10.4</ele>
        <time>2020-05-31T16:15:53Z</time>
      </trkpt>
      <trkpt lat="46.22079" lon="-0.91254">
        <ele>10.4</ele>
        <time>2020-05-31T16:15:54Z</time>
      </trkpt>
      <trkpt lat="46.2208" lon="-0.91258">
        <ele>10.5</ele>
        <time>2020-05-31T16:15:55Z</time>
      </trkpt>
      <trkpt lat="46.22082" lon="-0.91263">
        <ele>10.5</ele>
        <time>2020-05-31T16:15:56Z</time>
      </trkpt>
      <trkpt lat="46.22082" lon="-0.91265">
        <ele>10.5</ele>
        <time>2020-05-31T16:15:57Z</time>
      </trkpt>
      <trkpt lat="46.22084" lon="-0.91268">
        <ele>10.6</ele>
        <time>2020-05-31T16:15:58Z</time>
      </trkpt>
      <trkpt lat="46.22086" lon="-0.91272">
        <ele>10.6</ele>
        <time>2020-05-31T16:15:59Z</time>
      </trkpt>
      <trkpt lat="46.22088" lon="-0.91275">
        <ele>10.6</ele>
        <time>2020-05-31T16:16:00Z</time>
      </trkpt>
      <trkpt lat="46.22089" lon="-0.9128">
        <ele>10.7</ele>
        <time>2020-05-31T16:16:01Z</time>
      </trkpt>
      <trkpt lat="46.22091" lon="-0.91284">
        <ele>10.7</ele>
        <time>2020-05-31T16:16:02Z</time>
      </trkpt>
      <trkpt lat="46.22092" lon="-0.9129">
        <ele>10.8</ele>
        <time>2020-05-31T16:16:03Z</time>
      </trkpt>
      <trkpt lat="46.22094" lon="-0.91294">
        <ele>10.8</ele>
        <time>2020-05-31T16:16:04Z</time>
      </trkpt>
      <trkpt lat="46.22096" lon="-0.91299">
        <ele>10.8</ele>
        <time>2020-05-31T16:16:05Z</time>
      </trkpt>
      <trkpt lat="46.22098" lon="-0.91303">
        <ele>10.9</ele>
        <time>2020-05-31T16:16:06Z</time>
      </trkpt>
      <trkpt lat="46.22099" lon="-0.91307">
        <ele>10.9</ele>
        <time>2020-05-31T16:16:07Z</time>
      </trkpt>
      <trkpt lat="46.22101" lon="-0.91312">
        <ele>10.9</ele>
        <time>2020-05-31T16:16:08Z</time>
      </trkpt>
      <trkpt lat="46.22102" lon="-0.91316">
        <ele>10.9</ele>
        <time>2020-05-31T16:16:09Z</time>
      </trkpt>
      <trkpt lat="46.22103" lon="-0.9132">
        <ele>10.9</ele>
        <time>2020-05-31T16:16:10Z</time>
      </trkpt>
      <trkpt lat="46.22104" lon="-0.91324">
        <ele>10.9</ele>
        <time>2020-05-31T16:16:11Z</time>
      </trkpt>
      <trkpt lat="46.22105" lon="-0.91328">
        <ele>11</ele>
        <time>2020-05-31T16:16:12Z</time>
      </trkpt>
      <trkpt lat="46.22106" lon="-0.91332">
        <ele>11</ele>
        <time>2020-05-31T16:16:13Z</time>
      </trkpt>
      <trkpt lat="46.22108" lon="-0.91336">
        <ele>11</ele>
        <time>2020-05-31T16:16:14Z</time>
      </trkpt>
      <trkpt lat="46.2211" lon="-0.91339">
        <ele>11</ele>
        <time>2020-05-31T16:16:15Z</time>
      </trkpt>
      <trkpt lat="46.22112" lon="-0.91343">
        <ele>11</ele>
        <time>2020-05-31T16:16:16Z</time>
      </trkpt>
      <trkpt lat="46.22114" lon="-0.91347">
        <ele>11</ele>
        <time>2020-05-31T16:16:17Z</time>
      </trkpt>
      <trkpt lat="46.22116" lon="-0.91351">
        <ele>11</ele>
        <time>2020-05-31T16:16:18Z</time>
      </trkpt>
      <trkpt lat="46.22118" lon="-0.91355">
        <ele>11</ele>
        <time>2020-05-31T16:16:19Z</time>
      </trkpt>
      <trkpt lat="46.2212" lon="-0.91359">
        <ele>11</ele>
        <time>2020-05-31T16:16:20Z</time>
      </trkpt>
      <trkpt lat="46.22122" lon="-0.91362">
        <ele>11</ele>
        <time>2020-05-31T16:16:21Z</time>
      </trkpt>
      <trkpt lat="46.22124" lon="-0.91366">
        <ele>11</ele>
        <time>2020-05-31T16:16:22Z</time>
      </trkpt>
      <trkpt lat="46.22126" lon="-0.91371">
        <ele>11</ele>
        <time>2020-05-31T16:16:23Z</time>
      </trkpt>
      <trkpt lat="46.22128" lon="-0.91375">
        <ele>11</ele>
        <time>2020-05-31T16:16:24Z</time>
      </trkpt>
      <trkpt lat="46.2213" lon="-0.91379">
        <ele>11</ele>
        <time>2020-05-31T16:16:25Z</time>
      </trkpt>
      <trkpt lat="46.22133" lon="-0.91383">
        <ele>11</ele>
        <time>2020-05-31T16:16:26Z</time>
      </trkpt>
      <trkpt lat="46.22135" lon="-0.91387">
        <ele>11</ele>
        <time>2020-05-31T16:16:27Z</time>
      </trkpt>
      <trkpt lat="46.22137" lon="-0.91392">
        <ele>11</ele>
        <time>2020-05-31T16:16:28Z</time>
      </trkpt>
      <trkpt lat="46.22138" lon="-0.91397">
        <ele>11</ele>
        <time>2020-05-31T16:16:29Z</time>
      </trkpt>
      <trkpt lat="46.2214" lon="-0.91401">
        <ele>11</ele>
        <time>2020-05-31T16:16:30Z</time>
      </trkpt>
      <trkpt lat="46.22142" lon="-0.91406">
        <ele>11</ele>
        <time>2020-05-31T16:16:31Z</time>
      </trkpt>
      <trkpt lat="46.22144" lon="-0.91409">
        <ele>11</ele>
        <time>2020-05-31T16:16:32Z</time>
      </trkpt>
      <trkpt lat="46.22146" lon="-0.91413">
        <ele>11</ele>
        <time>2020-05-31T16:16:33Z</time>
      </trkpt>
      <trkpt lat="46.22148" lon="-0.91417">
        <ele>11</ele>
        <time>2020-05-31T16:16:34Z</time>
      </trkpt>
      <trkpt lat="46.2215" lon="-0.91421">
        <ele>11.1</ele>
        <time>2020-05-31T16:16:35Z</time>
      </trkpt>
      <trkpt lat="46.22152" lon="-0.91425">
        <ele>11.1</ele>
        <time>2020-05-31T16:16:36Z</time>
      </trkpt>
      <trkpt lat="46.22154" lon="-0.91429">
        <ele>11.1</ele>
        <time>2020-05-31T16:16:37Z</time>
      </trkpt>
      <trkpt lat="46.22156" lon="-0.91432">
        <ele>11.1</ele>
        <time>2020-05-31T16:16:38Z</time>
      </trkpt>
      <trkpt lat="46.22157" lon="-0.91436">
        <ele>11.1</ele>
        <time>2020-05-31T16:16:39Z</time>
      </trkpt>
      <trkpt lat="46.22159" lon="-0.91439">
        <ele>11.1</ele>
        <time>2020-05-31T16:16:40Z</time>
      </trkpt>
      <trkpt lat="46.22161" lon="-0.91442">
        <ele>11.1</ele>
        <time>2020-05-31T16:16:41Z</time>
      </trkpt>
      <trkpt lat="46.22163" lon="-0.91445">
        <ele>11.2</ele>
        <time>2020-05-31T16:16:42Z</time>
      </trkpt>
      <trkpt lat="46.22165" lon="-0.91448">
        <ele>11.2</ele>
        <time>2020-05-31T16:16:43Z</time>
      </trkpt>
      <trkpt lat="46.22166" lon="-0.91452">
        <ele>11.2</ele>
        <time>2020-05-31T16:16:44Z</time>
      </trkpt>
      <trkpt lat="46.22168" lon="-0.91455">
        <ele>11.2</ele>
        <time>2020-05-31T16:16:45Z</time>
      </trkpt>
      <trkpt lat="46.2217" lon="-0.91459">
        <ele>11.2</ele>
        <time>2020-05-31T16:16:46Z</time>
      </trkpt>
      <trkpt lat="46.22172" lon="-0.91462">
        <ele>11.2</ele>
        <time>2020-05-31T16:16:47Z</time>
      </trkpt>
      <trkpt lat="46.22174" lon="-0.91466">
        <ele>11.2</ele>
        <time>2020-05-31T16:16:48Z</time>
      </trkpt>
      <trkpt lat="46.22176" lon="-0.91469">
        <ele>11.2</ele>
        <time>2020-05-31T16:16:49Z</time>
      </trkpt>
      <trkpt lat="46.22178" lon="-0.91473">
        <ele>11.2</ele>
        <time>2020-05-31T16:16:50Z</time>
      </trkpt>
      <trkpt lat="46.2218" lon="-0.91476">
        <ele>11.3</ele>
        <time>2020-05-31T16:16:51Z</time>
      </trkpt>
      <trkpt lat="46.22182" lon="-0.9148">
        <ele>11.3</ele>
        <time>2020-05-31T16:16:52Z</time>
      </trkpt>
      <trkpt lat="46.22184" lon="-0.91484">
        <ele>11.3</ele>
        <time>2020-05-31T16:16:53Z</time>
      </trkpt>
      <trkpt lat="46.22186" lon="-0.91489">
        <ele>11.3</ele>
        <time>2020-05-31T16:16:54Z</time>
      </trkpt>
      <trkpt lat="46.22188" lon="-0.91493">
        <ele>11.3</ele>
        <time>2020-05-31T16:16:55Z</time>
      </trkpt>
      <trkpt lat="46.2219" lon="-0.91498">
        <ele>11.3</ele>
        <time>2020-05-31T16:16:56Z</time>
      </trkpt>
      <trkpt lat="46.22192" lon="-0.91503">
        <ele>11.3</ele>
        <time>2020-05-31T16:16:57Z</time>
      </trkpt>
      <trkpt lat="46.22194" lon="-0.91509">
        <ele>11.3</ele>
        <time>2020-05-31T16:16:58Z</time>
      </trkpt>
      <trkpt lat="46.22196" lon="-0.91514">
        <ele>11.4</ele>
        <time>2020-05-31T16:16:59Z</time>
      </trkpt>
      <trkpt lat="46.22199" lon="-0.91519">
        <ele>11.4</ele>
        <time>2020-05-31T16:17:00Z</time>
      </trkpt>
      <trkpt lat="46.22201" lon="-0.91525">
        <ele>11.4</ele>
        <time>2020-05-31T16:17:01Z</time>
      </trkpt>
      <trkpt lat="46.22203" lon="-0.9153">
        <ele>11.4</ele>
        <time>2020-05-31T16:17:02Z</time>
      </trkpt>
      <trkpt lat="46.22205" lon="-0.91536">
        <ele>11.5</ele>
        <time>2020-05-31T16:17:03Z</time>
      </trkpt>
      <trkpt lat="46.22207" lon="-0.91541">
        <ele>11.5</ele>
        <time>2020-05-31T16:17:04Z</time>
      </trkpt>
      <trkpt lat="46.2221" lon="-0.91547">
        <ele>11.5</ele>
        <time>2020-05-31T16:17:05Z</time>
      </trkpt>
      <trkpt lat="46.22211" lon="-0.91552">
        <ele>11.5</ele>
        <time>2020-05-31T16:17:06Z</time>
      </trkpt>
      <trkpt lat="46.22213" lon="-0.91558">
        <ele>11.5</ele>
        <time>2020-05-31T16:17:07Z</time>
      </trkpt>
      <trkpt lat="46.22214" lon="-0.91564">
        <ele>11.5</ele>
        <time>2020-05-31T16:17:08Z</time>
      </trkpt>
      <trkpt lat="46.22215" lon="-0.9157">
        <ele>11.5</ele>
        <time>2020-05-31T16:17:09Z</time>
      </trkpt>
      <trkpt lat="46.22215" lon="-0.91576">
        <ele>11.5</ele>
        <time>2020-05-31T16:17:10Z</time>
      </trkpt>
      <trkpt lat="46.22216" lon="-0.91582">
        <ele>11.5</ele>
        <time>2020-05-31T16:17:11Z</time>
      </trkpt>
      <trkpt lat="46.22217" lon="-0.91587">
        <ele>11.4</ele>
        <time>2020-05-31T16:17:12Z</time>
      </trkpt>
      <trkpt lat="46.22217" lon="-0.91593">
        <ele>11.4</ele>
        <time>2020-05-31T16:17:13Z</time>
      </trkpt>
      <trkpt lat="46.22218" lon="-0.91599">
        <ele>11.4</ele>
        <time>2020-05-31T16:17:14Z</time>
      </trkpt>
      <trkpt lat="46.2222" lon="-0.91605">
        <ele>11.4</ele>
        <time>2020-05-31T16:17:15Z</time>
      </trkpt>
      <trkpt lat="46.22221" lon="-0.91612">
        <ele>11.4</ele>
        <time>2020-05-31T16:17:16Z</time>
      </trkpt>
      <trkpt lat="46.22222" lon="-0.91618">
        <ele>11.4</ele>
        <time>2020-05-31T16:17:17Z</time>
      </trkpt>
      <trkpt lat="46.22222" lon="-0.91625">
        <ele>11.4</ele>
        <time>2020-05-31T16:17:18Z</time>
      </trkpt>
      <trkpt lat="46.22224" lon="-0.91632">
        <ele>11.4</ele>
        <time>2020-05-31T16:17:19Z</time>
      </trkpt>
      <trkpt lat="46.22224" lon="-0.91639">
        <ele>11.4</ele>
        <time>2020-05-31T16:17:20Z</time>
      </trkpt>
      <trkpt lat="46.22225" lon="-0.91646">
        <ele>11.4</ele>
        <time>2020-05-31T16:17:21Z</time>
      </trkpt>
      <trkpt lat="46.22225" lon="-0.91653">
        <ele>11.4</ele>
        <time>2020-05-31T16:17:22Z</time>
      </trkpt>
      <trkpt lat="46.22226" lon="-0.9166">
        <ele>11.4</ele>
        <time>2020-05-31T16:17:23Z</time>
      </trkpt>
      <trkpt lat="46.22227" lon="-0.91668">
        <ele>11.5</ele>
        <time>2020-05-31T16:17:24Z</time>
      </trkpt>
      <trkpt lat="46.22227" lon="-0.91675">
        <ele>11.5</ele>
        <time>2020-05-31T16:17:25Z</time>
      </trkpt>
      <trkpt lat="46.22228" lon="-0.91683">
        <ele>11.6</ele>
        <time>2020-05-31T16:17:26Z</time>
      </trkpt>
      <trkpt lat="46.22228" lon="-0.9169">
        <ele>11.7</ele>
        <time>2020-05-31T16:17:27Z</time>
      </trkpt>
      <trkpt lat="46.2223" lon="-0.91697">
        <ele>11.8</ele>
        <time>2020-05-31T16:17:28Z</time>
      </trkpt>
      <trkpt lat="46.22231" lon="-0.91704">
        <ele>11.9</ele>
        <time>2020-05-31T16:17:29Z</time>
      </trkpt>
      <trkpt lat="46.22233" lon="-0.91712">
        <ele>11.9</ele>
        <time>2020-05-31T16:17:30Z</time>
      </trkpt>
      <trkpt lat="46.22234" lon="-0.91719">
        <ele>12</ele>
        <time>2020-05-31T16:17:31Z</time>
      </trkpt>
      <trkpt lat="46.22235" lon="-0.91726">
        <ele>12</ele>
        <time>2020-05-31T16:17:32Z</time>
      </trkpt>
      <trkpt lat="46.22237" lon="-0.91733">
        <ele>12.1</ele>
        <time>2020-05-31T16:17:33Z</time>
      </trkpt>
      <trkpt lat="46.22238" lon="-0.9174">
        <ele>12.1</ele>
        <time>2020-05-31T16:17:34Z</time>
      </trkpt>
      <trkpt lat="46.22239" lon="-0.91747">
        <ele>12.1</ele>
        <time>2020-05-31T16:17:35Z</time>
      </trkpt>
      <trkpt lat="46.22241" lon="-0.91754">
        <ele>12.1</ele>
        <time>2020-05-31T16:17:36Z</time>
      </trkpt>
      <trkpt lat="46.22242" lon="-0.91762">
        <ele>12.1</ele>
        <time>2020-05-31T16:17:37Z</time>
      </trkpt>
      <trkpt lat="46.22243" lon="-0.91769">
        <ele>12.1</ele>
        <time>2020-05-31T16:17:38Z</time>
      </trkpt>
      <trkpt lat="46.22244" lon="-0.91777">
        <ele>12.2</ele>
        <time>2020-05-31T16:17:39Z</time>
      </trkpt>
      <trkpt lat="46.22246" lon="-0.91784">
        <ele>12.2</ele>
        <time>2020-05-31T16:17:40Z</time>
      </trkpt>
      <trkpt lat="46.22247" lon="-0.91792">
        <ele>12.2</ele>
        <time>2020-05-31T16:17:41Z</time>
      </trkpt>
      <trkpt lat="46.22248" lon="-0.91799">
        <ele>12.3</ele>
        <time>2020-05-31T16:17:42Z</time>
      </trkpt>
      <trkpt lat="46.2225" lon="-0.91807">
        <ele>12.3</ele>
        <time>2020-05-31T16:17:43Z</time>
      </trkpt>
      <trkpt lat="46.22251" lon="-0.91814">
        <ele>12.4</ele>
        <time>2020-05-31T16:17:44Z</time>
      </trkpt>
      <trkpt lat="46.22252" lon="-0.91821">
        <ele>12.4</ele>
        <time>2020-05-31T16:17:45Z</time>
      </trkpt>
      <trkpt lat="46.22253" lon="-0.91829">
        <ele>12.4</ele>
        <time>2020-05-31T16:17:46Z</time>
      </trkpt>
      <trkpt lat="46.22255" lon="-0.91836">
        <ele>12.5</ele>
        <time>2020-05-31T16:17:47Z</time>
      </trkpt>
      <trkpt lat="46.22256" lon="-0.91844">
        <ele>12.5</ele>
        <time>2020-05-31T16:17:48Z</time>
      </trkpt>
      <trkpt lat="46.22257" lon="-0.91852">
        <ele>12.6</ele>
        <time>2020-05-31T16:17:49Z</time>
      </trkpt>
      <trkpt lat="46.22258" lon="-0.91859">
        <ele>12.6</ele>
        <time>2020-05-31T16:17:50Z</time>
      </trkpt>
      <trkpt lat="46.22258" lon="-0.91868">
        <ele>12.7</ele>
        <time>2020-05-31T16:17:51Z</time>
      </trkpt>
      <trkpt lat="46.22258" lon="-0.91876">
        <ele>12.7</ele>
        <time>2020-05-31T16:17:52Z</time>
      </trkpt>
      <trkpt lat="46.22259" lon="-0.91884">
        <ele>12.8</ele>
        <time>2020-05-31T16:17:53Z</time>
      </trkpt>
      <trkpt lat="46.22259" lon="-0.91891">
        <ele>12.8</ele>
        <time>2020-05-31T16:17:54Z</time>
      </trkpt>
      <trkpt lat="46.2226" lon="-0.91899">
        <ele>12.8</ele>
        <time>2020-05-31T16:17:55Z</time>
      </trkpt>
      <trkpt lat="46.2226" lon="-0.91907">
        <ele>12.9</ele>
        <time>2020-05-31T16:17:56Z</time>
      </trkpt>
      <trkpt lat="46.22261" lon="-0.91914">
        <ele>12.9</ele>
        <time>2020-05-31T16:17:57Z</time>
      </trkpt>
      <trkpt lat="46.22261" lon="-0.91922">
        <ele>13</ele>
        <time>2020-05-31T16:17:58Z</time>
      </trkpt>
      <trkpt lat="46.22261" lon="-0.9193">
        <ele>13.1</ele>
        <time>2020-05-31T16:17:59Z</time>
      </trkpt>
      <trkpt lat="46.22261" lon="-0.91938">
        <ele>13.1</ele>
        <time>2020-05-31T16:18:00Z</time>
      </trkpt>
      <trkpt lat="46.22261" lon="-0.91946">
        <ele>13.2</ele>
        <time>2020-05-31T16:18:01Z</time>
      </trkpt>
      <trkpt lat="46.22261" lon="-0.91954">
        <ele>13.3</ele>
        <time>2020-05-31T16:18:02Z</time>
      </trkpt>
      <trkpt lat="46.22262" lon="-0.91961">
        <ele>13.3</ele>
        <time>2020-05-31T16:18:03Z</time>
      </trkpt>
      <trkpt lat="46.22262" lon="-0.91969">
        <ele>13.4</ele>
        <time>2020-05-31T16:18:04Z</time>
      </trkpt>
      <trkpt lat="46.22263" lon="-0.91976">
        <ele>13.4</ele>
        <time>2020-05-31T16:18:05Z</time>
      </trkpt>
      <trkpt lat="46.22263" lon="-0.91984">
        <ele>13.5</ele>
        <time>2020-05-31T16:18:06Z</time>
      </trkpt>
      <trkpt lat="46.22264" lon="-0.91991">
        <ele>13.6</ele>
        <time>2020-05-31T16:18:07Z</time>
      </trkpt>
      <trkpt lat="46.22264" lon="-0.91999">
        <ele>13.6</ele>
        <time>2020-05-31T16:18:08Z</time>
      </trkpt>
      <trkpt lat="46.22265" lon="-0.92007">
        <ele>13.7</ele>
        <time>2020-05-31T16:18:09Z</time>
      </trkpt>
      <trkpt lat="46.22265" lon="-0.92015">
        <ele>13.8</ele>
        <time>2020-05-31T16:18:10Z</time>
      </trkpt>
      <trkpt lat="46.22266" lon="-0.92023">
        <ele>13.9</ele>
        <time>2020-05-31T16:18:11Z</time>
      </trkpt>
      <trkpt lat="46.22267" lon="-0.92031">
        <ele>13.9</ele>
        <time>2020-05-31T16:18:12Z</time>
      </trkpt>
      <trkpt lat="46.22268" lon="-0.92038">
        <ele>14</ele>
        <time>2020-05-31T16:18:13Z</time>
      </trkpt>
      <trkpt lat="46.22269" lon="-0.92047">
        <ele>14</ele>
        <time>2020-05-31T16:18:14Z</time>
      </trkpt>
      <trkpt lat="46.2227" lon="-0.92055">
        <ele>14</ele>
        <time>2020-05-31T16:18:15Z</time>
      </trkpt>
      <trkpt lat="46.22271" lon="-0.92063">
        <ele>14</ele>
        <time>2020-05-31T16:18:16Z</time>
      </trkpt>
      <trkpt lat="46.22272" lon="-0.92072">
        <ele>14</ele>
        <time>2020-05-31T16:18:17Z</time>
      </trkpt>
      <trkpt lat="46.22273" lon="-0.9208">
        <ele>14</ele>
        <time>2020-05-31T16:18:18Z</time>
      </trkpt>
      <trkpt lat="46.22274" lon="-0.92088">
        <ele>14.1</ele>
        <time>2020-05-31T16:18:19Z</time>
      </trkpt>
      <trkpt lat="46.22274" lon="-0.92096">
        <ele>14.1</ele>
        <time>2020-05-31T16:18:20Z</time>
      </trkpt>
      <trkpt lat="46.22275" lon="-0.92104">
        <ele>14.1</ele>
        <time>2020-05-31T16:18:21Z</time>
      </trkpt>
      <trkpt lat="46.22276" lon="-0.92112">
        <ele>14.2</ele>
        <time>2020-05-31T16:18:22Z</time>
      </trkpt>
      <trkpt lat="46.22277" lon="-0.9212">
        <ele>14.2</ele>
        <time>2020-05-31T16:18:23Z</time>
      </trkpt>
      <trkpt lat="46.22278" lon="-0.92128">
        <ele>14.2</ele>
        <time>2020-05-31T16:18:24Z</time>
      </trkpt>
      <trkpt lat="46.22278" lon="-0.92136">
        <ele>14.3</ele>
        <time>2020-05-31T16:18:25Z</time>
      </trkpt>
      <trkpt lat="46.22279" lon="-0.92144">
        <ele>14.3</ele>
        <time>2020-05-31T16:18:26Z</time>
      </trkpt>
      <trkpt lat="46.22279" lon="-0.92152">
        <ele>14.4</ele>
        <time>2020-05-31T16:18:27Z</time>
      </trkpt>
      <trkpt lat="46.2228" lon="-0.92161">
        <ele>14.4</ele>
        <time>2020-05-31T16:18:28Z</time>
      </trkpt>
      <trkpt lat="46.2228" lon="-0.92168">
        <ele>14.5</ele>
        <time>2020-05-31T16:18:29Z</time>
      </trkpt>
      <trkpt lat="46.22281" lon="-0.92176">
        <ele>14.5</ele>
        <time>2020-05-31T16:18:30Z</time>
      </trkpt>
      <trkpt lat="46.22282" lon="-0.92184">
        <ele>14.6</ele>
        <time>2020-05-31T16:18:31Z</time>
      </trkpt>
      <trkpt lat="46.22282" lon="-0.92192">
        <ele>14.6</ele>
        <time>2020-05-31T16:18:32Z</time>
      </trkpt>
      <trkpt lat="46.22284" lon="-0.92199">
        <ele>14.6</ele>
        <time>2020-05-31T16:18:33Z</time>
      </trkpt>
      <trkpt lat="46.22285" lon="-0.92206">
        <ele>14.6</ele>
        <time>2020-05-31T16:18:34Z</time>
      </trkpt>
      <trkpt lat="46.22286" lon="-0.92213">
        <ele>14.6</ele>
        <time>2020-05-31T16:18:35Z</time>
      </trkpt>
      <trkpt lat="46.22286" lon="-0.92221">
        <ele>14.6</ele>
        <time>2020-05-31T16:18:36Z</time>
      </trkpt>
      <trkpt lat="46.22287" lon="-0.92229">
        <ele>14.5</ele>
        <time>2020-05-31T16:18:37Z</time>
      </trkpt>
      <trkpt lat="46.22288" lon="-0.92237">
        <ele>14.5</ele>
        <time>2020-05-31T16:18:38Z</time>
      </trkpt>
      <trkpt lat="46.22288" lon="-0.92245">
        <ele>14.5</ele>
        <time>2020-05-31T16:18:39Z</time>
      </trkpt>
      <trkpt lat="46.22288" lon="-0.92254">
        <ele>14.4</ele>
        <time>2020-05-31T16:18:40Z</time>
      </trkpt>
      <trkpt lat="46.22288" lon="-0.92263">
        <ele>14.4</ele>
        <time>2020-05-31T16:18:41Z</time>
      </trkpt>
      <trkpt lat="46.22289" lon="-0.92272">
        <ele>14.3</ele>
        <time>2020-05-31T16:18:42Z</time>
      </trkpt>
      <trkpt lat="46.22289" lon="-0.92281">
        <ele>14.3</ele>
        <time>2020-05-31T16:18:43Z</time>
      </trkpt>
      <trkpt lat="46.22289" lon="-0.9229">
        <ele>14.2</ele>
        <time>2020-05-31T16:18:44Z</time>
      </trkpt>
      <trkpt lat="46.2229" lon="-0.92299">
        <ele>14.1</ele>
        <time>2020-05-31T16:18:45Z</time>
      </trkpt>
      <trkpt lat="46.2229" lon="-0.92308">
        <ele>14</ele>
        <time>2020-05-31T16:18:46Z</time>
      </trkpt>
      <trkpt lat="46.22291" lon="-0.92317">
        <ele>13.9</ele>
        <time>2020-05-31T16:18:47Z</time>
      </trkpt>
      <trkpt lat="46.22291" lon="-0.92326">
        <ele>13.8</ele>
        <time>2020-05-31T16:18:48Z</time>
      </trkpt>
      <trkpt lat="46.22292" lon="-0.92336">
        <ele>13.7</ele>
        <time>2020-05-31T16:18:49Z</time>
      </trkpt>
      <trkpt lat="46.22293" lon="-0.92345">
        <ele>13.6</ele>
        <time>2020-05-31T16:18:50Z</time>
      </trkpt>
      <trkpt lat="46.22294" lon="-0.92355">
        <ele>13.5</ele>
        <time>2020-05-31T16:18:51Z</time>
      </trkpt>
      <trkpt lat="46.22295" lon="-0.92364">
        <ele>13.4</ele>
        <time>2020-05-31T16:18:52Z</time>
      </trkpt>
      <trkpt lat="46.22296" lon="-0.92374">
        <ele>13.3</ele>
        <time>2020-05-31T16:18:53Z</time>
      </trkpt>
      <trkpt lat="46.22297" lon="-0.92383">
        <ele>13.1</ele>
        <time>2020-05-31T16:18:54Z</time>
      </trkpt>
      <trkpt lat="46.22298" lon="-0.92392">
        <ele>13</ele>
        <time>2020-05-31T16:18:55Z</time>
      </trkpt>
      <trkpt lat="46.22299" lon="-0.92402">
        <ele>12.8</ele>
        <time>2020-05-31T16:18:56Z</time>
      </trkpt>
      <trkpt lat="46.223" lon="-0.92411">
        <ele>12.8</ele>
        <time>2020-05-31T16:18:57Z</time>
      </trkpt>
      <trkpt lat="46.22301" lon="-0.9242">
        <ele>12.7</ele>
        <time>2020-05-31T16:18:58Z</time>
      </trkpt>
      <trkpt lat="46.22302" lon="-0.9243">
        <ele>12.7</ele>
        <time>2020-05-31T16:18:59Z</time>
      </trkpt>
      <trkpt lat="46.22303" lon="-0.9244">
        <ele>12.7</ele>
        <time>2020-05-31T16:19:00Z</time>
      </trkpt>
      <trkpt lat="46.22304" lon="-0.92449">
        <ele>12.7</ele>
        <time>2020-05-31T16:19:01Z</time>
      </trkpt>
      <trkpt lat="46.22306" lon="-0.92459">
        <ele>12.6</ele>
        <time>2020-05-31T16:19:02Z</time>
      </trkpt>
      <trkpt lat="46.22307" lon="-0.92468">
        <ele>12.6</ele>
        <time>2020-05-31T16:19:03Z</time>
      </trkpt>
      <trkpt lat="46.22308" lon="-0.92477">
        <ele>12.6</ele>
        <time>2020-05-31T16:19:04Z</time>
      </trkpt>
      <trkpt lat="46.2231" lon="-0.92487">
        <ele>12.5</ele>
        <time>2020-05-31T16:19:05Z</time>
      </trkpt>
      <trkpt lat="46.22311" lon="-0.92497">
        <ele>12.4</ele>
        <time>2020-05-31T16:19:06Z</time>
      </trkpt>
      <trkpt lat="46.22312" lon="-0.92506">
        <ele>12.4</ele>
        <time>2020-05-31T16:19:07Z</time>
      </trkpt>
      <trkpt lat="46.22313" lon="-0.92516">
        <ele>12.3</ele>
        <time>2020-05-31T16:19:08Z</time>
      </trkpt>
      <trkpt lat="46.22314" lon="-0.92526">
        <ele>12.2</ele>
        <time>2020-05-31T16:19:09Z</time>
      </trkpt>
      <trkpt lat="46.22316" lon="-0.92535">
        <ele>12.2</ele>
        <time>2020-05-31T16:19:10Z</time>
      </trkpt>
      <trkpt lat="46.22317" lon="-0.92545">
        <ele>12.1</ele>
        <time>2020-05-31T16:19:11Z</time>
      </trkpt>
      <trkpt lat="46.22319" lon="-0.92554">
        <ele>12</ele>
        <time>2020-05-31T16:19:12Z</time>
      </trkpt>
      <trkpt lat="46.2232" lon="-0.92563">
        <ele>11.9</ele>
        <time>2020-05-31T16:19:13Z</time>
      </trkpt>
      <trkpt lat="46.22321" lon="-0.92573">
        <ele>11.8</ele>
        <time>2020-05-31T16:19:14Z</time>
      </trkpt>
      <trkpt lat="46.22323" lon="-0.92582">
        <ele>11.7</ele>
        <time>2020-05-31T16:19:15Z</time>
      </trkpt>
      <trkpt lat="46.22324" lon="-0.92591">
        <ele>11.6</ele>
        <time>2020-05-31T16:19:16Z</time>
      </trkpt>
      <trkpt lat="46.22325" lon="-0.92599">
        <ele>11.5</ele>
        <time>2020-05-31T16:19:17Z</time>
      </trkpt>
      <trkpt lat="46.22326" lon="-0.92608">
        <ele>11.5</ele>
        <time>2020-05-31T16:19:18Z</time>
      </trkpt>
      <trkpt lat="46.22328" lon="-0.92618">
        <ele>11.5</ele>
        <time>2020-05-31T16:19:19Z</time>
      </trkpt>
      <trkpt lat="46.22329" lon="-0.92627">
        <ele>11.4</ele>
        <time>2020-05-31T16:19:20Z</time>
      </trkpt>
      <trkpt lat="46.22331" lon="-0.92636">
        <ele>11.3</ele>
        <time>2020-05-31T16:19:21Z</time>
      </trkpt>
      <trkpt lat="46.22332" lon="-0.92645">
        <ele>11.2</ele>
        <time>2020-05-31T16:19:22Z</time>
      </trkpt>
      <trkpt lat="46.22333" lon="-0.92655">
        <ele>11.1</ele>
        <time>2020-05-31T16:19:23Z</time>
      </trkpt>
      <trkpt lat="46.22334" lon="-0.92664">
        <ele>11</ele>
        <time>2020-05-31T16:19:24Z</time>
      </trkpt>
      <trkpt lat="46.22336" lon="-0.92674">
        <ele>10.8</ele>
        <time>2020-05-31T16:19:25Z</time>
      </trkpt>
      <trkpt lat="46.22337" lon="-0.92683">
        <ele>10.7</ele>
        <time>2020-05-31T16:19:26Z</time>
      </trkpt>
      <trkpt lat="46.22339" lon="-0.92692">
        <ele>10.5</ele>
        <time>2020-05-31T16:19:27Z</time>
      </trkpt>
      <trkpt lat="46.2234" lon="-0.92701">
        <ele>10.3</ele>
        <time>2020-05-31T16:19:28Z</time>
      </trkpt>
      <trkpt lat="46.22341" lon="-0.92711">
        <ele>10.2</ele>
        <time>2020-05-31T16:19:29Z</time>
      </trkpt>
      <trkpt lat="46.22342" lon="-0.9272">
        <ele>10.1</ele>
        <time>2020-05-31T16:19:30Z</time>
      </trkpt>
      <trkpt lat="46.22343" lon="-0.92729">
        <ele>10</ele>
        <time>2020-05-31T16:19:31Z</time>
      </trkpt>
      <trkpt lat="46.22345" lon="-0.92739">
        <ele>9.8</ele>
        <time>2020-05-31T16:19:32Z</time>
      </trkpt>
      <trkpt lat="46.22347" lon="-0.92748">
        <ele>9.8</ele>
        <time>2020-05-31T16:19:33Z</time>
      </trkpt>
      <trkpt lat="46.22348" lon="-0.92757">
        <ele>9.7</ele>
        <time>2020-05-31T16:19:34Z</time>
      </trkpt>
      <trkpt lat="46.2235" lon="-0.92766">
        <ele>9.6</ele>
        <time>2020-05-31T16:19:35Z</time>
      </trkpt>
      <trkpt lat="46.22351" lon="-0.92776">
        <ele>9.5</ele>
        <time>2020-05-31T16:19:36Z</time>
      </trkpt>
      <trkpt lat="46.22353" lon="-0.92785">
        <ele>9.4</ele>
        <time>2020-05-31T16:19:37Z</time>
      </trkpt>
      <trkpt lat="46.22354" lon="-0.92794">
        <ele>9.3</ele>
        <time>2020-05-31T16:19:38Z</time>
      </trkpt>
      <trkpt lat="46.22356" lon="-0.92803">
        <ele>9.3</ele>
        <time>2020-05-31T16:19:39Z</time>
      </trkpt>
      <trkpt lat="46.22359" lon="-0.92812">
        <ele>9.2</ele>
        <time>2020-05-31T16:19:40Z</time>
      </trkpt>
      <trkpt lat="46.22361" lon="-0.92821">
        <ele>9.2</ele>
        <time>2020-05-31T16:19:41Z</time>
      </trkpt>
      <trkpt lat="46.22363" lon="-0.92829">
        <ele>9.1</ele>
        <time>2020-05-31T16:19:42Z</time>
      </trkpt>
      <trkpt lat="46.22365" lon="-0.92838">
        <ele>9.1</ele>
        <time>2020-05-31T16:19:43Z</time>
      </trkpt>
      <trkpt lat="46.22367" lon="-0.92847">
        <ele>9.1</ele>
        <time>2020-05-31T16:19:44Z</time>
      </trkpt>
      <trkpt lat="46.22369" lon="-0.92856">
        <ele>9.1</ele>
        <time>2020-05-31T16:19:45Z</time>
      </trkpt>
      <trkpt lat="46.22371" lon="-0.92865">
        <ele>9.1</ele>
        <time>2020-05-31T16:19:46Z</time>
      </trkpt>
      <trkpt lat="46.22373" lon="-0.92874">
        <ele>9</ele>
        <time>2020-05-31T16:19:47Z</time>
      </trkpt>
      <trkpt lat="46.22375" lon="-0.92883">
        <ele>9</ele>
        <time>2020-05-31T16:19:48Z</time>
      </trkpt>
      <trkpt lat="46.22377" lon="-0.92891">
        <ele>8.9</ele>
        <time>2020-05-31T16:19:49Z</time>
      </trkpt>
      <trkpt lat="46.2238" lon="-0.929">
        <ele>8.8</ele>
        <time>2020-05-31T16:19:50Z</time>
      </trkpt>
      <trkpt lat="46.22382" lon="-0.92907">
        <ele>8.7</ele>
        <time>2020-05-31T16:19:51Z</time>
      </trkpt>
      <trkpt lat="46.22385" lon="-0.92915">
        <ele>8.6</ele>
        <time>2020-05-31T16:19:52Z</time>
      </trkpt>
      <trkpt lat="46.22387" lon="-0.92923">
        <ele>8.6</ele>
        <time>2020-05-31T16:19:53Z</time>
      </trkpt>
      <trkpt lat="46.2239" lon="-0.92931">
        <ele>8.6</ele>
        <time>2020-05-31T16:19:54Z</time>
      </trkpt>
      <trkpt lat="46.22393" lon="-0.92938">
        <ele>8.6</ele>
        <time>2020-05-31T16:19:55Z</time>
      </trkpt>
      <trkpt lat="46.22396" lon="-0.92945">
        <ele>8.5</ele>
        <time>2020-05-31T16:19:56Z</time>
      </trkpt>
      <trkpt lat="46.22398" lon="-0.92953">
        <ele>8.5</ele>
        <time>2020-05-31T16:19:57Z</time>
      </trkpt>
      <trkpt lat="46.22401" lon="-0.9296">
        <ele>8.5</ele>
        <time>2020-05-31T16:19:58Z</time>
      </trkpt>
      <trkpt lat="46.22405" lon="-0.92968">
        <ele>8.6</ele>
        <time>2020-05-31T16:19:59Z</time>
      </trkpt>
      <trkpt lat="46.22407" lon="-0.92975">
        <ele>8.6</ele>
        <time>2020-05-31T16:20:00Z</time>
      </trkpt>
      <trkpt lat="46.2241" lon="-0.92983">
        <ele>8.6</ele>
        <time>2020-05-31T16:20:01Z</time>
      </trkpt>
      <trkpt lat="46.22413" lon="-0.92991">
        <ele>8.6</ele>
        <time>2020-05-31T16:20:02Z</time>
      </trkpt>
      <trkpt lat="46.22416" lon="-0.92998">
        <ele>8.6</ele>
        <time>2020-05-31T16:20:03Z</time>
      </trkpt>
      <trkpt lat="46.22418" lon="-0.93006">
        <ele>8.6</ele>
        <time>2020-05-31T16:20:04Z</time>
      </trkpt>
      <trkpt lat="46.2242" lon="-0.93013">
        <ele>8.6</ele>
        <time>2020-05-31T16:20:05Z</time>
      </trkpt>
      <trkpt lat="46.22422" lon="-0.9302">
        <ele>8.7</ele>
        <time>2020-05-31T16:20:06Z</time>
      </trkpt>
      <trkpt lat="46.22423" lon="-0.93027">
        <ele>8.7</ele>
        <time>2020-05-31T16:20:07Z</time>
      </trkpt>
      <trkpt lat="46.22424" lon="-0.93032">
        <ele>8.7</ele>
        <time>2020-05-31T16:20:08Z</time>
      </trkpt>
      <trkpt lat="46.22427" lon="-0.93036">
        <ele>8.7</ele>
        <time>2020-05-31T16:20:09Z</time>
      </trkpt>
      <trkpt lat="46.2243" lon="-0.93041">
        <ele>8.7</ele>
        <time>2020-05-31T16:20:10Z</time>
      </trkpt>
      <trkpt lat="46.22432" lon="-0.93046">
        <ele>8.7</ele>
        <time>2020-05-31T16:20:11Z</time>
      </trkpt>
      <trkpt lat="46.22435" lon="-0.93052">
        <ele>8.7</ele>
        <time>2020-05-31T16:20:12Z</time>
      </trkpt>
      <trkpt lat="46.22438" lon="-0.93058">
        <ele>8.7</ele>
        <time>2020-05-31T16:20:13Z</time>
      </trkpt>
      <trkpt lat="46.2244" lon="-0.93065">
        <ele>8.7</ele>
        <time>2020-05-31T16:20:14Z</time>
      </trkpt>
      <trkpt lat="46.22443" lon="-0.93071">
        <ele>8.7</ele>
        <time>2020-05-31T16:20:15Z</time>
      </trkpt>
      <trkpt lat="46.22446" lon="-0.93076">
        <ele>8.6</ele>
        <time>2020-05-31T16:20:16Z</time>
      </trkpt>
      <trkpt lat="46.22448" lon="-0.93082">
        <ele>8.6</ele>
        <time>2020-05-31T16:20:17Z</time>
      </trkpt>
      <trkpt lat="46.22451" lon="-0.93088">
        <ele>8.5</ele>
        <time>2020-05-31T16:20:18Z</time>
      </trkpt>
      <trkpt lat="46.22455" lon="-0.93093">
        <ele>8.4</ele>
        <time>2020-05-31T16:20:19Z</time>
      </trkpt>
      <trkpt lat="46.22458" lon="-0.93098">
        <ele>8.4</ele>
        <time>2020-05-31T16:20:20Z</time>
      </trkpt>
      <trkpt lat="46.22462" lon="-0.93101">
        <ele>8.3</ele>
        <time>2020-05-31T16:20:21Z</time>
      </trkpt>
      <trkpt lat="46.22465" lon="-0.93105">
        <ele>8.2</ele>
        <time>2020-05-31T16:20:22Z</time>
      </trkpt>
      <trkpt lat="46.22469" lon="-0.93107">
        <ele>8.2</ele>
        <time>2020-05-31T16:20:23Z</time>
      </trkpt>
      <trkpt lat="46.22472" lon="-0.93109">
        <ele>8.1</ele>
        <time>2020-05-31T16:20:24Z</time>
      </trkpt>
      <trkpt lat="46.22476" lon="-0.93109">
        <ele>8.1</ele>
        <time>2020-05-31T16:20:25Z</time>
      </trkpt>
      <trkpt lat="46.22481" lon="-0.93109">
        <ele>8</ele>
        <time>2020-05-31T16:20:26Z</time>
      </trkpt>
      <trkpt lat="46.22486" lon="-0.93108">
        <ele>8</ele>
        <time>2020-05-31T16:20:27Z</time>
      </trkpt>
      <trkpt lat="46.2249" lon="-0.93109">
        <ele>7.9</ele>
        <time>2020-05-31T16:20:28Z</time>
      </trkpt>
      <trkpt lat="46.22495" lon="-0.9311">
        <ele>7.9</ele>
        <time>2020-05-31T16:20:29Z</time>
      </trkpt>
      <trkpt lat="46.225" lon="-0.93112">
        <ele>7.9</ele>
        <time>2020-05-31T16:20:30Z</time>
      </trkpt>
      <trkpt lat="46.22503" lon="-0.93113">
        <ele>7.8</ele>
        <time>2020-05-31T16:20:31Z</time>
      </trkpt>
      <trkpt lat="46.22507" lon="-0.93114">
        <ele>7.8</ele>
        <time>2020-05-31T16:20:32Z</time>
      </trkpt>
      <trkpt lat="46.2251" lon="-0.93114">
        <ele>7.8</ele>
        <time>2020-05-31T16:20:33Z</time>
      </trkpt>
      <trkpt lat="46.22513" lon="-0.93116">
        <ele>7.8</ele>
        <time>2020-05-31T16:20:34Z</time>
      </trkpt>
      <trkpt lat="46.22515" lon="-0.9312">
        <ele>7.7</ele>
        <time>2020-05-31T16:20:35Z</time>
      </trkpt>
      <trkpt lat="46.22517" lon="-0.93126">
        <ele>7.7</ele>
        <time>2020-05-31T16:20:36Z</time>
      </trkpt>
      <trkpt lat="46.2252" lon="-0.93133">
        <ele>7.8</ele>
        <time>2020-05-31T16:20:37Z</time>
      </trkpt>
      <trkpt lat="46.22522" lon="-0.9314">
        <ele>7.8</ele>
        <time>2020-05-31T16:20:38Z</time>
      </trkpt>
      <trkpt lat="46.22526" lon="-0.93147">
        <ele>7.8</ele>
        <time>2020-05-31T16:20:39Z</time>
      </trkpt>
      <trkpt lat="46.22527" lon="-0.93153">
        <ele>7.8</ele>
        <time>2020-05-31T16:20:40Z</time>
      </trkpt>
      <trkpt lat="46.22529" lon="-0.93159">
        <ele>7.8</ele>
        <time>2020-05-31T16:20:41Z</time>
      </trkpt>
      <trkpt lat="46.2253" lon="-0.93165">
        <ele>7.9</ele>
        <time>2020-05-31T16:20:42Z</time>
      </trkpt>
      <trkpt lat="46.2253" lon="-0.93171">
        <ele>7.9</ele>
        <time>2020-05-31T16:20:43Z</time>
      </trkpt>
      <trkpt lat="46.22531" lon="-0.93178">
        <ele>8</ele>
        <time>2020-05-31T16:20:44Z</time>
      </trkpt>
      <trkpt lat="46.22534" lon="-0.93185">
        <ele>8</ele>
        <time>2020-05-31T16:20:45Z</time>
      </trkpt>
      <trkpt lat="46.22535" lon="-0.93193">
        <ele>8.1</ele>
        <time>2020-05-31T16:20:46Z</time>
      </trkpt>
      <trkpt lat="46.22537" lon="-0.93199">
        <ele>8.2</ele>
        <time>2020-05-31T16:20:47Z</time>
      </trkpt>
      <trkpt lat="46.22538" lon="-0.93206">
        <ele>8.2</ele>
        <time>2020-05-31T16:20:48Z</time>
      </trkpt>
      <trkpt lat="46.22541" lon="-0.93212">
        <ele>8.2</ele>
        <time>2020-05-31T16:20:49Z</time>
      </trkpt>
      <trkpt lat="46.22542" lon="-0.93219">
        <ele>8.2</ele>
        <time>2020-05-31T16:20:50Z</time>
      </trkpt>
      <trkpt lat="46.22543" lon="-0.93227">
        <ele>8.2</ele>
        <time>2020-05-31T16:20:51Z</time>
      </trkpt>
      <trkpt lat="46.22543" lon="-0.93235">
        <ele>8.2</ele>
        <time>2020-05-31T16:20:52Z</time>
      </trkpt>
      <trkpt lat="46.22545" lon="-0.93242">
        <ele>8.2</ele>
        <time>2020-05-31T16:20:53Z</time>
      </trkpt>
      <trkpt lat="46.22545" lon="-0.9325">
        <ele>8.2</ele>
        <time>2020-05-31T16:20:54Z</time>
      </trkpt>
      <trkpt lat="46.22547" lon="-0.93258">
        <ele>8.2</ele>
        <time>2020-05-31T16:20:55Z</time>
      </trkpt>
      <trkpt lat="46.22549" lon="-0.93267">
        <ele>8.2</ele>
        <time>2020-05-31T16:20:56Z</time>
      </trkpt>
      <trkpt lat="46.22551" lon="-0.93275">
        <ele>8.2</ele>
        <time>2020-05-31T16:20:57Z</time>
      </trkpt>
      <trkpt lat="46.22553" lon="-0.93283">
        <ele>8.2</ele>
        <time>2020-05-31T16:20:58Z</time>
      </trkpt>
      <trkpt lat="46.22554" lon="-0.93293">
        <ele>8.1</ele>
        <time>2020-05-31T16:20:59Z</time>
      </trkpt>
      <trkpt lat="46.22557" lon="-0.93302">
        <ele>8</ele>
        <time>2020-05-31T16:21:00Z</time>
      </trkpt>
      <trkpt lat="46.22559" lon="-0.9331">
        <ele>8</ele>
        <time>2020-05-31T16:21:01Z</time>
      </trkpt>
      <trkpt lat="46.22562" lon="-0.93318">
        <ele>7.9</ele>
        <time>2020-05-31T16:21:02Z</time>
      </trkpt>
      <trkpt lat="46.22564" lon="-0.93326">
        <ele>7.8</ele>
        <time>2020-05-31T16:21:03Z</time>
      </trkpt>
      <trkpt lat="46.22567" lon="-0.93334">
        <ele>7.8</ele>
        <time>2020-05-31T16:21:04Z</time>
      </trkpt>
      <trkpt lat="46.22569" lon="-0.93342">
        <ele>7.7</ele>
        <time>2020-05-31T16:21:05Z</time>
      </trkpt>
      <trkpt lat="46.22572" lon="-0.93351">
        <ele>7.6</ele>
        <time>2020-05-31T16:21:06Z</time>
      </trkpt>
      <trkpt lat="46.22575" lon="-0.93359">
        <ele>7.6</ele>
        <time>2020-05-31T16:21:07Z</time>
      </trkpt>
      <trkpt lat="46.22577" lon="-0.93367">
        <ele>7.6</ele>
        <time>2020-05-31T16:21:08Z</time>
      </trkpt>
      <trkpt lat="46.22579" lon="-0.93375">
        <ele>7.6</ele>
        <time>2020-05-31T16:21:09Z</time>
      </trkpt>
      <trkpt lat="46.22581" lon="-0.93381">
        <ele>7.5</ele>
        <time>2020-05-31T16:21:10Z</time>
      </trkpt>
      <trkpt lat="46.22583" lon="-0.93389">
        <ele>7.5</ele>
        <time>2020-05-31T16:21:11Z</time>
      </trkpt>
      <trkpt lat="46.22586" lon="-0.93395">
        <ele>7.5</ele>
        <time>2020-05-31T16:21:12Z</time>
      </trkpt>
      <trkpt lat="46.22588" lon="-0.93403">
        <ele>7.4</ele>
        <time>2020-05-31T16:21:13Z</time>
      </trkpt>
      <trkpt lat="46.22591" lon="-0.93411">
        <ele>7.3</ele>
        <time>2020-05-31T16:21:14Z</time>
      </trkpt>
      <trkpt lat="46.22593" lon="-0.93421">
        <ele>7.2</ele>
        <time>2020-05-31T16:21:15Z</time>
      </trkpt>
      <trkpt lat="46.22597" lon="-0.93429">
        <ele>7.1</ele>
        <time>2020-05-31T16:21:16Z</time>
      </trkpt>
      <trkpt lat="46.226" lon="-0.93436">
        <ele>7.1</ele>
        <time>2020-05-31T16:21:17Z</time>
      </trkpt>
      <trkpt lat="46.22603" lon="-0.93444">
        <ele>7</ele>
        <time>2020-05-31T16:21:18Z</time>
      </trkpt>
      <trkpt lat="46.22607" lon="-0.93451">
        <ele>7</ele>
        <time>2020-05-31T16:21:19Z</time>
      </trkpt>
      <trkpt lat="46.2261" lon="-0.9346">
        <ele>7</ele>
        <time>2020-05-31T16:21:20Z</time>
      </trkpt>
      <trkpt lat="46.22613" lon="-0.93468">
        <ele>7</ele>
        <time>2020-05-31T16:21:21Z</time>
      </trkpt>
      <trkpt lat="46.22616" lon="-0.93477">
        <ele>7</ele>
        <time>2020-05-31T16:21:22Z</time>
      </trkpt>
      <trkpt lat="46.2262" lon="-0.93485">
        <ele>7</ele>
        <time>2020-05-31T16:21:23Z</time>
      </trkpt>
      <trkpt lat="46.22623" lon="-0.93494">
        <ele>7</ele>
        <time>2020-05-31T16:21:24Z</time>
      </trkpt>
      <trkpt lat="46.22625" lon="-0.93502">
        <ele>7</ele>
        <time>2020-05-31T16:21:25Z</time>
      </trkpt>
      <trkpt lat="46.22628" lon="-0.9351">
        <ele>6.9</ele>
        <time>2020-05-31T16:21:26Z</time>
      </trkpt>
      <trkpt lat="46.22631" lon="-0.93518">
        <ele>6.9</ele>
        <time>2020-05-31T16:21:27Z</time>
      </trkpt>
      <trkpt lat="46.22634" lon="-0.93526">
        <ele>6.9</ele>
        <time>2020-05-31T16:21:28Z</time>
      </trkpt>
      <trkpt lat="46.22637" lon="-0.93534">
        <ele>6.9</ele>
        <time>2020-05-31T16:21:29Z</time>
      </trkpt>
      <trkpt lat="46.22639" lon="-0.93542">
        <ele>6.9</ele>
        <time>2020-05-31T16:21:30Z</time>
      </trkpt>
      <trkpt lat="46.22642" lon="-0.93549">
        <ele>6.9</ele>
        <time>2020-05-31T16:21:31Z</time>
      </trkpt>
      <trkpt lat="46.22644" lon="-0.93556">
        <ele>6.9</ele>
        <time>2020-05-31T16:21:32Z</time>
      </trkpt>
      <trkpt lat="46.22647" lon="-0.93563">
        <ele>6.9</ele>
        <time>2020-05-31T16:21:33Z</time>
      </trkpt>
      <trkpt lat="46.22649" lon="-0.93569">
        <ele>6.9</ele>
        <time>2020-05-31T16:21:34Z</time>
      </trkpt>
      <trkpt lat="46.22652" lon="-0.93575">
        <ele>6.9</ele>
        <time>2020-05-31T16:21:35Z</time>
      </trkpt>
      <trkpt lat="46.22654" lon="-0.93582">
        <ele>6.9</ele>
        <time>2020-05-31T16:21:36Z</time>
      </trkpt>
      <trkpt lat="46.22656" lon="-0.93589">
        <ele>6.9</ele>
        <time>2020-05-31T16:21:37Z</time>
      </trkpt>
      <trkpt lat="46.22659" lon="-0.93596">
        <ele>6.9</ele>
        <time>2020-05-31T16:21:38Z</time>
      </trkpt>
      <trkpt lat="46.22661" lon="-0.93604">
        <ele>6.9</ele>
        <time>2020-05-31T16:21:39Z</time>
      </trkpt>
      <trkpt lat="46.22665" lon="-0.9361">
        <ele>6.9</ele>
        <time>2020-05-31T16:21:40Z</time>
      </trkpt>
      <trkpt lat="46.22667" lon="-0.93618">
        <ele>6.9</ele>
        <time>2020-05-31T16:21:41Z</time>
      </trkpt>
      <trkpt lat="46.2267" lon="-0.93625">
        <ele>6.9</ele>
        <time>2020-05-31T16:21:42Z</time>
      </trkpt>
      <trkpt lat="46.22671" lon="-0.93632">
        <ele>6.9</ele>
        <time>2020-05-31T16:21:43Z</time>
      </trkpt>
      <trkpt lat="46.22673" lon="-0.93639">
        <ele>6.9</ele>
        <time>2020-05-31T16:21:44Z</time>
      </trkpt>
      <trkpt lat="46.22675" lon="-0.93647">
        <ele>6.9</ele>
        <time>2020-05-31T16:21:45Z</time>
      </trkpt>
      <trkpt lat="46.22676" lon="-0.93655">
        <ele>6.9</ele>
        <time>2020-05-31T16:21:46Z</time>
      </trkpt>
      <trkpt lat="46.22678" lon="-0.93663">
        <ele>6.9</ele>
        <time>2020-05-31T16:21:47Z</time>
      </trkpt>
      <trkpt lat="46.2268" lon="-0.93671">
        <ele>6.9</ele>
        <time>2020-05-31T16:21:48Z</time>
      </trkpt>
      <trkpt lat="46.22682" lon="-0.9368">
        <ele>6.9</ele>
        <time>2020-05-31T16:21:49Z</time>
      </trkpt>
      <trkpt lat="46.22683" lon="-0.93688">
        <ele>6.9</ele>
        <time>2020-05-31T16:21:50Z</time>
      </trkpt>
      <trkpt lat="46.22684" lon="-0.93696">
        <ele>6.9</ele>
        <time>2020-05-31T16:21:51Z</time>
      </trkpt>
      <trkpt lat="46.22687" lon="-0.93703">
        <ele>6.9</ele>
        <time>2020-05-31T16:21:52Z</time>
      </trkpt>
      <trkpt lat="46.22688" lon="-0.9371">
        <ele>6.9</ele>
        <time>2020-05-31T16:21:53Z</time>
      </trkpt>
      <trkpt lat="46.2269" lon="-0.93718">
        <ele>6.9</ele>
        <time>2020-05-31T16:21:54Z</time>
      </trkpt>
      <trkpt lat="46.22691" lon="-0.93726">
        <ele>6.9</ele>
        <time>2020-05-31T16:21:55Z</time>
      </trkpt>
      <trkpt lat="46.22692" lon="-0.93734">
        <ele>6.9</ele>
        <time>2020-05-31T16:21:56Z</time>
      </trkpt>
      <trkpt lat="46.22693" lon="-0.93741">
        <ele>6.9</ele>
        <time>2020-05-31T16:21:57Z</time>
      </trkpt>
      <trkpt lat="46.22694" lon="-0.93748">
        <ele>6.9</ele>
        <time>2020-05-31T16:21:58Z</time>
      </trkpt>
      <trkpt lat="46.22696" lon="-0.93756">
        <ele>6.9</ele>
        <time>2020-05-31T16:21:59Z</time>
      </trkpt>
      <trkpt lat="46.22697" lon="-0.93763">
        <ele>6.9</ele>
        <time>2020-05-31T16:22:00Z</time>
      </trkpt>
      <trkpt lat="46.22697" lon="-0.93769">
        <ele>6.9</ele>
        <time>2020-05-31T16:22:01Z</time>
      </trkpt>
      <trkpt lat="46.22699" lon="-0.93775">
        <ele>6.9</ele>
        <time>2020-05-31T16:22:02Z</time>
      </trkpt>
      <trkpt lat="46.227" lon="-0.93781">
        <ele>6.9</ele>
        <time>2020-05-31T16:22:03Z</time>
      </trkpt>
      <trkpt lat="46.22702" lon="-0.93788">
        <ele>6.9</ele>
        <time>2020-05-31T16:22:04Z</time>
      </trkpt>
      <trkpt lat="46.22704" lon="-0.93795">
        <ele>6.9</ele>
        <time>2020-05-31T16:22:05Z</time>
      </trkpt>
      <trkpt lat="46.22706" lon="-0.93801">
        <ele>6.9</ele>
        <time>2020-05-31T16:22:06Z</time>
      </trkpt>
      <trkpt lat="46.22708" lon="-0.93808">
        <ele>6.9</ele>
        <time>2020-05-31T16:22:07Z</time>
      </trkpt>
      <trkpt lat="46.22709" lon="-0.93815">
        <ele>6.9</ele>
        <time>2020-05-31T16:22:08Z</time>
      </trkpt>
      <trkpt lat="46.2271" lon="-0.93823">
        <ele>6.9</ele>
        <time>2020-05-31T16:22:09Z</time>
      </trkpt>
      <trkpt lat="46.22711" lon="-0.93831">
        <ele>6.9</ele>
        <time>2020-05-31T16:22:10Z</time>
      </trkpt>
      <trkpt lat="46.22712" lon="-0.93838">
        <ele>6.9</ele>
        <time>2020-05-31T16:22:11Z</time>
      </trkpt>
      <trkpt lat="46.22713" lon="-0.93844">
        <ele>6.9</ele>
        <time>2020-05-31T16:22:12Z</time>
      </trkpt>
      <trkpt lat="46.22714" lon="-0.93851">
        <ele>6.9</ele>
        <time>2020-05-31T16:22:13Z</time>
      </trkpt>
      <trkpt lat="46.22716" lon="-0.93859">
        <ele>6.9</ele>
        <time>2020-05-31T16:22:14Z</time>
      </trkpt>
      <trkpt lat="46.22717" lon="-0.93867">
        <ele>6.9</ele>
        <time>2020-05-31T16:22:15Z</time>
      </trkpt>
      <trkpt lat="46.22719" lon="-0.93874">
        <ele>6.9</ele>
        <time>2020-05-31T16:22:16Z</time>
      </trkpt>
      <trkpt lat="46.2272" lon="-0.93881">
        <ele>6.8</ele>
        <time>2020-05-31T16:22:17Z</time>
      </trkpt>
      <trkpt lat="46.22721" lon="-0.93888">
        <ele>6.8</ele>
        <time>2020-05-31T16:22:18Z</time>
      </trkpt>
      <trkpt lat="46.22722" lon="-0.93895">
        <ele>6.8</ele>
        <time>2020-05-31T16:22:19Z</time>
      </trkpt>
      <trkpt lat="46.22723" lon="-0.93902">
        <ele>6.8</ele>
        <time>2020-05-31T16:22:20Z</time>
      </trkpt>
      <trkpt lat="46.22725" lon="-0.9391">
        <ele>6.8</ele>
        <time>2020-05-31T16:22:21Z</time>
      </trkpt>
      <trkpt lat="46.22727" lon="-0.93918">
        <ele>6.8</ele>
        <time>2020-05-31T16:22:22Z</time>
      </trkpt>
      <trkpt lat="46.22729" lon="-0.93926">
        <ele>6.8</ele>
        <time>2020-05-31T16:22:23Z</time>
      </trkpt>
      <trkpt lat="46.2273" lon="-0.93934">
        <ele>6.8</ele>
        <time>2020-05-31T16:22:24Z</time>
      </trkpt>
      <trkpt lat="46.22732" lon="-0.93941">
        <ele>6.8</ele>
        <time>2020-05-31T16:22:25Z</time>
      </trkpt>
      <trkpt lat="46.22734" lon="-0.93948">
        <ele>6.8</ele>
        <time>2020-05-31T16:22:26Z</time>
      </trkpt>
      <trkpt lat="46.22736" lon="-0.93956">
        <ele>6.8</ele>
        <time>2020-05-31T16:22:27Z</time>
      </trkpt>
      <trkpt lat="46.22737" lon="-0.93965">
        <ele>6.8</ele>
        <time>2020-05-31T16:22:28Z</time>
      </trkpt>
      <trkpt lat="46.22738" lon="-0.93973">
        <ele>6.8</ele>
        <time>2020-05-31T16:22:29Z</time>
      </trkpt>
      <trkpt lat="46.22739" lon="-0.93981">
        <ele>6.8</ele>
        <time>2020-05-31T16:22:30Z</time>
      </trkpt>
      <trkpt lat="46.22741" lon="-0.93989">
        <ele>6.7</ele>
        <time>2020-05-31T16:22:31Z</time>
      </trkpt>
      <trkpt lat="46.22743" lon="-0.93996">
        <ele>6.7</ele>
        <time>2020-05-31T16:22:32Z</time>
      </trkpt>
      <trkpt lat="46.22744" lon="-0.94003">
        <ele>6.6</ele>
        <time>2020-05-31T16:22:33Z</time>
      </trkpt>
      <trkpt lat="46.22746" lon="-0.94011">
        <ele>6.6</ele>
        <time>2020-05-31T16:22:34Z</time>
      </trkpt>
      <trkpt lat="46.22747" lon="-0.9402">
        <ele>6.5</ele>
        <time>2020-05-31T16:22:35Z</time>
      </trkpt>
      <trkpt lat="46.22749" lon="-0.94028">
        <ele>6.4</ele>
        <time>2020-05-31T16:22:36Z</time>
      </trkpt>
      <trkpt lat="46.22749" lon="-0.94036">
        <ele>6.4</ele>
        <time>2020-05-31T16:22:37Z</time>
      </trkpt>
      <trkpt lat="46.2275" lon="-0.94044">
        <ele>6.3</ele>
        <time>2020-05-31T16:22:38Z</time>
      </trkpt>
      <trkpt lat="46.22751" lon="-0.94052">
        <ele>6.2</ele>
        <time>2020-05-31T16:22:39Z</time>
      </trkpt>
      <trkpt lat="46.22753" lon="-0.94061">
        <ele>6.2</ele>
        <time>2020-05-31T16:22:40Z</time>
      </trkpt>
      <trkpt lat="46.22754" lon="-0.94069">
        <ele>6.1</ele>
        <time>2020-05-31T16:22:41Z</time>
      </trkpt>
      <trkpt lat="46.22755" lon="-0.94077">
        <ele>6.1</ele>
        <time>2020-05-31T16:22:42Z</time>
      </trkpt>
      <trkpt lat="46.22756" lon="-0.94085">
        <ele>6</ele>
        <time>2020-05-31T16:22:43Z</time>
      </trkpt>
      <trkpt lat="46.22758" lon="-0.94092">
        <ele>6</ele>
        <time>2020-05-31T16:22:44Z</time>
      </trkpt>
      <trkpt lat="46.2276" lon="-0.941">
        <ele>6</ele>
        <time>2020-05-31T16:22:45Z</time>
      </trkpt>
      <trkpt lat="46.22763" lon="-0.94108">
        <ele>5.9</ele>
        <time>2020-05-31T16:22:46Z</time>
      </trkpt>
      <trkpt lat="46.22764" lon="-0.94117">
        <ele>5.8</ele>
        <time>2020-05-31T16:22:47Z</time>
      </trkpt>
      <trkpt lat="46.22767" lon="-0.94126">
        <ele>5.7</ele>
        <time>2020-05-31T16:22:48Z</time>
      </trkpt>
      <trkpt lat="46.22769" lon="-0.94135">
        <ele>5.7</ele>
        <time>2020-05-31T16:22:49Z</time>
      </trkpt>
      <trkpt lat="46.22771" lon="-0.94145">
        <ele>5.6</ele>
        <time>2020-05-31T16:22:50Z</time>
      </trkpt>
      <trkpt lat="46.22772" lon="-0.94154">
        <ele>5.5</ele>
        <time>2020-05-31T16:22:51Z</time>
      </trkpt>
      <trkpt lat="46.22775" lon="-0.94165">
        <ele>5.4</ele>
        <time>2020-05-31T16:22:52Z</time>
      </trkpt>
      <trkpt lat="46.22776" lon="-0.94176">
        <ele>5.4</ele>
        <time>2020-05-31T16:22:53Z</time>
      </trkpt>
      <trkpt lat="46.22778" lon="-0.94187">
        <ele>5.3</ele>
        <time>2020-05-31T16:22:54Z</time>
      </trkpt>
      <trkpt lat="46.22779" lon="-0.94198">
        <ele>5.3</ele>
        <time>2020-05-31T16:22:55Z</time>
      </trkpt>
      <trkpt lat="46.22781" lon="-0.94209">
        <ele>5.3</ele>
        <time>2020-05-31T16:22:56Z</time>
      </trkpt>
      <trkpt lat="46.2278" lon="-0.94221">
        <ele>5.3</ele>
        <time>2020-05-31T16:22:57Z</time>
      </trkpt>
      <trkpt lat="46.22782" lon="-0.94235">
        <ele>5.3</ele>
        <time>2020-05-31T16:22:58Z</time>
      </trkpt>
      <trkpt lat="46.22782" lon="-0.94248">
        <ele>5.3</ele>
        <time>2020-05-31T16:22:59Z</time>
      </trkpt>
      <trkpt lat="46.22783" lon="-0.94261">
        <ele>5.3</ele>
        <time>2020-05-31T16:23:00Z</time>
      </trkpt>
      <trkpt lat="46.22783" lon="-0.94275">
        <ele>5.3</ele>
        <time>2020-05-31T16:23:01Z</time>
      </trkpt>
      <trkpt lat="46.22784" lon="-0.94289">
        <ele>5.3</ele>
        <time>2020-05-31T16:23:02Z</time>
      </trkpt>
      <trkpt lat="46.22784" lon="-0.94301">
        <ele>5.3</ele>
        <time>2020-05-31T16:23:03Z</time>
      </trkpt>
      <trkpt lat="46.22784" lon="-0.94313">
        <ele>5.3</ele>
        <time>2020-05-31T16:23:04Z</time>
      </trkpt>
      <trkpt lat="46.22782" lon="-0.94327">
        <ele>5.3</ele>
        <time>2020-05-31T16:23:05Z</time>
      </trkpt>
      <trkpt lat="46.2278" lon="-0.94341">
        <ele>5.3</ele>
        <time>2020-05-31T16:23:06Z</time>
      </trkpt>
      <trkpt lat="46.22779" lon="-0.94353">
        <ele>5.3</ele>
        <time>2020-05-31T16:23:07Z</time>
      </trkpt>
      <trkpt lat="46.22776" lon="-0.94366">
        <ele>5.3</ele>
        <time>2020-05-31T16:23:08Z</time>
      </trkpt>
      <trkpt lat="46.22773" lon="-0.94377">
        <ele>5.2</ele>
        <time>2020-05-31T16:23:09Z</time>
      </trkpt>
      <trkpt lat="46.22771" lon="-0.94388">
        <ele>5.3</ele>
        <time>2020-05-31T16:23:10Z</time>
      </trkpt>
      <trkpt lat="46.22768" lon="-0.94398">
        <ele>5.3</ele>
        <time>2020-05-31T16:23:11Z</time>
      </trkpt>
      <trkpt lat="46.22765" lon="-0.9441">
        <ele>5.4</ele>
        <time>2020-05-31T16:23:12Z</time>
      </trkpt>
      <trkpt lat="46.22761" lon="-0.94421">
        <ele>5.4</ele>
        <time>2020-05-31T16:23:13Z</time>
      </trkpt>
      <trkpt lat="46.22758" lon="-0.9443">
        <ele>5.5</ele>
        <time>2020-05-31T16:23:14Z</time>
      </trkpt>
      <trkpt lat="46.22754" lon="-0.9444">
        <ele>5.5</ele>
        <time>2020-05-31T16:23:15Z</time>
      </trkpt>
      <trkpt lat="46.2275" lon="-0.94448">
        <ele>5.5</ele>
        <time>2020-05-31T16:23:16Z</time>
      </trkpt>
      <trkpt lat="46.22746" lon="-0.94456">
        <ele>5.6</ele>
        <time>2020-05-31T16:23:17Z</time>
      </trkpt>
      <trkpt lat="46.22741" lon="-0.94463">
        <ele>5.6</ele>
        <time>2020-05-31T16:23:18Z</time>
      </trkpt>
      <trkpt lat="46.22735" lon="-0.94471">
        <ele>5.7</ele>
        <time>2020-05-31T16:23:19Z</time>
      </trkpt>
      <trkpt lat="46.22729" lon="-0.94478">
        <ele>5.7</ele>
        <time>2020-05-31T16:23:20Z</time>
      </trkpt>
      <trkpt lat="46.22722" lon="-0.94486">
        <ele>5.8</ele>
        <time>2020-05-31T16:23:21Z</time>
      </trkpt>
      <trkpt lat="46.22716" lon="-0.94492">
        <ele>5.8</ele>
        <time>2020-05-31T16:23:22Z</time>
      </trkpt>
      <trkpt lat="46.22709" lon="-0.94498">
        <ele>5.8</ele>
        <time>2020-05-31T16:23:23Z</time>
      </trkpt>
      <trkpt lat="46.22703" lon="-0.94503">
        <ele>5.8</ele>
        <time>2020-05-31T16:23:24Z</time>
      </trkpt>
      <trkpt lat="46.22697" lon="-0.94507">
        <ele>5.9</ele>
        <time>2020-05-31T16:23:25Z</time>
      </trkpt>
      <trkpt lat="46.2269" lon="-0.9451">
        <ele>5.9</ele>
        <time>2020-05-31T16:23:26Z</time>
      </trkpt>
      <trkpt lat="46.22684" lon="-0.94514">
        <ele>6</ele>
        <time>2020-05-31T16:23:27Z</time>
      </trkpt>
      <trkpt lat="46.22678" lon="-0.94516">
        <ele>6</ele>
        <time>2020-05-31T16:23:28Z</time>
      </trkpt>
      <trkpt lat="46.22672" lon="-0.94519">
        <ele>6.1</ele>
        <time>2020-05-31T16:23:29Z</time>
      </trkpt>
      <trkpt lat="46.22665" lon="-0.94522">
        <ele>6.1</ele>
        <time>2020-05-31T16:23:30Z</time>
      </trkpt>
      <trkpt lat="46.22659" lon="-0.94524">
        <ele>6.2</ele>
        <time>2020-05-31T16:23:31Z</time>
      </trkpt>
      <trkpt lat="46.22652" lon="-0.94526">
        <ele>6.2</ele>
        <time>2020-05-31T16:23:32Z</time>
      </trkpt>
      <trkpt lat="46.22646" lon="-0.94528">
        <ele>6.2</ele>
        <time>2020-05-31T16:23:33Z</time>
      </trkpt>
      <trkpt lat="46.22639" lon="-0.9453">
        <ele>6.3</ele>
        <time>2020-05-31T16:23:34Z</time>
      </trkpt>
      <trkpt lat="46.22633" lon="-0.94533">
        <ele>6.3</ele>
        <time>2020-05-31T16:23:35Z</time>
      </trkpt>
      <trkpt lat="46.22627" lon="-0.94536">
        <ele>6.4</ele>
        <time>2020-05-31T16:23:36Z</time>
      </trkpt>
      <trkpt lat="46.22621" lon="-0.94539">
        <ele>6.5</ele>
        <time>2020-05-31T16:23:37Z</time>
      </trkpt>
      <trkpt lat="46.22614" lon="-0.9454">
        <ele>6.7</ele>
        <time>2020-05-31T16:23:38Z</time>
      </trkpt>
      <trkpt lat="46.22608" lon="-0.94542">
        <ele>6.8</ele>
        <time>2020-05-31T16:23:39Z</time>
      </trkpt>
      <trkpt lat="46.22602" lon="-0.94543">
        <ele>6.9</ele>
        <time>2020-05-31T16:23:40Z</time>
      </trkpt>
      <trkpt lat="46.22597" lon="-0.94545">
        <ele>7</ele>
        <time>2020-05-31T16:23:41Z</time>
      </trkpt>
      <trkpt lat="46.22591" lon="-0.94546">
        <ele>7</ele>
        <time>2020-05-31T16:23:42Z</time>
      </trkpt>
      <trkpt lat="46.22586" lon="-0.94547">
        <ele>7.1</ele>
        <time>2020-05-31T16:23:43Z</time>
      </trkpt>
      <trkpt lat="46.22582" lon="-0.9455">
        <ele>7.1</ele>
        <time>2020-05-31T16:23:44Z</time>
      </trkpt>
      <trkpt lat="46.22577" lon="-0.94552">
        <ele>7.1</ele>
        <time>2020-05-31T16:23:45Z</time>
      </trkpt>
      <trkpt lat="46.22573" lon="-0.94558">
        <ele>7.2</ele>
        <time>2020-05-31T16:23:46Z</time>
      </trkpt>
      <trkpt lat="46.2257" lon="-0.94565">
        <ele>7.2</ele>
        <time>2020-05-31T16:23:47Z</time>
      </trkpt>
      <trkpt lat="46.22568" lon="-0.94572">
        <ele>7.3</ele>
        <time>2020-05-31T16:23:48Z</time>
      </trkpt>
      <trkpt lat="46.22566" lon="-0.94578">
        <ele>7.2</ele>
        <time>2020-05-31T16:23:49Z</time>
      </trkpt>
      <trkpt lat="46.22563" lon="-0.94583">
        <ele>7.2</ele>
        <time>2020-05-31T16:23:50Z</time>
      </trkpt>
      <trkpt lat="46.22559" lon="-0.94586">
        <ele>7.2</ele>
        <time>2020-05-31T16:23:51Z</time>
      </trkpt>
      <trkpt lat="46.22554" lon="-0.94586">
        <ele>7</ele>
        <time>2020-05-31T16:23:52Z</time>
      </trkpt>
      <trkpt lat="46.22549" lon="-0.94584">
        <ele>6.9</ele>
        <time>2020-05-31T16:23:53Z</time>
      </trkpt>
      <trkpt lat="46.22545" lon="-0.94581">
        <ele>6.9</ele>
        <time>2020-05-31T16:23:54Z</time>
      </trkpt>
      <trkpt lat="46.22541" lon="-0.94576">
        <ele>6.7</ele>
        <time>2020-05-31T16:23:55Z</time>
      </trkpt>
      <trkpt lat="46.22538" lon="-0.9457">
        <ele>6.6</ele>
        <time>2020-05-31T16:23:56Z</time>
      </trkpt>
      <trkpt lat="46.22534" lon="-0.94563">
        <ele>6.5</ele>
        <time>2020-05-31T16:23:57Z</time>
      </trkpt>
      <trkpt lat="46.22529" lon="-0.94559">
        <ele>6.4</ele>
        <time>2020-05-31T16:23:58Z</time>
      </trkpt>
      <trkpt lat="46.22524" lon="-0.94556">
        <ele>6.3</ele>
        <time>2020-05-31T16:23:59Z</time>
      </trkpt>
      <trkpt lat="46.22518" lon="-0.94555">
        <ele>6.2</ele>
        <time>2020-05-31T16:24:00Z</time>
      </trkpt>
      <trkpt lat="46.22513" lon="-0.94557">
        <ele>6.2</ele>
        <time>2020-05-31T16:24:01Z</time>
      </trkpt>
      <trkpt lat="46.22508" lon="-0.94561">
        <ele>6.2</ele>
        <time>2020-05-31T16:24:02Z</time>
      </trkpt>
      <trkpt lat="46.22504" lon="-0.94567">
        <ele>6.1</ele>
        <time>2020-05-31T16:24:03Z</time>
      </trkpt>
      <trkpt lat="46.22499" lon="-0.94572">
        <ele>6.1</ele>
        <time>2020-05-31T16:24:04Z</time>
      </trkpt>
      <trkpt lat="46.22494" lon="-0.94577">
        <ele>6.1</ele>
        <time>2020-05-31T16:24:05Z</time>
      </trkpt>
      <trkpt lat="46.2249" lon="-0.94583">
        <ele>6</ele>
        <time>2020-05-31T16:24:06Z</time>
      </trkpt>
      <trkpt lat="46.22485" lon="-0.94587">
        <ele>6</ele>
        <time>2020-05-31T16:24:07Z</time>
      </trkpt>
      <trkpt lat="46.22481" lon="-0.94592">
        <ele>5.9</ele>
        <time>2020-05-31T16:24:08Z</time>
      </trkpt>
      <trkpt lat="46.22476" lon="-0.94596">
        <ele>5.9</ele>
        <time>2020-05-31T16:24:09Z</time>
      </trkpt>
      <trkpt lat="46.22471" lon="-0.94601">
        <ele>5.8</ele>
        <time>2020-05-31T16:24:10Z</time>
      </trkpt>
      <trkpt lat="46.22467" lon="-0.94605">
        <ele>5.8</ele>
        <time>2020-05-31T16:24:11Z</time>
      </trkpt>
      <trkpt lat="46.22463" lon="-0.94608">
        <ele>5.7</ele>
        <time>2020-05-31T16:24:12Z</time>
      </trkpt>
      <trkpt lat="46.22458" lon="-0.94609">
        <ele>5.7</ele>
        <time>2020-05-31T16:24:13Z</time>
      </trkpt>
      <trkpt lat="46.22454" lon="-0.94611">
        <ele>5.7</ele>
        <time>2020-05-31T16:24:14Z</time>
      </trkpt>
      <trkpt lat="46.22449" lon="-0.94614">
        <ele>5.7</ele>
        <time>2020-05-31T16:24:15Z</time>
      </trkpt>
      <trkpt lat="46.22444" lon="-0.94616">
        <ele>5.7</ele>
        <time>2020-05-31T16:24:16Z</time>
      </trkpt>
      <trkpt lat="46.2244" lon="-0.94618">
        <ele>5.7</ele>
        <time>2020-05-31T16:24:17Z</time>
      </trkpt>
      <trkpt lat="46.22435" lon="-0.94621">
        <ele>5.7</ele>
        <time>2020-05-31T16:24:18Z</time>
      </trkpt>
      <trkpt lat="46.22431" lon="-0.94624">
        <ele>5.7</ele>
        <time>2020-05-31T16:24:19Z</time>
      </trkpt>
      <trkpt lat="46.22426" lon="-0.94626">
        <ele>5.7</ele>
        <time>2020-05-31T16:24:20Z</time>
      </trkpt>
      <trkpt lat="46.2242" lon="-0.94629">
        <ele>5.7</ele>
        <time>2020-05-31T16:24:21Z</time>
      </trkpt>
      <trkpt lat="46.22415" lon="-0.94632">
        <ele>5.7</ele>
        <time>2020-05-31T16:24:22Z</time>
      </trkpt>
      <trkpt lat="46.22409" lon="-0.94634">
        <ele>5.7</ele>
        <time>2020-05-31T16:24:23Z</time>
      </trkpt>
      <trkpt lat="46.22404" lon="-0.94636">
        <ele>5.6</ele>
        <time>2020-05-31T16:24:24Z</time>
      </trkpt>
      <trkpt lat="46.22398" lon="-0.94638">
        <ele>5.6</ele>
        <time>2020-05-31T16:24:25Z</time>
      </trkpt>
      <trkpt lat="46.22393" lon="-0.9464">
        <ele>5.6</ele>
        <time>2020-05-31T16:24:26Z</time>
      </trkpt>
      <trkpt lat="46.22388" lon="-0.94641">
        <ele>5.6</ele>
        <time>2020-05-31T16:24:27Z</time>
      </trkpt>
      <trkpt lat="46.22384" lon="-0.94641">
        <ele>5.6</ele>
        <time>2020-05-31T16:24:28Z</time>
      </trkpt>
      <trkpt lat="46.22379" lon="-0.94642">
        <ele>5.6</ele>
        <time>2020-05-31T16:24:29Z</time>
      </trkpt>
      <trkpt lat="46.22374" lon="-0.94643">
        <ele>5.5</ele>
        <time>2020-05-31T16:24:30Z</time>
      </trkpt>
      <trkpt lat="46.2237" lon="-0.94645">
        <ele>5.5</ele>
        <time>2020-05-31T16:24:31Z</time>
      </trkpt>
      <trkpt lat="46.22366" lon="-0.94647">
        <ele>5.5</ele>
        <time>2020-05-31T16:24:32Z</time>
      </trkpt>
      <trkpt lat="46.22362" lon="-0.94648">
        <ele>5.5</ele>
        <time>2020-05-31T16:24:33Z</time>
      </trkpt>
      <trkpt lat="46.22358" lon="-0.9465">
        <ele>5.4</ele>
        <time>2020-05-31T16:24:34Z</time>
      </trkpt>
      <trkpt lat="46.22354" lon="-0.94651">
        <ele>5.4</ele>
        <time>2020-05-31T16:24:35Z</time>
      </trkpt>
      <trkpt lat="46.2235" lon="-0.94653">
        <ele>5.4</ele>
        <time>2020-05-31T16:24:36Z</time>
      </trkpt>
      <trkpt lat="46.22346" lon="-0.94654">
        <ele>5.3</ele>
        <time>2020-05-31T16:24:37Z</time>
      </trkpt>
      <trkpt lat="46.22342" lon="-0.94656">
        <ele>5.3</ele>
        <time>2020-05-31T16:24:38Z</time>
      </trkpt>
      <trkpt lat="46.22338" lon="-0.94658">
        <ele>5.3</ele>
        <time>2020-05-31T16:24:39Z</time>
      </trkpt>
      <trkpt lat="46.22333" lon="-0.94659">
        <ele>5.2</ele>
        <time>2020-05-31T16:24:40Z</time>
      </trkpt>
      <trkpt lat="46.22329" lon="-0.9466">
        <ele>5.2</ele>
        <time>2020-05-31T16:24:41Z</time>
      </trkpt>
      <trkpt lat="46.22326" lon="-0.94661">
        <ele>5.2</ele>
        <time>2020-05-31T16:24:42Z</time>
      </trkpt>
      <trkpt lat="46.22322" lon="-0.94662">
        <ele>5.2</ele>
        <time>2020-05-31T16:24:43Z</time>
      </trkpt>
      <trkpt lat="46.22318" lon="-0.94664">
        <ele>5.2</ele>
        <time>2020-05-31T16:24:44Z</time>
      </trkpt>
      <trkpt lat="46.22314" lon="-0.94665">
        <ele>5.1</ele>
        <time>2020-05-31T16:24:45Z</time>
      </trkpt>
      <trkpt lat="46.22309" lon="-0.94667">
        <ele>5.1</ele>
        <time>2020-05-31T16:24:46Z</time>
      </trkpt>
      <trkpt lat="46.22305" lon="-0.94669">
        <ele>5.1</ele>
        <time>2020-05-31T16:24:47Z</time>
      </trkpt>
      <trkpt lat="46.223" lon="-0.9467">
        <ele>5.1</ele>
        <time>2020-05-31T16:24:48Z</time>
      </trkpt>
      <trkpt lat="46.22296" lon="-0.94672">
        <ele>5.1</ele>
        <time>2020-05-31T16:24:49Z</time>
      </trkpt>
      <trkpt lat="46.22291" lon="-0.94674">
        <ele>5.1</ele>
        <time>2020-05-31T16:24:50Z</time>
      </trkpt>
      <trkpt lat="46.22287" lon="-0.94677">
        <ele>5.1</ele>
        <time>2020-05-31T16:24:51Z</time>
      </trkpt>
      <trkpt lat="46.22283" lon="-0.94679">
        <ele>5</ele>
        <time>2020-05-31T16:24:52Z</time>
      </trkpt>
      <trkpt lat="46.22278" lon="-0.94683">
        <ele>5</ele>
        <time>2020-05-31T16:24:53Z</time>
      </trkpt>
      <trkpt lat="46.22274" lon="-0.94688">
        <ele>5</ele>
        <time>2020-05-31T16:24:54Z</time>
      </trkpt>
      <trkpt lat="46.22269" lon="-0.94693">
        <ele>5</ele>
        <time>2020-05-31T16:24:55Z</time>
      </trkpt>
      <trkpt lat="46.22264" lon="-0.94695">
        <ele>5</ele>
        <time>2020-05-31T16:24:56Z</time>
      </trkpt>
      <trkpt lat="46.22259" lon="-0.94697">
        <ele>5</ele>
        <time>2020-05-31T16:24:57Z</time>
      </trkpt>
      <trkpt lat="46.22255" lon="-0.94699">
        <ele>5</ele>
        <time>2020-05-31T16:24:58Z</time>
      </trkpt>
      <trkpt lat="46.22251" lon="-0.94702">
        <ele>5.1</ele>
        <time>2020-05-31T16:24:59Z</time>
      </trkpt>
      <trkpt lat="46.22245" lon="-0.94704">
        <ele>5.1</ele>
        <time>2020-05-31T16:25:00Z</time>
      </trkpt>
      <trkpt lat="46.22241" lon="-0.94707">
        <ele>5.1</ele>
        <time>2020-05-31T16:25:01Z</time>
      </trkpt>
      <trkpt lat="46.22236" lon="-0.94711">
        <ele>5.1</ele>
        <time>2020-05-31T16:25:02Z</time>
      </trkpt>
      <trkpt lat="46.2223" lon="-0.94714">
        <ele>5.1</ele>
        <time>2020-05-31T16:25:03Z</time>
      </trkpt>
      <trkpt lat="46.22225" lon="-0.94717">
        <ele>5.1</ele>
        <time>2020-05-31T16:25:04Z</time>
      </trkpt>
      <trkpt lat="46.22221" lon="-0.94719">
        <ele>5.1</ele>
        <time>2020-05-31T16:25:05Z</time>
      </trkpt>
      <trkpt lat="46.22216" lon="-0.94722">
        <ele>5.1</ele>
        <time>2020-05-31T16:25:06Z</time>
      </trkpt>
      <trkpt lat="46.22212" lon="-0.94727">
        <ele>5</ele>
        <time>2020-05-31T16:25:07Z</time>
      </trkpt>
      <trkpt lat="46.22207" lon="-0.9473">
        <ele>5</ele>
        <time>2020-05-31T16:25:08Z</time>
      </trkpt>
      <trkpt lat="46.22203" lon="-0.94732">
        <ele>5</ele>
        <time>2020-05-31T16:25:09Z</time>
      </trkpt>
      <trkpt lat="46.22198" lon="-0.94735">
        <ele>5</ele>
        <time>2020-05-31T16:25:10Z</time>
      </trkpt>
      <trkpt lat="46.22193" lon="-0.94738">
        <ele>5</ele>
        <time>2020-05-31T16:25:11Z</time>
      </trkpt>
      <trkpt lat="46.22187" lon="-0.94742">
        <ele>5</ele>
        <time>2020-05-31T16:25:12Z</time>
      </trkpt>
      <trkpt lat="46.22182" lon="-0.94748">
        <ele>5.1</ele>
        <time>2020-05-31T16:25:13Z</time>
      </trkpt>
      <trkpt lat="46.22177" lon="-0.9475">
        <ele>5.1</ele>
        <time>2020-05-31T16:25:14Z</time>
      </trkpt>
      <trkpt lat="46.22172" lon="-0.94752">
        <ele>5.1</ele>
        <time>2020-05-31T16:25:15Z</time>
      </trkpt>
      <trkpt lat="46.22166" lon="-0.94753">
        <ele>5.1</ele>
        <time>2020-05-31T16:25:16Z</time>
      </trkpt>
      <trkpt lat="46.22162" lon="-0.94756">
        <ele>5</ele>
        <time>2020-05-31T16:25:17Z</time>
      </trkpt>
      <trkpt lat="46.22157" lon="-0.94759">
        <ele>5</ele>
        <time>2020-05-31T16:25:18Z</time>
      </trkpt>
      <trkpt lat="46.22153" lon="-0.94767">
        <ele>5</ele>
        <time>2020-05-31T16:25:19Z</time>
      </trkpt>
      <trkpt lat="46.22149" lon="-0.94772">
        <ele>5</ele>
        <time>2020-05-31T16:25:20Z</time>
      </trkpt>
      <trkpt lat="46.22145" lon="-0.94777">
        <ele>5</ele>
        <time>2020-05-31T16:25:21Z</time>
      </trkpt>
      <trkpt lat="46.22141" lon="-0.94781">
        <ele>4.9</ele>
        <time>2020-05-31T16:25:22Z</time>
      </trkpt>
      <trkpt lat="46.22137" lon="-0.94786">
        <ele>4.9</ele>
        <time>2020-05-31T16:25:23Z</time>
      </trkpt>
      <trkpt lat="46.22133" lon="-0.94788">
        <ele>5</ele>
        <time>2020-05-31T16:25:24Z</time>
      </trkpt>
      <trkpt lat="46.22128" lon="-0.9479">
        <ele>5</ele>
        <time>2020-05-31T16:25:25Z</time>
      </trkpt>
      <trkpt lat="46.22123" lon="-0.94796">
        <ele>5</ele>
        <time>2020-05-31T16:25:26Z</time>
      </trkpt>
      <trkpt lat="46.22118" lon="-0.948">
        <ele>5</ele>
        <time>2020-05-31T16:25:27Z</time>
      </trkpt>
      <trkpt lat="46.22114" lon="-0.94803">
        <ele>5</ele>
        <time>2020-05-31T16:25:28Z</time>
      </trkpt>
      <trkpt lat="46.22107" lon="-0.94808">
        <ele>5</ele>
        <time>2020-05-31T16:25:29Z</time>
      </trkpt>
      <trkpt lat="46.22102" lon="-0.9481">
        <ele>5.1</ele>
        <time>2020-05-31T16:25:30Z</time>
      </trkpt>
      <trkpt lat="46.22096" lon="-0.94813">
        <ele>5.1</ele>
        <time>2020-05-31T16:25:31Z</time>
      </trkpt>
      <trkpt lat="46.2209" lon="-0.94815">
        <ele>5.1</ele>
        <time>2020-05-31T16:25:32Z</time>
      </trkpt>
      <trkpt lat="46.22084" lon="-0.94818">
        <ele>5.2</ele>
        <time>2020-05-31T16:25:33Z</time>
      </trkpt>
      <trkpt lat="46.22078" lon="-0.94821">
        <ele>5.2</ele>
        <time>2020-05-31T16:25:34Z</time>
      </trkpt>
      <trkpt lat="46.22073" lon="-0.94824">
        <ele>5.2</ele>
        <time>2020-05-31T16:25:35Z</time>
      </trkpt>
      <trkpt lat="46.22067" lon="-0.94827">
        <ele>5.2</ele>
        <time>2020-05-31T16:25:36Z</time>
      </trkpt>
      <trkpt lat="46.22062" lon="-0.9483">
        <ele>5.2</ele>
        <time>2020-05-31T16:25:37Z</time>
      </trkpt>
      <trkpt lat="46.22055" lon="-0.94834">
        <ele>5.2</ele>
        <time>2020-05-31T16:25:38Z</time>
      </trkpt>
      <trkpt lat="46.22049" lon="-0.94837">
        <ele>5.2</ele>
        <time>2020-05-31T16:25:39Z</time>
      </trkpt>
      <trkpt lat="46.22044" lon="-0.94839">
        <ele>5.2</ele>
        <time>2020-05-31T16:25:40Z</time>
      </trkpt>
      <trkpt lat="46.22038" lon="-0.94842">
        <ele>5.2</ele>
        <time>2020-05-31T16:25:41Z</time>
      </trkpt>
      <trkpt lat="46.22032" lon="-0.94845">
        <ele>5.2</ele>
        <time>2020-05-31T16:25:42Z</time>
      </trkpt>
      <trkpt lat="46.22025" lon="-0.94848">
        <ele>5.2</ele>
        <time>2020-05-31T16:25:43Z</time>
      </trkpt>
      <trkpt lat="46.22019" lon="-0.94851">
        <ele>5.2</ele>
        <time>2020-05-31T16:25:44Z</time>
      </trkpt>
      <trkpt lat="46.22012" lon="-0.94854">
        <ele>5.1</ele>
        <time>2020-05-31T16:25:45Z</time>
      </trkpt>
      <trkpt lat="46.22006" lon="-0.94857">
        <ele>5.1</ele>
        <time>2020-05-31T16:25:46Z</time>
      </trkpt>
      <trkpt lat="46.22" lon="-0.94859">
        <ele>5.1</ele>
        <time>2020-05-31T16:25:47Z</time>
      </trkpt>
      <trkpt lat="46.21994" lon="-0.94862">
        <ele>5.1</ele>
        <time>2020-05-31T16:25:48Z</time>
      </trkpt>
      <trkpt lat="46.21989" lon="-0.94864">
        <ele>5.1</ele>
        <time>2020-05-31T16:25:49Z</time>
      </trkpt>
      <trkpt lat="46.21983" lon="-0.94866">
        <ele>5.1</ele>
        <time>2020-05-31T16:25:50Z</time>
      </trkpt>
      <trkpt lat="46.21976" lon="-0.94869">
        <ele>5</ele>
        <time>2020-05-31T16:25:51Z</time>
      </trkpt>
      <trkpt lat="46.21971" lon="-0.94872">
        <ele>5</ele>
        <time>2020-05-31T16:25:52Z</time>
      </trkpt>
      <trkpt lat="46.21965" lon="-0.94874">
        <ele>5</ele>
        <time>2020-05-31T16:25:53Z</time>
      </trkpt>
      <trkpt lat="46.21958" lon="-0.94876">
        <ele>5</ele>
        <time>2020-05-31T16:25:54Z</time>
      </trkpt>
      <trkpt lat="46.21951" lon="-0.94879">
        <ele>5</ele>
        <time>2020-05-31T16:25:55Z</time>
      </trkpt>
      <trkpt lat="46.21945" lon="-0.94881">
        <ele>5.1</ele>
        <time>2020-05-31T16:25:56Z</time>
      </trkpt>
      <trkpt lat="46.21937" lon="-0.94882">
        <ele>5.2</ele>
        <time>2020-05-31T16:25:57Z</time>
      </trkpt>
      <trkpt lat="46.21931" lon="-0.94885">
        <ele>5.2</ele>
        <time>2020-05-31T16:25:58Z</time>
      </trkpt>
      <trkpt lat="46.21925" lon="-0.94887">
        <ele>5.3</ele>
        <time>2020-05-31T16:25:59Z</time>
      </trkpt>
      <trkpt lat="46.21918" lon="-0.9489">
        <ele>5.3</ele>
        <time>2020-05-31T16:26:00Z</time>
      </trkpt>
      <trkpt lat="46.21911" lon="-0.94893">
        <ele>5.3</ele>
        <time>2020-05-31T16:26:01Z</time>
      </trkpt>
      <trkpt lat="46.21905" lon="-0.94896">
        <ele>5.3</ele>
        <time>2020-05-31T16:26:02Z</time>
      </trkpt>
      <trkpt lat="46.21899" lon="-0.94899">
        <ele>5.4</ele>
        <time>2020-05-31T16:26:03Z</time>
      </trkpt>
      <trkpt lat="46.21892" lon="-0.94903">
        <ele>5.5</ele>
        <time>2020-05-31T16:26:04Z</time>
      </trkpt>
      <trkpt lat="46.21886" lon="-0.94906">
        <ele>5.6</ele>
        <time>2020-05-31T16:26:05Z</time>
      </trkpt>
      <trkpt lat="46.21876" lon="-0.9491">
        <ele>5.7</ele>
        <time>2020-05-31T16:26:06Z</time>
      </trkpt>
      <trkpt lat="46.21869" lon="-0.94913">
        <ele>5.9</ele>
        <time>2020-05-31T16:26:07Z</time>
      </trkpt>
      <trkpt lat="46.21862" lon="-0.94916">
        <ele>6</ele>
        <time>2020-05-31T16:26:08Z</time>
      </trkpt>
      <trkpt lat="46.21854" lon="-0.94918">
        <ele>6.1</ele>
        <time>2020-05-31T16:26:09Z</time>
      </trkpt>
      <trkpt lat="46.21847" lon="-0.9492">
        <ele>6.1</ele>
        <time>2020-05-31T16:26:10Z</time>
      </trkpt>
      <trkpt lat="46.21839" lon="-0.94923">
        <ele>6.2</ele>
        <time>2020-05-31T16:26:11Z</time>
      </trkpt>
      <trkpt lat="46.2183" lon="-0.94926">
        <ele>6.3</ele>
        <time>2020-05-31T16:26:12Z</time>
      </trkpt>
      <trkpt lat="46.21823" lon="-0.94929">
        <ele>6.4</ele>
        <time>2020-05-31T16:26:13Z</time>
      </trkpt>
      <trkpt lat="46.21816" lon="-0.94932">
        <ele>6.4</ele>
        <time>2020-05-31T16:26:14Z</time>
      </trkpt>
      <trkpt lat="46.2181" lon="-0.94936">
        <ele>6.5</ele>
        <time>2020-05-31T16:26:15Z</time>
      </trkpt>
      <trkpt lat="46.21802" lon="-0.94938">
        <ele>6.7</ele>
        <time>2020-05-31T16:26:16Z</time>
      </trkpt>
      <trkpt lat="46.21795" lon="-0.9494">
        <ele>6.9</ele>
        <time>2020-05-31T16:26:17Z</time>
      </trkpt>
      <trkpt lat="46.21789" lon="-0.9494">
        <ele>7</ele>
        <time>2020-05-31T16:26:18Z</time>
      </trkpt>
      <trkpt lat="46.21783" lon="-0.94942">
        <ele>7.2</ele>
        <time>2020-05-31T16:26:19Z</time>
      </trkpt>
      <trkpt lat="46.21777" lon="-0.94943">
        <ele>7.3</ele>
        <time>2020-05-31T16:26:20Z</time>
      </trkpt>
      <trkpt lat="46.21771" lon="-0.94945">
        <ele>7.4</ele>
        <time>2020-05-31T16:26:21Z</time>
      </trkpt>
      <trkpt lat="46.21767" lon="-0.94948">
        <ele>7.5</ele>
        <time>2020-05-31T16:26:22Z</time>
      </trkpt>
      <trkpt lat="46.21763" lon="-0.94951">
        <ele>7.6</ele>
        <time>2020-05-31T16:26:23Z</time>
      </trkpt>
      <trkpt lat="46.21758" lon="-0.94954">
        <ele>7.6</ele>
        <time>2020-05-31T16:26:24Z</time>
      </trkpt>
      <trkpt lat="46.21754" lon="-0.94957">
        <ele>7.6</ele>
        <time>2020-05-31T16:26:25Z</time>
      </trkpt>
      <trkpt lat="46.21749" lon="-0.9496">
        <ele>7.7</ele>
        <time>2020-05-31T16:26:26Z</time>
      </trkpt>
      <trkpt lat="46.21744" lon="-0.94963">
        <ele>7.7</ele>
        <time>2020-05-31T16:26:27Z</time>
      </trkpt>
      <trkpt lat="46.21739" lon="-0.94966">
        <ele>7.7</ele>
        <time>2020-05-31T16:26:28Z</time>
      </trkpt>
      <trkpt lat="46.21732" lon="-0.94969">
        <ele>7.6</ele>
        <time>2020-05-31T16:26:29Z</time>
      </trkpt>
      <trkpt lat="46.21727" lon="-0.94974">
        <ele>7.6</ele>
        <time>2020-05-31T16:26:30Z</time>
      </trkpt>
      <trkpt lat="46.21722" lon="-0.94979">
        <ele>7.6</ele>
        <time>2020-05-31T16:26:31Z</time>
      </trkpt>
      <trkpt lat="46.21716" lon="-0.94983">
        <ele>7.6</ele>
        <time>2020-05-31T16:26:32Z</time>
      </trkpt>
      <trkpt lat="46.21711" lon="-0.9499">
        <ele>7.5</ele>
        <time>2020-05-31T16:26:33Z</time>
      </trkpt>
      <trkpt lat="46.21705" lon="-0.94994">
        <ele>7.4</ele>
        <time>2020-05-31T16:26:34Z</time>
      </trkpt>
      <trkpt lat="46.217" lon="-0.94999">
        <ele>7.3</ele>
        <time>2020-05-31T16:26:35Z</time>
      </trkpt>
      <trkpt lat="46.21696" lon="-0.95005">
        <ele>7.2</ele>
        <time>2020-05-31T16:26:36Z</time>
      </trkpt>
      <trkpt lat="46.21692" lon="-0.9501">
        <ele>7.2</ele>
        <time>2020-05-31T16:26:37Z</time>
      </trkpt>
      <trkpt lat="46.21687" lon="-0.95016">
        <ele>7</ele>
        <time>2020-05-31T16:26:38Z</time>
      </trkpt>
      <trkpt lat="46.21681" lon="-0.95023">
        <ele>6.9</ele>
        <time>2020-05-31T16:26:39Z</time>
      </trkpt>
      <trkpt lat="46.21676" lon="-0.95028">
        <ele>6.8</ele>
        <time>2020-05-31T16:26:40Z</time>
      </trkpt>
      <trkpt lat="46.2167" lon="-0.95035">
        <ele>6.7</ele>
        <time>2020-05-31T16:26:41Z</time>
      </trkpt>
      <trkpt lat="46.21665" lon="-0.95041">
        <ele>6.6</ele>
        <time>2020-05-31T16:26:42Z</time>
      </trkpt>
      <trkpt lat="46.21659" lon="-0.95048">
        <ele>6.4</ele>
        <time>2020-05-31T16:26:43Z</time>
      </trkpt>
      <trkpt lat="46.21653" lon="-0.95055">
        <ele>6.3</ele>
        <time>2020-05-31T16:26:44Z</time>
      </trkpt>
      <trkpt lat="46.21647" lon="-0.95061">
        <ele>6.2</ele>
        <time>2020-05-31T16:26:45Z</time>
      </trkpt>
      <trkpt lat="46.21643" lon="-0.95068">
        <ele>6</ele>
        <time>2020-05-31T16:26:46Z</time>
      </trkpt>
      <trkpt lat="46.21637" lon="-0.95075">
        <ele>5.9</ele>
        <time>2020-05-31T16:26:47Z</time>
      </trkpt>
      <trkpt lat="46.21633" lon="-0.9508">
        <ele>5.8</ele>
        <time>2020-05-31T16:26:48Z</time>
      </trkpt>
      <trkpt lat="46.21629" lon="-0.95087">
        <ele>5.8</ele>
        <time>2020-05-31T16:26:49Z</time>
      </trkpt>
      <trkpt lat="46.21623" lon="-0.95095">
        <ele>5.7</ele>
        <time>2020-05-31T16:26:50Z</time>
      </trkpt>
      <trkpt lat="46.21618" lon="-0.95103">
        <ele>5.6</ele>
        <time>2020-05-31T16:26:51Z</time>
      </trkpt>
      <trkpt lat="46.21612" lon="-0.95111">
        <ele>5.6</ele>
        <time>2020-05-31T16:26:52Z</time>
      </trkpt>
      <trkpt lat="46.21607" lon="-0.95118">
        <ele>5.5</ele>
        <time>2020-05-31T16:26:53Z</time>
      </trkpt>
      <trkpt lat="46.21602" lon="-0.95125">
        <ele>5.6</ele>
        <time>2020-05-31T16:26:54Z</time>
      </trkpt>
      <trkpt lat="46.21597" lon="-0.95132">
        <ele>5.6</ele>
        <time>2020-05-31T16:26:55Z</time>
      </trkpt>
      <trkpt lat="46.21592" lon="-0.95138">
        <ele>5.6</ele>
        <time>2020-05-31T16:26:56Z</time>
      </trkpt>
      <trkpt lat="46.21588" lon="-0.95145">
        <ele>5.6</ele>
        <time>2020-05-31T16:26:57Z</time>
      </trkpt>
      <trkpt lat="46.21583" lon="-0.95152">
        <ele>5.6</ele>
        <time>2020-05-31T16:26:58Z</time>
      </trkpt>
      <trkpt lat="46.21578" lon="-0.95159">
        <ele>5.7</ele>
        <time>2020-05-31T16:26:59Z</time>
      </trkpt>
      <trkpt lat="46.21573" lon="-0.95166">
        <ele>5.7</ele>
        <time>2020-05-31T16:27:00Z</time>
      </trkpt>
      <trkpt lat="46.21567" lon="-0.95173">
        <ele>5.7</ele>
        <time>2020-05-31T16:27:01Z</time>
      </trkpt>
      <trkpt lat="46.21562" lon="-0.9518">
        <ele>5.7</ele>
        <time>2020-05-31T16:27:02Z</time>
      </trkpt>
      <trkpt lat="46.21558" lon="-0.95187">
        <ele>5.8</ele>
        <time>2020-05-31T16:27:03Z</time>
      </trkpt>
      <trkpt lat="46.21553" lon="-0.95194">
        <ele>5.8</ele>
        <time>2020-05-31T16:27:04Z</time>
      </trkpt>
      <trkpt lat="46.21548" lon="-0.95201">
        <ele>5.8</ele>
        <time>2020-05-31T16:27:05Z</time>
      </trkpt>
      <trkpt lat="46.21543" lon="-0.95207">
        <ele>5.8</ele>
        <time>2020-05-31T16:27:06Z</time>
      </trkpt>
      <trkpt lat="46.21538" lon="-0.95214">
        <ele>5.8</ele>
        <time>2020-05-31T16:27:07Z</time>
      </trkpt>
      <trkpt lat="46.21533" lon="-0.95221">
        <ele>5.8</ele>
        <time>2020-05-31T16:27:08Z</time>
      </trkpt>
      <trkpt lat="46.21528" lon="-0.95227">
        <ele>5.8</ele>
        <time>2020-05-31T16:27:09Z</time>
      </trkpt>
      <trkpt lat="46.21523" lon="-0.95234">
        <ele>5.8</ele>
        <time>2020-05-31T16:27:10Z</time>
      </trkpt>
      <trkpt lat="46.21518" lon="-0.95241">
        <ele>5.8</ele>
        <time>2020-05-31T16:27:11Z</time>
      </trkpt>
      <trkpt lat="46.21513" lon="-0.95249">
        <ele>5.8</ele>
        <time>2020-05-31T16:27:12Z</time>
      </trkpt>
      <trkpt lat="46.21509" lon="-0.95255">
        <ele>5.7</ele>
        <time>2020-05-31T16:27:13Z</time>
      </trkpt>
      <trkpt lat="46.21504" lon="-0.95262">
        <ele>5.7</ele>
        <time>2020-05-31T16:27:14Z</time>
      </trkpt>
      <trkpt lat="46.215" lon="-0.95268">
        <ele>5.7</ele>
        <time>2020-05-31T16:27:15Z</time>
      </trkpt>
      <trkpt lat="46.21495" lon="-0.95274">
        <ele>5.7</ele>
        <time>2020-05-31T16:27:16Z</time>
      </trkpt>
      <trkpt lat="46.21491" lon="-0.95281">
        <ele>5.7</ele>
        <time>2020-05-31T16:27:17Z</time>
      </trkpt>
      <trkpt lat="46.21487" lon="-0.95288">
        <ele>5.7</ele>
        <time>2020-05-31T16:27:18Z</time>
      </trkpt>
      <trkpt lat="46.21483" lon="-0.95294">
        <ele>5.6</ele>
        <time>2020-05-31T16:27:19Z</time>
      </trkpt>
      <trkpt lat="46.21479" lon="-0.95301">
        <ele>5.6</ele>
        <time>2020-05-31T16:27:20Z</time>
      </trkpt>
      <trkpt lat="46.21475" lon="-0.95306">
        <ele>5.6</ele>
        <time>2020-05-31T16:27:21Z</time>
      </trkpt>
      <trkpt lat="46.2147" lon="-0.95311">
        <ele>5.6</ele>
        <time>2020-05-31T16:27:22Z</time>
      </trkpt>
      <trkpt lat="46.21465" lon="-0.95317">
        <ele>5.6</ele>
        <time>2020-05-31T16:27:23Z</time>
      </trkpt>
      <trkpt lat="46.21461" lon="-0.95323">
        <ele>5.6</ele>
        <time>2020-05-31T16:27:24Z</time>
      </trkpt>
      <trkpt lat="46.21455" lon="-0.95327">
        <ele>5.6</ele>
        <time>2020-05-31T16:27:25Z</time>
      </trkpt>
      <trkpt lat="46.2145" lon="-0.95332">
        <ele>5.6</ele>
        <time>2020-05-31T16:27:26Z</time>
      </trkpt>
      <trkpt lat="46.21445" lon="-0.95337">
        <ele>5.7</ele>
        <time>2020-05-31T16:27:27Z</time>
      </trkpt>
      <trkpt lat="46.21441" lon="-0.95342">
        <ele>5.7</ele>
        <time>2020-05-31T16:27:28Z</time>
      </trkpt>
      <trkpt lat="46.21437" lon="-0.95347">
        <ele>5.7</ele>
        <time>2020-05-31T16:27:29Z</time>
      </trkpt>
      <trkpt lat="46.21432" lon="-0.95352">
        <ele>5.7</ele>
        <time>2020-05-31T16:27:30Z</time>
      </trkpt>
      <trkpt lat="46.21427" lon="-0.95356">
        <ele>5.7</ele>
        <time>2020-05-31T16:27:31Z</time>
      </trkpt>
      <trkpt lat="46.21422" lon="-0.9536">
        <ele>5.7</ele>
        <time>2020-05-31T16:27:32Z</time>
      </trkpt>
      <trkpt lat="46.21417" lon="-0.95363">
        <ele>5.7</ele>
        <time>2020-05-31T16:27:33Z</time>
      </trkpt>
      <trkpt lat="46.21412" lon="-0.95367">
        <ele>5.8</ele>
        <time>2020-05-31T16:27:34Z</time>
      </trkpt>
      <trkpt lat="46.21407" lon="-0.95371">
        <ele>5.8</ele>
        <time>2020-05-31T16:27:35Z</time>
      </trkpt>
      <trkpt lat="46.21401" lon="-0.95374">
        <ele>5.9</ele>
        <time>2020-05-31T16:27:36Z</time>
      </trkpt>
      <trkpt lat="46.21395" lon="-0.95377">
        <ele>6</ele>
        <time>2020-05-31T16:27:37Z</time>
      </trkpt>
      <trkpt lat="46.21389" lon="-0.9538">
        <ele>6.1</ele>
        <time>2020-05-31T16:27:38Z</time>
      </trkpt>
      <trkpt lat="46.21383" lon="-0.95382">
        <ele>6.2</ele>
        <time>2020-05-31T16:27:39Z</time>
      </trkpt>
      <trkpt lat="46.21378" lon="-0.95384">
        <ele>6.3</ele>
        <time>2020-05-31T16:27:40Z</time>
      </trkpt>
      <trkpt lat="46.21372" lon="-0.95387">
        <ele>6.4</ele>
        <time>2020-05-31T16:27:41Z</time>
      </trkpt>
      <trkpt lat="46.21367" lon="-0.95389">
        <ele>6.5</ele>
        <time>2020-05-31T16:27:42Z</time>
      </trkpt>
      <trkpt lat="46.21361" lon="-0.95391">
        <ele>6.6</ele>
        <time>2020-05-31T16:27:43Z</time>
      </trkpt>
      <trkpt lat="46.21356" lon="-0.95393">
        <ele>6.7</ele>
        <time>2020-05-31T16:27:44Z</time>
      </trkpt>
      <trkpt lat="46.21351" lon="-0.95395">
        <ele>6.8</ele>
        <time>2020-05-31T16:27:45Z</time>
      </trkpt>
      <trkpt lat="46.21345" lon="-0.95396">
        <ele>7</ele>
        <time>2020-05-31T16:27:46Z</time>
      </trkpt>
      <trkpt lat="46.21339" lon="-0.95398">
        <ele>7.2</ele>
        <time>2020-05-31T16:27:47Z</time>
      </trkpt>
      <trkpt lat="46.21333" lon="-0.95398">
        <ele>7.2</ele>
        <time>2020-05-31T16:27:48Z</time>
      </trkpt>
      <trkpt lat="46.21328" lon="-0.95397">
        <ele>7.3</ele>
        <time>2020-05-31T16:27:49Z</time>
      </trkpt>
      <trkpt lat="46.21323" lon="-0.95397">
        <ele>7.4</ele>
        <time>2020-05-31T16:27:50Z</time>
      </trkpt>
      <trkpt lat="46.21318" lon="-0.95395">
        <ele>7.4</ele>
        <time>2020-05-31T16:27:51Z</time>
      </trkpt>
      <trkpt lat="46.21313" lon="-0.95394">
        <ele>7.5</ele>
        <time>2020-05-31T16:27:52Z</time>
      </trkpt>
      <trkpt lat="46.21308" lon="-0.95394">
        <ele>7.5</ele>
        <time>2020-05-31T16:27:53Z</time>
      </trkpt>
      <trkpt lat="46.21303" lon="-0.95391">
        <ele>7.6</ele>
        <time>2020-05-31T16:27:54Z</time>
      </trkpt>
      <trkpt lat="46.21298" lon="-0.9539">
        <ele>7.8</ele>
        <time>2020-05-31T16:27:55Z</time>
      </trkpt>
      <trkpt lat="46.21293" lon="-0.95388">
        <ele>7.9</ele>
        <time>2020-05-31T16:27:56Z</time>
      </trkpt>
      <trkpt lat="46.21288" lon="-0.95386">
        <ele>8</ele>
        <time>2020-05-31T16:27:57Z</time>
      </trkpt>
      <trkpt lat="46.21283" lon="-0.95384">
        <ele>8.1</ele>
        <time>2020-05-31T16:27:58Z</time>
      </trkpt>
      <trkpt lat="46.21278" lon="-0.95383">
        <ele>8.2</ele>
        <time>2020-05-31T16:27:59Z</time>
      </trkpt>
      <trkpt lat="46.21273" lon="-0.95383">
        <ele>8.3</ele>
        <time>2020-05-31T16:28:00Z</time>
      </trkpt>
      <trkpt lat="46.21268" lon="-0.95382">
        <ele>8.4</ele>
        <time>2020-05-31T16:28:01Z</time>
      </trkpt>
      <trkpt lat="46.21263" lon="-0.95382">
        <ele>8.4</ele>
        <time>2020-05-31T16:28:02Z</time>
      </trkpt>
      <trkpt lat="46.21258" lon="-0.95382">
        <ele>8.5</ele>
        <time>2020-05-31T16:28:03Z</time>
      </trkpt>
      <trkpt lat="46.21253" lon="-0.95382">
        <ele>8.5</ele>
        <time>2020-05-31T16:28:04Z</time>
      </trkpt>
      <trkpt lat="46.21248" lon="-0.95383">
        <ele>8.6</ele>
        <time>2020-05-31T16:28:05Z</time>
      </trkpt>
      <trkpt lat="46.21243" lon="-0.95382">
        <ele>8.7</ele>
        <time>2020-05-31T16:28:06Z</time>
      </trkpt>
      <trkpt lat="46.21238" lon="-0.95382">
        <ele>8.8</ele>
        <time>2020-05-31T16:28:07Z</time>
      </trkpt>
      <trkpt lat="46.21233" lon="-0.95383">
        <ele>8.9</ele>
        <time>2020-05-31T16:28:08Z</time>
      </trkpt>
      <trkpt lat="46.21228" lon="-0.95384">
        <ele>9</ele>
        <time>2020-05-31T16:28:09Z</time>
      </trkpt>
      <trkpt lat="46.21224" lon="-0.95385">
        <ele>9.1</ele>
        <time>2020-05-31T16:28:10Z</time>
      </trkpt>
      <trkpt lat="46.21219" lon="-0.95387">
        <ele>9.2</ele>
        <time>2020-05-31T16:28:11Z</time>
      </trkpt>
      <trkpt lat="46.21215" lon="-0.95389">
        <ele>9.4</ele>
        <time>2020-05-31T16:28:12Z</time>
      </trkpt>
      <trkpt lat="46.2121" lon="-0.95392">
        <ele>9.4</ele>
        <time>2020-05-31T16:28:13Z</time>
      </trkpt>
      <trkpt lat="46.21205" lon="-0.95393">
        <ele>9.5</ele>
        <time>2020-05-31T16:28:14Z</time>
      </trkpt>
      <trkpt lat="46.212" lon="-0.95395">
        <ele>9.6</ele>
        <time>2020-05-31T16:28:15Z</time>
      </trkpt>
      <trkpt lat="46.21196" lon="-0.95398">
        <ele>9.6</ele>
        <time>2020-05-31T16:28:16Z</time>
      </trkpt>
      <trkpt lat="46.21192" lon="-0.95399">
        <ele>9.7</ele>
        <time>2020-05-31T16:28:17Z</time>
      </trkpt>
      <trkpt lat="46.21188" lon="-0.95401">
        <ele>9.8</ele>
        <time>2020-05-31T16:28:18Z</time>
      </trkpt>
      <trkpt lat="46.21183" lon="-0.95403">
        <ele>9.8</ele>
        <time>2020-05-31T16:28:19Z</time>
      </trkpt>
      <trkpt lat="46.21179" lon="-0.95406">
        <ele>9.9</ele>
        <time>2020-05-31T16:28:20Z</time>
      </trkpt>
      <trkpt lat="46.21174" lon="-0.95408">
        <ele>10</ele>
        <time>2020-05-31T16:28:21Z</time>
      </trkpt>
      <trkpt lat="46.2117" lon="-0.95411">
        <ele>10.1</ele>
        <time>2020-05-31T16:28:22Z</time>
      </trkpt>
      <trkpt lat="46.21165" lon="-0.95413">
        <ele>10.1</ele>
        <time>2020-05-31T16:28:23Z</time>
      </trkpt>
      <trkpt lat="46.21161" lon="-0.95416">
        <ele>10.2</ele>
        <time>2020-05-31T16:28:24Z</time>
      </trkpt>
      <trkpt lat="46.21157" lon="-0.9542">
        <ele>10.2</ele>
        <time>2020-05-31T16:28:25Z</time>
      </trkpt>
      <trkpt lat="46.21152" lon="-0.95423">
        <ele>10.3</ele>
        <time>2020-05-31T16:28:26Z</time>
      </trkpt>
      <trkpt lat="46.21147" lon="-0.95425">
        <ele>10.3</ele>
        <time>2020-05-31T16:28:27Z</time>
      </trkpt>
      <trkpt lat="46.21143" lon="-0.95426">
        <ele>10.4</ele>
        <time>2020-05-31T16:28:28Z</time>
      </trkpt>
      <trkpt lat="46.21138" lon="-0.95429">
        <ele>10.5</ele>
        <time>2020-05-31T16:28:29Z</time>
      </trkpt>
      <trkpt lat="46.21134" lon="-0.95432">
        <ele>10.5</ele>
        <time>2020-05-31T16:28:30Z</time>
      </trkpt>
      <trkpt lat="46.21129" lon="-0.95435">
        <ele>10.6</ele>
        <time>2020-05-31T16:28:31Z</time>
      </trkpt>
      <trkpt lat="46.21124" lon="-0.95437">
        <ele>10.7</ele>
        <time>2020-05-31T16:28:32Z</time>
      </trkpt>
      <trkpt lat="46.21119" lon="-0.95439">
        <ele>10.8</ele>
        <time>2020-05-31T16:28:33Z</time>
      </trkpt>
      <trkpt lat="46.21114" lon="-0.95442">
        <ele>10.8</ele>
        <time>2020-05-31T16:28:34Z</time>
      </trkpt>
      <trkpt lat="46.21109" lon="-0.95445">
        <ele>10.9</ele>
        <time>2020-05-31T16:28:35Z</time>
      </trkpt>
      <trkpt lat="46.21104" lon="-0.95448">
        <ele>11</ele>
        <time>2020-05-31T16:28:36Z</time>
      </trkpt>
      <trkpt lat="46.21099" lon="-0.95451">
        <ele>11</ele>
        <time>2020-05-31T16:28:37Z</time>
      </trkpt>
      <trkpt lat="46.21094" lon="-0.95453">
        <ele>11.1</ele>
        <time>2020-05-31T16:28:38Z</time>
      </trkpt>
      <trkpt lat="46.2109" lon="-0.95456">
        <ele>11.1</ele>
        <time>2020-05-31T16:28:39Z</time>
      </trkpt>
      <trkpt lat="46.21086" lon="-0.9546">
        <ele>11.1</ele>
        <time>2020-05-31T16:28:40Z</time>
      </trkpt>
      <trkpt lat="46.21081" lon="-0.95461">
        <ele>11.2</ele>
        <time>2020-05-31T16:28:41Z</time>
      </trkpt>
      <trkpt lat="46.21076" lon="-0.95463">
        <ele>11.2</ele>
        <time>2020-05-31T16:28:42Z</time>
      </trkpt>
      <trkpt lat="46.21072" lon="-0.95467">
        <ele>11.2</ele>
        <time>2020-05-31T16:28:43Z</time>
      </trkpt>
      <trkpt lat="46.21067" lon="-0.95468">
        <ele>11.2</ele>
        <time>2020-05-31T16:28:44Z</time>
      </trkpt>
      <trkpt lat="46.21062" lon="-0.9547">
        <ele>11.3</ele>
        <time>2020-05-31T16:28:45Z</time>
      </trkpt>
      <trkpt lat="46.21057" lon="-0.95471">
        <ele>11.3</ele>
        <time>2020-05-31T16:28:46Z</time>
      </trkpt>
      <trkpt lat="46.21052" lon="-0.95473">
        <ele>11.3</ele>
        <time>2020-05-31T16:28:47Z</time>
      </trkpt>
      <trkpt lat="46.21047" lon="-0.95477">
        <ele>11.4</ele>
        <time>2020-05-31T16:28:48Z</time>
      </trkpt>
      <trkpt lat="46.21043" lon="-0.95479">
        <ele>11.4</ele>
        <time>2020-05-31T16:28:49Z</time>
      </trkpt>
      <trkpt lat="46.21038" lon="-0.95482">
        <ele>11.4</ele>
        <time>2020-05-31T16:28:50Z</time>
      </trkpt>
      <trkpt lat="46.21033" lon="-0.95485">
        <ele>11.4</ele>
        <time>2020-05-31T16:28:51Z</time>
      </trkpt>
      <trkpt lat="46.21029" lon="-0.95488">
        <ele>11.4</ele>
        <time>2020-05-31T16:28:52Z</time>
      </trkpt>
      <trkpt lat="46.21023" lon="-0.9549">
        <ele>11.4</ele>
        <time>2020-05-31T16:28:53Z</time>
      </trkpt>
      <trkpt lat="46.21018" lon="-0.95493">
        <ele>11.4</ele>
        <time>2020-05-31T16:28:54Z</time>
      </trkpt>
      <trkpt lat="46.21013" lon="-0.95495">
        <ele>11.4</ele>
        <time>2020-05-31T16:28:55Z</time>
      </trkpt>
      <trkpt lat="46.21008" lon="-0.95498">
        <ele>11.4</ele>
        <time>2020-05-31T16:28:56Z</time>
      </trkpt>
      <trkpt lat="46.21003" lon="-0.955">
        <ele>11.3</ele>
        <time>2020-05-31T16:28:57Z</time>
      </trkpt>
      <trkpt lat="46.20998" lon="-0.95502">
        <ele>11.3</ele>
        <time>2020-05-31T16:28:58Z</time>
      </trkpt>
      <trkpt lat="46.20993" lon="-0.95504">
        <ele>11.3</ele>
        <time>2020-05-31T16:28:59Z</time>
      </trkpt>
      <trkpt lat="46.20989" lon="-0.95507">
        <ele>11.3</ele>
        <time>2020-05-31T16:29:00Z</time>
      </trkpt>
      <trkpt lat="46.20984" lon="-0.95509">
        <ele>11.3</ele>
        <time>2020-05-31T16:29:01Z</time>
      </trkpt>
      <trkpt lat="46.20979" lon="-0.9551">
        <ele>11.3</ele>
        <time>2020-05-31T16:29:02Z</time>
      </trkpt>
      <trkpt lat="46.20975" lon="-0.95512">
        <ele>11.3</ele>
        <time>2020-05-31T16:29:03Z</time>
      </trkpt>
      <trkpt lat="46.20969" lon="-0.95515">
        <ele>11.3</ele>
        <time>2020-05-31T16:29:04Z</time>
      </trkpt>
      <trkpt lat="46.20964" lon="-0.95517">
        <ele>11.2</ele>
        <time>2020-05-31T16:29:05Z</time>
      </trkpt>
      <trkpt lat="46.20959" lon="-0.95519">
        <ele>11.1</ele>
        <time>2020-05-31T16:29:06Z</time>
      </trkpt>
      <trkpt lat="46.20953" lon="-0.95522">
        <ele>10.9</ele>
        <time>2020-05-31T16:29:07Z</time>
      </trkpt>
      <trkpt lat="46.20948" lon="-0.95525">
        <ele>10.8</ele>
        <time>2020-05-31T16:29:08Z</time>
      </trkpt>
      <trkpt lat="46.20942" lon="-0.95525">
        <ele>10.6</ele>
        <time>2020-05-31T16:29:09Z</time>
      </trkpt>
      <trkpt lat="46.20937" lon="-0.95527">
        <ele>10.5</ele>
        <time>2020-05-31T16:29:10Z</time>
      </trkpt>
      <trkpt lat="46.20931" lon="-0.9553">
        <ele>10.3</ele>
        <time>2020-05-31T16:29:11Z</time>
      </trkpt>
      <trkpt lat="46.20926" lon="-0.95533">
        <ele>10.2</ele>
        <time>2020-05-31T16:29:12Z</time>
      </trkpt>
      <trkpt lat="46.2092" lon="-0.95536">
        <ele>10.1</ele>
        <time>2020-05-31T16:29:13Z</time>
      </trkpt>
      <trkpt lat="46.20914" lon="-0.95537">
        <ele>10</ele>
        <time>2020-05-31T16:29:14Z</time>
      </trkpt>
      <trkpt lat="46.20909" lon="-0.95539">
        <ele>9.9</ele>
        <time>2020-05-31T16:29:15Z</time>
      </trkpt>
      <trkpt lat="46.20903" lon="-0.95541">
        <ele>9.8</ele>
        <time>2020-05-31T16:29:16Z</time>
      </trkpt>
      <trkpt lat="46.20897" lon="-0.95543">
        <ele>9.7</ele>
        <time>2020-05-31T16:29:17Z</time>
      </trkpt>
      <trkpt lat="46.20892" lon="-0.95545">
        <ele>9.6</ele>
        <time>2020-05-31T16:29:18Z</time>
      </trkpt>
      <trkpt lat="46.20886" lon="-0.95546">
        <ele>9.5</ele>
        <time>2020-05-31T16:29:19Z</time>
      </trkpt>
      <trkpt lat="46.2088" lon="-0.95548">
        <ele>9.4</ele>
        <time>2020-05-31T16:29:20Z</time>
      </trkpt>
      <trkpt lat="46.20874" lon="-0.9555">
        <ele>9.3</ele>
        <time>2020-05-31T16:29:21Z</time>
      </trkpt>
      <trkpt lat="46.20868" lon="-0.95552">
        <ele>9.2</ele>
        <time>2020-05-31T16:29:22Z</time>
      </trkpt>
      <trkpt lat="46.20862" lon="-0.95555">
        <ele>9.2</ele>
        <time>2020-05-31T16:29:23Z</time>
      </trkpt>
      <trkpt lat="46.20856" lon="-0.95556">
        <ele>9.1</ele>
        <time>2020-05-31T16:29:24Z</time>
      </trkpt>
      <trkpt lat="46.2085" lon="-0.95557">
        <ele>9.1</ele>
        <time>2020-05-31T16:29:25Z</time>
      </trkpt>
      <trkpt lat="46.20844" lon="-0.95558">
        <ele>9</ele>
        <time>2020-05-31T16:29:26Z</time>
      </trkpt>
      <trkpt lat="46.20838" lon="-0.95559">
        <ele>9</ele>
        <time>2020-05-31T16:29:27Z</time>
      </trkpt>
      <trkpt lat="46.20832" lon="-0.95561">
        <ele>8.9</ele>
        <time>2020-05-31T16:29:28Z</time>
      </trkpt>
      <trkpt lat="46.20826" lon="-0.95564">
        <ele>8.9</ele>
        <time>2020-05-31T16:29:29Z</time>
      </trkpt>
      <trkpt lat="46.2082" lon="-0.95565">
        <ele>8.8</ele>
        <time>2020-05-31T16:29:30Z</time>
      </trkpt>
      <trkpt lat="46.20814" lon="-0.95568">
        <ele>8.7</ele>
        <time>2020-05-31T16:29:31Z</time>
      </trkpt>
      <trkpt lat="46.20808" lon="-0.95569">
        <ele>8.7</ele>
        <time>2020-05-31T16:29:32Z</time>
      </trkpt>
      <trkpt lat="46.20802" lon="-0.95571">
        <ele>8.6</ele>
        <time>2020-05-31T16:29:33Z</time>
      </trkpt>
      <trkpt lat="46.20796" lon="-0.95573">
        <ele>8.6</ele>
        <time>2020-05-31T16:29:34Z</time>
      </trkpt>
      <trkpt lat="46.2079" lon="-0.95575">
        <ele>8.6</ele>
        <time>2020-05-31T16:29:35Z</time>
      </trkpt>
      <trkpt lat="46.20784" lon="-0.95577">
        <ele>8.6</ele>
        <time>2020-05-31T16:29:36Z</time>
      </trkpt>
      <trkpt lat="46.20779" lon="-0.95579">
        <ele>8.6</ele>
        <time>2020-05-31T16:29:37Z</time>
      </trkpt>
      <trkpt lat="46.20774" lon="-0.95581">
        <ele>8.6</ele>
        <time>2020-05-31T16:29:38Z</time>
      </trkpt>
      <trkpt lat="46.20768" lon="-0.95582">
        <ele>8.6</ele>
        <time>2020-05-31T16:29:39Z</time>
      </trkpt>
      <trkpt lat="46.20763" lon="-0.95584">
        <ele>8.6</ele>
        <time>2020-05-31T16:29:40Z</time>
      </trkpt>
      <trkpt lat="46.20757" lon="-0.95587">
        <ele>8.6</ele>
        <time>2020-05-31T16:29:41Z</time>
      </trkpt>
      <trkpt lat="46.20752" lon="-0.9559">
        <ele>8.6</ele>
        <time>2020-05-31T16:29:42Z</time>
      </trkpt>
      <trkpt lat="46.20747" lon="-0.95591">
        <ele>8.6</ele>
        <time>2020-05-31T16:29:43Z</time>
      </trkpt>
      <trkpt lat="46.20741" lon="-0.95593">
        <ele>8.6</ele>
        <time>2020-05-31T16:29:44Z</time>
      </trkpt>
      <trkpt lat="46.20736" lon="-0.95596">
        <ele>8.6</ele>
        <time>2020-05-31T16:29:45Z</time>
      </trkpt>
      <trkpt lat="46.2073" lon="-0.95597">
        <ele>8.6</ele>
        <time>2020-05-31T16:29:46Z</time>
      </trkpt>
      <trkpt lat="46.20724" lon="-0.95599">
        <ele>8.6</ele>
        <time>2020-05-31T16:29:47Z</time>
      </trkpt>
      <trkpt lat="46.20718" lon="-0.95601">
        <ele>8.6</ele>
        <time>2020-05-31T16:29:48Z</time>
      </trkpt>
      <trkpt lat="46.20712" lon="-0.95603">
        <ele>8.5</ele>
        <time>2020-05-31T16:29:49Z</time>
      </trkpt>
      <trkpt lat="46.20707" lon="-0.95605">
        <ele>8.5</ele>
        <time>2020-05-31T16:29:50Z</time>
      </trkpt>
      <trkpt lat="46.20701" lon="-0.95607">
        <ele>8.5</ele>
        <time>2020-05-31T16:29:51Z</time>
      </trkpt>
      <trkpt lat="46.20695" lon="-0.95608">
        <ele>8.5</ele>
        <time>2020-05-31T16:29:52Z</time>
      </trkpt>
      <trkpt lat="46.20689" lon="-0.9561">
        <ele>8.4</ele>
        <time>2020-05-31T16:29:53Z</time>
      </trkpt>
      <trkpt lat="46.20684" lon="-0.9561">
        <ele>8.4</ele>
        <time>2020-05-31T16:29:54Z</time>
      </trkpt>
      <trkpt lat="46.20678" lon="-0.95612">
        <ele>8.5</ele>
        <time>2020-05-31T16:29:55Z</time>
      </trkpt>
      <trkpt lat="46.20672" lon="-0.95614">
        <ele>8.5</ele>
        <time>2020-05-31T16:29:56Z</time>
      </trkpt>
      <trkpt lat="46.20666" lon="-0.95616">
        <ele>8.5</ele>
        <time>2020-05-31T16:29:57Z</time>
      </trkpt>
      <trkpt lat="46.20661" lon="-0.95618">
        <ele>8.6</ele>
        <time>2020-05-31T16:29:58Z</time>
      </trkpt>
      <trkpt lat="46.20655" lon="-0.95619">
        <ele>8.7</ele>
        <time>2020-05-31T16:29:59Z</time>
      </trkpt>
      <trkpt lat="46.20649" lon="-0.95621">
        <ele>8.8</ele>
        <time>2020-05-31T16:30:00Z</time>
      </trkpt>
      <trkpt lat="46.20643" lon="-0.95622">
        <ele>8.9</ele>
        <time>2020-05-31T16:30:01Z</time>
      </trkpt>
      <trkpt lat="46.20638" lon="-0.95623">
        <ele>9</ele>
        <time>2020-05-31T16:30:02Z</time>
      </trkpt>
      <trkpt lat="46.20632" lon="-0.95624">
        <ele>9.1</ele>
        <time>2020-05-31T16:30:03Z</time>
      </trkpt>
      <trkpt lat="46.20627" lon="-0.95625">
        <ele>9.2</ele>
        <time>2020-05-31T16:30:04Z</time>
      </trkpt>
      <trkpt lat="46.20621" lon="-0.95627">
        <ele>9.3</ele>
        <time>2020-05-31T16:30:05Z</time>
      </trkpt>
      <trkpt lat="46.20616" lon="-0.95628">
        <ele>9.4</ele>
        <time>2020-05-31T16:30:06Z</time>
      </trkpt>
      <trkpt lat="46.2061" lon="-0.95629">
        <ele>9.5</ele>
        <time>2020-05-31T16:30:07Z</time>
      </trkpt>
      <trkpt lat="46.20605" lon="-0.9563">
        <ele>9.6</ele>
        <time>2020-05-31T16:30:08Z</time>
      </trkpt>
      <trkpt lat="46.20599" lon="-0.95632">
        <ele>9.7</ele>
        <time>2020-05-31T16:30:09Z</time>
      </trkpt>
      <trkpt lat="46.20594" lon="-0.95633">
        <ele>9.8</ele>
        <time>2020-05-31T16:30:10Z</time>
      </trkpt>
      <trkpt lat="46.20588" lon="-0.95635">
        <ele>10</ele>
        <time>2020-05-31T16:30:11Z</time>
      </trkpt>
      <trkpt lat="46.20583" lon="-0.95638">
        <ele>10.1</ele>
        <time>2020-05-31T16:30:12Z</time>
      </trkpt>
      <trkpt lat="46.20578" lon="-0.95639">
        <ele>10.2</ele>
        <time>2020-05-31T16:30:13Z</time>
      </trkpt>
      <trkpt lat="46.20573" lon="-0.95641">
        <ele>10.4</ele>
        <time>2020-05-31T16:30:14Z</time>
      </trkpt>
      <trkpt lat="46.20567" lon="-0.95642">
        <ele>10.5</ele>
        <time>2020-05-31T16:30:15Z</time>
      </trkpt>
      <trkpt lat="46.20562" lon="-0.95644">
        <ele>10.6</ele>
        <time>2020-05-31T16:30:16Z</time>
      </trkpt>
      <trkpt lat="46.20557" lon="-0.95646">
        <ele>10.8</ele>
        <time>2020-05-31T16:30:17Z</time>
      </trkpt>
      <trkpt lat="46.20552" lon="-0.95648">
        <ele>10.9</ele>
        <time>2020-05-31T16:30:18Z</time>
      </trkpt>
      <trkpt lat="46.20547" lon="-0.95651">
        <ele>11</ele>
        <time>2020-05-31T16:30:19Z</time>
      </trkpt>
      <trkpt lat="46.20542" lon="-0.95653">
        <ele>11.2</ele>
        <time>2020-05-31T16:30:20Z</time>
      </trkpt>
      <trkpt lat="46.20537" lon="-0.95655">
        <ele>11.3</ele>
        <time>2020-05-31T16:30:21Z</time>
      </trkpt>
      <trkpt lat="46.20533" lon="-0.95658">
        <ele>11.4</ele>
        <time>2020-05-31T16:30:22Z</time>
      </trkpt>
      <trkpt lat="46.20528" lon="-0.9566">
        <ele>11.5</ele>
        <time>2020-05-31T16:30:23Z</time>
      </trkpt>
      <trkpt lat="46.20524" lon="-0.95662">
        <ele>11.6</ele>
        <time>2020-05-31T16:30:24Z</time>
      </trkpt>
      <trkpt lat="46.20519" lon="-0.95663">
        <ele>11.7</ele>
        <time>2020-05-31T16:30:25Z</time>
      </trkpt>
      <trkpt lat="46.20515" lon="-0.95666">
        <ele>11.7</ele>
        <time>2020-05-31T16:30:26Z</time>
      </trkpt>
      <trkpt lat="46.2051" lon="-0.95668">
        <ele>11.8</ele>
        <time>2020-05-31T16:30:27Z</time>
      </trkpt>
      <trkpt lat="46.20506" lon="-0.9567">
        <ele>11.9</ele>
        <time>2020-05-31T16:30:28Z</time>
      </trkpt>
      <trkpt lat="46.20502" lon="-0.95672">
        <ele>12</ele>
        <time>2020-05-31T16:30:29Z</time>
      </trkpt>
      <trkpt lat="46.20498" lon="-0.95674">
        <ele>12.1</ele>
        <time>2020-05-31T16:30:30Z</time>
      </trkpt>
      <trkpt lat="46.20493" lon="-0.95678">
        <ele>12.2</ele>
        <time>2020-05-31T16:30:31Z</time>
      </trkpt>
      <trkpt lat="46.20489" lon="-0.9568">
        <ele>12.3</ele>
        <time>2020-05-31T16:30:32Z</time>
      </trkpt>
      <trkpt lat="46.20484" lon="-0.95682">
        <ele>12.3</ele>
        <time>2020-05-31T16:30:33Z</time>
      </trkpt>
      <trkpt lat="46.2048" lon="-0.95683">
        <ele>12.3</ele>
        <time>2020-05-31T16:30:34Z</time>
      </trkpt>
      <trkpt lat="46.20475" lon="-0.95685">
        <ele>12.4</ele>
        <time>2020-05-31T16:30:35Z</time>
      </trkpt>
      <trkpt lat="46.20471" lon="-0.95687">
        <ele>12.4</ele>
        <time>2020-05-31T16:30:36Z</time>
      </trkpt>
      <trkpt lat="46.20467" lon="-0.95688">
        <ele>12.3</ele>
        <time>2020-05-31T16:30:37Z</time>
      </trkpt>
      <trkpt lat="46.20463" lon="-0.95689">
        <ele>12.3</ele>
        <time>2020-05-31T16:30:38Z</time>
      </trkpt>
      <trkpt lat="46.20459" lon="-0.95691">
        <ele>12.3</ele>
        <time>2020-05-31T16:30:39Z</time>
      </trkpt>
      <trkpt lat="46.20455" lon="-0.95693">
        <ele>12.3</ele>
        <time>2020-05-31T16:30:40Z</time>
      </trkpt>
      <trkpt lat="46.2045" lon="-0.95696">
        <ele>12.3</ele>
        <time>2020-05-31T16:30:41Z</time>
      </trkpt>
      <trkpt lat="46.20446" lon="-0.95699">
        <ele>12.3</ele>
        <time>2020-05-31T16:30:42Z</time>
      </trkpt>
      <trkpt lat="46.20441" lon="-0.95701">
        <ele>12.3</ele>
        <time>2020-05-31T16:30:43Z</time>
      </trkpt>
      <trkpt lat="46.20437" lon="-0.95704">
        <ele>12.4</ele>
        <time>2020-05-31T16:30:44Z</time>
      </trkpt>
      <trkpt lat="46.20432" lon="-0.95706">
        <ele>12.5</ele>
        <time>2020-05-31T16:30:45Z</time>
      </trkpt>
      <trkpt lat="46.20428" lon="-0.95708">
        <ele>12.5</ele>
        <time>2020-05-31T16:30:46Z</time>
      </trkpt>
      <trkpt lat="46.20423" lon="-0.95712">
        <ele>12.6</ele>
        <time>2020-05-31T16:30:47Z</time>
      </trkpt>
      <trkpt lat="46.20419" lon="-0.95714">
        <ele>12.7</ele>
        <time>2020-05-31T16:30:48Z</time>
      </trkpt>
      <trkpt lat="46.20414" lon="-0.95718">
        <ele>12.7</ele>
        <time>2020-05-31T16:30:49Z</time>
      </trkpt>
      <trkpt lat="46.2041" lon="-0.95722">
        <ele>12.7</ele>
        <time>2020-05-31T16:30:50Z</time>
      </trkpt>
      <trkpt lat="46.20405" lon="-0.95724">
        <ele>12.8</ele>
        <time>2020-05-31T16:30:51Z</time>
      </trkpt>
      <trkpt lat="46.204" lon="-0.95726">
        <ele>12.8</ele>
        <time>2020-05-31T16:30:52Z</time>
      </trkpt>
      <trkpt lat="46.20395" lon="-0.95729">
        <ele>12.7</ele>
        <time>2020-05-31T16:30:53Z</time>
      </trkpt>
      <trkpt lat="46.2039" lon="-0.95731">
        <ele>12.7</ele>
        <time>2020-05-31T16:30:54Z</time>
      </trkpt>
      <trkpt lat="46.20385" lon="-0.95733">
        <ele>12.7</ele>
        <time>2020-05-31T16:30:55Z</time>
      </trkpt>
      <trkpt lat="46.2038" lon="-0.95736">
        <ele>12.7</ele>
        <time>2020-05-31T16:30:56Z</time>
      </trkpt>
      <trkpt lat="46.20374" lon="-0.95738">
        <ele>12.6</ele>
        <time>2020-05-31T16:30:57Z</time>
      </trkpt>
      <trkpt lat="46.20369" lon="-0.95739">
        <ele>12.6</ele>
        <time>2020-05-31T16:30:58Z</time>
      </trkpt>
      <trkpt lat="46.20364" lon="-0.95742">
        <ele>12.6</ele>
        <time>2020-05-31T16:30:59Z</time>
      </trkpt>
      <trkpt lat="46.20358" lon="-0.95744">
        <ele>12.5</ele>
        <time>2020-05-31T16:31:00Z</time>
      </trkpt>
      <trkpt lat="46.20353" lon="-0.95747">
        <ele>12.5</ele>
        <time>2020-05-31T16:31:01Z</time>
      </trkpt>
      <trkpt lat="46.20347" lon="-0.9575">
        <ele>12.5</ele>
        <time>2020-05-31T16:31:02Z</time>
      </trkpt>
      <trkpt lat="46.20342" lon="-0.95754">
        <ele>12.5</ele>
        <time>2020-05-31T16:31:03Z</time>
      </trkpt>
      <trkpt lat="46.20336" lon="-0.95758">
        <ele>12.5</ele>
        <time>2020-05-31T16:31:04Z</time>
      </trkpt>
      <trkpt lat="46.2033" lon="-0.9576">
        <ele>12.4</ele>
        <time>2020-05-31T16:31:05Z</time>
      </trkpt>
      <trkpt lat="46.20325" lon="-0.95762">
        <ele>12.4</ele>
        <time>2020-05-31T16:31:06Z</time>
      </trkpt>
      <trkpt lat="46.20319" lon="-0.95765">
        <ele>12.4</ele>
        <time>2020-05-31T16:31:07Z</time>
      </trkpt>
      <trkpt lat="46.20314" lon="-0.95766">
        <ele>12.3</ele>
        <time>2020-05-31T16:31:08Z</time>
      </trkpt>
      <trkpt lat="46.20308" lon="-0.95769">
        <ele>12.2</ele>
        <time>2020-05-31T16:31:09Z</time>
      </trkpt>
      <trkpt lat="46.20302" lon="-0.95771">
        <ele>12.2</ele>
        <time>2020-05-31T16:31:10Z</time>
      </trkpt>
      <trkpt lat="46.20296" lon="-0.95773">
        <ele>12.1</ele>
        <time>2020-05-31T16:31:11Z</time>
      </trkpt>
      <trkpt lat="46.20291" lon="-0.95775">
        <ele>12.1</ele>
        <time>2020-05-31T16:31:12Z</time>
      </trkpt>
      <trkpt lat="46.20285" lon="-0.95778">
        <ele>12</ele>
        <time>2020-05-31T16:31:13Z</time>
      </trkpt>
      <trkpt lat="46.2028" lon="-0.9578">
        <ele>11.9</ele>
        <time>2020-05-31T16:31:14Z</time>
      </trkpt>
      <trkpt lat="46.20274" lon="-0.95782">
        <ele>11.9</ele>
        <time>2020-05-31T16:31:15Z</time>
      </trkpt>
      <trkpt lat="46.20268" lon="-0.95786">
        <ele>11.9</ele>
        <time>2020-05-31T16:31:16Z</time>
      </trkpt>
      <trkpt lat="46.20262" lon="-0.95789">
        <ele>12</ele>
        <time>2020-05-31T16:31:17Z</time>
      </trkpt>
      <trkpt lat="46.20256" lon="-0.95792">
        <ele>12</ele>
        <time>2020-05-31T16:31:18Z</time>
      </trkpt>
      <trkpt lat="46.20251" lon="-0.95796">
        <ele>12</ele>
        <time>2020-05-31T16:31:19Z</time>
      </trkpt>
      <trkpt lat="46.20245" lon="-0.95799">
        <ele>12</ele>
        <time>2020-05-31T16:31:20Z</time>
      </trkpt>
      <trkpt lat="46.20239" lon="-0.95803">
        <ele>11.9</ele>
        <time>2020-05-31T16:31:21Z</time>
      </trkpt>
      <trkpt lat="46.20233" lon="-0.95807">
        <ele>11.8</ele>
        <time>2020-05-31T16:31:22Z</time>
      </trkpt>
      <trkpt lat="46.20227" lon="-0.95812">
        <ele>11.7</ele>
        <time>2020-05-31T16:31:23Z</time>
      </trkpt>
      <trkpt lat="46.20222" lon="-0.95817">
        <ele>11.6</ele>
        <time>2020-05-31T16:31:24Z</time>
      </trkpt>
      <trkpt lat="46.20216" lon="-0.9582">
        <ele>11.5</ele>
        <time>2020-05-31T16:31:25Z</time>
      </trkpt>
      <trkpt lat="46.20209" lon="-0.95823">
        <ele>11.4</ele>
        <time>2020-05-31T16:31:26Z</time>
      </trkpt>
      <trkpt lat="46.20203" lon="-0.95826">
        <ele>11.4</ele>
        <time>2020-05-31T16:31:27Z</time>
      </trkpt>
      <trkpt lat="46.20197" lon="-0.95829">
        <ele>11.4</ele>
        <time>2020-05-31T16:31:28Z</time>
      </trkpt>
      <trkpt lat="46.2019" lon="-0.95831">
        <ele>11.4</ele>
        <time>2020-05-31T16:31:29Z</time>
      </trkpt>
      <trkpt lat="46.20184" lon="-0.95834">
        <ele>11.3</ele>
        <time>2020-05-31T16:31:30Z</time>
      </trkpt>
      <trkpt lat="46.20178" lon="-0.95838">
        <ele>11.3</ele>
        <time>2020-05-31T16:31:31Z</time>
      </trkpt>
      <trkpt lat="46.20172" lon="-0.9584">
        <ele>11.3</ele>
        <time>2020-05-31T16:31:32Z</time>
      </trkpt>
      <trkpt lat="46.20166" lon="-0.95843">
        <ele>11.3</ele>
        <time>2020-05-31T16:31:33Z</time>
      </trkpt>
      <trkpt lat="46.20159" lon="-0.95845">
        <ele>11.2</ele>
        <time>2020-05-31T16:31:34Z</time>
      </trkpt>
      <trkpt lat="46.20153" lon="-0.95848">
        <ele>11.2</ele>
        <time>2020-05-31T16:31:35Z</time>
      </trkpt>
      <trkpt lat="46.20147" lon="-0.95852">
        <ele>11.1</ele>
        <time>2020-05-31T16:31:36Z</time>
      </trkpt>
      <trkpt lat="46.20141" lon="-0.95856">
        <ele>11.1</ele>
        <time>2020-05-31T16:31:37Z</time>
      </trkpt>
      <trkpt lat="46.20134" lon="-0.9586">
        <ele>11.1</ele>
        <time>2020-05-31T16:31:38Z</time>
      </trkpt>
      <trkpt lat="46.20128" lon="-0.95865">
        <ele>11.1</ele>
        <time>2020-05-31T16:31:39Z</time>
      </trkpt>
      <trkpt lat="46.20123" lon="-0.95871">
        <ele>11.1</ele>
        <time>2020-05-31T16:31:40Z</time>
      </trkpt>
      <trkpt lat="46.20118" lon="-0.95877">
        <ele>11.1</ele>
        <time>2020-05-31T16:31:41Z</time>
      </trkpt>
      <trkpt lat="46.20113" lon="-0.95884">
        <ele>11.1</ele>
        <time>2020-05-31T16:31:42Z</time>
      </trkpt>
      <trkpt lat="46.20109" lon="-0.95891">
        <ele>11.1</ele>
        <time>2020-05-31T16:31:43Z</time>
      </trkpt>
      <trkpt lat="46.20105" lon="-0.95898">
        <ele>11.1</ele>
        <time>2020-05-31T16:31:44Z</time>
      </trkpt>
      <trkpt lat="46.20101" lon="-0.95906">
        <ele>11</ele>
        <time>2020-05-31T16:31:45Z</time>
      </trkpt>
      <trkpt lat="46.20097" lon="-0.95914">
        <ele>11</ele>
        <time>2020-05-31T16:31:46Z</time>
      </trkpt>
      <trkpt lat="46.20093" lon="-0.95922">
        <ele>11</ele>
        <time>2020-05-31T16:31:47Z</time>
      </trkpt>
      <trkpt lat="46.2009" lon="-0.9593">
        <ele>11</ele>
        <time>2020-05-31T16:31:48Z</time>
      </trkpt>
      <trkpt lat="46.20087" lon="-0.95938">
        <ele>11</ele>
        <time>2020-05-31T16:31:49Z</time>
      </trkpt>
      <trkpt lat="46.20084" lon="-0.95947">
        <ele>11</ele>
        <time>2020-05-31T16:31:50Z</time>
      </trkpt>
      <trkpt lat="46.2008" lon="-0.95955">
        <ele>11</ele>
        <time>2020-05-31T16:31:51Z</time>
      </trkpt>
      <trkpt lat="46.20077" lon="-0.95963">
        <ele>11</ele>
        <time>2020-05-31T16:31:52Z</time>
      </trkpt>
      <trkpt lat="46.20073" lon="-0.95972">
        <ele>11</ele>
        <time>2020-05-31T16:31:53Z</time>
      </trkpt>
      <trkpt lat="46.2007" lon="-0.95979">
        <ele>11</ele>
        <time>2020-05-31T16:31:54Z</time>
      </trkpt>
      <trkpt lat="46.20066" lon="-0.95988">
        <ele>11</ele>
        <time>2020-05-31T16:31:55Z</time>
      </trkpt>
      <trkpt lat="46.20063" lon="-0.95996">
        <ele>11</ele>
        <time>2020-05-31T16:31:56Z</time>
      </trkpt>
      <trkpt lat="46.20059" lon="-0.96004">
        <ele>11.1</ele>
        <time>2020-05-31T16:31:57Z</time>
      </trkpt>
      <trkpt lat="46.20055" lon="-0.96012">
        <ele>11.2</ele>
        <time>2020-05-31T16:31:58Z</time>
      </trkpt>
      <trkpt lat="46.20052" lon="-0.9602">
        <ele>11.4</ele>
        <time>2020-05-31T16:31:59Z</time>
      </trkpt>
      <trkpt lat="46.20048" lon="-0.96028">
        <ele>11.5</ele>
        <time>2020-05-31T16:32:00Z</time>
      </trkpt>
      <trkpt lat="46.20045" lon="-0.96036">
        <ele>11.7</ele>
        <time>2020-05-31T16:32:01Z</time>
      </trkpt>
      <trkpt lat="46.20041" lon="-0.96045">
        <ele>11.8</ele>
        <time>2020-05-31T16:32:02Z</time>
      </trkpt>
      <trkpt lat="46.20038" lon="-0.96052">
        <ele>11.9</ele>
        <time>2020-05-31T16:32:03Z</time>
      </trkpt>
      <trkpt lat="46.20034" lon="-0.9606">
        <ele>12</ele>
        <time>2020-05-31T16:32:04Z</time>
      </trkpt>
      <trkpt lat="46.2003" lon="-0.96068">
        <ele>12.1</ele>
        <time>2020-05-31T16:32:05Z</time>
      </trkpt>
      <trkpt lat="46.20027" lon="-0.96076">
        <ele>12.1</ele>
        <time>2020-05-31T16:32:06Z</time>
      </trkpt>
      <trkpt lat="46.20024" lon="-0.96084">
        <ele>12.2</ele>
        <time>2020-05-31T16:32:07Z</time>
      </trkpt>
      <trkpt lat="46.2002" lon="-0.96092">
        <ele>12.3</ele>
        <time>2020-05-31T16:32:08Z</time>
      </trkpt>
      <trkpt lat="46.20016" lon="-0.961">
        <ele>12.3</ele>
        <time>2020-05-31T16:32:09Z</time>
      </trkpt>
      <trkpt lat="46.20013" lon="-0.96108">
        <ele>12.5</ele>
        <time>2020-05-31T16:32:10Z</time>
      </trkpt>
      <trkpt lat="46.20009" lon="-0.96117">
        <ele>12.6</ele>
        <time>2020-05-31T16:32:11Z</time>
      </trkpt>
      <trkpt lat="46.20006" lon="-0.96124">
        <ele>12.7</ele>
        <time>2020-05-31T16:32:12Z</time>
      </trkpt>
      <trkpt lat="46.20002" lon="-0.96132">
        <ele>12.9</ele>
        <time>2020-05-31T16:32:13Z</time>
      </trkpt>
      <trkpt lat="46.19999" lon="-0.9614">
        <ele>13</ele>
        <time>2020-05-31T16:32:14Z</time>
      </trkpt>
      <trkpt lat="46.19995" lon="-0.96147">
        <ele>13.1</ele>
        <time>2020-05-31T16:32:15Z</time>
      </trkpt>
      <trkpt lat="46.19992" lon="-0.96155">
        <ele>13.2</ele>
        <time>2020-05-31T16:32:16Z</time>
      </trkpt>
      <trkpt lat="46.19988" lon="-0.96162">
        <ele>13.3</ele>
        <time>2020-05-31T16:32:17Z</time>
      </trkpt>
      <trkpt lat="46.19985" lon="-0.9617">
        <ele>13.4</ele>
        <time>2020-05-31T16:32:18Z</time>
      </trkpt>
      <trkpt lat="46.19981" lon="-0.96177">
        <ele>13.5</ele>
        <time>2020-05-31T16:32:19Z</time>
      </trkpt>
      <trkpt lat="46.19978" lon="-0.96185">
        <ele>13.6</ele>
        <time>2020-05-31T16:32:20Z</time>
      </trkpt>
      <trkpt lat="46.19974" lon="-0.96192">
        <ele>13.7</ele>
        <time>2020-05-31T16:32:21Z</time>
      </trkpt>
      <trkpt lat="46.1997" lon="-0.96199">
        <ele>13.8</ele>
        <time>2020-05-31T16:32:22Z</time>
      </trkpt>
      <trkpt lat="46.19967" lon="-0.96207">
        <ele>13.9</ele>
        <time>2020-05-31T16:32:23Z</time>
      </trkpt>
      <trkpt lat="46.19963" lon="-0.96214">
        <ele>14</ele>
        <time>2020-05-31T16:32:24Z</time>
      </trkpt>
      <trkpt lat="46.1996" lon="-0.96222">
        <ele>14.1</ele>
        <time>2020-05-31T16:32:25Z</time>
      </trkpt>
      <trkpt lat="46.19957" lon="-0.96229">
        <ele>14.2</ele>
        <time>2020-05-31T16:32:26Z</time>
      </trkpt>
      <trkpt lat="46.19953" lon="-0.96237">
        <ele>14.3</ele>
        <time>2020-05-31T16:32:27Z</time>
      </trkpt>
      <trkpt lat="46.1995" lon="-0.96244">
        <ele>14.5</ele>
        <time>2020-05-31T16:32:28Z</time>
      </trkpt>
      <trkpt lat="46.19946" lon="-0.96252">
        <ele>14.7</ele>
        <time>2020-05-31T16:32:29Z</time>
      </trkpt>
      <trkpt lat="46.19943" lon="-0.96259">
        <ele>14.8</ele>
        <time>2020-05-31T16:32:30Z</time>
      </trkpt>
      <trkpt lat="46.19939" lon="-0.96266">
        <ele>14.9</ele>
        <time>2020-05-31T16:32:31Z</time>
      </trkpt>
      <trkpt lat="46.19935" lon="-0.96272">
        <ele>15</ele>
        <time>2020-05-31T16:32:32Z</time>
      </trkpt>
      <trkpt lat="46.19932" lon="-0.96278">
        <ele>15.1</ele>
        <time>2020-05-31T16:32:33Z</time>
      </trkpt>
      <trkpt lat="46.19928" lon="-0.96285">
        <ele>15.2</ele>
        <time>2020-05-31T16:32:34Z</time>
      </trkpt>
      <trkpt lat="46.19924" lon="-0.96291">
        <ele>15.3</ele>
        <time>2020-05-31T16:32:35Z</time>
      </trkpt>
      <trkpt lat="46.19921" lon="-0.96297">
        <ele>15.4</ele>
        <time>2020-05-31T16:32:36Z</time>
      </trkpt>
      <trkpt lat="46.19916" lon="-0.96302">
        <ele>15.4</ele>
        <time>2020-05-31T16:32:37Z</time>
      </trkpt>
      <trkpt lat="46.19911" lon="-0.96306">
        <ele>15.6</ele>
        <time>2020-05-31T16:32:38Z</time>
      </trkpt>
      <trkpt lat="46.19906" lon="-0.9631">
        <ele>15.7</ele>
        <time>2020-05-31T16:32:39Z</time>
      </trkpt>
      <trkpt lat="46.19901" lon="-0.96314">
        <ele>15.8</ele>
        <time>2020-05-31T16:32:40Z</time>
      </trkpt>
      <trkpt lat="46.19895" lon="-0.96317">
        <ele>15.9</ele>
        <time>2020-05-31T16:32:41Z</time>
      </trkpt>
      <trkpt lat="46.1989" lon="-0.9632">
        <ele>16</ele>
        <time>2020-05-31T16:32:42Z</time>
      </trkpt>
      <trkpt lat="46.19884" lon="-0.96323">
        <ele>16.1</ele>
        <time>2020-05-31T16:32:43Z</time>
      </trkpt>
      <trkpt lat="46.19879" lon="-0.96327">
        <ele>16.2</ele>
        <time>2020-05-31T16:32:44Z</time>
      </trkpt>
      <trkpt lat="46.19873" lon="-0.9633">
        <ele>16.3</ele>
        <time>2020-05-31T16:32:45Z</time>
      </trkpt>
      <trkpt lat="46.19867" lon="-0.96334">
        <ele>16.4</ele>
        <time>2020-05-31T16:32:46Z</time>
      </trkpt>
      <trkpt lat="46.19862" lon="-0.96338">
        <ele>16.5</ele>
        <time>2020-05-31T16:32:47Z</time>
      </trkpt>
      <trkpt lat="46.19857" lon="-0.96343">
        <ele>16.6</ele>
        <time>2020-05-31T16:32:48Z</time>
      </trkpt>
      <trkpt lat="46.19851" lon="-0.96348">
        <ele>16.8</ele>
        <time>2020-05-31T16:32:49Z</time>
      </trkpt>
      <trkpt lat="46.19846" lon="-0.96352">
        <ele>16.9</ele>
        <time>2020-05-31T16:32:50Z</time>
      </trkpt>
      <trkpt lat="46.1984" lon="-0.96355">
        <ele>17</ele>
        <time>2020-05-31T16:32:51Z</time>
      </trkpt>
      <trkpt lat="46.19835" lon="-0.9636">
        <ele>17.2</ele>
        <time>2020-05-31T16:32:52Z</time>
      </trkpt>
      <trkpt lat="46.1983" lon="-0.96364">
        <ele>17.3</ele>
        <time>2020-05-31T16:32:53Z</time>
      </trkpt>
      <trkpt lat="46.19825" lon="-0.9637">
        <ele>17.5</ele>
        <time>2020-05-31T16:32:54Z</time>
      </trkpt>
      <trkpt lat="46.1982" lon="-0.96373">
        <ele>17.7</ele>
        <time>2020-05-31T16:32:55Z</time>
      </trkpt>
      <trkpt lat="46.19815" lon="-0.96375">
        <ele>17.9</ele>
        <time>2020-05-31T16:32:56Z</time>
      </trkpt>
      <trkpt lat="46.1981" lon="-0.9638">
        <ele>18</ele>
        <time>2020-05-31T16:32:57Z</time>
      </trkpt>
      <trkpt lat="46.19805" lon="-0.96383">
        <ele>18.2</ele>
        <time>2020-05-31T16:32:58Z</time>
      </trkpt>
      <trkpt lat="46.19801" lon="-0.96387">
        <ele>18.3</ele>
        <time>2020-05-31T16:32:59Z</time>
      </trkpt>
      <trkpt lat="46.19796" lon="-0.96392">
        <ele>18.5</ele>
        <time>2020-05-31T16:33:00Z</time>
      </trkpt>
      <trkpt lat="46.19792" lon="-0.96397">
        <ele>18.7</ele>
        <time>2020-05-31T16:33:01Z</time>
      </trkpt>
      <trkpt lat="46.19788" lon="-0.96401">
        <ele>18.9</ele>
        <time>2020-05-31T16:33:02Z</time>
      </trkpt>
      <trkpt lat="46.19783" lon="-0.96405">
        <ele>19.2</ele>
        <time>2020-05-31T16:33:03Z</time>
      </trkpt>
      <trkpt lat="46.19779" lon="-0.96409">
        <ele>19.5</ele>
        <time>2020-05-31T16:33:04Z</time>
      </trkpt>
      <trkpt lat="46.19774" lon="-0.96412">
        <ele>19.7</ele>
        <time>2020-05-31T16:33:05Z</time>
      </trkpt>
      <trkpt lat="46.1977" lon="-0.96415">
        <ele>20</ele>
        <time>2020-05-31T16:33:06Z</time>
      </trkpt>
      <trkpt lat="46.19765" lon="-0.96418">
        <ele>20.3</ele>
        <time>2020-05-31T16:33:07Z</time>
      </trkpt>
      <trkpt lat="46.19761" lon="-0.96422">
        <ele>20.6</ele>
        <time>2020-05-31T16:33:08Z</time>
      </trkpt>
      <trkpt lat="46.19756" lon="-0.96425">
        <ele>20.9</ele>
        <time>2020-05-31T16:33:09Z</time>
      </trkpt>
      <trkpt lat="46.19752" lon="-0.96429">
        <ele>21.2</ele>
        <time>2020-05-31T16:33:10Z</time>
      </trkpt>
      <trkpt lat="46.19747" lon="-0.96432">
        <ele>21.4</ele>
        <time>2020-05-31T16:33:11Z</time>
      </trkpt>
      <trkpt lat="46.19743" lon="-0.96435">
        <ele>21.7</ele>
        <time>2020-05-31T16:33:12Z</time>
      </trkpt>
      <trkpt lat="46.19739" lon="-0.96438">
        <ele>22</ele>
        <time>2020-05-31T16:33:13Z</time>
      </trkpt>
      <trkpt lat="46.19734" lon="-0.96441">
        <ele>22.3</ele>
        <time>2020-05-31T16:33:14Z</time>
      </trkpt>
      <trkpt lat="46.1973" lon="-0.96445">
        <ele>22.5</ele>
        <time>2020-05-31T16:33:15Z</time>
      </trkpt>
      <trkpt lat="46.19727" lon="-0.96449">
        <ele>22.8</ele>
        <time>2020-05-31T16:33:16Z</time>
      </trkpt>
      <trkpt lat="46.19723" lon="-0.96451">
        <ele>23.1</ele>
        <time>2020-05-31T16:33:17Z</time>
      </trkpt>
      <trkpt lat="46.19719" lon="-0.96454">
        <ele>23.4</ele>
        <time>2020-05-31T16:33:18Z</time>
      </trkpt>
      <trkpt lat="46.19715" lon="-0.96457">
        <ele>23.7</ele>
        <time>2020-05-31T16:33:19Z</time>
      </trkpt>
      <trkpt lat="46.19711" lon="-0.9646">
        <ele>23.9</ele>
        <time>2020-05-31T16:33:20Z</time>
      </trkpt>
      <trkpt lat="46.19707" lon="-0.96462">
        <ele>24.2</ele>
        <time>2020-05-31T16:33:21Z</time>
      </trkpt>
      <trkpt lat="46.19704" lon="-0.96465">
        <ele>24.5</ele>
        <time>2020-05-31T16:33:22Z</time>
      </trkpt>
      <trkpt lat="46.197" lon="-0.96467">
        <ele>24.7</ele>
        <time>2020-05-31T16:33:23Z</time>
      </trkpt>
      <trkpt lat="46.19696" lon="-0.9647">
        <ele>25</ele>
        <time>2020-05-31T16:33:24Z</time>
      </trkpt>
      <trkpt lat="46.19693" lon="-0.96472">
        <ele>25.3</ele>
        <time>2020-05-31T16:33:25Z</time>
      </trkpt>
      <trkpt lat="46.19689" lon="-0.96476">
        <ele>25.6</ele>
        <time>2020-05-31T16:33:26Z</time>
      </trkpt>
      <trkpt lat="46.19685" lon="-0.96479">
        <ele>25.9</ele>
        <time>2020-05-31T16:33:27Z</time>
      </trkpt>
      <trkpt lat="46.19682" lon="-0.96483">
        <ele>26.2</ele>
        <time>2020-05-31T16:33:28Z</time>
      </trkpt>
      <trkpt lat="46.19679" lon="-0.96486">
        <ele>26.4</ele>
        <time>2020-05-31T16:33:29Z</time>
      </trkpt>
      <trkpt lat="46.19675" lon="-0.96488">
        <ele>26.7</ele>
        <time>2020-05-31T16:33:30Z</time>
      </trkpt>
      <trkpt lat="46.19672" lon="-0.9649">
        <ele>27</ele>
        <time>2020-05-31T16:33:31Z</time>
      </trkpt>
      <trkpt lat="46.19668" lon="-0.96492">
        <ele>27.2</ele>
        <time>2020-05-31T16:33:32Z</time>
      </trkpt>
      <trkpt lat="46.19665" lon="-0.96495">
        <ele>27.4</ele>
        <time>2020-05-31T16:33:33Z</time>
      </trkpt>
      <trkpt lat="46.19662" lon="-0.96497">
        <ele>27.6</ele>
        <time>2020-05-31T16:33:34Z</time>
      </trkpt>
      <trkpt lat="46.1966" lon="-0.96499">
        <ele>27.8</ele>
        <time>2020-05-31T16:33:35Z</time>
      </trkpt>
      <trkpt lat="46.19657" lon="-0.96501">
        <ele>28</ele>
        <time>2020-05-31T16:33:36Z</time>
      </trkpt>
      <trkpt lat="46.19654" lon="-0.96504">
        <ele>28.2</ele>
        <time>2020-05-31T16:33:37Z</time>
      </trkpt>
      <trkpt lat="46.19652" lon="-0.96507">
        <ele>28.4</ele>
        <time>2020-05-31T16:33:38Z</time>
      </trkpt>
      <trkpt lat="46.19649" lon="-0.96509">
        <ele>28.5</ele>
        <time>2020-05-31T16:33:39Z</time>
      </trkpt>
      <trkpt lat="46.19646" lon="-0.96511">
        <ele>28.7</ele>
        <time>2020-05-31T16:33:40Z</time>
      </trkpt>
      <trkpt lat="46.19643" lon="-0.96512">
        <ele>28.8</ele>
        <time>2020-05-31T16:33:41Z</time>
      </trkpt>
      <trkpt lat="46.1964" lon="-0.96514">
        <ele>29</ele>
        <time>2020-05-31T16:33:42Z</time>
      </trkpt>
      <trkpt lat="46.19638" lon="-0.96517">
        <ele>29.1</ele>
        <time>2020-05-31T16:33:43Z</time>
      </trkpt>
      <trkpt lat="46.19636" lon="-0.9652">
        <ele>29.3</ele>
        <time>2020-05-31T16:33:44Z</time>
      </trkpt>
      <trkpt lat="46.19633" lon="-0.96523">
        <ele>29.2</ele>
        <time>2020-05-31T16:33:45Z</time>
      </trkpt>
      <trkpt lat="46.19631" lon="-0.96526">
        <ele>29.1</ele>
        <time>2020-05-31T16:33:46Z</time>
      </trkpt>
      <trkpt lat="46.19628" lon="-0.96529">
        <ele>29</ele>
        <time>2020-05-31T16:33:47Z</time>
      </trkpt>
      <trkpt lat="46.19625" lon="-0.9653">
        <ele>28.9</ele>
        <time>2020-05-31T16:33:48Z</time>
      </trkpt>
      <trkpt lat="46.19624" lon="-0.96535">
        <ele>29</ele>
        <time>2020-05-31T16:33:49Z</time>
      </trkpt>
      <trkpt lat="46.19623" lon="-0.96539">
        <ele>29</ele>
        <time>2020-05-31T16:33:50Z</time>
      </trkpt>
      <trkpt lat="46.19622" lon="-0.96543">
        <ele>29.1</ele>
        <time>2020-05-31T16:33:51Z</time>
      </trkpt>
      <trkpt lat="46.19618" lon="-0.96546">
        <ele>29.3</ele>
        <time>2020-05-31T16:33:52Z</time>
      </trkpt>
      <trkpt lat="46.19617" lon="-0.96547">
        <ele>29.4</ele>
        <time>2020-05-31T16:33:53Z</time>
      </trkpt>
      <trkpt lat="46.19613" lon="-0.96546">
        <ele>29.5</ele>
        <time>2020-05-31T16:33:54Z</time>
      </trkpt>
      <trkpt lat="46.19612" lon="-0.96546">
        <ele>29.6</ele>
        <time>2020-05-31T16:33:55Z</time>
      </trkpt>
      <trkpt lat="46.19609" lon="-0.96544">
        <ele>29.7</ele>
        <time>2020-05-31T16:33:56Z</time>
      </trkpt>
      <trkpt lat="46.19607" lon="-0.96544">
        <ele>29.9</ele>
        <time>2020-05-31T16:33:57Z</time>
      </trkpt>
      <trkpt lat="46.19604" lon="-0.96545">
        <ele>30</ele>
        <time>2020-05-31T16:33:58Z</time>
      </trkpt>
      <trkpt lat="46.19603" lon="-0.96545">
        <ele>30.1</ele>
        <time>2020-05-31T16:33:59Z</time>
      </trkpt>
      <trkpt lat="46.196" lon="-0.96546">
        <ele>30.2</ele>
        <time>2020-05-31T16:34:00Z</time>
      </trkpt>
      <trkpt lat="46.19597" lon="-0.96548">
        <ele>30.4</ele>
        <time>2020-05-31T16:34:01Z</time>
      </trkpt>
      <trkpt lat="46.19595" lon="-0.96549">
        <ele>30.4</ele>
        <time>2020-05-31T16:34:02Z</time>
      </trkpt>
      <trkpt lat="46.19592" lon="-0.96549">
        <ele>30.5</ele>
        <time>2020-05-31T16:34:03Z</time>
      </trkpt>
      <trkpt lat="46.19588" lon="-0.9655">
        <ele>30.5</ele>
        <time>2020-05-31T16:34:04Z</time>
      </trkpt>
      <trkpt lat="46.19585" lon="-0.9655">
        <ele>30.6</ele>
        <time>2020-05-31T16:34:05Z</time>
      </trkpt>
      <trkpt lat="46.19582" lon="-0.9655">
        <ele>30.6</ele>
        <time>2020-05-31T16:34:06Z</time>
      </trkpt>
      <trkpt lat="46.19578" lon="-0.96552">
        <ele>30.7</ele>
        <time>2020-05-31T16:34:07Z</time>
      </trkpt>
      <trkpt lat="46.19574" lon="-0.96552">
        <ele>30.8</ele>
        <time>2020-05-31T16:34:08Z</time>
      </trkpt>
      <trkpt lat="46.1957" lon="-0.96551">
        <ele>30.9</ele>
        <time>2020-05-31T16:34:09Z</time>
      </trkpt>
      <trkpt lat="46.19566" lon="-0.96552">
        <ele>31</ele>
        <time>2020-05-31T16:34:10Z</time>
      </trkpt>
      <trkpt lat="46.19561" lon="-0.96554">
        <ele>31.1</ele>
        <time>2020-05-31T16:34:11Z</time>
      </trkpt>
      <trkpt lat="46.19557" lon="-0.96554">
        <ele>31.2</ele>
        <time>2020-05-31T16:34:12Z</time>
      </trkpt>
      <trkpt lat="46.19555" lon="-0.96554">
        <ele>31.3</ele>
        <time>2020-05-31T16:34:13Z</time>
      </trkpt>
      <trkpt lat="46.19552" lon="-0.96557">
        <ele>31.3</ele>
        <time>2020-05-31T16:34:14Z</time>
      </trkpt>
      <trkpt lat="46.19549" lon="-0.96557">
        <ele>31.4</ele>
        <time>2020-05-31T16:34:15Z</time>
      </trkpt>
      <trkpt lat="46.19547" lon="-0.96557">
        <ele>31.4</ele>
        <time>2020-05-31T16:34:16Z</time>
      </trkpt>
      <trkpt lat="46.19545" lon="-0.96557">
        <ele>31.5</ele>
        <time>2020-05-31T16:34:17Z</time>
      </trkpt>
      <trkpt lat="46.19543" lon="-0.96557">
        <ele>31.5</ele>
        <time>2020-05-31T16:34:18Z</time>
      </trkpt>
      <trkpt lat="46.19542" lon="-0.96558">
        <ele>31.5</ele>
        <time>2020-05-31T16:34:19Z</time>
      </trkpt>
      <trkpt lat="46.19541" lon="-0.96559">
        <ele>31.5</ele>
        <time>2020-05-31T16:34:20Z</time>
      </trkpt>
      <trkpt lat="46.19541" lon="-0.96559">
        <ele>31.5</ele>
        <time>2020-05-31T16:34:21Z</time>
      </trkpt>
      <trkpt lat="46.19542" lon="-0.9656">
        <ele>31.6</ele>
        <time>2020-05-31T16:34:22Z</time>
      </trkpt>
      <trkpt lat="46.19541" lon="-0.9656">
        <ele>31.6</ele>
        <time>2020-05-31T16:34:23Z</time>
      </trkpt>
      <trkpt lat="46.19542" lon="-0.9656">
        <ele>31.6</ele>
        <time>2020-05-31T16:34:24Z</time>
      </trkpt>
      <trkpt lat="46.19543" lon="-0.96559">
        <ele>31.6</ele>
        <time>2020-05-31T16:34:25Z</time>
      </trkpt>
      <trkpt lat="46.19542" lon="-0.96559">
        <ele>31.6</ele>
        <time>2020-05-31T16:34:26Z</time>
      </trkpt>
      <trkpt lat="46.19542" lon="-0.96559">
        <ele>31.6</ele>
        <time>2020-05-31T16:34:27Z</time>
      </trkpt>
      <trkpt lat="46.19543" lon="-0.96559">
        <ele>31.6</ele>
        <time>2020-05-31T16:34:28Z</time>
      </trkpt>
      <trkpt lat="46.19543" lon="-0.96559">
        <ele>31.6</ele>
        <time>2020-05-31T16:34:29Z</time>
      </trkpt>
      <trkpt lat="46.19543" lon="-0.96559">
        <ele>31.6</ele>
        <time>2020-05-31T16:34:30Z</time>
      </trkpt>
      <trkpt lat="46.19543" lon="-0.96559">
        <ele>31.6</ele>
        <time>2020-05-31T16:34:31Z</time>
      </trkpt>
      <trkpt lat="46.19542" lon="-0.96559">
        <ele>31.6</ele>
        <time>2020-05-31T16:34:32Z</time>
      </trkpt>
      <trkpt lat="46.19542" lon="-0.96559">
        <ele>31.6</ele>
        <time>2020-05-31T16:34:33Z</time>
      </trkpt>
      <trkpt lat="46.19543" lon="-0.96559">
        <ele>31.6</ele>
        <time>2020-05-31T16:34:34Z</time>
      </trkpt>
      <trkpt lat="46.19543" lon="-0.96558">
        <ele>31.6</ele>
        <time>2020-05-31T16:34:35Z</time>
      </trkpt>
      <trkpt lat="46.19543" lon="-0.96558">
        <ele>31.7</ele>
        <time>2020-05-31T16:34:36Z</time>
      </trkpt>
      <trkpt lat="46.19543" lon="-0.96558">
        <ele>31.7</ele>
        <time>2020-05-31T16:34:37Z</time>
      </trkpt>
      <trkpt lat="46.19542" lon="-0.96559">
        <ele>31.7</ele>
        <time>2020-05-31T16:34:38Z</time>
      </trkpt>
      <trkpt lat="46.19542" lon="-0.96559">
        <ele>31.7</ele>
        <time>2020-05-31T16:34:39Z</time>
      </trkpt>
      <trkpt lat="46.19542" lon="-0.96559">
        <ele>31.7</ele>
        <time>2020-05-31T16:34:40Z</time>
      </trkpt>
      <trkpt lat="46.19542" lon="-0.96559">
        <ele>31.7</ele>
        <time>2020-05-31T16:34:41Z</time>
      </trkpt>
      <trkpt lat="46.19542" lon="-0.96559">
        <ele>31.7</ele>
        <time>2020-05-31T16:34:42Z</time>
      </trkpt>
      <trkpt lat="46.19542" lon="-0.96559">
        <ele>31.7</ele>
        <time>2020-05-31T16:34:43Z</time>
      </trkpt>
      <trkpt lat="46.19542" lon="-0.96559">
        <ele>31.7</ele>
        <time>2020-05-31T16:34:44Z</time>
      </trkpt>
      <trkpt lat="46.19542" lon="-0.96559">
        <ele>31.7</ele>
        <time>2020-05-31T16:34:45Z</time>
      </trkpt>
      <trkpt lat="46.19542" lon="-0.9656">
        <ele>31.7</ele>
        <time>2020-05-31T16:34:46Z</time>
      </trkpt>
      <trkpt lat="46.19542" lon="-0.9656">
        <ele>31.7</ele>
        <time>2020-05-31T16:34:47Z</time>
      </trkpt>
      <trkpt lat="46.19542" lon="-0.9656">
        <ele>31.7</ele>
        <time>2020-05-31T16:34:48Z</time>
      </trkpt>
      <trkpt lat="46.19542" lon="-0.96559">
        <ele>31.7</ele>
        <time>2020-05-31T16:34:49Z</time>
      </trkpt>
      <trkpt lat="46.19542" lon="-0.96559">
        <ele>31.7</ele>
        <time>2020-05-31T16:34:50Z</time>
      </trkpt>
      <trkpt lat="46.19543" lon="-0.96559">
        <ele>31.7</ele>
        <time>2020-05-31T16:34:51Z</time>
      </trkpt>
      <trkpt lat="46.19542" lon="-0.96559">
        <ele>31.7</ele>
        <time>2020-05-31T16:34:52Z</time>
      </trkpt>
      <trkpt lat="46.19542" lon="-0.96559">
        <ele>31.7</ele>
        <time>2020-05-31T16:34:53Z</time>
      </trkpt>
      <trkpt lat="46.19543" lon="-0.96559">
        <ele>31.7</ele>
        <time>2020-05-31T16:34:54Z</time>
      </trkpt>
      <trkpt lat="46.19543" lon="-0.96559">
        <ele>31.7</ele>
        <time>2020-05-31T16:34:55Z</time>
      </trkpt>
      <trkpt lat="46.19543" lon="-0.9656">
        <ele>31.8</ele>
        <time>2020-05-31T16:34:56Z</time>
      </trkpt>
      <trkpt lat="46.19543" lon="-0.9656">
        <ele>31.8</ele>
        <time>2020-05-31T16:34:57Z</time>
      </trkpt>
      <trkpt lat="46.19544" lon="-0.96559">
        <ele>31.8</ele>
        <time>2020-05-31T16:34:58Z</time>
      </trkpt>
      <trkpt lat="46.19544" lon="-0.96558">
        <ele>31.8</ele>
        <time>2020-05-31T16:34:59Z</time>
      </trkpt>
      <trkpt lat="46.19544" lon="-0.96558">
        <ele>31.8</ele>
        <time>2020-05-31T16:35:00Z</time>
      </trkpt>
      <trkpt lat="46.19544" lon="-0.96558">
        <ele>31.8</ele>
        <time>2020-05-31T16:35:01Z</time>
      </trkpt>
      <trkpt lat="46.19544" lon="-0.96558">
        <ele>31.8</ele>
        <time>2020-05-31T16:35:02Z</time>
      </trkpt>
      <trkpt lat="46.19543" lon="-0.96558">
        <ele>31.8</ele>
        <time>2020-05-31T16:35:03Z</time>
      </trkpt>
      <trkpt lat="46.19543" lon="-0.96559">
        <ele>31.8</ele>
        <time>2020-05-31T16:35:04Z</time>
      </trkpt>
      <trkpt lat="46.19543" lon="-0.96559">
        <ele>31.8</ele>
        <time>2020-05-31T16:35:05Z</time>
      </trkpt>
      <trkpt lat="46.19542" lon="-0.96559">
        <ele>31.8</ele>
        <time>2020-05-31T16:35:06Z</time>
      </trkpt>
      <trkpt lat="46.19542" lon="-0.96559">
        <ele>31.8</ele>
        <time>2020-05-31T16:35:07Z</time>
      </trkpt>
      <trkpt lat="46.19542" lon="-0.9656">
        <ele>31.8</ele>
        <time>2020-05-31T16:35:08Z</time>
      </trkpt>
      <trkpt lat="46.19541" lon="-0.9656">
        <ele>31.8</ele>
        <time>2020-05-31T16:35:09Z</time>
      </trkpt>
      <trkpt lat="46.19541" lon="-0.9656">
        <ele>31.9</ele>
        <time>2020-05-31T16:35:10Z</time>
      </trkpt>
      <trkpt lat="46.19541" lon="-0.9656">
        <ele>31.9</ele>
        <time>2020-05-31T16:35:11Z</time>
      </trkpt>
      <trkpt lat="46.1954" lon="-0.9656">
        <ele>31.9</ele>
        <time>2020-05-31T16:35:12Z</time>
      </trkpt>
      <trkpt lat="46.1954" lon="-0.96561">
        <ele>31.9</ele>
        <time>2020-05-31T16:35:13Z</time>
      </trkpt>
      <trkpt lat="46.19539" lon="-0.96561">
        <ele>31.9</ele>
        <time>2020-05-31T16:35:14Z</time>
      </trkpt>
      <trkpt lat="46.19537" lon="-0.96562">
        <ele>31.9</ele>
        <time>2020-05-31T16:35:15Z</time>
      </trkpt>
      <trkpt lat="46.19534" lon="-0.96562">
        <ele>32</ele>
        <time>2020-05-31T16:35:16Z</time>
      </trkpt>
      <trkpt lat="46.19531" lon="-0.96562">
        <ele>32.1</ele>
        <time>2020-05-31T16:35:17Z</time>
      </trkpt>
      <trkpt lat="46.19527" lon="-0.96562">
        <ele>32.2</ele>
        <time>2020-05-31T16:35:18Z</time>
      </trkpt>
      <trkpt lat="46.19524" lon="-0.96563">
        <ele>32.2</ele>
        <time>2020-05-31T16:35:19Z</time>
      </trkpt>
      <trkpt lat="46.19521" lon="-0.96563">
        <ele>32.3</ele>
        <time>2020-05-31T16:35:20Z</time>
      </trkpt>
      <trkpt lat="46.19519" lon="-0.96564">
        <ele>32.3</ele>
        <time>2020-05-31T16:35:21Z</time>
      </trkpt>
      <trkpt lat="46.19517" lon="-0.96564">
        <ele>32.4</ele>
        <time>2020-05-31T16:35:22Z</time>
      </trkpt>
      <trkpt lat="46.19513" lon="-0.96564">
        <ele>32.4</ele>
        <time>2020-05-31T16:35:23Z</time>
      </trkpt>
      <trkpt lat="46.1951" lon="-0.96565">
        <ele>32.5</ele>
        <time>2020-05-31T16:35:24Z</time>
      </trkpt>
      <trkpt lat="46.19507" lon="-0.96565">
        <ele>32.5</ele>
        <time>2020-05-31T16:35:25Z</time>
      </trkpt>
      <trkpt lat="46.19503" lon="-0.96564">
        <ele>32.6</ele>
        <time>2020-05-31T16:35:26Z</time>
      </trkpt>
      <trkpt lat="46.195" lon="-0.96563">
        <ele>32.6</ele>
        <time>2020-05-31T16:35:27Z</time>
      </trkpt>
      <trkpt lat="46.19496" lon="-0.96563">
        <ele>32.7</ele>
        <time>2020-05-31T16:35:28Z</time>
      </trkpt>
      <trkpt lat="46.19495" lon="-0.96563">
        <ele>32.7</ele>
        <time>2020-05-31T16:35:29Z</time>
      </trkpt>
      <trkpt lat="46.19493" lon="-0.96562">
        <ele>32.7</ele>
        <time>2020-05-31T16:35:30Z</time>
      </trkpt>
      <trkpt lat="46.19492" lon="-0.96562">
        <ele>32.7</ele>
        <time>2020-05-31T16:35:31Z</time>
      </trkpt>
      <trkpt lat="46.19488" lon="-0.96561">
        <ele>32.7</ele>
        <time>2020-05-31T16:35:32Z</time>
      </trkpt>
      <trkpt lat="46.19487" lon="-0.96562">
        <ele>32.7</ele>
        <time>2020-05-31T16:35:33Z</time>
      </trkpt>
      <trkpt lat="46.19483" lon="-0.96562">
        <ele>32.7</ele>
        <time>2020-05-31T16:35:34Z</time>
      </trkpt>
      <trkpt lat="46.19479" lon="-0.96563">
        <ele>32.7</ele>
        <time>2020-05-31T16:35:35Z</time>
      </trkpt>
      <trkpt lat="46.19476" lon="-0.96562">
        <ele>32.7</ele>
        <time>2020-05-31T16:35:36Z</time>
      </trkpt>
      <trkpt lat="46.19473" lon="-0.96562">
        <ele>32.7</ele>
        <time>2020-05-31T16:35:37Z</time>
      </trkpt>
      <trkpt lat="46.19468" lon="-0.96563">
        <ele>32.7</ele>
        <time>2020-05-31T16:35:38Z</time>
      </trkpt>
      <trkpt lat="46.19462" lon="-0.96563">
        <ele>32.7</ele>
        <time>2020-05-31T16:35:39Z</time>
      </trkpt>
      <trkpt lat="46.19459" lon="-0.96563">
        <ele>32.7</ele>
        <time>2020-05-31T16:35:40Z</time>
      </trkpt>
      <trkpt lat="46.19454" lon="-0.96563">
        <ele>32.7</ele>
        <time>2020-05-31T16:35:41Z</time>
      </trkpt>
      <trkpt lat="46.19451" lon="-0.96563">
        <ele>32.7</ele>
        <time>2020-05-31T16:35:42Z</time>
      </trkpt>
      <trkpt lat="46.19447" lon="-0.96564">
        <ele>32.7</ele>
        <time>2020-05-31T16:35:43Z</time>
      </trkpt>
      <trkpt lat="46.19443" lon="-0.96564">
        <ele>32.7</ele>
        <time>2020-05-31T16:35:44Z</time>
      </trkpt>
      <trkpt lat="46.19438" lon="-0.96564">
        <ele>32.7</ele>
        <time>2020-05-31T16:35:45Z</time>
      </trkpt>
      <trkpt lat="46.19435" lon="-0.96564">
        <ele>32.7</ele>
        <time>2020-05-31T16:35:46Z</time>
      </trkpt>
      <trkpt lat="46.19435" lon="-0.96564">
        <ele>32.7</ele>
        <time>2020-05-31T16:35:47Z</time>
      </trkpt>
      <trkpt lat="46.19428" lon="-0.96565">
        <ele>32.7</ele>
        <time>2020-05-31T16:35:48Z</time>
      </trkpt>
      <trkpt lat="46.19424" lon="-0.96565">
        <ele>32.7</ele>
        <time>2020-05-31T16:35:49Z</time>
      </trkpt>
      <trkpt lat="46.19419" lon="-0.96566">
        <ele>32.7</ele>
        <time>2020-05-31T16:35:50Z</time>
      </trkpt>
      <trkpt lat="46.19414" lon="-0.96567">
        <ele>32.7</ele>
        <time>2020-05-31T16:35:51Z</time>
      </trkpt>
      <trkpt lat="46.1941" lon="-0.96568">
        <ele>32.7</ele>
        <time>2020-05-31T16:35:52Z</time>
      </trkpt>
      <trkpt lat="46.19406" lon="-0.96568">
        <ele>32.7</ele>
        <time>2020-05-31T16:35:53Z</time>
      </trkpt>
      <trkpt lat="46.19402" lon="-0.9657">
        <ele>32.8</ele>
        <time>2020-05-31T16:35:54Z</time>
      </trkpt>
      <trkpt lat="46.19397" lon="-0.96571">
        <ele>32.8</ele>
        <time>2020-05-31T16:35:55Z</time>
      </trkpt>
      <trkpt lat="46.19393" lon="-0.96572">
        <ele>32.8</ele>
        <time>2020-05-31T16:35:56Z</time>
      </trkpt>
      <trkpt lat="46.19392" lon="-0.96573">
        <ele>32.9</ele>
        <time>2020-05-31T16:35:57Z</time>
      </trkpt>
      <trkpt lat="46.19389" lon="-0.96577">
        <ele>33</ele>
        <time>2020-05-31T16:35:58Z</time>
      </trkpt>
      <trkpt lat="46.19386" lon="-0.96581">
        <ele>33.1</ele>
        <time>2020-05-31T16:35:59Z</time>
      </trkpt>
      <trkpt lat="46.19384" lon="-0.96584">
        <ele>33.1</ele>
        <time>2020-05-31T16:36:00Z</time>
      </trkpt>
      <trkpt lat="46.19382" lon="-0.96587">
        <ele>33.2</ele>
        <time>2020-05-31T16:36:01Z</time>
      </trkpt>
      <trkpt lat="46.1938" lon="-0.96592">
        <ele>33.3</ele>
        <time>2020-05-31T16:36:02Z</time>
      </trkpt>
      <trkpt lat="46.19379" lon="-0.96598">
        <ele>33.4</ele>
        <time>2020-05-31T16:36:03Z</time>
      </trkpt>
      <trkpt lat="46.19377" lon="-0.96602">
        <ele>33.5</ele>
        <time>2020-05-31T16:36:04Z</time>
      </trkpt>
      <trkpt lat="46.19375" lon="-0.96607">
        <ele>33.6</ele>
        <time>2020-05-31T16:36:05Z</time>
      </trkpt>
      <trkpt lat="46.19374" lon="-0.96614">
        <ele>33.7</ele>
        <time>2020-05-31T16:36:06Z</time>
      </trkpt>
      <trkpt lat="46.19371" lon="-0.96619">
        <ele>33.8</ele>
        <time>2020-05-31T16:36:07Z</time>
      </trkpt>
      <trkpt lat="46.19369" lon="-0.96625">
        <ele>33.9</ele>
        <time>2020-05-31T16:36:08Z</time>
      </trkpt>
      <trkpt lat="46.19367" lon="-0.9663">
        <ele>34</ele>
        <time>2020-05-31T16:36:09Z</time>
      </trkpt>
      <trkpt lat="46.19364" lon="-0.96637">
        <ele>34.1</ele>
        <time>2020-05-31T16:36:10Z</time>
      </trkpt>
      <trkpt lat="46.19361" lon="-0.96642">
        <ele>34.3</ele>
        <time>2020-05-31T16:36:11Z</time>
      </trkpt>
      <trkpt lat="46.19357" lon="-0.96648">
        <ele>34.4</ele>
        <time>2020-05-31T16:36:12Z</time>
      </trkpt>
      <trkpt lat="46.19354" lon="-0.96654">
        <ele>34.6</ele>
        <time>2020-05-31T16:36:13Z</time>
      </trkpt>
      <trkpt lat="46.1935" lon="-0.96661">
        <ele>35</ele>
        <time>2020-05-31T16:36:14Z</time>
      </trkpt>
      <trkpt lat="46.19347" lon="-0.96668">
        <ele>35.1</ele>
        <time>2020-05-31T16:36:15Z</time>
      </trkpt>
      <trkpt lat="46.19343" lon="-0.96672">
        <ele>35.2</ele>
        <time>2020-05-31T16:36:16Z</time>
      </trkpt>
      <trkpt lat="46.19339" lon="-0.96676">
        <ele>35.3</ele>
        <time>2020-05-31T16:36:17Z</time>
      </trkpt>
      <trkpt lat="46.19336" lon="-0.96681">
        <ele>35.5</ele>
        <time>2020-05-31T16:36:18Z</time>
      </trkpt>
      <trkpt lat="46.19334" lon="-0.96687">
        <ele>35.5</ele>
        <time>2020-05-31T16:36:19Z</time>
      </trkpt>
      <trkpt lat="46.19332" lon="-0.96693">
        <ele>35.6</ele>
        <time>2020-05-31T16:36:20Z</time>
      </trkpt>
      <trkpt lat="46.1933" lon="-0.967">
        <ele>35.7</ele>
        <time>2020-05-31T16:36:21Z</time>
      </trkpt>
      <trkpt lat="46.19328" lon="-0.96706">
        <ele>35.7</ele>
        <time>2020-05-31T16:36:22Z</time>
      </trkpt>
      <trkpt lat="46.19327" lon="-0.96712">
        <ele>35.8</ele>
        <time>2020-05-31T16:36:23Z</time>
      </trkpt>
      <trkpt lat="46.19326" lon="-0.96717">
        <ele>35.8</ele>
        <time>2020-05-31T16:36:24Z</time>
      </trkpt>
      <trkpt lat="46.19324" lon="-0.96721">
        <ele>35.8</ele>
        <time>2020-05-31T16:36:25Z</time>
      </trkpt>
      <trkpt lat="46.19321" lon="-0.96723">
        <ele>35.8</ele>
        <time>2020-05-31T16:36:26Z</time>
      </trkpt>
      <trkpt lat="46.19317" lon="-0.96725">
        <ele>35.5</ele>
        <time>2020-05-31T16:36:27Z</time>
      </trkpt>
      <trkpt lat="46.19313" lon="-0.96729">
        <ele>35.5</ele>
        <time>2020-05-31T16:36:28Z</time>
      </trkpt>
      <trkpt lat="46.1931" lon="-0.96733">
        <ele>35.5</ele>
        <time>2020-05-31T16:36:29Z</time>
      </trkpt>
      <trkpt lat="46.19306" lon="-0.96737">
        <ele>35.5</ele>
        <time>2020-05-31T16:36:30Z</time>
      </trkpt>
      <trkpt lat="46.19302" lon="-0.9674">
        <ele>35.4</ele>
        <time>2020-05-31T16:36:31Z</time>
      </trkpt>
      <trkpt lat="46.19298" lon="-0.96743">
        <ele>35.4</ele>
        <time>2020-05-31T16:36:32Z</time>
      </trkpt>
      <trkpt lat="46.19294" lon="-0.96745">
        <ele>35.4</ele>
        <time>2020-05-31T16:36:33Z</time>
      </trkpt>
      <trkpt lat="46.19291" lon="-0.96749">
        <ele>35.3</ele>
        <time>2020-05-31T16:36:34Z</time>
      </trkpt>
      <trkpt lat="46.19287" lon="-0.96753">
        <ele>35.3</ele>
        <time>2020-05-31T16:36:35Z</time>
      </trkpt>
      <trkpt lat="46.19284" lon="-0.96756">
        <ele>35.3</ele>
        <time>2020-05-31T16:36:36Z</time>
      </trkpt>
      <trkpt lat="46.19281" lon="-0.96759">
        <ele>35.2</ele>
        <time>2020-05-31T16:36:37Z</time>
      </trkpt>
      <trkpt lat="46.19277" lon="-0.96762">
        <ele>35.2</ele>
        <time>2020-05-31T16:36:38Z</time>
      </trkpt>
      <trkpt lat="46.19273" lon="-0.96765">
        <ele>35.1</ele>
        <time>2020-05-31T16:36:39Z</time>
      </trkpt>
      <trkpt lat="46.1927" lon="-0.96769">
        <ele>35.1</ele>
        <time>2020-05-31T16:36:40Z</time>
      </trkpt>
      <trkpt lat="46.19266" lon="-0.96771">
        <ele>35</ele>
        <time>2020-05-31T16:36:41Z</time>
      </trkpt>
      <trkpt lat="46.19262" lon="-0.96773">
        <ele>34.9</ele>
        <time>2020-05-31T16:36:42Z</time>
      </trkpt>
      <trkpt lat="46.19258" lon="-0.96778">
        <ele>34.9</ele>
        <time>2020-05-31T16:36:43Z</time>
      </trkpt>
      <trkpt lat="46.19253" lon="-0.96783">
        <ele>34.8</ele>
        <time>2020-05-31T16:36:44Z</time>
      </trkpt>
      <trkpt lat="46.19249" lon="-0.96786">
        <ele>34.7</ele>
        <time>2020-05-31T16:36:45Z</time>
      </trkpt>
      <trkpt lat="46.19245" lon="-0.96789">
        <ele>34.7</ele>
        <time>2020-05-31T16:36:46Z</time>
      </trkpt>
      <trkpt lat="46.19242" lon="-0.96792">
        <ele>34.6</ele>
        <time>2020-05-31T16:36:47Z</time>
      </trkpt>
      <trkpt lat="46.19239" lon="-0.96796">
        <ele>34.6</ele>
        <time>2020-05-31T16:36:48Z</time>
      </trkpt>
      <trkpt lat="46.19235" lon="-0.968">
        <ele>34.6</ele>
        <time>2020-05-31T16:36:49Z</time>
      </trkpt>
      <trkpt lat="46.1923" lon="-0.96806">
        <ele>34.5</ele>
        <time>2020-05-31T16:36:50Z</time>
      </trkpt>
      <trkpt lat="46.19225" lon="-0.9681">
        <ele>34.5</ele>
        <time>2020-05-31T16:36:51Z</time>
      </trkpt>
      <trkpt lat="46.1922" lon="-0.96815">
        <ele>34.4</ele>
        <time>2020-05-31T16:36:52Z</time>
      </trkpt>
      <trkpt lat="46.19216" lon="-0.9682">
        <ele>34.4</ele>
        <time>2020-05-31T16:36:53Z</time>
      </trkpt>
      <trkpt lat="46.19212" lon="-0.96825">
        <ele>34.5</ele>
        <time>2020-05-31T16:36:54Z</time>
      </trkpt>
      <trkpt lat="46.19209" lon="-0.9683">
        <ele>34.5</ele>
        <time>2020-05-31T16:36:55Z</time>
      </trkpt>
      <trkpt lat="46.19207" lon="-0.96833">
        <ele>34.6</ele>
        <time>2020-05-31T16:36:56Z</time>
      </trkpt>
      <trkpt lat="46.19205" lon="-0.9684">
        <ele>34.6</ele>
        <time>2020-05-31T16:36:57Z</time>
      </trkpt>
      <trkpt lat="46.192" lon="-0.96846">
        <ele>34.6</ele>
        <time>2020-05-31T16:36:58Z</time>
      </trkpt>
      <trkpt lat="46.19196" lon="-0.96851">
        <ele>34.7</ele>
        <time>2020-05-31T16:36:59Z</time>
      </trkpt>
      <trkpt lat="46.19191" lon="-0.96856">
        <ele>34.7</ele>
        <time>2020-05-31T16:37:00Z</time>
      </trkpt>
      <trkpt lat="46.19187" lon="-0.96861">
        <ele>34.7</ele>
        <time>2020-05-31T16:37:01Z</time>
      </trkpt>
      <trkpt lat="46.19184" lon="-0.96865">
        <ele>34.7</ele>
        <time>2020-05-31T16:37:02Z</time>
      </trkpt>
      <trkpt lat="46.19177" lon="-0.96867">
        <ele>34.7</ele>
        <time>2020-05-31T16:37:03Z</time>
      </trkpt>
      <trkpt lat="46.19172" lon="-0.96871">
        <ele>34.7</ele>
        <time>2020-05-31T16:37:04Z</time>
      </trkpt>
      <trkpt lat="46.19167" lon="-0.96873">
        <ele>34.6</ele>
        <time>2020-05-31T16:37:05Z</time>
      </trkpt>
      <trkpt lat="46.19162" lon="-0.96877">
        <ele>34.5</ele>
        <time>2020-05-31T16:37:06Z</time>
      </trkpt>
      <trkpt lat="46.19157" lon="-0.96881">
        <ele>34.5</ele>
        <time>2020-05-31T16:37:07Z</time>
      </trkpt>
      <trkpt lat="46.1915" lon="-0.96884">
        <ele>34.4</ele>
        <time>2020-05-31T16:37:08Z</time>
      </trkpt>
      <trkpt lat="46.19145" lon="-0.96888">
        <ele>34.4</ele>
        <time>2020-05-31T16:37:09Z</time>
      </trkpt>
      <trkpt lat="46.19139" lon="-0.96891">
        <ele>34.3</ele>
        <time>2020-05-31T16:37:10Z</time>
      </trkpt>
      <trkpt lat="46.19133" lon="-0.96894">
        <ele>34.3</ele>
        <time>2020-05-31T16:37:11Z</time>
      </trkpt>
      <trkpt lat="46.19128" lon="-0.96897">
        <ele>34.2</ele>
        <time>2020-05-31T16:37:12Z</time>
      </trkpt>
      <trkpt lat="46.19124" lon="-0.969">
        <ele>34.1</ele>
        <time>2020-05-31T16:37:13Z</time>
      </trkpt>
      <trkpt lat="46.19118" lon="-0.96904">
        <ele>34.1</ele>
        <time>2020-05-31T16:37:14Z</time>
      </trkpt>
      <trkpt lat="46.19112" lon="-0.96908">
        <ele>34</ele>
        <time>2020-05-31T16:37:15Z</time>
      </trkpt>
      <trkpt lat="46.19105" lon="-0.96912">
        <ele>34</ele>
        <time>2020-05-31T16:37:16Z</time>
      </trkpt>
      <trkpt lat="46.19099" lon="-0.96917">
        <ele>33.9</ele>
        <time>2020-05-31T16:37:17Z</time>
      </trkpt>
      <trkpt lat="46.19093" lon="-0.96921">
        <ele>33.8</ele>
        <time>2020-05-31T16:37:18Z</time>
      </trkpt>
      <trkpt lat="46.19088" lon="-0.96925">
        <ele>33.7</ele>
        <time>2020-05-31T16:37:19Z</time>
      </trkpt>
      <trkpt lat="46.19082" lon="-0.96928">
        <ele>33.6</ele>
        <time>2020-05-31T16:37:20Z</time>
      </trkpt>
      <trkpt lat="46.19076" lon="-0.96931">
        <ele>33.5</ele>
        <time>2020-05-31T16:37:21Z</time>
      </trkpt>
      <trkpt lat="46.19069" lon="-0.96935">
        <ele>33.4</ele>
        <time>2020-05-31T16:37:22Z</time>
      </trkpt>
      <trkpt lat="46.19064" lon="-0.96939">
        <ele>33.2</ele>
        <time>2020-05-31T16:37:23Z</time>
      </trkpt>
      <trkpt lat="46.19058" lon="-0.96942">
        <ele>33.1</ele>
        <time>2020-05-31T16:37:24Z</time>
      </trkpt>
      <trkpt lat="46.19052" lon="-0.96946">
        <ele>33</ele>
        <time>2020-05-31T16:37:25Z</time>
      </trkpt>
      <trkpt lat="46.19046" lon="-0.96951">
        <ele>32.9</ele>
        <time>2020-05-31T16:37:26Z</time>
      </trkpt>
      <trkpt lat="46.19042" lon="-0.96954">
        <ele>32.8</ele>
        <time>2020-05-31T16:37:27Z</time>
      </trkpt>
      <trkpt lat="46.19036" lon="-0.96958">
        <ele>32.7</ele>
        <time>2020-05-31T16:37:28Z</time>
      </trkpt>
      <trkpt lat="46.19031" lon="-0.96961">
        <ele>32.6</ele>
        <time>2020-05-31T16:37:29Z</time>
      </trkpt>
      <trkpt lat="46.19026" lon="-0.96965">
        <ele>32.5</ele>
        <time>2020-05-31T16:37:30Z</time>
      </trkpt>
      <trkpt lat="46.19021" lon="-0.96969">
        <ele>32.3</ele>
        <time>2020-05-31T16:37:31Z</time>
      </trkpt>
      <trkpt lat="46.19014" lon="-0.96973">
        <ele>32.2</ele>
        <time>2020-05-31T16:37:32Z</time>
      </trkpt>
      <trkpt lat="46.19009" lon="-0.96977">
        <ele>32</ele>
        <time>2020-05-31T16:37:33Z</time>
      </trkpt>
      <trkpt lat="46.19003" lon="-0.96981">
        <ele>31.8</ele>
        <time>2020-05-31T16:37:34Z</time>
      </trkpt>
      <trkpt lat="46.18997" lon="-0.96986">
        <ele>31.7</ele>
        <time>2020-05-31T16:37:35Z</time>
      </trkpt>
      <trkpt lat="46.18992" lon="-0.9699">
        <ele>31.6</ele>
        <time>2020-05-31T16:37:36Z</time>
      </trkpt>
      <trkpt lat="46.18986" lon="-0.96993">
        <ele>31.4</ele>
        <time>2020-05-31T16:37:37Z</time>
      </trkpt>
      <trkpt lat="46.18981" lon="-0.96997">
        <ele>31.2</ele>
        <time>2020-05-31T16:37:38Z</time>
      </trkpt>
      <trkpt lat="46.18975" lon="-0.97001">
        <ele>31</ele>
        <time>2020-05-31T16:37:39Z</time>
      </trkpt>
      <trkpt lat="46.18969" lon="-0.97005">
        <ele>30.8</ele>
        <time>2020-05-31T16:37:40Z</time>
      </trkpt>
      <trkpt lat="46.18963" lon="-0.9701">
        <ele>30.6</ele>
        <time>2020-05-31T16:37:41Z</time>
      </trkpt>
      <trkpt lat="46.18957" lon="-0.97016">
        <ele>30.4</ele>
        <time>2020-05-31T16:37:42Z</time>
      </trkpt>
      <trkpt lat="46.18953" lon="-0.97024">
        <ele>30.4</ele>
        <time>2020-05-31T16:37:43Z</time>
      </trkpt>
      <trkpt lat="46.1895" lon="-0.97033">
        <ele>30.4</ele>
        <time>2020-05-31T16:37:44Z</time>
      </trkpt>
      <trkpt lat="46.18947" lon="-0.97043">
        <ele>30.3</ele>
        <time>2020-05-31T16:37:45Z</time>
      </trkpt>
      <trkpt lat="46.18945" lon="-0.97053">
        <ele>30.1</ele>
        <time>2020-05-31T16:37:46Z</time>
      </trkpt>
      <trkpt lat="46.18942" lon="-0.97062">
        <ele>30</ele>
        <time>2020-05-31T16:37:47Z</time>
      </trkpt>
      <trkpt lat="46.18939" lon="-0.97073">
        <ele>29.9</ele>
        <time>2020-05-31T16:37:48Z</time>
      </trkpt>
      <trkpt lat="46.18935" lon="-0.97083">
        <ele>29.8</ele>
        <time>2020-05-31T16:37:49Z</time>
      </trkpt>
      <trkpt lat="46.18932" lon="-0.97093">
        <ele>29.7</ele>
        <time>2020-05-31T16:37:50Z</time>
      </trkpt>
      <trkpt lat="46.1893" lon="-0.97103">
        <ele>29.6</ele>
        <time>2020-05-31T16:37:51Z</time>
      </trkpt>
      <trkpt lat="46.18927" lon="-0.97113">
        <ele>29.4</ele>
        <time>2020-05-31T16:37:52Z</time>
      </trkpt>
      <trkpt lat="46.18924" lon="-0.97123">
        <ele>29.1</ele>
        <time>2020-05-31T16:37:53Z</time>
      </trkpt>
      <trkpt lat="46.18922" lon="-0.97133">
        <ele>28.8</ele>
        <time>2020-05-31T16:37:54Z</time>
      </trkpt>
      <trkpt lat="46.18919" lon="-0.97143">
        <ele>28.5</ele>
        <time>2020-05-31T16:37:55Z</time>
      </trkpt>
      <trkpt lat="46.18916" lon="-0.97153">
        <ele>28.2</ele>
        <time>2020-05-31T16:37:56Z</time>
      </trkpt>
      <trkpt lat="46.18914" lon="-0.97163">
        <ele>27.9</ele>
        <time>2020-05-31T16:37:57Z</time>
      </trkpt>
      <trkpt lat="46.18912" lon="-0.97174">
        <ele>27.6</ele>
        <time>2020-05-31T16:37:58Z</time>
      </trkpt>
      <trkpt lat="46.18909" lon="-0.97184">
        <ele>27.2</ele>
        <time>2020-05-31T16:37:59Z</time>
      </trkpt>
      <trkpt lat="46.18906" lon="-0.97195">
        <ele>26.7</ele>
        <time>2020-05-31T16:38:00Z</time>
      </trkpt>
      <trkpt lat="46.18904" lon="-0.97207">
        <ele>26.2</ele>
        <time>2020-05-31T16:38:01Z</time>
      </trkpt>
      <trkpt lat="46.18901" lon="-0.97219">
        <ele>25.7</ele>
        <time>2020-05-31T16:38:02Z</time>
      </trkpt>
      <trkpt lat="46.189" lon="-0.97231">
        <ele>25.3</ele>
        <time>2020-05-31T16:38:03Z</time>
      </trkpt>
      <trkpt lat="46.18899" lon="-0.97243">
        <ele>24.9</ele>
        <time>2020-05-31T16:38:04Z</time>
      </trkpt>
      <trkpt lat="46.18899" lon="-0.97256">
        <ele>24.6</ele>
        <time>2020-05-31T16:38:05Z</time>
      </trkpt>
      <trkpt lat="46.189" lon="-0.97269">
        <ele>24.3</ele>
        <time>2020-05-31T16:38:06Z</time>
      </trkpt>
      <trkpt lat="46.189" lon="-0.97281">
        <ele>24.1</ele>
        <time>2020-05-31T16:38:07Z</time>
      </trkpt>
      <trkpt lat="46.18901" lon="-0.97293">
        <ele>23.9</ele>
        <time>2020-05-31T16:38:08Z</time>
      </trkpt>
      <trkpt lat="46.18901" lon="-0.97305">
        <ele>23.8</ele>
        <time>2020-05-31T16:38:09Z</time>
      </trkpt>
      <trkpt lat="46.18902" lon="-0.97316">
        <ele>23.8</ele>
        <time>2020-05-31T16:38:10Z</time>
      </trkpt>
      <trkpt lat="46.18902" lon="-0.97328">
        <ele>23.8</ele>
        <time>2020-05-31T16:38:11Z</time>
      </trkpt>
      <trkpt lat="46.18902" lon="-0.97339">
        <ele>23.7</ele>
        <time>2020-05-31T16:38:12Z</time>
      </trkpt>
      <trkpt lat="46.18901" lon="-0.9735">
        <ele>23.6</ele>
        <time>2020-05-31T16:38:13Z</time>
      </trkpt>
      <trkpt lat="46.18901" lon="-0.97361">
        <ele>23.5</ele>
        <time>2020-05-31T16:38:14Z</time>
      </trkpt>
      <trkpt lat="46.18901" lon="-0.97372">
        <ele>23.5</ele>
        <time>2020-05-31T16:38:15Z</time>
      </trkpt>
      <trkpt lat="46.18901" lon="-0.97382">
        <ele>23.5</ele>
        <time>2020-05-31T16:38:16Z</time>
      </trkpt>
      <trkpt lat="46.189" lon="-0.97393">
        <ele>23.5</ele>
        <time>2020-05-31T16:38:17Z</time>
      </trkpt>
      <trkpt lat="46.18899" lon="-0.97403">
        <ele>23.6</ele>
        <time>2020-05-31T16:38:18Z</time>
      </trkpt>
      <trkpt lat="46.18898" lon="-0.97412">
        <ele>23.6</ele>
        <time>2020-05-31T16:38:19Z</time>
      </trkpt>
      <trkpt lat="46.18898" lon="-0.97421">
        <ele>23.7</ele>
        <time>2020-05-31T16:38:20Z</time>
      </trkpt>
      <trkpt lat="46.18897" lon="-0.97429">
        <ele>23.8</ele>
        <time>2020-05-31T16:38:21Z</time>
      </trkpt>
      <trkpt lat="46.18896" lon="-0.97436">
        <ele>23.9</ele>
        <time>2020-05-31T16:38:22Z</time>
      </trkpt>
      <trkpt lat="46.18895" lon="-0.97441">
        <ele>23.9</ele>
        <time>2020-05-31T16:38:23Z</time>
      </trkpt>
      <trkpt lat="46.18896" lon="-0.97447">
        <ele>24</ele>
        <time>2020-05-31T16:38:24Z</time>
      </trkpt>
      <trkpt lat="46.18896" lon="-0.97449">
        <ele>24</ele>
        <time>2020-05-31T16:38:25Z</time>
      </trkpt>
      <trkpt lat="46.18896" lon="-0.97453">
        <ele>24.1</ele>
        <time>2020-05-31T16:38:26Z</time>
      </trkpt>
      <trkpt lat="46.18896" lon="-0.97458">
        <ele>24.1</ele>
        <time>2020-05-31T16:38:27Z</time>
      </trkpt>
      <trkpt lat="46.18896" lon="-0.97463">
        <ele>24.2</ele>
        <time>2020-05-31T16:38:28Z</time>
      </trkpt>
      <trkpt lat="46.18895" lon="-0.97469">
        <ele>24.3</ele>
        <time>2020-05-31T16:38:29Z</time>
      </trkpt>
      <trkpt lat="46.18894" lon="-0.97476">
        <ele>24.3</ele>
        <time>2020-05-31T16:38:30Z</time>
      </trkpt>
      <trkpt lat="46.18893" lon="-0.97484">
        <ele>24.4</ele>
        <time>2020-05-31T16:38:31Z</time>
      </trkpt>
      <trkpt lat="46.18892" lon="-0.97491">
        <ele>24.4</ele>
        <time>2020-05-31T16:38:32Z</time>
      </trkpt>
      <trkpt lat="46.18891" lon="-0.975">
        <ele>24.4</ele>
        <time>2020-05-31T16:38:33Z</time>
      </trkpt>
      <trkpt lat="46.1889" lon="-0.97508">
        <ele>24.4</ele>
        <time>2020-05-31T16:38:34Z</time>
      </trkpt>
      <trkpt lat="46.18889" lon="-0.97516">
        <ele>24.4</ele>
        <time>2020-05-31T16:38:35Z</time>
      </trkpt>
      <trkpt lat="46.18888" lon="-0.97524">
        <ele>24.4</ele>
        <time>2020-05-31T16:38:36Z</time>
      </trkpt>
      <trkpt lat="46.18887" lon="-0.97532">
        <ele>24.4</ele>
        <time>2020-05-31T16:38:37Z</time>
      </trkpt>
      <trkpt lat="46.18886" lon="-0.9754">
        <ele>24.5</ele>
        <time>2020-05-31T16:38:38Z</time>
      </trkpt>
      <trkpt lat="46.18885" lon="-0.97548">
        <ele>24.6</ele>
        <time>2020-05-31T16:38:39Z</time>
      </trkpt>
      <trkpt lat="46.18885" lon="-0.97556">
        <ele>24.7</ele>
        <time>2020-05-31T16:38:40Z</time>
      </trkpt>
      <trkpt lat="46.18884" lon="-0.97564">
        <ele>24.8</ele>
        <time>2020-05-31T16:38:41Z</time>
      </trkpt>
      <trkpt lat="46.18883" lon="-0.97572">
        <ele>24.8</ele>
        <time>2020-05-31T16:38:42Z</time>
      </trkpt>
      <trkpt lat="46.18882" lon="-0.97581">
        <ele>24.9</ele>
        <time>2020-05-31T16:38:43Z</time>
      </trkpt>
      <trkpt lat="46.18881" lon="-0.97589">
        <ele>24.9</ele>
        <time>2020-05-31T16:38:44Z</time>
      </trkpt>
      <trkpt lat="46.18881" lon="-0.97597">
        <ele>24.9</ele>
        <time>2020-05-31T16:38:45Z</time>
      </trkpt>
      <trkpt lat="46.18881" lon="-0.97605">
        <ele>24.9</ele>
        <time>2020-05-31T16:38:46Z</time>
      </trkpt>
      <trkpt lat="46.18881" lon="-0.97614">
        <ele>24.9</ele>
        <time>2020-05-31T16:38:47Z</time>
      </trkpt>
      <trkpt lat="46.1888" lon="-0.97622">
        <ele>24.8</ele>
        <time>2020-05-31T16:38:48Z</time>
      </trkpt>
      <trkpt lat="46.18879" lon="-0.97631">
        <ele>24.8</ele>
        <time>2020-05-31T16:38:49Z</time>
      </trkpt>
      <trkpt lat="46.18879" lon="-0.9764">
        <ele>24.7</ele>
        <time>2020-05-31T16:38:50Z</time>
      </trkpt>
      <trkpt lat="46.18879" lon="-0.97648">
        <ele>24.7</ele>
        <time>2020-05-31T16:38:51Z</time>
      </trkpt>
      <trkpt lat="46.18879" lon="-0.97657">
        <ele>24.7</ele>
        <time>2020-05-31T16:38:52Z</time>
      </trkpt>
      <trkpt lat="46.18879" lon="-0.97666">
        <ele>24.6</ele>
        <time>2020-05-31T16:38:53Z</time>
      </trkpt>
      <trkpt lat="46.18879" lon="-0.97675">
        <ele>24.5</ele>
        <time>2020-05-31T16:38:54Z</time>
      </trkpt>
      <trkpt lat="46.18879" lon="-0.97684">
        <ele>24.5</ele>
        <time>2020-05-31T16:38:55Z</time>
      </trkpt>
      <trkpt lat="46.1888" lon="-0.97693">
        <ele>24.4</ele>
        <time>2020-05-31T16:38:56Z</time>
      </trkpt>
      <trkpt lat="46.18879" lon="-0.97701">
        <ele>24.4</ele>
        <time>2020-05-31T16:38:57Z</time>
      </trkpt>
      <trkpt lat="46.1888" lon="-0.9771">
        <ele>24.4</ele>
        <time>2020-05-31T16:38:58Z</time>
      </trkpt>
      <trkpt lat="46.1888" lon="-0.97718">
        <ele>24.4</ele>
        <time>2020-05-31T16:38:59Z</time>
      </trkpt>
      <trkpt lat="46.18881" lon="-0.97727">
        <ele>24.5</ele>
        <time>2020-05-31T16:39:00Z</time>
      </trkpt>
      <trkpt lat="46.18881" lon="-0.97735">
        <ele>24.5</ele>
        <time>2020-05-31T16:39:01Z</time>
      </trkpt>
      <trkpt lat="46.18881" lon="-0.97744">
        <ele>24.6</ele>
        <time>2020-05-31T16:39:02Z</time>
      </trkpt>
      <trkpt lat="46.18881" lon="-0.97753">
        <ele>24.6</ele>
        <time>2020-05-31T16:39:03Z</time>
      </trkpt>
      <trkpt lat="46.18882" lon="-0.97762">
        <ele>24.6</ele>
        <time>2020-05-31T16:39:04Z</time>
      </trkpt>
      <trkpt lat="46.18881" lon="-0.97771">
        <ele>24.6</ele>
        <time>2020-05-31T16:39:05Z</time>
      </trkpt>
      <trkpt lat="46.1888" lon="-0.97779">
        <ele>24.6</ele>
        <time>2020-05-31T16:39:06Z</time>
      </trkpt>
      <trkpt lat="46.18879" lon="-0.97788">
        <ele>24.6</ele>
        <time>2020-05-31T16:39:07Z</time>
      </trkpt>
      <trkpt lat="46.18878" lon="-0.97797">
        <ele>24.6</ele>
        <time>2020-05-31T16:39:08Z</time>
      </trkpt>
      <trkpt lat="46.18875" lon="-0.97806">
        <ele>24.7</ele>
        <time>2020-05-31T16:39:09Z</time>
      </trkpt>
      <trkpt lat="46.18875" lon="-0.97815">
        <ele>24.7</ele>
        <time>2020-05-31T16:39:10Z</time>
      </trkpt>
      <trkpt lat="46.18873" lon="-0.97824">
        <ele>24.7</ele>
        <time>2020-05-31T16:39:11Z</time>
      </trkpt>
      <trkpt lat="46.18872" lon="-0.97832">
        <ele>24.8</ele>
        <time>2020-05-31T16:39:12Z</time>
      </trkpt>
      <trkpt lat="46.18871" lon="-0.97841">
        <ele>24.9</ele>
        <time>2020-05-31T16:39:13Z</time>
      </trkpt>
      <trkpt lat="46.1887" lon="-0.97849">
        <ele>25</ele>
        <time>2020-05-31T16:39:14Z</time>
      </trkpt>
      <trkpt lat="46.18869" lon="-0.97858">
        <ele>25</ele>
        <time>2020-05-31T16:39:15Z</time>
      </trkpt>
      <trkpt lat="46.18867" lon="-0.97867">
        <ele>25.1</ele>
        <time>2020-05-31T16:39:16Z</time>
      </trkpt>
      <trkpt lat="46.18866" lon="-0.97875">
        <ele>25.2</ele>
        <time>2020-05-31T16:39:17Z</time>
      </trkpt>
      <trkpt lat="46.18866" lon="-0.97884">
        <ele>25.3</ele>
        <time>2020-05-31T16:39:18Z</time>
      </trkpt>
      <trkpt lat="46.18865" lon="-0.97893">
        <ele>25.3</ele>
        <time>2020-05-31T16:39:19Z</time>
      </trkpt>
      <trkpt lat="46.18864" lon="-0.97901">
        <ele>25.4</ele>
        <time>2020-05-31T16:39:20Z</time>
      </trkpt>
      <trkpt lat="46.18863" lon="-0.9791">
        <ele>25.5</ele>
        <time>2020-05-31T16:39:21Z</time>
      </trkpt>
      <trkpt lat="46.18862" lon="-0.97919">
        <ele>25.5</ele>
        <time>2020-05-31T16:39:22Z</time>
      </trkpt>
      <trkpt lat="46.18862" lon="-0.97928">
        <ele>25.6</ele>
        <time>2020-05-31T16:39:23Z</time>
      </trkpt>
      <trkpt lat="46.18862" lon="-0.97937">
        <ele>25.7</ele>
        <time>2020-05-31T16:39:24Z</time>
      </trkpt>
      <trkpt lat="46.18861" lon="-0.97945">
        <ele>25.8</ele>
        <time>2020-05-31T16:39:25Z</time>
      </trkpt>
      <trkpt lat="46.18861" lon="-0.97954">
        <ele>25.8</ele>
        <time>2020-05-31T16:39:26Z</time>
      </trkpt>
      <trkpt lat="46.18862" lon="-0.97962">
        <ele>25.8</ele>
        <time>2020-05-31T16:39:27Z</time>
      </trkpt>
      <trkpt lat="46.18862" lon="-0.9797">
        <ele>25.8</ele>
        <time>2020-05-31T16:39:28Z</time>
      </trkpt>
      <trkpt lat="46.18861" lon="-0.97978">
        <ele>25.8</ele>
        <time>2020-05-31T16:39:29Z</time>
      </trkpt>
      <trkpt lat="46.1886" lon="-0.97986">
        <ele>25.8</ele>
        <time>2020-05-31T16:39:30Z</time>
      </trkpt>
      <trkpt lat="46.18859" lon="-0.97994">
        <ele>25.8</ele>
        <time>2020-05-31T16:39:31Z</time>
      </trkpt>
      <trkpt lat="46.18859" lon="-0.98002">
        <ele>25.8</ele>
        <time>2020-05-31T16:39:32Z</time>
      </trkpt>
      <trkpt lat="46.18858" lon="-0.9801">
        <ele>25.9</ele>
        <time>2020-05-31T16:39:33Z</time>
      </trkpt>
      <trkpt lat="46.18857" lon="-0.98018">
        <ele>26</ele>
        <time>2020-05-31T16:39:34Z</time>
      </trkpt>
      <trkpt lat="46.18855" lon="-0.98025">
        <ele>26.1</ele>
        <time>2020-05-31T16:39:35Z</time>
      </trkpt>
      <trkpt lat="46.18853" lon="-0.98032">
        <ele>26.1</ele>
        <time>2020-05-31T16:39:36Z</time>
      </trkpt>
      <trkpt lat="46.18852" lon="-0.98039">
        <ele>26.2</ele>
        <time>2020-05-31T16:39:37Z</time>
      </trkpt>
      <trkpt lat="46.18852" lon="-0.98046">
        <ele>26.2</ele>
        <time>2020-05-31T16:39:38Z</time>
      </trkpt>
      <trkpt lat="46.1885" lon="-0.98052">
        <ele>26.3</ele>
        <time>2020-05-31T16:39:39Z</time>
      </trkpt>
      <trkpt lat="46.18849" lon="-0.98058">
        <ele>26.1</ele>
        <time>2020-05-31T16:39:40Z</time>
      </trkpt>
      <trkpt lat="46.18846" lon="-0.98062">
        <ele>26</ele>
        <time>2020-05-31T16:39:41Z</time>
      </trkpt>
      <trkpt lat="46.18841" lon="-0.98063">
        <ele>25.8</ele>
        <time>2020-05-31T16:39:42Z</time>
      </trkpt>
      <trkpt lat="46.18836" lon="-0.98064">
        <ele>25.7</ele>
        <time>2020-05-31T16:39:43Z</time>
      </trkpt>
      <trkpt lat="46.1883" lon="-0.98065">
        <ele>25.6</ele>
        <time>2020-05-31T16:39:44Z</time>
      </trkpt>
      <trkpt lat="46.18825" lon="-0.98066">
        <ele>25.5</ele>
        <time>2020-05-31T16:39:45Z</time>
      </trkpt>
      <trkpt lat="46.18821" lon="-0.98068">
        <ele>25.5</ele>
        <time>2020-05-31T16:39:46Z</time>
      </trkpt>
      <trkpt lat="46.18816" lon="-0.98071">
        <ele>25.5</ele>
        <time>2020-05-31T16:39:47Z</time>
      </trkpt>
      <trkpt lat="46.18812" lon="-0.98074">
        <ele>25.5</ele>
        <time>2020-05-31T16:39:48Z</time>
      </trkpt>
      <trkpt lat="46.18807" lon="-0.98076">
        <ele>25.5</ele>
        <time>2020-05-31T16:39:49Z</time>
      </trkpt>
      <trkpt lat="46.18802" lon="-0.98077">
        <ele>25.5</ele>
        <time>2020-05-31T16:39:50Z</time>
      </trkpt>
      <trkpt lat="46.18797" lon="-0.98078">
        <ele>25.5</ele>
        <time>2020-05-31T16:39:51Z</time>
      </trkpt>
      <trkpt lat="46.18792" lon="-0.98079">
        <ele>25.5</ele>
        <time>2020-05-31T16:39:52Z</time>
      </trkpt>
      <trkpt lat="46.18787" lon="-0.9808">
        <ele>25.5</ele>
        <time>2020-05-31T16:39:53Z</time>
      </trkpt>
      <trkpt lat="46.18782" lon="-0.98081">
        <ele>25.5</ele>
        <time>2020-05-31T16:39:54Z</time>
      </trkpt>
      <trkpt lat="46.18778" lon="-0.98082">
        <ele>25.4</ele>
        <time>2020-05-31T16:39:55Z</time>
      </trkpt>
      <trkpt lat="46.18773" lon="-0.98085">
        <ele>25.4</ele>
        <time>2020-05-31T16:39:56Z</time>
      </trkpt>
      <trkpt lat="46.18768" lon="-0.98087">
        <ele>25.3</ele>
        <time>2020-05-31T16:39:57Z</time>
      </trkpt>
      <trkpt lat="46.18762" lon="-0.98088">
        <ele>25.2</ele>
        <time>2020-05-31T16:39:58Z</time>
      </trkpt>
      <trkpt lat="46.18757" lon="-0.9809">
        <ele>25.1</ele>
        <time>2020-05-31T16:39:59Z</time>
      </trkpt>
      <trkpt lat="46.18752" lon="-0.98091">
        <ele>25</ele>
        <time>2020-05-31T16:40:00Z</time>
      </trkpt>
      <trkpt lat="46.18747" lon="-0.98092">
        <ele>24.9</ele>
        <time>2020-05-31T16:40:01Z</time>
      </trkpt>
      <trkpt lat="46.18741" lon="-0.98094">
        <ele>24.8</ele>
        <time>2020-05-31T16:40:02Z</time>
      </trkpt>
      <trkpt lat="46.18736" lon="-0.98096">
        <ele>24.7</ele>
        <time>2020-05-31T16:40:03Z</time>
      </trkpt>
      <trkpt lat="46.18732" lon="-0.98098">
        <ele>24.7</ele>
        <time>2020-05-31T16:40:04Z</time>
      </trkpt>
      <trkpt lat="46.18727" lon="-0.981">
        <ele>24.6</ele>
        <time>2020-05-31T16:40:05Z</time>
      </trkpt>
      <trkpt lat="46.18722" lon="-0.98102">
        <ele>24.5</ele>
        <time>2020-05-31T16:40:06Z</time>
      </trkpt>
      <trkpt lat="46.18717" lon="-0.98105">
        <ele>24.5</ele>
        <time>2020-05-31T16:40:07Z</time>
      </trkpt>
      <trkpt lat="46.18712" lon="-0.98106">
        <ele>24.4</ele>
        <time>2020-05-31T16:40:08Z</time>
      </trkpt>
      <trkpt lat="46.18708" lon="-0.98107">
        <ele>24.4</ele>
        <time>2020-05-31T16:40:09Z</time>
      </trkpt>
      <trkpt lat="46.18703" lon="-0.98109">
        <ele>24.3</ele>
        <time>2020-05-31T16:40:10Z</time>
      </trkpt>
      <trkpt lat="46.18698" lon="-0.98111">
        <ele>24.3</ele>
        <time>2020-05-31T16:40:11Z</time>
      </trkpt>
      <trkpt lat="46.18693" lon="-0.98113">
        <ele>24.3</ele>
        <time>2020-05-31T16:40:12Z</time>
      </trkpt>
      <trkpt lat="46.18687" lon="-0.98116">
        <ele>24.2</ele>
        <time>2020-05-31T16:40:13Z</time>
      </trkpt>
      <trkpt lat="46.18682" lon="-0.98117">
        <ele>24.1</ele>
        <time>2020-05-31T16:40:14Z</time>
      </trkpt>
      <trkpt lat="46.18677" lon="-0.9812">
        <ele>24</ele>
        <time>2020-05-31T16:40:15Z</time>
      </trkpt>
      <trkpt lat="46.18672" lon="-0.98123">
        <ele>23.8</ele>
        <time>2020-05-31T16:40:16Z</time>
      </trkpt>
      <trkpt lat="46.18666" lon="-0.98124">
        <ele>23.6</ele>
        <time>2020-05-31T16:40:17Z</time>
      </trkpt>
      <trkpt lat="46.1866" lon="-0.98126">
        <ele>23.4</ele>
        <time>2020-05-31T16:40:18Z</time>
      </trkpt>
      <trkpt lat="46.18655" lon="-0.98128">
        <ele>23.2</ele>
        <time>2020-05-31T16:40:19Z</time>
      </trkpt>
      <trkpt lat="46.18649" lon="-0.98131">
        <ele>23.1</ele>
        <time>2020-05-31T16:40:20Z</time>
      </trkpt>
      <trkpt lat="46.18643" lon="-0.98134">
        <ele>23</ele>
        <time>2020-05-31T16:40:21Z</time>
      </trkpt>
      <trkpt lat="46.18638" lon="-0.98138">
        <ele>22.9</ele>
        <time>2020-05-31T16:40:22Z</time>
      </trkpt>
      <trkpt lat="46.18632" lon="-0.98142">
        <ele>22.8</ele>
        <time>2020-05-31T16:40:23Z</time>
      </trkpt>
      <trkpt lat="46.18627" lon="-0.98145">
        <ele>22.7</ele>
        <time>2020-05-31T16:40:24Z</time>
      </trkpt>
      <trkpt lat="46.18621" lon="-0.98147">
        <ele>22.5</ele>
        <time>2020-05-31T16:40:25Z</time>
      </trkpt>
      <trkpt lat="46.18616" lon="-0.98148">
        <ele>22.3</ele>
        <time>2020-05-31T16:40:26Z</time>
      </trkpt>
      <trkpt lat="46.1861" lon="-0.98152">
        <ele>22.2</ele>
        <time>2020-05-31T16:40:27Z</time>
      </trkpt>
      <trkpt lat="46.18605" lon="-0.98155">
        <ele>22</ele>
        <time>2020-05-31T16:40:28Z</time>
      </trkpt>
      <trkpt lat="46.186" lon="-0.98159">
        <ele>21.9</ele>
        <time>2020-05-31T16:40:29Z</time>
      </trkpt>
      <trkpt lat="46.18595" lon="-0.98161">
        <ele>21.8</ele>
        <time>2020-05-31T16:40:30Z</time>
      </trkpt>
      <trkpt lat="46.18589" lon="-0.98163">
        <ele>21.7</ele>
        <time>2020-05-31T16:40:31Z</time>
      </trkpt>
      <trkpt lat="46.18584" lon="-0.98167">
        <ele>21.6</ele>
        <time>2020-05-31T16:40:32Z</time>
      </trkpt>
      <trkpt lat="46.18579" lon="-0.98169">
        <ele>21.6</ele>
        <time>2020-05-31T16:40:33Z</time>
      </trkpt>
      <trkpt lat="46.18574" lon="-0.98171">
        <ele>21.7</ele>
        <time>2020-05-31T16:40:34Z</time>
      </trkpt>
      <trkpt lat="46.18569" lon="-0.98174">
        <ele>21.8</ele>
        <time>2020-05-31T16:40:35Z</time>
      </trkpt>
      <trkpt lat="46.18564" lon="-0.98177">
        <ele>21.9</ele>
        <time>2020-05-31T16:40:36Z</time>
      </trkpt>
      <trkpt lat="46.1856" lon="-0.98179">
        <ele>22.1</ele>
        <time>2020-05-31T16:40:37Z</time>
      </trkpt>
      <trkpt lat="46.18556" lon="-0.9818">
        <ele>22.2</ele>
        <time>2020-05-31T16:40:38Z</time>
      </trkpt>
      <trkpt lat="46.18553" lon="-0.9818">
        <ele>22.5</ele>
        <time>2020-05-31T16:40:39Z</time>
      </trkpt>
      <trkpt lat="46.18551" lon="-0.98184">
        <ele>22.5</ele>
        <time>2020-05-31T16:40:40Z</time>
      </trkpt>
      <trkpt lat="46.18552" lon="-0.98186">
        <ele>22.5</ele>
        <time>2020-05-31T16:40:41Z</time>
      </trkpt>
      <trkpt lat="46.18553" lon="-0.98191">
        <ele>22.5</ele>
        <time>2020-05-31T16:40:42Z</time>
      </trkpt>
      <trkpt lat="46.18553" lon="-0.98193">
        <ele>22.5</ele>
        <time>2020-05-31T16:40:43Z</time>
      </trkpt>
      <trkpt lat="46.18554" lon="-0.98196">
        <ele>22.5</ele>
        <time>2020-05-31T16:40:44Z</time>
      </trkpt>
      <trkpt lat="46.18555" lon="-0.98197">
        <ele>22.5</ele>
        <time>2020-05-31T16:40:45Z</time>
      </trkpt>
      <trkpt lat="46.18555" lon="-0.98198">
        <ele>22.5</ele>
        <time>2020-05-31T16:40:46Z</time>
      </trkpt>
      <trkpt lat="46.18556" lon="-0.98199">
        <ele>22.5</ele>
        <time>2020-05-31T16:40:47Z</time>
      </trkpt>
      <trkpt lat="46.18557" lon="-0.98199">
        <ele>22.5</ele>
        <time>2020-05-31T16:40:48Z</time>
      </trkpt>
      <trkpt lat="46.18558" lon="-0.982">
        <ele>22.5</ele>
        <time>2020-05-31T16:40:49Z</time>
      </trkpt>
      <trkpt lat="46.18559" lon="-0.982">
        <ele>22.5</ele>
        <time>2020-05-31T16:40:50Z</time>
      </trkpt>
      <trkpt lat="46.18559" lon="-0.98201">
        <ele>22.5</ele>
        <time>2020-05-31T16:40:51Z</time>
      </trkpt>
      <trkpt lat="46.18558" lon="-0.982">
        <ele>22.5</ele>
        <time>2020-05-31T16:40:52Z</time>
      </trkpt>
      <trkpt lat="46.18558" lon="-0.982">
        <ele>22.6</ele>
        <time>2020-05-31T16:40:53Z</time>
      </trkpt>
      <trkpt lat="46.18558" lon="-0.98201">
        <ele>22.6</ele>
        <time>2020-05-31T16:40:54Z</time>
      </trkpt>
      <trkpt lat="46.18559" lon="-0.98202">
        <ele>22.6</ele>
        <time>2020-05-31T16:40:55Z</time>
      </trkpt>
      <trkpt lat="46.18558" lon="-0.98202">
        <ele>22.6</ele>
        <time>2020-05-31T16:40:56Z</time>
      </trkpt>
      <trkpt lat="46.18558" lon="-0.98202">
        <ele>22.6</ele>
        <time>2020-05-31T16:40:57Z</time>
      </trkpt>
      <trkpt lat="46.18558" lon="-0.98203">
        <ele>22.6</ele>
        <time>2020-05-31T16:40:58Z</time>
      </trkpt>
      <trkpt lat="46.18558" lon="-0.98203">
        <ele>22.6</ele>
        <time>2020-05-31T16:40:59Z</time>
      </trkpt>
      <trkpt lat="46.18557" lon="-0.98202">
        <ele>22.6</ele>
        <time>2020-05-31T16:41:00Z</time>
      </trkpt>
      <trkpt lat="46.18558" lon="-0.98203">
        <ele>22.6</ele>
        <time>2020-05-31T16:41:01Z</time>
      </trkpt>
      <trkpt lat="46.18558" lon="-0.98203">
        <ele>22.6</ele>
        <time>2020-05-31T16:41:02Z</time>
      </trkpt>
      <trkpt lat="46.18558" lon="-0.98203">
        <ele>22.6</ele>
        <time>2020-05-31T16:41:03Z</time>
      </trkpt>
      <trkpt lat="46.18557" lon="-0.98201">
        <ele>22.6</ele>
        <time>2020-05-31T16:41:04Z</time>
      </trkpt>
      <trkpt lat="46.18557" lon="-0.98201">
        <ele>22.6</ele>
        <time>2020-05-31T16:41:05Z</time>
      </trkpt>
      <trkpt lat="46.18557" lon="-0.98201">
        <ele>22.6</ele>
        <time>2020-05-31T16:41:06Z</time>
      </trkpt>
      <trkpt lat="46.18557" lon="-0.98201">
        <ele>22.6</ele>
        <time>2020-05-31T16:41:07Z</time>
      </trkpt>
      <trkpt lat="46.18556" lon="-0.98202">
        <ele>22.6</ele>
        <time>2020-05-31T16:41:08Z</time>
      </trkpt>
      <trkpt lat="46.18556" lon="-0.98203">
        <ele>22.6</ele>
        <time>2020-05-31T16:41:09Z</time>
      </trkpt>
      <trkpt lat="46.18556" lon="-0.98202">
        <ele>22.6</ele>
        <time>2020-05-31T16:41:10Z</time>
      </trkpt>
      <trkpt lat="46.18556" lon="-0.98202">
        <ele>22.6</ele>
        <time>2020-05-31T16:41:11Z</time>
      </trkpt>
      <trkpt lat="46.18556" lon="-0.98202">
        <ele>22.6</ele>
        <time>2020-05-31T16:41:12Z</time>
      </trkpt>
      <trkpt lat="46.18556" lon="-0.98202">
        <ele>22.6</ele>
        <time>2020-05-31T16:41:13Z</time>
      </trkpt>
      <trkpt lat="46.18556" lon="-0.98202">
        <ele>22.6</ele>
        <time>2020-05-31T16:41:14Z</time>
      </trkpt>
      <trkpt lat="46.18556" lon="-0.98201">
        <ele>22.6</ele>
        <time>2020-05-31T16:41:15Z</time>
      </trkpt>
      <trkpt lat="46.18555" lon="-0.98201">
        <ele>22.6</ele>
        <time>2020-05-31T16:41:16Z</time>
      </trkpt>
      <trkpt lat="46.18555" lon="-0.98201">
        <ele>22.6</ele>
        <time>2020-05-31T16:41:17Z</time>
      </trkpt>
      <trkpt lat="46.18555" lon="-0.98201">
        <ele>22.6</ele>
        <time>2020-05-31T16:41:18Z</time>
      </trkpt>
      <trkpt lat="46.18555" lon="-0.98201">
        <ele>22.6</ele>
        <time>2020-05-31T16:41:19Z</time>
      </trkpt>
      <trkpt lat="46.18555" lon="-0.98202">
        <ele>22.6</ele>
        <time>2020-05-31T16:41:20Z</time>
      </trkpt>
      <trkpt lat="46.18555" lon="-0.98202">
        <ele>22.6</ele>
        <time>2020-05-31T16:41:21Z</time>
      </trkpt>
      <trkpt lat="46.18555" lon="-0.98202">
        <ele>22.6</ele>
        <time>2020-05-31T16:41:22Z</time>
      </trkpt>
      <trkpt lat="46.18555" lon="-0.98202">
        <ele>22.6</ele>
        <time>2020-05-31T16:41:23Z</time>
      </trkpt>
      <trkpt lat="46.18555" lon="-0.98202">
        <ele>22.6</ele>
        <time>2020-05-31T16:41:24Z</time>
      </trkpt>
      <trkpt lat="46.18554" lon="-0.98202">
        <ele>22.6</ele>
        <time>2020-05-31T16:41:25Z</time>
      </trkpt>
      <trkpt lat="46.18554" lon="-0.98201">
        <ele>22.6</ele>
        <time>2020-05-31T16:41:26Z</time>
      </trkpt>
      <trkpt lat="46.18554" lon="-0.98201">
        <ele>22.6</ele>
        <time>2020-05-31T16:41:27Z</time>
      </trkpt>
      <trkpt lat="46.18555" lon="-0.98202">
        <ele>22.6</ele>
        <time>2020-05-31T16:41:28Z</time>
      </trkpt>
      <trkpt lat="46.18555" lon="-0.98202">
        <ele>22.7</ele>
        <time>2020-05-31T16:41:29Z</time>
      </trkpt>
      <trkpt lat="46.18555" lon="-0.98203">
        <ele>22.7</ele>
        <time>2020-05-31T16:41:30Z</time>
      </trkpt>
      <trkpt lat="46.18555" lon="-0.98203">
        <ele>22.7</ele>
        <time>2020-05-31T16:41:31Z</time>
      </trkpt>
      <trkpt lat="46.18555" lon="-0.98203">
        <ele>22.7</ele>
        <time>2020-05-31T16:41:32Z</time>
      </trkpt>
      <trkpt lat="46.18554" lon="-0.98202">
        <ele>22.7</ele>
        <time>2020-05-31T16:41:33Z</time>
      </trkpt>
      <trkpt lat="46.18554" lon="-0.98202">
        <ele>22.7</ele>
        <time>2020-05-31T16:41:34Z</time>
      </trkpt>
      <trkpt lat="46.18554" lon="-0.98202">
        <ele>22.7</ele>
        <time>2020-05-31T16:41:35Z</time>
      </trkpt>
      <trkpt lat="46.18554" lon="-0.98202">
        <ele>22.7</ele>
        <time>2020-05-31T16:41:36Z</time>
      </trkpt>
      <trkpt lat="46.18554" lon="-0.98201">
        <ele>22.7</ele>
        <time>2020-05-31T16:41:37Z</time>
      </trkpt>
      <trkpt lat="46.18555" lon="-0.98201">
        <ele>22.7</ele>
        <time>2020-05-31T16:41:38Z</time>
      </trkpt>
      <trkpt lat="46.18555" lon="-0.98201">
        <ele>22.7</ele>
        <time>2020-05-31T16:41:39Z</time>
      </trkpt>
      <trkpt lat="46.18555" lon="-0.98201">
        <ele>22.7</ele>
        <time>2020-05-31T16:41:40Z</time>
      </trkpt>
      <trkpt lat="46.18555" lon="-0.98201">
        <ele>22.7</ele>
        <time>2020-05-31T16:41:41Z</time>
      </trkpt>
      <trkpt lat="46.18555" lon="-0.98201">
        <ele>22.7</ele>
        <time>2020-05-31T16:41:42Z</time>
      </trkpt>
      <trkpt lat="46.18555" lon="-0.98202">
        <ele>22.7</ele>
        <time>2020-05-31T16:41:43Z</time>
      </trkpt>
      <trkpt lat="46.18555" lon="-0.98202">
        <ele>22.7</ele>
        <time>2020-05-31T16:41:44Z</time>
      </trkpt>
      <trkpt lat="46.18555" lon="-0.98202">
        <ele>22.7</ele>
        <time>2020-05-31T16:41:45Z</time>
      </trkpt>
      <trkpt lat="46.18555" lon="-0.98203">
        <ele>22.7</ele>
        <time>2020-05-31T16:41:46Z</time>
      </trkpt>
      <trkpt lat="46.18555" lon="-0.98203">
        <ele>22.7</ele>
        <time>2020-05-31T16:41:47Z</time>
      </trkpt>
      <trkpt lat="46.18555" lon="-0.98203">
        <ele>22.7</ele>
        <time>2020-05-31T16:41:48Z</time>
      </trkpt>
      <trkpt lat="46.18555" lon="-0.98203">
        <ele>22.7</ele>
        <time>2020-05-31T16:41:49Z</time>
      </trkpt>
      <trkpt lat="46.18556" lon="-0.98203">
        <ele>22.7</ele>
        <time>2020-05-31T16:41:50Z</time>
      </trkpt>
      <trkpt lat="46.18556" lon="-0.98203">
        <ele>22.7</ele>
        <time>2020-05-31T16:41:51Z</time>
      </trkpt>
      <trkpt lat="46.18556" lon="-0.98202">
        <ele>22.7</ele>
        <time>2020-05-31T16:41:52Z</time>
      </trkpt>
      <trkpt lat="46.18556" lon="-0.98202">
        <ele>22.7</ele>
        <time>2020-05-31T16:41:53Z</time>
      </trkpt>
      <trkpt lat="46.18556" lon="-0.98202">
        <ele>22.7</ele>
        <time>2020-05-31T16:41:54Z</time>
      </trkpt>
      <trkpt lat="46.18555" lon="-0.98201">
        <ele>22.7</ele>
        <time>2020-05-31T16:41:55Z</time>
      </trkpt>
      <trkpt lat="46.18556" lon="-0.98202">
        <ele>22.7</ele>
        <time>2020-05-31T16:41:56Z</time>
      </trkpt>
      <trkpt lat="46.18556" lon="-0.98202">
        <ele>22.7</ele>
        <time>2020-05-31T16:41:57Z</time>
      </trkpt>
      <trkpt lat="46.18556" lon="-0.98203">
        <ele>22.7</ele>
        <time>2020-05-31T16:41:58Z</time>
      </trkpt>
      <trkpt lat="46.18556" lon="-0.98203">
        <ele>22.7</ele>
        <time>2020-05-31T16:41:59Z</time>
      </trkpt>
      <trkpt lat="46.18557" lon="-0.98203">
        <ele>22.7</ele>
        <time>2020-05-31T16:42:00Z</time>
      </trkpt>
      <trkpt lat="46.18557" lon="-0.98203">
        <ele>22.7</ele>
        <time>2020-05-31T16:42:01Z</time>
      </trkpt>
      <trkpt lat="46.18557" lon="-0.98203">
        <ele>22.7</ele>
        <time>2020-05-31T16:42:02Z</time>
      </trkpt>
      <trkpt lat="46.18557" lon="-0.98204">
        <ele>22.8</ele>
        <time>2020-05-31T16:42:03Z</time>
      </trkpt>
      <trkpt lat="46.18557" lon="-0.98204">
        <ele>22.8</ele>
        <time>2020-05-31T16:42:04Z</time>
      </trkpt>
      <trkpt lat="46.18557" lon="-0.98203">
        <ele>22.8</ele>
        <time>2020-05-31T16:42:05Z</time>
      </trkpt>
      <trkpt lat="46.18557" lon="-0.98203">
        <ele>22.8</ele>
        <time>2020-05-31T16:42:06Z</time>
      </trkpt>
      <trkpt lat="46.18557" lon="-0.98203">
        <ele>22.8</ele>
        <time>2020-05-31T16:42:07Z</time>
      </trkpt>
      <trkpt lat="46.18557" lon="-0.98202">
        <ele>22.8</ele>
        <time>2020-05-31T16:42:08Z</time>
      </trkpt>
      <trkpt lat="46.18557" lon="-0.98202">
        <ele>22.8</ele>
        <time>2020-05-31T16:42:09Z</time>
      </trkpt>
      <trkpt lat="46.18557" lon="-0.98202">
        <ele>22.8</ele>
        <time>2020-05-31T16:42:10Z</time>
      </trkpt>
      <trkpt lat="46.18557" lon="-0.98202">
        <ele>22.8</ele>
        <time>2020-05-31T16:42:11Z</time>
      </trkpt>
      <trkpt lat="46.18557" lon="-0.98202">
        <ele>22.8</ele>
        <time>2020-05-31T16:42:12Z</time>
      </trkpt>
      <trkpt lat="46.18557" lon="-0.98202">
        <ele>22.8</ele>
        <time>2020-05-31T16:42:13Z</time>
      </trkpt>
      <trkpt lat="46.18557" lon="-0.98201">
        <ele>22.8</ele>
        <time>2020-05-31T16:42:14Z</time>
      </trkpt>
      <trkpt lat="46.18556" lon="-0.982">
        <ele>22.8</ele>
        <time>2020-05-31T16:42:15Z</time>
      </trkpt>
      <trkpt lat="46.18557" lon="-0.98201">
        <ele>22.8</ele>
        <time>2020-05-31T16:42:16Z</time>
      </trkpt>
      <trkpt lat="46.18557" lon="-0.98201">
        <ele>22.8</ele>
        <time>2020-05-31T16:42:17Z</time>
      </trkpt>
      <trkpt lat="46.18557" lon="-0.98202">
        <ele>22.8</ele>
        <time>2020-05-31T16:42:18Z</time>
      </trkpt>
      <trkpt lat="46.18557" lon="-0.98202">
        <ele>22.8</ele>
        <time>2020-05-31T16:42:19Z</time>
      </trkpt>
      <trkpt lat="46.18557" lon="-0.98203">
        <ele>22.8</ele>
        <time>2020-05-31T16:42:20Z</time>
      </trkpt>
      <trkpt lat="46.18557" lon="-0.98203">
        <ele>22.8</ele>
        <time>2020-05-31T16:42:21Z</time>
      </trkpt>
      <trkpt lat="46.18557" lon="-0.98203">
        <ele>22.8</ele>
        <time>2020-05-31T16:42:22Z</time>
      </trkpt>
      <trkpt lat="46.18557" lon="-0.98204">
        <ele>22.8</ele>
        <time>2020-05-31T16:42:23Z</time>
      </trkpt>
      <trkpt lat="46.18557" lon="-0.98205">
        <ele>22.8</ele>
        <time>2020-05-31T16:42:24Z</time>
      </trkpt>
      <trkpt lat="46.18556" lon="-0.98205">
        <ele>22.8</ele>
        <time>2020-05-31T16:42:25Z</time>
      </trkpt>
      <trkpt lat="46.18556" lon="-0.98206">
        <ele>22.8</ele>
        <time>2020-05-31T16:42:26Z</time>
      </trkpt>
      <trkpt lat="46.18556" lon="-0.98205">
        <ele>22.8</ele>
        <time>2020-05-31T16:42:27Z</time>
      </trkpt>
      <trkpt lat="46.18556" lon="-0.98204">
        <ele>22.8</ele>
        <time>2020-05-31T16:42:28Z</time>
      </trkpt>
      <trkpt lat="46.18556" lon="-0.98203">
        <ele>22.8</ele>
        <time>2020-05-31T16:42:29Z</time>
      </trkpt>
      <trkpt lat="46.18556" lon="-0.98204">
        <ele>22.9</ele>
        <time>2020-05-31T16:42:30Z</time>
      </trkpt>
      <trkpt lat="46.18556" lon="-0.98202">
        <ele>22.9</ele>
        <time>2020-05-31T16:42:31Z</time>
      </trkpt>
      <trkpt lat="46.18556" lon="-0.98203">
        <ele>22.9</ele>
        <time>2020-05-31T16:42:32Z</time>
      </trkpt>
      <trkpt lat="46.18556" lon="-0.98201">
        <ele>22.9</ele>
        <time>2020-05-31T16:42:33Z</time>
      </trkpt>
      <trkpt lat="46.18555" lon="-0.982">
        <ele>22.9</ele>
        <time>2020-05-31T16:42:34Z</time>
      </trkpt>
      <trkpt lat="46.18556" lon="-0.982">
        <ele>22.9</ele>
        <time>2020-05-31T16:42:35Z</time>
      </trkpt>
      <trkpt lat="46.18556" lon="-0.98202">
        <ele>22.9</ele>
        <time>2020-05-31T16:42:36Z</time>
      </trkpt>
      <trkpt lat="46.18556" lon="-0.982">
        <ele>22.9</ele>
        <time>2020-05-31T16:42:37Z</time>
      </trkpt>
      <trkpt lat="46.18556" lon="-0.982">
        <ele>22.9</ele>
        <time>2020-05-31T16:42:38Z</time>
      </trkpt>
      <trkpt lat="46.18556" lon="-0.982">
        <ele>22.9</ele>
        <time>2020-05-31T16:42:39Z</time>
      </trkpt>
      <trkpt lat="46.18556" lon="-0.98202">
        <ele>22.9</ele>
        <time>2020-05-31T16:42:40Z</time>
      </trkpt>
      <trkpt lat="46.18556" lon="-0.98202">
        <ele>22.9</ele>
        <time>2020-05-31T16:42:41Z</time>
      </trkpt>
      <trkpt lat="46.18556" lon="-0.98202">
        <ele>22.9</ele>
        <time>2020-05-31T16:42:42Z</time>
      </trkpt>
      <trkpt lat="46.18556" lon="-0.98202">
        <ele>22.9</ele>
        <time>2020-05-31T16:42:43Z</time>
      </trkpt>
      <trkpt lat="46.18556" lon="-0.98202">
        <ele>22.9</ele>
        <time>2020-05-31T16:42:44Z</time>
      </trkpt>
      <trkpt lat="46.18556" lon="-0.98202">
        <ele>22.9</ele>
        <time>2020-05-31T16:42:45Z</time>
      </trkpt>
      <trkpt lat="46.18556" lon="-0.98202">
        <ele>22.9</ele>
        <time>2020-05-31T16:42:46Z</time>
      </trkpt>
      <trkpt lat="46.18556" lon="-0.98201">
        <ele>23</ele>
        <time>2020-05-31T16:42:47Z</time>
      </trkpt>
      <trkpt lat="46.18556" lon="-0.98201">
        <ele>23</ele>
        <time>2020-05-31T16:42:48Z</time>
      </trkpt>
      <trkpt lat="46.18556" lon="-0.98202">
        <ele>23</ele>
        <time>2020-05-31T16:42:49Z</time>
      </trkpt>
      <trkpt lat="46.18556" lon="-0.98202">
        <ele>23</ele>
        <time>2020-05-31T16:42:50Z</time>
      </trkpt>
      <trkpt lat="46.18556" lon="-0.98202">
        <ele>23</ele>
        <time>2020-05-31T16:42:51Z</time>
      </trkpt>
      <trkpt lat="46.18556" lon="-0.98202">
        <ele>23</ele>
        <time>2020-05-31T16:42:52Z</time>
      </trkpt>
      <trkpt lat="46.18556" lon="-0.98202">
        <ele>23</ele>
        <time>2020-05-31T16:42:53Z</time>
      </trkpt>
      <trkpt lat="46.18556" lon="-0.98202">
        <ele>23</ele>
        <time>2020-05-31T16:42:54Z</time>
      </trkpt>
      <trkpt lat="46.18556" lon="-0.98202">
        <ele>23</ele>
        <time>2020-05-31T16:42:55Z</time>
      </trkpt>
      <trkpt lat="46.18556" lon="-0.98202">
        <ele>23</ele>
        <time>2020-05-31T16:42:56Z</time>
      </trkpt>
      <trkpt lat="46.18556" lon="-0.98202">
        <ele>23</ele>
        <time>2020-05-31T16:42:57Z</time>
      </trkpt>
      <trkpt lat="46.18556" lon="-0.98202">
        <ele>23</ele>
        <time>2020-05-31T16:42:58Z</time>
      </trkpt>
      <trkpt lat="46.18556" lon="-0.98202">
        <ele>23</ele>
        <time>2020-05-31T16:42:59Z</time>
      </trkpt>
      <trkpt lat="46.18556" lon="-0.98202">
        <ele>23</ele>
        <time>2020-05-31T16:43:00Z</time>
      </trkpt>
      <trkpt lat="46.18556" lon="-0.98202">
        <ele>23</ele>
        <time>2020-05-31T16:43:01Z</time>
      </trkpt>
      <trkpt lat="46.18556" lon="-0.98202">
        <ele>23</ele>
        <time>2020-05-31T16:43:02Z</time>
      </trkpt>
      <trkpt lat="46.18556" lon="-0.98202">
        <ele>23</ele>
        <time>2020-05-31T16:43:03Z</time>
      </trkpt>
      <trkpt lat="46.18556" lon="-0.98202">
        <ele>23</ele>
        <time>2020-05-31T16:43:04Z</time>
      </trkpt>
      <trkpt lat="46.18555" lon="-0.98202">
        <ele>23</ele>
        <time>2020-05-31T16:43:05Z</time>
      </trkpt>
      <trkpt lat="46.18555" lon="-0.98202">
        <ele>23</ele>
        <time>2020-05-31T16:43:06Z</time>
      </trkpt>
      <trkpt lat="46.18555" lon="-0.982">
        <ele>23</ele>
        <time>2020-05-31T16:43:07Z</time>
      </trkpt>
      <trkpt lat="46.18555" lon="-0.98201">
        <ele>23</ele>
        <time>2020-05-31T16:43:08Z</time>
      </trkpt>
      <trkpt lat="46.18554" lon="-0.98202">
        <ele>23</ele>
        <time>2020-05-31T16:43:09Z</time>
      </trkpt>
      <trkpt lat="46.18554" lon="-0.98202">
        <ele>23</ele>
        <time>2020-05-31T16:43:10Z</time>
      </trkpt>
      <trkpt lat="46.18554" lon="-0.98201">
        <ele>23</ele>
        <time>2020-05-31T16:43:11Z</time>
      </trkpt>
      <trkpt lat="46.18554" lon="-0.98202">
        <ele>23</ele>
        <time>2020-05-31T16:43:12Z</time>
      </trkpt>
      <trkpt lat="46.18554" lon="-0.98203">
        <ele>23</ele>
        <time>2020-05-31T16:43:13Z</time>
      </trkpt>
      <trkpt lat="46.18554" lon="-0.98202">
        <ele>23</ele>
        <time>2020-05-31T16:43:14Z</time>
      </trkpt>
      <trkpt lat="46.18554" lon="-0.98203">
        <ele>23</ele>
        <time>2020-05-31T16:43:15Z</time>
      </trkpt>
      <trkpt lat="46.18553" lon="-0.98201">
        <ele>23</ele>
        <time>2020-05-31T16:43:16Z</time>
      </trkpt>
      <trkpt lat="46.18554" lon="-0.98202">
        <ele>23</ele>
        <time>2020-05-31T16:43:17Z</time>
      </trkpt>
      <trkpt lat="46.18553" lon="-0.98201">
        <ele>23</ele>
        <time>2020-05-31T16:43:18Z</time>
      </trkpt>
      <trkpt lat="46.18553" lon="-0.982">
        <ele>23</ele>
        <time>2020-05-31T16:43:19Z</time>
      </trkpt>
      <trkpt lat="46.18553" lon="-0.982">
        <ele>23</ele>
        <time>2020-05-31T16:43:20Z</time>
      </trkpt>
      <trkpt lat="46.18553" lon="-0.98201">
        <ele>23</ele>
        <time>2020-05-31T16:43:21Z</time>
      </trkpt>
      <trkpt lat="46.18553" lon="-0.98201">
        <ele>23</ele>
        <time>2020-05-31T16:43:22Z</time>
      </trkpt>
      <trkpt lat="46.18553" lon="-0.98202">
        <ele>23</ele>
        <time>2020-05-31T16:43:23Z</time>
      </trkpt>
      <trkpt lat="46.18553" lon="-0.98201">
        <ele>23</ele>
        <time>2020-05-31T16:43:24Z</time>
      </trkpt>
      <trkpt lat="46.18553" lon="-0.98201">
        <ele>23.1</ele>
        <time>2020-05-31T16:43:25Z</time>
      </trkpt>
      <trkpt lat="46.18553" lon="-0.982">
        <ele>23.1</ele>
        <time>2020-05-31T16:43:26Z</time>
      </trkpt>
      <trkpt lat="46.18553" lon="-0.982">
        <ele>23.1</ele>
        <time>2020-05-31T16:43:27Z</time>
      </trkpt>
      <trkpt lat="46.18553" lon="-0.98201">
        <ele>23.1</ele>
        <time>2020-05-31T16:43:28Z</time>
      </trkpt>
      <trkpt lat="46.18553" lon="-0.98202">
        <ele>23.1</ele>
        <time>2020-05-31T16:43:29Z</time>
      </trkpt>
      <trkpt lat="46.18553" lon="-0.98201">
        <ele>23.1</ele>
        <time>2020-05-31T16:43:30Z</time>
      </trkpt>
      <trkpt lat="46.18553" lon="-0.98201">
        <ele>23.1</ele>
        <time>2020-05-31T16:43:31Z</time>
      </trkpt>
      <trkpt lat="46.18553" lon="-0.98201">
        <ele>23.1</ele>
        <time>2020-05-31T16:43:32Z</time>
      </trkpt>
      <trkpt lat="46.18553" lon="-0.98202">
        <ele>23.1</ele>
        <time>2020-05-31T16:43:33Z</time>
      </trkpt>
      <trkpt lat="46.18554" lon="-0.98204">
        <ele>23.1</ele>
        <time>2020-05-31T16:43:34Z</time>
      </trkpt>
      <trkpt lat="46.18554" lon="-0.98206">
        <ele>23.1</ele>
        <time>2020-05-31T16:43:35Z</time>
      </trkpt>
      <trkpt lat="46.18554" lon="-0.98208">
        <ele>23.1</ele>
        <time>2020-05-31T16:43:36Z</time>
      </trkpt>
      <trkpt lat="46.18555" lon="-0.98213">
        <ele>23.1</ele>
        <time>2020-05-31T16:43:37Z</time>
      </trkpt>
      <trkpt lat="46.18555" lon="-0.98215">
        <ele>23.1</ele>
        <time>2020-05-31T16:43:38Z</time>
      </trkpt>
      <trkpt lat="46.18556" lon="-0.9822">
        <ele>23.2</ele>
        <time>2020-05-31T16:43:39Z</time>
      </trkpt>
      <trkpt lat="46.18557" lon="-0.98226">
        <ele>23.2</ele>
        <time>2020-05-31T16:43:40Z</time>
      </trkpt>
      <trkpt lat="46.18558" lon="-0.98231">
        <ele>23.2</ele>
        <time>2020-05-31T16:43:41Z</time>
      </trkpt>
      <trkpt lat="46.18558" lon="-0.98237">
        <ele>23.2</ele>
        <time>2020-05-31T16:43:42Z</time>
      </trkpt>
      <trkpt lat="46.18558" lon="-0.98243">
        <ele>23.2</ele>
        <time>2020-05-31T16:43:43Z</time>
      </trkpt>
      <trkpt lat="46.18558" lon="-0.98249">
        <ele>23.3</ele>
        <time>2020-05-31T16:43:44Z</time>
      </trkpt>
      <trkpt lat="46.18557" lon="-0.98255">
        <ele>23.3</ele>
        <time>2020-05-31T16:43:45Z</time>
      </trkpt>
      <trkpt lat="46.18557" lon="-0.9826">
        <ele>23.3</ele>
        <time>2020-05-31T16:43:46Z</time>
      </trkpt>
      <trkpt lat="46.18555" lon="-0.98266">
        <ele>23.4</ele>
        <time>2020-05-31T16:43:47Z</time>
      </trkpt>
      <trkpt lat="46.18555" lon="-0.98273">
        <ele>23.4</ele>
        <time>2020-05-31T16:43:48Z</time>
      </trkpt>
      <trkpt lat="46.18554" lon="-0.98279">
        <ele>23.4</ele>
        <time>2020-05-31T16:43:49Z</time>
      </trkpt>
      <trkpt lat="46.18554" lon="-0.98284">
        <ele>23.5</ele>
        <time>2020-05-31T16:43:50Z</time>
      </trkpt>
      <trkpt lat="46.18554" lon="-0.98289">
        <ele>23.5</ele>
        <time>2020-05-31T16:43:51Z</time>
      </trkpt>
      <trkpt lat="46.18554" lon="-0.98295">
        <ele>23.6</ele>
        <time>2020-05-31T16:43:52Z</time>
      </trkpt>
      <trkpt lat="46.18554" lon="-0.98301">
        <ele>23.6</ele>
        <time>2020-05-31T16:43:53Z</time>
      </trkpt>
      <trkpt lat="46.18554" lon="-0.98308">
        <ele>23.6</ele>
        <time>2020-05-31T16:43:54Z</time>
      </trkpt>
      <trkpt lat="46.18554" lon="-0.98314">
        <ele>23.7</ele>
        <time>2020-05-31T16:43:55Z</time>
      </trkpt>
      <trkpt lat="46.18554" lon="-0.9832">
        <ele>23.7</ele>
        <time>2020-05-31T16:43:56Z</time>
      </trkpt>
      <trkpt lat="46.18554" lon="-0.98326">
        <ele>23.8</ele>
        <time>2020-05-31T16:43:57Z</time>
      </trkpt>
      <trkpt lat="46.18554" lon="-0.98332">
        <ele>23.8</ele>
        <time>2020-05-31T16:43:58Z</time>
      </trkpt>
      <trkpt lat="46.18555" lon="-0.98339">
        <ele>23.8</ele>
        <time>2020-05-31T16:43:59Z</time>
      </trkpt>
      <trkpt lat="46.18555" lon="-0.98345">
        <ele>23.9</ele>
        <time>2020-05-31T16:44:00Z</time>
      </trkpt>
      <trkpt lat="46.18558" lon="-0.98352">
        <ele>23.9</ele>
        <time>2020-05-31T16:44:01Z</time>
      </trkpt>
      <trkpt lat="46.18559" lon="-0.98359">
        <ele>24</ele>
        <time>2020-05-31T16:44:02Z</time>
      </trkpt>
      <trkpt lat="46.1856" lon="-0.98366">
        <ele>24</ele>
        <time>2020-05-31T16:44:03Z</time>
      </trkpt>
      <trkpt lat="46.1856" lon="-0.98373">
        <ele>24.1</ele>
        <time>2020-05-31T16:44:04Z</time>
      </trkpt>
      <trkpt lat="46.18561" lon="-0.9838">
        <ele>24.1</ele>
        <time>2020-05-31T16:44:05Z</time>
      </trkpt>
      <trkpt lat="46.18561" lon="-0.98386">
        <ele>24.2</ele>
        <time>2020-05-31T16:44:06Z</time>
      </trkpt>
      <trkpt lat="46.18563" lon="-0.98394">
        <ele>24.2</ele>
        <time>2020-05-31T16:44:07Z</time>
      </trkpt>
      <trkpt lat="46.18564" lon="-0.98401">
        <ele>24.3</ele>
        <time>2020-05-31T16:44:08Z</time>
      </trkpt>
      <trkpt lat="46.18564" lon="-0.98408">
        <ele>24.3</ele>
        <time>2020-05-31T16:44:09Z</time>
      </trkpt>
      <trkpt lat="46.18565" lon="-0.98415">
        <ele>24.4</ele>
        <time>2020-05-31T16:44:10Z</time>
      </trkpt>
      <trkpt lat="46.18566" lon="-0.98422">
        <ele>24.4</ele>
        <time>2020-05-31T16:44:11Z</time>
      </trkpt>
      <trkpt lat="46.18568" lon="-0.9843">
        <ele>24.5</ele>
        <time>2020-05-31T16:44:12Z</time>
      </trkpt>
      <trkpt lat="46.18569" lon="-0.98437">
        <ele>24.5</ele>
        <time>2020-05-31T16:44:13Z</time>
      </trkpt>
      <trkpt lat="46.1857" lon="-0.98445">
        <ele>24.6</ele>
        <time>2020-05-31T16:44:14Z</time>
      </trkpt>
      <trkpt lat="46.18571" lon="-0.98453">
        <ele>24.6</ele>
        <time>2020-05-31T16:44:15Z</time>
      </trkpt>
      <trkpt lat="46.18572" lon="-0.9846">
        <ele>24.7</ele>
        <time>2020-05-31T16:44:16Z</time>
      </trkpt>
      <trkpt lat="46.18573" lon="-0.98468">
        <ele>24.8</ele>
        <time>2020-05-31T16:44:17Z</time>
      </trkpt>
      <trkpt lat="46.18574" lon="-0.98474">
        <ele>24.9</ele>
        <time>2020-05-31T16:44:18Z</time>
      </trkpt>
      <trkpt lat="46.18576" lon="-0.98481">
        <ele>25</ele>
        <time>2020-05-31T16:44:19Z</time>
      </trkpt>
      <trkpt lat="46.18577" lon="-0.98488">
        <ele>25.1</ele>
        <time>2020-05-31T16:44:20Z</time>
      </trkpt>
      <trkpt lat="46.18578" lon="-0.98494">
        <ele>25.2</ele>
        <time>2020-05-31T16:44:21Z</time>
      </trkpt>
      <trkpt lat="46.18579" lon="-0.98499">
        <ele>25.3</ele>
        <time>2020-05-31T16:44:22Z</time>
      </trkpt>
      <trkpt lat="46.1858" lon="-0.98505">
        <ele>25.4</ele>
        <time>2020-05-31T16:44:23Z</time>
      </trkpt>
      <trkpt lat="46.18582" lon="-0.98512">
        <ele>25.4</ele>
        <time>2020-05-31T16:44:24Z</time>
      </trkpt>
      <trkpt lat="46.18584" lon="-0.9852">
        <ele>25.5</ele>
        <time>2020-05-31T16:44:25Z</time>
      </trkpt>
      <trkpt lat="46.18585" lon="-0.98527">
        <ele>25.5</ele>
        <time>2020-05-31T16:44:26Z</time>
      </trkpt>
      <trkpt lat="46.18586" lon="-0.98535">
        <ele>25.5</ele>
        <time>2020-05-31T16:44:27Z</time>
      </trkpt>
      <trkpt lat="46.18588" lon="-0.98543">
        <ele>25.6</ele>
        <time>2020-05-31T16:44:28Z</time>
      </trkpt>
      <trkpt lat="46.1859" lon="-0.98551">
        <ele>25.6</ele>
        <time>2020-05-31T16:44:29Z</time>
      </trkpt>
      <trkpt lat="46.18591" lon="-0.98558">
        <ele>25.6</ele>
        <time>2020-05-31T16:44:30Z</time>
      </trkpt>
      <trkpt lat="46.18591" lon="-0.98566">
        <ele>25.7</ele>
        <time>2020-05-31T16:44:31Z</time>
      </trkpt>
      <trkpt lat="46.18592" lon="-0.98572">
        <ele>25.7</ele>
        <time>2020-05-31T16:44:32Z</time>
      </trkpt>
      <trkpt lat="46.18593" lon="-0.98579">
        <ele>25.8</ele>
        <time>2020-05-31T16:44:33Z</time>
      </trkpt>
      <trkpt lat="46.18594" lon="-0.98585">
        <ele>25.9</ele>
        <time>2020-05-31T16:44:34Z</time>
      </trkpt>
      <trkpt lat="46.18595" lon="-0.98593">
        <ele>26</ele>
        <time>2020-05-31T16:44:35Z</time>
      </trkpt>
      <trkpt lat="46.18596" lon="-0.986">
        <ele>26.1</ele>
        <time>2020-05-31T16:44:36Z</time>
      </trkpt>
      <trkpt lat="46.18597" lon="-0.98607">
        <ele>26.2</ele>
        <time>2020-05-31T16:44:37Z</time>
      </trkpt>
      <trkpt lat="46.18598" lon="-0.98615">
        <ele>26.3</ele>
        <time>2020-05-31T16:44:38Z</time>
      </trkpt>
      <trkpt lat="46.18598" lon="-0.98623">
        <ele>26.4</ele>
        <time>2020-05-31T16:44:39Z</time>
      </trkpt>
      <trkpt lat="46.18599" lon="-0.98629">
        <ele>26.5</ele>
        <time>2020-05-31T16:44:40Z</time>
      </trkpt>
      <trkpt lat="46.18599" lon="-0.98635">
        <ele>26.6</ele>
        <time>2020-05-31T16:44:41Z</time>
      </trkpt>
      <trkpt lat="46.186" lon="-0.98641">
        <ele>26.7</ele>
        <time>2020-05-31T16:44:42Z</time>
      </trkpt>
      <trkpt lat="46.186" lon="-0.98647">
        <ele>26.8</ele>
        <time>2020-05-31T16:44:43Z</time>
      </trkpt>
      <trkpt lat="46.18601" lon="-0.98652">
        <ele>26.8</ele>
        <time>2020-05-31T16:44:44Z</time>
      </trkpt>
      <trkpt lat="46.18602" lon="-0.98658">
        <ele>26.9</ele>
        <time>2020-05-31T16:44:45Z</time>
      </trkpt>
      <trkpt lat="46.18602" lon="-0.98664">
        <ele>27</ele>
        <time>2020-05-31T16:44:46Z</time>
      </trkpt>
      <trkpt lat="46.18603" lon="-0.9867">
        <ele>27.1</ele>
        <time>2020-05-31T16:44:47Z</time>
      </trkpt>
      <trkpt lat="46.18603" lon="-0.98677">
        <ele>27.1</ele>
        <time>2020-05-31T16:44:48Z</time>
      </trkpt>
      <trkpt lat="46.18604" lon="-0.98683">
        <ele>27.2</ele>
        <time>2020-05-31T16:44:49Z</time>
      </trkpt>
      <trkpt lat="46.18605" lon="-0.98689">
        <ele>27.3</ele>
        <time>2020-05-31T16:44:50Z</time>
      </trkpt>
      <trkpt lat="46.18606" lon="-0.98695">
        <ele>27.3</ele>
        <time>2020-05-31T16:44:51Z</time>
      </trkpt>
      <trkpt lat="46.18607" lon="-0.987">
        <ele>27.4</ele>
        <time>2020-05-31T16:44:52Z</time>
      </trkpt>
      <trkpt lat="46.18608" lon="-0.98707">
        <ele>27.5</ele>
        <time>2020-05-31T16:44:53Z</time>
      </trkpt>
      <trkpt lat="46.18609" lon="-0.98713">
        <ele>27.6</ele>
        <time>2020-05-31T16:44:54Z</time>
      </trkpt>
      <trkpt lat="46.1861" lon="-0.9872">
        <ele>27.6</ele>
        <time>2020-05-31T16:44:55Z</time>
      </trkpt>
      <trkpt lat="46.18611" lon="-0.98726">
        <ele>27.7</ele>
        <time>2020-05-31T16:44:56Z</time>
      </trkpt>
      <trkpt lat="46.18611" lon="-0.98733">
        <ele>27.8</ele>
        <time>2020-05-31T16:44:57Z</time>
      </trkpt>
      <trkpt lat="46.18612" lon="-0.98739">
        <ele>27.9</ele>
        <time>2020-05-31T16:44:58Z</time>
      </trkpt>
      <trkpt lat="46.18612" lon="-0.98745">
        <ele>28</ele>
        <time>2020-05-31T16:44:59Z</time>
      </trkpt>
      <trkpt lat="46.18612" lon="-0.98751">
        <ele>28.1</ele>
        <time>2020-05-31T16:45:00Z</time>
      </trkpt>
      <trkpt lat="46.18612" lon="-0.98757">
        <ele>28.1</ele>
        <time>2020-05-31T16:45:01Z</time>
      </trkpt>
      <trkpt lat="46.18612" lon="-0.98763">
        <ele>28.2</ele>
        <time>2020-05-31T16:45:02Z</time>
      </trkpt>
      <trkpt lat="46.18612" lon="-0.98768">
        <ele>28.3</ele>
        <time>2020-05-31T16:45:03Z</time>
      </trkpt>
      <trkpt lat="46.18612" lon="-0.98773">
        <ele>28.4</ele>
        <time>2020-05-31T16:45:04Z</time>
      </trkpt>
      <trkpt lat="46.18612" lon="-0.98777">
        <ele>28.5</ele>
        <time>2020-05-31T16:45:05Z</time>
      </trkpt>
      <trkpt lat="46.18612" lon="-0.98783">
        <ele>28.6</ele>
        <time>2020-05-31T16:45:06Z</time>
      </trkpt>
      <trkpt lat="46.18612" lon="-0.98785">
        <ele>28.6</ele>
        <time>2020-05-31T16:45:07Z</time>
      </trkpt>
      <trkpt lat="46.18611" lon="-0.98791">
        <ele>28.7</ele>
        <time>2020-05-31T16:45:08Z</time>
      </trkpt>
      <trkpt lat="46.1861" lon="-0.98797">
        <ele>28.8</ele>
        <time>2020-05-31T16:45:09Z</time>
      </trkpt>
      <trkpt lat="46.18609" lon="-0.98803">
        <ele>28.8</ele>
        <time>2020-05-31T16:45:10Z</time>
      </trkpt>
      <trkpt lat="46.18608" lon="-0.9881">
        <ele>28.9</ele>
        <time>2020-05-31T16:45:11Z</time>
      </trkpt>
      <trkpt lat="46.18608" lon="-0.98818">
        <ele>29.1</ele>
        <time>2020-05-31T16:45:12Z</time>
      </trkpt>
      <trkpt lat="46.18606" lon="-0.98826">
        <ele>29.2</ele>
        <time>2020-05-31T16:45:13Z</time>
      </trkpt>
      <trkpt lat="46.18606" lon="-0.98834">
        <ele>29.3</ele>
        <time>2020-05-31T16:45:14Z</time>
      </trkpt>
      <trkpt lat="46.18607" lon="-0.9884">
        <ele>29.5</ele>
        <time>2020-05-31T16:45:15Z</time>
      </trkpt>
      <trkpt lat="46.18606" lon="-0.98847">
        <ele>29.6</ele>
        <time>2020-05-31T16:45:16Z</time>
      </trkpt>
      <trkpt lat="46.18606" lon="-0.98855">
        <ele>29.7</ele>
        <time>2020-05-31T16:45:17Z</time>
      </trkpt>
      <trkpt lat="46.18605" lon="-0.98861">
        <ele>29.9</ele>
        <time>2020-05-31T16:45:18Z</time>
      </trkpt>
      <trkpt lat="46.18604" lon="-0.98868">
        <ele>30</ele>
        <time>2020-05-31T16:45:19Z</time>
      </trkpt>
      <trkpt lat="46.18604" lon="-0.98874">
        <ele>30.1</ele>
        <time>2020-05-31T16:45:20Z</time>
      </trkpt>
      <trkpt lat="46.18603" lon="-0.9888">
        <ele>30.2</ele>
        <time>2020-05-31T16:45:21Z</time>
      </trkpt>
      <trkpt lat="46.18603" lon="-0.98887">
        <ele>30.4</ele>
        <time>2020-05-31T16:45:22Z</time>
      </trkpt>
      <trkpt lat="46.18602" lon="-0.98893">
        <ele>30.5</ele>
        <time>2020-05-31T16:45:23Z</time>
      </trkpt>
      <trkpt lat="46.18601" lon="-0.98899">
        <ele>30.6</ele>
        <time>2020-05-31T16:45:24Z</time>
      </trkpt>
      <trkpt lat="46.18602" lon="-0.98908">
        <ele>30.8</ele>
        <time>2020-05-31T16:45:25Z</time>
      </trkpt>
      <trkpt lat="46.18602" lon="-0.98919">
        <ele>31</ele>
        <time>2020-05-31T16:45:26Z</time>
      </trkpt>
      <trkpt lat="46.18602" lon="-0.98928">
        <ele>31.2</ele>
        <time>2020-05-31T16:45:27Z</time>
      </trkpt>
      <trkpt lat="46.18601" lon="-0.98942">
        <ele>31.5</ele>
        <time>2020-05-31T16:45:28Z</time>
      </trkpt>
      <trkpt lat="46.186" lon="-0.98954">
        <ele>31.8</ele>
        <time>2020-05-31T16:45:29Z</time>
      </trkpt>
      <trkpt lat="46.18599" lon="-0.98962">
        <ele>31.9</ele>
        <time>2020-05-31T16:45:30Z</time>
      </trkpt>
      <trkpt lat="46.18597" lon="-0.98973">
        <ele>32.2</ele>
        <time>2020-05-31T16:45:31Z</time>
      </trkpt>
      <trkpt lat="46.18596" lon="-0.98983">
        <ele>32.4</ele>
        <time>2020-05-31T16:45:32Z</time>
      </trkpt>
      <trkpt lat="46.18596" lon="-0.98992">
        <ele>32.6</ele>
        <time>2020-05-31T16:45:33Z</time>
      </trkpt>
      <trkpt lat="46.18595" lon="-0.99002">
        <ele>32.8</ele>
        <time>2020-05-31T16:45:34Z</time>
      </trkpt>
      <trkpt lat="46.18595" lon="-0.99009">
        <ele>33</ele>
        <time>2020-05-31T16:45:35Z</time>
      </trkpt>
      <trkpt lat="46.18594" lon="-0.99016">
        <ele>33.1</ele>
        <time>2020-05-31T16:45:36Z</time>
      </trkpt>
      <trkpt lat="46.18593" lon="-0.99023">
        <ele>33.2</ele>
        <time>2020-05-31T16:45:37Z</time>
      </trkpt>
      <trkpt lat="46.18592" lon="-0.99029">
        <ele>33.2</ele>
        <time>2020-05-31T16:45:38Z</time>
      </trkpt>
      <trkpt lat="46.18592" lon="-0.99036">
        <ele>33.3</ele>
        <time>2020-05-31T16:45:39Z</time>
      </trkpt>
      <trkpt lat="46.18591" lon="-0.99043">
        <ele>33.4</ele>
        <time>2020-05-31T16:45:40Z</time>
      </trkpt>
      <trkpt lat="46.1859" lon="-0.99049">
        <ele>33.4</ele>
        <time>2020-05-31T16:45:41Z</time>
      </trkpt>
      <trkpt lat="46.1859" lon="-0.99053">
        <ele>33.5</ele>
        <time>2020-05-31T16:45:42Z</time>
      </trkpt>
      <trkpt lat="46.18589" lon="-0.99058">
        <ele>33.6</ele>
        <time>2020-05-31T16:45:43Z</time>
      </trkpt>
      <trkpt lat="46.18588" lon="-0.99063">
        <ele>33.7</ele>
        <time>2020-05-31T16:45:44Z</time>
      </trkpt>
      <trkpt lat="46.18588" lon="-0.99068">
        <ele>33.8</ele>
        <time>2020-05-31T16:45:45Z</time>
      </trkpt>
      <trkpt lat="46.18587" lon="-0.99073">
        <ele>33.9</ele>
        <time>2020-05-31T16:45:46Z</time>
      </trkpt>
      <trkpt lat="46.18586" lon="-0.99078">
        <ele>34</ele>
        <time>2020-05-31T16:45:47Z</time>
      </trkpt>
      <trkpt lat="46.18585" lon="-0.99085">
        <ele>34.2</ele>
        <time>2020-05-31T16:45:48Z</time>
      </trkpt>
      <trkpt lat="46.18585" lon="-0.9909">
        <ele>34.3</ele>
        <time>2020-05-31T16:45:49Z</time>
      </trkpt>
      <trkpt lat="46.18584" lon="-0.99096">
        <ele>34.4</ele>
        <time>2020-05-31T16:45:50Z</time>
      </trkpt>
      <trkpt lat="46.18584" lon="-0.99098">
        <ele>34.5</ele>
        <time>2020-05-31T16:45:51Z</time>
      </trkpt>
      <trkpt lat="46.18583" lon="-0.99103">
        <ele>34.6</ele>
        <time>2020-05-31T16:45:52Z</time>
      </trkpt>
      <trkpt lat="46.18583" lon="-0.99106">
        <ele>34.6</ele>
        <time>2020-05-31T16:45:53Z</time>
      </trkpt>
      <trkpt lat="46.18581" lon="-0.99114">
        <ele>34.8</ele>
        <time>2020-05-31T16:45:54Z</time>
      </trkpt>
      <trkpt lat="46.1858" lon="-0.99122">
        <ele>34.8</ele>
        <time>2020-05-31T16:45:55Z</time>
      </trkpt>
      <trkpt lat="46.18578" lon="-0.99131">
        <ele>34.9</ele>
        <time>2020-05-31T16:45:56Z</time>
      </trkpt>
      <trkpt lat="46.18576" lon="-0.99135">
        <ele>35</ele>
        <time>2020-05-31T16:45:57Z</time>
      </trkpt>
      <trkpt lat="46.18575" lon="-0.99141">
        <ele>35.1</ele>
        <time>2020-05-31T16:45:58Z</time>
      </trkpt>
      <trkpt lat="46.18574" lon="-0.99146">
        <ele>35.1</ele>
        <time>2020-05-31T16:45:59Z</time>
      </trkpt>
      <trkpt lat="46.18572" lon="-0.99151">
        <ele>35.2</ele>
        <time>2020-05-31T16:46:00Z</time>
      </trkpt>
      <trkpt lat="46.1857" lon="-0.99157">
        <ele>35.2</ele>
        <time>2020-05-31T16:46:01Z</time>
      </trkpt>
      <trkpt lat="46.18569" lon="-0.99163">
        <ele>35.3</ele>
        <time>2020-05-31T16:46:02Z</time>
      </trkpt>
      <trkpt lat="46.18567" lon="-0.99171">
        <ele>35.4</ele>
        <time>2020-05-31T16:46:03Z</time>
      </trkpt>
      <trkpt lat="46.18567" lon="-0.99181">
        <ele>35.5</ele>
        <time>2020-05-31T16:46:04Z</time>
      </trkpt>
      <trkpt lat="46.18566" lon="-0.99189">
        <ele>35.6</ele>
        <time>2020-05-31T16:46:05Z</time>
      </trkpt>
      <trkpt lat="46.18564" lon="-0.99195">
        <ele>35.6</ele>
        <time>2020-05-31T16:46:06Z</time>
      </trkpt>
      <trkpt lat="46.18562" lon="-0.99202">
        <ele>35.7</ele>
        <time>2020-05-31T16:46:07Z</time>
      </trkpt>
      <trkpt lat="46.1856" lon="-0.9921">
        <ele>35.8</ele>
        <time>2020-05-31T16:46:08Z</time>
      </trkpt>
      <trkpt lat="46.18558" lon="-0.99216">
        <ele>35.8</ele>
        <time>2020-05-31T16:46:09Z</time>
      </trkpt>
      <trkpt lat="46.18556" lon="-0.99222">
        <ele>35.9</ele>
        <time>2020-05-31T16:46:10Z</time>
      </trkpt>
      <trkpt lat="46.18555" lon="-0.99226">
        <ele>35.9</ele>
        <time>2020-05-31T16:46:11Z</time>
      </trkpt>
      <trkpt lat="46.18554" lon="-0.9923">
        <ele>35.9</ele>
        <time>2020-05-31T16:46:12Z</time>
      </trkpt>
      <trkpt lat="46.18552" lon="-0.99235">
        <ele>35.9</ele>
        <time>2020-05-31T16:46:13Z</time>
      </trkpt>
      <trkpt lat="46.18551" lon="-0.99241">
        <ele>36</ele>
        <time>2020-05-31T16:46:14Z</time>
      </trkpt>
      <trkpt lat="46.1855" lon="-0.99248">
        <ele>36</ele>
        <time>2020-05-31T16:46:15Z</time>
      </trkpt>
      <trkpt lat="46.18549" lon="-0.99253">
        <ele>36.1</ele>
        <time>2020-05-31T16:46:16Z</time>
      </trkpt>
      <trkpt lat="46.18547" lon="-0.99261">
        <ele>36.1</ele>
        <time>2020-05-31T16:46:17Z</time>
      </trkpt>
      <trkpt lat="46.18546" lon="-0.99267">
        <ele>36.2</ele>
        <time>2020-05-31T16:46:18Z</time>
      </trkpt>
      <trkpt lat="46.18546" lon="-0.99274">
        <ele>36.2</ele>
        <time>2020-05-31T16:46:19Z</time>
      </trkpt>
      <trkpt lat="46.18545" lon="-0.9928">
        <ele>36.2</ele>
        <time>2020-05-31T16:46:20Z</time>
      </trkpt>
      <trkpt lat="46.18544" lon="-0.99287">
        <ele>36.2</ele>
        <time>2020-05-31T16:46:21Z</time>
      </trkpt>
      <trkpt lat="46.18543" lon="-0.99296">
        <ele>36.3</ele>
        <time>2020-05-31T16:46:22Z</time>
      </trkpt>
      <trkpt lat="46.18542" lon="-0.99303">
        <ele>36.3</ele>
        <time>2020-05-31T16:46:23Z</time>
      </trkpt>
      <trkpt lat="46.18541" lon="-0.99308">
        <ele>36.3</ele>
        <time>2020-05-31T16:46:24Z</time>
      </trkpt>
      <trkpt lat="46.18539" lon="-0.99316">
        <ele>36.3</ele>
        <time>2020-05-31T16:46:25Z</time>
      </trkpt>
      <trkpt lat="46.18537" lon="-0.99323">
        <ele>36.3</ele>
        <time>2020-05-31T16:46:26Z</time>
      </trkpt>
      <trkpt lat="46.18537" lon="-0.99326">
        <ele>36.3</ele>
        <time>2020-05-31T16:46:27Z</time>
      </trkpt>
      <trkpt lat="46.18535" lon="-0.99332">
        <ele>36.3</ele>
        <time>2020-05-31T16:46:28Z</time>
      </trkpt>
      <trkpt lat="46.18535" lon="-0.99337">
        <ele>36.4</ele>
        <time>2020-05-31T16:46:29Z</time>
      </trkpt>
      <trkpt lat="46.18533" lon="-0.99344">
        <ele>36.4</ele>
        <time>2020-05-31T16:46:30Z</time>
      </trkpt>
      <trkpt lat="46.18532" lon="-0.9935">
        <ele>36.4</ele>
        <time>2020-05-31T16:46:31Z</time>
      </trkpt>
      <trkpt lat="46.1853" lon="-0.99358">
        <ele>36.5</ele>
        <time>2020-05-31T16:46:32Z</time>
      </trkpt>
      <trkpt lat="46.18529" lon="-0.99365">
        <ele>36.5</ele>
        <time>2020-05-31T16:46:33Z</time>
      </trkpt>
      <trkpt lat="46.18528" lon="-0.99371">
        <ele>36.5</ele>
        <time>2020-05-31T16:46:34Z</time>
      </trkpt>
      <trkpt lat="46.18526" lon="-0.99377">
        <ele>36.5</ele>
        <time>2020-05-31T16:46:35Z</time>
      </trkpt>
      <trkpt lat="46.18525" lon="-0.99384">
        <ele>36.5</ele>
        <time>2020-05-31T16:46:36Z</time>
      </trkpt>
      <trkpt lat="46.18524" lon="-0.99392">
        <ele>36.5</ele>
        <time>2020-05-31T16:46:37Z</time>
      </trkpt>
      <trkpt lat="46.18522" lon="-0.99399">
        <ele>36.5</ele>
        <time>2020-05-31T16:46:38Z</time>
      </trkpt>
      <trkpt lat="46.1852" lon="-0.99406">
        <ele>36.5</ele>
        <time>2020-05-31T16:46:39Z</time>
      </trkpt>
      <trkpt lat="46.18518" lon="-0.99414">
        <ele>36.5</ele>
        <time>2020-05-31T16:46:40Z</time>
      </trkpt>
      <trkpt lat="46.18515" lon="-0.99424">
        <ele>36.5</ele>
        <time>2020-05-31T16:46:41Z</time>
      </trkpt>
      <trkpt lat="46.18513" lon="-0.99431">
        <ele>36.5</ele>
        <time>2020-05-31T16:46:42Z</time>
      </trkpt>
      <trkpt lat="46.18512" lon="-0.99439">
        <ele>36.5</ele>
        <time>2020-05-31T16:46:43Z</time>
      </trkpt>
      <trkpt lat="46.1851" lon="-0.99445">
        <ele>36.5</ele>
        <time>2020-05-31T16:46:44Z</time>
      </trkpt>
      <trkpt lat="46.18509" lon="-0.99452">
        <ele>36.5</ele>
        <time>2020-05-31T16:46:45Z</time>
      </trkpt>
      <trkpt lat="46.18508" lon="-0.99459">
        <ele>36.6</ele>
        <time>2020-05-31T16:46:46Z</time>
      </trkpt>
      <trkpt lat="46.18506" lon="-0.99466">
        <ele>36.6</ele>
        <time>2020-05-31T16:46:47Z</time>
      </trkpt>
      <trkpt lat="46.18505" lon="-0.9947">
        <ele>36.6</ele>
        <time>2020-05-31T16:46:48Z</time>
      </trkpt>
      <trkpt lat="46.18504" lon="-0.99477">
        <ele>36.6</ele>
        <time>2020-05-31T16:46:49Z</time>
      </trkpt>
      <trkpt lat="46.18502" lon="-0.99482">
        <ele>36.6</ele>
        <time>2020-05-31T16:46:50Z</time>
      </trkpt>
      <trkpt lat="46.185" lon="-0.99488">
        <ele>36.6</ele>
        <time>2020-05-31T16:46:51Z</time>
      </trkpt>
      <trkpt lat="46.18498" lon="-0.99497">
        <ele>36.6</ele>
        <time>2020-05-31T16:46:52Z</time>
      </trkpt>
      <trkpt lat="46.18496" lon="-0.99505">
        <ele>36.6</ele>
        <time>2020-05-31T16:46:53Z</time>
      </trkpt>
      <trkpt lat="46.18494" lon="-0.99513">
        <ele>36.6</ele>
        <time>2020-05-31T16:46:54Z</time>
      </trkpt>
      <trkpt lat="46.18493" lon="-0.99518">
        <ele>36.6</ele>
        <time>2020-05-31T16:46:55Z</time>
      </trkpt>
      <trkpt lat="46.18492" lon="-0.99525">
        <ele>36.6</ele>
        <time>2020-05-31T16:46:56Z</time>
      </trkpt>
      <trkpt lat="46.1849" lon="-0.9953">
        <ele>36.6</ele>
        <time>2020-05-31T16:46:57Z</time>
      </trkpt>
      <trkpt lat="46.18488" lon="-0.99538">
        <ele>36.6</ele>
        <time>2020-05-31T16:46:58Z</time>
      </trkpt>
      <trkpt lat="46.18487" lon="-0.99546">
        <ele>36.6</ele>
        <time>2020-05-31T16:46:59Z</time>
      </trkpt>
      <trkpt lat="46.18486" lon="-0.99553">
        <ele>36.6</ele>
        <time>2020-05-31T16:47:00Z</time>
      </trkpt>
      <trkpt lat="46.18483" lon="-0.9956">
        <ele>36.6</ele>
        <time>2020-05-31T16:47:01Z</time>
      </trkpt>
      <trkpt lat="46.18481" lon="-0.9957">
        <ele>36.6</ele>
        <time>2020-05-31T16:47:02Z</time>
      </trkpt>
      <trkpt lat="46.1848" lon="-0.99578">
        <ele>36.6</ele>
        <time>2020-05-31T16:47:03Z</time>
      </trkpt>
      <trkpt lat="46.18477" lon="-0.99585">
        <ele>36.6</ele>
        <time>2020-05-31T16:47:04Z</time>
      </trkpt>
      <trkpt lat="46.18474" lon="-0.99592">
        <ele>36.6</ele>
        <time>2020-05-31T16:47:05Z</time>
      </trkpt>
      <trkpt lat="46.18472" lon="-0.99598">
        <ele>36.6</ele>
        <time>2020-05-31T16:47:06Z</time>
      </trkpt>
      <trkpt lat="46.1847" lon="-0.99606">
        <ele>36.7</ele>
        <time>2020-05-31T16:47:07Z</time>
      </trkpt>
      <trkpt lat="46.18468" lon="-0.99614">
        <ele>36.7</ele>
        <time>2020-05-31T16:47:08Z</time>
      </trkpt>
      <trkpt lat="46.18465" lon="-0.99621">
        <ele>36.7</ele>
        <time>2020-05-31T16:47:09Z</time>
      </trkpt>
      <trkpt lat="46.18463" lon="-0.99628">
        <ele>36.8</ele>
        <time>2020-05-31T16:47:10Z</time>
      </trkpt>
      <trkpt lat="46.1846" lon="-0.99636">
        <ele>36.8</ele>
        <time>2020-05-31T16:47:11Z</time>
      </trkpt>
      <trkpt lat="46.18458" lon="-0.99642">
        <ele>36.9</ele>
        <time>2020-05-31T16:47:12Z</time>
      </trkpt>
      <trkpt lat="46.18455" lon="-0.99647">
        <ele>36.9</ele>
        <time>2020-05-31T16:47:13Z</time>
      </trkpt>
      <trkpt lat="46.18452" lon="-0.99653">
        <ele>37</ele>
        <time>2020-05-31T16:47:14Z</time>
      </trkpt>
      <trkpt lat="46.18449" lon="-0.9966">
        <ele>37</ele>
        <time>2020-05-31T16:47:15Z</time>
      </trkpt>
      <trkpt lat="46.18447" lon="-0.99668">
        <ele>37.1</ele>
        <time>2020-05-31T16:47:16Z</time>
      </trkpt>
      <trkpt lat="46.18445" lon="-0.99675">
        <ele>37.2</ele>
        <time>2020-05-31T16:47:17Z</time>
      </trkpt>
      <trkpt lat="46.18442" lon="-0.99683">
        <ele>37.2</ele>
        <time>2020-05-31T16:47:18Z</time>
      </trkpt>
      <trkpt lat="46.18439" lon="-0.99688">
        <ele>37.3</ele>
        <time>2020-05-31T16:47:19Z</time>
      </trkpt>
      <trkpt lat="46.18437" lon="-0.99696">
        <ele>37.4</ele>
        <time>2020-05-31T16:47:20Z</time>
      </trkpt>
      <trkpt lat="46.18434" lon="-0.99702">
        <ele>37.4</ele>
        <time>2020-05-31T16:47:21Z</time>
      </trkpt>
      <trkpt lat="46.18432" lon="-0.9971">
        <ele>37.5</ele>
        <time>2020-05-31T16:47:22Z</time>
      </trkpt>
      <trkpt lat="46.18431" lon="-0.99716">
        <ele>37.5</ele>
        <time>2020-05-31T16:47:23Z</time>
      </trkpt>
      <trkpt lat="46.18429" lon="-0.99724">
        <ele>37.5</ele>
        <time>2020-05-31T16:47:24Z</time>
      </trkpt>
      <trkpt lat="46.18428" lon="-0.9973">
        <ele>37.6</ele>
        <time>2020-05-31T16:47:25Z</time>
      </trkpt>
      <trkpt lat="46.18427" lon="-0.99735">
        <ele>37.6</ele>
        <time>2020-05-31T16:47:26Z</time>
      </trkpt>
      <trkpt lat="46.18426" lon="-0.9974">
        <ele>37.6</ele>
        <time>2020-05-31T16:47:27Z</time>
      </trkpt>
      <trkpt lat="46.18425" lon="-0.99745">
        <ele>37.6</ele>
        <time>2020-05-31T16:47:28Z</time>
      </trkpt>
      <trkpt lat="46.18424" lon="-0.99749">
        <ele>37.7</ele>
        <time>2020-05-31T16:47:29Z</time>
      </trkpt>
      <trkpt lat="46.18423" lon="-0.99754">
        <ele>37.7</ele>
        <time>2020-05-31T16:47:30Z</time>
      </trkpt>
      <trkpt lat="46.18422" lon="-0.99761">
        <ele>37.8</ele>
        <time>2020-05-31T16:47:31Z</time>
      </trkpt>
      <trkpt lat="46.18421" lon="-0.99767">
        <ele>37.9</ele>
        <time>2020-05-31T16:47:32Z</time>
      </trkpt>
      <trkpt lat="46.1842" lon="-0.99772">
        <ele>38</ele>
        <time>2020-05-31T16:47:33Z</time>
      </trkpt>
      <trkpt lat="46.1842" lon="-0.99777">
        <ele>38</ele>
        <time>2020-05-31T16:47:34Z</time>
      </trkpt>
      <trkpt lat="46.18419" lon="-0.99781">
        <ele>38.1</ele>
        <time>2020-05-31T16:47:35Z</time>
      </trkpt>
      <trkpt lat="46.18419" lon="-0.99787">
        <ele>38.2</ele>
        <time>2020-05-31T16:47:36Z</time>
      </trkpt>
      <trkpt lat="46.18417" lon="-0.99793">
        <ele>38.3</ele>
        <time>2020-05-31T16:47:37Z</time>
      </trkpt>
      <trkpt lat="46.18416" lon="-0.998">
        <ele>38.3</ele>
        <time>2020-05-31T16:47:38Z</time>
      </trkpt>
      <trkpt lat="46.18416" lon="-0.99806">
        <ele>38.4</ele>
        <time>2020-05-31T16:47:39Z</time>
      </trkpt>
      <trkpt lat="46.18415" lon="-0.99811">
        <ele>38.4</ele>
        <time>2020-05-31T16:47:40Z</time>
      </trkpt>
      <trkpt lat="46.18413" lon="-0.99816">
        <ele>38.5</ele>
        <time>2020-05-31T16:47:41Z</time>
      </trkpt>
      <trkpt lat="46.18411" lon="-0.99821">
        <ele>38.5</ele>
        <time>2020-05-31T16:47:42Z</time>
      </trkpt>
      <trkpt lat="46.18411" lon="-0.99827">
        <ele>38.5</ele>
        <time>2020-05-31T16:47:43Z</time>
      </trkpt>
      <trkpt lat="46.1841" lon="-0.99833">
        <ele>38.5</ele>
        <time>2020-05-31T16:47:44Z</time>
      </trkpt>
      <trkpt lat="46.1841" lon="-0.99839">
        <ele>38.5</ele>
        <time>2020-05-31T16:47:45Z</time>
      </trkpt>
      <trkpt lat="46.18409" lon="-0.99844">
        <ele>38.6</ele>
        <time>2020-05-31T16:47:46Z</time>
      </trkpt>
      <trkpt lat="46.18408" lon="-0.99849">
        <ele>38.6</ele>
        <time>2020-05-31T16:47:47Z</time>
      </trkpt>
      <trkpt lat="46.18408" lon="-0.99854">
        <ele>38.6</ele>
        <time>2020-05-31T16:47:48Z</time>
      </trkpt>
      <trkpt lat="46.18407" lon="-0.99861">
        <ele>38.7</ele>
        <time>2020-05-31T16:47:49Z</time>
      </trkpt>
      <trkpt lat="46.18406" lon="-0.99866">
        <ele>38.8</ele>
        <time>2020-05-31T16:47:50Z</time>
      </trkpt>
      <trkpt lat="46.18406" lon="-0.99872">
        <ele>38.8</ele>
        <time>2020-05-31T16:47:51Z</time>
      </trkpt>
      <trkpt lat="46.18405" lon="-0.99877">
        <ele>38.9</ele>
        <time>2020-05-31T16:47:52Z</time>
      </trkpt>
      <trkpt lat="46.18404" lon="-0.99883">
        <ele>39</ele>
        <time>2020-05-31T16:47:53Z</time>
      </trkpt>
      <trkpt lat="46.18403" lon="-0.99888">
        <ele>39</ele>
        <time>2020-05-31T16:47:54Z</time>
      </trkpt>
      <trkpt lat="46.18402" lon="-0.99892">
        <ele>39.1</ele>
        <time>2020-05-31T16:47:55Z</time>
      </trkpt>
      <trkpt lat="46.18402" lon="-0.99896">
        <ele>39.1</ele>
        <time>2020-05-31T16:47:56Z</time>
      </trkpt>
      <trkpt lat="46.18401" lon="-0.99901">
        <ele>39.2</ele>
        <time>2020-05-31T16:47:57Z</time>
      </trkpt>
      <trkpt lat="46.18401" lon="-0.99907">
        <ele>39.2</ele>
        <time>2020-05-31T16:47:58Z</time>
      </trkpt>
      <trkpt lat="46.18401" lon="-0.9991">
        <ele>39.3</ele>
        <time>2020-05-31T16:47:59Z</time>
      </trkpt>
      <trkpt lat="46.18402" lon="-0.99916">
        <ele>39.3</ele>
        <time>2020-05-31T16:48:00Z</time>
      </trkpt>
      <trkpt lat="46.18401" lon="-0.99922">
        <ele>39.4</ele>
        <time>2020-05-31T16:48:01Z</time>
      </trkpt>
      <trkpt lat="46.184" lon="-0.99929">
        <ele>39.4</ele>
        <time>2020-05-31T16:48:02Z</time>
      </trkpt>
      <trkpt lat="46.18398" lon="-0.99935">
        <ele>39.4</ele>
        <time>2020-05-31T16:48:03Z</time>
      </trkpt>
      <trkpt lat="46.18397" lon="-0.99941">
        <ele>39.4</ele>
        <time>2020-05-31T16:48:04Z</time>
      </trkpt>
      <trkpt lat="46.18397" lon="-0.99948">
        <ele>39.5</ele>
        <time>2020-05-31T16:48:05Z</time>
      </trkpt>
      <trkpt lat="46.18396" lon="-0.99954">
        <ele>39.5</ele>
        <time>2020-05-31T16:48:06Z</time>
      </trkpt>
      <trkpt lat="46.18396" lon="-0.99961">
        <ele>39.5</ele>
        <time>2020-05-31T16:48:07Z</time>
      </trkpt>
      <trkpt lat="46.18396" lon="-0.99966">
        <ele>39.5</ele>
        <time>2020-05-31T16:48:08Z</time>
      </trkpt>
      <trkpt lat="46.18395" lon="-0.99973">
        <ele>39.5</ele>
        <time>2020-05-31T16:48:09Z</time>
      </trkpt>
      <trkpt lat="46.18394" lon="-0.99979">
        <ele>39.5</ele>
        <time>2020-05-31T16:48:10Z</time>
      </trkpt>
      <trkpt lat="46.18394" lon="-0.99984">
        <ele>39.5</ele>
        <time>2020-05-31T16:48:11Z</time>
      </trkpt>
      <trkpt lat="46.18394" lon="-0.99991">
        <ele>39.5</ele>
        <time>2020-05-31T16:48:12Z</time>
      </trkpt>
      <trkpt lat="46.18394" lon="-0.99998">
        <ele>39.5</ele>
        <time>2020-05-31T16:48:13Z</time>
      </trkpt>
      <trkpt lat="46.18394" lon="-1.00004">
        <ele>39.4</ele>
        <time>2020-05-31T16:48:14Z</time>
      </trkpt>
      <trkpt lat="46.18394" lon="-1.00011">
        <ele>39.4</ele>
        <time>2020-05-31T16:48:15Z</time>
      </trkpt>
      <trkpt lat="46.18394" lon="-1.00016">
        <ele>39.4</ele>
        <time>2020-05-31T16:48:16Z</time>
      </trkpt>
      <trkpt lat="46.18393" lon="-1.00022">
        <ele>39.4</ele>
        <time>2020-05-31T16:48:17Z</time>
      </trkpt>
      <trkpt lat="46.18392" lon="-1.00028">
        <ele>39.4</ele>
        <time>2020-05-31T16:48:18Z</time>
      </trkpt>
      <trkpt lat="46.18391" lon="-1.00033">
        <ele>39.4</ele>
        <time>2020-05-31T16:48:19Z</time>
      </trkpt>
      <trkpt lat="46.18391" lon="-1.00039">
        <ele>39.4</ele>
        <time>2020-05-31T16:48:20Z</time>
      </trkpt>
      <trkpt lat="46.1839" lon="-1.00045">
        <ele>39.4</ele>
        <time>2020-05-31T16:48:21Z</time>
      </trkpt>
      <trkpt lat="46.1839" lon="-1.0005">
        <ele>39.4</ele>
        <time>2020-05-31T16:48:22Z</time>
      </trkpt>
      <trkpt lat="46.18389" lon="-1.00054">
        <ele>39.3</ele>
        <time>2020-05-31T16:48:23Z</time>
      </trkpt>
      <trkpt lat="46.18388" lon="-1.00061">
        <ele>39.3</ele>
        <time>2020-05-31T16:48:24Z</time>
      </trkpt>
      <trkpt lat="46.18388" lon="-1.00067">
        <ele>39.3</ele>
        <time>2020-05-31T16:48:25Z</time>
      </trkpt>
      <trkpt lat="46.18388" lon="-1.00075">
        <ele>39.3</ele>
        <time>2020-05-31T16:48:26Z</time>
      </trkpt>
      <trkpt lat="46.18388" lon="-1.00079">
        <ele>39.2</ele>
        <time>2020-05-31T16:48:27Z</time>
      </trkpt>
      <trkpt lat="46.18388" lon="-1.00085">
        <ele>39.2</ele>
        <time>2020-05-31T16:48:28Z</time>
      </trkpt>
      <trkpt lat="46.18387" lon="-1.00089">
        <ele>39.2</ele>
        <time>2020-05-31T16:48:29Z</time>
      </trkpt>
      <trkpt lat="46.18386" lon="-1.00095">
        <ele>39.2</ele>
        <time>2020-05-31T16:48:30Z</time>
      </trkpt>
      <trkpt lat="46.18386" lon="-1.00099">
        <ele>39.2</ele>
        <time>2020-05-31T16:48:31Z</time>
      </trkpt>
      <trkpt lat="46.18387" lon="-1.00107">
        <ele>39.1</ele>
        <time>2020-05-31T16:48:32Z</time>
      </trkpt>
      <trkpt lat="46.18386" lon="-1.00111">
        <ele>39.1</ele>
        <time>2020-05-31T16:48:33Z</time>
      </trkpt>
      <trkpt lat="46.18386" lon="-1.00119">
        <ele>39.1</ele>
        <time>2020-05-31T16:48:34Z</time>
      </trkpt>
      <trkpt lat="46.18385" lon="-1.00124">
        <ele>39.1</ele>
        <time>2020-05-31T16:48:35Z</time>
      </trkpt>
      <trkpt lat="46.18385" lon="-1.00131">
        <ele>39.1</ele>
        <time>2020-05-31T16:48:36Z</time>
      </trkpt>
      <trkpt lat="46.18384" lon="-1.00138">
        <ele>39.1</ele>
        <time>2020-05-31T16:48:37Z</time>
      </trkpt>
      <trkpt lat="46.18382" lon="-1.00145">
        <ele>39</ele>
        <time>2020-05-31T16:48:38Z</time>
      </trkpt>
      <trkpt lat="46.18382" lon="-1.00152">
        <ele>39</ele>
        <time>2020-05-31T16:48:39Z</time>
      </trkpt>
      <trkpt lat="46.18382" lon="-1.00159">
        <ele>39</ele>
        <time>2020-05-31T16:48:40Z</time>
      </trkpt>
      <trkpt lat="46.18382" lon="-1.00165">
        <ele>39</ele>
        <time>2020-05-31T16:48:41Z</time>
      </trkpt>
      <trkpt lat="46.18382" lon="-1.0017">
        <ele>39</ele>
        <time>2020-05-31T16:48:42Z</time>
      </trkpt>
      <trkpt lat="46.18382" lon="-1.00176">
        <ele>38.9</ele>
        <time>2020-05-31T16:48:43Z</time>
      </trkpt>
      <trkpt lat="46.18382" lon="-1.00182">
        <ele>38.9</ele>
        <time>2020-05-31T16:48:44Z</time>
      </trkpt>
      <trkpt lat="46.18381" lon="-1.0019">
        <ele>38.9</ele>
        <time>2020-05-31T16:48:45Z</time>
      </trkpt>
      <trkpt lat="46.18381" lon="-1.00196">
        <ele>38.9</ele>
        <time>2020-05-31T16:48:46Z</time>
      </trkpt>
      <trkpt lat="46.18381" lon="-1.00203">
        <ele>38.9</ele>
        <time>2020-05-31T16:48:47Z</time>
      </trkpt>
      <trkpt lat="46.18381" lon="-1.00209">
        <ele>38.8</ele>
        <time>2020-05-31T16:48:48Z</time>
      </trkpt>
      <trkpt lat="46.18381" lon="-1.00215">
        <ele>38.8</ele>
        <time>2020-05-31T16:48:49Z</time>
      </trkpt>
      <trkpt lat="46.18381" lon="-1.00221">
        <ele>38.8</ele>
        <time>2020-05-31T16:48:50Z</time>
      </trkpt>
      <trkpt lat="46.18381" lon="-1.00226">
        <ele>38.8</ele>
        <time>2020-05-31T16:48:51Z</time>
      </trkpt>
      <trkpt lat="46.18381" lon="-1.00233">
        <ele>38.8</ele>
        <time>2020-05-31T16:48:52Z</time>
      </trkpt>
      <trkpt lat="46.1838" lon="-1.00239">
        <ele>38.7</ele>
        <time>2020-05-31T16:48:53Z</time>
      </trkpt>
      <trkpt lat="46.18379" lon="-1.00245">
        <ele>38.7</ele>
        <time>2020-05-31T16:48:54Z</time>
      </trkpt>
      <trkpt lat="46.1838" lon="-1.00253">
        <ele>38.6</ele>
        <time>2020-05-31T16:48:55Z</time>
      </trkpt>
      <trkpt lat="46.1838" lon="-1.00262">
        <ele>38.5</ele>
        <time>2020-05-31T16:48:56Z</time>
      </trkpt>
      <trkpt lat="46.1838" lon="-1.00269">
        <ele>38.5</ele>
        <time>2020-05-31T16:48:57Z</time>
      </trkpt>
      <trkpt lat="46.18381" lon="-1.00276">
        <ele>38.4</ele>
        <time>2020-05-31T16:48:58Z</time>
      </trkpt>
      <trkpt lat="46.18382" lon="-1.00283">
        <ele>38.3</ele>
        <time>2020-05-31T16:48:59Z</time>
      </trkpt>
      <trkpt lat="46.18383" lon="-1.00289">
        <ele>38.3</ele>
        <time>2020-05-31T16:49:00Z</time>
      </trkpt>
      <trkpt lat="46.18385" lon="-1.00297">
        <ele>38.2</ele>
        <time>2020-05-31T16:49:01Z</time>
      </trkpt>
      <trkpt lat="46.18384" lon="-1.00302">
        <ele>38.2</ele>
        <time>2020-05-31T16:49:02Z</time>
      </trkpt>
      <trkpt lat="46.18385" lon="-1.00309">
        <ele>38.1</ele>
        <time>2020-05-31T16:49:03Z</time>
      </trkpt>
      <trkpt lat="46.18386" lon="-1.00315">
        <ele>38.1</ele>
        <time>2020-05-31T16:49:04Z</time>
      </trkpt>
      <trkpt lat="46.18388" lon="-1.00322">
        <ele>38.1</ele>
        <time>2020-05-31T16:49:05Z</time>
      </trkpt>
      <trkpt lat="46.18389" lon="-1.00328">
        <ele>38.1</ele>
        <time>2020-05-31T16:49:06Z</time>
      </trkpt>
      <trkpt lat="46.18391" lon="-1.00333">
        <ele>38.1</ele>
        <time>2020-05-31T16:49:07Z</time>
      </trkpt>
      <trkpt lat="46.18392" lon="-1.00339">
        <ele>38.1</ele>
        <time>2020-05-31T16:49:08Z</time>
      </trkpt>
      <trkpt lat="46.18394" lon="-1.00345">
        <ele>38.1</ele>
        <time>2020-05-31T16:49:09Z</time>
      </trkpt>
      <trkpt lat="46.18395" lon="-1.00353">
        <ele>38.1</ele>
        <time>2020-05-31T16:49:10Z</time>
      </trkpt>
      <trkpt lat="46.18396" lon="-1.00359">
        <ele>38</ele>
        <time>2020-05-31T16:49:11Z</time>
      </trkpt>
      <trkpt lat="46.18396" lon="-1.00364">
        <ele>38</ele>
        <time>2020-05-31T16:49:12Z</time>
      </trkpt>
      <trkpt lat="46.18397" lon="-1.00373">
        <ele>37.9</ele>
        <time>2020-05-31T16:49:13Z</time>
      </trkpt>
      <trkpt lat="46.18398" lon="-1.00379">
        <ele>37.8</ele>
        <time>2020-05-31T16:49:14Z</time>
      </trkpt>
      <trkpt lat="46.184" lon="-1.00384">
        <ele>37.7</ele>
        <time>2020-05-31T16:49:15Z</time>
      </trkpt>
      <trkpt lat="46.18402" lon="-1.00391">
        <ele>37.6</ele>
        <time>2020-05-31T16:49:16Z</time>
      </trkpt>
      <trkpt lat="46.18404" lon="-1.00397">
        <ele>37.4</ele>
        <time>2020-05-31T16:49:17Z</time>
      </trkpt>
      <trkpt lat="46.18405" lon="-1.00403">
        <ele>37.4</ele>
        <time>2020-05-31T16:49:18Z</time>
      </trkpt>
      <trkpt lat="46.18406" lon="-1.00409">
        <ele>37.3</ele>
        <time>2020-05-31T16:49:19Z</time>
      </trkpt>
      <trkpt lat="46.18408" lon="-1.00416">
        <ele>37.2</ele>
        <time>2020-05-31T16:49:20Z</time>
      </trkpt>
      <trkpt lat="46.18409" lon="-1.00423">
        <ele>37.2</ele>
        <time>2020-05-31T16:49:21Z</time>
      </trkpt>
      <trkpt lat="46.18409" lon="-1.00431">
        <ele>37.1</ele>
        <time>2020-05-31T16:49:22Z</time>
      </trkpt>
      <trkpt lat="46.1841" lon="-1.00438">
        <ele>37</ele>
        <time>2020-05-31T16:49:23Z</time>
      </trkpt>
      <trkpt lat="46.1841" lon="-1.00446">
        <ele>36.9</ele>
        <time>2020-05-31T16:49:24Z</time>
      </trkpt>
      <trkpt lat="46.1841" lon="-1.00452">
        <ele>36.8</ele>
        <time>2020-05-31T16:49:25Z</time>
      </trkpt>
      <trkpt lat="46.18411" lon="-1.00459">
        <ele>36.7</ele>
        <time>2020-05-31T16:49:26Z</time>
      </trkpt>
      <trkpt lat="46.18413" lon="-1.00465">
        <ele>36.6</ele>
        <time>2020-05-31T16:49:27Z</time>
      </trkpt>
      <trkpt lat="46.18414" lon="-1.00472">
        <ele>36.6</ele>
        <time>2020-05-31T16:49:28Z</time>
      </trkpt>
      <trkpt lat="46.18416" lon="-1.00477">
        <ele>36.5</ele>
        <time>2020-05-31T16:49:29Z</time>
      </trkpt>
      <trkpt lat="46.18417" lon="-1.00484">
        <ele>36.4</ele>
        <time>2020-05-31T16:49:30Z</time>
      </trkpt>
      <trkpt lat="46.18418" lon="-1.00491">
        <ele>36.3</ele>
        <time>2020-05-31T16:49:31Z</time>
      </trkpt>
      <trkpt lat="46.1842" lon="-1.00499">
        <ele>36.2</ele>
        <time>2020-05-31T16:49:32Z</time>
      </trkpt>
      <trkpt lat="46.18422" lon="-1.00506">
        <ele>36.1</ele>
        <time>2020-05-31T16:49:33Z</time>
      </trkpt>
      <trkpt lat="46.18425" lon="-1.00514">
        <ele>36</ele>
        <time>2020-05-31T16:49:34Z</time>
      </trkpt>
      <trkpt lat="46.18427" lon="-1.00524">
        <ele>35.9</ele>
        <time>2020-05-31T16:49:35Z</time>
      </trkpt>
      <trkpt lat="46.18429" lon="-1.00533">
        <ele>35.8</ele>
        <time>2020-05-31T16:49:36Z</time>
      </trkpt>
      <trkpt lat="46.18431" lon="-1.00543">
        <ele>35.7</ele>
        <time>2020-05-31T16:49:37Z</time>
      </trkpt>
      <trkpt lat="46.18431" lon="-1.00552">
        <ele>35.6</ele>
        <time>2020-05-31T16:49:38Z</time>
      </trkpt>
      <trkpt lat="46.18433" lon="-1.00561">
        <ele>35.4</ele>
        <time>2020-05-31T16:49:39Z</time>
      </trkpt>
      <trkpt lat="46.18436" lon="-1.00568">
        <ele>35.3</ele>
        <time>2020-05-31T16:49:40Z</time>
      </trkpt>
      <trkpt lat="46.18438" lon="-1.00576">
        <ele>35.1</ele>
        <time>2020-05-31T16:49:41Z</time>
      </trkpt>
      <trkpt lat="46.1844" lon="-1.00589">
        <ele>34.9</ele>
        <time>2020-05-31T16:49:42Z</time>
      </trkpt>
      <trkpt lat="46.18443" lon="-1.006">
        <ele>34.8</ele>
        <time>2020-05-31T16:49:43Z</time>
      </trkpt>
      <trkpt lat="46.18444" lon="-1.0061">
        <ele>34.7</ele>
        <time>2020-05-31T16:49:44Z</time>
      </trkpt>
      <trkpt lat="46.18447" lon="-1.0062">
        <ele>34.6</ele>
        <time>2020-05-31T16:49:45Z</time>
      </trkpt>
      <trkpt lat="46.1845" lon="-1.0063">
        <ele>34.5</ele>
        <time>2020-05-31T16:49:46Z</time>
      </trkpt>
      <trkpt lat="46.18452" lon="-1.00639">
        <ele>34.4</ele>
        <time>2020-05-31T16:49:47Z</time>
      </trkpt>
      <trkpt lat="46.18454" lon="-1.00649">
        <ele>34.4</ele>
        <time>2020-05-31T16:49:48Z</time>
      </trkpt>
      <trkpt lat="46.18456" lon="-1.00658">
        <ele>34.3</ele>
        <time>2020-05-31T16:49:49Z</time>
      </trkpt>
      <trkpt lat="46.18459" lon="-1.00667">
        <ele>34.2</ele>
        <time>2020-05-31T16:49:50Z</time>
      </trkpt>
      <trkpt lat="46.18461" lon="-1.00675">
        <ele>34.2</ele>
        <time>2020-05-31T16:49:51Z</time>
      </trkpt>
      <trkpt lat="46.18463" lon="-1.00683">
        <ele>34.1</ele>
        <time>2020-05-31T16:49:52Z</time>
      </trkpt>
      <trkpt lat="46.18467" lon="-1.00691">
        <ele>34</ele>
        <time>2020-05-31T16:49:53Z</time>
      </trkpt>
      <trkpt lat="46.1847" lon="-1.00699">
        <ele>34</ele>
        <time>2020-05-31T16:49:54Z</time>
      </trkpt>
      <trkpt lat="46.18473" lon="-1.00707">
        <ele>33.9</ele>
        <time>2020-05-31T16:49:55Z</time>
      </trkpt>
      <trkpt lat="46.18475" lon="-1.00714">
        <ele>33.9</ele>
        <time>2020-05-31T16:49:56Z</time>
      </trkpt>
      <trkpt lat="46.18478" lon="-1.00722">
        <ele>33.9</ele>
        <time>2020-05-31T16:49:57Z</time>
      </trkpt>
      <trkpt lat="46.1848" lon="-1.00729">
        <ele>33.8</ele>
        <time>2020-05-31T16:49:58Z</time>
      </trkpt>
      <trkpt lat="46.18482" lon="-1.00737">
        <ele>33.8</ele>
        <time>2020-05-31T16:49:59Z</time>
      </trkpt>
      <trkpt lat="46.18485" lon="-1.00744">
        <ele>33.8</ele>
        <time>2020-05-31T16:50:00Z</time>
      </trkpt>
      <trkpt lat="46.18487" lon="-1.00751">
        <ele>33.8</ele>
        <time>2020-05-31T16:50:01Z</time>
      </trkpt>
      <trkpt lat="46.18489" lon="-1.00758">
        <ele>33.8</ele>
        <time>2020-05-31T16:50:02Z</time>
      </trkpt>
      <trkpt lat="46.18492" lon="-1.00764">
        <ele>33.8</ele>
        <time>2020-05-31T16:50:03Z</time>
      </trkpt>
      <trkpt lat="46.18494" lon="-1.00771">
        <ele>33.8</ele>
        <time>2020-05-31T16:50:04Z</time>
      </trkpt>
      <trkpt lat="46.18496" lon="-1.00777">
        <ele>33.9</ele>
        <time>2020-05-31T16:50:05Z</time>
      </trkpt>
      <trkpt lat="46.18499" lon="-1.00783">
        <ele>33.9</ele>
        <time>2020-05-31T16:50:06Z</time>
      </trkpt>
      <trkpt lat="46.18501" lon="-1.00789">
        <ele>33.9</ele>
        <time>2020-05-31T16:50:07Z</time>
      </trkpt>
      <trkpt lat="46.18503" lon="-1.00794">
        <ele>34</ele>
        <time>2020-05-31T16:50:08Z</time>
      </trkpt>
      <trkpt lat="46.18504" lon="-1.008">
        <ele>34</ele>
        <time>2020-05-31T16:50:09Z</time>
      </trkpt>
      <trkpt lat="46.18506" lon="-1.00805">
        <ele>34.1</ele>
        <time>2020-05-31T16:50:10Z</time>
      </trkpt>
      <trkpt lat="46.18508" lon="-1.00811">
        <ele>34.1</ele>
        <time>2020-05-31T16:50:11Z</time>
      </trkpt>
      <trkpt lat="46.18509" lon="-1.00816">
        <ele>34.2</ele>
        <time>2020-05-31T16:50:12Z</time>
      </trkpt>
      <trkpt lat="46.18512" lon="-1.00821">
        <ele>34.2</ele>
        <time>2020-05-31T16:50:13Z</time>
      </trkpt>
      <trkpt lat="46.18515" lon="-1.00826">
        <ele>34.3</ele>
        <time>2020-05-31T16:50:14Z</time>
      </trkpt>
      <trkpt lat="46.18518" lon="-1.0083">
        <ele>34.3</ele>
        <time>2020-05-31T16:50:15Z</time>
      </trkpt>
      <trkpt lat="46.1852" lon="-1.00834">
        <ele>34.3</ele>
        <time>2020-05-31T16:50:16Z</time>
      </trkpt>
      <trkpt lat="46.18522" lon="-1.00839">
        <ele>34.3</ele>
        <time>2020-05-31T16:50:17Z</time>
      </trkpt>
      <trkpt lat="46.18523" lon="-1.00843">
        <ele>34.2</ele>
        <time>2020-05-31T16:50:18Z</time>
      </trkpt>
      <trkpt lat="46.18525" lon="-1.00848">
        <ele>34.1</ele>
        <time>2020-05-31T16:50:19Z</time>
      </trkpt>
      <trkpt lat="46.18526" lon="-1.00852">
        <ele>34</ele>
        <time>2020-05-31T16:50:20Z</time>
      </trkpt>
      <trkpt lat="46.18528" lon="-1.00857">
        <ele>34</ele>
        <time>2020-05-31T16:50:21Z</time>
      </trkpt>
      <trkpt lat="46.1853" lon="-1.0086">
        <ele>34</ele>
        <time>2020-05-31T16:50:22Z</time>
      </trkpt>
      <trkpt lat="46.18532" lon="-1.00864">
        <ele>34</ele>
        <time>2020-05-31T16:50:23Z</time>
      </trkpt>
      <trkpt lat="46.18534" lon="-1.00868">
        <ele>34</ele>
        <time>2020-05-31T16:50:24Z</time>
      </trkpt>
      <trkpt lat="46.18537" lon="-1.00872">
        <ele>34</ele>
        <time>2020-05-31T16:50:25Z</time>
      </trkpt>
      <trkpt lat="46.1854" lon="-1.00876">
        <ele>34</ele>
        <time>2020-05-31T16:50:26Z</time>
      </trkpt>
      <trkpt lat="46.18543" lon="-1.00881">
        <ele>34</ele>
        <time>2020-05-31T16:50:27Z</time>
      </trkpt>
      <trkpt lat="46.18545" lon="-1.00884">
        <ele>34</ele>
        <time>2020-05-31T16:50:28Z</time>
      </trkpt>
      <trkpt lat="46.18548" lon="-1.00889">
        <ele>34</ele>
        <time>2020-05-31T16:50:29Z</time>
      </trkpt>
      <trkpt lat="46.1855" lon="-1.00895">
        <ele>34</ele>
        <time>2020-05-31T16:50:30Z</time>
      </trkpt>
      <trkpt lat="46.18551" lon="-1.009">
        <ele>34</ele>
        <time>2020-05-31T16:50:31Z</time>
      </trkpt>
      <trkpt lat="46.18552" lon="-1.00906">
        <ele>34</ele>
        <time>2020-05-31T16:50:32Z</time>
      </trkpt>
      <trkpt lat="46.18553" lon="-1.0091">
        <ele>34</ele>
        <time>2020-05-31T16:50:33Z</time>
      </trkpt>
      <trkpt lat="46.18556" lon="-1.00912">
        <ele>34</ele>
        <time>2020-05-31T16:50:34Z</time>
      </trkpt>
      <trkpt lat="46.18559" lon="-1.00915">
        <ele>34</ele>
        <time>2020-05-31T16:50:35Z</time>
      </trkpt>
      <trkpt lat="46.18561" lon="-1.00918">
        <ele>34</ele>
        <time>2020-05-31T16:50:36Z</time>
      </trkpt>
      <trkpt lat="46.18564" lon="-1.00921">
        <ele>34</ele>
        <time>2020-05-31T16:50:37Z</time>
      </trkpt>
      <trkpt lat="46.18566" lon="-1.00925">
        <ele>34</ele>
        <time>2020-05-31T16:50:38Z</time>
      </trkpt>
      <trkpt lat="46.18568" lon="-1.00928">
        <ele>34</ele>
        <time>2020-05-31T16:50:39Z</time>
      </trkpt>
      <trkpt lat="46.1857" lon="-1.00932">
        <ele>34</ele>
        <time>2020-05-31T16:50:40Z</time>
      </trkpt>
      <trkpt lat="46.18572" lon="-1.00937">
        <ele>34.1</ele>
        <time>2020-05-31T16:50:41Z</time>
      </trkpt>
      <trkpt lat="46.18574" lon="-1.00941">
        <ele>34.1</ele>
        <time>2020-05-31T16:50:42Z</time>
      </trkpt>
      <trkpt lat="46.18575" lon="-1.00946">
        <ele>34.1</ele>
        <time>2020-05-31T16:50:43Z</time>
      </trkpt>
      <trkpt lat="46.18576" lon="-1.0095">
        <ele>34.2</ele>
        <time>2020-05-31T16:50:44Z</time>
      </trkpt>
      <trkpt lat="46.18577" lon="-1.00953">
        <ele>34.2</ele>
        <time>2020-05-31T16:50:45Z</time>
      </trkpt>
      <trkpt lat="46.18579" lon="-1.00958">
        <ele>34.2</ele>
        <time>2020-05-31T16:50:46Z</time>
      </trkpt>
      <trkpt lat="46.1858" lon="-1.0096">
        <ele>34.2</ele>
        <time>2020-05-31T16:50:47Z</time>
      </trkpt>
      <trkpt lat="46.18582" lon="-1.00963">
        <ele>34.3</ele>
        <time>2020-05-31T16:50:48Z</time>
      </trkpt>
      <trkpt lat="46.18585" lon="-1.00967">
        <ele>34.3</ele>
        <time>2020-05-31T16:50:49Z</time>
      </trkpt>
      <trkpt lat="46.18588" lon="-1.0097">
        <ele>34.3</ele>
        <time>2020-05-31T16:50:50Z</time>
      </trkpt>
      <trkpt lat="46.18592" lon="-1.00972">
        <ele>34.3</ele>
        <time>2020-05-31T16:50:51Z</time>
      </trkpt>
      <trkpt lat="46.18596" lon="-1.00976">
        <ele>34.4</ele>
        <time>2020-05-31T16:50:52Z</time>
      </trkpt>
      <trkpt lat="46.18599" lon="-1.00981">
        <ele>34.4</ele>
        <time>2020-05-31T16:50:53Z</time>
      </trkpt>
      <trkpt lat="46.18601" lon="-1.00985">
        <ele>34.4</ele>
        <time>2020-05-31T16:50:54Z</time>
      </trkpt>
      <trkpt lat="46.18604" lon="-1.00988">
        <ele>34.4</ele>
        <time>2020-05-31T16:50:55Z</time>
      </trkpt>
      <trkpt lat="46.18608" lon="-1.00991">
        <ele>34.5</ele>
        <time>2020-05-31T16:50:56Z</time>
      </trkpt>
      <trkpt lat="46.18611" lon="-1.00995">
        <ele>34.5</ele>
        <time>2020-05-31T16:50:57Z</time>
      </trkpt>
      <trkpt lat="46.18612" lon="-1.01001">
        <ele>34.5</ele>
        <time>2020-05-31T16:50:58Z</time>
      </trkpt>
      <trkpt lat="46.18615" lon="-1.01005">
        <ele>34.6</ele>
        <time>2020-05-31T16:50:59Z</time>
      </trkpt>
      <trkpt lat="46.18619" lon="-1.0101">
        <ele>34.6</ele>
        <time>2020-05-31T16:51:00Z</time>
      </trkpt>
      <trkpt lat="46.18622" lon="-1.01015">
        <ele>34.6</ele>
        <time>2020-05-31T16:51:01Z</time>
      </trkpt>
      <trkpt lat="46.18624" lon="-1.0102">
        <ele>34.7</ele>
        <time>2020-05-31T16:51:02Z</time>
      </trkpt>
      <trkpt lat="46.18627" lon="-1.01024">
        <ele>34.7</ele>
        <time>2020-05-31T16:51:03Z</time>
      </trkpt>
      <trkpt lat="46.1863" lon="-1.01029">
        <ele>34.7</ele>
        <time>2020-05-31T16:51:04Z</time>
      </trkpt>
      <trkpt lat="46.18632" lon="-1.01035">
        <ele>34.8</ele>
        <time>2020-05-31T16:51:05Z</time>
      </trkpt>
      <trkpt lat="46.18635" lon="-1.0104">
        <ele>34.7</ele>
        <time>2020-05-31T16:51:06Z</time>
      </trkpt>
      <trkpt lat="46.18638" lon="-1.01045">
        <ele>34.7</ele>
        <time>2020-05-31T16:51:07Z</time>
      </trkpt>
      <trkpt lat="46.18641" lon="-1.0105">
        <ele>34.7</ele>
        <time>2020-05-31T16:51:08Z</time>
      </trkpt>
      <trkpt lat="46.18645" lon="-1.01054">
        <ele>34.7</ele>
        <time>2020-05-31T16:51:09Z</time>
      </trkpt>
      <trkpt lat="46.18648" lon="-1.01059">
        <ele>34.7</ele>
        <time>2020-05-31T16:51:10Z</time>
      </trkpt>
      <trkpt lat="46.18652" lon="-1.01063">
        <ele>34.7</ele>
        <time>2020-05-31T16:51:11Z</time>
      </trkpt>
      <trkpt lat="46.18654" lon="-1.01068">
        <ele>34.7</ele>
        <time>2020-05-31T16:51:12Z</time>
      </trkpt>
      <trkpt lat="46.18657" lon="-1.01073">
        <ele>34.7</ele>
        <time>2020-05-31T16:51:13Z</time>
      </trkpt>
      <trkpt lat="46.18662" lon="-1.01077">
        <ele>34.6</ele>
        <time>2020-05-31T16:51:14Z</time>
      </trkpt>
      <trkpt lat="46.18666" lon="-1.01081">
        <ele>34.6</ele>
        <time>2020-05-31T16:51:15Z</time>
      </trkpt>
      <trkpt lat="46.18669" lon="-1.01087">
        <ele>34.6</ele>
        <time>2020-05-31T16:51:16Z</time>
      </trkpt>
      <trkpt lat="46.18672" lon="-1.01092">
        <ele>34.5</ele>
        <time>2020-05-31T16:51:17Z</time>
      </trkpt>
      <trkpt lat="46.18675" lon="-1.01098">
        <ele>34.5</ele>
        <time>2020-05-31T16:51:18Z</time>
      </trkpt>
      <trkpt lat="46.18678" lon="-1.01104">
        <ele>34.5</ele>
        <time>2020-05-31T16:51:19Z</time>
      </trkpt>
      <trkpt lat="46.18682" lon="-1.01109">
        <ele>34.4</ele>
        <time>2020-05-31T16:51:20Z</time>
      </trkpt>
      <trkpt lat="46.18684" lon="-1.01115">
        <ele>34.4</ele>
        <time>2020-05-31T16:51:21Z</time>
      </trkpt>
      <trkpt lat="46.18687" lon="-1.01121">
        <ele>34.4</ele>
        <time>2020-05-31T16:51:22Z</time>
      </trkpt>
      <trkpt lat="46.1869" lon="-1.01127">
        <ele>34.4</ele>
        <time>2020-05-31T16:51:23Z</time>
      </trkpt>
      <trkpt lat="46.18692" lon="-1.01133">
        <ele>34.4</ele>
        <time>2020-05-31T16:51:24Z</time>
      </trkpt>
      <trkpt lat="46.18694" lon="-1.01139">
        <ele>34.3</ele>
        <time>2020-05-31T16:51:25Z</time>
      </trkpt>
      <trkpt lat="46.18697" lon="-1.01145">
        <ele>34.3</ele>
        <time>2020-05-31T16:51:26Z</time>
      </trkpt>
      <trkpt lat="46.18699" lon="-1.01151">
        <ele>34.3</ele>
        <time>2020-05-31T16:51:27Z</time>
      </trkpt>
      <trkpt lat="46.18701" lon="-1.01157">
        <ele>34.3</ele>
        <time>2020-05-31T16:51:28Z</time>
      </trkpt>
      <trkpt lat="46.18703" lon="-1.01164">
        <ele>34.3</ele>
        <time>2020-05-31T16:51:29Z</time>
      </trkpt>
      <trkpt lat="46.18706" lon="-1.0117">
        <ele>34.3</ele>
        <time>2020-05-31T16:51:30Z</time>
      </trkpt>
      <trkpt lat="46.18708" lon="-1.01176">
        <ele>34.3</ele>
        <time>2020-05-31T16:51:31Z</time>
      </trkpt>
      <trkpt lat="46.18711" lon="-1.01182">
        <ele>34.3</ele>
        <time>2020-05-31T16:51:32Z</time>
      </trkpt>
      <trkpt lat="46.18714" lon="-1.01187">
        <ele>34.3</ele>
        <time>2020-05-31T16:51:33Z</time>
      </trkpt>
      <trkpt lat="46.18717" lon="-1.01193">
        <ele>34.3</ele>
        <time>2020-05-31T16:51:34Z</time>
      </trkpt>
      <trkpt lat="46.18719" lon="-1.012">
        <ele>34.3</ele>
        <time>2020-05-31T16:51:35Z</time>
      </trkpt>
      <trkpt lat="46.18721" lon="-1.01206">
        <ele>34.3</ele>
        <time>2020-05-31T16:51:36Z</time>
      </trkpt>
      <trkpt lat="46.18724" lon="-1.01212">
        <ele>34.3</ele>
        <time>2020-05-31T16:51:37Z</time>
      </trkpt>
      <trkpt lat="46.18727" lon="-1.01217">
        <ele>34.2</ele>
        <time>2020-05-31T16:51:38Z</time>
      </trkpt>
      <trkpt lat="46.18729" lon="-1.01221">
        <ele>34.2</ele>
        <time>2020-05-31T16:51:39Z</time>
      </trkpt>
      <trkpt lat="46.18733" lon="-1.01226">
        <ele>34.2</ele>
        <time>2020-05-31T16:51:40Z</time>
      </trkpt>
      <trkpt lat="46.18736" lon="-1.01231">
        <ele>34.2</ele>
        <time>2020-05-31T16:51:41Z</time>
      </trkpt>
      <trkpt lat="46.18739" lon="-1.01237">
        <ele>34.2</ele>
        <time>2020-05-31T16:51:42Z</time>
      </trkpt>
      <trkpt lat="46.18742" lon="-1.01241">
        <ele>34.2</ele>
        <time>2020-05-31T16:51:43Z</time>
      </trkpt>
      <trkpt lat="46.18744" lon="-1.01247">
        <ele>34.1</ele>
        <time>2020-05-31T16:51:44Z</time>
      </trkpt>
      <trkpt lat="46.18747" lon="-1.01253">
        <ele>34</ele>
        <time>2020-05-31T16:51:45Z</time>
      </trkpt>
      <trkpt lat="46.18749" lon="-1.01258">
        <ele>33.9</ele>
        <time>2020-05-31T16:51:46Z</time>
      </trkpt>
      <trkpt lat="46.18752" lon="-1.01264">
        <ele>33.9</ele>
        <time>2020-05-31T16:51:47Z</time>
      </trkpt>
      <trkpt lat="46.18755" lon="-1.01269">
        <ele>33.8</ele>
        <time>2020-05-31T16:51:48Z</time>
      </trkpt>
      <trkpt lat="46.18758" lon="-1.01274">
        <ele>33.7</ele>
        <time>2020-05-31T16:51:49Z</time>
      </trkpt>
      <trkpt lat="46.18762" lon="-1.01279">
        <ele>33.6</ele>
        <time>2020-05-31T16:51:50Z</time>
      </trkpt>
      <trkpt lat="46.18764" lon="-1.01284">
        <ele>33.5</ele>
        <time>2020-05-31T16:51:51Z</time>
      </trkpt>
      <trkpt lat="46.18768" lon="-1.01289">
        <ele>33.5</ele>
        <time>2020-05-31T16:51:52Z</time>
      </trkpt>
      <trkpt lat="46.1877" lon="-1.01294">
        <ele>33.4</ele>
        <time>2020-05-31T16:51:53Z</time>
      </trkpt>
      <trkpt lat="46.18773" lon="-1.01299">
        <ele>33.4</ele>
        <time>2020-05-31T16:51:54Z</time>
      </trkpt>
      <trkpt lat="46.18775" lon="-1.01304">
        <ele>33.3</ele>
        <time>2020-05-31T16:51:55Z</time>
      </trkpt>
      <trkpt lat="46.18776" lon="-1.0131">
        <ele>33.3</ele>
        <time>2020-05-31T16:51:56Z</time>
      </trkpt>
      <trkpt lat="46.18778" lon="-1.01315">
        <ele>33.3</ele>
        <time>2020-05-31T16:51:57Z</time>
      </trkpt>
      <trkpt lat="46.1878" lon="-1.01321">
        <ele>33.2</ele>
        <time>2020-05-31T16:51:58Z</time>
      </trkpt>
      <trkpt lat="46.18782" lon="-1.01327">
        <ele>33.2</ele>
        <time>2020-05-31T16:51:59Z</time>
      </trkpt>
      <trkpt lat="46.18785" lon="-1.01331">
        <ele>33.1</ele>
        <time>2020-05-31T16:52:00Z</time>
      </trkpt>
      <trkpt lat="46.18786" lon="-1.01336">
        <ele>33.1</ele>
        <time>2020-05-31T16:52:01Z</time>
      </trkpt>
      <trkpt lat="46.18789" lon="-1.01341">
        <ele>33</ele>
        <time>2020-05-31T16:52:02Z</time>
      </trkpt>
      <trkpt lat="46.18791" lon="-1.01347">
        <ele>32.9</ele>
        <time>2020-05-31T16:52:03Z</time>
      </trkpt>
      <trkpt lat="46.18796" lon="-1.01353">
        <ele>32.8</ele>
        <time>2020-05-31T16:52:04Z</time>
      </trkpt>
      <trkpt lat="46.18799" lon="-1.0136">
        <ele>32.7</ele>
        <time>2020-05-31T16:52:05Z</time>
      </trkpt>
      <trkpt lat="46.18802" lon="-1.01366">
        <ele>32.6</ele>
        <time>2020-05-31T16:52:06Z</time>
      </trkpt>
      <trkpt lat="46.18805" lon="-1.01372">
        <ele>32.5</ele>
        <time>2020-05-31T16:52:07Z</time>
      </trkpt>
      <trkpt lat="46.18808" lon="-1.01379">
        <ele>32.5</ele>
        <time>2020-05-31T16:52:08Z</time>
      </trkpt>
      <trkpt lat="46.18811" lon="-1.01386">
        <ele>32.4</ele>
        <time>2020-05-31T16:52:09Z</time>
      </trkpt>
      <trkpt lat="46.18813" lon="-1.01392">
        <ele>32.4</ele>
        <time>2020-05-31T16:52:10Z</time>
      </trkpt>
      <trkpt lat="46.18815" lon="-1.01399">
        <ele>32.3</ele>
        <time>2020-05-31T16:52:11Z</time>
      </trkpt>
      <trkpt lat="46.18817" lon="-1.01406">
        <ele>32.3</ele>
        <time>2020-05-31T16:52:12Z</time>
      </trkpt>
      <trkpt lat="46.1882" lon="-1.01413">
        <ele>32.2</ele>
        <time>2020-05-31T16:52:13Z</time>
      </trkpt>
      <trkpt lat="46.18822" lon="-1.01419">
        <ele>32.2</ele>
        <time>2020-05-31T16:52:14Z</time>
      </trkpt>
      <trkpt lat="46.18824" lon="-1.01425">
        <ele>32.1</ele>
        <time>2020-05-31T16:52:15Z</time>
      </trkpt>
      <trkpt lat="46.18826" lon="-1.01433">
        <ele>32.1</ele>
        <time>2020-05-31T16:52:16Z</time>
      </trkpt>
      <trkpt lat="46.18828" lon="-1.01441">
        <ele>32.1</ele>
        <time>2020-05-31T16:52:17Z</time>
      </trkpt>
      <trkpt lat="46.18829" lon="-1.01449">
        <ele>32</ele>
        <time>2020-05-31T16:52:18Z</time>
      </trkpt>
      <trkpt lat="46.18829" lon="-1.01457">
        <ele>32</ele>
        <time>2020-05-31T16:52:19Z</time>
      </trkpt>
      <trkpt lat="46.18831" lon="-1.01466">
        <ele>31.9</ele>
        <time>2020-05-31T16:52:20Z</time>
      </trkpt>
      <trkpt lat="46.18833" lon="-1.01476">
        <ele>31.8</ele>
        <time>2020-05-31T16:52:21Z</time>
      </trkpt>
      <trkpt lat="46.18834" lon="-1.01484">
        <ele>31.8</ele>
        <time>2020-05-31T16:52:22Z</time>
      </trkpt>
      <trkpt lat="46.18836" lon="-1.01493">
        <ele>31.8</ele>
        <time>2020-05-31T16:52:23Z</time>
      </trkpt>
      <trkpt lat="46.18838" lon="-1.01501">
        <ele>31.8</ele>
        <time>2020-05-31T16:52:24Z</time>
      </trkpt>
      <trkpt lat="46.18839" lon="-1.0151">
        <ele>31.8</ele>
        <time>2020-05-31T16:52:25Z</time>
      </trkpt>
      <trkpt lat="46.18841" lon="-1.01518">
        <ele>31.8</ele>
        <time>2020-05-31T16:52:26Z</time>
      </trkpt>
      <trkpt lat="46.18844" lon="-1.01526">
        <ele>31.8</ele>
        <time>2020-05-31T16:52:27Z</time>
      </trkpt>
      <trkpt lat="46.18845" lon="-1.01535">
        <ele>31.7</ele>
        <time>2020-05-31T16:52:28Z</time>
      </trkpt>
      <trkpt lat="46.18847" lon="-1.01544">
        <ele>31.7</ele>
        <time>2020-05-31T16:52:29Z</time>
      </trkpt>
      <trkpt lat="46.18848" lon="-1.01553">
        <ele>31.6</ele>
        <time>2020-05-31T16:52:30Z</time>
      </trkpt>
      <trkpt lat="46.18849" lon="-1.01563">
        <ele>31.6</ele>
        <time>2020-05-31T16:52:31Z</time>
      </trkpt>
      <trkpt lat="46.1885" lon="-1.01572">
        <ele>31.6</ele>
        <time>2020-05-31T16:52:32Z</time>
      </trkpt>
      <trkpt lat="46.18851" lon="-1.0158">
        <ele>31.6</ele>
        <time>2020-05-31T16:52:33Z</time>
      </trkpt>
      <trkpt lat="46.18852" lon="-1.01588">
        <ele>31.6</ele>
        <time>2020-05-31T16:52:34Z</time>
      </trkpt>
      <trkpt lat="46.18853" lon="-1.01597">
        <ele>31.6</ele>
        <time>2020-05-31T16:52:35Z</time>
      </trkpt>
      <trkpt lat="46.18854" lon="-1.01604">
        <ele>31.6</ele>
        <time>2020-05-31T16:52:36Z</time>
      </trkpt>
      <trkpt lat="46.18856" lon="-1.01614">
        <ele>31.6</ele>
        <time>2020-05-31T16:52:37Z</time>
      </trkpt>
      <trkpt lat="46.18858" lon="-1.01623">
        <ele>31.6</ele>
        <time>2020-05-31T16:52:38Z</time>
      </trkpt>
      <trkpt lat="46.18858" lon="-1.0163">
        <ele>31.6</ele>
        <time>2020-05-31T16:52:39Z</time>
      </trkpt>
      <trkpt lat="46.18859" lon="-1.01638">
        <ele>31.6</ele>
        <time>2020-05-31T16:52:40Z</time>
      </trkpt>
      <trkpt lat="46.18861" lon="-1.01645">
        <ele>31.5</ele>
        <time>2020-05-31T16:52:41Z</time>
      </trkpt>
      <trkpt lat="46.18861" lon="-1.01653">
        <ele>31.4</ele>
        <time>2020-05-31T16:52:42Z</time>
      </trkpt>
      <trkpt lat="46.18863" lon="-1.01659">
        <ele>31.4</ele>
        <time>2020-05-31T16:52:43Z</time>
      </trkpt>
      <trkpt lat="46.18864" lon="-1.01666">
        <ele>31.3</ele>
        <time>2020-05-31T16:52:44Z</time>
      </trkpt>
      <trkpt lat="46.18865" lon="-1.01673">
        <ele>31.2</ele>
        <time>2020-05-31T16:52:45Z</time>
      </trkpt>
      <trkpt lat="46.18866" lon="-1.0168">
        <ele>31.1</ele>
        <time>2020-05-31T16:52:46Z</time>
      </trkpt>
      <trkpt lat="46.18868" lon="-1.01688">
        <ele>31.1</ele>
        <time>2020-05-31T16:52:47Z</time>
      </trkpt>
      <trkpt lat="46.18869" lon="-1.01696">
        <ele>31</ele>
        <time>2020-05-31T16:52:48Z</time>
      </trkpt>
      <trkpt lat="46.18871" lon="-1.01703">
        <ele>30.9</ele>
        <time>2020-05-31T16:52:49Z</time>
      </trkpt>
      <trkpt lat="46.18873" lon="-1.01711">
        <ele>30.8</ele>
        <time>2020-05-31T16:52:50Z</time>
      </trkpt>
      <trkpt lat="46.18875" lon="-1.01719">
        <ele>30.7</ele>
        <time>2020-05-31T16:52:51Z</time>
      </trkpt>
      <trkpt lat="46.18877" lon="-1.01726">
        <ele>30.5</ele>
        <time>2020-05-31T16:52:52Z</time>
      </trkpt>
      <trkpt lat="46.18879" lon="-1.01735">
        <ele>30.4</ele>
        <time>2020-05-31T16:52:53Z</time>
      </trkpt>
      <trkpt lat="46.18881" lon="-1.01743">
        <ele>30.2</ele>
        <time>2020-05-31T16:52:54Z</time>
      </trkpt>
      <trkpt lat="46.18882" lon="-1.01751">
        <ele>30.1</ele>
        <time>2020-05-31T16:52:55Z</time>
      </trkpt>
      <trkpt lat="46.18883" lon="-1.01759">
        <ele>29.9</ele>
        <time>2020-05-31T16:52:56Z</time>
      </trkpt>
      <trkpt lat="46.18885" lon="-1.01767">
        <ele>29.8</ele>
        <time>2020-05-31T16:52:57Z</time>
      </trkpt>
      <trkpt lat="46.18886" lon="-1.01775">
        <ele>29.7</ele>
        <time>2020-05-31T16:52:58Z</time>
      </trkpt>
      <trkpt lat="46.18888" lon="-1.01783">
        <ele>29.6</ele>
        <time>2020-05-31T16:52:59Z</time>
      </trkpt>
      <trkpt lat="46.1889" lon="-1.01791">
        <ele>29.6</ele>
        <time>2020-05-31T16:53:00Z</time>
      </trkpt>
      <trkpt lat="46.18892" lon="-1.01799">
        <ele>29.5</ele>
        <time>2020-05-31T16:53:01Z</time>
      </trkpt>
      <trkpt lat="46.18894" lon="-1.01807">
        <ele>29.5</ele>
        <time>2020-05-31T16:53:02Z</time>
      </trkpt>
      <trkpt lat="46.18895" lon="-1.01816">
        <ele>29.4</ele>
        <time>2020-05-31T16:53:03Z</time>
      </trkpt>
      <trkpt lat="46.18896" lon="-1.01825">
        <ele>29.4</ele>
        <time>2020-05-31T16:53:04Z</time>
      </trkpt>
      <trkpt lat="46.18897" lon="-1.01835">
        <ele>29.4</ele>
        <time>2020-05-31T16:53:05Z</time>
      </trkpt>
      <trkpt lat="46.18897" lon="-1.01845">
        <ele>29.3</ele>
        <time>2020-05-31T16:53:06Z</time>
      </trkpt>
      <trkpt lat="46.18896" lon="-1.01854">
        <ele>29.3</ele>
        <time>2020-05-31T16:53:07Z</time>
      </trkpt>
      <trkpt lat="46.18896" lon="-1.01864">
        <ele>29.3</ele>
        <time>2020-05-31T16:53:08Z</time>
      </trkpt>
      <trkpt lat="46.18896" lon="-1.01873">
        <ele>29.3</ele>
        <time>2020-05-31T16:53:09Z</time>
      </trkpt>
      <trkpt lat="46.18895" lon="-1.01883">
        <ele>29.3</ele>
        <time>2020-05-31T16:53:10Z</time>
      </trkpt>
      <trkpt lat="46.18893" lon="-1.01892">
        <ele>29.3</ele>
        <time>2020-05-31T16:53:11Z</time>
      </trkpt>
      <trkpt lat="46.18892" lon="-1.01902">
        <ele>29.3</ele>
        <time>2020-05-31T16:53:12Z</time>
      </trkpt>
      <trkpt lat="46.18892" lon="-1.01911">
        <ele>29.3</ele>
        <time>2020-05-31T16:53:13Z</time>
      </trkpt>
      <trkpt lat="46.18893" lon="-1.0192">
        <ele>29.3</ele>
        <time>2020-05-31T16:53:14Z</time>
      </trkpt>
      <trkpt lat="46.18895" lon="-1.01928">
        <ele>29.3</ele>
        <time>2020-05-31T16:53:15Z</time>
      </trkpt>
      <trkpt lat="46.18896" lon="-1.01936">
        <ele>29.4</ele>
        <time>2020-05-31T16:53:16Z</time>
      </trkpt>
      <trkpt lat="46.18898" lon="-1.01944">
        <ele>29.4</ele>
        <time>2020-05-31T16:53:17Z</time>
      </trkpt>
      <trkpt lat="46.189" lon="-1.01951">
        <ele>29.4</ele>
        <time>2020-05-31T16:53:18Z</time>
      </trkpt>
      <trkpt lat="46.18901" lon="-1.01959">
        <ele>29.4</ele>
        <time>2020-05-31T16:53:19Z</time>
      </trkpt>
      <trkpt lat="46.18903" lon="-1.01966">
        <ele>29.5</ele>
        <time>2020-05-31T16:53:20Z</time>
      </trkpt>
      <trkpt lat="46.18904" lon="-1.01974">
        <ele>29.5</ele>
        <time>2020-05-31T16:53:21Z</time>
      </trkpt>
      <trkpt lat="46.18906" lon="-1.01982">
        <ele>29.6</ele>
        <time>2020-05-31T16:53:22Z</time>
      </trkpt>
      <trkpt lat="46.18908" lon="-1.0199">
        <ele>29.6</ele>
        <time>2020-05-31T16:53:23Z</time>
      </trkpt>
      <trkpt lat="46.18911" lon="-1.01998">
        <ele>29.7</ele>
        <time>2020-05-31T16:53:24Z</time>
      </trkpt>
      <trkpt lat="46.18913" lon="-1.02006">
        <ele>29.7</ele>
        <time>2020-05-31T16:53:25Z</time>
      </trkpt>
      <trkpt lat="46.18915" lon="-1.02014">
        <ele>29.8</ele>
        <time>2020-05-31T16:53:26Z</time>
      </trkpt>
      <trkpt lat="46.18917" lon="-1.02021">
        <ele>29.8</ele>
        <time>2020-05-31T16:53:27Z</time>
      </trkpt>
      <trkpt lat="46.18919" lon="-1.02028">
        <ele>29.9</ele>
        <time>2020-05-31T16:53:28Z</time>
      </trkpt>
      <trkpt lat="46.18922" lon="-1.02035">
        <ele>29.9</ele>
        <time>2020-05-31T16:53:29Z</time>
      </trkpt>
      <trkpt lat="46.18925" lon="-1.02042">
        <ele>30</ele>
        <time>2020-05-31T16:53:30Z</time>
      </trkpt>
      <trkpt lat="46.18927" lon="-1.02049">
        <ele>30.1</ele>
        <time>2020-05-31T16:53:31Z</time>
      </trkpt>
      <trkpt lat="46.1893" lon="-1.02056">
        <ele>30.1</ele>
        <time>2020-05-31T16:53:32Z</time>
      </trkpt>
      <trkpt lat="46.18933" lon="-1.02063">
        <ele>30.2</ele>
        <time>2020-05-31T16:53:33Z</time>
      </trkpt>
      <trkpt lat="46.18936" lon="-1.0207">
        <ele>30.4</ele>
        <time>2020-05-31T16:53:34Z</time>
      </trkpt>
      <trkpt lat="46.18939" lon="-1.02077">
        <ele>30.5</ele>
        <time>2020-05-31T16:53:35Z</time>
      </trkpt>
      <trkpt lat="46.18941" lon="-1.02084">
        <ele>30.6</ele>
        <time>2020-05-31T16:53:36Z</time>
      </trkpt>
      <trkpt lat="46.18943" lon="-1.02091">
        <ele>30.7</ele>
        <time>2020-05-31T16:53:37Z</time>
      </trkpt>
      <trkpt lat="46.18945" lon="-1.02098">
        <ele>30.8</ele>
        <time>2020-05-31T16:53:38Z</time>
      </trkpt>
      <trkpt lat="46.18947" lon="-1.02106">
        <ele>30.9</ele>
        <time>2020-05-31T16:53:39Z</time>
      </trkpt>
      <trkpt lat="46.18949" lon="-1.02112">
        <ele>31</ele>
        <time>2020-05-31T16:53:40Z</time>
      </trkpt>
      <trkpt lat="46.18951" lon="-1.02118">
        <ele>31.1</ele>
        <time>2020-05-31T16:53:41Z</time>
      </trkpt>
      <trkpt lat="46.18953" lon="-1.02124">
        <ele>31.2</ele>
        <time>2020-05-31T16:53:42Z</time>
      </trkpt>
      <trkpt lat="46.18955" lon="-1.0213">
        <ele>31.3</ele>
        <time>2020-05-31T16:53:43Z</time>
      </trkpt>
      <trkpt lat="46.18957" lon="-1.02137">
        <ele>31.3</ele>
        <time>2020-05-31T16:53:44Z</time>
      </trkpt>
      <trkpt lat="46.18959" lon="-1.02143">
        <ele>31.4</ele>
        <time>2020-05-31T16:53:45Z</time>
      </trkpt>
      <trkpt lat="46.18961" lon="-1.0215">
        <ele>31.5</ele>
        <time>2020-05-31T16:53:46Z</time>
      </trkpt>
      <trkpt lat="46.18963" lon="-1.02156">
        <ele>31.6</ele>
        <time>2020-05-31T16:53:47Z</time>
      </trkpt>
      <trkpt lat="46.18966" lon="-1.02162">
        <ele>31.6</ele>
        <time>2020-05-31T16:53:48Z</time>
      </trkpt>
      <trkpt lat="46.18968" lon="-1.02169">
        <ele>31.7</ele>
        <time>2020-05-31T16:53:49Z</time>
      </trkpt>
      <trkpt lat="46.1897" lon="-1.02175">
        <ele>31.7</ele>
        <time>2020-05-31T16:53:50Z</time>
      </trkpt>
      <trkpt lat="46.18972" lon="-1.02181">
        <ele>31.7</ele>
        <time>2020-05-31T16:53:51Z</time>
      </trkpt>
      <trkpt lat="46.18974" lon="-1.02187">
        <ele>31.7</ele>
        <time>2020-05-31T16:53:52Z</time>
      </trkpt>
      <trkpt lat="46.18976" lon="-1.02193">
        <ele>31.8</ele>
        <time>2020-05-31T16:53:53Z</time>
      </trkpt>
      <trkpt lat="46.18977" lon="-1.02199">
        <ele>31.8</ele>
        <time>2020-05-31T16:53:54Z</time>
      </trkpt>
      <trkpt lat="46.18979" lon="-1.02206">
        <ele>31.9</ele>
        <time>2020-05-31T16:53:55Z</time>
      </trkpt>
      <trkpt lat="46.18981" lon="-1.02213">
        <ele>31.9</ele>
        <time>2020-05-31T16:53:56Z</time>
      </trkpt>
      <trkpt lat="46.18983" lon="-1.02219">
        <ele>32</ele>
        <time>2020-05-31T16:53:57Z</time>
      </trkpt>
      <trkpt lat="46.18986" lon="-1.02226">
        <ele>32</ele>
        <time>2020-05-31T16:53:58Z</time>
      </trkpt>
      <trkpt lat="46.18988" lon="-1.02232">
        <ele>32</ele>
        <time>2020-05-31T16:53:59Z</time>
      </trkpt>
      <trkpt lat="46.1899" lon="-1.02238">
        <ele>32</ele>
        <time>2020-05-31T16:54:00Z</time>
      </trkpt>
      <trkpt lat="46.18992" lon="-1.02245">
        <ele>32.1</ele>
        <time>2020-05-31T16:54:01Z</time>
      </trkpt>
      <trkpt lat="46.18994" lon="-1.02252">
        <ele>32.1</ele>
        <time>2020-05-31T16:54:02Z</time>
      </trkpt>
      <trkpt lat="46.18996" lon="-1.02258">
        <ele>32.1</ele>
        <time>2020-05-31T16:54:03Z</time>
      </trkpt>
      <trkpt lat="46.18998" lon="-1.02265">
        <ele>32.1</ele>
        <time>2020-05-31T16:54:04Z</time>
      </trkpt>
      <trkpt lat="46.19" lon="-1.02272">
        <ele>32.2</ele>
        <time>2020-05-31T16:54:05Z</time>
      </trkpt>
      <trkpt lat="46.19003" lon="-1.02278">
        <ele>32.2</ele>
        <time>2020-05-31T16:54:06Z</time>
      </trkpt>
      <trkpt lat="46.19005" lon="-1.02285">
        <ele>32.2</ele>
        <time>2020-05-31T16:54:07Z</time>
      </trkpt>
      <trkpt lat="46.19007" lon="-1.02292">
        <ele>32.2</ele>
        <time>2020-05-31T16:54:08Z</time>
      </trkpt>
      <trkpt lat="46.19009" lon="-1.02299">
        <ele>32.3</ele>
        <time>2020-05-31T16:54:09Z</time>
      </trkpt>
      <trkpt lat="46.19011" lon="-1.02305">
        <ele>32.3</ele>
        <time>2020-05-31T16:54:10Z</time>
      </trkpt>
      <trkpt lat="46.19014" lon="-1.02312">
        <ele>32.3</ele>
        <time>2020-05-31T16:54:11Z</time>
      </trkpt>
      <trkpt lat="46.19016" lon="-1.02319">
        <ele>32.3</ele>
        <time>2020-05-31T16:54:12Z</time>
      </trkpt>
      <trkpt lat="46.19019" lon="-1.02324">
        <ele>32.4</ele>
        <time>2020-05-31T16:54:13Z</time>
      </trkpt>
      <trkpt lat="46.19022" lon="-1.0233">
        <ele>32.4</ele>
        <time>2020-05-31T16:54:14Z</time>
      </trkpt>
      <trkpt lat="46.19024" lon="-1.02335">
        <ele>32.4</ele>
        <time>2020-05-31T16:54:15Z</time>
      </trkpt>
      <trkpt lat="46.19026" lon="-1.02342">
        <ele>32.4</ele>
        <time>2020-05-31T16:54:16Z</time>
      </trkpt>
      <trkpt lat="46.19029" lon="-1.02346">
        <ele>32.4</ele>
        <time>2020-05-31T16:54:17Z</time>
      </trkpt>
      <trkpt lat="46.19032" lon="-1.02351">
        <ele>32.4</ele>
        <time>2020-05-31T16:54:18Z</time>
      </trkpt>
      <trkpt lat="46.19034" lon="-1.02355">
        <ele>32.5</ele>
        <time>2020-05-31T16:54:19Z</time>
      </trkpt>
      <trkpt lat="46.19037" lon="-1.0236">
        <ele>32.5</ele>
        <time>2020-05-31T16:54:20Z</time>
      </trkpt>
      <trkpt lat="46.1904" lon="-1.02364">
        <ele>32.5</ele>
        <time>2020-05-31T16:54:21Z</time>
      </trkpt>
      <trkpt lat="46.19043" lon="-1.02368">
        <ele>32.5</ele>
        <time>2020-05-31T16:54:22Z</time>
      </trkpt>
      <trkpt lat="46.19046" lon="-1.02373">
        <ele>32.5</ele>
        <time>2020-05-31T16:54:23Z</time>
      </trkpt>
      <trkpt lat="46.19049" lon="-1.02377">
        <ele>32.5</ele>
        <time>2020-05-31T16:54:24Z</time>
      </trkpt>
      <trkpt lat="46.19051" lon="-1.02381">
        <ele>32.5</ele>
        <time>2020-05-31T16:54:25Z</time>
      </trkpt>
      <trkpt lat="46.19054" lon="-1.02387">
        <ele>32.4</ele>
        <time>2020-05-31T16:54:26Z</time>
      </trkpt>
      <trkpt lat="46.19056" lon="-1.02391">
        <ele>32.4</ele>
        <time>2020-05-31T16:54:27Z</time>
      </trkpt>
      <trkpt lat="46.19059" lon="-1.02396">
        <ele>32.4</ele>
        <time>2020-05-31T16:54:28Z</time>
      </trkpt>
      <trkpt lat="46.1906" lon="-1.02402">
        <ele>32.4</ele>
        <time>2020-05-31T16:54:29Z</time>
      </trkpt>
      <trkpt lat="46.19063" lon="-1.02407">
        <ele>32.4</ele>
        <time>2020-05-31T16:54:30Z</time>
      </trkpt>
      <trkpt lat="46.19066" lon="-1.02411">
        <ele>32.4</ele>
        <time>2020-05-31T16:54:31Z</time>
      </trkpt>
      <trkpt lat="46.19068" lon="-1.02417">
        <ele>32.4</ele>
        <time>2020-05-31T16:54:32Z</time>
      </trkpt>
      <trkpt lat="46.19071" lon="-1.02423">
        <ele>32.4</ele>
        <time>2020-05-31T16:54:33Z</time>
      </trkpt>
      <trkpt lat="46.19073" lon="-1.02429">
        <ele>32.4</ele>
        <time>2020-05-31T16:54:34Z</time>
      </trkpt>
      <trkpt lat="46.19075" lon="-1.02436">
        <ele>32.4</ele>
        <time>2020-05-31T16:54:35Z</time>
      </trkpt>
      <trkpt lat="46.19076" lon="-1.02443">
        <ele>32.3</ele>
        <time>2020-05-31T16:54:36Z</time>
      </trkpt>
      <trkpt lat="46.19077" lon="-1.0245">
        <ele>32.4</ele>
        <time>2020-05-31T16:54:37Z</time>
      </trkpt>
      <trkpt lat="46.19078" lon="-1.02457">
        <ele>32.4</ele>
        <time>2020-05-31T16:54:38Z</time>
      </trkpt>
      <trkpt lat="46.19079" lon="-1.02463">
        <ele>32.4</ele>
        <time>2020-05-31T16:54:39Z</time>
      </trkpt>
      <trkpt lat="46.19081" lon="-1.0247">
        <ele>32.5</ele>
        <time>2020-05-31T16:54:40Z</time>
      </trkpt>
      <trkpt lat="46.19082" lon="-1.02477">
        <ele>32.5</ele>
        <time>2020-05-31T16:54:41Z</time>
      </trkpt>
      <trkpt lat="46.19083" lon="-1.02484">
        <ele>32.5</ele>
        <time>2020-05-31T16:54:42Z</time>
      </trkpt>
      <trkpt lat="46.19083" lon="-1.02491">
        <ele>32.6</ele>
        <time>2020-05-31T16:54:43Z</time>
      </trkpt>
      <trkpt lat="46.19085" lon="-1.02498">
        <ele>32.6</ele>
        <time>2020-05-31T16:54:44Z</time>
      </trkpt>
      <trkpt lat="46.19086" lon="-1.02505">
        <ele>32.6</ele>
        <time>2020-05-31T16:54:45Z</time>
      </trkpt>
      <trkpt lat="46.19087" lon="-1.02512">
        <ele>32.7</ele>
        <time>2020-05-31T16:54:46Z</time>
      </trkpt>
      <trkpt lat="46.19087" lon="-1.02518">
        <ele>32.7</ele>
        <time>2020-05-31T16:54:47Z</time>
      </trkpt>
      <trkpt lat="46.19089" lon="-1.02524">
        <ele>32.8</ele>
        <time>2020-05-31T16:54:48Z</time>
      </trkpt>
      <trkpt lat="46.1909" lon="-1.0253">
        <ele>32.8</ele>
        <time>2020-05-31T16:54:49Z</time>
      </trkpt>
      <trkpt lat="46.19091" lon="-1.02536">
        <ele>32.9</ele>
        <time>2020-05-31T16:54:50Z</time>
      </trkpt>
      <trkpt lat="46.19093" lon="-1.02543">
        <ele>32.9</ele>
        <time>2020-05-31T16:54:51Z</time>
      </trkpt>
      <trkpt lat="46.19095" lon="-1.0255">
        <ele>33</ele>
        <time>2020-05-31T16:54:52Z</time>
      </trkpt>
      <trkpt lat="46.19096" lon="-1.02555">
        <ele>33</ele>
        <time>2020-05-31T16:54:53Z</time>
      </trkpt>
      <trkpt lat="46.19097" lon="-1.02561">
        <ele>33.1</ele>
        <time>2020-05-31T16:54:54Z</time>
      </trkpt>
      <trkpt lat="46.19099" lon="-1.02567">
        <ele>33.1</ele>
        <time>2020-05-31T16:54:55Z</time>
      </trkpt>
      <trkpt lat="46.19099" lon="-1.02574">
        <ele>33.2</ele>
        <time>2020-05-31T16:54:56Z</time>
      </trkpt>
      <trkpt lat="46.19101" lon="-1.0258">
        <ele>33.2</ele>
        <time>2020-05-31T16:54:57Z</time>
      </trkpt>
      <trkpt lat="46.191" lon="-1.02586">
        <ele>33.3</ele>
        <time>2020-05-31T16:54:58Z</time>
      </trkpt>
      <trkpt lat="46.19098" lon="-1.02592">
        <ele>33.3</ele>
        <time>2020-05-31T16:54:59Z</time>
      </trkpt>
      <trkpt lat="46.19098" lon="-1.02597">
        <ele>33.3</ele>
        <time>2020-05-31T16:55:00Z</time>
      </trkpt>
      <trkpt lat="46.19097" lon="-1.02603">
        <ele>33.4</ele>
        <time>2020-05-31T16:55:01Z</time>
      </trkpt>
      <trkpt lat="46.19098" lon="-1.02609">
        <ele>33.4</ele>
        <time>2020-05-31T16:55:02Z</time>
      </trkpt>
      <trkpt lat="46.19098" lon="-1.02614">
        <ele>33.4</ele>
        <time>2020-05-31T16:55:03Z</time>
      </trkpt>
      <trkpt lat="46.19098" lon="-1.0262">
        <ele>33.4</ele>
        <time>2020-05-31T16:55:04Z</time>
      </trkpt>
      <trkpt lat="46.19097" lon="-1.02626">
        <ele>33.4</ele>
        <time>2020-05-31T16:55:05Z</time>
      </trkpt>
      <trkpt lat="46.19098" lon="-1.02631">
        <ele>33.4</ele>
        <time>2020-05-31T16:55:06Z</time>
      </trkpt>
      <trkpt lat="46.19098" lon="-1.02637">
        <ele>33.4</ele>
        <time>2020-05-31T16:55:07Z</time>
      </trkpt>
      <trkpt lat="46.191" lon="-1.02643">
        <ele>33.4</ele>
        <time>2020-05-31T16:55:08Z</time>
      </trkpt>
      <trkpt lat="46.191" lon="-1.02649">
        <ele>33.4</ele>
        <time>2020-05-31T16:55:09Z</time>
      </trkpt>
      <trkpt lat="46.19101" lon="-1.02655">
        <ele>33.4</ele>
        <time>2020-05-31T16:55:10Z</time>
      </trkpt>
      <trkpt lat="46.19101" lon="-1.02661">
        <ele>33.4</ele>
        <time>2020-05-31T16:55:11Z</time>
      </trkpt>
      <trkpt lat="46.19099" lon="-1.02666">
        <ele>33.4</ele>
        <time>2020-05-31T16:55:12Z</time>
      </trkpt>
      <trkpt lat="46.19098" lon="-1.02672">
        <ele>33.4</ele>
        <time>2020-05-31T16:55:13Z</time>
      </trkpt>
      <trkpt lat="46.19098" lon="-1.02678">
        <ele>33.4</ele>
        <time>2020-05-31T16:55:14Z</time>
      </trkpt>
      <trkpt lat="46.19099" lon="-1.02684">
        <ele>33.4</ele>
        <time>2020-05-31T16:55:15Z</time>
      </trkpt>
      <trkpt lat="46.19098" lon="-1.02691">
        <ele>33.4</ele>
        <time>2020-05-31T16:55:16Z</time>
      </trkpt>
      <trkpt lat="46.19098" lon="-1.02697">
        <ele>33.4</ele>
        <time>2020-05-31T16:55:17Z</time>
      </trkpt>
      <trkpt lat="46.19098" lon="-1.02705">
        <ele>33.5</ele>
        <time>2020-05-31T16:55:18Z</time>
      </trkpt>
      <trkpt lat="46.19098" lon="-1.02712">
        <ele>33.5</ele>
        <time>2020-05-31T16:55:19Z</time>
      </trkpt>
      <trkpt lat="46.19095" lon="-1.02719">
        <ele>33.5</ele>
        <time>2020-05-31T16:55:20Z</time>
      </trkpt>
      <trkpt lat="46.19094" lon="-1.02726">
        <ele>33.5</ele>
        <time>2020-05-31T16:55:21Z</time>
      </trkpt>
      <trkpt lat="46.19092" lon="-1.02731">
        <ele>33.5</ele>
        <time>2020-05-31T16:55:22Z</time>
      </trkpt>
      <trkpt lat="46.19089" lon="-1.02737">
        <ele>33.5</ele>
        <time>2020-05-31T16:55:23Z</time>
      </trkpt>
      <trkpt lat="46.19086" lon="-1.02742">
        <ele>33.6</ele>
        <time>2020-05-31T16:55:24Z</time>
      </trkpt>
      <trkpt lat="46.19083" lon="-1.02747">
        <ele>33.6</ele>
        <time>2020-05-31T16:55:25Z</time>
      </trkpt>
      <trkpt lat="46.1908" lon="-1.02752">
        <ele>33.6</ele>
        <time>2020-05-31T16:55:26Z</time>
      </trkpt>
      <trkpt lat="46.19076" lon="-1.02757">
        <ele>33.6</ele>
        <time>2020-05-31T16:55:27Z</time>
      </trkpt>
      <trkpt lat="46.19074" lon="-1.02764">
        <ele>33.6</ele>
        <time>2020-05-31T16:55:28Z</time>
      </trkpt>
      <trkpt lat="46.19071" lon="-1.02769">
        <ele>33.5</ele>
        <time>2020-05-31T16:55:29Z</time>
      </trkpt>
      <trkpt lat="46.19068" lon="-1.02774">
        <ele>33.5</ele>
        <time>2020-05-31T16:55:30Z</time>
      </trkpt>
      <trkpt lat="46.19065" lon="-1.0278">
        <ele>33.5</ele>
        <time>2020-05-31T16:55:31Z</time>
      </trkpt>
      <trkpt lat="46.19064" lon="-1.02787">
        <ele>33.5</ele>
        <time>2020-05-31T16:55:32Z</time>
      </trkpt>
      <trkpt lat="46.19061" lon="-1.02792">
        <ele>33.4</ele>
        <time>2020-05-31T16:55:33Z</time>
      </trkpt>
      <trkpt lat="46.19058" lon="-1.02797">
        <ele>33.4</ele>
        <time>2020-05-31T16:55:34Z</time>
      </trkpt>
      <trkpt lat="46.19055" lon="-1.02802">
        <ele>33.4</ele>
        <time>2020-05-31T16:55:35Z</time>
      </trkpt>
      <trkpt lat="46.19053" lon="-1.02809">
        <ele>33.4</ele>
        <time>2020-05-31T16:55:36Z</time>
      </trkpt>
      <trkpt lat="46.1905" lon="-1.02814">
        <ele>33.4</ele>
        <time>2020-05-31T16:55:37Z</time>
      </trkpt>
      <trkpt lat="46.19047" lon="-1.02819">
        <ele>33.4</ele>
        <time>2020-05-31T16:55:38Z</time>
      </trkpt>
      <trkpt lat="46.19046" lon="-1.02826">
        <ele>33.4</ele>
        <time>2020-05-31T16:55:39Z</time>
      </trkpt>
      <trkpt lat="46.19043" lon="-1.02831">
        <ele>33.4</ele>
        <time>2020-05-31T16:55:40Z</time>
      </trkpt>
      <trkpt lat="46.19039" lon="-1.02837">
        <ele>33.4</ele>
        <time>2020-05-31T16:55:41Z</time>
      </trkpt>
      <trkpt lat="46.19038" lon="-1.02845">
        <ele>33.4</ele>
        <time>2020-05-31T16:55:42Z</time>
      </trkpt>
      <trkpt lat="46.19035" lon="-1.02851">
        <ele>33.3</ele>
        <time>2020-05-31T16:55:43Z</time>
      </trkpt>
      <trkpt lat="46.19032" lon="-1.02858">
        <ele>33.3</ele>
        <time>2020-05-31T16:55:44Z</time>
      </trkpt>
      <trkpt lat="46.1903" lon="-1.02865">
        <ele>33.3</ele>
        <time>2020-05-31T16:55:45Z</time>
      </trkpt>
      <trkpt lat="46.19027" lon="-1.02872">
        <ele>33.3</ele>
        <time>2020-05-31T16:55:46Z</time>
      </trkpt>
      <trkpt lat="46.19024" lon="-1.02879">
        <ele>33.2</ele>
        <time>2020-05-31T16:55:47Z</time>
      </trkpt>
      <trkpt lat="46.19022" lon="-1.02887">
        <ele>33.1</ele>
        <time>2020-05-31T16:55:48Z</time>
      </trkpt>
      <trkpt lat="46.1902" lon="-1.02893">
        <ele>32.9</ele>
        <time>2020-05-31T16:55:49Z</time>
      </trkpt>
      <trkpt lat="46.19019" lon="-1.029">
        <ele>32.8</ele>
        <time>2020-05-31T16:55:50Z</time>
      </trkpt>
      <trkpt lat="46.19018" lon="-1.02907">
        <ele>32.7</ele>
        <time>2020-05-31T16:55:51Z</time>
      </trkpt>
      <trkpt lat="46.19017" lon="-1.02914">
        <ele>32.6</ele>
        <time>2020-05-31T16:55:52Z</time>
      </trkpt>
      <trkpt lat="46.19015" lon="-1.02921">
        <ele>32.5</ele>
        <time>2020-05-31T16:55:53Z</time>
      </trkpt>
      <trkpt lat="46.19013" lon="-1.02928">
        <ele>32.4</ele>
        <time>2020-05-31T16:55:54Z</time>
      </trkpt>
      <trkpt lat="46.1901" lon="-1.02935">
        <ele>32.3</ele>
        <time>2020-05-31T16:55:55Z</time>
      </trkpt>
      <trkpt lat="46.19008" lon="-1.02942">
        <ele>32.3</ele>
        <time>2020-05-31T16:55:56Z</time>
      </trkpt>
      <trkpt lat="46.19005" lon="-1.02949">
        <ele>32.3</ele>
        <time>2020-05-31T16:55:57Z</time>
      </trkpt>
      <trkpt lat="46.19003" lon="-1.02955">
        <ele>32.2</ele>
        <time>2020-05-31T16:55:58Z</time>
      </trkpt>
      <trkpt lat="46.19" lon="-1.02962">
        <ele>32.1</ele>
        <time>2020-05-31T16:55:59Z</time>
      </trkpt>
      <trkpt lat="46.18998" lon="-1.0297">
        <ele>32</ele>
        <time>2020-05-31T16:56:00Z</time>
      </trkpt>
      <trkpt lat="46.18996" lon="-1.02977">
        <ele>31.9</ele>
        <time>2020-05-31T16:56:01Z</time>
      </trkpt>
      <trkpt lat="46.18993" lon="-1.02984">
        <ele>31.7</ele>
        <time>2020-05-31T16:56:02Z</time>
      </trkpt>
      <trkpt lat="46.18991" lon="-1.02991">
        <ele>31.6</ele>
        <time>2020-05-31T16:56:03Z</time>
      </trkpt>
      <trkpt lat="46.18988" lon="-1.02998">
        <ele>31.5</ele>
        <time>2020-05-31T16:56:04Z</time>
      </trkpt>
      <trkpt lat="46.18986" lon="-1.03006">
        <ele>31.4</ele>
        <time>2020-05-31T16:56:05Z</time>
      </trkpt>
      <trkpt lat="46.18984" lon="-1.03014">
        <ele>31.2</ele>
        <time>2020-05-31T16:56:06Z</time>
      </trkpt>
      <trkpt lat="46.18981" lon="-1.03021">
        <ele>31.1</ele>
        <time>2020-05-31T16:56:07Z</time>
      </trkpt>
      <trkpt lat="46.18978" lon="-1.03029">
        <ele>31</ele>
        <time>2020-05-31T16:56:08Z</time>
      </trkpt>
      <trkpt lat="46.18976" lon="-1.03036">
        <ele>31</ele>
        <time>2020-05-31T16:56:09Z</time>
      </trkpt>
      <trkpt lat="46.18974" lon="-1.03043">
        <ele>30.9</ele>
        <time>2020-05-31T16:56:10Z</time>
      </trkpt>
      <trkpt lat="46.18972" lon="-1.03051">
        <ele>30.7</ele>
        <time>2020-05-31T16:56:11Z</time>
      </trkpt>
      <trkpt lat="46.18969" lon="-1.03059">
        <ele>30.6</ele>
        <time>2020-05-31T16:56:12Z</time>
      </trkpt>
      <trkpt lat="46.18966" lon="-1.03067">
        <ele>30.5</ele>
        <time>2020-05-31T16:56:13Z</time>
      </trkpt>
      <trkpt lat="46.18963" lon="-1.03075">
        <ele>30.3</ele>
        <time>2020-05-31T16:56:14Z</time>
      </trkpt>
      <trkpt lat="46.18962" lon="-1.03084">
        <ele>30.2</ele>
        <time>2020-05-31T16:56:15Z</time>
      </trkpt>
      <trkpt lat="46.18959" lon="-1.03093">
        <ele>30.1</ele>
        <time>2020-05-31T16:56:16Z</time>
      </trkpt>
      <trkpt lat="46.18957" lon="-1.03102">
        <ele>29.9</ele>
        <time>2020-05-31T16:56:17Z</time>
      </trkpt>
      <trkpt lat="46.18955" lon="-1.03111">
        <ele>29.8</ele>
        <time>2020-05-31T16:56:18Z</time>
      </trkpt>
      <trkpt lat="46.18952" lon="-1.03121">
        <ele>29.6</ele>
        <time>2020-05-31T16:56:19Z</time>
      </trkpt>
      <trkpt lat="46.18949" lon="-1.03129">
        <ele>29.5</ele>
        <time>2020-05-31T16:56:20Z</time>
      </trkpt>
      <trkpt lat="46.18946" lon="-1.03137">
        <ele>29.3</ele>
        <time>2020-05-31T16:56:21Z</time>
      </trkpt>
      <trkpt lat="46.18942" lon="-1.03144">
        <ele>29.2</ele>
        <time>2020-05-31T16:56:22Z</time>
      </trkpt>
      <trkpt lat="46.18939" lon="-1.03153">
        <ele>29</ele>
        <time>2020-05-31T16:56:23Z</time>
      </trkpt>
      <trkpt lat="46.18936" lon="-1.03162">
        <ele>28.8</ele>
        <time>2020-05-31T16:56:24Z</time>
      </trkpt>
      <trkpt lat="46.18932" lon="-1.03171">
        <ele>28.5</ele>
        <time>2020-05-31T16:56:25Z</time>
      </trkpt>
      <trkpt lat="46.18928" lon="-1.0318">
        <ele>28.3</ele>
        <time>2020-05-31T16:56:26Z</time>
      </trkpt>
      <trkpt lat="46.18925" lon="-1.0319">
        <ele>28</ele>
        <time>2020-05-31T16:56:27Z</time>
      </trkpt>
      <trkpt lat="46.18923" lon="-1.032">
        <ele>27.8</ele>
        <time>2020-05-31T16:56:28Z</time>
      </trkpt>
      <trkpt lat="46.18921" lon="-1.03211">
        <ele>27.5</ele>
        <time>2020-05-31T16:56:29Z</time>
      </trkpt>
      <trkpt lat="46.18918" lon="-1.03222">
        <ele>27.2</ele>
        <time>2020-05-31T16:56:30Z</time>
      </trkpt>
      <trkpt lat="46.18916" lon="-1.03234">
        <ele>27</ele>
        <time>2020-05-31T16:56:31Z</time>
      </trkpt>
      <trkpt lat="46.18916" lon="-1.03246">
        <ele>26.7</ele>
        <time>2020-05-31T16:56:32Z</time>
      </trkpt>
      <trkpt lat="46.18915" lon="-1.03258">
        <ele>26.5</ele>
        <time>2020-05-31T16:56:33Z</time>
      </trkpt>
      <trkpt lat="46.18915" lon="-1.0327">
        <ele>26.2</ele>
        <time>2020-05-31T16:56:34Z</time>
      </trkpt>
      <trkpt lat="46.18915" lon="-1.03282">
        <ele>25.9</ele>
        <time>2020-05-31T16:56:35Z</time>
      </trkpt>
      <trkpt lat="46.18914" lon="-1.03294">
        <ele>25.6</ele>
        <time>2020-05-31T16:56:36Z</time>
      </trkpt>
      <trkpt lat="46.18913" lon="-1.03306">
        <ele>25.3</ele>
        <time>2020-05-31T16:56:37Z</time>
      </trkpt>
      <trkpt lat="46.18912" lon="-1.03319">
        <ele>25</ele>
        <time>2020-05-31T16:56:38Z</time>
      </trkpt>
      <trkpt lat="46.18911" lon="-1.03332">
        <ele>24.8</ele>
        <time>2020-05-31T16:56:39Z</time>
      </trkpt>
      <trkpt lat="46.18911" lon="-1.03344">
        <ele>24.5</ele>
        <time>2020-05-31T16:56:40Z</time>
      </trkpt>
      <trkpt lat="46.18909" lon="-1.03357">
        <ele>24.2</ele>
        <time>2020-05-31T16:56:41Z</time>
      </trkpt>
      <trkpt lat="46.18907" lon="-1.0337">
        <ele>23.9</ele>
        <time>2020-05-31T16:56:42Z</time>
      </trkpt>
      <trkpt lat="46.18905" lon="-1.03383">
        <ele>23.6</ele>
        <time>2020-05-31T16:56:43Z</time>
      </trkpt>
      <trkpt lat="46.18902" lon="-1.03397">
        <ele>23.2</ele>
        <time>2020-05-31T16:56:44Z</time>
      </trkpt>
      <trkpt lat="46.18899" lon="-1.03412">
        <ele>22.9</ele>
        <time>2020-05-31T16:56:45Z</time>
      </trkpt>
      <trkpt lat="46.18894" lon="-1.03426">
        <ele>22.6</ele>
        <time>2020-05-31T16:56:46Z</time>
      </trkpt>
      <trkpt lat="46.18889" lon="-1.03439">
        <ele>22.3</ele>
        <time>2020-05-31T16:56:47Z</time>
      </trkpt>
      <trkpt lat="46.18885" lon="-1.03452">
        <ele>22</ele>
        <time>2020-05-31T16:56:48Z</time>
      </trkpt>
      <trkpt lat="46.18881" lon="-1.03466">
        <ele>21.8</ele>
        <time>2020-05-31T16:56:49Z</time>
      </trkpt>
      <trkpt lat="46.18878" lon="-1.03481">
        <ele>21.6</ele>
        <time>2020-05-31T16:56:50Z</time>
      </trkpt>
      <trkpt lat="46.18874" lon="-1.03496">
        <ele>21.5</ele>
        <time>2020-05-31T16:56:51Z</time>
      </trkpt>
      <trkpt lat="46.1887" lon="-1.03512">
        <ele>21.3</ele>
        <time>2020-05-31T16:56:52Z</time>
      </trkpt>
      <trkpt lat="46.18867" lon="-1.03528">
        <ele>21.2</ele>
        <time>2020-05-31T16:56:53Z</time>
      </trkpt>
      <trkpt lat="46.18864" lon="-1.03545">
        <ele>21.2</ele>
        <time>2020-05-31T16:56:54Z</time>
      </trkpt>
      <trkpt lat="46.18863" lon="-1.03561">
        <ele>21.2</ele>
        <time>2020-05-31T16:56:55Z</time>
      </trkpt>
      <trkpt lat="46.18861" lon="-1.03578">
        <ele>21.2</ele>
        <time>2020-05-31T16:56:56Z</time>
      </trkpt>
      <trkpt lat="46.1886" lon="-1.03594">
        <ele>21.2</ele>
        <time>2020-05-31T16:56:57Z</time>
      </trkpt>
      <trkpt lat="46.18859" lon="-1.03609">
        <ele>21.4</ele>
        <time>2020-05-31T16:56:58Z</time>
      </trkpt>
      <trkpt lat="46.18858" lon="-1.03624">
        <ele>21.5</ele>
        <time>2020-05-31T16:56:59Z</time>
      </trkpt>
      <trkpt lat="46.18855" lon="-1.03639">
        <ele>21.7</ele>
        <time>2020-05-31T16:57:00Z</time>
      </trkpt>
      <trkpt lat="46.18851" lon="-1.03653">
        <ele>22</ele>
        <time>2020-05-31T16:57:01Z</time>
      </trkpt>
      <trkpt lat="46.18847" lon="-1.03667">
        <ele>22.3</ele>
        <time>2020-05-31T16:57:02Z</time>
      </trkpt>
      <trkpt lat="46.18843" lon="-1.0368">
        <ele>22.6</ele>
        <time>2020-05-31T16:57:03Z</time>
      </trkpt>
      <trkpt lat="46.1884" lon="-1.03693">
        <ele>22.8</ele>
        <time>2020-05-31T16:57:04Z</time>
      </trkpt>
      <trkpt lat="46.18836" lon="-1.03705">
        <ele>23.1</ele>
        <time>2020-05-31T16:57:05Z</time>
      </trkpt>
      <trkpt lat="46.18833" lon="-1.03717">
        <ele>23.3</ele>
        <time>2020-05-31T16:57:06Z</time>
      </trkpt>
      <trkpt lat="46.18829" lon="-1.03729">
        <ele>23.5</ele>
        <time>2020-05-31T16:57:07Z</time>
      </trkpt>
      <trkpt lat="46.18826" lon="-1.0374">
        <ele>23.7</ele>
        <time>2020-05-31T16:57:08Z</time>
      </trkpt>
      <trkpt lat="46.18822" lon="-1.03751">
        <ele>23.9</ele>
        <time>2020-05-31T16:57:09Z</time>
      </trkpt>
      <trkpt lat="46.1882" lon="-1.03763">
        <ele>24.1</ele>
        <time>2020-05-31T16:57:10Z</time>
      </trkpt>
      <trkpt lat="46.18818" lon="-1.03774">
        <ele>24.3</ele>
        <time>2020-05-31T16:57:11Z</time>
      </trkpt>
      <trkpt lat="46.18816" lon="-1.03784">
        <ele>24.4</ele>
        <time>2020-05-31T16:57:12Z</time>
      </trkpt>
      <trkpt lat="46.18814" lon="-1.03794">
        <ele>24.4</ele>
        <time>2020-05-31T16:57:13Z</time>
      </trkpt>
      <trkpt lat="46.18812" lon="-1.03804">
        <ele>24.5</ele>
        <time>2020-05-31T16:57:14Z</time>
      </trkpt>
      <trkpt lat="46.18811" lon="-1.03813">
        <ele>24.6</ele>
        <time>2020-05-31T16:57:15Z</time>
      </trkpt>
      <trkpt lat="46.18809" lon="-1.03822">
        <ele>24.7</ele>
        <time>2020-05-31T16:57:16Z</time>
      </trkpt>
      <trkpt lat="46.18808" lon="-1.03831">
        <ele>24.9</ele>
        <time>2020-05-31T16:57:17Z</time>
      </trkpt>
      <trkpt lat="46.18806" lon="-1.0384">
        <ele>25</ele>
        <time>2020-05-31T16:57:18Z</time>
      </trkpt>
      <trkpt lat="46.18805" lon="-1.03849">
        <ele>25.1</ele>
        <time>2020-05-31T16:57:19Z</time>
      </trkpt>
      <trkpt lat="46.18804" lon="-1.03858">
        <ele>25.2</ele>
        <time>2020-05-31T16:57:20Z</time>
      </trkpt>
      <trkpt lat="46.18804" lon="-1.03867">
        <ele>25.3</ele>
        <time>2020-05-31T16:57:21Z</time>
      </trkpt>
      <trkpt lat="46.18803" lon="-1.03875">
        <ele>25.4</ele>
        <time>2020-05-31T16:57:22Z</time>
      </trkpt>
      <trkpt lat="46.18801" lon="-1.03884">
        <ele>25.5</ele>
        <time>2020-05-31T16:57:23Z</time>
      </trkpt>
      <trkpt lat="46.18802" lon="-1.03892">
        <ele>25.5</ele>
        <time>2020-05-31T16:57:24Z</time>
      </trkpt>
      <trkpt lat="46.188" lon="-1.03899">
        <ele>25.6</ele>
        <time>2020-05-31T16:57:25Z</time>
      </trkpt>
      <trkpt lat="46.188" lon="-1.03907">
        <ele>25.7</ele>
        <time>2020-05-31T16:57:26Z</time>
      </trkpt>
      <trkpt lat="46.18801" lon="-1.03915">
        <ele>25.8</ele>
        <time>2020-05-31T16:57:27Z</time>
      </trkpt>
      <trkpt lat="46.18799" lon="-1.03922">
        <ele>25.8</ele>
        <time>2020-05-31T16:57:28Z</time>
      </trkpt>
      <trkpt lat="46.18798" lon="-1.03929">
        <ele>25.9</ele>
        <time>2020-05-31T16:57:29Z</time>
      </trkpt>
      <trkpt lat="46.18797" lon="-1.03936">
        <ele>26</ele>
        <time>2020-05-31T16:57:30Z</time>
      </trkpt>
      <trkpt lat="46.18797" lon="-1.03944">
        <ele>26</ele>
        <time>2020-05-31T16:57:31Z</time>
      </trkpt>
      <trkpt lat="46.18795" lon="-1.03951">
        <ele>26.1</ele>
        <time>2020-05-31T16:57:32Z</time>
      </trkpt>
      <trkpt lat="46.18795" lon="-1.03958">
        <ele>26.2</ele>
        <time>2020-05-31T16:57:33Z</time>
      </trkpt>
      <trkpt lat="46.18794" lon="-1.03964">
        <ele>26.2</ele>
        <time>2020-05-31T16:57:34Z</time>
      </trkpt>
      <trkpt lat="46.18794" lon="-1.03971">
        <ele>26.2</ele>
        <time>2020-05-31T16:57:35Z</time>
      </trkpt>
      <trkpt lat="46.18793" lon="-1.03978">
        <ele>26.3</ele>
        <time>2020-05-31T16:57:36Z</time>
      </trkpt>
      <trkpt lat="46.18793" lon="-1.03985">
        <ele>26.3</ele>
        <time>2020-05-31T16:57:37Z</time>
      </trkpt>
      <trkpt lat="46.18793" lon="-1.03993">
        <ele>26.4</ele>
        <time>2020-05-31T16:57:38Z</time>
      </trkpt>
      <trkpt lat="46.18792" lon="-1.04001">
        <ele>26.4</ele>
        <time>2020-05-31T16:57:39Z</time>
      </trkpt>
      <trkpt lat="46.18791" lon="-1.04009">
        <ele>26.5</ele>
        <time>2020-05-31T16:57:40Z</time>
      </trkpt>
      <trkpt lat="46.1879" lon="-1.04017">
        <ele>26.5</ele>
        <time>2020-05-31T16:57:41Z</time>
      </trkpt>
      <trkpt lat="46.18789" lon="-1.04025">
        <ele>26.5</ele>
        <time>2020-05-31T16:57:42Z</time>
      </trkpt>
      <trkpt lat="46.18788" lon="-1.04034">
        <ele>26.6</ele>
        <time>2020-05-31T16:57:43Z</time>
      </trkpt>
      <trkpt lat="46.18788" lon="-1.04042">
        <ele>26.6</ele>
        <time>2020-05-31T16:57:44Z</time>
      </trkpt>
      <trkpt lat="46.18786" lon="-1.0405">
        <ele>26.6</ele>
        <time>2020-05-31T16:57:45Z</time>
      </trkpt>
      <trkpt lat="46.18784" lon="-1.04057">
        <ele>26.6</ele>
        <time>2020-05-31T16:57:46Z</time>
      </trkpt>
      <trkpt lat="46.18782" lon="-1.04065">
        <ele>26.6</ele>
        <time>2020-05-31T16:57:47Z</time>
      </trkpt>
      <trkpt lat="46.18778" lon="-1.04072">
        <ele>26.7</ele>
        <time>2020-05-31T16:57:48Z</time>
      </trkpt>
      <trkpt lat="46.18775" lon="-1.04079">
        <ele>26.7</ele>
        <time>2020-05-31T16:57:49Z</time>
      </trkpt>
      <trkpt lat="46.18772" lon="-1.04086">
        <ele>26.7</ele>
        <time>2020-05-31T16:57:50Z</time>
      </trkpt>
      <trkpt lat="46.18767" lon="-1.04092">
        <ele>26.7</ele>
        <time>2020-05-31T16:57:51Z</time>
      </trkpt>
      <trkpt lat="46.18763" lon="-1.04098">
        <ele>26.8</ele>
        <time>2020-05-31T16:57:52Z</time>
      </trkpt>
      <trkpt lat="46.18759" lon="-1.04103">
        <ele>26.8</ele>
        <time>2020-05-31T16:57:53Z</time>
      </trkpt>
      <trkpt lat="46.18754" lon="-1.04107">
        <ele>26.8</ele>
        <time>2020-05-31T16:57:54Z</time>
      </trkpt>
      <trkpt lat="46.1875" lon="-1.04111">
        <ele>26.9</ele>
        <time>2020-05-31T16:57:55Z</time>
      </trkpt>
      <trkpt lat="46.18745" lon="-1.04114">
        <ele>26.9</ele>
        <time>2020-05-31T16:57:56Z</time>
      </trkpt>
      <trkpt lat="46.1874" lon="-1.04117">
        <ele>27</ele>
        <time>2020-05-31T16:57:57Z</time>
      </trkpt>
      <trkpt lat="46.18735" lon="-1.0412">
        <ele>27</ele>
        <time>2020-05-31T16:57:58Z</time>
      </trkpt>
      <trkpt lat="46.1873" lon="-1.04123">
        <ele>27</ele>
        <time>2020-05-31T16:57:59Z</time>
      </trkpt>
      <trkpt lat="46.18726" lon="-1.04126">
        <ele>27.1</ele>
        <time>2020-05-31T16:58:00Z</time>
      </trkpt>
      <trkpt lat="46.18721" lon="-1.0413">
        <ele>27.1</ele>
        <time>2020-05-31T16:58:01Z</time>
      </trkpt>
      <trkpt lat="46.18716" lon="-1.04133">
        <ele>27.1</ele>
        <time>2020-05-31T16:58:02Z</time>
      </trkpt>
      <trkpt lat="46.18711" lon="-1.04137">
        <ele>27.1</ele>
        <time>2020-05-31T16:58:03Z</time>
      </trkpt>
      <trkpt lat="46.18707" lon="-1.0414">
        <ele>27.2</ele>
        <time>2020-05-31T16:58:04Z</time>
      </trkpt>
      <trkpt lat="46.18703" lon="-1.04146">
        <ele>27.2</ele>
        <time>2020-05-31T16:58:05Z</time>
      </trkpt>
      <trkpt lat="46.18698" lon="-1.0415">
        <ele>27.2</ele>
        <time>2020-05-31T16:58:06Z</time>
      </trkpt>
      <trkpt lat="46.18692" lon="-1.04154">
        <ele>27.2</ele>
        <time>2020-05-31T16:58:07Z</time>
      </trkpt>
      <trkpt lat="46.18687" lon="-1.0416">
        <ele>27.2</ele>
        <time>2020-05-31T16:58:08Z</time>
      </trkpt>
      <trkpt lat="46.18682" lon="-1.04165">
        <ele>27.2</ele>
        <time>2020-05-31T16:58:09Z</time>
      </trkpt>
      <trkpt lat="46.18677" lon="-1.04169">
        <ele>27.1</ele>
        <time>2020-05-31T16:58:10Z</time>
      </trkpt>
      <trkpt lat="46.18672" lon="-1.04172">
        <ele>27.1</ele>
        <time>2020-05-31T16:58:11Z</time>
      </trkpt>
      <trkpt lat="46.18666" lon="-1.04176">
        <ele>27</ele>
        <time>2020-05-31T16:58:12Z</time>
      </trkpt>
      <trkpt lat="46.18661" lon="-1.0418">
        <ele>27</ele>
        <time>2020-05-31T16:58:13Z</time>
      </trkpt>
      <trkpt lat="46.18656" lon="-1.04184">
        <ele>26.9</ele>
        <time>2020-05-31T16:58:14Z</time>
      </trkpt>
      <trkpt lat="46.18651" lon="-1.04186">
        <ele>26.9</ele>
        <time>2020-05-31T16:58:15Z</time>
      </trkpt>
      <trkpt lat="46.18646" lon="-1.04189">
        <ele>26.8</ele>
        <time>2020-05-31T16:58:16Z</time>
      </trkpt>
      <trkpt lat="46.18641" lon="-1.04192">
        <ele>26.7</ele>
        <time>2020-05-31T16:58:17Z</time>
      </trkpt>
      <trkpt lat="46.18637" lon="-1.04196">
        <ele>26.6</ele>
        <time>2020-05-31T16:58:18Z</time>
      </trkpt>
      <trkpt lat="46.18632" lon="-1.04199">
        <ele>26.5</ele>
        <time>2020-05-31T16:58:19Z</time>
      </trkpt>
      <trkpt lat="46.18627" lon="-1.04202">
        <ele>26.4</ele>
        <time>2020-05-31T16:58:20Z</time>
      </trkpt>
      <trkpt lat="46.18622" lon="-1.04206">
        <ele>26.4</ele>
        <time>2020-05-31T16:58:21Z</time>
      </trkpt>
      <trkpt lat="46.18618" lon="-1.0421">
        <ele>26.3</ele>
        <time>2020-05-31T16:58:22Z</time>
      </trkpt>
      <trkpt lat="46.18614" lon="-1.04214">
        <ele>26.3</ele>
        <time>2020-05-31T16:58:23Z</time>
      </trkpt>
      <trkpt lat="46.1861" lon="-1.04218">
        <ele>26.2</ele>
        <time>2020-05-31T16:58:24Z</time>
      </trkpt>
      <trkpt lat="46.18606" lon="-1.04222">
        <ele>26.1</ele>
        <time>2020-05-31T16:58:25Z</time>
      </trkpt>
      <trkpt lat="46.18601" lon="-1.04225">
        <ele>26.1</ele>
        <time>2020-05-31T16:58:26Z</time>
      </trkpt>
      <trkpt lat="46.18597" lon="-1.0423">
        <ele>26</ele>
        <time>2020-05-31T16:58:27Z</time>
      </trkpt>
      <trkpt lat="46.18594" lon="-1.04235">
        <ele>25.9</ele>
        <time>2020-05-31T16:58:28Z</time>
      </trkpt>
      <trkpt lat="46.1859" lon="-1.0424">
        <ele>25.8</ele>
        <time>2020-05-31T16:58:29Z</time>
      </trkpt>
      <trkpt lat="46.18585" lon="-1.04244">
        <ele>25.7</ele>
        <time>2020-05-31T16:58:30Z</time>
      </trkpt>
      <trkpt lat="46.18581" lon="-1.04249">
        <ele>25.6</ele>
        <time>2020-05-31T16:58:31Z</time>
      </trkpt>
      <trkpt lat="46.18576" lon="-1.04254">
        <ele>25.4</ele>
        <time>2020-05-31T16:58:32Z</time>
      </trkpt>
      <trkpt lat="46.18571" lon="-1.04261">
        <ele>25.3</ele>
        <time>2020-05-31T16:58:33Z</time>
      </trkpt>
      <trkpt lat="46.18567" lon="-1.04268">
        <ele>25.1</ele>
        <time>2020-05-31T16:58:34Z</time>
      </trkpt>
      <trkpt lat="46.18562" lon="-1.04273">
        <ele>25</ele>
        <time>2020-05-31T16:58:35Z</time>
      </trkpt>
      <trkpt lat="46.18556" lon="-1.04277">
        <ele>24.7</ele>
        <time>2020-05-31T16:58:36Z</time>
      </trkpt>
      <trkpt lat="46.18551" lon="-1.04283">
        <ele>24.5</ele>
        <time>2020-05-31T16:58:37Z</time>
      </trkpt>
      <trkpt lat="46.18546" lon="-1.04289">
        <ele>24.1</ele>
        <time>2020-05-31T16:58:38Z</time>
      </trkpt>
      <trkpt lat="46.1854" lon="-1.04295">
        <ele>23.8</ele>
        <time>2020-05-31T16:58:39Z</time>
      </trkpt>
      <trkpt lat="46.18533" lon="-1.04301">
        <ele>23.5</ele>
        <time>2020-05-31T16:58:40Z</time>
      </trkpt>
      <trkpt lat="46.18528" lon="-1.04307">
        <ele>23.3</ele>
        <time>2020-05-31T16:58:41Z</time>
      </trkpt>
      <trkpt lat="46.18522" lon="-1.04313">
        <ele>23.1</ele>
        <time>2020-05-31T16:58:42Z</time>
      </trkpt>
      <trkpt lat="46.18517" lon="-1.04318">
        <ele>22.9</ele>
        <time>2020-05-31T16:58:43Z</time>
      </trkpt>
      <trkpt lat="46.18511" lon="-1.04324">
        <ele>22.7</ele>
        <time>2020-05-31T16:58:44Z</time>
      </trkpt>
      <trkpt lat="46.18506" lon="-1.04331">
        <ele>22.5</ele>
        <time>2020-05-31T16:58:45Z</time>
      </trkpt>
      <trkpt lat="46.185" lon="-1.04337">
        <ele>22.3</ele>
        <time>2020-05-31T16:58:46Z</time>
      </trkpt>
      <trkpt lat="46.18495" lon="-1.04345">
        <ele>21.9</ele>
        <time>2020-05-31T16:58:47Z</time>
      </trkpt>
      <trkpt lat="46.18488" lon="-1.04351">
        <ele>21.6</ele>
        <time>2020-05-31T16:58:48Z</time>
      </trkpt>
      <trkpt lat="46.18482" lon="-1.04358">
        <ele>21.2</ele>
        <time>2020-05-31T16:58:49Z</time>
      </trkpt>
      <trkpt lat="46.18476" lon="-1.04366">
        <ele>20.8</ele>
        <time>2020-05-31T16:58:50Z</time>
      </trkpt>
      <trkpt lat="46.1847" lon="-1.04373">
        <ele>20.5</ele>
        <time>2020-05-31T16:58:51Z</time>
      </trkpt>
      <trkpt lat="46.18463" lon="-1.0438">
        <ele>20.1</ele>
        <time>2020-05-31T16:58:52Z</time>
      </trkpt>
      <trkpt lat="46.18457" lon="-1.04388">
        <ele>19.8</ele>
        <time>2020-05-31T16:58:53Z</time>
      </trkpt>
      <trkpt lat="46.18451" lon="-1.04396">
        <ele>19.5</ele>
        <time>2020-05-31T16:58:54Z</time>
      </trkpt>
      <trkpt lat="46.18444" lon="-1.04405">
        <ele>19.3</ele>
        <time>2020-05-31T16:58:55Z</time>
      </trkpt>
      <trkpt lat="46.18437" lon="-1.04414">
        <ele>19.1</ele>
        <time>2020-05-31T16:58:56Z</time>
      </trkpt>
      <trkpt lat="46.18429" lon="-1.04423">
        <ele>18.9</ele>
        <time>2020-05-31T16:58:57Z</time>
      </trkpt>
      <trkpt lat="46.18422" lon="-1.04431">
        <ele>18.6</ele>
        <time>2020-05-31T16:58:58Z</time>
      </trkpt>
      <trkpt lat="46.18413" lon="-1.04438">
        <ele>18.3</ele>
        <time>2020-05-31T16:58:59Z</time>
      </trkpt>
      <trkpt lat="46.18405" lon="-1.04445">
        <ele>18</ele>
        <time>2020-05-31T16:59:00Z</time>
      </trkpt>
      <trkpt lat="46.18397" lon="-1.04453">
        <ele>17.7</ele>
        <time>2020-05-31T16:59:01Z</time>
      </trkpt>
      <trkpt lat="46.18389" lon="-1.04462">
        <ele>17.4</ele>
        <time>2020-05-31T16:59:02Z</time>
      </trkpt>
      <trkpt lat="46.18382" lon="-1.0447">
        <ele>17.2</ele>
        <time>2020-05-31T16:59:03Z</time>
      </trkpt>
      <trkpt lat="46.18375" lon="-1.04477">
        <ele>17.1</ele>
        <time>2020-05-31T16:59:04Z</time>
      </trkpt>
      <trkpt lat="46.18369" lon="-1.04486">
        <ele>17.1</ele>
        <time>2020-05-31T16:59:05Z</time>
      </trkpt>
      <trkpt lat="46.18364" lon="-1.04496">
        <ele>17.1</ele>
        <time>2020-05-31T16:59:06Z</time>
      </trkpt>
      <trkpt lat="46.1836" lon="-1.04507">
        <ele>17.1</ele>
        <time>2020-05-31T16:59:07Z</time>
      </trkpt>
      <trkpt lat="46.18356" lon="-1.04517">
        <ele>17.2</ele>
        <time>2020-05-31T16:59:08Z</time>
      </trkpt>
      <trkpt lat="46.18353" lon="-1.04528">
        <ele>17.3</ele>
        <time>2020-05-31T16:59:09Z</time>
      </trkpt>
      <trkpt lat="46.1835" lon="-1.04539">
        <ele>17.3</ele>
        <time>2020-05-31T16:59:10Z</time>
      </trkpt>
      <trkpt lat="46.18347" lon="-1.04549">
        <ele>17.4</ele>
        <time>2020-05-31T16:59:11Z</time>
      </trkpt>
      <trkpt lat="46.18343" lon="-1.04559">
        <ele>17.4</ele>
        <time>2020-05-31T16:59:12Z</time>
      </trkpt>
      <trkpt lat="46.18339" lon="-1.04568">
        <ele>17.5</ele>
        <time>2020-05-31T16:59:13Z</time>
      </trkpt>
      <trkpt lat="46.18335" lon="-1.04576">
        <ele>17.6</ele>
        <time>2020-05-31T16:59:14Z</time>
      </trkpt>
      <trkpt lat="46.18333" lon="-1.04585">
        <ele>17.7</ele>
        <time>2020-05-31T16:59:15Z</time>
      </trkpt>
      <trkpt lat="46.18329" lon="-1.04592">
        <ele>17.8</ele>
        <time>2020-05-31T16:59:16Z</time>
      </trkpt>
      <trkpt lat="46.18326" lon="-1.046">
        <ele>17.9</ele>
        <time>2020-05-31T16:59:17Z</time>
      </trkpt>
      <trkpt lat="46.18323" lon="-1.04607">
        <ele>18</ele>
        <time>2020-05-31T16:59:18Z</time>
      </trkpt>
      <trkpt lat="46.1832" lon="-1.04614">
        <ele>18.1</ele>
        <time>2020-05-31T16:59:19Z</time>
      </trkpt>
      <trkpt lat="46.18316" lon="-1.0462">
        <ele>18.2</ele>
        <time>2020-05-31T16:59:20Z</time>
      </trkpt>
      <trkpt lat="46.18314" lon="-1.04625">
        <ele>18.2</ele>
        <time>2020-05-31T16:59:21Z</time>
      </trkpt>
      <trkpt lat="46.18312" lon="-1.0463">
        <ele>18.3</ele>
        <time>2020-05-31T16:59:22Z</time>
      </trkpt>
      <trkpt lat="46.18309" lon="-1.04634">
        <ele>18.4</ele>
        <time>2020-05-31T16:59:23Z</time>
      </trkpt>
      <trkpt lat="46.18307" lon="-1.04638">
        <ele>18.4</ele>
        <time>2020-05-31T16:59:24Z</time>
      </trkpt>
      <trkpt lat="46.18305" lon="-1.04641">
        <ele>18.5</ele>
        <time>2020-05-31T16:59:25Z</time>
      </trkpt>
      <trkpt lat="46.18304" lon="-1.04644">
        <ele>18.6</ele>
        <time>2020-05-31T16:59:26Z</time>
      </trkpt>
      <trkpt lat="46.18301" lon="-1.04647">
        <ele>18.6</ele>
        <time>2020-05-31T16:59:27Z</time>
      </trkpt>
      <trkpt lat="46.18299" lon="-1.0465">
        <ele>18.7</ele>
        <time>2020-05-31T16:59:28Z</time>
      </trkpt>
      <trkpt lat="46.18296" lon="-1.04653">
        <ele>18.8</ele>
        <time>2020-05-31T16:59:29Z</time>
      </trkpt>
      <trkpt lat="46.18293" lon="-1.04656">
        <ele>18.9</ele>
        <time>2020-05-31T16:59:30Z</time>
      </trkpt>
      <trkpt lat="46.18292" lon="-1.04658">
        <ele>19</ele>
        <time>2020-05-31T16:59:31Z</time>
      </trkpt>
      <trkpt lat="46.18289" lon="-1.04661">
        <ele>19.1</ele>
        <time>2020-05-31T16:59:32Z</time>
      </trkpt>
      <trkpt lat="46.18287" lon="-1.04664">
        <ele>19.2</ele>
        <time>2020-05-31T16:59:33Z</time>
      </trkpt>
      <trkpt lat="46.18284" lon="-1.04665">
        <ele>19.3</ele>
        <time>2020-05-31T16:59:34Z</time>
      </trkpt>
      <trkpt lat="46.18282" lon="-1.04667">
        <ele>19.3</ele>
        <time>2020-05-31T16:59:35Z</time>
      </trkpt>
      <trkpt lat="46.18279" lon="-1.04668">
        <ele>19.4</ele>
        <time>2020-05-31T16:59:36Z</time>
      </trkpt>
      <trkpt lat="46.18276" lon="-1.0467">
        <ele>19.5</ele>
        <time>2020-05-31T16:59:37Z</time>
      </trkpt>
      <trkpt lat="46.18273" lon="-1.04671">
        <ele>19.6</ele>
        <time>2020-05-31T16:59:38Z</time>
      </trkpt>
      <trkpt lat="46.18269" lon="-1.04673">
        <ele>19.7</ele>
        <time>2020-05-31T16:59:39Z</time>
      </trkpt>
      <trkpt lat="46.18268" lon="-1.04673">
        <ele>19.7</ele>
        <time>2020-05-31T16:59:40Z</time>
      </trkpt>
      <trkpt lat="46.18264" lon="-1.04676">
        <ele>19.8</ele>
        <time>2020-05-31T16:59:41Z</time>
      </trkpt>
      <trkpt lat="46.18263" lon="-1.04677">
        <ele>19.8</ele>
        <time>2020-05-31T16:59:42Z</time>
      </trkpt>
      <trkpt lat="46.1826" lon="-1.04679">
        <ele>19.9</ele>
        <time>2020-05-31T16:59:43Z</time>
      </trkpt>
      <trkpt lat="46.18259" lon="-1.0468">
        <ele>19.9</ele>
        <time>2020-05-31T16:59:44Z</time>
      </trkpt>
      <trkpt lat="46.18255" lon="-1.04681">
        <ele>20</ele>
        <time>2020-05-31T16:59:45Z</time>
      </trkpt>
      <trkpt lat="46.18254" lon="-1.04681">
        <ele>20</ele>
        <time>2020-05-31T16:59:46Z</time>
      </trkpt>
      <trkpt lat="46.18251" lon="-1.04684">
        <ele>20</ele>
        <time>2020-05-31T16:59:47Z</time>
      </trkpt>
      <trkpt lat="46.1825" lon="-1.04685">
        <ele>20</ele>
        <time>2020-05-31T16:59:48Z</time>
      </trkpt>
      <trkpt lat="46.18246" lon="-1.04684">
        <ele>20.1</ele>
        <time>2020-05-31T16:59:49Z</time>
      </trkpt>
      <trkpt lat="46.18245" lon="-1.04684">
        <ele>20.1</ele>
        <time>2020-05-31T16:59:50Z</time>
      </trkpt>
      <trkpt lat="46.18242" lon="-1.04685">
        <ele>20.1</ele>
        <time>2020-05-31T16:59:51Z</time>
      </trkpt>
      <trkpt lat="46.18239" lon="-1.04687">
        <ele>20.1</ele>
        <time>2020-05-31T16:59:52Z</time>
      </trkpt>
      <trkpt lat="46.18238" lon="-1.04687">
        <ele>20.2</ele>
        <time>2020-05-31T16:59:53Z</time>
      </trkpt>
      <trkpt lat="46.18234" lon="-1.04688">
        <ele>20.2</ele>
        <time>2020-05-31T16:59:54Z</time>
      </trkpt>
      <trkpt lat="46.18233" lon="-1.04688">
        <ele>20.2</ele>
        <time>2020-05-31T16:59:55Z</time>
      </trkpt>
      <trkpt lat="46.18229" lon="-1.04689">
        <ele>20.2</ele>
        <time>2020-05-31T16:59:56Z</time>
      </trkpt>
      <trkpt lat="46.18227" lon="-1.04689">
        <ele>20.2</ele>
        <time>2020-05-31T16:59:57Z</time>
      </trkpt>
      <trkpt lat="46.18224" lon="-1.04692">
        <ele>20.2</ele>
        <time>2020-05-31T16:59:58Z</time>
      </trkpt>
      <trkpt lat="46.18222" lon="-1.04694">
        <ele>20.3</ele>
        <time>2020-05-31T16:59:59Z</time>
      </trkpt>
      <trkpt lat="46.18218" lon="-1.04694">
        <ele>20.3</ele>
        <time>2020-05-31T17:00:00Z</time>
      </trkpt>
      <trkpt lat="46.18215" lon="-1.04694">
        <ele>20.3</ele>
        <time>2020-05-31T17:00:01Z</time>
      </trkpt>
      <trkpt lat="46.18213" lon="-1.04696">
        <ele>20.3</ele>
        <time>2020-05-31T17:00:02Z</time>
      </trkpt>
      <trkpt lat="46.18209" lon="-1.04696">
        <ele>20.4</ele>
        <time>2020-05-31T17:00:03Z</time>
      </trkpt>
      <trkpt lat="46.18207" lon="-1.04696">
        <ele>20.4</ele>
        <time>2020-05-31T17:00:04Z</time>
      </trkpt>
      <trkpt lat="46.18204" lon="-1.04697">
        <ele>20.4</ele>
        <time>2020-05-31T17:00:05Z</time>
      </trkpt>
      <trkpt lat="46.18201" lon="-1.04698">
        <ele>20.4</ele>
        <time>2020-05-31T17:00:06Z</time>
      </trkpt>
      <trkpt lat="46.18197" lon="-1.04698">
        <ele>20.4</ele>
        <time>2020-05-31T17:00:07Z</time>
      </trkpt>
      <trkpt lat="46.18194" lon="-1.04698">
        <ele>20.4</ele>
        <time>2020-05-31T17:00:08Z</time>
      </trkpt>
      <trkpt lat="46.1819" lon="-1.04698">
        <ele>20.5</ele>
        <time>2020-05-31T17:00:09Z</time>
      </trkpt>
      <trkpt lat="46.18186" lon="-1.04698">
        <ele>20.5</ele>
        <time>2020-05-31T17:00:10Z</time>
      </trkpt>
      <trkpt lat="46.18182" lon="-1.04697">
        <ele>20.5</ele>
        <time>2020-05-31T17:00:11Z</time>
      </trkpt>
      <trkpt lat="46.18178" lon="-1.04696">
        <ele>20.5</ele>
        <time>2020-05-31T17:00:12Z</time>
      </trkpt>
      <trkpt lat="46.18174" lon="-1.04696">
        <ele>20.5</ele>
        <time>2020-05-31T17:00:13Z</time>
      </trkpt>
      <trkpt lat="46.1817" lon="-1.04695">
        <ele>20.5</ele>
        <time>2020-05-31T17:00:14Z</time>
      </trkpt>
      <trkpt lat="46.18166" lon="-1.04695">
        <ele>20.5</ele>
        <time>2020-05-31T17:00:15Z</time>
      </trkpt>
      <trkpt lat="46.18162" lon="-1.04695">
        <ele>20.6</ele>
        <time>2020-05-31T17:00:16Z</time>
      </trkpt>
      <trkpt lat="46.18158" lon="-1.04696">
        <ele>20.6</ele>
        <time>2020-05-31T17:00:17Z</time>
      </trkpt>
      <trkpt lat="46.18154" lon="-1.04698">
        <ele>20.6</ele>
        <time>2020-05-31T17:00:18Z</time>
      </trkpt>
      <trkpt lat="46.1815" lon="-1.047">
        <ele>20.6</ele>
        <time>2020-05-31T17:00:19Z</time>
      </trkpt>
      <trkpt lat="46.18147" lon="-1.04701">
        <ele>20.6</ele>
        <time>2020-05-31T17:00:20Z</time>
      </trkpt>
      <trkpt lat="46.18143" lon="-1.04703">
        <ele>20.6</ele>
        <time>2020-05-31T17:00:21Z</time>
      </trkpt>
      <trkpt lat="46.1814" lon="-1.04705">
        <ele>20.6</ele>
        <time>2020-05-31T17:00:22Z</time>
      </trkpt>
      <trkpt lat="46.18136" lon="-1.04706">
        <ele>20.6</ele>
        <time>2020-05-31T17:00:23Z</time>
      </trkpt>
      <trkpt lat="46.18133" lon="-1.04709">
        <ele>20.6</ele>
        <time>2020-05-31T17:00:24Z</time>
      </trkpt>
      <trkpt lat="46.18129" lon="-1.04712">
        <ele>20.6</ele>
        <time>2020-05-31T17:00:25Z</time>
      </trkpt>
      <trkpt lat="46.18126" lon="-1.04715">
        <ele>20.6</ele>
        <time>2020-05-31T17:00:26Z</time>
      </trkpt>
      <trkpt lat="46.18124" lon="-1.04719">
        <ele>20.6</ele>
        <time>2020-05-31T17:00:27Z</time>
      </trkpt>
      <trkpt lat="46.18121" lon="-1.04724">
        <ele>20.6</ele>
        <time>2020-05-31T17:00:28Z</time>
      </trkpt>
      <trkpt lat="46.18118" lon="-1.0473">
        <ele>20.6</ele>
        <time>2020-05-31T17:00:29Z</time>
      </trkpt>
      <trkpt lat="46.18115" lon="-1.04734">
        <ele>20.6</ele>
        <time>2020-05-31T17:00:30Z</time>
      </trkpt>
      <trkpt lat="46.18111" lon="-1.04739">
        <ele>20.6</ele>
        <time>2020-05-31T17:00:31Z</time>
      </trkpt>
      <trkpt lat="46.18109" lon="-1.04744">
        <ele>20.7</ele>
        <time>2020-05-31T17:00:32Z</time>
      </trkpt>
      <trkpt lat="46.18106" lon="-1.04748">
        <ele>20.7</ele>
        <time>2020-05-31T17:00:33Z</time>
      </trkpt>
      <trkpt lat="46.18103" lon="-1.04752">
        <ele>20.7</ele>
        <time>2020-05-31T17:00:34Z</time>
      </trkpt>
      <trkpt lat="46.181" lon="-1.04757">
        <ele>20.7</ele>
        <time>2020-05-31T17:00:35Z</time>
      </trkpt>
      <trkpt lat="46.18097" lon="-1.04761">
        <ele>20.7</ele>
        <time>2020-05-31T17:00:36Z</time>
      </trkpt>
      <trkpt lat="46.18095" lon="-1.04766">
        <ele>20.7</ele>
        <time>2020-05-31T17:00:37Z</time>
      </trkpt>
      <trkpt lat="46.18092" lon="-1.04772">
        <ele>20.8</ele>
        <time>2020-05-31T17:00:38Z</time>
      </trkpt>
      <trkpt lat="46.18089" lon="-1.04777">
        <ele>20.8</ele>
        <time>2020-05-31T17:00:39Z</time>
      </trkpt>
      <trkpt lat="46.18086" lon="-1.0478">
        <ele>20.8</ele>
        <time>2020-05-31T17:00:40Z</time>
      </trkpt>
      <trkpt lat="46.18082" lon="-1.04785">
        <ele>20.8</ele>
        <time>2020-05-31T17:00:41Z</time>
      </trkpt>
      <trkpt lat="46.18078" lon="-1.04788">
        <ele>20.8</ele>
        <time>2020-05-31T17:00:42Z</time>
      </trkpt>
      <trkpt lat="46.18075" lon="-1.04793">
        <ele>20.8</ele>
        <time>2020-05-31T17:00:43Z</time>
      </trkpt>
      <trkpt lat="46.18072" lon="-1.04797">
        <ele>20.9</ele>
        <time>2020-05-31T17:00:44Z</time>
      </trkpt>
      <trkpt lat="46.18068" lon="-1.048">
        <ele>20.9</ele>
        <time>2020-05-31T17:00:45Z</time>
      </trkpt>
      <trkpt lat="46.18065" lon="-1.04804">
        <ele>20.9</ele>
        <time>2020-05-31T17:00:46Z</time>
      </trkpt>
      <trkpt lat="46.18061" lon="-1.04808">
        <ele>20.9</ele>
        <time>2020-05-31T17:00:47Z</time>
      </trkpt>
      <trkpt lat="46.18058" lon="-1.04813">
        <ele>20.9</ele>
        <time>2020-05-31T17:00:48Z</time>
      </trkpt>
      <trkpt lat="46.18054" lon="-1.04817">
        <ele>21</ele>
        <time>2020-05-31T17:00:49Z</time>
      </trkpt>
      <trkpt lat="46.18051" lon="-1.0482">
        <ele>21</ele>
        <time>2020-05-31T17:00:50Z</time>
      </trkpt>
      <trkpt lat="46.18047" lon="-1.04824">
        <ele>21</ele>
        <time>2020-05-31T17:00:51Z</time>
      </trkpt>
      <trkpt lat="46.18044" lon="-1.04827">
        <ele>21.1</ele>
        <time>2020-05-31T17:00:52Z</time>
      </trkpt>
      <trkpt lat="46.18042" lon="-1.04831">
        <ele>21.1</ele>
        <time>2020-05-31T17:00:53Z</time>
      </trkpt>
      <trkpt lat="46.18039" lon="-1.04834">
        <ele>21.1</ele>
        <time>2020-05-31T17:00:54Z</time>
      </trkpt>
      <trkpt lat="46.18035" lon="-1.04838">
        <ele>21.2</ele>
        <time>2020-05-31T17:00:55Z</time>
      </trkpt>
      <trkpt lat="46.18031" lon="-1.04841">
        <ele>21.2</ele>
        <time>2020-05-31T17:00:56Z</time>
      </trkpt>
      <trkpt lat="46.18028" lon="-1.04845">
        <ele>21.2</ele>
        <time>2020-05-31T17:00:57Z</time>
      </trkpt>
      <trkpt lat="46.18025" lon="-1.04848">
        <ele>21.2</ele>
        <time>2020-05-31T17:00:58Z</time>
      </trkpt>
      <trkpt lat="46.18022" lon="-1.04851">
        <ele>21.2</ele>
        <time>2020-05-31T17:00:59Z</time>
      </trkpt>
      <trkpt lat="46.18019" lon="-1.04855">
        <ele>21.3</ele>
        <time>2020-05-31T17:01:00Z</time>
      </trkpt>
      <trkpt lat="46.18016" lon="-1.04858">
        <ele>21.3</ele>
        <time>2020-05-31T17:01:01Z</time>
      </trkpt>
      <trkpt lat="46.18013" lon="-1.04861">
        <ele>21.3</ele>
        <time>2020-05-31T17:01:02Z</time>
      </trkpt>
      <trkpt lat="46.18009" lon="-1.04864">
        <ele>21.3</ele>
        <time>2020-05-31T17:01:03Z</time>
      </trkpt>
      <trkpt lat="46.18005" lon="-1.04867">
        <ele>21.3</ele>
        <time>2020-05-31T17:01:04Z</time>
      </trkpt>
      <trkpt lat="46.18002" lon="-1.0487">
        <ele>21.3</ele>
        <time>2020-05-31T17:01:05Z</time>
      </trkpt>
      <trkpt lat="46.17999" lon="-1.04874">
        <ele>21.3</ele>
        <time>2020-05-31T17:01:06Z</time>
      </trkpt>
      <trkpt lat="46.17996" lon="-1.04877">
        <ele>21.3</ele>
        <time>2020-05-31T17:01:07Z</time>
      </trkpt>
      <trkpt lat="46.17993" lon="-1.0488">
        <ele>21.4</ele>
        <time>2020-05-31T17:01:08Z</time>
      </trkpt>
      <trkpt lat="46.1799" lon="-1.04884">
        <ele>21.4</ele>
        <time>2020-05-31T17:01:09Z</time>
      </trkpt>
      <trkpt lat="46.17986" lon="-1.04887">
        <ele>21.4</ele>
        <time>2020-05-31T17:01:10Z</time>
      </trkpt>
      <trkpt lat="46.17983" lon="-1.04891">
        <ele>21.4</ele>
        <time>2020-05-31T17:01:11Z</time>
      </trkpt>
      <trkpt lat="46.1798" lon="-1.04895">
        <ele>21.4</ele>
        <time>2020-05-31T17:01:12Z</time>
      </trkpt>
      <trkpt lat="46.17977" lon="-1.04898">
        <ele>21.4</ele>
        <time>2020-05-31T17:01:13Z</time>
      </trkpt>
      <trkpt lat="46.17974" lon="-1.04901">
        <ele>21.5</ele>
        <time>2020-05-31T17:01:14Z</time>
      </trkpt>
      <trkpt lat="46.17971" lon="-1.04905">
        <ele>21.5</ele>
        <time>2020-05-31T17:01:15Z</time>
      </trkpt>
      <trkpt lat="46.17968" lon="-1.04909">
        <ele>21.5</ele>
        <time>2020-05-31T17:01:16Z</time>
      </trkpt>
      <trkpt lat="46.17965" lon="-1.04914">
        <ele>21.5</ele>
        <time>2020-05-31T17:01:17Z</time>
      </trkpt>
      <trkpt lat="46.17963" lon="-1.04917">
        <ele>21.5</ele>
        <time>2020-05-31T17:01:18Z</time>
      </trkpt>
      <trkpt lat="46.1796" lon="-1.04921">
        <ele>21.5</ele>
        <time>2020-05-31T17:01:19Z</time>
      </trkpt>
      <trkpt lat="46.17957" lon="-1.04925">
        <ele>21.5</ele>
        <time>2020-05-31T17:01:20Z</time>
      </trkpt>
      <trkpt lat="46.17954" lon="-1.04927">
        <ele>21.5</ele>
        <time>2020-05-31T17:01:21Z</time>
      </trkpt>
      <trkpt lat="46.17951" lon="-1.0493">
        <ele>21.5</ele>
        <time>2020-05-31T17:01:22Z</time>
      </trkpt>
      <trkpt lat="46.17949" lon="-1.04933">
        <ele>21.5</ele>
        <time>2020-05-31T17:01:23Z</time>
      </trkpt>
      <trkpt lat="46.17946" lon="-1.04936">
        <ele>21.6</ele>
        <time>2020-05-31T17:01:24Z</time>
      </trkpt>
      <trkpt lat="46.17943" lon="-1.0494">
        <ele>21.6</ele>
        <time>2020-05-31T17:01:25Z</time>
      </trkpt>
      <trkpt lat="46.1794" lon="-1.04944">
        <ele>21.6</ele>
        <time>2020-05-31T17:01:26Z</time>
      </trkpt>
      <trkpt lat="46.17938" lon="-1.04948">
        <ele>21.6</ele>
        <time>2020-05-31T17:01:27Z</time>
      </trkpt>
      <trkpt lat="46.17936" lon="-1.04954">
        <ele>21.6</ele>
        <time>2020-05-31T17:01:28Z</time>
      </trkpt>
      <trkpt lat="46.17934" lon="-1.0496">
        <ele>21.6</ele>
        <time>2020-05-31T17:01:29Z</time>
      </trkpt>
      <trkpt lat="46.17932" lon="-1.04966">
        <ele>21.6</ele>
        <time>2020-05-31T17:01:30Z</time>
      </trkpt>
      <trkpt lat="46.1793" lon="-1.04974">
        <ele>21.6</ele>
        <time>2020-05-31T17:01:31Z</time>
      </trkpt>
      <trkpt lat="46.17929" lon="-1.04981">
        <ele>21.7</ele>
        <time>2020-05-31T17:01:32Z</time>
      </trkpt>
      <trkpt lat="46.17927" lon="-1.04987">
        <ele>21.7</ele>
        <time>2020-05-31T17:01:33Z</time>
      </trkpt>
      <trkpt lat="46.17926" lon="-1.04993">
        <ele>21.7</ele>
        <time>2020-05-31T17:01:34Z</time>
      </trkpt>
      <trkpt lat="46.17924" lon="-1.04998">
        <ele>21.7</ele>
        <time>2020-05-31T17:01:35Z</time>
      </trkpt>
      <trkpt lat="46.17922" lon="-1.05004">
        <ele>21.7</ele>
        <time>2020-05-31T17:01:36Z</time>
      </trkpt>
      <trkpt lat="46.1792" lon="-1.0501">
        <ele>21.7</ele>
        <time>2020-05-31T17:01:37Z</time>
      </trkpt>
      <trkpt lat="46.17918" lon="-1.05015">
        <ele>21.7</ele>
        <time>2020-05-31T17:01:38Z</time>
      </trkpt>
      <trkpt lat="46.17916" lon="-1.05022">
        <ele>21.7</ele>
        <time>2020-05-31T17:01:39Z</time>
      </trkpt>
      <trkpt lat="46.17914" lon="-1.05028">
        <ele>21.7</ele>
        <time>2020-05-31T17:01:40Z</time>
      </trkpt>
      <trkpt lat="46.17913" lon="-1.05034">
        <ele>21.7</ele>
        <time>2020-05-31T17:01:41Z</time>
      </trkpt>
      <trkpt lat="46.17919" lon="-1.05039">
        <ele>21.7</ele>
        <time>2020-05-31T17:01:42Z</time>
      </trkpt>
      <trkpt lat="46.17918" lon="-1.05044">
        <ele>21.7</ele>
        <time>2020-05-31T17:01:43Z</time>
      </trkpt>
      <trkpt lat="46.17915" lon="-1.0505">
        <ele>21.7</ele>
        <time>2020-05-31T17:01:44Z</time>
      </trkpt>
      <trkpt lat="46.17913" lon="-1.05057">
        <ele>21.7</ele>
        <time>2020-05-31T17:01:45Z</time>
      </trkpt>
      <trkpt lat="46.17911" lon="-1.05064">
        <ele>21.7</ele>
        <time>2020-05-31T17:01:46Z</time>
      </trkpt>
      <trkpt lat="46.17909" lon="-1.05071">
        <ele>21.7</ele>
        <time>2020-05-31T17:01:47Z</time>
      </trkpt>
      <trkpt lat="46.1791" lon="-1.05077">
        <ele>21.7</ele>
        <time>2020-05-31T17:01:48Z</time>
      </trkpt>
      <trkpt lat="46.17908" lon="-1.05085">
        <ele>21.8</ele>
        <time>2020-05-31T17:01:49Z</time>
      </trkpt>
      <trkpt lat="46.17907" lon="-1.05091">
        <ele>21.8</ele>
        <time>2020-05-31T17:01:50Z</time>
      </trkpt>
      <trkpt lat="46.17906" lon="-1.05099">
        <ele>21.8</ele>
        <time>2020-05-31T17:01:51Z</time>
      </trkpt>
      <trkpt lat="46.17904" lon="-1.05106">
        <ele>21.8</ele>
        <time>2020-05-31T17:01:52Z</time>
      </trkpt>
      <trkpt lat="46.17899" lon="-1.05119">
        <ele>21.9</ele>
        <time>2020-05-31T17:01:53Z</time>
      </trkpt>
      <trkpt lat="46.17897" lon="-1.05125">
        <ele>21.9</ele>
        <time>2020-05-31T17:01:54Z</time>
      </trkpt>
      <trkpt lat="46.17895" lon="-1.0513">
        <ele>21.9</ele>
        <time>2020-05-31T17:01:55Z</time>
      </trkpt>
      <trkpt lat="46.17893" lon="-1.05135">
        <ele>21.9</ele>
        <time>2020-05-31T17:01:56Z</time>
      </trkpt>
      <trkpt lat="46.17891" lon="-1.0514">
        <ele>22</ele>
        <time>2020-05-31T17:01:57Z</time>
      </trkpt>
      <trkpt lat="46.1789" lon="-1.05145">
        <ele>22</ele>
        <time>2020-05-31T17:01:58Z</time>
      </trkpt>
      <trkpt lat="46.17889" lon="-1.05151">
        <ele>22</ele>
        <time>2020-05-31T17:01:59Z</time>
      </trkpt>
      <trkpt lat="46.17888" lon="-1.05157">
        <ele>22</ele>
        <time>2020-05-31T17:02:00Z</time>
      </trkpt>
      <trkpt lat="46.17886" lon="-1.05163">
        <ele>22</ele>
        <time>2020-05-31T17:02:01Z</time>
      </trkpt>
      <trkpt lat="46.17884" lon="-1.05169">
        <ele>22.1</ele>
        <time>2020-05-31T17:02:02Z</time>
      </trkpt>
      <trkpt lat="46.17883" lon="-1.05176">
        <ele>22.1</ele>
        <time>2020-05-31T17:02:03Z</time>
      </trkpt>
      <trkpt lat="46.17882" lon="-1.05183">
        <ele>22</ele>
        <time>2020-05-31T17:02:04Z</time>
      </trkpt>
      <trkpt lat="46.17881" lon="-1.05191">
        <ele>22</ele>
        <time>2020-05-31T17:02:05Z</time>
      </trkpt>
      <trkpt lat="46.1788" lon="-1.05199">
        <ele>22</ele>
        <time>2020-05-31T17:02:06Z</time>
      </trkpt>
      <trkpt lat="46.17878" lon="-1.05206">
        <ele>21.9</ele>
        <time>2020-05-31T17:02:07Z</time>
      </trkpt>
      <trkpt lat="46.17877" lon="-1.05213">
        <ele>21.9</ele>
        <time>2020-05-31T17:02:08Z</time>
      </trkpt>
      <trkpt lat="46.17875" lon="-1.0522">
        <ele>21.9</ele>
        <time>2020-05-31T17:02:09Z</time>
      </trkpt>
      <trkpt lat="46.17875" lon="-1.05226">
        <ele>21.8</ele>
        <time>2020-05-31T17:02:10Z</time>
      </trkpt>
      <trkpt lat="46.17874" lon="-1.05232">
        <ele>21.8</ele>
        <time>2020-05-31T17:02:11Z</time>
      </trkpt>
      <trkpt lat="46.17872" lon="-1.05238">
        <ele>21.8</ele>
        <time>2020-05-31T17:02:12Z</time>
      </trkpt>
      <trkpt lat="46.1787" lon="-1.05246">
        <ele>21.7</ele>
        <time>2020-05-31T17:02:13Z</time>
      </trkpt>
      <trkpt lat="46.17868" lon="-1.05254">
        <ele>21.7</ele>
        <time>2020-05-31T17:02:14Z</time>
      </trkpt>
      <trkpt lat="46.17867" lon="-1.05261">
        <ele>21.6</ele>
        <time>2020-05-31T17:02:15Z</time>
      </trkpt>
      <trkpt lat="46.17866" lon="-1.05268">
        <ele>21.6</ele>
        <time>2020-05-31T17:02:16Z</time>
      </trkpt>
      <trkpt lat="46.17864" lon="-1.05277">
        <ele>21.6</ele>
        <time>2020-05-31T17:02:17Z</time>
      </trkpt>
      <trkpt lat="46.17861" lon="-1.05285">
        <ele>21.5</ele>
        <time>2020-05-31T17:02:18Z</time>
      </trkpt>
      <trkpt lat="46.17859" lon="-1.05294">
        <ele>21.5</ele>
        <time>2020-05-31T17:02:19Z</time>
      </trkpt>
      <trkpt lat="46.17857" lon="-1.05303">
        <ele>21.4</ele>
        <time>2020-05-31T17:02:20Z</time>
      </trkpt>
      <trkpt lat="46.17856" lon="-1.05312">
        <ele>21.4</ele>
        <time>2020-05-31T17:02:21Z</time>
      </trkpt>
      <trkpt lat="46.17854" lon="-1.05322">
        <ele>21.3</ele>
        <time>2020-05-31T17:02:22Z</time>
      </trkpt>
      <trkpt lat="46.17852" lon="-1.05331">
        <ele>21.3</ele>
        <time>2020-05-31T17:02:23Z</time>
      </trkpt>
      <trkpt lat="46.1785" lon="-1.0534">
        <ele>21.4</ele>
        <time>2020-05-31T17:02:24Z</time>
      </trkpt>
      <trkpt lat="46.17848" lon="-1.05349">
        <ele>21.4</ele>
        <time>2020-05-31T17:02:25Z</time>
      </trkpt>
      <trkpt lat="46.17846" lon="-1.05357">
        <ele>21.4</ele>
        <time>2020-05-31T17:02:26Z</time>
      </trkpt>
      <trkpt lat="46.17845" lon="-1.05366">
        <ele>21.4</ele>
        <time>2020-05-31T17:02:27Z</time>
      </trkpt>
      <trkpt lat="46.17843" lon="-1.05374">
        <ele>21.4</ele>
        <time>2020-05-31T17:02:28Z</time>
      </trkpt>
      <trkpt lat="46.17842" lon="-1.05381">
        <ele>21.4</ele>
        <time>2020-05-31T17:02:29Z</time>
      </trkpt>
      <trkpt lat="46.17839" lon="-1.05388">
        <ele>21.4</ele>
        <time>2020-05-31T17:02:30Z</time>
      </trkpt>
      <trkpt lat="46.17837" lon="-1.05396">
        <ele>21.4</ele>
        <time>2020-05-31T17:02:31Z</time>
      </trkpt>
      <trkpt lat="46.17836" lon="-1.05404">
        <ele>21.4</ele>
        <time>2020-05-31T17:02:32Z</time>
      </trkpt>
      <trkpt lat="46.17834" lon="-1.05411">
        <ele>21.4</ele>
        <time>2020-05-31T17:02:33Z</time>
      </trkpt>
      <trkpt lat="46.17832" lon="-1.05418">
        <ele>21.4</ele>
        <time>2020-05-31T17:02:34Z</time>
      </trkpt>
      <trkpt lat="46.1783" lon="-1.05422">
        <ele>21.4</ele>
        <time>2020-05-31T17:02:35Z</time>
      </trkpt>
      <trkpt lat="46.17828" lon="-1.05428">
        <ele>21.4</ele>
        <time>2020-05-31T17:02:36Z</time>
      </trkpt>
      <trkpt lat="46.17826" lon="-1.05435">
        <ele>21.4</ele>
        <time>2020-05-31T17:02:37Z</time>
      </trkpt>
      <trkpt lat="46.17823" lon="-1.05443">
        <ele>21.4</ele>
        <time>2020-05-31T17:02:38Z</time>
      </trkpt>
      <trkpt lat="46.17821" lon="-1.05451">
        <ele>21.4</ele>
        <time>2020-05-31T17:02:39Z</time>
      </trkpt>
      <trkpt lat="46.17818" lon="-1.05459">
        <ele>21.4</ele>
        <time>2020-05-31T17:02:40Z</time>
      </trkpt>
      <trkpt lat="46.17817" lon="-1.05468">
        <ele>21.5</ele>
        <time>2020-05-31T17:02:41Z</time>
      </trkpt>
      <trkpt lat="46.17815" lon="-1.05475">
        <ele>21.6</ele>
        <time>2020-05-31T17:02:42Z</time>
      </trkpt>
      <trkpt lat="46.17812" lon="-1.05483">
        <ele>21.6</ele>
        <time>2020-05-31T17:02:43Z</time>
      </trkpt>
      <trkpt lat="46.1781" lon="-1.05491">
        <ele>21.7</ele>
        <time>2020-05-31T17:02:44Z</time>
      </trkpt>
      <trkpt lat="46.17807" lon="-1.05498">
        <ele>21.7</ele>
        <time>2020-05-31T17:02:45Z</time>
      </trkpt>
      <trkpt lat="46.17804" lon="-1.05505">
        <ele>21.8</ele>
        <time>2020-05-31T17:02:46Z</time>
      </trkpt>
      <trkpt lat="46.17801" lon="-1.05513">
        <ele>21.9</ele>
        <time>2020-05-31T17:02:47Z</time>
      </trkpt>
      <trkpt lat="46.17798" lon="-1.05519">
        <ele>21.9</ele>
        <time>2020-05-31T17:02:48Z</time>
      </trkpt>
      <trkpt lat="46.17796" lon="-1.05527">
        <ele>22</ele>
        <time>2020-05-31T17:02:49Z</time>
      </trkpt>
      <trkpt lat="46.17795" lon="-1.05533">
        <ele>22.1</ele>
        <time>2020-05-31T17:02:50Z</time>
      </trkpt>
      <trkpt lat="46.17794" lon="-1.05541">
        <ele>22.1</ele>
        <time>2020-05-31T17:02:51Z</time>
      </trkpt>
      <trkpt lat="46.17793" lon="-1.05547">
        <ele>22.2</ele>
        <time>2020-05-31T17:02:52Z</time>
      </trkpt>
      <trkpt lat="46.17792" lon="-1.05552">
        <ele>22.2</ele>
        <time>2020-05-31T17:02:53Z</time>
      </trkpt>
      <trkpt lat="46.17791" lon="-1.05559">
        <ele>22.3</ele>
        <time>2020-05-31T17:02:54Z</time>
      </trkpt>
      <trkpt lat="46.1779" lon="-1.05565">
        <ele>22.3</ele>
        <time>2020-05-31T17:02:55Z</time>
      </trkpt>
      <trkpt lat="46.17788" lon="-1.05572">
        <ele>22.4</ele>
        <time>2020-05-31T17:02:56Z</time>
      </trkpt>
      <trkpt lat="46.17789" lon="-1.05576">
        <ele>22.4</ele>
        <time>2020-05-31T17:02:57Z</time>
      </trkpt>
      <trkpt lat="46.17789" lon="-1.05583">
        <ele>22.5</ele>
        <time>2020-05-31T17:02:58Z</time>
      </trkpt>
      <trkpt lat="46.17787" lon="-1.05593">
        <ele>22.6</ele>
        <time>2020-05-31T17:02:59Z</time>
      </trkpt>
      <trkpt lat="46.17785" lon="-1.05601">
        <ele>22.7</ele>
        <time>2020-05-31T17:03:00Z</time>
      </trkpt>
      <trkpt lat="46.17784" lon="-1.05609">
        <ele>22.8</ele>
        <time>2020-05-31T17:03:01Z</time>
      </trkpt>
      <trkpt lat="46.17783" lon="-1.05616">
        <ele>22.9</ele>
        <time>2020-05-31T17:03:02Z</time>
      </trkpt>
      <trkpt lat="46.17781" lon="-1.05625">
        <ele>22.9</ele>
        <time>2020-05-31T17:03:03Z</time>
      </trkpt>
      <trkpt lat="46.17779" lon="-1.05631">
        <ele>23</ele>
        <time>2020-05-31T17:03:04Z</time>
      </trkpt>
      <trkpt lat="46.17778" lon="-1.05638">
        <ele>23.1</ele>
        <time>2020-05-31T17:03:05Z</time>
      </trkpt>
      <trkpt lat="46.17778" lon="-1.05642">
        <ele>23.1</ele>
        <time>2020-05-31T17:03:06Z</time>
      </trkpt>
      <trkpt lat="46.17777" lon="-1.05644">
        <ele>23.2</ele>
        <time>2020-05-31T17:03:07Z</time>
      </trkpt>
      <trkpt lat="46.17775" lon="-1.0565">
        <ele>23.2</ele>
        <time>2020-05-31T17:03:08Z</time>
      </trkpt>
      <trkpt lat="46.17774" lon="-1.05655">
        <ele>23.3</ele>
        <time>2020-05-31T17:03:09Z</time>
      </trkpt>
      <trkpt lat="46.17772" lon="-1.0566">
        <ele>23.3</ele>
        <time>2020-05-31T17:03:10Z</time>
      </trkpt>
      <trkpt lat="46.1777" lon="-1.05666">
        <ele>23.4</ele>
        <time>2020-05-31T17:03:11Z</time>
      </trkpt>
      <trkpt lat="46.17768" lon="-1.05673">
        <ele>23.5</ele>
        <time>2020-05-31T17:03:12Z</time>
      </trkpt>
      <trkpt lat="46.17767" lon="-1.05678">
        <ele>23.5</ele>
        <time>2020-05-31T17:03:13Z</time>
      </trkpt>
      <trkpt lat="46.17765" lon="-1.05686">
        <ele>23.6</ele>
        <time>2020-05-31T17:03:14Z</time>
      </trkpt>
      <trkpt lat="46.17758" lon="-1.05696">
        <ele>23.8</ele>
        <time>2020-05-31T17:03:15Z</time>
      </trkpt>
      <trkpt lat="46.17757" lon="-1.05703">
        <ele>23.8</ele>
        <time>2020-05-31T17:03:16Z</time>
      </trkpt>
      <trkpt lat="46.17755" lon="-1.05712">
        <ele>23.9</ele>
        <time>2020-05-31T17:03:17Z</time>
      </trkpt>
      <trkpt lat="46.17755" lon="-1.05718">
        <ele>24</ele>
        <time>2020-05-31T17:03:18Z</time>
      </trkpt>
      <trkpt lat="46.17753" lon="-1.05725">
        <ele>24.1</ele>
        <time>2020-05-31T17:03:19Z</time>
      </trkpt>
      <trkpt lat="46.17751" lon="-1.05733">
        <ele>24.1</ele>
        <time>2020-05-31T17:03:20Z</time>
      </trkpt>
      <trkpt lat="46.17749" lon="-1.05741">
        <ele>24.2</ele>
        <time>2020-05-31T17:03:21Z</time>
      </trkpt>
      <trkpt lat="46.17747" lon="-1.05749">
        <ele>24.3</ele>
        <time>2020-05-31T17:03:22Z</time>
      </trkpt>
      <trkpt lat="46.17745" lon="-1.05757">
        <ele>24.4</ele>
        <time>2020-05-31T17:03:23Z</time>
      </trkpt>
      <trkpt lat="46.17743" lon="-1.05764">
        <ele>24.4</ele>
        <time>2020-05-31T17:03:24Z</time>
      </trkpt>
      <trkpt lat="46.17741" lon="-1.05773">
        <ele>24.6</ele>
        <time>2020-05-31T17:03:25Z</time>
      </trkpt>
      <trkpt lat="46.17738" lon="-1.05783">
        <ele>24.8</ele>
        <time>2020-05-31T17:03:26Z</time>
      </trkpt>
      <trkpt lat="46.17736" lon="-1.05793">
        <ele>25</ele>
        <time>2020-05-31T17:03:27Z</time>
      </trkpt>
      <trkpt lat="46.17734" lon="-1.05802">
        <ele>25.2</ele>
        <time>2020-05-31T17:03:28Z</time>
      </trkpt>
      <trkpt lat="46.17731" lon="-1.05813">
        <ele>25.3</ele>
        <time>2020-05-31T17:03:29Z</time>
      </trkpt>
      <trkpt lat="46.17729" lon="-1.05823">
        <ele>25.3</ele>
        <time>2020-05-31T17:03:30Z</time>
      </trkpt>
      <trkpt lat="46.17727" lon="-1.0583">
        <ele>25.3</ele>
        <time>2020-05-31T17:03:31Z</time>
      </trkpt>
      <trkpt lat="46.17724" lon="-1.05839">
        <ele>25.4</ele>
        <time>2020-05-31T17:03:32Z</time>
      </trkpt>
      <trkpt lat="46.17722" lon="-1.05848">
        <ele>25.4</ele>
        <time>2020-05-31T17:03:33Z</time>
      </trkpt>
      <trkpt lat="46.17721" lon="-1.05856">
        <ele>25.5</ele>
        <time>2020-05-31T17:03:34Z</time>
      </trkpt>
      <trkpt lat="46.1772" lon="-1.05863">
        <ele>25.5</ele>
        <time>2020-05-31T17:03:35Z</time>
      </trkpt>
      <trkpt lat="46.17718" lon="-1.0587">
        <ele>25.5</ele>
        <time>2020-05-31T17:03:36Z</time>
      </trkpt>
      <trkpt lat="46.17717" lon="-1.05878">
        <ele>25.6</ele>
        <time>2020-05-31T17:03:37Z</time>
      </trkpt>
      <trkpt lat="46.17715" lon="-1.05885">
        <ele>25.7</ele>
        <time>2020-05-31T17:03:38Z</time>
      </trkpt>
      <trkpt lat="46.17714" lon="-1.05893">
        <ele>25.8</ele>
        <time>2020-05-31T17:03:39Z</time>
      </trkpt>
      <trkpt lat="46.17714" lon="-1.059">
        <ele>25.8</ele>
        <time>2020-05-31T17:03:40Z</time>
      </trkpt>
      <trkpt lat="46.17714" lon="-1.05907">
        <ele>25.9</ele>
        <time>2020-05-31T17:03:41Z</time>
      </trkpt>
      <trkpt lat="46.17714" lon="-1.05914">
        <ele>26</ele>
        <time>2020-05-31T17:03:42Z</time>
      </trkpt>
      <trkpt lat="46.17714" lon="-1.0592">
        <ele>26</ele>
        <time>2020-05-31T17:03:43Z</time>
      </trkpt>
      <trkpt lat="46.17713" lon="-1.05928">
        <ele>26.1</ele>
        <time>2020-05-31T17:03:44Z</time>
      </trkpt>
      <trkpt lat="46.17712" lon="-1.05935">
        <ele>26.1</ele>
        <time>2020-05-31T17:03:45Z</time>
      </trkpt>
      <trkpt lat="46.17712" lon="-1.05942">
        <ele>26.2</ele>
        <time>2020-05-31T17:03:46Z</time>
      </trkpt>
      <trkpt lat="46.17711" lon="-1.05949">
        <ele>26.2</ele>
        <time>2020-05-31T17:03:47Z</time>
      </trkpt>
      <trkpt lat="46.1771" lon="-1.05957">
        <ele>26.3</ele>
        <time>2020-05-31T17:03:48Z</time>
      </trkpt>
      <trkpt lat="46.1771" lon="-1.05964">
        <ele>26.3</ele>
        <time>2020-05-31T17:03:49Z</time>
      </trkpt>
      <trkpt lat="46.17708" lon="-1.05971">
        <ele>26.3</ele>
        <time>2020-05-31T17:03:50Z</time>
      </trkpt>
      <trkpt lat="46.17706" lon="-1.0598">
        <ele>26.4</ele>
        <time>2020-05-31T17:03:51Z</time>
      </trkpt>
      <trkpt lat="46.17705" lon="-1.05988">
        <ele>26.4</ele>
        <time>2020-05-31T17:03:52Z</time>
      </trkpt>
      <trkpt lat="46.17703" lon="-1.05995">
        <ele>26.4</ele>
        <time>2020-05-31T17:03:53Z</time>
      </trkpt>
      <trkpt lat="46.17701" lon="-1.06004">
        <ele>26.4</ele>
        <time>2020-05-31T17:03:54Z</time>
      </trkpt>
      <trkpt lat="46.17699" lon="-1.06012">
        <ele>26.5</ele>
        <time>2020-05-31T17:03:55Z</time>
      </trkpt>
      <trkpt lat="46.17698" lon="-1.0602">
        <ele>26.5</ele>
        <time>2020-05-31T17:03:56Z</time>
      </trkpt>
      <trkpt lat="46.17696" lon="-1.06028">
        <ele>26.5</ele>
        <time>2020-05-31T17:03:57Z</time>
      </trkpt>
      <trkpt lat="46.17694" lon="-1.06039">
        <ele>26.6</ele>
        <time>2020-05-31T17:03:58Z</time>
      </trkpt>
      <trkpt lat="46.17694" lon="-1.06047">
        <ele>26.7</ele>
        <time>2020-05-31T17:03:59Z</time>
      </trkpt>
      <trkpt lat="46.17691" lon="-1.06055">
        <ele>26.8</ele>
        <time>2020-05-31T17:04:00Z</time>
      </trkpt>
      <trkpt lat="46.17691" lon="-1.06064">
        <ele>26.8</ele>
        <time>2020-05-31T17:04:01Z</time>
      </trkpt>
      <trkpt lat="46.17689" lon="-1.06072">
        <ele>26.9</ele>
        <time>2020-05-31T17:04:02Z</time>
      </trkpt>
      <trkpt lat="46.17688" lon="-1.0608">
        <ele>26.9</ele>
        <time>2020-05-31T17:04:03Z</time>
      </trkpt>
      <trkpt lat="46.17687" lon="-1.06087">
        <ele>27</ele>
        <time>2020-05-31T17:04:04Z</time>
      </trkpt>
      <trkpt lat="46.17686" lon="-1.06095">
        <ele>27</ele>
        <time>2020-05-31T17:04:05Z</time>
      </trkpt>
      <trkpt lat="46.17684" lon="-1.06103">
        <ele>27.1</ele>
        <time>2020-05-31T17:04:06Z</time>
      </trkpt>
      <trkpt lat="46.17682" lon="-1.0611">
        <ele>27.1</ele>
        <time>2020-05-31T17:04:07Z</time>
      </trkpt>
      <trkpt lat="46.17681" lon="-1.06117">
        <ele>27.1</ele>
        <time>2020-05-31T17:04:08Z</time>
      </trkpt>
      <trkpt lat="46.1768" lon="-1.06124">
        <ele>27.2</ele>
        <time>2020-05-31T17:04:09Z</time>
      </trkpt>
      <trkpt lat="46.17678" lon="-1.06131">
        <ele>27.2</ele>
        <time>2020-05-31T17:04:10Z</time>
      </trkpt>
      <trkpt lat="46.17677" lon="-1.06138">
        <ele>27.2</ele>
        <time>2020-05-31T17:04:11Z</time>
      </trkpt>
      <trkpt lat="46.17676" lon="-1.06146">
        <ele>27.3</ele>
        <time>2020-05-31T17:04:12Z</time>
      </trkpt>
      <trkpt lat="46.17674" lon="-1.06153">
        <ele>27.3</ele>
        <time>2020-05-31T17:04:13Z</time>
      </trkpt>
      <trkpt lat="46.17673" lon="-1.06161">
        <ele>27.4</ele>
        <time>2020-05-31T17:04:14Z</time>
      </trkpt>
      <trkpt lat="46.17672" lon="-1.06168">
        <ele>27.5</ele>
        <time>2020-05-31T17:04:15Z</time>
      </trkpt>
      <trkpt lat="46.1767" lon="-1.06175">
        <ele>27.7</ele>
        <time>2020-05-31T17:04:16Z</time>
      </trkpt>
      <trkpt lat="46.17669" lon="-1.06183">
        <ele>27.8</ele>
        <time>2020-05-31T17:04:17Z</time>
      </trkpt>
      <trkpt lat="46.17667" lon="-1.0619">
        <ele>27.9</ele>
        <time>2020-05-31T17:04:18Z</time>
      </trkpt>
      <trkpt lat="46.17666" lon="-1.06197">
        <ele>28</ele>
        <time>2020-05-31T17:04:19Z</time>
      </trkpt>
      <trkpt lat="46.17665" lon="-1.06204">
        <ele>28.1</ele>
        <time>2020-05-31T17:04:20Z</time>
      </trkpt>
      <trkpt lat="46.17664" lon="-1.0621">
        <ele>28.2</ele>
        <time>2020-05-31T17:04:21Z</time>
      </trkpt>
      <trkpt lat="46.17662" lon="-1.06217">
        <ele>28.2</ele>
        <time>2020-05-31T17:04:22Z</time>
      </trkpt>
      <trkpt lat="46.17661" lon="-1.06225">
        <ele>28.2</ele>
        <time>2020-05-31T17:04:23Z</time>
      </trkpt>
      <trkpt lat="46.17659" lon="-1.06232">
        <ele>28.3</ele>
        <time>2020-05-31T17:04:24Z</time>
      </trkpt>
      <trkpt lat="46.17658" lon="-1.06238">
        <ele>28.3</ele>
        <time>2020-05-31T17:04:25Z</time>
      </trkpt>
      <trkpt lat="46.17657" lon="-1.06245">
        <ele>28.3</ele>
        <time>2020-05-31T17:04:26Z</time>
      </trkpt>
      <trkpt lat="46.17656" lon="-1.06252">
        <ele>28.4</ele>
        <time>2020-05-31T17:04:27Z</time>
      </trkpt>
      <trkpt lat="46.17656" lon="-1.06259">
        <ele>28.5</ele>
        <time>2020-05-31T17:04:28Z</time>
      </trkpt>
      <trkpt lat="46.17655" lon="-1.06266">
        <ele>28.5</ele>
        <time>2020-05-31T17:04:29Z</time>
      </trkpt>
      <trkpt lat="46.17654" lon="-1.06272">
        <ele>28.6</ele>
        <time>2020-05-31T17:04:30Z</time>
      </trkpt>
      <trkpt lat="46.17653" lon="-1.0628">
        <ele>28.7</ele>
        <time>2020-05-31T17:04:31Z</time>
      </trkpt>
      <trkpt lat="46.17652" lon="-1.06286">
        <ele>28.7</ele>
        <time>2020-05-31T17:04:32Z</time>
      </trkpt>
      <trkpt lat="46.1765" lon="-1.06294">
        <ele>28.7</ele>
        <time>2020-05-31T17:04:33Z</time>
      </trkpt>
      <trkpt lat="46.1765" lon="-1.06301">
        <ele>28.8</ele>
        <time>2020-05-31T17:04:34Z</time>
      </trkpt>
      <trkpt lat="46.17649" lon="-1.06307">
        <ele>28.9</ele>
        <time>2020-05-31T17:04:35Z</time>
      </trkpt>
      <trkpt lat="46.17649" lon="-1.06314">
        <ele>28.9</ele>
        <time>2020-05-31T17:04:36Z</time>
      </trkpt>
      <trkpt lat="46.17648" lon="-1.06321">
        <ele>29</ele>
        <time>2020-05-31T17:04:37Z</time>
      </trkpt>
      <trkpt lat="46.17648" lon="-1.06327">
        <ele>29.1</ele>
        <time>2020-05-31T17:04:38Z</time>
      </trkpt>
      <trkpt lat="46.17647" lon="-1.06334">
        <ele>29.2</ele>
        <time>2020-05-31T17:04:39Z</time>
      </trkpt>
      <trkpt lat="46.17646" lon="-1.0634">
        <ele>29.2</ele>
        <time>2020-05-31T17:04:40Z</time>
      </trkpt>
      <trkpt lat="46.17645" lon="-1.06348">
        <ele>29.3</ele>
        <time>2020-05-31T17:04:41Z</time>
      </trkpt>
      <trkpt lat="46.17645" lon="-1.06355">
        <ele>29.4</ele>
        <time>2020-05-31T17:04:42Z</time>
      </trkpt>
      <trkpt lat="46.17644" lon="-1.06363">
        <ele>29.5</ele>
        <time>2020-05-31T17:04:43Z</time>
      </trkpt>
      <trkpt lat="46.17643" lon="-1.0637">
        <ele>29.6</ele>
        <time>2020-05-31T17:04:44Z</time>
      </trkpt>
      <trkpt lat="46.17642" lon="-1.06378">
        <ele>29.7</ele>
        <time>2020-05-31T17:04:45Z</time>
      </trkpt>
      <trkpt lat="46.17641" lon="-1.06385">
        <ele>29.8</ele>
        <time>2020-05-31T17:04:46Z</time>
      </trkpt>
      <trkpt lat="46.1764" lon="-1.06393">
        <ele>30</ele>
        <time>2020-05-31T17:04:47Z</time>
      </trkpt>
      <trkpt lat="46.17639" lon="-1.064">
        <ele>30.1</ele>
        <time>2020-05-31T17:04:48Z</time>
      </trkpt>
      <trkpt lat="46.17637" lon="-1.06407">
        <ele>30.2</ele>
        <time>2020-05-31T17:04:49Z</time>
      </trkpt>
      <trkpt lat="46.17636" lon="-1.06412">
        <ele>30.3</ele>
        <time>2020-05-31T17:04:50Z</time>
      </trkpt>
      <trkpt lat="46.17635" lon="-1.06417">
        <ele>30.4</ele>
        <time>2020-05-31T17:04:51Z</time>
      </trkpt>
      <trkpt lat="46.17634" lon="-1.06422">
        <ele>30.4</ele>
        <time>2020-05-31T17:04:52Z</time>
      </trkpt>
      <trkpt lat="46.17632" lon="-1.06428">
        <ele>30.5</ele>
        <time>2020-05-31T17:04:53Z</time>
      </trkpt>
      <trkpt lat="46.17632" lon="-1.0643">
        <ele>30.6</ele>
        <time>2020-05-31T17:04:54Z</time>
      </trkpt>
      <trkpt lat="46.1763" lon="-1.06435">
        <ele>30.6</ele>
        <time>2020-05-31T17:04:55Z</time>
      </trkpt>
      <trkpt lat="46.17628" lon="-1.0644">
        <ele>30.7</ele>
        <time>2020-05-31T17:04:56Z</time>
      </trkpt>
      <trkpt lat="46.17625" lon="-1.06445">
        <ele>30.8</ele>
        <time>2020-05-31T17:04:57Z</time>
      </trkpt>
      <trkpt lat="46.17622" lon="-1.0645">
        <ele>30.9</ele>
        <time>2020-05-31T17:04:58Z</time>
      </trkpt>
      <trkpt lat="46.17619" lon="-1.06455">
        <ele>31</ele>
        <time>2020-05-31T17:04:59Z</time>
      </trkpt>
      <trkpt lat="46.17615" lon="-1.0646">
        <ele>31.1</ele>
        <time>2020-05-31T17:05:00Z</time>
      </trkpt>
      <trkpt lat="46.17613" lon="-1.06465">
        <ele>31.1</ele>
        <time>2020-05-31T17:05:01Z</time>
      </trkpt>
      <trkpt lat="46.1761" lon="-1.06469">
        <ele>31.1</ele>
        <time>2020-05-31T17:05:02Z</time>
      </trkpt>
      <trkpt lat="46.17607" lon="-1.06473">
        <ele>31.2</ele>
        <time>2020-05-31T17:05:03Z</time>
      </trkpt>
      <trkpt lat="46.17603" lon="-1.06479">
        <ele>31.2</ele>
        <time>2020-05-31T17:05:04Z</time>
      </trkpt>
      <trkpt lat="46.176" lon="-1.06484">
        <ele>31.2</ele>
        <time>2020-05-31T17:05:05Z</time>
      </trkpt>
      <trkpt lat="46.17596" lon="-1.06489">
        <ele>31.2</ele>
        <time>2020-05-31T17:05:06Z</time>
      </trkpt>
      <trkpt lat="46.17593" lon="-1.06496">
        <ele>31.2</ele>
        <time>2020-05-31T17:05:07Z</time>
      </trkpt>
      <trkpt lat="46.17589" lon="-1.06501">
        <ele>31.2</ele>
        <time>2020-05-31T17:05:08Z</time>
      </trkpt>
      <trkpt lat="46.17586" lon="-1.06505">
        <ele>31.2</ele>
        <time>2020-05-31T17:05:09Z</time>
      </trkpt>
      <trkpt lat="46.17583" lon="-1.0651">
        <ele>31.2</ele>
        <time>2020-05-31T17:05:10Z</time>
      </trkpt>
      <trkpt lat="46.17579" lon="-1.06515">
        <ele>31.2</ele>
        <time>2020-05-31T17:05:11Z</time>
      </trkpt>
      <trkpt lat="46.17576" lon="-1.06519">
        <ele>31.2</ele>
        <time>2020-05-31T17:05:12Z</time>
      </trkpt>
      <trkpt lat="46.17572" lon="-1.06525">
        <ele>31.2</ele>
        <time>2020-05-31T17:05:13Z</time>
      </trkpt>
      <trkpt lat="46.17567" lon="-1.06529">
        <ele>31.2</ele>
        <time>2020-05-31T17:05:14Z</time>
      </trkpt>
      <trkpt lat="46.17564" lon="-1.06535">
        <ele>31.2</ele>
        <time>2020-05-31T17:05:15Z</time>
      </trkpt>
      <trkpt lat="46.1756" lon="-1.06538">
        <ele>31.2</ele>
        <time>2020-05-31T17:05:16Z</time>
      </trkpt>
      <trkpt lat="46.17555" lon="-1.0654">
        <ele>31.2</ele>
        <time>2020-05-31T17:05:17Z</time>
      </trkpt>
      <trkpt lat="46.17549" lon="-1.0654">
        <ele>31.2</ele>
        <time>2020-05-31T17:05:18Z</time>
      </trkpt>
      <trkpt lat="46.17543" lon="-1.06539">
        <ele>31.2</ele>
        <time>2020-05-31T17:05:19Z</time>
      </trkpt>
      <trkpt lat="46.17537" lon="-1.06538">
        <ele>31.2</ele>
        <time>2020-05-31T17:05:20Z</time>
      </trkpt>
      <trkpt lat="46.17531" lon="-1.06535">
        <ele>31.2</ele>
        <time>2020-05-31T17:05:21Z</time>
      </trkpt>
      <trkpt lat="46.17526" lon="-1.06532">
        <ele>31.2</ele>
        <time>2020-05-31T17:05:22Z</time>
      </trkpt>
      <trkpt lat="46.17521" lon="-1.06529">
        <ele>31.2</ele>
        <time>2020-05-31T17:05:23Z</time>
      </trkpt>
      <trkpt lat="46.17516" lon="-1.06526">
        <ele>31.2</ele>
        <time>2020-05-31T17:05:24Z</time>
      </trkpt>
      <trkpt lat="46.1751" lon="-1.06525">
        <ele>31.2</ele>
        <time>2020-05-31T17:05:25Z</time>
      </trkpt>
      <trkpt lat="46.17505" lon="-1.06524">
        <ele>31.2</ele>
        <time>2020-05-31T17:05:26Z</time>
      </trkpt>
      <trkpt lat="46.17501" lon="-1.06526">
        <ele>31.2</ele>
        <time>2020-05-31T17:05:27Z</time>
      </trkpt>
      <trkpt lat="46.175" lon="-1.06533">
        <ele>31.2</ele>
        <time>2020-05-31T17:05:28Z</time>
      </trkpt>
      <trkpt lat="46.17497" lon="-1.06541">
        <ele>31.4</ele>
        <time>2020-05-31T17:05:29Z</time>
      </trkpt>
      <trkpt lat="46.17494" lon="-1.06548">
        <ele>31.4</ele>
        <time>2020-05-31T17:05:30Z</time>
      </trkpt>
      <trkpt lat="46.1749" lon="-1.06553">
        <ele>31.4</ele>
        <time>2020-05-31T17:05:31Z</time>
      </trkpt>
      <trkpt lat="46.17485" lon="-1.06559">
        <ele>31.4</ele>
        <time>2020-05-31T17:05:32Z</time>
      </trkpt>
      <trkpt lat="46.1748" lon="-1.06564">
        <ele>31.4</ele>
        <time>2020-05-31T17:05:33Z</time>
      </trkpt>
      <trkpt lat="46.17475" lon="-1.06569">
        <ele>31.4</ele>
        <time>2020-05-31T17:05:34Z</time>
      </trkpt>
      <trkpt lat="46.17471" lon="-1.06573">
        <ele>31.3</ele>
        <time>2020-05-31T17:05:35Z</time>
      </trkpt>
      <trkpt lat="46.17467" lon="-1.06579">
        <ele>31.3</ele>
        <time>2020-05-31T17:05:36Z</time>
      </trkpt>
      <trkpt lat="46.17467" lon="-1.06587">
        <ele>31.3</ele>
        <time>2020-05-31T17:05:37Z</time>
      </trkpt>
      <trkpt lat="46.17467" lon="-1.06595">
        <ele>31.3</ele>
        <time>2020-05-31T17:05:38Z</time>
      </trkpt>
      <trkpt lat="46.17467" lon="-1.06601">
        <ele>31.3</ele>
        <time>2020-05-31T17:05:39Z</time>
      </trkpt>
      <trkpt lat="46.17466" lon="-1.06607">
        <ele>31.3</ele>
        <time>2020-05-31T17:05:40Z</time>
      </trkpt>
      <trkpt lat="46.17467" lon="-1.06612">
        <ele>31.3</ele>
        <time>2020-05-31T17:05:41Z</time>
      </trkpt>
      <trkpt lat="46.17466" lon="-1.06617">
        <ele>31.3</ele>
        <time>2020-05-31T17:05:42Z</time>
      </trkpt>
      <trkpt lat="46.17466" lon="-1.0662">
        <ele>31.3</ele>
        <time>2020-05-31T17:05:43Z</time>
      </trkpt>
      <trkpt lat="46.17467" lon="-1.06621">
        <ele>31.3</ele>
        <time>2020-05-31T17:05:44Z</time>
      </trkpt>
      <trkpt lat="46.17467" lon="-1.06622">
        <ele>31.3</ele>
        <time>2020-05-31T17:05:45Z</time>
      </trkpt>
      <trkpt lat="46.17466" lon="-1.06621">
        <ele>31.3</ele>
        <time>2020-05-31T17:05:46Z</time>
      </trkpt>
      <trkpt lat="46.17466" lon="-1.06622">
        <ele>31.3</ele>
        <time>2020-05-31T17:05:47Z</time>
      </trkpt>
      <trkpt lat="46.17466" lon="-1.06623">
        <ele>31.3</ele>
        <time>2020-05-31T17:05:48Z</time>
      </trkpt>
      <trkpt lat="46.17466" lon="-1.06621">
        <ele>31.3</ele>
        <time>2020-05-31T17:05:49Z</time>
      </trkpt>
      <trkpt lat="46.17466" lon="-1.06621">
        <ele>31.3</ele>
        <time>2020-05-31T17:05:50Z</time>
      </trkpt>
      <trkpt lat="46.17466" lon="-1.06621">
        <ele>31.3</ele>
        <time>2020-05-31T17:05:51Z</time>
      </trkpt>
      <trkpt lat="46.17466" lon="-1.06621">
        <ele>31.3</ele>
        <time>2020-05-31T17:05:52Z</time>
      </trkpt>
      <trkpt lat="46.17466" lon="-1.06621">
        <ele>31.3</ele>
        <time>2020-05-31T17:05:53Z</time>
      </trkpt>
      <trkpt lat="46.17466" lon="-1.06621">
        <ele>31.3</ele>
        <time>2020-05-31T17:05:54Z</time>
      </trkpt>
      <trkpt lat="46.17466" lon="-1.06621">
        <ele>31.3</ele>
        <time>2020-05-31T17:05:55Z</time>
      </trkpt>
      <trkpt lat="46.17466" lon="-1.06621">
        <ele>31.3</ele>
        <time>2020-05-31T17:05:56Z</time>
      </trkpt>
      <trkpt lat="46.17466" lon="-1.06621">
        <ele>31.3</ele>
        <time>2020-05-31T17:05:57Z</time>
      </trkpt>
      <trkpt lat="46.17467" lon="-1.06622">
        <ele>31.3</ele>
        <time>2020-05-31T17:05:58Z</time>
      </trkpt>
      <trkpt lat="46.17467" lon="-1.06623">
        <ele>31.3</ele>
        <time>2020-05-31T17:05:59Z</time>
      </trkpt>
      <trkpt lat="46.17466" lon="-1.06624">
        <ele>31.3</ele>
        <time>2020-05-31T17:06:00Z</time>
      </trkpt>
      <trkpt lat="46.17465" lon="-1.06625">
        <ele>31.3</ele>
        <time>2020-05-31T17:06:01Z</time>
      </trkpt>
      <trkpt lat="46.17464" lon="-1.06629">
        <ele>31.3</ele>
        <time>2020-05-31T17:06:02Z</time>
      </trkpt>
      <trkpt lat="46.17464" lon="-1.06631">
        <ele>31.3</ele>
        <time>2020-05-31T17:06:03Z</time>
      </trkpt>
      <trkpt lat="46.17464" lon="-1.06633">
        <ele>31.2</ele>
        <time>2020-05-31T17:06:04Z</time>
      </trkpt>
      <trkpt lat="46.17463" lon="-1.06635">
        <ele>31.2</ele>
        <time>2020-05-31T17:06:05Z</time>
      </trkpt>
      <trkpt lat="46.17463" lon="-1.0664">
        <ele>31.2</ele>
        <time>2020-05-31T17:06:06Z</time>
      </trkpt>
      <trkpt lat="46.17463" lon="-1.06642">
        <ele>31.2</ele>
        <time>2020-05-31T17:06:07Z</time>
      </trkpt>
      <trkpt lat="46.17462" lon="-1.06648">
        <ele>31.2</ele>
        <time>2020-05-31T17:06:08Z</time>
      </trkpt>
      <trkpt lat="46.17462" lon="-1.0665">
        <ele>31.2</ele>
        <time>2020-05-31T17:06:09Z</time>
      </trkpt>
      <trkpt lat="46.17462" lon="-1.06655">
        <ele>31.1</ele>
        <time>2020-05-31T17:06:10Z</time>
      </trkpt>
      <trkpt lat="46.17461" lon="-1.0666">
        <ele>31.1</ele>
        <time>2020-05-31T17:06:11Z</time>
      </trkpt>
      <trkpt lat="46.1746" lon="-1.06667">
        <ele>31.1</ele>
        <time>2020-05-31T17:06:12Z</time>
      </trkpt>
      <trkpt lat="46.17459" lon="-1.06674">
        <ele>31</ele>
        <time>2020-05-31T17:06:13Z</time>
      </trkpt>
      <trkpt lat="46.17457" lon="-1.06681">
        <ele>30.9</ele>
        <time>2020-05-31T17:06:14Z</time>
      </trkpt>
      <trkpt lat="46.17456" lon="-1.06688">
        <ele>30.9</ele>
        <time>2020-05-31T17:06:15Z</time>
      </trkpt>
      <trkpt lat="46.17455" lon="-1.06694">
        <ele>30.8</ele>
        <time>2020-05-31T17:06:16Z</time>
      </trkpt>
      <trkpt lat="46.17453" lon="-1.067">
        <ele>30.7</ele>
        <time>2020-05-31T17:06:17Z</time>
      </trkpt>
      <trkpt lat="46.1745" lon="-1.06705">
        <ele>30.7</ele>
        <time>2020-05-31T17:06:18Z</time>
      </trkpt>
      <trkpt lat="46.17447" lon="-1.06712">
        <ele>30.6</ele>
        <time>2020-05-31T17:06:19Z</time>
      </trkpt>
      <trkpt lat="46.17443" lon="-1.06719">
        <ele>30.5</ele>
        <time>2020-05-31T17:06:20Z</time>
      </trkpt>
      <trkpt lat="46.17439" lon="-1.06726">
        <ele>30.4</ele>
        <time>2020-05-31T17:06:21Z</time>
      </trkpt>
      <trkpt lat="46.17435" lon="-1.06734">
        <ele>30.3</ele>
        <time>2020-05-31T17:06:22Z</time>
      </trkpt>
      <trkpt lat="46.17431" lon="-1.0674">
        <ele>30.2</ele>
        <time>2020-05-31T17:06:23Z</time>
      </trkpt>
      <trkpt lat="46.17427" lon="-1.06747">
        <ele>30</ele>
        <time>2020-05-31T17:06:24Z</time>
      </trkpt>
      <trkpt lat="46.17423" lon="-1.06754">
        <ele>29.9</ele>
        <time>2020-05-31T17:06:25Z</time>
      </trkpt>
      <trkpt lat="46.17418" lon="-1.0676">
        <ele>29.8</ele>
        <time>2020-05-31T17:06:26Z</time>
      </trkpt>
      <trkpt lat="46.17414" lon="-1.06768">
        <ele>29.7</ele>
        <time>2020-05-31T17:06:27Z</time>
      </trkpt>
      <trkpt lat="46.1741" lon="-1.06776">
        <ele>29.5</ele>
        <time>2020-05-31T17:06:28Z</time>
      </trkpt>
      <trkpt lat="46.17405" lon="-1.06785">
        <ele>29.4</ele>
        <time>2020-05-31T17:06:29Z</time>
      </trkpt>
      <trkpt lat="46.174" lon="-1.06793">
        <ele>29.2</ele>
        <time>2020-05-31T17:06:30Z</time>
      </trkpt>
      <trkpt lat="46.17396" lon="-1.068">
        <ele>29.1</ele>
        <time>2020-05-31T17:06:31Z</time>
      </trkpt>
      <trkpt lat="46.17392" lon="-1.06808">
        <ele>28.9</ele>
        <time>2020-05-31T17:06:32Z</time>
      </trkpt>
      <trkpt lat="46.17387" lon="-1.06816">
        <ele>28.8</ele>
        <time>2020-05-31T17:06:33Z</time>
      </trkpt>
      <trkpt lat="46.17383" lon="-1.06824">
        <ele>28.7</ele>
        <time>2020-05-31T17:06:34Z</time>
      </trkpt>
      <trkpt lat="46.17378" lon="-1.06833">
        <ele>28.6</ele>
        <time>2020-05-31T17:06:35Z</time>
      </trkpt>
      <trkpt lat="46.17374" lon="-1.06841">
        <ele>28.4</ele>
        <time>2020-05-31T17:06:36Z</time>
      </trkpt>
      <trkpt lat="46.17369" lon="-1.06849">
        <ele>28.3</ele>
        <time>2020-05-31T17:06:37Z</time>
      </trkpt>
      <trkpt lat="46.17364" lon="-1.06856">
        <ele>28.1</ele>
        <time>2020-05-31T17:06:38Z</time>
      </trkpt>
      <trkpt lat="46.17359" lon="-1.06864">
        <ele>28</ele>
        <time>2020-05-31T17:06:39Z</time>
      </trkpt>
      <trkpt lat="46.17355" lon="-1.06873">
        <ele>27.8</ele>
        <time>2020-05-31T17:06:40Z</time>
      </trkpt>
      <trkpt lat="46.1735" lon="-1.0688">
        <ele>27.7</ele>
        <time>2020-05-31T17:06:41Z</time>
      </trkpt>
      <trkpt lat="46.17345" lon="-1.06888">
        <ele>27.6</ele>
        <time>2020-05-31T17:06:42Z</time>
      </trkpt>
      <trkpt lat="46.1734" lon="-1.06897">
        <ele>27.5</ele>
        <time>2020-05-31T17:06:43Z</time>
      </trkpt>
      <trkpt lat="46.17335" lon="-1.06906">
        <ele>27.3</ele>
        <time>2020-05-31T17:06:44Z</time>
      </trkpt>
      <trkpt lat="46.1733" lon="-1.06915">
        <ele>27.2</ele>
        <time>2020-05-31T17:06:45Z</time>
      </trkpt>
      <trkpt lat="46.17325" lon="-1.06923">
        <ele>27</ele>
        <time>2020-05-31T17:06:46Z</time>
      </trkpt>
      <trkpt lat="46.1732" lon="-1.06932">
        <ele>26.9</ele>
        <time>2020-05-31T17:06:47Z</time>
      </trkpt>
      <trkpt lat="46.17316" lon="-1.06941">
        <ele>26.8</ele>
        <time>2020-05-31T17:06:48Z</time>
      </trkpt>
      <trkpt lat="46.1731" lon="-1.0695">
        <ele>26.6</ele>
        <time>2020-05-31T17:06:49Z</time>
      </trkpt>
      <trkpt lat="46.17305" lon="-1.06959">
        <ele>26.5</ele>
        <time>2020-05-31T17:06:50Z</time>
      </trkpt>
      <trkpt lat="46.173" lon="-1.06968">
        <ele>26.4</ele>
        <time>2020-05-31T17:06:51Z</time>
      </trkpt>
      <trkpt lat="46.17295" lon="-1.06977">
        <ele>26.2</ele>
        <time>2020-05-31T17:06:52Z</time>
      </trkpt>
      <trkpt lat="46.1729" lon="-1.06986">
        <ele>26.1</ele>
        <time>2020-05-31T17:06:53Z</time>
      </trkpt>
      <trkpt lat="46.17285" lon="-1.06995">
        <ele>26</ele>
        <time>2020-05-31T17:06:54Z</time>
      </trkpt>
      <trkpt lat="46.1728" lon="-1.07004">
        <ele>25.9</ele>
        <time>2020-05-31T17:06:55Z</time>
      </trkpt>
      <trkpt lat="46.17275" lon="-1.07012">
        <ele>25.7</ele>
        <time>2020-05-31T17:06:56Z</time>
      </trkpt>
      <trkpt lat="46.1727" lon="-1.07021">
        <ele>25.6</ele>
        <time>2020-05-31T17:06:57Z</time>
      </trkpt>
      <trkpt lat="46.17265" lon="-1.07029">
        <ele>25.5</ele>
        <time>2020-05-31T17:06:58Z</time>
      </trkpt>
      <trkpt lat="46.1726" lon="-1.07038">
        <ele>25.4</ele>
        <time>2020-05-31T17:06:59Z</time>
      </trkpt>
      <trkpt lat="46.17255" lon="-1.07047">
        <ele>25.3</ele>
        <time>2020-05-31T17:07:00Z</time>
      </trkpt>
      <trkpt lat="46.17251" lon="-1.07055">
        <ele>25.2</ele>
        <time>2020-05-31T17:07:01Z</time>
      </trkpt>
      <trkpt lat="46.17246" lon="-1.07064">
        <ele>25</ele>
        <time>2020-05-31T17:07:02Z</time>
      </trkpt>
      <trkpt lat="46.17241" lon="-1.07072">
        <ele>25</ele>
        <time>2020-05-31T17:07:03Z</time>
      </trkpt>
      <trkpt lat="46.17236" lon="-1.07081">
        <ele>24.9</ele>
        <time>2020-05-31T17:07:04Z</time>
      </trkpt>
      <trkpt lat="46.17231" lon="-1.0709">
        <ele>24.8</ele>
        <time>2020-05-31T17:07:05Z</time>
      </trkpt>
      <trkpt lat="46.17226" lon="-1.07099">
        <ele>24.8</ele>
        <time>2020-05-31T17:07:06Z</time>
      </trkpt>
      <trkpt lat="46.17221" lon="-1.07108">
        <ele>24.6</ele>
        <time>2020-05-31T17:07:07Z</time>
      </trkpt>
      <trkpt lat="46.17216" lon="-1.07117">
        <ele>24.4</ele>
        <time>2020-05-31T17:07:08Z</time>
      </trkpt>
      <trkpt lat="46.17211" lon="-1.07127">
        <ele>24.2</ele>
        <time>2020-05-31T17:07:09Z</time>
      </trkpt>
      <trkpt lat="46.17206" lon="-1.07136">
        <ele>24.1</ele>
        <time>2020-05-31T17:07:10Z</time>
      </trkpt>
      <trkpt lat="46.17202" lon="-1.07145">
        <ele>24</ele>
        <time>2020-05-31T17:07:11Z</time>
      </trkpt>
      <trkpt lat="46.17197" lon="-1.07155">
        <ele>23.9</ele>
        <time>2020-05-31T17:07:12Z</time>
      </trkpt>
      <trkpt lat="46.17193" lon="-1.07164">
        <ele>23.9</ele>
        <time>2020-05-31T17:07:13Z</time>
      </trkpt>
      <trkpt lat="46.17188" lon="-1.07174">
        <ele>23.9</ele>
        <time>2020-05-31T17:07:14Z</time>
      </trkpt>
      <trkpt lat="46.17183" lon="-1.07183">
        <ele>23.9</ele>
        <time>2020-05-31T17:07:15Z</time>
      </trkpt>
      <trkpt lat="46.17178" lon="-1.07192">
        <ele>24</ele>
        <time>2020-05-31T17:07:16Z</time>
      </trkpt>
      <trkpt lat="46.17173" lon="-1.07202">
        <ele>24</ele>
        <time>2020-05-31T17:07:17Z</time>
      </trkpt>
      <trkpt lat="46.17168" lon="-1.07211">
        <ele>24</ele>
        <time>2020-05-31T17:07:18Z</time>
      </trkpt>
      <trkpt lat="46.17162" lon="-1.0722">
        <ele>24</ele>
        <time>2020-05-31T17:07:19Z</time>
      </trkpt>
      <trkpt lat="46.17156" lon="-1.07229">
        <ele>23.9</ele>
        <time>2020-05-31T17:07:20Z</time>
      </trkpt>
      <trkpt lat="46.17151" lon="-1.07239">
        <ele>23.9</ele>
        <time>2020-05-31T17:07:21Z</time>
      </trkpt>
      <trkpt lat="46.17146" lon="-1.07248">
        <ele>24</ele>
        <time>2020-05-31T17:07:22Z</time>
      </trkpt>
      <trkpt lat="46.1714" lon="-1.07258">
        <ele>23.9</ele>
        <time>2020-05-31T17:07:23Z</time>
      </trkpt>
      <trkpt lat="46.17135" lon="-1.07267">
        <ele>23.9</ele>
        <time>2020-05-31T17:07:24Z</time>
      </trkpt>
      <trkpt lat="46.1713" lon="-1.07277">
        <ele>23.9</ele>
        <time>2020-05-31T17:07:25Z</time>
      </trkpt>
      <trkpt lat="46.17124" lon="-1.07286">
        <ele>23.9</ele>
        <time>2020-05-31T17:07:26Z</time>
      </trkpt>
      <trkpt lat="46.17119" lon="-1.07295">
        <ele>23.9</ele>
        <time>2020-05-31T17:07:27Z</time>
      </trkpt>
      <trkpt lat="46.17114" lon="-1.07305">
        <ele>23.9</ele>
        <time>2020-05-31T17:07:28Z</time>
      </trkpt>
      <trkpt lat="46.17109" lon="-1.07315">
        <ele>23.9</ele>
        <time>2020-05-31T17:07:29Z</time>
      </trkpt>
      <trkpt lat="46.17104" lon="-1.07325">
        <ele>23.9</ele>
        <time>2020-05-31T17:07:30Z</time>
      </trkpt>
      <trkpt lat="46.17099" lon="-1.07334">
        <ele>23.9</ele>
        <time>2020-05-31T17:07:31Z</time>
      </trkpt>
      <trkpt lat="46.17093" lon="-1.07343">
        <ele>23.9</ele>
        <time>2020-05-31T17:07:32Z</time>
      </trkpt>
      <trkpt lat="46.17088" lon="-1.07352">
        <ele>23.9</ele>
        <time>2020-05-31T17:07:33Z</time>
      </trkpt>
      <trkpt lat="46.17083" lon="-1.07362">
        <ele>23.9</ele>
        <time>2020-05-31T17:07:34Z</time>
      </trkpt>
      <trkpt lat="46.17077" lon="-1.07371">
        <ele>23.9</ele>
        <time>2020-05-31T17:07:35Z</time>
      </trkpt>
      <trkpt lat="46.17072" lon="-1.0738">
        <ele>23.9</ele>
        <time>2020-05-31T17:07:36Z</time>
      </trkpt>
      <trkpt lat="46.17066" lon="-1.07388">
        <ele>23.9</ele>
        <time>2020-05-31T17:07:37Z</time>
      </trkpt>
      <trkpt lat="46.1706" lon="-1.07398">
        <ele>23.9</ele>
        <time>2020-05-31T17:07:38Z</time>
      </trkpt>
      <trkpt lat="46.17055" lon="-1.07407">
        <ele>23.9</ele>
        <time>2020-05-31T17:07:39Z</time>
      </trkpt>
      <trkpt lat="46.1705" lon="-1.07416">
        <ele>23.9</ele>
        <time>2020-05-31T17:07:40Z</time>
      </trkpt>
      <trkpt lat="46.17044" lon="-1.07425">
        <ele>23.9</ele>
        <time>2020-05-31T17:07:41Z</time>
      </trkpt>
      <trkpt lat="46.17039" lon="-1.07434">
        <ele>23.9</ele>
        <time>2020-05-31T17:07:42Z</time>
      </trkpt>
      <trkpt lat="46.17034" lon="-1.07443">
        <ele>23.9</ele>
        <time>2020-05-31T17:07:43Z</time>
      </trkpt>
      <trkpt lat="46.17028" lon="-1.07452">
        <ele>23.9</ele>
        <time>2020-05-31T17:07:44Z</time>
      </trkpt>
      <trkpt lat="46.17023" lon="-1.07461">
        <ele>23.9</ele>
        <time>2020-05-31T17:07:45Z</time>
      </trkpt>
      <trkpt lat="46.17018" lon="-1.07471">
        <ele>23.9</ele>
        <time>2020-05-31T17:07:46Z</time>
      </trkpt>
      <trkpt lat="46.17013" lon="-1.0748">
        <ele>23.9</ele>
        <time>2020-05-31T17:07:47Z</time>
      </trkpt>
      <trkpt lat="46.17008" lon="-1.07489">
        <ele>23.9</ele>
        <time>2020-05-31T17:07:48Z</time>
      </trkpt>
      <trkpt lat="46.17003" lon="-1.07498">
        <ele>23.8</ele>
        <time>2020-05-31T17:07:49Z</time>
      </trkpt>
      <trkpt lat="46.16998" lon="-1.07508">
        <ele>23.8</ele>
        <time>2020-05-31T17:07:50Z</time>
      </trkpt>
      <trkpt lat="46.16993" lon="-1.07517">
        <ele>23.8</ele>
        <time>2020-05-31T17:07:51Z</time>
      </trkpt>
      <trkpt lat="46.16988" lon="-1.07526">
        <ele>23.8</ele>
        <time>2020-05-31T17:07:52Z</time>
      </trkpt>
      <trkpt lat="46.16983" lon="-1.07535">
        <ele>23.8</ele>
        <time>2020-05-31T17:07:53Z</time>
      </trkpt>
      <trkpt lat="46.16978" lon="-1.07543">
        <ele>23.8</ele>
        <time>2020-05-31T17:07:54Z</time>
      </trkpt>
      <trkpt lat="46.16973" lon="-1.07552">
        <ele>23.8</ele>
        <time>2020-05-31T17:07:55Z</time>
      </trkpt>
      <trkpt lat="46.16968" lon="-1.07561">
        <ele>23.9</ele>
        <time>2020-05-31T17:07:56Z</time>
      </trkpt>
      <trkpt lat="46.16963" lon="-1.0757">
        <ele>23.9</ele>
        <time>2020-05-31T17:07:57Z</time>
      </trkpt>
      <trkpt lat="46.16958" lon="-1.07579">
        <ele>23.9</ele>
        <time>2020-05-31T17:07:58Z</time>
      </trkpt>
      <trkpt lat="46.16953" lon="-1.07588">
        <ele>23.9</ele>
        <time>2020-05-31T17:07:59Z</time>
      </trkpt>
      <trkpt lat="46.16948" lon="-1.07596">
        <ele>23.9</ele>
        <time>2020-05-31T17:08:00Z</time>
      </trkpt>
      <trkpt lat="46.16944" lon="-1.07605">
        <ele>23.9</ele>
        <time>2020-05-31T17:08:01Z</time>
      </trkpt>
      <trkpt lat="46.16939" lon="-1.07614">
        <ele>23.8</ele>
        <time>2020-05-31T17:08:02Z</time>
      </trkpt>
      <trkpt lat="46.16935" lon="-1.07623">
        <ele>23.8</ele>
        <time>2020-05-31T17:08:03Z</time>
      </trkpt>
      <trkpt lat="46.16931" lon="-1.07633">
        <ele>23.7</ele>
        <time>2020-05-31T17:08:04Z</time>
      </trkpt>
      <trkpt lat="46.16927" lon="-1.07642">
        <ele>23.7</ele>
        <time>2020-05-31T17:08:05Z</time>
      </trkpt>
      <trkpt lat="46.16924" lon="-1.07652">
        <ele>23.6</ele>
        <time>2020-05-31T17:08:06Z</time>
      </trkpt>
      <trkpt lat="46.1692" lon="-1.07661">
        <ele>23.5</ele>
        <time>2020-05-31T17:08:07Z</time>
      </trkpt>
      <trkpt lat="46.16917" lon="-1.07671">
        <ele>23.5</ele>
        <time>2020-05-31T17:08:08Z</time>
      </trkpt>
      <trkpt lat="46.16915" lon="-1.07681">
        <ele>23.4</ele>
        <time>2020-05-31T17:08:09Z</time>
      </trkpt>
      <trkpt lat="46.16912" lon="-1.07692">
        <ele>23.4</ele>
        <time>2020-05-31T17:08:10Z</time>
      </trkpt>
      <trkpt lat="46.1691" lon="-1.07702">
        <ele>23.3</ele>
        <time>2020-05-31T17:08:11Z</time>
      </trkpt>
      <trkpt lat="46.16908" lon="-1.07713">
        <ele>23.3</ele>
        <time>2020-05-31T17:08:12Z</time>
      </trkpt>
      <trkpt lat="46.16905" lon="-1.07724">
        <ele>23.3</ele>
        <time>2020-05-31T17:08:13Z</time>
      </trkpt>
      <trkpt lat="46.16903" lon="-1.07735">
        <ele>23.2</ele>
        <time>2020-05-31T17:08:14Z</time>
      </trkpt>
      <trkpt lat="46.16902" lon="-1.07746">
        <ele>23.1</ele>
        <time>2020-05-31T17:08:15Z</time>
      </trkpt>
      <trkpt lat="46.169" lon="-1.07758">
        <ele>23.1</ele>
        <time>2020-05-31T17:08:16Z</time>
      </trkpt>
      <trkpt lat="46.16898" lon="-1.07769">
        <ele>23</ele>
        <time>2020-05-31T17:08:17Z</time>
      </trkpt>
      <trkpt lat="46.16897" lon="-1.0778">
        <ele>22.9</ele>
        <time>2020-05-31T17:08:18Z</time>
      </trkpt>
      <trkpt lat="46.16895" lon="-1.07792">
        <ele>22.9</ele>
        <time>2020-05-31T17:08:19Z</time>
      </trkpt>
      <trkpt lat="46.16894" lon="-1.07803">
        <ele>22.8</ele>
        <time>2020-05-31T17:08:20Z</time>
      </trkpt>
      <trkpt lat="46.16892" lon="-1.07814">
        <ele>22.7</ele>
        <time>2020-05-31T17:08:21Z</time>
      </trkpt>
      <trkpt lat="46.1689" lon="-1.07825">
        <ele>22.7</ele>
        <time>2020-05-31T17:08:22Z</time>
      </trkpt>
      <trkpt lat="46.16888" lon="-1.07836">
        <ele>22.6</ele>
        <time>2020-05-31T17:08:23Z</time>
      </trkpt>
      <trkpt lat="46.16886" lon="-1.07846">
        <ele>22.5</ele>
        <time>2020-05-31T17:08:24Z</time>
      </trkpt>
      <trkpt lat="46.16884" lon="-1.07857">
        <ele>22.4</ele>
        <time>2020-05-31T17:08:25Z</time>
      </trkpt>
      <trkpt lat="46.16882" lon="-1.07868">
        <ele>22.3</ele>
        <time>2020-05-31T17:08:26Z</time>
      </trkpt>
      <trkpt lat="46.16881" lon="-1.07879">
        <ele>22.2</ele>
        <time>2020-05-31T17:08:27Z</time>
      </trkpt>
      <trkpt lat="46.1688" lon="-1.07891">
        <ele>22.1</ele>
        <time>2020-05-31T17:08:28Z</time>
      </trkpt>
      <trkpt lat="46.16879" lon="-1.07902">
        <ele>22</ele>
        <time>2020-05-31T17:08:29Z</time>
      </trkpt>
      <trkpt lat="46.16877" lon="-1.07914">
        <ele>22</ele>
        <time>2020-05-31T17:08:30Z</time>
      </trkpt>
      <trkpt lat="46.16875" lon="-1.07924">
        <ele>21.9</ele>
        <time>2020-05-31T17:08:31Z</time>
      </trkpt>
      <trkpt lat="46.16874" lon="-1.07936">
        <ele>21.9</ele>
        <time>2020-05-31T17:08:32Z</time>
      </trkpt>
      <trkpt lat="46.16873" lon="-1.07947">
        <ele>21.9</ele>
        <time>2020-05-31T17:08:33Z</time>
      </trkpt>
      <trkpt lat="46.16872" lon="-1.07958">
        <ele>21.8</ele>
        <time>2020-05-31T17:08:34Z</time>
      </trkpt>
      <trkpt lat="46.1687" lon="-1.07969">
        <ele>21.7</ele>
        <time>2020-05-31T17:08:35Z</time>
      </trkpt>
      <trkpt lat="46.16869" lon="-1.0798">
        <ele>21.5</ele>
        <time>2020-05-31T17:08:36Z</time>
      </trkpt>
      <trkpt lat="46.16868" lon="-1.07991">
        <ele>21.3</ele>
        <time>2020-05-31T17:08:37Z</time>
      </trkpt>
      <trkpt lat="46.16867" lon="-1.08002">
        <ele>21.1</ele>
        <time>2020-05-31T17:08:38Z</time>
      </trkpt>
      <trkpt lat="46.16866" lon="-1.08014">
        <ele>21</ele>
        <time>2020-05-31T17:08:39Z</time>
      </trkpt>
      <trkpt lat="46.16865" lon="-1.08025">
        <ele>21</ele>
        <time>2020-05-31T17:08:40Z</time>
      </trkpt>
      <trkpt lat="46.16863" lon="-1.08036">
        <ele>21</ele>
        <time>2020-05-31T17:08:41Z</time>
      </trkpt>
      <trkpt lat="46.16862" lon="-1.08047">
        <ele>20.9</ele>
        <time>2020-05-31T17:08:42Z</time>
      </trkpt>
      <trkpt lat="46.1686" lon="-1.08059">
        <ele>20.8</ele>
        <time>2020-05-31T17:08:43Z</time>
      </trkpt>
      <trkpt lat="46.16858" lon="-1.0807">
        <ele>20.7</ele>
        <time>2020-05-31T17:08:44Z</time>
      </trkpt>
      <trkpt lat="46.16856" lon="-1.08082">
        <ele>20.6</ele>
        <time>2020-05-31T17:08:45Z</time>
      </trkpt>
      <trkpt lat="46.16854" lon="-1.08093">
        <ele>20.6</ele>
        <time>2020-05-31T17:08:46Z</time>
      </trkpt>
      <trkpt lat="46.16852" lon="-1.08104">
        <ele>20.5</ele>
        <time>2020-05-31T17:08:47Z</time>
      </trkpt>
      <trkpt lat="46.16851" lon="-1.08116">
        <ele>20.4</ele>
        <time>2020-05-31T17:08:48Z</time>
      </trkpt>
      <trkpt lat="46.16849" lon="-1.08127">
        <ele>20.3</ele>
        <time>2020-05-31T17:08:49Z</time>
      </trkpt>
      <trkpt lat="46.16848" lon="-1.08138">
        <ele>20.2</ele>
        <time>2020-05-31T17:08:50Z</time>
      </trkpt>
      <trkpt lat="46.16846" lon="-1.08149">
        <ele>20.1</ele>
        <time>2020-05-31T17:08:51Z</time>
      </trkpt>
      <trkpt lat="46.16844" lon="-1.0816">
        <ele>20</ele>
        <time>2020-05-31T17:08:52Z</time>
      </trkpt>
      <trkpt lat="46.16843" lon="-1.08172">
        <ele>20</ele>
        <time>2020-05-31T17:08:53Z</time>
      </trkpt>
      <trkpt lat="46.16841" lon="-1.08182">
        <ele>19.9</ele>
        <time>2020-05-31T17:08:54Z</time>
      </trkpt>
      <trkpt lat="46.1684" lon="-1.08193">
        <ele>19.9</ele>
        <time>2020-05-31T17:08:55Z</time>
      </trkpt>
      <trkpt lat="46.16838" lon="-1.08204">
        <ele>19.8</ele>
        <time>2020-05-31T17:08:56Z</time>
      </trkpt>
      <trkpt lat="46.16836" lon="-1.08215">
        <ele>19.7</ele>
        <time>2020-05-31T17:08:57Z</time>
      </trkpt>
      <trkpt lat="46.16835" lon="-1.08226">
        <ele>19.6</ele>
        <time>2020-05-31T17:08:58Z</time>
      </trkpt>
      <trkpt lat="46.16833" lon="-1.08237">
        <ele>19.5</ele>
        <time>2020-05-31T17:08:59Z</time>
      </trkpt>
      <trkpt lat="46.16832" lon="-1.08248">
        <ele>19.4</ele>
        <time>2020-05-31T17:09:00Z</time>
      </trkpt>
      <trkpt lat="46.16831" lon="-1.08259">
        <ele>19.4</ele>
        <time>2020-05-31T17:09:01Z</time>
      </trkpt>
      <trkpt lat="46.1683" lon="-1.0827">
        <ele>19.4</ele>
        <time>2020-05-31T17:09:02Z</time>
      </trkpt>
      <trkpt lat="46.16828" lon="-1.0828">
        <ele>19.3</ele>
        <time>2020-05-31T17:09:03Z</time>
      </trkpt>
      <trkpt lat="46.16827" lon="-1.08291">
        <ele>19.3</ele>
        <time>2020-05-31T17:09:04Z</time>
      </trkpt>
      <trkpt lat="46.16825" lon="-1.08301">
        <ele>19.3</ele>
        <time>2020-05-31T17:09:05Z</time>
      </trkpt>
      <trkpt lat="46.16823" lon="-1.08312">
        <ele>19.2</ele>
        <time>2020-05-31T17:09:06Z</time>
      </trkpt>
      <trkpt lat="46.16821" lon="-1.08322">
        <ele>19.2</ele>
        <time>2020-05-31T17:09:07Z</time>
      </trkpt>
      <trkpt lat="46.16819" lon="-1.08332">
        <ele>19.1</ele>
        <time>2020-05-31T17:09:08Z</time>
      </trkpt>
      <trkpt lat="46.16818" lon="-1.08343">
        <ele>19.1</ele>
        <time>2020-05-31T17:09:09Z</time>
      </trkpt>
      <trkpt lat="46.16816" lon="-1.08352">
        <ele>19</ele>
        <time>2020-05-31T17:09:10Z</time>
      </trkpt>
      <trkpt lat="46.16814" lon="-1.08363">
        <ele>18.9</ele>
        <time>2020-05-31T17:09:11Z</time>
      </trkpt>
      <trkpt lat="46.16814" lon="-1.08373">
        <ele>18.9</ele>
        <time>2020-05-31T17:09:12Z</time>
      </trkpt>
      <trkpt lat="46.16813" lon="-1.08384">
        <ele>18.9</ele>
        <time>2020-05-31T17:09:13Z</time>
      </trkpt>
      <trkpt lat="46.1681" lon="-1.08393">
        <ele>18.8</ele>
        <time>2020-05-31T17:09:14Z</time>
      </trkpt>
      <trkpt lat="46.16809" lon="-1.08403">
        <ele>18.8</ele>
        <time>2020-05-31T17:09:15Z</time>
      </trkpt>
      <trkpt lat="46.16808" lon="-1.08413">
        <ele>18.7</ele>
        <time>2020-05-31T17:09:16Z</time>
      </trkpt>
      <trkpt lat="46.16806" lon="-1.08424">
        <ele>18.6</ele>
        <time>2020-05-31T17:09:17Z</time>
      </trkpt>
      <trkpt lat="46.16804" lon="-1.08435">
        <ele>18.6</ele>
        <time>2020-05-31T17:09:18Z</time>
      </trkpt>
      <trkpt lat="46.16804" lon="-1.08445">
        <ele>18.5</ele>
        <time>2020-05-31T17:09:19Z</time>
      </trkpt>
      <trkpt lat="46.16803" lon="-1.08456">
        <ele>18.4</ele>
        <time>2020-05-31T17:09:20Z</time>
      </trkpt>
      <trkpt lat="46.16802" lon="-1.08466">
        <ele>18.4</ele>
        <time>2020-05-31T17:09:21Z</time>
      </trkpt>
      <trkpt lat="46.168" lon="-1.08477">
        <ele>18.3</ele>
        <time>2020-05-31T17:09:22Z</time>
      </trkpt>
      <trkpt lat="46.16799" lon="-1.08488">
        <ele>18.2</ele>
        <time>2020-05-31T17:09:23Z</time>
      </trkpt>
      <trkpt lat="46.16798" lon="-1.08499">
        <ele>18.2</ele>
        <time>2020-05-31T17:09:24Z</time>
      </trkpt>
      <trkpt lat="46.16796" lon="-1.08509">
        <ele>18.1</ele>
        <time>2020-05-31T17:09:25Z</time>
      </trkpt>
      <trkpt lat="46.16794" lon="-1.0852">
        <ele>18.1</ele>
        <time>2020-05-31T17:09:26Z</time>
      </trkpt>
      <trkpt lat="46.16793" lon="-1.08531">
        <ele>18</ele>
        <time>2020-05-31T17:09:27Z</time>
      </trkpt>
      <trkpt lat="46.16792" lon="-1.08542">
        <ele>18</ele>
        <time>2020-05-31T17:09:28Z</time>
      </trkpt>
      <trkpt lat="46.1679" lon="-1.08552">
        <ele>17.9</ele>
        <time>2020-05-31T17:09:29Z</time>
      </trkpt>
      <trkpt lat="46.16788" lon="-1.08563">
        <ele>17.9</ele>
        <time>2020-05-31T17:09:30Z</time>
      </trkpt>
      <trkpt lat="46.16787" lon="-1.08573">
        <ele>17.8</ele>
        <time>2020-05-31T17:09:31Z</time>
      </trkpt>
      <trkpt lat="46.16785" lon="-1.08584">
        <ele>17.7</ele>
        <time>2020-05-31T17:09:32Z</time>
      </trkpt>
      <trkpt lat="46.16783" lon="-1.08595">
        <ele>17.6</ele>
        <time>2020-05-31T17:09:33Z</time>
      </trkpt>
      <trkpt lat="46.16782" lon="-1.08605">
        <ele>17.6</ele>
        <time>2020-05-31T17:09:34Z</time>
      </trkpt>
      <trkpt lat="46.1678" lon="-1.08616">
        <ele>17.5</ele>
        <time>2020-05-31T17:09:35Z</time>
      </trkpt>
      <trkpt lat="46.16779" lon="-1.08626">
        <ele>17.4</ele>
        <time>2020-05-31T17:09:36Z</time>
      </trkpt>
      <trkpt lat="46.16778" lon="-1.08637">
        <ele>17.2</ele>
        <time>2020-05-31T17:09:37Z</time>
      </trkpt>
      <trkpt lat="46.16776" lon="-1.08647">
        <ele>17.2</ele>
        <time>2020-05-31T17:09:38Z</time>
      </trkpt>
      <trkpt lat="46.16775" lon="-1.08657">
        <ele>17.1</ele>
        <time>2020-05-31T17:09:39Z</time>
      </trkpt>
      <trkpt lat="46.16774" lon="-1.08668">
        <ele>17</ele>
        <time>2020-05-31T17:09:40Z</time>
      </trkpt>
      <trkpt lat="46.16772" lon="-1.08679">
        <ele>16.9</ele>
        <time>2020-05-31T17:09:41Z</time>
      </trkpt>
      <trkpt lat="46.16771" lon="-1.0869">
        <ele>16.9</ele>
        <time>2020-05-31T17:09:42Z</time>
      </trkpt>
      <trkpt lat="46.16769" lon="-1.08701">
        <ele>16.7</ele>
        <time>2020-05-31T17:09:43Z</time>
      </trkpt>
      <trkpt lat="46.16768" lon="-1.08712">
        <ele>16.6</ele>
        <time>2020-05-31T17:09:44Z</time>
      </trkpt>
      <trkpt lat="46.16766" lon="-1.08723">
        <ele>16.4</ele>
        <time>2020-05-31T17:09:45Z</time>
      </trkpt>
      <trkpt lat="46.16765" lon="-1.08735">
        <ele>16.2</ele>
        <time>2020-05-31T17:09:46Z</time>
      </trkpt>
      <trkpt lat="46.16763" lon="-1.08746">
        <ele>16.1</ele>
        <time>2020-05-31T17:09:47Z</time>
      </trkpt>
      <trkpt lat="46.16762" lon="-1.08758">
        <ele>16</ele>
        <time>2020-05-31T17:09:48Z</time>
      </trkpt>
      <trkpt lat="46.16761" lon="-1.08769">
        <ele>16</ele>
        <time>2020-05-31T17:09:49Z</time>
      </trkpt>
      <trkpt lat="46.16759" lon="-1.0878">
        <ele>16</ele>
        <time>2020-05-31T17:09:50Z</time>
      </trkpt>
      <trkpt lat="46.16757" lon="-1.0879">
        <ele>16</ele>
        <time>2020-05-31T17:09:51Z</time>
      </trkpt>
      <trkpt lat="46.16756" lon="-1.088">
        <ele>16</ele>
        <time>2020-05-31T17:09:52Z</time>
      </trkpt>
      <trkpt lat="46.16754" lon="-1.08811">
        <ele>16</ele>
        <time>2020-05-31T17:09:53Z</time>
      </trkpt>
      <trkpt lat="46.16751" lon="-1.08821">
        <ele>16</ele>
        <time>2020-05-31T17:09:54Z</time>
      </trkpt>
      <trkpt lat="46.1675" lon="-1.08831">
        <ele>16</ele>
        <time>2020-05-31T17:09:55Z</time>
      </trkpt>
      <trkpt lat="46.16748" lon="-1.08842">
        <ele>16</ele>
        <time>2020-05-31T17:09:56Z</time>
      </trkpt>
      <trkpt lat="46.16748" lon="-1.08852">
        <ele>16</ele>
        <time>2020-05-31T17:09:57Z</time>
      </trkpt>
      <trkpt lat="46.16746" lon="-1.08863">
        <ele>16</ele>
        <time>2020-05-31T17:09:58Z</time>
      </trkpt>
      <trkpt lat="46.16746" lon="-1.08873">
        <ele>16</ele>
        <time>2020-05-31T17:09:59Z</time>
      </trkpt>
      <trkpt lat="46.16745" lon="-1.08884">
        <ele>16.1</ele>
        <time>2020-05-31T17:10:00Z</time>
      </trkpt>
      <trkpt lat="46.16743" lon="-1.08894">
        <ele>16</ele>
        <time>2020-05-31T17:10:01Z</time>
      </trkpt>
      <trkpt lat="46.16742" lon="-1.08905">
        <ele>16</ele>
        <time>2020-05-31T17:10:02Z</time>
      </trkpt>
      <trkpt lat="46.1674" lon="-1.08915">
        <ele>16</ele>
        <time>2020-05-31T17:10:03Z</time>
      </trkpt>
      <trkpt lat="46.16738" lon="-1.08926">
        <ele>16</ele>
        <time>2020-05-31T17:10:04Z</time>
      </trkpt>
      <trkpt lat="46.16737" lon="-1.08937">
        <ele>16</ele>
        <time>2020-05-31T17:10:05Z</time>
      </trkpt>
      <trkpt lat="46.16735" lon="-1.08947">
        <ele>16</ele>
        <time>2020-05-31T17:10:06Z</time>
      </trkpt>
      <trkpt lat="46.16733" lon="-1.08957">
        <ele>16</ele>
        <time>2020-05-31T17:10:07Z</time>
      </trkpt>
      <trkpt lat="46.16732" lon="-1.08966">
        <ele>16</ele>
        <time>2020-05-31T17:10:08Z</time>
      </trkpt>
      <trkpt lat="46.1673" lon="-1.08976">
        <ele>16</ele>
        <time>2020-05-31T17:10:09Z</time>
      </trkpt>
      <trkpt lat="46.16729" lon="-1.08986">
        <ele>16</ele>
        <time>2020-05-31T17:10:10Z</time>
      </trkpt>
      <trkpt lat="46.16728" lon="-1.08996">
        <ele>16</ele>
        <time>2020-05-31T17:10:11Z</time>
      </trkpt>
      <trkpt lat="46.16727" lon="-1.09006">
        <ele>15.9</ele>
        <time>2020-05-31T17:10:12Z</time>
      </trkpt>
      <trkpt lat="46.16726" lon="-1.09016">
        <ele>15.7</ele>
        <time>2020-05-31T17:10:13Z</time>
      </trkpt>
      <trkpt lat="46.16724" lon="-1.09025">
        <ele>15.6</ele>
        <time>2020-05-31T17:10:14Z</time>
      </trkpt>
      <trkpt lat="46.16723" lon="-1.09034">
        <ele>15.5</ele>
        <time>2020-05-31T17:10:15Z</time>
      </trkpt>
      <trkpt lat="46.16722" lon="-1.09043">
        <ele>15.4</ele>
        <time>2020-05-31T17:10:16Z</time>
      </trkpt>
      <trkpt lat="46.16721" lon="-1.09053">
        <ele>15.3</ele>
        <time>2020-05-31T17:10:17Z</time>
      </trkpt>
      <trkpt lat="46.1672" lon="-1.09062">
        <ele>15.3</ele>
        <time>2020-05-31T17:10:18Z</time>
      </trkpt>
      <trkpt lat="46.16719" lon="-1.09072">
        <ele>15.3</ele>
        <time>2020-05-31T17:10:19Z</time>
      </trkpt>
      <trkpt lat="46.16718" lon="-1.09081">
        <ele>15.3</ele>
        <time>2020-05-31T17:10:20Z</time>
      </trkpt>
      <trkpt lat="46.16718" lon="-1.0909">
        <ele>15.3</ele>
        <time>2020-05-31T17:10:21Z</time>
      </trkpt>
      <trkpt lat="46.16716" lon="-1.09099">
        <ele>15.2</ele>
        <time>2020-05-31T17:10:22Z</time>
      </trkpt>
      <trkpt lat="46.16715" lon="-1.09108">
        <ele>15.2</ele>
        <time>2020-05-31T17:10:23Z</time>
      </trkpt>
      <trkpt lat="46.16714" lon="-1.09117">
        <ele>15.1</ele>
        <time>2020-05-31T17:10:24Z</time>
      </trkpt>
      <trkpt lat="46.16713" lon="-1.09127">
        <ele>14.9</ele>
        <time>2020-05-31T17:10:25Z</time>
      </trkpt>
      <trkpt lat="46.16713" lon="-1.09137">
        <ele>14.8</ele>
        <time>2020-05-31T17:10:26Z</time>
      </trkpt>
      <trkpt lat="46.16712" lon="-1.09147">
        <ele>14.7</ele>
        <time>2020-05-31T17:10:27Z</time>
      </trkpt>
      <trkpt lat="46.16712" lon="-1.09157">
        <ele>14.6</ele>
        <time>2020-05-31T17:10:28Z</time>
      </trkpt>
      <trkpt lat="46.16712" lon="-1.09167">
        <ele>14.6</ele>
        <time>2020-05-31T17:10:29Z</time>
      </trkpt>
      <trkpt lat="46.16713" lon="-1.09177">
        <ele>14.5</ele>
        <time>2020-05-31T17:10:30Z</time>
      </trkpt>
      <trkpt lat="46.16713" lon="-1.09188">
        <ele>14.5</ele>
        <time>2020-05-31T17:10:31Z</time>
      </trkpt>
      <trkpt lat="46.16714" lon="-1.09198">
        <ele>14.5</ele>
        <time>2020-05-31T17:10:32Z</time>
      </trkpt>
      <trkpt lat="46.16715" lon="-1.09208">
        <ele>14.4</ele>
        <time>2020-05-31T17:10:33Z</time>
      </trkpt>
      <trkpt lat="46.16716" lon="-1.09219">
        <ele>14.4</ele>
        <time>2020-05-31T17:10:34Z</time>
      </trkpt>
      <trkpt lat="46.16717" lon="-1.09229">
        <ele>14.4</ele>
        <time>2020-05-31T17:10:35Z</time>
      </trkpt>
      <trkpt lat="46.16718" lon="-1.09239">
        <ele>14.4</ele>
        <time>2020-05-31T17:10:36Z</time>
      </trkpt>
      <trkpt lat="46.1672" lon="-1.09249">
        <ele>14.4</ele>
        <time>2020-05-31T17:10:37Z</time>
      </trkpt>
      <trkpt lat="46.16721" lon="-1.09259">
        <ele>14.3</ele>
        <time>2020-05-31T17:10:38Z</time>
      </trkpt>
      <trkpt lat="46.16723" lon="-1.09269">
        <ele>14.3</ele>
        <time>2020-05-31T17:10:39Z</time>
      </trkpt>
      <trkpt lat="46.16725" lon="-1.09279">
        <ele>14.2</ele>
        <time>2020-05-31T17:10:40Z</time>
      </trkpt>
      <trkpt lat="46.16726" lon="-1.0929">
        <ele>14.1</ele>
        <time>2020-05-31T17:10:41Z</time>
      </trkpt>
      <trkpt lat="46.16728" lon="-1.093">
        <ele>14.1</ele>
        <time>2020-05-31T17:10:42Z</time>
      </trkpt>
      <trkpt lat="46.1673" lon="-1.0931">
        <ele>14</ele>
        <time>2020-05-31T17:10:43Z</time>
      </trkpt>
      <trkpt lat="46.16731" lon="-1.09321">
        <ele>13.9</ele>
        <time>2020-05-31T17:10:44Z</time>
      </trkpt>
      <trkpt lat="46.16733" lon="-1.09331">
        <ele>13.8</ele>
        <time>2020-05-31T17:10:45Z</time>
      </trkpt>
      <trkpt lat="46.16735" lon="-1.09341">
        <ele>13.8</ele>
        <time>2020-05-31T17:10:46Z</time>
      </trkpt>
      <trkpt lat="46.16737" lon="-1.09351">
        <ele>13.7</ele>
        <time>2020-05-31T17:10:47Z</time>
      </trkpt>
      <trkpt lat="46.16739" lon="-1.09361">
        <ele>13.6</ele>
        <time>2020-05-31T17:10:48Z</time>
      </trkpt>
      <trkpt lat="46.16741" lon="-1.09371">
        <ele>13.5</ele>
        <time>2020-05-31T17:10:49Z</time>
      </trkpt>
      <trkpt lat="46.16744" lon="-1.09382">
        <ele>13.5</ele>
        <time>2020-05-31T17:10:50Z</time>
      </trkpt>
      <trkpt lat="46.16746" lon="-1.09392">
        <ele>13.5</ele>
        <time>2020-05-31T17:10:51Z</time>
      </trkpt>
      <trkpt lat="46.16748" lon="-1.09402">
        <ele>13.4</ele>
        <time>2020-05-31T17:10:52Z</time>
      </trkpt>
      <trkpt lat="46.1675" lon="-1.09413">
        <ele>13.4</ele>
        <time>2020-05-31T17:10:53Z</time>
      </trkpt>
      <trkpt lat="46.16752" lon="-1.09423">
        <ele>13.4</ele>
        <time>2020-05-31T17:10:54Z</time>
      </trkpt>
      <trkpt lat="46.16753" lon="-1.09433">
        <ele>13.3</ele>
        <time>2020-05-31T17:10:55Z</time>
      </trkpt>
      <trkpt lat="46.16755" lon="-1.09443">
        <ele>13.3</ele>
        <time>2020-05-31T17:10:56Z</time>
      </trkpt>
      <trkpt lat="46.16756" lon="-1.09453">
        <ele>13.3</ele>
        <time>2020-05-31T17:10:57Z</time>
      </trkpt>
      <trkpt lat="46.16758" lon="-1.09463">
        <ele>13.3</ele>
        <time>2020-05-31T17:10:58Z</time>
      </trkpt>
      <trkpt lat="46.1676" lon="-1.09473">
        <ele>13.2</ele>
        <time>2020-05-31T17:10:59Z</time>
      </trkpt>
      <trkpt lat="46.16762" lon="-1.09483">
        <ele>13.2</ele>
        <time>2020-05-31T17:11:00Z</time>
      </trkpt>
      <trkpt lat="46.16765" lon="-1.09493">
        <ele>13.2</ele>
        <time>2020-05-31T17:11:01Z</time>
      </trkpt>
      <trkpt lat="46.16767" lon="-1.09503">
        <ele>13.2</ele>
        <time>2020-05-31T17:11:02Z</time>
      </trkpt>
      <trkpt lat="46.16769" lon="-1.09512">
        <ele>13.2</ele>
        <time>2020-05-31T17:11:03Z</time>
      </trkpt>
      <trkpt lat="46.1677" lon="-1.09523">
        <ele>13.1</ele>
        <time>2020-05-31T17:11:04Z</time>
      </trkpt>
      <trkpt lat="46.16772" lon="-1.09533">
        <ele>13.1</ele>
        <time>2020-05-31T17:11:05Z</time>
      </trkpt>
      <trkpt lat="46.16773" lon="-1.09543">
        <ele>13.1</ele>
        <time>2020-05-31T17:11:06Z</time>
      </trkpt>
      <trkpt lat="46.16775" lon="-1.09552">
        <ele>13.1</ele>
        <time>2020-05-31T17:11:07Z</time>
      </trkpt>
      <trkpt lat="46.16776" lon="-1.09562">
        <ele>13.1</ele>
        <time>2020-05-31T17:11:08Z</time>
      </trkpt>
      <trkpt lat="46.16778" lon="-1.09572">
        <ele>13.1</ele>
        <time>2020-05-31T17:11:09Z</time>
      </trkpt>
      <trkpt lat="46.16779" lon="-1.09582">
        <ele>13.1</ele>
        <time>2020-05-31T17:11:10Z</time>
      </trkpt>
      <trkpt lat="46.16781" lon="-1.09592">
        <ele>13.1</ele>
        <time>2020-05-31T17:11:11Z</time>
      </trkpt>
      <trkpt lat="46.16783" lon="-1.09602">
        <ele>13.1</ele>
        <time>2020-05-31T17:11:12Z</time>
      </trkpt>
      <trkpt lat="46.16784" lon="-1.09612">
        <ele>13.2</ele>
        <time>2020-05-31T17:11:13Z</time>
      </trkpt>
      <trkpt lat="46.16786" lon="-1.09622">
        <ele>13.2</ele>
        <time>2020-05-31T17:11:14Z</time>
      </trkpt>
      <trkpt lat="46.16787" lon="-1.09631">
        <ele>13.2</ele>
        <time>2020-05-31T17:11:15Z</time>
      </trkpt>
      <trkpt lat="46.16789" lon="-1.09641">
        <ele>13.2</ele>
        <time>2020-05-31T17:11:16Z</time>
      </trkpt>
      <trkpt lat="46.16791" lon="-1.09651">
        <ele>13.2</ele>
        <time>2020-05-31T17:11:17Z</time>
      </trkpt>
      <trkpt lat="46.16793" lon="-1.09661">
        <ele>13.2</ele>
        <time>2020-05-31T17:11:18Z</time>
      </trkpt>
      <trkpt lat="46.16795" lon="-1.09671">
        <ele>13.2</ele>
        <time>2020-05-31T17:11:19Z</time>
      </trkpt>
      <trkpt lat="46.16796" lon="-1.09681">
        <ele>13.2</ele>
        <time>2020-05-31T17:11:20Z</time>
      </trkpt>
      <trkpt lat="46.16797" lon="-1.09691">
        <ele>13.2</ele>
        <time>2020-05-31T17:11:21Z</time>
      </trkpt>
      <trkpt lat="46.16799" lon="-1.09701">
        <ele>13.2</ele>
        <time>2020-05-31T17:11:22Z</time>
      </trkpt>
      <trkpt lat="46.16801" lon="-1.09711">
        <ele>13.2</ele>
        <time>2020-05-31T17:11:23Z</time>
      </trkpt>
      <trkpt lat="46.16803" lon="-1.09721">
        <ele>13.2</ele>
        <time>2020-05-31T17:11:24Z</time>
      </trkpt>
      <trkpt lat="46.16805" lon="-1.09731">
        <ele>13.2</ele>
        <time>2020-05-31T17:11:25Z</time>
      </trkpt>
      <trkpt lat="46.16807" lon="-1.0974">
        <ele>13.2</ele>
        <time>2020-05-31T17:11:26Z</time>
      </trkpt>
      <trkpt lat="46.16809" lon="-1.0975">
        <ele>13.2</ele>
        <time>2020-05-31T17:11:27Z</time>
      </trkpt>
      <trkpt lat="46.1681" lon="-1.0976">
        <ele>13.2</ele>
        <time>2020-05-31T17:11:28Z</time>
      </trkpt>
      <trkpt lat="46.16812" lon="-1.09769">
        <ele>13.2</ele>
        <time>2020-05-31T17:11:29Z</time>
      </trkpt>
      <trkpt lat="46.16813" lon="-1.09779">
        <ele>13.1</ele>
        <time>2020-05-31T17:11:30Z</time>
      </trkpt>
      <trkpt lat="46.16815" lon="-1.09788">
        <ele>13.1</ele>
        <time>2020-05-31T17:11:31Z</time>
      </trkpt>
      <trkpt lat="46.16816" lon="-1.09798">
        <ele>13.1</ele>
        <time>2020-05-31T17:11:32Z</time>
      </trkpt>
      <trkpt lat="46.16817" lon="-1.09807">
        <ele>13</ele>
        <time>2020-05-31T17:11:33Z</time>
      </trkpt>
      <trkpt lat="46.16819" lon="-1.09816">
        <ele>13</ele>
        <time>2020-05-31T17:11:34Z</time>
      </trkpt>
      <trkpt lat="46.16821" lon="-1.09825">
        <ele>13</ele>
        <time>2020-05-31T17:11:35Z</time>
      </trkpt>
      <trkpt lat="46.16823" lon="-1.09834">
        <ele>12.9</ele>
        <time>2020-05-31T17:11:36Z</time>
      </trkpt>
      <trkpt lat="46.16824" lon="-1.09843">
        <ele>12.9</ele>
        <time>2020-05-31T17:11:37Z</time>
      </trkpt>
      <trkpt lat="46.16825" lon="-1.09852">
        <ele>12.9</ele>
        <time>2020-05-31T17:11:38Z</time>
      </trkpt>
      <trkpt lat="46.16827" lon="-1.09861">
        <ele>12.9</ele>
        <time>2020-05-31T17:11:39Z</time>
      </trkpt>
      <trkpt lat="46.16829" lon="-1.09871">
        <ele>12.8</ele>
        <time>2020-05-31T17:11:40Z</time>
      </trkpt>
      <trkpt lat="46.16831" lon="-1.0988">
        <ele>12.8</ele>
        <time>2020-05-31T17:11:41Z</time>
      </trkpt>
      <trkpt lat="46.16833" lon="-1.09889">
        <ele>12.7</ele>
        <time>2020-05-31T17:11:42Z</time>
      </trkpt>
      <trkpt lat="46.16835" lon="-1.09899">
        <ele>12.7</ele>
        <time>2020-05-31T17:11:43Z</time>
      </trkpt>
      <trkpt lat="46.16835" lon="-1.09909">
        <ele>12.6</ele>
        <time>2020-05-31T17:11:44Z</time>
      </trkpt>
      <trkpt lat="46.16836" lon="-1.09918">
        <ele>12.5</ele>
        <time>2020-05-31T17:11:45Z</time>
      </trkpt>
      <trkpt lat="46.16837" lon="-1.09928">
        <ele>12.5</ele>
        <time>2020-05-31T17:11:46Z</time>
      </trkpt>
      <trkpt lat="46.16839" lon="-1.09937">
        <ele>12.5</ele>
        <time>2020-05-31T17:11:47Z</time>
      </trkpt>
      <trkpt lat="46.16841" lon="-1.09947">
        <ele>12.5</ele>
        <time>2020-05-31T17:11:48Z</time>
      </trkpt>
      <trkpt lat="46.16843" lon="-1.09956">
        <ele>12.4</ele>
        <time>2020-05-31T17:11:49Z</time>
      </trkpt>
      <trkpt lat="46.16845" lon="-1.09965">
        <ele>12.4</ele>
        <time>2020-05-31T17:11:50Z</time>
      </trkpt>
      <trkpt lat="46.16847" lon="-1.09974">
        <ele>12.4</ele>
        <time>2020-05-31T17:11:51Z</time>
      </trkpt>
      <trkpt lat="46.16847" lon="-1.09984">
        <ele>12.4</ele>
        <time>2020-05-31T17:11:52Z</time>
      </trkpt>
      <trkpt lat="46.16849" lon="-1.09993">
        <ele>12.4</ele>
        <time>2020-05-31T17:11:53Z</time>
      </trkpt>
      <trkpt lat="46.16851" lon="-1.10002">
        <ele>12.3</ele>
        <time>2020-05-31T17:11:54Z</time>
      </trkpt>
      <trkpt lat="46.16853" lon="-1.1001">
        <ele>12.3</ele>
        <time>2020-05-31T17:11:55Z</time>
      </trkpt>
      <trkpt lat="46.16854" lon="-1.1002">
        <ele>12.2</ele>
        <time>2020-05-31T17:11:56Z</time>
      </trkpt>
      <trkpt lat="46.16855" lon="-1.10029">
        <ele>12.2</ele>
        <time>2020-05-31T17:11:57Z</time>
      </trkpt>
      <trkpt lat="46.16857" lon="-1.10038">
        <ele>12.1</ele>
        <time>2020-05-31T17:11:58Z</time>
      </trkpt>
      <trkpt lat="46.16858" lon="-1.10048">
        <ele>12</ele>
        <time>2020-05-31T17:11:59Z</time>
      </trkpt>
      <trkpt lat="46.16859" lon="-1.10057">
        <ele>12</ele>
        <time>2020-05-31T17:12:00Z</time>
      </trkpt>
      <trkpt lat="46.16862" lon="-1.10066">
        <ele>11.9</ele>
        <time>2020-05-31T17:12:01Z</time>
      </trkpt>
      <trkpt lat="46.16863" lon="-1.10075">
        <ele>11.9</ele>
        <time>2020-05-31T17:12:02Z</time>
      </trkpt>
      <trkpt lat="46.16865" lon="-1.10084">
        <ele>11.8</ele>
        <time>2020-05-31T17:12:03Z</time>
      </trkpt>
      <trkpt lat="46.16866" lon="-1.10093">
        <ele>11.8</ele>
        <time>2020-05-31T17:12:04Z</time>
      </trkpt>
      <trkpt lat="46.16868" lon="-1.10102">
        <ele>11.7</ele>
        <time>2020-05-31T17:12:05Z</time>
      </trkpt>
      <trkpt lat="46.1687" lon="-1.10111">
        <ele>11.6</ele>
        <time>2020-05-31T17:12:06Z</time>
      </trkpt>
      <trkpt lat="46.16871" lon="-1.10121">
        <ele>11.6</ele>
        <time>2020-05-31T17:12:07Z</time>
      </trkpt>
      <trkpt lat="46.16873" lon="-1.10131">
        <ele>11.5</ele>
        <time>2020-05-31T17:12:08Z</time>
      </trkpt>
      <trkpt lat="46.16875" lon="-1.10141">
        <ele>11.4</ele>
        <time>2020-05-31T17:12:09Z</time>
      </trkpt>
      <trkpt lat="46.16877" lon="-1.10151">
        <ele>11.3</ele>
        <time>2020-05-31T17:12:10Z</time>
      </trkpt>
      <trkpt lat="46.16878" lon="-1.10161">
        <ele>11.3</ele>
        <time>2020-05-31T17:12:11Z</time>
      </trkpt>
      <trkpt lat="46.1688" lon="-1.10171">
        <ele>11.2</ele>
        <time>2020-05-31T17:12:12Z</time>
      </trkpt>
      <trkpt lat="46.16881" lon="-1.1018">
        <ele>11.1</ele>
        <time>2020-05-31T17:12:13Z</time>
      </trkpt>
      <trkpt lat="46.16882" lon="-1.1019">
        <ele>11.1</ele>
        <time>2020-05-31T17:12:14Z</time>
      </trkpt>
      <trkpt lat="46.16884" lon="-1.102">
        <ele>11</ele>
        <time>2020-05-31T17:12:15Z</time>
      </trkpt>
      <trkpt lat="46.16885" lon="-1.1021">
        <ele>11</ele>
        <time>2020-05-31T17:12:16Z</time>
      </trkpt>
      <trkpt lat="46.16886" lon="-1.1022">
        <ele>10.9</ele>
        <time>2020-05-31T17:12:17Z</time>
      </trkpt>
      <trkpt lat="46.16887" lon="-1.1023">
        <ele>10.8</ele>
        <time>2020-05-31T17:12:18Z</time>
      </trkpt>
      <trkpt lat="46.16888" lon="-1.1024">
        <ele>10.7</ele>
        <time>2020-05-31T17:12:19Z</time>
      </trkpt>
      <trkpt lat="46.16889" lon="-1.1025">
        <ele>10.6</ele>
        <time>2020-05-31T17:12:20Z</time>
      </trkpt>
      <trkpt lat="46.1689" lon="-1.1026">
        <ele>10.5</ele>
        <time>2020-05-31T17:12:21Z</time>
      </trkpt>
      <trkpt lat="46.16891" lon="-1.1027">
        <ele>10.4</ele>
        <time>2020-05-31T17:12:22Z</time>
      </trkpt>
      <trkpt lat="46.16891" lon="-1.1028">
        <ele>10.3</ele>
        <time>2020-05-31T17:12:23Z</time>
      </trkpt>
      <trkpt lat="46.1689" lon="-1.1029">
        <ele>10.3</ele>
        <time>2020-05-31T17:12:24Z</time>
      </trkpt>
      <trkpt lat="46.1689" lon="-1.10299">
        <ele>10.2</ele>
        <time>2020-05-31T17:12:25Z</time>
      </trkpt>
      <trkpt lat="46.16889" lon="-1.10309">
        <ele>10.1</ele>
        <time>2020-05-31T17:12:26Z</time>
      </trkpt>
      <trkpt lat="46.16889" lon="-1.10318">
        <ele>10.1</ele>
        <time>2020-05-31T17:12:27Z</time>
      </trkpt>
      <trkpt lat="46.16889" lon="-1.10328">
        <ele>10</ele>
        <time>2020-05-31T17:12:28Z</time>
      </trkpt>
      <trkpt lat="46.16889" lon="-1.10338">
        <ele>9.9</ele>
        <time>2020-05-31T17:12:29Z</time>
      </trkpt>
      <trkpt lat="46.16888" lon="-1.10348">
        <ele>9.9</ele>
        <time>2020-05-31T17:12:30Z</time>
      </trkpt>
      <trkpt lat="46.16887" lon="-1.10358">
        <ele>9.8</ele>
        <time>2020-05-31T17:12:31Z</time>
      </trkpt>
      <trkpt lat="46.16886" lon="-1.10368">
        <ele>9.7</ele>
        <time>2020-05-31T17:12:32Z</time>
      </trkpt>
      <trkpt lat="46.16885" lon="-1.10378">
        <ele>9.6</ele>
        <time>2020-05-31T17:12:33Z</time>
      </trkpt>
      <trkpt lat="46.16883" lon="-1.10388">
        <ele>9.5</ele>
        <time>2020-05-31T17:12:34Z</time>
      </trkpt>
      <trkpt lat="46.16881" lon="-1.10398">
        <ele>9.5</ele>
        <time>2020-05-31T17:12:35Z</time>
      </trkpt>
      <trkpt lat="46.16878" lon="-1.10407">
        <ele>9.4</ele>
        <time>2020-05-31T17:12:36Z</time>
      </trkpt>
      <trkpt lat="46.16876" lon="-1.10417">
        <ele>9.3</ele>
        <time>2020-05-31T17:12:37Z</time>
      </trkpt>
      <trkpt lat="46.16875" lon="-1.10427">
        <ele>9.3</ele>
        <time>2020-05-31T17:12:38Z</time>
      </trkpt>
      <trkpt lat="46.16872" lon="-1.10437">
        <ele>9.2</ele>
        <time>2020-05-31T17:12:39Z</time>
      </trkpt>
      <trkpt lat="46.1687" lon="-1.10448">
        <ele>9.2</ele>
        <time>2020-05-31T17:12:40Z</time>
      </trkpt>
      <trkpt lat="46.16867" lon="-1.10458">
        <ele>9.1</ele>
        <time>2020-05-31T17:12:41Z</time>
      </trkpt>
      <trkpt lat="46.16865" lon="-1.10468">
        <ele>9.1</ele>
        <time>2020-05-31T17:12:42Z</time>
      </trkpt>
      <trkpt lat="46.16861" lon="-1.10478">
        <ele>9.1</ele>
        <time>2020-05-31T17:12:43Z</time>
      </trkpt>
      <trkpt lat="46.16859" lon="-1.10489">
        <ele>9</ele>
        <time>2020-05-31T17:12:44Z</time>
      </trkpt>
      <trkpt lat="46.16854" lon="-1.105">
        <ele>8.9</ele>
        <time>2020-05-31T17:12:45Z</time>
      </trkpt>
      <trkpt lat="46.16851" lon="-1.1051">
        <ele>8.7</ele>
        <time>2020-05-31T17:12:46Z</time>
      </trkpt>
      <trkpt lat="46.16846" lon="-1.1052">
        <ele>8.5</ele>
        <time>2020-05-31T17:12:47Z</time>
      </trkpt>
      <trkpt lat="46.16842" lon="-1.10531">
        <ele>8.4</ele>
        <time>2020-05-31T17:12:48Z</time>
      </trkpt>
      <trkpt lat="46.16838" lon="-1.10541">
        <ele>8.3</ele>
        <time>2020-05-31T17:12:49Z</time>
      </trkpt>
      <trkpt lat="46.16834" lon="-1.10551">
        <ele>8.3</ele>
        <time>2020-05-31T17:12:50Z</time>
      </trkpt>
      <trkpt lat="46.16829" lon="-1.10561">
        <ele>8.3</ele>
        <time>2020-05-31T17:12:51Z</time>
      </trkpt>
      <trkpt lat="46.16825" lon="-1.10571">
        <ele>8.3</ele>
        <time>2020-05-31T17:12:52Z</time>
      </trkpt>
      <trkpt lat="46.1682" lon="-1.10581">
        <ele>8.3</ele>
        <time>2020-05-31T17:12:53Z</time>
      </trkpt>
      <trkpt lat="46.16816" lon="-1.10591">
        <ele>8.2</ele>
        <time>2020-05-31T17:12:54Z</time>
      </trkpt>
      <trkpt lat="46.16812" lon="-1.10601">
        <ele>8.2</ele>
        <time>2020-05-31T17:12:55Z</time>
      </trkpt>
      <trkpt lat="46.16808" lon="-1.10611">
        <ele>8.3</ele>
        <time>2020-05-31T17:12:56Z</time>
      </trkpt>
      <trkpt lat="46.16803" lon="-1.10621">
        <ele>8.3</ele>
        <time>2020-05-31T17:12:57Z</time>
      </trkpt>
      <trkpt lat="46.16798" lon="-1.1063">
        <ele>8.3</ele>
        <time>2020-05-31T17:12:58Z</time>
      </trkpt>
      <trkpt lat="46.16793" lon="-1.1064">
        <ele>8.3</ele>
        <time>2020-05-31T17:12:59Z</time>
      </trkpt>
      <trkpt lat="46.16788" lon="-1.1065">
        <ele>8.3</ele>
        <time>2020-05-31T17:13:00Z</time>
      </trkpt>
      <trkpt lat="46.16784" lon="-1.1066">
        <ele>8.3</ele>
        <time>2020-05-31T17:13:01Z</time>
      </trkpt>
      <trkpt lat="46.16779" lon="-1.1067">
        <ele>8.3</ele>
        <time>2020-05-31T17:13:02Z</time>
      </trkpt>
      <trkpt lat="46.16774" lon="-1.10679">
        <ele>8.3</ele>
        <time>2020-05-31T17:13:03Z</time>
      </trkpt>
      <trkpt lat="46.1677" lon="-1.10688">
        <ele>8.3</ele>
        <time>2020-05-31T17:13:04Z</time>
      </trkpt>
      <trkpt lat="46.16765" lon="-1.10698">
        <ele>8.3</ele>
        <time>2020-05-31T17:13:05Z</time>
      </trkpt>
      <trkpt lat="46.16761" lon="-1.10708">
        <ele>8.3</ele>
        <time>2020-05-31T17:13:06Z</time>
      </trkpt>
      <trkpt lat="46.16758" lon="-1.10717">
        <ele>8.3</ele>
        <time>2020-05-31T17:13:07Z</time>
      </trkpt>
      <trkpt lat="46.16753" lon="-1.10726">
        <ele>8.3</ele>
        <time>2020-05-31T17:13:08Z</time>
      </trkpt>
      <trkpt lat="46.1675" lon="-1.10735">
        <ele>8.3</ele>
        <time>2020-05-31T17:13:09Z</time>
      </trkpt>
      <trkpt lat="46.16746" lon="-1.10744">
        <ele>8.3</ele>
        <time>2020-05-31T17:13:10Z</time>
      </trkpt>
      <trkpt lat="46.16742" lon="-1.10753">
        <ele>8.3</ele>
        <time>2020-05-31T17:13:11Z</time>
      </trkpt>
      <trkpt lat="46.16737" lon="-1.10761">
        <ele>8.3</ele>
        <time>2020-05-31T17:13:12Z</time>
      </trkpt>
      <trkpt lat="46.16733" lon="-1.10769">
        <ele>8.3</ele>
        <time>2020-05-31T17:13:13Z</time>
      </trkpt>
      <trkpt lat="46.16729" lon="-1.10777">
        <ele>8.3</ele>
        <time>2020-05-31T17:13:14Z</time>
      </trkpt>
      <trkpt lat="46.16725" lon="-1.10786">
        <ele>8.3</ele>
        <time>2020-05-31T17:13:15Z</time>
      </trkpt>
      <trkpt lat="46.16721" lon="-1.10794">
        <ele>8.3</ele>
        <time>2020-05-31T17:13:16Z</time>
      </trkpt>
      <trkpt lat="46.16716" lon="-1.10801">
        <ele>8.3</ele>
        <time>2020-05-31T17:13:17Z</time>
      </trkpt>
      <trkpt lat="46.16712" lon="-1.10809">
        <ele>8.3</ele>
        <time>2020-05-31T17:13:18Z</time>
      </trkpt>
      <trkpt lat="46.16707" lon="-1.10816">
        <ele>8.4</ele>
        <time>2020-05-31T17:13:19Z</time>
      </trkpt>
      <trkpt lat="46.16702" lon="-1.10823">
        <ele>8.4</ele>
        <time>2020-05-31T17:13:20Z</time>
      </trkpt>
      <trkpt lat="46.16697" lon="-1.10829">
        <ele>8.4</ele>
        <time>2020-05-31T17:13:21Z</time>
      </trkpt>
      <trkpt lat="46.16693" lon="-1.10834">
        <ele>8.4</ele>
        <time>2020-05-31T17:13:22Z</time>
      </trkpt>
      <trkpt lat="46.16689" lon="-1.10839">
        <ele>8.4</ele>
        <time>2020-05-31T17:13:23Z</time>
      </trkpt>
      <trkpt lat="46.16687" lon="-1.10844">
        <ele>8.3</ele>
        <time>2020-05-31T17:13:24Z</time>
      </trkpt>
      <trkpt lat="46.16685" lon="-1.10849">
        <ele>8.3</ele>
        <time>2020-05-31T17:13:25Z</time>
      </trkpt>
      <trkpt lat="46.16685" lon="-1.10853">
        <ele>8.3</ele>
        <time>2020-05-31T17:13:26Z</time>
      </trkpt>
      <trkpt lat="46.16687" lon="-1.10858">
        <ele>8.3</ele>
        <time>2020-05-31T17:13:27Z</time>
      </trkpt>
      <trkpt lat="46.16688" lon="-1.10862">
        <ele>8.3</ele>
        <time>2020-05-31T17:13:28Z</time>
      </trkpt>
      <trkpt lat="46.1669" lon="-1.10865">
        <ele>8.2</ele>
        <time>2020-05-31T17:13:29Z</time>
      </trkpt>
      <trkpt lat="46.16693" lon="-1.10869">
        <ele>8.2</ele>
        <time>2020-05-31T17:13:30Z</time>
      </trkpt>
      <trkpt lat="46.16696" lon="-1.10873">
        <ele>8.2</ele>
        <time>2020-05-31T17:13:31Z</time>
      </trkpt>
      <trkpt lat="46.16699" lon="-1.10877">
        <ele>8.3</ele>
        <time>2020-05-31T17:13:32Z</time>
      </trkpt>
      <trkpt lat="46.16702" lon="-1.10881">
        <ele>8.3</ele>
        <time>2020-05-31T17:13:33Z</time>
      </trkpt>
      <trkpt lat="46.16705" lon="-1.10884">
        <ele>8.3</ele>
        <time>2020-05-31T17:13:34Z</time>
      </trkpt>
      <trkpt lat="46.16709" lon="-1.10885">
        <ele>8.3</ele>
        <time>2020-05-31T17:13:35Z</time>
      </trkpt>
      <trkpt lat="46.16712" lon="-1.10889">
        <ele>8.3</ele>
        <time>2020-05-31T17:13:36Z</time>
      </trkpt>
      <trkpt lat="46.16714" lon="-1.10892">
        <ele>8.4</ele>
        <time>2020-05-31T17:13:37Z</time>
      </trkpt>
      <trkpt lat="46.16714" lon="-1.10895">
        <ele>8.4</ele>
        <time>2020-05-31T17:13:38Z</time>
      </trkpt>
      <trkpt lat="46.16714" lon="-1.10896">
        <ele>8.4</ele>
        <time>2020-05-31T17:13:39Z</time>
      </trkpt>
      <trkpt lat="46.16714" lon="-1.10897">
        <ele>8.4</ele>
        <time>2020-05-31T17:13:40Z</time>
      </trkpt>
      <trkpt lat="46.16716" lon="-1.10901">
        <ele>8.4</ele>
        <time>2020-05-31T17:13:41Z</time>
      </trkpt>
      <trkpt lat="46.16716" lon="-1.10906">
        <ele>8.4</ele>
        <time>2020-05-31T17:13:42Z</time>
      </trkpt>
      <trkpt lat="46.16716" lon="-1.10907">
        <ele>8.4</ele>
        <time>2020-05-31T17:13:43Z</time>
      </trkpt>
      <trkpt lat="46.16716" lon="-1.10909">
        <ele>8.4</ele>
        <time>2020-05-31T17:13:44Z</time>
      </trkpt>
      <trkpt lat="46.16716" lon="-1.10909">
        <ele>8.4</ele>
        <time>2020-05-31T17:13:45Z</time>
      </trkpt>
      <trkpt lat="46.16717" lon="-1.1091">
        <ele>8.4</ele>
        <time>2020-05-31T17:13:46Z</time>
      </trkpt>
      <trkpt lat="46.16717" lon="-1.1091">
        <ele>8.4</ele>
        <time>2020-05-31T17:13:47Z</time>
      </trkpt>
      <trkpt lat="46.16717" lon="-1.10911">
        <ele>8.4</ele>
        <time>2020-05-31T17:13:48Z</time>
      </trkpt>
      <trkpt lat="46.16717" lon="-1.10911">
        <ele>8.4</ele>
        <time>2020-05-31T17:13:49Z</time>
      </trkpt>
      <trkpt lat="46.16717" lon="-1.10912">
        <ele>8.4</ele>
        <time>2020-05-31T17:13:50Z</time>
      </trkpt>
      <trkpt lat="46.16717" lon="-1.10912">
        <ele>8.4</ele>
        <time>2020-05-31T17:13:51Z</time>
      </trkpt>
      <trkpt lat="46.16718" lon="-1.10913">
        <ele>8.4</ele>
        <time>2020-05-31T17:13:52Z</time>
      </trkpt>
      <trkpt lat="46.16718" lon="-1.10913">
        <ele>8.4</ele>
        <time>2020-05-31T17:13:53Z</time>
      </trkpt>
      <trkpt lat="46.16717" lon="-1.10914">
        <ele>8.4</ele>
        <time>2020-05-31T17:13:54Z</time>
      </trkpt>
      <trkpt lat="46.16718" lon="-1.10914">
        <ele>8.4</ele>
        <time>2020-05-31T17:13:55Z</time>
      </trkpt>
      <trkpt lat="46.16718" lon="-1.10914">
        <ele>8.4</ele>
        <time>2020-05-31T17:13:56Z</time>
      </trkpt>
      <trkpt lat="46.16718" lon="-1.10914">
        <ele>8.4</ele>
        <time>2020-05-31T17:13:57Z</time>
      </trkpt>
      <trkpt lat="46.16718" lon="-1.10914">
        <ele>8.4</ele>
        <time>2020-05-31T17:13:58Z</time>
      </trkpt>
      <trkpt lat="46.16719" lon="-1.10914">
        <ele>8.4</ele>
        <time>2020-05-31T17:13:59Z</time>
      </trkpt>
      <trkpt lat="46.1672" lon="-1.10914">
        <ele>8.4</ele>
        <time>2020-05-31T17:14:00Z</time>
      </trkpt>
      <trkpt lat="46.1672" lon="-1.10914">
        <ele>8.4</ele>
        <time>2020-05-31T17:14:01Z</time>
      </trkpt>
      <trkpt lat="46.16721" lon="-1.10914">
        <ele>8.4</ele>
        <time>2020-05-31T17:14:02Z</time>
      </trkpt>
      <trkpt lat="46.16721" lon="-1.10913">
        <ele>8.4</ele>
        <time>2020-05-31T17:14:03Z</time>
      </trkpt>
      <trkpt lat="46.1672" lon="-1.10914">
        <ele>8.4</ele>
        <time>2020-05-31T17:14:04Z</time>
      </trkpt>
      <trkpt lat="46.16721" lon="-1.10913">
        <ele>8.4</ele>
        <time>2020-05-31T17:14:05Z</time>
      </trkpt>
      <trkpt lat="46.16722" lon="-1.10912">
        <ele>8.4</ele>
        <time>2020-05-31T17:14:06Z</time>
      </trkpt>
      <trkpt lat="46.16721" lon="-1.10913">
        <ele>8.4</ele>
        <time>2020-05-31T17:14:07Z</time>
      </trkpt>
      <trkpt lat="46.16722" lon="-1.10912">
        <ele>8.4</ele>
        <time>2020-05-31T17:14:08Z</time>
      </trkpt>
      <trkpt lat="46.16722" lon="-1.10913">
        <ele>8.4</ele>
        <time>2020-05-31T17:14:09Z</time>
      </trkpt>
      <trkpt lat="46.16723" lon="-1.10912">
        <ele>8.5</ele>
        <time>2020-05-31T17:14:10Z</time>
      </trkpt>
      <trkpt lat="46.16721" lon="-1.10913">
        <ele>8.5</ele>
        <time>2020-05-31T17:14:11Z</time>
      </trkpt>
      <trkpt lat="46.16722" lon="-1.10913">
        <ele>8.5</ele>
        <time>2020-05-31T17:14:12Z</time>
      </trkpt>
      <trkpt lat="46.16722" lon="-1.10914">
        <ele>8.5</ele>
        <time>2020-05-31T17:14:13Z</time>
      </trkpt>
      <trkpt lat="46.16722" lon="-1.10915">
        <ele>8.5</ele>
        <time>2020-05-31T17:14:14Z</time>
      </trkpt>
      <trkpt lat="46.16722" lon="-1.10915">
        <ele>8.5</ele>
        <time>2020-05-31T17:14:15Z</time>
      </trkpt>
      <trkpt lat="46.16721" lon="-1.10916">
        <ele>8.5</ele>
        <time>2020-05-31T17:14:16Z</time>
      </trkpt>
      <trkpt lat="46.16721" lon="-1.10916">
        <ele>8.5</ele>
        <time>2020-05-31T17:14:17Z</time>
      </trkpt>
      <trkpt lat="46.16719" lon="-1.10915">
        <ele>8.5</ele>
        <time>2020-05-31T17:14:18Z</time>
      </trkpt>
      <trkpt lat="46.16718" lon="-1.10917">
        <ele>8.5</ele>
        <time>2020-05-31T17:14:19Z</time>
      </trkpt>
      <trkpt lat="46.16716" lon="-1.10921">
        <ele>8.4</ele>
        <time>2020-05-31T17:14:20Z</time>
      </trkpt>
      <trkpt lat="46.16716" lon="-1.10923">
        <ele>8.4</ele>
        <time>2020-05-31T17:14:21Z</time>
      </trkpt>
      <trkpt lat="46.16714" lon="-1.10926">
        <ele>8.4</ele>
        <time>2020-05-31T17:14:22Z</time>
      </trkpt>
      <trkpt lat="46.16712" lon="-1.10928">
        <ele>8.4</ele>
        <time>2020-05-31T17:14:23Z</time>
      </trkpt>
      <trkpt lat="46.1671" lon="-1.10931">
        <ele>8.4</ele>
        <time>2020-05-31T17:14:24Z</time>
      </trkpt>
      <trkpt lat="46.16707" lon="-1.10935">
        <ele>8.4</ele>
        <time>2020-05-31T17:14:25Z</time>
      </trkpt>
      <trkpt lat="46.16706" lon="-1.10936">
        <ele>8.4</ele>
        <time>2020-05-31T17:14:26Z</time>
      </trkpt>
      <trkpt lat="46.16704" lon="-1.10941">
        <ele>8.4</ele>
        <time>2020-05-31T17:14:27Z</time>
      </trkpt>
      <trkpt lat="46.16703" lon="-1.10943">
        <ele>8.4</ele>
        <time>2020-05-31T17:14:28Z</time>
      </trkpt>
      <trkpt lat="46.16702" lon="-1.10946">
        <ele>8.4</ele>
        <time>2020-05-31T17:14:29Z</time>
      </trkpt>
      <trkpt lat="46.167" lon="-1.10949">
        <ele>8.4</ele>
        <time>2020-05-31T17:14:30Z</time>
      </trkpt>
      <trkpt lat="46.16699" lon="-1.10953">
        <ele>8.4</ele>
        <time>2020-05-31T17:14:31Z</time>
      </trkpt>
      <trkpt lat="46.16697" lon="-1.10957">
        <ele>8.4</ele>
        <time>2020-05-31T17:14:32Z</time>
      </trkpt>
      <trkpt lat="46.16695" lon="-1.1096">
        <ele>8.3</ele>
        <time>2020-05-31T17:14:33Z</time>
      </trkpt>
      <trkpt lat="46.16694" lon="-1.10964">
        <ele>8.3</ele>
        <time>2020-05-31T17:14:34Z</time>
      </trkpt>
      <trkpt lat="46.16693" lon="-1.10968">
        <ele>8.3</ele>
        <time>2020-05-31T17:14:35Z</time>
      </trkpt>
      <trkpt lat="46.16692" lon="-1.10973">
        <ele>8.3</ele>
        <time>2020-05-31T17:14:36Z</time>
      </trkpt>
      <trkpt lat="46.16691" lon="-1.10974">
        <ele>8.3</ele>
        <time>2020-05-31T17:14:37Z</time>
      </trkpt>
      <trkpt lat="46.16689" lon="-1.10978">
        <ele>8.2</ele>
        <time>2020-05-31T17:14:38Z</time>
      </trkpt>
      <trkpt lat="46.16688" lon="-1.10979">
        <ele>8.2</ele>
        <time>2020-05-31T17:14:39Z</time>
      </trkpt>
      <trkpt lat="46.16687" lon="-1.10983">
        <ele>8.2</ele>
        <time>2020-05-31T17:14:40Z</time>
      </trkpt>
      <trkpt lat="46.16687" lon="-1.10985">
        <ele>8.2</ele>
        <time>2020-05-31T17:14:41Z</time>
      </trkpt>
      <trkpt lat="46.16686" lon="-1.10991">
        <ele>8.1</ele>
        <time>2020-05-31T17:14:42Z</time>
      </trkpt>
      <trkpt lat="46.16685" lon="-1.10993">
        <ele>8.1</ele>
        <time>2020-05-31T17:14:43Z</time>
      </trkpt>
      <trkpt lat="46.16684" lon="-1.10997">
        <ele>8.1</ele>
        <time>2020-05-31T17:14:44Z</time>
      </trkpt>
      <trkpt lat="46.16683" lon="-1.11002">
        <ele>8</ele>
        <time>2020-05-31T17:14:45Z</time>
      </trkpt>
      <trkpt lat="46.16681" lon="-1.11006">
        <ele>8</ele>
        <time>2020-05-31T17:14:46Z</time>
      </trkpt>
      <trkpt lat="46.16678" lon="-1.1101">
        <ele>7.9</ele>
        <time>2020-05-31T17:14:47Z</time>
      </trkpt>
      <trkpt lat="46.16676" lon="-1.11016">
        <ele>7.9</ele>
        <time>2020-05-31T17:14:48Z</time>
      </trkpt>
      <trkpt lat="46.16672" lon="-1.11022">
        <ele>7.8</ele>
        <time>2020-05-31T17:14:49Z</time>
      </trkpt>
      <trkpt lat="46.16667" lon="-1.11029">
        <ele>7.7</ele>
        <time>2020-05-31T17:14:50Z</time>
      </trkpt>
      <trkpt lat="46.16664" lon="-1.11035">
        <ele>7.7</ele>
        <time>2020-05-31T17:14:51Z</time>
      </trkpt>
      <trkpt lat="46.1666" lon="-1.11043">
        <ele>7.6</ele>
        <time>2020-05-31T17:14:52Z</time>
      </trkpt>
      <trkpt lat="46.16657" lon="-1.1105">
        <ele>7.5</ele>
        <time>2020-05-31T17:14:53Z</time>
      </trkpt>
      <trkpt lat="46.16653" lon="-1.11057">
        <ele>7.4</ele>
        <time>2020-05-31T17:14:54Z</time>
      </trkpt>
      <trkpt lat="46.16649" lon="-1.11065">
        <ele>7.2</ele>
        <time>2020-05-31T17:14:55Z</time>
      </trkpt>
      <trkpt lat="46.16645" lon="-1.11072">
        <ele>7.1</ele>
        <time>2020-05-31T17:14:56Z</time>
      </trkpt>
      <trkpt lat="46.16642" lon="-1.1108">
        <ele>7</ele>
        <time>2020-05-31T17:14:57Z</time>
      </trkpt>
      <trkpt lat="46.16638" lon="-1.11088">
        <ele>6.9</ele>
        <time>2020-05-31T17:14:58Z</time>
      </trkpt>
      <trkpt lat="46.16634" lon="-1.11096">
        <ele>6.8</ele>
        <time>2020-05-31T17:14:59Z</time>
      </trkpt>
      <trkpt lat="46.16629" lon="-1.11104">
        <ele>6.8</ele>
        <time>2020-05-31T17:15:00Z</time>
      </trkpt>
      <trkpt lat="46.16624" lon="-1.11112">
        <ele>6.8</ele>
        <time>2020-05-31T17:15:01Z</time>
      </trkpt>
      <trkpt lat="46.1662" lon="-1.1112">
        <ele>6.8</ele>
        <time>2020-05-31T17:15:02Z</time>
      </trkpt>
      <trkpt lat="46.16615" lon="-1.11129">
        <ele>6.8</ele>
        <time>2020-05-31T17:15:03Z</time>
      </trkpt>
      <trkpt lat="46.16612" lon="-1.11138">
        <ele>6.7</ele>
        <time>2020-05-31T17:15:04Z</time>
      </trkpt>
      <trkpt lat="46.16608" lon="-1.11146">
        <ele>6.7</ele>
        <time>2020-05-31T17:15:05Z</time>
      </trkpt>
      <trkpt lat="46.16604" lon="-1.11154">
        <ele>6.6</ele>
        <time>2020-05-31T17:15:06Z</time>
      </trkpt>
      <trkpt lat="46.166" lon="-1.11161">
        <ele>6.6</ele>
        <time>2020-05-31T17:15:07Z</time>
      </trkpt>
      <trkpt lat="46.16596" lon="-1.11169">
        <ele>6.6</ele>
        <time>2020-05-31T17:15:08Z</time>
      </trkpt>
      <trkpt lat="46.16593" lon="-1.11175">
        <ele>6.6</ele>
        <time>2020-05-31T17:15:09Z</time>
      </trkpt>
      <trkpt lat="46.1659" lon="-1.11182">
        <ele>6.6</ele>
        <time>2020-05-31T17:15:10Z</time>
      </trkpt>
      <trkpt lat="46.16586" lon="-1.1119">
        <ele>6.6</ele>
        <time>2020-05-31T17:15:11Z</time>
      </trkpt>
      <trkpt lat="46.16583" lon="-1.11197">
        <ele>6.6</ele>
        <time>2020-05-31T17:15:12Z</time>
      </trkpt>
      <trkpt lat="46.16579" lon="-1.11203">
        <ele>6.6</ele>
        <time>2020-05-31T17:15:13Z</time>
      </trkpt>
      <trkpt lat="46.16576" lon="-1.1121">
        <ele>6.6</ele>
        <time>2020-05-31T17:15:14Z</time>
      </trkpt>
      <trkpt lat="46.16573" lon="-1.11217">
        <ele>6.6</ele>
        <time>2020-05-31T17:15:15Z</time>
      </trkpt>
      <trkpt lat="46.16569" lon="-1.11224">
        <ele>6.6</ele>
        <time>2020-05-31T17:15:16Z</time>
      </trkpt>
      <trkpt lat="46.16566" lon="-1.11232">
        <ele>6.6</ele>
        <time>2020-05-31T17:15:17Z</time>
      </trkpt>
      <trkpt lat="46.16562" lon="-1.11238">
        <ele>6.6</ele>
        <time>2020-05-31T17:15:18Z</time>
      </trkpt>
      <trkpt lat="46.16559" lon="-1.11245">
        <ele>6.6</ele>
        <time>2020-05-31T17:15:19Z</time>
      </trkpt>
      <trkpt lat="46.16556" lon="-1.11251">
        <ele>6.6</ele>
        <time>2020-05-31T17:15:20Z</time>
      </trkpt>
      <trkpt lat="46.16553" lon="-1.11257">
        <ele>6.6</ele>
        <time>2020-05-31T17:15:21Z</time>
      </trkpt>
      <trkpt lat="46.16549" lon="-1.11264">
        <ele>6.6</ele>
        <time>2020-05-31T17:15:22Z</time>
      </trkpt>
      <trkpt lat="46.16546" lon="-1.11271">
        <ele>6.6</ele>
        <time>2020-05-31T17:15:23Z</time>
      </trkpt>
      <trkpt lat="46.16542" lon="-1.11277">
        <ele>6.6</ele>
        <time>2020-05-31T17:15:24Z</time>
      </trkpt>
      <trkpt lat="46.16539" lon="-1.11283">
        <ele>6.6</ele>
        <time>2020-05-31T17:15:25Z</time>
      </trkpt>
      <trkpt lat="46.16536" lon="-1.11289">
        <ele>6.6</ele>
        <time>2020-05-31T17:15:26Z</time>
      </trkpt>
      <trkpt lat="46.16533" lon="-1.11295">
        <ele>6.6</ele>
        <time>2020-05-31T17:15:27Z</time>
      </trkpt>
      <trkpt lat="46.16529" lon="-1.11302">
        <ele>6.6</ele>
        <time>2020-05-31T17:15:28Z</time>
      </trkpt>
      <trkpt lat="46.16526" lon="-1.11309">
        <ele>6.6</ele>
        <time>2020-05-31T17:15:29Z</time>
      </trkpt>
      <trkpt lat="46.16524" lon="-1.11317">
        <ele>6.6</ele>
        <time>2020-05-31T17:15:30Z</time>
      </trkpt>
      <trkpt lat="46.1652" lon="-1.11324">
        <ele>6.6</ele>
        <time>2020-05-31T17:15:31Z</time>
      </trkpt>
      <trkpt lat="46.16517" lon="-1.11331">
        <ele>6.6</ele>
        <time>2020-05-31T17:15:32Z</time>
      </trkpt>
      <trkpt lat="46.16514" lon="-1.11338">
        <ele>6.6</ele>
        <time>2020-05-31T17:15:33Z</time>
      </trkpt>
      <trkpt lat="46.16511" lon="-1.11346">
        <ele>6.6</ele>
        <time>2020-05-31T17:15:34Z</time>
      </trkpt>
      <trkpt lat="46.16507" lon="-1.11354">
        <ele>6.6</ele>
        <time>2020-05-31T17:15:35Z</time>
      </trkpt>
      <trkpt lat="46.16504" lon="-1.11361">
        <ele>6.6</ele>
        <time>2020-05-31T17:15:36Z</time>
      </trkpt>
      <trkpt lat="46.16501" lon="-1.11367">
        <ele>6.6</ele>
        <time>2020-05-31T17:15:37Z</time>
      </trkpt>
      <trkpt lat="46.16499" lon="-1.11372">
        <ele>6.6</ele>
        <time>2020-05-31T17:15:38Z</time>
      </trkpt>
      <trkpt lat="46.16496" lon="-1.11378">
        <ele>6.6</ele>
        <time>2020-05-31T17:15:39Z</time>
      </trkpt>
      <trkpt lat="46.16492" lon="-1.11385">
        <ele>6.5</ele>
        <time>2020-05-31T17:15:40Z</time>
      </trkpt>
      <trkpt lat="46.16487" lon="-1.11391">
        <ele>6.4</ele>
        <time>2020-05-31T17:15:41Z</time>
      </trkpt>
      <trkpt lat="46.16483" lon="-1.114">
        <ele>6.3</ele>
        <time>2020-05-31T17:15:42Z</time>
      </trkpt>
      <trkpt lat="46.16479" lon="-1.11409">
        <ele>6.2</ele>
        <time>2020-05-31T17:15:43Z</time>
      </trkpt>
      <trkpt lat="46.16475" lon="-1.11418">
        <ele>6.1</ele>
        <time>2020-05-31T17:15:44Z</time>
      </trkpt>
      <trkpt lat="46.16471" lon="-1.11427">
        <ele>6</ele>
        <time>2020-05-31T17:15:45Z</time>
      </trkpt>
      <trkpt lat="46.16467" lon="-1.11437">
        <ele>5.8</ele>
        <time>2020-05-31T17:15:46Z</time>
      </trkpt>
      <trkpt lat="46.16463" lon="-1.11446">
        <ele>5.6</ele>
        <time>2020-05-31T17:15:47Z</time>
      </trkpt>
      <trkpt lat="46.1646" lon="-1.11455">
        <ele>5.5</ele>
        <time>2020-05-31T17:15:48Z</time>
      </trkpt>
      <trkpt lat="46.16456" lon="-1.11464">
        <ele>5.4</ele>
        <time>2020-05-31T17:15:49Z</time>
      </trkpt>
      <trkpt lat="46.16453" lon="-1.11472">
        <ele>5.3</ele>
        <time>2020-05-31T17:15:50Z</time>
      </trkpt>
      <trkpt lat="46.1645" lon="-1.1148">
        <ele>5.2</ele>
        <time>2020-05-31T17:15:51Z</time>
      </trkpt>
      <trkpt lat="46.16446" lon="-1.11489">
        <ele>5.1</ele>
        <time>2020-05-31T17:15:52Z</time>
      </trkpt>
      <trkpt lat="46.16443" lon="-1.11499">
        <ele>5</ele>
        <time>2020-05-31T17:15:53Z</time>
      </trkpt>
      <trkpt lat="46.16439" lon="-1.11509">
        <ele>5</ele>
        <time>2020-05-31T17:15:54Z</time>
      </trkpt>
      <trkpt lat="46.16437" lon="-1.11519">
        <ele>4.9</ele>
        <time>2020-05-31T17:15:55Z</time>
      </trkpt>
      <trkpt lat="46.16433" lon="-1.11528">
        <ele>4.9</ele>
        <time>2020-05-31T17:15:56Z</time>
      </trkpt>
      <trkpt lat="46.1643" lon="-1.11537">
        <ele>4.9</ele>
        <time>2020-05-31T17:15:57Z</time>
      </trkpt>
      <trkpt lat="46.16426" lon="-1.11546">
        <ele>4.8</ele>
        <time>2020-05-31T17:15:58Z</time>
      </trkpt>
      <trkpt lat="46.16424" lon="-1.11555">
        <ele>4.8</ele>
        <time>2020-05-31T17:15:59Z</time>
      </trkpt>
      <trkpt lat="46.1642" lon="-1.11564">
        <ele>4.8</ele>
        <time>2020-05-31T17:16:00Z</time>
      </trkpt>
      <trkpt lat="46.16417" lon="-1.11573">
        <ele>4.8</ele>
        <time>2020-05-31T17:16:01Z</time>
      </trkpt>
      <trkpt lat="46.16414" lon="-1.11582">
        <ele>4.8</ele>
        <time>2020-05-31T17:16:02Z</time>
      </trkpt>
      <trkpt lat="46.16411" lon="-1.11592">
        <ele>4.8</ele>
        <time>2020-05-31T17:16:03Z</time>
      </trkpt>
      <trkpt lat="46.16407" lon="-1.11602">
        <ele>4.8</ele>
        <time>2020-05-31T17:16:04Z</time>
      </trkpt>
      <trkpt lat="46.16404" lon="-1.11612">
        <ele>4.7</ele>
        <time>2020-05-31T17:16:05Z</time>
      </trkpt>
      <trkpt lat="46.16402" lon="-1.11622">
        <ele>4.7</ele>
        <time>2020-05-31T17:16:06Z</time>
      </trkpt>
      <trkpt lat="46.16399" lon="-1.11631">
        <ele>4.7</ele>
        <time>2020-05-31T17:16:07Z</time>
      </trkpt>
      <trkpt lat="46.16395" lon="-1.11641">
        <ele>4.7</ele>
        <time>2020-05-31T17:16:08Z</time>
      </trkpt>
      <trkpt lat="46.16391" lon="-1.11651">
        <ele>4.7</ele>
        <time>2020-05-31T17:16:09Z</time>
      </trkpt>
      <trkpt lat="46.16388" lon="-1.11661">
        <ele>4.7</ele>
        <time>2020-05-31T17:16:10Z</time>
      </trkpt>
      <trkpt lat="46.16384" lon="-1.1167">
        <ele>4.7</ele>
        <time>2020-05-31T17:16:11Z</time>
      </trkpt>
      <trkpt lat="46.1638" lon="-1.1168">
        <ele>4.7</ele>
        <time>2020-05-31T17:16:12Z</time>
      </trkpt>
      <trkpt lat="46.16377" lon="-1.1169">
        <ele>4.7</ele>
        <time>2020-05-31T17:16:13Z</time>
      </trkpt>
      <trkpt lat="46.16374" lon="-1.11699">
        <ele>4.7</ele>
        <time>2020-05-31T17:16:14Z</time>
      </trkpt>
      <trkpt lat="46.16371" lon="-1.11709">
        <ele>4.7</ele>
        <time>2020-05-31T17:16:15Z</time>
      </trkpt>
      <trkpt lat="46.16367" lon="-1.11719">
        <ele>4.7</ele>
        <time>2020-05-31T17:16:16Z</time>
      </trkpt>
      <trkpt lat="46.16363" lon="-1.11729">
        <ele>4.7</ele>
        <time>2020-05-31T17:16:17Z</time>
      </trkpt>
      <trkpt lat="46.1636" lon="-1.11739">
        <ele>4.7</ele>
        <time>2020-05-31T17:16:18Z</time>
      </trkpt>
      <trkpt lat="46.16356" lon="-1.1175">
        <ele>4.7</ele>
        <time>2020-05-31T17:16:19Z</time>
      </trkpt>
      <trkpt lat="46.16353" lon="-1.11759">
        <ele>4.7</ele>
        <time>2020-05-31T17:16:20Z</time>
      </trkpt>
      <trkpt lat="46.1635" lon="-1.11766">
        <ele>4.7</ele>
        <time>2020-05-31T17:16:21Z</time>
      </trkpt>
      <trkpt lat="46.16347" lon="-1.11774">
        <ele>4.7</ele>
        <time>2020-05-31T17:16:22Z</time>
      </trkpt>
      <trkpt lat="46.16344" lon="-1.11782">
        <ele>4.7</ele>
        <time>2020-05-31T17:16:23Z</time>
      </trkpt>
      <trkpt lat="46.1634" lon="-1.11791">
        <ele>4.7</ele>
        <time>2020-05-31T17:16:24Z</time>
      </trkpt>
      <trkpt lat="46.16337" lon="-1.118">
        <ele>4.7</ele>
        <time>2020-05-31T17:16:25Z</time>
      </trkpt>
      <trkpt lat="46.16334" lon="-1.11809">
        <ele>4.7</ele>
        <time>2020-05-31T17:16:26Z</time>
      </trkpt>
      <trkpt lat="46.16332" lon="-1.11818">
        <ele>4.8</ele>
        <time>2020-05-31T17:16:27Z</time>
      </trkpt>
      <trkpt lat="46.16329" lon="-1.11827">
        <ele>4.8</ele>
        <time>2020-05-31T17:16:28Z</time>
      </trkpt>
      <trkpt lat="46.16327" lon="-1.11836">
        <ele>4.8</ele>
        <time>2020-05-31T17:16:29Z</time>
      </trkpt>
      <trkpt lat="46.16325" lon="-1.11846">
        <ele>4.8</ele>
        <time>2020-05-31T17:16:30Z</time>
      </trkpt>
      <trkpt lat="46.16323" lon="-1.11855">
        <ele>4.8</ele>
        <time>2020-05-31T17:16:31Z</time>
      </trkpt>
      <trkpt lat="46.16321" lon="-1.11864">
        <ele>4.8</ele>
        <time>2020-05-31T17:16:32Z</time>
      </trkpt>
      <trkpt lat="46.16318" lon="-1.11874">
        <ele>4.8</ele>
        <time>2020-05-31T17:16:33Z</time>
      </trkpt>
      <trkpt lat="46.16315" lon="-1.11884">
        <ele>4.8</ele>
        <time>2020-05-31T17:16:34Z</time>
      </trkpt>
      <trkpt lat="46.16313" lon="-1.11893">
        <ele>4.8</ele>
        <time>2020-05-31T17:16:35Z</time>
      </trkpt>
      <trkpt lat="46.1631" lon="-1.11903">
        <ele>4.8</ele>
        <time>2020-05-31T17:16:36Z</time>
      </trkpt>
      <trkpt lat="46.16309" lon="-1.11913">
        <ele>4.8</ele>
        <time>2020-05-31T17:16:37Z</time>
      </trkpt>
      <trkpt lat="46.16307" lon="-1.11922">
        <ele>4.8</ele>
        <time>2020-05-31T17:16:38Z</time>
      </trkpt>
      <trkpt lat="46.16306" lon="-1.11931">
        <ele>4.8</ele>
        <time>2020-05-31T17:16:39Z</time>
      </trkpt>
      <trkpt lat="46.16304" lon="-1.11941">
        <ele>4.7</ele>
        <time>2020-05-31T17:16:40Z</time>
      </trkpt>
      <trkpt lat="46.16302" lon="-1.1195">
        <ele>4.7</ele>
        <time>2020-05-31T17:16:41Z</time>
      </trkpt>
      <trkpt lat="46.163" lon="-1.1196">
        <ele>4.7</ele>
        <time>2020-05-31T17:16:42Z</time>
      </trkpt>
      <trkpt lat="46.16297" lon="-1.11969">
        <ele>4.7</ele>
        <time>2020-05-31T17:16:43Z</time>
      </trkpt>
      <trkpt lat="46.16295" lon="-1.11978">
        <ele>4.7</ele>
        <time>2020-05-31T17:16:44Z</time>
      </trkpt>
      <trkpt lat="46.16293" lon="-1.11987">
        <ele>4.7</ele>
        <time>2020-05-31T17:16:45Z</time>
      </trkpt>
      <trkpt lat="46.1629" lon="-1.11996">
        <ele>4.7</ele>
        <time>2020-05-31T17:16:46Z</time>
      </trkpt>
      <trkpt lat="46.16288" lon="-1.12004">
        <ele>4.7</ele>
        <time>2020-05-31T17:16:47Z</time>
      </trkpt>
      <trkpt lat="46.16287" lon="-1.12011">
        <ele>4.7</ele>
        <time>2020-05-31T17:16:48Z</time>
      </trkpt>
      <trkpt lat="46.16284" lon="-1.12019">
        <ele>4.7</ele>
        <time>2020-05-31T17:16:49Z</time>
      </trkpt>
      <trkpt lat="46.16281" lon="-1.12027">
        <ele>4.7</ele>
        <time>2020-05-31T17:16:50Z</time>
      </trkpt>
      <trkpt lat="46.16279" lon="-1.12034">
        <ele>4.7</ele>
        <time>2020-05-31T17:16:51Z</time>
      </trkpt>
      <trkpt lat="46.16276" lon="-1.12042">
        <ele>4.7</ele>
        <time>2020-05-31T17:16:52Z</time>
      </trkpt>
      <trkpt lat="46.16275" lon="-1.12049">
        <ele>4.7</ele>
        <time>2020-05-31T17:16:53Z</time>
      </trkpt>
      <trkpt lat="46.16273" lon="-1.12055">
        <ele>4.7</ele>
        <time>2020-05-31T17:16:54Z</time>
      </trkpt>
      <trkpt lat="46.16273" lon="-1.1206">
        <ele>4.7</ele>
        <time>2020-05-31T17:16:55Z</time>
      </trkpt>
      <trkpt lat="46.16273" lon="-1.12065">
        <ele>4.7</ele>
        <time>2020-05-31T17:16:56Z</time>
      </trkpt>
      <trkpt lat="46.16273" lon="-1.12066">
        <ele>4.7</ele>
        <time>2020-05-31T17:16:57Z</time>
      </trkpt>
      <trkpt lat="46.16272" lon="-1.12068">
        <ele>4.7</ele>
        <time>2020-05-31T17:16:58Z</time>
      </trkpt>
      <trkpt lat="46.16272" lon="-1.12068">
        <ele>4.7</ele>
        <time>2020-05-31T17:16:59Z</time>
      </trkpt>
      <trkpt lat="46.16272" lon="-1.12069">
        <ele>4.7</ele>
        <time>2020-05-31T17:17:00Z</time>
      </trkpt>
      <trkpt lat="46.16271" lon="-1.1207">
        <ele>4.7</ele>
        <time>2020-05-31T17:17:01Z</time>
      </trkpt>
      <trkpt lat="46.16271" lon="-1.12071">
        <ele>4.7</ele>
        <time>2020-05-31T17:17:02Z</time>
      </trkpt>
      <trkpt lat="46.16271" lon="-1.12072">
        <ele>4.7</ele>
        <time>2020-05-31T17:17:03Z</time>
      </trkpt>
      <trkpt lat="46.16271" lon="-1.12072">
        <ele>4.7</ele>
        <time>2020-05-31T17:17:04Z</time>
      </trkpt>
      <trkpt lat="46.16271" lon="-1.12073">
        <ele>4.7</ele>
        <time>2020-05-31T17:17:05Z</time>
      </trkpt>
      <trkpt lat="46.16271" lon="-1.12073">
        <ele>4.7</ele>
        <time>2020-05-31T17:17:06Z</time>
      </trkpt>
      <trkpt lat="46.16271" lon="-1.12074">
        <ele>4.7</ele>
        <time>2020-05-31T17:17:07Z</time>
      </trkpt>
      <trkpt lat="46.16271" lon="-1.12075">
        <ele>4.7</ele>
        <time>2020-05-31T17:17:08Z</time>
      </trkpt>
      <trkpt lat="46.16271" lon="-1.12076">
        <ele>4.6</ele>
        <time>2020-05-31T17:17:09Z</time>
      </trkpt>
      <trkpt lat="46.16271" lon="-1.12076">
        <ele>4.6</ele>
        <time>2020-05-31T17:17:10Z</time>
      </trkpt>
      <trkpt lat="46.16271" lon="-1.12076">
        <ele>4.6</ele>
        <time>2020-05-31T17:17:11Z</time>
      </trkpt>
      <trkpt lat="46.16271" lon="-1.12076">
        <ele>4.6</ele>
        <time>2020-05-31T17:17:12Z</time>
      </trkpt>
      <trkpt lat="46.16271" lon="-1.12077">
        <ele>4.6</ele>
        <time>2020-05-31T17:17:13Z</time>
      </trkpt>
      <trkpt lat="46.16271" lon="-1.12077">
        <ele>4.6</ele>
        <time>2020-05-31T17:17:14Z</time>
      </trkpt>
      <trkpt lat="46.16271" lon="-1.12078">
        <ele>4.6</ele>
        <time>2020-05-31T17:17:15Z</time>
      </trkpt>
      <trkpt lat="46.16271" lon="-1.12078">
        <ele>4.6</ele>
        <time>2020-05-31T17:17:16Z</time>
      </trkpt>
      <trkpt lat="46.16271" lon="-1.12078">
        <ele>4.6</ele>
        <time>2020-05-31T17:17:17Z</time>
      </trkpt>
      <trkpt lat="46.16271" lon="-1.12078">
        <ele>4.6</ele>
        <time>2020-05-31T17:17:18Z</time>
      </trkpt>
      <trkpt lat="46.16271" lon="-1.12078">
        <ele>4.6</ele>
        <time>2020-05-31T17:17:19Z</time>
      </trkpt>
      <trkpt lat="46.1627" lon="-1.12079">
        <ele>4.6</ele>
        <time>2020-05-31T17:17:20Z</time>
      </trkpt>
      <trkpt lat="46.1627" lon="-1.12081">
        <ele>4.6</ele>
        <time>2020-05-31T17:17:21Z</time>
      </trkpt>
      <trkpt lat="46.1627" lon="-1.12081">
        <ele>4.6</ele>
        <time>2020-05-31T17:17:22Z</time>
      </trkpt>
      <trkpt lat="46.16269" lon="-1.12082">
        <ele>4.6</ele>
        <time>2020-05-31T17:17:23Z</time>
      </trkpt>
      <trkpt lat="46.16269" lon="-1.12083">
        <ele>4.6</ele>
        <time>2020-05-31T17:17:24Z</time>
      </trkpt>
      <trkpt lat="46.16268" lon="-1.12084">
        <ele>4.6</ele>
        <time>2020-05-31T17:17:25Z</time>
      </trkpt>
      <trkpt lat="46.16268" lon="-1.12085">
        <ele>4.6</ele>
        <time>2020-05-31T17:17:26Z</time>
      </trkpt>
      <trkpt lat="46.16267" lon="-1.12087">
        <ele>4.6</ele>
        <time>2020-05-31T17:17:27Z</time>
      </trkpt>
      <trkpt lat="46.16266" lon="-1.12091">
        <ele>4.6</ele>
        <time>2020-05-31T17:17:28Z</time>
      </trkpt>
      <trkpt lat="46.16265" lon="-1.12092">
        <ele>4.6</ele>
        <time>2020-05-31T17:17:29Z</time>
      </trkpt>
      <trkpt lat="46.16264" lon="-1.12096">
        <ele>4.6</ele>
        <time>2020-05-31T17:17:30Z</time>
      </trkpt>
      <trkpt lat="46.16262" lon="-1.12101">
        <ele>4.6</ele>
        <time>2020-05-31T17:17:31Z</time>
      </trkpt>
      <trkpt lat="46.16261" lon="-1.12105">
        <ele>4.6</ele>
        <time>2020-05-31T17:17:32Z</time>
      </trkpt>
      <trkpt lat="46.16259" lon="-1.12112">
        <ele>4.6</ele>
        <time>2020-05-31T17:17:33Z</time>
      </trkpt>
      <trkpt lat="46.16258" lon="-1.12118">
        <ele>4.6</ele>
        <time>2020-05-31T17:17:34Z</time>
      </trkpt>
      <trkpt lat="46.16256" lon="-1.12125">
        <ele>4.7</ele>
        <time>2020-05-31T17:17:35Z</time>
      </trkpt>
      <trkpt lat="46.16255" lon="-1.12132">
        <ele>4.7</ele>
        <time>2020-05-31T17:17:36Z</time>
      </trkpt>
      <trkpt lat="46.16253" lon="-1.12139">
        <ele>4.7</ele>
        <time>2020-05-31T17:17:37Z</time>
      </trkpt>
      <trkpt lat="46.16251" lon="-1.12146">
        <ele>4.7</ele>
        <time>2020-05-31T17:17:38Z</time>
      </trkpt>
      <trkpt lat="46.16249" lon="-1.12153">
        <ele>4.7</ele>
        <time>2020-05-31T17:17:39Z</time>
      </trkpt>
      <trkpt lat="46.16247" lon="-1.1216">
        <ele>4.7</ele>
        <time>2020-05-31T17:17:40Z</time>
      </trkpt>
      <trkpt lat="46.16246" lon="-1.12167">
        <ele>4.7</ele>
        <time>2020-05-31T17:17:41Z</time>
      </trkpt>
      <trkpt lat="46.16244" lon="-1.12175">
        <ele>4.7</ele>
        <time>2020-05-31T17:17:42Z</time>
      </trkpt>
      <trkpt lat="46.16242" lon="-1.12182">
        <ele>4.7</ele>
        <time>2020-05-31T17:17:43Z</time>
      </trkpt>
      <trkpt lat="46.1624" lon="-1.1219">
        <ele>4.7</ele>
        <time>2020-05-31T17:17:44Z</time>
      </trkpt>
      <trkpt lat="46.16238" lon="-1.12197">
        <ele>4.7</ele>
        <time>2020-05-31T17:17:45Z</time>
      </trkpt>
      <trkpt lat="46.16236" lon="-1.12205">
        <ele>4.7</ele>
        <time>2020-05-31T17:17:46Z</time>
      </trkpt>
      <trkpt lat="46.16233" lon="-1.12213">
        <ele>4.7</ele>
        <time>2020-05-31T17:17:47Z</time>
      </trkpt>
      <trkpt lat="46.1623" lon="-1.12222">
        <ele>4.7</ele>
        <time>2020-05-31T17:17:48Z</time>
      </trkpt>
      <trkpt lat="46.16227" lon="-1.12231">
        <ele>4.7</ele>
        <time>2020-05-31T17:17:49Z</time>
      </trkpt>
      <trkpt lat="46.16224" lon="-1.12239">
        <ele>4.7</ele>
        <time>2020-05-31T17:17:50Z</time>
      </trkpt>
      <trkpt lat="46.16221" lon="-1.12247">
        <ele>4.7</ele>
        <time>2020-05-31T17:17:51Z</time>
      </trkpt>
      <trkpt lat="46.16219" lon="-1.12255">
        <ele>4.7</ele>
        <time>2020-05-31T17:17:52Z</time>
      </trkpt>
      <trkpt lat="46.16217" lon="-1.12263">
        <ele>4.7</ele>
        <time>2020-05-31T17:17:53Z</time>
      </trkpt>
      <trkpt lat="46.16214" lon="-1.1227">
        <ele>4.7</ele>
        <time>2020-05-31T17:17:54Z</time>
      </trkpt>
      <trkpt lat="46.16213" lon="-1.12279">
        <ele>4.7</ele>
        <time>2020-05-31T17:17:55Z</time>
      </trkpt>
      <trkpt lat="46.1621" lon="-1.12287">
        <ele>4.7</ele>
        <time>2020-05-31T17:17:56Z</time>
      </trkpt>
      <trkpt lat="46.16207" lon="-1.12295">
        <ele>4.6</ele>
        <time>2020-05-31T17:17:57Z</time>
      </trkpt>
      <trkpt lat="46.16204" lon="-1.12304">
        <ele>4.6</ele>
        <time>2020-05-31T17:17:58Z</time>
      </trkpt>
      <trkpt lat="46.16202" lon="-1.12312">
        <ele>4.6</ele>
        <time>2020-05-31T17:17:59Z</time>
      </trkpt>
      <trkpt lat="46.162" lon="-1.12319">
        <ele>4.6</ele>
        <time>2020-05-31T17:18:00Z</time>
      </trkpt>
      <trkpt lat="46.16198" lon="-1.12325">
        <ele>4.6</ele>
        <time>2020-05-31T17:18:01Z</time>
      </trkpt>
      <trkpt lat="46.16197" lon="-1.12331">
        <ele>4.6</ele>
        <time>2020-05-31T17:18:02Z</time>
      </trkpt>
      <trkpt lat="46.16195" lon="-1.12336">
        <ele>4.6</ele>
        <time>2020-05-31T17:18:03Z</time>
      </trkpt>
      <trkpt lat="46.16194" lon="-1.12341">
        <ele>4.6</ele>
        <time>2020-05-31T17:18:04Z</time>
      </trkpt>
      <trkpt lat="46.16193" lon="-1.12346">
        <ele>4.6</ele>
        <time>2020-05-31T17:18:05Z</time>
      </trkpt>
      <trkpt lat="46.16192" lon="-1.12349">
        <ele>4.6</ele>
        <time>2020-05-31T17:18:06Z</time>
      </trkpt>
      <trkpt lat="46.16191" lon="-1.12354">
        <ele>4.6</ele>
        <time>2020-05-31T17:18:07Z</time>
      </trkpt>
      <trkpt lat="46.16191" lon="-1.12358">
        <ele>4.6</ele>
        <time>2020-05-31T17:18:08Z</time>
      </trkpt>
      <trkpt lat="46.16191" lon="-1.12363">
        <ele>4.6</ele>
        <time>2020-05-31T17:18:09Z</time>
      </trkpt>
      <trkpt lat="46.16191" lon="-1.12368">
        <ele>4.6</ele>
        <time>2020-05-31T17:18:10Z</time>
      </trkpt>
      <trkpt lat="46.1619" lon="-1.12372">
        <ele>4.6</ele>
        <time>2020-05-31T17:18:11Z</time>
      </trkpt>
      <trkpt lat="46.16188" lon="-1.12377">
        <ele>4.6</ele>
        <time>2020-05-31T17:18:12Z</time>
      </trkpt>
      <trkpt lat="46.16186" lon="-1.12381">
        <ele>4.6</ele>
        <time>2020-05-31T17:18:13Z</time>
      </trkpt>
      <trkpt lat="46.16184" lon="-1.12384">
        <ele>4.6</ele>
        <time>2020-05-31T17:18:14Z</time>
      </trkpt>
      <trkpt lat="46.16184" lon="-1.12387">
        <ele>4.6</ele>
        <time>2020-05-31T17:18:15Z</time>
      </trkpt>
      <trkpt lat="46.16183" lon="-1.12389">
        <ele>4.7</ele>
        <time>2020-05-31T17:18:16Z</time>
      </trkpt>
      <trkpt lat="46.16183" lon="-1.12389">
        <ele>4.7</ele>
        <time>2020-05-31T17:18:17Z</time>
      </trkpt>
      <trkpt lat="46.16182" lon="-1.1239">
        <ele>4.7</ele>
        <time>2020-05-31T17:18:18Z</time>
      </trkpt>
      <trkpt lat="46.16182" lon="-1.12391">
        <ele>4.7</ele>
        <time>2020-05-31T17:18:19Z</time>
      </trkpt>
      <trkpt lat="46.16182" lon="-1.12393">
        <ele>4.7</ele>
        <time>2020-05-31T17:18:20Z</time>
      </trkpt>
      <trkpt lat="46.16181" lon="-1.12398">
        <ele>4.8</ele>
        <time>2020-05-31T17:18:21Z</time>
      </trkpt>
      <trkpt lat="46.1618" lon="-1.124">
        <ele>4.8</ele>
        <time>2020-05-31T17:18:22Z</time>
      </trkpt>
      <trkpt lat="46.16179" lon="-1.12403">
        <ele>4.8</ele>
        <time>2020-05-31T17:18:23Z</time>
      </trkpt>
      <trkpt lat="46.16178" lon="-1.12407">
        <ele>4.9</ele>
        <time>2020-05-31T17:18:24Z</time>
      </trkpt>
      <trkpt lat="46.16176" lon="-1.12412">
        <ele>4.9</ele>
        <time>2020-05-31T17:18:25Z</time>
      </trkpt>
      <trkpt lat="46.16175" lon="-1.12418">
        <ele>4.9</ele>
        <time>2020-05-31T17:18:26Z</time>
      </trkpt>
      <trkpt lat="46.16173" lon="-1.12423">
        <ele>5</ele>
        <time>2020-05-31T17:18:27Z</time>
      </trkpt>
      <trkpt lat="46.16171" lon="-1.12428">
        <ele>5</ele>
        <time>2020-05-31T17:18:28Z</time>
      </trkpt>
      <trkpt lat="46.1617" lon="-1.12434">
        <ele>5.1</ele>
        <time>2020-05-31T17:18:29Z</time>
      </trkpt>
      <trkpt lat="46.16168" lon="-1.12439">
        <ele>5.1</ele>
        <time>2020-05-31T17:18:30Z</time>
      </trkpt>
      <trkpt lat="46.16167" lon="-1.12444">
        <ele>5.1</ele>
        <time>2020-05-31T17:18:31Z</time>
      </trkpt>
      <trkpt lat="46.16165" lon="-1.12449">
        <ele>5</ele>
        <time>2020-05-31T17:18:32Z</time>
      </trkpt>
      <trkpt lat="46.16164" lon="-1.12454">
        <ele>5</ele>
        <time>2020-05-31T17:18:33Z</time>
      </trkpt>
      <trkpt lat="46.16162" lon="-1.12459">
        <ele>5</ele>
        <time>2020-05-31T17:18:34Z</time>
      </trkpt>
      <trkpt lat="46.1616" lon="-1.12464">
        <ele>5</ele>
        <time>2020-05-31T17:18:35Z</time>
      </trkpt>
      <trkpt lat="46.16158" lon="-1.1247">
        <ele>5</ele>
        <time>2020-05-31T17:18:36Z</time>
      </trkpt>
      <trkpt lat="46.16158" lon="-1.12476">
        <ele>5</ele>
        <time>2020-05-31T17:18:37Z</time>
      </trkpt>
      <trkpt lat="46.16156" lon="-1.12483">
        <ele>4.9</ele>
        <time>2020-05-31T17:18:38Z</time>
      </trkpt>
      <trkpt lat="46.16155" lon="-1.1249">
        <ele>4.9</ele>
        <time>2020-05-31T17:18:39Z</time>
      </trkpt>
      <trkpt lat="46.16153" lon="-1.12496">
        <ele>4.9</ele>
        <time>2020-05-31T17:18:40Z</time>
      </trkpt>
      <trkpt lat="46.16151" lon="-1.12503">
        <ele>4.9</ele>
        <time>2020-05-31T17:18:41Z</time>
      </trkpt>
      <trkpt lat="46.16149" lon="-1.1251">
        <ele>4.8</ele>
        <time>2020-05-31T17:18:42Z</time>
      </trkpt>
      <trkpt lat="46.16147" lon="-1.12517">
        <ele>4.8</ele>
        <time>2020-05-31T17:18:43Z</time>
      </trkpt>
      <trkpt lat="46.16145" lon="-1.12524">
        <ele>4.8</ele>
        <time>2020-05-31T17:18:44Z</time>
      </trkpt>
      <trkpt lat="46.16143" lon="-1.12532">
        <ele>4.8</ele>
        <time>2020-05-31T17:18:45Z</time>
      </trkpt>
      <trkpt lat="46.16141" lon="-1.1254">
        <ele>4.7</ele>
        <time>2020-05-31T17:18:46Z</time>
      </trkpt>
      <trkpt lat="46.16139" lon="-1.12547">
        <ele>4.7</ele>
        <time>2020-05-31T17:18:47Z</time>
      </trkpt>
      <trkpt lat="46.16137" lon="-1.12555">
        <ele>4.7</ele>
        <time>2020-05-31T17:18:48Z</time>
      </trkpt>
      <trkpt lat="46.16135" lon="-1.12563">
        <ele>4.6</ele>
        <time>2020-05-31T17:18:49Z</time>
      </trkpt>
      <trkpt lat="46.16132" lon="-1.1257">
        <ele>4.6</ele>
        <time>2020-05-31T17:18:50Z</time>
      </trkpt>
      <trkpt lat="46.1613" lon="-1.12577">
        <ele>4.5</ele>
        <time>2020-05-31T17:18:51Z</time>
      </trkpt>
      <trkpt lat="46.16128" lon="-1.12584">
        <ele>4.5</ele>
        <time>2020-05-31T17:18:52Z</time>
      </trkpt>
      <trkpt lat="46.16126" lon="-1.12591">
        <ele>4.5</ele>
        <time>2020-05-31T17:18:53Z</time>
      </trkpt>
      <trkpt lat="46.16124" lon="-1.12597">
        <ele>4.5</ele>
        <time>2020-05-31T17:18:54Z</time>
      </trkpt>
      <trkpt lat="46.16122" lon="-1.12605">
        <ele>4.4</ele>
        <time>2020-05-31T17:18:55Z</time>
      </trkpt>
      <trkpt lat="46.1612" lon="-1.12612">
        <ele>4.4</ele>
        <time>2020-05-31T17:18:56Z</time>
      </trkpt>
      <trkpt lat="46.16118" lon="-1.1262">
        <ele>4.4</ele>
        <time>2020-05-31T17:18:57Z</time>
      </trkpt>
      <trkpt lat="46.16117" lon="-1.12627">
        <ele>4.3</ele>
        <time>2020-05-31T17:18:58Z</time>
      </trkpt>
      <trkpt lat="46.16115" lon="-1.12634">
        <ele>4.3</ele>
        <time>2020-05-31T17:18:59Z</time>
      </trkpt>
      <trkpt lat="46.16114" lon="-1.12642">
        <ele>4.3</ele>
        <time>2020-05-31T17:19:00Z</time>
      </trkpt>
      <trkpt lat="46.16111" lon="-1.12649">
        <ele>4.3</ele>
        <time>2020-05-31T17:19:01Z</time>
      </trkpt>
      <trkpt lat="46.16108" lon="-1.12658">
        <ele>4.2</ele>
        <time>2020-05-31T17:19:02Z</time>
      </trkpt>
      <trkpt lat="46.16105" lon="-1.12665">
        <ele>4.2</ele>
        <time>2020-05-31T17:19:03Z</time>
      </trkpt>
      <trkpt lat="46.16101" lon="-1.12673">
        <ele>4.2</ele>
        <time>2020-05-31T17:19:04Z</time>
      </trkpt>
      <trkpt lat="46.16099" lon="-1.12681">
        <ele>4.2</ele>
        <time>2020-05-31T17:19:05Z</time>
      </trkpt>
      <trkpt lat="46.16097" lon="-1.12689">
        <ele>4.2</ele>
        <time>2020-05-31T17:19:06Z</time>
      </trkpt>
      <trkpt lat="46.16094" lon="-1.12697">
        <ele>4.1</ele>
        <time>2020-05-31T17:19:07Z</time>
      </trkpt>
      <trkpt lat="46.16092" lon="-1.12705">
        <ele>4.1</ele>
        <time>2020-05-31T17:19:08Z</time>
      </trkpt>
      <trkpt lat="46.1609" lon="-1.12713">
        <ele>4.1</ele>
        <time>2020-05-31T17:19:09Z</time>
      </trkpt>
      <trkpt lat="46.16088" lon="-1.1272">
        <ele>4.1</ele>
        <time>2020-05-31T17:19:10Z</time>
      </trkpt>
      <trkpt lat="46.16086" lon="-1.12728">
        <ele>4.1</ele>
        <time>2020-05-31T17:19:11Z</time>
      </trkpt>
      <trkpt lat="46.16083" lon="-1.12735">
        <ele>4</ele>
        <time>2020-05-31T17:19:12Z</time>
      </trkpt>
      <trkpt lat="46.16081" lon="-1.12742">
        <ele>4</ele>
        <time>2020-05-31T17:19:13Z</time>
      </trkpt>
      <trkpt lat="46.16078" lon="-1.12749">
        <ele>4</ele>
        <time>2020-05-31T17:19:14Z</time>
      </trkpt>
      <trkpt lat="46.16077" lon="-1.12757">
        <ele>4</ele>
        <time>2020-05-31T17:19:15Z</time>
      </trkpt>
      <trkpt lat="46.16074" lon="-1.12764">
        <ele>3.9</ele>
        <time>2020-05-31T17:19:16Z</time>
      </trkpt>
      <trkpt lat="46.16072" lon="-1.12771">
        <ele>3.9</ele>
        <time>2020-05-31T17:19:17Z</time>
      </trkpt>
      <trkpt lat="46.1607" lon="-1.12778">
        <ele>3.9</ele>
        <time>2020-05-31T17:19:18Z</time>
      </trkpt>
      <trkpt lat="46.16068" lon="-1.12785">
        <ele>3.9</ele>
        <time>2020-05-31T17:19:19Z</time>
      </trkpt>
      <trkpt lat="46.16066" lon="-1.12792">
        <ele>3.9</ele>
        <time>2020-05-31T17:19:20Z</time>
      </trkpt>
      <trkpt lat="46.16064" lon="-1.128">
        <ele>3.8</ele>
        <time>2020-05-31T17:19:21Z</time>
      </trkpt>
      <trkpt lat="46.16063" lon="-1.12807">
        <ele>3.8</ele>
        <time>2020-05-31T17:19:22Z</time>
      </trkpt>
      <trkpt lat="46.16061" lon="-1.12815">
        <ele>3.8</ele>
        <time>2020-05-31T17:19:23Z</time>
      </trkpt>
      <trkpt lat="46.1606" lon="-1.12823">
        <ele>3.7</ele>
        <time>2020-05-31T17:19:24Z</time>
      </trkpt>
      <trkpt lat="46.16059" lon="-1.12831">
        <ele>3.7</ele>
        <time>2020-05-31T17:19:25Z</time>
      </trkpt>
      <trkpt lat="46.16057" lon="-1.12839">
        <ele>3.7</ele>
        <time>2020-05-31T17:19:26Z</time>
      </trkpt>
      <trkpt lat="46.16056" lon="-1.12847">
        <ele>3.7</ele>
        <time>2020-05-31T17:19:27Z</time>
      </trkpt>
      <trkpt lat="46.16054" lon="-1.12856">
        <ele>3.8</ele>
        <time>2020-05-31T17:19:28Z</time>
      </trkpt>
      <trkpt lat="46.16052" lon="-1.12866">
        <ele>3.8</ele>
        <time>2020-05-31T17:19:29Z</time>
      </trkpt>
      <trkpt lat="46.16051" lon="-1.12875">
        <ele>3.8</ele>
        <time>2020-05-31T17:19:30Z</time>
      </trkpt>
      <trkpt lat="46.16052" lon="-1.12884">
        <ele>3.6</ele>
        <time>2020-05-31T17:19:31Z</time>
      </trkpt>
      <trkpt lat="46.16053" lon="-1.12891">
        <ele>3.6</ele>
        <time>2020-05-31T17:19:32Z</time>
      </trkpt>
      <trkpt lat="46.16055" lon="-1.12899">
        <ele>3.6</ele>
        <time>2020-05-31T17:19:33Z</time>
      </trkpt>
      <trkpt lat="46.16053" lon="-1.12907">
        <ele>3.6</ele>
        <time>2020-05-31T17:19:34Z</time>
      </trkpt>
      <trkpt lat="46.16049" lon="-1.12912">
        <ele>3.5</ele>
        <time>2020-05-31T17:19:35Z</time>
      </trkpt>
      <trkpt lat="46.16045" lon="-1.12917">
        <ele>3.5</ele>
        <time>2020-05-31T17:19:36Z</time>
      </trkpt>
      <trkpt lat="46.16041" lon="-1.12919">
        <ele>3.5</ele>
        <time>2020-05-31T17:19:37Z</time>
      </trkpt>
      <trkpt lat="46.16037" lon="-1.12922">
        <ele>3.4</ele>
        <time>2020-05-31T17:19:38Z</time>
      </trkpt>
      <trkpt lat="46.16034" lon="-1.12925">
        <ele>3.4</ele>
        <time>2020-05-31T17:19:39Z</time>
      </trkpt>
      <trkpt lat="46.16031" lon="-1.12925">
        <ele>3.4</ele>
        <time>2020-05-31T17:19:40Z</time>
      </trkpt>
      <trkpt lat="46.16028" lon="-1.12924">
        <ele>3.4</ele>
        <time>2020-05-31T17:19:41Z</time>
      </trkpt>
      <trkpt lat="46.16025" lon="-1.12923">
        <ele>3.3</ele>
        <time>2020-05-31T17:19:42Z</time>
      </trkpt>
      <trkpt lat="46.16023" lon="-1.1292">
        <ele>3.3</ele>
        <time>2020-05-31T17:19:43Z</time>
      </trkpt>
      <trkpt lat="46.1602" lon="-1.12921">
        <ele>3.3</ele>
        <time>2020-05-31T17:19:44Z</time>
      </trkpt>
      <trkpt lat="46.16017" lon="-1.12922">
        <ele>3.3</ele>
        <time>2020-05-31T17:19:45Z</time>
      </trkpt>
      <trkpt lat="46.16016" lon="-1.12927">
        <ele>3.3</ele>
        <time>2020-05-31T17:19:46Z</time>
      </trkpt>
      <trkpt lat="46.16015" lon="-1.12934">
        <ele>3.3</ele>
        <time>2020-05-31T17:19:47Z</time>
      </trkpt>
      <trkpt lat="46.16013" lon="-1.1294">
        <ele>3.3</ele>
        <time>2020-05-31T17:19:48Z</time>
      </trkpt>
      <trkpt lat="46.16011" lon="-1.12946">
        <ele>3.3</ele>
        <time>2020-05-31T17:19:49Z</time>
      </trkpt>
      <trkpt lat="46.16008" lon="-1.12952">
        <ele>3.3</ele>
        <time>2020-05-31T17:19:50Z</time>
      </trkpt>
      <trkpt lat="46.16006" lon="-1.12959">
        <ele>3.3</ele>
        <time>2020-05-31T17:19:51Z</time>
      </trkpt>
      <trkpt lat="46.16004" lon="-1.12966">
        <ele>3.3</ele>
        <time>2020-05-31T17:19:52Z</time>
      </trkpt>
      <trkpt lat="46.16002" lon="-1.12974">
        <ele>3.3</ele>
        <time>2020-05-31T17:19:53Z</time>
      </trkpt>
      <trkpt lat="46.16" lon="-1.12981">
        <ele>3.3</ele>
        <time>2020-05-31T17:19:54Z</time>
      </trkpt>
      <trkpt lat="46.15998" lon="-1.12988">
        <ele>3.3</ele>
        <time>2020-05-31T17:19:55Z</time>
      </trkpt>
      <trkpt lat="46.15996" lon="-1.12995">
        <ele>3.3</ele>
        <time>2020-05-31T17:19:56Z</time>
      </trkpt>
      <trkpt lat="46.15994" lon="-1.13002">
        <ele>3.3</ele>
        <time>2020-05-31T17:19:57Z</time>
      </trkpt>
      <trkpt lat="46.15992" lon="-1.1301">
        <ele>3.3</ele>
        <time>2020-05-31T17:19:58Z</time>
      </trkpt>
      <trkpt lat="46.1599" lon="-1.13017">
        <ele>3.3</ele>
        <time>2020-05-31T17:19:59Z</time>
      </trkpt>
      <trkpt lat="46.15987" lon="-1.13025">
        <ele>3.3</ele>
        <time>2020-05-31T17:20:00Z</time>
      </trkpt>
      <trkpt lat="46.15985" lon="-1.13033">
        <ele>3.3</ele>
        <time>2020-05-31T17:20:01Z</time>
      </trkpt>
      <trkpt lat="46.15982" lon="-1.13041">
        <ele>3.3</ele>
        <time>2020-05-31T17:20:02Z</time>
      </trkpt>
      <trkpt lat="46.1598" lon="-1.1305">
        <ele>3.3</ele>
        <time>2020-05-31T17:20:03Z</time>
      </trkpt>
      <trkpt lat="46.15978" lon="-1.13058">
        <ele>3.3</ele>
        <time>2020-05-31T17:20:04Z</time>
      </trkpt>
      <trkpt lat="46.15975" lon="-1.13066">
        <ele>3.3</ele>
        <time>2020-05-31T17:20:05Z</time>
      </trkpt>
      <trkpt lat="46.15973" lon="-1.13074">
        <ele>3.3</ele>
        <time>2020-05-31T17:20:06Z</time>
      </trkpt>
      <trkpt lat="46.15971" lon="-1.13081">
        <ele>3.3</ele>
        <time>2020-05-31T17:20:07Z</time>
      </trkpt>
      <trkpt lat="46.1597" lon="-1.13088">
        <ele>3.3</ele>
        <time>2020-05-31T17:20:08Z</time>
      </trkpt>
      <trkpt lat="46.15968" lon="-1.13096">
        <ele>3.3</ele>
        <time>2020-05-31T17:20:09Z</time>
      </trkpt>
      <trkpt lat="46.15967" lon="-1.13103">
        <ele>3.3</ele>
        <time>2020-05-31T17:20:10Z</time>
      </trkpt>
      <trkpt lat="46.15964" lon="-1.13111">
        <ele>3.3</ele>
        <time>2020-05-31T17:20:11Z</time>
      </trkpt>
      <trkpt lat="46.15962" lon="-1.13118">
        <ele>3.3</ele>
        <time>2020-05-31T17:20:12Z</time>
      </trkpt>
      <trkpt lat="46.1596" lon="-1.13125">
        <ele>3.4</ele>
        <time>2020-05-31T17:20:13Z</time>
      </trkpt>
      <trkpt lat="46.15958" lon="-1.13133">
        <ele>3.4</ele>
        <time>2020-05-31T17:20:14Z</time>
      </trkpt>
      <trkpt lat="46.15956" lon="-1.13141">
        <ele>3.4</ele>
        <time>2020-05-31T17:20:15Z</time>
      </trkpt>
      <trkpt lat="46.15954" lon="-1.13148">
        <ele>3.3</ele>
        <time>2020-05-31T17:20:16Z</time>
      </trkpt>
      <trkpt lat="46.15952" lon="-1.13157">
        <ele>3.3</ele>
        <time>2020-05-31T17:20:17Z</time>
      </trkpt>
      <trkpt lat="46.15949" lon="-1.13166">
        <ele>3.3</ele>
        <time>2020-05-31T17:20:18Z</time>
      </trkpt>
      <trkpt lat="46.15947" lon="-1.13175">
        <ele>3.3</ele>
        <time>2020-05-31T17:20:19Z</time>
      </trkpt>
      <trkpt lat="46.15944" lon="-1.13184">
        <ele>3.4</ele>
        <time>2020-05-31T17:20:20Z</time>
      </trkpt>
      <trkpt lat="46.15942" lon="-1.13193">
        <ele>3.4</ele>
        <time>2020-05-31T17:20:21Z</time>
      </trkpt>
      <trkpt lat="46.1594" lon="-1.13201">
        <ele>3.4</ele>
        <time>2020-05-31T17:20:22Z</time>
      </trkpt>
      <trkpt lat="46.15937" lon="-1.1321">
        <ele>3.4</ele>
        <time>2020-05-31T17:20:23Z</time>
      </trkpt>
      <trkpt lat="46.15935" lon="-1.13218">
        <ele>3.4</ele>
        <time>2020-05-31T17:20:24Z</time>
      </trkpt>
      <trkpt lat="46.15932" lon="-1.13227">
        <ele>3.4</ele>
        <time>2020-05-31T17:20:25Z</time>
      </trkpt>
      <trkpt lat="46.1593" lon="-1.13236">
        <ele>3.4</ele>
        <time>2020-05-31T17:20:26Z</time>
      </trkpt>
      <trkpt lat="46.15928" lon="-1.13244">
        <ele>3.4</ele>
        <time>2020-05-31T17:20:27Z</time>
      </trkpt>
      <trkpt lat="46.15926" lon="-1.13253">
        <ele>3.4</ele>
        <time>2020-05-31T17:20:28Z</time>
      </trkpt>
      <trkpt lat="46.15923" lon="-1.13261">
        <ele>3.4</ele>
        <time>2020-05-31T17:20:29Z</time>
      </trkpt>
      <trkpt lat="46.1592" lon="-1.13271">
        <ele>3.4</ele>
        <time>2020-05-31T17:20:30Z</time>
      </trkpt>
      <trkpt lat="46.15917" lon="-1.13281">
        <ele>3.3</ele>
        <time>2020-05-31T17:20:31Z</time>
      </trkpt>
      <trkpt lat="46.15914" lon="-1.13292">
        <ele>3.3</ele>
        <time>2020-05-31T17:20:32Z</time>
      </trkpt>
      <trkpt lat="46.15911" lon="-1.133">
        <ele>3.3</ele>
        <time>2020-05-31T17:20:33Z</time>
      </trkpt>
      <trkpt lat="46.15909" lon="-1.1331">
        <ele>3.3</ele>
        <time>2020-05-31T17:20:34Z</time>
      </trkpt>
      <trkpt lat="46.15906" lon="-1.13319">
        <ele>3.3</ele>
        <time>2020-05-31T17:20:35Z</time>
      </trkpt>
      <trkpt lat="46.15904" lon="-1.13329">
        <ele>3.3</ele>
        <time>2020-05-31T17:20:36Z</time>
      </trkpt>
      <trkpt lat="46.15902" lon="-1.13337">
        <ele>3.3</ele>
        <time>2020-05-31T17:20:37Z</time>
      </trkpt>
      <trkpt lat="46.15899" lon="-1.13346">
        <ele>3.3</ele>
        <time>2020-05-31T17:20:38Z</time>
      </trkpt>
      <trkpt lat="46.15897" lon="-1.13354">
        <ele>3.3</ele>
        <time>2020-05-31T17:20:39Z</time>
      </trkpt>
      <trkpt lat="46.15895" lon="-1.13363">
        <ele>3.3</ele>
        <time>2020-05-31T17:20:40Z</time>
      </trkpt>
      <trkpt lat="46.15893" lon="-1.13371">
        <ele>3.3</ele>
        <time>2020-05-31T17:20:41Z</time>
      </trkpt>
      <trkpt lat="46.1589" lon="-1.13379">
        <ele>3.3</ele>
        <time>2020-05-31T17:20:42Z</time>
      </trkpt>
      <trkpt lat="46.15888" lon="-1.13387">
        <ele>3.3</ele>
        <time>2020-05-31T17:20:43Z</time>
      </trkpt>
      <trkpt lat="46.15886" lon="-1.13394">
        <ele>3.4</ele>
        <time>2020-05-31T17:20:44Z</time>
      </trkpt>
      <trkpt lat="46.15884" lon="-1.13401">
        <ele>3.4</ele>
        <time>2020-05-31T17:20:45Z</time>
      </trkpt>
      <trkpt lat="46.15882" lon="-1.1341">
        <ele>3.4</ele>
        <time>2020-05-31T17:20:46Z</time>
      </trkpt>
      <trkpt lat="46.15879" lon="-1.13418">
        <ele>3.4</ele>
        <time>2020-05-31T17:20:47Z</time>
      </trkpt>
      <trkpt lat="46.15877" lon="-1.13426">
        <ele>3.4</ele>
        <time>2020-05-31T17:20:48Z</time>
      </trkpt>
      <trkpt lat="46.15874" lon="-1.13435">
        <ele>3.4</ele>
        <time>2020-05-31T17:20:49Z</time>
      </trkpt>
      <trkpt lat="46.15872" lon="-1.13443">
        <ele>3.4</ele>
        <time>2020-05-31T17:20:50Z</time>
      </trkpt>
      <trkpt lat="46.1587" lon="-1.1345">
        <ele>3.4</ele>
        <time>2020-05-31T17:20:51Z</time>
      </trkpt>
      <trkpt lat="46.15868" lon="-1.13457">
        <ele>3.4</ele>
        <time>2020-05-31T17:20:52Z</time>
      </trkpt>
      <trkpt lat="46.15866" lon="-1.13464">
        <ele>3.3</ele>
        <time>2020-05-31T17:20:53Z</time>
      </trkpt>
      <trkpt lat="46.15864" lon="-1.13471">
        <ele>3.3</ele>
        <time>2020-05-31T17:20:54Z</time>
      </trkpt>
      <trkpt lat="46.15862" lon="-1.13479">
        <ele>3.3</ele>
        <time>2020-05-31T17:20:55Z</time>
      </trkpt>
      <trkpt lat="46.1586" lon="-1.13487">
        <ele>3.3</ele>
        <time>2020-05-31T17:20:56Z</time>
      </trkpt>
      <trkpt lat="46.15857" lon="-1.13496">
        <ele>3.3</ele>
        <time>2020-05-31T17:20:57Z</time>
      </trkpt>
      <trkpt lat="46.15855" lon="-1.13505">
        <ele>3.3</ele>
        <time>2020-05-31T17:20:58Z</time>
      </trkpt>
      <trkpt lat="46.15852" lon="-1.13514">
        <ele>3.3</ele>
        <time>2020-05-31T17:20:59Z</time>
      </trkpt>
      <trkpt lat="46.1585" lon="-1.13522">
        <ele>3.2</ele>
        <time>2020-05-31T17:21:00Z</time>
      </trkpt>
      <trkpt lat="46.15848" lon="-1.13528">
        <ele>3.2</ele>
        <time>2020-05-31T17:21:01Z</time>
      </trkpt>
      <trkpt lat="46.15845" lon="-1.13536">
        <ele>3.2</ele>
        <time>2020-05-31T17:21:02Z</time>
      </trkpt>
      <trkpt lat="46.15843" lon="-1.13543">
        <ele>3.2</ele>
        <time>2020-05-31T17:21:03Z</time>
      </trkpt>
      <trkpt lat="46.15841" lon="-1.13552">
        <ele>3.2</ele>
        <time>2020-05-31T17:21:04Z</time>
      </trkpt>
      <trkpt lat="46.15838" lon="-1.13562">
        <ele>3.1</ele>
        <time>2020-05-31T17:21:05Z</time>
      </trkpt>
      <trkpt lat="46.15836" lon="-1.13571">
        <ele>3.2</ele>
        <time>2020-05-31T17:21:06Z</time>
      </trkpt>
      <trkpt lat="46.15834" lon="-1.13576">
        <ele>3.2</ele>
        <time>2020-05-31T17:21:07Z</time>
      </trkpt>
      <trkpt lat="46.15832" lon="-1.13585">
        <ele>3.3</ele>
        <time>2020-05-31T17:21:08Z</time>
      </trkpt>
      <trkpt lat="46.1583" lon="-1.13591">
        <ele>3.3</ele>
        <time>2020-05-31T17:21:09Z</time>
      </trkpt>
      <trkpt lat="46.15827" lon="-1.136">
        <ele>3.4</ele>
        <time>2020-05-31T17:21:10Z</time>
      </trkpt>
      <trkpt lat="46.15824" lon="-1.1361">
        <ele>3.5</ele>
        <time>2020-05-31T17:21:11Z</time>
      </trkpt>
      <trkpt lat="46.15822" lon="-1.13619">
        <ele>3.5</ele>
        <time>2020-05-31T17:21:12Z</time>
      </trkpt>
      <trkpt lat="46.1582" lon="-1.13628">
        <ele>3.6</ele>
        <time>2020-05-31T17:21:13Z</time>
      </trkpt>
      <trkpt lat="46.15817" lon="-1.13638">
        <ele>3.8</ele>
        <time>2020-05-31T17:21:14Z</time>
      </trkpt>
      <trkpt lat="46.15815" lon="-1.13646">
        <ele>3.9</ele>
        <time>2020-05-31T17:21:15Z</time>
      </trkpt>
      <trkpt lat="46.15813" lon="-1.13654">
        <ele>3.9</ele>
        <time>2020-05-31T17:21:16Z</time>
      </trkpt>
      <trkpt lat="46.1581" lon="-1.13663">
        <ele>4</ele>
        <time>2020-05-31T17:21:17Z</time>
      </trkpt>
      <trkpt lat="46.15808" lon="-1.13671">
        <ele>4.1</ele>
        <time>2020-05-31T17:21:18Z</time>
      </trkpt>
      <trkpt lat="46.15805" lon="-1.13679">
        <ele>4.2</ele>
        <time>2020-05-31T17:21:19Z</time>
      </trkpt>
      <trkpt lat="46.15802" lon="-1.13688">
        <ele>4.2</ele>
        <time>2020-05-31T17:21:20Z</time>
      </trkpt>
      <trkpt lat="46.15798" lon="-1.13696">
        <ele>4.2</ele>
        <time>2020-05-31T17:21:21Z</time>
      </trkpt>
      <trkpt lat="46.15796" lon="-1.13705">
        <ele>4.3</ele>
        <time>2020-05-31T17:21:22Z</time>
      </trkpt>
      <trkpt lat="46.15794" lon="-1.13713">
        <ele>4.3</ele>
        <time>2020-05-31T17:21:23Z</time>
      </trkpt>
      <trkpt lat="46.15791" lon="-1.13721">
        <ele>4.3</ele>
        <time>2020-05-31T17:21:24Z</time>
      </trkpt>
      <trkpt lat="46.15789" lon="-1.13729">
        <ele>4.4</ele>
        <time>2020-05-31T17:21:25Z</time>
      </trkpt>
      <trkpt lat="46.15787" lon="-1.13737">
        <ele>4.4</ele>
        <time>2020-05-31T17:21:26Z</time>
      </trkpt>
      <trkpt lat="46.15784" lon="-1.13746">
        <ele>4.4</ele>
        <time>2020-05-31T17:21:27Z</time>
      </trkpt>
      <trkpt lat="46.15782" lon="-1.13753">
        <ele>4.5</ele>
        <time>2020-05-31T17:21:28Z</time>
      </trkpt>
      <trkpt lat="46.1578" lon="-1.13762">
        <ele>4.5</ele>
        <time>2020-05-31T17:21:29Z</time>
      </trkpt>
      <trkpt lat="46.15779" lon="-1.13767">
        <ele>4.5</ele>
        <time>2020-05-31T17:21:30Z</time>
      </trkpt>
      <trkpt lat="46.15777" lon="-1.13773">
        <ele>4.6</ele>
        <time>2020-05-31T17:21:31Z</time>
      </trkpt>
      <trkpt lat="46.15775" lon="-1.1378">
        <ele>4.6</ele>
        <time>2020-05-31T17:21:32Z</time>
      </trkpt>
      <trkpt lat="46.15773" lon="-1.13787">
        <ele>4.6</ele>
        <time>2020-05-31T17:21:33Z</time>
      </trkpt>
      <trkpt lat="46.15771" lon="-1.13793">
        <ele>4.6</ele>
        <time>2020-05-31T17:21:34Z</time>
      </trkpt>
      <trkpt lat="46.15768" lon="-1.13802">
        <ele>4.7</ele>
        <time>2020-05-31T17:21:35Z</time>
      </trkpt>
      <trkpt lat="46.15766" lon="-1.1381">
        <ele>4.7</ele>
        <time>2020-05-31T17:21:36Z</time>
      </trkpt>
      <trkpt lat="46.15764" lon="-1.13817">
        <ele>4.7</ele>
        <time>2020-05-31T17:21:37Z</time>
      </trkpt>
      <trkpt lat="46.15761" lon="-1.13824">
        <ele>4.7</ele>
        <time>2020-05-31T17:21:38Z</time>
      </trkpt>
      <trkpt lat="46.1576" lon="-1.1383">
        <ele>4.7</ele>
        <time>2020-05-31T17:21:39Z</time>
      </trkpt>
      <trkpt lat="46.15758" lon="-1.13839">
        <ele>4.7</ele>
        <time>2020-05-31T17:21:40Z</time>
      </trkpt>
      <trkpt lat="46.15756" lon="-1.13846">
        <ele>4.7</ele>
        <time>2020-05-31T17:21:41Z</time>
      </trkpt>
      <trkpt lat="46.15754" lon="-1.13854">
        <ele>4.7</ele>
        <time>2020-05-31T17:21:42Z</time>
      </trkpt>
      <trkpt lat="46.15751" lon="-1.13862">
        <ele>4.7</ele>
        <time>2020-05-31T17:21:43Z</time>
      </trkpt>
      <trkpt lat="46.15749" lon="-1.13869">
        <ele>4.7</ele>
        <time>2020-05-31T17:21:44Z</time>
      </trkpt>
      <trkpt lat="46.15747" lon="-1.13877">
        <ele>4.7</ele>
        <time>2020-05-31T17:21:45Z</time>
      </trkpt>
      <trkpt lat="46.15745" lon="-1.13886">
        <ele>4.8</ele>
        <time>2020-05-31T17:21:46Z</time>
      </trkpt>
      <trkpt lat="46.15742" lon="-1.13894">
        <ele>4.8</ele>
        <time>2020-05-31T17:21:47Z</time>
      </trkpt>
      <trkpt lat="46.15739" lon="-1.13902">
        <ele>4.9</ele>
        <time>2020-05-31T17:21:48Z</time>
      </trkpt>
      <trkpt lat="46.15736" lon="-1.13911">
        <ele>5</ele>
        <time>2020-05-31T17:21:49Z</time>
      </trkpt>
      <trkpt lat="46.15734" lon="-1.13918">
        <ele>5</ele>
        <time>2020-05-31T17:21:50Z</time>
      </trkpt>
      <trkpt lat="46.15732" lon="-1.13926">
        <ele>5.1</ele>
        <time>2020-05-31T17:21:51Z</time>
      </trkpt>
      <trkpt lat="46.15729" lon="-1.13934">
        <ele>5.1</ele>
        <time>2020-05-31T17:21:52Z</time>
      </trkpt>
      <trkpt lat="46.15728" lon="-1.13938">
        <ele>5.1</ele>
        <time>2020-05-31T17:21:53Z</time>
      </trkpt>
      <trkpt lat="46.15726" lon="-1.13944">
        <ele>5.2</ele>
        <time>2020-05-31T17:21:54Z</time>
      </trkpt>
      <trkpt lat="46.15724" lon="-1.13951">
        <ele>5.2</ele>
        <time>2020-05-31T17:21:55Z</time>
      </trkpt>
      <trkpt lat="46.15722" lon="-1.13958">
        <ele>5.3</ele>
        <time>2020-05-31T17:21:56Z</time>
      </trkpt>
      <trkpt lat="46.1572" lon="-1.13966">
        <ele>5.3</ele>
        <time>2020-05-31T17:21:57Z</time>
      </trkpt>
      <trkpt lat="46.1572" lon="-1.1397">
        <ele>5.3</ele>
        <time>2020-05-31T17:21:58Z</time>
      </trkpt>
      <trkpt lat="46.15718" lon="-1.13976">
        <ele>5.4</ele>
        <time>2020-05-31T17:21:59Z</time>
      </trkpt>
      <trkpt lat="46.15717" lon="-1.1398">
        <ele>5.4</ele>
        <time>2020-05-31T17:22:00Z</time>
      </trkpt>
      <trkpt lat="46.15716" lon="-1.13985">
        <ele>5.4</ele>
        <time>2020-05-31T17:22:01Z</time>
      </trkpt>
      <trkpt lat="46.15715" lon="-1.13989">
        <ele>5.4</ele>
        <time>2020-05-31T17:22:02Z</time>
      </trkpt>
      <trkpt lat="46.15714" lon="-1.13992">
        <ele>5.4</ele>
        <time>2020-05-31T17:22:03Z</time>
      </trkpt>
      <trkpt lat="46.15712" lon="-1.13997">
        <ele>5.3</ele>
        <time>2020-05-31T17:22:04Z</time>
      </trkpt>
      <trkpt lat="46.15709" lon="-1.14004">
        <ele>5.3</ele>
        <time>2020-05-31T17:22:05Z</time>
      </trkpt>
      <trkpt lat="46.15707" lon="-1.14011">
        <ele>5.2</ele>
        <time>2020-05-31T17:22:06Z</time>
      </trkpt>
      <trkpt lat="46.15705" lon="-1.14016">
        <ele>5.2</ele>
        <time>2020-05-31T17:22:07Z</time>
      </trkpt>
      <trkpt lat="46.15703" lon="-1.14023">
        <ele>5.1</ele>
        <time>2020-05-31T17:22:08Z</time>
      </trkpt>
      <trkpt lat="46.157" lon="-1.14032">
        <ele>5</ele>
        <time>2020-05-31T17:22:09Z</time>
      </trkpt>
      <trkpt lat="46.15701" lon="-1.14041">
        <ele>4.9</ele>
        <time>2020-05-31T17:22:10Z</time>
      </trkpt>
      <trkpt lat="46.15699" lon="-1.14046">
        <ele>4.9</ele>
        <time>2020-05-31T17:22:11Z</time>
      </trkpt>
      <trkpt lat="46.15698" lon="-1.14053">
        <ele>4.8</ele>
        <time>2020-05-31T17:22:12Z</time>
      </trkpt>
      <trkpt lat="46.15696" lon="-1.1406">
        <ele>4.8</ele>
        <time>2020-05-31T17:22:13Z</time>
      </trkpt>
      <trkpt lat="46.15694" lon="-1.14067">
        <ele>4.7</ele>
        <time>2020-05-31T17:22:14Z</time>
      </trkpt>
      <trkpt lat="46.15692" lon="-1.14075">
        <ele>4.7</ele>
        <time>2020-05-31T17:22:15Z</time>
      </trkpt>
      <trkpt lat="46.15691" lon="-1.14084">
        <ele>4.6</ele>
        <time>2020-05-31T17:22:16Z</time>
      </trkpt>
      <trkpt lat="46.15688" lon="-1.14092">
        <ele>4.5</ele>
        <time>2020-05-31T17:22:17Z</time>
      </trkpt>
      <trkpt lat="46.15686" lon="-1.14098">
        <ele>4.5</ele>
        <time>2020-05-31T17:22:18Z</time>
      </trkpt>
      <trkpt lat="46.15683" lon="-1.14105">
        <ele>4.5</ele>
        <time>2020-05-31T17:22:19Z</time>
      </trkpt>
      <trkpt lat="46.1568" lon="-1.14114">
        <ele>4.5</ele>
        <time>2020-05-31T17:22:20Z</time>
      </trkpt>
      <trkpt lat="46.15678" lon="-1.14119">
        <ele>4.5</ele>
        <time>2020-05-31T17:22:21Z</time>
      </trkpt>
      <trkpt lat="46.15677" lon="-1.14126">
        <ele>4.5</ele>
        <time>2020-05-31T17:22:22Z</time>
      </trkpt>
      <trkpt lat="46.15675" lon="-1.14132">
        <ele>4.4</ele>
        <time>2020-05-31T17:22:23Z</time>
      </trkpt>
      <trkpt lat="46.15674" lon="-1.14137">
        <ele>4.4</ele>
        <time>2020-05-31T17:22:24Z</time>
      </trkpt>
      <trkpt lat="46.15672" lon="-1.14143">
        <ele>4.4</ele>
        <time>2020-05-31T17:22:25Z</time>
      </trkpt>
      <trkpt lat="46.1567" lon="-1.14149">
        <ele>4.4</ele>
        <time>2020-05-31T17:22:26Z</time>
      </trkpt>
      <trkpt lat="46.15668" lon="-1.14154">
        <ele>4.4</ele>
        <time>2020-05-31T17:22:27Z</time>
      </trkpt>
      <trkpt lat="46.15671" lon="-1.14158">
        <ele>4.3</ele>
        <time>2020-05-31T17:22:28Z</time>
      </trkpt>
      <trkpt lat="46.1567" lon="-1.14163">
        <ele>4.3</ele>
        <time>2020-05-31T17:22:29Z</time>
      </trkpt>
      <trkpt lat="46.15669" lon="-1.14168">
        <ele>4.2</ele>
        <time>2020-05-31T17:22:30Z</time>
      </trkpt>
      <trkpt lat="46.15667" lon="-1.14172">
        <ele>4.2</ele>
        <time>2020-05-31T17:22:31Z</time>
      </trkpt>
      <trkpt lat="46.15666" lon="-1.14173">
        <ele>4.2</ele>
        <time>2020-05-31T17:22:32Z</time>
      </trkpt>
      <trkpt lat="46.15665" lon="-1.14174">
        <ele>4.2</ele>
        <time>2020-05-31T17:22:33Z</time>
      </trkpt>
      <trkpt lat="46.15665" lon="-1.14173">
        <ele>4.2</ele>
        <time>2020-05-31T17:22:34Z</time>
      </trkpt>
      <trkpt lat="46.15666" lon="-1.14173">
        <ele>4.2</ele>
        <time>2020-05-31T17:22:35Z</time>
      </trkpt>
      <trkpt lat="46.15665" lon="-1.14173">
        <ele>4.2</ele>
        <time>2020-05-31T17:22:36Z</time>
      </trkpt>
      <trkpt lat="46.15665" lon="-1.14175">
        <ele>4.2</ele>
        <time>2020-05-31T17:22:37Z</time>
      </trkpt>
      <trkpt lat="46.15665" lon="-1.14177">
        <ele>4.2</ele>
        <time>2020-05-31T17:22:38Z</time>
      </trkpt>
      <trkpt lat="46.15665" lon="-1.14182">
        <ele>4.2</ele>
        <time>2020-05-31T17:22:39Z</time>
      </trkpt>
      <trkpt lat="46.15668" lon="-1.14186">
        <ele>4.2</ele>
        <time>2020-05-31T17:22:40Z</time>
      </trkpt>
      <trkpt lat="46.15669" lon="-1.14192">
        <ele>4.2</ele>
        <time>2020-05-31T17:22:41Z</time>
      </trkpt>
      <trkpt lat="46.15669" lon="-1.14195">
        <ele>4.2</ele>
        <time>2020-05-31T17:22:42Z</time>
      </trkpt>
      <trkpt lat="46.15669" lon="-1.142">
        <ele>4.2</ele>
        <time>2020-05-31T17:22:43Z</time>
      </trkpt>
      <trkpt lat="46.15669" lon="-1.14207">
        <ele>4.2</ele>
        <time>2020-05-31T17:22:44Z</time>
      </trkpt>
      <trkpt lat="46.15668" lon="-1.14214">
        <ele>4.2</ele>
        <time>2020-05-31T17:22:45Z</time>
      </trkpt>
      <trkpt lat="46.15669" lon="-1.14222">
        <ele>4.2</ele>
        <time>2020-05-31T17:22:46Z</time>
      </trkpt>
      <trkpt lat="46.15669" lon="-1.14228">
        <ele>4.2</ele>
        <time>2020-05-31T17:22:47Z</time>
      </trkpt>
      <trkpt lat="46.15669" lon="-1.1423">
        <ele>4.2</ele>
        <time>2020-05-31T17:22:48Z</time>
      </trkpt>
      <trkpt lat="46.15667" lon="-1.14237">
        <ele>4.2</ele>
        <time>2020-05-31T17:22:49Z</time>
      </trkpt>
      <trkpt lat="46.15666" lon="-1.14243">
        <ele>4.2</ele>
        <time>2020-05-31T17:22:50Z</time>
      </trkpt>
      <trkpt lat="46.15665" lon="-1.14248">
        <ele>4.2</ele>
        <time>2020-05-31T17:22:51Z</time>
      </trkpt>
      <trkpt lat="46.15664" lon="-1.1425">
        <ele>4.2</ele>
        <time>2020-05-31T17:22:52Z</time>
      </trkpt>
      <trkpt lat="46.15662" lon="-1.14253">
        <ele>4.2</ele>
        <time>2020-05-31T17:22:53Z</time>
      </trkpt>
      <trkpt lat="46.1566" lon="-1.14258">
        <ele>4.2</ele>
        <time>2020-05-31T17:22:54Z</time>
      </trkpt>
      <trkpt lat="46.15659" lon="-1.14263">
        <ele>4.2</ele>
        <time>2020-05-31T17:22:55Z</time>
      </trkpt>
      <trkpt lat="46.15658" lon="-1.14267">
        <ele>4.2</ele>
        <time>2020-05-31T17:22:56Z</time>
      </trkpt>
      <trkpt lat="46.15656" lon="-1.14271">
        <ele>4.2</ele>
        <time>2020-05-31T17:22:57Z</time>
      </trkpt>
      <trkpt lat="46.15652" lon="-1.14275">
        <ele>4.3</ele>
        <time>2020-05-31T17:22:58Z</time>
      </trkpt>
      <trkpt lat="46.15648" lon="-1.14278">
        <ele>4.3</ele>
        <time>2020-05-31T17:22:59Z</time>
      </trkpt>
      <trkpt lat="46.15643" lon="-1.14278">
        <ele>4.4</ele>
        <time>2020-05-31T17:23:00Z</time>
      </trkpt>
      <trkpt lat="46.15639" lon="-1.14279">
        <ele>4.4</ele>
        <time>2020-05-31T17:23:01Z</time>
      </trkpt>
      <trkpt lat="46.15636" lon="-1.14281">
        <ele>4.4</ele>
        <time>2020-05-31T17:23:02Z</time>
      </trkpt>
      <trkpt lat="46.15633" lon="-1.14282">
        <ele>4.4</ele>
        <time>2020-05-31T17:23:03Z</time>
      </trkpt>
      <trkpt lat="46.15629" lon="-1.14286">
        <ele>4.4</ele>
        <time>2020-05-31T17:23:04Z</time>
      </trkpt>
      <trkpt lat="46.15628" lon="-1.14288">
        <ele>4.4</ele>
        <time>2020-05-31T17:23:05Z</time>
      </trkpt>
      <trkpt lat="46.15624" lon="-1.1429">
        <ele>4.4</ele>
        <time>2020-05-31T17:23:06Z</time>
      </trkpt>
      <trkpt lat="46.1562" lon="-1.14292">
        <ele>4.4</ele>
        <time>2020-05-31T17:23:07Z</time>
      </trkpt>
      <trkpt lat="46.15617" lon="-1.14292">
        <ele>4.4</ele>
        <time>2020-05-31T17:23:08Z</time>
      </trkpt>
      <trkpt lat="46.15613" lon="-1.14294">
        <ele>4.4</ele>
        <time>2020-05-31T17:23:09Z</time>
      </trkpt>
      <trkpt lat="46.15609" lon="-1.14295">
        <ele>4.4</ele>
        <time>2020-05-31T17:23:10Z</time>
      </trkpt>
      <trkpt lat="46.15605" lon="-1.14298">
        <ele>4.4</ele>
        <time>2020-05-31T17:23:11Z</time>
      </trkpt>
      <trkpt lat="46.15601" lon="-1.14299">
        <ele>4.3</ele>
        <time>2020-05-31T17:23:12Z</time>
      </trkpt>
      <trkpt lat="46.15597" lon="-1.143">
        <ele>4.3</ele>
        <time>2020-05-31T17:23:13Z</time>
      </trkpt>
      <trkpt lat="46.15593" lon="-1.143">
        <ele>4.2</ele>
        <time>2020-05-31T17:23:14Z</time>
      </trkpt>
      <trkpt lat="46.15589" lon="-1.143">
        <ele>4.2</ele>
        <time>2020-05-31T17:23:15Z</time>
      </trkpt>
      <trkpt lat="46.15584" lon="-1.143">
        <ele>4.2</ele>
        <time>2020-05-31T17:23:16Z</time>
      </trkpt>
      <trkpt lat="46.15579" lon="-1.14303">
        <ele>4.1</ele>
        <time>2020-05-31T17:23:17Z</time>
      </trkpt>
      <trkpt lat="46.15574" lon="-1.14302">
        <ele>4.1</ele>
        <time>2020-05-31T17:23:18Z</time>
      </trkpt>
      <trkpt lat="46.15569" lon="-1.14302">
        <ele>4</ele>
        <time>2020-05-31T17:23:19Z</time>
      </trkpt>
      <trkpt lat="46.15563" lon="-1.14304">
        <ele>4</ele>
        <time>2020-05-31T17:23:20Z</time>
      </trkpt>
      <trkpt lat="46.15559" lon="-1.14306">
        <ele>4</ele>
        <time>2020-05-31T17:23:21Z</time>
      </trkpt>
      <trkpt lat="46.15553" lon="-1.14306">
        <ele>4</ele>
        <time>2020-05-31T17:23:22Z</time>
      </trkpt>
      <trkpt lat="46.15549" lon="-1.14305">
        <ele>4</ele>
        <time>2020-05-31T17:23:23Z</time>
      </trkpt>
      <trkpt lat="46.15544" lon="-1.14302">
        <ele>4</ele>
        <time>2020-05-31T17:23:24Z</time>
      </trkpt>
      <trkpt lat="46.15541" lon="-1.14301">
        <ele>4</ele>
        <time>2020-05-31T17:23:25Z</time>
      </trkpt>
      <trkpt lat="46.15537" lon="-1.14304">
        <ele>4.1</ele>
        <time>2020-05-31T17:23:26Z</time>
      </trkpt>
      <trkpt lat="46.15531" lon="-1.14308">
        <ele>4.1</ele>
        <time>2020-05-31T17:23:27Z</time>
      </trkpt>
      <trkpt lat="46.15526" lon="-1.14312">
        <ele>4.2</ele>
        <time>2020-05-31T17:23:28Z</time>
      </trkpt>
      <trkpt lat="46.15521" lon="-1.14317">
        <ele>4.3</ele>
        <time>2020-05-31T17:23:29Z</time>
      </trkpt>
      <trkpt lat="46.15515" lon="-1.1432">
        <ele>4.4</ele>
        <time>2020-05-31T17:23:30Z</time>
      </trkpt>
      <trkpt lat="46.1551" lon="-1.14323">
        <ele>4.4</ele>
        <time>2020-05-31T17:23:31Z</time>
      </trkpt>
      <trkpt lat="46.15505" lon="-1.14327">
        <ele>4.4</ele>
        <time>2020-05-31T17:23:32Z</time>
      </trkpt>
      <trkpt lat="46.15503" lon="-1.14329">
        <ele>4.4</ele>
        <time>2020-05-31T17:23:33Z</time>
      </trkpt>
      <trkpt lat="46.15499" lon="-1.14332">
        <ele>4.4</ele>
        <time>2020-05-31T17:23:34Z</time>
      </trkpt>
      <trkpt lat="46.15496" lon="-1.14336">
        <ele>4.4</ele>
        <time>2020-05-31T17:23:35Z</time>
      </trkpt>
      <trkpt lat="46.15492" lon="-1.1434">
        <ele>4.4</ele>
        <time>2020-05-31T17:23:36Z</time>
      </trkpt>
      <trkpt lat="46.15487" lon="-1.14346">
        <ele>4.4</ele>
        <time>2020-05-31T17:23:37Z</time>
      </trkpt>
      <trkpt lat="46.15483" lon="-1.1435">
        <ele>4.4</ele>
        <time>2020-05-31T17:23:38Z</time>
      </trkpt>
      <trkpt lat="46.15479" lon="-1.14354">
        <ele>4.4</ele>
        <time>2020-05-31T17:23:39Z</time>
      </trkpt>
      <trkpt lat="46.15476" lon="-1.14359">
        <ele>4.4</ele>
        <time>2020-05-31T17:23:40Z</time>
      </trkpt>
      <trkpt lat="46.15473" lon="-1.14364">
        <ele>4.4</ele>
        <time>2020-05-31T17:23:41Z</time>
      </trkpt>
      <trkpt lat="46.15469" lon="-1.14369">
        <ele>4.5</ele>
        <time>2020-05-31T17:23:42Z</time>
      </trkpt>
      <trkpt lat="46.15465" lon="-1.14375">
        <ele>4.5</ele>
        <time>2020-05-31T17:23:43Z</time>
      </trkpt>
      <trkpt lat="46.15461" lon="-1.14382">
        <ele>4.5</ele>
        <time>2020-05-31T17:23:44Z</time>
      </trkpt>
      <trkpt lat="46.15458" lon="-1.14387">
        <ele>4.5</ele>
        <time>2020-05-31T17:23:45Z</time>
      </trkpt>
      <trkpt lat="46.15454" lon="-1.14395">
        <ele>4.6</ele>
        <time>2020-05-31T17:23:46Z</time>
      </trkpt>
      <trkpt lat="46.1545" lon="-1.14401">
        <ele>4.6</ele>
        <time>2020-05-31T17:23:47Z</time>
      </trkpt>
      <trkpt lat="46.15447" lon="-1.14407">
        <ele>4.6</ele>
        <time>2020-05-31T17:23:48Z</time>
      </trkpt>
      <trkpt lat="46.15444" lon="-1.14414">
        <ele>4.6</ele>
        <time>2020-05-31T17:23:49Z</time>
      </trkpt>
      <trkpt lat="46.15441" lon="-1.14421">
        <ele>4.6</ele>
        <time>2020-05-31T17:23:50Z</time>
      </trkpt>
      <trkpt lat="46.15438" lon="-1.14428">
        <ele>4.6</ele>
        <time>2020-05-31T17:23:51Z</time>
      </trkpt>
      <trkpt lat="46.15435" lon="-1.14431">
        <ele>4.6</ele>
        <time>2020-05-31T17:23:52Z</time>
      </trkpt>
      <trkpt lat="46.15432" lon="-1.14438">
        <ele>4.6</ele>
        <time>2020-05-31T17:23:53Z</time>
      </trkpt>
      <trkpt lat="46.15428" lon="-1.14443">
        <ele>4.7</ele>
        <time>2020-05-31T17:23:54Z</time>
      </trkpt>
      <trkpt lat="46.15424" lon="-1.14448">
        <ele>4.7</ele>
        <time>2020-05-31T17:23:55Z</time>
      </trkpt>
      <trkpt lat="46.1542" lon="-1.14453">
        <ele>4.7</ele>
        <time>2020-05-31T17:23:56Z</time>
      </trkpt>
      <trkpt lat="46.15417" lon="-1.14458">
        <ele>4.7</ele>
        <time>2020-05-31T17:23:57Z</time>
      </trkpt>
      <trkpt lat="46.15413" lon="-1.14463">
        <ele>4.8</ele>
        <time>2020-05-31T17:23:58Z</time>
      </trkpt>
      <trkpt lat="46.15411" lon="-1.14469">
        <ele>4.8</ele>
        <time>2020-05-31T17:23:59Z</time>
      </trkpt>
      <trkpt lat="46.15408" lon="-1.14474">
        <ele>4.8</ele>
        <time>2020-05-31T17:24:00Z</time>
      </trkpt>
      <trkpt lat="46.15405" lon="-1.1448">
        <ele>4.9</ele>
        <time>2020-05-31T17:24:01Z</time>
      </trkpt>
      <trkpt lat="46.15401" lon="-1.14486">
        <ele>5</ele>
        <time>2020-05-31T17:24:02Z</time>
      </trkpt>
      <trkpt lat="46.15398" lon="-1.14492">
        <ele>5</ele>
        <time>2020-05-31T17:24:03Z</time>
      </trkpt>
      <trkpt lat="46.15394" lon="-1.14499">
        <ele>5.1</ele>
        <time>2020-05-31T17:24:04Z</time>
      </trkpt>
      <trkpt lat="46.15392" lon="-1.14508">
        <ele>5.2</ele>
        <time>2020-05-31T17:24:05Z</time>
      </trkpt>
      <trkpt lat="46.15389" lon="-1.14514">
        <ele>5.2</ele>
        <time>2020-05-31T17:24:06Z</time>
      </trkpt>
      <trkpt lat="46.15385" lon="-1.14518">
        <ele>5.2</ele>
        <time>2020-05-31T17:24:07Z</time>
      </trkpt>
      <trkpt lat="46.15382" lon="-1.14523">
        <ele>5.3</ele>
        <time>2020-05-31T17:24:08Z</time>
      </trkpt>
      <trkpt lat="46.15378" lon="-1.14529">
        <ele>5.3</ele>
        <time>2020-05-31T17:24:09Z</time>
      </trkpt>
      <trkpt lat="46.15375" lon="-1.14531">
        <ele>5.3</ele>
        <time>2020-05-31T17:24:10Z</time>
      </trkpt>
      <trkpt lat="46.15373" lon="-1.14537">
        <ele>5.3</ele>
        <time>2020-05-31T17:24:11Z</time>
      </trkpt>
      <trkpt lat="46.1537" lon="-1.14543">
        <ele>5.3</ele>
        <time>2020-05-31T17:24:12Z</time>
      </trkpt>
      <trkpt lat="46.15367" lon="-1.14548">
        <ele>5.3</ele>
        <time>2020-05-31T17:24:13Z</time>
      </trkpt>
      <trkpt lat="46.15364" lon="-1.14552">
        <ele>5.3</ele>
        <time>2020-05-31T17:24:14Z</time>
      </trkpt>
      <trkpt lat="46.15361" lon="-1.14558">
        <ele>5.3</ele>
        <time>2020-05-31T17:24:15Z</time>
      </trkpt>
      <trkpt lat="46.15358" lon="-1.14562">
        <ele>5.3</ele>
        <time>2020-05-31T17:24:16Z</time>
      </trkpt>
      <trkpt lat="46.15356" lon="-1.14567">
        <ele>5.3</ele>
        <time>2020-05-31T17:24:17Z</time>
      </trkpt>
      <trkpt lat="46.15352" lon="-1.1457">
        <ele>5.4</ele>
        <time>2020-05-31T17:24:18Z</time>
      </trkpt>
      <trkpt lat="46.15349" lon="-1.14574">
        <ele>5.4</ele>
        <time>2020-05-31T17:24:19Z</time>
      </trkpt>
      <trkpt lat="46.15346" lon="-1.14577">
        <ele>5.4</ele>
        <time>2020-05-31T17:24:20Z</time>
      </trkpt>
      <trkpt lat="46.15343" lon="-1.1458">
        <ele>5.5</ele>
        <time>2020-05-31T17:24:21Z</time>
      </trkpt>
      <trkpt lat="46.15341" lon="-1.14583">
        <ele>5.5</ele>
        <time>2020-05-31T17:24:22Z</time>
      </trkpt>
      <trkpt lat="46.1534" lon="-1.14583">
        <ele>5.5</ele>
        <time>2020-05-31T17:24:23Z</time>
      </trkpt>
      <trkpt lat="46.15341" lon="-1.14585">
        <ele>5.5</ele>
        <time>2020-05-31T17:24:24Z</time>
      </trkpt>
      <trkpt lat="46.15342" lon="-1.14584">
        <ele>5.5</ele>
        <time>2020-05-31T17:24:25Z</time>
      </trkpt>
      <trkpt lat="46.15344" lon="-1.14583">
        <ele>5.5</ele>
        <time>2020-05-31T17:24:26Z</time>
      </trkpt>
      <trkpt lat="46.15346" lon="-1.14587">
        <ele>5.5</ele>
        <time>2020-05-31T17:24:27Z</time>
      </trkpt>
      <trkpt lat="46.15346" lon="-1.14588">
        <ele>5.5</ele>
        <time>2020-05-31T17:24:28Z</time>
      </trkpt>
      <trkpt lat="46.15348" lon="-1.14592">
        <ele>5.4</ele>
        <time>2020-05-31T17:24:29Z</time>
      </trkpt>
      <trkpt lat="46.1535" lon="-1.14597">
        <ele>5.4</ele>
        <time>2020-05-31T17:24:30Z</time>
      </trkpt>
      <trkpt lat="46.1535" lon="-1.14599">
        <ele>5.4</ele>
        <time>2020-05-31T17:24:31Z</time>
      </trkpt>
      <trkpt lat="46.1535" lon="-1.14604">
        <ele>5.4</ele>
        <time>2020-05-31T17:24:32Z</time>
      </trkpt>
      <trkpt lat="46.15351" lon="-1.14609">
        <ele>5.4</ele>
        <time>2020-05-31T17:24:33Z</time>
      </trkpt>
      <trkpt lat="46.15352" lon="-1.14616">
        <ele>5.4</ele>
        <time>2020-05-31T17:24:34Z</time>
      </trkpt>
      <trkpt lat="46.15353" lon="-1.14622">
        <ele>5.5</ele>
        <time>2020-05-31T17:24:35Z</time>
      </trkpt>
      <trkpt lat="46.15355" lon="-1.14627">
        <ele>5.5</ele>
        <time>2020-05-31T17:24:36Z</time>
      </trkpt>
      <trkpt lat="46.15357" lon="-1.14632">
        <ele>5.5</ele>
        <time>2020-05-31T17:24:37Z</time>
      </trkpt>
      <trkpt lat="46.15359" lon="-1.14637">
        <ele>5.5</ele>
        <time>2020-05-31T17:24:38Z</time>
      </trkpt>
      <trkpt lat="46.15362" lon="-1.14642">
        <ele>5.5</ele>
        <time>2020-05-31T17:24:39Z</time>
      </trkpt>
      <trkpt lat="46.15365" lon="-1.14647">
        <ele>5.5</ele>
        <time>2020-05-31T17:24:40Z</time>
      </trkpt>
      <trkpt lat="46.15368" lon="-1.14651">
        <ele>5.5</ele>
        <time>2020-05-31T17:24:41Z</time>
      </trkpt>
      <trkpt lat="46.15372" lon="-1.14655">
        <ele>5.5</ele>
        <time>2020-05-31T17:24:42Z</time>
      </trkpt>
      <trkpt lat="46.15375" lon="-1.1466">
        <ele>5.5</ele>
        <time>2020-05-31T17:24:43Z</time>
      </trkpt>
      <trkpt lat="46.15378" lon="-1.14665">
        <ele>5.5</ele>
        <time>2020-05-31T17:24:44Z</time>
      </trkpt>
      <trkpt lat="46.15381" lon="-1.14669">
        <ele>5.5</ele>
        <time>2020-05-31T17:24:45Z</time>
      </trkpt>
      <trkpt lat="46.15385" lon="-1.14672">
        <ele>5.5</ele>
        <time>2020-05-31T17:24:46Z</time>
      </trkpt>
      <trkpt lat="46.1539" lon="-1.14674">
        <ele>5.5</ele>
        <time>2020-05-31T17:24:47Z</time>
      </trkpt>
      <trkpt lat="46.15394" lon="-1.14679">
        <ele>5.4</ele>
        <time>2020-05-31T17:24:48Z</time>
      </trkpt>
      <trkpt lat="46.15398" lon="-1.14683">
        <ele>5.4</ele>
        <time>2020-05-31T17:24:49Z</time>
      </trkpt>
      <trkpt lat="46.15402" lon="-1.14688">
        <ele>5.4</ele>
        <time>2020-05-31T17:24:50Z</time>
      </trkpt>
      <trkpt lat="46.15406" lon="-1.14692">
        <ele>5.4</ele>
        <time>2020-05-31T17:24:51Z</time>
      </trkpt>
      <trkpt lat="46.15411" lon="-1.14697">
        <ele>5.4</ele>
        <time>2020-05-31T17:24:52Z</time>
      </trkpt>
      <trkpt lat="46.15413" lon="-1.14702">
        <ele>5.4</ele>
        <time>2020-05-31T17:24:53Z</time>
      </trkpt>
      <trkpt lat="46.15417" lon="-1.14706">
        <ele>5.4</ele>
        <time>2020-05-31T17:24:54Z</time>
      </trkpt>
      <trkpt lat="46.15421" lon="-1.1471">
        <ele>5.4</ele>
        <time>2020-05-31T17:24:55Z</time>
      </trkpt>
      <trkpt lat="46.15424" lon="-1.14714">
        <ele>5.4</ele>
        <time>2020-05-31T17:24:56Z</time>
      </trkpt>
      <trkpt lat="46.15428" lon="-1.1472">
        <ele>5.4</ele>
        <time>2020-05-31T17:24:57Z</time>
      </trkpt>
      <trkpt lat="46.15432" lon="-1.14724">
        <ele>5.4</ele>
        <time>2020-05-31T17:24:58Z</time>
      </trkpt>
      <trkpt lat="46.15435" lon="-1.14731">
        <ele>5.4</ele>
        <time>2020-05-31T17:24:59Z</time>
      </trkpt>
      <trkpt lat="46.15438" lon="-1.14737">
        <ele>5.5</ele>
        <time>2020-05-31T17:25:00Z</time>
      </trkpt>
      <trkpt lat="46.15443" lon="-1.14743">
        <ele>5.5</ele>
        <time>2020-05-31T17:25:01Z</time>
      </trkpt>
      <trkpt lat="46.15447" lon="-1.14747">
        <ele>5.5</ele>
        <time>2020-05-31T17:25:02Z</time>
      </trkpt>
      <trkpt lat="46.15451" lon="-1.14752">
        <ele>5.5</ele>
        <time>2020-05-31T17:25:03Z</time>
      </trkpt>
      <trkpt lat="46.15455" lon="-1.14757">
        <ele>5.5</ele>
        <time>2020-05-31T17:25:04Z</time>
      </trkpt>
      <trkpt lat="46.15458" lon="-1.1476">
        <ele>5.5</ele>
        <time>2020-05-31T17:25:05Z</time>
      </trkpt>
      <trkpt lat="46.15463" lon="-1.14764">
        <ele>5.5</ele>
        <time>2020-05-31T17:25:06Z</time>
      </trkpt>
      <trkpt lat="46.15467" lon="-1.14767">
        <ele>5.5</ele>
        <time>2020-05-31T17:25:07Z</time>
      </trkpt>
      <trkpt lat="46.15471" lon="-1.1477">
        <ele>5.5</ele>
        <time>2020-05-31T17:25:08Z</time>
      </trkpt>
      <trkpt lat="46.15474" lon="-1.14773">
        <ele>5.5</ele>
        <time>2020-05-31T17:25:09Z</time>
      </trkpt>
      <trkpt lat="46.15478" lon="-1.14777">
        <ele>5.5</ele>
        <time>2020-05-31T17:25:10Z</time>
      </trkpt>
      <trkpt lat="46.15481" lon="-1.14782">
        <ele>5.5</ele>
        <time>2020-05-31T17:25:11Z</time>
      </trkpt>
      <trkpt lat="46.15485" lon="-1.14787">
        <ele>5.5</ele>
        <time>2020-05-31T17:25:12Z</time>
      </trkpt>
      <trkpt lat="46.15487" lon="-1.14792">
        <ele>5.5</ele>
        <time>2020-05-31T17:25:13Z</time>
      </trkpt>
      <trkpt lat="46.1549" lon="-1.14798">
        <ele>5.5</ele>
        <time>2020-05-31T17:25:14Z</time>
      </trkpt>
      <trkpt lat="46.15494" lon="-1.14804">
        <ele>5.5</ele>
        <time>2020-05-31T17:25:15Z</time>
      </trkpt>
      <trkpt lat="46.15497" lon="-1.14808">
        <ele>5.4</ele>
        <time>2020-05-31T17:25:16Z</time>
      </trkpt>
      <trkpt lat="46.155" lon="-1.14812">
        <ele>5.4</ele>
        <time>2020-05-31T17:25:17Z</time>
      </trkpt>
      <trkpt lat="46.15504" lon="-1.14817">
        <ele>5.4</ele>
        <time>2020-05-31T17:25:18Z</time>
      </trkpt>
      <trkpt lat="46.15507" lon="-1.14821">
        <ele>5.4</ele>
        <time>2020-05-31T17:25:19Z</time>
      </trkpt>
      <trkpt lat="46.15513" lon="-1.14818">
        <ele>5.6</ele>
        <time>2020-05-31T17:25:20Z</time>
      </trkpt>
      <trkpt lat="46.15516" lon="-1.14822">
        <ele>5.7</ele>
        <time>2020-05-31T17:25:21Z</time>
      </trkpt>
      <trkpt lat="46.15521" lon="-1.14827">
        <ele>5.8</ele>
        <time>2020-05-31T17:25:22Z</time>
      </trkpt>
      <trkpt lat="46.15524" lon="-1.14833">
        <ele>5.9</ele>
        <time>2020-05-31T17:25:23Z</time>
      </trkpt>
      <trkpt lat="46.15528" lon="-1.14837">
        <ele>6</ele>
        <time>2020-05-31T17:25:24Z</time>
      </trkpt>
      <trkpt lat="46.15531" lon="-1.1484">
        <ele>6.1</ele>
        <time>2020-05-31T17:25:25Z</time>
      </trkpt>
      <trkpt lat="46.15534" lon="-1.14844">
        <ele>6.2</ele>
        <time>2020-05-31T17:25:26Z</time>
      </trkpt>
      <trkpt lat="46.15537" lon="-1.14846">
        <ele>6.3</ele>
        <time>2020-05-31T17:25:27Z</time>
      </trkpt>
      <trkpt lat="46.1554" lon="-1.1485">
        <ele>6.4</ele>
        <time>2020-05-31T17:25:28Z</time>
      </trkpt>
      <trkpt lat="46.15543" lon="-1.14855">
        <ele>6.5</ele>
        <time>2020-05-31T17:25:29Z</time>
      </trkpt>
      <trkpt lat="46.15545" lon="-1.14859">
        <ele>6.5</ele>
        <time>2020-05-31T17:25:30Z</time>
      </trkpt>
      <trkpt lat="46.15548" lon="-1.14863">
        <ele>6.5</ele>
        <time>2020-05-31T17:25:31Z</time>
      </trkpt>
      <trkpt lat="46.15551" lon="-1.14867">
        <ele>6.5</ele>
        <time>2020-05-31T17:25:32Z</time>
      </trkpt>
      <trkpt lat="46.15552" lon="-1.14874">
        <ele>5.5</ele>
        <time>2020-05-31T17:25:33Z</time>
      </trkpt>
      <trkpt lat="46.15553" lon="-1.1488">
        <ele>5.4</ele>
        <time>2020-05-31T17:25:34Z</time>
      </trkpt>
      <trkpt lat="46.15556" lon="-1.14884">
        <ele>5.3</ele>
        <time>2020-05-31T17:25:35Z</time>
      </trkpt>
      <trkpt lat="46.15558" lon="-1.14889">
        <ele>5.3</ele>
        <time>2020-05-31T17:25:36Z</time>
      </trkpt>
      <trkpt lat="46.15562" lon="-1.14894">
        <ele>5.2</ele>
        <time>2020-05-31T17:25:37Z</time>
      </trkpt>
      <trkpt lat="46.15565" lon="-1.14898">
        <ele>5.2</ele>
        <time>2020-05-31T17:25:38Z</time>
      </trkpt>
      <trkpt lat="46.15569" lon="-1.14902">
        <ele>5.1</ele>
        <time>2020-05-31T17:25:39Z</time>
      </trkpt>
      <trkpt lat="46.15572" lon="-1.14907">
        <ele>5</ele>
        <time>2020-05-31T17:25:40Z</time>
      </trkpt>
      <trkpt lat="46.15575" lon="-1.14911">
        <ele>5</ele>
        <time>2020-05-31T17:25:41Z</time>
      </trkpt>
      <trkpt lat="46.15578" lon="-1.14916">
        <ele>5</ele>
        <time>2020-05-31T17:25:42Z</time>
      </trkpt>
      <trkpt lat="46.15581" lon="-1.1492">
        <ele>5</ele>
        <time>2020-05-31T17:25:43Z</time>
      </trkpt>
      <trkpt lat="46.15583" lon="-1.14925">
        <ele>4.9</ele>
        <time>2020-05-31T17:25:44Z</time>
      </trkpt>
      <trkpt lat="46.15586" lon="-1.1493">
        <ele>4.9</ele>
        <time>2020-05-31T17:25:45Z</time>
      </trkpt>
      <trkpt lat="46.15589" lon="-1.14932">
        <ele>4.9</ele>
        <time>2020-05-31T17:25:46Z</time>
      </trkpt>
      <trkpt lat="46.15593" lon="-1.14936">
        <ele>4.9</ele>
        <time>2020-05-31T17:25:47Z</time>
      </trkpt>
      <trkpt lat="46.15597" lon="-1.14939">
        <ele>4.8</ele>
        <time>2020-05-31T17:25:48Z</time>
      </trkpt>
      <trkpt lat="46.15601" lon="-1.14941">
        <ele>4.8</ele>
        <time>2020-05-31T17:25:49Z</time>
      </trkpt>
      <trkpt lat="46.15606" lon="-1.14942">
        <ele>4.8</ele>
        <time>2020-05-31T17:25:50Z</time>
      </trkpt>
      <trkpt lat="46.15611" lon="-1.14944">
        <ele>4.8</ele>
        <time>2020-05-31T17:25:51Z</time>
      </trkpt>
      <trkpt lat="46.15615" lon="-1.14946">
        <ele>4.8</ele>
        <time>2020-05-31T17:25:52Z</time>
      </trkpt>
      <trkpt lat="46.15619" lon="-1.1495">
        <ele>4.8</ele>
        <time>2020-05-31T17:25:53Z</time>
      </trkpt>
      <trkpt lat="46.15624" lon="-1.14951">
        <ele>4.8</ele>
        <time>2020-05-31T17:25:54Z</time>
      </trkpt>
      <trkpt lat="46.15628" lon="-1.14952">
        <ele>4.8</ele>
        <time>2020-05-31T17:25:55Z</time>
      </trkpt>
      <trkpt lat="46.15633" lon="-1.14953">
        <ele>4.8</ele>
        <time>2020-05-31T17:25:56Z</time>
      </trkpt>
      <trkpt lat="46.15639" lon="-1.14953">
        <ele>4.9</ele>
        <time>2020-05-31T17:25:57Z</time>
      </trkpt>
      <trkpt lat="46.15644" lon="-1.14955">
        <ele>4.9</ele>
        <time>2020-05-31T17:25:58Z</time>
      </trkpt>
      <trkpt lat="46.15647" lon="-1.14959">
        <ele>4.9</ele>
        <time>2020-05-31T17:25:59Z</time>
      </trkpt>
      <trkpt lat="46.15652" lon="-1.14961">
        <ele>5</ele>
        <time>2020-05-31T17:26:00Z</time>
      </trkpt>
      <trkpt lat="46.15656" lon="-1.14964">
        <ele>5</ele>
        <time>2020-05-31T17:26:01Z</time>
      </trkpt>
      <trkpt lat="46.15661" lon="-1.14964">
        <ele>5</ele>
        <time>2020-05-31T17:26:02Z</time>
      </trkpt>
      <trkpt lat="46.15666" lon="-1.14966">
        <ele>5.1</ele>
        <time>2020-05-31T17:26:03Z</time>
      </trkpt>
      <trkpt lat="46.15671" lon="-1.14969">
        <ele>5.1</ele>
        <time>2020-05-31T17:26:04Z</time>
      </trkpt>
      <trkpt lat="46.15675" lon="-1.14975">
        <ele>5.1</ele>
        <time>2020-05-31T17:26:05Z</time>
      </trkpt>
      <trkpt lat="46.15679" lon="-1.14977">
        <ele>5.2</ele>
        <time>2020-05-31T17:26:06Z</time>
      </trkpt>
      <trkpt lat="46.15683" lon="-1.1498">
        <ele>5.2</ele>
        <time>2020-05-31T17:26:07Z</time>
      </trkpt>
      <trkpt lat="46.15687" lon="-1.14981">
        <ele>5.2</ele>
        <time>2020-05-31T17:26:08Z</time>
      </trkpt>
      <trkpt lat="46.15691" lon="-1.14985">
        <ele>5.2</ele>
        <time>2020-05-31T17:26:09Z</time>
      </trkpt>
      <trkpt lat="46.15694" lon="-1.14988">
        <ele>5.3</ele>
        <time>2020-05-31T17:26:10Z</time>
      </trkpt>
      <trkpt lat="46.15699" lon="-1.14991">
        <ele>5.3</ele>
        <time>2020-05-31T17:26:11Z</time>
      </trkpt>
      <trkpt lat="46.15703" lon="-1.14992">
        <ele>5.3</ele>
        <time>2020-05-31T17:26:12Z</time>
      </trkpt>
      <trkpt lat="46.15707" lon="-1.14994">
        <ele>5.3</ele>
        <time>2020-05-31T17:26:13Z</time>
      </trkpt>
      <trkpt lat="46.15712" lon="-1.14995">
        <ele>5.2</ele>
        <time>2020-05-31T17:26:14Z</time>
      </trkpt>
      <trkpt lat="46.15715" lon="-1.14999">
        <ele>5.2</ele>
        <time>2020-05-31T17:26:15Z</time>
      </trkpt>
      <trkpt lat="46.15716" lon="-1.15004">
        <ele>5.1</ele>
        <time>2020-05-31T17:26:16Z</time>
      </trkpt>
      <trkpt lat="46.15715" lon="-1.15006">
        <ele>5.1</ele>
        <time>2020-05-31T17:26:17Z</time>
      </trkpt>
      <trkpt lat="46.15714" lon="-1.15013">
        <ele>4.4</ele>
        <time>2020-05-31T17:26:18Z</time>
      </trkpt>
      <trkpt lat="46.15713" lon="-1.15019">
        <ele>4.3</ele>
        <time>2020-05-31T17:26:19Z</time>
      </trkpt>
      <trkpt lat="46.15712" lon="-1.15025">
        <ele>4.2</ele>
        <time>2020-05-31T17:26:20Z</time>
      </trkpt>
      <trkpt lat="46.15711" lon="-1.1503">
        <ele>4.2</ele>
        <time>2020-05-31T17:26:21Z</time>
      </trkpt>
      <trkpt lat="46.1571" lon="-1.15036">
        <ele>4.1</ele>
        <time>2020-05-31T17:26:22Z</time>
      </trkpt>
      <trkpt lat="46.1571" lon="-1.15042">
        <ele>4.1</ele>
        <time>2020-05-31T17:26:23Z</time>
      </trkpt>
      <trkpt lat="46.1571" lon="-1.15048">
        <ele>4</ele>
        <time>2020-05-31T17:26:24Z</time>
      </trkpt>
      <trkpt lat="46.15709" lon="-1.15052">
        <ele>4</ele>
        <time>2020-05-31T17:26:25Z</time>
      </trkpt>
      <trkpt lat="46.1571" lon="-1.15056">
        <ele>3.9</ele>
        <time>2020-05-31T17:26:26Z</time>
      </trkpt>
      <trkpt lat="46.15711" lon="-1.15061">
        <ele>3.9</ele>
        <time>2020-05-31T17:26:27Z</time>
      </trkpt>
      <trkpt lat="46.15711" lon="-1.15065">
        <ele>3.8</ele>
        <time>2020-05-31T17:26:28Z</time>
      </trkpt>
      <trkpt lat="46.15711" lon="-1.15069">
        <ele>3.8</ele>
        <time>2020-05-31T17:26:29Z</time>
      </trkpt>
      <trkpt lat="46.1571" lon="-1.15075">
        <ele>3.7</ele>
        <time>2020-05-31T17:26:30Z</time>
      </trkpt>
      <trkpt lat="46.1571" lon="-1.1508">
        <ele>3.7</ele>
        <time>2020-05-31T17:26:31Z</time>
      </trkpt>
      <trkpt lat="46.15709" lon="-1.15085">
        <ele>3.7</ele>
        <time>2020-05-31T17:26:32Z</time>
      </trkpt>
      <trkpt lat="46.15709" lon="-1.15086">
        <ele>3.7</ele>
        <time>2020-05-31T17:26:33Z</time>
      </trkpt>
      <trkpt lat="46.15709" lon="-1.15091">
        <ele>3.7</ele>
        <time>2020-05-31T17:26:34Z</time>
      </trkpt>
      <trkpt lat="46.15709" lon="-1.15093">
        <ele>3.7</ele>
        <time>2020-05-31T17:26:35Z</time>
      </trkpt>
      <trkpt lat="46.15709" lon="-1.151">
        <ele>3.7</ele>
        <time>2020-05-31T17:26:36Z</time>
      </trkpt>
      <trkpt lat="46.15709" lon="-1.15107">
        <ele>3.6</ele>
        <time>2020-05-31T17:26:37Z</time>
      </trkpt>
      <trkpt lat="46.15709" lon="-1.15111">
        <ele>3.6</ele>
        <time>2020-05-31T17:26:38Z</time>
      </trkpt>
      <trkpt lat="46.15709" lon="-1.15117">
        <ele>3.6</ele>
        <time>2020-05-31T17:26:39Z</time>
      </trkpt>
      <trkpt lat="46.15711" lon="-1.15123">
        <ele>3.6</ele>
        <time>2020-05-31T17:26:40Z</time>
      </trkpt>
      <trkpt lat="46.15712" lon="-1.15128">
        <ele>3.5</ele>
        <time>2020-05-31T17:26:41Z</time>
      </trkpt>
      <trkpt lat="46.15714" lon="-1.15131">
        <ele>3.5</ele>
        <time>2020-05-31T17:26:42Z</time>
      </trkpt>
      <trkpt lat="46.15718" lon="-1.15131">
        <ele>3.5</ele>
        <time>2020-05-31T17:26:43Z</time>
      </trkpt>
      <trkpt lat="46.15721" lon="-1.15128">
        <ele>3.5</ele>
        <time>2020-05-31T17:26:44Z</time>
      </trkpt>
      <trkpt lat="46.15724" lon="-1.15125">
        <ele>3.5</ele>
        <time>2020-05-31T17:26:45Z</time>
      </trkpt>
      <trkpt lat="46.15727" lon="-1.1512">
        <ele>3.5</ele>
        <time>2020-05-31T17:26:46Z</time>
      </trkpt>
      <trkpt lat="46.15729" lon="-1.15116">
        <ele>3.5</ele>
        <time>2020-05-31T17:26:47Z</time>
      </trkpt>
      <trkpt lat="46.15732" lon="-1.15113">
        <ele>3.6</ele>
        <time>2020-05-31T17:26:48Z</time>
      </trkpt>
      <trkpt lat="46.15734" lon="-1.15111">
        <ele>3.6</ele>
        <time>2020-05-31T17:26:49Z</time>
      </trkpt>
      <trkpt lat="46.15737" lon="-1.15108">
        <ele>3.6</ele>
        <time>2020-05-31T17:26:50Z</time>
      </trkpt>
      <trkpt lat="46.1574" lon="-1.15103">
        <ele>3.6</ele>
        <time>2020-05-31T17:26:51Z</time>
      </trkpt>
      <trkpt lat="46.15743" lon="-1.15099">
        <ele>3.6</ele>
        <time>2020-05-31T17:26:52Z</time>
      </trkpt>
      <trkpt lat="46.15747" lon="-1.15096">
        <ele>3.6</ele>
        <time>2020-05-31T17:26:53Z</time>
      </trkpt>
      <trkpt lat="46.15748" lon="-1.15095">
        <ele>3.7</ele>
        <time>2020-05-31T17:26:54Z</time>
      </trkpt>
      <trkpt lat="46.15749" lon="-1.15093">
        <ele>3.7</ele>
        <time>2020-05-31T17:26:55Z</time>
      </trkpt>
      <trkpt lat="46.15752" lon="-1.1509">
        <ele>3.7</ele>
        <time>2020-05-31T17:26:56Z</time>
      </trkpt>
      <trkpt lat="46.15753" lon="-1.15089">
        <ele>3.7</ele>
        <time>2020-05-31T17:26:57Z</time>
      </trkpt>
      <trkpt lat="46.15755" lon="-1.15087">
        <ele>3.7</ele>
        <time>2020-05-31T17:26:58Z</time>
      </trkpt>
      <trkpt lat="46.15757" lon="-1.15086">
        <ele>3.8</ele>
        <time>2020-05-31T17:26:59Z</time>
      </trkpt>
      <trkpt lat="46.15758" lon="-1.15084">
        <ele>3.8</ele>
        <time>2020-05-31T17:27:00Z</time>
      </trkpt>
      <trkpt lat="46.15761" lon="-1.15082">
        <ele>3.8</ele>
        <time>2020-05-31T17:27:01Z</time>
      </trkpt>
      <trkpt lat="46.15763" lon="-1.1508">
        <ele>3.9</ele>
        <time>2020-05-31T17:27:02Z</time>
      </trkpt>
      <trkpt lat="46.15766" lon="-1.15078">
        <ele>3.9</ele>
        <time>2020-05-31T17:27:03Z</time>
      </trkpt>
      <trkpt lat="46.1577" lon="-1.15075">
        <ele>4</ele>
        <time>2020-05-31T17:27:04Z</time>
      </trkpt>
      <trkpt lat="46.15774" lon="-1.15072">
        <ele>4</ele>
        <time>2020-05-31T17:27:05Z</time>
      </trkpt>
      <trkpt lat="46.15777" lon="-1.15069">
        <ele>4.1</ele>
        <time>2020-05-31T17:27:06Z</time>
      </trkpt>
      <trkpt lat="46.15779" lon="-1.15066">
        <ele>4.1</ele>
        <time>2020-05-31T17:27:07Z</time>
      </trkpt>
      <trkpt lat="46.15782" lon="-1.15064">
        <ele>4.2</ele>
        <time>2020-05-31T17:27:08Z</time>
      </trkpt>
      <trkpt lat="46.15784" lon="-1.15063">
        <ele>4.2</ele>
        <time>2020-05-31T17:27:09Z</time>
      </trkpt>
      <trkpt lat="46.15785" lon="-1.15061">
        <ele>4.3</ele>
        <time>2020-05-31T17:27:10Z</time>
      </trkpt>
      <trkpt lat="46.15786" lon="-1.15061">
        <ele>4.3</ele>
        <time>2020-05-31T17:27:11Z</time>
      </trkpt>
      <trkpt lat="46.15787" lon="-1.1506">
        <ele>4.5</ele>
        <time>2020-05-31T17:27:12Z</time>
      </trkpt>
      <trkpt lat="46.15789" lon="-1.1506">
        <ele>4.5</ele>
        <time>2020-05-31T17:27:13Z</time>
      </trkpt>
      <trkpt lat="46.15792" lon="-1.15061">
        <ele>4.5</ele>
        <time>2020-05-31T17:27:14Z</time>
      </trkpt>
      <trkpt lat="46.15795" lon="-1.15064">
        <ele>4.5</ele>
        <time>2020-05-31T17:27:15Z</time>
      </trkpt>
      <trkpt lat="46.15798" lon="-1.15067">
        <ele>4.5</ele>
        <time>2020-05-31T17:27:16Z</time>
      </trkpt>
      <trkpt lat="46.15801" lon="-1.15069">
        <ele>4.5</ele>
        <time>2020-05-31T17:27:17Z</time>
      </trkpt>
      <trkpt lat="46.15803" lon="-1.15071">
        <ele>4.5</ele>
        <time>2020-05-31T17:27:18Z</time>
      </trkpt>
      <trkpt lat="46.15807" lon="-1.15075">
        <ele>4.5</ele>
        <time>2020-05-31T17:27:19Z</time>
      </trkpt>
      <trkpt lat="46.15808" lon="-1.15077">
        <ele>4.5</ele>
        <time>2020-05-31T17:27:20Z</time>
      </trkpt>
      <trkpt lat="46.15811" lon="-1.15081">
        <ele>4.6</ele>
        <time>2020-05-31T17:27:21Z</time>
      </trkpt>
      <trkpt lat="46.15813" lon="-1.15086">
        <ele>4.6</ele>
        <time>2020-05-31T17:27:22Z</time>
      </trkpt>
      <trkpt lat="46.15813" lon="-1.15087">
        <ele>4.6</ele>
        <time>2020-05-31T17:27:23Z</time>
      </trkpt>
      <trkpt lat="46.15814" lon="-1.15093">
        <ele>4.6</ele>
        <time>2020-05-31T17:27:24Z</time>
      </trkpt>
      <trkpt lat="46.15815" lon="-1.15098">
        <ele>4.6</ele>
        <time>2020-05-31T17:27:25Z</time>
      </trkpt>
      <trkpt lat="46.15817" lon="-1.15103">
        <ele>4.6</ele>
        <time>2020-05-31T17:27:26Z</time>
      </trkpt>
      <trkpt lat="46.15818" lon="-1.15106">
        <ele>4.6</ele>
        <time>2020-05-31T17:27:27Z</time>
      </trkpt>
      <trkpt lat="46.15819" lon="-1.1511">
        <ele>4.6</ele>
        <time>2020-05-31T17:27:28Z</time>
      </trkpt>
      <trkpt lat="46.15819" lon="-1.15116">
        <ele>4.6</ele>
        <time>2020-05-31T17:27:29Z</time>
      </trkpt>
      <trkpt lat="46.1582" lon="-1.1512">
        <ele>4.6</ele>
        <time>2020-05-31T17:27:30Z</time>
      </trkpt>
      <trkpt lat="46.15821" lon="-1.15125">
        <ele>4.6</ele>
        <time>2020-05-31T17:27:31Z</time>
      </trkpt>
      <trkpt lat="46.15821" lon="-1.1513">
        <ele>4.6</ele>
        <time>2020-05-31T17:27:32Z</time>
      </trkpt>
      <trkpt lat="46.15821" lon="-1.15134">
        <ele>4.6</ele>
        <time>2020-05-31T17:27:33Z</time>
      </trkpt>
      <trkpt lat="46.15821" lon="-1.15139">
        <ele>4.6</ele>
        <time>2020-05-31T17:27:34Z</time>
      </trkpt>
      <trkpt lat="46.1582" lon="-1.15143">
        <ele>4.6</ele>
        <time>2020-05-31T17:27:35Z</time>
      </trkpt>
      <trkpt lat="46.1582" lon="-1.15148">
        <ele>4.6</ele>
        <time>2020-05-31T17:27:36Z</time>
      </trkpt>
      <trkpt lat="46.15821" lon="-1.15153">
        <ele>4.6</ele>
        <time>2020-05-31T17:27:37Z</time>
      </trkpt>
      <trkpt lat="46.15822" lon="-1.15159">
        <ele>4.6</ele>
        <time>2020-05-31T17:27:38Z</time>
      </trkpt>
      <trkpt lat="46.15822" lon="-1.15162">
        <ele>4.6</ele>
        <time>2020-05-31T17:27:39Z</time>
      </trkpt>
      <trkpt lat="46.15822" lon="-1.15168">
        <ele>4.6</ele>
        <time>2020-05-31T17:27:40Z</time>
      </trkpt>
      <trkpt lat="46.15822" lon="-1.15171">
        <ele>4.6</ele>
        <time>2020-05-31T17:27:41Z</time>
      </trkpt>
      <trkpt lat="46.15822" lon="-1.15176">
        <ele>4.6</ele>
        <time>2020-05-31T17:27:42Z</time>
      </trkpt>
      <trkpt lat="46.15823" lon="-1.1518">
        <ele>4.6</ele>
        <time>2020-05-31T17:27:43Z</time>
      </trkpt>
      <trkpt lat="46.15823" lon="-1.15186">
        <ele>4.6</ele>
        <time>2020-05-31T17:27:44Z</time>
      </trkpt>
      <trkpt lat="46.15823" lon="-1.15188">
        <ele>4.6</ele>
        <time>2020-05-31T17:27:45Z</time>
      </trkpt>
      <trkpt lat="46.15822" lon="-1.15192">
        <ele>4.6</ele>
        <time>2020-05-31T17:27:46Z</time>
      </trkpt>
      <trkpt lat="46.15822" lon="-1.15197">
        <ele>4.6</ele>
        <time>2020-05-31T17:27:47Z</time>
      </trkpt>
      <trkpt lat="46.15822" lon="-1.15199">
        <ele>4.6</ele>
        <time>2020-05-31T17:27:48Z</time>
      </trkpt>
      <trkpt lat="46.15823" lon="-1.15204">
        <ele>4.6</ele>
        <time>2020-05-31T17:27:49Z</time>
      </trkpt>
      <trkpt lat="46.15823" lon="-1.15206">
        <ele>4.6</ele>
        <time>2020-05-31T17:27:50Z</time>
      </trkpt>
      <trkpt lat="46.15822" lon="-1.15212">
        <ele>4.6</ele>
        <time>2020-05-31T17:27:51Z</time>
      </trkpt>
      <trkpt lat="46.15822" lon="-1.15213">
        <ele>4.6</ele>
        <time>2020-05-31T17:27:52Z</time>
      </trkpt>
      <trkpt lat="46.15821" lon="-1.15217">
        <ele>4.6</ele>
        <time>2020-05-31T17:27:53Z</time>
      </trkpt>
      <trkpt lat="46.15821" lon="-1.15221">
        <ele>4.6</ele>
        <time>2020-05-31T17:27:54Z</time>
      </trkpt>
      <trkpt lat="46.15821" lon="-1.15226">
        <ele>4.6</ele>
        <time>2020-05-31T17:27:55Z</time>
      </trkpt>
      <trkpt lat="46.15821" lon="-1.15231">
        <ele>4.6</ele>
        <time>2020-05-31T17:27:56Z</time>
      </trkpt>
      <trkpt lat="46.15821" lon="-1.15236">
        <ele>4.7</ele>
        <time>2020-05-31T17:27:57Z</time>
      </trkpt>
      <trkpt lat="46.1582" lon="-1.15238">
        <ele>4.7</ele>
        <time>2020-05-31T17:27:58Z</time>
      </trkpt>
      <trkpt lat="46.15819" lon="-1.1524">
        <ele>4.7</ele>
        <time>2020-05-31T17:27:59Z</time>
      </trkpt>
      <trkpt lat="46.15819" lon="-1.15245">
        <ele>4.7</ele>
        <time>2020-05-31T17:28:00Z</time>
      </trkpt>
      <trkpt lat="46.15818" lon="-1.15247">
        <ele>4.7</ele>
        <time>2020-05-31T17:28:01Z</time>
      </trkpt>
      <trkpt lat="46.15818" lon="-1.15252">
        <ele>4.7</ele>
        <time>2020-05-31T17:28:02Z</time>
      </trkpt>
      <trkpt lat="46.15819" lon="-1.15254">
        <ele>4.7</ele>
        <time>2020-05-31T17:28:03Z</time>
      </trkpt>
      <trkpt lat="46.15818" lon="-1.15259">
        <ele>4.8</ele>
        <time>2020-05-31T17:28:04Z</time>
      </trkpt>
      <trkpt lat="46.15817" lon="-1.15261">
        <ele>4.8</ele>
        <time>2020-05-31T17:28:05Z</time>
      </trkpt>
      <trkpt lat="46.15817" lon="-1.15267">
        <ele>4.8</ele>
        <time>2020-05-31T17:28:06Z</time>
      </trkpt>
      <trkpt lat="46.15818" lon="-1.15269">
        <ele>4.8</ele>
        <time>2020-05-31T17:28:07Z</time>
      </trkpt>
      <trkpt lat="46.15817" lon="-1.15273">
        <ele>4.8</ele>
        <time>2020-05-31T17:28:08Z</time>
      </trkpt>
      <trkpt lat="46.15818" lon="-1.15277">
        <ele>4.9</ele>
        <time>2020-05-31T17:28:09Z</time>
      </trkpt>
      <trkpt lat="46.15818" lon="-1.15284">
        <ele>4.8</ele>
        <time>2020-05-31T17:28:10Z</time>
      </trkpt>
      <trkpt lat="46.15818" lon="-1.15289">
        <ele>4.8</ele>
        <time>2020-05-31T17:28:11Z</time>
      </trkpt>
      <trkpt lat="46.15817" lon="-1.15294">
        <ele>4.8</ele>
        <time>2020-05-31T17:28:12Z</time>
      </trkpt>
      <trkpt lat="46.15817" lon="-1.15299">
        <ele>4.8</ele>
        <time>2020-05-31T17:28:13Z</time>
      </trkpt>
      <trkpt lat="46.15817" lon="-1.153">
        <ele>4.8</ele>
        <time>2020-05-31T17:28:14Z</time>
      </trkpt>
      <trkpt lat="46.15818" lon="-1.15305">
        <ele>4.8</ele>
        <time>2020-05-31T17:28:15Z</time>
      </trkpt>
      <trkpt lat="46.15819" lon="-1.15306">
        <ele>4.8</ele>
        <time>2020-05-31T17:28:16Z</time>
      </trkpt>
      <trkpt lat="46.15818" lon="-1.1531">
        <ele>4.8</ele>
        <time>2020-05-31T17:28:17Z</time>
      </trkpt>
      <trkpt lat="46.1582" lon="-1.1531">
        <ele>4.8</ele>
        <time>2020-05-31T17:28:18Z</time>
      </trkpt>
      <trkpt lat="46.1582" lon="-1.1531">
        <ele>4.8</ele>
        <time>2020-05-31T17:28:19Z</time>
      </trkpt>
      <trkpt lat="46.1582" lon="-1.15312">
        <ele>4.6</ele>
        <time>2020-05-31T17:28:20Z</time>
      </trkpt>
      <trkpt lat="46.1582" lon="-1.15313">
        <ele>4.6</ele>
        <time>2020-05-31T17:28:21Z</time>
      </trkpt>
      <trkpt lat="46.1582" lon="-1.15313">
        <ele>4.6</ele>
        <time>2020-05-31T17:28:22Z</time>
      </trkpt>
      <trkpt lat="46.1582" lon="-1.15314">
        <ele>4.6</ele>
        <time>2020-05-31T17:28:23Z</time>
      </trkpt>
      <trkpt lat="46.15819" lon="-1.15314">
        <ele>4.6</ele>
        <time>2020-05-31T17:28:24Z</time>
      </trkpt>
      <trkpt lat="46.15819" lon="-1.15314">
        <ele>4.6</ele>
        <time>2020-05-31T17:28:25Z</time>
      </trkpt>
      <trkpt lat="46.1582" lon="-1.15313">
        <ele>4.6</ele>
        <time>2020-05-31T17:28:26Z</time>
      </trkpt>
      <trkpt lat="46.1582" lon="-1.15313">
        <ele>4.6</ele>
        <time>2020-05-31T17:28:27Z</time>
      </trkpt>
      <trkpt lat="46.1582" lon="-1.15314">
        <ele>4.6</ele>
        <time>2020-05-31T17:28:28Z</time>
      </trkpt>
      <trkpt lat="46.1582" lon="-1.15314">
        <ele>4.6</ele>
        <time>2020-05-31T17:28:29Z</time>
      </trkpt>
      <trkpt lat="46.1582" lon="-1.15314">
        <ele>4.6</ele>
        <time>2020-05-31T17:28:30Z</time>
      </trkpt>
      <trkpt lat="46.1582" lon="-1.15313">
        <ele>4.6</ele>
        <time>2020-05-31T17:28:31Z</time>
      </trkpt>
      <trkpt lat="46.15819" lon="-1.15313">
        <ele>4.6</ele>
        <time>2020-05-31T17:28:32Z</time>
      </trkpt>
      <trkpt lat="46.15819" lon="-1.15313">
        <ele>4.6</ele>
        <time>2020-05-31T17:28:33Z</time>
      </trkpt>
      <trkpt lat="46.15819" lon="-1.15313">
        <ele>4.6</ele>
        <time>2020-05-31T17:28:34Z</time>
      </trkpt>
      <trkpt lat="46.15819" lon="-1.15313">
        <ele>4.6</ele>
        <time>2020-05-31T17:28:35Z</time>
      </trkpt>
      <trkpt lat="46.15818" lon="-1.15313">
        <ele>4.6</ele>
        <time>2020-05-31T17:28:36Z</time>
      </trkpt>
      <trkpt lat="46.15819" lon="-1.15313">
        <ele>4.6</ele>
        <time>2020-05-31T17:28:37Z</time>
      </trkpt>
      <trkpt lat="46.15819" lon="-1.15312">
        <ele>4.6</ele>
        <time>2020-05-31T17:28:38Z</time>
      </trkpt>
      <trkpt lat="46.15819" lon="-1.15312">
        <ele>4.6</ele>
        <time>2020-05-31T17:28:39Z</time>
      </trkpt>
      <trkpt lat="46.15819" lon="-1.15312">
        <ele>4.6</ele>
        <time>2020-05-31T17:28:40Z</time>
      </trkpt>
      <trkpt lat="46.15819" lon="-1.15312">
        <ele>4.6</ele>
        <time>2020-05-31T17:28:41Z</time>
      </trkpt>
      <trkpt lat="46.15819" lon="-1.15312">
        <ele>4.6</ele>
        <time>2020-05-31T17:28:42Z</time>
      </trkpt>
      <trkpt lat="46.15819" lon="-1.15312">
        <ele>4.6</ele>
        <time>2020-05-31T17:28:43Z</time>
      </trkpt>
      <trkpt lat="46.15819" lon="-1.15313">
        <ele>4.6</ele>
        <time>2020-05-31T17:28:44Z</time>
      </trkpt>
      <trkpt lat="46.15818" lon="-1.15314">
        <ele>4.5</ele>
        <time>2020-05-31T17:28:45Z</time>
      </trkpt>
      <trkpt lat="46.15819" lon="-1.15316">
        <ele>4.5</ele>
        <time>2020-05-31T17:28:46Z</time>
      </trkpt>
      <trkpt lat="46.15818" lon="-1.15316">
        <ele>4.5</ele>
        <time>2020-05-31T17:28:47Z</time>
      </trkpt>
      <trkpt lat="46.15818" lon="-1.15316">
        <ele>4.5</ele>
        <time>2020-05-31T17:28:48Z</time>
      </trkpt>
      <trkpt lat="46.15818" lon="-1.15317">
        <ele>4.5</ele>
        <time>2020-05-31T17:28:49Z</time>
      </trkpt>
      <trkpt lat="46.15818" lon="-1.15317">
        <ele>4.5</ele>
        <time>2020-05-31T17:28:50Z</time>
      </trkpt>
      <trkpt lat="46.15818" lon="-1.15315">
        <ele>4.5</ele>
        <time>2020-05-31T17:28:51Z</time>
      </trkpt>
      <trkpt lat="46.15818" lon="-1.15316">
        <ele>4.5</ele>
        <time>2020-05-31T17:28:52Z</time>
      </trkpt>
      <trkpt lat="46.15817" lon="-1.15315">
        <ele>4.5</ele>
        <time>2020-05-31T17:28:53Z</time>
      </trkpt>
      <trkpt lat="46.15816" lon="-1.15315">
        <ele>4.5</ele>
        <time>2020-05-31T17:28:54Z</time>
      </trkpt>
      <trkpt lat="46.15815" lon="-1.15314">
        <ele>4.5</ele>
        <time>2020-05-31T17:28:55Z</time>
      </trkpt>
      <trkpt lat="46.15815" lon="-1.15315">
        <ele>4.5</ele>
        <time>2020-05-31T17:28:56Z</time>
      </trkpt>
      <trkpt lat="46.15815" lon="-1.15315">
        <ele>4.5</ele>
        <time>2020-05-31T17:28:57Z</time>
      </trkpt>
      <trkpt lat="46.15815" lon="-1.15315">
        <ele>4.5</ele>
        <time>2020-05-31T17:28:58Z</time>
      </trkpt>
      <trkpt lat="46.15815" lon="-1.15315">
        <ele>4.5</ele>
        <time>2020-05-31T17:28:59Z</time>
      </trkpt>
      <trkpt lat="46.15816" lon="-1.15315">
        <ele>4.5</ele>
        <time>2020-05-31T17:29:00Z</time>
      </trkpt>
      <trkpt lat="46.15815" lon="-1.15315">
        <ele>4.5</ele>
        <time>2020-05-31T17:29:01Z</time>
      </trkpt>
      <trkpt lat="46.15815" lon="-1.15315">
        <ele>4.5</ele>
        <time>2020-05-31T17:29:02Z</time>
      </trkpt>
      <trkpt lat="46.15815" lon="-1.15315">
        <ele>4.5</ele>
        <time>2020-05-31T17:29:03Z</time>
      </trkpt>
      <trkpt lat="46.15815" lon="-1.15315">
        <ele>4.5</ele>
        <time>2020-05-31T17:29:04Z</time>
      </trkpt>
      <trkpt lat="46.15816" lon="-1.15315">
        <ele>4.5</ele>
        <time>2020-05-31T17:29:05Z</time>
      </trkpt>
      <trkpt lat="46.15815" lon="-1.15315">
        <ele>4.5</ele>
        <time>2020-05-31T17:29:06Z</time>
      </trkpt>
      <trkpt lat="46.15815" lon="-1.15315">
        <ele>4.5</ele>
        <time>2020-05-31T17:29:07Z</time>
      </trkpt>
      <trkpt lat="46.15815" lon="-1.15316">
        <ele>4.5</ele>
        <time>2020-05-31T17:29:08Z</time>
      </trkpt>
      <trkpt lat="46.15815" lon="-1.15315">
        <ele>4.5</ele>
        <time>2020-05-31T17:29:09Z</time>
      </trkpt>
      <trkpt lat="46.15814" lon="-1.15314">
        <ele>4.5</ele>
        <time>2020-05-31T17:29:10Z</time>
      </trkpt>
      <trkpt lat="46.15814" lon="-1.15314">
        <ele>4.5</ele>
        <time>2020-05-31T17:29:11Z</time>
      </trkpt>
      <trkpt lat="46.15813" lon="-1.15313">
        <ele>4.5</ele>
        <time>2020-05-31T17:29:12Z</time>
      </trkpt>
      <trkpt lat="46.15813" lon="-1.15312">
        <ele>4.5</ele>
        <time>2020-05-31T17:29:13Z</time>
      </trkpt>
      <trkpt lat="46.15813" lon="-1.15312">
        <ele>4.5</ele>
        <time>2020-05-31T17:29:14Z</time>
      </trkpt>
      <trkpt lat="46.15814" lon="-1.15312">
        <ele>4.5</ele>
        <time>2020-05-31T17:29:15Z</time>
      </trkpt>
      <trkpt lat="46.15814" lon="-1.15312">
        <ele>4.5</ele>
        <time>2020-05-31T17:29:16Z</time>
      </trkpt>
      <trkpt lat="46.15813" lon="-1.15312">
        <ele>4.5</ele>
        <time>2020-05-31T17:29:17Z</time>
      </trkpt>
      <trkpt lat="46.15814" lon="-1.15312">
        <ele>4.5</ele>
        <time>2020-05-31T17:29:18Z</time>
      </trkpt>
      <trkpt lat="46.15814" lon="-1.15312">
        <ele>4.5</ele>
        <time>2020-05-31T17:29:19Z</time>
      </trkpt>
      <trkpt lat="46.15814" lon="-1.15312">
        <ele>4.5</ele>
        <time>2020-05-31T17:29:20Z</time>
      </trkpt>
      <trkpt lat="46.15814" lon="-1.15312">
        <ele>4.4</ele>
        <time>2020-05-31T17:29:21Z</time>
      </trkpt>
      <trkpt lat="46.15814" lon="-1.15312">
        <ele>4.4</ele>
        <time>2020-05-31T17:29:22Z</time>
      </trkpt>
      <trkpt lat="46.15789" lon="-1.15297">
        <ele>4.3</ele>
        <time>2020-05-31T17:29:49Z</time>
      </trkpt>
      <trkpt lat="46.15806" lon="-1.15252">
        <ele>4.3</ele>
        <time>2020-05-31T17:29:53Z</time>
      </trkpt>
      <trkpt lat="46.15777" lon="-1.15283">
        <ele>4.3</ele>
        <time>2020-05-31T17:29:55Z</time>
      </trkpt>
      <trkpt lat="46.15786" lon="-1.15309">
        <ele>4.3</ele>
        <time>2020-05-31T17:29:56Z</time>
      </trkpt>
      <trkpt lat="46.15787" lon="-1.15309">
        <ele>4.3</ele>
        <time>2020-05-31T17:29:57Z</time>
      </trkpt>
      <trkpt lat="46.15804" lon="-1.15329">
        <ele>4.7</ele>
        <time>2020-05-31T17:29:58Z</time>
      </trkpt>
      <trkpt lat="46.1581" lon="-1.15332">
        <ele>4.7</ele>
        <time>2020-05-31T17:29:59Z</time>
      </trkpt>
      <trkpt lat="46.1581" lon="-1.1533">
        <ele>4.7</ele>
        <time>2020-05-31T17:30:00Z</time>
      </trkpt>
      <trkpt lat="46.15811" lon="-1.15327">
        <ele>4.7</ele>
        <time>2020-05-31T17:30:01Z</time>
      </trkpt>
      <trkpt lat="46.15802" lon="-1.15314">
        <ele>4.7</ele>
        <time>2020-05-31T17:30:02Z</time>
      </trkpt>
      <trkpt lat="46.15802" lon="-1.15319">
        <ele>4.7</ele>
        <time>2020-05-31T17:30:03Z</time>
      </trkpt>
      <trkpt lat="46.15804" lon="-1.15323">
        <ele>4.7</ele>
        <time>2020-05-31T17:30:04Z</time>
      </trkpt>
      <trkpt lat="46.15805" lon="-1.15324">
        <ele>4.7</ele>
        <time>2020-05-31T17:30:05Z</time>
      </trkpt>
      <trkpt lat="46.15806" lon="-1.15322">
        <ele>4.7</ele>
        <time>2020-05-31T17:30:06Z</time>
      </trkpt>
      <trkpt lat="46.15804" lon="-1.15323">
        <ele>4.7</ele>
        <time>2020-05-31T17:30:07Z</time>
      </trkpt>
      <trkpt lat="46.15805" lon="-1.15322">
        <ele>4.7</ele>
        <time>2020-05-31T17:30:08Z</time>
      </trkpt>
      <trkpt lat="46.15806" lon="-1.15319">
        <ele>4.7</ele>
        <time>2020-05-31T17:30:12Z</time>
      </trkpt>
      <trkpt lat="46.15805" lon="-1.15317">
        <ele>4.7</ele>
        <time>2020-05-31T17:30:13Z</time>
      </trkpt>
      <trkpt lat="46.15807" lon="-1.15319">
        <ele>4.7</ele>
        <time>2020-05-31T17:30:14Z</time>
      </trkpt>
      <trkpt lat="46.15808" lon="-1.15317">
        <ele>4.7</ele>
        <time>2020-05-31T17:30:15Z</time>
      </trkpt>
      <trkpt lat="46.15809" lon="-1.15316">
        <ele>4.7</ele>
        <time>2020-05-31T17:30:16Z</time>
      </trkpt>
      <trkpt lat="46.1581" lon="-1.15316">
        <ele>4.7</ele>
        <time>2020-05-31T17:30:17Z</time>
      </trkpt>
      <trkpt lat="46.1581" lon="-1.15317">
        <ele>4.7</ele>
        <time>2020-05-31T17:30:18Z</time>
      </trkpt>
      <trkpt lat="46.1581" lon="-1.15317">
        <ele>4.7</ele>
        <time>2020-05-31T17:30:19Z</time>
      </trkpt>
      <trkpt lat="46.1581" lon="-1.15318">
        <ele>4.7</ele>
        <time>2020-05-31T17:30:20Z</time>
      </trkpt>
      <trkpt lat="46.15811" lon="-1.15317">
        <ele>4.7</ele>
        <time>2020-05-31T17:30:21Z</time>
      </trkpt>
      <trkpt lat="46.15811" lon="-1.15317">
        <ele>4.7</ele>
        <time>2020-05-31T17:30:22Z</time>
      </trkpt>
      <trkpt lat="46.15811" lon="-1.15316">
        <ele>4.7</ele>
        <time>2020-05-31T17:30:23Z</time>
      </trkpt>
      <trkpt lat="46.15812" lon="-1.15316">
        <ele>4.7</ele>
        <time>2020-05-31T17:30:24Z</time>
      </trkpt>
      <trkpt lat="46.15811" lon="-1.15317">
        <ele>4.7</ele>
        <time>2020-05-31T17:30:25Z</time>
      </trkpt>
      <trkpt lat="46.1581" lon="-1.15313">
        <ele>4.7</ele>
        <time>2020-05-31T17:30:26Z</time>
      </trkpt>
      <trkpt lat="46.15811" lon="-1.15312">
        <ele>4.7</ele>
        <time>2020-05-31T17:30:27Z</time>
      </trkpt>
      <trkpt lat="46.15811" lon="-1.15312">
        <ele>4.7</ele>
        <time>2020-05-31T17:30:28Z</time>
      </trkpt>
      <trkpt lat="46.15811" lon="-1.15311">
        <ele>4.7</ele>
        <time>2020-05-31T17:30:29Z</time>
      </trkpt>
      <trkpt lat="46.15811" lon="-1.15311">
        <ele>4.7</ele>
        <time>2020-05-31T17:30:30Z</time>
      </trkpt>
      <trkpt lat="46.15811" lon="-1.15312">
        <ele>4.7</ele>
        <time>2020-05-31T17:30:31Z</time>
      </trkpt>
      <trkpt lat="46.15811" lon="-1.15314">
        <ele>4.7</ele>
        <time>2020-05-31T17:30:32Z</time>
      </trkpt>
      <trkpt lat="46.1581" lon="-1.15316">
        <ele>4.7</ele>
        <time>2020-05-31T17:30:33Z</time>
      </trkpt>
      <trkpt lat="46.1581" lon="-1.15319">
        <ele>4.7</ele>
        <time>2020-05-31T17:30:34Z</time>
      </trkpt>
      <trkpt lat="46.15811" lon="-1.15321">
        <ele>4.7</ele>
        <time>2020-05-31T17:30:35Z</time>
      </trkpt>
      <trkpt lat="46.15811" lon="-1.15325">
        <ele>4.7</ele>
        <time>2020-05-31T17:30:36Z</time>
      </trkpt>
      <trkpt lat="46.15811" lon="-1.15329">
        <ele>4.7</ele>
        <time>2020-05-31T17:30:37Z</time>
      </trkpt>
      <trkpt lat="46.15812" lon="-1.15333">
        <ele>4.7</ele>
        <time>2020-05-31T17:30:38Z</time>
      </trkpt>
      <trkpt lat="46.15812" lon="-1.15338">
        <ele>4.7</ele>
        <time>2020-05-31T17:30:39Z</time>
      </trkpt>
      <trkpt lat="46.15812" lon="-1.15342">
        <ele>4.7</ele>
        <time>2020-05-31T17:30:40Z</time>
      </trkpt>
      <trkpt lat="46.15812" lon="-1.15347">
        <ele>4.7</ele>
        <time>2020-05-31T17:30:41Z</time>
      </trkpt>
      <trkpt lat="46.15813" lon="-1.15351">
        <ele>4.7</ele>
        <time>2020-05-31T17:30:42Z</time>
      </trkpt>
      <trkpt lat="46.15813" lon="-1.15356">
        <ele>4.8</ele>
        <time>2020-05-31T17:30:43Z</time>
      </trkpt>
      <trkpt lat="46.15812" lon="-1.15361">
        <ele>4.8</ele>
        <time>2020-05-31T17:30:44Z</time>
      </trkpt>
      <trkpt lat="46.15811" lon="-1.15367">
        <ele>4.8</ele>
        <time>2020-05-31T17:30:45Z</time>
      </trkpt>
      <trkpt lat="46.1581" lon="-1.15371">
        <ele>4.8</ele>
        <time>2020-05-31T17:30:46Z</time>
      </trkpt>
      <trkpt lat="46.15809" lon="-1.15376">
        <ele>4.8</ele>
        <time>2020-05-31T17:30:47Z</time>
      </trkpt>
      <trkpt lat="46.15807" lon="-1.15381">
        <ele>4.8</ele>
        <time>2020-05-31T17:30:48Z</time>
      </trkpt>
      <trkpt lat="46.15806" lon="-1.15386">
        <ele>4.9</ele>
        <time>2020-05-31T17:30:49Z</time>
      </trkpt>
      <trkpt lat="46.15803" lon="-1.15393">
        <ele>4.9</ele>
        <time>2020-05-31T17:30:50Z</time>
      </trkpt>
      <trkpt lat="46.15801" lon="-1.15399">
        <ele>4.9</ele>
        <time>2020-05-31T17:30:51Z</time>
      </trkpt>
      <trkpt lat="46.15799" lon="-1.15405">
        <ele>4.9</ele>
        <time>2020-05-31T17:30:52Z</time>
      </trkpt>
      <trkpt lat="46.15796" lon="-1.15412">
        <ele>4.9</ele>
        <time>2020-05-31T17:30:53Z</time>
      </trkpt>
      <trkpt lat="46.15794" lon="-1.1542">
        <ele>5</ele>
        <time>2020-05-31T17:30:54Z</time>
      </trkpt>
      <trkpt lat="46.15794" lon="-1.15426">
        <ele>5</ele>
        <time>2020-05-31T17:30:55Z</time>
      </trkpt>
      <trkpt lat="46.15794" lon="-1.15434">
        <ele>5</ele>
        <time>2020-05-31T17:30:56Z</time>
      </trkpt>
      <trkpt lat="46.15792" lon="-1.15441">
        <ele>5.1</ele>
        <time>2020-05-31T17:30:57Z</time>
      </trkpt>
      <trkpt lat="46.1579" lon="-1.15451">
        <ele>5.1</ele>
        <time>2020-05-31T17:30:58Z</time>
      </trkpt>
      <trkpt lat="46.15788" lon="-1.15459">
        <ele>5.1</ele>
        <time>2020-05-31T17:30:59Z</time>
      </trkpt>
      <trkpt lat="46.15788" lon="-1.15468">
        <ele>5.1</ele>
        <time>2020-05-31T17:31:00Z</time>
      </trkpt>
      <trkpt lat="46.15788" lon="-1.15474">
        <ele>5.1</ele>
        <time>2020-05-31T17:31:01Z</time>
      </trkpt>
      <trkpt lat="46.15788" lon="-1.15482">
        <ele>5.1</ele>
        <time>2020-05-31T17:31:02Z</time>
      </trkpt>
      <trkpt lat="46.1579" lon="-1.1549">
        <ele>5.2</ele>
        <time>2020-05-31T17:31:03Z</time>
      </trkpt>
      <trkpt lat="46.15791" lon="-1.15497">
        <ele>5.2</ele>
        <time>2020-05-31T17:31:04Z</time>
      </trkpt>
      <trkpt lat="46.15792" lon="-1.15502">
        <ele>5.2</ele>
        <time>2020-05-31T17:31:05Z</time>
      </trkpt>
      <trkpt lat="46.15794" lon="-1.15507">
        <ele>5.2</ele>
        <time>2020-05-31T17:31:06Z</time>
      </trkpt>
      <trkpt lat="46.15796" lon="-1.15511">
        <ele>5.3</ele>
        <time>2020-05-31T17:31:07Z</time>
      </trkpt>
      <trkpt lat="46.15797" lon="-1.15517">
        <ele>5.3</ele>
        <time>2020-05-31T17:31:08Z</time>
      </trkpt>
      <trkpt lat="46.15798" lon="-1.15523">
        <ele>5.3</ele>
        <time>2020-05-31T17:31:09Z</time>
      </trkpt>
      <trkpt lat="46.15801" lon="-1.15529">
        <ele>5.4</ele>
        <time>2020-05-31T17:31:10Z</time>
      </trkpt>
      <trkpt lat="46.15803" lon="-1.15533">
        <ele>5.4</ele>
        <time>2020-05-31T17:31:11Z</time>
      </trkpt>
      <trkpt lat="46.15805" lon="-1.15537">
        <ele>5.4</ele>
        <time>2020-05-31T17:31:12Z</time>
      </trkpt>
      <trkpt lat="46.15807" lon="-1.15542">
        <ele>5.5</ele>
        <time>2020-05-31T17:31:13Z</time>
      </trkpt>
      <trkpt lat="46.15808" lon="-1.15548">
        <ele>5.5</ele>
        <time>2020-05-31T17:31:14Z</time>
      </trkpt>
      <trkpt lat="46.15809" lon="-1.15553">
        <ele>5.6</ele>
        <time>2020-05-31T17:31:15Z</time>
      </trkpt>
      <trkpt lat="46.1581" lon="-1.1556">
        <ele>5.6</ele>
        <time>2020-05-31T17:31:16Z</time>
      </trkpt>
      <trkpt lat="46.15812" lon="-1.15566">
        <ele>5.7</ele>
        <time>2020-05-31T17:31:17Z</time>
      </trkpt>
      <trkpt lat="46.15813" lon="-1.15573">
        <ele>5.7</ele>
        <time>2020-05-31T17:31:18Z</time>
      </trkpt>
      <trkpt lat="46.15815" lon="-1.15581">
        <ele>5.8</ele>
        <time>2020-05-31T17:31:19Z</time>
      </trkpt>
      <trkpt lat="46.15815" lon="-1.15591">
        <ele>5.8</ele>
        <time>2020-05-31T17:31:20Z</time>
      </trkpt>
      <trkpt lat="46.15816" lon="-1.15598">
        <ele>5.9</ele>
        <time>2020-05-31T17:31:21Z</time>
      </trkpt>
      <trkpt lat="46.15817" lon="-1.15606">
        <ele>5.9</ele>
        <time>2020-05-31T17:31:22Z</time>
      </trkpt>
      <trkpt lat="46.15819" lon="-1.15615">
        <ele>5.9</ele>
        <time>2020-05-31T17:31:23Z</time>
      </trkpt>
      <trkpt lat="46.1582" lon="-1.15623">
        <ele>6</ele>
        <time>2020-05-31T17:31:24Z</time>
      </trkpt>
      <trkpt lat="46.15822" lon="-1.1563">
        <ele>6</ele>
        <time>2020-05-31T17:31:25Z</time>
      </trkpt>
      <trkpt lat="46.15823" lon="-1.15636">
        <ele>6.1</ele>
        <time>2020-05-31T17:31:26Z</time>
      </trkpt>
      <trkpt lat="46.15825" lon="-1.15643">
        <ele>6.1</ele>
        <time>2020-05-31T17:31:27Z</time>
      </trkpt>
      <trkpt lat="46.15825" lon="-1.1565">
        <ele>6.1</ele>
        <time>2020-05-31T17:31:28Z</time>
      </trkpt>
      <trkpt lat="46.15827" lon="-1.15658">
        <ele>6.2</ele>
        <time>2020-05-31T17:31:29Z</time>
      </trkpt>
      <trkpt lat="46.15828" lon="-1.15666">
        <ele>6.1</ele>
        <time>2020-05-31T17:31:30Z</time>
      </trkpt>
      <trkpt lat="46.1583" lon="-1.15674">
        <ele>6.1</ele>
        <time>2020-05-31T17:31:31Z</time>
      </trkpt>
      <trkpt lat="46.15832" lon="-1.15682">
        <ele>6</ele>
        <time>2020-05-31T17:31:32Z</time>
      </trkpt>
      <trkpt lat="46.15834" lon="-1.15691">
        <ele>5.9</ele>
        <time>2020-05-31T17:31:33Z</time>
      </trkpt>
      <trkpt lat="46.15835" lon="-1.15701">
        <ele>5.9</ele>
        <time>2020-05-31T17:31:34Z</time>
      </trkpt>
      <trkpt lat="46.15836" lon="-1.1571">
        <ele>5.8</ele>
        <time>2020-05-31T17:31:35Z</time>
      </trkpt>
      <trkpt lat="46.15838" lon="-1.15721">
        <ele>5.7</ele>
        <time>2020-05-31T17:31:36Z</time>
      </trkpt>
      <trkpt lat="46.1584" lon="-1.15731">
        <ele>5.6</ele>
        <time>2020-05-31T17:31:37Z</time>
      </trkpt>
      <trkpt lat="46.1584" lon="-1.15741">
        <ele>5.5</ele>
        <time>2020-05-31T17:31:38Z</time>
      </trkpt>
      <trkpt lat="46.15842" lon="-1.15751">
        <ele>5.4</ele>
        <time>2020-05-31T17:31:39Z</time>
      </trkpt>
      <trkpt lat="46.15844" lon="-1.1576">
        <ele>5.3</ele>
        <time>2020-05-31T17:31:40Z</time>
      </trkpt>
      <trkpt lat="46.15846" lon="-1.15768">
        <ele>5.3</ele>
        <time>2020-05-31T17:31:41Z</time>
      </trkpt>
      <trkpt lat="46.15848" lon="-1.15777">
        <ele>5.3</ele>
        <time>2020-05-31T17:31:42Z</time>
      </trkpt>
      <trkpt lat="46.15849" lon="-1.15784">
        <ele>5.2</ele>
        <time>2020-05-31T17:31:43Z</time>
      </trkpt>
      <trkpt lat="46.1585" lon="-1.15792">
        <ele>5.2</ele>
        <time>2020-05-31T17:31:44Z</time>
      </trkpt>
      <trkpt lat="46.15852" lon="-1.158">
        <ele>5.2</ele>
        <time>2020-05-31T17:31:45Z</time>
      </trkpt>
      <trkpt lat="46.15854" lon="-1.15807">
        <ele>5.2</ele>
        <time>2020-05-31T17:31:46Z</time>
      </trkpt>
      <trkpt lat="46.15857" lon="-1.15815">
        <ele>5.2</ele>
        <time>2020-05-31T17:31:47Z</time>
      </trkpt>
      <trkpt lat="46.15859" lon="-1.15823">
        <ele>5.2</ele>
        <time>2020-05-31T17:31:48Z</time>
      </trkpt>
      <trkpt lat="46.1586" lon="-1.15833">
        <ele>5.1</ele>
        <time>2020-05-31T17:31:49Z</time>
      </trkpt>
      <trkpt lat="46.15861" lon="-1.15841">
        <ele>5.1</ele>
        <time>2020-05-31T17:31:50Z</time>
      </trkpt>
      <trkpt lat="46.15863" lon="-1.15849">
        <ele>5.1</ele>
        <time>2020-05-31T17:31:51Z</time>
      </trkpt>
      <trkpt lat="46.15865" lon="-1.15858">
        <ele>5</ele>
        <time>2020-05-31T17:31:52Z</time>
      </trkpt>
      <trkpt lat="46.15868" lon="-1.15869">
        <ele>5</ele>
        <time>2020-05-31T17:31:53Z</time>
      </trkpt>
      <trkpt lat="46.1587" lon="-1.15879">
        <ele>4.9</ele>
        <time>2020-05-31T17:31:54Z</time>
      </trkpt>
      <trkpt lat="46.15871" lon="-1.15888">
        <ele>4.7</ele>
        <time>2020-05-31T17:31:55Z</time>
      </trkpt>
      <trkpt lat="46.15871" lon="-1.15896">
        <ele>4.6</ele>
        <time>2020-05-31T17:31:56Z</time>
      </trkpt>
      <trkpt lat="46.15872" lon="-1.15903">
        <ele>4.6</ele>
        <time>2020-05-31T17:31:57Z</time>
      </trkpt>
      <trkpt lat="46.15873" lon="-1.15913">
        <ele>4.3</ele>
        <time>2020-05-31T17:31:58Z</time>
      </trkpt>
      <trkpt lat="46.15874" lon="-1.1592">
        <ele>4.1</ele>
        <time>2020-05-31T17:31:59Z</time>
      </trkpt>
      <trkpt lat="46.15874" lon="-1.15924">
        <ele>3.9</ele>
        <time>2020-05-31T17:32:00Z</time>
      </trkpt>
      <trkpt lat="46.15874" lon="-1.1593">
        <ele>3.8</ele>
        <time>2020-05-31T17:32:01Z</time>
      </trkpt>
      <trkpt lat="46.15874" lon="-1.15931">
        <ele>3.7</ele>
        <time>2020-05-31T17:32:02Z</time>
      </trkpt>
      <trkpt lat="46.15875" lon="-1.15933">
        <ele>3.7</ele>
        <time>2020-05-31T17:32:03Z</time>
      </trkpt>
      <trkpt lat="46.15875" lon="-1.15934">
        <ele>3.7</ele>
        <time>2020-05-31T17:32:04Z</time>
      </trkpt>
      <trkpt lat="46.15875" lon="-1.15934">
        <ele>3.7</ele>
        <time>2020-05-31T17:32:05Z</time>
      </trkpt>
      <trkpt lat="46.15875" lon="-1.15935">
        <ele>3.6</ele>
        <time>2020-05-31T17:32:06Z</time>
      </trkpt>
      <trkpt lat="46.15874" lon="-1.15938">
        <ele>3.5</ele>
        <time>2020-05-31T17:32:07Z</time>
      </trkpt>
      <trkpt lat="46.15873" lon="-1.15939">
        <ele>3.5</ele>
        <time>2020-05-31T17:32:08Z</time>
      </trkpt>
      <trkpt lat="46.15873" lon="-1.15941">
        <ele>3.1</ele>
        <time>2020-05-31T17:32:09Z</time>
      </trkpt>
      <trkpt lat="46.15873" lon="-1.15941">
        <ele>3.1</ele>
        <time>2020-05-31T17:32:10Z</time>
      </trkpt>
      <trkpt lat="46.15873" lon="-1.15941">
        <ele>3.1</ele>
        <time>2020-05-31T17:32:11Z</time>
      </trkpt>
      <trkpt lat="46.15873" lon="-1.15942">
        <ele>3.1</ele>
        <time>2020-05-31T17:32:12Z</time>
      </trkpt>
      <trkpt lat="46.15873" lon="-1.15942">
        <ele>3.1</ele>
        <time>2020-05-31T17:32:13Z</time>
      </trkpt>
      <trkpt lat="46.15873" lon="-1.15942">
        <ele>3.1</ele>
        <time>2020-05-31T17:32:14Z</time>
      </trkpt>
      <trkpt lat="46.15873" lon="-1.15942">
        <ele>3.1</ele>
        <time>2020-05-31T17:32:15Z</time>
      </trkpt>
      <trkpt lat="46.15873" lon="-1.15942">
        <ele>3.1</ele>
        <time>2020-05-31T17:32:16Z</time>
      </trkpt>
      <trkpt lat="46.15873" lon="-1.15942">
        <ele>3.1</ele>
        <time>2020-05-31T17:32:17Z</time>
      </trkpt>
      <trkpt lat="46.15873" lon="-1.15943">
        <ele>3.1</ele>
        <time>2020-05-31T17:32:18Z</time>
      </trkpt>
      <trkpt lat="46.15874" lon="-1.15943">
        <ele>3.1</ele>
        <time>2020-05-31T17:32:19Z</time>
      </trkpt>
      <trkpt lat="46.15874" lon="-1.15943">
        <ele>3.1</ele>
        <time>2020-05-31T17:32:20Z</time>
      </trkpt>
      <trkpt lat="46.15874" lon="-1.15943">
        <ele>3.1</ele>
        <time>2020-05-31T17:32:21Z</time>
      </trkpt>
      <trkpt lat="46.15874" lon="-1.15943">
        <ele>3.1</ele>
        <time>2020-05-31T17:32:22Z</time>
      </trkpt>
      <trkpt lat="46.15874" lon="-1.15943">
        <ele>3.1</ele>
        <time>2020-05-31T17:32:23Z</time>
      </trkpt>
      <trkpt lat="46.15874" lon="-1.15944">
        <ele>3.1</ele>
        <time>2020-05-31T17:32:24Z</time>
      </trkpt>
      <trkpt lat="46.15874" lon="-1.15944">
        <ele>3.1</ele>
        <time>2020-05-31T17:32:25Z</time>
      </trkpt>
      <trkpt lat="46.15874" lon="-1.15944">
        <ele>3.1</ele>
        <time>2020-05-31T17:32:26Z</time>
      </trkpt>
      <trkpt lat="46.15874" lon="-1.15944">
        <ele>3.1</ele>
        <time>2020-05-31T17:32:27Z</time>
      </trkpt>
      <trkpt lat="46.15874" lon="-1.15944">
        <ele>3.1</ele>
        <time>2020-05-31T17:32:28Z</time>
      </trkpt>
      <trkpt lat="46.15874" lon="-1.15944">
        <ele>3.1</ele>
        <time>2020-05-31T17:32:29Z</time>
      </trkpt>
      <trkpt lat="46.15874" lon="-1.15945">
        <ele>3.1</ele>
        <time>2020-05-31T17:32:30Z</time>
      </trkpt>
      <trkpt lat="46.15874" lon="-1.15945">
        <ele>3.1</ele>
        <time>2020-05-31T17:32:31Z</time>
      </trkpt>
      <trkpt lat="46.15874" lon="-1.15945">
        <ele>3.1</ele>
        <time>2020-05-31T17:32:32Z</time>
      </trkpt>
      <trkpt lat="46.15875" lon="-1.15946">
        <ele>3.1</ele>
        <time>2020-05-31T17:32:33Z</time>
      </trkpt>
      <trkpt lat="46.15874" lon="-1.15946">
        <ele>3.1</ele>
        <time>2020-05-31T17:32:34Z</time>
      </trkpt>
      <trkpt lat="46.15874" lon="-1.15947">
        <ele>3.1</ele>
        <time>2020-05-31T17:32:35Z</time>
      </trkpt>
      <trkpt lat="46.15871" lon="-1.15947">
        <ele>3</ele>
        <time>2020-05-31T17:32:36Z</time>
      </trkpt>
      <trkpt lat="46.15868" lon="-1.15947">
        <ele>3</ele>
        <time>2020-05-31T17:32:37Z</time>
      </trkpt>
      <trkpt lat="46.15866" lon="-1.15947">
        <ele>3</ele>
        <time>2020-05-31T17:32:38Z</time>
      </trkpt>
      <trkpt lat="46.15863" lon="-1.15946">
        <ele>3</ele>
        <time>2020-05-31T17:32:39Z</time>
      </trkpt>
      <trkpt lat="46.1586" lon="-1.15945">
        <ele>3</ele>
        <time>2020-05-31T17:32:40Z</time>
      </trkpt>
      <trkpt lat="46.15857" lon="-1.15943">
        <ele>3</ele>
        <time>2020-05-31T17:32:41Z</time>
      </trkpt>
      <trkpt lat="46.15852" lon="-1.15943">
        <ele>2.9</ele>
        <time>2020-05-31T17:32:42Z</time>
      </trkpt>
      <trkpt lat="46.15847" lon="-1.15942">
        <ele>2.9</ele>
        <time>2020-05-31T17:32:43Z</time>
      </trkpt>
      <trkpt lat="46.15842" lon="-1.15941">
        <ele>2.9</ele>
        <time>2020-05-31T17:32:44Z</time>
      </trkpt>
      <trkpt lat="46.15838" lon="-1.15942">
        <ele>2.9</ele>
        <time>2020-05-31T17:32:45Z</time>
      </trkpt>
      <trkpt lat="46.15832" lon="-1.15943">
        <ele>2.9</ele>
        <time>2020-05-31T17:32:46Z</time>
      </trkpt>
      <trkpt lat="46.15827" lon="-1.15943">
        <ele>2.9</ele>
        <time>2020-05-31T17:32:47Z</time>
      </trkpt>
      <trkpt lat="46.15821" lon="-1.15944">
        <ele>3</ele>
        <time>2020-05-31T17:32:48Z</time>
      </trkpt>
      <trkpt lat="46.15815" lon="-1.15942">
        <ele>3</ele>
        <time>2020-05-31T17:32:49Z</time>
      </trkpt>
      <trkpt lat="46.15809" lon="-1.15942">
        <ele>3</ele>
        <time>2020-05-31T17:32:50Z</time>
      </trkpt>
      <trkpt lat="46.15803" lon="-1.15941">
        <ele>3</ele>
        <time>2020-05-31T17:32:51Z</time>
      </trkpt>
      <trkpt lat="46.15797" lon="-1.15941">
        <ele>2.9</ele>
        <time>2020-05-31T17:32:52Z</time>
      </trkpt>
      <trkpt lat="46.1579" lon="-1.15942">
        <ele>2.9</ele>
        <time>2020-05-31T17:32:53Z</time>
      </trkpt>
      <trkpt lat="46.15784" lon="-1.15942">
        <ele>2.9</ele>
        <time>2020-05-31T17:32:54Z</time>
      </trkpt>
      <trkpt lat="46.15778" lon="-1.15941">
        <ele>2.9</ele>
        <time>2020-05-31T17:32:55Z</time>
      </trkpt>
      <trkpt lat="46.15772" lon="-1.15942">
        <ele>2.9</ele>
        <time>2020-05-31T17:32:56Z</time>
      </trkpt>
      <trkpt lat="46.15767" lon="-1.15944">
        <ele>2.9</ele>
        <time>2020-05-31T17:32:57Z</time>
      </trkpt>
      <trkpt lat="46.15762" lon="-1.15947">
        <ele>2.9</ele>
        <time>2020-05-31T17:32:58Z</time>
      </trkpt>
      <trkpt lat="46.15759" lon="-1.15952">
        <ele>2.9</ele>
        <time>2020-05-31T17:32:59Z</time>
      </trkpt>
      <trkpt lat="46.15755" lon="-1.15956">
        <ele>2.9</ele>
        <time>2020-05-31T17:33:00Z</time>
      </trkpt>
      <trkpt lat="46.15752" lon="-1.15962">
        <ele>2.9</ele>
        <time>2020-05-31T17:33:01Z</time>
      </trkpt>
      <trkpt lat="46.15749" lon="-1.15966">
        <ele>2.9</ele>
        <time>2020-05-31T17:33:02Z</time>
      </trkpt>
      <trkpt lat="46.15746" lon="-1.15971">
        <ele>2.9</ele>
        <time>2020-05-31T17:33:03Z</time>
      </trkpt>
      <trkpt lat="46.15744" lon="-1.15976">
        <ele>2.9</ele>
        <time>2020-05-31T17:33:04Z</time>
      </trkpt>
      <trkpt lat="46.15741" lon="-1.15982">
        <ele>3</ele>
        <time>2020-05-31T17:33:05Z</time>
      </trkpt>
      <trkpt lat="46.15738" lon="-1.15986">
        <ele>3</ele>
        <time>2020-05-31T17:33:06Z</time>
      </trkpt>
      <trkpt lat="46.15735" lon="-1.15991">
        <ele>3</ele>
        <time>2020-05-31T17:33:07Z</time>
      </trkpt>
      <trkpt lat="46.15733" lon="-1.15995">
        <ele>3</ele>
        <time>2020-05-31T17:33:08Z</time>
      </trkpt>
      <trkpt lat="46.15729" lon="-1.15998">
        <ele>3</ele>
        <time>2020-05-31T17:33:09Z</time>
      </trkpt>
      <trkpt lat="46.15724" lon="-1.16002">
        <ele>3</ele>
        <time>2020-05-31T17:33:10Z</time>
      </trkpt>
      <trkpt lat="46.15719" lon="-1.16004">
        <ele>3.1</ele>
        <time>2020-05-31T17:33:11Z</time>
      </trkpt>
      <trkpt lat="46.15715" lon="-1.16007">
        <ele>3.1</ele>
        <time>2020-05-31T17:33:12Z</time>
      </trkpt>
      <trkpt lat="46.15711" lon="-1.16009">
        <ele>3.1</ele>
        <time>2020-05-31T17:33:13Z</time>
      </trkpt>
      <trkpt lat="46.15708" lon="-1.16011">
        <ele>3.1</ele>
        <time>2020-05-31T17:33:14Z</time>
      </trkpt>
      <trkpt lat="46.15706" lon="-1.16013">
        <ele>3.1</ele>
        <time>2020-05-31T17:33:15Z</time>
      </trkpt>
      <trkpt lat="46.15702" lon="-1.16015">
        <ele>3.1</ele>
        <time>2020-05-31T17:33:16Z</time>
      </trkpt>
      <trkpt lat="46.15698" lon="-1.16018">
        <ele>3.2</ele>
        <time>2020-05-31T17:33:17Z</time>
      </trkpt>
      <trkpt lat="46.15694" lon="-1.1602">
        <ele>3.2</ele>
        <time>2020-05-31T17:33:18Z</time>
      </trkpt>
      <trkpt lat="46.1569" lon="-1.16023">
        <ele>3.1</ele>
        <time>2020-05-31T17:33:19Z</time>
      </trkpt>
      <trkpt lat="46.15685" lon="-1.16027">
        <ele>3.1</ele>
        <time>2020-05-31T17:33:20Z</time>
      </trkpt>
      <trkpt lat="46.15682" lon="-1.1603">
        <ele>3.1</ele>
        <time>2020-05-31T17:33:21Z</time>
      </trkpt>
      <trkpt lat="46.15679" lon="-1.16033">
        <ele>3.1</ele>
        <time>2020-05-31T17:33:22Z</time>
      </trkpt>
      <trkpt lat="46.15676" lon="-1.16035">
        <ele>3.1</ele>
        <time>2020-05-31T17:33:23Z</time>
      </trkpt>
      <trkpt lat="46.15673" lon="-1.16038">
        <ele>3.1</ele>
        <time>2020-05-31T17:33:24Z</time>
      </trkpt>
      <trkpt lat="46.15669" lon="-1.16041">
        <ele>3.1</ele>
        <time>2020-05-31T17:33:25Z</time>
      </trkpt>
      <trkpt lat="46.15664" lon="-1.16044">
        <ele>3.1</ele>
        <time>2020-05-31T17:33:26Z</time>
      </trkpt>
      <trkpt lat="46.1566" lon="-1.16049">
        <ele>3.1</ele>
        <time>2020-05-31T17:33:27Z</time>
      </trkpt>
      <trkpt lat="46.15655" lon="-1.16054">
        <ele>3.1</ele>
        <time>2020-05-31T17:33:28Z</time>
      </trkpt>
      <trkpt lat="46.15651" lon="-1.16059">
        <ele>3.1</ele>
        <time>2020-05-31T17:33:29Z</time>
      </trkpt>
      <trkpt lat="46.15647" lon="-1.16062">
        <ele>3.1</ele>
        <time>2020-05-31T17:33:30Z</time>
      </trkpt>
      <trkpt lat="46.15643" lon="-1.16067">
        <ele>3.1</ele>
        <time>2020-05-31T17:33:31Z</time>
      </trkpt>
      <trkpt lat="46.15638" lon="-1.16072">
        <ele>3.2</ele>
        <time>2020-05-31T17:33:32Z</time>
      </trkpt>
      <trkpt lat="46.15633" lon="-1.16076">
        <ele>3.2</ele>
        <time>2020-05-31T17:33:33Z</time>
      </trkpt>
      <trkpt lat="46.15629" lon="-1.16077">
        <ele>3.2</ele>
        <time>2020-05-31T17:33:34Z</time>
      </trkpt>
      <trkpt lat="46.15625" lon="-1.16077">
        <ele>3.2</ele>
        <time>2020-05-31T17:33:35Z</time>
      </trkpt>
      <trkpt lat="46.15621" lon="-1.16077">
        <ele>3.2</ele>
        <time>2020-05-31T17:33:36Z</time>
      </trkpt>
      <trkpt lat="46.15621" lon="-1.16077">
        <ele>3.2</ele>
        <time>2020-05-31T17:33:37Z</time>
      </trkpt>
      <trkpt lat="46.15617" lon="-1.16077">
        <ele>3.2</ele>
        <time>2020-05-31T17:33:38Z</time>
      </trkpt>
      <trkpt lat="46.15614" lon="-1.16076">
        <ele>3.2</ele>
        <time>2020-05-31T17:33:39Z</time>
      </trkpt>
      <trkpt lat="46.15613" lon="-1.16075">
        <ele>3.2</ele>
        <time>2020-05-31T17:33:40Z</time>
      </trkpt>
      <trkpt lat="46.1561" lon="-1.16075">
        <ele>3.2</ele>
        <time>2020-05-31T17:33:41Z</time>
      </trkpt>
      <trkpt lat="46.15607" lon="-1.16074">
        <ele>3.2</ele>
        <time>2020-05-31T17:33:42Z</time>
      </trkpt>
      <trkpt lat="46.15605" lon="-1.16073">
        <ele>3.2</ele>
        <time>2020-05-31T17:33:43Z</time>
      </trkpt>
      <trkpt lat="46.15602" lon="-1.16071">
        <ele>3.2</ele>
        <time>2020-05-31T17:33:44Z</time>
      </trkpt>
      <trkpt lat="46.15602" lon="-1.16071">
        <ele>3.3</ele>
        <time>2020-05-31T17:33:45Z</time>
      </trkpt>
      <trkpt lat="46.156" lon="-1.16072">
        <ele>3.3</ele>
        <time>2020-05-31T17:33:46Z</time>
      </trkpt>
      <trkpt lat="46.15599" lon="-1.16072">
        <ele>3.3</ele>
        <time>2020-05-31T17:33:47Z</time>
      </trkpt>
      <trkpt lat="46.15597" lon="-1.16072">
        <ele>3.3</ele>
        <time>2020-05-31T17:33:48Z</time>
      </trkpt>
      <trkpt lat="46.15595" lon="-1.16073">
        <ele>3.3</ele>
        <time>2020-05-31T17:33:49Z</time>
      </trkpt>
      <trkpt lat="46.15592" lon="-1.16075">
        <ele>3.4</ele>
        <time>2020-05-31T17:33:50Z</time>
      </trkpt>
      <trkpt lat="46.15589" lon="-1.16076">
        <ele>3.4</ele>
        <time>2020-05-31T17:33:51Z</time>
      </trkpt>
      <trkpt lat="46.15587" lon="-1.16076">
        <ele>3.5</ele>
        <time>2020-05-31T17:33:52Z</time>
      </trkpt>
      <trkpt lat="46.15586" lon="-1.16077">
        <ele>3.5</ele>
        <time>2020-05-31T17:33:53Z</time>
      </trkpt>
      <trkpt lat="46.15583" lon="-1.1608">
        <ele>3.6</ele>
        <time>2020-05-31T17:33:54Z</time>
      </trkpt>
      <trkpt lat="46.15582" lon="-1.16081">
        <ele>3.6</ele>
        <time>2020-05-31T17:33:55Z</time>
      </trkpt>
      <trkpt lat="46.15579" lon="-1.16082">
        <ele>3.7</ele>
        <time>2020-05-31T17:33:56Z</time>
      </trkpt>
      <trkpt lat="46.15578" lon="-1.16083">
        <ele>3.7</ele>
        <time>2020-05-31T17:33:57Z</time>
      </trkpt>
      <trkpt lat="46.15575" lon="-1.16084">
        <ele>3.8</ele>
        <time>2020-05-31T17:33:58Z</time>
      </trkpt>
      <trkpt lat="46.15571" lon="-1.16085">
        <ele>3.8</ele>
        <time>2020-05-31T17:33:59Z</time>
      </trkpt>
      <trkpt lat="46.1557" lon="-1.16085">
        <ele>3.9</ele>
        <time>2020-05-31T17:34:00Z</time>
      </trkpt>
      <trkpt lat="46.15567" lon="-1.16085">
        <ele>4</ele>
        <time>2020-05-31T17:34:01Z</time>
      </trkpt>
      <trkpt lat="46.15566" lon="-1.16085">
        <ele>4</ele>
        <time>2020-05-31T17:34:02Z</time>
      </trkpt>
      <trkpt lat="46.15564" lon="-1.16084">
        <ele>4</ele>
        <time>2020-05-31T17:34:03Z</time>
      </trkpt>
      <trkpt lat="46.15563" lon="-1.16084">
        <ele>4</ele>
        <time>2020-05-31T17:34:04Z</time>
      </trkpt>
      <trkpt lat="46.15561" lon="-1.16085">
        <ele>4.1</ele>
        <time>2020-05-31T17:34:05Z</time>
      </trkpt>
      <trkpt lat="46.1556" lon="-1.16085">
        <ele>4.1</ele>
        <time>2020-05-31T17:34:06Z</time>
      </trkpt>
      <trkpt lat="46.15559" lon="-1.16085">
        <ele>4.1</ele>
        <time>2020-05-31T17:34:07Z</time>
      </trkpt>
      <trkpt lat="46.15558" lon="-1.16086">
        <ele>4.1</ele>
        <time>2020-05-31T17:34:08Z</time>
      </trkpt>
      <trkpt lat="46.15557" lon="-1.16087">
        <ele>4.2</ele>
        <time>2020-05-31T17:34:09Z</time>
      </trkpt>
      <trkpt lat="46.15557" lon="-1.16087">
        <ele>4.2</ele>
        <time>2020-05-31T17:34:10Z</time>
      </trkpt>
      <trkpt lat="46.15556" lon="-1.16085">
        <ele>4.2</ele>
        <time>2020-05-31T17:34:11Z</time>
      </trkpt>
      <trkpt lat="46.15556" lon="-1.16085">
        <ele>4.2</ele>
        <time>2020-05-31T17:34:12Z</time>
      </trkpt>
      <trkpt lat="46.15556" lon="-1.16085">
        <ele>4.2</ele>
        <time>2020-05-31T17:34:13Z</time>
      </trkpt>
      <trkpt lat="46.15556" lon="-1.16085">
        <ele>4.2</ele>
        <time>2020-05-31T17:34:14Z</time>
      </trkpt>
      <trkpt lat="46.15556" lon="-1.16085">
        <ele>4.2</ele>
        <time>2020-05-31T17:34:15Z</time>
      </trkpt>
      <trkpt lat="46.15556" lon="-1.16085">
        <ele>4.2</ele>
        <time>2020-05-31T17:34:16Z</time>
      </trkpt>
      <trkpt lat="46.15556" lon="-1.16086">
        <ele>4.2</ele>
        <time>2020-05-31T17:34:17Z</time>
      </trkpt>
      <trkpt lat="46.15556" lon="-1.16086">
        <ele>4.2</ele>
        <time>2020-05-31T17:34:18Z</time>
      </trkpt>
      <trkpt lat="46.15556" lon="-1.16085">
        <ele>4.2</ele>
        <time>2020-05-31T17:34:19Z</time>
      </trkpt>
      <trkpt lat="46.15556" lon="-1.16085">
        <ele>4.2</ele>
        <time>2020-05-31T17:34:20Z</time>
      </trkpt>
      <trkpt lat="46.15555" lon="-1.16085">
        <ele>4.2</ele>
        <time>2020-05-31T17:34:21Z</time>
      </trkpt>
      <trkpt lat="46.15555" lon="-1.16085">
        <ele>4.2</ele>
        <time>2020-05-31T17:34:22Z</time>
      </trkpt>
      <trkpt lat="46.15555" lon="-1.16085">
        <ele>4.2</ele>
        <time>2020-05-31T17:34:23Z</time>
      </trkpt>
      <trkpt lat="46.15535" lon="-1.16028">
        <ele>4.6</ele>
        <time>2020-05-31T20:16:58Z</time>
      </trkpt>
      <trkpt lat="46.15533" lon="-1.1604">
        <ele>4.6</ele>
        <time>2020-05-31T20:17:01Z</time>
      </trkpt>
      <trkpt lat="46.15534" lon="-1.16041">
        <ele>4.6</ele>
        <time>2020-05-31T20:17:02Z</time>
      </trkpt>
      <trkpt lat="46.15536" lon="-1.16044">
        <ele>4.6</ele>
        <time>2020-05-31T20:17:03Z</time>
      </trkpt>
      <trkpt lat="46.15537" lon="-1.16046">
        <ele>4.6</ele>
        <time>2020-05-31T20:17:04Z</time>
      </trkpt>
      <trkpt lat="46.15539" lon="-1.16048">
        <ele>4.6</ele>
        <time>2020-05-31T20:17:05Z</time>
      </trkpt>
      <trkpt lat="46.15542" lon="-1.1605">
        <ele>4.5</ele>
        <time>2020-05-31T20:17:06Z</time>
      </trkpt>
      <trkpt lat="46.15544" lon="-1.16053">
        <ele>4.5</ele>
        <time>2020-05-31T20:17:07Z</time>
      </trkpt>
      <trkpt lat="46.15547" lon="-1.16055">
        <ele>4.5</ele>
        <time>2020-05-31T20:17:08Z</time>
      </trkpt>
      <trkpt lat="46.15551" lon="-1.16053">
        <ele>4.5</ele>
        <time>2020-05-31T20:17:09Z</time>
      </trkpt>
      <trkpt lat="46.15557" lon="-1.16058">
        <ele>4.5</ele>
        <time>2020-05-31T20:17:10Z</time>
      </trkpt>
      <trkpt lat="46.1556" lon="-1.1606">
        <ele>4.4</ele>
        <time>2020-05-31T20:17:11Z</time>
      </trkpt>
      <trkpt lat="46.15562" lon="-1.16064">
        <ele>4.3</ele>
        <time>2020-05-31T20:17:12Z</time>
      </trkpt>
      <trkpt lat="46.15565" lon="-1.16067">
        <ele>4.2</ele>
        <time>2020-05-31T20:17:13Z</time>
      </trkpt>
      <trkpt lat="46.15567" lon="-1.1607">
        <ele>4.2</ele>
        <time>2020-05-31T20:17:14Z</time>
      </trkpt>
      <trkpt lat="46.15569" lon="-1.16073">
        <ele>4.1</ele>
        <time>2020-05-31T20:17:15Z</time>
      </trkpt>
      <trkpt lat="46.15571" lon="-1.16077">
        <ele>4</ele>
        <time>2020-05-31T20:17:16Z</time>
      </trkpt>
      <trkpt lat="46.15572" lon="-1.16079">
        <ele>4</ele>
        <time>2020-05-31T20:17:17Z</time>
      </trkpt>
      <trkpt lat="46.15573" lon="-1.16082">
        <ele>3.9</ele>
        <time>2020-05-31T20:17:18Z</time>
      </trkpt>
      <trkpt lat="46.15574" lon="-1.16083">
        <ele>3.9</ele>
        <time>2020-05-31T20:17:19Z</time>
      </trkpt>
      <trkpt lat="46.15575" lon="-1.16084">
        <ele>3.8</ele>
        <time>2020-05-31T20:17:20Z</time>
      </trkpt>
      <trkpt lat="46.15577" lon="-1.16084">
        <ele>3.8</ele>
        <time>2020-05-31T20:17:21Z</time>
      </trkpt>
      <trkpt lat="46.15579" lon="-1.16085">
        <ele>3.7</ele>
        <time>2020-05-31T20:17:22Z</time>
      </trkpt>
      <trkpt lat="46.1558" lon="-1.16086">
        <ele>3.7</ele>
        <time>2020-05-31T20:17:23Z</time>
      </trkpt>
      <trkpt lat="46.15583" lon="-1.16089">
        <ele>3.6</ele>
        <time>2020-05-31T20:17:24Z</time>
      </trkpt>
      <trkpt lat="46.15584" lon="-1.16089">
        <ele>3.6</ele>
        <time>2020-05-31T20:17:25Z</time>
      </trkpt>
      <trkpt lat="46.15586" lon="-1.1609">
        <ele>3.5</ele>
        <time>2020-05-31T20:17:26Z</time>
      </trkpt>
      <trkpt lat="46.15587" lon="-1.16092">
        <ele>3.2</ele>
        <time>2020-05-31T20:17:27Z</time>
      </trkpt>
      <trkpt lat="46.15588" lon="-1.16091">
        <ele>3.2</ele>
        <time>2020-05-31T20:17:28Z</time>
      </trkpt>
      <trkpt lat="46.15588" lon="-1.16091">
        <ele>3.2</ele>
        <time>2020-05-31T20:17:29Z</time>
      </trkpt>
      <trkpt lat="46.15588" lon="-1.16091">
        <ele>3.2</ele>
        <time>2020-05-31T20:17:30Z</time>
      </trkpt>
      <trkpt lat="46.15588" lon="-1.16091">
        <ele>3.2</ele>
        <time>2020-05-31T20:17:31Z</time>
      </trkpt>
      <trkpt lat="46.15588" lon="-1.16091">
        <ele>3.2</ele>
        <time>2020-05-31T20:17:32Z</time>
      </trkpt>
      <trkpt lat="46.15588" lon="-1.16091">
        <ele>3.2</ele>
        <time>2020-05-31T20:17:33Z</time>
      </trkpt>
      <trkpt lat="46.15588" lon="-1.16091">
        <ele>3.2</ele>
        <time>2020-05-31T20:17:34Z</time>
      </trkpt>
      <trkpt lat="46.15588" lon="-1.16091">
        <ele>3.2</ele>
        <time>2020-05-31T20:17:35Z</time>
      </trkpt>
      <trkpt lat="46.15588" lon="-1.16091">
        <ele>3.2</ele>
        <time>2020-05-31T20:17:36Z</time>
      </trkpt>
      <trkpt lat="46.15587" lon="-1.16091">
        <ele>3.2</ele>
        <time>2020-05-31T20:17:37Z</time>
      </trkpt>
      <trkpt lat="46.15587" lon="-1.16091">
        <ele>3.2</ele>
        <time>2020-05-31T20:17:38Z</time>
      </trkpt>
      <trkpt lat="46.15587" lon="-1.16091">
        <ele>3.2</ele>
        <time>2020-05-31T20:17:39Z</time>
      </trkpt>
      <trkpt lat="46.15587" lon="-1.16091">
        <ele>3.2</ele>
        <time>2020-05-31T20:17:40Z</time>
      </trkpt>
      <trkpt lat="46.15587" lon="-1.16091">
        <ele>3.2</ele>
        <time>2020-05-31T20:17:41Z</time>
      </trkpt>
      <trkpt lat="46.15587" lon="-1.16091">
        <ele>3.2</ele>
        <time>2020-05-31T20:17:42Z</time>
      </trkpt>
      <trkpt lat="46.15587" lon="-1.16091">
        <ele>3.2</ele>
        <time>2020-05-31T20:17:43Z</time>
      </trkpt>
      <trkpt lat="46.15587" lon="-1.16091">
        <ele>3.2</ele>
        <time>2020-05-31T20:17:44Z</time>
      </trkpt>
      <trkpt lat="46.15587" lon="-1.16091">
        <ele>3.2</ele>
        <time>2020-05-31T20:17:45Z</time>
      </trkpt>
      <trkpt lat="46.15587" lon="-1.16091">
        <ele>3.2</ele>
        <time>2020-05-31T20:17:46Z</time>
      </trkpt>
      <trkpt lat="46.15587" lon="-1.16091">
        <ele>3.2</ele>
        <time>2020-05-31T20:17:47Z</time>
      </trkpt>
      <trkpt lat="46.15587" lon="-1.16091">
        <ele>3.2</ele>
        <time>2020-05-31T20:17:48Z</time>
      </trkpt>
      <trkpt lat="46.15587" lon="-1.16091">
        <ele>3.2</ele>
        <time>2020-05-31T20:17:49Z</time>
      </trkpt>
      <trkpt lat="46.15587" lon="-1.16091">
        <ele>3.2</ele>
        <time>2020-05-31T20:17:50Z</time>
      </trkpt>
      <trkpt lat="46.15587" lon="-1.16091">
        <ele>3.2</ele>
        <time>2020-05-31T20:17:51Z</time>
      </trkpt>
      <trkpt lat="46.15587" lon="-1.16091">
        <ele>3.2</ele>
        <time>2020-05-31T20:17:52Z</time>
      </trkpt>
      <trkpt lat="46.15588" lon="-1.16091">
        <ele>3.2</ele>
        <time>2020-05-31T20:17:53Z</time>
      </trkpt>
      <trkpt lat="46.15588" lon="-1.16091">
        <ele>3.2</ele>
        <time>2020-05-31T20:17:54Z</time>
      </trkpt>
      <trkpt lat="46.15588" lon="-1.16091">
        <ele>3.2</ele>
        <time>2020-05-31T20:17:55Z</time>
      </trkpt>
      <trkpt lat="46.15588" lon="-1.16091">
        <ele>3.2</ele>
        <time>2020-05-31T20:17:56Z</time>
      </trkpt>
      <trkpt lat="46.15588" lon="-1.16091">
        <ele>3.2</ele>
        <time>2020-05-31T20:17:57Z</time>
      </trkpt>
      <trkpt lat="46.15588" lon="-1.16091">
        <ele>3.2</ele>
        <time>2020-05-31T20:17:58Z</time>
      </trkpt>
      <trkpt lat="46.15588" lon="-1.16091">
        <ele>3.2</ele>
        <time>2020-05-31T20:17:59Z</time>
      </trkpt>
      <trkpt lat="46.15588" lon="-1.16091">
        <ele>3.2</ele>
        <time>2020-05-31T20:18:00Z</time>
      </trkpt>
      <trkpt lat="46.15588" lon="-1.16091">
        <ele>3.2</ele>
        <time>2020-05-31T20:18:01Z</time>
      </trkpt>
      <trkpt lat="46.15588" lon="-1.16091">
        <ele>3.2</ele>
        <time>2020-05-31T20:18:02Z</time>
      </trkpt>
      <trkpt lat="46.15588" lon="-1.16091">
        <ele>3.2</ele>
        <time>2020-05-31T20:18:03Z</time>
      </trkpt>
      <trkpt lat="46.15588" lon="-1.16091">
        <ele>3.2</ele>
        <time>2020-05-31T20:18:04Z</time>
      </trkpt>
      <trkpt lat="46.15588" lon="-1.16091">
        <ele>3.2</ele>
        <time>2020-05-31T20:18:05Z</time>
      </trkpt>
      <trkpt lat="46.15588" lon="-1.16091">
        <ele>3.2</ele>
        <time>2020-05-31T20:18:06Z</time>
      </trkpt>
      <trkpt lat="46.15588" lon="-1.16091">
        <ele>3.2</ele>
        <time>2020-05-31T20:18:07Z</time>
      </trkpt>
      <trkpt lat="46.15588" lon="-1.16091">
        <ele>3.2</ele>
        <time>2020-05-31T20:18:08Z</time>
      </trkpt>
      <trkpt lat="46.15588" lon="-1.16091">
        <ele>3.2</ele>
        <time>2020-05-31T20:18:09Z</time>
      </trkpt>
      <trkpt lat="46.15588" lon="-1.16091">
        <ele>3.2</ele>
        <time>2020-05-31T20:18:10Z</time>
      </trkpt>
      <trkpt lat="46.15588" lon="-1.16091">
        <ele>3.2</ele>
        <time>2020-05-31T20:18:11Z</time>
      </trkpt>
      <trkpt lat="46.15588" lon="-1.16091">
        <ele>3.2</ele>
        <time>2020-05-31T20:18:12Z</time>
      </trkpt>
      <trkpt lat="46.15588" lon="-1.16091">
        <ele>3.2</ele>
        <time>2020-05-31T20:18:13Z</time>
      </trkpt>
      <trkpt lat="46.15588" lon="-1.16091">
        <ele>3.2</ele>
        <time>2020-05-31T20:18:14Z</time>
      </trkpt>
      <trkpt lat="46.15588" lon="-1.16091">
        <ele>3.2</ele>
        <time>2020-05-31T20:18:15Z</time>
      </trkpt>
      <trkpt lat="46.15589" lon="-1.16091">
        <ele>3.2</ele>
        <time>2020-05-31T20:18:16Z</time>
      </trkpt>
      <trkpt lat="46.1559" lon="-1.16091">
        <ele>3.2</ele>
        <time>2020-05-31T20:18:17Z</time>
      </trkpt>
      <trkpt lat="46.15591" lon="-1.16093">
        <ele>3.2</ele>
        <time>2020-05-31T20:18:18Z</time>
      </trkpt>
      <trkpt lat="46.15592" lon="-1.16095">
        <ele>3.2</ele>
        <time>2020-05-31T20:18:19Z</time>
      </trkpt>
      <trkpt lat="46.15593" lon="-1.16096">
        <ele>3.2</ele>
        <time>2020-05-31T20:18:20Z</time>
      </trkpt>
      <trkpt lat="46.15594" lon="-1.16101">
        <ele>3.2</ele>
        <time>2020-05-31T20:18:21Z</time>
      </trkpt>
      <trkpt lat="46.15594" lon="-1.16102">
        <ele>3.2</ele>
        <time>2020-05-31T20:18:22Z</time>
      </trkpt>
      <trkpt lat="46.15596" lon="-1.16106">
        <ele>3.2</ele>
        <time>2020-05-31T20:18:23Z</time>
      </trkpt>
      <trkpt lat="46.15596" lon="-1.16107">
        <ele>3.3</ele>
        <time>2020-05-31T20:18:24Z</time>
      </trkpt>
      <trkpt lat="46.156" lon="-1.16107">
        <ele>3.3</ele>
        <time>2020-05-31T20:18:25Z</time>
      </trkpt>
      <trkpt lat="46.15601" lon="-1.16107">
        <ele>3.3</ele>
        <time>2020-05-31T20:18:26Z</time>
      </trkpt>
      <trkpt lat="46.15604" lon="-1.16107">
        <ele>3.3</ele>
        <time>2020-05-31T20:18:27Z</time>
      </trkpt>
      <trkpt lat="46.15607" lon="-1.16108">
        <ele>3.3</ele>
        <time>2020-05-31T20:18:28Z</time>
      </trkpt>
      <trkpt lat="46.15608" lon="-1.16108">
        <ele>3.3</ele>
        <time>2020-05-31T20:18:29Z</time>
      </trkpt>
      <trkpt lat="46.1561" lon="-1.16113">
        <ele>3.4</ele>
        <time>2020-05-31T20:18:30Z</time>
      </trkpt>
      <trkpt lat="46.1561" lon="-1.16115">
        <ele>3.4</ele>
        <time>2020-05-31T20:18:31Z</time>
      </trkpt>
      <trkpt lat="46.1561" lon="-1.1612">
        <ele>3.4</ele>
        <time>2020-05-31T20:18:32Z</time>
      </trkpt>
      <trkpt lat="46.1561" lon="-1.16125">
        <ele>3.4</ele>
        <time>2020-05-31T20:18:33Z</time>
      </trkpt>
      <trkpt lat="46.15609" lon="-1.16131">
        <ele>3.4</ele>
        <time>2020-05-31T20:18:34Z</time>
      </trkpt>
      <trkpt lat="46.15608" lon="-1.16137">
        <ele>3.4</ele>
        <time>2020-05-31T20:18:35Z</time>
      </trkpt>
      <trkpt lat="46.15608" lon="-1.16143">
        <ele>3.4</ele>
        <time>2020-05-31T20:18:36Z</time>
      </trkpt>
      <trkpt lat="46.15608" lon="-1.16148">
        <ele>3.4</ele>
        <time>2020-05-31T20:18:37Z</time>
      </trkpt>
      <trkpt lat="46.15609" lon="-1.16154">
        <ele>3.4</ele>
        <time>2020-05-31T20:18:38Z</time>
      </trkpt>
      <trkpt lat="46.15607" lon="-1.1616">
        <ele>3.5</ele>
        <time>2020-05-31T20:18:39Z</time>
      </trkpt>
      <trkpt lat="46.15607" lon="-1.16164">
        <ele>3.5</ele>
        <time>2020-05-31T20:18:40Z</time>
      </trkpt>
      <trkpt lat="46.15606" lon="-1.16168">
        <ele>3.5</ele>
        <time>2020-05-31T20:18:41Z</time>
      </trkpt>
      <trkpt lat="46.15605" lon="-1.16174">
        <ele>3.5</ele>
        <time>2020-05-31T20:18:42Z</time>
      </trkpt>
      <trkpt lat="46.15604" lon="-1.16177">
        <ele>3.5</ele>
        <time>2020-05-31T20:18:43Z</time>
      </trkpt>
      <trkpt lat="46.15604" lon="-1.16182">
        <ele>3.6</ele>
        <time>2020-05-31T20:18:44Z</time>
      </trkpt>
      <trkpt lat="46.15603" lon="-1.16184">
        <ele>3.6</ele>
        <time>2020-05-31T20:18:45Z</time>
      </trkpt>
      <trkpt lat="46.15603" lon="-1.16189">
        <ele>3.6</ele>
        <time>2020-05-31T20:18:46Z</time>
      </trkpt>
      <trkpt lat="46.15603" lon="-1.1619">
        <ele>3.6</ele>
        <time>2020-05-31T20:18:47Z</time>
      </trkpt>
      <trkpt lat="46.15603" lon="-1.16194">
        <ele>3.6</ele>
        <time>2020-05-31T20:18:48Z</time>
      </trkpt>
      <trkpt lat="46.15603" lon="-1.16195">
        <ele>3.6</ele>
        <time>2020-05-31T20:18:49Z</time>
      </trkpt>
      <trkpt lat="46.15602" lon="-1.162">
        <ele>3.7</ele>
        <time>2020-05-31T20:18:50Z</time>
      </trkpt>
      <trkpt lat="46.15603" lon="-1.16206">
        <ele>3.7</ele>
        <time>2020-05-31T20:18:51Z</time>
      </trkpt>
      <trkpt lat="46.15604" lon="-1.16211">
        <ele>3.7</ele>
        <time>2020-05-31T20:18:52Z</time>
      </trkpt>
      <trkpt lat="46.15604" lon="-1.16217">
        <ele>3.7</ele>
        <time>2020-05-31T20:18:53Z</time>
      </trkpt>
      <trkpt lat="46.15603" lon="-1.16223">
        <ele>3.8</ele>
        <time>2020-05-31T20:18:54Z</time>
      </trkpt>
      <trkpt lat="46.15603" lon="-1.1623">
        <ele>3.8</ele>
        <time>2020-05-31T20:18:55Z</time>
      </trkpt>
      <trkpt lat="46.15602" lon="-1.16235">
        <ele>3.8</ele>
        <time>2020-05-31T20:18:56Z</time>
      </trkpt>
      <trkpt lat="46.15601" lon="-1.1624">
        <ele>3.8</ele>
        <time>2020-05-31T20:18:57Z</time>
      </trkpt>
      <trkpt lat="46.15601" lon="-1.16246">
        <ele>3.7</ele>
        <time>2020-05-31T20:18:58Z</time>
      </trkpt>
      <trkpt lat="46.15601" lon="-1.16252">
        <ele>3.7</ele>
        <time>2020-05-31T20:18:59Z</time>
      </trkpt>
      <trkpt lat="46.15602" lon="-1.16257">
        <ele>3.7</ele>
        <time>2020-05-31T20:19:00Z</time>
      </trkpt>
      <trkpt lat="46.15602" lon="-1.16263">
        <ele>3.7</ele>
        <time>2020-05-31T20:19:01Z</time>
      </trkpt>
      <trkpt lat="46.15602" lon="-1.16269">
        <ele>3.7</ele>
        <time>2020-05-31T20:19:02Z</time>
      </trkpt>
      <trkpt lat="46.156" lon="-1.16276">
        <ele>3.7</ele>
        <time>2020-05-31T20:19:03Z</time>
      </trkpt>
      <trkpt lat="46.15601" lon="-1.16282">
        <ele>3.7</ele>
        <time>2020-05-31T20:19:04Z</time>
      </trkpt>
      <trkpt lat="46.15601" lon="-1.16289">
        <ele>3.6</ele>
        <time>2020-05-31T20:19:05Z</time>
      </trkpt>
      <trkpt lat="46.15601" lon="-1.16296">
        <ele>3.6</ele>
        <time>2020-05-31T20:19:06Z</time>
      </trkpt>
      <trkpt lat="46.15602" lon="-1.16303">
        <ele>3.6</ele>
        <time>2020-05-31T20:19:07Z</time>
      </trkpt>
      <trkpt lat="46.15602" lon="-1.1631">
        <ele>3.6</ele>
        <time>2020-05-31T20:19:08Z</time>
      </trkpt>
      <trkpt lat="46.15603" lon="-1.16316">
        <ele>3.6</ele>
        <time>2020-05-31T20:19:09Z</time>
      </trkpt>
      <trkpt lat="46.15603" lon="-1.16322">
        <ele>3.6</ele>
        <time>2020-05-31T20:19:10Z</time>
      </trkpt>
      <trkpt lat="46.15602" lon="-1.16329">
        <ele>3.6</ele>
        <time>2020-05-31T20:19:11Z</time>
      </trkpt>
      <trkpt lat="46.15601" lon="-1.16337">
        <ele>3.7</ele>
        <time>2020-05-31T20:19:12Z</time>
      </trkpt>
      <trkpt lat="46.15601" lon="-1.16344">
        <ele>3.7</ele>
        <time>2020-05-31T20:19:13Z</time>
      </trkpt>
      <trkpt lat="46.156" lon="-1.1635">
        <ele>3.8</ele>
        <time>2020-05-31T20:19:14Z</time>
      </trkpt>
      <trkpt lat="46.15601" lon="-1.16356">
        <ele>3.9</ele>
        <time>2020-05-31T20:19:15Z</time>
      </trkpt>
      <trkpt lat="46.156" lon="-1.16363">
        <ele>4</ele>
        <time>2020-05-31T20:19:16Z</time>
      </trkpt>
      <trkpt lat="46.156" lon="-1.16369">
        <ele>4.1</ele>
        <time>2020-05-31T20:19:17Z</time>
      </trkpt>
      <trkpt lat="46.156" lon="-1.16375">
        <ele>4.2</ele>
        <time>2020-05-31T20:19:18Z</time>
      </trkpt>
      <trkpt lat="46.156" lon="-1.16381">
        <ele>4.3</ele>
        <time>2020-05-31T20:19:19Z</time>
      </trkpt>
      <trkpt lat="46.156" lon="-1.16387">
        <ele>4.3</ele>
        <time>2020-05-31T20:19:20Z</time>
      </trkpt>
      <trkpt lat="46.156" lon="-1.16395">
        <ele>4.5</ele>
        <time>2020-05-31T20:19:21Z</time>
      </trkpt>
      <trkpt lat="46.156" lon="-1.16399">
        <ele>4.5</ele>
        <time>2020-05-31T20:19:22Z</time>
      </trkpt>
      <trkpt lat="46.156" lon="-1.16405">
        <ele>4.7</ele>
        <time>2020-05-31T20:19:23Z</time>
      </trkpt>
      <trkpt lat="46.15599" lon="-1.16411">
        <ele>4.8</ele>
        <time>2020-05-31T20:19:24Z</time>
      </trkpt>
      <trkpt lat="46.15598" lon="-1.16418">
        <ele>4.9</ele>
        <time>2020-05-31T20:19:25Z</time>
      </trkpt>
      <trkpt lat="46.15598" lon="-1.16424">
        <ele>4.9</ele>
        <time>2020-05-31T20:19:26Z</time>
      </trkpt>
      <trkpt lat="46.15597" lon="-1.16429">
        <ele>5</ele>
        <time>2020-05-31T20:19:27Z</time>
      </trkpt>
      <trkpt lat="46.15596" lon="-1.16435">
        <ele>5.1</ele>
        <time>2020-05-31T20:19:28Z</time>
      </trkpt>
      <trkpt lat="46.15596" lon="-1.16441">
        <ele>5.2</ele>
        <time>2020-05-31T20:19:29Z</time>
      </trkpt>
      <trkpt lat="46.15595" lon="-1.16447">
        <ele>5.3</ele>
        <time>2020-05-31T20:19:30Z</time>
      </trkpt>
      <trkpt lat="46.15594" lon="-1.16452">
        <ele>5.3</ele>
        <time>2020-05-31T20:19:31Z</time>
      </trkpt>
      <trkpt lat="46.15594" lon="-1.16458">
        <ele>5.5</ele>
        <time>2020-05-31T20:19:32Z</time>
      </trkpt>
      <trkpt lat="46.15594" lon="-1.16464">
        <ele>5.7</ele>
        <time>2020-05-31T20:19:33Z</time>
      </trkpt>
      <trkpt lat="46.15594" lon="-1.1647">
        <ele>5.8</ele>
        <time>2020-05-31T20:19:34Z</time>
      </trkpt>
      <trkpt lat="46.15593" lon="-1.16475">
        <ele>5.9</ele>
        <time>2020-05-31T20:19:35Z</time>
      </trkpt>
      <trkpt lat="46.15594" lon="-1.1648">
        <ele>6</ele>
        <time>2020-05-31T20:19:36Z</time>
      </trkpt>
      <trkpt lat="46.15593" lon="-1.16486">
        <ele>6.1</ele>
        <time>2020-05-31T20:19:37Z</time>
      </trkpt>
      <trkpt lat="46.15593" lon="-1.16493">
        <ele>6.2</ele>
        <time>2020-05-31T20:19:38Z</time>
      </trkpt>
      <trkpt lat="46.15592" lon="-1.16499">
        <ele>6.3</ele>
        <time>2020-05-31T20:19:39Z</time>
      </trkpt>
      <trkpt lat="46.15593" lon="-1.16506">
        <ele>6.4</ele>
        <time>2020-05-31T20:19:40Z</time>
      </trkpt>
      <trkpt lat="46.15593" lon="-1.16513">
        <ele>6.5</ele>
        <time>2020-05-31T20:19:41Z</time>
      </trkpt>
      <trkpt lat="46.15593" lon="-1.16518">
        <ele>6.6</ele>
        <time>2020-05-31T20:19:42Z</time>
      </trkpt>
      <trkpt lat="46.15593" lon="-1.16525">
        <ele>6.7</ele>
        <time>2020-05-31T20:19:43Z</time>
      </trkpt>
      <trkpt lat="46.15593" lon="-1.1653">
        <ele>6.8</ele>
        <time>2020-05-31T20:19:44Z</time>
      </trkpt>
      <trkpt lat="46.15593" lon="-1.16536">
        <ele>7</ele>
        <time>2020-05-31T20:19:45Z</time>
      </trkpt>
      <trkpt lat="46.15594" lon="-1.16542">
        <ele>7.1</ele>
        <time>2020-05-31T20:19:46Z</time>
      </trkpt>
      <trkpt lat="46.15594" lon="-1.16547">
        <ele>7.2</ele>
        <time>2020-05-31T20:19:47Z</time>
      </trkpt>
      <trkpt lat="46.15594" lon="-1.16553">
        <ele>7.2</ele>
        <time>2020-05-31T20:19:48Z</time>
      </trkpt>
      <trkpt lat="46.15594" lon="-1.16558">
        <ele>7.3</ele>
        <time>2020-05-31T20:19:49Z</time>
      </trkpt>
      <trkpt lat="46.15594" lon="-1.16563">
        <ele>7.4</ele>
        <time>2020-05-31T20:19:50Z</time>
      </trkpt>
      <trkpt lat="46.15594" lon="-1.16567">
        <ele>7.4</ele>
        <time>2020-05-31T20:19:51Z</time>
      </trkpt>
      <trkpt lat="46.15594" lon="-1.16571">
        <ele>7.5</ele>
        <time>2020-05-31T20:19:52Z</time>
      </trkpt>
      <trkpt lat="46.15594" lon="-1.16576">
        <ele>7.5</ele>
        <time>2020-05-31T20:19:53Z</time>
      </trkpt>
      <trkpt lat="46.15595" lon="-1.16581">
        <ele>7.6</ele>
        <time>2020-05-31T20:19:54Z</time>
      </trkpt>
      <trkpt lat="46.15595" lon="-1.16586">
        <ele>7.7</ele>
        <time>2020-05-31T20:19:55Z</time>
      </trkpt>
      <trkpt lat="46.15595" lon="-1.16591">
        <ele>7.7</ele>
        <time>2020-05-31T20:19:56Z</time>
      </trkpt>
      <trkpt lat="46.15594" lon="-1.16597">
        <ele>7.8</ele>
        <time>2020-05-31T20:19:57Z</time>
      </trkpt>
      <trkpt lat="46.15593" lon="-1.16603">
        <ele>7.9</ele>
        <time>2020-05-31T20:19:58Z</time>
      </trkpt>
      <trkpt lat="46.15594" lon="-1.1661">
        <ele>8</ele>
        <time>2020-05-31T20:19:59Z</time>
      </trkpt>
      <trkpt lat="46.15592" lon="-1.16616">
        <ele>8.1</ele>
        <time>2020-05-31T20:20:00Z</time>
      </trkpt>
      <trkpt lat="46.1559" lon="-1.16623">
        <ele>8.2</ele>
        <time>2020-05-31T20:20:01Z</time>
      </trkpt>
      <trkpt lat="46.15593" lon="-1.16628">
        <ele>8.3</ele>
        <time>2020-05-31T20:20:02Z</time>
      </trkpt>
      <trkpt lat="46.15594" lon="-1.16631">
        <ele>8.5</ele>
        <time>2020-05-31T20:20:03Z</time>
      </trkpt>
      <trkpt lat="46.15597" lon="-1.16631">
        <ele>8.5</ele>
        <time>2020-05-31T20:20:04Z</time>
      </trkpt>
      <trkpt lat="46.15598" lon="-1.16632">
        <ele>8.5</ele>
        <time>2020-05-31T20:20:05Z</time>
      </trkpt>
      <trkpt lat="46.15602" lon="-1.16633">
        <ele>8.6</ele>
        <time>2020-05-31T20:20:06Z</time>
      </trkpt>
      <trkpt lat="46.15606" lon="-1.16633">
        <ele>8.6</ele>
        <time>2020-05-31T20:20:07Z</time>
      </trkpt>
      <trkpt lat="46.15611" lon="-1.16631">
        <ele>8.7</ele>
        <time>2020-05-31T20:20:08Z</time>
      </trkpt>
      <trkpt lat="46.15617" lon="-1.16632">
        <ele>8.7</ele>
        <time>2020-05-31T20:20:09Z</time>
      </trkpt>
      <trkpt lat="46.15623" lon="-1.16631">
        <ele>8.6</ele>
        <time>2020-05-31T20:20:10Z</time>
      </trkpt>
      <trkpt lat="46.15628" lon="-1.16629">
        <ele>8.6</ele>
        <time>2020-05-31T20:20:11Z</time>
      </trkpt>
      <trkpt lat="46.15634" lon="-1.16628">
        <ele>8.5</ele>
        <time>2020-05-31T20:20:12Z</time>
      </trkpt>
      <trkpt lat="46.15638" lon="-1.16625">
        <ele>8.4</ele>
        <time>2020-05-31T20:20:13Z</time>
      </trkpt>
      <trkpt lat="46.15642" lon="-1.16624">
        <ele>8.3</ele>
        <time>2020-05-31T20:20:14Z</time>
      </trkpt>
      <trkpt lat="46.15647" lon="-1.16624">
        <ele>8.3</ele>
        <time>2020-05-31T20:20:15Z</time>
      </trkpt>
      <trkpt lat="46.15651" lon="-1.16624">
        <ele>8.2</ele>
        <time>2020-05-31T20:20:16Z</time>
      </trkpt>
      <trkpt lat="46.15654" lon="-1.16624">
        <ele>8.1</ele>
        <time>2020-05-31T20:20:17Z</time>
      </trkpt>
      <trkpt lat="46.15658" lon="-1.16623">
        <ele>8.1</ele>
        <time>2020-05-31T20:20:18Z</time>
      </trkpt>
      <trkpt lat="46.15664" lon="-1.16625">
        <ele>8</ele>
        <time>2020-05-31T20:20:19Z</time>
      </trkpt>
      <trkpt lat="46.15667" lon="-1.16624">
        <ele>8</ele>
        <time>2020-05-31T20:20:20Z</time>
      </trkpt>
      <trkpt lat="46.1567" lon="-1.16624">
        <ele>7.9</ele>
        <time>2020-05-31T20:20:21Z</time>
      </trkpt>
      <trkpt lat="46.15674" lon="-1.16623">
        <ele>7.9</ele>
        <time>2020-05-31T20:20:22Z</time>
      </trkpt>
      <trkpt lat="46.15676" lon="-1.16623">
        <ele>7.9</ele>
        <time>2020-05-31T20:20:23Z</time>
      </trkpt>
      <trkpt lat="46.15679" lon="-1.16622">
        <ele>7.8</ele>
        <time>2020-05-31T20:20:24Z</time>
      </trkpt>
      <trkpt lat="46.15683" lon="-1.16621">
        <ele>7.8</ele>
        <time>2020-05-31T20:20:25Z</time>
      </trkpt>
      <trkpt lat="46.15686" lon="-1.1662">
        <ele>7.8</ele>
        <time>2020-05-31T20:20:26Z</time>
      </trkpt>
      <trkpt lat="46.15689" lon="-1.16619">
        <ele>7.7</ele>
        <time>2020-05-31T20:20:27Z</time>
      </trkpt>
      <trkpt lat="46.15693" lon="-1.16619">
        <ele>7.7</ele>
        <time>2020-05-31T20:20:28Z</time>
      </trkpt>
      <trkpt lat="46.15698" lon="-1.16617">
        <ele>7.6</ele>
        <time>2020-05-31T20:20:29Z</time>
      </trkpt>
      <trkpt lat="46.15702" lon="-1.16616">
        <ele>7.6</ele>
        <time>2020-05-31T20:20:30Z</time>
      </trkpt>
      <trkpt lat="46.15706" lon="-1.16615">
        <ele>7.5</ele>
        <time>2020-05-31T20:20:31Z</time>
      </trkpt>
      <trkpt lat="46.1571" lon="-1.16614">
        <ele>7.5</ele>
        <time>2020-05-31T20:20:32Z</time>
      </trkpt>
      <trkpt lat="46.15715" lon="-1.16615">
        <ele>7.4</ele>
        <time>2020-05-31T20:20:33Z</time>
      </trkpt>
      <trkpt lat="46.15719" lon="-1.16615">
        <ele>7.4</ele>
        <time>2020-05-31T20:20:34Z</time>
      </trkpt>
      <trkpt lat="46.15723" lon="-1.16616">
        <ele>7.3</ele>
        <time>2020-05-31T20:20:35Z</time>
      </trkpt>
      <trkpt lat="46.15727" lon="-1.16616">
        <ele>7.3</ele>
        <time>2020-05-31T20:20:36Z</time>
      </trkpt>
      <trkpt lat="46.1573" lon="-1.16616">
        <ele>7.2</ele>
        <time>2020-05-31T20:20:37Z</time>
      </trkpt>
      <trkpt lat="46.15735" lon="-1.16617">
        <ele>7.2</ele>
        <time>2020-05-31T20:20:38Z</time>
      </trkpt>
      <trkpt lat="46.15738" lon="-1.16618">
        <ele>7.1</ele>
        <time>2020-05-31T20:20:39Z</time>
      </trkpt>
      <trkpt lat="46.15741" lon="-1.16617">
        <ele>7.1</ele>
        <time>2020-05-31T20:20:40Z</time>
      </trkpt>
      <trkpt lat="46.15744" lon="-1.16614">
        <ele>7</ele>
        <time>2020-05-31T20:20:41Z</time>
      </trkpt>
      <trkpt lat="46.15747" lon="-1.16613">
        <ele>7</ele>
        <time>2020-05-31T20:20:42Z</time>
      </trkpt>
      <trkpt lat="46.15751" lon="-1.16611">
        <ele>7</ele>
        <time>2020-05-31T20:20:43Z</time>
      </trkpt>
      <trkpt lat="46.15754" lon="-1.16609">
        <ele>7</ele>
        <time>2020-05-31T20:20:44Z</time>
      </trkpt>
      <trkpt lat="46.15757" lon="-1.16608">
        <ele>7</ele>
        <time>2020-05-31T20:20:45Z</time>
      </trkpt>
      <trkpt lat="46.15761" lon="-1.16608">
        <ele>6.9</ele>
        <time>2020-05-31T20:20:46Z</time>
      </trkpt>
      <trkpt lat="46.15764" lon="-1.16609">
        <ele>6.8</ele>
        <time>2020-05-31T20:20:47Z</time>
      </trkpt>
      <trkpt lat="46.15767" lon="-1.16608">
        <ele>6.8</ele>
        <time>2020-05-31T20:20:48Z</time>
      </trkpt>
      <trkpt lat="46.15771" lon="-1.16606">
        <ele>6.7</ele>
        <time>2020-05-31T20:20:49Z</time>
      </trkpt>
      <trkpt lat="46.15775" lon="-1.16605">
        <ele>6.6</ele>
        <time>2020-05-31T20:20:50Z</time>
      </trkpt>
      <trkpt lat="46.15779" lon="-1.16604">
        <ele>6.5</ele>
        <time>2020-05-31T20:20:51Z</time>
      </trkpt>
      <trkpt lat="46.15784" lon="-1.16603">
        <ele>6.4</ele>
        <time>2020-05-31T20:20:52Z</time>
      </trkpt>
      <trkpt lat="46.15788" lon="-1.16602">
        <ele>6.3</ele>
        <time>2020-05-31T20:20:53Z</time>
      </trkpt>
      <trkpt lat="46.15791" lon="-1.16602">
        <ele>6.2</ele>
        <time>2020-05-31T20:20:54Z</time>
      </trkpt>
      <trkpt lat="46.15795" lon="-1.16602">
        <ele>6.1</ele>
        <time>2020-05-31T20:20:55Z</time>
      </trkpt>
      <trkpt lat="46.15798" lon="-1.16601">
        <ele>6</ele>
        <time>2020-05-31T20:20:56Z</time>
      </trkpt>
      <trkpt lat="46.15803" lon="-1.166">
        <ele>5.8</ele>
        <time>2020-05-31T20:20:57Z</time>
      </trkpt>
      <trkpt lat="46.15807" lon="-1.166">
        <ele>5.7</ele>
        <time>2020-05-31T20:20:58Z</time>
      </trkpt>
      <trkpt lat="46.15811" lon="-1.166">
        <ele>5.6</ele>
        <time>2020-05-31T20:20:59Z</time>
      </trkpt>
      <trkpt lat="46.15817" lon="-1.16601">
        <ele>5.4</ele>
        <time>2020-05-31T20:21:00Z</time>
      </trkpt>
      <trkpt lat="46.15822" lon="-1.166">
        <ele>5.3</ele>
        <time>2020-05-31T20:21:01Z</time>
      </trkpt>
      <trkpt lat="46.15827" lon="-1.16599">
        <ele>5.2</ele>
        <time>2020-05-31T20:21:02Z</time>
      </trkpt>
      <trkpt lat="46.15832" lon="-1.16598">
        <ele>5.1</ele>
        <time>2020-05-31T20:21:03Z</time>
      </trkpt>
      <trkpt lat="46.15837" lon="-1.16596">
        <ele>5</ele>
        <time>2020-05-31T20:21:04Z</time>
      </trkpt>
      <trkpt lat="46.15841" lon="-1.16595">
        <ele>4.9</ele>
        <time>2020-05-31T20:21:05Z</time>
      </trkpt>
      <trkpt lat="46.15846" lon="-1.16596">
        <ele>4.8</ele>
        <time>2020-05-31T20:21:06Z</time>
      </trkpt>
      <trkpt lat="46.15851" lon="-1.16595">
        <ele>4.7</ele>
        <time>2020-05-31T20:21:07Z</time>
      </trkpt>
      <trkpt lat="46.15855" lon="-1.16593">
        <ele>4.7</ele>
        <time>2020-05-31T20:21:08Z</time>
      </trkpt>
      <trkpt lat="46.1586" lon="-1.16592">
        <ele>4.6</ele>
        <time>2020-05-31T20:21:09Z</time>
      </trkpt>
      <trkpt lat="46.15864" lon="-1.1659">
        <ele>4.5</ele>
        <time>2020-05-31T20:21:10Z</time>
      </trkpt>
      <trkpt lat="46.1587" lon="-1.16591">
        <ele>4.5</ele>
        <time>2020-05-31T20:21:11Z</time>
      </trkpt>
      <trkpt lat="46.15875" lon="-1.1659">
        <ele>4.4</ele>
        <time>2020-05-31T20:21:12Z</time>
      </trkpt>
      <trkpt lat="46.15879" lon="-1.16589">
        <ele>4.4</ele>
        <time>2020-05-31T20:21:13Z</time>
      </trkpt>
      <trkpt lat="46.15884" lon="-1.16589">
        <ele>4.4</ele>
        <time>2020-05-31T20:21:14Z</time>
      </trkpt>
      <trkpt lat="46.15888" lon="-1.16588">
        <ele>4.4</ele>
        <time>2020-05-31T20:21:15Z</time>
      </trkpt>
      <trkpt lat="46.15892" lon="-1.16587">
        <ele>4.4</ele>
        <time>2020-05-31T20:21:16Z</time>
      </trkpt>
      <trkpt lat="46.15895" lon="-1.16588">
        <ele>4.4</ele>
        <time>2020-05-31T20:21:17Z</time>
      </trkpt>
      <trkpt lat="46.15901" lon="-1.16589">
        <ele>4.4</ele>
        <time>2020-05-31T20:21:18Z</time>
      </trkpt>
      <trkpt lat="46.15904" lon="-1.16586">
        <ele>4.5</ele>
        <time>2020-05-31T20:21:19Z</time>
      </trkpt>
      <trkpt lat="46.15907" lon="-1.16585">
        <ele>4.5</ele>
        <time>2020-05-31T20:21:20Z</time>
      </trkpt>
      <trkpt lat="46.15912" lon="-1.16583">
        <ele>4.4</ele>
        <time>2020-05-31T20:21:21Z</time>
      </trkpt>
      <trkpt lat="46.15916" lon="-1.16581">
        <ele>4.4</ele>
        <time>2020-05-31T20:21:22Z</time>
      </trkpt>
      <trkpt lat="46.15921" lon="-1.16581">
        <ele>4.3</ele>
        <time>2020-05-31T20:21:23Z</time>
      </trkpt>
      <trkpt lat="46.15925" lon="-1.1658">
        <ele>4.3</ele>
        <time>2020-05-31T20:21:24Z</time>
      </trkpt>
      <trkpt lat="46.1593" lon="-1.16579">
        <ele>4.2</ele>
        <time>2020-05-31T20:21:25Z</time>
      </trkpt>
      <trkpt lat="46.15934" lon="-1.16577">
        <ele>4.2</ele>
        <time>2020-05-31T20:21:26Z</time>
      </trkpt>
      <trkpt lat="46.15938" lon="-1.16575">
        <ele>4.1</ele>
        <time>2020-05-31T20:21:27Z</time>
      </trkpt>
      <trkpt lat="46.15943" lon="-1.16573">
        <ele>4.1</ele>
        <time>2020-05-31T20:21:28Z</time>
      </trkpt>
      <trkpt lat="46.15948" lon="-1.16572">
        <ele>4</ele>
        <time>2020-05-31T20:21:29Z</time>
      </trkpt>
      <trkpt lat="46.15953" lon="-1.16571">
        <ele>4</ele>
        <time>2020-05-31T20:21:30Z</time>
      </trkpt>
      <trkpt lat="46.15959" lon="-1.16572">
        <ele>3.9</ele>
        <time>2020-05-31T20:21:31Z</time>
      </trkpt>
      <trkpt lat="46.15964" lon="-1.1657">
        <ele>3.9</ele>
        <time>2020-05-31T20:21:32Z</time>
      </trkpt>
      <trkpt lat="46.15968" lon="-1.1657">
        <ele>3.8</ele>
        <time>2020-05-31T20:21:33Z</time>
      </trkpt>
      <trkpt lat="46.15972" lon="-1.16569">
        <ele>3.8</ele>
        <time>2020-05-31T20:21:34Z</time>
      </trkpt>
      <trkpt lat="46.15977" lon="-1.16569">
        <ele>3.8</ele>
        <time>2020-05-31T20:21:35Z</time>
      </trkpt>
      <trkpt lat="46.15982" lon="-1.16567">
        <ele>3.8</ele>
        <time>2020-05-31T20:21:36Z</time>
      </trkpt>
      <trkpt lat="46.15988" lon="-1.16566">
        <ele>3.8</ele>
        <time>2020-05-31T20:21:37Z</time>
      </trkpt>
      <trkpt lat="46.15992" lon="-1.16565">
        <ele>3.9</ele>
        <time>2020-05-31T20:21:38Z</time>
      </trkpt>
      <trkpt lat="46.15997" lon="-1.16565">
        <ele>3.9</ele>
        <time>2020-05-31T20:21:39Z</time>
      </trkpt>
      <trkpt lat="46.16002" lon="-1.16564">
        <ele>3.9</ele>
        <time>2020-05-31T20:21:40Z</time>
      </trkpt>
      <trkpt lat="46.16006" lon="-1.16562">
        <ele>3.9</ele>
        <time>2020-05-31T20:21:41Z</time>
      </trkpt>
      <trkpt lat="46.1601" lon="-1.16563">
        <ele>4</ele>
        <time>2020-05-31T20:21:42Z</time>
      </trkpt>
      <trkpt lat="46.16015" lon="-1.16562">
        <ele>4</ele>
        <time>2020-05-31T20:21:43Z</time>
      </trkpt>
      <trkpt lat="46.16021" lon="-1.16561">
        <ele>4.1</ele>
        <time>2020-05-31T20:21:44Z</time>
      </trkpt>
      <trkpt lat="46.16026" lon="-1.1656">
        <ele>4.1</ele>
        <time>2020-05-31T20:21:45Z</time>
      </trkpt>
      <trkpt lat="46.1603" lon="-1.16559">
        <ele>4.1</ele>
        <time>2020-05-31T20:21:46Z</time>
      </trkpt>
      <trkpt lat="46.16035" lon="-1.16559">
        <ele>4.2</ele>
        <time>2020-05-31T20:21:47Z</time>
      </trkpt>
      <trkpt lat="46.16039" lon="-1.16558">
        <ele>4.2</ele>
        <time>2020-05-31T20:21:48Z</time>
      </trkpt>
      <trkpt lat="46.16044" lon="-1.16557">
        <ele>4.2</ele>
        <time>2020-05-31T20:21:49Z</time>
      </trkpt>
      <trkpt lat="46.16049" lon="-1.16556">
        <ele>4.3</ele>
        <time>2020-05-31T20:21:50Z</time>
      </trkpt>
      <trkpt lat="46.16054" lon="-1.16555">
        <ele>4.3</ele>
        <time>2020-05-31T20:21:51Z</time>
      </trkpt>
      <trkpt lat="46.16059" lon="-1.16554">
        <ele>4.4</ele>
        <time>2020-05-31T20:21:52Z</time>
      </trkpt>
      <trkpt lat="46.16064" lon="-1.16554">
        <ele>4.4</ele>
        <time>2020-05-31T20:21:53Z</time>
      </trkpt>
      <trkpt lat="46.16069" lon="-1.16553">
        <ele>4.4</ele>
        <time>2020-05-31T20:21:54Z</time>
      </trkpt>
      <trkpt lat="46.16074" lon="-1.16553">
        <ele>4.5</ele>
        <time>2020-05-31T20:21:55Z</time>
      </trkpt>
      <trkpt lat="46.16078" lon="-1.16553">
        <ele>4.5</ele>
        <time>2020-05-31T20:21:56Z</time>
      </trkpt>
      <trkpt lat="46.16082" lon="-1.16552">
        <ele>4.5</ele>
        <time>2020-05-31T20:21:57Z</time>
      </trkpt>
      <trkpt lat="46.16086" lon="-1.16551">
        <ele>4.6</ele>
        <time>2020-05-31T20:21:58Z</time>
      </trkpt>
      <trkpt lat="46.1609" lon="-1.16551">
        <ele>4.6</ele>
        <time>2020-05-31T20:21:59Z</time>
      </trkpt>
      <trkpt lat="46.16095" lon="-1.1655">
        <ele>4.6</ele>
        <time>2020-05-31T20:22:00Z</time>
      </trkpt>
      <trkpt lat="46.161" lon="-1.16549">
        <ele>4.6</ele>
        <time>2020-05-31T20:22:01Z</time>
      </trkpt>
      <trkpt lat="46.16104" lon="-1.16548">
        <ele>4.7</ele>
        <time>2020-05-31T20:22:02Z</time>
      </trkpt>
      <trkpt lat="46.16109" lon="-1.16546">
        <ele>4.7</ele>
        <time>2020-05-31T20:22:03Z</time>
      </trkpt>
      <trkpt lat="46.16114" lon="-1.16546">
        <ele>4.7</ele>
        <time>2020-05-31T20:22:04Z</time>
      </trkpt>
      <trkpt lat="46.16119" lon="-1.16546">
        <ele>4.8</ele>
        <time>2020-05-31T20:22:05Z</time>
      </trkpt>
      <trkpt lat="46.16123" lon="-1.16545">
        <ele>4.8</ele>
        <time>2020-05-31T20:22:06Z</time>
      </trkpt>
      <trkpt lat="46.16127" lon="-1.16543">
        <ele>4.8</ele>
        <time>2020-05-31T20:22:07Z</time>
      </trkpt>
      <trkpt lat="46.16131" lon="-1.16543">
        <ele>4.9</ele>
        <time>2020-05-31T20:22:08Z</time>
      </trkpt>
      <trkpt lat="46.16136" lon="-1.16543">
        <ele>4.9</ele>
        <time>2020-05-31T20:22:09Z</time>
      </trkpt>
      <trkpt lat="46.16141" lon="-1.16542">
        <ele>4.9</ele>
        <time>2020-05-31T20:22:10Z</time>
      </trkpt>
      <trkpt lat="46.16145" lon="-1.16542">
        <ele>5</ele>
        <time>2020-05-31T20:22:11Z</time>
      </trkpt>
      <trkpt lat="46.16149" lon="-1.1654">
        <ele>5</ele>
        <time>2020-05-31T20:22:12Z</time>
      </trkpt>
      <trkpt lat="46.16152" lon="-1.16538">
        <ele>5</ele>
        <time>2020-05-31T20:22:13Z</time>
      </trkpt>
      <trkpt lat="46.16157" lon="-1.16537">
        <ele>5</ele>
        <time>2020-05-31T20:22:14Z</time>
      </trkpt>
      <trkpt lat="46.16161" lon="-1.16535">
        <ele>5</ele>
        <time>2020-05-31T20:22:15Z</time>
      </trkpt>
      <trkpt lat="46.16164" lon="-1.16535">
        <ele>5.1</ele>
        <time>2020-05-31T20:22:16Z</time>
      </trkpt>
      <trkpt lat="46.16167" lon="-1.16535">
        <ele>5.1</ele>
        <time>2020-05-31T20:22:17Z</time>
      </trkpt>
      <trkpt lat="46.16172" lon="-1.16533">
        <ele>5.1</ele>
        <time>2020-05-31T20:22:18Z</time>
      </trkpt>
      <trkpt lat="46.16175" lon="-1.16534">
        <ele>5.1</ele>
        <time>2020-05-31T20:22:19Z</time>
      </trkpt>
      <trkpt lat="46.16177" lon="-1.16534">
        <ele>5.1</ele>
        <time>2020-05-31T20:22:20Z</time>
      </trkpt>
      <trkpt lat="46.1618" lon="-1.16533">
        <ele>5.1</ele>
        <time>2020-05-31T20:22:21Z</time>
      </trkpt>
      <trkpt lat="46.16183" lon="-1.16535">
        <ele>5.2</ele>
        <time>2020-05-31T20:22:22Z</time>
      </trkpt>
      <trkpt lat="46.16187" lon="-1.16536">
        <ele>5.2</ele>
        <time>2020-05-31T20:22:23Z</time>
      </trkpt>
      <trkpt lat="46.16188" lon="-1.16536">
        <ele>5.2</ele>
        <time>2020-05-31T20:22:24Z</time>
      </trkpt>
      <trkpt lat="46.16191" lon="-1.16536">
        <ele>5.2</ele>
        <time>2020-05-31T20:22:25Z</time>
      </trkpt>
      <trkpt lat="46.16193" lon="-1.16536">
        <ele>5.2</ele>
        <time>2020-05-31T20:22:26Z</time>
      </trkpt>
      <trkpt lat="46.16196" lon="-1.16535">
        <ele>5.3</ele>
        <time>2020-05-31T20:22:27Z</time>
      </trkpt>
      <trkpt lat="46.16197" lon="-1.16535">
        <ele>5.3</ele>
        <time>2020-05-31T20:22:28Z</time>
      </trkpt>
      <trkpt lat="46.16201" lon="-1.16534">
        <ele>5.3</ele>
        <time>2020-05-31T20:22:29Z</time>
      </trkpt>
      <trkpt lat="46.16202" lon="-1.16534">
        <ele>5.3</ele>
        <time>2020-05-31T20:22:30Z</time>
      </trkpt>
      <trkpt lat="46.16205" lon="-1.16534">
        <ele>5.3</ele>
        <time>2020-05-31T20:22:31Z</time>
      </trkpt>
      <trkpt lat="46.16206" lon="-1.16534">
        <ele>5.3</ele>
        <time>2020-05-31T20:22:32Z</time>
      </trkpt>
      <trkpt lat="46.1621" lon="-1.16534">
        <ele>5.4</ele>
        <time>2020-05-31T20:22:33Z</time>
      </trkpt>
      <trkpt lat="46.16213" lon="-1.16534">
        <ele>5.4</ele>
        <time>2020-05-31T20:22:34Z</time>
      </trkpt>
      <trkpt lat="46.16216" lon="-1.16535">
        <ele>5.4</ele>
        <time>2020-05-31T20:22:35Z</time>
      </trkpt>
      <trkpt lat="46.16216" lon="-1.16535">
        <ele>5.4</ele>
        <time>2020-05-31T20:22:36Z</time>
      </trkpt>
      <trkpt lat="46.16216" lon="-1.1654">
        <ele>5.5</ele>
        <time>2020-05-31T20:22:37Z</time>
      </trkpt>
      <trkpt lat="46.16216" lon="-1.16542">
        <ele>5.5</ele>
        <time>2020-05-31T20:22:38Z</time>
      </trkpt>
      <trkpt lat="46.16213" lon="-1.16543">
        <ele>5.5</ele>
        <time>2020-05-31T20:22:39Z</time>
      </trkpt>
      <trkpt lat="46.16211" lon="-1.16543">
        <ele>5.5</ele>
        <time>2020-05-31T20:22:40Z</time>
      </trkpt>
      <trkpt lat="46.1621" lon="-1.16542">
        <ele>5.5</ele>
        <time>2020-05-31T20:22:41Z</time>
      </trkpt>
      <trkpt lat="46.16208" lon="-1.16542">
        <ele>5.5</ele>
        <time>2020-05-31T20:22:42Z</time>
      </trkpt>
      <trkpt lat="46.16207" lon="-1.16543">
        <ele>5.6</ele>
        <time>2020-05-31T20:22:43Z</time>
      </trkpt>
      <trkpt lat="46.16206" lon="-1.16543">
        <ele>5.6</ele>
        <time>2020-05-31T20:22:44Z</time>
      </trkpt>
      <trkpt lat="46.16206" lon="-1.16543">
        <ele>5.6</ele>
        <time>2020-05-31T20:22:45Z</time>
      </trkpt>
      <trkpt lat="46.16206" lon="-1.16543">
        <ele>5.6</ele>
        <time>2020-05-31T20:22:46Z</time>
      </trkpt>
      <trkpt lat="46.16206" lon="-1.16543">
        <ele>5.6</ele>
        <time>2020-05-31T20:22:47Z</time>
      </trkpt>
      <trkpt lat="46.16205" lon="-1.16543">
        <ele>5.6</ele>
        <time>2020-05-31T20:22:48Z</time>
      </trkpt>
      <trkpt lat="46.16205" lon="-1.16543">
        <ele>5.6</ele>
        <time>2020-05-31T20:22:49Z</time>
      </trkpt>
      <trkpt lat="46.16205" lon="-1.16543">
        <ele>5.6</ele>
        <time>2020-05-31T20:22:50Z</time>
      </trkpt>
      <trkpt lat="46.16205" lon="-1.16542">
        <ele>5.6</ele>
        <time>2020-05-31T20:22:51Z</time>
      </trkpt>
      <trkpt lat="46.16205" lon="-1.16542">
        <ele>5.6</ele>
        <time>2020-05-31T20:22:52Z</time>
      </trkpt>
      <trkpt lat="46.16205" lon="-1.16541">
        <ele>5.6</ele>
        <time>2020-05-31T20:22:53Z</time>
      </trkpt>
      <trkpt lat="46.16205" lon="-1.16541">
        <ele>5.6</ele>
        <time>2020-05-31T20:22:54Z</time>
      </trkpt>
      <trkpt lat="46.16205" lon="-1.16539">
        <ele>5.6</ele>
        <time>2020-05-31T20:22:55Z</time>
      </trkpt>
      <trkpt lat="46.16205" lon="-1.16539">
        <ele>5.6</ele>
        <time>2020-05-31T20:22:56Z</time>
      </trkpt>
      <trkpt lat="46.16204" lon="-1.16539">
        <ele>5.6</ele>
        <time>2020-05-31T20:22:57Z</time>
      </trkpt>
      <trkpt lat="46.16204" lon="-1.16539">
        <ele>5.6</ele>
        <time>2020-05-31T20:22:58Z</time>
      </trkpt>
      <trkpt lat="46.16204" lon="-1.1654">
        <ele>5.6</ele>
        <time>2020-05-31T20:22:59Z</time>
      </trkpt>
      <trkpt lat="46.16204" lon="-1.1654">
        <ele>5.6</ele>
        <time>2020-05-31T20:23:00Z</time>
      </trkpt>
      <trkpt lat="46.16204" lon="-1.1654">
        <ele>5.6</ele>
        <time>2020-05-31T20:23:01Z</time>
      </trkpt>
      <trkpt lat="46.16204" lon="-1.1654">
        <ele>5.6</ele>
        <time>2020-05-31T20:23:02Z</time>
      </trkpt>
      <trkpt lat="46.16204" lon="-1.16539">
        <ele>5.6</ele>
        <time>2020-05-31T20:23:03Z</time>
      </trkpt>
      <trkpt lat="46.16204" lon="-1.16538">
        <ele>5.6</ele>
        <time>2020-05-31T20:23:04Z</time>
      </trkpt>
      <trkpt lat="46.16204" lon="-1.16538">
        <ele>5.6</ele>
        <time>2020-05-31T20:23:05Z</time>
      </trkpt>
      <trkpt lat="46.16204" lon="-1.16538">
        <ele>5.6</ele>
        <time>2020-05-31T20:23:06Z</time>
      </trkpt>
      <trkpt lat="46.16203" lon="-1.16538">
        <ele>5.6</ele>
        <time>2020-05-31T20:23:07Z</time>
      </trkpt>
      <trkpt lat="46.16202" lon="-1.16538">
        <ele>5.6</ele>
        <time>2020-05-31T20:23:08Z</time>
      </trkpt>
      <trkpt lat="46.16203" lon="-1.16538">
        <ele>5.6</ele>
        <time>2020-05-31T20:23:09Z</time>
      </trkpt>
      <trkpt lat="46.16202" lon="-1.16538">
        <ele>5.6</ele>
        <time>2020-05-31T20:23:10Z</time>
      </trkpt>
      <trkpt lat="46.16202" lon="-1.16537">
        <ele>5.6</ele>
        <time>2020-05-31T20:23:11Z</time>
      </trkpt>
      <trkpt lat="46.16253" lon="-1.16525">
        <ele>6.4</ele>
        <time>2020-05-31T20:48:37Z</time>
      </trkpt>
      <trkpt lat="46.16257" lon="-1.16524">
        <ele>6.4</ele>
        <time>2020-05-31T20:48:38Z</time>
      </trkpt>
      <trkpt lat="46.1626" lon="-1.16523">
        <ele>6.5</ele>
        <time>2020-05-31T20:48:39Z</time>
      </trkpt>
      <trkpt lat="46.16264" lon="-1.16522">
        <ele>6.6</ele>
        <time>2020-05-31T20:48:40Z</time>
      </trkpt>
      <trkpt lat="46.16268" lon="-1.16522">
        <ele>6.7</ele>
        <time>2020-05-31T20:48:41Z</time>
      </trkpt>
      <trkpt lat="46.16272" lon="-1.16521">
        <ele>6.8</ele>
        <time>2020-05-31T20:48:42Z</time>
      </trkpt>
      <trkpt lat="46.16276" lon="-1.16519">
        <ele>6.9</ele>
        <time>2020-05-31T20:48:43Z</time>
      </trkpt>
      <trkpt lat="46.16279" lon="-1.16517">
        <ele>7</ele>
        <time>2020-05-31T20:48:44Z</time>
      </trkpt>
      <trkpt lat="46.16282" lon="-1.16516">
        <ele>7.1</ele>
        <time>2020-05-31T20:48:45Z</time>
      </trkpt>
      <trkpt lat="46.16285" lon="-1.16515">
        <ele>7.2</ele>
        <time>2020-05-31T20:48:46Z</time>
      </trkpt>
      <trkpt lat="46.16289" lon="-1.16514">
        <ele>7.3</ele>
        <time>2020-05-31T20:48:47Z</time>
      </trkpt>
      <trkpt lat="46.16294" lon="-1.16516">
        <ele>7.4</ele>
        <time>2020-05-31T20:48:48Z</time>
      </trkpt>
      <trkpt lat="46.16298" lon="-1.16517">
        <ele>7.6</ele>
        <time>2020-05-31T20:48:49Z</time>
      </trkpt>
      <trkpt lat="46.16299" lon="-1.16517">
        <ele>7.6</ele>
        <time>2020-05-31T20:48:50Z</time>
      </trkpt>
      <trkpt lat="46.16303" lon="-1.16519">
        <ele>7.7</ele>
        <time>2020-05-31T20:48:51Z</time>
      </trkpt>
      <trkpt lat="46.16305" lon="-1.1652">
        <ele>7.9</ele>
        <time>2020-05-31T20:48:52Z</time>
      </trkpt>
      <trkpt lat="46.16307" lon="-1.16525">
        <ele>7.9</ele>
        <time>2020-05-31T20:48:53Z</time>
      </trkpt>
      <trkpt lat="46.16309" lon="-1.16531">
        <ele>7.9</ele>
        <time>2020-05-31T20:48:54Z</time>
      </trkpt>
      <trkpt lat="46.16311" lon="-1.16537">
        <ele>7.9</ele>
        <time>2020-05-31T20:48:55Z</time>
      </trkpt>
      <trkpt lat="46.16313" lon="-1.16542">
        <ele>7.9</ele>
        <time>2020-05-31T20:48:56Z</time>
      </trkpt>
      <trkpt lat="46.16314" lon="-1.16548">
        <ele>7.9</ele>
        <time>2020-05-31T20:48:57Z</time>
      </trkpt>
      <trkpt lat="46.16315" lon="-1.16555">
        <ele>8</ele>
        <time>2020-05-31T20:48:58Z</time>
      </trkpt>
      <trkpt lat="46.16316" lon="-1.16561">
        <ele>8</ele>
        <time>2020-05-31T20:48:59Z</time>
      </trkpt>
      <trkpt lat="46.16317" lon="-1.16567">
        <ele>8</ele>
        <time>2020-05-31T20:49:00Z</time>
      </trkpt>
      <trkpt lat="46.16318" lon="-1.16572">
        <ele>8</ele>
        <time>2020-05-31T20:49:01Z</time>
      </trkpt>
      <trkpt lat="46.16319" lon="-1.16579">
        <ele>8</ele>
        <time>2020-05-31T20:49:02Z</time>
      </trkpt>
      <trkpt lat="46.16319" lon="-1.16587">
        <ele>8</ele>
        <time>2020-05-31T20:49:03Z</time>
      </trkpt>
      <trkpt lat="46.1632" lon="-1.16594">
        <ele>8</ele>
        <time>2020-05-31T20:49:04Z</time>
      </trkpt>
      <trkpt lat="46.16321" lon="-1.16602">
        <ele>8</ele>
        <time>2020-05-31T20:49:05Z</time>
      </trkpt>
      <trkpt lat="46.16321" lon="-1.16609">
        <ele>8</ele>
        <time>2020-05-31T20:49:06Z</time>
      </trkpt>
      <trkpt lat="46.16322" lon="-1.16617">
        <ele>8</ele>
        <time>2020-05-31T20:49:07Z</time>
      </trkpt>
      <trkpt lat="46.16323" lon="-1.16624">
        <ele>8.1</ele>
        <time>2020-05-31T20:49:08Z</time>
      </trkpt>
      <trkpt lat="46.16324" lon="-1.16633">
        <ele>8.1</ele>
        <time>2020-05-31T20:49:09Z</time>
      </trkpt>
      <trkpt lat="46.16325" lon="-1.16641">
        <ele>8.2</ele>
        <time>2020-05-31T20:49:10Z</time>
      </trkpt>
      <trkpt lat="46.16326" lon="-1.16648">
        <ele>8.2</ele>
        <time>2020-05-31T20:49:11Z</time>
      </trkpt>
      <trkpt lat="46.16327" lon="-1.16656">
        <ele>8.2</ele>
        <time>2020-05-31T20:49:12Z</time>
      </trkpt>
      <trkpt lat="46.16327" lon="-1.16664">
        <ele>8.2</ele>
        <time>2020-05-31T20:49:13Z</time>
      </trkpt>
      <trkpt lat="46.16328" lon="-1.16672">
        <ele>8.2</ele>
        <time>2020-05-31T20:49:14Z</time>
      </trkpt>
      <trkpt lat="46.16329" lon="-1.1668">
        <ele>8.2</ele>
        <time>2020-05-31T20:49:15Z</time>
      </trkpt>
      <trkpt lat="46.1633" lon="-1.16688">
        <ele>8.2</ele>
        <time>2020-05-31T20:49:16Z</time>
      </trkpt>
      <trkpt lat="46.1633" lon="-1.16697">
        <ele>8.2</ele>
        <time>2020-05-31T20:49:17Z</time>
      </trkpt>
      <trkpt lat="46.16331" lon="-1.16705">
        <ele>8.2</ele>
        <time>2020-05-31T20:49:18Z</time>
      </trkpt>
      <trkpt lat="46.16331" lon="-1.16712">
        <ele>8.2</ele>
        <time>2020-05-31T20:49:19Z</time>
      </trkpt>
      <trkpt lat="46.16332" lon="-1.1672">
        <ele>8.2</ele>
        <time>2020-05-31T20:49:20Z</time>
      </trkpt>
      <trkpt lat="46.16333" lon="-1.16727">
        <ele>8.2</ele>
        <time>2020-05-31T20:49:21Z</time>
      </trkpt>
      <trkpt lat="46.16334" lon="-1.16735">
        <ele>8.2</ele>
        <time>2020-05-31T20:49:22Z</time>
      </trkpt>
      <trkpt lat="46.16335" lon="-1.16742">
        <ele>8.2</ele>
        <time>2020-05-31T20:49:23Z</time>
      </trkpt>
      <trkpt lat="46.16335" lon="-1.16751">
        <ele>8.2</ele>
        <time>2020-05-31T20:49:24Z</time>
      </trkpt>
      <trkpt lat="46.16336" lon="-1.16759">
        <ele>8.2</ele>
        <time>2020-05-31T20:49:25Z</time>
      </trkpt>
      <trkpt lat="46.16337" lon="-1.16768">
        <ele>8.2</ele>
        <time>2020-05-31T20:49:26Z</time>
      </trkpt>
      <trkpt lat="46.16338" lon="-1.16776">
        <ele>8.2</ele>
        <time>2020-05-31T20:49:27Z</time>
      </trkpt>
      <trkpt lat="46.16338" lon="-1.16784">
        <ele>8.1</ele>
        <time>2020-05-31T20:49:28Z</time>
      </trkpt>
      <trkpt lat="46.16339" lon="-1.16792">
        <ele>8.1</ele>
        <time>2020-05-31T20:49:29Z</time>
      </trkpt>
      <trkpt lat="46.1634" lon="-1.16801">
        <ele>8.1</ele>
        <time>2020-05-31T20:49:30Z</time>
      </trkpt>
      <trkpt lat="46.16341" lon="-1.16808">
        <ele>8.1</ele>
        <time>2020-05-31T20:49:31Z</time>
      </trkpt>
      <trkpt lat="46.16342" lon="-1.16815">
        <ele>8.1</ele>
        <time>2020-05-31T20:49:32Z</time>
      </trkpt>
      <trkpt lat="46.16342" lon="-1.16823">
        <ele>8.1</ele>
        <time>2020-05-31T20:49:33Z</time>
      </trkpt>
      <trkpt lat="46.16342" lon="-1.16831">
        <ele>8.1</ele>
        <time>2020-05-31T20:49:34Z</time>
      </trkpt>
      <trkpt lat="46.16343" lon="-1.16838">
        <ele>8.1</ele>
        <time>2020-05-31T20:49:35Z</time>
      </trkpt>
      <trkpt lat="46.16343" lon="-1.16845">
        <ele>8</ele>
        <time>2020-05-31T20:49:36Z</time>
      </trkpt>
      <trkpt lat="46.16344" lon="-1.16852">
        <ele>8</ele>
        <time>2020-05-31T20:49:37Z</time>
      </trkpt>
      <trkpt lat="46.16346" lon="-1.16859">
        <ele>8</ele>
        <time>2020-05-31T20:49:38Z</time>
      </trkpt>
      <trkpt lat="46.16346" lon="-1.16867">
        <ele>8</ele>
        <time>2020-05-31T20:49:39Z</time>
      </trkpt>
      <trkpt lat="46.16347" lon="-1.16875">
        <ele>8</ele>
        <time>2020-05-31T20:49:40Z</time>
      </trkpt>
      <trkpt lat="46.16348" lon="-1.16883">
        <ele>8</ele>
        <time>2020-05-31T20:49:41Z</time>
      </trkpt>
      <trkpt lat="46.16348" lon="-1.16891">
        <ele>8.1</ele>
        <time>2020-05-31T20:49:42Z</time>
      </trkpt>
      <trkpt lat="46.16349" lon="-1.16899">
        <ele>8.1</ele>
        <time>2020-05-31T20:49:43Z</time>
      </trkpt>
      <trkpt lat="46.1635" lon="-1.16908">
        <ele>8.1</ele>
        <time>2020-05-31T20:49:44Z</time>
      </trkpt>
      <trkpt lat="46.1635" lon="-1.16914">
        <ele>8.1</ele>
        <time>2020-05-31T20:49:45Z</time>
      </trkpt>
      <trkpt lat="46.16351" lon="-1.16922">
        <ele>8.1</ele>
        <time>2020-05-31T20:49:46Z</time>
      </trkpt>
      <trkpt lat="46.16352" lon="-1.16929">
        <ele>8.1</ele>
        <time>2020-05-31T20:49:47Z</time>
      </trkpt>
      <trkpt lat="46.16353" lon="-1.16936">
        <ele>8.1</ele>
        <time>2020-05-31T20:49:48Z</time>
      </trkpt>
      <trkpt lat="46.16354" lon="-1.16945">
        <ele>8.1</ele>
        <time>2020-05-31T20:49:49Z</time>
      </trkpt>
      <trkpt lat="46.16355" lon="-1.16952">
        <ele>8.2</ele>
        <time>2020-05-31T20:49:50Z</time>
      </trkpt>
      <trkpt lat="46.16356" lon="-1.1696">
        <ele>8.3</ele>
        <time>2020-05-31T20:49:51Z</time>
      </trkpt>
      <trkpt lat="46.16356" lon="-1.16966">
        <ele>8.5</ele>
        <time>2020-05-31T20:49:52Z</time>
      </trkpt>
      <trkpt lat="46.16358" lon="-1.16973">
        <ele>8.6</ele>
        <time>2020-05-31T20:49:53Z</time>
      </trkpt>
      <trkpt lat="46.16359" lon="-1.1698">
        <ele>8.7</ele>
        <time>2020-05-31T20:49:54Z</time>
      </trkpt>
      <trkpt lat="46.1636" lon="-1.16986">
        <ele>8.8</ele>
        <time>2020-05-31T20:49:55Z</time>
      </trkpt>
      <trkpt lat="46.16361" lon="-1.16993">
        <ele>8.9</ele>
        <time>2020-05-31T20:49:56Z</time>
      </trkpt>
      <trkpt lat="46.16362" lon="-1.16999">
        <ele>9.1</ele>
        <time>2020-05-31T20:49:57Z</time>
      </trkpt>
      <trkpt lat="46.16362" lon="-1.17008">
        <ele>9.3</ele>
        <time>2020-05-31T20:49:58Z</time>
      </trkpt>
      <trkpt lat="46.16363" lon="-1.17016">
        <ele>9.5</ele>
        <time>2020-05-31T20:49:59Z</time>
      </trkpt>
      <trkpt lat="46.16364" lon="-1.17024">
        <ele>9.7</ele>
        <time>2020-05-31T20:50:00Z</time>
      </trkpt>
      <trkpt lat="46.16365" lon="-1.17032">
        <ele>9.9</ele>
        <time>2020-05-31T20:50:01Z</time>
      </trkpt>
      <trkpt lat="46.16366" lon="-1.17039">
        <ele>10.2</ele>
        <time>2020-05-31T20:50:02Z</time>
      </trkpt>
      <trkpt lat="46.16366" lon="-1.17046">
        <ele>10.4</ele>
        <time>2020-05-31T20:50:03Z</time>
      </trkpt>
      <trkpt lat="46.16367" lon="-1.17052">
        <ele>10.6</ele>
        <time>2020-05-31T20:50:04Z</time>
      </trkpt>
      <trkpt lat="46.16367" lon="-1.17057">
        <ele>10.7</ele>
        <time>2020-05-31T20:50:05Z</time>
      </trkpt>
      <trkpt lat="46.16367" lon="-1.17064">
        <ele>10.9</ele>
        <time>2020-05-31T20:50:06Z</time>
      </trkpt>
      <trkpt lat="46.16367" lon="-1.1707">
        <ele>11.1</ele>
        <time>2020-05-31T20:50:07Z</time>
      </trkpt>
      <trkpt lat="46.16367" lon="-1.17076">
        <ele>11.3</ele>
        <time>2020-05-31T20:50:08Z</time>
      </trkpt>
      <trkpt lat="46.16366" lon="-1.17081">
        <ele>11.3</ele>
        <time>2020-05-31T20:50:09Z</time>
      </trkpt>
      <trkpt lat="46.16368" lon="-1.17087">
        <ele>11.4</ele>
        <time>2020-05-31T20:50:10Z</time>
      </trkpt>
      <trkpt lat="46.16369" lon="-1.17092">
        <ele>11.5</ele>
        <time>2020-05-31T20:50:11Z</time>
      </trkpt>
      <trkpt lat="46.1637" lon="-1.17097">
        <ele>11.6</ele>
        <time>2020-05-31T20:50:12Z</time>
      </trkpt>
      <trkpt lat="46.16371" lon="-1.17102">
        <ele>11.6</ele>
        <time>2020-05-31T20:50:13Z</time>
      </trkpt>
      <trkpt lat="46.16371" lon="-1.17109">
        <ele>11.8</ele>
        <time>2020-05-31T20:50:14Z</time>
      </trkpt>
      <trkpt lat="46.16372" lon="-1.17115">
        <ele>11.8</ele>
        <time>2020-05-31T20:50:15Z</time>
      </trkpt>
      <trkpt lat="46.16371" lon="-1.17121">
        <ele>11.9</ele>
        <time>2020-05-31T20:50:16Z</time>
      </trkpt>
      <trkpt lat="46.16372" lon="-1.17127">
        <ele>11.9</ele>
        <time>2020-05-31T20:50:17Z</time>
      </trkpt>
      <trkpt lat="46.16373" lon="-1.17133">
        <ele>12</ele>
        <time>2020-05-31T20:50:18Z</time>
      </trkpt>
      <trkpt lat="46.16374" lon="-1.1714">
        <ele>12.1</ele>
        <time>2020-05-31T20:50:19Z</time>
      </trkpt>
      <trkpt lat="46.16375" lon="-1.17147">
        <ele>12.2</ele>
        <time>2020-05-31T20:50:20Z</time>
      </trkpt>
      <trkpt lat="46.16375" lon="-1.17153">
        <ele>12.3</ele>
        <time>2020-05-31T20:50:21Z</time>
      </trkpt>
      <trkpt lat="46.16376" lon="-1.1716">
        <ele>12.4</ele>
        <time>2020-05-31T20:50:22Z</time>
      </trkpt>
      <trkpt lat="46.16377" lon="-1.17168">
        <ele>12.5</ele>
        <time>2020-05-31T20:50:23Z</time>
      </trkpt>
      <trkpt lat="46.16377" lon="-1.17175">
        <ele>12.6</ele>
        <time>2020-05-31T20:50:24Z</time>
      </trkpt>
      <trkpt lat="46.16378" lon="-1.17182">
        <ele>12.7</ele>
        <time>2020-05-31T20:50:25Z</time>
      </trkpt>
      <trkpt lat="46.16379" lon="-1.17188">
        <ele>12.8</ele>
        <time>2020-05-31T20:50:26Z</time>
      </trkpt>
      <trkpt lat="46.16379" lon="-1.17194">
        <ele>12.8</ele>
        <time>2020-05-31T20:50:27Z</time>
      </trkpt>
      <trkpt lat="46.1638" lon="-1.17199">
        <ele>12.9</ele>
        <time>2020-05-31T20:50:28Z</time>
      </trkpt>
      <trkpt lat="46.1638" lon="-1.17205">
        <ele>12.9</ele>
        <time>2020-05-31T20:50:29Z</time>
      </trkpt>
      <trkpt lat="46.16382" lon="-1.17211">
        <ele>13</ele>
        <time>2020-05-31T20:50:30Z</time>
      </trkpt>
      <trkpt lat="46.16382" lon="-1.17218">
        <ele>13.1</ele>
        <time>2020-05-31T20:50:31Z</time>
      </trkpt>
      <trkpt lat="46.16383" lon="-1.17225">
        <ele>13.2</ele>
        <time>2020-05-31T20:50:32Z</time>
      </trkpt>
      <trkpt lat="46.16383" lon="-1.17231">
        <ele>13.3</ele>
        <time>2020-05-31T20:50:33Z</time>
      </trkpt>
      <trkpt lat="46.16384" lon="-1.17238">
        <ele>13.4</ele>
        <time>2020-05-31T20:50:34Z</time>
      </trkpt>
      <trkpt lat="46.16384" lon="-1.17245">
        <ele>13.5</ele>
        <time>2020-05-31T20:50:35Z</time>
      </trkpt>
      <trkpt lat="46.16385" lon="-1.17252">
        <ele>13.6</ele>
        <time>2020-05-31T20:50:36Z</time>
      </trkpt>
      <trkpt lat="46.16386" lon="-1.17258">
        <ele>13.8</ele>
        <time>2020-05-31T20:50:37Z</time>
      </trkpt>
      <trkpt lat="46.16387" lon="-1.17264">
        <ele>13.9</ele>
        <time>2020-05-31T20:50:38Z</time>
      </trkpt>
      <trkpt lat="46.16387" lon="-1.17269">
        <ele>14</ele>
        <time>2020-05-31T20:50:39Z</time>
      </trkpt>
      <trkpt lat="46.16388" lon="-1.17276">
        <ele>14.1</ele>
        <time>2020-05-31T20:50:40Z</time>
      </trkpt>
      <trkpt lat="46.16389" lon="-1.17283">
        <ele>14.2</ele>
        <time>2020-05-31T20:50:41Z</time>
      </trkpt>
      <trkpt lat="46.1639" lon="-1.17288">
        <ele>14.4</ele>
        <time>2020-05-31T20:50:42Z</time>
      </trkpt>
      <trkpt lat="46.16391" lon="-1.17295">
        <ele>14.5</ele>
        <time>2020-05-31T20:50:43Z</time>
      </trkpt>
      <trkpt lat="46.16392" lon="-1.17301">
        <ele>14.6</ele>
        <time>2020-05-31T20:50:44Z</time>
      </trkpt>
      <trkpt lat="46.16393" lon="-1.17307">
        <ele>14.8</ele>
        <time>2020-05-31T20:50:45Z</time>
      </trkpt>
      <trkpt lat="46.16394" lon="-1.17313">
        <ele>14.9</ele>
        <time>2020-05-31T20:50:46Z</time>
      </trkpt>
      <trkpt lat="46.16394" lon="-1.17319">
        <ele>15.1</ele>
        <time>2020-05-31T20:50:47Z</time>
      </trkpt>
      <trkpt lat="46.16394" lon="-1.17325">
        <ele>15.2</ele>
        <time>2020-05-31T20:50:48Z</time>
      </trkpt>
      <trkpt lat="46.16394" lon="-1.17332">
        <ele>15.4</ele>
        <time>2020-05-31T20:50:49Z</time>
      </trkpt>
      <trkpt lat="46.16395" lon="-1.17338">
        <ele>15.6</ele>
        <time>2020-05-31T20:50:50Z</time>
      </trkpt>
      <trkpt lat="46.16395" lon="-1.17344">
        <ele>15.7</ele>
        <time>2020-05-31T20:50:51Z</time>
      </trkpt>
      <trkpt lat="46.16396" lon="-1.1735">
        <ele>15.8</ele>
        <time>2020-05-31T20:50:52Z</time>
      </trkpt>
      <trkpt lat="46.16397" lon="-1.17356">
        <ele>15.9</ele>
        <time>2020-05-31T20:50:53Z</time>
      </trkpt>
      <trkpt lat="46.16398" lon="-1.17363">
        <ele>16</ele>
        <time>2020-05-31T20:50:54Z</time>
      </trkpt>
      <trkpt lat="46.16398" lon="-1.17369">
        <ele>16.1</ele>
        <time>2020-05-31T20:50:55Z</time>
      </trkpt>
      <trkpt lat="46.16399" lon="-1.17375">
        <ele>16.2</ele>
        <time>2020-05-31T20:50:56Z</time>
      </trkpt>
      <trkpt lat="46.16399" lon="-1.1738">
        <ele>16.3</ele>
        <time>2020-05-31T20:50:57Z</time>
      </trkpt>
      <trkpt lat="46.16399" lon="-1.17386">
        <ele>16.4</ele>
        <time>2020-05-31T20:50:58Z</time>
      </trkpt>
      <trkpt lat="46.16399" lon="-1.17392">
        <ele>16.5</ele>
        <time>2020-05-31T20:50:59Z</time>
      </trkpt>
      <trkpt lat="46.164" lon="-1.17398">
        <ele>16.7</ele>
        <time>2020-05-31T20:51:00Z</time>
      </trkpt>
      <trkpt lat="46.164" lon="-1.17404">
        <ele>16.8</ele>
        <time>2020-05-31T20:51:01Z</time>
      </trkpt>
      <trkpt lat="46.16401" lon="-1.1741">
        <ele>16.9</ele>
        <time>2020-05-31T20:51:02Z</time>
      </trkpt>
      <trkpt lat="46.16402" lon="-1.17416">
        <ele>17</ele>
        <time>2020-05-31T20:51:03Z</time>
      </trkpt>
      <trkpt lat="46.16403" lon="-1.17421">
        <ele>17.1</ele>
        <time>2020-05-31T20:51:04Z</time>
      </trkpt>
      <trkpt lat="46.16404" lon="-1.17428">
        <ele>17.3</ele>
        <time>2020-05-31T20:51:05Z</time>
      </trkpt>
      <trkpt lat="46.16405" lon="-1.17435">
        <ele>17.4</ele>
        <time>2020-05-31T20:51:06Z</time>
      </trkpt>
      <trkpt lat="46.16405" lon="-1.17439">
        <ele>17.4</ele>
        <time>2020-05-31T20:51:07Z</time>
      </trkpt>
      <trkpt lat="46.16406" lon="-1.17446">
        <ele>17.5</ele>
        <time>2020-05-31T20:51:08Z</time>
      </trkpt>
      <trkpt lat="46.16407" lon="-1.17451">
        <ele>17.6</ele>
        <time>2020-05-31T20:51:09Z</time>
      </trkpt>
      <trkpt lat="46.16407" lon="-1.17456">
        <ele>17.7</ele>
        <time>2020-05-31T20:51:10Z</time>
      </trkpt>
      <trkpt lat="46.16409" lon="-1.17461">
        <ele>17.8</ele>
        <time>2020-05-31T20:51:11Z</time>
      </trkpt>
      <trkpt lat="46.1641" lon="-1.17466">
        <ele>17.9</ele>
        <time>2020-05-31T20:51:12Z</time>
      </trkpt>
      <trkpt lat="46.1641" lon="-1.17471">
        <ele>18</ele>
        <time>2020-05-31T20:51:13Z</time>
      </trkpt>
      <trkpt lat="46.16412" lon="-1.17475">
        <ele>18.2</ele>
        <time>2020-05-31T20:51:14Z</time>
      </trkpt>
      <trkpt lat="46.16413" lon="-1.1748">
        <ele>18.3</ele>
        <time>2020-05-31T20:51:15Z</time>
      </trkpt>
      <trkpt lat="46.16413" lon="-1.17482">
        <ele>18.4</ele>
        <time>2020-05-31T20:51:16Z</time>
      </trkpt>
      <trkpt lat="46.16413" lon="-1.17485">
        <ele>18.4</ele>
        <time>2020-05-31T20:51:17Z</time>
      </trkpt>
      <trkpt lat="46.16414" lon="-1.17486">
        <ele>18.4</ele>
        <time>2020-05-31T20:51:18Z</time>
      </trkpt>
      <trkpt lat="46.16413" lon="-1.17486">
        <ele>18.5</ele>
        <time>2020-05-31T20:51:19Z</time>
      </trkpt>
      <trkpt lat="46.16414" lon="-1.17485">
        <ele>18.5</ele>
        <time>2020-05-31T20:51:20Z</time>
      </trkpt>
      <trkpt lat="46.16414" lon="-1.17485">
        <ele>18.5</ele>
        <time>2020-05-31T20:51:21Z</time>
      </trkpt>
      <trkpt lat="46.16414" lon="-1.17486">
        <ele>18.5</ele>
        <time>2020-05-31T20:51:22Z</time>
      </trkpt>
      <trkpt lat="46.16414" lon="-1.17486">
        <ele>18.5</ele>
        <time>2020-05-31T20:51:23Z</time>
      </trkpt>
      <trkpt lat="46.16415" lon="-1.17486">
        <ele>18.5</ele>
        <time>2020-05-31T20:51:24Z</time>
      </trkpt>
      <trkpt lat="46.16415" lon="-1.17486">
        <ele>18.6</ele>
        <time>2020-05-31T20:51:25Z</time>
      </trkpt>
      <trkpt lat="46.16415" lon="-1.17487">
        <ele>18.6</ele>
        <time>2020-05-31T20:51:26Z</time>
      </trkpt>
      <trkpt lat="46.16415" lon="-1.17487">
        <ele>18.6</ele>
        <time>2020-05-31T20:51:27Z</time>
      </trkpt>
      <trkpt lat="46.16415" lon="-1.17487">
        <ele>18.6</ele>
        <time>2020-05-31T20:51:28Z</time>
      </trkpt>
      <trkpt lat="46.16415" lon="-1.17487">
        <ele>18.6</ele>
        <time>2020-05-31T20:51:29Z</time>
      </trkpt>
      <trkpt lat="46.16415" lon="-1.17488">
        <ele>18.6</ele>
        <time>2020-05-31T20:51:30Z</time>
      </trkpt>
      <trkpt lat="46.16415" lon="-1.17488">
        <ele>18.6</ele>
        <time>2020-05-31T20:51:31Z</time>
      </trkpt>
      <trkpt lat="46.16415" lon="-1.17488">
        <ele>18.6</ele>
        <time>2020-05-31T20:51:32Z</time>
      </trkpt>
      <trkpt lat="46.16415" lon="-1.17488">
        <ele>18.6</ele>
        <time>2020-05-31T20:51:33Z</time>
      </trkpt>
      <trkpt lat="46.16415" lon="-1.17488">
        <ele>18.6</ele>
        <time>2020-05-31T20:51:34Z</time>
      </trkpt>
      <trkpt lat="46.16415" lon="-1.17489">
        <ele>18.6</ele>
        <time>2020-05-31T20:51:35Z</time>
      </trkpt>
      <trkpt lat="46.16415" lon="-1.17489">
        <ele>18.6</ele>
        <time>2020-05-31T20:51:36Z</time>
      </trkpt>
      <trkpt lat="46.16415" lon="-1.17489">
        <ele>18.6</ele>
        <time>2020-05-31T20:51:37Z</time>
      </trkpt>
      <trkpt lat="46.16415" lon="-1.17489">
        <ele>18.6</ele>
        <time>2020-05-31T20:51:38Z</time>
      </trkpt>
      <trkpt lat="46.16414" lon="-1.1749">
        <ele>18.6</ele>
        <time>2020-05-31T20:51:39Z</time>
      </trkpt>
      <trkpt lat="46.16414" lon="-1.1749">
        <ele>18.6</ele>
        <time>2020-05-31T20:51:40Z</time>
      </trkpt>
      <trkpt lat="46.16414" lon="-1.1749">
        <ele>18.7</ele>
        <time>2020-05-31T20:51:41Z</time>
      </trkpt>
      <trkpt lat="46.16414" lon="-1.1749">
        <ele>18.7</ele>
        <time>2020-05-31T20:51:42Z</time>
      </trkpt>
      <trkpt lat="46.16414" lon="-1.1749">
        <ele>18.7</ele>
        <time>2020-05-31T20:51:43Z</time>
      </trkpt>
      <trkpt lat="46.16414" lon="-1.17491">
        <ele>18.7</ele>
        <time>2020-05-31T20:51:44Z</time>
      </trkpt>
      <trkpt lat="46.16414" lon="-1.17491">
        <ele>18.7</ele>
        <time>2020-05-31T20:51:45Z</time>
      </trkpt>
      <trkpt lat="46.16414" lon="-1.17491">
        <ele>18.7</ele>
        <time>2020-05-31T20:51:46Z</time>
      </trkpt>
      <trkpt lat="46.16414" lon="-1.17491">
        <ele>18.7</ele>
        <time>2020-05-31T20:51:47Z</time>
      </trkpt>
      <trkpt lat="46.16414" lon="-1.17492">
        <ele>18.7</ele>
        <time>2020-05-31T20:51:48Z</time>
      </trkpt>
      <trkpt lat="46.16414" lon="-1.17492">
        <ele>18.7</ele>
        <time>2020-05-31T20:51:49Z</time>
      </trkpt>
      <trkpt lat="46.16414" lon="-1.17492">
        <ele>18.7</ele>
        <time>2020-05-31T20:51:50Z</time>
      </trkpt>
      <trkpt lat="46.16414" lon="-1.17492">
        <ele>18.7</ele>
        <time>2020-05-31T20:51:51Z</time>
      </trkpt>
      <trkpt lat="46.16414" lon="-1.17492">
        <ele>18.7</ele>
        <time>2020-05-31T20:51:52Z</time>
      </trkpt>
      <trkpt lat="46.16415" lon="-1.17497">
        <ele>18.8</ele>
        <time>2020-05-31T20:51:53Z</time>
      </trkpt>
      <trkpt lat="46.16415" lon="-1.17503">
        <ele>18.9</ele>
        <time>2020-05-31T20:51:54Z</time>
      </trkpt>
      <trkpt lat="46.16415" lon="-1.17508">
        <ele>19</ele>
        <time>2020-05-31T20:51:55Z</time>
      </trkpt>
      <trkpt lat="46.16416" lon="-1.17514">
        <ele>19.1</ele>
        <time>2020-05-31T20:51:56Z</time>
      </trkpt>
      <trkpt lat="46.16416" lon="-1.1752">
        <ele>19.2</ele>
        <time>2020-05-31T20:51:57Z</time>
      </trkpt>
      <trkpt lat="46.16416" lon="-1.17526">
        <ele>19.3</ele>
        <time>2020-05-31T20:51:58Z</time>
      </trkpt>
      <trkpt lat="46.16417" lon="-1.17531">
        <ele>19.4</ele>
        <time>2020-05-31T20:51:59Z</time>
      </trkpt>
      <trkpt lat="46.16417" lon="-1.17537">
        <ele>19.4</ele>
        <time>2020-05-31T20:52:00Z</time>
      </trkpt>
      <trkpt lat="46.16418" lon="-1.17543">
        <ele>19.6</ele>
        <time>2020-05-31T20:52:01Z</time>
      </trkpt>
      <trkpt lat="46.16419" lon="-1.1755">
        <ele>19.7</ele>
        <time>2020-05-31T20:52:02Z</time>
      </trkpt>
      <trkpt lat="46.16421" lon="-1.17555">
        <ele>19.7</ele>
        <time>2020-05-31T20:52:03Z</time>
      </trkpt>
      <trkpt lat="46.16422" lon="-1.1756">
        <ele>19.7</ele>
        <time>2020-05-31T20:52:04Z</time>
      </trkpt>
      <trkpt lat="46.16423" lon="-1.17566">
        <ele>19.8</ele>
        <time>2020-05-31T20:52:05Z</time>
      </trkpt>
      <trkpt lat="46.16424" lon="-1.17571">
        <ele>19.8</ele>
        <time>2020-05-31T20:52:06Z</time>
      </trkpt>
      <trkpt lat="46.16424" lon="-1.17577">
        <ele>20.1</ele>
        <time>2020-05-31T20:52:07Z</time>
      </trkpt>
      <trkpt lat="46.16424" lon="-1.17583">
        <ele>20.1</ele>
        <time>2020-05-31T20:52:08Z</time>
      </trkpt>
      <trkpt lat="46.16424" lon="-1.17588">
        <ele>20.1</ele>
        <time>2020-05-31T20:52:09Z</time>
      </trkpt>
      <trkpt lat="46.16424" lon="-1.17595">
        <ele>20.1</ele>
        <time>2020-05-31T20:52:10Z</time>
      </trkpt>
      <trkpt lat="46.16424" lon="-1.17601">
        <ele>20.2</ele>
        <time>2020-05-31T20:52:11Z</time>
      </trkpt>
      <trkpt lat="46.16424" lon="-1.17609">
        <ele>20.2</ele>
        <time>2020-05-31T20:52:12Z</time>
      </trkpt>
      <trkpt lat="46.16425" lon="-1.17616">
        <ele>20.3</ele>
        <time>2020-05-31T20:52:13Z</time>
      </trkpt>
      <trkpt lat="46.16424" lon="-1.17623">
        <ele>20.4</ele>
        <time>2020-05-31T20:52:14Z</time>
      </trkpt>
      <trkpt lat="46.16425" lon="-1.1763">
        <ele>20.5</ele>
        <time>2020-05-31T20:52:15Z</time>
      </trkpt>
      <trkpt lat="46.16426" lon="-1.17637">
        <ele>20.6</ele>
        <time>2020-05-31T20:52:16Z</time>
      </trkpt>
      <trkpt lat="46.16427" lon="-1.17643">
        <ele>20.7</ele>
        <time>2020-05-31T20:52:17Z</time>
      </trkpt>
      <trkpt lat="46.16427" lon="-1.17649">
        <ele>20.8</ele>
        <time>2020-05-31T20:52:18Z</time>
      </trkpt>
      <trkpt lat="46.16427" lon="-1.17657">
        <ele>20.8</ele>
        <time>2020-05-31T20:52:19Z</time>
      </trkpt>
      <trkpt lat="46.16428" lon="-1.17665">
        <ele>20.9</ele>
        <time>2020-05-31T20:52:20Z</time>
      </trkpt>
      <trkpt lat="46.16429" lon="-1.17672">
        <ele>20.9</ele>
        <time>2020-05-31T20:52:21Z</time>
      </trkpt>
      <trkpt lat="46.1643" lon="-1.17679">
        <ele>20.9</ele>
        <time>2020-05-31T20:52:22Z</time>
      </trkpt>
      <trkpt lat="46.16432" lon="-1.17686">
        <ele>20.8</ele>
        <time>2020-05-31T20:52:23Z</time>
      </trkpt>
      <trkpt lat="46.16433" lon="-1.17695">
        <ele>20.8</ele>
        <time>2020-05-31T20:52:24Z</time>
      </trkpt>
      <trkpt lat="46.16435" lon="-1.17704">
        <ele>20.7</ele>
        <time>2020-05-31T20:52:25Z</time>
      </trkpt>
      <trkpt lat="46.16437" lon="-1.17713">
        <ele>20.7</ele>
        <time>2020-05-31T20:52:26Z</time>
      </trkpt>
      <trkpt lat="46.16438" lon="-1.17723">
        <ele>20.6</ele>
        <time>2020-05-31T20:52:27Z</time>
      </trkpt>
      <trkpt lat="46.16439" lon="-1.17732">
        <ele>20.5</ele>
        <time>2020-05-31T20:52:28Z</time>
      </trkpt>
      <trkpt lat="46.16441" lon="-1.17741">
        <ele>20.5</ele>
        <time>2020-05-31T20:52:29Z</time>
      </trkpt>
      <trkpt lat="46.16442" lon="-1.17749">
        <ele>20.4</ele>
        <time>2020-05-31T20:52:30Z</time>
      </trkpt>
      <trkpt lat="46.16444" lon="-1.17758">
        <ele>20.3</ele>
        <time>2020-05-31T20:52:31Z</time>
      </trkpt>
      <trkpt lat="46.16445" lon="-1.17766">
        <ele>20.3</ele>
        <time>2020-05-31T20:52:32Z</time>
      </trkpt>
      <trkpt lat="46.16447" lon="-1.17776">
        <ele>20.2</ele>
        <time>2020-05-31T20:52:33Z</time>
      </trkpt>
      <trkpt lat="46.16448" lon="-1.17785">
        <ele>20.2</ele>
        <time>2020-05-31T20:52:34Z</time>
      </trkpt>
      <trkpt lat="46.1645" lon="-1.17795">
        <ele>20.1</ele>
        <time>2020-05-31T20:52:35Z</time>
      </trkpt>
      <trkpt lat="46.16452" lon="-1.17804">
        <ele>20</ele>
        <time>2020-05-31T20:52:36Z</time>
      </trkpt>
      <trkpt lat="46.16454" lon="-1.17814">
        <ele>19.9</ele>
        <time>2020-05-31T20:52:37Z</time>
      </trkpt>
      <trkpt lat="46.16456" lon="-1.17822">
        <ele>19.8</ele>
        <time>2020-05-31T20:52:38Z</time>
      </trkpt>
      <trkpt lat="46.16457" lon="-1.17831">
        <ele>19.7</ele>
        <time>2020-05-31T20:52:39Z</time>
      </trkpt>
      <trkpt lat="46.16459" lon="-1.17839">
        <ele>19.6</ele>
        <time>2020-05-31T20:52:40Z</time>
      </trkpt>
      <trkpt lat="46.1646" lon="-1.17849">
        <ele>19.5</ele>
        <time>2020-05-31T20:52:41Z</time>
      </trkpt>
      <trkpt lat="46.16461" lon="-1.17859">
        <ele>19.4</ele>
        <time>2020-05-31T20:52:42Z</time>
      </trkpt>
      <trkpt lat="46.16463" lon="-1.17869">
        <ele>19.3</ele>
        <time>2020-05-31T20:52:43Z</time>
      </trkpt>
      <trkpt lat="46.16464" lon="-1.17877">
        <ele>19.3</ele>
        <time>2020-05-31T20:52:44Z</time>
      </trkpt>
      <trkpt lat="46.16464" lon="-1.17886">
        <ele>19.3</ele>
        <time>2020-05-31T20:52:45Z</time>
      </trkpt>
      <trkpt lat="46.16464" lon="-1.17896">
        <ele>19.1</ele>
        <time>2020-05-31T20:52:46Z</time>
      </trkpt>
      <trkpt lat="46.16464" lon="-1.17905">
        <ele>19</ele>
        <time>2020-05-31T20:52:47Z</time>
      </trkpt>
      <trkpt lat="46.16464" lon="-1.17916">
        <ele>18.9</ele>
        <time>2020-05-31T20:52:48Z</time>
      </trkpt>
      <trkpt lat="46.16463" lon="-1.17925">
        <ele>18.8</ele>
        <time>2020-05-31T20:52:49Z</time>
      </trkpt>
      <trkpt lat="46.16463" lon="-1.17933">
        <ele>18.7</ele>
        <time>2020-05-31T20:52:50Z</time>
      </trkpt>
      <trkpt lat="46.16462" lon="-1.17943">
        <ele>18.6</ele>
        <time>2020-05-31T20:52:51Z</time>
      </trkpt>
      <trkpt lat="46.16462" lon="-1.17952">
        <ele>18.5</ele>
        <time>2020-05-31T20:52:52Z</time>
      </trkpt>
      <trkpt lat="46.16462" lon="-1.17961">
        <ele>18.4</ele>
        <time>2020-05-31T20:52:53Z</time>
      </trkpt>
      <trkpt lat="46.16462" lon="-1.17971">
        <ele>18.2</ele>
        <time>2020-05-31T20:52:54Z</time>
      </trkpt>
      <trkpt lat="46.16462" lon="-1.17981">
        <ele>18.1</ele>
        <time>2020-05-31T20:52:55Z</time>
      </trkpt>
      <trkpt lat="46.16462" lon="-1.17992">
        <ele>18</ele>
        <time>2020-05-31T20:52:56Z</time>
      </trkpt>
      <trkpt lat="46.16462" lon="-1.18001">
        <ele>18</ele>
        <time>2020-05-31T20:52:57Z</time>
      </trkpt>
      <trkpt lat="46.16462" lon="-1.18011">
        <ele>17.9</ele>
        <time>2020-05-31T20:52:58Z</time>
      </trkpt>
      <trkpt lat="46.16462" lon="-1.18021">
        <ele>17.9</ele>
        <time>2020-05-31T20:52:59Z</time>
      </trkpt>
      <trkpt lat="46.16461" lon="-1.18031">
        <ele>17.8</ele>
        <time>2020-05-31T20:53:00Z</time>
      </trkpt>
      <trkpt lat="46.1646" lon="-1.1804">
        <ele>17.7</ele>
        <time>2020-05-31T20:53:01Z</time>
      </trkpt>
      <trkpt lat="46.16459" lon="-1.18052">
        <ele>17.6</ele>
        <time>2020-05-31T20:53:02Z</time>
      </trkpt>
      <trkpt lat="46.16459" lon="-1.18064">
        <ele>17.5</ele>
        <time>2020-05-31T20:53:03Z</time>
      </trkpt>
      <trkpt lat="46.16458" lon="-1.18076">
        <ele>17.3</ele>
        <time>2020-05-31T20:53:04Z</time>
      </trkpt>
      <trkpt lat="46.16459" lon="-1.18088">
        <ele>17.1</ele>
        <time>2020-05-31T20:53:05Z</time>
      </trkpt>
      <trkpt lat="46.16459" lon="-1.181">
        <ele>16.9</ele>
        <time>2020-05-31T20:53:06Z</time>
      </trkpt>
      <trkpt lat="46.16459" lon="-1.18112">
        <ele>16.7</ele>
        <time>2020-05-31T20:53:07Z</time>
      </trkpt>
      <trkpt lat="46.16459" lon="-1.18123">
        <ele>16.5</ele>
        <time>2020-05-31T20:53:08Z</time>
      </trkpt>
      <trkpt lat="46.16459" lon="-1.18133">
        <ele>16.4</ele>
        <time>2020-05-31T20:53:09Z</time>
      </trkpt>
      <trkpt lat="46.16459" lon="-1.18144">
        <ele>16.3</ele>
        <time>2020-05-31T20:53:10Z</time>
      </trkpt>
      <trkpt lat="46.16459" lon="-1.18155">
        <ele>16.2</ele>
        <time>2020-05-31T20:53:11Z</time>
      </trkpt>
      <trkpt lat="46.16459" lon="-1.18165">
        <ele>16.1</ele>
        <time>2020-05-31T20:53:12Z</time>
      </trkpt>
      <trkpt lat="46.16459" lon="-1.18176">
        <ele>16</ele>
        <time>2020-05-31T20:53:13Z</time>
      </trkpt>
      <trkpt lat="46.1646" lon="-1.18186">
        <ele>16</ele>
        <time>2020-05-31T20:53:14Z</time>
      </trkpt>
      <trkpt lat="46.1646" lon="-1.18196">
        <ele>16.1</ele>
        <time>2020-05-31T20:53:15Z</time>
      </trkpt>
      <trkpt lat="46.16461" lon="-1.18205">
        <ele>16.1</ele>
        <time>2020-05-31T20:53:16Z</time>
      </trkpt>
      <trkpt lat="46.16463" lon="-1.18215">
        <ele>16.1</ele>
        <time>2020-05-31T20:53:17Z</time>
      </trkpt>
      <trkpt lat="46.16465" lon="-1.18224">
        <ele>16.1</ele>
        <time>2020-05-31T20:53:18Z</time>
      </trkpt>
      <trkpt lat="46.16467" lon="-1.18233">
        <ele>16.2</ele>
        <time>2020-05-31T20:53:19Z</time>
      </trkpt>
      <trkpt lat="46.16469" lon="-1.18241">
        <ele>16.2</ele>
        <time>2020-05-31T20:53:20Z</time>
      </trkpt>
      <trkpt lat="46.16471" lon="-1.1825">
        <ele>16.3</ele>
        <time>2020-05-31T20:53:21Z</time>
      </trkpt>
      <trkpt lat="46.16472" lon="-1.18259">
        <ele>16.3</ele>
        <time>2020-05-31T20:53:22Z</time>
      </trkpt>
      <trkpt lat="46.16474" lon="-1.18268">
        <ele>16.4</ele>
        <time>2020-05-31T20:53:23Z</time>
      </trkpt>
      <trkpt lat="46.16475" lon="-1.18276">
        <ele>16.4</ele>
        <time>2020-05-31T20:53:24Z</time>
      </trkpt>
      <trkpt lat="46.16477" lon="-1.18283">
        <ele>16.5</ele>
        <time>2020-05-31T20:53:25Z</time>
      </trkpt>
      <trkpt lat="46.16479" lon="-1.18291">
        <ele>16.5</ele>
        <time>2020-05-31T20:53:26Z</time>
      </trkpt>
      <trkpt lat="46.16482" lon="-1.18297">
        <ele>16.5</ele>
        <time>2020-05-31T20:53:27Z</time>
      </trkpt>
      <trkpt lat="46.16483" lon="-1.18304">
        <ele>16.5</ele>
        <time>2020-05-31T20:53:28Z</time>
      </trkpt>
      <trkpt lat="46.16486" lon="-1.18311">
        <ele>16.6</ele>
        <time>2020-05-31T20:53:29Z</time>
      </trkpt>
      <trkpt lat="46.16487" lon="-1.18319">
        <ele>16.6</ele>
        <time>2020-05-31T20:53:30Z</time>
      </trkpt>
      <trkpt lat="46.16489" lon="-1.18326">
        <ele>16.6</ele>
        <time>2020-05-31T20:53:31Z</time>
      </trkpt>
      <trkpt lat="46.16491" lon="-1.18333">
        <ele>16.6</ele>
        <time>2020-05-31T20:53:32Z</time>
      </trkpt>
      <trkpt lat="46.16493" lon="-1.1834">
        <ele>16.7</ele>
        <time>2020-05-31T20:53:33Z</time>
      </trkpt>
      <trkpt lat="46.16495" lon="-1.18347">
        <ele>16.6</ele>
        <time>2020-05-31T20:53:34Z</time>
      </trkpt>
      <trkpt lat="46.16495" lon="-1.18354">
        <ele>16.6</ele>
        <time>2020-05-31T20:53:35Z</time>
      </trkpt>
      <trkpt lat="46.16494" lon="-1.18361">
        <ele>16.4</ele>
        <time>2020-05-31T20:53:36Z</time>
      </trkpt>
      <trkpt lat="46.16492" lon="-1.1837">
        <ele>16.4</ele>
        <time>2020-05-31T20:53:37Z</time>
      </trkpt>
      <trkpt lat="46.1649" lon="-1.18378">
        <ele>16.3</ele>
        <time>2020-05-31T20:53:38Z</time>
      </trkpt>
      <trkpt lat="46.16491" lon="-1.18387">
        <ele>16.2</ele>
        <time>2020-05-31T20:53:39Z</time>
      </trkpt>
      <trkpt lat="46.16491" lon="-1.18396">
        <ele>16.1</ele>
        <time>2020-05-31T20:53:40Z</time>
      </trkpt>
      <trkpt lat="46.16492" lon="-1.18405">
        <ele>16.1</ele>
        <time>2020-05-31T20:53:41Z</time>
      </trkpt>
      <trkpt lat="46.16493" lon="-1.18413">
        <ele>16</ele>
        <time>2020-05-31T20:53:42Z</time>
      </trkpt>
      <trkpt lat="46.16494" lon="-1.18422">
        <ele>16</ele>
        <time>2020-05-31T20:53:43Z</time>
      </trkpt>
      <trkpt lat="46.16495" lon="-1.1843">
        <ele>15.9</ele>
        <time>2020-05-31T20:53:44Z</time>
      </trkpt>
      <trkpt lat="46.16497" lon="-1.18439">
        <ele>15.8</ele>
        <time>2020-05-31T20:53:45Z</time>
      </trkpt>
      <trkpt lat="46.16498" lon="-1.18447">
        <ele>15.7</ele>
        <time>2020-05-31T20:53:46Z</time>
      </trkpt>
      <trkpt lat="46.16499" lon="-1.18456">
        <ele>15.7</ele>
        <time>2020-05-31T20:53:47Z</time>
      </trkpt>
      <trkpt lat="46.16501" lon="-1.18465">
        <ele>15.6</ele>
        <time>2020-05-31T20:53:48Z</time>
      </trkpt>
      <trkpt lat="46.16503" lon="-1.18473">
        <ele>15.6</ele>
        <time>2020-05-31T20:53:49Z</time>
      </trkpt>
      <trkpt lat="46.16505" lon="-1.18481">
        <ele>15.5</ele>
        <time>2020-05-31T20:53:50Z</time>
      </trkpt>
      <trkpt lat="46.16507" lon="-1.1849">
        <ele>15.5</ele>
        <time>2020-05-31T20:53:51Z</time>
      </trkpt>
      <trkpt lat="46.16508" lon="-1.18498">
        <ele>15.5</ele>
        <time>2020-05-31T20:53:52Z</time>
      </trkpt>
      <trkpt lat="46.16509" lon="-1.18507">
        <ele>15.5</ele>
        <time>2020-05-31T20:53:53Z</time>
      </trkpt>
      <trkpt lat="46.16511" lon="-1.18516">
        <ele>15.5</ele>
        <time>2020-05-31T20:53:54Z</time>
      </trkpt>
      <trkpt lat="46.16513" lon="-1.18524">
        <ele>15.5</ele>
        <time>2020-05-31T20:53:55Z</time>
      </trkpt>
      <trkpt lat="46.16514" lon="-1.18533">
        <ele>15.5</ele>
        <time>2020-05-31T20:53:56Z</time>
      </trkpt>
      <trkpt lat="46.16516" lon="-1.18542">
        <ele>15.4</ele>
        <time>2020-05-31T20:53:57Z</time>
      </trkpt>
      <trkpt lat="46.16518" lon="-1.18551">
        <ele>15.4</ele>
        <time>2020-05-31T20:53:58Z</time>
      </trkpt>
      <trkpt lat="46.1652" lon="-1.18559">
        <ele>15.4</ele>
        <time>2020-05-31T20:53:59Z</time>
      </trkpt>
      <trkpt lat="46.16522" lon="-1.18568">
        <ele>15.5</ele>
        <time>2020-05-31T20:54:00Z</time>
      </trkpt>
      <trkpt lat="46.16524" lon="-1.18576">
        <ele>15.5</ele>
        <time>2020-05-31T20:54:01Z</time>
      </trkpt>
      <trkpt lat="46.16526" lon="-1.18585">
        <ele>15.5</ele>
        <time>2020-05-31T20:54:02Z</time>
      </trkpt>
      <trkpt lat="46.16528" lon="-1.18594">
        <ele>15.6</ele>
        <time>2020-05-31T20:54:03Z</time>
      </trkpt>
      <trkpt lat="46.1653" lon="-1.18603">
        <ele>15.6</ele>
        <time>2020-05-31T20:54:04Z</time>
      </trkpt>
      <trkpt lat="46.16532" lon="-1.18612">
        <ele>15.6</ele>
        <time>2020-05-31T20:54:05Z</time>
      </trkpt>
      <trkpt lat="46.16533" lon="-1.1862">
        <ele>15.6</ele>
        <time>2020-05-31T20:54:06Z</time>
      </trkpt>
      <trkpt lat="46.16535" lon="-1.18629">
        <ele>15.6</ele>
        <time>2020-05-31T20:54:07Z</time>
      </trkpt>
      <trkpt lat="46.16537" lon="-1.18637">
        <ele>15.7</ele>
        <time>2020-05-31T20:54:08Z</time>
      </trkpt>
      <trkpt lat="46.16539" lon="-1.18646">
        <ele>15.7</ele>
        <time>2020-05-31T20:54:09Z</time>
      </trkpt>
      <trkpt lat="46.16541" lon="-1.18654">
        <ele>15.6</ele>
        <time>2020-05-31T20:54:10Z</time>
      </trkpt>
      <trkpt lat="46.16543" lon="-1.18663">
        <ele>15.5</ele>
        <time>2020-05-31T20:54:11Z</time>
      </trkpt>
      <trkpt lat="46.16545" lon="-1.18672">
        <ele>15.5</ele>
        <time>2020-05-31T20:54:12Z</time>
      </trkpt>
      <trkpt lat="46.16546" lon="-1.18681">
        <ele>15.4</ele>
        <time>2020-05-31T20:54:13Z</time>
      </trkpt>
      <trkpt lat="46.16549" lon="-1.18691">
        <ele>15.3</ele>
        <time>2020-05-31T20:54:14Z</time>
      </trkpt>
      <trkpt lat="46.16551" lon="-1.187">
        <ele>15.2</ele>
        <time>2020-05-31T20:54:15Z</time>
      </trkpt>
      <trkpt lat="46.16553" lon="-1.18709">
        <ele>15.2</ele>
        <time>2020-05-31T20:54:16Z</time>
      </trkpt>
      <trkpt lat="46.16555" lon="-1.18719">
        <ele>15.1</ele>
        <time>2020-05-31T20:54:17Z</time>
      </trkpt>
      <trkpt lat="46.16557" lon="-1.18728">
        <ele>15</ele>
        <time>2020-05-31T20:54:18Z</time>
      </trkpt>
      <trkpt lat="46.16559" lon="-1.18738">
        <ele>15</ele>
        <time>2020-05-31T20:54:19Z</time>
      </trkpt>
      <trkpt lat="46.16561" lon="-1.18747">
        <ele>15</ele>
        <time>2020-05-31T20:54:20Z</time>
      </trkpt>
      <trkpt lat="46.16563" lon="-1.18757">
        <ele>14.9</ele>
        <time>2020-05-31T20:54:21Z</time>
      </trkpt>
      <trkpt lat="46.16564" lon="-1.18767">
        <ele>14.8</ele>
        <time>2020-05-31T20:54:22Z</time>
      </trkpt>
      <trkpt lat="46.16565" lon="-1.18777">
        <ele>14.8</ele>
        <time>2020-05-31T20:54:23Z</time>
      </trkpt>
      <trkpt lat="46.16566" lon="-1.18786">
        <ele>14.7</ele>
        <time>2020-05-31T20:54:24Z</time>
      </trkpt>
      <trkpt lat="46.16568" lon="-1.18796">
        <ele>14.6</ele>
        <time>2020-05-31T20:54:25Z</time>
      </trkpt>
      <trkpt lat="46.16571" lon="-1.18805">
        <ele>14.5</ele>
        <time>2020-05-31T20:54:26Z</time>
      </trkpt>
      <trkpt lat="46.16574" lon="-1.18813">
        <ele>14.2</ele>
        <time>2020-05-31T20:54:27Z</time>
      </trkpt>
      <trkpt lat="46.16577" lon="-1.18822">
        <ele>14.2</ele>
        <time>2020-05-31T20:54:28Z</time>
      </trkpt>
      <trkpt lat="46.1658" lon="-1.18831">
        <ele>14</ele>
        <time>2020-05-31T20:54:29Z</time>
      </trkpt>
      <trkpt lat="46.16582" lon="-1.18841">
        <ele>13.9</ele>
        <time>2020-05-31T20:54:30Z</time>
      </trkpt>
      <trkpt lat="46.16583" lon="-1.1885">
        <ele>13.7</ele>
        <time>2020-05-31T20:54:31Z</time>
      </trkpt>
      <trkpt lat="46.16585" lon="-1.18859">
        <ele>13.6</ele>
        <time>2020-05-31T20:54:32Z</time>
      </trkpt>
      <trkpt lat="46.16588" lon="-1.18869">
        <ele>13.5</ele>
        <time>2020-05-31T20:54:33Z</time>
      </trkpt>
      <trkpt lat="46.1659" lon="-1.18878">
        <ele>13.2</ele>
        <time>2020-05-31T20:54:34Z</time>
      </trkpt>
      <trkpt lat="46.16592" lon="-1.18888">
        <ele>13.2</ele>
        <time>2020-05-31T20:54:35Z</time>
      </trkpt>
      <trkpt lat="46.16595" lon="-1.18897">
        <ele>13</ele>
        <time>2020-05-31T20:54:36Z</time>
      </trkpt>
      <trkpt lat="46.16597" lon="-1.18907">
        <ele>12.9</ele>
        <time>2020-05-31T20:54:37Z</time>
      </trkpt>
      <trkpt lat="46.16599" lon="-1.18917">
        <ele>12.8</ele>
        <time>2020-05-31T20:54:38Z</time>
      </trkpt>
      <trkpt lat="46.16602" lon="-1.18927">
        <ele>12.6</ele>
        <time>2020-05-31T20:54:39Z</time>
      </trkpt>
      <trkpt lat="46.16604" lon="-1.18938">
        <ele>12.5</ele>
        <time>2020-05-31T20:54:40Z</time>
      </trkpt>
      <trkpt lat="46.16606" lon="-1.18949">
        <ele>12.4</ele>
        <time>2020-05-31T20:54:41Z</time>
      </trkpt>
      <trkpt lat="46.16609" lon="-1.18959">
        <ele>12.2</ele>
        <time>2020-05-31T20:54:42Z</time>
      </trkpt>
      <trkpt lat="46.16612" lon="-1.1897">
        <ele>12.1</ele>
        <time>2020-05-31T20:54:43Z</time>
      </trkpt>
      <trkpt lat="46.16614" lon="-1.18981">
        <ele>11.9</ele>
        <time>2020-05-31T20:54:44Z</time>
      </trkpt>
      <trkpt lat="46.16617" lon="-1.18992">
        <ele>11.8</ele>
        <time>2020-05-31T20:54:45Z</time>
      </trkpt>
      <trkpt lat="46.16619" lon="-1.19004">
        <ele>11.6</ele>
        <time>2020-05-31T20:54:46Z</time>
      </trkpt>
      <trkpt lat="46.16622" lon="-1.19015">
        <ele>11.5</ele>
        <time>2020-05-31T20:54:47Z</time>
      </trkpt>
      <trkpt lat="46.16624" lon="-1.19026">
        <ele>11.3</ele>
        <time>2020-05-31T20:54:48Z</time>
      </trkpt>
      <trkpt lat="46.16626" lon="-1.19038">
        <ele>11.1</ele>
        <time>2020-05-31T20:54:49Z</time>
      </trkpt>
      <trkpt lat="46.16629" lon="-1.1905">
        <ele>10.9</ele>
        <time>2020-05-31T20:54:50Z</time>
      </trkpt>
      <trkpt lat="46.16632" lon="-1.19062">
        <ele>10.8</ele>
        <time>2020-05-31T20:54:51Z</time>
      </trkpt>
      <trkpt lat="46.16634" lon="-1.19074">
        <ele>10.7</ele>
        <time>2020-05-31T20:54:52Z</time>
      </trkpt>
      <trkpt lat="46.16637" lon="-1.19086">
        <ele>10.7</ele>
        <time>2020-05-31T20:54:53Z</time>
      </trkpt>
      <trkpt lat="46.16639" lon="-1.19097">
        <ele>10.7</ele>
        <time>2020-05-31T20:54:54Z</time>
      </trkpt>
      <trkpt lat="46.16643" lon="-1.19108">
        <ele>10.6</ele>
        <time>2020-05-31T20:54:55Z</time>
      </trkpt>
      <trkpt lat="46.16646" lon="-1.19119">
        <ele>10.6</ele>
        <time>2020-05-31T20:54:56Z</time>
      </trkpt>
      <trkpt lat="46.1665" lon="-1.19129">
        <ele>10.6</ele>
        <time>2020-05-31T20:54:57Z</time>
      </trkpt>
      <trkpt lat="46.16655" lon="-1.19139">
        <ele>10.7</ele>
        <time>2020-05-31T20:54:58Z</time>
      </trkpt>
      <trkpt lat="46.16661" lon="-1.19147">
        <ele>10.7</ele>
        <time>2020-05-31T20:54:59Z</time>
      </trkpt>
      <trkpt lat="46.16665" lon="-1.19157">
        <ele>10.7</ele>
        <time>2020-05-31T20:55:00Z</time>
      </trkpt>
      <trkpt lat="46.16669" lon="-1.19166">
        <ele>10.7</ele>
        <time>2020-05-31T20:55:01Z</time>
      </trkpt>
      <trkpt lat="46.16673" lon="-1.19176">
        <ele>10.7</ele>
        <time>2020-05-31T20:55:02Z</time>
      </trkpt>
      <trkpt lat="46.16677" lon="-1.19185">
        <ele>10.7</ele>
        <time>2020-05-31T20:55:03Z</time>
      </trkpt>
      <trkpt lat="46.16679" lon="-1.19194">
        <ele>10.7</ele>
        <time>2020-05-31T20:55:04Z</time>
      </trkpt>
      <trkpt lat="46.16682" lon="-1.19204">
        <ele>10.7</ele>
        <time>2020-05-31T20:55:05Z</time>
      </trkpt>
      <trkpt lat="46.16685" lon="-1.19214">
        <ele>10.7</ele>
        <time>2020-05-31T20:55:06Z</time>
      </trkpt>
      <trkpt lat="46.16688" lon="-1.19223">
        <ele>10.7</ele>
        <time>2020-05-31T20:55:07Z</time>
      </trkpt>
      <trkpt lat="46.1669" lon="-1.19233">
        <ele>10.7</ele>
        <time>2020-05-31T20:55:08Z</time>
      </trkpt>
      <trkpt lat="46.16692" lon="-1.19243">
        <ele>10.7</ele>
        <time>2020-05-31T20:55:09Z</time>
      </trkpt>
      <trkpt lat="46.16694" lon="-1.19252">
        <ele>10.7</ele>
        <time>2020-05-31T20:55:10Z</time>
      </trkpt>
      <trkpt lat="46.16696" lon="-1.19262">
        <ele>10.7</ele>
        <time>2020-05-31T20:55:11Z</time>
      </trkpt>
      <trkpt lat="46.16698" lon="-1.19272">
        <ele>10.7</ele>
        <time>2020-05-31T20:55:12Z</time>
      </trkpt>
      <trkpt lat="46.16699" lon="-1.19283">
        <ele>10.7</ele>
        <time>2020-05-31T20:55:13Z</time>
      </trkpt>
      <trkpt lat="46.16701" lon="-1.19293">
        <ele>10.6</ele>
        <time>2020-05-31T20:55:14Z</time>
      </trkpt>
      <trkpt lat="46.16702" lon="-1.19303">
        <ele>10.5</ele>
        <time>2020-05-31T20:55:15Z</time>
      </trkpt>
      <trkpt lat="46.16703" lon="-1.19314">
        <ele>10.4</ele>
        <time>2020-05-31T20:55:16Z</time>
      </trkpt>
      <trkpt lat="46.16704" lon="-1.19325">
        <ele>10.2</ele>
        <time>2020-05-31T20:55:17Z</time>
      </trkpt>
      <trkpt lat="46.16705" lon="-1.19335">
        <ele>10.1</ele>
        <time>2020-05-31T20:55:18Z</time>
      </trkpt>
      <trkpt lat="46.16706" lon="-1.19346">
        <ele>10</ele>
        <time>2020-05-31T20:55:19Z</time>
      </trkpt>
      <trkpt lat="46.16706" lon="-1.19356">
        <ele>9.8</ele>
        <time>2020-05-31T20:55:20Z</time>
      </trkpt>
      <trkpt lat="46.16707" lon="-1.19367">
        <ele>9.8</ele>
        <time>2020-05-31T20:55:21Z</time>
      </trkpt>
      <trkpt lat="46.16707" lon="-1.19378">
        <ele>9.7</ele>
        <time>2020-05-31T20:55:22Z</time>
      </trkpt>
      <trkpt lat="46.16708" lon="-1.19388">
        <ele>9.8</ele>
        <time>2020-05-31T20:55:23Z</time>
      </trkpt>
      <trkpt lat="46.16709" lon="-1.19398">
        <ele>9.8</ele>
        <time>2020-05-31T20:55:24Z</time>
      </trkpt>
      <trkpt lat="46.1671" lon="-1.19408">
        <ele>9.9</ele>
        <time>2020-05-31T20:55:25Z</time>
      </trkpt>
      <trkpt lat="46.16711" lon="-1.19418">
        <ele>10</ele>
        <time>2020-05-31T20:55:26Z</time>
      </trkpt>
      <trkpt lat="46.16713" lon="-1.19428">
        <ele>10.1</ele>
        <time>2020-05-31T20:55:27Z</time>
      </trkpt>
      <trkpt lat="46.16714" lon="-1.19437">
        <ele>10.3</ele>
        <time>2020-05-31T20:55:28Z</time>
      </trkpt>
      <trkpt lat="46.16716" lon="-1.19446">
        <ele>10.4</ele>
        <time>2020-05-31T20:55:29Z</time>
      </trkpt>
      <trkpt lat="46.16718" lon="-1.19455">
        <ele>10.6</ele>
        <time>2020-05-31T20:55:30Z</time>
      </trkpt>
      <trkpt lat="46.1672" lon="-1.19463">
        <ele>10.8</ele>
        <time>2020-05-31T20:55:31Z</time>
      </trkpt>
      <trkpt lat="46.16722" lon="-1.19471">
        <ele>11.1</ele>
        <time>2020-05-31T20:55:32Z</time>
      </trkpt>
      <trkpt lat="46.16724" lon="-1.1948">
        <ele>11.3</ele>
        <time>2020-05-31T20:55:33Z</time>
      </trkpt>
      <trkpt lat="46.16725" lon="-1.19488">
        <ele>11.6</ele>
        <time>2020-05-31T20:55:34Z</time>
      </trkpt>
      <trkpt lat="46.16728" lon="-1.19495">
        <ele>11.8</ele>
        <time>2020-05-31T20:55:35Z</time>
      </trkpt>
      <trkpt lat="46.1673" lon="-1.19502">
        <ele>11.9</ele>
        <time>2020-05-31T20:55:36Z</time>
      </trkpt>
      <trkpt lat="46.16733" lon="-1.19507">
        <ele>12</ele>
        <time>2020-05-31T20:55:37Z</time>
      </trkpt>
      <trkpt lat="46.16737" lon="-1.19509">
        <ele>12.1</ele>
        <time>2020-05-31T20:55:38Z</time>
      </trkpt>
      <trkpt lat="46.16741" lon="-1.19509">
        <ele>12.1</ele>
        <time>2020-05-31T20:55:39Z</time>
      </trkpt>
      <trkpt lat="46.16746" lon="-1.19508">
        <ele>12.2</ele>
        <time>2020-05-31T20:55:40Z</time>
      </trkpt>
      <trkpt lat="46.16752" lon="-1.19507">
        <ele>12.2</ele>
        <time>2020-05-31T20:55:41Z</time>
      </trkpt>
      <trkpt lat="46.16757" lon="-1.19507">
        <ele>12.4</ele>
        <time>2020-05-31T20:55:42Z</time>
      </trkpt>
      <trkpt lat="46.16763" lon="-1.19506">
        <ele>12.5</ele>
        <time>2020-05-31T20:55:43Z</time>
      </trkpt>
      <trkpt lat="46.16769" lon="-1.19505">
        <ele>12.6</ele>
        <time>2020-05-31T20:55:44Z</time>
      </trkpt>
      <trkpt lat="46.16774" lon="-1.19504">
        <ele>12.7</ele>
        <time>2020-05-31T20:55:45Z</time>
      </trkpt>
      <trkpt lat="46.1678" lon="-1.19504">
        <ele>12.8</ele>
        <time>2020-05-31T20:55:46Z</time>
      </trkpt>
      <trkpt lat="46.16785" lon="-1.19504">
        <ele>12.8</ele>
        <time>2020-05-31T20:55:47Z</time>
      </trkpt>
      <trkpt lat="46.16791" lon="-1.19504">
        <ele>12.9</ele>
        <time>2020-05-31T20:55:48Z</time>
      </trkpt>
      <trkpt lat="46.16797" lon="-1.19504">
        <ele>12.9</ele>
        <time>2020-05-31T20:55:49Z</time>
      </trkpt>
      <trkpt lat="46.16802" lon="-1.19504">
        <ele>13</ele>
        <time>2020-05-31T20:55:50Z</time>
      </trkpt>
      <trkpt lat="46.16809" lon="-1.19504">
        <ele>13</ele>
        <time>2020-05-31T20:55:51Z</time>
      </trkpt>
      <trkpt lat="46.16815" lon="-1.19506">
        <ele>13.1</ele>
        <time>2020-05-31T20:55:52Z</time>
      </trkpt>
      <trkpt lat="46.16821" lon="-1.19507">
        <ele>13.2</ele>
        <time>2020-05-31T20:55:53Z</time>
      </trkpt>
      <trkpt lat="46.16827" lon="-1.19508">
        <ele>13.3</ele>
        <time>2020-05-31T20:55:54Z</time>
      </trkpt>
      <trkpt lat="46.16832" lon="-1.19509">
        <ele>13.4</ele>
        <time>2020-05-31T20:55:55Z</time>
      </trkpt>
      <trkpt lat="46.16838" lon="-1.1951">
        <ele>13.6</ele>
        <time>2020-05-31T20:55:56Z</time>
      </trkpt>
      <trkpt lat="46.16843" lon="-1.1951">
        <ele>13.7</ele>
        <time>2020-05-31T20:55:57Z</time>
      </trkpt>
      <trkpt lat="46.16849" lon="-1.19509">
        <ele>13.8</ele>
        <time>2020-05-31T20:55:58Z</time>
      </trkpt>
      <trkpt lat="46.16855" lon="-1.19508">
        <ele>13.9</ele>
        <time>2020-05-31T20:55:59Z</time>
      </trkpt>
      <trkpt lat="46.16861" lon="-1.19508">
        <ele>14</ele>
        <time>2020-05-31T20:56:00Z</time>
      </trkpt>
      <trkpt lat="46.16866" lon="-1.19509">
        <ele>14.1</ele>
        <time>2020-05-31T20:56:01Z</time>
      </trkpt>
      <trkpt lat="46.16872" lon="-1.1951">
        <ele>14.2</ele>
        <time>2020-05-31T20:56:02Z</time>
      </trkpt>
      <trkpt lat="46.16878" lon="-1.19511">
        <ele>14.4</ele>
        <time>2020-05-31T20:56:03Z</time>
      </trkpt>
      <trkpt lat="46.16884" lon="-1.19512">
        <ele>14.5</ele>
        <time>2020-05-31T20:56:04Z</time>
      </trkpt>
      <trkpt lat="46.1689" lon="-1.19514">
        <ele>14.5</ele>
        <time>2020-05-31T20:56:05Z</time>
      </trkpt>
      <trkpt lat="46.16896" lon="-1.19514">
        <ele>14.5</ele>
        <time>2020-05-31T20:56:06Z</time>
      </trkpt>
      <trkpt lat="46.16902" lon="-1.19514">
        <ele>14.5</ele>
        <time>2020-05-31T20:56:07Z</time>
      </trkpt>
      <trkpt lat="46.16909" lon="-1.19515">
        <ele>14.6</ele>
        <time>2020-05-31T20:56:08Z</time>
      </trkpt>
      <trkpt lat="46.16916" lon="-1.19516">
        <ele>14.7</ele>
        <time>2020-05-31T20:56:09Z</time>
      </trkpt>
      <trkpt lat="46.16923" lon="-1.19517">
        <ele>14.8</ele>
        <time>2020-05-31T20:56:10Z</time>
      </trkpt>
      <trkpt lat="46.1693" lon="-1.19517">
        <ele>14.9</ele>
        <time>2020-05-31T20:56:11Z</time>
      </trkpt>
      <trkpt lat="46.16937" lon="-1.19517">
        <ele>15</ele>
        <time>2020-05-31T20:56:12Z</time>
      </trkpt>
      <trkpt lat="46.16944" lon="-1.19517">
        <ele>15.1</ele>
        <time>2020-05-31T20:56:13Z</time>
      </trkpt>
      <trkpt lat="46.16952" lon="-1.19518">
        <ele>15.2</ele>
        <time>2020-05-31T20:56:14Z</time>
      </trkpt>
      <trkpt lat="46.16959" lon="-1.19518">
        <ele>15.2</ele>
        <time>2020-05-31T20:56:15Z</time>
      </trkpt>
      <trkpt lat="46.16967" lon="-1.19519">
        <ele>15.2</ele>
        <time>2020-05-31T20:56:16Z</time>
      </trkpt>
      <trkpt lat="46.16974" lon="-1.19519">
        <ele>15.3</ele>
        <time>2020-05-31T20:56:17Z</time>
      </trkpt>
      <trkpt lat="46.16981" lon="-1.1952">
        <ele>15.3</ele>
        <time>2020-05-31T20:56:18Z</time>
      </trkpt>
      <trkpt lat="46.16988" lon="-1.1952">
        <ele>15.4</ele>
        <time>2020-05-31T20:56:19Z</time>
      </trkpt>
      <trkpt lat="46.16995" lon="-1.19519">
        <ele>15.4</ele>
        <time>2020-05-31T20:56:20Z</time>
      </trkpt>
      <trkpt lat="46.17002" lon="-1.19521">
        <ele>15.4</ele>
        <time>2020-05-31T20:56:21Z</time>
      </trkpt>
      <trkpt lat="46.17007" lon="-1.19521">
        <ele>15.5</ele>
        <time>2020-05-31T20:56:22Z</time>
      </trkpt>
      <trkpt lat="46.17013" lon="-1.19523">
        <ele>15.5</ele>
        <time>2020-05-31T20:56:23Z</time>
      </trkpt>
      <trkpt lat="46.17019" lon="-1.19525">
        <ele>15.6</ele>
        <time>2020-05-31T20:56:24Z</time>
      </trkpt>
      <trkpt lat="46.17025" lon="-1.19526">
        <ele>15.6</ele>
        <time>2020-05-31T20:56:25Z</time>
      </trkpt>
      <trkpt lat="46.17031" lon="-1.19526">
        <ele>15.6</ele>
        <time>2020-05-31T20:56:26Z</time>
      </trkpt>
      <trkpt lat="46.17038" lon="-1.19526">
        <ele>15.6</ele>
        <time>2020-05-31T20:56:27Z</time>
      </trkpt>
      <trkpt lat="46.17044" lon="-1.19526">
        <ele>15.5</ele>
        <time>2020-05-31T20:56:28Z</time>
      </trkpt>
      <trkpt lat="46.1705" lon="-1.19524">
        <ele>15.5</ele>
        <time>2020-05-31T20:56:29Z</time>
      </trkpt>
      <trkpt lat="46.17056" lon="-1.19522">
        <ele>15.5</ele>
        <time>2020-05-31T20:56:30Z</time>
      </trkpt>
      <trkpt lat="46.17062" lon="-1.19522">
        <ele>15.5</ele>
        <time>2020-05-31T20:56:31Z</time>
      </trkpt>
      <trkpt lat="46.17068" lon="-1.19525">
        <ele>15.5</ele>
        <time>2020-05-31T20:56:32Z</time>
      </trkpt>
      <trkpt lat="46.17073" lon="-1.19532">
        <ele>15.6</ele>
        <time>2020-05-31T20:56:33Z</time>
      </trkpt>
      <trkpt lat="46.17079" lon="-1.19537">
        <ele>15.7</ele>
        <time>2020-05-31T20:56:34Z</time>
      </trkpt>
      <trkpt lat="46.17085" lon="-1.19542">
        <ele>15.7</ele>
        <time>2020-05-31T20:56:35Z</time>
      </trkpt>
      <trkpt lat="46.17091" lon="-1.19546">
        <ele>15.8</ele>
        <time>2020-05-31T20:56:36Z</time>
      </trkpt>
      <trkpt lat="46.17098" lon="-1.19551">
        <ele>15.9</ele>
        <time>2020-05-31T20:56:37Z</time>
      </trkpt>
      <trkpt lat="46.17105" lon="-1.19556">
        <ele>16</ele>
        <time>2020-05-31T20:56:38Z</time>
      </trkpt>
      <trkpt lat="46.17113" lon="-1.1956">
        <ele>15.9</ele>
        <time>2020-05-31T20:56:39Z</time>
      </trkpt>
      <trkpt lat="46.17121" lon="-1.19563">
        <ele>15.8</ele>
        <time>2020-05-31T20:56:40Z</time>
      </trkpt>
      <trkpt lat="46.17129" lon="-1.19566">
        <ele>15.8</ele>
        <time>2020-05-31T20:56:41Z</time>
      </trkpt>
      <trkpt lat="46.17137" lon="-1.1957">
        <ele>15.7</ele>
        <time>2020-05-31T20:56:42Z</time>
      </trkpt>
      <trkpt lat="46.17145" lon="-1.19574">
        <ele>15.7</ele>
        <time>2020-05-31T20:56:43Z</time>
      </trkpt>
      <trkpt lat="46.17153" lon="-1.19579">
        <ele>15.6</ele>
        <time>2020-05-31T20:56:44Z</time>
      </trkpt>
      <trkpt lat="46.17162" lon="-1.19583">
        <ele>15.6</ele>
        <time>2020-05-31T20:56:45Z</time>
      </trkpt>
      <trkpt lat="46.1717" lon="-1.19586">
        <ele>15.6</ele>
        <time>2020-05-31T20:56:46Z</time>
      </trkpt>
      <trkpt lat="46.17179" lon="-1.19589">
        <ele>15.5</ele>
        <time>2020-05-31T20:56:47Z</time>
      </trkpt>
      <trkpt lat="46.17187" lon="-1.19593">
        <ele>15.4</ele>
        <time>2020-05-31T20:56:48Z</time>
      </trkpt>
      <trkpt lat="46.17195" lon="-1.19595">
        <ele>15.3</ele>
        <time>2020-05-31T20:56:49Z</time>
      </trkpt>
      <trkpt lat="46.17203" lon="-1.19598">
        <ele>15.3</ele>
        <time>2020-05-31T20:56:50Z</time>
      </trkpt>
      <trkpt lat="46.17211" lon="-1.19601">
        <ele>15.1</ele>
        <time>2020-05-31T20:56:51Z</time>
      </trkpt>
      <trkpt lat="46.17219" lon="-1.19603">
        <ele>15</ele>
        <time>2020-05-31T20:56:52Z</time>
      </trkpt>
      <trkpt lat="46.17227" lon="-1.19607">
        <ele>14.9</ele>
        <time>2020-05-31T20:56:53Z</time>
      </trkpt>
      <trkpt lat="46.17235" lon="-1.19609">
        <ele>14.7</ele>
        <time>2020-05-31T20:56:54Z</time>
      </trkpt>
      <trkpt lat="46.17243" lon="-1.19612">
        <ele>14.7</ele>
        <time>2020-05-31T20:56:55Z</time>
      </trkpt>
      <trkpt lat="46.1725" lon="-1.19614">
        <ele>14.8</ele>
        <time>2020-05-31T20:56:56Z</time>
      </trkpt>
      <trkpt lat="46.17257" lon="-1.19617">
        <ele>14.7</ele>
        <time>2020-05-31T20:56:57Z</time>
      </trkpt>
      <trkpt lat="46.17264" lon="-1.19619">
        <ele>14.7</ele>
        <time>2020-05-31T20:56:58Z</time>
      </trkpt>
      <trkpt lat="46.17271" lon="-1.19621">
        <ele>14.5</ele>
        <time>2020-05-31T20:56:59Z</time>
      </trkpt>
      <trkpt lat="46.17278" lon="-1.19623">
        <ele>14.4</ele>
        <time>2020-05-31T20:57:00Z</time>
      </trkpt>
      <trkpt lat="46.17285" lon="-1.19625">
        <ele>14.2</ele>
        <time>2020-05-31T20:57:01Z</time>
      </trkpt>
      <trkpt lat="46.17292" lon="-1.19628">
        <ele>14.1</ele>
        <time>2020-05-31T20:57:02Z</time>
      </trkpt>
      <trkpt lat="46.17299" lon="-1.1963">
        <ele>13.9</ele>
        <time>2020-05-31T20:57:03Z</time>
      </trkpt>
      <trkpt lat="46.17306" lon="-1.19632">
        <ele>13.9</ele>
        <time>2020-05-31T20:57:04Z</time>
      </trkpt>
      <trkpt lat="46.17313" lon="-1.19634">
        <ele>13.8</ele>
        <time>2020-05-31T20:57:05Z</time>
      </trkpt>
      <trkpt lat="46.1732" lon="-1.19637">
        <ele>13.8</ele>
        <time>2020-05-31T20:57:06Z</time>
      </trkpt>
      <trkpt lat="46.17327" lon="-1.1964">
        <ele>13.7</ele>
        <time>2020-05-31T20:57:07Z</time>
      </trkpt>
      <trkpt lat="46.17334" lon="-1.19643">
        <ele>13.6</ele>
        <time>2020-05-31T20:57:08Z</time>
      </trkpt>
      <trkpt lat="46.17341" lon="-1.19646">
        <ele>13.6</ele>
        <time>2020-05-31T20:57:09Z</time>
      </trkpt>
      <trkpt lat="46.17348" lon="-1.19649">
        <ele>13.5</ele>
        <time>2020-05-31T20:57:10Z</time>
      </trkpt>
      <trkpt lat="46.17355" lon="-1.19651">
        <ele>13.4</ele>
        <time>2020-05-31T20:57:11Z</time>
      </trkpt>
      <trkpt lat="46.17362" lon="-1.19654">
        <ele>13.3</ele>
        <time>2020-05-31T20:57:12Z</time>
      </trkpt>
      <trkpt lat="46.1737" lon="-1.19656">
        <ele>13.2</ele>
        <time>2020-05-31T20:57:13Z</time>
      </trkpt>
      <trkpt lat="46.17377" lon="-1.19659">
        <ele>13.1</ele>
        <time>2020-05-31T20:57:14Z</time>
      </trkpt>
      <trkpt lat="46.17384" lon="-1.19662">
        <ele>13</ele>
        <time>2020-05-31T20:57:15Z</time>
      </trkpt>
      <trkpt lat="46.17391" lon="-1.19665">
        <ele>12.9</ele>
        <time>2020-05-31T20:57:16Z</time>
      </trkpt>
      <trkpt lat="46.17398" lon="-1.19669">
        <ele>12.8</ele>
        <time>2020-05-31T20:57:17Z</time>
      </trkpt>
      <trkpt lat="46.17405" lon="-1.19671">
        <ele>12.7</ele>
        <time>2020-05-31T20:57:18Z</time>
      </trkpt>
      <trkpt lat="46.17413" lon="-1.19674">
        <ele>12.6</ele>
        <time>2020-05-31T20:57:19Z</time>
      </trkpt>
      <trkpt lat="46.1742" lon="-1.19676">
        <ele>12.5</ele>
        <time>2020-05-31T20:57:20Z</time>
      </trkpt>
      <trkpt lat="46.17427" lon="-1.19679">
        <ele>12.5</ele>
        <time>2020-05-31T20:57:21Z</time>
      </trkpt>
      <trkpt lat="46.17435" lon="-1.19682">
        <ele>12.5</ele>
        <time>2020-05-31T20:57:22Z</time>
      </trkpt>
      <trkpt lat="46.17442" lon="-1.19685">
        <ele>12.5</ele>
        <time>2020-05-31T20:57:23Z</time>
      </trkpt>
      <trkpt lat="46.17449" lon="-1.19687">
        <ele>12.5</ele>
        <time>2020-05-31T20:57:24Z</time>
      </trkpt>
      <trkpt lat="46.17456" lon="-1.1969">
        <ele>12.5</ele>
        <time>2020-05-31T20:57:25Z</time>
      </trkpt>
      <trkpt lat="46.17462" lon="-1.19693">
        <ele>12.5</ele>
        <time>2020-05-31T20:57:26Z</time>
      </trkpt>
      <trkpt lat="46.17468" lon="-1.19695">
        <ele>12.6</ele>
        <time>2020-05-31T20:57:27Z</time>
      </trkpt>
      <trkpt lat="46.17474" lon="-1.19697">
        <ele>12.6</ele>
        <time>2020-05-31T20:57:28Z</time>
      </trkpt>
      <trkpt lat="46.17479" lon="-1.19701">
        <ele>12.6</ele>
        <time>2020-05-31T20:57:29Z</time>
      </trkpt>
      <trkpt lat="46.17482" lon="-1.19705">
        <ele>12.6</ele>
        <time>2020-05-31T20:57:30Z</time>
      </trkpt>
      <trkpt lat="46.17484" lon="-1.19711">
        <ele>12.6</ele>
        <time>2020-05-31T20:57:31Z</time>
      </trkpt>
      <trkpt lat="46.17484" lon="-1.19718">
        <ele>12.6</ele>
        <time>2020-05-31T20:57:32Z</time>
      </trkpt>
      <trkpt lat="46.17481" lon="-1.19725">
        <ele>12.5</ele>
        <time>2020-05-31T20:57:33Z</time>
      </trkpt>
      <trkpt lat="46.17478" lon="-1.19732">
        <ele>12.5</ele>
        <time>2020-05-31T20:57:34Z</time>
      </trkpt>
      <trkpt lat="46.17475" lon="-1.19739">
        <ele>12.4</ele>
        <time>2020-05-31T20:57:35Z</time>
      </trkpt>
      <trkpt lat="46.17473" lon="-1.19747">
        <ele>12.3</ele>
        <time>2020-05-31T20:57:36Z</time>
      </trkpt>
      <trkpt lat="46.17469" lon="-1.19755">
        <ele>12.2</ele>
        <time>2020-05-31T20:57:37Z</time>
      </trkpt>
      <trkpt lat="46.17466" lon="-1.19764">
        <ele>12.1</ele>
        <time>2020-05-31T20:57:38Z</time>
      </trkpt>
      <trkpt lat="46.17462" lon="-1.19772">
        <ele>12</ele>
        <time>2020-05-31T20:57:39Z</time>
      </trkpt>
      <trkpt lat="46.17459" lon="-1.1978">
        <ele>11.9</ele>
        <time>2020-05-31T20:57:40Z</time>
      </trkpt>
      <trkpt lat="46.17455" lon="-1.19789">
        <ele>11.9</ele>
        <time>2020-05-31T20:57:41Z</time>
      </trkpt>
      <trkpt lat="46.17451" lon="-1.19797">
        <ele>11.8</ele>
        <time>2020-05-31T20:57:42Z</time>
      </trkpt>
      <trkpt lat="46.17447" lon="-1.19806">
        <ele>11.7</ele>
        <time>2020-05-31T20:57:43Z</time>
      </trkpt>
      <trkpt lat="46.17444" lon="-1.19816">
        <ele>11.6</ele>
        <time>2020-05-31T20:57:44Z</time>
      </trkpt>
      <trkpt lat="46.1744" lon="-1.19825">
        <ele>11.5</ele>
        <time>2020-05-31T20:57:45Z</time>
      </trkpt>
      <trkpt lat="46.17436" lon="-1.19834">
        <ele>11.4</ele>
        <time>2020-05-31T20:57:46Z</time>
      </trkpt>
      <trkpt lat="46.17433" lon="-1.19843">
        <ele>11.3</ele>
        <time>2020-05-31T20:57:47Z</time>
      </trkpt>
      <trkpt lat="46.1743" lon="-1.19853">
        <ele>11.3</ele>
        <time>2020-05-31T20:57:48Z</time>
      </trkpt>
      <trkpt lat="46.17426" lon="-1.19862">
        <ele>11.2</ele>
        <time>2020-05-31T20:57:49Z</time>
      </trkpt>
      <trkpt lat="46.17423" lon="-1.19871">
        <ele>11.1</ele>
        <time>2020-05-31T20:57:50Z</time>
      </trkpt>
      <trkpt lat="46.1742" lon="-1.19881">
        <ele>11.1</ele>
        <time>2020-05-31T20:57:51Z</time>
      </trkpt>
      <trkpt lat="46.17416" lon="-1.1989">
        <ele>10.9</ele>
        <time>2020-05-31T20:57:52Z</time>
      </trkpt>
      <trkpt lat="46.17412" lon="-1.199">
        <ele>10.9</ele>
        <time>2020-05-31T20:57:53Z</time>
      </trkpt>
      <trkpt lat="46.17409" lon="-1.19909">
        <ele>10.8</ele>
        <time>2020-05-31T20:57:54Z</time>
      </trkpt>
      <trkpt lat="46.17405" lon="-1.19919">
        <ele>10.7</ele>
        <time>2020-05-31T20:57:55Z</time>
      </trkpt>
      <trkpt lat="46.17401" lon="-1.19928">
        <ele>10.5</ele>
        <time>2020-05-31T20:57:56Z</time>
      </trkpt>
      <trkpt lat="46.17398" lon="-1.19936">
        <ele>10.4</ele>
        <time>2020-05-31T20:57:57Z</time>
      </trkpt>
      <trkpt lat="46.17396" lon="-1.19943">
        <ele>10.4</ele>
        <time>2020-05-31T20:57:58Z</time>
      </trkpt>
      <trkpt lat="46.17393" lon="-1.1995">
        <ele>10.3</ele>
        <time>2020-05-31T20:57:59Z</time>
      </trkpt>
      <trkpt lat="46.1739" lon="-1.19956">
        <ele>10.2</ele>
        <time>2020-05-31T20:58:00Z</time>
      </trkpt>
      <trkpt lat="46.17387" lon="-1.19961">
        <ele>10.2</ele>
        <time>2020-05-31T20:58:01Z</time>
      </trkpt>
      <trkpt lat="46.17385" lon="-1.19966">
        <ele>10.1</ele>
        <time>2020-05-31T20:58:02Z</time>
      </trkpt>
      <trkpt lat="46.17384" lon="-1.19972">
        <ele>10.1</ele>
        <time>2020-05-31T20:58:03Z</time>
      </trkpt>
      <trkpt lat="46.17387" lon="-1.19978">
        <ele>10.1</ele>
        <time>2020-05-31T20:58:04Z</time>
      </trkpt>
      <trkpt lat="46.17387" lon="-1.19985">
        <ele>10</ele>
        <time>2020-05-31T20:58:05Z</time>
      </trkpt>
      <trkpt lat="46.17389" lon="-1.19993">
        <ele>10</ele>
        <time>2020-05-31T20:58:06Z</time>
      </trkpt>
      <trkpt lat="46.1739" lon="-1.20001">
        <ele>9.8</ele>
        <time>2020-05-31T20:58:07Z</time>
      </trkpt>
      <trkpt lat="46.17391" lon="-1.20009">
        <ele>9.7</ele>
        <time>2020-05-31T20:58:08Z</time>
      </trkpt>
      <trkpt lat="46.17392" lon="-1.20017">
        <ele>9.6</ele>
        <time>2020-05-31T20:58:09Z</time>
      </trkpt>
      <trkpt lat="46.17391" lon="-1.20025">
        <ele>9.5</ele>
        <time>2020-05-31T20:58:10Z</time>
      </trkpt>
      <trkpt lat="46.17389" lon="-1.20034">
        <ele>9.4</ele>
        <time>2020-05-31T20:58:11Z</time>
      </trkpt>
      <trkpt lat="46.17387" lon="-1.20044">
        <ele>9.3</ele>
        <time>2020-05-31T20:58:12Z</time>
      </trkpt>
      <trkpt lat="46.17385" lon="-1.20053">
        <ele>9.2</ele>
        <time>2020-05-31T20:58:13Z</time>
      </trkpt>
      <trkpt lat="46.17384" lon="-1.20063">
        <ele>9.1</ele>
        <time>2020-05-31T20:58:14Z</time>
      </trkpt>
      <trkpt lat="46.17384" lon="-1.20073">
        <ele>9</ele>
        <time>2020-05-31T20:58:15Z</time>
      </trkpt>
      <trkpt lat="46.17387" lon="-1.20083">
        <ele>8.9</ele>
        <time>2020-05-31T20:58:16Z</time>
      </trkpt>
      <trkpt lat="46.17389" lon="-1.20093">
        <ele>8.9</ele>
        <time>2020-05-31T20:58:17Z</time>
      </trkpt>
      <trkpt lat="46.17392" lon="-1.20103">
        <ele>8.8</ele>
        <time>2020-05-31T20:58:18Z</time>
      </trkpt>
      <trkpt lat="46.17395" lon="-1.20114">
        <ele>8.8</ele>
        <time>2020-05-31T20:58:19Z</time>
      </trkpt>
      <trkpt lat="46.17398" lon="-1.20124">
        <ele>8.8</ele>
        <time>2020-05-31T20:58:20Z</time>
      </trkpt>
      <trkpt lat="46.17401" lon="-1.20133">
        <ele>8.8</ele>
        <time>2020-05-31T20:58:21Z</time>
      </trkpt>
      <trkpt lat="46.17405" lon="-1.20143">
        <ele>8.8</ele>
        <time>2020-05-31T20:58:22Z</time>
      </trkpt>
      <trkpt lat="46.17408" lon="-1.20153">
        <ele>8.8</ele>
        <time>2020-05-31T20:58:23Z</time>
      </trkpt>
      <trkpt lat="46.1741" lon="-1.20162">
        <ele>8.7</ele>
        <time>2020-05-31T20:58:24Z</time>
      </trkpt>
      <trkpt lat="46.17413" lon="-1.20172">
        <ele>8.7</ele>
        <time>2020-05-31T20:58:25Z</time>
      </trkpt>
      <trkpt lat="46.17416" lon="-1.20183">
        <ele>8.7</ele>
        <time>2020-05-31T20:58:26Z</time>
      </trkpt>
      <trkpt lat="46.17418" lon="-1.20193">
        <ele>8.7</ele>
        <time>2020-05-31T20:58:27Z</time>
      </trkpt>
      <trkpt lat="46.17421" lon="-1.20204">
        <ele>8.8</ele>
        <time>2020-05-31T20:58:28Z</time>
      </trkpt>
      <trkpt lat="46.17423" lon="-1.20214">
        <ele>8.8</ele>
        <time>2020-05-31T20:58:29Z</time>
      </trkpt>
      <trkpt lat="46.17425" lon="-1.20225">
        <ele>8.8</ele>
        <time>2020-05-31T20:58:30Z</time>
      </trkpt>
      <trkpt lat="46.17426" lon="-1.20235">
        <ele>8.9</ele>
        <time>2020-05-31T20:58:31Z</time>
      </trkpt>
      <trkpt lat="46.17427" lon="-1.20245">
        <ele>8.9</ele>
        <time>2020-05-31T20:58:32Z</time>
      </trkpt>
      <trkpt lat="46.17427" lon="-1.20254">
        <ele>9</ele>
        <time>2020-05-31T20:58:33Z</time>
      </trkpt>
      <trkpt lat="46.17428" lon="-1.2026">
        <ele>9</ele>
        <time>2020-05-31T20:58:34Z</time>
      </trkpt>
      <trkpt lat="46.1743" lon="-1.20266">
        <ele>9.1</ele>
        <time>2020-05-31T20:58:35Z</time>
      </trkpt>
      <trkpt lat="46.17432" lon="-1.20273">
        <ele>9.1</ele>
        <time>2020-05-31T20:58:36Z</time>
      </trkpt>
      <trkpt lat="46.17433" lon="-1.20281">
        <ele>9.2</ele>
        <time>2020-05-31T20:58:37Z</time>
      </trkpt>
      <trkpt lat="46.17436" lon="-1.20287">
        <ele>9.2</ele>
        <time>2020-05-31T20:58:38Z</time>
      </trkpt>
      <trkpt lat="46.17439" lon="-1.20294">
        <ele>9.3</ele>
        <time>2020-05-31T20:58:39Z</time>
      </trkpt>
      <trkpt lat="46.17442" lon="-1.20302">
        <ele>9.4</ele>
        <time>2020-05-31T20:58:40Z</time>
      </trkpt>
      <trkpt lat="46.17444" lon="-1.20309">
        <ele>9.5</ele>
        <time>2020-05-31T20:58:41Z</time>
      </trkpt>
      <trkpt lat="46.17446" lon="-1.20317">
        <ele>9.6</ele>
        <time>2020-05-31T20:58:42Z</time>
      </trkpt>
      <trkpt lat="46.17448" lon="-1.20325">
        <ele>9.7</ele>
        <time>2020-05-31T20:58:43Z</time>
      </trkpt>
      <trkpt lat="46.17451" lon="-1.20332">
        <ele>9.8</ele>
        <time>2020-05-31T20:58:44Z</time>
      </trkpt>
      <trkpt lat="46.17453" lon="-1.20341">
        <ele>9.9</ele>
        <time>2020-05-31T20:58:45Z</time>
      </trkpt>
      <trkpt lat="46.17455" lon="-1.20349">
        <ele>9.9</ele>
        <time>2020-05-31T20:58:46Z</time>
      </trkpt>
      <trkpt lat="46.17457" lon="-1.20358">
        <ele>10</ele>
        <time>2020-05-31T20:58:47Z</time>
      </trkpt>
      <trkpt lat="46.17459" lon="-1.20365">
        <ele>10.1</ele>
        <time>2020-05-31T20:58:48Z</time>
      </trkpt>
      <trkpt lat="46.17462" lon="-1.20373">
        <ele>10.2</ele>
        <time>2020-05-31T20:58:49Z</time>
      </trkpt>
      <trkpt lat="46.17465" lon="-1.20382">
        <ele>10.3</ele>
        <time>2020-05-31T20:58:50Z</time>
      </trkpt>
      <trkpt lat="46.17467" lon="-1.20389">
        <ele>10.4</ele>
        <time>2020-05-31T20:58:51Z</time>
      </trkpt>
      <trkpt lat="46.17469" lon="-1.20397">
        <ele>10.5</ele>
        <time>2020-05-31T20:58:52Z</time>
      </trkpt>
      <trkpt lat="46.17472" lon="-1.20405">
        <ele>10.6</ele>
        <time>2020-05-31T20:58:53Z</time>
      </trkpt>
      <trkpt lat="46.17474" lon="-1.20414">
        <ele>10.7</ele>
        <time>2020-05-31T20:58:54Z</time>
      </trkpt>
      <trkpt lat="46.17476" lon="-1.20423">
        <ele>10.8</ele>
        <time>2020-05-31T20:58:55Z</time>
      </trkpt>
      <trkpt lat="46.17478" lon="-1.20431">
        <ele>11</ele>
        <time>2020-05-31T20:58:56Z</time>
      </trkpt>
      <trkpt lat="46.1748" lon="-1.2044">
        <ele>11.1</ele>
        <time>2020-05-31T20:58:57Z</time>
      </trkpt>
      <trkpt lat="46.17483" lon="-1.2045">
        <ele>11.2</ele>
        <time>2020-05-31T20:58:58Z</time>
      </trkpt>
      <trkpt lat="46.17486" lon="-1.20457">
        <ele>11.2</ele>
        <time>2020-05-31T20:58:59Z</time>
      </trkpt>
      <trkpt lat="46.17487" lon="-1.20462">
        <ele>11.3</ele>
        <time>2020-05-31T20:59:00Z</time>
      </trkpt>
      <trkpt lat="46.17488" lon="-1.20471">
        <ele>11.4</ele>
        <time>2020-05-31T20:59:01Z</time>
      </trkpt>
      <trkpt lat="46.1749" lon="-1.20478">
        <ele>11.4</ele>
        <time>2020-05-31T20:59:02Z</time>
      </trkpt>
      <trkpt lat="46.17492" lon="-1.20488">
        <ele>11.5</ele>
        <time>2020-05-31T20:59:03Z</time>
      </trkpt>
      <trkpt lat="46.17495" lon="-1.20497">
        <ele>11.6</ele>
        <time>2020-05-31T20:59:04Z</time>
      </trkpt>
      <trkpt lat="46.17498" lon="-1.20506">
        <ele>11.7</ele>
        <time>2020-05-31T20:59:05Z</time>
      </trkpt>
      <trkpt lat="46.17501" lon="-1.20514">
        <ele>11.7</ele>
        <time>2020-05-31T20:59:06Z</time>
      </trkpt>
      <trkpt lat="46.17504" lon="-1.20522">
        <ele>11.8</ele>
        <time>2020-05-31T20:59:07Z</time>
      </trkpt>
      <trkpt lat="46.17507" lon="-1.20532">
        <ele>11.8</ele>
        <time>2020-05-31T20:59:08Z</time>
      </trkpt>
      <trkpt lat="46.17509" lon="-1.20541">
        <ele>11.9</ele>
        <time>2020-05-31T20:59:09Z</time>
      </trkpt>
      <trkpt lat="46.17511" lon="-1.2055">
        <ele>12</ele>
        <time>2020-05-31T20:59:10Z</time>
      </trkpt>
      <trkpt lat="46.17514" lon="-1.20558">
        <ele>12.1</ele>
        <time>2020-05-31T20:59:11Z</time>
      </trkpt>
      <trkpt lat="46.17516" lon="-1.20568">
        <ele>12.2</ele>
        <time>2020-05-31T20:59:12Z</time>
      </trkpt>
      <trkpt lat="46.17519" lon="-1.20575">
        <ele>12.3</ele>
        <time>2020-05-31T20:59:13Z</time>
      </trkpt>
      <trkpt lat="46.17522" lon="-1.20584">
        <ele>12.4</ele>
        <time>2020-05-31T20:59:14Z</time>
      </trkpt>
      <trkpt lat="46.17524" lon="-1.20593">
        <ele>12.5</ele>
        <time>2020-05-31T20:59:15Z</time>
      </trkpt>
      <trkpt lat="46.17525" lon="-1.20602">
        <ele>12.6</ele>
        <time>2020-05-31T20:59:16Z</time>
      </trkpt>
      <trkpt lat="46.17524" lon="-1.20612">
        <ele>12.7</ele>
        <time>2020-05-31T20:59:17Z</time>
      </trkpt>
      <trkpt lat="46.17524" lon="-1.2062">
        <ele>12.8</ele>
        <time>2020-05-31T20:59:18Z</time>
      </trkpt>
      <trkpt lat="46.17525" lon="-1.20629">
        <ele>12.8</ele>
        <time>2020-05-31T20:59:19Z</time>
      </trkpt>
      <trkpt lat="46.17527" lon="-1.20638">
        <ele>12.9</ele>
        <time>2020-05-31T20:59:20Z</time>
      </trkpt>
      <trkpt lat="46.17529" lon="-1.20646">
        <ele>12.9</ele>
        <time>2020-05-31T20:59:21Z</time>
      </trkpt>
      <trkpt lat="46.17532" lon="-1.20655">
        <ele>13</ele>
        <time>2020-05-31T20:59:22Z</time>
      </trkpt>
      <trkpt lat="46.17536" lon="-1.20665">
        <ele>13</ele>
        <time>2020-05-31T20:59:23Z</time>
      </trkpt>
      <trkpt lat="46.17538" lon="-1.20674">
        <ele>13</ele>
        <time>2020-05-31T20:59:24Z</time>
      </trkpt>
      <trkpt lat="46.17541" lon="-1.20681">
        <ele>13</ele>
        <time>2020-05-31T20:59:25Z</time>
      </trkpt>
      <trkpt lat="46.17544" lon="-1.20688">
        <ele>13</ele>
        <time>2020-05-31T20:59:26Z</time>
      </trkpt>
      <trkpt lat="46.17548" lon="-1.20695">
        <ele>13.1</ele>
        <time>2020-05-31T20:59:27Z</time>
      </trkpt>
      <trkpt lat="46.17552" lon="-1.20703">
        <ele>13.1</ele>
        <time>2020-05-31T20:59:28Z</time>
      </trkpt>
      <trkpt lat="46.17556" lon="-1.20712">
        <ele>13.3</ele>
        <time>2020-05-31T20:59:29Z</time>
      </trkpt>
      <trkpt lat="46.1756" lon="-1.20721">
        <ele>13.4</ele>
        <time>2020-05-31T20:59:30Z</time>
      </trkpt>
      <trkpt lat="46.17561" lon="-1.20731">
        <ele>13.5</ele>
        <time>2020-05-31T20:59:31Z</time>
      </trkpt>
      <trkpt lat="46.17563" lon="-1.2074">
        <ele>13.6</ele>
        <time>2020-05-31T20:59:32Z</time>
      </trkpt>
      <trkpt lat="46.17563" lon="-1.2075">
        <ele>13.7</ele>
        <time>2020-05-31T20:59:33Z</time>
      </trkpt>
      <trkpt lat="46.17565" lon="-1.2076">
        <ele>13.8</ele>
        <time>2020-05-31T20:59:34Z</time>
      </trkpt>
      <trkpt lat="46.17566" lon="-1.20769">
        <ele>14</ele>
        <time>2020-05-31T20:59:35Z</time>
      </trkpt>
      <trkpt lat="46.17567" lon="-1.20778">
        <ele>14.1</ele>
        <time>2020-05-31T20:59:36Z</time>
      </trkpt>
      <trkpt lat="46.17568" lon="-1.20788">
        <ele>14.3</ele>
        <time>2020-05-31T20:59:37Z</time>
      </trkpt>
      <trkpt lat="46.1757" lon="-1.20797">
        <ele>14.4</ele>
        <time>2020-05-31T20:59:38Z</time>
      </trkpt>
      <trkpt lat="46.17571" lon="-1.20806">
        <ele>14.6</ele>
        <time>2020-05-31T20:59:39Z</time>
      </trkpt>
      <trkpt lat="46.17573" lon="-1.20815">
        <ele>14.7</ele>
        <time>2020-05-31T20:59:40Z</time>
      </trkpt>
      <trkpt lat="46.17575" lon="-1.20823">
        <ele>14.8</ele>
        <time>2020-05-31T20:59:41Z</time>
      </trkpt>
      <trkpt lat="46.17578" lon="-1.20831">
        <ele>14.9</ele>
        <time>2020-05-31T20:59:42Z</time>
      </trkpt>
      <trkpt lat="46.17581" lon="-1.20839">
        <ele>15</ele>
        <time>2020-05-31T20:59:43Z</time>
      </trkpt>
      <trkpt lat="46.17584" lon="-1.20847">
        <ele>15.1</ele>
        <time>2020-05-31T20:59:44Z</time>
      </trkpt>
      <trkpt lat="46.17588" lon="-1.20854">
        <ele>15.2</ele>
        <time>2020-05-31T20:59:45Z</time>
      </trkpt>
      <trkpt lat="46.17592" lon="-1.20862">
        <ele>15.2</ele>
        <time>2020-05-31T20:59:46Z</time>
      </trkpt>
      <trkpt lat="46.17595" lon="-1.2087">
        <ele>15.3</ele>
        <time>2020-05-31T20:59:47Z</time>
      </trkpt>
      <trkpt lat="46.17599" lon="-1.20878">
        <ele>15.3</ele>
        <time>2020-05-31T20:59:48Z</time>
      </trkpt>
      <trkpt lat="46.17603" lon="-1.20887">
        <ele>15.3</ele>
        <time>2020-05-31T20:59:49Z</time>
      </trkpt>
      <trkpt lat="46.17606" lon="-1.20896">
        <ele>15.3</ele>
        <time>2020-05-31T20:59:50Z</time>
      </trkpt>
      <trkpt lat="46.1761" lon="-1.20904">
        <ele>15.3</ele>
        <time>2020-05-31T20:59:51Z</time>
      </trkpt>
      <trkpt lat="46.17613" lon="-1.20911">
        <ele>15.3</ele>
        <time>2020-05-31T20:59:52Z</time>
      </trkpt>
      <trkpt lat="46.17617" lon="-1.2092">
        <ele>15.3</ele>
        <time>2020-05-31T20:59:53Z</time>
      </trkpt>
      <trkpt lat="46.1762" lon="-1.20927">
        <ele>15.3</ele>
        <time>2020-05-31T20:59:54Z</time>
      </trkpt>
      <trkpt lat="46.17624" lon="-1.20936">
        <ele>15.3</ele>
        <time>2020-05-31T20:59:55Z</time>
      </trkpt>
      <trkpt lat="46.1763" lon="-1.20944">
        <ele>15.3</ele>
        <time>2020-05-31T20:59:56Z</time>
      </trkpt>
      <trkpt lat="46.17634" lon="-1.20952">
        <ele>15.3</ele>
        <time>2020-05-31T20:59:57Z</time>
      </trkpt>
      <trkpt lat="46.17638" lon="-1.2096">
        <ele>15.3</ele>
        <time>2020-05-31T20:59:58Z</time>
      </trkpt>
      <trkpt lat="46.17644" lon="-1.20967">
        <ele>15.3</ele>
        <time>2020-05-31T20:59:59Z</time>
      </trkpt>
      <trkpt lat="46.17648" lon="-1.20975">
        <ele>15.3</ele>
        <time>2020-05-31T21:00:00Z</time>
      </trkpt>
      <trkpt lat="46.17653" lon="-1.20982">
        <ele>15.3</ele>
        <time>2020-05-31T21:00:01Z</time>
      </trkpt>
      <trkpt lat="46.17658" lon="-1.2099">
        <ele>15.3</ele>
        <time>2020-05-31T21:00:02Z</time>
      </trkpt>
      <trkpt lat="46.17663" lon="-1.20998">
        <ele>15.3</ele>
        <time>2020-05-31T21:00:03Z</time>
      </trkpt>
      <trkpt lat="46.17667" lon="-1.21005">
        <ele>15.3</ele>
        <time>2020-05-31T21:00:04Z</time>
      </trkpt>
      <trkpt lat="46.17672" lon="-1.21012">
        <ele>15.3</ele>
        <time>2020-05-31T21:00:05Z</time>
      </trkpt>
      <trkpt lat="46.17677" lon="-1.21019">
        <ele>15.3</ele>
        <time>2020-05-31T21:00:06Z</time>
      </trkpt>
      <trkpt lat="46.17683" lon="-1.21026">
        <ele>15.2</ele>
        <time>2020-05-31T21:00:07Z</time>
      </trkpt>
      <trkpt lat="46.17688" lon="-1.21033">
        <ele>15.2</ele>
        <time>2020-05-31T21:00:08Z</time>
      </trkpt>
      <trkpt lat="46.17692" lon="-1.21042">
        <ele>15.2</ele>
        <time>2020-05-31T21:00:09Z</time>
      </trkpt>
      <trkpt lat="46.17697" lon="-1.21051">
        <ele>15.1</ele>
        <time>2020-05-31T21:00:10Z</time>
      </trkpt>
      <trkpt lat="46.17701" lon="-1.21059">
        <ele>15.1</ele>
        <time>2020-05-31T21:00:11Z</time>
      </trkpt>
      <trkpt lat="46.17705" lon="-1.21068">
        <ele>15.1</ele>
        <time>2020-05-31T21:00:12Z</time>
      </trkpt>
      <trkpt lat="46.17709" lon="-1.21076">
        <ele>15.1</ele>
        <time>2020-05-31T21:00:13Z</time>
      </trkpt>
      <trkpt lat="46.17714" lon="-1.21084">
        <ele>15.1</ele>
        <time>2020-05-31T21:00:14Z</time>
      </trkpt>
      <trkpt lat="46.17718" lon="-1.21092">
        <ele>15.1</ele>
        <time>2020-05-31T21:00:15Z</time>
      </trkpt>
      <trkpt lat="46.17722" lon="-1.211">
        <ele>15.1</ele>
        <time>2020-05-31T21:00:16Z</time>
      </trkpt>
      <trkpt lat="46.17727" lon="-1.21107">
        <ele>15.1</ele>
        <time>2020-05-31T21:00:17Z</time>
      </trkpt>
      <trkpt lat="46.17732" lon="-1.21114">
        <ele>15.1</ele>
        <time>2020-05-31T21:00:18Z</time>
      </trkpt>
      <trkpt lat="46.17737" lon="-1.2112">
        <ele>15.1</ele>
        <time>2020-05-31T21:00:19Z</time>
      </trkpt>
      <trkpt lat="46.17742" lon="-1.21127">
        <ele>15.1</ele>
        <time>2020-05-31T21:00:20Z</time>
      </trkpt>
      <trkpt lat="46.17746" lon="-1.21135">
        <ele>15.1</ele>
        <time>2020-05-31T21:00:21Z</time>
      </trkpt>
      <trkpt lat="46.1775" lon="-1.21143">
        <ele>15.1</ele>
        <time>2020-05-31T21:00:22Z</time>
      </trkpt>
      <trkpt lat="46.17755" lon="-1.2115">
        <ele>15.1</ele>
        <time>2020-05-31T21:00:23Z</time>
      </trkpt>
      <trkpt lat="46.17759" lon="-1.21157">
        <ele>15.1</ele>
        <time>2020-05-31T21:00:24Z</time>
      </trkpt>
      <trkpt lat="46.17763" lon="-1.21164">
        <ele>15.1</ele>
        <time>2020-05-31T21:00:25Z</time>
      </trkpt>
      <trkpt lat="46.17766" lon="-1.2117">
        <ele>15.1</ele>
        <time>2020-05-31T21:00:26Z</time>
      </trkpt>
      <trkpt lat="46.17768" lon="-1.21176">
        <ele>15.1</ele>
        <time>2020-05-31T21:00:27Z</time>
      </trkpt>
      <trkpt lat="46.17768" lon="-1.21181">
        <ele>15.1</ele>
        <time>2020-05-31T21:00:28Z</time>
      </trkpt>
      <trkpt lat="46.17768" lon="-1.21185">
        <ele>15.1</ele>
        <time>2020-05-31T21:00:29Z</time>
      </trkpt>
      <trkpt lat="46.17767" lon="-1.21186">
        <ele>15.1</ele>
        <time>2020-05-31T21:00:30Z</time>
      </trkpt>
      <trkpt lat="46.17764" lon="-1.21184">
        <ele>15.1</ele>
        <time>2020-05-31T21:00:31Z</time>
      </trkpt>
      <trkpt lat="46.17762" lon="-1.21184">
        <ele>15.1</ele>
        <time>2020-05-31T21:00:32Z</time>
      </trkpt>
      <trkpt lat="46.17758" lon="-1.21183">
        <ele>15.1</ele>
        <time>2020-05-31T21:00:33Z</time>
      </trkpt>
      <trkpt lat="46.17755" lon="-1.21183">
        <ele>15.1</ele>
        <time>2020-05-31T21:00:34Z</time>
      </trkpt>
      <trkpt lat="46.17751" lon="-1.21184">
        <ele>15.1</ele>
        <time>2020-05-31T21:00:35Z</time>
      </trkpt>
      <trkpt lat="46.17748" lon="-1.21187">
        <ele>15.1</ele>
        <time>2020-05-31T21:00:36Z</time>
      </trkpt>
      <trkpt lat="46.17745" lon="-1.2119">
        <ele>15.1</ele>
        <time>2020-05-31T21:00:37Z</time>
      </trkpt>
      <trkpt lat="46.17742" lon="-1.21193">
        <ele>15.1</ele>
        <time>2020-05-31T21:00:38Z</time>
      </trkpt>
      <trkpt lat="46.17739" lon="-1.21193">
        <ele>15.1</ele>
        <time>2020-05-31T21:00:39Z</time>
      </trkpt>
      <trkpt lat="46.17736" lon="-1.2119">
        <ele>15.1</ele>
        <time>2020-05-31T21:00:40Z</time>
      </trkpt>
      <trkpt lat="46.17731" lon="-1.21189">
        <ele>15.1</ele>
        <time>2020-05-31T21:00:41Z</time>
      </trkpt>
      <trkpt lat="46.17726" lon="-1.21187">
        <ele>15.1</ele>
        <time>2020-05-31T21:00:42Z</time>
      </trkpt>
      <trkpt lat="46.17721" lon="-1.21184">
        <ele>15.1</ele>
        <time>2020-05-31T21:00:43Z</time>
      </trkpt>
      <trkpt lat="46.17715" lon="-1.21183">
        <ele>15.1</ele>
        <time>2020-05-31T21:00:44Z</time>
      </trkpt>
      <trkpt lat="46.1771" lon="-1.21181">
        <ele>15.2</ele>
        <time>2020-05-31T21:00:45Z</time>
      </trkpt>
      <trkpt lat="46.17704" lon="-1.2118">
        <ele>15.2</ele>
        <time>2020-05-31T21:00:46Z</time>
      </trkpt>
      <trkpt lat="46.17698" lon="-1.21178">
        <ele>15.2</ele>
        <time>2020-05-31T21:00:47Z</time>
      </trkpt>
      <trkpt lat="46.17692" lon="-1.21176">
        <ele>15.2</ele>
        <time>2020-05-31T21:00:48Z</time>
      </trkpt>
      <trkpt lat="46.17685" lon="-1.21175">
        <ele>15.2</ele>
        <time>2020-05-31T21:00:49Z</time>
      </trkpt>
      <trkpt lat="46.17679" lon="-1.21174">
        <ele>15.2</ele>
        <time>2020-05-31T21:00:50Z</time>
      </trkpt>
      <trkpt lat="46.17673" lon="-1.21173">
        <ele>15.2</ele>
        <time>2020-05-31T21:00:51Z</time>
      </trkpt>
      <trkpt lat="46.17666" lon="-1.21173">
        <ele>15.2</ele>
        <time>2020-05-31T21:00:52Z</time>
      </trkpt>
      <trkpt lat="46.1766" lon="-1.21177">
        <ele>15.3</ele>
        <time>2020-05-31T21:00:53Z</time>
      </trkpt>
      <trkpt lat="46.17656" lon="-1.21184">
        <ele>15.3</ele>
        <time>2020-05-31T21:00:54Z</time>
      </trkpt>
      <trkpt lat="46.17651" lon="-1.21191">
        <ele>15.4</ele>
        <time>2020-05-31T21:00:55Z</time>
      </trkpt>
      <trkpt lat="46.17647" lon="-1.212">
        <ele>15.5</ele>
        <time>2020-05-31T21:00:56Z</time>
      </trkpt>
      <trkpt lat="46.17643" lon="-1.21208">
        <ele>15.5</ele>
        <time>2020-05-31T21:00:57Z</time>
      </trkpt>
      <trkpt lat="46.17639" lon="-1.21216">
        <ele>15.6</ele>
        <time>2020-05-31T21:00:58Z</time>
      </trkpt>
      <trkpt lat="46.17635" lon="-1.21225">
        <ele>15.7</ele>
        <time>2020-05-31T21:00:59Z</time>
      </trkpt>
      <trkpt lat="46.17633" lon="-1.21234">
        <ele>15.8</ele>
        <time>2020-05-31T21:01:00Z</time>
      </trkpt>
      <trkpt lat="46.17632" lon="-1.21244">
        <ele>15.9</ele>
        <time>2020-05-31T21:01:01Z</time>
      </trkpt>
      <trkpt lat="46.1763" lon="-1.21253">
        <ele>16</ele>
        <time>2020-05-31T21:01:02Z</time>
      </trkpt>
      <trkpt lat="46.17629" lon="-1.21263">
        <ele>16.2</ele>
        <time>2020-05-31T21:01:03Z</time>
      </trkpt>
      <trkpt lat="46.17629" lon="-1.21272">
        <ele>16.2</ele>
        <time>2020-05-31T21:01:04Z</time>
      </trkpt>
      <trkpt lat="46.17628" lon="-1.21282">
        <ele>16.3</ele>
        <time>2020-05-31T21:01:05Z</time>
      </trkpt>
      <trkpt lat="46.17627" lon="-1.21291">
        <ele>16.3</ele>
        <time>2020-05-31T21:01:06Z</time>
      </trkpt>
      <trkpt lat="46.17625" lon="-1.21302">
        <ele>16.4</ele>
        <time>2020-05-31T21:01:07Z</time>
      </trkpt>
      <trkpt lat="46.17624" lon="-1.21312">
        <ele>16.4</ele>
        <time>2020-05-31T21:01:08Z</time>
      </trkpt>
      <trkpt lat="46.17623" lon="-1.21322">
        <ele>16.4</ele>
        <time>2020-05-31T21:01:09Z</time>
      </trkpt>
      <trkpt lat="46.17622" lon="-1.21332">
        <ele>16.4</ele>
        <time>2020-05-31T21:01:10Z</time>
      </trkpt>
      <trkpt lat="46.17621" lon="-1.21343">
        <ele>16.4</ele>
        <time>2020-05-31T21:01:11Z</time>
      </trkpt>
      <trkpt lat="46.17619" lon="-1.21353">
        <ele>16.4</ele>
        <time>2020-05-31T21:01:12Z</time>
      </trkpt>
      <trkpt lat="46.17619" lon="-1.21364">
        <ele>16.3</ele>
        <time>2020-05-31T21:01:13Z</time>
      </trkpt>
      <trkpt lat="46.17618" lon="-1.21375">
        <ele>16.3</ele>
        <time>2020-05-31T21:01:14Z</time>
      </trkpt>
      <trkpt lat="46.17618" lon="-1.21386">
        <ele>16.3</ele>
        <time>2020-05-31T21:01:15Z</time>
      </trkpt>
      <trkpt lat="46.17617" lon="-1.21397">
        <ele>16.3</ele>
        <time>2020-05-31T21:01:16Z</time>
      </trkpt>
      <trkpt lat="46.17616" lon="-1.21407">
        <ele>16.2</ele>
        <time>2020-05-31T21:01:17Z</time>
      </trkpt>
      <trkpt lat="46.17615" lon="-1.21418">
        <ele>16.2</ele>
        <time>2020-05-31T21:01:18Z</time>
      </trkpt>
      <trkpt lat="46.17614" lon="-1.21428">
        <ele>16.2</ele>
        <time>2020-05-31T21:01:19Z</time>
      </trkpt>
      <trkpt lat="46.17613" lon="-1.2144">
        <ele>16.2</ele>
        <time>2020-05-31T21:01:20Z</time>
      </trkpt>
      <trkpt lat="46.17612" lon="-1.2145">
        <ele>16.2</ele>
        <time>2020-05-31T21:01:21Z</time>
      </trkpt>
      <trkpt lat="46.17611" lon="-1.21461">
        <ele>16.2</ele>
        <time>2020-05-31T21:01:22Z</time>
      </trkpt>
      <trkpt lat="46.1761" lon="-1.21472">
        <ele>16.2</ele>
        <time>2020-05-31T21:01:23Z</time>
      </trkpt>
      <trkpt lat="46.17609" lon="-1.21482">
        <ele>16.2</ele>
        <time>2020-05-31T21:01:24Z</time>
      </trkpt>
      <trkpt lat="46.17608" lon="-1.21493">
        <ele>16.3</ele>
        <time>2020-05-31T21:01:25Z</time>
      </trkpt>
      <trkpt lat="46.17607" lon="-1.21504">
        <ele>16.3</ele>
        <time>2020-05-31T21:01:26Z</time>
      </trkpt>
      <trkpt lat="46.17607" lon="-1.21514">
        <ele>16.3</ele>
        <time>2020-05-31T21:01:27Z</time>
      </trkpt>
      <trkpt lat="46.17606" lon="-1.21525">
        <ele>16.3</ele>
        <time>2020-05-31T21:01:28Z</time>
      </trkpt>
      <trkpt lat="46.17605" lon="-1.21536">
        <ele>16.3</ele>
        <time>2020-05-31T21:01:29Z</time>
      </trkpt>
      <trkpt lat="46.17605" lon="-1.21546">
        <ele>16.3</ele>
        <time>2020-05-31T21:01:30Z</time>
      </trkpt>
      <trkpt lat="46.17605" lon="-1.21556">
        <ele>16.3</ele>
        <time>2020-05-31T21:01:31Z</time>
      </trkpt>
      <trkpt lat="46.17607" lon="-1.21566">
        <ele>16.3</ele>
        <time>2020-05-31T21:01:32Z</time>
      </trkpt>
      <trkpt lat="46.17609" lon="-1.21576">
        <ele>16.3</ele>
        <time>2020-05-31T21:01:33Z</time>
      </trkpt>
      <trkpt lat="46.1761" lon="-1.21585">
        <ele>16.3</ele>
        <time>2020-05-31T21:01:34Z</time>
      </trkpt>
      <trkpt lat="46.17612" lon="-1.21593">
        <ele>16.3</ele>
        <time>2020-05-31T21:01:35Z</time>
      </trkpt>
      <trkpt lat="46.17614" lon="-1.216">
        <ele>16.2</ele>
        <time>2020-05-31T21:01:36Z</time>
      </trkpt>
      <trkpt lat="46.17616" lon="-1.21606">
        <ele>16.2</ele>
        <time>2020-05-31T21:01:37Z</time>
      </trkpt>
      <trkpt lat="46.17618" lon="-1.21612">
        <ele>16.2</ele>
        <time>2020-05-31T21:01:38Z</time>
      </trkpt>
      <trkpt lat="46.1762" lon="-1.21615">
        <ele>16.2</ele>
        <time>2020-05-31T21:01:39Z</time>
      </trkpt>
      <trkpt lat="46.1762" lon="-1.21617">
        <ele>16.2</ele>
        <time>2020-05-31T21:01:40Z</time>
      </trkpt>
      <trkpt lat="46.1762" lon="-1.21617">
        <ele>16.2</ele>
        <time>2020-05-31T21:01:41Z</time>
      </trkpt>
      <trkpt lat="46.1762" lon="-1.21617">
        <ele>16.2</ele>
        <time>2020-05-31T21:01:42Z</time>
      </trkpt>
      <trkpt lat="46.1762" lon="-1.21617">
        <ele>16.2</ele>
        <time>2020-05-31T21:01:43Z</time>
      </trkpt>
      <trkpt lat="46.1762" lon="-1.21618">
        <ele>16.2</ele>
        <time>2020-05-31T21:01:44Z</time>
      </trkpt>
      <trkpt lat="46.1762" lon="-1.21618">
        <ele>16.2</ele>
        <time>2020-05-31T21:01:45Z</time>
      </trkpt>
      <trkpt lat="46.1762" lon="-1.21618">
        <ele>16.2</ele>
        <time>2020-05-31T21:01:46Z</time>
      </trkpt>
      <trkpt lat="46.17621" lon="-1.21617">
        <ele>16.2</ele>
        <time>2020-05-31T21:01:47Z</time>
      </trkpt>
      <trkpt lat="46.17621" lon="-1.21617">
        <ele>16.2</ele>
        <time>2020-05-31T21:01:48Z</time>
      </trkpt>
      <trkpt lat="46.17621" lon="-1.21617">
        <ele>16.2</ele>
        <time>2020-05-31T21:01:49Z</time>
      </trkpt>
      <trkpt lat="46.17622" lon="-1.21617">
        <ele>16.2</ele>
        <time>2020-05-31T21:01:50Z</time>
      </trkpt>
      <trkpt lat="46.17622" lon="-1.21617">
        <ele>16.2</ele>
        <time>2020-05-31T21:01:51Z</time>
      </trkpt>
      <trkpt lat="46.17621" lon="-1.21618">
        <ele>16.2</ele>
        <time>2020-05-31T21:01:52Z</time>
      </trkpt>
      <trkpt lat="46.17621" lon="-1.21618">
        <ele>16.2</ele>
        <time>2020-05-31T21:01:53Z</time>
      </trkpt>
      <trkpt lat="46.17621" lon="-1.21618">
        <ele>16.2</ele>
        <time>2020-05-31T21:01:54Z</time>
      </trkpt>
      <trkpt lat="46.1762" lon="-1.21618">
        <ele>16.2</ele>
        <time>2020-05-31T21:01:55Z</time>
      </trkpt>
      <trkpt lat="46.17621" lon="-1.21618">
        <ele>16.2</ele>
        <time>2020-05-31T21:01:56Z</time>
      </trkpt>
      <trkpt lat="46.17622" lon="-1.21617">
        <ele>16.2</ele>
        <time>2020-05-31T21:01:57Z</time>
      </trkpt>
      <trkpt lat="46.17622" lon="-1.21617">
        <ele>16.2</ele>
        <time>2020-05-31T21:01:58Z</time>
      </trkpt>
      <trkpt lat="46.17622" lon="-1.21617">
        <ele>16.2</ele>
        <time>2020-05-31T21:01:59Z</time>
      </trkpt>
      <trkpt lat="46.17621" lon="-1.21617">
        <ele>16.2</ele>
        <time>2020-05-31T21:02:00Z</time>
      </trkpt>
      <trkpt lat="46.17621" lon="-1.21618">
        <ele>16.2</ele>
        <time>2020-05-31T21:02:01Z</time>
      </trkpt>
      <trkpt lat="46.17622" lon="-1.21617">
        <ele>16.2</ele>
        <time>2020-05-31T21:02:02Z</time>
      </trkpt>
      <trkpt lat="46.17622" lon="-1.21617">
        <ele>16.2</ele>
        <time>2020-05-31T21:02:03Z</time>
      </trkpt>
      <trkpt lat="46.17622" lon="-1.21617">
        <ele>16.2</ele>
        <time>2020-05-31T21:02:04Z</time>
      </trkpt>
      <trkpt lat="46.17623" lon="-1.21617">
        <ele>16.2</ele>
        <time>2020-05-31T21:02:05Z</time>
      </trkpt>
      <trkpt lat="46.17623" lon="-1.21618">
        <ele>16.2</ele>
        <time>2020-05-31T21:02:06Z</time>
      </trkpt>
      <trkpt lat="46.17622" lon="-1.21618">
        <ele>16.2</ele>
        <time>2020-05-31T21:02:07Z</time>
      </trkpt>
      <trkpt lat="46.17622" lon="-1.21618">
        <ele>16.2</ele>
        <time>2020-05-31T21:02:08Z</time>
      </trkpt>
      <trkpt lat="46.17622" lon="-1.21619">
        <ele>16.2</ele>
        <time>2020-05-31T21:02:09Z</time>
      </trkpt>
      <trkpt lat="46.17623" lon="-1.21618">
        <ele>16.2</ele>
        <time>2020-05-31T21:02:10Z</time>
      </trkpt>
      <trkpt lat="46.17623" lon="-1.21618">
        <ele>16.2</ele>
        <time>2020-05-31T21:02:11Z</time>
      </trkpt>
      <trkpt lat="46.17622" lon="-1.21618">
        <ele>16.2</ele>
        <time>2020-05-31T21:02:12Z</time>
      </trkpt>
      <trkpt lat="46.17622" lon="-1.21618">
        <ele>16.2</ele>
        <time>2020-05-31T21:02:13Z</time>
      </trkpt>
      <trkpt lat="46.17622" lon="-1.21618">
        <ele>16.2</ele>
        <time>2020-05-31T21:02:14Z</time>
      </trkpt>
      <trkpt lat="46.17622" lon="-1.21618">
        <ele>16.2</ele>
        <time>2020-05-31T21:02:15Z</time>
      </trkpt>
      <trkpt lat="46.17622" lon="-1.21619">
        <ele>16.2</ele>
        <time>2020-05-31T21:02:16Z</time>
      </trkpt>
      <trkpt lat="46.17623" lon="-1.21618">
        <ele>16.2</ele>
        <time>2020-05-31T21:02:17Z</time>
      </trkpt>
      <trkpt lat="46.17623" lon="-1.21619">
        <ele>16.2</ele>
        <time>2020-05-31T21:02:18Z</time>
      </trkpt>
      <trkpt lat="46.17623" lon="-1.21619">
        <ele>16.2</ele>
        <time>2020-05-31T21:02:19Z</time>
      </trkpt>
      <trkpt lat="46.17622" lon="-1.21619">
        <ele>16.2</ele>
        <time>2020-05-31T21:02:20Z</time>
      </trkpt>
      <trkpt lat="46.17621" lon="-1.21619">
        <ele>16.2</ele>
        <time>2020-05-31T21:02:21Z</time>
      </trkpt>
      <trkpt lat="46.17621" lon="-1.21619">
        <ele>16.2</ele>
        <time>2020-05-31T21:02:22Z</time>
      </trkpt>
      <trkpt lat="46.17621" lon="-1.21619">
        <ele>16.2</ele>
        <time>2020-05-31T21:02:23Z</time>
      </trkpt>
      <trkpt lat="46.17621" lon="-1.21619">
        <ele>16.2</ele>
        <time>2020-05-31T21:02:24Z</time>
      </trkpt>
      <trkpt lat="46.17621" lon="-1.21619">
        <ele>16.2</ele>
        <time>2020-05-31T21:02:25Z</time>
      </trkpt>
      <trkpt lat="46.17622" lon="-1.21619">
        <ele>16.2</ele>
        <time>2020-05-31T21:02:26Z</time>
      </trkpt>
      <trkpt lat="46.17624" lon="-1.21619">
        <ele>16.2</ele>
        <time>2020-05-31T21:02:27Z</time>
      </trkpt>
      <trkpt lat="46.17625" lon="-1.2162">
        <ele>16.2</ele>
        <time>2020-05-31T21:02:28Z</time>
      </trkpt>
      <trkpt lat="46.17625" lon="-1.21625">
        <ele>16.1</ele>
        <time>2020-05-31T21:02:29Z</time>
      </trkpt>
      <trkpt lat="46.17626" lon="-1.21627">
        <ele>16.1</ele>
        <time>2020-05-31T21:02:30Z</time>
      </trkpt>
      <trkpt lat="46.17627" lon="-1.21631">
        <ele>16.1</ele>
        <time>2020-05-31T21:02:31Z</time>
      </trkpt>
      <trkpt lat="46.17629" lon="-1.21635">
        <ele>16.1</ele>
        <time>2020-05-31T21:02:32Z</time>
      </trkpt>
      <trkpt lat="46.17631" lon="-1.21639">
        <ele>16.1</ele>
        <time>2020-05-31T21:02:33Z</time>
      </trkpt>
      <trkpt lat="46.17633" lon="-1.21645">
        <ele>16.1</ele>
        <time>2020-05-31T21:02:34Z</time>
      </trkpt>
      <trkpt lat="46.17635" lon="-1.21651">
        <ele>16</ele>
        <time>2020-05-31T21:02:35Z</time>
      </trkpt>
      <trkpt lat="46.17637" lon="-1.21657">
        <ele>16</ele>
        <time>2020-05-31T21:02:36Z</time>
      </trkpt>
      <trkpt lat="46.17638" lon="-1.21664">
        <ele>15.9</ele>
        <time>2020-05-31T21:02:37Z</time>
      </trkpt>
      <trkpt lat="46.1764" lon="-1.2167">
        <ele>15.9</ele>
        <time>2020-05-31T21:02:38Z</time>
      </trkpt>
      <trkpt lat="46.17643" lon="-1.21677">
        <ele>15.8</ele>
        <time>2020-05-31T21:02:39Z</time>
      </trkpt>
      <trkpt lat="46.17646" lon="-1.21683">
        <ele>15.7</ele>
        <time>2020-05-31T21:02:40Z</time>
      </trkpt>
      <trkpt lat="46.17648" lon="-1.2169">
        <ele>15.6</ele>
        <time>2020-05-31T21:02:41Z</time>
      </trkpt>
      <trkpt lat="46.17651" lon="-1.21698">
        <ele>15.5</ele>
        <time>2020-05-31T21:02:42Z</time>
      </trkpt>
      <trkpt lat="46.17653" lon="-1.21706">
        <ele>15.4</ele>
        <time>2020-05-31T21:02:43Z</time>
      </trkpt>
      <trkpt lat="46.17655" lon="-1.21713">
        <ele>15.4</ele>
        <time>2020-05-31T21:02:44Z</time>
      </trkpt>
      <trkpt lat="46.17658" lon="-1.21721">
        <ele>15.3</ele>
        <time>2020-05-31T21:02:45Z</time>
      </trkpt>
      <trkpt lat="46.17661" lon="-1.21729">
        <ele>15.3</ele>
        <time>2020-05-31T21:02:46Z</time>
      </trkpt>
      <trkpt lat="46.17664" lon="-1.21736">
        <ele>15.3</ele>
        <time>2020-05-31T21:02:47Z</time>
      </trkpt>
      <trkpt lat="46.17667" lon="-1.21744">
        <ele>15.2</ele>
        <time>2020-05-31T21:02:48Z</time>
      </trkpt>
      <trkpt lat="46.17671" lon="-1.21752">
        <ele>15.2</ele>
        <time>2020-05-31T21:02:49Z</time>
      </trkpt>
      <trkpt lat="46.17674" lon="-1.21761">
        <ele>15.2</ele>
        <time>2020-05-31T21:02:50Z</time>
      </trkpt>
      <trkpt lat="46.17678" lon="-1.21771">
        <ele>15.1</ele>
        <time>2020-05-31T21:02:51Z</time>
      </trkpt>
      <trkpt lat="46.17681" lon="-1.2178">
        <ele>15</ele>
        <time>2020-05-31T21:02:52Z</time>
      </trkpt>
      <trkpt lat="46.17683" lon="-1.21787">
        <ele>15</ele>
        <time>2020-05-31T21:02:53Z</time>
      </trkpt>
      <trkpt lat="46.17686" lon="-1.21795">
        <ele>14.9</ele>
        <time>2020-05-31T21:02:54Z</time>
      </trkpt>
      <trkpt lat="46.17688" lon="-1.21802">
        <ele>14.8</ele>
        <time>2020-05-31T21:02:55Z</time>
      </trkpt>
      <trkpt lat="46.1769" lon="-1.21811">
        <ele>14.7</ele>
        <time>2020-05-31T21:02:56Z</time>
      </trkpt>
      <trkpt lat="46.17692" lon="-1.21818">
        <ele>14.7</ele>
        <time>2020-05-31T21:02:57Z</time>
      </trkpt>
      <trkpt lat="46.17694" lon="-1.21826">
        <ele>14.5</ele>
        <time>2020-05-31T21:02:58Z</time>
      </trkpt>
      <trkpt lat="46.17697" lon="-1.21835">
        <ele>14.3</ele>
        <time>2020-05-31T21:02:59Z</time>
      </trkpt>
      <trkpt lat="46.177" lon="-1.21843">
        <ele>14.1</ele>
        <time>2020-05-31T21:03:00Z</time>
      </trkpt>
      <trkpt lat="46.17702" lon="-1.2185">
        <ele>13.9</ele>
        <time>2020-05-31T21:03:01Z</time>
      </trkpt>
      <trkpt lat="46.17703" lon="-1.21859">
        <ele>13.7</ele>
        <time>2020-05-31T21:03:02Z</time>
      </trkpt>
      <trkpt lat="46.17705" lon="-1.21865">
        <ele>13.6</ele>
        <time>2020-05-31T21:03:03Z</time>
      </trkpt>
      <trkpt lat="46.17707" lon="-1.21874">
        <ele>13.5</ele>
        <time>2020-05-31T21:03:04Z</time>
      </trkpt>
      <trkpt lat="46.17708" lon="-1.2188">
        <ele>13.4</ele>
        <time>2020-05-31T21:03:05Z</time>
      </trkpt>
      <trkpt lat="46.17709" lon="-1.21884">
        <ele>13.3</ele>
        <time>2020-05-31T21:03:06Z</time>
      </trkpt>
      <trkpt lat="46.1771" lon="-1.21891">
        <ele>13</ele>
        <time>2020-05-31T21:03:07Z</time>
      </trkpt>
      <trkpt lat="46.17709" lon="-1.21897">
        <ele>12.7</ele>
        <time>2020-05-31T21:03:08Z</time>
      </trkpt>
      <trkpt lat="46.17705" lon="-1.21904">
        <ele>12.3</ele>
        <time>2020-05-31T21:03:09Z</time>
      </trkpt>
      <trkpt lat="46.17701" lon="-1.21908">
        <ele>12</ele>
        <time>2020-05-31T21:03:10Z</time>
      </trkpt>
      <trkpt lat="46.17698" lon="-1.21911">
        <ele>11.7</ele>
        <time>2020-05-31T21:03:11Z</time>
      </trkpt>
      <trkpt lat="46.17694" lon="-1.21914">
        <ele>11.4</ele>
        <time>2020-05-31T21:03:12Z</time>
      </trkpt>
      <trkpt lat="46.17691" lon="-1.21917">
        <ele>11.2</ele>
        <time>2020-05-31T21:03:13Z</time>
      </trkpt>
      <trkpt lat="46.17687" lon="-1.21919">
        <ele>10.9</ele>
        <time>2020-05-31T21:03:14Z</time>
      </trkpt>
      <trkpt lat="46.17684" lon="-1.21922">
        <ele>10.6</ele>
        <time>2020-05-31T21:03:15Z</time>
      </trkpt>
      <trkpt lat="46.17678" lon="-1.21923">
        <ele>10.2</ele>
        <time>2020-05-31T21:03:16Z</time>
      </trkpt>
      <trkpt lat="46.17673" lon="-1.21926">
        <ele>9.9</ele>
        <time>2020-05-31T21:03:17Z</time>
      </trkpt>
      <trkpt lat="46.17666" lon="-1.21924">
        <ele>9.5</ele>
        <time>2020-05-31T21:03:18Z</time>
      </trkpt>
      <trkpt lat="46.17658" lon="-1.21925">
        <ele>9.2</ele>
        <time>2020-05-31T21:03:19Z</time>
      </trkpt>
      <trkpt lat="46.17651" lon="-1.21925">
        <ele>9</ele>
        <time>2020-05-31T21:03:20Z</time>
      </trkpt>
      <trkpt lat="46.17644" lon="-1.21925">
        <ele>8.8</ele>
        <time>2020-05-31T21:03:21Z</time>
      </trkpt>
      <trkpt lat="46.17639" lon="-1.21926">
        <ele>8.6</ele>
        <time>2020-05-31T21:03:22Z</time>
      </trkpt>
      <trkpt lat="46.17633" lon="-1.21926">
        <ele>8.5</ele>
        <time>2020-05-31T21:03:23Z</time>
      </trkpt>
      <trkpt lat="46.17628" lon="-1.21925">
        <ele>8.4</ele>
        <time>2020-05-31T21:03:24Z</time>
      </trkpt>
      <trkpt lat="46.17625" lon="-1.21925">
        <ele>8.4</ele>
        <time>2020-05-31T21:03:25Z</time>
      </trkpt>
      <trkpt lat="46.17621" lon="-1.21925">
        <ele>8.3</ele>
        <time>2020-05-31T21:03:26Z</time>
      </trkpt>
      <trkpt lat="46.17618" lon="-1.21925">
        <ele>8.3</ele>
        <time>2020-05-31T21:03:27Z</time>
      </trkpt>
      <trkpt lat="46.17615" lon="-1.21925">
        <ele>8.2</ele>
        <time>2020-05-31T21:03:28Z</time>
      </trkpt>
      <trkpt lat="46.17614" lon="-1.21926">
        <ele>8.2</ele>
        <time>2020-05-31T21:03:29Z</time>
      </trkpt>
      <trkpt lat="46.17612" lon="-1.21927">
        <ele>8.2</ele>
        <time>2020-05-31T21:03:30Z</time>
      </trkpt>
      <trkpt lat="46.17611" lon="-1.21928">
        <ele>8.2</ele>
        <time>2020-05-31T21:03:31Z</time>
      </trkpt>
      <trkpt lat="46.1761" lon="-1.21928">
        <ele>8.2</ele>
        <time>2020-05-31T21:03:32Z</time>
      </trkpt>
      <trkpt lat="46.17609" lon="-1.21932">
        <ele>8.2</ele>
        <time>2020-05-31T21:03:33Z</time>
      </trkpt>
      <trkpt lat="46.17609" lon="-1.21937">
        <ele>8.2</ele>
        <time>2020-05-31T21:03:34Z</time>
      </trkpt>
      <trkpt lat="46.17608" lon="-1.21945">
        <ele>8.2</ele>
        <time>2020-05-31T21:03:35Z</time>
      </trkpt>
      <trkpt lat="46.17608" lon="-1.21952">
        <ele>8.2</ele>
        <time>2020-05-31T21:03:36Z</time>
      </trkpt>
      <trkpt lat="46.17608" lon="-1.2196">
        <ele>8.2</ele>
        <time>2020-05-31T21:03:37Z</time>
      </trkpt>
      <trkpt lat="46.17607" lon="-1.21969">
        <ele>8.2</ele>
        <time>2020-05-31T21:03:38Z</time>
      </trkpt>
      <trkpt lat="46.17606" lon="-1.21977">
        <ele>8.2</ele>
        <time>2020-05-31T21:03:39Z</time>
      </trkpt>
      <trkpt lat="46.17606" lon="-1.21986">
        <ele>8.2</ele>
        <time>2020-05-31T21:03:40Z</time>
      </trkpt>
      <trkpt lat="46.17605" lon="-1.21995">
        <ele>8.2</ele>
        <time>2020-05-31T21:03:41Z</time>
      </trkpt>
      <trkpt lat="46.17604" lon="-1.22002">
        <ele>8.2</ele>
        <time>2020-05-31T21:03:42Z</time>
      </trkpt>
      <trkpt lat="46.17603" lon="-1.22011">
        <ele>8.2</ele>
        <time>2020-05-31T21:03:43Z</time>
      </trkpt>
      <trkpt lat="46.17601" lon="-1.22019">
        <ele>8.3</ele>
        <time>2020-05-31T21:03:44Z</time>
      </trkpt>
      <trkpt lat="46.176" lon="-1.22027">
        <ele>8.3</ele>
        <time>2020-05-31T21:03:45Z</time>
      </trkpt>
      <trkpt lat="46.17598" lon="-1.22035">
        <ele>8.4</ele>
        <time>2020-05-31T21:03:46Z</time>
      </trkpt>
      <trkpt lat="46.17597" lon="-1.22043">
        <ele>8.5</ele>
        <time>2020-05-31T21:03:47Z</time>
      </trkpt>
      <trkpt lat="46.17595" lon="-1.22052">
        <ele>8.6</ele>
        <time>2020-05-31T21:03:48Z</time>
      </trkpt>
      <trkpt lat="46.17593" lon="-1.22062">
        <ele>8.7</ele>
        <time>2020-05-31T21:03:49Z</time>
      </trkpt>
      <trkpt lat="46.17591" lon="-1.22073">
        <ele>8.8</ele>
        <time>2020-05-31T21:03:50Z</time>
      </trkpt>
      <trkpt lat="46.1759" lon="-1.22081">
        <ele>8.9</ele>
        <time>2020-05-31T21:03:51Z</time>
      </trkpt>
      <trkpt lat="46.17587" lon="-1.2209">
        <ele>9</ele>
        <time>2020-05-31T21:03:52Z</time>
      </trkpt>
      <trkpt lat="46.17586" lon="-1.22099">
        <ele>9.2</ele>
        <time>2020-05-31T21:03:53Z</time>
      </trkpt>
      <trkpt lat="46.17584" lon="-1.22108">
        <ele>9.2</ele>
        <time>2020-05-31T21:03:54Z</time>
      </trkpt>
      <trkpt lat="46.17583" lon="-1.22118">
        <ele>9.3</ele>
        <time>2020-05-31T21:03:55Z</time>
      </trkpt>
      <trkpt lat="46.17582" lon="-1.22128">
        <ele>9.4</ele>
        <time>2020-05-31T21:03:56Z</time>
      </trkpt>
      <trkpt lat="46.17581" lon="-1.22138">
        <ele>9.5</ele>
        <time>2020-05-31T21:03:57Z</time>
      </trkpt>
      <trkpt lat="46.17579" lon="-1.22148">
        <ele>9.6</ele>
        <time>2020-05-31T21:03:58Z</time>
      </trkpt>
      <trkpt lat="46.17578" lon="-1.22158">
        <ele>9.8</ele>
        <time>2020-05-31T21:03:59Z</time>
      </trkpt>
      <trkpt lat="46.17577" lon="-1.22167">
        <ele>9.9</ele>
        <time>2020-05-31T21:04:00Z</time>
      </trkpt>
      <trkpt lat="46.17575" lon="-1.22176">
        <ele>10</ele>
        <time>2020-05-31T21:04:01Z</time>
      </trkpt>
      <trkpt lat="46.17574" lon="-1.22186">
        <ele>10.1</ele>
        <time>2020-05-31T21:04:02Z</time>
      </trkpt>
      <trkpt lat="46.17573" lon="-1.22196">
        <ele>10.2</ele>
        <time>2020-05-31T21:04:03Z</time>
      </trkpt>
      <trkpt lat="46.17571" lon="-1.22205">
        <ele>10.2</ele>
        <time>2020-05-31T21:04:04Z</time>
      </trkpt>
      <trkpt lat="46.17569" lon="-1.22214">
        <ele>10.3</ele>
        <time>2020-05-31T21:04:05Z</time>
      </trkpt>
      <trkpt lat="46.17568" lon="-1.22224">
        <ele>10.4</ele>
        <time>2020-05-31T21:04:06Z</time>
      </trkpt>
      <trkpt lat="46.17567" lon="-1.22234">
        <ele>10.5</ele>
        <time>2020-05-31T21:04:07Z</time>
      </trkpt>
      <trkpt lat="46.17566" lon="-1.22244">
        <ele>10.6</ele>
        <time>2020-05-31T21:04:08Z</time>
      </trkpt>
      <trkpt lat="46.17564" lon="-1.22253">
        <ele>10.8</ele>
        <time>2020-05-31T21:04:09Z</time>
      </trkpt>
      <trkpt lat="46.17563" lon="-1.22263">
        <ele>10.9</ele>
        <time>2020-05-31T21:04:10Z</time>
      </trkpt>
      <trkpt lat="46.17562" lon="-1.22273">
        <ele>11.1</ele>
        <time>2020-05-31T21:04:11Z</time>
      </trkpt>
      <trkpt lat="46.17561" lon="-1.22283">
        <ele>11.3</ele>
        <time>2020-05-31T21:04:12Z</time>
      </trkpt>
      <trkpt lat="46.17559" lon="-1.22292">
        <ele>11.4</ele>
        <time>2020-05-31T21:04:13Z</time>
      </trkpt>
      <trkpt lat="46.17558" lon="-1.22302">
        <ele>11.6</ele>
        <time>2020-05-31T21:04:14Z</time>
      </trkpt>
      <trkpt lat="46.17557" lon="-1.22312">
        <ele>11.8</ele>
        <time>2020-05-31T21:04:15Z</time>
      </trkpt>
      <trkpt lat="46.17556" lon="-1.22322">
        <ele>11.9</ele>
        <time>2020-05-31T21:04:16Z</time>
      </trkpt>
      <trkpt lat="46.17554" lon="-1.22331">
        <ele>12.1</ele>
        <time>2020-05-31T21:04:17Z</time>
      </trkpt>
      <trkpt lat="46.17553" lon="-1.22341">
        <ele>12.2</ele>
        <time>2020-05-31T21:04:18Z</time>
      </trkpt>
      <trkpt lat="46.17552" lon="-1.22351">
        <ele>12.4</ele>
        <time>2020-05-31T21:04:19Z</time>
      </trkpt>
      <trkpt lat="46.17551" lon="-1.22362">
        <ele>12.6</ele>
        <time>2020-05-31T21:04:20Z</time>
      </trkpt>
      <trkpt lat="46.1755" lon="-1.22372">
        <ele>12.7</ele>
        <time>2020-05-31T21:04:21Z</time>
      </trkpt>
      <trkpt lat="46.17549" lon="-1.22382">
        <ele>12.9</ele>
        <time>2020-05-31T21:04:22Z</time>
      </trkpt>
      <trkpt lat="46.17547" lon="-1.22392">
        <ele>13.1</ele>
        <time>2020-05-31T21:04:23Z</time>
      </trkpt>
      <trkpt lat="46.17546" lon="-1.22402">
        <ele>13.3</ele>
        <time>2020-05-31T21:04:24Z</time>
      </trkpt>
      <trkpt lat="46.17544" lon="-1.22413">
        <ele>13.4</ele>
        <time>2020-05-31T21:04:25Z</time>
      </trkpt>
      <trkpt lat="46.17542" lon="-1.22423">
        <ele>13.5</ele>
        <time>2020-05-31T21:04:26Z</time>
      </trkpt>
      <trkpt lat="46.17541" lon="-1.22433">
        <ele>13.7</ele>
        <time>2020-05-31T21:04:27Z</time>
      </trkpt>
      <trkpt lat="46.17539" lon="-1.22443">
        <ele>13.8</ele>
        <time>2020-05-31T21:04:28Z</time>
      </trkpt>
      <trkpt lat="46.17538" lon="-1.22453">
        <ele>14</ele>
        <time>2020-05-31T21:04:29Z</time>
      </trkpt>
      <trkpt lat="46.17536" lon="-1.22464">
        <ele>14.2</ele>
        <time>2020-05-31T21:04:30Z</time>
      </trkpt>
      <trkpt lat="46.17535" lon="-1.22474">
        <ele>14.3</ele>
        <time>2020-05-31T21:04:31Z</time>
      </trkpt>
      <trkpt lat="46.17533" lon="-1.22485">
        <ele>14.5</ele>
        <time>2020-05-31T21:04:32Z</time>
      </trkpt>
      <trkpt lat="46.17532" lon="-1.22495">
        <ele>14.6</ele>
        <time>2020-05-31T21:04:33Z</time>
      </trkpt>
      <trkpt lat="46.1753" lon="-1.22506">
        <ele>14.8</ele>
        <time>2020-05-31T21:04:34Z</time>
      </trkpt>
      <trkpt lat="46.17528" lon="-1.22516">
        <ele>14.9</ele>
        <time>2020-05-31T21:04:35Z</time>
      </trkpt>
      <trkpt lat="46.17527" lon="-1.22527">
        <ele>15</ele>
        <time>2020-05-31T21:04:36Z</time>
      </trkpt>
      <trkpt lat="46.17525" lon="-1.22537">
        <ele>15.1</ele>
        <time>2020-05-31T21:04:37Z</time>
      </trkpt>
      <trkpt lat="46.17524" lon="-1.22548">
        <ele>15.2</ele>
        <time>2020-05-31T21:04:38Z</time>
      </trkpt>
      <trkpt lat="46.17523" lon="-1.22558">
        <ele>15.3</ele>
        <time>2020-05-31T21:04:39Z</time>
      </trkpt>
      <trkpt lat="46.17521" lon="-1.22569">
        <ele>15.5</ele>
        <time>2020-05-31T21:04:40Z</time>
      </trkpt>
      <trkpt lat="46.1752" lon="-1.22579">
        <ele>15.7</ele>
        <time>2020-05-31T21:04:41Z</time>
      </trkpt>
      <trkpt lat="46.17518" lon="-1.22589">
        <ele>15.9</ele>
        <time>2020-05-31T21:04:42Z</time>
      </trkpt>
      <trkpt lat="46.17517" lon="-1.226">
        <ele>16.1</ele>
        <time>2020-05-31T21:04:43Z</time>
      </trkpt>
      <trkpt lat="46.17516" lon="-1.2261">
        <ele>16.3</ele>
        <time>2020-05-31T21:04:44Z</time>
      </trkpt>
      <trkpt lat="46.17514" lon="-1.2262">
        <ele>16.5</ele>
        <time>2020-05-31T21:04:45Z</time>
      </trkpt>
      <trkpt lat="46.17512" lon="-1.22631">
        <ele>16.7</ele>
        <time>2020-05-31T21:04:46Z</time>
      </trkpt>
      <trkpt lat="46.1751" lon="-1.22641">
        <ele>16.9</ele>
        <time>2020-05-31T21:04:47Z</time>
      </trkpt>
      <trkpt lat="46.17508" lon="-1.22652">
        <ele>17.1</ele>
        <time>2020-05-31T21:04:48Z</time>
      </trkpt>
      <trkpt lat="46.17507" lon="-1.22662">
        <ele>17.2</ele>
        <time>2020-05-31T21:04:49Z</time>
      </trkpt>
      <trkpt lat="46.17505" lon="-1.22672">
        <ele>17.4</ele>
        <time>2020-05-31T21:04:50Z</time>
      </trkpt>
      <trkpt lat="46.17503" lon="-1.22683">
        <ele>17.6</ele>
        <time>2020-05-31T21:04:51Z</time>
      </trkpt>
      <trkpt lat="46.17502" lon="-1.22693">
        <ele>17.8</ele>
        <time>2020-05-31T21:04:52Z</time>
      </trkpt>
      <trkpt lat="46.175" lon="-1.22704">
        <ele>18</ele>
        <time>2020-05-31T21:04:53Z</time>
      </trkpt>
      <trkpt lat="46.17498" lon="-1.22714">
        <ele>18.1</ele>
        <time>2020-05-31T21:04:54Z</time>
      </trkpt>
      <trkpt lat="46.17496" lon="-1.22725">
        <ele>18.3</ele>
        <time>2020-05-31T21:04:55Z</time>
      </trkpt>
      <trkpt lat="46.17494" lon="-1.22735">
        <ele>18.5</ele>
        <time>2020-05-31T21:04:56Z</time>
      </trkpt>
      <trkpt lat="46.17493" lon="-1.22745">
        <ele>18.7</ele>
        <time>2020-05-31T21:04:57Z</time>
      </trkpt>
      <trkpt lat="46.17491" lon="-1.22755">
        <ele>18.9</ele>
        <time>2020-05-31T21:04:58Z</time>
      </trkpt>
      <trkpt lat="46.17489" lon="-1.22766">
        <ele>19</ele>
        <time>2020-05-31T21:04:59Z</time>
      </trkpt>
      <trkpt lat="46.17487" lon="-1.22776">
        <ele>19.2</ele>
        <time>2020-05-31T21:05:00Z</time>
      </trkpt>
      <trkpt lat="46.17485" lon="-1.22786">
        <ele>19.3</ele>
        <time>2020-05-31T21:05:01Z</time>
      </trkpt>
      <trkpt lat="46.17483" lon="-1.22797">
        <ele>19.4</ele>
        <time>2020-05-31T21:05:02Z</time>
      </trkpt>
      <trkpt lat="46.17481" lon="-1.22807">
        <ele>19.6</ele>
        <time>2020-05-31T21:05:03Z</time>
      </trkpt>
      <trkpt lat="46.17479" lon="-1.22818">
        <ele>19.7</ele>
        <time>2020-05-31T21:05:04Z</time>
      </trkpt>
      <trkpt lat="46.17477" lon="-1.22828">
        <ele>19.8</ele>
        <time>2020-05-31T21:05:05Z</time>
      </trkpt>
      <trkpt lat="46.17475" lon="-1.22838">
        <ele>20</ele>
        <time>2020-05-31T21:05:06Z</time>
      </trkpt>
      <trkpt lat="46.17474" lon="-1.22848">
        <ele>20.1</ele>
        <time>2020-05-31T21:05:07Z</time>
      </trkpt>
      <trkpt lat="46.17472" lon="-1.22859">
        <ele>20.3</ele>
        <time>2020-05-31T21:05:08Z</time>
      </trkpt>
      <trkpt lat="46.1747" lon="-1.22869">
        <ele>20.5</ele>
        <time>2020-05-31T21:05:09Z</time>
      </trkpt>
      <trkpt lat="46.17468" lon="-1.22879">
        <ele>20.7</ele>
        <time>2020-05-31T21:05:10Z</time>
      </trkpt>
      <trkpt lat="46.17466" lon="-1.2289">
        <ele>20.9</ele>
        <time>2020-05-31T21:05:11Z</time>
      </trkpt>
      <trkpt lat="46.17465" lon="-1.229">
        <ele>21.1</ele>
        <time>2020-05-31T21:05:12Z</time>
      </trkpt>
      <trkpt lat="46.17463" lon="-1.22911">
        <ele>21.2</ele>
        <time>2020-05-31T21:05:13Z</time>
      </trkpt>
      <trkpt lat="46.17461" lon="-1.22921">
        <ele>21.3</ele>
        <time>2020-05-31T21:05:14Z</time>
      </trkpt>
      <trkpt lat="46.17459" lon="-1.22931">
        <ele>21.3</ele>
        <time>2020-05-31T21:05:15Z</time>
      </trkpt>
      <trkpt lat="46.17457" lon="-1.22941">
        <ele>21.4</ele>
        <time>2020-05-31T21:05:16Z</time>
      </trkpt>
      <trkpt lat="46.17455" lon="-1.2295">
        <ele>21.4</ele>
        <time>2020-05-31T21:05:17Z</time>
      </trkpt>
      <trkpt lat="46.17453" lon="-1.2296">
        <ele>21.5</ele>
        <time>2020-05-31T21:05:18Z</time>
      </trkpt>
      <trkpt lat="46.17451" lon="-1.2297">
        <ele>21.7</ele>
        <time>2020-05-31T21:05:19Z</time>
      </trkpt>
      <trkpt lat="46.17449" lon="-1.2298">
        <ele>21.8</ele>
        <time>2020-05-31T21:05:20Z</time>
      </trkpt>
      <trkpt lat="46.17447" lon="-1.22991">
        <ele>22</ele>
        <time>2020-05-31T21:05:21Z</time>
      </trkpt>
      <trkpt lat="46.17445" lon="-1.23001">
        <ele>22.2</ele>
        <time>2020-05-31T21:05:22Z</time>
      </trkpt>
      <trkpt lat="46.17443" lon="-1.23011">
        <ele>22.4</ele>
        <time>2020-05-31T21:05:23Z</time>
      </trkpt>
      <trkpt lat="46.17441" lon="-1.23021">
        <ele>22.6</ele>
        <time>2020-05-31T21:05:24Z</time>
      </trkpt>
      <trkpt lat="46.17439" lon="-1.23031">
        <ele>22.8</ele>
        <time>2020-05-31T21:05:25Z</time>
      </trkpt>
      <trkpt lat="46.17437" lon="-1.23041">
        <ele>23</ele>
        <time>2020-05-31T21:05:26Z</time>
      </trkpt>
      <trkpt lat="46.17435" lon="-1.23051">
        <ele>23.2</ele>
        <time>2020-05-31T21:05:27Z</time>
      </trkpt>
      <trkpt lat="46.17433" lon="-1.23062">
        <ele>23.3</ele>
        <time>2020-05-31T21:05:28Z</time>
      </trkpt>
      <trkpt lat="46.17431" lon="-1.23072">
        <ele>23.5</ele>
        <time>2020-05-31T21:05:29Z</time>
      </trkpt>
      <trkpt lat="46.17429" lon="-1.23083">
        <ele>23.6</ele>
        <time>2020-05-31T21:05:30Z</time>
      </trkpt>
      <trkpt lat="46.17426" lon="-1.23093">
        <ele>23.8</ele>
        <time>2020-05-31T21:05:31Z</time>
      </trkpt>
      <trkpt lat="46.17424" lon="-1.23103">
        <ele>23.9</ele>
        <time>2020-05-31T21:05:32Z</time>
      </trkpt>
      <trkpt lat="46.17422" lon="-1.23113">
        <ele>24</ele>
        <time>2020-05-31T21:05:33Z</time>
      </trkpt>
      <trkpt lat="46.1742" lon="-1.23123">
        <ele>24.2</ele>
        <time>2020-05-31T21:05:34Z</time>
      </trkpt>
      <trkpt lat="46.17417" lon="-1.23133">
        <ele>24.3</ele>
        <time>2020-05-31T21:05:35Z</time>
      </trkpt>
      <trkpt lat="46.17415" lon="-1.23143">
        <ele>24.5</ele>
        <time>2020-05-31T21:05:36Z</time>
      </trkpt>
      <trkpt lat="46.17412" lon="-1.23153">
        <ele>24.7</ele>
        <time>2020-05-31T21:05:37Z</time>
      </trkpt>
      <trkpt lat="46.1741" lon="-1.23163">
        <ele>24.9</ele>
        <time>2020-05-31T21:05:38Z</time>
      </trkpt>
      <trkpt lat="46.17408" lon="-1.23173">
        <ele>25.1</ele>
        <time>2020-05-31T21:05:39Z</time>
      </trkpt>
      <trkpt lat="46.17406" lon="-1.23183">
        <ele>25.3</ele>
        <time>2020-05-31T21:05:40Z</time>
      </trkpt>
      <trkpt lat="46.17404" lon="-1.23193">
        <ele>25.4</ele>
        <time>2020-05-31T21:05:41Z</time>
      </trkpt>
      <trkpt lat="46.17401" lon="-1.23203">
        <ele>25.6</ele>
        <time>2020-05-31T21:05:42Z</time>
      </trkpt>
      <trkpt lat="46.17399" lon="-1.23213">
        <ele>25.8</ele>
        <time>2020-05-31T21:05:43Z</time>
      </trkpt>
      <trkpt lat="46.17397" lon="-1.23223">
        <ele>25.9</ele>
        <time>2020-05-31T21:05:44Z</time>
      </trkpt>
      <trkpt lat="46.17394" lon="-1.23233">
        <ele>26</ele>
        <time>2020-05-31T21:05:45Z</time>
      </trkpt>
      <trkpt lat="46.17392" lon="-1.23243">
        <ele>26.2</ele>
        <time>2020-05-31T21:05:46Z</time>
      </trkpt>
      <trkpt lat="46.1739" lon="-1.23253">
        <ele>26.3</ele>
        <time>2020-05-31T21:05:47Z</time>
      </trkpt>
      <trkpt lat="46.17387" lon="-1.23263">
        <ele>26.5</ele>
        <time>2020-05-31T21:05:48Z</time>
      </trkpt>
      <trkpt lat="46.17386" lon="-1.23273">
        <ele>26.7</ele>
        <time>2020-05-31T21:05:49Z</time>
      </trkpt>
      <trkpt lat="46.17383" lon="-1.23283">
        <ele>26.9</ele>
        <time>2020-05-31T21:05:50Z</time>
      </trkpt>
      <trkpt lat="46.17381" lon="-1.23293">
        <ele>27.2</ele>
        <time>2020-05-31T21:05:51Z</time>
      </trkpt>
      <trkpt lat="46.17378" lon="-1.23302">
        <ele>27.3</ele>
        <time>2020-05-31T21:05:52Z</time>
      </trkpt>
      <trkpt lat="46.17376" lon="-1.23312">
        <ele>27.5</ele>
        <time>2020-05-31T21:05:53Z</time>
      </trkpt>
      <trkpt lat="46.17374" lon="-1.23322">
        <ele>27.7</ele>
        <time>2020-05-31T21:05:54Z</time>
      </trkpt>
      <trkpt lat="46.17371" lon="-1.23332">
        <ele>27.8</ele>
        <time>2020-05-31T21:05:55Z</time>
      </trkpt>
      <trkpt lat="46.17369" lon="-1.23341">
        <ele>28</ele>
        <time>2020-05-31T21:05:56Z</time>
      </trkpt>
      <trkpt lat="46.17366" lon="-1.23351">
        <ele>28.1</ele>
        <time>2020-05-31T21:05:57Z</time>
      </trkpt>
      <trkpt lat="46.17364" lon="-1.23361">
        <ele>28.2</ele>
        <time>2020-05-31T21:05:58Z</time>
      </trkpt>
      <trkpt lat="46.17362" lon="-1.23371">
        <ele>28.3</ele>
        <time>2020-05-31T21:05:59Z</time>
      </trkpt>
      <trkpt lat="46.1736" lon="-1.23381">
        <ele>28.5</ele>
        <time>2020-05-31T21:06:00Z</time>
      </trkpt>
      <trkpt lat="46.17357" lon="-1.2339">
        <ele>28.6</ele>
        <time>2020-05-31T21:06:01Z</time>
      </trkpt>
      <trkpt lat="46.17355" lon="-1.234">
        <ele>28.8</ele>
        <time>2020-05-31T21:06:02Z</time>
      </trkpt>
      <trkpt lat="46.17352" lon="-1.2341">
        <ele>29</ele>
        <time>2020-05-31T21:06:03Z</time>
      </trkpt>
      <trkpt lat="46.1735" lon="-1.23419">
        <ele>29.1</ele>
        <time>2020-05-31T21:06:04Z</time>
      </trkpt>
      <trkpt lat="46.17347" lon="-1.23429">
        <ele>29.3</ele>
        <time>2020-05-31T21:06:05Z</time>
      </trkpt>
      <trkpt lat="46.17344" lon="-1.23438">
        <ele>29.4</ele>
        <time>2020-05-31T21:06:06Z</time>
      </trkpt>
      <trkpt lat="46.17342" lon="-1.23448">
        <ele>29.6</ele>
        <time>2020-05-31T21:06:07Z</time>
      </trkpt>
      <trkpt lat="46.17339" lon="-1.23458">
        <ele>29.8</ele>
        <time>2020-05-31T21:06:08Z</time>
      </trkpt>
      <trkpt lat="46.17337" lon="-1.23468">
        <ele>29.9</ele>
        <time>2020-05-31T21:06:09Z</time>
      </trkpt>
      <trkpt lat="46.17334" lon="-1.23478">
        <ele>30</ele>
        <time>2020-05-31T21:06:10Z</time>
      </trkpt>
      <trkpt lat="46.17332" lon="-1.23487">
        <ele>30.1</ele>
        <time>2020-05-31T21:06:11Z</time>
      </trkpt>
      <trkpt lat="46.17329" lon="-1.23497">
        <ele>30.2</ele>
        <time>2020-05-31T21:06:12Z</time>
      </trkpt>
      <trkpt lat="46.17326" lon="-1.23507">
        <ele>30.3</ele>
        <time>2020-05-31T21:06:13Z</time>
      </trkpt>
      <trkpt lat="46.17324" lon="-1.23516">
        <ele>30.5</ele>
        <time>2020-05-31T21:06:14Z</time>
      </trkpt>
      <trkpt lat="46.17321" lon="-1.23526">
        <ele>30.6</ele>
        <time>2020-05-31T21:06:15Z</time>
      </trkpt>
      <trkpt lat="46.17319" lon="-1.23536">
        <ele>30.8</ele>
        <time>2020-05-31T21:06:16Z</time>
      </trkpt>
      <trkpt lat="46.17317" lon="-1.23547">
        <ele>30.9</ele>
        <time>2020-05-31T21:06:17Z</time>
      </trkpt>
      <trkpt lat="46.17314" lon="-1.23557">
        <ele>31.1</ele>
        <time>2020-05-31T21:06:18Z</time>
      </trkpt>
      <trkpt lat="46.17311" lon="-1.23566">
        <ele>31.3</ele>
        <time>2020-05-31T21:06:19Z</time>
      </trkpt>
      <trkpt lat="46.17308" lon="-1.23576">
        <ele>31.6</ele>
        <time>2020-05-31T21:06:20Z</time>
      </trkpt>
      <trkpt lat="46.17305" lon="-1.23586">
        <ele>31.8</ele>
        <time>2020-05-31T21:06:21Z</time>
      </trkpt>
      <trkpt lat="46.17303" lon="-1.23596">
        <ele>31.9</ele>
        <time>2020-05-31T21:06:22Z</time>
      </trkpt>
      <trkpt lat="46.173" lon="-1.23606">
        <ele>32.1</ele>
        <time>2020-05-31T21:06:23Z</time>
      </trkpt>
      <trkpt lat="46.17297" lon="-1.23616">
        <ele>32.3</ele>
        <time>2020-05-31T21:06:24Z</time>
      </trkpt>
      <trkpt lat="46.17295" lon="-1.23626">
        <ele>32.5</ele>
        <time>2020-05-31T21:06:25Z</time>
      </trkpt>
      <trkpt lat="46.17292" lon="-1.23635">
        <ele>32.6</ele>
        <time>2020-05-31T21:06:26Z</time>
      </trkpt>
      <trkpt lat="46.17289" lon="-1.23646">
        <ele>32.7</ele>
        <time>2020-05-31T21:06:27Z</time>
      </trkpt>
      <trkpt lat="46.17286" lon="-1.23656">
        <ele>32.9</ele>
        <time>2020-05-31T21:06:28Z</time>
      </trkpt>
      <trkpt lat="46.17283" lon="-1.23665">
        <ele>33</ele>
        <time>2020-05-31T21:06:29Z</time>
      </trkpt>
      <trkpt lat="46.1728" lon="-1.23676">
        <ele>33.2</ele>
        <time>2020-05-31T21:06:30Z</time>
      </trkpt>
      <trkpt lat="46.17276" lon="-1.23685">
        <ele>33.4</ele>
        <time>2020-05-31T21:06:31Z</time>
      </trkpt>
      <trkpt lat="46.17273" lon="-1.23694">
        <ele>33.5</ele>
        <time>2020-05-31T21:06:32Z</time>
      </trkpt>
      <trkpt lat="46.17271" lon="-1.23704">
        <ele>33.7</ele>
        <time>2020-05-31T21:06:33Z</time>
      </trkpt>
      <trkpt lat="46.17268" lon="-1.23714">
        <ele>33.9</ele>
        <time>2020-05-31T21:06:34Z</time>
      </trkpt>
      <trkpt lat="46.17265" lon="-1.23724">
        <ele>34.1</ele>
        <time>2020-05-31T21:06:35Z</time>
      </trkpt>
      <trkpt lat="46.17262" lon="-1.23734">
        <ele>34.3</ele>
        <time>2020-05-31T21:06:36Z</time>
      </trkpt>
      <trkpt lat="46.17259" lon="-1.23743">
        <ele>34.5</ele>
        <time>2020-05-31T21:06:37Z</time>
      </trkpt>
      <trkpt lat="46.17255" lon="-1.23753">
        <ele>34.6</ele>
        <time>2020-05-31T21:06:38Z</time>
      </trkpt>
      <trkpt lat="46.17253" lon="-1.23763">
        <ele>34.8</ele>
        <time>2020-05-31T21:06:39Z</time>
      </trkpt>
      <trkpt lat="46.1725" lon="-1.23772">
        <ele>34.9</ele>
        <time>2020-05-31T21:06:40Z</time>
      </trkpt>
      <trkpt lat="46.17247" lon="-1.23782">
        <ele>35.1</ele>
        <time>2020-05-31T21:06:41Z</time>
      </trkpt>
      <trkpt lat="46.17244" lon="-1.23791">
        <ele>35.2</ele>
        <time>2020-05-31T21:06:42Z</time>
      </trkpt>
      <trkpt lat="46.17241" lon="-1.238">
        <ele>35.4</ele>
        <time>2020-05-31T21:06:43Z</time>
      </trkpt>
      <trkpt lat="46.17238" lon="-1.2381">
        <ele>35.6</ele>
        <time>2020-05-31T21:06:44Z</time>
      </trkpt>
      <trkpt lat="46.17235" lon="-1.23819">
        <ele>35.8</ele>
        <time>2020-05-31T21:06:45Z</time>
      </trkpt>
      <trkpt lat="46.17231" lon="-1.23829">
        <ele>36</ele>
        <time>2020-05-31T21:06:46Z</time>
      </trkpt>
      <trkpt lat="46.17228" lon="-1.23838">
        <ele>36.2</ele>
        <time>2020-05-31T21:06:47Z</time>
      </trkpt>
      <trkpt lat="46.17225" lon="-1.23848">
        <ele>36.3</ele>
        <time>2020-05-31T21:06:48Z</time>
      </trkpt>
      <trkpt lat="46.17222" lon="-1.23857">
        <ele>36.5</ele>
        <time>2020-05-31T21:06:49Z</time>
      </trkpt>
      <trkpt lat="46.17219" lon="-1.23867">
        <ele>36.7</ele>
        <time>2020-05-31T21:06:50Z</time>
      </trkpt>
      <trkpt lat="46.17216" lon="-1.23877">
        <ele>36.9</ele>
        <time>2020-05-31T21:06:51Z</time>
      </trkpt>
      <trkpt lat="46.17213" lon="-1.23886">
        <ele>37</ele>
        <time>2020-05-31T21:06:52Z</time>
      </trkpt>
      <trkpt lat="46.1721" lon="-1.23896">
        <ele>37.2</ele>
        <time>2020-05-31T21:06:53Z</time>
      </trkpt>
      <trkpt lat="46.17207" lon="-1.23905">
        <ele>37.3</ele>
        <time>2020-05-31T21:06:54Z</time>
      </trkpt>
      <trkpt lat="46.17203" lon="-1.23915">
        <ele>37.5</ele>
        <time>2020-05-31T21:06:55Z</time>
      </trkpt>
      <trkpt lat="46.172" lon="-1.23925">
        <ele>37.6</ele>
        <time>2020-05-31T21:06:56Z</time>
      </trkpt>
      <trkpt lat="46.17197" lon="-1.23934">
        <ele>37.8</ele>
        <time>2020-05-31T21:06:57Z</time>
      </trkpt>
      <trkpt lat="46.17194" lon="-1.23944">
        <ele>37.9</ele>
        <time>2020-05-31T21:06:58Z</time>
      </trkpt>
      <trkpt lat="46.17191" lon="-1.23953">
        <ele>38.1</ele>
        <time>2020-05-31T21:06:59Z</time>
      </trkpt>
      <trkpt lat="46.17188" lon="-1.23963">
        <ele>38.2</ele>
        <time>2020-05-31T21:07:00Z</time>
      </trkpt>
      <trkpt lat="46.17184" lon="-1.23972">
        <ele>38.3</ele>
        <time>2020-05-31T21:07:01Z</time>
      </trkpt>
      <trkpt lat="46.1718" lon="-1.23981">
        <ele>38.4</ele>
        <time>2020-05-31T21:07:02Z</time>
      </trkpt>
      <trkpt lat="46.17177" lon="-1.2399">
        <ele>38.5</ele>
        <time>2020-05-31T21:07:03Z</time>
      </trkpt>
      <trkpt lat="46.17173" lon="-1.23999">
        <ele>38.6</ele>
        <time>2020-05-31T21:07:04Z</time>
      </trkpt>
      <trkpt lat="46.1717" lon="-1.24008">
        <ele>38.6</ele>
        <time>2020-05-31T21:07:05Z</time>
      </trkpt>
      <trkpt lat="46.17166" lon="-1.24018">
        <ele>38.7</ele>
        <time>2020-05-31T21:07:06Z</time>
      </trkpt>
      <trkpt lat="46.17163" lon="-1.24027">
        <ele>38.8</ele>
        <time>2020-05-31T21:07:07Z</time>
      </trkpt>
      <trkpt lat="46.17159" lon="-1.24037">
        <ele>38.9</ele>
        <time>2020-05-31T21:07:08Z</time>
      </trkpt>
      <trkpt lat="46.17156" lon="-1.24047">
        <ele>39</ele>
        <time>2020-05-31T21:07:09Z</time>
      </trkpt>
      <trkpt lat="46.17153" lon="-1.24056">
        <ele>39.1</ele>
        <time>2020-05-31T21:07:10Z</time>
      </trkpt>
      <trkpt lat="46.1715" lon="-1.24066">
        <ele>39.3</ele>
        <time>2020-05-31T21:07:11Z</time>
      </trkpt>
      <trkpt lat="46.17146" lon="-1.24076">
        <ele>39.4</ele>
        <time>2020-05-31T21:07:12Z</time>
      </trkpt>
      <trkpt lat="46.17142" lon="-1.24085">
        <ele>39.6</ele>
        <time>2020-05-31T21:07:13Z</time>
      </trkpt>
      <trkpt lat="46.17139" lon="-1.24095">
        <ele>39.7</ele>
        <time>2020-05-31T21:07:14Z</time>
      </trkpt>
      <trkpt lat="46.17136" lon="-1.24105">
        <ele>39.9</ele>
        <time>2020-05-31T21:07:15Z</time>
      </trkpt>
      <trkpt lat="46.17133" lon="-1.24115">
        <ele>40</ele>
        <time>2020-05-31T21:07:16Z</time>
      </trkpt>
      <trkpt lat="46.1713" lon="-1.24126">
        <ele>40.1</ele>
        <time>2020-05-31T21:07:17Z</time>
      </trkpt>
      <trkpt lat="46.17126" lon="-1.24135">
        <ele>40.2</ele>
        <time>2020-05-31T21:07:18Z</time>
      </trkpt>
      <trkpt lat="46.17123" lon="-1.24145">
        <ele>40.3</ele>
        <time>2020-05-31T21:07:19Z</time>
      </trkpt>
      <trkpt lat="46.17119" lon="-1.24154">
        <ele>40.4</ele>
        <time>2020-05-31T21:07:20Z</time>
      </trkpt>
      <trkpt lat="46.17116" lon="-1.24163">
        <ele>40.5</ele>
        <time>2020-05-31T21:07:21Z</time>
      </trkpt>
      <trkpt lat="46.17112" lon="-1.24173">
        <ele>40.7</ele>
        <time>2020-05-31T21:07:22Z</time>
      </trkpt>
      <trkpt lat="46.17109" lon="-1.24182">
        <ele>40.8</ele>
        <time>2020-05-31T21:07:23Z</time>
      </trkpt>
      <trkpt lat="46.17105" lon="-1.24192">
        <ele>40.9</ele>
        <time>2020-05-31T21:07:24Z</time>
      </trkpt>
      <trkpt lat="46.17102" lon="-1.24201">
        <ele>41</ele>
        <time>2020-05-31T21:07:25Z</time>
      </trkpt>
      <trkpt lat="46.17098" lon="-1.24211">
        <ele>41</ele>
        <time>2020-05-31T21:07:26Z</time>
      </trkpt>
      <trkpt lat="46.17094" lon="-1.24221">
        <ele>41</ele>
        <time>2020-05-31T21:07:27Z</time>
      </trkpt>
      <trkpt lat="46.1709" lon="-1.24231">
        <ele>41</ele>
        <time>2020-05-31T21:07:28Z</time>
      </trkpt>
      <trkpt lat="46.17086" lon="-1.2424">
        <ele>41</ele>
        <time>2020-05-31T21:07:29Z</time>
      </trkpt>
      <trkpt lat="46.17082" lon="-1.2425">
        <ele>40.9</ele>
        <time>2020-05-31T21:07:30Z</time>
      </trkpt>
      <trkpt lat="46.17078" lon="-1.2426">
        <ele>41</ele>
        <time>2020-05-31T21:07:31Z</time>
      </trkpt>
      <trkpt lat="46.17074" lon="-1.2427">
        <ele>41</ele>
        <time>2020-05-31T21:07:32Z</time>
      </trkpt>
      <trkpt lat="46.17071" lon="-1.2428">
        <ele>41</ele>
        <time>2020-05-31T21:07:33Z</time>
      </trkpt>
      <trkpt lat="46.17067" lon="-1.24291">
        <ele>41</ele>
        <time>2020-05-31T21:07:34Z</time>
      </trkpt>
      <trkpt lat="46.17063" lon="-1.24301">
        <ele>41</ele>
        <time>2020-05-31T21:07:35Z</time>
      </trkpt>
      <trkpt lat="46.17059" lon="-1.24311">
        <ele>41</ele>
        <time>2020-05-31T21:07:36Z</time>
      </trkpt>
      <trkpt lat="46.17055" lon="-1.24322">
        <ele>41</ele>
        <time>2020-05-31T21:07:37Z</time>
      </trkpt>
      <trkpt lat="46.17051" lon="-1.24333">
        <ele>41</ele>
        <time>2020-05-31T21:07:38Z</time>
      </trkpt>
      <trkpt lat="46.17047" lon="-1.24343">
        <ele>41.1</ele>
        <time>2020-05-31T21:07:39Z</time>
      </trkpt>
      <trkpt lat="46.17042" lon="-1.24354">
        <ele>41.1</ele>
        <time>2020-05-31T21:07:40Z</time>
      </trkpt>
      <trkpt lat="46.17038" lon="-1.24364">
        <ele>41.1</ele>
        <time>2020-05-31T21:07:41Z</time>
      </trkpt>
      <trkpt lat="46.17034" lon="-1.24376">
        <ele>41</ele>
        <time>2020-05-31T21:07:42Z</time>
      </trkpt>
      <trkpt lat="46.1703" lon="-1.24388">
        <ele>41</ele>
        <time>2020-05-31T21:07:43Z</time>
      </trkpt>
      <trkpt lat="46.17026" lon="-1.244">
        <ele>41</ele>
        <time>2020-05-31T21:07:44Z</time>
      </trkpt>
      <trkpt lat="46.17021" lon="-1.24411">
        <ele>41</ele>
        <time>2020-05-31T21:07:45Z</time>
      </trkpt>
      <trkpt lat="46.17017" lon="-1.24423">
        <ele>40.9</ele>
        <time>2020-05-31T21:07:46Z</time>
      </trkpt>
      <trkpt lat="46.17013" lon="-1.24435">
        <ele>40.9</ele>
        <time>2020-05-31T21:07:47Z</time>
      </trkpt>
      <trkpt lat="46.17008" lon="-1.24447">
        <ele>40.8</ele>
        <time>2020-05-31T21:07:48Z</time>
      </trkpt>
      <trkpt lat="46.17003" lon="-1.24459">
        <ele>40.8</ele>
        <time>2020-05-31T21:07:49Z</time>
      </trkpt>
      <trkpt lat="46.16999" lon="-1.2447">
        <ele>40.8</ele>
        <time>2020-05-31T21:07:50Z</time>
      </trkpt>
      <trkpt lat="46.16994" lon="-1.24483">
        <ele>40.8</ele>
        <time>2020-05-31T21:07:51Z</time>
      </trkpt>
      <trkpt lat="46.16989" lon="-1.24495">
        <ele>40.7</ele>
        <time>2020-05-31T21:07:52Z</time>
      </trkpt>
      <trkpt lat="46.16984" lon="-1.24507">
        <ele>40.7</ele>
        <time>2020-05-31T21:07:53Z</time>
      </trkpt>
      <trkpt lat="46.16979" lon="-1.24518">
        <ele>40.6</ele>
        <time>2020-05-31T21:07:54Z</time>
      </trkpt>
      <trkpt lat="46.16974" lon="-1.2453">
        <ele>40.5</ele>
        <time>2020-05-31T21:07:55Z</time>
      </trkpt>
      <trkpt lat="46.16969" lon="-1.24542">
        <ele>40.3</ele>
        <time>2020-05-31T21:07:56Z</time>
      </trkpt>
      <trkpt lat="46.16964" lon="-1.24553">
        <ele>40.2</ele>
        <time>2020-05-31T21:07:57Z</time>
      </trkpt>
      <trkpt lat="46.16959" lon="-1.24564">
        <ele>40.1</ele>
        <time>2020-05-31T21:07:58Z</time>
      </trkpt>
      <trkpt lat="46.16954" lon="-1.24576">
        <ele>40</ele>
        <time>2020-05-31T21:07:59Z</time>
      </trkpt>
      <trkpt lat="46.16949" lon="-1.24587">
        <ele>39.9</ele>
        <time>2020-05-31T21:08:00Z</time>
      </trkpt>
      <trkpt lat="46.16944" lon="-1.24598">
        <ele>39.8</ele>
        <time>2020-05-31T21:08:01Z</time>
      </trkpt>
      <trkpt lat="46.16939" lon="-1.24609">
        <ele>39.8</ele>
        <time>2020-05-31T21:08:02Z</time>
      </trkpt>
      <trkpt lat="46.16935" lon="-1.2462">
        <ele>39.7</ele>
        <time>2020-05-31T21:08:03Z</time>
      </trkpt>
      <trkpt lat="46.1693" lon="-1.24631">
        <ele>39.7</ele>
        <time>2020-05-31T21:08:04Z</time>
      </trkpt>
      <trkpt lat="46.16925" lon="-1.24642">
        <ele>39.5</ele>
        <time>2020-05-31T21:08:05Z</time>
      </trkpt>
      <trkpt lat="46.1692" lon="-1.24653">
        <ele>39.4</ele>
        <time>2020-05-31T21:08:06Z</time>
      </trkpt>
      <trkpt lat="46.16915" lon="-1.24664">
        <ele>39.2</ele>
        <time>2020-05-31T21:08:07Z</time>
      </trkpt>
      <trkpt lat="46.1691" lon="-1.24674">
        <ele>39</ele>
        <time>2020-05-31T21:08:08Z</time>
      </trkpt>
      <trkpt lat="46.16905" lon="-1.24685">
        <ele>38.8</ele>
        <time>2020-05-31T21:08:09Z</time>
      </trkpt>
      <trkpt lat="46.169" lon="-1.24696">
        <ele>38.6</ele>
        <time>2020-05-31T21:08:10Z</time>
      </trkpt>
      <trkpt lat="46.16895" lon="-1.24706">
        <ele>38.5</ele>
        <time>2020-05-31T21:08:11Z</time>
      </trkpt>
      <trkpt lat="46.1689" lon="-1.24717">
        <ele>38.4</ele>
        <time>2020-05-31T21:08:12Z</time>
      </trkpt>
      <trkpt lat="46.16885" lon="-1.24728">
        <ele>38.3</ele>
        <time>2020-05-31T21:08:13Z</time>
      </trkpt>
      <trkpt lat="46.1688" lon="-1.24739">
        <ele>38.1</ele>
        <time>2020-05-31T21:08:14Z</time>
      </trkpt>
      <trkpt lat="46.16875" lon="-1.2475">
        <ele>37.9</ele>
        <time>2020-05-31T21:08:15Z</time>
      </trkpt>
      <trkpt lat="46.1687" lon="-1.2476">
        <ele>37.7</ele>
        <time>2020-05-31T21:08:16Z</time>
      </trkpt>
      <trkpt lat="46.16865" lon="-1.24771">
        <ele>37.4</ele>
        <time>2020-05-31T21:08:17Z</time>
      </trkpt>
      <trkpt lat="46.1686" lon="-1.24782">
        <ele>37.2</ele>
        <time>2020-05-31T21:08:18Z</time>
      </trkpt>
      <trkpt lat="46.16855" lon="-1.24793">
        <ele>37</ele>
        <time>2020-05-31T21:08:19Z</time>
      </trkpt>
      <trkpt lat="46.1685" lon="-1.24805">
        <ele>36.7</ele>
        <time>2020-05-31T21:08:20Z</time>
      </trkpt>
      <trkpt lat="46.16845" lon="-1.24816">
        <ele>36.5</ele>
        <time>2020-05-31T21:08:21Z</time>
      </trkpt>
      <trkpt lat="46.16839" lon="-1.24826">
        <ele>36.2</ele>
        <time>2020-05-31T21:08:22Z</time>
      </trkpt>
      <trkpt lat="46.16833" lon="-1.24837">
        <ele>36</ele>
        <time>2020-05-31T21:08:23Z</time>
      </trkpt>
      <trkpt lat="46.16828" lon="-1.24847">
        <ele>35.8</ele>
        <time>2020-05-31T21:08:24Z</time>
      </trkpt>
      <trkpt lat="46.16823" lon="-1.24858">
        <ele>35.6</ele>
        <time>2020-05-31T21:08:25Z</time>
      </trkpt>
      <trkpt lat="46.16818" lon="-1.24869">
        <ele>35.4</ele>
        <time>2020-05-31T21:08:26Z</time>
      </trkpt>
      <trkpt lat="46.16813" lon="-1.2488">
        <ele>35.1</ele>
        <time>2020-05-31T21:08:27Z</time>
      </trkpt>
      <trkpt lat="46.16807" lon="-1.24891">
        <ele>34.9</ele>
        <time>2020-05-31T21:08:28Z</time>
      </trkpt>
      <trkpt lat="46.16802" lon="-1.24902">
        <ele>34.6</ele>
        <time>2020-05-31T21:08:29Z</time>
      </trkpt>
      <trkpt lat="46.16796" lon="-1.24912">
        <ele>34.3</ele>
        <time>2020-05-31T21:08:30Z</time>
      </trkpt>
      <trkpt lat="46.16791" lon="-1.24923">
        <ele>34</ele>
        <time>2020-05-31T21:08:31Z</time>
      </trkpt>
      <trkpt lat="46.16785" lon="-1.24934">
        <ele>33.7</ele>
        <time>2020-05-31T21:08:32Z</time>
      </trkpt>
      <trkpt lat="46.1678" lon="-1.24945">
        <ele>33.4</ele>
        <time>2020-05-31T21:08:33Z</time>
      </trkpt>
      <trkpt lat="46.16774" lon="-1.24956">
        <ele>33</ele>
        <time>2020-05-31T21:08:34Z</time>
      </trkpt>
      <trkpt lat="46.16768" lon="-1.24967">
        <ele>32.6</ele>
        <time>2020-05-31T21:08:35Z</time>
      </trkpt>
      <trkpt lat="46.16762" lon="-1.24979">
        <ele>32.3</ele>
        <time>2020-05-31T21:08:36Z</time>
      </trkpt>
      <trkpt lat="46.16756" lon="-1.2499">
        <ele>31.9</ele>
        <time>2020-05-31T21:08:37Z</time>
      </trkpt>
      <trkpt lat="46.1675" lon="-1.25002">
        <ele>31.6</ele>
        <time>2020-05-31T21:08:38Z</time>
      </trkpt>
      <trkpt lat="46.16744" lon="-1.25014">
        <ele>31.2</ele>
        <time>2020-05-31T21:08:39Z</time>
      </trkpt>
      <trkpt lat="46.16738" lon="-1.25026">
        <ele>30.9</ele>
        <time>2020-05-31T21:08:40Z</time>
      </trkpt>
      <trkpt lat="46.16732" lon="-1.25038">
        <ele>30.5</ele>
        <time>2020-05-31T21:08:41Z</time>
      </trkpt>
      <trkpt lat="46.16725" lon="-1.2505">
        <ele>30.1</ele>
        <time>2020-05-31T21:08:42Z</time>
      </trkpt>
      <trkpt lat="46.16719" lon="-1.25062">
        <ele>29.7</ele>
        <time>2020-05-31T21:08:43Z</time>
      </trkpt>
      <trkpt lat="46.16712" lon="-1.25074">
        <ele>29.3</ele>
        <time>2020-05-31T21:08:44Z</time>
      </trkpt>
      <trkpt lat="46.16706" lon="-1.25086">
        <ele>28.9</ele>
        <time>2020-05-31T21:08:45Z</time>
      </trkpt>
      <trkpt lat="46.16699" lon="-1.25099">
        <ele>28.4</ele>
        <time>2020-05-31T21:08:46Z</time>
      </trkpt>
      <trkpt lat="46.16693" lon="-1.25111">
        <ele>28</ele>
        <time>2020-05-31T21:08:47Z</time>
      </trkpt>
      <trkpt lat="46.16686" lon="-1.25124">
        <ele>27.5</ele>
        <time>2020-05-31T21:08:48Z</time>
      </trkpt>
      <trkpt lat="46.16679" lon="-1.25137">
        <ele>27.1</ele>
        <time>2020-05-31T21:08:49Z</time>
      </trkpt>
      <trkpt lat="46.16672" lon="-1.25149">
        <ele>26.6</ele>
        <time>2020-05-31T21:08:50Z</time>
      </trkpt>
      <trkpt lat="46.16665" lon="-1.25162">
        <ele>26.1</ele>
        <time>2020-05-31T21:08:51Z</time>
      </trkpt>
      <trkpt lat="46.16658" lon="-1.25175">
        <ele>25.6</ele>
        <time>2020-05-31T21:08:52Z</time>
      </trkpt>
      <trkpt lat="46.16651" lon="-1.25188">
        <ele>25</ele>
        <time>2020-05-31T21:08:53Z</time>
      </trkpt>
      <trkpt lat="46.16643" lon="-1.25201">
        <ele>24.6</ele>
        <time>2020-05-31T21:08:54Z</time>
      </trkpt>
      <trkpt lat="46.16636" lon="-1.25214">
        <ele>24.1</ele>
        <time>2020-05-31T21:08:55Z</time>
      </trkpt>
      <trkpt lat="46.16629" lon="-1.25228">
        <ele>23.6</ele>
        <time>2020-05-31T21:08:56Z</time>
      </trkpt>
      <trkpt lat="46.16621" lon="-1.25241">
        <ele>23</ele>
        <time>2020-05-31T21:08:57Z</time>
      </trkpt>
      <trkpt lat="46.16614" lon="-1.25254">
        <ele>22.5</ele>
        <time>2020-05-31T21:08:58Z</time>
      </trkpt>
      <trkpt lat="46.16606" lon="-1.25268">
        <ele>22</ele>
        <time>2020-05-31T21:08:59Z</time>
      </trkpt>
      <trkpt lat="46.16599" lon="-1.25282">
        <ele>21.5</ele>
        <time>2020-05-31T21:09:00Z</time>
      </trkpt>
      <trkpt lat="46.1659" lon="-1.25295">
        <ele>21</ele>
        <time>2020-05-31T21:09:01Z</time>
      </trkpt>
      <trkpt lat="46.16582" lon="-1.25309">
        <ele>20.4</ele>
        <time>2020-05-31T21:09:02Z</time>
      </trkpt>
      <trkpt lat="46.16574" lon="-1.25324">
        <ele>19.8</ele>
        <time>2020-05-31T21:09:03Z</time>
      </trkpt>
      <trkpt lat="46.16565" lon="-1.25339">
        <ele>19.2</ele>
        <time>2020-05-31T21:09:04Z</time>
      </trkpt>
      <trkpt lat="46.16556" lon="-1.25354">
        <ele>18.5</ele>
        <time>2020-05-31T21:09:05Z</time>
      </trkpt>
      <trkpt lat="46.16547" lon="-1.25369">
        <ele>17.8</ele>
        <time>2020-05-31T21:09:06Z</time>
      </trkpt>
      <trkpt lat="46.16539" lon="-1.25384">
        <ele>17.2</ele>
        <time>2020-05-31T21:09:07Z</time>
      </trkpt>
      <trkpt lat="46.16529" lon="-1.25399">
        <ele>16.5</ele>
        <time>2020-05-31T21:09:08Z</time>
      </trkpt>
      <trkpt lat="46.16519" lon="-1.25414">
        <ele>15.8</ele>
        <time>2020-05-31T21:09:09Z</time>
      </trkpt>
      <trkpt lat="46.1651" lon="-1.2543">
        <ele>15.1</ele>
        <time>2020-05-31T21:09:10Z</time>
      </trkpt>
      <trkpt lat="46.16501" lon="-1.25446">
        <ele>14.4</ele>
        <time>2020-05-31T21:09:11Z</time>
      </trkpt>
      <trkpt lat="46.16491" lon="-1.25462">
        <ele>13.9</ele>
        <time>2020-05-31T21:09:12Z</time>
      </trkpt>
      <trkpt lat="46.16481" lon="-1.25477">
        <ele>13.3</ele>
        <time>2020-05-31T21:09:13Z</time>
      </trkpt>
      <trkpt lat="46.16472" lon="-1.25493">
        <ele>12.8</ele>
        <time>2020-05-31T21:09:14Z</time>
      </trkpt>
      <trkpt lat="46.16462" lon="-1.25509">
        <ele>12.3</ele>
        <time>2020-05-31T21:09:15Z</time>
      </trkpt>
      <trkpt lat="46.16452" lon="-1.25524">
        <ele>11.8</ele>
        <time>2020-05-31T21:09:16Z</time>
      </trkpt>
      <trkpt lat="46.16442" lon="-1.2554">
        <ele>11.2</ele>
        <time>2020-05-31T21:09:17Z</time>
      </trkpt>
      <trkpt lat="46.16432" lon="-1.25556">
        <ele>10.7</ele>
        <time>2020-05-31T21:09:18Z</time>
      </trkpt>
      <trkpt lat="46.16422" lon="-1.25571">
        <ele>10.2</ele>
        <time>2020-05-31T21:09:19Z</time>
      </trkpt>
      <trkpt lat="46.16412" lon="-1.25585">
        <ele>9.9</ele>
        <time>2020-05-31T21:09:20Z</time>
      </trkpt>
      <trkpt lat="46.16402" lon="-1.256">
        <ele>9.5</ele>
        <time>2020-05-31T21:09:21Z</time>
      </trkpt>
      <trkpt lat="46.16393" lon="-1.25614">
        <ele>9.4</ele>
        <time>2020-05-31T21:09:22Z</time>
      </trkpt>
      <trkpt lat="46.16385" lon="-1.25627">
        <ele>9.3</ele>
        <time>2020-05-31T21:09:23Z</time>
      </trkpt>
      <trkpt lat="46.16377" lon="-1.2564">
        <ele>9</ele>
        <time>2020-05-31T21:09:24Z</time>
      </trkpt>
      <trkpt lat="46.16369" lon="-1.25652">
        <ele>8.6</ele>
        <time>2020-05-31T21:09:25Z</time>
      </trkpt>
      <trkpt lat="46.16361" lon="-1.25662">
        <ele>8.3</ele>
        <time>2020-05-31T21:09:26Z</time>
      </trkpt>
      <trkpt lat="46.16353" lon="-1.25671">
        <ele>8</ele>
        <time>2020-05-31T21:09:27Z</time>
      </trkpt>
      <trkpt lat="46.16345" lon="-1.2568">
        <ele>7.8</ele>
        <time>2020-05-31T21:09:28Z</time>
      </trkpt>
      <trkpt lat="46.16338" lon="-1.25688">
        <ele>7.6</ele>
        <time>2020-05-31T21:09:29Z</time>
      </trkpt>
      <trkpt lat="46.16332" lon="-1.25697">
        <ele>7.4</ele>
        <time>2020-05-31T21:09:30Z</time>
      </trkpt>
      <trkpt lat="46.16326" lon="-1.25705">
        <ele>7.2</ele>
        <time>2020-05-31T21:09:31Z</time>
      </trkpt>
      <trkpt lat="46.16321" lon="-1.25714">
        <ele>7</ele>
        <time>2020-05-31T21:09:32Z</time>
      </trkpt>
      <trkpt lat="46.16318" lon="-1.25725">
        <ele>6.8</ele>
        <time>2020-05-31T21:09:33Z</time>
      </trkpt>
      <trkpt lat="46.16316" lon="-1.25736">
        <ele>6.6</ele>
        <time>2020-05-31T21:09:34Z</time>
      </trkpt>
      <trkpt lat="46.16313" lon="-1.25746">
        <ele>6.5</ele>
        <time>2020-05-31T21:09:35Z</time>
      </trkpt>
      <trkpt lat="46.1631" lon="-1.25756">
        <ele>6.3</ele>
        <time>2020-05-31T21:09:36Z</time>
      </trkpt>
      <trkpt lat="46.16307" lon="-1.25765">
        <ele>6.1</ele>
        <time>2020-05-31T21:09:37Z</time>
      </trkpt>
      <trkpt lat="46.16305" lon="-1.25773">
        <ele>5.9</ele>
        <time>2020-05-31T21:09:38Z</time>
      </trkpt>
      <trkpt lat="46.16302" lon="-1.25781">
        <ele>5.8</ele>
        <time>2020-05-31T21:09:39Z</time>
      </trkpt>
      <trkpt lat="46.16299" lon="-1.25789">
        <ele>5.6</ele>
        <time>2020-05-31T21:09:40Z</time>
      </trkpt>
      <trkpt lat="46.16296" lon="-1.25797">
        <ele>5.5</ele>
        <time>2020-05-31T21:09:41Z</time>
      </trkpt>
      <trkpt lat="46.16294" lon="-1.25804">
        <ele>5.5</ele>
        <time>2020-05-31T21:09:42Z</time>
      </trkpt>
      <trkpt lat="46.16292" lon="-1.25811">
        <ele>5.4</ele>
        <time>2020-05-31T21:09:43Z</time>
      </trkpt>
      <trkpt lat="46.16289" lon="-1.25818">
        <ele>5.4</ele>
        <time>2020-05-31T21:09:44Z</time>
      </trkpt>
      <trkpt lat="46.16287" lon="-1.25825">
        <ele>5.4</ele>
        <time>2020-05-31T21:09:45Z</time>
      </trkpt>
      <trkpt lat="46.16284" lon="-1.2583">
        <ele>5.4</ele>
        <time>2020-05-31T21:09:46Z</time>
      </trkpt>
      <trkpt lat="46.16282" lon="-1.25836">
        <ele>5.4</ele>
        <time>2020-05-31T21:09:47Z</time>
      </trkpt>
      <trkpt lat="46.16278" lon="-1.2584">
        <ele>5.4</ele>
        <time>2020-05-31T21:09:48Z</time>
      </trkpt>
      <trkpt lat="46.16275" lon="-1.25845">
        <ele>5.3</ele>
        <time>2020-05-31T21:09:49Z</time>
      </trkpt>
      <trkpt lat="46.16272" lon="-1.25849">
        <ele>5.3</ele>
        <time>2020-05-31T21:09:50Z</time>
      </trkpt>
      <trkpt lat="46.1627" lon="-1.25855">
        <ele>5.2</ele>
        <time>2020-05-31T21:09:51Z</time>
      </trkpt>
      <trkpt lat="46.16267" lon="-1.25859">
        <ele>5.2</ele>
        <time>2020-05-31T21:09:52Z</time>
      </trkpt>
      <trkpt lat="46.16264" lon="-1.25864">
        <ele>5.2</ele>
        <time>2020-05-31T21:09:53Z</time>
      </trkpt>
      <trkpt lat="46.16261" lon="-1.25868">
        <ele>5.1</ele>
        <time>2020-05-31T21:09:54Z</time>
      </trkpt>
      <trkpt lat="46.16259" lon="-1.25873">
        <ele>5.1</ele>
        <time>2020-05-31T21:09:55Z</time>
      </trkpt>
      <trkpt lat="46.16257" lon="-1.25879">
        <ele>5</ele>
        <time>2020-05-31T21:09:56Z</time>
      </trkpt>
      <trkpt lat="46.16255" lon="-1.25883">
        <ele>5</ele>
        <time>2020-05-31T21:09:57Z</time>
      </trkpt>
      <trkpt lat="46.16254" lon="-1.25889">
        <ele>4.9</ele>
        <time>2020-05-31T21:09:58Z</time>
      </trkpt>
      <trkpt lat="46.16252" lon="-1.25894">
        <ele>4.9</ele>
        <time>2020-05-31T21:09:59Z</time>
      </trkpt>
      <trkpt lat="46.1625" lon="-1.25899">
        <ele>4.8</ele>
        <time>2020-05-31T21:10:00Z</time>
      </trkpt>
      <trkpt lat="46.16249" lon="-1.25905">
        <ele>4.8</ele>
        <time>2020-05-31T21:10:01Z</time>
      </trkpt>
      <trkpt lat="46.16247" lon="-1.25911">
        <ele>4.7</ele>
        <time>2020-05-31T21:10:02Z</time>
      </trkpt>
      <trkpt lat="46.16246" lon="-1.25916">
        <ele>4.7</ele>
        <time>2020-05-31T21:10:03Z</time>
      </trkpt>
      <trkpt lat="46.16244" lon="-1.2592">
        <ele>4.7</ele>
        <time>2020-05-31T21:10:04Z</time>
      </trkpt>
      <trkpt lat="46.16242" lon="-1.25925">
        <ele>4.6</ele>
        <time>2020-05-31T21:10:05Z</time>
      </trkpt>
      <trkpt lat="46.1624" lon="-1.2593">
        <ele>4.6</ele>
        <time>2020-05-31T21:10:06Z</time>
      </trkpt>
      <trkpt lat="46.16238" lon="-1.25934">
        <ele>4.6</ele>
        <time>2020-05-31T21:10:07Z</time>
      </trkpt>
      <trkpt lat="46.16237" lon="-1.2594">
        <ele>4.6</ele>
        <time>2020-05-31T21:10:08Z</time>
      </trkpt>
      <trkpt lat="46.16235" lon="-1.25944">
        <ele>4.6</ele>
        <time>2020-05-31T21:10:09Z</time>
      </trkpt>
      <trkpt lat="46.16235" lon="-1.25948">
        <ele>4.6</ele>
        <time>2020-05-31T21:10:10Z</time>
      </trkpt>
      <trkpt lat="46.16234" lon="-1.25953">
        <ele>4.6</ele>
        <time>2020-05-31T21:10:11Z</time>
      </trkpt>
      <trkpt lat="46.16231" lon="-1.25957">
        <ele>4.6</ele>
        <time>2020-05-31T21:10:12Z</time>
      </trkpt>
      <trkpt lat="46.1623" lon="-1.25961">
        <ele>4.6</ele>
        <time>2020-05-31T21:10:13Z</time>
      </trkpt>
      <trkpt lat="46.16228" lon="-1.25965">
        <ele>4.6</ele>
        <time>2020-05-31T21:10:14Z</time>
      </trkpt>
      <trkpt lat="46.16226" lon="-1.25969">
        <ele>4.6</ele>
        <time>2020-05-31T21:10:15Z</time>
      </trkpt>
      <trkpt lat="46.16225" lon="-1.25973">
        <ele>4.6</ele>
        <time>2020-05-31T21:10:16Z</time>
      </trkpt>
      <trkpt lat="46.16224" lon="-1.25978">
        <ele>4.6</ele>
        <time>2020-05-31T21:10:17Z</time>
      </trkpt>
      <trkpt lat="46.16222" lon="-1.25982">
        <ele>4.6</ele>
        <time>2020-05-31T21:10:18Z</time>
      </trkpt>
      <trkpt lat="46.1622" lon="-1.25986">
        <ele>4.6</ele>
        <time>2020-05-31T21:10:19Z</time>
      </trkpt>
      <trkpt lat="46.16218" lon="-1.25989">
        <ele>4.6</ele>
        <time>2020-05-31T21:10:20Z</time>
      </trkpt>
      <trkpt lat="46.16216" lon="-1.25993">
        <ele>4.6</ele>
        <time>2020-05-31T21:10:21Z</time>
      </trkpt>
      <trkpt lat="46.16215" lon="-1.25997">
        <ele>4.6</ele>
        <time>2020-05-31T21:10:22Z</time>
      </trkpt>
      <trkpt lat="46.16213" lon="-1.26001">
        <ele>4.6</ele>
        <time>2020-05-31T21:10:23Z</time>
      </trkpt>
      <trkpt lat="46.16211" lon="-1.26006">
        <ele>4.6</ele>
        <time>2020-05-31T21:10:24Z</time>
      </trkpt>
      <trkpt lat="46.16209" lon="-1.26009">
        <ele>4.6</ele>
        <time>2020-05-31T21:10:25Z</time>
      </trkpt>
      <trkpt lat="46.16207" lon="-1.26013">
        <ele>4.6</ele>
        <time>2020-05-31T21:10:26Z</time>
      </trkpt>
      <trkpt lat="46.16206" lon="-1.26018">
        <ele>4.6</ele>
        <time>2020-05-31T21:10:27Z</time>
      </trkpt>
      <trkpt lat="46.16204" lon="-1.26022">
        <ele>4.6</ele>
        <time>2020-05-31T21:10:28Z</time>
      </trkpt>
      <trkpt lat="46.16202" lon="-1.26026">
        <ele>4.6</ele>
        <time>2020-05-31T21:10:29Z</time>
      </trkpt>
      <trkpt lat="46.16201" lon="-1.2603">
        <ele>4.6</ele>
        <time>2020-05-31T21:10:30Z</time>
      </trkpt>
      <trkpt lat="46.16199" lon="-1.26033">
        <ele>4.6</ele>
        <time>2020-05-31T21:10:31Z</time>
      </trkpt>
      <trkpt lat="46.16197" lon="-1.26037">
        <ele>4.6</ele>
        <time>2020-05-31T21:10:32Z</time>
      </trkpt>
      <trkpt lat="46.16195" lon="-1.2604">
        <ele>4.6</ele>
        <time>2020-05-31T21:10:33Z</time>
      </trkpt>
      <trkpt lat="46.16193" lon="-1.26043">
        <ele>4.6</ele>
        <time>2020-05-31T21:10:34Z</time>
      </trkpt>
      <trkpt lat="46.16191" lon="-1.26046">
        <ele>4.6</ele>
        <time>2020-05-31T21:10:35Z</time>
      </trkpt>
      <trkpt lat="46.16189" lon="-1.26049">
        <ele>4.6</ele>
        <time>2020-05-31T21:10:36Z</time>
      </trkpt>
      <trkpt lat="46.16186" lon="-1.26053">
        <ele>4.6</ele>
        <time>2020-05-31T21:10:37Z</time>
      </trkpt>
      <trkpt lat="46.16185" lon="-1.26054">
        <ele>4.6</ele>
        <time>2020-05-31T21:10:38Z</time>
      </trkpt>
      <trkpt lat="46.16182" lon="-1.26058">
        <ele>4.6</ele>
        <time>2020-05-31T21:10:39Z</time>
      </trkpt>
      <trkpt lat="46.16181" lon="-1.26059">
        <ele>4.6</ele>
        <time>2020-05-31T21:10:40Z</time>
      </trkpt>
      <trkpt lat="46.16179" lon="-1.26062">
        <ele>4.6</ele>
        <time>2020-05-31T21:10:41Z</time>
      </trkpt>
      <trkpt lat="46.16176" lon="-1.26066">
        <ele>4.6</ele>
        <time>2020-05-31T21:10:42Z</time>
      </trkpt>
      <trkpt lat="46.16175" lon="-1.26068">
        <ele>4.6</ele>
        <time>2020-05-31T21:10:43Z</time>
      </trkpt>
      <trkpt lat="46.16172" lon="-1.26071">
        <ele>4.6</ele>
        <time>2020-05-31T21:10:44Z</time>
      </trkpt>
      <trkpt lat="46.16171" lon="-1.26072">
        <ele>4.6</ele>
        <time>2020-05-31T21:10:45Z</time>
      </trkpt>
      <trkpt lat="46.16168" lon="-1.26075">
        <ele>4.6</ele>
        <time>2020-05-31T21:10:46Z</time>
      </trkpt>
      <trkpt lat="46.16167" lon="-1.26076">
        <ele>4.6</ele>
        <time>2020-05-31T21:10:47Z</time>
      </trkpt>
      <trkpt lat="46.16165" lon="-1.2608">
        <ele>4.7</ele>
        <time>2020-05-31T21:10:48Z</time>
      </trkpt>
      <trkpt lat="46.16164" lon="-1.26081">
        <ele>4.7</ele>
        <time>2020-05-31T21:10:49Z</time>
      </trkpt>
      <trkpt lat="46.16161" lon="-1.26084">
        <ele>4.7</ele>
        <time>2020-05-31T21:10:50Z</time>
      </trkpt>
      <trkpt lat="46.1616" lon="-1.26085">
        <ele>4.7</ele>
        <time>2020-05-31T21:10:51Z</time>
      </trkpt>
      <trkpt lat="46.16157" lon="-1.26088">
        <ele>4.7</ele>
        <time>2020-05-31T21:10:52Z</time>
      </trkpt>
      <trkpt lat="46.16156" lon="-1.26089">
        <ele>4.7</ele>
        <time>2020-05-31T21:10:53Z</time>
      </trkpt>
      <trkpt lat="46.16152" lon="-1.26092">
        <ele>4.8</ele>
        <time>2020-05-31T21:10:54Z</time>
      </trkpt>
      <trkpt lat="46.16151" lon="-1.26092">
        <ele>4.8</ele>
        <time>2020-05-31T21:10:55Z</time>
      </trkpt>
      <trkpt lat="46.16148" lon="-1.26094">
        <ele>4.8</ele>
        <time>2020-05-31T21:10:56Z</time>
      </trkpt>
      <trkpt lat="46.16147" lon="-1.26095">
        <ele>4.8</ele>
        <time>2020-05-31T21:10:57Z</time>
      </trkpt>
      <trkpt lat="46.16147" lon="-1.261">
        <ele>4.8</ele>
        <time>2020-05-31T21:10:58Z</time>
      </trkpt>
      <trkpt lat="46.16146" lon="-1.26102">
        <ele>4.9</ele>
        <time>2020-05-31T21:10:59Z</time>
      </trkpt>
      <trkpt lat="46.16144" lon="-1.26103">
        <ele>4.9</ele>
        <time>2020-05-31T21:11:00Z</time>
      </trkpt>
      <trkpt lat="46.16143" lon="-1.26103">
        <ele>4.9</ele>
        <time>2020-05-31T21:11:01Z</time>
      </trkpt>
      <trkpt lat="46.16143" lon="-1.26103">
        <ele>4.9</ele>
        <time>2020-05-31T21:11:02Z</time>
      </trkpt>
      <trkpt lat="46.16143" lon="-1.26103">
        <ele>4.9</ele>
        <time>2020-05-31T21:11:03Z</time>
      </trkpt>
      <trkpt lat="46.16143" lon="-1.26103">
        <ele>4.9</ele>
        <time>2020-05-31T21:11:04Z</time>
      </trkpt>
      <trkpt lat="46.16142" lon="-1.26102">
        <ele>4.9</ele>
        <time>2020-05-31T21:11:05Z</time>
      </trkpt>
      <trkpt lat="46.16142" lon="-1.26102">
        <ele>4.9</ele>
        <time>2020-05-31T21:11:06Z</time>
      </trkpt>
      <trkpt lat="46.16143" lon="-1.26103">
        <ele>4.9</ele>
        <time>2020-05-31T21:11:07Z</time>
      </trkpt>
      <trkpt lat="46.16143" lon="-1.26104">
        <ele>4.9</ele>
        <time>2020-05-31T21:11:08Z</time>
      </trkpt>
      <trkpt lat="46.16143" lon="-1.26105">
        <ele>4.9</ele>
        <time>2020-05-31T21:11:09Z</time>
      </trkpt>
      <trkpt lat="46.16142" lon="-1.26104">
        <ele>4.9</ele>
        <time>2020-05-31T21:11:10Z</time>
      </trkpt>
      <trkpt lat="46.16143" lon="-1.26105">
        <ele>4.9</ele>
        <time>2020-05-31T21:11:11Z</time>
      </trkpt>
      <trkpt lat="46.16135" lon="-1.26112">
        <ele>5</ele>
        <time>2020-05-31T21:12:46Z</time>
      </trkpt>
      <trkpt lat="46.16135" lon="-1.26112">
        <ele>5</ele>
        <time>2020-05-31T21:12:47Z</time>
      </trkpt>
      <trkpt lat="46.16135" lon="-1.26112">
        <ele>5</ele>
        <time>2020-05-31T21:12:48Z</time>
      </trkpt>
      <trkpt lat="46.16135" lon="-1.26113">
        <ele>5</ele>
        <time>2020-05-31T21:12:49Z</time>
      </trkpt>
      <trkpt lat="46.16135" lon="-1.26115">
        <ele>5</ele>
        <time>2020-05-31T21:12:50Z</time>
      </trkpt>
      <trkpt lat="46.16135" lon="-1.26116">
        <ele>5</ele>
        <time>2020-05-31T21:12:51Z</time>
      </trkpt>
      <trkpt lat="46.16135" lon="-1.2612">
        <ele>5</ele>
        <time>2020-05-31T21:12:52Z</time>
      </trkpt>
      <trkpt lat="46.16135" lon="-1.26122">
        <ele>5</ele>
        <time>2020-05-31T21:12:53Z</time>
      </trkpt>
      <trkpt lat="46.16134" lon="-1.26127">
        <ele>5</ele>
        <time>2020-05-31T21:12:54Z</time>
      </trkpt>
      <trkpt lat="46.16134" lon="-1.26128">
        <ele>5</ele>
        <time>2020-05-31T21:12:55Z</time>
      </trkpt>
      <trkpt lat="46.16132" lon="-1.26133">
        <ele>5</ele>
        <time>2020-05-31T21:12:56Z</time>
      </trkpt>
      <trkpt lat="46.16131" lon="-1.26134">
        <ele>5</ele>
        <time>2020-05-31T21:12:57Z</time>
      </trkpt>
      <trkpt lat="46.16129" lon="-1.26138">
        <ele>5.1</ele>
        <time>2020-05-31T21:12:58Z</time>
      </trkpt>
      <trkpt lat="46.16128" lon="-1.2614">
        <ele>5.1</ele>
        <time>2020-05-31T21:12:59Z</time>
      </trkpt>
      <trkpt lat="46.16125" lon="-1.26144">
        <ele>5.1</ele>
        <time>2020-05-31T21:13:00Z</time>
      </trkpt>
      <trkpt lat="46.16124" lon="-1.26145">
        <ele>5.1</ele>
        <time>2020-05-31T21:13:01Z</time>
      </trkpt>
      <trkpt lat="46.16122" lon="-1.2615">
        <ele>5.2</ele>
        <time>2020-05-31T21:13:02Z</time>
      </trkpt>
      <trkpt lat="46.16121" lon="-1.26152">
        <ele>5.2</ele>
        <time>2020-05-31T21:13:03Z</time>
      </trkpt>
      <trkpt lat="46.16119" lon="-1.26156">
        <ele>5.2</ele>
        <time>2020-05-31T21:13:04Z</time>
      </trkpt>
      <trkpt lat="46.16116" lon="-1.2616">
        <ele>5.2</ele>
        <time>2020-05-31T21:13:05Z</time>
      </trkpt>
      <trkpt lat="46.16114" lon="-1.26166">
        <ele>5.3</ele>
        <time>2020-05-31T21:13:06Z</time>
      </trkpt>
      <trkpt lat="46.16112" lon="-1.26174">
        <ele>5.3</ele>
        <time>2020-05-31T21:13:07Z</time>
      </trkpt>
      <trkpt lat="46.1611" lon="-1.26181">
        <ele>5.4</ele>
        <time>2020-05-31T21:13:08Z</time>
      </trkpt>
      <trkpt lat="46.16108" lon="-1.26188">
        <ele>5.4</ele>
        <time>2020-05-31T21:13:09Z</time>
      </trkpt>
      <trkpt lat="46.16105" lon="-1.26194">
        <ele>5.4</ele>
        <time>2020-05-31T21:13:10Z</time>
      </trkpt>
      <trkpt lat="46.16103" lon="-1.26201">
        <ele>5.5</ele>
        <time>2020-05-31T21:13:11Z</time>
      </trkpt>
      <trkpt lat="46.161" lon="-1.26208">
        <ele>5.5</ele>
        <time>2020-05-31T21:13:12Z</time>
      </trkpt>
      <trkpt lat="46.16097" lon="-1.26215">
        <ele>5.5</ele>
        <time>2020-05-31T21:13:13Z</time>
      </trkpt>
      <trkpt lat="46.16094" lon="-1.26222">
        <ele>5.5</ele>
        <time>2020-05-31T21:13:14Z</time>
      </trkpt>
      <trkpt lat="46.16092" lon="-1.26228">
        <ele>5.6</ele>
        <time>2020-05-31T21:13:15Z</time>
      </trkpt>
      <trkpt lat="46.16089" lon="-1.26234">
        <ele>5.5</ele>
        <time>2020-05-31T21:13:16Z</time>
      </trkpt>
      <trkpt lat="46.16087" lon="-1.26241">
        <ele>5.5</ele>
        <time>2020-05-31T21:13:17Z</time>
      </trkpt>
      <trkpt lat="46.16084" lon="-1.26248">
        <ele>5.5</ele>
        <time>2020-05-31T21:13:18Z</time>
      </trkpt>
      <trkpt lat="46.16081" lon="-1.26255">
        <ele>5.5</ele>
        <time>2020-05-31T21:13:19Z</time>
      </trkpt>
      <trkpt lat="46.16078" lon="-1.26263">
        <ele>5.5</ele>
        <time>2020-05-31T21:13:20Z</time>
      </trkpt>
      <trkpt lat="46.16075" lon="-1.2627">
        <ele>5.5</ele>
        <time>2020-05-31T21:13:21Z</time>
      </trkpt>
      <trkpt lat="46.16072" lon="-1.26278">
        <ele>5.5</ele>
        <time>2020-05-31T21:13:22Z</time>
      </trkpt>
      <trkpt lat="46.1607" lon="-1.26286">
        <ele>5.5</ele>
        <time>2020-05-31T21:13:23Z</time>
      </trkpt>
      <trkpt lat="46.16066" lon="-1.26292">
        <ele>5.5</ele>
        <time>2020-05-31T21:13:24Z</time>
      </trkpt>
      <trkpt lat="46.16062" lon="-1.26299">
        <ele>5.5</ele>
        <time>2020-05-31T21:13:25Z</time>
      </trkpt>
      <trkpt lat="46.16058" lon="-1.26306">
        <ele>5.5</ele>
        <time>2020-05-31T21:13:26Z</time>
      </trkpt>
      <trkpt lat="46.16055" lon="-1.26313">
        <ele>5.5</ele>
        <time>2020-05-31T21:13:27Z</time>
      </trkpt>
      <trkpt lat="46.16052" lon="-1.2632">
        <ele>5.4</ele>
        <time>2020-05-31T21:13:28Z</time>
      </trkpt>
      <trkpt lat="46.16048" lon="-1.26326">
        <ele>5.4</ele>
        <time>2020-05-31T21:13:29Z</time>
      </trkpt>
      <trkpt lat="46.16043" lon="-1.26332">
        <ele>5.4</ele>
        <time>2020-05-31T21:13:30Z</time>
      </trkpt>
      <trkpt lat="46.1604" lon="-1.26338">
        <ele>5.4</ele>
        <time>2020-05-31T21:13:31Z</time>
      </trkpt>
      <trkpt lat="46.16035" lon="-1.26344">
        <ele>5.4</ele>
        <time>2020-05-31T21:13:32Z</time>
      </trkpt>
      <trkpt lat="46.16031" lon="-1.26353">
        <ele>5.4</ele>
        <time>2020-05-31T21:13:33Z</time>
      </trkpt>
      <trkpt lat="46.16028" lon="-1.2636">
        <ele>5.3</ele>
        <time>2020-05-31T21:13:34Z</time>
      </trkpt>
      <trkpt lat="46.16024" lon="-1.26368">
        <ele>5.3</ele>
        <time>2020-05-31T21:13:35Z</time>
      </trkpt>
      <trkpt lat="46.16022" lon="-1.26375">
        <ele>5.3</ele>
        <time>2020-05-31T21:13:36Z</time>
      </trkpt>
      <trkpt lat="46.16023" lon="-1.26384">
        <ele>5.2</ele>
        <time>2020-05-31T21:13:37Z</time>
      </trkpt>
      <trkpt lat="46.16022" lon="-1.26394">
        <ele>5.2</ele>
        <time>2020-05-31T21:13:38Z</time>
      </trkpt>
      <trkpt lat="46.1602" lon="-1.26405">
        <ele>5.1</ele>
        <time>2020-05-31T21:13:39Z</time>
      </trkpt>
      <trkpt lat="46.16017" lon="-1.26414">
        <ele>5</ele>
        <time>2020-05-31T21:13:40Z</time>
      </trkpt>
      <trkpt lat="46.16013" lon="-1.26423">
        <ele>5</ele>
        <time>2020-05-31T21:13:41Z</time>
      </trkpt>
      <trkpt lat="46.1601" lon="-1.26431">
        <ele>5</ele>
        <time>2020-05-31T21:13:42Z</time>
      </trkpt>
      <trkpt lat="46.16007" lon="-1.2644">
        <ele>4.9</ele>
        <time>2020-05-31T21:13:43Z</time>
      </trkpt>
      <trkpt lat="46.16004" lon="-1.26449">
        <ele>4.9</ele>
        <time>2020-05-31T21:13:44Z</time>
      </trkpt>
      <trkpt lat="46.16001" lon="-1.26458">
        <ele>4.8</ele>
        <time>2020-05-31T21:13:45Z</time>
      </trkpt>
      <trkpt lat="46.15999" lon="-1.26466">
        <ele>4.8</ele>
        <time>2020-05-31T21:13:46Z</time>
      </trkpt>
      <trkpt lat="46.15997" lon="-1.26475">
        <ele>4.7</ele>
        <time>2020-05-31T21:13:47Z</time>
      </trkpt>
      <trkpt lat="46.15995" lon="-1.26483">
        <ele>4.7</ele>
        <time>2020-05-31T21:13:48Z</time>
      </trkpt>
      <trkpt lat="46.15992" lon="-1.26492">
        <ele>4.6</ele>
        <time>2020-05-31T21:13:49Z</time>
      </trkpt>
      <trkpt lat="46.1599" lon="-1.265">
        <ele>4.6</ele>
        <time>2020-05-31T21:13:50Z</time>
      </trkpt>
      <trkpt lat="46.15987" lon="-1.26507">
        <ele>4.6</ele>
        <time>2020-05-31T21:13:51Z</time>
      </trkpt>
      <trkpt lat="46.15985" lon="-1.26515">
        <ele>4.5</ele>
        <time>2020-05-31T21:13:52Z</time>
      </trkpt>
      <trkpt lat="46.15983" lon="-1.26523">
        <ele>4.5</ele>
        <time>2020-05-31T21:13:53Z</time>
      </trkpt>
      <trkpt lat="46.15981" lon="-1.2653">
        <ele>4.5</ele>
        <time>2020-05-31T21:13:54Z</time>
      </trkpt>
      <trkpt lat="46.1598" lon="-1.26538">
        <ele>4.5</ele>
        <time>2020-05-31T21:13:55Z</time>
      </trkpt>
      <trkpt lat="46.15982" lon="-1.26546">
        <ele>4.5</ele>
        <time>2020-05-31T21:13:56Z</time>
      </trkpt>
      <trkpt lat="46.15982" lon="-1.26553">
        <ele>4.5</ele>
        <time>2020-05-31T21:13:57Z</time>
      </trkpt>
      <trkpt lat="46.15983" lon="-1.26561">
        <ele>4.5</ele>
        <time>2020-05-31T21:13:58Z</time>
      </trkpt>
      <trkpt lat="46.15984" lon="-1.26566">
        <ele>4.5</ele>
        <time>2020-05-31T21:13:59Z</time>
      </trkpt>
      <trkpt lat="46.15984" lon="-1.26571">
        <ele>4.5</ele>
        <time>2020-05-31T21:14:00Z</time>
      </trkpt>
      <trkpt lat="46.15985" lon="-1.26575">
        <ele>4.5</ele>
        <time>2020-05-31T21:14:01Z</time>
      </trkpt>
      <trkpt lat="46.15985" lon="-1.2658">
        <ele>4.5</ele>
        <time>2020-05-31T21:14:02Z</time>
      </trkpt>
      <trkpt lat="46.15983" lon="-1.26584">
        <ele>4.6</ele>
        <time>2020-05-31T21:14:03Z</time>
      </trkpt>
      <trkpt lat="46.15983" lon="-1.26585">
        <ele>4.6</ele>
        <time>2020-05-31T21:14:04Z</time>
      </trkpt>
      <trkpt lat="46.1598" lon="-1.26587">
        <ele>4.7</ele>
        <time>2020-05-31T21:14:05Z</time>
      </trkpt>
      <trkpt lat="46.15979" lon="-1.26588">
        <ele>4.7</ele>
        <time>2020-05-31T21:14:06Z</time>
      </trkpt>
      <trkpt lat="46.15975" lon="-1.2659">
        <ele>4.9</ele>
        <time>2020-05-31T21:14:07Z</time>
      </trkpt>
      <trkpt lat="46.15972" lon="-1.26593">
        <ele>4.9</ele>
        <time>2020-05-31T21:14:08Z</time>
      </trkpt>
      <trkpt lat="46.15968" lon="-1.26596">
        <ele>5</ele>
        <time>2020-05-31T21:14:09Z</time>
      </trkpt>
      <trkpt lat="46.15965" lon="-1.266">
        <ele>5.1</ele>
        <time>2020-05-31T21:14:10Z</time>
      </trkpt>
      <trkpt lat="46.15962" lon="-1.26604">
        <ele>5.2</ele>
        <time>2020-05-31T21:14:11Z</time>
      </trkpt>
      <trkpt lat="46.15959" lon="-1.26608">
        <ele>5.2</ele>
        <time>2020-05-31T21:14:12Z</time>
      </trkpt>
      <trkpt lat="46.15955" lon="-1.26612">
        <ele>5.3</ele>
        <time>2020-05-31T21:14:13Z</time>
      </trkpt>
      <trkpt lat="46.15951" lon="-1.26617">
        <ele>5.4</ele>
        <time>2020-05-31T21:14:14Z</time>
      </trkpt>
      <trkpt lat="46.15947" lon="-1.2662">
        <ele>5.5</ele>
        <time>2020-05-31T21:14:15Z</time>
      </trkpt>
      <trkpt lat="46.15943" lon="-1.26624">
        <ele>5.6</ele>
        <time>2020-05-31T21:14:16Z</time>
      </trkpt>
      <trkpt lat="46.15938" lon="-1.26628">
        <ele>5.8</ele>
        <time>2020-05-31T21:14:17Z</time>
      </trkpt>
      <trkpt lat="46.15934" lon="-1.26633">
        <ele>5.9</ele>
        <time>2020-05-31T21:14:18Z</time>
      </trkpt>
      <trkpt lat="46.15931" lon="-1.26639">
        <ele>6.1</ele>
        <time>2020-05-31T21:14:19Z</time>
      </trkpt>
      <trkpt lat="46.15928" lon="-1.26645">
        <ele>6.3</ele>
        <time>2020-05-31T21:14:20Z</time>
      </trkpt>
      <trkpt lat="46.15925" lon="-1.26652">
        <ele>6.4</ele>
        <time>2020-05-31T21:14:21Z</time>
      </trkpt>
      <trkpt lat="46.15921" lon="-1.26657">
        <ele>6.5</ele>
        <time>2020-05-31T21:14:22Z</time>
      </trkpt>
      <trkpt lat="46.15918" lon="-1.26664">
        <ele>6.6</ele>
        <time>2020-05-31T21:14:23Z</time>
      </trkpt>
      <trkpt lat="46.15916" lon="-1.26671">
        <ele>6.7</ele>
        <time>2020-05-31T21:14:24Z</time>
      </trkpt>
      <trkpt lat="46.15913" lon="-1.26678">
        <ele>6.8</ele>
        <time>2020-05-31T21:14:25Z</time>
      </trkpt>
      <trkpt lat="46.15911" lon="-1.26685">
        <ele>6.9</ele>
        <time>2020-05-31T21:14:26Z</time>
      </trkpt>
      <trkpt lat="46.15909" lon="-1.26692">
        <ele>7</ele>
        <time>2020-05-31T21:14:27Z</time>
      </trkpt>
      <trkpt lat="46.15907" lon="-1.26699">
        <ele>7</ele>
        <time>2020-05-31T21:14:28Z</time>
      </trkpt>
      <trkpt lat="46.15905" lon="-1.26706">
        <ele>7</ele>
        <time>2020-05-31T21:14:29Z</time>
      </trkpt>
      <trkpt lat="46.15904" lon="-1.26713">
        <ele>7.1</ele>
        <time>2020-05-31T21:14:30Z</time>
      </trkpt>
      <trkpt lat="46.15902" lon="-1.26719">
        <ele>7.1</ele>
        <time>2020-05-31T21:14:31Z</time>
      </trkpt>
      <trkpt lat="46.159" lon="-1.26726">
        <ele>7.1</ele>
        <time>2020-05-31T21:14:32Z</time>
      </trkpt>
      <trkpt lat="46.15899" lon="-1.26733">
        <ele>7.2</ele>
        <time>2020-05-31T21:14:33Z</time>
      </trkpt>
      <trkpt lat="46.15897" lon="-1.26741">
        <ele>7.2</ele>
        <time>2020-05-31T21:14:34Z</time>
      </trkpt>
      <trkpt lat="46.15896" lon="-1.26748">
        <ele>7.2</ele>
        <time>2020-05-31T21:14:35Z</time>
      </trkpt>
      <trkpt lat="46.15895" lon="-1.26755">
        <ele>7.2</ele>
        <time>2020-05-31T21:14:36Z</time>
      </trkpt>
      <trkpt lat="46.15893" lon="-1.26762">
        <ele>7.2</ele>
        <time>2020-05-31T21:14:37Z</time>
      </trkpt>
      <trkpt lat="46.15892" lon="-1.26769">
        <ele>7.3</ele>
        <time>2020-05-31T21:14:38Z</time>
      </trkpt>
      <trkpt lat="46.15891" lon="-1.26777">
        <ele>7.3</ele>
        <time>2020-05-31T21:14:39Z</time>
      </trkpt>
      <trkpt lat="46.1589" lon="-1.26784">
        <ele>7.3</ele>
        <time>2020-05-31T21:14:40Z</time>
      </trkpt>
      <trkpt lat="46.15889" lon="-1.26792">
        <ele>7.3</ele>
        <time>2020-05-31T21:14:41Z</time>
      </trkpt>
      <trkpt lat="46.15888" lon="-1.26799">
        <ele>7.3</ele>
        <time>2020-05-31T21:14:42Z</time>
      </trkpt>
      <trkpt lat="46.15887" lon="-1.26806">
        <ele>7.3</ele>
        <time>2020-05-31T21:14:43Z</time>
      </trkpt>
      <trkpt lat="46.15886" lon="-1.26814">
        <ele>7.3</ele>
        <time>2020-05-31T21:14:44Z</time>
      </trkpt>
      <trkpt lat="46.15886" lon="-1.26822">
        <ele>7.3</ele>
        <time>2020-05-31T21:14:45Z</time>
      </trkpt>
      <trkpt lat="46.15885" lon="-1.26829">
        <ele>7.4</ele>
        <time>2020-05-31T21:14:46Z</time>
      </trkpt>
      <trkpt lat="46.15884" lon="-1.26837">
        <ele>7.4</ele>
        <time>2020-05-31T21:14:47Z</time>
      </trkpt>
      <trkpt lat="46.15883" lon="-1.26844">
        <ele>7.4</ele>
        <time>2020-05-31T21:14:48Z</time>
      </trkpt>
      <trkpt lat="46.15881" lon="-1.26852">
        <ele>7.4</ele>
        <time>2020-05-31T21:14:49Z</time>
      </trkpt>
      <trkpt lat="46.1588" lon="-1.2686">
        <ele>7.4</ele>
        <time>2020-05-31T21:14:50Z</time>
      </trkpt>
      <trkpt lat="46.15879" lon="-1.26868">
        <ele>7.4</ele>
        <time>2020-05-31T21:14:51Z</time>
      </trkpt>
      <trkpt lat="46.15878" lon="-1.26876">
        <ele>7.4</ele>
        <time>2020-05-31T21:14:52Z</time>
      </trkpt>
      <trkpt lat="46.15877" lon="-1.26884">
        <ele>7.4</ele>
        <time>2020-05-31T21:14:53Z</time>
      </trkpt>
      <trkpt lat="46.15876" lon="-1.26893">
        <ele>7.4</ele>
        <time>2020-05-31T21:14:54Z</time>
      </trkpt>
      <trkpt lat="46.15876" lon="-1.26902">
        <ele>7.4</ele>
        <time>2020-05-31T21:14:55Z</time>
      </trkpt>
      <trkpt lat="46.15876" lon="-1.2691">
        <ele>7.4</ele>
        <time>2020-05-31T21:14:56Z</time>
      </trkpt>
      <trkpt lat="46.15876" lon="-1.26919">
        <ele>7.4</ele>
        <time>2020-05-31T21:14:57Z</time>
      </trkpt>
      <trkpt lat="46.15876" lon="-1.26927">
        <ele>7.3</ele>
        <time>2020-05-31T21:14:58Z</time>
      </trkpt>
      <trkpt lat="46.15876" lon="-1.26935">
        <ele>7.3</ele>
        <time>2020-05-31T21:14:59Z</time>
      </trkpt>
      <trkpt lat="46.15876" lon="-1.26944">
        <ele>7.3</ele>
        <time>2020-05-31T21:15:00Z</time>
      </trkpt>
      <trkpt lat="46.15876" lon="-1.26952">
        <ele>7.3</ele>
        <time>2020-05-31T21:15:01Z</time>
      </trkpt>
      <trkpt lat="46.15876" lon="-1.2696">
        <ele>7.2</ele>
        <time>2020-05-31T21:15:02Z</time>
      </trkpt>
      <trkpt lat="46.15876" lon="-1.26969">
        <ele>7.2</ele>
        <time>2020-05-31T21:15:03Z</time>
      </trkpt>
      <trkpt lat="46.15877" lon="-1.26978">
        <ele>7.2</ele>
        <time>2020-05-31T21:15:04Z</time>
      </trkpt>
      <trkpt lat="46.15878" lon="-1.26987">
        <ele>7.2</ele>
        <time>2020-05-31T21:15:05Z</time>
      </trkpt>
      <trkpt lat="46.15878" lon="-1.26996">
        <ele>7.1</ele>
        <time>2020-05-31T21:15:06Z</time>
      </trkpt>
      <trkpt lat="46.15878" lon="-1.27004">
        <ele>7.1</ele>
        <time>2020-05-31T21:15:07Z</time>
      </trkpt>
      <trkpt lat="46.15879" lon="-1.27013">
        <ele>7.1</ele>
        <time>2020-05-31T21:15:08Z</time>
      </trkpt>
      <trkpt lat="46.1588" lon="-1.27022">
        <ele>7</ele>
        <time>2020-05-31T21:15:09Z</time>
      </trkpt>
      <trkpt lat="46.1588" lon="-1.2703">
        <ele>7</ele>
        <time>2020-05-31T21:15:10Z</time>
      </trkpt>
      <trkpt lat="46.1588" lon="-1.27038">
        <ele>7</ele>
        <time>2020-05-31T21:15:11Z</time>
      </trkpt>
      <trkpt lat="46.1588" lon="-1.27046">
        <ele>7</ele>
        <time>2020-05-31T21:15:12Z</time>
      </trkpt>
      <trkpt lat="46.1588" lon="-1.27054">
        <ele>6.9</ele>
        <time>2020-05-31T21:15:13Z</time>
      </trkpt>
      <trkpt lat="46.1588" lon="-1.27062">
        <ele>6.9</ele>
        <time>2020-05-31T21:15:14Z</time>
      </trkpt>
      <trkpt lat="46.15881" lon="-1.27069">
        <ele>6.9</ele>
        <time>2020-05-31T21:15:15Z</time>
      </trkpt>
      <trkpt lat="46.15881" lon="-1.27077">
        <ele>6.8</ele>
        <time>2020-05-31T21:15:16Z</time>
      </trkpt>
      <trkpt lat="46.15882" lon="-1.27086">
        <ele>6.8</ele>
        <time>2020-05-31T21:15:17Z</time>
      </trkpt>
      <trkpt lat="46.15883" lon="-1.27093">
        <ele>6.8</ele>
        <time>2020-05-31T21:15:18Z</time>
      </trkpt>
      <trkpt lat="46.15884" lon="-1.27102">
        <ele>6.7</ele>
        <time>2020-05-31T21:15:19Z</time>
      </trkpt>
      <trkpt lat="46.15885" lon="-1.27109">
        <ele>6.7</ele>
        <time>2020-05-31T21:15:20Z</time>
      </trkpt>
      <trkpt lat="46.15887" lon="-1.27115">
        <ele>6.6</ele>
        <time>2020-05-31T21:15:21Z</time>
      </trkpt>
      <trkpt lat="46.15889" lon="-1.27125">
        <ele>6.6</ele>
        <time>2020-05-31T21:15:22Z</time>
      </trkpt>
      <trkpt lat="46.1589" lon="-1.27133">
        <ele>6.5</ele>
        <time>2020-05-31T21:15:23Z</time>
      </trkpt>
      <trkpt lat="46.15893" lon="-1.27144">
        <ele>6.4</ele>
        <time>2020-05-31T21:15:24Z</time>
      </trkpt>
      <trkpt lat="46.15895" lon="-1.27152">
        <ele>6.3</ele>
        <time>2020-05-31T21:15:25Z</time>
      </trkpt>
      <trkpt lat="46.15897" lon="-1.27159">
        <ele>6.1</ele>
        <time>2020-05-31T21:15:26Z</time>
      </trkpt>
      <trkpt lat="46.159" lon="-1.27166">
        <ele>6</ele>
        <time>2020-05-31T21:15:27Z</time>
      </trkpt>
      <trkpt lat="46.15904" lon="-1.27176">
        <ele>5.8</ele>
        <time>2020-05-31T21:15:28Z</time>
      </trkpt>
      <trkpt lat="46.15907" lon="-1.27186">
        <ele>5.6</ele>
        <time>2020-05-31T21:15:29Z</time>
      </trkpt>
      <trkpt lat="46.1591" lon="-1.27196">
        <ele>5.5</ele>
        <time>2020-05-31T21:15:30Z</time>
      </trkpt>
      <trkpt lat="46.15912" lon="-1.27207">
        <ele>5.3</ele>
        <time>2020-05-31T21:15:31Z</time>
      </trkpt>
      <trkpt lat="46.15914" lon="-1.27218">
        <ele>5.3</ele>
        <time>2020-05-31T21:15:32Z</time>
      </trkpt>
      <trkpt lat="46.15915" lon="-1.27229">
        <ele>5.2</ele>
        <time>2020-05-31T21:15:33Z</time>
      </trkpt>
      <trkpt lat="46.15916" lon="-1.27239">
        <ele>5.1</ele>
        <time>2020-05-31T21:15:34Z</time>
      </trkpt>
      <trkpt lat="46.15915" lon="-1.27249">
        <ele>5.1</ele>
        <time>2020-05-31T21:15:35Z</time>
      </trkpt>
      <trkpt lat="46.15915" lon="-1.27258">
        <ele>5</ele>
        <time>2020-05-31T21:15:36Z</time>
      </trkpt>
      <trkpt lat="46.15914" lon="-1.27267">
        <ele>4.9</ele>
        <time>2020-05-31T21:15:37Z</time>
      </trkpt>
      <trkpt lat="46.15913" lon="-1.27275">
        <ele>4.8</ele>
        <time>2020-05-31T21:15:38Z</time>
      </trkpt>
      <trkpt lat="46.15912" lon="-1.27284">
        <ele>4.7</ele>
        <time>2020-05-31T21:15:39Z</time>
      </trkpt>
      <trkpt lat="46.15912" lon="-1.27291">
        <ele>4.7</ele>
        <time>2020-05-31T21:15:40Z</time>
      </trkpt>
      <trkpt lat="46.15911" lon="-1.273">
        <ele>4.7</ele>
        <time>2020-05-31T21:15:41Z</time>
      </trkpt>
      <trkpt lat="46.1591" lon="-1.27309">
        <ele>4.7</ele>
        <time>2020-05-31T21:15:42Z</time>
      </trkpt>
      <trkpt lat="46.1591" lon="-1.27317">
        <ele>4.7</ele>
        <time>2020-05-31T21:15:43Z</time>
      </trkpt>
      <trkpt lat="46.15909" lon="-1.27325">
        <ele>4.7</ele>
        <time>2020-05-31T21:15:44Z</time>
      </trkpt>
      <trkpt lat="46.15908" lon="-1.27334">
        <ele>4.6</ele>
        <time>2020-05-31T21:15:45Z</time>
      </trkpt>
      <trkpt lat="46.15907" lon="-1.27343">
        <ele>4.5</ele>
        <time>2020-05-31T21:15:46Z</time>
      </trkpt>
      <trkpt lat="46.15907" lon="-1.27352">
        <ele>4.4</ele>
        <time>2020-05-31T21:15:47Z</time>
      </trkpt>
      <trkpt lat="46.15908" lon="-1.27361">
        <ele>4.3</ele>
        <time>2020-05-31T21:15:48Z</time>
      </trkpt>
      <trkpt lat="46.1591" lon="-1.27369">
        <ele>4.1</ele>
        <time>2020-05-31T21:15:49Z</time>
      </trkpt>
      <trkpt lat="46.15912" lon="-1.27377">
        <ele>4</ele>
        <time>2020-05-31T21:15:50Z</time>
      </trkpt>
      <trkpt lat="46.15915" lon="-1.27385">
        <ele>3.9</ele>
        <time>2020-05-31T21:15:51Z</time>
      </trkpt>
      <trkpt lat="46.15919" lon="-1.27393">
        <ele>3.9</ele>
        <time>2020-05-31T21:15:52Z</time>
      </trkpt>
      <trkpt lat="46.15922" lon="-1.27402">
        <ele>3.8</ele>
        <time>2020-05-31T21:15:53Z</time>
      </trkpt>
      <trkpt lat="46.15924" lon="-1.2741">
        <ele>3.7</ele>
        <time>2020-05-31T21:15:54Z</time>
      </trkpt>
      <trkpt lat="46.15928" lon="-1.27418">
        <ele>3.7</ele>
        <time>2020-05-31T21:15:55Z</time>
      </trkpt>
      <trkpt lat="46.15931" lon="-1.27427">
        <ele>3.6</ele>
        <time>2020-05-31T21:15:56Z</time>
      </trkpt>
      <trkpt lat="46.15935" lon="-1.27434">
        <ele>3.5</ele>
        <time>2020-05-31T21:15:57Z</time>
      </trkpt>
      <trkpt lat="46.15938" lon="-1.27443">
        <ele>3.4</ele>
        <time>2020-05-31T21:15:58Z</time>
      </trkpt>
      <trkpt lat="46.15941" lon="-1.2745">
        <ele>3.3</ele>
        <time>2020-05-31T21:15:59Z</time>
      </trkpt>
      <trkpt lat="46.15945" lon="-1.27458">
        <ele>3.2</ele>
        <time>2020-05-31T21:16:00Z</time>
      </trkpt>
      <trkpt lat="46.15948" lon="-1.27465">
        <ele>3.1</ele>
        <time>2020-05-31T21:16:01Z</time>
      </trkpt>
      <trkpt lat="46.15952" lon="-1.27472">
        <ele>3</ele>
        <time>2020-05-31T21:16:02Z</time>
      </trkpt>
      <trkpt lat="46.15955" lon="-1.2748">
        <ele>3</ele>
        <time>2020-05-31T21:16:03Z</time>
      </trkpt>
      <trkpt lat="46.15959" lon="-1.27487">
        <ele>3</ele>
        <time>2020-05-31T21:16:04Z</time>
      </trkpt>
      <trkpt lat="46.15962" lon="-1.27495">
        <ele>2.9</ele>
        <time>2020-05-31T21:16:05Z</time>
      </trkpt>
      <trkpt lat="46.15965" lon="-1.27502">
        <ele>2.9</ele>
        <time>2020-05-31T21:16:06Z</time>
      </trkpt>
      <trkpt lat="46.15969" lon="-1.2751">
        <ele>2.8</ele>
        <time>2020-05-31T21:16:07Z</time>
      </trkpt>
      <trkpt lat="46.15972" lon="-1.27518">
        <ele>2.8</ele>
        <time>2020-05-31T21:16:08Z</time>
      </trkpt>
      <trkpt lat="46.15975" lon="-1.27525">
        <ele>2.8</ele>
        <time>2020-05-31T21:16:09Z</time>
      </trkpt>
      <trkpt lat="46.15979" lon="-1.27533">
        <ele>2.8</ele>
        <time>2020-05-31T21:16:10Z</time>
      </trkpt>
      <trkpt lat="46.15982" lon="-1.2754">
        <ele>2.8</ele>
        <time>2020-05-31T21:16:11Z</time>
      </trkpt>
      <trkpt lat="46.15985" lon="-1.27548">
        <ele>2.7</ele>
        <time>2020-05-31T21:16:12Z</time>
      </trkpt>
      <trkpt lat="46.15988" lon="-1.27556">
        <ele>2.7</ele>
        <time>2020-05-31T21:16:13Z</time>
      </trkpt>
      <trkpt lat="46.1599" lon="-1.27564">
        <ele>2.8</ele>
        <time>2020-05-31T21:16:14Z</time>
      </trkpt>
      <trkpt lat="46.15992" lon="-1.27573">
        <ele>2.8</ele>
        <time>2020-05-31T21:16:15Z</time>
      </trkpt>
      <trkpt lat="46.15994" lon="-1.27581">
        <ele>2.9</ele>
        <time>2020-05-31T21:16:16Z</time>
      </trkpt>
      <trkpt lat="46.15995" lon="-1.2759">
        <ele>3</ele>
        <time>2020-05-31T21:16:17Z</time>
      </trkpt>
      <trkpt lat="46.15997" lon="-1.27599">
        <ele>3.1</ele>
        <time>2020-05-31T21:16:18Z</time>
      </trkpt>
      <trkpt lat="46.15999" lon="-1.27606">
        <ele>3.2</ele>
        <time>2020-05-31T21:16:19Z</time>
      </trkpt>
      <trkpt lat="46.16" lon="-1.27614">
        <ele>3.2</ele>
        <time>2020-05-31T21:16:20Z</time>
      </trkpt>
      <trkpt lat="46.16002" lon="-1.27622">
        <ele>3.3</ele>
        <time>2020-05-31T21:16:21Z</time>
      </trkpt>
      <trkpt lat="46.16003" lon="-1.2763">
        <ele>3.4</ele>
        <time>2020-05-31T21:16:22Z</time>
      </trkpt>
      <trkpt lat="46.16004" lon="-1.27638">
        <ele>3.5</ele>
        <time>2020-05-31T21:16:23Z</time>
      </trkpt>
      <trkpt lat="46.16003" lon="-1.27646">
        <ele>3.6</ele>
        <time>2020-05-31T21:16:24Z</time>
      </trkpt>
      <trkpt lat="46.16002" lon="-1.27653">
        <ele>3.7</ele>
        <time>2020-05-31T21:16:25Z</time>
      </trkpt>
      <trkpt lat="46.15998" lon="-1.27656">
        <ele>3.8</ele>
        <time>2020-05-31T21:16:26Z</time>
      </trkpt>
      <trkpt lat="46.15994" lon="-1.27657">
        <ele>3.9</ele>
        <time>2020-05-31T21:16:27Z</time>
      </trkpt>
      <trkpt lat="46.15989" lon="-1.27659">
        <ele>3.9</ele>
        <time>2020-05-31T21:16:28Z</time>
      </trkpt>
      <trkpt lat="46.15985" lon="-1.27659">
        <ele>4</ele>
        <time>2020-05-31T21:16:29Z</time>
      </trkpt>
      <trkpt lat="46.1598" lon="-1.2766">
        <ele>4</ele>
        <time>2020-05-31T21:16:30Z</time>
      </trkpt>
      <trkpt lat="46.15976" lon="-1.2766">
        <ele>4</ele>
        <time>2020-05-31T21:16:31Z</time>
      </trkpt>
      <trkpt lat="46.15971" lon="-1.27659">
        <ele>4.1</ele>
        <time>2020-05-31T21:16:32Z</time>
      </trkpt>
      <trkpt lat="46.15968" lon="-1.27658">
        <ele>4.1</ele>
        <time>2020-05-31T21:16:33Z</time>
      </trkpt>
      <trkpt lat="46.15964" lon="-1.27658">
        <ele>4.2</ele>
        <time>2020-05-31T21:16:34Z</time>
      </trkpt>
      <trkpt lat="46.1596" lon="-1.27658">
        <ele>4.2</ele>
        <time>2020-05-31T21:16:35Z</time>
      </trkpt>
      <trkpt lat="46.15955" lon="-1.27656">
        <ele>4.3</ele>
        <time>2020-05-31T21:16:36Z</time>
      </trkpt>
      <trkpt lat="46.15951" lon="-1.27657">
        <ele>4.4</ele>
        <time>2020-05-31T21:16:37Z</time>
      </trkpt>
      <trkpt lat="46.15949" lon="-1.27662">
        <ele>4.4</ele>
        <time>2020-05-31T21:16:38Z</time>
      </trkpt>
      <trkpt lat="46.15948" lon="-1.27667">
        <ele>4.7</ele>
        <time>2020-05-31T21:16:39Z</time>
      </trkpt>
      <trkpt lat="46.15947" lon="-1.27674">
        <ele>4.8</ele>
        <time>2020-05-31T21:16:40Z</time>
      </trkpt>
      <trkpt lat="46.15944" lon="-1.27679">
        <ele>4.8</ele>
        <time>2020-05-31T21:16:41Z</time>
      </trkpt>
      <trkpt lat="46.15941" lon="-1.27685">
        <ele>4.9</ele>
        <time>2020-05-31T21:16:42Z</time>
      </trkpt>
      <trkpt lat="46.15941" lon="-1.27693">
        <ele>5</ele>
        <time>2020-05-31T21:16:43Z</time>
      </trkpt>
      <trkpt lat="46.1594" lon="-1.277">
        <ele>5.1</ele>
        <time>2020-05-31T21:16:44Z</time>
      </trkpt>
      <trkpt lat="46.15939" lon="-1.27708">
        <ele>5.3</ele>
        <time>2020-05-31T21:16:45Z</time>
      </trkpt>
      <trkpt lat="46.15937" lon="-1.27716">
        <ele>5.4</ele>
        <time>2020-05-31T21:16:46Z</time>
      </trkpt>
      <trkpt lat="46.15936" lon="-1.27724">
        <ele>5.6</ele>
        <time>2020-05-31T21:16:47Z</time>
      </trkpt>
      <trkpt lat="46.15935" lon="-1.27731">
        <ele>5.8</ele>
        <time>2020-05-31T21:16:48Z</time>
      </trkpt>
      <trkpt lat="46.15935" lon="-1.27739">
        <ele>6</ele>
        <time>2020-05-31T21:16:49Z</time>
      </trkpt>
      <trkpt lat="46.15934" lon="-1.27747">
        <ele>6.1</ele>
        <time>2020-05-31T21:16:50Z</time>
      </trkpt>
      <trkpt lat="46.15933" lon="-1.27756">
        <ele>6.2</ele>
        <time>2020-05-31T21:16:51Z</time>
      </trkpt>
      <trkpt lat="46.15932" lon="-1.27764">
        <ele>6.3</ele>
        <time>2020-05-31T21:16:52Z</time>
      </trkpt>
      <trkpt lat="46.15932" lon="-1.27772">
        <ele>6.4</ele>
        <time>2020-05-31T21:16:53Z</time>
      </trkpt>
      <trkpt lat="46.1593" lon="-1.27781">
        <ele>6.5</ele>
        <time>2020-05-31T21:16:54Z</time>
      </trkpt>
      <trkpt lat="46.15928" lon="-1.27788">
        <ele>6.6</ele>
        <time>2020-05-31T21:16:55Z</time>
      </trkpt>
      <trkpt lat="46.15928" lon="-1.27795">
        <ele>6.6</ele>
        <time>2020-05-31T21:16:56Z</time>
      </trkpt>
      <trkpt lat="46.15927" lon="-1.27803">
        <ele>6.7</ele>
        <time>2020-05-31T21:16:57Z</time>
      </trkpt>
      <trkpt lat="46.15924" lon="-1.27814">
        <ele>6.8</ele>
        <time>2020-05-31T21:16:58Z</time>
      </trkpt>
      <trkpt lat="46.15923" lon="-1.27823">
        <ele>6.8</ele>
        <time>2020-05-31T21:16:59Z</time>
      </trkpt>
      <trkpt lat="46.15922" lon="-1.27832">
        <ele>6.9</ele>
        <time>2020-05-31T21:17:00Z</time>
      </trkpt>
      <trkpt lat="46.15922" lon="-1.27839">
        <ele>6.9</ele>
        <time>2020-05-31T21:17:01Z</time>
      </trkpt>
      <trkpt lat="46.1592" lon="-1.27848">
        <ele>7</ele>
        <time>2020-05-31T21:17:02Z</time>
      </trkpt>
      <trkpt lat="46.15919" lon="-1.27854">
        <ele>7</ele>
        <time>2020-05-31T21:17:03Z</time>
      </trkpt>
      <trkpt lat="46.15918" lon="-1.27862">
        <ele>7</ele>
        <time>2020-05-31T21:17:04Z</time>
      </trkpt>
      <trkpt lat="46.15917" lon="-1.27871">
        <ele>7</ele>
        <time>2020-05-31T21:17:05Z</time>
      </trkpt>
      <trkpt lat="46.15917" lon="-1.2788">
        <ele>7.1</ele>
        <time>2020-05-31T21:17:06Z</time>
      </trkpt>
      <trkpt lat="46.15916" lon="-1.27888">
        <ele>7.1</ele>
        <time>2020-05-31T21:17:07Z</time>
      </trkpt>
      <trkpt lat="46.15915" lon="-1.27898">
        <ele>7.1</ele>
        <time>2020-05-31T21:17:08Z</time>
      </trkpt>
      <trkpt lat="46.15914" lon="-1.27905">
        <ele>7.1</ele>
        <time>2020-05-31T21:17:09Z</time>
      </trkpt>
      <trkpt lat="46.15913" lon="-1.27913">
        <ele>7.1</ele>
        <time>2020-05-31T21:17:10Z</time>
      </trkpt>
      <trkpt lat="46.15912" lon="-1.27918">
        <ele>7.1</ele>
        <time>2020-05-31T21:17:11Z</time>
      </trkpt>
      <trkpt lat="46.1591" lon="-1.27926">
        <ele>7.2</ele>
        <time>2020-05-31T21:17:12Z</time>
      </trkpt>
      <trkpt lat="46.15909" lon="-1.27935">
        <ele>7.2</ele>
        <time>2020-05-31T21:17:13Z</time>
      </trkpt>
      <trkpt lat="46.15908" lon="-1.27943">
        <ele>7.3</ele>
        <time>2020-05-31T21:17:14Z</time>
      </trkpt>
      <trkpt lat="46.15907" lon="-1.27951">
        <ele>7.4</ele>
        <time>2020-05-31T21:17:15Z</time>
      </trkpt>
      <trkpt lat="46.15906" lon="-1.27961">
        <ele>7.6</ele>
        <time>2020-05-31T21:17:16Z</time>
      </trkpt>
      <trkpt lat="46.15905" lon="-1.2797">
        <ele>7.7</ele>
        <time>2020-05-31T21:17:17Z</time>
      </trkpt>
      <trkpt lat="46.15903" lon="-1.27978">
        <ele>7.8</ele>
        <time>2020-05-31T21:17:18Z</time>
      </trkpt>
      <trkpt lat="46.15901" lon="-1.27986">
        <ele>7.9</ele>
        <time>2020-05-31T21:17:19Z</time>
      </trkpt>
      <trkpt lat="46.15899" lon="-1.27994">
        <ele>8</ele>
        <time>2020-05-31T21:17:20Z</time>
      </trkpt>
      <trkpt lat="46.15897" lon="-1.28002">
        <ele>8.1</ele>
        <time>2020-05-31T21:17:21Z</time>
      </trkpt>
      <trkpt lat="46.15895" lon="-1.28009">
        <ele>8.1</ele>
        <time>2020-05-31T21:17:22Z</time>
      </trkpt>
      <trkpt lat="46.15892" lon="-1.28018">
        <ele>8.2</ele>
        <time>2020-05-31T21:17:23Z</time>
      </trkpt>
      <trkpt lat="46.1589" lon="-1.28025">
        <ele>8.3</ele>
        <time>2020-05-31T21:17:24Z</time>
      </trkpt>
      <trkpt lat="46.15887" lon="-1.28031">
        <ele>8.3</ele>
        <time>2020-05-31T21:17:25Z</time>
      </trkpt>
      <trkpt lat="46.15883" lon="-1.28036">
        <ele>8.4</ele>
        <time>2020-05-31T21:17:26Z</time>
      </trkpt>
      <trkpt lat="46.1588" lon="-1.28041">
        <ele>8.5</ele>
        <time>2020-05-31T21:17:27Z</time>
      </trkpt>
      <trkpt lat="46.15877" lon="-1.28046">
        <ele>8.6</ele>
        <time>2020-05-31T21:17:28Z</time>
      </trkpt>
      <trkpt lat="46.15874" lon="-1.28052">
        <ele>8.7</ele>
        <time>2020-05-31T21:17:29Z</time>
      </trkpt>
      <trkpt lat="46.1587" lon="-1.28057">
        <ele>8.8</ele>
        <time>2020-05-31T21:17:30Z</time>
      </trkpt>
      <trkpt lat="46.15867" lon="-1.28062">
        <ele>8.9</ele>
        <time>2020-05-31T21:17:31Z</time>
      </trkpt>
      <trkpt lat="46.15864" lon="-1.2807">
        <ele>9</ele>
        <time>2020-05-31T21:17:32Z</time>
      </trkpt>
      <trkpt lat="46.15861" lon="-1.28076">
        <ele>9.2</ele>
        <time>2020-05-31T21:17:33Z</time>
      </trkpt>
      <trkpt lat="46.15857" lon="-1.28085">
        <ele>9.3</ele>
        <time>2020-05-31T21:17:34Z</time>
      </trkpt>
      <trkpt lat="46.15854" lon="-1.28091">
        <ele>9.4</ele>
        <time>2020-05-31T21:17:35Z</time>
      </trkpt>
      <trkpt lat="46.15851" lon="-1.281">
        <ele>9.4</ele>
        <time>2020-05-31T21:17:36Z</time>
      </trkpt>
      <trkpt lat="46.15848" lon="-1.28106">
        <ele>9.4</ele>
        <time>2020-05-31T21:17:37Z</time>
      </trkpt>
      <trkpt lat="46.15844" lon="-1.28113">
        <ele>9.4</ele>
        <time>2020-05-31T21:17:38Z</time>
      </trkpt>
      <trkpt lat="46.15841" lon="-1.2812">
        <ele>9.5</ele>
        <time>2020-05-31T21:17:39Z</time>
      </trkpt>
      <trkpt lat="46.15838" lon="-1.28126">
        <ele>9.5</ele>
        <time>2020-05-31T21:17:40Z</time>
      </trkpt>
      <trkpt lat="46.15836" lon="-1.28134">
        <ele>9.5</ele>
        <time>2020-05-31T21:17:41Z</time>
      </trkpt>
      <trkpt lat="46.15834" lon="-1.2814">
        <ele>9.5</ele>
        <time>2020-05-31T21:17:42Z</time>
      </trkpt>
      <trkpt lat="46.15832" lon="-1.28146">
        <ele>9.5</ele>
        <time>2020-05-31T21:17:43Z</time>
      </trkpt>
      <trkpt lat="46.15829" lon="-1.28153">
        <ele>9.5</ele>
        <time>2020-05-31T21:17:44Z</time>
      </trkpt>
      <trkpt lat="46.15827" lon="-1.28161">
        <ele>9.5</ele>
        <time>2020-05-31T21:17:45Z</time>
      </trkpt>
      <trkpt lat="46.15824" lon="-1.28168">
        <ele>9.6</ele>
        <time>2020-05-31T21:17:46Z</time>
      </trkpt>
      <trkpt lat="46.15822" lon="-1.28175">
        <ele>9.7</ele>
        <time>2020-05-31T21:17:47Z</time>
      </trkpt>
      <trkpt lat="46.15819" lon="-1.28182">
        <ele>9.9</ele>
        <time>2020-05-31T21:17:48Z</time>
      </trkpt>
      <trkpt lat="46.15816" lon="-1.28189">
        <ele>10</ele>
        <time>2020-05-31T21:17:49Z</time>
      </trkpt>
      <trkpt lat="46.15813" lon="-1.28196">
        <ele>10.2</ele>
        <time>2020-05-31T21:17:50Z</time>
      </trkpt>
      <trkpt lat="46.15811" lon="-1.28204">
        <ele>10.3</ele>
        <time>2020-05-31T21:17:51Z</time>
      </trkpt>
      <trkpt lat="46.15808" lon="-1.28211">
        <ele>10.4</ele>
        <time>2020-05-31T21:17:52Z</time>
      </trkpt>
      <trkpt lat="46.15805" lon="-1.28218">
        <ele>10.4</ele>
        <time>2020-05-31T21:17:53Z</time>
      </trkpt>
      <trkpt lat="46.15802" lon="-1.28226">
        <ele>10.5</ele>
        <time>2020-05-31T21:17:54Z</time>
      </trkpt>
      <trkpt lat="46.15799" lon="-1.28232">
        <ele>10.5</ele>
        <time>2020-05-31T21:17:55Z</time>
      </trkpt>
      <trkpt lat="46.15796" lon="-1.2824">
        <ele>10.6</ele>
        <time>2020-05-31T21:17:56Z</time>
      </trkpt>
      <trkpt lat="46.15793" lon="-1.28247">
        <ele>10.7</ele>
        <time>2020-05-31T21:17:57Z</time>
      </trkpt>
      <trkpt lat="46.1579" lon="-1.28254">
        <ele>10.7</ele>
        <time>2020-05-31T21:17:58Z</time>
      </trkpt>
      <trkpt lat="46.15788" lon="-1.28263">
        <ele>10.8</ele>
        <time>2020-05-31T21:17:59Z</time>
      </trkpt>
      <trkpt lat="46.15785" lon="-1.2827">
        <ele>10.9</ele>
        <time>2020-05-31T21:18:00Z</time>
      </trkpt>
      <trkpt lat="46.15782" lon="-1.28277">
        <ele>10.9</ele>
        <time>2020-05-31T21:18:01Z</time>
      </trkpt>
      <trkpt lat="46.1578" lon="-1.28283">
        <ele>10.9</ele>
        <time>2020-05-31T21:18:02Z</time>
      </trkpt>
      <trkpt lat="46.15777" lon="-1.28289">
        <ele>11</ele>
        <time>2020-05-31T21:18:03Z</time>
      </trkpt>
      <trkpt lat="46.15774" lon="-1.28296">
        <ele>11</ele>
        <time>2020-05-31T21:18:04Z</time>
      </trkpt>
      <trkpt lat="46.15772" lon="-1.28303">
        <ele>11</ele>
        <time>2020-05-31T21:18:05Z</time>
      </trkpt>
      <trkpt lat="46.15769" lon="-1.28308">
        <ele>11</ele>
        <time>2020-05-31T21:18:06Z</time>
      </trkpt>
      <trkpt lat="46.15766" lon="-1.28315">
        <ele>11</ele>
        <time>2020-05-31T21:18:07Z</time>
      </trkpt>
      <trkpt lat="46.15763" lon="-1.28321">
        <ele>10.9</ele>
        <time>2020-05-31T21:18:08Z</time>
      </trkpt>
      <trkpt lat="46.15761" lon="-1.28328">
        <ele>10.9</ele>
        <time>2020-05-31T21:18:09Z</time>
      </trkpt>
      <trkpt lat="46.15758" lon="-1.28335">
        <ele>10.9</ele>
        <time>2020-05-31T21:18:10Z</time>
      </trkpt>
      <trkpt lat="46.15755" lon="-1.28343">
        <ele>10.8</ele>
        <time>2020-05-31T21:18:11Z</time>
      </trkpt>
      <trkpt lat="46.15753" lon="-1.2835">
        <ele>10.8</ele>
        <time>2020-05-31T21:18:12Z</time>
      </trkpt>
      <trkpt lat="46.15751" lon="-1.28358">
        <ele>10.8</ele>
        <time>2020-05-31T21:18:13Z</time>
      </trkpt>
      <trkpt lat="46.15748" lon="-1.28365">
        <ele>10.8</ele>
        <time>2020-05-31T21:18:14Z</time>
      </trkpt>
      <trkpt lat="46.15746" lon="-1.28372">
        <ele>10.8</ele>
        <time>2020-05-31T21:18:15Z</time>
      </trkpt>
      <trkpt lat="46.15743" lon="-1.2838">
        <ele>10.8</ele>
        <time>2020-05-31T21:18:16Z</time>
      </trkpt>
      <trkpt lat="46.15742" lon="-1.28387">
        <ele>10.9</ele>
        <time>2020-05-31T21:18:17Z</time>
      </trkpt>
      <trkpt lat="46.1574" lon="-1.28394">
        <ele>10.8</ele>
        <time>2020-05-31T21:18:18Z</time>
      </trkpt>
      <trkpt lat="46.15738" lon="-1.284">
        <ele>10.8</ele>
        <time>2020-05-31T21:18:19Z</time>
      </trkpt>
      <trkpt lat="46.15737" lon="-1.28408">
        <ele>10.8</ele>
        <time>2020-05-31T21:18:20Z</time>
      </trkpt>
      <trkpt lat="46.15736" lon="-1.28416">
        <ele>10.8</ele>
        <time>2020-05-31T21:18:21Z</time>
      </trkpt>
      <trkpt lat="46.15733" lon="-1.28424">
        <ele>10.8</ele>
        <time>2020-05-31T21:18:22Z</time>
      </trkpt>
      <trkpt lat="46.1573" lon="-1.28431">
        <ele>10.8</ele>
        <time>2020-05-31T21:18:23Z</time>
      </trkpt>
      <trkpt lat="46.15727" lon="-1.28439">
        <ele>10.8</ele>
        <time>2020-05-31T21:18:24Z</time>
      </trkpt>
      <trkpt lat="46.15724" lon="-1.28446">
        <ele>10.8</ele>
        <time>2020-05-31T21:18:25Z</time>
      </trkpt>
      <trkpt lat="46.15721" lon="-1.28453">
        <ele>10.8</ele>
        <time>2020-05-31T21:18:26Z</time>
      </trkpt>
      <trkpt lat="46.15719" lon="-1.28461">
        <ele>10.8</ele>
        <time>2020-05-31T21:18:27Z</time>
      </trkpt>
      <trkpt lat="46.15716" lon="-1.28467">
        <ele>10.8</ele>
        <time>2020-05-31T21:18:28Z</time>
      </trkpt>
      <trkpt lat="46.15713" lon="-1.28475">
        <ele>10.8</ele>
        <time>2020-05-31T21:18:29Z</time>
      </trkpt>
      <trkpt lat="46.15712" lon="-1.28484">
        <ele>10.8</ele>
        <time>2020-05-31T21:18:30Z</time>
      </trkpt>
      <trkpt lat="46.15708" lon="-1.28492">
        <ele>10.8</ele>
        <time>2020-05-31T21:18:31Z</time>
      </trkpt>
      <trkpt lat="46.15705" lon="-1.285">
        <ele>10.8</ele>
        <time>2020-05-31T21:18:32Z</time>
      </trkpt>
      <trkpt lat="46.15702" lon="-1.28507">
        <ele>10.8</ele>
        <time>2020-05-31T21:18:33Z</time>
      </trkpt>
      <trkpt lat="46.15699" lon="-1.28516">
        <ele>10.8</ele>
        <time>2020-05-31T21:18:34Z</time>
      </trkpt>
      <trkpt lat="46.15695" lon="-1.28521">
        <ele>10.8</ele>
        <time>2020-05-31T21:18:35Z</time>
      </trkpt>
      <trkpt lat="46.15692" lon="-1.28529">
        <ele>10.8</ele>
        <time>2020-05-31T21:18:36Z</time>
      </trkpt>
      <trkpt lat="46.15689" lon="-1.28535">
        <ele>10.8</ele>
        <time>2020-05-31T21:18:37Z</time>
      </trkpt>
      <trkpt lat="46.15686" lon="-1.28542">
        <ele>10.8</ele>
        <time>2020-05-31T21:18:38Z</time>
      </trkpt>
      <trkpt lat="46.15683" lon="-1.28549">
        <ele>10.8</ele>
        <time>2020-05-31T21:18:39Z</time>
      </trkpt>
      <trkpt lat="46.1568" lon="-1.28555">
        <ele>10.8</ele>
        <time>2020-05-31T21:18:40Z</time>
      </trkpt>
      <trkpt lat="46.15678" lon="-1.28561">
        <ele>10.8</ele>
        <time>2020-05-31T21:18:41Z</time>
      </trkpt>
      <trkpt lat="46.15674" lon="-1.28568">
        <ele>10.8</ele>
        <time>2020-05-31T21:18:42Z</time>
      </trkpt>
      <trkpt lat="46.1567" lon="-1.28575">
        <ele>10.8</ele>
        <time>2020-05-31T21:18:43Z</time>
      </trkpt>
      <trkpt lat="46.15667" lon="-1.28581">
        <ele>10.8</ele>
        <time>2020-05-31T21:18:44Z</time>
      </trkpt>
      <trkpt lat="46.15664" lon="-1.28587">
        <ele>10.8</ele>
        <time>2020-05-31T21:18:45Z</time>
      </trkpt>
      <trkpt lat="46.15661" lon="-1.28594">
        <ele>10.8</ele>
        <time>2020-05-31T21:18:46Z</time>
      </trkpt>
      <trkpt lat="46.15658" lon="-1.286">
        <ele>10.8</ele>
        <time>2020-05-31T21:18:47Z</time>
      </trkpt>
      <trkpt lat="46.15656" lon="-1.28607">
        <ele>10.8</ele>
        <time>2020-05-31T21:18:48Z</time>
      </trkpt>
      <trkpt lat="46.15653" lon="-1.28613">
        <ele>10.8</ele>
        <time>2020-05-31T21:18:49Z</time>
      </trkpt>
      <trkpt lat="46.15651" lon="-1.28619">
        <ele>10.8</ele>
        <time>2020-05-31T21:18:50Z</time>
      </trkpt>
      <trkpt lat="46.15648" lon="-1.28625">
        <ele>10.8</ele>
        <time>2020-05-31T21:18:51Z</time>
      </trkpt>
      <trkpt lat="46.15645" lon="-1.28631">
        <ele>10.8</ele>
        <time>2020-05-31T21:18:52Z</time>
      </trkpt>
      <trkpt lat="46.15642" lon="-1.28638">
        <ele>10.8</ele>
        <time>2020-05-31T21:18:53Z</time>
      </trkpt>
      <trkpt lat="46.15639" lon="-1.28644">
        <ele>10.8</ele>
        <time>2020-05-31T21:18:54Z</time>
      </trkpt>
      <trkpt lat="46.15636" lon="-1.28651">
        <ele>10.8</ele>
        <time>2020-05-31T21:18:55Z</time>
      </trkpt>
      <trkpt lat="46.15633" lon="-1.28659">
        <ele>10.8</ele>
        <time>2020-05-31T21:18:56Z</time>
      </trkpt>
      <trkpt lat="46.1563" lon="-1.28667">
        <ele>10.8</ele>
        <time>2020-05-31T21:18:57Z</time>
      </trkpt>
      <trkpt lat="46.15626" lon="-1.28674">
        <ele>10.8</ele>
        <time>2020-05-31T21:18:58Z</time>
      </trkpt>
      <trkpt lat="46.15623" lon="-1.28681">
        <ele>10.8</ele>
        <time>2020-05-31T21:18:59Z</time>
      </trkpt>
      <trkpt lat="46.1562" lon="-1.28688">
        <ele>10.8</ele>
        <time>2020-05-31T21:19:00Z</time>
      </trkpt>
      <trkpt lat="46.15617" lon="-1.28696">
        <ele>10.8</ele>
        <time>2020-05-31T21:19:01Z</time>
      </trkpt>
      <trkpt lat="46.15614" lon="-1.28703">
        <ele>10.8</ele>
        <time>2020-05-31T21:19:02Z</time>
      </trkpt>
      <trkpt lat="46.15611" lon="-1.2871">
        <ele>10.7</ele>
        <time>2020-05-31T21:19:03Z</time>
      </trkpt>
      <trkpt lat="46.15607" lon="-1.28716">
        <ele>10.7</ele>
        <time>2020-05-31T21:19:04Z</time>
      </trkpt>
      <trkpt lat="46.15604" lon="-1.28723">
        <ele>10.7</ele>
        <time>2020-05-31T21:19:05Z</time>
      </trkpt>
      <trkpt lat="46.15602" lon="-1.2873">
        <ele>10.7</ele>
        <time>2020-05-31T21:19:06Z</time>
      </trkpt>
      <trkpt lat="46.15599" lon="-1.28738">
        <ele>10.7</ele>
        <time>2020-05-31T21:19:07Z</time>
      </trkpt>
      <trkpt lat="46.15597" lon="-1.28745">
        <ele>10.7</ele>
        <time>2020-05-31T21:19:08Z</time>
      </trkpt>
      <trkpt lat="46.15595" lon="-1.28753">
        <ele>10.7</ele>
        <time>2020-05-31T21:19:09Z</time>
      </trkpt>
      <trkpt lat="46.15594" lon="-1.2876">
        <ele>10.7</ele>
        <time>2020-05-31T21:19:10Z</time>
      </trkpt>
      <trkpt lat="46.15592" lon="-1.28768">
        <ele>10.7</ele>
        <time>2020-05-31T21:19:11Z</time>
      </trkpt>
      <trkpt lat="46.1559" lon="-1.28775">
        <ele>10.7</ele>
        <time>2020-05-31T21:19:12Z</time>
      </trkpt>
      <trkpt lat="46.15589" lon="-1.28783">
        <ele>10.7</ele>
        <time>2020-05-31T21:19:13Z</time>
      </trkpt>
      <trkpt lat="46.15587" lon="-1.28791">
        <ele>10.6</ele>
        <time>2020-05-31T21:19:14Z</time>
      </trkpt>
      <trkpt lat="46.15586" lon="-1.28799">
        <ele>10.6</ele>
        <time>2020-05-31T21:19:15Z</time>
      </trkpt>
      <trkpt lat="46.15584" lon="-1.28806">
        <ele>10.6</ele>
        <time>2020-05-31T21:19:16Z</time>
      </trkpt>
      <trkpt lat="46.15583" lon="-1.28815">
        <ele>10.6</ele>
        <time>2020-05-31T21:19:17Z</time>
      </trkpt>
      <trkpt lat="46.15582" lon="-1.28823">
        <ele>10.5</ele>
        <time>2020-05-31T21:19:18Z</time>
      </trkpt>
      <trkpt lat="46.15581" lon="-1.2883">
        <ele>10.5</ele>
        <time>2020-05-31T21:19:19Z</time>
      </trkpt>
      <trkpt lat="46.1558" lon="-1.28837">
        <ele>10.5</ele>
        <time>2020-05-31T21:19:20Z</time>
      </trkpt>
      <trkpt lat="46.15578" lon="-1.28844">
        <ele>10.5</ele>
        <time>2020-05-31T21:19:21Z</time>
      </trkpt>
      <trkpt lat="46.15577" lon="-1.28851">
        <ele>10.5</ele>
        <time>2020-05-31T21:19:22Z</time>
      </trkpt>
      <trkpt lat="46.15576" lon="-1.28858">
        <ele>10.5</ele>
        <time>2020-05-31T21:19:23Z</time>
      </trkpt>
      <trkpt lat="46.15575" lon="-1.28865">
        <ele>10.5</ele>
        <time>2020-05-31T21:19:24Z</time>
      </trkpt>
      <trkpt lat="46.15574" lon="-1.28872">
        <ele>10.5</ele>
        <time>2020-05-31T21:19:25Z</time>
      </trkpt>
      <trkpt lat="46.15574" lon="-1.28881">
        <ele>10.5</ele>
        <time>2020-05-31T21:19:26Z</time>
      </trkpt>
      <trkpt lat="46.15573" lon="-1.28888">
        <ele>10.5</ele>
        <time>2020-05-31T21:19:27Z</time>
      </trkpt>
      <trkpt lat="46.15573" lon="-1.28896">
        <ele>10.5</ele>
        <time>2020-05-31T21:19:28Z</time>
      </trkpt>
      <trkpt lat="46.15571" lon="-1.28904">
        <ele>10.5</ele>
        <time>2020-05-31T21:19:29Z</time>
      </trkpt>
      <trkpt lat="46.1557" lon="-1.28912">
        <ele>10.5</ele>
        <time>2020-05-31T21:19:30Z</time>
      </trkpt>
      <trkpt lat="46.15568" lon="-1.28919">
        <ele>10.5</ele>
        <time>2020-05-31T21:19:31Z</time>
      </trkpt>
      <trkpt lat="46.15566" lon="-1.28927">
        <ele>10.5</ele>
        <time>2020-05-31T21:19:32Z</time>
      </trkpt>
      <trkpt lat="46.15565" lon="-1.28936">
        <ele>10.5</ele>
        <time>2020-05-31T21:19:33Z</time>
      </trkpt>
      <trkpt lat="46.15563" lon="-1.28944">
        <ele>10.4</ele>
        <time>2020-05-31T21:19:34Z</time>
      </trkpt>
      <trkpt lat="46.15562" lon="-1.28952">
        <ele>10.4</ele>
        <time>2020-05-31T21:19:35Z</time>
      </trkpt>
      <trkpt lat="46.1556" lon="-1.28959">
        <ele>10.4</ele>
        <time>2020-05-31T21:19:36Z</time>
      </trkpt>
      <trkpt lat="46.15559" lon="-1.28967">
        <ele>10.4</ele>
        <time>2020-05-31T21:19:37Z</time>
      </trkpt>
      <trkpt lat="46.15556" lon="-1.28973">
        <ele>10.4</ele>
        <time>2020-05-31T21:19:38Z</time>
      </trkpt>
      <trkpt lat="46.15554" lon="-1.28979">
        <ele>10.4</ele>
        <time>2020-05-31T21:19:39Z</time>
      </trkpt>
      <trkpt lat="46.15552" lon="-1.28987">
        <ele>10.3</ele>
        <time>2020-05-31T21:19:40Z</time>
      </trkpt>
      <trkpt lat="46.1555" lon="-1.28993">
        <ele>10.3</ele>
        <time>2020-05-31T21:19:41Z</time>
      </trkpt>
      <trkpt lat="46.15548" lon="-1.29001">
        <ele>10.3</ele>
        <time>2020-05-31T21:19:42Z</time>
      </trkpt>
      <trkpt lat="46.15545" lon="-1.29007">
        <ele>10.2</ele>
        <time>2020-05-31T21:19:43Z</time>
      </trkpt>
      <trkpt lat="46.15543" lon="-1.29014">
        <ele>10.2</ele>
        <time>2020-05-31T21:19:44Z</time>
      </trkpt>
      <trkpt lat="46.15541" lon="-1.29021">
        <ele>10.1</ele>
        <time>2020-05-31T21:19:45Z</time>
      </trkpt>
      <trkpt lat="46.15538" lon="-1.29028">
        <ele>10.1</ele>
        <time>2020-05-31T21:19:46Z</time>
      </trkpt>
      <trkpt lat="46.15536" lon="-1.29034">
        <ele>10.1</ele>
        <time>2020-05-31T21:19:47Z</time>
      </trkpt>
      <trkpt lat="46.15534" lon="-1.29041">
        <ele>10.1</ele>
        <time>2020-05-31T21:19:48Z</time>
      </trkpt>
      <trkpt lat="46.15531" lon="-1.29047">
        <ele>10</ele>
        <time>2020-05-31T21:19:49Z</time>
      </trkpt>
      <trkpt lat="46.15528" lon="-1.29053">
        <ele>10</ele>
        <time>2020-05-31T21:19:50Z</time>
      </trkpt>
      <trkpt lat="46.15525" lon="-1.2906">
        <ele>9.9</ele>
        <time>2020-05-31T21:19:51Z</time>
      </trkpt>
      <trkpt lat="46.15523" lon="-1.29068">
        <ele>9.9</ele>
        <time>2020-05-31T21:19:52Z</time>
      </trkpt>
      <trkpt lat="46.1552" lon="-1.29075">
        <ele>9.7</ele>
        <time>2020-05-31T21:19:53Z</time>
      </trkpt>
      <trkpt lat="46.15517" lon="-1.29082">
        <ele>9.6</ele>
        <time>2020-05-31T21:19:54Z</time>
      </trkpt>
      <trkpt lat="46.15514" lon="-1.2909">
        <ele>9.5</ele>
        <time>2020-05-31T21:19:55Z</time>
      </trkpt>
      <trkpt lat="46.15511" lon="-1.29098">
        <ele>9.4</ele>
        <time>2020-05-31T21:19:56Z</time>
      </trkpt>
      <trkpt lat="46.15508" lon="-1.29105">
        <ele>9.3</ele>
        <time>2020-05-31T21:19:57Z</time>
      </trkpt>
      <trkpt lat="46.15506" lon="-1.29112">
        <ele>9.2</ele>
        <time>2020-05-31T21:19:58Z</time>
      </trkpt>
      <trkpt lat="46.15503" lon="-1.2912">
        <ele>9.1</ele>
        <time>2020-05-31T21:19:59Z</time>
      </trkpt>
      <trkpt lat="46.15499" lon="-1.29127">
        <ele>9</ele>
        <time>2020-05-31T21:20:00Z</time>
      </trkpt>
      <trkpt lat="46.15495" lon="-1.29135">
        <ele>8.9</ele>
        <time>2020-05-31T21:20:01Z</time>
      </trkpt>
      <trkpt lat="46.15492" lon="-1.29142">
        <ele>8.8</ele>
        <time>2020-05-31T21:20:02Z</time>
      </trkpt>
      <trkpt lat="46.15488" lon="-1.29149">
        <ele>8.7</ele>
        <time>2020-05-31T21:20:03Z</time>
      </trkpt>
      <trkpt lat="46.15484" lon="-1.29156">
        <ele>8.6</ele>
        <time>2020-05-31T21:20:04Z</time>
      </trkpt>
      <trkpt lat="46.1548" lon="-1.29163">
        <ele>8.5</ele>
        <time>2020-05-31T21:20:05Z</time>
      </trkpt>
      <trkpt lat="46.15476" lon="-1.2917">
        <ele>8.3</ele>
        <time>2020-05-31T21:20:06Z</time>
      </trkpt>
      <trkpt lat="46.1547" lon="-1.29178">
        <ele>8.2</ele>
        <time>2020-05-31T21:20:07Z</time>
      </trkpt>
      <trkpt lat="46.15465" lon="-1.29185">
        <ele>8.1</ele>
        <time>2020-05-31T21:20:08Z</time>
      </trkpt>
      <trkpt lat="46.15461" lon="-1.29191">
        <ele>7.9</ele>
        <time>2020-05-31T21:20:09Z</time>
      </trkpt>
      <trkpt lat="46.15457" lon="-1.29197">
        <ele>7.8</ele>
        <time>2020-05-31T21:20:10Z</time>
      </trkpt>
      <trkpt lat="46.15453" lon="-1.29203">
        <ele>7.7</ele>
        <time>2020-05-31T21:20:11Z</time>
      </trkpt>
      <trkpt lat="46.1545" lon="-1.29209">
        <ele>7.6</ele>
        <time>2020-05-31T21:20:12Z</time>
      </trkpt>
      <trkpt lat="46.15447" lon="-1.29214">
        <ele>7.6</ele>
        <time>2020-05-31T21:20:13Z</time>
      </trkpt>
      <trkpt lat="46.15444" lon="-1.2922">
        <ele>7.5</ele>
        <time>2020-05-31T21:20:14Z</time>
      </trkpt>
      <trkpt lat="46.15441" lon="-1.29226">
        <ele>7.5</ele>
        <time>2020-05-31T21:20:15Z</time>
      </trkpt>
      <trkpt lat="46.15438" lon="-1.29234">
        <ele>7.4</ele>
        <time>2020-05-31T21:20:16Z</time>
      </trkpt>
      <trkpt lat="46.15436" lon="-1.29239">
        <ele>7.3</ele>
        <time>2020-05-31T21:20:17Z</time>
      </trkpt>
      <trkpt lat="46.15432" lon="-1.29244">
        <ele>7.3</ele>
        <time>2020-05-31T21:20:18Z</time>
      </trkpt>
      <trkpt lat="46.15429" lon="-1.29247">
        <ele>7.3</ele>
        <time>2020-05-31T21:20:19Z</time>
      </trkpt>
      <trkpt lat="46.15427" lon="-1.2925">
        <ele>7.2</ele>
        <time>2020-05-31T21:20:20Z</time>
      </trkpt>
      <trkpt lat="46.15424" lon="-1.29252">
        <ele>7.2</ele>
        <time>2020-05-31T21:20:21Z</time>
      </trkpt>
      <trkpt lat="46.15422" lon="-1.29255">
        <ele>7.2</ele>
        <time>2020-05-31T21:20:22Z</time>
      </trkpt>
      <trkpt lat="46.15419" lon="-1.29258">
        <ele>7.2</ele>
        <time>2020-05-31T21:20:23Z</time>
      </trkpt>
      <trkpt lat="46.15418" lon="-1.2926">
        <ele>7.2</ele>
        <time>2020-05-31T21:20:24Z</time>
      </trkpt>
      <trkpt lat="46.15416" lon="-1.29264">
        <ele>7.1</ele>
        <time>2020-05-31T21:20:25Z</time>
      </trkpt>
      <trkpt lat="46.15415" lon="-1.29265">
        <ele>7.1</ele>
        <time>2020-05-31T21:20:26Z</time>
      </trkpt>
      <trkpt lat="46.15414" lon="-1.2927">
        <ele>7.1</ele>
        <time>2020-05-31T21:20:27Z</time>
      </trkpt>
      <trkpt lat="46.15413" lon="-1.29272">
        <ele>7.1</ele>
        <time>2020-05-31T21:20:28Z</time>
      </trkpt>
      <trkpt lat="46.15411" lon="-1.29275">
        <ele>7.1</ele>
        <time>2020-05-31T21:20:29Z</time>
      </trkpt>
      <trkpt lat="46.15409" lon="-1.2928">
        <ele>7.1</ele>
        <time>2020-05-31T21:20:30Z</time>
      </trkpt>
      <trkpt lat="46.15409" lon="-1.29282">
        <ele>7</ele>
        <time>2020-05-31T21:20:31Z</time>
      </trkpt>
      <trkpt lat="46.15408" lon="-1.29287">
        <ele>7</ele>
        <time>2020-05-31T21:20:32Z</time>
      </trkpt>
      <trkpt lat="46.15408" lon="-1.29288">
        <ele>7</ele>
        <time>2020-05-31T21:20:33Z</time>
      </trkpt>
      <trkpt lat="46.15406" lon="-1.29292">
        <ele>7</ele>
        <time>2020-05-31T21:20:34Z</time>
      </trkpt>
      <trkpt lat="46.15406" lon="-1.29293">
        <ele>7</ele>
        <time>2020-05-31T21:20:35Z</time>
      </trkpt>
      <trkpt lat="46.15405" lon="-1.29297">
        <ele>7</ele>
        <time>2020-05-31T21:20:36Z</time>
      </trkpt>
      <trkpt lat="46.15404" lon="-1.293">
        <ele>7</ele>
        <time>2020-05-31T21:20:37Z</time>
      </trkpt>
      <trkpt lat="46.15403" lon="-1.29301">
        <ele>7</ele>
        <time>2020-05-31T21:20:38Z</time>
      </trkpt>
      <trkpt lat="46.15403" lon="-1.29305">
        <ele>7</ele>
        <time>2020-05-31T21:20:39Z</time>
      </trkpt>
      <trkpt lat="46.15402" lon="-1.29307">
        <ele>6.9</ele>
        <time>2020-05-31T21:20:40Z</time>
      </trkpt>
      <trkpt lat="46.15402" lon="-1.29311">
        <ele>6.9</ele>
        <time>2020-05-31T21:20:41Z</time>
      </trkpt>
      <trkpt lat="46.15401" lon="-1.29312">
        <ele>6.9</ele>
        <time>2020-05-31T21:20:42Z</time>
      </trkpt>
      <trkpt lat="46.154" lon="-1.29316">
        <ele>6.9</ele>
        <time>2020-05-31T21:20:43Z</time>
      </trkpt>
      <trkpt lat="46.154" lon="-1.29318">
        <ele>6.9</ele>
        <time>2020-05-31T21:20:44Z</time>
      </trkpt>
      <trkpt lat="46.15399" lon="-1.29322">
        <ele>6.9</ele>
        <time>2020-05-31T21:20:45Z</time>
      </trkpt>
      <trkpt lat="46.15399" lon="-1.29324">
        <ele>6.9</ele>
        <time>2020-05-31T21:20:46Z</time>
      </trkpt>
      <trkpt lat="46.15398" lon="-1.29326">
        <ele>6.9</ele>
        <time>2020-05-31T21:20:47Z</time>
      </trkpt>
      <trkpt lat="46.15398" lon="-1.29328">
        <ele>6.9</ele>
        <time>2020-05-31T21:20:48Z</time>
      </trkpt>
      <trkpt lat="46.15397" lon="-1.29332">
        <ele>6.8</ele>
        <time>2020-05-31T21:20:49Z</time>
      </trkpt>
      <trkpt lat="46.15396" lon="-1.29334">
        <ele>6.8</ele>
        <time>2020-05-31T21:20:50Z</time>
      </trkpt>
      <trkpt lat="46.15395" lon="-1.29338">
        <ele>6.8</ele>
        <time>2020-05-31T21:20:51Z</time>
      </trkpt>
      <trkpt lat="46.15394" lon="-1.2934">
        <ele>6.8</ele>
        <time>2020-05-31T21:20:52Z</time>
      </trkpt>
      <trkpt lat="46.15393" lon="-1.29345">
        <ele>6.8</ele>
        <time>2020-05-31T21:20:53Z</time>
      </trkpt>
      <trkpt lat="46.15392" lon="-1.29346">
        <ele>6.8</ele>
        <time>2020-05-31T21:20:54Z</time>
      </trkpt>
      <trkpt lat="46.15391" lon="-1.29351">
        <ele>6.8</ele>
        <time>2020-05-31T21:20:55Z</time>
      </trkpt>
      <trkpt lat="46.15391" lon="-1.29353">
        <ele>6.7</ele>
        <time>2020-05-31T21:20:56Z</time>
      </trkpt>
      <trkpt lat="46.1539" lon="-1.29358">
        <ele>6.7</ele>
        <time>2020-05-31T21:20:57Z</time>
      </trkpt>
      <trkpt lat="46.1539" lon="-1.2936">
        <ele>6.7</ele>
        <time>2020-05-31T21:20:58Z</time>
      </trkpt>
      <trkpt lat="46.15389" lon="-1.29363">
        <ele>6.7</ele>
        <time>2020-05-31T21:20:59Z</time>
      </trkpt>
      <trkpt lat="46.15388" lon="-1.29364">
        <ele>6.7</ele>
        <time>2020-05-31T21:21:00Z</time>
      </trkpt>
      <trkpt lat="46.15388" lon="-1.29365">
        <ele>6.7</ele>
        <time>2020-05-31T21:21:01Z</time>
      </trkpt>
      <trkpt lat="46.15387" lon="-1.29368">
        <ele>6.7</ele>
        <time>2020-05-31T21:21:02Z</time>
      </trkpt>
      <trkpt lat="46.15387" lon="-1.29369">
        <ele>6.7</ele>
        <time>2020-05-31T21:21:03Z</time>
      </trkpt>
      <trkpt lat="46.15386" lon="-1.2937">
        <ele>6.7</ele>
        <time>2020-05-31T21:21:04Z</time>
      </trkpt>
      <trkpt lat="46.15386" lon="-1.2937">
        <ele>6.7</ele>
        <time>2020-05-31T21:21:05Z</time>
      </trkpt>
      <trkpt lat="46.15386" lon="-1.2937">
        <ele>6.7</ele>
        <time>2020-05-31T21:21:06Z</time>
      </trkpt>
      <trkpt lat="46.15386" lon="-1.29369">
        <ele>6.7</ele>
        <time>2020-05-31T21:21:07Z</time>
      </trkpt>
      <trkpt lat="46.15386" lon="-1.29368">
        <ele>6.7</ele>
        <time>2020-05-31T21:21:08Z</time>
      </trkpt>
      <trkpt lat="46.15386" lon="-1.29368">
        <ele>6.7</ele>
        <time>2020-05-31T21:21:09Z</time>
      </trkpt>
      <trkpt lat="46.15386" lon="-1.29368">
        <ele>6.7</ele>
        <time>2020-05-31T21:21:10Z</time>
      </trkpt>
      <trkpt lat="46.15386" lon="-1.29369">
        <ele>6.7</ele>
        <time>2020-05-31T21:21:11Z</time>
      </trkpt>
      <trkpt lat="46.15387" lon="-1.29368">
        <ele>6.7</ele>
        <time>2020-05-31T21:21:12Z</time>
      </trkpt>
      <trkpt lat="46.15387" lon="-1.29368">
        <ele>6.7</ele>
        <time>2020-05-31T21:21:13Z</time>
      </trkpt>
      <trkpt lat="46.15387" lon="-1.29368">
        <ele>6.7</ele>
        <time>2020-05-31T21:21:14Z</time>
      </trkpt>
      <trkpt lat="46.15387" lon="-1.29368">
        <ele>6.7</ele>
        <time>2020-05-31T21:21:15Z</time>
      </trkpt>
      <trkpt lat="46.15387" lon="-1.29368">
        <ele>6.7</ele>
        <time>2020-05-31T21:21:16Z</time>
      </trkpt>
      <trkpt lat="46.15387" lon="-1.29367">
        <ele>6.7</ele>
        <time>2020-05-31T21:21:17Z</time>
      </trkpt>
      <trkpt lat="46.15387" lon="-1.29367">
        <ele>6.7</ele>
        <time>2020-05-31T21:21:18Z</time>
      </trkpt>
      <trkpt lat="46.15387" lon="-1.29367">
        <ele>6.7</ele>
        <time>2020-05-31T21:21:19Z</time>
      </trkpt>
      <trkpt lat="46.15387" lon="-1.29367">
        <ele>6.7</ele>
        <time>2020-05-31T21:21:20Z</time>
      </trkpt>
      <trkpt lat="46.15387" lon="-1.29367">
        <ele>6.7</ele>
        <time>2020-05-31T21:21:21Z</time>
      </trkpt>
      <trkpt lat="46.15386" lon="-1.29366">
        <ele>6.7</ele>
        <time>2020-05-31T21:21:22Z</time>
      </trkpt>
      <trkpt lat="46.15387" lon="-1.29366">
        <ele>6.7</ele>
        <time>2020-05-31T21:21:23Z</time>
      </trkpt>
      <trkpt lat="46.15387" lon="-1.29366">
        <ele>6.7</ele>
        <time>2020-05-31T21:21:24Z</time>
      </trkpt>
      <trkpt lat="46.15386" lon="-1.29366">
        <ele>6.7</ele>
        <time>2020-05-31T21:21:25Z</time>
      </trkpt>
      <trkpt lat="46.15386" lon="-1.29366">
        <ele>6.7</ele>
        <time>2020-05-31T21:21:26Z</time>
      </trkpt>
      <trkpt lat="46.15386" lon="-1.29365">
        <ele>6.7</ele>
        <time>2020-05-31T21:21:27Z</time>
      </trkpt>
      <trkpt lat="46.15386" lon="-1.29366">
        <ele>6.7</ele>
        <time>2020-05-31T21:21:28Z</time>
      </trkpt>
      <trkpt lat="46.15386" lon="-1.29366">
        <ele>6.7</ele>
        <time>2020-05-31T21:21:29Z</time>
      </trkpt>
      <trkpt lat="46.15387" lon="-1.29366">
        <ele>6.7</ele>
        <time>2020-05-31T21:21:30Z</time>
      </trkpt>
      <trkpt lat="46.15387" lon="-1.29366">
        <ele>6.7</ele>
        <time>2020-05-31T21:21:31Z</time>
      </trkpt>
      <trkpt lat="46.15387" lon="-1.29366">
        <ele>6.7</ele>
        <time>2020-05-31T21:21:32Z</time>
      </trkpt>
      <trkpt lat="46.15387" lon="-1.29366">
        <ele>6.7</ele>
        <time>2020-05-31T21:21:33Z</time>
      </trkpt>
      <trkpt lat="46.15388" lon="-1.29366">
        <ele>6.7</ele>
        <time>2020-05-31T21:21:34Z</time>
      </trkpt>
      <trkpt lat="46.15388" lon="-1.29365">
        <ele>6.7</ele>
        <time>2020-05-31T21:21:35Z</time>
      </trkpt>
      <trkpt lat="46.15388" lon="-1.29366">
        <ele>6.7</ele>
        <time>2020-05-31T21:21:36Z</time>
      </trkpt>
      <trkpt lat="46.15389" lon="-1.29366">
        <ele>6.7</ele>
        <time>2020-05-31T21:21:37Z</time>
      </trkpt>
      <trkpt lat="46.15388" lon="-1.29366">
        <ele>6.7</ele>
        <time>2020-05-31T21:21:38Z</time>
      </trkpt>
      <trkpt lat="46.15388" lon="-1.29366">
        <ele>6.7</ele>
        <time>2020-05-31T21:21:39Z</time>
      </trkpt>
      <trkpt lat="46.15388" lon="-1.29366">
        <ele>6.7</ele>
        <time>2020-05-31T21:21:40Z</time>
      </trkpt>
      <trkpt lat="46.15388" lon="-1.29367">
        <ele>6.7</ele>
        <time>2020-05-31T21:21:41Z</time>
      </trkpt>
      <trkpt lat="46.15388" lon="-1.29366">
        <ele>6.7</ele>
        <time>2020-05-31T21:21:42Z</time>
      </trkpt>
      <trkpt lat="46.15388" lon="-1.29366">
        <ele>6.7</ele>
        <time>2020-05-31T21:21:43Z</time>
      </trkpt>
      <trkpt lat="46.15388" lon="-1.29366">
        <ele>6.7</ele>
        <time>2020-05-31T21:21:44Z</time>
      </trkpt>
      <trkpt lat="46.15389" lon="-1.29366">
        <ele>6.7</ele>
        <time>2020-05-31T21:21:45Z</time>
      </trkpt>
      <trkpt lat="46.15388" lon="-1.29365">
        <ele>6.7</ele>
        <time>2020-05-31T21:21:46Z</time>
      </trkpt>
      <trkpt lat="46.15388" lon="-1.29365">
        <ele>6.7</ele>
        <time>2020-05-31T21:21:47Z</time>
      </trkpt>
      <trkpt lat="46.15388" lon="-1.29365">
        <ele>6.7</ele>
        <time>2020-05-31T21:21:48Z</time>
      </trkpt>
      <trkpt lat="46.15388" lon="-1.29365">
        <ele>6.7</ele>
        <time>2020-05-31T21:21:49Z</time>
      </trkpt>
      <trkpt lat="46.15388" lon="-1.29366">
        <ele>6.7</ele>
        <time>2020-05-31T21:21:50Z</time>
      </trkpt>
      <trkpt lat="46.15388" lon="-1.29366">
        <ele>6.7</ele>
        <time>2020-05-31T21:21:51Z</time>
      </trkpt>
      <trkpt lat="46.15388" lon="-1.29366">
        <ele>6.7</ele>
        <time>2020-05-31T21:21:52Z</time>
      </trkpt>
      <trkpt lat="46.15388" lon="-1.29366">
        <ele>6.7</ele>
        <time>2020-05-31T21:21:53Z</time>
      </trkpt>
      <trkpt lat="46.15388" lon="-1.29366">
        <ele>6.7</ele>
        <time>2020-05-31T21:21:54Z</time>
      </trkpt>
      <trkpt lat="46.15388" lon="-1.29366">
        <ele>6.7</ele>
        <time>2020-05-31T21:21:55Z</time>
      </trkpt>
      <trkpt lat="46.15388" lon="-1.29366">
        <ele>6.7</ele>
        <time>2020-05-31T21:21:56Z</time>
      </trkpt>
      <trkpt lat="46.15388" lon="-1.29366">
        <ele>6.7</ele>
        <time>2020-05-31T21:21:57Z</time>
      </trkpt>
      <trkpt lat="46.15388" lon="-1.29366">
        <ele>6.7</ele>
        <time>2020-05-31T21:21:58Z</time>
      </trkpt>
      <trkpt lat="46.15388" lon="-1.29366">
        <ele>6.7</ele>
        <time>2020-05-31T21:21:59Z</time>
      </trkpt>
      <trkpt lat="46.15388" lon="-1.29366">
        <ele>6.7</ele>
        <time>2020-05-31T21:22:00Z</time>
      </trkpt>
      <trkpt lat="46.15388" lon="-1.29366">
        <ele>6.7</ele>
        <time>2020-05-31T21:22:01Z</time>
      </trkpt>
      <trkpt lat="46.15388" lon="-1.29366">
        <ele>6.7</ele>
        <time>2020-05-31T21:22:02Z</time>
      </trkpt>
      <trkpt lat="46.15388" lon="-1.29366">
        <ele>6.7</ele>
        <time>2020-05-31T21:22:03Z</time>
      </trkpt>
      <trkpt lat="46.15388" lon="-1.29366">
        <ele>6.7</ele>
        <time>2020-05-31T21:22:04Z</time>
      </trkpt>
      <trkpt lat="46.15388" lon="-1.29366">
        <ele>6.7</ele>
        <time>2020-05-31T21:22:05Z</time>
      </trkpt>
      <trkpt lat="46.15388" lon="-1.29366">
        <ele>6.7</ele>
        <time>2020-05-31T21:22:06Z</time>
      </trkpt>
      <trkpt lat="46.15388" lon="-1.29366">
        <ele>6.7</ele>
        <time>2020-05-31T21:22:07Z</time>
      </trkpt>
      <trkpt lat="46.15388" lon="-1.29366">
        <ele>6.7</ele>
        <time>2020-05-31T21:22:08Z</time>
      </trkpt>
      <trkpt lat="46.15388" lon="-1.29366">
        <ele>6.7</ele>
        <time>2020-05-31T21:22:09Z</time>
      </trkpt>
      <trkpt lat="46.15388" lon="-1.29367">
        <ele>6.7</ele>
        <time>2020-05-31T21:22:10Z</time>
      </trkpt>
      <trkpt lat="46.15388" lon="-1.29367">
        <ele>6.7</ele>
        <time>2020-05-31T21:22:11Z</time>
      </trkpt>
      <trkpt lat="46.15388" lon="-1.29367">
        <ele>6.7</ele>
        <time>2020-05-31T21:22:12Z</time>
      </trkpt>
      <trkpt lat="46.15387" lon="-1.29367">
        <ele>6.7</ele>
        <time>2020-05-31T21:22:13Z</time>
      </trkpt>
      <trkpt lat="46.15387" lon="-1.29368">
        <ele>6.7</ele>
        <time>2020-05-31T21:22:14Z</time>
      </trkpt>
      <trkpt lat="46.15387" lon="-1.29368">
        <ele>6.7</ele>
        <time>2020-05-31T21:22:15Z</time>
      </trkpt>
      <trkpt lat="46.15388" lon="-1.29369">
        <ele>6.7</ele>
        <time>2020-05-31T21:22:16Z</time>
      </trkpt>
      <trkpt lat="46.15387" lon="-1.29368">
        <ele>6.7</ele>
        <time>2020-05-31T21:22:17Z</time>
      </trkpt>
      <trkpt lat="46.15387" lon="-1.29368">
        <ele>6.7</ele>
        <time>2020-05-31T21:22:18Z</time>
      </trkpt>
      <trkpt lat="46.15388" lon="-1.29368">
        <ele>6.7</ele>
        <time>2020-05-31T21:22:19Z</time>
      </trkpt>
      <trkpt lat="46.15388" lon="-1.29367">
        <ele>6.7</ele>
        <time>2020-05-31T21:22:20Z</time>
      </trkpt>
      <trkpt lat="46.15387" lon="-1.29367">
        <ele>6.7</ele>
        <time>2020-05-31T21:22:21Z</time>
      </trkpt>
      <trkpt lat="46.15387" lon="-1.29367">
        <ele>6.7</ele>
        <time>2020-05-31T21:22:22Z</time>
      </trkpt>
      <trkpt lat="46.15387" lon="-1.29366">
        <ele>6.7</ele>
        <time>2020-05-31T21:22:23Z</time>
      </trkpt>
      <trkpt lat="46.15387" lon="-1.29366">
        <ele>6.7</ele>
        <time>2020-05-31T21:22:24Z</time>
      </trkpt>
      <trkpt lat="46.15388" lon="-1.29365">
        <ele>6.7</ele>
        <time>2020-05-31T21:22:25Z</time>
      </trkpt>
      <trkpt lat="46.15388" lon="-1.29365">
        <ele>6.7</ele>
        <time>2020-05-31T21:22:26Z</time>
      </trkpt>
      <trkpt lat="46.15388" lon="-1.29364">
        <ele>6.7</ele>
        <time>2020-05-31T21:22:27Z</time>
      </trkpt>
      <trkpt lat="46.15388" lon="-1.29364">
        <ele>6.7</ele>
        <time>2020-05-31T21:22:28Z</time>
      </trkpt>
      <trkpt lat="46.15388" lon="-1.29363">
        <ele>6.7</ele>
        <time>2020-05-31T21:22:29Z</time>
      </trkpt>
      <trkpt lat="46.15388" lon="-1.29363">
        <ele>6.7</ele>
        <time>2020-05-31T21:22:30Z</time>
      </trkpt>
      <trkpt lat="46.15389" lon="-1.29362">
        <ele>6.7</ele>
        <time>2020-05-31T21:22:31Z</time>
      </trkpt>
      <trkpt lat="46.15388" lon="-1.29363">
        <ele>6.7</ele>
        <time>2020-05-31T21:22:32Z</time>
      </trkpt>
      <trkpt lat="46.15388" lon="-1.29363">
        <ele>6.7</ele>
        <time>2020-05-31T21:22:33Z</time>
      </trkpt>
      <trkpt lat="46.15388" lon="-1.29364">
        <ele>6.7</ele>
        <time>2020-05-31T21:22:34Z</time>
      </trkpt>
      <trkpt lat="46.15388" lon="-1.29365">
        <ele>6.7</ele>
        <time>2020-05-31T21:22:35Z</time>
      </trkpt>
      <trkpt lat="46.15388" lon="-1.29365">
        <ele>6.7</ele>
        <time>2020-05-31T21:22:36Z</time>
      </trkpt>
      <trkpt lat="46.15388" lon="-1.29366">
        <ele>6.7</ele>
        <time>2020-05-31T21:22:37Z</time>
      </trkpt>
      <trkpt lat="46.15388" lon="-1.29366">
        <ele>6.7</ele>
        <time>2020-05-31T21:22:38Z</time>
      </trkpt>
      <trkpt lat="46.15387" lon="-1.29366">
        <ele>6.7</ele>
        <time>2020-05-31T21:22:39Z</time>
      </trkpt>
      <trkpt lat="46.15386" lon="-1.29368">
        <ele>6.7</ele>
        <time>2020-05-31T21:22:40Z</time>
      </trkpt>
      <trkpt lat="46.15386" lon="-1.29372">
        <ele>6.7</ele>
        <time>2020-05-31T21:22:41Z</time>
      </trkpt>
      <trkpt lat="46.15385" lon="-1.29374">
        <ele>6.7</ele>
        <time>2020-05-31T21:22:42Z</time>
      </trkpt>
      <trkpt lat="46.15384" lon="-1.29379">
        <ele>6.8</ele>
        <time>2020-05-31T21:22:43Z</time>
      </trkpt>
      <trkpt lat="46.15383" lon="-1.29384">
        <ele>6.8</ele>
        <time>2020-05-31T21:22:44Z</time>
      </trkpt>
      <trkpt lat="46.15382" lon="-1.29389">
        <ele>6.8</ele>
        <time>2020-05-31T21:22:45Z</time>
      </trkpt>
      <trkpt lat="46.15382" lon="-1.29391">
        <ele>6.8</ele>
        <time>2020-05-31T21:22:46Z</time>
      </trkpt>
      <trkpt lat="46.15381" lon="-1.29397">
        <ele>6.9</ele>
        <time>2020-05-31T21:22:47Z</time>
      </trkpt>
      <trkpt lat="46.1538" lon="-1.29402">
        <ele>7</ele>
        <time>2020-05-31T21:22:48Z</time>
      </trkpt>
      <trkpt lat="46.1538" lon="-1.29407">
        <ele>7</ele>
        <time>2020-05-31T21:22:49Z</time>
      </trkpt>
      <trkpt lat="46.15379" lon="-1.2941">
        <ele>7.1</ele>
        <time>2020-05-31T21:22:50Z</time>
      </trkpt>
      <trkpt lat="46.15379" lon="-1.29414">
        <ele>7.2</ele>
        <time>2020-05-31T21:22:51Z</time>
      </trkpt>
      <trkpt lat="46.15378" lon="-1.29419">
        <ele>7.2</ele>
        <time>2020-05-31T21:22:52Z</time>
      </trkpt>
      <trkpt lat="46.15377" lon="-1.29425">
        <ele>7.4</ele>
        <time>2020-05-31T21:22:53Z</time>
      </trkpt>
      <trkpt lat="46.15377" lon="-1.2943">
        <ele>7.4</ele>
        <time>2020-05-31T21:22:54Z</time>
      </trkpt>
      <trkpt lat="46.15376" lon="-1.29436">
        <ele>7.5</ele>
        <time>2020-05-31T21:22:55Z</time>
      </trkpt>
      <trkpt lat="46.15376" lon="-1.29441">
        <ele>7.6</ele>
        <time>2020-05-31T21:22:56Z</time>
      </trkpt>
      <trkpt lat="46.15376" lon="-1.29445">
        <ele>7.7</ele>
        <time>2020-05-31T21:22:57Z</time>
      </trkpt>
      <trkpt lat="46.15376" lon="-1.29451">
        <ele>7.7</ele>
        <time>2020-05-31T21:22:58Z</time>
      </trkpt>
      <trkpt lat="46.15377" lon="-1.29457">
        <ele>7.7</ele>
        <time>2020-05-31T21:22:59Z</time>
      </trkpt>
      <trkpt lat="46.15377" lon="-1.29462">
        <ele>7.8</ele>
        <time>2020-05-31T21:23:00Z</time>
      </trkpt>
      <trkpt lat="46.15376" lon="-1.29466">
        <ele>7.8</ele>
        <time>2020-05-31T21:23:01Z</time>
      </trkpt>
      <trkpt lat="46.15376" lon="-1.29471">
        <ele>7.8</ele>
        <time>2020-05-31T21:23:02Z</time>
      </trkpt>
      <trkpt lat="46.15376" lon="-1.29476">
        <ele>7.9</ele>
        <time>2020-05-31T21:23:03Z</time>
      </trkpt>
      <trkpt lat="46.15376" lon="-1.29482">
        <ele>7.9</ele>
        <time>2020-05-31T21:23:04Z</time>
      </trkpt>
      <trkpt lat="46.15377" lon="-1.29488">
        <ele>8</ele>
        <time>2020-05-31T21:23:05Z</time>
      </trkpt>
      <trkpt lat="46.15377" lon="-1.29493">
        <ele>8</ele>
        <time>2020-05-31T21:23:06Z</time>
      </trkpt>
      <trkpt lat="46.15377" lon="-1.29499">
        <ele>8.1</ele>
        <time>2020-05-31T21:23:07Z</time>
      </trkpt>
      <trkpt lat="46.15378" lon="-1.29504">
        <ele>8.1</ele>
        <time>2020-05-31T21:23:08Z</time>
      </trkpt>
      <trkpt lat="46.15378" lon="-1.2951">
        <ele>8.2</ele>
        <time>2020-05-31T21:23:09Z</time>
      </trkpt>
      <trkpt lat="46.15378" lon="-1.29516">
        <ele>8.3</ele>
        <time>2020-05-31T21:23:10Z</time>
      </trkpt>
      <trkpt lat="46.1538" lon="-1.29522">
        <ele>8.3</ele>
        <time>2020-05-31T21:23:11Z</time>
      </trkpt>
      <trkpt lat="46.15381" lon="-1.29528">
        <ele>8.4</ele>
        <time>2020-05-31T21:23:12Z</time>
      </trkpt>
      <trkpt lat="46.15382" lon="-1.29535">
        <ele>8.5</ele>
        <time>2020-05-31T21:23:13Z</time>
      </trkpt>
      <trkpt lat="46.15383" lon="-1.2954">
        <ele>8.6</ele>
        <time>2020-05-31T21:23:14Z</time>
      </trkpt>
      <trkpt lat="46.15385" lon="-1.29546">
        <ele>8.6</ele>
        <time>2020-05-31T21:23:15Z</time>
      </trkpt>
      <trkpt lat="46.15384" lon="-1.29554">
        <ele>8.7</ele>
        <time>2020-05-31T21:23:16Z</time>
      </trkpt>
      <trkpt lat="46.15385" lon="-1.2956">
        <ele>8.7</ele>
        <time>2020-05-31T21:23:17Z</time>
      </trkpt>
      <trkpt lat="46.15385" lon="-1.29566">
        <ele>8.8</ele>
        <time>2020-05-31T21:23:18Z</time>
      </trkpt>
      <trkpt lat="46.15385" lon="-1.29571">
        <ele>8.8</ele>
        <time>2020-05-31T21:23:19Z</time>
      </trkpt>
      <trkpt lat="46.15386" lon="-1.29577">
        <ele>8.9</ele>
        <time>2020-05-31T21:23:20Z</time>
      </trkpt>
      <trkpt lat="46.15386" lon="-1.29584">
        <ele>8.9</ele>
        <time>2020-05-31T21:23:21Z</time>
      </trkpt>
      <trkpt lat="46.15386" lon="-1.29591">
        <ele>9</ele>
        <time>2020-05-31T21:23:22Z</time>
      </trkpt>
      <trkpt lat="46.15386" lon="-1.29598">
        <ele>9.1</ele>
        <time>2020-05-31T21:23:23Z</time>
      </trkpt>
      <trkpt lat="46.15386" lon="-1.29605">
        <ele>9.2</ele>
        <time>2020-05-31T21:23:24Z</time>
      </trkpt>
      <trkpt lat="46.15386" lon="-1.29611">
        <ele>9.2</ele>
        <time>2020-05-31T21:23:25Z</time>
      </trkpt>
      <trkpt lat="46.15386" lon="-1.29618">
        <ele>9.3</ele>
        <time>2020-05-31T21:23:26Z</time>
      </trkpt>
      <trkpt lat="46.15386" lon="-1.29624">
        <ele>9.4</ele>
        <time>2020-05-31T21:23:27Z</time>
      </trkpt>
      <trkpt lat="46.15385" lon="-1.29629">
        <ele>9.4</ele>
        <time>2020-05-31T21:23:28Z</time>
      </trkpt>
      <trkpt lat="46.15384" lon="-1.29636">
        <ele>9.5</ele>
        <time>2020-05-31T21:23:29Z</time>
      </trkpt>
      <trkpt lat="46.15384" lon="-1.29642">
        <ele>9.6</ele>
        <time>2020-05-31T21:23:30Z</time>
      </trkpt>
      <trkpt lat="46.15382" lon="-1.2965">
        <ele>9.6</ele>
        <time>2020-05-31T21:23:31Z</time>
      </trkpt>
      <trkpt lat="46.15382" lon="-1.29657">
        <ele>9.7</ele>
        <time>2020-05-31T21:23:32Z</time>
      </trkpt>
      <trkpt lat="46.15382" lon="-1.29663">
        <ele>9.7</ele>
        <time>2020-05-31T21:23:33Z</time>
      </trkpt>
      <trkpt lat="46.15381" lon="-1.2967">
        <ele>9.7</ele>
        <time>2020-05-31T21:23:34Z</time>
      </trkpt>
      <trkpt lat="46.1538" lon="-1.29678">
        <ele>9.8</ele>
        <time>2020-05-31T21:23:35Z</time>
      </trkpt>
      <trkpt lat="46.1538" lon="-1.29686">
        <ele>9.8</ele>
        <time>2020-05-31T21:23:36Z</time>
      </trkpt>
      <trkpt lat="46.15379" lon="-1.29694">
        <ele>9.9</ele>
        <time>2020-05-31T21:23:37Z</time>
      </trkpt>
      <trkpt lat="46.15378" lon="-1.29703">
        <ele>9.9</ele>
        <time>2020-05-31T21:23:38Z</time>
      </trkpt>
      <trkpt lat="46.15377" lon="-1.29712">
        <ele>10</ele>
        <time>2020-05-31T21:23:39Z</time>
      </trkpt>
      <trkpt lat="46.15376" lon="-1.29722">
        <ele>10</ele>
        <time>2020-05-31T21:23:40Z</time>
      </trkpt>
      <trkpt lat="46.15376" lon="-1.29731">
        <ele>10</ele>
        <time>2020-05-31T21:23:41Z</time>
      </trkpt>
      <trkpt lat="46.15375" lon="-1.29738">
        <ele>10.1</ele>
        <time>2020-05-31T21:23:42Z</time>
      </trkpt>
      <trkpt lat="46.15374" lon="-1.29747">
        <ele>10.1</ele>
        <time>2020-05-31T21:23:43Z</time>
      </trkpt>
      <trkpt lat="46.15374" lon="-1.29756">
        <ele>10.1</ele>
        <time>2020-05-31T21:23:44Z</time>
      </trkpt>
      <trkpt lat="46.15373" lon="-1.29765">
        <ele>10.2</ele>
        <time>2020-05-31T21:23:45Z</time>
      </trkpt>
      <trkpt lat="46.15373" lon="-1.29775">
        <ele>10.2</ele>
        <time>2020-05-31T21:23:46Z</time>
      </trkpt>
      <trkpt lat="46.15373" lon="-1.29784">
        <ele>10.2</ele>
        <time>2020-05-31T21:23:47Z</time>
      </trkpt>
      <trkpt lat="46.15372" lon="-1.29792">
        <ele>10.2</ele>
        <time>2020-05-31T21:23:48Z</time>
      </trkpt>
      <trkpt lat="46.15372" lon="-1.29801">
        <ele>10.3</ele>
        <time>2020-05-31T21:23:49Z</time>
      </trkpt>
      <trkpt lat="46.15372" lon="-1.2981">
        <ele>10.3</ele>
        <time>2020-05-31T21:23:50Z</time>
      </trkpt>
      <trkpt lat="46.15371" lon="-1.29819">
        <ele>10.3</ele>
        <time>2020-05-31T21:23:51Z</time>
      </trkpt>
      <trkpt lat="46.1537" lon="-1.29827">
        <ele>10.3</ele>
        <time>2020-05-31T21:23:52Z</time>
      </trkpt>
      <trkpt lat="46.1537" lon="-1.29836">
        <ele>10.3</ele>
        <time>2020-05-31T21:23:53Z</time>
      </trkpt>
      <trkpt lat="46.1537" lon="-1.29845">
        <ele>10.4</ele>
        <time>2020-05-31T21:23:54Z</time>
      </trkpt>
      <trkpt lat="46.15369" lon="-1.29854">
        <ele>10.4</ele>
        <time>2020-05-31T21:23:55Z</time>
      </trkpt>
      <trkpt lat="46.15368" lon="-1.29864">
        <ele>10.5</ele>
        <time>2020-05-31T21:23:56Z</time>
      </trkpt>
      <trkpt lat="46.15367" lon="-1.29872">
        <ele>10.5</ele>
        <time>2020-05-31T21:23:57Z</time>
      </trkpt>
      <trkpt lat="46.15366" lon="-1.2988">
        <ele>10.5</ele>
        <time>2020-05-31T21:23:58Z</time>
      </trkpt>
      <trkpt lat="46.15365" lon="-1.29888">
        <ele>10.5</ele>
        <time>2020-05-31T21:23:59Z</time>
      </trkpt>
      <trkpt lat="46.15365" lon="-1.29896">
        <ele>10.5</ele>
        <time>2020-05-31T21:24:00Z</time>
      </trkpt>
      <trkpt lat="46.15364" lon="-1.29905">
        <ele>10.5</ele>
        <time>2020-05-31T21:24:01Z</time>
      </trkpt>
      <trkpt lat="46.15364" lon="-1.29912">
        <ele>10.5</ele>
        <time>2020-05-31T21:24:02Z</time>
      </trkpt>
      <trkpt lat="46.15364" lon="-1.29918">
        <ele>10.5</ele>
        <time>2020-05-31T21:24:03Z</time>
      </trkpt>
      <trkpt lat="46.15363" lon="-1.29925">
        <ele>10.5</ele>
        <time>2020-05-31T21:24:04Z</time>
      </trkpt>
      <trkpt lat="46.15362" lon="-1.29931">
        <ele>10.5</ele>
        <time>2020-05-31T21:24:05Z</time>
      </trkpt>
      <trkpt lat="46.15362" lon="-1.29939">
        <ele>10.5</ele>
        <time>2020-05-31T21:24:06Z</time>
      </trkpt>
      <trkpt lat="46.15362" lon="-1.29946">
        <ele>10.5</ele>
        <time>2020-05-31T21:24:07Z</time>
      </trkpt>
      <trkpt lat="46.15361" lon="-1.29954">
        <ele>10.5</ele>
        <time>2020-05-31T21:24:08Z</time>
      </trkpt>
      <trkpt lat="46.15361" lon="-1.29962">
        <ele>10.5</ele>
        <time>2020-05-31T21:24:09Z</time>
      </trkpt>
      <trkpt lat="46.15361" lon="-1.29971">
        <ele>10.5</ele>
        <time>2020-05-31T21:24:10Z</time>
      </trkpt>
      <trkpt lat="46.1536" lon="-1.29979">
        <ele>10.5</ele>
        <time>2020-05-31T21:24:11Z</time>
      </trkpt>
      <trkpt lat="46.15359" lon="-1.29988">
        <ele>10.5</ele>
        <time>2020-05-31T21:24:12Z</time>
      </trkpt>
      <trkpt lat="46.15358" lon="-1.29998">
        <ele>10.5</ele>
        <time>2020-05-31T21:24:13Z</time>
      </trkpt>
      <trkpt lat="46.15358" lon="-1.30007">
        <ele>10.5</ele>
        <time>2020-05-31T21:24:14Z</time>
      </trkpt>
      <trkpt lat="46.15357" lon="-1.30015">
        <ele>10.5</ele>
        <time>2020-05-31T21:24:15Z</time>
      </trkpt>
      <trkpt lat="46.15357" lon="-1.30024">
        <ele>10.5</ele>
        <time>2020-05-31T21:24:16Z</time>
      </trkpt>
      <trkpt lat="46.15357" lon="-1.30033">
        <ele>10.5</ele>
        <time>2020-05-31T21:24:17Z</time>
      </trkpt>
      <trkpt lat="46.15356" lon="-1.30042">
        <ele>10.5</ele>
        <time>2020-05-31T21:24:18Z</time>
      </trkpt>
      <trkpt lat="46.15355" lon="-1.30051">
        <ele>10.5</ele>
        <time>2020-05-31T21:24:19Z</time>
      </trkpt>
      <trkpt lat="46.15355" lon="-1.3006">
        <ele>10.6</ele>
        <time>2020-05-31T21:24:20Z</time>
      </trkpt>
      <trkpt lat="46.15355" lon="-1.30069">
        <ele>10.6</ele>
        <time>2020-05-31T21:24:21Z</time>
      </trkpt>
      <trkpt lat="46.15354" lon="-1.30079">
        <ele>10.6</ele>
        <time>2020-05-31T21:24:22Z</time>
      </trkpt>
      <trkpt lat="46.15353" lon="-1.30089">
        <ele>10.6</ele>
        <time>2020-05-31T21:24:23Z</time>
      </trkpt>
      <trkpt lat="46.15352" lon="-1.30097">
        <ele>10.7</ele>
        <time>2020-05-31T21:24:24Z</time>
      </trkpt>
      <trkpt lat="46.15351" lon="-1.30106">
        <ele>10.7</ele>
        <time>2020-05-31T21:24:25Z</time>
      </trkpt>
      <trkpt lat="46.1535" lon="-1.30117">
        <ele>10.7</ele>
        <time>2020-05-31T21:24:26Z</time>
      </trkpt>
      <trkpt lat="46.15349" lon="-1.30126">
        <ele>10.7</ele>
        <time>2020-05-31T21:24:27Z</time>
      </trkpt>
      <trkpt lat="46.15347" lon="-1.30135">
        <ele>10.7</ele>
        <time>2020-05-31T21:24:28Z</time>
      </trkpt>
      <trkpt lat="46.15346" lon="-1.30144">
        <ele>10.7</ele>
        <time>2020-05-31T21:24:29Z</time>
      </trkpt>
      <trkpt lat="46.15344" lon="-1.30152">
        <ele>10.7</ele>
        <time>2020-05-31T21:24:30Z</time>
      </trkpt>
      <trkpt lat="46.15343" lon="-1.30161">
        <ele>10.7</ele>
        <time>2020-05-31T21:24:31Z</time>
      </trkpt>
      <trkpt lat="46.15341" lon="-1.30171">
        <ele>10.7</ele>
        <time>2020-05-31T21:24:32Z</time>
      </trkpt>
      <trkpt lat="46.15339" lon="-1.30181">
        <ele>10.7</ele>
        <time>2020-05-31T21:24:33Z</time>
      </trkpt>
      <trkpt lat="46.15337" lon="-1.30191">
        <ele>10.7</ele>
        <time>2020-05-31T21:24:34Z</time>
      </trkpt>
      <trkpt lat="46.15336" lon="-1.302">
        <ele>10.6</ele>
        <time>2020-05-31T21:24:35Z</time>
      </trkpt>
      <trkpt lat="46.15335" lon="-1.3021">
        <ele>10.6</ele>
        <time>2020-05-31T21:24:36Z</time>
      </trkpt>
      <trkpt lat="46.15333" lon="-1.30219">
        <ele>10.6</ele>
        <time>2020-05-31T21:24:37Z</time>
      </trkpt>
      <trkpt lat="46.15332" lon="-1.30228">
        <ele>10.5</ele>
        <time>2020-05-31T21:24:38Z</time>
      </trkpt>
      <trkpt lat="46.1533" lon="-1.30236">
        <ele>10.5</ele>
        <time>2020-05-31T21:24:39Z</time>
      </trkpt>
      <trkpt lat="46.15329" lon="-1.30245">
        <ele>10.5</ele>
        <time>2020-05-31T21:24:40Z</time>
      </trkpt>
      <trkpt lat="46.15327" lon="-1.30254">
        <ele>10.5</ele>
        <time>2020-05-31T21:24:41Z</time>
      </trkpt>
      <trkpt lat="46.15326" lon="-1.30263">
        <ele>10.5</ele>
        <time>2020-05-31T21:24:42Z</time>
      </trkpt>
      <trkpt lat="46.15324" lon="-1.30271">
        <ele>10.5</ele>
        <time>2020-05-31T21:24:43Z</time>
      </trkpt>
      <trkpt lat="46.15323" lon="-1.3028">
        <ele>10.5</ele>
        <time>2020-05-31T21:24:44Z</time>
      </trkpt>
      <trkpt lat="46.15322" lon="-1.30289">
        <ele>10.5</ele>
        <time>2020-05-31T21:24:45Z</time>
      </trkpt>
      <trkpt lat="46.15321" lon="-1.30298">
        <ele>10.5</ele>
        <time>2020-05-31T21:24:46Z</time>
      </trkpt>
      <trkpt lat="46.15321" lon="-1.30307">
        <ele>10.5</ele>
        <time>2020-05-31T21:24:47Z</time>
      </trkpt>
      <trkpt lat="46.1532" lon="-1.30316">
        <ele>10.5</ele>
        <time>2020-05-31T21:24:48Z</time>
      </trkpt>
      <trkpt lat="46.1532" lon="-1.30324">
        <ele>10.4</ele>
        <time>2020-05-31T21:24:49Z</time>
      </trkpt>
      <trkpt lat="46.15319" lon="-1.30333">
        <ele>10.4</ele>
        <time>2020-05-31T21:24:50Z</time>
      </trkpt>
      <trkpt lat="46.15318" lon="-1.30342">
        <ele>10.4</ele>
        <time>2020-05-31T21:24:51Z</time>
      </trkpt>
      <trkpt lat="46.15318" lon="-1.30352">
        <ele>10.4</ele>
        <time>2020-05-31T21:24:52Z</time>
      </trkpt>
      <trkpt lat="46.15318" lon="-1.30361">
        <ele>10.4</ele>
        <time>2020-05-31T21:24:53Z</time>
      </trkpt>
      <trkpt lat="46.15317" lon="-1.3037">
        <ele>10.4</ele>
        <time>2020-05-31T21:24:54Z</time>
      </trkpt>
      <trkpt lat="46.15318" lon="-1.3038">
        <ele>10.4</ele>
        <time>2020-05-31T21:24:55Z</time>
      </trkpt>
      <trkpt lat="46.15318" lon="-1.30389">
        <ele>10.4</ele>
        <time>2020-05-31T21:24:56Z</time>
      </trkpt>
      <trkpt lat="46.15319" lon="-1.30398">
        <ele>10.4</ele>
        <time>2020-05-31T21:24:57Z</time>
      </trkpt>
      <trkpt lat="46.1532" lon="-1.30407">
        <ele>10.4</ele>
        <time>2020-05-31T21:24:58Z</time>
      </trkpt>
      <trkpt lat="46.15321" lon="-1.30416">
        <ele>10.4</ele>
        <time>2020-05-31T21:24:59Z</time>
      </trkpt>
      <trkpt lat="46.15322" lon="-1.30425">
        <ele>10.4</ele>
        <time>2020-05-31T21:25:00Z</time>
      </trkpt>
      <trkpt lat="46.15324" lon="-1.30434">
        <ele>10.4</ele>
        <time>2020-05-31T21:25:01Z</time>
      </trkpt>
      <trkpt lat="46.15325" lon="-1.30443">
        <ele>10.4</ele>
        <time>2020-05-31T21:25:02Z</time>
      </trkpt>
      <trkpt lat="46.15326" lon="-1.30452">
        <ele>10.4</ele>
        <time>2020-05-31T21:25:03Z</time>
      </trkpt>
      <trkpt lat="46.15327" lon="-1.30461">
        <ele>10.4</ele>
        <time>2020-05-31T21:25:04Z</time>
      </trkpt>
      <trkpt lat="46.15328" lon="-1.3047">
        <ele>10.4</ele>
        <time>2020-05-31T21:25:05Z</time>
      </trkpt>
      <trkpt lat="46.15329" lon="-1.30478">
        <ele>10.4</ele>
        <time>2020-05-31T21:25:06Z</time>
      </trkpt>
      <trkpt lat="46.1533" lon="-1.30486">
        <ele>10.4</ele>
        <time>2020-05-31T21:25:07Z</time>
      </trkpt>
      <trkpt lat="46.15332" lon="-1.30494">
        <ele>10.4</ele>
        <time>2020-05-31T21:25:08Z</time>
      </trkpt>
      <trkpt lat="46.15333" lon="-1.30503">
        <ele>10.4</ele>
        <time>2020-05-31T21:25:09Z</time>
      </trkpt>
      <trkpt lat="46.15335" lon="-1.30511">
        <ele>10.4</ele>
        <time>2020-05-31T21:25:10Z</time>
      </trkpt>
      <trkpt lat="46.15336" lon="-1.3052">
        <ele>10.4</ele>
        <time>2020-05-31T21:25:11Z</time>
      </trkpt>
      <trkpt lat="46.15337" lon="-1.30528">
        <ele>10.4</ele>
        <time>2020-05-31T21:25:12Z</time>
      </trkpt>
      <trkpt lat="46.15336" lon="-1.30537">
        <ele>10.4</ele>
        <time>2020-05-31T21:25:13Z</time>
      </trkpt>
      <trkpt lat="46.15336" lon="-1.30546">
        <ele>10.4</ele>
        <time>2020-05-31T21:25:14Z</time>
      </trkpt>
      <trkpt lat="46.15336" lon="-1.30554">
        <ele>10.4</ele>
        <time>2020-05-31T21:25:15Z</time>
      </trkpt>
      <trkpt lat="46.15337" lon="-1.30562">
        <ele>10.4</ele>
        <time>2020-05-31T21:25:16Z</time>
      </trkpt>
      <trkpt lat="46.15338" lon="-1.3057">
        <ele>10.4</ele>
        <time>2020-05-31T21:25:17Z</time>
      </trkpt>
      <trkpt lat="46.15339" lon="-1.30576">
        <ele>10.4</ele>
        <time>2020-05-31T21:25:18Z</time>
      </trkpt>
      <trkpt lat="46.15339" lon="-1.30582">
        <ele>10.4</ele>
        <time>2020-05-31T21:25:19Z</time>
      </trkpt>
      <trkpt lat="46.1534" lon="-1.30588">
        <ele>10.4</ele>
        <time>2020-05-31T21:25:20Z</time>
      </trkpt>
      <trkpt lat="46.15341" lon="-1.30594">
        <ele>10.4</ele>
        <time>2020-05-31T21:25:21Z</time>
      </trkpt>
      <trkpt lat="46.15341" lon="-1.30601">
        <ele>10.5</ele>
        <time>2020-05-31T21:25:22Z</time>
      </trkpt>
      <trkpt lat="46.15341" lon="-1.30608">
        <ele>10.5</ele>
        <time>2020-05-31T21:25:23Z</time>
      </trkpt>
      <trkpt lat="46.15342" lon="-1.30614">
        <ele>10.5</ele>
        <time>2020-05-31T21:25:24Z</time>
      </trkpt>
      <trkpt lat="46.15346" lon="-1.30617">
        <ele>10.5</ele>
        <time>2020-05-31T21:25:25Z</time>
      </trkpt>
      <trkpt lat="46.15349" lon="-1.30621">
        <ele>10.5</ele>
        <time>2020-05-31T21:25:26Z</time>
      </trkpt>
      <trkpt lat="46.15352" lon="-1.30626">
        <ele>10.5</ele>
        <time>2020-05-31T21:25:27Z</time>
      </trkpt>
      <trkpt lat="46.15354" lon="-1.3063">
        <ele>10.5</ele>
        <time>2020-05-31T21:25:28Z</time>
      </trkpt>
      <trkpt lat="46.15357" lon="-1.30635">
        <ele>10.5</ele>
        <time>2020-05-31T21:25:29Z</time>
      </trkpt>
      <trkpt lat="46.15358" lon="-1.3064">
        <ele>10.5</ele>
        <time>2020-05-31T21:25:30Z</time>
      </trkpt>
      <trkpt lat="46.15359" lon="-1.30646">
        <ele>10.4</ele>
        <time>2020-05-31T21:25:31Z</time>
      </trkpt>
      <trkpt lat="46.15357" lon="-1.30652">
        <ele>10.4</ele>
        <time>2020-05-31T21:25:32Z</time>
      </trkpt>
      <trkpt lat="46.15356" lon="-1.30659">
        <ele>10.4</ele>
        <time>2020-05-31T21:25:33Z</time>
      </trkpt>
      <trkpt lat="46.15354" lon="-1.30666">
        <ele>10.4</ele>
        <time>2020-05-31T21:25:34Z</time>
      </trkpt>
      <trkpt lat="46.15353" lon="-1.30672">
        <ele>10.3</ele>
        <time>2020-05-31T21:25:35Z</time>
      </trkpt>
      <trkpt lat="46.15352" lon="-1.30679">
        <ele>10.3</ele>
        <time>2020-05-31T21:25:36Z</time>
      </trkpt>
      <trkpt lat="46.15352" lon="-1.30686">
        <ele>10.3</ele>
        <time>2020-05-31T21:25:37Z</time>
      </trkpt>
      <trkpt lat="46.15353" lon="-1.30694">
        <ele>10.3</ele>
        <time>2020-05-31T21:25:38Z</time>
      </trkpt>
      <trkpt lat="46.15353" lon="-1.30703">
        <ele>10.3</ele>
        <time>2020-05-31T21:25:39Z</time>
      </trkpt>
      <trkpt lat="46.15353" lon="-1.30711">
        <ele>10.3</ele>
        <time>2020-05-31T21:25:40Z</time>
      </trkpt>
      <trkpt lat="46.15353" lon="-1.3072">
        <ele>10.3</ele>
        <time>2020-05-31T21:25:41Z</time>
      </trkpt>
      <trkpt lat="46.15353" lon="-1.30728">
        <ele>10.3</ele>
        <time>2020-05-31T21:25:42Z</time>
      </trkpt>
      <trkpt lat="46.15352" lon="-1.30737">
        <ele>10.4</ele>
        <time>2020-05-31T21:25:43Z</time>
      </trkpt>
      <trkpt lat="46.15351" lon="-1.30746">
        <ele>10.4</ele>
        <time>2020-05-31T21:25:44Z</time>
      </trkpt>
      <trkpt lat="46.1535" lon="-1.30755">
        <ele>10.4</ele>
        <time>2020-05-31T21:25:45Z</time>
      </trkpt>
      <trkpt lat="46.1535" lon="-1.30765">
        <ele>10.4</ele>
        <time>2020-05-31T21:25:46Z</time>
      </trkpt>
      <trkpt lat="46.1535" lon="-1.30774">
        <ele>10.4</ele>
        <time>2020-05-31T21:25:47Z</time>
      </trkpt>
      <trkpt lat="46.15351" lon="-1.30784">
        <ele>10.4</ele>
        <time>2020-05-31T21:25:48Z</time>
      </trkpt>
      <trkpt lat="46.15351" lon="-1.30794">
        <ele>10.4</ele>
        <time>2020-05-31T21:25:49Z</time>
      </trkpt>
      <trkpt lat="46.15351" lon="-1.30803">
        <ele>10.5</ele>
        <time>2020-05-31T21:25:50Z</time>
      </trkpt>
      <trkpt lat="46.15352" lon="-1.30813">
        <ele>10.5</ele>
        <time>2020-05-31T21:25:51Z</time>
      </trkpt>
      <trkpt lat="46.15352" lon="-1.30822">
        <ele>10.5</ele>
        <time>2020-05-31T21:25:52Z</time>
      </trkpt>
      <trkpt lat="46.15353" lon="-1.30831">
        <ele>10.5</ele>
        <time>2020-05-31T21:25:53Z</time>
      </trkpt>
      <trkpt lat="46.15354" lon="-1.3084">
        <ele>10.5</ele>
        <time>2020-05-31T21:25:54Z</time>
      </trkpt>
      <trkpt lat="46.15355" lon="-1.30849">
        <ele>10.5</ele>
        <time>2020-05-31T21:25:55Z</time>
      </trkpt>
      <trkpt lat="46.15356" lon="-1.30858">
        <ele>10.5</ele>
        <time>2020-05-31T21:25:56Z</time>
      </trkpt>
      <trkpt lat="46.15358" lon="-1.30867">
        <ele>10.6</ele>
        <time>2020-05-31T21:25:57Z</time>
      </trkpt>
      <trkpt lat="46.15359" lon="-1.30876">
        <ele>10.6</ele>
        <time>2020-05-31T21:25:58Z</time>
      </trkpt>
      <trkpt lat="46.15361" lon="-1.30885">
        <ele>10.6</ele>
        <time>2020-05-31T21:25:59Z</time>
      </trkpt>
      <trkpt lat="46.15363" lon="-1.30894">
        <ele>10.6</ele>
        <time>2020-05-31T21:26:00Z</time>
      </trkpt>
      <trkpt lat="46.15365" lon="-1.30903">
        <ele>10.6</ele>
        <time>2020-05-31T21:26:01Z</time>
      </trkpt>
      <trkpt lat="46.15366" lon="-1.30912">
        <ele>10.6</ele>
        <time>2020-05-31T21:26:02Z</time>
      </trkpt>
      <trkpt lat="46.15368" lon="-1.30922">
        <ele>10.6</ele>
        <time>2020-05-31T21:26:03Z</time>
      </trkpt>
      <trkpt lat="46.1537" lon="-1.3093">
        <ele>10.6</ele>
        <time>2020-05-31T21:26:04Z</time>
      </trkpt>
      <trkpt lat="46.15372" lon="-1.30939">
        <ele>10.5</ele>
        <time>2020-05-31T21:26:05Z</time>
      </trkpt>
      <trkpt lat="46.15374" lon="-1.30948">
        <ele>10.5</ele>
        <time>2020-05-31T21:26:06Z</time>
      </trkpt>
      <trkpt lat="46.15376" lon="-1.30957">
        <ele>10.5</ele>
        <time>2020-05-31T21:26:07Z</time>
      </trkpt>
      <trkpt lat="46.15378" lon="-1.30965">
        <ele>10.5</ele>
        <time>2020-05-31T21:26:08Z</time>
      </trkpt>
      <trkpt lat="46.1538" lon="-1.30974">
        <ele>10.5</ele>
        <time>2020-05-31T21:26:09Z</time>
      </trkpt>
      <trkpt lat="46.15382" lon="-1.30983">
        <ele>10.6</ele>
        <time>2020-05-31T21:26:10Z</time>
      </trkpt>
      <trkpt lat="46.15384" lon="-1.30993">
        <ele>10.6</ele>
        <time>2020-05-31T21:26:11Z</time>
      </trkpt>
      <trkpt lat="46.15385" lon="-1.31002">
        <ele>10.6</ele>
        <time>2020-05-31T21:26:12Z</time>
      </trkpt>
      <trkpt lat="46.15387" lon="-1.3101">
        <ele>10.6</ele>
        <time>2020-05-31T21:26:13Z</time>
      </trkpt>
      <trkpt lat="46.15389" lon="-1.31019">
        <ele>10.6</ele>
        <time>2020-05-31T21:26:14Z</time>
      </trkpt>
      <trkpt lat="46.15391" lon="-1.31028">
        <ele>10.6</ele>
        <time>2020-05-31T21:26:15Z</time>
      </trkpt>
      <trkpt lat="46.15393" lon="-1.31036">
        <ele>10.6</ele>
        <time>2020-05-31T21:26:16Z</time>
      </trkpt>
      <trkpt lat="46.15396" lon="-1.31045">
        <ele>10.6</ele>
        <time>2020-05-31T21:26:17Z</time>
      </trkpt>
      <trkpt lat="46.15398" lon="-1.31054">
        <ele>10.7</ele>
        <time>2020-05-31T21:26:18Z</time>
      </trkpt>
      <trkpt lat="46.154" lon="-1.31062">
        <ele>10.7</ele>
        <time>2020-05-31T21:26:19Z</time>
      </trkpt>
      <trkpt lat="46.15402" lon="-1.31071">
        <ele>10.7</ele>
        <time>2020-05-31T21:26:20Z</time>
      </trkpt>
      <trkpt lat="46.15404" lon="-1.3108">
        <ele>10.7</ele>
        <time>2020-05-31T21:26:21Z</time>
      </trkpt>
      <trkpt lat="46.15407" lon="-1.31089">
        <ele>10.7</ele>
        <time>2020-05-31T21:26:22Z</time>
      </trkpt>
      <trkpt lat="46.15409" lon="-1.31098">
        <ele>10.7</ele>
        <time>2020-05-31T21:26:23Z</time>
      </trkpt>
      <trkpt lat="46.15411" lon="-1.31107">
        <ele>10.7</ele>
        <time>2020-05-31T21:26:24Z</time>
      </trkpt>
      <trkpt lat="46.15413" lon="-1.31116">
        <ele>10.7</ele>
        <time>2020-05-31T21:26:25Z</time>
      </trkpt>
      <trkpt lat="46.15414" lon="-1.31126">
        <ele>10.7</ele>
        <time>2020-05-31T21:26:26Z</time>
      </trkpt>
      <trkpt lat="46.15417" lon="-1.31134">
        <ele>10.7</ele>
        <time>2020-05-31T21:26:27Z</time>
      </trkpt>
      <trkpt lat="46.1542" lon="-1.31143">
        <ele>10.7</ele>
        <time>2020-05-31T21:26:28Z</time>
      </trkpt>
      <trkpt lat="46.15421" lon="-1.31152">
        <ele>10.7</ele>
        <time>2020-05-31T21:26:29Z</time>
      </trkpt>
      <trkpt lat="46.15423" lon="-1.31161">
        <ele>10.7</ele>
        <time>2020-05-31T21:26:30Z</time>
      </trkpt>
      <trkpt lat="46.15425" lon="-1.3117">
        <ele>10.7</ele>
        <time>2020-05-31T21:26:31Z</time>
      </trkpt>
      <trkpt lat="46.15427" lon="-1.31179">
        <ele>10.7</ele>
        <time>2020-05-31T21:26:32Z</time>
      </trkpt>
      <trkpt lat="46.15428" lon="-1.31188">
        <ele>10.7</ele>
        <time>2020-05-31T21:26:33Z</time>
      </trkpt>
      <trkpt lat="46.1543" lon="-1.31197">
        <ele>10.7</ele>
        <time>2020-05-31T21:26:34Z</time>
      </trkpt>
      <trkpt lat="46.15432" lon="-1.31203">
        <ele>10.7</ele>
        <time>2020-05-31T21:26:35Z</time>
      </trkpt>
      <trkpt lat="46.15436" lon="-1.31206">
        <ele>10.6</ele>
        <time>2020-05-31T21:26:36Z</time>
      </trkpt>
      <trkpt lat="46.15439" lon="-1.31211">
        <ele>10.6</ele>
        <time>2020-05-31T21:26:37Z</time>
      </trkpt>
      <trkpt lat="46.15442" lon="-1.31217">
        <ele>10.6</ele>
        <time>2020-05-31T21:26:38Z</time>
      </trkpt>
      <trkpt lat="46.15444" lon="-1.31224">
        <ele>10.6</ele>
        <time>2020-05-31T21:26:39Z</time>
      </trkpt>
      <trkpt lat="46.15445" lon="-1.31233">
        <ele>10.6</ele>
        <time>2020-05-31T21:26:40Z</time>
      </trkpt>
      <trkpt lat="46.15445" lon="-1.31242">
        <ele>10.6</ele>
        <time>2020-05-31T21:26:41Z</time>
      </trkpt>
      <trkpt lat="46.15446" lon="-1.3125">
        <ele>10.6</ele>
        <time>2020-05-31T21:26:42Z</time>
      </trkpt>
      <trkpt lat="46.15447" lon="-1.31259">
        <ele>10.6</ele>
        <time>2020-05-31T21:26:43Z</time>
      </trkpt>
      <trkpt lat="46.15448" lon="-1.31268">
        <ele>10.6</ele>
        <time>2020-05-31T21:26:44Z</time>
      </trkpt>
      <trkpt lat="46.15448" lon="-1.31276">
        <ele>10.6</ele>
        <time>2020-05-31T21:26:45Z</time>
      </trkpt>
      <trkpt lat="46.15449" lon="-1.31286">
        <ele>10.6</ele>
        <time>2020-05-31T21:26:46Z</time>
      </trkpt>
      <trkpt lat="46.1545" lon="-1.31295">
        <ele>10.6</ele>
        <time>2020-05-31T21:26:47Z</time>
      </trkpt>
      <trkpt lat="46.15451" lon="-1.31303">
        <ele>10.6</ele>
        <time>2020-05-31T21:26:48Z</time>
      </trkpt>
      <trkpt lat="46.15454" lon="-1.31311">
        <ele>10.5</ele>
        <time>2020-05-31T21:26:49Z</time>
      </trkpt>
      <trkpt lat="46.15457" lon="-1.3132">
        <ele>10.5</ele>
        <time>2020-05-31T21:26:50Z</time>
      </trkpt>
      <trkpt lat="46.1546" lon="-1.31328">
        <ele>10.4</ele>
        <time>2020-05-31T21:26:51Z</time>
      </trkpt>
      <trkpt lat="46.15463" lon="-1.31336">
        <ele>10.3</ele>
        <time>2020-05-31T21:26:52Z</time>
      </trkpt>
      <trkpt lat="46.15467" lon="-1.31344">
        <ele>10.3</ele>
        <time>2020-05-31T21:26:53Z</time>
      </trkpt>
      <trkpt lat="46.15471" lon="-1.31351">
        <ele>10.2</ele>
        <time>2020-05-31T21:26:54Z</time>
      </trkpt>
      <trkpt lat="46.15474" lon="-1.31359">
        <ele>10.2</ele>
        <time>2020-05-31T21:26:55Z</time>
      </trkpt>
      <trkpt lat="46.15478" lon="-1.31367">
        <ele>10.2</ele>
        <time>2020-05-31T21:26:56Z</time>
      </trkpt>
      <trkpt lat="46.15482" lon="-1.31377">
        <ele>10.1</ele>
        <time>2020-05-31T21:26:57Z</time>
      </trkpt>
      <trkpt lat="46.15486" lon="-1.31384">
        <ele>10.1</ele>
        <time>2020-05-31T21:26:58Z</time>
      </trkpt>
      <trkpt lat="46.1549" lon="-1.31393">
        <ele>10</ele>
        <time>2020-05-31T21:26:59Z</time>
      </trkpt>
      <trkpt lat="46.15493" lon="-1.314">
        <ele>10</ele>
        <time>2020-05-31T21:27:00Z</time>
      </trkpt>
      <trkpt lat="46.15497" lon="-1.31408">
        <ele>10</ele>
        <time>2020-05-31T21:27:01Z</time>
      </trkpt>
      <trkpt lat="46.15501" lon="-1.31415">
        <ele>9.9</ele>
        <time>2020-05-31T21:27:02Z</time>
      </trkpt>
      <trkpt lat="46.15504" lon="-1.31423">
        <ele>9.9</ele>
        <time>2020-05-31T21:27:03Z</time>
      </trkpt>
      <trkpt lat="46.15508" lon="-1.3143">
        <ele>10</ele>
        <time>2020-05-31T21:27:04Z</time>
      </trkpt>
      <trkpt lat="46.15512" lon="-1.31437">
        <ele>10</ele>
        <time>2020-05-31T21:27:05Z</time>
      </trkpt>
      <trkpt lat="46.15515" lon="-1.31442">
        <ele>10</ele>
        <time>2020-05-31T21:27:06Z</time>
      </trkpt>
      <trkpt lat="46.15519" lon="-1.31449">
        <ele>10</ele>
        <time>2020-05-31T21:27:07Z</time>
      </trkpt>
      <trkpt lat="46.15523" lon="-1.31455">
        <ele>10</ele>
        <time>2020-05-31T21:27:08Z</time>
      </trkpt>
      <trkpt lat="46.15527" lon="-1.31462">
        <ele>10</ele>
        <time>2020-05-31T21:27:09Z</time>
      </trkpt>
      <trkpt lat="46.15531" lon="-1.31468">
        <ele>10</ele>
        <time>2020-05-31T21:27:10Z</time>
      </trkpt>
      <trkpt lat="46.15534" lon="-1.31478">
        <ele>10.1</ele>
        <time>2020-05-31T21:27:11Z</time>
      </trkpt>
      <trkpt lat="46.15536" lon="-1.31484">
        <ele>10.1</ele>
        <time>2020-05-31T21:27:12Z</time>
      </trkpt>
      <trkpt lat="46.15537" lon="-1.31489">
        <ele>10.1</ele>
        <time>2020-05-31T21:27:13Z</time>
      </trkpt>
      <trkpt lat="46.15539" lon="-1.31493">
        <ele>10.1</ele>
        <time>2020-05-31T21:27:14Z</time>
      </trkpt>
      <trkpt lat="46.15541" lon="-1.31497">
        <ele>10.1</ele>
        <time>2020-05-31T21:27:15Z</time>
      </trkpt>
      <trkpt lat="46.15543" lon="-1.31501">
        <ele>10.1</ele>
        <time>2020-05-31T21:27:16Z</time>
      </trkpt>
      <trkpt lat="46.15547" lon="-1.31504">
        <ele>10.1</ele>
        <time>2020-05-31T21:27:17Z</time>
      </trkpt>
      <trkpt lat="46.15549" lon="-1.31505">
        <ele>10.1</ele>
        <time>2020-05-31T21:27:18Z</time>
      </trkpt>
      <trkpt lat="46.1555" lon="-1.31504">
        <ele>10.1</ele>
        <time>2020-05-31T21:27:19Z</time>
      </trkpt>
      <trkpt lat="46.15553" lon="-1.31508">
        <ele>10.1</ele>
        <time>2020-05-31T21:27:20Z</time>
      </trkpt>
      <trkpt lat="46.15553" lon="-1.31511">
        <ele>10.1</ele>
        <time>2020-05-31T21:27:21Z</time>
      </trkpt>
      <trkpt lat="46.15554" lon="-1.31514">
        <ele>10.1</ele>
        <time>2020-05-31T21:27:22Z</time>
      </trkpt>
      <trkpt lat="46.15555" lon="-1.3152">
        <ele>10.2</ele>
        <time>2020-05-31T21:27:23Z</time>
      </trkpt>
      <trkpt lat="46.15555" lon="-1.31522">
        <ele>10.2</ele>
        <time>2020-05-31T21:27:24Z</time>
      </trkpt>
      <trkpt lat="46.15556" lon="-1.31527">
        <ele>10.2</ele>
        <time>2020-05-31T21:27:25Z</time>
      </trkpt>
      <trkpt lat="46.15557" lon="-1.31534">
        <ele>10.2</ele>
        <time>2020-05-31T21:27:26Z</time>
      </trkpt>
      <trkpt lat="46.15558" lon="-1.3154">
        <ele>10.2</ele>
        <time>2020-05-31T21:27:27Z</time>
      </trkpt>
      <trkpt lat="46.15559" lon="-1.31549">
        <ele>10.2</ele>
        <time>2020-05-31T21:27:28Z</time>
      </trkpt>
      <trkpt lat="46.1556" lon="-1.31553">
        <ele>10.2</ele>
        <time>2020-05-31T21:27:29Z</time>
      </trkpt>
      <trkpt lat="46.15563" lon="-1.31558">
        <ele>10.2</ele>
        <time>2020-05-31T21:27:30Z</time>
      </trkpt>
      <trkpt lat="46.15565" lon="-1.31561">
        <ele>10.2</ele>
        <time>2020-05-31T21:27:31Z</time>
      </trkpt>
      <trkpt lat="46.15567" lon="-1.31565">
        <ele>10.1</ele>
        <time>2020-05-31T21:27:32Z</time>
      </trkpt>
      <trkpt lat="46.1557" lon="-1.3157">
        <ele>10.1</ele>
        <time>2020-05-31T21:27:33Z</time>
      </trkpt>
      <trkpt lat="46.15572" lon="-1.31572">
        <ele>10.1</ele>
        <time>2020-05-31T21:27:34Z</time>
      </trkpt>
      <trkpt lat="46.15574" lon="-1.31577">
        <ele>10.1</ele>
        <time>2020-05-31T21:27:35Z</time>
      </trkpt>
      <trkpt lat="46.15576" lon="-1.31581">
        <ele>10.1</ele>
        <time>2020-05-31T21:27:36Z</time>
      </trkpt>
      <trkpt lat="46.15579" lon="-1.31584">
        <ele>10</ele>
        <time>2020-05-31T21:27:37Z</time>
      </trkpt>
      <trkpt lat="46.15581" lon="-1.31588">
        <ele>10</ele>
        <time>2020-05-31T21:27:38Z</time>
      </trkpt>
      <trkpt lat="46.15583" lon="-1.31591">
        <ele>9.9</ele>
        <time>2020-05-31T21:27:39Z</time>
      </trkpt>
      <trkpt lat="46.15584" lon="-1.31592">
        <ele>9.9</ele>
        <time>2020-05-31T21:27:40Z</time>
      </trkpt>
      <trkpt lat="46.15585" lon="-1.31596">
        <ele>9.8</ele>
        <time>2020-05-31T21:27:41Z</time>
      </trkpt>
      <trkpt lat="46.15586" lon="-1.31597">
        <ele>9.8</ele>
        <time>2020-05-31T21:27:42Z</time>
      </trkpt>
      <trkpt lat="46.15588" lon="-1.31602">
        <ele>9.7</ele>
        <time>2020-05-31T21:27:43Z</time>
      </trkpt>
      <trkpt lat="46.1559" lon="-1.31607">
        <ele>9.7</ele>
        <time>2020-05-31T21:27:44Z</time>
      </trkpt>
      <trkpt lat="46.15592" lon="-1.31611">
        <ele>9.6</ele>
        <time>2020-05-31T21:27:45Z</time>
      </trkpt>
      <trkpt lat="46.15593" lon="-1.31615">
        <ele>9.6</ele>
        <time>2020-05-31T21:27:46Z</time>
      </trkpt>
      <trkpt lat="46.15595" lon="-1.31621">
        <ele>9.5</ele>
        <time>2020-05-31T21:27:47Z</time>
      </trkpt>
      <trkpt lat="46.15596" lon="-1.31624">
        <ele>9.5</ele>
        <time>2020-05-31T21:27:48Z</time>
      </trkpt>
      <trkpt lat="46.15597" lon="-1.31627">
        <ele>9.4</ele>
        <time>2020-05-31T21:27:49Z</time>
      </trkpt>
      <trkpt lat="46.156" lon="-1.31632">
        <ele>9.4</ele>
        <time>2020-05-31T21:27:50Z</time>
      </trkpt>
      <trkpt lat="46.15602" lon="-1.31636">
        <ele>9.4</ele>
        <time>2020-05-31T21:27:51Z</time>
      </trkpt>
      <trkpt lat="46.15605" lon="-1.3164">
        <ele>9.3</ele>
        <time>2020-05-31T21:27:52Z</time>
      </trkpt>
      <trkpt lat="46.15607" lon="-1.31645">
        <ele>9.3</ele>
        <time>2020-05-31T21:27:53Z</time>
      </trkpt>
      <trkpt lat="46.1561" lon="-1.3165">
        <ele>9.3</ele>
        <time>2020-05-31T21:27:54Z</time>
      </trkpt>
      <trkpt lat="46.15613" lon="-1.31656">
        <ele>9.3</ele>
        <time>2020-05-31T21:27:55Z</time>
      </trkpt>
      <trkpt lat="46.15615" lon="-1.31663">
        <ele>9.2</ele>
        <time>2020-05-31T21:27:56Z</time>
      </trkpt>
      <trkpt lat="46.15618" lon="-1.3167">
        <ele>9.2</ele>
        <time>2020-05-31T21:27:57Z</time>
      </trkpt>
      <trkpt lat="46.15622" lon="-1.31679">
        <ele>9.1</ele>
        <time>2020-05-31T21:27:58Z</time>
      </trkpt>
      <trkpt lat="46.15625" lon="-1.31686">
        <ele>9</ele>
        <time>2020-05-31T21:27:59Z</time>
      </trkpt>
      <trkpt lat="46.15627" lon="-1.31692">
        <ele>9</ele>
        <time>2020-05-31T21:28:00Z</time>
      </trkpt>
      <trkpt lat="46.15631" lon="-1.31699">
        <ele>8.9</ele>
        <time>2020-05-31T21:28:01Z</time>
      </trkpt>
      <trkpt lat="46.15633" lon="-1.31705">
        <ele>8.8</ele>
        <time>2020-05-31T21:28:02Z</time>
      </trkpt>
      <trkpt lat="46.15636" lon="-1.31712">
        <ele>8.8</ele>
        <time>2020-05-31T21:28:03Z</time>
      </trkpt>
      <trkpt lat="46.15638" lon="-1.31718">
        <ele>8.7</ele>
        <time>2020-05-31T21:28:04Z</time>
      </trkpt>
      <trkpt lat="46.1564" lon="-1.31725">
        <ele>8.6</ele>
        <time>2020-05-31T21:28:05Z</time>
      </trkpt>
      <trkpt lat="46.15643" lon="-1.31733">
        <ele>8.6</ele>
        <time>2020-05-31T21:28:06Z</time>
      </trkpt>
      <trkpt lat="46.15646" lon="-1.31741">
        <ele>8.5</ele>
        <time>2020-05-31T21:28:07Z</time>
      </trkpt>
      <trkpt lat="46.15649" lon="-1.31748">
        <ele>8.4</ele>
        <time>2020-05-31T21:28:08Z</time>
      </trkpt>
      <trkpt lat="46.15652" lon="-1.31755">
        <ele>8.3</ele>
        <time>2020-05-31T21:28:09Z</time>
      </trkpt>
      <trkpt lat="46.15654" lon="-1.31762">
        <ele>8.3</ele>
        <time>2020-05-31T21:28:10Z</time>
      </trkpt>
      <trkpt lat="46.15657" lon="-1.31769">
        <ele>8.2</ele>
        <time>2020-05-31T21:28:11Z</time>
      </trkpt>
      <trkpt lat="46.15659" lon="-1.31777">
        <ele>8.1</ele>
        <time>2020-05-31T21:28:12Z</time>
      </trkpt>
      <trkpt lat="46.15661" lon="-1.31786">
        <ele>8</ele>
        <time>2020-05-31T21:28:13Z</time>
      </trkpt>
      <trkpt lat="46.15663" lon="-1.31794">
        <ele>7.9</ele>
        <time>2020-05-31T21:28:14Z</time>
      </trkpt>
      <trkpt lat="46.15666" lon="-1.31803">
        <ele>7.8</ele>
        <time>2020-05-31T21:28:15Z</time>
      </trkpt>
      <trkpt lat="46.15669" lon="-1.31811">
        <ele>7.8</ele>
        <time>2020-05-31T21:28:16Z</time>
      </trkpt>
      <trkpt lat="46.15672" lon="-1.3182">
        <ele>7.7</ele>
        <time>2020-05-31T21:28:17Z</time>
      </trkpt>
      <trkpt lat="46.15674" lon="-1.31827">
        <ele>7.7</ele>
        <time>2020-05-31T21:28:18Z</time>
      </trkpt>
      <trkpt lat="46.15677" lon="-1.31835">
        <ele>7.6</ele>
        <time>2020-05-31T21:28:19Z</time>
      </trkpt>
      <trkpt lat="46.15679" lon="-1.31843">
        <ele>7.6</ele>
        <time>2020-05-31T21:28:20Z</time>
      </trkpt>
      <trkpt lat="46.15681" lon="-1.3185">
        <ele>7.6</ele>
        <time>2020-05-31T21:28:21Z</time>
      </trkpt>
      <trkpt lat="46.15684" lon="-1.31859">
        <ele>7.6</ele>
        <time>2020-05-31T21:28:22Z</time>
      </trkpt>
      <trkpt lat="46.15686" lon="-1.31868">
        <ele>7.6</ele>
        <time>2020-05-31T21:28:23Z</time>
      </trkpt>
      <trkpt lat="46.15689" lon="-1.31876">
        <ele>7.6</ele>
        <time>2020-05-31T21:28:24Z</time>
      </trkpt>
      <trkpt lat="46.15691" lon="-1.31885">
        <ele>7.7</ele>
        <time>2020-05-31T21:28:25Z</time>
      </trkpt>
      <trkpt lat="46.15694" lon="-1.31893">
        <ele>7.7</ele>
        <time>2020-05-31T21:28:26Z</time>
      </trkpt>
      <trkpt lat="46.15696" lon="-1.31902">
        <ele>7.7</ele>
        <time>2020-05-31T21:28:27Z</time>
      </trkpt>
      <trkpt lat="46.15698" lon="-1.3191">
        <ele>7.8</ele>
        <time>2020-05-31T21:28:28Z</time>
      </trkpt>
      <trkpt lat="46.15701" lon="-1.31918">
        <ele>7.8</ele>
        <time>2020-05-31T21:28:29Z</time>
      </trkpt>
      <trkpt lat="46.15704" lon="-1.31927">
        <ele>7.9</ele>
        <time>2020-05-31T21:28:30Z</time>
      </trkpt>
      <trkpt lat="46.15706" lon="-1.31935">
        <ele>7.9</ele>
        <time>2020-05-31T21:28:31Z</time>
      </trkpt>
      <trkpt lat="46.15708" lon="-1.31942">
        <ele>7.8</ele>
        <time>2020-05-31T21:28:32Z</time>
      </trkpt>
      <trkpt lat="46.15711" lon="-1.3195">
        <ele>7.8</ele>
        <time>2020-05-31T21:28:33Z</time>
      </trkpt>
      <trkpt lat="46.15714" lon="-1.31957">
        <ele>7.8</ele>
        <time>2020-05-31T21:28:34Z</time>
      </trkpt>
      <trkpt lat="46.15716" lon="-1.31964">
        <ele>7.8</ele>
        <time>2020-05-31T21:28:35Z</time>
      </trkpt>
      <trkpt lat="46.15718" lon="-1.31972">
        <ele>7.8</ele>
        <time>2020-05-31T21:28:36Z</time>
      </trkpt>
      <trkpt lat="46.1572" lon="-1.31979">
        <ele>7.8</ele>
        <time>2020-05-31T21:28:37Z</time>
      </trkpt>
      <trkpt lat="46.15722" lon="-1.31985">
        <ele>7.8</ele>
        <time>2020-05-31T21:28:38Z</time>
      </trkpt>
      <trkpt lat="46.15724" lon="-1.31993">
        <ele>7.8</ele>
        <time>2020-05-31T21:28:39Z</time>
      </trkpt>
      <trkpt lat="46.15726" lon="-1.32">
        <ele>7.8</ele>
        <time>2020-05-31T21:28:40Z</time>
      </trkpt>
      <trkpt lat="46.15728" lon="-1.32008">
        <ele>7.9</ele>
        <time>2020-05-31T21:28:41Z</time>
      </trkpt>
      <trkpt lat="46.15731" lon="-1.32017">
        <ele>7.9</ele>
        <time>2020-05-31T21:28:42Z</time>
      </trkpt>
      <trkpt lat="46.15733" lon="-1.32024">
        <ele>8</ele>
        <time>2020-05-31T21:28:43Z</time>
      </trkpt>
      <trkpt lat="46.15736" lon="-1.32032">
        <ele>8.1</ele>
        <time>2020-05-31T21:28:44Z</time>
      </trkpt>
      <trkpt lat="46.15738" lon="-1.32039">
        <ele>8.2</ele>
        <time>2020-05-31T21:28:45Z</time>
      </trkpt>
      <trkpt lat="46.1574" lon="-1.32046">
        <ele>8.2</ele>
        <time>2020-05-31T21:28:46Z</time>
      </trkpt>
      <trkpt lat="46.15743" lon="-1.32056">
        <ele>8.3</ele>
        <time>2020-05-31T21:28:47Z</time>
      </trkpt>
      <trkpt lat="46.15746" lon="-1.32063">
        <ele>8.2</ele>
        <time>2020-05-31T21:28:48Z</time>
      </trkpt>
      <trkpt lat="46.15749" lon="-1.32072">
        <ele>8.2</ele>
        <time>2020-05-31T21:28:49Z</time>
      </trkpt>
      <trkpt lat="46.15752" lon="-1.3208">
        <ele>8.2</ele>
        <time>2020-05-31T21:28:50Z</time>
      </trkpt>
      <trkpt lat="46.15755" lon="-1.32089">
        <ele>8.2</ele>
        <time>2020-05-31T21:28:51Z</time>
      </trkpt>
      <trkpt lat="46.15757" lon="-1.32097">
        <ele>8.2</ele>
        <time>2020-05-31T21:28:52Z</time>
      </trkpt>
      <trkpt lat="46.1576" lon="-1.32105">
        <ele>8.1</ele>
        <time>2020-05-31T21:28:53Z</time>
      </trkpt>
      <trkpt lat="46.15762" lon="-1.3211">
        <ele>8.1</ele>
        <time>2020-05-31T21:28:54Z</time>
      </trkpt>
      <trkpt lat="46.15766" lon="-1.32116">
        <ele>8.1</ele>
        <time>2020-05-31T21:28:55Z</time>
      </trkpt>
      <trkpt lat="46.15769" lon="-1.32123">
        <ele>8.1</ele>
        <time>2020-05-31T21:28:56Z</time>
      </trkpt>
      <trkpt lat="46.15772" lon="-1.3213">
        <ele>8.1</ele>
        <time>2020-05-31T21:28:57Z</time>
      </trkpt>
      <trkpt lat="46.15775" lon="-1.32138">
        <ele>8</ele>
        <time>2020-05-31T21:28:58Z</time>
      </trkpt>
      <trkpt lat="46.15778" lon="-1.32146">
        <ele>8</ele>
        <time>2020-05-31T21:28:59Z</time>
      </trkpt>
      <trkpt lat="46.1578" lon="-1.32155">
        <ele>8</ele>
        <time>2020-05-31T21:29:00Z</time>
      </trkpt>
      <trkpt lat="46.15782" lon="-1.32164">
        <ele>7.9</ele>
        <time>2020-05-31T21:29:01Z</time>
      </trkpt>
      <trkpt lat="46.15784" lon="-1.32173">
        <ele>7.9</ele>
        <time>2020-05-31T21:29:02Z</time>
      </trkpt>
      <trkpt lat="46.15786" lon="-1.32183">
        <ele>7.8</ele>
        <time>2020-05-31T21:29:03Z</time>
      </trkpt>
      <trkpt lat="46.15787" lon="-1.3219">
        <ele>7.8</ele>
        <time>2020-05-31T21:29:04Z</time>
      </trkpt>
      <trkpt lat="46.15789" lon="-1.32199">
        <ele>7.8</ele>
        <time>2020-05-31T21:29:05Z</time>
      </trkpt>
      <trkpt lat="46.15791" lon="-1.32207">
        <ele>7.7</ele>
        <time>2020-05-31T21:29:06Z</time>
      </trkpt>
      <trkpt lat="46.15793" lon="-1.32216">
        <ele>7.7</ele>
        <time>2020-05-31T21:29:07Z</time>
      </trkpt>
      <trkpt lat="46.15796" lon="-1.32225">
        <ele>7.6</ele>
        <time>2020-05-31T21:29:08Z</time>
      </trkpt>
      <trkpt lat="46.15799" lon="-1.32234">
        <ele>7.7</ele>
        <time>2020-05-31T21:29:09Z</time>
      </trkpt>
      <trkpt lat="46.15802" lon="-1.32242">
        <ele>7.7</ele>
        <time>2020-05-31T21:29:10Z</time>
      </trkpt>
      <trkpt lat="46.15805" lon="-1.32251">
        <ele>7.7</ele>
        <time>2020-05-31T21:29:11Z</time>
      </trkpt>
      <trkpt lat="46.15809" lon="-1.3226">
        <ele>7.7</ele>
        <time>2020-05-31T21:29:12Z</time>
      </trkpt>
      <trkpt lat="46.15811" lon="-1.32268">
        <ele>7.7</ele>
        <time>2020-05-31T21:29:13Z</time>
      </trkpt>
      <trkpt lat="46.15814" lon="-1.32276">
        <ele>7.7</ele>
        <time>2020-05-31T21:29:14Z</time>
      </trkpt>
      <trkpt lat="46.15816" lon="-1.32285">
        <ele>7.7</ele>
        <time>2020-05-31T21:29:15Z</time>
      </trkpt>
      <trkpt lat="46.15819" lon="-1.32293">
        <ele>7.6</ele>
        <time>2020-05-31T21:29:16Z</time>
      </trkpt>
      <trkpt lat="46.15821" lon="-1.32301">
        <ele>7.5</ele>
        <time>2020-05-31T21:29:17Z</time>
      </trkpt>
      <trkpt lat="46.15824" lon="-1.32309">
        <ele>7.5</ele>
        <time>2020-05-31T21:29:18Z</time>
      </trkpt>
      <trkpt lat="46.15828" lon="-1.32318">
        <ele>7.4</ele>
        <time>2020-05-31T21:29:19Z</time>
      </trkpt>
      <trkpt lat="46.15831" lon="-1.32327">
        <ele>7.3</ele>
        <time>2020-05-31T21:29:20Z</time>
      </trkpt>
      <trkpt lat="46.15834" lon="-1.32335">
        <ele>7.3</ele>
        <time>2020-05-31T21:29:21Z</time>
      </trkpt>
      <trkpt lat="46.15837" lon="-1.32343">
        <ele>7.3</ele>
        <time>2020-05-31T21:29:22Z</time>
      </trkpt>
      <trkpt lat="46.1584" lon="-1.3235">
        <ele>7.3</ele>
        <time>2020-05-31T21:29:23Z</time>
      </trkpt>
      <trkpt lat="46.15844" lon="-1.32357">
        <ele>7.3</ele>
        <time>2020-05-31T21:29:24Z</time>
      </trkpt>
      <trkpt lat="46.15849" lon="-1.32365">
        <ele>7.3</ele>
        <time>2020-05-31T21:29:25Z</time>
      </trkpt>
      <trkpt lat="46.15854" lon="-1.32371">
        <ele>7.3</ele>
        <time>2020-05-31T21:29:26Z</time>
      </trkpt>
      <trkpt lat="46.15859" lon="-1.32377">
        <ele>7.3</ele>
        <time>2020-05-31T21:29:27Z</time>
      </trkpt>
      <trkpt lat="46.15864" lon="-1.32382">
        <ele>7.4</ele>
        <time>2020-05-31T21:29:28Z</time>
      </trkpt>
      <trkpt lat="46.15868" lon="-1.32388">
        <ele>7.5</ele>
        <time>2020-05-31T21:29:29Z</time>
      </trkpt>
      <trkpt lat="46.15873" lon="-1.32393">
        <ele>7.6</ele>
        <time>2020-05-31T21:29:30Z</time>
      </trkpt>
      <trkpt lat="46.15877" lon="-1.32398">
        <ele>7.6</ele>
        <time>2020-05-31T21:29:31Z</time>
      </trkpt>
      <trkpt lat="46.15881" lon="-1.32403">
        <ele>7.7</ele>
        <time>2020-05-31T21:29:32Z</time>
      </trkpt>
      <trkpt lat="46.15885" lon="-1.32408">
        <ele>7.7</ele>
        <time>2020-05-31T21:29:33Z</time>
      </trkpt>
      <trkpt lat="46.15888" lon="-1.32416">
        <ele>7.8</ele>
        <time>2020-05-31T21:29:34Z</time>
      </trkpt>
      <trkpt lat="46.1589" lon="-1.32423">
        <ele>7.8</ele>
        <time>2020-05-31T21:29:35Z</time>
      </trkpt>
      <trkpt lat="46.15891" lon="-1.32432">
        <ele>7.9</ele>
        <time>2020-05-31T21:29:36Z</time>
      </trkpt>
      <trkpt lat="46.15893" lon="-1.32439">
        <ele>7.9</ele>
        <time>2020-05-31T21:29:37Z</time>
      </trkpt>
      <trkpt lat="46.15893" lon="-1.32447">
        <ele>7.9</ele>
        <time>2020-05-31T21:29:38Z</time>
      </trkpt>
      <trkpt lat="46.15894" lon="-1.32454">
        <ele>8</ele>
        <time>2020-05-31T21:29:39Z</time>
      </trkpt>
      <trkpt lat="46.15894" lon="-1.32461">
        <ele>8</ele>
        <time>2020-05-31T21:29:40Z</time>
      </trkpt>
      <trkpt lat="46.15894" lon="-1.32468">
        <ele>8</ele>
        <time>2020-05-31T21:29:41Z</time>
      </trkpt>
      <trkpt lat="46.15893" lon="-1.32478">
        <ele>8</ele>
        <time>2020-05-31T21:29:42Z</time>
      </trkpt>
      <trkpt lat="46.15892" lon="-1.32487">
        <ele>8</ele>
        <time>2020-05-31T21:29:43Z</time>
      </trkpt>
      <trkpt lat="46.15891" lon="-1.32495">
        <ele>8</ele>
        <time>2020-05-31T21:29:44Z</time>
      </trkpt>
      <trkpt lat="46.15892" lon="-1.32503">
        <ele>8</ele>
        <time>2020-05-31T21:29:45Z</time>
      </trkpt>
      <trkpt lat="46.15893" lon="-1.3251">
        <ele>8</ele>
        <time>2020-05-31T21:29:46Z</time>
      </trkpt>
      <trkpt lat="46.15894" lon="-1.32518">
        <ele>8.1</ele>
        <time>2020-05-31T21:29:47Z</time>
      </trkpt>
      <trkpt lat="46.15897" lon="-1.32527">
        <ele>8.1</ele>
        <time>2020-05-31T21:29:48Z</time>
      </trkpt>
      <trkpt lat="46.15899" lon="-1.32535">
        <ele>8.1</ele>
        <time>2020-05-31T21:29:49Z</time>
      </trkpt>
      <trkpt lat="46.15902" lon="-1.32542">
        <ele>8.1</ele>
        <time>2020-05-31T21:29:50Z</time>
      </trkpt>
      <trkpt lat="46.15904" lon="-1.32548">
        <ele>8.1</ele>
        <time>2020-05-31T21:29:51Z</time>
      </trkpt>
      <trkpt lat="46.15906" lon="-1.32555">
        <ele>8.1</ele>
        <time>2020-05-31T21:29:52Z</time>
      </trkpt>
      <trkpt lat="46.15908" lon="-1.32562">
        <ele>8.1</ele>
        <time>2020-05-31T21:29:53Z</time>
      </trkpt>
      <trkpt lat="46.1591" lon="-1.3257">
        <ele>8</ele>
        <time>2020-05-31T21:29:54Z</time>
      </trkpt>
      <trkpt lat="46.15913" lon="-1.32577">
        <ele>8</ele>
        <time>2020-05-31T21:29:55Z</time>
      </trkpt>
      <trkpt lat="46.15915" lon="-1.32583">
        <ele>8</ele>
        <time>2020-05-31T21:29:56Z</time>
      </trkpt>
      <trkpt lat="46.15917" lon="-1.32592">
        <ele>8</ele>
        <time>2020-05-31T21:29:57Z</time>
      </trkpt>
      <trkpt lat="46.15919" lon="-1.326">
        <ele>8</ele>
        <time>2020-05-31T21:29:58Z</time>
      </trkpt>
      <trkpt lat="46.15921" lon="-1.32608">
        <ele>8</ele>
        <time>2020-05-31T21:29:59Z</time>
      </trkpt>
      <trkpt lat="46.15924" lon="-1.32618">
        <ele>8</ele>
        <time>2020-05-31T21:30:00Z</time>
      </trkpt>
      <trkpt lat="46.15925" lon="-1.32627">
        <ele>8</ele>
        <time>2020-05-31T21:30:01Z</time>
      </trkpt>
      <trkpt lat="46.15929" lon="-1.32636">
        <ele>8</ele>
        <time>2020-05-31T21:30:02Z</time>
      </trkpt>
      <trkpt lat="46.15931" lon="-1.32644">
        <ele>7.9</ele>
        <time>2020-05-31T21:30:03Z</time>
      </trkpt>
      <trkpt lat="46.15934" lon="-1.32654">
        <ele>7.9</ele>
        <time>2020-05-31T21:30:04Z</time>
      </trkpt>
      <trkpt lat="46.15936" lon="-1.32659">
        <ele>7.9</ele>
        <time>2020-05-31T21:30:05Z</time>
      </trkpt>
      <trkpt lat="46.1594" lon="-1.32668">
        <ele>7.9</ele>
        <time>2020-05-31T21:30:06Z</time>
      </trkpt>
      <trkpt lat="46.15942" lon="-1.32673">
        <ele>7.8</ele>
        <time>2020-05-31T21:30:07Z</time>
      </trkpt>
      <trkpt lat="46.15945" lon="-1.32681">
        <ele>7.8</ele>
        <time>2020-05-31T21:30:08Z</time>
      </trkpt>
      <trkpt lat="46.15947" lon="-1.32687">
        <ele>7.7</ele>
        <time>2020-05-31T21:30:09Z</time>
      </trkpt>
      <trkpt lat="46.15949" lon="-1.32696">
        <ele>7.7</ele>
        <time>2020-05-31T21:30:10Z</time>
      </trkpt>
      <trkpt lat="46.15952" lon="-1.32704">
        <ele>7.6</ele>
        <time>2020-05-31T21:30:11Z</time>
      </trkpt>
      <trkpt lat="46.15953" lon="-1.32712">
        <ele>7.5</ele>
        <time>2020-05-31T21:30:12Z</time>
      </trkpt>
      <trkpt lat="46.15956" lon="-1.32718">
        <ele>7.5</ele>
        <time>2020-05-31T21:30:13Z</time>
      </trkpt>
      <trkpt lat="46.15959" lon="-1.32727">
        <ele>7.4</ele>
        <time>2020-05-31T21:30:14Z</time>
      </trkpt>
      <trkpt lat="46.15961" lon="-1.32735">
        <ele>7.3</ele>
        <time>2020-05-31T21:30:15Z</time>
      </trkpt>
      <trkpt lat="46.15964" lon="-1.32743">
        <ele>7.2</ele>
        <time>2020-05-31T21:30:16Z</time>
      </trkpt>
      <trkpt lat="46.15966" lon="-1.32752">
        <ele>7.1</ele>
        <time>2020-05-31T21:30:17Z</time>
      </trkpt>
      <trkpt lat="46.15968" lon="-1.3276">
        <ele>7</ele>
        <time>2020-05-31T21:30:18Z</time>
      </trkpt>
      <trkpt lat="46.1597" lon="-1.32768">
        <ele>6.9</ele>
        <time>2020-05-31T21:30:19Z</time>
      </trkpt>
      <trkpt lat="46.15972" lon="-1.32776">
        <ele>6.8</ele>
        <time>2020-05-31T21:30:20Z</time>
      </trkpt>
      <trkpt lat="46.15974" lon="-1.32786">
        <ele>6.7</ele>
        <time>2020-05-31T21:30:21Z</time>
      </trkpt>
      <trkpt lat="46.15976" lon="-1.32796">
        <ele>6.6</ele>
        <time>2020-05-31T21:30:22Z</time>
      </trkpt>
      <trkpt lat="46.15978" lon="-1.32803">
        <ele>6.5</ele>
        <time>2020-05-31T21:30:23Z</time>
      </trkpt>
      <trkpt lat="46.1598" lon="-1.32811">
        <ele>6.5</ele>
        <time>2020-05-31T21:30:24Z</time>
      </trkpt>
      <trkpt lat="46.15982" lon="-1.3282">
        <ele>6.4</ele>
        <time>2020-05-31T21:30:25Z</time>
      </trkpt>
      <trkpt lat="46.15984" lon="-1.32829">
        <ele>6.3</ele>
        <time>2020-05-31T21:30:26Z</time>
      </trkpt>
      <trkpt lat="46.15986" lon="-1.32838">
        <ele>6.2</ele>
        <time>2020-05-31T21:30:27Z</time>
      </trkpt>
      <trkpt lat="46.15987" lon="-1.32847">
        <ele>6</ele>
        <time>2020-05-31T21:30:28Z</time>
      </trkpt>
      <trkpt lat="46.15988" lon="-1.32856">
        <ele>5.9</ele>
        <time>2020-05-31T21:30:29Z</time>
      </trkpt>
      <trkpt lat="46.1599" lon="-1.32864">
        <ele>5.9</ele>
        <time>2020-05-31T21:30:30Z</time>
      </trkpt>
      <trkpt lat="46.15991" lon="-1.32873">
        <ele>5.8</ele>
        <time>2020-05-31T21:30:31Z</time>
      </trkpt>
      <trkpt lat="46.15992" lon="-1.32882">
        <ele>5.7</ele>
        <time>2020-05-31T21:30:32Z</time>
      </trkpt>
      <trkpt lat="46.15993" lon="-1.3289">
        <ele>5.7</ele>
        <time>2020-05-31T21:30:33Z</time>
      </trkpt>
      <trkpt lat="46.15994" lon="-1.32899">
        <ele>5.7</ele>
        <time>2020-05-31T21:30:34Z</time>
      </trkpt>
      <trkpt lat="46.15994" lon="-1.32909">
        <ele>5.7</ele>
        <time>2020-05-31T21:30:35Z</time>
      </trkpt>
      <trkpt lat="46.15995" lon="-1.32917">
        <ele>5.7</ele>
        <time>2020-05-31T21:30:36Z</time>
      </trkpt>
      <trkpt lat="46.15995" lon="-1.32926">
        <ele>5.6</ele>
        <time>2020-05-31T21:30:37Z</time>
      </trkpt>
      <trkpt lat="46.15996" lon="-1.32935">
        <ele>5.6</ele>
        <time>2020-05-31T21:30:38Z</time>
      </trkpt>
      <trkpt lat="46.15997" lon="-1.32945">
        <ele>5.5</ele>
        <time>2020-05-31T21:30:39Z</time>
      </trkpt>
      <trkpt lat="46.15998" lon="-1.32954">
        <ele>5.4</ele>
        <time>2020-05-31T21:30:40Z</time>
      </trkpt>
      <trkpt lat="46.15998" lon="-1.32964">
        <ele>5.3</ele>
        <time>2020-05-31T21:30:41Z</time>
      </trkpt>
      <trkpt lat="46.15999" lon="-1.32973">
        <ele>5.2</ele>
        <time>2020-05-31T21:30:42Z</time>
      </trkpt>
      <trkpt lat="46.15999" lon="-1.32982">
        <ele>5.1</ele>
        <time>2020-05-31T21:30:43Z</time>
      </trkpt>
      <trkpt lat="46.15999" lon="-1.32991">
        <ele>5</ele>
        <time>2020-05-31T21:30:44Z</time>
      </trkpt>
      <trkpt lat="46.15999" lon="-1.33001">
        <ele>4.9</ele>
        <time>2020-05-31T21:30:45Z</time>
      </trkpt>
      <trkpt lat="46.15999" lon="-1.3301">
        <ele>4.9</ele>
        <time>2020-05-31T21:30:46Z</time>
      </trkpt>
      <trkpt lat="46.15999" lon="-1.33019">
        <ele>4.8</ele>
        <time>2020-05-31T21:30:47Z</time>
      </trkpt>
      <trkpt lat="46.15999" lon="-1.33028">
        <ele>4.8</ele>
        <time>2020-05-31T21:30:48Z</time>
      </trkpt>
      <trkpt lat="46.15998" lon="-1.33037">
        <ele>4.7</ele>
        <time>2020-05-31T21:30:49Z</time>
      </trkpt>
      <trkpt lat="46.15998" lon="-1.33046">
        <ele>4.7</ele>
        <time>2020-05-31T21:30:50Z</time>
      </trkpt>
      <trkpt lat="46.15997" lon="-1.33055">
        <ele>4.6</ele>
        <time>2020-05-31T21:30:51Z</time>
      </trkpt>
      <trkpt lat="46.15996" lon="-1.33064">
        <ele>4.6</ele>
        <time>2020-05-31T21:30:52Z</time>
      </trkpt>
      <trkpt lat="46.15996" lon="-1.33073">
        <ele>4.5</ele>
        <time>2020-05-31T21:30:53Z</time>
      </trkpt>
      <trkpt lat="46.15995" lon="-1.33082">
        <ele>4.4</ele>
        <time>2020-05-31T21:30:54Z</time>
      </trkpt>
      <trkpt lat="46.15994" lon="-1.33091">
        <ele>4.3</ele>
        <time>2020-05-31T21:30:55Z</time>
      </trkpt>
      <trkpt lat="46.15994" lon="-1.331">
        <ele>4.2</ele>
        <time>2020-05-31T21:30:56Z</time>
      </trkpt>
      <trkpt lat="46.15993" lon="-1.33109">
        <ele>4.1</ele>
        <time>2020-05-31T21:30:57Z</time>
      </trkpt>
      <trkpt lat="46.15993" lon="-1.33117">
        <ele>4</ele>
        <time>2020-05-31T21:30:58Z</time>
      </trkpt>
      <trkpt lat="46.15992" lon="-1.33125">
        <ele>4</ele>
        <time>2020-05-31T21:30:59Z</time>
      </trkpt>
      <trkpt lat="46.15991" lon="-1.33133">
        <ele>3.9</ele>
        <time>2020-05-31T21:31:00Z</time>
      </trkpt>
      <trkpt lat="46.15991" lon="-1.33141">
        <ele>3.9</ele>
        <time>2020-05-31T21:31:01Z</time>
      </trkpt>
      <trkpt lat="46.15991" lon="-1.33147">
        <ele>3.9</ele>
        <time>2020-05-31T21:31:02Z</time>
      </trkpt>
      <trkpt lat="46.15991" lon="-1.33155">
        <ele>3.9</ele>
        <time>2020-05-31T21:31:03Z</time>
      </trkpt>
      <trkpt lat="46.15992" lon="-1.33159">
        <ele>3.9</ele>
        <time>2020-05-31T21:31:04Z</time>
      </trkpt>
      <trkpt lat="46.15994" lon="-1.33162">
        <ele>3.9</ele>
        <time>2020-05-31T21:31:05Z</time>
      </trkpt>
      <trkpt lat="46.15997" lon="-1.33163">
        <ele>3.9</ele>
        <time>2020-05-31T21:31:06Z</time>
      </trkpt>
      <trkpt lat="46.15998" lon="-1.33165">
        <ele>4</ele>
        <time>2020-05-31T21:31:07Z</time>
      </trkpt>
      <trkpt lat="46.15998" lon="-1.3317">
        <ele>4</ele>
        <time>2020-05-31T21:31:08Z</time>
      </trkpt>
      <trkpt lat="46.15998" lon="-1.33172">
        <ele>4</ele>
        <time>2020-05-31T21:31:09Z</time>
      </trkpt>
      <trkpt lat="46.15999" lon="-1.33178">
        <ele>4</ele>
        <time>2020-05-31T21:31:10Z</time>
      </trkpt>
      <trkpt lat="46.15999" lon="-1.33183">
        <ele>4</ele>
        <time>2020-05-31T21:31:11Z</time>
      </trkpt>
      <trkpt lat="46.15998" lon="-1.33188">
        <ele>4</ele>
        <time>2020-05-31T21:31:12Z</time>
      </trkpt>
      <trkpt lat="46.15997" lon="-1.33194">
        <ele>4.1</ele>
        <time>2020-05-31T21:31:13Z</time>
      </trkpt>
      <trkpt lat="46.15995" lon="-1.33198">
        <ele>4.1</ele>
        <time>2020-05-31T21:31:14Z</time>
      </trkpt>
      <trkpt lat="46.15993" lon="-1.33204">
        <ele>4.1</ele>
        <time>2020-05-31T21:31:15Z</time>
      </trkpt>
      <trkpt lat="46.15989" lon="-1.33208">
        <ele>4.2</ele>
        <time>2020-05-31T21:31:16Z</time>
      </trkpt>
      <trkpt lat="46.15985" lon="-1.33212">
        <ele>4.2</ele>
        <time>2020-05-31T21:31:17Z</time>
      </trkpt>
      <trkpt lat="46.15981" lon="-1.33217">
        <ele>4.3</ele>
        <time>2020-05-31T21:31:18Z</time>
      </trkpt>
      <trkpt lat="46.15978" lon="-1.33223">
        <ele>4.3</ele>
        <time>2020-05-31T21:31:19Z</time>
      </trkpt>
      <trkpt lat="46.15977" lon="-1.33231">
        <ele>4.3</ele>
        <time>2020-05-31T21:31:20Z</time>
      </trkpt>
      <trkpt lat="46.15976" lon="-1.33238">
        <ele>4.3</ele>
        <time>2020-05-31T21:31:21Z</time>
      </trkpt>
      <trkpt lat="46.15974" lon="-1.33245">
        <ele>4.3</ele>
        <time>2020-05-31T21:31:22Z</time>
      </trkpt>
      <trkpt lat="46.15972" lon="-1.33252">
        <ele>4.3</ele>
        <time>2020-05-31T21:31:23Z</time>
      </trkpt>
      <trkpt lat="46.15971" lon="-1.33258">
        <ele>4.3</ele>
        <time>2020-05-31T21:31:24Z</time>
      </trkpt>
      <trkpt lat="46.1597" lon="-1.33264">
        <ele>4.3</ele>
        <time>2020-05-31T21:31:25Z</time>
      </trkpt>
      <trkpt lat="46.15969" lon="-1.33272">
        <ele>4.3</ele>
        <time>2020-05-31T21:31:26Z</time>
      </trkpt>
      <trkpt lat="46.15967" lon="-1.33279">
        <ele>4.3</ele>
        <time>2020-05-31T21:31:27Z</time>
      </trkpt>
      <trkpt lat="46.15966" lon="-1.33287">
        <ele>4.4</ele>
        <time>2020-05-31T21:31:28Z</time>
      </trkpt>
      <trkpt lat="46.15965" lon="-1.33295">
        <ele>4.4</ele>
        <time>2020-05-31T21:31:29Z</time>
      </trkpt>
      <trkpt lat="46.15965" lon="-1.33303">
        <ele>4.5</ele>
        <time>2020-05-31T21:31:30Z</time>
      </trkpt>
      <trkpt lat="46.15964" lon="-1.33311">
        <ele>4.5</ele>
        <time>2020-05-31T21:31:31Z</time>
      </trkpt>
      <trkpt lat="46.15961" lon="-1.33317">
        <ele>4.6</ele>
        <time>2020-05-31T21:31:32Z</time>
      </trkpt>
      <trkpt lat="46.15959" lon="-1.33325">
        <ele>4.6</ele>
        <time>2020-05-31T21:31:33Z</time>
      </trkpt>
      <trkpt lat="46.15958" lon="-1.33332">
        <ele>4.6</ele>
        <time>2020-05-31T21:31:34Z</time>
      </trkpt>
      <trkpt lat="46.15956" lon="-1.33341">
        <ele>4.6</ele>
        <time>2020-05-31T21:31:35Z</time>
      </trkpt>
      <trkpt lat="46.15954" lon="-1.33349">
        <ele>4.7</ele>
        <time>2020-05-31T21:31:36Z</time>
      </trkpt>
      <trkpt lat="46.15953" lon="-1.33357">
        <ele>4.7</ele>
        <time>2020-05-31T21:31:37Z</time>
      </trkpt>
      <trkpt lat="46.15952" lon="-1.33365">
        <ele>4.8</ele>
        <time>2020-05-31T21:31:38Z</time>
      </trkpt>
      <trkpt lat="46.15952" lon="-1.33371">
        <ele>4.8</ele>
        <time>2020-05-31T21:31:39Z</time>
      </trkpt>
      <trkpt lat="46.15951" lon="-1.33378">
        <ele>4.9</ele>
        <time>2020-05-31T21:31:40Z</time>
      </trkpt>
      <trkpt lat="46.15951" lon="-1.33386">
        <ele>5</ele>
        <time>2020-05-31T21:31:41Z</time>
      </trkpt>
      <trkpt lat="46.1595" lon="-1.33393">
        <ele>5.1</ele>
        <time>2020-05-31T21:31:42Z</time>
      </trkpt>
      <trkpt lat="46.15951" lon="-1.334">
        <ele>5.2</ele>
        <time>2020-05-31T21:31:43Z</time>
      </trkpt>
      <trkpt lat="46.15951" lon="-1.33407">
        <ele>5.3</ele>
        <time>2020-05-31T21:31:44Z</time>
      </trkpt>
      <trkpt lat="46.15951" lon="-1.33415">
        <ele>5.5</ele>
        <time>2020-05-31T21:31:45Z</time>
      </trkpt>
      <trkpt lat="46.15951" lon="-1.33423">
        <ele>5.6</ele>
        <time>2020-05-31T21:31:46Z</time>
      </trkpt>
      <trkpt lat="46.15951" lon="-1.3343">
        <ele>5.8</ele>
        <time>2020-05-31T21:31:47Z</time>
      </trkpt>
      <trkpt lat="46.15951" lon="-1.33437">
        <ele>5.9</ele>
        <time>2020-05-31T21:31:48Z</time>
      </trkpt>
      <trkpt lat="46.15951" lon="-1.33445">
        <ele>6</ele>
        <time>2020-05-31T21:31:49Z</time>
      </trkpt>
      <trkpt lat="46.15951" lon="-1.33452">
        <ele>6.1</ele>
        <time>2020-05-31T21:31:50Z</time>
      </trkpt>
      <trkpt lat="46.15952" lon="-1.33459">
        <ele>6.3</ele>
        <time>2020-05-31T21:31:51Z</time>
      </trkpt>
      <trkpt lat="46.15953" lon="-1.33466">
        <ele>6.4</ele>
        <time>2020-05-31T21:31:52Z</time>
      </trkpt>
      <trkpt lat="46.15954" lon="-1.33471">
        <ele>6.5</ele>
        <time>2020-05-31T21:31:53Z</time>
      </trkpt>
      <trkpt lat="46.15954" lon="-1.33477">
        <ele>6.6</ele>
        <time>2020-05-31T21:31:54Z</time>
      </trkpt>
      <trkpt lat="46.15955" lon="-1.33485">
        <ele>6.7</ele>
        <time>2020-05-31T21:31:55Z</time>
      </trkpt>
      <trkpt lat="46.15955" lon="-1.33492">
        <ele>6.8</ele>
        <time>2020-05-31T21:31:56Z</time>
      </trkpt>
      <trkpt lat="46.15955" lon="-1.33497">
        <ele>6.9</ele>
        <time>2020-05-31T21:31:57Z</time>
      </trkpt>
      <trkpt lat="46.15957" lon="-1.33504">
        <ele>7</ele>
        <time>2020-05-31T21:31:58Z</time>
      </trkpt>
      <trkpt lat="46.15957" lon="-1.33509">
        <ele>7.1</ele>
        <time>2020-05-31T21:31:59Z</time>
      </trkpt>
      <trkpt lat="46.15959" lon="-1.33517">
        <ele>7.2</ele>
        <time>2020-05-31T21:32:00Z</time>
      </trkpt>
      <trkpt lat="46.15959" lon="-1.33522">
        <ele>7.2</ele>
        <time>2020-05-31T21:32:01Z</time>
      </trkpt>
      <trkpt lat="46.1596" lon="-1.33529">
        <ele>7.3</ele>
        <time>2020-05-31T21:32:02Z</time>
      </trkpt>
      <trkpt lat="46.15961" lon="-1.33535">
        <ele>7.3</ele>
        <time>2020-05-31T21:32:03Z</time>
      </trkpt>
      <trkpt lat="46.15962" lon="-1.33542">
        <ele>7.3</ele>
        <time>2020-05-31T21:32:04Z</time>
      </trkpt>
      <trkpt lat="46.15962" lon="-1.33547">
        <ele>7.4</ele>
        <time>2020-05-31T21:32:05Z</time>
      </trkpt>
      <trkpt lat="46.15963" lon="-1.33553">
        <ele>7.4</ele>
        <time>2020-05-31T21:32:06Z</time>
      </trkpt>
      <trkpt lat="46.15964" lon="-1.3356">
        <ele>7.5</ele>
        <time>2020-05-31T21:32:07Z</time>
      </trkpt>
      <trkpt lat="46.15965" lon="-1.33568">
        <ele>7.6</ele>
        <time>2020-05-31T21:32:08Z</time>
      </trkpt>
      <trkpt lat="46.15965" lon="-1.33574">
        <ele>7.7</ele>
        <time>2020-05-31T21:32:09Z</time>
      </trkpt>
      <trkpt lat="46.15966" lon="-1.33579">
        <ele>7.7</ele>
        <time>2020-05-31T21:32:10Z</time>
      </trkpt>
      <trkpt lat="46.15967" lon="-1.33586">
        <ele>7.8</ele>
        <time>2020-05-31T21:32:11Z</time>
      </trkpt>
      <trkpt lat="46.15968" lon="-1.33592">
        <ele>7.9</ele>
        <time>2020-05-31T21:32:12Z</time>
      </trkpt>
      <trkpt lat="46.15968" lon="-1.33599">
        <ele>8</ele>
        <time>2020-05-31T21:32:13Z</time>
      </trkpt>
      <trkpt lat="46.1597" lon="-1.33606">
        <ele>8.1</ele>
        <time>2020-05-31T21:32:14Z</time>
      </trkpt>
      <trkpt lat="46.15971" lon="-1.33612">
        <ele>8.1</ele>
        <time>2020-05-31T21:32:15Z</time>
      </trkpt>
      <trkpt lat="46.15972" lon="-1.3362">
        <ele>8.1</ele>
        <time>2020-05-31T21:32:16Z</time>
      </trkpt>
      <trkpt lat="46.15973" lon="-1.33626">
        <ele>8.2</ele>
        <time>2020-05-31T21:32:17Z</time>
      </trkpt>
      <trkpt lat="46.15974" lon="-1.33634">
        <ele>8.2</ele>
        <time>2020-05-31T21:32:18Z</time>
      </trkpt>
      <trkpt lat="46.15975" lon="-1.33642">
        <ele>8.3</ele>
        <time>2020-05-31T21:32:19Z</time>
      </trkpt>
      <trkpt lat="46.15975" lon="-1.33648">
        <ele>8.3</ele>
        <time>2020-05-31T21:32:20Z</time>
      </trkpt>
      <trkpt lat="46.15976" lon="-1.33655">
        <ele>8.4</ele>
        <time>2020-05-31T21:32:21Z</time>
      </trkpt>
      <trkpt lat="46.15977" lon="-1.33662">
        <ele>8.4</ele>
        <time>2020-05-31T21:32:22Z</time>
      </trkpt>
      <trkpt lat="46.15978" lon="-1.3367">
        <ele>8.5</ele>
        <time>2020-05-31T21:32:23Z</time>
      </trkpt>
      <trkpt lat="46.15979" lon="-1.33677">
        <ele>8.5</ele>
        <time>2020-05-31T21:32:24Z</time>
      </trkpt>
      <trkpt lat="46.15979" lon="-1.33685">
        <ele>8.6</ele>
        <time>2020-05-31T21:32:25Z</time>
      </trkpt>
      <trkpt lat="46.1598" lon="-1.33692">
        <ele>8.6</ele>
        <time>2020-05-31T21:32:26Z</time>
      </trkpt>
      <trkpt lat="46.15982" lon="-1.33699">
        <ele>8.7</ele>
        <time>2020-05-31T21:32:27Z</time>
      </trkpt>
      <trkpt lat="46.15982" lon="-1.33705">
        <ele>8.7</ele>
        <time>2020-05-31T21:32:28Z</time>
      </trkpt>
      <trkpt lat="46.15983" lon="-1.33713">
        <ele>8.8</ele>
        <time>2020-05-31T21:32:29Z</time>
      </trkpt>
      <trkpt lat="46.15984" lon="-1.3372">
        <ele>8.8</ele>
        <time>2020-05-31T21:32:30Z</time>
      </trkpt>
      <trkpt lat="46.15985" lon="-1.33727">
        <ele>8.8</ele>
        <time>2020-05-31T21:32:31Z</time>
      </trkpt>
      <trkpt lat="46.15986" lon="-1.33734">
        <ele>8.8</ele>
        <time>2020-05-31T21:32:32Z</time>
      </trkpt>
      <trkpt lat="46.15988" lon="-1.33741">
        <ele>8.8</ele>
        <time>2020-05-31T21:32:33Z</time>
      </trkpt>
      <trkpt lat="46.15989" lon="-1.33748">
        <ele>8.9</ele>
        <time>2020-05-31T21:32:34Z</time>
      </trkpt>
      <trkpt lat="46.1599" lon="-1.33755">
        <ele>8.9</ele>
        <time>2020-05-31T21:32:35Z</time>
      </trkpt>
      <trkpt lat="46.15991" lon="-1.33762">
        <ele>8.9</ele>
        <time>2020-05-31T21:32:36Z</time>
      </trkpt>
      <trkpt lat="46.15992" lon="-1.33768">
        <ele>8.9</ele>
        <time>2020-05-31T21:32:37Z</time>
      </trkpt>
      <trkpt lat="46.15993" lon="-1.33775">
        <ele>8.9</ele>
        <time>2020-05-31T21:32:38Z</time>
      </trkpt>
      <trkpt lat="46.15994" lon="-1.33783">
        <ele>8.9</ele>
        <time>2020-05-31T21:32:39Z</time>
      </trkpt>
      <trkpt lat="46.15995" lon="-1.3379">
        <ele>8.9</ele>
        <time>2020-05-31T21:32:40Z</time>
      </trkpt>
      <trkpt lat="46.15996" lon="-1.33796">
        <ele>8.9</ele>
        <time>2020-05-31T21:32:41Z</time>
      </trkpt>
      <trkpt lat="46.15997" lon="-1.33803">
        <ele>8.9</ele>
        <time>2020-05-31T21:32:42Z</time>
      </trkpt>
      <trkpt lat="46.15998" lon="-1.33809">
        <ele>8.9</ele>
        <time>2020-05-31T21:32:43Z</time>
      </trkpt>
      <trkpt lat="46.15999" lon="-1.33816">
        <ele>9</ele>
        <time>2020-05-31T21:32:44Z</time>
      </trkpt>
      <trkpt lat="46.16" lon="-1.33824">
        <ele>9</ele>
        <time>2020-05-31T21:32:45Z</time>
      </trkpt>
      <trkpt lat="46.16001" lon="-1.33832">
        <ele>9.1</ele>
        <time>2020-05-31T21:32:46Z</time>
      </trkpt>
      <trkpt lat="46.16002" lon="-1.3384">
        <ele>9.1</ele>
        <time>2020-05-31T21:32:47Z</time>
      </trkpt>
      <trkpt lat="46.16003" lon="-1.33846">
        <ele>9.2</ele>
        <time>2020-05-31T21:32:48Z</time>
      </trkpt>
      <trkpt lat="46.16003" lon="-1.33853">
        <ele>9.3</ele>
        <time>2020-05-31T21:32:49Z</time>
      </trkpt>
      <trkpt lat="46.16004" lon="-1.3386">
        <ele>9.4</ele>
        <time>2020-05-31T21:32:50Z</time>
      </trkpt>
      <trkpt lat="46.16005" lon="-1.33868">
        <ele>9.5</ele>
        <time>2020-05-31T21:32:51Z</time>
      </trkpt>
      <trkpt lat="46.16006" lon="-1.33873">
        <ele>9.5</ele>
        <time>2020-05-31T21:32:52Z</time>
      </trkpt>
      <trkpt lat="46.16007" lon="-1.33878">
        <ele>9.5</ele>
        <time>2020-05-31T21:32:53Z</time>
      </trkpt>
      <trkpt lat="46.16007" lon="-1.33882">
        <ele>9.5</ele>
        <time>2020-05-31T21:32:54Z</time>
      </trkpt>
      <trkpt lat="46.16007" lon="-1.3389">
        <ele>9.5</ele>
        <time>2020-05-31T21:32:55Z</time>
      </trkpt>
      <trkpt lat="46.16008" lon="-1.33893">
        <ele>9.5</ele>
        <time>2020-05-31T21:32:56Z</time>
      </trkpt>
      <trkpt lat="46.16009" lon="-1.33899">
        <ele>9.5</ele>
        <time>2020-05-31T21:32:57Z</time>
      </trkpt>
      <trkpt lat="46.1601" lon="-1.33905">
        <ele>9.5</ele>
        <time>2020-05-31T21:32:58Z</time>
      </trkpt>
      <trkpt lat="46.16011" lon="-1.33914">
        <ele>9.5</ele>
        <time>2020-05-31T21:32:59Z</time>
      </trkpt>
      <trkpt lat="46.16012" lon="-1.33921">
        <ele>9.5</ele>
        <time>2020-05-31T21:33:00Z</time>
      </trkpt>
      <trkpt lat="46.16013" lon="-1.33928">
        <ele>9.5</ele>
        <time>2020-05-31T21:33:01Z</time>
      </trkpt>
      <trkpt lat="46.16014" lon="-1.33937">
        <ele>9.5</ele>
        <time>2020-05-31T21:33:02Z</time>
      </trkpt>
      <trkpt lat="46.16014" lon="-1.33944">
        <ele>9.5</ele>
        <time>2020-05-31T21:33:03Z</time>
      </trkpt>
      <trkpt lat="46.16015" lon="-1.33951">
        <ele>9.5</ele>
        <time>2020-05-31T21:33:04Z</time>
      </trkpt>
      <trkpt lat="46.16015" lon="-1.33958">
        <ele>9.5</ele>
        <time>2020-05-31T21:33:05Z</time>
      </trkpt>
      <trkpt lat="46.16016" lon="-1.33966">
        <ele>9.6</ele>
        <time>2020-05-31T21:33:06Z</time>
      </trkpt>
      <trkpt lat="46.16017" lon="-1.33973">
        <ele>9.6</ele>
        <time>2020-05-31T21:33:07Z</time>
      </trkpt>
      <trkpt lat="46.16018" lon="-1.3398">
        <ele>9.6</ele>
        <time>2020-05-31T21:33:08Z</time>
      </trkpt>
      <trkpt lat="46.1602" lon="-1.33987">
        <ele>9.7</ele>
        <time>2020-05-31T21:33:09Z</time>
      </trkpt>
      <trkpt lat="46.1602" lon="-1.33994">
        <ele>9.7</ele>
        <time>2020-05-31T21:33:10Z</time>
      </trkpt>
      <trkpt lat="46.16021" lon="-1.34">
        <ele>9.8</ele>
        <time>2020-05-31T21:33:11Z</time>
      </trkpt>
      <trkpt lat="46.16022" lon="-1.34007">
        <ele>9.8</ele>
        <time>2020-05-31T21:33:12Z</time>
      </trkpt>
      <trkpt lat="46.16023" lon="-1.34015">
        <ele>9.9</ele>
        <time>2020-05-31T21:33:13Z</time>
      </trkpt>
      <trkpt lat="46.16024" lon="-1.34021">
        <ele>9.9</ele>
        <time>2020-05-31T21:33:14Z</time>
      </trkpt>
      <trkpt lat="46.16024" lon="-1.34028">
        <ele>9.9</ele>
        <time>2020-05-31T21:33:15Z</time>
      </trkpt>
      <trkpt lat="46.16025" lon="-1.34035">
        <ele>9.9</ele>
        <time>2020-05-31T21:33:16Z</time>
      </trkpt>
      <trkpt lat="46.16026" lon="-1.34042">
        <ele>9.9</ele>
        <time>2020-05-31T21:33:17Z</time>
      </trkpt>
      <trkpt lat="46.16027" lon="-1.3405">
        <ele>9.9</ele>
        <time>2020-05-31T21:33:18Z</time>
      </trkpt>
      <trkpt lat="46.16028" lon="-1.34058">
        <ele>10</ele>
        <time>2020-05-31T21:33:19Z</time>
      </trkpt>
      <trkpt lat="46.16029" lon="-1.34065">
        <ele>10</ele>
        <time>2020-05-31T21:33:20Z</time>
      </trkpt>
      <trkpt lat="46.1603" lon="-1.34072">
        <ele>10</ele>
        <time>2020-05-31T21:33:21Z</time>
      </trkpt>
      <trkpt lat="46.16031" lon="-1.34079">
        <ele>10</ele>
        <time>2020-05-31T21:33:22Z</time>
      </trkpt>
      <trkpt lat="46.16032" lon="-1.34086">
        <ele>10</ele>
        <time>2020-05-31T21:33:23Z</time>
      </trkpt>
      <trkpt lat="46.16033" lon="-1.34094">
        <ele>10</ele>
        <time>2020-05-31T21:33:24Z</time>
      </trkpt>
      <trkpt lat="46.16034" lon="-1.34102">
        <ele>10</ele>
        <time>2020-05-31T21:33:25Z</time>
      </trkpt>
      <trkpt lat="46.16035" lon="-1.34109">
        <ele>10</ele>
        <time>2020-05-31T21:33:26Z</time>
      </trkpt>
      <trkpt lat="46.16035" lon="-1.34117">
        <ele>10</ele>
        <time>2020-05-31T21:33:27Z</time>
      </trkpt>
      <trkpt lat="46.16036" lon="-1.34124">
        <ele>10.1</ele>
        <time>2020-05-31T21:33:28Z</time>
      </trkpt>
      <trkpt lat="46.16038" lon="-1.34131">
        <ele>10.1</ele>
        <time>2020-05-31T21:33:29Z</time>
      </trkpt>
      <trkpt lat="46.16039" lon="-1.34138">
        <ele>10.1</ele>
        <time>2020-05-31T21:33:30Z</time>
      </trkpt>
      <trkpt lat="46.16041" lon="-1.34146">
        <ele>10.1</ele>
        <time>2020-05-31T21:33:31Z</time>
      </trkpt>
      <trkpt lat="46.16043" lon="-1.34154">
        <ele>10.1</ele>
        <time>2020-05-31T21:33:32Z</time>
      </trkpt>
      <trkpt lat="46.16045" lon="-1.3416">
        <ele>10.2</ele>
        <time>2020-05-31T21:33:33Z</time>
      </trkpt>
      <trkpt lat="46.16046" lon="-1.34167">
        <ele>10.2</ele>
        <time>2020-05-31T21:33:34Z</time>
      </trkpt>
      <trkpt lat="46.16048" lon="-1.34175">
        <ele>10.2</ele>
        <time>2020-05-31T21:33:35Z</time>
      </trkpt>
      <trkpt lat="46.16049" lon="-1.34183">
        <ele>10.2</ele>
        <time>2020-05-31T21:33:36Z</time>
      </trkpt>
      <trkpt lat="46.16051" lon="-1.3419">
        <ele>10.2</ele>
        <time>2020-05-31T21:33:37Z</time>
      </trkpt>
      <trkpt lat="46.16054" lon="-1.34197">
        <ele>10.3</ele>
        <time>2020-05-31T21:33:38Z</time>
      </trkpt>
      <trkpt lat="46.16057" lon="-1.34205">
        <ele>10.3</ele>
        <time>2020-05-31T21:33:39Z</time>
      </trkpt>
      <trkpt lat="46.16059" lon="-1.34212">
        <ele>10.3</ele>
        <time>2020-05-31T21:33:40Z</time>
      </trkpt>
      <trkpt lat="46.16062" lon="-1.3422">
        <ele>10.3</ele>
        <time>2020-05-31T21:33:41Z</time>
      </trkpt>
      <trkpt lat="46.16065" lon="-1.34227">
        <ele>10.3</ele>
        <time>2020-05-31T21:33:42Z</time>
      </trkpt>
      <trkpt lat="46.16067" lon="-1.34233">
        <ele>10.3</ele>
        <time>2020-05-31T21:33:43Z</time>
      </trkpt>
      <trkpt lat="46.1607" lon="-1.3424">
        <ele>10.3</ele>
        <time>2020-05-31T21:33:44Z</time>
      </trkpt>
      <trkpt lat="46.16073" lon="-1.34247">
        <ele>10.3</ele>
        <time>2020-05-31T21:33:45Z</time>
      </trkpt>
      <trkpt lat="46.16076" lon="-1.34254">
        <ele>10.3</ele>
        <time>2020-05-31T21:33:46Z</time>
      </trkpt>
      <trkpt lat="46.16078" lon="-1.34259">
        <ele>10.3</ele>
        <time>2020-05-31T21:33:47Z</time>
      </trkpt>
      <trkpt lat="46.16081" lon="-1.34266">
        <ele>10.3</ele>
        <time>2020-05-31T21:33:48Z</time>
      </trkpt>
      <trkpt lat="46.16083" lon="-1.34274">
        <ele>10.3</ele>
        <time>2020-05-31T21:33:49Z</time>
      </trkpt>
      <trkpt lat="46.16086" lon="-1.34282">
        <ele>10.3</ele>
        <time>2020-05-31T21:33:50Z</time>
      </trkpt>
      <trkpt lat="46.16089" lon="-1.34289">
        <ele>10.3</ele>
        <time>2020-05-31T21:33:51Z</time>
      </trkpt>
      <trkpt lat="46.16092" lon="-1.34295">
        <ele>10.3</ele>
        <time>2020-05-31T21:33:52Z</time>
      </trkpt>
      <trkpt lat="46.16095" lon="-1.34301">
        <ele>10.3</ele>
        <time>2020-05-31T21:33:53Z</time>
      </trkpt>
      <trkpt lat="46.16098" lon="-1.34306">
        <ele>10.3</ele>
        <time>2020-05-31T21:33:54Z</time>
      </trkpt>
      <trkpt lat="46.16101" lon="-1.34311">
        <ele>10.3</ele>
        <time>2020-05-31T21:33:55Z</time>
      </trkpt>
      <trkpt lat="46.16105" lon="-1.34319">
        <ele>10.3</ele>
        <time>2020-05-31T21:33:56Z</time>
      </trkpt>
      <trkpt lat="46.16107" lon="-1.34325">
        <ele>10.4</ele>
        <time>2020-05-31T21:33:57Z</time>
      </trkpt>
      <trkpt lat="46.16109" lon="-1.34332">
        <ele>10.4</ele>
        <time>2020-05-31T21:33:58Z</time>
      </trkpt>
      <trkpt lat="46.16112" lon="-1.34338">
        <ele>10.5</ele>
        <time>2020-05-31T21:33:59Z</time>
      </trkpt>
      <trkpt lat="46.16113" lon="-1.34345">
        <ele>10.6</ele>
        <time>2020-05-31T21:34:00Z</time>
      </trkpt>
      <trkpt lat="46.16115" lon="-1.3435">
        <ele>10.6</ele>
        <time>2020-05-31T21:34:01Z</time>
      </trkpt>
      <trkpt lat="46.16117" lon="-1.34355">
        <ele>10.6</ele>
        <time>2020-05-31T21:34:02Z</time>
      </trkpt>
      <trkpt lat="46.16118" lon="-1.34362">
        <ele>10.6</ele>
        <time>2020-05-31T21:34:03Z</time>
      </trkpt>
      <trkpt lat="46.16119" lon="-1.3437">
        <ele>10.6</ele>
        <time>2020-05-31T21:34:04Z</time>
      </trkpt>
      <trkpt lat="46.1612" lon="-1.34378">
        <ele>10.6</ele>
        <time>2020-05-31T21:34:05Z</time>
      </trkpt>
      <trkpt lat="46.16121" lon="-1.34384">
        <ele>10.6</ele>
        <time>2020-05-31T21:34:06Z</time>
      </trkpt>
      <trkpt lat="46.16121" lon="-1.34392">
        <ele>10.6</ele>
        <time>2020-05-31T21:34:07Z</time>
      </trkpt>
      <trkpt lat="46.16123" lon="-1.344">
        <ele>10.6</ele>
        <time>2020-05-31T21:34:08Z</time>
      </trkpt>
      <trkpt lat="46.16123" lon="-1.34406">
        <ele>10.6</ele>
        <time>2020-05-31T21:34:09Z</time>
      </trkpt>
      <trkpt lat="46.16125" lon="-1.34413">
        <ele>10.6</ele>
        <time>2020-05-31T21:34:10Z</time>
      </trkpt>
      <trkpt lat="46.16127" lon="-1.34417">
        <ele>10.6</ele>
        <time>2020-05-31T21:34:11Z</time>
      </trkpt>
      <trkpt lat="46.16129" lon="-1.34425">
        <ele>10.6</ele>
        <time>2020-05-31T21:34:12Z</time>
      </trkpt>
      <trkpt lat="46.16132" lon="-1.34432">
        <ele>10.6</ele>
        <time>2020-05-31T21:34:13Z</time>
      </trkpt>
      <trkpt lat="46.16134" lon="-1.34439">
        <ele>10.6</ele>
        <time>2020-05-31T21:34:14Z</time>
      </trkpt>
      <trkpt lat="46.16135" lon="-1.34445">
        <ele>10.6</ele>
        <time>2020-05-31T21:34:15Z</time>
      </trkpt>
      <trkpt lat="46.16138" lon="-1.34452">
        <ele>10.6</ele>
        <time>2020-05-31T21:34:16Z</time>
      </trkpt>
      <trkpt lat="46.1614" lon="-1.3446">
        <ele>10.6</ele>
        <time>2020-05-31T21:34:17Z</time>
      </trkpt>
      <trkpt lat="46.16143" lon="-1.34468">
        <ele>10.7</ele>
        <time>2020-05-31T21:34:18Z</time>
      </trkpt>
      <trkpt lat="46.16146" lon="-1.34474">
        <ele>10.7</ele>
        <time>2020-05-31T21:34:19Z</time>
      </trkpt>
      <trkpt lat="46.16148" lon="-1.34481">
        <ele>10.7</ele>
        <time>2020-05-31T21:34:20Z</time>
      </trkpt>
      <trkpt lat="46.16149" lon="-1.34486">
        <ele>10.7</ele>
        <time>2020-05-31T21:34:21Z</time>
      </trkpt>
      <trkpt lat="46.1615" lon="-1.34492">
        <ele>10.7</ele>
        <time>2020-05-31T21:34:22Z</time>
      </trkpt>
      <trkpt lat="46.16152" lon="-1.34499">
        <ele>10.7</ele>
        <time>2020-05-31T21:34:23Z</time>
      </trkpt>
      <trkpt lat="46.16154" lon="-1.34507">
        <ele>10.7</ele>
        <time>2020-05-31T21:34:24Z</time>
      </trkpt>
      <trkpt lat="46.16157" lon="-1.34515">
        <ele>10.7</ele>
        <time>2020-05-31T21:34:25Z</time>
      </trkpt>
      <trkpt lat="46.16159" lon="-1.34522">
        <ele>10.7</ele>
        <time>2020-05-31T21:34:26Z</time>
      </trkpt>
      <trkpt lat="46.1616" lon="-1.34529">
        <ele>10.7</ele>
        <time>2020-05-31T21:34:27Z</time>
      </trkpt>
      <trkpt lat="46.16162" lon="-1.34536">
        <ele>10.7</ele>
        <time>2020-05-31T21:34:28Z</time>
      </trkpt>
      <trkpt lat="46.16164" lon="-1.34542">
        <ele>10.7</ele>
        <time>2020-05-31T21:34:29Z</time>
      </trkpt>
      <trkpt lat="46.16166" lon="-1.34549">
        <ele>10.7</ele>
        <time>2020-05-31T21:34:30Z</time>
      </trkpt>
      <trkpt lat="46.16167" lon="-1.34554">
        <ele>10.7</ele>
        <time>2020-05-31T21:34:31Z</time>
      </trkpt>
      <trkpt lat="46.1617" lon="-1.34561">
        <ele>10.7</ele>
        <time>2020-05-31T21:34:32Z</time>
      </trkpt>
      <trkpt lat="46.16171" lon="-1.34568">
        <ele>10.6</ele>
        <time>2020-05-31T21:34:33Z</time>
      </trkpt>
      <trkpt lat="46.16172" lon="-1.34573">
        <ele>10.6</ele>
        <time>2020-05-31T21:34:34Z</time>
      </trkpt>
      <trkpt lat="46.16174" lon="-1.3458">
        <ele>10.6</ele>
        <time>2020-05-31T21:34:35Z</time>
      </trkpt>
      <trkpt lat="46.16176" lon="-1.34588">
        <ele>10.6</ele>
        <time>2020-05-31T21:34:36Z</time>
      </trkpt>
      <trkpt lat="46.16177" lon="-1.34594">
        <ele>10.6</ele>
        <time>2020-05-31T21:34:37Z</time>
      </trkpt>
      <trkpt lat="46.16179" lon="-1.34602">
        <ele>10.6</ele>
        <time>2020-05-31T21:34:38Z</time>
      </trkpt>
      <trkpt lat="46.16181" lon="-1.34607">
        <ele>10.6</ele>
        <time>2020-05-31T21:34:39Z</time>
      </trkpt>
      <trkpt lat="46.16183" lon="-1.34613">
        <ele>10.6</ele>
        <time>2020-05-31T21:34:40Z</time>
      </trkpt>
      <trkpt lat="46.16185" lon="-1.3462">
        <ele>10.6</ele>
        <time>2020-05-31T21:34:41Z</time>
      </trkpt>
      <trkpt lat="46.16187" lon="-1.34627">
        <ele>10.6</ele>
        <time>2020-05-31T21:34:42Z</time>
      </trkpt>
      <trkpt lat="46.16189" lon="-1.34633">
        <ele>10.6</ele>
        <time>2020-05-31T21:34:43Z</time>
      </trkpt>
      <trkpt lat="46.1619" lon="-1.34638">
        <ele>10.6</ele>
        <time>2020-05-31T21:34:44Z</time>
      </trkpt>
      <trkpt lat="46.16195" lon="-1.34645">
        <ele>10.5</ele>
        <time>2020-05-31T21:34:45Z</time>
      </trkpt>
      <trkpt lat="46.16198" lon="-1.34648">
        <ele>10.5</ele>
        <time>2020-05-31T21:34:46Z</time>
      </trkpt>
      <trkpt lat="46.16202" lon="-1.34653">
        <ele>10.5</ele>
        <time>2020-05-31T21:34:47Z</time>
      </trkpt>
      <trkpt lat="46.16205" lon="-1.34659">
        <ele>10.5</ele>
        <time>2020-05-31T21:34:48Z</time>
      </trkpt>
      <trkpt lat="46.16209" lon="-1.34663">
        <ele>10.6</ele>
        <time>2020-05-31T21:34:49Z</time>
      </trkpt>
      <trkpt lat="46.16212" lon="-1.34667">
        <ele>10.6</ele>
        <time>2020-05-31T21:34:50Z</time>
      </trkpt>
      <trkpt lat="46.16215" lon="-1.34671">
        <ele>10.6</ele>
        <time>2020-05-31T21:34:51Z</time>
      </trkpt>
      <trkpt lat="46.16219" lon="-1.34675">
        <ele>10.7</ele>
        <time>2020-05-31T21:34:52Z</time>
      </trkpt>
      <trkpt lat="46.16223" lon="-1.34679">
        <ele>10.8</ele>
        <time>2020-05-31T21:34:53Z</time>
      </trkpt>
      <trkpt lat="46.16227" lon="-1.34683">
        <ele>11</ele>
        <time>2020-05-31T21:34:54Z</time>
      </trkpt>
      <trkpt lat="46.16229" lon="-1.34687">
        <ele>11</ele>
        <time>2020-05-31T21:34:55Z</time>
      </trkpt>
      <trkpt lat="46.16232" lon="-1.34691">
        <ele>11.1</ele>
        <time>2020-05-31T21:34:56Z</time>
      </trkpt>
      <trkpt lat="46.16234" lon="-1.34692">
        <ele>11.2</ele>
        <time>2020-05-31T21:34:57Z</time>
      </trkpt>
      <trkpt lat="46.16237" lon="-1.34696">
        <ele>11.3</ele>
        <time>2020-05-31T21:34:58Z</time>
      </trkpt>
      <trkpt lat="46.1624" lon="-1.347">
        <ele>11.3</ele>
        <time>2020-05-31T21:34:59Z</time>
      </trkpt>
      <trkpt lat="46.16243" lon="-1.34704">
        <ele>11.3</ele>
        <time>2020-05-31T21:35:00Z</time>
      </trkpt>
      <trkpt lat="46.16247" lon="-1.3471">
        <ele>11.3</ele>
        <time>2020-05-31T21:35:01Z</time>
      </trkpt>
      <trkpt lat="46.1625" lon="-1.34715">
        <ele>11.3</ele>
        <time>2020-05-31T21:35:02Z</time>
      </trkpt>
      <trkpt lat="46.16253" lon="-1.34722">
        <ele>11.4</ele>
        <time>2020-05-31T21:35:03Z</time>
      </trkpt>
      <trkpt lat="46.16255" lon="-1.34727">
        <ele>11.4</ele>
        <time>2020-05-31T21:35:04Z</time>
      </trkpt>
      <trkpt lat="46.16257" lon="-1.34735">
        <ele>11.4</ele>
        <time>2020-05-31T21:35:05Z</time>
      </trkpt>
      <trkpt lat="46.16258" lon="-1.3474">
        <ele>11.5</ele>
        <time>2020-05-31T21:35:06Z</time>
      </trkpt>
      <trkpt lat="46.16258" lon="-1.34747">
        <ele>11.5</ele>
        <time>2020-05-31T21:35:07Z</time>
      </trkpt>
      <trkpt lat="46.16259" lon="-1.34752">
        <ele>11.5</ele>
        <time>2020-05-31T21:35:08Z</time>
      </trkpt>
      <trkpt lat="46.16259" lon="-1.34757">
        <ele>11.6</ele>
        <time>2020-05-31T21:35:09Z</time>
      </trkpt>
      <trkpt lat="46.16259" lon="-1.34761">
        <ele>11.6</ele>
        <time>2020-05-31T21:35:10Z</time>
      </trkpt>
      <trkpt lat="46.1626" lon="-1.34768">
        <ele>11.6</ele>
        <time>2020-05-31T21:35:11Z</time>
      </trkpt>
      <trkpt lat="46.16261" lon="-1.34774">
        <ele>11.6</ele>
        <time>2020-05-31T21:35:12Z</time>
      </trkpt>
      <trkpt lat="46.16261" lon="-1.3478">
        <ele>11.7</ele>
        <time>2020-05-31T21:35:13Z</time>
      </trkpt>
      <trkpt lat="46.16263" lon="-1.34789">
        <ele>11.7</ele>
        <time>2020-05-31T21:35:14Z</time>
      </trkpt>
      <trkpt lat="46.16263" lon="-1.34795">
        <ele>11.7</ele>
        <time>2020-05-31T21:35:15Z</time>
      </trkpt>
      <trkpt lat="46.16265" lon="-1.34801">
        <ele>11.7</ele>
        <time>2020-05-31T21:35:16Z</time>
      </trkpt>
      <trkpt lat="46.16266" lon="-1.34805">
        <ele>11.7</ele>
        <time>2020-05-31T21:35:17Z</time>
      </trkpt>
      <trkpt lat="46.16266" lon="-1.34811">
        <ele>11.7</ele>
        <time>2020-05-31T21:35:18Z</time>
      </trkpt>
      <trkpt lat="46.16267" lon="-1.34817">
        <ele>11.7</ele>
        <time>2020-05-31T21:35:19Z</time>
      </trkpt>
      <trkpt lat="46.16268" lon="-1.34822">
        <ele>11.7</ele>
        <time>2020-05-31T21:35:20Z</time>
      </trkpt>
      <trkpt lat="46.1627" lon="-1.34826">
        <ele>11.7</ele>
        <time>2020-05-31T21:35:21Z</time>
      </trkpt>
      <trkpt lat="46.16273" lon="-1.3483">
        <ele>11.7</ele>
        <time>2020-05-31T21:35:22Z</time>
      </trkpt>
      <trkpt lat="46.16274" lon="-1.34833">
        <ele>11.7</ele>
        <time>2020-05-31T21:35:23Z</time>
      </trkpt>
      <trkpt lat="46.16276" lon="-1.34837">
        <ele>11.7</ele>
        <time>2020-05-31T21:35:24Z</time>
      </trkpt>
      <trkpt lat="46.16278" lon="-1.34841">
        <ele>11.7</ele>
        <time>2020-05-31T21:35:25Z</time>
      </trkpt>
      <trkpt lat="46.16279" lon="-1.34843">
        <ele>11.7</ele>
        <time>2020-05-31T21:35:26Z</time>
      </trkpt>
      <trkpt lat="46.16282" lon="-1.34847">
        <ele>11.7</ele>
        <time>2020-05-31T21:35:27Z</time>
      </trkpt>
      <trkpt lat="46.16285" lon="-1.34852">
        <ele>11.7</ele>
        <time>2020-05-31T21:35:28Z</time>
      </trkpt>
      <trkpt lat="46.16288" lon="-1.34855">
        <ele>11.7</ele>
        <time>2020-05-31T21:35:29Z</time>
      </trkpt>
      <trkpt lat="46.1629" lon="-1.34859">
        <ele>11.7</ele>
        <time>2020-05-31T21:35:30Z</time>
      </trkpt>
      <trkpt lat="46.16293" lon="-1.34864">
        <ele>11.7</ele>
        <time>2020-05-31T21:35:31Z</time>
      </trkpt>
      <trkpt lat="46.16294" lon="-1.34865">
        <ele>11.8</ele>
        <time>2020-05-31T21:35:32Z</time>
      </trkpt>
      <trkpt lat="46.16295" lon="-1.34866">
        <ele>11.7</ele>
        <time>2020-05-31T21:35:33Z</time>
      </trkpt>
      <trkpt lat="46.16297" lon="-1.34867">
        <ele>11.7</ele>
        <time>2020-05-31T21:35:34Z</time>
      </trkpt>
      <trkpt lat="46.16297" lon="-1.34868">
        <ele>11.7</ele>
        <time>2020-05-31T21:35:35Z</time>
      </trkpt>
      <trkpt lat="46.16298" lon="-1.34868">
        <ele>11.7</ele>
        <time>2020-05-31T21:35:36Z</time>
      </trkpt>
      <trkpt lat="46.16299" lon="-1.34865">
        <ele>11.7</ele>
        <time>2020-05-31T21:35:37Z</time>
      </trkpt>
      <trkpt lat="46.16298" lon="-1.34865">
        <ele>11.7</ele>
        <time>2020-05-31T21:35:38Z</time>
      </trkpt>
      <trkpt lat="46.16298" lon="-1.34867">
        <ele>11.7</ele>
        <time>2020-05-31T21:35:39Z</time>
      </trkpt>
      <trkpt lat="46.16298" lon="-1.34868">
        <ele>11.7</ele>
        <time>2020-05-31T21:35:40Z</time>
      </trkpt>
      <trkpt lat="46.16297" lon="-1.34869">
        <ele>11.7</ele>
        <time>2020-05-31T21:35:41Z</time>
      </trkpt>
      <trkpt lat="46.16297" lon="-1.34869">
        <ele>11.7</ele>
        <time>2020-05-31T21:35:42Z</time>
      </trkpt>
      <trkpt lat="46.16298" lon="-1.34868">
        <ele>11.7</ele>
        <time>2020-05-31T21:35:43Z</time>
      </trkpt>
      <trkpt lat="46.16297" lon="-1.34868">
        <ele>11.7</ele>
        <time>2020-05-31T21:35:44Z</time>
      </trkpt>
      <trkpt lat="46.16297" lon="-1.34867">
        <ele>11.7</ele>
        <time>2020-05-31T21:35:45Z</time>
      </trkpt>
      <trkpt lat="46.16297" lon="-1.34867">
        <ele>11.7</ele>
        <time>2020-05-31T21:35:46Z</time>
      </trkpt>
      <trkpt lat="46.16297" lon="-1.34867">
        <ele>11.7</ele>
        <time>2020-05-31T21:35:47Z</time>
      </trkpt>
      <trkpt lat="46.16296" lon="-1.34867">
        <ele>11.7</ele>
        <time>2020-05-31T21:35:48Z</time>
      </trkpt>
      <trkpt lat="46.16297" lon="-1.34866">
        <ele>11.7</ele>
        <time>2020-05-31T21:35:49Z</time>
      </trkpt>
      <trkpt lat="46.16297" lon="-1.34865">
        <ele>11.7</ele>
        <time>2020-05-31T21:35:50Z</time>
      </trkpt>
      <trkpt lat="46.16297" lon="-1.34864">
        <ele>11.7</ele>
        <time>2020-05-31T21:35:51Z</time>
      </trkpt>
      <trkpt lat="46.16297" lon="-1.34864">
        <ele>11.7</ele>
        <time>2020-05-31T21:35:52Z</time>
      </trkpt>
      <trkpt lat="46.16297" lon="-1.34863">
        <ele>11.7</ele>
        <time>2020-05-31T21:35:53Z</time>
      </trkpt>
      <trkpt lat="46.16298" lon="-1.34863">
        <ele>11.7</ele>
        <time>2020-05-31T21:35:54Z</time>
      </trkpt>
      <trkpt lat="46.16298" lon="-1.34863">
        <ele>11.7</ele>
        <time>2020-05-31T21:35:55Z</time>
      </trkpt>
      <trkpt lat="46.16297" lon="-1.34863">
        <ele>11.7</ele>
        <time>2020-05-31T21:35:56Z</time>
      </trkpt>
      <trkpt lat="46.16296" lon="-1.34863">
        <ele>11.7</ele>
        <time>2020-05-31T21:35:57Z</time>
      </trkpt>
      <trkpt lat="46.16297" lon="-1.34863">
        <ele>11.7</ele>
        <time>2020-05-31T21:35:58Z</time>
      </trkpt>
      <trkpt lat="46.16298" lon="-1.34861">
        <ele>11.7</ele>
        <time>2020-05-31T21:35:59Z</time>
      </trkpt>
      <trkpt lat="46.16298" lon="-1.34861">
        <ele>11.7</ele>
        <time>2020-05-31T21:36:00Z</time>
      </trkpt>
      <trkpt lat="46.16298" lon="-1.34861">
        <ele>11.7</ele>
        <time>2020-05-31T21:36:01Z</time>
      </trkpt>
      <trkpt lat="46.16299" lon="-1.34861">
        <ele>11.7</ele>
        <time>2020-05-31T21:36:02Z</time>
      </trkpt>
      <trkpt lat="46.16299" lon="-1.3486">
        <ele>11.7</ele>
        <time>2020-05-31T21:36:03Z</time>
      </trkpt>
      <trkpt lat="46.16298" lon="-1.34862">
        <ele>11.7</ele>
        <time>2020-05-31T21:36:04Z</time>
      </trkpt>
      <trkpt lat="46.16297" lon="-1.34863">
        <ele>11.7</ele>
        <time>2020-05-31T21:36:05Z</time>
      </trkpt>
      <trkpt lat="46.16297" lon="-1.34864">
        <ele>11.7</ele>
        <time>2020-05-31T21:36:06Z</time>
      </trkpt>
      <trkpt lat="46.16298" lon="-1.34864">
        <ele>11.7</ele>
        <time>2020-05-31T21:36:07Z</time>
      </trkpt>
      <trkpt lat="46.16297" lon="-1.34865">
        <ele>11.7</ele>
        <time>2020-05-31T21:36:08Z</time>
      </trkpt>
      <trkpt lat="46.16297" lon="-1.34866">
        <ele>11.7</ele>
        <time>2020-05-31T21:36:09Z</time>
      </trkpt>
      <trkpt lat="46.16298" lon="-1.34865">
        <ele>11.7</ele>
        <time>2020-05-31T21:36:10Z</time>
      </trkpt>
      <trkpt lat="46.16298" lon="-1.34866">
        <ele>11.7</ele>
        <time>2020-05-31T21:36:11Z</time>
      </trkpt>
      <trkpt lat="46.16297" lon="-1.34867">
        <ele>11.7</ele>
        <time>2020-05-31T21:36:12Z</time>
      </trkpt>
      <trkpt lat="46.16297" lon="-1.34868">
        <ele>11.7</ele>
        <time>2020-05-31T21:36:13Z</time>
      </trkpt>
      <trkpt lat="46.16297" lon="-1.34868">
        <ele>11.7</ele>
        <time>2020-05-31T21:36:14Z</time>
      </trkpt>
      <trkpt lat="46.16297" lon="-1.34868">
        <ele>11.7</ele>
        <time>2020-05-31T21:36:15Z</time>
      </trkpt>
      <trkpt lat="46.16297" lon="-1.34868">
        <ele>11.7</ele>
        <time>2020-05-31T21:36:16Z</time>
      </trkpt>
      <trkpt lat="46.16297" lon="-1.34869">
        <ele>11.7</ele>
        <time>2020-05-31T21:36:17Z</time>
      </trkpt>
      <trkpt lat="46.16297" lon="-1.34868">
        <ele>11.7</ele>
        <time>2020-05-31T21:36:18Z</time>
      </trkpt>
      <trkpt lat="46.16296" lon="-1.3487">
        <ele>11.7</ele>
        <time>2020-05-31T21:36:19Z</time>
      </trkpt>
      <trkpt lat="46.16295" lon="-1.34871">
        <ele>11.7</ele>
        <time>2020-05-31T21:36:20Z</time>
      </trkpt>
      <trkpt lat="46.16296" lon="-1.3487">
        <ele>11.7</ele>
        <time>2020-05-31T21:36:21Z</time>
      </trkpt>
      <trkpt lat="46.16296" lon="-1.34869">
        <ele>11.7</ele>
        <time>2020-05-31T21:36:22Z</time>
      </trkpt>
      <trkpt lat="46.16296" lon="-1.34869">
        <ele>11.7</ele>
        <time>2020-05-31T21:36:23Z</time>
      </trkpt>
      <trkpt lat="46.16296" lon="-1.34869">
        <ele>11.7</ele>
        <time>2020-05-31T21:36:24Z</time>
      </trkpt>
      <trkpt lat="46.16297" lon="-1.34869">
        <ele>11.7</ele>
        <time>2020-05-31T21:36:25Z</time>
      </trkpt>
      <trkpt lat="46.16297" lon="-1.34868">
        <ele>11.7</ele>
        <time>2020-05-31T21:36:26Z</time>
      </trkpt>
      <trkpt lat="46.16298" lon="-1.34867">
        <ele>11.7</ele>
        <time>2020-05-31T21:36:27Z</time>
      </trkpt>
      <trkpt lat="46.16298" lon="-1.34867">
        <ele>11.7</ele>
        <time>2020-05-31T21:36:28Z</time>
      </trkpt>
      <trkpt lat="46.16298" lon="-1.34866">
        <ele>11.7</ele>
        <time>2020-05-31T21:36:29Z</time>
      </trkpt>
      <trkpt lat="46.16298" lon="-1.34867">
        <ele>11.7</ele>
        <time>2020-05-31T21:36:30Z</time>
      </trkpt>
      <trkpt lat="46.16299" lon="-1.34866">
        <ele>11.7</ele>
        <time>2020-05-31T21:36:31Z</time>
      </trkpt>
      <trkpt lat="46.16299" lon="-1.34865">
        <ele>11.7</ele>
        <time>2020-05-31T21:36:32Z</time>
      </trkpt>
      <trkpt lat="46.163" lon="-1.34865">
        <ele>11.7</ele>
        <time>2020-05-31T21:36:33Z</time>
      </trkpt>
      <trkpt lat="46.163" lon="-1.34865">
        <ele>11.7</ele>
        <time>2020-05-31T21:36:34Z</time>
      </trkpt>
      <trkpt lat="46.163" lon="-1.34865">
        <ele>11.7</ele>
        <time>2020-05-31T21:36:35Z</time>
      </trkpt>
      <trkpt lat="46.16299" lon="-1.34867">
        <ele>11.7</ele>
        <time>2020-05-31T21:36:36Z</time>
      </trkpt>
      <trkpt lat="46.16299" lon="-1.34867">
        <ele>11.7</ele>
        <time>2020-05-31T21:36:37Z</time>
      </trkpt>
      <trkpt lat="46.16299" lon="-1.34867">
        <ele>11.7</ele>
        <time>2020-05-31T21:36:38Z</time>
      </trkpt>
      <trkpt lat="46.16299" lon="-1.34867">
        <ele>11.7</ele>
        <time>2020-05-31T21:36:39Z</time>
      </trkpt>
      <trkpt lat="46.163" lon="-1.34867">
        <ele>11.7</ele>
        <time>2020-05-31T21:36:40Z</time>
      </trkpt>
      <trkpt lat="46.163" lon="-1.34866">
        <ele>11.7</ele>
        <time>2020-05-31T21:36:41Z</time>
      </trkpt>
      <trkpt lat="46.163" lon="-1.34867">
        <ele>11.7</ele>
        <time>2020-05-31T21:36:42Z</time>
      </trkpt>
      <trkpt lat="46.16299" lon="-1.34868">
        <ele>11.7</ele>
        <time>2020-05-31T21:36:43Z</time>
      </trkpt>
      <trkpt lat="46.16299" lon="-1.34868">
        <ele>11.7</ele>
        <time>2020-05-31T21:36:44Z</time>
      </trkpt>
      <trkpt lat="46.16299" lon="-1.34869">
        <ele>11.7</ele>
        <time>2020-05-31T21:36:45Z</time>
      </trkpt>
      <trkpt lat="46.16299" lon="-1.34868">
        <ele>11.7</ele>
        <time>2020-05-31T21:36:46Z</time>
      </trkpt>
      <trkpt lat="46.163" lon="-1.34868">
        <ele>11.7</ele>
        <time>2020-05-31T21:36:47Z</time>
      </trkpt>
      <trkpt lat="46.163" lon="-1.34868">
        <ele>11.7</ele>
        <time>2020-05-31T21:36:48Z</time>
      </trkpt>
      <trkpt lat="46.16299" lon="-1.34868">
        <ele>11.7</ele>
        <time>2020-05-31T21:36:49Z</time>
      </trkpt>
      <trkpt lat="46.16299" lon="-1.34868">
        <ele>11.7</ele>
        <time>2020-05-31T21:36:50Z</time>
      </trkpt>
      <trkpt lat="46.16299" lon="-1.34869">
        <ele>11.7</ele>
        <time>2020-05-31T21:36:51Z</time>
      </trkpt>
      <trkpt lat="46.16299" lon="-1.34868">
        <ele>11.7</ele>
        <time>2020-05-31T21:36:52Z</time>
      </trkpt>
      <trkpt lat="46.16299" lon="-1.34868">
        <ele>11.7</ele>
        <time>2020-05-31T21:36:53Z</time>
      </trkpt>
      <trkpt lat="46.16299" lon="-1.34868">
        <ele>11.7</ele>
        <time>2020-05-31T21:36:54Z</time>
      </trkpt>
      <trkpt lat="46.16299" lon="-1.34868">
        <ele>11.7</ele>
        <time>2020-05-31T21:36:55Z</time>
      </trkpt>
      <trkpt lat="46.16299" lon="-1.34869">
        <ele>11.7</ele>
        <time>2020-05-31T21:36:56Z</time>
      </trkpt>
      <trkpt lat="46.16299" lon="-1.34869">
        <ele>11.7</ele>
        <time>2020-05-31T21:36:57Z</time>
      </trkpt>
      <trkpt lat="46.163" lon="-1.34868">
        <ele>11.7</ele>
        <time>2020-05-31T21:36:58Z</time>
      </trkpt>
      <trkpt lat="46.163" lon="-1.34867">
        <ele>11.7</ele>
        <time>2020-05-31T21:36:59Z</time>
      </trkpt>
      <trkpt lat="46.16301" lon="-1.34867">
        <ele>11.7</ele>
        <time>2020-05-31T21:37:00Z</time>
      </trkpt>
      <trkpt lat="46.163" lon="-1.34868">
        <ele>11.7</ele>
        <time>2020-05-31T21:37:01Z</time>
      </trkpt>
      <trkpt lat="46.16298" lon="-1.34869">
        <ele>11.7</ele>
        <time>2020-05-31T21:37:02Z</time>
      </trkpt>
      <trkpt lat="46.16297" lon="-1.3487">
        <ele>11.7</ele>
        <time>2020-05-31T21:37:03Z</time>
      </trkpt>
      <trkpt lat="46.16297" lon="-1.3487">
        <ele>11.7</ele>
        <time>2020-05-31T21:37:04Z</time>
      </trkpt>
      <trkpt lat="46.16295" lon="-1.3487">
        <ele>11.7</ele>
        <time>2020-05-31T21:37:05Z</time>
      </trkpt>
      <trkpt lat="46.16295" lon="-1.3487">
        <ele>11.7</ele>
        <time>2020-05-31T21:37:06Z</time>
      </trkpt>
      <trkpt lat="46.16294" lon="-1.3487">
        <ele>11.7</ele>
        <time>2020-05-31T21:37:07Z</time>
      </trkpt>
      <trkpt lat="46.16294" lon="-1.3487">
        <ele>11.7</ele>
        <time>2020-05-31T21:37:08Z</time>
      </trkpt>
      <trkpt lat="46.16293" lon="-1.3487">
        <ele>11.7</ele>
        <time>2020-05-31T21:37:09Z</time>
      </trkpt>
      <trkpt lat="46.16293" lon="-1.3487">
        <ele>11.7</ele>
        <time>2020-05-31T21:37:10Z</time>
      </trkpt>
      <trkpt lat="46.16293" lon="-1.3487">
        <ele>11.7</ele>
        <time>2020-05-31T21:37:11Z</time>
      </trkpt>
      <trkpt lat="46.16292" lon="-1.3487">
        <ele>11.7</ele>
        <time>2020-05-31T21:37:12Z</time>
      </trkpt>
      <trkpt lat="46.16291" lon="-1.34869">
        <ele>11.7</ele>
        <time>2020-05-31T21:37:13Z</time>
      </trkpt>
      <trkpt lat="46.16291" lon="-1.34869">
        <ele>11.7</ele>
        <time>2020-05-31T21:37:14Z</time>
      </trkpt>
      <trkpt lat="46.16291" lon="-1.34869">
        <ele>11.7</ele>
        <time>2020-05-31T21:37:15Z</time>
      </trkpt>
      <trkpt lat="46.16291" lon="-1.34869">
        <ele>11.7</ele>
        <time>2020-05-31T21:37:16Z</time>
      </trkpt>
      <trkpt lat="46.16291" lon="-1.34869">
        <ele>11.7</ele>
        <time>2020-05-31T21:37:17Z</time>
      </trkpt>
      <trkpt lat="46.16291" lon="-1.34869">
        <ele>11.7</ele>
        <time>2020-05-31T21:37:18Z</time>
      </trkpt>
      <trkpt lat="46.16291" lon="-1.34869">
        <ele>11.7</ele>
        <time>2020-05-31T21:37:19Z</time>
      </trkpt>
      <trkpt lat="46.16291" lon="-1.34869">
        <ele>11.7</ele>
        <time>2020-05-31T21:37:20Z</time>
      </trkpt>
      <trkpt lat="46.16291" lon="-1.34869">
        <ele>11.7</ele>
        <time>2020-05-31T21:37:21Z</time>
      </trkpt>
      <trkpt lat="46.16291" lon="-1.34869">
        <ele>11.7</ele>
        <time>2020-05-31T21:37:22Z</time>
      </trkpt>
      <trkpt lat="46.16291" lon="-1.34869">
        <ele>11.7</ele>
        <time>2020-05-31T21:37:23Z</time>
      </trkpt>
      <trkpt lat="46.16291" lon="-1.34869">
        <ele>11.7</ele>
        <time>2020-05-31T21:37:24Z</time>
      </trkpt>
      <trkpt lat="46.16292" lon="-1.3487">
        <ele>11.7</ele>
        <time>2020-05-31T21:37:25Z</time>
      </trkpt>
      <trkpt lat="46.16291" lon="-1.34871">
        <ele>11.7</ele>
        <time>2020-05-31T21:37:26Z</time>
      </trkpt>
      <trkpt lat="46.16291" lon="-1.34871">
        <ele>11.7</ele>
        <time>2020-05-31T21:37:27Z</time>
      </trkpt>
      <trkpt lat="46.16291" lon="-1.34871">
        <ele>11.7</ele>
        <time>2020-05-31T21:37:28Z</time>
      </trkpt>
      <trkpt lat="46.16291" lon="-1.34871">
        <ele>11.7</ele>
        <time>2020-05-31T21:37:29Z</time>
      </trkpt>
      <trkpt lat="46.16291" lon="-1.34871">
        <ele>11.7</ele>
        <time>2020-05-31T21:37:30Z</time>
      </trkpt>
      <trkpt lat="46.16292" lon="-1.3487">
        <ele>11.7</ele>
        <time>2020-05-31T21:37:31Z</time>
      </trkpt>
      <trkpt lat="46.16292" lon="-1.3487">
        <ele>11.7</ele>
        <time>2020-05-31T21:37:32Z</time>
      </trkpt>
      <trkpt lat="46.16292" lon="-1.3487">
        <ele>11.7</ele>
        <time>2020-05-31T21:37:33Z</time>
      </trkpt>
      <trkpt lat="46.16292" lon="-1.3487">
        <ele>11.7</ele>
        <time>2020-05-31T21:37:34Z</time>
      </trkpt>
      <trkpt lat="46.16292" lon="-1.3487">
        <ele>11.7</ele>
        <time>2020-05-31T21:37:35Z</time>
      </trkpt>
      <trkpt lat="46.16292" lon="-1.3487">
        <ele>11.7</ele>
        <time>2020-05-31T21:37:36Z</time>
      </trkpt>
      <trkpt lat="46.16292" lon="-1.3487">
        <ele>11.7</ele>
        <time>2020-05-31T21:37:37Z</time>
      </trkpt>
      <trkpt lat="46.16292" lon="-1.3487">
        <ele>11.7</ele>
        <time>2020-05-31T21:37:38Z</time>
      </trkpt>
      <trkpt lat="46.16292" lon="-1.3487">
        <ele>11.7</ele>
        <time>2020-05-31T21:37:39Z</time>
      </trkpt>
      <trkpt lat="46.16293" lon="-1.3487">
        <ele>11.7</ele>
        <time>2020-05-31T21:37:40Z</time>
      </trkpt>
      <trkpt lat="46.16294" lon="-1.34869">
        <ele>11.7</ele>
        <time>2020-05-31T21:37:41Z</time>
      </trkpt>
      <trkpt lat="46.16295" lon="-1.34868">
        <ele>11.7</ele>
        <time>2020-05-31T21:37:42Z</time>
      </trkpt>
      <trkpt lat="46.16295" lon="-1.34867">
        <ele>11.7</ele>
        <time>2020-05-31T21:37:43Z</time>
      </trkpt>
      <trkpt lat="46.16295" lon="-1.34867">
        <ele>11.7</ele>
        <time>2020-05-31T21:37:44Z</time>
      </trkpt>
      <trkpt lat="46.16296" lon="-1.34867">
        <ele>11.7</ele>
        <time>2020-05-31T21:37:45Z</time>
      </trkpt>
      <trkpt lat="46.16296" lon="-1.34867">
        <ele>11.7</ele>
        <time>2020-05-31T21:37:46Z</time>
      </trkpt>
      <trkpt lat="46.16297" lon="-1.34867">
        <ele>11.7</ele>
        <time>2020-05-31T21:37:47Z</time>
      </trkpt>
      <trkpt lat="46.16297" lon="-1.34867">
        <ele>11.7</ele>
        <time>2020-05-31T21:37:48Z</time>
      </trkpt>
      <trkpt lat="46.16297" lon="-1.34867">
        <ele>11.7</ele>
        <time>2020-05-31T21:37:49Z</time>
      </trkpt>
      <trkpt lat="46.16297" lon="-1.34867">
        <ele>11.7</ele>
        <time>2020-05-31T21:37:50Z</time>
      </trkpt>
      <trkpt lat="46.16296" lon="-1.34867">
        <ele>11.7</ele>
        <time>2020-05-31T21:37:51Z</time>
      </trkpt>
      <trkpt lat="46.16296" lon="-1.34868">
        <ele>11.7</ele>
        <time>2020-05-31T21:37:52Z</time>
      </trkpt>
      <trkpt lat="46.16296" lon="-1.34868">
        <ele>11.7</ele>
        <time>2020-05-31T21:37:53Z</time>
      </trkpt>
      <trkpt lat="46.16296" lon="-1.34867">
        <ele>11.7</ele>
        <time>2020-05-31T21:37:54Z</time>
      </trkpt>
      <trkpt lat="46.16297" lon="-1.34867">
        <ele>11.7</ele>
        <time>2020-05-31T21:37:55Z</time>
      </trkpt>
      <trkpt lat="46.16297" lon="-1.34867">
        <ele>11.7</ele>
        <time>2020-05-31T21:37:56Z</time>
      </trkpt>
      <trkpt lat="46.16297" lon="-1.34867">
        <ele>11.7</ele>
        <time>2020-05-31T21:37:57Z</time>
      </trkpt>
      <trkpt lat="46.16295" lon="-1.34868">
        <ele>11.7</ele>
        <time>2020-05-31T21:37:58Z</time>
      </trkpt>
      <trkpt lat="46.16295" lon="-1.34869">
        <ele>11.7</ele>
        <time>2020-05-31T21:37:59Z</time>
      </trkpt>
      <trkpt lat="46.16295" lon="-1.34869">
        <ele>11.7</ele>
        <time>2020-05-31T21:38:00Z</time>
      </trkpt>
      <trkpt lat="46.16295" lon="-1.34869">
        <ele>11.7</ele>
        <time>2020-05-31T21:38:01Z</time>
      </trkpt>
      <trkpt lat="46.16294" lon="-1.3487">
        <ele>11.7</ele>
        <time>2020-05-31T21:38:02Z</time>
      </trkpt>
      <trkpt lat="46.16295" lon="-1.34869">
        <ele>11.7</ele>
        <time>2020-05-31T21:38:03Z</time>
      </trkpt>
      <trkpt lat="46.16295" lon="-1.34869">
        <ele>11.7</ele>
        <time>2020-05-31T21:38:04Z</time>
      </trkpt>
      <trkpt lat="46.16295" lon="-1.34869">
        <ele>11.7</ele>
        <time>2020-05-31T21:38:05Z</time>
      </trkpt>
      <trkpt lat="46.16294" lon="-1.3487">
        <ele>11.7</ele>
        <time>2020-05-31T21:38:06Z</time>
      </trkpt>
      <trkpt lat="46.16295" lon="-1.34869">
        <ele>11.7</ele>
        <time>2020-05-31T21:38:07Z</time>
      </trkpt>
      <trkpt lat="46.16295" lon="-1.34868">
        <ele>11.7</ele>
        <time>2020-05-31T21:38:08Z</time>
      </trkpt>
      <trkpt lat="46.16296" lon="-1.34867">
        <ele>11.7</ele>
        <time>2020-05-31T21:38:09Z</time>
      </trkpt>
      <trkpt lat="46.16296" lon="-1.34867">
        <ele>11.7</ele>
        <time>2020-05-31T21:38:10Z</time>
      </trkpt>
      <trkpt lat="46.16296" lon="-1.34867">
        <ele>11.7</ele>
        <time>2020-05-31T21:38:11Z</time>
      </trkpt>
      <trkpt lat="46.16296" lon="-1.34866">
        <ele>11.7</ele>
        <time>2020-05-31T21:38:12Z</time>
      </trkpt>
      <trkpt lat="46.16297" lon="-1.34866">
        <ele>11.7</ele>
        <time>2020-05-31T21:38:13Z</time>
      </trkpt>
      <trkpt lat="46.16297" lon="-1.34865">
        <ele>11.7</ele>
        <time>2020-05-31T21:38:14Z</time>
      </trkpt>
      <trkpt lat="46.16296" lon="-1.34866">
        <ele>11.7</ele>
        <time>2020-05-31T21:38:15Z</time>
      </trkpt>
      <trkpt lat="46.16293" lon="-1.34868">
        <ele>11.7</ele>
        <time>2020-05-31T21:38:16Z</time>
      </trkpt>
      <trkpt lat="46.16292" lon="-1.34868">
        <ele>11.7</ele>
        <time>2020-05-31T21:38:17Z</time>
      </trkpt>
      <trkpt lat="46.16292" lon="-1.34868">
        <ele>11.7</ele>
        <time>2020-05-31T21:38:18Z</time>
      </trkpt>
      <trkpt lat="46.16291" lon="-1.34869">
        <ele>11.7</ele>
        <time>2020-05-31T21:38:19Z</time>
      </trkpt>
      <trkpt lat="46.16292" lon="-1.34869">
        <ele>11.7</ele>
        <time>2020-05-31T21:38:20Z</time>
      </trkpt>
      <trkpt lat="46.16291" lon="-1.34869">
        <ele>11.7</ele>
        <time>2020-05-31T21:38:21Z</time>
      </trkpt>
      <trkpt lat="46.16291" lon="-1.34869">
        <ele>11.7</ele>
        <time>2020-05-31T21:38:22Z</time>
      </trkpt>
      <trkpt lat="46.16292" lon="-1.34869">
        <ele>11.7</ele>
        <time>2020-05-31T21:38:23Z</time>
      </trkpt>
      <trkpt lat="46.16293" lon="-1.34868">
        <ele>11.7</ele>
        <time>2020-05-31T21:38:24Z</time>
      </trkpt>
      <trkpt lat="46.16295" lon="-1.34868">
        <ele>11.7</ele>
        <time>2020-05-31T21:38:25Z</time>
      </trkpt>
      <trkpt lat="46.16295" lon="-1.34868">
        <ele>11.7</ele>
        <time>2020-05-31T21:38:26Z</time>
      </trkpt>
      <trkpt lat="46.16296" lon="-1.34867">
        <ele>11.7</ele>
        <time>2020-05-31T21:38:27Z</time>
      </trkpt>
      <trkpt lat="46.16297" lon="-1.34867">
        <ele>11.7</ele>
        <time>2020-05-31T21:38:28Z</time>
      </trkpt>
      <trkpt lat="46.16297" lon="-1.34868">
        <ele>11.7</ele>
        <time>2020-05-31T21:38:29Z</time>
      </trkpt>
      <trkpt lat="46.16297" lon="-1.34869">
        <ele>11.7</ele>
        <time>2020-05-31T21:38:30Z</time>
      </trkpt>
      <trkpt lat="46.16297" lon="-1.34869">
        <ele>11.7</ele>
        <time>2020-05-31T21:38:31Z</time>
      </trkpt>
      <trkpt lat="46.16297" lon="-1.34869">
        <ele>11.7</ele>
        <time>2020-05-31T21:38:32Z</time>
      </trkpt>
      <trkpt lat="46.16297" lon="-1.3487">
        <ele>11.7</ele>
        <time>2020-05-31T21:38:33Z</time>
      </trkpt>
      <trkpt lat="46.16298" lon="-1.3487">
        <ele>11.7</ele>
        <time>2020-05-31T21:38:34Z</time>
      </trkpt>
      <trkpt lat="46.16298" lon="-1.3487">
        <ele>11.7</ele>
        <time>2020-05-31T21:38:35Z</time>
      </trkpt>
      <trkpt lat="46.16298" lon="-1.34871">
        <ele>11.7</ele>
        <time>2020-05-31T21:38:36Z</time>
      </trkpt>
      <trkpt lat="46.16298" lon="-1.34871">
        <ele>11.7</ele>
        <time>2020-05-31T21:38:37Z</time>
      </trkpt>
      <trkpt lat="46.16299" lon="-1.3487">
        <ele>11.7</ele>
        <time>2020-05-31T21:38:38Z</time>
      </trkpt>
      <trkpt lat="46.16298" lon="-1.3487">
        <ele>11.7</ele>
        <time>2020-05-31T21:38:39Z</time>
      </trkpt>
      <trkpt lat="46.16298" lon="-1.3487">
        <ele>11.7</ele>
        <time>2020-05-31T21:38:40Z</time>
      </trkpt>
      <trkpt lat="46.16298" lon="-1.3487">
        <ele>11.7</ele>
        <time>2020-05-31T21:38:41Z</time>
      </trkpt>
      <trkpt lat="46.16298" lon="-1.3487">
        <ele>11.7</ele>
        <time>2020-05-31T21:38:42Z</time>
      </trkpt>
      <trkpt lat="46.16298" lon="-1.3487">
        <ele>11.7</ele>
        <time>2020-05-31T21:38:43Z</time>
      </trkpt>
      <trkpt lat="46.16296" lon="-1.34872">
        <ele>11.7</ele>
        <time>2020-05-31T21:38:44Z</time>
      </trkpt>
      <trkpt lat="46.16296" lon="-1.34872">
        <ele>11.7</ele>
        <time>2020-05-31T21:38:45Z</time>
      </trkpt>
      <trkpt lat="46.16297" lon="-1.34873">
        <ele>11.8</ele>
        <time>2020-05-31T21:38:46Z</time>
      </trkpt>
      <trkpt lat="46.16298" lon="-1.34875">
        <ele>11.7</ele>
        <time>2020-05-31T21:38:47Z</time>
      </trkpt>
      <trkpt lat="46.16299" lon="-1.34877">
        <ele>11.7</ele>
        <time>2020-05-31T21:38:48Z</time>
      </trkpt>
      <trkpt lat="46.163" lon="-1.34881">
        <ele>11.7</ele>
        <time>2020-05-31T21:38:49Z</time>
      </trkpt>
      <trkpt lat="46.16301" lon="-1.34886">
        <ele>11.7</ele>
        <time>2020-05-31T21:38:50Z</time>
      </trkpt>
      <trkpt lat="46.16302" lon="-1.3489">
        <ele>11.7</ele>
        <time>2020-05-31T21:38:51Z</time>
      </trkpt>
      <trkpt lat="46.16304" lon="-1.34894">
        <ele>11.7</ele>
        <time>2020-05-31T21:38:52Z</time>
      </trkpt>
      <trkpt lat="46.16305" lon="-1.34898">
        <ele>11.7</ele>
        <time>2020-05-31T21:38:53Z</time>
      </trkpt>
      <trkpt lat="46.16308" lon="-1.34902">
        <ele>11.7</ele>
        <time>2020-05-31T21:38:54Z</time>
      </trkpt>
      <trkpt lat="46.1631" lon="-1.34907">
        <ele>11.7</ele>
        <time>2020-05-31T21:38:55Z</time>
      </trkpt>
      <trkpt lat="46.16313" lon="-1.34912">
        <ele>11.7</ele>
        <time>2020-05-31T21:38:56Z</time>
      </trkpt>
      <trkpt lat="46.16316" lon="-1.34917">
        <ele>11.7</ele>
        <time>2020-05-31T21:38:57Z</time>
      </trkpt>
      <trkpt lat="46.16319" lon="-1.34923">
        <ele>11.7</ele>
        <time>2020-05-31T21:38:58Z</time>
      </trkpt>
      <trkpt lat="46.16322" lon="-1.34929">
        <ele>11.7</ele>
        <time>2020-05-31T21:38:59Z</time>
      </trkpt>
      <trkpt lat="46.16325" lon="-1.34935">
        <ele>11.7</ele>
        <time>2020-05-31T21:39:00Z</time>
      </trkpt>
      <trkpt lat="46.16328" lon="-1.34942">
        <ele>11.7</ele>
        <time>2020-05-31T21:39:01Z</time>
      </trkpt>
      <trkpt lat="46.16331" lon="-1.34947">
        <ele>11.7</ele>
        <time>2020-05-31T21:39:02Z</time>
      </trkpt>
      <trkpt lat="46.16334" lon="-1.34953">
        <ele>11.7</ele>
        <time>2020-05-31T21:39:03Z</time>
      </trkpt>
      <trkpt lat="46.16338" lon="-1.3496">
        <ele>11.6</ele>
        <time>2020-05-31T21:39:04Z</time>
      </trkpt>
      <trkpt lat="46.16341" lon="-1.34966">
        <ele>11.6</ele>
        <time>2020-05-31T21:39:05Z</time>
      </trkpt>
      <trkpt lat="46.16344" lon="-1.34973">
        <ele>11.5</ele>
        <time>2020-05-31T21:39:06Z</time>
      </trkpt>
      <trkpt lat="46.16348" lon="-1.34979">
        <ele>11.4</ele>
        <time>2020-05-31T21:39:07Z</time>
      </trkpt>
      <trkpt lat="46.16351" lon="-1.34986">
        <ele>11.3</ele>
        <time>2020-05-31T21:39:08Z</time>
      </trkpt>
      <trkpt lat="46.16353" lon="-1.34992">
        <ele>11.2</ele>
        <time>2020-05-31T21:39:09Z</time>
      </trkpt>
      <trkpt lat="46.16356" lon="-1.35">
        <ele>11.1</ele>
        <time>2020-05-31T21:39:10Z</time>
      </trkpt>
      <trkpt lat="46.16359" lon="-1.35007">
        <ele>11.1</ele>
        <time>2020-05-31T21:39:11Z</time>
      </trkpt>
      <trkpt lat="46.16363" lon="-1.35013">
        <ele>11</ele>
        <time>2020-05-31T21:39:12Z</time>
      </trkpt>
      <trkpt lat="46.16366" lon="-1.3502">
        <ele>11</ele>
        <time>2020-05-31T21:39:13Z</time>
      </trkpt>
      <trkpt lat="46.16369" lon="-1.35027">
        <ele>10.9</ele>
        <time>2020-05-31T21:39:14Z</time>
      </trkpt>
      <trkpt lat="46.16373" lon="-1.35034">
        <ele>10.9</ele>
        <time>2020-05-31T21:39:15Z</time>
      </trkpt>
      <trkpt lat="46.16377" lon="-1.35041">
        <ele>10.9</ele>
        <time>2020-05-31T21:39:16Z</time>
      </trkpt>
      <trkpt lat="46.1638" lon="-1.35047">
        <ele>10.9</ele>
        <time>2020-05-31T21:39:17Z</time>
      </trkpt>
      <trkpt lat="46.16383" lon="-1.35053">
        <ele>10.9</ele>
        <time>2020-05-31T21:39:18Z</time>
      </trkpt>
      <trkpt lat="46.16386" lon="-1.35059">
        <ele>10.8</ele>
        <time>2020-05-31T21:39:19Z</time>
      </trkpt>
      <trkpt lat="46.16389" lon="-1.35065">
        <ele>10.8</ele>
        <time>2020-05-31T21:39:20Z</time>
      </trkpt>
      <trkpt lat="46.16393" lon="-1.35071">
        <ele>10.8</ele>
        <time>2020-05-31T21:39:21Z</time>
      </trkpt>
      <trkpt lat="46.16396" lon="-1.35075">
        <ele>10.8</ele>
        <time>2020-05-31T21:39:22Z</time>
      </trkpt>
      <trkpt lat="46.16399" lon="-1.35079">
        <ele>10.8</ele>
        <time>2020-05-31T21:39:23Z</time>
      </trkpt>
      <trkpt lat="46.16401" lon="-1.35083">
        <ele>10.8</ele>
        <time>2020-05-31T21:39:24Z</time>
      </trkpt>
      <trkpt lat="46.16404" lon="-1.35087">
        <ele>10.8</ele>
        <time>2020-05-31T21:39:25Z</time>
      </trkpt>
      <trkpt lat="46.16406" lon="-1.35092">
        <ele>10.8</ele>
        <time>2020-05-31T21:39:26Z</time>
      </trkpt>
      <trkpt lat="46.16409" lon="-1.35097">
        <ele>10.7</ele>
        <time>2020-05-31T21:39:27Z</time>
      </trkpt>
      <trkpt lat="46.16411" lon="-1.35102">
        <ele>10.7</ele>
        <time>2020-05-31T21:39:28Z</time>
      </trkpt>
      <trkpt lat="46.16414" lon="-1.35107">
        <ele>10.7</ele>
        <time>2020-05-31T21:39:29Z</time>
      </trkpt>
      <trkpt lat="46.16417" lon="-1.35112">
        <ele>10.7</ele>
        <time>2020-05-31T21:39:30Z</time>
      </trkpt>
      <trkpt lat="46.1642" lon="-1.35118">
        <ele>10.7</ele>
        <time>2020-05-31T21:39:31Z</time>
      </trkpt>
      <trkpt lat="46.16424" lon="-1.35126">
        <ele>10.6</ele>
        <time>2020-05-31T21:39:32Z</time>
      </trkpt>
      <trkpt lat="46.16428" lon="-1.35133">
        <ele>10.6</ele>
        <time>2020-05-31T21:39:33Z</time>
      </trkpt>
      <trkpt lat="46.16432" lon="-1.3514">
        <ele>10.6</ele>
        <time>2020-05-31T21:39:34Z</time>
      </trkpt>
      <trkpt lat="46.16435" lon="-1.35146">
        <ele>10.5</ele>
        <time>2020-05-31T21:39:35Z</time>
      </trkpt>
      <trkpt lat="46.16439" lon="-1.35155">
        <ele>10.4</ele>
        <time>2020-05-31T21:39:36Z</time>
      </trkpt>
      <trkpt lat="46.16443" lon="-1.35162">
        <ele>10.4</ele>
        <time>2020-05-31T21:39:37Z</time>
      </trkpt>
      <trkpt lat="46.16446" lon="-1.35169">
        <ele>10.3</ele>
        <time>2020-05-31T21:39:38Z</time>
      </trkpt>
      <trkpt lat="46.16451" lon="-1.35176">
        <ele>10.3</ele>
        <time>2020-05-31T21:39:39Z</time>
      </trkpt>
      <trkpt lat="46.16454" lon="-1.35182">
        <ele>10.2</ele>
        <time>2020-05-31T21:39:40Z</time>
      </trkpt>
      <trkpt lat="46.16458" lon="-1.35189">
        <ele>10.2</ele>
        <time>2020-05-31T21:39:41Z</time>
      </trkpt>
      <trkpt lat="46.16463" lon="-1.35197">
        <ele>10.2</ele>
        <time>2020-05-31T21:39:42Z</time>
      </trkpt>
      <trkpt lat="46.16467" lon="-1.35203">
        <ele>10.1</ele>
        <time>2020-05-31T21:39:43Z</time>
      </trkpt>
      <trkpt lat="46.1647" lon="-1.3521">
        <ele>10.1</ele>
        <time>2020-05-31T21:39:44Z</time>
      </trkpt>
      <trkpt lat="46.16472" lon="-1.35218">
        <ele>10.1</ele>
        <time>2020-05-31T21:39:45Z</time>
      </trkpt>
      <trkpt lat="46.16474" lon="-1.35226">
        <ele>10.1</ele>
        <time>2020-05-31T21:39:46Z</time>
      </trkpt>
      <trkpt lat="46.16477" lon="-1.35234">
        <ele>10.1</ele>
        <time>2020-05-31T21:39:47Z</time>
      </trkpt>
      <trkpt lat="46.16479" lon="-1.35241">
        <ele>10.1</ele>
        <time>2020-05-31T21:39:48Z</time>
      </trkpt>
      <trkpt lat="46.16481" lon="-1.3525">
        <ele>10.1</ele>
        <time>2020-05-31T21:39:49Z</time>
      </trkpt>
      <trkpt lat="46.16483" lon="-1.35258">
        <ele>10</ele>
        <time>2020-05-31T21:39:50Z</time>
      </trkpt>
      <trkpt lat="46.16486" lon="-1.35267">
        <ele>10</ele>
        <time>2020-05-31T21:39:51Z</time>
      </trkpt>
      <trkpt lat="46.16488" lon="-1.35275">
        <ele>10</ele>
        <time>2020-05-31T21:39:52Z</time>
      </trkpt>
      <trkpt lat="46.16489" lon="-1.35284">
        <ele>10</ele>
        <time>2020-05-31T21:39:53Z</time>
      </trkpt>
      <trkpt lat="46.16491" lon="-1.35292">
        <ele>10</ele>
        <time>2020-05-31T21:39:54Z</time>
      </trkpt>
      <trkpt lat="46.16492" lon="-1.35302">
        <ele>9.9</ele>
        <time>2020-05-31T21:39:55Z</time>
      </trkpt>
      <trkpt lat="46.16493" lon="-1.3531">
        <ele>9.9</ele>
        <time>2020-05-31T21:39:56Z</time>
      </trkpt>
      <trkpt lat="46.16494" lon="-1.35319">
        <ele>9.8</ele>
        <time>2020-05-31T21:39:57Z</time>
      </trkpt>
      <trkpt lat="46.16495" lon="-1.35326">
        <ele>9.7</ele>
        <time>2020-05-31T21:39:58Z</time>
      </trkpt>
      <trkpt lat="46.16496" lon="-1.35335">
        <ele>9.7</ele>
        <time>2020-05-31T21:39:59Z</time>
      </trkpt>
      <trkpt lat="46.16497" lon="-1.35343">
        <ele>9.6</ele>
        <time>2020-05-31T21:40:00Z</time>
      </trkpt>
      <trkpt lat="46.16498" lon="-1.35352">
        <ele>9.5</ele>
        <time>2020-05-31T21:40:01Z</time>
      </trkpt>
      <trkpt lat="46.16499" lon="-1.35359">
        <ele>9.4</ele>
        <time>2020-05-31T21:40:02Z</time>
      </trkpt>
      <trkpt lat="46.16501" lon="-1.35368">
        <ele>9.3</ele>
        <time>2020-05-31T21:40:03Z</time>
      </trkpt>
      <trkpt lat="46.16503" lon="-1.35378">
        <ele>9.3</ele>
        <time>2020-05-31T21:40:04Z</time>
      </trkpt>
      <trkpt lat="46.16505" lon="-1.35387">
        <ele>9.2</ele>
        <time>2020-05-31T21:40:05Z</time>
      </trkpt>
      <trkpt lat="46.16507" lon="-1.35395">
        <ele>9.1</ele>
        <time>2020-05-31T21:40:06Z</time>
      </trkpt>
      <trkpt lat="46.16509" lon="-1.35402">
        <ele>9.1</ele>
        <time>2020-05-31T21:40:07Z</time>
      </trkpt>
      <trkpt lat="46.16511" lon="-1.3541">
        <ele>9.1</ele>
        <time>2020-05-31T21:40:08Z</time>
      </trkpt>
      <trkpt lat="46.16513" lon="-1.35418">
        <ele>9</ele>
        <time>2020-05-31T21:40:09Z</time>
      </trkpt>
      <trkpt lat="46.16515" lon="-1.35425">
        <ele>9</ele>
        <time>2020-05-31T21:40:10Z</time>
      </trkpt>
      <trkpt lat="46.16517" lon="-1.35434">
        <ele>9</ele>
        <time>2020-05-31T21:40:11Z</time>
      </trkpt>
      <trkpt lat="46.1652" lon="-1.35442">
        <ele>9</ele>
        <time>2020-05-31T21:40:12Z</time>
      </trkpt>
      <trkpt lat="46.16522" lon="-1.35449">
        <ele>9</ele>
        <time>2020-05-31T21:40:13Z</time>
      </trkpt>
      <trkpt lat="46.16525" lon="-1.35458">
        <ele>8.9</ele>
        <time>2020-05-31T21:40:14Z</time>
      </trkpt>
      <trkpt lat="46.16528" lon="-1.35466">
        <ele>8.9</ele>
        <time>2020-05-31T21:40:15Z</time>
      </trkpt>
      <trkpt lat="46.16531" lon="-1.35473">
        <ele>8.9</ele>
        <time>2020-05-31T21:40:16Z</time>
      </trkpt>
      <trkpt lat="46.16534" lon="-1.35475">
        <ele>8.9</ele>
        <time>2020-05-31T21:40:17Z</time>
      </trkpt>
      <trkpt lat="46.16538" lon="-1.35481">
        <ele>8.9</ele>
        <time>2020-05-31T21:40:18Z</time>
      </trkpt>
      <trkpt lat="46.16542" lon="-1.35489">
        <ele>8.8</ele>
        <time>2020-05-31T21:40:19Z</time>
      </trkpt>
      <trkpt lat="46.16545" lon="-1.35495">
        <ele>8.8</ele>
        <time>2020-05-31T21:40:20Z</time>
      </trkpt>
      <trkpt lat="46.16548" lon="-1.35502">
        <ele>8.6</ele>
        <time>2020-05-31T21:40:21Z</time>
      </trkpt>
      <trkpt lat="46.16552" lon="-1.35512">
        <ele>8.4</ele>
        <time>2020-05-31T21:40:22Z</time>
      </trkpt>
      <trkpt lat="46.16556" lon="-1.3552">
        <ele>8.2</ele>
        <time>2020-05-31T21:40:23Z</time>
      </trkpt>
      <trkpt lat="46.1656" lon="-1.35529">
        <ele>8.1</ele>
        <time>2020-05-31T21:40:24Z</time>
      </trkpt>
      <trkpt lat="46.16564" lon="-1.35537">
        <ele>8</ele>
        <time>2020-05-31T21:40:25Z</time>
      </trkpt>
      <trkpt lat="46.16569" lon="-1.35543">
        <ele>7.9</ele>
        <time>2020-05-31T21:40:26Z</time>
      </trkpt>
      <trkpt lat="46.16573" lon="-1.35552">
        <ele>7.8</ele>
        <time>2020-05-31T21:40:27Z</time>
      </trkpt>
      <trkpt lat="46.16576" lon="-1.35559">
        <ele>7.8</ele>
        <time>2020-05-31T21:40:28Z</time>
      </trkpt>
      <trkpt lat="46.1658" lon="-1.35566">
        <ele>7.7</ele>
        <time>2020-05-31T21:40:29Z</time>
      </trkpt>
      <trkpt lat="46.16584" lon="-1.35574">
        <ele>7.7</ele>
        <time>2020-05-31T21:40:30Z</time>
      </trkpt>
      <trkpt lat="46.16588" lon="-1.35583">
        <ele>7.6</ele>
        <time>2020-05-31T21:40:31Z</time>
      </trkpt>
      <trkpt lat="46.16592" lon="-1.35591">
        <ele>7.5</ele>
        <time>2020-05-31T21:40:32Z</time>
      </trkpt>
      <trkpt lat="46.16596" lon="-1.35599">
        <ele>7.5</ele>
        <time>2020-05-31T21:40:33Z</time>
      </trkpt>
      <trkpt lat="46.16601" lon="-1.35608">
        <ele>7.3</ele>
        <time>2020-05-31T21:40:34Z</time>
      </trkpt>
      <trkpt lat="46.16605" lon="-1.35615">
        <ele>7.2</ele>
        <time>2020-05-31T21:40:35Z</time>
      </trkpt>
      <trkpt lat="46.16609" lon="-1.35622">
        <ele>7.1</ele>
        <time>2020-05-31T21:40:36Z</time>
      </trkpt>
      <trkpt lat="46.16613" lon="-1.3563">
        <ele>7</ele>
        <time>2020-05-31T21:40:37Z</time>
      </trkpt>
      <trkpt lat="46.16617" lon="-1.35638">
        <ele>6.9</ele>
        <time>2020-05-31T21:40:38Z</time>
      </trkpt>
      <trkpt lat="46.16621" lon="-1.35646">
        <ele>6.9</ele>
        <time>2020-05-31T21:40:39Z</time>
      </trkpt>
      <trkpt lat="46.16626" lon="-1.35655">
        <ele>6.9</ele>
        <time>2020-05-31T21:40:40Z</time>
      </trkpt>
      <trkpt lat="46.16629" lon="-1.35662">
        <ele>6.9</ele>
        <time>2020-05-31T21:40:41Z</time>
      </trkpt>
      <trkpt lat="46.16633" lon="-1.3567">
        <ele>6.8</ele>
        <time>2020-05-31T21:40:42Z</time>
      </trkpt>
      <trkpt lat="46.16637" lon="-1.35677">
        <ele>6.8</ele>
        <time>2020-05-31T21:40:43Z</time>
      </trkpt>
      <trkpt lat="46.1664" lon="-1.35685">
        <ele>6.8</ele>
        <time>2020-05-31T21:40:44Z</time>
      </trkpt>
      <trkpt lat="46.16644" lon="-1.35692">
        <ele>6.7</ele>
        <time>2020-05-31T21:40:45Z</time>
      </trkpt>
      <trkpt lat="46.16648" lon="-1.357">
        <ele>6.6</ele>
        <time>2020-05-31T21:40:46Z</time>
      </trkpt>
      <trkpt lat="46.16651" lon="-1.35708">
        <ele>6.5</ele>
        <time>2020-05-31T21:40:47Z</time>
      </trkpt>
      <trkpt lat="46.16654" lon="-1.35717">
        <ele>6.4</ele>
        <time>2020-05-31T21:40:48Z</time>
      </trkpt>
      <trkpt lat="46.16658" lon="-1.35725">
        <ele>6.3</ele>
        <time>2020-05-31T21:40:49Z</time>
      </trkpt>
      <trkpt lat="46.16662" lon="-1.35733">
        <ele>6.2</ele>
        <time>2020-05-31T21:40:50Z</time>
      </trkpt>
      <trkpt lat="46.16665" lon="-1.3574">
        <ele>6.1</ele>
        <time>2020-05-31T21:40:51Z</time>
      </trkpt>
      <trkpt lat="46.16669" lon="-1.35748">
        <ele>6.1</ele>
        <time>2020-05-31T21:40:52Z</time>
      </trkpt>
      <trkpt lat="46.16672" lon="-1.35756">
        <ele>6.1</ele>
        <time>2020-05-31T21:40:53Z</time>
      </trkpt>
      <trkpt lat="46.16677" lon="-1.35762">
        <ele>6.1</ele>
        <time>2020-05-31T21:40:54Z</time>
      </trkpt>
      <trkpt lat="46.16681" lon="-1.35768">
        <ele>6.2</ele>
        <time>2020-05-31T21:40:55Z</time>
      </trkpt>
      <trkpt lat="46.16683" lon="-1.35775">
        <ele>6.2</ele>
        <time>2020-05-31T21:40:56Z</time>
      </trkpt>
      <trkpt lat="46.16686" lon="-1.35783">
        <ele>6.2</ele>
        <time>2020-05-31T21:40:57Z</time>
      </trkpt>
      <trkpt lat="46.16688" lon="-1.35791">
        <ele>6.2</ele>
        <time>2020-05-31T21:40:58Z</time>
      </trkpt>
      <trkpt lat="46.16689" lon="-1.35799">
        <ele>6.2</ele>
        <time>2020-05-31T21:40:59Z</time>
      </trkpt>
      <trkpt lat="46.1669" lon="-1.35807">
        <ele>6.2</ele>
        <time>2020-05-31T21:41:00Z</time>
      </trkpt>
      <trkpt lat="46.16693" lon="-1.35815">
        <ele>6.2</ele>
        <time>2020-05-31T21:41:01Z</time>
      </trkpt>
      <trkpt lat="46.16696" lon="-1.35822">
        <ele>6.2</ele>
        <time>2020-05-31T21:41:02Z</time>
      </trkpt>
      <trkpt lat="46.16699" lon="-1.35829">
        <ele>6.2</ele>
        <time>2020-05-31T21:41:03Z</time>
      </trkpt>
      <trkpt lat="46.16702" lon="-1.35836">
        <ele>6.3</ele>
        <time>2020-05-31T21:41:04Z</time>
      </trkpt>
      <trkpt lat="46.16705" lon="-1.35844">
        <ele>6.3</ele>
        <time>2020-05-31T21:41:05Z</time>
      </trkpt>
      <trkpt lat="46.16709" lon="-1.35851">
        <ele>6.3</ele>
        <time>2020-05-31T21:41:06Z</time>
      </trkpt>
      <trkpt lat="46.16713" lon="-1.35859">
        <ele>6.3</ele>
        <time>2020-05-31T21:41:07Z</time>
      </trkpt>
      <trkpt lat="46.16716" lon="-1.35867">
        <ele>6.4</ele>
        <time>2020-05-31T21:41:08Z</time>
      </trkpt>
      <trkpt lat="46.1672" lon="-1.35874">
        <ele>6.4</ele>
        <time>2020-05-31T21:41:09Z</time>
      </trkpt>
      <trkpt lat="46.16724" lon="-1.35881">
        <ele>6.4</ele>
        <time>2020-05-31T21:41:10Z</time>
      </trkpt>
      <trkpt lat="46.16727" lon="-1.35889">
        <ele>6.5</ele>
        <time>2020-05-31T21:41:11Z</time>
      </trkpt>
      <trkpt lat="46.16731" lon="-1.35896">
        <ele>6.6</ele>
        <time>2020-05-31T21:41:12Z</time>
      </trkpt>
      <trkpt lat="46.16734" lon="-1.35903">
        <ele>6.7</ele>
        <time>2020-05-31T21:41:13Z</time>
      </trkpt>
      <trkpt lat="46.16738" lon="-1.3591">
        <ele>6.7</ele>
        <time>2020-05-31T21:41:14Z</time>
      </trkpt>
      <trkpt lat="46.16742" lon="-1.35918">
        <ele>6.8</ele>
        <time>2020-05-31T21:41:15Z</time>
      </trkpt>
      <trkpt lat="46.16745" lon="-1.35926">
        <ele>6.9</ele>
        <time>2020-05-31T21:41:16Z</time>
      </trkpt>
      <trkpt lat="46.16748" lon="-1.35934">
        <ele>6.9</ele>
        <time>2020-05-31T21:41:17Z</time>
      </trkpt>
      <trkpt lat="46.16752" lon="-1.35942">
        <ele>7</ele>
        <time>2020-05-31T21:41:18Z</time>
      </trkpt>
      <trkpt lat="46.16756" lon="-1.3595">
        <ele>7</ele>
        <time>2020-05-31T21:41:19Z</time>
      </trkpt>
      <trkpt lat="46.1676" lon="-1.35956">
        <ele>7.1</ele>
        <time>2020-05-31T21:41:20Z</time>
      </trkpt>
      <trkpt lat="46.16763" lon="-1.35963">
        <ele>7.1</ele>
        <time>2020-05-31T21:41:21Z</time>
      </trkpt>
      <trkpt lat="46.16765" lon="-1.35969">
        <ele>7.1</ele>
        <time>2020-05-31T21:41:22Z</time>
      </trkpt>
      <trkpt lat="46.16768" lon="-1.35974">
        <ele>7.1</ele>
        <time>2020-05-31T21:41:23Z</time>
      </trkpt>
      <trkpt lat="46.16772" lon="-1.35982">
        <ele>7.1</ele>
        <time>2020-05-31T21:41:24Z</time>
      </trkpt>
      <trkpt lat="46.16774" lon="-1.35988">
        <ele>7.1</ele>
        <time>2020-05-31T21:41:25Z</time>
      </trkpt>
      <trkpt lat="46.16777" lon="-1.35994">
        <ele>7.1</ele>
        <time>2020-05-31T21:41:26Z</time>
      </trkpt>
      <trkpt lat="46.1678" lon="-1.36001">
        <ele>7.2</ele>
        <time>2020-05-31T21:41:27Z</time>
      </trkpt>
      <trkpt lat="46.16784" lon="-1.36008">
        <ele>7.2</ele>
        <time>2020-05-31T21:41:28Z</time>
      </trkpt>
      <trkpt lat="46.16786" lon="-1.36016">
        <ele>7.2</ele>
        <time>2020-05-31T21:41:29Z</time>
      </trkpt>
      <trkpt lat="46.16789" lon="-1.36022">
        <ele>7.3</ele>
        <time>2020-05-31T21:41:30Z</time>
      </trkpt>
      <trkpt lat="46.16791" lon="-1.36027">
        <ele>7.4</ele>
        <time>2020-05-31T21:41:31Z</time>
      </trkpt>
      <trkpt lat="46.16795" lon="-1.36032">
        <ele>7.4</ele>
        <time>2020-05-31T21:41:32Z</time>
      </trkpt>
      <trkpt lat="46.16797" lon="-1.36039">
        <ele>7.5</ele>
        <time>2020-05-31T21:41:33Z</time>
      </trkpt>
      <trkpt lat="46.168" lon="-1.36046">
        <ele>7.5</ele>
        <time>2020-05-31T21:41:34Z</time>
      </trkpt>
      <trkpt lat="46.16803" lon="-1.36054">
        <ele>7.6</ele>
        <time>2020-05-31T21:41:35Z</time>
      </trkpt>
      <trkpt lat="46.16806" lon="-1.3606">
        <ele>7.7</ele>
        <time>2020-05-31T21:41:36Z</time>
      </trkpt>
      <trkpt lat="46.1681" lon="-1.3607">
        <ele>7.7</ele>
        <time>2020-05-31T21:41:37Z</time>
      </trkpt>
      <trkpt lat="46.16813" lon="-1.36077">
        <ele>7.7</ele>
        <time>2020-05-31T21:41:38Z</time>
      </trkpt>
      <trkpt lat="46.16816" lon="-1.36084">
        <ele>7.7</ele>
        <time>2020-05-31T21:41:39Z</time>
      </trkpt>
      <trkpt lat="46.16819" lon="-1.36091">
        <ele>7.7</ele>
        <time>2020-05-31T21:41:40Z</time>
      </trkpt>
      <trkpt lat="46.16822" lon="-1.36098">
        <ele>7.7</ele>
        <time>2020-05-31T21:41:41Z</time>
      </trkpt>
      <trkpt lat="46.16826" lon="-1.36106">
        <ele>7.7</ele>
        <time>2020-05-31T21:41:42Z</time>
      </trkpt>
      <trkpt lat="46.1683" lon="-1.36113">
        <ele>7.7</ele>
        <time>2020-05-31T21:41:43Z</time>
      </trkpt>
      <trkpt lat="46.16833" lon="-1.36118">
        <ele>7.7</ele>
        <time>2020-05-31T21:41:44Z</time>
      </trkpt>
      <trkpt lat="46.16837" lon="-1.36124">
        <ele>7.8</ele>
        <time>2020-05-31T21:41:45Z</time>
      </trkpt>
      <trkpt lat="46.1684" lon="-1.36129">
        <ele>7.8</ele>
        <time>2020-05-31T21:41:46Z</time>
      </trkpt>
      <trkpt lat="46.16844" lon="-1.36135">
        <ele>7.8</ele>
        <time>2020-05-31T21:41:47Z</time>
      </trkpt>
      <trkpt lat="46.16847" lon="-1.3614">
        <ele>7.8</ele>
        <time>2020-05-31T21:41:48Z</time>
      </trkpt>
      <trkpt lat="46.16851" lon="-1.36145">
        <ele>7.8</ele>
        <time>2020-05-31T21:41:49Z</time>
      </trkpt>
      <trkpt lat="46.16854" lon="-1.36151">
        <ele>7.8</ele>
        <time>2020-05-31T21:41:50Z</time>
      </trkpt>
      <trkpt lat="46.16858" lon="-1.36156">
        <ele>7.8</ele>
        <time>2020-05-31T21:41:51Z</time>
      </trkpt>
      <trkpt lat="46.16862" lon="-1.36162">
        <ele>7.8</ele>
        <time>2020-05-31T21:41:52Z</time>
      </trkpt>
      <trkpt lat="46.16866" lon="-1.36167">
        <ele>7.8</ele>
        <time>2020-05-31T21:41:53Z</time>
      </trkpt>
      <trkpt lat="46.16873" lon="-1.36173">
        <ele>7.8</ele>
        <time>2020-05-31T21:41:54Z</time>
      </trkpt>
      <trkpt lat="46.16878" lon="-1.36177">
        <ele>7.8</ele>
        <time>2020-05-31T21:41:55Z</time>
      </trkpt>
      <trkpt lat="46.16884" lon="-1.36182">
        <ele>7.8</ele>
        <time>2020-05-31T21:41:56Z</time>
      </trkpt>
      <trkpt lat="46.1689" lon="-1.36187">
        <ele>7.8</ele>
        <time>2020-05-31T21:41:57Z</time>
      </trkpt>
      <trkpt lat="46.16894" lon="-1.36192">
        <ele>7.8</ele>
        <time>2020-05-31T21:41:58Z</time>
      </trkpt>
      <trkpt lat="46.16899" lon="-1.36197">
        <ele>7.8</ele>
        <time>2020-05-31T21:41:59Z</time>
      </trkpt>
      <trkpt lat="46.16903" lon="-1.362">
        <ele>7.9</ele>
        <time>2020-05-31T21:42:00Z</time>
      </trkpt>
      <trkpt lat="46.16907" lon="-1.36204">
        <ele>7.9</ele>
        <time>2020-05-31T21:42:01Z</time>
      </trkpt>
      <trkpt lat="46.16912" lon="-1.36207">
        <ele>7.9</ele>
        <time>2020-05-31T21:42:02Z</time>
      </trkpt>
      <trkpt lat="46.16916" lon="-1.3621">
        <ele>7.9</ele>
        <time>2020-05-31T21:42:03Z</time>
      </trkpt>
      <trkpt lat="46.16922" lon="-1.36215">
        <ele>8</ele>
        <time>2020-05-31T21:42:04Z</time>
      </trkpt>
      <trkpt lat="46.16927" lon="-1.36217">
        <ele>8</ele>
        <time>2020-05-31T21:42:05Z</time>
      </trkpt>
      <trkpt lat="46.16932" lon="-1.3622">
        <ele>8.1</ele>
        <time>2020-05-31T21:42:06Z</time>
      </trkpt>
      <trkpt lat="46.16937" lon="-1.36223">
        <ele>8.1</ele>
        <time>2020-05-31T21:42:07Z</time>
      </trkpt>
      <trkpt lat="46.16942" lon="-1.36225">
        <ele>8.2</ele>
        <time>2020-05-31T21:42:08Z</time>
      </trkpt>
      <trkpt lat="46.16946" lon="-1.36229">
        <ele>8.2</ele>
        <time>2020-05-31T21:42:09Z</time>
      </trkpt>
      <trkpt lat="46.16951" lon="-1.36232">
        <ele>8.3</ele>
        <time>2020-05-31T21:42:10Z</time>
      </trkpt>
      <trkpt lat="46.16957" lon="-1.36236">
        <ele>8.3</ele>
        <time>2020-05-31T21:42:11Z</time>
      </trkpt>
      <trkpt lat="46.16962" lon="-1.36238">
        <ele>8.4</ele>
        <time>2020-05-31T21:42:12Z</time>
      </trkpt>
      <trkpt lat="46.16966" lon="-1.36241">
        <ele>8.4</ele>
        <time>2020-05-31T21:42:13Z</time>
      </trkpt>
      <trkpt lat="46.16971" lon="-1.36244">
        <ele>8.4</ele>
        <time>2020-05-31T21:42:14Z</time>
      </trkpt>
      <trkpt lat="46.16978" lon="-1.36247">
        <ele>8.4</ele>
        <time>2020-05-31T21:42:15Z</time>
      </trkpt>
      <trkpt lat="46.16983" lon="-1.36249">
        <ele>8.4</ele>
        <time>2020-05-31T21:42:16Z</time>
      </trkpt>
      <trkpt lat="46.16988" lon="-1.36251">
        <ele>8.4</ele>
        <time>2020-05-31T21:42:17Z</time>
      </trkpt>
      <trkpt lat="46.16993" lon="-1.36254">
        <ele>8.4</ele>
        <time>2020-05-31T21:42:18Z</time>
      </trkpt>
      <trkpt lat="46.16997" lon="-1.36257">
        <ele>8.5</ele>
        <time>2020-05-31T21:42:19Z</time>
      </trkpt>
      <trkpt lat="46.17002" lon="-1.36259">
        <ele>8.5</ele>
        <time>2020-05-31T21:42:20Z</time>
      </trkpt>
      <trkpt lat="46.17007" lon="-1.3626">
        <ele>8.5</ele>
        <time>2020-05-31T21:42:21Z</time>
      </trkpt>
      <trkpt lat="46.17013" lon="-1.36264">
        <ele>8.5</ele>
        <time>2020-05-31T21:42:22Z</time>
      </trkpt>
      <trkpt lat="46.17017" lon="-1.36266">
        <ele>8.4</ele>
        <time>2020-05-31T21:42:23Z</time>
      </trkpt>
      <trkpt lat="46.17022" lon="-1.36268">
        <ele>8.4</ele>
        <time>2020-05-31T21:42:24Z</time>
      </trkpt>
      <trkpt lat="46.17027" lon="-1.3627">
        <ele>8.4</ele>
        <time>2020-05-31T21:42:25Z</time>
      </trkpt>
      <trkpt lat="46.17032" lon="-1.36273">
        <ele>8.4</ele>
        <time>2020-05-31T21:42:26Z</time>
      </trkpt>
      <trkpt lat="46.17037" lon="-1.36276">
        <ele>8.4</ele>
        <time>2020-05-31T21:42:27Z</time>
      </trkpt>
      <trkpt lat="46.17043" lon="-1.3628">
        <ele>8.4</ele>
        <time>2020-05-31T21:42:28Z</time>
      </trkpt>
      <trkpt lat="46.17049" lon="-1.36284">
        <ele>8.4</ele>
        <time>2020-05-31T21:42:29Z</time>
      </trkpt>
      <trkpt lat="46.17055" lon="-1.36287">
        <ele>8.4</ele>
        <time>2020-05-31T21:42:30Z</time>
      </trkpt>
      <trkpt lat="46.17059" lon="-1.36291">
        <ele>8.3</ele>
        <time>2020-05-31T21:42:31Z</time>
      </trkpt>
      <trkpt lat="46.17065" lon="-1.36293">
        <ele>8.3</ele>
        <time>2020-05-31T21:42:32Z</time>
      </trkpt>
      <trkpt lat="46.17072" lon="-1.36299">
        <ele>8.1</ele>
        <time>2020-05-31T21:42:33Z</time>
      </trkpt>
      <trkpt lat="46.17077" lon="-1.36303">
        <ele>8</ele>
        <time>2020-05-31T21:42:34Z</time>
      </trkpt>
      <trkpt lat="46.17083" lon="-1.36306">
        <ele>7.9</ele>
        <time>2020-05-31T21:42:35Z</time>
      </trkpt>
      <trkpt lat="46.17087" lon="-1.36309">
        <ele>7.7</ele>
        <time>2020-05-31T21:42:36Z</time>
      </trkpt>
      <trkpt lat="46.17092" lon="-1.36314">
        <ele>7.6</ele>
        <time>2020-05-31T21:42:37Z</time>
      </trkpt>
      <trkpt lat="46.17097" lon="-1.36318">
        <ele>7.5</ele>
        <time>2020-05-31T21:42:38Z</time>
      </trkpt>
      <trkpt lat="46.17102" lon="-1.36323">
        <ele>7.4</ele>
        <time>2020-05-31T21:42:39Z</time>
      </trkpt>
      <trkpt lat="46.17106" lon="-1.36327">
        <ele>7.3</ele>
        <time>2020-05-31T21:42:40Z</time>
      </trkpt>
      <trkpt lat="46.17112" lon="-1.36331">
        <ele>7.1</ele>
        <time>2020-05-31T21:42:41Z</time>
      </trkpt>
      <trkpt lat="46.17117" lon="-1.36337">
        <ele>7</ele>
        <time>2020-05-31T21:42:42Z</time>
      </trkpt>
      <trkpt lat="46.17122" lon="-1.3634">
        <ele>6.8</ele>
        <time>2020-05-31T21:42:43Z</time>
      </trkpt>
      <trkpt lat="46.17126" lon="-1.36345">
        <ele>6.7</ele>
        <time>2020-05-31T21:42:44Z</time>
      </trkpt>
      <trkpt lat="46.17131" lon="-1.36349">
        <ele>6.5</ele>
        <time>2020-05-31T21:42:45Z</time>
      </trkpt>
      <trkpt lat="46.17137" lon="-1.36356">
        <ele>6.3</ele>
        <time>2020-05-31T21:42:46Z</time>
      </trkpt>
      <trkpt lat="46.17142" lon="-1.36362">
        <ele>6.1</ele>
        <time>2020-05-31T21:42:47Z</time>
      </trkpt>
      <trkpt lat="46.17147" lon="-1.36368">
        <ele>6</ele>
        <time>2020-05-31T21:42:48Z</time>
      </trkpt>
      <trkpt lat="46.17152" lon="-1.36375">
        <ele>5.9</ele>
        <time>2020-05-31T21:42:49Z</time>
      </trkpt>
      <trkpt lat="46.17158" lon="-1.36381">
        <ele>5.8</ele>
        <time>2020-05-31T21:42:50Z</time>
      </trkpt>
      <trkpt lat="46.17163" lon="-1.36388">
        <ele>5.7</ele>
        <time>2020-05-31T21:42:51Z</time>
      </trkpt>
      <trkpt lat="46.17168" lon="-1.36394">
        <ele>5.5</ele>
        <time>2020-05-31T21:42:52Z</time>
      </trkpt>
      <trkpt lat="46.17174" lon="-1.364">
        <ele>5.4</ele>
        <time>2020-05-31T21:42:53Z</time>
      </trkpt>
      <trkpt lat="46.17179" lon="-1.36406">
        <ele>5.3</ele>
        <time>2020-05-31T21:42:54Z</time>
      </trkpt>
      <trkpt lat="46.17184" lon="-1.36412">
        <ele>5.2</ele>
        <time>2020-05-31T21:42:55Z</time>
      </trkpt>
      <trkpt lat="46.1719" lon="-1.36417">
        <ele>5.1</ele>
        <time>2020-05-31T21:42:56Z</time>
      </trkpt>
      <trkpt lat="46.17195" lon="-1.36423">
        <ele>5.1</ele>
        <time>2020-05-31T21:42:57Z</time>
      </trkpt>
      <trkpt lat="46.172" lon="-1.36428">
        <ele>5.1</ele>
        <time>2020-05-31T21:42:58Z</time>
      </trkpt>
      <trkpt lat="46.17205" lon="-1.36433">
        <ele>5.1</ele>
        <time>2020-05-31T21:42:59Z</time>
      </trkpt>
      <trkpt lat="46.1721" lon="-1.36438">
        <ele>5.1</ele>
        <time>2020-05-31T21:43:00Z</time>
      </trkpt>
      <trkpt lat="46.17216" lon="-1.36443">
        <ele>5.1</ele>
        <time>2020-05-31T21:43:01Z</time>
      </trkpt>
      <trkpt lat="46.17221" lon="-1.36448">
        <ele>5.2</ele>
        <time>2020-05-31T21:43:02Z</time>
      </trkpt>
      <trkpt lat="46.17226" lon="-1.36453">
        <ele>5.3</ele>
        <time>2020-05-31T21:43:03Z</time>
      </trkpt>
      <trkpt lat="46.1723" lon="-1.36458">
        <ele>5.3</ele>
        <time>2020-05-31T21:43:04Z</time>
      </trkpt>
      <trkpt lat="46.17234" lon="-1.36463">
        <ele>5.4</ele>
        <time>2020-05-31T21:43:05Z</time>
      </trkpt>
      <trkpt lat="46.17239" lon="-1.36466">
        <ele>5.5</ele>
        <time>2020-05-31T21:43:06Z</time>
      </trkpt>
      <trkpt lat="46.17243" lon="-1.3647">
        <ele>5.6</ele>
        <time>2020-05-31T21:43:07Z</time>
      </trkpt>
      <trkpt lat="46.17247" lon="-1.36474">
        <ele>5.7</ele>
        <time>2020-05-31T21:43:08Z</time>
      </trkpt>
      <trkpt lat="46.17251" lon="-1.36478">
        <ele>5.9</ele>
        <time>2020-05-31T21:43:09Z</time>
      </trkpt>
      <trkpt lat="46.17254" lon="-1.3648">
        <ele>5.9</ele>
        <time>2020-05-31T21:43:10Z</time>
      </trkpt>
      <trkpt lat="46.1726" lon="-1.36487">
        <ele>6.1</ele>
        <time>2020-05-31T21:43:11Z</time>
      </trkpt>
      <trkpt lat="46.17263" lon="-1.36489">
        <ele>6.2</ele>
        <time>2020-05-31T21:43:12Z</time>
      </trkpt>
      <trkpt lat="46.17266" lon="-1.36492">
        <ele>6.3</ele>
        <time>2020-05-31T21:43:13Z</time>
      </trkpt>
      <trkpt lat="46.1727" lon="-1.36496">
        <ele>6.4</ele>
        <time>2020-05-31T21:43:14Z</time>
      </trkpt>
      <trkpt lat="46.17274" lon="-1.36501">
        <ele>6.5</ele>
        <time>2020-05-31T21:43:15Z</time>
      </trkpt>
      <trkpt lat="46.17278" lon="-1.36506">
        <ele>6.6</ele>
        <time>2020-05-31T21:43:16Z</time>
      </trkpt>
      <trkpt lat="46.17282" lon="-1.3651">
        <ele>6.7</ele>
        <time>2020-05-31T21:43:17Z</time>
      </trkpt>
      <trkpt lat="46.17285" lon="-1.36514">
        <ele>6.8</ele>
        <time>2020-05-31T21:43:18Z</time>
      </trkpt>
      <trkpt lat="46.17289" lon="-1.36518">
        <ele>6.9</ele>
        <time>2020-05-31T21:43:19Z</time>
      </trkpt>
      <trkpt lat="46.17292" lon="-1.36522">
        <ele>6.9</ele>
        <time>2020-05-31T21:43:20Z</time>
      </trkpt>
      <trkpt lat="46.17296" lon="-1.36527">
        <ele>7</ele>
        <time>2020-05-31T21:43:21Z</time>
      </trkpt>
      <trkpt lat="46.173" lon="-1.36532">
        <ele>7.1</ele>
        <time>2020-05-31T21:43:22Z</time>
      </trkpt>
      <trkpt lat="46.17304" lon="-1.36536">
        <ele>7.1</ele>
        <time>2020-05-31T21:43:23Z</time>
      </trkpt>
      <trkpt lat="46.17306" lon="-1.36542">
        <ele>7.2</ele>
        <time>2020-05-31T21:43:24Z</time>
      </trkpt>
      <trkpt lat="46.17308" lon="-1.36547">
        <ele>7.2</ele>
        <time>2020-05-31T21:43:25Z</time>
      </trkpt>
      <trkpt lat="46.17313" lon="-1.36553">
        <ele>7.3</ele>
        <time>2020-05-31T21:43:26Z</time>
      </trkpt>
      <trkpt lat="46.17317" lon="-1.36558">
        <ele>7.4</ele>
        <time>2020-05-31T21:43:27Z</time>
      </trkpt>
      <trkpt lat="46.17321" lon="-1.36561">
        <ele>7.5</ele>
        <time>2020-05-31T21:43:28Z</time>
      </trkpt>
      <trkpt lat="46.17324" lon="-1.36565">
        <ele>7.5</ele>
        <time>2020-05-31T21:43:29Z</time>
      </trkpt>
      <trkpt lat="46.17327" lon="-1.36569">
        <ele>7.6</ele>
        <time>2020-05-31T21:43:30Z</time>
      </trkpt>
      <trkpt lat="46.17329" lon="-1.36574">
        <ele>7.6</ele>
        <time>2020-05-31T21:43:31Z</time>
      </trkpt>
      <trkpt lat="46.17333" lon="-1.36579">
        <ele>7.7</ele>
        <time>2020-05-31T21:43:32Z</time>
      </trkpt>
      <trkpt lat="46.17337" lon="-1.36585">
        <ele>7.7</ele>
        <time>2020-05-31T21:43:33Z</time>
      </trkpt>
      <trkpt lat="46.1734" lon="-1.36589">
        <ele>7.7</ele>
        <time>2020-05-31T21:43:34Z</time>
      </trkpt>
      <trkpt lat="46.17342" lon="-1.36593">
        <ele>7.7</ele>
        <time>2020-05-31T21:43:35Z</time>
      </trkpt>
      <trkpt lat="46.17344" lon="-1.36599">
        <ele>7.8</ele>
        <time>2020-05-31T21:43:36Z</time>
      </trkpt>
      <trkpt lat="46.17348" lon="-1.36604">
        <ele>7.9</ele>
        <time>2020-05-31T21:43:37Z</time>
      </trkpt>
      <trkpt lat="46.17351" lon="-1.36609">
        <ele>7.9</ele>
        <time>2020-05-31T21:43:38Z</time>
      </trkpt>
      <trkpt lat="46.17355" lon="-1.36617">
        <ele>8.1</ele>
        <time>2020-05-31T21:43:39Z</time>
      </trkpt>
      <trkpt lat="46.17358" lon="-1.36621">
        <ele>8.2</ele>
        <time>2020-05-31T21:43:40Z</time>
      </trkpt>
      <trkpt lat="46.17362" lon="-1.36626">
        <ele>8.3</ele>
        <time>2020-05-31T21:43:41Z</time>
      </trkpt>
      <trkpt lat="46.17365" lon="-1.3663">
        <ele>8.4</ele>
        <time>2020-05-31T21:43:42Z</time>
      </trkpt>
      <trkpt lat="46.17369" lon="-1.36635">
        <ele>8.6</ele>
        <time>2020-05-31T21:43:43Z</time>
      </trkpt>
      <trkpt lat="46.17371" lon="-1.36641">
        <ele>8.6</ele>
        <time>2020-05-31T21:43:44Z</time>
      </trkpt>
      <trkpt lat="46.17374" lon="-1.36646">
        <ele>8.7</ele>
        <time>2020-05-31T21:43:45Z</time>
      </trkpt>
      <trkpt lat="46.17377" lon="-1.3665">
        <ele>8.7</ele>
        <time>2020-05-31T21:43:46Z</time>
      </trkpt>
      <trkpt lat="46.17379" lon="-1.36653">
        <ele>8.8</ele>
        <time>2020-05-31T21:43:47Z</time>
      </trkpt>
      <trkpt lat="46.17382" lon="-1.3666">
        <ele>8.8</ele>
        <time>2020-05-31T21:43:48Z</time>
      </trkpt>
      <trkpt lat="46.17384" lon="-1.36664">
        <ele>8.8</ele>
        <time>2020-05-31T21:43:49Z</time>
      </trkpt>
      <trkpt lat="46.17387" lon="-1.36669">
        <ele>8.8</ele>
        <time>2020-05-31T21:43:50Z</time>
      </trkpt>
      <trkpt lat="46.17389" lon="-1.36673">
        <ele>8.9</ele>
        <time>2020-05-31T21:43:51Z</time>
      </trkpt>
      <trkpt lat="46.17392" lon="-1.36678">
        <ele>8.9</ele>
        <time>2020-05-31T21:43:52Z</time>
      </trkpt>
      <trkpt lat="46.17394" lon="-1.36683">
        <ele>8.9</ele>
        <time>2020-05-31T21:43:53Z</time>
      </trkpt>
      <trkpt lat="46.17397" lon="-1.36688">
        <ele>8.9</ele>
        <time>2020-05-31T21:43:54Z</time>
      </trkpt>
      <trkpt lat="46.17399" lon="-1.36694">
        <ele>9</ele>
        <time>2020-05-31T21:43:55Z</time>
      </trkpt>
      <trkpt lat="46.17402" lon="-1.36699">
        <ele>9</ele>
        <time>2020-05-31T21:43:56Z</time>
      </trkpt>
      <trkpt lat="46.17405" lon="-1.36705">
        <ele>9.1</ele>
        <time>2020-05-31T21:43:57Z</time>
      </trkpt>
      <trkpt lat="46.17407" lon="-1.3671">
        <ele>9.1</ele>
        <time>2020-05-31T21:43:58Z</time>
      </trkpt>
      <trkpt lat="46.17411" lon="-1.36715">
        <ele>9.2</ele>
        <time>2020-05-31T21:43:59Z</time>
      </trkpt>
      <trkpt lat="46.17414" lon="-1.3672">
        <ele>9.2</ele>
        <time>2020-05-31T21:44:00Z</time>
      </trkpt>
      <trkpt lat="46.17418" lon="-1.36725">
        <ele>9.3</ele>
        <time>2020-05-31T21:44:01Z</time>
      </trkpt>
      <trkpt lat="46.1742" lon="-1.3673">
        <ele>9.3</ele>
        <time>2020-05-31T21:44:02Z</time>
      </trkpt>
      <trkpt lat="46.17422" lon="-1.36735">
        <ele>9.4</ele>
        <time>2020-05-31T21:44:03Z</time>
      </trkpt>
      <trkpt lat="46.17426" lon="-1.36739">
        <ele>9.4</ele>
        <time>2020-05-31T21:44:04Z</time>
      </trkpt>
      <trkpt lat="46.17428" lon="-1.36742">
        <ele>9.4</ele>
        <time>2020-05-31T21:44:05Z</time>
      </trkpt>
      <trkpt lat="46.17432" lon="-1.36742">
        <ele>9.5</ele>
        <time>2020-05-31T21:44:06Z</time>
      </trkpt>
      <trkpt lat="46.17433" lon="-1.36744">
        <ele>9.5</ele>
        <time>2020-05-31T21:44:07Z</time>
      </trkpt>
      <trkpt lat="46.17437" lon="-1.36748">
        <ele>9.5</ele>
        <time>2020-05-31T21:44:08Z</time>
      </trkpt>
      <trkpt lat="46.17441" lon="-1.36753">
        <ele>9.6</ele>
        <time>2020-05-31T21:44:09Z</time>
      </trkpt>
      <trkpt lat="46.17446" lon="-1.36759">
        <ele>9.6</ele>
        <time>2020-05-31T21:44:10Z</time>
      </trkpt>
      <trkpt lat="46.1745" lon="-1.36763">
        <ele>9.7</ele>
        <time>2020-05-31T21:44:11Z</time>
      </trkpt>
      <trkpt lat="46.17454" lon="-1.36766">
        <ele>9.7</ele>
        <time>2020-05-31T21:44:12Z</time>
      </trkpt>
      <trkpt lat="46.17457" lon="-1.3677">
        <ele>9.8</ele>
        <time>2020-05-31T21:44:13Z</time>
      </trkpt>
      <trkpt lat="46.17461" lon="-1.36774">
        <ele>9.8</ele>
        <time>2020-05-31T21:44:14Z</time>
      </trkpt>
      <trkpt lat="46.17465" lon="-1.36777">
        <ele>9.8</ele>
        <time>2020-05-31T21:44:15Z</time>
      </trkpt>
      <trkpt lat="46.17468" lon="-1.36783">
        <ele>9.8</ele>
        <time>2020-05-31T21:44:16Z</time>
      </trkpt>
      <trkpt lat="46.17473" lon="-1.36785">
        <ele>9.8</ele>
        <time>2020-05-31T21:44:17Z</time>
      </trkpt>
      <trkpt lat="46.17478" lon="-1.36787">
        <ele>9.8</ele>
        <time>2020-05-31T21:44:18Z</time>
      </trkpt>
      <trkpt lat="46.17483" lon="-1.36788">
        <ele>9.8</ele>
        <time>2020-05-31T21:44:19Z</time>
      </trkpt>
      <trkpt lat="46.17487" lon="-1.36791">
        <ele>9.8</ele>
        <time>2020-05-31T21:44:20Z</time>
      </trkpt>
      <trkpt lat="46.17492" lon="-1.36796">
        <ele>9.8</ele>
        <time>2020-05-31T21:44:21Z</time>
      </trkpt>
      <trkpt lat="46.17497" lon="-1.36799">
        <ele>9.8</ele>
        <time>2020-05-31T21:44:22Z</time>
      </trkpt>
      <trkpt lat="46.17502" lon="-1.36802">
        <ele>9.8</ele>
        <time>2020-05-31T21:44:23Z</time>
      </trkpt>
      <trkpt lat="46.17506" lon="-1.36804">
        <ele>9.8</ele>
        <time>2020-05-31T21:44:24Z</time>
      </trkpt>
      <trkpt lat="46.17511" lon="-1.36807">
        <ele>9.8</ele>
        <time>2020-05-31T21:44:25Z</time>
      </trkpt>
      <trkpt lat="46.17515" lon="-1.36809">
        <ele>9.8</ele>
        <time>2020-05-31T21:44:26Z</time>
      </trkpt>
      <trkpt lat="46.17521" lon="-1.36814">
        <ele>9.8</ele>
        <time>2020-05-31T21:44:27Z</time>
      </trkpt>
      <trkpt lat="46.17525" lon="-1.36817">
        <ele>9.8</ele>
        <time>2020-05-31T21:44:28Z</time>
      </trkpt>
      <trkpt lat="46.1753" lon="-1.3682">
        <ele>9.8</ele>
        <time>2020-05-31T21:44:29Z</time>
      </trkpt>
      <trkpt lat="46.17535" lon="-1.36824">
        <ele>9.8</ele>
        <time>2020-05-31T21:44:30Z</time>
      </trkpt>
      <trkpt lat="46.1754" lon="-1.36828">
        <ele>9.8</ele>
        <time>2020-05-31T21:44:31Z</time>
      </trkpt>
      <trkpt lat="46.17545" lon="-1.36832">
        <ele>9.8</ele>
        <time>2020-05-31T21:44:32Z</time>
      </trkpt>
      <trkpt lat="46.1755" lon="-1.36835">
        <ele>9.8</ele>
        <time>2020-05-31T21:44:33Z</time>
      </trkpt>
      <trkpt lat="46.17554" lon="-1.36838">
        <ele>9.8</ele>
        <time>2020-05-31T21:44:34Z</time>
      </trkpt>
      <trkpt lat="46.17558" lon="-1.36842">
        <ele>9.8</ele>
        <time>2020-05-31T21:44:35Z</time>
      </trkpt>
      <trkpt lat="46.17559" lon="-1.36845">
        <ele>9.8</ele>
        <time>2020-05-31T21:44:36Z</time>
      </trkpt>
      <trkpt lat="46.17564" lon="-1.3685">
        <ele>9.8</ele>
        <time>2020-05-31T21:44:37Z</time>
      </trkpt>
      <trkpt lat="46.1757" lon="-1.36856">
        <ele>9.8</ele>
        <time>2020-05-31T21:44:38Z</time>
      </trkpt>
      <trkpt lat="46.17574" lon="-1.36862">
        <ele>9.8</ele>
        <time>2020-05-31T21:44:39Z</time>
      </trkpt>
      <trkpt lat="46.17579" lon="-1.36865">
        <ele>9.8</ele>
        <time>2020-05-31T21:44:40Z</time>
      </trkpt>
      <trkpt lat="46.17583" lon="-1.3687">
        <ele>9.8</ele>
        <time>2020-05-31T21:44:41Z</time>
      </trkpt>
      <trkpt lat="46.17588" lon="-1.36875">
        <ele>9.7</ele>
        <time>2020-05-31T21:44:42Z</time>
      </trkpt>
      <trkpt lat="46.17591" lon="-1.3688">
        <ele>9.7</ele>
        <time>2020-05-31T21:44:43Z</time>
      </trkpt>
      <trkpt lat="46.17595" lon="-1.36886">
        <ele>9.6</ele>
        <time>2020-05-31T21:44:44Z</time>
      </trkpt>
      <trkpt lat="46.17599" lon="-1.3689">
        <ele>9.5</ele>
        <time>2020-05-31T21:44:45Z</time>
      </trkpt>
      <trkpt lat="46.17602" lon="-1.36893">
        <ele>9.5</ele>
        <time>2020-05-31T21:44:46Z</time>
      </trkpt>
      <trkpt lat="46.17605" lon="-1.36901">
        <ele>9.4</ele>
        <time>2020-05-31T21:44:47Z</time>
      </trkpt>
      <trkpt lat="46.17609" lon="-1.3691">
        <ele>9.2</ele>
        <time>2020-05-31T21:44:48Z</time>
      </trkpt>
      <trkpt lat="46.17613" lon="-1.36919">
        <ele>9.1</ele>
        <time>2020-05-31T21:44:49Z</time>
      </trkpt>
      <trkpt lat="46.17616" lon="-1.36927">
        <ele>9</ele>
        <time>2020-05-31T21:44:50Z</time>
      </trkpt>
      <trkpt lat="46.17619" lon="-1.36937">
        <ele>8.9</ele>
        <time>2020-05-31T21:44:51Z</time>
      </trkpt>
      <trkpt lat="46.17622" lon="-1.36945">
        <ele>8.9</ele>
        <time>2020-05-31T21:44:52Z</time>
      </trkpt>
      <trkpt lat="46.17625" lon="-1.36953">
        <ele>8.8</ele>
        <time>2020-05-31T21:44:53Z</time>
      </trkpt>
      <trkpt lat="46.17628" lon="-1.3696">
        <ele>8.8</ele>
        <time>2020-05-31T21:44:54Z</time>
      </trkpt>
      <trkpt lat="46.17631" lon="-1.36968">
        <ele>8.8</ele>
        <time>2020-05-31T21:44:55Z</time>
      </trkpt>
      <trkpt lat="46.17635" lon="-1.36975">
        <ele>8.8</ele>
        <time>2020-05-31T21:44:56Z</time>
      </trkpt>
      <trkpt lat="46.17638" lon="-1.36982">
        <ele>8.8</ele>
        <time>2020-05-31T21:44:57Z</time>
      </trkpt>
      <trkpt lat="46.1764" lon="-1.36989">
        <ele>8.8</ele>
        <time>2020-05-31T21:44:58Z</time>
      </trkpt>
      <trkpt lat="46.17643" lon="-1.36997">
        <ele>8.7</ele>
        <time>2020-05-31T21:44:59Z</time>
      </trkpt>
      <trkpt lat="46.17645" lon="-1.37003">
        <ele>8.7</ele>
        <time>2020-05-31T21:45:00Z</time>
      </trkpt>
      <trkpt lat="46.17648" lon="-1.37008">
        <ele>8.7</ele>
        <time>2020-05-31T21:45:01Z</time>
      </trkpt>
      <trkpt lat="46.17653" lon="-1.37013">
        <ele>8.7</ele>
        <time>2020-05-31T21:45:02Z</time>
      </trkpt>
      <trkpt lat="46.17658" lon="-1.37016">
        <ele>8.6</ele>
        <time>2020-05-31T21:45:03Z</time>
      </trkpt>
      <trkpt lat="46.17664" lon="-1.3702">
        <ele>8.6</ele>
        <time>2020-05-31T21:45:04Z</time>
      </trkpt>
      <trkpt lat="46.17668" lon="-1.37023">
        <ele>8.5</ele>
        <time>2020-05-31T21:45:05Z</time>
      </trkpt>
      <trkpt lat="46.17672" lon="-1.37025">
        <ele>8.5</ele>
        <time>2020-05-31T21:45:06Z</time>
      </trkpt>
      <trkpt lat="46.17678" lon="-1.37027">
        <ele>8.4</ele>
        <time>2020-05-31T21:45:07Z</time>
      </trkpt>
      <trkpt lat="46.17684" lon="-1.37028">
        <ele>8.3</ele>
        <time>2020-05-31T21:45:08Z</time>
      </trkpt>
      <trkpt lat="46.17689" lon="-1.3703">
        <ele>8.3</ele>
        <time>2020-05-31T21:45:09Z</time>
      </trkpt>
      <trkpt lat="46.17694" lon="-1.37031">
        <ele>8.2</ele>
        <time>2020-05-31T21:45:10Z</time>
      </trkpt>
      <trkpt lat="46.17699" lon="-1.37033">
        <ele>8.1</ele>
        <time>2020-05-31T21:45:11Z</time>
      </trkpt>
      <trkpt lat="46.17706" lon="-1.37034">
        <ele>8</ele>
        <time>2020-05-31T21:45:12Z</time>
      </trkpt>
      <trkpt lat="46.17711" lon="-1.37037">
        <ele>7.9</ele>
        <time>2020-05-31T21:45:13Z</time>
      </trkpt>
      <trkpt lat="46.17716" lon="-1.37039">
        <ele>7.8</ele>
        <time>2020-05-31T21:45:14Z</time>
      </trkpt>
      <trkpt lat="46.17721" lon="-1.37041">
        <ele>7.8</ele>
        <time>2020-05-31T21:45:15Z</time>
      </trkpt>
      <trkpt lat="46.17726" lon="-1.37044">
        <ele>7.7</ele>
        <time>2020-05-31T21:45:16Z</time>
      </trkpt>
      <trkpt lat="46.17732" lon="-1.37047">
        <ele>7.6</ele>
        <time>2020-05-31T21:45:17Z</time>
      </trkpt>
      <trkpt lat="46.17737" lon="-1.3705">
        <ele>7.5</ele>
        <time>2020-05-31T21:45:18Z</time>
      </trkpt>
      <trkpt lat="46.17746" lon="-1.37056">
        <ele>7.3</ele>
        <time>2020-05-31T21:45:19Z</time>
      </trkpt>
      <trkpt lat="46.17752" lon="-1.37061">
        <ele>7.2</ele>
        <time>2020-05-31T21:45:20Z</time>
      </trkpt>
      <trkpt lat="46.17757" lon="-1.37066">
        <ele>7.1</ele>
        <time>2020-05-31T21:45:21Z</time>
      </trkpt>
      <trkpt lat="46.17763" lon="-1.37071">
        <ele>6.9</ele>
        <time>2020-05-31T21:45:22Z</time>
      </trkpt>
      <trkpt lat="46.17768" lon="-1.37075">
        <ele>6.8</ele>
        <time>2020-05-31T21:45:23Z</time>
      </trkpt>
      <trkpt lat="46.17774" lon="-1.3708">
        <ele>6.6</ele>
        <time>2020-05-31T21:45:24Z</time>
      </trkpt>
      <trkpt lat="46.17781" lon="-1.37087">
        <ele>6.4</ele>
        <time>2020-05-31T21:45:25Z</time>
      </trkpt>
      <trkpt lat="46.17788" lon="-1.37095">
        <ele>6.2</ele>
        <time>2020-05-31T21:45:26Z</time>
      </trkpt>
      <trkpt lat="46.17793" lon="-1.37102">
        <ele>6.1</ele>
        <time>2020-05-31T21:45:27Z</time>
      </trkpt>
      <trkpt lat="46.17798" lon="-1.3711">
        <ele>6</ele>
        <time>2020-05-31T21:45:28Z</time>
      </trkpt>
      <trkpt lat="46.17802" lon="-1.37118">
        <ele>5.9</ele>
        <time>2020-05-31T21:45:29Z</time>
      </trkpt>
      <trkpt lat="46.17807" lon="-1.37126">
        <ele>5.8</ele>
        <time>2020-05-31T21:45:30Z</time>
      </trkpt>
      <trkpt lat="46.17811" lon="-1.37133">
        <ele>5.8</ele>
        <time>2020-05-31T21:45:31Z</time>
      </trkpt>
      <trkpt lat="46.17816" lon="-1.3714">
        <ele>5.7</ele>
        <time>2020-05-31T21:45:32Z</time>
      </trkpt>
      <trkpt lat="46.1782" lon="-1.37146">
        <ele>5.7</ele>
        <time>2020-05-31T21:45:33Z</time>
      </trkpt>
      <trkpt lat="46.17825" lon="-1.37154">
        <ele>5.7</ele>
        <time>2020-05-31T21:45:34Z</time>
      </trkpt>
      <trkpt lat="46.17829" lon="-1.3716">
        <ele>5.7</ele>
        <time>2020-05-31T21:45:35Z</time>
      </trkpt>
      <trkpt lat="46.17834" lon="-1.37166">
        <ele>5.8</ele>
        <time>2020-05-31T21:45:36Z</time>
      </trkpt>
      <trkpt lat="46.17838" lon="-1.37173">
        <ele>5.9</ele>
        <time>2020-05-31T21:45:37Z</time>
      </trkpt>
      <trkpt lat="46.17843" lon="-1.37179">
        <ele>5.9</ele>
        <time>2020-05-31T21:45:38Z</time>
      </trkpt>
      <trkpt lat="46.17846" lon="-1.37186">
        <ele>6</ele>
        <time>2020-05-31T21:45:39Z</time>
      </trkpt>
      <trkpt lat="46.1785" lon="-1.3719">
        <ele>6.1</ele>
        <time>2020-05-31T21:45:40Z</time>
      </trkpt>
      <trkpt lat="46.17855" lon="-1.37194">
        <ele>6.2</ele>
        <time>2020-05-31T21:45:41Z</time>
      </trkpt>
      <trkpt lat="46.17858" lon="-1.372">
        <ele>6.3</ele>
        <time>2020-05-31T21:45:42Z</time>
      </trkpt>
      <trkpt lat="46.1786" lon="-1.37207">
        <ele>6.4</ele>
        <time>2020-05-31T21:45:43Z</time>
      </trkpt>
      <trkpt lat="46.17861" lon="-1.37215">
        <ele>6.5</ele>
        <time>2020-05-31T21:45:44Z</time>
      </trkpt>
      <trkpt lat="46.17861" lon="-1.37222">
        <ele>6.6</ele>
        <time>2020-05-31T21:45:45Z</time>
      </trkpt>
      <trkpt lat="46.1786" lon="-1.3723">
        <ele>6.7</ele>
        <time>2020-05-31T21:45:46Z</time>
      </trkpt>
      <trkpt lat="46.17861" lon="-1.37238">
        <ele>6.8</ele>
        <time>2020-05-31T21:45:47Z</time>
      </trkpt>
      <trkpt lat="46.17859" lon="-1.37245">
        <ele>6.9</ele>
        <time>2020-05-31T21:45:48Z</time>
      </trkpt>
      <trkpt lat="46.17858" lon="-1.37251">
        <ele>7</ele>
        <time>2020-05-31T21:45:49Z</time>
      </trkpt>
      <trkpt lat="46.17857" lon="-1.37258">
        <ele>7.1</ele>
        <time>2020-05-31T21:45:50Z</time>
      </trkpt>
      <trkpt lat="46.17855" lon="-1.37265">
        <ele>7.2</ele>
        <time>2020-05-31T21:45:51Z</time>
      </trkpt>
      <trkpt lat="46.17855" lon="-1.37273">
        <ele>7.2</ele>
        <time>2020-05-31T21:45:52Z</time>
      </trkpt>
      <trkpt lat="46.17856" lon="-1.37281">
        <ele>7.3</ele>
        <time>2020-05-31T21:45:53Z</time>
      </trkpt>
      <trkpt lat="46.17858" lon="-1.37288">
        <ele>7.4</ele>
        <time>2020-05-31T21:45:54Z</time>
      </trkpt>
      <trkpt lat="46.17859" lon="-1.37295">
        <ele>7.4</ele>
        <time>2020-05-31T21:45:55Z</time>
      </trkpt>
      <trkpt lat="46.17858" lon="-1.37303">
        <ele>7.4</ele>
        <time>2020-05-31T21:45:56Z</time>
      </trkpt>
      <trkpt lat="46.17857" lon="-1.37311">
        <ele>7.4</ele>
        <time>2020-05-31T21:45:57Z</time>
      </trkpt>
      <trkpt lat="46.17857" lon="-1.37319">
        <ele>7.4</ele>
        <time>2020-05-31T21:45:58Z</time>
      </trkpt>
      <trkpt lat="46.17858" lon="-1.37327">
        <ele>7.4</ele>
        <time>2020-05-31T21:45:59Z</time>
      </trkpt>
      <trkpt lat="46.1786" lon="-1.37333">
        <ele>7.4</ele>
        <time>2020-05-31T21:46:00Z</time>
      </trkpt>
      <trkpt lat="46.17861" lon="-1.3734">
        <ele>7.4</ele>
        <time>2020-05-31T21:46:01Z</time>
      </trkpt>
      <trkpt lat="46.17863" lon="-1.37347">
        <ele>7.4</ele>
        <time>2020-05-31T21:46:02Z</time>
      </trkpt>
      <trkpt lat="46.17866" lon="-1.37352">
        <ele>7.4</ele>
        <time>2020-05-31T21:46:03Z</time>
      </trkpt>
      <trkpt lat="46.17869" lon="-1.37357">
        <ele>7.4</ele>
        <time>2020-05-31T21:46:04Z</time>
      </trkpt>
      <trkpt lat="46.17871" lon="-1.37362">
        <ele>7.4</ele>
        <time>2020-05-31T21:46:05Z</time>
      </trkpt>
      <trkpt lat="46.17873" lon="-1.37366">
        <ele>7.4</ele>
        <time>2020-05-31T21:46:06Z</time>
      </trkpt>
      <trkpt lat="46.17876" lon="-1.37369">
        <ele>7.4</ele>
        <time>2020-05-31T21:46:07Z</time>
      </trkpt>
      <trkpt lat="46.17878" lon="-1.37374">
        <ele>7.4</ele>
        <time>2020-05-31T21:46:08Z</time>
      </trkpt>
      <trkpt lat="46.1788" lon="-1.37378">
        <ele>7.4</ele>
        <time>2020-05-31T21:46:09Z</time>
      </trkpt>
      <trkpt lat="46.17881" lon="-1.37381">
        <ele>7.4</ele>
        <time>2020-05-31T21:46:10Z</time>
      </trkpt>
      <trkpt lat="46.17881" lon="-1.37384">
        <ele>7.4</ele>
        <time>2020-05-31T21:46:11Z</time>
      </trkpt>
      <trkpt lat="46.17881" lon="-1.37386">
        <ele>7.4</ele>
        <time>2020-05-31T21:46:12Z</time>
      </trkpt>
      <trkpt lat="46.17883" lon="-1.37386">
        <ele>7.4</ele>
        <time>2020-05-31T21:46:13Z</time>
      </trkpt>
      <trkpt lat="46.17882" lon="-1.37387">
        <ele>7.4</ele>
        <time>2020-05-31T21:46:14Z</time>
      </trkpt>
      <trkpt lat="46.17882" lon="-1.37387">
        <ele>7.4</ele>
        <time>2020-05-31T21:46:15Z</time>
      </trkpt>
      <trkpt lat="46.17882" lon="-1.37388">
        <ele>7.4</ele>
        <time>2020-05-31T21:46:16Z</time>
      </trkpt>
      <trkpt lat="46.17881" lon="-1.37388">
        <ele>7.4</ele>
        <time>2020-05-31T21:46:17Z</time>
      </trkpt>
      <trkpt lat="46.17882" lon="-1.37388">
        <ele>7.4</ele>
        <time>2020-05-31T21:46:18Z</time>
      </trkpt>
      <trkpt lat="46.17882" lon="-1.37388">
        <ele>7.4</ele>
        <time>2020-05-31T21:46:19Z</time>
      </trkpt>
      <trkpt lat="46.17883" lon="-1.37388">
        <ele>7.4</ele>
        <time>2020-05-31T21:46:20Z</time>
      </trkpt>
      <trkpt lat="46.17883" lon="-1.37389">
        <ele>7.3</ele>
        <time>2020-05-31T21:46:21Z</time>
      </trkpt>
      <trkpt lat="46.17884" lon="-1.37389">
        <ele>7.3</ele>
        <time>2020-05-31T21:46:22Z</time>
      </trkpt>
      <trkpt lat="46.17884" lon="-1.37388">
        <ele>7.3</ele>
        <time>2020-05-31T21:46:23Z</time>
      </trkpt>
      <trkpt lat="46.17885" lon="-1.37388">
        <ele>7.3</ele>
        <time>2020-05-31T21:46:24Z</time>
      </trkpt>
      <trkpt lat="46.17885" lon="-1.37388">
        <ele>7.3</ele>
        <time>2020-05-31T21:46:25Z</time>
      </trkpt>
      <trkpt lat="46.17883" lon="-1.37389">
        <ele>7.3</ele>
        <time>2020-05-31T21:46:26Z</time>
      </trkpt>
      <trkpt lat="46.17883" lon="-1.37389">
        <ele>7.3</ele>
        <time>2020-05-31T21:46:27Z</time>
      </trkpt>
      <trkpt lat="46.17883" lon="-1.37389">
        <ele>7.3</ele>
        <time>2020-05-31T21:46:28Z</time>
      </trkpt>
      <trkpt lat="46.17884" lon="-1.37388">
        <ele>7.3</ele>
        <time>2020-05-31T21:46:29Z</time>
      </trkpt>
      <trkpt lat="46.17884" lon="-1.37388">
        <ele>7.3</ele>
        <time>2020-05-31T21:46:30Z</time>
      </trkpt>
      <trkpt lat="46.17884" lon="-1.37388">
        <ele>7.3</ele>
        <time>2020-05-31T21:46:31Z</time>
      </trkpt>
      <trkpt lat="46.17883" lon="-1.37389">
        <ele>7.3</ele>
        <time>2020-05-31T21:46:32Z</time>
      </trkpt>
      <trkpt lat="46.17884" lon="-1.37389">
        <ele>7.3</ele>
        <time>2020-05-31T21:46:33Z</time>
      </trkpt>
      <trkpt lat="46.17884" lon="-1.37388">
        <ele>7.3</ele>
        <time>2020-05-31T21:46:34Z</time>
      </trkpt>
      <trkpt lat="46.17885" lon="-1.37387">
        <ele>7.3</ele>
        <time>2020-05-31T21:46:35Z</time>
      </trkpt>
      <trkpt lat="46.17885" lon="-1.37387">
        <ele>7.3</ele>
        <time>2020-05-31T21:46:36Z</time>
      </trkpt>
      <trkpt lat="46.17884" lon="-1.37389">
        <ele>7.3</ele>
        <time>2020-05-31T21:46:37Z</time>
      </trkpt>
      <trkpt lat="46.17884" lon="-1.3739">
        <ele>7.3</ele>
        <time>2020-05-31T21:46:38Z</time>
      </trkpt>
      <trkpt lat="46.17884" lon="-1.3739">
        <ele>7.3</ele>
        <time>2020-05-31T21:46:39Z</time>
      </trkpt>
      <trkpt lat="46.17885" lon="-1.37389">
        <ele>7.3</ele>
        <time>2020-05-31T21:46:40Z</time>
      </trkpt>
      <trkpt lat="46.17884" lon="-1.3739">
        <ele>7.3</ele>
        <time>2020-05-31T21:46:41Z</time>
      </trkpt>
      <trkpt lat="46.17885" lon="-1.3739">
        <ele>7.3</ele>
        <time>2020-05-31T21:46:42Z</time>
      </trkpt>
      <trkpt lat="46.17886" lon="-1.37388">
        <ele>7.3</ele>
        <time>2020-05-31T21:46:43Z</time>
      </trkpt>
      <trkpt lat="46.17886" lon="-1.37388">
        <ele>7.3</ele>
        <time>2020-05-31T21:46:44Z</time>
      </trkpt>
      <trkpt lat="46.17887" lon="-1.37388">
        <ele>7.3</ele>
        <time>2020-05-31T21:46:45Z</time>
      </trkpt>
      <trkpt lat="46.17887" lon="-1.37388">
        <ele>7.3</ele>
        <time>2020-05-31T21:46:46Z</time>
      </trkpt>
      <trkpt lat="46.17887" lon="-1.37387">
        <ele>7.3</ele>
        <time>2020-05-31T21:46:47Z</time>
      </trkpt>
      <trkpt lat="46.17888" lon="-1.37386">
        <ele>7.3</ele>
        <time>2020-05-31T21:46:48Z</time>
      </trkpt>
      <trkpt lat="46.17888" lon="-1.37386">
        <ele>7.3</ele>
        <time>2020-05-31T21:46:49Z</time>
      </trkpt>
      <trkpt lat="46.17889" lon="-1.37385">
        <ele>7.3</ele>
        <time>2020-05-31T21:46:50Z</time>
      </trkpt>
      <trkpt lat="46.17888" lon="-1.37386">
        <ele>7.3</ele>
        <time>2020-05-31T21:46:51Z</time>
      </trkpt>
      <trkpt lat="46.17888" lon="-1.37386">
        <ele>7.3</ele>
        <time>2020-05-31T21:46:52Z</time>
      </trkpt>
      <trkpt lat="46.17887" lon="-1.37387">
        <ele>7.3</ele>
        <time>2020-05-31T21:46:53Z</time>
      </trkpt>
      <trkpt lat="46.17887" lon="-1.37387">
        <ele>7.3</ele>
        <time>2020-05-31T21:46:54Z</time>
      </trkpt>
      <trkpt lat="46.17887" lon="-1.37388">
        <ele>7.3</ele>
        <time>2020-05-31T21:46:55Z</time>
      </trkpt>
      <trkpt lat="46.17887" lon="-1.37389">
        <ele>7.3</ele>
        <time>2020-05-31T21:46:56Z</time>
      </trkpt>
      <trkpt lat="46.17886" lon="-1.3739">
        <ele>7.3</ele>
        <time>2020-05-31T21:46:57Z</time>
      </trkpt>
      <trkpt lat="46.17887" lon="-1.37391">
        <ele>7.3</ele>
        <time>2020-05-31T21:46:58Z</time>
      </trkpt>
      <trkpt lat="46.17887" lon="-1.37391">
        <ele>7.3</ele>
        <time>2020-05-31T21:46:59Z</time>
      </trkpt>
      <trkpt lat="46.17886" lon="-1.37391">
        <ele>7.3</ele>
        <time>2020-05-31T21:47:00Z</time>
      </trkpt>
      <trkpt lat="46.17886" lon="-1.37392">
        <ele>7.3</ele>
        <time>2020-05-31T21:47:01Z</time>
      </trkpt>
      <trkpt lat="46.17885" lon="-1.37394">
        <ele>7.3</ele>
        <time>2020-05-31T21:47:02Z</time>
      </trkpt>
      <trkpt lat="46.17885" lon="-1.37395">
        <ele>7.3</ele>
        <time>2020-05-31T21:47:03Z</time>
      </trkpt>
      <trkpt lat="46.17885" lon="-1.37395">
        <ele>7.3</ele>
        <time>2020-05-31T21:47:04Z</time>
      </trkpt>
      <trkpt lat="46.17886" lon="-1.37393">
        <ele>7.3</ele>
        <time>2020-05-31T21:47:05Z</time>
      </trkpt>
      <trkpt lat="46.17886" lon="-1.37394">
        <ele>7.3</ele>
        <time>2020-05-31T21:47:06Z</time>
      </trkpt>
      <trkpt lat="46.17885" lon="-1.37394">
        <ele>7.3</ele>
        <time>2020-05-31T21:47:07Z</time>
      </trkpt>
      <trkpt lat="46.17885" lon="-1.37395">
        <ele>7.3</ele>
        <time>2020-05-31T21:47:08Z</time>
      </trkpt>
      <trkpt lat="46.17885" lon="-1.37393">
        <ele>7.3</ele>
        <time>2020-05-31T21:47:09Z</time>
      </trkpt>
      <trkpt lat="46.17885" lon="-1.37394">
        <ele>7.3</ele>
        <time>2020-05-31T21:47:10Z</time>
      </trkpt>
      <trkpt lat="46.17885" lon="-1.37394">
        <ele>7.3</ele>
        <time>2020-05-31T21:47:11Z</time>
      </trkpt>
      <trkpt lat="46.17885" lon="-1.37395">
        <ele>7.3</ele>
        <time>2020-05-31T21:47:12Z</time>
      </trkpt>
      <trkpt lat="46.17885" lon="-1.37395">
        <ele>7.3</ele>
        <time>2020-05-31T21:47:13Z</time>
      </trkpt>
      <trkpt lat="46.17886" lon="-1.37394">
        <ele>7.3</ele>
        <time>2020-05-31T21:47:14Z</time>
      </trkpt>
      <trkpt lat="46.17886" lon="-1.37394">
        <ele>7.3</ele>
        <time>2020-05-31T21:47:15Z</time>
      </trkpt>
      <trkpt lat="46.17886" lon="-1.37393">
        <ele>7.3</ele>
        <time>2020-05-31T21:47:16Z</time>
      </trkpt>
      <trkpt lat="46.17887" lon="-1.37393">
        <ele>7.3</ele>
        <time>2020-05-31T21:47:17Z</time>
      </trkpt>
      <trkpt lat="46.17887" lon="-1.37393">
        <ele>7.3</ele>
        <time>2020-05-31T21:47:18Z</time>
      </trkpt>
      <trkpt lat="46.17888" lon="-1.37392">
        <ele>7.2</ele>
        <time>2020-05-31T21:47:19Z</time>
      </trkpt>
      <trkpt lat="46.17889" lon="-1.37391">
        <ele>7.2</ele>
        <time>2020-05-31T21:47:20Z</time>
      </trkpt>
      <trkpt lat="46.17888" lon="-1.37392">
        <ele>7.2</ele>
        <time>2020-05-31T21:47:21Z</time>
      </trkpt>
      <trkpt lat="46.17888" lon="-1.37392">
        <ele>7.2</ele>
        <time>2020-05-31T21:47:22Z</time>
      </trkpt>
      <trkpt lat="46.17888" lon="-1.37393">
        <ele>7.2</ele>
        <time>2020-05-31T21:47:23Z</time>
      </trkpt>
      <trkpt lat="46.17888" lon="-1.37392">
        <ele>7.2</ele>
        <time>2020-05-31T21:47:24Z</time>
      </trkpt>
      <trkpt lat="46.17888" lon="-1.37392">
        <ele>7.2</ele>
        <time>2020-05-31T21:47:25Z</time>
      </trkpt>
      <trkpt lat="46.17889" lon="-1.37392">
        <ele>7.2</ele>
        <time>2020-05-31T21:47:26Z</time>
      </trkpt>
      <trkpt lat="46.17889" lon="-1.37391">
        <ele>7.2</ele>
        <time>2020-05-31T21:47:27Z</time>
      </trkpt>
      <trkpt lat="46.17889" lon="-1.37391">
        <ele>7.2</ele>
        <time>2020-05-31T21:47:28Z</time>
      </trkpt>
      <trkpt lat="46.17889" lon="-1.37391">
        <ele>7.2</ele>
        <time>2020-05-31T21:47:29Z</time>
      </trkpt>
      <trkpt lat="46.17889" lon="-1.37392">
        <ele>7.2</ele>
        <time>2020-05-31T21:47:30Z</time>
      </trkpt>
      <trkpt lat="46.17889" lon="-1.37391">
        <ele>7.2</ele>
        <time>2020-05-31T21:47:31Z</time>
      </trkpt>
      <trkpt lat="46.1789" lon="-1.3739">
        <ele>7.2</ele>
        <time>2020-05-31T21:47:32Z</time>
      </trkpt>
      <trkpt lat="46.17889" lon="-1.3739">
        <ele>7.2</ele>
        <time>2020-05-31T21:47:33Z</time>
      </trkpt>
      <trkpt lat="46.1789" lon="-1.37391">
        <ele>7.2</ele>
        <time>2020-05-31T21:47:34Z</time>
      </trkpt>
      <trkpt lat="46.1789" lon="-1.3739">
        <ele>7.2</ele>
        <time>2020-05-31T21:47:35Z</time>
      </trkpt>
      <trkpt lat="46.17891" lon="-1.3739">
        <ele>7.2</ele>
        <time>2020-05-31T21:47:36Z</time>
      </trkpt>
      <trkpt lat="46.17889" lon="-1.37392">
        <ele>7.2</ele>
        <time>2020-05-31T21:47:37Z</time>
      </trkpt>
      <trkpt lat="46.17889" lon="-1.37392">
        <ele>7.2</ele>
        <time>2020-05-31T21:47:38Z</time>
      </trkpt>
      <trkpt lat="46.17889" lon="-1.37393">
        <ele>7.2</ele>
        <time>2020-05-31T21:47:39Z</time>
      </trkpt>
      <trkpt lat="46.1789" lon="-1.37393">
        <ele>7.2</ele>
        <time>2020-05-31T21:47:40Z</time>
      </trkpt>
      <trkpt lat="46.1789" lon="-1.37393">
        <ele>7.2</ele>
        <time>2020-05-31T21:47:41Z</time>
      </trkpt>
      <trkpt lat="46.17889" lon="-1.37395">
        <ele>7.2</ele>
        <time>2020-05-31T21:47:42Z</time>
      </trkpt>
      <trkpt lat="46.17889" lon="-1.37396">
        <ele>7.2</ele>
        <time>2020-05-31T21:47:43Z</time>
      </trkpt>
      <trkpt lat="46.17888" lon="-1.37397">
        <ele>7.2</ele>
        <time>2020-05-31T21:47:44Z</time>
      </trkpt>
      <trkpt lat="46.17887" lon="-1.37398">
        <ele>7.2</ele>
        <time>2020-05-31T21:47:45Z</time>
      </trkpt>
      <trkpt lat="46.17888" lon="-1.37398">
        <ele>7.2</ele>
        <time>2020-05-31T21:47:46Z</time>
      </trkpt>
      <trkpt lat="46.17887" lon="-1.37397">
        <ele>7.2</ele>
        <time>2020-05-31T21:47:47Z</time>
      </trkpt>
      <trkpt lat="46.17887" lon="-1.37397">
        <ele>7.2</ele>
        <time>2020-05-31T21:47:48Z</time>
      </trkpt>
      <trkpt lat="46.17888" lon="-1.37396">
        <ele>7.2</ele>
        <time>2020-05-31T21:47:49Z</time>
      </trkpt>
      <trkpt lat="46.17888" lon="-1.37395">
        <ele>7.2</ele>
        <time>2020-05-31T21:47:50Z</time>
      </trkpt>
      <trkpt lat="46.17888" lon="-1.37396">
        <ele>7.2</ele>
        <time>2020-05-31T21:47:51Z</time>
      </trkpt>
      <trkpt lat="46.17888" lon="-1.37395">
        <ele>7.2</ele>
        <time>2020-05-31T21:47:52Z</time>
      </trkpt>
      <trkpt lat="46.17888" lon="-1.37396">
        <ele>7.2</ele>
        <time>2020-05-31T21:47:53Z</time>
      </trkpt>
      <trkpt lat="46.17888" lon="-1.37395">
        <ele>7.2</ele>
        <time>2020-05-31T21:47:54Z</time>
      </trkpt>
      <trkpt lat="46.17888" lon="-1.37396">
        <ele>7.2</ele>
        <time>2020-05-31T21:47:55Z</time>
      </trkpt>
      <trkpt lat="46.17888" lon="-1.37396">
        <ele>7.2</ele>
        <time>2020-05-31T21:47:56Z</time>
      </trkpt>
      <trkpt lat="46.17888" lon="-1.37395">
        <ele>7.2</ele>
        <time>2020-05-31T21:47:57Z</time>
      </trkpt>
      <trkpt lat="46.17888" lon="-1.37395">
        <ele>7.2</ele>
        <time>2020-05-31T21:47:58Z</time>
      </trkpt>
      <trkpt lat="46.17888" lon="-1.37396">
        <ele>7.2</ele>
        <time>2020-05-31T21:47:59Z</time>
      </trkpt>
      <trkpt lat="46.17888" lon="-1.37395">
        <ele>7.2</ele>
        <time>2020-05-31T21:48:00Z</time>
      </trkpt>
      <trkpt lat="46.17888" lon="-1.37395">
        <ele>7.2</ele>
        <time>2020-05-31T21:48:01Z</time>
      </trkpt>
      <trkpt lat="46.17887" lon="-1.37396">
        <ele>7.2</ele>
        <time>2020-05-31T21:48:02Z</time>
      </trkpt>
      <trkpt lat="46.17887" lon="-1.37396">
        <ele>7.2</ele>
        <time>2020-05-31T21:48:03Z</time>
      </trkpt>
      <trkpt lat="46.17886" lon="-1.37397">
        <ele>7.2</ele>
        <time>2020-05-31T21:48:04Z</time>
      </trkpt>
      <trkpt lat="46.17887" lon="-1.37396">
        <ele>7.2</ele>
        <time>2020-05-31T21:48:05Z</time>
      </trkpt>
      <trkpt lat="46.17887" lon="-1.37396">
        <ele>7.2</ele>
        <time>2020-05-31T21:48:06Z</time>
      </trkpt>
      <trkpt lat="46.17887" lon="-1.37396">
        <ele>7.2</ele>
        <time>2020-05-31T21:48:07Z</time>
      </trkpt>
      <trkpt lat="46.17888" lon="-1.37396">
        <ele>7.2</ele>
        <time>2020-05-31T21:48:08Z</time>
      </trkpt>
      <trkpt lat="46.17888" lon="-1.37396">
        <ele>7.2</ele>
        <time>2020-05-31T21:48:09Z</time>
      </trkpt>
      <trkpt lat="46.17888" lon="-1.37396">
        <ele>7.2</ele>
        <time>2020-05-31T21:48:10Z</time>
      </trkpt>
      <trkpt lat="46.17886" lon="-1.37398">
        <ele>7.2</ele>
        <time>2020-05-31T21:48:11Z</time>
      </trkpt>
      <trkpt lat="46.17887" lon="-1.37397">
        <ele>7.2</ele>
        <time>2020-05-31T21:48:12Z</time>
      </trkpt>
      <trkpt lat="46.17887" lon="-1.37396">
        <ele>7.2</ele>
        <time>2020-05-31T21:48:13Z</time>
      </trkpt>
      <trkpt lat="46.17887" lon="-1.37396">
        <ele>7.2</ele>
        <time>2020-05-31T21:48:14Z</time>
      </trkpt>
      <trkpt lat="46.17888" lon="-1.37394">
        <ele>7.2</ele>
        <time>2020-05-31T21:48:15Z</time>
      </trkpt>
      <trkpt lat="46.17889" lon="-1.37393">
        <ele>7.2</ele>
        <time>2020-05-31T21:48:16Z</time>
      </trkpt>
      <trkpt lat="46.17889" lon="-1.37393">
        <ele>7.2</ele>
        <time>2020-05-31T21:48:17Z</time>
      </trkpt>
      <trkpt lat="46.17889" lon="-1.37394">
        <ele>7.2</ele>
        <time>2020-05-31T21:48:18Z</time>
      </trkpt>
      <trkpt lat="46.17889" lon="-1.37393">
        <ele>7.2</ele>
        <time>2020-05-31T21:48:19Z</time>
      </trkpt>
      <trkpt lat="46.17889" lon="-1.37393">
        <ele>7.2</ele>
        <time>2020-05-31T21:48:20Z</time>
      </trkpt>
      <trkpt lat="46.17888" lon="-1.37394">
        <ele>7.2</ele>
        <time>2020-05-31T21:48:21Z</time>
      </trkpt>
      <trkpt lat="46.17886" lon="-1.37396">
        <ele>7.2</ele>
        <time>2020-05-31T21:48:22Z</time>
      </trkpt>
      <trkpt lat="46.17887" lon="-1.37397">
        <ele>7.2</ele>
        <time>2020-05-31T21:48:23Z</time>
      </trkpt>
      <trkpt lat="46.17887" lon="-1.37397">
        <ele>7.2</ele>
        <time>2020-05-31T21:48:24Z</time>
      </trkpt>
      <trkpt lat="46.17888" lon="-1.37397">
        <ele>7.2</ele>
        <time>2020-05-31T21:48:25Z</time>
      </trkpt>
      <trkpt lat="46.17889" lon="-1.37398">
        <ele>7.2</ele>
        <time>2020-05-31T21:48:26Z</time>
      </trkpt>
      <trkpt lat="46.1789" lon="-1.37398">
        <ele>7.2</ele>
        <time>2020-05-31T21:48:27Z</time>
      </trkpt>
      <trkpt lat="46.1789" lon="-1.37397">
        <ele>7.2</ele>
        <time>2020-05-31T21:48:28Z</time>
      </trkpt>
      <trkpt lat="46.1789" lon="-1.37397">
        <ele>7.2</ele>
        <time>2020-05-31T21:48:29Z</time>
      </trkpt>
      <trkpt lat="46.1789" lon="-1.37397">
        <ele>7.2</ele>
        <time>2020-05-31T21:48:30Z</time>
      </trkpt>
      <trkpt lat="46.1789" lon="-1.37397">
        <ele>7.2</ele>
        <time>2020-05-31T21:48:31Z</time>
      </trkpt>
      <trkpt lat="46.1789" lon="-1.37397">
        <ele>7.2</ele>
        <time>2020-05-31T21:48:32Z</time>
      </trkpt>
      <trkpt lat="46.17889" lon="-1.37399">
        <ele>7.2</ele>
        <time>2020-05-31T21:48:33Z</time>
      </trkpt>
      <trkpt lat="46.1789" lon="-1.37398">
        <ele>7.2</ele>
        <time>2020-05-31T21:48:34Z</time>
      </trkpt>
      <trkpt lat="46.1789" lon="-1.37397">
        <ele>7.2</ele>
        <time>2020-05-31T21:48:35Z</time>
      </trkpt>
      <trkpt lat="46.1789" lon="-1.37397">
        <ele>7.2</ele>
        <time>2020-05-31T21:48:36Z</time>
      </trkpt>
      <trkpt lat="46.17891" lon="-1.37396">
        <ele>7.2</ele>
        <time>2020-05-31T21:48:37Z</time>
      </trkpt>
      <trkpt lat="46.17891" lon="-1.37395">
        <ele>7.2</ele>
        <time>2020-05-31T21:48:38Z</time>
      </trkpt>
      <trkpt lat="46.17891" lon="-1.37395">
        <ele>7.2</ele>
        <time>2020-05-31T21:48:39Z</time>
      </trkpt>
      <trkpt lat="46.17891" lon="-1.37395">
        <ele>7.2</ele>
        <time>2020-05-31T21:48:40Z</time>
      </trkpt>
      <trkpt lat="46.17891" lon="-1.37394">
        <ele>7.2</ele>
        <time>2020-05-31T21:48:41Z</time>
      </trkpt>
      <trkpt lat="46.17891" lon="-1.37394">
        <ele>7.2</ele>
        <time>2020-05-31T21:48:42Z</time>
      </trkpt>
      <trkpt lat="46.1789" lon="-1.37394">
        <ele>7.2</ele>
        <time>2020-05-31T21:48:43Z</time>
      </trkpt>
      <trkpt lat="46.1789" lon="-1.37395">
        <ele>7.2</ele>
        <time>2020-05-31T21:48:44Z</time>
      </trkpt>
      <trkpt lat="46.17891" lon="-1.37394">
        <ele>7.2</ele>
        <time>2020-05-31T21:48:45Z</time>
      </trkpt>
      <trkpt lat="46.17891" lon="-1.37393">
        <ele>7.2</ele>
        <time>2020-05-31T21:48:46Z</time>
      </trkpt>
      <trkpt lat="46.17892" lon="-1.37392">
        <ele>7.2</ele>
        <time>2020-05-31T21:48:47Z</time>
      </trkpt>
      <trkpt lat="46.17892" lon="-1.37392">
        <ele>7.2</ele>
        <time>2020-05-31T21:48:48Z</time>
      </trkpt>
      <trkpt lat="46.17891" lon="-1.37392">
        <ele>7.2</ele>
        <time>2020-05-31T21:48:49Z</time>
      </trkpt>
      <trkpt lat="46.1789" lon="-1.37393">
        <ele>7.2</ele>
        <time>2020-05-31T21:48:50Z</time>
      </trkpt>
      <trkpt lat="46.1789" lon="-1.37393">
        <ele>7.2</ele>
        <time>2020-05-31T21:48:51Z</time>
      </trkpt>
      <trkpt lat="46.17891" lon="-1.37393">
        <ele>7.2</ele>
        <time>2020-05-31T21:48:52Z</time>
      </trkpt>
      <trkpt lat="46.1789" lon="-1.37393">
        <ele>7.2</ele>
        <time>2020-05-31T21:48:53Z</time>
      </trkpt>
      <trkpt lat="46.1789" lon="-1.37393">
        <ele>7.2</ele>
        <time>2020-05-31T21:48:54Z</time>
      </trkpt>
      <trkpt lat="46.1789" lon="-1.37393">
        <ele>7.2</ele>
        <time>2020-05-31T21:48:55Z</time>
      </trkpt>
      <trkpt lat="46.17889" lon="-1.37393">
        <ele>7.2</ele>
        <time>2020-05-31T21:48:56Z</time>
      </trkpt>
      <trkpt lat="46.17889" lon="-1.37395">
        <ele>7.2</ele>
        <time>2020-05-31T21:48:57Z</time>
      </trkpt>
      <trkpt lat="46.17889" lon="-1.37395">
        <ele>7.2</ele>
        <time>2020-05-31T21:48:58Z</time>
      </trkpt>
      <trkpt lat="46.17889" lon="-1.37395">
        <ele>7.2</ele>
        <time>2020-05-31T21:48:59Z</time>
      </trkpt>
      <trkpt lat="46.17889" lon="-1.37395">
        <ele>7.2</ele>
        <time>2020-05-31T21:49:00Z</time>
      </trkpt>
      <trkpt lat="46.17889" lon="-1.37394">
        <ele>7.2</ele>
        <time>2020-05-31T21:49:01Z</time>
      </trkpt>
      <trkpt lat="46.17889" lon="-1.37394">
        <ele>7.2</ele>
        <time>2020-05-31T21:49:02Z</time>
      </trkpt>
      <trkpt lat="46.17889" lon="-1.37395">
        <ele>7.2</ele>
        <time>2020-05-31T21:49:03Z</time>
      </trkpt>
      <trkpt lat="46.17889" lon="-1.37395">
        <ele>7.2</ele>
        <time>2020-05-31T21:49:04Z</time>
      </trkpt>
      <trkpt lat="46.17889" lon="-1.37395">
        <ele>7.2</ele>
        <time>2020-05-31T21:49:05Z</time>
      </trkpt>
      <trkpt lat="46.1789" lon="-1.37393">
        <ele>7.2</ele>
        <time>2020-05-31T21:49:06Z</time>
      </trkpt>
      <trkpt lat="46.17891" lon="-1.37392">
        <ele>7.2</ele>
        <time>2020-05-31T21:49:07Z</time>
      </trkpt>
      <trkpt lat="46.17892" lon="-1.37391">
        <ele>7.2</ele>
        <time>2020-05-31T21:49:08Z</time>
      </trkpt>
      <trkpt lat="46.17892" lon="-1.37391">
        <ele>7.2</ele>
        <time>2020-05-31T21:49:09Z</time>
      </trkpt>
      <trkpt lat="46.17892" lon="-1.37391">
        <ele>7.2</ele>
        <time>2020-05-31T21:49:10Z</time>
      </trkpt>
      <trkpt lat="46.17893" lon="-1.37391">
        <ele>7.2</ele>
        <time>2020-05-31T21:49:11Z</time>
      </trkpt>
      <trkpt lat="46.17893" lon="-1.37391">
        <ele>7.2</ele>
        <time>2020-05-31T21:49:12Z</time>
      </trkpt>
      <trkpt lat="46.17893" lon="-1.3739">
        <ele>7.2</ele>
        <time>2020-05-31T21:49:13Z</time>
      </trkpt>
      <trkpt lat="46.17894" lon="-1.3739">
        <ele>7.2</ele>
        <time>2020-05-31T21:49:14Z</time>
      </trkpt>
      <trkpt lat="46.17894" lon="-1.3739">
        <ele>7.2</ele>
        <time>2020-05-31T21:49:15Z</time>
      </trkpt>
      <trkpt lat="46.17894" lon="-1.3739">
        <ele>7.2</ele>
        <time>2020-05-31T21:49:16Z</time>
      </trkpt>
      <trkpt lat="46.17895" lon="-1.37389">
        <ele>7.2</ele>
        <time>2020-05-31T21:49:17Z</time>
      </trkpt>
      <trkpt lat="46.17895" lon="-1.37389">
        <ele>7.2</ele>
        <time>2020-05-31T21:49:18Z</time>
      </trkpt>
      <trkpt lat="46.17899" lon="-1.3739">
        <ele>7.2</ele>
        <time>2020-05-31T21:49:19Z</time>
      </trkpt>
      <trkpt lat="46.179" lon="-1.3739">
        <ele>7.2</ele>
        <time>2020-05-31T21:49:20Z</time>
      </trkpt>
      <trkpt lat="46.17904" lon="-1.37391">
        <ele>7.2</ele>
        <time>2020-05-31T21:49:21Z</time>
      </trkpt>
      <trkpt lat="46.17907" lon="-1.37389">
        <ele>7.2</ele>
        <time>2020-05-31T21:49:22Z</time>
      </trkpt>
      <trkpt lat="46.1791" lon="-1.3739">
        <ele>7.2</ele>
        <time>2020-05-31T21:49:23Z</time>
      </trkpt>
      <trkpt lat="46.17913" lon="-1.37388">
        <ele>7.3</ele>
        <time>2020-05-31T21:49:24Z</time>
      </trkpt>
      <trkpt lat="46.17916" lon="-1.37387">
        <ele>7.3</ele>
        <time>2020-05-31T21:49:25Z</time>
      </trkpt>
      <trkpt lat="46.1792" lon="-1.37387">
        <ele>7.3</ele>
        <time>2020-05-31T21:49:26Z</time>
      </trkpt>
      <trkpt lat="46.17923" lon="-1.37387">
        <ele>7.3</ele>
        <time>2020-05-31T21:49:27Z</time>
      </trkpt>
      <trkpt lat="46.17926" lon="-1.37388">
        <ele>7.3</ele>
        <time>2020-05-31T21:49:28Z</time>
      </trkpt>
      <trkpt lat="46.17929" lon="-1.37388">
        <ele>7.3</ele>
        <time>2020-05-31T21:49:29Z</time>
      </trkpt>
      <trkpt lat="46.1793" lon="-1.3739">
        <ele>7.3</ele>
        <time>2020-05-31T21:49:30Z</time>
      </trkpt>
      <trkpt lat="46.17931" lon="-1.37391">
        <ele>7.3</ele>
        <time>2020-05-31T21:49:31Z</time>
      </trkpt>
      <trkpt lat="46.17933" lon="-1.37393">
        <ele>7.3</ele>
        <time>2020-05-31T21:49:32Z</time>
      </trkpt>
      <trkpt lat="46.17933" lon="-1.37395">
        <ele>7.3</ele>
        <time>2020-05-31T21:49:33Z</time>
      </trkpt>
      <trkpt lat="46.17934" lon="-1.37397">
        <ele>7.3</ele>
        <time>2020-05-31T21:49:34Z</time>
      </trkpt>
      <trkpt lat="46.17935" lon="-1.37399">
        <ele>7.3</ele>
        <time>2020-05-31T21:49:35Z</time>
      </trkpt>
      <trkpt lat="46.17935" lon="-1.374">
        <ele>7.3</ele>
        <time>2020-05-31T21:49:36Z</time>
      </trkpt>
      <trkpt lat="46.17935" lon="-1.37401">
        <ele>7.3</ele>
        <time>2020-05-31T21:49:37Z</time>
      </trkpt>
      <trkpt lat="46.17934" lon="-1.37403">
        <ele>7.3</ele>
        <time>2020-05-31T21:49:38Z</time>
      </trkpt>
      <trkpt lat="46.17934" lon="-1.37405">
        <ele>7.3</ele>
        <time>2020-05-31T21:49:39Z</time>
      </trkpt>
      <trkpt lat="46.17935" lon="-1.37405">
        <ele>7.3</ele>
        <time>2020-05-31T21:49:40Z</time>
      </trkpt>
      <trkpt lat="46.17936" lon="-1.37406">
        <ele>7.3</ele>
        <time>2020-05-31T21:49:41Z</time>
      </trkpt>
      <trkpt lat="46.17937" lon="-1.37408">
        <ele>7.3</ele>
        <time>2020-05-31T21:49:42Z</time>
      </trkpt>
      <trkpt lat="46.17938" lon="-1.37409">
        <ele>7.2</ele>
        <time>2020-05-31T21:49:43Z</time>
      </trkpt>
      <trkpt lat="46.1794" lon="-1.37413">
        <ele>7.2</ele>
        <time>2020-05-31T21:49:44Z</time>
      </trkpt>
      <trkpt lat="46.1794" lon="-1.37415">
        <ele>7.2</ele>
        <time>2020-05-31T21:49:45Z</time>
      </trkpt>
      <trkpt lat="46.17941" lon="-1.37419">
        <ele>7.2</ele>
        <time>2020-05-31T21:49:46Z</time>
      </trkpt>
      <trkpt lat="46.17942" lon="-1.37423">
        <ele>7.2</ele>
        <time>2020-05-31T21:49:47Z</time>
      </trkpt>
      <trkpt lat="46.17943" lon="-1.37427">
        <ele>7.1</ele>
        <time>2020-05-31T21:49:48Z</time>
      </trkpt>
      <trkpt lat="46.17944" lon="-1.37432">
        <ele>7.1</ele>
        <time>2020-05-31T21:49:49Z</time>
      </trkpt>
      <trkpt lat="46.17944" lon="-1.37436">
        <ele>7.1</ele>
        <time>2020-05-31T21:49:50Z</time>
      </trkpt>
      <trkpt lat="46.17943" lon="-1.37441">
        <ele>7</ele>
        <time>2020-05-31T21:49:51Z</time>
      </trkpt>
      <trkpt lat="46.17942" lon="-1.37445">
        <ele>7</ele>
        <time>2020-05-31T21:49:52Z</time>
      </trkpt>
      <trkpt lat="46.17941" lon="-1.37449">
        <ele>7</ele>
        <time>2020-05-31T21:49:53Z</time>
      </trkpt>
      <trkpt lat="46.1794" lon="-1.37454">
        <ele>6.9</ele>
        <time>2020-05-31T21:49:54Z</time>
      </trkpt>
      <trkpt lat="46.17939" lon="-1.3746">
        <ele>6.8</ele>
        <time>2020-05-31T21:49:55Z</time>
      </trkpt>
      <trkpt lat="46.1794" lon="-1.37466">
        <ele>6.8</ele>
        <time>2020-05-31T21:49:56Z</time>
      </trkpt>
      <trkpt lat="46.17939" lon="-1.37472">
        <ele>6.7</ele>
        <time>2020-05-31T21:49:57Z</time>
      </trkpt>
      <trkpt lat="46.17937" lon="-1.37478">
        <ele>6.7</ele>
        <time>2020-05-31T21:49:58Z</time>
      </trkpt>
      <trkpt lat="46.17934" lon="-1.37484">
        <ele>6.6</ele>
        <time>2020-05-31T21:49:59Z</time>
      </trkpt>
      <trkpt lat="46.1793" lon="-1.37487">
        <ele>6.6</ele>
        <time>2020-05-31T21:50:00Z</time>
      </trkpt>
      <trkpt lat="46.17928" lon="-1.37492">
        <ele>6.6</ele>
        <time>2020-05-31T21:50:01Z</time>
      </trkpt>
      <trkpt lat="46.17927" lon="-1.37498">
        <ele>6.5</ele>
        <time>2020-05-31T21:50:02Z</time>
      </trkpt>
      <trkpt lat="46.17926" lon="-1.37504">
        <ele>6.5</ele>
        <time>2020-05-31T21:50:03Z</time>
      </trkpt>
      <trkpt lat="46.17925" lon="-1.3751">
        <ele>6.5</ele>
        <time>2020-05-31T21:50:04Z</time>
      </trkpt>
      <trkpt lat="46.17926" lon="-1.37517">
        <ele>6.4</ele>
        <time>2020-05-31T21:50:05Z</time>
      </trkpt>
      <trkpt lat="46.17926" lon="-1.37524">
        <ele>6.4</ele>
        <time>2020-05-31T21:50:06Z</time>
      </trkpt>
      <trkpt lat="46.17927" lon="-1.37531">
        <ele>6.4</ele>
        <time>2020-05-31T21:50:07Z</time>
      </trkpt>
      <trkpt lat="46.1793" lon="-1.37537">
        <ele>6.5</ele>
        <time>2020-05-31T21:50:08Z</time>
      </trkpt>
      <trkpt lat="46.17934" lon="-1.37542">
        <ele>6.5</ele>
        <time>2020-05-31T21:50:09Z</time>
      </trkpt>
      <trkpt lat="46.17938" lon="-1.37546">
        <ele>6.6</ele>
        <time>2020-05-31T21:50:10Z</time>
      </trkpt>
      <trkpt lat="46.17942" lon="-1.3755">
        <ele>6.7</ele>
        <time>2020-05-31T21:50:11Z</time>
      </trkpt>
      <trkpt lat="46.17947" lon="-1.37552">
        <ele>6.8</ele>
        <time>2020-05-31T21:50:12Z</time>
      </trkpt>
      <trkpt lat="46.17951" lon="-1.37552">
        <ele>6.9</ele>
        <time>2020-05-31T21:50:13Z</time>
      </trkpt>
      <trkpt lat="46.17954" lon="-1.37554">
        <ele>7</ele>
        <time>2020-05-31T21:50:14Z</time>
      </trkpt>
      <trkpt lat="46.17957" lon="-1.37555">
        <ele>7.1</ele>
        <time>2020-05-31T21:50:15Z</time>
      </trkpt>
      <trkpt lat="46.1796" lon="-1.37557">
        <ele>7.2</ele>
        <time>2020-05-31T21:50:16Z</time>
      </trkpt>
      <trkpt lat="46.17963" lon="-1.37559">
        <ele>7.3</ele>
        <time>2020-05-31T21:50:17Z</time>
      </trkpt>
      <trkpt lat="46.17966" lon="-1.37561">
        <ele>7.4</ele>
        <time>2020-05-31T21:50:18Z</time>
      </trkpt>
      <trkpt lat="46.17969" lon="-1.37562">
        <ele>7.5</ele>
        <time>2020-05-31T21:50:19Z</time>
      </trkpt>
      <trkpt lat="46.17972" lon="-1.37563">
        <ele>7.6</ele>
        <time>2020-05-31T21:50:20Z</time>
      </trkpt>
      <trkpt lat="46.17975" lon="-1.37565">
        <ele>7.6</ele>
        <time>2020-05-31T21:50:21Z</time>
      </trkpt>
      <trkpt lat="46.17978" lon="-1.37567">
        <ele>7.7</ele>
        <time>2020-05-31T21:50:22Z</time>
      </trkpt>
      <trkpt lat="46.1798" lon="-1.37571">
        <ele>7.8</ele>
        <time>2020-05-31T21:50:23Z</time>
      </trkpt>
      <trkpt lat="46.17983" lon="-1.37573">
        <ele>7.9</ele>
        <time>2020-05-31T21:50:24Z</time>
      </trkpt>
      <trkpt lat="46.17985" lon="-1.37577">
        <ele>8</ele>
        <time>2020-05-31T21:50:25Z</time>
      </trkpt>
      <trkpt lat="46.17988" lon="-1.37579">
        <ele>8</ele>
        <time>2020-05-31T21:50:26Z</time>
      </trkpt>
      <trkpt lat="46.17991" lon="-1.37582">
        <ele>8.1</ele>
        <time>2020-05-31T21:50:27Z</time>
      </trkpt>
      <trkpt lat="46.17993" lon="-1.37586">
        <ele>8.2</ele>
        <time>2020-05-31T21:50:28Z</time>
      </trkpt>
      <trkpt lat="46.17996" lon="-1.37588">
        <ele>8.2</ele>
        <time>2020-05-31T21:50:29Z</time>
      </trkpt>
      <trkpt lat="46.17998" lon="-1.3759">
        <ele>8.2</ele>
        <time>2020-05-31T21:50:30Z</time>
      </trkpt>
      <trkpt lat="46.18002" lon="-1.37592">
        <ele>8.3</ele>
        <time>2020-05-31T21:50:31Z</time>
      </trkpt>
      <trkpt lat="46.18005" lon="-1.37593">
        <ele>8.3</ele>
        <time>2020-05-31T21:50:32Z</time>
      </trkpt>
      <trkpt lat="46.18009" lon="-1.37594">
        <ele>8.4</ele>
        <time>2020-05-31T21:50:33Z</time>
      </trkpt>
      <trkpt lat="46.18014" lon="-1.37594">
        <ele>8.4</ele>
        <time>2020-05-31T21:50:34Z</time>
      </trkpt>
      <trkpt lat="46.18018" lon="-1.37595">
        <ele>8.4</ele>
        <time>2020-05-31T21:50:35Z</time>
      </trkpt>
      <trkpt lat="46.18023" lon="-1.37595">
        <ele>8.5</ele>
        <time>2020-05-31T21:50:36Z</time>
      </trkpt>
      <trkpt lat="46.18027" lon="-1.37595">
        <ele>8.6</ele>
        <time>2020-05-31T21:50:37Z</time>
      </trkpt>
      <trkpt lat="46.1803" lon="-1.37596">
        <ele>8.6</ele>
        <time>2020-05-31T21:50:38Z</time>
      </trkpt>
      <trkpt lat="46.18033" lon="-1.37598">
        <ele>8.7</ele>
        <time>2020-05-31T21:50:39Z</time>
      </trkpt>
      <trkpt lat="46.18036" lon="-1.376">
        <ele>8.8</ele>
        <time>2020-05-31T21:50:40Z</time>
      </trkpt>
      <trkpt lat="46.18039" lon="-1.37603">
        <ele>8.9</ele>
        <time>2020-05-31T21:50:41Z</time>
      </trkpt>
      <trkpt lat="46.18042" lon="-1.37605">
        <ele>9</ele>
        <time>2020-05-31T21:50:42Z</time>
      </trkpt>
      <trkpt lat="46.18045" lon="-1.37607">
        <ele>9.1</ele>
        <time>2020-05-31T21:50:43Z</time>
      </trkpt>
      <trkpt lat="46.18048" lon="-1.37606">
        <ele>9.2</ele>
        <time>2020-05-31T21:50:44Z</time>
      </trkpt>
      <trkpt lat="46.18051" lon="-1.37608">
        <ele>9.2</ele>
        <time>2020-05-31T21:50:45Z</time>
      </trkpt>
      <trkpt lat="46.18054" lon="-1.37608">
        <ele>9.2</ele>
        <time>2020-05-31T21:50:46Z</time>
      </trkpt>
      <trkpt lat="46.18058" lon="-1.37611">
        <ele>9.3</ele>
        <time>2020-05-31T21:50:47Z</time>
      </trkpt>
      <trkpt lat="46.18061" lon="-1.37615">
        <ele>9.2</ele>
        <time>2020-05-31T21:50:48Z</time>
      </trkpt>
      <trkpt lat="46.18065" lon="-1.37617">
        <ele>9.2</ele>
        <time>2020-05-31T21:50:49Z</time>
      </trkpt>
      <trkpt lat="46.1807" lon="-1.3762">
        <ele>9.1</ele>
        <time>2020-05-31T21:50:50Z</time>
      </trkpt>
      <trkpt lat="46.18074" lon="-1.37622">
        <ele>9</ele>
        <time>2020-05-31T21:50:51Z</time>
      </trkpt>
      <trkpt lat="46.18078" lon="-1.37624">
        <ele>8.9</ele>
        <time>2020-05-31T21:50:52Z</time>
      </trkpt>
      <trkpt lat="46.18082" lon="-1.37625">
        <ele>8.8</ele>
        <time>2020-05-31T21:50:53Z</time>
      </trkpt>
      <trkpt lat="46.18087" lon="-1.37628">
        <ele>8.6</ele>
        <time>2020-05-31T21:50:54Z</time>
      </trkpt>
      <trkpt lat="46.18092" lon="-1.3763">
        <ele>8.5</ele>
        <time>2020-05-31T21:50:55Z</time>
      </trkpt>
      <trkpt lat="46.18097" lon="-1.37633">
        <ele>8.3</ele>
        <time>2020-05-31T21:50:56Z</time>
      </trkpt>
      <trkpt lat="46.18102" lon="-1.37637">
        <ele>8.2</ele>
        <time>2020-05-31T21:50:57Z</time>
      </trkpt>
      <trkpt lat="46.18107" lon="-1.37639">
        <ele>8.2</ele>
        <time>2020-05-31T21:50:58Z</time>
      </trkpt>
      <trkpt lat="46.18113" lon="-1.37641">
        <ele>8.1</ele>
        <time>2020-05-31T21:50:59Z</time>
      </trkpt>
      <trkpt lat="46.18118" lon="-1.37643">
        <ele>8.1</ele>
        <time>2020-05-31T21:51:00Z</time>
      </trkpt>
      <trkpt lat="46.18123" lon="-1.37644">
        <ele>8</ele>
        <time>2020-05-31T21:51:01Z</time>
      </trkpt>
      <trkpt lat="46.18128" lon="-1.37645">
        <ele>8</ele>
        <time>2020-05-31T21:51:02Z</time>
      </trkpt>
      <trkpt lat="46.18131" lon="-1.37646">
        <ele>8</ele>
        <time>2020-05-31T21:51:03Z</time>
      </trkpt>
      <trkpt lat="46.18132" lon="-1.3765">
        <ele>8</ele>
        <time>2020-05-31T21:51:04Z</time>
      </trkpt>
      <trkpt lat="46.18132" lon="-1.37651">
        <ele>8</ele>
        <time>2020-05-31T21:51:05Z</time>
      </trkpt>
      <trkpt lat="46.18132" lon="-1.37653">
        <ele>8</ele>
        <time>2020-05-31T21:51:06Z</time>
      </trkpt>
      <trkpt lat="46.18132" lon="-1.37654">
        <ele>8</ele>
        <time>2020-05-31T21:51:07Z</time>
      </trkpt>
      <trkpt lat="46.18132" lon="-1.37655">
        <ele>8</ele>
        <time>2020-05-31T21:51:08Z</time>
      </trkpt>
      <trkpt lat="46.18131" lon="-1.37656">
        <ele>8</ele>
        <time>2020-05-31T21:51:09Z</time>
      </trkpt>
      <trkpt lat="46.18131" lon="-1.37657">
        <ele>8</ele>
        <time>2020-05-31T21:51:10Z</time>
      </trkpt>
      <trkpt lat="46.18131" lon="-1.37657">
        <ele>8</ele>
        <time>2020-05-31T21:51:11Z</time>
      </trkpt>
      <trkpt lat="46.18131" lon="-1.37657">
        <ele>8</ele>
        <time>2020-05-31T21:51:12Z</time>
      </trkpt>
      <trkpt lat="46.18131" lon="-1.37658">
        <ele>8</ele>
        <time>2020-05-31T21:51:13Z</time>
      </trkpt>
      <trkpt lat="46.18131" lon="-1.37658">
        <ele>8</ele>
        <time>2020-05-31T21:51:14Z</time>
      </trkpt>
      <trkpt lat="46.1813" lon="-1.37658">
        <ele>8</ele>
        <time>2020-05-31T21:51:15Z</time>
      </trkpt>
      <trkpt lat="46.1813" lon="-1.37659">
        <ele>8</ele>
        <time>2020-05-31T21:51:16Z</time>
      </trkpt>
      <trkpt lat="46.1813" lon="-1.37659">
        <ele>8</ele>
        <time>2020-05-31T21:51:17Z</time>
      </trkpt>
      <trkpt lat="46.1813" lon="-1.3766">
        <ele>8</ele>
        <time>2020-05-31T21:51:18Z</time>
      </trkpt>
      <trkpt lat="46.18129" lon="-1.37661">
        <ele>8</ele>
        <time>2020-05-31T21:51:19Z</time>
      </trkpt>
      <trkpt lat="46.18128" lon="-1.37664">
        <ele>8</ele>
        <time>2020-05-31T21:51:20Z</time>
      </trkpt>
      <trkpt lat="46.18127" lon="-1.37668">
        <ele>8</ele>
        <time>2020-05-31T21:51:21Z</time>
      </trkpt>
      <trkpt lat="46.18127" lon="-1.37669">
        <ele>8</ele>
        <time>2020-05-31T21:51:22Z</time>
      </trkpt>
      <trkpt lat="46.18126" lon="-1.37671">
        <ele>8</ele>
        <time>2020-05-31T21:51:23Z</time>
      </trkpt>
      <trkpt lat="46.18126" lon="-1.37672">
        <ele>8</ele>
        <time>2020-05-31T21:51:24Z</time>
      </trkpt>
      <trkpt lat="46.18125" lon="-1.37673">
        <ele>8</ele>
        <time>2020-05-31T21:51:25Z</time>
      </trkpt>
      <trkpt lat="46.18126" lon="-1.37674">
        <ele>8</ele>
        <time>2020-05-31T21:51:26Z</time>
      </trkpt>
      <trkpt lat="46.18127" lon="-1.37675">
        <ele>8</ele>
        <time>2020-05-31T21:51:27Z</time>
      </trkpt>
      <trkpt lat="46.18127" lon="-1.37676">
        <ele>8</ele>
        <time>2020-05-31T21:51:28Z</time>
      </trkpt>
      <trkpt lat="46.18127" lon="-1.37677">
        <ele>8</ele>
        <time>2020-05-31T21:51:29Z</time>
      </trkpt>
      <trkpt lat="46.18127" lon="-1.37677">
        <ele>7.9</ele>
        <time>2020-05-31T21:51:30Z</time>
      </trkpt>
      <trkpt lat="46.1813" lon="-1.37682">
        <ele>7.9</ele>
        <time>2020-05-31T21:51:31Z</time>
      </trkpt>
      <trkpt lat="46.18131" lon="-1.37684">
        <ele>7.9</ele>
        <time>2020-05-31T21:51:32Z</time>
      </trkpt>
      <trkpt lat="46.18133" lon="-1.37689">
        <ele>7.9</ele>
        <time>2020-05-31T21:51:33Z</time>
      </trkpt>
      <trkpt lat="46.18135" lon="-1.37693">
        <ele>7.8</ele>
        <time>2020-05-31T21:51:34Z</time>
      </trkpt>
      <trkpt lat="46.18136" lon="-1.37698">
        <ele>7.8</ele>
        <time>2020-05-31T21:51:35Z</time>
      </trkpt>
      <trkpt lat="46.18138" lon="-1.37704">
        <ele>7.8</ele>
        <time>2020-05-31T21:51:36Z</time>
      </trkpt>
      <trkpt lat="46.18139" lon="-1.37711">
        <ele>7.7</ele>
        <time>2020-05-31T21:51:37Z</time>
      </trkpt>
      <trkpt lat="46.18141" lon="-1.37718">
        <ele>7.7</ele>
        <time>2020-05-31T21:51:38Z</time>
      </trkpt>
      <trkpt lat="46.18143" lon="-1.37726">
        <ele>7.6</ele>
        <time>2020-05-31T21:51:39Z</time>
      </trkpt>
      <trkpt lat="46.18144" lon="-1.37735">
        <ele>7.6</ele>
        <time>2020-05-31T21:51:40Z</time>
      </trkpt>
      <trkpt lat="46.18146" lon="-1.37745">
        <ele>7.5</ele>
        <time>2020-05-31T21:51:41Z</time>
      </trkpt>
      <trkpt lat="46.18148" lon="-1.37755">
        <ele>7.5</ele>
        <time>2020-05-31T21:51:42Z</time>
      </trkpt>
      <trkpt lat="46.18149" lon="-1.37769">
        <ele>7.5</ele>
        <time>2020-05-31T21:51:43Z</time>
      </trkpt>
      <trkpt lat="46.18151" lon="-1.37785">
        <ele>7.5</ele>
        <time>2020-05-31T21:51:44Z</time>
      </trkpt>
      <trkpt lat="46.18152" lon="-1.37798">
        <ele>7.5</ele>
        <time>2020-05-31T21:51:45Z</time>
      </trkpt>
      <trkpt lat="46.18155" lon="-1.37809">
        <ele>7.4</ele>
        <time>2020-05-31T21:51:46Z</time>
      </trkpt>
      <trkpt lat="46.18156" lon="-1.3782">
        <ele>7.4</ele>
        <time>2020-05-31T21:51:47Z</time>
      </trkpt>
      <trkpt lat="46.18158" lon="-1.37829">
        <ele>7.4</ele>
        <time>2020-05-31T21:51:48Z</time>
      </trkpt>
      <trkpt lat="46.18159" lon="-1.37837">
        <ele>7.4</ele>
        <time>2020-05-31T21:51:49Z</time>
      </trkpt>
      <trkpt lat="46.1816" lon="-1.37845">
        <ele>7.4</ele>
        <time>2020-05-31T21:51:50Z</time>
      </trkpt>
      <trkpt lat="46.18162" lon="-1.37856">
        <ele>7.4</ele>
        <time>2020-05-31T21:51:51Z</time>
      </trkpt>
      <trkpt lat="46.18166" lon="-1.37865">
        <ele>7.3</ele>
        <time>2020-05-31T21:51:52Z</time>
      </trkpt>
      <trkpt lat="46.1817" lon="-1.37875">
        <ele>7.3</ele>
        <time>2020-05-31T21:51:53Z</time>
      </trkpt>
      <trkpt lat="46.18173" lon="-1.37883">
        <ele>7.2</ele>
        <time>2020-05-31T21:51:54Z</time>
      </trkpt>
      <trkpt lat="46.18175" lon="-1.37891">
        <ele>7.2</ele>
        <time>2020-05-31T21:51:55Z</time>
      </trkpt>
      <trkpt lat="46.18177" lon="-1.379">
        <ele>7.1</ele>
        <time>2020-05-31T21:51:56Z</time>
      </trkpt>
      <trkpt lat="46.18179" lon="-1.37909">
        <ele>7.1</ele>
        <time>2020-05-31T21:51:57Z</time>
      </trkpt>
      <trkpt lat="46.18181" lon="-1.37917">
        <ele>7.1</ele>
        <time>2020-05-31T21:51:58Z</time>
      </trkpt>
      <trkpt lat="46.18184" lon="-1.37927">
        <ele>7</ele>
        <time>2020-05-31T21:51:59Z</time>
      </trkpt>
      <trkpt lat="46.18186" lon="-1.37934">
        <ele>7</ele>
        <time>2020-05-31T21:52:00Z</time>
      </trkpt>
      <trkpt lat="46.18188" lon="-1.37942">
        <ele>6.9</ele>
        <time>2020-05-31T21:52:01Z</time>
      </trkpt>
      <trkpt lat="46.18189" lon="-1.37951">
        <ele>6.9</ele>
        <time>2020-05-31T21:52:02Z</time>
      </trkpt>
      <trkpt lat="46.1819" lon="-1.3796">
        <ele>6.9</ele>
        <time>2020-05-31T21:52:03Z</time>
      </trkpt>
      <trkpt lat="46.18192" lon="-1.37969">
        <ele>6.9</ele>
        <time>2020-05-31T21:52:04Z</time>
      </trkpt>
      <trkpt lat="46.18193" lon="-1.37977">
        <ele>7</ele>
        <time>2020-05-31T21:52:05Z</time>
      </trkpt>
      <trkpt lat="46.18195" lon="-1.37987">
        <ele>7</ele>
        <time>2020-05-31T21:52:06Z</time>
      </trkpt>
      <trkpt lat="46.18199" lon="-1.37998">
        <ele>7</ele>
        <time>2020-05-31T21:52:07Z</time>
      </trkpt>
      <trkpt lat="46.18204" lon="-1.38005">
        <ele>7</ele>
        <time>2020-05-31T21:52:08Z</time>
      </trkpt>
      <trkpt lat="46.18209" lon="-1.3801">
        <ele>7</ele>
        <time>2020-05-31T21:52:09Z</time>
      </trkpt>
      <trkpt lat="46.18214" lon="-1.38014">
        <ele>7.1</ele>
        <time>2020-05-31T21:52:10Z</time>
      </trkpt>
      <trkpt lat="46.18219" lon="-1.38016">
        <ele>7.1</ele>
        <time>2020-05-31T21:52:11Z</time>
      </trkpt>
      <trkpt lat="46.18224" lon="-1.3802">
        <ele>7.1</ele>
        <time>2020-05-31T21:52:12Z</time>
      </trkpt>
      <trkpt lat="46.18229" lon="-1.38023">
        <ele>7.1</ele>
        <time>2020-05-31T21:52:13Z</time>
      </trkpt>
      <trkpt lat="46.18235" lon="-1.38028">
        <ele>7.1</ele>
        <time>2020-05-31T21:52:14Z</time>
      </trkpt>
      <trkpt lat="46.18238" lon="-1.38032">
        <ele>7.1</ele>
        <time>2020-05-31T21:52:15Z</time>
      </trkpt>
      <trkpt lat="46.18242" lon="-1.38036">
        <ele>7.1</ele>
        <time>2020-05-31T21:52:16Z</time>
      </trkpt>
      <trkpt lat="46.18246" lon="-1.38037">
        <ele>7.1</ele>
        <time>2020-05-31T21:52:17Z</time>
      </trkpt>
      <trkpt lat="46.18248" lon="-1.38042">
        <ele>7.1</ele>
        <time>2020-05-31T21:52:18Z</time>
      </trkpt>
      <trkpt lat="46.18251" lon="-1.38046">
        <ele>7.1</ele>
        <time>2020-05-31T21:52:19Z</time>
      </trkpt>
      <trkpt lat="46.18254" lon="-1.38051">
        <ele>7.1</ele>
        <time>2020-05-31T21:52:20Z</time>
      </trkpt>
      <trkpt lat="46.18259" lon="-1.38055">
        <ele>7.1</ele>
        <time>2020-05-31T21:52:21Z</time>
      </trkpt>
      <trkpt lat="46.18264" lon="-1.38057">
        <ele>7.1</ele>
        <time>2020-05-31T21:52:22Z</time>
      </trkpt>
      <trkpt lat="46.18269" lon="-1.38059">
        <ele>7</ele>
        <time>2020-05-31T21:52:23Z</time>
      </trkpt>
      <trkpt lat="46.18274" lon="-1.38062">
        <ele>7</ele>
        <time>2020-05-31T21:52:24Z</time>
      </trkpt>
      <trkpt lat="46.18278" lon="-1.38065">
        <ele>7</ele>
        <time>2020-05-31T21:52:25Z</time>
      </trkpt>
      <trkpt lat="46.18281" lon="-1.38067">
        <ele>6.9</ele>
        <time>2020-05-31T21:52:26Z</time>
      </trkpt>
      <trkpt lat="46.18285" lon="-1.38069">
        <ele>6.9</ele>
        <time>2020-05-31T21:52:27Z</time>
      </trkpt>
      <trkpt lat="46.1829" lon="-1.3807">
        <ele>6.8</ele>
        <time>2020-05-31T21:52:28Z</time>
      </trkpt>
      <trkpt lat="46.18292" lon="-1.38071">
        <ele>6.8</ele>
        <time>2020-05-31T21:52:29Z</time>
      </trkpt>
      <trkpt lat="46.18296" lon="-1.38073">
        <ele>6.8</ele>
        <time>2020-05-31T21:52:30Z</time>
      </trkpt>
      <trkpt lat="46.183" lon="-1.38074">
        <ele>6.7</ele>
        <time>2020-05-31T21:52:31Z</time>
      </trkpt>
      <trkpt lat="46.18303" lon="-1.38077">
        <ele>6.7</ele>
        <time>2020-05-31T21:52:32Z</time>
      </trkpt>
      <trkpt lat="46.18308" lon="-1.38078">
        <ele>6.6</ele>
        <time>2020-05-31T21:52:33Z</time>
      </trkpt>
      <trkpt lat="46.18313" lon="-1.3808">
        <ele>6.6</ele>
        <time>2020-05-31T21:52:34Z</time>
      </trkpt>
      <trkpt lat="46.18318" lon="-1.38083">
        <ele>6.6</ele>
        <time>2020-05-31T21:52:35Z</time>
      </trkpt>
      <trkpt lat="46.18322" lon="-1.38085">
        <ele>6.5</ele>
        <time>2020-05-31T21:52:36Z</time>
      </trkpt>
      <trkpt lat="46.18327" lon="-1.38087">
        <ele>6.5</ele>
        <time>2020-05-31T21:52:37Z</time>
      </trkpt>
      <trkpt lat="46.18332" lon="-1.38089">
        <ele>6.4</ele>
        <time>2020-05-31T21:52:38Z</time>
      </trkpt>
      <trkpt lat="46.18336" lon="-1.38092">
        <ele>6.4</ele>
        <time>2020-05-31T21:52:39Z</time>
      </trkpt>
      <trkpt lat="46.1834" lon="-1.38095">
        <ele>6.4</ele>
        <time>2020-05-31T21:52:40Z</time>
      </trkpt>
      <trkpt lat="46.18343" lon="-1.38097">
        <ele>6.3</ele>
        <time>2020-05-31T21:52:41Z</time>
      </trkpt>
      <trkpt lat="46.18347" lon="-1.38098">
        <ele>6.3</ele>
        <time>2020-05-31T21:52:42Z</time>
      </trkpt>
      <trkpt lat="46.18353" lon="-1.38101">
        <ele>6.3</ele>
        <time>2020-05-31T21:52:43Z</time>
      </trkpt>
      <trkpt lat="46.18359" lon="-1.38103">
        <ele>6.2</ele>
        <time>2020-05-31T21:52:44Z</time>
      </trkpt>
      <trkpt lat="46.18363" lon="-1.38106">
        <ele>6.2</ele>
        <time>2020-05-31T21:52:45Z</time>
      </trkpt>
      <trkpt lat="46.18367" lon="-1.38108">
        <ele>6.2</ele>
        <time>2020-05-31T21:52:46Z</time>
      </trkpt>
      <trkpt lat="46.18371" lon="-1.38111">
        <ele>6.2</ele>
        <time>2020-05-31T21:52:47Z</time>
      </trkpt>
      <trkpt lat="46.18375" lon="-1.38113">
        <ele>6.1</ele>
        <time>2020-05-31T21:52:48Z</time>
      </trkpt>
      <trkpt lat="46.18379" lon="-1.38115">
        <ele>6.1</ele>
        <time>2020-05-31T21:52:49Z</time>
      </trkpt>
      <trkpt lat="46.18383" lon="-1.38118">
        <ele>6</ele>
        <time>2020-05-31T21:52:50Z</time>
      </trkpt>
      <trkpt lat="46.18387" lon="-1.38121">
        <ele>6</ele>
        <time>2020-05-31T21:52:51Z</time>
      </trkpt>
      <trkpt lat="46.18392" lon="-1.38124">
        <ele>5.9</ele>
        <time>2020-05-31T21:52:52Z</time>
      </trkpt>
      <trkpt lat="46.18396" lon="-1.38126">
        <ele>5.9</ele>
        <time>2020-05-31T21:52:53Z</time>
      </trkpt>
      <trkpt lat="46.18399" lon="-1.38129">
        <ele>5.8</ele>
        <time>2020-05-31T21:52:54Z</time>
      </trkpt>
      <trkpt lat="46.18402" lon="-1.38132">
        <ele>5.7</ele>
        <time>2020-05-31T21:52:55Z</time>
      </trkpt>
      <trkpt lat="46.18406" lon="-1.38135">
        <ele>5.6</ele>
        <time>2020-05-31T21:52:56Z</time>
      </trkpt>
      <trkpt lat="46.18414" lon="-1.38141">
        <ele>5.4</ele>
        <time>2020-05-31T21:52:57Z</time>
      </trkpt>
      <trkpt lat="46.1842" lon="-1.38145">
        <ele>5.2</ele>
        <time>2020-05-31T21:52:58Z</time>
      </trkpt>
      <trkpt lat="46.18426" lon="-1.3815">
        <ele>5</ele>
        <time>2020-05-31T21:52:59Z</time>
      </trkpt>
      <trkpt lat="46.18431" lon="-1.38154">
        <ele>4.8</ele>
        <time>2020-05-31T21:53:00Z</time>
      </trkpt>
      <trkpt lat="46.18435" lon="-1.38159">
        <ele>4.7</ele>
        <time>2020-05-31T21:53:01Z</time>
      </trkpt>
      <trkpt lat="46.18439" lon="-1.38163">
        <ele>4.5</ele>
        <time>2020-05-31T21:53:02Z</time>
      </trkpt>
      <trkpt lat="46.18444" lon="-1.38171">
        <ele>4.3</ele>
        <time>2020-05-31T21:53:03Z</time>
      </trkpt>
      <trkpt lat="46.1845" lon="-1.38178">
        <ele>4.1</ele>
        <time>2020-05-31T21:53:04Z</time>
      </trkpt>
      <trkpt lat="46.18455" lon="-1.38183">
        <ele>4</ele>
        <time>2020-05-31T21:53:05Z</time>
      </trkpt>
      <trkpt lat="46.1846" lon="-1.38185">
        <ele>3.9</ele>
        <time>2020-05-31T21:53:06Z</time>
      </trkpt>
      <trkpt lat="46.18465" lon="-1.38187">
        <ele>3.8</ele>
        <time>2020-05-31T21:53:07Z</time>
      </trkpt>
      <trkpt lat="46.1847" lon="-1.38188">
        <ele>3.8</ele>
        <time>2020-05-31T21:53:08Z</time>
      </trkpt>
      <trkpt lat="46.18477" lon="-1.38189">
        <ele>3.7</ele>
        <time>2020-05-31T21:53:09Z</time>
      </trkpt>
      <trkpt lat="46.18482" lon="-1.38193">
        <ele>3.7</ele>
        <time>2020-05-31T21:53:10Z</time>
      </trkpt>
      <trkpt lat="46.18486" lon="-1.38196">
        <ele>3.7</ele>
        <time>2020-05-31T21:53:11Z</time>
      </trkpt>
      <trkpt lat="46.18487" lon="-1.38205">
        <ele>3.7</ele>
        <time>2020-05-31T21:53:12Z</time>
      </trkpt>
      <trkpt lat="46.18485" lon="-1.3821">
        <ele>3.7</ele>
        <time>2020-05-31T21:53:13Z</time>
      </trkpt>
      <trkpt lat="46.18482" lon="-1.38216">
        <ele>3.7</ele>
        <time>2020-05-31T21:53:14Z</time>
      </trkpt>
      <trkpt lat="46.18479" lon="-1.38221">
        <ele>3.7</ele>
        <time>2020-05-31T21:53:15Z</time>
      </trkpt>
      <trkpt lat="46.18476" lon="-1.38227">
        <ele>3.7</ele>
        <time>2020-05-31T21:53:16Z</time>
      </trkpt>
      <trkpt lat="46.18472" lon="-1.38233">
        <ele>3.6</ele>
        <time>2020-05-31T21:53:17Z</time>
      </trkpt>
      <trkpt lat="46.18468" lon="-1.38237">
        <ele>3.6</ele>
        <time>2020-05-31T21:53:18Z</time>
      </trkpt>
      <trkpt lat="46.18464" lon="-1.38242">
        <ele>3.6</ele>
        <time>2020-05-31T21:53:19Z</time>
      </trkpt>
      <trkpt lat="46.18461" lon="-1.38248">
        <ele>3.5</ele>
        <time>2020-05-31T21:53:20Z</time>
      </trkpt>
      <trkpt lat="46.18457" lon="-1.38252">
        <ele>3.5</ele>
        <time>2020-05-31T21:53:21Z</time>
      </trkpt>
      <trkpt lat="46.18453" lon="-1.38258">
        <ele>3.5</ele>
        <time>2020-05-31T21:53:22Z</time>
      </trkpt>
      <trkpt lat="46.18449" lon="-1.38264">
        <ele>3.5</ele>
        <time>2020-05-31T21:53:23Z</time>
      </trkpt>
      <trkpt lat="46.18446" lon="-1.38269">
        <ele>3.5</ele>
        <time>2020-05-31T21:53:24Z</time>
      </trkpt>
      <trkpt lat="46.18442" lon="-1.38275">
        <ele>3.4</ele>
        <time>2020-05-31T21:53:25Z</time>
      </trkpt>
      <trkpt lat="46.18439" lon="-1.38279">
        <ele>3.4</ele>
        <time>2020-05-31T21:53:26Z</time>
      </trkpt>
      <trkpt lat="46.18436" lon="-1.38284">
        <ele>3.4</ele>
        <time>2020-05-31T21:53:27Z</time>
      </trkpt>
      <trkpt lat="46.18434" lon="-1.38289">
        <ele>3.4</ele>
        <time>2020-05-31T21:53:28Z</time>
      </trkpt>
      <trkpt lat="46.18432" lon="-1.38292">
        <ele>3.4</ele>
        <time>2020-05-31T21:53:29Z</time>
      </trkpt>
      <trkpt lat="46.18429" lon="-1.38297">
        <ele>3.4</ele>
        <time>2020-05-31T21:53:30Z</time>
      </trkpt>
      <trkpt lat="46.18426" lon="-1.38301">
        <ele>3.4</ele>
        <time>2020-05-31T21:53:31Z</time>
      </trkpt>
      <trkpt lat="46.18422" lon="-1.38306">
        <ele>3.4</ele>
        <time>2020-05-31T21:53:32Z</time>
      </trkpt>
      <trkpt lat="46.18417" lon="-1.38312">
        <ele>3.5</ele>
        <time>2020-05-31T21:53:33Z</time>
      </trkpt>
      <trkpt lat="46.18412" lon="-1.38318">
        <ele>3.5</ele>
        <time>2020-05-31T21:53:34Z</time>
      </trkpt>
      <trkpt lat="46.18409" lon="-1.38324">
        <ele>3.6</ele>
        <time>2020-05-31T21:53:35Z</time>
      </trkpt>
      <trkpt lat="46.18406" lon="-1.38331">
        <ele>3.7</ele>
        <time>2020-05-31T21:53:36Z</time>
      </trkpt>
      <trkpt lat="46.18402" lon="-1.38337">
        <ele>3.7</ele>
        <time>2020-05-31T21:53:37Z</time>
      </trkpt>
      <trkpt lat="46.184" lon="-1.38344">
        <ele>3.8</ele>
        <time>2020-05-31T21:53:38Z</time>
      </trkpt>
      <trkpt lat="46.18401" lon="-1.38349">
        <ele>3.8</ele>
        <time>2020-05-31T21:53:39Z</time>
      </trkpt>
      <trkpt lat="46.18403" lon="-1.38353">
        <ele>3.9</ele>
        <time>2020-05-31T21:53:40Z</time>
      </trkpt>
      <trkpt lat="46.18406" lon="-1.38357">
        <ele>3.9</ele>
        <time>2020-05-31T21:53:41Z</time>
      </trkpt>
      <trkpt lat="46.18408" lon="-1.3836">
        <ele>3.9</ele>
        <time>2020-05-31T21:53:42Z</time>
      </trkpt>
      <trkpt lat="46.18411" lon="-1.38363">
        <ele>3.9</ele>
        <time>2020-05-31T21:53:43Z</time>
      </trkpt>
      <trkpt lat="46.18415" lon="-1.38367">
        <ele>4</ele>
        <time>2020-05-31T21:53:44Z</time>
      </trkpt>
      <trkpt lat="46.18418" lon="-1.38369">
        <ele>4</ele>
        <time>2020-05-31T21:53:45Z</time>
      </trkpt>
      <trkpt lat="46.18421" lon="-1.38373">
        <ele>4</ele>
        <time>2020-05-31T21:53:46Z</time>
      </trkpt>
      <trkpt lat="46.18424" lon="-1.38378">
        <ele>4.1</ele>
        <time>2020-05-31T21:53:47Z</time>
      </trkpt>
      <trkpt lat="46.18428" lon="-1.38383">
        <ele>4.2</ele>
        <time>2020-05-31T21:53:48Z</time>
      </trkpt>
      <trkpt lat="46.18431" lon="-1.38389">
        <ele>4.3</ele>
        <time>2020-05-31T21:53:49Z</time>
      </trkpt>
      <trkpt lat="46.18434" lon="-1.38394">
        <ele>4.4</ele>
        <time>2020-05-31T21:53:50Z</time>
      </trkpt>
      <trkpt lat="46.18437" lon="-1.384">
        <ele>4.5</ele>
        <time>2020-05-31T21:53:51Z</time>
      </trkpt>
      <trkpt lat="46.18441" lon="-1.38406">
        <ele>4.6</ele>
        <time>2020-05-31T21:53:52Z</time>
      </trkpt>
      <trkpt lat="46.18444" lon="-1.38411">
        <ele>4.7</ele>
        <time>2020-05-31T21:53:53Z</time>
      </trkpt>
      <trkpt lat="46.18447" lon="-1.38417">
        <ele>4.7</ele>
        <time>2020-05-31T21:53:54Z</time>
      </trkpt>
      <trkpt lat="46.1845" lon="-1.38422">
        <ele>4.7</ele>
        <time>2020-05-31T21:53:55Z</time>
      </trkpt>
      <trkpt lat="46.18454" lon="-1.38429">
        <ele>4.8</ele>
        <time>2020-05-31T21:53:56Z</time>
      </trkpt>
      <trkpt lat="46.18458" lon="-1.38435">
        <ele>4.8</ele>
        <time>2020-05-31T21:53:57Z</time>
      </trkpt>
      <trkpt lat="46.1846" lon="-1.38439">
        <ele>4.8</ele>
        <time>2020-05-31T21:53:58Z</time>
      </trkpt>
      <trkpt lat="46.18462" lon="-1.38444">
        <ele>4.8</ele>
        <time>2020-05-31T21:53:59Z</time>
      </trkpt>
      <trkpt lat="46.18465" lon="-1.38448">
        <ele>4.8</ele>
        <time>2020-05-31T21:54:00Z</time>
      </trkpt>
      <trkpt lat="46.18468" lon="-1.38451">
        <ele>4.8</ele>
        <time>2020-05-31T21:54:01Z</time>
      </trkpt>
      <trkpt lat="46.18471" lon="-1.38454">
        <ele>4.8</ele>
        <time>2020-05-31T21:54:02Z</time>
      </trkpt>
      <trkpt lat="46.18473" lon="-1.38455">
        <ele>4.8</ele>
        <time>2020-05-31T21:54:03Z</time>
      </trkpt>
      <trkpt lat="46.18475" lon="-1.38457">
        <ele>4.9</ele>
        <time>2020-05-31T21:54:04Z</time>
      </trkpt>
      <trkpt lat="46.18476" lon="-1.3846">
        <ele>4.9</ele>
        <time>2020-05-31T21:54:05Z</time>
      </trkpt>
      <trkpt lat="46.18475" lon="-1.38465">
        <ele>4.9</ele>
        <time>2020-05-31T21:54:06Z</time>
      </trkpt>
      <trkpt lat="46.18476" lon="-1.38471">
        <ele>4.9</ele>
        <time>2020-05-31T21:54:07Z</time>
      </trkpt>
      <trkpt lat="46.18476" lon="-1.38473">
        <ele>4.9</ele>
        <time>2020-05-31T21:54:08Z</time>
      </trkpt>
      <trkpt lat="46.18477" lon="-1.38479">
        <ele>4.9</ele>
        <time>2020-05-31T21:54:09Z</time>
      </trkpt>
      <trkpt lat="46.18478" lon="-1.38481">
        <ele>4.9</ele>
        <time>2020-05-31T21:54:10Z</time>
      </trkpt>
      <trkpt lat="46.1848" lon="-1.38484">
        <ele>4.9</ele>
        <time>2020-05-31T21:54:11Z</time>
      </trkpt>
      <trkpt lat="46.18482" lon="-1.38487">
        <ele>4.9</ele>
        <time>2020-05-31T21:54:12Z</time>
      </trkpt>
      <trkpt lat="46.18484" lon="-1.38493">
        <ele>4.9</ele>
        <time>2020-05-31T21:54:13Z</time>
      </trkpt>
      <trkpt lat="46.18485" lon="-1.38496">
        <ele>4.9</ele>
        <time>2020-05-31T21:54:14Z</time>
      </trkpt>
      <trkpt lat="46.18485" lon="-1.38501">
        <ele>4.9</ele>
        <time>2020-05-31T21:54:15Z</time>
      </trkpt>
      <trkpt lat="46.18485" lon="-1.38506">
        <ele>4.9</ele>
        <time>2020-05-31T21:54:16Z</time>
      </trkpt>
      <trkpt lat="46.18486" lon="-1.38511">
        <ele>4.9</ele>
        <time>2020-05-31T21:54:17Z</time>
      </trkpt>
      <trkpt lat="46.18489" lon="-1.38517">
        <ele>5</ele>
        <time>2020-05-31T21:54:18Z</time>
      </trkpt>
      <trkpt lat="46.1849" lon="-1.38519">
        <ele>5</ele>
        <time>2020-05-31T21:54:19Z</time>
      </trkpt>
      <trkpt lat="46.18491" lon="-1.38525">
        <ele>5</ele>
        <time>2020-05-31T21:54:20Z</time>
      </trkpt>
      <trkpt lat="46.18493" lon="-1.38531">
        <ele>5</ele>
        <time>2020-05-31T21:54:21Z</time>
      </trkpt>
      <trkpt lat="46.18494" lon="-1.38537">
        <ele>5.1</ele>
        <time>2020-05-31T21:54:22Z</time>
      </trkpt>
      <trkpt lat="46.18496" lon="-1.38545">
        <ele>5.1</ele>
        <time>2020-05-31T21:54:23Z</time>
      </trkpt>
      <trkpt lat="46.18497" lon="-1.3855">
        <ele>5.1</ele>
        <time>2020-05-31T21:54:24Z</time>
      </trkpt>
      <trkpt lat="46.18498" lon="-1.38556">
        <ele>5.2</ele>
        <time>2020-05-31T21:54:25Z</time>
      </trkpt>
      <trkpt lat="46.185" lon="-1.38562">
        <ele>5.2</ele>
        <time>2020-05-31T21:54:26Z</time>
      </trkpt>
      <trkpt lat="46.18501" lon="-1.38569">
        <ele>5.2</ele>
        <time>2020-05-31T21:54:27Z</time>
      </trkpt>
      <trkpt lat="46.18503" lon="-1.38576">
        <ele>5.2</ele>
        <time>2020-05-31T21:54:28Z</time>
      </trkpt>
      <trkpt lat="46.18504" lon="-1.38584">
        <ele>5.3</ele>
        <time>2020-05-31T21:54:29Z</time>
      </trkpt>
      <trkpt lat="46.18504" lon="-1.38591">
        <ele>5.3</ele>
        <time>2020-05-31T21:54:30Z</time>
      </trkpt>
      <trkpt lat="46.18505" lon="-1.38599">
        <ele>5.3</ele>
        <time>2020-05-31T21:54:31Z</time>
      </trkpt>
      <trkpt lat="46.18505" lon="-1.38606">
        <ele>5.3</ele>
        <time>2020-05-31T21:54:32Z</time>
      </trkpt>
      <trkpt lat="46.18504" lon="-1.38613">
        <ele>5.4</ele>
        <time>2020-05-31T21:54:33Z</time>
      </trkpt>
      <trkpt lat="46.18505" lon="-1.3862">
        <ele>5.5</ele>
        <time>2020-05-31T21:54:34Z</time>
      </trkpt>
      <trkpt lat="46.18505" lon="-1.38627">
        <ele>5.5</ele>
        <time>2020-05-31T21:54:35Z</time>
      </trkpt>
      <trkpt lat="46.18505" lon="-1.38634">
        <ele>5.6</ele>
        <time>2020-05-31T21:54:36Z</time>
      </trkpt>
      <trkpt lat="46.18505" lon="-1.3864">
        <ele>5.6</ele>
        <time>2020-05-31T21:54:37Z</time>
      </trkpt>
      <trkpt lat="46.18503" lon="-1.38646">
        <ele>5.7</ele>
        <time>2020-05-31T21:54:38Z</time>
      </trkpt>
      <trkpt lat="46.18503" lon="-1.38653">
        <ele>5.8</ele>
        <time>2020-05-31T21:54:39Z</time>
      </trkpt>
      <trkpt lat="46.18502" lon="-1.38661">
        <ele>5.8</ele>
        <time>2020-05-31T21:54:40Z</time>
      </trkpt>
      <trkpt lat="46.18501" lon="-1.38668">
        <ele>5.8</ele>
        <time>2020-05-31T21:54:41Z</time>
      </trkpt>
      <trkpt lat="46.18501" lon="-1.38674">
        <ele>5.9</ele>
        <time>2020-05-31T21:54:42Z</time>
      </trkpt>
      <trkpt lat="46.18499" lon="-1.38681">
        <ele>5.9</ele>
        <time>2020-05-31T21:54:43Z</time>
      </trkpt>
      <trkpt lat="46.18499" lon="-1.38688">
        <ele>6</ele>
        <time>2020-05-31T21:54:44Z</time>
      </trkpt>
      <trkpt lat="46.18497" lon="-1.38694">
        <ele>6</ele>
        <time>2020-05-31T21:54:45Z</time>
      </trkpt>
      <trkpt lat="46.18495" lon="-1.38699">
        <ele>6</ele>
        <time>2020-05-31T21:54:46Z</time>
      </trkpt>
      <trkpt lat="46.18492" lon="-1.38705">
        <ele>6</ele>
        <time>2020-05-31T21:54:47Z</time>
      </trkpt>
      <trkpt lat="46.18488" lon="-1.38707">
        <ele>6</ele>
        <time>2020-05-31T21:54:48Z</time>
      </trkpt>
      <trkpt lat="46.18482" lon="-1.38704">
        <ele>6</ele>
        <time>2020-05-31T21:54:49Z</time>
      </trkpt>
      <trkpt lat="46.18477" lon="-1.38701">
        <ele>6</ele>
        <time>2020-05-31T21:54:50Z</time>
      </trkpt>
      <trkpt lat="46.18471" lon="-1.387">
        <ele>5.9</ele>
        <time>2020-05-31T21:54:51Z</time>
      </trkpt>
      <trkpt lat="46.18466" lon="-1.38699">
        <ele>5.8</ele>
        <time>2020-05-31T21:54:52Z</time>
      </trkpt>
      <trkpt lat="46.18462" lon="-1.38696">
        <ele>5.7</ele>
        <time>2020-05-31T21:54:53Z</time>
      </trkpt>
      <trkpt lat="46.18457" lon="-1.38693">
        <ele>5.7</ele>
        <time>2020-05-31T21:54:54Z</time>
      </trkpt>
      <trkpt lat="46.18452" lon="-1.38691">
        <ele>5.6</ele>
        <time>2020-05-31T21:54:55Z</time>
      </trkpt>
      <trkpt lat="46.18446" lon="-1.38687">
        <ele>5.5</ele>
        <time>2020-05-31T21:54:56Z</time>
      </trkpt>
      <trkpt lat="46.18441" lon="-1.38683">
        <ele>5.4</ele>
        <time>2020-05-31T21:54:57Z</time>
      </trkpt>
      <trkpt lat="46.18436" lon="-1.38681">
        <ele>5.3</ele>
        <time>2020-05-31T21:54:58Z</time>
      </trkpt>
      <trkpt lat="46.18432" lon="-1.38677">
        <ele>5.2</ele>
        <time>2020-05-31T21:54:59Z</time>
      </trkpt>
      <trkpt lat="46.18428" lon="-1.38673">
        <ele>5.1</ele>
        <time>2020-05-31T21:55:00Z</time>
      </trkpt>
      <trkpt lat="46.18424" lon="-1.3867">
        <ele>5.1</ele>
        <time>2020-05-31T21:55:01Z</time>
      </trkpt>
      <trkpt lat="46.1842" lon="-1.38666">
        <ele>5</ele>
        <time>2020-05-31T21:55:02Z</time>
      </trkpt>
      <trkpt lat="46.18414" lon="-1.38663">
        <ele>5</ele>
        <time>2020-05-31T21:55:03Z</time>
      </trkpt>
      <trkpt lat="46.1841" lon="-1.3866">
        <ele>4.9</ele>
        <time>2020-05-31T21:55:04Z</time>
      </trkpt>
      <trkpt lat="46.18405" lon="-1.38656">
        <ele>4.9</ele>
        <time>2020-05-31T21:55:05Z</time>
      </trkpt>
      <trkpt lat="46.18401" lon="-1.38652">
        <ele>4.9</ele>
        <time>2020-05-31T21:55:06Z</time>
      </trkpt>
      <trkpt lat="46.18396" lon="-1.38648">
        <ele>4.8</ele>
        <time>2020-05-31T21:55:07Z</time>
      </trkpt>
      <trkpt lat="46.18392" lon="-1.38645">
        <ele>4.8</ele>
        <time>2020-05-31T21:55:08Z</time>
      </trkpt>
      <trkpt lat="46.18386" lon="-1.38641">
        <ele>4.7</ele>
        <time>2020-05-31T21:55:09Z</time>
      </trkpt>
      <trkpt lat="46.18381" lon="-1.3864">
        <ele>4.7</ele>
        <time>2020-05-31T21:55:10Z</time>
      </trkpt>
      <trkpt lat="46.18376" lon="-1.38636">
        <ele>4.6</ele>
        <time>2020-05-31T21:55:11Z</time>
      </trkpt>
      <trkpt lat="46.18372" lon="-1.38632">
        <ele>4.6</ele>
        <time>2020-05-31T21:55:12Z</time>
      </trkpt>
      <trkpt lat="46.18367" lon="-1.38628">
        <ele>4.5</ele>
        <time>2020-05-31T21:55:13Z</time>
      </trkpt>
      <trkpt lat="46.18363" lon="-1.38625">
        <ele>4.5</ele>
        <time>2020-05-31T21:55:14Z</time>
      </trkpt>
      <trkpt lat="46.18359" lon="-1.38622">
        <ele>4.4</ele>
        <time>2020-05-31T21:55:15Z</time>
      </trkpt>
      <trkpt lat="46.18354" lon="-1.38618">
        <ele>4.4</ele>
        <time>2020-05-31T21:55:16Z</time>
      </trkpt>
      <trkpt lat="46.1835" lon="-1.38614">
        <ele>4.4</ele>
        <time>2020-05-31T21:55:17Z</time>
      </trkpt>
      <trkpt lat="46.18345" lon="-1.3861">
        <ele>4.4</ele>
        <time>2020-05-31T21:55:18Z</time>
      </trkpt>
      <trkpt lat="46.18341" lon="-1.38607">
        <ele>4.4</ele>
        <time>2020-05-31T21:55:19Z</time>
      </trkpt>
      <trkpt lat="46.18336" lon="-1.38604">
        <ele>4.3</ele>
        <time>2020-05-31T21:55:20Z</time>
      </trkpt>
      <trkpt lat="46.18332" lon="-1.38602">
        <ele>4.3</ele>
        <time>2020-05-31T21:55:21Z</time>
      </trkpt>
      <trkpt lat="46.18327" lon="-1.38599">
        <ele>4.3</ele>
        <time>2020-05-31T21:55:22Z</time>
      </trkpt>
      <trkpt lat="46.18324" lon="-1.38596">
        <ele>4.3</ele>
        <time>2020-05-31T21:55:23Z</time>
      </trkpt>
      <trkpt lat="46.1832" lon="-1.38593">
        <ele>4.4</ele>
        <time>2020-05-31T21:55:24Z</time>
      </trkpt>
      <trkpt lat="46.18317" lon="-1.38591">
        <ele>4.4</ele>
        <time>2020-05-31T21:55:25Z</time>
      </trkpt>
      <trkpt lat="46.18313" lon="-1.38588">
        <ele>4.4</ele>
        <time>2020-05-31T21:55:26Z</time>
      </trkpt>
      <trkpt lat="46.1831" lon="-1.38587">
        <ele>4.3</ele>
        <time>2020-05-31T21:55:27Z</time>
      </trkpt>
      <trkpt lat="46.18306" lon="-1.38585">
        <ele>4.3</ele>
        <time>2020-05-31T21:55:28Z</time>
      </trkpt>
      <trkpt lat="46.18302" lon="-1.38584">
        <ele>4.3</ele>
        <time>2020-05-31T21:55:29Z</time>
      </trkpt>
      <trkpt lat="46.18301" lon="-1.38583">
        <ele>4.3</ele>
        <time>2020-05-31T21:55:30Z</time>
      </trkpt>
      <trkpt lat="46.18297" lon="-1.3858">
        <ele>4.2</ele>
        <time>2020-05-31T21:55:31Z</time>
      </trkpt>
      <trkpt lat="46.18294" lon="-1.38578">
        <ele>4.2</ele>
        <time>2020-05-31T21:55:32Z</time>
      </trkpt>
      <trkpt lat="46.18292" lon="-1.38577">
        <ele>4.2</ele>
        <time>2020-05-31T21:55:33Z</time>
      </trkpt>
      <trkpt lat="46.18289" lon="-1.38576">
        <ele>4.2</ele>
        <time>2020-05-31T21:55:34Z</time>
      </trkpt>
      <trkpt lat="46.18286" lon="-1.38575">
        <ele>4.2</ele>
        <time>2020-05-31T21:55:35Z</time>
      </trkpt>
      <trkpt lat="46.18283" lon="-1.38573">
        <ele>4.1</ele>
        <time>2020-05-31T21:55:36Z</time>
      </trkpt>
      <trkpt lat="46.18279" lon="-1.38572">
        <ele>4.1</ele>
        <time>2020-05-31T21:55:37Z</time>
      </trkpt>
      <trkpt lat="46.18278" lon="-1.38571">
        <ele>4.1</ele>
        <time>2020-05-31T21:55:38Z</time>
      </trkpt>
      <trkpt lat="46.18274" lon="-1.38571">
        <ele>4</ele>
        <time>2020-05-31T21:55:39Z</time>
      </trkpt>
      <trkpt lat="46.18272" lon="-1.3857">
        <ele>4</ele>
        <time>2020-05-31T21:55:40Z</time>
      </trkpt>
      <trkpt lat="46.18269" lon="-1.38569">
        <ele>4</ele>
        <time>2020-05-31T21:55:41Z</time>
      </trkpt>
      <trkpt lat="46.18266" lon="-1.38567">
        <ele>3.9</ele>
        <time>2020-05-31T21:55:42Z</time>
      </trkpt>
      <trkpt lat="46.18264" lon="-1.38566">
        <ele>3.9</ele>
        <time>2020-05-31T21:55:43Z</time>
      </trkpt>
      <trkpt lat="46.18261" lon="-1.38564">
        <ele>3.9</ele>
        <time>2020-05-31T21:55:44Z</time>
      </trkpt>
      <trkpt lat="46.18257" lon="-1.38563">
        <ele>3.8</ele>
        <time>2020-05-31T21:55:45Z</time>
      </trkpt>
      <trkpt lat="46.18254" lon="-1.38562">
        <ele>3.8</ele>
        <time>2020-05-31T21:55:46Z</time>
      </trkpt>
      <trkpt lat="46.18251" lon="-1.3856">
        <ele>3.8</ele>
        <time>2020-05-31T21:55:47Z</time>
      </trkpt>
      <trkpt lat="46.18248" lon="-1.38559">
        <ele>3.7</ele>
        <time>2020-05-31T21:55:48Z</time>
      </trkpt>
      <trkpt lat="46.18244" lon="-1.38558">
        <ele>3.7</ele>
        <time>2020-05-31T21:55:49Z</time>
      </trkpt>
      <trkpt lat="46.18241" lon="-1.38556">
        <ele>3.6</ele>
        <time>2020-05-31T21:55:50Z</time>
      </trkpt>
      <trkpt lat="46.1824" lon="-1.38555">
        <ele>3.6</ele>
        <time>2020-05-31T21:55:51Z</time>
      </trkpt>
      <trkpt lat="46.18239" lon="-1.38555">
        <ele>3.6</ele>
        <time>2020-05-31T21:55:52Z</time>
      </trkpt>
      <trkpt lat="46.18238" lon="-1.38554">
        <ele>3.6</ele>
        <time>2020-05-31T21:55:53Z</time>
      </trkpt>
      <trkpt lat="46.18234" lon="-1.38553">
        <ele>3.6</ele>
        <time>2020-05-31T21:55:54Z</time>
      </trkpt>
      <trkpt lat="46.18232" lon="-1.38552">
        <ele>3.5</ele>
        <time>2020-05-31T21:55:55Z</time>
      </trkpt>
      <trkpt lat="46.18228" lon="-1.38552">
        <ele>3.5</ele>
        <time>2020-05-31T21:55:56Z</time>
      </trkpt>
      <trkpt lat="46.18224" lon="-1.3855">
        <ele>3.5</ele>
        <time>2020-05-31T21:55:57Z</time>
      </trkpt>
      <trkpt lat="46.1822" lon="-1.3855">
        <ele>3.5</ele>
        <time>2020-05-31T21:55:58Z</time>
      </trkpt>
      <trkpt lat="46.18216" lon="-1.3855">
        <ele>3.4</ele>
        <time>2020-05-31T21:55:59Z</time>
      </trkpt>
      <trkpt lat="46.18215" lon="-1.38549">
        <ele>3.4</ele>
        <time>2020-05-31T21:56:00Z</time>
      </trkpt>
      <trkpt lat="46.18212" lon="-1.38549">
        <ele>3.4</ele>
        <time>2020-05-31T21:56:01Z</time>
      </trkpt>
      <trkpt lat="46.1821" lon="-1.3855">
        <ele>3.4</ele>
        <time>2020-05-31T21:56:02Z</time>
      </trkpt>
      <trkpt lat="46.18207" lon="-1.38552">
        <ele>3.4</ele>
        <time>2020-05-31T21:56:03Z</time>
      </trkpt>
      <trkpt lat="46.18204" lon="-1.38558">
        <ele>3.3</ele>
        <time>2020-05-31T21:56:04Z</time>
      </trkpt>
      <trkpt lat="46.18202" lon="-1.38564">
        <ele>3.4</ele>
        <time>2020-05-31T21:56:05Z</time>
      </trkpt>
      <trkpt lat="46.18201" lon="-1.38571">
        <ele>3.4</ele>
        <time>2020-05-31T21:56:06Z</time>
      </trkpt>
      <trkpt lat="46.18201" lon="-1.38577">
        <ele>3.4</ele>
        <time>2020-05-31T21:56:07Z</time>
      </trkpt>
      <trkpt lat="46.182" lon="-1.38583">
        <ele>3.5</ele>
        <time>2020-05-31T21:56:08Z</time>
      </trkpt>
      <trkpt lat="46.18199" lon="-1.3859">
        <ele>3.5</ele>
        <time>2020-05-31T21:56:09Z</time>
      </trkpt>
      <trkpt lat="46.18199" lon="-1.38595">
        <ele>3.5</ele>
        <time>2020-05-31T21:56:10Z</time>
      </trkpt>
      <trkpt lat="46.18198" lon="-1.38601">
        <ele>3.6</ele>
        <time>2020-05-31T21:56:11Z</time>
      </trkpt>
      <trkpt lat="46.18197" lon="-1.38606">
        <ele>3.6</ele>
        <time>2020-05-31T21:56:12Z</time>
      </trkpt>
      <trkpt lat="46.18196" lon="-1.38611">
        <ele>3.6</ele>
        <time>2020-05-31T21:56:13Z</time>
      </trkpt>
      <trkpt lat="46.18197" lon="-1.38618">
        <ele>3.7</ele>
        <time>2020-05-31T21:56:14Z</time>
      </trkpt>
      <trkpt lat="46.18196" lon="-1.38623">
        <ele>3.7</ele>
        <time>2020-05-31T21:56:15Z</time>
      </trkpt>
      <trkpt lat="46.18195" lon="-1.38628">
        <ele>3.8</ele>
        <time>2020-05-31T21:56:16Z</time>
      </trkpt>
      <trkpt lat="46.18195" lon="-1.38633">
        <ele>3.8</ele>
        <time>2020-05-31T21:56:17Z</time>
      </trkpt>
      <trkpt lat="46.18195" lon="-1.38638">
        <ele>3.8</ele>
        <time>2020-05-31T21:56:18Z</time>
      </trkpt>
      <trkpt lat="46.18195" lon="-1.3864">
        <ele>3.8</ele>
        <time>2020-05-31T21:56:19Z</time>
      </trkpt>
      <trkpt lat="46.18195" lon="-1.38641">
        <ele>3.8</ele>
        <time>2020-05-31T21:56:20Z</time>
      </trkpt>
      <trkpt lat="46.18194" lon="-1.38641">
        <ele>3.8</ele>
        <time>2020-05-31T21:56:21Z</time>
      </trkpt>
      <trkpt lat="46.18194" lon="-1.38642">
        <ele>3.8</ele>
        <time>2020-05-31T21:56:22Z</time>
      </trkpt>
      <trkpt lat="46.18194" lon="-1.38641">
        <ele>3.8</ele>
        <time>2020-05-31T21:56:23Z</time>
      </trkpt>
      <trkpt lat="46.18195" lon="-1.38641">
        <ele>3.8</ele>
        <time>2020-05-31T21:56:24Z</time>
      </trkpt>
      <trkpt lat="46.18195" lon="-1.3864">
        <ele>3.8</ele>
        <time>2020-05-31T21:56:25Z</time>
      </trkpt>
      <trkpt lat="46.18195" lon="-1.3864">
        <ele>3.8</ele>
        <time>2020-05-31T21:56:26Z</time>
      </trkpt>
      <trkpt lat="46.18196" lon="-1.3864">
        <ele>3.8</ele>
        <time>2020-05-31T21:56:27Z</time>
      </trkpt>
      <trkpt lat="46.18195" lon="-1.3864">
        <ele>3.8</ele>
        <time>2020-05-31T21:56:28Z</time>
      </trkpt>
      <trkpt lat="46.18194" lon="-1.38641">
        <ele>3.8</ele>
        <time>2020-05-31T21:56:29Z</time>
      </trkpt>
      <trkpt lat="46.18194" lon="-1.38641">
        <ele>3.8</ele>
        <time>2020-05-31T21:56:30Z</time>
      </trkpt>
      <trkpt lat="46.18193" lon="-1.38641">
        <ele>3.8</ele>
        <time>2020-05-31T21:56:31Z</time>
      </trkpt>
      <trkpt lat="46.18195" lon="-1.38641">
        <ele>3.8</ele>
        <time>2020-05-31T21:56:32Z</time>
      </trkpt>
      <trkpt lat="46.18195" lon="-1.3864">
        <ele>3.8</ele>
        <time>2020-05-31T21:56:33Z</time>
      </trkpt>
      <trkpt lat="46.18195" lon="-1.3864">
        <ele>3.8</ele>
        <time>2020-05-31T21:56:34Z</time>
      </trkpt>
      <trkpt lat="46.18195" lon="-1.3864">
        <ele>3.8</ele>
        <time>2020-05-31T21:56:35Z</time>
      </trkpt>
      <trkpt lat="46.18195" lon="-1.3864">
        <ele>3.8</ele>
        <time>2020-05-31T21:56:36Z</time>
      </trkpt>
      <trkpt lat="46.18195" lon="-1.3864">
        <ele>3.8</ele>
        <time>2020-05-31T21:56:37Z</time>
      </trkpt>
      <trkpt lat="46.18195" lon="-1.38641">
        <ele>3.8</ele>
        <time>2020-05-31T21:56:38Z</time>
      </trkpt>
      <trkpt lat="46.18195" lon="-1.38641">
        <ele>3.8</ele>
        <time>2020-05-31T21:56:39Z</time>
      </trkpt>
      <trkpt lat="46.18195" lon="-1.38641">
        <ele>3.8</ele>
        <time>2020-05-31T21:56:40Z</time>
      </trkpt>
      <trkpt lat="46.18195" lon="-1.38641">
        <ele>3.8</ele>
        <time>2020-05-31T21:56:41Z</time>
      </trkpt>
      <trkpt lat="46.18195" lon="-1.38641">
        <ele>3.8</ele>
        <time>2020-05-31T21:56:42Z</time>
      </trkpt>
      <trkpt lat="46.18195" lon="-1.38641">
        <ele>3.8</ele>
        <time>2020-05-31T21:56:43Z</time>
      </trkpt>
      <trkpt lat="46.18195" lon="-1.38641">
        <ele>3.8</ele>
        <time>2020-05-31T21:56:44Z</time>
      </trkpt>
      <trkpt lat="46.18195" lon="-1.38641">
        <ele>3.8</ele>
        <time>2020-05-31T21:56:45Z</time>
      </trkpt>
      <trkpt lat="46.18195" lon="-1.38641">
        <ele>3.8</ele>
        <time>2020-05-31T21:56:46Z</time>
      </trkpt>
      <trkpt lat="46.18195" lon="-1.38641">
        <ele>3.8</ele>
        <time>2020-05-31T21:56:47Z</time>
      </trkpt>
      <trkpt lat="46.18195" lon="-1.38641">
        <ele>3.8</ele>
        <time>2020-05-31T21:56:48Z</time>
      </trkpt>
      <trkpt lat="46.18195" lon="-1.38641">
        <ele>3.8</ele>
        <time>2020-05-31T21:56:49Z</time>
      </trkpt>
      <trkpt lat="46.18195" lon="-1.38641">
        <ele>3.8</ele>
        <time>2020-05-31T21:56:50Z</time>
      </trkpt>
      <trkpt lat="46.18194" lon="-1.38641">
        <ele>3.8</ele>
        <time>2020-05-31T21:56:51Z</time>
      </trkpt>
      <trkpt lat="46.18194" lon="-1.38641">
        <ele>3.8</ele>
        <time>2020-05-31T21:56:52Z</time>
      </trkpt>
      <trkpt lat="46.18194" lon="-1.38641">
        <ele>3.8</ele>
        <time>2020-05-31T21:56:53Z</time>
      </trkpt>
      <trkpt lat="46.18194" lon="-1.38641">
        <ele>3.8</ele>
        <time>2020-05-31T21:56:54Z</time>
      </trkpt>
      <trkpt lat="46.18194" lon="-1.38641">
        <ele>3.8</ele>
        <time>2020-05-31T21:56:55Z</time>
      </trkpt>
      <trkpt lat="46.18194" lon="-1.38641">
        <ele>3.8</ele>
        <time>2020-05-31T21:56:56Z</time>
      </trkpt>
      <trkpt lat="46.18194" lon="-1.38641">
        <ele>3.8</ele>
        <time>2020-05-31T21:56:57Z</time>
      </trkpt>
      <trkpt lat="46.18194" lon="-1.38641">
        <ele>3.8</ele>
        <time>2020-05-31T21:56:58Z</time>
      </trkpt>
      <trkpt lat="46.18194" lon="-1.38641">
        <ele>3.8</ele>
        <time>2020-05-31T21:56:59Z</time>
      </trkpt>
      <trkpt lat="46.18194" lon="-1.38642">
        <ele>3.8</ele>
        <time>2020-05-31T21:57:00Z</time>
      </trkpt>
      <trkpt lat="46.18194" lon="-1.38642">
        <ele>3.8</ele>
        <time>2020-05-31T21:57:01Z</time>
      </trkpt>
      <trkpt lat="46.18194" lon="-1.38642">
        <ele>3.8</ele>
        <time>2020-05-31T21:57:02Z</time>
      </trkpt>
      <trkpt lat="46.18194" lon="-1.38642">
        <ele>3.8</ele>
        <time>2020-05-31T21:57:03Z</time>
      </trkpt>
      <trkpt lat="46.18194" lon="-1.38642">
        <ele>3.8</ele>
        <time>2020-05-31T21:57:04Z</time>
      </trkpt>
      <trkpt lat="46.18194" lon="-1.38642">
        <ele>3.8</ele>
        <time>2020-05-31T21:57:05Z</time>
      </trkpt>
      <trkpt lat="46.18194" lon="-1.38642">
        <ele>3.8</ele>
        <time>2020-05-31T21:57:06Z</time>
      </trkpt>
      <trkpt lat="46.18194" lon="-1.38642">
        <ele>3.8</ele>
        <time>2020-05-31T21:57:07Z</time>
      </trkpt>
      <trkpt lat="46.18194" lon="-1.38642">
        <ele>3.8</ele>
        <time>2020-05-31T21:57:08Z</time>
      </trkpt>
      <trkpt lat="46.18194" lon="-1.38642">
        <ele>3.8</ele>
        <time>2020-05-31T21:57:09Z</time>
      </trkpt>
      <trkpt lat="46.18194" lon="-1.38642">
        <ele>3.8</ele>
        <time>2020-05-31T21:57:10Z</time>
      </trkpt>
      <trkpt lat="46.18194" lon="-1.38642">
        <ele>3.7</ele>
        <time>2020-05-31T21:57:11Z</time>
      </trkpt>
      <trkpt lat="46.18194" lon="-1.38642">
        <ele>3.7</ele>
        <time>2020-05-31T21:57:12Z</time>
      </trkpt>
      <trkpt lat="46.18194" lon="-1.38642">
        <ele>3.7</ele>
        <time>2020-05-31T21:57:13Z</time>
      </trkpt>
      <trkpt lat="46.18194" lon="-1.38643">
        <ele>3.7</ele>
        <time>2020-05-31T21:57:14Z</time>
      </trkpt>
      <trkpt lat="46.18194" lon="-1.38643">
        <ele>3.7</ele>
        <time>2020-05-31T21:57:15Z</time>
      </trkpt>
      <trkpt lat="46.18194" lon="-1.38643">
        <ele>3.7</ele>
        <time>2020-05-31T21:57:16Z</time>
      </trkpt>
      <trkpt lat="46.18194" lon="-1.38644">
        <ele>3.7</ele>
        <time>2020-05-31T21:57:17Z</time>
      </trkpt>
      <trkpt lat="46.18194" lon="-1.38644">
        <ele>3.7</ele>
        <time>2020-05-31T21:57:18Z</time>
      </trkpt>
      <trkpt lat="46.18194" lon="-1.38644">
        <ele>3.7</ele>
        <time>2020-05-31T21:57:19Z</time>
      </trkpt>
      <trkpt lat="46.18194" lon="-1.38644">
        <ele>3.7</ele>
        <time>2020-05-31T21:57:20Z</time>
      </trkpt>
      <trkpt lat="46.18195" lon="-1.38644">
        <ele>3.7</ele>
        <time>2020-05-31T21:57:21Z</time>
      </trkpt>
      <trkpt lat="46.18195" lon="-1.38645">
        <ele>3.7</ele>
        <time>2020-05-31T21:57:22Z</time>
      </trkpt>
      <trkpt lat="46.18195" lon="-1.38644">
        <ele>3.7</ele>
        <time>2020-05-31T21:57:23Z</time>
      </trkpt>
      <trkpt lat="46.18195" lon="-1.38645">
        <ele>3.7</ele>
        <time>2020-05-31T21:57:24Z</time>
      </trkpt>
      <trkpt lat="46.18195" lon="-1.38645">
        <ele>3.7</ele>
        <time>2020-05-31T21:57:25Z</time>
      </trkpt>
      <trkpt lat="46.18194" lon="-1.38645">
        <ele>3.7</ele>
        <time>2020-05-31T21:57:26Z</time>
      </trkpt>
      <trkpt lat="46.18194" lon="-1.38645">
        <ele>3.8</ele>
        <time>2020-05-31T21:57:27Z</time>
      </trkpt>
      <trkpt lat="46.18194" lon="-1.38645">
        <ele>3.8</ele>
        <time>2020-05-31T21:57:28Z</time>
      </trkpt>
      <trkpt lat="46.18194" lon="-1.38645">
        <ele>3.8</ele>
        <time>2020-05-31T21:57:29Z</time>
      </trkpt>
      <trkpt lat="46.18194" lon="-1.38645">
        <ele>3.8</ele>
        <time>2020-05-31T21:57:30Z</time>
      </trkpt>
      <trkpt lat="46.18194" lon="-1.38645">
        <ele>3.8</ele>
        <time>2020-05-31T21:57:31Z</time>
      </trkpt>
      <trkpt lat="46.18194" lon="-1.38645">
        <ele>3.8</ele>
        <time>2020-05-31T21:57:32Z</time>
      </trkpt>
      <trkpt lat="46.18194" lon="-1.38645">
        <ele>3.8</ele>
        <time>2020-05-31T21:57:33Z</time>
      </trkpt>
      <trkpt lat="46.18194" lon="-1.38645">
        <ele>3.8</ele>
        <time>2020-05-31T21:57:34Z</time>
      </trkpt>
      <trkpt lat="46.18194" lon="-1.38645">
        <ele>3.8</ele>
        <time>2020-05-31T21:57:35Z</time>
      </trkpt>
      <trkpt lat="46.18194" lon="-1.38645">
        <ele>3.8</ele>
        <time>2020-05-31T21:57:36Z</time>
      </trkpt>
      <trkpt lat="46.18194" lon="-1.38645">
        <ele>3.8</ele>
        <time>2020-05-31T21:57:37Z</time>
      </trkpt>
      <trkpt lat="46.18193" lon="-1.38644">
        <ele>3.8</ele>
        <time>2020-05-31T21:57:38Z</time>
      </trkpt>
      <trkpt lat="46.18193" lon="-1.38643">
        <ele>3.8</ele>
        <time>2020-05-31T21:57:39Z</time>
      </trkpt>
      <trkpt lat="46.18193" lon="-1.38643">
        <ele>3.8</ele>
        <time>2020-05-31T21:57:40Z</time>
      </trkpt>
      <trkpt lat="46.18193" lon="-1.38643">
        <ele>3.8</ele>
        <time>2020-05-31T21:57:41Z</time>
      </trkpt>
      <trkpt lat="46.18193" lon="-1.38643">
        <ele>3.8</ele>
        <time>2020-05-31T21:57:42Z</time>
      </trkpt>
      <trkpt lat="46.18193" lon="-1.38643">
        <ele>3.8</ele>
        <time>2020-05-31T21:57:43Z</time>
      </trkpt>
      <trkpt lat="46.18193" lon="-1.38643">
        <ele>3.8</ele>
        <time>2020-05-31T21:57:44Z</time>
      </trkpt>
      <trkpt lat="46.18193" lon="-1.38642">
        <ele>3.8</ele>
        <time>2020-05-31T21:57:45Z</time>
      </trkpt>
      <trkpt lat="46.18193" lon="-1.38642">
        <ele>3.8</ele>
        <time>2020-05-31T21:57:46Z</time>
      </trkpt>
      <trkpt lat="46.18193" lon="-1.38641">
        <ele>3.8</ele>
        <time>2020-05-31T21:57:47Z</time>
      </trkpt>
      <trkpt lat="46.18193" lon="-1.3864">
        <ele>3.8</ele>
        <time>2020-05-31T21:57:48Z</time>
      </trkpt>
      <trkpt lat="46.18193" lon="-1.3864">
        <ele>3.8</ele>
        <time>2020-05-31T21:57:49Z</time>
      </trkpt>
      <trkpt lat="46.18193" lon="-1.3864">
        <ele>3.8</ele>
        <time>2020-05-31T21:57:50Z</time>
      </trkpt>
      <trkpt lat="46.18193" lon="-1.3864">
        <ele>3.8</ele>
        <time>2020-05-31T21:57:51Z</time>
      </trkpt>
      <trkpt lat="46.18193" lon="-1.3864">
        <ele>3.8</ele>
        <time>2020-05-31T21:57:52Z</time>
      </trkpt>
      <trkpt lat="46.18193" lon="-1.3864">
        <ele>3.8</ele>
        <time>2020-05-31T21:57:53Z</time>
      </trkpt>
      <trkpt lat="46.18193" lon="-1.3864">
        <ele>3.8</ele>
        <time>2020-05-31T21:57:54Z</time>
      </trkpt>
      <trkpt lat="46.18193" lon="-1.3864">
        <ele>3.8</ele>
        <time>2020-05-31T21:57:55Z</time>
      </trkpt>
      <trkpt lat="46.18193" lon="-1.3864">
        <ele>3.8</ele>
        <time>2020-05-31T21:57:56Z</time>
      </trkpt>
      <trkpt lat="46.18193" lon="-1.3864">
        <ele>3.8</ele>
        <time>2020-05-31T21:57:57Z</time>
      </trkpt>
      <trkpt lat="46.18193" lon="-1.3864">
        <ele>3.8</ele>
        <time>2020-05-31T21:57:58Z</time>
      </trkpt>
      <trkpt lat="46.18192" lon="-1.3864">
        <ele>3.8</ele>
        <time>2020-05-31T21:57:59Z</time>
      </trkpt>
      <trkpt lat="46.18192" lon="-1.3864">
        <ele>3.8</ele>
        <time>2020-05-31T21:58:00Z</time>
      </trkpt>
      <trkpt lat="46.18192" lon="-1.3864">
        <ele>3.8</ele>
        <time>2020-05-31T21:58:01Z</time>
      </trkpt>
      <trkpt lat="46.18192" lon="-1.3864">
        <ele>3.8</ele>
        <time>2020-05-31T21:58:02Z</time>
      </trkpt>
      <trkpt lat="46.18192" lon="-1.3864">
        <ele>3.8</ele>
        <time>2020-05-31T21:58:03Z</time>
      </trkpt>
      <trkpt lat="46.18192" lon="-1.3864">
        <ele>3.8</ele>
        <time>2020-05-31T21:58:04Z</time>
      </trkpt>
      <trkpt lat="46.18192" lon="-1.3864">
        <ele>3.8</ele>
        <time>2020-05-31T21:58:05Z</time>
      </trkpt>
      <trkpt lat="46.18192" lon="-1.38641">
        <ele>3.8</ele>
        <time>2020-05-31T21:58:06Z</time>
      </trkpt>
      <trkpt lat="46.18192" lon="-1.38641">
        <ele>3.8</ele>
        <time>2020-05-31T21:58:07Z</time>
      </trkpt>
      <trkpt lat="46.18192" lon="-1.38641">
        <ele>3.8</ele>
        <time>2020-05-31T21:58:08Z</time>
      </trkpt>
      <trkpt lat="46.18192" lon="-1.38641">
        <ele>3.8</ele>
        <time>2020-05-31T21:58:09Z</time>
      </trkpt>
      <trkpt lat="46.18192" lon="-1.38641">
        <ele>3.8</ele>
        <time>2020-05-31T21:58:10Z</time>
      </trkpt>
      <trkpt lat="46.18192" lon="-1.38641">
        <ele>3.8</ele>
        <time>2020-05-31T21:58:11Z</time>
      </trkpt>
      <trkpt lat="46.18192" lon="-1.38641">
        <ele>3.8</ele>
        <time>2020-05-31T21:58:12Z</time>
      </trkpt>
      <trkpt lat="46.18192" lon="-1.3864">
        <ele>3.8</ele>
        <time>2020-05-31T21:58:13Z</time>
      </trkpt>
      <trkpt lat="46.18192" lon="-1.38639">
        <ele>3.8</ele>
        <time>2020-05-31T21:58:14Z</time>
      </trkpt>
      <trkpt lat="46.18192" lon="-1.38639">
        <ele>3.8</ele>
        <time>2020-05-31T21:58:15Z</time>
      </trkpt>
      <trkpt lat="46.18192" lon="-1.38639">
        <ele>3.8</ele>
        <time>2020-05-31T21:58:16Z</time>
      </trkpt>
      <trkpt lat="46.18192" lon="-1.38639">
        <ele>3.8</ele>
        <time>2020-05-31T21:58:17Z</time>
      </trkpt>
      <trkpt lat="46.18192" lon="-1.38639">
        <ele>3.8</ele>
        <time>2020-05-31T21:58:18Z</time>
      </trkpt>
      <trkpt lat="46.18192" lon="-1.38639">
        <ele>3.8</ele>
        <time>2020-05-31T21:58:19Z</time>
      </trkpt>
      <trkpt lat="46.18192" lon="-1.38639">
        <ele>3.8</ele>
        <time>2020-05-31T21:58:20Z</time>
      </trkpt>
      <trkpt lat="46.18192" lon="-1.38639">
        <ele>3.8</ele>
        <time>2020-05-31T21:58:21Z</time>
      </trkpt>
      <trkpt lat="46.18192" lon="-1.38639">
        <ele>3.8</ele>
        <time>2020-05-31T21:58:22Z</time>
      </trkpt>
      <trkpt lat="46.18193" lon="-1.38639">
        <ele>3.8</ele>
        <time>2020-05-31T21:58:23Z</time>
      </trkpt>
      <trkpt lat="46.18193" lon="-1.38639">
        <ele>3.8</ele>
        <time>2020-05-31T21:58:24Z</time>
      </trkpt>
      <trkpt lat="46.18193" lon="-1.38639">
        <ele>3.8</ele>
        <time>2020-05-31T21:58:25Z</time>
      </trkpt>
      <trkpt lat="46.18193" lon="-1.38639">
        <ele>3.8</ele>
        <time>2020-05-31T21:58:26Z</time>
      </trkpt>
      <trkpt lat="46.18193" lon="-1.3864">
        <ele>3.8</ele>
        <time>2020-05-31T21:58:27Z</time>
      </trkpt>
      <trkpt lat="46.18193" lon="-1.3864">
        <ele>3.8</ele>
        <time>2020-05-31T21:58:28Z</time>
      </trkpt>
      <trkpt lat="46.18193" lon="-1.3864">
        <ele>3.8</ele>
        <time>2020-05-31T21:58:29Z</time>
      </trkpt>
      <trkpt lat="46.18193" lon="-1.3864">
        <ele>3.8</ele>
        <time>2020-05-31T21:58:30Z</time>
      </trkpt>
      <trkpt lat="46.18193" lon="-1.3864">
        <ele>3.8</ele>
        <time>2020-05-31T21:58:31Z</time>
      </trkpt>
      <trkpt lat="46.18193" lon="-1.3864">
        <ele>3.8</ele>
        <time>2020-05-31T21:58:32Z</time>
      </trkpt>
      <trkpt lat="46.18193" lon="-1.3864">
        <ele>3.8</ele>
        <time>2020-05-31T21:58:33Z</time>
      </trkpt>
      <trkpt lat="46.18193" lon="-1.3864">
        <ele>3.8</ele>
        <time>2020-05-31T21:58:34Z</time>
      </trkpt>
      <trkpt lat="46.18193" lon="-1.3864">
        <ele>3.8</ele>
        <time>2020-05-31T21:58:35Z</time>
      </trkpt>
      <trkpt lat="46.18193" lon="-1.3864">
        <ele>3.8</ele>
        <time>2020-05-31T21:58:36Z</time>
      </trkpt>
      <trkpt lat="46.18193" lon="-1.3864">
        <ele>3.8</ele>
        <time>2020-05-31T21:58:37Z</time>
      </trkpt>
      <trkpt lat="46.18193" lon="-1.3864">
        <ele>3.8</ele>
        <time>2020-05-31T21:58:38Z</time>
      </trkpt>
      <trkpt lat="46.18193" lon="-1.38641">
        <ele>3.8</ele>
        <time>2020-05-31T21:58:39Z</time>
      </trkpt>
      <trkpt lat="46.18193" lon="-1.38641">
        <ele>3.8</ele>
        <time>2020-05-31T21:58:40Z</time>
      </trkpt>
      <trkpt lat="46.18193" lon="-1.38641">
        <ele>3.8</ele>
        <time>2020-05-31T21:58:41Z</time>
      </trkpt>
      <trkpt lat="46.18194" lon="-1.38641">
        <ele>3.8</ele>
        <time>2020-05-31T21:58:42Z</time>
      </trkpt>
      <trkpt lat="46.18194" lon="-1.38641">
        <ele>3.8</ele>
        <time>2020-05-31T21:58:43Z</time>
      </trkpt>
      <trkpt lat="46.18194" lon="-1.38641">
        <ele>3.8</ele>
        <time>2020-05-31T21:58:44Z</time>
      </trkpt>
      <trkpt lat="46.18194" lon="-1.38641">
        <ele>3.8</ele>
        <time>2020-05-31T21:58:45Z</time>
      </trkpt>
      <trkpt lat="46.18194" lon="-1.38641">
        <ele>3.8</ele>
        <time>2020-05-31T21:58:46Z</time>
      </trkpt>
      <trkpt lat="46.18194" lon="-1.38641">
        <ele>3.9</ele>
        <time>2020-05-31T21:58:47Z</time>
      </trkpt>
      <trkpt lat="46.18194" lon="-1.38641">
        <ele>3.9</ele>
        <time>2020-05-31T21:58:48Z</time>
      </trkpt>
      <trkpt lat="46.18194" lon="-1.38641">
        <ele>3.9</ele>
        <time>2020-05-31T21:58:49Z</time>
      </trkpt>
      <trkpt lat="46.18194" lon="-1.38642">
        <ele>3.9</ele>
        <time>2020-05-31T21:58:50Z</time>
      </trkpt>
      <trkpt lat="46.18194" lon="-1.38642">
        <ele>3.9</ele>
        <time>2020-05-31T21:58:51Z</time>
      </trkpt>
      <trkpt lat="46.18194" lon="-1.38642">
        <ele>3.9</ele>
        <time>2020-05-31T21:58:52Z</time>
      </trkpt>
      <trkpt lat="46.18194" lon="-1.38642">
        <ele>3.9</ele>
        <time>2020-05-31T21:58:53Z</time>
      </trkpt>
      <trkpt lat="46.18194" lon="-1.38642">
        <ele>3.9</ele>
        <time>2020-05-31T21:58:54Z</time>
      </trkpt>
      <trkpt lat="46.18194" lon="-1.38642">
        <ele>3.9</ele>
        <time>2020-05-31T21:58:55Z</time>
      </trkpt>
      <trkpt lat="46.18194" lon="-1.38642">
        <ele>3.9</ele>
        <time>2020-05-31T21:58:56Z</time>
      </trkpt>
      <trkpt lat="46.18194" lon="-1.38642">
        <ele>3.9</ele>
        <time>2020-05-31T21:58:57Z</time>
      </trkpt>
      <trkpt lat="46.18194" lon="-1.38642">
        <ele>3.9</ele>
        <time>2020-05-31T21:58:58Z</time>
      </trkpt>
      <trkpt lat="46.18194" lon="-1.38642">
        <ele>3.9</ele>
        <time>2020-05-31T21:58:59Z</time>
      </trkpt>
      <trkpt lat="46.18195" lon="-1.38642">
        <ele>3.9</ele>
        <time>2020-05-31T21:59:00Z</time>
      </trkpt>
      <trkpt lat="46.18195" lon="-1.38642">
        <ele>3.9</ele>
        <time>2020-05-31T21:59:01Z</time>
      </trkpt>
      <trkpt lat="46.18195" lon="-1.38643">
        <ele>3.9</ele>
        <time>2020-05-31T21:59:02Z</time>
      </trkpt>
      <trkpt lat="46.18195" lon="-1.38643">
        <ele>3.9</ele>
        <time>2020-05-31T21:59:03Z</time>
      </trkpt>
      <trkpt lat="46.18195" lon="-1.38643">
        <ele>3.9</ele>
        <time>2020-05-31T21:59:04Z</time>
      </trkpt>
      <trkpt lat="46.18195" lon="-1.38643">
        <ele>3.9</ele>
        <time>2020-05-31T21:59:05Z</time>
      </trkpt>
      <trkpt lat="46.18195" lon="-1.38643">
        <ele>3.9</ele>
        <time>2020-05-31T21:59:06Z</time>
      </trkpt>
      <trkpt lat="46.18195" lon="-1.38643">
        <ele>3.9</ele>
        <time>2020-05-31T21:59:07Z</time>
      </trkpt>
      <trkpt lat="46.18195" lon="-1.38643">
        <ele>3.9</ele>
        <time>2020-05-31T21:59:08Z</time>
      </trkpt>
      <trkpt lat="46.18195" lon="-1.38643">
        <ele>3.9</ele>
        <time>2020-05-31T21:59:09Z</time>
      </trkpt>
      <trkpt lat="46.18195" lon="-1.38643">
        <ele>3.9</ele>
        <time>2020-05-31T21:59:10Z</time>
      </trkpt>
      <trkpt lat="46.18195" lon="-1.38643">
        <ele>3.9</ele>
        <time>2020-05-31T21:59:11Z</time>
      </trkpt>
      <trkpt lat="46.18195" lon="-1.38643">
        <ele>3.9</ele>
        <time>2020-05-31T21:59:12Z</time>
      </trkpt>
      <trkpt lat="46.18199" lon="-1.38648">
        <ele>3.9</ele>
        <time>2020-05-31T21:59:13Z</time>
      </trkpt>
      <trkpt lat="46.182" lon="-1.38649">
        <ele>3.9</ele>
        <time>2020-05-31T21:59:14Z</time>
      </trkpt>
      <trkpt lat="46.18204" lon="-1.38653">
        <ele>3.9</ele>
        <time>2020-05-31T21:59:15Z</time>
      </trkpt>
      <trkpt lat="46.18208" lon="-1.38657">
        <ele>3.9</ele>
        <time>2020-05-31T21:59:16Z</time>
      </trkpt>
      <trkpt lat="46.18213" lon="-1.38661">
        <ele>3.9</ele>
        <time>2020-05-31T21:59:17Z</time>
      </trkpt>
      <trkpt lat="46.18218" lon="-1.38663">
        <ele>3.9</ele>
        <time>2020-05-31T21:59:18Z</time>
      </trkpt>
      <trkpt lat="46.18223" lon="-1.38666">
        <ele>3.9</ele>
        <time>2020-05-31T21:59:19Z</time>
      </trkpt>
      <trkpt lat="46.18228" lon="-1.38669">
        <ele>3.9</ele>
        <time>2020-05-31T21:59:20Z</time>
      </trkpt>
      <trkpt lat="46.18232" lon="-1.3867">
        <ele>3.9</ele>
        <time>2020-05-31T21:59:21Z</time>
      </trkpt>
      <trkpt lat="46.18235" lon="-1.38672">
        <ele>3.9</ele>
        <time>2020-05-31T21:59:22Z</time>
      </trkpt>
      <trkpt lat="46.18239" lon="-1.38673">
        <ele>3.9</ele>
        <time>2020-05-31T21:59:23Z</time>
      </trkpt>
      <trkpt lat="46.18243" lon="-1.38675">
        <ele>3.9</ele>
        <time>2020-05-31T21:59:24Z</time>
      </trkpt>
      <trkpt lat="46.18246" lon="-1.38675">
        <ele>4</ele>
        <time>2020-05-31T21:59:25Z</time>
      </trkpt>
      <trkpt lat="46.1825" lon="-1.38677">
        <ele>4</ele>
        <time>2020-05-31T21:59:26Z</time>
      </trkpt>
      <trkpt lat="46.18253" lon="-1.38678">
        <ele>4</ele>
        <time>2020-05-31T21:59:27Z</time>
      </trkpt>
      <trkpt lat="46.18255" lon="-1.38679">
        <ele>4.1</ele>
        <time>2020-05-31T21:59:28Z</time>
      </trkpt>
      <trkpt lat="46.18258" lon="-1.38681">
        <ele>4.1</ele>
        <time>2020-05-31T21:59:29Z</time>
      </trkpt>
      <trkpt lat="46.18261" lon="-1.38683">
        <ele>4.1</ele>
        <time>2020-05-31T21:59:30Z</time>
      </trkpt>
      <trkpt lat="46.18261" lon="-1.38684">
        <ele>4.1</ele>
        <time>2020-05-31T21:59:31Z</time>
      </trkpt>
      <trkpt lat="46.18264" lon="-1.38686">
        <ele>4.2</ele>
        <time>2020-05-31T21:59:32Z</time>
      </trkpt>
      <trkpt lat="46.18265" lon="-1.38686">
        <ele>4.2</ele>
        <time>2020-05-31T21:59:33Z</time>
      </trkpt>
      <trkpt lat="46.18267" lon="-1.38687">
        <ele>4.3</ele>
        <time>2020-05-31T21:59:34Z</time>
      </trkpt>
      <trkpt lat="46.18268" lon="-1.38687">
        <ele>4.3</ele>
        <time>2020-05-31T21:59:35Z</time>
      </trkpt>
      <trkpt lat="46.18272" lon="-1.38688">
        <ele>4.3</ele>
        <time>2020-05-31T21:59:36Z</time>
      </trkpt>
      <trkpt lat="46.18273" lon="-1.38688">
        <ele>4.3</ele>
        <time>2020-05-31T21:59:37Z</time>
      </trkpt>
      <trkpt lat="46.18276" lon="-1.38688">
        <ele>4.4</ele>
        <time>2020-05-31T21:59:38Z</time>
      </trkpt>
      <trkpt lat="46.18278" lon="-1.38689">
        <ele>4.5</ele>
        <time>2020-05-31T21:59:39Z</time>
      </trkpt>
      <trkpt lat="46.18281" lon="-1.38691">
        <ele>4.5</ele>
        <time>2020-05-31T21:59:40Z</time>
      </trkpt>
      <trkpt lat="46.18282" lon="-1.38692">
        <ele>4.5</ele>
        <time>2020-05-31T21:59:41Z</time>
      </trkpt>
      <trkpt lat="46.18285" lon="-1.38693">
        <ele>4.6</ele>
        <time>2020-05-31T21:59:42Z</time>
      </trkpt>
      <trkpt lat="46.18287" lon="-1.38693">
        <ele>4.7</ele>
        <time>2020-05-31T21:59:43Z</time>
      </trkpt>
      <trkpt lat="46.1829" lon="-1.38696">
        <ele>4.7</ele>
        <time>2020-05-31T21:59:44Z</time>
      </trkpt>
      <trkpt lat="46.18291" lon="-1.38697">
        <ele>4.7</ele>
        <time>2020-05-31T21:59:45Z</time>
      </trkpt>
      <trkpt lat="46.18293" lon="-1.38699">
        <ele>4.8</ele>
        <time>2020-05-31T21:59:46Z</time>
      </trkpt>
      <trkpt lat="46.18294" lon="-1.387">
        <ele>4.8</ele>
        <time>2020-05-31T21:59:47Z</time>
      </trkpt>
      <trkpt lat="46.18296" lon="-1.38701">
        <ele>4.9</ele>
        <time>2020-05-31T21:59:48Z</time>
      </trkpt>
      <trkpt lat="46.18299" lon="-1.38703">
        <ele>5</ele>
        <time>2020-05-31T21:59:49Z</time>
      </trkpt>
      <trkpt lat="46.18302" lon="-1.38705">
        <ele>5</ele>
        <time>2020-05-31T21:59:50Z</time>
      </trkpt>
      <trkpt lat="46.18303" lon="-1.38705">
        <ele>5</ele>
        <time>2020-05-31T21:59:51Z</time>
      </trkpt>
      <trkpt lat="46.18305" lon="-1.38707">
        <ele>5.1</ele>
        <time>2020-05-31T21:59:52Z</time>
      </trkpt>
      <trkpt lat="46.18306" lon="-1.38708">
        <ele>5.1</ele>
        <time>2020-05-31T21:59:53Z</time>
      </trkpt>
      <trkpt lat="46.18307" lon="-1.38709">
        <ele>5.2</ele>
        <time>2020-05-31T21:59:54Z</time>
      </trkpt>
      <trkpt lat="46.18307" lon="-1.38708">
        <ele>5.2</ele>
        <time>2020-05-31T21:59:55Z</time>
      </trkpt>
      <trkpt lat="46.18308" lon="-1.38704">
        <ele>5.1</ele>
        <time>2020-05-31T21:59:56Z</time>
      </trkpt>
      <trkpt lat="46.18307" lon="-1.38706">
        <ele>5.1</ele>
        <time>2020-05-31T21:59:57Z</time>
      </trkpt>
      <trkpt lat="46.18307" lon="-1.38707">
        <ele>5.1</ele>
        <time>2020-05-31T21:59:58Z</time>
      </trkpt>
      <trkpt lat="46.18306" lon="-1.38707">
        <ele>5.1</ele>
        <time>2020-05-31T21:59:59Z</time>
      </trkpt>
      <trkpt lat="46.18306" lon="-1.38706">
        <ele>5.1</ele>
        <time>2020-05-31T22:00:00Z</time>
      </trkpt>
      <trkpt lat="46.18307" lon="-1.38708">
        <ele>5.1</ele>
        <time>2020-05-31T22:00:01Z</time>
      </trkpt>
      <trkpt lat="46.18307" lon="-1.38709">
        <ele>5.1</ele>
        <time>2020-05-31T22:00:02Z</time>
      </trkpt>
      <trkpt lat="46.18306" lon="-1.3871">
        <ele>5.1</ele>
        <time>2020-05-31T22:00:03Z</time>
      </trkpt>
      <trkpt lat="46.18306" lon="-1.38712">
        <ele>5.2</ele>
        <time>2020-05-31T22:00:04Z</time>
      </trkpt>
      <trkpt lat="46.18307" lon="-1.38713">
        <ele>5.2</ele>
        <time>2020-05-31T22:00:05Z</time>
      </trkpt>
      <trkpt lat="46.18307" lon="-1.38713">
        <ele>5.2</ele>
        <time>2020-05-31T22:00:06Z</time>
      </trkpt>
      <trkpt lat="46.18307" lon="-1.38711">
        <ele>5.2</ele>
        <time>2020-05-31T22:00:07Z</time>
      </trkpt>
      <trkpt lat="46.18306" lon="-1.38711">
        <ele>5.2</ele>
        <time>2020-05-31T22:00:08Z</time>
      </trkpt>
      <trkpt lat="46.18307" lon="-1.38713">
        <ele>5.2</ele>
        <time>2020-05-31T22:00:09Z</time>
      </trkpt>
      <trkpt lat="46.18306" lon="-1.38713">
        <ele>5.2</ele>
        <time>2020-05-31T22:00:10Z</time>
      </trkpt>
      <trkpt lat="46.18305" lon="-1.38713">
        <ele>5.2</ele>
        <time>2020-05-31T22:00:11Z</time>
      </trkpt>
      <trkpt lat="46.18305" lon="-1.38714">
        <ele>5.2</ele>
        <time>2020-05-31T22:00:12Z</time>
      </trkpt>
      <trkpt lat="46.18305" lon="-1.38713">
        <ele>5.2</ele>
        <time>2020-05-31T22:00:13Z</time>
      </trkpt>
      <trkpt lat="46.18305" lon="-1.38713">
        <ele>5.2</ele>
        <time>2020-05-31T22:00:14Z</time>
      </trkpt>
      <trkpt lat="46.18305" lon="-1.38713">
        <ele>5.2</ele>
        <time>2020-05-31T22:00:15Z</time>
      </trkpt>
      <trkpt lat="46.18305" lon="-1.38713">
        <ele>5.2</ele>
        <time>2020-05-31T22:00:16Z</time>
      </trkpt>
      <trkpt lat="46.18306" lon="-1.38713">
        <ele>5.2</ele>
        <time>2020-05-31T22:00:17Z</time>
      </trkpt>
      <trkpt lat="46.18306" lon="-1.38713">
        <ele>5.2</ele>
        <time>2020-05-31T22:00:18Z</time>
      </trkpt>
      <trkpt lat="46.18306" lon="-1.38713">
        <ele>5.2</ele>
        <time>2020-05-31T22:00:19Z</time>
      </trkpt>
      <trkpt lat="46.18306" lon="-1.38713">
        <ele>5.2</ele>
        <time>2020-05-31T22:00:20Z</time>
      </trkpt>
      <trkpt lat="46.18306" lon="-1.38713">
        <ele>5.2</ele>
        <time>2020-05-31T22:00:21Z</time>
      </trkpt>
      <trkpt lat="46.18306" lon="-1.38713">
        <ele>5.2</ele>
        <time>2020-05-31T22:00:22Z</time>
      </trkpt>
      <trkpt lat="46.18306" lon="-1.38713">
        <ele>5.1</ele>
        <time>2020-05-31T22:00:23Z</time>
      </trkpt>
      <trkpt lat="46.18306" lon="-1.38713">
        <ele>5.1</ele>
        <time>2020-05-31T22:00:24Z</time>
      </trkpt>
      <trkpt lat="46.18306" lon="-1.38713">
        <ele>5.1</ele>
        <time>2020-05-31T22:00:25Z</time>
      </trkpt>
      <trkpt lat="46.18306" lon="-1.38713">
        <ele>5.1</ele>
        <time>2020-05-31T22:00:26Z</time>
      </trkpt>
      <trkpt lat="46.18306" lon="-1.38713">
        <ele>5.1</ele>
        <time>2020-05-31T22:00:27Z</time>
      </trkpt>
      <trkpt lat="46.18306" lon="-1.38713">
        <ele>5.1</ele>
        <time>2020-05-31T22:00:28Z</time>
      </trkpt>
      <trkpt lat="46.18306" lon="-1.38713">
        <ele>5.1</ele>
        <time>2020-05-31T22:00:29Z</time>
      </trkpt>
      <trkpt lat="46.18306" lon="-1.38714">
        <ele>5.1</ele>
        <time>2020-05-31T22:00:30Z</time>
      </trkpt>
      <trkpt lat="46.18306" lon="-1.38714">
        <ele>5.1</ele>
        <time>2020-05-31T22:00:31Z</time>
      </trkpt>
      <trkpt lat="46.18306" lon="-1.38714">
        <ele>5.1</ele>
        <time>2020-05-31T22:00:32Z</time>
      </trkpt>
      <trkpt lat="46.18306" lon="-1.38714">
        <ele>5.1</ele>
        <time>2020-05-31T22:00:33Z</time>
      </trkpt>
      <trkpt lat="46.18306" lon="-1.38714">
        <ele>5.1</ele>
        <time>2020-05-31T22:00:34Z</time>
      </trkpt>
      <trkpt lat="46.18306" lon="-1.38714">
        <ele>5.1</ele>
        <time>2020-05-31T22:00:35Z</time>
      </trkpt>
      <trkpt lat="46.18306" lon="-1.38714">
        <ele>5.1</ele>
        <time>2020-05-31T22:00:36Z</time>
      </trkpt>
      <trkpt lat="46.18306" lon="-1.38714">
        <ele>5.1</ele>
        <time>2020-05-31T22:00:37Z</time>
      </trkpt>
      <trkpt lat="46.18306" lon="-1.38714">
        <ele>5.1</ele>
        <time>2020-05-31T22:00:38Z</time>
      </trkpt>
      <trkpt lat="46.18306" lon="-1.38714">
        <ele>5.1</ele>
        <time>2020-05-31T22:00:39Z</time>
      </trkpt>
      <trkpt lat="46.18306" lon="-1.38714">
        <ele>5.1</ele>
        <time>2020-05-31T22:00:40Z</time>
      </trkpt>
      <trkpt lat="46.18307" lon="-1.38714">
        <ele>5.1</ele>
        <time>2020-05-31T22:00:41Z</time>
      </trkpt>
      <trkpt lat="46.18307" lon="-1.38714">
        <ele>5.1</ele>
        <time>2020-05-31T22:00:42Z</time>
      </trkpt>
      <trkpt lat="46.18307" lon="-1.38714">
        <ele>5.1</ele>
        <time>2020-05-31T22:00:43Z</time>
      </trkpt>
      <trkpt lat="46.18307" lon="-1.38714">
        <ele>5.1</ele>
        <time>2020-05-31T22:00:44Z</time>
      </trkpt>
      <trkpt lat="46.18307" lon="-1.38714">
        <ele>5.1</ele>
        <time>2020-05-31T22:00:45Z</time>
      </trkpt>
      <trkpt lat="46.18307" lon="-1.38714">
        <ele>5.1</ele>
        <time>2020-05-31T22:00:46Z</time>
      </trkpt>
      <trkpt lat="46.18307" lon="-1.38714">
        <ele>5.1</ele>
        <time>2020-05-31T22:00:47Z</time>
      </trkpt>
      <trkpt lat="46.18307" lon="-1.38714">
        <ele>5.1</ele>
        <time>2020-05-31T22:00:48Z</time>
      </trkpt>
      <trkpt lat="46.18307" lon="-1.38714">
        <ele>5.1</ele>
        <time>2020-05-31T22:00:49Z</time>
      </trkpt>
      <trkpt lat="46.18307" lon="-1.38714">
        <ele>5.1</ele>
        <time>2020-05-31T22:00:50Z</time>
      </trkpt>
      <trkpt lat="46.18307" lon="-1.38713">
        <ele>5.1</ele>
        <time>2020-05-31T22:00:51Z</time>
      </trkpt>
      <trkpt lat="46.18307" lon="-1.38713">
        <ele>5.2</ele>
        <time>2020-05-31T22:00:52Z</time>
      </trkpt>
      <trkpt lat="46.18307" lon="-1.38713">
        <ele>5.2</ele>
        <time>2020-05-31T22:00:53Z</time>
      </trkpt>
      <trkpt lat="46.1822" lon="-1.38673">
        <ele>3.9</ele>
        <time>2020-05-31T23:03:14Z</time>
      </trkpt>
      <trkpt lat="46.18214" lon="-1.38664">
        <ele>3.9</ele>
        <time>2020-05-31T23:03:15Z</time>
      </trkpt>
      <trkpt lat="46.18212" lon="-1.38662">
        <ele>3.9</ele>
        <time>2020-05-31T23:03:16Z</time>
      </trkpt>
      <trkpt lat="46.1821" lon="-1.38659">
        <ele>3.9</ele>
        <time>2020-05-31T23:03:17Z</time>
      </trkpt>
      <trkpt lat="46.18207" lon="-1.38657">
        <ele>3.9</ele>
        <time>2020-05-31T23:03:18Z</time>
      </trkpt>
      <trkpt lat="46.18205" lon="-1.38654">
        <ele>3.9</ele>
        <time>2020-05-31T23:03:19Z</time>
      </trkpt>
      <trkpt lat="46.18203" lon="-1.38651">
        <ele>3.9</ele>
        <time>2020-05-31T23:03:20Z</time>
      </trkpt>
      <trkpt lat="46.18201" lon="-1.38649">
        <ele>3.9</ele>
        <time>2020-05-31T23:03:21Z</time>
      </trkpt>
      <trkpt lat="46.18199" lon="-1.38646">
        <ele>3.9</ele>
        <time>2020-05-31T23:03:22Z</time>
      </trkpt>
      <trkpt lat="46.18197" lon="-1.38643">
        <ele>3.9</ele>
        <time>2020-05-31T23:03:23Z</time>
      </trkpt>
      <trkpt lat="46.18194" lon="-1.3864">
        <ele>3.9</ele>
        <time>2020-05-31T23:03:24Z</time>
      </trkpt>
      <trkpt lat="46.18193" lon="-1.38635">
        <ele>3.9</ele>
        <time>2020-05-31T23:03:25Z</time>
      </trkpt>
      <trkpt lat="46.18193" lon="-1.38633">
        <ele>3.8</ele>
        <time>2020-05-31T23:03:26Z</time>
      </trkpt>
      <trkpt lat="46.18191" lon="-1.38628">
        <ele>3.8</ele>
        <time>2020-05-31T23:03:27Z</time>
      </trkpt>
      <trkpt lat="46.1819" lon="-1.38627">
        <ele>3.8</ele>
        <time>2020-05-31T23:03:28Z</time>
      </trkpt>
      <trkpt lat="46.1819" lon="-1.38624">
        <ele>3.7</ele>
        <time>2020-05-31T23:03:29Z</time>
      </trkpt>
      <trkpt lat="46.1819" lon="-1.38622">
        <ele>3.7</ele>
        <time>2020-05-31T23:03:30Z</time>
      </trkpt>
      <trkpt lat="46.18191" lon="-1.38622">
        <ele>3.7</ele>
        <time>2020-05-31T23:03:31Z</time>
      </trkpt>
      <trkpt lat="46.18191" lon="-1.38621">
        <ele>3.7</ele>
        <time>2020-05-31T23:03:32Z</time>
      </trkpt>
      <trkpt lat="46.18191" lon="-1.3862">
        <ele>3.7</ele>
        <time>2020-05-31T23:03:33Z</time>
      </trkpt>
      <trkpt lat="46.18191" lon="-1.38619">
        <ele>3.7</ele>
        <time>2020-05-31T23:03:34Z</time>
      </trkpt>
      <trkpt lat="46.18192" lon="-1.38618">
        <ele>3.7</ele>
        <time>2020-05-31T23:03:35Z</time>
      </trkpt>
      <trkpt lat="46.18192" lon="-1.38618">
        <ele>3.7</ele>
        <time>2020-05-31T23:03:36Z</time>
      </trkpt>
      <trkpt lat="46.18192" lon="-1.38618">
        <ele>3.7</ele>
        <time>2020-05-31T23:03:37Z</time>
      </trkpt>
      <trkpt lat="46.18192" lon="-1.38617">
        <ele>3.7</ele>
        <time>2020-05-31T23:03:38Z</time>
      </trkpt>
      <trkpt lat="46.18192" lon="-1.38617">
        <ele>3.7</ele>
        <time>2020-05-31T23:03:39Z</time>
      </trkpt>
      <trkpt lat="46.18192" lon="-1.38617">
        <ele>3.7</ele>
        <time>2020-05-31T23:03:40Z</time>
      </trkpt>
      <trkpt lat="46.18193" lon="-1.38617">
        <ele>3.7</ele>
        <time>2020-05-31T23:03:41Z</time>
      </trkpt>
      <trkpt lat="46.18193" lon="-1.38618">
        <ele>3.7</ele>
        <time>2020-05-31T23:03:42Z</time>
      </trkpt>
      <trkpt lat="46.18193" lon="-1.38617">
        <ele>3.7</ele>
        <time>2020-05-31T23:03:43Z</time>
      </trkpt>
      <trkpt lat="46.18194" lon="-1.38618">
        <ele>3.7</ele>
        <time>2020-05-31T23:03:44Z</time>
      </trkpt>
      <trkpt lat="46.18194" lon="-1.38618">
        <ele>3.7</ele>
        <time>2020-05-31T23:03:45Z</time>
      </trkpt>
      <trkpt lat="46.18194" lon="-1.38618">
        <ele>3.7</ele>
        <time>2020-05-31T23:03:46Z</time>
      </trkpt>
      <trkpt lat="46.18194" lon="-1.38616">
        <ele>3.7</ele>
        <time>2020-05-31T23:03:47Z</time>
      </trkpt>
      <trkpt lat="46.18194" lon="-1.38615">
        <ele>3.6</ele>
        <time>2020-05-31T23:03:48Z</time>
      </trkpt>
      <trkpt lat="46.18194" lon="-1.38615">
        <ele>3.6</ele>
        <time>2020-05-31T23:03:49Z</time>
      </trkpt>
      <trkpt lat="46.18194" lon="-1.38615">
        <ele>3.6</ele>
        <time>2020-05-31T23:03:50Z</time>
      </trkpt>
      <trkpt lat="46.18194" lon="-1.38615">
        <ele>3.6</ele>
        <time>2020-05-31T23:03:51Z</time>
      </trkpt>
      <trkpt lat="46.18194" lon="-1.38615">
        <ele>3.6</ele>
        <time>2020-05-31T23:03:52Z</time>
      </trkpt>
      <trkpt lat="46.18194" lon="-1.38615">
        <ele>3.6</ele>
        <time>2020-05-31T23:03:53Z</time>
      </trkpt>
      <trkpt lat="46.18194" lon="-1.38615">
        <ele>3.6</ele>
        <time>2020-05-31T23:03:54Z</time>
      </trkpt>
      <trkpt lat="46.18194" lon="-1.38615">
        <ele>3.6</ele>
        <time>2020-05-31T23:03:55Z</time>
      </trkpt>
      <trkpt lat="46.18194" lon="-1.38615">
        <ele>3.6</ele>
        <time>2020-05-31T23:03:56Z</time>
      </trkpt>
      <trkpt lat="46.18194" lon="-1.38615">
        <ele>3.6</ele>
        <time>2020-05-31T23:03:57Z</time>
      </trkpt>
      <trkpt lat="46.18194" lon="-1.38615">
        <ele>3.6</ele>
        <time>2020-05-31T23:03:58Z</time>
      </trkpt>
      <trkpt lat="46.18194" lon="-1.38615">
        <ele>3.6</ele>
        <time>2020-05-31T23:03:59Z</time>
      </trkpt>
      <trkpt lat="46.18194" lon="-1.38615">
        <ele>3.6</ele>
        <time>2020-05-31T23:04:00Z</time>
      </trkpt>
      <trkpt lat="46.18194" lon="-1.38615">
        <ele>3.6</ele>
        <time>2020-05-31T23:04:01Z</time>
      </trkpt>
      <trkpt lat="46.18194" lon="-1.38614">
        <ele>3.6</ele>
        <time>2020-05-31T23:04:02Z</time>
      </trkpt>
      <trkpt lat="46.18194" lon="-1.38614">
        <ele>3.6</ele>
        <time>2020-05-31T23:04:03Z</time>
      </trkpt>
      <trkpt lat="46.18194" lon="-1.38614">
        <ele>3.6</ele>
        <time>2020-05-31T23:04:04Z</time>
      </trkpt>
      <trkpt lat="46.18194" lon="-1.38614">
        <ele>3.6</ele>
        <time>2020-05-31T23:04:05Z</time>
      </trkpt>
      <trkpt lat="46.18194" lon="-1.38614">
        <ele>3.6</ele>
        <time>2020-05-31T23:04:06Z</time>
      </trkpt>
      <trkpt lat="46.18194" lon="-1.38614">
        <ele>3.6</ele>
        <time>2020-05-31T23:04:07Z</time>
      </trkpt>
      <trkpt lat="46.18194" lon="-1.38614">
        <ele>3.6</ele>
        <time>2020-05-31T23:04:08Z</time>
      </trkpt>
      <trkpt lat="46.18194" lon="-1.38614">
        <ele>3.6</ele>
        <time>2020-05-31T23:04:09Z</time>
      </trkpt>
      <trkpt lat="46.18194" lon="-1.38614">
        <ele>3.6</ele>
        <time>2020-05-31T23:04:10Z</time>
      </trkpt>
      <trkpt lat="46.18194" lon="-1.38614">
        <ele>3.6</ele>
        <time>2020-05-31T23:04:11Z</time>
      </trkpt>
      <trkpt lat="46.18194" lon="-1.38614">
        <ele>3.6</ele>
        <time>2020-05-31T23:04:12Z</time>
      </trkpt>
      <trkpt lat="46.18194" lon="-1.38614">
        <ele>3.6</ele>
        <time>2020-05-31T23:04:13Z</time>
      </trkpt>
      <trkpt lat="46.18194" lon="-1.38614">
        <ele>3.6</ele>
        <time>2020-05-31T23:04:14Z</time>
      </trkpt>
      <trkpt lat="46.18194" lon="-1.38614">
        <ele>3.6</ele>
        <time>2020-05-31T23:04:15Z</time>
      </trkpt>
      <trkpt lat="46.18194" lon="-1.38614">
        <ele>3.6</ele>
        <time>2020-05-31T23:04:16Z</time>
      </trkpt>
      <trkpt lat="46.18194" lon="-1.38613">
        <ele>3.6</ele>
        <time>2020-05-31T23:04:17Z</time>
      </trkpt>
      <trkpt lat="46.18194" lon="-1.38613">
        <ele>3.6</ele>
        <time>2020-05-31T23:04:18Z</time>
      </trkpt>
      <trkpt lat="46.18194" lon="-1.38613">
        <ele>3.6</ele>
        <time>2020-05-31T23:04:19Z</time>
      </trkpt>
      <trkpt lat="46.18194" lon="-1.38613">
        <ele>3.6</ele>
        <time>2020-05-31T23:04:20Z</time>
      </trkpt>
      <trkpt lat="46.18194" lon="-1.38613">
        <ele>3.6</ele>
        <time>2020-05-31T23:04:21Z</time>
      </trkpt>
      <trkpt lat="46.18194" lon="-1.38613">
        <ele>3.6</ele>
        <time>2020-05-31T23:04:22Z</time>
      </trkpt>
      <trkpt lat="46.18194" lon="-1.38613">
        <ele>3.6</ele>
        <time>2020-05-31T23:04:23Z</time>
      </trkpt>
      <trkpt lat="46.18194" lon="-1.38613">
        <ele>3.6</ele>
        <time>2020-05-31T23:04:24Z</time>
      </trkpt>
      <trkpt lat="46.18194" lon="-1.38613">
        <ele>3.6</ele>
        <time>2020-05-31T23:04:25Z</time>
      </trkpt>
      <trkpt lat="46.18195" lon="-1.38613">
        <ele>3.6</ele>
        <time>2020-05-31T23:04:26Z</time>
      </trkpt>
      <trkpt lat="46.18195" lon="-1.38613">
        <ele>3.6</ele>
        <time>2020-05-31T23:04:27Z</time>
      </trkpt>
      <trkpt lat="46.18195" lon="-1.38613">
        <ele>3.6</ele>
        <time>2020-05-31T23:04:28Z</time>
      </trkpt>
      <trkpt lat="46.18195" lon="-1.38613">
        <ele>3.6</ele>
        <time>2020-05-31T23:04:29Z</time>
      </trkpt>
      <trkpt lat="46.18195" lon="-1.38613">
        <ele>3.6</ele>
        <time>2020-05-31T23:04:30Z</time>
      </trkpt>
      <trkpt lat="46.18195" lon="-1.38613">
        <ele>3.6</ele>
        <time>2020-05-31T23:04:31Z</time>
      </trkpt>
      <trkpt lat="46.18195" lon="-1.38613">
        <ele>3.6</ele>
        <time>2020-05-31T23:04:32Z</time>
      </trkpt>
      <trkpt lat="46.18195" lon="-1.38612">
        <ele>3.6</ele>
        <time>2020-05-31T23:04:33Z</time>
      </trkpt>
      <trkpt lat="46.18195" lon="-1.38612">
        <ele>3.6</ele>
        <time>2020-05-31T23:04:34Z</time>
      </trkpt>
      <trkpt lat="46.18195" lon="-1.38612">
        <ele>3.6</ele>
        <time>2020-05-31T23:04:35Z</time>
      </trkpt>
      <trkpt lat="46.18195" lon="-1.38612">
        <ele>3.6</ele>
        <time>2020-05-31T23:04:36Z</time>
      </trkpt>
      <trkpt lat="46.18195" lon="-1.38612">
        <ele>3.6</ele>
        <time>2020-05-31T23:04:37Z</time>
      </trkpt>
      <trkpt lat="46.18195" lon="-1.38612">
        <ele>3.6</ele>
        <time>2020-05-31T23:04:38Z</time>
      </trkpt>
      <trkpt lat="46.18195" lon="-1.38612">
        <ele>3.6</ele>
        <time>2020-05-31T23:04:39Z</time>
      </trkpt>
      <trkpt lat="46.18195" lon="-1.38612">
        <ele>3.6</ele>
        <time>2020-05-31T23:04:40Z</time>
      </trkpt>
      <trkpt lat="46.18195" lon="-1.38612">
        <ele>3.6</ele>
        <time>2020-05-31T23:04:41Z</time>
      </trkpt>
      <trkpt lat="46.18195" lon="-1.38612">
        <ele>3.6</ele>
        <time>2020-05-31T23:04:42Z</time>
      </trkpt>
      <trkpt lat="46.18195" lon="-1.38612">
        <ele>3.6</ele>
        <time>2020-05-31T23:04:43Z</time>
      </trkpt>
      <trkpt lat="46.18195" lon="-1.38612">
        <ele>3.6</ele>
        <time>2020-05-31T23:04:44Z</time>
      </trkpt>
      <trkpt lat="46.18195" lon="-1.38612">
        <ele>3.6</ele>
        <time>2020-05-31T23:04:45Z</time>
      </trkpt>
      <trkpt lat="46.18195" lon="-1.38612">
        <ele>3.6</ele>
        <time>2020-05-31T23:04:46Z</time>
      </trkpt>
      <trkpt lat="46.18195" lon="-1.38612">
        <ele>3.6</ele>
        <time>2020-05-31T23:04:47Z</time>
      </trkpt>
      <trkpt lat="46.18195" lon="-1.38611">
        <ele>3.6</ele>
        <time>2020-05-31T23:04:48Z</time>
      </trkpt>
      <trkpt lat="46.18195" lon="-1.38611">
        <ele>3.6</ele>
        <time>2020-05-31T23:04:49Z</time>
      </trkpt>
      <trkpt lat="46.18195" lon="-1.38611">
        <ele>3.6</ele>
        <time>2020-05-31T23:04:50Z</time>
      </trkpt>
      <trkpt lat="46.18195" lon="-1.38611">
        <ele>3.6</ele>
        <time>2020-05-31T23:04:51Z</time>
      </trkpt>
      <trkpt lat="46.18195" lon="-1.38611">
        <ele>3.6</ele>
        <time>2020-05-31T23:04:52Z</time>
      </trkpt>
      <trkpt lat="46.18195" lon="-1.38611">
        <ele>3.6</ele>
        <time>2020-05-31T23:04:53Z</time>
      </trkpt>
      <trkpt lat="46.18195" lon="-1.38611">
        <ele>3.6</ele>
        <time>2020-05-31T23:04:54Z</time>
      </trkpt>
      <trkpt lat="46.18195" lon="-1.38611">
        <ele>3.6</ele>
        <time>2020-05-31T23:04:55Z</time>
      </trkpt>
      <trkpt lat="46.18195" lon="-1.38611">
        <ele>3.6</ele>
        <time>2020-05-31T23:04:56Z</time>
      </trkpt>
      <trkpt lat="46.18195" lon="-1.38611">
        <ele>3.6</ele>
        <time>2020-05-31T23:04:57Z</time>
      </trkpt>
      <trkpt lat="46.18195" lon="-1.38611">
        <ele>3.6</ele>
        <time>2020-05-31T23:04:58Z</time>
      </trkpt>
      <trkpt lat="46.18195" lon="-1.38611">
        <ele>3.6</ele>
        <time>2020-05-31T23:04:59Z</time>
      </trkpt>
      <trkpt lat="46.18195" lon="-1.38611">
        <ele>3.6</ele>
        <time>2020-05-31T23:05:00Z</time>
      </trkpt>
      <trkpt lat="46.18195" lon="-1.38611">
        <ele>3.6</ele>
        <time>2020-05-31T23:05:01Z</time>
      </trkpt>
      <trkpt lat="46.18195" lon="-1.38611">
        <ele>3.6</ele>
        <time>2020-05-31T23:05:02Z</time>
      </trkpt>
      <trkpt lat="46.18195" lon="-1.38611">
        <ele>3.6</ele>
        <time>2020-05-31T23:05:03Z</time>
      </trkpt>
      <trkpt lat="46.18195" lon="-1.3861">
        <ele>3.6</ele>
        <time>2020-05-31T23:05:04Z</time>
      </trkpt>
      <trkpt lat="46.18195" lon="-1.3861">
        <ele>3.6</ele>
        <time>2020-05-31T23:05:05Z</time>
      </trkpt>
      <trkpt lat="46.18195" lon="-1.3861">
        <ele>3.6</ele>
        <time>2020-05-31T23:05:06Z</time>
      </trkpt>
      <trkpt lat="46.18195" lon="-1.3861">
        <ele>3.6</ele>
        <time>2020-05-31T23:05:07Z</time>
      </trkpt>
      <trkpt lat="46.18195" lon="-1.3861">
        <ele>3.6</ele>
        <time>2020-05-31T23:05:08Z</time>
      </trkpt>
      <trkpt lat="46.18195" lon="-1.3861">
        <ele>3.6</ele>
        <time>2020-05-31T23:05:09Z</time>
      </trkpt>
      <trkpt lat="46.18195" lon="-1.3861">
        <ele>3.6</ele>
        <time>2020-05-31T23:05:10Z</time>
      </trkpt>
      <trkpt lat="46.18193" lon="-1.38607">
        <ele>3.6</ele>
        <time>2020-05-31T23:05:11Z</time>
      </trkpt>
      <trkpt lat="46.18194" lon="-1.38603">
        <ele>3.6</ele>
        <time>2020-05-31T23:05:12Z</time>
      </trkpt>
      <trkpt lat="46.18194" lon="-1.38601">
        <ele>3.5</ele>
        <time>2020-05-31T23:05:13Z</time>
      </trkpt>
      <trkpt lat="46.18195" lon="-1.38595">
        <ele>3.5</ele>
        <time>2020-05-31T23:05:14Z</time>
      </trkpt>
      <trkpt lat="46.18196" lon="-1.38593">
        <ele>3.5</ele>
        <time>2020-05-31T23:05:15Z</time>
      </trkpt>
      <trkpt lat="46.18196" lon="-1.38589">
        <ele>3.5</ele>
        <time>2020-05-31T23:05:16Z</time>
      </trkpt>
      <trkpt lat="46.18197" lon="-1.38584">
        <ele>3.5</ele>
        <time>2020-05-31T23:05:17Z</time>
      </trkpt>
      <trkpt lat="46.18198" lon="-1.38579">
        <ele>3.4</ele>
        <time>2020-05-31T23:05:18Z</time>
      </trkpt>
      <trkpt lat="46.18198" lon="-1.38573">
        <ele>3.4</ele>
        <time>2020-05-31T23:05:19Z</time>
      </trkpt>
      <trkpt lat="46.182" lon="-1.38568">
        <ele>3.4</ele>
        <time>2020-05-31T23:05:20Z</time>
      </trkpt>
      <trkpt lat="46.18202" lon="-1.38564">
        <ele>3.4</ele>
        <time>2020-05-31T23:05:21Z</time>
      </trkpt>
      <trkpt lat="46.18202" lon="-1.38559">
        <ele>3.4</ele>
        <time>2020-05-31T23:05:22Z</time>
      </trkpt>
      <trkpt lat="46.18203" lon="-1.38556">
        <ele>3.4</ele>
        <time>2020-05-31T23:05:23Z</time>
      </trkpt>
      <trkpt lat="46.18205" lon="-1.38552">
        <ele>3.3</ele>
        <time>2020-05-31T23:05:24Z</time>
      </trkpt>
      <trkpt lat="46.18209" lon="-1.3855">
        <ele>3.4</ele>
        <time>2020-05-31T23:05:25Z</time>
      </trkpt>
      <trkpt lat="46.18211" lon="-1.38548">
        <ele>3.4</ele>
        <time>2020-05-31T23:05:26Z</time>
      </trkpt>
      <trkpt lat="46.18214" lon="-1.38548">
        <ele>3.4</ele>
        <time>2020-05-31T23:05:27Z</time>
      </trkpt>
      <trkpt lat="46.18218" lon="-1.3855">
        <ele>3.4</ele>
        <time>2020-05-31T23:05:28Z</time>
      </trkpt>
      <trkpt lat="46.18222" lon="-1.3855">
        <ele>3.5</ele>
        <time>2020-05-31T23:05:29Z</time>
      </trkpt>
      <trkpt lat="46.18226" lon="-1.3855">
        <ele>3.5</ele>
        <time>2020-05-31T23:05:30Z</time>
      </trkpt>
      <trkpt lat="46.1823" lon="-1.3855">
        <ele>3.5</ele>
        <time>2020-05-31T23:05:31Z</time>
      </trkpt>
      <trkpt lat="46.18233" lon="-1.38552">
        <ele>3.6</ele>
        <time>2020-05-31T23:05:32Z</time>
      </trkpt>
      <trkpt lat="46.18236" lon="-1.38553">
        <ele>3.6</ele>
        <time>2020-05-31T23:05:33Z</time>
      </trkpt>
      <trkpt lat="46.1824" lon="-1.38555">
        <ele>3.6</ele>
        <time>2020-05-31T23:05:34Z</time>
      </trkpt>
      <trkpt lat="46.18244" lon="-1.38557">
        <ele>3.7</ele>
        <time>2020-05-31T23:05:35Z</time>
      </trkpt>
      <trkpt lat="46.18247" lon="-1.38558">
        <ele>3.7</ele>
        <time>2020-05-31T23:05:36Z</time>
      </trkpt>
      <trkpt lat="46.18251" lon="-1.3856">
        <ele>3.8</ele>
        <time>2020-05-31T23:05:37Z</time>
      </trkpt>
      <trkpt lat="46.18256" lon="-1.38562">
        <ele>3.8</ele>
        <time>2020-05-31T23:05:38Z</time>
      </trkpt>
      <trkpt lat="46.1826" lon="-1.38564">
        <ele>3.9</ele>
        <time>2020-05-31T23:05:39Z</time>
      </trkpt>
      <trkpt lat="46.18265" lon="-1.38566">
        <ele>3.9</ele>
        <time>2020-05-31T23:05:40Z</time>
      </trkpt>
      <trkpt lat="46.1827" lon="-1.38568">
        <ele>4</ele>
        <time>2020-05-31T23:05:41Z</time>
      </trkpt>
      <trkpt lat="46.18274" lon="-1.3857">
        <ele>4.1</ele>
        <time>2020-05-31T23:05:42Z</time>
      </trkpt>
      <trkpt lat="46.18278" lon="-1.38572">
        <ele>4.1</ele>
        <time>2020-05-31T23:05:43Z</time>
      </trkpt>
      <trkpt lat="46.18283" lon="-1.38574">
        <ele>4.1</ele>
        <time>2020-05-31T23:05:44Z</time>
      </trkpt>
      <trkpt lat="46.18287" lon="-1.38577">
        <ele>4.2</ele>
        <time>2020-05-31T23:05:45Z</time>
      </trkpt>
      <trkpt lat="46.18292" lon="-1.3858">
        <ele>4.2</ele>
        <time>2020-05-31T23:05:46Z</time>
      </trkpt>
      <trkpt lat="46.18297" lon="-1.38581">
        <ele>4.3</ele>
        <time>2020-05-31T23:05:47Z</time>
      </trkpt>
      <trkpt lat="46.18302" lon="-1.38583">
        <ele>4.3</ele>
        <time>2020-05-31T23:05:48Z</time>
      </trkpt>
      <trkpt lat="46.18307" lon="-1.38585">
        <ele>4.3</ele>
        <time>2020-05-31T23:05:49Z</time>
      </trkpt>
      <trkpt lat="46.18312" lon="-1.38588">
        <ele>4.4</ele>
        <time>2020-05-31T23:05:50Z</time>
      </trkpt>
      <trkpt lat="46.18317" lon="-1.38591">
        <ele>4.4</ele>
        <time>2020-05-31T23:05:51Z</time>
      </trkpt>
      <trkpt lat="46.18321" lon="-1.38593">
        <ele>4.4</ele>
        <time>2020-05-31T23:05:52Z</time>
      </trkpt>
      <trkpt lat="46.18325" lon="-1.38596">
        <ele>4.3</ele>
        <time>2020-05-31T23:05:53Z</time>
      </trkpt>
      <trkpt lat="46.1833" lon="-1.38599">
        <ele>4.3</ele>
        <time>2020-05-31T23:05:54Z</time>
      </trkpt>
      <trkpt lat="46.18334" lon="-1.386">
        <ele>4.3</ele>
        <time>2020-05-31T23:05:55Z</time>
      </trkpt>
      <trkpt lat="46.18338" lon="-1.38603">
        <ele>4.3</ele>
        <time>2020-05-31T23:05:56Z</time>
      </trkpt>
      <trkpt lat="46.18342" lon="-1.38606">
        <ele>4.4</ele>
        <time>2020-05-31T23:05:57Z</time>
      </trkpt>
      <trkpt lat="46.18347" lon="-1.38609">
        <ele>4.4</ele>
        <time>2020-05-31T23:05:58Z</time>
      </trkpt>
      <trkpt lat="46.18351" lon="-1.38613">
        <ele>4.4</ele>
        <time>2020-05-31T23:05:59Z</time>
      </trkpt>
      <trkpt lat="46.18355" lon="-1.38617">
        <ele>4.4</ele>
        <time>2020-05-31T23:06:00Z</time>
      </trkpt>
      <trkpt lat="46.18359" lon="-1.38623">
        <ele>4.5</ele>
        <time>2020-05-31T23:06:01Z</time>
      </trkpt>
      <trkpt lat="46.18362" lon="-1.38627">
        <ele>4.5</ele>
        <time>2020-05-31T23:06:02Z</time>
      </trkpt>
      <trkpt lat="46.18367" lon="-1.3863">
        <ele>4.5</ele>
        <time>2020-05-31T23:06:03Z</time>
      </trkpt>
      <trkpt lat="46.18372" lon="-1.38633">
        <ele>4.6</ele>
        <time>2020-05-31T23:06:04Z</time>
      </trkpt>
      <trkpt lat="46.18376" lon="-1.38636">
        <ele>4.6</ele>
        <time>2020-05-31T23:06:05Z</time>
      </trkpt>
      <trkpt lat="46.18381" lon="-1.38639">
        <ele>4.7</ele>
        <time>2020-05-31T23:06:06Z</time>
      </trkpt>
      <trkpt lat="46.18384" lon="-1.38641">
        <ele>4.7</ele>
        <time>2020-05-31T23:06:07Z</time>
      </trkpt>
      <trkpt lat="46.18388" lon="-1.38644">
        <ele>4.7</ele>
        <time>2020-05-31T23:06:08Z</time>
      </trkpt>
      <trkpt lat="46.18392" lon="-1.38647">
        <ele>4.8</ele>
        <time>2020-05-31T23:06:09Z</time>
      </trkpt>
      <trkpt lat="46.18396" lon="-1.3865">
        <ele>4.8</ele>
        <time>2020-05-31T23:06:10Z</time>
      </trkpt>
      <trkpt lat="46.184" lon="-1.38653">
        <ele>4.8</ele>
        <time>2020-05-31T23:06:11Z</time>
      </trkpt>
      <trkpt lat="46.18404" lon="-1.38656">
        <ele>4.9</ele>
        <time>2020-05-31T23:06:12Z</time>
      </trkpt>
      <trkpt lat="46.18408" lon="-1.38659">
        <ele>4.9</ele>
        <time>2020-05-31T23:06:13Z</time>
      </trkpt>
      <trkpt lat="46.18412" lon="-1.38662">
        <ele>4.9</ele>
        <time>2020-05-31T23:06:14Z</time>
      </trkpt>
      <trkpt lat="46.18416" lon="-1.38666">
        <ele>5</ele>
        <time>2020-05-31T23:06:15Z</time>
      </trkpt>
      <trkpt lat="46.1842" lon="-1.38668">
        <ele>5</ele>
        <time>2020-05-31T23:06:16Z</time>
      </trkpt>
      <trkpt lat="46.18425" lon="-1.38671">
        <ele>5.1</ele>
        <time>2020-05-31T23:06:17Z</time>
      </trkpt>
      <trkpt lat="46.18429" lon="-1.38675">
        <ele>5.1</ele>
        <time>2020-05-31T23:06:18Z</time>
      </trkpt>
      <trkpt lat="46.18433" lon="-1.38677">
        <ele>5.2</ele>
        <time>2020-05-31T23:06:19Z</time>
      </trkpt>
      <trkpt lat="46.18437" lon="-1.3868">
        <ele>5.3</ele>
        <time>2020-05-31T23:06:20Z</time>
      </trkpt>
      <trkpt lat="46.18441" lon="-1.38682">
        <ele>5.3</ele>
        <time>2020-05-31T23:06:21Z</time>
      </trkpt>
      <trkpt lat="46.18446" lon="-1.38684">
        <ele>5.4</ele>
        <time>2020-05-31T23:06:22Z</time>
      </trkpt>
      <trkpt lat="46.18451" lon="-1.38687">
        <ele>5.5</ele>
        <time>2020-05-31T23:06:23Z</time>
      </trkpt>
      <trkpt lat="46.18455" lon="-1.38689">
        <ele>5.6</ele>
        <time>2020-05-31T23:06:24Z</time>
      </trkpt>
      <trkpt lat="46.18459" lon="-1.38691">
        <ele>5.7</ele>
        <time>2020-05-31T23:06:25Z</time>
      </trkpt>
      <trkpt lat="46.18463" lon="-1.38694">
        <ele>5.7</ele>
        <time>2020-05-31T23:06:26Z</time>
      </trkpt>
      <trkpt lat="46.18467" lon="-1.38696">
        <ele>5.8</ele>
        <time>2020-05-31T23:06:27Z</time>
      </trkpt>
      <trkpt lat="46.18471" lon="-1.38698">
        <ele>5.8</ele>
        <time>2020-05-31T23:06:28Z</time>
      </trkpt>
      <trkpt lat="46.18475" lon="-1.387">
        <ele>5.9</ele>
        <time>2020-05-31T23:06:29Z</time>
      </trkpt>
      <trkpt lat="46.18479" lon="-1.38702">
        <ele>6</ele>
        <time>2020-05-31T23:06:30Z</time>
      </trkpt>
      <trkpt lat="46.18483" lon="-1.38705">
        <ele>6</ele>
        <time>2020-05-31T23:06:31Z</time>
      </trkpt>
      <trkpt lat="46.18487" lon="-1.38708">
        <ele>6</ele>
        <time>2020-05-31T23:06:32Z</time>
      </trkpt>
      <trkpt lat="46.18492" lon="-1.38712">
        <ele>6</ele>
        <time>2020-05-31T23:06:33Z</time>
      </trkpt>
      <trkpt lat="46.18495" lon="-1.38718">
        <ele>5.9</ele>
        <time>2020-05-31T23:06:34Z</time>
      </trkpt>
      <trkpt lat="46.18498" lon="-1.38726">
        <ele>5.8</ele>
        <time>2020-05-31T23:06:35Z</time>
      </trkpt>
      <trkpt lat="46.18497" lon="-1.38735">
        <ele>5.7</ele>
        <time>2020-05-31T23:06:36Z</time>
      </trkpt>
      <trkpt lat="46.18497" lon="-1.38743">
        <ele>5.7</ele>
        <time>2020-05-31T23:06:37Z</time>
      </trkpt>
      <trkpt lat="46.18497" lon="-1.38749">
        <ele>5.7</ele>
        <time>2020-05-31T23:06:38Z</time>
      </trkpt>
      <trkpt lat="46.18497" lon="-1.38756">
        <ele>5.7</ele>
        <time>2020-05-31T23:06:39Z</time>
      </trkpt>
      <trkpt lat="46.18497" lon="-1.38763">
        <ele>5.7</ele>
        <time>2020-05-31T23:06:40Z</time>
      </trkpt>
      <trkpt lat="46.18497" lon="-1.3877">
        <ele>5.7</ele>
        <time>2020-05-31T23:06:41Z</time>
      </trkpt>
      <trkpt lat="46.18498" lon="-1.38777">
        <ele>5.7</ele>
        <time>2020-05-31T23:06:42Z</time>
      </trkpt>
      <trkpt lat="46.18497" lon="-1.38784">
        <ele>5.8</ele>
        <time>2020-05-31T23:06:43Z</time>
      </trkpt>
      <trkpt lat="46.18497" lon="-1.3879">
        <ele>5.8</ele>
        <time>2020-05-31T23:06:44Z</time>
      </trkpt>
      <trkpt lat="46.18497" lon="-1.38797">
        <ele>5.8</ele>
        <time>2020-05-31T23:06:45Z</time>
      </trkpt>
      <trkpt lat="46.18498" lon="-1.38804">
        <ele>5.8</ele>
        <time>2020-05-31T23:06:46Z</time>
      </trkpt>
      <trkpt lat="46.18499" lon="-1.38811">
        <ele>5.8</ele>
        <time>2020-05-31T23:06:47Z</time>
      </trkpt>
      <trkpt lat="46.185" lon="-1.38818">
        <ele>5.8</ele>
        <time>2020-05-31T23:06:48Z</time>
      </trkpt>
      <trkpt lat="46.18501" lon="-1.38824">
        <ele>5.8</ele>
        <time>2020-05-31T23:06:49Z</time>
      </trkpt>
      <trkpt lat="46.18502" lon="-1.38832">
        <ele>5.8</ele>
        <time>2020-05-31T23:06:50Z</time>
      </trkpt>
      <trkpt lat="46.18502" lon="-1.38839">
        <ele>5.9</ele>
        <time>2020-05-31T23:06:51Z</time>
      </trkpt>
      <trkpt lat="46.18503" lon="-1.38846">
        <ele>5.9</ele>
        <time>2020-05-31T23:06:52Z</time>
      </trkpt>
      <trkpt lat="46.18504" lon="-1.38853">
        <ele>5.9</ele>
        <time>2020-05-31T23:06:53Z</time>
      </trkpt>
      <trkpt lat="46.18504" lon="-1.38861">
        <ele>5.9</ele>
        <time>2020-05-31T23:06:54Z</time>
      </trkpt>
      <trkpt lat="46.18506" lon="-1.38868">
        <ele>5.9</ele>
        <time>2020-05-31T23:06:55Z</time>
      </trkpt>
      <trkpt lat="46.18507" lon="-1.38875">
        <ele>5.9</ele>
        <time>2020-05-31T23:06:56Z</time>
      </trkpt>
      <trkpt lat="46.18509" lon="-1.38882">
        <ele>5.9</ele>
        <time>2020-05-31T23:06:57Z</time>
      </trkpt>
      <trkpt lat="46.1851" lon="-1.3889">
        <ele>6</ele>
        <time>2020-05-31T23:06:58Z</time>
      </trkpt>
      <trkpt lat="46.18511" lon="-1.38897">
        <ele>6</ele>
        <time>2020-05-31T23:06:59Z</time>
      </trkpt>
      <trkpt lat="46.18512" lon="-1.38905">
        <ele>6</ele>
        <time>2020-05-31T23:07:00Z</time>
      </trkpt>
      <trkpt lat="46.18513" lon="-1.38914">
        <ele>6.1</ele>
        <time>2020-05-31T23:07:01Z</time>
      </trkpt>
      <trkpt lat="46.18515" lon="-1.38922">
        <ele>6.1</ele>
        <time>2020-05-31T23:07:02Z</time>
      </trkpt>
      <trkpt lat="46.18516" lon="-1.3893">
        <ele>6.2</ele>
        <time>2020-05-31T23:07:03Z</time>
      </trkpt>
      <trkpt lat="46.18518" lon="-1.38938">
        <ele>6.2</ele>
        <time>2020-05-31T23:07:04Z</time>
      </trkpt>
      <trkpt lat="46.1852" lon="-1.38946">
        <ele>6.2</ele>
        <time>2020-05-31T23:07:05Z</time>
      </trkpt>
      <trkpt lat="46.18521" lon="-1.38954">
        <ele>6.3</ele>
        <time>2020-05-31T23:07:06Z</time>
      </trkpt>
      <trkpt lat="46.18521" lon="-1.38961">
        <ele>6.3</ele>
        <time>2020-05-31T23:07:07Z</time>
      </trkpt>
      <trkpt lat="46.1852" lon="-1.38969">
        <ele>6.3</ele>
        <time>2020-05-31T23:07:08Z</time>
      </trkpt>
      <trkpt lat="46.1852" lon="-1.38978">
        <ele>6.4</ele>
        <time>2020-05-31T23:07:09Z</time>
      </trkpt>
      <trkpt lat="46.1852" lon="-1.38986">
        <ele>6.4</ele>
        <time>2020-05-31T23:07:10Z</time>
      </trkpt>
      <trkpt lat="46.18518" lon="-1.38994">
        <ele>6.5</ele>
        <time>2020-05-31T23:07:11Z</time>
      </trkpt>
      <trkpt lat="46.18518" lon="-1.39002">
        <ele>6.5</ele>
        <time>2020-05-31T23:07:12Z</time>
      </trkpt>
      <trkpt lat="46.18517" lon="-1.39009">
        <ele>6.6</ele>
        <time>2020-05-31T23:07:13Z</time>
      </trkpt>
      <trkpt lat="46.18515" lon="-1.39017">
        <ele>6.6</ele>
        <time>2020-05-31T23:07:14Z</time>
      </trkpt>
      <trkpt lat="46.18514" lon="-1.39025">
        <ele>6.7</ele>
        <time>2020-05-31T23:07:15Z</time>
      </trkpt>
      <trkpt lat="46.18514" lon="-1.39034">
        <ele>6.7</ele>
        <time>2020-05-31T23:07:16Z</time>
      </trkpt>
      <trkpt lat="46.18512" lon="-1.39042">
        <ele>6.8</ele>
        <time>2020-05-31T23:07:17Z</time>
      </trkpt>
      <trkpt lat="46.18511" lon="-1.3905">
        <ele>6.8</ele>
        <time>2020-05-31T23:07:18Z</time>
      </trkpt>
      <trkpt lat="46.1851" lon="-1.3906">
        <ele>6.9</ele>
        <time>2020-05-31T23:07:19Z</time>
      </trkpt>
      <trkpt lat="46.18509" lon="-1.39069">
        <ele>6.9</ele>
        <time>2020-05-31T23:07:20Z</time>
      </trkpt>
      <trkpt lat="46.18508" lon="-1.39078">
        <ele>6.9</ele>
        <time>2020-05-31T23:07:21Z</time>
      </trkpt>
      <trkpt lat="46.18507" lon="-1.39085">
        <ele>6.9</ele>
        <time>2020-05-31T23:07:22Z</time>
      </trkpt>
      <trkpt lat="46.18505" lon="-1.39094">
        <ele>6.9</ele>
        <time>2020-05-31T23:07:23Z</time>
      </trkpt>
      <trkpt lat="46.18503" lon="-1.39102">
        <ele>6.8</ele>
        <time>2020-05-31T23:07:24Z</time>
      </trkpt>
      <trkpt lat="46.18502" lon="-1.39111">
        <ele>6.8</ele>
        <time>2020-05-31T23:07:25Z</time>
      </trkpt>
      <trkpt lat="46.18501" lon="-1.39117">
        <ele>6.8</ele>
        <time>2020-05-31T23:07:26Z</time>
      </trkpt>
      <trkpt lat="46.18499" lon="-1.39123">
        <ele>6.7</ele>
        <time>2020-05-31T23:07:27Z</time>
      </trkpt>
      <trkpt lat="46.18497" lon="-1.3913">
        <ele>6.7</ele>
        <time>2020-05-31T23:07:28Z</time>
      </trkpt>
      <trkpt lat="46.18496" lon="-1.39137">
        <ele>6.7</ele>
        <time>2020-05-31T23:07:29Z</time>
      </trkpt>
      <trkpt lat="46.18495" lon="-1.39143">
        <ele>6.6</ele>
        <time>2020-05-31T23:07:30Z</time>
      </trkpt>
      <trkpt lat="46.18492" lon="-1.39151">
        <ele>6.6</ele>
        <time>2020-05-31T23:07:31Z</time>
      </trkpt>
      <trkpt lat="46.1849" lon="-1.39159">
        <ele>6.5</ele>
        <time>2020-05-31T23:07:32Z</time>
      </trkpt>
      <trkpt lat="46.18489" lon="-1.39167">
        <ele>6.5</ele>
        <time>2020-05-31T23:07:33Z</time>
      </trkpt>
      <trkpt lat="46.18487" lon="-1.39175">
        <ele>6.4</ele>
        <time>2020-05-31T23:07:34Z</time>
      </trkpt>
      <trkpt lat="46.18485" lon="-1.39183">
        <ele>6.4</ele>
        <time>2020-05-31T23:07:35Z</time>
      </trkpt>
      <trkpt lat="46.18483" lon="-1.3919">
        <ele>6.4</ele>
        <time>2020-05-31T23:07:36Z</time>
      </trkpt>
      <trkpt lat="46.1848" lon="-1.39199">
        <ele>6.3</ele>
        <time>2020-05-31T23:07:37Z</time>
      </trkpt>
      <trkpt lat="46.18478" lon="-1.39206">
        <ele>6.3</ele>
        <time>2020-05-31T23:07:38Z</time>
      </trkpt>
      <trkpt lat="46.18475" lon="-1.39213">
        <ele>6.2</ele>
        <time>2020-05-31T23:07:39Z</time>
      </trkpt>
      <trkpt lat="46.18473" lon="-1.3922">
        <ele>6.2</ele>
        <time>2020-05-31T23:07:40Z</time>
      </trkpt>
      <trkpt lat="46.18471" lon="-1.39228">
        <ele>6.2</ele>
        <time>2020-05-31T23:07:41Z</time>
      </trkpt>
      <trkpt lat="46.1847" lon="-1.39235">
        <ele>6.1</ele>
        <time>2020-05-31T23:07:42Z</time>
      </trkpt>
      <trkpt lat="46.1847" lon="-1.39243">
        <ele>6.1</ele>
        <time>2020-05-31T23:07:43Z</time>
      </trkpt>
      <trkpt lat="46.18471" lon="-1.39252">
        <ele>6</ele>
        <time>2020-05-31T23:07:44Z</time>
      </trkpt>
      <trkpt lat="46.18472" lon="-1.39261">
        <ele>6</ele>
        <time>2020-05-31T23:07:45Z</time>
      </trkpt>
      <trkpt lat="46.18472" lon="-1.3927">
        <ele>6</ele>
        <time>2020-05-31T23:07:46Z</time>
      </trkpt>
      <trkpt lat="46.18474" lon="-1.39279">
        <ele>6.1</ele>
        <time>2020-05-31T23:07:47Z</time>
      </trkpt>
      <trkpt lat="46.18476" lon="-1.39286">
        <ele>6.1</ele>
        <time>2020-05-31T23:07:48Z</time>
      </trkpt>
      <trkpt lat="46.18479" lon="-1.39293">
        <ele>6.2</ele>
        <time>2020-05-31T23:07:49Z</time>
      </trkpt>
      <trkpt lat="46.18482" lon="-1.39299">
        <ele>6.2</ele>
        <time>2020-05-31T23:07:50Z</time>
      </trkpt>
      <trkpt lat="46.18484" lon="-1.39305">
        <ele>6.2</ele>
        <time>2020-05-31T23:07:51Z</time>
      </trkpt>
      <trkpt lat="46.18487" lon="-1.39312">
        <ele>6.2</ele>
        <time>2020-05-31T23:07:52Z</time>
      </trkpt>
      <trkpt lat="46.18488" lon="-1.39321">
        <ele>6.3</ele>
        <time>2020-05-31T23:07:53Z</time>
      </trkpt>
      <trkpt lat="46.18489" lon="-1.3933">
        <ele>6.3</ele>
        <time>2020-05-31T23:07:54Z</time>
      </trkpt>
      <trkpt lat="46.18488" lon="-1.39338">
        <ele>6.3</ele>
        <time>2020-05-31T23:07:55Z</time>
      </trkpt>
      <trkpt lat="46.18487" lon="-1.39345">
        <ele>6.2</ele>
        <time>2020-05-31T23:07:56Z</time>
      </trkpt>
      <trkpt lat="46.18484" lon="-1.39351">
        <ele>6.2</ele>
        <time>2020-05-31T23:07:57Z</time>
      </trkpt>
      <trkpt lat="46.18481" lon="-1.39358">
        <ele>6.2</ele>
        <time>2020-05-31T23:07:58Z</time>
      </trkpt>
      <trkpt lat="46.18478" lon="-1.39365">
        <ele>6.1</ele>
        <time>2020-05-31T23:07:59Z</time>
      </trkpt>
      <trkpt lat="46.18474" lon="-1.39371">
        <ele>6.1</ele>
        <time>2020-05-31T23:08:00Z</time>
      </trkpt>
      <trkpt lat="46.1847" lon="-1.39377">
        <ele>6</ele>
        <time>2020-05-31T23:08:01Z</time>
      </trkpt>
      <trkpt lat="46.18466" lon="-1.39384">
        <ele>5.9</ele>
        <time>2020-05-31T23:08:02Z</time>
      </trkpt>
      <trkpt lat="46.18463" lon="-1.3939">
        <ele>5.9</ele>
        <time>2020-05-31T23:08:03Z</time>
      </trkpt>
      <trkpt lat="46.18459" lon="-1.39396">
        <ele>5.8</ele>
        <time>2020-05-31T23:08:04Z</time>
      </trkpt>
      <trkpt lat="46.18455" lon="-1.39402">
        <ele>5.8</ele>
        <time>2020-05-31T23:08:05Z</time>
      </trkpt>
      <trkpt lat="46.18451" lon="-1.39408">
        <ele>5.8</ele>
        <time>2020-05-31T23:08:06Z</time>
      </trkpt>
      <trkpt lat="46.18447" lon="-1.39415">
        <ele>5.7</ele>
        <time>2020-05-31T23:08:07Z</time>
      </trkpt>
      <trkpt lat="46.18444" lon="-1.39421">
        <ele>5.7</ele>
        <time>2020-05-31T23:08:08Z</time>
      </trkpt>
      <trkpt lat="46.1844" lon="-1.39428">
        <ele>5.7</ele>
        <time>2020-05-31T23:08:09Z</time>
      </trkpt>
      <trkpt lat="46.18436" lon="-1.39435">
        <ele>5.6</ele>
        <time>2020-05-31T23:08:10Z</time>
      </trkpt>
      <trkpt lat="46.18433" lon="-1.39442">
        <ele>5.6</ele>
        <time>2020-05-31T23:08:11Z</time>
      </trkpt>
      <trkpt lat="46.18429" lon="-1.39448">
        <ele>5.6</ele>
        <time>2020-05-31T23:08:12Z</time>
      </trkpt>
      <trkpt lat="46.18426" lon="-1.39455">
        <ele>5.6</ele>
        <time>2020-05-31T23:08:13Z</time>
      </trkpt>
      <trkpt lat="46.18424" lon="-1.39461">
        <ele>5.6</ele>
        <time>2020-05-31T23:08:14Z</time>
      </trkpt>
      <trkpt lat="46.18421" lon="-1.39467">
        <ele>5.5</ele>
        <time>2020-05-31T23:08:15Z</time>
      </trkpt>
      <trkpt lat="46.18418" lon="-1.39475">
        <ele>5.5</ele>
        <time>2020-05-31T23:08:16Z</time>
      </trkpt>
      <trkpt lat="46.18417" lon="-1.39481">
        <ele>5.5</ele>
        <time>2020-05-31T23:08:17Z</time>
      </trkpt>
      <trkpt lat="46.18414" lon="-1.39488">
        <ele>5.5</ele>
        <time>2020-05-31T23:08:18Z</time>
      </trkpt>
      <trkpt lat="46.18411" lon="-1.39496">
        <ele>5.4</ele>
        <time>2020-05-31T23:08:19Z</time>
      </trkpt>
      <trkpt lat="46.18409" lon="-1.39505">
        <ele>5.4</ele>
        <time>2020-05-31T23:08:20Z</time>
      </trkpt>
      <trkpt lat="46.18405" lon="-1.39514">
        <ele>5.3</ele>
        <time>2020-05-31T23:08:21Z</time>
      </trkpt>
      <trkpt lat="46.18401" lon="-1.39525">
        <ele>5.3</ele>
        <time>2020-05-31T23:08:22Z</time>
      </trkpt>
      <trkpt lat="46.18398" lon="-1.39534">
        <ele>5.3</ele>
        <time>2020-05-31T23:08:23Z</time>
      </trkpt>
      <trkpt lat="46.18394" lon="-1.39543">
        <ele>5.3</ele>
        <time>2020-05-31T23:08:24Z</time>
      </trkpt>
      <trkpt lat="46.1839" lon="-1.39552">
        <ele>5.2</ele>
        <time>2020-05-31T23:08:25Z</time>
      </trkpt>
      <trkpt lat="46.18386" lon="-1.39561">
        <ele>5.2</ele>
        <time>2020-05-31T23:08:26Z</time>
      </trkpt>
      <trkpt lat="46.18383" lon="-1.39567">
        <ele>5.2</ele>
        <time>2020-05-31T23:08:27Z</time>
      </trkpt>
      <trkpt lat="46.1838" lon="-1.39574">
        <ele>5.2</ele>
        <time>2020-05-31T23:08:28Z</time>
      </trkpt>
      <trkpt lat="46.18377" lon="-1.39582">
        <ele>5.1</ele>
        <time>2020-05-31T23:08:29Z</time>
      </trkpt>
      <trkpt lat="46.18373" lon="-1.3959">
        <ele>5.1</ele>
        <time>2020-05-31T23:08:30Z</time>
      </trkpt>
      <trkpt lat="46.18371" lon="-1.39595">
        <ele>5.1</ele>
        <time>2020-05-31T23:08:31Z</time>
      </trkpt>
      <trkpt lat="46.18367" lon="-1.39602">
        <ele>5.1</ele>
        <time>2020-05-31T23:08:32Z</time>
      </trkpt>
      <trkpt lat="46.18364" lon="-1.39611">
        <ele>5</ele>
        <time>2020-05-31T23:08:33Z</time>
      </trkpt>
      <trkpt lat="46.18361" lon="-1.39619">
        <ele>5</ele>
        <time>2020-05-31T23:08:34Z</time>
      </trkpt>
      <trkpt lat="46.18359" lon="-1.39625">
        <ele>5.1</ele>
        <time>2020-05-31T23:08:35Z</time>
      </trkpt>
      <trkpt lat="46.18355" lon="-1.39633">
        <ele>5.1</ele>
        <time>2020-05-31T23:08:36Z</time>
      </trkpt>
      <trkpt lat="46.18353" lon="-1.3964">
        <ele>5.1</ele>
        <time>2020-05-31T23:08:37Z</time>
      </trkpt>
      <trkpt lat="46.18352" lon="-1.39646">
        <ele>5.1</ele>
        <time>2020-05-31T23:08:38Z</time>
      </trkpt>
      <trkpt lat="46.1835" lon="-1.39653">
        <ele>5.2</ele>
        <time>2020-05-31T23:08:39Z</time>
      </trkpt>
      <trkpt lat="46.1835" lon="-1.39661">
        <ele>5.2</ele>
        <time>2020-05-31T23:08:40Z</time>
      </trkpt>
      <trkpt lat="46.18348" lon="-1.39669">
        <ele>5.2</ele>
        <time>2020-05-31T23:08:41Z</time>
      </trkpt>
      <trkpt lat="46.18346" lon="-1.39678">
        <ele>5.2</ele>
        <time>2020-05-31T23:08:42Z</time>
      </trkpt>
      <trkpt lat="46.18347" lon="-1.39685">
        <ele>5.2</ele>
        <time>2020-05-31T23:08:43Z</time>
      </trkpt>
      <trkpt lat="46.18346" lon="-1.39695">
        <ele>5.2</ele>
        <time>2020-05-31T23:08:44Z</time>
      </trkpt>
      <trkpt lat="46.18346" lon="-1.39705">
        <ele>5.3</ele>
        <time>2020-05-31T23:08:45Z</time>
      </trkpt>
      <trkpt lat="46.18347" lon="-1.39713">
        <ele>5.3</ele>
        <time>2020-05-31T23:08:46Z</time>
      </trkpt>
      <trkpt lat="46.18348" lon="-1.39722">
        <ele>5.5</ele>
        <time>2020-05-31T23:08:47Z</time>
      </trkpt>
      <trkpt lat="46.1835" lon="-1.39732">
        <ele>5.5</ele>
        <time>2020-05-31T23:08:48Z</time>
      </trkpt>
      <trkpt lat="46.18354" lon="-1.39741">
        <ele>5.5</ele>
        <time>2020-05-31T23:08:49Z</time>
      </trkpt>
      <trkpt lat="46.18357" lon="-1.39747">
        <ele>5.5</ele>
        <time>2020-05-31T23:08:50Z</time>
      </trkpt>
      <trkpt lat="46.1836" lon="-1.39753">
        <ele>5.6</ele>
        <time>2020-05-31T23:08:51Z</time>
      </trkpt>
      <trkpt lat="46.18368" lon="-1.39761">
        <ele>5.6</ele>
        <time>2020-05-31T23:08:52Z</time>
      </trkpt>
      <trkpt lat="46.18374" lon="-1.39768">
        <ele>5.6</ele>
        <time>2020-05-31T23:08:53Z</time>
      </trkpt>
      <trkpt lat="46.1838" lon="-1.39775">
        <ele>5.6</ele>
        <time>2020-05-31T23:08:54Z</time>
      </trkpt>
      <trkpt lat="46.18386" lon="-1.39781">
        <ele>5.7</ele>
        <time>2020-05-31T23:08:55Z</time>
      </trkpt>
      <trkpt lat="46.18392" lon="-1.39787">
        <ele>5.7</ele>
        <time>2020-05-31T23:08:56Z</time>
      </trkpt>
      <trkpt lat="46.18398" lon="-1.39794">
        <ele>5.6</ele>
        <time>2020-05-31T23:08:57Z</time>
      </trkpt>
      <trkpt lat="46.18404" lon="-1.398">
        <ele>5.6</ele>
        <time>2020-05-31T23:08:58Z</time>
      </trkpt>
      <trkpt lat="46.18409" lon="-1.39806">
        <ele>5.6</ele>
        <time>2020-05-31T23:08:59Z</time>
      </trkpt>
      <trkpt lat="46.18415" lon="-1.39813">
        <ele>5.6</ele>
        <time>2020-05-31T23:09:00Z</time>
      </trkpt>
      <trkpt lat="46.1842" lon="-1.3982">
        <ele>5.5</ele>
        <time>2020-05-31T23:09:01Z</time>
      </trkpt>
      <trkpt lat="46.18426" lon="-1.39826">
        <ele>5.5</ele>
        <time>2020-05-31T23:09:02Z</time>
      </trkpt>
      <trkpt lat="46.18432" lon="-1.39832">
        <ele>5.5</ele>
        <time>2020-05-31T23:09:03Z</time>
      </trkpt>
      <trkpt lat="46.18437" lon="-1.39838">
        <ele>5.5</ele>
        <time>2020-05-31T23:09:04Z</time>
      </trkpt>
      <trkpt lat="46.18443" lon="-1.39845">
        <ele>5.5</ele>
        <time>2020-05-31T23:09:05Z</time>
      </trkpt>
      <trkpt lat="46.18448" lon="-1.39851">
        <ele>5.5</ele>
        <time>2020-05-31T23:09:06Z</time>
      </trkpt>
      <trkpt lat="46.18453" lon="-1.39857">
        <ele>5.5</ele>
        <time>2020-05-31T23:09:07Z</time>
      </trkpt>
      <trkpt lat="46.18458" lon="-1.39862">
        <ele>5.5</ele>
        <time>2020-05-31T23:09:08Z</time>
      </trkpt>
      <trkpt lat="46.18463" lon="-1.39868">
        <ele>5.5</ele>
        <time>2020-05-31T23:09:09Z</time>
      </trkpt>
      <trkpt lat="46.18468" lon="-1.39873">
        <ele>5.5</ele>
        <time>2020-05-31T23:09:10Z</time>
      </trkpt>
      <trkpt lat="46.18473" lon="-1.39878">
        <ele>5.5</ele>
        <time>2020-05-31T23:09:11Z</time>
      </trkpt>
      <trkpt lat="46.18477" lon="-1.39883">
        <ele>5.6</ele>
        <time>2020-05-31T23:09:12Z</time>
      </trkpt>
      <trkpt lat="46.18482" lon="-1.39888">
        <ele>5.6</ele>
        <time>2020-05-31T23:09:13Z</time>
      </trkpt>
      <trkpt lat="46.18487" lon="-1.39892">
        <ele>5.6</ele>
        <time>2020-05-31T23:09:14Z</time>
      </trkpt>
      <trkpt lat="46.18491" lon="-1.39897">
        <ele>5.6</ele>
        <time>2020-05-31T23:09:15Z</time>
      </trkpt>
      <trkpt lat="46.18496" lon="-1.39901">
        <ele>5.6</ele>
        <time>2020-05-31T23:09:16Z</time>
      </trkpt>
      <trkpt lat="46.18501" lon="-1.39906">
        <ele>5.6</ele>
        <time>2020-05-31T23:09:17Z</time>
      </trkpt>
      <trkpt lat="46.18506" lon="-1.39911">
        <ele>5.6</ele>
        <time>2020-05-31T23:09:18Z</time>
      </trkpt>
      <trkpt lat="46.1851" lon="-1.39915">
        <ele>5.6</ele>
        <time>2020-05-31T23:09:19Z</time>
      </trkpt>
      <trkpt lat="46.18515" lon="-1.3992">
        <ele>5.6</ele>
        <time>2020-05-31T23:09:20Z</time>
      </trkpt>
      <trkpt lat="46.18519" lon="-1.39924">
        <ele>5.6</ele>
        <time>2020-05-31T23:09:21Z</time>
      </trkpt>
      <trkpt lat="46.18523" lon="-1.39929">
        <ele>5.6</ele>
        <time>2020-05-31T23:09:22Z</time>
      </trkpt>
      <trkpt lat="46.18527" lon="-1.39933">
        <ele>5.5</ele>
        <time>2020-05-31T23:09:23Z</time>
      </trkpt>
      <trkpt lat="46.18531" lon="-1.39938">
        <ele>5.5</ele>
        <time>2020-05-31T23:09:24Z</time>
      </trkpt>
      <trkpt lat="46.18535" lon="-1.39944">
        <ele>5.4</ele>
        <time>2020-05-31T23:09:25Z</time>
      </trkpt>
      <trkpt lat="46.1854" lon="-1.39949">
        <ele>5.4</ele>
        <time>2020-05-31T23:09:26Z</time>
      </trkpt>
      <trkpt lat="46.18545" lon="-1.39954">
        <ele>5.3</ele>
        <time>2020-05-31T23:09:27Z</time>
      </trkpt>
      <trkpt lat="46.18549" lon="-1.3996">
        <ele>5.2</ele>
        <time>2020-05-31T23:09:28Z</time>
      </trkpt>
      <trkpt lat="46.18554" lon="-1.39965">
        <ele>5.1</ele>
        <time>2020-05-31T23:09:29Z</time>
      </trkpt>
      <trkpt lat="46.18559" lon="-1.3997">
        <ele>5.1</ele>
        <time>2020-05-31T23:09:30Z</time>
      </trkpt>
      <trkpt lat="46.18563" lon="-1.39975">
        <ele>5</ele>
        <time>2020-05-31T23:09:31Z</time>
      </trkpt>
      <trkpt lat="46.18567" lon="-1.39981">
        <ele>4.9</ele>
        <time>2020-05-31T23:09:32Z</time>
      </trkpt>
      <trkpt lat="46.18571" lon="-1.39986">
        <ele>4.8</ele>
        <time>2020-05-31T23:09:33Z</time>
      </trkpt>
      <trkpt lat="46.18576" lon="-1.39992">
        <ele>4.7</ele>
        <time>2020-05-31T23:09:34Z</time>
      </trkpt>
      <trkpt lat="46.1858" lon="-1.39998">
        <ele>4.6</ele>
        <time>2020-05-31T23:09:35Z</time>
      </trkpt>
      <trkpt lat="46.18584" lon="-1.40004">
        <ele>4.5</ele>
        <time>2020-05-31T23:09:36Z</time>
      </trkpt>
      <trkpt lat="46.18588" lon="-1.4001">
        <ele>4.4</ele>
        <time>2020-05-31T23:09:37Z</time>
      </trkpt>
      <trkpt lat="46.18591" lon="-1.40017">
        <ele>4.4</ele>
        <time>2020-05-31T23:09:38Z</time>
      </trkpt>
      <trkpt lat="46.18595" lon="-1.40024">
        <ele>4.3</ele>
        <time>2020-05-31T23:09:39Z</time>
      </trkpt>
      <trkpt lat="46.18599" lon="-1.4003">
        <ele>4.3</ele>
        <time>2020-05-31T23:09:40Z</time>
      </trkpt>
      <trkpt lat="46.18603" lon="-1.40037">
        <ele>4.2</ele>
        <time>2020-05-31T23:09:41Z</time>
      </trkpt>
      <trkpt lat="46.18607" lon="-1.40044">
        <ele>4.1</ele>
        <time>2020-05-31T23:09:42Z</time>
      </trkpt>
      <trkpt lat="46.18611" lon="-1.40051">
        <ele>4.1</ele>
        <time>2020-05-31T23:09:43Z</time>
      </trkpt>
      <trkpt lat="46.18615" lon="-1.40057">
        <ele>4</ele>
        <time>2020-05-31T23:09:44Z</time>
      </trkpt>
      <trkpt lat="46.18619" lon="-1.40064">
        <ele>4</ele>
        <time>2020-05-31T23:09:45Z</time>
      </trkpt>
      <trkpt lat="46.18623" lon="-1.40071">
        <ele>4</ele>
        <time>2020-05-31T23:09:46Z</time>
      </trkpt>
      <trkpt lat="46.18627" lon="-1.40077">
        <ele>3.9</ele>
        <time>2020-05-31T23:09:47Z</time>
      </trkpt>
      <trkpt lat="46.1863" lon="-1.40083">
        <ele>3.9</ele>
        <time>2020-05-31T23:09:48Z</time>
      </trkpt>
      <trkpt lat="46.18633" lon="-1.4009">
        <ele>3.8</ele>
        <time>2020-05-31T23:09:49Z</time>
      </trkpt>
      <trkpt lat="46.18637" lon="-1.40097">
        <ele>3.8</ele>
        <time>2020-05-31T23:09:50Z</time>
      </trkpt>
      <trkpt lat="46.1864" lon="-1.40103">
        <ele>3.7</ele>
        <time>2020-05-31T23:09:51Z</time>
      </trkpt>
      <trkpt lat="46.18643" lon="-1.40109">
        <ele>3.7</ele>
        <time>2020-05-31T23:09:52Z</time>
      </trkpt>
      <trkpt lat="46.18647" lon="-1.40114">
        <ele>3.7</ele>
        <time>2020-05-31T23:09:53Z</time>
      </trkpt>
      <trkpt lat="46.18651" lon="-1.40118">
        <ele>3.7</ele>
        <time>2020-05-31T23:09:54Z</time>
      </trkpt>
      <trkpt lat="46.18656" lon="-1.40121">
        <ele>3.7</ele>
        <time>2020-05-31T23:09:55Z</time>
      </trkpt>
      <trkpt lat="46.1866" lon="-1.40124">
        <ele>3.6</ele>
        <time>2020-05-31T23:09:56Z</time>
      </trkpt>
      <trkpt lat="46.18665" lon="-1.40128">
        <ele>3.6</ele>
        <time>2020-05-31T23:09:57Z</time>
      </trkpt>
      <trkpt lat="46.18669" lon="-1.40132">
        <ele>3.6</ele>
        <time>2020-05-31T23:09:58Z</time>
      </trkpt>
      <trkpt lat="46.18674" lon="-1.40136">
        <ele>3.6</ele>
        <time>2020-05-31T23:09:59Z</time>
      </trkpt>
      <trkpt lat="46.18678" lon="-1.40142">
        <ele>3.6</ele>
        <time>2020-05-31T23:10:00Z</time>
      </trkpt>
      <trkpt lat="46.18682" lon="-1.40147">
        <ele>3.6</ele>
        <time>2020-05-31T23:10:01Z</time>
      </trkpt>
      <trkpt lat="46.18687" lon="-1.40152">
        <ele>3.5</ele>
        <time>2020-05-31T23:10:02Z</time>
      </trkpt>
      <trkpt lat="46.18691" lon="-1.40156">
        <ele>3.5</ele>
        <time>2020-05-31T23:10:03Z</time>
      </trkpt>
      <trkpt lat="46.18696" lon="-1.40155">
        <ele>3.5</ele>
        <time>2020-05-31T23:10:04Z</time>
      </trkpt>
      <trkpt lat="46.18701" lon="-1.40154">
        <ele>3.5</ele>
        <time>2020-05-31T23:10:05Z</time>
      </trkpt>
      <trkpt lat="46.18706" lon="-1.40154">
        <ele>3.5</ele>
        <time>2020-05-31T23:10:06Z</time>
      </trkpt>
      <trkpt lat="46.18711" lon="-1.40155">
        <ele>3.5</ele>
        <time>2020-05-31T23:10:07Z</time>
      </trkpt>
      <trkpt lat="46.18717" lon="-1.40156">
        <ele>3.5</ele>
        <time>2020-05-31T23:10:08Z</time>
      </trkpt>
      <trkpt lat="46.18722" lon="-1.40157">
        <ele>3.5</ele>
        <time>2020-05-31T23:10:09Z</time>
      </trkpt>
      <trkpt lat="46.18727" lon="-1.40158">
        <ele>3.5</ele>
        <time>2020-05-31T23:10:10Z</time>
      </trkpt>
      <trkpt lat="46.18732" lon="-1.4016">
        <ele>3.4</ele>
        <time>2020-05-31T23:10:11Z</time>
      </trkpt>
      <trkpt lat="46.18738" lon="-1.40161">
        <ele>3.4</ele>
        <time>2020-05-31T23:10:12Z</time>
      </trkpt>
      <trkpt lat="46.18743" lon="-1.40162">
        <ele>3.4</ele>
        <time>2020-05-31T23:10:13Z</time>
      </trkpt>
      <trkpt lat="46.18749" lon="-1.40164">
        <ele>3.4</ele>
        <time>2020-05-31T23:10:14Z</time>
      </trkpt>
      <trkpt lat="46.18754" lon="-1.40165">
        <ele>3.4</ele>
        <time>2020-05-31T23:10:15Z</time>
      </trkpt>
      <trkpt lat="46.18758" lon="-1.40166">
        <ele>3.3</ele>
        <time>2020-05-31T23:10:16Z</time>
      </trkpt>
      <trkpt lat="46.18762" lon="-1.40167">
        <ele>3.3</ele>
        <time>2020-05-31T23:10:17Z</time>
      </trkpt>
      <trkpt lat="46.18765" lon="-1.40169">
        <ele>3.3</ele>
        <time>2020-05-31T23:10:18Z</time>
      </trkpt>
      <trkpt lat="46.18768" lon="-1.40171">
        <ele>3.3</ele>
        <time>2020-05-31T23:10:19Z</time>
      </trkpt>
      <trkpt lat="46.18772" lon="-1.40172">
        <ele>3.2</ele>
        <time>2020-05-31T23:10:20Z</time>
      </trkpt>
      <trkpt lat="46.18777" lon="-1.40174">
        <ele>3.2</ele>
        <time>2020-05-31T23:10:21Z</time>
      </trkpt>
      <trkpt lat="46.18783" lon="-1.40175">
        <ele>3.2</ele>
        <time>2020-05-31T23:10:22Z</time>
      </trkpt>
      <trkpt lat="46.18789" lon="-1.40178">
        <ele>3.2</ele>
        <time>2020-05-31T23:10:23Z</time>
      </trkpt>
      <trkpt lat="46.18795" lon="-1.4018">
        <ele>3.2</ele>
        <time>2020-05-31T23:10:24Z</time>
      </trkpt>
      <trkpt lat="46.18801" lon="-1.40184">
        <ele>3.1</ele>
        <time>2020-05-31T23:10:25Z</time>
      </trkpt>
      <trkpt lat="46.18807" lon="-1.40186">
        <ele>3.1</ele>
        <time>2020-05-31T23:10:26Z</time>
      </trkpt>
      <trkpt lat="46.18813" lon="-1.40189">
        <ele>3.1</ele>
        <time>2020-05-31T23:10:27Z</time>
      </trkpt>
      <trkpt lat="46.18818" lon="-1.40191">
        <ele>3.1</ele>
        <time>2020-05-31T23:10:28Z</time>
      </trkpt>
      <trkpt lat="46.18824" lon="-1.40193">
        <ele>3.1</ele>
        <time>2020-05-31T23:10:29Z</time>
      </trkpt>
      <trkpt lat="46.18829" lon="-1.40196">
        <ele>3.1</ele>
        <time>2020-05-31T23:10:30Z</time>
      </trkpt>
      <trkpt lat="46.18834" lon="-1.40198">
        <ele>3.1</ele>
        <time>2020-05-31T23:10:31Z</time>
      </trkpt>
      <trkpt lat="46.1884" lon="-1.402">
        <ele>3.1</ele>
        <time>2020-05-31T23:10:32Z</time>
      </trkpt>
      <trkpt lat="46.18845" lon="-1.40202">
        <ele>3.2</ele>
        <time>2020-05-31T23:10:33Z</time>
      </trkpt>
      <trkpt lat="46.18851" lon="-1.40205">
        <ele>3.2</ele>
        <time>2020-05-31T23:10:34Z</time>
      </trkpt>
      <trkpt lat="46.18857" lon="-1.40207">
        <ele>3.2</ele>
        <time>2020-05-31T23:10:35Z</time>
      </trkpt>
      <trkpt lat="46.18863" lon="-1.4021">
        <ele>3.2</ele>
        <time>2020-05-31T23:10:36Z</time>
      </trkpt>
      <trkpt lat="46.18869" lon="-1.40213">
        <ele>3.3</ele>
        <time>2020-05-31T23:10:37Z</time>
      </trkpt>
      <trkpt lat="46.18875" lon="-1.40215">
        <ele>3.3</ele>
        <time>2020-05-31T23:10:38Z</time>
      </trkpt>
      <trkpt lat="46.18881" lon="-1.40218">
        <ele>3.3</ele>
        <time>2020-05-31T23:10:39Z</time>
      </trkpt>
      <trkpt lat="46.18887" lon="-1.40221">
        <ele>3.4</ele>
        <time>2020-05-31T23:10:40Z</time>
      </trkpt>
      <trkpt lat="46.18893" lon="-1.40224">
        <ele>3.4</ele>
        <time>2020-05-31T23:10:41Z</time>
      </trkpt>
      <trkpt lat="46.18899" lon="-1.40226">
        <ele>3.4</ele>
        <time>2020-05-31T23:10:42Z</time>
      </trkpt>
      <trkpt lat="46.18905" lon="-1.40229">
        <ele>3.4</ele>
        <time>2020-05-31T23:10:43Z</time>
      </trkpt>
      <trkpt lat="46.18911" lon="-1.40231">
        <ele>3.4</ele>
        <time>2020-05-31T23:10:44Z</time>
      </trkpt>
      <trkpt lat="46.18917" lon="-1.40233">
        <ele>3.4</ele>
        <time>2020-05-31T23:10:45Z</time>
      </trkpt>
      <trkpt lat="46.18924" lon="-1.40235">
        <ele>3.4</ele>
        <time>2020-05-31T23:10:46Z</time>
      </trkpt>
      <trkpt lat="46.1893" lon="-1.40237">
        <ele>3.4</ele>
        <time>2020-05-31T23:10:47Z</time>
      </trkpt>
      <trkpt lat="46.18936" lon="-1.40239">
        <ele>3.5</ele>
        <time>2020-05-31T23:10:48Z</time>
      </trkpt>
      <trkpt lat="46.18942" lon="-1.4024">
        <ele>3.5</ele>
        <time>2020-05-31T23:10:49Z</time>
      </trkpt>
      <trkpt lat="46.18949" lon="-1.40242">
        <ele>3.5</ele>
        <time>2020-05-31T23:10:50Z</time>
      </trkpt>
      <trkpt lat="46.18954" lon="-1.40243">
        <ele>3.5</ele>
        <time>2020-05-31T23:10:51Z</time>
      </trkpt>
      <trkpt lat="46.18959" lon="-1.40245">
        <ele>3.5</ele>
        <time>2020-05-31T23:10:52Z</time>
      </trkpt>
      <trkpt lat="46.18965" lon="-1.40247">
        <ele>3.5</ele>
        <time>2020-05-31T23:10:53Z</time>
      </trkpt>
      <trkpt lat="46.1897" lon="-1.40249">
        <ele>3.5</ele>
        <time>2020-05-31T23:10:54Z</time>
      </trkpt>
      <trkpt lat="46.18975" lon="-1.40251">
        <ele>3.5</ele>
        <time>2020-05-31T23:10:55Z</time>
      </trkpt>
      <trkpt lat="46.1898" lon="-1.40252">
        <ele>3.5</ele>
        <time>2020-05-31T23:10:56Z</time>
      </trkpt>
      <trkpt lat="46.18985" lon="-1.40253">
        <ele>3.5</ele>
        <time>2020-05-31T23:10:57Z</time>
      </trkpt>
      <trkpt lat="46.18991" lon="-1.40254">
        <ele>3.5</ele>
        <time>2020-05-31T23:10:58Z</time>
      </trkpt>
      <trkpt lat="46.18996" lon="-1.40256">
        <ele>3.4</ele>
        <time>2020-05-31T23:10:59Z</time>
      </trkpt>
      <trkpt lat="46.19" lon="-1.40257">
        <ele>3.4</ele>
        <time>2020-05-31T23:11:00Z</time>
      </trkpt>
      <trkpt lat="46.19006" lon="-1.40259">
        <ele>3.4</ele>
        <time>2020-05-31T23:11:01Z</time>
      </trkpt>
      <trkpt lat="46.19011" lon="-1.40261">
        <ele>3.4</ele>
        <time>2020-05-31T23:11:02Z</time>
      </trkpt>
      <trkpt lat="46.19016" lon="-1.40263">
        <ele>3.4</ele>
        <time>2020-05-31T23:11:03Z</time>
      </trkpt>
      <trkpt lat="46.19022" lon="-1.40265">
        <ele>3.4</ele>
        <time>2020-05-31T23:11:04Z</time>
      </trkpt>
      <trkpt lat="46.19027" lon="-1.40266">
        <ele>3.4</ele>
        <time>2020-05-31T23:11:05Z</time>
      </trkpt>
      <trkpt lat="46.19032" lon="-1.40267">
        <ele>3.4</ele>
        <time>2020-05-31T23:11:06Z</time>
      </trkpt>
      <trkpt lat="46.19038" lon="-1.40268">
        <ele>3.3</ele>
        <time>2020-05-31T23:11:07Z</time>
      </trkpt>
      <trkpt lat="46.19044" lon="-1.40269">
        <ele>3.3</ele>
        <time>2020-05-31T23:11:08Z</time>
      </trkpt>
      <trkpt lat="46.19051" lon="-1.4027">
        <ele>3.3</ele>
        <time>2020-05-31T23:11:09Z</time>
      </trkpt>
      <trkpt lat="46.19057" lon="-1.40272">
        <ele>3.3</ele>
        <time>2020-05-31T23:11:10Z</time>
      </trkpt>
      <trkpt lat="46.19064" lon="-1.40273">
        <ele>3.3</ele>
        <time>2020-05-31T23:11:11Z</time>
      </trkpt>
      <trkpt lat="46.19071" lon="-1.40276">
        <ele>3.3</ele>
        <time>2020-05-31T23:11:12Z</time>
      </trkpt>
      <trkpt lat="46.19079" lon="-1.40279">
        <ele>3.2</ele>
        <time>2020-05-31T23:11:13Z</time>
      </trkpt>
      <trkpt lat="46.19086" lon="-1.40282">
        <ele>3.2</ele>
        <time>2020-05-31T23:11:14Z</time>
      </trkpt>
      <trkpt lat="46.19093" lon="-1.40286">
        <ele>3.2</ele>
        <time>2020-05-31T23:11:15Z</time>
      </trkpt>
      <trkpt lat="46.191" lon="-1.40289">
        <ele>3.1</ele>
        <time>2020-05-31T23:11:16Z</time>
      </trkpt>
      <trkpt lat="46.19107" lon="-1.40292">
        <ele>3.1</ele>
        <time>2020-05-31T23:11:17Z</time>
      </trkpt>
      <trkpt lat="46.19114" lon="-1.40295">
        <ele>3.1</ele>
        <time>2020-05-31T23:11:18Z</time>
      </trkpt>
      <trkpt lat="46.1912" lon="-1.40299">
        <ele>3.1</ele>
        <time>2020-05-31T23:11:19Z</time>
      </trkpt>
      <trkpt lat="46.19125" lon="-1.40303">
        <ele>3</ele>
        <time>2020-05-31T23:11:20Z</time>
      </trkpt>
      <trkpt lat="46.19131" lon="-1.40308">
        <ele>3</ele>
        <time>2020-05-31T23:11:21Z</time>
      </trkpt>
      <trkpt lat="46.19137" lon="-1.40312">
        <ele>3</ele>
        <time>2020-05-31T23:11:22Z</time>
      </trkpt>
      <trkpt lat="46.19143" lon="-1.40316">
        <ele>3</ele>
        <time>2020-05-31T23:11:23Z</time>
      </trkpt>
      <trkpt lat="46.19149" lon="-1.40321">
        <ele>2.9</ele>
        <time>2020-05-31T23:11:24Z</time>
      </trkpt>
      <trkpt lat="46.19154" lon="-1.40325">
        <ele>2.9</ele>
        <time>2020-05-31T23:11:25Z</time>
      </trkpt>
      <trkpt lat="46.19159" lon="-1.4033">
        <ele>2.9</ele>
        <time>2020-05-31T23:11:26Z</time>
      </trkpt>
      <trkpt lat="46.19164" lon="-1.40335">
        <ele>2.9</ele>
        <time>2020-05-31T23:11:27Z</time>
      </trkpt>
      <trkpt lat="46.19169" lon="-1.4034">
        <ele>2.9</ele>
        <time>2020-05-31T23:11:28Z</time>
      </trkpt>
      <trkpt lat="46.19174" lon="-1.40344">
        <ele>2.9</ele>
        <time>2020-05-31T23:11:29Z</time>
      </trkpt>
      <trkpt lat="46.1918" lon="-1.40349">
        <ele>2.9</ele>
        <time>2020-05-31T23:11:30Z</time>
      </trkpt>
      <trkpt lat="46.19185" lon="-1.40354">
        <ele>2.9</ele>
        <time>2020-05-31T23:11:31Z</time>
      </trkpt>
      <trkpt lat="46.19189" lon="-1.40359">
        <ele>2.9</ele>
        <time>2020-05-31T23:11:32Z</time>
      </trkpt>
      <trkpt lat="46.19195" lon="-1.40364">
        <ele>2.8</ele>
        <time>2020-05-31T23:11:33Z</time>
      </trkpt>
      <trkpt lat="46.19199" lon="-1.4037">
        <ele>2.8</ele>
        <time>2020-05-31T23:11:34Z</time>
      </trkpt>
      <trkpt lat="46.19204" lon="-1.40375">
        <ele>2.8</ele>
        <time>2020-05-31T23:11:35Z</time>
      </trkpt>
      <trkpt lat="46.19209" lon="-1.40381">
        <ele>2.8</ele>
        <time>2020-05-31T23:11:36Z</time>
      </trkpt>
      <trkpt lat="46.19214" lon="-1.40387">
        <ele>2.8</ele>
        <time>2020-05-31T23:11:37Z</time>
      </trkpt>
      <trkpt lat="46.19219" lon="-1.40393">
        <ele>2.8</ele>
        <time>2020-05-31T23:11:38Z</time>
      </trkpt>
      <trkpt lat="46.19224" lon="-1.40399">
        <ele>2.7</ele>
        <time>2020-05-31T23:11:39Z</time>
      </trkpt>
      <trkpt lat="46.19229" lon="-1.40404">
        <ele>2.7</ele>
        <time>2020-05-31T23:11:40Z</time>
      </trkpt>
      <trkpt lat="46.19233" lon="-1.40411">
        <ele>2.7</ele>
        <time>2020-05-31T23:11:41Z</time>
      </trkpt>
      <trkpt lat="46.19238" lon="-1.40417">
        <ele>2.7</ele>
        <time>2020-05-31T23:11:42Z</time>
      </trkpt>
      <trkpt lat="46.19242" lon="-1.40423">
        <ele>2.7</ele>
        <time>2020-05-31T23:11:43Z</time>
      </trkpt>
      <trkpt lat="46.19247" lon="-1.40429">
        <ele>2.7</ele>
        <time>2020-05-31T23:11:44Z</time>
      </trkpt>
      <trkpt lat="46.19252" lon="-1.40434">
        <ele>2.7</ele>
        <time>2020-05-31T23:11:45Z</time>
      </trkpt>
      <trkpt lat="46.19257" lon="-1.40438">
        <ele>2.6</ele>
        <time>2020-05-31T23:11:46Z</time>
      </trkpt>
      <trkpt lat="46.19261" lon="-1.40443">
        <ele>2.6</ele>
        <time>2020-05-31T23:11:47Z</time>
      </trkpt>
      <trkpt lat="46.19265" lon="-1.40447">
        <ele>2.6</ele>
        <time>2020-05-31T23:11:48Z</time>
      </trkpt>
      <trkpt lat="46.19269" lon="-1.40451">
        <ele>2.6</ele>
        <time>2020-05-31T23:11:49Z</time>
      </trkpt>
      <trkpt lat="46.19273" lon="-1.40458">
        <ele>2.6</ele>
        <time>2020-05-31T23:11:50Z</time>
      </trkpt>
      <trkpt lat="46.19275" lon="-1.40465">
        <ele>2.6</ele>
        <time>2020-05-31T23:11:51Z</time>
      </trkpt>
      <trkpt lat="46.19277" lon="-1.40474">
        <ele>2.5</ele>
        <time>2020-05-31T23:11:52Z</time>
      </trkpt>
      <trkpt lat="46.19279" lon="-1.40482">
        <ele>2.5</ele>
        <time>2020-05-31T23:11:53Z</time>
      </trkpt>
      <trkpt lat="46.19281" lon="-1.40491">
        <ele>2.5</ele>
        <time>2020-05-31T23:11:54Z</time>
      </trkpt>
      <trkpt lat="46.19282" lon="-1.40499">
        <ele>2.5</ele>
        <time>2020-05-31T23:11:55Z</time>
      </trkpt>
      <trkpt lat="46.19284" lon="-1.40507">
        <ele>2.4</ele>
        <time>2020-05-31T23:11:56Z</time>
      </trkpt>
      <trkpt lat="46.19286" lon="-1.40515">
        <ele>2.4</ele>
        <time>2020-05-31T23:11:57Z</time>
      </trkpt>
      <trkpt lat="46.19288" lon="-1.40522">
        <ele>2.4</ele>
        <time>2020-05-31T23:11:58Z</time>
      </trkpt>
      <trkpt lat="46.1929" lon="-1.4053">
        <ele>2.4</ele>
        <time>2020-05-31T23:11:59Z</time>
      </trkpt>
      <trkpt lat="46.19292" lon="-1.40537">
        <ele>2.4</ele>
        <time>2020-05-31T23:12:00Z</time>
      </trkpt>
      <trkpt lat="46.19294" lon="-1.40545">
        <ele>2.3</ele>
        <time>2020-05-31T23:12:01Z</time>
      </trkpt>
      <trkpt lat="46.19296" lon="-1.40552">
        <ele>2.3</ele>
        <time>2020-05-31T23:12:02Z</time>
      </trkpt>
      <trkpt lat="46.19298" lon="-1.40558">
        <ele>2.2</ele>
        <time>2020-05-31T23:12:03Z</time>
      </trkpt>
      <trkpt lat="46.193" lon="-1.40563">
        <ele>2.2</ele>
        <time>2020-05-31T23:12:04Z</time>
      </trkpt>
      <trkpt lat="46.19301" lon="-1.40569">
        <ele>2.1</ele>
        <time>2020-05-31T23:12:05Z</time>
      </trkpt>
      <trkpt lat="46.19302" lon="-1.40575">
        <ele>2</ele>
        <time>2020-05-31T23:12:06Z</time>
      </trkpt>
      <trkpt lat="46.19304" lon="-1.40582">
        <ele>2</ele>
        <time>2020-05-31T23:12:07Z</time>
      </trkpt>
      <trkpt lat="46.19305" lon="-1.40588">
        <ele>1.9</ele>
        <time>2020-05-31T23:12:08Z</time>
      </trkpt>
      <trkpt lat="46.19308" lon="-1.40595">
        <ele>1.9</ele>
        <time>2020-05-31T23:12:09Z</time>
      </trkpt>
      <trkpt lat="46.1931" lon="-1.40602">
        <ele>1.9</ele>
        <time>2020-05-31T23:12:10Z</time>
      </trkpt>
      <trkpt lat="46.19312" lon="-1.4061">
        <ele>1.8</ele>
        <time>2020-05-31T23:12:11Z</time>
      </trkpt>
      <trkpt lat="46.19314" lon="-1.40617">
        <ele>1.8</ele>
        <time>2020-05-31T23:12:12Z</time>
      </trkpt>
      <trkpt lat="46.19316" lon="-1.40624">
        <ele>1.8</ele>
        <time>2020-05-31T23:12:13Z</time>
      </trkpt>
      <trkpt lat="46.19317" lon="-1.40631">
        <ele>1.8</ele>
        <time>2020-05-31T23:12:14Z</time>
      </trkpt>
      <trkpt lat="46.19318" lon="-1.40636">
        <ele>1.8</ele>
        <time>2020-05-31T23:12:15Z</time>
      </trkpt>
      <trkpt lat="46.19319" lon="-1.40644">
        <ele>1.8</ele>
        <time>2020-05-31T23:12:16Z</time>
      </trkpt>
      <trkpt lat="46.1932" lon="-1.40651">
        <ele>1.7</ele>
        <time>2020-05-31T23:12:17Z</time>
      </trkpt>
      <trkpt lat="46.1932" lon="-1.40657">
        <ele>1.7</ele>
        <time>2020-05-31T23:12:18Z</time>
      </trkpt>
      <trkpt lat="46.19321" lon="-1.40664">
        <ele>1.6</ele>
        <time>2020-05-31T23:12:19Z</time>
      </trkpt>
      <trkpt lat="46.19323" lon="-1.40671">
        <ele>1.6</ele>
        <time>2020-05-31T23:12:20Z</time>
      </trkpt>
      <trkpt lat="46.19325" lon="-1.40679">
        <ele>1.5</ele>
        <time>2020-05-31T23:12:21Z</time>
      </trkpt>
      <trkpt lat="46.19327" lon="-1.40685">
        <ele>1.5</ele>
        <time>2020-05-31T23:12:22Z</time>
      </trkpt>
      <trkpt lat="46.1933" lon="-1.40695">
        <ele>1.4</ele>
        <time>2020-05-31T23:12:23Z</time>
      </trkpt>
      <trkpt lat="46.19332" lon="-1.40704">
        <ele>1.3</ele>
        <time>2020-05-31T23:12:24Z</time>
      </trkpt>
      <trkpt lat="46.19334" lon="-1.40709">
        <ele>1.3</ele>
        <time>2020-05-31T23:12:25Z</time>
      </trkpt>
      <trkpt lat="46.19336" lon="-1.40719">
        <ele>1.2</ele>
        <time>2020-05-31T23:12:26Z</time>
      </trkpt>
      <trkpt lat="46.19338" lon="-1.40725">
        <ele>1.2</ele>
        <time>2020-05-31T23:12:27Z</time>
      </trkpt>
      <trkpt lat="46.19339" lon="-1.40733">
        <ele>1.1</ele>
        <time>2020-05-31T23:12:28Z</time>
      </trkpt>
      <trkpt lat="46.19341" lon="-1.4074">
        <ele>1.1</ele>
        <time>2020-05-31T23:12:29Z</time>
      </trkpt>
      <trkpt lat="46.19343" lon="-1.40746">
        <ele>1</ele>
        <time>2020-05-31T23:12:30Z</time>
      </trkpt>
      <trkpt lat="46.19345" lon="-1.40753">
        <ele>1</ele>
        <time>2020-05-31T23:12:31Z</time>
      </trkpt>
      <trkpt lat="46.19346" lon="-1.40761">
        <ele>1</ele>
        <time>2020-05-31T23:12:32Z</time>
      </trkpt>
      <trkpt lat="46.19348" lon="-1.40769">
        <ele>1</ele>
        <time>2020-05-31T23:12:33Z</time>
      </trkpt>
      <trkpt lat="46.1935" lon="-1.40776">
        <ele>1</ele>
        <time>2020-05-31T23:12:34Z</time>
      </trkpt>
      <trkpt lat="46.19352" lon="-1.40783">
        <ele>0.9</ele>
        <time>2020-05-31T23:12:35Z</time>
      </trkpt>
      <trkpt lat="46.19355" lon="-1.40789">
        <ele>0.9</ele>
        <time>2020-05-31T23:12:36Z</time>
      </trkpt>
      <trkpt lat="46.19356" lon="-1.40796">
        <ele>0.9</ele>
        <time>2020-05-31T23:12:37Z</time>
      </trkpt>
      <trkpt lat="46.19358" lon="-1.40802">
        <ele>0.9</ele>
        <time>2020-05-31T23:12:38Z</time>
      </trkpt>
      <trkpt lat="46.19359" lon="-1.40809">
        <ele>0.9</ele>
        <time>2020-05-31T23:12:39Z</time>
      </trkpt>
      <trkpt lat="46.19361" lon="-1.40817">
        <ele>0.9</ele>
        <time>2020-05-31T23:12:40Z</time>
      </trkpt>
      <trkpt lat="46.19363" lon="-1.40825">
        <ele>0.9</ele>
        <time>2020-05-31T23:12:41Z</time>
      </trkpt>
      <trkpt lat="46.19364" lon="-1.40833">
        <ele>0.9</ele>
        <time>2020-05-31T23:12:42Z</time>
      </trkpt>
      <trkpt lat="46.19365" lon="-1.4084">
        <ele>0.9</ele>
        <time>2020-05-31T23:12:43Z</time>
      </trkpt>
      <trkpt lat="46.19367" lon="-1.40847">
        <ele>0.9</ele>
        <time>2020-05-31T23:12:44Z</time>
      </trkpt>
      <trkpt lat="46.19369" lon="-1.40854">
        <ele>0.9</ele>
        <time>2020-05-31T23:12:45Z</time>
      </trkpt>
      <trkpt lat="46.19371" lon="-1.40861">
        <ele>0.8</ele>
        <time>2020-05-31T23:12:46Z</time>
      </trkpt>
      <trkpt lat="46.19372" lon="-1.40867">
        <ele>0.8</ele>
        <time>2020-05-31T23:12:47Z</time>
      </trkpt>
      <trkpt lat="46.19374" lon="-1.40874">
        <ele>0.8</ele>
        <time>2020-05-31T23:12:48Z</time>
      </trkpt>
      <trkpt lat="46.19375" lon="-1.40881">
        <ele>0.8</ele>
        <time>2020-05-31T23:12:49Z</time>
      </trkpt>
      <trkpt lat="46.19377" lon="-1.40888">
        <ele>0.8</ele>
        <time>2020-05-31T23:12:50Z</time>
      </trkpt>
      <trkpt lat="46.19379" lon="-1.40895">
        <ele>0.8</ele>
        <time>2020-05-31T23:12:51Z</time>
      </trkpt>
      <trkpt lat="46.1938" lon="-1.40903">
        <ele>0.8</ele>
        <time>2020-05-31T23:12:52Z</time>
      </trkpt>
      <trkpt lat="46.19382" lon="-1.40911">
        <ele>0.8</ele>
        <time>2020-05-31T23:12:53Z</time>
      </trkpt>
      <trkpt lat="46.19385" lon="-1.40919">
        <ele>0.8</ele>
        <time>2020-05-31T23:12:54Z</time>
      </trkpt>
      <trkpt lat="46.19386" lon="-1.40927">
        <ele>0.8</ele>
        <time>2020-05-31T23:12:55Z</time>
      </trkpt>
      <trkpt lat="46.19389" lon="-1.40935">
        <ele>0.8</ele>
        <time>2020-05-31T23:12:56Z</time>
      </trkpt>
      <trkpt lat="46.19391" lon="-1.40943">
        <ele>0.8</ele>
        <time>2020-05-31T23:12:57Z</time>
      </trkpt>
      <trkpt lat="46.19393" lon="-1.40951">
        <ele>0.8</ele>
        <time>2020-05-31T23:12:58Z</time>
      </trkpt>
      <trkpt lat="46.19395" lon="-1.40958">
        <ele>0.8</ele>
        <time>2020-05-31T23:12:59Z</time>
      </trkpt>
      <trkpt lat="46.19397" lon="-1.40965">
        <ele>0.7</ele>
        <time>2020-05-31T23:13:00Z</time>
      </trkpt>
      <trkpt lat="46.19398" lon="-1.40973">
        <ele>0.7</ele>
        <time>2020-05-31T23:13:01Z</time>
      </trkpt>
      <trkpt lat="46.19399" lon="-1.40982">
        <ele>0.7</ele>
        <time>2020-05-31T23:13:02Z</time>
      </trkpt>
      <trkpt lat="46.19401" lon="-1.4099">
        <ele>0.7</ele>
        <time>2020-05-31T23:13:03Z</time>
      </trkpt>
      <trkpt lat="46.19403" lon="-1.40997">
        <ele>0.7</ele>
        <time>2020-05-31T23:13:04Z</time>
      </trkpt>
      <trkpt lat="46.19404" lon="-1.41006">
        <ele>0.7</ele>
        <time>2020-05-31T23:13:05Z</time>
      </trkpt>
      <trkpt lat="46.19406" lon="-1.41013">
        <ele>0.7</ele>
        <time>2020-05-31T23:13:06Z</time>
      </trkpt>
      <trkpt lat="46.19408" lon="-1.41021">
        <ele>0.7</ele>
        <time>2020-05-31T23:13:07Z</time>
      </trkpt>
      <trkpt lat="46.1941" lon="-1.41027">
        <ele>0.7</ele>
        <time>2020-05-31T23:13:08Z</time>
      </trkpt>
      <trkpt lat="46.19412" lon="-1.41035">
        <ele>0.7</ele>
        <time>2020-05-31T23:13:09Z</time>
      </trkpt>
      <trkpt lat="46.19413" lon="-1.41041">
        <ele>0.7</ele>
        <time>2020-05-31T23:13:10Z</time>
      </trkpt>
      <trkpt lat="46.19414" lon="-1.41046">
        <ele>0.7</ele>
        <time>2020-05-31T23:13:11Z</time>
      </trkpt>
      <trkpt lat="46.19415" lon="-1.41055">
        <ele>0.7</ele>
        <time>2020-05-31T23:13:12Z</time>
      </trkpt>
      <trkpt lat="46.19415" lon="-1.41061">
        <ele>0.7</ele>
        <time>2020-05-31T23:13:13Z</time>
      </trkpt>
      <trkpt lat="46.19416" lon="-1.41068">
        <ele>0.7</ele>
        <time>2020-05-31T23:13:14Z</time>
      </trkpt>
      <trkpt lat="46.19415" lon="-1.41076">
        <ele>0.7</ele>
        <time>2020-05-31T23:13:15Z</time>
      </trkpt>
      <trkpt lat="46.19412" lon="-1.41084">
        <ele>0.7</ele>
        <time>2020-05-31T23:13:16Z</time>
      </trkpt>
      <trkpt lat="46.1941" lon="-1.41092">
        <ele>0.7</ele>
        <time>2020-05-31T23:13:17Z</time>
      </trkpt>
      <trkpt lat="46.19408" lon="-1.411">
        <ele>0.7</ele>
        <time>2020-05-31T23:13:18Z</time>
      </trkpt>
      <trkpt lat="46.19405" lon="-1.41109">
        <ele>0.7</ele>
        <time>2020-05-31T23:13:19Z</time>
      </trkpt>
      <trkpt lat="46.19404" lon="-1.41113">
        <ele>0.7</ele>
        <time>2020-05-31T23:13:20Z</time>
      </trkpt>
      <trkpt lat="46.19402" lon="-1.4112">
        <ele>0.7</ele>
        <time>2020-05-31T23:13:21Z</time>
      </trkpt>
      <trkpt lat="46.194" lon="-1.41127">
        <ele>0.7</ele>
        <time>2020-05-31T23:13:22Z</time>
      </trkpt>
      <trkpt lat="46.19398" lon="-1.41133">
        <ele>0.7</ele>
        <time>2020-05-31T23:13:23Z</time>
      </trkpt>
      <trkpt lat="46.19396" lon="-1.41141">
        <ele>0.7</ele>
        <time>2020-05-31T23:13:24Z</time>
      </trkpt>
      <trkpt lat="46.19394" lon="-1.41145">
        <ele>0.7</ele>
        <time>2020-05-31T23:13:25Z</time>
      </trkpt>
      <trkpt lat="46.19392" lon="-1.4115">
        <ele>0.7</ele>
        <time>2020-05-31T23:13:26Z</time>
      </trkpt>
      <trkpt lat="46.1939" lon="-1.41154">
        <ele>0.7</ele>
        <time>2020-05-31T23:13:27Z</time>
      </trkpt>
      <trkpt lat="46.19389" lon="-1.41159">
        <ele>0.7</ele>
        <time>2020-05-31T23:13:28Z</time>
      </trkpt>
      <trkpt lat="46.19388" lon="-1.41162">
        <ele>0.7</ele>
        <time>2020-05-31T23:13:29Z</time>
      </trkpt>
      <trkpt lat="46.19387" lon="-1.41167">
        <ele>0.7</ele>
        <time>2020-05-31T23:13:30Z</time>
      </trkpt>
      <trkpt lat="46.19385" lon="-1.41172">
        <ele>0.7</ele>
        <time>2020-05-31T23:13:31Z</time>
      </trkpt>
      <trkpt lat="46.19385" lon="-1.41174">
        <ele>0.7</ele>
        <time>2020-05-31T23:13:32Z</time>
      </trkpt>
      <trkpt lat="46.19385" lon="-1.41176">
        <ele>0.7</ele>
        <time>2020-05-31T23:13:33Z</time>
      </trkpt>
      <trkpt lat="46.19385" lon="-1.41176">
        <ele>0.7</ele>
        <time>2020-05-31T23:13:34Z</time>
      </trkpt>
      <trkpt lat="46.19385" lon="-1.41176">
        <ele>0.7</ele>
        <time>2020-05-31T23:13:35Z</time>
      </trkpt>
      <trkpt lat="46.19386" lon="-1.41174">
        <ele>0.7</ele>
        <time>2020-05-31T23:13:36Z</time>
      </trkpt>
      <trkpt lat="46.19386" lon="-1.41173">
        <ele>0.7</ele>
        <time>2020-05-31T23:13:37Z</time>
      </trkpt>
      <trkpt lat="46.19386" lon="-1.41172">
        <ele>0.7</ele>
        <time>2020-05-31T23:13:38Z</time>
      </trkpt>
      <trkpt lat="46.19386" lon="-1.41171">
        <ele>0.7</ele>
        <time>2020-05-31T23:13:39Z</time>
      </trkpt>
      <trkpt lat="46.19386" lon="-1.4117">
        <ele>0.7</ele>
        <time>2020-05-31T23:13:40Z</time>
      </trkpt>
      <trkpt lat="46.19387" lon="-1.4117">
        <ele>0.7</ele>
        <time>2020-05-31T23:13:41Z</time>
      </trkpt>
      <trkpt lat="46.19387" lon="-1.4117">
        <ele>0.7</ele>
        <time>2020-05-31T23:13:42Z</time>
      </trkpt>
      <trkpt lat="46.19387" lon="-1.41171">
        <ele>0.7</ele>
        <time>2020-05-31T23:13:43Z</time>
      </trkpt>
      <trkpt lat="46.19387" lon="-1.41171">
        <ele>0.7</ele>
        <time>2020-05-31T23:13:44Z</time>
      </trkpt>
      <trkpt lat="46.19387" lon="-1.41171">
        <ele>0.7</ele>
        <time>2020-05-31T23:13:45Z</time>
      </trkpt>
      <trkpt lat="46.19387" lon="-1.41171">
        <ele>0.7</ele>
        <time>2020-05-31T23:13:46Z</time>
      </trkpt>
      <trkpt lat="46.19387" lon="-1.41171">
        <ele>0.7</ele>
        <time>2020-05-31T23:13:47Z</time>
      </trkpt>
      <trkpt lat="46.19387" lon="-1.41171">
        <ele>0.7</ele>
        <time>2020-05-31T23:13:48Z</time>
      </trkpt>
      <trkpt lat="46.19387" lon="-1.41172">
        <ele>0.7</ele>
        <time>2020-05-31T23:13:49Z</time>
      </trkpt>
      <trkpt lat="46.19387" lon="-1.41172">
        <ele>0.7</ele>
        <time>2020-05-31T23:13:50Z</time>
      </trkpt>
      <trkpt lat="46.19387" lon="-1.41172">
        <ele>0.7</ele>
        <time>2020-05-31T23:13:51Z</time>
      </trkpt>
      <trkpt lat="46.19387" lon="-1.41172">
        <ele>0.7</ele>
        <time>2020-05-31T23:13:52Z</time>
      </trkpt>
      <trkpt lat="46.19387" lon="-1.41172">
        <ele>0.7</ele>
        <time>2020-05-31T23:13:53Z</time>
      </trkpt>
      <trkpt lat="46.19387" lon="-1.41172">
        <ele>0.7</ele>
        <time>2020-05-31T23:13:54Z</time>
      </trkpt>
      <trkpt lat="46.19387" lon="-1.41173">
        <ele>0.7</ele>
        <time>2020-05-31T23:13:55Z</time>
      </trkpt>
      <trkpt lat="46.19387" lon="-1.41173">
        <ele>0.7</ele>
        <time>2020-05-31T23:13:56Z</time>
      </trkpt>
      <trkpt lat="46.19387" lon="-1.41173">
        <ele>0.7</ele>
        <time>2020-05-31T23:13:57Z</time>
      </trkpt>
      <trkpt lat="46.19387" lon="-1.41173">
        <ele>0.7</ele>
        <time>2020-05-31T23:13:58Z</time>
      </trkpt>
      <trkpt lat="46.19387" lon="-1.41173">
        <ele>0.7</ele>
        <time>2020-05-31T23:13:59Z</time>
      </trkpt>
      <trkpt lat="46.19387" lon="-1.41173">
        <ele>0.7</ele>
        <time>2020-05-31T23:14:00Z</time>
      </trkpt>
      <trkpt lat="46.19387" lon="-1.41174">
        <ele>0.7</ele>
        <time>2020-05-31T23:14:01Z</time>
      </trkpt>
      <trkpt lat="46.19387" lon="-1.41174">
        <ele>0.7</ele>
        <time>2020-05-31T23:14:02Z</time>
      </trkpt>
      <trkpt lat="46.19387" lon="-1.41174">
        <ele>0.7</ele>
        <time>2020-05-31T23:14:03Z</time>
      </trkpt>
      <trkpt lat="46.19387" lon="-1.41174">
        <ele>0.7</ele>
        <time>2020-05-31T23:14:04Z</time>
      </trkpt>
      <trkpt lat="46.19387" lon="-1.41174">
        <ele>0.7</ele>
        <time>2020-05-31T23:14:05Z</time>
      </trkpt>
      <trkpt lat="46.19387" lon="-1.41174">
        <ele>0.7</ele>
        <time>2020-05-31T23:14:06Z</time>
      </trkpt>
      <trkpt lat="46.19387" lon="-1.41175">
        <ele>0.7</ele>
        <time>2020-05-31T23:14:07Z</time>
      </trkpt>
      <trkpt lat="46.19387" lon="-1.41175">
        <ele>0.7</ele>
        <time>2020-05-31T23:14:08Z</time>
      </trkpt>
      <trkpt lat="46.19387" lon="-1.41175">
        <ele>0.7</ele>
        <time>2020-05-31T23:14:09Z</time>
      </trkpt>
      <trkpt lat="46.19387" lon="-1.41175">
        <ele>0.7</ele>
        <time>2020-05-31T23:14:10Z</time>
      </trkpt>
      <trkpt lat="46.19387" lon="-1.41175">
        <ele>0.7</ele>
        <time>2020-05-31T23:14:11Z</time>
      </trkpt>
      <trkpt lat="46.19387" lon="-1.41175">
        <ele>0.7</ele>
        <time>2020-05-31T23:14:12Z</time>
      </trkpt>
      <trkpt lat="46.19387" lon="-1.41176">
        <ele>0.7</ele>
        <time>2020-05-31T23:14:13Z</time>
      </trkpt>
      <trkpt lat="46.19387" lon="-1.41176">
        <ele>0.7</ele>
        <time>2020-05-31T23:14:14Z</time>
      </trkpt>
      <trkpt lat="46.19387" lon="-1.41176">
        <ele>0.7</ele>
        <time>2020-05-31T23:14:15Z</time>
      </trkpt>
      <trkpt lat="46.19387" lon="-1.4118">
        <ele>0.7</ele>
        <time>2020-05-31T23:14:16Z</time>
      </trkpt>
      <trkpt lat="46.19386" lon="-1.41186">
        <ele>0.7</ele>
        <time>2020-05-31T23:14:17Z</time>
      </trkpt>
      <trkpt lat="46.19385" lon="-1.41192">
        <ele>0.7</ele>
        <time>2020-05-31T23:14:18Z</time>
      </trkpt>
      <trkpt lat="46.19385" lon="-1.41197">
        <ele>0.7</ele>
        <time>2020-05-31T23:14:19Z</time>
      </trkpt>
      <trkpt lat="46.19384" lon="-1.41201">
        <ele>0.7</ele>
        <time>2020-05-31T23:14:20Z</time>
      </trkpt>
      <trkpt lat="46.19383" lon="-1.41206">
        <ele>0.7</ele>
        <time>2020-05-31T23:14:21Z</time>
      </trkpt>
      <trkpt lat="46.19382" lon="-1.41211">
        <ele>0.8</ele>
        <time>2020-05-31T23:14:22Z</time>
      </trkpt>
      <trkpt lat="46.19382" lon="-1.41218">
        <ele>0.8</ele>
        <time>2020-05-31T23:14:23Z</time>
      </trkpt>
      <trkpt lat="46.19381" lon="-1.41225">
        <ele>0.8</ele>
        <time>2020-05-31T23:14:24Z</time>
      </trkpt>
      <trkpt lat="46.1938" lon="-1.41232">
        <ele>0.8</ele>
        <time>2020-05-31T23:14:25Z</time>
      </trkpt>
      <trkpt lat="46.19379" lon="-1.41239">
        <ele>0.8</ele>
        <time>2020-05-31T23:14:26Z</time>
      </trkpt>
      <trkpt lat="46.19378" lon="-1.41245">
        <ele>0.8</ele>
        <time>2020-05-31T23:14:27Z</time>
      </trkpt>
      <trkpt lat="46.19378" lon="-1.41252">
        <ele>0.8</ele>
        <time>2020-05-31T23:14:28Z</time>
      </trkpt>
      <trkpt lat="46.19376" lon="-1.41258">
        <ele>0.8</ele>
        <time>2020-05-31T23:14:29Z</time>
      </trkpt>
      <trkpt lat="46.19374" lon="-1.41266">
        <ele>0.8</ele>
        <time>2020-05-31T23:14:30Z</time>
      </trkpt>
      <trkpt lat="46.19373" lon="-1.41273">
        <ele>0.8</ele>
        <time>2020-05-31T23:14:31Z</time>
      </trkpt>
      <trkpt lat="46.1937" lon="-1.41281">
        <ele>0.8</ele>
        <time>2020-05-31T23:14:32Z</time>
      </trkpt>
      <trkpt lat="46.19368" lon="-1.41288">
        <ele>0.8</ele>
        <time>2020-05-31T23:14:33Z</time>
      </trkpt>
      <trkpt lat="46.19366" lon="-1.41295">
        <ele>0.8</ele>
        <time>2020-05-31T23:14:34Z</time>
      </trkpt>
      <trkpt lat="46.19363" lon="-1.41302">
        <ele>0.8</ele>
        <time>2020-05-31T23:14:35Z</time>
      </trkpt>
      <trkpt lat="46.1936" lon="-1.4131">
        <ele>0.8</ele>
        <time>2020-05-31T23:14:36Z</time>
      </trkpt>
      <trkpt lat="46.19357" lon="-1.41317">
        <ele>0.8</ele>
        <time>2020-05-31T23:14:37Z</time>
      </trkpt>
      <trkpt lat="46.19353" lon="-1.41325">
        <ele>0.8</ele>
        <time>2020-05-31T23:14:38Z</time>
      </trkpt>
      <trkpt lat="46.19349" lon="-1.41332">
        <ele>0.9</ele>
        <time>2020-05-31T23:14:39Z</time>
      </trkpt>
      <trkpt lat="46.19346" lon="-1.4134">
        <ele>0.9</ele>
        <time>2020-05-31T23:14:40Z</time>
      </trkpt>
      <trkpt lat="46.19343" lon="-1.41347">
        <ele>0.9</ele>
        <time>2020-05-31T23:14:41Z</time>
      </trkpt>
      <trkpt lat="46.1934" lon="-1.41355">
        <ele>0.9</ele>
        <time>2020-05-31T23:14:42Z</time>
      </trkpt>
      <trkpt lat="46.19337" lon="-1.41362">
        <ele>0.9</ele>
        <time>2020-05-31T23:14:43Z</time>
      </trkpt>
      <trkpt lat="46.19335" lon="-1.41371">
        <ele>0.9</ele>
        <time>2020-05-31T23:14:44Z</time>
      </trkpt>
      <trkpt lat="46.19335" lon="-1.4138">
        <ele>0.9</ele>
        <time>2020-05-31T23:14:45Z</time>
      </trkpt>
      <trkpt lat="46.19335" lon="-1.41389">
        <ele>1</ele>
        <time>2020-05-31T23:14:46Z</time>
      </trkpt>
      <trkpt lat="46.19335" lon="-1.41399">
        <ele>1</ele>
        <time>2020-05-31T23:14:47Z</time>
      </trkpt>
      <trkpt lat="46.19336" lon="-1.41408">
        <ele>1</ele>
        <time>2020-05-31T23:14:48Z</time>
      </trkpt>
      <trkpt lat="46.19337" lon="-1.41417">
        <ele>1</ele>
        <time>2020-05-31T23:14:49Z</time>
      </trkpt>
      <trkpt lat="46.19339" lon="-1.41425">
        <ele>1.1</ele>
        <time>2020-05-31T23:14:50Z</time>
      </trkpt>
      <trkpt lat="46.19341" lon="-1.41434">
        <ele>1.1</ele>
        <time>2020-05-31T23:14:51Z</time>
      </trkpt>
      <trkpt lat="46.19343" lon="-1.41443">
        <ele>1.1</ele>
        <time>2020-05-31T23:14:52Z</time>
      </trkpt>
      <trkpt lat="46.19346" lon="-1.41452">
        <ele>1.2</ele>
        <time>2020-05-31T23:14:53Z</time>
      </trkpt>
      <trkpt lat="46.19349" lon="-1.41462">
        <ele>1.2</ele>
        <time>2020-05-31T23:14:54Z</time>
      </trkpt>
      <trkpt lat="46.19352" lon="-1.41471">
        <ele>1.2</ele>
        <time>2020-05-31T23:14:55Z</time>
      </trkpt>
      <trkpt lat="46.19354" lon="-1.4148">
        <ele>1.3</ele>
        <time>2020-05-31T23:14:56Z</time>
      </trkpt>
      <trkpt lat="46.19357" lon="-1.41489">
        <ele>1.3</ele>
        <time>2020-05-31T23:14:57Z</time>
      </trkpt>
      <trkpt lat="46.19359" lon="-1.41498">
        <ele>1.4</ele>
        <time>2020-05-31T23:14:58Z</time>
      </trkpt>
      <trkpt lat="46.19362" lon="-1.41507">
        <ele>1.4</ele>
        <time>2020-05-31T23:14:59Z</time>
      </trkpt>
      <trkpt lat="46.19363" lon="-1.41516">
        <ele>1.5</ele>
        <time>2020-05-31T23:15:00Z</time>
      </trkpt>
      <trkpt lat="46.19365" lon="-1.41525">
        <ele>1.5</ele>
        <time>2020-05-31T23:15:01Z</time>
      </trkpt>
      <trkpt lat="46.19366" lon="-1.41535">
        <ele>1.6</ele>
        <time>2020-05-31T23:15:02Z</time>
      </trkpt>
      <trkpt lat="46.19367" lon="-1.41545">
        <ele>1.6</ele>
        <time>2020-05-31T23:15:03Z</time>
      </trkpt>
      <trkpt lat="46.19368" lon="-1.41554">
        <ele>1.6</ele>
        <time>2020-05-31T23:15:04Z</time>
      </trkpt>
      <trkpt lat="46.19369" lon="-1.41563">
        <ele>1.7</ele>
        <time>2020-05-31T23:15:05Z</time>
      </trkpt>
      <trkpt lat="46.19369" lon="-1.41571">
        <ele>1.7</ele>
        <time>2020-05-31T23:15:06Z</time>
      </trkpt>
      <trkpt lat="46.1937" lon="-1.4158">
        <ele>1.7</ele>
        <time>2020-05-31T23:15:07Z</time>
      </trkpt>
      <trkpt lat="46.19371" lon="-1.41589">
        <ele>1.8</ele>
        <time>2020-05-31T23:15:08Z</time>
      </trkpt>
      <trkpt lat="46.19371" lon="-1.41598">
        <ele>1.8</ele>
        <time>2020-05-31T23:15:09Z</time>
      </trkpt>
      <trkpt lat="46.19372" lon="-1.41607">
        <ele>1.8</ele>
        <time>2020-05-31T23:15:10Z</time>
      </trkpt>
      <trkpt lat="46.19373" lon="-1.41616">
        <ele>1.9</ele>
        <time>2020-05-31T23:15:11Z</time>
      </trkpt>
      <trkpt lat="46.19374" lon="-1.41624">
        <ele>1.9</ele>
        <time>2020-05-31T23:15:12Z</time>
      </trkpt>
      <trkpt lat="46.19376" lon="-1.41632">
        <ele>1.9</ele>
        <time>2020-05-31T23:15:13Z</time>
      </trkpt>
      <trkpt lat="46.19377" lon="-1.41641">
        <ele>1.9</ele>
        <time>2020-05-31T23:15:14Z</time>
      </trkpt>
      <trkpt lat="46.19379" lon="-1.41649">
        <ele>2</ele>
        <time>2020-05-31T23:15:15Z</time>
      </trkpt>
      <trkpt lat="46.19382" lon="-1.41657">
        <ele>2</ele>
        <time>2020-05-31T23:15:16Z</time>
      </trkpt>
      <trkpt lat="46.19384" lon="-1.41665">
        <ele>2</ele>
        <time>2020-05-31T23:15:17Z</time>
      </trkpt>
      <trkpt lat="46.19387" lon="-1.41673">
        <ele>2.1</ele>
        <time>2020-05-31T23:15:18Z</time>
      </trkpt>
      <trkpt lat="46.1939" lon="-1.4168">
        <ele>2.1</ele>
        <time>2020-05-31T23:15:19Z</time>
      </trkpt>
      <trkpt lat="46.19394" lon="-1.41688">
        <ele>2.1</ele>
        <time>2020-05-31T23:15:20Z</time>
      </trkpt>
      <trkpt lat="46.19397" lon="-1.41695">
        <ele>2.2</ele>
        <time>2020-05-31T23:15:21Z</time>
      </trkpt>
      <trkpt lat="46.19401" lon="-1.41702">
        <ele>2.2</ele>
        <time>2020-05-31T23:15:22Z</time>
      </trkpt>
      <trkpt lat="46.19404" lon="-1.41709">
        <ele>2.2</ele>
        <time>2020-05-31T23:15:23Z</time>
      </trkpt>
      <trkpt lat="46.19407" lon="-1.41716">
        <ele>2.2</ele>
        <time>2020-05-31T23:15:24Z</time>
      </trkpt>
      <trkpt lat="46.1941" lon="-1.41723">
        <ele>2.3</ele>
        <time>2020-05-31T23:15:25Z</time>
      </trkpt>
      <trkpt lat="46.19411" lon="-1.41731">
        <ele>2.3</ele>
        <time>2020-05-31T23:15:26Z</time>
      </trkpt>
      <trkpt lat="46.19413" lon="-1.41739">
        <ele>2.3</ele>
        <time>2020-05-31T23:15:27Z</time>
      </trkpt>
      <trkpt lat="46.19414" lon="-1.41747">
        <ele>2.3</ele>
        <time>2020-05-31T23:15:28Z</time>
      </trkpt>
      <trkpt lat="46.19415" lon="-1.41755">
        <ele>2.3</ele>
        <time>2020-05-31T23:15:29Z</time>
      </trkpt>
      <trkpt lat="46.19416" lon="-1.41763">
        <ele>2.4</ele>
        <time>2020-05-31T23:15:30Z</time>
      </trkpt>
      <trkpt lat="46.19417" lon="-1.41771">
        <ele>2.4</ele>
        <time>2020-05-31T23:15:31Z</time>
      </trkpt>
      <trkpt lat="46.19418" lon="-1.4178">
        <ele>2.4</ele>
        <time>2020-05-31T23:15:32Z</time>
      </trkpt>
      <trkpt lat="46.19419" lon="-1.41788">
        <ele>2.4</ele>
        <time>2020-05-31T23:15:33Z</time>
      </trkpt>
      <trkpt lat="46.1942" lon="-1.41796">
        <ele>2.4</ele>
        <time>2020-05-31T23:15:34Z</time>
      </trkpt>
      <trkpt lat="46.19421" lon="-1.41804">
        <ele>2.5</ele>
        <time>2020-05-31T23:15:35Z</time>
      </trkpt>
      <trkpt lat="46.19419" lon="-1.41812">
        <ele>2.5</ele>
        <time>2020-05-31T23:15:36Z</time>
      </trkpt>
      <trkpt lat="46.19419" lon="-1.4182">
        <ele>2.5</ele>
        <time>2020-05-31T23:15:37Z</time>
      </trkpt>
      <trkpt lat="46.19418" lon="-1.41828">
        <ele>2.5</ele>
        <time>2020-05-31T23:15:38Z</time>
      </trkpt>
      <trkpt lat="46.19417" lon="-1.41836">
        <ele>2.6</ele>
        <time>2020-05-31T23:15:39Z</time>
      </trkpt>
      <trkpt lat="46.19416" lon="-1.41843">
        <ele>2.6</ele>
        <time>2020-05-31T23:15:40Z</time>
      </trkpt>
      <trkpt lat="46.19414" lon="-1.4185">
        <ele>2.6</ele>
        <time>2020-05-31T23:15:41Z</time>
      </trkpt>
      <trkpt lat="46.19412" lon="-1.41856">
        <ele>2.6</ele>
        <time>2020-05-31T23:15:42Z</time>
      </trkpt>
      <trkpt lat="46.19409" lon="-1.41862">
        <ele>2.6</ele>
        <time>2020-05-31T23:15:43Z</time>
      </trkpt>
      <trkpt lat="46.19407" lon="-1.41868">
        <ele>2.7</ele>
        <time>2020-05-31T23:15:44Z</time>
      </trkpt>
      <trkpt lat="46.19405" lon="-1.41874">
        <ele>2.7</ele>
        <time>2020-05-31T23:15:45Z</time>
      </trkpt>
      <trkpt lat="46.19402" lon="-1.4188">
        <ele>2.7</ele>
        <time>2020-05-31T23:15:46Z</time>
      </trkpt>
      <trkpt lat="46.19399" lon="-1.41884">
        <ele>2.7</ele>
        <time>2020-05-31T23:15:47Z</time>
      </trkpt>
      <trkpt lat="46.19396" lon="-1.41889">
        <ele>2.8</ele>
        <time>2020-05-31T23:15:48Z</time>
      </trkpt>
      <trkpt lat="46.19395" lon="-1.41894">
        <ele>2.8</ele>
        <time>2020-05-31T23:15:49Z</time>
      </trkpt>
      <trkpt lat="46.19394" lon="-1.41899">
        <ele>2.8</ele>
        <time>2020-05-31T23:15:50Z</time>
      </trkpt>
      <trkpt lat="46.19395" lon="-1.41903">
        <ele>2.8</ele>
        <time>2020-05-31T23:15:51Z</time>
      </trkpt>
      <trkpt lat="46.19398" lon="-1.41906">
        <ele>2.7</ele>
        <time>2020-05-31T23:15:52Z</time>
      </trkpt>
      <trkpt lat="46.19402" lon="-1.41907">
        <ele>2.7</ele>
        <time>2020-05-31T23:15:53Z</time>
      </trkpt>
      <trkpt lat="46.19407" lon="-1.4191">
        <ele>2.7</ele>
        <time>2020-05-31T23:15:54Z</time>
      </trkpt>
      <trkpt lat="46.19411" lon="-1.41911">
        <ele>2.7</ele>
        <time>2020-05-31T23:15:55Z</time>
      </trkpt>
      <trkpt lat="46.19415" lon="-1.41912">
        <ele>2.7</ele>
        <time>2020-05-31T23:15:56Z</time>
      </trkpt>
      <trkpt lat="46.1942" lon="-1.41913">
        <ele>2.7</ele>
        <time>2020-05-31T23:15:57Z</time>
      </trkpt>
      <trkpt lat="46.19424" lon="-1.41914">
        <ele>2.7</ele>
        <time>2020-05-31T23:15:58Z</time>
      </trkpt>
      <trkpt lat="46.19429" lon="-1.41915">
        <ele>2.7</ele>
        <time>2020-05-31T23:15:59Z</time>
      </trkpt>
      <trkpt lat="46.19433" lon="-1.41916">
        <ele>2.7</ele>
        <time>2020-05-31T23:16:00Z</time>
      </trkpt>
      <trkpt lat="46.19437" lon="-1.41918">
        <ele>2.7</ele>
        <time>2020-05-31T23:16:01Z</time>
      </trkpt>
      <trkpt lat="46.19441" lon="-1.41919">
        <ele>2.7</ele>
        <time>2020-05-31T23:16:02Z</time>
      </trkpt>
      <trkpt lat="46.19445" lon="-1.41921">
        <ele>2.7</ele>
        <time>2020-05-31T23:16:03Z</time>
      </trkpt>
      <trkpt lat="46.19449" lon="-1.41923">
        <ele>2.7</ele>
        <time>2020-05-31T23:16:04Z</time>
      </trkpt>
      <trkpt lat="46.19453" lon="-1.41923">
        <ele>2.8</ele>
        <time>2020-05-31T23:16:05Z</time>
      </trkpt>
      <trkpt lat="46.19457" lon="-1.41924">
        <ele>2.8</ele>
        <time>2020-05-31T23:16:06Z</time>
      </trkpt>
      <trkpt lat="46.19461" lon="-1.41925">
        <ele>2.8</ele>
        <time>2020-05-31T23:16:07Z</time>
      </trkpt>
      <trkpt lat="46.19465" lon="-1.41925">
        <ele>2.8</ele>
        <time>2020-05-31T23:16:08Z</time>
      </trkpt>
      <trkpt lat="46.1947" lon="-1.41926">
        <ele>2.8</ele>
        <time>2020-05-31T23:16:09Z</time>
      </trkpt>
      <trkpt lat="46.19474" lon="-1.41926">
        <ele>2.8</ele>
        <time>2020-05-31T23:16:10Z</time>
      </trkpt>
      <trkpt lat="46.19478" lon="-1.41926">
        <ele>2.9</ele>
        <time>2020-05-31T23:16:11Z</time>
      </trkpt>
      <trkpt lat="46.19482" lon="-1.41926">
        <ele>2.9</ele>
        <time>2020-05-31T23:16:12Z</time>
      </trkpt>
      <trkpt lat="46.19486" lon="-1.41925">
        <ele>2.9</ele>
        <time>2020-05-31T23:16:13Z</time>
      </trkpt>
      <trkpt lat="46.1949" lon="-1.41925">
        <ele>2.9</ele>
        <time>2020-05-31T23:16:14Z</time>
      </trkpt>
      <trkpt lat="46.19494" lon="-1.41926">
        <ele>2.9</ele>
        <time>2020-05-31T23:16:15Z</time>
      </trkpt>
      <trkpt lat="46.19497" lon="-1.41926">
        <ele>2.9</ele>
        <time>2020-05-31T23:16:16Z</time>
      </trkpt>
      <trkpt lat="46.19501" lon="-1.41928">
        <ele>2.9</ele>
        <time>2020-05-31T23:16:17Z</time>
      </trkpt>
      <trkpt lat="46.19505" lon="-1.41928">
        <ele>2.9</ele>
        <time>2020-05-31T23:16:18Z</time>
      </trkpt>
      <trkpt lat="46.19509" lon="-1.41929">
        <ele>2.9</ele>
        <time>2020-05-31T23:16:19Z</time>
      </trkpt>
      <trkpt lat="46.19512" lon="-1.41929">
        <ele>2.9</ele>
        <time>2020-05-31T23:16:20Z</time>
      </trkpt>
      <trkpt lat="46.19516" lon="-1.41931">
        <ele>2.9</ele>
        <time>2020-05-31T23:16:21Z</time>
      </trkpt>
      <trkpt lat="46.1952" lon="-1.41932">
        <ele>2.9</ele>
        <time>2020-05-31T23:16:22Z</time>
      </trkpt>
      <trkpt lat="46.19523" lon="-1.41934">
        <ele>2.9</ele>
        <time>2020-05-31T23:16:23Z</time>
      </trkpt>
      <trkpt lat="46.19526" lon="-1.41939">
        <ele>2.9</ele>
        <time>2020-05-31T23:16:24Z</time>
      </trkpt>
      <trkpt lat="46.19527" lon="-1.41945">
        <ele>2.9</ele>
        <time>2020-05-31T23:16:25Z</time>
      </trkpt>
      <trkpt lat="46.19527" lon="-1.4195">
        <ele>2.9</ele>
        <time>2020-05-31T23:16:26Z</time>
      </trkpt>
      <trkpt lat="46.19527" lon="-1.41955">
        <ele>2.9</ele>
        <time>2020-05-31T23:16:27Z</time>
      </trkpt>
      <trkpt lat="46.19527" lon="-1.41961">
        <ele>2.9</ele>
        <time>2020-05-31T23:16:28Z</time>
      </trkpt>
      <trkpt lat="46.19527" lon="-1.41967">
        <ele>2.9</ele>
        <time>2020-05-31T23:16:29Z</time>
      </trkpt>
      <trkpt lat="46.19526" lon="-1.41972">
        <ele>2.9</ele>
        <time>2020-05-31T23:16:30Z</time>
      </trkpt>
      <trkpt lat="46.19527" lon="-1.41978">
        <ele>2.9</ele>
        <time>2020-05-31T23:16:31Z</time>
      </trkpt>
      <trkpt lat="46.19527" lon="-1.41984">
        <ele>2.9</ele>
        <time>2020-05-31T23:16:32Z</time>
      </trkpt>
      <trkpt lat="46.19527" lon="-1.41989">
        <ele>2.9</ele>
        <time>2020-05-31T23:16:33Z</time>
      </trkpt>
      <trkpt lat="46.19528" lon="-1.41994">
        <ele>2.9</ele>
        <time>2020-05-31T23:16:34Z</time>
      </trkpt>
      <trkpt lat="46.19528" lon="-1.41999">
        <ele>2.9</ele>
        <time>2020-05-31T23:16:35Z</time>
      </trkpt>
      <trkpt lat="46.19528" lon="-1.42004">
        <ele>2.9</ele>
        <time>2020-05-31T23:16:36Z</time>
      </trkpt>
      <trkpt lat="46.19528" lon="-1.4201">
        <ele>2.8</ele>
        <time>2020-05-31T23:16:37Z</time>
      </trkpt>
      <trkpt lat="46.19529" lon="-1.42016">
        <ele>2.8</ele>
        <time>2020-05-31T23:16:38Z</time>
      </trkpt>
      <trkpt lat="46.1953" lon="-1.42022">
        <ele>2.8</ele>
        <time>2020-05-31T23:16:39Z</time>
      </trkpt>
      <trkpt lat="46.19531" lon="-1.42027">
        <ele>2.8</ele>
        <time>2020-05-31T23:16:40Z</time>
      </trkpt>
      <trkpt lat="46.19532" lon="-1.42032">
        <ele>2.8</ele>
        <time>2020-05-31T23:16:41Z</time>
      </trkpt>
      <trkpt lat="46.19533" lon="-1.42037">
        <ele>2.8</ele>
        <time>2020-05-31T23:16:42Z</time>
      </trkpt>
      <trkpt lat="46.19535" lon="-1.42041">
        <ele>2.8</ele>
        <time>2020-05-31T23:16:43Z</time>
      </trkpt>
      <trkpt lat="46.19536" lon="-1.42045">
        <ele>2.8</ele>
        <time>2020-05-31T23:16:44Z</time>
      </trkpt>
      <trkpt lat="46.19538" lon="-1.42048">
        <ele>2.8</ele>
        <time>2020-05-31T23:16:45Z</time>
      </trkpt>
      <trkpt lat="46.19542" lon="-1.42051">
        <ele>2.8</ele>
        <time>2020-05-31T23:16:46Z</time>
      </trkpt>
      <trkpt lat="46.19543" lon="-1.42051">
        <ele>2.8</ele>
        <time>2020-05-31T23:16:47Z</time>
      </trkpt>
      <trkpt lat="46.19544" lon="-1.4205">
        <ele>2.8</ele>
        <time>2020-05-31T23:16:48Z</time>
      </trkpt>
      <trkpt lat="46.19545" lon="-1.42051">
        <ele>2.8</ele>
        <time>2020-05-31T23:16:49Z</time>
      </trkpt>
      <trkpt lat="46.19544" lon="-1.42051">
        <ele>2.8</ele>
        <time>2020-05-31T23:16:50Z</time>
      </trkpt>
      <trkpt lat="46.19544" lon="-1.4205">
        <ele>2.8</ele>
        <time>2020-05-31T23:16:51Z</time>
      </trkpt>
      <trkpt lat="46.19545" lon="-1.42051">
        <ele>2.8</ele>
        <time>2020-05-31T23:16:52Z</time>
      </trkpt>
      <trkpt lat="46.19545" lon="-1.42051">
        <ele>2.8</ele>
        <time>2020-05-31T23:16:53Z</time>
      </trkpt>
      <trkpt lat="46.19546" lon="-1.4205">
        <ele>2.8</ele>
        <time>2020-05-31T23:16:54Z</time>
      </trkpt>
      <trkpt lat="46.19546" lon="-1.4205">
        <ele>2.8</ele>
        <time>2020-05-31T23:16:55Z</time>
      </trkpt>
      <trkpt lat="46.19546" lon="-1.4205">
        <ele>2.8</ele>
        <time>2020-05-31T23:16:56Z</time>
      </trkpt>
      <trkpt lat="46.19546" lon="-1.42051">
        <ele>2.8</ele>
        <time>2020-05-31T23:16:57Z</time>
      </trkpt>
      <trkpt lat="46.19546" lon="-1.42051">
        <ele>2.8</ele>
        <time>2020-05-31T23:16:58Z</time>
      </trkpt>
      <trkpt lat="46.19546" lon="-1.42051">
        <ele>2.8</ele>
        <time>2020-05-31T23:16:59Z</time>
      </trkpt>
      <trkpt lat="46.19546" lon="-1.42052">
        <ele>2.8</ele>
        <time>2020-05-31T23:17:00Z</time>
      </trkpt>
      <trkpt lat="46.19546" lon="-1.42051">
        <ele>2.8</ele>
        <time>2020-05-31T23:17:01Z</time>
      </trkpt>
      <trkpt lat="46.19547" lon="-1.4205">
        <ele>2.8</ele>
        <time>2020-05-31T23:17:02Z</time>
      </trkpt>
      <trkpt lat="46.19547" lon="-1.42049">
        <ele>2.8</ele>
        <time>2020-05-31T23:17:03Z</time>
      </trkpt>
      <trkpt lat="46.19548" lon="-1.42048">
        <ele>2.8</ele>
        <time>2020-05-31T23:17:04Z</time>
      </trkpt>
      <trkpt lat="46.19549" lon="-1.42048">
        <ele>2.8</ele>
        <time>2020-05-31T23:17:05Z</time>
      </trkpt>
      <trkpt lat="46.19549" lon="-1.42047">
        <ele>2.8</ele>
        <time>2020-05-31T23:17:06Z</time>
      </trkpt>
      <trkpt lat="46.19549" lon="-1.42047">
        <ele>2.8</ele>
        <time>2020-05-31T23:17:07Z</time>
      </trkpt>
      <trkpt lat="46.19549" lon="-1.42047">
        <ele>2.8</ele>
        <time>2020-05-31T23:17:08Z</time>
      </trkpt>
      <trkpt lat="46.1955" lon="-1.42046">
        <ele>2.8</ele>
        <time>2020-05-31T23:17:09Z</time>
      </trkpt>
      <trkpt lat="46.1955" lon="-1.42046">
        <ele>2.8</ele>
        <time>2020-05-31T23:17:10Z</time>
      </trkpt>
      <trkpt lat="46.1955" lon="-1.42045">
        <ele>2.8</ele>
        <time>2020-05-31T23:17:11Z</time>
      </trkpt>
      <trkpt lat="46.19551" lon="-1.42045">
        <ele>2.8</ele>
        <time>2020-05-31T23:17:12Z</time>
      </trkpt>
      <trkpt lat="46.19551" lon="-1.42044">
        <ele>2.8</ele>
        <time>2020-05-31T23:17:13Z</time>
      </trkpt>
      <trkpt lat="46.19551" lon="-1.42044">
        <ele>2.8</ele>
        <time>2020-05-31T23:17:14Z</time>
      </trkpt>
      <trkpt lat="46.19551" lon="-1.42043">
        <ele>2.8</ele>
        <time>2020-05-31T23:17:15Z</time>
      </trkpt>
      <trkpt lat="46.19552" lon="-1.42043">
        <ele>2.8</ele>
        <time>2020-05-31T23:17:16Z</time>
      </trkpt>
      <trkpt lat="46.19555" lon="-1.42038">
        <ele>2.8</ele>
        <time>2020-05-31T23:17:17Z</time>
      </trkpt>
      <trkpt lat="46.19557" lon="-1.42033">
        <ele>2.8</ele>
        <time>2020-05-31T23:17:18Z</time>
      </trkpt>
      <trkpt lat="46.1956" lon="-1.42027">
        <ele>2.9</ele>
        <time>2020-05-31T23:17:19Z</time>
      </trkpt>
      <trkpt lat="46.19563" lon="-1.42022">
        <ele>2.9</ele>
        <time>2020-05-31T23:17:20Z</time>
      </trkpt>
      <trkpt lat="46.19565" lon="-1.42017">
        <ele>2.9</ele>
        <time>2020-05-31T23:17:21Z</time>
      </trkpt>
      <trkpt lat="46.19569" lon="-1.42012">
        <ele>2.9</ele>
        <time>2020-05-31T23:17:22Z</time>
      </trkpt>
      <trkpt lat="46.19572" lon="-1.42007">
        <ele>2.9</ele>
        <time>2020-05-31T23:17:23Z</time>
      </trkpt>
      <trkpt lat="46.19575" lon="-1.42003">
        <ele>2.9</ele>
        <time>2020-05-31T23:17:24Z</time>
      </trkpt>
      <trkpt lat="46.19578" lon="-1.41997">
        <ele>2.9</ele>
        <time>2020-05-31T23:17:25Z</time>
      </trkpt>
      <trkpt lat="46.19581" lon="-1.41991">
        <ele>2.9</ele>
        <time>2020-05-31T23:17:26Z</time>
      </trkpt>
      <trkpt lat="46.19585" lon="-1.41987">
        <ele>2.9</ele>
        <time>2020-05-31T23:17:27Z</time>
      </trkpt>
      <trkpt lat="46.19589" lon="-1.41987">
        <ele>2.9</ele>
        <time>2020-05-31T23:17:28Z</time>
      </trkpt>
      <trkpt lat="46.19592" lon="-1.41985">
        <ele>3</ele>
        <time>2020-05-31T23:17:29Z</time>
      </trkpt>
      <trkpt lat="46.19596" lon="-1.41983">
        <ele>3</ele>
        <time>2020-05-31T23:17:30Z</time>
      </trkpt>
      <trkpt lat="46.196" lon="-1.41983">
        <ele>2.9</ele>
        <time>2020-05-31T23:17:31Z</time>
      </trkpt>
      <trkpt lat="46.19603" lon="-1.41984">
        <ele>2.9</ele>
        <time>2020-05-31T23:17:32Z</time>
      </trkpt>
      <trkpt lat="46.19604" lon="-1.41988">
        <ele>2.9</ele>
        <time>2020-05-31T23:17:33Z</time>
      </trkpt>
      <trkpt lat="46.19605" lon="-1.41992">
        <ele>2.8</ele>
        <time>2020-05-31T23:17:34Z</time>
      </trkpt>
      <trkpt lat="46.19607" lon="-1.41996">
        <ele>2.8</ele>
        <time>2020-05-31T23:17:35Z</time>
      </trkpt>
      <trkpt lat="46.19608" lon="-1.41998">
        <ele>2.8</ele>
        <time>2020-05-31T23:17:36Z</time>
      </trkpt>
      <trkpt lat="46.19609" lon="-1.42003">
        <ele>2.8</ele>
        <time>2020-05-31T23:17:37Z</time>
      </trkpt>
      <trkpt lat="46.19609" lon="-1.42005">
        <ele>2.7</ele>
        <time>2020-05-31T23:17:38Z</time>
      </trkpt>
      <trkpt lat="46.19611" lon="-1.4201">
        <ele>2.7</ele>
        <time>2020-05-31T23:17:39Z</time>
      </trkpt>
      <trkpt lat="46.19613" lon="-1.42015">
        <ele>2.7</ele>
        <time>2020-05-31T23:17:40Z</time>
      </trkpt>
      <trkpt lat="46.19615" lon="-1.42021">
        <ele>2.6</ele>
        <time>2020-05-31T23:17:41Z</time>
      </trkpt>
      <trkpt lat="46.19616" lon="-1.42025">
        <ele>2.6</ele>
        <time>2020-05-31T23:17:42Z</time>
      </trkpt>
      <trkpt lat="46.19617" lon="-1.42031">
        <ele>2.6</ele>
        <time>2020-05-31T23:17:43Z</time>
      </trkpt>
      <trkpt lat="46.19618" lon="-1.42036">
        <ele>2.5</ele>
        <time>2020-05-31T23:17:44Z</time>
      </trkpt>
      <trkpt lat="46.1962" lon="-1.42042">
        <ele>2.5</ele>
        <time>2020-05-31T23:17:45Z</time>
      </trkpt>
      <trkpt lat="46.19622" lon="-1.42048">
        <ele>2.4</ele>
        <time>2020-05-31T23:17:46Z</time>
      </trkpt>
      <trkpt lat="46.19624" lon="-1.42054">
        <ele>2.4</ele>
        <time>2020-05-31T23:17:47Z</time>
      </trkpt>
      <trkpt lat="46.19626" lon="-1.42061">
        <ele>2.4</ele>
        <time>2020-05-31T23:17:48Z</time>
      </trkpt>
      <trkpt lat="46.19627" lon="-1.42067">
        <ele>2.4</ele>
        <time>2020-05-31T23:17:49Z</time>
      </trkpt>
      <trkpt lat="46.19629" lon="-1.42074">
        <ele>2.4</ele>
        <time>2020-05-31T23:17:50Z</time>
      </trkpt>
      <trkpt lat="46.1963" lon="-1.42081">
        <ele>2.4</ele>
        <time>2020-05-31T23:17:51Z</time>
      </trkpt>
      <trkpt lat="46.19632" lon="-1.42088">
        <ele>2.4</ele>
        <time>2020-05-31T23:17:52Z</time>
      </trkpt>
      <trkpt lat="46.19633" lon="-1.42096">
        <ele>2.4</ele>
        <time>2020-05-31T23:17:53Z</time>
      </trkpt>
      <trkpt lat="46.19635" lon="-1.42103">
        <ele>2.5</ele>
        <time>2020-05-31T23:17:54Z</time>
      </trkpt>
      <trkpt lat="46.19636" lon="-1.4211">
        <ele>2.6</ele>
        <time>2020-05-31T23:17:55Z</time>
      </trkpt>
      <trkpt lat="46.19637" lon="-1.42117">
        <ele>2.6</ele>
        <time>2020-05-31T23:17:56Z</time>
      </trkpt>
      <trkpt lat="46.19639" lon="-1.42124">
        <ele>2.7</ele>
        <time>2020-05-31T23:17:57Z</time>
      </trkpt>
      <trkpt lat="46.19639" lon="-1.42132">
        <ele>2.7</ele>
        <time>2020-05-31T23:17:58Z</time>
      </trkpt>
      <trkpt lat="46.19641" lon="-1.42138">
        <ele>2.8</ele>
        <time>2020-05-31T23:17:59Z</time>
      </trkpt>
      <trkpt lat="46.19643" lon="-1.42145">
        <ele>2.9</ele>
        <time>2020-05-31T23:18:00Z</time>
      </trkpt>
      <trkpt lat="46.19644" lon="-1.42152">
        <ele>2.9</ele>
        <time>2020-05-31T23:18:01Z</time>
      </trkpt>
      <trkpt lat="46.19644" lon="-1.42159">
        <ele>3</ele>
        <time>2020-05-31T23:18:02Z</time>
      </trkpt>
      <trkpt lat="46.19645" lon="-1.42166">
        <ele>3</ele>
        <time>2020-05-31T23:18:03Z</time>
      </trkpt>
      <trkpt lat="46.19646" lon="-1.42173">
        <ele>3.1</ele>
        <time>2020-05-31T23:18:04Z</time>
      </trkpt>
      <trkpt lat="46.19647" lon="-1.4218">
        <ele>3</ele>
        <time>2020-05-31T23:18:05Z</time>
      </trkpt>
      <trkpt lat="46.19649" lon="-1.42187">
        <ele>2.9</ele>
        <time>2020-05-31T23:18:06Z</time>
      </trkpt>
      <trkpt lat="46.1965" lon="-1.42194">
        <ele>2.9</ele>
        <time>2020-05-31T23:18:07Z</time>
      </trkpt>
      <trkpt lat="46.19651" lon="-1.42201">
        <ele>2.8</ele>
        <time>2020-05-31T23:18:08Z</time>
      </trkpt>
      <trkpt lat="46.1965" lon="-1.42208">
        <ele>2.7</ele>
        <time>2020-05-31T23:18:09Z</time>
      </trkpt>
      <trkpt lat="46.1965" lon="-1.42214">
        <ele>2.7</ele>
        <time>2020-05-31T23:18:10Z</time>
      </trkpt>
      <trkpt lat="46.1965" lon="-1.42219">
        <ele>2.7</ele>
        <time>2020-05-31T23:18:11Z</time>
      </trkpt>
      <trkpt lat="46.1965" lon="-1.42223">
        <ele>2.6</ele>
        <time>2020-05-31T23:18:12Z</time>
      </trkpt>
      <trkpt lat="46.1965" lon="-1.42227">
        <ele>2.6</ele>
        <time>2020-05-31T23:18:13Z</time>
      </trkpt>
      <trkpt lat="46.19651" lon="-1.42231">
        <ele>2.6</ele>
        <time>2020-05-31T23:18:14Z</time>
      </trkpt>
      <trkpt lat="46.19652" lon="-1.42236">
        <ele>2.6</ele>
        <time>2020-05-31T23:18:15Z</time>
      </trkpt>
      <trkpt lat="46.19654" lon="-1.42242">
        <ele>2.6</ele>
        <time>2020-05-31T23:18:16Z</time>
      </trkpt>
      <trkpt lat="46.19656" lon="-1.42247">
        <ele>2.6</ele>
        <time>2020-05-31T23:18:17Z</time>
      </trkpt>
      <trkpt lat="46.19658" lon="-1.42253">
        <ele>2.6</ele>
        <time>2020-05-31T23:18:18Z</time>
      </trkpt>
      <trkpt lat="46.19659" lon="-1.42259">
        <ele>2.6</ele>
        <time>2020-05-31T23:18:19Z</time>
      </trkpt>
      <trkpt lat="46.19661" lon="-1.42265">
        <ele>2.6</ele>
        <time>2020-05-31T23:18:20Z</time>
      </trkpt>
      <trkpt lat="46.19663" lon="-1.4227">
        <ele>2.5</ele>
        <time>2020-05-31T23:18:21Z</time>
      </trkpt>
      <trkpt lat="46.19665" lon="-1.42276">
        <ele>2.5</ele>
        <time>2020-05-31T23:18:22Z</time>
      </trkpt>
      <trkpt lat="46.19669" lon="-1.42281">
        <ele>2.5</ele>
        <time>2020-05-31T23:18:23Z</time>
      </trkpt>
      <trkpt lat="46.1967" lon="-1.42289">
        <ele>2.5</ele>
        <time>2020-05-31T23:18:24Z</time>
      </trkpt>
      <trkpt lat="46.19673" lon="-1.42295">
        <ele>2.5</ele>
        <time>2020-05-31T23:18:25Z</time>
      </trkpt>
      <trkpt lat="46.19676" lon="-1.423">
        <ele>2.5</ele>
        <time>2020-05-31T23:18:26Z</time>
      </trkpt>
      <trkpt lat="46.19679" lon="-1.42306">
        <ele>2.4</ele>
        <time>2020-05-31T23:18:27Z</time>
      </trkpt>
      <trkpt lat="46.19682" lon="-1.42312">
        <ele>2.4</ele>
        <time>2020-05-31T23:18:28Z</time>
      </trkpt>
      <trkpt lat="46.19684" lon="-1.42317">
        <ele>2.3</ele>
        <time>2020-05-31T23:18:29Z</time>
      </trkpt>
      <trkpt lat="46.19687" lon="-1.42322">
        <ele>2.3</ele>
        <time>2020-05-31T23:18:30Z</time>
      </trkpt>
      <trkpt lat="46.1969" lon="-1.42327">
        <ele>2.2</ele>
        <time>2020-05-31T23:18:31Z</time>
      </trkpt>
      <trkpt lat="46.19693" lon="-1.42333">
        <ele>2.2</ele>
        <time>2020-05-31T23:18:32Z</time>
      </trkpt>
      <trkpt lat="46.19696" lon="-1.42338">
        <ele>2.1</ele>
        <time>2020-05-31T23:18:33Z</time>
      </trkpt>
      <trkpt lat="46.19698" lon="-1.42344">
        <ele>2.1</ele>
        <time>2020-05-31T23:18:34Z</time>
      </trkpt>
      <trkpt lat="46.19702" lon="-1.4235">
        <ele>2.1</ele>
        <time>2020-05-31T23:18:35Z</time>
      </trkpt>
      <trkpt lat="46.19705" lon="-1.42355">
        <ele>2</ele>
        <time>2020-05-31T23:18:36Z</time>
      </trkpt>
      <trkpt lat="46.1971" lon="-1.42359">
        <ele>2</ele>
        <time>2020-05-31T23:18:37Z</time>
      </trkpt>
      <trkpt lat="46.19714" lon="-1.42364">
        <ele>2</ele>
        <time>2020-05-31T23:18:38Z</time>
      </trkpt>
      <trkpt lat="46.19718" lon="-1.42368">
        <ele>2</ele>
        <time>2020-05-31T23:18:39Z</time>
      </trkpt>
      <trkpt lat="46.19722" lon="-1.42372">
        <ele>1.9</ele>
        <time>2020-05-31T23:18:40Z</time>
      </trkpt>
      <trkpt lat="46.19725" lon="-1.42377">
        <ele>1.9</ele>
        <time>2020-05-31T23:18:41Z</time>
      </trkpt>
      <trkpt lat="46.19728" lon="-1.42382">
        <ele>1.9</ele>
        <time>2020-05-31T23:18:42Z</time>
      </trkpt>
      <trkpt lat="46.19731" lon="-1.42386">
        <ele>1.9</ele>
        <time>2020-05-31T23:18:43Z</time>
      </trkpt>
      <trkpt lat="46.19735" lon="-1.42388">
        <ele>1.9</ele>
        <time>2020-05-31T23:18:44Z</time>
      </trkpt>
      <trkpt lat="46.19738" lon="-1.4239">
        <ele>1.9</ele>
        <time>2020-05-31T23:18:45Z</time>
      </trkpt>
      <trkpt lat="46.1974" lon="-1.42389">
        <ele>1.9</ele>
        <time>2020-05-31T23:18:46Z</time>
      </trkpt>
      <trkpt lat="46.19744" lon="-1.42389">
        <ele>1.9</ele>
        <time>2020-05-31T23:18:47Z</time>
      </trkpt>
      <trkpt lat="46.19745" lon="-1.42388">
        <ele>1.9</ele>
        <time>2020-05-31T23:18:48Z</time>
      </trkpt>
      <trkpt lat="46.19747" lon="-1.42384">
        <ele>1.9</ele>
        <time>2020-05-31T23:18:49Z</time>
      </trkpt>
      <trkpt lat="46.19749" lon="-1.42382">
        <ele>1.9</ele>
        <time>2020-05-31T23:18:50Z</time>
      </trkpt>
      <trkpt lat="46.1975" lon="-1.42377">
        <ele>1.9</ele>
        <time>2020-05-31T23:18:51Z</time>
      </trkpt>
      <trkpt lat="46.19751" lon="-1.42373">
        <ele>1.9</ele>
        <time>2020-05-31T23:18:52Z</time>
      </trkpt>
      <trkpt lat="46.19753" lon="-1.42368">
        <ele>1.9</ele>
        <time>2020-05-31T23:18:53Z</time>
      </trkpt>
      <trkpt lat="46.19753" lon="-1.42366">
        <ele>1.9</ele>
        <time>2020-05-31T23:18:54Z</time>
      </trkpt>
      <trkpt lat="46.19755" lon="-1.42363">
        <ele>1.9</ele>
        <time>2020-05-31T23:18:55Z</time>
      </trkpt>
      <trkpt lat="46.19755" lon="-1.42362">
        <ele>2</ele>
        <time>2020-05-31T23:18:56Z</time>
      </trkpt>
      <trkpt lat="46.19756" lon="-1.4236">
        <ele>2</ele>
        <time>2020-05-31T23:18:57Z</time>
      </trkpt>
      <trkpt lat="46.19757" lon="-1.42359">
        <ele>2</ele>
        <time>2020-05-31T23:18:58Z</time>
      </trkpt>
      <trkpt lat="46.19758" lon="-1.42358">
        <ele>2</ele>
        <time>2020-05-31T23:18:59Z</time>
      </trkpt>
      <trkpt lat="46.19759" lon="-1.42358">
        <ele>2</ele>
        <time>2020-05-31T23:19:00Z</time>
      </trkpt>
      <trkpt lat="46.1976" lon="-1.42358">
        <ele>2</ele>
        <time>2020-05-31T23:19:01Z</time>
      </trkpt>
      <trkpt lat="46.1976" lon="-1.42358">
        <ele>2</ele>
        <time>2020-05-31T23:19:02Z</time>
      </trkpt>
    </trkseg>
  </trk>
  <trk>
    <name><![CDATA[Trace 9]]></name>
    <trkseg>
      <trkpt lat="48.00684" lon="-3.757">
        <ele>143.8</ele>
        <time>2020-06-08T08:02:51Z</time>
      </trkpt>
      <trkpt lat="48.00689" lon="-3.75699">
        <ele>143.9</ele>
        <time>2020-06-08T08:02:52Z</time>
      </trkpt>
      <trkpt lat="48.00689" lon="-3.75699">
        <ele>143.9</ele>
        <time>2020-06-08T08:02:53Z</time>
      </trkpt>
      <trkpt lat="48.0069" lon="-3.757">
        <ele>143.9</ele>
        <time>2020-06-08T08:02:54Z</time>
      </trkpt>
      <trkpt lat="48.0069" lon="-3.757">
        <ele>143.9</ele>
        <time>2020-06-08T08:02:55Z</time>
      </trkpt>
      <trkpt lat="48.0069" lon="-3.757">
        <ele>143.9</ele>
        <time>2020-06-08T08:02:56Z</time>
      </trkpt>
      <trkpt lat="48.0069" lon="-3.75701">
        <ele>143.9</ele>
        <time>2020-06-08T08:02:57Z</time>
      </trkpt>
      <trkpt lat="48.00691" lon="-3.75701">
        <ele>143.9</ele>
        <time>2020-06-08T08:02:58Z</time>
      </trkpt>
      <trkpt lat="48.00691" lon="-3.75701">
        <ele>143.9</ele>
        <time>2020-06-08T08:02:59Z</time>
      </trkpt>
      <trkpt lat="48.00691" lon="-3.75702">
        <ele>143.9</ele>
        <time>2020-06-08T08:03:00Z</time>
      </trkpt>
      <trkpt lat="48.00691" lon="-3.75702">
        <ele>143.9</ele>
        <time>2020-06-08T08:03:01Z</time>
      </trkpt>
      <trkpt lat="48.00692" lon="-3.75702">
        <ele>143.9</ele>
        <time>2020-06-08T08:03:46Z</time>
      </trkpt>
      <trkpt lat="48.00692" lon="-3.75703">
        <ele>143.9</ele>
        <time>2020-06-08T08:03:47Z</time>
      </trkpt>
      <trkpt lat="48.00692" lon="-3.75703">
        <ele>143.9</ele>
        <time>2020-06-08T08:03:48Z</time>
      </trkpt>
      <trkpt lat="48.00692" lon="-3.75704">
        <ele>143.9</ele>
        <time>2020-06-08T08:03:49Z</time>
      </trkpt>
      <trkpt lat="48.00693" lon="-3.75704">
        <ele>143.9</ele>
        <time>2020-06-08T08:03:50Z</time>
      </trkpt>
      <trkpt lat="48.00693" lon="-3.75704">
        <ele>143.9</ele>
        <time>2020-06-08T08:03:51Z</time>
      </trkpt>
      <trkpt lat="48.00693" lon="-3.75705">
        <ele>143.9</ele>
        <time>2020-06-08T08:03:52Z</time>
      </trkpt>
      <trkpt lat="48.00693" lon="-3.75705">
        <ele>143.9</ele>
        <time>2020-06-08T08:03:53Z</time>
      </trkpt>
      <trkpt lat="48.00694" lon="-3.75705">
        <ele>143.9</ele>
        <time>2020-06-08T08:03:54Z</time>
      </trkpt>
      <trkpt lat="48.00694" lon="-3.75706">
        <ele>143.9</ele>
        <time>2020-06-08T08:03:55Z</time>
      </trkpt>
      <trkpt lat="48.00694" lon="-3.75706">
        <ele>143.9</ele>
        <time>2020-06-08T08:03:56Z</time>
      </trkpt>
      <trkpt lat="48.00694" lon="-3.75706">
        <ele>143.9</ele>
        <time>2020-06-08T08:04:24Z</time>
      </trkpt>
      <trkpt lat="48.00695" lon="-3.75707">
        <ele>143.9</ele>
        <time>2020-06-08T08:04:25Z</time>
      </trkpt>
      <trkpt lat="48.00693" lon="-3.75709">
        <ele>144</ele>
        <time>2020-06-08T08:04:26Z</time>
      </trkpt>
      <trkpt lat="48.00693" lon="-3.75711">
        <ele>144</ele>
        <time>2020-06-08T08:04:27Z</time>
      </trkpt>
      <trkpt lat="48.00692" lon="-3.75711">
        <ele>144</ele>
        <time>2020-06-08T08:04:28Z</time>
      </trkpt>
      <trkpt lat="48.00692" lon="-3.75713">
        <ele>144</ele>
        <time>2020-06-08T08:04:29Z</time>
      </trkpt>
      <trkpt lat="48.00692" lon="-3.75715">
        <ele>144</ele>
        <time>2020-06-08T08:04:30Z</time>
      </trkpt>
      <trkpt lat="48.00691" lon="-3.75717">
        <ele>144</ele>
        <time>2020-06-08T08:04:31Z</time>
      </trkpt>
      <trkpt lat="48.00691" lon="-3.75719">
        <ele>144.1</ele>
        <time>2020-06-08T08:04:32Z</time>
      </trkpt>
      <trkpt lat="48.0069" lon="-3.75721">
        <ele>144.1</ele>
        <time>2020-06-08T08:04:33Z</time>
      </trkpt>
      <trkpt lat="48.0069" lon="-3.75724">
        <ele>144.1</ele>
        <time>2020-06-08T08:04:34Z</time>
      </trkpt>
      <trkpt lat="48.00688" lon="-3.75727">
        <ele>144.1</ele>
        <time>2020-06-08T08:04:35Z</time>
      </trkpt>
      <trkpt lat="48.00687" lon="-3.75728">
        <ele>144.2</ele>
        <time>2020-06-08T08:04:36Z</time>
      </trkpt>
      <trkpt lat="48.00687" lon="-3.7573">
        <ele>144.2</ele>
        <time>2020-06-08T08:04:37Z</time>
      </trkpt>
      <trkpt lat="48.00688" lon="-3.75732">
        <ele>144.2</ele>
        <time>2020-06-08T08:04:38Z</time>
      </trkpt>
      <trkpt lat="48.00688" lon="-3.75734">
        <ele>144.2</ele>
        <time>2020-06-08T08:04:39Z</time>
      </trkpt>
      <trkpt lat="48.00688" lon="-3.75736">
        <ele>144.2</ele>
        <time>2020-06-08T08:04:40Z</time>
      </trkpt>
      <trkpt lat="48.00688" lon="-3.75737">
        <ele>144.2</ele>
        <time>2020-06-08T08:04:41Z</time>
      </trkpt>
      <trkpt lat="48.00689" lon="-3.7574">
        <ele>144.3</ele>
        <time>2020-06-08T08:04:42Z</time>
      </trkpt>
      <trkpt lat="48.00688" lon="-3.75742">
        <ele>144.3</ele>
        <time>2020-06-08T08:04:43Z</time>
      </trkpt>
      <trkpt lat="48.00688" lon="-3.75743">
        <ele>144.3</ele>
        <time>2020-06-08T08:04:44Z</time>
      </trkpt>
      <trkpt lat="48.00689" lon="-3.75745">
        <ele>144.3</ele>
        <time>2020-06-08T08:04:45Z</time>
      </trkpt>
      <trkpt lat="48.0069" lon="-3.75746">
        <ele>144.3</ele>
        <time>2020-06-08T08:04:46Z</time>
      </trkpt>
      <trkpt lat="48.00692" lon="-3.75747">
        <ele>144.3</ele>
        <time>2020-06-08T08:04:47Z</time>
      </trkpt>
      <trkpt lat="48.00693" lon="-3.75747">
        <ele>144.3</ele>
        <time>2020-06-08T08:04:48Z</time>
      </trkpt>
      <trkpt lat="48.00694" lon="-3.75748">
        <ele>144.4</ele>
        <time>2020-06-08T08:04:49Z</time>
      </trkpt>
      <trkpt lat="48.00695" lon="-3.75749">
        <ele>144.7</ele>
        <time>2020-06-08T08:04:50Z</time>
      </trkpt>
      <trkpt lat="48.00697" lon="-3.7575">
        <ele>144.8</ele>
        <time>2020-06-08T08:04:51Z</time>
      </trkpt>
      <trkpt lat="48.00698" lon="-3.75751">
        <ele>144.9</ele>
        <time>2020-06-08T08:04:52Z</time>
      </trkpt>
      <trkpt lat="48.007" lon="-3.75751">
        <ele>144.9</ele>
        <time>2020-06-08T08:04:53Z</time>
      </trkpt>
      <trkpt lat="48.00702" lon="-3.75753">
        <ele>145.1</ele>
        <time>2020-06-08T08:04:54Z</time>
      </trkpt>
      <trkpt lat="48.00704" lon="-3.75754">
        <ele>145.1</ele>
        <time>2020-06-08T08:04:55Z</time>
      </trkpt>
      <trkpt lat="48.00705" lon="-3.75755">
        <ele>145.2</ele>
        <time>2020-06-08T08:04:56Z</time>
      </trkpt>
      <trkpt lat="48.00706" lon="-3.75757">
        <ele>145.3</ele>
        <time>2020-06-08T08:04:57Z</time>
      </trkpt>
      <trkpt lat="48.00707" lon="-3.75758">
        <ele>145.4</ele>
        <time>2020-06-08T08:04:58Z</time>
      </trkpt>
      <trkpt lat="48.00709" lon="-3.75759">
        <ele>145.4</ele>
        <time>2020-06-08T08:04:59Z</time>
      </trkpt>
      <trkpt lat="48.00711" lon="-3.75762">
        <ele>145.6</ele>
        <time>2020-06-08T08:05:00Z</time>
      </trkpt>
      <trkpt lat="48.00712" lon="-3.75763">
        <ele>145.6</ele>
        <time>2020-06-08T08:05:01Z</time>
      </trkpt>
      <trkpt lat="48.00713" lon="-3.75763">
        <ele>145.7</ele>
        <time>2020-06-08T08:05:02Z</time>
      </trkpt>
      <trkpt lat="48.00715" lon="-3.75764">
        <ele>145.8</ele>
        <time>2020-06-08T08:05:03Z</time>
      </trkpt>
      <trkpt lat="48.00718" lon="-3.75765">
        <ele>145.9</ele>
        <time>2020-06-08T08:05:04Z</time>
      </trkpt>
      <trkpt lat="48.00719" lon="-3.75766">
        <ele>146</ele>
        <time>2020-06-08T08:05:05Z</time>
      </trkpt>
      <trkpt lat="48.0072" lon="-3.75767">
        <ele>146</ele>
        <time>2020-06-08T08:05:06Z</time>
      </trkpt>
      <trkpt lat="48.00722" lon="-3.75767">
        <ele>146.1</ele>
        <time>2020-06-08T08:05:07Z</time>
      </trkpt>
      <trkpt lat="48.00724" lon="-3.75769">
        <ele>146.2</ele>
        <time>2020-06-08T08:05:08Z</time>
      </trkpt>
      <trkpt lat="48.00725" lon="-3.75769">
        <ele>146.3</ele>
        <time>2020-06-08T08:05:09Z</time>
      </trkpt>
      <trkpt lat="48.00726" lon="-3.75769">
        <ele>146.3</ele>
        <time>2020-06-08T08:05:10Z</time>
      </trkpt>
      <trkpt lat="48.00727" lon="-3.7577">
        <ele>146.4</ele>
        <time>2020-06-08T08:05:11Z</time>
      </trkpt>
      <trkpt lat="48.00729" lon="-3.75771">
        <ele>146.5</ele>
        <time>2020-06-08T08:05:12Z</time>
      </trkpt>
      <trkpt lat="48.0073" lon="-3.75772">
        <ele>146.6</ele>
        <time>2020-06-08T08:05:13Z</time>
      </trkpt>
      <trkpt lat="48.00732" lon="-3.75773">
        <ele>146.6</ele>
        <time>2020-06-08T08:05:14Z</time>
      </trkpt>
      <trkpt lat="48.00734" lon="-3.75774">
        <ele>146.7</ele>
        <time>2020-06-08T08:05:15Z</time>
      </trkpt>
      <trkpt lat="48.00735" lon="-3.75775">
        <ele>146.8</ele>
        <time>2020-06-08T08:05:16Z</time>
      </trkpt>
      <trkpt lat="48.00738" lon="-3.75777">
        <ele>146.9</ele>
        <time>2020-06-08T08:05:17Z</time>
      </trkpt>
      <trkpt lat="48.00739" lon="-3.75778">
        <ele>147</ele>
        <time>2020-06-08T08:05:18Z</time>
      </trkpt>
      <trkpt lat="48.00741" lon="-3.75779">
        <ele>147.1</ele>
        <time>2020-06-08T08:05:19Z</time>
      </trkpt>
      <trkpt lat="48.00742" lon="-3.7578">
        <ele>147.2</ele>
        <time>2020-06-08T08:05:20Z</time>
      </trkpt>
      <trkpt lat="48.00745" lon="-3.75783">
        <ele>147.3</ele>
        <time>2020-06-08T08:05:21Z</time>
      </trkpt>
      <trkpt lat="48.00746" lon="-3.75784">
        <ele>147.4</ele>
        <time>2020-06-08T08:05:22Z</time>
      </trkpt>
      <trkpt lat="48.0075" lon="-3.75787">
        <ele>147.6</ele>
        <time>2020-06-08T08:05:23Z</time>
      </trkpt>
      <trkpt lat="48.0075" lon="-3.75787">
        <ele>147.6</ele>
        <time>2020-06-08T08:05:24Z</time>
      </trkpt>
      <trkpt lat="48.00752" lon="-3.75789">
        <ele>147.7</ele>
        <time>2020-06-08T08:05:25Z</time>
      </trkpt>
      <trkpt lat="48.00753" lon="-3.7579">
        <ele>147.8</ele>
        <time>2020-06-08T08:05:26Z</time>
      </trkpt>
      <trkpt lat="48.00755" lon="-3.75792">
        <ele>147.9</ele>
        <time>2020-06-08T08:05:27Z</time>
      </trkpt>
      <trkpt lat="48.00756" lon="-3.75793">
        <ele>148</ele>
        <time>2020-06-08T08:05:28Z</time>
      </trkpt>
      <trkpt lat="48.00756" lon="-3.75793">
        <ele>148</ele>
        <time>2020-06-08T08:05:29Z</time>
      </trkpt>
      <trkpt lat="48.00757" lon="-3.75794">
        <ele>148</ele>
        <time>2020-06-08T08:05:30Z</time>
      </trkpt>
      <trkpt lat="48.00758" lon="-3.75794">
        <ele>148.1</ele>
        <time>2020-06-08T08:05:31Z</time>
      </trkpt>
      <trkpt lat="48.00758" lon="-3.75795">
        <ele>148.1</ele>
        <time>2020-06-08T08:05:32Z</time>
      </trkpt>
      <trkpt lat="48.00759" lon="-3.75795">
        <ele>148.1</ele>
        <time>2020-06-08T08:05:33Z</time>
      </trkpt>
      <trkpt lat="48.00759" lon="-3.75796">
        <ele>148.2</ele>
        <time>2020-06-08T08:05:34Z</time>
      </trkpt>
      <trkpt lat="48.0076" lon="-3.75796">
        <ele>148.2</ele>
        <time>2020-06-08T08:05:35Z</time>
      </trkpt>
      <trkpt lat="48.00761" lon="-3.75797">
        <ele>148.2</ele>
        <time>2020-06-08T08:05:36Z</time>
      </trkpt>
      <trkpt lat="48.00761" lon="-3.75798">
        <ele>148.3</ele>
        <time>2020-06-08T08:05:37Z</time>
      </trkpt>
      <trkpt lat="48.00762" lon="-3.75798">
        <ele>148.3</ele>
        <time>2020-06-08T08:05:38Z</time>
      </trkpt>
      <trkpt lat="48.00762" lon="-3.75799">
        <ele>148.3</ele>
        <time>2020-06-08T08:05:39Z</time>
      </trkpt>
      <trkpt lat="48.00763" lon="-3.75799">
        <ele>148.4</ele>
        <time>2020-06-08T08:05:47Z</time>
      </trkpt>
      <trkpt lat="48.00763" lon="-3.758">
        <ele>148.4</ele>
        <time>2020-06-08T08:05:48Z</time>
      </trkpt>
      <trkpt lat="48.00766" lon="-3.75801">
        <ele>148.5</ele>
        <time>2020-06-08T08:05:49Z</time>
      </trkpt>
      <trkpt lat="48.00769" lon="-3.75804">
        <ele>148.7</ele>
        <time>2020-06-08T08:05:50Z</time>
      </trkpt>
      <trkpt lat="48.00773" lon="-3.75804">
        <ele>148.9</ele>
        <time>2020-06-08T08:05:51Z</time>
      </trkpt>
      <trkpt lat="48.00774" lon="-3.75805">
        <ele>149</ele>
        <time>2020-06-08T08:05:52Z</time>
      </trkpt>
      <trkpt lat="48.00778" lon="-3.75808">
        <ele>149.2</ele>
        <time>2020-06-08T08:05:53Z</time>
      </trkpt>
      <trkpt lat="48.0078" lon="-3.7581">
        <ele>149.3</ele>
        <time>2020-06-08T08:05:54Z</time>
      </trkpt>
      <trkpt lat="48.00783" lon="-3.75812">
        <ele>149.5</ele>
        <time>2020-06-08T08:05:55Z</time>
      </trkpt>
      <trkpt lat="48.00784" lon="-3.75813">
        <ele>149.5</ele>
        <time>2020-06-08T08:05:56Z</time>
      </trkpt>
      <trkpt lat="48.00787" lon="-3.75816">
        <ele>149.7</ele>
        <time>2020-06-08T08:05:57Z</time>
      </trkpt>
      <trkpt lat="48.0079" lon="-3.75818">
        <ele>149.8</ele>
        <time>2020-06-08T08:05:58Z</time>
      </trkpt>
      <trkpt lat="48.00792" lon="-3.7582">
        <ele>150</ele>
        <time>2020-06-08T08:05:59Z</time>
      </trkpt>
      <trkpt lat="48.00795" lon="-3.75822">
        <ele>150.1</ele>
        <time>2020-06-08T08:06:00Z</time>
      </trkpt>
      <trkpt lat="48.00798" lon="-3.75824">
        <ele>150.3</ele>
        <time>2020-06-08T08:06:01Z</time>
      </trkpt>
      <trkpt lat="48.00801" lon="-3.75826">
        <ele>150.4</ele>
        <time>2020-06-08T08:06:02Z</time>
      </trkpt>
      <trkpt lat="48.00804" lon="-3.75828">
        <ele>150.6</ele>
        <time>2020-06-08T08:06:03Z</time>
      </trkpt>
      <trkpt lat="48.00808" lon="-3.75831">
        <ele>150.8</ele>
        <time>2020-06-08T08:06:04Z</time>
      </trkpt>
      <trkpt lat="48.00809" lon="-3.75831">
        <ele>150.8</ele>
        <time>2020-06-08T08:06:05Z</time>
      </trkpt>
      <trkpt lat="48.00812" lon="-3.75834">
        <ele>151</ele>
        <time>2020-06-08T08:06:06Z</time>
      </trkpt>
      <trkpt lat="48.00815" lon="-3.75836">
        <ele>151.2</ele>
        <time>2020-06-08T08:06:07Z</time>
      </trkpt>
      <trkpt lat="48.00819" lon="-3.75838">
        <ele>151.4</ele>
        <time>2020-06-08T08:06:08Z</time>
      </trkpt>
      <trkpt lat="48.00821" lon="-3.7584">
        <ele>151.5</ele>
        <time>2020-06-08T08:06:09Z</time>
      </trkpt>
      <trkpt lat="48.00824" lon="-3.75842">
        <ele>151.6</ele>
        <time>2020-06-08T08:06:10Z</time>
      </trkpt>
      <trkpt lat="48.00827" lon="-3.75844">
        <ele>151.8</ele>
        <time>2020-06-08T08:06:11Z</time>
      </trkpt>
      <trkpt lat="48.00829" lon="-3.75844">
        <ele>151.9</ele>
        <time>2020-06-08T08:06:12Z</time>
      </trkpt>
      <trkpt lat="48.00831" lon="-3.75846">
        <ele>152</ele>
        <time>2020-06-08T08:06:13Z</time>
      </trkpt>
      <trkpt lat="48.00835" lon="-3.75848">
        <ele>152.2</ele>
        <time>2020-06-08T08:06:14Z</time>
      </trkpt>
      <trkpt lat="48.00836" lon="-3.75849">
        <ele>152.2</ele>
        <time>2020-06-08T08:06:15Z</time>
      </trkpt>
      <trkpt lat="48.00838" lon="-3.75852">
        <ele>152.4</ele>
        <time>2020-06-08T08:06:16Z</time>
      </trkpt>
      <trkpt lat="48.00839" lon="-3.75853">
        <ele>152.5</ele>
        <time>2020-06-08T08:06:17Z</time>
      </trkpt>
      <trkpt lat="48.00843" lon="-3.75854">
        <ele>152.6</ele>
        <time>2020-06-08T08:06:18Z</time>
      </trkpt>
      <trkpt lat="48.00844" lon="-3.75855">
        <ele>152.7</ele>
        <time>2020-06-08T08:06:19Z</time>
      </trkpt>
      <trkpt lat="48.00846" lon="-3.75857">
        <ele>152.8</ele>
        <time>2020-06-08T08:06:20Z</time>
      </trkpt>
      <trkpt lat="48.0085" lon="-3.7586">
        <ele>153</ele>
        <time>2020-06-08T08:06:21Z</time>
      </trkpt>
      <trkpt lat="48.00851" lon="-3.75862">
        <ele>153.1</ele>
        <time>2020-06-08T08:06:22Z</time>
      </trkpt>
      <trkpt lat="48.00855" lon="-3.75864">
        <ele>153.3</ele>
        <time>2020-06-08T08:06:23Z</time>
      </trkpt>
      <trkpt lat="48.00856" lon="-3.75865">
        <ele>153.4</ele>
        <time>2020-06-08T08:06:24Z</time>
      </trkpt>
      <trkpt lat="48.00859" lon="-3.75868">
        <ele>153.5</ele>
        <time>2020-06-08T08:06:25Z</time>
      </trkpt>
      <trkpt lat="48.00861" lon="-3.75871">
        <ele>153.7</ele>
        <time>2020-06-08T08:06:26Z</time>
      </trkpt>
      <trkpt lat="48.00862" lon="-3.75872">
        <ele>153.7</ele>
        <time>2020-06-08T08:06:27Z</time>
      </trkpt>
      <trkpt lat="48.00865" lon="-3.75875">
        <ele>153.9</ele>
        <time>2020-06-08T08:06:28Z</time>
      </trkpt>
      <trkpt lat="48.00866" lon="-3.75876">
        <ele>154</ele>
        <time>2020-06-08T08:06:29Z</time>
      </trkpt>
      <trkpt lat="48.00869" lon="-3.75879">
        <ele>154.1</ele>
        <time>2020-06-08T08:06:30Z</time>
      </trkpt>
      <trkpt lat="48.00872" lon="-3.7588">
        <ele>154.3</ele>
        <time>2020-06-08T08:06:31Z</time>
      </trkpt>
      <trkpt lat="48.00875" lon="-3.75881">
        <ele>154.5</ele>
        <time>2020-06-08T08:06:32Z</time>
      </trkpt>
      <trkpt lat="48.00877" lon="-3.75881">
        <ele>154.5</ele>
        <time>2020-06-08T08:06:33Z</time>
      </trkpt>
      <trkpt lat="48.0088" lon="-3.75884">
        <ele>154.7</ele>
        <time>2020-06-08T08:06:34Z</time>
      </trkpt>
      <trkpt lat="48.00881" lon="-3.75885">
        <ele>154.8</ele>
        <time>2020-06-08T08:06:35Z</time>
      </trkpt>
      <trkpt lat="48.00884" lon="-3.75887">
        <ele>154.9</ele>
        <time>2020-06-08T08:06:36Z</time>
      </trkpt>
      <trkpt lat="48.00886" lon="-3.75888">
        <ele>155</ele>
        <time>2020-06-08T08:06:37Z</time>
      </trkpt>
      <trkpt lat="48.00889" lon="-3.7589">
        <ele>155.2</ele>
        <time>2020-06-08T08:06:38Z</time>
      </trkpt>
      <trkpt lat="48.0089" lon="-3.75891">
        <ele>155.2</ele>
        <time>2020-06-08T08:06:39Z</time>
      </trkpt>
      <trkpt lat="48.00893" lon="-3.75892">
        <ele>155.4</ele>
        <time>2020-06-08T08:06:40Z</time>
      </trkpt>
      <trkpt lat="48.00896" lon="-3.75894">
        <ele>155.6</ele>
        <time>2020-06-08T08:06:41Z</time>
      </trkpt>
      <trkpt lat="48.00898" lon="-3.75895">
        <ele>155.6</ele>
        <time>2020-06-08T08:06:42Z</time>
      </trkpt>
      <trkpt lat="48.00901" lon="-3.75898">
        <ele>155.8</ele>
        <time>2020-06-08T08:06:43Z</time>
      </trkpt>
      <trkpt lat="48.00902" lon="-3.75898">
        <ele>155.9</ele>
        <time>2020-06-08T08:06:44Z</time>
      </trkpt>
      <trkpt lat="48.00904" lon="-3.759">
        <ele>156</ele>
        <time>2020-06-08T08:06:45Z</time>
      </trkpt>
      <trkpt lat="48.00905" lon="-3.75901">
        <ele>156</ele>
        <time>2020-06-08T08:06:46Z</time>
      </trkpt>
      <trkpt lat="48.00907" lon="-3.75905">
        <ele>156.2</ele>
        <time>2020-06-08T08:06:47Z</time>
      </trkpt>
      <trkpt lat="48.00911" lon="-3.75908">
        <ele>156.4</ele>
        <time>2020-06-08T08:06:48Z</time>
      </trkpt>
      <trkpt lat="48.00913" lon="-3.75909">
        <ele>156.5</ele>
        <time>2020-06-08T08:06:49Z</time>
      </trkpt>
      <trkpt lat="48.00916" lon="-3.75911">
        <ele>156.7</ele>
        <time>2020-06-08T08:06:50Z</time>
      </trkpt>
      <trkpt lat="48.00917" lon="-3.75912">
        <ele>156.7</ele>
        <time>2020-06-08T08:06:51Z</time>
      </trkpt>
      <trkpt lat="48.00921" lon="-3.75912">
        <ele>156.9</ele>
        <time>2020-06-08T08:06:52Z</time>
      </trkpt>
      <trkpt lat="48.00922" lon="-3.75912">
        <ele>156.9</ele>
        <time>2020-06-08T08:06:53Z</time>
      </trkpt>
      <trkpt lat="48.00925" lon="-3.75913">
        <ele>157.1</ele>
        <time>2020-06-08T08:06:54Z</time>
      </trkpt>
      <trkpt lat="48.00926" lon="-3.75913">
        <ele>157.1</ele>
        <time>2020-06-08T08:06:55Z</time>
      </trkpt>
      <trkpt lat="48.00929" lon="-3.75915">
        <ele>157.3</ele>
        <time>2020-06-08T08:06:56Z</time>
      </trkpt>
      <trkpt lat="48.0093" lon="-3.75915">
        <ele>157.3</ele>
        <time>2020-06-08T08:06:57Z</time>
      </trkpt>
      <trkpt lat="48.00934" lon="-3.75916">
        <ele>157.4</ele>
        <time>2020-06-08T08:06:58Z</time>
      </trkpt>
      <trkpt lat="48.00935" lon="-3.75917">
        <ele>157.5</ele>
        <time>2020-06-08T08:06:59Z</time>
      </trkpt>
      <trkpt lat="48.00939" lon="-3.75919">
        <ele>157.7</ele>
        <time>2020-06-08T08:07:00Z</time>
      </trkpt>
      <trkpt lat="48.0094" lon="-3.75919">
        <ele>157.7</ele>
        <time>2020-06-08T08:07:01Z</time>
      </trkpt>
      <trkpt lat="48.00944" lon="-3.75921">
        <ele>157.9</ele>
        <time>2020-06-08T08:07:02Z</time>
      </trkpt>
      <trkpt lat="48.00945" lon="-3.75922">
        <ele>157.9</ele>
        <time>2020-06-08T08:07:03Z</time>
      </trkpt>
      <trkpt lat="48.00947" lon="-3.75924">
        <ele>158.1</ele>
        <time>2020-06-08T08:07:04Z</time>
      </trkpt>
      <trkpt lat="48.0095" lon="-3.75925">
        <ele>158.2</ele>
        <time>2020-06-08T08:07:05Z</time>
      </trkpt>
      <trkpt lat="48.00953" lon="-3.75926">
        <ele>158.3</ele>
        <time>2020-06-08T08:07:06Z</time>
      </trkpt>
      <trkpt lat="48.00956" lon="-3.75927">
        <ele>158.4</ele>
        <time>2020-06-08T08:07:07Z</time>
      </trkpt>
      <trkpt lat="48.00959" lon="-3.75928">
        <ele>158.6</ele>
        <time>2020-06-08T08:07:08Z</time>
      </trkpt>
      <trkpt lat="48.00962" lon="-3.75931">
        <ele>158.7</ele>
        <time>2020-06-08T08:07:09Z</time>
      </trkpt>
      <trkpt lat="48.00965" lon="-3.75933">
        <ele>158.8</ele>
        <time>2020-06-08T08:07:10Z</time>
      </trkpt>
      <trkpt lat="48.00968" lon="-3.75935">
        <ele>159</ele>
        <time>2020-06-08T08:07:11Z</time>
      </trkpt>
      <trkpt lat="48.00971" lon="-3.75936">
        <ele>159.1</ele>
        <time>2020-06-08T08:07:12Z</time>
      </trkpt>
      <trkpt lat="48.00973" lon="-3.75937">
        <ele>159.2</ele>
        <time>2020-06-08T08:07:13Z</time>
      </trkpt>
      <trkpt lat="48.00976" lon="-3.75938">
        <ele>159.3</ele>
        <time>2020-06-08T08:07:14Z</time>
      </trkpt>
      <trkpt lat="48.00977" lon="-3.75939">
        <ele>159.4</ele>
        <time>2020-06-08T08:07:15Z</time>
      </trkpt>
      <trkpt lat="48.00981" lon="-3.75941">
        <ele>159.5</ele>
        <time>2020-06-08T08:07:16Z</time>
      </trkpt>
      <trkpt lat="48.00982" lon="-3.75941">
        <ele>159.6</ele>
        <time>2020-06-08T08:07:17Z</time>
      </trkpt>
      <trkpt lat="48.00986" lon="-3.75941">
        <ele>159.8</ele>
        <time>2020-06-08T08:07:18Z</time>
      </trkpt>
      <trkpt lat="48.00987" lon="-3.75941">
        <ele>159.8</ele>
        <time>2020-06-08T08:07:19Z</time>
      </trkpt>
      <trkpt lat="48.00991" lon="-3.7594">
        <ele>160</ele>
        <time>2020-06-08T08:07:20Z</time>
      </trkpt>
      <trkpt lat="48.00994" lon="-3.7594">
        <ele>160.1</ele>
        <time>2020-06-08T08:07:21Z</time>
      </trkpt>
      <trkpt lat="48.00996" lon="-3.75939">
        <ele>160.2</ele>
        <time>2020-06-08T08:07:22Z</time>
      </trkpt>
      <trkpt lat="48.00999" lon="-3.75937">
        <ele>160.3</ele>
        <time>2020-06-08T08:07:23Z</time>
      </trkpt>
      <trkpt lat="48.01001" lon="-3.75936">
        <ele>160.4</ele>
        <time>2020-06-08T08:07:24Z</time>
      </trkpt>
      <trkpt lat="48.01003" lon="-3.75934">
        <ele>160.5</ele>
        <time>2020-06-08T08:07:25Z</time>
      </trkpt>
      <trkpt lat="48.01006" lon="-3.75931">
        <ele>160.7</ele>
        <time>2020-06-08T08:07:26Z</time>
      </trkpt>
      <trkpt lat="48.01008" lon="-3.75929">
        <ele>160.8</ele>
        <time>2020-06-08T08:07:27Z</time>
      </trkpt>
      <trkpt lat="48.01011" lon="-3.75927">
        <ele>160.9</ele>
        <time>2020-06-08T08:07:28Z</time>
      </trkpt>
      <trkpt lat="48.01014" lon="-3.75924">
        <ele>161.1</ele>
        <time>2020-06-08T08:07:29Z</time>
      </trkpt>
      <trkpt lat="48.01017" lon="-3.75921">
        <ele>161.2</ele>
        <time>2020-06-08T08:07:30Z</time>
      </trkpt>
      <trkpt lat="48.01019" lon="-3.75919">
        <ele>161.3</ele>
        <time>2020-06-08T08:07:31Z</time>
      </trkpt>
      <trkpt lat="48.01022" lon="-3.75916">
        <ele>161.5</ele>
        <time>2020-06-08T08:07:32Z</time>
      </trkpt>
      <trkpt lat="48.01025" lon="-3.75916">
        <ele>161.6</ele>
        <time>2020-06-08T08:07:33Z</time>
      </trkpt>
      <trkpt lat="48.01029" lon="-3.75915">
        <ele>161.7</ele>
        <time>2020-06-08T08:07:34Z</time>
      </trkpt>
      <trkpt lat="48.01032" lon="-3.75914">
        <ele>161.9</ele>
        <time>2020-06-08T08:07:35Z</time>
      </trkpt>
      <trkpt lat="48.01036" lon="-3.75913">
        <ele>162.1</ele>
        <time>2020-06-08T08:07:36Z</time>
      </trkpt>
      <trkpt lat="48.0104" lon="-3.75913">
        <ele>162.2</ele>
        <time>2020-06-08T08:07:37Z</time>
      </trkpt>
      <trkpt lat="48.01043" lon="-3.75913">
        <ele>162.3</ele>
        <time>2020-06-08T08:07:38Z</time>
      </trkpt>
      <trkpt lat="48.01047" lon="-3.75916">
        <ele>162.5</ele>
        <time>2020-06-08T08:07:39Z</time>
      </trkpt>
      <trkpt lat="48.01049" lon="-3.7592">
        <ele>162.7</ele>
        <time>2020-06-08T08:07:40Z</time>
      </trkpt>
      <trkpt lat="48.01053" lon="-3.75923">
        <ele>162.8</ele>
        <time>2020-06-08T08:07:41Z</time>
      </trkpt>
      <trkpt lat="48.01053" lon="-3.75925">
        <ele>162.9</ele>
        <time>2020-06-08T08:07:42Z</time>
      </trkpt>
      <trkpt lat="48.01055" lon="-3.7593">
        <ele>163.1</ele>
        <time>2020-06-08T08:07:43Z</time>
      </trkpt>
      <trkpt lat="48.01056" lon="-3.75932">
        <ele>163.1</ele>
        <time>2020-06-08T08:07:44Z</time>
      </trkpt>
      <trkpt lat="48.01057" lon="-3.75936">
        <ele>163.2</ele>
        <time>2020-06-08T08:07:45Z</time>
      </trkpt>
      <trkpt lat="48.01058" lon="-3.75941">
        <ele>163.4</ele>
        <time>2020-06-08T08:07:46Z</time>
      </trkpt>
      <trkpt lat="48.01059" lon="-3.75945">
        <ele>163.5</ele>
        <time>2020-06-08T08:07:47Z</time>
      </trkpt>
      <trkpt lat="48.0106" lon="-3.75948">
        <ele>163.6</ele>
        <time>2020-06-08T08:07:48Z</time>
      </trkpt>
      <trkpt lat="48.0106" lon="-3.7595">
        <ele>163.7</ele>
        <time>2020-06-08T08:07:49Z</time>
      </trkpt>
      <trkpt lat="48.01062" lon="-3.75953">
        <ele>163.8</ele>
        <time>2020-06-08T08:07:50Z</time>
      </trkpt>
      <trkpt lat="48.01063" lon="-3.75954">
        <ele>163.8</ele>
        <time>2020-06-08T08:07:51Z</time>
      </trkpt>
      <trkpt lat="48.01064" lon="-3.75958">
        <ele>163.9</ele>
        <time>2020-06-08T08:07:52Z</time>
      </trkpt>
      <trkpt lat="48.01064" lon="-3.75959">
        <ele>164</ele>
        <time>2020-06-08T08:07:53Z</time>
      </trkpt>
      <trkpt lat="48.01067" lon="-3.75964">
        <ele>164.1</ele>
        <time>2020-06-08T08:07:54Z</time>
      </trkpt>
      <trkpt lat="48.01068" lon="-3.75965">
        <ele>164.2</ele>
        <time>2020-06-08T08:07:55Z</time>
      </trkpt>
      <trkpt lat="48.0107" lon="-3.75968">
        <ele>164.3</ele>
        <time>2020-06-08T08:07:56Z</time>
      </trkpt>
      <trkpt lat="48.01073" lon="-3.75971">
        <ele>164.5</ele>
        <time>2020-06-08T08:07:57Z</time>
      </trkpt>
      <trkpt lat="48.01074" lon="-3.75971">
        <ele>164.5</ele>
        <time>2020-06-08T08:07:58Z</time>
      </trkpt>
      <trkpt lat="48.01078" lon="-3.7597">
        <ele>164.7</ele>
        <time>2020-06-08T08:07:59Z</time>
      </trkpt>
      <trkpt lat="48.01079" lon="-3.75968">
        <ele>164.7</ele>
        <time>2020-06-08T08:08:00Z</time>
      </trkpt>
      <trkpt lat="48.01082" lon="-3.75965">
        <ele>164.3</ele>
        <time>2020-06-08T08:08:01Z</time>
      </trkpt>
      <trkpt lat="48.01084" lon="-3.75961">
        <ele>164</ele>
        <time>2020-06-08T08:08:02Z</time>
      </trkpt>
      <trkpt lat="48.01085" lon="-3.75956">
        <ele>163.7</ele>
        <time>2020-06-08T08:08:03Z</time>
      </trkpt>
      <trkpt lat="48.01086" lon="-3.7595">
        <ele>163.4</ele>
        <time>2020-06-08T08:08:04Z</time>
      </trkpt>
      <trkpt lat="48.01087" lon="-3.75945">
        <ele>163.2</ele>
        <time>2020-06-08T08:08:05Z</time>
      </trkpt>
      <trkpt lat="48.01089" lon="-3.75939">
        <ele>162.8</ele>
        <time>2020-06-08T08:08:06Z</time>
      </trkpt>
      <trkpt lat="48.0109" lon="-3.75934">
        <ele>162.5</ele>
        <time>2020-06-08T08:08:07Z</time>
      </trkpt>
      <trkpt lat="48.01092" lon="-3.75929">
        <ele>162.2</ele>
        <time>2020-06-08T08:08:08Z</time>
      </trkpt>
      <trkpt lat="48.01093" lon="-3.75923">
        <ele>161.9</ele>
        <time>2020-06-08T08:08:09Z</time>
      </trkpt>
      <trkpt lat="48.01095" lon="-3.75917">
        <ele>161.6</ele>
        <time>2020-06-08T08:08:10Z</time>
      </trkpt>
      <trkpt lat="48.01097" lon="-3.75912">
        <ele>161.3</ele>
        <time>2020-06-08T08:08:11Z</time>
      </trkpt>
      <trkpt lat="48.01099" lon="-3.75907">
        <ele>161</ele>
        <time>2020-06-08T08:08:12Z</time>
      </trkpt>
      <trkpt lat="48.01101" lon="-3.75901">
        <ele>160.7</ele>
        <time>2020-06-08T08:08:13Z</time>
      </trkpt>
      <trkpt lat="48.01103" lon="-3.75896">
        <ele>160.4</ele>
        <time>2020-06-08T08:08:14Z</time>
      </trkpt>
      <trkpt lat="48.01105" lon="-3.75891">
        <ele>160.1</ele>
        <time>2020-06-08T08:08:15Z</time>
      </trkpt>
      <trkpt lat="48.01107" lon="-3.75886">
        <ele>159.7</ele>
        <time>2020-06-08T08:08:16Z</time>
      </trkpt>
      <trkpt lat="48.01109" lon="-3.7588">
        <ele>159.4</ele>
        <time>2020-06-08T08:08:17Z</time>
      </trkpt>
      <trkpt lat="48.01111" lon="-3.75874">
        <ele>159.1</ele>
        <time>2020-06-08T08:08:18Z</time>
      </trkpt>
      <trkpt lat="48.01113" lon="-3.75869">
        <ele>158.8</ele>
        <time>2020-06-08T08:08:19Z</time>
      </trkpt>
      <trkpt lat="48.01114" lon="-3.75863">
        <ele>158.4</ele>
        <time>2020-06-08T08:08:20Z</time>
      </trkpt>
      <trkpt lat="48.01116" lon="-3.75857">
        <ele>158.1</ele>
        <time>2020-06-08T08:08:21Z</time>
      </trkpt>
      <trkpt lat="48.01118" lon="-3.75852">
        <ele>157.8</ele>
        <time>2020-06-08T08:08:22Z</time>
      </trkpt>
      <trkpt lat="48.0112" lon="-3.75847">
        <ele>157.5</ele>
        <time>2020-06-08T08:08:23Z</time>
      </trkpt>
      <trkpt lat="48.01122" lon="-3.75841">
        <ele>157.2</ele>
        <time>2020-06-08T08:08:24Z</time>
      </trkpt>
      <trkpt lat="48.01125" lon="-3.75837">
        <ele>156.8</ele>
        <time>2020-06-08T08:08:25Z</time>
      </trkpt>
      <trkpt lat="48.01127" lon="-3.75831">
        <ele>156.5</ele>
        <time>2020-06-08T08:08:26Z</time>
      </trkpt>
      <trkpt lat="48.01129" lon="-3.75824">
        <ele>156.1</ele>
        <time>2020-06-08T08:08:27Z</time>
      </trkpt>
      <trkpt lat="48.01132" lon="-3.7582">
        <ele>155.8</ele>
        <time>2020-06-08T08:08:28Z</time>
      </trkpt>
      <trkpt lat="48.01134" lon="-3.75815">
        <ele>155.5</ele>
        <time>2020-06-08T08:08:29Z</time>
      </trkpt>
      <trkpt lat="48.01135" lon="-3.75809">
        <ele>155.2</ele>
        <time>2020-06-08T08:08:30Z</time>
      </trkpt>
      <trkpt lat="48.01136" lon="-3.75803">
        <ele>154.9</ele>
        <time>2020-06-08T08:08:31Z</time>
      </trkpt>
      <trkpt lat="48.01137" lon="-3.75797">
        <ele>154.5</ele>
        <time>2020-06-08T08:08:32Z</time>
      </trkpt>
      <trkpt lat="48.01138" lon="-3.75792">
        <ele>154.3</ele>
        <time>2020-06-08T08:08:33Z</time>
      </trkpt>
      <trkpt lat="48.01139" lon="-3.75787">
        <ele>154</ele>
        <time>2020-06-08T08:08:34Z</time>
      </trkpt>
      <trkpt lat="48.0114" lon="-3.75783">
        <ele>153.8</ele>
        <time>2020-06-08T08:08:35Z</time>
      </trkpt>
      <trkpt lat="48.01143" lon="-3.75777">
        <ele>153.4</ele>
        <time>2020-06-08T08:08:36Z</time>
      </trkpt>
      <trkpt lat="48.01145" lon="-3.75771">
        <ele>153</ele>
        <time>2020-06-08T08:08:37Z</time>
      </trkpt>
      <trkpt lat="48.01148" lon="-3.75765">
        <ele>152.7</ele>
        <time>2020-06-08T08:08:38Z</time>
      </trkpt>
      <trkpt lat="48.0115" lon="-3.75759">
        <ele>152.3</ele>
        <time>2020-06-08T08:08:39Z</time>
      </trkpt>
      <trkpt lat="48.01151" lon="-3.75753">
        <ele>152</ele>
        <time>2020-06-08T08:08:40Z</time>
      </trkpt>
      <trkpt lat="48.01153" lon="-3.75748">
        <ele>151.7</ele>
        <time>2020-06-08T08:08:41Z</time>
      </trkpt>
      <trkpt lat="48.01156" lon="-3.75745">
        <ele>151.4</ele>
        <time>2020-06-08T08:08:42Z</time>
      </trkpt>
      <trkpt lat="48.01159" lon="-3.75742">
        <ele>151.1</ele>
        <time>2020-06-08T08:08:43Z</time>
      </trkpt>
      <trkpt lat="48.01163" lon="-3.75739">
        <ele>150.8</ele>
        <time>2020-06-08T08:08:44Z</time>
      </trkpt>
      <trkpt lat="48.01168" lon="-3.75735">
        <ele>150.4</ele>
        <time>2020-06-08T08:08:45Z</time>
      </trkpt>
      <trkpt lat="48.01172" lon="-3.75733">
        <ele>150.1</ele>
        <time>2020-06-08T08:08:46Z</time>
      </trkpt>
      <trkpt lat="48.01175" lon="-3.75731">
        <ele>149.8</ele>
        <time>2020-06-08T08:08:47Z</time>
      </trkpt>
      <trkpt lat="48.01178" lon="-3.75728">
        <ele>149.5</ele>
        <time>2020-06-08T08:08:48Z</time>
      </trkpt>
      <trkpt lat="48.01181" lon="-3.75726">
        <ele>149.3</ele>
        <time>2020-06-08T08:08:49Z</time>
      </trkpt>
      <trkpt lat="48.01184" lon="-3.75724">
        <ele>149</ele>
        <time>2020-06-08T08:08:50Z</time>
      </trkpt>
      <trkpt lat="48.01188" lon="-3.75723">
        <ele>148.8</ele>
        <time>2020-06-08T08:08:51Z</time>
      </trkpt>
      <trkpt lat="48.01191" lon="-3.75723">
        <ele>148.5</ele>
        <time>2020-06-08T08:08:52Z</time>
      </trkpt>
      <trkpt lat="48.01194" lon="-3.75722">
        <ele>148.3</ele>
        <time>2020-06-08T08:08:53Z</time>
      </trkpt>
      <trkpt lat="48.01197" lon="-3.7572">
        <ele>148</ele>
        <time>2020-06-08T08:08:54Z</time>
      </trkpt>
      <trkpt lat="48.012" lon="-3.75716">
        <ele>147.7</ele>
        <time>2020-06-08T08:08:55Z</time>
      </trkpt>
      <trkpt lat="48.01203" lon="-3.7571">
        <ele>147.3</ele>
        <time>2020-06-08T08:08:56Z</time>
      </trkpt>
      <trkpt lat="48.01203" lon="-3.75704">
        <ele>147</ele>
        <time>2020-06-08T08:08:57Z</time>
      </trkpt>
      <trkpt lat="48.01204" lon="-3.75696">
        <ele>146.9</ele>
        <time>2020-06-08T08:08:58Z</time>
      </trkpt>
      <trkpt lat="48.01203" lon="-3.7569">
        <ele>146.8</ele>
        <time>2020-06-08T08:08:59Z</time>
      </trkpt>
      <trkpt lat="48.01202" lon="-3.75685">
        <ele>146.8</ele>
        <time>2020-06-08T08:09:00Z</time>
      </trkpt>
      <trkpt lat="48.01202" lon="-3.75678">
        <ele>146.7</ele>
        <time>2020-06-08T08:09:01Z</time>
      </trkpt>
      <trkpt lat="48.01201" lon="-3.75673">
        <ele>146.7</ele>
        <time>2020-06-08T08:09:02Z</time>
      </trkpt>
      <trkpt lat="48.01201" lon="-3.75666">
        <ele>146.7</ele>
        <time>2020-06-08T08:09:03Z</time>
      </trkpt>
      <trkpt lat="48.012" lon="-3.7566">
        <ele>146.6</ele>
        <time>2020-06-08T08:09:04Z</time>
      </trkpt>
      <trkpt lat="48.012" lon="-3.75654">
        <ele>146.6</ele>
        <time>2020-06-08T08:09:05Z</time>
      </trkpt>
      <trkpt lat="48.01199" lon="-3.75648">
        <ele>146.6</ele>
        <time>2020-06-08T08:09:06Z</time>
      </trkpt>
      <trkpt lat="48.01198" lon="-3.75643">
        <ele>146.7</ele>
        <time>2020-06-08T08:09:07Z</time>
      </trkpt>
      <trkpt lat="48.01198" lon="-3.75637">
        <ele>146.7</ele>
        <time>2020-06-08T08:09:08Z</time>
      </trkpt>
      <trkpt lat="48.01197" lon="-3.75632">
        <ele>146.7</ele>
        <time>2020-06-08T08:09:09Z</time>
      </trkpt>
      <trkpt lat="48.01196" lon="-3.75626">
        <ele>146.8</ele>
        <time>2020-06-08T08:09:10Z</time>
      </trkpt>
      <trkpt lat="48.01196" lon="-3.75621">
        <ele>146.8</ele>
        <time>2020-06-08T08:09:11Z</time>
      </trkpt>
      <trkpt lat="48.01196" lon="-3.75616">
        <ele>146.9</ele>
        <time>2020-06-08T08:09:12Z</time>
      </trkpt>
      <trkpt lat="48.01195" lon="-3.7561">
        <ele>147</ele>
        <time>2020-06-08T08:09:13Z</time>
      </trkpt>
      <trkpt lat="48.01194" lon="-3.75604">
        <ele>147</ele>
        <time>2020-06-08T08:09:14Z</time>
      </trkpt>
      <trkpt lat="48.01193" lon="-3.75598">
        <ele>147.1</ele>
        <time>2020-06-08T08:09:15Z</time>
      </trkpt>
      <trkpt lat="48.01192" lon="-3.75591">
        <ele>147.2</ele>
        <time>2020-06-08T08:09:16Z</time>
      </trkpt>
      <trkpt lat="48.01192" lon="-3.75584">
        <ele>147.3</ele>
        <time>2020-06-08T08:09:17Z</time>
      </trkpt>
      <trkpt lat="48.01192" lon="-3.75579">
        <ele>147.4</ele>
        <time>2020-06-08T08:09:18Z</time>
      </trkpt>
      <trkpt lat="48.01192" lon="-3.75574">
        <ele>147.5</ele>
        <time>2020-06-08T08:09:19Z</time>
      </trkpt>
      <trkpt lat="48.01192" lon="-3.75567">
        <ele>147.6</ele>
        <time>2020-06-08T08:09:20Z</time>
      </trkpt>
      <trkpt lat="48.01193" lon="-3.75561">
        <ele>147.7</ele>
        <time>2020-06-08T08:09:21Z</time>
      </trkpt>
      <trkpt lat="48.01192" lon="-3.75554">
        <ele>147.8</ele>
        <time>2020-06-08T08:09:22Z</time>
      </trkpt>
      <trkpt lat="48.01192" lon="-3.75548">
        <ele>147.9</ele>
        <time>2020-06-08T08:09:23Z</time>
      </trkpt>
      <trkpt lat="48.01192" lon="-3.75543">
        <ele>148</ele>
        <time>2020-06-08T08:09:24Z</time>
      </trkpt>
      <trkpt lat="48.01191" lon="-3.75538">
        <ele>148.1</ele>
        <time>2020-06-08T08:09:25Z</time>
      </trkpt>
      <trkpt lat="48.0119" lon="-3.75532">
        <ele>148.2</ele>
        <time>2020-06-08T08:09:26Z</time>
      </trkpt>
      <trkpt lat="48.0119" lon="-3.75527">
        <ele>148.4</ele>
        <time>2020-06-08T08:09:27Z</time>
      </trkpt>
      <trkpt lat="48.0119" lon="-3.75521">
        <ele>148.5</ele>
        <time>2020-06-08T08:09:28Z</time>
      </trkpt>
      <trkpt lat="48.0119" lon="-3.75515">
        <ele>148.6</ele>
        <time>2020-06-08T08:09:29Z</time>
      </trkpt>
      <trkpt lat="48.01189" lon="-3.7551">
        <ele>148.7</ele>
        <time>2020-06-08T08:09:30Z</time>
      </trkpt>
      <trkpt lat="48.01189" lon="-3.75505">
        <ele>148.9</ele>
        <time>2020-06-08T08:09:31Z</time>
      </trkpt>
      <trkpt lat="48.01189" lon="-3.755">
        <ele>149</ele>
        <time>2020-06-08T08:09:32Z</time>
      </trkpt>
      <trkpt lat="48.01189" lon="-3.75495">
        <ele>149.1</ele>
        <time>2020-06-08T08:09:33Z</time>
      </trkpt>
      <trkpt lat="48.0119" lon="-3.75489">
        <ele>149.3</ele>
        <time>2020-06-08T08:09:34Z</time>
      </trkpt>
      <trkpt lat="48.0119" lon="-3.75486">
        <ele>149.3</ele>
        <time>2020-06-08T08:09:35Z</time>
      </trkpt>
      <trkpt lat="48.01191" lon="-3.7548">
        <ele>149.5</ele>
        <time>2020-06-08T08:09:36Z</time>
      </trkpt>
      <trkpt lat="48.01191" lon="-3.75475">
        <ele>149.6</ele>
        <time>2020-06-08T08:09:37Z</time>
      </trkpt>
      <trkpt lat="48.0119" lon="-3.7547">
        <ele>149.7</ele>
        <time>2020-06-08T08:09:38Z</time>
      </trkpt>
      <trkpt lat="48.01191" lon="-3.75464">
        <ele>149.9</ele>
        <time>2020-06-08T08:09:39Z</time>
      </trkpt>
      <trkpt lat="48.01191" lon="-3.75459">
        <ele>150</ele>
        <time>2020-06-08T08:09:40Z</time>
      </trkpt>
      <trkpt lat="48.01191" lon="-3.75454">
        <ele>150.1</ele>
        <time>2020-06-08T08:09:41Z</time>
      </trkpt>
      <trkpt lat="48.0119" lon="-3.75449">
        <ele>150.2</ele>
        <time>2020-06-08T08:09:42Z</time>
      </trkpt>
      <trkpt lat="48.0119" lon="-3.75445">
        <ele>150.3</ele>
        <time>2020-06-08T08:09:43Z</time>
      </trkpt>
      <trkpt lat="48.01191" lon="-3.7544">
        <ele>150.5</ele>
        <time>2020-06-08T08:09:44Z</time>
      </trkpt>
      <trkpt lat="48.01192" lon="-3.75435">
        <ele>150.6</ele>
        <time>2020-06-08T08:09:45Z</time>
      </trkpt>
      <trkpt lat="48.01193" lon="-3.7543">
        <ele>150.7</ele>
        <time>2020-06-08T08:09:46Z</time>
      </trkpt>
      <trkpt lat="48.01193" lon="-3.75428">
        <ele>150.8</ele>
        <time>2020-06-08T08:09:47Z</time>
      </trkpt>
      <trkpt lat="48.01193" lon="-3.75423">
        <ele>150.9</ele>
        <time>2020-06-08T08:09:48Z</time>
      </trkpt>
      <trkpt lat="48.01194" lon="-3.75418">
        <ele>151</ele>
        <time>2020-06-08T08:09:49Z</time>
      </trkpt>
      <trkpt lat="48.01195" lon="-3.75416">
        <ele>151</ele>
        <time>2020-06-08T08:09:50Z</time>
      </trkpt>
      <trkpt lat="48.01195" lon="-3.7541">
        <ele>151.1</ele>
        <time>2020-06-08T08:09:51Z</time>
      </trkpt>
      <trkpt lat="48.01195" lon="-3.75408">
        <ele>151.2</ele>
        <time>2020-06-08T08:09:52Z</time>
      </trkpt>
      <trkpt lat="48.01195" lon="-3.75403">
        <ele>151.2</ele>
        <time>2020-06-08T08:09:53Z</time>
      </trkpt>
      <trkpt lat="48.01196" lon="-3.75396">
        <ele>151.4</ele>
        <time>2020-06-08T08:09:54Z</time>
      </trkpt>
      <trkpt lat="48.01196" lon="-3.75392">
        <ele>151.4</ele>
        <time>2020-06-08T08:09:55Z</time>
      </trkpt>
      <trkpt lat="48.01195" lon="-3.75388">
        <ele>151.5</ele>
        <time>2020-06-08T08:09:56Z</time>
      </trkpt>
      <trkpt lat="48.01195" lon="-3.75381">
        <ele>151.6</ele>
        <time>2020-06-08T08:09:57Z</time>
      </trkpt>
      <trkpt lat="48.01195" lon="-3.75375">
        <ele>151.7</ele>
        <time>2020-06-08T08:09:58Z</time>
      </trkpt>
      <trkpt lat="48.01196" lon="-3.75371">
        <ele>151.8</ele>
        <time>2020-06-08T08:09:59Z</time>
      </trkpt>
      <trkpt lat="48.01197" lon="-3.75364">
        <ele>151.9</ele>
        <time>2020-06-08T08:10:00Z</time>
      </trkpt>
      <trkpt lat="48.01198" lon="-3.75358">
        <ele>152</ele>
        <time>2020-06-08T08:10:01Z</time>
      </trkpt>
      <trkpt lat="48.01198" lon="-3.75353">
        <ele>152.1</ele>
        <time>2020-06-08T08:10:02Z</time>
      </trkpt>
      <trkpt lat="48.01198" lon="-3.75348">
        <ele>152.2</ele>
        <time>2020-06-08T08:10:03Z</time>
      </trkpt>
      <trkpt lat="48.01198" lon="-3.75343">
        <ele>152.3</ele>
        <time>2020-06-08T08:10:04Z</time>
      </trkpt>
      <trkpt lat="48.01197" lon="-3.75337">
        <ele>152.4</ele>
        <time>2020-06-08T08:10:05Z</time>
      </trkpt>
      <trkpt lat="48.01197" lon="-3.75332">
        <ele>152.5</ele>
        <time>2020-06-08T08:10:06Z</time>
      </trkpt>
      <trkpt lat="48.01197" lon="-3.75325">
        <ele>152.6</ele>
        <time>2020-06-08T08:10:07Z</time>
      </trkpt>
      <trkpt lat="48.01198" lon="-3.75319">
        <ele>152.7</ele>
        <time>2020-06-08T08:10:08Z</time>
      </trkpt>
      <trkpt lat="48.01199" lon="-3.75314">
        <ele>152.8</ele>
        <time>2020-06-08T08:10:09Z</time>
      </trkpt>
      <trkpt lat="48.01199" lon="-3.7531">
        <ele>152.9</ele>
        <time>2020-06-08T08:10:10Z</time>
      </trkpt>
      <trkpt lat="48.012" lon="-3.75306">
        <ele>153</ele>
        <time>2020-06-08T08:10:11Z</time>
      </trkpt>
      <trkpt lat="48.012" lon="-3.75302">
        <ele>153.1</ele>
        <time>2020-06-08T08:10:12Z</time>
      </trkpt>
      <trkpt lat="48.01201" lon="-3.75297">
        <ele>153.2</ele>
        <time>2020-06-08T08:10:13Z</time>
      </trkpt>
      <trkpt lat="48.01202" lon="-3.75292">
        <ele>153.3</ele>
        <time>2020-06-08T08:10:14Z</time>
      </trkpt>
      <trkpt lat="48.01202" lon="-3.75287">
        <ele>153.4</ele>
        <time>2020-06-08T08:10:15Z</time>
      </trkpt>
      <trkpt lat="48.01203" lon="-3.75282">
        <ele>153.5</ele>
        <time>2020-06-08T08:10:16Z</time>
      </trkpt>
      <trkpt lat="48.01205" lon="-3.75276">
        <ele>153.6</ele>
        <time>2020-06-08T08:10:17Z</time>
      </trkpt>
      <trkpt lat="48.01205" lon="-3.75274">
        <ele>153.6</ele>
        <time>2020-06-08T08:10:18Z</time>
      </trkpt>
      <trkpt lat="48.01207" lon="-3.7527">
        <ele>153.7</ele>
        <time>2020-06-08T08:10:19Z</time>
      </trkpt>
      <trkpt lat="48.01208" lon="-3.75265">
        <ele>153.8</ele>
        <time>2020-06-08T08:10:20Z</time>
      </trkpt>
      <trkpt lat="48.01209" lon="-3.7526">
        <ele>153.9</ele>
        <time>2020-06-08T08:10:21Z</time>
      </trkpt>
      <trkpt lat="48.0121" lon="-3.75255">
        <ele>153.9</ele>
        <time>2020-06-08T08:10:22Z</time>
      </trkpt>
      <trkpt lat="48.0121" lon="-3.7525">
        <ele>153.9</ele>
        <time>2020-06-08T08:10:23Z</time>
      </trkpt>
      <trkpt lat="48.01211" lon="-3.75246">
        <ele>153.9</ele>
        <time>2020-06-08T08:10:24Z</time>
      </trkpt>
      <trkpt lat="48.01213" lon="-3.75241">
        <ele>153.9</ele>
        <time>2020-06-08T08:10:25Z</time>
      </trkpt>
      <trkpt lat="48.01215" lon="-3.75236">
        <ele>154</ele>
        <time>2020-06-08T08:10:26Z</time>
      </trkpt>
      <trkpt lat="48.01217" lon="-3.75232">
        <ele>154</ele>
        <time>2020-06-08T08:10:27Z</time>
      </trkpt>
      <trkpt lat="48.0122" lon="-3.7523">
        <ele>154</ele>
        <time>2020-06-08T08:10:28Z</time>
      </trkpt>
      <trkpt lat="48.01223" lon="-3.75228">
        <ele>154.6</ele>
        <time>2020-06-08T08:10:29Z</time>
      </trkpt>
      <trkpt lat="48.01227" lon="-3.75227">
        <ele>154.8</ele>
        <time>2020-06-08T08:10:30Z</time>
      </trkpt>
      <trkpt lat="48.0123" lon="-3.75228">
        <ele>154.9</ele>
        <time>2020-06-08T08:10:31Z</time>
      </trkpt>
      <trkpt lat="48.01234" lon="-3.75229">
        <ele>155.1</ele>
        <time>2020-06-08T08:10:32Z</time>
      </trkpt>
      <trkpt lat="48.01238" lon="-3.75231">
        <ele>155.3</ele>
        <time>2020-06-08T08:10:33Z</time>
      </trkpt>
      <trkpt lat="48.01242" lon="-3.75233">
        <ele>155.5</ele>
        <time>2020-06-08T08:10:34Z</time>
      </trkpt>
      <trkpt lat="48.01245" lon="-3.75235">
        <ele>155.6</ele>
        <time>2020-06-08T08:10:35Z</time>
      </trkpt>
      <trkpt lat="48.01249" lon="-3.75236">
        <ele>155.8</ele>
        <time>2020-06-08T08:10:36Z</time>
      </trkpt>
      <trkpt lat="48.01253" lon="-3.75237">
        <ele>155.9</ele>
        <time>2020-06-08T08:10:37Z</time>
      </trkpt>
      <trkpt lat="48.01256" lon="-3.75238">
        <ele>156.1</ele>
        <time>2020-06-08T08:10:38Z</time>
      </trkpt>
      <trkpt lat="48.0126" lon="-3.75239">
        <ele>156.2</ele>
        <time>2020-06-08T08:10:39Z</time>
      </trkpt>
      <trkpt lat="48.01263" lon="-3.7524">
        <ele>156.3</ele>
        <time>2020-06-08T08:10:40Z</time>
      </trkpt>
      <trkpt lat="48.01267" lon="-3.75243">
        <ele>156.5</ele>
        <time>2020-06-08T08:10:41Z</time>
      </trkpt>
      <trkpt lat="48.0127" lon="-3.75244">
        <ele>156.7</ele>
        <time>2020-06-08T08:10:42Z</time>
      </trkpt>
      <trkpt lat="48.01272" lon="-3.75246">
        <ele>156.8</ele>
        <time>2020-06-08T08:10:43Z</time>
      </trkpt>
      <trkpt lat="48.01276" lon="-3.75247">
        <ele>156.9</ele>
        <time>2020-06-08T08:10:44Z</time>
      </trkpt>
      <trkpt lat="48.01279" lon="-3.75249">
        <ele>157</ele>
        <time>2020-06-08T08:10:45Z</time>
      </trkpt>
      <trkpt lat="48.01281" lon="-3.75251">
        <ele>157.1</ele>
        <time>2020-06-08T08:10:46Z</time>
      </trkpt>
      <trkpt lat="48.01284" lon="-3.75254">
        <ele>157.2</ele>
        <time>2020-06-08T08:10:47Z</time>
      </trkpt>
      <trkpt lat="48.01288" lon="-3.75255">
        <ele>157.3</ele>
        <time>2020-06-08T08:10:48Z</time>
      </trkpt>
      <trkpt lat="48.01292" lon="-3.75257">
        <ele>157.5</ele>
        <time>2020-06-08T08:10:49Z</time>
      </trkpt>
      <trkpt lat="48.01296" lon="-3.75259">
        <ele>157.7</ele>
        <time>2020-06-08T08:10:50Z</time>
      </trkpt>
      <trkpt lat="48.01299" lon="-3.7526">
        <ele>157.7</ele>
        <time>2020-06-08T08:10:51Z</time>
      </trkpt>
      <trkpt lat="48.01302" lon="-3.75261">
        <ele>157.8</ele>
        <time>2020-06-08T08:10:52Z</time>
      </trkpt>
      <trkpt lat="48.01306" lon="-3.75262">
        <ele>157.9</ele>
        <time>2020-06-08T08:10:53Z</time>
      </trkpt>
      <trkpt lat="48.01309" lon="-3.75263">
        <ele>158</ele>
        <time>2020-06-08T08:10:54Z</time>
      </trkpt>
      <trkpt lat="48.01313" lon="-3.75264">
        <ele>158</ele>
        <time>2020-06-08T08:10:55Z</time>
      </trkpt>
      <trkpt lat="48.01316" lon="-3.75265">
        <ele>158.1</ele>
        <time>2020-06-08T08:10:56Z</time>
      </trkpt>
      <trkpt lat="48.01319" lon="-3.75266">
        <ele>158.1</ele>
        <time>2020-06-08T08:10:57Z</time>
      </trkpt>
      <trkpt lat="48.01323" lon="-3.75268">
        <ele>158.2</ele>
        <time>2020-06-08T08:10:58Z</time>
      </trkpt>
      <trkpt lat="48.01324" lon="-3.75269">
        <ele>158.2</ele>
        <time>2020-06-08T08:10:59Z</time>
      </trkpt>
      <trkpt lat="48.01328" lon="-3.7527">
        <ele>158.3</ele>
        <time>2020-06-08T08:11:00Z</time>
      </trkpt>
      <trkpt lat="48.01331" lon="-3.75272">
        <ele>158.3</ele>
        <time>2020-06-08T08:11:01Z</time>
      </trkpt>
      <trkpt lat="48.01333" lon="-3.75274">
        <ele>158.4</ele>
        <time>2020-06-08T08:11:02Z</time>
      </trkpt>
      <trkpt lat="48.01336" lon="-3.75276">
        <ele>158.4</ele>
        <time>2020-06-08T08:11:03Z</time>
      </trkpt>
      <trkpt lat="48.01339" lon="-3.75278">
        <ele>158.4</ele>
        <time>2020-06-08T08:11:04Z</time>
      </trkpt>
      <trkpt lat="48.01342" lon="-3.7528">
        <ele>158.4</ele>
        <time>2020-06-08T08:11:05Z</time>
      </trkpt>
      <trkpt lat="48.01345" lon="-3.75282">
        <ele>158.4</ele>
        <time>2020-06-08T08:11:06Z</time>
      </trkpt>
      <trkpt lat="48.01348" lon="-3.75283">
        <ele>158.4</ele>
        <time>2020-06-08T08:11:07Z</time>
      </trkpt>
      <trkpt lat="48.01351" lon="-3.75286">
        <ele>158.4</ele>
        <time>2020-06-08T08:11:08Z</time>
      </trkpt>
      <trkpt lat="48.01354" lon="-3.75286">
        <ele>158.4</ele>
        <time>2020-06-08T08:11:09Z</time>
      </trkpt>
      <trkpt lat="48.01357" lon="-3.75288">
        <ele>158.4</ele>
        <time>2020-06-08T08:11:10Z</time>
      </trkpt>
      <trkpt lat="48.01358" lon="-3.75288">
        <ele>158.4</ele>
        <time>2020-06-08T08:11:11Z</time>
      </trkpt>
      <trkpt lat="48.01362" lon="-3.7529">
        <ele>158.4</ele>
        <time>2020-06-08T08:11:12Z</time>
      </trkpt>
      <trkpt lat="48.01365" lon="-3.75292">
        <ele>158.4</ele>
        <time>2020-06-08T08:11:13Z</time>
      </trkpt>
      <trkpt lat="48.01368" lon="-3.75293">
        <ele>158.4</ele>
        <time>2020-06-08T08:11:14Z</time>
      </trkpt>
      <trkpt lat="48.01371" lon="-3.75295">
        <ele>158.5</ele>
        <time>2020-06-08T08:11:15Z</time>
      </trkpt>
      <trkpt lat="48.01374" lon="-3.75296">
        <ele>158.5</ele>
        <time>2020-06-08T08:11:16Z</time>
      </trkpt>
      <trkpt lat="48.01377" lon="-3.75298">
        <ele>158.5</ele>
        <time>2020-06-08T08:11:17Z</time>
      </trkpt>
      <trkpt lat="48.01381" lon="-3.753">
        <ele>158.6</ele>
        <time>2020-06-08T08:11:18Z</time>
      </trkpt>
      <trkpt lat="48.01384" lon="-3.75302">
        <ele>158.7</ele>
        <time>2020-06-08T08:11:19Z</time>
      </trkpt>
      <trkpt lat="48.01388" lon="-3.75304">
        <ele>158.9</ele>
        <time>2020-06-08T08:11:20Z</time>
      </trkpt>
      <trkpt lat="48.0139" lon="-3.75306">
        <ele>159</ele>
        <time>2020-06-08T08:11:21Z</time>
      </trkpt>
      <trkpt lat="48.01393" lon="-3.75307">
        <ele>159.1</ele>
        <time>2020-06-08T08:11:22Z</time>
      </trkpt>
      <trkpt lat="48.01396" lon="-3.75309">
        <ele>159.2</ele>
        <time>2020-06-08T08:11:23Z</time>
      </trkpt>
      <trkpt lat="48.01399" lon="-3.75311">
        <ele>159.3</ele>
        <time>2020-06-08T08:11:24Z</time>
      </trkpt>
      <trkpt lat="48.01403" lon="-3.75313">
        <ele>159.4</ele>
        <time>2020-06-08T08:11:25Z</time>
      </trkpt>
      <trkpt lat="48.01405" lon="-3.75314">
        <ele>159.5</ele>
        <time>2020-06-08T08:11:26Z</time>
      </trkpt>
      <trkpt lat="48.01409" lon="-3.75316">
        <ele>159.6</ele>
        <time>2020-06-08T08:11:27Z</time>
      </trkpt>
      <trkpt lat="48.01412" lon="-3.75316">
        <ele>159.7</ele>
        <time>2020-06-08T08:11:28Z</time>
      </trkpt>
      <trkpt lat="48.01416" lon="-3.75317">
        <ele>159.7</ele>
        <time>2020-06-08T08:11:29Z</time>
      </trkpt>
      <trkpt lat="48.0142" lon="-3.75318">
        <ele>159.8</ele>
        <time>2020-06-08T08:11:30Z</time>
      </trkpt>
      <trkpt lat="48.01424" lon="-3.7532">
        <ele>159.9</ele>
        <time>2020-06-08T08:11:31Z</time>
      </trkpt>
      <trkpt lat="48.01427" lon="-3.75323">
        <ele>160</ele>
        <time>2020-06-08T08:11:32Z</time>
      </trkpt>
      <trkpt lat="48.0143" lon="-3.75325">
        <ele>160.1</ele>
        <time>2020-06-08T08:11:33Z</time>
      </trkpt>
      <trkpt lat="48.01433" lon="-3.75326">
        <ele>160.3</ele>
        <time>2020-06-08T08:11:34Z</time>
      </trkpt>
      <trkpt lat="48.01435" lon="-3.75328">
        <ele>160.4</ele>
        <time>2020-06-08T08:11:35Z</time>
      </trkpt>
      <trkpt lat="48.01438" lon="-3.7533">
        <ele>160.5</ele>
        <time>2020-06-08T08:11:36Z</time>
      </trkpt>
      <trkpt lat="48.01441" lon="-3.75331">
        <ele>160.7</ele>
        <time>2020-06-08T08:11:37Z</time>
      </trkpt>
      <trkpt lat="48.01445" lon="-3.75332">
        <ele>160.8</ele>
        <time>2020-06-08T08:11:38Z</time>
      </trkpt>
      <trkpt lat="48.01448" lon="-3.75333">
        <ele>160.9</ele>
        <time>2020-06-08T08:11:39Z</time>
      </trkpt>
      <trkpt lat="48.01451" lon="-3.75335">
        <ele>161.1</ele>
        <time>2020-06-08T08:11:40Z</time>
      </trkpt>
      <trkpt lat="48.01455" lon="-3.75336">
        <ele>161.2</ele>
        <time>2020-06-08T08:11:41Z</time>
      </trkpt>
      <trkpt lat="48.01458" lon="-3.75338">
        <ele>161.3</ele>
        <time>2020-06-08T08:11:42Z</time>
      </trkpt>
      <trkpt lat="48.0146" lon="-3.75339">
        <ele>161.5</ele>
        <time>2020-06-08T08:11:43Z</time>
      </trkpt>
      <trkpt lat="48.01463" lon="-3.75341">
        <ele>161.6</ele>
        <time>2020-06-08T08:11:44Z</time>
      </trkpt>
      <trkpt lat="48.01466" lon="-3.75343">
        <ele>161.7</ele>
        <time>2020-06-08T08:11:45Z</time>
      </trkpt>
      <trkpt lat="48.01469" lon="-3.75345">
        <ele>161.8</ele>
        <time>2020-06-08T08:11:46Z</time>
      </trkpt>
      <trkpt lat="48.01472" lon="-3.75347">
        <ele>162</ele>
        <time>2020-06-08T08:11:47Z</time>
      </trkpt>
      <trkpt lat="48.01475" lon="-3.75349">
        <ele>162.1</ele>
        <time>2020-06-08T08:11:48Z</time>
      </trkpt>
      <trkpt lat="48.01478" lon="-3.7535">
        <ele>162.3</ele>
        <time>2020-06-08T08:11:49Z</time>
      </trkpt>
      <trkpt lat="48.01481" lon="-3.75351">
        <ele>162.4</ele>
        <time>2020-06-08T08:11:50Z</time>
      </trkpt>
      <trkpt lat="48.01484" lon="-3.75352">
        <ele>162.6</ele>
        <time>2020-06-08T08:11:51Z</time>
      </trkpt>
      <trkpt lat="48.01487" lon="-3.75354">
        <ele>162.7</ele>
        <time>2020-06-08T08:11:52Z</time>
      </trkpt>
      <trkpt lat="48.0149" lon="-3.75355">
        <ele>162.9</ele>
        <time>2020-06-08T08:11:53Z</time>
      </trkpt>
      <trkpt lat="48.01493" lon="-3.75357">
        <ele>163.1</ele>
        <time>2020-06-08T08:11:54Z</time>
      </trkpt>
      <trkpt lat="48.01496" lon="-3.75358">
        <ele>163.2</ele>
        <time>2020-06-08T08:11:55Z</time>
      </trkpt>
      <trkpt lat="48.01499" lon="-3.7536">
        <ele>163.4</ele>
        <time>2020-06-08T08:11:56Z</time>
      </trkpt>
      <trkpt lat="48.01501" lon="-3.75361">
        <ele>163.4</ele>
        <time>2020-06-08T08:11:57Z</time>
      </trkpt>
      <trkpt lat="48.01504" lon="-3.75362">
        <ele>163.6</ele>
        <time>2020-06-08T08:11:58Z</time>
      </trkpt>
      <trkpt lat="48.01507" lon="-3.75363">
        <ele>163.7</ele>
        <time>2020-06-08T08:11:59Z</time>
      </trkpt>
      <trkpt lat="48.0151" lon="-3.75364">
        <ele>163.8</ele>
        <time>2020-06-08T08:12:00Z</time>
      </trkpt>
      <trkpt lat="48.01514" lon="-3.75365">
        <ele>163.9</ele>
        <time>2020-06-08T08:12:01Z</time>
      </trkpt>
      <trkpt lat="48.01515" lon="-3.75366">
        <ele>164</ele>
        <time>2020-06-08T08:12:02Z</time>
      </trkpt>
      <trkpt lat="48.01517" lon="-3.75367">
        <ele>164.1</ele>
        <time>2020-06-08T08:12:03Z</time>
      </trkpt>
      <trkpt lat="48.01521" lon="-3.75369">
        <ele>164.3</ele>
        <time>2020-06-08T08:12:04Z</time>
      </trkpt>
      <trkpt lat="48.01522" lon="-3.7537">
        <ele>164.4</ele>
        <time>2020-06-08T08:12:05Z</time>
      </trkpt>
      <trkpt lat="48.01525" lon="-3.75372">
        <ele>164.5</ele>
        <time>2020-06-08T08:12:06Z</time>
      </trkpt>
      <trkpt lat="48.01528" lon="-3.75373">
        <ele>164.7</ele>
        <time>2020-06-08T08:12:07Z</time>
      </trkpt>
      <trkpt lat="48.01531" lon="-3.75375">
        <ele>164.9</ele>
        <time>2020-06-08T08:12:08Z</time>
      </trkpt>
      <trkpt lat="48.01534" lon="-3.75376">
        <ele>165.1</ele>
        <time>2020-06-08T08:12:09Z</time>
      </trkpt>
      <trkpt lat="48.01537" lon="-3.75377">
        <ele>165.2</ele>
        <time>2020-06-08T08:12:10Z</time>
      </trkpt>
      <trkpt lat="48.01541" lon="-3.75379">
        <ele>165.4</ele>
        <time>2020-06-08T08:12:11Z</time>
      </trkpt>
      <trkpt lat="48.01542" lon="-3.7538">
        <ele>165.4</ele>
        <time>2020-06-08T08:12:12Z</time>
      </trkpt>
      <trkpt lat="48.01545" lon="-3.75381">
        <ele>165.5</ele>
        <time>2020-06-08T08:12:13Z</time>
      </trkpt>
      <trkpt lat="48.01548" lon="-3.75382">
        <ele>165.6</ele>
        <time>2020-06-08T08:12:14Z</time>
      </trkpt>
      <trkpt lat="48.01551" lon="-3.75383">
        <ele>165.7</ele>
        <time>2020-06-08T08:12:15Z</time>
      </trkpt>
      <trkpt lat="48.01554" lon="-3.75385">
        <ele>165.8</ele>
        <time>2020-06-08T08:12:16Z</time>
      </trkpt>
      <trkpt lat="48.01557" lon="-3.75386">
        <ele>165.8</ele>
        <time>2020-06-08T08:12:17Z</time>
      </trkpt>
      <trkpt lat="48.0156" lon="-3.75387">
        <ele>165.9</ele>
        <time>2020-06-08T08:12:18Z</time>
      </trkpt>
      <trkpt lat="48.01563" lon="-3.75389">
        <ele>166</ele>
        <time>2020-06-08T08:12:19Z</time>
      </trkpt>
      <trkpt lat="48.01566" lon="-3.75391">
        <ele>166</ele>
        <time>2020-06-08T08:12:20Z</time>
      </trkpt>
      <trkpt lat="48.01569" lon="-3.75393">
        <ele>166.2</ele>
        <time>2020-06-08T08:12:21Z</time>
      </trkpt>
      <trkpt lat="48.01572" lon="-3.75395">
        <ele>166.3</ele>
        <time>2020-06-08T08:12:22Z</time>
      </trkpt>
      <trkpt lat="48.01573" lon="-3.75396">
        <ele>166.4</ele>
        <time>2020-06-08T08:12:23Z</time>
      </trkpt>
      <trkpt lat="48.01576" lon="-3.75397">
        <ele>166.5</ele>
        <time>2020-06-08T08:12:24Z</time>
      </trkpt>
      <trkpt lat="48.01579" lon="-3.75398">
        <ele>166.6</ele>
        <time>2020-06-08T08:12:25Z</time>
      </trkpt>
      <trkpt lat="48.01582" lon="-3.75399">
        <ele>166.8</ele>
        <time>2020-06-08T08:12:26Z</time>
      </trkpt>
      <trkpt lat="48.01585" lon="-3.75402">
        <ele>166.9</ele>
        <time>2020-06-08T08:12:27Z</time>
      </trkpt>
      <trkpt lat="48.01587" lon="-3.75403">
        <ele>167.1</ele>
        <time>2020-06-08T08:12:28Z</time>
      </trkpt>
      <trkpt lat="48.0159" lon="-3.75405">
        <ele>167.2</ele>
        <time>2020-06-08T08:12:29Z</time>
      </trkpt>
      <trkpt lat="48.01593" lon="-3.75407">
        <ele>167.3</ele>
        <time>2020-06-08T08:12:30Z</time>
      </trkpt>
      <trkpt lat="48.01596" lon="-3.7541">
        <ele>167.4</ele>
        <time>2020-06-08T08:12:31Z</time>
      </trkpt>
      <trkpt lat="48.01599" lon="-3.75411">
        <ele>167.5</ele>
        <time>2020-06-08T08:12:32Z</time>
      </trkpt>
      <trkpt lat="48.01602" lon="-3.75412">
        <ele>167.6</ele>
        <time>2020-06-08T08:12:33Z</time>
      </trkpt>
      <trkpt lat="48.01605" lon="-3.75412">
        <ele>167.7</ele>
        <time>2020-06-08T08:12:34Z</time>
      </trkpt>
      <trkpt lat="48.01608" lon="-3.75413">
        <ele>167.9</ele>
        <time>2020-06-08T08:12:35Z</time>
      </trkpt>
      <trkpt lat="48.01611" lon="-3.75415">
        <ele>168</ele>
        <time>2020-06-08T08:12:36Z</time>
      </trkpt>
      <trkpt lat="48.01614" lon="-3.75417">
        <ele>168</ele>
        <time>2020-06-08T08:12:37Z</time>
      </trkpt>
      <trkpt lat="48.01618" lon="-3.75418">
        <ele>168</ele>
        <time>2020-06-08T08:12:38Z</time>
      </trkpt>
      <trkpt lat="48.01619" lon="-3.75419">
        <ele>168.1</ele>
        <time>2020-06-08T08:12:39Z</time>
      </trkpt>
      <trkpt lat="48.01622" lon="-3.7542">
        <ele>168.1</ele>
        <time>2020-06-08T08:12:40Z</time>
      </trkpt>
      <trkpt lat="48.01625" lon="-3.75421">
        <ele>168.1</ele>
        <time>2020-06-08T08:12:41Z</time>
      </trkpt>
      <trkpt lat="48.01627" lon="-3.75422">
        <ele>168.1</ele>
        <time>2020-06-08T08:12:42Z</time>
      </trkpt>
      <trkpt lat="48.0163" lon="-3.75424">
        <ele>168.2</ele>
        <time>2020-06-08T08:12:43Z</time>
      </trkpt>
      <trkpt lat="48.01633" lon="-3.75424">
        <ele>168.2</ele>
        <time>2020-06-08T08:12:44Z</time>
      </trkpt>
      <trkpt lat="48.01636" lon="-3.75425">
        <ele>168.2</ele>
        <time>2020-06-08T08:12:45Z</time>
      </trkpt>
      <trkpt lat="48.01639" lon="-3.75426">
        <ele>168.3</ele>
        <time>2020-06-08T08:12:46Z</time>
      </trkpt>
      <trkpt lat="48.01642" lon="-3.75428">
        <ele>168.4</ele>
        <time>2020-06-08T08:12:47Z</time>
      </trkpt>
      <trkpt lat="48.01646" lon="-3.75429">
        <ele>168.5</ele>
        <time>2020-06-08T08:12:48Z</time>
      </trkpt>
      <trkpt lat="48.01649" lon="-3.75431">
        <ele>168.5</ele>
        <time>2020-06-08T08:12:49Z</time>
      </trkpt>
      <trkpt lat="48.01651" lon="-3.75432">
        <ele>168.6</ele>
        <time>2020-06-08T08:12:50Z</time>
      </trkpt>
      <trkpt lat="48.01653" lon="-3.75434">
        <ele>168.6</ele>
        <time>2020-06-08T08:12:51Z</time>
      </trkpt>
      <trkpt lat="48.01657" lon="-3.75435">
        <ele>168.7</ele>
        <time>2020-06-08T08:12:52Z</time>
      </trkpt>
      <trkpt lat="48.01659" lon="-3.75436">
        <ele>168.7</ele>
        <time>2020-06-08T08:12:53Z</time>
      </trkpt>
      <trkpt lat="48.01661" lon="-3.75438">
        <ele>168.8</ele>
        <time>2020-06-08T08:12:54Z</time>
      </trkpt>
      <trkpt lat="48.01664" lon="-3.7544">
        <ele>168.8</ele>
        <time>2020-06-08T08:12:55Z</time>
      </trkpt>
      <trkpt lat="48.01667" lon="-3.75441">
        <ele>168.8</ele>
        <time>2020-06-08T08:12:56Z</time>
      </trkpt>
      <trkpt lat="48.0167" lon="-3.75443">
        <ele>168.8</ele>
        <time>2020-06-08T08:12:57Z</time>
      </trkpt>
      <trkpt lat="48.01673" lon="-3.75444">
        <ele>168.8</ele>
        <time>2020-06-08T08:12:58Z</time>
      </trkpt>
      <trkpt lat="48.01676" lon="-3.75445">
        <ele>168.8</ele>
        <time>2020-06-08T08:12:59Z</time>
      </trkpt>
      <trkpt lat="48.01679" lon="-3.75446">
        <ele>168.8</ele>
        <time>2020-06-08T08:13:00Z</time>
      </trkpt>
      <trkpt lat="48.01682" lon="-3.75447">
        <ele>168.9</ele>
        <time>2020-06-08T08:13:01Z</time>
      </trkpt>
      <trkpt lat="48.01685" lon="-3.7545">
        <ele>169</ele>
        <time>2020-06-08T08:13:02Z</time>
      </trkpt>
      <trkpt lat="48.01688" lon="-3.75451">
        <ele>169.1</ele>
        <time>2020-06-08T08:13:03Z</time>
      </trkpt>
      <trkpt lat="48.01691" lon="-3.75453">
        <ele>169.2</ele>
        <time>2020-06-08T08:13:04Z</time>
      </trkpt>
      <trkpt lat="48.01694" lon="-3.75454">
        <ele>169.3</ele>
        <time>2020-06-08T08:13:05Z</time>
      </trkpt>
      <trkpt lat="48.01697" lon="-3.75456">
        <ele>169.5</ele>
        <time>2020-06-08T08:13:06Z</time>
      </trkpt>
      <trkpt lat="48.017" lon="-3.75458">
        <ele>169.6</ele>
        <time>2020-06-08T08:13:07Z</time>
      </trkpt>
      <trkpt lat="48.01703" lon="-3.7546">
        <ele>169.8</ele>
        <time>2020-06-08T08:13:08Z</time>
      </trkpt>
      <trkpt lat="48.01707" lon="-3.75461">
        <ele>170</ele>
        <time>2020-06-08T08:13:09Z</time>
      </trkpt>
      <trkpt lat="48.01708" lon="-3.75462">
        <ele>170.1</ele>
        <time>2020-06-08T08:13:10Z</time>
      </trkpt>
      <trkpt lat="48.01711" lon="-3.75465">
        <ele>170.2</ele>
        <time>2020-06-08T08:13:11Z</time>
      </trkpt>
      <trkpt lat="48.01713" lon="-3.75465">
        <ele>170.3</ele>
        <time>2020-06-08T08:13:12Z</time>
      </trkpt>
      <trkpt lat="48.01717" lon="-3.75467">
        <ele>170.4</ele>
        <time>2020-06-08T08:13:13Z</time>
      </trkpt>
      <trkpt lat="48.0172" lon="-3.75467">
        <ele>170.5</ele>
        <time>2020-06-08T08:13:14Z</time>
      </trkpt>
      <trkpt lat="48.01724" lon="-3.75469">
        <ele>170.7</ele>
        <time>2020-06-08T08:13:15Z</time>
      </trkpt>
      <trkpt lat="48.01725" lon="-3.75469">
        <ele>170.7</ele>
        <time>2020-06-08T08:13:16Z</time>
      </trkpt>
      <trkpt lat="48.01728" lon="-3.75471">
        <ele>170.8</ele>
        <time>2020-06-08T08:13:17Z</time>
      </trkpt>
      <trkpt lat="48.01731" lon="-3.75473">
        <ele>170.9</ele>
        <time>2020-06-08T08:13:18Z</time>
      </trkpt>
      <trkpt lat="48.01735" lon="-3.75475">
        <ele>171.1</ele>
        <time>2020-06-08T08:13:19Z</time>
      </trkpt>
      <trkpt lat="48.01738" lon="-3.75477">
        <ele>171.2</ele>
        <time>2020-06-08T08:13:20Z</time>
      </trkpt>
      <trkpt lat="48.01741" lon="-3.75478">
        <ele>171.3</ele>
        <time>2020-06-08T08:13:21Z</time>
      </trkpt>
      <trkpt lat="48.01744" lon="-3.7548">
        <ele>171.5</ele>
        <time>2020-06-08T08:13:22Z</time>
      </trkpt>
      <trkpt lat="48.01747" lon="-3.75481">
        <ele>171.6</ele>
        <time>2020-06-08T08:13:23Z</time>
      </trkpt>
      <trkpt lat="48.0175" lon="-3.75483">
        <ele>171.8</ele>
        <time>2020-06-08T08:13:24Z</time>
      </trkpt>
      <trkpt lat="48.01753" lon="-3.75484">
        <ele>171.9</ele>
        <time>2020-06-08T08:13:25Z</time>
      </trkpt>
      <trkpt lat="48.01756" lon="-3.75485">
        <ele>172.1</ele>
        <time>2020-06-08T08:13:26Z</time>
      </trkpt>
      <trkpt lat="48.0176" lon="-3.75488">
        <ele>172.3</ele>
        <time>2020-06-08T08:13:27Z</time>
      </trkpt>
      <trkpt lat="48.01761" lon="-3.75489">
        <ele>172.4</ele>
        <time>2020-06-08T08:13:28Z</time>
      </trkpt>
      <trkpt lat="48.01764" lon="-3.7549">
        <ele>172.5</ele>
        <time>2020-06-08T08:13:29Z</time>
      </trkpt>
      <trkpt lat="48.01767" lon="-3.75491">
        <ele>172.6</ele>
        <time>2020-06-08T08:13:30Z</time>
      </trkpt>
      <trkpt lat="48.0177" lon="-3.75492">
        <ele>172.8</ele>
        <time>2020-06-08T08:13:31Z</time>
      </trkpt>
      <trkpt lat="48.01773" lon="-3.75493">
        <ele>172.9</ele>
        <time>2020-06-08T08:13:32Z</time>
      </trkpt>
      <trkpt lat="48.01776" lon="-3.75494">
        <ele>173</ele>
        <time>2020-06-08T08:13:33Z</time>
      </trkpt>
      <trkpt lat="48.01779" lon="-3.75494">
        <ele>173.2</ele>
        <time>2020-06-08T08:13:34Z</time>
      </trkpt>
      <trkpt lat="48.01783" lon="-3.75496">
        <ele>173.5</ele>
        <time>2020-06-08T08:13:35Z</time>
      </trkpt>
      <trkpt lat="48.01784" lon="-3.75497">
        <ele>173.6</ele>
        <time>2020-06-08T08:13:36Z</time>
      </trkpt>
      <trkpt lat="48.01788" lon="-3.75498">
        <ele>173.8</ele>
        <time>2020-06-08T08:13:37Z</time>
      </trkpt>
      <trkpt lat="48.01789" lon="-3.75498">
        <ele>173.9</ele>
        <time>2020-06-08T08:13:38Z</time>
      </trkpt>
      <trkpt lat="48.01792" lon="-3.75499">
        <ele>174.1</ele>
        <time>2020-06-08T08:13:39Z</time>
      </trkpt>
      <trkpt lat="48.01795" lon="-3.75502">
        <ele>174.3</ele>
        <time>2020-06-08T08:13:40Z</time>
      </trkpt>
      <trkpt lat="48.01797" lon="-3.75503">
        <ele>174.4</ele>
        <time>2020-06-08T08:13:41Z</time>
      </trkpt>
      <trkpt lat="48.01799" lon="-3.75505">
        <ele>174.5</ele>
        <time>2020-06-08T08:13:42Z</time>
      </trkpt>
      <trkpt lat="48.01803" lon="-3.75507">
        <ele>174.7</ele>
        <time>2020-06-08T08:13:43Z</time>
      </trkpt>
      <trkpt lat="48.01804" lon="-3.75508">
        <ele>174.8</ele>
        <time>2020-06-08T08:13:44Z</time>
      </trkpt>
      <trkpt lat="48.01808" lon="-3.7551">
        <ele>174.9</ele>
        <time>2020-06-08T08:13:45Z</time>
      </trkpt>
      <trkpt lat="48.01811" lon="-3.75511">
        <ele>175</ele>
        <time>2020-06-08T08:13:46Z</time>
      </trkpt>
      <trkpt lat="48.01814" lon="-3.75512">
        <ele>175.1</ele>
        <time>2020-06-08T08:13:47Z</time>
      </trkpt>
      <trkpt lat="48.01817" lon="-3.75513">
        <ele>175.2</ele>
        <time>2020-06-08T08:13:48Z</time>
      </trkpt>
      <trkpt lat="48.01821" lon="-3.75515">
        <ele>175.3</ele>
        <time>2020-06-08T08:13:49Z</time>
      </trkpt>
      <trkpt lat="48.01822" lon="-3.75515">
        <ele>175.4</ele>
        <time>2020-06-08T08:13:50Z</time>
      </trkpt>
      <trkpt lat="48.01825" lon="-3.75517">
        <ele>175.5</ele>
        <time>2020-06-08T08:13:51Z</time>
      </trkpt>
      <trkpt lat="48.01828" lon="-3.75519">
        <ele>175.7</ele>
        <time>2020-06-08T08:13:52Z</time>
      </trkpt>
      <trkpt lat="48.0183" lon="-3.7552">
        <ele>175.7</ele>
        <time>2020-06-08T08:13:53Z</time>
      </trkpt>
      <trkpt lat="48.01832" lon="-3.75523">
        <ele>175.8</ele>
        <time>2020-06-08T08:13:54Z</time>
      </trkpt>
      <trkpt lat="48.01835" lon="-3.75526">
        <ele>176</ele>
        <time>2020-06-08T08:13:55Z</time>
      </trkpt>
      <trkpt lat="48.01836" lon="-3.75526">
        <ele>176</ele>
        <time>2020-06-08T08:13:56Z</time>
      </trkpt>
      <trkpt lat="48.0184" lon="-3.75528">
        <ele>176.1</ele>
        <time>2020-06-08T08:13:57Z</time>
      </trkpt>
      <trkpt lat="48.01843" lon="-3.75529">
        <ele>176.3</ele>
        <time>2020-06-08T08:13:58Z</time>
      </trkpt>
      <trkpt lat="48.01846" lon="-3.7553">
        <ele>176.4</ele>
        <time>2020-06-08T08:13:59Z</time>
      </trkpt>
      <trkpt lat="48.01849" lon="-3.75531">
        <ele>176.5</ele>
        <time>2020-06-08T08:14:00Z</time>
      </trkpt>
      <trkpt lat="48.01853" lon="-3.75533">
        <ele>176.6</ele>
        <time>2020-06-08T08:14:01Z</time>
      </trkpt>
      <trkpt lat="48.01854" lon="-3.75533">
        <ele>176.7</ele>
        <time>2020-06-08T08:14:02Z</time>
      </trkpt>
      <trkpt lat="48.01858" lon="-3.75535">
        <ele>176.8</ele>
        <time>2020-06-08T08:14:03Z</time>
      </trkpt>
      <trkpt lat="48.01859" lon="-3.75535">
        <ele>176.8</ele>
        <time>2020-06-08T08:14:04Z</time>
      </trkpt>
      <trkpt lat="48.01862" lon="-3.75537">
        <ele>176.9</ele>
        <time>2020-06-08T08:14:05Z</time>
      </trkpt>
      <trkpt lat="48.01865" lon="-3.75538">
        <ele>177</ele>
        <time>2020-06-08T08:14:06Z</time>
      </trkpt>
      <trkpt lat="48.01869" lon="-3.7554">
        <ele>177</ele>
        <time>2020-06-08T08:14:07Z</time>
      </trkpt>
      <trkpt lat="48.01872" lon="-3.75542">
        <ele>177.1</ele>
        <time>2020-06-08T08:14:08Z</time>
      </trkpt>
      <trkpt lat="48.01876" lon="-3.75544">
        <ele>177.2</ele>
        <time>2020-06-08T08:14:09Z</time>
      </trkpt>
      <trkpt lat="48.0188" lon="-3.75546">
        <ele>177.3</ele>
        <time>2020-06-08T08:14:10Z</time>
      </trkpt>
      <trkpt lat="48.01883" lon="-3.75548">
        <ele>177.4</ele>
        <time>2020-06-08T08:14:11Z</time>
      </trkpt>
      <trkpt lat="48.01887" lon="-3.7555">
        <ele>177.4</ele>
        <time>2020-06-08T08:14:12Z</time>
      </trkpt>
      <trkpt lat="48.0189" lon="-3.75551">
        <ele>177.5</ele>
        <time>2020-06-08T08:14:13Z</time>
      </trkpt>
      <trkpt lat="48.01893" lon="-3.75553">
        <ele>177.5</ele>
        <time>2020-06-08T08:14:14Z</time>
      </trkpt>
      <trkpt lat="48.01896" lon="-3.75554">
        <ele>177.6</ele>
        <time>2020-06-08T08:14:15Z</time>
      </trkpt>
      <trkpt lat="48.01899" lon="-3.75556">
        <ele>177.7</ele>
        <time>2020-06-08T08:14:16Z</time>
      </trkpt>
      <trkpt lat="48.01903" lon="-3.75556">
        <ele>177.7</ele>
        <time>2020-06-08T08:14:17Z</time>
      </trkpt>
      <trkpt lat="48.01906" lon="-3.75559">
        <ele>177.8</ele>
        <time>2020-06-08T08:14:18Z</time>
      </trkpt>
      <trkpt lat="48.01909" lon="-3.7556">
        <ele>177.9</ele>
        <time>2020-06-08T08:14:19Z</time>
      </trkpt>
      <trkpt lat="48.01913" lon="-3.75559">
        <ele>177.9</ele>
        <time>2020-06-08T08:14:20Z</time>
      </trkpt>
      <trkpt lat="48.01916" lon="-3.7556">
        <ele>178</ele>
        <time>2020-06-08T08:14:21Z</time>
      </trkpt>
      <trkpt lat="48.01919" lon="-3.75561">
        <ele>178.1</ele>
        <time>2020-06-08T08:14:22Z</time>
      </trkpt>
      <trkpt lat="48.01922" lon="-3.75562">
        <ele>178.2</ele>
        <time>2020-06-08T08:14:23Z</time>
      </trkpt>
      <trkpt lat="48.01926" lon="-3.75562">
        <ele>178.3</ele>
        <time>2020-06-08T08:14:24Z</time>
      </trkpt>
      <trkpt lat="48.01929" lon="-3.75563">
        <ele>178.4</ele>
        <time>2020-06-08T08:14:25Z</time>
      </trkpt>
      <trkpt lat="48.01933" lon="-3.75563">
        <ele>178.4</ele>
        <time>2020-06-08T08:14:26Z</time>
      </trkpt>
      <trkpt lat="48.01936" lon="-3.75563">
        <ele>178.5</ele>
        <time>2020-06-08T08:14:27Z</time>
      </trkpt>
      <trkpt lat="48.0194" lon="-3.75564">
        <ele>178.5</ele>
        <time>2020-06-08T08:14:28Z</time>
      </trkpt>
      <trkpt lat="48.01943" lon="-3.75565">
        <ele>178.5</ele>
        <time>2020-06-08T08:14:29Z</time>
      </trkpt>
      <trkpt lat="48.01947" lon="-3.75565">
        <ele>178.6</ele>
        <time>2020-06-08T08:14:30Z</time>
      </trkpt>
      <trkpt lat="48.0195" lon="-3.75566">
        <ele>178.6</ele>
        <time>2020-06-08T08:14:31Z</time>
      </trkpt>
      <trkpt lat="48.01953" lon="-3.75565">
        <ele>178.7</ele>
        <time>2020-06-08T08:14:32Z</time>
      </trkpt>
      <trkpt lat="48.01957" lon="-3.75566">
        <ele>178.7</ele>
        <time>2020-06-08T08:14:33Z</time>
      </trkpt>
      <trkpt lat="48.01961" lon="-3.75566">
        <ele>178.8</ele>
        <time>2020-06-08T08:14:34Z</time>
      </trkpt>
      <trkpt lat="48.01965" lon="-3.75566">
        <ele>178.8</ele>
        <time>2020-06-08T08:14:35Z</time>
      </trkpt>
      <trkpt lat="48.01968" lon="-3.75567">
        <ele>178.8</ele>
        <time>2020-06-08T08:14:36Z</time>
      </trkpt>
      <trkpt lat="48.01972" lon="-3.75567">
        <ele>178.8</ele>
        <time>2020-06-08T08:14:37Z</time>
      </trkpt>
      <trkpt lat="48.01975" lon="-3.75568">
        <ele>178.7</ele>
        <time>2020-06-08T08:14:38Z</time>
      </trkpt>
      <trkpt lat="48.01978" lon="-3.7557">
        <ele>178.7</ele>
        <time>2020-06-08T08:14:39Z</time>
      </trkpt>
      <trkpt lat="48.01982" lon="-3.75571">
        <ele>178.7</ele>
        <time>2020-06-08T08:14:40Z</time>
      </trkpt>
      <trkpt lat="48.01986" lon="-3.75571">
        <ele>178.6</ele>
        <time>2020-06-08T08:14:41Z</time>
      </trkpt>
      <trkpt lat="48.0199" lon="-3.7557">
        <ele>178.6</ele>
        <time>2020-06-08T08:14:42Z</time>
      </trkpt>
      <trkpt lat="48.01994" lon="-3.75571">
        <ele>178.6</ele>
        <time>2020-06-08T08:14:43Z</time>
      </trkpt>
      <trkpt lat="48.01998" lon="-3.7557">
        <ele>178.5</ele>
        <time>2020-06-08T08:14:44Z</time>
      </trkpt>
      <trkpt lat="48.02002" lon="-3.75571">
        <ele>178.5</ele>
        <time>2020-06-08T08:14:45Z</time>
      </trkpt>
      <trkpt lat="48.02006" lon="-3.75571">
        <ele>178.5</ele>
        <time>2020-06-08T08:14:46Z</time>
      </trkpt>
      <trkpt lat="48.0201" lon="-3.75572">
        <ele>178.5</ele>
        <time>2020-06-08T08:14:47Z</time>
      </trkpt>
      <trkpt lat="48.02014" lon="-3.75574">
        <ele>178.5</ele>
        <time>2020-06-08T08:14:48Z</time>
      </trkpt>
      <trkpt lat="48.02018" lon="-3.75574">
        <ele>178.5</ele>
        <time>2020-06-08T08:14:49Z</time>
      </trkpt>
      <trkpt lat="48.02022" lon="-3.75574">
        <ele>178.5</ele>
        <time>2020-06-08T08:14:50Z</time>
      </trkpt>
      <trkpt lat="48.02026" lon="-3.75575">
        <ele>178.4</ele>
        <time>2020-06-08T08:14:51Z</time>
      </trkpt>
      <trkpt lat="48.0203" lon="-3.75576">
        <ele>178.4</ele>
        <time>2020-06-08T08:14:52Z</time>
      </trkpt>
      <trkpt lat="48.02033" lon="-3.75576">
        <ele>178.3</ele>
        <time>2020-06-08T08:14:53Z</time>
      </trkpt>
      <trkpt lat="48.02036" lon="-3.75576">
        <ele>178.3</ele>
        <time>2020-06-08T08:14:54Z</time>
      </trkpt>
      <trkpt lat="48.0204" lon="-3.75577">
        <ele>178.2</ele>
        <time>2020-06-08T08:14:55Z</time>
      </trkpt>
      <trkpt lat="48.02045" lon="-3.75577">
        <ele>178.1</ele>
        <time>2020-06-08T08:14:56Z</time>
      </trkpt>
      <trkpt lat="48.02049" lon="-3.75577">
        <ele>178.1</ele>
        <time>2020-06-08T08:14:57Z</time>
      </trkpt>
      <trkpt lat="48.02053" lon="-3.75578">
        <ele>178</ele>
        <time>2020-06-08T08:14:58Z</time>
      </trkpt>
      <trkpt lat="48.02056" lon="-3.75578">
        <ele>177.9</ele>
        <time>2020-06-08T08:14:59Z</time>
      </trkpt>
      <trkpt lat="48.0206" lon="-3.75579">
        <ele>177.7</ele>
        <time>2020-06-08T08:15:00Z</time>
      </trkpt>
      <trkpt lat="48.02065" lon="-3.75579">
        <ele>177.5</ele>
        <time>2020-06-08T08:15:01Z</time>
      </trkpt>
      <trkpt lat="48.02069" lon="-3.75579">
        <ele>177.3</ele>
        <time>2020-06-08T08:15:02Z</time>
      </trkpt>
      <trkpt lat="48.02073" lon="-3.75579">
        <ele>177</ele>
        <time>2020-06-08T08:15:03Z</time>
      </trkpt>
      <trkpt lat="48.02077" lon="-3.75578">
        <ele>176.9</ele>
        <time>2020-06-08T08:15:04Z</time>
      </trkpt>
      <trkpt lat="48.02081" lon="-3.75579">
        <ele>176.9</ele>
        <time>2020-06-08T08:15:05Z</time>
      </trkpt>
      <trkpt lat="48.02086" lon="-3.75579">
        <ele>176.8</ele>
        <time>2020-06-08T08:15:06Z</time>
      </trkpt>
      <trkpt lat="48.0209" lon="-3.75578">
        <ele>176.8</ele>
        <time>2020-06-08T08:15:07Z</time>
      </trkpt>
      <trkpt lat="48.02095" lon="-3.75578">
        <ele>176.7</ele>
        <time>2020-06-08T08:15:08Z</time>
      </trkpt>
      <trkpt lat="48.02099" lon="-3.75577">
        <ele>176.7</ele>
        <time>2020-06-08T08:15:09Z</time>
      </trkpt>
      <trkpt lat="48.02103" lon="-3.75576">
        <ele>176.6</ele>
        <time>2020-06-08T08:15:10Z</time>
      </trkpt>
      <trkpt lat="48.02107" lon="-3.75576">
        <ele>176.6</ele>
        <time>2020-06-08T08:15:11Z</time>
      </trkpt>
      <trkpt lat="48.02111" lon="-3.75576">
        <ele>176.5</ele>
        <time>2020-06-08T08:15:12Z</time>
      </trkpt>
      <trkpt lat="48.02115" lon="-3.75575">
        <ele>176.5</ele>
        <time>2020-06-08T08:15:13Z</time>
      </trkpt>
      <trkpt lat="48.02118" lon="-3.75574">
        <ele>176.5</ele>
        <time>2020-06-08T08:15:14Z</time>
      </trkpt>
      <trkpt lat="48.02122" lon="-3.75574">
        <ele>176.4</ele>
        <time>2020-06-08T08:15:15Z</time>
      </trkpt>
      <trkpt lat="48.02126" lon="-3.75573">
        <ele>176.4</ele>
        <time>2020-06-08T08:15:16Z</time>
      </trkpt>
      <trkpt lat="48.02129" lon="-3.75573">
        <ele>176.4</ele>
        <time>2020-06-08T08:15:17Z</time>
      </trkpt>
      <trkpt lat="48.02132" lon="-3.75573">
        <ele>176.4</ele>
        <time>2020-06-08T08:15:18Z</time>
      </trkpt>
      <trkpt lat="48.02135" lon="-3.75573">
        <ele>176.4</ele>
        <time>2020-06-08T08:15:19Z</time>
      </trkpt>
      <trkpt lat="48.02139" lon="-3.75572">
        <ele>176.4</ele>
        <time>2020-06-08T08:15:20Z</time>
      </trkpt>
      <trkpt lat="48.02142" lon="-3.75571">
        <ele>176.5</ele>
        <time>2020-06-08T08:15:21Z</time>
      </trkpt>
      <trkpt lat="48.02147" lon="-3.75569">
        <ele>176.6</ele>
        <time>2020-06-08T08:15:22Z</time>
      </trkpt>
      <trkpt lat="48.02151" lon="-3.75569">
        <ele>176.7</ele>
        <time>2020-06-08T08:15:23Z</time>
      </trkpt>
      <trkpt lat="48.02155" lon="-3.75569">
        <ele>176.8</ele>
        <time>2020-06-08T08:15:24Z</time>
      </trkpt>
      <trkpt lat="48.02159" lon="-3.75569">
        <ele>176.9</ele>
        <time>2020-06-08T08:15:25Z</time>
      </trkpt>
      <trkpt lat="48.02164" lon="-3.75569">
        <ele>177</ele>
        <time>2020-06-08T08:15:26Z</time>
      </trkpt>
      <trkpt lat="48.02168" lon="-3.75569">
        <ele>177</ele>
        <time>2020-06-08T08:15:27Z</time>
      </trkpt>
      <trkpt lat="48.02172" lon="-3.75569">
        <ele>177.1</ele>
        <time>2020-06-08T08:15:28Z</time>
      </trkpt>
      <trkpt lat="48.02177" lon="-3.75569">
        <ele>177.1</ele>
        <time>2020-06-08T08:15:29Z</time>
      </trkpt>
      <trkpt lat="48.02182" lon="-3.75569">
        <ele>177.1</ele>
        <time>2020-06-08T08:15:30Z</time>
      </trkpt>
      <trkpt lat="48.02186" lon="-3.75569">
        <ele>177.1</ele>
        <time>2020-06-08T08:15:31Z</time>
      </trkpt>
      <trkpt lat="48.02191" lon="-3.75569">
        <ele>177.1</ele>
        <time>2020-06-08T08:15:32Z</time>
      </trkpt>
      <trkpt lat="48.02195" lon="-3.75569">
        <ele>177</ele>
        <time>2020-06-08T08:15:33Z</time>
      </trkpt>
      <trkpt lat="48.022" lon="-3.75568">
        <ele>177</ele>
        <time>2020-06-08T08:15:34Z</time>
      </trkpt>
      <trkpt lat="48.02205" lon="-3.75568">
        <ele>176.9</ele>
        <time>2020-06-08T08:15:35Z</time>
      </trkpt>
      <trkpt lat="48.02209" lon="-3.75568">
        <ele>176.9</ele>
        <time>2020-06-08T08:15:36Z</time>
      </trkpt>
      <trkpt lat="48.02214" lon="-3.75567">
        <ele>176.8</ele>
        <time>2020-06-08T08:15:37Z</time>
      </trkpt>
      <trkpt lat="48.02219" lon="-3.75567">
        <ele>176.8</ele>
        <time>2020-06-08T08:15:38Z</time>
      </trkpt>
      <trkpt lat="48.02223" lon="-3.75567">
        <ele>176.8</ele>
        <time>2020-06-08T08:15:39Z</time>
      </trkpt>
      <trkpt lat="48.02227" lon="-3.75566">
        <ele>176.8</ele>
        <time>2020-06-08T08:15:40Z</time>
      </trkpt>
      <trkpt lat="48.02232" lon="-3.75566">
        <ele>176.8</ele>
        <time>2020-06-08T08:15:41Z</time>
      </trkpt>
      <trkpt lat="48.02236" lon="-3.75565">
        <ele>176.9</ele>
        <time>2020-06-08T08:15:42Z</time>
      </trkpt>
      <trkpt lat="48.02241" lon="-3.75564">
        <ele>176.9</ele>
        <time>2020-06-08T08:15:43Z</time>
      </trkpt>
      <trkpt lat="48.02245" lon="-3.75563">
        <ele>176.9</ele>
        <time>2020-06-08T08:15:44Z</time>
      </trkpt>
      <trkpt lat="48.0225" lon="-3.75563">
        <ele>176.9</ele>
        <time>2020-06-08T08:15:45Z</time>
      </trkpt>
      <trkpt lat="48.02254" lon="-3.75562">
        <ele>177</ele>
        <time>2020-06-08T08:15:46Z</time>
      </trkpt>
      <trkpt lat="48.02257" lon="-3.75561">
        <ele>177</ele>
        <time>2020-06-08T08:15:47Z</time>
      </trkpt>
      <trkpt lat="48.02261" lon="-3.7556">
        <ele>177</ele>
        <time>2020-06-08T08:15:48Z</time>
      </trkpt>
      <trkpt lat="48.02265" lon="-3.7556">
        <ele>177</ele>
        <time>2020-06-08T08:15:49Z</time>
      </trkpt>
      <trkpt lat="48.02269" lon="-3.75561">
        <ele>177.1</ele>
        <time>2020-06-08T08:15:50Z</time>
      </trkpt>
      <trkpt lat="48.02274" lon="-3.75559">
        <ele>177.2</ele>
        <time>2020-06-08T08:15:51Z</time>
      </trkpt>
      <trkpt lat="48.02278" lon="-3.75559">
        <ele>177.2</ele>
        <time>2020-06-08T08:15:52Z</time>
      </trkpt>
      <trkpt lat="48.02282" lon="-3.75559">
        <ele>177.2</ele>
        <time>2020-06-08T08:15:53Z</time>
      </trkpt>
      <trkpt lat="48.02286" lon="-3.75558">
        <ele>177.3</ele>
        <time>2020-06-08T08:15:54Z</time>
      </trkpt>
      <trkpt lat="48.0229" lon="-3.75557">
        <ele>177.3</ele>
        <time>2020-06-08T08:15:55Z</time>
      </trkpt>
      <trkpt lat="48.02294" lon="-3.75557">
        <ele>177.2</ele>
        <time>2020-06-08T08:15:56Z</time>
      </trkpt>
      <trkpt lat="48.02298" lon="-3.75557">
        <ele>177.2</ele>
        <time>2020-06-08T08:15:57Z</time>
      </trkpt>
      <trkpt lat="48.02302" lon="-3.75557">
        <ele>177.2</ele>
        <time>2020-06-08T08:15:58Z</time>
      </trkpt>
      <trkpt lat="48.02307" lon="-3.75557">
        <ele>177.2</ele>
        <time>2020-06-08T08:15:59Z</time>
      </trkpt>
      <trkpt lat="48.02311" lon="-3.75557">
        <ele>177.2</ele>
        <time>2020-06-08T08:16:00Z</time>
      </trkpt>
      <trkpt lat="48.02316" lon="-3.75558">
        <ele>177.2</ele>
        <time>2020-06-08T08:16:01Z</time>
      </trkpt>
      <trkpt lat="48.0232" lon="-3.75558">
        <ele>177.2</ele>
        <time>2020-06-08T08:16:02Z</time>
      </trkpt>
      <trkpt lat="48.02323" lon="-3.75558">
        <ele>177.2</ele>
        <time>2020-06-08T08:16:03Z</time>
      </trkpt>
      <trkpt lat="48.02327" lon="-3.75558">
        <ele>177.2</ele>
        <time>2020-06-08T08:16:04Z</time>
      </trkpt>
      <trkpt lat="48.02331" lon="-3.75558">
        <ele>177.2</ele>
        <time>2020-06-08T08:16:05Z</time>
      </trkpt>
      <trkpt lat="48.02335" lon="-3.75557">
        <ele>177.3</ele>
        <time>2020-06-08T08:16:06Z</time>
      </trkpt>
      <trkpt lat="48.02339" lon="-3.75556">
        <ele>177.3</ele>
        <time>2020-06-08T08:16:07Z</time>
      </trkpt>
      <trkpt lat="48.02343" lon="-3.75557">
        <ele>177.4</ele>
        <time>2020-06-08T08:16:08Z</time>
      </trkpt>
      <trkpt lat="48.02346" lon="-3.75558">
        <ele>177.5</ele>
        <time>2020-06-08T08:16:09Z</time>
      </trkpt>
      <trkpt lat="48.0235" lon="-3.75559">
        <ele>177.6</ele>
        <time>2020-06-08T08:16:10Z</time>
      </trkpt>
      <trkpt lat="48.02354" lon="-3.7556">
        <ele>177.7</ele>
        <time>2020-06-08T08:16:11Z</time>
      </trkpt>
      <trkpt lat="48.02357" lon="-3.7556">
        <ele>177.8</ele>
        <time>2020-06-08T08:16:12Z</time>
      </trkpt>
      <trkpt lat="48.0236" lon="-3.7556">
        <ele>177.9</ele>
        <time>2020-06-08T08:16:13Z</time>
      </trkpt>
      <trkpt lat="48.02364" lon="-3.7556">
        <ele>177.9</ele>
        <time>2020-06-08T08:16:14Z</time>
      </trkpt>
      <trkpt lat="48.02368" lon="-3.7556">
        <ele>178.1</ele>
        <time>2020-06-08T08:16:15Z</time>
      </trkpt>
      <trkpt lat="48.02372" lon="-3.7556">
        <ele>178.2</ele>
        <time>2020-06-08T08:16:16Z</time>
      </trkpt>
      <trkpt lat="48.02376" lon="-3.75559">
        <ele>178.3</ele>
        <time>2020-06-08T08:16:17Z</time>
      </trkpt>
      <trkpt lat="48.0238" lon="-3.7556">
        <ele>178.4</ele>
        <time>2020-06-08T08:16:18Z</time>
      </trkpt>
      <trkpt lat="48.02384" lon="-3.75561">
        <ele>178.5</ele>
        <time>2020-06-08T08:16:19Z</time>
      </trkpt>
      <trkpt lat="48.02388" lon="-3.75561">
        <ele>178.6</ele>
        <time>2020-06-08T08:16:20Z</time>
      </trkpt>
      <trkpt lat="48.02392" lon="-3.75561">
        <ele>178.7</ele>
        <time>2020-06-08T08:16:21Z</time>
      </trkpt>
      <trkpt lat="48.02395" lon="-3.75562">
        <ele>178.8</ele>
        <time>2020-06-08T08:16:22Z</time>
      </trkpt>
      <trkpt lat="48.02398" lon="-3.75562">
        <ele>178.9</ele>
        <time>2020-06-08T08:16:23Z</time>
      </trkpt>
      <trkpt lat="48.02401" lon="-3.75562">
        <ele>179.2</ele>
        <time>2020-06-08T08:16:24Z</time>
      </trkpt>
      <trkpt lat="48.02405" lon="-3.75562">
        <ele>179.5</ele>
        <time>2020-06-08T08:16:25Z</time>
      </trkpt>
      <trkpt lat="48.02407" lon="-3.75561">
        <ele>179.6</ele>
        <time>2020-06-08T08:16:26Z</time>
      </trkpt>
      <trkpt lat="48.02411" lon="-3.7556">
        <ele>179.8</ele>
        <time>2020-06-08T08:16:27Z</time>
      </trkpt>
      <trkpt lat="48.02414" lon="-3.7556">
        <ele>180</ele>
        <time>2020-06-08T08:16:28Z</time>
      </trkpt>
      <trkpt lat="48.02417" lon="-3.75559">
        <ele>180.2</ele>
        <time>2020-06-08T08:16:29Z</time>
      </trkpt>
      <trkpt lat="48.02421" lon="-3.7556">
        <ele>180.3</ele>
        <time>2020-06-08T08:16:30Z</time>
      </trkpt>
      <trkpt lat="48.02424" lon="-3.75561">
        <ele>180.5</ele>
        <time>2020-06-08T08:16:31Z</time>
      </trkpt>
      <trkpt lat="48.02427" lon="-3.75562">
        <ele>180.6</ele>
        <time>2020-06-08T08:16:32Z</time>
      </trkpt>
      <trkpt lat="48.02431" lon="-3.75561">
        <ele>180.8</ele>
        <time>2020-06-08T08:16:33Z</time>
      </trkpt>
      <trkpt lat="48.02434" lon="-3.75561">
        <ele>180.9</ele>
        <time>2020-06-08T08:16:34Z</time>
      </trkpt>
      <trkpt lat="48.02438" lon="-3.75561">
        <ele>181.1</ele>
        <time>2020-06-08T08:16:35Z</time>
      </trkpt>
      <trkpt lat="48.0244" lon="-3.75561">
        <ele>181.2</ele>
        <time>2020-06-08T08:16:36Z</time>
      </trkpt>
      <trkpt lat="48.02443" lon="-3.75561">
        <ele>181.4</ele>
        <time>2020-06-08T08:16:37Z</time>
      </trkpt>
      <trkpt lat="48.02446" lon="-3.75561">
        <ele>181.5</ele>
        <time>2020-06-08T08:16:38Z</time>
      </trkpt>
      <trkpt lat="48.02449" lon="-3.75562">
        <ele>181.6</ele>
        <time>2020-06-08T08:16:39Z</time>
      </trkpt>
      <trkpt lat="48.02452" lon="-3.75562">
        <ele>181.8</ele>
        <time>2020-06-08T08:16:40Z</time>
      </trkpt>
      <trkpt lat="48.02454" lon="-3.75562">
        <ele>181.9</ele>
        <time>2020-06-08T08:16:41Z</time>
      </trkpt>
      <trkpt lat="48.02457" lon="-3.75562">
        <ele>182</ele>
        <time>2020-06-08T08:16:42Z</time>
      </trkpt>
      <trkpt lat="48.0246" lon="-3.75562">
        <ele>182.2</ele>
        <time>2020-06-08T08:16:43Z</time>
      </trkpt>
      <trkpt lat="48.02464" lon="-3.75562">
        <ele>182.3</ele>
        <time>2020-06-08T08:16:44Z</time>
      </trkpt>
      <trkpt lat="48.02467" lon="-3.75563">
        <ele>182.5</ele>
        <time>2020-06-08T08:16:45Z</time>
      </trkpt>
      <trkpt lat="48.02471" lon="-3.75563">
        <ele>182.6</ele>
        <time>2020-06-08T08:16:46Z</time>
      </trkpt>
      <trkpt lat="48.02474" lon="-3.75564">
        <ele>182.8</ele>
        <time>2020-06-08T08:16:47Z</time>
      </trkpt>
      <trkpt lat="48.02477" lon="-3.75564">
        <ele>182.9</ele>
        <time>2020-06-08T08:16:48Z</time>
      </trkpt>
      <trkpt lat="48.0248" lon="-3.75565">
        <ele>183.1</ele>
        <time>2020-06-08T08:16:49Z</time>
      </trkpt>
      <trkpt lat="48.02483" lon="-3.75565">
        <ele>183.2</ele>
        <time>2020-06-08T08:16:50Z</time>
      </trkpt>
      <trkpt lat="48.02486" lon="-3.75565">
        <ele>183.3</ele>
        <time>2020-06-08T08:16:51Z</time>
      </trkpt>
      <trkpt lat="48.02489" lon="-3.75564">
        <ele>183.4</ele>
        <time>2020-06-08T08:16:52Z</time>
      </trkpt>
      <trkpt lat="48.02492" lon="-3.75564">
        <ele>183.5</ele>
        <time>2020-06-08T08:16:53Z</time>
      </trkpt>
      <trkpt lat="48.02496" lon="-3.75563">
        <ele>183.7</ele>
        <time>2020-06-08T08:16:54Z</time>
      </trkpt>
      <trkpt lat="48.025" lon="-3.75563">
        <ele>183.8</ele>
        <time>2020-06-08T08:16:55Z</time>
      </trkpt>
      <trkpt lat="48.02503" lon="-3.75564">
        <ele>183.9</ele>
        <time>2020-06-08T08:16:56Z</time>
      </trkpt>
      <trkpt lat="48.02505" lon="-3.75565">
        <ele>184</ele>
        <time>2020-06-08T08:16:57Z</time>
      </trkpt>
      <trkpt lat="48.02508" lon="-3.75566">
        <ele>184.1</ele>
        <time>2020-06-08T08:16:58Z</time>
      </trkpt>
      <trkpt lat="48.02511" lon="-3.75566">
        <ele>184.3</ele>
        <time>2020-06-08T08:16:59Z</time>
      </trkpt>
      <trkpt lat="48.02515" lon="-3.75566">
        <ele>184.4</ele>
        <time>2020-06-08T08:17:00Z</time>
      </trkpt>
      <trkpt lat="48.02518" lon="-3.75566">
        <ele>184.5</ele>
        <time>2020-06-08T08:17:01Z</time>
      </trkpt>
      <trkpt lat="48.02521" lon="-3.75565">
        <ele>184.7</ele>
        <time>2020-06-08T08:17:02Z</time>
      </trkpt>
      <trkpt lat="48.02524" lon="-3.75565">
        <ele>184.8</ele>
        <time>2020-06-08T08:17:03Z</time>
      </trkpt>
      <trkpt lat="48.02527" lon="-3.75565">
        <ele>184.9</ele>
        <time>2020-06-08T08:17:04Z</time>
      </trkpt>
      <trkpt lat="48.0253" lon="-3.75565">
        <ele>185</ele>
        <time>2020-06-08T08:17:05Z</time>
      </trkpt>
      <trkpt lat="48.02534" lon="-3.75563">
        <ele>185.1</ele>
        <time>2020-06-08T08:17:06Z</time>
      </trkpt>
      <trkpt lat="48.02537" lon="-3.75562">
        <ele>185.2</ele>
        <time>2020-06-08T08:17:07Z</time>
      </trkpt>
      <trkpt lat="48.0254" lon="-3.75562">
        <ele>185.3</ele>
        <time>2020-06-08T08:17:08Z</time>
      </trkpt>
      <trkpt lat="48.02543" lon="-3.75562">
        <ele>185.4</ele>
        <time>2020-06-08T08:17:09Z</time>
      </trkpt>
      <trkpt lat="48.02547" lon="-3.75563">
        <ele>185.6</ele>
        <time>2020-06-08T08:17:10Z</time>
      </trkpt>
      <trkpt lat="48.02548" lon="-3.75563">
        <ele>185.6</ele>
        <time>2020-06-08T08:17:11Z</time>
      </trkpt>
      <trkpt lat="48.02551" lon="-3.75564">
        <ele>185.7</ele>
        <time>2020-06-08T08:17:12Z</time>
      </trkpt>
      <trkpt lat="48.02554" lon="-3.75564">
        <ele>185.9</ele>
        <time>2020-06-08T08:17:13Z</time>
      </trkpt>
      <trkpt lat="48.02557" lon="-3.75564">
        <ele>186</ele>
        <time>2020-06-08T08:17:14Z</time>
      </trkpt>
      <trkpt lat="48.02561" lon="-3.75564">
        <ele>186.1</ele>
        <time>2020-06-08T08:17:15Z</time>
      </trkpt>
      <trkpt lat="48.02565" lon="-3.75564">
        <ele>186.3</ele>
        <time>2020-06-08T08:17:16Z</time>
      </trkpt>
      <trkpt lat="48.02566" lon="-3.75564">
        <ele>186.3</ele>
        <time>2020-06-08T08:17:17Z</time>
      </trkpt>
      <trkpt lat="48.02569" lon="-3.75563">
        <ele>186.4</ele>
        <time>2020-06-08T08:17:18Z</time>
      </trkpt>
      <trkpt lat="48.02572" lon="-3.75563">
        <ele>186.5</ele>
        <time>2020-06-08T08:17:19Z</time>
      </trkpt>
      <trkpt lat="48.02576" lon="-3.75563">
        <ele>186.8</ele>
        <time>2020-06-08T08:17:20Z</time>
      </trkpt>
      <trkpt lat="48.02579" lon="-3.75563">
        <ele>187.1</ele>
        <time>2020-06-08T08:17:21Z</time>
      </trkpt>
      <trkpt lat="48.02584" lon="-3.75562">
        <ele>187.4</ele>
        <time>2020-06-08T08:17:22Z</time>
      </trkpt>
      <trkpt lat="48.02587" lon="-3.75562">
        <ele>187.7</ele>
        <time>2020-06-08T08:17:23Z</time>
      </trkpt>
      <trkpt lat="48.0259" lon="-3.75562">
        <ele>187.9</ele>
        <time>2020-06-08T08:17:24Z</time>
      </trkpt>
      <trkpt lat="48.02593" lon="-3.75563">
        <ele>188.2</ele>
        <time>2020-06-08T08:17:25Z</time>
      </trkpt>
      <trkpt lat="48.02596" lon="-3.75563">
        <ele>188.4</ele>
        <time>2020-06-08T08:17:26Z</time>
      </trkpt>
      <trkpt lat="48.02599" lon="-3.75564">
        <ele>188.6</ele>
        <time>2020-06-08T08:17:27Z</time>
      </trkpt>
      <trkpt lat="48.02603" lon="-3.75563">
        <ele>188.9</ele>
        <time>2020-06-08T08:17:28Z</time>
      </trkpt>
      <trkpt lat="48.02607" lon="-3.75563">
        <ele>189.1</ele>
        <time>2020-06-08T08:17:29Z</time>
      </trkpt>
      <trkpt lat="48.02611" lon="-3.75563">
        <ele>189.3</ele>
        <time>2020-06-08T08:17:30Z</time>
      </trkpt>
      <trkpt lat="48.02615" lon="-3.75563">
        <ele>189.6</ele>
        <time>2020-06-08T08:17:31Z</time>
      </trkpt>
      <trkpt lat="48.02619" lon="-3.75562">
        <ele>189.8</ele>
        <time>2020-06-08T08:17:32Z</time>
      </trkpt>
      <trkpt lat="48.02623" lon="-3.75562">
        <ele>190</ele>
        <time>2020-06-08T08:17:33Z</time>
      </trkpt>
      <trkpt lat="48.02626" lon="-3.75563">
        <ele>190.2</ele>
        <time>2020-06-08T08:17:34Z</time>
      </trkpt>
      <trkpt lat="48.0263" lon="-3.75565">
        <ele>190.4</ele>
        <time>2020-06-08T08:17:35Z</time>
      </trkpt>
      <trkpt lat="48.02634" lon="-3.75566">
        <ele>190.6</ele>
        <time>2020-06-08T08:17:36Z</time>
      </trkpt>
      <trkpt lat="48.02637" lon="-3.75567">
        <ele>190.7</ele>
        <time>2020-06-08T08:17:37Z</time>
      </trkpt>
      <trkpt lat="48.02641" lon="-3.75569">
        <ele>190.8</ele>
        <time>2020-06-08T08:17:38Z</time>
      </trkpt>
      <trkpt lat="48.02644" lon="-3.7557">
        <ele>190.9</ele>
        <time>2020-06-08T08:17:39Z</time>
      </trkpt>
      <trkpt lat="48.02647" lon="-3.7557">
        <ele>191</ele>
        <time>2020-06-08T08:17:40Z</time>
      </trkpt>
      <trkpt lat="48.0265" lon="-3.75569">
        <ele>190.9</ele>
        <time>2020-06-08T08:17:41Z</time>
      </trkpt>
      <trkpt lat="48.02653" lon="-3.75568">
        <ele>190.8</ele>
        <time>2020-06-08T08:17:42Z</time>
      </trkpt>
      <trkpt lat="48.02656" lon="-3.75569">
        <ele>190.6</ele>
        <time>2020-06-08T08:17:43Z</time>
      </trkpt>
      <trkpt lat="48.02659" lon="-3.7557">
        <ele>190.4</ele>
        <time>2020-06-08T08:17:44Z</time>
      </trkpt>
      <trkpt lat="48.02662" lon="-3.7557">
        <ele>190</ele>
        <time>2020-06-08T08:17:45Z</time>
      </trkpt>
      <trkpt lat="48.02666" lon="-3.7557">
        <ele>189.4</ele>
        <time>2020-06-08T08:17:46Z</time>
      </trkpt>
      <trkpt lat="48.0267" lon="-3.75571">
        <ele>188.8</ele>
        <time>2020-06-08T08:17:47Z</time>
      </trkpt>
      <trkpt lat="48.02673" lon="-3.75572">
        <ele>188.2</ele>
        <time>2020-06-08T08:17:48Z</time>
      </trkpt>
      <trkpt lat="48.02678" lon="-3.75573">
        <ele>187.5</ele>
        <time>2020-06-08T08:17:49Z</time>
      </trkpt>
      <trkpt lat="48.02682" lon="-3.75574">
        <ele>187.3</ele>
        <time>2020-06-08T08:17:50Z</time>
      </trkpt>
      <trkpt lat="48.02685" lon="-3.75575">
        <ele>187.5</ele>
        <time>2020-06-08T08:17:51Z</time>
      </trkpt>
      <trkpt lat="48.02688" lon="-3.75576">
        <ele>187.6</ele>
        <time>2020-06-08T08:17:52Z</time>
      </trkpt>
      <trkpt lat="48.02691" lon="-3.75576">
        <ele>187.7</ele>
        <time>2020-06-08T08:17:53Z</time>
      </trkpt>
      <trkpt lat="48.02694" lon="-3.75577">
        <ele>187.8</ele>
        <time>2020-06-08T08:17:54Z</time>
      </trkpt>
      <trkpt lat="48.02698" lon="-3.75578">
        <ele>187.9</ele>
        <time>2020-06-08T08:17:55Z</time>
      </trkpt>
      <trkpt lat="48.02701" lon="-3.75578">
        <ele>188</ele>
        <time>2020-06-08T08:17:56Z</time>
      </trkpt>
      <trkpt lat="48.02704" lon="-3.75578">
        <ele>188.1</ele>
        <time>2020-06-08T08:17:57Z</time>
      </trkpt>
      <trkpt lat="48.02708" lon="-3.75578">
        <ele>188.2</ele>
        <time>2020-06-08T08:17:58Z</time>
      </trkpt>
      <trkpt lat="48.02712" lon="-3.75577">
        <ele>188.3</ele>
        <time>2020-06-08T08:17:59Z</time>
      </trkpt>
      <trkpt lat="48.02716" lon="-3.75577">
        <ele>188.4</ele>
        <time>2020-06-08T08:18:00Z</time>
      </trkpt>
      <trkpt lat="48.02721" lon="-3.75576">
        <ele>188.5</ele>
        <time>2020-06-08T08:18:01Z</time>
      </trkpt>
      <trkpt lat="48.02724" lon="-3.75577">
        <ele>188.7</ele>
        <time>2020-06-08T08:18:02Z</time>
      </trkpt>
      <trkpt lat="48.02728" lon="-3.75577">
        <ele>188.8</ele>
        <time>2020-06-08T08:18:03Z</time>
      </trkpt>
      <trkpt lat="48.0273" lon="-3.75578">
        <ele>188.9</ele>
        <time>2020-06-08T08:18:04Z</time>
      </trkpt>
      <trkpt lat="48.02733" lon="-3.75578">
        <ele>189</ele>
        <time>2020-06-08T08:18:05Z</time>
      </trkpt>
      <trkpt lat="48.02737" lon="-3.75577">
        <ele>189</ele>
        <time>2020-06-08T08:18:06Z</time>
      </trkpt>
      <trkpt lat="48.0274" lon="-3.75578">
        <ele>189.1</ele>
        <time>2020-06-08T08:18:07Z</time>
      </trkpt>
      <trkpt lat="48.02744" lon="-3.75578">
        <ele>189.2</ele>
        <time>2020-06-08T08:18:08Z</time>
      </trkpt>
      <trkpt lat="48.02748" lon="-3.75578">
        <ele>189.3</ele>
        <time>2020-06-08T08:18:09Z</time>
      </trkpt>
      <trkpt lat="48.02751" lon="-3.75579">
        <ele>189.4</ele>
        <time>2020-06-08T08:18:10Z</time>
      </trkpt>
      <trkpt lat="48.02756" lon="-3.7558">
        <ele>189.6</ele>
        <time>2020-06-08T08:18:11Z</time>
      </trkpt>
      <trkpt lat="48.0276" lon="-3.75579">
        <ele>189.7</ele>
        <time>2020-06-08T08:18:12Z</time>
      </trkpt>
      <trkpt lat="48.02764" lon="-3.75578">
        <ele>189.8</ele>
        <time>2020-06-08T08:18:13Z</time>
      </trkpt>
      <trkpt lat="48.02767" lon="-3.75578">
        <ele>189.9</ele>
        <time>2020-06-08T08:18:14Z</time>
      </trkpt>
      <trkpt lat="48.0277" lon="-3.7558">
        <ele>189.9</ele>
        <time>2020-06-08T08:18:15Z</time>
      </trkpt>
      <trkpt lat="48.02774" lon="-3.75581">
        <ele>189.9</ele>
        <time>2020-06-08T08:18:16Z</time>
      </trkpt>
      <trkpt lat="48.02778" lon="-3.75582">
        <ele>189.9</ele>
        <time>2020-06-08T08:18:17Z</time>
      </trkpt>
      <trkpt lat="48.02782" lon="-3.75583">
        <ele>190</ele>
        <time>2020-06-08T08:18:18Z</time>
      </trkpt>
      <trkpt lat="48.02787" lon="-3.75583">
        <ele>190</ele>
        <time>2020-06-08T08:18:19Z</time>
      </trkpt>
      <trkpt lat="48.02791" lon="-3.75584">
        <ele>190.1</ele>
        <time>2020-06-08T08:18:20Z</time>
      </trkpt>
      <trkpt lat="48.02795" lon="-3.75584">
        <ele>190.1</ele>
        <time>2020-06-08T08:18:21Z</time>
      </trkpt>
      <trkpt lat="48.02799" lon="-3.75585">
        <ele>190.1</ele>
        <time>2020-06-08T08:18:22Z</time>
      </trkpt>
      <trkpt lat="48.02802" lon="-3.75585">
        <ele>190.2</ele>
        <time>2020-06-08T08:18:23Z</time>
      </trkpt>
      <trkpt lat="48.02806" lon="-3.75585">
        <ele>190.2</ele>
        <time>2020-06-08T08:18:24Z</time>
      </trkpt>
      <trkpt lat="48.0281" lon="-3.75586">
        <ele>190.2</ele>
        <time>2020-06-08T08:18:25Z</time>
      </trkpt>
      <trkpt lat="48.02814" lon="-3.75586">
        <ele>190.2</ele>
        <time>2020-06-08T08:18:26Z</time>
      </trkpt>
      <trkpt lat="48.02818" lon="-3.75586">
        <ele>190.2</ele>
        <time>2020-06-08T08:18:27Z</time>
      </trkpt>
      <trkpt lat="48.02822" lon="-3.75587">
        <ele>190.2</ele>
        <time>2020-06-08T08:18:28Z</time>
      </trkpt>
      <trkpt lat="48.02827" lon="-3.75587">
        <ele>190.2</ele>
        <time>2020-06-08T08:18:29Z</time>
      </trkpt>
      <trkpt lat="48.02832" lon="-3.75588">
        <ele>190.2</ele>
        <time>2020-06-08T08:18:30Z</time>
      </trkpt>
      <trkpt lat="48.02836" lon="-3.7559">
        <ele>190.3</ele>
        <time>2020-06-08T08:18:31Z</time>
      </trkpt>
      <trkpt lat="48.02841" lon="-3.7559">
        <ele>190.4</ele>
        <time>2020-06-08T08:18:32Z</time>
      </trkpt>
      <trkpt lat="48.02845" lon="-3.75591">
        <ele>190.5</ele>
        <time>2020-06-08T08:18:33Z</time>
      </trkpt>
      <trkpt lat="48.0285" lon="-3.75591">
        <ele>190.6</ele>
        <time>2020-06-08T08:18:34Z</time>
      </trkpt>
      <trkpt lat="48.02854" lon="-3.7559">
        <ele>190.7</ele>
        <time>2020-06-08T08:18:35Z</time>
      </trkpt>
      <trkpt lat="48.02857" lon="-3.7559">
        <ele>190.7</ele>
        <time>2020-06-08T08:18:36Z</time>
      </trkpt>
      <trkpt lat="48.02862" lon="-3.75591">
        <ele>190.8</ele>
        <time>2020-06-08T08:18:37Z</time>
      </trkpt>
      <trkpt lat="48.02866" lon="-3.7559">
        <ele>190.9</ele>
        <time>2020-06-08T08:18:38Z</time>
      </trkpt>
      <trkpt lat="48.0287" lon="-3.75589">
        <ele>191</ele>
        <time>2020-06-08T08:18:39Z</time>
      </trkpt>
      <trkpt lat="48.02874" lon="-3.75589">
        <ele>191.1</ele>
        <time>2020-06-08T08:18:40Z</time>
      </trkpt>
      <trkpt lat="48.02878" lon="-3.75589">
        <ele>191.2</ele>
        <time>2020-06-08T08:18:41Z</time>
      </trkpt>
      <trkpt lat="48.02882" lon="-3.75589">
        <ele>191.3</ele>
        <time>2020-06-08T08:18:42Z</time>
      </trkpt>
      <trkpt lat="48.02886" lon="-3.75588">
        <ele>191.5</ele>
        <time>2020-06-08T08:18:43Z</time>
      </trkpt>
      <trkpt lat="48.02889" lon="-3.75588">
        <ele>191.6</ele>
        <time>2020-06-08T08:18:44Z</time>
      </trkpt>
      <trkpt lat="48.02893" lon="-3.75588">
        <ele>191.7</ele>
        <time>2020-06-08T08:18:45Z</time>
      </trkpt>
      <trkpt lat="48.02897" lon="-3.75588">
        <ele>191.8</ele>
        <time>2020-06-08T08:18:46Z</time>
      </trkpt>
      <trkpt lat="48.02901" lon="-3.75588">
        <ele>191.8</ele>
        <time>2020-06-08T08:18:47Z</time>
      </trkpt>
      <trkpt lat="48.02905" lon="-3.75588">
        <ele>191.9</ele>
        <time>2020-06-08T08:18:48Z</time>
      </trkpt>
      <trkpt lat="48.02909" lon="-3.75588">
        <ele>192</ele>
        <time>2020-06-08T08:18:49Z</time>
      </trkpt>
      <trkpt lat="48.02912" lon="-3.75588">
        <ele>192.1</ele>
        <time>2020-06-08T08:18:50Z</time>
      </trkpt>
      <trkpt lat="48.02916" lon="-3.75588">
        <ele>192.1</ele>
        <time>2020-06-08T08:18:51Z</time>
      </trkpt>
      <trkpt lat="48.02919" lon="-3.75588">
        <ele>192.1</ele>
        <time>2020-06-08T08:18:52Z</time>
      </trkpt>
      <trkpt lat="48.02923" lon="-3.75588">
        <ele>192.2</ele>
        <time>2020-06-08T08:18:53Z</time>
      </trkpt>
      <trkpt lat="48.02926" lon="-3.75587">
        <ele>192.2</ele>
        <time>2020-06-08T08:18:54Z</time>
      </trkpt>
      <trkpt lat="48.02929" lon="-3.75588">
        <ele>192.2</ele>
        <time>2020-06-08T08:18:55Z</time>
      </trkpt>
      <trkpt lat="48.02933" lon="-3.75587">
        <ele>192.2</ele>
        <time>2020-06-08T08:18:56Z</time>
      </trkpt>
      <trkpt lat="48.02936" lon="-3.75588">
        <ele>192.2</ele>
        <time>2020-06-08T08:18:57Z</time>
      </trkpt>
      <trkpt lat="48.0294" lon="-3.75588">
        <ele>192.2</ele>
        <time>2020-06-08T08:18:58Z</time>
      </trkpt>
      <trkpt lat="48.02943" lon="-3.75589">
        <ele>192.2</ele>
        <time>2020-06-08T08:18:59Z</time>
      </trkpt>
      <trkpt lat="48.02947" lon="-3.7559">
        <ele>192.3</ele>
        <time>2020-06-08T08:19:00Z</time>
      </trkpt>
      <trkpt lat="48.0295" lon="-3.75591">
        <ele>192.3</ele>
        <time>2020-06-08T08:19:01Z</time>
      </trkpt>
      <trkpt lat="48.02953" lon="-3.75591">
        <ele>192.4</ele>
        <time>2020-06-08T08:19:02Z</time>
      </trkpt>
      <trkpt lat="48.02956" lon="-3.75591">
        <ele>192.4</ele>
        <time>2020-06-08T08:19:03Z</time>
      </trkpt>
      <trkpt lat="48.02961" lon="-3.7559">
        <ele>192.5</ele>
        <time>2020-06-08T08:19:04Z</time>
      </trkpt>
      <trkpt lat="48.02966" lon="-3.75592">
        <ele>192.6</ele>
        <time>2020-06-08T08:19:05Z</time>
      </trkpt>
      <trkpt lat="48.0297" lon="-3.75592">
        <ele>192.6</ele>
        <time>2020-06-08T08:19:06Z</time>
      </trkpt>
      <trkpt lat="48.02974" lon="-3.75593">
        <ele>192.6</ele>
        <time>2020-06-08T08:19:07Z</time>
      </trkpt>
      <trkpt lat="48.02979" lon="-3.75594">
        <ele>192.7</ele>
        <time>2020-06-08T08:19:08Z</time>
      </trkpt>
      <trkpt lat="48.02982" lon="-3.75596">
        <ele>192.7</ele>
        <time>2020-06-08T08:19:09Z</time>
      </trkpt>
      <trkpt lat="48.02986" lon="-3.75597">
        <ele>192.8</ele>
        <time>2020-06-08T08:19:10Z</time>
      </trkpt>
      <trkpt lat="48.02991" lon="-3.75597">
        <ele>192.8</ele>
        <time>2020-06-08T08:19:11Z</time>
      </trkpt>
      <trkpt lat="48.02995" lon="-3.75598">
        <ele>192.9</ele>
        <time>2020-06-08T08:19:12Z</time>
      </trkpt>
      <trkpt lat="48.02999" lon="-3.75598">
        <ele>192.9</ele>
        <time>2020-06-08T08:19:13Z</time>
      </trkpt>
      <trkpt lat="48.03003" lon="-3.75601">
        <ele>192.9</ele>
        <time>2020-06-08T08:19:14Z</time>
      </trkpt>
      <trkpt lat="48.03006" lon="-3.75602">
        <ele>193</ele>
        <time>2020-06-08T08:19:15Z</time>
      </trkpt>
      <trkpt lat="48.0301" lon="-3.75604">
        <ele>193</ele>
        <time>2020-06-08T08:19:16Z</time>
      </trkpt>
      <trkpt lat="48.03013" lon="-3.75605">
        <ele>193</ele>
        <time>2020-06-08T08:19:17Z</time>
      </trkpt>
      <trkpt lat="48.03017" lon="-3.75606">
        <ele>193.1</ele>
        <time>2020-06-08T08:19:18Z</time>
      </trkpt>
      <trkpt lat="48.03022" lon="-3.75606">
        <ele>193.1</ele>
        <time>2020-06-08T08:19:19Z</time>
      </trkpt>
      <trkpt lat="48.03026" lon="-3.75607">
        <ele>193.1</ele>
        <time>2020-06-08T08:19:20Z</time>
      </trkpt>
      <trkpt lat="48.0303" lon="-3.75608">
        <ele>193.1</ele>
        <time>2020-06-08T08:19:21Z</time>
      </trkpt>
      <trkpt lat="48.03034" lon="-3.7561">
        <ele>193.2</ele>
        <time>2020-06-08T08:19:22Z</time>
      </trkpt>
      <trkpt lat="48.03037" lon="-3.75611">
        <ele>193.3</ele>
        <time>2020-06-08T08:19:23Z</time>
      </trkpt>
      <trkpt lat="48.03041" lon="-3.75612">
        <ele>193.3</ele>
        <time>2020-06-08T08:19:24Z</time>
      </trkpt>
      <trkpt lat="48.03045" lon="-3.75614">
        <ele>193.4</ele>
        <time>2020-06-08T08:19:25Z</time>
      </trkpt>
      <trkpt lat="48.0305" lon="-3.75616">
        <ele>193.5</ele>
        <time>2020-06-08T08:19:26Z</time>
      </trkpt>
      <trkpt lat="48.03054" lon="-3.75617">
        <ele>193.6</ele>
        <time>2020-06-08T08:19:27Z</time>
      </trkpt>
      <trkpt lat="48.03059" lon="-3.75618">
        <ele>193.7</ele>
        <time>2020-06-08T08:19:28Z</time>
      </trkpt>
      <trkpt lat="48.03063" lon="-3.75619">
        <ele>193.7</ele>
        <time>2020-06-08T08:19:29Z</time>
      </trkpt>
      <trkpt lat="48.03068" lon="-3.7562">
        <ele>193.8</ele>
        <time>2020-06-08T08:19:30Z</time>
      </trkpt>
      <trkpt lat="48.03072" lon="-3.75622">
        <ele>193.8</ele>
        <time>2020-06-08T08:19:31Z</time>
      </trkpt>
      <trkpt lat="48.03076" lon="-3.75623">
        <ele>193.9</ele>
        <time>2020-06-08T08:19:32Z</time>
      </trkpt>
      <trkpt lat="48.0308" lon="-3.75624">
        <ele>193.9</ele>
        <time>2020-06-08T08:19:33Z</time>
      </trkpt>
      <trkpt lat="48.03084" lon="-3.75625">
        <ele>194</ele>
        <time>2020-06-08T08:19:34Z</time>
      </trkpt>
      <trkpt lat="48.03089" lon="-3.75626">
        <ele>194.1</ele>
        <time>2020-06-08T08:19:35Z</time>
      </trkpt>
      <trkpt lat="48.03092" lon="-3.75627">
        <ele>194.2</ele>
        <time>2020-06-08T08:19:36Z</time>
      </trkpt>
      <trkpt lat="48.03095" lon="-3.75628">
        <ele>194.3</ele>
        <time>2020-06-08T08:19:37Z</time>
      </trkpt>
      <trkpt lat="48.03098" lon="-3.75629">
        <ele>194.4</ele>
        <time>2020-06-08T08:19:38Z</time>
      </trkpt>
      <trkpt lat="48.03102" lon="-3.75631">
        <ele>194.5</ele>
        <time>2020-06-08T08:19:39Z</time>
      </trkpt>
      <trkpt lat="48.03106" lon="-3.75631">
        <ele>194.6</ele>
        <time>2020-06-08T08:19:40Z</time>
      </trkpt>
      <trkpt lat="48.03109" lon="-3.75632">
        <ele>194.6</ele>
        <time>2020-06-08T08:19:41Z</time>
      </trkpt>
      <trkpt lat="48.03113" lon="-3.75633">
        <ele>194.7</ele>
        <time>2020-06-08T08:19:42Z</time>
      </trkpt>
      <trkpt lat="48.03116" lon="-3.75634">
        <ele>194.7</ele>
        <time>2020-06-08T08:19:43Z</time>
      </trkpt>
      <trkpt lat="48.03119" lon="-3.75634">
        <ele>194.7</ele>
        <time>2020-06-08T08:19:44Z</time>
      </trkpt>
      <trkpt lat="48.03123" lon="-3.75634">
        <ele>194.7</ele>
        <time>2020-06-08T08:19:45Z</time>
      </trkpt>
      <trkpt lat="48.03126" lon="-3.75636">
        <ele>194.8</ele>
        <time>2020-06-08T08:19:46Z</time>
      </trkpt>
      <trkpt lat="48.03131" lon="-3.75639">
        <ele>194.8</ele>
        <time>2020-06-08T08:19:47Z</time>
      </trkpt>
      <trkpt lat="48.03135" lon="-3.7564">
        <ele>194.8</ele>
        <time>2020-06-08T08:19:48Z</time>
      </trkpt>
      <trkpt lat="48.0314" lon="-3.75642">
        <ele>194.9</ele>
        <time>2020-06-08T08:19:49Z</time>
      </trkpt>
      <trkpt lat="48.03145" lon="-3.75644">
        <ele>194.9</ele>
        <time>2020-06-08T08:19:50Z</time>
      </trkpt>
      <trkpt lat="48.03149" lon="-3.75647">
        <ele>195</ele>
        <time>2020-06-08T08:19:51Z</time>
      </trkpt>
      <trkpt lat="48.03152" lon="-3.75649">
        <ele>195.1</ele>
        <time>2020-06-08T08:19:52Z</time>
      </trkpt>
      <trkpt lat="48.03155" lon="-3.7565">
        <ele>195.2</ele>
        <time>2020-06-08T08:19:53Z</time>
      </trkpt>
      <trkpt lat="48.03159" lon="-3.75653">
        <ele>195.3</ele>
        <time>2020-06-08T08:19:54Z</time>
      </trkpt>
      <trkpt lat="48.03163" lon="-3.75655">
        <ele>195.4</ele>
        <time>2020-06-08T08:19:55Z</time>
      </trkpt>
      <trkpt lat="48.03166" lon="-3.75657">
        <ele>195.6</ele>
        <time>2020-06-08T08:19:56Z</time>
      </trkpt>
      <trkpt lat="48.0317" lon="-3.75658">
        <ele>195.7</ele>
        <time>2020-06-08T08:19:57Z</time>
      </trkpt>
      <trkpt lat="48.03174" lon="-3.7566">
        <ele>195.9</ele>
        <time>2020-06-08T08:19:58Z</time>
      </trkpt>
      <trkpt lat="48.03178" lon="-3.75663">
        <ele>196</ele>
        <time>2020-06-08T08:19:59Z</time>
      </trkpt>
      <trkpt lat="48.03181" lon="-3.75664">
        <ele>196.1</ele>
        <time>2020-06-08T08:20:00Z</time>
      </trkpt>
      <trkpt lat="48.03184" lon="-3.75666">
        <ele>196.2</ele>
        <time>2020-06-08T08:20:01Z</time>
      </trkpt>
      <trkpt lat="48.03187" lon="-3.75667">
        <ele>196.3</ele>
        <time>2020-06-08T08:20:02Z</time>
      </trkpt>
      <trkpt lat="48.03191" lon="-3.75669">
        <ele>196.4</ele>
        <time>2020-06-08T08:20:03Z</time>
      </trkpt>
      <trkpt lat="48.03195" lon="-3.7567">
        <ele>196.5</ele>
        <time>2020-06-08T08:20:04Z</time>
      </trkpt>
      <trkpt lat="48.03199" lon="-3.7567">
        <ele>196.7</ele>
        <time>2020-06-08T08:20:05Z</time>
      </trkpt>
      <trkpt lat="48.03202" lon="-3.7567">
        <ele>196.8</ele>
        <time>2020-06-08T08:20:06Z</time>
      </trkpt>
      <trkpt lat="48.03206" lon="-3.75672">
        <ele>196.9</ele>
        <time>2020-06-08T08:20:07Z</time>
      </trkpt>
      <trkpt lat="48.0321" lon="-3.75674">
        <ele>197.1</ele>
        <time>2020-06-08T08:20:08Z</time>
      </trkpt>
      <trkpt lat="48.03214" lon="-3.75676">
        <ele>197.3</ele>
        <time>2020-06-08T08:20:09Z</time>
      </trkpt>
      <trkpt lat="48.03218" lon="-3.75677">
        <ele>197.5</ele>
        <time>2020-06-08T08:20:10Z</time>
      </trkpt>
      <trkpt lat="48.03221" lon="-3.75678">
        <ele>197.7</ele>
        <time>2020-06-08T08:20:11Z</time>
      </trkpt>
      <trkpt lat="48.03226" lon="-3.75679">
        <ele>197.9</ele>
        <time>2020-06-08T08:20:12Z</time>
      </trkpt>
      <trkpt lat="48.03227" lon="-3.75679">
        <ele>198</ele>
        <time>2020-06-08T08:20:13Z</time>
      </trkpt>
      <trkpt lat="48.03231" lon="-3.7568">
        <ele>198.1</ele>
        <time>2020-06-08T08:20:14Z</time>
      </trkpt>
      <trkpt lat="48.03235" lon="-3.75678">
        <ele>198.3</ele>
        <time>2020-06-08T08:20:15Z</time>
      </trkpt>
      <trkpt lat="48.03238" lon="-3.75677">
        <ele>198.4</ele>
        <time>2020-06-08T08:20:16Z</time>
      </trkpt>
      <trkpt lat="48.03241" lon="-3.75676">
        <ele>198.5</ele>
        <time>2020-06-08T08:20:17Z</time>
      </trkpt>
      <trkpt lat="48.03245" lon="-3.75673">
        <ele>198.6</ele>
        <time>2020-06-08T08:20:18Z</time>
      </trkpt>
      <trkpt lat="48.03248" lon="-3.75669">
        <ele>198.6</ele>
        <time>2020-06-08T08:20:19Z</time>
      </trkpt>
      <trkpt lat="48.0325" lon="-3.75666">
        <ele>198.6</ele>
        <time>2020-06-08T08:20:20Z</time>
      </trkpt>
      <trkpt lat="48.03253" lon="-3.75661">
        <ele>198.6</ele>
        <time>2020-06-08T08:20:21Z</time>
      </trkpt>
      <trkpt lat="48.03255" lon="-3.75657">
        <ele>198.6</ele>
        <time>2020-06-08T08:20:22Z</time>
      </trkpt>
      <trkpt lat="48.03257" lon="-3.75653">
        <ele>198.6</ele>
        <time>2020-06-08T08:20:23Z</time>
      </trkpt>
      <trkpt lat="48.03259" lon="-3.75649">
        <ele>198.6</ele>
        <time>2020-06-08T08:20:24Z</time>
      </trkpt>
      <trkpt lat="48.03261" lon="-3.75646">
        <ele>198.6</ele>
        <time>2020-06-08T08:20:25Z</time>
      </trkpt>
      <trkpt lat="48.03265" lon="-3.75644">
        <ele>198.6</ele>
        <time>2020-06-08T08:20:26Z</time>
      </trkpt>
      <trkpt lat="48.03266" lon="-3.75644">
        <ele>198.6</ele>
        <time>2020-06-08T08:20:27Z</time>
      </trkpt>
      <trkpt lat="48.0327" lon="-3.75647">
        <ele>198.6</ele>
        <time>2020-06-08T08:20:28Z</time>
      </trkpt>
      <trkpt lat="48.03273" lon="-3.75647">
        <ele>198.6</ele>
        <time>2020-06-08T08:20:29Z</time>
      </trkpt>
      <trkpt lat="48.03278" lon="-3.75649">
        <ele>198.6</ele>
        <time>2020-06-08T08:20:30Z</time>
      </trkpt>
      <trkpt lat="48.03282" lon="-3.7565">
        <ele>198.6</ele>
        <time>2020-06-08T08:20:31Z</time>
      </trkpt>
      <trkpt lat="48.03286" lon="-3.75652">
        <ele>198.6</ele>
        <time>2020-06-08T08:20:32Z</time>
      </trkpt>
      <trkpt lat="48.0329" lon="-3.75654">
        <ele>198.6</ele>
        <time>2020-06-08T08:20:33Z</time>
      </trkpt>
      <trkpt lat="48.03293" lon="-3.75656">
        <ele>198.6</ele>
        <time>2020-06-08T08:20:34Z</time>
      </trkpt>
      <trkpt lat="48.03297" lon="-3.75658">
        <ele>198.5</ele>
        <time>2020-06-08T08:20:35Z</time>
      </trkpt>
      <trkpt lat="48.03301" lon="-3.7566">
        <ele>198.5</ele>
        <time>2020-06-08T08:20:36Z</time>
      </trkpt>
      <trkpt lat="48.03305" lon="-3.75661">
        <ele>198.5</ele>
        <time>2020-06-08T08:20:37Z</time>
      </trkpt>
      <trkpt lat="48.03309" lon="-3.75663">
        <ele>198.5</ele>
        <time>2020-06-08T08:20:38Z</time>
      </trkpt>
      <trkpt lat="48.03314" lon="-3.75665">
        <ele>198.5</ele>
        <time>2020-06-08T08:20:39Z</time>
      </trkpt>
      <trkpt lat="48.03318" lon="-3.75667">
        <ele>198.6</ele>
        <time>2020-06-08T08:20:40Z</time>
      </trkpt>
      <trkpt lat="48.03322" lon="-3.75668">
        <ele>198.6</ele>
        <time>2020-06-08T08:20:41Z</time>
      </trkpt>
      <trkpt lat="48.03326" lon="-3.7567">
        <ele>198.6</ele>
        <time>2020-06-08T08:20:42Z</time>
      </trkpt>
      <trkpt lat="48.03329" lon="-3.75672">
        <ele>198.7</ele>
        <time>2020-06-08T08:20:43Z</time>
      </trkpt>
      <trkpt lat="48.03332" lon="-3.75673">
        <ele>198.7</ele>
        <time>2020-06-08T08:20:44Z</time>
      </trkpt>
      <trkpt lat="48.03335" lon="-3.75672">
        <ele>198.7</ele>
        <time>2020-06-08T08:20:45Z</time>
      </trkpt>
      <trkpt lat="48.03338" lon="-3.75673">
        <ele>198.7</ele>
        <time>2020-06-08T08:20:46Z</time>
      </trkpt>
      <trkpt lat="48.03342" lon="-3.75674">
        <ele>198.7</ele>
        <time>2020-06-08T08:20:47Z</time>
      </trkpt>
      <trkpt lat="48.03344" lon="-3.75675">
        <ele>198.7</ele>
        <time>2020-06-08T08:20:48Z</time>
      </trkpt>
      <trkpt lat="48.03347" lon="-3.75676">
        <ele>198.7</ele>
        <time>2020-06-08T08:20:49Z</time>
      </trkpt>
      <trkpt lat="48.03351" lon="-3.75678">
        <ele>198.8</ele>
        <time>2020-06-08T08:20:50Z</time>
      </trkpt>
      <trkpt lat="48.03354" lon="-3.75679">
        <ele>198.8</ele>
        <time>2020-06-08T08:20:51Z</time>
      </trkpt>
      <trkpt lat="48.03358" lon="-3.7568">
        <ele>198.8</ele>
        <time>2020-06-08T08:20:52Z</time>
      </trkpt>
      <trkpt lat="48.03361" lon="-3.75681">
        <ele>198.8</ele>
        <time>2020-06-08T08:20:53Z</time>
      </trkpt>
      <trkpt lat="48.03365" lon="-3.75681">
        <ele>198.9</ele>
        <time>2020-06-08T08:20:54Z</time>
      </trkpt>
      <trkpt lat="48.03368" lon="-3.75682">
        <ele>198.9</ele>
        <time>2020-06-08T08:20:55Z</time>
      </trkpt>
      <trkpt lat="48.03371" lon="-3.75681">
        <ele>199</ele>
        <time>2020-06-08T08:20:56Z</time>
      </trkpt>
      <trkpt lat="48.03375" lon="-3.75681">
        <ele>199</ele>
        <time>2020-06-08T08:20:57Z</time>
      </trkpt>
      <trkpt lat="48.03378" lon="-3.7568">
        <ele>199</ele>
        <time>2020-06-08T08:20:58Z</time>
      </trkpt>
      <trkpt lat="48.03382" lon="-3.7568">
        <ele>199.1</ele>
        <time>2020-06-08T08:20:59Z</time>
      </trkpt>
      <trkpt lat="48.03386" lon="-3.7568">
        <ele>199.1</ele>
        <time>2020-06-08T08:21:00Z</time>
      </trkpt>
      <trkpt lat="48.03389" lon="-3.7568">
        <ele>199.2</ele>
        <time>2020-06-08T08:21:01Z</time>
      </trkpt>
      <trkpt lat="48.03392" lon="-3.75682">
        <ele>199.2</ele>
        <time>2020-06-08T08:21:02Z</time>
      </trkpt>
      <trkpt lat="48.03395" lon="-3.75684">
        <ele>199.2</ele>
        <time>2020-06-08T08:21:03Z</time>
      </trkpt>
      <trkpt lat="48.03399" lon="-3.75685">
        <ele>199.2</ele>
        <time>2020-06-08T08:21:04Z</time>
      </trkpt>
      <trkpt lat="48.03402" lon="-3.75686">
        <ele>199.2</ele>
        <time>2020-06-08T08:21:05Z</time>
      </trkpt>
      <trkpt lat="48.03406" lon="-3.75687">
        <ele>199.2</ele>
        <time>2020-06-08T08:21:06Z</time>
      </trkpt>
      <trkpt lat="48.03409" lon="-3.75688">
        <ele>199.2</ele>
        <time>2020-06-08T08:21:07Z</time>
      </trkpt>
      <trkpt lat="48.03413" lon="-3.7569">
        <ele>199.2</ele>
        <time>2020-06-08T08:21:08Z</time>
      </trkpt>
      <trkpt lat="48.03416" lon="-3.75692">
        <ele>199.2</ele>
        <time>2020-06-08T08:21:09Z</time>
      </trkpt>
      <trkpt lat="48.0342" lon="-3.75692">
        <ele>199.2</ele>
        <time>2020-06-08T08:21:10Z</time>
      </trkpt>
      <trkpt lat="48.03424" lon="-3.75693">
        <ele>199.2</ele>
        <time>2020-06-08T08:21:11Z</time>
      </trkpt>
      <trkpt lat="48.03428" lon="-3.75695">
        <ele>199.2</ele>
        <time>2020-06-08T08:21:12Z</time>
      </trkpt>
      <trkpt lat="48.03433" lon="-3.75696">
        <ele>199.2</ele>
        <time>2020-06-08T08:21:13Z</time>
      </trkpt>
      <trkpt lat="48.03436" lon="-3.75697">
        <ele>199.1</ele>
        <time>2020-06-08T08:21:14Z</time>
      </trkpt>
      <trkpt lat="48.03441" lon="-3.75698">
        <ele>199.1</ele>
        <time>2020-06-08T08:21:15Z</time>
      </trkpt>
      <trkpt lat="48.03445" lon="-3.75698">
        <ele>199</ele>
        <time>2020-06-08T08:21:16Z</time>
      </trkpt>
      <trkpt lat="48.03449" lon="-3.75699">
        <ele>199</ele>
        <time>2020-06-08T08:21:17Z</time>
      </trkpt>
      <trkpt lat="48.03453" lon="-3.757">
        <ele>198.9</ele>
        <time>2020-06-08T08:21:18Z</time>
      </trkpt>
      <trkpt lat="48.03458" lon="-3.75702">
        <ele>198.9</ele>
        <time>2020-06-08T08:21:19Z</time>
      </trkpt>
      <trkpt lat="48.03463" lon="-3.75705">
        <ele>198.8</ele>
        <time>2020-06-08T08:21:20Z</time>
      </trkpt>
      <trkpt lat="48.03468" lon="-3.75706">
        <ele>198.8</ele>
        <time>2020-06-08T08:21:21Z</time>
      </trkpt>
      <trkpt lat="48.03473" lon="-3.75708">
        <ele>198.7</ele>
        <time>2020-06-08T08:21:22Z</time>
      </trkpt>
      <trkpt lat="48.03478" lon="-3.7571">
        <ele>198.7</ele>
        <time>2020-06-08T08:21:23Z</time>
      </trkpt>
      <trkpt lat="48.03483" lon="-3.75713">
        <ele>198.7</ele>
        <time>2020-06-08T08:21:24Z</time>
      </trkpt>
      <trkpt lat="48.03488" lon="-3.75714">
        <ele>198.6</ele>
        <time>2020-06-08T08:21:25Z</time>
      </trkpt>
      <trkpt lat="48.03492" lon="-3.75715">
        <ele>198.6</ele>
        <time>2020-06-08T08:21:26Z</time>
      </trkpt>
      <trkpt lat="48.03497" lon="-3.75717">
        <ele>198.6</ele>
        <time>2020-06-08T08:21:27Z</time>
      </trkpt>
      <trkpt lat="48.03502" lon="-3.75719">
        <ele>198.6</ele>
        <time>2020-06-08T08:21:28Z</time>
      </trkpt>
      <trkpt lat="48.03508" lon="-3.75719">
        <ele>198.7</ele>
        <time>2020-06-08T08:21:29Z</time>
      </trkpt>
      <trkpt lat="48.03514" lon="-3.75721">
        <ele>198.8</ele>
        <time>2020-06-08T08:21:30Z</time>
      </trkpt>
      <trkpt lat="48.03519" lon="-3.75722">
        <ele>198.9</ele>
        <time>2020-06-08T08:21:31Z</time>
      </trkpt>
      <trkpt lat="48.03525" lon="-3.75723">
        <ele>199.1</ele>
        <time>2020-06-08T08:21:32Z</time>
      </trkpt>
      <trkpt lat="48.0353" lon="-3.75725">
        <ele>199.1</ele>
        <time>2020-06-08T08:21:33Z</time>
      </trkpt>
      <trkpt lat="48.03536" lon="-3.75727">
        <ele>199.1</ele>
        <time>2020-06-08T08:21:34Z</time>
      </trkpt>
      <trkpt lat="48.03541" lon="-3.75729">
        <ele>199.1</ele>
        <time>2020-06-08T08:21:35Z</time>
      </trkpt>
      <trkpt lat="48.03546" lon="-3.75732">
        <ele>199.2</ele>
        <time>2020-06-08T08:21:36Z</time>
      </trkpt>
      <trkpt lat="48.03551" lon="-3.75734">
        <ele>199.2</ele>
        <time>2020-06-08T08:21:37Z</time>
      </trkpt>
      <trkpt lat="48.03555" lon="-3.75735">
        <ele>199.3</ele>
        <time>2020-06-08T08:21:38Z</time>
      </trkpt>
      <trkpt lat="48.0356" lon="-3.75736">
        <ele>199.3</ele>
        <time>2020-06-08T08:21:39Z</time>
      </trkpt>
      <trkpt lat="48.03565" lon="-3.75737">
        <ele>199.4</ele>
        <time>2020-06-08T08:21:40Z</time>
      </trkpt>
      <trkpt lat="48.03571" lon="-3.75738">
        <ele>199.5</ele>
        <time>2020-06-08T08:21:41Z</time>
      </trkpt>
      <trkpt lat="48.03576" lon="-3.7574">
        <ele>199.6</ele>
        <time>2020-06-08T08:21:42Z</time>
      </trkpt>
      <trkpt lat="48.03581" lon="-3.75741">
        <ele>199.7</ele>
        <time>2020-06-08T08:21:43Z</time>
      </trkpt>
      <trkpt lat="48.03587" lon="-3.75743">
        <ele>199.8</ele>
        <time>2020-06-08T08:21:44Z</time>
      </trkpt>
      <trkpt lat="48.03592" lon="-3.75745">
        <ele>199.9</ele>
        <time>2020-06-08T08:21:45Z</time>
      </trkpt>
      <trkpt lat="48.03597" lon="-3.75747">
        <ele>200.1</ele>
        <time>2020-06-08T08:21:46Z</time>
      </trkpt>
      <trkpt lat="48.03602" lon="-3.75749">
        <ele>200.2</ele>
        <time>2020-06-08T08:21:47Z</time>
      </trkpt>
      <trkpt lat="48.03606" lon="-3.75751">
        <ele>200.4</ele>
        <time>2020-06-08T08:21:48Z</time>
      </trkpt>
      <trkpt lat="48.0361" lon="-3.75754">
        <ele>200.6</ele>
        <time>2020-06-08T08:21:49Z</time>
      </trkpt>
      <trkpt lat="48.03615" lon="-3.75755">
        <ele>200.9</ele>
        <time>2020-06-08T08:21:50Z</time>
      </trkpt>
      <trkpt lat="48.0362" lon="-3.75758">
        <ele>201.1</ele>
        <time>2020-06-08T08:21:51Z</time>
      </trkpt>
      <trkpt lat="48.03624" lon="-3.75759">
        <ele>201.4</ele>
        <time>2020-06-08T08:21:52Z</time>
      </trkpt>
      <trkpt lat="48.03627" lon="-3.75761">
        <ele>201.4</ele>
        <time>2020-06-08T08:21:53Z</time>
      </trkpt>
      <trkpt lat="48.03629" lon="-3.75763">
        <ele>201.3</ele>
        <time>2020-06-08T08:21:54Z</time>
      </trkpt>
      <trkpt lat="48.03632" lon="-3.75765">
        <ele>201.1</ele>
        <time>2020-06-08T08:21:55Z</time>
      </trkpt>
      <trkpt lat="48.03636" lon="-3.75768">
        <ele>200.9</ele>
        <time>2020-06-08T08:21:56Z</time>
      </trkpt>
      <trkpt lat="48.0364" lon="-3.75771">
        <ele>200.7</ele>
        <time>2020-06-08T08:21:57Z</time>
      </trkpt>
      <trkpt lat="48.03644" lon="-3.75773">
        <ele>200.6</ele>
        <time>2020-06-08T08:21:58Z</time>
      </trkpt>
      <trkpt lat="48.03647" lon="-3.75776">
        <ele>200.5</ele>
        <time>2020-06-08T08:21:59Z</time>
      </trkpt>
      <trkpt lat="48.03651" lon="-3.75779">
        <ele>200.4</ele>
        <time>2020-06-08T08:22:00Z</time>
      </trkpt>
      <trkpt lat="48.03654" lon="-3.75782">
        <ele>200.3</ele>
        <time>2020-06-08T08:22:01Z</time>
      </trkpt>
      <trkpt lat="48.03657" lon="-3.75785">
        <ele>200.2</ele>
        <time>2020-06-08T08:22:02Z</time>
      </trkpt>
      <trkpt lat="48.0366" lon="-3.75788">
        <ele>200.8</ele>
        <time>2020-06-08T08:22:03Z</time>
      </trkpt>
      <trkpt lat="48.03663" lon="-3.75791">
        <ele>201.3</ele>
        <time>2020-06-08T08:22:04Z</time>
      </trkpt>
      <trkpt lat="48.03666" lon="-3.75793">
        <ele>201.7</ele>
        <time>2020-06-08T08:22:05Z</time>
      </trkpt>
      <trkpt lat="48.03669" lon="-3.75795">
        <ele>202.1</ele>
        <time>2020-06-08T08:22:06Z</time>
      </trkpt>
      <trkpt lat="48.03672" lon="-3.75795">
        <ele>202.4</ele>
        <time>2020-06-08T08:22:07Z</time>
      </trkpt>
      <trkpt lat="48.03676" lon="-3.75797">
        <ele>202.9</ele>
        <time>2020-06-08T08:22:08Z</time>
      </trkpt>
      <trkpt lat="48.03678" lon="-3.75798">
        <ele>203</ele>
        <time>2020-06-08T08:22:09Z</time>
      </trkpt>
      <trkpt lat="48.03681" lon="-3.758">
        <ele>203.4</ele>
        <time>2020-06-08T08:22:10Z</time>
      </trkpt>
      <trkpt lat="48.03684" lon="-3.75802">
        <ele>203.6</ele>
        <time>2020-06-08T08:22:11Z</time>
      </trkpt>
      <trkpt lat="48.03688" lon="-3.75804">
        <ele>203.9</ele>
        <time>2020-06-08T08:22:12Z</time>
      </trkpt>
      <trkpt lat="48.03691" lon="-3.75806">
        <ele>204.1</ele>
        <time>2020-06-08T08:22:13Z</time>
      </trkpt>
      <trkpt lat="48.03694" lon="-3.75807">
        <ele>204.4</ele>
        <time>2020-06-08T08:22:14Z</time>
      </trkpt>
      <trkpt lat="48.03698" lon="-3.75809">
        <ele>204.6</ele>
        <time>2020-06-08T08:22:15Z</time>
      </trkpt>
      <trkpt lat="48.03701" lon="-3.75811">
        <ele>204.8</ele>
        <time>2020-06-08T08:22:16Z</time>
      </trkpt>
      <trkpt lat="48.03704" lon="-3.75813">
        <ele>205</ele>
        <time>2020-06-08T08:22:17Z</time>
      </trkpt>
      <trkpt lat="48.03708" lon="-3.75814">
        <ele>205.2</ele>
        <time>2020-06-08T08:22:18Z</time>
      </trkpt>
      <trkpt lat="48.03712" lon="-3.75815">
        <ele>205.3</ele>
        <time>2020-06-08T08:22:19Z</time>
      </trkpt>
      <trkpt lat="48.03715" lon="-3.75818">
        <ele>205.5</ele>
        <time>2020-06-08T08:22:20Z</time>
      </trkpt>
      <trkpt lat="48.03718" lon="-3.75819">
        <ele>205.7</ele>
        <time>2020-06-08T08:22:21Z</time>
      </trkpt>
      <trkpt lat="48.03722" lon="-3.75819">
        <ele>205.9</ele>
        <time>2020-06-08T08:22:22Z</time>
      </trkpt>
      <trkpt lat="48.03726" lon="-3.7582">
        <ele>206.1</ele>
        <time>2020-06-08T08:22:23Z</time>
      </trkpt>
      <trkpt lat="48.03729" lon="-3.75821">
        <ele>206.2</ele>
        <time>2020-06-08T08:22:24Z</time>
      </trkpt>
      <trkpt lat="48.03733" lon="-3.75822">
        <ele>206.4</ele>
        <time>2020-06-08T08:22:25Z</time>
      </trkpt>
      <trkpt lat="48.03736" lon="-3.75823">
        <ele>206.6</ele>
        <time>2020-06-08T08:22:26Z</time>
      </trkpt>
      <trkpt lat="48.03739" lon="-3.75825">
        <ele>206.7</ele>
        <time>2020-06-08T08:22:27Z</time>
      </trkpt>
      <trkpt lat="48.03742" lon="-3.75825">
        <ele>206.9</ele>
        <time>2020-06-08T08:22:28Z</time>
      </trkpt>
      <trkpt lat="48.03746" lon="-3.75826">
        <ele>207.1</ele>
        <time>2020-06-08T08:22:29Z</time>
      </trkpt>
      <trkpt lat="48.0375" lon="-3.75824">
        <ele>207.3</ele>
        <time>2020-06-08T08:22:30Z</time>
      </trkpt>
      <trkpt lat="48.03753" lon="-3.75825">
        <ele>207.4</ele>
        <time>2020-06-08T08:22:31Z</time>
      </trkpt>
      <trkpt lat="48.03756" lon="-3.75826">
        <ele>207.5</ele>
        <time>2020-06-08T08:22:32Z</time>
      </trkpt>
      <trkpt lat="48.0376" lon="-3.75826">
        <ele>207.7</ele>
        <time>2020-06-08T08:22:33Z</time>
      </trkpt>
      <trkpt lat="48.03763" lon="-3.75827">
        <ele>207.8</ele>
        <time>2020-06-08T08:22:34Z</time>
      </trkpt>
      <trkpt lat="48.03766" lon="-3.75828">
        <ele>207.9</ele>
        <time>2020-06-08T08:22:35Z</time>
      </trkpt>
      <trkpt lat="48.03769" lon="-3.75829">
        <ele>208</ele>
        <time>2020-06-08T08:22:36Z</time>
      </trkpt>
      <trkpt lat="48.03772" lon="-3.7583">
        <ele>208.1</ele>
        <time>2020-06-08T08:22:37Z</time>
      </trkpt>
      <trkpt lat="48.03775" lon="-3.75831">
        <ele>208.2</ele>
        <time>2020-06-08T08:22:38Z</time>
      </trkpt>
      <trkpt lat="48.03778" lon="-3.75832">
        <ele>208.3</ele>
        <time>2020-06-08T08:22:39Z</time>
      </trkpt>
      <trkpt lat="48.03779" lon="-3.75833">
        <ele>208.3</ele>
        <time>2020-06-08T08:22:40Z</time>
      </trkpt>
      <trkpt lat="48.03783" lon="-3.75833">
        <ele>208.4</ele>
        <time>2020-06-08T08:22:41Z</time>
      </trkpt>
      <trkpt lat="48.03787" lon="-3.75833">
        <ele>208.6</ele>
        <time>2020-06-08T08:22:42Z</time>
      </trkpt>
      <trkpt lat="48.03789" lon="-3.75833">
        <ele>208.6</ele>
        <time>2020-06-08T08:22:43Z</time>
      </trkpt>
      <trkpt lat="48.03793" lon="-3.75834">
        <ele>208.7</ele>
        <time>2020-06-08T08:22:44Z</time>
      </trkpt>
      <trkpt lat="48.03794" lon="-3.75834">
        <ele>208.8</ele>
        <time>2020-06-08T08:22:45Z</time>
      </trkpt>
      <trkpt lat="48.03798" lon="-3.75834">
        <ele>208.9</ele>
        <time>2020-06-08T08:22:46Z</time>
      </trkpt>
      <trkpt lat="48.03799" lon="-3.75834">
        <ele>208.9</ele>
        <time>2020-06-08T08:22:47Z</time>
      </trkpt>
      <trkpt lat="48.03802" lon="-3.75835">
        <ele>209</ele>
        <time>2020-06-08T08:22:48Z</time>
      </trkpt>
      <trkpt lat="48.03805" lon="-3.75835">
        <ele>209.1</ele>
        <time>2020-06-08T08:22:49Z</time>
      </trkpt>
      <trkpt lat="48.03808" lon="-3.75835">
        <ele>209.2</ele>
        <time>2020-06-08T08:22:50Z</time>
      </trkpt>
      <trkpt lat="48.03811" lon="-3.75836">
        <ele>209.3</ele>
        <time>2020-06-08T08:22:51Z</time>
      </trkpt>
      <trkpt lat="48.03815" lon="-3.75837">
        <ele>209.4</ele>
        <time>2020-06-08T08:22:52Z</time>
      </trkpt>
      <trkpt lat="48.03818" lon="-3.75838">
        <ele>209.6</ele>
        <time>2020-06-08T08:22:53Z</time>
      </trkpt>
      <trkpt lat="48.03822" lon="-3.75838">
        <ele>209.8</ele>
        <time>2020-06-08T08:22:54Z</time>
      </trkpt>
      <trkpt lat="48.03824" lon="-3.75838">
        <ele>209.8</ele>
        <time>2020-06-08T08:22:55Z</time>
      </trkpt>
      <trkpt lat="48.03827" lon="-3.75839">
        <ele>210</ele>
        <time>2020-06-08T08:22:56Z</time>
      </trkpt>
      <trkpt lat="48.03829" lon="-3.75839">
        <ele>210.1</ele>
        <time>2020-06-08T08:22:57Z</time>
      </trkpt>
      <trkpt lat="48.03833" lon="-3.75839">
        <ele>210.3</ele>
        <time>2020-06-08T08:22:58Z</time>
      </trkpt>
      <trkpt lat="48.03834" lon="-3.7584">
        <ele>210.3</ele>
        <time>2020-06-08T08:22:59Z</time>
      </trkpt>
      <trkpt lat="48.03837" lon="-3.75841">
        <ele>210.5</ele>
        <time>2020-06-08T08:23:00Z</time>
      </trkpt>
      <trkpt lat="48.0384" lon="-3.75841">
        <ele>210.6</ele>
        <time>2020-06-08T08:23:01Z</time>
      </trkpt>
      <trkpt lat="48.03843" lon="-3.75841">
        <ele>210.7</ele>
        <time>2020-06-08T08:23:02Z</time>
      </trkpt>
      <trkpt lat="48.03846" lon="-3.75841">
        <ele>210.8</ele>
        <time>2020-06-08T08:23:03Z</time>
      </trkpt>
      <trkpt lat="48.03849" lon="-3.75841">
        <ele>211</ele>
        <time>2020-06-08T08:23:04Z</time>
      </trkpt>
      <trkpt lat="48.03853" lon="-3.75842">
        <ele>211.2</ele>
        <time>2020-06-08T08:23:05Z</time>
      </trkpt>
      <trkpt lat="48.03854" lon="-3.75842">
        <ele>211.2</ele>
        <time>2020-06-08T08:23:06Z</time>
      </trkpt>
      <trkpt lat="48.03857" lon="-3.75843">
        <ele>211.4</ele>
        <time>2020-06-08T08:23:07Z</time>
      </trkpt>
      <trkpt lat="48.03861" lon="-3.75843">
        <ele>211.5</ele>
        <time>2020-06-08T08:23:08Z</time>
      </trkpt>
      <trkpt lat="48.03864" lon="-3.75845">
        <ele>211.6</ele>
        <time>2020-06-08T08:23:09Z</time>
      </trkpt>
      <trkpt lat="48.03867" lon="-3.75845">
        <ele>211.7</ele>
        <time>2020-06-08T08:23:10Z</time>
      </trkpt>
      <trkpt lat="48.03871" lon="-3.75845">
        <ele>211.8</ele>
        <time>2020-06-08T08:23:11Z</time>
      </trkpt>
      <trkpt lat="48.03872" lon="-3.75846">
        <ele>211.9</ele>
        <time>2020-06-08T08:23:12Z</time>
      </trkpt>
      <trkpt lat="48.03875" lon="-3.75847">
        <ele>212</ele>
        <time>2020-06-08T08:23:13Z</time>
      </trkpt>
      <trkpt lat="48.03878" lon="-3.75848">
        <ele>212.1</ele>
        <time>2020-06-08T08:23:14Z</time>
      </trkpt>
      <trkpt lat="48.03882" lon="-3.75847">
        <ele>212.2</ele>
        <time>2020-06-08T08:23:15Z</time>
      </trkpt>
      <trkpt lat="48.03885" lon="-3.75847">
        <ele>212.3</ele>
        <time>2020-06-08T08:23:16Z</time>
      </trkpt>
      <trkpt lat="48.03889" lon="-3.75846">
        <ele>212.4</ele>
        <time>2020-06-08T08:23:17Z</time>
      </trkpt>
      <trkpt lat="48.03893" lon="-3.75846">
        <ele>212.6</ele>
        <time>2020-06-08T08:23:18Z</time>
      </trkpt>
      <trkpt lat="48.03896" lon="-3.75846">
        <ele>212.7</ele>
        <time>2020-06-08T08:23:19Z</time>
      </trkpt>
      <trkpt lat="48.03899" lon="-3.75847">
        <ele>212.8</ele>
        <time>2020-06-08T08:23:20Z</time>
      </trkpt>
      <trkpt lat="48.03903" lon="-3.75847">
        <ele>212.9</ele>
        <time>2020-06-08T08:23:21Z</time>
      </trkpt>
      <trkpt lat="48.03905" lon="-3.75847">
        <ele>213</ele>
        <time>2020-06-08T08:23:22Z</time>
      </trkpt>
      <trkpt lat="48.03908" lon="-3.75847">
        <ele>213.1</ele>
        <time>2020-06-08T08:23:23Z</time>
      </trkpt>
      <trkpt lat="48.03911" lon="-3.75849">
        <ele>213.1</ele>
        <time>2020-06-08T08:23:24Z</time>
      </trkpt>
      <trkpt lat="48.03914" lon="-3.7585">
        <ele>213.2</ele>
        <time>2020-06-08T08:23:25Z</time>
      </trkpt>
      <trkpt lat="48.03917" lon="-3.7585">
        <ele>213.2</ele>
        <time>2020-06-08T08:23:26Z</time>
      </trkpt>
      <trkpt lat="48.0392" lon="-3.75851">
        <ele>213.3</ele>
        <time>2020-06-08T08:23:27Z</time>
      </trkpt>
      <trkpt lat="48.03923" lon="-3.75852">
        <ele>213.3</ele>
        <time>2020-06-08T08:23:28Z</time>
      </trkpt>
      <trkpt lat="48.03927" lon="-3.75853">
        <ele>213.4</ele>
        <time>2020-06-08T08:23:29Z</time>
      </trkpt>
      <trkpt lat="48.03928" lon="-3.75853">
        <ele>213.4</ele>
        <time>2020-06-08T08:23:30Z</time>
      </trkpt>
      <trkpt lat="48.03932" lon="-3.75853">
        <ele>213.5</ele>
        <time>2020-06-08T08:23:31Z</time>
      </trkpt>
      <trkpt lat="48.03935" lon="-3.75853">
        <ele>213.5</ele>
        <time>2020-06-08T08:23:32Z</time>
      </trkpt>
      <trkpt lat="48.03938" lon="-3.75853">
        <ele>213.6</ele>
        <time>2020-06-08T08:23:33Z</time>
      </trkpt>
      <trkpt lat="48.03941" lon="-3.75853">
        <ele>213.7</ele>
        <time>2020-06-08T08:23:34Z</time>
      </trkpt>
      <trkpt lat="48.03943" lon="-3.75855">
        <ele>213.7</ele>
        <time>2020-06-08T08:23:35Z</time>
      </trkpt>
      <trkpt lat="48.03946" lon="-3.75856">
        <ele>213.8</ele>
        <time>2020-06-08T08:23:36Z</time>
      </trkpt>
      <trkpt lat="48.03949" lon="-3.75857">
        <ele>213.9</ele>
        <time>2020-06-08T08:23:37Z</time>
      </trkpt>
      <trkpt lat="48.03952" lon="-3.75858">
        <ele>214</ele>
        <time>2020-06-08T08:23:38Z</time>
      </trkpt>
      <trkpt lat="48.03955" lon="-3.75858">
        <ele>214.1</ele>
        <time>2020-06-08T08:23:39Z</time>
      </trkpt>
      <trkpt lat="48.03959" lon="-3.75859">
        <ele>214.3</ele>
        <time>2020-06-08T08:23:40Z</time>
      </trkpt>
      <trkpt lat="48.0396" lon="-3.75859">
        <ele>214.3</ele>
        <time>2020-06-08T08:23:41Z</time>
      </trkpt>
      <trkpt lat="48.03964" lon="-3.75861">
        <ele>214.5</ele>
        <time>2020-06-08T08:23:42Z</time>
      </trkpt>
      <trkpt lat="48.03966" lon="-3.75861">
        <ele>214.6</ele>
        <time>2020-06-08T08:23:43Z</time>
      </trkpt>
      <trkpt lat="48.03969" lon="-3.75863">
        <ele>214.7</ele>
        <time>2020-06-08T08:23:44Z</time>
      </trkpt>
      <trkpt lat="48.03972" lon="-3.75864">
        <ele>214.8</ele>
        <time>2020-06-08T08:23:45Z</time>
      </trkpt>
      <trkpt lat="48.03975" lon="-3.75866">
        <ele>214.9</ele>
        <time>2020-06-08T08:23:46Z</time>
      </trkpt>
      <trkpt lat="48.03978" lon="-3.75868">
        <ele>215</ele>
        <time>2020-06-08T08:23:47Z</time>
      </trkpt>
      <trkpt lat="48.03981" lon="-3.75869">
        <ele>215.1</ele>
        <time>2020-06-08T08:23:48Z</time>
      </trkpt>
      <trkpt lat="48.03984" lon="-3.75871">
        <ele>215.2</ele>
        <time>2020-06-08T08:23:49Z</time>
      </trkpt>
      <trkpt lat="48.03987" lon="-3.75873">
        <ele>215.3</ele>
        <time>2020-06-08T08:23:50Z</time>
      </trkpt>
      <trkpt lat="48.03991" lon="-3.75875">
        <ele>215.4</ele>
        <time>2020-06-08T08:23:51Z</time>
      </trkpt>
      <trkpt lat="48.03994" lon="-3.75877">
        <ele>215.6</ele>
        <time>2020-06-08T08:23:52Z</time>
      </trkpt>
      <trkpt lat="48.03997" lon="-3.75879">
        <ele>215.7</ele>
        <time>2020-06-08T08:23:53Z</time>
      </trkpt>
      <trkpt lat="48.04001" lon="-3.7588">
        <ele>215.8</ele>
        <time>2020-06-08T08:23:54Z</time>
      </trkpt>
      <trkpt lat="48.04004" lon="-3.75882">
        <ele>216</ele>
        <time>2020-06-08T08:23:55Z</time>
      </trkpt>
      <trkpt lat="48.04006" lon="-3.75883">
        <ele>216.1</ele>
        <time>2020-06-08T08:23:56Z</time>
      </trkpt>
      <trkpt lat="48.04009" lon="-3.75884">
        <ele>216.2</ele>
        <time>2020-06-08T08:23:57Z</time>
      </trkpt>
      <trkpt lat="48.04012" lon="-3.75886">
        <ele>216.3</ele>
        <time>2020-06-08T08:23:58Z</time>
      </trkpt>
      <trkpt lat="48.04014" lon="-3.75888">
        <ele>216.4</ele>
        <time>2020-06-08T08:23:59Z</time>
      </trkpt>
      <trkpt lat="48.04017" lon="-3.75889">
        <ele>216.5</ele>
        <time>2020-06-08T08:24:00Z</time>
      </trkpt>
      <trkpt lat="48.0402" lon="-3.7589">
        <ele>216.5</ele>
        <time>2020-06-08T08:24:01Z</time>
      </trkpt>
      <trkpt lat="48.04023" lon="-3.75892">
        <ele>216.6</ele>
        <time>2020-06-08T08:24:02Z</time>
      </trkpt>
      <trkpt lat="48.04027" lon="-3.75894">
        <ele>216.7</ele>
        <time>2020-06-08T08:24:03Z</time>
      </trkpt>
      <trkpt lat="48.04028" lon="-3.75895">
        <ele>216.8</ele>
        <time>2020-06-08T08:24:04Z</time>
      </trkpt>
      <trkpt lat="48.04032" lon="-3.75897">
        <ele>216.9</ele>
        <time>2020-06-08T08:24:05Z</time>
      </trkpt>
      <trkpt lat="48.04033" lon="-3.75897">
        <ele>216.9</ele>
        <time>2020-06-08T08:24:06Z</time>
      </trkpt>
      <trkpt lat="48.04037" lon="-3.75899">
        <ele>217</ele>
        <time>2020-06-08T08:24:07Z</time>
      </trkpt>
      <trkpt lat="48.0404" lon="-3.75901">
        <ele>217.2</ele>
        <time>2020-06-08T08:24:08Z</time>
      </trkpt>
      <trkpt lat="48.04043" lon="-3.75903">
        <ele>217.3</ele>
        <time>2020-06-08T08:24:09Z</time>
      </trkpt>
      <trkpt lat="48.04046" lon="-3.75904">
        <ele>217.4</ele>
        <time>2020-06-08T08:24:10Z</time>
      </trkpt>
      <trkpt lat="48.04049" lon="-3.75905">
        <ele>217.5</ele>
        <time>2020-06-08T08:24:11Z</time>
      </trkpt>
      <trkpt lat="48.04053" lon="-3.75908">
        <ele>217.6</ele>
        <time>2020-06-08T08:24:12Z</time>
      </trkpt>
      <trkpt lat="48.04055" lon="-3.75909">
        <ele>217.6</ele>
        <time>2020-06-08T08:24:13Z</time>
      </trkpt>
      <trkpt lat="48.04058" lon="-3.7591">
        <ele>217.7</ele>
        <time>2020-06-08T08:24:14Z</time>
      </trkpt>
      <trkpt lat="48.04061" lon="-3.75911">
        <ele>217.7</ele>
        <time>2020-06-08T08:24:15Z</time>
      </trkpt>
      <trkpt lat="48.04065" lon="-3.75912">
        <ele>217.8</ele>
        <time>2020-06-08T08:24:16Z</time>
      </trkpt>
      <trkpt lat="48.04068" lon="-3.75913">
        <ele>217.8</ele>
        <time>2020-06-08T08:24:17Z</time>
      </trkpt>
      <trkpt lat="48.04071" lon="-3.75915">
        <ele>217.9</ele>
        <time>2020-06-08T08:24:18Z</time>
      </trkpt>
      <trkpt lat="48.04074" lon="-3.75917">
        <ele>217.9</ele>
        <time>2020-06-08T08:24:19Z</time>
      </trkpt>
      <trkpt lat="48.04077" lon="-3.75919">
        <ele>217.9</ele>
        <time>2020-06-08T08:24:20Z</time>
      </trkpt>
      <trkpt lat="48.0408" lon="-3.7592">
        <ele>217.9</ele>
        <time>2020-06-08T08:24:21Z</time>
      </trkpt>
      <trkpt lat="48.04083" lon="-3.75921">
        <ele>217.9</ele>
        <time>2020-06-08T08:24:22Z</time>
      </trkpt>
      <trkpt lat="48.04086" lon="-3.75923">
        <ele>217.9</ele>
        <time>2020-06-08T08:24:23Z</time>
      </trkpt>
      <trkpt lat="48.04089" lon="-3.75925">
        <ele>217.9</ele>
        <time>2020-06-08T08:24:24Z</time>
      </trkpt>
      <trkpt lat="48.04093" lon="-3.75926">
        <ele>217.9</ele>
        <time>2020-06-08T08:24:25Z</time>
      </trkpt>
      <trkpt lat="48.04097" lon="-3.75928">
        <ele>217.8</ele>
        <time>2020-06-08T08:24:26Z</time>
      </trkpt>
      <trkpt lat="48.041" lon="-3.7593">
        <ele>217.8</ele>
        <time>2020-06-08T08:24:27Z</time>
      </trkpt>
      <trkpt lat="48.04103" lon="-3.75932">
        <ele>217.7</ele>
        <time>2020-06-08T08:24:28Z</time>
      </trkpt>
      <trkpt lat="48.04107" lon="-3.75934">
        <ele>217.6</ele>
        <time>2020-06-08T08:24:29Z</time>
      </trkpt>
      <trkpt lat="48.0411" lon="-3.75936">
        <ele>217.6</ele>
        <time>2020-06-08T08:24:30Z</time>
      </trkpt>
      <trkpt lat="48.04112" lon="-3.75937">
        <ele>217.5</ele>
        <time>2020-06-08T08:24:31Z</time>
      </trkpt>
      <trkpt lat="48.04116" lon="-3.75939">
        <ele>217.4</ele>
        <time>2020-06-08T08:24:32Z</time>
      </trkpt>
      <trkpt lat="48.04118" lon="-3.7594">
        <ele>217.4</ele>
        <time>2020-06-08T08:24:33Z</time>
      </trkpt>
      <trkpt lat="48.0412" lon="-3.75941">
        <ele>217.3</ele>
        <time>2020-06-08T08:24:34Z</time>
      </trkpt>
      <trkpt lat="48.04123" lon="-3.75942">
        <ele>217.2</ele>
        <time>2020-06-08T08:24:35Z</time>
      </trkpt>
      <trkpt lat="48.04126" lon="-3.75943">
        <ele>217.2</ele>
        <time>2020-06-08T08:24:36Z</time>
      </trkpt>
      <trkpt lat="48.04129" lon="-3.75944">
        <ele>217.1</ele>
        <time>2020-06-08T08:24:37Z</time>
      </trkpt>
      <trkpt lat="48.04133" lon="-3.75946">
        <ele>217</ele>
        <time>2020-06-08T08:24:38Z</time>
      </trkpt>
      <trkpt lat="48.04137" lon="-3.75948">
        <ele>216.9</ele>
        <time>2020-06-08T08:24:39Z</time>
      </trkpt>
      <trkpt lat="48.0414" lon="-3.7595">
        <ele>216.8</ele>
        <time>2020-06-08T08:24:40Z</time>
      </trkpt>
      <trkpt lat="48.04145" lon="-3.75952">
        <ele>216.6</ele>
        <time>2020-06-08T08:24:41Z</time>
      </trkpt>
      <trkpt lat="48.04149" lon="-3.75955">
        <ele>216.4</ele>
        <time>2020-06-08T08:24:42Z</time>
      </trkpt>
      <trkpt lat="48.04153" lon="-3.75957">
        <ele>216.3</ele>
        <time>2020-06-08T08:24:43Z</time>
      </trkpt>
      <trkpt lat="48.04157" lon="-3.75959">
        <ele>216.2</ele>
        <time>2020-06-08T08:24:44Z</time>
      </trkpt>
      <trkpt lat="48.04161" lon="-3.7596">
        <ele>216.1</ele>
        <time>2020-06-08T08:24:45Z</time>
      </trkpt>
      <trkpt lat="48.04166" lon="-3.75962">
        <ele>215.9</ele>
        <time>2020-06-08T08:24:46Z</time>
      </trkpt>
      <trkpt lat="48.0417" lon="-3.75963">
        <ele>215.8</ele>
        <time>2020-06-08T08:24:47Z</time>
      </trkpt>
      <trkpt lat="48.04175" lon="-3.75965">
        <ele>215.7</ele>
        <time>2020-06-08T08:24:48Z</time>
      </trkpt>
      <trkpt lat="48.04179" lon="-3.75968">
        <ele>215.5</ele>
        <time>2020-06-08T08:24:49Z</time>
      </trkpt>
      <trkpt lat="48.04184" lon="-3.75971">
        <ele>215.4</ele>
        <time>2020-06-08T08:24:50Z</time>
      </trkpt>
      <trkpt lat="48.04188" lon="-3.75974">
        <ele>215.3</ele>
        <time>2020-06-08T08:24:51Z</time>
      </trkpt>
      <trkpt lat="48.04192" lon="-3.75976">
        <ele>215.2</ele>
        <time>2020-06-08T08:24:52Z</time>
      </trkpt>
      <trkpt lat="48.04196" lon="-3.7598">
        <ele>215</ele>
        <time>2020-06-08T08:24:53Z</time>
      </trkpt>
      <trkpt lat="48.042" lon="-3.75983">
        <ele>214.9</ele>
        <time>2020-06-08T08:24:54Z</time>
      </trkpt>
      <trkpt lat="48.04205" lon="-3.75985">
        <ele>214.8</ele>
        <time>2020-06-08T08:24:55Z</time>
      </trkpt>
      <trkpt lat="48.0421" lon="-3.75988">
        <ele>214.7</ele>
        <time>2020-06-08T08:24:56Z</time>
      </trkpt>
      <trkpt lat="48.04214" lon="-3.75991">
        <ele>214.7</ele>
        <time>2020-06-08T08:24:57Z</time>
      </trkpt>
      <trkpt lat="48.04219" lon="-3.75995">
        <ele>214.6</ele>
        <time>2020-06-08T08:24:58Z</time>
      </trkpt>
      <trkpt lat="48.04223" lon="-3.75997">
        <ele>214.5</ele>
        <time>2020-06-08T08:24:59Z</time>
      </trkpt>
      <trkpt lat="48.04227" lon="-3.75999">
        <ele>214.5</ele>
        <time>2020-06-08T08:25:00Z</time>
      </trkpt>
      <trkpt lat="48.04231" lon="-3.76001">
        <ele>214.5</ele>
        <time>2020-06-08T08:25:01Z</time>
      </trkpt>
      <trkpt lat="48.04235" lon="-3.76003">
        <ele>214.4</ele>
        <time>2020-06-08T08:25:02Z</time>
      </trkpt>
      <trkpt lat="48.04239" lon="-3.76005">
        <ele>214.4</ele>
        <time>2020-06-08T08:25:03Z</time>
      </trkpt>
      <trkpt lat="48.04244" lon="-3.76006">
        <ele>214.4</ele>
        <time>2020-06-08T08:25:04Z</time>
      </trkpt>
      <trkpt lat="48.04248" lon="-3.76009">
        <ele>214.5</ele>
        <time>2020-06-08T08:25:05Z</time>
      </trkpt>
      <trkpt lat="48.04252" lon="-3.76011">
        <ele>214.5</ele>
        <time>2020-06-08T08:25:06Z</time>
      </trkpt>
      <trkpt lat="48.04256" lon="-3.76014">
        <ele>214.5</ele>
        <time>2020-06-08T08:25:07Z</time>
      </trkpt>
      <trkpt lat="48.0426" lon="-3.76017">
        <ele>214.5</ele>
        <time>2020-06-08T08:25:08Z</time>
      </trkpt>
      <trkpt lat="48.04264" lon="-3.7602">
        <ele>214.6</ele>
        <time>2020-06-08T08:25:09Z</time>
      </trkpt>
      <trkpt lat="48.04268" lon="-3.76022">
        <ele>214.6</ele>
        <time>2020-06-08T08:25:10Z</time>
      </trkpt>
      <trkpt lat="48.04272" lon="-3.76025">
        <ele>214.7</ele>
        <time>2020-06-08T08:25:11Z</time>
      </trkpt>
      <trkpt lat="48.04277" lon="-3.76027">
        <ele>214.8</ele>
        <time>2020-06-08T08:25:12Z</time>
      </trkpt>
      <trkpt lat="48.04281" lon="-3.7603">
        <ele>214.9</ele>
        <time>2020-06-08T08:25:13Z</time>
      </trkpt>
      <trkpt lat="48.04285" lon="-3.76033">
        <ele>215.1</ele>
        <time>2020-06-08T08:25:14Z</time>
      </trkpt>
      <trkpt lat="48.0429" lon="-3.76036">
        <ele>215.2</ele>
        <time>2020-06-08T08:25:15Z</time>
      </trkpt>
      <trkpt lat="48.04294" lon="-3.76039">
        <ele>215.4</ele>
        <time>2020-06-08T08:25:16Z</time>
      </trkpt>
      <trkpt lat="48.04298" lon="-3.76041">
        <ele>215.5</ele>
        <time>2020-06-08T08:25:17Z</time>
      </trkpt>
      <trkpt lat="48.04301" lon="-3.76044">
        <ele>215.7</ele>
        <time>2020-06-08T08:25:18Z</time>
      </trkpt>
      <trkpt lat="48.04305" lon="-3.76047">
        <ele>215.8</ele>
        <time>2020-06-08T08:25:19Z</time>
      </trkpt>
      <trkpt lat="48.04308" lon="-3.76049">
        <ele>215.9</ele>
        <time>2020-06-08T08:25:20Z</time>
      </trkpt>
      <trkpt lat="48.04312" lon="-3.76052">
        <ele>216.1</ele>
        <time>2020-06-08T08:25:21Z</time>
      </trkpt>
      <trkpt lat="48.04316" lon="-3.76054">
        <ele>216.3</ele>
        <time>2020-06-08T08:25:22Z</time>
      </trkpt>
      <trkpt lat="48.04319" lon="-3.76056">
        <ele>216.4</ele>
        <time>2020-06-08T08:25:23Z</time>
      </trkpt>
      <trkpt lat="48.04322" lon="-3.76059">
        <ele>216.6</ele>
        <time>2020-06-08T08:25:24Z</time>
      </trkpt>
      <trkpt lat="48.04326" lon="-3.7606">
        <ele>216.8</ele>
        <time>2020-06-08T08:25:25Z</time>
      </trkpt>
      <trkpt lat="48.04329" lon="-3.76062">
        <ele>217</ele>
        <time>2020-06-08T08:25:26Z</time>
      </trkpt>
      <trkpt lat="48.04332" lon="-3.76065">
        <ele>217.2</ele>
        <time>2020-06-08T08:25:27Z</time>
      </trkpt>
      <trkpt lat="48.04335" lon="-3.76066">
        <ele>217.4</ele>
        <time>2020-06-08T08:25:28Z</time>
      </trkpt>
      <trkpt lat="48.04338" lon="-3.76068">
        <ele>217.5</ele>
        <time>2020-06-08T08:25:29Z</time>
      </trkpt>
      <trkpt lat="48.04341" lon="-3.7607">
        <ele>217.7</ele>
        <time>2020-06-08T08:25:30Z</time>
      </trkpt>
      <trkpt lat="48.04344" lon="-3.76073">
        <ele>217.9</ele>
        <time>2020-06-08T08:25:31Z</time>
      </trkpt>
      <trkpt lat="48.04348" lon="-3.76076">
        <ele>218.2</ele>
        <time>2020-06-08T08:25:32Z</time>
      </trkpt>
      <trkpt lat="48.04352" lon="-3.76078">
        <ele>218.4</ele>
        <time>2020-06-08T08:25:33Z</time>
      </trkpt>
      <trkpt lat="48.04355" lon="-3.7608">
        <ele>218.6</ele>
        <time>2020-06-08T08:25:34Z</time>
      </trkpt>
      <trkpt lat="48.04359" lon="-3.76082">
        <ele>218.8</ele>
        <time>2020-06-08T08:25:35Z</time>
      </trkpt>
      <trkpt lat="48.04363" lon="-3.76083">
        <ele>219</ele>
        <time>2020-06-08T08:25:36Z</time>
      </trkpt>
      <trkpt lat="48.04366" lon="-3.76085">
        <ele>219.2</ele>
        <time>2020-06-08T08:25:37Z</time>
      </trkpt>
      <trkpt lat="48.04369" lon="-3.76086">
        <ele>219.4</ele>
        <time>2020-06-08T08:25:38Z</time>
      </trkpt>
      <trkpt lat="48.04372" lon="-3.76088">
        <ele>219.5</ele>
        <time>2020-06-08T08:25:39Z</time>
      </trkpt>
      <trkpt lat="48.04375" lon="-3.7609">
        <ele>219.7</ele>
        <time>2020-06-08T08:25:40Z</time>
      </trkpt>
      <trkpt lat="48.04379" lon="-3.76091">
        <ele>219.9</ele>
        <time>2020-06-08T08:25:41Z</time>
      </trkpt>
      <trkpt lat="48.04383" lon="-3.76092">
        <ele>220.1</ele>
        <time>2020-06-08T08:25:42Z</time>
      </trkpt>
      <trkpt lat="48.04386" lon="-3.76094">
        <ele>220.3</ele>
        <time>2020-06-08T08:25:43Z</time>
      </trkpt>
      <trkpt lat="48.04389" lon="-3.76095">
        <ele>220.5</ele>
        <time>2020-06-08T08:25:44Z</time>
      </trkpt>
      <trkpt lat="48.04392" lon="-3.76097">
        <ele>220.6</ele>
        <time>2020-06-08T08:25:45Z</time>
      </trkpt>
      <trkpt lat="48.04396" lon="-3.76098">
        <ele>220.8</ele>
        <time>2020-06-08T08:25:46Z</time>
      </trkpt>
      <trkpt lat="48.04399" lon="-3.76098">
        <ele>221</ele>
        <time>2020-06-08T08:25:47Z</time>
      </trkpt>
      <trkpt lat="48.04403" lon="-3.76097">
        <ele>221.2</ele>
        <time>2020-06-08T08:25:48Z</time>
      </trkpt>
      <trkpt lat="48.04405" lon="-3.76097">
        <ele>221.3</ele>
        <time>2020-06-08T08:25:49Z</time>
      </trkpt>
      <trkpt lat="48.04408" lon="-3.76096">
        <ele>221.5</ele>
        <time>2020-06-08T08:25:50Z</time>
      </trkpt>
      <trkpt lat="48.04412" lon="-3.76096">
        <ele>221.8</ele>
        <time>2020-06-08T08:25:51Z</time>
      </trkpt>
      <trkpt lat="48.04413" lon="-3.76096">
        <ele>221.9</ele>
        <time>2020-06-08T08:25:52Z</time>
      </trkpt>
      <trkpt lat="48.04418" lon="-3.76094">
        <ele>222.1</ele>
        <time>2020-06-08T08:25:53Z</time>
      </trkpt>
      <trkpt lat="48.0442" lon="-3.76094">
        <ele>222.3</ele>
        <time>2020-06-08T08:25:54Z</time>
      </trkpt>
      <trkpt lat="48.04424" lon="-3.76094">
        <ele>222.5</ele>
        <time>2020-06-08T08:25:55Z</time>
      </trkpt>
      <trkpt lat="48.04425" lon="-3.76094">
        <ele>222.6</ele>
        <time>2020-06-08T08:25:56Z</time>
      </trkpt>
      <trkpt lat="48.04429" lon="-3.76094">
        <ele>222.8</ele>
        <time>2020-06-08T08:25:57Z</time>
      </trkpt>
      <trkpt lat="48.04431" lon="-3.76093">
        <ele>222.9</ele>
        <time>2020-06-08T08:25:58Z</time>
      </trkpt>
      <trkpt lat="48.04434" lon="-3.76093">
        <ele>223.1</ele>
        <time>2020-06-08T08:25:59Z</time>
      </trkpt>
      <trkpt lat="48.04435" lon="-3.76093">
        <ele>223.2</ele>
        <time>2020-06-08T08:26:00Z</time>
      </trkpt>
      <trkpt lat="48.04438" lon="-3.7609">
        <ele>223.4</ele>
        <time>2020-06-08T08:26:01Z</time>
      </trkpt>
      <trkpt lat="48.04439" lon="-3.76089">
        <ele>223.4</ele>
        <time>2020-06-08T08:26:02Z</time>
      </trkpt>
      <trkpt lat="48.04441" lon="-3.76088">
        <ele>223.6</ele>
        <time>2020-06-08T08:26:03Z</time>
      </trkpt>
      <trkpt lat="48.04442" lon="-3.76087">
        <ele>223.7</ele>
        <time>2020-06-08T08:26:04Z</time>
      </trkpt>
      <trkpt lat="48.04444" lon="-3.76086">
        <ele>223.8</ele>
        <time>2020-06-08T08:26:05Z</time>
      </trkpt>
      <trkpt lat="48.04445" lon="-3.76086">
        <ele>223.9</ele>
        <time>2020-06-08T08:26:06Z</time>
      </trkpt>
      <trkpt lat="48.04448" lon="-3.76082">
        <ele>224.1</ele>
        <time>2020-06-08T08:26:07Z</time>
      </trkpt>
      <trkpt lat="48.04449" lon="-3.76081">
        <ele>224.2</ele>
        <time>2020-06-08T08:26:08Z</time>
      </trkpt>
      <trkpt lat="48.04451" lon="-3.76078">
        <ele>224.4</ele>
        <time>2020-06-08T08:26:09Z</time>
      </trkpt>
      <trkpt lat="48.04452" lon="-3.76077">
        <ele>224.5</ele>
        <time>2020-06-08T08:26:10Z</time>
      </trkpt>
      <trkpt lat="48.04455" lon="-3.76075">
        <ele>224.7</ele>
        <time>2020-06-08T08:26:11Z</time>
      </trkpt>
      <trkpt lat="48.04456" lon="-3.76074">
        <ele>224.8</ele>
        <time>2020-06-08T08:26:12Z</time>
      </trkpt>
      <trkpt lat="48.04456" lon="-3.76069">
        <ele>224.8</ele>
        <time>2020-06-08T08:26:13Z</time>
      </trkpt>
      <trkpt lat="48.04456" lon="-3.76067">
        <ele>224.8</ele>
        <time>2020-06-08T08:26:14Z</time>
      </trkpt>
      <trkpt lat="48.04456" lon="-3.76061">
        <ele>224.7</ele>
        <time>2020-06-08T08:26:15Z</time>
      </trkpt>
      <trkpt lat="48.04454" lon="-3.76056">
        <ele>224.6</ele>
        <time>2020-06-08T08:26:16Z</time>
      </trkpt>
      <trkpt lat="48.04454" lon="-3.76052">
        <ele>224.5</ele>
        <time>2020-06-08T08:26:17Z</time>
      </trkpt>
      <trkpt lat="48.04453" lon="-3.76047">
        <ele>224.5</ele>
        <time>2020-06-08T08:26:18Z</time>
      </trkpt>
      <trkpt lat="48.04452" lon="-3.76042">
        <ele>224.4</ele>
        <time>2020-06-08T08:26:19Z</time>
      </trkpt>
      <trkpt lat="48.04453" lon="-3.76037">
        <ele>224.3</ele>
        <time>2020-06-08T08:26:20Z</time>
      </trkpt>
      <trkpt lat="48.04454" lon="-3.76031">
        <ele>224.2</ele>
        <time>2020-06-08T08:26:21Z</time>
      </trkpt>
      <trkpt lat="48.04456" lon="-3.76023">
        <ele>224.1</ele>
        <time>2020-06-08T08:26:22Z</time>
      </trkpt>
      <trkpt lat="48.04458" lon="-3.76017">
        <ele>224</ele>
        <time>2020-06-08T08:26:23Z</time>
      </trkpt>
      <trkpt lat="48.04461" lon="-3.76013">
        <ele>224.1</ele>
        <time>2020-06-08T08:26:24Z</time>
      </trkpt>
      <trkpt lat="48.04464" lon="-3.76009">
        <ele>224.2</ele>
        <time>2020-06-08T08:26:25Z</time>
      </trkpt>
      <trkpt lat="48.04467" lon="-3.76009">
        <ele>224.2</ele>
        <time>2020-06-08T08:26:26Z</time>
      </trkpt>
      <trkpt lat="48.04469" lon="-3.76009">
        <ele>224.2</ele>
        <time>2020-06-08T08:26:27Z</time>
      </trkpt>
      <trkpt lat="48.04472" lon="-3.76011">
        <ele>224.2</ele>
        <time>2020-06-08T08:26:28Z</time>
      </trkpt>
      <trkpt lat="48.04475" lon="-3.76013">
        <ele>224.2</ele>
        <time>2020-06-08T08:26:29Z</time>
      </trkpt>
      <trkpt lat="48.04476" lon="-3.76013">
        <ele>224.3</ele>
        <time>2020-06-08T08:26:30Z</time>
      </trkpt>
      <trkpt lat="48.04478" lon="-3.76013">
        <ele>224.3</ele>
        <time>2020-06-08T08:26:31Z</time>
      </trkpt>
      <trkpt lat="48.04479" lon="-3.76013">
        <ele>224.3</ele>
        <time>2020-06-08T08:26:32Z</time>
      </trkpt>
      <trkpt lat="48.04479" lon="-3.76014">
        <ele>224.3</ele>
        <time>2020-06-08T08:26:33Z</time>
      </trkpt>
      <trkpt lat="48.04479" lon="-3.76013">
        <ele>224.3</ele>
        <time>2020-06-08T08:26:34Z</time>
      </trkpt>
      <trkpt lat="48.0448" lon="-3.76013">
        <ele>224.3</ele>
        <time>2020-06-08T08:26:35Z</time>
      </trkpt>
      <trkpt lat="48.0448" lon="-3.76012">
        <ele>224.3</ele>
        <time>2020-06-08T08:26:36Z</time>
      </trkpt>
      <trkpt lat="48.0448" lon="-3.76012">
        <ele>224.3</ele>
        <time>2020-06-08T08:26:37Z</time>
      </trkpt>
      <trkpt lat="48.04481" lon="-3.76012">
        <ele>224.3</ele>
        <time>2020-06-08T08:26:38Z</time>
      </trkpt>
      <trkpt lat="48.04481" lon="-3.76011">
        <ele>224.3</ele>
        <time>2020-06-08T08:26:39Z</time>
      </trkpt>
      <trkpt lat="48.04482" lon="-3.76011">
        <ele>224.3</ele>
        <time>2020-06-08T08:26:40Z</time>
      </trkpt>
      <trkpt lat="48.04482" lon="-3.7601">
        <ele>224.3</ele>
        <time>2020-06-08T08:26:41Z</time>
      </trkpt>
      <trkpt lat="48.04482" lon="-3.7601">
        <ele>224.3</ele>
        <time>2020-06-08T08:26:42Z</time>
      </trkpt>
      <trkpt lat="48.04483" lon="-3.7601">
        <ele>224.3</ele>
        <time>2020-06-08T08:26:43Z</time>
      </trkpt>
      <trkpt lat="48.04483" lon="-3.76009">
        <ele>224.3</ele>
        <time>2020-06-08T08:26:44Z</time>
      </trkpt>
      <trkpt lat="48.04483" lon="-3.76009">
        <ele>224.3</ele>
        <time>2020-06-08T08:26:45Z</time>
      </trkpt>
      <trkpt lat="48.04484" lon="-3.76009">
        <ele>224.3</ele>
        <time>2020-06-08T08:26:46Z</time>
      </trkpt>
      <trkpt lat="48.04484" lon="-3.76008">
        <ele>224.3</ele>
        <time>2020-06-08T08:26:47Z</time>
      </trkpt>
      <trkpt lat="48.04485" lon="-3.76008">
        <ele>224.3</ele>
        <time>2020-06-08T08:26:48Z</time>
      </trkpt>
      <trkpt lat="48.04485" lon="-3.76008">
        <ele>224.3</ele>
        <time>2020-06-08T08:26:49Z</time>
      </trkpt>
      <trkpt lat="48.04485" lon="-3.76007">
        <ele>224.3</ele>
        <time>2020-06-08T08:26:50Z</time>
      </trkpt>
      <trkpt lat="48.04486" lon="-3.76007">
        <ele>224.3</ele>
        <time>2020-06-08T08:26:51Z</time>
      </trkpt>
      <trkpt lat="48.04486" lon="-3.76007">
        <ele>224.3</ele>
        <time>2020-06-08T08:26:52Z</time>
      </trkpt>
      <trkpt lat="48.04486" lon="-3.76006">
        <ele>224.3</ele>
        <time>2020-06-08T08:32:19Z</time>
      </trkpt>
      <trkpt lat="48.04487" lon="-3.76006">
        <ele>224.4</ele>
        <time>2020-06-08T08:32:20Z</time>
      </trkpt>
      <trkpt lat="48.04487" lon="-3.76005">
        <ele>224.4</ele>
        <time>2020-06-08T08:32:21Z</time>
      </trkpt>
      <trkpt lat="48.04488" lon="-3.76005">
        <ele>224.4</ele>
        <time>2020-06-08T08:32:22Z</time>
      </trkpt>
      <trkpt lat="48.04488" lon="-3.76005">
        <ele>224.4</ele>
        <time>2020-06-08T08:32:23Z</time>
      </trkpt>
      <trkpt lat="48.04491" lon="-3.76005">
        <ele>224.4</ele>
        <time>2020-06-08T08:32:24Z</time>
      </trkpt>
      <trkpt lat="48.04492" lon="-3.76006">
        <ele>224.4</ele>
        <time>2020-06-08T08:32:25Z</time>
      </trkpt>
      <trkpt lat="48.04495" lon="-3.76006">
        <ele>224.4</ele>
        <time>2020-06-08T08:32:26Z</time>
      </trkpt>
      <trkpt lat="48.04498" lon="-3.76007">
        <ele>224.9</ele>
        <time>2020-06-08T08:32:27Z</time>
      </trkpt>
      <trkpt lat="48.045" lon="-3.76007">
        <ele>225.1</ele>
        <time>2020-06-08T08:32:28Z</time>
      </trkpt>
      <trkpt lat="48.04503" lon="-3.7601">
        <ele>225.2</ele>
        <time>2020-06-08T08:32:29Z</time>
      </trkpt>
      <trkpt lat="48.04506" lon="-3.76012">
        <ele>225.4</ele>
        <time>2020-06-08T08:32:30Z</time>
      </trkpt>
      <trkpt lat="48.04508" lon="-3.76016">
        <ele>225.5</ele>
        <time>2020-06-08T08:32:31Z</time>
      </trkpt>
      <trkpt lat="48.0451" lon="-3.76019">
        <ele>225.7</ele>
        <time>2020-06-08T08:32:32Z</time>
      </trkpt>
      <trkpt lat="48.04512" lon="-3.76024">
        <ele>225.9</ele>
        <time>2020-06-08T08:32:33Z</time>
      </trkpt>
      <trkpt lat="48.04513" lon="-3.76027">
        <ele>226</ele>
        <time>2020-06-08T08:32:34Z</time>
      </trkpt>
      <trkpt lat="48.04515" lon="-3.76031">
        <ele>226.1</ele>
        <time>2020-06-08T08:32:35Z</time>
      </trkpt>
      <trkpt lat="48.04517" lon="-3.76034">
        <ele>226.3</ele>
        <time>2020-06-08T08:32:36Z</time>
      </trkpt>
      <trkpt lat="48.04519" lon="-3.76038">
        <ele>226.4</ele>
        <time>2020-06-08T08:32:37Z</time>
      </trkpt>
      <trkpt lat="48.04521" lon="-3.76042">
        <ele>226.6</ele>
        <time>2020-06-08T08:32:38Z</time>
      </trkpt>
      <trkpt lat="48.04523" lon="-3.76046">
        <ele>226.7</ele>
        <time>2020-06-08T08:32:39Z</time>
      </trkpt>
      <trkpt lat="48.04525" lon="-3.76049">
        <ele>226.9</ele>
        <time>2020-06-08T08:32:40Z</time>
      </trkpt>
      <trkpt lat="48.04527" lon="-3.76053">
        <ele>227.1</ele>
        <time>2020-06-08T08:32:41Z</time>
      </trkpt>
      <trkpt lat="48.0453" lon="-3.76057">
        <ele>227.3</ele>
        <time>2020-06-08T08:32:42Z</time>
      </trkpt>
      <trkpt lat="48.04532" lon="-3.76061">
        <ele>227.4</ele>
        <time>2020-06-08T08:32:43Z</time>
      </trkpt>
      <trkpt lat="48.04534" lon="-3.76065">
        <ele>227.6</ele>
        <time>2020-06-08T08:32:44Z</time>
      </trkpt>
      <trkpt lat="48.04537" lon="-3.7607">
        <ele>227.8</ele>
        <time>2020-06-08T08:32:45Z</time>
      </trkpt>
      <trkpt lat="48.04539" lon="-3.76075">
        <ele>228</ele>
        <time>2020-06-08T08:32:46Z</time>
      </trkpt>
      <trkpt lat="48.04541" lon="-3.7608">
        <ele>228.2</ele>
        <time>2020-06-08T08:32:47Z</time>
      </trkpt>
      <trkpt lat="48.04543" lon="-3.76084">
        <ele>228.4</ele>
        <time>2020-06-08T08:32:48Z</time>
      </trkpt>
      <trkpt lat="48.04545" lon="-3.76088">
        <ele>228.5</ele>
        <time>2020-06-08T08:32:49Z</time>
      </trkpt>
      <trkpt lat="48.04547" lon="-3.76092">
        <ele>228.7</ele>
        <time>2020-06-08T08:32:50Z</time>
      </trkpt>
      <trkpt lat="48.0455" lon="-3.76096">
        <ele>228.9</ele>
        <time>2020-06-08T08:32:51Z</time>
      </trkpt>
      <trkpt lat="48.04552" lon="-3.76101">
        <ele>229.1</ele>
        <time>2020-06-08T08:32:52Z</time>
      </trkpt>
      <trkpt lat="48.04554" lon="-3.76105">
        <ele>229.3</ele>
        <time>2020-06-08T08:32:53Z</time>
      </trkpt>
      <trkpt lat="48.04555" lon="-3.7611">
        <ele>229.5</ele>
        <time>2020-06-08T08:32:54Z</time>
      </trkpt>
      <trkpt lat="48.04558" lon="-3.76113">
        <ele>229.7</ele>
        <time>2020-06-08T08:32:55Z</time>
      </trkpt>
      <trkpt lat="48.0456" lon="-3.76117">
        <ele>229.8</ele>
        <time>2020-06-08T08:32:56Z</time>
      </trkpt>
      <trkpt lat="48.04562" lon="-3.76121">
        <ele>230.1</ele>
        <time>2020-06-08T08:32:57Z</time>
      </trkpt>
      <trkpt lat="48.04565" lon="-3.76125">
        <ele>230.4</ele>
        <time>2020-06-08T08:32:58Z</time>
      </trkpt>
      <trkpt lat="48.04567" lon="-3.76129">
        <ele>230.6</ele>
        <time>2020-06-08T08:32:59Z</time>
      </trkpt>
      <trkpt lat="48.0457" lon="-3.76133">
        <ele>230.8</ele>
        <time>2020-06-08T08:33:00Z</time>
      </trkpt>
      <trkpt lat="48.04572" lon="-3.76137">
        <ele>231.1</ele>
        <time>2020-06-08T08:33:01Z</time>
      </trkpt>
      <trkpt lat="48.04574" lon="-3.76141">
        <ele>231.3</ele>
        <time>2020-06-08T08:33:02Z</time>
      </trkpt>
      <trkpt lat="48.04577" lon="-3.76145">
        <ele>231.5</ele>
        <time>2020-06-08T08:33:03Z</time>
      </trkpt>
      <trkpt lat="48.04579" lon="-3.7615">
        <ele>231.8</ele>
        <time>2020-06-08T08:33:04Z</time>
      </trkpt>
      <trkpt lat="48.04581" lon="-3.76155">
        <ele>232.1</ele>
        <time>2020-06-08T08:33:05Z</time>
      </trkpt>
      <trkpt lat="48.04583" lon="-3.76159">
        <ele>232.3</ele>
        <time>2020-06-08T08:33:06Z</time>
      </trkpt>
      <trkpt lat="48.04585" lon="-3.76164">
        <ele>232.6</ele>
        <time>2020-06-08T08:33:07Z</time>
      </trkpt>
      <trkpt lat="48.04587" lon="-3.76168">
        <ele>232.9</ele>
        <time>2020-06-08T08:33:08Z</time>
      </trkpt>
      <trkpt lat="48.04589" lon="-3.76173">
        <ele>233.1</ele>
        <time>2020-06-08T08:33:09Z</time>
      </trkpt>
      <trkpt lat="48.04591" lon="-3.76177">
        <ele>233.3</ele>
        <time>2020-06-08T08:33:10Z</time>
      </trkpt>
      <trkpt lat="48.04593" lon="-3.76181">
        <ele>233.6</ele>
        <time>2020-06-08T08:33:11Z</time>
      </trkpt>
      <trkpt lat="48.04595" lon="-3.76185">
        <ele>233.8</ele>
        <time>2020-06-08T08:33:12Z</time>
      </trkpt>
      <trkpt lat="48.04597" lon="-3.76189">
        <ele>234</ele>
        <time>2020-06-08T08:33:13Z</time>
      </trkpt>
      <trkpt lat="48.04599" lon="-3.76192">
        <ele>234.2</ele>
        <time>2020-06-08T08:33:14Z</time>
      </trkpt>
      <trkpt lat="48.04601" lon="-3.76197">
        <ele>234.5</ele>
        <time>2020-06-08T08:33:15Z</time>
      </trkpt>
      <trkpt lat="48.04603" lon="-3.762">
        <ele>234.7</ele>
        <time>2020-06-08T08:33:16Z</time>
      </trkpt>
      <trkpt lat="48.04605" lon="-3.76204">
        <ele>234.9</ele>
        <time>2020-06-08T08:33:17Z</time>
      </trkpt>
      <trkpt lat="48.04607" lon="-3.76209">
        <ele>235.2</ele>
        <time>2020-06-08T08:33:18Z</time>
      </trkpt>
      <trkpt lat="48.0461" lon="-3.76213">
        <ele>235.4</ele>
        <time>2020-06-08T08:33:19Z</time>
      </trkpt>
      <trkpt lat="48.04612" lon="-3.76216">
        <ele>235.7</ele>
        <time>2020-06-08T08:33:20Z</time>
      </trkpt>
      <trkpt lat="48.04615" lon="-3.76219">
        <ele>235.9</ele>
        <time>2020-06-08T08:33:21Z</time>
      </trkpt>
      <trkpt lat="48.04618" lon="-3.76223">
        <ele>236.1</ele>
        <time>2020-06-08T08:33:22Z</time>
      </trkpt>
      <trkpt lat="48.0462" lon="-3.76227">
        <ele>236.3</ele>
        <time>2020-06-08T08:33:23Z</time>
      </trkpt>
      <trkpt lat="48.04623" lon="-3.76231">
        <ele>236.6</ele>
        <time>2020-06-08T08:33:24Z</time>
      </trkpt>
      <trkpt lat="48.04625" lon="-3.76235">
        <ele>236.7</ele>
        <time>2020-06-08T08:33:25Z</time>
      </trkpt>
      <trkpt lat="48.04627" lon="-3.76238">
        <ele>236.9</ele>
        <time>2020-06-08T08:33:26Z</time>
      </trkpt>
      <trkpt lat="48.04628" lon="-3.76242">
        <ele>237</ele>
        <time>2020-06-08T08:33:27Z</time>
      </trkpt>
      <trkpt lat="48.04631" lon="-3.76245">
        <ele>237.1</ele>
        <time>2020-06-08T08:33:28Z</time>
      </trkpt>
      <trkpt lat="48.04632" lon="-3.76249">
        <ele>237.3</ele>
        <time>2020-06-08T08:33:29Z</time>
      </trkpt>
      <trkpt lat="48.04633" lon="-3.76254">
        <ele>237.4</ele>
        <time>2020-06-08T08:33:30Z</time>
      </trkpt>
      <trkpt lat="48.04635" lon="-3.76258">
        <ele>237.4</ele>
        <time>2020-06-08T08:33:31Z</time>
      </trkpt>
      <trkpt lat="48.04637" lon="-3.76262">
        <ele>237.5</ele>
        <time>2020-06-08T08:33:32Z</time>
      </trkpt>
      <trkpt lat="48.04639" lon="-3.76265">
        <ele>237.6</ele>
        <time>2020-06-08T08:33:33Z</time>
      </trkpt>
      <trkpt lat="48.0464" lon="-3.76269">
        <ele>237.6</ele>
        <time>2020-06-08T08:33:34Z</time>
      </trkpt>
      <trkpt lat="48.04643" lon="-3.76271">
        <ele>237.7</ele>
        <time>2020-06-08T08:33:35Z</time>
      </trkpt>
      <trkpt lat="48.04646" lon="-3.76275">
        <ele>237.8</ele>
        <time>2020-06-08T08:33:36Z</time>
      </trkpt>
      <trkpt lat="48.04648" lon="-3.76279">
        <ele>237.8</ele>
        <time>2020-06-08T08:33:37Z</time>
      </trkpt>
      <trkpt lat="48.04651" lon="-3.76283">
        <ele>237.8</ele>
        <time>2020-06-08T08:33:38Z</time>
      </trkpt>
      <trkpt lat="48.04653" lon="-3.76288">
        <ele>237.8</ele>
        <time>2020-06-08T08:33:39Z</time>
      </trkpt>
      <trkpt lat="48.04655" lon="-3.76293">
        <ele>237.9</ele>
        <time>2020-06-08T08:33:40Z</time>
      </trkpt>
      <trkpt lat="48.04657" lon="-3.76297">
        <ele>237.9</ele>
        <time>2020-06-08T08:33:41Z</time>
      </trkpt>
      <trkpt lat="48.04659" lon="-3.76301">
        <ele>237.9</ele>
        <time>2020-06-08T08:33:42Z</time>
      </trkpt>
      <trkpt lat="48.04662" lon="-3.76304">
        <ele>237.9</ele>
        <time>2020-06-08T08:33:43Z</time>
      </trkpt>
      <trkpt lat="48.04664" lon="-3.76309">
        <ele>237.8</ele>
        <time>2020-06-08T08:33:44Z</time>
      </trkpt>
      <trkpt lat="48.04667" lon="-3.76313">
        <ele>237.8</ele>
        <time>2020-06-08T08:33:45Z</time>
      </trkpt>
      <trkpt lat="48.04671" lon="-3.76318">
        <ele>237.7</ele>
        <time>2020-06-08T08:33:46Z</time>
      </trkpt>
      <trkpt lat="48.04674" lon="-3.76323">
        <ele>237.6</ele>
        <time>2020-06-08T08:33:47Z</time>
      </trkpt>
      <trkpt lat="48.04677" lon="-3.76329">
        <ele>237.5</ele>
        <time>2020-06-08T08:33:48Z</time>
      </trkpt>
      <trkpt lat="48.0468" lon="-3.76334">
        <ele>237.4</ele>
        <time>2020-06-08T08:33:49Z</time>
      </trkpt>
      <trkpt lat="48.04683" lon="-3.7634">
        <ele>237.3</ele>
        <time>2020-06-08T08:33:50Z</time>
      </trkpt>
      <trkpt lat="48.04686" lon="-3.76346">
        <ele>237.2</ele>
        <time>2020-06-08T08:33:51Z</time>
      </trkpt>
      <trkpt lat="48.04689" lon="-3.76352">
        <ele>237</ele>
        <time>2020-06-08T08:33:52Z</time>
      </trkpt>
      <trkpt lat="48.04692" lon="-3.76358">
        <ele>236.9</ele>
        <time>2020-06-08T08:33:53Z</time>
      </trkpt>
      <trkpt lat="48.04695" lon="-3.76365">
        <ele>236.8</ele>
        <time>2020-06-08T08:33:54Z</time>
      </trkpt>
      <trkpt lat="48.04699" lon="-3.76372">
        <ele>236.7</ele>
        <time>2020-06-08T08:33:55Z</time>
      </trkpt>
      <trkpt lat="48.04702" lon="-3.76379">
        <ele>236.5</ele>
        <time>2020-06-08T08:33:56Z</time>
      </trkpt>
      <trkpt lat="48.04705" lon="-3.76385">
        <ele>236.4</ele>
        <time>2020-06-08T08:33:57Z</time>
      </trkpt>
      <trkpt lat="48.04708" lon="-3.7639">
        <ele>236.3</ele>
        <time>2020-06-08T08:33:58Z</time>
      </trkpt>
      <trkpt lat="48.04712" lon="-3.76396">
        <ele>236.2</ele>
        <time>2020-06-08T08:33:59Z</time>
      </trkpt>
      <trkpt lat="48.04715" lon="-3.76402">
        <ele>236.1</ele>
        <time>2020-06-08T08:34:00Z</time>
      </trkpt>
      <trkpt lat="48.04719" lon="-3.76407">
        <ele>236.1</ele>
        <time>2020-06-08T08:34:01Z</time>
      </trkpt>
      <trkpt lat="48.04722" lon="-3.76413">
        <ele>236</ele>
        <time>2020-06-08T08:34:02Z</time>
      </trkpt>
      <trkpt lat="48.04725" lon="-3.76418">
        <ele>236</ele>
        <time>2020-06-08T08:34:03Z</time>
      </trkpt>
      <trkpt lat="48.04729" lon="-3.76424">
        <ele>235.9</ele>
        <time>2020-06-08T08:34:04Z</time>
      </trkpt>
      <trkpt lat="48.04732" lon="-3.76431">
        <ele>235.9</ele>
        <time>2020-06-08T08:34:05Z</time>
      </trkpt>
      <trkpt lat="48.04736" lon="-3.76437">
        <ele>235.9</ele>
        <time>2020-06-08T08:34:06Z</time>
      </trkpt>
      <trkpt lat="48.0474" lon="-3.76443">
        <ele>235.9</ele>
        <time>2020-06-08T08:34:07Z</time>
      </trkpt>
      <trkpt lat="48.04743" lon="-3.7645">
        <ele>236</ele>
        <time>2020-06-08T08:34:08Z</time>
      </trkpt>
      <trkpt lat="48.04747" lon="-3.76458">
        <ele>236</ele>
        <time>2020-06-08T08:34:09Z</time>
      </trkpt>
      <trkpt lat="48.04751" lon="-3.76465">
        <ele>236</ele>
        <time>2020-06-08T08:34:10Z</time>
      </trkpt>
      <trkpt lat="48.04754" lon="-3.76473">
        <ele>236.1</ele>
        <time>2020-06-08T08:34:11Z</time>
      </trkpt>
      <trkpt lat="48.04758" lon="-3.7648">
        <ele>236.2</ele>
        <time>2020-06-08T08:34:12Z</time>
      </trkpt>
      <trkpt lat="48.04762" lon="-3.76486">
        <ele>236.3</ele>
        <time>2020-06-08T08:34:13Z</time>
      </trkpt>
      <trkpt lat="48.04766" lon="-3.76492">
        <ele>236.4</ele>
        <time>2020-06-08T08:34:14Z</time>
      </trkpt>
      <trkpt lat="48.04769" lon="-3.76499">
        <ele>236.5</ele>
        <time>2020-06-08T08:34:15Z</time>
      </trkpt>
      <trkpt lat="48.04773" lon="-3.76505">
        <ele>236.7</ele>
        <time>2020-06-08T08:34:16Z</time>
      </trkpt>
      <trkpt lat="48.04776" lon="-3.76511">
        <ele>236.9</ele>
        <time>2020-06-08T08:34:17Z</time>
      </trkpt>
      <trkpt lat="48.04779" lon="-3.76517">
        <ele>237</ele>
        <time>2020-06-08T08:34:18Z</time>
      </trkpt>
      <trkpt lat="48.04782" lon="-3.76523">
        <ele>237.2</ele>
        <time>2020-06-08T08:34:19Z</time>
      </trkpt>
      <trkpt lat="48.04785" lon="-3.76529">
        <ele>237.3</ele>
        <time>2020-06-08T08:34:20Z</time>
      </trkpt>
      <trkpt lat="48.04788" lon="-3.76535">
        <ele>237.5</ele>
        <time>2020-06-08T08:34:21Z</time>
      </trkpt>
      <trkpt lat="48.04791" lon="-3.7654">
        <ele>237.6</ele>
        <time>2020-06-08T08:34:22Z</time>
      </trkpt>
      <trkpt lat="48.04794" lon="-3.76546">
        <ele>237.8</ele>
        <time>2020-06-08T08:34:23Z</time>
      </trkpt>
      <trkpt lat="48.04798" lon="-3.76553">
        <ele>237.9</ele>
        <time>2020-06-08T08:34:24Z</time>
      </trkpt>
      <trkpt lat="48.04801" lon="-3.76559">
        <ele>238.1</ele>
        <time>2020-06-08T08:34:25Z</time>
      </trkpt>
      <trkpt lat="48.04804" lon="-3.76565">
        <ele>238.2</ele>
        <time>2020-06-08T08:34:26Z</time>
      </trkpt>
      <trkpt lat="48.04807" lon="-3.76571">
        <ele>238.4</ele>
        <time>2020-06-08T08:34:27Z</time>
      </trkpt>
      <trkpt lat="48.0481" lon="-3.76578">
        <ele>238.5</ele>
        <time>2020-06-08T08:34:28Z</time>
      </trkpt>
      <trkpt lat="48.04813" lon="-3.76584">
        <ele>238.7</ele>
        <time>2020-06-08T08:34:29Z</time>
      </trkpt>
      <trkpt lat="48.04815" lon="-3.76589">
        <ele>238.8</ele>
        <time>2020-06-08T08:34:30Z</time>
      </trkpt>
      <trkpt lat="48.04818" lon="-3.76594">
        <ele>238.9</ele>
        <time>2020-06-08T08:34:31Z</time>
      </trkpt>
      <trkpt lat="48.04821" lon="-3.76599">
        <ele>239</ele>
        <time>2020-06-08T08:34:32Z</time>
      </trkpt>
      <trkpt lat="48.04825" lon="-3.76606">
        <ele>239.1</ele>
        <time>2020-06-08T08:34:33Z</time>
      </trkpt>
      <trkpt lat="48.04829" lon="-3.7661">
        <ele>239.1</ele>
        <time>2020-06-08T08:34:34Z</time>
      </trkpt>
      <trkpt lat="48.04832" lon="-3.76616">
        <ele>239.1</ele>
        <time>2020-06-08T08:34:35Z</time>
      </trkpt>
      <trkpt lat="48.04836" lon="-3.76622">
        <ele>239.1</ele>
        <time>2020-06-08T08:34:36Z</time>
      </trkpt>
      <trkpt lat="48.04839" lon="-3.76627">
        <ele>239.1</ele>
        <time>2020-06-08T08:34:37Z</time>
      </trkpt>
      <trkpt lat="48.04843" lon="-3.76634">
        <ele>239.1</ele>
        <time>2020-06-08T08:34:38Z</time>
      </trkpt>
      <trkpt lat="48.04846" lon="-3.76639">
        <ele>239.1</ele>
        <time>2020-06-08T08:34:39Z</time>
      </trkpt>
      <trkpt lat="48.0485" lon="-3.76645">
        <ele>239</ele>
        <time>2020-06-08T08:34:40Z</time>
      </trkpt>
      <trkpt lat="48.04854" lon="-3.76651">
        <ele>238.9</ele>
        <time>2020-06-08T08:34:41Z</time>
      </trkpt>
      <trkpt lat="48.04858" lon="-3.76657">
        <ele>238.8</ele>
        <time>2020-06-08T08:34:42Z</time>
      </trkpt>
      <trkpt lat="48.04862" lon="-3.76663">
        <ele>238.6</ele>
        <time>2020-06-08T08:34:43Z</time>
      </trkpt>
      <trkpt lat="48.04866" lon="-3.76669">
        <ele>238.4</ele>
        <time>2020-06-08T08:34:44Z</time>
      </trkpt>
      <trkpt lat="48.0487" lon="-3.76676">
        <ele>238.2</ele>
        <time>2020-06-08T08:34:45Z</time>
      </trkpt>
      <trkpt lat="48.04875" lon="-3.76682">
        <ele>237.9</ele>
        <time>2020-06-08T08:34:46Z</time>
      </trkpt>
      <trkpt lat="48.0488" lon="-3.76688">
        <ele>237.6</ele>
        <time>2020-06-08T08:34:47Z</time>
      </trkpt>
      <trkpt lat="48.04884" lon="-3.76696">
        <ele>237.3</ele>
        <time>2020-06-08T08:34:48Z</time>
      </trkpt>
      <trkpt lat="48.04889" lon="-3.76703">
        <ele>236.9</ele>
        <time>2020-06-08T08:34:49Z</time>
      </trkpt>
      <trkpt lat="48.04894" lon="-3.76711">
        <ele>236.5</ele>
        <time>2020-06-08T08:34:50Z</time>
      </trkpt>
      <trkpt lat="48.049" lon="-3.76719">
        <ele>236</ele>
        <time>2020-06-08T08:34:51Z</time>
      </trkpt>
      <trkpt lat="48.04906" lon="-3.76725">
        <ele>235.6</ele>
        <time>2020-06-08T08:34:52Z</time>
      </trkpt>
      <trkpt lat="48.04912" lon="-3.76732">
        <ele>235.1</ele>
        <time>2020-06-08T08:34:53Z</time>
      </trkpt>
      <trkpt lat="48.04918" lon="-3.7674">
        <ele>234.6</ele>
        <time>2020-06-08T08:34:54Z</time>
      </trkpt>
      <trkpt lat="48.04924" lon="-3.76747">
        <ele>234.1</ele>
        <time>2020-06-08T08:34:55Z</time>
      </trkpt>
      <trkpt lat="48.04931" lon="-3.76754">
        <ele>233.6</ele>
        <time>2020-06-08T08:34:56Z</time>
      </trkpt>
      <trkpt lat="48.04938" lon="-3.76761">
        <ele>233.1</ele>
        <time>2020-06-08T08:34:57Z</time>
      </trkpt>
      <trkpt lat="48.04945" lon="-3.76768">
        <ele>232.7</ele>
        <time>2020-06-08T08:34:58Z</time>
      </trkpt>
      <trkpt lat="48.04951" lon="-3.76775">
        <ele>232.3</ele>
        <time>2020-06-08T08:34:59Z</time>
      </trkpt>
      <trkpt lat="48.04959" lon="-3.76782">
        <ele>231.9</ele>
        <time>2020-06-08T08:35:00Z</time>
      </trkpt>
      <trkpt lat="48.04966" lon="-3.76789">
        <ele>231.6</ele>
        <time>2020-06-08T08:35:01Z</time>
      </trkpt>
      <trkpt lat="48.04972" lon="-3.76796">
        <ele>231.3</ele>
        <time>2020-06-08T08:35:02Z</time>
      </trkpt>
      <trkpt lat="48.04979" lon="-3.76803">
        <ele>231</ele>
        <time>2020-06-08T08:35:03Z</time>
      </trkpt>
      <trkpt lat="48.04986" lon="-3.7681">
        <ele>230.8</ele>
        <time>2020-06-08T08:35:04Z</time>
      </trkpt>
      <trkpt lat="48.04992" lon="-3.76818">
        <ele>230.5</ele>
        <time>2020-06-08T08:35:05Z</time>
      </trkpt>
      <trkpt lat="48.04999" lon="-3.76826">
        <ele>230.1</ele>
        <time>2020-06-08T08:35:06Z</time>
      </trkpt>
      <trkpt lat="48.05005" lon="-3.76833">
        <ele>229.8</ele>
        <time>2020-06-08T08:35:07Z</time>
      </trkpt>
      <trkpt lat="48.05012" lon="-3.76839">
        <ele>229.5</ele>
        <time>2020-06-08T08:35:08Z</time>
      </trkpt>
      <trkpt lat="48.05019" lon="-3.76845">
        <ele>229.2</ele>
        <time>2020-06-08T08:35:09Z</time>
      </trkpt>
      <trkpt lat="48.05025" lon="-3.76852">
        <ele>229</ele>
        <time>2020-06-08T08:35:10Z</time>
      </trkpt>
      <trkpt lat="48.05032" lon="-3.76859">
        <ele>228.7</ele>
        <time>2020-06-08T08:35:11Z</time>
      </trkpt>
      <trkpt lat="48.05039" lon="-3.76866">
        <ele>228.5</ele>
        <time>2020-06-08T08:35:12Z</time>
      </trkpt>
      <trkpt lat="48.05045" lon="-3.76872">
        <ele>228.4</ele>
        <time>2020-06-08T08:35:13Z</time>
      </trkpt>
      <trkpt lat="48.05052" lon="-3.76878">
        <ele>228.3</ele>
        <time>2020-06-08T08:35:14Z</time>
      </trkpt>
      <trkpt lat="48.05059" lon="-3.76885">
        <ele>228.2</ele>
        <time>2020-06-08T08:35:15Z</time>
      </trkpt>
      <trkpt lat="48.05065" lon="-3.76891">
        <ele>228.2</ele>
        <time>2020-06-08T08:35:16Z</time>
      </trkpt>
      <trkpt lat="48.05072" lon="-3.76898">
        <ele>228.1</ele>
        <time>2020-06-08T08:35:17Z</time>
      </trkpt>
      <trkpt lat="48.05078" lon="-3.76905">
        <ele>228.1</ele>
        <time>2020-06-08T08:35:18Z</time>
      </trkpt>
      <trkpt lat="48.05085" lon="-3.76912">
        <ele>228</ele>
        <time>2020-06-08T08:35:19Z</time>
      </trkpt>
      <trkpt lat="48.05091" lon="-3.76919">
        <ele>228</ele>
        <time>2020-06-08T08:35:20Z</time>
      </trkpt>
      <trkpt lat="48.05098" lon="-3.76926">
        <ele>227.9</ele>
        <time>2020-06-08T08:35:21Z</time>
      </trkpt>
      <trkpt lat="48.05104" lon="-3.76932">
        <ele>227.9</ele>
        <time>2020-06-08T08:35:22Z</time>
      </trkpt>
      <trkpt lat="48.05111" lon="-3.76939">
        <ele>227.8</ele>
        <time>2020-06-08T08:35:23Z</time>
      </trkpt>
      <trkpt lat="48.05117" lon="-3.76946">
        <ele>227.8</ele>
        <time>2020-06-08T08:35:24Z</time>
      </trkpt>
      <trkpt lat="48.05123" lon="-3.76954">
        <ele>227.7</ele>
        <time>2020-06-08T08:35:25Z</time>
      </trkpt>
      <trkpt lat="48.05129" lon="-3.7696">
        <ele>227.5</ele>
        <time>2020-06-08T08:35:26Z</time>
      </trkpt>
      <trkpt lat="48.05136" lon="-3.76966">
        <ele>227.4</ele>
        <time>2020-06-08T08:35:27Z</time>
      </trkpt>
      <trkpt lat="48.05142" lon="-3.76973">
        <ele>227.3</ele>
        <time>2020-06-08T08:35:28Z</time>
      </trkpt>
      <trkpt lat="48.05148" lon="-3.76979">
        <ele>227.2</ele>
        <time>2020-06-08T08:35:29Z</time>
      </trkpt>
      <trkpt lat="48.05155" lon="-3.76986">
        <ele>227.1</ele>
        <time>2020-06-08T08:35:30Z</time>
      </trkpt>
      <trkpt lat="48.05161" lon="-3.76993">
        <ele>227</ele>
        <time>2020-06-08T08:35:31Z</time>
      </trkpt>
      <trkpt lat="48.05168" lon="-3.77">
        <ele>226.9</ele>
        <time>2020-06-08T08:35:32Z</time>
      </trkpt>
      <trkpt lat="48.05174" lon="-3.77006">
        <ele>226.8</ele>
        <time>2020-06-08T08:35:33Z</time>
      </trkpt>
      <trkpt lat="48.0518" lon="-3.77013">
        <ele>226.8</ele>
        <time>2020-06-08T08:35:34Z</time>
      </trkpt>
      <trkpt lat="48.05187" lon="-3.77019">
        <ele>227</ele>
        <time>2020-06-08T08:35:35Z</time>
      </trkpt>
      <trkpt lat="48.05194" lon="-3.77024">
        <ele>227.2</ele>
        <time>2020-06-08T08:35:36Z</time>
      </trkpt>
      <trkpt lat="48.052" lon="-3.77029">
        <ele>227</ele>
        <time>2020-06-08T08:35:37Z</time>
      </trkpt>
      <trkpt lat="48.05207" lon="-3.77035">
        <ele>226.8</ele>
        <time>2020-06-08T08:35:38Z</time>
      </trkpt>
      <trkpt lat="48.05213" lon="-3.77041">
        <ele>226.6</ele>
        <time>2020-06-08T08:35:39Z</time>
      </trkpt>
      <trkpt lat="48.0522" lon="-3.77047">
        <ele>226.4</ele>
        <time>2020-06-08T08:35:40Z</time>
      </trkpt>
      <trkpt lat="48.05226" lon="-3.77053">
        <ele>226.3</ele>
        <time>2020-06-08T08:35:41Z</time>
      </trkpt>
      <trkpt lat="48.05233" lon="-3.77057">
        <ele>226.3</ele>
        <time>2020-06-08T08:35:42Z</time>
      </trkpt>
      <trkpt lat="48.05239" lon="-3.77062">
        <ele>226.3</ele>
        <time>2020-06-08T08:35:43Z</time>
      </trkpt>
      <trkpt lat="48.05245" lon="-3.77067">
        <ele>226.3</ele>
        <time>2020-06-08T08:35:44Z</time>
      </trkpt>
      <trkpt lat="48.05252" lon="-3.77072">
        <ele>226.2</ele>
        <time>2020-06-08T08:35:45Z</time>
      </trkpt>
      <trkpt lat="48.05258" lon="-3.77077">
        <ele>226.2</ele>
        <time>2020-06-08T08:35:46Z</time>
      </trkpt>
      <trkpt lat="48.05264" lon="-3.77082">
        <ele>226.2</ele>
        <time>2020-06-08T08:35:47Z</time>
      </trkpt>
      <trkpt lat="48.05271" lon="-3.77087">
        <ele>226.1</ele>
        <time>2020-06-08T08:35:48Z</time>
      </trkpt>
      <trkpt lat="48.05277" lon="-3.77092">
        <ele>226.1</ele>
        <time>2020-06-08T08:35:49Z</time>
      </trkpt>
      <trkpt lat="48.05283" lon="-3.77097">
        <ele>226.1</ele>
        <time>2020-06-08T08:35:50Z</time>
      </trkpt>
      <trkpt lat="48.05289" lon="-3.77101">
        <ele>226</ele>
        <time>2020-06-08T08:35:51Z</time>
      </trkpt>
      <trkpt lat="48.05295" lon="-3.77106">
        <ele>226</ele>
        <time>2020-06-08T08:35:52Z</time>
      </trkpt>
      <trkpt lat="48.05301" lon="-3.7711">
        <ele>226</ele>
        <time>2020-06-08T08:35:53Z</time>
      </trkpt>
      <trkpt lat="48.05307" lon="-3.77115">
        <ele>226</ele>
        <time>2020-06-08T08:35:54Z</time>
      </trkpt>
      <trkpt lat="48.05313" lon="-3.7712">
        <ele>226.1</ele>
        <time>2020-06-08T08:35:55Z</time>
      </trkpt>
      <trkpt lat="48.05319" lon="-3.77125">
        <ele>226.1</ele>
        <time>2020-06-08T08:35:56Z</time>
      </trkpt>
      <trkpt lat="48.05325" lon="-3.7713">
        <ele>226.2</ele>
        <time>2020-06-08T08:35:57Z</time>
      </trkpt>
      <trkpt lat="48.05331" lon="-3.77135">
        <ele>226.2</ele>
        <time>2020-06-08T08:35:58Z</time>
      </trkpt>
      <trkpt lat="48.05337" lon="-3.7714">
        <ele>226.3</ele>
        <time>2020-06-08T08:35:59Z</time>
      </trkpt>
      <trkpt lat="48.05343" lon="-3.77144">
        <ele>226.3</ele>
        <time>2020-06-08T08:36:00Z</time>
      </trkpt>
      <trkpt lat="48.05349" lon="-3.77148">
        <ele>226.4</ele>
        <time>2020-06-08T08:36:01Z</time>
      </trkpt>
      <trkpt lat="48.05355" lon="-3.77152">
        <ele>226.4</ele>
        <time>2020-06-08T08:36:02Z</time>
      </trkpt>
      <trkpt lat="48.0536" lon="-3.77156">
        <ele>226.5</ele>
        <time>2020-06-08T08:36:03Z</time>
      </trkpt>
      <trkpt lat="48.05366" lon="-3.7716">
        <ele>226.5</ele>
        <time>2020-06-08T08:36:04Z</time>
      </trkpt>
      <trkpt lat="48.05371" lon="-3.77163">
        <ele>226.7</ele>
        <time>2020-06-08T08:36:05Z</time>
      </trkpt>
      <trkpt lat="48.05377" lon="-3.77167">
        <ele>226.8</ele>
        <time>2020-06-08T08:36:06Z</time>
      </trkpt>
      <trkpt lat="48.05382" lon="-3.77172">
        <ele>226.9</ele>
        <time>2020-06-08T08:36:07Z</time>
      </trkpt>
      <trkpt lat="48.05387" lon="-3.77176">
        <ele>226.9</ele>
        <time>2020-06-08T08:36:08Z</time>
      </trkpt>
      <trkpt lat="48.05392" lon="-3.7718">
        <ele>226.9</ele>
        <time>2020-06-08T08:36:09Z</time>
      </trkpt>
      <trkpt lat="48.05397" lon="-3.77184">
        <ele>226.9</ele>
        <time>2020-06-08T08:36:10Z</time>
      </trkpt>
      <trkpt lat="48.05402" lon="-3.77187">
        <ele>227</ele>
        <time>2020-06-08T08:36:11Z</time>
      </trkpt>
      <trkpt lat="48.05407" lon="-3.77191">
        <ele>227</ele>
        <time>2020-06-08T08:36:12Z</time>
      </trkpt>
      <trkpt lat="48.05412" lon="-3.77194">
        <ele>227.1</ele>
        <time>2020-06-08T08:36:13Z</time>
      </trkpt>
      <trkpt lat="48.05417" lon="-3.77197">
        <ele>227.2</ele>
        <time>2020-06-08T08:36:14Z</time>
      </trkpt>
      <trkpt lat="48.05421" lon="-3.772">
        <ele>227.3</ele>
        <time>2020-06-08T08:36:15Z</time>
      </trkpt>
      <trkpt lat="48.05426" lon="-3.77203">
        <ele>227.5</ele>
        <time>2020-06-08T08:36:16Z</time>
      </trkpt>
      <trkpt lat="48.05431" lon="-3.77206">
        <ele>227.6</ele>
        <time>2020-06-08T08:36:17Z</time>
      </trkpt>
      <trkpt lat="48.05435" lon="-3.7721">
        <ele>227.7</ele>
        <time>2020-06-08T08:36:18Z</time>
      </trkpt>
      <trkpt lat="48.0544" lon="-3.77214">
        <ele>227.8</ele>
        <time>2020-06-08T08:36:19Z</time>
      </trkpt>
      <trkpt lat="48.05444" lon="-3.77218">
        <ele>227.9</ele>
        <time>2020-06-08T08:36:20Z</time>
      </trkpt>
      <trkpt lat="48.05449" lon="-3.77222">
        <ele>228.1</ele>
        <time>2020-06-08T08:36:21Z</time>
      </trkpt>
      <trkpt lat="48.05454" lon="-3.77225">
        <ele>228.2</ele>
        <time>2020-06-08T08:36:22Z</time>
      </trkpt>
      <trkpt lat="48.05459" lon="-3.77228">
        <ele>228.3</ele>
        <time>2020-06-08T08:36:23Z</time>
      </trkpt>
      <trkpt lat="48.05463" lon="-3.77231">
        <ele>228.4</ele>
        <time>2020-06-08T08:36:24Z</time>
      </trkpt>
      <trkpt lat="48.05468" lon="-3.77234">
        <ele>228.5</ele>
        <time>2020-06-08T08:36:25Z</time>
      </trkpt>
      <trkpt lat="48.05472" lon="-3.77238">
        <ele>228.6</ele>
        <time>2020-06-08T08:36:26Z</time>
      </trkpt>
      <trkpt lat="48.05476" lon="-3.77241">
        <ele>228.7</ele>
        <time>2020-06-08T08:36:27Z</time>
      </trkpt>
      <trkpt lat="48.05481" lon="-3.77244">
        <ele>228.8</ele>
        <time>2020-06-08T08:36:28Z</time>
      </trkpt>
      <trkpt lat="48.05486" lon="-3.77247">
        <ele>228.9</ele>
        <time>2020-06-08T08:36:29Z</time>
      </trkpt>
      <trkpt lat="48.0549" lon="-3.7725">
        <ele>229</ele>
        <time>2020-06-08T08:36:30Z</time>
      </trkpt>
      <trkpt lat="48.05495" lon="-3.77254">
        <ele>229.1</ele>
        <time>2020-06-08T08:36:31Z</time>
      </trkpt>
      <trkpt lat="48.05499" lon="-3.77258">
        <ele>229.2</ele>
        <time>2020-06-08T08:36:32Z</time>
      </trkpt>
      <trkpt lat="48.05504" lon="-3.77261">
        <ele>229.2</ele>
        <time>2020-06-08T08:36:33Z</time>
      </trkpt>
      <trkpt lat="48.05508" lon="-3.77265">
        <ele>229.2</ele>
        <time>2020-06-08T08:36:34Z</time>
      </trkpt>
      <trkpt lat="48.05513" lon="-3.77268">
        <ele>229.2</ele>
        <time>2020-06-08T08:36:35Z</time>
      </trkpt>
      <trkpt lat="48.05517" lon="-3.77272">
        <ele>229.3</ele>
        <time>2020-06-08T08:36:36Z</time>
      </trkpt>
      <trkpt lat="48.05522" lon="-3.77276">
        <ele>229.3</ele>
        <time>2020-06-08T08:36:37Z</time>
      </trkpt>
      <trkpt lat="48.05527" lon="-3.7728">
        <ele>229.4</ele>
        <time>2020-06-08T08:36:38Z</time>
      </trkpt>
      <trkpt lat="48.05532" lon="-3.77283">
        <ele>229.4</ele>
        <time>2020-06-08T08:36:39Z</time>
      </trkpt>
      <trkpt lat="48.05536" lon="-3.77286">
        <ele>229.5</ele>
        <time>2020-06-08T08:36:40Z</time>
      </trkpt>
      <trkpt lat="48.05541" lon="-3.77289">
        <ele>229.6</ele>
        <time>2020-06-08T08:36:41Z</time>
      </trkpt>
      <trkpt lat="48.05546" lon="-3.77292">
        <ele>229.7</ele>
        <time>2020-06-08T08:36:42Z</time>
      </trkpt>
      <trkpt lat="48.05551" lon="-3.77296">
        <ele>229.7</ele>
        <time>2020-06-08T08:36:43Z</time>
      </trkpt>
      <trkpt lat="48.05556" lon="-3.77299">
        <ele>229.8</ele>
        <time>2020-06-08T08:36:44Z</time>
      </trkpt>
      <trkpt lat="48.05561" lon="-3.77303">
        <ele>230.1</ele>
        <time>2020-06-08T08:36:45Z</time>
      </trkpt>
      <trkpt lat="48.05566" lon="-3.77306">
        <ele>230.4</ele>
        <time>2020-06-08T08:36:46Z</time>
      </trkpt>
      <trkpt lat="48.05571" lon="-3.7731">
        <ele>230.6</ele>
        <time>2020-06-08T08:36:47Z</time>
      </trkpt>
      <trkpt lat="48.05576" lon="-3.77314">
        <ele>230.7</ele>
        <time>2020-06-08T08:36:48Z</time>
      </trkpt>
      <trkpt lat="48.0558" lon="-3.77318">
        <ele>230.8</ele>
        <time>2020-06-08T08:36:49Z</time>
      </trkpt>
      <trkpt lat="48.05585" lon="-3.77321">
        <ele>230.9</ele>
        <time>2020-06-08T08:36:50Z</time>
      </trkpt>
      <trkpt lat="48.05589" lon="-3.77324">
        <ele>231</ele>
        <time>2020-06-08T08:36:51Z</time>
      </trkpt>
      <trkpt lat="48.05594" lon="-3.77328">
        <ele>231.1</ele>
        <time>2020-06-08T08:36:52Z</time>
      </trkpt>
      <trkpt lat="48.05599" lon="-3.7733">
        <ele>231.2</ele>
        <time>2020-06-08T08:36:53Z</time>
      </trkpt>
      <trkpt lat="48.05604" lon="-3.77332">
        <ele>231.3</ele>
        <time>2020-06-08T08:36:54Z</time>
      </trkpt>
      <trkpt lat="48.05608" lon="-3.77335">
        <ele>231.3</ele>
        <time>2020-06-08T08:36:55Z</time>
      </trkpt>
      <trkpt lat="48.05612" lon="-3.77339">
        <ele>231.4</ele>
        <time>2020-06-08T08:36:56Z</time>
      </trkpt>
      <trkpt lat="48.05617" lon="-3.77342">
        <ele>231.5</ele>
        <time>2020-06-08T08:36:57Z</time>
      </trkpt>
      <trkpt lat="48.05621" lon="-3.77347">
        <ele>231.5</ele>
        <time>2020-06-08T08:36:58Z</time>
      </trkpt>
      <trkpt lat="48.05625" lon="-3.77351">
        <ele>231.5</ele>
        <time>2020-06-08T08:36:59Z</time>
      </trkpt>
      <trkpt lat="48.0563" lon="-3.77355">
        <ele>231.6</ele>
        <time>2020-06-08T08:37:00Z</time>
      </trkpt>
      <trkpt lat="48.05635" lon="-3.7736">
        <ele>231.6</ele>
        <time>2020-06-08T08:37:01Z</time>
      </trkpt>
      <trkpt lat="48.05639" lon="-3.77364">
        <ele>231.6</ele>
        <time>2020-06-08T08:37:02Z</time>
      </trkpt>
      <trkpt lat="48.05644" lon="-3.77368">
        <ele>231.6</ele>
        <time>2020-06-08T08:37:03Z</time>
      </trkpt>
      <trkpt lat="48.05648" lon="-3.77372">
        <ele>231.6</ele>
        <time>2020-06-08T08:37:04Z</time>
      </trkpt>
      <trkpt lat="48.05653" lon="-3.77376">
        <ele>231.6</ele>
        <time>2020-06-08T08:37:05Z</time>
      </trkpt>
      <trkpt lat="48.05658" lon="-3.77379">
        <ele>231.7</ele>
        <time>2020-06-08T08:37:06Z</time>
      </trkpt>
      <trkpt lat="48.05663" lon="-3.77383">
        <ele>231.7</ele>
        <time>2020-06-08T08:37:07Z</time>
      </trkpt>
      <trkpt lat="48.05668" lon="-3.77386">
        <ele>231.7</ele>
        <time>2020-06-08T08:37:08Z</time>
      </trkpt>
      <trkpt lat="48.05673" lon="-3.7739">
        <ele>231.8</ele>
        <time>2020-06-08T08:37:09Z</time>
      </trkpt>
      <trkpt lat="48.05677" lon="-3.77393">
        <ele>231.9</ele>
        <time>2020-06-08T08:37:10Z</time>
      </trkpt>
      <trkpt lat="48.05682" lon="-3.77396">
        <ele>231.9</ele>
        <time>2020-06-08T08:37:11Z</time>
      </trkpt>
      <trkpt lat="48.05687" lon="-3.77399">
        <ele>232</ele>
        <time>2020-06-08T08:37:12Z</time>
      </trkpt>
      <trkpt lat="48.05692" lon="-3.77401">
        <ele>232.1</ele>
        <time>2020-06-08T08:37:13Z</time>
      </trkpt>
      <trkpt lat="48.05697" lon="-3.77405">
        <ele>232.2</ele>
        <time>2020-06-08T08:37:14Z</time>
      </trkpt>
      <trkpt lat="48.05701" lon="-3.77408">
        <ele>232.3</ele>
        <time>2020-06-08T08:37:15Z</time>
      </trkpt>
      <trkpt lat="48.05706" lon="-3.77413">
        <ele>232.5</ele>
        <time>2020-06-08T08:37:16Z</time>
      </trkpt>
      <trkpt lat="48.05709" lon="-3.77418">
        <ele>232.6</ele>
        <time>2020-06-08T08:37:17Z</time>
      </trkpt>
      <trkpt lat="48.05712" lon="-3.77424">
        <ele>232.8</ele>
        <time>2020-06-08T08:37:18Z</time>
      </trkpt>
      <trkpt lat="48.05716" lon="-3.77429">
        <ele>233</ele>
        <time>2020-06-08T08:37:19Z</time>
      </trkpt>
      <trkpt lat="48.0572" lon="-3.77435">
        <ele>233.3</ele>
        <time>2020-06-08T08:37:20Z</time>
      </trkpt>
      <trkpt lat="48.05724" lon="-3.7744">
        <ele>233.5</ele>
        <time>2020-06-08T08:37:21Z</time>
      </trkpt>
      <trkpt lat="48.05727" lon="-3.77446">
        <ele>233.8</ele>
        <time>2020-06-08T08:37:22Z</time>
      </trkpt>
      <trkpt lat="48.05731" lon="-3.7745">
        <ele>234</ele>
        <time>2020-06-08T08:37:23Z</time>
      </trkpt>
      <trkpt lat="48.05734" lon="-3.77456">
        <ele>234.2</ele>
        <time>2020-06-08T08:37:24Z</time>
      </trkpt>
      <trkpt lat="48.05739" lon="-3.7746">
        <ele>234.5</ele>
        <time>2020-06-08T08:37:25Z</time>
      </trkpt>
      <trkpt lat="48.05742" lon="-3.77463">
        <ele>234.7</ele>
        <time>2020-06-08T08:37:26Z</time>
      </trkpt>
      <trkpt lat="48.05745" lon="-3.77468">
        <ele>234.9</ele>
        <time>2020-06-08T08:37:27Z</time>
      </trkpt>
      <trkpt lat="48.05748" lon="-3.77472">
        <ele>235.1</ele>
        <time>2020-06-08T08:37:28Z</time>
      </trkpt>
      <trkpt lat="48.05752" lon="-3.77476">
        <ele>235.3</ele>
        <time>2020-06-08T08:37:29Z</time>
      </trkpt>
      <trkpt lat="48.05754" lon="-3.77482">
        <ele>235.5</ele>
        <time>2020-06-08T08:37:30Z</time>
      </trkpt>
      <trkpt lat="48.05757" lon="-3.77487">
        <ele>235.7</ele>
        <time>2020-06-08T08:37:31Z</time>
      </trkpt>
      <trkpt lat="48.0576" lon="-3.77492">
        <ele>235.8</ele>
        <time>2020-06-08T08:37:32Z</time>
      </trkpt>
      <trkpt lat="48.05762" lon="-3.77497">
        <ele>236</ele>
        <time>2020-06-08T08:37:33Z</time>
      </trkpt>
      <trkpt lat="48.05764" lon="-3.77504">
        <ele>236.2</ele>
        <time>2020-06-08T08:37:34Z</time>
      </trkpt>
      <trkpt lat="48.05767" lon="-3.77509">
        <ele>236.4</ele>
        <time>2020-06-08T08:37:35Z</time>
      </trkpt>
      <trkpt lat="48.05769" lon="-3.77515">
        <ele>236.6</ele>
        <time>2020-06-08T08:37:36Z</time>
      </trkpt>
      <trkpt lat="48.05771" lon="-3.77521">
        <ele>236.8</ele>
        <time>2020-06-08T08:37:37Z</time>
      </trkpt>
      <trkpt lat="48.05773" lon="-3.77526">
        <ele>236.9</ele>
        <time>2020-06-08T08:37:38Z</time>
      </trkpt>
      <trkpt lat="48.05776" lon="-3.77531">
        <ele>237</ele>
        <time>2020-06-08T08:37:39Z</time>
      </trkpt>
      <trkpt lat="48.05778" lon="-3.77535">
        <ele>237.1</ele>
        <time>2020-06-08T08:37:40Z</time>
      </trkpt>
      <trkpt lat="48.0578" lon="-3.7754">
        <ele>237.2</ele>
        <time>2020-06-08T08:37:41Z</time>
      </trkpt>
      <trkpt lat="48.05782" lon="-3.77545">
        <ele>237.3</ele>
        <time>2020-06-08T08:37:42Z</time>
      </trkpt>
      <trkpt lat="48.05784" lon="-3.7755">
        <ele>237.3</ele>
        <time>2020-06-08T08:37:43Z</time>
      </trkpt>
      <trkpt lat="48.05786" lon="-3.77556">
        <ele>237.4</ele>
        <time>2020-06-08T08:37:44Z</time>
      </trkpt>
      <trkpt lat="48.05789" lon="-3.7756">
        <ele>237.4</ele>
        <time>2020-06-08T08:37:45Z</time>
      </trkpt>
      <trkpt lat="48.05791" lon="-3.77566">
        <ele>237.4</ele>
        <time>2020-06-08T08:37:46Z</time>
      </trkpt>
      <trkpt lat="48.05794" lon="-3.77574">
        <ele>237.3</ele>
        <time>2020-06-08T08:37:47Z</time>
      </trkpt>
      <trkpt lat="48.05797" lon="-3.7758">
        <ele>237.3</ele>
        <time>2020-06-08T08:37:48Z</time>
      </trkpt>
      <trkpt lat="48.058" lon="-3.77585">
        <ele>237.3</ele>
        <time>2020-06-08T08:37:49Z</time>
      </trkpt>
      <trkpt lat="48.05802" lon="-3.77591">
        <ele>237.2</ele>
        <time>2020-06-08T08:37:50Z</time>
      </trkpt>
      <trkpt lat="48.05804" lon="-3.77596">
        <ele>237.2</ele>
        <time>2020-06-08T08:37:51Z</time>
      </trkpt>
      <trkpt lat="48.05806" lon="-3.77605">
        <ele>237.1</ele>
        <time>2020-06-08T08:37:52Z</time>
      </trkpt>
      <trkpt lat="48.05808" lon="-3.77608">
        <ele>237</ele>
        <time>2020-06-08T08:37:53Z</time>
      </trkpt>
      <trkpt lat="48.0581" lon="-3.77613">
        <ele>236.9</ele>
        <time>2020-06-08T08:37:54Z</time>
      </trkpt>
      <trkpt lat="48.05813" lon="-3.77619">
        <ele>236.7</ele>
        <time>2020-06-08T08:37:55Z</time>
      </trkpt>
      <trkpt lat="48.05816" lon="-3.77626">
        <ele>236.6</ele>
        <time>2020-06-08T08:37:56Z</time>
      </trkpt>
      <trkpt lat="48.05819" lon="-3.77633">
        <ele>236.3</ele>
        <time>2020-06-08T08:37:57Z</time>
      </trkpt>
      <trkpt lat="48.05824" lon="-3.77641">
        <ele>236.1</ele>
        <time>2020-06-08T08:37:58Z</time>
      </trkpt>
      <trkpt lat="48.05827" lon="-3.77649">
        <ele>235.8</ele>
        <time>2020-06-08T08:37:59Z</time>
      </trkpt>
      <trkpt lat="48.0583" lon="-3.77657">
        <ele>235.7</ele>
        <time>2020-06-08T08:38:00Z</time>
      </trkpt>
      <trkpt lat="48.05833" lon="-3.77664">
        <ele>235.5</ele>
        <time>2020-06-08T08:38:01Z</time>
      </trkpt>
      <trkpt lat="48.05835" lon="-3.77671">
        <ele>235.3</ele>
        <time>2020-06-08T08:38:02Z</time>
      </trkpt>
      <trkpt lat="48.05838" lon="-3.7768">
        <ele>235.2</ele>
        <time>2020-06-08T08:38:03Z</time>
      </trkpt>
      <trkpt lat="48.05841" lon="-3.77689">
        <ele>235</ele>
        <time>2020-06-08T08:38:04Z</time>
      </trkpt>
      <trkpt lat="48.05843" lon="-3.77698">
        <ele>234.9</ele>
        <time>2020-06-08T08:38:05Z</time>
      </trkpt>
      <trkpt lat="48.05845" lon="-3.77704">
        <ele>234.8</ele>
        <time>2020-06-08T08:38:06Z</time>
      </trkpt>
      <trkpt lat="48.05848" lon="-3.77711">
        <ele>234.7</ele>
        <time>2020-06-08T08:38:07Z</time>
      </trkpt>
      <trkpt lat="48.05851" lon="-3.77718">
        <ele>234.6</ele>
        <time>2020-06-08T08:38:08Z</time>
      </trkpt>
      <trkpt lat="48.05855" lon="-3.77727">
        <ele>234.6</ele>
        <time>2020-06-08T08:38:09Z</time>
      </trkpt>
      <trkpt lat="48.05858" lon="-3.77737">
        <ele>234.6</ele>
        <time>2020-06-08T08:38:10Z</time>
      </trkpt>
      <trkpt lat="48.05861" lon="-3.77746">
        <ele>234.6</ele>
        <time>2020-06-08T08:38:11Z</time>
      </trkpt>
      <trkpt lat="48.05864" lon="-3.77753">
        <ele>234.6</ele>
        <time>2020-06-08T08:38:12Z</time>
      </trkpt>
      <trkpt lat="48.05866" lon="-3.77759">
        <ele>234.5</ele>
        <time>2020-06-08T08:38:13Z</time>
      </trkpt>
      <trkpt lat="48.05869" lon="-3.77766">
        <ele>234.4</ele>
        <time>2020-06-08T08:38:14Z</time>
      </trkpt>
      <trkpt lat="48.05871" lon="-3.77773">
        <ele>234.4</ele>
        <time>2020-06-08T08:38:15Z</time>
      </trkpt>
      <trkpt lat="48.05874" lon="-3.7778">
        <ele>234.3</ele>
        <time>2020-06-08T08:38:16Z</time>
      </trkpt>
      <trkpt lat="48.05876" lon="-3.77786">
        <ele>234.3</ele>
        <time>2020-06-08T08:38:17Z</time>
      </trkpt>
      <trkpt lat="48.0588" lon="-3.77794">
        <ele>234.2</ele>
        <time>2020-06-08T08:38:18Z</time>
      </trkpt>
      <trkpt lat="48.05883" lon="-3.77801">
        <ele>234.2</ele>
        <time>2020-06-08T08:38:19Z</time>
      </trkpt>
      <trkpt lat="48.05887" lon="-3.77809">
        <ele>234.2</ele>
        <time>2020-06-08T08:38:20Z</time>
      </trkpt>
      <trkpt lat="48.05891" lon="-3.77817">
        <ele>234.3</ele>
        <time>2020-06-08T08:38:21Z</time>
      </trkpt>
      <trkpt lat="48.05894" lon="-3.77825">
        <ele>234.3</ele>
        <time>2020-06-08T08:38:22Z</time>
      </trkpt>
      <trkpt lat="48.05899" lon="-3.77832">
        <ele>234.4</ele>
        <time>2020-06-08T08:38:23Z</time>
      </trkpt>
      <trkpt lat="48.05903" lon="-3.7784">
        <ele>234.4</ele>
        <time>2020-06-08T08:38:24Z</time>
      </trkpt>
      <trkpt lat="48.05907" lon="-3.77845">
        <ele>234.5</ele>
        <time>2020-06-08T08:38:25Z</time>
      </trkpt>
      <trkpt lat="48.0591" lon="-3.7785">
        <ele>234.5</ele>
        <time>2020-06-08T08:38:26Z</time>
      </trkpt>
      <trkpt lat="48.05914" lon="-3.77854">
        <ele>234.6</ele>
        <time>2020-06-08T08:38:27Z</time>
      </trkpt>
      <trkpt lat="48.05918" lon="-3.77859">
        <ele>234.7</ele>
        <time>2020-06-08T08:38:28Z</time>
      </trkpt>
      <trkpt lat="48.05922" lon="-3.77863">
        <ele>234.7</ele>
        <time>2020-06-08T08:38:29Z</time>
      </trkpt>
      <trkpt lat="48.05927" lon="-3.77867">
        <ele>234.8</ele>
        <time>2020-06-08T08:38:30Z</time>
      </trkpt>
      <trkpt lat="48.05932" lon="-3.7787">
        <ele>234.9</ele>
        <time>2020-06-08T08:38:31Z</time>
      </trkpt>
      <trkpt lat="48.05936" lon="-3.77873">
        <ele>234.9</ele>
        <time>2020-06-08T08:38:32Z</time>
      </trkpt>
      <trkpt lat="48.05941" lon="-3.77875">
        <ele>235</ele>
        <time>2020-06-08T08:38:33Z</time>
      </trkpt>
      <trkpt lat="48.05946" lon="-3.77877">
        <ele>235</ele>
        <time>2020-06-08T08:38:34Z</time>
      </trkpt>
      <trkpt lat="48.0595" lon="-3.77879">
        <ele>235</ele>
        <time>2020-06-08T08:38:35Z</time>
      </trkpt>
      <trkpt lat="48.05955" lon="-3.77879">
        <ele>235.1</ele>
        <time>2020-06-08T08:38:36Z</time>
      </trkpt>
      <trkpt lat="48.0596" lon="-3.77879">
        <ele>235.1</ele>
        <time>2020-06-08T08:38:37Z</time>
      </trkpt>
      <trkpt lat="48.05964" lon="-3.77881">
        <ele>235.1</ele>
        <time>2020-06-08T08:38:38Z</time>
      </trkpt>
      <trkpt lat="48.05969" lon="-3.77882">
        <ele>235.1</ele>
        <time>2020-06-08T08:38:39Z</time>
      </trkpt>
      <trkpt lat="48.05975" lon="-3.77882">
        <ele>235.1</ele>
        <time>2020-06-08T08:38:40Z</time>
      </trkpt>
      <trkpt lat="48.0598" lon="-3.77884">
        <ele>235.1</ele>
        <time>2020-06-08T08:38:41Z</time>
      </trkpt>
      <trkpt lat="48.05987" lon="-3.77885">
        <ele>235</ele>
        <time>2020-06-08T08:38:42Z</time>
      </trkpt>
      <trkpt lat="48.05993" lon="-3.77886">
        <ele>235</ele>
        <time>2020-06-08T08:38:43Z</time>
      </trkpt>
      <trkpt lat="48.05998" lon="-3.77887">
        <ele>235</ele>
        <time>2020-06-08T08:38:44Z</time>
      </trkpt>
      <trkpt lat="48.06003" lon="-3.77886">
        <ele>235</ele>
        <time>2020-06-08T08:38:45Z</time>
      </trkpt>
      <trkpt lat="48.06008" lon="-3.77887">
        <ele>235</ele>
        <time>2020-06-08T08:38:46Z</time>
      </trkpt>
      <trkpt lat="48.06014" lon="-3.77887">
        <ele>234.9</ele>
        <time>2020-06-08T08:38:47Z</time>
      </trkpt>
      <trkpt lat="48.0602" lon="-3.77888">
        <ele>234.9</ele>
        <time>2020-06-08T08:38:48Z</time>
      </trkpt>
      <trkpt lat="48.06025" lon="-3.77889">
        <ele>234.9</ele>
        <time>2020-06-08T08:38:49Z</time>
      </trkpt>
      <trkpt lat="48.06031" lon="-3.77889">
        <ele>234.9</ele>
        <time>2020-06-08T08:38:50Z</time>
      </trkpt>
      <trkpt lat="48.06037" lon="-3.7789">
        <ele>234.9</ele>
        <time>2020-06-08T08:38:51Z</time>
      </trkpt>
      <trkpt lat="48.06044" lon="-3.7789">
        <ele>234.9</ele>
        <time>2020-06-08T08:38:52Z</time>
      </trkpt>
      <trkpt lat="48.06049" lon="-3.7789">
        <ele>234.8</ele>
        <time>2020-06-08T08:38:53Z</time>
      </trkpt>
      <trkpt lat="48.06055" lon="-3.77889">
        <ele>234.8</ele>
        <time>2020-06-08T08:38:54Z</time>
      </trkpt>
      <trkpt lat="48.0606" lon="-3.77889">
        <ele>234.8</ele>
        <time>2020-06-08T08:38:55Z</time>
      </trkpt>
      <trkpt lat="48.06065" lon="-3.77889">
        <ele>234.7</ele>
        <time>2020-06-08T08:38:56Z</time>
      </trkpt>
      <trkpt lat="48.06069" lon="-3.77889">
        <ele>234.7</ele>
        <time>2020-06-08T08:38:57Z</time>
      </trkpt>
      <trkpt lat="48.06075" lon="-3.77889">
        <ele>234.7</ele>
        <time>2020-06-08T08:38:58Z</time>
      </trkpt>
      <trkpt lat="48.06081" lon="-3.77889">
        <ele>234.6</ele>
        <time>2020-06-08T08:38:59Z</time>
      </trkpt>
      <trkpt lat="48.06086" lon="-3.77889">
        <ele>234.5</ele>
        <time>2020-06-08T08:39:00Z</time>
      </trkpt>
      <trkpt lat="48.0609" lon="-3.77888">
        <ele>234.4</ele>
        <time>2020-06-08T08:39:01Z</time>
      </trkpt>
      <trkpt lat="48.06094" lon="-3.77887">
        <ele>234.3</ele>
        <time>2020-06-08T08:39:02Z</time>
      </trkpt>
      <trkpt lat="48.06098" lon="-3.77887">
        <ele>234.2</ele>
        <time>2020-06-08T08:39:03Z</time>
      </trkpt>
      <trkpt lat="48.06103" lon="-3.77887">
        <ele>234.1</ele>
        <time>2020-06-08T08:39:04Z</time>
      </trkpt>
      <trkpt lat="48.06107" lon="-3.77887">
        <ele>234.1</ele>
        <time>2020-06-08T08:39:05Z</time>
      </trkpt>
      <trkpt lat="48.06113" lon="-3.77886">
        <ele>234</ele>
        <time>2020-06-08T08:39:06Z</time>
      </trkpt>
      <trkpt lat="48.06119" lon="-3.77884">
        <ele>233.9</ele>
        <time>2020-06-08T08:39:07Z</time>
      </trkpt>
      <trkpt lat="48.06123" lon="-3.77884">
        <ele>233.8</ele>
        <time>2020-06-08T08:39:08Z</time>
      </trkpt>
      <trkpt lat="48.06128" lon="-3.77884">
        <ele>233.8</ele>
        <time>2020-06-08T08:39:09Z</time>
      </trkpt>
      <trkpt lat="48.06134" lon="-3.77884">
        <ele>233.8</ele>
        <time>2020-06-08T08:39:10Z</time>
      </trkpt>
      <trkpt lat="48.06139" lon="-3.77884">
        <ele>233.8</ele>
        <time>2020-06-08T08:39:11Z</time>
      </trkpt>
      <trkpt lat="48.06146" lon="-3.77884">
        <ele>233.7</ele>
        <time>2020-06-08T08:39:12Z</time>
      </trkpt>
      <trkpt lat="48.06152" lon="-3.77884">
        <ele>233.5</ele>
        <time>2020-06-08T08:39:13Z</time>
      </trkpt>
      <trkpt lat="48.06158" lon="-3.77885">
        <ele>233.4</ele>
        <time>2020-06-08T08:39:14Z</time>
      </trkpt>
      <trkpt lat="48.06164" lon="-3.77886">
        <ele>233.2</ele>
        <time>2020-06-08T08:39:15Z</time>
      </trkpt>
      <trkpt lat="48.0617" lon="-3.77887">
        <ele>233.1</ele>
        <time>2020-06-08T08:39:16Z</time>
      </trkpt>
      <trkpt lat="48.06176" lon="-3.77889">
        <ele>233</ele>
        <time>2020-06-08T08:39:17Z</time>
      </trkpt>
      <trkpt lat="48.06182" lon="-3.77894">
        <ele>232.9</ele>
        <time>2020-06-08T08:39:18Z</time>
      </trkpt>
      <trkpt lat="48.06187" lon="-3.77897">
        <ele>232.8</ele>
        <time>2020-06-08T08:39:19Z</time>
      </trkpt>
      <trkpt lat="48.06191" lon="-3.779">
        <ele>232.8</ele>
        <time>2020-06-08T08:39:20Z</time>
      </trkpt>
      <trkpt lat="48.06196" lon="-3.77903">
        <ele>232.8</ele>
        <time>2020-06-08T08:39:21Z</time>
      </trkpt>
      <trkpt lat="48.06201" lon="-3.77906">
        <ele>232.7</ele>
        <time>2020-06-08T08:39:22Z</time>
      </trkpt>
      <trkpt lat="48.06207" lon="-3.7791">
        <ele>232.7</ele>
        <time>2020-06-08T08:39:23Z</time>
      </trkpt>
      <trkpt lat="48.06213" lon="-3.77914">
        <ele>232.6</ele>
        <time>2020-06-08T08:39:24Z</time>
      </trkpt>
      <trkpt lat="48.06219" lon="-3.77918">
        <ele>232.5</ele>
        <time>2020-06-08T08:39:25Z</time>
      </trkpt>
      <trkpt lat="48.06223" lon="-3.77921">
        <ele>232.5</ele>
        <time>2020-06-08T08:39:26Z</time>
      </trkpt>
      <trkpt lat="48.06228" lon="-3.77925">
        <ele>232.4</ele>
        <time>2020-06-08T08:39:27Z</time>
      </trkpt>
      <trkpt lat="48.06233" lon="-3.77929">
        <ele>232.4</ele>
        <time>2020-06-08T08:39:28Z</time>
      </trkpt>
      <trkpt lat="48.06237" lon="-3.77932">
        <ele>232.3</ele>
        <time>2020-06-08T08:39:29Z</time>
      </trkpt>
      <trkpt lat="48.06241" lon="-3.77935">
        <ele>232.3</ele>
        <time>2020-06-08T08:39:30Z</time>
      </trkpt>
      <trkpt lat="48.06246" lon="-3.77938">
        <ele>232.3</ele>
        <time>2020-06-08T08:39:31Z</time>
      </trkpt>
      <trkpt lat="48.06251" lon="-3.77942">
        <ele>232.2</ele>
        <time>2020-06-08T08:39:32Z</time>
      </trkpt>
      <trkpt lat="48.06255" lon="-3.77945">
        <ele>232.2</ele>
        <time>2020-06-08T08:39:33Z</time>
      </trkpt>
      <trkpt lat="48.06259" lon="-3.77948">
        <ele>232.2</ele>
        <time>2020-06-08T08:39:34Z</time>
      </trkpt>
      <trkpt lat="48.06264" lon="-3.7795">
        <ele>232.1</ele>
        <time>2020-06-08T08:39:35Z</time>
      </trkpt>
      <trkpt lat="48.06268" lon="-3.77952">
        <ele>232.1</ele>
        <time>2020-06-08T08:39:36Z</time>
      </trkpt>
      <trkpt lat="48.06273" lon="-3.77954">
        <ele>232</ele>
        <time>2020-06-08T08:39:37Z</time>
      </trkpt>
      <trkpt lat="48.06278" lon="-3.77956">
        <ele>232</ele>
        <time>2020-06-08T08:39:38Z</time>
      </trkpt>
      <trkpt lat="48.06282" lon="-3.77959">
        <ele>231.9</ele>
        <time>2020-06-08T08:39:39Z</time>
      </trkpt>
      <trkpt lat="48.06286" lon="-3.77962">
        <ele>231.9</ele>
        <time>2020-06-08T08:39:40Z</time>
      </trkpt>
      <trkpt lat="48.0629" lon="-3.77964">
        <ele>231.8</ele>
        <time>2020-06-08T08:39:41Z</time>
      </trkpt>
      <trkpt lat="48.06294" lon="-3.77967">
        <ele>231.8</ele>
        <time>2020-06-08T08:39:42Z</time>
      </trkpt>
      <trkpt lat="48.06298" lon="-3.77968">
        <ele>231.7</ele>
        <time>2020-06-08T08:39:43Z</time>
      </trkpt>
      <trkpt lat="48.06301" lon="-3.77969">
        <ele>231.7</ele>
        <time>2020-06-08T08:39:44Z</time>
      </trkpt>
      <trkpt lat="48.06306" lon="-3.77972">
        <ele>231.6</ele>
        <time>2020-06-08T08:39:45Z</time>
      </trkpt>
      <trkpt lat="48.06311" lon="-3.77975">
        <ele>231.5</ele>
        <time>2020-06-08T08:39:46Z</time>
      </trkpt>
      <trkpt lat="48.06316" lon="-3.77978">
        <ele>231.5</ele>
        <time>2020-06-08T08:39:47Z</time>
      </trkpt>
      <trkpt lat="48.06321" lon="-3.77981">
        <ele>231.4</ele>
        <time>2020-06-08T08:39:48Z</time>
      </trkpt>
      <trkpt lat="48.06325" lon="-3.77984">
        <ele>231.3</ele>
        <time>2020-06-08T08:39:49Z</time>
      </trkpt>
      <trkpt lat="48.06329" lon="-3.77986">
        <ele>231.3</ele>
        <time>2020-06-08T08:39:50Z</time>
      </trkpt>
      <trkpt lat="48.06334" lon="-3.77989">
        <ele>231.2</ele>
        <time>2020-06-08T08:39:51Z</time>
      </trkpt>
      <trkpt lat="48.06339" lon="-3.77991">
        <ele>231.1</ele>
        <time>2020-06-08T08:39:52Z</time>
      </trkpt>
      <trkpt lat="48.06343" lon="-3.77995">
        <ele>231.1</ele>
        <time>2020-06-08T08:39:53Z</time>
      </trkpt>
      <trkpt lat="48.06347" lon="-3.77998">
        <ele>231</ele>
        <time>2020-06-08T08:39:54Z</time>
      </trkpt>
      <trkpt lat="48.06353" lon="-3.78003">
        <ele>231</ele>
        <time>2020-06-08T08:39:55Z</time>
      </trkpt>
      <trkpt lat="48.06358" lon="-3.78007">
        <ele>230.9</ele>
        <time>2020-06-08T08:39:56Z</time>
      </trkpt>
      <trkpt lat="48.06362" lon="-3.7801">
        <ele>230.8</ele>
        <time>2020-06-08T08:39:57Z</time>
      </trkpt>
      <trkpt lat="48.06366" lon="-3.78013">
        <ele>230.8</ele>
        <time>2020-06-08T08:39:58Z</time>
      </trkpt>
      <trkpt lat="48.06371" lon="-3.78015">
        <ele>230.7</ele>
        <time>2020-06-08T08:39:59Z</time>
      </trkpt>
      <trkpt lat="48.06378" lon="-3.78019">
        <ele>230.6</ele>
        <time>2020-06-08T08:40:00Z</time>
      </trkpt>
      <trkpt lat="48.06384" lon="-3.78023">
        <ele>230.4</ele>
        <time>2020-06-08T08:40:01Z</time>
      </trkpt>
      <trkpt lat="48.06389" lon="-3.78026">
        <ele>230.3</ele>
        <time>2020-06-08T08:40:02Z</time>
      </trkpt>
      <trkpt lat="48.06395" lon="-3.78029">
        <ele>230.1</ele>
        <time>2020-06-08T08:40:03Z</time>
      </trkpt>
      <trkpt lat="48.06399" lon="-3.78031">
        <ele>230.1</ele>
        <time>2020-06-08T08:40:04Z</time>
      </trkpt>
      <trkpt lat="48.06402" lon="-3.78033">
        <ele>230</ele>
        <time>2020-06-08T08:40:05Z</time>
      </trkpt>
      <trkpt lat="48.06405" lon="-3.78035">
        <ele>230</ele>
        <time>2020-06-08T08:40:06Z</time>
      </trkpt>
      <trkpt lat="48.06409" lon="-3.78038">
        <ele>230</ele>
        <time>2020-06-08T08:40:07Z</time>
      </trkpt>
      <trkpt lat="48.06414" lon="-3.78041">
        <ele>229.9</ele>
        <time>2020-06-08T08:40:08Z</time>
      </trkpt>
      <trkpt lat="48.06419" lon="-3.78044">
        <ele>229.9</ele>
        <time>2020-06-08T08:40:09Z</time>
      </trkpt>
      <trkpt lat="48.06423" lon="-3.78047">
        <ele>229.9</ele>
        <time>2020-06-08T08:40:10Z</time>
      </trkpt>
      <trkpt lat="48.06428" lon="-3.7805">
        <ele>229.9</ele>
        <time>2020-06-08T08:40:11Z</time>
      </trkpt>
      <trkpt lat="48.06433" lon="-3.78054">
        <ele>229.9</ele>
        <time>2020-06-08T08:40:12Z</time>
      </trkpt>
      <trkpt lat="48.06437" lon="-3.78057">
        <ele>229.8</ele>
        <time>2020-06-08T08:40:13Z</time>
      </trkpt>
      <trkpt lat="48.06442" lon="-3.7806">
        <ele>229.8</ele>
        <time>2020-06-08T08:40:14Z</time>
      </trkpt>
      <trkpt lat="48.06447" lon="-3.78063">
        <ele>229.7</ele>
        <time>2020-06-08T08:40:15Z</time>
      </trkpt>
      <trkpt lat="48.06452" lon="-3.78067">
        <ele>229.7</ele>
        <time>2020-06-08T08:40:16Z</time>
      </trkpt>
      <trkpt lat="48.06457" lon="-3.78071">
        <ele>229.7</ele>
        <time>2020-06-08T08:40:17Z</time>
      </trkpt>
      <trkpt lat="48.06462" lon="-3.78074">
        <ele>229.7</ele>
        <time>2020-06-08T08:40:18Z</time>
      </trkpt>
      <trkpt lat="48.06468" lon="-3.78078">
        <ele>229.7</ele>
        <time>2020-06-08T08:40:19Z</time>
      </trkpt>
      <trkpt lat="48.06473" lon="-3.78082">
        <ele>229.7</ele>
        <time>2020-06-08T08:40:20Z</time>
      </trkpt>
      <trkpt lat="48.06479" lon="-3.78085">
        <ele>229.8</ele>
        <time>2020-06-08T08:40:21Z</time>
      </trkpt>
      <trkpt lat="48.06484" lon="-3.78089">
        <ele>229.8</ele>
        <time>2020-06-08T08:40:22Z</time>
      </trkpt>
      <trkpt lat="48.06489" lon="-3.78093">
        <ele>229.8</ele>
        <time>2020-06-08T08:40:23Z</time>
      </trkpt>
      <trkpt lat="48.06493" lon="-3.78096">
        <ele>229.8</ele>
        <time>2020-06-08T08:40:24Z</time>
      </trkpt>
      <trkpt lat="48.06498" lon="-3.781">
        <ele>229.8</ele>
        <time>2020-06-08T08:40:25Z</time>
      </trkpt>
      <trkpt lat="48.06503" lon="-3.78104">
        <ele>229.7</ele>
        <time>2020-06-08T08:40:26Z</time>
      </trkpt>
      <trkpt lat="48.06508" lon="-3.78107">
        <ele>229.7</ele>
        <time>2020-06-08T08:40:27Z</time>
      </trkpt>
      <trkpt lat="48.06513" lon="-3.78111">
        <ele>229.7</ele>
        <time>2020-06-08T08:40:28Z</time>
      </trkpt>
      <trkpt lat="48.06517" lon="-3.78115">
        <ele>229.7</ele>
        <time>2020-06-08T08:40:29Z</time>
      </trkpt>
      <trkpt lat="48.06522" lon="-3.78118">
        <ele>229.7</ele>
        <time>2020-06-08T08:40:30Z</time>
      </trkpt>
      <trkpt lat="48.06527" lon="-3.78121">
        <ele>229.6</ele>
        <time>2020-06-08T08:40:31Z</time>
      </trkpt>
      <trkpt lat="48.06532" lon="-3.78124">
        <ele>229.6</ele>
        <time>2020-06-08T08:40:32Z</time>
      </trkpt>
      <trkpt lat="48.06538" lon="-3.78126">
        <ele>229.5</ele>
        <time>2020-06-08T08:40:33Z</time>
      </trkpt>
      <trkpt lat="48.06543" lon="-3.78129">
        <ele>229.4</ele>
        <time>2020-06-08T08:40:34Z</time>
      </trkpt>
      <trkpt lat="48.06548" lon="-3.78131">
        <ele>229.4</ele>
        <time>2020-06-08T08:40:35Z</time>
      </trkpt>
      <trkpt lat="48.06553" lon="-3.78133">
        <ele>229.4</ele>
        <time>2020-06-08T08:40:36Z</time>
      </trkpt>
      <trkpt lat="48.06558" lon="-3.78135">
        <ele>229.4</ele>
        <time>2020-06-08T08:40:37Z</time>
      </trkpt>
      <trkpt lat="48.06563" lon="-3.78138">
        <ele>229.4</ele>
        <time>2020-06-08T08:40:38Z</time>
      </trkpt>
      <trkpt lat="48.06567" lon="-3.78142">
        <ele>229.4</ele>
        <time>2020-06-08T08:40:39Z</time>
      </trkpt>
      <trkpt lat="48.06571" lon="-3.78145">
        <ele>229.5</ele>
        <time>2020-06-08T08:40:40Z</time>
      </trkpt>
      <trkpt lat="48.06576" lon="-3.78147">
        <ele>229.5</ele>
        <time>2020-06-08T08:40:41Z</time>
      </trkpt>
      <trkpt lat="48.0658" lon="-3.78149">
        <ele>229.6</ele>
        <time>2020-06-08T08:40:42Z</time>
      </trkpt>
      <trkpt lat="48.06585" lon="-3.78152">
        <ele>229.6</ele>
        <time>2020-06-08T08:40:43Z</time>
      </trkpt>
      <trkpt lat="48.06589" lon="-3.78155">
        <ele>229.5</ele>
        <time>2020-06-08T08:40:44Z</time>
      </trkpt>
      <trkpt lat="48.06594" lon="-3.78159">
        <ele>229.4</ele>
        <time>2020-06-08T08:40:45Z</time>
      </trkpt>
      <trkpt lat="48.06599" lon="-3.78162">
        <ele>229.4</ele>
        <time>2020-06-08T08:40:46Z</time>
      </trkpt>
      <trkpt lat="48.06604" lon="-3.78165">
        <ele>229.3</ele>
        <time>2020-06-08T08:40:47Z</time>
      </trkpt>
      <trkpt lat="48.06608" lon="-3.78169">
        <ele>229.2</ele>
        <time>2020-06-08T08:40:48Z</time>
      </trkpt>
      <trkpt lat="48.06613" lon="-3.78173">
        <ele>229.2</ele>
        <time>2020-06-08T08:40:49Z</time>
      </trkpt>
      <trkpt lat="48.06618" lon="-3.78176">
        <ele>229.1</ele>
        <time>2020-06-08T08:40:50Z</time>
      </trkpt>
      <trkpt lat="48.06623" lon="-3.78178">
        <ele>229.1</ele>
        <time>2020-06-08T08:40:51Z</time>
      </trkpt>
      <trkpt lat="48.06627" lon="-3.7818">
        <ele>229.1</ele>
        <time>2020-06-08T08:40:52Z</time>
      </trkpt>
      <trkpt lat="48.06631" lon="-3.78182">
        <ele>229</ele>
        <time>2020-06-08T08:40:53Z</time>
      </trkpt>
      <trkpt lat="48.06636" lon="-3.78185">
        <ele>229</ele>
        <time>2020-06-08T08:40:54Z</time>
      </trkpt>
      <trkpt lat="48.0664" lon="-3.78188">
        <ele>229</ele>
        <time>2020-06-08T08:40:55Z</time>
      </trkpt>
      <trkpt lat="48.06645" lon="-3.7819">
        <ele>228.9</ele>
        <time>2020-06-08T08:40:56Z</time>
      </trkpt>
      <trkpt lat="48.06649" lon="-3.78192">
        <ele>228.9</ele>
        <time>2020-06-08T08:40:57Z</time>
      </trkpt>
      <trkpt lat="48.06654" lon="-3.78195">
        <ele>228.8</ele>
        <time>2020-06-08T08:40:58Z</time>
      </trkpt>
      <trkpt lat="48.06658" lon="-3.78197">
        <ele>228.8</ele>
        <time>2020-06-08T08:40:59Z</time>
      </trkpt>
      <trkpt lat="48.06663" lon="-3.78199">
        <ele>228.7</ele>
        <time>2020-06-08T08:41:00Z</time>
      </trkpt>
      <trkpt lat="48.06668" lon="-3.78202">
        <ele>228.7</ele>
        <time>2020-06-08T08:41:01Z</time>
      </trkpt>
      <trkpt lat="48.06672" lon="-3.78205">
        <ele>228.6</ele>
        <time>2020-06-08T08:41:02Z</time>
      </trkpt>
      <trkpt lat="48.06677" lon="-3.78209">
        <ele>228.6</ele>
        <time>2020-06-08T08:41:03Z</time>
      </trkpt>
      <trkpt lat="48.06682" lon="-3.78213">
        <ele>228.5</ele>
        <time>2020-06-08T08:41:04Z</time>
      </trkpt>
      <trkpt lat="48.06686" lon="-3.78217">
        <ele>228.5</ele>
        <time>2020-06-08T08:41:05Z</time>
      </trkpt>
      <trkpt lat="48.06691" lon="-3.7822">
        <ele>228.5</ele>
        <time>2020-06-08T08:41:06Z</time>
      </trkpt>
      <trkpt lat="48.06695" lon="-3.78223">
        <ele>228.5</ele>
        <time>2020-06-08T08:41:07Z</time>
      </trkpt>
      <trkpt lat="48.067" lon="-3.78225">
        <ele>228.5</ele>
        <time>2020-06-08T08:41:08Z</time>
      </trkpt>
      <trkpt lat="48.06704" lon="-3.78227">
        <ele>228.4</ele>
        <time>2020-06-08T08:41:09Z</time>
      </trkpt>
      <trkpt lat="48.06709" lon="-3.78231">
        <ele>228.4</ele>
        <time>2020-06-08T08:41:10Z</time>
      </trkpt>
      <trkpt lat="48.06714" lon="-3.78235">
        <ele>228.3</ele>
        <time>2020-06-08T08:41:11Z</time>
      </trkpt>
      <trkpt lat="48.06717" lon="-3.78237">
        <ele>228.3</ele>
        <time>2020-06-08T08:41:12Z</time>
      </trkpt>
      <trkpt lat="48.06722" lon="-3.78239">
        <ele>228.2</ele>
        <time>2020-06-08T08:41:13Z</time>
      </trkpt>
      <trkpt lat="48.06726" lon="-3.78242">
        <ele>228.2</ele>
        <time>2020-06-08T08:41:14Z</time>
      </trkpt>
      <trkpt lat="48.0673" lon="-3.78244">
        <ele>228.1</ele>
        <time>2020-06-08T08:41:15Z</time>
      </trkpt>
      <trkpt lat="48.06734" lon="-3.78246">
        <ele>228.1</ele>
        <time>2020-06-08T08:41:16Z</time>
      </trkpt>
      <trkpt lat="48.06739" lon="-3.7825">
        <ele>228.1</ele>
        <time>2020-06-08T08:41:17Z</time>
      </trkpt>
      <trkpt lat="48.06745" lon="-3.78253">
        <ele>228</ele>
        <time>2020-06-08T08:41:18Z</time>
      </trkpt>
      <trkpt lat="48.0675" lon="-3.78257">
        <ele>228</ele>
        <time>2020-06-08T08:41:19Z</time>
      </trkpt>
      <trkpt lat="48.06754" lon="-3.7826">
        <ele>227.9</ele>
        <time>2020-06-08T08:41:20Z</time>
      </trkpt>
      <trkpt lat="48.06758" lon="-3.78263">
        <ele>227.8</ele>
        <time>2020-06-08T08:41:21Z</time>
      </trkpt>
      <trkpt lat="48.06763" lon="-3.78267">
        <ele>227.7</ele>
        <time>2020-06-08T08:41:22Z</time>
      </trkpt>
      <trkpt lat="48.06768" lon="-3.78269">
        <ele>227.6</ele>
        <time>2020-06-08T08:41:23Z</time>
      </trkpt>
      <trkpt lat="48.06772" lon="-3.78272">
        <ele>227.5</ele>
        <time>2020-06-08T08:41:24Z</time>
      </trkpt>
      <trkpt lat="48.06776" lon="-3.78276">
        <ele>227.4</ele>
        <time>2020-06-08T08:41:25Z</time>
      </trkpt>
      <trkpt lat="48.06781" lon="-3.7828">
        <ele>227.3</ele>
        <time>2020-06-08T08:41:26Z</time>
      </trkpt>
      <trkpt lat="48.06786" lon="-3.78283">
        <ele>227.2</ele>
        <time>2020-06-08T08:41:27Z</time>
      </trkpt>
      <trkpt lat="48.06791" lon="-3.78286">
        <ele>227.1</ele>
        <time>2020-06-08T08:41:28Z</time>
      </trkpt>
      <trkpt lat="48.06796" lon="-3.78289">
        <ele>227</ele>
        <time>2020-06-08T08:41:29Z</time>
      </trkpt>
      <trkpt lat="48.06802" lon="-3.78291">
        <ele>227</ele>
        <time>2020-06-08T08:41:30Z</time>
      </trkpt>
      <trkpt lat="48.06808" lon="-3.78294">
        <ele>226.9</ele>
        <time>2020-06-08T08:41:31Z</time>
      </trkpt>
      <trkpt lat="48.06813" lon="-3.78295">
        <ele>226.8</ele>
        <time>2020-06-08T08:41:32Z</time>
      </trkpt>
      <trkpt lat="48.06818" lon="-3.78299">
        <ele>226.8</ele>
        <time>2020-06-08T08:41:33Z</time>
      </trkpt>
      <trkpt lat="48.06823" lon="-3.78301">
        <ele>226.7</ele>
        <time>2020-06-08T08:41:34Z</time>
      </trkpt>
      <trkpt lat="48.06828" lon="-3.78305">
        <ele>226.7</ele>
        <time>2020-06-08T08:41:35Z</time>
      </trkpt>
      <trkpt lat="48.06833" lon="-3.78307">
        <ele>226.6</ele>
        <time>2020-06-08T08:41:36Z</time>
      </trkpt>
      <trkpt lat="48.06839" lon="-3.78309">
        <ele>226.5</ele>
        <time>2020-06-08T08:41:37Z</time>
      </trkpt>
      <trkpt lat="48.06844" lon="-3.78312">
        <ele>226.5</ele>
        <time>2020-06-08T08:41:38Z</time>
      </trkpt>
      <trkpt lat="48.06849" lon="-3.78315">
        <ele>226.4</ele>
        <time>2020-06-08T08:41:39Z</time>
      </trkpt>
      <trkpt lat="48.06854" lon="-3.78319">
        <ele>226.4</ele>
        <time>2020-06-08T08:41:40Z</time>
      </trkpt>
      <trkpt lat="48.06859" lon="-3.78324">
        <ele>226.3</ele>
        <time>2020-06-08T08:41:41Z</time>
      </trkpt>
      <trkpt lat="48.06863" lon="-3.78328">
        <ele>226.3</ele>
        <time>2020-06-08T08:41:42Z</time>
      </trkpt>
      <trkpt lat="48.06868" lon="-3.78332">
        <ele>226.2</ele>
        <time>2020-06-08T08:41:43Z</time>
      </trkpt>
      <trkpt lat="48.06873" lon="-3.78335">
        <ele>226.1</ele>
        <time>2020-06-08T08:41:44Z</time>
      </trkpt>
      <trkpt lat="48.06877" lon="-3.78339">
        <ele>226.1</ele>
        <time>2020-06-08T08:41:45Z</time>
      </trkpt>
      <trkpt lat="48.06882" lon="-3.78342">
        <ele>226.1</ele>
        <time>2020-06-08T08:41:46Z</time>
      </trkpt>
      <trkpt lat="48.06887" lon="-3.78345">
        <ele>226.1</ele>
        <time>2020-06-08T08:41:47Z</time>
      </trkpt>
      <trkpt lat="48.06891" lon="-3.78347">
        <ele>226.1</ele>
        <time>2020-06-08T08:41:48Z</time>
      </trkpt>
      <trkpt lat="48.06897" lon="-3.7835">
        <ele>226.2</ele>
        <time>2020-06-08T08:41:49Z</time>
      </trkpt>
      <trkpt lat="48.06902" lon="-3.78353">
        <ele>226.2</ele>
        <time>2020-06-08T08:41:50Z</time>
      </trkpt>
      <trkpt lat="48.06906" lon="-3.78356">
        <ele>226.1</ele>
        <time>2020-06-08T08:41:51Z</time>
      </trkpt>
      <trkpt lat="48.06911" lon="-3.78358">
        <ele>225.9</ele>
        <time>2020-06-08T08:41:52Z</time>
      </trkpt>
      <trkpt lat="48.06915" lon="-3.78361">
        <ele>225.8</ele>
        <time>2020-06-08T08:41:53Z</time>
      </trkpt>
      <trkpt lat="48.0692" lon="-3.78364">
        <ele>225.6</ele>
        <time>2020-06-08T08:41:54Z</time>
      </trkpt>
      <trkpt lat="48.06926" lon="-3.78367">
        <ele>225.5</ele>
        <time>2020-06-08T08:41:55Z</time>
      </trkpt>
      <trkpt lat="48.0693" lon="-3.78372">
        <ele>225.3</ele>
        <time>2020-06-08T08:41:56Z</time>
      </trkpt>
      <trkpt lat="48.06934" lon="-3.78374">
        <ele>225.2</ele>
        <time>2020-06-08T08:41:57Z</time>
      </trkpt>
      <trkpt lat="48.06939" lon="-3.78378">
        <ele>225.1</ele>
        <time>2020-06-08T08:41:58Z</time>
      </trkpt>
      <trkpt lat="48.06944" lon="-3.78381">
        <ele>225</ele>
        <time>2020-06-08T08:41:59Z</time>
      </trkpt>
      <trkpt lat="48.0695" lon="-3.78384">
        <ele>224.9</ele>
        <time>2020-06-08T08:42:00Z</time>
      </trkpt>
      <trkpt lat="48.06955" lon="-3.78387">
        <ele>224.8</ele>
        <time>2020-06-08T08:42:01Z</time>
      </trkpt>
      <trkpt lat="48.06961" lon="-3.78391">
        <ele>224.8</ele>
        <time>2020-06-08T08:42:02Z</time>
      </trkpt>
      <trkpt lat="48.06966" lon="-3.78394">
        <ele>224.8</ele>
        <time>2020-06-08T08:42:03Z</time>
      </trkpt>
      <trkpt lat="48.0697" lon="-3.78396">
        <ele>224.7</ele>
        <time>2020-06-08T08:42:04Z</time>
      </trkpt>
      <trkpt lat="48.06975" lon="-3.784">
        <ele>224.7</ele>
        <time>2020-06-08T08:42:05Z</time>
      </trkpt>
      <trkpt lat="48.06979" lon="-3.78403">
        <ele>224.6</ele>
        <time>2020-06-08T08:42:06Z</time>
      </trkpt>
      <trkpt lat="48.06983" lon="-3.78405">
        <ele>224.6</ele>
        <time>2020-06-08T08:42:07Z</time>
      </trkpt>
      <trkpt lat="48.06988" lon="-3.78409">
        <ele>224.5</ele>
        <time>2020-06-08T08:42:08Z</time>
      </trkpt>
      <trkpt lat="48.06992" lon="-3.78411">
        <ele>224.5</ele>
        <time>2020-06-08T08:42:09Z</time>
      </trkpt>
      <trkpt lat="48.06996" lon="-3.78414">
        <ele>224.5</ele>
        <time>2020-06-08T08:42:10Z</time>
      </trkpt>
      <trkpt lat="48.07001" lon="-3.78416">
        <ele>224.4</ele>
        <time>2020-06-08T08:42:11Z</time>
      </trkpt>
      <trkpt lat="48.07006" lon="-3.78419">
        <ele>224.4</ele>
        <time>2020-06-08T08:42:12Z</time>
      </trkpt>
      <trkpt lat="48.07011" lon="-3.78422">
        <ele>224.3</ele>
        <time>2020-06-08T08:42:13Z</time>
      </trkpt>
      <trkpt lat="48.07015" lon="-3.78424">
        <ele>224.3</ele>
        <time>2020-06-08T08:42:14Z</time>
      </trkpt>
      <trkpt lat="48.0702" lon="-3.78427">
        <ele>224.2</ele>
        <time>2020-06-08T08:42:15Z</time>
      </trkpt>
      <trkpt lat="48.07025" lon="-3.78429">
        <ele>224.1</ele>
        <time>2020-06-08T08:42:16Z</time>
      </trkpt>
      <trkpt lat="48.07029" lon="-3.78432">
        <ele>224.1</ele>
        <time>2020-06-08T08:42:17Z</time>
      </trkpt>
      <trkpt lat="48.07034" lon="-3.78436">
        <ele>224.1</ele>
        <time>2020-06-08T08:42:18Z</time>
      </trkpt>
      <trkpt lat="48.07039" lon="-3.78439">
        <ele>224.1</ele>
        <time>2020-06-08T08:42:19Z</time>
      </trkpt>
      <trkpt lat="48.07043" lon="-3.78441">
        <ele>224.1</ele>
        <time>2020-06-08T08:42:20Z</time>
      </trkpt>
      <trkpt lat="48.07048" lon="-3.78443">
        <ele>224.1</ele>
        <time>2020-06-08T08:42:21Z</time>
      </trkpt>
      <trkpt lat="48.07054" lon="-3.78446">
        <ele>224.1</ele>
        <time>2020-06-08T08:42:22Z</time>
      </trkpt>
      <trkpt lat="48.07058" lon="-3.78448">
        <ele>224.2</ele>
        <time>2020-06-08T08:42:23Z</time>
      </trkpt>
      <trkpt lat="48.07063" lon="-3.78451">
        <ele>224.2</ele>
        <time>2020-06-08T08:42:24Z</time>
      </trkpt>
      <trkpt lat="48.07068" lon="-3.78454">
        <ele>224.2</ele>
        <time>2020-06-08T08:42:25Z</time>
      </trkpt>
      <trkpt lat="48.07072" lon="-3.78457">
        <ele>224.3</ele>
        <time>2020-06-08T08:42:26Z</time>
      </trkpt>
      <trkpt lat="48.07076" lon="-3.78459">
        <ele>224.3</ele>
        <time>2020-06-08T08:42:27Z</time>
      </trkpt>
      <trkpt lat="48.07081" lon="-3.78461">
        <ele>224.4</ele>
        <time>2020-06-08T08:42:28Z</time>
      </trkpt>
      <trkpt lat="48.07085" lon="-3.78464">
        <ele>224.4</ele>
        <time>2020-06-08T08:42:29Z</time>
      </trkpt>
      <trkpt lat="48.0709" lon="-3.78466">
        <ele>224.5</ele>
        <time>2020-06-08T08:42:30Z</time>
      </trkpt>
      <trkpt lat="48.07095" lon="-3.78468">
        <ele>224.5</ele>
        <time>2020-06-08T08:42:31Z</time>
      </trkpt>
      <trkpt lat="48.07099" lon="-3.78471">
        <ele>224.6</ele>
        <time>2020-06-08T08:42:32Z</time>
      </trkpt>
      <trkpt lat="48.07104" lon="-3.78475">
        <ele>224.7</ele>
        <time>2020-06-08T08:42:33Z</time>
      </trkpt>
      <trkpt lat="48.07109" lon="-3.78479">
        <ele>224.7</ele>
        <time>2020-06-08T08:42:34Z</time>
      </trkpt>
      <trkpt lat="48.07112" lon="-3.78483">
        <ele>224.8</ele>
        <time>2020-06-08T08:42:35Z</time>
      </trkpt>
      <trkpt lat="48.07116" lon="-3.78486">
        <ele>224.9</ele>
        <time>2020-06-08T08:42:36Z</time>
      </trkpt>
      <trkpt lat="48.07121" lon="-3.78489">
        <ele>225.1</ele>
        <time>2020-06-08T08:42:37Z</time>
      </trkpt>
      <trkpt lat="48.07125" lon="-3.78491">
        <ele>225.1</ele>
        <time>2020-06-08T08:42:38Z</time>
      </trkpt>
      <trkpt lat="48.07129" lon="-3.78493">
        <ele>225</ele>
        <time>2020-06-08T08:42:39Z</time>
      </trkpt>
      <trkpt lat="48.07133" lon="-3.78496">
        <ele>224.9</ele>
        <time>2020-06-08T08:42:40Z</time>
      </trkpt>
      <trkpt lat="48.07137" lon="-3.78498">
        <ele>224.9</ele>
        <time>2020-06-08T08:42:41Z</time>
      </trkpt>
      <trkpt lat="48.07141" lon="-3.78501">
        <ele>224.8</ele>
        <time>2020-06-08T08:42:42Z</time>
      </trkpt>
      <trkpt lat="48.07145" lon="-3.78504">
        <ele>224.7</ele>
        <time>2020-06-08T08:42:43Z</time>
      </trkpt>
      <trkpt lat="48.0715" lon="-3.78507">
        <ele>224.7</ele>
        <time>2020-06-08T08:42:44Z</time>
      </trkpt>
      <trkpt lat="48.07154" lon="-3.7851">
        <ele>224.7</ele>
        <time>2020-06-08T08:42:45Z</time>
      </trkpt>
      <trkpt lat="48.07158" lon="-3.78512">
        <ele>224.7</ele>
        <time>2020-06-08T08:42:46Z</time>
      </trkpt>
      <trkpt lat="48.07162" lon="-3.78515">
        <ele>224.8</ele>
        <time>2020-06-08T08:42:47Z</time>
      </trkpt>
      <trkpt lat="48.07167" lon="-3.78518">
        <ele>224.8</ele>
        <time>2020-06-08T08:42:48Z</time>
      </trkpt>
      <trkpt lat="48.07171" lon="-3.78521">
        <ele>224.9</ele>
        <time>2020-06-08T08:42:49Z</time>
      </trkpt>
      <trkpt lat="48.07175" lon="-3.78524">
        <ele>224.9</ele>
        <time>2020-06-08T08:42:50Z</time>
      </trkpt>
      <trkpt lat="48.07179" lon="-3.78525">
        <ele>225</ele>
        <time>2020-06-08T08:42:51Z</time>
      </trkpt>
      <trkpt lat="48.07183" lon="-3.78527">
        <ele>225.1</ele>
        <time>2020-06-08T08:42:52Z</time>
      </trkpt>
      <trkpt lat="48.07187" lon="-3.7853">
        <ele>225.1</ele>
        <time>2020-06-08T08:42:53Z</time>
      </trkpt>
      <trkpt lat="48.07191" lon="-3.78532">
        <ele>225.1</ele>
        <time>2020-06-08T08:42:54Z</time>
      </trkpt>
      <trkpt lat="48.07196" lon="-3.78535">
        <ele>225.1</ele>
        <time>2020-06-08T08:42:55Z</time>
      </trkpt>
      <trkpt lat="48.072" lon="-3.78537">
        <ele>225.1</ele>
        <time>2020-06-08T08:42:56Z</time>
      </trkpt>
      <trkpt lat="48.07203" lon="-3.7854">
        <ele>225</ele>
        <time>2020-06-08T08:42:57Z</time>
      </trkpt>
      <trkpt lat="48.07207" lon="-3.78543">
        <ele>225</ele>
        <time>2020-06-08T08:42:58Z</time>
      </trkpt>
      <trkpt lat="48.07211" lon="-3.78545">
        <ele>225</ele>
        <time>2020-06-08T08:42:59Z</time>
      </trkpt>
      <trkpt lat="48.07215" lon="-3.78547">
        <ele>225</ele>
        <time>2020-06-08T08:43:00Z</time>
      </trkpt>
      <trkpt lat="48.07219" lon="-3.78549">
        <ele>225</ele>
        <time>2020-06-08T08:43:01Z</time>
      </trkpt>
      <trkpt lat="48.07223" lon="-3.78552">
        <ele>225</ele>
        <time>2020-06-08T08:43:02Z</time>
      </trkpt>
      <trkpt lat="48.07227" lon="-3.78554">
        <ele>225.1</ele>
        <time>2020-06-08T08:43:03Z</time>
      </trkpt>
      <trkpt lat="48.07231" lon="-3.78557">
        <ele>225.1</ele>
        <time>2020-06-08T08:43:04Z</time>
      </trkpt>
      <trkpt lat="48.07235" lon="-3.7856">
        <ele>225.2</ele>
        <time>2020-06-08T08:43:05Z</time>
      </trkpt>
      <trkpt lat="48.07238" lon="-3.78562">
        <ele>225.2</ele>
        <time>2020-06-08T08:43:06Z</time>
      </trkpt>
      <trkpt lat="48.07242" lon="-3.78564">
        <ele>225.3</ele>
        <time>2020-06-08T08:43:07Z</time>
      </trkpt>
      <trkpt lat="48.07246" lon="-3.78566">
        <ele>225.3</ele>
        <time>2020-06-08T08:43:08Z</time>
      </trkpt>
      <trkpt lat="48.07249" lon="-3.78567">
        <ele>225.4</ele>
        <time>2020-06-08T08:43:09Z</time>
      </trkpt>
      <trkpt lat="48.07253" lon="-3.7857">
        <ele>225.4</ele>
        <time>2020-06-08T08:43:10Z</time>
      </trkpt>
      <trkpt lat="48.07257" lon="-3.78571">
        <ele>225.5</ele>
        <time>2020-06-08T08:43:11Z</time>
      </trkpt>
      <trkpt lat="48.0726" lon="-3.78573">
        <ele>225.5</ele>
        <time>2020-06-08T08:43:12Z</time>
      </trkpt>
      <trkpt lat="48.07264" lon="-3.78576">
        <ele>225.5</ele>
        <time>2020-06-08T08:43:13Z</time>
      </trkpt>
      <trkpt lat="48.07268" lon="-3.78578">
        <ele>225.5</ele>
        <time>2020-06-08T08:43:14Z</time>
      </trkpt>
      <trkpt lat="48.07272" lon="-3.78581">
        <ele>225.4</ele>
        <time>2020-06-08T08:43:15Z</time>
      </trkpt>
      <trkpt lat="48.07276" lon="-3.78584">
        <ele>225.4</ele>
        <time>2020-06-08T08:43:16Z</time>
      </trkpt>
      <trkpt lat="48.07281" lon="-3.78587">
        <ele>225.3</ele>
        <time>2020-06-08T08:43:17Z</time>
      </trkpt>
      <trkpt lat="48.07284" lon="-3.7859">
        <ele>225.2</ele>
        <time>2020-06-08T08:43:18Z</time>
      </trkpt>
      <trkpt lat="48.07288" lon="-3.78593">
        <ele>225.2</ele>
        <time>2020-06-08T08:43:19Z</time>
      </trkpt>
      <trkpt lat="48.07292" lon="-3.78595">
        <ele>225.3</ele>
        <time>2020-06-08T08:43:20Z</time>
      </trkpt>
      <trkpt lat="48.07296" lon="-3.78596">
        <ele>225.3</ele>
        <time>2020-06-08T08:43:21Z</time>
      </trkpt>
      <trkpt lat="48.073" lon="-3.78598">
        <ele>225.4</ele>
        <time>2020-06-08T08:43:22Z</time>
      </trkpt>
      <trkpt lat="48.07303" lon="-3.786">
        <ele>225.4</ele>
        <time>2020-06-08T08:43:23Z</time>
      </trkpt>
      <trkpt lat="48.07307" lon="-3.78603">
        <ele>225.5</ele>
        <time>2020-06-08T08:43:24Z</time>
      </trkpt>
      <trkpt lat="48.0731" lon="-3.78606">
        <ele>225.5</ele>
        <time>2020-06-08T08:43:25Z</time>
      </trkpt>
      <trkpt lat="48.07314" lon="-3.78608">
        <ele>225.6</ele>
        <time>2020-06-08T08:43:26Z</time>
      </trkpt>
      <trkpt lat="48.07318" lon="-3.7861">
        <ele>225.6</ele>
        <time>2020-06-08T08:43:27Z</time>
      </trkpt>
      <trkpt lat="48.07322" lon="-3.78613">
        <ele>225.5</ele>
        <time>2020-06-08T08:43:28Z</time>
      </trkpt>
      <trkpt lat="48.07326" lon="-3.78615">
        <ele>225.5</ele>
        <time>2020-06-08T08:43:29Z</time>
      </trkpt>
      <trkpt lat="48.0733" lon="-3.78617">
        <ele>225.5</ele>
        <time>2020-06-08T08:43:30Z</time>
      </trkpt>
      <trkpt lat="48.07333" lon="-3.7862">
        <ele>225.5</ele>
        <time>2020-06-08T08:43:31Z</time>
      </trkpt>
      <trkpt lat="48.07337" lon="-3.78622">
        <ele>225.5</ele>
        <time>2020-06-08T08:43:32Z</time>
      </trkpt>
      <trkpt lat="48.07341" lon="-3.78624">
        <ele>225.5</ele>
        <time>2020-06-08T08:43:33Z</time>
      </trkpt>
      <trkpt lat="48.07345" lon="-3.78627">
        <ele>225.6</ele>
        <time>2020-06-08T08:43:34Z</time>
      </trkpt>
      <trkpt lat="48.07349" lon="-3.78629">
        <ele>225.6</ele>
        <time>2020-06-08T08:43:35Z</time>
      </trkpt>
      <trkpt lat="48.07353" lon="-3.78631">
        <ele>225.7</ele>
        <time>2020-06-08T08:43:36Z</time>
      </trkpt>
      <trkpt lat="48.07356" lon="-3.78633">
        <ele>225.8</ele>
        <time>2020-06-08T08:43:37Z</time>
      </trkpt>
      <trkpt lat="48.0736" lon="-3.78636">
        <ele>225.8</ele>
        <time>2020-06-08T08:43:38Z</time>
      </trkpt>
      <trkpt lat="48.07363" lon="-3.78637">
        <ele>225.9</ele>
        <time>2020-06-08T08:43:39Z</time>
      </trkpt>
      <trkpt lat="48.07367" lon="-3.7864">
        <ele>226.6</ele>
        <time>2020-06-08T08:43:40Z</time>
      </trkpt>
      <trkpt lat="48.07371" lon="-3.78642">
        <ele>227.2</ele>
        <time>2020-06-08T08:43:41Z</time>
      </trkpt>
      <trkpt lat="48.07374" lon="-3.78643">
        <ele>227.7</ele>
        <time>2020-06-08T08:43:42Z</time>
      </trkpt>
      <trkpt lat="48.07378" lon="-3.78646">
        <ele>228</ele>
        <time>2020-06-08T08:43:43Z</time>
      </trkpt>
      <trkpt lat="48.07382" lon="-3.78648">
        <ele>228.2</ele>
        <time>2020-06-08T08:43:44Z</time>
      </trkpt>
      <trkpt lat="48.07385" lon="-3.7865">
        <ele>228.4</ele>
        <time>2020-06-08T08:43:45Z</time>
      </trkpt>
      <trkpt lat="48.07389" lon="-3.78652">
        <ele>228.5</ele>
        <time>2020-06-08T08:43:46Z</time>
      </trkpt>
      <trkpt lat="48.07391" lon="-3.78656">
        <ele>228.5</ele>
        <time>2020-06-08T08:43:47Z</time>
      </trkpt>
      <trkpt lat="48.07394" lon="-3.78657">
        <ele>228.6</ele>
        <time>2020-06-08T08:43:48Z</time>
      </trkpt>
      <trkpt lat="48.07397" lon="-3.78659">
        <ele>228.7</ele>
        <time>2020-06-08T08:43:49Z</time>
      </trkpt>
      <trkpt lat="48.07401" lon="-3.78659">
        <ele>228.8</ele>
        <time>2020-06-08T08:43:50Z</time>
      </trkpt>
      <trkpt lat="48.07404" lon="-3.78661">
        <ele>228.8</ele>
        <time>2020-06-08T08:43:51Z</time>
      </trkpt>
      <trkpt lat="48.07408" lon="-3.78664">
        <ele>228.9</ele>
        <time>2020-06-08T08:43:52Z</time>
      </trkpt>
      <trkpt lat="48.07412" lon="-3.78666">
        <ele>228.9</ele>
        <time>2020-06-08T08:43:53Z</time>
      </trkpt>
      <trkpt lat="48.07415" lon="-3.78669">
        <ele>228.9</ele>
        <time>2020-06-08T08:43:54Z</time>
      </trkpt>
      <trkpt lat="48.07419" lon="-3.78671">
        <ele>228.9</ele>
        <time>2020-06-08T08:43:55Z</time>
      </trkpt>
      <trkpt lat="48.07422" lon="-3.78673">
        <ele>228.8</ele>
        <time>2020-06-08T08:43:56Z</time>
      </trkpt>
      <trkpt lat="48.07426" lon="-3.78674">
        <ele>228.8</ele>
        <time>2020-06-08T08:43:57Z</time>
      </trkpt>
      <trkpt lat="48.0743" lon="-3.78676">
        <ele>228.7</ele>
        <time>2020-06-08T08:43:58Z</time>
      </trkpt>
      <trkpt lat="48.07433" lon="-3.78678">
        <ele>228.7</ele>
        <time>2020-06-08T08:43:59Z</time>
      </trkpt>
      <trkpt lat="48.07438" lon="-3.7868">
        <ele>228.7</ele>
        <time>2020-06-08T08:44:00Z</time>
      </trkpt>
      <trkpt lat="48.07442" lon="-3.78681">
        <ele>228.7</ele>
        <time>2020-06-08T08:44:01Z</time>
      </trkpt>
      <trkpt lat="48.07446" lon="-3.78683">
        <ele>228.6</ele>
        <time>2020-06-08T08:44:02Z</time>
      </trkpt>
      <trkpt lat="48.0745" lon="-3.78685">
        <ele>228.6</ele>
        <time>2020-06-08T08:44:03Z</time>
      </trkpt>
      <trkpt lat="48.07454" lon="-3.78686">
        <ele>228.6</ele>
        <time>2020-06-08T08:44:04Z</time>
      </trkpt>
      <trkpt lat="48.07457" lon="-3.78687">
        <ele>228.7</ele>
        <time>2020-06-08T08:44:05Z</time>
      </trkpt>
      <trkpt lat="48.07461" lon="-3.78688">
        <ele>228.7</ele>
        <time>2020-06-08T08:44:06Z</time>
      </trkpt>
      <trkpt lat="48.07466" lon="-3.78689">
        <ele>228.7</ele>
        <time>2020-06-08T08:44:07Z</time>
      </trkpt>
      <trkpt lat="48.0747" lon="-3.78691">
        <ele>228.8</ele>
        <time>2020-06-08T08:44:08Z</time>
      </trkpt>
      <trkpt lat="48.07473" lon="-3.78692">
        <ele>228.8</ele>
        <time>2020-06-08T08:44:09Z</time>
      </trkpt>
      <trkpt lat="48.07477" lon="-3.78693">
        <ele>228.8</ele>
        <time>2020-06-08T08:44:10Z</time>
      </trkpt>
      <trkpt lat="48.0748" lon="-3.78693">
        <ele>228.8</ele>
        <time>2020-06-08T08:44:11Z</time>
      </trkpt>
      <trkpt lat="48.07484" lon="-3.78693">
        <ele>228.8</ele>
        <time>2020-06-08T08:44:12Z</time>
      </trkpt>
      <trkpt lat="48.07488" lon="-3.78694">
        <ele>228.8</ele>
        <time>2020-06-08T08:44:13Z</time>
      </trkpt>
      <trkpt lat="48.07492" lon="-3.78694">
        <ele>228.9</ele>
        <time>2020-06-08T08:44:14Z</time>
      </trkpt>
      <trkpt lat="48.07496" lon="-3.78694">
        <ele>228.9</ele>
        <time>2020-06-08T08:44:15Z</time>
      </trkpt>
      <trkpt lat="48.075" lon="-3.78694">
        <ele>229</ele>
        <time>2020-06-08T08:44:16Z</time>
      </trkpt>
      <trkpt lat="48.07503" lon="-3.78694">
        <ele>229.1</ele>
        <time>2020-06-08T08:44:17Z</time>
      </trkpt>
      <trkpt lat="48.07507" lon="-3.78694">
        <ele>229.1</ele>
        <time>2020-06-08T08:44:18Z</time>
      </trkpt>
      <trkpt lat="48.07512" lon="-3.78695">
        <ele>229.2</ele>
        <time>2020-06-08T08:44:19Z</time>
      </trkpt>
      <trkpt lat="48.07516" lon="-3.78695">
        <ele>229.3</ele>
        <time>2020-06-08T08:44:20Z</time>
      </trkpt>
      <trkpt lat="48.0752" lon="-3.78695">
        <ele>229.3</ele>
        <time>2020-06-08T08:44:21Z</time>
      </trkpt>
      <trkpt lat="48.07523" lon="-3.78695">
        <ele>229.3</ele>
        <time>2020-06-08T08:44:22Z</time>
      </trkpt>
      <trkpt lat="48.07527" lon="-3.78694">
        <ele>229.4</ele>
        <time>2020-06-08T08:44:23Z</time>
      </trkpt>
      <trkpt lat="48.07532" lon="-3.78693">
        <ele>229.4</ele>
        <time>2020-06-08T08:44:24Z</time>
      </trkpt>
      <trkpt lat="48.07536" lon="-3.78692">
        <ele>229.4</ele>
        <time>2020-06-08T08:44:25Z</time>
      </trkpt>
      <trkpt lat="48.0754" lon="-3.78692">
        <ele>229.4</ele>
        <time>2020-06-08T08:44:26Z</time>
      </trkpt>
      <trkpt lat="48.07544" lon="-3.78692">
        <ele>229.4</ele>
        <time>2020-06-08T08:44:27Z</time>
      </trkpt>
      <trkpt lat="48.07546" lon="-3.78692">
        <ele>229.4</ele>
        <time>2020-06-08T08:44:28Z</time>
      </trkpt>
      <trkpt lat="48.07549" lon="-3.78693">
        <ele>229.5</ele>
        <time>2020-06-08T08:44:29Z</time>
      </trkpt>
      <trkpt lat="48.07552" lon="-3.78692">
        <ele>229.5</ele>
        <time>2020-06-08T08:44:30Z</time>
      </trkpt>
      <trkpt lat="48.07555" lon="-3.78692">
        <ele>229.6</ele>
        <time>2020-06-08T08:44:31Z</time>
      </trkpt>
      <trkpt lat="48.07559" lon="-3.78692">
        <ele>229.7</ele>
        <time>2020-06-08T08:44:32Z</time>
      </trkpt>
      <trkpt lat="48.07562" lon="-3.78692">
        <ele>229.8</ele>
        <time>2020-06-08T08:44:33Z</time>
      </trkpt>
      <trkpt lat="48.07566" lon="-3.78692">
        <ele>229.9</ele>
        <time>2020-06-08T08:44:34Z</time>
      </trkpt>
      <trkpt lat="48.0757" lon="-3.78692">
        <ele>230</ele>
        <time>2020-06-08T08:44:35Z</time>
      </trkpt>
      <trkpt lat="48.07573" lon="-3.78692">
        <ele>230.1</ele>
        <time>2020-06-08T08:44:36Z</time>
      </trkpt>
      <trkpt lat="48.07577" lon="-3.78693">
        <ele>230.2</ele>
        <time>2020-06-08T08:44:37Z</time>
      </trkpt>
      <trkpt lat="48.07581" lon="-3.78693">
        <ele>230.2</ele>
        <time>2020-06-08T08:44:38Z</time>
      </trkpt>
      <trkpt lat="48.07584" lon="-3.78693">
        <ele>230.3</ele>
        <time>2020-06-08T08:44:39Z</time>
      </trkpt>
      <trkpt lat="48.07588" lon="-3.78693">
        <ele>230.3</ele>
        <time>2020-06-08T08:44:40Z</time>
      </trkpt>
      <trkpt lat="48.07591" lon="-3.78693">
        <ele>230.3</ele>
        <time>2020-06-08T08:44:41Z</time>
      </trkpt>
      <trkpt lat="48.07595" lon="-3.78693">
        <ele>230.4</ele>
        <time>2020-06-08T08:44:42Z</time>
      </trkpt>
      <trkpt lat="48.07598" lon="-3.78692">
        <ele>230.4</ele>
        <time>2020-06-08T08:44:43Z</time>
      </trkpt>
      <trkpt lat="48.07602" lon="-3.78692">
        <ele>230.5</ele>
        <time>2020-06-08T08:44:44Z</time>
      </trkpt>
      <trkpt lat="48.07605" lon="-3.78693">
        <ele>230.5</ele>
        <time>2020-06-08T08:44:45Z</time>
      </trkpt>
      <trkpt lat="48.07608" lon="-3.78692">
        <ele>230.6</ele>
        <time>2020-06-08T08:44:46Z</time>
      </trkpt>
      <trkpt lat="48.07611" lon="-3.78691">
        <ele>230.6</ele>
        <time>2020-06-08T08:44:47Z</time>
      </trkpt>
      <trkpt lat="48.07612" lon="-3.78691">
        <ele>230.6</ele>
        <time>2020-06-08T08:44:48Z</time>
      </trkpt>
      <trkpt lat="48.07616" lon="-3.78691">
        <ele>230.6</ele>
        <time>2020-06-08T08:44:49Z</time>
      </trkpt>
      <trkpt lat="48.07619" lon="-3.78691">
        <ele>230.6</ele>
        <time>2020-06-08T08:44:50Z</time>
      </trkpt>
      <trkpt lat="48.07623" lon="-3.78691">
        <ele>230.6</ele>
        <time>2020-06-08T08:44:51Z</time>
      </trkpt>
      <trkpt lat="48.07626" lon="-3.78691">
        <ele>230.6</ele>
        <time>2020-06-08T08:44:52Z</time>
      </trkpt>
      <trkpt lat="48.07629" lon="-3.78691">
        <ele>230.6</ele>
        <time>2020-06-08T08:44:53Z</time>
      </trkpt>
      <trkpt lat="48.07633" lon="-3.7869">
        <ele>230.6</ele>
        <time>2020-06-08T08:44:54Z</time>
      </trkpt>
      <trkpt lat="48.07637" lon="-3.7869">
        <ele>230.6</ele>
        <time>2020-06-08T08:44:55Z</time>
      </trkpt>
      <trkpt lat="48.07641" lon="-3.7869">
        <ele>230.7</ele>
        <time>2020-06-08T08:44:56Z</time>
      </trkpt>
      <trkpt lat="48.07644" lon="-3.78691">
        <ele>230.7</ele>
        <time>2020-06-08T08:44:57Z</time>
      </trkpt>
      <trkpt lat="48.07648" lon="-3.78691">
        <ele>230.9</ele>
        <time>2020-06-08T08:44:58Z</time>
      </trkpt>
      <trkpt lat="48.07653" lon="-3.78691">
        <ele>231.1</ele>
        <time>2020-06-08T08:44:59Z</time>
      </trkpt>
      <trkpt lat="48.07656" lon="-3.78691">
        <ele>231.2</ele>
        <time>2020-06-08T08:45:00Z</time>
      </trkpt>
      <trkpt lat="48.07658" lon="-3.78692">
        <ele>231.3</ele>
        <time>2020-06-08T08:45:01Z</time>
      </trkpt>
      <trkpt lat="48.07662" lon="-3.78692">
        <ele>231.4</ele>
        <time>2020-06-08T08:45:02Z</time>
      </trkpt>
      <trkpt lat="48.07665" lon="-3.78692">
        <ele>231.5</ele>
        <time>2020-06-08T08:45:03Z</time>
      </trkpt>
      <trkpt lat="48.07669" lon="-3.78692">
        <ele>231.5</ele>
        <time>2020-06-08T08:45:04Z</time>
      </trkpt>
      <trkpt lat="48.07672" lon="-3.78692">
        <ele>231.6</ele>
        <time>2020-06-08T08:45:05Z</time>
      </trkpt>
      <trkpt lat="48.07676" lon="-3.78692">
        <ele>231.6</ele>
        <time>2020-06-08T08:45:06Z</time>
      </trkpt>
      <trkpt lat="48.0768" lon="-3.78692">
        <ele>231.6</ele>
        <time>2020-06-08T08:45:07Z</time>
      </trkpt>
      <trkpt lat="48.07683" lon="-3.78693">
        <ele>231.6</ele>
        <time>2020-06-08T08:45:08Z</time>
      </trkpt>
      <trkpt lat="48.07686" lon="-3.78693">
        <ele>231.6</ele>
        <time>2020-06-08T08:45:09Z</time>
      </trkpt>
      <trkpt lat="48.0769" lon="-3.78693">
        <ele>231.6</ele>
        <time>2020-06-08T08:45:10Z</time>
      </trkpt>
      <trkpt lat="48.07694" lon="-3.78696">
        <ele>231.6</ele>
        <time>2020-06-08T08:45:11Z</time>
      </trkpt>
      <trkpt lat="48.07697" lon="-3.78697">
        <ele>231.6</ele>
        <time>2020-06-08T08:45:12Z</time>
      </trkpt>
      <trkpt lat="48.077" lon="-3.78698">
        <ele>231.6</ele>
        <time>2020-06-08T08:45:13Z</time>
      </trkpt>
      <trkpt lat="48.07703" lon="-3.78698">
        <ele>231.6</ele>
        <time>2020-06-08T08:45:14Z</time>
      </trkpt>
      <trkpt lat="48.07707" lon="-3.78699">
        <ele>231.6</ele>
        <time>2020-06-08T08:45:15Z</time>
      </trkpt>
      <trkpt lat="48.07711" lon="-3.78701">
        <ele>231.7</ele>
        <time>2020-06-08T08:45:16Z</time>
      </trkpt>
      <trkpt lat="48.07715" lon="-3.78704">
        <ele>231.7</ele>
        <time>2020-06-08T08:45:17Z</time>
      </trkpt>
      <trkpt lat="48.07716" lon="-3.78704">
        <ele>231.7</ele>
        <time>2020-06-08T08:45:18Z</time>
      </trkpt>
      <trkpt lat="48.07719" lon="-3.78706">
        <ele>231.8</ele>
        <time>2020-06-08T08:45:19Z</time>
      </trkpt>
      <trkpt lat="48.07722" lon="-3.78707">
        <ele>231.9</ele>
        <time>2020-06-08T08:45:20Z</time>
      </trkpt>
      <trkpt lat="48.07725" lon="-3.78708">
        <ele>231.9</ele>
        <time>2020-06-08T08:45:21Z</time>
      </trkpt>
      <trkpt lat="48.07727" lon="-3.78711">
        <ele>232</ele>
        <time>2020-06-08T08:45:22Z</time>
      </trkpt>
      <trkpt lat="48.0773" lon="-3.78713">
        <ele>232</ele>
        <time>2020-06-08T08:45:23Z</time>
      </trkpt>
      <trkpt lat="48.07733" lon="-3.78715">
        <ele>232.1</ele>
        <time>2020-06-08T08:45:24Z</time>
      </trkpt>
      <trkpt lat="48.07736" lon="-3.78718">
        <ele>232.2</ele>
        <time>2020-06-08T08:45:25Z</time>
      </trkpt>
      <trkpt lat="48.07739" lon="-3.7872">
        <ele>232.2</ele>
        <time>2020-06-08T08:45:26Z</time>
      </trkpt>
      <trkpt lat="48.07742" lon="-3.78722">
        <ele>232.3</ele>
        <time>2020-06-08T08:45:27Z</time>
      </trkpt>
      <trkpt lat="48.07745" lon="-3.78725">
        <ele>232.3</ele>
        <time>2020-06-08T08:45:28Z</time>
      </trkpt>
      <trkpt lat="48.07748" lon="-3.78727">
        <ele>232.3</ele>
        <time>2020-06-08T08:45:29Z</time>
      </trkpt>
      <trkpt lat="48.07751" lon="-3.78729">
        <ele>232.3</ele>
        <time>2020-06-08T08:45:30Z</time>
      </trkpt>
      <trkpt lat="48.07755" lon="-3.7873">
        <ele>232.3</ele>
        <time>2020-06-08T08:45:31Z</time>
      </trkpt>
      <trkpt lat="48.07758" lon="-3.78732">
        <ele>232.2</ele>
        <time>2020-06-08T08:45:32Z</time>
      </trkpt>
      <trkpt lat="48.07762" lon="-3.78734">
        <ele>232.2</ele>
        <time>2020-06-08T08:45:33Z</time>
      </trkpt>
      <trkpt lat="48.07766" lon="-3.78737">
        <ele>232.1</ele>
        <time>2020-06-08T08:45:34Z</time>
      </trkpt>
      <trkpt lat="48.07769" lon="-3.78739">
        <ele>232.1</ele>
        <time>2020-06-08T08:45:35Z</time>
      </trkpt>
      <trkpt lat="48.07773" lon="-3.78741">
        <ele>232.1</ele>
        <time>2020-06-08T08:45:36Z</time>
      </trkpt>
      <trkpt lat="48.07777" lon="-3.78742">
        <ele>232</ele>
        <time>2020-06-08T08:45:37Z</time>
      </trkpt>
      <trkpt lat="48.0778" lon="-3.78743">
        <ele>232</ele>
        <time>2020-06-08T08:45:38Z</time>
      </trkpt>
      <trkpt lat="48.07783" lon="-3.78746">
        <ele>232</ele>
        <time>2020-06-08T08:45:39Z</time>
      </trkpt>
      <trkpt lat="48.07787" lon="-3.78747">
        <ele>232</ele>
        <time>2020-06-08T08:45:40Z</time>
      </trkpt>
      <trkpt lat="48.07791" lon="-3.78749">
        <ele>232.1</ele>
        <time>2020-06-08T08:45:41Z</time>
      </trkpt>
      <trkpt lat="48.07794" lon="-3.78751">
        <ele>232.2</ele>
        <time>2020-06-08T08:45:42Z</time>
      </trkpt>
      <trkpt lat="48.07797" lon="-3.78753">
        <ele>232.2</ele>
        <time>2020-06-08T08:45:43Z</time>
      </trkpt>
      <trkpt lat="48.07801" lon="-3.78756">
        <ele>232.3</ele>
        <time>2020-06-08T08:45:44Z</time>
      </trkpt>
      <trkpt lat="48.07804" lon="-3.78758">
        <ele>232.4</ele>
        <time>2020-06-08T08:45:45Z</time>
      </trkpt>
      <trkpt lat="48.07808" lon="-3.78761">
        <ele>232.4</ele>
        <time>2020-06-08T08:45:46Z</time>
      </trkpt>
      <trkpt lat="48.07812" lon="-3.78763">
        <ele>232.3</ele>
        <time>2020-06-08T08:45:47Z</time>
      </trkpt>
      <trkpt lat="48.07815" lon="-3.78765">
        <ele>232.3</ele>
        <time>2020-06-08T08:45:48Z</time>
      </trkpt>
      <trkpt lat="48.07819" lon="-3.78767">
        <ele>232.3</ele>
        <time>2020-06-08T08:45:49Z</time>
      </trkpt>
      <trkpt lat="48.07822" lon="-3.7877">
        <ele>232.4</ele>
        <time>2020-06-08T08:45:50Z</time>
      </trkpt>
      <trkpt lat="48.07825" lon="-3.78772">
        <ele>232.4</ele>
        <time>2020-06-08T08:45:51Z</time>
      </trkpt>
      <trkpt lat="48.07828" lon="-3.78773">
        <ele>232.5</ele>
        <time>2020-06-08T08:45:52Z</time>
      </trkpt>
      <trkpt lat="48.07832" lon="-3.78774">
        <ele>232.5</ele>
        <time>2020-06-08T08:45:53Z</time>
      </trkpt>
      <trkpt lat="48.07835" lon="-3.78776">
        <ele>232.6</ele>
        <time>2020-06-08T08:45:54Z</time>
      </trkpt>
      <trkpt lat="48.07839" lon="-3.78779">
        <ele>232.7</ele>
        <time>2020-06-08T08:45:55Z</time>
      </trkpt>
      <trkpt lat="48.07842" lon="-3.78781">
        <ele>232.7</ele>
        <time>2020-06-08T08:45:56Z</time>
      </trkpt>
      <trkpt lat="48.07846" lon="-3.78783">
        <ele>232.7</ele>
        <time>2020-06-08T08:45:57Z</time>
      </trkpt>
      <trkpt lat="48.07849" lon="-3.78786">
        <ele>232.8</ele>
        <time>2020-06-08T08:45:58Z</time>
      </trkpt>
      <trkpt lat="48.07853" lon="-3.78789">
        <ele>232.8</ele>
        <time>2020-06-08T08:45:59Z</time>
      </trkpt>
      <trkpt lat="48.07856" lon="-3.78791">
        <ele>232.9</ele>
        <time>2020-06-08T08:46:00Z</time>
      </trkpt>
      <trkpt lat="48.0786" lon="-3.78795">
        <ele>233.1</ele>
        <time>2020-06-08T08:46:01Z</time>
      </trkpt>
      <trkpt lat="48.07863" lon="-3.78798">
        <ele>233.3</ele>
        <time>2020-06-08T08:46:02Z</time>
      </trkpt>
      <trkpt lat="48.07866" lon="-3.788">
        <ele>233.3</ele>
        <time>2020-06-08T08:46:03Z</time>
      </trkpt>
      <trkpt lat="48.07869" lon="-3.78803">
        <ele>233.4</ele>
        <time>2020-06-08T08:46:04Z</time>
      </trkpt>
      <trkpt lat="48.07873" lon="-3.78805">
        <ele>233.5</ele>
        <time>2020-06-08T08:46:05Z</time>
      </trkpt>
      <trkpt lat="48.07876" lon="-3.78807">
        <ele>233.5</ele>
        <time>2020-06-08T08:46:06Z</time>
      </trkpt>
      <trkpt lat="48.07879" lon="-3.78808">
        <ele>233.5</ele>
        <time>2020-06-08T08:46:07Z</time>
      </trkpt>
      <trkpt lat="48.07883" lon="-3.78811">
        <ele>233.6</ele>
        <time>2020-06-08T08:46:08Z</time>
      </trkpt>
      <trkpt lat="48.07886" lon="-3.78813">
        <ele>233.6</ele>
        <time>2020-06-08T08:46:09Z</time>
      </trkpt>
      <trkpt lat="48.0789" lon="-3.78815">
        <ele>233.6</ele>
        <time>2020-06-08T08:46:10Z</time>
      </trkpt>
      <trkpt lat="48.07895" lon="-3.78817">
        <ele>233.6</ele>
        <time>2020-06-08T08:46:11Z</time>
      </trkpt>
      <trkpt lat="48.07898" lon="-3.78818">
        <ele>233.7</ele>
        <time>2020-06-08T08:46:12Z</time>
      </trkpt>
      <trkpt lat="48.07901" lon="-3.78819">
        <ele>233.7</ele>
        <time>2020-06-08T08:46:13Z</time>
      </trkpt>
      <trkpt lat="48.07905" lon="-3.78822">
        <ele>233.7</ele>
        <time>2020-06-08T08:46:14Z</time>
      </trkpt>
      <trkpt lat="48.07909" lon="-3.78824">
        <ele>233.8</ele>
        <time>2020-06-08T08:46:15Z</time>
      </trkpt>
      <trkpt lat="48.07914" lon="-3.78825">
        <ele>233.8</ele>
        <time>2020-06-08T08:46:16Z</time>
      </trkpt>
      <trkpt lat="48.07918" lon="-3.78828">
        <ele>233.9</ele>
        <time>2020-06-08T08:46:17Z</time>
      </trkpt>
      <trkpt lat="48.07921" lon="-3.7883">
        <ele>234</ele>
        <time>2020-06-08T08:46:18Z</time>
      </trkpt>
      <trkpt lat="48.07925" lon="-3.78831">
        <ele>234.1</ele>
        <time>2020-06-08T08:46:19Z</time>
      </trkpt>
      <trkpt lat="48.07928" lon="-3.78832">
        <ele>234.1</ele>
        <time>2020-06-08T08:46:20Z</time>
      </trkpt>
      <trkpt lat="48.0793" lon="-3.78834">
        <ele>234.2</ele>
        <time>2020-06-08T08:46:21Z</time>
      </trkpt>
      <trkpt lat="48.07934" lon="-3.78836">
        <ele>234.3</ele>
        <time>2020-06-08T08:46:22Z</time>
      </trkpt>
      <trkpt lat="48.07938" lon="-3.78837">
        <ele>234.3</ele>
        <time>2020-06-08T08:46:23Z</time>
      </trkpt>
      <trkpt lat="48.07941" lon="-3.78839">
        <ele>234.4</ele>
        <time>2020-06-08T08:46:24Z</time>
      </trkpt>
      <trkpt lat="48.07945" lon="-3.7884">
        <ele>234.4</ele>
        <time>2020-06-08T08:46:25Z</time>
      </trkpt>
      <trkpt lat="48.07948" lon="-3.78841">
        <ele>234.5</ele>
        <time>2020-06-08T08:46:26Z</time>
      </trkpt>
      <trkpt lat="48.07951" lon="-3.78843">
        <ele>234.5</ele>
        <time>2020-06-08T08:46:27Z</time>
      </trkpt>
      <trkpt lat="48.07954" lon="-3.78844">
        <ele>234.6</ele>
        <time>2020-06-08T08:46:28Z</time>
      </trkpt>
      <trkpt lat="48.07958" lon="-3.78845">
        <ele>234.6</ele>
        <time>2020-06-08T08:46:29Z</time>
      </trkpt>
      <trkpt lat="48.07962" lon="-3.78846">
        <ele>234.7</ele>
        <time>2020-06-08T08:46:30Z</time>
      </trkpt>
      <trkpt lat="48.07965" lon="-3.78848">
        <ele>234.7</ele>
        <time>2020-06-08T08:46:31Z</time>
      </trkpt>
      <trkpt lat="48.07968" lon="-3.7885">
        <ele>234.8</ele>
        <time>2020-06-08T08:46:32Z</time>
      </trkpt>
      <trkpt lat="48.07971" lon="-3.78851">
        <ele>234.9</ele>
        <time>2020-06-08T08:46:33Z</time>
      </trkpt>
      <trkpt lat="48.07974" lon="-3.78853">
        <ele>234.9</ele>
        <time>2020-06-08T08:46:34Z</time>
      </trkpt>
      <trkpt lat="48.07977" lon="-3.78854">
        <ele>235</ele>
        <time>2020-06-08T08:46:35Z</time>
      </trkpt>
      <trkpt lat="48.07981" lon="-3.78854">
        <ele>235.1</ele>
        <time>2020-06-08T08:46:36Z</time>
      </trkpt>
      <trkpt lat="48.07984" lon="-3.78856">
        <ele>235.3</ele>
        <time>2020-06-08T08:46:37Z</time>
      </trkpt>
      <trkpt lat="48.07987" lon="-3.78858">
        <ele>235.4</ele>
        <time>2020-06-08T08:46:38Z</time>
      </trkpt>
      <trkpt lat="48.07991" lon="-3.78858">
        <ele>235.5</ele>
        <time>2020-06-08T08:46:39Z</time>
      </trkpt>
      <trkpt lat="48.07995" lon="-3.78858">
        <ele>235.7</ele>
        <time>2020-06-08T08:46:40Z</time>
      </trkpt>
      <trkpt lat="48.07998" lon="-3.78858">
        <ele>235.8</ele>
        <time>2020-06-08T08:46:41Z</time>
      </trkpt>
      <trkpt lat="48.08001" lon="-3.7886">
        <ele>235.9</ele>
        <time>2020-06-08T08:46:42Z</time>
      </trkpt>
      <trkpt lat="48.08005" lon="-3.78862">
        <ele>236</ele>
        <time>2020-06-08T08:46:43Z</time>
      </trkpt>
      <trkpt lat="48.08007" lon="-3.78864">
        <ele>236.1</ele>
        <time>2020-06-08T08:46:44Z</time>
      </trkpt>
      <trkpt lat="48.0801" lon="-3.78866">
        <ele>236.2</ele>
        <time>2020-06-08T08:46:45Z</time>
      </trkpt>
      <trkpt lat="48.08012" lon="-3.78868">
        <ele>236.2</ele>
        <time>2020-06-08T08:46:46Z</time>
      </trkpt>
      <trkpt lat="48.08015" lon="-3.78871">
        <ele>236.4</ele>
        <time>2020-06-08T08:46:47Z</time>
      </trkpt>
      <trkpt lat="48.08018" lon="-3.78873">
        <ele>236.5</ele>
        <time>2020-06-08T08:46:48Z</time>
      </trkpt>
      <trkpt lat="48.0802" lon="-3.78874">
        <ele>236.6</ele>
        <time>2020-06-08T08:46:49Z</time>
      </trkpt>
      <trkpt lat="48.08023" lon="-3.78875">
        <ele>236.7</ele>
        <time>2020-06-08T08:46:50Z</time>
      </trkpt>
      <trkpt lat="48.08025" lon="-3.78877">
        <ele>236.9</ele>
        <time>2020-06-08T08:46:51Z</time>
      </trkpt>
      <trkpt lat="48.08028" lon="-3.78879">
        <ele>237</ele>
        <time>2020-06-08T08:46:52Z</time>
      </trkpt>
      <trkpt lat="48.08032" lon="-3.78882">
        <ele>237.2</ele>
        <time>2020-06-08T08:46:53Z</time>
      </trkpt>
      <trkpt lat="48.08035" lon="-3.78884">
        <ele>237.3</ele>
        <time>2020-06-08T08:46:54Z</time>
      </trkpt>
      <trkpt lat="48.08038" lon="-3.78885">
        <ele>237.5</ele>
        <time>2020-06-08T08:46:55Z</time>
      </trkpt>
      <trkpt lat="48.08043" lon="-3.78887">
        <ele>237.6</ele>
        <time>2020-06-08T08:46:56Z</time>
      </trkpt>
      <trkpt lat="48.08047" lon="-3.78887">
        <ele>237.8</ele>
        <time>2020-06-08T08:46:57Z</time>
      </trkpt>
      <trkpt lat="48.0805" lon="-3.78889">
        <ele>237.9</ele>
        <time>2020-06-08T08:46:58Z</time>
      </trkpt>
      <trkpt lat="48.08053" lon="-3.78892">
        <ele>238.1</ele>
        <time>2020-06-08T08:46:59Z</time>
      </trkpt>
      <trkpt lat="48.08055" lon="-3.78895">
        <ele>238.2</ele>
        <time>2020-06-08T08:47:00Z</time>
      </trkpt>
      <trkpt lat="48.08058" lon="-3.78896">
        <ele>238.3</ele>
        <time>2020-06-08T08:47:01Z</time>
      </trkpt>
      <trkpt lat="48.08062" lon="-3.78898">
        <ele>238.4</ele>
        <time>2020-06-08T08:47:02Z</time>
      </trkpt>
      <trkpt lat="48.08063" lon="-3.78898">
        <ele>238.5</ele>
        <time>2020-06-08T08:47:03Z</time>
      </trkpt>
      <trkpt lat="48.08066" lon="-3.78899">
        <ele>238.6</ele>
        <time>2020-06-08T08:47:04Z</time>
      </trkpt>
      <trkpt lat="48.08069" lon="-3.78901">
        <ele>238.6</ele>
        <time>2020-06-08T08:47:05Z</time>
      </trkpt>
      <trkpt lat="48.08072" lon="-3.78903">
        <ele>238.7</ele>
        <time>2020-06-08T08:47:06Z</time>
      </trkpt>
      <trkpt lat="48.08075" lon="-3.78905">
        <ele>238.8</ele>
        <time>2020-06-08T08:47:07Z</time>
      </trkpt>
      <trkpt lat="48.08078" lon="-3.78906">
        <ele>238.9</ele>
        <time>2020-06-08T08:47:08Z</time>
      </trkpt>
      <trkpt lat="48.08081" lon="-3.78908">
        <ele>239</ele>
        <time>2020-06-08T08:47:09Z</time>
      </trkpt>
      <trkpt lat="48.08085" lon="-3.78909">
        <ele>239.2</ele>
        <time>2020-06-08T08:47:10Z</time>
      </trkpt>
      <trkpt lat="48.08086" lon="-3.7891">
        <ele>239.2</ele>
        <time>2020-06-08T08:47:11Z</time>
      </trkpt>
      <trkpt lat="48.08089" lon="-3.78912">
        <ele>239.4</ele>
        <time>2020-06-08T08:47:12Z</time>
      </trkpt>
      <trkpt lat="48.08091" lon="-3.78914">
        <ele>239.5</ele>
        <time>2020-06-08T08:47:13Z</time>
      </trkpt>
      <trkpt lat="48.08094" lon="-3.78914">
        <ele>239.7</ele>
        <time>2020-06-08T08:47:14Z</time>
      </trkpt>
      <trkpt lat="48.08097" lon="-3.78915">
        <ele>239.9</ele>
        <time>2020-06-08T08:47:15Z</time>
      </trkpt>
      <trkpt lat="48.081" lon="-3.78917">
        <ele>240.1</ele>
        <time>2020-06-08T08:47:16Z</time>
      </trkpt>
      <trkpt lat="48.08102" lon="-3.78919">
        <ele>240.3</ele>
        <time>2020-06-08T08:47:17Z</time>
      </trkpt>
      <trkpt lat="48.08105" lon="-3.78921">
        <ele>240.5</ele>
        <time>2020-06-08T08:47:18Z</time>
      </trkpt>
      <trkpt lat="48.08108" lon="-3.78923">
        <ele>240.7</ele>
        <time>2020-06-08T08:47:19Z</time>
      </trkpt>
      <trkpt lat="48.08111" lon="-3.78925">
        <ele>240.9</ele>
        <time>2020-06-08T08:47:20Z</time>
      </trkpt>
      <trkpt lat="48.08113" lon="-3.78927">
        <ele>241.1</ele>
        <time>2020-06-08T08:47:21Z</time>
      </trkpt>
      <trkpt lat="48.08116" lon="-3.7893">
        <ele>241.3</ele>
        <time>2020-06-08T08:47:22Z</time>
      </trkpt>
      <trkpt lat="48.08119" lon="-3.78933">
        <ele>241.6</ele>
        <time>2020-06-08T08:47:23Z</time>
      </trkpt>
      <trkpt lat="48.0812" lon="-3.78934">
        <ele>241.7</ele>
        <time>2020-06-08T08:47:24Z</time>
      </trkpt>
      <trkpt lat="48.08122" lon="-3.78937">
        <ele>241.9</ele>
        <time>2020-06-08T08:47:25Z</time>
      </trkpt>
      <trkpt lat="48.08125" lon="-3.78939">
        <ele>242.2</ele>
        <time>2020-06-08T08:47:26Z</time>
      </trkpt>
      <trkpt lat="48.08127" lon="-3.78941">
        <ele>242.4</ele>
        <time>2020-06-08T08:47:27Z</time>
      </trkpt>
      <trkpt lat="48.0813" lon="-3.78943">
        <ele>242.7</ele>
        <time>2020-06-08T08:47:28Z</time>
      </trkpt>
      <trkpt lat="48.08131" lon="-3.78944">
        <ele>242.8</ele>
        <time>2020-06-08T08:47:29Z</time>
      </trkpt>
      <trkpt lat="48.08134" lon="-3.78946">
        <ele>243.1</ele>
        <time>2020-06-08T08:47:30Z</time>
      </trkpt>
      <trkpt lat="48.08136" lon="-3.78949">
        <ele>243.3</ele>
        <time>2020-06-08T08:47:31Z</time>
      </trkpt>
      <trkpt lat="48.08137" lon="-3.7895">
        <ele>243.4</ele>
        <time>2020-06-08T08:47:32Z</time>
      </trkpt>
      <trkpt lat="48.0814" lon="-3.78952">
        <ele>243.6</ele>
        <time>2020-06-08T08:47:33Z</time>
      </trkpt>
      <trkpt lat="48.08141" lon="-3.78952">
        <ele>243.7</ele>
        <time>2020-06-08T08:47:34Z</time>
      </trkpt>
      <trkpt lat="48.08143" lon="-3.78955">
        <ele>243.9</ele>
        <time>2020-06-08T08:47:35Z</time>
      </trkpt>
      <trkpt lat="48.08144" lon="-3.78956">
        <ele>244</ele>
        <time>2020-06-08T08:47:36Z</time>
      </trkpt>
      <trkpt lat="48.08145" lon="-3.78959">
        <ele>244.2</ele>
        <time>2020-06-08T08:47:37Z</time>
      </trkpt>
      <trkpt lat="48.08149" lon="-3.7896">
        <ele>244.4</ele>
        <time>2020-06-08T08:47:38Z</time>
      </trkpt>
      <trkpt lat="48.0815" lon="-3.78959">
        <ele>244.5</ele>
        <time>2020-06-08T08:47:39Z</time>
      </trkpt>
      <trkpt lat="48.08154" lon="-3.78958">
        <ele>244.7</ele>
        <time>2020-06-08T08:47:40Z</time>
      </trkpt>
      <trkpt lat="48.08157" lon="-3.78959">
        <ele>245</ele>
        <time>2020-06-08T08:47:41Z</time>
      </trkpt>
      <trkpt lat="48.08159" lon="-3.78959">
        <ele>245.1</ele>
        <time>2020-06-08T08:47:42Z</time>
      </trkpt>
      <trkpt lat="48.08162" lon="-3.78962">
        <ele>245.3</ele>
        <time>2020-06-08T08:47:43Z</time>
      </trkpt>
      <trkpt lat="48.08164" lon="-3.78963">
        <ele>245.4</ele>
        <time>2020-06-08T08:47:44Z</time>
      </trkpt>
      <trkpt lat="48.08167" lon="-3.78964">
        <ele>245.6</ele>
        <time>2020-06-08T08:47:45Z</time>
      </trkpt>
      <trkpt lat="48.08169" lon="-3.78966">
        <ele>245.7</ele>
        <time>2020-06-08T08:47:46Z</time>
      </trkpt>
      <trkpt lat="48.08172" lon="-3.78968">
        <ele>245.8</ele>
        <time>2020-06-08T08:47:47Z</time>
      </trkpt>
      <trkpt lat="48.08174" lon="-3.78969">
        <ele>245.9</ele>
        <time>2020-06-08T08:47:48Z</time>
      </trkpt>
      <trkpt lat="48.08177" lon="-3.7897">
        <ele>246</ele>
        <time>2020-06-08T08:47:49Z</time>
      </trkpt>
      <trkpt lat="48.08179" lon="-3.7897">
        <ele>246</ele>
        <time>2020-06-08T08:47:50Z</time>
      </trkpt>
      <trkpt lat="48.08182" lon="-3.78972">
        <ele>246.1</ele>
        <time>2020-06-08T08:47:51Z</time>
      </trkpt>
      <trkpt lat="48.08185" lon="-3.78974">
        <ele>246.2</ele>
        <time>2020-06-08T08:47:52Z</time>
      </trkpt>
      <trkpt lat="48.08187" lon="-3.78975">
        <ele>246.2</ele>
        <time>2020-06-08T08:47:53Z</time>
      </trkpt>
      <trkpt lat="48.0819" lon="-3.78978">
        <ele>246.2</ele>
        <time>2020-06-08T08:47:54Z</time>
      </trkpt>
      <trkpt lat="48.08193" lon="-3.78979">
        <ele>246.2</ele>
        <time>2020-06-08T08:47:55Z</time>
      </trkpt>
      <trkpt lat="48.08196" lon="-3.7898">
        <ele>246.2</ele>
        <time>2020-06-08T08:47:56Z</time>
      </trkpt>
      <trkpt lat="48.08199" lon="-3.78981">
        <ele>246.2</ele>
        <time>2020-06-08T08:47:57Z</time>
      </trkpt>
      <trkpt lat="48.08201" lon="-3.78982">
        <ele>246.1</ele>
        <time>2020-06-08T08:47:58Z</time>
      </trkpt>
      <trkpt lat="48.08205" lon="-3.78985">
        <ele>246.1</ele>
        <time>2020-06-08T08:47:59Z</time>
      </trkpt>
      <trkpt lat="48.08208" lon="-3.78986">
        <ele>246.1</ele>
        <time>2020-06-08T08:48:00Z</time>
      </trkpt>
      <trkpt lat="48.08211" lon="-3.78988">
        <ele>246</ele>
        <time>2020-06-08T08:48:01Z</time>
      </trkpt>
      <trkpt lat="48.08214" lon="-3.78989">
        <ele>246</ele>
        <time>2020-06-08T08:48:02Z</time>
      </trkpt>
      <trkpt lat="48.08218" lon="-3.78991">
        <ele>245.9</ele>
        <time>2020-06-08T08:48:03Z</time>
      </trkpt>
      <trkpt lat="48.08221" lon="-3.78992">
        <ele>245.9</ele>
        <time>2020-06-08T08:48:04Z</time>
      </trkpt>
      <trkpt lat="48.08224" lon="-3.78994">
        <ele>245.9</ele>
        <time>2020-06-08T08:48:05Z</time>
      </trkpt>
      <trkpt lat="48.08228" lon="-3.78997">
        <ele>245.9</ele>
        <time>2020-06-08T08:48:06Z</time>
      </trkpt>
      <trkpt lat="48.08231" lon="-3.78999">
        <ele>245.9</ele>
        <time>2020-06-08T08:48:07Z</time>
      </trkpt>
      <trkpt lat="48.08234" lon="-3.79001">
        <ele>245.9</ele>
        <time>2020-06-08T08:48:08Z</time>
      </trkpt>
      <trkpt lat="48.08238" lon="-3.79003">
        <ele>245.9</ele>
        <time>2020-06-08T08:48:09Z</time>
      </trkpt>
      <trkpt lat="48.08239" lon="-3.79004">
        <ele>245.9</ele>
        <time>2020-06-08T08:48:10Z</time>
      </trkpt>
      <trkpt lat="48.08243" lon="-3.79003">
        <ele>246</ele>
        <time>2020-06-08T08:48:11Z</time>
      </trkpt>
      <trkpt lat="48.08246" lon="-3.79003">
        <ele>246</ele>
        <time>2020-06-08T08:48:12Z</time>
      </trkpt>
      <trkpt lat="48.08249" lon="-3.79001">
        <ele>246</ele>
        <time>2020-06-08T08:48:13Z</time>
      </trkpt>
      <trkpt lat="48.08251" lon="-3.78999">
        <ele>246</ele>
        <time>2020-06-08T08:48:14Z</time>
      </trkpt>
      <trkpt lat="48.08253" lon="-3.78996">
        <ele>246</ele>
        <time>2020-06-08T08:48:15Z</time>
      </trkpt>
      <trkpt lat="48.08255" lon="-3.78992">
        <ele>246</ele>
        <time>2020-06-08T08:48:16Z</time>
      </trkpt>
      <trkpt lat="48.08258" lon="-3.78988">
        <ele>246</ele>
        <time>2020-06-08T08:48:17Z</time>
      </trkpt>
      <trkpt lat="48.0826" lon="-3.78984">
        <ele>246</ele>
        <time>2020-06-08T08:48:18Z</time>
      </trkpt>
      <trkpt lat="48.08262" lon="-3.7898">
        <ele>246</ele>
        <time>2020-06-08T08:48:19Z</time>
      </trkpt>
      <trkpt lat="48.08264" lon="-3.78977">
        <ele>246</ele>
        <time>2020-06-08T08:48:20Z</time>
      </trkpt>
      <trkpt lat="48.08266" lon="-3.78972">
        <ele>246</ele>
        <time>2020-06-08T08:48:21Z</time>
      </trkpt>
      <trkpt lat="48.08268" lon="-3.78968">
        <ele>246</ele>
        <time>2020-06-08T08:48:22Z</time>
      </trkpt>
      <trkpt lat="48.08271" lon="-3.78965">
        <ele>245.9</ele>
        <time>2020-06-08T08:48:23Z</time>
      </trkpt>
      <trkpt lat="48.08273" lon="-3.78961">
        <ele>245.9</ele>
        <time>2020-06-08T08:48:24Z</time>
      </trkpt>
      <trkpt lat="48.08276" lon="-3.78957">
        <ele>245.9</ele>
        <time>2020-06-08T08:48:25Z</time>
      </trkpt>
      <trkpt lat="48.08279" lon="-3.78954">
        <ele>245.9</ele>
        <time>2020-06-08T08:48:26Z</time>
      </trkpt>
      <trkpt lat="48.08282" lon="-3.7895">
        <ele>245.9</ele>
        <time>2020-06-08T08:48:27Z</time>
      </trkpt>
      <trkpt lat="48.08285" lon="-3.78945">
        <ele>245.9</ele>
        <time>2020-06-08T08:48:28Z</time>
      </trkpt>
      <trkpt lat="48.08287" lon="-3.78943">
        <ele>245.9</ele>
        <time>2020-06-08T08:48:29Z</time>
      </trkpt>
      <trkpt lat="48.0829" lon="-3.78939">
        <ele>245.9</ele>
        <time>2020-06-08T08:48:30Z</time>
      </trkpt>
      <trkpt lat="48.08293" lon="-3.78936">
        <ele>245.9</ele>
        <time>2020-06-08T08:48:31Z</time>
      </trkpt>
      <trkpt lat="48.08295" lon="-3.78932">
        <ele>245.9</ele>
        <time>2020-06-08T08:48:32Z</time>
      </trkpt>
      <trkpt lat="48.08298" lon="-3.78929">
        <ele>245.9</ele>
        <time>2020-06-08T08:48:33Z</time>
      </trkpt>
      <trkpt lat="48.083" lon="-3.78924">
        <ele>245.9</ele>
        <time>2020-06-08T08:48:34Z</time>
      </trkpt>
      <trkpt lat="48.08303" lon="-3.78919">
        <ele>245.9</ele>
        <time>2020-06-08T08:48:35Z</time>
      </trkpt>
      <trkpt lat="48.08306" lon="-3.78915">
        <ele>245.9</ele>
        <time>2020-06-08T08:48:36Z</time>
      </trkpt>
      <trkpt lat="48.08309" lon="-3.7891">
        <ele>245.9</ele>
        <time>2020-06-08T08:48:37Z</time>
      </trkpt>
      <trkpt lat="48.08312" lon="-3.78907">
        <ele>245.8</ele>
        <time>2020-06-08T08:48:38Z</time>
      </trkpt>
      <trkpt lat="48.08315" lon="-3.78903">
        <ele>245.8</ele>
        <time>2020-06-08T08:48:39Z</time>
      </trkpt>
      <trkpt lat="48.08317" lon="-3.78899">
        <ele>245.8</ele>
        <time>2020-06-08T08:48:40Z</time>
      </trkpt>
      <trkpt lat="48.0832" lon="-3.78895">
        <ele>245.7</ele>
        <time>2020-06-08T08:48:41Z</time>
      </trkpt>
      <trkpt lat="48.08322" lon="-3.78892">
        <ele>245.7</ele>
        <time>2020-06-08T08:48:42Z</time>
      </trkpt>
      <trkpt lat="48.08325" lon="-3.78887">
        <ele>245.7</ele>
        <time>2020-06-08T08:48:43Z</time>
      </trkpt>
      <trkpt lat="48.08328" lon="-3.78883">
        <ele>245.7</ele>
        <time>2020-06-08T08:48:44Z</time>
      </trkpt>
      <trkpt lat="48.08331" lon="-3.78878">
        <ele>245.6</ele>
        <time>2020-06-08T08:48:45Z</time>
      </trkpt>
      <trkpt lat="48.08334" lon="-3.78873">
        <ele>245.6</ele>
        <time>2020-06-08T08:48:46Z</time>
      </trkpt>
      <trkpt lat="48.08336" lon="-3.78868">
        <ele>245.5</ele>
        <time>2020-06-08T08:48:47Z</time>
      </trkpt>
      <trkpt lat="48.08339" lon="-3.78863">
        <ele>245.5</ele>
        <time>2020-06-08T08:48:48Z</time>
      </trkpt>
      <trkpt lat="48.08343" lon="-3.78858">
        <ele>245.4</ele>
        <time>2020-06-08T08:48:49Z</time>
      </trkpt>
      <trkpt lat="48.08346" lon="-3.78852">
        <ele>245.3</ele>
        <time>2020-06-08T08:48:50Z</time>
      </trkpt>
      <trkpt lat="48.08349" lon="-3.78847">
        <ele>245.2</ele>
        <time>2020-06-08T08:48:51Z</time>
      </trkpt>
      <trkpt lat="48.08351" lon="-3.78841">
        <ele>245.1</ele>
        <time>2020-06-08T08:48:52Z</time>
      </trkpt>
      <trkpt lat="48.08354" lon="-3.78836">
        <ele>244.9</ele>
        <time>2020-06-08T08:48:53Z</time>
      </trkpt>
      <trkpt lat="48.08357" lon="-3.78831">
        <ele>244.8</ele>
        <time>2020-06-08T08:48:54Z</time>
      </trkpt>
      <trkpt lat="48.0836" lon="-3.78825">
        <ele>244.8</ele>
        <time>2020-06-08T08:48:55Z</time>
      </trkpt>
      <trkpt lat="48.08364" lon="-3.78819">
        <ele>244.7</ele>
        <time>2020-06-08T08:48:56Z</time>
      </trkpt>
      <trkpt lat="48.08367" lon="-3.78814">
        <ele>244.6</ele>
        <time>2020-06-08T08:48:57Z</time>
      </trkpt>
      <trkpt lat="48.08371" lon="-3.78808">
        <ele>244.5</ele>
        <time>2020-06-08T08:48:58Z</time>
      </trkpt>
      <trkpt lat="48.08374" lon="-3.78802">
        <ele>244.4</ele>
        <time>2020-06-08T08:48:59Z</time>
      </trkpt>
      <trkpt lat="48.08378" lon="-3.78796">
        <ele>244.3</ele>
        <time>2020-06-08T08:49:00Z</time>
      </trkpt>
      <trkpt lat="48.08382" lon="-3.78793">
        <ele>244.2</ele>
        <time>2020-06-08T08:49:01Z</time>
      </trkpt>
      <trkpt lat="48.08386" lon="-3.78794">
        <ele>244.1</ele>
        <time>2020-06-08T08:49:02Z</time>
      </trkpt>
      <trkpt lat="48.08389" lon="-3.78797">
        <ele>243.9</ele>
        <time>2020-06-08T08:49:03Z</time>
      </trkpt>
      <trkpt lat="48.08392" lon="-3.788">
        <ele>243.7</ele>
        <time>2020-06-08T08:49:04Z</time>
      </trkpt>
      <trkpt lat="48.08395" lon="-3.78805">
        <ele>243.5</ele>
        <time>2020-06-08T08:49:05Z</time>
      </trkpt>
      <trkpt lat="48.08398" lon="-3.78808">
        <ele>243.4</ele>
        <time>2020-06-08T08:49:06Z</time>
      </trkpt>
      <trkpt lat="48.08401" lon="-3.7881">
        <ele>243.2</ele>
        <time>2020-06-08T08:49:07Z</time>
      </trkpt>
      <trkpt lat="48.08403" lon="-3.78812">
        <ele>243.1</ele>
        <time>2020-06-08T08:49:08Z</time>
      </trkpt>
      <trkpt lat="48.08406" lon="-3.78815">
        <ele>242.9</ele>
        <time>2020-06-08T08:49:09Z</time>
      </trkpt>
      <trkpt lat="48.0841" lon="-3.78819">
        <ele>242.7</ele>
        <time>2020-06-08T08:49:10Z</time>
      </trkpt>
      <trkpt lat="48.08414" lon="-3.78822">
        <ele>242.4</ele>
        <time>2020-06-08T08:49:11Z</time>
      </trkpt>
      <trkpt lat="48.08419" lon="-3.78825">
        <ele>242.2</ele>
        <time>2020-06-08T08:49:12Z</time>
      </trkpt>
      <trkpt lat="48.08423" lon="-3.78827">
        <ele>241.9</ele>
        <time>2020-06-08T08:49:13Z</time>
      </trkpt>
      <trkpt lat="48.08428" lon="-3.78828">
        <ele>241.6</ele>
        <time>2020-06-08T08:49:14Z</time>
      </trkpt>
      <trkpt lat="48.08432" lon="-3.78831">
        <ele>241.3</ele>
        <time>2020-06-08T08:49:15Z</time>
      </trkpt>
      <trkpt lat="48.08437" lon="-3.78834">
        <ele>241</ele>
        <time>2020-06-08T08:49:16Z</time>
      </trkpt>
      <trkpt lat="48.08442" lon="-3.78836">
        <ele>240.7</ele>
        <time>2020-06-08T08:49:17Z</time>
      </trkpt>
      <trkpt lat="48.08447" lon="-3.78838">
        <ele>240.4</ele>
        <time>2020-06-08T08:49:18Z</time>
      </trkpt>
      <trkpt lat="48.08454" lon="-3.78839">
        <ele>240</ele>
        <time>2020-06-08T08:49:19Z</time>
      </trkpt>
      <trkpt lat="48.08461" lon="-3.78842">
        <ele>239.6</ele>
        <time>2020-06-08T08:49:20Z</time>
      </trkpt>
      <trkpt lat="48.08469" lon="-3.78843">
        <ele>239.1</ele>
        <time>2020-06-08T08:49:21Z</time>
      </trkpt>
      <trkpt lat="48.08479" lon="-3.78849">
        <ele>238.3</ele>
        <time>2020-06-08T08:49:22Z</time>
      </trkpt>
      <trkpt lat="48.08488" lon="-3.78852">
        <ele>237.6</ele>
        <time>2020-06-08T08:49:23Z</time>
      </trkpt>
      <trkpt lat="48.08497" lon="-3.78855">
        <ele>236.3</ele>
        <time>2020-06-08T08:49:24Z</time>
      </trkpt>
      <trkpt lat="48.08506" lon="-3.78858">
        <ele>235.4</ele>
        <time>2020-06-08T08:49:25Z</time>
      </trkpt>
      <trkpt lat="48.08516" lon="-3.78861">
        <ele>234.4</ele>
        <time>2020-06-08T08:49:26Z</time>
      </trkpt>
      <trkpt lat="48.08526" lon="-3.78863">
        <ele>233.5</ele>
        <time>2020-06-08T08:49:27Z</time>
      </trkpt>
      <trkpt lat="48.08536" lon="-3.78866">
        <ele>232.4</ele>
        <time>2020-06-08T08:49:28Z</time>
      </trkpt>
      <trkpt lat="48.08546" lon="-3.78868">
        <ele>231.4</ele>
        <time>2020-06-08T08:49:29Z</time>
      </trkpt>
      <trkpt lat="48.08556" lon="-3.78868">
        <ele>230.4</ele>
        <time>2020-06-08T08:49:30Z</time>
      </trkpt>
      <trkpt lat="48.08567" lon="-3.78868">
        <ele>229.5</ele>
        <time>2020-06-08T08:49:31Z</time>
      </trkpt>
      <trkpt lat="48.08578" lon="-3.78867">
        <ele>228.5</ele>
        <time>2020-06-08T08:49:32Z</time>
      </trkpt>
      <trkpt lat="48.08588" lon="-3.78868">
        <ele>227.6</ele>
        <time>2020-06-08T08:49:33Z</time>
      </trkpt>
      <trkpt lat="48.086" lon="-3.78867">
        <ele>226.7</ele>
        <time>2020-06-08T08:49:34Z</time>
      </trkpt>
      <trkpt lat="48.08611" lon="-3.78865">
        <ele>225.7</ele>
        <time>2020-06-08T08:49:35Z</time>
      </trkpt>
      <trkpt lat="48.08623" lon="-3.78863">
        <ele>224.8</ele>
        <time>2020-06-08T08:49:36Z</time>
      </trkpt>
      <trkpt lat="48.08635" lon="-3.7886">
        <ele>223.9</ele>
        <time>2020-06-08T08:49:37Z</time>
      </trkpt>
      <trkpt lat="48.08647" lon="-3.78857">
        <ele>222.9</ele>
        <time>2020-06-08T08:49:38Z</time>
      </trkpt>
      <trkpt lat="48.0866" lon="-3.78854">
        <ele>221.9</ele>
        <time>2020-06-08T08:49:39Z</time>
      </trkpt>
      <trkpt lat="48.08672" lon="-3.78851">
        <ele>221</ele>
        <time>2020-06-08T08:49:40Z</time>
      </trkpt>
      <trkpt lat="48.08684" lon="-3.78847">
        <ele>220.3</ele>
        <time>2020-06-08T08:49:41Z</time>
      </trkpt>
      <trkpt lat="48.08695" lon="-3.78843">
        <ele>219.6</ele>
        <time>2020-06-08T08:49:42Z</time>
      </trkpt>
      <trkpt lat="48.08707" lon="-3.78838">
        <ele>218.9</ele>
        <time>2020-06-08T08:49:43Z</time>
      </trkpt>
      <trkpt lat="48.08719" lon="-3.78835">
        <ele>218.2</ele>
        <time>2020-06-08T08:49:44Z</time>
      </trkpt>
      <trkpt lat="48.0873" lon="-3.78831">
        <ele>217.6</ele>
        <time>2020-06-08T08:49:45Z</time>
      </trkpt>
      <trkpt lat="48.08742" lon="-3.78827">
        <ele>217</ele>
        <time>2020-06-08T08:49:46Z</time>
      </trkpt>
      <trkpt lat="48.08754" lon="-3.78823">
        <ele>216.5</ele>
        <time>2020-06-08T08:49:47Z</time>
      </trkpt>
      <trkpt lat="48.08765" lon="-3.78819">
        <ele>216</ele>
        <time>2020-06-08T08:49:48Z</time>
      </trkpt>
      <trkpt lat="48.08777" lon="-3.78815">
        <ele>215.5</ele>
        <time>2020-06-08T08:49:49Z</time>
      </trkpt>
      <trkpt lat="48.08789" lon="-3.78811">
        <ele>215</ele>
        <time>2020-06-08T08:49:50Z</time>
      </trkpt>
      <trkpt lat="48.08801" lon="-3.78808">
        <ele>214.4</ele>
        <time>2020-06-08T08:49:51Z</time>
      </trkpt>
      <trkpt lat="48.08812" lon="-3.78804">
        <ele>213.9</ele>
        <time>2020-06-08T08:49:52Z</time>
      </trkpt>
      <trkpt lat="48.08824" lon="-3.788">
        <ele>213.4</ele>
        <time>2020-06-08T08:49:53Z</time>
      </trkpt>
      <trkpt lat="48.08836" lon="-3.78797">
        <ele>212.8</ele>
        <time>2020-06-08T08:49:54Z</time>
      </trkpt>
      <trkpt lat="48.08847" lon="-3.78793">
        <ele>211.7</ele>
        <time>2020-06-08T08:49:55Z</time>
      </trkpt>
      <trkpt lat="48.08859" lon="-3.78788">
        <ele>211</ele>
        <time>2020-06-08T08:49:56Z</time>
      </trkpt>
      <trkpt lat="48.08871" lon="-3.78783">
        <ele>210.4</ele>
        <time>2020-06-08T08:49:57Z</time>
      </trkpt>
      <trkpt lat="48.08882" lon="-3.78777">
        <ele>209.9</ele>
        <time>2020-06-08T08:49:58Z</time>
      </trkpt>
      <trkpt lat="48.08893" lon="-3.78769">
        <ele>209.4</ele>
        <time>2020-06-08T08:49:59Z</time>
      </trkpt>
      <trkpt lat="48.08904" lon="-3.78761">
        <ele>209</ele>
        <time>2020-06-08T08:50:00Z</time>
      </trkpt>
      <trkpt lat="48.08914" lon="-3.78751">
        <ele>208.6</ele>
        <time>2020-06-08T08:50:01Z</time>
      </trkpt>
      <trkpt lat="48.08924" lon="-3.78741">
        <ele>208.1</ele>
        <time>2020-06-08T08:50:02Z</time>
      </trkpt>
      <trkpt lat="48.08934" lon="-3.78733">
        <ele>207.6</ele>
        <time>2020-06-08T08:50:03Z</time>
      </trkpt>
      <trkpt lat="48.08945" lon="-3.78727">
        <ele>207.1</ele>
        <time>2020-06-08T08:50:04Z</time>
      </trkpt>
      <trkpt lat="48.08956" lon="-3.78722">
        <ele>206.4</ele>
        <time>2020-06-08T08:50:05Z</time>
      </trkpt>
      <trkpt lat="48.08966" lon="-3.78716">
        <ele>205.8</ele>
        <time>2020-06-08T08:50:06Z</time>
      </trkpt>
      <trkpt lat="48.08978" lon="-3.78713">
        <ele>205.2</ele>
        <time>2020-06-08T08:50:07Z</time>
      </trkpt>
      <trkpt lat="48.08989" lon="-3.7871">
        <ele>204.5</ele>
        <time>2020-06-08T08:50:08Z</time>
      </trkpt>
      <trkpt lat="48.09001" lon="-3.78709">
        <ele>203.8</ele>
        <time>2020-06-08T08:50:09Z</time>
      </trkpt>
      <trkpt lat="48.09014" lon="-3.7871">
        <ele>203.2</ele>
        <time>2020-06-08T08:50:10Z</time>
      </trkpt>
      <trkpt lat="48.09026" lon="-3.78711">
        <ele>202.5</ele>
        <time>2020-06-08T08:50:11Z</time>
      </trkpt>
      <trkpt lat="48.09038" lon="-3.78713">
        <ele>201.7</ele>
        <time>2020-06-08T08:50:12Z</time>
      </trkpt>
      <trkpt lat="48.09052" lon="-3.78714">
        <ele>200.7</ele>
        <time>2020-06-08T08:50:13Z</time>
      </trkpt>
      <trkpt lat="48.09065" lon="-3.78715">
        <ele>199.7</ele>
        <time>2020-06-08T08:50:14Z</time>
      </trkpt>
      <trkpt lat="48.09078" lon="-3.78715">
        <ele>198.5</ele>
        <time>2020-06-08T08:50:15Z</time>
      </trkpt>
      <trkpt lat="48.09092" lon="-3.78714">
        <ele>197</ele>
        <time>2020-06-08T08:50:16Z</time>
      </trkpt>
      <trkpt lat="48.09106" lon="-3.78713">
        <ele>195.4</ele>
        <time>2020-06-08T08:50:17Z</time>
      </trkpt>
      <trkpt lat="48.0912" lon="-3.78711">
        <ele>193.8</ele>
        <time>2020-06-08T08:50:18Z</time>
      </trkpt>
      <trkpt lat="48.09134" lon="-3.78706">
        <ele>192.2</ele>
        <time>2020-06-08T08:50:19Z</time>
      </trkpt>
      <trkpt lat="48.09148" lon="-3.78701">
        <ele>190.7</ele>
        <time>2020-06-08T08:50:20Z</time>
      </trkpt>
      <trkpt lat="48.09163" lon="-3.78695">
        <ele>189.2</ele>
        <time>2020-06-08T08:50:21Z</time>
      </trkpt>
      <trkpt lat="48.09177" lon="-3.78689">
        <ele>187.8</ele>
        <time>2020-06-08T08:50:22Z</time>
      </trkpt>
      <trkpt lat="48.09191" lon="-3.78683">
        <ele>186.4</ele>
        <time>2020-06-08T08:50:23Z</time>
      </trkpt>
      <trkpt lat="48.09206" lon="-3.78677">
        <ele>184.8</ele>
        <time>2020-06-08T08:50:24Z</time>
      </trkpt>
      <trkpt lat="48.09221" lon="-3.78672">
        <ele>183.5</ele>
        <time>2020-06-08T08:50:25Z</time>
      </trkpt>
      <trkpt lat="48.09236" lon="-3.78667">
        <ele>182.1</ele>
        <time>2020-06-08T08:50:26Z</time>
      </trkpt>
      <trkpt lat="48.09251" lon="-3.78661">
        <ele>180.7</ele>
        <time>2020-06-08T08:50:27Z</time>
      </trkpt>
      <trkpt lat="48.09266" lon="-3.78656">
        <ele>179.3</ele>
        <time>2020-06-08T08:50:28Z</time>
      </trkpt>
      <trkpt lat="48.09281" lon="-3.7865">
        <ele>178</ele>
        <time>2020-06-08T08:50:29Z</time>
      </trkpt>
      <trkpt lat="48.09296" lon="-3.78644">
        <ele>176.5</ele>
        <time>2020-06-08T08:50:30Z</time>
      </trkpt>
      <trkpt lat="48.09312" lon="-3.78637">
        <ele>175.1</ele>
        <time>2020-06-08T08:50:31Z</time>
      </trkpt>
      <trkpt lat="48.0933" lon="-3.78631">
        <ele>173.4</ele>
        <time>2020-06-08T08:50:32Z</time>
      </trkpt>
      <trkpt lat="48.09346" lon="-3.78627">
        <ele>172</ele>
        <time>2020-06-08T08:50:33Z</time>
      </trkpt>
      <trkpt lat="48.09361" lon="-3.78626">
        <ele>170.5</ele>
        <time>2020-06-08T08:50:34Z</time>
      </trkpt>
      <trkpt lat="48.09376" lon="-3.78623">
        <ele>169.1</ele>
        <time>2020-06-08T08:50:35Z</time>
      </trkpt>
      <trkpt lat="48.09391" lon="-3.78626">
        <ele>167.8</ele>
        <time>2020-06-08T08:50:36Z</time>
      </trkpt>
      <trkpt lat="48.09406" lon="-3.78629">
        <ele>166.6</ele>
        <time>2020-06-08T08:50:37Z</time>
      </trkpt>
      <trkpt lat="48.0942" lon="-3.78633">
        <ele>165.5</ele>
        <time>2020-06-08T08:50:38Z</time>
      </trkpt>
      <trkpt lat="48.09435" lon="-3.78637">
        <ele>164.4</ele>
        <time>2020-06-08T08:50:39Z</time>
      </trkpt>
      <trkpt lat="48.0945" lon="-3.78643">
        <ele>163.4</ele>
        <time>2020-06-08T08:50:40Z</time>
      </trkpt>
      <trkpt lat="48.09464" lon="-3.78651">
        <ele>162.6</ele>
        <time>2020-06-08T08:50:41Z</time>
      </trkpt>
      <trkpt lat="48.09478" lon="-3.78657">
        <ele>161.9</ele>
        <time>2020-06-08T08:50:42Z</time>
      </trkpt>
      <trkpt lat="48.09493" lon="-3.7866">
        <ele>160.9</ele>
        <time>2020-06-08T08:50:43Z</time>
      </trkpt>
      <trkpt lat="48.09505" lon="-3.78654">
        <ele>159.7</ele>
        <time>2020-06-08T08:50:44Z</time>
      </trkpt>
      <trkpt lat="48.09518" lon="-3.78658">
        <ele>159.1</ele>
        <time>2020-06-08T08:50:45Z</time>
      </trkpt>
      <trkpt lat="48.09531" lon="-3.78654">
        <ele>158.6</ele>
        <time>2020-06-08T08:50:46Z</time>
      </trkpt>
      <trkpt lat="48.09543" lon="-3.7865">
        <ele>158.3</ele>
        <time>2020-06-08T08:50:47Z</time>
      </trkpt>
      <trkpt lat="48.09555" lon="-3.78642">
        <ele>157.9</ele>
        <time>2020-06-08T08:50:48Z</time>
      </trkpt>
      <trkpt lat="48.09566" lon="-3.78631">
        <ele>157.5</ele>
        <time>2020-06-08T08:50:49Z</time>
      </trkpt>
      <trkpt lat="48.09575" lon="-3.78621">
        <ele>157.2</ele>
        <time>2020-06-08T08:50:50Z</time>
      </trkpt>
      <trkpt lat="48.09585" lon="-3.78612">
        <ele>156.8</ele>
        <time>2020-06-08T08:50:51Z</time>
      </trkpt>
      <trkpt lat="48.09594" lon="-3.78602">
        <ele>156.4</ele>
        <time>2020-06-08T08:50:52Z</time>
      </trkpt>
      <trkpt lat="48.09602" lon="-3.78593">
        <ele>156</ele>
        <time>2020-06-08T08:50:53Z</time>
      </trkpt>
      <trkpt lat="48.09611" lon="-3.78584">
        <ele>155.6</ele>
        <time>2020-06-08T08:50:54Z</time>
      </trkpt>
      <trkpt lat="48.09618" lon="-3.78574">
        <ele>155.2</ele>
        <time>2020-06-08T08:50:55Z</time>
      </trkpt>
      <trkpt lat="48.09625" lon="-3.78565">
        <ele>154.8</ele>
        <time>2020-06-08T08:50:56Z</time>
      </trkpt>
      <trkpt lat="48.09632" lon="-3.78555">
        <ele>154.4</ele>
        <time>2020-06-08T08:50:57Z</time>
      </trkpt>
      <trkpt lat="48.0964" lon="-3.78547">
        <ele>154</ele>
        <time>2020-06-08T08:50:58Z</time>
      </trkpt>
      <trkpt lat="48.09646" lon="-3.78536">
        <ele>153.5</ele>
        <time>2020-06-08T08:50:59Z</time>
      </trkpt>
      <trkpt lat="48.09653" lon="-3.78528">
        <ele>153</ele>
        <time>2020-06-08T08:51:00Z</time>
      </trkpt>
      <trkpt lat="48.0966" lon="-3.78521">
        <ele>152.7</ele>
        <time>2020-06-08T08:51:01Z</time>
      </trkpt>
      <trkpt lat="48.09668" lon="-3.78515">
        <ele>152.5</ele>
        <time>2020-06-08T08:51:02Z</time>
      </trkpt>
      <trkpt lat="48.09676" lon="-3.78511">
        <ele>152.3</ele>
        <time>2020-06-08T08:51:03Z</time>
      </trkpt>
      <trkpt lat="48.09684" lon="-3.78512">
        <ele>152.3</ele>
        <time>2020-06-08T08:51:04Z</time>
      </trkpt>
      <trkpt lat="48.09693" lon="-3.78511">
        <ele>152.3</ele>
        <time>2020-06-08T08:51:05Z</time>
      </trkpt>
      <trkpt lat="48.09702" lon="-3.78513">
        <ele>152.4</ele>
        <time>2020-06-08T08:51:06Z</time>
      </trkpt>
      <trkpt lat="48.09709" lon="-3.78513">
        <ele>152.6</ele>
        <time>2020-06-08T08:51:07Z</time>
      </trkpt>
      <trkpt lat="48.09718" lon="-3.78512">
        <ele>153</ele>
        <time>2020-06-08T08:51:08Z</time>
      </trkpt>
      <trkpt lat="48.09725" lon="-3.7851">
        <ele>153.5</ele>
        <time>2020-06-08T08:51:09Z</time>
      </trkpt>
      <trkpt lat="48.09732" lon="-3.78512">
        <ele>154</ele>
        <time>2020-06-08T08:51:10Z</time>
      </trkpt>
      <trkpt lat="48.0974" lon="-3.78514">
        <ele>154.8</ele>
        <time>2020-06-08T08:51:11Z</time>
      </trkpt>
      <trkpt lat="48.09745" lon="-3.78516">
        <ele>155.3</ele>
        <time>2020-06-08T08:51:12Z</time>
      </trkpt>
      <trkpt lat="48.0975" lon="-3.7852">
        <ele>155.8</ele>
        <time>2020-06-08T08:51:13Z</time>
      </trkpt>
      <trkpt lat="48.09755" lon="-3.78522">
        <ele>156.3</ele>
        <time>2020-06-08T08:51:14Z</time>
      </trkpt>
      <trkpt lat="48.09759" lon="-3.78523">
        <ele>156.7</ele>
        <time>2020-06-08T08:51:15Z</time>
      </trkpt>
      <trkpt lat="48.09762" lon="-3.78526">
        <ele>157.1</ele>
        <time>2020-06-08T08:51:16Z</time>
      </trkpt>
      <trkpt lat="48.09765" lon="-3.78525">
        <ele>157.5</ele>
        <time>2020-06-08T08:51:17Z</time>
      </trkpt>
      <trkpt lat="48.09767" lon="-3.78529">
        <ele>157.8</ele>
        <time>2020-06-08T08:51:18Z</time>
      </trkpt>
      <trkpt lat="48.09768" lon="-3.7853">
        <ele>158</ele>
        <time>2020-06-08T08:51:19Z</time>
      </trkpt>
      <trkpt lat="48.09771" lon="-3.78533">
        <ele>158.3</ele>
        <time>2020-06-08T08:51:20Z</time>
      </trkpt>
      <trkpt lat="48.09773" lon="-3.78535">
        <ele>158.6</ele>
        <time>2020-06-08T08:51:21Z</time>
      </trkpt>
      <trkpt lat="48.09776" lon="-3.78535">
        <ele>158.9</ele>
        <time>2020-06-08T08:51:22Z</time>
      </trkpt>
      <trkpt lat="48.09777" lon="-3.78533">
        <ele>159</ele>
        <time>2020-06-08T08:51:23Z</time>
      </trkpt>
      <trkpt lat="48.09778" lon="-3.78532">
        <ele>159</ele>
        <time>2020-06-08T08:51:24Z</time>
      </trkpt>
      <trkpt lat="48.09779" lon="-3.78534">
        <ele>159.1</ele>
        <time>2020-06-08T08:51:25Z</time>
      </trkpt>
      <trkpt lat="48.0978" lon="-3.78536">
        <ele>159.2</ele>
        <time>2020-06-08T08:51:26Z</time>
      </trkpt>
      <trkpt lat="48.09782" lon="-3.7854">
        <ele>159.3</ele>
        <time>2020-06-08T08:51:27Z</time>
      </trkpt>
      <trkpt lat="48.09783" lon="-3.78541">
        <ele>159.3</ele>
        <time>2020-06-08T08:51:28Z</time>
      </trkpt>
      <trkpt lat="48.09787" lon="-3.78538">
        <ele>159.3</ele>
        <time>2020-06-08T08:51:29Z</time>
      </trkpt>
      <trkpt lat="48.0979" lon="-3.78538">
        <ele>160.3</ele>
        <time>2020-06-08T08:51:30Z</time>
      </trkpt>
      <trkpt lat="48.0979" lon="-3.78539">
        <ele>160.4</ele>
        <time>2020-06-08T08:51:31Z</time>
      </trkpt>
      <trkpt lat="48.09793" lon="-3.78539">
        <ele>160.8</ele>
        <time>2020-06-08T08:51:32Z</time>
      </trkpt>
      <trkpt lat="48.09794" lon="-3.78539">
        <ele>160.9</ele>
        <time>2020-06-08T08:51:33Z</time>
      </trkpt>
      <trkpt lat="48.09797" lon="-3.78538">
        <ele>161.4</ele>
        <time>2020-06-08T08:51:34Z</time>
      </trkpt>
      <trkpt lat="48.09798" lon="-3.78538">
        <ele>161.6</ele>
        <time>2020-06-08T08:51:35Z</time>
      </trkpt>
      <trkpt lat="48.098" lon="-3.78537">
        <ele>161.8</ele>
        <time>2020-06-08T08:51:36Z</time>
      </trkpt>
      <trkpt lat="48.098" lon="-3.78535">
        <ele>162</ele>
        <time>2020-06-08T08:51:37Z</time>
      </trkpt>
      <trkpt lat="48.09802" lon="-3.78534">
        <ele>162.3</ele>
        <time>2020-06-08T08:51:38Z</time>
      </trkpt>
      <trkpt lat="48.09805" lon="-3.78535">
        <ele>162.8</ele>
        <time>2020-06-08T08:51:39Z</time>
      </trkpt>
      <trkpt lat="48.09806" lon="-3.78535">
        <ele>162.9</ele>
        <time>2020-06-08T08:51:40Z</time>
      </trkpt>
      <trkpt lat="48.09809" lon="-3.78536">
        <ele>163.4</ele>
        <time>2020-06-08T08:51:41Z</time>
      </trkpt>
      <trkpt lat="48.0981" lon="-3.78535">
        <ele>163.6</ele>
        <time>2020-06-08T08:51:42Z</time>
      </trkpt>
      <trkpt lat="48.09814" lon="-3.78536">
        <ele>164.1</ele>
        <time>2020-06-08T08:51:43Z</time>
      </trkpt>
      <trkpt lat="48.09815" lon="-3.78537">
        <ele>164.3</ele>
        <time>2020-06-08T08:51:44Z</time>
      </trkpt>
      <trkpt lat="48.09818" lon="-3.78536">
        <ele>164.7</ele>
        <time>2020-06-08T08:51:45Z</time>
      </trkpt>
      <trkpt lat="48.09819" lon="-3.78536">
        <ele>164.8</ele>
        <time>2020-06-08T08:51:46Z</time>
      </trkpt>
      <trkpt lat="48.09821" lon="-3.78537">
        <ele>165.1</ele>
        <time>2020-06-08T08:51:47Z</time>
      </trkpt>
      <trkpt lat="48.09821" lon="-3.78537">
        <ele>165.2</ele>
        <time>2020-06-08T08:51:48Z</time>
      </trkpt>
      <trkpt lat="48.09822" lon="-3.78538">
        <ele>165.3</ele>
        <time>2020-06-08T08:51:49Z</time>
      </trkpt>
      <trkpt lat="48.09824" lon="-3.78538">
        <ele>165.5</ele>
        <time>2020-06-08T08:51:50Z</time>
      </trkpt>
      <trkpt lat="48.09825" lon="-3.78537">
        <ele>165.7</ele>
        <time>2020-06-08T08:51:51Z</time>
      </trkpt>
      <trkpt lat="48.09826" lon="-3.78537">
        <ele>165.8</ele>
        <time>2020-06-08T08:51:52Z</time>
      </trkpt>
      <trkpt lat="48.09829" lon="-3.78536">
        <ele>166.2</ele>
        <time>2020-06-08T08:51:53Z</time>
      </trkpt>
      <trkpt lat="48.0983" lon="-3.78536">
        <ele>166.3</ele>
        <time>2020-06-08T08:51:54Z</time>
      </trkpt>
      <trkpt lat="48.09833" lon="-3.78535">
        <ele>166.8</ele>
        <time>2020-06-08T08:51:55Z</time>
      </trkpt>
      <trkpt lat="48.09834" lon="-3.78535">
        <ele>166.9</ele>
        <time>2020-06-08T08:51:56Z</time>
      </trkpt>
      <trkpt lat="48.09836" lon="-3.78535">
        <ele>167.2</ele>
        <time>2020-06-08T08:51:57Z</time>
      </trkpt>
      <trkpt lat="48.09837" lon="-3.78535">
        <ele>167.3</ele>
        <time>2020-06-08T08:51:58Z</time>
      </trkpt>
      <trkpt lat="48.09839" lon="-3.78534">
        <ele>167.5</ele>
        <time>2020-06-08T08:51:59Z</time>
      </trkpt>
      <trkpt lat="48.0984" lon="-3.78534">
        <ele>167.7</ele>
        <time>2020-06-08T08:52:00Z</time>
      </trkpt>
      <trkpt lat="48.09842" lon="-3.78533">
        <ele>167.9</ele>
        <time>2020-06-08T08:52:01Z</time>
      </trkpt>
      <trkpt lat="48.09843" lon="-3.78533">
        <ele>168.1</ele>
        <time>2020-06-08T08:52:02Z</time>
      </trkpt>
      <trkpt lat="48.09845" lon="-3.78533">
        <ele>168.4</ele>
        <time>2020-06-08T08:52:03Z</time>
      </trkpt>
      <trkpt lat="48.09847" lon="-3.78532">
        <ele>168.5</ele>
        <time>2020-06-08T08:52:04Z</time>
      </trkpt>
      <trkpt lat="48.09848" lon="-3.78532">
        <ele>168.7</ele>
        <time>2020-06-08T08:52:05Z</time>
      </trkpt>
      <trkpt lat="48.09849" lon="-3.78531">
        <ele>168.8</ele>
        <time>2020-06-08T08:52:06Z</time>
      </trkpt>
      <trkpt lat="48.09851" lon="-3.7853">
        <ele>169.1</ele>
        <time>2020-06-08T08:52:07Z</time>
      </trkpt>
      <trkpt lat="48.09853" lon="-3.78529">
        <ele>169.4</ele>
        <time>2020-06-08T08:52:08Z</time>
      </trkpt>
      <trkpt lat="48.09854" lon="-3.78529">
        <ele>169.5</ele>
        <time>2020-06-08T08:52:09Z</time>
      </trkpt>
      <trkpt lat="48.09855" lon="-3.78529">
        <ele>169.7</ele>
        <time>2020-06-08T08:52:10Z</time>
      </trkpt>
      <trkpt lat="48.09857" lon="-3.78529">
        <ele>169.9</ele>
        <time>2020-06-08T08:52:11Z</time>
      </trkpt>
      <trkpt lat="48.09859" lon="-3.78529">
        <ele>170.1</ele>
        <time>2020-06-08T08:52:12Z</time>
      </trkpt>
      <trkpt lat="48.09861" lon="-3.78528">
        <ele>170.3</ele>
        <time>2020-06-08T08:52:13Z</time>
      </trkpt>
      <trkpt lat="48.09864" lon="-3.78527">
        <ele>170.7</ele>
        <time>2020-06-08T08:52:14Z</time>
      </trkpt>
      <trkpt lat="48.09865" lon="-3.78527">
        <ele>170.8</ele>
        <time>2020-06-08T08:52:15Z</time>
      </trkpt>
      <trkpt lat="48.09868" lon="-3.78526">
        <ele>171.2</ele>
        <time>2020-06-08T08:52:16Z</time>
      </trkpt>
      <trkpt lat="48.09869" lon="-3.78525">
        <ele>171.3</ele>
        <time>2020-06-08T08:52:17Z</time>
      </trkpt>
      <trkpt lat="48.09873" lon="-3.78525">
        <ele>171.6</ele>
        <time>2020-06-08T08:52:18Z</time>
      </trkpt>
      <trkpt lat="48.09874" lon="-3.78524">
        <ele>171.7</ele>
        <time>2020-06-08T08:52:19Z</time>
      </trkpt>
      <trkpt lat="48.09875" lon="-3.78524">
        <ele>171.9</ele>
        <time>2020-06-08T08:52:20Z</time>
      </trkpt>
      <trkpt lat="48.09877" lon="-3.78524">
        <ele>172</ele>
        <time>2020-06-08T08:52:21Z</time>
      </trkpt>
      <trkpt lat="48.09879" lon="-3.78524">
        <ele>172.1</ele>
        <time>2020-06-08T08:52:22Z</time>
      </trkpt>
      <trkpt lat="48.0988" lon="-3.78525">
        <ele>172.2</ele>
        <time>2020-06-08T08:52:23Z</time>
      </trkpt>
      <trkpt lat="48.09883" lon="-3.78526">
        <ele>172.3</ele>
        <time>2020-06-08T08:52:24Z</time>
      </trkpt>
      <trkpt lat="48.09884" lon="-3.78526">
        <ele>172.4</ele>
        <time>2020-06-08T08:52:25Z</time>
      </trkpt>
      <trkpt lat="48.09886" lon="-3.78526">
        <ele>172.4</ele>
        <time>2020-06-08T08:52:26Z</time>
      </trkpt>
      <trkpt lat="48.09887" lon="-3.78527">
        <ele>172.5</ele>
        <time>2020-06-08T08:52:27Z</time>
      </trkpt>
      <trkpt lat="48.0989" lon="-3.78527">
        <ele>172.6</ele>
        <time>2020-06-08T08:52:28Z</time>
      </trkpt>
      <trkpt lat="48.09891" lon="-3.78528">
        <ele>172.6</ele>
        <time>2020-06-08T08:52:29Z</time>
      </trkpt>
      <trkpt lat="48.09894" lon="-3.78529">
        <ele>172.6</ele>
        <time>2020-06-08T08:52:30Z</time>
      </trkpt>
      <trkpt lat="48.09895" lon="-3.78529">
        <ele>172.7</ele>
        <time>2020-06-08T08:52:31Z</time>
      </trkpt>
      <trkpt lat="48.09898" lon="-3.7853">
        <ele>172.7</ele>
        <time>2020-06-08T08:52:32Z</time>
      </trkpt>
      <trkpt lat="48.09899" lon="-3.7853">
        <ele>172.8</ele>
        <time>2020-06-08T08:52:33Z</time>
      </trkpt>
      <trkpt lat="48.09901" lon="-3.78531">
        <ele>172.8</ele>
        <time>2020-06-08T08:52:34Z</time>
      </trkpt>
      <trkpt lat="48.09903" lon="-3.78531">
        <ele>172.8</ele>
        <time>2020-06-08T08:52:35Z</time>
      </trkpt>
      <trkpt lat="48.09906" lon="-3.78531">
        <ele>172.8</ele>
        <time>2020-06-08T08:52:36Z</time>
      </trkpt>
      <trkpt lat="48.09907" lon="-3.78532">
        <ele>172.8</ele>
        <time>2020-06-08T08:52:37Z</time>
      </trkpt>
      <trkpt lat="48.09908" lon="-3.78531">
        <ele>172.8</ele>
        <time>2020-06-08T08:52:38Z</time>
      </trkpt>
      <trkpt lat="48.0991" lon="-3.78531">
        <ele>172.8</ele>
        <time>2020-06-08T08:52:39Z</time>
      </trkpt>
      <trkpt lat="48.09913" lon="-3.78532">
        <ele>172.8</ele>
        <time>2020-06-08T08:52:40Z</time>
      </trkpt>
      <trkpt lat="48.09914" lon="-3.78532">
        <ele>172.8</ele>
        <time>2020-06-08T08:52:41Z</time>
      </trkpt>
      <trkpt lat="48.09915" lon="-3.78532">
        <ele>172.8</ele>
        <time>2020-06-08T08:52:42Z</time>
      </trkpt>
      <trkpt lat="48.09916" lon="-3.78533">
        <ele>172.8</ele>
        <time>2020-06-08T08:52:43Z</time>
      </trkpt>
      <trkpt lat="48.09917" lon="-3.78534">
        <ele>172.8</ele>
        <time>2020-06-08T08:52:44Z</time>
      </trkpt>
      <trkpt lat="48.09918" lon="-3.78534">
        <ele>172.7</ele>
        <time>2020-06-08T08:52:45Z</time>
      </trkpt>
      <trkpt lat="48.09919" lon="-3.78535">
        <ele>172.7</ele>
        <time>2020-06-08T08:52:46Z</time>
      </trkpt>
      <trkpt lat="48.0992" lon="-3.78535">
        <ele>172.7</ele>
        <time>2020-06-08T08:52:47Z</time>
      </trkpt>
      <trkpt lat="48.09923" lon="-3.78533">
        <ele>172.7</ele>
        <time>2020-06-08T08:52:48Z</time>
      </trkpt>
      <trkpt lat="48.09924" lon="-3.78532">
        <ele>172.6</ele>
        <time>2020-06-08T08:52:49Z</time>
      </trkpt>
      <trkpt lat="48.09925" lon="-3.78531">
        <ele>172.6</ele>
        <time>2020-06-08T08:52:50Z</time>
      </trkpt>
      <trkpt lat="48.09927" lon="-3.78531">
        <ele>172.6</ele>
        <time>2020-06-08T08:52:51Z</time>
      </trkpt>
      <trkpt lat="48.0993" lon="-3.78532">
        <ele>172.5</ele>
        <time>2020-06-08T08:52:52Z</time>
      </trkpt>
      <trkpt lat="48.09931" lon="-3.78532">
        <ele>172.5</ele>
        <time>2020-06-08T08:52:53Z</time>
      </trkpt>
      <trkpt lat="48.09933" lon="-3.78532">
        <ele>172.5</ele>
        <time>2020-06-08T08:52:54Z</time>
      </trkpt>
      <trkpt lat="48.09934" lon="-3.78532">
        <ele>172.5</ele>
        <time>2020-06-08T08:52:55Z</time>
      </trkpt>
      <trkpt lat="48.09935" lon="-3.78531">
        <ele>172.4</ele>
        <time>2020-06-08T08:52:56Z</time>
      </trkpt>
      <trkpt lat="48.09937" lon="-3.78531">
        <ele>172.4</ele>
        <time>2020-06-08T08:52:57Z</time>
      </trkpt>
      <trkpt lat="48.0994" lon="-3.78531">
        <ele>172.3</ele>
        <time>2020-06-08T08:52:58Z</time>
      </trkpt>
      <trkpt lat="48.09941" lon="-3.78531">
        <ele>172.3</ele>
        <time>2020-06-08T08:52:59Z</time>
      </trkpt>
      <trkpt lat="48.09944" lon="-3.78532">
        <ele>172.2</ele>
        <time>2020-06-08T08:53:00Z</time>
      </trkpt>
      <trkpt lat="48.09945" lon="-3.78532">
        <ele>172.2</ele>
        <time>2020-06-08T08:53:01Z</time>
      </trkpt>
      <trkpt lat="48.09948" lon="-3.78531">
        <ele>172.1</ele>
        <time>2020-06-08T08:53:02Z</time>
      </trkpt>
      <trkpt lat="48.09951" lon="-3.78531">
        <ele>172.1</ele>
        <time>2020-06-08T08:53:03Z</time>
      </trkpt>
      <trkpt lat="48.09954" lon="-3.78531">
        <ele>172</ele>
        <time>2020-06-08T08:53:04Z</time>
      </trkpt>
      <trkpt lat="48.09957" lon="-3.78531">
        <ele>171.9</ele>
        <time>2020-06-08T08:53:05Z</time>
      </trkpt>
      <trkpt lat="48.0996" lon="-3.78533">
        <ele>171.8</ele>
        <time>2020-06-08T08:53:06Z</time>
      </trkpt>
      <trkpt lat="48.09965" lon="-3.78536">
        <ele>171.7</ele>
        <time>2020-06-08T08:53:07Z</time>
      </trkpt>
      <trkpt lat="48.09969" lon="-3.78539">
        <ele>171.5</ele>
        <time>2020-06-08T08:53:08Z</time>
      </trkpt>
      <trkpt lat="48.09973" lon="-3.78543">
        <ele>171.4</ele>
        <time>2020-06-08T08:53:09Z</time>
      </trkpt>
      <trkpt lat="48.09976" lon="-3.78545">
        <ele>171.3</ele>
        <time>2020-06-08T08:53:10Z</time>
      </trkpt>
      <trkpt lat="48.09981" lon="-3.78546">
        <ele>171.2</ele>
        <time>2020-06-08T08:53:11Z</time>
      </trkpt>
      <trkpt lat="48.09985" lon="-3.78546">
        <ele>171.2</ele>
        <time>2020-06-08T08:53:12Z</time>
      </trkpt>
      <trkpt lat="48.09989" lon="-3.78547">
        <ele>171.1</ele>
        <time>2020-06-08T08:53:13Z</time>
      </trkpt>
      <trkpt lat="48.09992" lon="-3.78547">
        <ele>171</ele>
        <time>2020-06-08T08:53:14Z</time>
      </trkpt>
      <trkpt lat="48.09996" lon="-3.78546">
        <ele>171</ele>
        <time>2020-06-08T08:53:15Z</time>
      </trkpt>
      <trkpt lat="48.1" lon="-3.78544">
        <ele>170.9</ele>
        <time>2020-06-08T08:53:16Z</time>
      </trkpt>
      <trkpt lat="48.10003" lon="-3.7854">
        <ele>170.8</ele>
        <time>2020-06-08T08:53:17Z</time>
      </trkpt>
      <trkpt lat="48.10006" lon="-3.78537">
        <ele>170.7</ele>
        <time>2020-06-08T08:53:18Z</time>
      </trkpt>
      <trkpt lat="48.10009" lon="-3.78534">
        <ele>170.6</ele>
        <time>2020-06-08T08:53:19Z</time>
      </trkpt>
      <trkpt lat="48.10012" lon="-3.78531">
        <ele>170.6</ele>
        <time>2020-06-08T08:53:20Z</time>
      </trkpt>
      <trkpt lat="48.10015" lon="-3.78527">
        <ele>170.4</ele>
        <time>2020-06-08T08:53:21Z</time>
      </trkpt>
      <trkpt lat="48.10018" lon="-3.78522">
        <ele>170.3</ele>
        <time>2020-06-08T08:53:22Z</time>
      </trkpt>
      <trkpt lat="48.10021" lon="-3.78519">
        <ele>170.2</ele>
        <time>2020-06-08T08:53:23Z</time>
      </trkpt>
      <trkpt lat="48.10024" lon="-3.78515">
        <ele>170</ele>
        <time>2020-06-08T08:53:24Z</time>
      </trkpt>
      <trkpt lat="48.10026" lon="-3.78511">
        <ele>169.8</ele>
        <time>2020-06-08T08:53:25Z</time>
      </trkpt>
      <trkpt lat="48.10029" lon="-3.78506">
        <ele>169.6</ele>
        <time>2020-06-08T08:53:26Z</time>
      </trkpt>
      <trkpt lat="48.10032" lon="-3.78503">
        <ele>169.3</ele>
        <time>2020-06-08T08:53:27Z</time>
      </trkpt>
      <trkpt lat="48.10035" lon="-3.78499">
        <ele>169.1</ele>
        <time>2020-06-08T08:53:28Z</time>
      </trkpt>
      <trkpt lat="48.10039" lon="-3.78496">
        <ele>168.9</ele>
        <time>2020-06-08T08:53:29Z</time>
      </trkpt>
      <trkpt lat="48.10042" lon="-3.78494">
        <ele>168.6</ele>
        <time>2020-06-08T08:53:30Z</time>
      </trkpt>
      <trkpt lat="48.10047" lon="-3.78496">
        <ele>168.3</ele>
        <time>2020-06-08T08:53:31Z</time>
      </trkpt>
      <trkpt lat="48.10053" lon="-3.78497">
        <ele>167.8</ele>
        <time>2020-06-08T08:53:32Z</time>
      </trkpt>
      <trkpt lat="48.1006" lon="-3.785">
        <ele>167.3</ele>
        <time>2020-06-08T08:53:33Z</time>
      </trkpt>
      <trkpt lat="48.10066" lon="-3.78504">
        <ele>166.7</ele>
        <time>2020-06-08T08:53:34Z</time>
      </trkpt>
      <trkpt lat="48.10073" lon="-3.78509">
        <ele>166</ele>
        <time>2020-06-08T08:53:35Z</time>
      </trkpt>
      <trkpt lat="48.10079" lon="-3.78514">
        <ele>165.4</ele>
        <time>2020-06-08T08:53:36Z</time>
      </trkpt>
      <trkpt lat="48.10086" lon="-3.78518">
        <ele>164.7</ele>
        <time>2020-06-08T08:53:37Z</time>
      </trkpt>
      <trkpt lat="48.10092" lon="-3.78523">
        <ele>164</ele>
        <time>2020-06-08T08:53:38Z</time>
      </trkpt>
      <trkpt lat="48.10099" lon="-3.78527">
        <ele>163.3</ele>
        <time>2020-06-08T08:53:39Z</time>
      </trkpt>
      <trkpt lat="48.10107" lon="-3.78532">
        <ele>162.5</ele>
        <time>2020-06-08T08:53:40Z</time>
      </trkpt>
      <trkpt lat="48.10115" lon="-3.78537">
        <ele>161.6</ele>
        <time>2020-06-08T08:53:41Z</time>
      </trkpt>
      <trkpt lat="48.10124" lon="-3.78542">
        <ele>160.8</ele>
        <time>2020-06-08T08:53:42Z</time>
      </trkpt>
      <trkpt lat="48.10133" lon="-3.78548">
        <ele>159.9</ele>
        <time>2020-06-08T08:53:43Z</time>
      </trkpt>
      <trkpt lat="48.10143" lon="-3.78554">
        <ele>159</ele>
        <time>2020-06-08T08:53:44Z</time>
      </trkpt>
      <trkpt lat="48.10153" lon="-3.7856">
        <ele>158.2</ele>
        <time>2020-06-08T08:53:45Z</time>
      </trkpt>
      <trkpt lat="48.10162" lon="-3.78566">
        <ele>157.3</ele>
        <time>2020-06-08T08:53:46Z</time>
      </trkpt>
      <trkpt lat="48.10172" lon="-3.78573">
        <ele>156.4</ele>
        <time>2020-06-08T08:53:47Z</time>
      </trkpt>
      <trkpt lat="48.10182" lon="-3.7858">
        <ele>155.4</ele>
        <time>2020-06-08T08:53:48Z</time>
      </trkpt>
      <trkpt lat="48.10193" lon="-3.78587">
        <ele>154.3</ele>
        <time>2020-06-08T08:53:49Z</time>
      </trkpt>
      <trkpt lat="48.10204" lon="-3.78594">
        <ele>153.7</ele>
        <time>2020-06-08T08:53:50Z</time>
      </trkpt>
      <trkpt lat="48.10215" lon="-3.78602">
        <ele>153</ele>
        <time>2020-06-08T08:53:51Z</time>
      </trkpt>
      <trkpt lat="48.10226" lon="-3.78609">
        <ele>151.9</ele>
        <time>2020-06-08T08:53:52Z</time>
      </trkpt>
      <trkpt lat="48.10237" lon="-3.78618">
        <ele>150.9</ele>
        <time>2020-06-08T08:53:53Z</time>
      </trkpt>
      <trkpt lat="48.10247" lon="-3.7863">
        <ele>150</ele>
        <time>2020-06-08T08:53:54Z</time>
      </trkpt>
      <trkpt lat="48.10257" lon="-3.78641">
        <ele>149.1</ele>
        <time>2020-06-08T08:53:55Z</time>
      </trkpt>
      <trkpt lat="48.10267" lon="-3.78651">
        <ele>148.3</ele>
        <time>2020-06-08T08:53:56Z</time>
      </trkpt>
      <trkpt lat="48.10277" lon="-3.78661">
        <ele>147.6</ele>
        <time>2020-06-08T08:53:57Z</time>
      </trkpt>
      <trkpt lat="48.10287" lon="-3.78671">
        <ele>147.1</ele>
        <time>2020-06-08T08:53:58Z</time>
      </trkpt>
      <trkpt lat="48.10297" lon="-3.78681">
        <ele>146.7</ele>
        <time>2020-06-08T08:53:59Z</time>
      </trkpt>
      <trkpt lat="48.10306" lon="-3.7869">
        <ele>146.4</ele>
        <time>2020-06-08T08:54:00Z</time>
      </trkpt>
      <trkpt lat="48.10315" lon="-3.78699">
        <ele>146.3</ele>
        <time>2020-06-08T08:54:01Z</time>
      </trkpt>
      <trkpt lat="48.10324" lon="-3.78709">
        <ele>146.2</ele>
        <time>2020-06-08T08:54:02Z</time>
      </trkpt>
      <trkpt lat="48.10332" lon="-3.78719">
        <ele>146.3</ele>
        <time>2020-06-08T08:54:03Z</time>
      </trkpt>
      <trkpt lat="48.10341" lon="-3.78728">
        <ele>146.5</ele>
        <time>2020-06-08T08:54:04Z</time>
      </trkpt>
      <trkpt lat="48.10349" lon="-3.78736">
        <ele>146.8</ele>
        <time>2020-06-08T08:54:05Z</time>
      </trkpt>
      <trkpt lat="48.10356" lon="-3.78744">
        <ele>147.1</ele>
        <time>2020-06-08T08:54:06Z</time>
      </trkpt>
      <trkpt lat="48.10363" lon="-3.78752">
        <ele>147.6</ele>
        <time>2020-06-08T08:54:07Z</time>
      </trkpt>
      <trkpt lat="48.10369" lon="-3.78759">
        <ele>148</ele>
        <time>2020-06-08T08:54:08Z</time>
      </trkpt>
      <trkpt lat="48.10376" lon="-3.78764">
        <ele>148.4</ele>
        <time>2020-06-08T08:54:09Z</time>
      </trkpt>
      <trkpt lat="48.10384" lon="-3.78765">
        <ele>148.9</ele>
        <time>2020-06-08T08:54:10Z</time>
      </trkpt>
      <trkpt lat="48.10391" lon="-3.78767">
        <ele>149.4</ele>
        <time>2020-06-08T08:54:11Z</time>
      </trkpt>
      <trkpt lat="48.10397" lon="-3.78769">
        <ele>149.8</ele>
        <time>2020-06-08T08:54:12Z</time>
      </trkpt>
      <trkpt lat="48.10403" lon="-3.78769">
        <ele>150.3</ele>
        <time>2020-06-08T08:54:13Z</time>
      </trkpt>
      <trkpt lat="48.10409" lon="-3.7877">
        <ele>150.7</ele>
        <time>2020-06-08T08:54:14Z</time>
      </trkpt>
      <trkpt lat="48.10414" lon="-3.7877">
        <ele>151.1</ele>
        <time>2020-06-08T08:54:15Z</time>
      </trkpt>
      <trkpt lat="48.1042" lon="-3.78771">
        <ele>151.5</ele>
        <time>2020-06-08T08:54:16Z</time>
      </trkpt>
      <trkpt lat="48.10424" lon="-3.78772">
        <ele>151.9</ele>
        <time>2020-06-08T08:54:17Z</time>
      </trkpt>
      <trkpt lat="48.10428" lon="-3.78772">
        <ele>152.2</ele>
        <time>2020-06-08T08:54:18Z</time>
      </trkpt>
      <trkpt lat="48.10431" lon="-3.78772">
        <ele>152.5</ele>
        <time>2020-06-08T08:54:19Z</time>
      </trkpt>
      <trkpt lat="48.10434" lon="-3.78773">
        <ele>152.8</ele>
        <time>2020-06-08T08:54:20Z</time>
      </trkpt>
      <trkpt lat="48.10438" lon="-3.78774">
        <ele>153.1</ele>
        <time>2020-06-08T08:54:21Z</time>
      </trkpt>
      <trkpt lat="48.10441" lon="-3.78774">
        <ele>153.4</ele>
        <time>2020-06-08T08:54:22Z</time>
      </trkpt>
      <trkpt lat="48.10444" lon="-3.78773">
        <ele>153.7</ele>
        <time>2020-06-08T08:54:23Z</time>
      </trkpt>
      <trkpt lat="48.10447" lon="-3.78774">
        <ele>154</ele>
        <time>2020-06-08T08:54:24Z</time>
      </trkpt>
      <trkpt lat="48.1045" lon="-3.78775">
        <ele>154.4</ele>
        <time>2020-06-08T08:54:25Z</time>
      </trkpt>
      <trkpt lat="48.10452" lon="-3.78775">
        <ele>154.5</ele>
        <time>2020-06-08T08:54:26Z</time>
      </trkpt>
      <trkpt lat="48.10455" lon="-3.78774">
        <ele>154.8</ele>
        <time>2020-06-08T08:54:27Z</time>
      </trkpt>
      <trkpt lat="48.10456" lon="-3.78774">
        <ele>155</ele>
        <time>2020-06-08T08:54:28Z</time>
      </trkpt>
      <trkpt lat="48.1046" lon="-3.78771">
        <ele>155.3</ele>
        <time>2020-06-08T08:54:29Z</time>
      </trkpt>
      <trkpt lat="48.10461" lon="-3.7877">
        <ele>155.5</ele>
        <time>2020-06-08T08:54:30Z</time>
      </trkpt>
      <trkpt lat="48.10464" lon="-3.78769">
        <ele>155.7</ele>
        <time>2020-06-08T08:54:31Z</time>
      </trkpt>
      <trkpt lat="48.10467" lon="-3.78768">
        <ele>156</ele>
        <time>2020-06-08T08:54:32Z</time>
      </trkpt>
      <trkpt lat="48.10471" lon="-3.78767">
        <ele>156.4</ele>
        <time>2020-06-08T08:54:33Z</time>
      </trkpt>
      <trkpt lat="48.10473" lon="-3.78767">
        <ele>156.6</ele>
        <time>2020-06-08T08:54:34Z</time>
      </trkpt>
      <trkpt lat="48.10476" lon="-3.78767">
        <ele>156.9</ele>
        <time>2020-06-08T08:54:35Z</time>
      </trkpt>
      <trkpt lat="48.10477" lon="-3.78767">
        <ele>157</ele>
        <time>2020-06-08T08:54:36Z</time>
      </trkpt>
      <trkpt lat="48.10482" lon="-3.78767">
        <ele>157.5</ele>
        <time>2020-06-08T08:54:37Z</time>
      </trkpt>
      <trkpt lat="48.10483" lon="-3.78767">
        <ele>157.6</ele>
        <time>2020-06-08T08:54:38Z</time>
      </trkpt>
      <trkpt lat="48.10486" lon="-3.78766">
        <ele>158</ele>
        <time>2020-06-08T08:54:39Z</time>
      </trkpt>
      <trkpt lat="48.1049" lon="-3.78765">
        <ele>158.4</ele>
        <time>2020-06-08T08:54:40Z</time>
      </trkpt>
      <trkpt lat="48.10491" lon="-3.78764">
        <ele>158.5</ele>
        <time>2020-06-08T08:54:41Z</time>
      </trkpt>
      <trkpt lat="48.10492" lon="-3.78765">
        <ele>158.6</ele>
        <time>2020-06-08T08:54:42Z</time>
      </trkpt>
      <trkpt lat="48.10495" lon="-3.78765">
        <ele>158.9</ele>
        <time>2020-06-08T08:54:43Z</time>
      </trkpt>
      <trkpt lat="48.10498" lon="-3.78765">
        <ele>159.2</ele>
        <time>2020-06-08T08:54:44Z</time>
      </trkpt>
      <trkpt lat="48.10499" lon="-3.78764">
        <ele>159.3</ele>
        <time>2020-06-08T08:54:45Z</time>
      </trkpt>
      <trkpt lat="48.10503" lon="-3.78764">
        <ele>159.7</ele>
        <time>2020-06-08T08:54:46Z</time>
      </trkpt>
      <trkpt lat="48.10505" lon="-3.78763">
        <ele>159.9</ele>
        <time>2020-06-08T08:54:47Z</time>
      </trkpt>
      <trkpt lat="48.10507" lon="-3.78763">
        <ele>160.2</ele>
        <time>2020-06-08T08:54:48Z</time>
      </trkpt>
      <trkpt lat="48.1051" lon="-3.78762">
        <ele>160.5</ele>
        <time>2020-06-08T08:54:49Z</time>
      </trkpt>
      <trkpt lat="48.10513" lon="-3.78762">
        <ele>160.7</ele>
        <time>2020-06-08T08:54:50Z</time>
      </trkpt>
      <trkpt lat="48.10516" lon="-3.78761">
        <ele>161</ele>
        <time>2020-06-08T08:54:51Z</time>
      </trkpt>
      <trkpt lat="48.10518" lon="-3.78761">
        <ele>161.1</ele>
        <time>2020-06-08T08:54:52Z</time>
      </trkpt>
      <trkpt lat="48.1052" lon="-3.7876">
        <ele>161.6</ele>
        <time>2020-06-08T08:54:53Z</time>
      </trkpt>
      <trkpt lat="48.10523" lon="-3.7876">
        <ele>161.8</ele>
        <time>2020-06-08T08:54:54Z</time>
      </trkpt>
      <trkpt lat="48.10526" lon="-3.7876">
        <ele>162</ele>
        <time>2020-06-08T08:54:55Z</time>
      </trkpt>
      <trkpt lat="48.1053" lon="-3.78759">
        <ele>162.3</ele>
        <time>2020-06-08T08:54:56Z</time>
      </trkpt>
      <trkpt lat="48.10531" lon="-3.78758">
        <ele>162.4</ele>
        <time>2020-06-08T08:54:57Z</time>
      </trkpt>
      <trkpt lat="48.10534" lon="-3.78757">
        <ele>162.7</ele>
        <time>2020-06-08T08:54:58Z</time>
      </trkpt>
      <trkpt lat="48.10537" lon="-3.78756">
        <ele>163</ele>
        <time>2020-06-08T08:54:59Z</time>
      </trkpt>
      <trkpt lat="48.10538" lon="-3.78755">
        <ele>163.1</ele>
        <time>2020-06-08T08:55:00Z</time>
      </trkpt>
      <trkpt lat="48.10541" lon="-3.78754">
        <ele>163.4</ele>
        <time>2020-06-08T08:55:01Z</time>
      </trkpt>
      <trkpt lat="48.10542" lon="-3.78753">
        <ele>163.5</ele>
        <time>2020-06-08T08:55:02Z</time>
      </trkpt>
      <trkpt lat="48.10545" lon="-3.78753">
        <ele>163.7</ele>
        <time>2020-06-08T08:55:03Z</time>
      </trkpt>
      <trkpt lat="48.10546" lon="-3.78753">
        <ele>163.8</ele>
        <time>2020-06-08T08:55:04Z</time>
      </trkpt>
      <trkpt lat="48.10549" lon="-3.78756">
        <ele>164.1</ele>
        <time>2020-06-08T08:55:05Z</time>
      </trkpt>
      <trkpt lat="48.10549" lon="-3.78757">
        <ele>164.2</ele>
        <time>2020-06-08T08:55:06Z</time>
      </trkpt>
      <trkpt lat="48.1055" lon="-3.78758">
        <ele>164.3</ele>
        <time>2020-06-08T08:55:07Z</time>
      </trkpt>
      <trkpt lat="48.10552" lon="-3.7876">
        <ele>164.5</ele>
        <time>2020-06-08T08:55:08Z</time>
      </trkpt>
      <trkpt lat="48.10553" lon="-3.78762">
        <ele>164.6</ele>
        <time>2020-06-08T08:55:09Z</time>
      </trkpt>
      <trkpt lat="48.10554" lon="-3.78763">
        <ele>164.8</ele>
        <time>2020-06-08T08:55:10Z</time>
      </trkpt>
      <trkpt lat="48.10556" lon="-3.78767">
        <ele>165.1</ele>
        <time>2020-06-08T08:55:11Z</time>
      </trkpt>
      <trkpt lat="48.10556" lon="-3.78768">
        <ele>165.1</ele>
        <time>2020-06-08T08:55:12Z</time>
      </trkpt>
      <trkpt lat="48.10558" lon="-3.78772">
        <ele>164.9</ele>
        <time>2020-06-08T08:55:13Z</time>
      </trkpt>
      <trkpt lat="48.10558" lon="-3.78774">
        <ele>164.9</ele>
        <time>2020-06-08T08:55:14Z</time>
      </trkpt>
      <trkpt lat="48.10559" lon="-3.78777">
        <ele>164.8</ele>
        <time>2020-06-08T08:55:15Z</time>
      </trkpt>
      <trkpt lat="48.1056" lon="-3.78781">
        <ele>164.7</ele>
        <time>2020-06-08T08:55:16Z</time>
      </trkpt>
      <trkpt lat="48.10559" lon="-3.78786">
        <ele>164.6</ele>
        <time>2020-06-08T08:55:17Z</time>
      </trkpt>
      <trkpt lat="48.10558" lon="-3.78791">
        <ele>164.6</ele>
        <time>2020-06-08T08:55:18Z</time>
      </trkpt>
      <trkpt lat="48.10557" lon="-3.78796">
        <ele>164.6</ele>
        <time>2020-06-08T08:55:19Z</time>
      </trkpt>
      <trkpt lat="48.10557" lon="-3.78802">
        <ele>164.5</ele>
        <time>2020-06-08T08:55:20Z</time>
      </trkpt>
      <trkpt lat="48.10556" lon="-3.78809">
        <ele>164.6</ele>
        <time>2020-06-08T08:55:21Z</time>
      </trkpt>
      <trkpt lat="48.10555" lon="-3.78815">
        <ele>164.7</ele>
        <time>2020-06-08T08:55:22Z</time>
      </trkpt>
      <trkpt lat="48.10554" lon="-3.7882">
        <ele>164.8</ele>
        <time>2020-06-08T08:55:23Z</time>
      </trkpt>
      <trkpt lat="48.10553" lon="-3.78824">
        <ele>164.9</ele>
        <time>2020-06-08T08:55:24Z</time>
      </trkpt>
      <trkpt lat="48.10553" lon="-3.78829">
        <ele>165</ele>
        <time>2020-06-08T08:55:25Z</time>
      </trkpt>
      <trkpt lat="48.10552" lon="-3.78832">
        <ele>165</ele>
        <time>2020-06-08T08:55:26Z</time>
      </trkpt>
      <trkpt lat="48.10551" lon="-3.78836">
        <ele>165.1</ele>
        <time>2020-06-08T08:55:27Z</time>
      </trkpt>
      <trkpt lat="48.10549" lon="-3.78841">
        <ele>165.2</ele>
        <time>2020-06-08T08:55:28Z</time>
      </trkpt>
      <trkpt lat="48.10549" lon="-3.78844">
        <ele>165.3</ele>
        <time>2020-06-08T08:55:29Z</time>
      </trkpt>
      <trkpt lat="48.10548" lon="-3.7885">
        <ele>165.4</ele>
        <time>2020-06-08T08:55:30Z</time>
      </trkpt>
      <trkpt lat="48.10548" lon="-3.78852">
        <ele>165.5</ele>
        <time>2020-06-08T08:55:31Z</time>
      </trkpt>
      <trkpt lat="48.10547" lon="-3.78856">
        <ele>165.6</ele>
        <time>2020-06-08T08:55:32Z</time>
      </trkpt>
      <trkpt lat="48.10547" lon="-3.7886">
        <ele>165.7</ele>
        <time>2020-06-08T08:55:33Z</time>
      </trkpt>
      <trkpt lat="48.10547" lon="-3.78865">
        <ele>165.9</ele>
        <time>2020-06-08T08:55:34Z</time>
      </trkpt>
      <trkpt lat="48.10547" lon="-3.7887">
        <ele>166</ele>
        <time>2020-06-08T08:55:35Z</time>
      </trkpt>
      <trkpt lat="48.10547" lon="-3.78874">
        <ele>166.1</ele>
        <time>2020-06-08T08:55:36Z</time>
      </trkpt>
      <trkpt lat="48.10546" lon="-3.78879">
        <ele>166.3</ele>
        <time>2020-06-08T08:55:37Z</time>
      </trkpt>
      <trkpt lat="48.10547" lon="-3.78885">
        <ele>166.4</ele>
        <time>2020-06-08T08:55:38Z</time>
      </trkpt>
      <trkpt lat="48.10547" lon="-3.78887">
        <ele>166.5</ele>
        <time>2020-06-08T08:55:39Z</time>
      </trkpt>
      <trkpt lat="48.10547" lon="-3.78891">
        <ele>166.7</ele>
        <time>2020-06-08T08:55:40Z</time>
      </trkpt>
      <trkpt lat="48.10547" lon="-3.78896">
        <ele>166.8</ele>
        <time>2020-06-08T08:55:41Z</time>
      </trkpt>
      <trkpt lat="48.10547" lon="-3.789">
        <ele>167</ele>
        <time>2020-06-08T08:55:42Z</time>
      </trkpt>
      <trkpt lat="48.10547" lon="-3.78906">
        <ele>167.2</ele>
        <time>2020-06-08T08:55:43Z</time>
      </trkpt>
      <trkpt lat="48.10547" lon="-3.78908">
        <ele>167.3</ele>
        <time>2020-06-08T08:55:44Z</time>
      </trkpt>
      <trkpt lat="48.10547" lon="-3.78912">
        <ele>167.5</ele>
        <time>2020-06-08T08:55:45Z</time>
      </trkpt>
      <trkpt lat="48.10547" lon="-3.78917">
        <ele>167.7</ele>
        <time>2020-06-08T08:55:46Z</time>
      </trkpt>
      <trkpt lat="48.10547" lon="-3.78923">
        <ele>167.9</ele>
        <time>2020-06-08T08:55:47Z</time>
      </trkpt>
      <trkpt lat="48.10547" lon="-3.78925">
        <ele>168</ele>
        <time>2020-06-08T08:55:48Z</time>
      </trkpt>
      <trkpt lat="48.10547" lon="-3.78931">
        <ele>168.3</ele>
        <time>2020-06-08T08:55:49Z</time>
      </trkpt>
      <trkpt lat="48.10547" lon="-3.78933">
        <ele>168.4</ele>
        <time>2020-06-08T08:55:50Z</time>
      </trkpt>
      <trkpt lat="48.10547" lon="-3.78937">
        <ele>168.6</ele>
        <time>2020-06-08T08:55:51Z</time>
      </trkpt>
      <trkpt lat="48.10547" lon="-3.78939">
        <ele>168.6</ele>
        <time>2020-06-08T08:55:52Z</time>
      </trkpt>
      <trkpt lat="48.10546" lon="-3.78943">
        <ele>168.8</ele>
        <time>2020-06-08T08:55:53Z</time>
      </trkpt>
      <trkpt lat="48.10546" lon="-3.78948">
        <ele>169</ele>
        <time>2020-06-08T08:55:54Z</time>
      </trkpt>
      <trkpt lat="48.10546" lon="-3.7895">
        <ele>169.1</ele>
        <time>2020-06-08T08:55:55Z</time>
      </trkpt>
      <trkpt lat="48.10546" lon="-3.78954">
        <ele>169.3</ele>
        <time>2020-06-08T08:55:56Z</time>
      </trkpt>
      <trkpt lat="48.10545" lon="-3.78958">
        <ele>169.5</ele>
        <time>2020-06-08T08:55:57Z</time>
      </trkpt>
      <trkpt lat="48.10545" lon="-3.78962">
        <ele>169.6</ele>
        <time>2020-06-08T08:55:58Z</time>
      </trkpt>
      <trkpt lat="48.10546" lon="-3.78966">
        <ele>169.8</ele>
        <time>2020-06-08T08:55:59Z</time>
      </trkpt>
      <trkpt lat="48.10545" lon="-3.78971">
        <ele>170</ele>
        <time>2020-06-08T08:56:00Z</time>
      </trkpt>
      <trkpt lat="48.10544" lon="-3.78975">
        <ele>170.2</ele>
        <time>2020-06-08T08:56:01Z</time>
      </trkpt>
      <trkpt lat="48.10544" lon="-3.7898">
        <ele>170.4</ele>
        <time>2020-06-08T08:56:02Z</time>
      </trkpt>
      <trkpt lat="48.10545" lon="-3.78984">
        <ele>170.5</ele>
        <time>2020-06-08T08:56:03Z</time>
      </trkpt>
      <trkpt lat="48.10545" lon="-3.78986">
        <ele>170.6</ele>
        <time>2020-06-08T08:56:04Z</time>
      </trkpt>
      <trkpt lat="48.10546" lon="-3.78991">
        <ele>170.7</ele>
        <time>2020-06-08T08:56:05Z</time>
      </trkpt>
      <trkpt lat="48.10546" lon="-3.78993">
        <ele>170.8</ele>
        <time>2020-06-08T08:56:06Z</time>
      </trkpt>
      <trkpt lat="48.10547" lon="-3.78998">
        <ele>170.9</ele>
        <time>2020-06-08T08:56:07Z</time>
      </trkpt>
      <trkpt lat="48.10546" lon="-3.79003">
        <ele>171.1</ele>
        <time>2020-06-08T08:56:08Z</time>
      </trkpt>
      <trkpt lat="48.10546" lon="-3.79005">
        <ele>171.2</ele>
        <time>2020-06-08T08:56:09Z</time>
      </trkpt>
      <trkpt lat="48.10545" lon="-3.79011">
        <ele>171.4</ele>
        <time>2020-06-08T08:56:10Z</time>
      </trkpt>
      <trkpt lat="48.10545" lon="-3.79013">
        <ele>171.4</ele>
        <time>2020-06-08T08:56:11Z</time>
      </trkpt>
      <trkpt lat="48.10545" lon="-3.79018">
        <ele>171.6</ele>
        <time>2020-06-08T08:56:12Z</time>
      </trkpt>
      <trkpt lat="48.10545" lon="-3.7902">
        <ele>171.7</ele>
        <time>2020-06-08T08:56:13Z</time>
      </trkpt>
      <trkpt lat="48.10544" lon="-3.79025">
        <ele>171.8</ele>
        <time>2020-06-08T08:56:14Z</time>
      </trkpt>
      <trkpt lat="48.10543" lon="-3.79027">
        <ele>171.9</ele>
        <time>2020-06-08T08:56:15Z</time>
      </trkpt>
      <trkpt lat="48.10543" lon="-3.79032">
        <ele>172.1</ele>
        <time>2020-06-08T08:56:16Z</time>
      </trkpt>
      <trkpt lat="48.10544" lon="-3.79034">
        <ele>172.1</ele>
        <time>2020-06-08T08:56:17Z</time>
      </trkpt>
      <trkpt lat="48.10543" lon="-3.79038">
        <ele>172.2</ele>
        <time>2020-06-08T08:56:18Z</time>
      </trkpt>
      <trkpt lat="48.10543" lon="-3.79042">
        <ele>172.3</ele>
        <time>2020-06-08T08:56:19Z</time>
      </trkpt>
      <trkpt lat="48.10543" lon="-3.79047">
        <ele>172.5</ele>
        <time>2020-06-08T08:56:20Z</time>
      </trkpt>
      <trkpt lat="48.10541" lon="-3.79052">
        <ele>172.6</ele>
        <time>2020-06-08T08:56:21Z</time>
      </trkpt>
      <trkpt lat="48.10541" lon="-3.79057">
        <ele>172.8</ele>
        <time>2020-06-08T08:56:22Z</time>
      </trkpt>
      <trkpt lat="48.10541" lon="-3.79059">
        <ele>172.8</ele>
        <time>2020-06-08T08:56:23Z</time>
      </trkpt>
      <trkpt lat="48.1054" lon="-3.79065">
        <ele>173</ele>
        <time>2020-06-08T08:56:24Z</time>
      </trkpt>
      <trkpt lat="48.10539" lon="-3.79067">
        <ele>173</ele>
        <time>2020-06-08T08:56:25Z</time>
      </trkpt>
      <trkpt lat="48.10539" lon="-3.79071">
        <ele>173.1</ele>
        <time>2020-06-08T08:56:26Z</time>
      </trkpt>
      <trkpt lat="48.10539" lon="-3.79076">
        <ele>173.2</ele>
        <time>2020-06-08T08:56:27Z</time>
      </trkpt>
      <trkpt lat="48.10538" lon="-3.79081">
        <ele>173.3</ele>
        <time>2020-06-08T08:56:28Z</time>
      </trkpt>
      <trkpt lat="48.10538" lon="-3.79085">
        <ele>173.4</ele>
        <time>2020-06-08T08:56:29Z</time>
      </trkpt>
      <trkpt lat="48.10538" lon="-3.79089">
        <ele>173.5</ele>
        <time>2020-06-08T08:56:30Z</time>
      </trkpt>
      <trkpt lat="48.10538" lon="-3.79094">
        <ele>173.6</ele>
        <time>2020-06-08T08:56:31Z</time>
      </trkpt>
      <trkpt lat="48.10538" lon="-3.79098">
        <ele>173.7</ele>
        <time>2020-06-08T08:56:32Z</time>
      </trkpt>
      <trkpt lat="48.10538" lon="-3.79102">
        <ele>173.8</ele>
        <time>2020-06-08T08:56:33Z</time>
      </trkpt>
      <trkpt lat="48.10537" lon="-3.79107">
        <ele>173.8</ele>
        <time>2020-06-08T08:56:34Z</time>
      </trkpt>
      <trkpt lat="48.10537" lon="-3.79113">
        <ele>174</ele>
        <time>2020-06-08T08:56:35Z</time>
      </trkpt>
      <trkpt lat="48.10536" lon="-3.79115">
        <ele>174</ele>
        <time>2020-06-08T08:56:36Z</time>
      </trkpt>
      <trkpt lat="48.10536" lon="-3.7912">
        <ele>174.1</ele>
        <time>2020-06-08T08:56:37Z</time>
      </trkpt>
      <trkpt lat="48.10537" lon="-3.79125">
        <ele>174.2</ele>
        <time>2020-06-08T08:56:38Z</time>
      </trkpt>
      <trkpt lat="48.10536" lon="-3.7913">
        <ele>174.3</ele>
        <time>2020-06-08T08:56:39Z</time>
      </trkpt>
      <trkpt lat="48.10536" lon="-3.79135">
        <ele>174.5</ele>
        <time>2020-06-08T08:56:40Z</time>
      </trkpt>
      <trkpt lat="48.10535" lon="-3.7914">
        <ele>174.6</ele>
        <time>2020-06-08T08:56:41Z</time>
      </trkpt>
      <trkpt lat="48.10534" lon="-3.79145">
        <ele>174.7</ele>
        <time>2020-06-08T08:56:42Z</time>
      </trkpt>
      <trkpt lat="48.10534" lon="-3.7915">
        <ele>174.9</ele>
        <time>2020-06-08T08:56:43Z</time>
      </trkpt>
      <trkpt lat="48.10534" lon="-3.79155">
        <ele>175</ele>
        <time>2020-06-08T08:56:44Z</time>
      </trkpt>
      <trkpt lat="48.10534" lon="-3.79159">
        <ele>175.1</ele>
        <time>2020-06-08T08:56:45Z</time>
      </trkpt>
      <trkpt lat="48.10533" lon="-3.79164">
        <ele>175.2</ele>
        <time>2020-06-08T08:56:46Z</time>
      </trkpt>
      <trkpt lat="48.10532" lon="-3.79169">
        <ele>175.4</ele>
        <time>2020-06-08T08:56:47Z</time>
      </trkpt>
      <trkpt lat="48.10532" lon="-3.79174">
        <ele>175.5</ele>
        <time>2020-06-08T08:56:48Z</time>
      </trkpt>
      <trkpt lat="48.10531" lon="-3.79178">
        <ele>175.5</ele>
        <time>2020-06-08T08:56:49Z</time>
      </trkpt>
      <trkpt lat="48.10529" lon="-3.79183">
        <ele>175.6</ele>
        <time>2020-06-08T08:56:50Z</time>
      </trkpt>
      <trkpt lat="48.10528" lon="-3.79188">
        <ele>175.6</ele>
        <time>2020-06-08T08:56:51Z</time>
      </trkpt>
      <trkpt lat="48.10528" lon="-3.7919">
        <ele>175.7</ele>
        <time>2020-06-08T08:56:52Z</time>
      </trkpt>
      <trkpt lat="48.10527" lon="-3.79195">
        <ele>175.8</ele>
        <time>2020-06-08T08:56:53Z</time>
      </trkpt>
      <trkpt lat="48.10527" lon="-3.79198">
        <ele>175.8</ele>
        <time>2020-06-08T08:56:54Z</time>
      </trkpt>
      <trkpt lat="48.10527" lon="-3.79202">
        <ele>175.9</ele>
        <time>2020-06-08T08:56:55Z</time>
      </trkpt>
      <trkpt lat="48.10526" lon="-3.79207">
        <ele>176.1</ele>
        <time>2020-06-08T08:56:56Z</time>
      </trkpt>
      <trkpt lat="48.10526" lon="-3.7921">
        <ele>176.1</ele>
        <time>2020-06-08T08:56:57Z</time>
      </trkpt>
      <trkpt lat="48.10524" lon="-3.79214">
        <ele>176.3</ele>
        <time>2020-06-08T08:56:58Z</time>
      </trkpt>
      <trkpt lat="48.10524" lon="-3.79216">
        <ele>176.3</ele>
        <time>2020-06-08T08:56:59Z</time>
      </trkpt>
      <trkpt lat="48.10523" lon="-3.7922">
        <ele>176.4</ele>
        <time>2020-06-08T08:57:00Z</time>
      </trkpt>
      <trkpt lat="48.10522" lon="-3.79225">
        <ele>176.6</ele>
        <time>2020-06-08T08:57:01Z</time>
      </trkpt>
      <trkpt lat="48.10521" lon="-3.7923">
        <ele>176.8</ele>
        <time>2020-06-08T08:57:02Z</time>
      </trkpt>
      <trkpt lat="48.10519" lon="-3.79235">
        <ele>177</ele>
        <time>2020-06-08T08:57:03Z</time>
      </trkpt>
      <trkpt lat="48.10518" lon="-3.7924">
        <ele>177.1</ele>
        <time>2020-06-08T08:57:04Z</time>
      </trkpt>
      <trkpt lat="48.10516" lon="-3.79244">
        <ele>177.3</ele>
        <time>2020-06-08T08:57:05Z</time>
      </trkpt>
      <trkpt lat="48.10515" lon="-3.79248">
        <ele>177.4</ele>
        <time>2020-06-08T08:57:06Z</time>
      </trkpt>
      <trkpt lat="48.10514" lon="-3.79252">
        <ele>177.6</ele>
        <time>2020-06-08T08:57:07Z</time>
      </trkpt>
      <trkpt lat="48.10512" lon="-3.79258">
        <ele>177.8</ele>
        <time>2020-06-08T08:57:08Z</time>
      </trkpt>
      <trkpt lat="48.10511" lon="-3.7926">
        <ele>177.8</ele>
        <time>2020-06-08T08:57:09Z</time>
      </trkpt>
      <trkpt lat="48.10509" lon="-3.79265">
        <ele>178</ele>
        <time>2020-06-08T08:57:10Z</time>
      </trkpt>
      <trkpt lat="48.10508" lon="-3.79269">
        <ele>178.1</ele>
        <time>2020-06-08T08:57:11Z</time>
      </trkpt>
      <trkpt lat="48.10507" lon="-3.79273">
        <ele>178.3</ele>
        <time>2020-06-08T08:57:12Z</time>
      </trkpt>
      <trkpt lat="48.10506" lon="-3.79278">
        <ele>178.4</ele>
        <time>2020-06-08T08:57:13Z</time>
      </trkpt>
      <trkpt lat="48.10505" lon="-3.79282">
        <ele>178.6</ele>
        <time>2020-06-08T08:57:14Z</time>
      </trkpt>
      <trkpt lat="48.10505" lon="-3.79288">
        <ele>178.7</ele>
        <time>2020-06-08T08:57:15Z</time>
      </trkpt>
      <trkpt lat="48.10504" lon="-3.79292">
        <ele>178.9</ele>
        <time>2020-06-08T08:57:16Z</time>
      </trkpt>
      <trkpt lat="48.10502" lon="-3.79296">
        <ele>179</ele>
        <time>2020-06-08T08:57:17Z</time>
      </trkpt>
      <trkpt lat="48.10501" lon="-3.79301">
        <ele>179.1</ele>
        <time>2020-06-08T08:57:18Z</time>
      </trkpt>
      <trkpt lat="48.105" lon="-3.79306">
        <ele>179.3</ele>
        <time>2020-06-08T08:57:19Z</time>
      </trkpt>
      <trkpt lat="48.10498" lon="-3.7931">
        <ele>179.4</ele>
        <time>2020-06-08T08:57:20Z</time>
      </trkpt>
      <trkpt lat="48.10497" lon="-3.79314">
        <ele>179.5</ele>
        <time>2020-06-08T08:57:21Z</time>
      </trkpt>
      <trkpt lat="48.10496" lon="-3.79319">
        <ele>179.6</ele>
        <time>2020-06-08T08:57:22Z</time>
      </trkpt>
      <trkpt lat="48.10495" lon="-3.79322">
        <ele>179.7</ele>
        <time>2020-06-08T08:57:23Z</time>
      </trkpt>
      <trkpt lat="48.10494" lon="-3.79327">
        <ele>179.8</ele>
        <time>2020-06-08T08:57:24Z</time>
      </trkpt>
      <trkpt lat="48.10492" lon="-3.79331">
        <ele>179.8</ele>
        <time>2020-06-08T08:57:25Z</time>
      </trkpt>
      <trkpt lat="48.1049" lon="-3.79336">
        <ele>179.9</ele>
        <time>2020-06-08T08:57:26Z</time>
      </trkpt>
      <trkpt lat="48.10489" lon="-3.7934">
        <ele>180</ele>
        <time>2020-06-08T08:57:27Z</time>
      </trkpt>
      <trkpt lat="48.10488" lon="-3.79345">
        <ele>180.1</ele>
        <time>2020-06-08T08:57:28Z</time>
      </trkpt>
      <trkpt lat="48.10487" lon="-3.7935">
        <ele>180.1</ele>
        <time>2020-06-08T08:57:29Z</time>
      </trkpt>
      <trkpt lat="48.10487" lon="-3.79355">
        <ele>180.1</ele>
        <time>2020-06-08T08:57:30Z</time>
      </trkpt>
      <trkpt lat="48.10486" lon="-3.79361">
        <ele>180.1</ele>
        <time>2020-06-08T08:57:31Z</time>
      </trkpt>
      <trkpt lat="48.10485" lon="-3.79368">
        <ele>180.1</ele>
        <time>2020-06-08T08:57:32Z</time>
      </trkpt>
      <trkpt lat="48.10485" lon="-3.79374">
        <ele>180.1</ele>
        <time>2020-06-08T08:57:33Z</time>
      </trkpt>
      <trkpt lat="48.10485" lon="-3.7938">
        <ele>180.1</ele>
        <time>2020-06-08T08:57:34Z</time>
      </trkpt>
      <trkpt lat="48.10484" lon="-3.79386">
        <ele>180</ele>
        <time>2020-06-08T08:57:35Z</time>
      </trkpt>
      <trkpt lat="48.10483" lon="-3.79393">
        <ele>179.9</ele>
        <time>2020-06-08T08:57:36Z</time>
      </trkpt>
      <trkpt lat="48.10482" lon="-3.79399">
        <ele>179.8</ele>
        <time>2020-06-08T08:57:37Z</time>
      </trkpt>
      <trkpt lat="48.10481" lon="-3.79404">
        <ele>179.7</ele>
        <time>2020-06-08T08:57:38Z</time>
      </trkpt>
      <trkpt lat="48.10479" lon="-3.79409">
        <ele>179.5</ele>
        <time>2020-06-08T08:57:39Z</time>
      </trkpt>
      <trkpt lat="48.10477" lon="-3.79415">
        <ele>179.4</ele>
        <time>2020-06-08T08:57:40Z</time>
      </trkpt>
      <trkpt lat="48.10475" lon="-3.79421">
        <ele>179.3</ele>
        <time>2020-06-08T08:57:41Z</time>
      </trkpt>
      <trkpt lat="48.10473" lon="-3.79427">
        <ele>179.1</ele>
        <time>2020-06-08T08:57:42Z</time>
      </trkpt>
      <trkpt lat="48.10472" lon="-3.79435">
        <ele>178.9</ele>
        <time>2020-06-08T08:57:43Z</time>
      </trkpt>
      <trkpt lat="48.1047" lon="-3.79444">
        <ele>178.7</ele>
        <time>2020-06-08T08:57:44Z</time>
      </trkpt>
      <trkpt lat="48.10467" lon="-3.79454">
        <ele>178.5</ele>
        <time>2020-06-08T08:57:45Z</time>
      </trkpt>
      <trkpt lat="48.10465" lon="-3.79464">
        <ele>178.1</ele>
        <time>2020-06-08T08:57:46Z</time>
      </trkpt>
      <trkpt lat="48.10464" lon="-3.79474">
        <ele>177.8</ele>
        <time>2020-06-08T08:57:47Z</time>
      </trkpt>
      <trkpt lat="48.10462" lon="-3.79484">
        <ele>177.5</ele>
        <time>2020-06-08T08:57:48Z</time>
      </trkpt>
      <trkpt lat="48.10461" lon="-3.79494">
        <ele>177.2</ele>
        <time>2020-06-08T08:57:49Z</time>
      </trkpt>
      <trkpt lat="48.10461" lon="-3.79507">
        <ele>176.9</ele>
        <time>2020-06-08T08:57:50Z</time>
      </trkpt>
      <trkpt lat="48.1046" lon="-3.79518">
        <ele>176.5</ele>
        <time>2020-06-08T08:57:51Z</time>
      </trkpt>
      <trkpt lat="48.10459" lon="-3.79529">
        <ele>176</ele>
        <time>2020-06-08T08:57:52Z</time>
      </trkpt>
      <trkpt lat="48.10459" lon="-3.7954">
        <ele>175.6</ele>
        <time>2020-06-08T08:57:53Z</time>
      </trkpt>
      <trkpt lat="48.10459" lon="-3.79551">
        <ele>175.2</ele>
        <time>2020-06-08T08:57:54Z</time>
      </trkpt>
      <trkpt lat="48.10459" lon="-3.79562">
        <ele>174.7</ele>
        <time>2020-06-08T08:57:55Z</time>
      </trkpt>
      <trkpt lat="48.1046" lon="-3.79574">
        <ele>174.2</ele>
        <time>2020-06-08T08:57:56Z</time>
      </trkpt>
      <trkpt lat="48.1046" lon="-3.79587">
        <ele>173.6</ele>
        <time>2020-06-08T08:57:57Z</time>
      </trkpt>
      <trkpt lat="48.10461" lon="-3.79599">
        <ele>173.1</ele>
        <time>2020-06-08T08:57:58Z</time>
      </trkpt>
      <trkpt lat="48.10462" lon="-3.79611">
        <ele>172.6</ele>
        <time>2020-06-08T08:57:59Z</time>
      </trkpt>
      <trkpt lat="48.10463" lon="-3.79624">
        <ele>172.1</ele>
        <time>2020-06-08T08:58:00Z</time>
      </trkpt>
      <trkpt lat="48.10464" lon="-3.79638">
        <ele>171.6</ele>
        <time>2020-06-08T08:58:01Z</time>
      </trkpt>
      <trkpt lat="48.10466" lon="-3.79652">
        <ele>171.1</ele>
        <time>2020-06-08T08:58:02Z</time>
      </trkpt>
      <trkpt lat="48.10468" lon="-3.79665">
        <ele>170.7</ele>
        <time>2020-06-08T08:58:03Z</time>
      </trkpt>
      <trkpt lat="48.10471" lon="-3.79679">
        <ele>170.3</ele>
        <time>2020-06-08T08:58:04Z</time>
      </trkpt>
      <trkpt lat="48.10473" lon="-3.79692">
        <ele>169.9</ele>
        <time>2020-06-08T08:58:05Z</time>
      </trkpt>
      <trkpt lat="48.10475" lon="-3.79705">
        <ele>169.6</ele>
        <time>2020-06-08T08:58:06Z</time>
      </trkpt>
      <trkpt lat="48.10478" lon="-3.79717">
        <ele>169.3</ele>
        <time>2020-06-08T08:58:07Z</time>
      </trkpt>
      <trkpt lat="48.1048" lon="-3.7973">
        <ele>169</ele>
        <time>2020-06-08T08:58:08Z</time>
      </trkpt>
      <trkpt lat="48.10482" lon="-3.79742">
        <ele>168.8</ele>
        <time>2020-06-08T08:58:09Z</time>
      </trkpt>
      <trkpt lat="48.10484" lon="-3.79755">
        <ele>168.5</ele>
        <time>2020-06-08T08:58:10Z</time>
      </trkpt>
      <trkpt lat="48.10486" lon="-3.79766">
        <ele>168.3</ele>
        <time>2020-06-08T08:58:11Z</time>
      </trkpt>
      <trkpt lat="48.10489" lon="-3.79778">
        <ele>168.1</ele>
        <time>2020-06-08T08:58:12Z</time>
      </trkpt>
      <trkpt lat="48.10491" lon="-3.79789">
        <ele>167.8</ele>
        <time>2020-06-08T08:58:13Z</time>
      </trkpt>
      <trkpt lat="48.10493" lon="-3.798">
        <ele>167.6</ele>
        <time>2020-06-08T08:58:14Z</time>
      </trkpt>
      <trkpt lat="48.10495" lon="-3.79811">
        <ele>167.3</ele>
        <time>2020-06-08T08:58:15Z</time>
      </trkpt>
      <trkpt lat="48.10496" lon="-3.79822">
        <ele>167.2</ele>
        <time>2020-06-08T08:58:16Z</time>
      </trkpt>
      <trkpt lat="48.10498" lon="-3.79833">
        <ele>167.1</ele>
        <time>2020-06-08T08:58:17Z</time>
      </trkpt>
      <trkpt lat="48.10499" lon="-3.79844">
        <ele>167</ele>
        <time>2020-06-08T08:58:18Z</time>
      </trkpt>
      <trkpt lat="48.10501" lon="-3.79854">
        <ele>166.8</ele>
        <time>2020-06-08T08:58:19Z</time>
      </trkpt>
      <trkpt lat="48.10503" lon="-3.79864">
        <ele>166.6</ele>
        <time>2020-06-08T08:58:20Z</time>
      </trkpt>
      <trkpt lat="48.10505" lon="-3.79874">
        <ele>166.4</ele>
        <time>2020-06-08T08:58:21Z</time>
      </trkpt>
      <trkpt lat="48.10506" lon="-3.79884">
        <ele>166.2</ele>
        <time>2020-06-08T08:58:22Z</time>
      </trkpt>
      <trkpt lat="48.10507" lon="-3.79893">
        <ele>166</ele>
        <time>2020-06-08T08:58:23Z</time>
      </trkpt>
      <trkpt lat="48.10509" lon="-3.79903">
        <ele>165.7</ele>
        <time>2020-06-08T08:58:24Z</time>
      </trkpt>
      <trkpt lat="48.1051" lon="-3.79913">
        <ele>165.4</ele>
        <time>2020-06-08T08:58:25Z</time>
      </trkpt>
      <trkpt lat="48.10511" lon="-3.79924">
        <ele>165.1</ele>
        <time>2020-06-08T08:58:26Z</time>
      </trkpt>
      <trkpt lat="48.10512" lon="-3.79935">
        <ele>164.8</ele>
        <time>2020-06-08T08:58:27Z</time>
      </trkpt>
      <trkpt lat="48.10513" lon="-3.79946">
        <ele>164.5</ele>
        <time>2020-06-08T08:58:28Z</time>
      </trkpt>
      <trkpt lat="48.10514" lon="-3.79956">
        <ele>164.3</ele>
        <time>2020-06-08T08:58:29Z</time>
      </trkpt>
      <trkpt lat="48.10514" lon="-3.79967">
        <ele>164</ele>
        <time>2020-06-08T08:58:30Z</time>
      </trkpt>
      <trkpt lat="48.10515" lon="-3.79978">
        <ele>163.8</ele>
        <time>2020-06-08T08:58:31Z</time>
      </trkpt>
      <trkpt lat="48.10515" lon="-3.79989">
        <ele>163.6</ele>
        <time>2020-06-08T08:58:32Z</time>
      </trkpt>
      <trkpt lat="48.10516" lon="-3.8">
        <ele>163.4</ele>
        <time>2020-06-08T08:58:33Z</time>
      </trkpt>
      <trkpt lat="48.10516" lon="-3.80011">
        <ele>163.3</ele>
        <time>2020-06-08T08:58:34Z</time>
      </trkpt>
      <trkpt lat="48.10517" lon="-3.80022">
        <ele>163.1</ele>
        <time>2020-06-08T08:58:35Z</time>
      </trkpt>
      <trkpt lat="48.10518" lon="-3.80034">
        <ele>162.9</ele>
        <time>2020-06-08T08:58:36Z</time>
      </trkpt>
      <trkpt lat="48.1052" lon="-3.80044">
        <ele>162.7</ele>
        <time>2020-06-08T08:58:37Z</time>
      </trkpt>
      <trkpt lat="48.1052" lon="-3.80055">
        <ele>162.4</ele>
        <time>2020-06-08T08:58:38Z</time>
      </trkpt>
      <trkpt lat="48.10522" lon="-3.80066">
        <ele>162.1</ele>
        <time>2020-06-08T08:58:39Z</time>
      </trkpt>
      <trkpt lat="48.10523" lon="-3.80076">
        <ele>161.3</ele>
        <time>2020-06-08T08:58:40Z</time>
      </trkpt>
      <trkpt lat="48.10524" lon="-3.80087">
        <ele>161.5</ele>
        <time>2020-06-08T08:58:41Z</time>
      </trkpt>
      <trkpt lat="48.10526" lon="-3.80097">
        <ele>161.6</ele>
        <time>2020-06-08T08:58:42Z</time>
      </trkpt>
      <trkpt lat="48.10527" lon="-3.80106">
        <ele>161.5</ele>
        <time>2020-06-08T08:58:43Z</time>
      </trkpt>
      <trkpt lat="48.10529" lon="-3.80116">
        <ele>161.5</ele>
        <time>2020-06-08T08:58:44Z</time>
      </trkpt>
      <trkpt lat="48.1053" lon="-3.80126">
        <ele>161.3</ele>
        <time>2020-06-08T08:58:45Z</time>
      </trkpt>
      <trkpt lat="48.10531" lon="-3.80136">
        <ele>161.2</ele>
        <time>2020-06-08T08:58:46Z</time>
      </trkpt>
      <trkpt lat="48.10532" lon="-3.80146">
        <ele>161</ele>
        <time>2020-06-08T08:58:47Z</time>
      </trkpt>
      <trkpt lat="48.10533" lon="-3.80155">
        <ele>160.8</ele>
        <time>2020-06-08T08:58:48Z</time>
      </trkpt>
      <trkpt lat="48.10534" lon="-3.80165">
        <ele>160.6</ele>
        <time>2020-06-08T08:58:49Z</time>
      </trkpt>
      <trkpt lat="48.10534" lon="-3.80176">
        <ele>160.3</ele>
        <time>2020-06-08T08:58:50Z</time>
      </trkpt>
      <trkpt lat="48.10534" lon="-3.80186">
        <ele>160.1</ele>
        <time>2020-06-08T08:58:51Z</time>
      </trkpt>
      <trkpt lat="48.10535" lon="-3.80196">
        <ele>159.9</ele>
        <time>2020-06-08T08:58:52Z</time>
      </trkpt>
      <trkpt lat="48.10535" lon="-3.80206">
        <ele>159.7</ele>
        <time>2020-06-08T08:58:53Z</time>
      </trkpt>
      <trkpt lat="48.10535" lon="-3.80216">
        <ele>159.5</ele>
        <time>2020-06-08T08:58:54Z</time>
      </trkpt>
      <trkpt lat="48.10536" lon="-3.80226">
        <ele>159.3</ele>
        <time>2020-06-08T08:58:55Z</time>
      </trkpt>
      <trkpt lat="48.10536" lon="-3.80236">
        <ele>159.2</ele>
        <time>2020-06-08T08:58:56Z</time>
      </trkpt>
      <trkpt lat="48.10537" lon="-3.80246">
        <ele>159</ele>
        <time>2020-06-08T08:58:57Z</time>
      </trkpt>
      <trkpt lat="48.10537" lon="-3.80256">
        <ele>158.8</ele>
        <time>2020-06-08T08:58:58Z</time>
      </trkpt>
      <trkpt lat="48.10538" lon="-3.80266">
        <ele>158.6</ele>
        <time>2020-06-08T08:58:59Z</time>
      </trkpt>
      <trkpt lat="48.10538" lon="-3.80276">
        <ele>158.3</ele>
        <time>2020-06-08T08:59:00Z</time>
      </trkpt>
      <trkpt lat="48.10539" lon="-3.80286">
        <ele>158</ele>
        <time>2020-06-08T08:59:01Z</time>
      </trkpt>
      <trkpt lat="48.10539" lon="-3.80297">
        <ele>157.8</ele>
        <time>2020-06-08T08:59:02Z</time>
      </trkpt>
      <trkpt lat="48.1054" lon="-3.80308">
        <ele>157.5</ele>
        <time>2020-06-08T08:59:03Z</time>
      </trkpt>
      <trkpt lat="48.1054" lon="-3.80318">
        <ele>157.2</ele>
        <time>2020-06-08T08:59:04Z</time>
      </trkpt>
      <trkpt lat="48.1054" lon="-3.80329">
        <ele>156.9</ele>
        <time>2020-06-08T08:59:05Z</time>
      </trkpt>
      <trkpt lat="48.1054" lon="-3.8034">
        <ele>156.7</ele>
        <time>2020-06-08T08:59:06Z</time>
      </trkpt>
      <trkpt lat="48.1054" lon="-3.80352">
        <ele>156.3</ele>
        <time>2020-06-08T08:59:07Z</time>
      </trkpt>
      <trkpt lat="48.10541" lon="-3.80363">
        <ele>156</ele>
        <time>2020-06-08T08:59:08Z</time>
      </trkpt>
      <trkpt lat="48.10543" lon="-3.80374">
        <ele>155.7</ele>
        <time>2020-06-08T08:59:09Z</time>
      </trkpt>
      <trkpt lat="48.10545" lon="-3.80385">
        <ele>155.4</ele>
        <time>2020-06-08T08:59:10Z</time>
      </trkpt>
      <trkpt lat="48.10547" lon="-3.80396">
        <ele>155.1</ele>
        <time>2020-06-08T08:59:11Z</time>
      </trkpt>
      <trkpt lat="48.10551" lon="-3.80406">
        <ele>154.9</ele>
        <time>2020-06-08T08:59:12Z</time>
      </trkpt>
      <trkpt lat="48.10555" lon="-3.80416">
        <ele>154.6</ele>
        <time>2020-06-08T08:59:13Z</time>
      </trkpt>
      <trkpt lat="48.10559" lon="-3.80425">
        <ele>154.4</ele>
        <time>2020-06-08T08:59:14Z</time>
      </trkpt>
      <trkpt lat="48.10563" lon="-3.80435">
        <ele>154.2</ele>
        <time>2020-06-08T08:59:15Z</time>
      </trkpt>
      <trkpt lat="48.10567" lon="-3.80444">
        <ele>153.9</ele>
        <time>2020-06-08T08:59:16Z</time>
      </trkpt>
      <trkpt lat="48.10572" lon="-3.80453">
        <ele>153.5</ele>
        <time>2020-06-08T08:59:17Z</time>
      </trkpt>
      <trkpt lat="48.10577" lon="-3.80462">
        <ele>153.2</ele>
        <time>2020-06-08T08:59:18Z</time>
      </trkpt>
      <trkpt lat="48.10583" lon="-3.8047">
        <ele>152.8</ele>
        <time>2020-06-08T08:59:19Z</time>
      </trkpt>
      <trkpt lat="48.10588" lon="-3.80479">
        <ele>152.4</ele>
        <time>2020-06-08T08:59:20Z</time>
      </trkpt>
      <trkpt lat="48.10593" lon="-3.80488">
        <ele>152</ele>
        <time>2020-06-08T08:59:21Z</time>
      </trkpt>
      <trkpt lat="48.10599" lon="-3.80497">
        <ele>151.5</ele>
        <time>2020-06-08T08:59:22Z</time>
      </trkpt>
      <trkpt lat="48.10604" lon="-3.80507">
        <ele>150.9</ele>
        <time>2020-06-08T08:59:23Z</time>
      </trkpt>
      <trkpt lat="48.10609" lon="-3.80517">
        <ele>150.5</ele>
        <time>2020-06-08T08:59:24Z</time>
      </trkpt>
      <trkpt lat="48.10614" lon="-3.80527">
        <ele>150</ele>
        <time>2020-06-08T08:59:25Z</time>
      </trkpt>
      <trkpt lat="48.1062" lon="-3.80538">
        <ele>149.5</ele>
        <time>2020-06-08T08:59:26Z</time>
      </trkpt>
      <trkpt lat="48.10625" lon="-3.80548">
        <ele>148.9</ele>
        <time>2020-06-08T08:59:27Z</time>
      </trkpt>
      <trkpt lat="48.1063" lon="-3.80559">
        <ele>148.4</ele>
        <time>2020-06-08T08:59:28Z</time>
      </trkpt>
      <trkpt lat="48.10636" lon="-3.80569">
        <ele>147.9</ele>
        <time>2020-06-08T08:59:29Z</time>
      </trkpt>
      <trkpt lat="48.10642" lon="-3.8058">
        <ele>147.4</ele>
        <time>2020-06-08T08:59:30Z</time>
      </trkpt>
      <trkpt lat="48.10648" lon="-3.8059">
        <ele>146.9</ele>
        <time>2020-06-08T08:59:31Z</time>
      </trkpt>
      <trkpt lat="48.10654" lon="-3.806">
        <ele>146.5</ele>
        <time>2020-06-08T08:59:32Z</time>
      </trkpt>
      <trkpt lat="48.10661" lon="-3.80609">
        <ele>146.1</ele>
        <time>2020-06-08T08:59:33Z</time>
      </trkpt>
      <trkpt lat="48.10668" lon="-3.80617">
        <ele>145.7</ele>
        <time>2020-06-08T08:59:34Z</time>
      </trkpt>
      <trkpt lat="48.10675" lon="-3.80626">
        <ele>145.4</ele>
        <time>2020-06-08T08:59:35Z</time>
      </trkpt>
      <trkpt lat="48.10682" lon="-3.80635">
        <ele>145</ele>
        <time>2020-06-08T08:59:36Z</time>
      </trkpt>
      <trkpt lat="48.10689" lon="-3.80644">
        <ele>144.6</ele>
        <time>2020-06-08T08:59:37Z</time>
      </trkpt>
      <trkpt lat="48.10696" lon="-3.80652">
        <ele>144.3</ele>
        <time>2020-06-08T08:59:38Z</time>
      </trkpt>
      <trkpt lat="48.10702" lon="-3.80661">
        <ele>144.1</ele>
        <time>2020-06-08T08:59:39Z</time>
      </trkpt>
      <trkpt lat="48.10709" lon="-3.8067">
        <ele>143.8</ele>
        <time>2020-06-08T08:59:40Z</time>
      </trkpt>
      <trkpt lat="48.10715" lon="-3.80678">
        <ele>143.5</ele>
        <time>2020-06-08T08:59:41Z</time>
      </trkpt>
      <trkpt lat="48.10722" lon="-3.80686">
        <ele>143.2</ele>
        <time>2020-06-08T08:59:42Z</time>
      </trkpt>
      <trkpt lat="48.10729" lon="-3.80694">
        <ele>142.9</ele>
        <time>2020-06-08T08:59:43Z</time>
      </trkpt>
      <trkpt lat="48.10735" lon="-3.80701">
        <ele>142.6</ele>
        <time>2020-06-08T08:59:44Z</time>
      </trkpt>
      <trkpt lat="48.10742" lon="-3.80709">
        <ele>142.2</ele>
        <time>2020-06-08T08:59:45Z</time>
      </trkpt>
      <trkpt lat="48.10748" lon="-3.80718">
        <ele>141.9</ele>
        <time>2020-06-08T08:59:46Z</time>
      </trkpt>
      <trkpt lat="48.10754" lon="-3.80726">
        <ele>141.6</ele>
        <time>2020-06-08T08:59:47Z</time>
      </trkpt>
      <trkpt lat="48.10761" lon="-3.80736">
        <ele>141.1</ele>
        <time>2020-06-08T08:59:48Z</time>
      </trkpt>
      <trkpt lat="48.10768" lon="-3.80745">
        <ele>140.5</ele>
        <time>2020-06-08T08:59:49Z</time>
      </trkpt>
      <trkpt lat="48.10776" lon="-3.80754">
        <ele>139.8</ele>
        <time>2020-06-08T08:59:50Z</time>
      </trkpt>
      <trkpt lat="48.10783" lon="-3.80763">
        <ele>139</ele>
        <time>2020-06-08T08:59:51Z</time>
      </trkpt>
      <trkpt lat="48.10791" lon="-3.80772">
        <ele>138.3</ele>
        <time>2020-06-08T08:59:52Z</time>
      </trkpt>
      <trkpt lat="48.10798" lon="-3.80781">
        <ele>137.7</ele>
        <time>2020-06-08T08:59:53Z</time>
      </trkpt>
      <trkpt lat="48.10806" lon="-3.8079">
        <ele>137</ele>
        <time>2020-06-08T08:59:54Z</time>
      </trkpt>
      <trkpt lat="48.10814" lon="-3.80799">
        <ele>136.2</ele>
        <time>2020-06-08T08:59:55Z</time>
      </trkpt>
      <trkpt lat="48.10822" lon="-3.80809">
        <ele>135.3</ele>
        <time>2020-06-08T08:59:56Z</time>
      </trkpt>
      <trkpt lat="48.10831" lon="-3.80818">
        <ele>134.2</ele>
        <time>2020-06-08T08:59:57Z</time>
      </trkpt>
      <trkpt lat="48.1084" lon="-3.80829">
        <ele>133.1</ele>
        <time>2020-06-08T08:59:58Z</time>
      </trkpt>
      <trkpt lat="48.10847" lon="-3.80839">
        <ele>132.1</ele>
        <time>2020-06-08T08:59:59Z</time>
      </trkpt>
      <trkpt lat="48.10854" lon="-3.8085">
        <ele>131.2</ele>
        <time>2020-06-08T09:00:00Z</time>
      </trkpt>
      <trkpt lat="48.10861" lon="-3.80859">
        <ele>130.5</ele>
        <time>2020-06-08T09:00:01Z</time>
      </trkpt>
      <trkpt lat="48.10865" lon="-3.8087">
        <ele>129.7</ele>
        <time>2020-06-08T09:00:02Z</time>
      </trkpt>
      <trkpt lat="48.10869" lon="-3.80882">
        <ele>128.9</ele>
        <time>2020-06-08T09:00:03Z</time>
      </trkpt>
      <trkpt lat="48.10874" lon="-3.80896">
        <ele>128</ele>
        <time>2020-06-08T09:00:04Z</time>
      </trkpt>
      <trkpt lat="48.10879" lon="-3.8091">
        <ele>127.1</ele>
        <time>2020-06-08T09:00:05Z</time>
      </trkpt>
      <trkpt lat="48.1088" lon="-3.80924">
        <ele>126.6</ele>
        <time>2020-06-08T09:00:06Z</time>
      </trkpt>
      <trkpt lat="48.10882" lon="-3.80938">
        <ele>126.4</ele>
        <time>2020-06-08T09:00:07Z</time>
      </trkpt>
      <trkpt lat="48.10884" lon="-3.80951">
        <ele>126.2</ele>
        <time>2020-06-08T09:00:08Z</time>
      </trkpt>
      <trkpt lat="48.10886" lon="-3.80963">
        <ele>126.1</ele>
        <time>2020-06-08T09:00:09Z</time>
      </trkpt>
      <trkpt lat="48.10887" lon="-3.80974">
        <ele>126</ele>
        <time>2020-06-08T09:00:10Z</time>
      </trkpt>
      <trkpt lat="48.10888" lon="-3.80984">
        <ele>126</ele>
        <time>2020-06-08T09:00:11Z</time>
      </trkpt>
      <trkpt lat="48.10888" lon="-3.80995">
        <ele>126</ele>
        <time>2020-06-08T09:00:12Z</time>
      </trkpt>
      <trkpt lat="48.10887" lon="-3.81006">
        <ele>126</ele>
        <time>2020-06-08T09:00:13Z</time>
      </trkpt>
      <trkpt lat="48.10887" lon="-3.81016">
        <ele>126</ele>
        <time>2020-06-08T09:00:14Z</time>
      </trkpt>
      <trkpt lat="48.10887" lon="-3.81027">
        <ele>126</ele>
        <time>2020-06-08T09:00:15Z</time>
      </trkpt>
      <trkpt lat="48.10887" lon="-3.81036">
        <ele>126.1</ele>
        <time>2020-06-08T09:00:16Z</time>
      </trkpt>
      <trkpt lat="48.10888" lon="-3.81047">
        <ele>126.1</ele>
        <time>2020-06-08T09:00:17Z</time>
      </trkpt>
      <trkpt lat="48.10888" lon="-3.81058">
        <ele>126.1</ele>
        <time>2020-06-08T09:00:18Z</time>
      </trkpt>
      <trkpt lat="48.10887" lon="-3.81068">
        <ele>126.1</ele>
        <time>2020-06-08T09:00:19Z</time>
      </trkpt>
      <trkpt lat="48.10888" lon="-3.81077">
        <ele>126.2</ele>
        <time>2020-06-08T09:00:20Z</time>
      </trkpt>
      <trkpt lat="48.10886" lon="-3.81086">
        <ele>126.2</ele>
        <time>2020-06-08T09:00:21Z</time>
      </trkpt>
      <trkpt lat="48.10885" lon="-3.81095">
        <ele>126.2</ele>
        <time>2020-06-08T09:00:22Z</time>
      </trkpt>
      <trkpt lat="48.10885" lon="-3.81103">
        <ele>126.2</ele>
        <time>2020-06-08T09:00:23Z</time>
      </trkpt>
      <trkpt lat="48.10884" lon="-3.81111">
        <ele>126.2</ele>
        <time>2020-06-08T09:00:24Z</time>
      </trkpt>
      <trkpt lat="48.10884" lon="-3.81119">
        <ele>126.2</ele>
        <time>2020-06-08T09:00:25Z</time>
      </trkpt>
      <trkpt lat="48.10883" lon="-3.81127">
        <ele>126.2</ele>
        <time>2020-06-08T09:00:26Z</time>
      </trkpt>
      <trkpt lat="48.10882" lon="-3.81135">
        <ele>126.1</ele>
        <time>2020-06-08T09:00:27Z</time>
      </trkpt>
      <trkpt lat="48.10883" lon="-3.81144">
        <ele>126.1</ele>
        <time>2020-06-08T09:00:28Z</time>
      </trkpt>
      <trkpt lat="48.10883" lon="-3.8115">
        <ele>126</ele>
        <time>2020-06-08T09:00:29Z</time>
      </trkpt>
      <trkpt lat="48.10882" lon="-3.81156">
        <ele>125.9</ele>
        <time>2020-06-08T09:00:30Z</time>
      </trkpt>
      <trkpt lat="48.10881" lon="-3.81164">
        <ele>125.8</ele>
        <time>2020-06-08T09:00:31Z</time>
      </trkpt>
      <trkpt lat="48.10879" lon="-3.81173">
        <ele>125.6</ele>
        <time>2020-06-08T09:00:32Z</time>
      </trkpt>
      <trkpt lat="48.10878" lon="-3.81184">
        <ele>125.3</ele>
        <time>2020-06-08T09:00:33Z</time>
      </trkpt>
      <trkpt lat="48.10875" lon="-3.81195">
        <ele>124.8</ele>
        <time>2020-06-08T09:00:34Z</time>
      </trkpt>
      <trkpt lat="48.10871" lon="-3.81207">
        <ele>124.1</ele>
        <time>2020-06-08T09:00:35Z</time>
      </trkpt>
      <trkpt lat="48.10867" lon="-3.81219">
        <ele>123.4</ele>
        <time>2020-06-08T09:00:36Z</time>
      </trkpt>
      <trkpt lat="48.10864" lon="-3.81231">
        <ele>122.7</ele>
        <time>2020-06-08T09:00:37Z</time>
      </trkpt>
      <trkpt lat="48.10861" lon="-3.81243">
        <ele>122.1</ele>
        <time>2020-06-08T09:00:38Z</time>
      </trkpt>
      <trkpt lat="48.10858" lon="-3.81256">
        <ele>121.4</ele>
        <time>2020-06-08T09:00:39Z</time>
      </trkpt>
      <trkpt lat="48.10855" lon="-3.81269">
        <ele>120.8</ele>
        <time>2020-06-08T09:00:40Z</time>
      </trkpt>
      <trkpt lat="48.10853" lon="-3.81282">
        <ele>120.1</ele>
        <time>2020-06-08T09:00:41Z</time>
      </trkpt>
      <trkpt lat="48.1085" lon="-3.81296">
        <ele>119.4</ele>
        <time>2020-06-08T09:00:42Z</time>
      </trkpt>
      <trkpt lat="48.10848" lon="-3.8131">
        <ele>118.7</ele>
        <time>2020-06-08T09:00:43Z</time>
      </trkpt>
      <trkpt lat="48.10846" lon="-3.81325">
        <ele>118</ele>
        <time>2020-06-08T09:00:44Z</time>
      </trkpt>
      <trkpt lat="48.10847" lon="-3.81341">
        <ele>117.2</ele>
        <time>2020-06-08T09:00:45Z</time>
      </trkpt>
      <trkpt lat="48.10846" lon="-3.81356">
        <ele>116.4</ele>
        <time>2020-06-08T09:00:46Z</time>
      </trkpt>
      <trkpt lat="48.10845" lon="-3.81372">
        <ele>115.6</ele>
        <time>2020-06-08T09:00:47Z</time>
      </trkpt>
      <trkpt lat="48.10844" lon="-3.81387">
        <ele>114.8</ele>
        <time>2020-06-08T09:00:48Z</time>
      </trkpt>
      <trkpt lat="48.10843" lon="-3.81403">
        <ele>114</ele>
        <time>2020-06-08T09:00:49Z</time>
      </trkpt>
      <trkpt lat="48.10845" lon="-3.81419">
        <ele>113.3</ele>
        <time>2020-06-08T09:00:50Z</time>
      </trkpt>
      <trkpt lat="48.10849" lon="-3.81433">
        <ele>112.1</ele>
        <time>2020-06-08T09:00:51Z</time>
      </trkpt>
      <trkpt lat="48.10855" lon="-3.81447">
        <ele>111.4</ele>
        <time>2020-06-08T09:00:52Z</time>
      </trkpt>
      <trkpt lat="48.10862" lon="-3.81458">
        <ele>110.7</ele>
        <time>2020-06-08T09:00:53Z</time>
      </trkpt>
      <trkpt lat="48.1087" lon="-3.81467">
        <ele>110</ele>
        <time>2020-06-08T09:00:54Z</time>
      </trkpt>
      <trkpt lat="48.10879" lon="-3.81475">
        <ele>109.3</ele>
        <time>2020-06-08T09:00:55Z</time>
      </trkpt>
      <trkpt lat="48.10888" lon="-3.81483">
        <ele>108.7</ele>
        <time>2020-06-08T09:00:56Z</time>
      </trkpt>
      <trkpt lat="48.10896" lon="-3.81491">
        <ele>108.1</ele>
        <time>2020-06-08T09:00:57Z</time>
      </trkpt>
      <trkpt lat="48.10904" lon="-3.815">
        <ele>107.6</ele>
        <time>2020-06-08T09:00:58Z</time>
      </trkpt>
      <trkpt lat="48.10912" lon="-3.81508">
        <ele>107.2</ele>
        <time>2020-06-08T09:00:59Z</time>
      </trkpt>
      <trkpt lat="48.1092" lon="-3.81516">
        <ele>106.9</ele>
        <time>2020-06-08T09:01:00Z</time>
      </trkpt>
      <trkpt lat="48.10927" lon="-3.81525">
        <ele>106.6</ele>
        <time>2020-06-08T09:01:01Z</time>
      </trkpt>
      <trkpt lat="48.10934" lon="-3.81534">
        <ele>106.3</ele>
        <time>2020-06-08T09:01:02Z</time>
      </trkpt>
      <trkpt lat="48.10941" lon="-3.81542">
        <ele>106.1</ele>
        <time>2020-06-08T09:01:03Z</time>
      </trkpt>
      <trkpt lat="48.10949" lon="-3.81548">
        <ele>106</ele>
        <time>2020-06-08T09:01:04Z</time>
      </trkpt>
      <trkpt lat="48.10956" lon="-3.81554">
        <ele>105.8</ele>
        <time>2020-06-08T09:01:05Z</time>
      </trkpt>
      <trkpt lat="48.10964" lon="-3.8156">
        <ele>105.7</ele>
        <time>2020-06-08T09:01:06Z</time>
      </trkpt>
      <trkpt lat="48.10971" lon="-3.81565">
        <ele>105.6</ele>
        <time>2020-06-08T09:01:07Z</time>
      </trkpt>
      <trkpt lat="48.10978" lon="-3.81571">
        <ele>105.6</ele>
        <time>2020-06-08T09:01:08Z</time>
      </trkpt>
      <trkpt lat="48.10984" lon="-3.81577">
        <ele>105.6</ele>
        <time>2020-06-08T09:01:09Z</time>
      </trkpt>
      <trkpt lat="48.1099" lon="-3.81583">
        <ele>105.6</ele>
        <time>2020-06-08T09:01:10Z</time>
      </trkpt>
      <trkpt lat="48.10997" lon="-3.81588">
        <ele>105.6</ele>
        <time>2020-06-08T09:01:11Z</time>
      </trkpt>
      <trkpt lat="48.11003" lon="-3.81592">
        <ele>105.6</ele>
        <time>2020-06-08T09:01:12Z</time>
      </trkpt>
      <trkpt lat="48.11009" lon="-3.81597">
        <ele>105.7</ele>
        <time>2020-06-08T09:01:13Z</time>
      </trkpt>
      <trkpt lat="48.11015" lon="-3.81602">
        <ele>105.8</ele>
        <time>2020-06-08T09:01:14Z</time>
      </trkpt>
      <trkpt lat="48.1102" lon="-3.81607">
        <ele>105.9</ele>
        <time>2020-06-08T09:01:15Z</time>
      </trkpt>
      <trkpt lat="48.11025" lon="-3.81612">
        <ele>106</ele>
        <time>2020-06-08T09:01:16Z</time>
      </trkpt>
      <trkpt lat="48.11031" lon="-3.81617">
        <ele>106.2</ele>
        <time>2020-06-08T09:01:17Z</time>
      </trkpt>
      <trkpt lat="48.11036" lon="-3.81621">
        <ele>106.4</ele>
        <time>2020-06-08T09:01:18Z</time>
      </trkpt>
      <trkpt lat="48.1104" lon="-3.81625">
        <ele>106.6</ele>
        <time>2020-06-08T09:01:19Z</time>
      </trkpt>
      <trkpt lat="48.11045" lon="-3.81628">
        <ele>106.8</ele>
        <time>2020-06-08T09:01:20Z</time>
      </trkpt>
      <trkpt lat="48.1105" lon="-3.81632">
        <ele>107</ele>
        <time>2020-06-08T09:01:21Z</time>
      </trkpt>
      <trkpt lat="48.11054" lon="-3.81636">
        <ele>107.2</ele>
        <time>2020-06-08T09:01:22Z</time>
      </trkpt>
      <trkpt lat="48.11058" lon="-3.81638">
        <ele>107.3</ele>
        <time>2020-06-08T09:01:23Z</time>
      </trkpt>
      <trkpt lat="48.11061" lon="-3.8164">
        <ele>107.3</ele>
        <time>2020-06-08T09:01:24Z</time>
      </trkpt>
      <trkpt lat="48.11065" lon="-3.81641">
        <ele>107.3</ele>
        <time>2020-06-08T09:01:25Z</time>
      </trkpt>
      <trkpt lat="48.11067" lon="-3.81642">
        <ele>107.3</ele>
        <time>2020-06-08T09:01:26Z</time>
      </trkpt>
      <trkpt lat="48.11069" lon="-3.81643">
        <ele>107.3</ele>
        <time>2020-06-08T09:01:27Z</time>
      </trkpt>
      <trkpt lat="48.11069" lon="-3.81644">
        <ele>107.3</ele>
        <time>2020-06-08T09:01:28Z</time>
      </trkpt>
      <trkpt lat="48.11069" lon="-3.81644">
        <ele>107.3</ele>
        <time>2020-06-08T09:01:29Z</time>
      </trkpt>
      <trkpt lat="48.11069" lon="-3.81644">
        <ele>107.3</ele>
        <time>2020-06-08T09:01:30Z</time>
      </trkpt>
      <trkpt lat="48.11069" lon="-3.81643">
        <ele>107.3</ele>
        <time>2020-06-08T09:01:31Z</time>
      </trkpt>
      <trkpt lat="48.11069" lon="-3.81643">
        <ele>107.3</ele>
        <time>2020-06-08T09:01:32Z</time>
      </trkpt>
      <trkpt lat="48.11069" lon="-3.81643">
        <ele>107.3</ele>
        <time>2020-06-08T09:01:33Z</time>
      </trkpt>
      <trkpt lat="48.1107" lon="-3.81643">
        <ele>107.3</ele>
        <time>2020-06-08T09:01:34Z</time>
      </trkpt>
      <trkpt lat="48.1107" lon="-3.81642">
        <ele>107.3</ele>
        <time>2020-06-08T09:01:35Z</time>
      </trkpt>
      <trkpt lat="48.1107" lon="-3.81643">
        <ele>107.3</ele>
        <time>2020-06-08T09:01:36Z</time>
      </trkpt>
      <trkpt lat="48.1107" lon="-3.81643">
        <ele>107.3</ele>
        <time>2020-06-08T09:01:37Z</time>
      </trkpt>
      <trkpt lat="48.1107" lon="-3.81643">
        <ele>107.3</ele>
        <time>2020-06-08T09:01:38Z</time>
      </trkpt>
      <trkpt lat="48.1107" lon="-3.81642">
        <ele>107.3</ele>
        <time>2020-06-08T09:01:39Z</time>
      </trkpt>
      <trkpt lat="48.1107" lon="-3.81642">
        <ele>107.3</ele>
        <time>2020-06-08T09:01:40Z</time>
      </trkpt>
      <trkpt lat="48.11071" lon="-3.81644">
        <ele>107.2</ele>
        <time>2020-06-08T09:01:41Z</time>
      </trkpt>
      <trkpt lat="48.11073" lon="-3.81646">
        <ele>107.2</ele>
        <time>2020-06-08T09:01:42Z</time>
      </trkpt>
      <trkpt lat="48.11074" lon="-3.81649">
        <ele>107.2</ele>
        <time>2020-06-08T09:01:43Z</time>
      </trkpt>
      <trkpt lat="48.11075" lon="-3.81651">
        <ele>107.2</ele>
        <time>2020-06-08T09:01:44Z</time>
      </trkpt>
      <trkpt lat="48.11077" lon="-3.81654">
        <ele>107.2</ele>
        <time>2020-06-08T09:01:45Z</time>
      </trkpt>
      <trkpt lat="48.11078" lon="-3.81656">
        <ele>107.2</ele>
        <time>2020-06-08T09:05:24Z</time>
      </trkpt>
      <trkpt lat="48.11079" lon="-3.81658">
        <ele>107.2</ele>
        <time>2020-06-08T09:05:25Z</time>
      </trkpt>
      <trkpt lat="48.11083" lon="-3.81659">
        <ele>107.2</ele>
        <time>2020-06-08T09:05:26Z</time>
      </trkpt>
      <trkpt lat="48.11084" lon="-3.8166">
        <ele>107.2</ele>
        <time>2020-06-08T09:05:27Z</time>
      </trkpt>
      <trkpt lat="48.11086" lon="-3.8166">
        <ele>107.2</ele>
        <time>2020-06-08T09:05:28Z</time>
      </trkpt>
      <trkpt lat="48.11089" lon="-3.8166">
        <ele>107.2</ele>
        <time>2020-06-08T09:05:29Z</time>
      </trkpt>
      <trkpt lat="48.11093" lon="-3.8166">
        <ele>107.3</ele>
        <time>2020-06-08T09:05:30Z</time>
      </trkpt>
      <trkpt lat="48.11095" lon="-3.81661">
        <ele>107.3</ele>
        <time>2020-06-08T09:05:31Z</time>
      </trkpt>
      <trkpt lat="48.11098" lon="-3.81662">
        <ele>107.3</ele>
        <time>2020-06-08T09:05:32Z</time>
      </trkpt>
      <trkpt lat="48.11101" lon="-3.81664">
        <ele>107.4</ele>
        <time>2020-06-08T09:05:33Z</time>
      </trkpt>
      <trkpt lat="48.11104" lon="-3.81665">
        <ele>107.5</ele>
        <time>2020-06-08T09:05:34Z</time>
      </trkpt>
      <trkpt lat="48.11107" lon="-3.81666">
        <ele>107.5</ele>
        <time>2020-06-08T09:05:35Z</time>
      </trkpt>
      <trkpt lat="48.11108" lon="-3.81666">
        <ele>107.6</ele>
        <time>2020-06-08T09:05:36Z</time>
      </trkpt>
      <trkpt lat="48.11112" lon="-3.81668">
        <ele>107.7</ele>
        <time>2020-06-08T09:05:37Z</time>
      </trkpt>
      <trkpt lat="48.11113" lon="-3.81669">
        <ele>107.7</ele>
        <time>2020-06-08T09:05:38Z</time>
      </trkpt>
      <trkpt lat="48.11116" lon="-3.81669">
        <ele>107.8</ele>
        <time>2020-06-08T09:05:39Z</time>
      </trkpt>
      <trkpt lat="48.11119" lon="-3.8167">
        <ele>107.9</ele>
        <time>2020-06-08T09:05:40Z</time>
      </trkpt>
      <trkpt lat="48.11123" lon="-3.8167">
        <ele>108.1</ele>
        <time>2020-06-08T09:05:41Z</time>
      </trkpt>
      <trkpt lat="48.11124" lon="-3.8167">
        <ele>108.1</ele>
        <time>2020-06-08T09:05:42Z</time>
      </trkpt>
      <trkpt lat="48.11128" lon="-3.81669">
        <ele>108.3</ele>
        <time>2020-06-08T09:05:43Z</time>
      </trkpt>
      <trkpt lat="48.11131" lon="-3.8167">
        <ele>108.4</ele>
        <time>2020-06-08T09:05:44Z</time>
      </trkpt>
      <trkpt lat="48.11134" lon="-3.81671">
        <ele>108.6</ele>
        <time>2020-06-08T09:05:45Z</time>
      </trkpt>
      <trkpt lat="48.11137" lon="-3.81672">
        <ele>108.7</ele>
        <time>2020-06-08T09:05:46Z</time>
      </trkpt>
      <trkpt lat="48.1114" lon="-3.81673">
        <ele>108.9</ele>
        <time>2020-06-08T09:05:47Z</time>
      </trkpt>
      <trkpt lat="48.11142" lon="-3.81675">
        <ele>109</ele>
        <time>2020-06-08T09:05:48Z</time>
      </trkpt>
      <trkpt lat="48.11146" lon="-3.81677">
        <ele>109.2</ele>
        <time>2020-06-08T09:05:49Z</time>
      </trkpt>
      <trkpt lat="48.11147" lon="-3.81678">
        <ele>109.3</ele>
        <time>2020-06-08T09:05:50Z</time>
      </trkpt>
      <trkpt lat="48.1115" lon="-3.81678">
        <ele>109.6</ele>
        <time>2020-06-08T09:05:51Z</time>
      </trkpt>
      <trkpt lat="48.11152" lon="-3.8168">
        <ele>109.7</ele>
        <time>2020-06-08T09:05:52Z</time>
      </trkpt>
      <trkpt lat="48.11155" lon="-3.81682">
        <ele>109.8</ele>
        <time>2020-06-08T09:05:53Z</time>
      </trkpt>
      <trkpt lat="48.11157" lon="-3.81685">
        <ele>110</ele>
        <time>2020-06-08T09:05:54Z</time>
      </trkpt>
      <trkpt lat="48.1116" lon="-3.81688">
        <ele>110.2</ele>
        <time>2020-06-08T09:05:55Z</time>
      </trkpt>
      <trkpt lat="48.11161" lon="-3.8169">
        <ele>110.3</ele>
        <time>2020-06-08T09:05:56Z</time>
      </trkpt>
      <trkpt lat="48.11163" lon="-3.81693">
        <ele>110.4</ele>
        <time>2020-06-08T09:05:57Z</time>
      </trkpt>
      <trkpt lat="48.11164" lon="-3.81695">
        <ele>110.5</ele>
        <time>2020-06-08T09:05:58Z</time>
      </trkpt>
      <trkpt lat="48.11166" lon="-3.81698">
        <ele>110.7</ele>
        <time>2020-06-08T09:05:59Z</time>
      </trkpt>
      <trkpt lat="48.11166" lon="-3.81699">
        <ele>110.8</ele>
        <time>2020-06-08T09:06:00Z</time>
      </trkpt>
      <trkpt lat="48.11168" lon="-3.81702">
        <ele>110.9</ele>
        <time>2020-06-08T09:06:01Z</time>
      </trkpt>
      <trkpt lat="48.11168" lon="-3.81704">
        <ele>111</ele>
        <time>2020-06-08T09:06:02Z</time>
      </trkpt>
      <trkpt lat="48.11171" lon="-3.8171">
        <ele>111.3</ele>
        <time>2020-06-08T09:06:03Z</time>
      </trkpt>
      <trkpt lat="48.11172" lon="-3.81712">
        <ele>111.4</ele>
        <time>2020-06-08T09:06:04Z</time>
      </trkpt>
      <trkpt lat="48.11174" lon="-3.81715">
        <ele>111.7</ele>
        <time>2020-06-08T09:06:05Z</time>
      </trkpt>
      <trkpt lat="48.11175" lon="-3.81721">
        <ele>111.9</ele>
        <time>2020-06-08T09:06:06Z</time>
      </trkpt>
      <trkpt lat="48.11175" lon="-3.81723">
        <ele>112</ele>
        <time>2020-06-08T09:06:07Z</time>
      </trkpt>
      <trkpt lat="48.11175" lon="-3.81728">
        <ele>112.2</ele>
        <time>2020-06-08T09:06:08Z</time>
      </trkpt>
      <trkpt lat="48.11176" lon="-3.81732">
        <ele>112.4</ele>
        <time>2020-06-08T09:06:09Z</time>
      </trkpt>
      <trkpt lat="48.11176" lon="-3.81737">
        <ele>112.6</ele>
        <time>2020-06-08T09:06:10Z</time>
      </trkpt>
      <trkpt lat="48.11176" lon="-3.81739">
        <ele>112.7</ele>
        <time>2020-06-08T09:06:11Z</time>
      </trkpt>
      <trkpt lat="48.11176" lon="-3.81741">
        <ele>112.8</ele>
        <time>2020-06-08T09:06:12Z</time>
      </trkpt>
      <trkpt lat="48.11176" lon="-3.81744">
        <ele>112.9</ele>
        <time>2020-06-08T09:06:13Z</time>
      </trkpt>
      <trkpt lat="48.11177" lon="-3.81749">
        <ele>113.1</ele>
        <time>2020-06-08T09:06:14Z</time>
      </trkpt>
      <trkpt lat="48.11177" lon="-3.81751">
        <ele>113.2</ele>
        <time>2020-06-08T09:06:15Z</time>
      </trkpt>
      <trkpt lat="48.11177" lon="-3.81756">
        <ele>113.4</ele>
        <time>2020-06-08T09:06:16Z</time>
      </trkpt>
      <trkpt lat="48.11177" lon="-3.81757">
        <ele>113.4</ele>
        <time>2020-06-08T09:06:17Z</time>
      </trkpt>
      <trkpt lat="48.11177" lon="-3.81761">
        <ele>113.6</ele>
        <time>2020-06-08T09:06:18Z</time>
      </trkpt>
      <trkpt lat="48.11177" lon="-3.81766">
        <ele>113.8</ele>
        <time>2020-06-08T09:06:19Z</time>
      </trkpt>
      <trkpt lat="48.11177" lon="-3.81768">
        <ele>113.8</ele>
        <time>2020-06-08T09:06:20Z</time>
      </trkpt>
      <trkpt lat="48.11178" lon="-3.81772">
        <ele>114</ele>
        <time>2020-06-08T09:06:21Z</time>
      </trkpt>
      <trkpt lat="48.11178" lon="-3.81777">
        <ele>114.2</ele>
        <time>2020-06-08T09:06:22Z</time>
      </trkpt>
      <trkpt lat="48.11178" lon="-3.81783">
        <ele>114.4</ele>
        <time>2020-06-08T09:06:23Z</time>
      </trkpt>
      <trkpt lat="48.11178" lon="-3.81785">
        <ele>114.5</ele>
        <time>2020-06-08T09:06:24Z</time>
      </trkpt>
      <trkpt lat="48.11178" lon="-3.81791">
        <ele>114.8</ele>
        <time>2020-06-08T09:06:25Z</time>
      </trkpt>
      <trkpt lat="48.11178" lon="-3.81793">
        <ele>114.8</ele>
        <time>2020-06-08T09:06:26Z</time>
      </trkpt>
      <trkpt lat="48.11179" lon="-3.81797">
        <ele>115</ele>
        <time>2020-06-08T09:06:27Z</time>
      </trkpt>
      <trkpt lat="48.11178" lon="-3.81801">
        <ele>115.2</ele>
        <time>2020-06-08T09:06:28Z</time>
      </trkpt>
      <trkpt lat="48.11178" lon="-3.81806">
        <ele>115.4</ele>
        <time>2020-06-08T09:06:29Z</time>
      </trkpt>
      <trkpt lat="48.11178" lon="-3.81807">
        <ele>115.4</ele>
        <time>2020-06-08T09:06:30Z</time>
      </trkpt>
      <trkpt lat="48.11178" lon="-3.81811">
        <ele>115.6</ele>
        <time>2020-06-08T09:06:31Z</time>
      </trkpt>
      <trkpt lat="48.11178" lon="-3.81813">
        <ele>115.7</ele>
        <time>2020-06-08T09:06:32Z</time>
      </trkpt>
      <trkpt lat="48.11178" lon="-3.81818">
        <ele>115.9</ele>
        <time>2020-06-08T09:06:33Z</time>
      </trkpt>
      <trkpt lat="48.11179" lon="-3.8182">
        <ele>116</ele>
        <time>2020-06-08T09:06:34Z</time>
      </trkpt>
      <trkpt lat="48.11179" lon="-3.81824">
        <ele>116.2</ele>
        <time>2020-06-08T09:06:35Z</time>
      </trkpt>
      <trkpt lat="48.1118" lon="-3.81826">
        <ele>116.2</ele>
        <time>2020-06-08T09:06:36Z</time>
      </trkpt>
      <trkpt lat="48.1118" lon="-3.81831">
        <ele>116.5</ele>
        <time>2020-06-08T09:06:37Z</time>
      </trkpt>
      <trkpt lat="48.1118" lon="-3.81833">
        <ele>116.5</ele>
        <time>2020-06-08T09:06:38Z</time>
      </trkpt>
      <trkpt lat="48.1118" lon="-3.81838">
        <ele>116.8</ele>
        <time>2020-06-08T09:06:39Z</time>
      </trkpt>
      <trkpt lat="48.1118" lon="-3.8184">
        <ele>116.8</ele>
        <time>2020-06-08T09:06:40Z</time>
      </trkpt>
      <trkpt lat="48.1118" lon="-3.81845">
        <ele>117</ele>
        <time>2020-06-08T09:06:41Z</time>
      </trkpt>
      <trkpt lat="48.1118" lon="-3.81847">
        <ele>117.1</ele>
        <time>2020-06-08T09:06:42Z</time>
      </trkpt>
      <trkpt lat="48.1118" lon="-3.81851">
        <ele>117.3</ele>
        <time>2020-06-08T09:06:43Z</time>
      </trkpt>
      <trkpt lat="48.1118" lon="-3.81853">
        <ele>117.4</ele>
        <time>2020-06-08T09:06:44Z</time>
      </trkpt>
      <trkpt lat="48.1118" lon="-3.81858">
        <ele>117.6</ele>
        <time>2020-06-08T09:06:45Z</time>
      </trkpt>
      <trkpt lat="48.1118" lon="-3.8186">
        <ele>117.7</ele>
        <time>2020-06-08T09:06:46Z</time>
      </trkpt>
      <trkpt lat="48.1118" lon="-3.81865">
        <ele>117.9</ele>
        <time>2020-06-08T09:06:47Z</time>
      </trkpt>
      <trkpt lat="48.1118" lon="-3.81868">
        <ele>118</ele>
        <time>2020-06-08T09:06:48Z</time>
      </trkpt>
      <trkpt lat="48.1118" lon="-3.81872">
        <ele>118.1</ele>
        <time>2020-06-08T09:06:49Z</time>
      </trkpt>
      <trkpt lat="48.1118" lon="-3.81876">
        <ele>118.3</ele>
        <time>2020-06-08T09:06:50Z</time>
      </trkpt>
      <trkpt lat="48.11181" lon="-3.81881">
        <ele>118.5</ele>
        <time>2020-06-08T09:06:51Z</time>
      </trkpt>
      <trkpt lat="48.11181" lon="-3.81885">
        <ele>118.7</ele>
        <time>2020-06-08T09:06:52Z</time>
      </trkpt>
      <trkpt lat="48.11181" lon="-3.8189">
        <ele>118.8</ele>
        <time>2020-06-08T09:06:53Z</time>
      </trkpt>
      <trkpt lat="48.11181" lon="-3.81894">
        <ele>119</ele>
        <time>2020-06-08T09:06:54Z</time>
      </trkpt>
      <trkpt lat="48.11182" lon="-3.81898">
        <ele>119.2</ele>
        <time>2020-06-08T09:06:55Z</time>
      </trkpt>
      <trkpt lat="48.11182" lon="-3.81903">
        <ele>119.4</ele>
        <time>2020-06-08T09:06:56Z</time>
      </trkpt>
      <trkpt lat="48.11182" lon="-3.81909">
        <ele>119.6</ele>
        <time>2020-06-08T09:06:57Z</time>
      </trkpt>
      <trkpt lat="48.11182" lon="-3.8191">
        <ele>119.7</ele>
        <time>2020-06-08T09:06:58Z</time>
      </trkpt>
      <trkpt lat="48.11182" lon="-3.81915">
        <ele>119.9</ele>
        <time>2020-06-08T09:06:59Z</time>
      </trkpt>
      <trkpt lat="48.11182" lon="-3.81919">
        <ele>120.1</ele>
        <time>2020-06-08T09:07:00Z</time>
      </trkpt>
      <trkpt lat="48.11182" lon="-3.81924">
        <ele>120.3</ele>
        <time>2020-06-08T09:07:01Z</time>
      </trkpt>
      <trkpt lat="48.11182" lon="-3.81929">
        <ele>120.5</ele>
        <time>2020-06-08T09:07:02Z</time>
      </trkpt>
      <trkpt lat="48.11182" lon="-3.81933">
        <ele>120.7</ele>
        <time>2020-06-08T09:07:03Z</time>
      </trkpt>
      <trkpt lat="48.11182" lon="-3.81938">
        <ele>120.9</ele>
        <time>2020-06-08T09:07:04Z</time>
      </trkpt>
      <trkpt lat="48.11182" lon="-3.81939">
        <ele>121</ele>
        <time>2020-06-08T09:07:05Z</time>
      </trkpt>
      <trkpt lat="48.11183" lon="-3.81943">
        <ele>121.2</ele>
        <time>2020-06-08T09:07:06Z</time>
      </trkpt>
      <trkpt lat="48.11184" lon="-3.81945">
        <ele>121.3</ele>
        <time>2020-06-08T09:07:07Z</time>
      </trkpt>
      <trkpt lat="48.11184" lon="-3.81949">
        <ele>121.5</ele>
        <time>2020-06-08T09:07:08Z</time>
      </trkpt>
      <trkpt lat="48.11184" lon="-3.81951">
        <ele>121.6</ele>
        <time>2020-06-08T09:07:09Z</time>
      </trkpt>
      <trkpt lat="48.11184" lon="-3.81956">
        <ele>121.8</ele>
        <time>2020-06-08T09:07:10Z</time>
      </trkpt>
      <trkpt lat="48.11184" lon="-3.81957">
        <ele>121.9</ele>
        <time>2020-06-08T09:07:11Z</time>
      </trkpt>
      <trkpt lat="48.11185" lon="-3.81963">
        <ele>122.2</ele>
        <time>2020-06-08T09:07:12Z</time>
      </trkpt>
      <trkpt lat="48.11185" lon="-3.81965">
        <ele>122.2</ele>
        <time>2020-06-08T09:07:13Z</time>
      </trkpt>
      <trkpt lat="48.11186" lon="-3.81969">
        <ele>122.5</ele>
        <time>2020-06-08T09:07:14Z</time>
      </trkpt>
      <trkpt lat="48.11186" lon="-3.81971">
        <ele>122.6</ele>
        <time>2020-06-08T09:07:15Z</time>
      </trkpt>
      <trkpt lat="48.11187" lon="-3.81976">
        <ele>122.8</ele>
        <time>2020-06-08T09:07:16Z</time>
      </trkpt>
      <trkpt lat="48.11187" lon="-3.81977">
        <ele>122.9</ele>
        <time>2020-06-08T09:07:17Z</time>
      </trkpt>
      <trkpt lat="48.11188" lon="-3.81983">
        <ele>123.2</ele>
        <time>2020-06-08T09:07:18Z</time>
      </trkpt>
      <trkpt lat="48.11189" lon="-3.81985">
        <ele>123.3</ele>
        <time>2020-06-08T09:07:19Z</time>
      </trkpt>
      <trkpt lat="48.1119" lon="-3.81989">
        <ele>123.5</ele>
        <time>2020-06-08T09:07:20Z</time>
      </trkpt>
      <trkpt lat="48.1119" lon="-3.81994">
        <ele>123.7</ele>
        <time>2020-06-08T09:07:21Z</time>
      </trkpt>
      <trkpt lat="48.11191" lon="-3.81998">
        <ele>124</ele>
        <time>2020-06-08T09:07:22Z</time>
      </trkpt>
      <trkpt lat="48.11192" lon="-3.82002">
        <ele>124.2</ele>
        <time>2020-06-08T09:07:23Z</time>
      </trkpt>
      <trkpt lat="48.11193" lon="-3.82008">
        <ele>124.4</ele>
        <time>2020-06-08T09:07:24Z</time>
      </trkpt>
      <trkpt lat="48.11193" lon="-3.8201">
        <ele>124.5</ele>
        <time>2020-06-08T09:07:25Z</time>
      </trkpt>
      <trkpt lat="48.11194" lon="-3.82015">
        <ele>124.7</ele>
        <time>2020-06-08T09:07:26Z</time>
      </trkpt>
      <trkpt lat="48.11195" lon="-3.82017">
        <ele>124.8</ele>
        <time>2020-06-08T09:07:27Z</time>
      </trkpt>
      <trkpt lat="48.11195" lon="-3.82022">
        <ele>125.1</ele>
        <time>2020-06-08T09:07:28Z</time>
      </trkpt>
      <trkpt lat="48.11194" lon="-3.82024">
        <ele>125.1</ele>
        <time>2020-06-08T09:07:29Z</time>
      </trkpt>
      <trkpt lat="48.11195" lon="-3.82026">
        <ele>125.2</ele>
        <time>2020-06-08T09:07:30Z</time>
      </trkpt>
      <trkpt lat="48.11196" lon="-3.82029">
        <ele>125.3</ele>
        <time>2020-06-08T09:07:31Z</time>
      </trkpt>
      <trkpt lat="48.11198" lon="-3.82032">
        <ele>125.5</ele>
        <time>2020-06-08T09:07:32Z</time>
      </trkpt>
      <trkpt lat="48.11199" lon="-3.82033">
        <ele>125.6</ele>
        <time>2020-06-08T09:07:33Z</time>
      </trkpt>
      <trkpt lat="48.112" lon="-3.82035">
        <ele>125.7</ele>
        <time>2020-06-08T09:07:34Z</time>
      </trkpt>
      <trkpt lat="48.11201" lon="-3.82037">
        <ele>125.8</ele>
        <time>2020-06-08T09:07:35Z</time>
      </trkpt>
      <trkpt lat="48.11201" lon="-3.8204">
        <ele>125.9</ele>
        <time>2020-06-08T09:07:36Z</time>
      </trkpt>
      <trkpt lat="48.11201" lon="-3.82042">
        <ele>126</ele>
        <time>2020-06-08T09:07:37Z</time>
      </trkpt>
      <trkpt lat="48.11202" lon="-3.82045">
        <ele>126.1</ele>
        <time>2020-06-08T09:07:38Z</time>
      </trkpt>
      <trkpt lat="48.11203" lon="-3.82047">
        <ele>126.1</ele>
        <time>2020-06-08T09:07:39Z</time>
      </trkpt>
      <trkpt lat="48.11203" lon="-3.82049">
        <ele>126.2</ele>
        <time>2020-06-08T09:07:40Z</time>
      </trkpt>
      <trkpt lat="48.11204" lon="-3.82052">
        <ele>126.4</ele>
        <time>2020-06-08T09:07:41Z</time>
      </trkpt>
      <trkpt lat="48.11205" lon="-3.82053">
        <ele>126.4</ele>
        <time>2020-06-08T09:07:42Z</time>
      </trkpt>
      <trkpt lat="48.11206" lon="-3.82056">
        <ele>126.5</ele>
        <time>2020-06-08T09:07:43Z</time>
      </trkpt>
      <trkpt lat="48.11208" lon="-3.82059">
        <ele>126.7</ele>
        <time>2020-06-08T09:07:44Z</time>
      </trkpt>
      <trkpt lat="48.11208" lon="-3.82061">
        <ele>126.8</ele>
        <time>2020-06-08T09:07:45Z</time>
      </trkpt>
      <trkpt lat="48.11208" lon="-3.82066">
        <ele>126.9</ele>
        <time>2020-06-08T09:07:46Z</time>
      </trkpt>
      <trkpt lat="48.11209" lon="-3.82068">
        <ele>127</ele>
        <time>2020-06-08T09:07:47Z</time>
      </trkpt>
      <trkpt lat="48.1121" lon="-3.82071">
        <ele>127.1</ele>
        <time>2020-06-08T09:07:48Z</time>
      </trkpt>
      <trkpt lat="48.11211" lon="-3.82073">
        <ele>127.2</ele>
        <time>2020-06-08T09:07:49Z</time>
      </trkpt>
      <trkpt lat="48.11212" lon="-3.82078">
        <ele>127.2</ele>
        <time>2020-06-08T09:07:50Z</time>
      </trkpt>
      <trkpt lat="48.11212" lon="-3.82079">
        <ele>127.3</ele>
        <time>2020-06-08T09:07:51Z</time>
      </trkpt>
      <trkpt lat="48.11212" lon="-3.82084">
        <ele>127.3</ele>
        <time>2020-06-08T09:07:52Z</time>
      </trkpt>
      <trkpt lat="48.11212" lon="-3.82086">
        <ele>127.3</ele>
        <time>2020-06-08T09:07:53Z</time>
      </trkpt>
      <trkpt lat="48.11211" lon="-3.82091">
        <ele>127.3</ele>
        <time>2020-06-08T09:07:54Z</time>
      </trkpt>
      <trkpt lat="48.11211" lon="-3.82092">
        <ele>127.4</ele>
        <time>2020-06-08T09:07:55Z</time>
      </trkpt>
      <trkpt lat="48.11211" lon="-3.82096">
        <ele>127.4</ele>
        <time>2020-06-08T09:07:56Z</time>
      </trkpt>
      <trkpt lat="48.1121" lon="-3.82098">
        <ele>127.5</ele>
        <time>2020-06-08T09:07:57Z</time>
      </trkpt>
      <trkpt lat="48.1121" lon="-3.82102">
        <ele>127.5</ele>
        <time>2020-06-08T09:07:58Z</time>
      </trkpt>
      <trkpt lat="48.11211" lon="-3.82107">
        <ele>127.5</ele>
        <time>2020-06-08T09:07:59Z</time>
      </trkpt>
      <trkpt lat="48.11211" lon="-3.82108">
        <ele>127.6</ele>
        <time>2020-06-08T09:08:00Z</time>
      </trkpt>
      <trkpt lat="48.11212" lon="-3.82112">
        <ele>127.6</ele>
        <time>2020-06-08T09:08:01Z</time>
      </trkpt>
      <trkpt lat="48.11211" lon="-3.82112">
        <ele>127.6</ele>
        <time>2020-06-08T09:08:02Z</time>
      </trkpt>
      <trkpt lat="48.11211" lon="-3.82113">
        <ele>127.6</ele>
        <time>2020-06-08T09:08:03Z</time>
      </trkpt>
      <trkpt lat="48.11211" lon="-3.82114">
        <ele>127.6</ele>
        <time>2020-06-08T09:08:04Z</time>
      </trkpt>
      <trkpt lat="48.11211" lon="-3.82115">
        <ele>127.6</ele>
        <time>2020-06-08T09:08:05Z</time>
      </trkpt>
      <trkpt lat="48.1121" lon="-3.82115">
        <ele>127.6</ele>
        <time>2020-06-08T09:08:06Z</time>
      </trkpt>
      <trkpt lat="48.1121" lon="-3.82116">
        <ele>127.6</ele>
        <time>2020-06-08T09:08:07Z</time>
      </trkpt>
      <trkpt lat="48.1121" lon="-3.82117">
        <ele>127.6</ele>
        <time>2020-06-08T09:08:08Z</time>
      </trkpt>
      <trkpt lat="48.1121" lon="-3.82118">
        <ele>127.6</ele>
        <time>2020-06-08T09:08:09Z</time>
      </trkpt>
      <trkpt lat="48.11209" lon="-3.82118">
        <ele>127.6</ele>
        <time>2020-06-08T09:08:10Z</time>
      </trkpt>
      <trkpt lat="48.11209" lon="-3.82119">
        <ele>127.6</ele>
        <time>2020-06-08T09:08:11Z</time>
      </trkpt>
      <trkpt lat="48.11209" lon="-3.8212">
        <ele>127.6</ele>
        <time>2020-06-08T09:08:12Z</time>
      </trkpt>
      <trkpt lat="48.11209" lon="-3.8212">
        <ele>127.6</ele>
        <time>2020-06-08T09:08:40Z</time>
      </trkpt>
      <trkpt lat="48.11208" lon="-3.82121">
        <ele>127.6</ele>
        <time>2020-06-08T09:08:41Z</time>
      </trkpt>
      <trkpt lat="48.11207" lon="-3.82127">
        <ele>127.5</ele>
        <time>2020-06-08T09:08:42Z</time>
      </trkpt>
      <trkpt lat="48.11205" lon="-3.82132">
        <ele>127.5</ele>
        <time>2020-06-08T09:08:43Z</time>
      </trkpt>
      <trkpt lat="48.11204" lon="-3.8214">
        <ele>127.4</ele>
        <time>2020-06-08T09:08:44Z</time>
      </trkpt>
      <trkpt lat="48.11203" lon="-3.82147">
        <ele>127.3</ele>
        <time>2020-06-08T09:08:45Z</time>
      </trkpt>
      <trkpt lat="48.11203" lon="-3.82155">
        <ele>127.2</ele>
        <time>2020-06-08T09:08:46Z</time>
      </trkpt>
      <trkpt lat="48.11203" lon="-3.82162">
        <ele>127</ele>
        <time>2020-06-08T09:08:47Z</time>
      </trkpt>
      <trkpt lat="48.11203" lon="-3.82169">
        <ele>126.9</ele>
        <time>2020-06-08T09:08:48Z</time>
      </trkpt>
      <trkpt lat="48.11203" lon="-3.82175">
        <ele>126.8</ele>
        <time>2020-06-08T09:08:49Z</time>
      </trkpt>
      <trkpt lat="48.11203" lon="-3.82183">
        <ele>126.6</ele>
        <time>2020-06-08T09:08:50Z</time>
      </trkpt>
      <trkpt lat="48.11202" lon="-3.8219">
        <ele>126.4</ele>
        <time>2020-06-08T09:08:51Z</time>
      </trkpt>
      <trkpt lat="48.11203" lon="-3.82198">
        <ele>126.2</ele>
        <time>2020-06-08T09:08:52Z</time>
      </trkpt>
      <trkpt lat="48.11202" lon="-3.82206">
        <ele>126</ele>
        <time>2020-06-08T09:08:53Z</time>
      </trkpt>
      <trkpt lat="48.11202" lon="-3.82214">
        <ele>125.8</ele>
        <time>2020-06-08T09:08:54Z</time>
      </trkpt>
      <trkpt lat="48.11201" lon="-3.8222">
        <ele>125.6</ele>
        <time>2020-06-08T09:08:55Z</time>
      </trkpt>
      <trkpt lat="48.112" lon="-3.82229">
        <ele>125.3</ele>
        <time>2020-06-08T09:08:56Z</time>
      </trkpt>
      <trkpt lat="48.11199" lon="-3.82237">
        <ele>125.1</ele>
        <time>2020-06-08T09:08:57Z</time>
      </trkpt>
      <trkpt lat="48.11197" lon="-3.82246">
        <ele>124.8</ele>
        <time>2020-06-08T09:08:58Z</time>
      </trkpt>
      <trkpt lat="48.11197" lon="-3.82256">
        <ele>124.4</ele>
        <time>2020-06-08T09:08:59Z</time>
      </trkpt>
      <trkpt lat="48.11197" lon="-3.82265">
        <ele>124.1</ele>
        <time>2020-06-08T09:09:00Z</time>
      </trkpt>
      <trkpt lat="48.11196" lon="-3.82274">
        <ele>123.7</ele>
        <time>2020-06-08T09:09:01Z</time>
      </trkpt>
      <trkpt lat="48.11195" lon="-3.82284">
        <ele>123.4</ele>
        <time>2020-06-08T09:09:02Z</time>
      </trkpt>
      <trkpt lat="48.11194" lon="-3.82294">
        <ele>123</ele>
        <time>2020-06-08T09:09:03Z</time>
      </trkpt>
      <trkpt lat="48.11193" lon="-3.82305">
        <ele>122.6</ele>
        <time>2020-06-08T09:09:04Z</time>
      </trkpt>
      <trkpt lat="48.11193" lon="-3.82318">
        <ele>122.1</ele>
        <time>2020-06-08T09:09:05Z</time>
      </trkpt>
      <trkpt lat="48.11192" lon="-3.82329">
        <ele>121.7</ele>
        <time>2020-06-08T09:09:06Z</time>
      </trkpt>
      <trkpt lat="48.11192" lon="-3.82339">
        <ele>121.4</ele>
        <time>2020-06-08T09:09:07Z</time>
      </trkpt>
      <trkpt lat="48.11191" lon="-3.82353">
        <ele>120.8</ele>
        <time>2020-06-08T09:09:08Z</time>
      </trkpt>
      <trkpt lat="48.1119" lon="-3.82365">
        <ele>120.4</ele>
        <time>2020-06-08T09:09:09Z</time>
      </trkpt>
      <trkpt lat="48.11189" lon="-3.82378">
        <ele>119.9</ele>
        <time>2020-06-08T09:09:10Z</time>
      </trkpt>
      <trkpt lat="48.11188" lon="-3.8239">
        <ele>119.4</ele>
        <time>2020-06-08T09:09:11Z</time>
      </trkpt>
      <trkpt lat="48.11186" lon="-3.82403">
        <ele>118.8</ele>
        <time>2020-06-08T09:09:12Z</time>
      </trkpt>
      <trkpt lat="48.11184" lon="-3.82415">
        <ele>118.3</ele>
        <time>2020-06-08T09:09:13Z</time>
      </trkpt>
      <trkpt lat="48.11181" lon="-3.82428">
        <ele>117.7</ele>
        <time>2020-06-08T09:09:14Z</time>
      </trkpt>
      <trkpt lat="48.11178" lon="-3.8244">
        <ele>117</ele>
        <time>2020-06-08T09:09:15Z</time>
      </trkpt>
      <trkpt lat="48.11176" lon="-3.82453">
        <ele>116.3</ele>
        <time>2020-06-08T09:09:16Z</time>
      </trkpt>
      <trkpt lat="48.11174" lon="-3.82467">
        <ele>115.6</ele>
        <time>2020-06-08T09:09:17Z</time>
      </trkpt>
      <trkpt lat="48.11171" lon="-3.82482">
        <ele>115</ele>
        <time>2020-06-08T09:09:18Z</time>
      </trkpt>
      <trkpt lat="48.11167" lon="-3.82497">
        <ele>114.4</ele>
        <time>2020-06-08T09:09:19Z</time>
      </trkpt>
      <trkpt lat="48.11165" lon="-3.82512">
        <ele>114</ele>
        <time>2020-06-08T09:09:20Z</time>
      </trkpt>
      <trkpt lat="48.11163" lon="-3.82528">
        <ele>113.5</ele>
        <time>2020-06-08T09:09:21Z</time>
      </trkpt>
      <trkpt lat="48.11162" lon="-3.82544">
        <ele>113.2</ele>
        <time>2020-06-08T09:09:22Z</time>
      </trkpt>
      <trkpt lat="48.11162" lon="-3.8256">
        <ele>112.9</ele>
        <time>2020-06-08T09:09:23Z</time>
      </trkpt>
      <trkpt lat="48.11162" lon="-3.82575">
        <ele>112.8</ele>
        <time>2020-06-08T09:09:24Z</time>
      </trkpt>
      <trkpt lat="48.11162" lon="-3.8259">
        <ele>112.8</ele>
        <time>2020-06-08T09:09:25Z</time>
      </trkpt>
      <trkpt lat="48.11162" lon="-3.82604">
        <ele>112.9</ele>
        <time>2020-06-08T09:09:26Z</time>
      </trkpt>
      <trkpt lat="48.11162" lon="-3.82618">
        <ele>113.1</ele>
        <time>2020-06-08T09:09:27Z</time>
      </trkpt>
      <trkpt lat="48.11161" lon="-3.82631">
        <ele>113.3</ele>
        <time>2020-06-08T09:09:28Z</time>
      </trkpt>
      <trkpt lat="48.11161" lon="-3.82643">
        <ele>113.6</ele>
        <time>2020-06-08T09:09:29Z</time>
      </trkpt>
      <trkpt lat="48.11161" lon="-3.82655">
        <ele>113.9</ele>
        <time>2020-06-08T09:09:30Z</time>
      </trkpt>
      <trkpt lat="48.1116" lon="-3.82665">
        <ele>114.3</ele>
        <time>2020-06-08T09:09:31Z</time>
      </trkpt>
      <trkpt lat="48.1116" lon="-3.82675">
        <ele>114.7</ele>
        <time>2020-06-08T09:09:32Z</time>
      </trkpt>
      <trkpt lat="48.1116" lon="-3.82684">
        <ele>115.1</ele>
        <time>2020-06-08T09:09:33Z</time>
      </trkpt>
      <trkpt lat="48.1116" lon="-3.82693">
        <ele>115.5</ele>
        <time>2020-06-08T09:09:34Z</time>
      </trkpt>
      <trkpt lat="48.11163" lon="-3.82698">
        <ele>116</ele>
        <time>2020-06-08T09:09:35Z</time>
      </trkpt>
      <trkpt lat="48.11167" lon="-3.827">
        <ele>116.1</ele>
        <time>2020-06-08T09:09:36Z</time>
      </trkpt>
      <trkpt lat="48.11172" lon="-3.82699">
        <ele>116.1</ele>
        <time>2020-06-08T09:09:37Z</time>
      </trkpt>
      <trkpt lat="48.11176" lon="-3.82699">
        <ele>116.2</ele>
        <time>2020-06-08T09:09:38Z</time>
      </trkpt>
      <trkpt lat="48.11181" lon="-3.82698">
        <ele>116.2</ele>
        <time>2020-06-08T09:09:39Z</time>
      </trkpt>
      <trkpt lat="48.11185" lon="-3.82698">
        <ele>116.3</ele>
        <time>2020-06-08T09:09:40Z</time>
      </trkpt>
      <trkpt lat="48.11189" lon="-3.82698">
        <ele>116.3</ele>
        <time>2020-06-08T09:09:41Z</time>
      </trkpt>
      <trkpt lat="48.11193" lon="-3.82698">
        <ele>116.4</ele>
        <time>2020-06-08T09:09:42Z</time>
      </trkpt>
      <trkpt lat="48.11198" lon="-3.82697">
        <ele>116.5</ele>
        <time>2020-06-08T09:09:43Z</time>
      </trkpt>
      <trkpt lat="48.11202" lon="-3.82695">
        <ele>116.6</ele>
        <time>2020-06-08T09:09:44Z</time>
      </trkpt>
      <trkpt lat="48.11206" lon="-3.82694">
        <ele>116.7</ele>
        <time>2020-06-08T09:09:45Z</time>
      </trkpt>
      <trkpt lat="48.1121" lon="-3.82693">
        <ele>116.8</ele>
        <time>2020-06-08T09:09:46Z</time>
      </trkpt>
      <trkpt lat="48.11214" lon="-3.82691">
        <ele>117</ele>
        <time>2020-06-08T09:09:47Z</time>
      </trkpt>
      <trkpt lat="48.11218" lon="-3.82691">
        <ele>117.1</ele>
        <time>2020-06-08T09:09:48Z</time>
      </trkpt>
      <trkpt lat="48.11223" lon="-3.82691">
        <ele>117.2</ele>
        <time>2020-06-08T09:09:49Z</time>
      </trkpt>
      <trkpt lat="48.11227" lon="-3.82691">
        <ele>117.3</ele>
        <time>2020-06-08T09:09:50Z</time>
      </trkpt>
      <trkpt lat="48.11231" lon="-3.82691">
        <ele>117.4</ele>
        <time>2020-06-08T09:09:51Z</time>
      </trkpt>
      <trkpt lat="48.11235" lon="-3.82691">
        <ele>117.5</ele>
        <time>2020-06-08T09:09:52Z</time>
      </trkpt>
      <trkpt lat="48.11239" lon="-3.82689">
        <ele>117.6</ele>
        <time>2020-06-08T09:09:53Z</time>
      </trkpt>
      <trkpt lat="48.11243" lon="-3.82689">
        <ele>117.7</ele>
        <time>2020-06-08T09:09:54Z</time>
      </trkpt>
      <trkpt lat="48.11246" lon="-3.82687">
        <ele>117.8</ele>
        <time>2020-06-08T09:09:55Z</time>
      </trkpt>
      <trkpt lat="48.11249" lon="-3.82686">
        <ele>117.9</ele>
        <time>2020-06-08T09:09:56Z</time>
      </trkpt>
      <trkpt lat="48.11252" lon="-3.82685">
        <ele>118</ele>
        <time>2020-06-08T09:09:57Z</time>
      </trkpt>
      <trkpt lat="48.11255" lon="-3.82684">
        <ele>118.1</ele>
        <time>2020-06-08T09:09:58Z</time>
      </trkpt>
      <trkpt lat="48.11258" lon="-3.82683">
        <ele>118.2</ele>
        <time>2020-06-08T09:09:59Z</time>
      </trkpt>
      <trkpt lat="48.11261" lon="-3.82682">
        <ele>118.3</ele>
        <time>2020-06-08T09:10:00Z</time>
      </trkpt>
      <trkpt lat="48.11264" lon="-3.82681">
        <ele>118.4</ele>
        <time>2020-06-08T09:10:01Z</time>
      </trkpt>
      <trkpt lat="48.11266" lon="-3.82679">
        <ele>118.5</ele>
        <time>2020-06-08T09:10:02Z</time>
      </trkpt>
      <trkpt lat="48.11269" lon="-3.82678">
        <ele>118.6</ele>
        <time>2020-06-08T09:10:03Z</time>
      </trkpt>
      <trkpt lat="48.11272" lon="-3.82677">
        <ele>118.7</ele>
        <time>2020-06-08T09:10:04Z</time>
      </trkpt>
      <trkpt lat="48.11275" lon="-3.82676">
        <ele>118.8</ele>
        <time>2020-06-08T09:10:05Z</time>
      </trkpt>
      <trkpt lat="48.11278" lon="-3.82677">
        <ele>118.9</ele>
        <time>2020-06-08T09:10:06Z</time>
      </trkpt>
      <trkpt lat="48.11281" lon="-3.82677">
        <ele>119</ele>
        <time>2020-06-08T09:10:07Z</time>
      </trkpt>
      <trkpt lat="48.11284" lon="-3.82676">
        <ele>119.1</ele>
        <time>2020-06-08T09:10:08Z</time>
      </trkpt>
      <trkpt lat="48.11288" lon="-3.82674">
        <ele>119.2</ele>
        <time>2020-06-08T09:10:09Z</time>
      </trkpt>
      <trkpt lat="48.11291" lon="-3.82673">
        <ele>119.4</ele>
        <time>2020-06-08T09:10:10Z</time>
      </trkpt>
      <trkpt lat="48.11294" lon="-3.82671">
        <ele>119.5</ele>
        <time>2020-06-08T09:10:11Z</time>
      </trkpt>
      <trkpt lat="48.11298" lon="-3.82672">
        <ele>119.6</ele>
        <time>2020-06-08T09:10:12Z</time>
      </trkpt>
      <trkpt lat="48.11302" lon="-3.82672">
        <ele>119.7</ele>
        <time>2020-06-08T09:10:13Z</time>
      </trkpt>
      <trkpt lat="48.11305" lon="-3.82671">
        <ele>119.8</ele>
        <time>2020-06-08T09:10:14Z</time>
      </trkpt>
      <trkpt lat="48.11308" lon="-3.8267">
        <ele>119.9</ele>
        <time>2020-06-08T09:10:15Z</time>
      </trkpt>
      <trkpt lat="48.11311" lon="-3.82669">
        <ele>119.9</ele>
        <time>2020-06-08T09:10:16Z</time>
      </trkpt>
      <trkpt lat="48.11314" lon="-3.82667">
        <ele>120</ele>
        <time>2020-06-08T09:10:17Z</time>
      </trkpt>
      <trkpt lat="48.11316" lon="-3.82666">
        <ele>120.1</ele>
        <time>2020-06-08T09:10:18Z</time>
      </trkpt>
      <trkpt lat="48.11319" lon="-3.82666">
        <ele>120.1</ele>
        <time>2020-06-08T09:10:19Z</time>
      </trkpt>
      <trkpt lat="48.11322" lon="-3.82666">
        <ele>120.2</ele>
        <time>2020-06-08T09:10:20Z</time>
      </trkpt>
      <trkpt lat="48.11325" lon="-3.82665">
        <ele>120.3</ele>
        <time>2020-06-08T09:10:21Z</time>
      </trkpt>
      <trkpt lat="48.11328" lon="-3.82664">
        <ele>120.4</ele>
        <time>2020-06-08T09:10:22Z</time>
      </trkpt>
      <trkpt lat="48.11331" lon="-3.82661">
        <ele>120.5</ele>
        <time>2020-06-08T09:10:23Z</time>
      </trkpt>
      <trkpt lat="48.11334" lon="-3.8266">
        <ele>120.6</ele>
        <time>2020-06-08T09:10:24Z</time>
      </trkpt>
      <trkpt lat="48.11337" lon="-3.8266">
        <ele>120.6</ele>
        <time>2020-06-08T09:10:25Z</time>
      </trkpt>
      <trkpt lat="48.1134" lon="-3.82659">
        <ele>120.7</ele>
        <time>2020-06-08T09:10:26Z</time>
      </trkpt>
      <trkpt lat="48.11344" lon="-3.8266">
        <ele>120.9</ele>
        <time>2020-06-08T09:10:27Z</time>
      </trkpt>
      <trkpt lat="48.11347" lon="-3.8266">
        <ele>121</ele>
        <time>2020-06-08T09:10:28Z</time>
      </trkpt>
      <trkpt lat="48.11352" lon="-3.82659">
        <ele>121.2</ele>
        <time>2020-06-08T09:10:29Z</time>
      </trkpt>
      <trkpt lat="48.11356" lon="-3.82657">
        <ele>121.5</ele>
        <time>2020-06-08T09:10:30Z</time>
      </trkpt>
      <trkpt lat="48.1136" lon="-3.82657">
        <ele>121.7</ele>
        <time>2020-06-08T09:10:31Z</time>
      </trkpt>
      <trkpt lat="48.11364" lon="-3.82657">
        <ele>121.8</ele>
        <time>2020-06-08T09:10:32Z</time>
      </trkpt>
      <trkpt lat="48.11368" lon="-3.82657">
        <ele>122</ele>
        <time>2020-06-08T09:10:33Z</time>
      </trkpt>
      <trkpt lat="48.11372" lon="-3.82656">
        <ele>122.2</ele>
        <time>2020-06-08T09:10:34Z</time>
      </trkpt>
      <trkpt lat="48.11376" lon="-3.82656">
        <ele>122.3</ele>
        <time>2020-06-08T09:10:35Z</time>
      </trkpt>
      <trkpt lat="48.11379" lon="-3.82655">
        <ele>122.5</ele>
        <time>2020-06-08T09:10:36Z</time>
      </trkpt>
      <trkpt lat="48.11383" lon="-3.82654">
        <ele>122.4</ele>
        <time>2020-06-08T09:10:37Z</time>
      </trkpt>
      <trkpt lat="48.11387" lon="-3.82653">
        <ele>122.5</ele>
        <time>2020-06-08T09:10:38Z</time>
      </trkpt>
      <trkpt lat="48.11389" lon="-3.82652">
        <ele>122.5</ele>
        <time>2020-06-08T09:10:39Z</time>
      </trkpt>
      <trkpt lat="48.11393" lon="-3.82651">
        <ele>122.6</ele>
        <time>2020-06-08T09:10:40Z</time>
      </trkpt>
      <trkpt lat="48.11397" lon="-3.8265">
        <ele>122.7</ele>
        <time>2020-06-08T09:10:41Z</time>
      </trkpt>
      <trkpt lat="48.114" lon="-3.8265">
        <ele>122.8</ele>
        <time>2020-06-08T09:10:42Z</time>
      </trkpt>
      <trkpt lat="48.11404" lon="-3.82649">
        <ele>122.9</ele>
        <time>2020-06-08T09:10:43Z</time>
      </trkpt>
      <trkpt lat="48.11407" lon="-3.82647">
        <ele>123.1</ele>
        <time>2020-06-08T09:10:44Z</time>
      </trkpt>
      <trkpt lat="48.11411" lon="-3.82646">
        <ele>123.2</ele>
        <time>2020-06-08T09:10:45Z</time>
      </trkpt>
      <trkpt lat="48.11414" lon="-3.82646">
        <ele>123.2</ele>
        <time>2020-06-08T09:10:46Z</time>
      </trkpt>
      <trkpt lat="48.11417" lon="-3.82645">
        <ele>123.3</ele>
        <time>2020-06-08T09:10:47Z</time>
      </trkpt>
      <trkpt lat="48.11421" lon="-3.82644">
        <ele>123.4</ele>
        <time>2020-06-08T09:10:48Z</time>
      </trkpt>
      <trkpt lat="48.11423" lon="-3.82644">
        <ele>123.5</ele>
        <time>2020-06-08T09:10:49Z</time>
      </trkpt>
      <trkpt lat="48.11426" lon="-3.82644">
        <ele>123.6</ele>
        <time>2020-06-08T09:10:50Z</time>
      </trkpt>
      <trkpt lat="48.11429" lon="-3.82643">
        <ele>123.7</ele>
        <time>2020-06-08T09:10:51Z</time>
      </trkpt>
      <trkpt lat="48.11433" lon="-3.82643">
        <ele>123.8</ele>
        <time>2020-06-08T09:10:52Z</time>
      </trkpt>
      <trkpt lat="48.11436" lon="-3.82642">
        <ele>123.9</ele>
        <time>2020-06-08T09:10:53Z</time>
      </trkpt>
      <trkpt lat="48.11439" lon="-3.82641">
        <ele>124</ele>
        <time>2020-06-08T09:10:54Z</time>
      </trkpt>
      <trkpt lat="48.11442" lon="-3.8264">
        <ele>124.1</ele>
        <time>2020-06-08T09:10:55Z</time>
      </trkpt>
      <trkpt lat="48.11446" lon="-3.82639">
        <ele>124.2</ele>
        <time>2020-06-08T09:10:56Z</time>
      </trkpt>
      <trkpt lat="48.11449" lon="-3.82638">
        <ele>124.2</ele>
        <time>2020-06-08T09:10:57Z</time>
      </trkpt>
      <trkpt lat="48.11453" lon="-3.82637">
        <ele>124.3</ele>
        <time>2020-06-08T09:10:58Z</time>
      </trkpt>
      <trkpt lat="48.11456" lon="-3.82637">
        <ele>124.4</ele>
        <time>2020-06-08T09:10:59Z</time>
      </trkpt>
      <trkpt lat="48.1146" lon="-3.82637">
        <ele>124.5</ele>
        <time>2020-06-08T09:11:00Z</time>
      </trkpt>
      <trkpt lat="48.11463" lon="-3.82636">
        <ele>124.6</ele>
        <time>2020-06-08T09:11:01Z</time>
      </trkpt>
      <trkpt lat="48.11467" lon="-3.82635">
        <ele>124.7</ele>
        <time>2020-06-08T09:11:02Z</time>
      </trkpt>
      <trkpt lat="48.1147" lon="-3.82634">
        <ele>124.8</ele>
        <time>2020-06-08T09:11:03Z</time>
      </trkpt>
      <trkpt lat="48.11474" lon="-3.82634">
        <ele>124.9</ele>
        <time>2020-06-08T09:11:04Z</time>
      </trkpt>
      <trkpt lat="48.11477" lon="-3.82633">
        <ele>124.9</ele>
        <time>2020-06-08T09:11:05Z</time>
      </trkpt>
      <trkpt lat="48.11481" lon="-3.82633">
        <ele>125</ele>
        <time>2020-06-08T09:11:06Z</time>
      </trkpt>
      <trkpt lat="48.11485" lon="-3.82633">
        <ele>125.1</ele>
        <time>2020-06-08T09:11:07Z</time>
      </trkpt>
      <trkpt lat="48.11487" lon="-3.82633">
        <ele>125.2</ele>
        <time>2020-06-08T09:11:08Z</time>
      </trkpt>
      <trkpt lat="48.11491" lon="-3.82632">
        <ele>125.2</ele>
        <time>2020-06-08T09:11:09Z</time>
      </trkpt>
      <trkpt lat="48.11495" lon="-3.82631">
        <ele>125.2</ele>
        <time>2020-06-08T09:11:10Z</time>
      </trkpt>
      <trkpt lat="48.11499" lon="-3.82631">
        <ele>125.2</ele>
        <time>2020-06-08T09:11:11Z</time>
      </trkpt>
      <trkpt lat="48.11502" lon="-3.8263">
        <ele>125.3</ele>
        <time>2020-06-08T09:11:12Z</time>
      </trkpt>
      <trkpt lat="48.11506" lon="-3.82629">
        <ele>125.3</ele>
        <time>2020-06-08T09:11:13Z</time>
      </trkpt>
      <trkpt lat="48.1151" lon="-3.82629">
        <ele>125.3</ele>
        <time>2020-06-08T09:11:14Z</time>
      </trkpt>
      <trkpt lat="48.11514" lon="-3.82629">
        <ele>125.3</ele>
        <time>2020-06-08T09:11:15Z</time>
      </trkpt>
      <trkpt lat="48.11519" lon="-3.82629">
        <ele>125.4</ele>
        <time>2020-06-08T09:11:16Z</time>
      </trkpt>
      <trkpt lat="48.11524" lon="-3.82628">
        <ele>125.5</ele>
        <time>2020-06-08T09:11:17Z</time>
      </trkpt>
      <trkpt lat="48.11528" lon="-3.82628">
        <ele>125.5</ele>
        <time>2020-06-08T09:11:18Z</time>
      </trkpt>
      <trkpt lat="48.11532" lon="-3.82628">
        <ele>125.6</ele>
        <time>2020-06-08T09:11:19Z</time>
      </trkpt>
      <trkpt lat="48.11536" lon="-3.82628">
        <ele>125.6</ele>
        <time>2020-06-08T09:11:20Z</time>
      </trkpt>
      <trkpt lat="48.11539" lon="-3.82628">
        <ele>125.6</ele>
        <time>2020-06-08T09:11:21Z</time>
      </trkpt>
      <trkpt lat="48.11543" lon="-3.82628">
        <ele>125.7</ele>
        <time>2020-06-08T09:11:22Z</time>
      </trkpt>
      <trkpt lat="48.11546" lon="-3.82629">
        <ele>125.7</ele>
        <time>2020-06-08T09:11:23Z</time>
      </trkpt>
      <trkpt lat="48.1155" lon="-3.82628">
        <ele>125.7</ele>
        <time>2020-06-08T09:11:24Z</time>
      </trkpt>
      <trkpt lat="48.11553" lon="-3.82628">
        <ele>125.7</ele>
        <time>2020-06-08T09:11:25Z</time>
      </trkpt>
      <trkpt lat="48.11556" lon="-3.82628">
        <ele>125.7</ele>
        <time>2020-06-08T09:11:26Z</time>
      </trkpt>
      <trkpt lat="48.11559" lon="-3.82628">
        <ele>125.8</ele>
        <time>2020-06-08T09:11:27Z</time>
      </trkpt>
      <trkpt lat="48.11563" lon="-3.82628">
        <ele>125.8</ele>
        <time>2020-06-08T09:11:28Z</time>
      </trkpt>
      <trkpt lat="48.11567" lon="-3.82628">
        <ele>125.8</ele>
        <time>2020-06-08T09:11:29Z</time>
      </trkpt>
      <trkpt lat="48.11571" lon="-3.82629">
        <ele>125.9</ele>
        <time>2020-06-08T09:11:30Z</time>
      </trkpt>
      <trkpt lat="48.11575" lon="-3.82629">
        <ele>126</ele>
        <time>2020-06-08T09:11:31Z</time>
      </trkpt>
      <trkpt lat="48.11578" lon="-3.82629">
        <ele>126</ele>
        <time>2020-06-08T09:11:32Z</time>
      </trkpt>
      <trkpt lat="48.11581" lon="-3.82629">
        <ele>126.1</ele>
        <time>2020-06-08T09:11:33Z</time>
      </trkpt>
      <trkpt lat="48.11584" lon="-3.8263">
        <ele>126.2</ele>
        <time>2020-06-08T09:11:34Z</time>
      </trkpt>
      <trkpt lat="48.11586" lon="-3.8263">
        <ele>126.2</ele>
        <time>2020-06-08T09:11:35Z</time>
      </trkpt>
      <trkpt lat="48.11589" lon="-3.8263">
        <ele>126.3</ele>
        <time>2020-06-08T09:11:36Z</time>
      </trkpt>
      <trkpt lat="48.11594" lon="-3.8263">
        <ele>126.4</ele>
        <time>2020-06-08T09:11:37Z</time>
      </trkpt>
      <trkpt lat="48.11598" lon="-3.8263">
        <ele>126.5</ele>
        <time>2020-06-08T09:11:38Z</time>
      </trkpt>
      <trkpt lat="48.116" lon="-3.8263">
        <ele>126.5</ele>
        <time>2020-06-08T09:11:39Z</time>
      </trkpt>
      <trkpt lat="48.11604" lon="-3.8263">
        <ele>126.6</ele>
        <time>2020-06-08T09:11:40Z</time>
      </trkpt>
      <trkpt lat="48.11608" lon="-3.82631">
        <ele>126.7</ele>
        <time>2020-06-08T09:11:41Z</time>
      </trkpt>
      <trkpt lat="48.11611" lon="-3.8263">
        <ele>126.8</ele>
        <time>2020-06-08T09:11:42Z</time>
      </trkpt>
      <trkpt lat="48.11615" lon="-3.82631">
        <ele>126.9</ele>
        <time>2020-06-08T09:11:43Z</time>
      </trkpt>
      <trkpt lat="48.11618" lon="-3.82631">
        <ele>127</ele>
        <time>2020-06-08T09:11:44Z</time>
      </trkpt>
      <trkpt lat="48.11622" lon="-3.82631">
        <ele>127.1</ele>
        <time>2020-06-08T09:11:45Z</time>
      </trkpt>
      <trkpt lat="48.11626" lon="-3.82631">
        <ele>127.3</ele>
        <time>2020-06-08T09:11:46Z</time>
      </trkpt>
      <trkpt lat="48.1163" lon="-3.82631">
        <ele>127.5</ele>
        <time>2020-06-08T09:11:47Z</time>
      </trkpt>
      <trkpt lat="48.11634" lon="-3.8263">
        <ele>127.7</ele>
        <time>2020-06-08T09:11:48Z</time>
      </trkpt>
      <trkpt lat="48.11638" lon="-3.82629">
        <ele>127.8</ele>
        <time>2020-06-08T09:11:49Z</time>
      </trkpt>
      <trkpt lat="48.11644" lon="-3.82628">
        <ele>128</ele>
        <time>2020-06-08T09:11:50Z</time>
      </trkpt>
      <trkpt lat="48.11647" lon="-3.82627">
        <ele>128</ele>
        <time>2020-06-08T09:11:51Z</time>
      </trkpt>
      <trkpt lat="48.1165" lon="-3.82627">
        <ele>128.1</ele>
        <time>2020-06-08T09:11:52Z</time>
      </trkpt>
      <trkpt lat="48.11654" lon="-3.82625">
        <ele>128.1</ele>
        <time>2020-06-08T09:11:53Z</time>
      </trkpt>
      <trkpt lat="48.11658" lon="-3.82624">
        <ele>128.2</ele>
        <time>2020-06-08T09:11:54Z</time>
      </trkpt>
      <trkpt lat="48.11661" lon="-3.82622">
        <ele>128.3</ele>
        <time>2020-06-08T09:11:55Z</time>
      </trkpt>
      <trkpt lat="48.11665" lon="-3.82621">
        <ele>128.3</ele>
        <time>2020-06-08T09:11:56Z</time>
      </trkpt>
      <trkpt lat="48.11669" lon="-3.82619">
        <ele>128.4</ele>
        <time>2020-06-08T09:11:57Z</time>
      </trkpt>
      <trkpt lat="48.11672" lon="-3.82617">
        <ele>128.5</ele>
        <time>2020-06-08T09:11:58Z</time>
      </trkpt>
      <trkpt lat="48.11676" lon="-3.82615">
        <ele>128.6</ele>
        <time>2020-06-08T09:11:59Z</time>
      </trkpt>
      <trkpt lat="48.1168" lon="-3.82613">
        <ele>128.6</ele>
        <time>2020-06-08T09:12:00Z</time>
      </trkpt>
      <trkpt lat="48.11684" lon="-3.82611">
        <ele>128.7</ele>
        <time>2020-06-08T09:12:01Z</time>
      </trkpt>
      <trkpt lat="48.11687" lon="-3.82608">
        <ele>128.6</ele>
        <time>2020-06-08T09:12:02Z</time>
      </trkpt>
      <trkpt lat="48.11691" lon="-3.82606">
        <ele>128.4</ele>
        <time>2020-06-08T09:12:03Z</time>
      </trkpt>
      <trkpt lat="48.11693" lon="-3.82605">
        <ele>128.2</ele>
        <time>2020-06-08T09:12:04Z</time>
      </trkpt>
      <trkpt lat="48.11696" lon="-3.82603">
        <ele>127.8</ele>
        <time>2020-06-08T09:12:05Z</time>
      </trkpt>
      <trkpt lat="48.11699" lon="-3.82602">
        <ele>127.4</ele>
        <time>2020-06-08T09:12:06Z</time>
      </trkpt>
      <trkpt lat="48.11701" lon="-3.82599">
        <ele>127</ele>
        <time>2020-06-08T09:12:07Z</time>
      </trkpt>
      <trkpt lat="48.11705" lon="-3.82595">
        <ele>127.1</ele>
        <time>2020-06-08T09:12:08Z</time>
      </trkpt>
      <trkpt lat="48.11707" lon="-3.82592">
        <ele>127.2</ele>
        <time>2020-06-08T09:12:09Z</time>
      </trkpt>
      <trkpt lat="48.1171" lon="-3.8259">
        <ele>127.3</ele>
        <time>2020-06-08T09:12:10Z</time>
      </trkpt>
      <trkpt lat="48.11712" lon="-3.82587">
        <ele>127.3</ele>
        <time>2020-06-08T09:12:11Z</time>
      </trkpt>
      <trkpt lat="48.11715" lon="-3.82582">
        <ele>127.4</ele>
        <time>2020-06-08T09:12:12Z</time>
      </trkpt>
      <trkpt lat="48.11717" lon="-3.8258">
        <ele>127.5</ele>
        <time>2020-06-08T09:12:13Z</time>
      </trkpt>
      <trkpt lat="48.11719" lon="-3.82577">
        <ele>127.6</ele>
        <time>2020-06-08T09:12:14Z</time>
      </trkpt>
      <trkpt lat="48.1172" lon="-3.82573">
        <ele>127.6</ele>
        <time>2020-06-08T09:12:15Z</time>
      </trkpt>
      <trkpt lat="48.11722" lon="-3.82569">
        <ele>127.7</ele>
        <time>2020-06-08T09:12:16Z</time>
      </trkpt>
      <trkpt lat="48.11723" lon="-3.82567">
        <ele>127.8</ele>
        <time>2020-06-08T09:12:17Z</time>
      </trkpt>
      <trkpt lat="48.11725" lon="-3.82563">
        <ele>127.8</ele>
        <time>2020-06-08T09:12:18Z</time>
      </trkpt>
      <trkpt lat="48.11727" lon="-3.82559">
        <ele>127.9</ele>
        <time>2020-06-08T09:12:19Z</time>
      </trkpt>
      <trkpt lat="48.11729" lon="-3.82555">
        <ele>128</ele>
        <time>2020-06-08T09:12:20Z</time>
      </trkpt>
      <trkpt lat="48.11732" lon="-3.8255">
        <ele>128.1</ele>
        <time>2020-06-08T09:12:21Z</time>
      </trkpt>
      <trkpt lat="48.11733" lon="-3.82545">
        <ele>128.1</ele>
        <time>2020-06-08T09:12:22Z</time>
      </trkpt>
      <trkpt lat="48.11735" lon="-3.8254">
        <ele>128.2</ele>
        <time>2020-06-08T09:12:23Z</time>
      </trkpt>
      <trkpt lat="48.11736" lon="-3.82534">
        <ele>128.2</ele>
        <time>2020-06-08T09:12:24Z</time>
      </trkpt>
      <trkpt lat="48.11738" lon="-3.8253">
        <ele>128.3</ele>
        <time>2020-06-08T09:12:25Z</time>
      </trkpt>
      <trkpt lat="48.11739" lon="-3.82526">
        <ele>128.3</ele>
        <time>2020-06-08T09:12:26Z</time>
      </trkpt>
      <trkpt lat="48.11741" lon="-3.82522">
        <ele>128.4</ele>
        <time>2020-06-08T09:12:27Z</time>
      </trkpt>
      <trkpt lat="48.11742" lon="-3.82516">
        <ele>128.4</ele>
        <time>2020-06-08T09:12:28Z</time>
      </trkpt>
      <trkpt lat="48.11742" lon="-3.82514">
        <ele>128.5</ele>
        <time>2020-06-08T09:12:29Z</time>
      </trkpt>
      <trkpt lat="48.11743" lon="-3.82509">
        <ele>128.6</ele>
        <time>2020-06-08T09:12:30Z</time>
      </trkpt>
      <trkpt lat="48.11745" lon="-3.82505">
        <ele>128.7</ele>
        <time>2020-06-08T09:12:31Z</time>
      </trkpt>
      <trkpt lat="48.11748" lon="-3.82502">
        <ele>128.8</ele>
        <time>2020-06-08T09:12:32Z</time>
      </trkpt>
      <trkpt lat="48.1175" lon="-3.82497">
        <ele>128.9</ele>
        <time>2020-06-08T09:12:33Z</time>
      </trkpt>
      <trkpt lat="48.11752" lon="-3.82494">
        <ele>129</ele>
        <time>2020-06-08T09:12:34Z</time>
      </trkpt>
      <trkpt lat="48.11754" lon="-3.82491">
        <ele>129.1</ele>
        <time>2020-06-08T09:12:35Z</time>
      </trkpt>
      <trkpt lat="48.11757" lon="-3.82487">
        <ele>129.3</ele>
        <time>2020-06-08T09:12:36Z</time>
      </trkpt>
      <trkpt lat="48.1176" lon="-3.82485">
        <ele>129.4</ele>
        <time>2020-06-08T09:12:37Z</time>
      </trkpt>
      <trkpt lat="48.11764" lon="-3.82482">
        <ele>129.5</ele>
        <time>2020-06-08T09:12:38Z</time>
      </trkpt>
      <trkpt lat="48.11767" lon="-3.82479">
        <ele>129.6</ele>
        <time>2020-06-08T09:12:39Z</time>
      </trkpt>
      <trkpt lat="48.1177" lon="-3.82477">
        <ele>129.7</ele>
        <time>2020-06-08T09:12:40Z</time>
      </trkpt>
      <trkpt lat="48.11773" lon="-3.82475">
        <ele>129.8</ele>
        <time>2020-06-08T09:12:41Z</time>
      </trkpt>
      <trkpt lat="48.11777" lon="-3.82472">
        <ele>129.9</ele>
        <time>2020-06-08T09:12:42Z</time>
      </trkpt>
      <trkpt lat="48.11781" lon="-3.82472">
        <ele>130</ele>
        <time>2020-06-08T09:12:43Z</time>
      </trkpt>
      <trkpt lat="48.11783" lon="-3.82472">
        <ele>130.1</ele>
        <time>2020-06-08T09:12:44Z</time>
      </trkpt>
      <trkpt lat="48.11787" lon="-3.82471">
        <ele>130.1</ele>
        <time>2020-06-08T09:12:45Z</time>
      </trkpt>
      <trkpt lat="48.11789" lon="-3.8247">
        <ele>130.2</ele>
        <time>2020-06-08T09:12:46Z</time>
      </trkpt>
      <trkpt lat="48.11793" lon="-3.82468">
        <ele>130.2</ele>
        <time>2020-06-08T09:12:47Z</time>
      </trkpt>
      <trkpt lat="48.11797" lon="-3.82467">
        <ele>130.3</ele>
        <time>2020-06-08T09:12:48Z</time>
      </trkpt>
      <trkpt lat="48.118" lon="-3.82466">
        <ele>130.4</ele>
        <time>2020-06-08T09:12:49Z</time>
      </trkpt>
      <trkpt lat="48.11804" lon="-3.82465">
        <ele>130.5</ele>
        <time>2020-06-08T09:12:50Z</time>
      </trkpt>
      <trkpt lat="48.11808" lon="-3.82464">
        <ele>130.6</ele>
        <time>2020-06-08T09:12:51Z</time>
      </trkpt>
      <trkpt lat="48.11812" lon="-3.82464">
        <ele>130.7</ele>
        <time>2020-06-08T09:12:52Z</time>
      </trkpt>
      <trkpt lat="48.11816" lon="-3.82462">
        <ele>130.8</ele>
        <time>2020-06-08T09:12:53Z</time>
      </trkpt>
      <trkpt lat="48.11818" lon="-3.82461">
        <ele>130.8</ele>
        <time>2020-06-08T09:12:54Z</time>
      </trkpt>
      <trkpt lat="48.11821" lon="-3.82459">
        <ele>130.9</ele>
        <time>2020-06-08T09:12:55Z</time>
      </trkpt>
      <trkpt lat="48.11825" lon="-3.82457">
        <ele>131.1</ele>
        <time>2020-06-08T09:12:56Z</time>
      </trkpt>
      <trkpt lat="48.11829" lon="-3.82455">
        <ele>131.2</ele>
        <time>2020-06-08T09:12:57Z</time>
      </trkpt>
      <trkpt lat="48.11831" lon="-3.82454">
        <ele>131.2</ele>
        <time>2020-06-08T09:12:58Z</time>
      </trkpt>
      <trkpt lat="48.11834" lon="-3.82453">
        <ele>131.3</ele>
        <time>2020-06-08T09:12:59Z</time>
      </trkpt>
      <trkpt lat="48.11837" lon="-3.82452">
        <ele>131.4</ele>
        <time>2020-06-08T09:13:00Z</time>
      </trkpt>
      <trkpt lat="48.1184" lon="-3.82451">
        <ele>131.5</ele>
        <time>2020-06-08T09:13:01Z</time>
      </trkpt>
      <trkpt lat="48.11844" lon="-3.8245">
        <ele>131.6</ele>
        <time>2020-06-08T09:13:02Z</time>
      </trkpt>
      <trkpt lat="48.11847" lon="-3.8245">
        <ele>131.7</ele>
        <time>2020-06-08T09:13:03Z</time>
      </trkpt>
      <trkpt lat="48.11851" lon="-3.82449">
        <ele>131.8</ele>
        <time>2020-06-08T09:13:04Z</time>
      </trkpt>
      <trkpt lat="48.11855" lon="-3.82448">
        <ele>131.9</ele>
        <time>2020-06-08T09:13:05Z</time>
      </trkpt>
      <trkpt lat="48.1186" lon="-3.82447">
        <ele>132</ele>
        <time>2020-06-08T09:13:06Z</time>
      </trkpt>
      <trkpt lat="48.11865" lon="-3.82446">
        <ele>132.1</ele>
        <time>2020-06-08T09:13:07Z</time>
      </trkpt>
      <trkpt lat="48.11868" lon="-3.82446">
        <ele>132.2</ele>
        <time>2020-06-08T09:13:08Z</time>
      </trkpt>
      <trkpt lat="48.11872" lon="-3.82445">
        <ele>132.2</ele>
        <time>2020-06-08T09:13:09Z</time>
      </trkpt>
      <trkpt lat="48.11873" lon="-3.82444">
        <ele>132.3</ele>
        <time>2020-06-08T09:13:10Z</time>
      </trkpt>
      <trkpt lat="48.11876" lon="-3.82443">
        <ele>132.4</ele>
        <time>2020-06-08T09:13:11Z</time>
      </trkpt>
      <trkpt lat="48.1188" lon="-3.82441">
        <ele>132.5</ele>
        <time>2020-06-08T09:13:12Z</time>
      </trkpt>
      <trkpt lat="48.11882" lon="-3.82439">
        <ele>132.6</ele>
        <time>2020-06-08T09:13:13Z</time>
      </trkpt>
      <trkpt lat="48.11885" lon="-3.82438">
        <ele>132.7</ele>
        <time>2020-06-08T09:13:14Z</time>
      </trkpt>
      <trkpt lat="48.11888" lon="-3.82437">
        <ele>132.8</ele>
        <time>2020-06-08T09:13:15Z</time>
      </trkpt>
      <trkpt lat="48.11889" lon="-3.82437">
        <ele>132.8</ele>
        <time>2020-06-08T09:13:16Z</time>
      </trkpt>
      <trkpt lat="48.11893" lon="-3.82436">
        <ele>133</ele>
        <time>2020-06-08T09:13:17Z</time>
      </trkpt>
      <trkpt lat="48.11896" lon="-3.82435">
        <ele>133.1</ele>
        <time>2020-06-08T09:13:18Z</time>
      </trkpt>
      <trkpt lat="48.119" lon="-3.82435">
        <ele>133.2</ele>
        <time>2020-06-08T09:13:19Z</time>
      </trkpt>
      <trkpt lat="48.11904" lon="-3.82434">
        <ele>133.3</ele>
        <time>2020-06-08T09:13:20Z</time>
      </trkpt>
      <trkpt lat="48.11907" lon="-3.82433">
        <ele>133.4</ele>
        <time>2020-06-08T09:13:21Z</time>
      </trkpt>
      <trkpt lat="48.1191" lon="-3.82431">
        <ele>133.5</ele>
        <time>2020-06-08T09:13:22Z</time>
      </trkpt>
      <trkpt lat="48.11914" lon="-3.8243">
        <ele>133.5</ele>
        <time>2020-06-08T09:13:23Z</time>
      </trkpt>
      <trkpt lat="48.11917" lon="-3.82428">
        <ele>133.5</ele>
        <time>2020-06-08T09:13:24Z</time>
      </trkpt>
      <trkpt lat="48.11922" lon="-3.82425">
        <ele>133.6</ele>
        <time>2020-06-08T09:13:25Z</time>
      </trkpt>
      <trkpt lat="48.11926" lon="-3.82423">
        <ele>133.6</ele>
        <time>2020-06-08T09:13:26Z</time>
      </trkpt>
      <trkpt lat="48.11929" lon="-3.82422">
        <ele>133.6</ele>
        <time>2020-06-08T09:13:27Z</time>
      </trkpt>
      <trkpt lat="48.11932" lon="-3.82421">
        <ele>133.7</ele>
        <time>2020-06-08T09:13:28Z</time>
      </trkpt>
      <trkpt lat="48.11935" lon="-3.82419">
        <ele>133.7</ele>
        <time>2020-06-08T09:13:29Z</time>
      </trkpt>
      <trkpt lat="48.11939" lon="-3.82419">
        <ele>133.8</ele>
        <time>2020-06-08T09:13:30Z</time>
      </trkpt>
      <trkpt lat="48.11944" lon="-3.82418">
        <ele>134</ele>
        <time>2020-06-08T09:13:31Z</time>
      </trkpt>
      <trkpt lat="48.11946" lon="-3.82418">
        <ele>134</ele>
        <time>2020-06-08T09:13:32Z</time>
      </trkpt>
      <trkpt lat="48.1195" lon="-3.82418">
        <ele>134.1</ele>
        <time>2020-06-08T09:13:33Z</time>
      </trkpt>
      <trkpt lat="48.11954" lon="-3.82418">
        <ele>134.2</ele>
        <time>2020-06-08T09:13:34Z</time>
      </trkpt>
      <trkpt lat="48.11958" lon="-3.82419">
        <ele>134.3</ele>
        <time>2020-06-08T09:13:35Z</time>
      </trkpt>
      <trkpt lat="48.11963" lon="-3.82419">
        <ele>134.3</ele>
        <time>2020-06-08T09:13:36Z</time>
      </trkpt>
      <trkpt lat="48.11968" lon="-3.82417">
        <ele>134.3</ele>
        <time>2020-06-08T09:13:37Z</time>
      </trkpt>
      <trkpt lat="48.11972" lon="-3.82416">
        <ele>134.4</ele>
        <time>2020-06-08T09:13:38Z</time>
      </trkpt>
      <trkpt lat="48.11974" lon="-3.82414">
        <ele>134.4</ele>
        <time>2020-06-08T09:13:39Z</time>
      </trkpt>
      <trkpt lat="48.11978" lon="-3.82413">
        <ele>134.4</ele>
        <time>2020-06-08T09:13:40Z</time>
      </trkpt>
      <trkpt lat="48.11981" lon="-3.82411">
        <ele>134.4</ele>
        <time>2020-06-08T09:13:41Z</time>
      </trkpt>
      <trkpt lat="48.11987" lon="-3.82408">
        <ele>134.4</ele>
        <time>2020-06-08T09:13:42Z</time>
      </trkpt>
      <trkpt lat="48.11991" lon="-3.82406">
        <ele>134.4</ele>
        <time>2020-06-08T09:13:43Z</time>
      </trkpt>
      <trkpt lat="48.11994" lon="-3.82405">
        <ele>134.3</ele>
        <time>2020-06-08T09:13:44Z</time>
      </trkpt>
      <trkpt lat="48.11997" lon="-3.82406">
        <ele>134.3</ele>
        <time>2020-06-08T09:13:45Z</time>
      </trkpt>
      <trkpt lat="48.12" lon="-3.82405">
        <ele>134.2</ele>
        <time>2020-06-08T09:13:46Z</time>
      </trkpt>
      <trkpt lat="48.12001" lon="-3.82405">
        <ele>134.1</ele>
        <time>2020-06-08T09:13:47Z</time>
      </trkpt>
      <trkpt lat="48.12005" lon="-3.82404">
        <ele>134</ele>
        <time>2020-06-08T09:13:48Z</time>
      </trkpt>
      <trkpt lat="48.12008" lon="-3.82404">
        <ele>134</ele>
        <time>2020-06-08T09:13:49Z</time>
      </trkpt>
      <trkpt lat="48.12012" lon="-3.82403">
        <ele>134.1</ele>
        <time>2020-06-08T09:13:50Z</time>
      </trkpt>
      <trkpt lat="48.12015" lon="-3.82402">
        <ele>134.2</ele>
        <time>2020-06-08T09:13:51Z</time>
      </trkpt>
      <trkpt lat="48.12018" lon="-3.824">
        <ele>134.3</ele>
        <time>2020-06-08T09:13:52Z</time>
      </trkpt>
      <trkpt lat="48.12021" lon="-3.82398">
        <ele>134.3</ele>
        <time>2020-06-08T09:13:53Z</time>
      </trkpt>
      <trkpt lat="48.12025" lon="-3.82398">
        <ele>134.4</ele>
        <time>2020-06-08T09:13:54Z</time>
      </trkpt>
      <trkpt lat="48.12027" lon="-3.82398">
        <ele>134.5</ele>
        <time>2020-06-08T09:13:55Z</time>
      </trkpt>
      <trkpt lat="48.1203" lon="-3.82397">
        <ele>134.5</ele>
        <time>2020-06-08T09:13:56Z</time>
      </trkpt>
      <trkpt lat="48.12033" lon="-3.82395">
        <ele>134.6</ele>
        <time>2020-06-08T09:13:57Z</time>
      </trkpt>
      <trkpt lat="48.12037" lon="-3.82394">
        <ele>134.7</ele>
        <time>2020-06-08T09:13:58Z</time>
      </trkpt>
      <trkpt lat="48.1204" lon="-3.82393">
        <ele>134.8</ele>
        <time>2020-06-08T09:13:59Z</time>
      </trkpt>
      <trkpt lat="48.12045" lon="-3.82392">
        <ele>134.9</ele>
        <time>2020-06-08T09:14:00Z</time>
      </trkpt>
      <trkpt lat="48.12048" lon="-3.82391">
        <ele>135</ele>
        <time>2020-06-08T09:14:01Z</time>
      </trkpt>
      <trkpt lat="48.12052" lon="-3.8239">
        <ele>135.1</ele>
        <time>2020-06-08T09:14:02Z</time>
      </trkpt>
      <trkpt lat="48.12055" lon="-3.82389">
        <ele>135.2</ele>
        <time>2020-06-08T09:14:03Z</time>
      </trkpt>
      <trkpt lat="48.12058" lon="-3.82387">
        <ele>135.3</ele>
        <time>2020-06-08T09:14:04Z</time>
      </trkpt>
      <trkpt lat="48.12061" lon="-3.82386">
        <ele>135.4</ele>
        <time>2020-06-08T09:14:05Z</time>
      </trkpt>
      <trkpt lat="48.12063" lon="-3.82385">
        <ele>135.5</ele>
        <time>2020-06-08T09:14:06Z</time>
      </trkpt>
      <trkpt lat="48.12066" lon="-3.82383">
        <ele>135.6</ele>
        <time>2020-06-08T09:14:07Z</time>
      </trkpt>
      <trkpt lat="48.12067" lon="-3.82382">
        <ele>135.6</ele>
        <time>2020-06-08T09:14:08Z</time>
      </trkpt>
      <trkpt lat="48.1207" lon="-3.8238">
        <ele>135.8</ele>
        <time>2020-06-08T09:14:09Z</time>
      </trkpt>
      <trkpt lat="48.12071" lon="-3.82379">
        <ele>135.8</ele>
        <time>2020-06-08T09:14:10Z</time>
      </trkpt>
      <trkpt lat="48.12073" lon="-3.82376">
        <ele>135.9</ele>
        <time>2020-06-08T09:14:11Z</time>
      </trkpt>
      <trkpt lat="48.12077" lon="-3.82376">
        <ele>136.1</ele>
        <time>2020-06-08T09:14:12Z</time>
      </trkpt>
      <trkpt lat="48.1208" lon="-3.82375">
        <ele>136.2</ele>
        <time>2020-06-08T09:14:13Z</time>
      </trkpt>
      <trkpt lat="48.12083" lon="-3.82372">
        <ele>136.3</ele>
        <time>2020-06-08T09:14:14Z</time>
      </trkpt>
      <trkpt lat="48.12087" lon="-3.8237">
        <ele>136.4</ele>
        <time>2020-06-08T09:14:15Z</time>
      </trkpt>
      <trkpt lat="48.12088" lon="-3.82368">
        <ele>136.5</ele>
        <time>2020-06-08T09:14:16Z</time>
      </trkpt>
      <trkpt lat="48.12091" lon="-3.82367">
        <ele>136.6</ele>
        <time>2020-06-08T09:14:17Z</time>
      </trkpt>
      <trkpt lat="48.12094" lon="-3.82365">
        <ele>136.7</ele>
        <time>2020-06-08T09:14:18Z</time>
      </trkpt>
      <trkpt lat="48.12098" lon="-3.8236">
        <ele>136.9</ele>
        <time>2020-06-08T09:14:19Z</time>
      </trkpt>
      <trkpt lat="48.12101" lon="-3.82358">
        <ele>137</ele>
        <time>2020-06-08T09:14:20Z</time>
      </trkpt>
      <trkpt lat="48.12105" lon="-3.82356">
        <ele>137.1</ele>
        <time>2020-06-08T09:14:21Z</time>
      </trkpt>
      <trkpt lat="48.12106" lon="-3.82355">
        <ele>137.2</ele>
        <time>2020-06-08T09:14:22Z</time>
      </trkpt>
      <trkpt lat="48.1211" lon="-3.82352">
        <ele>137.3</ele>
        <time>2020-06-08T09:14:23Z</time>
      </trkpt>
      <trkpt lat="48.12114" lon="-3.8235">
        <ele>137.5</ele>
        <time>2020-06-08T09:14:24Z</time>
      </trkpt>
      <trkpt lat="48.12117" lon="-3.82348">
        <ele>137.6</ele>
        <time>2020-06-08T09:14:25Z</time>
      </trkpt>
      <trkpt lat="48.1212" lon="-3.82346">
        <ele>137.7</ele>
        <time>2020-06-08T09:14:26Z</time>
      </trkpt>
      <trkpt lat="48.12124" lon="-3.82344">
        <ele>137.9</ele>
        <time>2020-06-08T09:14:27Z</time>
      </trkpt>
      <trkpt lat="48.12127" lon="-3.82343">
        <ele>138</ele>
        <time>2020-06-08T09:14:28Z</time>
      </trkpt>
      <trkpt lat="48.12128" lon="-3.82342">
        <ele>138</ele>
        <time>2020-06-08T09:14:29Z</time>
      </trkpt>
      <trkpt lat="48.1213" lon="-3.82341">
        <ele>138.1</ele>
        <time>2020-06-08T09:14:30Z</time>
      </trkpt>
      <trkpt lat="48.12133" lon="-3.82339">
        <ele>138.2</ele>
        <time>2020-06-08T09:14:31Z</time>
      </trkpt>
      <trkpt lat="48.12135" lon="-3.82339">
        <ele>138.3</ele>
        <time>2020-06-08T09:14:32Z</time>
      </trkpt>
      <trkpt lat="48.12136" lon="-3.82338">
        <ele>138.4</ele>
        <time>2020-06-08T09:14:33Z</time>
      </trkpt>
      <trkpt lat="48.12139" lon="-3.82335">
        <ele>138.5</ele>
        <time>2020-06-08T09:14:34Z</time>
      </trkpt>
      <trkpt lat="48.12142" lon="-3.82334">
        <ele>138.6</ele>
        <time>2020-06-08T09:14:35Z</time>
      </trkpt>
      <trkpt lat="48.12147" lon="-3.82334">
        <ele>138.7</ele>
        <time>2020-06-08T09:14:36Z</time>
      </trkpt>
      <trkpt lat="48.12151" lon="-3.82332">
        <ele>138.9</ele>
        <time>2020-06-08T09:14:37Z</time>
      </trkpt>
      <trkpt lat="48.12152" lon="-3.82332">
        <ele>139</ele>
        <time>2020-06-08T09:14:38Z</time>
      </trkpt>
      <trkpt lat="48.12156" lon="-3.82331">
        <ele>139.1</ele>
        <time>2020-06-08T09:14:39Z</time>
      </trkpt>
      <trkpt lat="48.12158" lon="-3.82331">
        <ele>139.2</ele>
        <time>2020-06-08T09:14:40Z</time>
      </trkpt>
      <trkpt lat="48.12161" lon="-3.8233">
        <ele>139.3</ele>
        <time>2020-06-08T09:14:41Z</time>
      </trkpt>
      <trkpt lat="48.12163" lon="-3.82329">
        <ele>139.3</ele>
        <time>2020-06-08T09:14:42Z</time>
      </trkpt>
      <trkpt lat="48.12164" lon="-3.82328">
        <ele>139.4</ele>
        <time>2020-06-08T09:14:43Z</time>
      </trkpt>
      <trkpt lat="48.12166" lon="-3.82326">
        <ele>139.4</ele>
        <time>2020-06-08T09:14:44Z</time>
      </trkpt>
      <trkpt lat="48.12169" lon="-3.82325">
        <ele>139.5</ele>
        <time>2020-06-08T09:14:45Z</time>
      </trkpt>
      <trkpt lat="48.12173" lon="-3.82325">
        <ele>139.7</ele>
        <time>2020-06-08T09:14:46Z</time>
      </trkpt>
      <trkpt lat="48.12175" lon="-3.82324">
        <ele>139.7</ele>
        <time>2020-06-08T09:14:47Z</time>
      </trkpt>
      <trkpt lat="48.12179" lon="-3.82324">
        <ele>139.8</ele>
        <time>2020-06-08T09:14:48Z</time>
      </trkpt>
      <trkpt lat="48.12182" lon="-3.82324">
        <ele>139.9</ele>
        <time>2020-06-08T09:14:49Z</time>
      </trkpt>
      <trkpt lat="48.12186" lon="-3.82324">
        <ele>140</ele>
        <time>2020-06-08T09:14:50Z</time>
      </trkpt>
      <trkpt lat="48.12188" lon="-3.82323">
        <ele>140.1</ele>
        <time>2020-06-08T09:14:51Z</time>
      </trkpt>
      <trkpt lat="48.12189" lon="-3.82324">
        <ele>140.1</ele>
        <time>2020-06-08T09:14:52Z</time>
      </trkpt>
      <trkpt lat="48.12193" lon="-3.82326">
        <ele>140.2</ele>
        <time>2020-06-08T09:14:53Z</time>
      </trkpt>
      <trkpt lat="48.12195" lon="-3.82325">
        <ele>140.3</ele>
        <time>2020-06-08T09:14:54Z</time>
      </trkpt>
      <trkpt lat="48.12198" lon="-3.82325">
        <ele>140.4</ele>
        <time>2020-06-08T09:14:55Z</time>
      </trkpt>
      <trkpt lat="48.12201" lon="-3.82324">
        <ele>140.5</ele>
        <time>2020-06-08T09:14:56Z</time>
      </trkpt>
      <trkpt lat="48.12205" lon="-3.82323">
        <ele>140.6</ele>
        <time>2020-06-08T09:14:57Z</time>
      </trkpt>
      <trkpt lat="48.12208" lon="-3.82322">
        <ele>140.7</ele>
        <time>2020-06-08T09:14:58Z</time>
      </trkpt>
      <trkpt lat="48.12209" lon="-3.82322">
        <ele>140.8</ele>
        <time>2020-06-08T09:14:59Z</time>
      </trkpt>
      <trkpt lat="48.12212" lon="-3.82322">
        <ele>140.9</ele>
        <time>2020-06-08T09:15:00Z</time>
      </trkpt>
      <trkpt lat="48.12215" lon="-3.82321">
        <ele>141</ele>
        <time>2020-06-08T09:15:01Z</time>
      </trkpt>
      <trkpt lat="48.12218" lon="-3.82322">
        <ele>141.1</ele>
        <time>2020-06-08T09:15:02Z</time>
      </trkpt>
      <trkpt lat="48.12218" lon="-3.82322">
        <ele>141.1</ele>
        <time>2020-06-08T09:15:03Z</time>
      </trkpt>
      <trkpt lat="48.12219" lon="-3.82322">
        <ele>141.1</ele>
        <time>2020-06-08T09:15:04Z</time>
      </trkpt>
      <trkpt lat="48.12221" lon="-3.82322">
        <ele>141.2</ele>
        <time>2020-06-08T09:15:05Z</time>
      </trkpt>
      <trkpt lat="48.12225" lon="-3.82321">
        <ele>141.3</ele>
        <time>2020-06-08T09:15:06Z</time>
      </trkpt>
      <trkpt lat="48.1223" lon="-3.8232">
        <ele>141.5</ele>
        <time>2020-06-08T09:15:07Z</time>
      </trkpt>
      <trkpt lat="48.12232" lon="-3.82319">
        <ele>141.6</ele>
        <time>2020-06-08T09:15:08Z</time>
      </trkpt>
      <trkpt lat="48.12235" lon="-3.82318">
        <ele>141.7</ele>
        <time>2020-06-08T09:15:09Z</time>
      </trkpt>
      <trkpt lat="48.12238" lon="-3.82318">
        <ele>141.8</ele>
        <time>2020-06-08T09:15:10Z</time>
      </trkpt>
      <trkpt lat="48.12239" lon="-3.82318">
        <ele>141.8</ele>
        <time>2020-06-08T09:15:11Z</time>
      </trkpt>
      <trkpt lat="48.12241" lon="-3.82318">
        <ele>141.9</ele>
        <time>2020-06-08T09:15:12Z</time>
      </trkpt>
      <trkpt lat="48.12242" lon="-3.82318">
        <ele>141.9</ele>
        <time>2020-06-08T09:15:13Z</time>
      </trkpt>
      <trkpt lat="48.12246" lon="-3.82317">
        <ele>142</ele>
        <time>2020-06-08T09:15:14Z</time>
      </trkpt>
      <trkpt lat="48.12248" lon="-3.82317">
        <ele>142.1</ele>
        <time>2020-06-08T09:15:15Z</time>
      </trkpt>
      <trkpt lat="48.12251" lon="-3.82317">
        <ele>142.2</ele>
        <time>2020-06-08T09:15:16Z</time>
      </trkpt>
      <trkpt lat="48.12254" lon="-3.82315">
        <ele>142.3</ele>
        <time>2020-06-08T09:15:17Z</time>
      </trkpt>
      <trkpt lat="48.12257" lon="-3.82313">
        <ele>142.3</ele>
        <time>2020-06-08T09:15:18Z</time>
      </trkpt>
      <trkpt lat="48.1226" lon="-3.82313">
        <ele>142.4</ele>
        <time>2020-06-08T09:15:19Z</time>
      </trkpt>
      <trkpt lat="48.12263" lon="-3.82312">
        <ele>142.5</ele>
        <time>2020-06-08T09:15:20Z</time>
      </trkpt>
      <trkpt lat="48.12265" lon="-3.8231">
        <ele>142.6</ele>
        <time>2020-06-08T09:15:21Z</time>
      </trkpt>
      <trkpt lat="48.12269" lon="-3.82309">
        <ele>142.8</ele>
        <time>2020-06-08T09:15:22Z</time>
      </trkpt>
      <trkpt lat="48.1227" lon="-3.82309">
        <ele>142.9</ele>
        <time>2020-06-08T09:15:23Z</time>
      </trkpt>
      <trkpt lat="48.12274" lon="-3.82308">
        <ele>143</ele>
        <time>2020-06-08T09:15:24Z</time>
      </trkpt>
      <trkpt lat="48.12275" lon="-3.82307">
        <ele>143.1</ele>
        <time>2020-06-08T09:15:25Z</time>
      </trkpt>
      <trkpt lat="48.12279" lon="-3.82306">
        <ele>143.2</ele>
        <time>2020-06-08T09:15:26Z</time>
      </trkpt>
      <trkpt lat="48.1228" lon="-3.82306">
        <ele>143.3</ele>
        <time>2020-06-08T09:15:27Z</time>
      </trkpt>
      <trkpt lat="48.12283" lon="-3.82306">
        <ele>143.4</ele>
        <time>2020-06-08T09:15:28Z</time>
      </trkpt>
      <trkpt lat="48.12286" lon="-3.82306">
        <ele>143.5</ele>
        <time>2020-06-08T09:15:29Z</time>
      </trkpt>
      <trkpt lat="48.1229" lon="-3.82306">
        <ele>143.7</ele>
        <time>2020-06-08T09:15:30Z</time>
      </trkpt>
      <trkpt lat="48.12291" lon="-3.82305">
        <ele>143.7</ele>
        <time>2020-06-08T09:15:31Z</time>
      </trkpt>
      <trkpt lat="48.12295" lon="-3.82305">
        <ele>143.8</ele>
        <time>2020-06-08T09:15:32Z</time>
      </trkpt>
      <trkpt lat="48.12296" lon="-3.82305">
        <ele>143.9</ele>
        <time>2020-06-08T09:15:33Z</time>
      </trkpt>
      <trkpt lat="48.12299" lon="-3.82305">
        <ele>144</ele>
        <time>2020-06-08T09:15:34Z</time>
      </trkpt>
      <trkpt lat="48.12302" lon="-3.82304">
        <ele>144.1</ele>
        <time>2020-06-08T09:15:35Z</time>
      </trkpt>
      <trkpt lat="48.12305" lon="-3.82304">
        <ele>144.2</ele>
        <time>2020-06-08T09:15:36Z</time>
      </trkpt>
      <trkpt lat="48.12308" lon="-3.82302">
        <ele>144.3</ele>
        <time>2020-06-08T09:15:37Z</time>
      </trkpt>
      <trkpt lat="48.12311" lon="-3.82301">
        <ele>144.4</ele>
        <time>2020-06-08T09:15:38Z</time>
      </trkpt>
      <trkpt lat="48.12314" lon="-3.82301">
        <ele>144.5</ele>
        <time>2020-06-08T09:15:39Z</time>
      </trkpt>
      <trkpt lat="48.12315" lon="-3.82301">
        <ele>144.5</ele>
        <time>2020-06-08T09:15:40Z</time>
      </trkpt>
      <trkpt lat="48.12319" lon="-3.823">
        <ele>144.6</ele>
        <time>2020-06-08T09:15:41Z</time>
      </trkpt>
      <trkpt lat="48.1232" lon="-3.823">
        <ele>144.7</ele>
        <time>2020-06-08T09:15:42Z</time>
      </trkpt>
      <trkpt lat="48.12323" lon="-3.823">
        <ele>144.8</ele>
        <time>2020-06-08T09:15:43Z</time>
      </trkpt>
      <trkpt lat="48.12325" lon="-3.823">
        <ele>144.8</ele>
        <time>2020-06-08T09:15:44Z</time>
      </trkpt>
      <trkpt lat="48.12328" lon="-3.823">
        <ele>145</ele>
        <time>2020-06-08T09:15:45Z</time>
      </trkpt>
      <trkpt lat="48.12329" lon="-3.823">
        <ele>145</ele>
        <time>2020-06-08T09:15:46Z</time>
      </trkpt>
      <trkpt lat="48.12332" lon="-3.82298">
        <ele>145.1</ele>
        <time>2020-06-08T09:15:47Z</time>
      </trkpt>
      <trkpt lat="48.12333" lon="-3.82297">
        <ele>145.2</ele>
        <time>2020-06-08T09:15:48Z</time>
      </trkpt>
      <trkpt lat="48.12336" lon="-3.82297">
        <ele>145.3</ele>
        <time>2020-06-08T09:15:49Z</time>
      </trkpt>
      <trkpt lat="48.12338" lon="-3.82298">
        <ele>145.3</ele>
        <time>2020-06-08T09:15:50Z</time>
      </trkpt>
      <trkpt lat="48.12342" lon="-3.82297">
        <ele>145.5</ele>
        <time>2020-06-08T09:15:51Z</time>
      </trkpt>
      <trkpt lat="48.12343" lon="-3.82298">
        <ele>145.5</ele>
        <time>2020-06-08T09:15:52Z</time>
      </trkpt>
      <trkpt lat="48.12346" lon="-3.82298">
        <ele>145.6</ele>
        <time>2020-06-08T09:15:53Z</time>
      </trkpt>
      <trkpt lat="48.12349" lon="-3.82299">
        <ele>145.8</ele>
        <time>2020-06-08T09:15:54Z</time>
      </trkpt>
      <trkpt lat="48.1235" lon="-3.82299">
        <ele>145.8</ele>
        <time>2020-06-08T09:15:55Z</time>
      </trkpt>
      <trkpt lat="48.12353" lon="-3.82298">
        <ele>146</ele>
        <time>2020-06-08T09:15:56Z</time>
      </trkpt>
      <trkpt lat="48.12354" lon="-3.82298">
        <ele>146</ele>
        <time>2020-06-08T09:15:57Z</time>
      </trkpt>
      <trkpt lat="48.12357" lon="-3.82299">
        <ele>146.1</ele>
        <time>2020-06-08T09:15:58Z</time>
      </trkpt>
      <trkpt lat="48.12358" lon="-3.82299">
        <ele>146.2</ele>
        <time>2020-06-08T09:15:59Z</time>
      </trkpt>
      <trkpt lat="48.12362" lon="-3.82299">
        <ele>146.4</ele>
        <time>2020-06-08T09:16:00Z</time>
      </trkpt>
      <trkpt lat="48.12363" lon="-3.823">
        <ele>146.4</ele>
        <time>2020-06-08T09:16:01Z</time>
      </trkpt>
      <trkpt lat="48.12366" lon="-3.82301">
        <ele>146.6</ele>
        <time>2020-06-08T09:16:02Z</time>
      </trkpt>
      <trkpt lat="48.12366" lon="-3.82301">
        <ele>146.6</ele>
        <time>2020-06-08T09:16:03Z</time>
      </trkpt>
      <trkpt lat="48.12369" lon="-3.82303">
        <ele>146.7</ele>
        <time>2020-06-08T09:16:04Z</time>
      </trkpt>
      <trkpt lat="48.1237" lon="-3.82303">
        <ele>146.8</ele>
        <time>2020-06-08T09:16:05Z</time>
      </trkpt>
      <trkpt lat="48.12372" lon="-3.82303">
        <ele>146.9</ele>
        <time>2020-06-08T09:16:06Z</time>
      </trkpt>
      <trkpt lat="48.12373" lon="-3.82304">
        <ele>147</ele>
        <time>2020-06-08T09:16:07Z</time>
      </trkpt>
      <trkpt lat="48.12375" lon="-3.82304">
        <ele>147</ele>
        <time>2020-06-08T09:16:08Z</time>
      </trkpt>
      <trkpt lat="48.12376" lon="-3.82305">
        <ele>147.1</ele>
        <time>2020-06-08T09:16:09Z</time>
      </trkpt>
      <trkpt lat="48.12378" lon="-3.82307">
        <ele>147.2</ele>
        <time>2020-06-08T09:16:10Z</time>
      </trkpt>
      <trkpt lat="48.12379" lon="-3.82308">
        <ele>147.3</ele>
        <time>2020-06-08T09:16:11Z</time>
      </trkpt>
      <trkpt lat="48.1238" lon="-3.82309">
        <ele>147.4</ele>
        <time>2020-06-08T09:16:12Z</time>
      </trkpt>
      <trkpt lat="48.12381" lon="-3.8231">
        <ele>147.4</ele>
        <time>2020-06-08T09:16:13Z</time>
      </trkpt>
      <trkpt lat="48.12383" lon="-3.82312">
        <ele>147.5</ele>
        <time>2020-06-08T09:16:14Z</time>
      </trkpt>
      <trkpt lat="48.12384" lon="-3.82312">
        <ele>147.6</ele>
        <time>2020-06-08T09:16:15Z</time>
      </trkpt>
      <trkpt lat="48.12387" lon="-3.82314">
        <ele>147.8</ele>
        <time>2020-06-08T09:16:16Z</time>
      </trkpt>
      <trkpt lat="48.12388" lon="-3.82314">
        <ele>147.8</ele>
        <time>2020-06-08T09:16:17Z</time>
      </trkpt>
      <trkpt lat="48.1239" lon="-3.82315">
        <ele>147.9</ele>
        <time>2020-06-08T09:16:18Z</time>
      </trkpt>
      <trkpt lat="48.12391" lon="-3.82315">
        <ele>148</ele>
        <time>2020-06-08T09:16:19Z</time>
      </trkpt>
      <trkpt lat="48.12392" lon="-3.82317">
        <ele>148.1</ele>
        <time>2020-06-08T09:16:20Z</time>
      </trkpt>
      <trkpt lat="48.12394" lon="-3.82318">
        <ele>148.2</ele>
        <time>2020-06-08T09:16:21Z</time>
      </trkpt>
      <trkpt lat="48.12396" lon="-3.82319">
        <ele>148.3</ele>
        <time>2020-06-08T09:16:22Z</time>
      </trkpt>
      <trkpt lat="48.12397" lon="-3.8232">
        <ele>148.3</ele>
        <time>2020-06-08T09:16:23Z</time>
      </trkpt>
      <trkpt lat="48.12398" lon="-3.8232">
        <ele>148.4</ele>
        <time>2020-06-08T09:16:24Z</time>
      </trkpt>
      <trkpt lat="48.124" lon="-3.82322">
        <ele>148.5</ele>
        <time>2020-06-08T09:16:25Z</time>
      </trkpt>
      <trkpt lat="48.12401" lon="-3.82323">
        <ele>148.6</ele>
        <time>2020-06-08T09:16:26Z</time>
      </trkpt>
      <trkpt lat="48.12404" lon="-3.82327">
        <ele>148.8</ele>
        <time>2020-06-08T09:16:27Z</time>
      </trkpt>
      <trkpt lat="48.12404" lon="-3.82328">
        <ele>148.8</ele>
        <time>2020-06-08T09:16:28Z</time>
      </trkpt>
      <trkpt lat="48.12406" lon="-3.8233">
        <ele>149</ele>
        <time>2020-06-08T09:16:29Z</time>
      </trkpt>
      <trkpt lat="48.12407" lon="-3.8233">
        <ele>149</ele>
        <time>2020-06-08T09:16:30Z</time>
      </trkpt>
      <trkpt lat="48.12408" lon="-3.8233">
        <ele>149</ele>
        <time>2020-06-08T09:16:31Z</time>
      </trkpt>
      <trkpt lat="48.1241" lon="-3.82333">
        <ele>149.2</ele>
        <time>2020-06-08T09:16:32Z</time>
      </trkpt>
      <trkpt lat="48.12411" lon="-3.82334">
        <ele>149.3</ele>
        <time>2020-06-08T09:16:33Z</time>
      </trkpt>
      <trkpt lat="48.12414" lon="-3.82335">
        <ele>149.4</ele>
        <time>2020-06-08T09:16:34Z</time>
      </trkpt>
      <trkpt lat="48.12415" lon="-3.82336">
        <ele>149.5</ele>
        <time>2020-06-08T09:16:35Z</time>
      </trkpt>
      <trkpt lat="48.12418" lon="-3.82336">
        <ele>149.6</ele>
        <time>2020-06-08T09:16:36Z</time>
      </trkpt>
      <trkpt lat="48.12419" lon="-3.82337">
        <ele>149.6</ele>
        <time>2020-06-08T09:16:37Z</time>
      </trkpt>
      <trkpt lat="48.12422" lon="-3.82339">
        <ele>149.8</ele>
        <time>2020-06-08T09:16:38Z</time>
      </trkpt>
      <trkpt lat="48.12422" lon="-3.8234">
        <ele>149.8</ele>
        <time>2020-06-08T09:16:39Z</time>
      </trkpt>
      <trkpt lat="48.12423" lon="-3.82341">
        <ele>149.9</ele>
        <time>2020-06-08T09:16:40Z</time>
      </trkpt>
      <trkpt lat="48.12425" lon="-3.82343">
        <ele>150</ele>
        <time>2020-06-08T09:16:41Z</time>
      </trkpt>
      <trkpt lat="48.12428" lon="-3.82345">
        <ele>150.1</ele>
        <time>2020-06-08T09:16:42Z</time>
      </trkpt>
      <trkpt lat="48.12429" lon="-3.82347">
        <ele>150.1</ele>
        <time>2020-06-08T09:16:43Z</time>
      </trkpt>
      <trkpt lat="48.12431" lon="-3.82349">
        <ele>150.2</ele>
        <time>2020-06-08T09:16:44Z</time>
      </trkpt>
      <trkpt lat="48.12434" lon="-3.82352">
        <ele>150.4</ele>
        <time>2020-06-08T09:16:45Z</time>
      </trkpt>
      <trkpt lat="48.12435" lon="-3.82354">
        <ele>150.4</ele>
        <time>2020-06-08T09:16:46Z</time>
      </trkpt>
      <trkpt lat="48.12436" lon="-3.82355">
        <ele>150.5</ele>
        <time>2020-06-08T09:16:47Z</time>
      </trkpt>
      <trkpt lat="48.12438" lon="-3.82356">
        <ele>150.5</ele>
        <time>2020-06-08T09:16:48Z</time>
      </trkpt>
      <trkpt lat="48.1244" lon="-3.82359">
        <ele>150.7</ele>
        <time>2020-06-08T09:16:49Z</time>
      </trkpt>
      <trkpt lat="48.12443" lon="-3.82362">
        <ele>150.8</ele>
        <time>2020-06-08T09:16:50Z</time>
      </trkpt>
      <trkpt lat="48.12444" lon="-3.82364">
        <ele>150.9</ele>
        <time>2020-06-08T09:16:51Z</time>
      </trkpt>
      <trkpt lat="48.12445" lon="-3.82366">
        <ele>150.9</ele>
        <time>2020-06-08T09:16:52Z</time>
      </trkpt>
      <trkpt lat="48.12446" lon="-3.82367">
        <ele>151</ele>
        <time>2020-06-08T09:16:53Z</time>
      </trkpt>
      <trkpt lat="48.12448" lon="-3.82368">
        <ele>151.1</ele>
        <time>2020-06-08T09:16:54Z</time>
      </trkpt>
      <trkpt lat="48.12449" lon="-3.8237">
        <ele>151.2</ele>
        <time>2020-06-08T09:16:55Z</time>
      </trkpt>
      <trkpt lat="48.1245" lon="-3.82371">
        <ele>151.2</ele>
        <time>2020-06-08T09:16:56Z</time>
      </trkpt>
      <trkpt lat="48.12451" lon="-3.82372">
        <ele>151.3</ele>
        <time>2020-06-08T09:16:57Z</time>
      </trkpt>
      <trkpt lat="48.12453" lon="-3.82373">
        <ele>151.4</ele>
        <time>2020-06-08T09:16:58Z</time>
      </trkpt>
      <trkpt lat="48.12454" lon="-3.82374">
        <ele>151.5</ele>
        <time>2020-06-08T09:16:59Z</time>
      </trkpt>
      <trkpt lat="48.12457" lon="-3.82377">
        <ele>151.6</ele>
        <time>2020-06-08T09:17:00Z</time>
      </trkpt>
      <trkpt lat="48.12459" lon="-3.82377">
        <ele>151.7</ele>
        <time>2020-06-08T09:17:01Z</time>
      </trkpt>
      <trkpt lat="48.12462" lon="-3.8238">
        <ele>151.9</ele>
        <time>2020-06-08T09:17:02Z</time>
      </trkpt>
      <trkpt lat="48.12463" lon="-3.82381">
        <ele>152</ele>
        <time>2020-06-08T09:17:03Z</time>
      </trkpt>
      <trkpt lat="48.12466" lon="-3.82383">
        <ele>152.2</ele>
        <time>2020-06-08T09:17:04Z</time>
      </trkpt>
      <trkpt lat="48.12469" lon="-3.82384">
        <ele>152.3</ele>
        <time>2020-06-08T09:17:05Z</time>
      </trkpt>
      <trkpt lat="48.12471" lon="-3.82387">
        <ele>152.5</ele>
        <time>2020-06-08T09:17:06Z</time>
      </trkpt>
      <trkpt lat="48.12472" lon="-3.82389">
        <ele>152.5</ele>
        <time>2020-06-08T09:17:07Z</time>
      </trkpt>
      <trkpt lat="48.12475" lon="-3.8239">
        <ele>152.7</ele>
        <time>2020-06-08T09:17:08Z</time>
      </trkpt>
      <trkpt lat="48.12476" lon="-3.8239">
        <ele>152.8</ele>
        <time>2020-06-08T09:17:09Z</time>
      </trkpt>
      <trkpt lat="48.12479" lon="-3.82392">
        <ele>153</ele>
        <time>2020-06-08T09:17:10Z</time>
      </trkpt>
      <trkpt lat="48.1248" lon="-3.82393">
        <ele>153</ele>
        <time>2020-06-08T09:17:11Z</time>
      </trkpt>
      <trkpt lat="48.12483" lon="-3.82395">
        <ele>153.2</ele>
        <time>2020-06-08T09:17:12Z</time>
      </trkpt>
      <trkpt lat="48.12486" lon="-3.82397">
        <ele>153.4</ele>
        <time>2020-06-08T09:17:13Z</time>
      </trkpt>
      <trkpt lat="48.12487" lon="-3.82397">
        <ele>153.4</ele>
        <time>2020-06-08T09:17:14Z</time>
      </trkpt>
      <trkpt lat="48.12489" lon="-3.82398">
        <ele>153.6</ele>
        <time>2020-06-08T09:17:15Z</time>
      </trkpt>
      <trkpt lat="48.1249" lon="-3.82399">
        <ele>153.7</ele>
        <time>2020-06-08T09:17:16Z</time>
      </trkpt>
      <trkpt lat="48.12493" lon="-3.82401">
        <ele>153.9</ele>
        <time>2020-06-08T09:17:17Z</time>
      </trkpt>
      <trkpt lat="48.12495" lon="-3.82402">
        <ele>154</ele>
        <time>2020-06-08T09:17:18Z</time>
      </trkpt>
      <trkpt lat="48.12497" lon="-3.82406">
        <ele>154.2</ele>
        <time>2020-06-08T09:17:19Z</time>
      </trkpt>
      <trkpt lat="48.12498" lon="-3.82407">
        <ele>154.3</ele>
        <time>2020-06-08T09:17:20Z</time>
      </trkpt>
      <trkpt lat="48.125" lon="-3.8241">
        <ele>154.5</ele>
        <time>2020-06-08T09:17:21Z</time>
      </trkpt>
      <trkpt lat="48.12501" lon="-3.82411">
        <ele>154.6</ele>
        <time>2020-06-08T09:17:22Z</time>
      </trkpt>
      <trkpt lat="48.12503" lon="-3.82415">
        <ele>154.8</ele>
        <time>2020-06-08T09:17:23Z</time>
      </trkpt>
      <trkpt lat="48.12503" lon="-3.82416">
        <ele>154.9</ele>
        <time>2020-06-08T09:17:24Z</time>
      </trkpt>
      <trkpt lat="48.12506" lon="-3.82419">
        <ele>157</ele>
        <time>2020-06-08T09:17:25Z</time>
      </trkpt>
      <trkpt lat="48.12506" lon="-3.8242">
        <ele>157.1</ele>
        <time>2020-06-08T09:17:26Z</time>
      </trkpt>
      <trkpt lat="48.12508" lon="-3.82424">
        <ele>157.3</ele>
        <time>2020-06-08T09:17:27Z</time>
      </trkpt>
      <trkpt lat="48.12508" lon="-3.82425">
        <ele>157.3</ele>
        <time>2020-06-08T09:17:28Z</time>
      </trkpt>
      <trkpt lat="48.12509" lon="-3.82428">
        <ele>157.4</ele>
        <time>2020-06-08T09:17:29Z</time>
      </trkpt>
      <trkpt lat="48.1251" lon="-3.8243">
        <ele>157.5</ele>
        <time>2020-06-08T09:17:30Z</time>
      </trkpt>
      <trkpt lat="48.12511" lon="-3.82432">
        <ele>157.6</ele>
        <time>2020-06-08T09:17:31Z</time>
      </trkpt>
      <trkpt lat="48.12513" lon="-3.82434">
        <ele>157.7</ele>
        <time>2020-06-08T09:17:32Z</time>
      </trkpt>
      <trkpt lat="48.12514" lon="-3.82435">
        <ele>157.8</ele>
        <time>2020-06-08T09:17:33Z</time>
      </trkpt>
      <trkpt lat="48.12515" lon="-3.82437">
        <ele>157.9</ele>
        <time>2020-06-08T09:17:34Z</time>
      </trkpt>
      <trkpt lat="48.12516" lon="-3.82439">
        <ele>158</ele>
        <time>2020-06-08T09:17:35Z</time>
      </trkpt>
      <trkpt lat="48.12517" lon="-3.8244">
        <ele>158.1</ele>
        <time>2020-06-08T09:17:36Z</time>
      </trkpt>
      <trkpt lat="48.12517" lon="-3.82441">
        <ele>158.1</ele>
        <time>2020-06-08T09:17:37Z</time>
      </trkpt>
      <trkpt lat="48.12518" lon="-3.82443">
        <ele>158.2</ele>
        <time>2020-06-08T09:17:38Z</time>
      </trkpt>
      <trkpt lat="48.12518" lon="-3.82445">
        <ele>158.3</ele>
        <time>2020-06-08T09:17:39Z</time>
      </trkpt>
      <trkpt lat="48.1252" lon="-3.82447">
        <ele>158.4</ele>
        <time>2020-06-08T09:17:40Z</time>
      </trkpt>
      <trkpt lat="48.1252" lon="-3.82449">
        <ele>158.5</ele>
        <time>2020-06-08T09:17:41Z</time>
      </trkpt>
      <trkpt lat="48.12521" lon="-3.82452">
        <ele>158.6</ele>
        <time>2020-06-08T09:17:42Z</time>
      </trkpt>
      <trkpt lat="48.12521" lon="-3.82454">
        <ele>158.7</ele>
        <time>2020-06-08T09:17:43Z</time>
      </trkpt>
      <trkpt lat="48.12522" lon="-3.82456">
        <ele>158.8</ele>
        <time>2020-06-08T09:17:44Z</time>
      </trkpt>
      <trkpt lat="48.12522" lon="-3.82458">
        <ele>158.9</ele>
        <time>2020-06-08T09:17:45Z</time>
      </trkpt>
      <trkpt lat="48.12524" lon="-3.82463">
        <ele>159.5</ele>
        <time>2020-06-08T09:17:46Z</time>
      </trkpt>
      <trkpt lat="48.12524" lon="-3.82464">
        <ele>159.5</ele>
        <time>2020-06-08T09:17:47Z</time>
      </trkpt>
      <trkpt lat="48.12526" lon="-3.82468">
        <ele>159.8</ele>
        <time>2020-06-08T09:17:48Z</time>
      </trkpt>
      <trkpt lat="48.12527" lon="-3.82469">
        <ele>159.9</ele>
        <time>2020-06-08T09:17:49Z</time>
      </trkpt>
      <trkpt lat="48.12529" lon="-3.82474">
        <ele>160.2</ele>
        <time>2020-06-08T09:17:50Z</time>
      </trkpt>
      <trkpt lat="48.1253" lon="-3.82476">
        <ele>160.3</ele>
        <time>2020-06-08T09:17:51Z</time>
      </trkpt>
      <trkpt lat="48.12532" lon="-3.82481">
        <ele>160.6</ele>
        <time>2020-06-08T09:17:52Z</time>
      </trkpt>
      <trkpt lat="48.12535" lon="-3.82485">
        <ele>160.9</ele>
        <time>2020-06-08T09:17:53Z</time>
      </trkpt>
      <trkpt lat="48.12538" lon="-3.82489">
        <ele>161.3</ele>
        <time>2020-06-08T09:17:54Z</time>
      </trkpt>
      <trkpt lat="48.12542" lon="-3.82493">
        <ele>161.6</ele>
        <time>2020-06-08T09:17:55Z</time>
      </trkpt>
      <trkpt lat="48.12545" lon="-3.82498">
        <ele>162</ele>
        <time>2020-06-08T09:17:56Z</time>
      </trkpt>
      <trkpt lat="48.12548" lon="-3.82503">
        <ele>162.3</ele>
        <time>2020-06-08T09:17:57Z</time>
      </trkpt>
      <trkpt lat="48.1255" lon="-3.82508">
        <ele>162.7</ele>
        <time>2020-06-08T09:17:58Z</time>
      </trkpt>
      <trkpt lat="48.12553" lon="-3.82513">
        <ele>163</ele>
        <time>2020-06-08T09:17:59Z</time>
      </trkpt>
      <trkpt lat="48.12555" lon="-3.82517">
        <ele>163.3</ele>
        <time>2020-06-08T09:18:00Z</time>
      </trkpt>
      <trkpt lat="48.12557" lon="-3.82521">
        <ele>163.6</ele>
        <time>2020-06-08T09:18:01Z</time>
      </trkpt>
      <trkpt lat="48.12559" lon="-3.82525">
        <ele>163.9</ele>
        <time>2020-06-08T09:18:02Z</time>
      </trkpt>
      <trkpt lat="48.1256" lon="-3.8253">
        <ele>164.2</ele>
        <time>2020-06-08T09:18:03Z</time>
      </trkpt>
      <trkpt lat="48.12562" lon="-3.82535">
        <ele>164.5</ele>
        <time>2020-06-08T09:18:04Z</time>
      </trkpt>
      <trkpt lat="48.12564" lon="-3.8254">
        <ele>164.7</ele>
        <time>2020-06-08T09:18:05Z</time>
      </trkpt>
      <trkpt lat="48.12565" lon="-3.82544">
        <ele>165</ele>
        <time>2020-06-08T09:18:06Z</time>
      </trkpt>
      <trkpt lat="48.12567" lon="-3.82548">
        <ele>165.3</ele>
        <time>2020-06-08T09:18:07Z</time>
      </trkpt>
      <trkpt lat="48.12569" lon="-3.82553">
        <ele>165.5</ele>
        <time>2020-06-08T09:18:08Z</time>
      </trkpt>
      <trkpt lat="48.1257" lon="-3.82557">
        <ele>165.7</ele>
        <time>2020-06-08T09:18:09Z</time>
      </trkpt>
      <trkpt lat="48.12572" lon="-3.82561">
        <ele>166</ele>
        <time>2020-06-08T09:18:10Z</time>
      </trkpt>
      <trkpt lat="48.12573" lon="-3.82566">
        <ele>166.2</ele>
        <time>2020-06-08T09:18:11Z</time>
      </trkpt>
      <trkpt lat="48.12575" lon="-3.8257">
        <ele>166.4</ele>
        <time>2020-06-08T09:18:12Z</time>
      </trkpt>
      <trkpt lat="48.12577" lon="-3.82574">
        <ele>166.6</ele>
        <time>2020-06-08T09:18:13Z</time>
      </trkpt>
      <trkpt lat="48.12579" lon="-3.82578">
        <ele>166.9</ele>
        <time>2020-06-08T09:18:14Z</time>
      </trkpt>
      <trkpt lat="48.1258" lon="-3.82582">
        <ele>167.1</ele>
        <time>2020-06-08T09:18:15Z</time>
      </trkpt>
      <trkpt lat="48.12581" lon="-3.82586">
        <ele>167.2</ele>
        <time>2020-06-08T09:18:16Z</time>
      </trkpt>
      <trkpt lat="48.12583" lon="-3.8259">
        <ele>167.4</ele>
        <time>2020-06-08T09:18:17Z</time>
      </trkpt>
      <trkpt lat="48.12585" lon="-3.82594">
        <ele>167.6</ele>
        <time>2020-06-08T09:18:18Z</time>
      </trkpt>
      <trkpt lat="48.12586" lon="-3.82598">
        <ele>167.7</ele>
        <time>2020-06-08T09:18:19Z</time>
      </trkpt>
      <trkpt lat="48.12587" lon="-3.82603">
        <ele>167.8</ele>
        <time>2020-06-08T09:18:20Z</time>
      </trkpt>
      <trkpt lat="48.12588" lon="-3.82607">
        <ele>168.1</ele>
        <time>2020-06-08T09:18:21Z</time>
      </trkpt>
      <trkpt lat="48.12589" lon="-3.82612">
        <ele>168.2</ele>
        <time>2020-06-08T09:18:22Z</time>
      </trkpt>
      <trkpt lat="48.12592" lon="-3.82616">
        <ele>168.4</ele>
        <time>2020-06-08T09:18:23Z</time>
      </trkpt>
      <trkpt lat="48.12592" lon="-3.82618">
        <ele>168.5</ele>
        <time>2020-06-08T09:18:24Z</time>
      </trkpt>
      <trkpt lat="48.12593" lon="-3.82622">
        <ele>168.6</ele>
        <time>2020-06-08T09:18:25Z</time>
      </trkpt>
      <trkpt lat="48.12595" lon="-3.82626">
        <ele>168.7</ele>
        <time>2020-06-08T09:18:26Z</time>
      </trkpt>
      <trkpt lat="48.12597" lon="-3.82629">
        <ele>168.8</ele>
        <time>2020-06-08T09:18:27Z</time>
      </trkpt>
      <trkpt lat="48.12599" lon="-3.82631">
        <ele>168.9</ele>
        <time>2020-06-08T09:18:28Z</time>
      </trkpt>
      <trkpt lat="48.12601" lon="-3.82635">
        <ele>169.1</ele>
        <time>2020-06-08T09:18:29Z</time>
      </trkpt>
      <trkpt lat="48.12603" lon="-3.82638">
        <ele>169.2</ele>
        <time>2020-06-08T09:18:30Z</time>
      </trkpt>
      <trkpt lat="48.12604" lon="-3.82642">
        <ele>169.4</ele>
        <time>2020-06-08T09:18:31Z</time>
      </trkpt>
      <trkpt lat="48.12606" lon="-3.82645">
        <ele>169.5</ele>
        <time>2020-06-08T09:18:32Z</time>
      </trkpt>
      <trkpt lat="48.12608" lon="-3.8265">
        <ele>169.7</ele>
        <time>2020-06-08T09:18:33Z</time>
      </trkpt>
      <trkpt lat="48.12609" lon="-3.82652">
        <ele>169.8</ele>
        <time>2020-06-08T09:18:34Z</time>
      </trkpt>
      <trkpt lat="48.12611" lon="-3.82656">
        <ele>170</ele>
        <time>2020-06-08T09:18:35Z</time>
      </trkpt>
      <trkpt lat="48.12612" lon="-3.82657">
        <ele>170.1</ele>
        <time>2020-06-08T09:18:36Z</time>
      </trkpt>
      <trkpt lat="48.12614" lon="-3.82662">
        <ele>170.3</ele>
        <time>2020-06-08T09:18:37Z</time>
      </trkpt>
      <trkpt lat="48.12615" lon="-3.82664">
        <ele>170.4</ele>
        <time>2020-06-08T09:18:38Z</time>
      </trkpt>
      <trkpt lat="48.12618" lon="-3.82668">
        <ele>170.6</ele>
        <time>2020-06-08T09:18:39Z</time>
      </trkpt>
      <trkpt lat="48.12619" lon="-3.82669">
        <ele>170.7</ele>
        <time>2020-06-08T09:18:40Z</time>
      </trkpt>
      <trkpt lat="48.1262" lon="-3.82673">
        <ele>170.9</ele>
        <time>2020-06-08T09:18:41Z</time>
      </trkpt>
      <trkpt lat="48.1262" lon="-3.82675">
        <ele>171</ele>
        <time>2020-06-08T09:18:42Z</time>
      </trkpt>
      <trkpt lat="48.12622" lon="-3.82679">
        <ele>171.2</ele>
        <time>2020-06-08T09:18:43Z</time>
      </trkpt>
      <trkpt lat="48.12622" lon="-3.82681">
        <ele>171.3</ele>
        <time>2020-06-08T09:18:44Z</time>
      </trkpt>
      <trkpt lat="48.12623" lon="-3.82685">
        <ele>171.5</ele>
        <time>2020-06-08T09:18:45Z</time>
      </trkpt>
      <trkpt lat="48.12624" lon="-3.82687">
        <ele>171.5</ele>
        <time>2020-06-08T09:18:46Z</time>
      </trkpt>
      <trkpt lat="48.12626" lon="-3.82692">
        <ele>171.8</ele>
        <time>2020-06-08T09:18:47Z</time>
      </trkpt>
      <trkpt lat="48.12627" lon="-3.82695">
        <ele>172</ele>
        <time>2020-06-08T09:18:48Z</time>
      </trkpt>
      <trkpt lat="48.12629" lon="-3.82699">
        <ele>172.3</ele>
        <time>2020-06-08T09:18:49Z</time>
      </trkpt>
      <trkpt lat="48.12631" lon="-3.82704">
        <ele>172.5</ele>
        <time>2020-06-08T09:18:50Z</time>
      </trkpt>
      <trkpt lat="48.12634" lon="-3.82709">
        <ele>172.8</ele>
        <time>2020-06-08T09:18:51Z</time>
      </trkpt>
      <trkpt lat="48.12636" lon="-3.82715">
        <ele>173.1</ele>
        <time>2020-06-08T09:18:52Z</time>
      </trkpt>
      <trkpt lat="48.12638" lon="-3.82721">
        <ele>173.4</ele>
        <time>2020-06-08T09:18:53Z</time>
      </trkpt>
      <trkpt lat="48.1264" lon="-3.82725">
        <ele>173.7</ele>
        <time>2020-06-08T09:18:54Z</time>
      </trkpt>
      <trkpt lat="48.12642" lon="-3.8273">
        <ele>174</ele>
        <time>2020-06-08T09:18:55Z</time>
      </trkpt>
      <trkpt lat="48.12644" lon="-3.82734">
        <ele>174.2</ele>
        <time>2020-06-08T09:18:56Z</time>
      </trkpt>
      <trkpt lat="48.12647" lon="-3.82738">
        <ele>174.5</ele>
        <time>2020-06-08T09:18:57Z</time>
      </trkpt>
      <trkpt lat="48.12648" lon="-3.82742">
        <ele>174.8</ele>
        <time>2020-06-08T09:18:58Z</time>
      </trkpt>
      <trkpt lat="48.1265" lon="-3.82746">
        <ele>175</ele>
        <time>2020-06-08T09:18:59Z</time>
      </trkpt>
      <trkpt lat="48.12651" lon="-3.8275">
        <ele>175.3</ele>
        <time>2020-06-08T09:19:00Z</time>
      </trkpt>
      <trkpt lat="48.12652" lon="-3.82756">
        <ele>175.6</ele>
        <time>2020-06-08T09:19:01Z</time>
      </trkpt>
      <trkpt lat="48.12654" lon="-3.82762">
        <ele>175.9</ele>
        <time>2020-06-08T09:19:02Z</time>
      </trkpt>
      <trkpt lat="48.12655" lon="-3.82767">
        <ele>176.1</ele>
        <time>2020-06-08T09:19:03Z</time>
      </trkpt>
      <trkpt lat="48.12656" lon="-3.82772">
        <ele>176.4</ele>
        <time>2020-06-08T09:19:04Z</time>
      </trkpt>
      <trkpt lat="48.12658" lon="-3.82777">
        <ele>176.7</ele>
        <time>2020-06-08T09:19:05Z</time>
      </trkpt>
      <trkpt lat="48.12659" lon="-3.82782">
        <ele>177</ele>
        <time>2020-06-08T09:19:06Z</time>
      </trkpt>
      <trkpt lat="48.12661" lon="-3.82786">
        <ele>177.2</ele>
        <time>2020-06-08T09:19:07Z</time>
      </trkpt>
      <trkpt lat="48.12663" lon="-3.82791">
        <ele>177.5</ele>
        <time>2020-06-08T09:19:08Z</time>
      </trkpt>
      <trkpt lat="48.12664" lon="-3.82794">
        <ele>177.7</ele>
        <time>2020-06-08T09:19:09Z</time>
      </trkpt>
      <trkpt lat="48.12666" lon="-3.82798">
        <ele>178</ele>
        <time>2020-06-08T09:19:10Z</time>
      </trkpt>
      <trkpt lat="48.12668" lon="-3.82801">
        <ele>178.2</ele>
        <time>2020-06-08T09:19:11Z</time>
      </trkpt>
      <trkpt lat="48.12669" lon="-3.82806">
        <ele>178.5</ele>
        <time>2020-06-08T09:19:12Z</time>
      </trkpt>
      <trkpt lat="48.1267" lon="-3.82812">
        <ele>178.8</ele>
        <time>2020-06-08T09:19:13Z</time>
      </trkpt>
      <trkpt lat="48.12671" lon="-3.82817">
        <ele>179.1</ele>
        <time>2020-06-08T09:19:14Z</time>
      </trkpt>
      <trkpt lat="48.12673" lon="-3.82821">
        <ele>179.3</ele>
        <time>2020-06-08T09:19:15Z</time>
      </trkpt>
      <trkpt lat="48.12675" lon="-3.82825">
        <ele>179.6</ele>
        <time>2020-06-08T09:19:16Z</time>
      </trkpt>
      <trkpt lat="48.12677" lon="-3.82828">
        <ele>179.8</ele>
        <time>2020-06-08T09:19:17Z</time>
      </trkpt>
      <trkpt lat="48.12679" lon="-3.82833">
        <ele>180</ele>
        <time>2020-06-08T09:19:18Z</time>
      </trkpt>
      <trkpt lat="48.1268" lon="-3.82838">
        <ele>180.3</ele>
        <time>2020-06-08T09:19:19Z</time>
      </trkpt>
      <trkpt lat="48.12682" lon="-3.82842">
        <ele>180.5</ele>
        <time>2020-06-08T09:19:20Z</time>
      </trkpt>
      <trkpt lat="48.12683" lon="-3.82846">
        <ele>180.5</ele>
        <time>2020-06-08T09:19:21Z</time>
      </trkpt>
      <trkpt lat="48.12684" lon="-3.8285">
        <ele>180.6</ele>
        <time>2020-06-08T09:19:22Z</time>
      </trkpt>
      <trkpt lat="48.12685" lon="-3.82853">
        <ele>180.6</ele>
        <time>2020-06-08T09:19:23Z</time>
      </trkpt>
      <trkpt lat="48.12687" lon="-3.82858">
        <ele>180.6</ele>
        <time>2020-06-08T09:19:24Z</time>
      </trkpt>
      <trkpt lat="48.12688" lon="-3.82863">
        <ele>180.7</ele>
        <time>2020-06-08T09:19:25Z</time>
      </trkpt>
      <trkpt lat="48.12689" lon="-3.82867">
        <ele>180.9</ele>
        <time>2020-06-08T09:19:26Z</time>
      </trkpt>
      <trkpt lat="48.12691" lon="-3.82871">
        <ele>181.1</ele>
        <time>2020-06-08T09:19:27Z</time>
      </trkpt>
      <trkpt lat="48.12692" lon="-3.82875">
        <ele>181.3</ele>
        <time>2020-06-08T09:19:28Z</time>
      </trkpt>
      <trkpt lat="48.12693" lon="-3.8288">
        <ele>181.6</ele>
        <time>2020-06-08T09:19:29Z</time>
      </trkpt>
      <trkpt lat="48.12694" lon="-3.82881">
        <ele>181.7</ele>
        <time>2020-06-08T09:19:30Z</time>
      </trkpt>
      <trkpt lat="48.12695" lon="-3.82887">
        <ele>182</ele>
        <time>2020-06-08T09:19:31Z</time>
      </trkpt>
      <trkpt lat="48.12695" lon="-3.82888">
        <ele>182.1</ele>
        <time>2020-06-08T09:19:32Z</time>
      </trkpt>
      <trkpt lat="48.12697" lon="-3.82893">
        <ele>182.4</ele>
        <time>2020-06-08T09:19:33Z</time>
      </trkpt>
      <trkpt lat="48.12698" lon="-3.82895">
        <ele>182.5</ele>
        <time>2020-06-08T09:19:34Z</time>
      </trkpt>
      <trkpt lat="48.127" lon="-3.829">
        <ele>182.8</ele>
        <time>2020-06-08T09:19:35Z</time>
      </trkpt>
      <trkpt lat="48.12702" lon="-3.82903">
        <ele>183.1</ele>
        <time>2020-06-08T09:19:36Z</time>
      </trkpt>
      <trkpt lat="48.12704" lon="-3.82908">
        <ele>183.4</ele>
        <time>2020-06-08T09:19:37Z</time>
      </trkpt>
      <trkpt lat="48.12704" lon="-3.8291">
        <ele>183.5</ele>
        <time>2020-06-08T09:19:38Z</time>
      </trkpt>
      <trkpt lat="48.12706" lon="-3.82914">
        <ele>183.8</ele>
        <time>2020-06-08T09:19:39Z</time>
      </trkpt>
      <trkpt lat="48.12707" lon="-3.82917">
        <ele>184</ele>
        <time>2020-06-08T09:19:40Z</time>
      </trkpt>
      <trkpt lat="48.12709" lon="-3.82921">
        <ele>184.3</ele>
        <time>2020-06-08T09:19:41Z</time>
      </trkpt>
      <trkpt lat="48.1271" lon="-3.82925">
        <ele>184.5</ele>
        <time>2020-06-08T09:19:42Z</time>
      </trkpt>
      <trkpt lat="48.12712" lon="-3.8293">
        <ele>184.9</ele>
        <time>2020-06-08T09:19:43Z</time>
      </trkpt>
      <trkpt lat="48.12712" lon="-3.82932">
        <ele>185</ele>
        <time>2020-06-08T09:19:44Z</time>
      </trkpt>
      <trkpt lat="48.12713" lon="-3.82936">
        <ele>185.2</ele>
        <time>2020-06-08T09:19:45Z</time>
      </trkpt>
      <trkpt lat="48.12715" lon="-3.8294">
        <ele>185.5</ele>
        <time>2020-06-08T09:19:46Z</time>
      </trkpt>
      <trkpt lat="48.12716" lon="-3.82944">
        <ele>185.8</ele>
        <time>2020-06-08T09:19:47Z</time>
      </trkpt>
      <trkpt lat="48.12718" lon="-3.82948">
        <ele>186.1</ele>
        <time>2020-06-08T09:19:48Z</time>
      </trkpt>
      <trkpt lat="48.1272" lon="-3.82952">
        <ele>186.4</ele>
        <time>2020-06-08T09:19:49Z</time>
      </trkpt>
      <trkpt lat="48.12721" lon="-3.82955">
        <ele>186.6</ele>
        <time>2020-06-08T09:19:50Z</time>
      </trkpt>
      <trkpt lat="48.12723" lon="-3.8296">
        <ele>187</ele>
        <time>2020-06-08T09:19:51Z</time>
      </trkpt>
      <trkpt lat="48.12724" lon="-3.82962">
        <ele>187.1</ele>
        <time>2020-06-08T09:19:52Z</time>
      </trkpt>
      <trkpt lat="48.12726" lon="-3.82967">
        <ele>187.4</ele>
        <time>2020-06-08T09:19:53Z</time>
      </trkpt>
      <trkpt lat="48.12728" lon="-3.82972">
        <ele>187.7</ele>
        <time>2020-06-08T09:19:54Z</time>
      </trkpt>
      <trkpt lat="48.12729" lon="-3.82975">
        <ele>188</ele>
        <time>2020-06-08T09:19:55Z</time>
      </trkpt>
      <trkpt lat="48.12731" lon="-3.82979">
        <ele>188.2</ele>
        <time>2020-06-08T09:19:56Z</time>
      </trkpt>
      <trkpt lat="48.12733" lon="-3.82983">
        <ele>188.5</ele>
        <time>2020-06-08T09:19:57Z</time>
      </trkpt>
      <trkpt lat="48.12733" lon="-3.82984">
        <ele>188.6</ele>
        <time>2020-06-08T09:19:58Z</time>
      </trkpt>
      <trkpt lat="48.12735" lon="-3.82988">
        <ele>188.9</ele>
        <time>2020-06-08T09:19:59Z</time>
      </trkpt>
      <trkpt lat="48.12735" lon="-3.82989">
        <ele>189</ele>
        <time>2020-06-08T09:20:00Z</time>
      </trkpt>
      <trkpt lat="48.12737" lon="-3.82994">
        <ele>189.3</ele>
        <time>2020-06-08T09:20:01Z</time>
      </trkpt>
      <trkpt lat="48.12738" lon="-3.82996">
        <ele>189.4</ele>
        <time>2020-06-08T09:20:02Z</time>
      </trkpt>
      <trkpt lat="48.12739" lon="-3.83002">
        <ele>189.8</ele>
        <time>2020-06-08T09:20:03Z</time>
      </trkpt>
      <trkpt lat="48.1274" lon="-3.83004">
        <ele>189.9</ele>
        <time>2020-06-08T09:20:04Z</time>
      </trkpt>
      <trkpt lat="48.12742" lon="-3.83008">
        <ele>190.2</ele>
        <time>2020-06-08T09:20:05Z</time>
      </trkpt>
      <trkpt lat="48.12743" lon="-3.8301">
        <ele>190.4</ele>
        <time>2020-06-08T09:20:06Z</time>
      </trkpt>
      <trkpt lat="48.12745" lon="-3.83015">
        <ele>190.7</ele>
        <time>2020-06-08T09:20:07Z</time>
      </trkpt>
      <trkpt lat="48.12745" lon="-3.83016">
        <ele>190.8</ele>
        <time>2020-06-08T09:20:08Z</time>
      </trkpt>
      <trkpt lat="48.12746" lon="-3.83021">
        <ele>191.1</ele>
        <time>2020-06-08T09:20:09Z</time>
      </trkpt>
      <trkpt lat="48.12747" lon="-3.83025">
        <ele>191.3</ele>
        <time>2020-06-08T09:20:10Z</time>
      </trkpt>
      <trkpt lat="48.1275" lon="-3.83029">
        <ele>191.6</ele>
        <time>2020-06-08T09:20:11Z</time>
      </trkpt>
      <trkpt lat="48.12751" lon="-3.83031">
        <ele>191.8</ele>
        <time>2020-06-08T09:20:12Z</time>
      </trkpt>
      <trkpt lat="48.12753" lon="-3.83033">
        <ele>192</ele>
        <time>2020-06-08T09:20:13Z</time>
      </trkpt>
      <trkpt lat="48.12756" lon="-3.83038">
        <ele>192.3</ele>
        <time>2020-06-08T09:20:14Z</time>
      </trkpt>
      <trkpt lat="48.12757" lon="-3.83039">
        <ele>192.5</ele>
        <time>2020-06-08T09:20:15Z</time>
      </trkpt>
      <trkpt lat="48.12759" lon="-3.83043">
        <ele>192.7</ele>
        <time>2020-06-08T09:20:16Z</time>
      </trkpt>
      <trkpt lat="48.12759" lon="-3.83044">
        <ele>192.8</ele>
        <time>2020-06-08T09:20:17Z</time>
      </trkpt>
      <trkpt lat="48.12762" lon="-3.83049">
        <ele>193.2</ele>
        <time>2020-06-08T09:20:18Z</time>
      </trkpt>
      <trkpt lat="48.12763" lon="-3.83051">
        <ele>193.3</ele>
        <time>2020-06-08T09:20:19Z</time>
      </trkpt>
      <trkpt lat="48.12765" lon="-3.83054">
        <ele>193.6</ele>
        <time>2020-06-08T09:20:20Z</time>
      </trkpt>
      <trkpt lat="48.12767" lon="-3.83058">
        <ele>193.9</ele>
        <time>2020-06-08T09:20:21Z</time>
      </trkpt>
      <trkpt lat="48.12771" lon="-3.83061">
        <ele>194.3</ele>
        <time>2020-06-08T09:20:22Z</time>
      </trkpt>
      <trkpt lat="48.12772" lon="-3.83063">
        <ele>194.4</ele>
        <time>2020-06-08T09:20:23Z</time>
      </trkpt>
      <trkpt lat="48.12775" lon="-3.83066">
        <ele>194.7</ele>
        <time>2020-06-08T09:20:24Z</time>
      </trkpt>
      <trkpt lat="48.12778" lon="-3.8307">
        <ele>195</ele>
        <time>2020-06-08T09:20:25Z</time>
      </trkpt>
      <trkpt lat="48.12778" lon="-3.83071">
        <ele>195.1</ele>
        <time>2020-06-08T09:20:26Z</time>
      </trkpt>
      <trkpt lat="48.1278" lon="-3.83074">
        <ele>195.4</ele>
        <time>2020-06-08T09:20:27Z</time>
      </trkpt>
      <trkpt lat="48.12781" lon="-3.83075">
        <ele>195.5</ele>
        <time>2020-06-08T09:20:28Z</time>
      </trkpt>
      <trkpt lat="48.12784" lon="-3.83079">
        <ele>195.8</ele>
        <time>2020-06-08T09:20:29Z</time>
      </trkpt>
      <trkpt lat="48.12785" lon="-3.8308">
        <ele>195.9</ele>
        <time>2020-06-08T09:20:30Z</time>
      </trkpt>
      <trkpt lat="48.12787" lon="-3.83083">
        <ele>196.1</ele>
        <time>2020-06-08T09:20:31Z</time>
      </trkpt>
      <trkpt lat="48.12788" lon="-3.83084">
        <ele>196.2</ele>
        <time>2020-06-08T09:20:32Z</time>
      </trkpt>
      <trkpt lat="48.12791" lon="-3.83087">
        <ele>196.5</ele>
        <time>2020-06-08T09:20:33Z</time>
      </trkpt>
      <trkpt lat="48.12792" lon="-3.83088">
        <ele>196.6</ele>
        <time>2020-06-08T09:20:34Z</time>
      </trkpt>
      <trkpt lat="48.12796" lon="-3.83091">
        <ele>197</ele>
        <time>2020-06-08T09:20:35Z</time>
      </trkpt>
      <trkpt lat="48.12797" lon="-3.83093">
        <ele>197.1</ele>
        <time>2020-06-08T09:20:36Z</time>
      </trkpt>
      <trkpt lat="48.12799" lon="-3.83094">
        <ele>197.4</ele>
        <time>2020-06-08T09:20:37Z</time>
      </trkpt>
      <trkpt lat="48.12802" lon="-3.83098">
        <ele>197.7</ele>
        <time>2020-06-08T09:20:38Z</time>
      </trkpt>
      <trkpt lat="48.12803" lon="-3.83099">
        <ele>197.8</ele>
        <time>2020-06-08T09:20:39Z</time>
      </trkpt>
      <trkpt lat="48.12805" lon="-3.83102">
        <ele>198.1</ele>
        <time>2020-06-08T09:20:40Z</time>
      </trkpt>
      <trkpt lat="48.12807" lon="-3.83106">
        <ele>198.4</ele>
        <time>2020-06-08T09:20:41Z</time>
      </trkpt>
      <trkpt lat="48.1281" lon="-3.83109">
        <ele>198.6</ele>
        <time>2020-06-08T09:20:42Z</time>
      </trkpt>
      <trkpt lat="48.12812" lon="-3.83113">
        <ele>198.9</ele>
        <time>2020-06-08T09:20:43Z</time>
      </trkpt>
      <trkpt lat="48.12813" lon="-3.83114">
        <ele>199</ele>
        <time>2020-06-08T09:20:44Z</time>
      </trkpt>
      <trkpt lat="48.12815" lon="-3.83117">
        <ele>199.3</ele>
        <time>2020-06-08T09:20:45Z</time>
      </trkpt>
      <trkpt lat="48.12817" lon="-3.83121">
        <ele>199.5</ele>
        <time>2020-06-08T09:20:46Z</time>
      </trkpt>
      <trkpt lat="48.12822" lon="-3.83121">
        <ele>199.8</ele>
        <time>2020-06-08T09:20:47Z</time>
      </trkpt>
      <trkpt lat="48.12825" lon="-3.83124">
        <ele>200.1</ele>
        <time>2020-06-08T09:20:48Z</time>
      </trkpt>
      <trkpt lat="48.12826" lon="-3.83125">
        <ele>200.2</ele>
        <time>2020-06-08T09:20:49Z</time>
      </trkpt>
      <trkpt lat="48.12828" lon="-3.83128">
        <ele>200.4</ele>
        <time>2020-06-08T09:20:50Z</time>
      </trkpt>
      <trkpt lat="48.1283" lon="-3.83131">
        <ele>200.6</ele>
        <time>2020-06-08T09:20:51Z</time>
      </trkpt>
      <trkpt lat="48.12831" lon="-3.83135">
        <ele>200.8</ele>
        <time>2020-06-08T09:20:52Z</time>
      </trkpt>
      <trkpt lat="48.12834" lon="-3.83138">
        <ele>199.6</ele>
        <time>2020-06-08T09:20:53Z</time>
      </trkpt>
      <trkpt lat="48.12836" lon="-3.83142">
        <ele>199.9</ele>
        <time>2020-06-08T09:20:54Z</time>
      </trkpt>
      <trkpt lat="48.12838" lon="-3.83146">
        <ele>200.1</ele>
        <time>2020-06-08T09:20:55Z</time>
      </trkpt>
      <trkpt lat="48.1284" lon="-3.83149">
        <ele>200.4</ele>
        <time>2020-06-08T09:20:56Z</time>
      </trkpt>
      <trkpt lat="48.12843" lon="-3.83152">
        <ele>200.6</ele>
        <time>2020-06-08T09:20:57Z</time>
      </trkpt>
      <trkpt lat="48.12844" lon="-3.83154">
        <ele>200.7</ele>
        <time>2020-06-08T09:20:58Z</time>
      </trkpt>
      <trkpt lat="48.12846" lon="-3.83157">
        <ele>200.9</ele>
        <time>2020-06-08T09:20:59Z</time>
      </trkpt>
      <trkpt lat="48.12847" lon="-3.83159">
        <ele>201</ele>
        <time>2020-06-08T09:21:00Z</time>
      </trkpt>
      <trkpt lat="48.1285" lon="-3.83163">
        <ele>201.1</ele>
        <time>2020-06-08T09:21:01Z</time>
      </trkpt>
      <trkpt lat="48.12852" lon="-3.83166">
        <ele>201.3</ele>
        <time>2020-06-08T09:21:02Z</time>
      </trkpt>
      <trkpt lat="48.12855" lon="-3.83169">
        <ele>201.4</ele>
        <time>2020-06-08T09:21:03Z</time>
      </trkpt>
      <trkpt lat="48.12858" lon="-3.83173">
        <ele>201.6</ele>
        <time>2020-06-08T09:21:04Z</time>
      </trkpt>
      <trkpt lat="48.12859" lon="-3.83174">
        <ele>201.6</ele>
        <time>2020-06-08T09:21:05Z</time>
      </trkpt>
      <trkpt lat="48.12862" lon="-3.83177">
        <ele>201.7</ele>
        <time>2020-06-08T09:21:06Z</time>
      </trkpt>
      <trkpt lat="48.12863" lon="-3.83177">
        <ele>201.8</ele>
        <time>2020-06-08T09:21:07Z</time>
      </trkpt>
      <trkpt lat="48.12865" lon="-3.8318">
        <ele>201.9</ele>
        <time>2020-06-08T09:21:08Z</time>
      </trkpt>
      <trkpt lat="48.12867" lon="-3.83184">
        <ele>202</ele>
        <time>2020-06-08T09:21:09Z</time>
      </trkpt>
      <trkpt lat="48.12869" lon="-3.83187">
        <ele>202.1</ele>
        <time>2020-06-08T09:21:10Z</time>
      </trkpt>
      <trkpt lat="48.12871" lon="-3.8319">
        <ele>202.2</ele>
        <time>2020-06-08T09:21:11Z</time>
      </trkpt>
      <trkpt lat="48.12873" lon="-3.83194">
        <ele>202.3</ele>
        <time>2020-06-08T09:21:12Z</time>
      </trkpt>
      <trkpt lat="48.12874" lon="-3.83196">
        <ele>202.3</ele>
        <time>2020-06-08T09:21:13Z</time>
      </trkpt>
      <trkpt lat="48.12877" lon="-3.83199">
        <ele>202.5</ele>
        <time>2020-06-08T09:21:14Z</time>
      </trkpt>
      <trkpt lat="48.12877" lon="-3.832">
        <ele>202.5</ele>
        <time>2020-06-08T09:21:15Z</time>
      </trkpt>
      <trkpt lat="48.12879" lon="-3.83203">
        <ele>202.6</ele>
        <time>2020-06-08T09:21:16Z</time>
      </trkpt>
      <trkpt lat="48.12882" lon="-3.83208">
        <ele>202.7</ele>
        <time>2020-06-08T09:21:17Z</time>
      </trkpt>
      <trkpt lat="48.12885" lon="-3.83211">
        <ele>202.7</ele>
        <time>2020-06-08T09:21:18Z</time>
      </trkpt>
      <trkpt lat="48.12887" lon="-3.83214">
        <ele>202.8</ele>
        <time>2020-06-08T09:21:19Z</time>
      </trkpt>
      <trkpt lat="48.12889" lon="-3.83218">
        <ele>202.8</ele>
        <time>2020-06-08T09:21:20Z</time>
      </trkpt>
      <trkpt lat="48.1289" lon="-3.83219">
        <ele>202.8</ele>
        <time>2020-06-08T09:21:21Z</time>
      </trkpt>
      <trkpt lat="48.12893" lon="-3.83223">
        <ele>202.9</ele>
        <time>2020-06-08T09:21:22Z</time>
      </trkpt>
      <trkpt lat="48.12893" lon="-3.83225">
        <ele>202.9</ele>
        <time>2020-06-08T09:21:23Z</time>
      </trkpt>
      <trkpt lat="48.12895" lon="-3.8323">
        <ele>202.9</ele>
        <time>2020-06-08T09:21:24Z</time>
      </trkpt>
      <trkpt lat="48.12895" lon="-3.83231">
        <ele>202.9</ele>
        <time>2020-06-08T09:21:25Z</time>
      </trkpt>
      <trkpt lat="48.12897" lon="-3.83235">
        <ele>203</ele>
        <time>2020-06-08T09:21:26Z</time>
      </trkpt>
      <trkpt lat="48.12899" lon="-3.83238">
        <ele>203</ele>
        <time>2020-06-08T09:21:27Z</time>
      </trkpt>
      <trkpt lat="48.12901" lon="-3.83242">
        <ele>203</ele>
        <time>2020-06-08T09:21:28Z</time>
      </trkpt>
      <trkpt lat="48.12903" lon="-3.83245">
        <ele>203</ele>
        <time>2020-06-08T09:21:29Z</time>
      </trkpt>
      <trkpt lat="48.12906" lon="-3.83249">
        <ele>203.1</ele>
        <time>2020-06-08T09:21:30Z</time>
      </trkpt>
      <trkpt lat="48.12908" lon="-3.83251">
        <ele>203.1</ele>
        <time>2020-06-08T09:21:31Z</time>
      </trkpt>
      <trkpt lat="48.1291" lon="-3.83254">
        <ele>203.1</ele>
        <time>2020-06-08T09:21:32Z</time>
      </trkpt>
      <trkpt lat="48.12912" lon="-3.83256">
        <ele>203.2</ele>
        <time>2020-06-08T09:21:33Z</time>
      </trkpt>
      <trkpt lat="48.12915" lon="-3.8326">
        <ele>203.2</ele>
        <time>2020-06-08T09:21:34Z</time>
      </trkpt>
      <trkpt lat="48.12918" lon="-3.83264">
        <ele>203.3</ele>
        <time>2020-06-08T09:21:35Z</time>
      </trkpt>
      <trkpt lat="48.1292" lon="-3.83268">
        <ele>203.3</ele>
        <time>2020-06-08T09:21:36Z</time>
      </trkpt>
      <trkpt lat="48.12923" lon="-3.83271">
        <ele>203.3</ele>
        <time>2020-06-08T09:21:37Z</time>
      </trkpt>
      <trkpt lat="48.12927" lon="-3.83274">
        <ele>203.4</ele>
        <time>2020-06-08T09:21:38Z</time>
      </trkpt>
      <trkpt lat="48.1293" lon="-3.83277">
        <ele>203.4</ele>
        <time>2020-06-08T09:21:39Z</time>
      </trkpt>
      <trkpt lat="48.12932" lon="-3.8328">
        <ele>203.5</ele>
        <time>2020-06-08T09:21:40Z</time>
      </trkpt>
      <trkpt lat="48.12935" lon="-3.83283">
        <ele>203.6</ele>
        <time>2020-06-08T09:21:41Z</time>
      </trkpt>
      <trkpt lat="48.12936" lon="-3.83284">
        <ele>203.6</ele>
        <time>2020-06-08T09:21:42Z</time>
      </trkpt>
      <trkpt lat="48.12939" lon="-3.83285">
        <ele>203.7</ele>
        <time>2020-06-08T09:21:43Z</time>
      </trkpt>
      <trkpt lat="48.12942" lon="-3.83286">
        <ele>203.8</ele>
        <time>2020-06-08T09:21:44Z</time>
      </trkpt>
      <trkpt lat="48.12943" lon="-3.83286">
        <ele>203.8</ele>
        <time>2020-06-08T09:21:45Z</time>
      </trkpt>
      <trkpt lat="48.12944" lon="-3.83286">
        <ele>203.8</ele>
        <time>2020-06-08T09:21:46Z</time>
      </trkpt>
      <trkpt lat="48.12944" lon="-3.83286">
        <ele>203.8</ele>
        <time>2020-06-08T09:21:47Z</time>
      </trkpt>
      <trkpt lat="48.12945" lon="-3.83286">
        <ele>203.9</ele>
        <time>2020-06-08T09:21:48Z</time>
      </trkpt>
      <trkpt lat="48.12947" lon="-3.83287">
        <ele>203.9</ele>
        <time>2020-06-08T09:21:49Z</time>
      </trkpt>
      <trkpt lat="48.12948" lon="-3.83288">
        <ele>204</ele>
        <time>2020-06-08T09:21:50Z</time>
      </trkpt>
      <trkpt lat="48.12949" lon="-3.83289">
        <ele>204</ele>
        <time>2020-06-08T09:21:51Z</time>
      </trkpt>
      <trkpt lat="48.1295" lon="-3.8329">
        <ele>204</ele>
        <time>2020-06-08T09:21:52Z</time>
      </trkpt>
      <trkpt lat="48.12951" lon="-3.83291">
        <ele>204.1</ele>
        <time>2020-06-08T09:21:53Z</time>
      </trkpt>
      <trkpt lat="48.12952" lon="-3.83292">
        <ele>204.1</ele>
        <time>2020-06-08T09:21:54Z</time>
      </trkpt>
      <trkpt lat="48.12953" lon="-3.83292">
        <ele>204.1</ele>
        <time>2020-06-08T09:21:55Z</time>
      </trkpt>
      <trkpt lat="48.12954" lon="-3.83291">
        <ele>204.2</ele>
        <time>2020-06-08T09:21:56Z</time>
      </trkpt>
      <trkpt lat="48.12954" lon="-3.83288">
        <ele>204.6</ele>
        <time>2020-06-08T09:21:57Z</time>
      </trkpt>
      <trkpt lat="48.12955" lon="-3.83287">
        <ele>204.7</ele>
        <time>2020-06-08T09:21:58Z</time>
      </trkpt>
      <trkpt lat="48.12955" lon="-3.83286">
        <ele>204.7</ele>
        <time>2020-06-08T09:21:59Z</time>
      </trkpt>
      <trkpt lat="48.12955" lon="-3.83285">
        <ele>204.7</ele>
        <time>2020-06-08T09:22:00Z</time>
      </trkpt>
      <trkpt lat="48.12956" lon="-3.83285">
        <ele>204.7</ele>
        <time>2020-06-08T09:22:01Z</time>
      </trkpt>
      <trkpt lat="48.12956" lon="-3.83284">
        <ele>204.8</ele>
        <time>2020-06-08T09:22:02Z</time>
      </trkpt>
      <trkpt lat="48.12956" lon="-3.83283">
        <ele>204.8</ele>
        <time>2020-06-08T09:22:03Z</time>
      </trkpt>
      <trkpt lat="48.12956" lon="-3.83283">
        <ele>204.8</ele>
        <time>2020-06-08T09:22:04Z</time>
      </trkpt>
      <trkpt lat="48.12957" lon="-3.83282">
        <ele>204.8</ele>
        <time>2020-06-08T09:22:05Z</time>
      </trkpt>
      <trkpt lat="48.12957" lon="-3.83281">
        <ele>204.8</ele>
        <time>2020-06-08T09:22:06Z</time>
      </trkpt>
      <trkpt lat="48.12957" lon="-3.83281">
        <ele>204.9</ele>
        <time>2020-06-08T09:22:07Z</time>
      </trkpt>
      <trkpt lat="48.12958" lon="-3.8328">
        <ele>204.9</ele>
        <time>2020-06-08T09:22:08Z</time>
      </trkpt>
      <trkpt lat="48.12958" lon="-3.83279">
        <ele>204.9</ele>
        <time>2020-06-08T09:23:16Z</time>
      </trkpt>
      <trkpt lat="48.12958" lon="-3.83279">
        <ele>204.9</ele>
        <time>2020-06-08T09:23:17Z</time>
      </trkpt>
      <trkpt lat="48.12959" lon="-3.83273">
        <ele>205.1</ele>
        <time>2020-06-08T09:23:18Z</time>
      </trkpt>
      <trkpt lat="48.12959" lon="-3.83272">
        <ele>205.2</ele>
        <time>2020-06-08T09:23:19Z</time>
      </trkpt>
      <trkpt lat="48.12959" lon="-3.83267">
        <ele>205.3</ele>
        <time>2020-06-08T09:23:20Z</time>
      </trkpt>
      <trkpt lat="48.12959" lon="-3.83263">
        <ele>205.4</ele>
        <time>2020-06-08T09:23:21Z</time>
      </trkpt>
      <trkpt lat="48.12959" lon="-3.83258">
        <ele>205.5</ele>
        <time>2020-06-08T09:23:22Z</time>
      </trkpt>
      <trkpt lat="48.1296" lon="-3.83254">
        <ele>205.6</ele>
        <time>2020-06-08T09:23:23Z</time>
      </trkpt>
      <trkpt lat="48.12961" lon="-3.83249">
        <ele>205.8</ele>
        <time>2020-06-08T09:23:24Z</time>
      </trkpt>
      <trkpt lat="48.12962" lon="-3.83244">
        <ele>205.9</ele>
        <time>2020-06-08T09:23:25Z</time>
      </trkpt>
      <trkpt lat="48.12963" lon="-3.83239">
        <ele>206</ele>
        <time>2020-06-08T09:23:26Z</time>
      </trkpt>
      <trkpt lat="48.12964" lon="-3.83234">
        <ele>206.1</ele>
        <time>2020-06-08T09:23:27Z</time>
      </trkpt>
      <trkpt lat="48.12965" lon="-3.83228">
        <ele>206.2</ele>
        <time>2020-06-08T09:23:28Z</time>
      </trkpt>
      <trkpt lat="48.12966" lon="-3.83223">
        <ele>206.3</ele>
        <time>2020-06-08T09:23:29Z</time>
      </trkpt>
      <trkpt lat="48.12967" lon="-3.83218">
        <ele>206.5</ele>
        <time>2020-06-08T09:23:30Z</time>
      </trkpt>
      <trkpt lat="48.12968" lon="-3.83213">
        <ele>206.7</ele>
        <time>2020-06-08T09:23:31Z</time>
      </trkpt>
      <trkpt lat="48.12969" lon="-3.83209">
        <ele>206.9</ele>
        <time>2020-06-08T09:23:32Z</time>
      </trkpt>
      <trkpt lat="48.1297" lon="-3.83204">
        <ele>207.1</ele>
        <time>2020-06-08T09:23:33Z</time>
      </trkpt>
      <trkpt lat="48.12971" lon="-3.832">
        <ele>207.3</ele>
        <time>2020-06-08T09:23:34Z</time>
      </trkpt>
      <trkpt lat="48.12972" lon="-3.83196">
        <ele>207.5</ele>
        <time>2020-06-08T09:23:35Z</time>
      </trkpt>
      <trkpt lat="48.12975" lon="-3.83191">
        <ele>207.7</ele>
        <time>2020-06-08T09:23:36Z</time>
      </trkpt>
      <trkpt lat="48.12975" lon="-3.8319">
        <ele>207.8</ele>
        <time>2020-06-08T09:23:37Z</time>
      </trkpt>
      <trkpt lat="48.12976" lon="-3.83186">
        <ele>208</ele>
        <time>2020-06-08T09:23:38Z</time>
      </trkpt>
      <trkpt lat="48.12977" lon="-3.83182">
        <ele>208.3</ele>
        <time>2020-06-08T09:23:39Z</time>
      </trkpt>
      <trkpt lat="48.12979" lon="-3.83176">
        <ele>208.7</ele>
        <time>2020-06-08T09:23:40Z</time>
      </trkpt>
      <trkpt lat="48.1298" lon="-3.83174">
        <ele>208.9</ele>
        <time>2020-06-08T09:23:41Z</time>
      </trkpt>
      <trkpt lat="48.12982" lon="-3.83169">
        <ele>209.3</ele>
        <time>2020-06-08T09:23:42Z</time>
      </trkpt>
      <trkpt lat="48.12983" lon="-3.83164">
        <ele>209.7</ele>
        <time>2020-06-08T09:23:43Z</time>
      </trkpt>
      <trkpt lat="48.12985" lon="-3.8316">
        <ele>210.1</ele>
        <time>2020-06-08T09:23:44Z</time>
      </trkpt>
      <trkpt lat="48.12986" lon="-3.83156">
        <ele>210.4</ele>
        <time>2020-06-08T09:23:45Z</time>
      </trkpt>
      <trkpt lat="48.12987" lon="-3.83152">
        <ele>210.8</ele>
        <time>2020-06-08T09:23:46Z</time>
      </trkpt>
      <trkpt lat="48.12988" lon="-3.83148">
        <ele>211.1</ele>
        <time>2020-06-08T09:23:47Z</time>
      </trkpt>
      <trkpt lat="48.12989" lon="-3.83142">
        <ele>211.5</ele>
        <time>2020-06-08T09:23:48Z</time>
      </trkpt>
      <trkpt lat="48.12991" lon="-3.83138">
        <ele>211.8</ele>
        <time>2020-06-08T09:23:49Z</time>
      </trkpt>
      <trkpt lat="48.12992" lon="-3.83134">
        <ele>212.1</ele>
        <time>2020-06-08T09:23:50Z</time>
      </trkpt>
      <trkpt lat="48.12994" lon="-3.83131">
        <ele>212.3</ele>
        <time>2020-06-08T09:23:51Z</time>
      </trkpt>
      <trkpt lat="48.12995" lon="-3.83127">
        <ele>212.6</ele>
        <time>2020-06-08T09:23:52Z</time>
      </trkpt>
      <trkpt lat="48.12996" lon="-3.83123">
        <ele>212.8</ele>
        <time>2020-06-08T09:23:53Z</time>
      </trkpt>
      <trkpt lat="48.12997" lon="-3.83119">
        <ele>213</ele>
        <time>2020-06-08T09:23:54Z</time>
      </trkpt>
      <trkpt lat="48.12999" lon="-3.83114">
        <ele>213.2</ele>
        <time>2020-06-08T09:23:55Z</time>
      </trkpt>
      <trkpt lat="48.13" lon="-3.83109">
        <ele>213.5</ele>
        <time>2020-06-08T09:23:56Z</time>
      </trkpt>
      <trkpt lat="48.13001" lon="-3.83104">
        <ele>213.7</ele>
        <time>2020-06-08T09:23:57Z</time>
      </trkpt>
      <trkpt lat="48.13003" lon="-3.83101">
        <ele>213.9</ele>
        <time>2020-06-08T09:23:58Z</time>
      </trkpt>
      <trkpt lat="48.13004" lon="-3.83097">
        <ele>214.1</ele>
        <time>2020-06-08T09:23:59Z</time>
      </trkpt>
      <trkpt lat="48.13007" lon="-3.83092">
        <ele>214.4</ele>
        <time>2020-06-08T09:24:00Z</time>
      </trkpt>
      <trkpt lat="48.13008" lon="-3.83091">
        <ele>214.4</ele>
        <time>2020-06-08T09:24:01Z</time>
      </trkpt>
      <trkpt lat="48.1301" lon="-3.83087">
        <ele>214.6</ele>
        <time>2020-06-08T09:24:02Z</time>
      </trkpt>
      <trkpt lat="48.13012" lon="-3.83084">
        <ele>214.7</ele>
        <time>2020-06-08T09:24:03Z</time>
      </trkpt>
      <trkpt lat="48.13015" lon="-3.83081">
        <ele>214.9</ele>
        <time>2020-06-08T09:24:04Z</time>
      </trkpt>
      <trkpt lat="48.13019" lon="-3.83079">
        <ele>215</ele>
        <time>2020-06-08T09:24:05Z</time>
      </trkpt>
      <trkpt lat="48.1302" lon="-3.83078">
        <ele>215.1</ele>
        <time>2020-06-08T09:24:06Z</time>
      </trkpt>
      <trkpt lat="48.13023" lon="-3.83077">
        <ele>215.2</ele>
        <time>2020-06-08T09:24:07Z</time>
      </trkpt>
      <trkpt lat="48.13024" lon="-3.83077">
        <ele>215.2</ele>
        <time>2020-06-08T09:24:08Z</time>
      </trkpt>
      <trkpt lat="48.13028" lon="-3.83078">
        <ele>215.3</ele>
        <time>2020-06-08T09:24:09Z</time>
      </trkpt>
      <trkpt lat="48.13029" lon="-3.83078">
        <ele>215.4</ele>
        <time>2020-06-08T09:24:10Z</time>
      </trkpt>
      <trkpt lat="48.13032" lon="-3.83079">
        <ele>215.5</ele>
        <time>2020-06-08T09:24:11Z</time>
      </trkpt>
      <trkpt lat="48.13035" lon="-3.83081">
        <ele>215.6</ele>
        <time>2020-06-08T09:24:12Z</time>
      </trkpt>
      <trkpt lat="48.13038" lon="-3.83082">
        <ele>215.7</ele>
        <time>2020-06-08T09:24:13Z</time>
      </trkpt>
      <trkpt lat="48.13041" lon="-3.83084">
        <ele>215.8</ele>
        <time>2020-06-08T09:24:14Z</time>
      </trkpt>
      <trkpt lat="48.13043" lon="-3.83084">
        <ele>215.9</ele>
        <time>2020-06-08T09:24:15Z</time>
      </trkpt>
      <trkpt lat="48.13047" lon="-3.83086">
        <ele>215.9</ele>
        <time>2020-06-08T09:24:16Z</time>
      </trkpt>
      <trkpt lat="48.13048" lon="-3.83086">
        <ele>215.9</ele>
        <time>2020-06-08T09:24:17Z</time>
      </trkpt>
      <trkpt lat="48.13051" lon="-3.83089">
        <ele>215.8</ele>
        <time>2020-06-08T09:24:18Z</time>
      </trkpt>
      <trkpt lat="48.13053" lon="-3.83089">
        <ele>215.6</ele>
        <time>2020-06-08T09:24:19Z</time>
      </trkpt>
      <trkpt lat="48.13055" lon="-3.83091">
        <ele>215.3</ele>
        <time>2020-06-08T09:24:20Z</time>
      </trkpt>
      <trkpt lat="48.13059" lon="-3.83093">
        <ele>214.6</ele>
        <time>2020-06-08T09:24:21Z</time>
      </trkpt>
      <trkpt lat="48.1306" lon="-3.83094">
        <ele>214.3</ele>
        <time>2020-06-08T09:24:22Z</time>
      </trkpt>
      <trkpt lat="48.13062" lon="-3.83095">
        <ele>213.5</ele>
        <time>2020-06-08T09:24:23Z</time>
      </trkpt>
      <trkpt lat="48.13065" lon="-3.83097">
        <ele>212.6</ele>
        <time>2020-06-08T09:24:24Z</time>
      </trkpt>
      <trkpt lat="48.13067" lon="-3.83099">
        <ele>211.4</ele>
        <time>2020-06-08T09:24:25Z</time>
      </trkpt>
      <trkpt lat="48.1307" lon="-3.83102">
        <ele>211.4</ele>
        <time>2020-06-08T09:24:26Z</time>
      </trkpt>
      <trkpt lat="48.13072" lon="-3.83103">
        <ele>211.5</ele>
        <time>2020-06-08T09:24:27Z</time>
      </trkpt>
      <trkpt lat="48.13076" lon="-3.83106">
        <ele>211.5</ele>
        <time>2020-06-08T09:24:28Z</time>
      </trkpt>
      <trkpt lat="48.13077" lon="-3.83108">
        <ele>211.5</ele>
        <time>2020-06-08T09:24:29Z</time>
      </trkpt>
      <trkpt lat="48.13079" lon="-3.83111">
        <ele>211.6</ele>
        <time>2020-06-08T09:24:30Z</time>
      </trkpt>
      <trkpt lat="48.13081" lon="-3.83114">
        <ele>211.6</ele>
        <time>2020-06-08T09:24:31Z</time>
      </trkpt>
      <trkpt lat="48.13084" lon="-3.83117">
        <ele>211.7</ele>
        <time>2020-06-08T09:24:32Z</time>
      </trkpt>
      <trkpt lat="48.13086" lon="-3.8312">
        <ele>211.7</ele>
        <time>2020-06-08T09:24:33Z</time>
      </trkpt>
      <trkpt lat="48.13089" lon="-3.83122">
        <ele>211.7</ele>
        <time>2020-06-08T09:24:34Z</time>
      </trkpt>
      <trkpt lat="48.1309" lon="-3.83123">
        <ele>211.7</ele>
        <time>2020-06-08T09:24:35Z</time>
      </trkpt>
      <trkpt lat="48.13094" lon="-3.83124">
        <ele>211.8</ele>
        <time>2020-06-08T09:24:36Z</time>
      </trkpt>
      <trkpt lat="48.13095" lon="-3.83125">
        <ele>211.8</ele>
        <time>2020-06-08T09:24:37Z</time>
      </trkpt>
      <trkpt lat="48.13097" lon="-3.83125">
        <ele>211.8</ele>
        <time>2020-06-08T09:24:38Z</time>
      </trkpt>
      <trkpt lat="48.13098" lon="-3.83126">
        <ele>211.8</ele>
        <time>2020-06-08T09:24:39Z</time>
      </trkpt>
      <trkpt lat="48.131" lon="-3.83126">
        <ele>211.8</ele>
        <time>2020-06-08T09:24:40Z</time>
      </trkpt>
      <trkpt lat="48.13102" lon="-3.83126">
        <ele>211.8</ele>
        <time>2020-06-08T09:24:41Z</time>
      </trkpt>
      <trkpt lat="48.13103" lon="-3.83126">
        <ele>211.9</ele>
        <time>2020-06-08T09:24:42Z</time>
      </trkpt>
      <trkpt lat="48.13105" lon="-3.83125">
        <ele>211.9</ele>
        <time>2020-06-08T09:24:43Z</time>
      </trkpt>
      <trkpt lat="48.13108" lon="-3.83126">
        <ele>211.9</ele>
        <time>2020-06-08T09:24:44Z</time>
      </trkpt>
      <trkpt lat="48.13109" lon="-3.83127">
        <ele>211.9</ele>
        <time>2020-06-08T09:24:45Z</time>
      </trkpt>
      <trkpt lat="48.13112" lon="-3.83126">
        <ele>211.9</ele>
        <time>2020-06-08T09:24:46Z</time>
      </trkpt>
      <trkpt lat="48.13113" lon="-3.83126">
        <ele>211.9</ele>
        <time>2020-06-08T09:24:47Z</time>
      </trkpt>
      <trkpt lat="48.13115" lon="-3.83125">
        <ele>211.9</ele>
        <time>2020-06-08T09:24:48Z</time>
      </trkpt>
      <trkpt lat="48.13116" lon="-3.83125">
        <ele>211.9</ele>
        <time>2020-06-08T09:24:49Z</time>
      </trkpt>
      <trkpt lat="48.13117" lon="-3.83124">
        <ele>211.9</ele>
        <time>2020-06-08T09:24:50Z</time>
      </trkpt>
      <trkpt lat="48.13118" lon="-3.83123">
        <ele>211.9</ele>
        <time>2020-06-08T09:24:51Z</time>
      </trkpt>
      <trkpt lat="48.1312" lon="-3.83123">
        <ele>211.9</ele>
        <time>2020-06-08T09:24:52Z</time>
      </trkpt>
      <trkpt lat="48.13123" lon="-3.83125">
        <ele>212</ele>
        <time>2020-06-08T09:24:53Z</time>
      </trkpt>
      <trkpt lat="48.13124" lon="-3.83125">
        <ele>212.1</ele>
        <time>2020-06-08T09:24:54Z</time>
      </trkpt>
      <trkpt lat="48.13128" lon="-3.83127">
        <ele>212.2</ele>
        <time>2020-06-08T09:24:55Z</time>
      </trkpt>
      <trkpt lat="48.13129" lon="-3.83126">
        <ele>212.2</ele>
        <time>2020-06-08T09:24:56Z</time>
      </trkpt>
      <trkpt lat="48.1313" lon="-3.83125">
        <ele>212.3</ele>
        <time>2020-06-08T09:24:57Z</time>
      </trkpt>
      <trkpt lat="48.13132" lon="-3.83125">
        <ele>212.3</ele>
        <time>2020-06-08T09:24:58Z</time>
      </trkpt>
      <trkpt lat="48.13133" lon="-3.83125">
        <ele>212.3</ele>
        <time>2020-06-08T09:24:59Z</time>
      </trkpt>
      <trkpt lat="48.13135" lon="-3.83126">
        <ele>212.4</ele>
        <time>2020-06-08T09:25:00Z</time>
      </trkpt>
      <trkpt lat="48.13138" lon="-3.83127">
        <ele>212.5</ele>
        <time>2020-06-08T09:25:01Z</time>
      </trkpt>
      <trkpt lat="48.13139" lon="-3.83128">
        <ele>212.5</ele>
        <time>2020-06-08T09:25:02Z</time>
      </trkpt>
      <trkpt lat="48.13142" lon="-3.83129">
        <ele>212.6</ele>
        <time>2020-06-08T09:25:03Z</time>
      </trkpt>
      <trkpt lat="48.13143" lon="-3.83129">
        <ele>212.7</ele>
        <time>2020-06-08T09:25:04Z</time>
      </trkpt>
      <trkpt lat="48.13147" lon="-3.8313">
        <ele>212.8</ele>
        <time>2020-06-08T09:25:05Z</time>
      </trkpt>
      <trkpt lat="48.13148" lon="-3.8313">
        <ele>212.8</ele>
        <time>2020-06-08T09:25:06Z</time>
      </trkpt>
      <trkpt lat="48.13151" lon="-3.83131">
        <ele>212.9</ele>
        <time>2020-06-08T09:25:07Z</time>
      </trkpt>
      <trkpt lat="48.13152" lon="-3.83131">
        <ele>212.9</ele>
        <time>2020-06-08T09:25:08Z</time>
      </trkpt>
      <trkpt lat="48.13156" lon="-3.83131">
        <ele>213.1</ele>
        <time>2020-06-08T09:25:09Z</time>
      </trkpt>
      <trkpt lat="48.13157" lon="-3.83132">
        <ele>213.1</ele>
        <time>2020-06-08T09:25:10Z</time>
      </trkpt>
      <trkpt lat="48.1316" lon="-3.83132">
        <ele>213.2</ele>
        <time>2020-06-08T09:25:11Z</time>
      </trkpt>
      <trkpt lat="48.13161" lon="-3.83133">
        <ele>213.2</ele>
        <time>2020-06-08T09:25:12Z</time>
      </trkpt>
      <trkpt lat="48.13165" lon="-3.83133">
        <ele>213.3</ele>
        <time>2020-06-08T09:25:13Z</time>
      </trkpt>
      <trkpt lat="48.13166" lon="-3.83133">
        <ele>213.4</ele>
        <time>2020-06-08T09:25:14Z</time>
      </trkpt>
      <trkpt lat="48.13169" lon="-3.83133">
        <ele>213.5</ele>
        <time>2020-06-08T09:25:15Z</time>
      </trkpt>
      <trkpt lat="48.13171" lon="-3.83134">
        <ele>213.5</ele>
        <time>2020-06-08T09:25:16Z</time>
      </trkpt>
      <trkpt lat="48.13172" lon="-3.83134">
        <ele>213.6</ele>
        <time>2020-06-08T09:25:17Z</time>
      </trkpt>
      <trkpt lat="48.13174" lon="-3.83135">
        <ele>213.6</ele>
        <time>2020-06-08T09:25:18Z</time>
      </trkpt>
      <trkpt lat="48.13175" lon="-3.83134">
        <ele>213.7</ele>
        <time>2020-06-08T09:25:19Z</time>
      </trkpt>
      <trkpt lat="48.13178" lon="-3.83134">
        <ele>213.7</ele>
        <time>2020-06-08T09:25:20Z</time>
      </trkpt>
      <trkpt lat="48.13179" lon="-3.83134">
        <ele>213.8</ele>
        <time>2020-06-08T09:25:21Z</time>
      </trkpt>
      <trkpt lat="48.13184" lon="-3.83135">
        <ele>213.9</ele>
        <time>2020-06-08T09:25:22Z</time>
      </trkpt>
      <trkpt lat="48.13185" lon="-3.83136">
        <ele>213.9</ele>
        <time>2020-06-08T09:25:23Z</time>
      </trkpt>
      <trkpt lat="48.13188" lon="-3.83136">
        <ele>214.1</ele>
        <time>2020-06-08T09:25:24Z</time>
      </trkpt>
      <trkpt lat="48.13191" lon="-3.83138">
        <ele>214.1</ele>
        <time>2020-06-08T09:25:25Z</time>
      </trkpt>
      <trkpt lat="48.13195" lon="-3.83138">
        <ele>214.2</ele>
        <time>2020-06-08T09:25:26Z</time>
      </trkpt>
      <trkpt lat="48.13198" lon="-3.83138">
        <ele>214.4</ele>
        <time>2020-06-08T09:25:27Z</time>
      </trkpt>
      <trkpt lat="48.13203" lon="-3.83139">
        <ele>214.5</ele>
        <time>2020-06-08T09:25:28Z</time>
      </trkpt>
      <trkpt lat="48.13207" lon="-3.8314">
        <ele>214.6</ele>
        <time>2020-06-08T09:25:29Z</time>
      </trkpt>
      <trkpt lat="48.1321" lon="-3.83141">
        <ele>214.7</ele>
        <time>2020-06-08T09:25:30Z</time>
      </trkpt>
      <trkpt lat="48.13214" lon="-3.83142">
        <ele>214.8</ele>
        <time>2020-06-08T09:25:31Z</time>
      </trkpt>
      <trkpt lat="48.13218" lon="-3.83144">
        <ele>215</ele>
        <time>2020-06-08T09:25:32Z</time>
      </trkpt>
      <trkpt lat="48.13222" lon="-3.83146">
        <ele>215.1</ele>
        <time>2020-06-08T09:25:33Z</time>
      </trkpt>
      <trkpt lat="48.13226" lon="-3.83148">
        <ele>215.2</ele>
        <time>2020-06-08T09:25:34Z</time>
      </trkpt>
      <trkpt lat="48.1323" lon="-3.83151">
        <ele>215.4</ele>
        <time>2020-06-08T09:25:35Z</time>
      </trkpt>
      <trkpt lat="48.13233" lon="-3.83153">
        <ele>215.5</ele>
        <time>2020-06-08T09:25:36Z</time>
      </trkpt>
      <trkpt lat="48.13238" lon="-3.83153">
        <ele>215.6</ele>
        <time>2020-06-08T09:25:37Z</time>
      </trkpt>
      <trkpt lat="48.13242" lon="-3.83153">
        <ele>215.7</ele>
        <time>2020-06-08T09:25:38Z</time>
      </trkpt>
      <trkpt lat="48.13246" lon="-3.83155">
        <ele>215.8</ele>
        <time>2020-06-08T09:25:39Z</time>
      </trkpt>
      <trkpt lat="48.13249" lon="-3.83157">
        <ele>216</ele>
        <time>2020-06-08T09:25:40Z</time>
      </trkpt>
      <trkpt lat="48.13253" lon="-3.83159">
        <ele>216.1</ele>
        <time>2020-06-08T09:25:41Z</time>
      </trkpt>
      <trkpt lat="48.13257" lon="-3.8316">
        <ele>216.2</ele>
        <time>2020-06-08T09:25:42Z</time>
      </trkpt>
      <trkpt lat="48.1326" lon="-3.83161">
        <ele>216.3</ele>
        <time>2020-06-08T09:25:43Z</time>
      </trkpt>
      <trkpt lat="48.13264" lon="-3.83162">
        <ele>216.4</ele>
        <time>2020-06-08T09:25:44Z</time>
      </trkpt>
      <trkpt lat="48.13267" lon="-3.83163">
        <ele>216.5</ele>
        <time>2020-06-08T09:25:45Z</time>
      </trkpt>
      <trkpt lat="48.13271" lon="-3.83165">
        <ele>216.6</ele>
        <time>2020-06-08T09:25:46Z</time>
      </trkpt>
      <trkpt lat="48.13275" lon="-3.83165">
        <ele>216.7</ele>
        <time>2020-06-08T09:25:47Z</time>
      </trkpt>
      <trkpt lat="48.13279" lon="-3.83165">
        <ele>216.9</ele>
        <time>2020-06-08T09:25:48Z</time>
      </trkpt>
      <trkpt lat="48.13283" lon="-3.83168">
        <ele>217</ele>
        <time>2020-06-08T09:25:49Z</time>
      </trkpt>
      <trkpt lat="48.13285" lon="-3.83169">
        <ele>217.1</ele>
        <time>2020-06-08T09:25:50Z</time>
      </trkpt>
      <trkpt lat="48.13288" lon="-3.83169">
        <ele>217.2</ele>
        <time>2020-06-08T09:25:51Z</time>
      </trkpt>
      <trkpt lat="48.13292" lon="-3.8317">
        <ele>217.3</ele>
        <time>2020-06-08T09:25:52Z</time>
      </trkpt>
      <trkpt lat="48.13296" lon="-3.83171">
        <ele>217.4</ele>
        <time>2020-06-08T09:25:53Z</time>
      </trkpt>
      <trkpt lat="48.13299" lon="-3.83172">
        <ele>217.5</ele>
        <time>2020-06-08T09:25:54Z</time>
      </trkpt>
      <trkpt lat="48.13302" lon="-3.83173">
        <ele>217.6</ele>
        <time>2020-06-08T09:25:55Z</time>
      </trkpt>
      <trkpt lat="48.13306" lon="-3.83175">
        <ele>217.7</ele>
        <time>2020-06-08T09:25:56Z</time>
      </trkpt>
      <trkpt lat="48.13307" lon="-3.83176">
        <ele>217.8</ele>
        <time>2020-06-08T09:25:57Z</time>
      </trkpt>
      <trkpt lat="48.13311" lon="-3.83177">
        <ele>217.9</ele>
        <time>2020-06-08T09:25:58Z</time>
      </trkpt>
      <trkpt lat="48.13314" lon="-3.83179">
        <ele>218</ele>
        <time>2020-06-08T09:25:59Z</time>
      </trkpt>
      <trkpt lat="48.13318" lon="-3.83181">
        <ele>218.1</ele>
        <time>2020-06-08T09:26:00Z</time>
      </trkpt>
      <trkpt lat="48.13321" lon="-3.83183">
        <ele>218.2</ele>
        <time>2020-06-08T09:26:01Z</time>
      </trkpt>
      <trkpt lat="48.13325" lon="-3.83185">
        <ele>218.3</ele>
        <time>2020-06-08T09:26:02Z</time>
      </trkpt>
      <trkpt lat="48.13329" lon="-3.83187">
        <ele>218.5</ele>
        <time>2020-06-08T09:26:03Z</time>
      </trkpt>
      <trkpt lat="48.13333" lon="-3.8319">
        <ele>218.6</ele>
        <time>2020-06-08T09:26:04Z</time>
      </trkpt>
      <trkpt lat="48.13336" lon="-3.83191">
        <ele>218.7</ele>
        <time>2020-06-08T09:26:05Z</time>
      </trkpt>
      <trkpt lat="48.1334" lon="-3.83194">
        <ele>218.8</ele>
        <time>2020-06-08T09:26:06Z</time>
      </trkpt>
      <trkpt lat="48.13343" lon="-3.83196">
        <ele>218.9</ele>
        <time>2020-06-08T09:26:07Z</time>
      </trkpt>
      <trkpt lat="48.13346" lon="-3.83197">
        <ele>219</ele>
        <time>2020-06-08T09:26:08Z</time>
      </trkpt>
      <trkpt lat="48.1335" lon="-3.83199">
        <ele>219.1</ele>
        <time>2020-06-08T09:26:09Z</time>
      </trkpt>
      <trkpt lat="48.13354" lon="-3.83201">
        <ele>219.2</ele>
        <time>2020-06-08T09:26:10Z</time>
      </trkpt>
      <trkpt lat="48.13356" lon="-3.83203">
        <ele>219.3</ele>
        <time>2020-06-08T09:26:11Z</time>
      </trkpt>
      <trkpt lat="48.1336" lon="-3.83205">
        <ele>219.5</ele>
        <time>2020-06-08T09:26:12Z</time>
      </trkpt>
      <trkpt lat="48.13364" lon="-3.83206">
        <ele>219.6</ele>
        <time>2020-06-08T09:26:13Z</time>
      </trkpt>
      <trkpt lat="48.13367" lon="-3.83208">
        <ele>219.7</ele>
        <time>2020-06-08T09:26:14Z</time>
      </trkpt>
      <trkpt lat="48.1337" lon="-3.83209">
        <ele>219.8</ele>
        <time>2020-06-08T09:26:15Z</time>
      </trkpt>
      <trkpt lat="48.13372" lon="-3.83211">
        <ele>219.8</ele>
        <time>2020-06-08T09:26:16Z</time>
      </trkpt>
      <trkpt lat="48.13375" lon="-3.83213">
        <ele>219.9</ele>
        <time>2020-06-08T09:26:17Z</time>
      </trkpt>
      <trkpt lat="48.13377" lon="-3.83215">
        <ele>220</ele>
        <time>2020-06-08T09:26:18Z</time>
      </trkpt>
      <trkpt lat="48.13381" lon="-3.83218">
        <ele>220.2</ele>
        <time>2020-06-08T09:26:19Z</time>
      </trkpt>
      <trkpt lat="48.13383" lon="-3.8322">
        <ele>220.2</ele>
        <time>2020-06-08T09:26:20Z</time>
      </trkpt>
      <trkpt lat="48.13386" lon="-3.83222">
        <ele>220.3</ele>
        <time>2020-06-08T09:26:21Z</time>
      </trkpt>
      <trkpt lat="48.13389" lon="-3.83223">
        <ele>220.4</ele>
        <time>2020-06-08T09:26:22Z</time>
      </trkpt>
      <trkpt lat="48.13391" lon="-3.83224">
        <ele>220.5</ele>
        <time>2020-06-08T09:26:23Z</time>
      </trkpt>
      <trkpt lat="48.13394" lon="-3.83226">
        <ele>220.6</ele>
        <time>2020-06-08T09:26:24Z</time>
      </trkpt>
      <trkpt lat="48.13397" lon="-3.83228">
        <ele>220.7</ele>
        <time>2020-06-08T09:26:25Z</time>
      </trkpt>
      <trkpt lat="48.13398" lon="-3.83229">
        <ele>220.7</ele>
        <time>2020-06-08T09:26:26Z</time>
      </trkpt>
      <trkpt lat="48.13403" lon="-3.83231">
        <ele>220.9</ele>
        <time>2020-06-08T09:26:27Z</time>
      </trkpt>
      <trkpt lat="48.13405" lon="-3.83232">
        <ele>220.9</ele>
        <time>2020-06-08T09:26:28Z</time>
      </trkpt>
      <trkpt lat="48.13408" lon="-3.83234">
        <ele>221</ele>
        <time>2020-06-08T09:26:29Z</time>
      </trkpt>
      <trkpt lat="48.13412" lon="-3.83236">
        <ele>221.1</ele>
        <time>2020-06-08T09:26:30Z</time>
      </trkpt>
      <trkpt lat="48.13415" lon="-3.83237">
        <ele>221.3</ele>
        <time>2020-06-08T09:26:31Z</time>
      </trkpt>
      <trkpt lat="48.13419" lon="-3.83239">
        <ele>221.4</ele>
        <time>2020-06-08T09:26:32Z</time>
      </trkpt>
      <trkpt lat="48.13422" lon="-3.83242">
        <ele>221.5</ele>
        <time>2020-06-08T09:26:33Z</time>
      </trkpt>
      <trkpt lat="48.13424" lon="-3.83242">
        <ele>221.5</ele>
        <time>2020-06-08T09:26:34Z</time>
      </trkpt>
      <trkpt lat="48.13426" lon="-3.83244">
        <ele>221.6</ele>
        <time>2020-06-08T09:26:35Z</time>
      </trkpt>
      <trkpt lat="48.1343" lon="-3.83244">
        <ele>221.7</ele>
        <time>2020-06-08T09:26:36Z</time>
      </trkpt>
      <trkpt lat="48.13431" lon="-3.83244">
        <ele>221.7</ele>
        <time>2020-06-08T09:26:37Z</time>
      </trkpt>
      <trkpt lat="48.13434" lon="-3.83246">
        <ele>221.9</ele>
        <time>2020-06-08T09:26:38Z</time>
      </trkpt>
      <trkpt lat="48.13435" lon="-3.83246">
        <ele>221.9</ele>
        <time>2020-06-08T09:26:39Z</time>
      </trkpt>
      <trkpt lat="48.13438" lon="-3.83247">
        <ele>222</ele>
        <time>2020-06-08T09:26:40Z</time>
      </trkpt>
      <trkpt lat="48.13439" lon="-3.83247">
        <ele>222</ele>
        <time>2020-06-08T09:26:41Z</time>
      </trkpt>
      <trkpt lat="48.13443" lon="-3.83249">
        <ele>222.1</ele>
        <time>2020-06-08T09:26:42Z</time>
      </trkpt>
      <trkpt lat="48.13444" lon="-3.83249">
        <ele>222.2</ele>
        <time>2020-06-08T09:26:43Z</time>
      </trkpt>
      <trkpt lat="48.13447" lon="-3.83251">
        <ele>222.3</ele>
        <time>2020-06-08T09:26:44Z</time>
      </trkpt>
      <trkpt lat="48.1345" lon="-3.83252">
        <ele>222.4</ele>
        <time>2020-06-08T09:26:45Z</time>
      </trkpt>
      <trkpt lat="48.13454" lon="-3.83253">
        <ele>222.5</ele>
        <time>2020-06-08T09:26:46Z</time>
      </trkpt>
      <trkpt lat="48.13457" lon="-3.83254">
        <ele>222.6</ele>
        <time>2020-06-08T09:26:47Z</time>
      </trkpt>
      <trkpt lat="48.1346" lon="-3.83256">
        <ele>222.7</ele>
        <time>2020-06-08T09:26:48Z</time>
      </trkpt>
      <trkpt lat="48.13464" lon="-3.83256">
        <ele>222.8</ele>
        <time>2020-06-08T09:26:49Z</time>
      </trkpt>
      <trkpt lat="48.13468" lon="-3.83257">
        <ele>222.9</ele>
        <time>2020-06-08T09:26:50Z</time>
      </trkpt>
      <trkpt lat="48.13473" lon="-3.83257">
        <ele>223</ele>
        <time>2020-06-08T09:26:51Z</time>
      </trkpt>
      <trkpt lat="48.13477" lon="-3.83259">
        <ele>223.2</ele>
        <time>2020-06-08T09:26:52Z</time>
      </trkpt>
      <trkpt lat="48.13481" lon="-3.83261">
        <ele>223.3</ele>
        <time>2020-06-08T09:26:53Z</time>
      </trkpt>
      <trkpt lat="48.13482" lon="-3.83262">
        <ele>223.3</ele>
        <time>2020-06-08T09:26:54Z</time>
      </trkpt>
      <trkpt lat="48.13485" lon="-3.83264">
        <ele>223.4</ele>
        <time>2020-06-08T09:26:55Z</time>
      </trkpt>
      <trkpt lat="48.13488" lon="-3.83266">
        <ele>223.5</ele>
        <time>2020-06-08T09:26:56Z</time>
      </trkpt>
      <trkpt lat="48.13491" lon="-3.83268">
        <ele>223.6</ele>
        <time>2020-06-08T09:26:57Z</time>
      </trkpt>
      <trkpt lat="48.13494" lon="-3.83268">
        <ele>223.7</ele>
        <time>2020-06-08T09:26:58Z</time>
      </trkpt>
      <trkpt lat="48.13498" lon="-3.8327">
        <ele>223.8</ele>
        <time>2020-06-08T09:26:59Z</time>
      </trkpt>
      <trkpt lat="48.13499" lon="-3.83271">
        <ele>223.9</ele>
        <time>2020-06-08T09:27:00Z</time>
      </trkpt>
      <trkpt lat="48.13502" lon="-3.83273">
        <ele>224</ele>
        <time>2020-06-08T09:27:01Z</time>
      </trkpt>
      <trkpt lat="48.13505" lon="-3.83273">
        <ele>224.1</ele>
        <time>2020-06-08T09:27:02Z</time>
      </trkpt>
      <trkpt lat="48.13509" lon="-3.83273">
        <ele>224.2</ele>
        <time>2020-06-08T09:27:03Z</time>
      </trkpt>
      <trkpt lat="48.13512" lon="-3.83274">
        <ele>224.3</ele>
        <time>2020-06-08T09:27:04Z</time>
      </trkpt>
      <trkpt lat="48.13516" lon="-3.83275">
        <ele>224.4</ele>
        <time>2020-06-08T09:27:05Z</time>
      </trkpt>
      <trkpt lat="48.1352" lon="-3.83276">
        <ele>224.5</ele>
        <time>2020-06-08T09:27:06Z</time>
      </trkpt>
      <trkpt lat="48.13524" lon="-3.83277">
        <ele>224.6</ele>
        <time>2020-06-08T09:27:07Z</time>
      </trkpt>
      <trkpt lat="48.13525" lon="-3.83277">
        <ele>224.7</ele>
        <time>2020-06-08T09:27:08Z</time>
      </trkpt>
      <trkpt lat="48.13529" lon="-3.83277">
        <ele>224.8</ele>
        <time>2020-06-08T09:27:09Z</time>
      </trkpt>
      <trkpt lat="48.1353" lon="-3.83277">
        <ele>224.8</ele>
        <time>2020-06-08T09:27:10Z</time>
      </trkpt>
      <trkpt lat="48.13533" lon="-3.83279">
        <ele>224.9</ele>
        <time>2020-06-08T09:27:11Z</time>
      </trkpt>
      <trkpt lat="48.13536" lon="-3.83279">
        <ele>225</ele>
        <time>2020-06-08T09:27:12Z</time>
      </trkpt>
      <trkpt lat="48.13539" lon="-3.83281">
        <ele>225.1</ele>
        <time>2020-06-08T09:27:13Z</time>
      </trkpt>
      <trkpt lat="48.13542" lon="-3.83282">
        <ele>225.2</ele>
        <time>2020-06-08T09:27:14Z</time>
      </trkpt>
      <trkpt lat="48.13546" lon="-3.83283">
        <ele>225.3</ele>
        <time>2020-06-08T09:27:15Z</time>
      </trkpt>
      <trkpt lat="48.13547" lon="-3.83283">
        <ele>225.4</ele>
        <time>2020-06-08T09:27:16Z</time>
      </trkpt>
      <trkpt lat="48.13551" lon="-3.83284">
        <ele>225.5</ele>
        <time>2020-06-08T09:27:17Z</time>
      </trkpt>
      <trkpt lat="48.13552" lon="-3.83285">
        <ele>225.5</ele>
        <time>2020-06-08T09:27:18Z</time>
      </trkpt>
      <trkpt lat="48.13556" lon="-3.83287">
        <ele>225.7</ele>
        <time>2020-06-08T09:27:19Z</time>
      </trkpt>
      <trkpt lat="48.1356" lon="-3.83288">
        <ele>225.8</ele>
        <time>2020-06-08T09:27:20Z</time>
      </trkpt>
      <trkpt lat="48.13563" lon="-3.83288">
        <ele>225.9</ele>
        <time>2020-06-08T09:27:21Z</time>
      </trkpt>
      <trkpt lat="48.13566" lon="-3.83289">
        <ele>225.9</ele>
        <time>2020-06-08T09:27:22Z</time>
      </trkpt>
      <trkpt lat="48.13569" lon="-3.83291">
        <ele>226</ele>
        <time>2020-06-08T09:27:23Z</time>
      </trkpt>
      <trkpt lat="48.13571" lon="-3.83291">
        <ele>226.1</ele>
        <time>2020-06-08T09:27:24Z</time>
      </trkpt>
      <trkpt lat="48.13575" lon="-3.83292">
        <ele>226.2</ele>
        <time>2020-06-08T09:27:25Z</time>
      </trkpt>
      <trkpt lat="48.13578" lon="-3.83294">
        <ele>226.3</ele>
        <time>2020-06-08T09:27:26Z</time>
      </trkpt>
      <trkpt lat="48.1358" lon="-3.83294">
        <ele>226.4</ele>
        <time>2020-06-08T09:27:27Z</time>
      </trkpt>
      <trkpt lat="48.13582" lon="-3.83296">
        <ele>226.5</ele>
        <time>2020-06-08T09:27:28Z</time>
      </trkpt>
      <trkpt lat="48.13585" lon="-3.83298">
        <ele>226.6</ele>
        <time>2020-06-08T09:27:29Z</time>
      </trkpt>
      <trkpt lat="48.13588" lon="-3.83299">
        <ele>226.6</ele>
        <time>2020-06-08T09:27:30Z</time>
      </trkpt>
      <trkpt lat="48.13594" lon="-3.83298">
        <ele>226.8</ele>
        <time>2020-06-08T09:27:31Z</time>
      </trkpt>
      <trkpt lat="48.136" lon="-3.83299">
        <ele>226.8</ele>
        <time>2020-06-08T09:27:32Z</time>
      </trkpt>
      <trkpt lat="48.13603" lon="-3.83299">
        <ele>226.8</ele>
        <time>2020-06-08T09:27:33Z</time>
      </trkpt>
      <trkpt lat="48.13607" lon="-3.83302">
        <ele>226.9</ele>
        <time>2020-06-08T09:27:34Z</time>
      </trkpt>
      <trkpt lat="48.13611" lon="-3.83303">
        <ele>226.9</ele>
        <time>2020-06-08T09:27:35Z</time>
      </trkpt>
      <trkpt lat="48.13612" lon="-3.83304">
        <ele>226.9</ele>
        <time>2020-06-08T09:27:36Z</time>
      </trkpt>
      <trkpt lat="48.13615" lon="-3.83305">
        <ele>227</ele>
        <time>2020-06-08T09:27:37Z</time>
      </trkpt>
      <trkpt lat="48.13618" lon="-3.83307">
        <ele>227.1</ele>
        <time>2020-06-08T09:27:38Z</time>
      </trkpt>
      <trkpt lat="48.13621" lon="-3.83308">
        <ele>227.2</ele>
        <time>2020-06-08T09:27:39Z</time>
      </trkpt>
      <trkpt lat="48.13625" lon="-3.8331">
        <ele>227.3</ele>
        <time>2020-06-08T09:27:40Z</time>
      </trkpt>
      <trkpt lat="48.13628" lon="-3.83311">
        <ele>227.4</ele>
        <time>2020-06-08T09:27:41Z</time>
      </trkpt>
      <trkpt lat="48.13631" lon="-3.83313">
        <ele>227.5</ele>
        <time>2020-06-08T09:27:42Z</time>
      </trkpt>
      <trkpt lat="48.13634" lon="-3.83315">
        <ele>227.6</ele>
        <time>2020-06-08T09:27:43Z</time>
      </trkpt>
      <trkpt lat="48.13637" lon="-3.83317">
        <ele>227.8</ele>
        <time>2020-06-08T09:27:44Z</time>
      </trkpt>
      <trkpt lat="48.1364" lon="-3.83319">
        <ele>227.9</ele>
        <time>2020-06-08T09:27:45Z</time>
      </trkpt>
      <trkpt lat="48.13642" lon="-3.8332">
        <ele>228</ele>
        <time>2020-06-08T09:27:46Z</time>
      </trkpt>
      <trkpt lat="48.13646" lon="-3.8332">
        <ele>228.2</ele>
        <time>2020-06-08T09:27:47Z</time>
      </trkpt>
      <trkpt lat="48.13649" lon="-3.83321">
        <ele>228.4</ele>
        <time>2020-06-08T09:27:48Z</time>
      </trkpt>
      <trkpt lat="48.13652" lon="-3.83323">
        <ele>228.6</ele>
        <time>2020-06-08T09:27:49Z</time>
      </trkpt>
      <trkpt lat="48.13656" lon="-3.83324">
        <ele>228.8</ele>
        <time>2020-06-08T09:27:50Z</time>
      </trkpt>
      <trkpt lat="48.13659" lon="-3.83325">
        <ele>229.2</ele>
        <time>2020-06-08T09:27:51Z</time>
      </trkpt>
      <trkpt lat="48.13662" lon="-3.83326">
        <ele>229.6</ele>
        <time>2020-06-08T09:27:52Z</time>
      </trkpt>
      <trkpt lat="48.13666" lon="-3.83327">
        <ele>230.1</ele>
        <time>2020-06-08T09:27:53Z</time>
      </trkpt>
      <trkpt lat="48.13668" lon="-3.83327">
        <ele>230.2</ele>
        <time>2020-06-08T09:27:54Z</time>
      </trkpt>
      <trkpt lat="48.13671" lon="-3.83329">
        <ele>230.6</ele>
        <time>2020-06-08T09:27:55Z</time>
      </trkpt>
      <trkpt lat="48.13673" lon="-3.8333">
        <ele>230.8</ele>
        <time>2020-06-08T09:27:56Z</time>
      </trkpt>
      <trkpt lat="48.13677" lon="-3.83332">
        <ele>231.1</ele>
        <time>2020-06-08T09:27:57Z</time>
      </trkpt>
      <trkpt lat="48.1368" lon="-3.83333">
        <ele>231.3</ele>
        <time>2020-06-08T09:27:58Z</time>
      </trkpt>
      <trkpt lat="48.13683" lon="-3.83335">
        <ele>231.5</ele>
        <time>2020-06-08T09:27:59Z</time>
      </trkpt>
      <trkpt lat="48.13686" lon="-3.83336">
        <ele>231.7</ele>
        <time>2020-06-08T09:28:00Z</time>
      </trkpt>
      <trkpt lat="48.13689" lon="-3.83337">
        <ele>231.8</ele>
        <time>2020-06-08T09:28:01Z</time>
      </trkpt>
      <trkpt lat="48.13695" lon="-3.83338">
        <ele>232.1</ele>
        <time>2020-06-08T09:28:02Z</time>
      </trkpt>
      <trkpt lat="48.13699" lon="-3.83339">
        <ele>232.3</ele>
        <time>2020-06-08T09:28:03Z</time>
      </trkpt>
      <trkpt lat="48.13703" lon="-3.83341">
        <ele>232.4</ele>
        <time>2020-06-08T09:28:04Z</time>
      </trkpt>
      <trkpt lat="48.13707" lon="-3.83342">
        <ele>232.6</ele>
        <time>2020-06-08T09:28:05Z</time>
      </trkpt>
      <trkpt lat="48.1371" lon="-3.83344">
        <ele>232.7</ele>
        <time>2020-06-08T09:28:06Z</time>
      </trkpt>
      <trkpt lat="48.13714" lon="-3.83345">
        <ele>232.9</ele>
        <time>2020-06-08T09:28:07Z</time>
      </trkpt>
      <trkpt lat="48.13717" lon="-3.83347">
        <ele>233.1</ele>
        <time>2020-06-08T09:28:08Z</time>
      </trkpt>
      <trkpt lat="48.13721" lon="-3.8335">
        <ele>233.3</ele>
        <time>2020-06-08T09:28:09Z</time>
      </trkpt>
      <trkpt lat="48.13722" lon="-3.8335">
        <ele>233.3</ele>
        <time>2020-06-08T09:28:10Z</time>
      </trkpt>
      <trkpt lat="48.13724" lon="-3.83352">
        <ele>233.5</ele>
        <time>2020-06-08T09:28:11Z</time>
      </trkpt>
      <trkpt lat="48.13727" lon="-3.83354">
        <ele>233.6</ele>
        <time>2020-06-08T09:28:12Z</time>
      </trkpt>
      <trkpt lat="48.1373" lon="-3.83356">
        <ele>233.8</ele>
        <time>2020-06-08T09:28:13Z</time>
      </trkpt>
      <trkpt lat="48.13733" lon="-3.83358">
        <ele>234</ele>
        <time>2020-06-08T09:28:14Z</time>
      </trkpt>
      <trkpt lat="48.13736" lon="-3.83361">
        <ele>234.1</ele>
        <time>2020-06-08T09:28:15Z</time>
      </trkpt>
      <trkpt lat="48.13739" lon="-3.83362">
        <ele>234.2</ele>
        <time>2020-06-08T09:28:16Z</time>
      </trkpt>
      <trkpt lat="48.1374" lon="-3.83362">
        <ele>234.3</ele>
        <time>2020-06-08T09:28:17Z</time>
      </trkpt>
      <trkpt lat="48.13742" lon="-3.83364">
        <ele>234.4</ele>
        <time>2020-06-08T09:28:18Z</time>
      </trkpt>
      <trkpt lat="48.13743" lon="-3.83365">
        <ele>234.4</ele>
        <time>2020-06-08T09:28:19Z</time>
      </trkpt>
      <trkpt lat="48.13746" lon="-3.83367">
        <ele>234.5</ele>
        <time>2020-06-08T09:28:20Z</time>
      </trkpt>
      <trkpt lat="48.13749" lon="-3.83369">
        <ele>234.6</ele>
        <time>2020-06-08T09:28:21Z</time>
      </trkpt>
      <trkpt lat="48.13752" lon="-3.83372">
        <ele>234.7</ele>
        <time>2020-06-08T09:28:22Z</time>
      </trkpt>
      <trkpt lat="48.13757" lon="-3.83371">
        <ele>234.9</ele>
        <time>2020-06-08T09:28:23Z</time>
      </trkpt>
      <trkpt lat="48.1376" lon="-3.83371">
        <ele>235</ele>
        <time>2020-06-08T09:28:24Z</time>
      </trkpt>
      <trkpt lat="48.13764" lon="-3.83373">
        <ele>235.1</ele>
        <time>2020-06-08T09:28:25Z</time>
      </trkpt>
      <trkpt lat="48.13765" lon="-3.83373">
        <ele>235.1</ele>
        <time>2020-06-08T09:28:26Z</time>
      </trkpt>
      <trkpt lat="48.13768" lon="-3.83375">
        <ele>235.2</ele>
        <time>2020-06-08T09:28:27Z</time>
      </trkpt>
      <trkpt lat="48.1377" lon="-3.83377">
        <ele>235.3</ele>
        <time>2020-06-08T09:28:28Z</time>
      </trkpt>
      <trkpt lat="48.13773" lon="-3.83379">
        <ele>235.4</ele>
        <time>2020-06-08T09:28:29Z</time>
      </trkpt>
      <trkpt lat="48.13776" lon="-3.83382">
        <ele>235.4</ele>
        <time>2020-06-08T09:28:30Z</time>
      </trkpt>
      <trkpt lat="48.13777" lon="-3.83383">
        <ele>235.5</ele>
        <time>2020-06-08T09:28:31Z</time>
      </trkpt>
      <trkpt lat="48.1378" lon="-3.83386">
        <ele>235.5</ele>
        <time>2020-06-08T09:28:32Z</time>
      </trkpt>
      <trkpt lat="48.13782" lon="-3.83391">
        <ele>235.5</ele>
        <time>2020-06-08T09:28:33Z</time>
      </trkpt>
      <trkpt lat="48.13783" lon="-3.83393">
        <ele>235.6</ele>
        <time>2020-06-08T09:28:34Z</time>
      </trkpt>
      <trkpt lat="48.13785" lon="-3.83396">
        <ele>235.6</ele>
        <time>2020-06-08T09:28:35Z</time>
      </trkpt>
      <trkpt lat="48.13788" lon="-3.83399">
        <ele>235.5</ele>
        <time>2020-06-08T09:28:36Z</time>
      </trkpt>
      <trkpt lat="48.13789" lon="-3.83401">
        <ele>235.5</ele>
        <time>2020-06-08T09:28:37Z</time>
      </trkpt>
      <trkpt lat="48.13792" lon="-3.83402">
        <ele>235.5</ele>
        <time>2020-06-08T09:28:38Z</time>
      </trkpt>
      <trkpt lat="48.13794" lon="-3.83405">
        <ele>235.4</ele>
        <time>2020-06-08T09:28:39Z</time>
      </trkpt>
      <trkpt lat="48.13797" lon="-3.83406">
        <ele>235.4</ele>
        <time>2020-06-08T09:28:40Z</time>
      </trkpt>
      <trkpt lat="48.13799" lon="-3.83407">
        <ele>235.3</ele>
        <time>2020-06-08T09:28:41Z</time>
      </trkpt>
      <trkpt lat="48.13802" lon="-3.83409">
        <ele>235.2</ele>
        <time>2020-06-08T09:28:42Z</time>
      </trkpt>
      <trkpt lat="48.13805" lon="-3.83407">
        <ele>235</ele>
        <time>2020-06-08T09:28:43Z</time>
      </trkpt>
      <trkpt lat="48.13808" lon="-3.83404">
        <ele>234.8</ele>
        <time>2020-06-08T09:28:44Z</time>
      </trkpt>
      <trkpt lat="48.13808" lon="-3.83403">
        <ele>234.8</ele>
        <time>2020-06-08T09:28:45Z</time>
      </trkpt>
      <trkpt lat="48.13809" lon="-3.83401">
        <ele>234.7</ele>
        <time>2020-06-08T09:28:46Z</time>
      </trkpt>
      <trkpt lat="48.1381" lon="-3.83402">
        <ele>234.6</ele>
        <time>2020-06-08T09:28:47Z</time>
      </trkpt>
      <trkpt lat="48.13811" lon="-3.83402">
        <ele>234.6</ele>
        <time>2020-06-08T09:28:48Z</time>
      </trkpt>
      <trkpt lat="48.13812" lon="-3.83402">
        <ele>234.6</ele>
        <time>2020-06-08T09:28:49Z</time>
      </trkpt>
      <trkpt lat="48.13812" lon="-3.83402">
        <ele>234.5</ele>
        <time>2020-06-08T09:28:50Z</time>
      </trkpt>
      <trkpt lat="48.13812" lon="-3.83403">
        <ele>234.5</ele>
        <time>2020-06-08T09:28:51Z</time>
      </trkpt>
      <trkpt lat="48.13813" lon="-3.83403">
        <ele>234.5</ele>
        <time>2020-06-08T09:28:52Z</time>
      </trkpt>
      <trkpt lat="48.13813" lon="-3.83404">
        <ele>234.4</ele>
        <time>2020-06-08T09:28:53Z</time>
      </trkpt>
      <trkpt lat="48.13814" lon="-3.83404">
        <ele>234.4</ele>
        <time>2020-06-08T09:28:54Z</time>
      </trkpt>
      <trkpt lat="48.13814" lon="-3.83405">
        <ele>233.3</ele>
        <time>2020-06-08T09:28:55Z</time>
      </trkpt>
      <trkpt lat="48.13815" lon="-3.83405">
        <ele>233.3</ele>
        <time>2020-06-08T09:28:56Z</time>
      </trkpt>
      <trkpt lat="48.13815" lon="-3.83406">
        <ele>233.2</ele>
        <time>2020-06-08T09:28:57Z</time>
      </trkpt>
      <trkpt lat="48.13815" lon="-3.83406">
        <ele>233.2</ele>
        <time>2020-06-08T09:28:58Z</time>
      </trkpt>
      <trkpt lat="48.13816" lon="-3.83407">
        <ele>233.2</ele>
        <time>2020-06-08T09:28:59Z</time>
      </trkpt>
      <trkpt lat="48.13816" lon="-3.83407">
        <ele>233.1</ele>
        <time>2020-06-08T09:29:00Z</time>
      </trkpt>
      <trkpt lat="48.13817" lon="-3.83408">
        <ele>233.1</ele>
        <time>2020-06-08T09:29:10Z</time>
      </trkpt>
      <trkpt lat="48.13817" lon="-3.83408">
        <ele>233.1</ele>
        <time>2020-06-08T09:29:11Z</time>
      </trkpt>
      <trkpt lat="48.13818" lon="-3.83412">
        <ele>232.9</ele>
        <time>2020-06-08T09:29:12Z</time>
      </trkpt>
      <trkpt lat="48.13819" lon="-3.83418">
        <ele>232.7</ele>
        <time>2020-06-08T09:29:13Z</time>
      </trkpt>
      <trkpt lat="48.1382" lon="-3.83423">
        <ele>232.5</ele>
        <time>2020-06-08T09:29:14Z</time>
      </trkpt>
      <trkpt lat="48.13821" lon="-3.83428">
        <ele>232.5</ele>
        <time>2020-06-08T09:29:15Z</time>
      </trkpt>
      <trkpt lat="48.13822" lon="-3.83432">
        <ele>232.5</ele>
        <time>2020-06-08T09:29:16Z</time>
      </trkpt>
      <trkpt lat="48.13823" lon="-3.83437">
        <ele>232.5</ele>
        <time>2020-06-08T09:29:17Z</time>
      </trkpt>
      <trkpt lat="48.13824" lon="-3.83442">
        <ele>232.4</ele>
        <time>2020-06-08T09:29:18Z</time>
      </trkpt>
      <trkpt lat="48.13825" lon="-3.83447">
        <ele>232.4</ele>
        <time>2020-06-08T09:29:19Z</time>
      </trkpt>
      <trkpt lat="48.13827" lon="-3.83452">
        <ele>232.4</ele>
        <time>2020-06-08T09:29:20Z</time>
      </trkpt>
      <trkpt lat="48.13828" lon="-3.83457">
        <ele>232.3</ele>
        <time>2020-06-08T09:29:21Z</time>
      </trkpt>
      <trkpt lat="48.1383" lon="-3.83461">
        <ele>232.2</ele>
        <time>2020-06-08T09:29:22Z</time>
      </trkpt>
      <trkpt lat="48.13831" lon="-3.83465">
        <ele>232</ele>
        <time>2020-06-08T09:29:23Z</time>
      </trkpt>
      <trkpt lat="48.13832" lon="-3.83469">
        <ele>231.9</ele>
        <time>2020-06-08T09:29:24Z</time>
      </trkpt>
      <trkpt lat="48.13833" lon="-3.83474">
        <ele>231.8</ele>
        <time>2020-06-08T09:29:25Z</time>
      </trkpt>
      <trkpt lat="48.13833" lon="-3.83481">
        <ele>231.5</ele>
        <time>2020-06-08T09:29:26Z</time>
      </trkpt>
      <trkpt lat="48.13831" lon="-3.83485">
        <ele>231.4</ele>
        <time>2020-06-08T09:29:27Z</time>
      </trkpt>
      <trkpt lat="48.1383" lon="-3.8349">
        <ele>231.2</ele>
        <time>2020-06-08T09:29:28Z</time>
      </trkpt>
      <trkpt lat="48.13829" lon="-3.83495">
        <ele>231</ele>
        <time>2020-06-08T09:29:29Z</time>
      </trkpt>
      <trkpt lat="48.13829" lon="-3.83496">
        <ele>231</ele>
        <time>2020-06-08T09:29:30Z</time>
      </trkpt>
      <trkpt lat="48.13829" lon="-3.83499">
        <ele>230.9</ele>
        <time>2020-06-08T09:29:31Z</time>
      </trkpt>
      <trkpt lat="48.13828" lon="-3.83502">
        <ele>230.8</ele>
        <time>2020-06-08T09:29:32Z</time>
      </trkpt>
      <trkpt lat="48.13828" lon="-3.83504">
        <ele>230.7</ele>
        <time>2020-06-08T09:29:33Z</time>
      </trkpt>
      <trkpt lat="48.13829" lon="-3.83507">
        <ele>230.6</ele>
        <time>2020-06-08T09:29:34Z</time>
      </trkpt>
      <trkpt lat="48.13829" lon="-3.83509">
        <ele>230.5</ele>
        <time>2020-06-08T09:29:35Z</time>
      </trkpt>
      <trkpt lat="48.1383" lon="-3.83511">
        <ele>230.4</ele>
        <time>2020-06-08T09:29:36Z</time>
      </trkpt>
      <trkpt lat="48.13831" lon="-3.83512">
        <ele>230.3</ele>
        <time>2020-06-08T09:29:37Z</time>
      </trkpt>
      <trkpt lat="48.13833" lon="-3.83513">
        <ele>230.2</ele>
        <time>2020-06-08T09:29:38Z</time>
      </trkpt>
      <trkpt lat="48.13834" lon="-3.83514">
        <ele>230.1</ele>
        <time>2020-06-08T09:29:39Z</time>
      </trkpt>
      <trkpt lat="48.13835" lon="-3.83515">
        <ele>230.1</ele>
        <time>2020-06-08T09:29:40Z</time>
      </trkpt>
      <trkpt lat="48.13836" lon="-3.83514">
        <ele>230</ele>
        <time>2020-06-08T09:29:41Z</time>
      </trkpt>
      <trkpt lat="48.13837" lon="-3.83516">
        <ele>229.9</ele>
        <time>2020-06-08T09:29:42Z</time>
      </trkpt>
      <trkpt lat="48.13838" lon="-3.83517">
        <ele>229.9</ele>
        <time>2020-06-08T09:29:43Z</time>
      </trkpt>
      <trkpt lat="48.13838" lon="-3.83517">
        <ele>229.9</ele>
        <time>2020-06-08T09:29:44Z</time>
      </trkpt>
      <trkpt lat="48.13838" lon="-3.83517">
        <ele>229.9</ele>
        <time>2020-06-08T09:29:45Z</time>
      </trkpt>
      <trkpt lat="48.13838" lon="-3.83517">
        <ele>229.8</ele>
        <time>2020-06-08T09:29:46Z</time>
      </trkpt>
      <trkpt lat="48.13839" lon="-3.83516">
        <ele>229.7</ele>
        <time>2020-06-08T09:29:47Z</time>
      </trkpt>
      <trkpt lat="48.13839" lon="-3.83516">
        <ele>229.7</ele>
        <time>2020-06-08T09:29:48Z</time>
      </trkpt>
      <trkpt lat="48.13839" lon="-3.83516">
        <ele>229.7</ele>
        <time>2020-06-08T09:29:49Z</time>
      </trkpt>
      <trkpt lat="48.13839" lon="-3.83516">
        <ele>229.7</ele>
        <time>2020-06-08T09:29:50Z</time>
      </trkpt>
      <trkpt lat="48.1384" lon="-3.83516">
        <ele>229.7</ele>
        <time>2020-06-08T09:29:51Z</time>
      </trkpt>
      <trkpt lat="48.1384" lon="-3.83516">
        <ele>229.7</ele>
        <time>2020-06-08T09:29:52Z</time>
      </trkpt>
      <trkpt lat="48.1384" lon="-3.83516">
        <ele>229.7</ele>
        <time>2020-06-08T09:29:53Z</time>
      </trkpt>
      <trkpt lat="48.13854" lon="-3.83515">
        <ele>228.9</ele>
        <time>2020-06-08T09:46:19Z</time>
      </trkpt>
      <trkpt lat="48.13854" lon="-3.83515">
        <ele>228.8</ele>
        <time>2020-06-08T09:46:20Z</time>
      </trkpt>
      <trkpt lat="48.13854" lon="-3.83516">
        <ele>228.8</ele>
        <time>2020-06-08T09:46:21Z</time>
      </trkpt>
      <trkpt lat="48.13855" lon="-3.83516">
        <ele>228.8</ele>
        <time>2020-06-08T09:46:22Z</time>
      </trkpt>
      <trkpt lat="48.13855" lon="-3.83516">
        <ele>228.8</ele>
        <time>2020-06-08T09:46:23Z</time>
      </trkpt>
      <trkpt lat="48.13855" lon="-3.83516">
        <ele>228.8</ele>
        <time>2020-06-08T09:46:24Z</time>
      </trkpt>
      <trkpt lat="48.13855" lon="-3.83516">
        <ele>228.8</ele>
        <time>2020-06-08T09:46:25Z</time>
      </trkpt>
      <trkpt lat="48.13855" lon="-3.83516">
        <ele>228.8</ele>
        <time>2020-06-08T09:46:26Z</time>
      </trkpt>
      <trkpt lat="48.13855" lon="-3.83516">
        <ele>228.8</ele>
        <time>2020-06-08T09:46:27Z</time>
      </trkpt>
      <trkpt lat="48.13855" lon="-3.83516">
        <ele>228.8</ele>
        <time>2020-06-08T09:46:28Z</time>
      </trkpt>
      <trkpt lat="48.13855" lon="-3.83517">
        <ele>228.7</ele>
        <time>2020-06-08T09:46:29Z</time>
      </trkpt>
      <trkpt lat="48.1386" lon="-3.83521">
        <ele>228.3</ele>
        <time>2020-06-08T09:59:33Z</time>
      </trkpt>
      <trkpt lat="48.13861" lon="-3.83521">
        <ele>228.3</ele>
        <time>2020-06-08T09:59:34Z</time>
      </trkpt>
      <trkpt lat="48.13861" lon="-3.83519">
        <ele>228.4</ele>
        <time>2020-06-08T09:59:35Z</time>
      </trkpt>
      <trkpt lat="48.13861" lon="-3.83519">
        <ele>228.4</ele>
        <time>2020-06-08T09:59:36Z</time>
      </trkpt>
      <trkpt lat="48.13862" lon="-3.8352">
        <ele>228.4</ele>
        <time>2020-06-08T09:59:37Z</time>
      </trkpt>
      <trkpt lat="48.13862" lon="-3.83519">
        <ele>228.4</ele>
        <time>2020-06-08T09:59:38Z</time>
      </trkpt>
      <trkpt lat="48.13863" lon="-3.83519">
        <ele>228.4</ele>
        <time>2020-06-08T09:59:39Z</time>
      </trkpt>
      <trkpt lat="48.13862" lon="-3.83518">
        <ele>228.5</ele>
        <time>2020-06-08T09:59:40Z</time>
      </trkpt>
      <trkpt lat="48.13861" lon="-3.83517">
        <ele>228.5</ele>
        <time>2020-06-08T09:59:41Z</time>
      </trkpt>
      <trkpt lat="48.13859" lon="-3.83518">
        <ele>228.6</ele>
        <time>2020-06-08T09:59:42Z</time>
      </trkpt>
      <trkpt lat="48.13858" lon="-3.83518">
        <ele>228.6</ele>
        <time>2020-06-08T09:59:43Z</time>
      </trkpt>
      <trkpt lat="48.13858" lon="-3.8352">
        <ele>228.6</ele>
        <time>2020-06-08T09:59:44Z</time>
      </trkpt>
      <trkpt lat="48.13858" lon="-3.83519">
        <ele>228.7</ele>
        <time>2020-06-08T09:59:45Z</time>
      </trkpt>
      <trkpt lat="48.13858" lon="-3.83519">
        <ele>228.7</ele>
        <time>2020-06-08T09:59:46Z</time>
      </trkpt>
      <trkpt lat="48.13858" lon="-3.83518">
        <ele>228.7</ele>
        <time>2020-06-08T09:59:47Z</time>
      </trkpt>
      <trkpt lat="48.13858" lon="-3.83518">
        <ele>228.7</ele>
        <time>2020-06-08T09:59:48Z</time>
      </trkpt>
      <trkpt lat="48.13858" lon="-3.83517">
        <ele>228.7</ele>
        <time>2020-06-08T09:59:49Z</time>
      </trkpt>
      <trkpt lat="48.13858" lon="-3.83515">
        <ele>228.8</ele>
        <time>2020-06-08T09:59:50Z</time>
      </trkpt>
      <trkpt lat="48.13858" lon="-3.83515">
        <ele>228.8</ele>
        <time>2020-06-08T09:59:51Z</time>
      </trkpt>
      <trkpt lat="48.13858" lon="-3.83515">
        <ele>228.8</ele>
        <time>2020-06-08T09:59:52Z</time>
      </trkpt>
      <trkpt lat="48.13847" lon="-3.83517">
        <ele>229.2</ele>
        <time>2020-06-08T10:09:28Z</time>
      </trkpt>
      <trkpt lat="48.13848" lon="-3.83516">
        <ele>229.2</ele>
        <time>2020-06-08T10:09:29Z</time>
      </trkpt>
      <trkpt lat="48.13849" lon="-3.83516">
        <ele>229.2</ele>
        <time>2020-06-08T10:09:30Z</time>
      </trkpt>
      <trkpt lat="48.13849" lon="-3.83516">
        <ele>229.2</ele>
        <time>2020-06-08T10:09:31Z</time>
      </trkpt>
      <trkpt lat="48.13849" lon="-3.83516">
        <ele>229.3</ele>
        <time>2020-06-08T10:09:32Z</time>
      </trkpt>
      <trkpt lat="48.1385" lon="-3.83516">
        <ele>229.3</ele>
        <time>2020-06-08T10:09:33Z</time>
      </trkpt>
      <trkpt lat="48.1385" lon="-3.83515">
        <ele>229.3</ele>
        <time>2020-06-08T10:09:34Z</time>
      </trkpt>
      <trkpt lat="48.1385" lon="-3.83515">
        <ele>229.3</ele>
        <time>2020-06-08T10:09:35Z</time>
      </trkpt>
      <trkpt lat="48.1385" lon="-3.83515">
        <ele>229.3</ele>
        <time>2020-06-08T10:09:36Z</time>
      </trkpt>
      <trkpt lat="48.13849" lon="-3.83515">
        <ele>229.3</ele>
        <time>2020-06-08T10:09:37Z</time>
      </trkpt>
      <trkpt lat="48.13849" lon="-3.83515">
        <ele>229.3</ele>
        <time>2020-06-08T10:09:38Z</time>
      </trkpt>
      <trkpt lat="48.13849" lon="-3.83515">
        <ele>229.3</ele>
        <time>2020-06-08T10:09:39Z</time>
      </trkpt>
      <trkpt lat="48.13849" lon="-3.83515">
        <ele>229.4</ele>
        <time>2020-06-08T10:09:40Z</time>
      </trkpt>
      <trkpt lat="48.13849" lon="-3.83515">
        <ele>229.4</ele>
        <time>2020-06-08T10:09:41Z</time>
      </trkpt>
      <trkpt lat="48.13848" lon="-3.83514">
        <ele>229.4</ele>
        <time>2020-06-08T10:09:42Z</time>
      </trkpt>
      <trkpt lat="48.13847" lon="-3.83515">
        <ele>229.4</ele>
        <time>2020-06-08T10:09:43Z</time>
      </trkpt>
      <trkpt lat="48.13846" lon="-3.83515">
        <ele>229.5</ele>
        <time>2020-06-08T10:09:44Z</time>
      </trkpt>
      <trkpt lat="48.13845" lon="-3.83516">
        <ele>229.5</ele>
        <time>2020-06-08T10:09:45Z</time>
      </trkpt>
      <trkpt lat="48.13845" lon="-3.83515">
        <ele>229.5</ele>
        <time>2020-06-08T10:09:46Z</time>
      </trkpt>
      <trkpt lat="48.1385" lon="-3.83506">
        <ele>229.8</ele>
        <time>2020-06-08T10:10:01Z</time>
      </trkpt>
      <trkpt lat="48.13851" lon="-3.83505">
        <ele>229.8</ele>
        <time>2020-06-08T10:10:02Z</time>
      </trkpt>
      <trkpt lat="48.13851" lon="-3.83503">
        <ele>229.9</ele>
        <time>2020-06-08T10:10:03Z</time>
      </trkpt>
      <trkpt lat="48.13851" lon="-3.83501">
        <ele>229.9</ele>
        <time>2020-06-08T10:10:04Z</time>
      </trkpt>
      <trkpt lat="48.13851" lon="-3.83501">
        <ele>229.9</ele>
        <time>2020-06-08T10:10:05Z</time>
      </trkpt>
      <trkpt lat="48.13851" lon="-3.835">
        <ele>230</ele>
        <time>2020-06-08T10:10:06Z</time>
      </trkpt>
      <trkpt lat="48.13851" lon="-3.835">
        <ele>230</ele>
        <time>2020-06-08T10:10:07Z</time>
      </trkpt>
      <trkpt lat="48.13851" lon="-3.835">
        <ele>230</ele>
        <time>2020-06-08T10:10:08Z</time>
      </trkpt>
      <trkpt lat="48.13851" lon="-3.835">
        <ele>230</ele>
        <time>2020-06-08T10:10:09Z</time>
      </trkpt>
      <trkpt lat="48.1385" lon="-3.835">
        <ele>230</ele>
        <time>2020-06-08T10:10:10Z</time>
      </trkpt>
      <trkpt lat="48.1385" lon="-3.83501">
        <ele>230.1</ele>
        <time>2020-06-08T10:10:11Z</time>
      </trkpt>
      <trkpt lat="48.1385" lon="-3.83503">
        <ele>230.1</ele>
        <time>2020-06-08T10:10:12Z</time>
      </trkpt>
      <trkpt lat="48.13849" lon="-3.83505">
        <ele>230.2</ele>
        <time>2020-06-08T10:10:13Z</time>
      </trkpt>
      <trkpt lat="48.13849" lon="-3.83507">
        <ele>230.2</ele>
        <time>2020-06-08T10:10:14Z</time>
      </trkpt>
      <trkpt lat="48.13848" lon="-3.83508">
        <ele>230.2</ele>
        <time>2020-06-08T10:10:15Z</time>
      </trkpt>
      <trkpt lat="48.13848" lon="-3.83509">
        <ele>230.3</ele>
        <time>2020-06-08T10:10:16Z</time>
      </trkpt>
      <trkpt lat="48.13848" lon="-3.8351">
        <ele>230.3</ele>
        <time>2020-06-08T10:10:17Z</time>
      </trkpt>
      <trkpt lat="48.13848" lon="-3.83511">
        <ele>230.3</ele>
        <time>2020-06-08T10:10:18Z</time>
      </trkpt>
      <trkpt lat="48.13847" lon="-3.83512">
        <ele>230.3</ele>
        <time>2020-06-08T10:10:19Z</time>
      </trkpt>
      <trkpt lat="48.13847" lon="-3.83513">
        <ele>230.3</ele>
        <time>2020-06-08T10:10:20Z</time>
      </trkpt>
      <trkpt lat="48.13847" lon="-3.83513">
        <ele>230.3</ele>
        <time>2020-06-08T10:10:21Z</time>
      </trkpt>
      <trkpt lat="48.13847" lon="-3.83514">
        <ele>230.4</ele>
        <time>2020-06-08T10:10:22Z</time>
      </trkpt>
      <trkpt lat="48.13847" lon="-3.83514">
        <ele>230.4</ele>
        <time>2020-06-08T10:10:23Z</time>
      </trkpt>
      <trkpt lat="48.13847" lon="-3.83514">
        <ele>230.4</ele>
        <time>2020-06-08T10:10:24Z</time>
      </trkpt>
      <trkpt lat="48.13847" lon="-3.83514">
        <ele>230.4</ele>
        <time>2020-06-08T10:10:25Z</time>
      </trkpt>
      <trkpt lat="48.13847" lon="-3.83514">
        <ele>230.4</ele>
        <time>2020-06-08T10:10:26Z</time>
      </trkpt>
      <trkpt lat="48.13847" lon="-3.83514">
        <ele>230.4</ele>
        <time>2020-06-08T10:10:27Z</time>
      </trkpt>
      <trkpt lat="48.13847" lon="-3.83514">
        <ele>230.4</ele>
        <time>2020-06-08T10:10:28Z</time>
      </trkpt>
      <trkpt lat="48.13847" lon="-3.83514">
        <ele>230.4</ele>
        <time>2020-06-08T10:10:29Z</time>
      </trkpt>
      <trkpt lat="48.13846" lon="-3.83515">
        <ele>230.4</ele>
        <time>2020-06-08T10:10:30Z</time>
      </trkpt>
      <trkpt lat="48.13847" lon="-3.83514">
        <ele>230.4</ele>
        <time>2020-06-08T10:10:31Z</time>
      </trkpt>
      <trkpt lat="48.13846" lon="-3.83522">
        <ele>230.6</ele>
        <time>2020-06-08T10:10:47Z</time>
      </trkpt>
      <trkpt lat="48.13846" lon="-3.83523">
        <ele>230.6</ele>
        <time>2020-06-08T10:10:48Z</time>
      </trkpt>
      <trkpt lat="48.13846" lon="-3.83524">
        <ele>230.6</ele>
        <time>2020-06-08T10:10:49Z</time>
      </trkpt>
      <trkpt lat="48.13846" lon="-3.83524">
        <ele>230.6</ele>
        <time>2020-06-08T10:10:50Z</time>
      </trkpt>
      <trkpt lat="48.13846" lon="-3.83524">
        <ele>230.6</ele>
        <time>2020-06-08T10:10:51Z</time>
      </trkpt>
      <trkpt lat="48.13846" lon="-3.83524">
        <ele>230.6</ele>
        <time>2020-06-08T10:10:52Z</time>
      </trkpt>
      <trkpt lat="48.13846" lon="-3.83524">
        <ele>230.6</ele>
        <time>2020-06-08T10:10:53Z</time>
      </trkpt>
      <trkpt lat="48.13846" lon="-3.83524">
        <ele>230.6</ele>
        <time>2020-06-08T10:10:54Z</time>
      </trkpt>
      <trkpt lat="48.13846" lon="-3.83524">
        <ele>230.6</ele>
        <time>2020-06-08T10:10:55Z</time>
      </trkpt>
      <trkpt lat="48.13845" lon="-3.83525">
        <ele>230.7</ele>
        <time>2020-06-08T10:10:56Z</time>
      </trkpt>
      <trkpt lat="48.13845" lon="-3.83525">
        <ele>230.7</ele>
        <time>2020-06-08T10:10:57Z</time>
      </trkpt>
      <trkpt lat="48.13845" lon="-3.83525">
        <ele>230.7</ele>
        <time>2020-06-08T10:10:58Z</time>
      </trkpt>
      <trkpt lat="48.13845" lon="-3.83525">
        <ele>230.7</ele>
        <time>2020-06-08T10:10:59Z</time>
      </trkpt>
      <trkpt lat="48.13846" lon="-3.83524">
        <ele>230.7</ele>
        <time>2020-06-08T10:11:00Z</time>
      </trkpt>
      <trkpt lat="48.13846" lon="-3.83525">
        <ele>230.7</ele>
        <time>2020-06-08T10:11:01Z</time>
      </trkpt>
      <trkpt lat="48.1384" lon="-3.83516">
        <ele>231</ele>
        <time>2020-06-08T10:11:23Z</time>
      </trkpt>
      <trkpt lat="48.13839" lon="-3.83511">
        <ele>231.1</ele>
        <time>2020-06-08T10:11:24Z</time>
      </trkpt>
      <trkpt lat="48.13838" lon="-3.83506">
        <ele>231.2</ele>
        <time>2020-06-08T10:11:25Z</time>
      </trkpt>
      <trkpt lat="48.13838" lon="-3.83501">
        <ele>231.3</ele>
        <time>2020-06-08T10:11:26Z</time>
      </trkpt>
      <trkpt lat="48.13839" lon="-3.83496">
        <ele>231.4</ele>
        <time>2020-06-08T10:11:27Z</time>
      </trkpt>
      <trkpt lat="48.13839" lon="-3.8349">
        <ele>231.6</ele>
        <time>2020-06-08T10:11:28Z</time>
      </trkpt>
      <trkpt lat="48.13839" lon="-3.83482">
        <ele>231.7</ele>
        <time>2020-06-08T10:11:29Z</time>
      </trkpt>
      <trkpt lat="48.13838" lon="-3.83475">
        <ele>231.8</ele>
        <time>2020-06-08T10:11:30Z</time>
      </trkpt>
      <trkpt lat="48.13836" lon="-3.83468">
        <ele>232</ele>
        <time>2020-06-08T10:11:31Z</time>
      </trkpt>
      <trkpt lat="48.13834" lon="-3.83462">
        <ele>232.1</ele>
        <time>2020-06-08T10:11:32Z</time>
      </trkpt>
      <trkpt lat="48.13831" lon="-3.83459">
        <ele>232.2</ele>
        <time>2020-06-08T10:11:33Z</time>
      </trkpt>
      <trkpt lat="48.13827" lon="-3.83456">
        <ele>232.3</ele>
        <time>2020-06-08T10:11:34Z</time>
      </trkpt>
      <trkpt lat="48.13824" lon="-3.83455">
        <ele>232.3</ele>
        <time>2020-06-08T10:11:35Z</time>
      </trkpt>
      <trkpt lat="48.13821" lon="-3.83454">
        <ele>232.4</ele>
        <time>2020-06-08T10:11:36Z</time>
      </trkpt>
      <trkpt lat="48.13819" lon="-3.83453">
        <ele>232.5</ele>
        <time>2020-06-08T10:11:37Z</time>
      </trkpt>
      <trkpt lat="48.13816" lon="-3.83451">
        <ele>232.6</ele>
        <time>2020-06-08T10:11:38Z</time>
      </trkpt>
      <trkpt lat="48.13815" lon="-3.8345">
        <ele>232.6</ele>
        <time>2020-06-08T10:11:39Z</time>
      </trkpt>
      <trkpt lat="48.13814" lon="-3.83445">
        <ele>232.7</ele>
        <time>2020-06-08T10:11:40Z</time>
      </trkpt>
      <trkpt lat="48.13813" lon="-3.83444">
        <ele>232.7</ele>
        <time>2020-06-08T10:11:41Z</time>
      </trkpt>
      <trkpt lat="48.13812" lon="-3.83439">
        <ele>233</ele>
        <time>2020-06-08T10:11:42Z</time>
      </trkpt>
      <trkpt lat="48.13812" lon="-3.83437">
        <ele>233</ele>
        <time>2020-06-08T10:11:43Z</time>
      </trkpt>
      <trkpt lat="48.13811" lon="-3.83431">
        <ele>233.1</ele>
        <time>2020-06-08T10:11:44Z</time>
      </trkpt>
      <trkpt lat="48.1381" lon="-3.83429">
        <ele>233.2</ele>
        <time>2020-06-08T10:11:45Z</time>
      </trkpt>
      <trkpt lat="48.1381" lon="-3.83424">
        <ele>233.3</ele>
        <time>2020-06-08T10:11:46Z</time>
      </trkpt>
      <trkpt lat="48.1381" lon="-3.8342">
        <ele>233.4</ele>
        <time>2020-06-08T10:11:47Z</time>
      </trkpt>
      <trkpt lat="48.1381" lon="-3.83416">
        <ele>233.5</ele>
        <time>2020-06-08T10:11:48Z</time>
      </trkpt>
      <trkpt lat="48.1381" lon="-3.8341">
        <ele>233.7</ele>
        <time>2020-06-08T10:11:49Z</time>
      </trkpt>
      <trkpt lat="48.1381" lon="-3.83408">
        <ele>233.8</ele>
        <time>2020-06-08T10:11:50Z</time>
      </trkpt>
      <trkpt lat="48.13811" lon="-3.83403">
        <ele>234.1</ele>
        <time>2020-06-08T10:11:51Z</time>
      </trkpt>
      <trkpt lat="48.13811" lon="-3.83401">
        <ele>234.1</ele>
        <time>2020-06-08T10:11:52Z</time>
      </trkpt>
      <trkpt lat="48.13811" lon="-3.83396">
        <ele>234.4</ele>
        <time>2020-06-08T10:11:53Z</time>
      </trkpt>
      <trkpt lat="48.13812" lon="-3.83394">
        <ele>234.4</ele>
        <time>2020-06-08T10:11:54Z</time>
      </trkpt>
      <trkpt lat="48.13813" lon="-3.8339">
        <ele>234.1</ele>
        <time>2020-06-08T10:11:55Z</time>
      </trkpt>
      <trkpt lat="48.13814" lon="-3.83389">
        <ele>233.9</ele>
        <time>2020-06-08T10:11:56Z</time>
      </trkpt>
      <trkpt lat="48.13817" lon="-3.83386">
        <ele>233.6</ele>
        <time>2020-06-08T10:11:57Z</time>
      </trkpt>
      <trkpt lat="48.13817" lon="-3.83386">
        <ele>233.5</ele>
        <time>2020-06-08T10:11:58Z</time>
      </trkpt>
      <trkpt lat="48.13821" lon="-3.83386">
        <ele>233.8</ele>
        <time>2020-06-08T10:11:59Z</time>
      </trkpt>
      <trkpt lat="48.13823" lon="-3.83386">
        <ele>233.6</ele>
        <time>2020-06-08T10:12:00Z</time>
      </trkpt>
      <trkpt lat="48.13826" lon="-3.83384">
        <ele>233.2</ele>
        <time>2020-06-08T10:12:01Z</time>
      </trkpt>
      <trkpt lat="48.13829" lon="-3.83382">
        <ele>232.8</ele>
        <time>2020-06-08T10:12:02Z</time>
      </trkpt>
      <trkpt lat="48.13832" lon="-3.8338">
        <ele>232</ele>
        <time>2020-06-08T10:12:03Z</time>
      </trkpt>
      <trkpt lat="48.13835" lon="-3.83376">
        <ele>231.9</ele>
        <time>2020-06-08T10:12:04Z</time>
      </trkpt>
      <trkpt lat="48.13838" lon="-3.83372">
        <ele>231.7</ele>
        <time>2020-06-08T10:12:05Z</time>
      </trkpt>
      <trkpt lat="48.13842" lon="-3.83369">
        <ele>231.6</ele>
        <time>2020-06-08T10:12:06Z</time>
      </trkpt>
      <trkpt lat="48.13846" lon="-3.83363">
        <ele>231.3</ele>
        <time>2020-06-08T10:12:07Z</time>
      </trkpt>
      <trkpt lat="48.13849" lon="-3.83358">
        <ele>231.1</ele>
        <time>2020-06-08T10:12:08Z</time>
      </trkpt>
      <trkpt lat="48.13853" lon="-3.83352">
        <ele>230.9</ele>
        <time>2020-06-08T10:12:09Z</time>
      </trkpt>
      <trkpt lat="48.13857" lon="-3.83346">
        <ele>230.7</ele>
        <time>2020-06-08T10:12:10Z</time>
      </trkpt>
      <trkpt lat="48.13862" lon="-3.8334">
        <ele>230.4</ele>
        <time>2020-06-08T10:12:11Z</time>
      </trkpt>
      <trkpt lat="48.13865" lon="-3.83333">
        <ele>230.2</ele>
        <time>2020-06-08T10:12:12Z</time>
      </trkpt>
      <trkpt lat="48.13869" lon="-3.83326">
        <ele>230</ele>
        <time>2020-06-08T10:12:13Z</time>
      </trkpt>
      <trkpt lat="48.13873" lon="-3.83318">
        <ele>229.7</ele>
        <time>2020-06-08T10:12:14Z</time>
      </trkpt>
      <trkpt lat="48.13877" lon="-3.83313">
        <ele>229.5</ele>
        <time>2020-06-08T10:12:15Z</time>
      </trkpt>
      <trkpt lat="48.13881" lon="-3.83307">
        <ele>229.3</ele>
        <time>2020-06-08T10:12:16Z</time>
      </trkpt>
      <trkpt lat="48.13884" lon="-3.83301">
        <ele>229.1</ele>
        <time>2020-06-08T10:12:17Z</time>
      </trkpt>
      <trkpt lat="48.13888" lon="-3.83295">
        <ele>228.9</ele>
        <time>2020-06-08T10:12:18Z</time>
      </trkpt>
      <trkpt lat="48.13891" lon="-3.83288">
        <ele>228.7</ele>
        <time>2020-06-08T10:12:19Z</time>
      </trkpt>
      <trkpt lat="48.13894" lon="-3.83281">
        <ele>228.5</ele>
        <time>2020-06-08T10:12:20Z</time>
      </trkpt>
      <trkpt lat="48.13898" lon="-3.83274">
        <ele>228.3</ele>
        <time>2020-06-08T10:12:21Z</time>
      </trkpt>
      <trkpt lat="48.13901" lon="-3.83268">
        <ele>228.1</ele>
        <time>2020-06-08T10:12:22Z</time>
      </trkpt>
      <trkpt lat="48.13905" lon="-3.83262">
        <ele>227.9</ele>
        <time>2020-06-08T10:12:23Z</time>
      </trkpt>
      <trkpt lat="48.13909" lon="-3.83255">
        <ele>227.7</ele>
        <time>2020-06-08T10:12:24Z</time>
      </trkpt>
      <trkpt lat="48.13913" lon="-3.83249">
        <ele>227.5</ele>
        <time>2020-06-08T10:12:25Z</time>
      </trkpt>
      <trkpt lat="48.13916" lon="-3.83242">
        <ele>227.4</ele>
        <time>2020-06-08T10:12:26Z</time>
      </trkpt>
      <trkpt lat="48.1392" lon="-3.83236">
        <ele>227.3</ele>
        <time>2020-06-08T10:12:27Z</time>
      </trkpt>
      <trkpt lat="48.13923" lon="-3.83229">
        <ele>227.2</ele>
        <time>2020-06-08T10:12:28Z</time>
      </trkpt>
      <trkpt lat="48.13927" lon="-3.83222">
        <ele>227.2</ele>
        <time>2020-06-08T10:12:29Z</time>
      </trkpt>
      <trkpt lat="48.13932" lon="-3.83216">
        <ele>227.1</ele>
        <time>2020-06-08T10:12:30Z</time>
      </trkpt>
      <trkpt lat="48.13936" lon="-3.83209">
        <ele>226.6</ele>
        <time>2020-06-08T10:12:31Z</time>
      </trkpt>
      <trkpt lat="48.13941" lon="-3.83206">
        <ele>226.1</ele>
        <time>2020-06-08T10:12:32Z</time>
      </trkpt>
      <trkpt lat="48.13946" lon="-3.83205">
        <ele>225.5</ele>
        <time>2020-06-08T10:12:33Z</time>
      </trkpt>
      <trkpt lat="48.13953" lon="-3.83208">
        <ele>224.7</ele>
        <time>2020-06-08T10:12:34Z</time>
      </trkpt>
      <trkpt lat="48.13961" lon="-3.8321">
        <ele>223.9</ele>
        <time>2020-06-08T10:12:35Z</time>
      </trkpt>
      <trkpt lat="48.13971" lon="-3.8321">
        <ele>223</ele>
        <time>2020-06-08T10:12:36Z</time>
      </trkpt>
      <trkpt lat="48.13981" lon="-3.8321">
        <ele>222.3</ele>
        <time>2020-06-08T10:12:37Z</time>
      </trkpt>
      <trkpt lat="48.13992" lon="-3.83212">
        <ele>221.5</ele>
        <time>2020-06-08T10:12:38Z</time>
      </trkpt>
      <trkpt lat="48.14003" lon="-3.83213">
        <ele>220.7</ele>
        <time>2020-06-08T10:12:39Z</time>
      </trkpt>
      <trkpt lat="48.14014" lon="-3.83213">
        <ele>219.9</ele>
        <time>2020-06-08T10:12:40Z</time>
      </trkpt>
      <trkpt lat="48.14024" lon="-3.83213">
        <ele>219.2</ele>
        <time>2020-06-08T10:12:41Z</time>
      </trkpt>
      <trkpt lat="48.14035" lon="-3.83212">
        <ele>218.5</ele>
        <time>2020-06-08T10:12:42Z</time>
      </trkpt>
      <trkpt lat="48.14045" lon="-3.83211">
        <ele>217.7</ele>
        <time>2020-06-08T10:12:43Z</time>
      </trkpt>
      <trkpt lat="48.14056" lon="-3.8321">
        <ele>216.9</ele>
        <time>2020-06-08T10:12:44Z</time>
      </trkpt>
      <trkpt lat="48.14067" lon="-3.83211">
        <ele>216.2</ele>
        <time>2020-06-08T10:12:45Z</time>
      </trkpt>
      <trkpt lat="48.14078" lon="-3.83212">
        <ele>215.5</ele>
        <time>2020-06-08T10:12:46Z</time>
      </trkpt>
      <trkpt lat="48.14089" lon="-3.83212">
        <ele>214.9</ele>
        <time>2020-06-08T10:12:47Z</time>
      </trkpt>
      <trkpt lat="48.14101" lon="-3.83212">
        <ele>214.2</ele>
        <time>2020-06-08T10:12:48Z</time>
      </trkpt>
      <trkpt lat="48.14112" lon="-3.83212">
        <ele>213.6</ele>
        <time>2020-06-08T10:12:49Z</time>
      </trkpt>
      <trkpt lat="48.14124" lon="-3.83213">
        <ele>213.1</ele>
        <time>2020-06-08T10:12:50Z</time>
      </trkpt>
      <trkpt lat="48.14135" lon="-3.83213">
        <ele>212.5</ele>
        <time>2020-06-08T10:12:51Z</time>
      </trkpt>
      <trkpt lat="48.14147" lon="-3.83215">
        <ele>211.9</ele>
        <time>2020-06-08T10:12:52Z</time>
      </trkpt>
      <trkpt lat="48.14158" lon="-3.83216">
        <ele>211.3</ele>
        <time>2020-06-08T10:12:53Z</time>
      </trkpt>
      <trkpt lat="48.14169" lon="-3.83218">
        <ele>210.6</ele>
        <time>2020-06-08T10:12:54Z</time>
      </trkpt>
      <trkpt lat="48.14181" lon="-3.83221">
        <ele>209.8</ele>
        <time>2020-06-08T10:12:55Z</time>
      </trkpt>
      <trkpt lat="48.14192" lon="-3.83225">
        <ele>209.1</ele>
        <time>2020-06-08T10:12:56Z</time>
      </trkpt>
      <trkpt lat="48.14203" lon="-3.83228">
        <ele>208.4</ele>
        <time>2020-06-08T10:12:57Z</time>
      </trkpt>
      <trkpt lat="48.14215" lon="-3.83232">
        <ele>207.7</ele>
        <time>2020-06-08T10:12:58Z</time>
      </trkpt>
      <trkpt lat="48.14227" lon="-3.83235">
        <ele>207</ele>
        <time>2020-06-08T10:12:59Z</time>
      </trkpt>
      <trkpt lat="48.14238" lon="-3.83239">
        <ele>206.3</ele>
        <time>2020-06-08T10:13:00Z</time>
      </trkpt>
      <trkpt lat="48.1425" lon="-3.83242">
        <ele>205.6</ele>
        <time>2020-06-08T10:13:01Z</time>
      </trkpt>
      <trkpt lat="48.14262" lon="-3.83246">
        <ele>204.8</ele>
        <time>2020-06-08T10:13:02Z</time>
      </trkpt>
      <trkpt lat="48.14274" lon="-3.83249">
        <ele>204</ele>
        <time>2020-06-08T10:13:03Z</time>
      </trkpt>
      <trkpt lat="48.14286" lon="-3.83252">
        <ele>203.2</ele>
        <time>2020-06-08T10:13:04Z</time>
      </trkpt>
      <trkpt lat="48.14298" lon="-3.83253">
        <ele>202.3</ele>
        <time>2020-06-08T10:13:05Z</time>
      </trkpt>
      <trkpt lat="48.1431" lon="-3.83256">
        <ele>201.6</ele>
        <time>2020-06-08T10:13:06Z</time>
      </trkpt>
      <trkpt lat="48.14323" lon="-3.83259">
        <ele>201.1</ele>
        <time>2020-06-08T10:13:07Z</time>
      </trkpt>
      <trkpt lat="48.14335" lon="-3.83262">
        <ele>200.7</ele>
        <time>2020-06-08T10:13:08Z</time>
      </trkpt>
      <trkpt lat="48.14347" lon="-3.83265">
        <ele>200.3</ele>
        <time>2020-06-08T10:13:09Z</time>
      </trkpt>
      <trkpt lat="48.14359" lon="-3.83268">
        <ele>200</ele>
        <time>2020-06-08T10:13:10Z</time>
      </trkpt>
      <trkpt lat="48.1437" lon="-3.83271">
        <ele>199.8</ele>
        <time>2020-06-08T10:13:11Z</time>
      </trkpt>
      <trkpt lat="48.14381" lon="-3.83273">
        <ele>199.9</ele>
        <time>2020-06-08T10:13:12Z</time>
      </trkpt>
      <trkpt lat="48.14392" lon="-3.83274">
        <ele>200</ele>
        <time>2020-06-08T10:13:13Z</time>
      </trkpt>
      <trkpt lat="48.14403" lon="-3.83274">
        <ele>200.1</ele>
        <time>2020-06-08T10:13:14Z</time>
      </trkpt>
      <trkpt lat="48.14412" lon="-3.83275">
        <ele>200.3</ele>
        <time>2020-06-08T10:13:15Z</time>
      </trkpt>
      <trkpt lat="48.14422" lon="-3.83276">
        <ele>200.4</ele>
        <time>2020-06-08T10:13:16Z</time>
      </trkpt>
      <trkpt lat="48.14431" lon="-3.83277">
        <ele>200.5</ele>
        <time>2020-06-08T10:13:17Z</time>
      </trkpt>
      <trkpt lat="48.14439" lon="-3.83277">
        <ele>200.6</ele>
        <time>2020-06-08T10:13:18Z</time>
      </trkpt>
      <trkpt lat="48.14447" lon="-3.83276">
        <ele>200.6</ele>
        <time>2020-06-08T10:13:19Z</time>
      </trkpt>
      <trkpt lat="48.14455" lon="-3.83276">
        <ele>200.7</ele>
        <time>2020-06-08T10:13:20Z</time>
      </trkpt>
      <trkpt lat="48.14462" lon="-3.83276">
        <ele>200.7</ele>
        <time>2020-06-08T10:13:21Z</time>
      </trkpt>
      <trkpt lat="48.14469" lon="-3.83277">
        <ele>200.8</ele>
        <time>2020-06-08T10:13:22Z</time>
      </trkpt>
      <trkpt lat="48.14477" lon="-3.83277">
        <ele>200.8</ele>
        <time>2020-06-08T10:13:23Z</time>
      </trkpt>
      <trkpt lat="48.14484" lon="-3.83278">
        <ele>200.9</ele>
        <time>2020-06-08T10:13:24Z</time>
      </trkpt>
      <trkpt lat="48.14491" lon="-3.83278">
        <ele>201.1</ele>
        <time>2020-06-08T10:13:25Z</time>
      </trkpt>
      <trkpt lat="48.14497" lon="-3.83278">
        <ele>201.2</ele>
        <time>2020-06-08T10:13:26Z</time>
      </trkpt>
      <trkpt lat="48.14504" lon="-3.83278">
        <ele>201.6</ele>
        <time>2020-06-08T10:13:27Z</time>
      </trkpt>
      <trkpt lat="48.1451" lon="-3.83278">
        <ele>201.8</ele>
        <time>2020-06-08T10:13:28Z</time>
      </trkpt>
      <trkpt lat="48.14517" lon="-3.83278">
        <ele>201.9</ele>
        <time>2020-06-08T10:13:29Z</time>
      </trkpt>
      <trkpt lat="48.14523" lon="-3.83278">
        <ele>202</ele>
        <time>2020-06-08T10:13:30Z</time>
      </trkpt>
      <trkpt lat="48.14529" lon="-3.83276">
        <ele>202.1</ele>
        <time>2020-06-08T10:13:31Z</time>
      </trkpt>
      <trkpt lat="48.14535" lon="-3.83276">
        <ele>202.1</ele>
        <time>2020-06-08T10:13:32Z</time>
      </trkpt>
      <trkpt lat="48.1454" lon="-3.83277">
        <ele>202.2</ele>
        <time>2020-06-08T10:13:33Z</time>
      </trkpt>
      <trkpt lat="48.14546" lon="-3.83277">
        <ele>202.3</ele>
        <time>2020-06-08T10:13:34Z</time>
      </trkpt>
      <trkpt lat="48.14551" lon="-3.83279">
        <ele>202.4</ele>
        <time>2020-06-08T10:13:35Z</time>
      </trkpt>
      <trkpt lat="48.14556" lon="-3.8328">
        <ele>202.5</ele>
        <time>2020-06-08T10:13:36Z</time>
      </trkpt>
      <trkpt lat="48.14562" lon="-3.83281">
        <ele>202.7</ele>
        <time>2020-06-08T10:13:37Z</time>
      </trkpt>
      <trkpt lat="48.14567" lon="-3.83281">
        <ele>202.9</ele>
        <time>2020-06-08T10:13:38Z</time>
      </trkpt>
      <trkpt lat="48.14573" lon="-3.83282">
        <ele>203</ele>
        <time>2020-06-08T10:13:39Z</time>
      </trkpt>
      <trkpt lat="48.14578" lon="-3.83283">
        <ele>203.2</ele>
        <time>2020-06-08T10:13:40Z</time>
      </trkpt>
      <trkpt lat="48.14583" lon="-3.83283">
        <ele>203.4</ele>
        <time>2020-06-08T10:13:41Z</time>
      </trkpt>
      <trkpt lat="48.14588" lon="-3.83284">
        <ele>203.6</ele>
        <time>2020-06-08T10:13:42Z</time>
      </trkpt>
      <trkpt lat="48.14592" lon="-3.83284">
        <ele>203.7</ele>
        <time>2020-06-08T10:13:43Z</time>
      </trkpt>
      <trkpt lat="48.14597" lon="-3.83284">
        <ele>203.9</ele>
        <time>2020-06-08T10:13:44Z</time>
      </trkpt>
      <trkpt lat="48.14601" lon="-3.83284">
        <ele>204.1</ele>
        <time>2020-06-08T10:13:45Z</time>
      </trkpt>
      <trkpt lat="48.14605" lon="-3.83284">
        <ele>204.2</ele>
        <time>2020-06-08T10:13:46Z</time>
      </trkpt>
      <trkpt lat="48.14609" lon="-3.83284">
        <ele>204.4</ele>
        <time>2020-06-08T10:13:47Z</time>
      </trkpt>
      <trkpt lat="48.14613" lon="-3.83283">
        <ele>204.6</ele>
        <time>2020-06-08T10:13:48Z</time>
      </trkpt>
      <trkpt lat="48.14617" lon="-3.83284">
        <ele>204.7</ele>
        <time>2020-06-08T10:13:49Z</time>
      </trkpt>
      <trkpt lat="48.14621" lon="-3.83284">
        <ele>204.9</ele>
        <time>2020-06-08T10:13:50Z</time>
      </trkpt>
      <trkpt lat="48.14625" lon="-3.83285">
        <ele>205.1</ele>
        <time>2020-06-08T10:13:51Z</time>
      </trkpt>
      <trkpt lat="48.14629" lon="-3.83286">
        <ele>205.2</ele>
        <time>2020-06-08T10:13:52Z</time>
      </trkpt>
      <trkpt lat="48.14633" lon="-3.83284">
        <ele>205.4</ele>
        <time>2020-06-08T10:13:53Z</time>
      </trkpt>
      <trkpt lat="48.14636" lon="-3.83282">
        <ele>205.6</ele>
        <time>2020-06-08T10:13:54Z</time>
      </trkpt>
      <trkpt lat="48.1464" lon="-3.83282">
        <ele>205.8</ele>
        <time>2020-06-08T10:13:55Z</time>
      </trkpt>
      <trkpt lat="48.14644" lon="-3.83281">
        <ele>205.9</ele>
        <time>2020-06-08T10:13:56Z</time>
      </trkpt>
      <trkpt lat="48.14647" lon="-3.8328">
        <ele>206.1</ele>
        <time>2020-06-08T10:13:57Z</time>
      </trkpt>
      <trkpt lat="48.14651" lon="-3.8328">
        <ele>206.2</ele>
        <time>2020-06-08T10:13:58Z</time>
      </trkpt>
      <trkpt lat="48.14655" lon="-3.83279">
        <ele>206.4</ele>
        <time>2020-06-08T10:13:59Z</time>
      </trkpt>
      <trkpt lat="48.14658" lon="-3.83278">
        <ele>206.5</ele>
        <time>2020-06-08T10:14:00Z</time>
      </trkpt>
      <trkpt lat="48.14662" lon="-3.83277">
        <ele>206.6</ele>
        <time>2020-06-08T10:14:01Z</time>
      </trkpt>
      <trkpt lat="48.14665" lon="-3.83276">
        <ele>206.7</ele>
        <time>2020-06-08T10:14:02Z</time>
      </trkpt>
      <trkpt lat="48.14669" lon="-3.83274">
        <ele>206.8</ele>
        <time>2020-06-08T10:14:03Z</time>
      </trkpt>
      <trkpt lat="48.14674" lon="-3.83274">
        <ele>207</ele>
        <time>2020-06-08T10:14:04Z</time>
      </trkpt>
      <trkpt lat="48.14679" lon="-3.83274">
        <ele>207.1</ele>
        <time>2020-06-08T10:14:05Z</time>
      </trkpt>
      <trkpt lat="48.14683" lon="-3.83273">
        <ele>207.2</ele>
        <time>2020-06-08T10:14:06Z</time>
      </trkpt>
      <trkpt lat="48.14688" lon="-3.83271">
        <ele>207.3</ele>
        <time>2020-06-08T10:14:07Z</time>
      </trkpt>
      <trkpt lat="48.14691" lon="-3.83269">
        <ele>207.4</ele>
        <time>2020-06-08T10:14:08Z</time>
      </trkpt>
      <trkpt lat="48.14695" lon="-3.83267">
        <ele>207.5</ele>
        <time>2020-06-08T10:14:09Z</time>
      </trkpt>
      <trkpt lat="48.147" lon="-3.83266">
        <ele>207.6</ele>
        <time>2020-06-08T10:14:10Z</time>
      </trkpt>
      <trkpt lat="48.14704" lon="-3.83263">
        <ele>207.7</ele>
        <time>2020-06-08T10:14:11Z</time>
      </trkpt>
      <trkpt lat="48.14708" lon="-3.83262">
        <ele>207.8</ele>
        <time>2020-06-08T10:14:12Z</time>
      </trkpt>
      <trkpt lat="48.14712" lon="-3.83261">
        <ele>207.9</ele>
        <time>2020-06-08T10:14:13Z</time>
      </trkpt>
      <trkpt lat="48.14716" lon="-3.8326">
        <ele>208</ele>
        <time>2020-06-08T10:14:14Z</time>
      </trkpt>
      <trkpt lat="48.1472" lon="-3.83259">
        <ele>208.2</ele>
        <time>2020-06-08T10:14:15Z</time>
      </trkpt>
      <trkpt lat="48.14723" lon="-3.83258">
        <ele>208.3</ele>
        <time>2020-06-08T10:14:16Z</time>
      </trkpt>
      <trkpt lat="48.14727" lon="-3.83256">
        <ele>208.4</ele>
        <time>2020-06-08T10:14:17Z</time>
      </trkpt>
      <trkpt lat="48.14731" lon="-3.83255">
        <ele>208.5</ele>
        <time>2020-06-08T10:14:18Z</time>
      </trkpt>
      <trkpt lat="48.14736" lon="-3.83253">
        <ele>208.6</ele>
        <time>2020-06-08T10:14:19Z</time>
      </trkpt>
      <trkpt lat="48.1474" lon="-3.83252">
        <ele>208.7</ele>
        <time>2020-06-08T10:14:20Z</time>
      </trkpt>
      <trkpt lat="48.14745" lon="-3.83249">
        <ele>208.9</ele>
        <time>2020-06-08T10:14:21Z</time>
      </trkpt>
      <trkpt lat="48.14749" lon="-3.83248">
        <ele>209</ele>
        <time>2020-06-08T10:14:22Z</time>
      </trkpt>
      <trkpt lat="48.14754" lon="-3.83247">
        <ele>209.1</ele>
        <time>2020-06-08T10:14:23Z</time>
      </trkpt>
      <trkpt lat="48.14758" lon="-3.83245">
        <ele>209.1</ele>
        <time>2020-06-08T10:14:24Z</time>
      </trkpt>
      <trkpt lat="48.14762" lon="-3.83244">
        <ele>209.2</ele>
        <time>2020-06-08T10:14:25Z</time>
      </trkpt>
      <trkpt lat="48.14766" lon="-3.83243">
        <ele>209.2</ele>
        <time>2020-06-08T10:14:26Z</time>
      </trkpt>
      <trkpt lat="48.1477" lon="-3.83242">
        <ele>209.3</ele>
        <time>2020-06-08T10:14:27Z</time>
      </trkpt>
      <trkpt lat="48.14773" lon="-3.8324">
        <ele>209.3</ele>
        <time>2020-06-08T10:14:28Z</time>
      </trkpt>
      <trkpt lat="48.14778" lon="-3.83239">
        <ele>209.4</ele>
        <time>2020-06-08T10:14:29Z</time>
      </trkpt>
      <trkpt lat="48.14781" lon="-3.83238">
        <ele>209.4</ele>
        <time>2020-06-08T10:14:30Z</time>
      </trkpt>
      <trkpt lat="48.14785" lon="-3.83237">
        <ele>209.5</ele>
        <time>2020-06-08T10:14:31Z</time>
      </trkpt>
      <trkpt lat="48.14788" lon="-3.83236">
        <ele>209.5</ele>
        <time>2020-06-08T10:14:32Z</time>
      </trkpt>
      <trkpt lat="48.14793" lon="-3.83235">
        <ele>209.5</ele>
        <time>2020-06-08T10:14:33Z</time>
      </trkpt>
      <trkpt lat="48.14797" lon="-3.83234">
        <ele>209.6</ele>
        <time>2020-06-08T10:14:34Z</time>
      </trkpt>
      <trkpt lat="48.14801" lon="-3.83234">
        <ele>209.6</ele>
        <time>2020-06-08T10:14:35Z</time>
      </trkpt>
      <trkpt lat="48.14804" lon="-3.83234">
        <ele>209.6</ele>
        <time>2020-06-08T10:14:36Z</time>
      </trkpt>
      <trkpt lat="48.14808" lon="-3.83233">
        <ele>209.7</ele>
        <time>2020-06-08T10:14:37Z</time>
      </trkpt>
      <trkpt lat="48.14811" lon="-3.83233">
        <ele>209.7</ele>
        <time>2020-06-08T10:14:38Z</time>
      </trkpt>
      <trkpt lat="48.14814" lon="-3.83232">
        <ele>209.7</ele>
        <time>2020-06-08T10:14:39Z</time>
      </trkpt>
      <trkpt lat="48.14817" lon="-3.83232">
        <ele>209.8</ele>
        <time>2020-06-08T10:14:40Z</time>
      </trkpt>
      <trkpt lat="48.14821" lon="-3.83232">
        <ele>209.8</ele>
        <time>2020-06-08T10:14:41Z</time>
      </trkpt>
      <trkpt lat="48.14825" lon="-3.83231">
        <ele>209.6</ele>
        <time>2020-06-08T10:14:42Z</time>
      </trkpt>
      <trkpt lat="48.14829" lon="-3.83231">
        <ele>209.5</ele>
        <time>2020-06-08T10:14:43Z</time>
      </trkpt>
      <trkpt lat="48.14834" lon="-3.83231">
        <ele>209.4</ele>
        <time>2020-06-08T10:14:44Z</time>
      </trkpt>
      <trkpt lat="48.14838" lon="-3.83232">
        <ele>209.3</ele>
        <time>2020-06-08T10:14:45Z</time>
      </trkpt>
      <trkpt lat="48.14842" lon="-3.83232">
        <ele>209.2</ele>
        <time>2020-06-08T10:14:46Z</time>
      </trkpt>
      <trkpt lat="48.14845" lon="-3.83233">
        <ele>209</ele>
        <time>2020-06-08T10:14:47Z</time>
      </trkpt>
      <trkpt lat="48.1485" lon="-3.83234">
        <ele>208.9</ele>
        <time>2020-06-08T10:14:48Z</time>
      </trkpt>
      <trkpt lat="48.14853" lon="-3.83235">
        <ele>208.8</ele>
        <time>2020-06-08T10:14:49Z</time>
      </trkpt>
      <trkpt lat="48.14857" lon="-3.83236">
        <ele>208.6</ele>
        <time>2020-06-08T10:14:50Z</time>
      </trkpt>
      <trkpt lat="48.1486" lon="-3.83237">
        <ele>208.5</ele>
        <time>2020-06-08T10:14:51Z</time>
      </trkpt>
      <trkpt lat="48.14862" lon="-3.83237">
        <ele>208.4</ele>
        <time>2020-06-08T10:14:52Z</time>
      </trkpt>
      <trkpt lat="48.14862" lon="-3.83237">
        <ele>208.4</ele>
        <time>2020-06-08T10:14:53Z</time>
      </trkpt>
      <trkpt lat="48.14863" lon="-3.83236">
        <ele>208.4</ele>
        <time>2020-06-08T10:14:54Z</time>
      </trkpt>
      <trkpt lat="48.14864" lon="-3.83236">
        <ele>208.4</ele>
        <time>2020-06-08T10:14:55Z</time>
      </trkpt>
      <trkpt lat="48.14864" lon="-3.83236">
        <ele>208.4</ele>
        <time>2020-06-08T10:14:56Z</time>
      </trkpt>
      <trkpt lat="48.14865" lon="-3.83236">
        <ele>208.3</ele>
        <time>2020-06-08T10:14:57Z</time>
      </trkpt>
      <trkpt lat="48.14865" lon="-3.83236">
        <ele>208.3</ele>
        <time>2020-06-08T10:14:58Z</time>
      </trkpt>
      <trkpt lat="48.14866" lon="-3.83235">
        <ele>208.3</ele>
        <time>2020-06-08T10:14:59Z</time>
      </trkpt>
      <trkpt lat="48.14866" lon="-3.83235">
        <ele>208.3</ele>
        <time>2020-06-08T10:15:00Z</time>
      </trkpt>
      <trkpt lat="48.14867" lon="-3.83235">
        <ele>208.2</ele>
        <time>2020-06-08T10:15:01Z</time>
      </trkpt>
      <trkpt lat="48.14868" lon="-3.83235">
        <ele>208.2</ele>
        <time>2020-06-08T10:15:02Z</time>
      </trkpt>
      <trkpt lat="48.14868" lon="-3.83235">
        <ele>208.2</ele>
        <time>2020-06-08T10:15:03Z</time>
      </trkpt>
      <trkpt lat="48.14869" lon="-3.83234">
        <ele>208.2</ele>
        <time>2020-06-08T10:16:41Z</time>
      </trkpt>
      <trkpt lat="48.14869" lon="-3.83234">
        <ele>208.2</ele>
        <time>2020-06-08T10:16:42Z</time>
      </trkpt>
      <trkpt lat="48.14873" lon="-3.83235">
        <ele>208</ele>
        <time>2020-06-08T10:16:43Z</time>
      </trkpt>
      <trkpt lat="48.14876" lon="-3.83237">
        <ele>207.8</ele>
        <time>2020-06-08T10:16:44Z</time>
      </trkpt>
      <trkpt lat="48.1488" lon="-3.83238">
        <ele>207.7</ele>
        <time>2020-06-08T10:16:45Z</time>
      </trkpt>
      <trkpt lat="48.14883" lon="-3.8324">
        <ele>207.5</ele>
        <time>2020-06-08T10:16:46Z</time>
      </trkpt>
      <trkpt lat="48.14887" lon="-3.83241">
        <ele>207.3</ele>
        <time>2020-06-08T10:16:47Z</time>
      </trkpt>
      <trkpt lat="48.14891" lon="-3.83242">
        <ele>207.1</ele>
        <time>2020-06-08T10:16:48Z</time>
      </trkpt>
      <trkpt lat="48.14895" lon="-3.83244">
        <ele>206.8</ele>
        <time>2020-06-08T10:16:49Z</time>
      </trkpt>
      <trkpt lat="48.149" lon="-3.83246">
        <ele>206.5</ele>
        <time>2020-06-08T10:16:50Z</time>
      </trkpt>
      <trkpt lat="48.14906" lon="-3.83248">
        <ele>206.2</ele>
        <time>2020-06-08T10:16:51Z</time>
      </trkpt>
      <trkpt lat="48.14911" lon="-3.83249">
        <ele>205.9</ele>
        <time>2020-06-08T10:16:52Z</time>
      </trkpt>
      <trkpt lat="48.14917" lon="-3.83251">
        <ele>205.5</ele>
        <time>2020-06-08T10:16:53Z</time>
      </trkpt>
      <trkpt lat="48.14924" lon="-3.83253">
        <ele>205.1</ele>
        <time>2020-06-08T10:16:54Z</time>
      </trkpt>
      <trkpt lat="48.14931" lon="-3.83255">
        <ele>204.6</ele>
        <time>2020-06-08T10:16:55Z</time>
      </trkpt>
      <trkpt lat="48.14939" lon="-3.83257">
        <ele>204.2</ele>
        <time>2020-06-08T10:16:56Z</time>
      </trkpt>
      <trkpt lat="48.14947" lon="-3.83259">
        <ele>203.6</ele>
        <time>2020-06-08T10:16:57Z</time>
      </trkpt>
      <trkpt lat="48.14957" lon="-3.83263">
        <ele>202.9</ele>
        <time>2020-06-08T10:16:58Z</time>
      </trkpt>
      <trkpt lat="48.14967" lon="-3.83267">
        <ele>202.1</ele>
        <time>2020-06-08T10:16:59Z</time>
      </trkpt>
      <trkpt lat="48.14978" lon="-3.83271">
        <ele>201.2</ele>
        <time>2020-06-08T10:17:00Z</time>
      </trkpt>
      <trkpt lat="48.14989" lon="-3.83273">
        <ele>200.1</ele>
        <time>2020-06-08T10:17:01Z</time>
      </trkpt>
      <trkpt lat="48.15" lon="-3.83275">
        <ele>198.9</ele>
        <time>2020-06-08T10:17:02Z</time>
      </trkpt>
      <trkpt lat="48.15011" lon="-3.83278">
        <ele>197.6</ele>
        <time>2020-06-08T10:17:03Z</time>
      </trkpt>
      <trkpt lat="48.15023" lon="-3.83281">
        <ele>196</ele>
        <time>2020-06-08T10:17:04Z</time>
      </trkpt>
      <trkpt lat="48.15036" lon="-3.83284">
        <ele>194.3</ele>
        <time>2020-06-08T10:17:05Z</time>
      </trkpt>
      <trkpt lat="48.15049" lon="-3.83288">
        <ele>192.5</ele>
        <time>2020-06-08T10:17:06Z</time>
      </trkpt>
      <trkpt lat="48.15063" lon="-3.83291">
        <ele>190.8</ele>
        <time>2020-06-08T10:17:07Z</time>
      </trkpt>
      <trkpt lat="48.15077" lon="-3.83292">
        <ele>189.1</ele>
        <time>2020-06-08T10:17:08Z</time>
      </trkpt>
      <trkpt lat="48.15092" lon="-3.83294">
        <ele>187.4</ele>
        <time>2020-06-08T10:17:09Z</time>
      </trkpt>
      <trkpt lat="48.15107" lon="-3.83293">
        <ele>185.9</ele>
        <time>2020-06-08T10:17:10Z</time>
      </trkpt>
      <trkpt lat="48.15122" lon="-3.8329">
        <ele>184.6</ele>
        <time>2020-06-08T10:17:11Z</time>
      </trkpt>
      <trkpt lat="48.15137" lon="-3.83287">
        <ele>183.5</ele>
        <time>2020-06-08T10:17:12Z</time>
      </trkpt>
      <trkpt lat="48.15153" lon="-3.83285">
        <ele>182.7</ele>
        <time>2020-06-08T10:17:13Z</time>
      </trkpt>
      <trkpt lat="48.15166" lon="-3.83283">
        <ele>181.9</ele>
        <time>2020-06-08T10:17:14Z</time>
      </trkpt>
      <trkpt lat="48.1518" lon="-3.8328">
        <ele>181.1</ele>
        <time>2020-06-08T10:17:15Z</time>
      </trkpt>
      <trkpt lat="48.15194" lon="-3.83279">
        <ele>180.1</ele>
        <time>2020-06-08T10:17:16Z</time>
      </trkpt>
      <trkpt lat="48.15208" lon="-3.83279">
        <ele>179.2</ele>
        <time>2020-06-08T10:17:17Z</time>
      </trkpt>
      <trkpt lat="48.15222" lon="-3.83281">
        <ele>178.4</ele>
        <time>2020-06-08T10:17:18Z</time>
      </trkpt>
      <trkpt lat="48.15234" lon="-3.83289">
        <ele>177.9</ele>
        <time>2020-06-08T10:17:19Z</time>
      </trkpt>
      <trkpt lat="48.15246" lon="-3.83301">
        <ele>177.7</ele>
        <time>2020-06-08T10:17:20Z</time>
      </trkpt>
      <trkpt lat="48.15255" lon="-3.83315">
        <ele>177.5</ele>
        <time>2020-06-08T10:17:21Z</time>
      </trkpt>
      <trkpt lat="48.15261" lon="-3.83328">
        <ele>177.5</ele>
        <time>2020-06-08T10:17:22Z</time>
      </trkpt>
      <trkpt lat="48.15265" lon="-3.83343">
        <ele>177.5</ele>
        <time>2020-06-08T10:17:23Z</time>
      </trkpt>
      <trkpt lat="48.15268" lon="-3.83359">
        <ele>177.6</ele>
        <time>2020-06-08T10:17:24Z</time>
      </trkpt>
      <trkpt lat="48.15271" lon="-3.83375">
        <ele>177.7</ele>
        <time>2020-06-08T10:17:25Z</time>
      </trkpt>
      <trkpt lat="48.15272" lon="-3.83391">
        <ele>177.8</ele>
        <time>2020-06-08T10:17:26Z</time>
      </trkpt>
      <trkpt lat="48.15273" lon="-3.83407">
        <ele>177.8</ele>
        <time>2020-06-08T10:17:27Z</time>
      </trkpt>
      <trkpt lat="48.15274" lon="-3.83422">
        <ele>177.9</ele>
        <time>2020-06-08T10:17:28Z</time>
      </trkpt>
      <trkpt lat="48.15275" lon="-3.83436">
        <ele>177.9</ele>
        <time>2020-06-08T10:17:29Z</time>
      </trkpt>
      <trkpt lat="48.15275" lon="-3.83451">
        <ele>177.9</ele>
        <time>2020-06-08T10:17:30Z</time>
      </trkpt>
      <trkpt lat="48.15278" lon="-3.83462">
        <ele>177.8</ele>
        <time>2020-06-08T10:17:31Z</time>
      </trkpt>
      <trkpt lat="48.15277" lon="-3.83473">
        <ele>177.8</ele>
        <time>2020-06-08T10:17:32Z</time>
      </trkpt>
      <trkpt lat="48.15276" lon="-3.83486">
        <ele>177.6</ele>
        <time>2020-06-08T10:17:33Z</time>
      </trkpt>
      <trkpt lat="48.15275" lon="-3.83498">
        <ele>177.4</ele>
        <time>2020-06-08T10:17:34Z</time>
      </trkpt>
      <trkpt lat="48.15276" lon="-3.83512">
        <ele>177.1</ele>
        <time>2020-06-08T10:17:35Z</time>
      </trkpt>
      <trkpt lat="48.15276" lon="-3.83526">
        <ele>176.8</ele>
        <time>2020-06-08T10:17:36Z</time>
      </trkpt>
      <trkpt lat="48.15274" lon="-3.83538">
        <ele>176.4</ele>
        <time>2020-06-08T10:17:37Z</time>
      </trkpt>
      <trkpt lat="48.15272" lon="-3.83551">
        <ele>175.9</ele>
        <time>2020-06-08T10:17:38Z</time>
      </trkpt>
      <trkpt lat="48.15273" lon="-3.83566">
        <ele>175.5</ele>
        <time>2020-06-08T10:17:39Z</time>
      </trkpt>
      <trkpt lat="48.1527" lon="-3.83582">
        <ele>174.9</ele>
        <time>2020-06-08T10:17:40Z</time>
      </trkpt>
      <trkpt lat="48.15269" lon="-3.83597">
        <ele>174.3</ele>
        <time>2020-06-08T10:17:41Z</time>
      </trkpt>
      <trkpt lat="48.15269" lon="-3.83615">
        <ele>173.7</ele>
        <time>2020-06-08T10:17:42Z</time>
      </trkpt>
      <trkpt lat="48.15268" lon="-3.83632">
        <ele>173.1</ele>
        <time>2020-06-08T10:17:43Z</time>
      </trkpt>
      <trkpt lat="48.15267" lon="-3.8365">
        <ele>172.5</ele>
        <time>2020-06-08T10:17:44Z</time>
      </trkpt>
      <trkpt lat="48.15265" lon="-3.83667">
        <ele>171.9</ele>
        <time>2020-06-08T10:17:45Z</time>
      </trkpt>
      <trkpt lat="48.15264" lon="-3.83686">
        <ele>171.2</ele>
        <time>2020-06-08T10:17:46Z</time>
      </trkpt>
      <trkpt lat="48.15263" lon="-3.83704">
        <ele>170.6</ele>
        <time>2020-06-08T10:17:47Z</time>
      </trkpt>
      <trkpt lat="48.15263" lon="-3.83722">
        <ele>170.1</ele>
        <time>2020-06-08T10:17:48Z</time>
      </trkpt>
      <trkpt lat="48.15262" lon="-3.8374">
        <ele>169.7</ele>
        <time>2020-06-08T10:17:49Z</time>
      </trkpt>
      <trkpt lat="48.15264" lon="-3.83758">
        <ele>169.4</ele>
        <time>2020-06-08T10:17:50Z</time>
      </trkpt>
      <trkpt lat="48.15266" lon="-3.83776">
        <ele>169.1</ele>
        <time>2020-06-08T10:17:51Z</time>
      </trkpt>
      <trkpt lat="48.15268" lon="-3.83793">
        <ele>168.8</ele>
        <time>2020-06-08T10:17:52Z</time>
      </trkpt>
      <trkpt lat="48.15271" lon="-3.83809">
        <ele>168.5</ele>
        <time>2020-06-08T10:17:53Z</time>
      </trkpt>
      <trkpt lat="48.15273" lon="-3.83824">
        <ele>168.1</ele>
        <time>2020-06-08T10:17:54Z</time>
      </trkpt>
      <trkpt lat="48.15274" lon="-3.83838">
        <ele>167.9</ele>
        <time>2020-06-08T10:17:55Z</time>
      </trkpt>
      <trkpt lat="48.15274" lon="-3.83854">
        <ele>167.5</ele>
        <time>2020-06-08T10:17:56Z</time>
      </trkpt>
      <trkpt lat="48.15276" lon="-3.8387">
        <ele>167.1</ele>
        <time>2020-06-08T10:17:57Z</time>
      </trkpt>
      <trkpt lat="48.15277" lon="-3.83885">
        <ele>166.7</ele>
        <time>2020-06-08T10:17:58Z</time>
      </trkpt>
      <trkpt lat="48.15276" lon="-3.839">
        <ele>166.4</ele>
        <time>2020-06-08T10:17:59Z</time>
      </trkpt>
      <trkpt lat="48.15279" lon="-3.83916">
        <ele>166</ele>
        <time>2020-06-08T10:18:00Z</time>
      </trkpt>
      <trkpt lat="48.1528" lon="-3.83932">
        <ele>165.6</ele>
        <time>2020-06-08T10:18:01Z</time>
      </trkpt>
      <trkpt lat="48.1528" lon="-3.83947">
        <ele>165.1</ele>
        <time>2020-06-08T10:18:02Z</time>
      </trkpt>
      <trkpt lat="48.1528" lon="-3.83963">
        <ele>164.6</ele>
        <time>2020-06-08T10:18:03Z</time>
      </trkpt>
      <trkpt lat="48.1528" lon="-3.8398">
        <ele>164.1</ele>
        <time>2020-06-08T10:18:04Z</time>
      </trkpt>
      <trkpt lat="48.15279" lon="-3.83996">
        <ele>163.6</ele>
        <time>2020-06-08T10:18:05Z</time>
      </trkpt>
      <trkpt lat="48.15279" lon="-3.84013">
        <ele>163.2</ele>
        <time>2020-06-08T10:18:06Z</time>
      </trkpt>
      <trkpt lat="48.15279" lon="-3.8403">
        <ele>162.8</ele>
        <time>2020-06-08T10:18:07Z</time>
      </trkpt>
      <trkpt lat="48.1528" lon="-3.84047">
        <ele>162.2</ele>
        <time>2020-06-08T10:18:08Z</time>
      </trkpt>
      <trkpt lat="48.15282" lon="-3.84063">
        <ele>161.7</ele>
        <time>2020-06-08T10:18:09Z</time>
      </trkpt>
      <trkpt lat="48.15282" lon="-3.84079">
        <ele>161.2</ele>
        <time>2020-06-08T10:18:10Z</time>
      </trkpt>
      <trkpt lat="48.15282" lon="-3.84097">
        <ele>160.7</ele>
        <time>2020-06-08T10:18:11Z</time>
      </trkpt>
      <trkpt lat="48.15285" lon="-3.84114">
        <ele>160.2</ele>
        <time>2020-06-08T10:18:12Z</time>
      </trkpt>
      <trkpt lat="48.1529" lon="-3.8413">
        <ele>159.6</ele>
        <time>2020-06-08T10:18:13Z</time>
      </trkpt>
      <trkpt lat="48.15292" lon="-3.84143">
        <ele>159.2</ele>
        <time>2020-06-08T10:18:14Z</time>
      </trkpt>
      <trkpt lat="48.15293" lon="-3.84158">
        <ele>158.7</ele>
        <time>2020-06-08T10:18:15Z</time>
      </trkpt>
      <trkpt lat="48.15295" lon="-3.84175">
        <ele>158.2</ele>
        <time>2020-06-08T10:18:16Z</time>
      </trkpt>
      <trkpt lat="48.15298" lon="-3.84189">
        <ele>157.8</ele>
        <time>2020-06-08T10:18:17Z</time>
      </trkpt>
      <trkpt lat="48.15299" lon="-3.84204">
        <ele>157.4</ele>
        <time>2020-06-08T10:18:18Z</time>
      </trkpt>
      <trkpt lat="48.15301" lon="-3.84218">
        <ele>156.9</ele>
        <time>2020-06-08T10:18:19Z</time>
      </trkpt>
      <trkpt lat="48.15303" lon="-3.84234">
        <ele>156.4</ele>
        <time>2020-06-08T10:18:20Z</time>
      </trkpt>
      <trkpt lat="48.15306" lon="-3.84249">
        <ele>155.9</ele>
        <time>2020-06-08T10:18:21Z</time>
      </trkpt>
      <trkpt lat="48.15306" lon="-3.84263">
        <ele>155.4</ele>
        <time>2020-06-08T10:18:22Z</time>
      </trkpt>
      <trkpt lat="48.15306" lon="-3.84277">
        <ele>154.9</ele>
        <time>2020-06-08T10:18:23Z</time>
      </trkpt>
      <trkpt lat="48.15306" lon="-3.84293">
        <ele>154.3</ele>
        <time>2020-06-08T10:18:24Z</time>
      </trkpt>
      <trkpt lat="48.15308" lon="-3.84307">
        <ele>153.7</ele>
        <time>2020-06-08T10:18:25Z</time>
      </trkpt>
      <trkpt lat="48.15311" lon="-3.8432">
        <ele>153.2</ele>
        <time>2020-06-08T10:18:26Z</time>
      </trkpt>
      <trkpt lat="48.15316" lon="-3.84334">
        <ele>152.6</ele>
        <time>2020-06-08T10:18:27Z</time>
      </trkpt>
      <trkpt lat="48.15319" lon="-3.84349">
        <ele>152</ele>
        <time>2020-06-08T10:18:28Z</time>
      </trkpt>
      <trkpt lat="48.15323" lon="-3.84364">
        <ele>151.4</ele>
        <time>2020-06-08T10:18:29Z</time>
      </trkpt>
      <trkpt lat="48.15325" lon="-3.84378">
        <ele>150.7</ele>
        <time>2020-06-08T10:18:30Z</time>
      </trkpt>
      <trkpt lat="48.15327" lon="-3.84393">
        <ele>149.9</ele>
        <time>2020-06-08T10:18:31Z</time>
      </trkpt>
      <trkpt lat="48.1533" lon="-3.84408">
        <ele>149</ele>
        <time>2020-06-08T10:18:32Z</time>
      </trkpt>
      <trkpt lat="48.15331" lon="-3.8442">
        <ele>148.3</ele>
        <time>2020-06-08T10:18:33Z</time>
      </trkpt>
      <trkpt lat="48.15331" lon="-3.84436">
        <ele>147.2</ele>
        <time>2020-06-08T10:18:34Z</time>
      </trkpt>
      <trkpt lat="48.15331" lon="-3.84453">
        <ele>146.2</ele>
        <time>2020-06-08T10:18:35Z</time>
      </trkpt>
      <trkpt lat="48.15332" lon="-3.84471">
        <ele>145.1</ele>
        <time>2020-06-08T10:18:36Z</time>
      </trkpt>
      <trkpt lat="48.15332" lon="-3.84489">
        <ele>144</ele>
        <time>2020-06-08T10:18:37Z</time>
      </trkpt>
      <trkpt lat="48.15333" lon="-3.84507">
        <ele>142.9</ele>
        <time>2020-06-08T10:18:38Z</time>
      </trkpt>
      <trkpt lat="48.15332" lon="-3.84525">
        <ele>141.8</ele>
        <time>2020-06-08T10:18:39Z</time>
      </trkpt>
      <trkpt lat="48.15333" lon="-3.84542">
        <ele>140.8</ele>
        <time>2020-06-08T10:18:40Z</time>
      </trkpt>
      <trkpt lat="48.15334" lon="-3.84562">
        <ele>139.7</ele>
        <time>2020-06-08T10:18:41Z</time>
      </trkpt>
      <trkpt lat="48.15339" lon="-3.84581">
        <ele>138.6</ele>
        <time>2020-06-08T10:18:42Z</time>
      </trkpt>
      <trkpt lat="48.15344" lon="-3.84597">
        <ele>137.6</ele>
        <time>2020-06-08T10:18:43Z</time>
      </trkpt>
      <trkpt lat="48.15349" lon="-3.84614">
        <ele>136.6</ele>
        <time>2020-06-08T10:18:44Z</time>
      </trkpt>
      <trkpt lat="48.15352" lon="-3.8463">
        <ele>135.8</ele>
        <time>2020-06-08T10:18:45Z</time>
      </trkpt>
      <trkpt lat="48.15357" lon="-3.84648">
        <ele>134.9</ele>
        <time>2020-06-08T10:18:46Z</time>
      </trkpt>
      <trkpt lat="48.15362" lon="-3.84666">
        <ele>134</ele>
        <time>2020-06-08T10:18:47Z</time>
      </trkpt>
      <trkpt lat="48.15364" lon="-3.84684">
        <ele>133.2</ele>
        <time>2020-06-08T10:18:48Z</time>
      </trkpt>
      <trkpt lat="48.15362" lon="-3.84702">
        <ele>132.4</ele>
        <time>2020-06-08T10:18:49Z</time>
      </trkpt>
      <trkpt lat="48.15359" lon="-3.84719">
        <ele>131.6</ele>
        <time>2020-06-08T10:18:50Z</time>
      </trkpt>
      <trkpt lat="48.15357" lon="-3.84734">
        <ele>130.8</ele>
        <time>2020-06-08T10:18:51Z</time>
      </trkpt>
      <trkpt lat="48.15351" lon="-3.8475">
        <ele>130</ele>
        <time>2020-06-08T10:18:52Z</time>
      </trkpt>
      <trkpt lat="48.15349" lon="-3.84766">
        <ele>129.2</ele>
        <time>2020-06-08T10:18:53Z</time>
      </trkpt>
      <trkpt lat="48.15345" lon="-3.84782">
        <ele>128.3</ele>
        <time>2020-06-08T10:18:54Z</time>
      </trkpt>
      <trkpt lat="48.15338" lon="-3.84798">
        <ele>127.4</ele>
        <time>2020-06-08T10:18:55Z</time>
      </trkpt>
      <trkpt lat="48.15335" lon="-3.84814">
        <ele>126.4</ele>
        <time>2020-06-08T10:18:56Z</time>
      </trkpt>
      <trkpt lat="48.15333" lon="-3.84829">
        <ele>125.9</ele>
        <time>2020-06-08T10:18:57Z</time>
      </trkpt>
      <trkpt lat="48.15333" lon="-3.84846">
        <ele>125</ele>
        <time>2020-06-08T10:18:58Z</time>
      </trkpt>
      <trkpt lat="48.15337" lon="-3.8486">
        <ele>124.1</ele>
        <time>2020-06-08T10:18:59Z</time>
      </trkpt>
      <trkpt lat="48.15345" lon="-3.8487">
        <ele>123.2</ele>
        <time>2020-06-08T10:19:00Z</time>
      </trkpt>
      <trkpt lat="48.15353" lon="-3.84882">
        <ele>122.3</ele>
        <time>2020-06-08T10:19:01Z</time>
      </trkpt>
      <trkpt lat="48.15361" lon="-3.84892">
        <ele>121.5</ele>
        <time>2020-06-08T10:19:02Z</time>
      </trkpt>
      <trkpt lat="48.15371" lon="-3.84897">
        <ele>120.8</ele>
        <time>2020-06-08T10:19:03Z</time>
      </trkpt>
      <trkpt lat="48.15382" lon="-3.84899">
        <ele>120</ele>
        <time>2020-06-08T10:19:04Z</time>
      </trkpt>
      <trkpt lat="48.15393" lon="-3.84902">
        <ele>119.4</ele>
        <time>2020-06-08T10:19:05Z</time>
      </trkpt>
      <trkpt lat="48.15405" lon="-3.84909">
        <ele>118.7</ele>
        <time>2020-06-08T10:19:06Z</time>
      </trkpt>
      <trkpt lat="48.15418" lon="-3.84911">
        <ele>118.2</ele>
        <time>2020-06-08T10:19:07Z</time>
      </trkpt>
      <trkpt lat="48.1543" lon="-3.84913">
        <ele>117.6</ele>
        <time>2020-06-08T10:19:08Z</time>
      </trkpt>
      <trkpt lat="48.15441" lon="-3.84915">
        <ele>117.3</ele>
        <time>2020-06-08T10:19:09Z</time>
      </trkpt>
      <trkpt lat="48.15455" lon="-3.84913">
        <ele>116.8</ele>
        <time>2020-06-08T10:19:10Z</time>
      </trkpt>
      <trkpt lat="48.15468" lon="-3.84917">
        <ele>116.4</ele>
        <time>2020-06-08T10:19:11Z</time>
      </trkpt>
      <trkpt lat="48.1548" lon="-3.8492">
        <ele>116</ele>
        <time>2020-06-08T10:19:12Z</time>
      </trkpt>
      <trkpt lat="48.15493" lon="-3.84922">
        <ele>115.5</ele>
        <time>2020-06-08T10:19:13Z</time>
      </trkpt>
      <trkpt lat="48.15505" lon="-3.84924">
        <ele>115.1</ele>
        <time>2020-06-08T10:19:14Z</time>
      </trkpt>
      <trkpt lat="48.15517" lon="-3.84927">
        <ele>114.7</ele>
        <time>2020-06-08T10:19:15Z</time>
      </trkpt>
      <trkpt lat="48.15529" lon="-3.84927">
        <ele>114.3</ele>
        <time>2020-06-08T10:19:16Z</time>
      </trkpt>
      <trkpt lat="48.1554" lon="-3.84929">
        <ele>113.8</ele>
        <time>2020-06-08T10:19:17Z</time>
      </trkpt>
      <trkpt lat="48.1555" lon="-3.84929">
        <ele>113.4</ele>
        <time>2020-06-08T10:19:18Z</time>
      </trkpt>
      <trkpt lat="48.15561" lon="-3.84931">
        <ele>113.1</ele>
        <time>2020-06-08T10:19:19Z</time>
      </trkpt>
      <trkpt lat="48.15571" lon="-3.84934">
        <ele>112.8</ele>
        <time>2020-06-08T10:19:20Z</time>
      </trkpt>
      <trkpt lat="48.15581" lon="-3.84937">
        <ele>112.5</ele>
        <time>2020-06-08T10:19:21Z</time>
      </trkpt>
      <trkpt lat="48.15591" lon="-3.8494">
        <ele>112.3</ele>
        <time>2020-06-08T10:19:22Z</time>
      </trkpt>
      <trkpt lat="48.15601" lon="-3.84942">
        <ele>112</ele>
        <time>2020-06-08T10:19:23Z</time>
      </trkpt>
      <trkpt lat="48.15611" lon="-3.84943">
        <ele>111.7</ele>
        <time>2020-06-08T10:19:24Z</time>
      </trkpt>
      <trkpt lat="48.15621" lon="-3.84945">
        <ele>111.5</ele>
        <time>2020-06-08T10:19:25Z</time>
      </trkpt>
      <trkpt lat="48.15629" lon="-3.84947">
        <ele>111.3</ele>
        <time>2020-06-08T10:19:26Z</time>
      </trkpt>
      <trkpt lat="48.15638" lon="-3.8495">
        <ele>111.1</ele>
        <time>2020-06-08T10:19:27Z</time>
      </trkpt>
      <trkpt lat="48.15646" lon="-3.84953">
        <ele>111</ele>
        <time>2020-06-08T10:19:28Z</time>
      </trkpt>
      <trkpt lat="48.15653" lon="-3.84956">
        <ele>110.8</ele>
        <time>2020-06-08T10:19:29Z</time>
      </trkpt>
      <trkpt lat="48.15659" lon="-3.84959">
        <ele>110.7</ele>
        <time>2020-06-08T10:19:30Z</time>
      </trkpt>
      <trkpt lat="48.15666" lon="-3.84963">
        <ele>110.5</ele>
        <time>2020-06-08T10:19:31Z</time>
      </trkpt>
      <trkpt lat="48.15672" lon="-3.84966">
        <ele>110.4</ele>
        <time>2020-06-08T10:19:32Z</time>
      </trkpt>
      <trkpt lat="48.15679" lon="-3.84969">
        <ele>110.2</ele>
        <time>2020-06-08T10:19:33Z</time>
      </trkpt>
      <trkpt lat="48.15686" lon="-3.84973">
        <ele>110.1</ele>
        <time>2020-06-08T10:19:34Z</time>
      </trkpt>
      <trkpt lat="48.15692" lon="-3.84978">
        <ele>109.9</ele>
        <time>2020-06-08T10:19:35Z</time>
      </trkpt>
      <trkpt lat="48.15699" lon="-3.84984">
        <ele>109.8</ele>
        <time>2020-06-08T10:19:36Z</time>
      </trkpt>
      <trkpt lat="48.15706" lon="-3.84989">
        <ele>109.7</ele>
        <time>2020-06-08T10:19:37Z</time>
      </trkpt>
      <trkpt lat="48.15713" lon="-3.84993">
        <ele>109.7</ele>
        <time>2020-06-08T10:19:38Z</time>
      </trkpt>
      <trkpt lat="48.1572" lon="-3.84997">
        <ele>109.5</ele>
        <time>2020-06-08T10:19:39Z</time>
      </trkpt>
      <trkpt lat="48.15728" lon="-3.85">
        <ele>109.4</ele>
        <time>2020-06-08T10:19:40Z</time>
      </trkpt>
      <trkpt lat="48.15735" lon="-3.85004">
        <ele>109.2</ele>
        <time>2020-06-08T10:19:41Z</time>
      </trkpt>
      <trkpt lat="48.15741" lon="-3.8501">
        <ele>108.8</ele>
        <time>2020-06-08T10:19:42Z</time>
      </trkpt>
      <trkpt lat="48.15748" lon="-3.85016">
        <ele>108.4</ele>
        <time>2020-06-08T10:19:43Z</time>
      </trkpt>
      <trkpt lat="48.15754" lon="-3.85023">
        <ele>107.8</ele>
        <time>2020-06-08T10:19:44Z</time>
      </trkpt>
      <trkpt lat="48.15761" lon="-3.85029">
        <ele>107</ele>
        <time>2020-06-08T10:19:45Z</time>
      </trkpt>
      <trkpt lat="48.15768" lon="-3.85035">
        <ele>106</ele>
        <time>2020-06-08T10:19:46Z</time>
      </trkpt>
      <trkpt lat="48.15774" lon="-3.85041">
        <ele>105</ele>
        <time>2020-06-08T10:19:47Z</time>
      </trkpt>
      <trkpt lat="48.15781" lon="-3.85046">
        <ele>103.8</ele>
        <time>2020-06-08T10:19:48Z</time>
      </trkpt>
      <trkpt lat="48.15788" lon="-3.85051">
        <ele>102.5</ele>
        <time>2020-06-08T10:19:49Z</time>
      </trkpt>
      <trkpt lat="48.15796" lon="-3.85057">
        <ele>101.1</ele>
        <time>2020-06-08T10:19:50Z</time>
      </trkpt>
      <trkpt lat="48.15803" lon="-3.85063">
        <ele>99.6</ele>
        <time>2020-06-08T10:19:51Z</time>
      </trkpt>
      <trkpt lat="48.15811" lon="-3.85069">
        <ele>98</ele>
        <time>2020-06-08T10:19:52Z</time>
      </trkpt>
      <trkpt lat="48.15819" lon="-3.85075">
        <ele>95.9</ele>
        <time>2020-06-08T10:19:53Z</time>
      </trkpt>
      <trkpt lat="48.15826" lon="-3.85081">
        <ele>94.4</ele>
        <time>2020-06-08T10:19:54Z</time>
      </trkpt>
      <trkpt lat="48.15833" lon="-3.85088">
        <ele>92.9</ele>
        <time>2020-06-08T10:19:55Z</time>
      </trkpt>
      <trkpt lat="48.1584" lon="-3.85097">
        <ele>91.3</ele>
        <time>2020-06-08T10:19:56Z</time>
      </trkpt>
      <trkpt lat="48.15848" lon="-3.85108">
        <ele>89.4</ele>
        <time>2020-06-08T10:19:57Z</time>
      </trkpt>
      <trkpt lat="48.15855" lon="-3.85122">
        <ele>87.2</ele>
        <time>2020-06-08T10:19:58Z</time>
      </trkpt>
      <trkpt lat="48.15863" lon="-3.85137">
        <ele>84.7</ele>
        <time>2020-06-08T10:19:59Z</time>
      </trkpt>
      <trkpt lat="48.15871" lon="-3.85153">
        <ele>82.1</ele>
        <time>2020-06-08T10:20:00Z</time>
      </trkpt>
      <trkpt lat="48.15879" lon="-3.8517">
        <ele>79.7</ele>
        <time>2020-06-08T10:20:01Z</time>
      </trkpt>
      <trkpt lat="48.15888" lon="-3.85188">
        <ele>77.3</ele>
        <time>2020-06-08T10:20:02Z</time>
      </trkpt>
      <trkpt lat="48.15896" lon="-3.85205">
        <ele>75.2</ele>
        <time>2020-06-08T10:20:03Z</time>
      </trkpt>
      <trkpt lat="48.15904" lon="-3.85222">
        <ele>73.1</ele>
        <time>2020-06-08T10:20:04Z</time>
      </trkpt>
      <trkpt lat="48.15912" lon="-3.85237">
        <ele>71.1</ele>
        <time>2020-06-08T10:20:05Z</time>
      </trkpt>
      <trkpt lat="48.1592" lon="-3.8525">
        <ele>69.2</ele>
        <time>2020-06-08T10:20:06Z</time>
      </trkpt>
      <trkpt lat="48.15927" lon="-3.85263">
        <ele>67.3</ele>
        <time>2020-06-08T10:20:07Z</time>
      </trkpt>
      <trkpt lat="48.15937" lon="-3.85275">
        <ele>65.2</ele>
        <time>2020-06-08T10:20:08Z</time>
      </trkpt>
      <trkpt lat="48.15948" lon="-3.85286">
        <ele>62.9</ele>
        <time>2020-06-08T10:20:09Z</time>
      </trkpt>
      <trkpt lat="48.15959" lon="-3.85297">
        <ele>60.6</ele>
        <time>2020-06-08T10:20:10Z</time>
      </trkpt>
      <trkpt lat="48.15971" lon="-3.8531">
        <ele>57.9</ele>
        <time>2020-06-08T10:20:11Z</time>
      </trkpt>
      <trkpt lat="48.15984" lon="-3.85322">
        <ele>55.1</ele>
        <time>2020-06-08T10:20:12Z</time>
      </trkpt>
      <trkpt lat="48.15996" lon="-3.85336">
        <ele>52.2</ele>
        <time>2020-06-08T10:20:13Z</time>
      </trkpt>
      <trkpt lat="48.16009" lon="-3.85351">
        <ele>49.7</ele>
        <time>2020-06-08T10:20:14Z</time>
      </trkpt>
      <trkpt lat="48.16021" lon="-3.85367">
        <ele>48.2</ele>
        <time>2020-06-08T10:20:15Z</time>
      </trkpt>
      <trkpt lat="48.16032" lon="-3.85383">
        <ele>46.7</ele>
        <time>2020-06-08T10:20:16Z</time>
      </trkpt>
      <trkpt lat="48.16045" lon="-3.85397">
        <ele>45.4</ele>
        <time>2020-06-08T10:20:17Z</time>
      </trkpt>
      <trkpt lat="48.16058" lon="-3.85413">
        <ele>44.2</ele>
        <time>2020-06-08T10:20:18Z</time>
      </trkpt>
      <trkpt lat="48.16071" lon="-3.85427">
        <ele>43.4</ele>
        <time>2020-06-08T10:20:19Z</time>
      </trkpt>
      <trkpt lat="48.16082" lon="-3.8544">
        <ele>43.1</ele>
        <time>2020-06-08T10:20:20Z</time>
      </trkpt>
      <trkpt lat="48.16092" lon="-3.85449">
        <ele>42.9</ele>
        <time>2020-06-08T10:20:21Z</time>
      </trkpt>
      <trkpt lat="48.16101" lon="-3.85455">
        <ele>42.9</ele>
        <time>2020-06-08T10:20:22Z</time>
      </trkpt>
      <trkpt lat="48.16109" lon="-3.85464">
        <ele>42.9</ele>
        <time>2020-06-08T10:20:23Z</time>
      </trkpt>
      <trkpt lat="48.16115" lon="-3.85475">
        <ele>43</ele>
        <time>2020-06-08T10:20:24Z</time>
      </trkpt>
      <trkpt lat="48.16119" lon="-3.85485">
        <ele>43.2</ele>
        <time>2020-06-08T10:20:25Z</time>
      </trkpt>
      <trkpt lat="48.16123" lon="-3.85495">
        <ele>43.3</ele>
        <time>2020-06-08T10:20:26Z</time>
      </trkpt>
      <trkpt lat="48.16127" lon="-3.85501">
        <ele>43.5</ele>
        <time>2020-06-08T10:20:27Z</time>
      </trkpt>
      <trkpt lat="48.16128" lon="-3.85507">
        <ele>43.6</ele>
        <time>2020-06-08T10:20:28Z</time>
      </trkpt>
      <trkpt lat="48.16131" lon="-3.85507">
        <ele>43.6</ele>
        <time>2020-06-08T10:20:29Z</time>
      </trkpt>
      <trkpt lat="48.16134" lon="-3.85508">
        <ele>43.7</ele>
        <time>2020-06-08T10:20:30Z</time>
      </trkpt>
      <trkpt lat="48.16135" lon="-3.85509">
        <ele>43.8</ele>
        <time>2020-06-08T10:20:31Z</time>
      </trkpt>
      <trkpt lat="48.16136" lon="-3.85508">
        <ele>43.8</ele>
        <time>2020-06-08T10:20:32Z</time>
      </trkpt>
      <trkpt lat="48.16135" lon="-3.85508">
        <ele>43.8</ele>
        <time>2020-06-08T10:20:33Z</time>
      </trkpt>
      <trkpt lat="48.16133" lon="-3.85509">
        <ele>43.9</ele>
        <time>2020-06-08T10:20:34Z</time>
      </trkpt>
      <trkpt lat="48.16134" lon="-3.85505">
        <ele>44</ele>
        <time>2020-06-08T10:20:35Z</time>
      </trkpt>
      <trkpt lat="48.16134" lon="-3.85506">
        <ele>44</ele>
        <time>2020-06-08T10:20:36Z</time>
      </trkpt>
      <trkpt lat="48.16133" lon="-3.85507">
        <ele>44</ele>
        <time>2020-06-08T10:20:37Z</time>
      </trkpt>
      <trkpt lat="48.16133" lon="-3.85505">
        <ele>44.1</ele>
        <time>2020-06-08T10:20:38Z</time>
      </trkpt>
      <trkpt lat="48.16135" lon="-3.85505">
        <ele>44.1</ele>
        <time>2020-06-08T10:20:39Z</time>
      </trkpt>
      <trkpt lat="48.16136" lon="-3.85504">
        <ele>44.2</ele>
        <time>2020-06-08T10:20:40Z</time>
      </trkpt>
      <trkpt lat="48.16135" lon="-3.85502">
        <ele>44.2</ele>
        <time>2020-06-08T10:20:41Z</time>
      </trkpt>
      <trkpt lat="48.16134" lon="-3.85503">
        <ele>44.2</ele>
        <time>2020-06-08T10:20:42Z</time>
      </trkpt>
      <trkpt lat="48.16135" lon="-3.85499">
        <ele>44.3</ele>
        <time>2020-06-08T10:20:43Z</time>
      </trkpt>
      <trkpt lat="48.16133" lon="-3.85506">
        <ele>44.5</ele>
        <time>2020-06-08T10:20:44Z</time>
      </trkpt>
      <trkpt lat="48.16133" lon="-3.85506">
        <ele>44.5</ele>
        <time>2020-06-08T10:20:45Z</time>
      </trkpt>
      <trkpt lat="48.16133" lon="-3.85506">
        <ele>44.5</ele>
        <time>2020-06-08T10:20:46Z</time>
      </trkpt>
      <trkpt lat="48.16133" lon="-3.85506">
        <ele>44.5</ele>
        <time>2020-06-08T10:20:47Z</time>
      </trkpt>
      <trkpt lat="48.16133" lon="-3.85506">
        <ele>44.5</ele>
        <time>2020-06-08T10:20:48Z</time>
      </trkpt>
      <trkpt lat="48.16133" lon="-3.85506">
        <ele>44.5</ele>
        <time>2020-06-08T10:20:49Z</time>
      </trkpt>
      <trkpt lat="48.16136" lon="-3.85516">
        <ele>44.8</ele>
        <time>2020-06-08T10:21:54Z</time>
      </trkpt>
      <trkpt lat="48.16136" lon="-3.85518">
        <ele>44.9</ele>
        <time>2020-06-08T10:21:55Z</time>
      </trkpt>
      <trkpt lat="48.16136" lon="-3.85523">
        <ele>45.1</ele>
        <time>2020-06-08T10:21:56Z</time>
      </trkpt>
      <trkpt lat="48.16135" lon="-3.85524">
        <ele>45.1</ele>
        <time>2020-06-08T10:21:57Z</time>
      </trkpt>
      <trkpt lat="48.16138" lon="-3.85527">
        <ele>45.3</ele>
        <time>2020-06-08T10:21:58Z</time>
      </trkpt>
      <trkpt lat="48.16136" lon="-3.85525">
        <ele>45.4</ele>
        <time>2020-06-08T10:21:59Z</time>
      </trkpt>
      <trkpt lat="48.16135" lon="-3.85525">
        <ele>45.4</ele>
        <time>2020-06-08T10:22:00Z</time>
      </trkpt>
      <trkpt lat="48.16135" lon="-3.85524">
        <ele>45.5</ele>
        <time>2020-06-08T10:22:01Z</time>
      </trkpt>
      <trkpt lat="48.16134" lon="-3.85527">
        <ele>45.6</ele>
        <time>2020-06-08T10:22:02Z</time>
      </trkpt>
      <trkpt lat="48.16133" lon="-3.85529">
        <ele>45.6</ele>
        <time>2020-06-08T10:22:03Z</time>
      </trkpt>
      <trkpt lat="48.16133" lon="-3.8553">
        <ele>45.7</ele>
        <time>2020-06-08T10:22:04Z</time>
      </trkpt>
      <trkpt lat="48.16133" lon="-3.85533">
        <ele>45.8</ele>
        <time>2020-06-08T10:22:05Z</time>
      </trkpt>
      <trkpt lat="48.16136" lon="-3.85533">
        <ele>46</ele>
        <time>2020-06-08T10:22:06Z</time>
      </trkpt>
      <trkpt lat="48.16137" lon="-3.85537">
        <ele>46.1</ele>
        <time>2020-06-08T10:22:07Z</time>
      </trkpt>
      <trkpt lat="48.16138" lon="-3.8554">
        <ele>46.3</ele>
        <time>2020-06-08T10:22:08Z</time>
      </trkpt>
      <trkpt lat="48.16136" lon="-3.85541">
        <ele>46.4</ele>
        <time>2020-06-08T10:22:09Z</time>
      </trkpt>
      <trkpt lat="48.16135" lon="-3.85543">
        <ele>46.5</ele>
        <time>2020-06-08T10:22:10Z</time>
      </trkpt>
      <trkpt lat="48.16135" lon="-3.85546">
        <ele>46.6</ele>
        <time>2020-06-08T10:22:11Z</time>
      </trkpt>
      <trkpt lat="48.16135" lon="-3.8555">
        <ele>46.7</ele>
        <time>2020-06-08T10:22:12Z</time>
      </trkpt>
      <trkpt lat="48.16134" lon="-3.85555">
        <ele>46.9</ele>
        <time>2020-06-08T10:22:13Z</time>
      </trkpt>
      <trkpt lat="48.16134" lon="-3.85557">
        <ele>47</ele>
        <time>2020-06-08T10:22:14Z</time>
      </trkpt>
      <trkpt lat="48.16133" lon="-3.85561">
        <ele>47.1</ele>
        <time>2020-06-08T10:22:15Z</time>
      </trkpt>
      <trkpt lat="48.16134" lon="-3.85565">
        <ele>47.2</ele>
        <time>2020-06-08T10:22:16Z</time>
      </trkpt>
      <trkpt lat="48.16134" lon="-3.85566">
        <ele>47.3</ele>
        <time>2020-06-08T10:22:17Z</time>
      </trkpt>
      <trkpt lat="48.16133" lon="-3.85571">
        <ele>47.4</ele>
        <time>2020-06-08T10:22:18Z</time>
      </trkpt>
      <trkpt lat="48.16132" lon="-3.85572">
        <ele>47.5</ele>
        <time>2020-06-08T10:22:19Z</time>
      </trkpt>
      <trkpt lat="48.1613" lon="-3.85577">
        <ele>47.7</ele>
        <time>2020-06-08T10:22:20Z</time>
      </trkpt>
      <trkpt lat="48.1613" lon="-3.85579">
        <ele>47.7</ele>
        <time>2020-06-08T10:22:21Z</time>
      </trkpt>
      <trkpt lat="48.16129" lon="-3.85583">
        <ele>47.8</ele>
        <time>2020-06-08T10:22:22Z</time>
      </trkpt>
      <trkpt lat="48.16128" lon="-3.85584">
        <ele>47.9</ele>
        <time>2020-06-08T10:22:23Z</time>
      </trkpt>
      <trkpt lat="48.16128" lon="-3.85588">
        <ele>48</ele>
        <time>2020-06-08T10:22:24Z</time>
      </trkpt>
      <trkpt lat="48.16127" lon="-3.85589">
        <ele>48.1</ele>
        <time>2020-06-08T10:22:25Z</time>
      </trkpt>
      <trkpt lat="48.16127" lon="-3.85595">
        <ele>48.2</ele>
        <time>2020-06-08T10:22:26Z</time>
      </trkpt>
      <trkpt lat="48.16126" lon="-3.85596">
        <ele>48.3</ele>
        <time>2020-06-08T10:22:27Z</time>
      </trkpt>
      <trkpt lat="48.16125" lon="-3.85601">
        <ele>48.4</ele>
        <time>2020-06-08T10:22:28Z</time>
      </trkpt>
      <trkpt lat="48.16124" lon="-3.85603">
        <ele>48.5</ele>
        <time>2020-06-08T10:22:29Z</time>
      </trkpt>
      <trkpt lat="48.16123" lon="-3.85607">
        <ele>48.6</ele>
        <time>2020-06-08T10:22:30Z</time>
      </trkpt>
      <trkpt lat="48.16122" lon="-3.85608">
        <ele>48.6</ele>
        <time>2020-06-08T10:22:31Z</time>
      </trkpt>
      <trkpt lat="48.16122" lon="-3.85611">
        <ele>48.7</ele>
        <time>2020-06-08T10:22:32Z</time>
      </trkpt>
      <trkpt lat="48.16122" lon="-3.85613">
        <ele>48.8</ele>
        <time>2020-06-08T10:22:33Z</time>
      </trkpt>
      <trkpt lat="48.16121" lon="-3.85618">
        <ele>48.9</ele>
        <time>2020-06-08T10:22:34Z</time>
      </trkpt>
      <trkpt lat="48.1612" lon="-3.8562">
        <ele>49</ele>
        <time>2020-06-08T10:22:35Z</time>
      </trkpt>
      <trkpt lat="48.16118" lon="-3.85625">
        <ele>49.1</ele>
        <time>2020-06-08T10:22:36Z</time>
      </trkpt>
      <trkpt lat="48.16118" lon="-3.85628">
        <ele>49.1</ele>
        <time>2020-06-08T10:22:37Z</time>
      </trkpt>
      <trkpt lat="48.16117" lon="-3.85632">
        <ele>49.2</ele>
        <time>2020-06-08T10:22:38Z</time>
      </trkpt>
      <trkpt lat="48.16117" lon="-3.85638">
        <ele>49.3</ele>
        <time>2020-06-08T10:22:39Z</time>
      </trkpt>
      <trkpt lat="48.16117" lon="-3.8564">
        <ele>49.4</ele>
        <time>2020-06-08T10:22:40Z</time>
      </trkpt>
      <trkpt lat="48.16116" lon="-3.85646">
        <ele>49.5</ele>
        <time>2020-06-08T10:22:41Z</time>
      </trkpt>
      <trkpt lat="48.16116" lon="-3.85648">
        <ele>49.5</ele>
        <time>2020-06-08T10:22:42Z</time>
      </trkpt>
      <trkpt lat="48.16116" lon="-3.85653">
        <ele>49.6</ele>
        <time>2020-06-08T10:22:43Z</time>
      </trkpt>
      <trkpt lat="48.16115" lon="-3.85655">
        <ele>49.6</ele>
        <time>2020-06-08T10:22:44Z</time>
      </trkpt>
      <trkpt lat="48.16115" lon="-3.85659">
        <ele>49.7</ele>
        <time>2020-06-08T10:22:45Z</time>
      </trkpt>
      <trkpt lat="48.16114" lon="-3.85665">
        <ele>49.8</ele>
        <time>2020-06-08T10:22:46Z</time>
      </trkpt>
      <trkpt lat="48.16114" lon="-3.85666">
        <ele>49.8</ele>
        <time>2020-06-08T10:22:47Z</time>
      </trkpt>
      <trkpt lat="48.16114" lon="-3.8567">
        <ele>49.8</ele>
        <time>2020-06-08T10:22:48Z</time>
      </trkpt>
      <trkpt lat="48.16113" lon="-3.85674">
        <ele>49.9</ele>
        <time>2020-06-08T10:22:49Z</time>
      </trkpt>
      <trkpt lat="48.16113" lon="-3.85679">
        <ele>50</ele>
        <time>2020-06-08T10:22:50Z</time>
      </trkpt>
      <trkpt lat="48.16113" lon="-3.85683">
        <ele>50.1</ele>
        <time>2020-06-08T10:22:51Z</time>
      </trkpt>
      <trkpt lat="48.16113" lon="-3.85689">
        <ele>50.2</ele>
        <time>2020-06-08T10:22:52Z</time>
      </trkpt>
      <trkpt lat="48.16113" lon="-3.85692">
        <ele>50.2</ele>
        <time>2020-06-08T10:22:53Z</time>
      </trkpt>
      <trkpt lat="48.16113" lon="-3.85696">
        <ele>50.3</ele>
        <time>2020-06-08T10:22:54Z</time>
      </trkpt>
      <trkpt lat="48.16113" lon="-3.85701">
        <ele>50.4</ele>
        <time>2020-06-08T10:22:55Z</time>
      </trkpt>
      <trkpt lat="48.16113" lon="-3.85705">
        <ele>50.5</ele>
        <time>2020-06-08T10:22:56Z</time>
      </trkpt>
      <trkpt lat="48.16113" lon="-3.85711">
        <ele>50.6</ele>
        <time>2020-06-08T10:22:57Z</time>
      </trkpt>
      <trkpt lat="48.16113" lon="-3.85713">
        <ele>50.6</ele>
        <time>2020-06-08T10:22:58Z</time>
      </trkpt>
      <trkpt lat="48.16113" lon="-3.85718">
        <ele>50.7</ele>
        <time>2020-06-08T10:22:59Z</time>
      </trkpt>
      <trkpt lat="48.16114" lon="-3.85722">
        <ele>50.8</ele>
        <time>2020-06-08T10:23:00Z</time>
      </trkpt>
      <trkpt lat="48.16115" lon="-3.85727">
        <ele>50.9</ele>
        <time>2020-06-08T10:23:01Z</time>
      </trkpt>
      <trkpt lat="48.16115" lon="-3.85732">
        <ele>51</ele>
        <time>2020-06-08T10:23:02Z</time>
      </trkpt>
      <trkpt lat="48.16116" lon="-3.85736">
        <ele>51.1</ele>
        <time>2020-06-08T10:23:03Z</time>
      </trkpt>
      <trkpt lat="48.16116" lon="-3.8574">
        <ele>51.2</ele>
        <time>2020-06-08T10:23:04Z</time>
      </trkpt>
      <trkpt lat="48.16116" lon="-3.85746">
        <ele>51.3</ele>
        <time>2020-06-08T10:23:05Z</time>
      </trkpt>
      <trkpt lat="48.16116" lon="-3.85748">
        <ele>51.4</ele>
        <time>2020-06-08T10:23:06Z</time>
      </trkpt>
      <trkpt lat="48.16117" lon="-3.85754">
        <ele>51.5</ele>
        <time>2020-06-08T10:23:07Z</time>
      </trkpt>
      <trkpt lat="48.16118" lon="-3.85756">
        <ele>51.5</ele>
        <time>2020-06-08T10:23:08Z</time>
      </trkpt>
      <trkpt lat="48.16117" lon="-3.85761">
        <ele>51.6</ele>
        <time>2020-06-08T10:23:09Z</time>
      </trkpt>
      <trkpt lat="48.16117" lon="-3.85764">
        <ele>51.7</ele>
        <time>2020-06-08T10:23:10Z</time>
      </trkpt>
      <trkpt lat="48.16118" lon="-3.85769">
        <ele>51.8</ele>
        <time>2020-06-08T10:23:11Z</time>
      </trkpt>
      <trkpt lat="48.16118" lon="-3.85771">
        <ele>51.8</ele>
        <time>2020-06-08T10:23:12Z</time>
      </trkpt>
      <trkpt lat="48.16119" lon="-3.85775">
        <ele>51.9</ele>
        <time>2020-06-08T10:23:13Z</time>
      </trkpt>
      <trkpt lat="48.1612" lon="-3.8578">
        <ele>52</ele>
        <time>2020-06-08T10:23:14Z</time>
      </trkpt>
      <trkpt lat="48.16121" lon="-3.85784">
        <ele>52.1</ele>
        <time>2020-06-08T10:23:15Z</time>
      </trkpt>
      <trkpt lat="48.16122" lon="-3.85789">
        <ele>52.3</ele>
        <time>2020-06-08T10:23:16Z</time>
      </trkpt>
      <trkpt lat="48.16122" lon="-3.85795">
        <ele>52.4</ele>
        <time>2020-06-08T10:23:17Z</time>
      </trkpt>
      <trkpt lat="48.16122" lon="-3.85801">
        <ele>52.5</ele>
        <time>2020-06-08T10:23:18Z</time>
      </trkpt>
      <trkpt lat="48.16123" lon="-3.85806">
        <ele>52.7</ele>
        <time>2020-06-08T10:23:19Z</time>
      </trkpt>
      <trkpt lat="48.16124" lon="-3.8581">
        <ele>52.8</ele>
        <time>2020-06-08T10:23:20Z</time>
      </trkpt>
      <trkpt lat="48.16124" lon="-3.85815">
        <ele>52.9</ele>
        <time>2020-06-08T10:23:21Z</time>
      </trkpt>
      <trkpt lat="48.16124" lon="-3.8582">
        <ele>53</ele>
        <time>2020-06-08T10:23:22Z</time>
      </trkpt>
      <trkpt lat="48.16124" lon="-3.85825">
        <ele>53.2</ele>
        <time>2020-06-08T10:23:23Z</time>
      </trkpt>
      <trkpt lat="48.16125" lon="-3.8583">
        <ele>53.4</ele>
        <time>2020-06-08T10:23:24Z</time>
      </trkpt>
      <trkpt lat="48.16126" lon="-3.85835">
        <ele>53.5</ele>
        <time>2020-06-08T10:23:25Z</time>
      </trkpt>
      <trkpt lat="48.16126" lon="-3.85839">
        <ele>53.7</ele>
        <time>2020-06-08T10:23:26Z</time>
      </trkpt>
      <trkpt lat="48.16126" lon="-3.85843">
        <ele>53.8</ele>
        <time>2020-06-08T10:23:27Z</time>
      </trkpt>
      <trkpt lat="48.16127" lon="-3.85848">
        <ele>54</ele>
        <time>2020-06-08T10:23:28Z</time>
      </trkpt>
      <trkpt lat="48.16126" lon="-3.85852">
        <ele>54.1</ele>
        <time>2020-06-08T10:23:29Z</time>
      </trkpt>
      <trkpt lat="48.16126" lon="-3.85858">
        <ele>54.2</ele>
        <time>2020-06-08T10:23:30Z</time>
      </trkpt>
      <trkpt lat="48.16125" lon="-3.85863">
        <ele>54.4</ele>
        <time>2020-06-08T10:23:31Z</time>
      </trkpt>
      <trkpt lat="48.16124" lon="-3.85869">
        <ele>54.5</ele>
        <time>2020-06-08T10:23:32Z</time>
      </trkpt>
      <trkpt lat="48.16124" lon="-3.85873">
        <ele>54.7</ele>
        <time>2020-06-08T10:23:33Z</time>
      </trkpt>
      <trkpt lat="48.16124" lon="-3.85878">
        <ele>54.8</ele>
        <time>2020-06-08T10:23:34Z</time>
      </trkpt>
      <trkpt lat="48.16123" lon="-3.85884">
        <ele>55</ele>
        <time>2020-06-08T10:23:35Z</time>
      </trkpt>
      <trkpt lat="48.16123" lon="-3.85889">
        <ele>55.2</ele>
        <time>2020-06-08T10:23:36Z</time>
      </trkpt>
      <trkpt lat="48.16123" lon="-3.85894">
        <ele>55.3</ele>
        <time>2020-06-08T10:23:37Z</time>
      </trkpt>
      <trkpt lat="48.16124" lon="-3.859">
        <ele>55.5</ele>
        <time>2020-06-08T10:23:38Z</time>
      </trkpt>
      <trkpt lat="48.16124" lon="-3.85905">
        <ele>55.7</ele>
        <time>2020-06-08T10:23:39Z</time>
      </trkpt>
      <trkpt lat="48.16124" lon="-3.8591">
        <ele>55.9</ele>
        <time>2020-06-08T10:23:40Z</time>
      </trkpt>
      <trkpt lat="48.16124" lon="-3.85915">
        <ele>56.1</ele>
        <time>2020-06-08T10:23:41Z</time>
      </trkpt>
      <trkpt lat="48.16124" lon="-3.8592">
        <ele>56.3</ele>
        <time>2020-06-08T10:23:42Z</time>
      </trkpt>
      <trkpt lat="48.16124" lon="-3.85925">
        <ele>56.5</ele>
        <time>2020-06-08T10:23:43Z</time>
      </trkpt>
      <trkpt lat="48.16124" lon="-3.8593">
        <ele>56.6</ele>
        <time>2020-06-08T10:23:44Z</time>
      </trkpt>
      <trkpt lat="48.16126" lon="-3.85933">
        <ele>56.8</ele>
        <time>2020-06-08T10:23:45Z</time>
      </trkpt>
      <trkpt lat="48.16126" lon="-3.85938">
        <ele>56.9</ele>
        <time>2020-06-08T10:23:46Z</time>
      </trkpt>
      <trkpt lat="48.16126" lon="-3.85942">
        <ele>57.1</ele>
        <time>2020-06-08T10:23:47Z</time>
      </trkpt>
      <trkpt lat="48.16125" lon="-3.85948">
        <ele>57.3</ele>
        <time>2020-06-08T10:23:48Z</time>
      </trkpt>
      <trkpt lat="48.16125" lon="-3.8595">
        <ele>57.4</ele>
        <time>2020-06-08T10:23:49Z</time>
      </trkpt>
      <trkpt lat="48.16124" lon="-3.85956">
        <ele>57.7</ele>
        <time>2020-06-08T10:23:50Z</time>
      </trkpt>
      <trkpt lat="48.16124" lon="-3.85958">
        <ele>57.8</ele>
        <time>2020-06-08T10:23:51Z</time>
      </trkpt>
      <trkpt lat="48.16123" lon="-3.85962">
        <ele>58</ele>
        <time>2020-06-08T10:23:52Z</time>
      </trkpt>
      <trkpt lat="48.16122" lon="-3.85966">
        <ele>58.2</ele>
        <time>2020-06-08T10:23:53Z</time>
      </trkpt>
      <trkpt lat="48.16123" lon="-3.85971">
        <ele>58.4</ele>
        <time>2020-06-08T10:23:54Z</time>
      </trkpt>
      <trkpt lat="48.16122" lon="-3.85976">
        <ele>58.6</ele>
        <time>2020-06-08T10:23:55Z</time>
      </trkpt>
      <trkpt lat="48.16122" lon="-3.85978">
        <ele>58.7</ele>
        <time>2020-06-08T10:23:56Z</time>
      </trkpt>
      <trkpt lat="48.16121" lon="-3.85983">
        <ele>59</ele>
        <time>2020-06-08T10:23:57Z</time>
      </trkpt>
      <trkpt lat="48.16122" lon="-3.85988">
        <ele>59.2</ele>
        <time>2020-06-08T10:23:58Z</time>
      </trkpt>
      <trkpt lat="48.16121" lon="-3.85992">
        <ele>59.4</ele>
        <time>2020-06-08T10:23:59Z</time>
      </trkpt>
      <trkpt lat="48.16121" lon="-3.85998">
        <ele>59.7</ele>
        <time>2020-06-08T10:24:00Z</time>
      </trkpt>
      <trkpt lat="48.16121" lon="-3.86">
        <ele>59.8</ele>
        <time>2020-06-08T10:24:01Z</time>
      </trkpt>
      <trkpt lat="48.1612" lon="-3.86004">
        <ele>60</ele>
        <time>2020-06-08T10:24:02Z</time>
      </trkpt>
      <trkpt lat="48.16121" lon="-3.86009">
        <ele>60.2</ele>
        <time>2020-06-08T10:24:03Z</time>
      </trkpt>
      <trkpt lat="48.1612" lon="-3.86015">
        <ele>60.5</ele>
        <time>2020-06-08T10:24:04Z</time>
      </trkpt>
      <trkpt lat="48.1612" lon="-3.86017">
        <ele>60.5</ele>
        <time>2020-06-08T10:24:05Z</time>
      </trkpt>
      <trkpt lat="48.16119" lon="-3.86023">
        <ele>60.8</ele>
        <time>2020-06-08T10:24:06Z</time>
      </trkpt>
      <trkpt lat="48.16119" lon="-3.86026">
        <ele>60.9</ele>
        <time>2020-06-08T10:24:07Z</time>
      </trkpt>
      <trkpt lat="48.16119" lon="-3.86032">
        <ele>61.1</ele>
        <time>2020-06-08T10:24:08Z</time>
      </trkpt>
      <trkpt lat="48.16119" lon="-3.86034">
        <ele>61.2</ele>
        <time>2020-06-08T10:24:09Z</time>
      </trkpt>
      <trkpt lat="48.16119" lon="-3.86038">
        <ele>61.4</ele>
        <time>2020-06-08T10:24:10Z</time>
      </trkpt>
      <trkpt lat="48.16118" lon="-3.86043">
        <ele>61.6</ele>
        <time>2020-06-08T10:24:11Z</time>
      </trkpt>
      <trkpt lat="48.16118" lon="-3.86044">
        <ele>61.6</ele>
        <time>2020-06-08T10:24:12Z</time>
      </trkpt>
      <trkpt lat="48.16118" lon="-3.8605">
        <ele>61.8</ele>
        <time>2020-06-08T10:24:13Z</time>
      </trkpt>
      <trkpt lat="48.16118" lon="-3.86052">
        <ele>61.9</ele>
        <time>2020-06-08T10:24:14Z</time>
      </trkpt>
      <trkpt lat="48.16118" lon="-3.86057">
        <ele>62</ele>
        <time>2020-06-08T10:24:15Z</time>
      </trkpt>
      <trkpt lat="48.16117" lon="-3.86058">
        <ele>62</ele>
        <time>2020-06-08T10:24:16Z</time>
      </trkpt>
      <trkpt lat="48.16118" lon="-3.86059">
        <ele>62</ele>
        <time>2020-06-08T10:24:17Z</time>
      </trkpt>
      <trkpt lat="48.16119" lon="-3.86062">
        <ele>62.1</ele>
        <time>2020-06-08T10:24:18Z</time>
      </trkpt>
      <trkpt lat="48.16119" lon="-3.86062">
        <ele>62.1</ele>
        <time>2020-06-08T10:24:19Z</time>
      </trkpt>
      <trkpt lat="48.16119" lon="-3.86064">
        <ele>62.1</ele>
        <time>2020-06-08T10:24:20Z</time>
      </trkpt>
      <trkpt lat="48.16119" lon="-3.86064">
        <ele>62.2</ele>
        <time>2020-06-08T10:24:21Z</time>
      </trkpt>
      <trkpt lat="48.16118" lon="-3.86064">
        <ele>62.1</ele>
        <time>2020-06-08T10:24:22Z</time>
      </trkpt>
      <trkpt lat="48.16118" lon="-3.86065">
        <ele>62.1</ele>
        <time>2020-06-08T10:24:23Z</time>
      </trkpt>
      <trkpt lat="48.16118" lon="-3.86065">
        <ele>62.1</ele>
        <time>2020-06-08T10:24:24Z</time>
      </trkpt>
      <trkpt lat="48.16118" lon="-3.86066">
        <ele>62</ele>
        <time>2020-06-08T10:24:25Z</time>
      </trkpt>
      <trkpt lat="48.16118" lon="-3.86066">
        <ele>62</ele>
        <time>2020-06-08T10:24:26Z</time>
      </trkpt>
      <trkpt lat="48.16118" lon="-3.86067">
        <ele>62</ele>
        <time>2020-06-08T10:24:27Z</time>
      </trkpt>
      <trkpt lat="48.16119" lon="-3.86068">
        <ele>61.9</ele>
        <time>2020-06-08T10:24:28Z</time>
      </trkpt>
      <trkpt lat="48.1612" lon="-3.86068">
        <ele>61.8</ele>
        <time>2020-06-08T10:24:29Z</time>
      </trkpt>
      <trkpt lat="48.16121" lon="-3.86069">
        <ele>61.8</ele>
        <time>2020-06-08T10:24:30Z</time>
      </trkpt>
      <trkpt lat="48.16121" lon="-3.8607">
        <ele>61.7</ele>
        <time>2020-06-08T10:24:31Z</time>
      </trkpt>
      <trkpt lat="48.16122" lon="-3.8607">
        <ele>61.7</ele>
        <time>2020-06-08T10:24:32Z</time>
      </trkpt>
      <trkpt lat="48.16122" lon="-3.86071">
        <ele>61.6</ele>
        <time>2020-06-08T10:24:33Z</time>
      </trkpt>
      <trkpt lat="48.16123" lon="-3.86072">
        <ele>61.6</ele>
        <time>2020-06-08T10:24:34Z</time>
      </trkpt>
      <trkpt lat="48.16124" lon="-3.86073">
        <ele>61.5</ele>
        <time>2020-06-08T10:24:35Z</time>
      </trkpt>
      <trkpt lat="48.16124" lon="-3.86073">
        <ele>61.5</ele>
        <time>2020-06-08T10:24:36Z</time>
      </trkpt>
      <trkpt lat="48.16125" lon="-3.86074">
        <ele>61.4</ele>
        <time>2020-06-08T10:24:37Z</time>
      </trkpt>
      <trkpt lat="48.16125" lon="-3.86075">
        <ele>61.3</ele>
        <time>2020-06-08T10:24:38Z</time>
      </trkpt>
      <trkpt lat="48.16126" lon="-3.86075">
        <ele>61.3</ele>
        <time>2020-06-08T10:25:10Z</time>
      </trkpt>
      <trkpt lat="48.16127" lon="-3.86076">
        <ele>61.2</ele>
        <time>2020-06-08T10:25:11Z</time>
      </trkpt>
      <trkpt lat="48.1613" lon="-3.86076">
        <ele>61</ele>
        <time>2020-06-08T10:25:12Z</time>
      </trkpt>
      <trkpt lat="48.16133" lon="-3.86076">
        <ele>60.7</ele>
        <time>2020-06-08T10:25:13Z</time>
      </trkpt>
      <trkpt lat="48.16136" lon="-3.86075">
        <ele>60.5</ele>
        <time>2020-06-08T10:25:14Z</time>
      </trkpt>
      <trkpt lat="48.16139" lon="-3.86074">
        <ele>60.2</ele>
        <time>2020-06-08T10:25:15Z</time>
      </trkpt>
      <trkpt lat="48.16142" lon="-3.86075">
        <ele>60</ele>
        <time>2020-06-08T10:25:16Z</time>
      </trkpt>
      <trkpt lat="48.16146" lon="-3.86076">
        <ele>59.7</ele>
        <time>2020-06-08T10:25:17Z</time>
      </trkpt>
      <trkpt lat="48.1615" lon="-3.86076">
        <ele>59.3</ele>
        <time>2020-06-08T10:25:18Z</time>
      </trkpt>
      <trkpt lat="48.16156" lon="-3.86076">
        <ele>58.8</ele>
        <time>2020-06-08T10:25:19Z</time>
      </trkpt>
      <trkpt lat="48.16163" lon="-3.86077">
        <ele>58.2</ele>
        <time>2020-06-08T10:25:20Z</time>
      </trkpt>
      <trkpt lat="48.16171" lon="-3.86077">
        <ele>57.5</ele>
        <time>2020-06-08T10:25:21Z</time>
      </trkpt>
      <trkpt lat="48.16179" lon="-3.86078">
        <ele>56.9</ele>
        <time>2020-06-08T10:25:22Z</time>
      </trkpt>
      <trkpt lat="48.16187" lon="-3.86079">
        <ele>56.1</ele>
        <time>2020-06-08T10:25:23Z</time>
      </trkpt>
      <trkpt lat="48.16197" lon="-3.8608">
        <ele>55.2</ele>
        <time>2020-06-08T10:25:24Z</time>
      </trkpt>
      <trkpt lat="48.16207" lon="-3.86082">
        <ele>54.3</ele>
        <time>2020-06-08T10:25:25Z</time>
      </trkpt>
      <trkpt lat="48.16218" lon="-3.86084">
        <ele>53.3</ele>
        <time>2020-06-08T10:25:26Z</time>
      </trkpt>
      <trkpt lat="48.16228" lon="-3.86085">
        <ele>52.5</ele>
        <time>2020-06-08T10:25:27Z</time>
      </trkpt>
      <trkpt lat="48.16238" lon="-3.86086">
        <ele>51.5</ele>
        <time>2020-06-08T10:25:28Z</time>
      </trkpt>
      <trkpt lat="48.16249" lon="-3.86087">
        <ele>50.6</ele>
        <time>2020-06-08T10:25:29Z</time>
      </trkpt>
      <trkpt lat="48.16259" lon="-3.86089">
        <ele>49.6</ele>
        <time>2020-06-08T10:25:30Z</time>
      </trkpt>
      <trkpt lat="48.16269" lon="-3.86092">
        <ele>48.6</ele>
        <time>2020-06-08T10:25:31Z</time>
      </trkpt>
      <trkpt lat="48.16279" lon="-3.86096">
        <ele>47.5</ele>
        <time>2020-06-08T10:25:32Z</time>
      </trkpt>
      <trkpt lat="48.16289" lon="-3.861">
        <ele>46.5</ele>
        <time>2020-06-08T10:25:33Z</time>
      </trkpt>
      <trkpt lat="48.16299" lon="-3.86106">
        <ele>45.3</ele>
        <time>2020-06-08T10:25:34Z</time>
      </trkpt>
      <trkpt lat="48.1631" lon="-3.86111">
        <ele>44.2</ele>
        <time>2020-06-08T10:25:35Z</time>
      </trkpt>
      <trkpt lat="48.1632" lon="-3.86116">
        <ele>43.1</ele>
        <time>2020-06-08T10:25:36Z</time>
      </trkpt>
      <trkpt lat="48.16331" lon="-3.86122">
        <ele>42.2</ele>
        <time>2020-06-08T10:25:37Z</time>
      </trkpt>
      <trkpt lat="48.16342" lon="-3.86127">
        <ele>41.3</ele>
        <time>2020-06-08T10:25:38Z</time>
      </trkpt>
      <trkpt lat="48.16352" lon="-3.86133">
        <ele>40.5</ele>
        <time>2020-06-08T10:25:39Z</time>
      </trkpt>
      <trkpt lat="48.16363" lon="-3.86139">
        <ele>40.1</ele>
        <time>2020-06-08T10:25:40Z</time>
      </trkpt>
      <trkpt lat="48.16373" lon="-3.86145">
        <ele>39.9</ele>
        <time>2020-06-08T10:25:41Z</time>
      </trkpt>
      <trkpt lat="48.16384" lon="-3.8615">
        <ele>39.6</ele>
        <time>2020-06-08T10:25:42Z</time>
      </trkpt>
      <trkpt lat="48.16394" lon="-3.86155">
        <ele>39.4</ele>
        <time>2020-06-08T10:25:43Z</time>
      </trkpt>
      <trkpt lat="48.16404" lon="-3.86161">
        <ele>39.3</ele>
        <time>2020-06-08T10:25:44Z</time>
      </trkpt>
      <trkpt lat="48.16414" lon="-3.86166">
        <ele>39.2</ele>
        <time>2020-06-08T10:25:45Z</time>
      </trkpt>
      <trkpt lat="48.16422" lon="-3.86171">
        <ele>39.2</ele>
        <time>2020-06-08T10:25:46Z</time>
      </trkpt>
      <trkpt lat="48.16429" lon="-3.86175">
        <ele>39.2</ele>
        <time>2020-06-08T10:25:47Z</time>
      </trkpt>
      <trkpt lat="48.16436" lon="-3.86177">
        <ele>38.1</ele>
        <time>2020-06-08T10:25:48Z</time>
      </trkpt>
      <trkpt lat="48.16443" lon="-3.86176">
        <ele>37.9</ele>
        <time>2020-06-08T10:25:49Z</time>
      </trkpt>
      <trkpt lat="48.1645" lon="-3.86173">
        <ele>37.8</ele>
        <time>2020-06-08T10:25:50Z</time>
      </trkpt>
      <trkpt lat="48.16456" lon="-3.86169">
        <ele>37.6</ele>
        <time>2020-06-08T10:25:51Z</time>
      </trkpt>
      <trkpt lat="48.16462" lon="-3.86164">
        <ele>37.2</ele>
        <time>2020-06-08T10:25:52Z</time>
      </trkpt>
      <trkpt lat="48.16467" lon="-3.8616">
        <ele>37.3</ele>
        <time>2020-06-08T10:25:53Z</time>
      </trkpt>
      <trkpt lat="48.16473" lon="-3.86157">
        <ele>37.3</ele>
        <time>2020-06-08T10:25:54Z</time>
      </trkpt>
      <trkpt lat="48.16477" lon="-3.86155">
        <ele>37.4</ele>
        <time>2020-06-08T10:25:55Z</time>
      </trkpt>
      <trkpt lat="48.16482" lon="-3.86154">
        <ele>37.4</ele>
        <time>2020-06-08T10:25:56Z</time>
      </trkpt>
      <trkpt lat="48.16485" lon="-3.86152">
        <ele>37.4</ele>
        <time>2020-06-08T10:25:57Z</time>
      </trkpt>
      <trkpt lat="48.16488" lon="-3.8615">
        <ele>37.4</ele>
        <time>2020-06-08T10:25:58Z</time>
      </trkpt>
      <trkpt lat="48.16492" lon="-3.86149">
        <ele>37.4</ele>
        <time>2020-06-08T10:25:59Z</time>
      </trkpt>
      <trkpt lat="48.16495" lon="-3.86148">
        <ele>37.4</ele>
        <time>2020-06-08T10:26:00Z</time>
      </trkpt>
      <trkpt lat="48.16497" lon="-3.86146">
        <ele>37.4</ele>
        <time>2020-06-08T10:26:01Z</time>
      </trkpt>
      <trkpt lat="48.16501" lon="-3.86146">
        <ele>37.4</ele>
        <time>2020-06-08T10:26:02Z</time>
      </trkpt>
      <trkpt lat="48.16504" lon="-3.86144">
        <ele>37.4</ele>
        <time>2020-06-08T10:26:03Z</time>
      </trkpt>
      <trkpt lat="48.16508" lon="-3.86143">
        <ele>37.4</ele>
        <time>2020-06-08T10:26:04Z</time>
      </trkpt>
      <trkpt lat="48.16511" lon="-3.86142">
        <ele>37.4</ele>
        <time>2020-06-08T10:26:05Z</time>
      </trkpt>
      <trkpt lat="48.16513" lon="-3.86141">
        <ele>37.3</ele>
        <time>2020-06-08T10:26:06Z</time>
      </trkpt>
      <trkpt lat="48.16516" lon="-3.86141">
        <ele>37.1</ele>
        <time>2020-06-08T10:26:07Z</time>
      </trkpt>
      <trkpt lat="48.16519" lon="-3.86141">
        <ele>36.9</ele>
        <time>2020-06-08T10:26:08Z</time>
      </trkpt>
      <trkpt lat="48.16522" lon="-3.86141">
        <ele>36.7</ele>
        <time>2020-06-08T10:26:09Z</time>
      </trkpt>
      <trkpt lat="48.16525" lon="-3.86139">
        <ele>36.6</ele>
        <time>2020-06-08T10:26:10Z</time>
      </trkpt>
      <trkpt lat="48.16527" lon="-3.86136">
        <ele>36.4</ele>
        <time>2020-06-08T10:26:11Z</time>
      </trkpt>
      <trkpt lat="48.1653" lon="-3.86134">
        <ele>36.2</ele>
        <time>2020-06-08T10:26:12Z</time>
      </trkpt>
      <trkpt lat="48.16533" lon="-3.86132">
        <ele>36</ele>
        <time>2020-06-08T10:26:13Z</time>
      </trkpt>
      <trkpt lat="48.16536" lon="-3.86131">
        <ele>35.8</ele>
        <time>2020-06-08T10:26:14Z</time>
      </trkpt>
      <trkpt lat="48.1654" lon="-3.8613">
        <ele>35.6</ele>
        <time>2020-06-08T10:26:15Z</time>
      </trkpt>
      <trkpt lat="48.16543" lon="-3.86129">
        <ele>35.4</ele>
        <time>2020-06-08T10:26:16Z</time>
      </trkpt>
      <trkpt lat="48.16547" lon="-3.86128">
        <ele>35.3</ele>
        <time>2020-06-08T10:26:17Z</time>
      </trkpt>
      <trkpt lat="48.16551" lon="-3.86127">
        <ele>35.2</ele>
        <time>2020-06-08T10:26:18Z</time>
      </trkpt>
      <trkpt lat="48.16554" lon="-3.86126">
        <ele>35.2</ele>
        <time>2020-06-08T10:26:19Z</time>
      </trkpt>
      <trkpt lat="48.16558" lon="-3.86124">
        <ele>35.2</ele>
        <time>2020-06-08T10:26:20Z</time>
      </trkpt>
      <trkpt lat="48.16561" lon="-3.86123">
        <ele>35.1</ele>
        <time>2020-06-08T10:26:21Z</time>
      </trkpt>
      <trkpt lat="48.16565" lon="-3.86122">
        <ele>35.1</ele>
        <time>2020-06-08T10:26:22Z</time>
      </trkpt>
      <trkpt lat="48.16569" lon="-3.86122">
        <ele>35</ele>
        <time>2020-06-08T10:26:23Z</time>
      </trkpt>
      <trkpt lat="48.16573" lon="-3.8612">
        <ele>35</ele>
        <time>2020-06-08T10:26:24Z</time>
      </trkpt>
      <trkpt lat="48.16577" lon="-3.86117">
        <ele>35</ele>
        <time>2020-06-08T10:26:25Z</time>
      </trkpt>
      <trkpt lat="48.16582" lon="-3.86115">
        <ele>35</ele>
        <time>2020-06-08T10:26:26Z</time>
      </trkpt>
      <trkpt lat="48.16586" lon="-3.86113">
        <ele>35</ele>
        <time>2020-06-08T10:26:27Z</time>
      </trkpt>
      <trkpt lat="48.16591" lon="-3.86111">
        <ele>35.1</ele>
        <time>2020-06-08T10:26:28Z</time>
      </trkpt>
      <trkpt lat="48.16596" lon="-3.8611">
        <ele>35.1</ele>
        <time>2020-06-08T10:26:29Z</time>
      </trkpt>
      <trkpt lat="48.16601" lon="-3.86109">
        <ele>35.1</ele>
        <time>2020-06-08T10:26:30Z</time>
      </trkpt>
      <trkpt lat="48.16606" lon="-3.86107">
        <ele>35.1</ele>
        <time>2020-06-08T10:26:31Z</time>
      </trkpt>
      <trkpt lat="48.1661" lon="-3.86105">
        <ele>35.2</ele>
        <time>2020-06-08T10:26:32Z</time>
      </trkpt>
      <trkpt lat="48.16615" lon="-3.86104">
        <ele>35.2</ele>
        <time>2020-06-08T10:26:33Z</time>
      </trkpt>
      <trkpt lat="48.16619" lon="-3.86102">
        <ele>35.2</ele>
        <time>2020-06-08T10:26:34Z</time>
      </trkpt>
      <trkpt lat="48.16623" lon="-3.86101">
        <ele>35.2</ele>
        <time>2020-06-08T10:26:35Z</time>
      </trkpt>
      <trkpt lat="48.16627" lon="-3.86099">
        <ele>35.2</ele>
        <time>2020-06-08T10:26:36Z</time>
      </trkpt>
      <trkpt lat="48.1663" lon="-3.86098">
        <ele>35.2</ele>
        <time>2020-06-08T10:26:37Z</time>
      </trkpt>
      <trkpt lat="48.16634" lon="-3.86097">
        <ele>35.2</ele>
        <time>2020-06-08T10:26:38Z</time>
      </trkpt>
      <trkpt lat="48.16638" lon="-3.86095">
        <ele>35.3</ele>
        <time>2020-06-08T10:26:39Z</time>
      </trkpt>
      <trkpt lat="48.16642" lon="-3.86093">
        <ele>35.3</ele>
        <time>2020-06-08T10:26:40Z</time>
      </trkpt>
      <trkpt lat="48.16645" lon="-3.8609">
        <ele>35.4</ele>
        <time>2020-06-08T10:26:41Z</time>
      </trkpt>
      <trkpt lat="48.16649" lon="-3.86086">
        <ele>35.4</ele>
        <time>2020-06-08T10:26:42Z</time>
      </trkpt>
      <trkpt lat="48.16653" lon="-3.86083">
        <ele>35.5</ele>
        <time>2020-06-08T10:26:43Z</time>
      </trkpt>
      <trkpt lat="48.16656" lon="-3.8608">
        <ele>35.5</ele>
        <time>2020-06-08T10:26:44Z</time>
      </trkpt>
      <trkpt lat="48.16659" lon="-3.86077">
        <ele>35.6</ele>
        <time>2020-06-08T10:26:45Z</time>
      </trkpt>
      <trkpt lat="48.16663" lon="-3.86074">
        <ele>35.6</ele>
        <time>2020-06-08T10:26:46Z</time>
      </trkpt>
      <trkpt lat="48.16666" lon="-3.86072">
        <ele>35.7</ele>
        <time>2020-06-08T10:26:47Z</time>
      </trkpt>
      <trkpt lat="48.16669" lon="-3.8607">
        <ele>35.8</ele>
        <time>2020-06-08T10:26:48Z</time>
      </trkpt>
      <trkpt lat="48.16672" lon="-3.86068">
        <ele>35.9</ele>
        <time>2020-06-08T10:26:49Z</time>
      </trkpt>
      <trkpt lat="48.16675" lon="-3.86067">
        <ele>36</ele>
        <time>2020-06-08T10:26:50Z</time>
      </trkpt>
      <trkpt lat="48.16678" lon="-3.86066">
        <ele>36.1</ele>
        <time>2020-06-08T10:26:51Z</time>
      </trkpt>
      <trkpt lat="48.16682" lon="-3.86066">
        <ele>36.2</ele>
        <time>2020-06-08T10:26:52Z</time>
      </trkpt>
      <trkpt lat="48.16683" lon="-3.86067">
        <ele>36.4</ele>
        <time>2020-06-08T10:26:53Z</time>
      </trkpt>
      <trkpt lat="48.16687" lon="-3.86068">
        <ele>36.5</ele>
        <time>2020-06-08T10:26:54Z</time>
      </trkpt>
      <trkpt lat="48.16688" lon="-3.86068">
        <ele>36.5</ele>
        <time>2020-06-08T10:26:55Z</time>
      </trkpt>
      <trkpt lat="48.16691" lon="-3.86069">
        <ele>36.6</ele>
        <time>2020-06-08T10:26:56Z</time>
      </trkpt>
      <trkpt lat="48.16694" lon="-3.8607">
        <ele>36.7</ele>
        <time>2020-06-08T10:26:57Z</time>
      </trkpt>
      <trkpt lat="48.16697" lon="-3.86071">
        <ele>36.8</ele>
        <time>2020-06-08T10:26:58Z</time>
      </trkpt>
      <trkpt lat="48.167" lon="-3.86072">
        <ele>36.8</ele>
        <time>2020-06-08T10:26:59Z</time>
      </trkpt>
      <trkpt lat="48.16703" lon="-3.86075">
        <ele>36.9</ele>
        <time>2020-06-08T10:27:00Z</time>
      </trkpt>
      <trkpt lat="48.16705" lon="-3.86078">
        <ele>36.9</ele>
        <time>2020-06-08T10:27:01Z</time>
      </trkpt>
      <trkpt lat="48.16706" lon="-3.86083">
        <ele>37</ele>
        <time>2020-06-08T10:27:02Z</time>
      </trkpt>
      <trkpt lat="48.16706" lon="-3.86087">
        <ele>36.9</ele>
        <time>2020-06-08T10:27:03Z</time>
      </trkpt>
      <trkpt lat="48.16707" lon="-3.86092">
        <ele>36.9</ele>
        <time>2020-06-08T10:27:04Z</time>
      </trkpt>
      <trkpt lat="48.16708" lon="-3.86096">
        <ele>36.9</ele>
        <time>2020-06-08T10:27:05Z</time>
      </trkpt>
      <trkpt lat="48.16709" lon="-3.861">
        <ele>36.9</ele>
        <time>2020-06-08T10:27:06Z</time>
      </trkpt>
      <trkpt lat="48.16711" lon="-3.86105">
        <ele>36.9</ele>
        <time>2020-06-08T10:27:07Z</time>
      </trkpt>
      <trkpt lat="48.16712" lon="-3.86107">
        <ele>36.8</ele>
        <time>2020-06-08T10:27:08Z</time>
      </trkpt>
      <trkpt lat="48.16714" lon="-3.8611">
        <ele>36.8</ele>
        <time>2020-06-08T10:27:09Z</time>
      </trkpt>
      <trkpt lat="48.16717" lon="-3.86114">
        <ele>36.8</ele>
        <time>2020-06-08T10:27:10Z</time>
      </trkpt>
      <trkpt lat="48.1672" lon="-3.86117">
        <ele>36.8</ele>
        <time>2020-06-08T10:27:11Z</time>
      </trkpt>
      <trkpt lat="48.16723" lon="-3.8612">
        <ele>36.8</ele>
        <time>2020-06-08T10:27:12Z</time>
      </trkpt>
      <trkpt lat="48.16726" lon="-3.86123">
        <ele>36.9</ele>
        <time>2020-06-08T10:27:13Z</time>
      </trkpt>
      <trkpt lat="48.1673" lon="-3.86125">
        <ele>36.9</ele>
        <time>2020-06-08T10:27:14Z</time>
      </trkpt>
      <trkpt lat="48.16733" lon="-3.86127">
        <ele>37</ele>
        <time>2020-06-08T10:27:15Z</time>
      </trkpt>
      <trkpt lat="48.16737" lon="-3.86129">
        <ele>37</ele>
        <time>2020-06-08T10:27:16Z</time>
      </trkpt>
      <trkpt lat="48.1674" lon="-3.86131">
        <ele>37.1</ele>
        <time>2020-06-08T10:27:17Z</time>
      </trkpt>
      <trkpt lat="48.16744" lon="-3.86133">
        <ele>37.2</ele>
        <time>2020-06-08T10:27:18Z</time>
      </trkpt>
      <trkpt lat="48.16747" lon="-3.86136">
        <ele>37.3</ele>
        <time>2020-06-08T10:27:19Z</time>
      </trkpt>
      <trkpt lat="48.1675" lon="-3.86139">
        <ele>37.4</ele>
        <time>2020-06-08T10:27:20Z</time>
      </trkpt>
      <trkpt lat="48.16754" lon="-3.86142">
        <ele>37.5</ele>
        <time>2020-06-08T10:27:21Z</time>
      </trkpt>
      <trkpt lat="48.16757" lon="-3.86144">
        <ele>37.6</ele>
        <time>2020-06-08T10:27:22Z</time>
      </trkpt>
      <trkpt lat="48.16761" lon="-3.86147">
        <ele>37.7</ele>
        <time>2020-06-08T10:27:23Z</time>
      </trkpt>
      <trkpt lat="48.16763" lon="-3.86151">
        <ele>37.7</ele>
        <time>2020-06-08T10:27:24Z</time>
      </trkpt>
      <trkpt lat="48.16766" lon="-3.86155">
        <ele>37.8</ele>
        <time>2020-06-08T10:27:25Z</time>
      </trkpt>
      <trkpt lat="48.16769" lon="-3.86158">
        <ele>37.9</ele>
        <time>2020-06-08T10:27:26Z</time>
      </trkpt>
      <trkpt lat="48.16772" lon="-3.86161">
        <ele>38</ele>
        <time>2020-06-08T10:27:27Z</time>
      </trkpt>
      <trkpt lat="48.16774" lon="-3.86164">
        <ele>38.1</ele>
        <time>2020-06-08T10:27:28Z</time>
      </trkpt>
      <trkpt lat="48.16776" lon="-3.86168">
        <ele>38.2</ele>
        <time>2020-06-08T10:27:29Z</time>
      </trkpt>
      <trkpt lat="48.16779" lon="-3.8617">
        <ele>38.3</ele>
        <time>2020-06-08T10:27:30Z</time>
      </trkpt>
      <trkpt lat="48.16781" lon="-3.86173">
        <ele>38.3</ele>
        <time>2020-06-08T10:27:31Z</time>
      </trkpt>
      <trkpt lat="48.16784" lon="-3.86177">
        <ele>38.5</ele>
        <time>2020-06-08T10:27:32Z</time>
      </trkpt>
      <trkpt lat="48.16785" lon="-3.86178">
        <ele>38.5</ele>
        <time>2020-06-08T10:27:33Z</time>
      </trkpt>
      <trkpt lat="48.16787" lon="-3.86182">
        <ele>38.6</ele>
        <time>2020-06-08T10:27:34Z</time>
      </trkpt>
      <trkpt lat="48.16789" lon="-3.86183">
        <ele>38.6</ele>
        <time>2020-06-08T10:27:35Z</time>
      </trkpt>
      <trkpt lat="48.16791" lon="-3.86186">
        <ele>38.7</ele>
        <time>2020-06-08T10:27:36Z</time>
      </trkpt>
      <trkpt lat="48.16792" lon="-3.86189">
        <ele>38.7</ele>
        <time>2020-06-08T10:27:37Z</time>
      </trkpt>
      <trkpt lat="48.16794" lon="-3.86193">
        <ele>38.8</ele>
        <time>2020-06-08T10:27:38Z</time>
      </trkpt>
      <trkpt lat="48.16796" lon="-3.86196">
        <ele>38.8</ele>
        <time>2020-06-08T10:27:39Z</time>
      </trkpt>
      <trkpt lat="48.16798" lon="-3.86199">
        <ele>38.9</ele>
        <time>2020-06-08T10:27:40Z</time>
      </trkpt>
      <trkpt lat="48.168" lon="-3.86203">
        <ele>38.9</ele>
        <time>2020-06-08T10:27:41Z</time>
      </trkpt>
      <trkpt lat="48.16802" lon="-3.86208">
        <ele>39</ele>
        <time>2020-06-08T10:27:42Z</time>
      </trkpt>
      <trkpt lat="48.16804" lon="-3.86213">
        <ele>39.1</ele>
        <time>2020-06-08T10:27:43Z</time>
      </trkpt>
      <trkpt lat="48.16806" lon="-3.86217">
        <ele>39.1</ele>
        <time>2020-06-08T10:27:44Z</time>
      </trkpt>
      <trkpt lat="48.16808" lon="-3.8622">
        <ele>39.2</ele>
        <time>2020-06-08T10:27:45Z</time>
      </trkpt>
      <trkpt lat="48.1681" lon="-3.86223">
        <ele>39.3</ele>
        <time>2020-06-08T10:27:46Z</time>
      </trkpt>
      <trkpt lat="48.16812" lon="-3.86227">
        <ele>39.3</ele>
        <time>2020-06-08T10:27:47Z</time>
      </trkpt>
      <trkpt lat="48.16814" lon="-3.86231">
        <ele>39.4</ele>
        <time>2020-06-08T10:27:48Z</time>
      </trkpt>
      <trkpt lat="48.16815" lon="-3.86235">
        <ele>39.5</ele>
        <time>2020-06-08T10:27:49Z</time>
      </trkpt>
      <trkpt lat="48.16817" lon="-3.86239">
        <ele>39.5</ele>
        <time>2020-06-08T10:27:50Z</time>
      </trkpt>
      <trkpt lat="48.16818" lon="-3.86244">
        <ele>39.6</ele>
        <time>2020-06-08T10:27:51Z</time>
      </trkpt>
      <trkpt lat="48.16819" lon="-3.86249">
        <ele>39.6</ele>
        <time>2020-06-08T10:27:52Z</time>
      </trkpt>
      <trkpt lat="48.16821" lon="-3.86254">
        <ele>39.7</ele>
        <time>2020-06-08T10:27:53Z</time>
      </trkpt>
      <trkpt lat="48.16822" lon="-3.86259">
        <ele>39.7</ele>
        <time>2020-06-08T10:27:54Z</time>
      </trkpt>
      <trkpt lat="48.16823" lon="-3.86264">
        <ele>39.8</ele>
        <time>2020-06-08T10:27:55Z</time>
      </trkpt>
      <trkpt lat="48.16824" lon="-3.86268">
        <ele>39.8</ele>
        <time>2020-06-08T10:27:56Z</time>
      </trkpt>
      <trkpt lat="48.16825" lon="-3.86273">
        <ele>39.8</ele>
        <time>2020-06-08T10:27:57Z</time>
      </trkpt>
      <trkpt lat="48.16826" lon="-3.86279">
        <ele>39.8</ele>
        <time>2020-06-08T10:27:58Z</time>
      </trkpt>
      <trkpt lat="48.16827" lon="-3.86285">
        <ele>39.9</ele>
        <time>2020-06-08T10:27:59Z</time>
      </trkpt>
      <trkpt lat="48.16827" lon="-3.8629">
        <ele>39.9</ele>
        <time>2020-06-08T10:28:00Z</time>
      </trkpt>
      <trkpt lat="48.16828" lon="-3.86294">
        <ele>39.9</ele>
        <time>2020-06-08T10:28:01Z</time>
      </trkpt>
      <trkpt lat="48.16827" lon="-3.863">
        <ele>39.9</ele>
        <time>2020-06-08T10:28:02Z</time>
      </trkpt>
      <trkpt lat="48.16828" lon="-3.86305">
        <ele>39.9</ele>
        <time>2020-06-08T10:28:03Z</time>
      </trkpt>
      <trkpt lat="48.16828" lon="-3.86311">
        <ele>39.9</ele>
        <time>2020-06-08T10:28:04Z</time>
      </trkpt>
      <trkpt lat="48.16829" lon="-3.86317">
        <ele>39.9</ele>
        <time>2020-06-08T10:28:05Z</time>
      </trkpt>
      <trkpt lat="48.16829" lon="-3.86323">
        <ele>39.9</ele>
        <time>2020-06-08T10:28:06Z</time>
      </trkpt>
      <trkpt lat="48.1683" lon="-3.86329">
        <ele>39.9</ele>
        <time>2020-06-08T10:28:07Z</time>
      </trkpt>
      <trkpt lat="48.16831" lon="-3.86335">
        <ele>39.9</ele>
        <time>2020-06-08T10:28:08Z</time>
      </trkpt>
      <trkpt lat="48.16831" lon="-3.86341">
        <ele>39.9</ele>
        <time>2020-06-08T10:28:09Z</time>
      </trkpt>
      <trkpt lat="48.16832" lon="-3.86347">
        <ele>39.9</ele>
        <time>2020-06-08T10:28:10Z</time>
      </trkpt>
      <trkpt lat="48.16834" lon="-3.86353">
        <ele>40</ele>
        <time>2020-06-08T10:28:11Z</time>
      </trkpt>
      <trkpt lat="48.16834" lon="-3.86358">
        <ele>40</ele>
        <time>2020-06-08T10:28:12Z</time>
      </trkpt>
      <trkpt lat="48.16835" lon="-3.86364">
        <ele>40.1</ele>
        <time>2020-06-08T10:28:13Z</time>
      </trkpt>
      <trkpt lat="48.16836" lon="-3.86369">
        <ele>40.1</ele>
        <time>2020-06-08T10:28:14Z</time>
      </trkpt>
      <trkpt lat="48.16836" lon="-3.86374">
        <ele>40.2</ele>
        <time>2020-06-08T10:28:15Z</time>
      </trkpt>
      <trkpt lat="48.16836" lon="-3.8638">
        <ele>40.2</ele>
        <time>2020-06-08T10:28:16Z</time>
      </trkpt>
      <trkpt lat="48.16837" lon="-3.86386">
        <ele>40.3</ele>
        <time>2020-06-08T10:28:17Z</time>
      </trkpt>
      <trkpt lat="48.16837" lon="-3.86392">
        <ele>40.4</ele>
        <time>2020-06-08T10:28:18Z</time>
      </trkpt>
      <trkpt lat="48.16839" lon="-3.86398">
        <ele>40.5</ele>
        <time>2020-06-08T10:28:19Z</time>
      </trkpt>
      <trkpt lat="48.1684" lon="-3.86404">
        <ele>40.5</ele>
        <time>2020-06-08T10:28:20Z</time>
      </trkpt>
      <trkpt lat="48.16842" lon="-3.86411">
        <ele>40.6</ele>
        <time>2020-06-08T10:28:21Z</time>
      </trkpt>
      <trkpt lat="48.16842" lon="-3.86418">
        <ele>40.7</ele>
        <time>2020-06-08T10:28:22Z</time>
      </trkpt>
      <trkpt lat="48.16843" lon="-3.86424">
        <ele>40.8</ele>
        <time>2020-06-08T10:28:23Z</time>
      </trkpt>
      <trkpt lat="48.16844" lon="-3.8643">
        <ele>40.8</ele>
        <time>2020-06-08T10:28:24Z</time>
      </trkpt>
      <trkpt lat="48.16845" lon="-3.86437">
        <ele>40.9</ele>
        <time>2020-06-08T10:28:25Z</time>
      </trkpt>
      <trkpt lat="48.16846" lon="-3.86443">
        <ele>41</ele>
        <time>2020-06-08T10:28:26Z</time>
      </trkpt>
      <trkpt lat="48.16847" lon="-3.86449">
        <ele>41.1</ele>
        <time>2020-06-08T10:28:27Z</time>
      </trkpt>
      <trkpt lat="48.16847" lon="-3.86456">
        <ele>41.2</ele>
        <time>2020-06-08T10:28:28Z</time>
      </trkpt>
      <trkpt lat="48.16848" lon="-3.86462">
        <ele>41.2</ele>
        <time>2020-06-08T10:28:29Z</time>
      </trkpt>
      <trkpt lat="48.16848" lon="-3.86469">
        <ele>41.3</ele>
        <time>2020-06-08T10:28:30Z</time>
      </trkpt>
      <trkpt lat="48.16849" lon="-3.86475">
        <ele>41.4</ele>
        <time>2020-06-08T10:28:31Z</time>
      </trkpt>
      <trkpt lat="48.1685" lon="-3.86482">
        <ele>41.5</ele>
        <time>2020-06-08T10:28:32Z</time>
      </trkpt>
      <trkpt lat="48.16851" lon="-3.86488">
        <ele>41.6</ele>
        <time>2020-06-08T10:28:33Z</time>
      </trkpt>
      <trkpt lat="48.16852" lon="-3.86494">
        <ele>41.7</ele>
        <time>2020-06-08T10:28:34Z</time>
      </trkpt>
      <trkpt lat="48.16853" lon="-3.865">
        <ele>41.8</ele>
        <time>2020-06-08T10:28:35Z</time>
      </trkpt>
      <trkpt lat="48.16853" lon="-3.86506">
        <ele>41.9</ele>
        <time>2020-06-08T10:28:36Z</time>
      </trkpt>
      <trkpt lat="48.16854" lon="-3.86513">
        <ele>42</ele>
        <time>2020-06-08T10:28:37Z</time>
      </trkpt>
      <trkpt lat="48.16855" lon="-3.86519">
        <ele>42</ele>
        <time>2020-06-08T10:28:38Z</time>
      </trkpt>
      <trkpt lat="48.16857" lon="-3.86525">
        <ele>42.1</ele>
        <time>2020-06-08T10:28:39Z</time>
      </trkpt>
      <trkpt lat="48.16859" lon="-3.86531">
        <ele>42.2</ele>
        <time>2020-06-08T10:28:40Z</time>
      </trkpt>
      <trkpt lat="48.1686" lon="-3.86537">
        <ele>42.3</ele>
        <time>2020-06-08T10:28:41Z</time>
      </trkpt>
      <trkpt lat="48.16861" lon="-3.86542">
        <ele>42.4</ele>
        <time>2020-06-08T10:28:42Z</time>
      </trkpt>
      <trkpt lat="48.16862" lon="-3.86548">
        <ele>42.5</ele>
        <time>2020-06-08T10:28:43Z</time>
      </trkpt>
      <trkpt lat="48.16862" lon="-3.86554">
        <ele>42.7</ele>
        <time>2020-06-08T10:28:44Z</time>
      </trkpt>
      <trkpt lat="48.16863" lon="-3.86559">
        <ele>42.8</ele>
        <time>2020-06-08T10:28:45Z</time>
      </trkpt>
      <trkpt lat="48.16865" lon="-3.86563">
        <ele>43</ele>
        <time>2020-06-08T10:28:46Z</time>
      </trkpt>
      <trkpt lat="48.16867" lon="-3.86567">
        <ele>43.1</ele>
        <time>2020-06-08T10:28:47Z</time>
      </trkpt>
      <trkpt lat="48.16869" lon="-3.8657">
        <ele>43.2</ele>
        <time>2020-06-08T10:28:48Z</time>
      </trkpt>
      <trkpt lat="48.1687" lon="-3.86574">
        <ele>43.4</ele>
        <time>2020-06-08T10:28:49Z</time>
      </trkpt>
      <trkpt lat="48.16872" lon="-3.86578">
        <ele>43.5</ele>
        <time>2020-06-08T10:28:50Z</time>
      </trkpt>
      <trkpt lat="48.16873" lon="-3.86581">
        <ele>43.7</ele>
        <time>2020-06-08T10:28:51Z</time>
      </trkpt>
      <trkpt lat="48.16876" lon="-3.86585">
        <ele>43.9</ele>
        <time>2020-06-08T10:28:52Z</time>
      </trkpt>
      <trkpt lat="48.16877" lon="-3.86586">
        <ele>43.9</ele>
        <time>2020-06-08T10:28:53Z</time>
      </trkpt>
      <trkpt lat="48.16879" lon="-3.86591">
        <ele>44.2</ele>
        <time>2020-06-08T10:28:54Z</time>
      </trkpt>
      <trkpt lat="48.16879" lon="-3.86593">
        <ele>44.3</ele>
        <time>2020-06-08T10:28:55Z</time>
      </trkpt>
      <trkpt lat="48.16881" lon="-3.86596">
        <ele>44.5</ele>
        <time>2020-06-08T10:28:56Z</time>
      </trkpt>
      <trkpt lat="48.16884" lon="-3.86601">
        <ele>44.8</ele>
        <time>2020-06-08T10:28:57Z</time>
      </trkpt>
      <trkpt lat="48.16884" lon="-3.86602">
        <ele>44.8</ele>
        <time>2020-06-08T10:28:58Z</time>
      </trkpt>
      <trkpt lat="48.16886" lon="-3.86607">
        <ele>45.1</ele>
        <time>2020-06-08T10:28:59Z</time>
      </trkpt>
      <trkpt lat="48.16887" lon="-3.86609">
        <ele>45.2</ele>
        <time>2020-06-08T10:29:00Z</time>
      </trkpt>
      <trkpt lat="48.16889" lon="-3.86612">
        <ele>45.4</ele>
        <time>2020-06-08T10:29:01Z</time>
      </trkpt>
      <trkpt lat="48.1689" lon="-3.86615">
        <ele>45.6</ele>
        <time>2020-06-08T10:29:02Z</time>
      </trkpt>
      <trkpt lat="48.16893" lon="-3.86617">
        <ele>45.8</ele>
        <time>2020-06-08T10:29:03Z</time>
      </trkpt>
      <trkpt lat="48.16895" lon="-3.86622">
        <ele>46.1</ele>
        <time>2020-06-08T10:29:04Z</time>
      </trkpt>
      <trkpt lat="48.16896" lon="-3.86623">
        <ele>46.2</ele>
        <time>2020-06-08T10:29:05Z</time>
      </trkpt>
      <trkpt lat="48.16897" lon="-3.86629">
        <ele>46.5</ele>
        <time>2020-06-08T10:29:06Z</time>
      </trkpt>
      <trkpt lat="48.16898" lon="-3.86632">
        <ele>46.7</ele>
        <time>2020-06-08T10:29:07Z</time>
      </trkpt>
      <trkpt lat="48.16899" lon="-3.86635">
        <ele>46.9</ele>
        <time>2020-06-08T10:29:08Z</time>
      </trkpt>
      <trkpt lat="48.16902" lon="-3.86639">
        <ele>47.2</ele>
        <time>2020-06-08T10:29:09Z</time>
      </trkpt>
      <trkpt lat="48.16902" lon="-3.8664">
        <ele>47.4</ele>
        <time>2020-06-08T10:29:10Z</time>
      </trkpt>
      <trkpt lat="48.16903" lon="-3.86644">
        <ele>47.6</ele>
        <time>2020-06-08T10:29:11Z</time>
      </trkpt>
      <trkpt lat="48.16906" lon="-3.86647">
        <ele>48</ele>
        <time>2020-06-08T10:29:12Z</time>
      </trkpt>
      <trkpt lat="48.16907" lon="-3.86648">
        <ele>48.1</ele>
        <time>2020-06-08T10:29:13Z</time>
      </trkpt>
      <trkpt lat="48.1691" lon="-3.8665">
        <ele>48.4</ele>
        <time>2020-06-08T10:29:14Z</time>
      </trkpt>
      <trkpt lat="48.16911" lon="-3.86651">
        <ele>48.5</ele>
        <time>2020-06-08T10:29:15Z</time>
      </trkpt>
      <trkpt lat="48.16913" lon="-3.86655">
        <ele>48.9</ele>
        <time>2020-06-08T10:29:16Z</time>
      </trkpt>
      <trkpt lat="48.16914" lon="-3.86656">
        <ele>49</ele>
        <time>2020-06-08T10:29:17Z</time>
      </trkpt>
      <trkpt lat="48.16917" lon="-3.86657">
        <ele>49.3</ele>
        <time>2020-06-08T10:29:18Z</time>
      </trkpt>
      <trkpt lat="48.16918" lon="-3.86658">
        <ele>49.4</ele>
        <time>2020-06-08T10:29:19Z</time>
      </trkpt>
      <trkpt lat="48.16921" lon="-3.86659">
        <ele>49.7</ele>
        <time>2020-06-08T10:29:20Z</time>
      </trkpt>
      <trkpt lat="48.16923" lon="-3.86659">
        <ele>49.8</ele>
        <time>2020-06-08T10:29:21Z</time>
      </trkpt>
      <trkpt lat="48.16925" lon="-3.8666">
        <ele>50.1</ele>
        <time>2020-06-08T10:29:22Z</time>
      </trkpt>
      <trkpt lat="48.16926" lon="-3.8666">
        <ele>50.1</ele>
        <time>2020-06-08T10:29:23Z</time>
      </trkpt>
      <trkpt lat="48.16928" lon="-3.86661">
        <ele>50.3</ele>
        <time>2020-06-08T10:29:24Z</time>
      </trkpt>
      <trkpt lat="48.16929" lon="-3.86662">
        <ele>50.4</ele>
        <time>2020-06-08T10:29:25Z</time>
      </trkpt>
      <trkpt lat="48.1693" lon="-3.86662">
        <ele>50.5</ele>
        <time>2020-06-08T10:29:26Z</time>
      </trkpt>
      <trkpt lat="48.16932" lon="-3.86663">
        <ele>50.7</ele>
        <time>2020-06-08T10:29:27Z</time>
      </trkpt>
      <trkpt lat="48.16933" lon="-3.86663">
        <ele>50.8</ele>
        <time>2020-06-08T10:29:28Z</time>
      </trkpt>
      <trkpt lat="48.16934" lon="-3.86664">
        <ele>50.9</ele>
        <time>2020-06-08T10:29:29Z</time>
      </trkpt>
      <trkpt lat="48.16935" lon="-3.86665">
        <ele>51</ele>
        <time>2020-06-08T10:29:30Z</time>
      </trkpt>
      <trkpt lat="48.16936" lon="-3.86665">
        <ele>51</ele>
        <time>2020-06-08T10:29:31Z</time>
      </trkpt>
      <trkpt lat="48.16936" lon="-3.86667">
        <ele>51.1</ele>
        <time>2020-06-08T10:29:32Z</time>
      </trkpt>
      <trkpt lat="48.16937" lon="-3.86667">
        <ele>51.2</ele>
        <time>2020-06-08T10:29:33Z</time>
      </trkpt>
      <trkpt lat="48.16939" lon="-3.86667">
        <ele>51.4</ele>
        <time>2020-06-08T10:29:34Z</time>
      </trkpt>
      <trkpt lat="48.16941" lon="-3.86666">
        <ele>51.5</ele>
        <time>2020-06-08T10:29:35Z</time>
      </trkpt>
      <trkpt lat="48.16943" lon="-3.86665">
        <ele>51.6</ele>
        <time>2020-06-08T10:29:36Z</time>
      </trkpt>
      <trkpt lat="48.16944" lon="-3.86665">
        <ele>51.8</ele>
        <time>2020-06-08T10:29:37Z</time>
      </trkpt>
      <trkpt lat="48.16947" lon="-3.86663">
        <ele>52</ele>
        <time>2020-06-08T10:29:38Z</time>
      </trkpt>
      <trkpt lat="48.16948" lon="-3.86663">
        <ele>52.1</ele>
        <time>2020-06-08T10:29:39Z</time>
      </trkpt>
      <trkpt lat="48.16951" lon="-3.86662">
        <ele>52.5</ele>
        <time>2020-06-08T10:29:40Z</time>
      </trkpt>
      <trkpt lat="48.16952" lon="-3.86662">
        <ele>52.7</ele>
        <time>2020-06-08T10:29:41Z</time>
      </trkpt>
      <trkpt lat="48.16955" lon="-3.86662">
        <ele>53.1</ele>
        <time>2020-06-08T10:29:42Z</time>
      </trkpt>
      <trkpt lat="48.16956" lon="-3.86662">
        <ele>53.2</ele>
        <time>2020-06-08T10:29:43Z</time>
      </trkpt>
      <trkpt lat="48.1696" lon="-3.86663">
        <ele>53.5</ele>
        <time>2020-06-08T10:29:44Z</time>
      </trkpt>
      <trkpt lat="48.16961" lon="-3.86663">
        <ele>53.7</ele>
        <time>2020-06-08T10:29:45Z</time>
      </trkpt>
      <trkpt lat="48.16963" lon="-3.86663">
        <ele>53.8</ele>
        <time>2020-06-08T10:29:46Z</time>
      </trkpt>
      <trkpt lat="48.16964" lon="-3.86663">
        <ele>54</ele>
        <time>2020-06-08T10:29:47Z</time>
      </trkpt>
      <trkpt lat="48.16967" lon="-3.86663">
        <ele>54.2</ele>
        <time>2020-06-08T10:29:48Z</time>
      </trkpt>
      <trkpt lat="48.16968" lon="-3.86664">
        <ele>54.3</ele>
        <time>2020-06-08T10:29:49Z</time>
      </trkpt>
      <trkpt lat="48.16972" lon="-3.86665">
        <ele>54.6</ele>
        <time>2020-06-08T10:29:50Z</time>
      </trkpt>
      <trkpt lat="48.16973" lon="-3.86664">
        <ele>54.7</ele>
        <time>2020-06-08T10:29:51Z</time>
      </trkpt>
      <trkpt lat="48.16976" lon="-3.86664">
        <ele>55</ele>
        <time>2020-06-08T10:29:52Z</time>
      </trkpt>
      <trkpt lat="48.16979" lon="-3.86664">
        <ele>55.2</ele>
        <time>2020-06-08T10:29:53Z</time>
      </trkpt>
      <trkpt lat="48.16982" lon="-3.86663">
        <ele>55.5</ele>
        <time>2020-06-08T10:29:54Z</time>
      </trkpt>
      <trkpt lat="48.16983" lon="-3.86662">
        <ele>55.6</ele>
        <time>2020-06-08T10:29:55Z</time>
      </trkpt>
      <trkpt lat="48.16986" lon="-3.86658">
        <ele>56</ele>
        <time>2020-06-08T10:29:56Z</time>
      </trkpt>
      <trkpt lat="48.16988" lon="-3.86657">
        <ele>56.2</ele>
        <time>2020-06-08T10:29:57Z</time>
      </trkpt>
      <trkpt lat="48.16991" lon="-3.86656">
        <ele>56.5</ele>
        <time>2020-06-08T10:29:58Z</time>
      </trkpt>
      <trkpt lat="48.16992" lon="-3.86656">
        <ele>56.6</ele>
        <time>2020-06-08T10:29:59Z</time>
      </trkpt>
      <trkpt lat="48.16996" lon="-3.86656">
        <ele>56.9</ele>
        <time>2020-06-08T10:30:00Z</time>
      </trkpt>
      <trkpt lat="48.16997" lon="-3.86656">
        <ele>57</ele>
        <time>2020-06-08T10:30:01Z</time>
      </trkpt>
      <trkpt lat="48.17" lon="-3.86656">
        <ele>57.3</ele>
        <time>2020-06-08T10:30:02Z</time>
      </trkpt>
      <trkpt lat="48.17" lon="-3.86656">
        <ele>57.4</ele>
        <time>2020-06-08T10:30:03Z</time>
      </trkpt>
      <trkpt lat="48.17003" lon="-3.86654">
        <ele>57.7</ele>
        <time>2020-06-08T10:30:04Z</time>
      </trkpt>
      <trkpt lat="48.17004" lon="-3.86653">
        <ele>57.8</ele>
        <time>2020-06-08T10:30:05Z</time>
      </trkpt>
      <trkpt lat="48.17007" lon="-3.86653">
        <ele>58.1</ele>
        <time>2020-06-08T10:30:06Z</time>
      </trkpt>
      <trkpt lat="48.17008" lon="-3.86653">
        <ele>58.2</ele>
        <time>2020-06-08T10:30:07Z</time>
      </trkpt>
      <trkpt lat="48.17009" lon="-3.86653">
        <ele>58.4</ele>
        <time>2020-06-08T10:30:08Z</time>
      </trkpt>
      <trkpt lat="48.17011" lon="-3.86654">
        <ele>58.6</ele>
        <time>2020-06-08T10:30:09Z</time>
      </trkpt>
      <trkpt lat="48.17011" lon="-3.86653">
        <ele>58.6</ele>
        <time>2020-06-08T10:30:10Z</time>
      </trkpt>
      <trkpt lat="48.17013" lon="-3.86653">
        <ele>58.8</ele>
        <time>2020-06-08T10:30:11Z</time>
      </trkpt>
      <trkpt lat="48.17014" lon="-3.86654">
        <ele>59</ele>
        <time>2020-06-08T10:30:12Z</time>
      </trkpt>
      <trkpt lat="48.17015" lon="-3.86656">
        <ele>59.2</ele>
        <time>2020-06-08T10:30:13Z</time>
      </trkpt>
      <trkpt lat="48.17017" lon="-3.86656">
        <ele>59.5</ele>
        <time>2020-06-08T10:30:14Z</time>
      </trkpt>
      <trkpt lat="48.17018" lon="-3.86655">
        <ele>59.6</ele>
        <time>2020-06-08T10:30:15Z</time>
      </trkpt>
      <trkpt lat="48.17018" lon="-3.86653">
        <ele>59.8</ele>
        <time>2020-06-08T10:30:16Z</time>
      </trkpt>
      <trkpt lat="48.1702" lon="-3.86653">
        <ele>59.9</ele>
        <time>2020-06-08T10:30:17Z</time>
      </trkpt>
      <trkpt lat="48.17021" lon="-3.86655">
        <ele>60.2</ele>
        <time>2020-06-08T10:30:18Z</time>
      </trkpt>
      <trkpt lat="48.17022" lon="-3.86656">
        <ele>60.3</ele>
        <time>2020-06-08T10:30:19Z</time>
      </trkpt>
      <trkpt lat="48.17023" lon="-3.86657">
        <ele>60.4</ele>
        <time>2020-06-08T10:30:20Z</time>
      </trkpt>
      <trkpt lat="48.17025" lon="-3.86655">
        <ele>60.7</ele>
        <time>2020-06-08T10:30:21Z</time>
      </trkpt>
      <trkpt lat="48.17026" lon="-3.86654">
        <ele>60.8</ele>
        <time>2020-06-08T10:30:22Z</time>
      </trkpt>
      <trkpt lat="48.17026" lon="-3.86653">
        <ele>60.9</ele>
        <time>2020-06-08T10:30:23Z</time>
      </trkpt>
      <trkpt lat="48.17028" lon="-3.86653">
        <ele>61.1</ele>
        <time>2020-06-08T10:30:24Z</time>
      </trkpt>
      <trkpt lat="48.17029" lon="-3.86654">
        <ele>61.3</ele>
        <time>2020-06-08T10:30:25Z</time>
      </trkpt>
      <trkpt lat="48.1703" lon="-3.86656">
        <ele>61.4</ele>
        <time>2020-06-08T10:30:26Z</time>
      </trkpt>
      <trkpt lat="48.17031" lon="-3.86657">
        <ele>61.6</ele>
        <time>2020-06-08T10:30:27Z</time>
      </trkpt>
      <trkpt lat="48.17034" lon="-3.86655">
        <ele>61.9</ele>
        <time>2020-06-08T10:30:28Z</time>
      </trkpt>
      <trkpt lat="48.17035" lon="-3.86654">
        <ele>62</ele>
        <time>2020-06-08T10:30:29Z</time>
      </trkpt>
      <trkpt lat="48.17036" lon="-3.86652">
        <ele>62.2</ele>
        <time>2020-06-08T10:30:30Z</time>
      </trkpt>
      <trkpt lat="48.17037" lon="-3.86651">
        <ele>62.4</ele>
        <time>2020-06-08T10:30:31Z</time>
      </trkpt>
      <trkpt lat="48.1704" lon="-3.86653">
        <ele>62.8</ele>
        <time>2020-06-08T10:30:32Z</time>
      </trkpt>
      <trkpt lat="48.17041" lon="-3.86653">
        <ele>62.9</ele>
        <time>2020-06-08T10:30:33Z</time>
      </trkpt>
      <trkpt lat="48.17044" lon="-3.86656">
        <ele>63.3</ele>
        <time>2020-06-08T10:30:34Z</time>
      </trkpt>
      <trkpt lat="48.17046" lon="-3.86657">
        <ele>63.5</ele>
        <time>2020-06-08T10:30:35Z</time>
      </trkpt>
      <trkpt lat="48.17048" lon="-3.86654">
        <ele>63.9</ele>
        <time>2020-06-08T10:30:36Z</time>
      </trkpt>
      <trkpt lat="48.17049" lon="-3.86653">
        <ele>64</ele>
        <time>2020-06-08T10:30:37Z</time>
      </trkpt>
      <trkpt lat="48.17051" lon="-3.86651">
        <ele>64.4</ele>
        <time>2020-06-08T10:30:38Z</time>
      </trkpt>
      <trkpt lat="48.17052" lon="-3.86651">
        <ele>64.5</ele>
        <time>2020-06-08T10:30:39Z</time>
      </trkpt>
      <trkpt lat="48.17054" lon="-3.86652">
        <ele>64.7</ele>
        <time>2020-06-08T10:30:40Z</time>
      </trkpt>
      <trkpt lat="48.17055" lon="-3.86654">
        <ele>65</ele>
        <time>2020-06-08T10:30:41Z</time>
      </trkpt>
      <trkpt lat="48.17058" lon="-3.86654">
        <ele>65.3</ele>
        <time>2020-06-08T10:30:42Z</time>
      </trkpt>
      <trkpt lat="48.17059" lon="-3.86653">
        <ele>65.5</ele>
        <time>2020-06-08T10:30:43Z</time>
      </trkpt>
      <trkpt lat="48.1706" lon="-3.86649">
        <ele>65.8</ele>
        <time>2020-06-08T10:30:44Z</time>
      </trkpt>
      <trkpt lat="48.17061" lon="-3.86648">
        <ele>65.9</ele>
        <time>2020-06-08T10:30:45Z</time>
      </trkpt>
      <trkpt lat="48.17062" lon="-3.86647">
        <ele>66.1</ele>
        <time>2020-06-08T10:30:46Z</time>
      </trkpt>
      <trkpt lat="48.17064" lon="-3.86649">
        <ele>66.3</ele>
        <time>2020-06-08T10:30:47Z</time>
      </trkpt>
      <trkpt lat="48.17067" lon="-3.86652">
        <ele>66.7</ele>
        <time>2020-06-08T10:30:48Z</time>
      </trkpt>
      <trkpt lat="48.17068" lon="-3.86653">
        <ele>66.8</ele>
        <time>2020-06-08T10:30:49Z</time>
      </trkpt>
      <trkpt lat="48.17069" lon="-3.86652">
        <ele>67</ele>
        <time>2020-06-08T10:30:50Z</time>
      </trkpt>
      <trkpt lat="48.1707" lon="-3.8665">
        <ele>67.2</ele>
        <time>2020-06-08T10:30:51Z</time>
      </trkpt>
      <trkpt lat="48.17071" lon="-3.86647">
        <ele>67.4</ele>
        <time>2020-06-08T10:30:52Z</time>
      </trkpt>
      <trkpt lat="48.17072" lon="-3.86646">
        <ele>67.6</ele>
        <time>2020-06-08T10:30:53Z</time>
      </trkpt>
      <trkpt lat="48.17073" lon="-3.86646">
        <ele>67.7</ele>
        <time>2020-06-08T10:30:54Z</time>
      </trkpt>
      <trkpt lat="48.17075" lon="-3.86646">
        <ele>68</ele>
        <time>2020-06-08T10:30:55Z</time>
      </trkpt>
      <trkpt lat="48.17079" lon="-3.86647">
        <ele>68.4</ele>
        <time>2020-06-08T10:30:56Z</time>
      </trkpt>
      <trkpt lat="48.1708" lon="-3.86646">
        <ele>68.5</ele>
        <time>2020-06-08T10:30:57Z</time>
      </trkpt>
      <trkpt lat="48.17083" lon="-3.86646">
        <ele>68.9</ele>
        <time>2020-06-08T10:30:58Z</time>
      </trkpt>
      <trkpt lat="48.17085" lon="-3.86647">
        <ele>69.1</ele>
        <time>2020-06-08T10:30:59Z</time>
      </trkpt>
      <trkpt lat="48.17088" lon="-3.86647">
        <ele>69.5</ele>
        <time>2020-06-08T10:31:00Z</time>
      </trkpt>
      <trkpt lat="48.17091" lon="-3.86646">
        <ele>69.8</ele>
        <time>2020-06-08T10:31:01Z</time>
      </trkpt>
      <trkpt lat="48.17094" lon="-3.86645">
        <ele>70.2</ele>
        <time>2020-06-08T10:31:02Z</time>
      </trkpt>
      <trkpt lat="48.17095" lon="-3.86645">
        <ele>70.3</ele>
        <time>2020-06-08T10:31:03Z</time>
      </trkpt>
      <trkpt lat="48.17099" lon="-3.86645">
        <ele>70.8</ele>
        <time>2020-06-08T10:31:04Z</time>
      </trkpt>
      <trkpt lat="48.171" lon="-3.86645">
        <ele>70.9</ele>
        <time>2020-06-08T10:31:05Z</time>
      </trkpt>
      <trkpt lat="48.17104" lon="-3.86644">
        <ele>71.3</ele>
        <time>2020-06-08T10:31:06Z</time>
      </trkpt>
      <trkpt lat="48.17105" lon="-3.86644">
        <ele>71.5</ele>
        <time>2020-06-08T10:31:07Z</time>
      </trkpt>
      <trkpt lat="48.17108" lon="-3.86643">
        <ele>71.9</ele>
        <time>2020-06-08T10:31:08Z</time>
      </trkpt>
      <trkpt lat="48.17109" lon="-3.86643">
        <ele>72</ele>
        <time>2020-06-08T10:31:09Z</time>
      </trkpt>
      <trkpt lat="48.17113" lon="-3.86643">
        <ele>72.3</ele>
        <time>2020-06-08T10:31:10Z</time>
      </trkpt>
      <trkpt lat="48.17114" lon="-3.86643">
        <ele>72.4</ele>
        <time>2020-06-08T10:31:11Z</time>
      </trkpt>
      <trkpt lat="48.17117" lon="-3.86642">
        <ele>72.8</ele>
        <time>2020-06-08T10:31:12Z</time>
      </trkpt>
      <trkpt lat="48.17118" lon="-3.86642">
        <ele>72.9</ele>
        <time>2020-06-08T10:31:13Z</time>
      </trkpt>
      <trkpt lat="48.17121" lon="-3.86643">
        <ele>73.2</ele>
        <time>2020-06-08T10:31:14Z</time>
      </trkpt>
      <trkpt lat="48.17122" lon="-3.86643">
        <ele>73.2</ele>
        <time>2020-06-08T10:31:15Z</time>
      </trkpt>
      <trkpt lat="48.17125" lon="-3.86643">
        <ele>73.5</ele>
        <time>2020-06-08T10:31:16Z</time>
      </trkpt>
      <trkpt lat="48.17126" lon="-3.86643">
        <ele>73.6</ele>
        <time>2020-06-08T10:31:17Z</time>
      </trkpt>
      <trkpt lat="48.17129" lon="-3.86642">
        <ele>73.8</ele>
        <time>2020-06-08T10:31:18Z</time>
      </trkpt>
      <trkpt lat="48.1713" lon="-3.86642">
        <ele>73.9</ele>
        <time>2020-06-08T10:31:19Z</time>
      </trkpt>
      <trkpt lat="48.17133" lon="-3.86641">
        <ele>74.2</ele>
        <time>2020-06-08T10:31:20Z</time>
      </trkpt>
      <trkpt lat="48.17134" lon="-3.86641">
        <ele>74.2</ele>
        <time>2020-06-08T10:31:21Z</time>
      </trkpt>
      <trkpt lat="48.17137" lon="-3.8664">
        <ele>74.5</ele>
        <time>2020-06-08T10:31:22Z</time>
      </trkpt>
      <trkpt lat="48.17138" lon="-3.8664">
        <ele>74.6</ele>
        <time>2020-06-08T10:31:23Z</time>
      </trkpt>
      <trkpt lat="48.17141" lon="-3.86641">
        <ele>74.9</ele>
        <time>2020-06-08T10:31:24Z</time>
      </trkpt>
      <trkpt lat="48.17143" lon="-3.86641">
        <ele>75</ele>
        <time>2020-06-08T10:31:25Z</time>
      </trkpt>
      <trkpt lat="48.17146" lon="-3.86641">
        <ele>75.3</ele>
        <time>2020-06-08T10:31:26Z</time>
      </trkpt>
      <trkpt lat="48.17146" lon="-3.86641">
        <ele>75.4</ele>
        <time>2020-06-08T10:31:27Z</time>
      </trkpt>
      <trkpt lat="48.17148" lon="-3.86641">
        <ele>75.5</ele>
        <time>2020-06-08T10:31:28Z</time>
      </trkpt>
      <trkpt lat="48.1715" lon="-3.86642">
        <ele>75.7</ele>
        <time>2020-06-08T10:31:29Z</time>
      </trkpt>
      <trkpt lat="48.17152" lon="-3.8664">
        <ele>76</ele>
        <time>2020-06-08T10:31:30Z</time>
      </trkpt>
      <trkpt lat="48.17153" lon="-3.86639">
        <ele>76.1</ele>
        <time>2020-06-08T10:31:31Z</time>
      </trkpt>
      <trkpt lat="48.17155" lon="-3.86637">
        <ele>76.3</ele>
        <time>2020-06-08T10:31:32Z</time>
      </trkpt>
      <trkpt lat="48.17157" lon="-3.86637">
        <ele>76.5</ele>
        <time>2020-06-08T10:31:33Z</time>
      </trkpt>
      <trkpt lat="48.1716" lon="-3.86636">
        <ele>76.8</ele>
        <time>2020-06-08T10:31:34Z</time>
      </trkpt>
      <trkpt lat="48.17161" lon="-3.86637">
        <ele>76.9</ele>
        <time>2020-06-08T10:31:35Z</time>
      </trkpt>
      <trkpt lat="48.17164" lon="-3.86637">
        <ele>77.2</ele>
        <time>2020-06-08T10:31:36Z</time>
      </trkpt>
      <trkpt lat="48.17165" lon="-3.86637">
        <ele>77.3</ele>
        <time>2020-06-08T10:31:37Z</time>
      </trkpt>
      <trkpt lat="48.17166" lon="-3.86637">
        <ele>77.5</ele>
        <time>2020-06-08T10:31:38Z</time>
      </trkpt>
      <trkpt lat="48.17168" lon="-3.86637">
        <ele>77.6</ele>
        <time>2020-06-08T10:31:39Z</time>
      </trkpt>
      <trkpt lat="48.1717" lon="-3.86637">
        <ele>77.8</ele>
        <time>2020-06-08T10:31:40Z</time>
      </trkpt>
      <trkpt lat="48.17172" lon="-3.86636">
        <ele>78</ele>
        <time>2020-06-08T10:31:41Z</time>
      </trkpt>
      <trkpt lat="48.17175" lon="-3.86636">
        <ele>78.3</ele>
        <time>2020-06-08T10:31:42Z</time>
      </trkpt>
      <trkpt lat="48.17176" lon="-3.86636">
        <ele>78.3</ele>
        <time>2020-06-08T10:31:43Z</time>
      </trkpt>
      <trkpt lat="48.17179" lon="-3.86636">
        <ele>78.6</ele>
        <time>2020-06-08T10:31:44Z</time>
      </trkpt>
      <trkpt lat="48.17179" lon="-3.86635">
        <ele>78.7</ele>
        <time>2020-06-08T10:31:45Z</time>
      </trkpt>
      <trkpt lat="48.17181" lon="-3.86635">
        <ele>78.8</ele>
        <time>2020-06-08T10:31:46Z</time>
      </trkpt>
      <trkpt lat="48.17183" lon="-3.86635">
        <ele>79</ele>
        <time>2020-06-08T10:31:47Z</time>
      </trkpt>
      <trkpt lat="48.17186" lon="-3.86634">
        <ele>79.2</ele>
        <time>2020-06-08T10:31:48Z</time>
      </trkpt>
      <trkpt lat="48.17187" lon="-3.86634">
        <ele>79.3</ele>
        <time>2020-06-08T10:31:49Z</time>
      </trkpt>
      <trkpt lat="48.17188" lon="-3.86633">
        <ele>79.5</ele>
        <time>2020-06-08T10:31:50Z</time>
      </trkpt>
      <trkpt lat="48.1719" lon="-3.86633">
        <ele>79.6</ele>
        <time>2020-06-08T10:31:51Z</time>
      </trkpt>
      <trkpt lat="48.17193" lon="-3.86632">
        <ele>79.9</ele>
        <time>2020-06-08T10:31:52Z</time>
      </trkpt>
      <trkpt lat="48.17194" lon="-3.86633">
        <ele>79.9</ele>
        <time>2020-06-08T10:31:53Z</time>
      </trkpt>
      <trkpt lat="48.17196" lon="-3.86632">
        <ele>80.2</ele>
        <time>2020-06-08T10:31:54Z</time>
      </trkpt>
      <trkpt lat="48.17197" lon="-3.86632">
        <ele>80.3</ele>
        <time>2020-06-08T10:31:55Z</time>
      </trkpt>
      <trkpt lat="48.172" lon="-3.86632">
        <ele>80.6</ele>
        <time>2020-06-08T10:31:56Z</time>
      </trkpt>
      <trkpt lat="48.17202" lon="-3.86632">
        <ele>80.7</ele>
        <time>2020-06-08T10:31:57Z</time>
      </trkpt>
      <trkpt lat="48.17205" lon="-3.86631">
        <ele>81</ele>
        <time>2020-06-08T10:31:58Z</time>
      </trkpt>
      <trkpt lat="48.17206" lon="-3.8663">
        <ele>81.1</ele>
        <time>2020-06-08T10:31:59Z</time>
      </trkpt>
      <trkpt lat="48.17209" lon="-3.86631">
        <ele>81.4</ele>
        <time>2020-06-08T10:32:00Z</time>
      </trkpt>
      <trkpt lat="48.1721" lon="-3.86632">
        <ele>81.5</ele>
        <time>2020-06-08T10:32:01Z</time>
      </trkpt>
      <trkpt lat="48.17213" lon="-3.86633">
        <ele>81.8</ele>
        <time>2020-06-08T10:32:02Z</time>
      </trkpt>
      <trkpt lat="48.17214" lon="-3.86633">
        <ele>81.9</ele>
        <time>2020-06-08T10:32:03Z</time>
      </trkpt>
      <trkpt lat="48.17215" lon="-3.86633">
        <ele>82</ele>
        <time>2020-06-08T10:32:04Z</time>
      </trkpt>
      <trkpt lat="48.17217" lon="-3.86633">
        <ele>82.2</ele>
        <time>2020-06-08T10:32:05Z</time>
      </trkpt>
      <trkpt lat="48.17219" lon="-3.86632">
        <ele>82.4</ele>
        <time>2020-06-08T10:32:06Z</time>
      </trkpt>
      <trkpt lat="48.17221" lon="-3.86631">
        <ele>82.6</ele>
        <time>2020-06-08T10:32:07Z</time>
      </trkpt>
      <trkpt lat="48.17223" lon="-3.86631">
        <ele>82.8</ele>
        <time>2020-06-08T10:32:08Z</time>
      </trkpt>
      <trkpt lat="48.17224" lon="-3.86631">
        <ele>82.9</ele>
        <time>2020-06-08T10:32:09Z</time>
      </trkpt>
      <trkpt lat="48.17227" lon="-3.8663">
        <ele>83.2</ele>
        <time>2020-06-08T10:32:10Z</time>
      </trkpt>
      <trkpt lat="48.17228" lon="-3.86629">
        <ele>83.3</ele>
        <time>2020-06-08T10:32:11Z</time>
      </trkpt>
      <trkpt lat="48.1723" lon="-3.86629">
        <ele>83.5</ele>
        <time>2020-06-08T10:32:12Z</time>
      </trkpt>
      <trkpt lat="48.17232" lon="-3.86629">
        <ele>83.7</ele>
        <time>2020-06-08T10:32:13Z</time>
      </trkpt>
      <trkpt lat="48.17236" lon="-3.86627">
        <ele>84.1</ele>
        <time>2020-06-08T10:32:14Z</time>
      </trkpt>
      <trkpt lat="48.17237" lon="-3.86627">
        <ele>84.2</ele>
        <time>2020-06-08T10:32:15Z</time>
      </trkpt>
      <trkpt lat="48.1724" lon="-3.86626">
        <ele>84.5</ele>
        <time>2020-06-08T10:32:16Z</time>
      </trkpt>
      <trkpt lat="48.17241" lon="-3.86626">
        <ele>84.6</ele>
        <time>2020-06-08T10:32:17Z</time>
      </trkpt>
      <trkpt lat="48.17243" lon="-3.86626">
        <ele>84.8</ele>
        <time>2020-06-08T10:32:18Z</time>
      </trkpt>
      <trkpt lat="48.17245" lon="-3.86626">
        <ele>84.9</ele>
        <time>2020-06-08T10:32:19Z</time>
      </trkpt>
      <trkpt lat="48.17248" lon="-3.86627">
        <ele>85.2</ele>
        <time>2020-06-08T10:32:20Z</time>
      </trkpt>
      <trkpt lat="48.17248" lon="-3.86627">
        <ele>85.3</ele>
        <time>2020-06-08T10:32:21Z</time>
      </trkpt>
      <trkpt lat="48.17251" lon="-3.86627">
        <ele>85.6</ele>
        <time>2020-06-08T10:32:22Z</time>
      </trkpt>
      <trkpt lat="48.17252" lon="-3.86627">
        <ele>85.7</ele>
        <time>2020-06-08T10:32:23Z</time>
      </trkpt>
      <trkpt lat="48.17255" lon="-3.86627">
        <ele>86</ele>
        <time>2020-06-08T10:32:24Z</time>
      </trkpt>
      <trkpt lat="48.17257" lon="-3.86627">
        <ele>86.1</ele>
        <time>2020-06-08T10:32:25Z</time>
      </trkpt>
      <trkpt lat="48.1726" lon="-3.86626">
        <ele>86.5</ele>
        <time>2020-06-08T10:32:26Z</time>
      </trkpt>
      <trkpt lat="48.17261" lon="-3.86626">
        <ele>86.6</ele>
        <time>2020-06-08T10:32:27Z</time>
      </trkpt>
      <trkpt lat="48.17264" lon="-3.86625">
        <ele>86.9</ele>
        <time>2020-06-08T10:32:28Z</time>
      </trkpt>
      <trkpt lat="48.17265" lon="-3.86625">
        <ele>87</ele>
        <time>2020-06-08T10:32:29Z</time>
      </trkpt>
      <trkpt lat="48.17268" lon="-3.86624">
        <ele>87.3</ele>
        <time>2020-06-08T10:32:30Z</time>
      </trkpt>
      <trkpt lat="48.17271" lon="-3.86623">
        <ele>87.6</ele>
        <time>2020-06-08T10:32:31Z</time>
      </trkpt>
      <trkpt lat="48.17272" lon="-3.86622">
        <ele>87.7</ele>
        <time>2020-06-08T10:32:32Z</time>
      </trkpt>
      <trkpt lat="48.17276" lon="-3.86621">
        <ele>88</ele>
        <time>2020-06-08T10:32:33Z</time>
      </trkpt>
      <trkpt lat="48.17277" lon="-3.86621">
        <ele>88.1</ele>
        <time>2020-06-08T10:32:34Z</time>
      </trkpt>
      <trkpt lat="48.1728" lon="-3.86621">
        <ele>88.4</ele>
        <time>2020-06-08T10:32:35Z</time>
      </trkpt>
      <trkpt lat="48.17282" lon="-3.86621">
        <ele>88.5</ele>
        <time>2020-06-08T10:32:36Z</time>
      </trkpt>
      <trkpt lat="48.17285" lon="-3.86621">
        <ele>88.8</ele>
        <time>2020-06-08T10:32:37Z</time>
      </trkpt>
      <trkpt lat="48.17286" lon="-3.86621">
        <ele>88.9</ele>
        <time>2020-06-08T10:32:38Z</time>
      </trkpt>
      <trkpt lat="48.17289" lon="-3.86621">
        <ele>89.2</ele>
        <time>2020-06-08T10:32:39Z</time>
      </trkpt>
      <trkpt lat="48.17293" lon="-3.86621">
        <ele>89.6</ele>
        <time>2020-06-08T10:32:40Z</time>
      </trkpt>
      <trkpt lat="48.17294" lon="-3.86621">
        <ele>89.7</ele>
        <time>2020-06-08T10:32:41Z</time>
      </trkpt>
      <trkpt lat="48.17295" lon="-3.86621">
        <ele>89.8</ele>
        <time>2020-06-08T10:32:42Z</time>
      </trkpt>
      <trkpt lat="48.17297" lon="-3.86621">
        <ele>90</ele>
        <time>2020-06-08T10:32:43Z</time>
      </trkpt>
      <trkpt lat="48.17301" lon="-3.86621">
        <ele>90.3</ele>
        <time>2020-06-08T10:32:44Z</time>
      </trkpt>
      <trkpt lat="48.17302" lon="-3.86621">
        <ele>90.4</ele>
        <time>2020-06-08T10:32:45Z</time>
      </trkpt>
      <trkpt lat="48.17305" lon="-3.86622">
        <ele>90.7</ele>
        <time>2020-06-08T10:32:46Z</time>
      </trkpt>
      <trkpt lat="48.17306" lon="-3.86622">
        <ele>90.8</ele>
        <time>2020-06-08T10:32:47Z</time>
      </trkpt>
      <trkpt lat="48.1731" lon="-3.86622">
        <ele>91.1</ele>
        <time>2020-06-08T10:32:48Z</time>
      </trkpt>
      <trkpt lat="48.17311" lon="-3.86623">
        <ele>91.2</ele>
        <time>2020-06-08T10:32:49Z</time>
      </trkpt>
      <trkpt lat="48.17313" lon="-3.86624">
        <ele>91.4</ele>
        <time>2020-06-08T10:32:50Z</time>
      </trkpt>
      <trkpt lat="48.17314" lon="-3.86624">
        <ele>91.5</ele>
        <time>2020-06-08T10:32:51Z</time>
      </trkpt>
      <trkpt lat="48.17317" lon="-3.86626">
        <ele>91.7</ele>
        <time>2020-06-08T10:32:52Z</time>
      </trkpt>
      <trkpt lat="48.17318" lon="-3.86626">
        <ele>91.8</ele>
        <time>2020-06-08T10:32:53Z</time>
      </trkpt>
      <trkpt lat="48.17319" lon="-3.86628">
        <ele>91.9</ele>
        <time>2020-06-08T10:32:54Z</time>
      </trkpt>
      <trkpt lat="48.17321" lon="-3.86629">
        <ele>92</ele>
        <time>2020-06-08T10:32:55Z</time>
      </trkpt>
      <trkpt lat="48.17324" lon="-3.8663">
        <ele>92.3</ele>
        <time>2020-06-08T10:32:56Z</time>
      </trkpt>
      <trkpt lat="48.17325" lon="-3.86631">
        <ele>92.3</ele>
        <time>2020-06-08T10:32:57Z</time>
      </trkpt>
      <trkpt lat="48.17328" lon="-3.86631">
        <ele>92.6</ele>
        <time>2020-06-08T10:32:58Z</time>
      </trkpt>
      <trkpt lat="48.17329" lon="-3.86631">
        <ele>92.7</ele>
        <time>2020-06-08T10:32:59Z</time>
      </trkpt>
      <trkpt lat="48.17333" lon="-3.86632">
        <ele>92.9</ele>
        <time>2020-06-08T10:33:00Z</time>
      </trkpt>
      <trkpt lat="48.17334" lon="-3.86632">
        <ele>93</ele>
        <time>2020-06-08T10:33:01Z</time>
      </trkpt>
      <trkpt lat="48.17338" lon="-3.86633">
        <ele>93.2</ele>
        <time>2020-06-08T10:33:02Z</time>
      </trkpt>
      <trkpt lat="48.17339" lon="-3.86634">
        <ele>93.3</ele>
        <time>2020-06-08T10:33:03Z</time>
      </trkpt>
      <trkpt lat="48.17341" lon="-3.86635">
        <ele>93.4</ele>
        <time>2020-06-08T10:33:04Z</time>
      </trkpt>
      <trkpt lat="48.17342" lon="-3.86637">
        <ele>93.5</ele>
        <time>2020-06-08T10:33:05Z</time>
      </trkpt>
      <trkpt lat="48.17345" lon="-3.8664">
        <ele>93.6</ele>
        <time>2020-06-08T10:33:06Z</time>
      </trkpt>
      <trkpt lat="48.17346" lon="-3.86641">
        <ele>93.7</ele>
        <time>2020-06-08T10:33:07Z</time>
      </trkpt>
      <trkpt lat="48.17349" lon="-3.86643">
        <ele>93.8</ele>
        <time>2020-06-08T10:33:08Z</time>
      </trkpt>
      <trkpt lat="48.17349" lon="-3.86644">
        <ele>93.9</ele>
        <time>2020-06-08T10:33:09Z</time>
      </trkpt>
      <trkpt lat="48.17352" lon="-3.86646">
        <ele>94</ele>
        <time>2020-06-08T10:33:10Z</time>
      </trkpt>
      <trkpt lat="48.17353" lon="-3.86647">
        <ele>94</ele>
        <time>2020-06-08T10:33:11Z</time>
      </trkpt>
      <trkpt lat="48.17356" lon="-3.86648">
        <ele>94.1</ele>
        <time>2020-06-08T10:33:12Z</time>
      </trkpt>
      <trkpt lat="48.17357" lon="-3.86648">
        <ele>94.2</ele>
        <time>2020-06-08T10:33:13Z</time>
      </trkpt>
      <trkpt lat="48.1736" lon="-3.86649">
        <ele>94.2</ele>
        <time>2020-06-08T10:33:14Z</time>
      </trkpt>
      <trkpt lat="48.17361" lon="-3.8665">
        <ele>94.2</ele>
        <time>2020-06-08T10:33:15Z</time>
      </trkpt>
      <trkpt lat="48.17362" lon="-3.8665">
        <ele>94.2</ele>
        <time>2020-06-08T10:33:16Z</time>
      </trkpt>
      <trkpt lat="48.17363" lon="-3.86651">
        <ele>94.3</ele>
        <time>2020-06-08T10:33:17Z</time>
      </trkpt>
      <trkpt lat="48.17365" lon="-3.86652">
        <ele>94.3</ele>
        <time>2020-06-08T10:33:18Z</time>
      </trkpt>
      <trkpt lat="48.17366" lon="-3.86653">
        <ele>94.3</ele>
        <time>2020-06-08T10:33:19Z</time>
      </trkpt>
      <trkpt lat="48.17368" lon="-3.86654">
        <ele>94.2</ele>
        <time>2020-06-08T10:33:20Z</time>
      </trkpt>
      <trkpt lat="48.17369" lon="-3.86654">
        <ele>94.2</ele>
        <time>2020-06-08T10:33:21Z</time>
      </trkpt>
      <trkpt lat="48.17369" lon="-3.86654">
        <ele>94.2</ele>
        <time>2020-06-08T10:33:22Z</time>
      </trkpt>
      <trkpt lat="48.17368" lon="-3.86654">
        <ele>94.2</ele>
        <time>2020-06-08T10:33:23Z</time>
      </trkpt>
      <trkpt lat="48.17368" lon="-3.86655">
        <ele>94.2</ele>
        <time>2020-06-08T10:33:24Z</time>
      </trkpt>
      <trkpt lat="48.17368" lon="-3.86655">
        <ele>94.2</ele>
        <time>2020-06-08T10:33:25Z</time>
      </trkpt>
      <trkpt lat="48.17368" lon="-3.86655">
        <ele>94.2</ele>
        <time>2020-06-08T10:33:26Z</time>
      </trkpt>
      <trkpt lat="48.17368" lon="-3.86655">
        <ele>94.2</ele>
        <time>2020-06-08T10:33:27Z</time>
      </trkpt>
      <trkpt lat="48.17368" lon="-3.86655">
        <ele>94.2</ele>
        <time>2020-06-08T10:33:28Z</time>
      </trkpt>
      <trkpt lat="48.17368" lon="-3.86655">
        <ele>94.2</ele>
        <time>2020-06-08T10:33:29Z</time>
      </trkpt>
      <trkpt lat="48.17368" lon="-3.86655">
        <ele>94.2</ele>
        <time>2020-06-08T10:33:30Z</time>
      </trkpt>
      <trkpt lat="48.17368" lon="-3.86655">
        <ele>94.2</ele>
        <time>2020-06-08T10:33:31Z</time>
      </trkpt>
      <trkpt lat="48.17368" lon="-3.86655">
        <ele>94.2</ele>
        <time>2020-06-08T10:33:32Z</time>
      </trkpt>
      <trkpt lat="48.1737" lon="-3.86654">
        <ele>94.2</ele>
        <time>2020-06-08T10:34:19Z</time>
      </trkpt>
      <trkpt lat="48.17371" lon="-3.86654">
        <ele>94.2</ele>
        <time>2020-06-08T10:34:20Z</time>
      </trkpt>
      <trkpt lat="48.17372" lon="-3.86653">
        <ele>94.2</ele>
        <time>2020-06-08T10:34:21Z</time>
      </trkpt>
      <trkpt lat="48.17372" lon="-3.86653">
        <ele>94.2</ele>
        <time>2020-06-08T10:34:22Z</time>
      </trkpt>
      <trkpt lat="48.17372" lon="-3.86653">
        <ele>94.2</ele>
        <time>2020-06-08T10:34:23Z</time>
      </trkpt>
      <trkpt lat="48.17372" lon="-3.86653">
        <ele>94.2</ele>
        <time>2020-06-08T10:34:24Z</time>
      </trkpt>
      <trkpt lat="48.17372" lon="-3.86653">
        <ele>94.2</ele>
        <time>2020-06-08T10:34:25Z</time>
      </trkpt>
      <trkpt lat="48.17372" lon="-3.86653">
        <ele>94.2</ele>
        <time>2020-06-08T10:34:26Z</time>
      </trkpt>
      <trkpt lat="48.17372" lon="-3.86653">
        <ele>94.2</ele>
        <time>2020-06-08T10:34:27Z</time>
      </trkpt>
      <trkpt lat="48.17372" lon="-3.86653">
        <ele>94.2</ele>
        <time>2020-06-08T10:34:28Z</time>
      </trkpt>
      <trkpt lat="48.17372" lon="-3.86653">
        <ele>94.2</ele>
        <time>2020-06-08T10:34:29Z</time>
      </trkpt>
      <trkpt lat="48.17372" lon="-3.86653">
        <ele>94.2</ele>
        <time>2020-06-08T10:34:30Z</time>
      </trkpt>
      <trkpt lat="48.17379" lon="-3.86659">
        <ele>94</ele>
        <time>2020-06-08T10:34:52Z</time>
      </trkpt>
      <trkpt lat="48.17383" lon="-3.8666">
        <ele>93.9</ele>
        <time>2020-06-08T10:34:53Z</time>
      </trkpt>
      <trkpt lat="48.17385" lon="-3.86662">
        <ele>93.8</ele>
        <time>2020-06-08T10:34:54Z</time>
      </trkpt>
      <trkpt lat="48.17388" lon="-3.86665">
        <ele>93.7</ele>
        <time>2020-06-08T10:34:55Z</time>
      </trkpt>
      <trkpt lat="48.17391" lon="-3.86666">
        <ele>93.6</ele>
        <time>2020-06-08T10:34:56Z</time>
      </trkpt>
      <trkpt lat="48.17394" lon="-3.86665">
        <ele>93.5</ele>
        <time>2020-06-08T10:34:57Z</time>
      </trkpt>
      <trkpt lat="48.17397" lon="-3.86666">
        <ele>93.4</ele>
        <time>2020-06-08T10:34:58Z</time>
      </trkpt>
      <trkpt lat="48.17401" lon="-3.86668">
        <ele>93.2</ele>
        <time>2020-06-08T10:34:59Z</time>
      </trkpt>
      <trkpt lat="48.17405" lon="-3.8667">
        <ele>93.1</ele>
        <time>2020-06-08T10:35:00Z</time>
      </trkpt>
      <trkpt lat="48.17409" lon="-3.86671">
        <ele>93</ele>
        <time>2020-06-08T10:35:01Z</time>
      </trkpt>
      <trkpt lat="48.17413" lon="-3.86672">
        <ele>92.8</ele>
        <time>2020-06-08T10:35:02Z</time>
      </trkpt>
      <trkpt lat="48.17418" lon="-3.86673">
        <ele>92.7</ele>
        <time>2020-06-08T10:35:03Z</time>
      </trkpt>
      <trkpt lat="48.17424" lon="-3.86674">
        <ele>92.5</ele>
        <time>2020-06-08T10:35:04Z</time>
      </trkpt>
      <trkpt lat="48.1743" lon="-3.86676">
        <ele>92.4</ele>
        <time>2020-06-08T10:35:05Z</time>
      </trkpt>
      <trkpt lat="48.17435" lon="-3.86677">
        <ele>92.2</ele>
        <time>2020-06-08T10:35:06Z</time>
      </trkpt>
      <trkpt lat="48.17441" lon="-3.86679">
        <ele>92</ele>
        <time>2020-06-08T10:35:07Z</time>
      </trkpt>
      <trkpt lat="48.17448" lon="-3.86681">
        <ele>91.9</ele>
        <time>2020-06-08T10:35:08Z</time>
      </trkpt>
      <trkpt lat="48.17454" lon="-3.86684">
        <ele>91.8</ele>
        <time>2020-06-08T10:35:09Z</time>
      </trkpt>
      <trkpt lat="48.17459" lon="-3.86684">
        <ele>91.7</ele>
        <time>2020-06-08T10:35:10Z</time>
      </trkpt>
      <trkpt lat="48.17465" lon="-3.86687">
        <ele>91.7</ele>
        <time>2020-06-08T10:35:11Z</time>
      </trkpt>
      <trkpt lat="48.17471" lon="-3.86689">
        <ele>91.8</ele>
        <time>2020-06-08T10:35:12Z</time>
      </trkpt>
      <trkpt lat="48.17477" lon="-3.86691">
        <ele>91.9</ele>
        <time>2020-06-08T10:35:13Z</time>
      </trkpt>
      <trkpt lat="48.17482" lon="-3.86693">
        <ele>92</ele>
        <time>2020-06-08T10:35:14Z</time>
      </trkpt>
      <trkpt lat="48.17488" lon="-3.86694">
        <ele>92</ele>
        <time>2020-06-08T10:35:15Z</time>
      </trkpt>
      <trkpt lat="48.17495" lon="-3.86695">
        <ele>92.1</ele>
        <time>2020-06-08T10:35:16Z</time>
      </trkpt>
      <trkpt lat="48.175" lon="-3.86697">
        <ele>92.2</ele>
        <time>2020-06-08T10:35:17Z</time>
      </trkpt>
      <trkpt lat="48.17506" lon="-3.86699">
        <ele>92.4</ele>
        <time>2020-06-08T10:35:18Z</time>
      </trkpt>
      <trkpt lat="48.17511" lon="-3.86701">
        <ele>92.6</ele>
        <time>2020-06-08T10:35:19Z</time>
      </trkpt>
      <trkpt lat="48.17516" lon="-3.86703">
        <ele>92.8</ele>
        <time>2020-06-08T10:35:20Z</time>
      </trkpt>
      <trkpt lat="48.17521" lon="-3.86704">
        <ele>92.9</ele>
        <time>2020-06-08T10:35:21Z</time>
      </trkpt>
      <trkpt lat="48.17526" lon="-3.86705">
        <ele>93.1</ele>
        <time>2020-06-08T10:35:22Z</time>
      </trkpt>
      <trkpt lat="48.1753" lon="-3.86706">
        <ele>93.2</ele>
        <time>2020-06-08T10:35:23Z</time>
      </trkpt>
      <trkpt lat="48.17534" lon="-3.86707">
        <ele>93.3</ele>
        <time>2020-06-08T10:35:24Z</time>
      </trkpt>
      <trkpt lat="48.17538" lon="-3.8671">
        <ele>93.4</ele>
        <time>2020-06-08T10:35:25Z</time>
      </trkpt>
      <trkpt lat="48.17544" lon="-3.86708">
        <ele>93.6</ele>
        <time>2020-06-08T10:35:26Z</time>
      </trkpt>
      <trkpt lat="48.17548" lon="-3.86709">
        <ele>93.7</ele>
        <time>2020-06-08T10:35:27Z</time>
      </trkpt>
      <trkpt lat="48.17553" lon="-3.8671">
        <ele>93.9</ele>
        <time>2020-06-08T10:35:28Z</time>
      </trkpt>
      <trkpt lat="48.17558" lon="-3.86711">
        <ele>94.1</ele>
        <time>2020-06-08T10:35:29Z</time>
      </trkpt>
      <trkpt lat="48.17562" lon="-3.86712">
        <ele>94.3</ele>
        <time>2020-06-08T10:35:30Z</time>
      </trkpt>
      <trkpt lat="48.17566" lon="-3.86715">
        <ele>94.5</ele>
        <time>2020-06-08T10:35:31Z</time>
      </trkpt>
      <trkpt lat="48.17571" lon="-3.86716">
        <ele>94.7</ele>
        <time>2020-06-08T10:35:32Z</time>
      </trkpt>
      <trkpt lat="48.17575" lon="-3.86717">
        <ele>95</ele>
        <time>2020-06-08T10:35:33Z</time>
      </trkpt>
      <trkpt lat="48.1758" lon="-3.86718">
        <ele>95.2</ele>
        <time>2020-06-08T10:35:34Z</time>
      </trkpt>
      <trkpt lat="48.17584" lon="-3.8672">
        <ele>95.4</ele>
        <time>2020-06-08T10:35:35Z</time>
      </trkpt>
      <trkpt lat="48.17588" lon="-3.86722">
        <ele>95.6</ele>
        <time>2020-06-08T10:35:36Z</time>
      </trkpt>
      <trkpt lat="48.17592" lon="-3.86723">
        <ele>95.8</ele>
        <time>2020-06-08T10:35:37Z</time>
      </trkpt>
      <trkpt lat="48.17597" lon="-3.86724">
        <ele>96</ele>
        <time>2020-06-08T10:35:38Z</time>
      </trkpt>
      <trkpt lat="48.17601" lon="-3.86726">
        <ele>96.2</ele>
        <time>2020-06-08T10:35:39Z</time>
      </trkpt>
      <trkpt lat="48.17605" lon="-3.86725">
        <ele>96.4</ele>
        <time>2020-06-08T10:35:40Z</time>
      </trkpt>
      <trkpt lat="48.17609" lon="-3.86726">
        <ele>96.6</ele>
        <time>2020-06-08T10:35:41Z</time>
      </trkpt>
      <trkpt lat="48.17613" lon="-3.86726">
        <ele>96.7</ele>
        <time>2020-06-08T10:35:42Z</time>
      </trkpt>
      <trkpt lat="48.17617" lon="-3.86727">
        <ele>96.8</ele>
        <time>2020-06-08T10:35:43Z</time>
      </trkpt>
      <trkpt lat="48.17621" lon="-3.86728">
        <ele>97</ele>
        <time>2020-06-08T10:35:44Z</time>
      </trkpt>
      <trkpt lat="48.17625" lon="-3.8673">
        <ele>97.1</ele>
        <time>2020-06-08T10:35:45Z</time>
      </trkpt>
      <trkpt lat="48.17629" lon="-3.86732">
        <ele>97.3</ele>
        <time>2020-06-08T10:35:46Z</time>
      </trkpt>
      <trkpt lat="48.17633" lon="-3.86733">
        <ele>97.5</ele>
        <time>2020-06-08T10:35:47Z</time>
      </trkpt>
      <trkpt lat="48.17638" lon="-3.86734">
        <ele>97.6</ele>
        <time>2020-06-08T10:35:48Z</time>
      </trkpt>
      <trkpt lat="48.17642" lon="-3.86736">
        <ele>97.8</ele>
        <time>2020-06-08T10:35:49Z</time>
      </trkpt>
      <trkpt lat="48.17646" lon="-3.8674">
        <ele>98</ele>
        <time>2020-06-08T10:35:50Z</time>
      </trkpt>
      <trkpt lat="48.17649" lon="-3.86742">
        <ele>98.1</ele>
        <time>2020-06-08T10:35:51Z</time>
      </trkpt>
      <trkpt lat="48.17654" lon="-3.86743">
        <ele>98.3</ele>
        <time>2020-06-08T10:35:52Z</time>
      </trkpt>
      <trkpt lat="48.17658" lon="-3.86744">
        <ele>98.4</ele>
        <time>2020-06-08T10:35:53Z</time>
      </trkpt>
      <trkpt lat="48.17661" lon="-3.86745">
        <ele>98.5</ele>
        <time>2020-06-08T10:35:54Z</time>
      </trkpt>
      <trkpt lat="48.17666" lon="-3.86747">
        <ele>98.6</ele>
        <time>2020-06-08T10:35:55Z</time>
      </trkpt>
      <trkpt lat="48.1767" lon="-3.86748">
        <ele>98.7</ele>
        <time>2020-06-08T10:35:56Z</time>
      </trkpt>
      <trkpt lat="48.17675" lon="-3.86749">
        <ele>98.8</ele>
        <time>2020-06-08T10:35:57Z</time>
      </trkpt>
      <trkpt lat="48.17679" lon="-3.8675">
        <ele>98.9</ele>
        <time>2020-06-08T10:35:58Z</time>
      </trkpt>
      <trkpt lat="48.17683" lon="-3.86751">
        <ele>99</ele>
        <time>2020-06-08T10:35:59Z</time>
      </trkpt>
      <trkpt lat="48.17687" lon="-3.86755">
        <ele>99.1</ele>
        <time>2020-06-08T10:36:00Z</time>
      </trkpt>
      <trkpt lat="48.17691" lon="-3.86757">
        <ele>99.1</ele>
        <time>2020-06-08T10:36:01Z</time>
      </trkpt>
      <trkpt lat="48.17694" lon="-3.86759">
        <ele>99.2</ele>
        <time>2020-06-08T10:36:02Z</time>
      </trkpt>
      <trkpt lat="48.17698" lon="-3.86761">
        <ele>99.3</ele>
        <time>2020-06-08T10:36:03Z</time>
      </trkpt>
      <trkpt lat="48.17703" lon="-3.86764">
        <ele>99.4</ele>
        <time>2020-06-08T10:36:04Z</time>
      </trkpt>
      <trkpt lat="48.17707" lon="-3.86766">
        <ele>99.4</ele>
        <time>2020-06-08T10:36:05Z</time>
      </trkpt>
      <trkpt lat="48.17711" lon="-3.86769">
        <ele>99.5</ele>
        <time>2020-06-08T10:36:06Z</time>
      </trkpt>
      <trkpt lat="48.17715" lon="-3.86772">
        <ele>99.5</ele>
        <time>2020-06-08T10:36:07Z</time>
      </trkpt>
      <trkpt lat="48.17719" lon="-3.86775">
        <ele>99.5</ele>
        <time>2020-06-08T10:36:08Z</time>
      </trkpt>
      <trkpt lat="48.17722" lon="-3.86779">
        <ele>99.6</ele>
        <time>2020-06-08T10:36:09Z</time>
      </trkpt>
      <trkpt lat="48.17726" lon="-3.86783">
        <ele>99.6</ele>
        <time>2020-06-08T10:36:10Z</time>
      </trkpt>
      <trkpt lat="48.1773" lon="-3.86786">
        <ele>99.6</ele>
        <time>2020-06-08T10:36:11Z</time>
      </trkpt>
      <trkpt lat="48.17735" lon="-3.86788">
        <ele>99.8</ele>
        <time>2020-06-08T10:36:12Z</time>
      </trkpt>
      <trkpt lat="48.17739" lon="-3.86791">
        <ele>99.9</ele>
        <time>2020-06-08T10:36:13Z</time>
      </trkpt>
      <trkpt lat="48.17743" lon="-3.86795">
        <ele>100</ele>
        <time>2020-06-08T10:36:14Z</time>
      </trkpt>
      <trkpt lat="48.17748" lon="-3.86798">
        <ele>100.2</ele>
        <time>2020-06-08T10:36:15Z</time>
      </trkpt>
      <trkpt lat="48.17752" lon="-3.86801">
        <ele>100.3</ele>
        <time>2020-06-08T10:36:16Z</time>
      </trkpt>
      <trkpt lat="48.17756" lon="-3.86804">
        <ele>100.4</ele>
        <time>2020-06-08T10:36:17Z</time>
      </trkpt>
      <trkpt lat="48.1776" lon="-3.86807">
        <ele>100.5</ele>
        <time>2020-06-08T10:36:18Z</time>
      </trkpt>
      <trkpt lat="48.17764" lon="-3.86811">
        <ele>100.6</ele>
        <time>2020-06-08T10:36:19Z</time>
      </trkpt>
      <trkpt lat="48.17767" lon="-3.86813">
        <ele>100.7</ele>
        <time>2020-06-08T10:36:20Z</time>
      </trkpt>
      <trkpt lat="48.17771" lon="-3.86816">
        <ele>100.7</ele>
        <time>2020-06-08T10:36:21Z</time>
      </trkpt>
      <trkpt lat="48.17773" lon="-3.86819">
        <ele>100.8</ele>
        <time>2020-06-08T10:36:22Z</time>
      </trkpt>
      <trkpt lat="48.17776" lon="-3.86821">
        <ele>100.8</ele>
        <time>2020-06-08T10:36:23Z</time>
      </trkpt>
      <trkpt lat="48.1778" lon="-3.86823">
        <ele>100.9</ele>
        <time>2020-06-08T10:36:24Z</time>
      </trkpt>
      <trkpt lat="48.17784" lon="-3.86825">
        <ele>100.9</ele>
        <time>2020-06-08T10:36:25Z</time>
      </trkpt>
      <trkpt lat="48.17787" lon="-3.86827">
        <ele>101</ele>
        <time>2020-06-08T10:36:26Z</time>
      </trkpt>
      <trkpt lat="48.17791" lon="-3.8683">
        <ele>101.2</ele>
        <time>2020-06-08T10:36:27Z</time>
      </trkpt>
      <trkpt lat="48.17795" lon="-3.86832">
        <ele>101.3</ele>
        <time>2020-06-08T10:36:28Z</time>
      </trkpt>
      <trkpt lat="48.17798" lon="-3.86832">
        <ele>101.4</ele>
        <time>2020-06-08T10:36:29Z</time>
      </trkpt>
      <trkpt lat="48.17803" lon="-3.86831">
        <ele>101.4</ele>
        <time>2020-06-08T10:36:30Z</time>
      </trkpt>
      <trkpt lat="48.17807" lon="-3.86831">
        <ele>101.4</ele>
        <time>2020-06-08T10:36:31Z</time>
      </trkpt>
      <trkpt lat="48.17812" lon="-3.86831">
        <ele>101.4</ele>
        <time>2020-06-08T10:36:32Z</time>
      </trkpt>
      <trkpt lat="48.17816" lon="-3.86831">
        <ele>101.4</ele>
        <time>2020-06-08T10:36:33Z</time>
      </trkpt>
      <trkpt lat="48.17819" lon="-3.8683">
        <ele>101.5</ele>
        <time>2020-06-08T10:36:34Z</time>
      </trkpt>
      <trkpt lat="48.17823" lon="-3.8683">
        <ele>101.5</ele>
        <time>2020-06-08T10:36:35Z</time>
      </trkpt>
      <trkpt lat="48.17827" lon="-3.86829">
        <ele>101.5</ele>
        <time>2020-06-08T10:36:36Z</time>
      </trkpt>
      <trkpt lat="48.17833" lon="-3.86827">
        <ele>101.6</ele>
        <time>2020-06-08T10:36:37Z</time>
      </trkpt>
      <trkpt lat="48.17837" lon="-3.86826">
        <ele>101.6</ele>
        <time>2020-06-08T10:36:38Z</time>
      </trkpt>
      <trkpt lat="48.17841" lon="-3.86826">
        <ele>101.5</ele>
        <time>2020-06-08T10:36:39Z</time>
      </trkpt>
      <trkpt lat="48.17845" lon="-3.86829">
        <ele>101.5</ele>
        <time>2020-06-08T10:36:40Z</time>
      </trkpt>
      <trkpt lat="48.17846" lon="-3.86833">
        <ele>101.5</ele>
        <time>2020-06-08T10:36:41Z</time>
      </trkpt>
      <trkpt lat="48.17848" lon="-3.86838">
        <ele>101.5</ele>
        <time>2020-06-08T10:36:42Z</time>
      </trkpt>
      <trkpt lat="48.17849" lon="-3.86844">
        <ele>101.5</ele>
        <time>2020-06-08T10:36:43Z</time>
      </trkpt>
      <trkpt lat="48.1785" lon="-3.8685">
        <ele>101.4</ele>
        <time>2020-06-08T10:36:44Z</time>
      </trkpt>
      <trkpt lat="48.17851" lon="-3.86858">
        <ele>101.2</ele>
        <time>2020-06-08T10:36:45Z</time>
      </trkpt>
      <trkpt lat="48.17851" lon="-3.86865">
        <ele>101.1</ele>
        <time>2020-06-08T10:36:46Z</time>
      </trkpt>
      <trkpt lat="48.17851" lon="-3.86872">
        <ele>100.9</ele>
        <time>2020-06-08T10:36:47Z</time>
      </trkpt>
      <trkpt lat="48.17853" lon="-3.86879">
        <ele>100.7</ele>
        <time>2020-06-08T10:36:48Z</time>
      </trkpt>
      <trkpt lat="48.17854" lon="-3.86886">
        <ele>100.6</ele>
        <time>2020-06-08T10:36:49Z</time>
      </trkpt>
      <trkpt lat="48.17855" lon="-3.86893">
        <ele>100.4</ele>
        <time>2020-06-08T10:36:50Z</time>
      </trkpt>
      <trkpt lat="48.17855" lon="-3.86902">
        <ele>100.2</ele>
        <time>2020-06-08T10:36:51Z</time>
      </trkpt>
      <trkpt lat="48.17855" lon="-3.86911">
        <ele>99.9</ele>
        <time>2020-06-08T10:36:52Z</time>
      </trkpt>
      <trkpt lat="48.17854" lon="-3.86921">
        <ele>99.7</ele>
        <time>2020-06-08T10:36:53Z</time>
      </trkpt>
      <trkpt lat="48.17854" lon="-3.8693">
        <ele>99.4</ele>
        <time>2020-06-08T10:36:54Z</time>
      </trkpt>
      <trkpt lat="48.17854" lon="-3.86941">
        <ele>99.2</ele>
        <time>2020-06-08T10:36:55Z</time>
      </trkpt>
      <trkpt lat="48.17853" lon="-3.8695">
        <ele>98.9</ele>
        <time>2020-06-08T10:36:56Z</time>
      </trkpt>
      <trkpt lat="48.17852" lon="-3.8696">
        <ele>98.7</ele>
        <time>2020-06-08T10:36:57Z</time>
      </trkpt>
      <trkpt lat="48.17851" lon="-3.86971">
        <ele>98.4</ele>
        <time>2020-06-08T10:36:58Z</time>
      </trkpt>
      <trkpt lat="48.17849" lon="-3.86982">
        <ele>98.1</ele>
        <time>2020-06-08T10:36:59Z</time>
      </trkpt>
      <trkpt lat="48.17846" lon="-3.86993">
        <ele>97.8</ele>
        <time>2020-06-08T10:37:00Z</time>
      </trkpt>
      <trkpt lat="48.17841" lon="-3.87003">
        <ele>97.5</ele>
        <time>2020-06-08T10:37:01Z</time>
      </trkpt>
      <trkpt lat="48.17836" lon="-3.87013">
        <ele>97.2</ele>
        <time>2020-06-08T10:37:02Z</time>
      </trkpt>
      <trkpt lat="48.17831" lon="-3.87023">
        <ele>96.7</ele>
        <time>2020-06-08T10:37:03Z</time>
      </trkpt>
      <trkpt lat="48.17826" lon="-3.87032">
        <ele>96.1</ele>
        <time>2020-06-08T10:37:04Z</time>
      </trkpt>
      <trkpt lat="48.17821" lon="-3.87043">
        <ele>95.5</ele>
        <time>2020-06-08T10:37:05Z</time>
      </trkpt>
      <trkpt lat="48.17817" lon="-3.87054">
        <ele>94.9</ele>
        <time>2020-06-08T10:37:06Z</time>
      </trkpt>
      <trkpt lat="48.17812" lon="-3.87066">
        <ele>94.4</ele>
        <time>2020-06-08T10:37:07Z</time>
      </trkpt>
      <trkpt lat="48.17807" lon="-3.87079">
        <ele>93.9</ele>
        <time>2020-06-08T10:37:08Z</time>
      </trkpt>
      <trkpt lat="48.17803" lon="-3.87091">
        <ele>93.5</ele>
        <time>2020-06-08T10:37:09Z</time>
      </trkpt>
      <trkpt lat="48.17799" lon="-3.87103">
        <ele>93.1</ele>
        <time>2020-06-08T10:37:10Z</time>
      </trkpt>
      <trkpt lat="48.17795" lon="-3.87116">
        <ele>92.8</ele>
        <time>2020-06-08T10:37:11Z</time>
      </trkpt>
      <trkpt lat="48.17791" lon="-3.87129">
        <ele>92.4</ele>
        <time>2020-06-08T10:37:12Z</time>
      </trkpt>
      <trkpt lat="48.17788" lon="-3.87142">
        <ele>92.2</ele>
        <time>2020-06-08T10:37:13Z</time>
      </trkpt>
      <trkpt lat="48.17784" lon="-3.87155">
        <ele>91.9</ele>
        <time>2020-06-08T10:37:14Z</time>
      </trkpt>
      <trkpt lat="48.1778" lon="-3.87167">
        <ele>91.7</ele>
        <time>2020-06-08T10:37:15Z</time>
      </trkpt>
      <trkpt lat="48.17777" lon="-3.87179">
        <ele>91.5</ele>
        <time>2020-06-08T10:37:16Z</time>
      </trkpt>
      <trkpt lat="48.17773" lon="-3.87192">
        <ele>91.4</ele>
        <time>2020-06-08T10:37:17Z</time>
      </trkpt>
      <trkpt lat="48.1777" lon="-3.87204">
        <ele>91.2</ele>
        <time>2020-06-08T10:37:18Z</time>
      </trkpt>
      <trkpt lat="48.17767" lon="-3.87217">
        <ele>91.1</ele>
        <time>2020-06-08T10:37:19Z</time>
      </trkpt>
      <trkpt lat="48.17765" lon="-3.87229">
        <ele>91</ele>
        <time>2020-06-08T10:37:20Z</time>
      </trkpt>
      <trkpt lat="48.17764" lon="-3.87242">
        <ele>90.8</ele>
        <time>2020-06-08T10:37:21Z</time>
      </trkpt>
      <trkpt lat="48.17765" lon="-3.87255">
        <ele>90.7</ele>
        <time>2020-06-08T10:37:22Z</time>
      </trkpt>
      <trkpt lat="48.17767" lon="-3.87267">
        <ele>90.5</ele>
        <time>2020-06-08T10:37:23Z</time>
      </trkpt>
      <trkpt lat="48.17769" lon="-3.87278">
        <ele>90.3</ele>
        <time>2020-06-08T10:37:24Z</time>
      </trkpt>
      <trkpt lat="48.17771" lon="-3.87289">
        <ele>90.1</ele>
        <time>2020-06-08T10:37:25Z</time>
      </trkpt>
      <trkpt lat="48.17773" lon="-3.87299">
        <ele>89.9</ele>
        <time>2020-06-08T10:37:26Z</time>
      </trkpt>
      <trkpt lat="48.17775" lon="-3.8731">
        <ele>89.8</ele>
        <time>2020-06-08T10:37:27Z</time>
      </trkpt>
      <trkpt lat="48.17777" lon="-3.8732">
        <ele>89.6</ele>
        <time>2020-06-08T10:37:28Z</time>
      </trkpt>
      <trkpt lat="48.17779" lon="-3.8733">
        <ele>89.4</ele>
        <time>2020-06-08T10:37:29Z</time>
      </trkpt>
      <trkpt lat="48.17781" lon="-3.8734">
        <ele>89.1</ele>
        <time>2020-06-08T10:37:30Z</time>
      </trkpt>
      <trkpt lat="48.17783" lon="-3.87349">
        <ele>88.9</ele>
        <time>2020-06-08T10:37:31Z</time>
      </trkpt>
      <trkpt lat="48.17785" lon="-3.87359">
        <ele>88.7</ele>
        <time>2020-06-08T10:37:32Z</time>
      </trkpt>
      <trkpt lat="48.17787" lon="-3.87369">
        <ele>88.4</ele>
        <time>2020-06-08T10:37:33Z</time>
      </trkpt>
      <trkpt lat="48.17789" lon="-3.87379">
        <ele>88.1</ele>
        <time>2020-06-08T10:37:34Z</time>
      </trkpt>
      <trkpt lat="48.17791" lon="-3.8739">
        <ele>87.8</ele>
        <time>2020-06-08T10:37:35Z</time>
      </trkpt>
      <trkpt lat="48.17792" lon="-3.87402">
        <ele>87.5</ele>
        <time>2020-06-08T10:37:36Z</time>
      </trkpt>
      <trkpt lat="48.17793" lon="-3.87415">
        <ele>87.1</ele>
        <time>2020-06-08T10:37:37Z</time>
      </trkpt>
      <trkpt lat="48.17793" lon="-3.87427">
        <ele>86.7</ele>
        <time>2020-06-08T10:37:38Z</time>
      </trkpt>
      <trkpt lat="48.17791" lon="-3.8744">
        <ele>86.2</ele>
        <time>2020-06-08T10:37:39Z</time>
      </trkpt>
      <trkpt lat="48.17789" lon="-3.87453">
        <ele>85.8</ele>
        <time>2020-06-08T10:37:40Z</time>
      </trkpt>
      <trkpt lat="48.17787" lon="-3.87467">
        <ele>85.5</ele>
        <time>2020-06-08T10:37:41Z</time>
      </trkpt>
      <trkpt lat="48.17786" lon="-3.87481">
        <ele>85.2</ele>
        <time>2020-06-08T10:37:42Z</time>
      </trkpt>
      <trkpt lat="48.17785" lon="-3.87494">
        <ele>84.9</ele>
        <time>2020-06-08T10:37:43Z</time>
      </trkpt>
      <trkpt lat="48.17784" lon="-3.87507">
        <ele>84.6</ele>
        <time>2020-06-08T10:37:44Z</time>
      </trkpt>
      <trkpt lat="48.17785" lon="-3.87521">
        <ele>83.9</ele>
        <time>2020-06-08T10:37:45Z</time>
      </trkpt>
      <trkpt lat="48.17787" lon="-3.87535">
        <ele>83.1</ele>
        <time>2020-06-08T10:37:46Z</time>
      </trkpt>
      <trkpt lat="48.17789" lon="-3.87549">
        <ele>82.4</ele>
        <time>2020-06-08T10:37:47Z</time>
      </trkpt>
      <trkpt lat="48.17792" lon="-3.87563">
        <ele>81.7</ele>
        <time>2020-06-08T10:37:48Z</time>
      </trkpt>
      <trkpt lat="48.17794" lon="-3.87578">
        <ele>81.1</ele>
        <time>2020-06-08T10:37:49Z</time>
      </trkpt>
      <trkpt lat="48.17796" lon="-3.87593">
        <ele>80.5</ele>
        <time>2020-06-08T10:37:50Z</time>
      </trkpt>
      <trkpt lat="48.17798" lon="-3.87608">
        <ele>80</ele>
        <time>2020-06-08T10:37:51Z</time>
      </trkpt>
      <trkpt lat="48.178" lon="-3.87624">
        <ele>79.6</ele>
        <time>2020-06-08T10:37:52Z</time>
      </trkpt>
      <trkpt lat="48.17803" lon="-3.8764">
        <ele>79.1</ele>
        <time>2020-06-08T10:37:53Z</time>
      </trkpt>
      <trkpt lat="48.17806" lon="-3.87657">
        <ele>78.1</ele>
        <time>2020-06-08T10:37:54Z</time>
      </trkpt>
      <trkpt lat="48.17808" lon="-3.87674">
        <ele>77.1</ele>
        <time>2020-06-08T10:37:55Z</time>
      </trkpt>
      <trkpt lat="48.1781" lon="-3.87691">
        <ele>76.3</ele>
        <time>2020-06-08T10:37:56Z</time>
      </trkpt>
      <trkpt lat="48.17813" lon="-3.87707">
        <ele>75.5</ele>
        <time>2020-06-08T10:37:57Z</time>
      </trkpt>
      <trkpt lat="48.17816" lon="-3.87724">
        <ele>74.8</ele>
        <time>2020-06-08T10:37:58Z</time>
      </trkpt>
      <trkpt lat="48.17818" lon="-3.87741">
        <ele>74</ele>
        <time>2020-06-08T10:37:59Z</time>
      </trkpt>
      <trkpt lat="48.1782" lon="-3.87758">
        <ele>73.3</ele>
        <time>2020-06-08T10:38:00Z</time>
      </trkpt>
      <trkpt lat="48.17822" lon="-3.87776">
        <ele>72.5</ele>
        <time>2020-06-08T10:38:01Z</time>
      </trkpt>
      <trkpt lat="48.17824" lon="-3.87793">
        <ele>71.7</ele>
        <time>2020-06-08T10:38:02Z</time>
      </trkpt>
      <trkpt lat="48.17825" lon="-3.87811">
        <ele>71</ele>
        <time>2020-06-08T10:38:03Z</time>
      </trkpt>
      <trkpt lat="48.17825" lon="-3.87828">
        <ele>70.2</ele>
        <time>2020-06-08T10:38:04Z</time>
      </trkpt>
      <trkpt lat="48.17825" lon="-3.87846">
        <ele>68.9</ele>
        <time>2020-06-08T10:38:05Z</time>
      </trkpt>
      <trkpt lat="48.17824" lon="-3.87864">
        <ele>67.5</ele>
        <time>2020-06-08T10:38:06Z</time>
      </trkpt>
      <trkpt lat="48.17822" lon="-3.87882">
        <ele>66.1</ele>
        <time>2020-06-08T10:38:07Z</time>
      </trkpt>
      <trkpt lat="48.1782" lon="-3.87899">
        <ele>64.9</ele>
        <time>2020-06-08T10:38:08Z</time>
      </trkpt>
      <trkpt lat="48.17817" lon="-3.87916">
        <ele>63.8</ele>
        <time>2020-06-08T10:38:09Z</time>
      </trkpt>
      <trkpt lat="48.17815" lon="-3.87934">
        <ele>63</ele>
        <time>2020-06-08T10:38:10Z</time>
      </trkpt>
      <trkpt lat="48.17812" lon="-3.87951">
        <ele>62.2</ele>
        <time>2020-06-08T10:38:11Z</time>
      </trkpt>
      <trkpt lat="48.1781" lon="-3.87969">
        <ele>61.6</ele>
        <time>2020-06-08T10:38:12Z</time>
      </trkpt>
      <trkpt lat="48.17809" lon="-3.87986">
        <ele>61.2</ele>
        <time>2020-06-08T10:38:13Z</time>
      </trkpt>
      <trkpt lat="48.17809" lon="-3.88003">
        <ele>60.9</ele>
        <time>2020-06-08T10:38:14Z</time>
      </trkpt>
      <trkpt lat="48.1781" lon="-3.88019">
        <ele>60.6</ele>
        <time>2020-06-08T10:38:15Z</time>
      </trkpt>
      <trkpt lat="48.17811" lon="-3.88034">
        <ele>60.3</ele>
        <time>2020-06-08T10:38:16Z</time>
      </trkpt>
      <trkpt lat="48.17812" lon="-3.88048">
        <ele>60.2</ele>
        <time>2020-06-08T10:38:17Z</time>
      </trkpt>
      <trkpt lat="48.17815" lon="-3.88062">
        <ele>60.1</ele>
        <time>2020-06-08T10:38:18Z</time>
      </trkpt>
      <trkpt lat="48.17817" lon="-3.88075">
        <ele>60</ele>
        <time>2020-06-08T10:38:19Z</time>
      </trkpt>
      <trkpt lat="48.1782" lon="-3.88087">
        <ele>59.9</ele>
        <time>2020-06-08T10:38:20Z</time>
      </trkpt>
      <trkpt lat="48.17823" lon="-3.88099">
        <ele>59.9</ele>
        <time>2020-06-08T10:38:21Z</time>
      </trkpt>
      <trkpt lat="48.17826" lon="-3.8811">
        <ele>60</ele>
        <time>2020-06-08T10:38:22Z</time>
      </trkpt>
      <trkpt lat="48.17828" lon="-3.88119">
        <ele>60</ele>
        <time>2020-06-08T10:38:23Z</time>
      </trkpt>
      <trkpt lat="48.17831" lon="-3.88128">
        <ele>60.1</ele>
        <time>2020-06-08T10:38:24Z</time>
      </trkpt>
      <trkpt lat="48.17833" lon="-3.88137">
        <ele>60.3</ele>
        <time>2020-06-08T10:38:25Z</time>
      </trkpt>
      <trkpt lat="48.17835" lon="-3.88145">
        <ele>60.5</ele>
        <time>2020-06-08T10:38:26Z</time>
      </trkpt>
      <trkpt lat="48.17836" lon="-3.88152">
        <ele>60.7</ele>
        <time>2020-06-08T10:38:27Z</time>
      </trkpt>
      <trkpt lat="48.17838" lon="-3.88158">
        <ele>60.8</ele>
        <time>2020-06-08T10:38:28Z</time>
      </trkpt>
      <trkpt lat="48.17839" lon="-3.88163">
        <ele>61</ele>
        <time>2020-06-08T10:38:29Z</time>
      </trkpt>
      <trkpt lat="48.1784" lon="-3.88168">
        <ele>61.1</ele>
        <time>2020-06-08T10:38:30Z</time>
      </trkpt>
      <trkpt lat="48.1784" lon="-3.88172">
        <ele>61.2</ele>
        <time>2020-06-08T10:38:31Z</time>
      </trkpt>
      <trkpt lat="48.1784" lon="-3.88177">
        <ele>61.4</ele>
        <time>2020-06-08T10:38:32Z</time>
      </trkpt>
      <trkpt lat="48.1784" lon="-3.88179">
        <ele>61.4</ele>
        <time>2020-06-08T10:38:33Z</time>
      </trkpt>
      <trkpt lat="48.17841" lon="-3.88181">
        <ele>61.5</ele>
        <time>2020-06-08T10:38:34Z</time>
      </trkpt>
      <trkpt lat="48.17842" lon="-3.88183">
        <ele>61.5</ele>
        <time>2020-06-08T10:38:35Z</time>
      </trkpt>
      <trkpt lat="48.17842" lon="-3.88185">
        <ele>61.6</ele>
        <time>2020-06-08T10:38:36Z</time>
      </trkpt>
      <trkpt lat="48.17843" lon="-3.88187">
        <ele>61.6</ele>
        <time>2020-06-08T10:38:37Z</time>
      </trkpt>
      <trkpt lat="48.17843" lon="-3.8819">
        <ele>61.7</ele>
        <time>2020-06-08T10:38:38Z</time>
      </trkpt>
      <trkpt lat="48.17843" lon="-3.88192">
        <ele>61.8</ele>
        <time>2020-06-08T10:38:39Z</time>
      </trkpt>
      <trkpt lat="48.17844" lon="-3.88194">
        <ele>61.8</ele>
        <time>2020-06-08T10:38:40Z</time>
      </trkpt>
      <trkpt lat="48.17844" lon="-3.88197">
        <ele>61.9</ele>
        <time>2020-06-08T10:38:41Z</time>
      </trkpt>
      <trkpt lat="48.17845" lon="-3.88202">
        <ele>62</ele>
        <time>2020-06-08T10:38:42Z</time>
      </trkpt>
      <trkpt lat="48.17845" lon="-3.88203">
        <ele>62.1</ele>
        <time>2020-06-08T10:38:43Z</time>
      </trkpt>
      <trkpt lat="48.17846" lon="-3.88207">
        <ele>62.2</ele>
        <time>2020-06-08T10:38:44Z</time>
      </trkpt>
      <trkpt lat="48.17848" lon="-3.88211">
        <ele>62.3</ele>
        <time>2020-06-08T10:38:45Z</time>
      </trkpt>
      <trkpt lat="48.17848" lon="-3.88215">
        <ele>62.4</ele>
        <time>2020-06-08T10:38:46Z</time>
      </trkpt>
      <trkpt lat="48.17848" lon="-3.8822">
        <ele>62.5</ele>
        <time>2020-06-08T10:38:47Z</time>
      </trkpt>
      <trkpt lat="48.17849" lon="-3.88224">
        <ele>62.7</ele>
        <time>2020-06-08T10:38:48Z</time>
      </trkpt>
      <trkpt lat="48.1785" lon="-3.88229">
        <ele>62.8</ele>
        <time>2020-06-08T10:38:49Z</time>
      </trkpt>
      <trkpt lat="48.17851" lon="-3.88234">
        <ele>63</ele>
        <time>2020-06-08T10:38:50Z</time>
      </trkpt>
      <trkpt lat="48.17852" lon="-3.8824">
        <ele>63.1</ele>
        <time>2020-06-08T10:38:51Z</time>
      </trkpt>
      <trkpt lat="48.17853" lon="-3.88245">
        <ele>63.2</ele>
        <time>2020-06-08T10:38:52Z</time>
      </trkpt>
      <trkpt lat="48.17854" lon="-3.88251">
        <ele>63.4</ele>
        <time>2020-06-08T10:38:53Z</time>
      </trkpt>
      <trkpt lat="48.17855" lon="-3.88256">
        <ele>63.5</ele>
        <time>2020-06-08T10:38:54Z</time>
      </trkpt>
      <trkpt lat="48.17856" lon="-3.88262">
        <ele>63.6</ele>
        <time>2020-06-08T10:38:55Z</time>
      </trkpt>
      <trkpt lat="48.17857" lon="-3.88269">
        <ele>63.7</ele>
        <time>2020-06-08T10:38:56Z</time>
      </trkpt>
      <trkpt lat="48.17858" lon="-3.88275">
        <ele>63.8</ele>
        <time>2020-06-08T10:38:57Z</time>
      </trkpt>
      <trkpt lat="48.1786" lon="-3.88283">
        <ele>63.9</ele>
        <time>2020-06-08T10:38:58Z</time>
      </trkpt>
      <trkpt lat="48.17861" lon="-3.88292">
        <ele>63.9</ele>
        <time>2020-06-08T10:38:59Z</time>
      </trkpt>
      <trkpt lat="48.17862" lon="-3.88302">
        <ele>64.1</ele>
        <time>2020-06-08T10:39:00Z</time>
      </trkpt>
      <trkpt lat="48.17862" lon="-3.88312">
        <ele>65</ele>
        <time>2020-06-08T10:39:01Z</time>
      </trkpt>
      <trkpt lat="48.17862" lon="-3.88322">
        <ele>65.4</ele>
        <time>2020-06-08T10:39:02Z</time>
      </trkpt>
      <trkpt lat="48.17862" lon="-3.88329">
        <ele>65.5</ele>
        <time>2020-06-08T10:39:03Z</time>
      </trkpt>
      <trkpt lat="48.17863" lon="-3.88338">
        <ele>65.5</ele>
        <time>2020-06-08T10:39:04Z</time>
      </trkpt>
      <trkpt lat="48.17865" lon="-3.88349">
        <ele>65.3</ele>
        <time>2020-06-08T10:39:05Z</time>
      </trkpt>
      <trkpt lat="48.17865" lon="-3.88358">
        <ele>65.2</ele>
        <time>2020-06-08T10:39:06Z</time>
      </trkpt>
      <trkpt lat="48.17867" lon="-3.88369">
        <ele>65</ele>
        <time>2020-06-08T10:39:07Z</time>
      </trkpt>
      <trkpt lat="48.17869" lon="-3.8838">
        <ele>64.9</ele>
        <time>2020-06-08T10:39:08Z</time>
      </trkpt>
      <trkpt lat="48.1787" lon="-3.88389">
        <ele>64.9</ele>
        <time>2020-06-08T10:39:09Z</time>
      </trkpt>
      <trkpt lat="48.17872" lon="-3.88398">
        <ele>64.9</ele>
        <time>2020-06-08T10:39:10Z</time>
      </trkpt>
      <trkpt lat="48.17874" lon="-3.88407">
        <ele>64.9</ele>
        <time>2020-06-08T10:39:11Z</time>
      </trkpt>
      <trkpt lat="48.17876" lon="-3.88417">
        <ele>64.9</ele>
        <time>2020-06-08T10:39:12Z</time>
      </trkpt>
      <trkpt lat="48.17878" lon="-3.88427">
        <ele>64.9</ele>
        <time>2020-06-08T10:39:13Z</time>
      </trkpt>
      <trkpt lat="48.1788" lon="-3.88437">
        <ele>64.8</ele>
        <time>2020-06-08T10:39:14Z</time>
      </trkpt>
      <trkpt lat="48.17882" lon="-3.88446">
        <ele>64.7</ele>
        <time>2020-06-08T10:39:15Z</time>
      </trkpt>
      <trkpt lat="48.17884" lon="-3.88455">
        <ele>64.6</ele>
        <time>2020-06-08T10:39:16Z</time>
      </trkpt>
      <trkpt lat="48.17885" lon="-3.88463">
        <ele>64.5</ele>
        <time>2020-06-08T10:39:17Z</time>
      </trkpt>
      <trkpt lat="48.17886" lon="-3.88472">
        <ele>64.3</ele>
        <time>2020-06-08T10:39:18Z</time>
      </trkpt>
      <trkpt lat="48.17888" lon="-3.88479">
        <ele>64.2</ele>
        <time>2020-06-08T10:39:19Z</time>
      </trkpt>
      <trkpt lat="48.1789" lon="-3.88487">
        <ele>64</ele>
        <time>2020-06-08T10:39:20Z</time>
      </trkpt>
      <trkpt lat="48.17892" lon="-3.88496">
        <ele>63.9</ele>
        <time>2020-06-08T10:39:21Z</time>
      </trkpt>
      <trkpt lat="48.17894" lon="-3.88504">
        <ele>63.8</ele>
        <time>2020-06-08T10:39:22Z</time>
      </trkpt>
      <trkpt lat="48.17895" lon="-3.88514">
        <ele>63.6</ele>
        <time>2020-06-08T10:39:23Z</time>
      </trkpt>
      <trkpt lat="48.17897" lon="-3.88523">
        <ele>63.4</ele>
        <time>2020-06-08T10:39:24Z</time>
      </trkpt>
      <trkpt lat="48.179" lon="-3.88532">
        <ele>63.3</ele>
        <time>2020-06-08T10:39:25Z</time>
      </trkpt>
      <trkpt lat="48.17902" lon="-3.8854">
        <ele>63.2</ele>
        <time>2020-06-08T10:39:26Z</time>
      </trkpt>
      <trkpt lat="48.17903" lon="-3.88549">
        <ele>63</ele>
        <time>2020-06-08T10:39:27Z</time>
      </trkpt>
      <trkpt lat="48.17905" lon="-3.88556">
        <ele>62.9</ele>
        <time>2020-06-08T10:39:28Z</time>
      </trkpt>
      <trkpt lat="48.17907" lon="-3.88565">
        <ele>62.7</ele>
        <time>2020-06-08T10:39:29Z</time>
      </trkpt>
      <trkpt lat="48.17908" lon="-3.88571">
        <ele>62.6</ele>
        <time>2020-06-08T10:39:30Z</time>
      </trkpt>
      <trkpt lat="48.17909" lon="-3.88576">
        <ele>62.5</ele>
        <time>2020-06-08T10:39:31Z</time>
      </trkpt>
      <trkpt lat="48.1791" lon="-3.88582">
        <ele>62.4</ele>
        <time>2020-06-08T10:39:32Z</time>
      </trkpt>
      <trkpt lat="48.17911" lon="-3.88589">
        <ele>62.2</ele>
        <time>2020-06-08T10:39:33Z</time>
      </trkpt>
      <trkpt lat="48.17913" lon="-3.88595">
        <ele>62.1</ele>
        <time>2020-06-08T10:39:34Z</time>
      </trkpt>
      <trkpt lat="48.17914" lon="-3.88602">
        <ele>61.9</ele>
        <time>2020-06-08T10:39:35Z</time>
      </trkpt>
      <trkpt lat="48.17916" lon="-3.8861">
        <ele>61.8</ele>
        <time>2020-06-08T10:39:36Z</time>
      </trkpt>
      <trkpt lat="48.17917" lon="-3.88619">
        <ele>61.6</ele>
        <time>2020-06-08T10:39:37Z</time>
      </trkpt>
      <trkpt lat="48.17919" lon="-3.88626">
        <ele>61.5</ele>
        <time>2020-06-08T10:39:38Z</time>
      </trkpt>
      <trkpt lat="48.17921" lon="-3.88634">
        <ele>61.3</ele>
        <time>2020-06-08T10:39:39Z</time>
      </trkpt>
      <trkpt lat="48.17923" lon="-3.88643">
        <ele>61.1</ele>
        <time>2020-06-08T10:39:40Z</time>
      </trkpt>
      <trkpt lat="48.17924" lon="-3.88652">
        <ele>60.9</ele>
        <time>2020-06-08T10:39:41Z</time>
      </trkpt>
      <trkpt lat="48.17926" lon="-3.88661">
        <ele>60.8</ele>
        <time>2020-06-08T10:39:42Z</time>
      </trkpt>
      <trkpt lat="48.17928" lon="-3.8867">
        <ele>60.7</ele>
        <time>2020-06-08T10:39:43Z</time>
      </trkpt>
      <trkpt lat="48.17929" lon="-3.8868">
        <ele>60.5</ele>
        <time>2020-06-08T10:39:44Z</time>
      </trkpt>
      <trkpt lat="48.17931" lon="-3.88689">
        <ele>60.4</ele>
        <time>2020-06-08T10:39:45Z</time>
      </trkpt>
      <trkpt lat="48.17933" lon="-3.88699">
        <ele>60.2</ele>
        <time>2020-06-08T10:39:46Z</time>
      </trkpt>
      <trkpt lat="48.17934" lon="-3.88709">
        <ele>60</ele>
        <time>2020-06-08T10:39:47Z</time>
      </trkpt>
      <trkpt lat="48.17936" lon="-3.88717">
        <ele>59.8</ele>
        <time>2020-06-08T10:39:48Z</time>
      </trkpt>
      <trkpt lat="48.17936" lon="-3.88726">
        <ele>59.7</ele>
        <time>2020-06-08T10:39:49Z</time>
      </trkpt>
      <trkpt lat="48.17938" lon="-3.88735">
        <ele>59.6</ele>
        <time>2020-06-08T10:39:50Z</time>
      </trkpt>
      <trkpt lat="48.17939" lon="-3.88745">
        <ele>59.5</ele>
        <time>2020-06-08T10:39:51Z</time>
      </trkpt>
      <trkpt lat="48.1794" lon="-3.88754">
        <ele>59.4</ele>
        <time>2020-06-08T10:39:52Z</time>
      </trkpt>
      <trkpt lat="48.17941" lon="-3.88764">
        <ele>59.4</ele>
        <time>2020-06-08T10:39:53Z</time>
      </trkpt>
      <trkpt lat="48.17942" lon="-3.88771">
        <ele>59.4</ele>
        <time>2020-06-08T10:39:54Z</time>
      </trkpt>
      <trkpt lat="48.17944" lon="-3.88782">
        <ele>59.4</ele>
        <time>2020-06-08T10:39:55Z</time>
      </trkpt>
      <trkpt lat="48.17946" lon="-3.88791">
        <ele>59.6</ele>
        <time>2020-06-08T10:39:56Z</time>
      </trkpt>
      <trkpt lat="48.17947" lon="-3.88799">
        <ele>59.5</ele>
        <time>2020-06-08T10:39:57Z</time>
      </trkpt>
      <trkpt lat="48.17947" lon="-3.88807">
        <ele>59.4</ele>
        <time>2020-06-08T10:39:58Z</time>
      </trkpt>
      <trkpt lat="48.17948" lon="-3.88816">
        <ele>59.2</ele>
        <time>2020-06-08T10:39:59Z</time>
      </trkpt>
      <trkpt lat="48.17948" lon="-3.88825">
        <ele>59</ele>
        <time>2020-06-08T10:40:00Z</time>
      </trkpt>
      <trkpt lat="48.17949" lon="-3.88834">
        <ele>58.7</ele>
        <time>2020-06-08T10:40:01Z</time>
      </trkpt>
      <trkpt lat="48.1795" lon="-3.88846">
        <ele>58.4</ele>
        <time>2020-06-08T10:40:02Z</time>
      </trkpt>
      <trkpt lat="48.1795" lon="-3.88856">
        <ele>58.2</ele>
        <time>2020-06-08T10:40:03Z</time>
      </trkpt>
      <trkpt lat="48.17951" lon="-3.88864">
        <ele>58</ele>
        <time>2020-06-08T10:40:04Z</time>
      </trkpt>
      <trkpt lat="48.17951" lon="-3.88874">
        <ele>57.7</ele>
        <time>2020-06-08T10:40:05Z</time>
      </trkpt>
      <trkpt lat="48.17952" lon="-3.88883">
        <ele>57.5</ele>
        <time>2020-06-08T10:40:06Z</time>
      </trkpt>
      <trkpt lat="48.17953" lon="-3.88893">
        <ele>57.3</ele>
        <time>2020-06-08T10:40:07Z</time>
      </trkpt>
      <trkpt lat="48.17954" lon="-3.88903">
        <ele>57.1</ele>
        <time>2020-06-08T10:40:08Z</time>
      </trkpt>
      <trkpt lat="48.17955" lon="-3.88912">
        <ele>56.8</ele>
        <time>2020-06-08T10:40:09Z</time>
      </trkpt>
      <trkpt lat="48.17955" lon="-3.88921">
        <ele>56.6</ele>
        <time>2020-06-08T10:40:10Z</time>
      </trkpt>
      <trkpt lat="48.17956" lon="-3.88931">
        <ele>56.4</ele>
        <time>2020-06-08T10:40:11Z</time>
      </trkpt>
      <trkpt lat="48.17957" lon="-3.88941">
        <ele>56.2</ele>
        <time>2020-06-08T10:40:12Z</time>
      </trkpt>
      <trkpt lat="48.17957" lon="-3.88951">
        <ele>56</ele>
        <time>2020-06-08T10:40:13Z</time>
      </trkpt>
      <trkpt lat="48.17958" lon="-3.88961">
        <ele>55.7</ele>
        <time>2020-06-08T10:40:14Z</time>
      </trkpt>
      <trkpt lat="48.17959" lon="-3.88972">
        <ele>55.5</ele>
        <time>2020-06-08T10:40:15Z</time>
      </trkpt>
      <trkpt lat="48.17959" lon="-3.88981">
        <ele>55.3</ele>
        <time>2020-06-08T10:40:16Z</time>
      </trkpt>
      <trkpt lat="48.1796" lon="-3.88991">
        <ele>55.1</ele>
        <time>2020-06-08T10:40:17Z</time>
      </trkpt>
      <trkpt lat="48.17961" lon="-3.89002">
        <ele>54.9</ele>
        <time>2020-06-08T10:40:18Z</time>
      </trkpt>
      <trkpt lat="48.17961" lon="-3.89012">
        <ele>54.6</ele>
        <time>2020-06-08T10:40:19Z</time>
      </trkpt>
      <trkpt lat="48.17962" lon="-3.89022">
        <ele>54.4</ele>
        <time>2020-06-08T10:40:20Z</time>
      </trkpt>
      <trkpt lat="48.17963" lon="-3.89033">
        <ele>54.1</ele>
        <time>2020-06-08T10:40:21Z</time>
      </trkpt>
      <trkpt lat="48.17963" lon="-3.89044">
        <ele>53.9</ele>
        <time>2020-06-08T10:40:22Z</time>
      </trkpt>
      <trkpt lat="48.17964" lon="-3.89055">
        <ele>53.6</ele>
        <time>2020-06-08T10:40:23Z</time>
      </trkpt>
      <trkpt lat="48.17964" lon="-3.89066">
        <ele>53.3</ele>
        <time>2020-06-08T10:40:24Z</time>
      </trkpt>
      <trkpt lat="48.17965" lon="-3.89078">
        <ele>53</ele>
        <time>2020-06-08T10:40:25Z</time>
      </trkpt>
      <trkpt lat="48.17965" lon="-3.8909">
        <ele>52.7</ele>
        <time>2020-06-08T10:40:26Z</time>
      </trkpt>
      <trkpt lat="48.17965" lon="-3.89101">
        <ele>52.4</ele>
        <time>2020-06-08T10:40:27Z</time>
      </trkpt>
      <trkpt lat="48.17966" lon="-3.89112">
        <ele>52.1</ele>
        <time>2020-06-08T10:40:28Z</time>
      </trkpt>
      <trkpt lat="48.17966" lon="-3.89121">
        <ele>51.9</ele>
        <time>2020-06-08T10:40:29Z</time>
      </trkpt>
      <trkpt lat="48.17966" lon="-3.89131">
        <ele>51.6</ele>
        <time>2020-06-08T10:40:30Z</time>
      </trkpt>
      <trkpt lat="48.17966" lon="-3.89138">
        <ele>51.5</ele>
        <time>2020-06-08T10:40:31Z</time>
      </trkpt>
      <trkpt lat="48.17965" lon="-3.89145">
        <ele>51.3</ele>
        <time>2020-06-08T10:40:32Z</time>
      </trkpt>
      <trkpt lat="48.17965" lon="-3.8915">
        <ele>51.2</ele>
        <time>2020-06-08T10:40:33Z</time>
      </trkpt>
      <trkpt lat="48.17962" lon="-3.89154">
        <ele>50.9</ele>
        <time>2020-06-08T10:40:34Z</time>
      </trkpt>
      <trkpt lat="48.17961" lon="-3.89155">
        <ele>50.8</ele>
        <time>2020-06-08T10:40:35Z</time>
      </trkpt>
      <trkpt lat="48.17962" lon="-3.89157">
        <ele>50.7</ele>
        <time>2020-06-08T10:40:36Z</time>
      </trkpt>
      <trkpt lat="48.17962" lon="-3.89157">
        <ele>50.6</ele>
        <time>2020-06-08T10:40:37Z</time>
      </trkpt>
      <trkpt lat="48.17963" lon="-3.89157">
        <ele>50.5</ele>
        <time>2020-06-08T10:40:38Z</time>
      </trkpt>
      <trkpt lat="48.17964" lon="-3.89157">
        <ele>50.5</ele>
        <time>2020-06-08T10:40:39Z</time>
      </trkpt>
      <trkpt lat="48.17964" lon="-3.89157">
        <ele>50.4</ele>
        <time>2020-06-08T10:40:40Z</time>
      </trkpt>
      <trkpt lat="48.17965" lon="-3.89157">
        <ele>50.3</ele>
        <time>2020-06-08T10:40:41Z</time>
      </trkpt>
      <trkpt lat="48.17966" lon="-3.89157">
        <ele>50.3</ele>
        <time>2020-06-08T10:40:42Z</time>
      </trkpt>
      <trkpt lat="48.17966" lon="-3.89157">
        <ele>50.2</ele>
        <time>2020-06-08T10:40:43Z</time>
      </trkpt>
      <trkpt lat="48.17967" lon="-3.89158">
        <ele>50.1</ele>
        <time>2020-06-08T10:40:44Z</time>
      </trkpt>
      <trkpt lat="48.17968" lon="-3.89158">
        <ele>50</ele>
        <time>2020-06-08T10:40:45Z</time>
      </trkpt>
      <trkpt lat="48.17968" lon="-3.89158">
        <ele>50</ele>
        <time>2020-06-08T10:40:46Z</time>
      </trkpt>
      <trkpt lat="48.17969" lon="-3.89158">
        <ele>49.9</ele>
        <time>2020-06-08T10:40:47Z</time>
      </trkpt>
      <trkpt lat="48.17969" lon="-3.89158">
        <ele>49.8</ele>
        <time>2020-06-08T10:40:48Z</time>
      </trkpt>
      <trkpt lat="48.1797" lon="-3.89158">
        <ele>49.7</ele>
        <time>2020-06-08T10:41:07Z</time>
      </trkpt>
      <trkpt lat="48.17971" lon="-3.89158">
        <ele>49.6</ele>
        <time>2020-06-08T10:41:08Z</time>
      </trkpt>
      <trkpt lat="48.17972" lon="-3.89162">
        <ele>49.3</ele>
        <time>2020-06-08T10:41:09Z</time>
      </trkpt>
      <trkpt lat="48.17974" lon="-3.89167">
        <ele>48.8</ele>
        <time>2020-06-08T10:41:10Z</time>
      </trkpt>
      <trkpt lat="48.17978" lon="-3.89172">
        <ele>48.2</ele>
        <time>2020-06-08T10:41:11Z</time>
      </trkpt>
      <trkpt lat="48.1798" lon="-3.8918">
        <ele>47.5</ele>
        <time>2020-06-08T10:41:12Z</time>
      </trkpt>
      <trkpt lat="48.17984" lon="-3.89188">
        <ele>46.6</ele>
        <time>2020-06-08T10:41:13Z</time>
      </trkpt>
      <trkpt lat="48.17988" lon="-3.89197">
        <ele>45.7</ele>
        <time>2020-06-08T10:41:14Z</time>
      </trkpt>
      <trkpt lat="48.17993" lon="-3.89207">
        <ele>44.8</ele>
        <time>2020-06-08T10:41:15Z</time>
      </trkpt>
      <trkpt lat="48.17998" lon="-3.89219">
        <ele>43.8</ele>
        <time>2020-06-08T10:41:16Z</time>
      </trkpt>
      <trkpt lat="48.18003" lon="-3.8923">
        <ele>42.8</ele>
        <time>2020-06-08T10:41:17Z</time>
      </trkpt>
      <trkpt lat="48.1801" lon="-3.89242">
        <ele>41.8</ele>
        <time>2020-06-08T10:41:18Z</time>
      </trkpt>
      <trkpt lat="48.18015" lon="-3.89255">
        <ele>40.8</ele>
        <time>2020-06-08T10:41:19Z</time>
      </trkpt>
      <trkpt lat="48.18022" lon="-3.89267">
        <ele>39.9</ele>
        <time>2020-06-08T10:41:20Z</time>
      </trkpt>
      <trkpt lat="48.18028" lon="-3.89281">
        <ele>39</ele>
        <time>2020-06-08T10:41:21Z</time>
      </trkpt>
      <trkpt lat="48.18035" lon="-3.89294">
        <ele>38.3</ele>
        <time>2020-06-08T10:41:22Z</time>
      </trkpt>
      <trkpt lat="48.18042" lon="-3.89307">
        <ele>37.6</ele>
        <time>2020-06-08T10:41:23Z</time>
      </trkpt>
      <trkpt lat="48.1805" lon="-3.8932">
        <ele>37.2</ele>
        <time>2020-06-08T10:41:24Z</time>
      </trkpt>
      <trkpt lat="48.18058" lon="-3.89332">
        <ele>37</ele>
        <time>2020-06-08T10:41:25Z</time>
      </trkpt>
      <trkpt lat="48.18065" lon="-3.89346">
        <ele>38.4</ele>
        <time>2020-06-08T10:41:26Z</time>
      </trkpt>
      <trkpt lat="48.18073" lon="-3.89359">
        <ele>36.8</ele>
        <time>2020-06-08T10:41:27Z</time>
      </trkpt>
      <trkpt lat="48.1808" lon="-3.89373">
        <ele>35.6</ele>
        <time>2020-06-08T10:41:28Z</time>
      </trkpt>
      <trkpt lat="48.18086" lon="-3.89388">
        <ele>34.7</ele>
        <time>2020-06-08T10:41:29Z</time>
      </trkpt>
      <trkpt lat="48.18094" lon="-3.89401">
        <ele>33.9</ele>
        <time>2020-06-08T10:41:30Z</time>
      </trkpt>
      <trkpt lat="48.18101" lon="-3.89414">
        <ele>33.5</ele>
        <time>2020-06-08T10:41:31Z</time>
      </trkpt>
      <trkpt lat="48.18108" lon="-3.89428">
        <ele>33.1</ele>
        <time>2020-06-08T10:41:32Z</time>
      </trkpt>
      <trkpt lat="48.18115" lon="-3.89441">
        <ele>32.7</ele>
        <time>2020-06-08T10:41:33Z</time>
      </trkpt>
      <trkpt lat="48.18121" lon="-3.89454">
        <ele>32.5</ele>
        <time>2020-06-08T10:41:34Z</time>
      </trkpt>
      <trkpt lat="48.18129" lon="-3.89465">
        <ele>32.5</ele>
        <time>2020-06-08T10:41:35Z</time>
      </trkpt>
      <trkpt lat="48.18137" lon="-3.89475">
        <ele>32.6</ele>
        <time>2020-06-08T10:41:36Z</time>
      </trkpt>
      <trkpt lat="48.18146" lon="-3.89482">
        <ele>32.8</ele>
        <time>2020-06-08T10:41:37Z</time>
      </trkpt>
      <trkpt lat="48.18154" lon="-3.89489">
        <ele>32.9</ele>
        <time>2020-06-08T10:41:38Z</time>
      </trkpt>
      <trkpt lat="48.1816" lon="-3.89497">
        <ele>33.1</ele>
        <time>2020-06-08T10:41:39Z</time>
      </trkpt>
      <trkpt lat="48.18166" lon="-3.89503">
        <ele>33.3</ele>
        <time>2020-06-08T10:41:40Z</time>
      </trkpt>
      <trkpt lat="48.18171" lon="-3.89508">
        <ele>34.1</ele>
        <time>2020-06-08T10:41:41Z</time>
      </trkpt>
      <trkpt lat="48.18175" lon="-3.89514">
        <ele>34.7</ele>
        <time>2020-06-08T10:41:42Z</time>
      </trkpt>
      <trkpt lat="48.18178" lon="-3.89519">
        <ele>35.2</ele>
        <time>2020-06-08T10:41:43Z</time>
      </trkpt>
      <trkpt lat="48.18181" lon="-3.89524">
        <ele>35.6</ele>
        <time>2020-06-08T10:41:44Z</time>
      </trkpt>
      <trkpt lat="48.18183" lon="-3.89529">
        <ele>36</ele>
        <time>2020-06-08T10:41:45Z</time>
      </trkpt>
      <trkpt lat="48.18185" lon="-3.89533">
        <ele>36.4</ele>
        <time>2020-06-08T10:41:46Z</time>
      </trkpt>
      <trkpt lat="48.18187" lon="-3.89536">
        <ele>36.7</ele>
        <time>2020-06-08T10:41:47Z</time>
      </trkpt>
      <trkpt lat="48.18188" lon="-3.8954">
        <ele>37</ele>
        <time>2020-06-08T10:41:48Z</time>
      </trkpt>
      <trkpt lat="48.1819" lon="-3.89543">
        <ele>37.4</ele>
        <time>2020-06-08T10:41:49Z</time>
      </trkpt>
      <trkpt lat="48.18191" lon="-3.89548">
        <ele>37.9</ele>
        <time>2020-06-08T10:41:50Z</time>
      </trkpt>
      <trkpt lat="48.18192" lon="-3.8955">
        <ele>38</ele>
        <time>2020-06-08T10:41:51Z</time>
      </trkpt>
      <trkpt lat="48.18194" lon="-3.89555">
        <ele>38.5</ele>
        <time>2020-06-08T10:41:52Z</time>
      </trkpt>
      <trkpt lat="48.18194" lon="-3.89556">
        <ele>38.7</ele>
        <time>2020-06-08T10:41:53Z</time>
      </trkpt>
      <trkpt lat="48.18196" lon="-3.8956">
        <ele>39.1</ele>
        <time>2020-06-08T10:41:54Z</time>
      </trkpt>
      <trkpt lat="48.18198" lon="-3.89564">
        <ele>39.5</ele>
        <time>2020-06-08T10:41:55Z</time>
      </trkpt>
      <trkpt lat="48.18199" lon="-3.89565">
        <ele>39.7</ele>
        <time>2020-06-08T10:41:56Z</time>
      </trkpt>
      <trkpt lat="48.18202" lon="-3.89568">
        <ele>40.1</ele>
        <time>2020-06-08T10:41:57Z</time>
      </trkpt>
      <trkpt lat="48.18202" lon="-3.89569">
        <ele>40.3</ele>
        <time>2020-06-08T10:41:58Z</time>
      </trkpt>
      <trkpt lat="48.18206" lon="-3.89572">
        <ele>40.8</ele>
        <time>2020-06-08T10:41:59Z</time>
      </trkpt>
      <trkpt lat="48.18207" lon="-3.89573">
        <ele>40.9</ele>
        <time>2020-06-08T10:42:00Z</time>
      </trkpt>
      <trkpt lat="48.1821" lon="-3.89574">
        <ele>41.4</ele>
        <time>2020-06-08T10:42:01Z</time>
      </trkpt>
      <trkpt lat="48.18211" lon="-3.89573">
        <ele>41.5</ele>
        <time>2020-06-08T10:42:02Z</time>
      </trkpt>
      <trkpt lat="48.18213" lon="-3.8957">
        <ele>41.8</ele>
        <time>2020-06-08T10:42:03Z</time>
      </trkpt>
      <trkpt lat="48.18214" lon="-3.89569">
        <ele>42.1</ele>
        <time>2020-06-08T10:42:04Z</time>
      </trkpt>
      <trkpt lat="48.18216" lon="-3.89566">
        <ele>42.8</ele>
        <time>2020-06-08T10:42:05Z</time>
      </trkpt>
      <trkpt lat="48.18217" lon="-3.89565">
        <ele>43</ele>
        <time>2020-06-08T10:42:06Z</time>
      </trkpt>
      <trkpt lat="48.18221" lon="-3.89563">
        <ele>43.8</ele>
        <time>2020-06-08T10:42:07Z</time>
      </trkpt>
      <trkpt lat="48.18222" lon="-3.89562">
        <ele>44.1</ele>
        <time>2020-06-08T10:42:08Z</time>
      </trkpt>
      <trkpt lat="48.18225" lon="-3.8956">
        <ele>44.8</ele>
        <time>2020-06-08T10:42:09Z</time>
      </trkpt>
      <trkpt lat="48.18229" lon="-3.89557">
        <ele>45.5</ele>
        <time>2020-06-08T10:42:10Z</time>
      </trkpt>
      <trkpt lat="48.18232" lon="-3.89555">
        <ele>46</ele>
        <time>2020-06-08T10:42:11Z</time>
      </trkpt>
      <trkpt lat="48.18235" lon="-3.89553">
        <ele>46.4</ele>
        <time>2020-06-08T10:42:12Z</time>
      </trkpt>
      <trkpt lat="48.18238" lon="-3.89552">
        <ele>46.8</ele>
        <time>2020-06-08T10:42:13Z</time>
      </trkpt>
      <trkpt lat="48.18239" lon="-3.89552">
        <ele>47</ele>
        <time>2020-06-08T10:42:14Z</time>
      </trkpt>
      <trkpt lat="48.18243" lon="-3.89552">
        <ele>47.4</ele>
        <time>2020-06-08T10:42:15Z</time>
      </trkpt>
      <trkpt lat="48.18244" lon="-3.89552">
        <ele>47.5</ele>
        <time>2020-06-08T10:42:16Z</time>
      </trkpt>
      <trkpt lat="48.18247" lon="-3.89552">
        <ele>47.8</ele>
        <time>2020-06-08T10:42:17Z</time>
      </trkpt>
      <trkpt lat="48.18248" lon="-3.89552">
        <ele>47.9</ele>
        <time>2020-06-08T10:42:18Z</time>
      </trkpt>
      <trkpt lat="48.18251" lon="-3.89553">
        <ele>48.2</ele>
        <time>2020-06-08T10:42:19Z</time>
      </trkpt>
      <trkpt lat="48.18254" lon="-3.89554">
        <ele>48.4</ele>
        <time>2020-06-08T10:42:20Z</time>
      </trkpt>
      <trkpt lat="48.18257" lon="-3.89555">
        <ele>48.7</ele>
        <time>2020-06-08T10:42:21Z</time>
      </trkpt>
      <trkpt lat="48.18259" lon="-3.89556">
        <ele>48.9</ele>
        <time>2020-06-08T10:42:22Z</time>
      </trkpt>
      <trkpt lat="48.18264" lon="-3.89555">
        <ele>49.2</ele>
        <time>2020-06-08T10:42:23Z</time>
      </trkpt>
      <trkpt lat="48.18265" lon="-3.89554">
        <ele>49.3</ele>
        <time>2020-06-08T10:42:24Z</time>
      </trkpt>
      <trkpt lat="48.18269" lon="-3.89555">
        <ele>49.5</ele>
        <time>2020-06-08T10:42:25Z</time>
      </trkpt>
      <trkpt lat="48.1827" lon="-3.89555">
        <ele>49.6</ele>
        <time>2020-06-08T10:42:26Z</time>
      </trkpt>
      <trkpt lat="48.18274" lon="-3.89555">
        <ele>49.8</ele>
        <time>2020-06-08T10:42:27Z</time>
      </trkpt>
      <trkpt lat="48.18275" lon="-3.89556">
        <ele>49.8</ele>
        <time>2020-06-08T10:42:28Z</time>
      </trkpt>
      <trkpt lat="48.18278" lon="-3.89555">
        <ele>50</ele>
        <time>2020-06-08T10:42:29Z</time>
      </trkpt>
      <trkpt lat="48.1828" lon="-3.89554">
        <ele>50</ele>
        <time>2020-06-08T10:42:30Z</time>
      </trkpt>
      <trkpt lat="48.18282" lon="-3.89552">
        <ele>50.2</ele>
        <time>2020-06-08T10:42:31Z</time>
      </trkpt>
      <trkpt lat="48.18286" lon="-3.8955">
        <ele>50.3</ele>
        <time>2020-06-08T10:42:32Z</time>
      </trkpt>
      <trkpt lat="48.18288" lon="-3.89547">
        <ele>50.4</ele>
        <time>2020-06-08T10:42:33Z</time>
      </trkpt>
      <trkpt lat="48.18291" lon="-3.89545">
        <ele>50.5</ele>
        <time>2020-06-08T10:42:34Z</time>
      </trkpt>
      <trkpt lat="48.18293" lon="-3.89541">
        <ele>50.6</ele>
        <time>2020-06-08T10:42:35Z</time>
      </trkpt>
      <trkpt lat="48.18295" lon="-3.89537">
        <ele>50.7</ele>
        <time>2020-06-08T10:42:36Z</time>
      </trkpt>
      <trkpt lat="48.18298" lon="-3.89533">
        <ele>50.8</ele>
        <time>2020-06-08T10:42:37Z</time>
      </trkpt>
      <trkpt lat="48.183" lon="-3.89529">
        <ele>50.8</ele>
        <time>2020-06-08T10:42:38Z</time>
      </trkpt>
      <trkpt lat="48.18302" lon="-3.89525">
        <ele>50.9</ele>
        <time>2020-06-08T10:42:39Z</time>
      </trkpt>
      <trkpt lat="48.18304" lon="-3.89521">
        <ele>51</ele>
        <time>2020-06-08T10:42:40Z</time>
      </trkpt>
      <trkpt lat="48.18306" lon="-3.89516">
        <ele>51.1</ele>
        <time>2020-06-08T10:42:41Z</time>
      </trkpt>
      <trkpt lat="48.18307" lon="-3.89514">
        <ele>51.1</ele>
        <time>2020-06-08T10:42:42Z</time>
      </trkpt>
      <trkpt lat="48.1831" lon="-3.8951">
        <ele>51.2</ele>
        <time>2020-06-08T10:42:43Z</time>
      </trkpt>
      <trkpt lat="48.18311" lon="-3.89508">
        <ele>51.2</ele>
        <time>2020-06-08T10:42:44Z</time>
      </trkpt>
      <trkpt lat="48.18314" lon="-3.89505">
        <ele>51.3</ele>
        <time>2020-06-08T10:42:45Z</time>
      </trkpt>
      <trkpt lat="48.18317" lon="-3.89502">
        <ele>51.4</ele>
        <time>2020-06-08T10:42:46Z</time>
      </trkpt>
      <trkpt lat="48.18321" lon="-3.895">
        <ele>51.4</ele>
        <time>2020-06-08T10:42:47Z</time>
      </trkpt>
      <trkpt lat="48.18324" lon="-3.89498">
        <ele>51.5</ele>
        <time>2020-06-08T10:42:48Z</time>
      </trkpt>
      <trkpt lat="48.18327" lon="-3.89497">
        <ele>51.5</ele>
        <time>2020-06-08T10:42:49Z</time>
      </trkpt>
      <trkpt lat="48.18329" lon="-3.89496">
        <ele>51.6</ele>
        <time>2020-06-08T10:42:50Z</time>
      </trkpt>
      <trkpt lat="48.18333" lon="-3.89496">
        <ele>51.6</ele>
        <time>2020-06-08T10:42:51Z</time>
      </trkpt>
      <trkpt lat="48.18335" lon="-3.89496">
        <ele>51.7</ele>
        <time>2020-06-08T10:42:52Z</time>
      </trkpt>
      <trkpt lat="48.18339" lon="-3.89496">
        <ele>51.8</ele>
        <time>2020-06-08T10:42:53Z</time>
      </trkpt>
      <trkpt lat="48.18341" lon="-3.89496">
        <ele>51.8</ele>
        <time>2020-06-08T10:42:54Z</time>
      </trkpt>
      <trkpt lat="48.18345" lon="-3.89496">
        <ele>51.9</ele>
        <time>2020-06-08T10:42:55Z</time>
      </trkpt>
      <trkpt lat="48.18346" lon="-3.89495">
        <ele>51.9</ele>
        <time>2020-06-08T10:42:56Z</time>
      </trkpt>
      <trkpt lat="48.18349" lon="-3.89495">
        <ele>51.9</ele>
        <time>2020-06-08T10:42:57Z</time>
      </trkpt>
      <trkpt lat="48.1835" lon="-3.89495">
        <ele>52</ele>
        <time>2020-06-08T10:42:58Z</time>
      </trkpt>
      <trkpt lat="48.18354" lon="-3.89495">
        <ele>52</ele>
        <time>2020-06-08T10:42:59Z</time>
      </trkpt>
      <trkpt lat="48.18357" lon="-3.89495">
        <ele>52.1</ele>
        <time>2020-06-08T10:43:00Z</time>
      </trkpt>
      <trkpt lat="48.1836" lon="-3.89494">
        <ele>52.1</ele>
        <time>2020-06-08T10:43:01Z</time>
      </trkpt>
      <trkpt lat="48.18362" lon="-3.89494">
        <ele>52.2</ele>
        <time>2020-06-08T10:43:02Z</time>
      </trkpt>
      <trkpt lat="48.18366" lon="-3.89494">
        <ele>52.2</ele>
        <time>2020-06-08T10:43:03Z</time>
      </trkpt>
      <trkpt lat="48.18369" lon="-3.89493">
        <ele>52.2</ele>
        <time>2020-06-08T10:43:04Z</time>
      </trkpt>
      <trkpt lat="48.18372" lon="-3.89492">
        <ele>52.3</ele>
        <time>2020-06-08T10:43:05Z</time>
      </trkpt>
      <trkpt lat="48.18376" lon="-3.89492">
        <ele>52.3</ele>
        <time>2020-06-08T10:43:06Z</time>
      </trkpt>
      <trkpt lat="48.18379" lon="-3.89491">
        <ele>52.3</ele>
        <time>2020-06-08T10:43:07Z</time>
      </trkpt>
      <trkpt lat="48.18383" lon="-3.89491">
        <ele>52.4</ele>
        <time>2020-06-08T10:43:08Z</time>
      </trkpt>
      <trkpt lat="48.18386" lon="-3.89491">
        <ele>52.4</ele>
        <time>2020-06-08T10:43:09Z</time>
      </trkpt>
      <trkpt lat="48.1839" lon="-3.8949">
        <ele>52.4</ele>
        <time>2020-06-08T10:43:10Z</time>
      </trkpt>
      <trkpt lat="48.18393" lon="-3.89489">
        <ele>52.4</ele>
        <time>2020-06-08T10:43:11Z</time>
      </trkpt>
      <trkpt lat="48.18396" lon="-3.89488">
        <ele>52.5</ele>
        <time>2020-06-08T10:43:12Z</time>
      </trkpt>
      <trkpt lat="48.18399" lon="-3.89489">
        <ele>52.5</ele>
        <time>2020-06-08T10:43:13Z</time>
      </trkpt>
      <trkpt lat="48.18402" lon="-3.89489">
        <ele>52.5</ele>
        <time>2020-06-08T10:43:14Z</time>
      </trkpt>
      <trkpt lat="48.18406" lon="-3.89489">
        <ele>52.5</ele>
        <time>2020-06-08T10:43:15Z</time>
      </trkpt>
      <trkpt lat="48.18409" lon="-3.89488">
        <ele>52.5</ele>
        <time>2020-06-08T10:43:16Z</time>
      </trkpt>
      <trkpt lat="48.18412" lon="-3.89486">
        <ele>52.5</ele>
        <time>2020-06-08T10:43:17Z</time>
      </trkpt>
      <trkpt lat="48.18415" lon="-3.89485">
        <ele>52.5</ele>
        <time>2020-06-08T10:43:18Z</time>
      </trkpt>
      <trkpt lat="48.18419" lon="-3.89483">
        <ele>52.5</ele>
        <time>2020-06-08T10:43:19Z</time>
      </trkpt>
      <trkpt lat="48.18422" lon="-3.89483">
        <ele>52.5</ele>
        <time>2020-06-08T10:43:20Z</time>
      </trkpt>
      <trkpt lat="48.18425" lon="-3.89482">
        <ele>52.5</ele>
        <time>2020-06-08T10:43:21Z</time>
      </trkpt>
      <trkpt lat="48.18428" lon="-3.89483">
        <ele>52.5</ele>
        <time>2020-06-08T10:43:22Z</time>
      </trkpt>
      <trkpt lat="48.18433" lon="-3.89483">
        <ele>52.5</ele>
        <time>2020-06-08T10:43:23Z</time>
      </trkpt>
      <trkpt lat="48.18437" lon="-3.89484">
        <ele>52.5</ele>
        <time>2020-06-08T10:43:24Z</time>
      </trkpt>
      <trkpt lat="48.18442" lon="-3.89482">
        <ele>52.5</ele>
        <time>2020-06-08T10:43:25Z</time>
      </trkpt>
      <trkpt lat="48.18446" lon="-3.89483">
        <ele>52.5</ele>
        <time>2020-06-08T10:43:26Z</time>
      </trkpt>
      <trkpt lat="48.18449" lon="-3.89482">
        <ele>52.5</ele>
        <time>2020-06-08T10:43:27Z</time>
      </trkpt>
      <trkpt lat="48.18453" lon="-3.89481">
        <ele>52.5</ele>
        <time>2020-06-08T10:43:28Z</time>
      </trkpt>
      <trkpt lat="48.18455" lon="-3.8948">
        <ele>52.5</ele>
        <time>2020-06-08T10:43:29Z</time>
      </trkpt>
      <trkpt lat="48.18458" lon="-3.89479">
        <ele>52.5</ele>
        <time>2020-06-08T10:43:30Z</time>
      </trkpt>
      <trkpt lat="48.18462" lon="-3.89479">
        <ele>52.5</ele>
        <time>2020-06-08T10:43:31Z</time>
      </trkpt>
      <trkpt lat="48.18465" lon="-3.89478">
        <ele>52.6</ele>
        <time>2020-06-08T10:43:32Z</time>
      </trkpt>
      <trkpt lat="48.18469" lon="-3.89478">
        <ele>52.6</ele>
        <time>2020-06-08T10:43:33Z</time>
      </trkpt>
      <trkpt lat="48.18473" lon="-3.89478">
        <ele>52.6</ele>
        <time>2020-06-08T10:43:34Z</time>
      </trkpt>
      <trkpt lat="48.18477" lon="-3.89479">
        <ele>52.6</ele>
        <time>2020-06-08T10:43:35Z</time>
      </trkpt>
      <trkpt lat="48.18482" lon="-3.89479">
        <ele>52.6</ele>
        <time>2020-06-08T10:43:36Z</time>
      </trkpt>
      <trkpt lat="48.18486" lon="-3.89479">
        <ele>52.6</ele>
        <time>2020-06-08T10:43:37Z</time>
      </trkpt>
      <trkpt lat="48.1849" lon="-3.89479">
        <ele>52.7</ele>
        <time>2020-06-08T10:43:38Z</time>
      </trkpt>
      <trkpt lat="48.18494" lon="-3.89481">
        <ele>52.7</ele>
        <time>2020-06-08T10:43:39Z</time>
      </trkpt>
      <trkpt lat="48.18499" lon="-3.89481">
        <ele>52.8</ele>
        <time>2020-06-08T10:43:40Z</time>
      </trkpt>
      <trkpt lat="48.18502" lon="-3.89483">
        <ele>52.8</ele>
        <time>2020-06-08T10:43:41Z</time>
      </trkpt>
      <trkpt lat="48.18506" lon="-3.89484">
        <ele>52.8</ele>
        <time>2020-06-08T10:43:42Z</time>
      </trkpt>
      <trkpt lat="48.18509" lon="-3.89485">
        <ele>52.9</ele>
        <time>2020-06-08T10:43:43Z</time>
      </trkpt>
      <trkpt lat="48.18512" lon="-3.89488">
        <ele>52.9</ele>
        <time>2020-06-08T10:43:44Z</time>
      </trkpt>
      <trkpt lat="48.18517" lon="-3.8949">
        <ele>53</ele>
        <time>2020-06-08T10:43:45Z</time>
      </trkpt>
      <trkpt lat="48.18521" lon="-3.89492">
        <ele>53.1</ele>
        <time>2020-06-08T10:43:46Z</time>
      </trkpt>
      <trkpt lat="48.18525" lon="-3.89494">
        <ele>53.1</ele>
        <time>2020-06-08T10:43:47Z</time>
      </trkpt>
      <trkpt lat="48.18529" lon="-3.89496">
        <ele>53.2</ele>
        <time>2020-06-08T10:43:48Z</time>
      </trkpt>
      <trkpt lat="48.18532" lon="-3.89499">
        <ele>53.3</ele>
        <time>2020-06-08T10:43:49Z</time>
      </trkpt>
      <trkpt lat="48.18536" lon="-3.89501">
        <ele>53.4</ele>
        <time>2020-06-08T10:43:50Z</time>
      </trkpt>
      <trkpt lat="48.18541" lon="-3.89502">
        <ele>53.5</ele>
        <time>2020-06-08T10:43:51Z</time>
      </trkpt>
      <trkpt lat="48.18544" lon="-3.89504">
        <ele>53.6</ele>
        <time>2020-06-08T10:43:52Z</time>
      </trkpt>
      <trkpt lat="48.18548" lon="-3.89506">
        <ele>53.7</ele>
        <time>2020-06-08T10:43:53Z</time>
      </trkpt>
      <trkpt lat="48.18551" lon="-3.89508">
        <ele>53.7</ele>
        <time>2020-06-08T10:43:54Z</time>
      </trkpt>
      <trkpt lat="48.18555" lon="-3.8951">
        <ele>53.8</ele>
        <time>2020-06-08T10:43:55Z</time>
      </trkpt>
      <trkpt lat="48.18558" lon="-3.89511">
        <ele>53.9</ele>
        <time>2020-06-08T10:43:56Z</time>
      </trkpt>
      <trkpt lat="48.18562" lon="-3.89512">
        <ele>54</ele>
        <time>2020-06-08T10:43:57Z</time>
      </trkpt>
      <trkpt lat="48.18565" lon="-3.89514">
        <ele>54.1</ele>
        <time>2020-06-08T10:43:58Z</time>
      </trkpt>
      <trkpt lat="48.18568" lon="-3.89515">
        <ele>54.3</ele>
        <time>2020-06-08T10:43:59Z</time>
      </trkpt>
      <trkpt lat="48.18572" lon="-3.89515">
        <ele>54.4</ele>
        <time>2020-06-08T10:44:00Z</time>
      </trkpt>
      <trkpt lat="48.18576" lon="-3.89517">
        <ele>54.6</ele>
        <time>2020-06-08T10:44:01Z</time>
      </trkpt>
      <trkpt lat="48.18579" lon="-3.89518">
        <ele>54.7</ele>
        <time>2020-06-08T10:44:02Z</time>
      </trkpt>
      <trkpt lat="48.18583" lon="-3.8952">
        <ele>54.9</ele>
        <time>2020-06-08T10:44:03Z</time>
      </trkpt>
      <trkpt lat="48.18586" lon="-3.89522">
        <ele>55</ele>
        <time>2020-06-08T10:44:04Z</time>
      </trkpt>
      <trkpt lat="48.18589" lon="-3.89524">
        <ele>55.2</ele>
        <time>2020-06-08T10:44:05Z</time>
      </trkpt>
      <trkpt lat="48.18592" lon="-3.89524">
        <ele>55.3</ele>
        <time>2020-06-08T10:44:06Z</time>
      </trkpt>
      <trkpt lat="48.18596" lon="-3.89527">
        <ele>55.5</ele>
        <time>2020-06-08T10:44:07Z</time>
      </trkpt>
      <trkpt lat="48.18597" lon="-3.89528">
        <ele>55.6</ele>
        <time>2020-06-08T10:44:08Z</time>
      </trkpt>
      <trkpt lat="48.18601" lon="-3.8953">
        <ele>55.8</ele>
        <time>2020-06-08T10:44:09Z</time>
      </trkpt>
      <trkpt lat="48.18602" lon="-3.89531">
        <ele>55.8</ele>
        <time>2020-06-08T10:44:10Z</time>
      </trkpt>
      <trkpt lat="48.18606" lon="-3.89532">
        <ele>56</ele>
        <time>2020-06-08T10:44:11Z</time>
      </trkpt>
      <trkpt lat="48.18607" lon="-3.89532">
        <ele>56</ele>
        <time>2020-06-08T10:44:12Z</time>
      </trkpt>
      <trkpt lat="48.1861" lon="-3.89534">
        <ele>56.2</ele>
        <time>2020-06-08T10:44:13Z</time>
      </trkpt>
      <trkpt lat="48.18612" lon="-3.89535">
        <ele>56.3</ele>
        <time>2020-06-08T10:44:14Z</time>
      </trkpt>
      <trkpt lat="48.18615" lon="-3.89536">
        <ele>56.5</ele>
        <time>2020-06-08T10:44:15Z</time>
      </trkpt>
      <trkpt lat="48.18617" lon="-3.89538">
        <ele>56.6</ele>
        <time>2020-06-08T10:44:16Z</time>
      </trkpt>
      <trkpt lat="48.1862" lon="-3.89539">
        <ele>56.8</ele>
        <time>2020-06-08T10:44:17Z</time>
      </trkpt>
      <trkpt lat="48.18623" lon="-3.8954">
        <ele>57</ele>
        <time>2020-06-08T10:44:18Z</time>
      </trkpt>
      <trkpt lat="48.18626" lon="-3.89541">
        <ele>57.2</ele>
        <time>2020-06-08T10:44:19Z</time>
      </trkpt>
      <trkpt lat="48.18629" lon="-3.89542">
        <ele>57.4</ele>
        <time>2020-06-08T10:44:20Z</time>
      </trkpt>
      <trkpt lat="48.18632" lon="-3.89543">
        <ele>57.6</ele>
        <time>2020-06-08T10:44:21Z</time>
      </trkpt>
      <trkpt lat="48.18634" lon="-3.89544">
        <ele>57.7</ele>
        <time>2020-06-08T10:44:22Z</time>
      </trkpt>
      <trkpt lat="48.18637" lon="-3.89545">
        <ele>58</ele>
        <time>2020-06-08T10:44:23Z</time>
      </trkpt>
      <trkpt lat="48.18638" lon="-3.89546">
        <ele>58.1</ele>
        <time>2020-06-08T10:44:24Z</time>
      </trkpt>
      <trkpt lat="48.18641" lon="-3.89548">
        <ele>58.3</ele>
        <time>2020-06-08T10:44:25Z</time>
      </trkpt>
      <trkpt lat="48.18642" lon="-3.89549">
        <ele>58.4</ele>
        <time>2020-06-08T10:44:26Z</time>
      </trkpt>
      <trkpt lat="48.18645" lon="-3.89551">
        <ele>58.7</ele>
        <time>2020-06-08T10:44:27Z</time>
      </trkpt>
      <trkpt lat="48.18647" lon="-3.89552">
        <ele>58.9</ele>
        <time>2020-06-08T10:44:28Z</time>
      </trkpt>
      <trkpt lat="48.1865" lon="-3.89553">
        <ele>59.2</ele>
        <time>2020-06-08T10:44:29Z</time>
      </trkpt>
      <trkpt lat="48.18653" lon="-3.89554">
        <ele>59.4</ele>
        <time>2020-06-08T10:44:30Z</time>
      </trkpt>
      <trkpt lat="48.18656" lon="-3.89554">
        <ele>59.7</ele>
        <time>2020-06-08T10:44:31Z</time>
      </trkpt>
      <trkpt lat="48.18659" lon="-3.89555">
        <ele>60</ele>
        <time>2020-06-08T10:44:32Z</time>
      </trkpt>
      <trkpt lat="48.18663" lon="-3.89555">
        <ele>60.3</ele>
        <time>2020-06-08T10:44:33Z</time>
      </trkpt>
      <trkpt lat="48.18664" lon="-3.89555">
        <ele>60.4</ele>
        <time>2020-06-08T10:44:34Z</time>
      </trkpt>
      <trkpt lat="48.18667" lon="-3.89555">
        <ele>60.7</ele>
        <time>2020-06-08T10:44:35Z</time>
      </trkpt>
      <trkpt lat="48.18668" lon="-3.89555">
        <ele>60.8</ele>
        <time>2020-06-08T10:44:36Z</time>
      </trkpt>
      <trkpt lat="48.18671" lon="-3.89556">
        <ele>61.1</ele>
        <time>2020-06-08T10:44:37Z</time>
      </trkpt>
      <trkpt lat="48.18673" lon="-3.89557">
        <ele>61.2</ele>
        <time>2020-06-08T10:44:38Z</time>
      </trkpt>
      <trkpt lat="48.18676" lon="-3.89557">
        <ele>61.5</ele>
        <time>2020-06-08T10:44:39Z</time>
      </trkpt>
      <trkpt lat="48.18677" lon="-3.89558">
        <ele>61.6</ele>
        <time>2020-06-08T10:44:40Z</time>
      </trkpt>
      <trkpt lat="48.1868" lon="-3.89559">
        <ele>61.9</ele>
        <time>2020-06-08T10:44:41Z</time>
      </trkpt>
      <trkpt lat="48.18681" lon="-3.89559">
        <ele>62</ele>
        <time>2020-06-08T10:44:42Z</time>
      </trkpt>
      <trkpt lat="48.18684" lon="-3.89559">
        <ele>62.2</ele>
        <time>2020-06-08T10:44:43Z</time>
      </trkpt>
      <trkpt lat="48.18685" lon="-3.89559">
        <ele>62.3</ele>
        <time>2020-06-08T10:44:44Z</time>
      </trkpt>
      <trkpt lat="48.18688" lon="-3.8956">
        <ele>62.6</ele>
        <time>2020-06-08T10:44:45Z</time>
      </trkpt>
      <trkpt lat="48.18689" lon="-3.8956">
        <ele>62.7</ele>
        <time>2020-06-08T10:44:46Z</time>
      </trkpt>
      <trkpt lat="48.18693" lon="-3.8956">
        <ele>63</ele>
        <time>2020-06-08T10:44:47Z</time>
      </trkpt>
      <trkpt lat="48.18694" lon="-3.89561">
        <ele>63.1</ele>
        <time>2020-06-08T10:44:48Z</time>
      </trkpt>
      <trkpt lat="48.18697" lon="-3.89561">
        <ele>63.3</ele>
        <time>2020-06-08T10:44:49Z</time>
      </trkpt>
      <trkpt lat="48.18698" lon="-3.89562">
        <ele>63.4</ele>
        <time>2020-06-08T10:44:50Z</time>
      </trkpt>
      <trkpt lat="48.187" lon="-3.89561">
        <ele>63.7</ele>
        <time>2020-06-08T10:44:51Z</time>
      </trkpt>
      <trkpt lat="48.18704" lon="-3.8956">
        <ele>64</ele>
        <time>2020-06-08T10:44:52Z</time>
      </trkpt>
      <trkpt lat="48.18705" lon="-3.89559">
        <ele>64.1</ele>
        <time>2020-06-08T10:44:53Z</time>
      </trkpt>
      <trkpt lat="48.18708" lon="-3.89558">
        <ele>64.3</ele>
        <time>2020-06-08T10:44:54Z</time>
      </trkpt>
      <trkpt lat="48.18712" lon="-3.89557">
        <ele>64.6</ele>
        <time>2020-06-08T10:44:55Z</time>
      </trkpt>
      <trkpt lat="48.18716" lon="-3.89557">
        <ele>64.8</ele>
        <time>2020-06-08T10:44:56Z</time>
      </trkpt>
      <trkpt lat="48.18719" lon="-3.89555">
        <ele>65</ele>
        <time>2020-06-08T10:44:57Z</time>
      </trkpt>
      <trkpt lat="48.1872" lon="-3.89554">
        <ele>65.1</ele>
        <time>2020-06-08T10:44:58Z</time>
      </trkpt>
      <trkpt lat="48.18723" lon="-3.89553">
        <ele>65.2</ele>
        <time>2020-06-08T10:44:59Z</time>
      </trkpt>
      <trkpt lat="48.18727" lon="-3.89552">
        <ele>65.4</ele>
        <time>2020-06-08T10:45:00Z</time>
      </trkpt>
      <trkpt lat="48.18729" lon="-3.89551">
        <ele>65.6</ele>
        <time>2020-06-08T10:45:01Z</time>
      </trkpt>
      <trkpt lat="48.18733" lon="-3.89549">
        <ele>65.8</ele>
        <time>2020-06-08T10:45:02Z</time>
      </trkpt>
      <trkpt lat="48.18734" lon="-3.89548">
        <ele>65.9</ele>
        <time>2020-06-08T10:45:03Z</time>
      </trkpt>
      <trkpt lat="48.18737" lon="-3.89547">
        <ele>66</ele>
        <time>2020-06-08T10:45:04Z</time>
      </trkpt>
      <trkpt lat="48.18739" lon="-3.89546">
        <ele>66.2</ele>
        <time>2020-06-08T10:45:05Z</time>
      </trkpt>
      <trkpt lat="48.18743" lon="-3.89544">
        <ele>66.4</ele>
        <time>2020-06-08T10:45:06Z</time>
      </trkpt>
      <trkpt lat="48.18745" lon="-3.89544">
        <ele>66.4</ele>
        <time>2020-06-08T10:45:07Z</time>
      </trkpt>
      <trkpt lat="48.18747" lon="-3.89542">
        <ele>66.6</ele>
        <time>2020-06-08T10:45:08Z</time>
      </trkpt>
      <trkpt lat="48.18751" lon="-3.8954">
        <ele>66.8</ele>
        <time>2020-06-08T10:45:09Z</time>
      </trkpt>
      <trkpt lat="48.18752" lon="-3.89539">
        <ele>66.8</ele>
        <time>2020-06-08T10:45:10Z</time>
      </trkpt>
      <trkpt lat="48.18755" lon="-3.89539">
        <ele>67</ele>
        <time>2020-06-08T10:45:11Z</time>
      </trkpt>
      <trkpt lat="48.18758" lon="-3.89537">
        <ele>67.2</ele>
        <time>2020-06-08T10:45:12Z</time>
      </trkpt>
      <trkpt lat="48.18759" lon="-3.89536">
        <ele>67.2</ele>
        <time>2020-06-08T10:45:13Z</time>
      </trkpt>
      <trkpt lat="48.18763" lon="-3.89535">
        <ele>67.5</ele>
        <time>2020-06-08T10:45:14Z</time>
      </trkpt>
      <trkpt lat="48.18764" lon="-3.89534">
        <ele>67.5</ele>
        <time>2020-06-08T10:45:15Z</time>
      </trkpt>
      <trkpt lat="48.18768" lon="-3.89533">
        <ele>67.7</ele>
        <time>2020-06-08T10:45:16Z</time>
      </trkpt>
      <trkpt lat="48.18768" lon="-3.89533">
        <ele>67.8</ele>
        <time>2020-06-08T10:45:17Z</time>
      </trkpt>
      <trkpt lat="48.18773" lon="-3.89533">
        <ele>68</ele>
        <time>2020-06-08T10:45:18Z</time>
      </trkpt>
      <trkpt lat="48.18774" lon="-3.89533">
        <ele>68.1</ele>
        <time>2020-06-08T10:45:19Z</time>
      </trkpt>
      <trkpt lat="48.18778" lon="-3.89531">
        <ele>68.3</ele>
        <time>2020-06-08T10:45:20Z</time>
      </trkpt>
      <trkpt lat="48.18779" lon="-3.8953">
        <ele>68.3</ele>
        <time>2020-06-08T10:45:21Z</time>
      </trkpt>
      <trkpt lat="48.18783" lon="-3.89526">
        <ele>68.6</ele>
        <time>2020-06-08T10:45:22Z</time>
      </trkpt>
      <trkpt lat="48.18784" lon="-3.89525">
        <ele>68.6</ele>
        <time>2020-06-08T10:45:23Z</time>
      </trkpt>
      <trkpt lat="48.18787" lon="-3.89523">
        <ele>68.8</ele>
        <time>2020-06-08T10:45:24Z</time>
      </trkpt>
      <trkpt lat="48.1879" lon="-3.89523">
        <ele>69</ele>
        <time>2020-06-08T10:45:25Z</time>
      </trkpt>
      <trkpt lat="48.18792" lon="-3.89523">
        <ele>69.1</ele>
        <time>2020-06-08T10:45:26Z</time>
      </trkpt>
      <trkpt lat="48.18795" lon="-3.89522">
        <ele>69.3</ele>
        <time>2020-06-08T10:45:27Z</time>
      </trkpt>
      <trkpt lat="48.18796" lon="-3.89521">
        <ele>69.4</ele>
        <time>2020-06-08T10:45:28Z</time>
      </trkpt>
      <trkpt lat="48.18799" lon="-3.89519">
        <ele>69.6</ele>
        <time>2020-06-08T10:45:29Z</time>
      </trkpt>
      <trkpt lat="48.18802" lon="-3.89518">
        <ele>69.9</ele>
        <time>2020-06-08T10:45:30Z</time>
      </trkpt>
      <trkpt lat="48.18804" lon="-3.89518">
        <ele>69.9</ele>
        <time>2020-06-08T10:45:31Z</time>
      </trkpt>
      <trkpt lat="48.18807" lon="-3.89518">
        <ele>70.2</ele>
        <time>2020-06-08T10:45:32Z</time>
      </trkpt>
      <trkpt lat="48.18808" lon="-3.89518">
        <ele>70.7</ele>
        <time>2020-06-08T10:45:33Z</time>
      </trkpt>
      <trkpt lat="48.18812" lon="-3.89518">
        <ele>71</ele>
        <time>2020-06-08T10:45:34Z</time>
      </trkpt>
      <trkpt lat="48.18813" lon="-3.89517">
        <ele>71.1</ele>
        <time>2020-06-08T10:45:35Z</time>
      </trkpt>
      <trkpt lat="48.18816" lon="-3.89517">
        <ele>71.4</ele>
        <time>2020-06-08T10:45:36Z</time>
      </trkpt>
      <trkpt lat="48.18817" lon="-3.89517">
        <ele>71.5</ele>
        <time>2020-06-08T10:45:37Z</time>
      </trkpt>
      <trkpt lat="48.1882" lon="-3.89515">
        <ele>71.9</ele>
        <time>2020-06-08T10:45:38Z</time>
      </trkpt>
      <trkpt lat="48.18822" lon="-3.89515">
        <ele>72</ele>
        <time>2020-06-08T10:45:39Z</time>
      </trkpt>
      <trkpt lat="48.18825" lon="-3.89516">
        <ele>72.3</ele>
        <time>2020-06-08T10:45:40Z</time>
      </trkpt>
      <trkpt lat="48.18826" lon="-3.89516">
        <ele>72.3</ele>
        <time>2020-06-08T10:45:41Z</time>
      </trkpt>
      <trkpt lat="48.18827" lon="-3.89515">
        <ele>72.5</ele>
        <time>2020-06-08T10:45:42Z</time>
      </trkpt>
      <trkpt lat="48.18829" lon="-3.89515">
        <ele>72.6</ele>
        <time>2020-06-08T10:45:43Z</time>
      </trkpt>
      <trkpt lat="48.1883" lon="-3.89514">
        <ele>72.8</ele>
        <time>2020-06-08T10:45:44Z</time>
      </trkpt>
      <trkpt lat="48.18832" lon="-3.89514">
        <ele>72.9</ele>
        <time>2020-06-08T10:45:45Z</time>
      </trkpt>
      <trkpt lat="48.18834" lon="-3.89514">
        <ele>73.2</ele>
        <time>2020-06-08T10:45:46Z</time>
      </trkpt>
      <trkpt lat="48.18835" lon="-3.89515">
        <ele>73.3</ele>
        <time>2020-06-08T10:45:47Z</time>
      </trkpt>
      <trkpt lat="48.18835" lon="-3.89514">
        <ele>73.4</ele>
        <time>2020-06-08T10:45:48Z</time>
      </trkpt>
      <trkpt lat="48.18837" lon="-3.89514">
        <ele>73.6</ele>
        <time>2020-06-08T10:45:49Z</time>
      </trkpt>
      <trkpt lat="48.18839" lon="-3.89515">
        <ele>73.8</ele>
        <time>2020-06-08T10:45:50Z</time>
      </trkpt>
      <trkpt lat="48.18842" lon="-3.89515">
        <ele>74.2</ele>
        <time>2020-06-08T10:45:51Z</time>
      </trkpt>
      <trkpt lat="48.18844" lon="-3.89515">
        <ele>74.4</ele>
        <time>2020-06-08T10:45:52Z</time>
      </trkpt>
      <trkpt lat="48.18845" lon="-3.89515">
        <ele>74.6</ele>
        <time>2020-06-08T10:45:53Z</time>
      </trkpt>
      <trkpt lat="48.18847" lon="-3.89515">
        <ele>74.9</ele>
        <time>2020-06-08T10:45:54Z</time>
      </trkpt>
      <trkpt lat="48.18848" lon="-3.89515">
        <ele>75</ele>
        <time>2020-06-08T10:45:55Z</time>
      </trkpt>
      <trkpt lat="48.18849" lon="-3.89515">
        <ele>75.1</ele>
        <time>2020-06-08T10:45:56Z</time>
      </trkpt>
      <trkpt lat="48.1885" lon="-3.89516">
        <ele>75.2</ele>
        <time>2020-06-08T10:45:57Z</time>
      </trkpt>
      <trkpt lat="48.18851" lon="-3.89516">
        <ele>75.3</ele>
        <time>2020-06-08T10:45:58Z</time>
      </trkpt>
      <trkpt lat="48.18852" lon="-3.89517">
        <ele>75.6</ele>
        <time>2020-06-08T10:45:59Z</time>
      </trkpt>
      <trkpt lat="48.18855" lon="-3.8952">
        <ele>76</ele>
        <time>2020-06-08T10:46:00Z</time>
      </trkpt>
      <trkpt lat="48.18856" lon="-3.89521">
        <ele>76.2</ele>
        <time>2020-06-08T10:46:01Z</time>
      </trkpt>
      <trkpt lat="48.1886" lon="-3.89522">
        <ele>76.6</ele>
        <time>2020-06-08T10:46:02Z</time>
      </trkpt>
      <trkpt lat="48.18863" lon="-3.89523">
        <ele>77.1</ele>
        <time>2020-06-08T10:46:03Z</time>
      </trkpt>
      <trkpt lat="48.18864" lon="-3.89523">
        <ele>77.2</ele>
        <time>2020-06-08T10:46:04Z</time>
      </trkpt>
      <trkpt lat="48.18867" lon="-3.89524">
        <ele>77.6</ele>
        <time>2020-06-08T10:46:05Z</time>
      </trkpt>
      <trkpt lat="48.18868" lon="-3.89524">
        <ele>77.8</ele>
        <time>2020-06-08T10:46:06Z</time>
      </trkpt>
      <trkpt lat="48.1887" lon="-3.89525">
        <ele>78.1</ele>
        <time>2020-06-08T10:46:07Z</time>
      </trkpt>
      <trkpt lat="48.18871" lon="-3.89525">
        <ele>78.2</ele>
        <time>2020-06-08T10:46:08Z</time>
      </trkpt>
      <trkpt lat="48.18872" lon="-3.89525">
        <ele>78.4</ele>
        <time>2020-06-08T10:46:09Z</time>
      </trkpt>
      <trkpt lat="48.18873" lon="-3.89525">
        <ele>78.6</ele>
        <time>2020-06-08T10:46:10Z</time>
      </trkpt>
      <trkpt lat="48.18874" lon="-3.89524">
        <ele>78.8</ele>
        <time>2020-06-08T10:46:11Z</time>
      </trkpt>
      <trkpt lat="48.18876" lon="-3.89524">
        <ele>79</ele>
        <time>2020-06-08T10:46:12Z</time>
      </trkpt>
      <trkpt lat="48.18877" lon="-3.89524">
        <ele>79.2</ele>
        <time>2020-06-08T10:46:13Z</time>
      </trkpt>
      <trkpt lat="48.18879" lon="-3.89524">
        <ele>79.4</ele>
        <time>2020-06-08T10:46:14Z</time>
      </trkpt>
      <trkpt lat="48.1888" lon="-3.89524">
        <ele>79.7</ele>
        <time>2020-06-08T10:46:15Z</time>
      </trkpt>
      <trkpt lat="48.18884" lon="-3.89525">
        <ele>80.2</ele>
        <time>2020-06-08T10:46:16Z</time>
      </trkpt>
      <trkpt lat="48.18885" lon="-3.89525">
        <ele>80.4</ele>
        <time>2020-06-08T10:46:17Z</time>
      </trkpt>
      <trkpt lat="48.18888" lon="-3.89527">
        <ele>80.9</ele>
        <time>2020-06-08T10:46:18Z</time>
      </trkpt>
      <trkpt lat="48.18889" lon="-3.89528">
        <ele>81</ele>
        <time>2020-06-08T10:46:19Z</time>
      </trkpt>
      <trkpt lat="48.18891" lon="-3.89529">
        <ele>81.3</ele>
        <time>2020-06-08T10:46:20Z</time>
      </trkpt>
      <trkpt lat="48.18892" lon="-3.89529">
        <ele>81.6</ele>
        <time>2020-06-08T10:46:21Z</time>
      </trkpt>
      <trkpt lat="48.18894" lon="-3.8953">
        <ele>81.8</ele>
        <time>2020-06-08T10:46:22Z</time>
      </trkpt>
      <trkpt lat="48.18895" lon="-3.89531">
        <ele>82</ele>
        <time>2020-06-08T10:46:23Z</time>
      </trkpt>
      <trkpt lat="48.18896" lon="-3.89531">
        <ele>82.1</ele>
        <time>2020-06-08T10:46:24Z</time>
      </trkpt>
      <trkpt lat="48.18896" lon="-3.89533">
        <ele>82.3</ele>
        <time>2020-06-08T10:46:25Z</time>
      </trkpt>
      <trkpt lat="48.18898" lon="-3.89534">
        <ele>82.6</ele>
        <time>2020-06-08T10:46:26Z</time>
      </trkpt>
      <trkpt lat="48.189" lon="-3.89537">
        <ele>83</ele>
        <time>2020-06-08T10:46:27Z</time>
      </trkpt>
      <trkpt lat="48.18901" lon="-3.89538">
        <ele>83.2</ele>
        <time>2020-06-08T10:46:28Z</time>
      </trkpt>
      <trkpt lat="48.18903" lon="-3.89542">
        <ele>83.7</ele>
        <time>2020-06-08T10:46:29Z</time>
      </trkpt>
      <trkpt lat="48.18904" lon="-3.89542">
        <ele>83.8</ele>
        <time>2020-06-08T10:46:30Z</time>
      </trkpt>
      <trkpt lat="48.18906" lon="-3.89546">
        <ele>84.3</ele>
        <time>2020-06-08T10:46:31Z</time>
      </trkpt>
      <trkpt lat="48.18906" lon="-3.89547">
        <ele>84.4</ele>
        <time>2020-06-08T10:46:32Z</time>
      </trkpt>
      <trkpt lat="48.18908" lon="-3.89548">
        <ele>84.7</ele>
        <time>2020-06-08T10:46:33Z</time>
      </trkpt>
      <trkpt lat="48.18909" lon="-3.89548">
        <ele>84.9</ele>
        <time>2020-06-08T10:46:34Z</time>
      </trkpt>
      <trkpt lat="48.18912" lon="-3.89548">
        <ele>85.3</ele>
        <time>2020-06-08T10:46:35Z</time>
      </trkpt>
      <trkpt lat="48.18913" lon="-3.89549">
        <ele>85.4</ele>
        <time>2020-06-08T10:46:36Z</time>
      </trkpt>
      <trkpt lat="48.18914" lon="-3.89551">
        <ele>85.7</ele>
        <time>2020-06-08T10:46:37Z</time>
      </trkpt>
      <trkpt lat="48.18914" lon="-3.89552">
        <ele>85.9</ele>
        <time>2020-06-08T10:46:38Z</time>
      </trkpt>
      <trkpt lat="48.18915" lon="-3.89553">
        <ele>86</ele>
        <time>2020-06-08T10:46:39Z</time>
      </trkpt>
      <trkpt lat="48.18915" lon="-3.89555">
        <ele>86.2</ele>
        <time>2020-06-08T10:46:40Z</time>
      </trkpt>
      <trkpt lat="48.18916" lon="-3.89558">
        <ele>86.5</ele>
        <time>2020-06-08T10:46:41Z</time>
      </trkpt>
      <trkpt lat="48.18918" lon="-3.8956">
        <ele>86.9</ele>
        <time>2020-06-08T10:46:42Z</time>
      </trkpt>
      <trkpt lat="48.18919" lon="-3.8956">
        <ele>87.1</ele>
        <time>2020-06-08T10:46:43Z</time>
      </trkpt>
      <trkpt lat="48.18921" lon="-3.89562">
        <ele>87.3</ele>
        <time>2020-06-08T10:46:44Z</time>
      </trkpt>
      <trkpt lat="48.18922" lon="-3.89563">
        <ele>87.6</ele>
        <time>2020-06-08T10:46:45Z</time>
      </trkpt>
      <trkpt lat="48.18923" lon="-3.89565">
        <ele>87.9</ele>
        <time>2020-06-08T10:46:46Z</time>
      </trkpt>
      <trkpt lat="48.18924" lon="-3.89567">
        <ele>88.1</ele>
        <time>2020-06-08T10:46:47Z</time>
      </trkpt>
      <trkpt lat="48.18926" lon="-3.89569">
        <ele>88.4</ele>
        <time>2020-06-08T10:46:48Z</time>
      </trkpt>
      <trkpt lat="48.18927" lon="-3.8957">
        <ele>88.6</ele>
        <time>2020-06-08T10:46:49Z</time>
      </trkpt>
      <trkpt lat="48.18929" lon="-3.89573">
        <ele>89.1</ele>
        <time>2020-06-08T10:46:50Z</time>
      </trkpt>
      <trkpt lat="48.1893" lon="-3.89574">
        <ele>89.3</ele>
        <time>2020-06-08T10:46:51Z</time>
      </trkpt>
      <trkpt lat="48.18931" lon="-3.89575">
        <ele>89.5</ele>
        <time>2020-06-08T10:46:52Z</time>
      </trkpt>
      <trkpt lat="48.18932" lon="-3.89576">
        <ele>89.6</ele>
        <time>2020-06-08T10:46:53Z</time>
      </trkpt>
      <trkpt lat="48.18933" lon="-3.89577">
        <ele>89.8</ele>
        <time>2020-06-08T10:46:54Z</time>
      </trkpt>
      <trkpt lat="48.18934" lon="-3.89579">
        <ele>90</ele>
        <time>2020-06-08T10:46:55Z</time>
      </trkpt>
      <trkpt lat="48.18934" lon="-3.89581">
        <ele>90.2</ele>
        <time>2020-06-08T10:46:56Z</time>
      </trkpt>
      <trkpt lat="48.18936" lon="-3.89583">
        <ele>90.5</ele>
        <time>2020-06-08T10:46:57Z</time>
      </trkpt>
      <trkpt lat="48.18937" lon="-3.89584">
        <ele>90.8</ele>
        <time>2020-06-08T10:46:58Z</time>
      </trkpt>
      <trkpt lat="48.18939" lon="-3.89586">
        <ele>91.1</ele>
        <time>2020-06-08T10:46:59Z</time>
      </trkpt>
      <trkpt lat="48.1894" lon="-3.89588">
        <ele>91.3</ele>
        <time>2020-06-08T10:47:00Z</time>
      </trkpt>
      <trkpt lat="48.18942" lon="-3.89591">
        <ele>91.7</ele>
        <time>2020-06-08T10:47:01Z</time>
      </trkpt>
      <trkpt lat="48.18943" lon="-3.89592">
        <ele>91.8</ele>
        <time>2020-06-08T10:47:02Z</time>
      </trkpt>
      <trkpt lat="48.18943" lon="-3.89592">
        <ele>91.9</ele>
        <time>2020-06-08T10:47:03Z</time>
      </trkpt>
      <trkpt lat="48.18945" lon="-3.89593">
        <ele>92.2</ele>
        <time>2020-06-08T10:47:04Z</time>
      </trkpt>
      <trkpt lat="48.18946" lon="-3.89593">
        <ele>92.3</ele>
        <time>2020-06-08T10:47:05Z</time>
      </trkpt>
      <trkpt lat="48.18948" lon="-3.89593">
        <ele>92.6</ele>
        <time>2020-06-08T10:47:06Z</time>
      </trkpt>
      <trkpt lat="48.1895" lon="-3.89594">
        <ele>93.5</ele>
        <time>2020-06-08T10:47:07Z</time>
      </trkpt>
      <trkpt lat="48.18951" lon="-3.89595">
        <ele>93.7</ele>
        <time>2020-06-08T10:47:08Z</time>
      </trkpt>
      <trkpt lat="48.18952" lon="-3.89597">
        <ele>94</ele>
        <time>2020-06-08T10:47:09Z</time>
      </trkpt>
      <trkpt lat="48.18952" lon="-3.896">
        <ele>94.3</ele>
        <time>2020-06-08T10:47:10Z</time>
      </trkpt>
      <trkpt lat="48.18953" lon="-3.89602">
        <ele>94.5</ele>
        <time>2020-06-08T10:47:11Z</time>
      </trkpt>
      <trkpt lat="48.18953" lon="-3.89604">
        <ele>94.7</ele>
        <time>2020-06-08T10:47:12Z</time>
      </trkpt>
      <trkpt lat="48.18953" lon="-3.89606">
        <ele>94.9</ele>
        <time>2020-06-08T10:47:13Z</time>
      </trkpt>
      <trkpt lat="48.18954" lon="-3.89608">
        <ele>95.1</ele>
        <time>2020-06-08T10:47:14Z</time>
      </trkpt>
      <trkpt lat="48.18955" lon="-3.8961">
        <ele>95.3</ele>
        <time>2020-06-08T10:47:15Z</time>
      </trkpt>
      <trkpt lat="48.18955" lon="-3.89612">
        <ele>95.5</ele>
        <time>2020-06-08T10:47:16Z</time>
      </trkpt>
      <trkpt lat="48.18957" lon="-3.89613">
        <ele>95.8</ele>
        <time>2020-06-08T10:47:17Z</time>
      </trkpt>
      <trkpt lat="48.18958" lon="-3.89616">
        <ele>96.1</ele>
        <time>2020-06-08T10:47:18Z</time>
      </trkpt>
      <trkpt lat="48.18958" lon="-3.89618">
        <ele>96.2</ele>
        <time>2020-06-08T10:47:19Z</time>
      </trkpt>
      <trkpt lat="48.18959" lon="-3.89619">
        <ele>96.4</ele>
        <time>2020-06-08T10:47:20Z</time>
      </trkpt>
      <trkpt lat="48.18961" lon="-3.8962">
        <ele>96.7</ele>
        <time>2020-06-08T10:47:21Z</time>
      </trkpt>
      <trkpt lat="48.18962" lon="-3.89621">
        <ele>96.9</ele>
        <time>2020-06-08T10:47:22Z</time>
      </trkpt>
      <trkpt lat="48.18963" lon="-3.89622">
        <ele>97</ele>
        <time>2020-06-08T10:47:23Z</time>
      </trkpt>
      <trkpt lat="48.18964" lon="-3.89624">
        <ele>97.2</ele>
        <time>2020-06-08T10:47:24Z</time>
      </trkpt>
      <trkpt lat="48.18965" lon="-3.89625">
        <ele>97.4</ele>
        <time>2020-06-08T10:47:25Z</time>
      </trkpt>
      <trkpt lat="48.18966" lon="-3.89627">
        <ele>97.6</ele>
        <time>2020-06-08T10:47:26Z</time>
      </trkpt>
      <trkpt lat="48.18967" lon="-3.89628">
        <ele>97.7</ele>
        <time>2020-06-08T10:47:27Z</time>
      </trkpt>
      <trkpt lat="48.18969" lon="-3.8963">
        <ele>98.1</ele>
        <time>2020-06-08T10:47:28Z</time>
      </trkpt>
      <trkpt lat="48.1897" lon="-3.89631">
        <ele>98.2</ele>
        <time>2020-06-08T10:47:29Z</time>
      </trkpt>
      <trkpt lat="48.18972" lon="-3.89634">
        <ele>98.5</ele>
        <time>2020-06-08T10:47:30Z</time>
      </trkpt>
      <trkpt lat="48.18972" lon="-3.89635">
        <ele>98.7</ele>
        <time>2020-06-08T10:47:31Z</time>
      </trkpt>
      <trkpt lat="48.18973" lon="-3.89636">
        <ele>98.8</ele>
        <time>2020-06-08T10:47:32Z</time>
      </trkpt>
      <trkpt lat="48.18975" lon="-3.89637">
        <ele>99</ele>
        <time>2020-06-08T10:47:33Z</time>
      </trkpt>
      <trkpt lat="48.18977" lon="-3.89638">
        <ele>99.2</ele>
        <time>2020-06-08T10:47:34Z</time>
      </trkpt>
      <trkpt lat="48.18978" lon="-3.89639">
        <ele>99.3</ele>
        <time>2020-06-08T10:47:35Z</time>
      </trkpt>
      <trkpt lat="48.18979" lon="-3.89639">
        <ele>99.5</ele>
        <time>2020-06-08T10:47:36Z</time>
      </trkpt>
      <trkpt lat="48.1898" lon="-3.8964">
        <ele>99.7</ele>
        <time>2020-06-08T10:47:37Z</time>
      </trkpt>
      <trkpt lat="48.18981" lon="-3.89642">
        <ele>99.8</ele>
        <time>2020-06-08T10:47:38Z</time>
      </trkpt>
      <trkpt lat="48.18982" lon="-3.89644">
        <ele>100</ele>
        <time>2020-06-08T10:47:39Z</time>
      </trkpt>
      <trkpt lat="48.18983" lon="-3.89645">
        <ele>100.1</ele>
        <time>2020-06-08T10:47:40Z</time>
      </trkpt>
      <trkpt lat="48.18985" lon="-3.89649">
        <ele>100.4</ele>
        <time>2020-06-08T10:47:41Z</time>
      </trkpt>
      <trkpt lat="48.18985" lon="-3.8965">
        <ele>100.5</ele>
        <time>2020-06-08T10:47:42Z</time>
      </trkpt>
      <trkpt lat="48.18986" lon="-3.89652">
        <ele>100.7</ele>
        <time>2020-06-08T10:47:43Z</time>
      </trkpt>
      <trkpt lat="48.18987" lon="-3.89654">
        <ele>100.9</ele>
        <time>2020-06-08T10:47:44Z</time>
      </trkpt>
      <trkpt lat="48.18988" lon="-3.89656">
        <ele>101.1</ele>
        <time>2020-06-08T10:47:45Z</time>
      </trkpt>
      <trkpt lat="48.18989" lon="-3.89658">
        <ele>101.3</ele>
        <time>2020-06-08T10:47:46Z</time>
      </trkpt>
      <trkpt lat="48.18991" lon="-3.89659">
        <ele>101.4</ele>
        <time>2020-06-08T10:47:47Z</time>
      </trkpt>
      <trkpt lat="48.18992" lon="-3.8966">
        <ele>101.6</ele>
        <time>2020-06-08T10:47:48Z</time>
      </trkpt>
      <trkpt lat="48.18994" lon="-3.89661">
        <ele>101.8</ele>
        <time>2020-06-08T10:47:49Z</time>
      </trkpt>
      <trkpt lat="48.18995" lon="-3.89663">
        <ele>102</ele>
        <time>2020-06-08T10:47:50Z</time>
      </trkpt>
      <trkpt lat="48.18998" lon="-3.89664">
        <ele>102.3</ele>
        <time>2020-06-08T10:47:51Z</time>
      </trkpt>
      <trkpt lat="48.18998" lon="-3.89665">
        <ele>102.4</ele>
        <time>2020-06-08T10:47:52Z</time>
      </trkpt>
      <trkpt lat="48.19001" lon="-3.89667">
        <ele>102.7</ele>
        <time>2020-06-08T10:47:53Z</time>
      </trkpt>
      <trkpt lat="48.19002" lon="-3.89667">
        <ele>102.7</ele>
        <time>2020-06-08T10:47:54Z</time>
      </trkpt>
      <trkpt lat="48.19004" lon="-3.89671">
        <ele>103.1</ele>
        <time>2020-06-08T10:47:55Z</time>
      </trkpt>
      <trkpt lat="48.19005" lon="-3.89672">
        <ele>103.2</ele>
        <time>2020-06-08T10:47:56Z</time>
      </trkpt>
      <trkpt lat="48.19007" lon="-3.89675">
        <ele>103.5</ele>
        <time>2020-06-08T10:47:57Z</time>
      </trkpt>
      <trkpt lat="48.19007" lon="-3.89676">
        <ele>103.6</ele>
        <time>2020-06-08T10:47:58Z</time>
      </trkpt>
      <trkpt lat="48.19009" lon="-3.89676">
        <ele>103.7</ele>
        <time>2020-06-08T10:47:59Z</time>
      </trkpt>
      <trkpt lat="48.1901" lon="-3.89678">
        <ele>103.9</ele>
        <time>2020-06-08T10:48:00Z</time>
      </trkpt>
      <trkpt lat="48.19013" lon="-3.89679">
        <ele>104.1</ele>
        <time>2020-06-08T10:48:01Z</time>
      </trkpt>
      <trkpt lat="48.19014" lon="-3.8968">
        <ele>104.2</ele>
        <time>2020-06-08T10:48:02Z</time>
      </trkpt>
      <trkpt lat="48.19015" lon="-3.89681">
        <ele>104.4</ele>
        <time>2020-06-08T10:48:03Z</time>
      </trkpt>
      <trkpt lat="48.19016" lon="-3.89681">
        <ele>104.4</ele>
        <time>2020-06-08T10:48:04Z</time>
      </trkpt>
      <trkpt lat="48.19017" lon="-3.89682">
        <ele>104.5</ele>
        <time>2020-06-08T10:48:05Z</time>
      </trkpt>
      <trkpt lat="48.19018" lon="-3.89683">
        <ele>104.7</ele>
        <time>2020-06-08T10:48:06Z</time>
      </trkpt>
      <trkpt lat="48.1902" lon="-3.89686">
        <ele>104.8</ele>
        <time>2020-06-08T10:48:07Z</time>
      </trkpt>
      <trkpt lat="48.19022" lon="-3.89689">
        <ele>105</ele>
        <time>2020-06-08T10:48:08Z</time>
      </trkpt>
      <trkpt lat="48.19022" lon="-3.8969">
        <ele>105.1</ele>
        <time>2020-06-08T10:48:09Z</time>
      </trkpt>
      <trkpt lat="48.19025" lon="-3.89692">
        <ele>105.3</ele>
        <time>2020-06-08T10:48:10Z</time>
      </trkpt>
      <trkpt lat="48.19026" lon="-3.89693">
        <ele>105.4</ele>
        <time>2020-06-08T10:48:11Z</time>
      </trkpt>
      <trkpt lat="48.19027" lon="-3.89695">
        <ele>105.5</ele>
        <time>2020-06-08T10:48:12Z</time>
      </trkpt>
      <trkpt lat="48.19028" lon="-3.89696">
        <ele>105.6</ele>
        <time>2020-06-08T10:48:13Z</time>
      </trkpt>
      <trkpt lat="48.1903" lon="-3.897">
        <ele>105.8</ele>
        <time>2020-06-08T10:48:14Z</time>
      </trkpt>
      <trkpt lat="48.1903" lon="-3.89701">
        <ele>105.9</ele>
        <time>2020-06-08T10:48:15Z</time>
      </trkpt>
      <trkpt lat="48.19031" lon="-3.89703">
        <ele>106</ele>
        <time>2020-06-08T10:48:16Z</time>
      </trkpt>
      <trkpt lat="48.19032" lon="-3.89706">
        <ele>106.2</ele>
        <time>2020-06-08T10:48:17Z</time>
      </trkpt>
      <trkpt lat="48.19034" lon="-3.8971">
        <ele>106.4</ele>
        <time>2020-06-08T10:48:18Z</time>
      </trkpt>
      <trkpt lat="48.19035" lon="-3.89712">
        <ele>106.5</ele>
        <time>2020-06-08T10:48:19Z</time>
      </trkpt>
      <trkpt lat="48.19036" lon="-3.89716">
        <ele>106.7</ele>
        <time>2020-06-08T10:48:20Z</time>
      </trkpt>
      <trkpt lat="48.19037" lon="-3.89718">
        <ele>106.8</ele>
        <time>2020-06-08T10:48:21Z</time>
      </trkpt>
      <trkpt lat="48.19039" lon="-3.89721">
        <ele>107</ele>
        <time>2020-06-08T10:48:22Z</time>
      </trkpt>
      <trkpt lat="48.19039" lon="-3.89722">
        <ele>107.1</ele>
        <time>2020-06-08T10:48:23Z</time>
      </trkpt>
      <trkpt lat="48.19042" lon="-3.89727">
        <ele>107.3</ele>
        <time>2020-06-08T10:48:24Z</time>
      </trkpt>
      <trkpt lat="48.19042" lon="-3.89728">
        <ele>107.4</ele>
        <time>2020-06-08T10:48:25Z</time>
      </trkpt>
      <trkpt lat="48.19044" lon="-3.89731">
        <ele>107.5</ele>
        <time>2020-06-08T10:48:26Z</time>
      </trkpt>
      <trkpt lat="48.19046" lon="-3.89736">
        <ele>107.8</ele>
        <time>2020-06-08T10:48:27Z</time>
      </trkpt>
      <trkpt lat="48.19047" lon="-3.89738">
        <ele>107.8</ele>
        <time>2020-06-08T10:48:28Z</time>
      </trkpt>
      <trkpt lat="48.1905" lon="-3.89742">
        <ele>108.1</ele>
        <time>2020-06-08T10:48:29Z</time>
      </trkpt>
      <trkpt lat="48.19051" lon="-3.89743">
        <ele>108.1</ele>
        <time>2020-06-08T10:48:30Z</time>
      </trkpt>
      <trkpt lat="48.19053" lon="-3.89746">
        <ele>108.3</ele>
        <time>2020-06-08T10:48:31Z</time>
      </trkpt>
      <trkpt lat="48.19054" lon="-3.89747">
        <ele>108.4</ele>
        <time>2020-06-08T10:48:32Z</time>
      </trkpt>
      <trkpt lat="48.19057" lon="-3.8975">
        <ele>108.6</ele>
        <time>2020-06-08T10:48:33Z</time>
      </trkpt>
      <trkpt lat="48.19058" lon="-3.89751">
        <ele>108.6</ele>
        <time>2020-06-08T10:48:34Z</time>
      </trkpt>
      <trkpt lat="48.19061" lon="-3.89753">
        <ele>108.8</ele>
        <time>2020-06-08T10:48:35Z</time>
      </trkpt>
      <trkpt lat="48.19061" lon="-3.89754">
        <ele>108.8</ele>
        <time>2020-06-08T10:48:36Z</time>
      </trkpt>
      <trkpt lat="48.19064" lon="-3.89757">
        <ele>109</ele>
        <time>2020-06-08T10:48:37Z</time>
      </trkpt>
      <trkpt lat="48.19064" lon="-3.89757">
        <ele>109</ele>
        <time>2020-06-08T10:48:38Z</time>
      </trkpt>
      <trkpt lat="48.19067" lon="-3.8976">
        <ele>109.2</ele>
        <time>2020-06-08T10:48:39Z</time>
      </trkpt>
      <trkpt lat="48.19067" lon="-3.89761">
        <ele>109.2</ele>
        <time>2020-06-08T10:48:40Z</time>
      </trkpt>
      <trkpt lat="48.19068" lon="-3.89763">
        <ele>109.3</ele>
        <time>2020-06-08T10:48:41Z</time>
      </trkpt>
      <trkpt lat="48.1907" lon="-3.89766">
        <ele>109.4</ele>
        <time>2020-06-08T10:48:42Z</time>
      </trkpt>
      <trkpt lat="48.19072" lon="-3.89769">
        <ele>109.5</ele>
        <time>2020-06-08T10:48:43Z</time>
      </trkpt>
      <trkpt lat="48.19072" lon="-3.8977">
        <ele>109.6</ele>
        <time>2020-06-08T10:48:44Z</time>
      </trkpt>
      <trkpt lat="48.19075" lon="-3.89771">
        <ele>109.7</ele>
        <time>2020-06-08T10:48:45Z</time>
      </trkpt>
      <trkpt lat="48.19076" lon="-3.89772">
        <ele>109.7</ele>
        <time>2020-06-08T10:48:46Z</time>
      </trkpt>
      <trkpt lat="48.19077" lon="-3.89777">
        <ele>109.9</ele>
        <time>2020-06-08T10:48:47Z</time>
      </trkpt>
      <trkpt lat="48.19078" lon="-3.89778">
        <ele>109.9</ele>
        <time>2020-06-08T10:48:48Z</time>
      </trkpt>
      <trkpt lat="48.1908" lon="-3.89783">
        <ele>110.1</ele>
        <time>2020-06-08T10:48:49Z</time>
      </trkpt>
      <trkpt lat="48.1908" lon="-3.89785">
        <ele>110.2</ele>
        <time>2020-06-08T10:48:50Z</time>
      </trkpt>
      <trkpt lat="48.19082" lon="-3.89789">
        <ele>110.3</ele>
        <time>2020-06-08T10:48:51Z</time>
      </trkpt>
      <trkpt lat="48.19082" lon="-3.8979">
        <ele>110.3</ele>
        <time>2020-06-08T10:48:52Z</time>
      </trkpt>
      <trkpt lat="48.19083" lon="-3.89792">
        <ele>110.4</ele>
        <time>2020-06-08T10:48:53Z</time>
      </trkpt>
      <trkpt lat="48.19084" lon="-3.89794">
        <ele>110.4</ele>
        <time>2020-06-08T10:48:54Z</time>
      </trkpt>
      <trkpt lat="48.19086" lon="-3.89798">
        <ele>110.3</ele>
        <time>2020-06-08T10:48:55Z</time>
      </trkpt>
      <trkpt lat="48.19087" lon="-3.89799">
        <ele>110.2</ele>
        <time>2020-06-08T10:48:56Z</time>
      </trkpt>
      <trkpt lat="48.19088" lon="-3.89801">
        <ele>110.2</ele>
        <time>2020-06-08T10:48:57Z</time>
      </trkpt>
      <trkpt lat="48.19089" lon="-3.89801">
        <ele>110.1</ele>
        <time>2020-06-08T10:48:58Z</time>
      </trkpt>
      <trkpt lat="48.19091" lon="-3.89802">
        <ele>110.1</ele>
        <time>2020-06-08T10:48:59Z</time>
      </trkpt>
      <trkpt lat="48.19091" lon="-3.89803">
        <ele>110</ele>
        <time>2020-06-08T10:49:00Z</time>
      </trkpt>
      <trkpt lat="48.19092" lon="-3.89803">
        <ele>110</ele>
        <time>2020-06-08T10:49:01Z</time>
      </trkpt>
      <trkpt lat="48.19092" lon="-3.89803">
        <ele>110</ele>
        <time>2020-06-08T10:49:02Z</time>
      </trkpt>
      <trkpt lat="48.19092" lon="-3.89802">
        <ele>110</ele>
        <time>2020-06-08T10:49:03Z</time>
      </trkpt>
      <trkpt lat="48.19092" lon="-3.89802">
        <ele>110</ele>
        <time>2020-06-08T10:49:04Z</time>
      </trkpt>
      <trkpt lat="48.19092" lon="-3.89801">
        <ele>110</ele>
        <time>2020-06-08T10:49:05Z</time>
      </trkpt>
      <trkpt lat="48.19091" lon="-3.89801">
        <ele>110</ele>
        <time>2020-06-08T10:49:06Z</time>
      </trkpt>
      <trkpt lat="48.19091" lon="-3.89801">
        <ele>109.9</ele>
        <time>2020-06-08T10:49:07Z</time>
      </trkpt>
      <trkpt lat="48.19091" lon="-3.898">
        <ele>109.9</ele>
        <time>2020-06-08T10:49:08Z</time>
      </trkpt>
      <trkpt lat="48.19091" lon="-3.898">
        <ele>109.9</ele>
        <time>2020-06-08T10:49:09Z</time>
      </trkpt>
      <trkpt lat="48.19091" lon="-3.89799">
        <ele>109.9</ele>
        <time>2020-06-08T10:49:10Z</time>
      </trkpt>
      <trkpt lat="48.1909" lon="-3.89799">
        <ele>109.9</ele>
        <time>2020-06-08T10:49:11Z</time>
      </trkpt>
      <trkpt lat="48.1909" lon="-3.89799">
        <ele>109.9</ele>
        <time>2020-06-08T10:50:23Z</time>
      </trkpt>
      <trkpt lat="48.1909" lon="-3.89798">
        <ele>109.9</ele>
        <time>2020-06-08T10:50:24Z</time>
      </trkpt>
      <trkpt lat="48.1909" lon="-3.89798">
        <ele>109.9</ele>
        <time>2020-06-08T10:50:25Z</time>
      </trkpt>
      <trkpt lat="48.1909" lon="-3.89798">
        <ele>109.9</ele>
        <time>2020-06-08T10:50:26Z</time>
      </trkpt>
      <trkpt lat="48.19089" lon="-3.89797">
        <ele>109.8</ele>
        <time>2020-06-08T10:50:27Z</time>
      </trkpt>
      <trkpt lat="48.19089" lon="-3.89797">
        <ele>109.8</ele>
        <time>2020-06-08T10:50:28Z</time>
      </trkpt>
      <trkpt lat="48.19089" lon="-3.89796">
        <ele>109.8</ele>
        <time>2020-06-08T10:50:29Z</time>
      </trkpt>
      <trkpt lat="48.19089" lon="-3.89796">
        <ele>109.8</ele>
        <time>2020-06-08T10:50:30Z</time>
      </trkpt>
      <trkpt lat="48.19089" lon="-3.89796">
        <ele>109.8</ele>
        <time>2020-06-08T10:50:31Z</time>
      </trkpt>
      <trkpt lat="48.19088" lon="-3.89795">
        <ele>109.8</ele>
        <time>2020-06-08T10:50:32Z</time>
      </trkpt>
      <trkpt lat="48.19088" lon="-3.89795">
        <ele>109.8</ele>
        <time>2020-06-08T10:50:33Z</time>
      </trkpt>
      <trkpt lat="48.19088" lon="-3.89794">
        <ele>109.8</ele>
        <time>2020-06-08T10:50:34Z</time>
      </trkpt>
      <trkpt lat="48.19088" lon="-3.89794">
        <ele>109.8</ele>
        <time>2020-06-08T10:50:35Z</time>
      </trkpt>
      <trkpt lat="48.19088" lon="-3.89794">
        <ele>109.7</ele>
        <time>2020-06-08T10:51:11Z</time>
      </trkpt>
      <trkpt lat="48.19087" lon="-3.89793">
        <ele>109.7</ele>
        <time>2020-06-08T10:51:12Z</time>
      </trkpt>
      <trkpt lat="48.19087" lon="-3.89793">
        <ele>109.7</ele>
        <time>2020-06-08T10:51:13Z</time>
      </trkpt>
      <trkpt lat="48.19084" lon="-3.8979">
        <ele>109.6</ele>
        <time>2020-06-08T10:51:14Z</time>
      </trkpt>
      <trkpt lat="48.19083" lon="-3.89788">
        <ele>109.5</ele>
        <time>2020-06-08T10:51:15Z</time>
      </trkpt>
      <trkpt lat="48.1908" lon="-3.89786">
        <ele>109.4</ele>
        <time>2020-06-08T10:51:16Z</time>
      </trkpt>
      <trkpt lat="48.19077" lon="-3.89782">
        <ele>109.3</ele>
        <time>2020-06-08T10:51:17Z</time>
      </trkpt>
      <trkpt lat="48.19074" lon="-3.89777">
        <ele>109.1</ele>
        <time>2020-06-08T10:51:18Z</time>
      </trkpt>
      <trkpt lat="48.1907" lon="-3.89772">
        <ele>109</ele>
        <time>2020-06-08T10:51:19Z</time>
      </trkpt>
      <trkpt lat="48.19067" lon="-3.89768">
        <ele>108.8</ele>
        <time>2020-06-08T10:51:20Z</time>
      </trkpt>
      <trkpt lat="48.19064" lon="-3.89763">
        <ele>108.6</ele>
        <time>2020-06-08T10:51:21Z</time>
      </trkpt>
      <trkpt lat="48.19062" lon="-3.89758">
        <ele>108.5</ele>
        <time>2020-06-08T10:51:22Z</time>
      </trkpt>
      <trkpt lat="48.19059" lon="-3.89751">
        <ele>108.3</ele>
        <time>2020-06-08T10:51:23Z</time>
      </trkpt>
      <trkpt lat="48.19055" lon="-3.89746">
        <ele>108</ele>
        <time>2020-06-08T10:51:24Z</time>
      </trkpt>
      <trkpt lat="48.19052" lon="-3.89741">
        <ele>107.8</ele>
        <time>2020-06-08T10:51:25Z</time>
      </trkpt>
      <trkpt lat="48.19049" lon="-3.89736">
        <ele>107.6</ele>
        <time>2020-06-08T10:51:26Z</time>
      </trkpt>
      <trkpt lat="48.19045" lon="-3.8973">
        <ele>107.4</ele>
        <time>2020-06-08T10:51:27Z</time>
      </trkpt>
      <trkpt lat="48.19042" lon="-3.89724">
        <ele>107.2</ele>
        <time>2020-06-08T10:51:28Z</time>
      </trkpt>
      <trkpt lat="48.19039" lon="-3.89718">
        <ele>107</ele>
        <time>2020-06-08T10:51:29Z</time>
      </trkpt>
      <trkpt lat="48.19035" lon="-3.89712">
        <ele>106.7</ele>
        <time>2020-06-08T10:51:30Z</time>
      </trkpt>
      <trkpt lat="48.19032" lon="-3.89708">
        <ele>106.5</ele>
        <time>2020-06-08T10:51:31Z</time>
      </trkpt>
      <trkpt lat="48.19029" lon="-3.89705">
        <ele>106.3</ele>
        <time>2020-06-08T10:51:32Z</time>
      </trkpt>
      <trkpt lat="48.19029" lon="-3.89704">
        <ele>106.2</ele>
        <time>2020-06-08T10:51:33Z</time>
      </trkpt>
      <trkpt lat="48.19026" lon="-3.89702">
        <ele>106.1</ele>
        <time>2020-06-08T10:51:34Z</time>
      </trkpt>
      <trkpt lat="48.19025" lon="-3.89701">
        <ele>106</ele>
        <time>2020-06-08T10:51:35Z</time>
      </trkpt>
      <trkpt lat="48.19023" lon="-3.89697">
        <ele>105.9</ele>
        <time>2020-06-08T10:51:36Z</time>
      </trkpt>
      <trkpt lat="48.19023" lon="-3.89695">
        <ele>105.8</ele>
        <time>2020-06-08T10:51:37Z</time>
      </trkpt>
      <trkpt lat="48.19021" lon="-3.89692">
        <ele>105.6</ele>
        <time>2020-06-08T10:51:38Z</time>
      </trkpt>
      <trkpt lat="48.19021" lon="-3.89691">
        <ele>105.6</ele>
        <time>2020-06-08T10:51:39Z</time>
      </trkpt>
      <trkpt lat="48.1902" lon="-3.8969">
        <ele>105.5</ele>
        <time>2020-06-08T10:51:40Z</time>
      </trkpt>
      <trkpt lat="48.19021" lon="-3.8969">
        <ele>105.5</ele>
        <time>2020-06-08T10:51:41Z</time>
      </trkpt>
      <trkpt lat="48.19021" lon="-3.89691">
        <ele>105.5</ele>
        <time>2020-06-08T10:51:42Z</time>
      </trkpt>
      <trkpt lat="48.19021" lon="-3.89691">
        <ele>105.4</ele>
        <time>2020-06-08T10:51:43Z</time>
      </trkpt>
      <trkpt lat="48.19021" lon="-3.89691">
        <ele>105.4</ele>
        <time>2020-06-08T10:51:44Z</time>
      </trkpt>
      <trkpt lat="48.19021" lon="-3.89691">
        <ele>105.4</ele>
        <time>2020-06-08T10:51:45Z</time>
      </trkpt>
      <trkpt lat="48.19021" lon="-3.89691">
        <ele>105.4</ele>
        <time>2020-06-08T10:51:46Z</time>
      </trkpt>
      <trkpt lat="48.19021" lon="-3.89691">
        <ele>105.4</ele>
        <time>2020-06-08T10:51:47Z</time>
      </trkpt>
      <trkpt lat="48.19021" lon="-3.89691">
        <ele>105.4</ele>
        <time>2020-06-08T10:51:48Z</time>
      </trkpt>
      <trkpt lat="48.19022" lon="-3.89691">
        <ele>105.4</ele>
        <time>2020-06-08T10:51:49Z</time>
      </trkpt>
      <trkpt lat="48.19022" lon="-3.89691">
        <ele>105.4</ele>
        <time>2020-06-08T10:51:50Z</time>
      </trkpt>
      <trkpt lat="48.19022" lon="-3.89691">
        <ele>105.4</ele>
        <time>2020-06-08T10:51:51Z</time>
      </trkpt>
      <trkpt lat="48.19021" lon="-3.89695">
        <ele>105.2</ele>
        <time>2020-06-08T10:52:34Z</time>
      </trkpt>
      <trkpt lat="48.19021" lon="-3.89696">
        <ele>105.2</ele>
        <time>2020-06-08T10:52:35Z</time>
      </trkpt>
      <trkpt lat="48.19022" lon="-3.89699">
        <ele>105.4</ele>
        <time>2020-06-08T10:52:36Z</time>
      </trkpt>
      <trkpt lat="48.19022" lon="-3.897">
        <ele>105.4</ele>
        <time>2020-06-08T10:52:37Z</time>
      </trkpt>
      <trkpt lat="48.19023" lon="-3.89701">
        <ele>105.5</ele>
        <time>2020-06-08T10:52:38Z</time>
      </trkpt>
      <trkpt lat="48.19025" lon="-3.89704">
        <ele>105.7</ele>
        <time>2020-06-08T10:52:39Z</time>
      </trkpt>
      <trkpt lat="48.19026" lon="-3.89705">
        <ele>105.8</ele>
        <time>2020-06-08T10:52:40Z</time>
      </trkpt>
      <trkpt lat="48.19027" lon="-3.89707">
        <ele>105.9</ele>
        <time>2020-06-08T10:52:41Z</time>
      </trkpt>
      <trkpt lat="48.19028" lon="-3.89709">
        <ele>106</ele>
        <time>2020-06-08T10:52:42Z</time>
      </trkpt>
      <trkpt lat="48.1903" lon="-3.89712">
        <ele>106.2</ele>
        <time>2020-06-08T10:52:43Z</time>
      </trkpt>
      <trkpt lat="48.19031" lon="-3.89713">
        <ele>106.3</ele>
        <time>2020-06-08T10:52:44Z</time>
      </trkpt>
      <trkpt lat="48.19035" lon="-3.89716">
        <ele>106.6</ele>
        <time>2020-06-08T10:52:45Z</time>
      </trkpt>
      <trkpt lat="48.19036" lon="-3.89717">
        <ele>106.7</ele>
        <time>2020-06-08T10:52:46Z</time>
      </trkpt>
      <trkpt lat="48.19038" lon="-3.8972">
        <ele>106.9</ele>
        <time>2020-06-08T10:52:47Z</time>
      </trkpt>
      <trkpt lat="48.1904" lon="-3.89723">
        <ele>107.1</ele>
        <time>2020-06-08T10:52:48Z</time>
      </trkpt>
      <trkpt lat="48.19041" lon="-3.89724">
        <ele>107.1</ele>
        <time>2020-06-08T10:52:49Z</time>
      </trkpt>
      <trkpt lat="48.19044" lon="-3.89727">
        <ele>107.3</ele>
        <time>2020-06-08T10:52:50Z</time>
      </trkpt>
      <trkpt lat="48.19045" lon="-3.89728">
        <ele>107.4</ele>
        <time>2020-06-08T10:52:51Z</time>
      </trkpt>
      <trkpt lat="48.19047" lon="-3.89731">
        <ele>107.6</ele>
        <time>2020-06-08T10:52:52Z</time>
      </trkpt>
      <trkpt lat="48.19048" lon="-3.89732">
        <ele>107.6</ele>
        <time>2020-06-08T10:52:53Z</time>
      </trkpt>
      <trkpt lat="48.1905" lon="-3.89736">
        <ele>107.8</ele>
        <time>2020-06-08T10:52:54Z</time>
      </trkpt>
      <trkpt lat="48.1905" lon="-3.89738">
        <ele>107.9</ele>
        <time>2020-06-08T10:52:55Z</time>
      </trkpt>
      <trkpt lat="48.19051" lon="-3.89743">
        <ele>108.1</ele>
        <time>2020-06-08T10:52:56Z</time>
      </trkpt>
      <trkpt lat="48.19051" lon="-3.89745">
        <ele>108.1</ele>
        <time>2020-06-08T10:52:57Z</time>
      </trkpt>
      <trkpt lat="48.19053" lon="-3.8975">
        <ele>108.3</ele>
        <time>2020-06-08T10:52:58Z</time>
      </trkpt>
      <trkpt lat="48.19054" lon="-3.89751">
        <ele>108.4</ele>
        <time>2020-06-08T10:52:59Z</time>
      </trkpt>
      <trkpt lat="48.19057" lon="-3.89754">
        <ele>108.6</ele>
        <time>2020-06-08T10:53:00Z</time>
      </trkpt>
      <trkpt lat="48.19059" lon="-3.89757">
        <ele>108.8</ele>
        <time>2020-06-08T10:53:01Z</time>
      </trkpt>
      <trkpt lat="48.19062" lon="-3.8976">
        <ele>108.9</ele>
        <time>2020-06-08T10:53:02Z</time>
      </trkpt>
      <trkpt lat="48.19063" lon="-3.8976">
        <ele>109</ele>
        <time>2020-06-08T10:53:03Z</time>
      </trkpt>
      <trkpt lat="48.19066" lon="-3.89762">
        <ele>109.1</ele>
        <time>2020-06-08T10:53:04Z</time>
      </trkpt>
      <trkpt lat="48.19067" lon="-3.89762">
        <ele>109.2</ele>
        <time>2020-06-08T10:53:05Z</time>
      </trkpt>
      <trkpt lat="48.1907" lon="-3.89765">
        <ele>109.3</ele>
        <time>2020-06-08T10:53:06Z</time>
      </trkpt>
      <trkpt lat="48.19071" lon="-3.89766">
        <ele>109.4</ele>
        <time>2020-06-08T10:53:07Z</time>
      </trkpt>
      <trkpt lat="48.19073" lon="-3.8977">
        <ele>109.5</ele>
        <time>2020-06-08T10:53:08Z</time>
      </trkpt>
      <trkpt lat="48.19074" lon="-3.89771">
        <ele>109.6</ele>
        <time>2020-06-08T10:53:09Z</time>
      </trkpt>
      <trkpt lat="48.19076" lon="-3.89776">
        <ele>109.8</ele>
        <time>2020-06-08T10:53:10Z</time>
      </trkpt>
      <trkpt lat="48.19077" lon="-3.89777">
        <ele>109.8</ele>
        <time>2020-06-08T10:53:11Z</time>
      </trkpt>
      <trkpt lat="48.1908" lon="-3.89781">
        <ele>110</ele>
        <time>2020-06-08T10:53:12Z</time>
      </trkpt>
      <trkpt lat="48.1908" lon="-3.89783">
        <ele>110</ele>
        <time>2020-06-08T10:53:13Z</time>
      </trkpt>
      <trkpt lat="48.19083" lon="-3.89786">
        <ele>110.2</ele>
        <time>2020-06-08T10:53:14Z</time>
      </trkpt>
      <trkpt lat="48.19083" lon="-3.89788">
        <ele>110.2</ele>
        <time>2020-06-08T10:53:15Z</time>
      </trkpt>
      <trkpt lat="48.19085" lon="-3.89791">
        <ele>110.3</ele>
        <time>2020-06-08T10:53:16Z</time>
      </trkpt>
      <trkpt lat="48.19086" lon="-3.89792">
        <ele>110.4</ele>
        <time>2020-06-08T10:53:17Z</time>
      </trkpt>
      <trkpt lat="48.19088" lon="-3.89795">
        <ele>110.5</ele>
        <time>2020-06-08T10:53:18Z</time>
      </trkpt>
      <trkpt lat="48.19088" lon="-3.89796">
        <ele>110.6</ele>
        <time>2020-06-08T10:53:19Z</time>
      </trkpt>
      <trkpt lat="48.1909" lon="-3.89798">
        <ele>110.6</ele>
        <time>2020-06-08T10:53:20Z</time>
      </trkpt>
      <trkpt lat="48.19091" lon="-3.89799">
        <ele>110.7</ele>
        <time>2020-06-08T10:53:21Z</time>
      </trkpt>
      <trkpt lat="48.19093" lon="-3.89799">
        <ele>110.8</ele>
        <time>2020-06-08T10:53:22Z</time>
      </trkpt>
      <trkpt lat="48.19093" lon="-3.89799">
        <ele>110.8</ele>
        <time>2020-06-08T10:53:23Z</time>
      </trkpt>
      <trkpt lat="48.19094" lon="-3.89798">
        <ele>110.8</ele>
        <time>2020-06-08T10:53:24Z</time>
      </trkpt>
      <trkpt lat="48.19094" lon="-3.89798">
        <ele>110.9</ele>
        <time>2020-06-08T10:53:25Z</time>
      </trkpt>
      <trkpt lat="48.19094" lon="-3.89797">
        <ele>110.9</ele>
        <time>2020-06-08T10:53:26Z</time>
      </trkpt>
      <trkpt lat="48.19094" lon="-3.89797">
        <ele>110.9</ele>
        <time>2020-06-08T10:53:27Z</time>
      </trkpt>
      <trkpt lat="48.19095" lon="-3.89797">
        <ele>110.9</ele>
        <time>2020-06-08T10:53:28Z</time>
      </trkpt>
      <trkpt lat="48.19095" lon="-3.89796">
        <ele>110.9</ele>
        <time>2020-06-08T10:53:29Z</time>
      </trkpt>
      <trkpt lat="48.19095" lon="-3.89796">
        <ele>111</ele>
        <time>2020-06-08T10:53:30Z</time>
      </trkpt>
      <trkpt lat="48.19095" lon="-3.89795">
        <ele>111</ele>
        <time>2020-06-08T10:53:31Z</time>
      </trkpt>
      <trkpt lat="48.19096" lon="-3.89795">
        <ele>111</ele>
        <time>2020-06-08T10:53:32Z</time>
      </trkpt>
      <trkpt lat="48.19096" lon="-3.89795">
        <ele>111</ele>
        <time>2020-06-08T10:53:33Z</time>
      </trkpt>
      <trkpt lat="48.19096" lon="-3.89794">
        <ele>111</ele>
        <time>2020-06-08T10:53:41Z</time>
      </trkpt>
      <trkpt lat="48.19097" lon="-3.89794">
        <ele>111.1</ele>
        <time>2020-06-08T10:53:42Z</time>
      </trkpt>
      <trkpt lat="48.19097" lon="-3.89793">
        <ele>111.3</ele>
        <time>2020-06-08T10:53:43Z</time>
      </trkpt>
      <trkpt lat="48.191" lon="-3.89796">
        <ele>111.5</ele>
        <time>2020-06-08T10:53:44Z</time>
      </trkpt>
      <trkpt lat="48.19101" lon="-3.89798">
        <ele>111.6</ele>
        <time>2020-06-08T10:53:45Z</time>
      </trkpt>
      <trkpt lat="48.19104" lon="-3.89799">
        <ele>111.8</ele>
        <time>2020-06-08T10:53:46Z</time>
      </trkpt>
      <trkpt lat="48.19107" lon="-3.89801">
        <ele>112</ele>
        <time>2020-06-08T10:53:47Z</time>
      </trkpt>
      <trkpt lat="48.19108" lon="-3.89801">
        <ele>112.1</ele>
        <time>2020-06-08T10:53:48Z</time>
      </trkpt>
      <trkpt lat="48.19109" lon="-3.89802">
        <ele>112.2</ele>
        <time>2020-06-08T10:53:49Z</time>
      </trkpt>
      <trkpt lat="48.19111" lon="-3.89803">
        <ele>112.3</ele>
        <time>2020-06-08T10:53:50Z</time>
      </trkpt>
      <trkpt lat="48.19114" lon="-3.89804">
        <ele>112.5</ele>
        <time>2020-06-08T10:53:51Z</time>
      </trkpt>
      <trkpt lat="48.19115" lon="-3.89804">
        <ele>112.6</ele>
        <time>2020-06-08T10:53:52Z</time>
      </trkpt>
      <trkpt lat="48.19119" lon="-3.89806">
        <ele>112.8</ele>
        <time>2020-06-08T10:53:53Z</time>
      </trkpt>
      <trkpt lat="48.1912" lon="-3.89806">
        <ele>112.9</ele>
        <time>2020-06-08T10:53:54Z</time>
      </trkpt>
      <trkpt lat="48.19123" lon="-3.89807">
        <ele>113.1</ele>
        <time>2020-06-08T10:53:55Z</time>
      </trkpt>
      <trkpt lat="48.19124" lon="-3.89807">
        <ele>113.2</ele>
        <time>2020-06-08T10:53:56Z</time>
      </trkpt>
      <trkpt lat="48.19126" lon="-3.89807">
        <ele>113.3</ele>
        <time>2020-06-08T10:53:57Z</time>
      </trkpt>
      <trkpt lat="48.19127" lon="-3.89807">
        <ele>113.4</ele>
        <time>2020-06-08T10:53:58Z</time>
      </trkpt>
      <trkpt lat="48.19128" lon="-3.89809">
        <ele>113.5</ele>
        <time>2020-06-08T10:53:59Z</time>
      </trkpt>
      <trkpt lat="48.1913" lon="-3.8981">
        <ele>113.5</ele>
        <time>2020-06-08T10:54:00Z</time>
      </trkpt>
      <trkpt lat="48.19131" lon="-3.8981">
        <ele>113.6</ele>
        <time>2020-06-08T10:54:01Z</time>
      </trkpt>
      <trkpt lat="48.19133" lon="-3.89811">
        <ele>113.8</ele>
        <time>2020-06-08T10:54:02Z</time>
      </trkpt>
      <trkpt lat="48.19136" lon="-3.89812">
        <ele>114</ele>
        <time>2020-06-08T10:54:03Z</time>
      </trkpt>
      <trkpt lat="48.19137" lon="-3.89813">
        <ele>114.1</ele>
        <time>2020-06-08T10:54:04Z</time>
      </trkpt>
      <trkpt lat="48.1914" lon="-3.89814">
        <ele>114.2</ele>
        <time>2020-06-08T10:54:05Z</time>
      </trkpt>
      <trkpt lat="48.19141" lon="-3.89815">
        <ele>114.3</ele>
        <time>2020-06-08T10:54:06Z</time>
      </trkpt>
      <trkpt lat="48.19144" lon="-3.89815">
        <ele>114.5</ele>
        <time>2020-06-08T10:54:07Z</time>
      </trkpt>
      <trkpt lat="48.19148" lon="-3.89816">
        <ele>114.8</ele>
        <time>2020-06-08T10:54:08Z</time>
      </trkpt>
      <trkpt lat="48.19149" lon="-3.89816">
        <ele>114.8</ele>
        <time>2020-06-08T10:54:09Z</time>
      </trkpt>
      <trkpt lat="48.19152" lon="-3.89818">
        <ele>115.1</ele>
        <time>2020-06-08T10:54:10Z</time>
      </trkpt>
      <trkpt lat="48.19153" lon="-3.89819">
        <ele>115.1</ele>
        <time>2020-06-08T10:54:11Z</time>
      </trkpt>
      <trkpt lat="48.19155" lon="-3.8982">
        <ele>115.3</ele>
        <time>2020-06-08T10:54:12Z</time>
      </trkpt>
      <trkpt lat="48.19156" lon="-3.8982">
        <ele>115.4</ele>
        <time>2020-06-08T10:54:13Z</time>
      </trkpt>
      <trkpt lat="48.19159" lon="-3.89821">
        <ele>115.6</ele>
        <time>2020-06-08T10:54:14Z</time>
      </trkpt>
      <trkpt lat="48.1916" lon="-3.89822">
        <ele>115.7</ele>
        <time>2020-06-08T10:54:15Z</time>
      </trkpt>
      <trkpt lat="48.19163" lon="-3.89824">
        <ele>115.9</ele>
        <time>2020-06-08T10:54:16Z</time>
      </trkpt>
      <trkpt lat="48.19165" lon="-3.89824">
        <ele>116</ele>
        <time>2020-06-08T10:54:17Z</time>
      </trkpt>
      <trkpt lat="48.19168" lon="-3.89824">
        <ele>116.2</ele>
        <time>2020-06-08T10:54:18Z</time>
      </trkpt>
      <trkpt lat="48.19169" lon="-3.89824">
        <ele>116.3</ele>
        <time>2020-06-08T10:54:19Z</time>
      </trkpt>
      <trkpt lat="48.19172" lon="-3.89825">
        <ele>116.4</ele>
        <time>2020-06-08T10:54:20Z</time>
      </trkpt>
      <trkpt lat="48.19173" lon="-3.89826">
        <ele>116.7</ele>
        <time>2020-06-08T10:54:21Z</time>
      </trkpt>
      <trkpt lat="48.19174" lon="-3.89825">
        <ele>116.7</ele>
        <time>2020-06-08T10:54:22Z</time>
      </trkpt>
      <trkpt lat="48.19176" lon="-3.89825">
        <ele>116.7</ele>
        <time>2020-06-08T10:54:23Z</time>
      </trkpt>
      <trkpt lat="48.19178" lon="-3.89824">
        <ele>116.8</ele>
        <time>2020-06-08T10:54:24Z</time>
      </trkpt>
      <trkpt lat="48.19179" lon="-3.89823">
        <ele>116.8</ele>
        <time>2020-06-08T10:54:25Z</time>
      </trkpt>
      <trkpt lat="48.19181" lon="-3.89819">
        <ele>116.9</ele>
        <time>2020-06-08T10:54:26Z</time>
      </trkpt>
      <trkpt lat="48.19181" lon="-3.89818">
        <ele>116.9</ele>
        <time>2020-06-08T10:54:27Z</time>
      </trkpt>
      <trkpt lat="48.19184" lon="-3.89815">
        <ele>117.4</ele>
        <time>2020-06-08T10:54:28Z</time>
      </trkpt>
      <trkpt lat="48.19185" lon="-3.89814">
        <ele>117.4</ele>
        <time>2020-06-08T10:54:29Z</time>
      </trkpt>
      <trkpt lat="48.19187" lon="-3.89811">
        <ele>117.5</ele>
        <time>2020-06-08T10:54:30Z</time>
      </trkpt>
      <trkpt lat="48.1919" lon="-3.8981">
        <ele>117.6</ele>
        <time>2020-06-08T10:54:31Z</time>
      </trkpt>
      <trkpt lat="48.19193" lon="-3.89809">
        <ele>117.7</ele>
        <time>2020-06-08T10:54:32Z</time>
      </trkpt>
      <trkpt lat="48.19195" lon="-3.89809">
        <ele>117.7</ele>
        <time>2020-06-08T10:54:33Z</time>
      </trkpt>
      <trkpt lat="48.19198" lon="-3.89809">
        <ele>117.8</ele>
        <time>2020-06-08T10:54:34Z</time>
      </trkpt>
      <trkpt lat="48.19199" lon="-3.89809">
        <ele>117.8</ele>
        <time>2020-06-08T10:54:35Z</time>
      </trkpt>
      <trkpt lat="48.192" lon="-3.89809">
        <ele>117.9</ele>
        <time>2020-06-08T10:54:36Z</time>
      </trkpt>
      <trkpt lat="48.19202" lon="-3.89809">
        <ele>118</ele>
        <time>2020-06-08T10:54:37Z</time>
      </trkpt>
      <trkpt lat="48.19205" lon="-3.89809">
        <ele>118.1</ele>
        <time>2020-06-08T10:54:38Z</time>
      </trkpt>
      <trkpt lat="48.19206" lon="-3.89808">
        <ele>118.1</ele>
        <time>2020-06-08T10:54:39Z</time>
      </trkpt>
      <trkpt lat="48.19209" lon="-3.89808">
        <ele>118.2</ele>
        <time>2020-06-08T10:54:40Z</time>
      </trkpt>
      <trkpt lat="48.19212" lon="-3.89808">
        <ele>118.3</ele>
        <time>2020-06-08T10:54:41Z</time>
      </trkpt>
      <trkpt lat="48.19213" lon="-3.89808">
        <ele>118.3</ele>
        <time>2020-06-08T10:54:42Z</time>
      </trkpt>
      <trkpt lat="48.19216" lon="-3.89807">
        <ele>118.4</ele>
        <time>2020-06-08T10:54:43Z</time>
      </trkpt>
      <trkpt lat="48.19219" lon="-3.89806">
        <ele>118.5</ele>
        <time>2020-06-08T10:54:44Z</time>
      </trkpt>
      <trkpt lat="48.1922" lon="-3.89805">
        <ele>118.5</ele>
        <time>2020-06-08T10:54:45Z</time>
      </trkpt>
      <trkpt lat="48.19224" lon="-3.89805">
        <ele>118.6</ele>
        <time>2020-06-08T10:54:46Z</time>
      </trkpt>
      <trkpt lat="48.19225" lon="-3.89804">
        <ele>118.6</ele>
        <time>2020-06-08T10:54:47Z</time>
      </trkpt>
      <trkpt lat="48.19229" lon="-3.89804">
        <ele>118.8</ele>
        <time>2020-06-08T10:54:48Z</time>
      </trkpt>
      <trkpt lat="48.1923" lon="-3.89804">
        <ele>118.8</ele>
        <time>2020-06-08T10:54:49Z</time>
      </trkpt>
      <trkpt lat="48.19233" lon="-3.89803">
        <ele>119</ele>
        <time>2020-06-08T10:54:50Z</time>
      </trkpt>
      <trkpt lat="48.19236" lon="-3.89802">
        <ele>119.1</ele>
        <time>2020-06-08T10:54:51Z</time>
      </trkpt>
      <trkpt lat="48.19237" lon="-3.89802">
        <ele>119.2</ele>
        <time>2020-06-08T10:54:52Z</time>
      </trkpt>
      <trkpt lat="48.1924" lon="-3.89803">
        <ele>119.3</ele>
        <time>2020-06-08T10:54:53Z</time>
      </trkpt>
      <trkpt lat="48.19241" lon="-3.89803">
        <ele>119.3</ele>
        <time>2020-06-08T10:54:54Z</time>
      </trkpt>
      <trkpt lat="48.19244" lon="-3.89803">
        <ele>119.5</ele>
        <time>2020-06-08T10:54:55Z</time>
      </trkpt>
      <trkpt lat="48.19245" lon="-3.89803">
        <ele>119.6</ele>
        <time>2020-06-08T10:54:56Z</time>
      </trkpt>
      <trkpt lat="48.19249" lon="-3.89803">
        <ele>119.7</ele>
        <time>2020-06-08T10:54:57Z</time>
      </trkpt>
      <trkpt lat="48.1925" lon="-3.89803">
        <ele>119.8</ele>
        <time>2020-06-08T10:54:58Z</time>
      </trkpt>
      <trkpt lat="48.19253" lon="-3.89803">
        <ele>120</ele>
        <time>2020-06-08T10:54:59Z</time>
      </trkpt>
      <trkpt lat="48.19254" lon="-3.89803">
        <ele>120</ele>
        <time>2020-06-08T10:55:00Z</time>
      </trkpt>
      <trkpt lat="48.19257" lon="-3.89803">
        <ele>120.1</ele>
        <time>2020-06-08T10:55:01Z</time>
      </trkpt>
      <trkpt lat="48.19258" lon="-3.89803">
        <ele>120.2</ele>
        <time>2020-06-08T10:55:02Z</time>
      </trkpt>
      <trkpt lat="48.19259" lon="-3.89804">
        <ele>120.2</ele>
        <time>2020-06-08T10:55:03Z</time>
      </trkpt>
      <trkpt lat="48.19261" lon="-3.89803">
        <ele>120.2</ele>
        <time>2020-06-08T10:55:04Z</time>
      </trkpt>
      <trkpt lat="48.19263" lon="-3.89803">
        <ele>120.2</ele>
        <time>2020-06-08T10:55:05Z</time>
      </trkpt>
      <trkpt lat="48.19264" lon="-3.89804">
        <ele>120.3</ele>
        <time>2020-06-08T10:55:06Z</time>
      </trkpt>
      <trkpt lat="48.19267" lon="-3.89806">
        <ele>120.3</ele>
        <time>2020-06-08T10:55:07Z</time>
      </trkpt>
      <trkpt lat="48.19268" lon="-3.89807">
        <ele>120.3</ele>
        <time>2020-06-08T10:55:08Z</time>
      </trkpt>
      <trkpt lat="48.19272" lon="-3.89808">
        <ele>120.5</ele>
        <time>2020-06-08T10:55:09Z</time>
      </trkpt>
      <trkpt lat="48.19273" lon="-3.89809">
        <ele>120.5</ele>
        <time>2020-06-08T10:55:10Z</time>
      </trkpt>
      <trkpt lat="48.19275" lon="-3.89811">
        <ele>120.6</ele>
        <time>2020-06-08T10:55:11Z</time>
      </trkpt>
      <trkpt lat="48.19278" lon="-3.89813">
        <ele>120.7</ele>
        <time>2020-06-08T10:55:12Z</time>
      </trkpt>
      <trkpt lat="48.19281" lon="-3.89814">
        <ele>120.8</ele>
        <time>2020-06-08T10:55:13Z</time>
      </trkpt>
      <trkpt lat="48.19282" lon="-3.89815">
        <ele>120.8</ele>
        <time>2020-06-08T10:55:14Z</time>
      </trkpt>
      <trkpt lat="48.19284" lon="-3.89815">
        <ele>120.9</ele>
        <time>2020-06-08T10:55:15Z</time>
      </trkpt>
      <trkpt lat="48.19285" lon="-3.89816">
        <ele>121</ele>
        <time>2020-06-08T10:55:16Z</time>
      </trkpt>
      <trkpt lat="48.19288" lon="-3.89818">
        <ele>121.1</ele>
        <time>2020-06-08T10:55:17Z</time>
      </trkpt>
      <trkpt lat="48.19289" lon="-3.89818">
        <ele>121.1</ele>
        <time>2020-06-08T10:55:18Z</time>
      </trkpt>
      <trkpt lat="48.19293" lon="-3.8982">
        <ele>121.2</ele>
        <time>2020-06-08T10:55:19Z</time>
      </trkpt>
      <trkpt lat="48.19294" lon="-3.89821">
        <ele>121.3</ele>
        <time>2020-06-08T10:55:20Z</time>
      </trkpt>
      <trkpt lat="48.19296" lon="-3.89822">
        <ele>121.4</ele>
        <time>2020-06-08T10:55:21Z</time>
      </trkpt>
      <trkpt lat="48.193" lon="-3.89824">
        <ele>121.5</ele>
        <time>2020-06-08T10:55:22Z</time>
      </trkpt>
      <trkpt lat="48.19301" lon="-3.89825">
        <ele>121.5</ele>
        <time>2020-06-08T10:55:23Z</time>
      </trkpt>
      <trkpt lat="48.19304" lon="-3.89828">
        <ele>121.7</ele>
        <time>2020-06-08T10:55:24Z</time>
      </trkpt>
      <trkpt lat="48.19306" lon="-3.89829">
        <ele>121.7</ele>
        <time>2020-06-08T10:55:25Z</time>
      </trkpt>
      <trkpt lat="48.19309" lon="-3.8983">
        <ele>121.8</ele>
        <time>2020-06-08T10:55:26Z</time>
      </trkpt>
      <trkpt lat="48.19311" lon="-3.89831">
        <ele>121.9</ele>
        <time>2020-06-08T10:55:27Z</time>
      </trkpt>
      <trkpt lat="48.19315" lon="-3.89833">
        <ele>122</ele>
        <time>2020-06-08T10:55:28Z</time>
      </trkpt>
      <trkpt lat="48.19316" lon="-3.89833">
        <ele>122</ele>
        <time>2020-06-08T10:55:29Z</time>
      </trkpt>
      <trkpt lat="48.19319" lon="-3.89835">
        <ele>122.1</ele>
        <time>2020-06-08T10:55:30Z</time>
      </trkpt>
      <trkpt lat="48.1932" lon="-3.89836">
        <ele>122.1</ele>
        <time>2020-06-08T10:55:31Z</time>
      </trkpt>
      <trkpt lat="48.19324" lon="-3.89837">
        <ele>122.2</ele>
        <time>2020-06-08T10:55:32Z</time>
      </trkpt>
      <trkpt lat="48.19325" lon="-3.89837">
        <ele>122.2</ele>
        <time>2020-06-08T10:55:33Z</time>
      </trkpt>
      <trkpt lat="48.19328" lon="-3.89839">
        <ele>122.3</ele>
        <time>2020-06-08T10:55:34Z</time>
      </trkpt>
      <trkpt lat="48.19332" lon="-3.89838">
        <ele>122.3</ele>
        <time>2020-06-08T10:55:35Z</time>
      </trkpt>
      <trkpt lat="48.19334" lon="-3.89838">
        <ele>122.4</ele>
        <time>2020-06-08T10:55:36Z</time>
      </trkpt>
      <trkpt lat="48.19338" lon="-3.8984">
        <ele>122.4</ele>
        <time>2020-06-08T10:55:37Z</time>
      </trkpt>
      <trkpt lat="48.19339" lon="-3.89841">
        <ele>122.4</ele>
        <time>2020-06-08T10:55:38Z</time>
      </trkpt>
      <trkpt lat="48.19342" lon="-3.89843">
        <ele>122.5</ele>
        <time>2020-06-08T10:55:39Z</time>
      </trkpt>
      <trkpt lat="48.19344" lon="-3.89844">
        <ele>122.5</ele>
        <time>2020-06-08T10:55:40Z</time>
      </trkpt>
      <trkpt lat="48.19346" lon="-3.89846">
        <ele>122.5</ele>
        <time>2020-06-08T10:55:41Z</time>
      </trkpt>
      <trkpt lat="48.1935" lon="-3.89847">
        <ele>122.5</ele>
        <time>2020-06-08T10:55:42Z</time>
      </trkpt>
      <trkpt lat="48.19352" lon="-3.89846">
        <ele>122.5</ele>
        <time>2020-06-08T10:55:43Z</time>
      </trkpt>
      <trkpt lat="48.19355" lon="-3.89848">
        <ele>122.5</ele>
        <time>2020-06-08T10:55:44Z</time>
      </trkpt>
      <trkpt lat="48.19356" lon="-3.89849">
        <ele>122.5</ele>
        <time>2020-06-08T10:55:45Z</time>
      </trkpt>
      <trkpt lat="48.1936" lon="-3.8985">
        <ele>122.5</ele>
        <time>2020-06-08T10:55:46Z</time>
      </trkpt>
      <trkpt lat="48.19361" lon="-3.89851">
        <ele>122.5</ele>
        <time>2020-06-08T10:55:47Z</time>
      </trkpt>
      <trkpt lat="48.19364" lon="-3.89853">
        <ele>122.5</ele>
        <time>2020-06-08T10:55:48Z</time>
      </trkpt>
      <trkpt lat="48.19368" lon="-3.89852">
        <ele>122.4</ele>
        <time>2020-06-08T10:55:49Z</time>
      </trkpt>
      <trkpt lat="48.19369" lon="-3.89852">
        <ele>122.4</ele>
        <time>2020-06-08T10:55:50Z</time>
      </trkpt>
      <trkpt lat="48.19372" lon="-3.89852">
        <ele>122.3</ele>
        <time>2020-06-08T10:55:51Z</time>
      </trkpt>
      <trkpt lat="48.19375" lon="-3.89852">
        <ele>122.3</ele>
        <time>2020-06-08T10:55:52Z</time>
      </trkpt>
      <trkpt lat="48.19378" lon="-3.89853">
        <ele>122.2</ele>
        <time>2020-06-08T10:55:53Z</time>
      </trkpt>
      <trkpt lat="48.19382" lon="-3.89853">
        <ele>122</ele>
        <time>2020-06-08T10:55:54Z</time>
      </trkpt>
      <trkpt lat="48.19384" lon="-3.89852">
        <ele>121.9</ele>
        <time>2020-06-08T10:55:55Z</time>
      </trkpt>
      <trkpt lat="48.19388" lon="-3.89849">
        <ele>121.7</ele>
        <time>2020-06-08T10:55:56Z</time>
      </trkpt>
      <trkpt lat="48.19392" lon="-3.89848">
        <ele>121.6</ele>
        <time>2020-06-08T10:55:57Z</time>
      </trkpt>
      <trkpt lat="48.19397" lon="-3.89849">
        <ele>121.4</ele>
        <time>2020-06-08T10:55:58Z</time>
      </trkpt>
      <trkpt lat="48.194" lon="-3.8985">
        <ele>121.2</ele>
        <time>2020-06-08T10:55:59Z</time>
      </trkpt>
      <trkpt lat="48.19403" lon="-3.8985">
        <ele>121.1</ele>
        <time>2020-06-08T10:56:00Z</time>
      </trkpt>
      <trkpt lat="48.19406" lon="-3.89851">
        <ele>120.9</ele>
        <time>2020-06-08T10:56:01Z</time>
      </trkpt>
      <trkpt lat="48.19409" lon="-3.89851">
        <ele>120.8</ele>
        <time>2020-06-08T10:56:02Z</time>
      </trkpt>
      <trkpt lat="48.19413" lon="-3.89851">
        <ele>120.7</ele>
        <time>2020-06-08T10:56:03Z</time>
      </trkpt>
      <trkpt lat="48.19414" lon="-3.89851">
        <ele>120.6</ele>
        <time>2020-06-08T10:56:04Z</time>
      </trkpt>
      <trkpt lat="48.19419" lon="-3.89851">
        <ele>120.5</ele>
        <time>2020-06-08T10:56:05Z</time>
      </trkpt>
      <trkpt lat="48.19423" lon="-3.8985">
        <ele>120.3</ele>
        <time>2020-06-08T10:56:06Z</time>
      </trkpt>
      <trkpt lat="48.19427" lon="-3.8985">
        <ele>120.1</ele>
        <time>2020-06-08T10:56:07Z</time>
      </trkpt>
      <trkpt lat="48.19432" lon="-3.89848">
        <ele>119.9</ele>
        <time>2020-06-08T10:56:08Z</time>
      </trkpt>
      <trkpt lat="48.19435" lon="-3.89848">
        <ele>119.8</ele>
        <time>2020-06-08T10:56:09Z</time>
      </trkpt>
      <trkpt lat="48.19439" lon="-3.89849">
        <ele>119.7</ele>
        <time>2020-06-08T10:56:10Z</time>
      </trkpt>
      <trkpt lat="48.19443" lon="-3.89849">
        <ele>119.5</ele>
        <time>2020-06-08T10:56:11Z</time>
      </trkpt>
      <trkpt lat="48.19448" lon="-3.89849">
        <ele>119.3</ele>
        <time>2020-06-08T10:56:12Z</time>
      </trkpt>
      <trkpt lat="48.19453" lon="-3.89849">
        <ele>119.1</ele>
        <time>2020-06-08T10:56:13Z</time>
      </trkpt>
      <trkpt lat="48.19459" lon="-3.89849">
        <ele>118.8</ele>
        <time>2020-06-08T10:56:14Z</time>
      </trkpt>
      <trkpt lat="48.19464" lon="-3.8985">
        <ele>118.4</ele>
        <time>2020-06-08T10:56:15Z</time>
      </trkpt>
      <trkpt lat="48.1947" lon="-3.8985">
        <ele>118.1</ele>
        <time>2020-06-08T10:56:16Z</time>
      </trkpt>
      <trkpt lat="48.19476" lon="-3.89851">
        <ele>117.8</ele>
        <time>2020-06-08T10:56:17Z</time>
      </trkpt>
      <trkpt lat="48.19484" lon="-3.89851">
        <ele>117.4</ele>
        <time>2020-06-08T10:56:18Z</time>
      </trkpt>
      <trkpt lat="48.1949" lon="-3.89853">
        <ele>117.1</ele>
        <time>2020-06-08T10:56:19Z</time>
      </trkpt>
      <trkpt lat="48.19496" lon="-3.89855">
        <ele>116.7</ele>
        <time>2020-06-08T10:56:20Z</time>
      </trkpt>
      <trkpt lat="48.19503" lon="-3.89858">
        <ele>116.4</ele>
        <time>2020-06-08T10:56:21Z</time>
      </trkpt>
      <trkpt lat="48.19511" lon="-3.89862">
        <ele>116</ele>
        <time>2020-06-08T10:56:22Z</time>
      </trkpt>
      <trkpt lat="48.1952" lon="-3.89864">
        <ele>115.7</ele>
        <time>2020-06-08T10:56:23Z</time>
      </trkpt>
      <trkpt lat="48.19528" lon="-3.89866">
        <ele>115.4</ele>
        <time>2020-06-08T10:56:24Z</time>
      </trkpt>
      <trkpt lat="48.19537" lon="-3.89869">
        <ele>115.9</ele>
        <time>2020-06-08T10:56:25Z</time>
      </trkpt>
      <trkpt lat="48.19546" lon="-3.89873">
        <ele>114.8</ele>
        <time>2020-06-08T10:56:26Z</time>
      </trkpt>
      <trkpt lat="48.19555" lon="-3.89877">
        <ele>113.6</ele>
        <time>2020-06-08T10:56:27Z</time>
      </trkpt>
      <trkpt lat="48.19563" lon="-3.8988">
        <ele>112.6</ele>
        <time>2020-06-08T10:56:28Z</time>
      </trkpt>
      <trkpt lat="48.19571" lon="-3.89884">
        <ele>111.9</ele>
        <time>2020-06-08T10:56:29Z</time>
      </trkpt>
      <trkpt lat="48.19579" lon="-3.89888">
        <ele>111.6</ele>
        <time>2020-06-08T10:56:30Z</time>
      </trkpt>
      <trkpt lat="48.19587" lon="-3.89891">
        <ele>111.2</ele>
        <time>2020-06-08T10:56:31Z</time>
      </trkpt>
      <trkpt lat="48.19595" lon="-3.89894">
        <ele>110.9</ele>
        <time>2020-06-08T10:56:32Z</time>
      </trkpt>
      <trkpt lat="48.19604" lon="-3.89897">
        <ele>110.5</ele>
        <time>2020-06-08T10:56:33Z</time>
      </trkpt>
      <trkpt lat="48.19611" lon="-3.899">
        <ele>110.2</ele>
        <time>2020-06-08T10:56:34Z</time>
      </trkpt>
      <trkpt lat="48.19619" lon="-3.89904">
        <ele>109.9</ele>
        <time>2020-06-08T10:56:35Z</time>
      </trkpt>
      <trkpt lat="48.19626" lon="-3.89907">
        <ele>109.5</ele>
        <time>2020-06-08T10:56:36Z</time>
      </trkpt>
      <trkpt lat="48.19633" lon="-3.89912">
        <ele>109.2</ele>
        <time>2020-06-08T10:56:37Z</time>
      </trkpt>
      <trkpt lat="48.1964" lon="-3.89916">
        <ele>108.9</ele>
        <time>2020-06-08T10:56:38Z</time>
      </trkpt>
      <trkpt lat="48.19647" lon="-3.8992">
        <ele>108.8</ele>
        <time>2020-06-08T10:56:39Z</time>
      </trkpt>
      <trkpt lat="48.19654" lon="-3.89923">
        <ele>108.6</ele>
        <time>2020-06-08T10:56:40Z</time>
      </trkpt>
      <trkpt lat="48.19661" lon="-3.89926">
        <ele>108.4</ele>
        <time>2020-06-08T10:56:41Z</time>
      </trkpt>
      <trkpt lat="48.19668" lon="-3.89928">
        <ele>108.2</ele>
        <time>2020-06-08T10:56:42Z</time>
      </trkpt>
      <trkpt lat="48.19675" lon="-3.8993">
        <ele>107.9</ele>
        <time>2020-06-08T10:56:43Z</time>
      </trkpt>
      <trkpt lat="48.19683" lon="-3.89931">
        <ele>107.6</ele>
        <time>2020-06-08T10:56:44Z</time>
      </trkpt>
      <trkpt lat="48.1969" lon="-3.89932">
        <ele>107.4</ele>
        <time>2020-06-08T10:56:45Z</time>
      </trkpt>
      <trkpt lat="48.19698" lon="-3.89933">
        <ele>107.1</ele>
        <time>2020-06-08T10:56:46Z</time>
      </trkpt>
      <trkpt lat="48.19705" lon="-3.89934">
        <ele>106.9</ele>
        <time>2020-06-08T10:56:47Z</time>
      </trkpt>
      <trkpt lat="48.19712" lon="-3.89936">
        <ele>106.7</ele>
        <time>2020-06-08T10:56:48Z</time>
      </trkpt>
      <trkpt lat="48.1972" lon="-3.89937">
        <ele>106.5</ele>
        <time>2020-06-08T10:56:49Z</time>
      </trkpt>
      <trkpt lat="48.19727" lon="-3.89939">
        <ele>106.3</ele>
        <time>2020-06-08T10:56:50Z</time>
      </trkpt>
      <trkpt lat="48.19734" lon="-3.8994">
        <ele>106.2</ele>
        <time>2020-06-08T10:56:51Z</time>
      </trkpt>
      <trkpt lat="48.19742" lon="-3.8994">
        <ele>105.9</ele>
        <time>2020-06-08T10:56:52Z</time>
      </trkpt>
      <trkpt lat="48.19749" lon="-3.89941">
        <ele>105.7</ele>
        <time>2020-06-08T10:56:53Z</time>
      </trkpt>
      <trkpt lat="48.19757" lon="-3.89941">
        <ele>105.6</ele>
        <time>2020-06-08T10:56:54Z</time>
      </trkpt>
      <trkpt lat="48.19765" lon="-3.89942">
        <ele>105.4</ele>
        <time>2020-06-08T10:56:55Z</time>
      </trkpt>
      <trkpt lat="48.19772" lon="-3.89942">
        <ele>105.2</ele>
        <time>2020-06-08T10:56:56Z</time>
      </trkpt>
      <trkpt lat="48.19779" lon="-3.89943">
        <ele>105</ele>
        <time>2020-06-08T10:56:57Z</time>
      </trkpt>
      <trkpt lat="48.19786" lon="-3.89946">
        <ele>104.9</ele>
        <time>2020-06-08T10:56:58Z</time>
      </trkpt>
      <trkpt lat="48.19793" lon="-3.89948">
        <ele>104.8</ele>
        <time>2020-06-08T10:56:59Z</time>
      </trkpt>
      <trkpt lat="48.198" lon="-3.8995">
        <ele>104.7</ele>
        <time>2020-06-08T10:57:00Z</time>
      </trkpt>
      <trkpt lat="48.19807" lon="-3.89952">
        <ele>104.6</ele>
        <time>2020-06-08T10:57:01Z</time>
      </trkpt>
      <trkpt lat="48.19814" lon="-3.89955">
        <ele>104.5</ele>
        <time>2020-06-08T10:57:02Z</time>
      </trkpt>
      <trkpt lat="48.19821" lon="-3.89957">
        <ele>104.4</ele>
        <time>2020-06-08T10:57:03Z</time>
      </trkpt>
      <trkpt lat="48.19828" lon="-3.89958">
        <ele>104.3</ele>
        <time>2020-06-08T10:57:04Z</time>
      </trkpt>
      <trkpt lat="48.19835" lon="-3.8996">
        <ele>104.2</ele>
        <time>2020-06-08T10:57:05Z</time>
      </trkpt>
      <trkpt lat="48.19841" lon="-3.89963">
        <ele>104.1</ele>
        <time>2020-06-08T10:57:06Z</time>
      </trkpt>
      <trkpt lat="48.19848" lon="-3.89966">
        <ele>104</ele>
        <time>2020-06-08T10:57:07Z</time>
      </trkpt>
      <trkpt lat="48.19855" lon="-3.89969">
        <ele>104</ele>
        <time>2020-06-08T10:57:08Z</time>
      </trkpt>
      <trkpt lat="48.19862" lon="-3.89973">
        <ele>104</ele>
        <time>2020-06-08T10:57:09Z</time>
      </trkpt>
      <trkpt lat="48.19869" lon="-3.89976">
        <ele>104</ele>
        <time>2020-06-08T10:57:10Z</time>
      </trkpt>
      <trkpt lat="48.19876" lon="-3.89979">
        <ele>104.1</ele>
        <time>2020-06-08T10:57:11Z</time>
      </trkpt>
      <trkpt lat="48.19883" lon="-3.89983">
        <ele>104.2</ele>
        <time>2020-06-08T10:57:12Z</time>
      </trkpt>
      <trkpt lat="48.1989" lon="-3.89988">
        <ele>104.2</ele>
        <time>2020-06-08T10:57:13Z</time>
      </trkpt>
      <trkpt lat="48.19896" lon="-3.89991">
        <ele>104.3</ele>
        <time>2020-06-08T10:57:14Z</time>
      </trkpt>
      <trkpt lat="48.19903" lon="-3.89995">
        <ele>104.4</ele>
        <time>2020-06-08T10:57:15Z</time>
      </trkpt>
      <trkpt lat="48.1991" lon="-3.89999">
        <ele>104.4</ele>
        <time>2020-06-08T10:57:16Z</time>
      </trkpt>
      <trkpt lat="48.19916" lon="-3.90003">
        <ele>104.5</ele>
        <time>2020-06-08T10:57:17Z</time>
      </trkpt>
      <trkpt lat="48.19922" lon="-3.90006">
        <ele>104.6</ele>
        <time>2020-06-08T10:57:18Z</time>
      </trkpt>
      <trkpt lat="48.19928" lon="-3.9001">
        <ele>104.8</ele>
        <time>2020-06-08T10:57:19Z</time>
      </trkpt>
      <trkpt lat="48.19934" lon="-3.90014">
        <ele>105</ele>
        <time>2020-06-08T10:57:20Z</time>
      </trkpt>
      <trkpt lat="48.1994" lon="-3.90018">
        <ele>105.1</ele>
        <time>2020-06-08T10:57:21Z</time>
      </trkpt>
      <trkpt lat="48.19946" lon="-3.90022">
        <ele>105.8</ele>
        <time>2020-06-08T10:57:22Z</time>
      </trkpt>
      <trkpt lat="48.19952" lon="-3.90026">
        <ele>105.8</ele>
        <time>2020-06-08T10:57:23Z</time>
      </trkpt>
      <trkpt lat="48.19957" lon="-3.90029">
        <ele>105.7</ele>
        <time>2020-06-08T10:57:24Z</time>
      </trkpt>
      <trkpt lat="48.19961" lon="-3.90034">
        <ele>105.7</ele>
        <time>2020-06-08T10:57:25Z</time>
      </trkpt>
      <trkpt lat="48.19965" lon="-3.90038">
        <ele>105.7</ele>
        <time>2020-06-08T10:57:26Z</time>
      </trkpt>
      <trkpt lat="48.19967" lon="-3.90044">
        <ele>105.7</ele>
        <time>2020-06-08T10:57:27Z</time>
      </trkpt>
      <trkpt lat="48.1997" lon="-3.90047">
        <ele>105.7</ele>
        <time>2020-06-08T10:57:28Z</time>
      </trkpt>
      <trkpt lat="48.19973" lon="-3.90046">
        <ele>105.7</ele>
        <time>2020-06-08T10:57:29Z</time>
      </trkpt>
      <trkpt lat="48.19976" lon="-3.90046">
        <ele>105.8</ele>
        <time>2020-06-08T10:57:30Z</time>
      </trkpt>
      <trkpt lat="48.1998" lon="-3.90045">
        <ele>105.8</ele>
        <time>2020-06-08T10:57:31Z</time>
      </trkpt>
      <trkpt lat="48.19984" lon="-3.90045">
        <ele>105.8</ele>
        <time>2020-06-08T10:57:32Z</time>
      </trkpt>
      <trkpt lat="48.19988" lon="-3.90046">
        <ele>105.8</ele>
        <time>2020-06-08T10:57:33Z</time>
      </trkpt>
      <trkpt lat="48.19992" lon="-3.90048">
        <ele>105.8</ele>
        <time>2020-06-08T10:57:34Z</time>
      </trkpt>
      <trkpt lat="48.19997" lon="-3.9005">
        <ele>105.8</ele>
        <time>2020-06-08T10:57:35Z</time>
      </trkpt>
      <trkpt lat="48.20001" lon="-3.90053">
        <ele>105.9</ele>
        <time>2020-06-08T10:57:36Z</time>
      </trkpt>
      <trkpt lat="48.20005" lon="-3.90057">
        <ele>105.9</ele>
        <time>2020-06-08T10:57:37Z</time>
      </trkpt>
      <trkpt lat="48.20009" lon="-3.9006">
        <ele>105.9</ele>
        <time>2020-06-08T10:57:38Z</time>
      </trkpt>
      <trkpt lat="48.20014" lon="-3.90063">
        <ele>105.9</ele>
        <time>2020-06-08T10:57:39Z</time>
      </trkpt>
      <trkpt lat="48.20018" lon="-3.90065">
        <ele>105.9</ele>
        <time>2020-06-08T10:57:40Z</time>
      </trkpt>
      <trkpt lat="48.20023" lon="-3.90068">
        <ele>105.9</ele>
        <time>2020-06-08T10:57:41Z</time>
      </trkpt>
      <trkpt lat="48.20028" lon="-3.90071">
        <ele>105.9</ele>
        <time>2020-06-08T10:57:42Z</time>
      </trkpt>
      <trkpt lat="48.20032" lon="-3.90074">
        <ele>105.9</ele>
        <time>2020-06-08T10:57:43Z</time>
      </trkpt>
      <trkpt lat="48.20037" lon="-3.90076">
        <ele>106</ele>
        <time>2020-06-08T10:57:44Z</time>
      </trkpt>
      <trkpt lat="48.20042" lon="-3.90078">
        <ele>106</ele>
        <time>2020-06-08T10:57:45Z</time>
      </trkpt>
      <trkpt lat="48.20047" lon="-3.90081">
        <ele>106</ele>
        <time>2020-06-08T10:57:46Z</time>
      </trkpt>
      <trkpt lat="48.20052" lon="-3.9008">
        <ele>106</ele>
        <time>2020-06-08T10:57:47Z</time>
      </trkpt>
      <trkpt lat="48.20056" lon="-3.90083">
        <ele>106.1</ele>
        <time>2020-06-08T10:57:48Z</time>
      </trkpt>
      <trkpt lat="48.20061" lon="-3.90084">
        <ele>106.1</ele>
        <time>2020-06-08T10:57:49Z</time>
      </trkpt>
      <trkpt lat="48.20066" lon="-3.90087">
        <ele>106.2</ele>
        <time>2020-06-08T10:57:50Z</time>
      </trkpt>
      <trkpt lat="48.2007" lon="-3.90089">
        <ele>106.2</ele>
        <time>2020-06-08T10:57:51Z</time>
      </trkpt>
      <trkpt lat="48.20075" lon="-3.90091">
        <ele>106.2</ele>
        <time>2020-06-08T10:57:52Z</time>
      </trkpt>
      <trkpt lat="48.20079" lon="-3.90094">
        <ele>106.3</ele>
        <time>2020-06-08T10:57:53Z</time>
      </trkpt>
      <trkpt lat="48.20084" lon="-3.90096">
        <ele>106.3</ele>
        <time>2020-06-08T10:57:54Z</time>
      </trkpt>
      <trkpt lat="48.20089" lon="-3.90097">
        <ele>106.4</ele>
        <time>2020-06-08T10:57:55Z</time>
      </trkpt>
      <trkpt lat="48.20093" lon="-3.90099">
        <ele>106.4</ele>
        <time>2020-06-08T10:57:56Z</time>
      </trkpt>
      <trkpt lat="48.20098" lon="-3.90101">
        <ele>106.5</ele>
        <time>2020-06-08T10:57:57Z</time>
      </trkpt>
      <trkpt lat="48.20102" lon="-3.90103">
        <ele>106.5</ele>
        <time>2020-06-08T10:57:58Z</time>
      </trkpt>
      <trkpt lat="48.20107" lon="-3.90105">
        <ele>106.6</ele>
        <time>2020-06-08T10:57:59Z</time>
      </trkpt>
      <trkpt lat="48.20111" lon="-3.90108">
        <ele>106.6</ele>
        <time>2020-06-08T10:58:00Z</time>
      </trkpt>
      <trkpt lat="48.20116" lon="-3.9011">
        <ele>106.8</ele>
        <time>2020-06-08T10:58:01Z</time>
      </trkpt>
      <trkpt lat="48.2012" lon="-3.90111">
        <ele>106.9</ele>
        <time>2020-06-08T10:58:02Z</time>
      </trkpt>
      <trkpt lat="48.20125" lon="-3.90112">
        <ele>107</ele>
        <time>2020-06-08T10:58:03Z</time>
      </trkpt>
      <trkpt lat="48.2013" lon="-3.90114">
        <ele>107.2</ele>
        <time>2020-06-08T10:58:04Z</time>
      </trkpt>
      <trkpt lat="48.20135" lon="-3.90115">
        <ele>107.3</ele>
        <time>2020-06-08T10:58:05Z</time>
      </trkpt>
      <trkpt lat="48.2014" lon="-3.90117">
        <ele>107.5</ele>
        <time>2020-06-08T10:58:06Z</time>
      </trkpt>
      <trkpt lat="48.20143" lon="-3.90119">
        <ele>107.6</ele>
        <time>2020-06-08T10:58:07Z</time>
      </trkpt>
      <trkpt lat="48.20147" lon="-3.9012">
        <ele>107.8</ele>
        <time>2020-06-08T10:58:08Z</time>
      </trkpt>
      <trkpt lat="48.20151" lon="-3.90121">
        <ele>107.9</ele>
        <time>2020-06-08T10:58:09Z</time>
      </trkpt>
      <trkpt lat="48.20155" lon="-3.90122">
        <ele>108.1</ele>
        <time>2020-06-08T10:58:10Z</time>
      </trkpt>
      <trkpt lat="48.20159" lon="-3.90123">
        <ele>108.2</ele>
        <time>2020-06-08T10:58:11Z</time>
      </trkpt>
      <trkpt lat="48.20163" lon="-3.90124">
        <ele>108.4</ele>
        <time>2020-06-08T10:58:12Z</time>
      </trkpt>
      <trkpt lat="48.20168" lon="-3.90126">
        <ele>108.5</ele>
        <time>2020-06-08T10:58:13Z</time>
      </trkpt>
      <trkpt lat="48.20174" lon="-3.90127">
        <ele>108.7</ele>
        <time>2020-06-08T10:58:14Z</time>
      </trkpt>
      <trkpt lat="48.20178" lon="-3.90127">
        <ele>108.8</ele>
        <time>2020-06-08T10:58:15Z</time>
      </trkpt>
      <trkpt lat="48.20183" lon="-3.90128">
        <ele>109</ele>
        <time>2020-06-08T10:58:16Z</time>
      </trkpt>
      <trkpt lat="48.20188" lon="-3.90129">
        <ele>109.1</ele>
        <time>2020-06-08T10:58:17Z</time>
      </trkpt>
      <trkpt lat="48.20194" lon="-3.90129">
        <ele>109.3</ele>
        <time>2020-06-08T10:58:18Z</time>
      </trkpt>
      <trkpt lat="48.20199" lon="-3.9013">
        <ele>109.3</ele>
        <time>2020-06-08T10:58:19Z</time>
      </trkpt>
      <trkpt lat="48.20203" lon="-3.9013">
        <ele>109.4</ele>
        <time>2020-06-08T10:58:20Z</time>
      </trkpt>
      <trkpt lat="48.20206" lon="-3.90132">
        <ele>109.4</ele>
        <time>2020-06-08T10:58:21Z</time>
      </trkpt>
      <trkpt lat="48.20211" lon="-3.90132">
        <ele>109.5</ele>
        <time>2020-06-08T10:58:22Z</time>
      </trkpt>
      <trkpt lat="48.20216" lon="-3.90133">
        <ele>109.6</ele>
        <time>2020-06-08T10:58:23Z</time>
      </trkpt>
      <trkpt lat="48.2022" lon="-3.90134">
        <ele>109.6</ele>
        <time>2020-06-08T10:58:24Z</time>
      </trkpt>
      <trkpt lat="48.20224" lon="-3.90136">
        <ele>109.7</ele>
        <time>2020-06-08T10:58:25Z</time>
      </trkpt>
      <trkpt lat="48.20228" lon="-3.90137">
        <ele>109.7</ele>
        <time>2020-06-08T10:58:26Z</time>
      </trkpt>
      <trkpt lat="48.20233" lon="-3.90138">
        <ele>109.8</ele>
        <time>2020-06-08T10:58:27Z</time>
      </trkpt>
      <trkpt lat="48.20237" lon="-3.90139">
        <ele>109.8</ele>
        <time>2020-06-08T10:58:28Z</time>
      </trkpt>
      <trkpt lat="48.20242" lon="-3.9014">
        <ele>109.8</ele>
        <time>2020-06-08T10:58:29Z</time>
      </trkpt>
      <trkpt lat="48.20247" lon="-3.9014">
        <ele>109.8</ele>
        <time>2020-06-08T10:58:30Z</time>
      </trkpt>
      <trkpt lat="48.20252" lon="-3.9014">
        <ele>109.9</ele>
        <time>2020-06-08T10:58:31Z</time>
      </trkpt>
      <trkpt lat="48.20257" lon="-3.9014">
        <ele>109.9</ele>
        <time>2020-06-08T10:58:32Z</time>
      </trkpt>
      <trkpt lat="48.20261" lon="-3.90141">
        <ele>109.9</ele>
        <time>2020-06-08T10:58:33Z</time>
      </trkpt>
      <trkpt lat="48.20266" lon="-3.90143">
        <ele>109.9</ele>
        <time>2020-06-08T10:58:34Z</time>
      </trkpt>
      <trkpt lat="48.20272" lon="-3.90143">
        <ele>109.9</ele>
        <time>2020-06-08T10:58:35Z</time>
      </trkpt>
      <trkpt lat="48.20277" lon="-3.90143">
        <ele>109.9</ele>
        <time>2020-06-08T10:58:36Z</time>
      </trkpt>
      <trkpt lat="48.20281" lon="-3.90144">
        <ele>109.8</ele>
        <time>2020-06-08T10:58:37Z</time>
      </trkpt>
      <trkpt lat="48.20286" lon="-3.90144">
        <ele>109.8</ele>
        <time>2020-06-08T10:58:38Z</time>
      </trkpt>
      <trkpt lat="48.20291" lon="-3.90144">
        <ele>109.7</ele>
        <time>2020-06-08T10:58:39Z</time>
      </trkpt>
      <trkpt lat="48.20296" lon="-3.90145">
        <ele>109.7</ele>
        <time>2020-06-08T10:58:40Z</time>
      </trkpt>
      <trkpt lat="48.20301" lon="-3.90146">
        <ele>109.6</ele>
        <time>2020-06-08T10:58:41Z</time>
      </trkpt>
      <trkpt lat="48.20306" lon="-3.90147">
        <ele>109.6</ele>
        <time>2020-06-08T10:58:42Z</time>
      </trkpt>
      <trkpt lat="48.2031" lon="-3.90148">
        <ele>109.5</ele>
        <time>2020-06-08T10:58:43Z</time>
      </trkpt>
      <trkpt lat="48.20315" lon="-3.90149">
        <ele>109.5</ele>
        <time>2020-06-08T10:58:44Z</time>
      </trkpt>
      <trkpt lat="48.2032" lon="-3.9015">
        <ele>109.4</ele>
        <time>2020-06-08T10:58:45Z</time>
      </trkpt>
      <trkpt lat="48.20324" lon="-3.90151">
        <ele>109.4</ele>
        <time>2020-06-08T10:58:46Z</time>
      </trkpt>
      <trkpt lat="48.20329" lon="-3.90151">
        <ele>109.3</ele>
        <time>2020-06-08T10:58:47Z</time>
      </trkpt>
      <trkpt lat="48.20334" lon="-3.90151">
        <ele>109.3</ele>
        <time>2020-06-08T10:58:48Z</time>
      </trkpt>
      <trkpt lat="48.2034" lon="-3.90152">
        <ele>109.3</ele>
        <time>2020-06-08T10:58:49Z</time>
      </trkpt>
      <trkpt lat="48.20345" lon="-3.90152">
        <ele>109.3</ele>
        <time>2020-06-08T10:58:50Z</time>
      </trkpt>
      <trkpt lat="48.2035" lon="-3.90153">
        <ele>109.4</ele>
        <time>2020-06-08T10:58:51Z</time>
      </trkpt>
      <trkpt lat="48.20355" lon="-3.90154">
        <ele>109.4</ele>
        <time>2020-06-08T10:58:52Z</time>
      </trkpt>
      <trkpt lat="48.2036" lon="-3.90154">
        <ele>109.5</ele>
        <time>2020-06-08T10:58:53Z</time>
      </trkpt>
      <trkpt lat="48.20365" lon="-3.90154">
        <ele>109.6</ele>
        <time>2020-06-08T10:58:54Z</time>
      </trkpt>
      <trkpt lat="48.20371" lon="-3.90155">
        <ele>109.8</ele>
        <time>2020-06-08T10:58:55Z</time>
      </trkpt>
      <trkpt lat="48.20376" lon="-3.90156">
        <ele>109.8</ele>
        <time>2020-06-08T10:58:56Z</time>
      </trkpt>
      <trkpt lat="48.20382" lon="-3.90157">
        <ele>109.8</ele>
        <time>2020-06-08T10:58:57Z</time>
      </trkpt>
      <trkpt lat="48.20387" lon="-3.90158">
        <ele>109.9</ele>
        <time>2020-06-08T10:58:58Z</time>
      </trkpt>
      <trkpt lat="48.20391" lon="-3.9016">
        <ele>109.9</ele>
        <time>2020-06-08T10:58:59Z</time>
      </trkpt>
      <trkpt lat="48.20396" lon="-3.9016">
        <ele>109.9</ele>
        <time>2020-06-08T10:59:00Z</time>
      </trkpt>
      <trkpt lat="48.204" lon="-3.90161">
        <ele>109.9</ele>
        <time>2020-06-08T10:59:01Z</time>
      </trkpt>
      <trkpt lat="48.20406" lon="-3.90162">
        <ele>110</ele>
        <time>2020-06-08T10:59:02Z</time>
      </trkpt>
      <trkpt lat="48.2041" lon="-3.90161">
        <ele>110.1</ele>
        <time>2020-06-08T10:59:03Z</time>
      </trkpt>
      <trkpt lat="48.20414" lon="-3.90161">
        <ele>110.2</ele>
        <time>2020-06-08T10:59:04Z</time>
      </trkpt>
      <trkpt lat="48.20419" lon="-3.90161">
        <ele>110.3</ele>
        <time>2020-06-08T10:59:05Z</time>
      </trkpt>
      <trkpt lat="48.20423" lon="-3.90162">
        <ele>110.4</ele>
        <time>2020-06-08T10:59:06Z</time>
      </trkpt>
      <trkpt lat="48.20429" lon="-3.90163">
        <ele>110.5</ele>
        <time>2020-06-08T10:59:07Z</time>
      </trkpt>
      <trkpt lat="48.20434" lon="-3.90163">
        <ele>110.7</ele>
        <time>2020-06-08T10:59:08Z</time>
      </trkpt>
      <trkpt lat="48.20438" lon="-3.90165">
        <ele>110.8</ele>
        <time>2020-06-08T10:59:09Z</time>
      </trkpt>
      <trkpt lat="48.20442" lon="-3.90165">
        <ele>110.9</ele>
        <time>2020-06-08T10:59:10Z</time>
      </trkpt>
      <trkpt lat="48.20446" lon="-3.90165">
        <ele>111.1</ele>
        <time>2020-06-08T10:59:11Z</time>
      </trkpt>
      <trkpt lat="48.2045" lon="-3.90167">
        <ele>111.2</ele>
        <time>2020-06-08T10:59:12Z</time>
      </trkpt>
      <trkpt lat="48.20454" lon="-3.90167">
        <ele>111.4</ele>
        <time>2020-06-08T10:59:13Z</time>
      </trkpt>
      <trkpt lat="48.20458" lon="-3.90168">
        <ele>111.5</ele>
        <time>2020-06-08T10:59:14Z</time>
      </trkpt>
      <trkpt lat="48.20462" lon="-3.90169">
        <ele>111.6</ele>
        <time>2020-06-08T10:59:15Z</time>
      </trkpt>
      <trkpt lat="48.20467" lon="-3.90169">
        <ele>111.7</ele>
        <time>2020-06-08T10:59:16Z</time>
      </trkpt>
      <trkpt lat="48.20472" lon="-3.90169">
        <ele>111.8</ele>
        <time>2020-06-08T10:59:17Z</time>
      </trkpt>
      <trkpt lat="48.20477" lon="-3.9017">
        <ele>111.9</ele>
        <time>2020-06-08T10:59:18Z</time>
      </trkpt>
      <trkpt lat="48.20482" lon="-3.90171">
        <ele>112</ele>
        <time>2020-06-08T10:59:19Z</time>
      </trkpt>
      <trkpt lat="48.20487" lon="-3.90172">
        <ele>111.9</ele>
        <time>2020-06-08T10:59:20Z</time>
      </trkpt>
      <trkpt lat="48.20492" lon="-3.90173">
        <ele>111.8</ele>
        <time>2020-06-08T10:59:21Z</time>
      </trkpt>
      <trkpt lat="48.20496" lon="-3.90173">
        <ele>111.8</ele>
        <time>2020-06-08T10:59:22Z</time>
      </trkpt>
      <trkpt lat="48.205" lon="-3.90174">
        <ele>111.8</ele>
        <time>2020-06-08T10:59:23Z</time>
      </trkpt>
      <trkpt lat="48.20505" lon="-3.90175">
        <ele>111.7</ele>
        <time>2020-06-08T10:59:24Z</time>
      </trkpt>
      <trkpt lat="48.20509" lon="-3.90175">
        <ele>111.7</ele>
        <time>2020-06-08T10:59:25Z</time>
      </trkpt>
      <trkpt lat="48.20513" lon="-3.90176">
        <ele>111.6</ele>
        <time>2020-06-08T10:59:26Z</time>
      </trkpt>
      <trkpt lat="48.20517" lon="-3.90176">
        <ele>111.6</ele>
        <time>2020-06-08T10:59:27Z</time>
      </trkpt>
      <trkpt lat="48.2052" lon="-3.90176">
        <ele>111.6</ele>
        <time>2020-06-08T10:59:28Z</time>
      </trkpt>
      <trkpt lat="48.20524" lon="-3.90175">
        <ele>111.6</ele>
        <time>2020-06-08T10:59:29Z</time>
      </trkpt>
      <trkpt lat="48.20526" lon="-3.90175">
        <ele>111.5</ele>
        <time>2020-06-08T10:59:30Z</time>
      </trkpt>
      <trkpt lat="48.20528" lon="-3.90175">
        <ele>111.5</ele>
        <time>2020-06-08T10:59:31Z</time>
      </trkpt>
      <trkpt lat="48.20528" lon="-3.90175">
        <ele>111.5</ele>
        <time>2020-06-08T10:59:32Z</time>
      </trkpt>
      <trkpt lat="48.20528" lon="-3.90174">
        <ele>111.5</ele>
        <time>2020-06-08T10:59:33Z</time>
      </trkpt>
      <trkpt lat="48.20528" lon="-3.90174">
        <ele>111.5</ele>
        <time>2020-06-08T10:59:34Z</time>
      </trkpt>
      <trkpt lat="48.20528" lon="-3.90173">
        <ele>111.5</ele>
        <time>2020-06-08T10:59:35Z</time>
      </trkpt>
      <trkpt lat="48.20528" lon="-3.90173">
        <ele>111.5</ele>
        <time>2020-06-08T10:59:36Z</time>
      </trkpt>
      <trkpt lat="48.20526" lon="-3.90175">
        <ele>111.5</ele>
        <time>2020-06-08T10:59:37Z</time>
      </trkpt>
      <trkpt lat="48.20526" lon="-3.90175">
        <ele>111.5</ele>
        <time>2020-06-08T10:59:38Z</time>
      </trkpt>
      <trkpt lat="48.20527" lon="-3.90175">
        <ele>111.5</ele>
        <time>2020-06-08T10:59:39Z</time>
      </trkpt>
      <trkpt lat="48.20527" lon="-3.90175">
        <ele>111.5</ele>
        <time>2020-06-08T10:59:40Z</time>
      </trkpt>
      <trkpt lat="48.20527" lon="-3.90175">
        <ele>111.5</ele>
        <time>2020-06-08T10:59:41Z</time>
      </trkpt>
      <trkpt lat="48.20528" lon="-3.90176">
        <ele>111.5</ele>
        <time>2020-06-08T10:59:42Z</time>
      </trkpt>
      <trkpt lat="48.2053" lon="-3.90177">
        <ele>111.5</ele>
        <time>2020-06-08T10:59:44Z</time>
      </trkpt>
      <trkpt lat="48.20533" lon="-3.90179">
        <ele>111.4</ele>
        <time>2020-06-08T10:59:45Z</time>
      </trkpt>
      <trkpt lat="48.20536" lon="-3.90181">
        <ele>111.4</ele>
        <time>2020-06-08T10:59:46Z</time>
      </trkpt>
      <trkpt lat="48.20538" lon="-3.90182">
        <ele>111.4</ele>
        <time>2020-06-08T10:59:47Z</time>
      </trkpt>
      <trkpt lat="48.20541" lon="-3.90183">
        <ele>111.3</ele>
        <time>2020-06-08T10:59:48Z</time>
      </trkpt>
      <trkpt lat="48.20544" lon="-3.90184">
        <ele>111.3</ele>
        <time>2020-06-08T10:59:49Z</time>
      </trkpt>
      <trkpt lat="48.20547" lon="-3.90184">
        <ele>111.2</ele>
        <time>2020-06-08T10:59:50Z</time>
      </trkpt>
      <trkpt lat="48.2055" lon="-3.90186">
        <ele>111.2</ele>
        <time>2020-06-08T10:59:51Z</time>
      </trkpt>
      <trkpt lat="48.20554" lon="-3.90187">
        <ele>111.2</ele>
        <time>2020-06-08T10:59:52Z</time>
      </trkpt>
      <trkpt lat="48.20557" lon="-3.90187">
        <ele>111.2</ele>
        <time>2020-06-08T10:59:53Z</time>
      </trkpt>
      <trkpt lat="48.20561" lon="-3.90187">
        <ele>111.1</ele>
        <time>2020-06-08T10:59:54Z</time>
      </trkpt>
      <trkpt lat="48.20564" lon="-3.90187">
        <ele>111.1</ele>
        <time>2020-06-08T10:59:55Z</time>
      </trkpt>
      <trkpt lat="48.20567" lon="-3.90187">
        <ele>111.1</ele>
        <time>2020-06-08T10:59:56Z</time>
      </trkpt>
      <trkpt lat="48.20572" lon="-3.90189">
        <ele>111</ele>
        <time>2020-06-08T10:59:57Z</time>
      </trkpt>
      <trkpt lat="48.20576" lon="-3.90189">
        <ele>110.9</ele>
        <time>2020-06-08T10:59:58Z</time>
      </trkpt>
      <trkpt lat="48.2058" lon="-3.90189">
        <ele>110.8</ele>
        <time>2020-06-08T10:59:59Z</time>
      </trkpt>
      <trkpt lat="48.20585" lon="-3.9019">
        <ele>110.7</ele>
        <time>2020-06-08T11:00:00Z</time>
      </trkpt>
      <trkpt lat="48.2059" lon="-3.90189">
        <ele>110.5</ele>
        <time>2020-06-08T11:00:01Z</time>
      </trkpt>
      <trkpt lat="48.20594" lon="-3.90189">
        <ele>110.3</ele>
        <time>2020-06-08T11:00:02Z</time>
      </trkpt>
      <trkpt lat="48.206" lon="-3.9019">
        <ele>110.1</ele>
        <time>2020-06-08T11:00:03Z</time>
      </trkpt>
      <trkpt lat="48.20606" lon="-3.90191">
        <ele>109.9</ele>
        <time>2020-06-08T11:00:04Z</time>
      </trkpt>
      <trkpt lat="48.20613" lon="-3.90192">
        <ele>109.6</ele>
        <time>2020-06-08T11:00:05Z</time>
      </trkpt>
      <trkpt lat="48.20619" lon="-3.90192">
        <ele>109.4</ele>
        <time>2020-06-08T11:00:06Z</time>
      </trkpt>
      <trkpt lat="48.20625" lon="-3.90192">
        <ele>109.1</ele>
        <time>2020-06-08T11:00:07Z</time>
      </trkpt>
      <trkpt lat="48.20634" lon="-3.90191">
        <ele>108.7</ele>
        <time>2020-06-08T11:00:08Z</time>
      </trkpt>
      <trkpt lat="48.20641" lon="-3.90193">
        <ele>108.4</ele>
        <time>2020-06-08T11:00:09Z</time>
      </trkpt>
      <trkpt lat="48.20649" lon="-3.90195">
        <ele>108.1</ele>
        <time>2020-06-08T11:00:10Z</time>
      </trkpt>
      <trkpt lat="48.20657" lon="-3.90197">
        <ele>107.8</ele>
        <time>2020-06-08T11:00:11Z</time>
      </trkpt>
      <trkpt lat="48.20666" lon="-3.90199">
        <ele>107.5</ele>
        <time>2020-06-08T11:00:12Z</time>
      </trkpt>
      <trkpt lat="48.20674" lon="-3.90201">
        <ele>107.3</ele>
        <time>2020-06-08T11:00:13Z</time>
      </trkpt>
      <trkpt lat="48.20681" lon="-3.90201">
        <ele>107.1</ele>
        <time>2020-06-08T11:00:14Z</time>
      </trkpt>
      <trkpt lat="48.20688" lon="-3.90203">
        <ele>107</ele>
        <time>2020-06-08T11:00:15Z</time>
      </trkpt>
      <trkpt lat="48.20694" lon="-3.90204">
        <ele>106.9</ele>
        <time>2020-06-08T11:00:16Z</time>
      </trkpt>
      <trkpt lat="48.20701" lon="-3.90204">
        <ele>106.8</ele>
        <time>2020-06-08T11:00:17Z</time>
      </trkpt>
      <trkpt lat="48.20707" lon="-3.90206">
        <ele>106.8</ele>
        <time>2020-06-08T11:00:18Z</time>
      </trkpt>
      <trkpt lat="48.20713" lon="-3.90208">
        <ele>106.8</ele>
        <time>2020-06-08T11:00:19Z</time>
      </trkpt>
      <trkpt lat="48.20719" lon="-3.90208">
        <ele>106.8</ele>
        <time>2020-06-08T11:00:20Z</time>
      </trkpt>
      <trkpt lat="48.20725" lon="-3.9021">
        <ele>106.8</ele>
        <time>2020-06-08T11:00:21Z</time>
      </trkpt>
      <trkpt lat="48.2073" lon="-3.90211">
        <ele>106.7</ele>
        <time>2020-06-08T11:00:22Z</time>
      </trkpt>
      <trkpt lat="48.20735" lon="-3.90212">
        <ele>106.7</ele>
        <time>2020-06-08T11:00:23Z</time>
      </trkpt>
      <trkpt lat="48.2074" lon="-3.90213">
        <ele>106.7</ele>
        <time>2020-06-08T11:00:24Z</time>
      </trkpt>
      <trkpt lat="48.20746" lon="-3.90213">
        <ele>106.7</ele>
        <time>2020-06-08T11:00:25Z</time>
      </trkpt>
      <trkpt lat="48.20751" lon="-3.90213">
        <ele>106.7</ele>
        <time>2020-06-08T11:00:26Z</time>
      </trkpt>
      <trkpt lat="48.20756" lon="-3.90213">
        <ele>106.9</ele>
        <time>2020-06-08T11:00:27Z</time>
      </trkpt>
      <trkpt lat="48.20761" lon="-3.90214">
        <ele>107.1</ele>
        <time>2020-06-08T11:00:28Z</time>
      </trkpt>
      <trkpt lat="48.20766" lon="-3.90214">
        <ele>107.3</ele>
        <time>2020-06-08T11:00:29Z</time>
      </trkpt>
      <trkpt lat="48.20771" lon="-3.90216">
        <ele>107.5</ele>
        <time>2020-06-08T11:00:30Z</time>
      </trkpt>
      <trkpt lat="48.20777" lon="-3.90217">
        <ele>107.7</ele>
        <time>2020-06-08T11:00:31Z</time>
      </trkpt>
      <trkpt lat="48.20782" lon="-3.90217">
        <ele>107.9</ele>
        <time>2020-06-08T11:00:32Z</time>
      </trkpt>
      <trkpt lat="48.20787" lon="-3.90216">
        <ele>108.1</ele>
        <time>2020-06-08T11:00:33Z</time>
      </trkpt>
      <trkpt lat="48.20792" lon="-3.90217">
        <ele>108.3</ele>
        <time>2020-06-08T11:00:34Z</time>
      </trkpt>
      <trkpt lat="48.20796" lon="-3.90217">
        <ele>108.6</ele>
        <time>2020-06-08T11:00:35Z</time>
      </trkpt>
      <trkpt lat="48.20801" lon="-3.90218">
        <ele>108.8</ele>
        <time>2020-06-08T11:00:36Z</time>
      </trkpt>
      <trkpt lat="48.20805" lon="-3.90218">
        <ele>109.8</ele>
        <time>2020-06-08T11:00:37Z</time>
      </trkpt>
      <trkpt lat="48.20808" lon="-3.90221">
        <ele>109.8</ele>
        <time>2020-06-08T11:00:38Z</time>
      </trkpt>
      <trkpt lat="48.2081" lon="-3.90226">
        <ele>109.8</ele>
        <time>2020-06-08T11:00:39Z</time>
      </trkpt>
      <trkpt lat="48.20813" lon="-3.9023">
        <ele>109.7</ele>
        <time>2020-06-08T11:00:40Z</time>
      </trkpt>
      <trkpt lat="48.20814" lon="-3.90235">
        <ele>109.5</ele>
        <time>2020-06-08T11:00:41Z</time>
      </trkpt>
      <trkpt lat="48.20814" lon="-3.90242">
        <ele>109.3</ele>
        <time>2020-06-08T11:00:42Z</time>
      </trkpt>
      <trkpt lat="48.20814" lon="-3.90249">
        <ele>109</ele>
        <time>2020-06-08T11:00:43Z</time>
      </trkpt>
      <trkpt lat="48.20813" lon="-3.90256">
        <ele>108.8</ele>
        <time>2020-06-08T11:00:44Z</time>
      </trkpt>
      <trkpt lat="48.20813" lon="-3.90263">
        <ele>108.5</ele>
        <time>2020-06-08T11:00:45Z</time>
      </trkpt>
      <trkpt lat="48.20813" lon="-3.9027">
        <ele>108.3</ele>
        <time>2020-06-08T11:00:46Z</time>
      </trkpt>
      <trkpt lat="48.20813" lon="-3.90277">
        <ele>108</ele>
        <time>2020-06-08T11:00:47Z</time>
      </trkpt>
      <trkpt lat="48.20813" lon="-3.90285">
        <ele>107.7</ele>
        <time>2020-06-08T11:00:48Z</time>
      </trkpt>
      <trkpt lat="48.20811" lon="-3.90293">
        <ele>107.5</ele>
        <time>2020-06-08T11:00:49Z</time>
      </trkpt>
      <trkpt lat="48.20811" lon="-3.90301">
        <ele>107.2</ele>
        <time>2020-06-08T11:00:50Z</time>
      </trkpt>
      <trkpt lat="48.20811" lon="-3.90309">
        <ele>106.9</ele>
        <time>2020-06-08T11:00:51Z</time>
      </trkpt>
      <trkpt lat="48.2081" lon="-3.90317">
        <ele>106.7</ele>
        <time>2020-06-08T11:00:52Z</time>
      </trkpt>
      <trkpt lat="48.2081" lon="-3.90325">
        <ele>106.5</ele>
        <time>2020-06-08T11:00:53Z</time>
      </trkpt>
      <trkpt lat="48.20809" lon="-3.90334">
        <ele>106.2</ele>
        <time>2020-06-08T11:00:54Z</time>
      </trkpt>
      <trkpt lat="48.20808" lon="-3.90343">
        <ele>106</ele>
        <time>2020-06-08T11:00:55Z</time>
      </trkpt>
      <trkpt lat="48.20808" lon="-3.90352">
        <ele>105.7</ele>
        <time>2020-06-08T11:00:56Z</time>
      </trkpt>
      <trkpt lat="48.20808" lon="-3.90362">
        <ele>105.5</ele>
        <time>2020-06-08T11:00:57Z</time>
      </trkpt>
      <trkpt lat="48.20807" lon="-3.90372">
        <ele>105.2</ele>
        <time>2020-06-08T11:00:58Z</time>
      </trkpt>
      <trkpt lat="48.20806" lon="-3.90382">
        <ele>105</ele>
        <time>2020-06-08T11:00:59Z</time>
      </trkpt>
      <trkpt lat="48.20805" lon="-3.90393">
        <ele>104.8</ele>
        <time>2020-06-08T11:01:00Z</time>
      </trkpt>
      <trkpt lat="48.20804" lon="-3.90403">
        <ele>104.5</ele>
        <time>2020-06-08T11:01:01Z</time>
      </trkpt>
      <trkpt lat="48.20803" lon="-3.90413">
        <ele>104.5</ele>
        <time>2020-06-08T11:01:02Z</time>
      </trkpt>
      <trkpt lat="48.20801" lon="-3.90423">
        <ele>104.4</ele>
        <time>2020-06-08T11:01:03Z</time>
      </trkpt>
      <trkpt lat="48.208" lon="-3.90433">
        <ele>104.3</ele>
        <time>2020-06-08T11:01:04Z</time>
      </trkpt>
      <trkpt lat="48.208" lon="-3.90443">
        <ele>104.1</ele>
        <time>2020-06-08T11:01:05Z</time>
      </trkpt>
      <trkpt lat="48.208" lon="-3.90452">
        <ele>103.9</ele>
        <time>2020-06-08T11:01:06Z</time>
      </trkpt>
      <trkpt lat="48.20798" lon="-3.90462">
        <ele>103.7</ele>
        <time>2020-06-08T11:01:07Z</time>
      </trkpt>
      <trkpt lat="48.20797" lon="-3.90471">
        <ele>103.5</ele>
        <time>2020-06-08T11:01:08Z</time>
      </trkpt>
      <trkpt lat="48.20797" lon="-3.9048">
        <ele>103.4</ele>
        <time>2020-06-08T11:01:09Z</time>
      </trkpt>
      <trkpt lat="48.20796" lon="-3.90489">
        <ele>103.3</ele>
        <time>2020-06-08T11:01:10Z</time>
      </trkpt>
      <trkpt lat="48.20795" lon="-3.90499">
        <ele>103.1</ele>
        <time>2020-06-08T11:01:11Z</time>
      </trkpt>
      <trkpt lat="48.20795" lon="-3.90508">
        <ele>103</ele>
        <time>2020-06-08T11:01:12Z</time>
      </trkpt>
      <trkpt lat="48.20794" lon="-3.90517">
        <ele>102.9</ele>
        <time>2020-06-08T11:01:13Z</time>
      </trkpt>
      <trkpt lat="48.20794" lon="-3.90527">
        <ele>102.8</ele>
        <time>2020-06-08T11:01:14Z</time>
      </trkpt>
      <trkpt lat="48.20793" lon="-3.90536">
        <ele>102.7</ele>
        <time>2020-06-08T11:01:15Z</time>
      </trkpt>
      <trkpt lat="48.20792" lon="-3.90546">
        <ele>102.6</ele>
        <time>2020-06-08T11:01:16Z</time>
      </trkpt>
      <trkpt lat="48.20791" lon="-3.90555">
        <ele>102.4</ele>
        <time>2020-06-08T11:01:17Z</time>
      </trkpt>
      <trkpt lat="48.2079" lon="-3.90564">
        <ele>102.3</ele>
        <time>2020-06-08T11:01:18Z</time>
      </trkpt>
      <trkpt lat="48.20789" lon="-3.90574">
        <ele>102.2</ele>
        <time>2020-06-08T11:01:19Z</time>
      </trkpt>
      <trkpt lat="48.20789" lon="-3.90583">
        <ele>102.1</ele>
        <time>2020-06-08T11:01:20Z</time>
      </trkpt>
      <trkpt lat="48.20788" lon="-3.90592">
        <ele>102</ele>
        <time>2020-06-08T11:01:21Z</time>
      </trkpt>
      <trkpt lat="48.20787" lon="-3.90601">
        <ele>101.8</ele>
        <time>2020-06-08T11:01:22Z</time>
      </trkpt>
      <trkpt lat="48.20787" lon="-3.9061">
        <ele>101.7</ele>
        <time>2020-06-08T11:01:23Z</time>
      </trkpt>
      <trkpt lat="48.20786" lon="-3.9062">
        <ele>101.6</ele>
        <time>2020-06-08T11:01:24Z</time>
      </trkpt>
      <trkpt lat="48.20786" lon="-3.90629">
        <ele>101.5</ele>
        <time>2020-06-08T11:01:25Z</time>
      </trkpt>
      <trkpt lat="48.20786" lon="-3.90638">
        <ele>101.4</ele>
        <time>2020-06-08T11:01:26Z</time>
      </trkpt>
      <trkpt lat="48.20785" lon="-3.90647">
        <ele>101.3</ele>
        <time>2020-06-08T11:01:27Z</time>
      </trkpt>
      <trkpt lat="48.20785" lon="-3.90656">
        <ele>101.2</ele>
        <time>2020-06-08T11:01:28Z</time>
      </trkpt>
      <trkpt lat="48.20784" lon="-3.90665">
        <ele>101.2</ele>
        <time>2020-06-08T11:01:29Z</time>
      </trkpt>
      <trkpt lat="48.20783" lon="-3.90674">
        <ele>101.1</ele>
        <time>2020-06-08T11:01:30Z</time>
      </trkpt>
      <trkpt lat="48.20782" lon="-3.90683">
        <ele>101.1</ele>
        <time>2020-06-08T11:01:31Z</time>
      </trkpt>
      <trkpt lat="48.2078" lon="-3.90691">
        <ele>101.1</ele>
        <time>2020-06-08T11:01:32Z</time>
      </trkpt>
      <trkpt lat="48.2078" lon="-3.907">
        <ele>101.1</ele>
        <time>2020-06-08T11:01:33Z</time>
      </trkpt>
      <trkpt lat="48.20779" lon="-3.9071">
        <ele>101.1</ele>
        <time>2020-06-08T11:01:34Z</time>
      </trkpt>
      <trkpt lat="48.20779" lon="-3.90719">
        <ele>101.1</ele>
        <time>2020-06-08T11:01:35Z</time>
      </trkpt>
      <trkpt lat="48.20779" lon="-3.90728">
        <ele>101.1</ele>
        <time>2020-06-08T11:01:36Z</time>
      </trkpt>
      <trkpt lat="48.20779" lon="-3.90737">
        <ele>101.1</ele>
        <time>2020-06-08T11:01:37Z</time>
      </trkpt>
      <trkpt lat="48.20779" lon="-3.90746">
        <ele>101.1</ele>
        <time>2020-06-08T11:01:38Z</time>
      </trkpt>
      <trkpt lat="48.20779" lon="-3.90755">
        <ele>101.2</ele>
        <time>2020-06-08T11:01:39Z</time>
      </trkpt>
      <trkpt lat="48.20779" lon="-3.90764">
        <ele>101.2</ele>
        <time>2020-06-08T11:01:40Z</time>
      </trkpt>
      <trkpt lat="48.20779" lon="-3.90773">
        <ele>101.3</ele>
        <time>2020-06-08T11:01:41Z</time>
      </trkpt>
      <trkpt lat="48.20779" lon="-3.90782">
        <ele>101.4</ele>
        <time>2020-06-08T11:01:42Z</time>
      </trkpt>
      <trkpt lat="48.20778" lon="-3.90791">
        <ele>101.5</ele>
        <time>2020-06-08T11:01:43Z</time>
      </trkpt>
      <trkpt lat="48.20778" lon="-3.90801">
        <ele>101.6</ele>
        <time>2020-06-08T11:01:44Z</time>
      </trkpt>
      <trkpt lat="48.20779" lon="-3.90809">
        <ele>101.8</ele>
        <time>2020-06-08T11:01:45Z</time>
      </trkpt>
      <trkpt lat="48.20778" lon="-3.90818">
        <ele>101.8</ele>
        <time>2020-06-08T11:01:46Z</time>
      </trkpt>
      <trkpt lat="48.20779" lon="-3.90827">
        <ele>101.9</ele>
        <time>2020-06-08T11:01:47Z</time>
      </trkpt>
      <trkpt lat="48.20779" lon="-3.90836">
        <ele>101.9</ele>
        <time>2020-06-08T11:01:48Z</time>
      </trkpt>
      <trkpt lat="48.2078" lon="-3.90844">
        <ele>101.9</ele>
        <time>2020-06-08T11:01:49Z</time>
      </trkpt>
      <trkpt lat="48.20779" lon="-3.90854">
        <ele>102</ele>
        <time>2020-06-08T11:01:50Z</time>
      </trkpt>
      <trkpt lat="48.20779" lon="-3.90863">
        <ele>102</ele>
        <time>2020-06-08T11:01:51Z</time>
      </trkpt>
      <trkpt lat="48.2078" lon="-3.90872">
        <ele>102.1</ele>
        <time>2020-06-08T11:01:52Z</time>
      </trkpt>
      <trkpt lat="48.20781" lon="-3.90881">
        <ele>102.1</ele>
        <time>2020-06-08T11:01:53Z</time>
      </trkpt>
      <trkpt lat="48.20781" lon="-3.9089">
        <ele>102.2</ele>
        <time>2020-06-08T11:01:54Z</time>
      </trkpt>
      <trkpt lat="48.20782" lon="-3.909">
        <ele>102.3</ele>
        <time>2020-06-08T11:01:55Z</time>
      </trkpt>
      <trkpt lat="48.20782" lon="-3.90909">
        <ele>102.3</ele>
        <time>2020-06-08T11:01:56Z</time>
      </trkpt>
      <trkpt lat="48.20782" lon="-3.90918">
        <ele>102.3</ele>
        <time>2020-06-08T11:01:57Z</time>
      </trkpt>
      <trkpt lat="48.20782" lon="-3.90925">
        <ele>102.3</ele>
        <time>2020-06-08T11:01:58Z</time>
      </trkpt>
      <trkpt lat="48.20782" lon="-3.90933">
        <ele>102.3</ele>
        <time>2020-06-08T11:01:59Z</time>
      </trkpt>
      <trkpt lat="48.20782" lon="-3.90943">
        <ele>102.2</ele>
        <time>2020-06-08T11:02:00Z</time>
      </trkpt>
      <trkpt lat="48.20783" lon="-3.90951">
        <ele>102.2</ele>
        <time>2020-06-08T11:02:01Z</time>
      </trkpt>
      <trkpt lat="48.20784" lon="-3.90956">
        <ele>102.1</ele>
        <time>2020-06-08T11:02:02Z</time>
      </trkpt>
      <trkpt lat="48.20785" lon="-3.90965">
        <ele>102.1</ele>
        <time>2020-06-08T11:02:03Z</time>
      </trkpt>
      <trkpt lat="48.20786" lon="-3.90974">
        <ele>102</ele>
        <time>2020-06-08T11:02:04Z</time>
      </trkpt>
      <trkpt lat="48.20786" lon="-3.90984">
        <ele>101.9</ele>
        <time>2020-06-08T11:02:05Z</time>
      </trkpt>
      <trkpt lat="48.20788" lon="-3.90993">
        <ele>101.9</ele>
        <time>2020-06-08T11:02:06Z</time>
      </trkpt>
      <trkpt lat="48.20788" lon="-3.91003">
        <ele>101.8</ele>
        <time>2020-06-08T11:02:07Z</time>
      </trkpt>
      <trkpt lat="48.20788" lon="-3.91011">
        <ele>101.8</ele>
        <time>2020-06-08T11:02:08Z</time>
      </trkpt>
      <trkpt lat="48.20788" lon="-3.91021">
        <ele>101.8</ele>
        <time>2020-06-08T11:02:09Z</time>
      </trkpt>
      <trkpt lat="48.20787" lon="-3.91029">
        <ele>101.7</ele>
        <time>2020-06-08T11:02:10Z</time>
      </trkpt>
      <trkpt lat="48.20786" lon="-3.91037">
        <ele>101.7</ele>
        <time>2020-06-08T11:02:11Z</time>
      </trkpt>
      <trkpt lat="48.20786" lon="-3.91046">
        <ele>101.6</ele>
        <time>2020-06-08T11:02:12Z</time>
      </trkpt>
      <trkpt lat="48.20785" lon="-3.91055">
        <ele>101.6</ele>
        <time>2020-06-08T11:02:13Z</time>
      </trkpt>
      <trkpt lat="48.20784" lon="-3.91063">
        <ele>101.5</ele>
        <time>2020-06-08T11:02:14Z</time>
      </trkpt>
      <trkpt lat="48.20784" lon="-3.91073">
        <ele>101.5</ele>
        <time>2020-06-08T11:02:15Z</time>
      </trkpt>
      <trkpt lat="48.20784" lon="-3.91083">
        <ele>101.4</ele>
        <time>2020-06-08T11:02:16Z</time>
      </trkpt>
      <trkpt lat="48.20783" lon="-3.91092">
        <ele>101.4</ele>
        <time>2020-06-08T11:02:17Z</time>
      </trkpt>
      <trkpt lat="48.20783" lon="-3.91101">
        <ele>101.4</ele>
        <time>2020-06-08T11:02:18Z</time>
      </trkpt>
      <trkpt lat="48.20782" lon="-3.91111">
        <ele>101.4</ele>
        <time>2020-06-08T11:02:19Z</time>
      </trkpt>
      <trkpt lat="48.20782" lon="-3.9112">
        <ele>101.4</ele>
        <time>2020-06-08T11:02:20Z</time>
      </trkpt>
      <trkpt lat="48.20781" lon="-3.91131">
        <ele>101.4</ele>
        <time>2020-06-08T11:02:21Z</time>
      </trkpt>
      <trkpt lat="48.20781" lon="-3.9114">
        <ele>101.4</ele>
        <time>2020-06-08T11:02:22Z</time>
      </trkpt>
      <trkpt lat="48.2078" lon="-3.91149">
        <ele>101.5</ele>
        <time>2020-06-08T11:02:23Z</time>
      </trkpt>
      <trkpt lat="48.20779" lon="-3.91159">
        <ele>101.6</ele>
        <time>2020-06-08T11:02:24Z</time>
      </trkpt>
      <trkpt lat="48.20779" lon="-3.91168">
        <ele>101.7</ele>
        <time>2020-06-08T11:02:25Z</time>
      </trkpt>
      <trkpt lat="48.20779" lon="-3.91178">
        <ele>101.9</ele>
        <time>2020-06-08T11:02:26Z</time>
      </trkpt>
      <trkpt lat="48.20779" lon="-3.91187">
        <ele>102</ele>
        <time>2020-06-08T11:02:27Z</time>
      </trkpt>
      <trkpt lat="48.20778" lon="-3.91197">
        <ele>102.1</ele>
        <time>2020-06-08T11:02:28Z</time>
      </trkpt>
      <trkpt lat="48.20777" lon="-3.91206">
        <ele>102.2</ele>
        <time>2020-06-08T11:02:29Z</time>
      </trkpt>
      <trkpt lat="48.20776" lon="-3.91214">
        <ele>102.3</ele>
        <time>2020-06-08T11:02:30Z</time>
      </trkpt>
      <trkpt lat="48.20775" lon="-3.91221">
        <ele>102.4</ele>
        <time>2020-06-08T11:02:31Z</time>
      </trkpt>
      <trkpt lat="48.20774" lon="-3.91228">
        <ele>102.5</ele>
        <time>2020-06-08T11:02:32Z</time>
      </trkpt>
      <trkpt lat="48.20773" lon="-3.91235">
        <ele>102.6</ele>
        <time>2020-06-08T11:02:33Z</time>
      </trkpt>
      <trkpt lat="48.20772" lon="-3.91242">
        <ele>102.8</ele>
        <time>2020-06-08T11:02:34Z</time>
      </trkpt>
      <trkpt lat="48.20772" lon="-3.91249">
        <ele>102.9</ele>
        <time>2020-06-08T11:02:35Z</time>
      </trkpt>
      <trkpt lat="48.20771" lon="-3.91255">
        <ele>103</ele>
        <time>2020-06-08T11:02:36Z</time>
      </trkpt>
      <trkpt lat="48.20771" lon="-3.91261">
        <ele>103.2</ele>
        <time>2020-06-08T11:02:37Z</time>
      </trkpt>
      <trkpt lat="48.2077" lon="-3.91268">
        <ele>103.3</ele>
        <time>2020-06-08T11:02:38Z</time>
      </trkpt>
      <trkpt lat="48.20768" lon="-3.91277">
        <ele>103.5</ele>
        <time>2020-06-08T11:02:39Z</time>
      </trkpt>
      <trkpt lat="48.20767" lon="-3.91285">
        <ele>103.7</ele>
        <time>2020-06-08T11:02:40Z</time>
      </trkpt>
      <trkpt lat="48.20765" lon="-3.91292">
        <ele>103.9</ele>
        <time>2020-06-08T11:02:41Z</time>
      </trkpt>
      <trkpt lat="48.20764" lon="-3.91299">
        <ele>104.1</ele>
        <time>2020-06-08T11:02:42Z</time>
      </trkpt>
      <trkpt lat="48.20762" lon="-3.91305">
        <ele>104.2</ele>
        <time>2020-06-08T11:02:43Z</time>
      </trkpt>
      <trkpt lat="48.20761" lon="-3.91311">
        <ele>104.3</ele>
        <time>2020-06-08T11:02:44Z</time>
      </trkpt>
      <trkpt lat="48.2076" lon="-3.91318">
        <ele>104.5</ele>
        <time>2020-06-08T11:02:45Z</time>
      </trkpt>
      <trkpt lat="48.20759" lon="-3.91325">
        <ele>104.6</ele>
        <time>2020-06-08T11:02:46Z</time>
      </trkpt>
      <trkpt lat="48.20758" lon="-3.91332">
        <ele>104.7</ele>
        <time>2020-06-08T11:02:47Z</time>
      </trkpt>
      <trkpt lat="48.20756" lon="-3.91338">
        <ele>104.8</ele>
        <time>2020-06-08T11:02:48Z</time>
      </trkpt>
      <trkpt lat="48.20754" lon="-3.91345">
        <ele>104.9</ele>
        <time>2020-06-08T11:02:49Z</time>
      </trkpt>
      <trkpt lat="48.20752" lon="-3.91353">
        <ele>105</ele>
        <time>2020-06-08T11:02:50Z</time>
      </trkpt>
      <trkpt lat="48.20751" lon="-3.9136">
        <ele>105.1</ele>
        <time>2020-06-08T11:02:51Z</time>
      </trkpt>
      <trkpt lat="48.2075" lon="-3.91367">
        <ele>105.2</ele>
        <time>2020-06-08T11:02:52Z</time>
      </trkpt>
      <trkpt lat="48.20748" lon="-3.91374">
        <ele>105.2</ele>
        <time>2020-06-08T11:02:53Z</time>
      </trkpt>
      <trkpt lat="48.20747" lon="-3.91379">
        <ele>105.2</ele>
        <time>2020-06-08T11:02:54Z</time>
      </trkpt>
      <trkpt lat="48.20746" lon="-3.91385">
        <ele>105.2</ele>
        <time>2020-06-08T11:02:55Z</time>
      </trkpt>
      <trkpt lat="48.20745" lon="-3.91391">
        <ele>105.2</ele>
        <time>2020-06-08T11:02:56Z</time>
      </trkpt>
      <trkpt lat="48.20744" lon="-3.91396">
        <ele>105.1</ele>
        <time>2020-06-08T11:02:57Z</time>
      </trkpt>
      <trkpt lat="48.20743" lon="-3.91402">
        <ele>105</ele>
        <time>2020-06-08T11:02:58Z</time>
      </trkpt>
      <trkpt lat="48.20742" lon="-3.91408">
        <ele>105</ele>
        <time>2020-06-08T11:02:59Z</time>
      </trkpt>
      <trkpt lat="48.20741" lon="-3.91414">
        <ele>104.9</ele>
        <time>2020-06-08T11:03:00Z</time>
      </trkpt>
      <trkpt lat="48.2074" lon="-3.91421">
        <ele>104.8</ele>
        <time>2020-06-08T11:03:01Z</time>
      </trkpt>
      <trkpt lat="48.2074" lon="-3.91428">
        <ele>104.7</ele>
        <time>2020-06-08T11:03:02Z</time>
      </trkpt>
      <trkpt lat="48.20738" lon="-3.91435">
        <ele>104.5</ele>
        <time>2020-06-08T11:03:03Z</time>
      </trkpt>
      <trkpt lat="48.20737" lon="-3.91441">
        <ele>104.4</ele>
        <time>2020-06-08T11:03:04Z</time>
      </trkpt>
      <trkpt lat="48.20736" lon="-3.91448">
        <ele>104.3</ele>
        <time>2020-06-08T11:03:05Z</time>
      </trkpt>
      <trkpt lat="48.20735" lon="-3.91455">
        <ele>104.1</ele>
        <time>2020-06-08T11:03:06Z</time>
      </trkpt>
      <trkpt lat="48.20734" lon="-3.91463">
        <ele>104</ele>
        <time>2020-06-08T11:03:07Z</time>
      </trkpt>
      <trkpt lat="48.20732" lon="-3.91471">
        <ele>103.8</ele>
        <time>2020-06-08T11:03:08Z</time>
      </trkpt>
      <trkpt lat="48.20729" lon="-3.91479">
        <ele>103.6</ele>
        <time>2020-06-08T11:03:09Z</time>
      </trkpt>
      <trkpt lat="48.20727" lon="-3.91487">
        <ele>103.4</ele>
        <time>2020-06-08T11:03:10Z</time>
      </trkpt>
      <trkpt lat="48.20726" lon="-3.91496">
        <ele>103.1</ele>
        <time>2020-06-08T11:03:11Z</time>
      </trkpt>
      <trkpt lat="48.20725" lon="-3.91506">
        <ele>102.9</ele>
        <time>2020-06-08T11:03:12Z</time>
      </trkpt>
      <trkpt lat="48.20724" lon="-3.91515">
        <ele>102.6</ele>
        <time>2020-06-08T11:03:13Z</time>
      </trkpt>
      <trkpt lat="48.20723" lon="-3.91523">
        <ele>102.4</ele>
        <time>2020-06-08T11:03:14Z</time>
      </trkpt>
      <trkpt lat="48.20722" lon="-3.91533">
        <ele>102.1</ele>
        <time>2020-06-08T11:03:15Z</time>
      </trkpt>
      <trkpt lat="48.2072" lon="-3.91543">
        <ele>101.9</ele>
        <time>2020-06-08T11:03:16Z</time>
      </trkpt>
      <trkpt lat="48.20719" lon="-3.91552">
        <ele>101.6</ele>
        <time>2020-06-08T11:03:17Z</time>
      </trkpt>
      <trkpt lat="48.20717" lon="-3.91563">
        <ele>101.3</ele>
        <time>2020-06-08T11:03:18Z</time>
      </trkpt>
      <trkpt lat="48.20716" lon="-3.91574">
        <ele>100.9</ele>
        <time>2020-06-08T11:03:19Z</time>
      </trkpt>
      <trkpt lat="48.20714" lon="-3.91586">
        <ele>100.5</ele>
        <time>2020-06-08T11:03:20Z</time>
      </trkpt>
      <trkpt lat="48.20712" lon="-3.91598">
        <ele>100.2</ele>
        <time>2020-06-08T11:03:21Z</time>
      </trkpt>
      <trkpt lat="48.20711" lon="-3.91608">
        <ele>99.8</ele>
        <time>2020-06-08T11:03:22Z</time>
      </trkpt>
      <trkpt lat="48.20708" lon="-3.91618">
        <ele>99.5</ele>
        <time>2020-06-08T11:03:23Z</time>
      </trkpt>
      <trkpt lat="48.20707" lon="-3.91628">
        <ele>99.2</ele>
        <time>2020-06-08T11:03:24Z</time>
      </trkpt>
      <trkpt lat="48.20704" lon="-3.9164">
        <ele>98.9</ele>
        <time>2020-06-08T11:03:25Z</time>
      </trkpt>
      <trkpt lat="48.20702" lon="-3.91652">
        <ele>98.5</ele>
        <time>2020-06-08T11:03:26Z</time>
      </trkpt>
      <trkpt lat="48.207" lon="-3.91663">
        <ele>98.2</ele>
        <time>2020-06-08T11:03:27Z</time>
      </trkpt>
      <trkpt lat="48.20698" lon="-3.91675">
        <ele>97.8</ele>
        <time>2020-06-08T11:03:28Z</time>
      </trkpt>
      <trkpt lat="48.20696" lon="-3.91687">
        <ele>97.4</ele>
        <time>2020-06-08T11:03:29Z</time>
      </trkpt>
      <trkpt lat="48.20694" lon="-3.91698">
        <ele>96.9</ele>
        <time>2020-06-08T11:03:30Z</time>
      </trkpt>
      <trkpt lat="48.20692" lon="-3.9171">
        <ele>96.2</ele>
        <time>2020-06-08T11:03:31Z</time>
      </trkpt>
      <trkpt lat="48.20691" lon="-3.91722">
        <ele>95.6</ele>
        <time>2020-06-08T11:03:32Z</time>
      </trkpt>
      <trkpt lat="48.2069" lon="-3.91733">
        <ele>95.1</ele>
        <time>2020-06-08T11:03:33Z</time>
      </trkpt>
      <trkpt lat="48.2069" lon="-3.91746">
        <ele>94.6</ele>
        <time>2020-06-08T11:03:34Z</time>
      </trkpt>
      <trkpt lat="48.2069" lon="-3.91758">
        <ele>94.1</ele>
        <time>2020-06-08T11:03:35Z</time>
      </trkpt>
      <trkpt lat="48.20692" lon="-3.9177">
        <ele>93.6</ele>
        <time>2020-06-08T11:03:36Z</time>
      </trkpt>
      <trkpt lat="48.20693" lon="-3.91782">
        <ele>93.2</ele>
        <time>2020-06-08T11:03:37Z</time>
      </trkpt>
      <trkpt lat="48.20696" lon="-3.91794">
        <ele>92.7</ele>
        <time>2020-06-08T11:03:38Z</time>
      </trkpt>
      <trkpt lat="48.20698" lon="-3.91805">
        <ele>92.3</ele>
        <time>2020-06-08T11:03:39Z</time>
      </trkpt>
      <trkpt lat="48.20701" lon="-3.91817">
        <ele>91.8</ele>
        <time>2020-06-08T11:03:40Z</time>
      </trkpt>
      <trkpt lat="48.20704" lon="-3.91829">
        <ele>91.4</ele>
        <time>2020-06-08T11:03:41Z</time>
      </trkpt>
      <trkpt lat="48.20707" lon="-3.91841">
        <ele>90.9</ele>
        <time>2020-06-08T11:03:42Z</time>
      </trkpt>
      <trkpt lat="48.20709" lon="-3.91853">
        <ele>90.5</ele>
        <time>2020-06-08T11:03:43Z</time>
      </trkpt>
      <trkpt lat="48.20712" lon="-3.91866">
        <ele>90</ele>
        <time>2020-06-08T11:03:44Z</time>
      </trkpt>
      <trkpt lat="48.20714" lon="-3.91878">
        <ele>89.5</ele>
        <time>2020-06-08T11:03:45Z</time>
      </trkpt>
      <trkpt lat="48.20717" lon="-3.9189">
        <ele>89</ele>
        <time>2020-06-08T11:03:46Z</time>
      </trkpt>
      <trkpt lat="48.20721" lon="-3.91902">
        <ele>88.6</ele>
        <time>2020-06-08T11:03:47Z</time>
      </trkpt>
      <trkpt lat="48.20724" lon="-3.91914">
        <ele>88.1</ele>
        <time>2020-06-08T11:03:48Z</time>
      </trkpt>
      <trkpt lat="48.20727" lon="-3.91926">
        <ele>87.7</ele>
        <time>2020-06-08T11:03:49Z</time>
      </trkpt>
      <trkpt lat="48.2073" lon="-3.91938">
        <ele>87.2</ele>
        <time>2020-06-08T11:03:50Z</time>
      </trkpt>
      <trkpt lat="48.20733" lon="-3.9195">
        <ele>86.7</ele>
        <time>2020-06-08T11:03:51Z</time>
      </trkpt>
      <trkpt lat="48.20737" lon="-3.91962">
        <ele>86.2</ele>
        <time>2020-06-08T11:03:52Z</time>
      </trkpt>
      <trkpt lat="48.2074" lon="-3.91974">
        <ele>85.7</ele>
        <time>2020-06-08T11:03:53Z</time>
      </trkpt>
      <trkpt lat="48.20744" lon="-3.91986">
        <ele>85.3</ele>
        <time>2020-06-08T11:03:54Z</time>
      </trkpt>
      <trkpt lat="48.20748" lon="-3.91998">
        <ele>84.8</ele>
        <time>2020-06-08T11:03:55Z</time>
      </trkpt>
      <trkpt lat="48.20752" lon="-3.9201">
        <ele>84.3</ele>
        <time>2020-06-08T11:03:56Z</time>
      </trkpt>
      <trkpt lat="48.20756" lon="-3.92021">
        <ele>83.8</ele>
        <time>2020-06-08T11:03:57Z</time>
      </trkpt>
      <trkpt lat="48.2076" lon="-3.92033">
        <ele>83.4</ele>
        <time>2020-06-08T11:03:58Z</time>
      </trkpt>
      <trkpt lat="48.20763" lon="-3.92045">
        <ele>82.9</ele>
        <time>2020-06-08T11:03:59Z</time>
      </trkpt>
      <trkpt lat="48.20767" lon="-3.92056">
        <ele>82.5</ele>
        <time>2020-06-08T11:04:00Z</time>
      </trkpt>
      <trkpt lat="48.20771" lon="-3.92068">
        <ele>82</ele>
        <time>2020-06-08T11:04:01Z</time>
      </trkpt>
      <trkpt lat="48.20774" lon="-3.9208">
        <ele>81.5</ele>
        <time>2020-06-08T11:04:02Z</time>
      </trkpt>
      <trkpt lat="48.20778" lon="-3.92092">
        <ele>81.1</ele>
        <time>2020-06-08T11:04:03Z</time>
      </trkpt>
      <trkpt lat="48.20782" lon="-3.92103">
        <ele>80.6</ele>
        <time>2020-06-08T11:04:04Z</time>
      </trkpt>
      <trkpt lat="48.20786" lon="-3.92115">
        <ele>80.2</ele>
        <time>2020-06-08T11:04:05Z</time>
      </trkpt>
      <trkpt lat="48.20792" lon="-3.92125">
        <ele>79.8</ele>
        <time>2020-06-08T11:04:06Z</time>
      </trkpt>
      <trkpt lat="48.20798" lon="-3.92135">
        <ele>79.4</ele>
        <time>2020-06-08T11:04:07Z</time>
      </trkpt>
      <trkpt lat="48.20804" lon="-3.92144">
        <ele>79</ele>
        <time>2020-06-08T11:04:08Z</time>
      </trkpt>
      <trkpt lat="48.20811" lon="-3.92153">
        <ele>78.5</ele>
        <time>2020-06-08T11:04:09Z</time>
      </trkpt>
      <trkpt lat="48.20818" lon="-3.9216">
        <ele>78</ele>
        <time>2020-06-08T11:04:10Z</time>
      </trkpt>
      <trkpt lat="48.20825" lon="-3.92166">
        <ele>77.6</ele>
        <time>2020-06-08T11:04:11Z</time>
      </trkpt>
      <trkpt lat="48.20833" lon="-3.92172">
        <ele>77</ele>
        <time>2020-06-08T11:04:12Z</time>
      </trkpt>
      <trkpt lat="48.20841" lon="-3.92177">
        <ele>76.5</ele>
        <time>2020-06-08T11:04:13Z</time>
      </trkpt>
      <trkpt lat="48.20849" lon="-3.92182">
        <ele>75.9</ele>
        <time>2020-06-08T11:04:14Z</time>
      </trkpt>
      <trkpt lat="48.20856" lon="-3.92189">
        <ele>75.4</ele>
        <time>2020-06-08T11:04:15Z</time>
      </trkpt>
      <trkpt lat="48.20862" lon="-3.92197">
        <ele>74.9</ele>
        <time>2020-06-08T11:04:16Z</time>
      </trkpt>
      <trkpt lat="48.20869" lon="-3.92206">
        <ele>74.3</ele>
        <time>2020-06-08T11:04:17Z</time>
      </trkpt>
      <trkpt lat="48.20875" lon="-3.92216">
        <ele>73.7</ele>
        <time>2020-06-08T11:04:18Z</time>
      </trkpt>
      <trkpt lat="48.2088" lon="-3.92228">
        <ele>73.1</ele>
        <time>2020-06-08T11:04:19Z</time>
      </trkpt>
      <trkpt lat="48.20886" lon="-3.9224">
        <ele>72.5</ele>
        <time>2020-06-08T11:04:20Z</time>
      </trkpt>
      <trkpt lat="48.2089" lon="-3.92253">
        <ele>72.1</ele>
        <time>2020-06-08T11:04:21Z</time>
      </trkpt>
      <trkpt lat="48.20894" lon="-3.92267">
        <ele>71.7</ele>
        <time>2020-06-08T11:04:22Z</time>
      </trkpt>
      <trkpt lat="48.20898" lon="-3.9228">
        <ele>71.3</ele>
        <time>2020-06-08T11:04:23Z</time>
      </trkpt>
      <trkpt lat="48.209" lon="-3.92293">
        <ele>71.1</ele>
        <time>2020-06-08T11:04:24Z</time>
      </trkpt>
      <trkpt lat="48.20901" lon="-3.92307">
        <ele>70.9</ele>
        <time>2020-06-08T11:04:25Z</time>
      </trkpt>
      <trkpt lat="48.20902" lon="-3.9232">
        <ele>70.8</ele>
        <time>2020-06-08T11:04:26Z</time>
      </trkpt>
      <trkpt lat="48.20903" lon="-3.92333">
        <ele>70.7</ele>
        <time>2020-06-08T11:04:27Z</time>
      </trkpt>
      <trkpt lat="48.20904" lon="-3.92345">
        <ele>70.7</ele>
        <time>2020-06-08T11:04:28Z</time>
      </trkpt>
      <trkpt lat="48.20905" lon="-3.92357">
        <ele>70.6</ele>
        <time>2020-06-08T11:04:29Z</time>
      </trkpt>
      <trkpt lat="48.20906" lon="-3.92369">
        <ele>70.6</ele>
        <time>2020-06-08T11:04:30Z</time>
      </trkpt>
      <trkpt lat="48.20907" lon="-3.92381">
        <ele>70.6</ele>
        <time>2020-06-08T11:04:31Z</time>
      </trkpt>
      <trkpt lat="48.20909" lon="-3.92393">
        <ele>70.6</ele>
        <time>2020-06-08T11:04:32Z</time>
      </trkpt>
      <trkpt lat="48.2091" lon="-3.92405">
        <ele>70.6</ele>
        <time>2020-06-08T11:04:33Z</time>
      </trkpt>
      <trkpt lat="48.20911" lon="-3.92418">
        <ele>70.6</ele>
        <time>2020-06-08T11:04:34Z</time>
      </trkpt>
      <trkpt lat="48.20912" lon="-3.92431">
        <ele>70.7</ele>
        <time>2020-06-08T11:04:35Z</time>
      </trkpt>
      <trkpt lat="48.20913" lon="-3.92444">
        <ele>70.9</ele>
        <time>2020-06-08T11:04:36Z</time>
      </trkpt>
      <trkpt lat="48.20914" lon="-3.92456">
        <ele>71.1</ele>
        <time>2020-06-08T11:04:37Z</time>
      </trkpt>
      <trkpt lat="48.20916" lon="-3.92469">
        <ele>71.4</ele>
        <time>2020-06-08T11:04:38Z</time>
      </trkpt>
      <trkpt lat="48.20918" lon="-3.92481">
        <ele>71.8</ele>
        <time>2020-06-08T11:04:39Z</time>
      </trkpt>
      <trkpt lat="48.2092" lon="-3.92492">
        <ele>72.4</ele>
        <time>2020-06-08T11:04:40Z</time>
      </trkpt>
      <trkpt lat="48.20923" lon="-3.92503">
        <ele>73</ele>
        <time>2020-06-08T11:04:41Z</time>
      </trkpt>
      <trkpt lat="48.20926" lon="-3.92513">
        <ele>73.5</ele>
        <time>2020-06-08T11:04:42Z</time>
      </trkpt>
      <trkpt lat="48.20928" lon="-3.92522">
        <ele>73.8</ele>
        <time>2020-06-08T11:04:43Z</time>
      </trkpt>
      <trkpt lat="48.2093" lon="-3.92531">
        <ele>74.1</ele>
        <time>2020-06-08T11:04:44Z</time>
      </trkpt>
      <trkpt lat="48.20933" lon="-3.9254">
        <ele>74.5</ele>
        <time>2020-06-08T11:04:45Z</time>
      </trkpt>
      <trkpt lat="48.20937" lon="-3.92548">
        <ele>74.8</ele>
        <time>2020-06-08T11:04:46Z</time>
      </trkpt>
      <trkpt lat="48.2094" lon="-3.92556">
        <ele>75.2</ele>
        <time>2020-06-08T11:04:47Z</time>
      </trkpt>
      <trkpt lat="48.20943" lon="-3.92563">
        <ele>75.5</ele>
        <time>2020-06-08T11:04:48Z</time>
      </trkpt>
      <trkpt lat="48.20946" lon="-3.92571">
        <ele>76</ele>
        <time>2020-06-08T11:04:49Z</time>
      </trkpt>
      <trkpt lat="48.2095" lon="-3.92577">
        <ele>76.4</ele>
        <time>2020-06-08T11:04:50Z</time>
      </trkpt>
      <trkpt lat="48.20954" lon="-3.92583">
        <ele>76.7</ele>
        <time>2020-06-08T11:04:51Z</time>
      </trkpt>
      <trkpt lat="48.20957" lon="-3.92589">
        <ele>77.1</ele>
        <time>2020-06-08T11:04:52Z</time>
      </trkpt>
      <trkpt lat="48.20961" lon="-3.92595">
        <ele>77.4</ele>
        <time>2020-06-08T11:04:53Z</time>
      </trkpt>
      <trkpt lat="48.20965" lon="-3.92601">
        <ele>77.7</ele>
        <time>2020-06-08T11:04:54Z</time>
      </trkpt>
      <trkpt lat="48.20968" lon="-3.92606">
        <ele>78</ele>
        <time>2020-06-08T11:04:55Z</time>
      </trkpt>
      <trkpt lat="48.20972" lon="-3.92611">
        <ele>78.4</ele>
        <time>2020-06-08T11:04:56Z</time>
      </trkpt>
      <trkpt lat="48.20976" lon="-3.92615">
        <ele>78.7</ele>
        <time>2020-06-08T11:04:57Z</time>
      </trkpt>
      <trkpt lat="48.2098" lon="-3.92619">
        <ele>79.1</ele>
        <time>2020-06-08T11:04:58Z</time>
      </trkpt>
      <trkpt lat="48.20984" lon="-3.92623">
        <ele>79.4</ele>
        <time>2020-06-08T11:04:59Z</time>
      </trkpt>
      <trkpt lat="48.20988" lon="-3.92627">
        <ele>79.7</ele>
        <time>2020-06-08T11:05:00Z</time>
      </trkpt>
      <trkpt lat="48.20991" lon="-3.92631">
        <ele>79.9</ele>
        <time>2020-06-08T11:05:01Z</time>
      </trkpt>
      <trkpt lat="48.20994" lon="-3.92634">
        <ele>80.2</ele>
        <time>2020-06-08T11:05:02Z</time>
      </trkpt>
      <trkpt lat="48.20997" lon="-3.92636">
        <ele>80.4</ele>
        <time>2020-06-08T11:05:03Z</time>
      </trkpt>
      <trkpt lat="48.21" lon="-3.92639">
        <ele>80.7</ele>
        <time>2020-06-08T11:05:04Z</time>
      </trkpt>
      <trkpt lat="48.21003" lon="-3.92643">
        <ele>80.9</ele>
        <time>2020-06-08T11:05:05Z</time>
      </trkpt>
      <trkpt lat="48.21007" lon="-3.92644">
        <ele>81.2</ele>
        <time>2020-06-08T11:05:06Z</time>
      </trkpt>
      <trkpt lat="48.21011" lon="-3.92646">
        <ele>81.4</ele>
        <time>2020-06-08T11:05:07Z</time>
      </trkpt>
      <trkpt lat="48.21014" lon="-3.92648">
        <ele>81.6</ele>
        <time>2020-06-08T11:05:08Z</time>
      </trkpt>
      <trkpt lat="48.21018" lon="-3.92651">
        <ele>81.9</ele>
        <time>2020-06-08T11:05:09Z</time>
      </trkpt>
      <trkpt lat="48.21022" lon="-3.92654">
        <ele>82.2</ele>
        <time>2020-06-08T11:05:10Z</time>
      </trkpt>
      <trkpt lat="48.21027" lon="-3.92657">
        <ele>82.4</ele>
        <time>2020-06-08T11:05:11Z</time>
      </trkpt>
      <trkpt lat="48.2103" lon="-3.92659">
        <ele>82.6</ele>
        <time>2020-06-08T11:05:12Z</time>
      </trkpt>
      <trkpt lat="48.21034" lon="-3.92663">
        <ele>82.9</ele>
        <time>2020-06-08T11:05:13Z</time>
      </trkpt>
      <trkpt lat="48.21037" lon="-3.92665">
        <ele>83.1</ele>
        <time>2020-06-08T11:05:14Z</time>
      </trkpt>
      <trkpt lat="48.21041" lon="-3.92667">
        <ele>83.3</ele>
        <time>2020-06-08T11:05:15Z</time>
      </trkpt>
      <trkpt lat="48.21044" lon="-3.9267">
        <ele>83.5</ele>
        <time>2020-06-08T11:05:16Z</time>
      </trkpt>
      <trkpt lat="48.21047" lon="-3.92674">
        <ele>83.7</ele>
        <time>2020-06-08T11:05:17Z</time>
      </trkpt>
      <trkpt lat="48.2105" lon="-3.92675">
        <ele>83.8</ele>
        <time>2020-06-08T11:05:18Z</time>
      </trkpt>
      <trkpt lat="48.21053" lon="-3.92677">
        <ele>84</ele>
        <time>2020-06-08T11:05:19Z</time>
      </trkpt>
      <trkpt lat="48.21056" lon="-3.92679">
        <ele>84.1</ele>
        <time>2020-06-08T11:05:20Z</time>
      </trkpt>
      <trkpt lat="48.21059" lon="-3.92682">
        <ele>84.4</ele>
        <time>2020-06-08T11:05:21Z</time>
      </trkpt>
      <trkpt lat="48.21062" lon="-3.92684">
        <ele>84.5</ele>
        <time>2020-06-08T11:05:22Z</time>
      </trkpt>
      <trkpt lat="48.21065" lon="-3.92686">
        <ele>84.7</ele>
        <time>2020-06-08T11:05:23Z</time>
      </trkpt>
      <trkpt lat="48.21068" lon="-3.92688">
        <ele>84.9</ele>
        <time>2020-06-08T11:05:24Z</time>
      </trkpt>
      <trkpt lat="48.21071" lon="-3.9269">
        <ele>85</ele>
        <time>2020-06-08T11:05:25Z</time>
      </trkpt>
      <trkpt lat="48.21075" lon="-3.92691">
        <ele>85.2</ele>
        <time>2020-06-08T11:05:26Z</time>
      </trkpt>
      <trkpt lat="48.21076" lon="-3.92691">
        <ele>85.3</ele>
        <time>2020-06-08T11:05:27Z</time>
      </trkpt>
      <trkpt lat="48.21077" lon="-3.92692">
        <ele>85.4</ele>
        <time>2020-06-08T11:05:28Z</time>
      </trkpt>
      <trkpt lat="48.21079" lon="-3.92692">
        <ele>85.5</ele>
        <time>2020-06-08T11:05:29Z</time>
      </trkpt>
      <trkpt lat="48.21083" lon="-3.92694">
        <ele>85.7</ele>
        <time>2020-06-08T11:05:30Z</time>
      </trkpt>
      <trkpt lat="48.21084" lon="-3.92694">
        <ele>85.8</ele>
        <time>2020-06-08T11:05:31Z</time>
      </trkpt>
      <trkpt lat="48.21087" lon="-3.92697">
        <ele>86</ele>
        <time>2020-06-08T11:05:32Z</time>
      </trkpt>
      <trkpt lat="48.21088" lon="-3.92698">
        <ele>86</ele>
        <time>2020-06-08T11:05:33Z</time>
      </trkpt>
      <trkpt lat="48.21091" lon="-3.927">
        <ele>86.2</ele>
        <time>2020-06-08T11:05:34Z</time>
      </trkpt>
      <trkpt lat="48.21092" lon="-3.92701">
        <ele>86.2</ele>
        <time>2020-06-08T11:05:35Z</time>
      </trkpt>
      <trkpt lat="48.21094" lon="-3.92703">
        <ele>86.3</ele>
        <time>2020-06-08T11:05:36Z</time>
      </trkpt>
      <trkpt lat="48.21098" lon="-3.92703">
        <ele>86.5</ele>
        <time>2020-06-08T11:05:37Z</time>
      </trkpt>
      <trkpt lat="48.21098" lon="-3.92704">
        <ele>86.5</ele>
        <time>2020-06-08T11:05:38Z</time>
      </trkpt>
      <trkpt lat="48.21101" lon="-3.92705">
        <ele>86.7</ele>
        <time>2020-06-08T11:05:39Z</time>
      </trkpt>
      <trkpt lat="48.21102" lon="-3.92706">
        <ele>86.7</ele>
        <time>2020-06-08T11:05:40Z</time>
      </trkpt>
      <trkpt lat="48.21105" lon="-3.92708">
        <ele>86.8</ele>
        <time>2020-06-08T11:05:41Z</time>
      </trkpt>
      <trkpt lat="48.21106" lon="-3.92708">
        <ele>86.9</ele>
        <time>2020-06-08T11:05:42Z</time>
      </trkpt>
      <trkpt lat="48.21109" lon="-3.92711">
        <ele>87</ele>
        <time>2020-06-08T11:05:43Z</time>
      </trkpt>
      <trkpt lat="48.2111" lon="-3.92711">
        <ele>87.1</ele>
        <time>2020-06-08T11:05:44Z</time>
      </trkpt>
      <trkpt lat="48.21114" lon="-3.92713">
        <ele>87.2</ele>
        <time>2020-06-08T11:05:45Z</time>
      </trkpt>
      <trkpt lat="48.21115" lon="-3.92714">
        <ele>87.3</ele>
        <time>2020-06-08T11:05:46Z</time>
      </trkpt>
      <trkpt lat="48.21118" lon="-3.92715">
        <ele>87.4</ele>
        <time>2020-06-08T11:05:47Z</time>
      </trkpt>
      <trkpt lat="48.2112" lon="-3.92717">
        <ele>87.5</ele>
        <time>2020-06-08T11:05:48Z</time>
      </trkpt>
      <trkpt lat="48.21121" lon="-3.92717">
        <ele>87.5</ele>
        <time>2020-06-08T11:05:49Z</time>
      </trkpt>
      <trkpt lat="48.21124" lon="-3.92719">
        <ele>87.7</ele>
        <time>2020-06-08T11:05:50Z</time>
      </trkpt>
      <trkpt lat="48.21128" lon="-3.92722">
        <ele>87.8</ele>
        <time>2020-06-08T11:05:51Z</time>
      </trkpt>
      <trkpt lat="48.21129" lon="-3.92723">
        <ele>87.9</ele>
        <time>2020-06-08T11:05:52Z</time>
      </trkpt>
      <trkpt lat="48.21132" lon="-3.92725">
        <ele>88</ele>
        <time>2020-06-08T11:05:53Z</time>
      </trkpt>
      <trkpt lat="48.21133" lon="-3.92726">
        <ele>88.1</ele>
        <time>2020-06-08T11:05:54Z</time>
      </trkpt>
      <trkpt lat="48.21136" lon="-3.92728">
        <ele>88.2</ele>
        <time>2020-06-08T11:05:55Z</time>
      </trkpt>
      <trkpt lat="48.21136" lon="-3.92729">
        <ele>88.3</ele>
        <time>2020-06-08T11:05:56Z</time>
      </trkpt>
      <trkpt lat="48.2114" lon="-3.9273">
        <ele>88.4</ele>
        <time>2020-06-08T11:05:57Z</time>
      </trkpt>
      <trkpt lat="48.21141" lon="-3.9273">
        <ele>88.5</ele>
        <time>2020-06-08T11:05:58Z</time>
      </trkpt>
      <trkpt lat="48.21143" lon="-3.92731">
        <ele>88.6</ele>
        <time>2020-06-08T11:05:59Z</time>
      </trkpt>
      <trkpt lat="48.21144" lon="-3.92732">
        <ele>88.7</ele>
        <time>2020-06-08T11:06:00Z</time>
      </trkpt>
      <trkpt lat="48.21148" lon="-3.92733">
        <ele>88.8</ele>
        <time>2020-06-08T11:06:01Z</time>
      </trkpt>
      <trkpt lat="48.21149" lon="-3.92733">
        <ele>88.9</ele>
        <time>2020-06-08T11:06:02Z</time>
      </trkpt>
      <trkpt lat="48.21152" lon="-3.92735">
        <ele>89</ele>
        <time>2020-06-08T11:06:03Z</time>
      </trkpt>
      <trkpt lat="48.21156" lon="-3.92736">
        <ele>89.2</ele>
        <time>2020-06-08T11:06:04Z</time>
      </trkpt>
      <trkpt lat="48.21157" lon="-3.92736">
        <ele>89.3</ele>
        <time>2020-06-08T11:06:05Z</time>
      </trkpt>
      <trkpt lat="48.2116" lon="-3.92738">
        <ele>89.4</ele>
        <time>2020-06-08T11:06:06Z</time>
      </trkpt>
      <trkpt lat="48.21161" lon="-3.92739">
        <ele>89.5</ele>
        <time>2020-06-08T11:06:07Z</time>
      </trkpt>
      <trkpt lat="48.21164" lon="-3.92742">
        <ele>89.7</ele>
        <time>2020-06-08T11:06:08Z</time>
      </trkpt>
      <trkpt lat="48.21165" lon="-3.92743">
        <ele>89.7</ele>
        <time>2020-06-08T11:06:09Z</time>
      </trkpt>
      <trkpt lat="48.21168" lon="-3.92745">
        <ele>89.9</ele>
        <time>2020-06-08T11:06:10Z</time>
      </trkpt>
      <trkpt lat="48.21169" lon="-3.92745">
        <ele>89.9</ele>
        <time>2020-06-08T11:06:11Z</time>
      </trkpt>
      <trkpt lat="48.21172" lon="-3.92748">
        <ele>90.1</ele>
        <time>2020-06-08T11:06:12Z</time>
      </trkpt>
      <trkpt lat="48.21173" lon="-3.92749">
        <ele>90.1</ele>
        <time>2020-06-08T11:06:13Z</time>
      </trkpt>
      <trkpt lat="48.21177" lon="-3.9275">
        <ele>90.3</ele>
        <time>2020-06-08T11:06:14Z</time>
      </trkpt>
      <trkpt lat="48.21179" lon="-3.92751">
        <ele>90.4</ele>
        <time>2020-06-08T11:06:15Z</time>
      </trkpt>
      <trkpt lat="48.21182" lon="-3.92754">
        <ele>90.6</ele>
        <time>2020-06-08T11:06:16Z</time>
      </trkpt>
      <trkpt lat="48.21184" lon="-3.92756">
        <ele>90.6</ele>
        <time>2020-06-08T11:06:17Z</time>
      </trkpt>
      <trkpt lat="48.21188" lon="-3.92758">
        <ele>90.8</ele>
        <time>2020-06-08T11:06:18Z</time>
      </trkpt>
      <trkpt lat="48.21192" lon="-3.9276">
        <ele>91</ele>
        <time>2020-06-08T11:06:19Z</time>
      </trkpt>
      <trkpt lat="48.21196" lon="-3.92762">
        <ele>91.2</ele>
        <time>2020-06-08T11:06:20Z</time>
      </trkpt>
      <trkpt lat="48.212" lon="-3.92764">
        <ele>91.4</ele>
        <time>2020-06-08T11:06:21Z</time>
      </trkpt>
      <trkpt lat="48.21204" lon="-3.92766">
        <ele>91.6</ele>
        <time>2020-06-08T11:06:22Z</time>
      </trkpt>
      <trkpt lat="48.21208" lon="-3.92769">
        <ele>91.8</ele>
        <time>2020-06-08T11:06:23Z</time>
      </trkpt>
      <trkpt lat="48.21212" lon="-3.9277">
        <ele>92</ele>
        <time>2020-06-08T11:06:24Z</time>
      </trkpt>
      <trkpt lat="48.21217" lon="-3.92772">
        <ele>92.2</ele>
        <time>2020-06-08T11:06:25Z</time>
      </trkpt>
      <trkpt lat="48.21221" lon="-3.92774">
        <ele>92.4</ele>
        <time>2020-06-08T11:06:26Z</time>
      </trkpt>
      <trkpt lat="48.21226" lon="-3.92777">
        <ele>92.6</ele>
        <time>2020-06-08T11:06:27Z</time>
      </trkpt>
      <trkpt lat="48.21231" lon="-3.9278">
        <ele>92.8</ele>
        <time>2020-06-08T11:06:28Z</time>
      </trkpt>
      <trkpt lat="48.21235" lon="-3.92782">
        <ele>93</ele>
        <time>2020-06-08T11:06:29Z</time>
      </trkpt>
      <trkpt lat="48.21238" lon="-3.92784">
        <ele>93.2</ele>
        <time>2020-06-08T11:06:30Z</time>
      </trkpt>
      <trkpt lat="48.21242" lon="-3.92786">
        <ele>93.4</ele>
        <time>2020-06-08T11:06:31Z</time>
      </trkpt>
      <trkpt lat="48.21246" lon="-3.92789">
        <ele>93.6</ele>
        <time>2020-06-08T11:06:32Z</time>
      </trkpt>
      <trkpt lat="48.2125" lon="-3.9279">
        <ele>93.7</ele>
        <time>2020-06-08T11:06:33Z</time>
      </trkpt>
      <trkpt lat="48.21252" lon="-3.92793">
        <ele>93.9</ele>
        <time>2020-06-08T11:06:34Z</time>
      </trkpt>
      <trkpt lat="48.21256" lon="-3.92795">
        <ele>94.1</ele>
        <time>2020-06-08T11:06:35Z</time>
      </trkpt>
      <trkpt lat="48.21259" lon="-3.92797">
        <ele>94.2</ele>
        <time>2020-06-08T11:06:36Z</time>
      </trkpt>
      <trkpt lat="48.21263" lon="-3.928">
        <ele>94.4</ele>
        <time>2020-06-08T11:06:37Z</time>
      </trkpt>
      <trkpt lat="48.21267" lon="-3.92804">
        <ele>94.6</ele>
        <time>2020-06-08T11:06:38Z</time>
      </trkpt>
      <trkpt lat="48.21272" lon="-3.92806">
        <ele>94.8</ele>
        <time>2020-06-08T11:06:39Z</time>
      </trkpt>
      <trkpt lat="48.21276" lon="-3.92808">
        <ele>95</ele>
        <time>2020-06-08T11:06:40Z</time>
      </trkpt>
      <trkpt lat="48.21281" lon="-3.9281">
        <ele>95.3</ele>
        <time>2020-06-08T11:06:41Z</time>
      </trkpt>
      <trkpt lat="48.21285" lon="-3.92812">
        <ele>95.5</ele>
        <time>2020-06-08T11:06:42Z</time>
      </trkpt>
      <trkpt lat="48.2129" lon="-3.92812">
        <ele>95.7</ele>
        <time>2020-06-08T11:06:43Z</time>
      </trkpt>
      <trkpt lat="48.21294" lon="-3.92814">
        <ele>95.9</ele>
        <time>2020-06-08T11:06:44Z</time>
      </trkpt>
      <trkpt lat="48.21298" lon="-3.92816">
        <ele>96</ele>
        <time>2020-06-08T11:06:45Z</time>
      </trkpt>
      <trkpt lat="48.21302" lon="-3.92818">
        <ele>96.2</ele>
        <time>2020-06-08T11:06:46Z</time>
      </trkpt>
      <trkpt lat="48.21307" lon="-3.9282">
        <ele>96.5</ele>
        <time>2020-06-08T11:06:47Z</time>
      </trkpt>
      <trkpt lat="48.2131" lon="-3.92822">
        <ele>96.6</ele>
        <time>2020-06-08T11:06:48Z</time>
      </trkpt>
      <trkpt lat="48.21313" lon="-3.92825">
        <ele>96.8</ele>
        <time>2020-06-08T11:06:49Z</time>
      </trkpt>
      <trkpt lat="48.21317" lon="-3.92828">
        <ele>97</ele>
        <time>2020-06-08T11:06:50Z</time>
      </trkpt>
      <trkpt lat="48.21319" lon="-3.9283">
        <ele>97.1</ele>
        <time>2020-06-08T11:06:51Z</time>
      </trkpt>
      <trkpt lat="48.21323" lon="-3.92833">
        <ele>97.3</ele>
        <time>2020-06-08T11:06:52Z</time>
      </trkpt>
      <trkpt lat="48.21327" lon="-3.92835">
        <ele>97.5</ele>
        <time>2020-06-08T11:06:53Z</time>
      </trkpt>
      <trkpt lat="48.2133" lon="-3.92837">
        <ele>97.6</ele>
        <time>2020-06-08T11:06:54Z</time>
      </trkpt>
      <trkpt lat="48.21333" lon="-3.92838">
        <ele>97.8</ele>
        <time>2020-06-08T11:06:55Z</time>
      </trkpt>
      <trkpt lat="48.21336" lon="-3.92841">
        <ele>97.9</ele>
        <time>2020-06-08T11:06:56Z</time>
      </trkpt>
      <trkpt lat="48.2134" lon="-3.92844">
        <ele>98.1</ele>
        <time>2020-06-08T11:06:57Z</time>
      </trkpt>
      <trkpt lat="48.21346" lon="-3.92847">
        <ele>98.3</ele>
        <time>2020-06-08T11:06:58Z</time>
      </trkpt>
      <trkpt lat="48.2135" lon="-3.92849">
        <ele>98.5</ele>
        <time>2020-06-08T11:06:59Z</time>
      </trkpt>
      <trkpt lat="48.21353" lon="-3.9285">
        <ele>98.6</ele>
        <time>2020-06-08T11:07:00Z</time>
      </trkpt>
      <trkpt lat="48.21358" lon="-3.92853">
        <ele>98.6</ele>
        <time>2020-06-08T11:07:01Z</time>
      </trkpt>
      <trkpt lat="48.21365" lon="-3.92855">
        <ele>98.9</ele>
        <time>2020-06-08T11:07:02Z</time>
      </trkpt>
      <trkpt lat="48.2137" lon="-3.92857">
        <ele>99.2</ele>
        <time>2020-06-08T11:07:03Z</time>
      </trkpt>
      <trkpt lat="48.21374" lon="-3.92859">
        <ele>99.5</ele>
        <time>2020-06-08T11:07:04Z</time>
      </trkpt>
      <trkpt lat="48.21378" lon="-3.92861">
        <ele>99.6</ele>
        <time>2020-06-08T11:07:05Z</time>
      </trkpt>
      <trkpt lat="48.21381" lon="-3.92864">
        <ele>99.8</ele>
        <time>2020-06-08T11:07:06Z</time>
      </trkpt>
      <trkpt lat="48.21384" lon="-3.92867">
        <ele>99.9</ele>
        <time>2020-06-08T11:07:07Z</time>
      </trkpt>
      <trkpt lat="48.21386" lon="-3.9287">
        <ele>100</ele>
        <time>2020-06-08T11:07:08Z</time>
      </trkpt>
      <trkpt lat="48.2139" lon="-3.92873">
        <ele>100.1</ele>
        <time>2020-06-08T11:07:09Z</time>
      </trkpt>
      <trkpt lat="48.21393" lon="-3.92875">
        <ele>100.3</ele>
        <time>2020-06-08T11:07:10Z</time>
      </trkpt>
      <trkpt lat="48.21398" lon="-3.92878">
        <ele>100.4</ele>
        <time>2020-06-08T11:07:11Z</time>
      </trkpt>
      <trkpt lat="48.21401" lon="-3.92881">
        <ele>100.5</ele>
        <time>2020-06-08T11:07:12Z</time>
      </trkpt>
      <trkpt lat="48.21403" lon="-3.92882">
        <ele>100.6</ele>
        <time>2020-06-08T11:07:13Z</time>
      </trkpt>
      <trkpt lat="48.21406" lon="-3.92883">
        <ele>100.6</ele>
        <time>2020-06-08T11:07:14Z</time>
      </trkpt>
      <trkpt lat="48.21409" lon="-3.92885">
        <ele>100.7</ele>
        <time>2020-06-08T11:07:15Z</time>
      </trkpt>
      <trkpt lat="48.2141" lon="-3.92886">
        <ele>100.7</ele>
        <time>2020-06-08T11:07:16Z</time>
      </trkpt>
      <trkpt lat="48.21413" lon="-3.92886">
        <ele>100.8</ele>
        <time>2020-06-08T11:07:17Z</time>
      </trkpt>
      <trkpt lat="48.21416" lon="-3.92888">
        <ele>100.9</ele>
        <time>2020-06-08T11:07:18Z</time>
      </trkpt>
      <trkpt lat="48.21417" lon="-3.92888">
        <ele>100.9</ele>
        <time>2020-06-08T11:07:19Z</time>
      </trkpt>
      <trkpt lat="48.21419" lon="-3.9289">
        <ele>100.9</ele>
        <time>2020-06-08T11:07:20Z</time>
      </trkpt>
      <trkpt lat="48.2142" lon="-3.92891">
        <ele>101</ele>
        <time>2020-06-08T11:07:21Z</time>
      </trkpt>
      <trkpt lat="48.21423" lon="-3.92892">
        <ele>101</ele>
        <time>2020-06-08T11:07:22Z</time>
      </trkpt>
      <trkpt lat="48.21426" lon="-3.92894">
        <ele>101.1</ele>
        <time>2020-06-08T11:07:23Z</time>
      </trkpt>
      <trkpt lat="48.21429" lon="-3.92895">
        <ele>101.2</ele>
        <time>2020-06-08T11:07:24Z</time>
      </trkpt>
      <trkpt lat="48.21432" lon="-3.92897">
        <ele>101.2</ele>
        <time>2020-06-08T11:07:25Z</time>
      </trkpt>
      <trkpt lat="48.21436" lon="-3.92899">
        <ele>101.3</ele>
        <time>2020-06-08T11:07:26Z</time>
      </trkpt>
      <trkpt lat="48.2144" lon="-3.92901">
        <ele>101.3</ele>
        <time>2020-06-08T11:07:27Z</time>
      </trkpt>
      <trkpt lat="48.21443" lon="-3.92903">
        <ele>101.4</ele>
        <time>2020-06-08T11:07:28Z</time>
      </trkpt>
      <trkpt lat="48.21447" lon="-3.92905">
        <ele>101.4</ele>
        <time>2020-06-08T11:07:29Z</time>
      </trkpt>
      <trkpt lat="48.2145" lon="-3.92906">
        <ele>101.4</ele>
        <time>2020-06-08T11:07:30Z</time>
      </trkpt>
      <trkpt lat="48.21453" lon="-3.92909">
        <ele>101.4</ele>
        <time>2020-06-08T11:07:31Z</time>
      </trkpt>
      <trkpt lat="48.21455" lon="-3.9291">
        <ele>101.4</ele>
        <time>2020-06-08T11:07:32Z</time>
      </trkpt>
      <trkpt lat="48.21457" lon="-3.92911">
        <ele>101.4</ele>
        <time>2020-06-08T11:07:33Z</time>
      </trkpt>
      <trkpt lat="48.2146" lon="-3.92914">
        <ele>101.4</ele>
        <time>2020-06-08T11:07:34Z</time>
      </trkpt>
      <trkpt lat="48.21463" lon="-3.92916">
        <ele>101.4</ele>
        <time>2020-06-08T11:07:35Z</time>
      </trkpt>
      <trkpt lat="48.21466" lon="-3.92918">
        <ele>101.4</ele>
        <time>2020-06-08T11:07:36Z</time>
      </trkpt>
      <trkpt lat="48.21468" lon="-3.92918">
        <ele>101.4</ele>
        <time>2020-06-08T11:07:37Z</time>
      </trkpt>
      <trkpt lat="48.21471" lon="-3.92919">
        <ele>101.4</ele>
        <time>2020-06-08T11:07:38Z</time>
      </trkpt>
      <trkpt lat="48.21474" lon="-3.9292">
        <ele>101.3</ele>
        <time>2020-06-08T11:07:39Z</time>
      </trkpt>
      <trkpt lat="48.21475" lon="-3.9292">
        <ele>101.3</ele>
        <time>2020-06-08T11:07:40Z</time>
      </trkpt>
      <trkpt lat="48.21478" lon="-3.9292">
        <ele>101.3</ele>
        <time>2020-06-08T11:07:41Z</time>
      </trkpt>
      <trkpt lat="48.21481" lon="-3.92921">
        <ele>101.3</ele>
        <time>2020-06-08T11:07:42Z</time>
      </trkpt>
      <trkpt lat="48.21482" lon="-3.92922">
        <ele>101.3</ele>
        <time>2020-06-08T11:07:43Z</time>
      </trkpt>
      <trkpt lat="48.21484" lon="-3.92923">
        <ele>101.3</ele>
        <time>2020-06-08T11:07:44Z</time>
      </trkpt>
      <trkpt lat="48.21487" lon="-3.92925">
        <ele>101.3</ele>
        <time>2020-06-08T11:07:45Z</time>
      </trkpt>
      <trkpt lat="48.21488" lon="-3.92926">
        <ele>101.2</ele>
        <time>2020-06-08T11:07:46Z</time>
      </trkpt>
      <trkpt lat="48.21491" lon="-3.92927">
        <ele>101.2</ele>
        <time>2020-06-08T11:07:47Z</time>
      </trkpt>
      <trkpt lat="48.21492" lon="-3.92928">
        <ele>101.2</ele>
        <time>2020-06-08T11:07:48Z</time>
      </trkpt>
      <trkpt lat="48.21492" lon="-3.92929">
        <ele>101.2</ele>
        <time>2020-06-08T11:07:49Z</time>
      </trkpt>
      <trkpt lat="48.21494" lon="-3.92931">
        <ele>101.2</ele>
        <time>2020-06-08T11:07:50Z</time>
      </trkpt>
      <trkpt lat="48.21496" lon="-3.92931">
        <ele>101.2</ele>
        <time>2020-06-08T11:07:51Z</time>
      </trkpt>
      <trkpt lat="48.21498" lon="-3.92931">
        <ele>101.2</ele>
        <time>2020-06-08T11:07:52Z</time>
      </trkpt>
      <trkpt lat="48.21501" lon="-3.92932">
        <ele>101.1</ele>
        <time>2020-06-08T11:07:53Z</time>
      </trkpt>
      <trkpt lat="48.21501" lon="-3.92932">
        <ele>101.1</ele>
        <time>2020-06-08T11:07:54Z</time>
      </trkpt>
      <trkpt lat="48.21504" lon="-3.92933">
        <ele>101.1</ele>
        <time>2020-06-08T11:07:55Z</time>
      </trkpt>
      <trkpt lat="48.21504" lon="-3.92934">
        <ele>101.1</ele>
        <time>2020-06-08T11:07:56Z</time>
      </trkpt>
      <trkpt lat="48.21505" lon="-3.92935">
        <ele>101.1</ele>
        <time>2020-06-08T11:07:57Z</time>
      </trkpt>
      <trkpt lat="48.21506" lon="-3.92936">
        <ele>101.1</ele>
        <time>2020-06-08T11:07:58Z</time>
      </trkpt>
      <trkpt lat="48.21508" lon="-3.92938">
        <ele>101</ele>
        <time>2020-06-08T11:07:59Z</time>
      </trkpt>
      <trkpt lat="48.21509" lon="-3.92938">
        <ele>101</ele>
        <time>2020-06-08T11:08:00Z</time>
      </trkpt>
      <trkpt lat="48.21509" lon="-3.92939">
        <ele>101</ele>
        <time>2020-06-08T11:08:01Z</time>
      </trkpt>
      <trkpt lat="48.2151" lon="-3.9294">
        <ele>101</ele>
        <time>2020-06-08T11:08:02Z</time>
      </trkpt>
      <trkpt lat="48.21512" lon="-3.92942">
        <ele>100.9</ele>
        <time>2020-06-08T11:08:03Z</time>
      </trkpt>
      <trkpt lat="48.21513" lon="-3.92943">
        <ele>100.9</ele>
        <time>2020-06-08T11:08:04Z</time>
      </trkpt>
      <trkpt lat="48.21514" lon="-3.92943">
        <ele>100.9</ele>
        <time>2020-06-08T11:08:05Z</time>
      </trkpt>
      <trkpt lat="48.21516" lon="-3.92945">
        <ele>100.8</ele>
        <time>2020-06-08T11:08:06Z</time>
      </trkpt>
      <trkpt lat="48.21517" lon="-3.92945">
        <ele>100.8</ele>
        <time>2020-06-08T11:08:07Z</time>
      </trkpt>
      <trkpt lat="48.21518" lon="-3.92946">
        <ele>100.8</ele>
        <time>2020-06-08T11:08:08Z</time>
      </trkpt>
      <trkpt lat="48.2152" lon="-3.92948">
        <ele>100.8</ele>
        <time>2020-06-08T11:08:09Z</time>
      </trkpt>
      <trkpt lat="48.21522" lon="-3.92951">
        <ele>100.7</ele>
        <time>2020-06-08T11:08:10Z</time>
      </trkpt>
      <trkpt lat="48.21523" lon="-3.92953">
        <ele>100.7</ele>
        <time>2020-06-08T11:08:11Z</time>
      </trkpt>
      <trkpt lat="48.21525" lon="-3.92957">
        <ele>100.6</ele>
        <time>2020-06-08T11:08:12Z</time>
      </trkpt>
      <trkpt lat="48.21526" lon="-3.92958">
        <ele>100.6</ele>
        <time>2020-06-08T11:08:13Z</time>
      </trkpt>
      <trkpt lat="48.21529" lon="-3.92959">
        <ele>100.5</ele>
        <time>2020-06-08T11:08:14Z</time>
      </trkpt>
      <trkpt lat="48.21532" lon="-3.92962">
        <ele>100.4</ele>
        <time>2020-06-08T11:08:15Z</time>
      </trkpt>
      <trkpt lat="48.21534" lon="-3.92965">
        <ele>100.4</ele>
        <time>2020-06-08T11:08:16Z</time>
      </trkpt>
      <trkpt lat="48.21535" lon="-3.92966">
        <ele>100.3</ele>
        <time>2020-06-08T11:08:17Z</time>
      </trkpt>
      <trkpt lat="48.21537" lon="-3.92968">
        <ele>100.3</ele>
        <time>2020-06-08T11:08:18Z</time>
      </trkpt>
      <trkpt lat="48.21538" lon="-3.92968">
        <ele>100.3</ele>
        <time>2020-06-08T11:08:19Z</time>
      </trkpt>
      <trkpt lat="48.21541" lon="-3.92971">
        <ele>100.2</ele>
        <time>2020-06-08T11:08:20Z</time>
      </trkpt>
      <trkpt lat="48.21542" lon="-3.92972">
        <ele>100.1</ele>
        <time>2020-06-08T11:08:21Z</time>
      </trkpt>
      <trkpt lat="48.21546" lon="-3.92976">
        <ele>100</ele>
        <time>2020-06-08T11:08:22Z</time>
      </trkpt>
      <trkpt lat="48.21546" lon="-3.92977">
        <ele>100</ele>
        <time>2020-06-08T11:08:23Z</time>
      </trkpt>
      <trkpt lat="48.2155" lon="-3.9298">
        <ele>99.9</ele>
        <time>2020-06-08T11:08:24Z</time>
      </trkpt>
      <trkpt lat="48.21551" lon="-3.92982">
        <ele>99.8</ele>
        <time>2020-06-08T11:08:25Z</time>
      </trkpt>
      <trkpt lat="48.21553" lon="-3.92984">
        <ele>99.7</ele>
        <time>2020-06-08T11:08:26Z</time>
      </trkpt>
      <trkpt lat="48.21555" lon="-3.92988">
        <ele>99.6</ele>
        <time>2020-06-08T11:08:27Z</time>
      </trkpt>
      <trkpt lat="48.21558" lon="-3.92991">
        <ele>99.5</ele>
        <time>2020-06-08T11:08:28Z</time>
      </trkpt>
      <trkpt lat="48.2156" lon="-3.92994">
        <ele>99.4</ele>
        <time>2020-06-08T11:08:29Z</time>
      </trkpt>
      <trkpt lat="48.21563" lon="-3.92997">
        <ele>99.2</ele>
        <time>2020-06-08T11:08:30Z</time>
      </trkpt>
      <trkpt lat="48.21564" lon="-3.92998">
        <ele>99.2</ele>
        <time>2020-06-08T11:08:31Z</time>
      </trkpt>
      <trkpt lat="48.21566" lon="-3.93001">
        <ele>99.1</ele>
        <time>2020-06-08T11:08:32Z</time>
      </trkpt>
      <trkpt lat="48.21567" lon="-3.93002">
        <ele>99</ele>
        <time>2020-06-08T11:08:33Z</time>
      </trkpt>
      <trkpt lat="48.21569" lon="-3.93006">
        <ele>98.9</ele>
        <time>2020-06-08T11:08:34Z</time>
      </trkpt>
      <trkpt lat="48.21571" lon="-3.93009">
        <ele>98.8</ele>
        <time>2020-06-08T11:08:35Z</time>
      </trkpt>
      <trkpt lat="48.21574" lon="-3.93015">
        <ele>98.6</ele>
        <time>2020-06-08T11:08:36Z</time>
      </trkpt>
      <trkpt lat="48.21575" lon="-3.93017">
        <ele>98.6</ele>
        <time>2020-06-08T11:08:37Z</time>
      </trkpt>
      <trkpt lat="48.21579" lon="-3.93022">
        <ele>98.4</ele>
        <time>2020-06-08T11:08:38Z</time>
      </trkpt>
      <trkpt lat="48.21581" lon="-3.93025">
        <ele>98.2</ele>
        <time>2020-06-08T11:08:39Z</time>
      </trkpt>
      <trkpt lat="48.21584" lon="-3.93029">
        <ele>98.1</ele>
        <time>2020-06-08T11:08:40Z</time>
      </trkpt>
      <trkpt lat="48.21587" lon="-3.93032">
        <ele>97.9</ele>
        <time>2020-06-08T11:08:41Z</time>
      </trkpt>
      <trkpt lat="48.21589" lon="-3.93037">
        <ele>97.8</ele>
        <time>2020-06-08T11:08:42Z</time>
      </trkpt>
      <trkpt lat="48.2159" lon="-3.93039">
        <ele>97.7</ele>
        <time>2020-06-08T11:08:43Z</time>
      </trkpt>
      <trkpt lat="48.21592" lon="-3.93042">
        <ele>97.5</ele>
        <time>2020-06-08T11:08:44Z</time>
      </trkpt>
      <trkpt lat="48.21595" lon="-3.93049">
        <ele>97.3</ele>
        <time>2020-06-08T11:08:45Z</time>
      </trkpt>
      <trkpt lat="48.21598" lon="-3.93056">
        <ele>97.1</ele>
        <time>2020-06-08T11:08:46Z</time>
      </trkpt>
      <trkpt lat="48.216" lon="-3.93061">
        <ele>96.9</ele>
        <time>2020-06-08T11:08:47Z</time>
      </trkpt>
      <trkpt lat="48.21603" lon="-3.93067">
        <ele>96.7</ele>
        <time>2020-06-08T11:08:48Z</time>
      </trkpt>
      <trkpt lat="48.21605" lon="-3.93073">
        <ele>96.6</ele>
        <time>2020-06-08T11:08:49Z</time>
      </trkpt>
      <trkpt lat="48.21607" lon="-3.93081">
        <ele>96.4</ele>
        <time>2020-06-08T11:08:50Z</time>
      </trkpt>
      <trkpt lat="48.2161" lon="-3.93087">
        <ele>96.2</ele>
        <time>2020-06-08T11:08:51Z</time>
      </trkpt>
      <trkpt lat="48.21612" lon="-3.93093">
        <ele>96</ele>
        <time>2020-06-08T11:08:52Z</time>
      </trkpt>
      <trkpt lat="48.21615" lon="-3.93098">
        <ele>95.7</ele>
        <time>2020-06-08T11:08:53Z</time>
      </trkpt>
      <trkpt lat="48.21617" lon="-3.93105">
        <ele>95.5</ele>
        <time>2020-06-08T11:08:54Z</time>
      </trkpt>
      <trkpt lat="48.21618" lon="-3.93112">
        <ele>95.3</ele>
        <time>2020-06-08T11:08:55Z</time>
      </trkpt>
      <trkpt lat="48.21619" lon="-3.93118">
        <ele>95.1</ele>
        <time>2020-06-08T11:08:56Z</time>
      </trkpt>
      <trkpt lat="48.2162" lon="-3.93123">
        <ele>94.9</ele>
        <time>2020-06-08T11:08:57Z</time>
      </trkpt>
      <trkpt lat="48.21621" lon="-3.93127">
        <ele>94.8</ele>
        <time>2020-06-08T11:08:58Z</time>
      </trkpt>
      <trkpt lat="48.21624" lon="-3.93133">
        <ele>94.6</ele>
        <time>2020-06-08T11:08:59Z</time>
      </trkpt>
      <trkpt lat="48.21625" lon="-3.93137">
        <ele>94.5</ele>
        <time>2020-06-08T11:09:00Z</time>
      </trkpt>
      <trkpt lat="48.21626" lon="-3.93142">
        <ele>94.3</ele>
        <time>2020-06-08T11:09:01Z</time>
      </trkpt>
      <trkpt lat="48.21626" lon="-3.93147">
        <ele>94.2</ele>
        <time>2020-06-08T11:09:02Z</time>
      </trkpt>
      <trkpt lat="48.21627" lon="-3.93153">
        <ele>94</ele>
        <time>2020-06-08T11:09:03Z</time>
      </trkpt>
      <trkpt lat="48.21628" lon="-3.93157">
        <ele>93.9</ele>
        <time>2020-06-08T11:09:04Z</time>
      </trkpt>
      <trkpt lat="48.21628" lon="-3.93163">
        <ele>93.8</ele>
        <time>2020-06-08T11:09:05Z</time>
      </trkpt>
      <trkpt lat="48.21627" lon="-3.93166">
        <ele>93.7</ele>
        <time>2020-06-08T11:09:06Z</time>
      </trkpt>
      <trkpt lat="48.21627" lon="-3.93168">
        <ele>93.6</ele>
        <time>2020-06-08T11:09:07Z</time>
      </trkpt>
      <trkpt lat="48.21624" lon="-3.93171">
        <ele>93.5</ele>
        <time>2020-06-08T11:09:08Z</time>
      </trkpt>
      <trkpt lat="48.21623" lon="-3.93172">
        <ele>93.5</ele>
        <time>2020-06-08T11:09:09Z</time>
      </trkpt>
      <trkpt lat="48.21621" lon="-3.93172">
        <ele>93.4</ele>
        <time>2020-06-08T11:09:10Z</time>
      </trkpt>
      <trkpt lat="48.21621" lon="-3.93173">
        <ele>93.4</ele>
        <time>2020-06-08T11:09:11Z</time>
      </trkpt>
      <trkpt lat="48.21621" lon="-3.93172">
        <ele>93.4</ele>
        <time>2020-06-08T11:09:12Z</time>
      </trkpt>
      <trkpt lat="48.21621" lon="-3.93171">
        <ele>93.4</ele>
        <time>2020-06-08T11:09:13Z</time>
      </trkpt>
      <trkpt lat="48.21621" lon="-3.93171">
        <ele>93.4</ele>
        <time>2020-06-08T11:09:14Z</time>
      </trkpt>
      <trkpt lat="48.21621" lon="-3.93171">
        <ele>93.3</ele>
        <time>2020-06-08T11:09:15Z</time>
      </trkpt>
      <trkpt lat="48.21621" lon="-3.93172">
        <ele>93.3</ele>
        <time>2020-06-08T11:09:16Z</time>
      </trkpt>
      <trkpt lat="48.2162" lon="-3.93172">
        <ele>93.3</ele>
        <time>2020-06-08T11:09:17Z</time>
      </trkpt>
      <trkpt lat="48.21621" lon="-3.93173">
        <ele>93.3</ele>
        <time>2020-06-08T11:09:18Z</time>
      </trkpt>
      <trkpt lat="48.21621" lon="-3.93174">
        <ele>93.3</ele>
        <time>2020-06-08T11:09:19Z</time>
      </trkpt>
      <trkpt lat="48.2162" lon="-3.93173">
        <ele>93.2</ele>
        <time>2020-06-08T11:09:20Z</time>
      </trkpt>
      <trkpt lat="48.21619" lon="-3.93173">
        <ele>93.2</ele>
        <time>2020-06-08T11:09:21Z</time>
      </trkpt>
      <trkpt lat="48.21618" lon="-3.93172">
        <ele>93.2</ele>
        <time>2020-06-08T11:09:22Z</time>
      </trkpt>
      <trkpt lat="48.21614" lon="-3.9317">
        <ele>93.1</ele>
        <time>2020-06-08T11:09:23Z</time>
      </trkpt>
      <trkpt lat="48.21613" lon="-3.9317">
        <ele>93</ele>
        <time>2020-06-08T11:09:24Z</time>
      </trkpt>
      <trkpt lat="48.21612" lon="-3.93169">
        <ele>93</ele>
        <time>2020-06-08T11:09:25Z</time>
      </trkpt>
      <trkpt lat="48.21612" lon="-3.93169">
        <ele>93</ele>
        <time>2020-06-08T11:09:26Z</time>
      </trkpt>
      <trkpt lat="48.21612" lon="-3.93169">
        <ele>93</ele>
        <time>2020-06-08T11:09:27Z</time>
      </trkpt>
      <trkpt lat="48.21612" lon="-3.93168">
        <ele>92.9</ele>
        <time>2020-06-08T11:09:28Z</time>
      </trkpt>
      <trkpt lat="48.21613" lon="-3.93168">
        <ele>92.9</ele>
        <time>2020-06-08T11:09:29Z</time>
      </trkpt>
      <trkpt lat="48.21612" lon="-3.93168">
        <ele>92.9</ele>
        <time>2020-06-08T11:09:30Z</time>
      </trkpt>
      <trkpt lat="48.21612" lon="-3.93168">
        <ele>92.9</ele>
        <time>2020-06-08T11:09:31Z</time>
      </trkpt>
      <trkpt lat="48.21613" lon="-3.93167">
        <ele>92.9</ele>
        <time>2020-06-08T11:09:32Z</time>
      </trkpt>
      <trkpt lat="48.21613" lon="-3.93166">
        <ele>92.8</ele>
        <time>2020-06-08T11:09:33Z</time>
      </trkpt>
      <trkpt lat="48.21615" lon="-3.93166">
        <ele>92.8</ele>
        <time>2020-06-08T11:09:34Z</time>
      </trkpt>
      <trkpt lat="48.21615" lon="-3.93166">
        <ele>92.8</ele>
        <time>2020-06-08T11:09:35Z</time>
      </trkpt>
      <trkpt lat="48.21615" lon="-3.93166">
        <ele>92.8</ele>
        <time>2020-06-08T11:09:36Z</time>
      </trkpt>
      <trkpt lat="48.21616" lon="-3.93167">
        <ele>92.8</ele>
        <time>2020-06-08T11:09:37Z</time>
      </trkpt>
      <trkpt lat="48.21616" lon="-3.93167">
        <ele>92.7</ele>
        <time>2020-06-08T11:09:38Z</time>
      </trkpt>
      <trkpt lat="48.21617" lon="-3.93167">
        <ele>92.7</ele>
        <time>2020-06-08T11:09:39Z</time>
      </trkpt>
      <trkpt lat="48.21617" lon="-3.93168">
        <ele>92.7</ele>
        <time>2020-06-08T11:09:40Z</time>
      </trkpt>
      <trkpt lat="48.21618" lon="-3.93168">
        <ele>92.7</ele>
        <time>2020-06-08T11:09:41Z</time>
      </trkpt>
      <trkpt lat="48.21618" lon="-3.93169">
        <ele>92.7</ele>
        <time>2020-06-08T11:09:42Z</time>
      </trkpt>
      <trkpt lat="48.21619" lon="-3.93169">
        <ele>92.7</ele>
        <time>2020-06-08T11:09:43Z</time>
      </trkpt>
      <trkpt lat="48.21619" lon="-3.93169">
        <ele>92.6</ele>
        <time>2020-06-08T11:09:44Z</time>
      </trkpt>
      <trkpt lat="48.2162" lon="-3.9317">
        <ele>92.6</ele>
        <time>2020-06-08T11:09:45Z</time>
      </trkpt>
      <trkpt lat="48.2162" lon="-3.9317">
        <ele>92.6</ele>
        <time>2020-06-08T11:09:46Z</time>
      </trkpt>
      <trkpt lat="48.21621" lon="-3.93171">
        <ele>92.6</ele>
        <time>2020-06-08T11:09:47Z</time>
      </trkpt>
      <trkpt lat="48.21621" lon="-3.93171">
        <ele>92.6</ele>
        <time>2020-06-08T11:09:48Z</time>
      </trkpt>
      <trkpt lat="48.21621" lon="-3.93171">
        <ele>92.6</ele>
        <time>2020-06-08T11:11:53Z</time>
      </trkpt>
      <trkpt lat="48.21622" lon="-3.93172">
        <ele>92.5</ele>
        <time>2020-06-08T11:11:54Z</time>
      </trkpt>
      <trkpt lat="48.21622" lon="-3.93172">
        <ele>92.5</ele>
        <time>2020-06-08T11:11:55Z</time>
      </trkpt>
      <trkpt lat="48.21624" lon="-3.93173">
        <ele>92.5</ele>
        <time>2020-06-08T11:11:56Z</time>
      </trkpt>
      <trkpt lat="48.21625" lon="-3.93174">
        <ele>92.4</ele>
        <time>2020-06-08T11:11:57Z</time>
      </trkpt>
      <trkpt lat="48.21628" lon="-3.93175">
        <ele>92.3</ele>
        <time>2020-06-08T11:11:58Z</time>
      </trkpt>
      <trkpt lat="48.21629" lon="-3.93175">
        <ele>92.3</ele>
        <time>2020-06-08T11:11:59Z</time>
      </trkpt>
      <trkpt lat="48.21631" lon="-3.93177">
        <ele>92.2</ele>
        <time>2020-06-08T11:12:00Z</time>
      </trkpt>
      <trkpt lat="48.21632" lon="-3.93178">
        <ele>92.2</ele>
        <time>2020-06-08T11:12:01Z</time>
      </trkpt>
      <trkpt lat="48.21634" lon="-3.93182">
        <ele>92.1</ele>
        <time>2020-06-08T11:12:02Z</time>
      </trkpt>
      <trkpt lat="48.21634" lon="-3.93184">
        <ele>92.1</ele>
        <time>2020-06-08T11:12:03Z</time>
      </trkpt>
      <trkpt lat="48.21636" lon="-3.93189">
        <ele>92</ele>
        <time>2020-06-08T11:12:04Z</time>
      </trkpt>
      <trkpt lat="48.21636" lon="-3.93191">
        <ele>91.9</ele>
        <time>2020-06-08T11:12:05Z</time>
      </trkpt>
      <trkpt lat="48.21637" lon="-3.93197">
        <ele>91.8</ele>
        <time>2020-06-08T11:12:06Z</time>
      </trkpt>
      <trkpt lat="48.21638" lon="-3.93199">
        <ele>91.8</ele>
        <time>2020-06-08T11:12:07Z</time>
      </trkpt>
      <trkpt lat="48.21639" lon="-3.93203">
        <ele>91.7</ele>
        <time>2020-06-08T11:12:08Z</time>
      </trkpt>
      <trkpt lat="48.2164" lon="-3.93208">
        <ele>91.6</ele>
        <time>2020-06-08T11:12:09Z</time>
      </trkpt>
      <trkpt lat="48.21642" lon="-3.93214">
        <ele>91.5</ele>
        <time>2020-06-08T11:12:10Z</time>
      </trkpt>
      <trkpt lat="48.21643" lon="-3.93219">
        <ele>91.4</ele>
        <time>2020-06-08T11:12:11Z</time>
      </trkpt>
      <trkpt lat="48.21645" lon="-3.93225">
        <ele>91.3</ele>
        <time>2020-06-08T11:12:12Z</time>
      </trkpt>
      <trkpt lat="48.21646" lon="-3.9323">
        <ele>91.2</ele>
        <time>2020-06-08T11:12:13Z</time>
      </trkpt>
      <trkpt lat="48.21648" lon="-3.93236">
        <ele>91.1</ele>
        <time>2020-06-08T11:12:14Z</time>
      </trkpt>
      <trkpt lat="48.21649" lon="-3.93241">
        <ele>91</ele>
        <time>2020-06-08T11:12:15Z</time>
      </trkpt>
      <trkpt lat="48.2165" lon="-3.93247">
        <ele>91</ele>
        <time>2020-06-08T11:12:16Z</time>
      </trkpt>
      <trkpt lat="48.2165" lon="-3.93252">
        <ele>90.9</ele>
        <time>2020-06-08T11:12:17Z</time>
      </trkpt>
      <trkpt lat="48.21652" lon="-3.93257">
        <ele>90.8</ele>
        <time>2020-06-08T11:12:18Z</time>
      </trkpt>
      <trkpt lat="48.21653" lon="-3.93263">
        <ele>90.7</ele>
        <time>2020-06-08T11:12:19Z</time>
      </trkpt>
      <trkpt lat="48.21654" lon="-3.93268">
        <ele>90.7</ele>
        <time>2020-06-08T11:12:20Z</time>
      </trkpt>
      <trkpt lat="48.21655" lon="-3.93273">
        <ele>90.6</ele>
        <time>2020-06-08T11:12:21Z</time>
      </trkpt>
      <trkpt lat="48.21655" lon="-3.9328">
        <ele>90.5</ele>
        <time>2020-06-08T11:12:22Z</time>
      </trkpt>
      <trkpt lat="48.21656" lon="-3.93285">
        <ele>90.5</ele>
        <time>2020-06-08T11:12:23Z</time>
      </trkpt>
      <trkpt lat="48.21657" lon="-3.9329">
        <ele>90.4</ele>
        <time>2020-06-08T11:12:24Z</time>
      </trkpt>
      <trkpt lat="48.21658" lon="-3.93295">
        <ele>90.4</ele>
        <time>2020-06-08T11:12:25Z</time>
      </trkpt>
      <trkpt lat="48.21659" lon="-3.933">
        <ele>90.3</ele>
        <time>2020-06-08T11:12:26Z</time>
      </trkpt>
      <trkpt lat="48.2166" lon="-3.93305">
        <ele>90.2</ele>
        <time>2020-06-08T11:12:27Z</time>
      </trkpt>
      <trkpt lat="48.21662" lon="-3.93311">
        <ele>90.2</ele>
        <time>2020-06-08T11:12:28Z</time>
      </trkpt>
      <trkpt lat="48.21663" lon="-3.93316">
        <ele>90.1</ele>
        <time>2020-06-08T11:12:29Z</time>
      </trkpt>
      <trkpt lat="48.21664" lon="-3.93322">
        <ele>90</ele>
        <time>2020-06-08T11:12:30Z</time>
      </trkpt>
      <trkpt lat="48.21664" lon="-3.93327">
        <ele>90</ele>
        <time>2020-06-08T11:12:31Z</time>
      </trkpt>
      <trkpt lat="48.21663" lon="-3.93333">
        <ele>89.9</ele>
        <time>2020-06-08T11:12:32Z</time>
      </trkpt>
      <trkpt lat="48.21663" lon="-3.93338">
        <ele>89.9</ele>
        <time>2020-06-08T11:12:33Z</time>
      </trkpt>
      <trkpt lat="48.21664" lon="-3.93344">
        <ele>89.9</ele>
        <time>2020-06-08T11:12:34Z</time>
      </trkpt>
      <trkpt lat="48.21664" lon="-3.93349">
        <ele>89.9</ele>
        <time>2020-06-08T11:12:35Z</time>
      </trkpt>
      <trkpt lat="48.21664" lon="-3.93353">
        <ele>89.9</ele>
        <time>2020-06-08T11:12:36Z</time>
      </trkpt>
      <trkpt lat="48.21664" lon="-3.93358">
        <ele>89.9</ele>
        <time>2020-06-08T11:12:37Z</time>
      </trkpt>
      <trkpt lat="48.21663" lon="-3.93363">
        <ele>89.9</ele>
        <time>2020-06-08T11:12:38Z</time>
      </trkpt>
      <trkpt lat="48.21664" lon="-3.93368">
        <ele>89.8</ele>
        <time>2020-06-08T11:12:39Z</time>
      </trkpt>
      <trkpt lat="48.21664" lon="-3.93372">
        <ele>89.8</ele>
        <time>2020-06-08T11:12:40Z</time>
      </trkpt>
      <trkpt lat="48.21663" lon="-3.93379">
        <ele>89.7</ele>
        <time>2020-06-08T11:12:41Z</time>
      </trkpt>
      <trkpt lat="48.21663" lon="-3.93381">
        <ele>89.7</ele>
        <time>2020-06-08T11:12:42Z</time>
      </trkpt>
      <trkpt lat="48.21662" lon="-3.93385">
        <ele>89.7</ele>
        <time>2020-06-08T11:12:43Z</time>
      </trkpt>
      <trkpt lat="48.21661" lon="-3.93389">
        <ele>89.7</ele>
        <time>2020-06-08T11:12:44Z</time>
      </trkpt>
      <trkpt lat="48.2166" lon="-3.93394">
        <ele>89.7</ele>
        <time>2020-06-08T11:12:45Z</time>
      </trkpt>
      <trkpt lat="48.2166" lon="-3.93398">
        <ele>89.7</ele>
        <time>2020-06-08T11:12:46Z</time>
      </trkpt>
      <trkpt lat="48.21659" lon="-3.93404">
        <ele>89.7</ele>
        <time>2020-06-08T11:12:47Z</time>
      </trkpt>
      <trkpt lat="48.2166" lon="-3.93408">
        <ele>89.8</ele>
        <time>2020-06-08T11:12:48Z</time>
      </trkpt>
      <trkpt lat="48.2166" lon="-3.93414">
        <ele>89.8</ele>
        <time>2020-06-08T11:12:49Z</time>
      </trkpt>
      <trkpt lat="48.2166" lon="-3.93419">
        <ele>89.8</ele>
        <time>2020-06-08T11:12:50Z</time>
      </trkpt>
      <trkpt lat="48.2166" lon="-3.93424">
        <ele>89.9</ele>
        <time>2020-06-08T11:12:51Z</time>
      </trkpt>
      <trkpt lat="48.21659" lon="-3.93429">
        <ele>89.9</ele>
        <time>2020-06-08T11:12:52Z</time>
      </trkpt>
      <trkpt lat="48.21658" lon="-3.93434">
        <ele>90</ele>
        <time>2020-06-08T11:12:53Z</time>
      </trkpt>
      <trkpt lat="48.21657" lon="-3.93438">
        <ele>90</ele>
        <time>2020-06-08T11:12:54Z</time>
      </trkpt>
      <trkpt lat="48.21656" lon="-3.93443">
        <ele>90.1</ele>
        <time>2020-06-08T11:12:55Z</time>
      </trkpt>
      <trkpt lat="48.21654" lon="-3.93448">
        <ele>90.2</ele>
        <time>2020-06-08T11:12:56Z</time>
      </trkpt>
      <trkpt lat="48.21653" lon="-3.9345">
        <ele>90.2</ele>
        <time>2020-06-08T11:12:57Z</time>
      </trkpt>
      <trkpt lat="48.2165" lon="-3.93455">
        <ele>90.3</ele>
        <time>2020-06-08T11:12:58Z</time>
      </trkpt>
      <trkpt lat="48.21648" lon="-3.9346">
        <ele>90.4</ele>
        <time>2020-06-08T11:12:59Z</time>
      </trkpt>
      <trkpt lat="48.21647" lon="-3.93464">
        <ele>90.4</ele>
        <time>2020-06-08T11:13:00Z</time>
      </trkpt>
      <trkpt lat="48.21645" lon="-3.9347">
        <ele>90.5</ele>
        <time>2020-06-08T11:13:01Z</time>
      </trkpt>
      <trkpt lat="48.21643" lon="-3.93474">
        <ele>90.6</ele>
        <time>2020-06-08T11:13:02Z</time>
      </trkpt>
      <trkpt lat="48.21642" lon="-3.9348">
        <ele>90.7</ele>
        <time>2020-06-08T11:13:03Z</time>
      </trkpt>
      <trkpt lat="48.2164" lon="-3.93486">
        <ele>90.8</ele>
        <time>2020-06-08T11:13:04Z</time>
      </trkpt>
      <trkpt lat="48.21639" lon="-3.93491">
        <ele>90.9</ele>
        <time>2020-06-08T11:13:05Z</time>
      </trkpt>
      <trkpt lat="48.21639" lon="-3.93496">
        <ele>91.1</ele>
        <time>2020-06-08T11:13:06Z</time>
      </trkpt>
      <trkpt lat="48.21637" lon="-3.93502">
        <ele>91.2</ele>
        <time>2020-06-08T11:13:07Z</time>
      </trkpt>
      <trkpt lat="48.21636" lon="-3.93507">
        <ele>91.3</ele>
        <time>2020-06-08T11:13:08Z</time>
      </trkpt>
      <trkpt lat="48.21634" lon="-3.93512">
        <ele>91.4</ele>
        <time>2020-06-08T11:13:09Z</time>
      </trkpt>
      <trkpt lat="48.21633" lon="-3.93517">
        <ele>91.5</ele>
        <time>2020-06-08T11:13:10Z</time>
      </trkpt>
      <trkpt lat="48.2163" lon="-3.93522">
        <ele>91.7</ele>
        <time>2020-06-08T11:13:11Z</time>
      </trkpt>
      <trkpt lat="48.21629" lon="-3.93527">
        <ele>91.8</ele>
        <time>2020-06-08T11:13:12Z</time>
      </trkpt>
      <trkpt lat="48.21628" lon="-3.93532">
        <ele>91.9</ele>
        <time>2020-06-08T11:13:13Z</time>
      </trkpt>
      <trkpt lat="48.21626" lon="-3.93537">
        <ele>92</ele>
        <time>2020-06-08T11:13:14Z</time>
      </trkpt>
      <trkpt lat="48.21624" lon="-3.93543">
        <ele>92.2</ele>
        <time>2020-06-08T11:13:15Z</time>
      </trkpt>
      <trkpt lat="48.21623" lon="-3.93548">
        <ele>92.4</ele>
        <time>2020-06-08T11:13:16Z</time>
      </trkpt>
      <trkpt lat="48.21622" lon="-3.93553">
        <ele>92.5</ele>
        <time>2020-06-08T11:13:17Z</time>
      </trkpt>
      <trkpt lat="48.2162" lon="-3.9356">
        <ele>92.7</ele>
        <time>2020-06-08T11:13:18Z</time>
      </trkpt>
      <trkpt lat="48.21619" lon="-3.93565">
        <ele>93</ele>
        <time>2020-06-08T11:13:19Z</time>
      </trkpt>
      <trkpt lat="48.21619" lon="-3.93571">
        <ele>93.2</ele>
        <time>2020-06-08T11:13:20Z</time>
      </trkpt>
      <trkpt lat="48.21618" lon="-3.93577">
        <ele>93.4</ele>
        <time>2020-06-08T11:13:21Z</time>
      </trkpt>
      <trkpt lat="48.21618" lon="-3.93583">
        <ele>93.6</ele>
        <time>2020-06-08T11:13:22Z</time>
      </trkpt>
      <trkpt lat="48.21618" lon="-3.93588">
        <ele>93.7</ele>
        <time>2020-06-08T11:13:23Z</time>
      </trkpt>
      <trkpt lat="48.21618" lon="-3.93593">
        <ele>93.9</ele>
        <time>2020-06-08T11:13:24Z</time>
      </trkpt>
      <trkpt lat="48.21617" lon="-3.93598">
        <ele>94</ele>
        <time>2020-06-08T11:13:25Z</time>
      </trkpt>
      <trkpt lat="48.21617" lon="-3.93603">
        <ele>94.2</ele>
        <time>2020-06-08T11:13:26Z</time>
      </trkpt>
      <trkpt lat="48.21618" lon="-3.93608">
        <ele>94.3</ele>
        <time>2020-06-08T11:13:27Z</time>
      </trkpt>
      <trkpt lat="48.21619" lon="-3.93614">
        <ele>94.6</ele>
        <time>2020-06-08T11:13:28Z</time>
      </trkpt>
      <trkpt lat="48.21619" lon="-3.93619">
        <ele>94.8</ele>
        <time>2020-06-08T11:13:29Z</time>
      </trkpt>
      <trkpt lat="48.2162" lon="-3.93623">
        <ele>94.9</ele>
        <time>2020-06-08T11:13:30Z</time>
      </trkpt>
      <trkpt lat="48.21621" lon="-3.93628">
        <ele>95.2</ele>
        <time>2020-06-08T11:13:31Z</time>
      </trkpt>
      <trkpt lat="48.21621" lon="-3.93634">
        <ele>95.4</ele>
        <time>2020-06-08T11:13:32Z</time>
      </trkpt>
      <trkpt lat="48.21622" lon="-3.93637">
        <ele>95.5</ele>
        <time>2020-06-08T11:13:33Z</time>
      </trkpt>
      <trkpt lat="48.21623" lon="-3.93641">
        <ele>95.6</ele>
        <time>2020-06-08T11:13:34Z</time>
      </trkpt>
      <trkpt lat="48.21623" lon="-3.93646">
        <ele>95.8</ele>
        <time>2020-06-08T11:13:35Z</time>
      </trkpt>
      <trkpt lat="48.21625" lon="-3.93652">
        <ele>96</ele>
        <time>2020-06-08T11:13:36Z</time>
      </trkpt>
      <trkpt lat="48.21625" lon="-3.93656">
        <ele>96.2</ele>
        <time>2020-06-08T11:13:37Z</time>
      </trkpt>
      <trkpt lat="48.21625" lon="-3.93662">
        <ele>96.4</ele>
        <time>2020-06-08T11:13:38Z</time>
      </trkpt>
      <trkpt lat="48.21626" lon="-3.93664">
        <ele>96.5</ele>
        <time>2020-06-08T11:13:39Z</time>
      </trkpt>
      <trkpt lat="48.21627" lon="-3.9367">
        <ele>96.7</ele>
        <time>2020-06-08T11:13:40Z</time>
      </trkpt>
      <trkpt lat="48.21628" lon="-3.93674">
        <ele>96.8</ele>
        <time>2020-06-08T11:13:41Z</time>
      </trkpt>
      <trkpt lat="48.2163" lon="-3.93678">
        <ele>97</ele>
        <time>2020-06-08T11:13:42Z</time>
      </trkpt>
      <trkpt lat="48.21631" lon="-3.93682">
        <ele>97.1</ele>
        <time>2020-06-08T11:13:43Z</time>
      </trkpt>
      <trkpt lat="48.21633" lon="-3.93687">
        <ele>97.3</ele>
        <time>2020-06-08T11:13:44Z</time>
      </trkpt>
      <trkpt lat="48.21634" lon="-3.93692">
        <ele>97.5</ele>
        <time>2020-06-08T11:13:45Z</time>
      </trkpt>
      <trkpt lat="48.21636" lon="-3.93697">
        <ele>97.7</ele>
        <time>2020-06-08T11:13:46Z</time>
      </trkpt>
      <trkpt lat="48.21637" lon="-3.937">
        <ele>97.8</ele>
        <time>2020-06-08T11:13:47Z</time>
      </trkpt>
      <trkpt lat="48.21639" lon="-3.93704">
        <ele>98</ele>
        <time>2020-06-08T11:13:48Z</time>
      </trkpt>
      <trkpt lat="48.2164" lon="-3.93709">
        <ele>98.2</ele>
        <time>2020-06-08T11:13:49Z</time>
      </trkpt>
      <trkpt lat="48.21641" lon="-3.93714">
        <ele>98.4</ele>
        <time>2020-06-08T11:13:50Z</time>
      </trkpt>
      <trkpt lat="48.21643" lon="-3.93718">
        <ele>98.6</ele>
        <time>2020-06-08T11:13:51Z</time>
      </trkpt>
      <trkpt lat="48.21643" lon="-3.93723">
        <ele>98.8</ele>
        <time>2020-06-08T11:13:52Z</time>
      </trkpt>
      <trkpt lat="48.21645" lon="-3.93727">
        <ele>98.9</ele>
        <time>2020-06-08T11:13:53Z</time>
      </trkpt>
      <trkpt lat="48.21646" lon="-3.93731">
        <ele>99.1</ele>
        <time>2020-06-08T11:13:54Z</time>
      </trkpt>
      <trkpt lat="48.21648" lon="-3.93735">
        <ele>99.2</ele>
        <time>2020-06-08T11:13:55Z</time>
      </trkpt>
      <trkpt lat="48.2165" lon="-3.93738">
        <ele>99.4</ele>
        <time>2020-06-08T11:13:56Z</time>
      </trkpt>
      <trkpt lat="48.21653" lon="-3.93742">
        <ele>99.5</ele>
        <time>2020-06-08T11:13:57Z</time>
      </trkpt>
      <trkpt lat="48.21655" lon="-3.93745">
        <ele>99.7</ele>
        <time>2020-06-08T11:13:58Z</time>
      </trkpt>
      <trkpt lat="48.21657" lon="-3.93749">
        <ele>99.9</ele>
        <time>2020-06-08T11:13:59Z</time>
      </trkpt>
      <trkpt lat="48.2166" lon="-3.93752">
        <ele>100</ele>
        <time>2020-06-08T11:14:00Z</time>
      </trkpt>
      <trkpt lat="48.21663" lon="-3.93756">
        <ele>100.2</ele>
        <time>2020-06-08T11:14:01Z</time>
      </trkpt>
      <trkpt lat="48.21666" lon="-3.93756">
        <ele>100.4</ele>
        <time>2020-06-08T11:14:02Z</time>
      </trkpt>
      <trkpt lat="48.21668" lon="-3.93759">
        <ele>100.5</ele>
        <time>2020-06-08T11:14:03Z</time>
      </trkpt>
      <trkpt lat="48.2167" lon="-3.93762">
        <ele>100.6</ele>
        <time>2020-06-08T11:14:04Z</time>
      </trkpt>
      <trkpt lat="48.21672" lon="-3.93765">
        <ele>100.7</ele>
        <time>2020-06-08T11:14:05Z</time>
      </trkpt>
      <trkpt lat="48.21674" lon="-3.93768">
        <ele>100.9</ele>
        <time>2020-06-08T11:14:06Z</time>
      </trkpt>
      <trkpt lat="48.21676" lon="-3.93772">
        <ele>101</ele>
        <time>2020-06-08T11:14:07Z</time>
      </trkpt>
      <trkpt lat="48.21677" lon="-3.93774">
        <ele>101.1</ele>
        <time>2020-06-08T11:14:08Z</time>
      </trkpt>
      <trkpt lat="48.2168" lon="-3.93778">
        <ele>101.2</ele>
        <time>2020-06-08T11:14:09Z</time>
      </trkpt>
      <trkpt lat="48.21681" lon="-3.9378">
        <ele>101.3</ele>
        <time>2020-06-08T11:14:10Z</time>
      </trkpt>
      <trkpt lat="48.21685" lon="-3.93783">
        <ele>101.5</ele>
        <time>2020-06-08T11:14:11Z</time>
      </trkpt>
      <trkpt lat="48.21686" lon="-3.93784">
        <ele>101.5</ele>
        <time>2020-06-08T11:14:12Z</time>
      </trkpt>
      <trkpt lat="48.21688" lon="-3.93787">
        <ele>101.7</ele>
        <time>2020-06-08T11:14:13Z</time>
      </trkpt>
      <trkpt lat="48.21691" lon="-3.93788">
        <ele>101.8</ele>
        <time>2020-06-08T11:14:14Z</time>
      </trkpt>
      <trkpt lat="48.21694" lon="-3.93792">
        <ele>101.9</ele>
        <time>2020-06-08T11:14:15Z</time>
      </trkpt>
      <trkpt lat="48.21697" lon="-3.93793">
        <ele>102.1</ele>
        <time>2020-06-08T11:14:16Z</time>
      </trkpt>
      <trkpt lat="48.21698" lon="-3.93795">
        <ele>102.1</ele>
        <time>2020-06-08T11:14:17Z</time>
      </trkpt>
      <trkpt lat="48.21701" lon="-3.93797">
        <ele>102.2</ele>
        <time>2020-06-08T11:14:18Z</time>
      </trkpt>
      <trkpt lat="48.21702" lon="-3.93798">
        <ele>102.3</ele>
        <time>2020-06-08T11:14:19Z</time>
      </trkpt>
      <trkpt lat="48.21705" lon="-3.93801">
        <ele>102.4</ele>
        <time>2020-06-08T11:14:20Z</time>
      </trkpt>
      <trkpt lat="48.21706" lon="-3.93803">
        <ele>102.5</ele>
        <time>2020-06-08T11:14:21Z</time>
      </trkpt>
      <trkpt lat="48.21709" lon="-3.93806">
        <ele>102.6</ele>
        <time>2020-06-08T11:14:22Z</time>
      </trkpt>
      <trkpt lat="48.2171" lon="-3.93807">
        <ele>102.7</ele>
        <time>2020-06-08T11:14:23Z</time>
      </trkpt>
      <trkpt lat="48.21714" lon="-3.9381">
        <ele>102.9</ele>
        <time>2020-06-08T11:14:24Z</time>
      </trkpt>
      <trkpt lat="48.21714" lon="-3.93811">
        <ele>102.9</ele>
        <time>2020-06-08T11:14:25Z</time>
      </trkpt>
      <trkpt lat="48.21717" lon="-3.93814">
        <ele>103.1</ele>
        <time>2020-06-08T11:14:26Z</time>
      </trkpt>
      <trkpt lat="48.21719" lon="-3.93817">
        <ele>103.2</ele>
        <time>2020-06-08T11:14:27Z</time>
      </trkpt>
      <trkpt lat="48.21721" lon="-3.9382">
        <ele>103.4</ele>
        <time>2020-06-08T11:14:28Z</time>
      </trkpt>
      <trkpt lat="48.21724" lon="-3.93823">
        <ele>103.5</ele>
        <time>2020-06-08T11:14:29Z</time>
      </trkpt>
      <trkpt lat="48.21727" lon="-3.93825">
        <ele>103.6</ele>
        <time>2020-06-08T11:14:30Z</time>
      </trkpt>
      <trkpt lat="48.21729" lon="-3.93828">
        <ele>103.8</ele>
        <time>2020-06-08T11:14:31Z</time>
      </trkpt>
      <trkpt lat="48.21732" lon="-3.93831">
        <ele>103.9</ele>
        <time>2020-06-08T11:14:32Z</time>
      </trkpt>
      <trkpt lat="48.21735" lon="-3.93835">
        <ele>104.1</ele>
        <time>2020-06-08T11:14:33Z</time>
      </trkpt>
      <trkpt lat="48.21736" lon="-3.93836">
        <ele>104.1</ele>
        <time>2020-06-08T11:14:34Z</time>
      </trkpt>
      <trkpt lat="48.21739" lon="-3.9384">
        <ele>104.3</ele>
        <time>2020-06-08T11:14:35Z</time>
      </trkpt>
      <trkpt lat="48.2174" lon="-3.93842">
        <ele>104.3</ele>
        <time>2020-06-08T11:14:36Z</time>
      </trkpt>
      <trkpt lat="48.21742" lon="-3.93845">
        <ele>104.5</ele>
        <time>2020-06-08T11:14:37Z</time>
      </trkpt>
      <trkpt lat="48.21745" lon="-3.93849">
        <ele>104.6</ele>
        <time>2020-06-08T11:14:38Z</time>
      </trkpt>
      <trkpt lat="48.21747" lon="-3.93852">
        <ele>104.6</ele>
        <time>2020-06-08T11:14:39Z</time>
      </trkpt>
      <trkpt lat="48.21749" lon="-3.93855">
        <ele>104.7</ele>
        <time>2020-06-08T11:14:40Z</time>
      </trkpt>
      <trkpt lat="48.21751" lon="-3.93858">
        <ele>104.8</ele>
        <time>2020-06-08T11:14:41Z</time>
      </trkpt>
      <trkpt lat="48.21753" lon="-3.93861">
        <ele>104.9</ele>
        <time>2020-06-08T11:14:42Z</time>
      </trkpt>
      <trkpt lat="48.21755" lon="-3.93865">
        <ele>105</ele>
        <time>2020-06-08T11:14:43Z</time>
      </trkpt>
      <trkpt lat="48.21757" lon="-3.93868">
        <ele>105.1</ele>
        <time>2020-06-08T11:14:44Z</time>
      </trkpt>
      <trkpt lat="48.2176" lon="-3.9387">
        <ele>105.2</ele>
        <time>2020-06-08T11:14:45Z</time>
      </trkpt>
      <trkpt lat="48.21763" lon="-3.93874">
        <ele>105.3</ele>
        <time>2020-06-08T11:14:46Z</time>
      </trkpt>
      <trkpt lat="48.21764" lon="-3.93875">
        <ele>105.3</ele>
        <time>2020-06-08T11:14:47Z</time>
      </trkpt>
      <trkpt lat="48.21767" lon="-3.93878">
        <ele>105.4</ele>
        <time>2020-06-08T11:14:48Z</time>
      </trkpt>
      <trkpt lat="48.21769" lon="-3.9388">
        <ele>105.4</ele>
        <time>2020-06-08T11:14:49Z</time>
      </trkpt>
      <trkpt lat="48.21772" lon="-3.93883">
        <ele>105.5</ele>
        <time>2020-06-08T11:14:50Z</time>
      </trkpt>
      <trkpt lat="48.21777" lon="-3.93884">
        <ele>105.6</ele>
        <time>2020-06-08T11:14:51Z</time>
      </trkpt>
      <trkpt lat="48.21779" lon="-3.93885">
        <ele>105.7</ele>
        <time>2020-06-08T11:14:52Z</time>
      </trkpt>
      <trkpt lat="48.21782" lon="-3.93886">
        <ele>105.8</ele>
        <time>2020-06-08T11:14:53Z</time>
      </trkpt>
      <trkpt lat="48.21785" lon="-3.93887">
        <ele>105.9</ele>
        <time>2020-06-08T11:14:54Z</time>
      </trkpt>
      <trkpt lat="48.21789" lon="-3.93889">
        <ele>106</ele>
        <time>2020-06-08T11:14:55Z</time>
      </trkpt>
      <trkpt lat="48.21791" lon="-3.93889">
        <ele>106</ele>
        <time>2020-06-08T11:14:56Z</time>
      </trkpt>
      <trkpt lat="48.21794" lon="-3.9389">
        <ele>106.1</ele>
        <time>2020-06-08T11:14:57Z</time>
      </trkpt>
      <trkpt lat="48.21798" lon="-3.9389">
        <ele>106.2</ele>
        <time>2020-06-08T11:14:58Z</time>
      </trkpt>
      <trkpt lat="48.21798" lon="-3.9389">
        <ele>106.3</ele>
        <time>2020-06-08T11:14:59Z</time>
      </trkpt>
      <trkpt lat="48.21801" lon="-3.93893">
        <ele>106.3</ele>
        <time>2020-06-08T11:15:00Z</time>
      </trkpt>
      <trkpt lat="48.21801" lon="-3.93893">
        <ele>106.4</ele>
        <time>2020-06-08T11:15:01Z</time>
      </trkpt>
      <trkpt lat="48.21805" lon="-3.93893">
        <ele>106.4</ele>
        <time>2020-06-08T11:15:02Z</time>
      </trkpt>
      <trkpt lat="48.21806" lon="-3.93893">
        <ele>106.5</ele>
        <time>2020-06-08T11:15:03Z</time>
      </trkpt>
      <trkpt lat="48.21809" lon="-3.93894">
        <ele>106.6</ele>
        <time>2020-06-08T11:15:04Z</time>
      </trkpt>
      <trkpt lat="48.21812" lon="-3.93895">
        <ele>106.7</ele>
        <time>2020-06-08T11:15:05Z</time>
      </trkpt>
      <trkpt lat="48.21815" lon="-3.93897">
        <ele>106.8</ele>
        <time>2020-06-08T11:15:06Z</time>
      </trkpt>
      <trkpt lat="48.21816" lon="-3.93897">
        <ele>106.9</ele>
        <time>2020-06-08T11:15:07Z</time>
      </trkpt>
      <trkpt lat="48.2182" lon="-3.93897">
        <ele>107</ele>
        <time>2020-06-08T11:15:08Z</time>
      </trkpt>
      <trkpt lat="48.21821" lon="-3.93898">
        <ele>107.1</ele>
        <time>2020-06-08T11:15:09Z</time>
      </trkpt>
      <trkpt lat="48.21825" lon="-3.93898">
        <ele>107.2</ele>
        <time>2020-06-08T11:15:10Z</time>
      </trkpt>
      <trkpt lat="48.21826" lon="-3.93898">
        <ele>107.3</ele>
        <time>2020-06-08T11:15:11Z</time>
      </trkpt>
      <trkpt lat="48.2183" lon="-3.93895">
        <ele>107.4</ele>
        <time>2020-06-08T11:15:12Z</time>
      </trkpt>
      <trkpt lat="48.21833" lon="-3.93895">
        <ele>107.5</ele>
        <time>2020-06-08T11:15:13Z</time>
      </trkpt>
      <trkpt lat="48.21834" lon="-3.93895">
        <ele>107.6</ele>
        <time>2020-06-08T11:15:14Z</time>
      </trkpt>
      <trkpt lat="48.21837" lon="-3.93895">
        <ele>107.7</ele>
        <time>2020-06-08T11:15:15Z</time>
      </trkpt>
      <trkpt lat="48.21841" lon="-3.93895">
        <ele>107.9</ele>
        <time>2020-06-08T11:15:16Z</time>
      </trkpt>
      <trkpt lat="48.21842" lon="-3.93895">
        <ele>107.9</ele>
        <time>2020-06-08T11:15:17Z</time>
      </trkpt>
      <trkpt lat="48.21846" lon="-3.93895">
        <ele>108.1</ele>
        <time>2020-06-08T11:15:18Z</time>
      </trkpt>
      <trkpt lat="48.21848" lon="-3.93894">
        <ele>108.1</ele>
        <time>2020-06-08T11:15:19Z</time>
      </trkpt>
      <trkpt lat="48.21851" lon="-3.93895">
        <ele>108.3</ele>
        <time>2020-06-08T11:15:20Z</time>
      </trkpt>
      <trkpt lat="48.21855" lon="-3.93895">
        <ele>108.4</ele>
        <time>2020-06-08T11:15:21Z</time>
      </trkpt>
      <trkpt lat="48.21857" lon="-3.93895">
        <ele>108.5</ele>
        <time>2020-06-08T11:15:22Z</time>
      </trkpt>
      <trkpt lat="48.2186" lon="-3.93895">
        <ele>108.6</ele>
        <time>2020-06-08T11:15:23Z</time>
      </trkpt>
      <trkpt lat="48.21863" lon="-3.93895">
        <ele>108.8</ele>
        <time>2020-06-08T11:15:24Z</time>
      </trkpt>
      <trkpt lat="48.21867" lon="-3.93897">
        <ele>109</ele>
        <time>2020-06-08T11:15:25Z</time>
      </trkpt>
      <trkpt lat="48.21869" lon="-3.93898">
        <ele>109.1</ele>
        <time>2020-06-08T11:15:26Z</time>
      </trkpt>
      <trkpt lat="48.21872" lon="-3.93898">
        <ele>109.2</ele>
        <time>2020-06-08T11:15:27Z</time>
      </trkpt>
      <trkpt lat="48.21874" lon="-3.93898">
        <ele>109.4</ele>
        <time>2020-06-08T11:15:28Z</time>
      </trkpt>
      <trkpt lat="48.21878" lon="-3.93898">
        <ele>109.6</ele>
        <time>2020-06-08T11:15:29Z</time>
      </trkpt>
      <trkpt lat="48.21879" lon="-3.93898">
        <ele>109.7</ele>
        <time>2020-06-08T11:15:30Z</time>
      </trkpt>
      <trkpt lat="48.21883" lon="-3.93898">
        <ele>109.9</ele>
        <time>2020-06-08T11:15:31Z</time>
      </trkpt>
      <trkpt lat="48.21885" lon="-3.93898">
        <ele>110</ele>
        <time>2020-06-08T11:15:32Z</time>
      </trkpt>
      <trkpt lat="48.21888" lon="-3.93899">
        <ele>110.1</ele>
        <time>2020-06-08T11:15:33Z</time>
      </trkpt>
      <trkpt lat="48.21891" lon="-3.939">
        <ele>110.3</ele>
        <time>2020-06-08T11:15:34Z</time>
      </trkpt>
      <trkpt lat="48.21894" lon="-3.939">
        <ele>110.5</ele>
        <time>2020-06-08T11:15:35Z</time>
      </trkpt>
      <trkpt lat="48.21896" lon="-3.93903">
        <ele>110.7</ele>
        <time>2020-06-08T11:15:36Z</time>
      </trkpt>
      <trkpt lat="48.21899" lon="-3.93904">
        <ele>110.8</ele>
        <time>2020-06-08T11:15:37Z</time>
      </trkpt>
      <trkpt lat="48.21902" lon="-3.93905">
        <ele>111</ele>
        <time>2020-06-08T11:15:38Z</time>
      </trkpt>
      <trkpt lat="48.21904" lon="-3.93905">
        <ele>111.2</ele>
        <time>2020-06-08T11:15:39Z</time>
      </trkpt>
      <trkpt lat="48.21907" lon="-3.93906">
        <ele>111.3</ele>
        <time>2020-06-08T11:15:40Z</time>
      </trkpt>
      <trkpt lat="48.2191" lon="-3.93907">
        <ele>111.5</ele>
        <time>2020-06-08T11:15:41Z</time>
      </trkpt>
      <trkpt lat="48.21913" lon="-3.93909">
        <ele>111.7</ele>
        <time>2020-06-08T11:15:42Z</time>
      </trkpt>
      <trkpt lat="48.21916" lon="-3.93911">
        <ele>111.9</ele>
        <time>2020-06-08T11:15:43Z</time>
      </trkpt>
      <trkpt lat="48.21919" lon="-3.93914">
        <ele>112</ele>
        <time>2020-06-08T11:15:44Z</time>
      </trkpt>
      <trkpt lat="48.2192" lon="-3.93915">
        <ele>112.1</ele>
        <time>2020-06-08T11:15:45Z</time>
      </trkpt>
      <trkpt lat="48.21924" lon="-3.93916">
        <ele>112.3</ele>
        <time>2020-06-08T11:15:46Z</time>
      </trkpt>
      <trkpt lat="48.21925" lon="-3.93917">
        <ele>112.4</ele>
        <time>2020-06-08T11:15:47Z</time>
      </trkpt>
      <trkpt lat="48.21929" lon="-3.93919">
        <ele>112.6</ele>
        <time>2020-06-08T11:15:48Z</time>
      </trkpt>
      <trkpt lat="48.2193" lon="-3.9392">
        <ele>112.6</ele>
        <time>2020-06-08T11:15:49Z</time>
      </trkpt>
      <trkpt lat="48.21933" lon="-3.93923">
        <ele>112.9</ele>
        <time>2020-06-08T11:15:50Z</time>
      </trkpt>
      <trkpt lat="48.21934" lon="-3.93924">
        <ele>112.9</ele>
        <time>2020-06-08T11:15:51Z</time>
      </trkpt>
      <trkpt lat="48.21937" lon="-3.93928">
        <ele>113.2</ele>
        <time>2020-06-08T11:15:52Z</time>
      </trkpt>
      <trkpt lat="48.21938" lon="-3.9393">
        <ele>113.2</ele>
        <time>2020-06-08T11:15:53Z</time>
      </trkpt>
      <trkpt lat="48.2194" lon="-3.93934">
        <ele>113.4</ele>
        <time>2020-06-08T11:15:54Z</time>
      </trkpt>
      <trkpt lat="48.21943" lon="-3.93938">
        <ele>113.6</ele>
        <time>2020-06-08T11:15:55Z</time>
      </trkpt>
      <trkpt lat="48.21944" lon="-3.9394">
        <ele>113.7</ele>
        <time>2020-06-08T11:15:56Z</time>
      </trkpt>
      <trkpt lat="48.21947" lon="-3.93943">
        <ele>113.9</ele>
        <time>2020-06-08T11:15:57Z</time>
      </trkpt>
      <trkpt lat="48.21949" lon="-3.93945">
        <ele>114</ele>
        <time>2020-06-08T11:15:58Z</time>
      </trkpt>
      <trkpt lat="48.21952" lon="-3.93947">
        <ele>114.2</ele>
        <time>2020-06-08T11:15:59Z</time>
      </trkpt>
      <trkpt lat="48.21954" lon="-3.9395">
        <ele>114.4</ele>
        <time>2020-06-08T11:16:00Z</time>
      </trkpt>
      <trkpt lat="48.21957" lon="-3.93953">
        <ele>114.6</ele>
        <time>2020-06-08T11:16:01Z</time>
      </trkpt>
      <trkpt lat="48.21959" lon="-3.93957">
        <ele>114.8</ele>
        <time>2020-06-08T11:16:02Z</time>
      </trkpt>
      <trkpt lat="48.21961" lon="-3.9396">
        <ele>115</ele>
        <time>2020-06-08T11:16:03Z</time>
      </trkpt>
      <trkpt lat="48.21964" lon="-3.93962">
        <ele>115.2</ele>
        <time>2020-06-08T11:16:04Z</time>
      </trkpt>
      <trkpt lat="48.21966" lon="-3.93965">
        <ele>115.4</ele>
        <time>2020-06-08T11:16:05Z</time>
      </trkpt>
      <trkpt lat="48.21969" lon="-3.93968">
        <ele>115.6</ele>
        <time>2020-06-08T11:16:06Z</time>
      </trkpt>
      <trkpt lat="48.21971" lon="-3.9397">
        <ele>115.8</ele>
        <time>2020-06-08T11:16:07Z</time>
      </trkpt>
      <trkpt lat="48.21973" lon="-3.93974">
        <ele>116</ele>
        <time>2020-06-08T11:16:08Z</time>
      </trkpt>
      <trkpt lat="48.21976" lon="-3.93978">
        <ele>116.2</ele>
        <time>2020-06-08T11:16:09Z</time>
      </trkpt>
      <trkpt lat="48.21978" lon="-3.93979">
        <ele>116.3</ele>
        <time>2020-06-08T11:16:10Z</time>
      </trkpt>
      <trkpt lat="48.2198" lon="-3.93981">
        <ele>116.5</ele>
        <time>2020-06-08T11:16:11Z</time>
      </trkpt>
      <trkpt lat="48.21983" lon="-3.93983">
        <ele>116.6</ele>
        <time>2020-06-08T11:16:12Z</time>
      </trkpt>
      <trkpt lat="48.21985" lon="-3.93985">
        <ele>116.8</ele>
        <time>2020-06-08T11:16:13Z</time>
      </trkpt>
      <trkpt lat="48.21988" lon="-3.93988">
        <ele>116.9</ele>
        <time>2020-06-08T11:16:14Z</time>
      </trkpt>
      <trkpt lat="48.2199" lon="-3.93993">
        <ele>117.2</ele>
        <time>2020-06-08T11:16:15Z</time>
      </trkpt>
      <trkpt lat="48.21993" lon="-3.93996">
        <ele>117.4</ele>
        <time>2020-06-08T11:16:16Z</time>
      </trkpt>
      <trkpt lat="48.21996" lon="-3.93999">
        <ele>117.6</ele>
        <time>2020-06-08T11:16:17Z</time>
      </trkpt>
      <trkpt lat="48.21998" lon="-3.94002">
        <ele>117.7</ele>
        <time>2020-06-08T11:16:18Z</time>
      </trkpt>
      <trkpt lat="48.22" lon="-3.94005">
        <ele>117.9</ele>
        <time>2020-06-08T11:16:19Z</time>
      </trkpt>
      <trkpt lat="48.22004" lon="-3.94008">
        <ele>118.1</ele>
        <time>2020-06-08T11:16:20Z</time>
      </trkpt>
      <trkpt lat="48.22005" lon="-3.9401">
        <ele>118.2</ele>
        <time>2020-06-08T11:16:21Z</time>
      </trkpt>
      <trkpt lat="48.22008" lon="-3.94014">
        <ele>118.4</ele>
        <time>2020-06-08T11:16:22Z</time>
      </trkpt>
      <trkpt lat="48.22009" lon="-3.94016">
        <ele>118.5</ele>
        <time>2020-06-08T11:16:23Z</time>
      </trkpt>
      <trkpt lat="48.22012" lon="-3.94019">
        <ele>118.7</ele>
        <time>2020-06-08T11:16:24Z</time>
      </trkpt>
      <trkpt lat="48.22013" lon="-3.94019">
        <ele>118.8</ele>
        <time>2020-06-08T11:16:25Z</time>
      </trkpt>
      <trkpt lat="48.22015" lon="-3.94022">
        <ele>119</ele>
        <time>2020-06-08T11:16:26Z</time>
      </trkpt>
      <trkpt lat="48.22018" lon="-3.94025">
        <ele>119.1</ele>
        <time>2020-06-08T11:16:27Z</time>
      </trkpt>
      <trkpt lat="48.2202" lon="-3.94028">
        <ele>119.3</ele>
        <time>2020-06-08T11:16:28Z</time>
      </trkpt>
      <trkpt lat="48.22023" lon="-3.94031">
        <ele>119.5</ele>
        <time>2020-06-08T11:16:29Z</time>
      </trkpt>
      <trkpt lat="48.22026" lon="-3.94034">
        <ele>119.6</ele>
        <time>2020-06-08T11:16:30Z</time>
      </trkpt>
      <trkpt lat="48.22028" lon="-3.94036">
        <ele>119.8</ele>
        <time>2020-06-08T11:16:31Z</time>
      </trkpt>
      <trkpt lat="48.22032" lon="-3.9404">
        <ele>120</ele>
        <time>2020-06-08T11:16:32Z</time>
      </trkpt>
      <trkpt lat="48.22033" lon="-3.94043">
        <ele>120.1</ele>
        <time>2020-06-08T11:16:33Z</time>
      </trkpt>
      <trkpt lat="48.22037" lon="-3.94045">
        <ele>120.3</ele>
        <time>2020-06-08T11:16:34Z</time>
      </trkpt>
      <trkpt lat="48.2204" lon="-3.94049">
        <ele>120.4</ele>
        <time>2020-06-08T11:16:35Z</time>
      </trkpt>
      <trkpt lat="48.22042" lon="-3.94052">
        <ele>120.6</ele>
        <time>2020-06-08T11:16:36Z</time>
      </trkpt>
      <trkpt lat="48.22045" lon="-3.94055">
        <ele>120.7</ele>
        <time>2020-06-08T11:16:37Z</time>
      </trkpt>
      <trkpt lat="48.22046" lon="-3.9406">
        <ele>120.8</ele>
        <time>2020-06-08T11:16:38Z</time>
      </trkpt>
      <trkpt lat="48.2205" lon="-3.9406">
        <ele>121</ele>
        <time>2020-06-08T11:16:39Z</time>
      </trkpt>
      <trkpt lat="48.22052" lon="-3.94064">
        <ele>121.1</ele>
        <time>2020-06-08T11:16:40Z</time>
      </trkpt>
      <trkpt lat="48.22056" lon="-3.94066">
        <ele>121.3</ele>
        <time>2020-06-08T11:16:41Z</time>
      </trkpt>
      <trkpt lat="48.22058" lon="-3.94069">
        <ele>121.4</ele>
        <time>2020-06-08T11:16:42Z</time>
      </trkpt>
      <trkpt lat="48.22061" lon="-3.94072">
        <ele>121.5</ele>
        <time>2020-06-08T11:16:43Z</time>
      </trkpt>
      <trkpt lat="48.22065" lon="-3.94076">
        <ele>121.7</ele>
        <time>2020-06-08T11:16:44Z</time>
      </trkpt>
      <trkpt lat="48.22068" lon="-3.94079">
        <ele>121.8</ele>
        <time>2020-06-08T11:16:45Z</time>
      </trkpt>
      <trkpt lat="48.22071" lon="-3.94082">
        <ele>122</ele>
        <time>2020-06-08T11:16:46Z</time>
      </trkpt>
      <trkpt lat="48.22073" lon="-3.94084">
        <ele>122.1</ele>
        <time>2020-06-08T11:16:47Z</time>
      </trkpt>
      <trkpt lat="48.22076" lon="-3.94087">
        <ele>122.2</ele>
        <time>2020-06-08T11:16:48Z</time>
      </trkpt>
      <trkpt lat="48.22077" lon="-3.94088">
        <ele>122.2</ele>
        <time>2020-06-08T11:16:49Z</time>
      </trkpt>
      <trkpt lat="48.2208" lon="-3.9409">
        <ele>122.3</ele>
        <time>2020-06-08T11:16:50Z</time>
      </trkpt>
      <trkpt lat="48.22082" lon="-3.94091">
        <ele>122.4</ele>
        <time>2020-06-08T11:16:51Z</time>
      </trkpt>
      <trkpt lat="48.22084" lon="-3.94092">
        <ele>122.4</ele>
        <time>2020-06-08T11:16:52Z</time>
      </trkpt>
      <trkpt lat="48.22087" lon="-3.94094">
        <ele>122.5</ele>
        <time>2020-06-08T11:16:53Z</time>
      </trkpt>
      <trkpt lat="48.22091" lon="-3.94096">
        <ele>122.6</ele>
        <time>2020-06-08T11:16:54Z</time>
      </trkpt>
      <trkpt lat="48.22093" lon="-3.94097">
        <ele>122.7</ele>
        <time>2020-06-08T11:16:55Z</time>
      </trkpt>
      <trkpt lat="48.22096" lon="-3.941">
        <ele>122.8</ele>
        <time>2020-06-08T11:16:56Z</time>
      </trkpt>
      <trkpt lat="48.22097" lon="-3.94101">
        <ele>122.8</ele>
        <time>2020-06-08T11:16:57Z</time>
      </trkpt>
      <trkpt lat="48.22101" lon="-3.94102">
        <ele>122.9</ele>
        <time>2020-06-08T11:16:58Z</time>
      </trkpt>
      <trkpt lat="48.22102" lon="-3.94103">
        <ele>123</ele>
        <time>2020-06-08T11:16:59Z</time>
      </trkpt>
      <trkpt lat="48.22104" lon="-3.94106">
        <ele>123</ele>
        <time>2020-06-08T11:17:00Z</time>
      </trkpt>
      <trkpt lat="48.22107" lon="-3.94108">
        <ele>123.1</ele>
        <time>2020-06-08T11:17:01Z</time>
      </trkpt>
      <trkpt lat="48.2211" lon="-3.94109">
        <ele>123.2</ele>
        <time>2020-06-08T11:17:02Z</time>
      </trkpt>
      <trkpt lat="48.22113" lon="-3.94111">
        <ele>123.3</ele>
        <time>2020-06-08T11:17:03Z</time>
      </trkpt>
      <trkpt lat="48.22116" lon="-3.94111">
        <ele>123.4</ele>
        <time>2020-06-08T11:17:04Z</time>
      </trkpt>
      <trkpt lat="48.22119" lon="-3.94111">
        <ele>123.5</ele>
        <time>2020-06-08T11:17:05Z</time>
      </trkpt>
      <trkpt lat="48.22123" lon="-3.94112">
        <ele>123.6</ele>
        <time>2020-06-08T11:17:06Z</time>
      </trkpt>
      <trkpt lat="48.22124" lon="-3.94112">
        <ele>123.6</ele>
        <time>2020-06-08T11:17:07Z</time>
      </trkpt>
      <trkpt lat="48.22127" lon="-3.94113">
        <ele>123.7</ele>
        <time>2020-06-08T11:17:08Z</time>
      </trkpt>
      <trkpt lat="48.2213" lon="-3.94112">
        <ele>123.8</ele>
        <time>2020-06-08T11:17:09Z</time>
      </trkpt>
      <trkpt lat="48.22133" lon="-3.94113">
        <ele>123.8</ele>
        <time>2020-06-08T11:17:10Z</time>
      </trkpt>
      <trkpt lat="48.22136" lon="-3.94113">
        <ele>123.9</ele>
        <time>2020-06-08T11:17:11Z</time>
      </trkpt>
      <trkpt lat="48.22139" lon="-3.94114">
        <ele>124</ele>
        <time>2020-06-08T11:17:12Z</time>
      </trkpt>
      <trkpt lat="48.22142" lon="-3.94115">
        <ele>124</ele>
        <time>2020-06-08T11:17:13Z</time>
      </trkpt>
      <trkpt lat="48.22146" lon="-3.94116">
        <ele>124.1</ele>
        <time>2020-06-08T11:17:14Z</time>
      </trkpt>
      <trkpt lat="48.22149" lon="-3.94117">
        <ele>124.2</ele>
        <time>2020-06-08T11:17:15Z</time>
      </trkpt>
      <trkpt lat="48.22152" lon="-3.94118">
        <ele>124.3</ele>
        <time>2020-06-08T11:17:16Z</time>
      </trkpt>
      <trkpt lat="48.22156" lon="-3.94118">
        <ele>124.4</ele>
        <time>2020-06-08T11:17:17Z</time>
      </trkpt>
      <trkpt lat="48.22159" lon="-3.94119">
        <ele>124.4</ele>
        <time>2020-06-08T11:17:18Z</time>
      </trkpt>
      <trkpt lat="48.22162" lon="-3.94119">
        <ele>124.5</ele>
        <time>2020-06-08T11:17:19Z</time>
      </trkpt>
      <trkpt lat="48.22165" lon="-3.94119">
        <ele>124.6</ele>
        <time>2020-06-08T11:17:20Z</time>
      </trkpt>
      <trkpt lat="48.22168" lon="-3.94119">
        <ele>124.6</ele>
        <time>2020-06-08T11:17:21Z</time>
      </trkpt>
      <trkpt lat="48.22171" lon="-3.9412">
        <ele>124.7</ele>
        <time>2020-06-08T11:17:22Z</time>
      </trkpt>
      <trkpt lat="48.22173" lon="-3.94121">
        <ele>124.7</ele>
        <time>2020-06-08T11:17:23Z</time>
      </trkpt>
      <trkpt lat="48.22177" lon="-3.94121">
        <ele>124.8</ele>
        <time>2020-06-08T11:17:24Z</time>
      </trkpt>
      <trkpt lat="48.22178" lon="-3.9412">
        <ele>124.9</ele>
        <time>2020-06-08T11:17:25Z</time>
      </trkpt>
      <trkpt lat="48.22182" lon="-3.94121">
        <ele>124.9</ele>
        <time>2020-06-08T11:17:26Z</time>
      </trkpt>
      <trkpt lat="48.22185" lon="-3.94122">
        <ele>125</ele>
        <time>2020-06-08T11:17:27Z</time>
      </trkpt>
      <trkpt lat="48.22188" lon="-3.94123">
        <ele>125.1</ele>
        <time>2020-06-08T11:17:28Z</time>
      </trkpt>
      <trkpt lat="48.22193" lon="-3.94124">
        <ele>125.2</ele>
        <time>2020-06-08T11:17:29Z</time>
      </trkpt>
      <trkpt lat="48.22198" lon="-3.94125">
        <ele>125.3</ele>
        <time>2020-06-08T11:17:30Z</time>
      </trkpt>
      <trkpt lat="48.22203" lon="-3.94125">
        <ele>125.4</ele>
        <time>2020-06-08T11:17:31Z</time>
      </trkpt>
      <trkpt lat="48.22206" lon="-3.94126">
        <ele>125.4</ele>
        <time>2020-06-08T11:17:32Z</time>
      </trkpt>
      <trkpt lat="48.2221" lon="-3.94127">
        <ele>125.5</ele>
        <time>2020-06-08T11:17:33Z</time>
      </trkpt>
      <trkpt lat="48.22214" lon="-3.9413">
        <ele>125.6</ele>
        <time>2020-06-08T11:17:34Z</time>
      </trkpt>
      <trkpt lat="48.22218" lon="-3.94131">
        <ele>125.7</ele>
        <time>2020-06-08T11:17:35Z</time>
      </trkpt>
      <trkpt lat="48.22223" lon="-3.94133">
        <ele>125.8</ele>
        <time>2020-06-08T11:17:36Z</time>
      </trkpt>
      <trkpt lat="48.22227" lon="-3.94136">
        <ele>125.9</ele>
        <time>2020-06-08T11:17:37Z</time>
      </trkpt>
      <trkpt lat="48.2223" lon="-3.94138">
        <ele>125.9</ele>
        <time>2020-06-08T11:17:38Z</time>
      </trkpt>
      <trkpt lat="48.22234" lon="-3.9414">
        <ele>126</ele>
        <time>2020-06-08T11:17:39Z</time>
      </trkpt>
      <trkpt lat="48.22237" lon="-3.94143">
        <ele>126.1</ele>
        <time>2020-06-08T11:17:40Z</time>
      </trkpt>
      <trkpt lat="48.22241" lon="-3.94146">
        <ele>126.2</ele>
        <time>2020-06-08T11:17:41Z</time>
      </trkpt>
      <trkpt lat="48.22244" lon="-3.94151">
        <ele>126.3</ele>
        <time>2020-06-08T11:17:42Z</time>
      </trkpt>
      <trkpt lat="48.22247" lon="-3.94154">
        <ele>126.3</ele>
        <time>2020-06-08T11:17:43Z</time>
      </trkpt>
      <trkpt lat="48.2225" lon="-3.94157">
        <ele>126.4</ele>
        <time>2020-06-08T11:17:44Z</time>
      </trkpt>
      <trkpt lat="48.22253" lon="-3.9416">
        <ele>126.4</ele>
        <time>2020-06-08T11:17:45Z</time>
      </trkpt>
      <trkpt lat="48.22256" lon="-3.94163">
        <ele>126.5</ele>
        <time>2020-06-08T11:17:46Z</time>
      </trkpt>
      <trkpt lat="48.22258" lon="-3.94167">
        <ele>126.5</ele>
        <time>2020-06-08T11:17:47Z</time>
      </trkpt>
      <trkpt lat="48.22261" lon="-3.9417">
        <ele>126.6</ele>
        <time>2020-06-08T11:17:48Z</time>
      </trkpt>
      <trkpt lat="48.22265" lon="-3.94173">
        <ele>126.6</ele>
        <time>2020-06-08T11:17:49Z</time>
      </trkpt>
      <trkpt lat="48.22267" lon="-3.94175">
        <ele>126.7</ele>
        <time>2020-06-08T11:17:50Z</time>
      </trkpt>
      <trkpt lat="48.22269" lon="-3.94178">
        <ele>126.7</ele>
        <time>2020-06-08T11:17:51Z</time>
      </trkpt>
      <trkpt lat="48.22272" lon="-3.94182">
        <ele>126.7</ele>
        <time>2020-06-08T11:17:52Z</time>
      </trkpt>
      <trkpt lat="48.22275" lon="-3.94186">
        <ele>126.8</ele>
        <time>2020-06-08T11:17:53Z</time>
      </trkpt>
      <trkpt lat="48.22278" lon="-3.94191">
        <ele>126.8</ele>
        <time>2020-06-08T11:17:54Z</time>
      </trkpt>
      <trkpt lat="48.22279" lon="-3.94195">
        <ele>126.8</ele>
        <time>2020-06-08T11:17:55Z</time>
      </trkpt>
      <trkpt lat="48.22282" lon="-3.94198">
        <ele>126.8</ele>
        <time>2020-06-08T11:17:56Z</time>
      </trkpt>
      <trkpt lat="48.22283" lon="-3.94203">
        <ele>126.8</ele>
        <time>2020-06-08T11:17:57Z</time>
      </trkpt>
      <trkpt lat="48.22285" lon="-3.94208">
        <ele>126.8</ele>
        <time>2020-06-08T11:17:58Z</time>
      </trkpt>
      <trkpt lat="48.22288" lon="-3.94212">
        <ele>126.8</ele>
        <time>2020-06-08T11:17:59Z</time>
      </trkpt>
      <trkpt lat="48.2229" lon="-3.94217">
        <ele>126.8</ele>
        <time>2020-06-08T11:18:00Z</time>
      </trkpt>
      <trkpt lat="48.22291" lon="-3.94221">
        <ele>126.7</ele>
        <time>2020-06-08T11:18:01Z</time>
      </trkpt>
      <trkpt lat="48.22293" lon="-3.94225">
        <ele>126.7</ele>
        <time>2020-06-08T11:18:02Z</time>
      </trkpt>
      <trkpt lat="48.22295" lon="-3.94228">
        <ele>126.6</ele>
        <time>2020-06-08T11:18:03Z</time>
      </trkpt>
      <trkpt lat="48.22298" lon="-3.94232">
        <ele>126.6</ele>
        <time>2020-06-08T11:18:04Z</time>
      </trkpt>
      <trkpt lat="48.22299" lon="-3.94233">
        <ele>126.6</ele>
        <time>2020-06-08T11:18:05Z</time>
      </trkpt>
      <trkpt lat="48.22301" lon="-3.94235">
        <ele>126.5</ele>
        <time>2020-06-08T11:18:06Z</time>
      </trkpt>
      <trkpt lat="48.22302" lon="-3.94236">
        <ele>126.5</ele>
        <time>2020-06-08T11:18:07Z</time>
      </trkpt>
      <trkpt lat="48.22302" lon="-3.94237">
        <ele>126.5</ele>
        <time>2020-06-08T11:18:08Z</time>
      </trkpt>
      <trkpt lat="48.22302" lon="-3.94241">
        <ele>126.5</ele>
        <time>2020-06-08T11:18:09Z</time>
      </trkpt>
      <trkpt lat="48.22303" lon="-3.94242">
        <ele>126.5</ele>
        <time>2020-06-08T11:18:10Z</time>
      </trkpt>
      <trkpt lat="48.22303" lon="-3.94243">
        <ele>126.5</ele>
        <time>2020-06-08T11:18:11Z</time>
      </trkpt>
      <trkpt lat="48.22303" lon="-3.94245">
        <ele>126.5</ele>
        <time>2020-06-08T11:18:12Z</time>
      </trkpt>
      <trkpt lat="48.22303" lon="-3.94246">
        <ele>126.4</ele>
        <time>2020-06-08T11:18:13Z</time>
      </trkpt>
      <trkpt lat="48.22303" lon="-3.94247">
        <ele>126.4</ele>
        <time>2020-06-08T11:18:14Z</time>
      </trkpt>
      <trkpt lat="48.22303" lon="-3.94248">
        <ele>126.4</ele>
        <time>2020-06-08T11:18:15Z</time>
      </trkpt>
      <trkpt lat="48.22303" lon="-3.94249">
        <ele>126.4</ele>
        <time>2020-06-08T11:18:16Z</time>
      </trkpt>
      <trkpt lat="48.22303" lon="-3.94251">
        <ele>126.4</ele>
        <time>2020-06-08T11:18:17Z</time>
      </trkpt>
      <trkpt lat="48.22303" lon="-3.94252">
        <ele>126.4</ele>
        <time>2020-06-08T11:18:18Z</time>
      </trkpt>
      <trkpt lat="48.22303" lon="-3.94253">
        <ele>126.4</ele>
        <time>2020-06-08T11:18:19Z</time>
      </trkpt>
      <trkpt lat="48.22303" lon="-3.94254">
        <ele>126.4</ele>
        <time>2020-06-08T11:18:20Z</time>
      </trkpt>
      <trkpt lat="48.22303" lon="-3.94255">
        <ele>126.4</ele>
        <time>2020-06-08T11:18:21Z</time>
      </trkpt>
      <trkpt lat="48.22303" lon="-3.94256">
        <ele>126.4</ele>
        <time>2020-06-08T11:18:22Z</time>
      </trkpt>
      <trkpt lat="48.22303" lon="-3.94258">
        <ele>126.4</ele>
        <time>2020-06-08T11:18:23Z</time>
      </trkpt>
      <trkpt lat="48.22303" lon="-3.94259">
        <ele>126.4</ele>
        <time>2020-06-08T11:18:59Z</time>
      </trkpt>
      <trkpt lat="48.22303" lon="-3.9426">
        <ele>126.4</ele>
        <time>2020-06-08T11:19:00Z</time>
      </trkpt>
      <trkpt lat="48.22303" lon="-3.94266">
        <ele>126.3</ele>
        <time>2020-06-08T11:19:01Z</time>
      </trkpt>
      <trkpt lat="48.22304" lon="-3.94273">
        <ele>126.3</ele>
        <time>2020-06-08T11:19:02Z</time>
      </trkpt>
      <trkpt lat="48.22304" lon="-3.94279">
        <ele>126.3</ele>
        <time>2020-06-08T11:19:03Z</time>
      </trkpt>
      <trkpt lat="48.22305" lon="-3.94285">
        <ele>126.2</ele>
        <time>2020-06-08T11:19:04Z</time>
      </trkpt>
      <trkpt lat="48.22305" lon="-3.94291">
        <ele>126.2</ele>
        <time>2020-06-08T11:19:05Z</time>
      </trkpt>
      <trkpt lat="48.22306" lon="-3.94297">
        <ele>126.1</ele>
        <time>2020-06-08T11:19:06Z</time>
      </trkpt>
      <trkpt lat="48.22306" lon="-3.94304">
        <ele>126</ele>
        <time>2020-06-08T11:19:07Z</time>
      </trkpt>
      <trkpt lat="48.22306" lon="-3.94311">
        <ele>126</ele>
        <time>2020-06-08T11:19:08Z</time>
      </trkpt>
      <trkpt lat="48.22307" lon="-3.94317">
        <ele>125.9</ele>
        <time>2020-06-08T11:19:09Z</time>
      </trkpt>
      <trkpt lat="48.22307" lon="-3.94322">
        <ele>125.8</ele>
        <time>2020-06-08T11:19:10Z</time>
      </trkpt>
      <trkpt lat="48.22307" lon="-3.94329">
        <ele>125.7</ele>
        <time>2020-06-08T11:19:11Z</time>
      </trkpt>
      <trkpt lat="48.22308" lon="-3.94336">
        <ele>125.6</ele>
        <time>2020-06-08T11:19:12Z</time>
      </trkpt>
      <trkpt lat="48.22308" lon="-3.94343">
        <ele>125.5</ele>
        <time>2020-06-08T11:19:13Z</time>
      </trkpt>
      <trkpt lat="48.22308" lon="-3.94349">
        <ele>125.5</ele>
        <time>2020-06-08T11:19:14Z</time>
      </trkpt>
      <trkpt lat="48.22307" lon="-3.94355">
        <ele>125.4</ele>
        <time>2020-06-08T11:19:15Z</time>
      </trkpt>
      <trkpt lat="48.22308" lon="-3.94363">
        <ele>125.3</ele>
        <time>2020-06-08T11:19:16Z</time>
      </trkpt>
      <trkpt lat="48.22307" lon="-3.94369">
        <ele>125.2</ele>
        <time>2020-06-08T11:19:17Z</time>
      </trkpt>
      <trkpt lat="48.22307" lon="-3.94375">
        <ele>125.2</ele>
        <time>2020-06-08T11:19:18Z</time>
      </trkpt>
      <trkpt lat="48.22307" lon="-3.94382">
        <ele>125.1</ele>
        <time>2020-06-08T11:19:19Z</time>
      </trkpt>
      <trkpt lat="48.22306" lon="-3.9439">
        <ele>125</ele>
        <time>2020-06-08T11:19:20Z</time>
      </trkpt>
      <trkpt lat="48.22306" lon="-3.94398">
        <ele>124.9</ele>
        <time>2020-06-08T11:19:21Z</time>
      </trkpt>
      <trkpt lat="48.22306" lon="-3.94406">
        <ele>124.8</ele>
        <time>2020-06-08T11:19:22Z</time>
      </trkpt>
      <trkpt lat="48.22306" lon="-3.94411">
        <ele>124.7</ele>
        <time>2020-06-08T11:19:23Z</time>
      </trkpt>
      <trkpt lat="48.22307" lon="-3.94418">
        <ele>124.6</ele>
        <time>2020-06-08T11:19:24Z</time>
      </trkpt>
      <trkpt lat="48.22306" lon="-3.94424">
        <ele>124.5</ele>
        <time>2020-06-08T11:19:25Z</time>
      </trkpt>
      <trkpt lat="48.22306" lon="-3.94431">
        <ele>124.4</ele>
        <time>2020-06-08T11:19:26Z</time>
      </trkpt>
      <trkpt lat="48.22306" lon="-3.94437">
        <ele>124.3</ele>
        <time>2020-06-08T11:19:27Z</time>
      </trkpt>
      <trkpt lat="48.22307" lon="-3.94445">
        <ele>124.2</ele>
        <time>2020-06-08T11:19:28Z</time>
      </trkpt>
      <trkpt lat="48.22307" lon="-3.94452">
        <ele>124.1</ele>
        <time>2020-06-08T11:19:29Z</time>
      </trkpt>
      <trkpt lat="48.22307" lon="-3.94459">
        <ele>124</ele>
        <time>2020-06-08T11:19:30Z</time>
      </trkpt>
      <trkpt lat="48.22307" lon="-3.94466">
        <ele>123.9</ele>
        <time>2020-06-08T11:19:31Z</time>
      </trkpt>
      <trkpt lat="48.22308" lon="-3.94473">
        <ele>123.9</ele>
        <time>2020-06-08T11:19:32Z</time>
      </trkpt>
      <trkpt lat="48.22308" lon="-3.9448">
        <ele>123.8</ele>
        <time>2020-06-08T11:19:33Z</time>
      </trkpt>
      <trkpt lat="48.22308" lon="-3.94487">
        <ele>123.7</ele>
        <time>2020-06-08T11:19:34Z</time>
      </trkpt>
      <trkpt lat="48.22308" lon="-3.94494">
        <ele>123.7</ele>
        <time>2020-06-08T11:19:35Z</time>
      </trkpt>
      <trkpt lat="48.22308" lon="-3.94501">
        <ele>123.6</ele>
        <time>2020-06-08T11:19:36Z</time>
      </trkpt>
      <trkpt lat="48.22308" lon="-3.94509">
        <ele>123.5</ele>
        <time>2020-06-08T11:19:37Z</time>
      </trkpt>
      <trkpt lat="48.22306" lon="-3.94516">
        <ele>123.5</ele>
        <time>2020-06-08T11:19:38Z</time>
      </trkpt>
      <trkpt lat="48.22305" lon="-3.94522">
        <ele>123.4</ele>
        <time>2020-06-08T11:19:39Z</time>
      </trkpt>
      <trkpt lat="48.22304" lon="-3.94529">
        <ele>123.3</ele>
        <time>2020-06-08T11:19:40Z</time>
      </trkpt>
      <trkpt lat="48.22302" lon="-3.94536">
        <ele>123.3</ele>
        <time>2020-06-08T11:19:41Z</time>
      </trkpt>
      <trkpt lat="48.22299" lon="-3.94543">
        <ele>123.2</ele>
        <time>2020-06-08T11:19:42Z</time>
      </trkpt>
      <trkpt lat="48.22296" lon="-3.94551">
        <ele>123.1</ele>
        <time>2020-06-08T11:19:43Z</time>
      </trkpt>
      <trkpt lat="48.22294" lon="-3.94558">
        <ele>123.1</ele>
        <time>2020-06-08T11:19:44Z</time>
      </trkpt>
      <trkpt lat="48.22291" lon="-3.94564">
        <ele>123</ele>
        <time>2020-06-08T11:19:45Z</time>
      </trkpt>
      <trkpt lat="48.22287" lon="-3.94571">
        <ele>122.9</ele>
        <time>2020-06-08T11:19:46Z</time>
      </trkpt>
      <trkpt lat="48.22284" lon="-3.94579">
        <ele>122.8</ele>
        <time>2020-06-08T11:19:47Z</time>
      </trkpt>
      <trkpt lat="48.22281" lon="-3.94587">
        <ele>122.8</ele>
        <time>2020-06-08T11:19:48Z</time>
      </trkpt>
      <trkpt lat="48.2228" lon="-3.94595">
        <ele>122.7</ele>
        <time>2020-06-08T11:19:49Z</time>
      </trkpt>
      <trkpt lat="48.22281" lon="-3.94601">
        <ele>122.7</ele>
        <time>2020-06-08T11:19:50Z</time>
      </trkpt>
      <trkpt lat="48.22284" lon="-3.94608">
        <ele>122.6</ele>
        <time>2020-06-08T11:19:51Z</time>
      </trkpt>
      <trkpt lat="48.22288" lon="-3.94613">
        <ele>122.5</ele>
        <time>2020-06-08T11:19:52Z</time>
      </trkpt>
      <trkpt lat="48.22292" lon="-3.94618">
        <ele>122.4</ele>
        <time>2020-06-08T11:19:53Z</time>
      </trkpt>
      <trkpt lat="48.22296" lon="-3.94622">
        <ele>122.3</ele>
        <time>2020-06-08T11:19:54Z</time>
      </trkpt>
      <trkpt lat="48.22299" lon="-3.94626">
        <ele>122.1</ele>
        <time>2020-06-08T11:19:55Z</time>
      </trkpt>
      <trkpt lat="48.22303" lon="-3.9463">
        <ele>122</ele>
        <time>2020-06-08T11:19:56Z</time>
      </trkpt>
      <trkpt lat="48.22306" lon="-3.94635">
        <ele>121.9</ele>
        <time>2020-06-08T11:19:57Z</time>
      </trkpt>
      <trkpt lat="48.22308" lon="-3.94641">
        <ele>121.8</ele>
        <time>2020-06-08T11:19:58Z</time>
      </trkpt>
      <trkpt lat="48.22309" lon="-3.94646">
        <ele>121.7</ele>
        <time>2020-06-08T11:19:59Z</time>
      </trkpt>
      <trkpt lat="48.22308" lon="-3.94652">
        <ele>121.7</ele>
        <time>2020-06-08T11:20:00Z</time>
      </trkpt>
      <trkpt lat="48.22308" lon="-3.9466">
        <ele>121.6</ele>
        <time>2020-06-08T11:20:01Z</time>
      </trkpt>
      <trkpt lat="48.22308" lon="-3.94667">
        <ele>121.5</ele>
        <time>2020-06-08T11:20:02Z</time>
      </trkpt>
      <trkpt lat="48.22308" lon="-3.94675">
        <ele>121.4</ele>
        <time>2020-06-08T11:20:03Z</time>
      </trkpt>
      <trkpt lat="48.22307" lon="-3.94683">
        <ele>121.3</ele>
        <time>2020-06-08T11:20:04Z</time>
      </trkpt>
      <trkpt lat="48.22307" lon="-3.94691">
        <ele>121</ele>
        <time>2020-06-08T11:20:05Z</time>
      </trkpt>
      <trkpt lat="48.22307" lon="-3.947">
        <ele>120.9</ele>
        <time>2020-06-08T11:20:06Z</time>
      </trkpt>
      <trkpt lat="48.22306" lon="-3.94706">
        <ele>120.8</ele>
        <time>2020-06-08T11:20:07Z</time>
      </trkpt>
      <trkpt lat="48.22306" lon="-3.94714">
        <ele>120.7</ele>
        <time>2020-06-08T11:20:08Z</time>
      </trkpt>
      <trkpt lat="48.22305" lon="-3.9472">
        <ele>120.6</ele>
        <time>2020-06-08T11:20:09Z</time>
      </trkpt>
      <trkpt lat="48.22305" lon="-3.94727">
        <ele>120.6</ele>
        <time>2020-06-08T11:20:10Z</time>
      </trkpt>
      <trkpt lat="48.22304" lon="-3.94735">
        <ele>120.5</ele>
        <time>2020-06-08T11:20:11Z</time>
      </trkpt>
      <trkpt lat="48.22305" lon="-3.94743">
        <ele>120.4</ele>
        <time>2020-06-08T11:20:12Z</time>
      </trkpt>
      <trkpt lat="48.22305" lon="-3.94751">
        <ele>120.4</ele>
        <time>2020-06-08T11:20:13Z</time>
      </trkpt>
      <trkpt lat="48.22304" lon="-3.94759">
        <ele>120.3</ele>
        <time>2020-06-08T11:20:14Z</time>
      </trkpt>
      <trkpt lat="48.22304" lon="-3.94768">
        <ele>120.3</ele>
        <time>2020-06-08T11:20:15Z</time>
      </trkpt>
      <trkpt lat="48.22304" lon="-3.94777">
        <ele>120.2</ele>
        <time>2020-06-08T11:20:16Z</time>
      </trkpt>
      <trkpt lat="48.22303" lon="-3.94786">
        <ele>120.1</ele>
        <time>2020-06-08T11:20:17Z</time>
      </trkpt>
      <trkpt lat="48.22303" lon="-3.94795">
        <ele>120</ele>
        <time>2020-06-08T11:20:18Z</time>
      </trkpt>
      <trkpt lat="48.22303" lon="-3.94804">
        <ele>120</ele>
        <time>2020-06-08T11:20:19Z</time>
      </trkpt>
      <trkpt lat="48.22303" lon="-3.94813">
        <ele>120</ele>
        <time>2020-06-08T11:20:20Z</time>
      </trkpt>
      <trkpt lat="48.22303" lon="-3.94821">
        <ele>120</ele>
        <time>2020-06-08T11:20:21Z</time>
      </trkpt>
      <trkpt lat="48.22302" lon="-3.94829">
        <ele>120</ele>
        <time>2020-06-08T11:20:22Z</time>
      </trkpt>
      <trkpt lat="48.22302" lon="-3.94838">
        <ele>120</ele>
        <time>2020-06-08T11:20:23Z</time>
      </trkpt>
      <trkpt lat="48.22302" lon="-3.94846">
        <ele>119.9</ele>
        <time>2020-06-08T11:20:24Z</time>
      </trkpt>
      <trkpt lat="48.22302" lon="-3.94855">
        <ele>119.9</ele>
        <time>2020-06-08T11:20:25Z</time>
      </trkpt>
      <trkpt lat="48.22303" lon="-3.94864">
        <ele>119.8</ele>
        <time>2020-06-08T11:20:26Z</time>
      </trkpt>
      <trkpt lat="48.22305" lon="-3.94872">
        <ele>119.8</ele>
        <time>2020-06-08T11:20:27Z</time>
      </trkpt>
      <trkpt lat="48.22307" lon="-3.94881">
        <ele>119.8</ele>
        <time>2020-06-08T11:20:28Z</time>
      </trkpt>
      <trkpt lat="48.22309" lon="-3.94889">
        <ele>119.8</ele>
        <time>2020-06-08T11:20:29Z</time>
      </trkpt>
      <trkpt lat="48.22311" lon="-3.94897">
        <ele>119.8</ele>
        <time>2020-06-08T11:20:30Z</time>
      </trkpt>
      <trkpt lat="48.22313" lon="-3.94904">
        <ele>119.8</ele>
        <time>2020-06-08T11:20:31Z</time>
      </trkpt>
      <trkpt lat="48.22315" lon="-3.94911">
        <ele>119.8</ele>
        <time>2020-06-08T11:20:32Z</time>
      </trkpt>
      <trkpt lat="48.22317" lon="-3.94918">
        <ele>119.8</ele>
        <time>2020-06-08T11:20:33Z</time>
      </trkpt>
      <trkpt lat="48.2232" lon="-3.94926">
        <ele>119.9</ele>
        <time>2020-06-08T11:20:34Z</time>
      </trkpt>
      <trkpt lat="48.22322" lon="-3.94933">
        <ele>119.9</ele>
        <time>2020-06-08T11:20:35Z</time>
      </trkpt>
      <trkpt lat="48.22324" lon="-3.94942">
        <ele>119.9</ele>
        <time>2020-06-08T11:20:36Z</time>
      </trkpt>
      <trkpt lat="48.22327" lon="-3.9495">
        <ele>120</ele>
        <time>2020-06-08T11:20:37Z</time>
      </trkpt>
      <trkpt lat="48.22329" lon="-3.94958">
        <ele>120</ele>
        <time>2020-06-08T11:20:38Z</time>
      </trkpt>
      <trkpt lat="48.22331" lon="-3.94966">
        <ele>120.1</ele>
        <time>2020-06-08T11:20:39Z</time>
      </trkpt>
      <trkpt lat="48.22333" lon="-3.94974">
        <ele>120.1</ele>
        <time>2020-06-08T11:20:40Z</time>
      </trkpt>
      <trkpt lat="48.22335" lon="-3.94983">
        <ele>120.2</ele>
        <time>2020-06-08T11:20:41Z</time>
      </trkpt>
      <trkpt lat="48.22337" lon="-3.94991">
        <ele>120.2</ele>
        <time>2020-06-08T11:20:42Z</time>
      </trkpt>
      <trkpt lat="48.22338" lon="-3.94999">
        <ele>120.3</ele>
        <time>2020-06-08T11:20:43Z</time>
      </trkpt>
      <trkpt lat="48.2234" lon="-3.95007">
        <ele>120.3</ele>
        <time>2020-06-08T11:20:44Z</time>
      </trkpt>
      <trkpt lat="48.22342" lon="-3.95014">
        <ele>120.4</ele>
        <time>2020-06-08T11:20:45Z</time>
      </trkpt>
      <trkpt lat="48.22344" lon="-3.95021">
        <ele>120.4</ele>
        <time>2020-06-08T11:20:46Z</time>
      </trkpt>
      <trkpt lat="48.22345" lon="-3.95028">
        <ele>120.5</ele>
        <time>2020-06-08T11:20:47Z</time>
      </trkpt>
      <trkpt lat="48.22347" lon="-3.95036">
        <ele>120.5</ele>
        <time>2020-06-08T11:20:48Z</time>
      </trkpt>
      <trkpt lat="48.22349" lon="-3.95044">
        <ele>120.5</ele>
        <time>2020-06-08T11:20:49Z</time>
      </trkpt>
      <trkpt lat="48.22349" lon="-3.95051">
        <ele>120.5</ele>
        <time>2020-06-08T11:20:50Z</time>
      </trkpt>
      <trkpt lat="48.2235" lon="-3.95059">
        <ele>120.5</ele>
        <time>2020-06-08T11:20:51Z</time>
      </trkpt>
      <trkpt lat="48.22352" lon="-3.95066">
        <ele>120.4</ele>
        <time>2020-06-08T11:20:52Z</time>
      </trkpt>
      <trkpt lat="48.22353" lon="-3.95074">
        <ele>120.4</ele>
        <time>2020-06-08T11:20:53Z</time>
      </trkpt>
      <trkpt lat="48.22354" lon="-3.95082">
        <ele>120.4</ele>
        <time>2020-06-08T11:20:54Z</time>
      </trkpt>
      <trkpt lat="48.22356" lon="-3.95091">
        <ele>120.3</ele>
        <time>2020-06-08T11:20:55Z</time>
      </trkpt>
      <trkpt lat="48.22357" lon="-3.95099">
        <ele>120.3</ele>
        <time>2020-06-08T11:20:56Z</time>
      </trkpt>
      <trkpt lat="48.22358" lon="-3.95106">
        <ele>120.3</ele>
        <time>2020-06-08T11:20:57Z</time>
      </trkpt>
      <trkpt lat="48.2236" lon="-3.95114">
        <ele>120.3</ele>
        <time>2020-06-08T11:20:58Z</time>
      </trkpt>
      <trkpt lat="48.22361" lon="-3.95122">
        <ele>120.3</ele>
        <time>2020-06-08T11:20:59Z</time>
      </trkpt>
      <trkpt lat="48.22362" lon="-3.9513">
        <ele>120.3</ele>
        <time>2020-06-08T11:21:00Z</time>
      </trkpt>
      <trkpt lat="48.22364" lon="-3.95139">
        <ele>120.3</ele>
        <time>2020-06-08T11:21:01Z</time>
      </trkpt>
      <trkpt lat="48.22365" lon="-3.95147">
        <ele>120.2</ele>
        <time>2020-06-08T11:21:02Z</time>
      </trkpt>
      <trkpt lat="48.22367" lon="-3.95155">
        <ele>120.2</ele>
        <time>2020-06-08T11:21:03Z</time>
      </trkpt>
      <trkpt lat="48.22368" lon="-3.95164">
        <ele>120.2</ele>
        <time>2020-06-08T11:21:04Z</time>
      </trkpt>
      <trkpt lat="48.2237" lon="-3.95172">
        <ele>120.2</ele>
        <time>2020-06-08T11:21:05Z</time>
      </trkpt>
      <trkpt lat="48.22371" lon="-3.95179">
        <ele>120.2</ele>
        <time>2020-06-08T11:21:06Z</time>
      </trkpt>
      <trkpt lat="48.22372" lon="-3.95188">
        <ele>120.2</ele>
        <time>2020-06-08T11:21:07Z</time>
      </trkpt>
      <trkpt lat="48.22372" lon="-3.95195">
        <ele>120.2</ele>
        <time>2020-06-08T11:21:08Z</time>
      </trkpt>
      <trkpt lat="48.22373" lon="-3.95205">
        <ele>120.2</ele>
        <time>2020-06-08T11:21:09Z</time>
      </trkpt>
      <trkpt lat="48.22374" lon="-3.95212">
        <ele>120.2</ele>
        <time>2020-06-08T11:21:10Z</time>
      </trkpt>
      <trkpt lat="48.22375" lon="-3.95222">
        <ele>120.2</ele>
        <time>2020-06-08T11:21:11Z</time>
      </trkpt>
      <trkpt lat="48.22376" lon="-3.95231">
        <ele>120.3</ele>
        <time>2020-06-08T11:21:12Z</time>
      </trkpt>
      <trkpt lat="48.22377" lon="-3.9524">
        <ele>120.2</ele>
        <time>2020-06-08T11:21:13Z</time>
      </trkpt>
      <trkpt lat="48.22377" lon="-3.95248">
        <ele>120.1</ele>
        <time>2020-06-08T11:21:14Z</time>
      </trkpt>
      <trkpt lat="48.22378" lon="-3.95257">
        <ele>120</ele>
        <time>2020-06-08T11:21:15Z</time>
      </trkpt>
      <trkpt lat="48.22378" lon="-3.95266">
        <ele>120</ele>
        <time>2020-06-08T11:21:16Z</time>
      </trkpt>
      <trkpt lat="48.22379" lon="-3.95273">
        <ele>119.9</ele>
        <time>2020-06-08T11:21:17Z</time>
      </trkpt>
      <trkpt lat="48.22379" lon="-3.9528">
        <ele>119.9</ele>
        <time>2020-06-08T11:21:18Z</time>
      </trkpt>
      <trkpt lat="48.2238" lon="-3.95288">
        <ele>119.9</ele>
        <time>2020-06-08T11:21:19Z</time>
      </trkpt>
      <trkpt lat="48.22381" lon="-3.95296">
        <ele>119.9</ele>
        <time>2020-06-08T11:21:20Z</time>
      </trkpt>
      <trkpt lat="48.22381" lon="-3.95305">
        <ele>119.9</ele>
        <time>2020-06-08T11:21:21Z</time>
      </trkpt>
      <trkpt lat="48.22382" lon="-3.95313">
        <ele>119.9</ele>
        <time>2020-06-08T11:21:22Z</time>
      </trkpt>
      <trkpt lat="48.22382" lon="-3.95321">
        <ele>119.9</ele>
        <time>2020-06-08T11:21:23Z</time>
      </trkpt>
      <trkpt lat="48.22382" lon="-3.95329">
        <ele>119.9</ele>
        <time>2020-06-08T11:21:24Z</time>
      </trkpt>
      <trkpt lat="48.22383" lon="-3.95337">
        <ele>119.9</ele>
        <time>2020-06-08T11:21:25Z</time>
      </trkpt>
      <trkpt lat="48.22383" lon="-3.95345">
        <ele>119.9</ele>
        <time>2020-06-08T11:21:26Z</time>
      </trkpt>
      <trkpt lat="48.22384" lon="-3.95352">
        <ele>119.9</ele>
        <time>2020-06-08T11:21:27Z</time>
      </trkpt>
      <trkpt lat="48.22383" lon="-3.95359">
        <ele>119.9</ele>
        <time>2020-06-08T11:21:28Z</time>
      </trkpt>
      <trkpt lat="48.22383" lon="-3.95367">
        <ele>119.9</ele>
        <time>2020-06-08T11:21:29Z</time>
      </trkpt>
      <trkpt lat="48.22383" lon="-3.95375">
        <ele>119.9</ele>
        <time>2020-06-08T11:21:30Z</time>
      </trkpt>
      <trkpt lat="48.22383" lon="-3.95382">
        <ele>119.9</ele>
        <time>2020-06-08T11:21:31Z</time>
      </trkpt>
      <trkpt lat="48.22384" lon="-3.9539">
        <ele>119.9</ele>
        <time>2020-06-08T11:21:32Z</time>
      </trkpt>
      <trkpt lat="48.22384" lon="-3.95399">
        <ele>119.9</ele>
        <time>2020-06-08T11:21:33Z</time>
      </trkpt>
      <trkpt lat="48.22385" lon="-3.95407">
        <ele>119.9</ele>
        <time>2020-06-08T11:21:34Z</time>
      </trkpt>
      <trkpt lat="48.22386" lon="-3.95416">
        <ele>119.9</ele>
        <time>2020-06-08T11:21:35Z</time>
      </trkpt>
      <trkpt lat="48.22385" lon="-3.95424">
        <ele>119.8</ele>
        <time>2020-06-08T11:21:36Z</time>
      </trkpt>
      <trkpt lat="48.22385" lon="-3.95432">
        <ele>119.8</ele>
        <time>2020-06-08T11:21:37Z</time>
      </trkpt>
      <trkpt lat="48.22385" lon="-3.9544">
        <ele>119.8</ele>
        <time>2020-06-08T11:21:38Z</time>
      </trkpt>
      <trkpt lat="48.22385" lon="-3.95448">
        <ele>119.8</ele>
        <time>2020-06-08T11:21:39Z</time>
      </trkpt>
      <trkpt lat="48.22384" lon="-3.95456">
        <ele>119.7</ele>
        <time>2020-06-08T11:21:40Z</time>
      </trkpt>
      <trkpt lat="48.22385" lon="-3.95465">
        <ele>119.7</ele>
        <time>2020-06-08T11:21:41Z</time>
      </trkpt>
      <trkpt lat="48.22385" lon="-3.95473">
        <ele>119.6</ele>
        <time>2020-06-08T11:21:42Z</time>
      </trkpt>
      <trkpt lat="48.22385" lon="-3.9548">
        <ele>119.6</ele>
        <time>2020-06-08T11:21:43Z</time>
      </trkpt>
      <trkpt lat="48.22385" lon="-3.95489">
        <ele>119.6</ele>
        <time>2020-06-08T11:21:44Z</time>
      </trkpt>
      <trkpt lat="48.22386" lon="-3.95498">
        <ele>119.5</ele>
        <time>2020-06-08T11:21:45Z</time>
      </trkpt>
      <trkpt lat="48.22386" lon="-3.95506">
        <ele>119.5</ele>
        <time>2020-06-08T11:21:46Z</time>
      </trkpt>
      <trkpt lat="48.22386" lon="-3.95514">
        <ele>119.4</ele>
        <time>2020-06-08T11:21:47Z</time>
      </trkpt>
      <trkpt lat="48.22386" lon="-3.95522">
        <ele>119.4</ele>
        <time>2020-06-08T11:21:48Z</time>
      </trkpt>
      <trkpt lat="48.22387" lon="-3.9553">
        <ele>119.2</ele>
        <time>2020-06-08T11:21:49Z</time>
      </trkpt>
      <trkpt lat="48.22387" lon="-3.95539">
        <ele>119.1</ele>
        <time>2020-06-08T11:21:50Z</time>
      </trkpt>
      <trkpt lat="48.22386" lon="-3.95547">
        <ele>119</ele>
        <time>2020-06-08T11:21:51Z</time>
      </trkpt>
      <trkpt lat="48.22386" lon="-3.95556">
        <ele>118.9</ele>
        <time>2020-06-08T11:21:52Z</time>
      </trkpt>
      <trkpt lat="48.22386" lon="-3.95564">
        <ele>118.8</ele>
        <time>2020-06-08T11:21:53Z</time>
      </trkpt>
      <trkpt lat="48.22386" lon="-3.95573">
        <ele>118.7</ele>
        <time>2020-06-08T11:21:54Z</time>
      </trkpt>
      <trkpt lat="48.22387" lon="-3.95583">
        <ele>118.5</ele>
        <time>2020-06-08T11:21:55Z</time>
      </trkpt>
      <trkpt lat="48.22387" lon="-3.95591">
        <ele>118.4</ele>
        <time>2020-06-08T11:21:56Z</time>
      </trkpt>
      <trkpt lat="48.22387" lon="-3.956">
        <ele>118.2</ele>
        <time>2020-06-08T11:21:57Z</time>
      </trkpt>
      <trkpt lat="48.22388" lon="-3.95609">
        <ele>118</ele>
        <time>2020-06-08T11:21:58Z</time>
      </trkpt>
      <trkpt lat="48.22388" lon="-3.95618">
        <ele>117.9</ele>
        <time>2020-06-08T11:21:59Z</time>
      </trkpt>
      <trkpt lat="48.22389" lon="-3.95627">
        <ele>117.7</ele>
        <time>2020-06-08T11:22:00Z</time>
      </trkpt>
      <trkpt lat="48.22389" lon="-3.95636">
        <ele>117.7</ele>
        <time>2020-06-08T11:22:01Z</time>
      </trkpt>
      <trkpt lat="48.2239" lon="-3.95644">
        <ele>117.6</ele>
        <time>2020-06-08T11:22:02Z</time>
      </trkpt>
      <trkpt lat="48.2239" lon="-3.95654">
        <ele>117.5</ele>
        <time>2020-06-08T11:22:03Z</time>
      </trkpt>
      <trkpt lat="48.22391" lon="-3.95664">
        <ele>117.5</ele>
        <time>2020-06-08T11:22:04Z</time>
      </trkpt>
      <trkpt lat="48.22393" lon="-3.95672">
        <ele>117.4</ele>
        <time>2020-06-08T11:22:05Z</time>
      </trkpt>
      <trkpt lat="48.22394" lon="-3.95681">
        <ele>117.3</ele>
        <time>2020-06-08T11:22:06Z</time>
      </trkpt>
      <trkpt lat="48.22395" lon="-3.9569">
        <ele>117.2</ele>
        <time>2020-06-08T11:22:07Z</time>
      </trkpt>
      <trkpt lat="48.22395" lon="-3.95699">
        <ele>117.1</ele>
        <time>2020-06-08T11:22:08Z</time>
      </trkpt>
      <trkpt lat="48.22395" lon="-3.95707">
        <ele>117</ele>
        <time>2020-06-08T11:22:09Z</time>
      </trkpt>
      <trkpt lat="48.22394" lon="-3.95715">
        <ele>116.9</ele>
        <time>2020-06-08T11:22:10Z</time>
      </trkpt>
      <trkpt lat="48.22393" lon="-3.95724">
        <ele>116.8</ele>
        <time>2020-06-08T11:22:11Z</time>
      </trkpt>
      <trkpt lat="48.22393" lon="-3.95732">
        <ele>116.8</ele>
        <time>2020-06-08T11:22:12Z</time>
      </trkpt>
      <trkpt lat="48.22393" lon="-3.95742">
        <ele>116.7</ele>
        <time>2020-06-08T11:22:13Z</time>
      </trkpt>
      <trkpt lat="48.22393" lon="-3.95751">
        <ele>116.7</ele>
        <time>2020-06-08T11:22:14Z</time>
      </trkpt>
      <trkpt lat="48.22394" lon="-3.9576">
        <ele>116.7</ele>
        <time>2020-06-08T11:22:15Z</time>
      </trkpt>
      <trkpt lat="48.22395" lon="-3.95767">
        <ele>116.7</ele>
        <time>2020-06-08T11:22:16Z</time>
      </trkpt>
      <trkpt lat="48.22398" lon="-3.95773">
        <ele>116.7</ele>
        <time>2020-06-08T11:22:17Z</time>
      </trkpt>
      <trkpt lat="48.22401" lon="-3.95779">
        <ele>116.7</ele>
        <time>2020-06-08T11:22:18Z</time>
      </trkpt>
      <trkpt lat="48.22404" lon="-3.95786">
        <ele>116.7</ele>
        <time>2020-06-08T11:22:19Z</time>
      </trkpt>
      <trkpt lat="48.22407" lon="-3.95793">
        <ele>116.7</ele>
        <time>2020-06-08T11:22:20Z</time>
      </trkpt>
      <trkpt lat="48.22409" lon="-3.95798">
        <ele>116.7</ele>
        <time>2020-06-08T11:22:21Z</time>
      </trkpt>
      <trkpt lat="48.22411" lon="-3.95807">
        <ele>116.7</ele>
        <time>2020-06-08T11:22:22Z</time>
      </trkpt>
      <trkpt lat="48.22414" lon="-3.95812">
        <ele>116.7</ele>
        <time>2020-06-08T11:22:23Z</time>
      </trkpt>
      <trkpt lat="48.22416" lon="-3.9582">
        <ele>116.7</ele>
        <time>2020-06-08T11:22:24Z</time>
      </trkpt>
      <trkpt lat="48.22419" lon="-3.95828">
        <ele>116.8</ele>
        <time>2020-06-08T11:22:25Z</time>
      </trkpt>
      <trkpt lat="48.22422" lon="-3.95835">
        <ele>116.8</ele>
        <time>2020-06-08T11:22:26Z</time>
      </trkpt>
      <trkpt lat="48.22425" lon="-3.95841">
        <ele>116.9</ele>
        <time>2020-06-08T11:22:27Z</time>
      </trkpt>
      <trkpt lat="48.22428" lon="-3.95847">
        <ele>116.9</ele>
        <time>2020-06-08T11:22:28Z</time>
      </trkpt>
      <trkpt lat="48.22429" lon="-3.95853">
        <ele>117</ele>
        <time>2020-06-08T11:22:29Z</time>
      </trkpt>
      <trkpt lat="48.22431" lon="-3.95862">
        <ele>117</ele>
        <time>2020-06-08T11:22:30Z</time>
      </trkpt>
      <trkpt lat="48.22433" lon="-3.95868">
        <ele>117.1</ele>
        <time>2020-06-08T11:22:31Z</time>
      </trkpt>
      <trkpt lat="48.22435" lon="-3.95876">
        <ele>117.1</ele>
        <time>2020-06-08T11:22:32Z</time>
      </trkpt>
      <trkpt lat="48.22436" lon="-3.95883">
        <ele>117.1</ele>
        <time>2020-06-08T11:22:33Z</time>
      </trkpt>
      <trkpt lat="48.22438" lon="-3.95889">
        <ele>117.1</ele>
        <time>2020-06-08T11:22:34Z</time>
      </trkpt>
      <trkpt lat="48.2244" lon="-3.95895">
        <ele>117.1</ele>
        <time>2020-06-08T11:22:35Z</time>
      </trkpt>
      <trkpt lat="48.22444" lon="-3.95901">
        <ele>117.1</ele>
        <time>2020-06-08T11:22:36Z</time>
      </trkpt>
      <trkpt lat="48.22446" lon="-3.95907">
        <ele>117.1</ele>
        <time>2020-06-08T11:22:37Z</time>
      </trkpt>
      <trkpt lat="48.22448" lon="-3.95911">
        <ele>117.1</ele>
        <time>2020-06-08T11:22:38Z</time>
      </trkpt>
      <trkpt lat="48.2245" lon="-3.95917">
        <ele>117.2</ele>
        <time>2020-06-08T11:22:39Z</time>
      </trkpt>
      <trkpt lat="48.22453" lon="-3.95923">
        <ele>117.3</ele>
        <time>2020-06-08T11:22:40Z</time>
      </trkpt>
      <trkpt lat="48.22455" lon="-3.9593">
        <ele>117.3</ele>
        <time>2020-06-08T11:22:41Z</time>
      </trkpt>
      <trkpt lat="48.22458" lon="-3.95937">
        <ele>117.4</ele>
        <time>2020-06-08T11:22:42Z</time>
      </trkpt>
      <trkpt lat="48.2246" lon="-3.95942">
        <ele>117.4</ele>
        <time>2020-06-08T11:22:43Z</time>
      </trkpt>
      <trkpt lat="48.22462" lon="-3.95947">
        <ele>117.5</ele>
        <time>2020-06-08T11:22:44Z</time>
      </trkpt>
      <trkpt lat="48.22465" lon="-3.95953">
        <ele>117.5</ele>
        <time>2020-06-08T11:22:45Z</time>
      </trkpt>
      <trkpt lat="48.22467" lon="-3.95958">
        <ele>117.6</ele>
        <time>2020-06-08T11:22:46Z</time>
      </trkpt>
      <trkpt lat="48.2247" lon="-3.95965">
        <ele>117.6</ele>
        <time>2020-06-08T11:22:47Z</time>
      </trkpt>
      <trkpt lat="48.22471" lon="-3.95971">
        <ele>117.6</ele>
        <time>2020-06-08T11:22:48Z</time>
      </trkpt>
      <trkpt lat="48.22472" lon="-3.95978">
        <ele>117.7</ele>
        <time>2020-06-08T11:22:49Z</time>
      </trkpt>
      <trkpt lat="48.22473" lon="-3.95986">
        <ele>117.7</ele>
        <time>2020-06-08T11:22:50Z</time>
      </trkpt>
      <trkpt lat="48.22474" lon="-3.95994">
        <ele>117.7</ele>
        <time>2020-06-08T11:22:51Z</time>
      </trkpt>
      <trkpt lat="48.22475" lon="-3.95997">
        <ele>117.7</ele>
        <time>2020-06-08T11:22:52Z</time>
      </trkpt>
      <trkpt lat="48.22478" lon="-3.96003">
        <ele>117.7</ele>
        <time>2020-06-08T11:22:53Z</time>
      </trkpt>
      <trkpt lat="48.2248" lon="-3.96007">
        <ele>117.7</ele>
        <time>2020-06-08T11:22:54Z</time>
      </trkpt>
      <trkpt lat="48.22482" lon="-3.96015">
        <ele>117.7</ele>
        <time>2020-06-08T11:22:55Z</time>
      </trkpt>
      <trkpt lat="48.22484" lon="-3.9602">
        <ele>117.7</ele>
        <time>2020-06-08T11:22:56Z</time>
      </trkpt>
      <trkpt lat="48.22486" lon="-3.96027">
        <ele>117.6</ele>
        <time>2020-06-08T11:22:57Z</time>
      </trkpt>
      <trkpt lat="48.22489" lon="-3.96034">
        <ele>117.6</ele>
        <time>2020-06-08T11:22:58Z</time>
      </trkpt>
      <trkpt lat="48.22492" lon="-3.9604">
        <ele>117.5</ele>
        <time>2020-06-08T11:22:59Z</time>
      </trkpt>
      <trkpt lat="48.22495" lon="-3.96049">
        <ele>117.4</ele>
        <time>2020-06-08T11:23:00Z</time>
      </trkpt>
      <trkpt lat="48.22498" lon="-3.96056">
        <ele>117.2</ele>
        <time>2020-06-08T11:23:01Z</time>
      </trkpt>
      <trkpt lat="48.22501" lon="-3.96062">
        <ele>117</ele>
        <time>2020-06-08T11:23:02Z</time>
      </trkpt>
      <trkpt lat="48.22504" lon="-3.96069">
        <ele>116.9</ele>
        <time>2020-06-08T11:23:03Z</time>
      </trkpt>
      <trkpt lat="48.22506" lon="-3.96075">
        <ele>116.7</ele>
        <time>2020-06-08T11:23:04Z</time>
      </trkpt>
      <trkpt lat="48.22508" lon="-3.96081">
        <ele>116.6</ele>
        <time>2020-06-08T11:23:05Z</time>
      </trkpt>
      <trkpt lat="48.2251" lon="-3.96089">
        <ele>116.4</ele>
        <time>2020-06-08T11:23:06Z</time>
      </trkpt>
      <trkpt lat="48.22512" lon="-3.96096">
        <ele>116.2</ele>
        <time>2020-06-08T11:23:07Z</time>
      </trkpt>
      <trkpt lat="48.22514" lon="-3.96102">
        <ele>116</ele>
        <time>2020-06-08T11:23:08Z</time>
      </trkpt>
      <trkpt lat="48.22517" lon="-3.96108">
        <ele>115.9</ele>
        <time>2020-06-08T11:23:09Z</time>
      </trkpt>
      <trkpt lat="48.2252" lon="-3.96114">
        <ele>115.7</ele>
        <time>2020-06-08T11:23:10Z</time>
      </trkpt>
      <trkpt lat="48.22524" lon="-3.96123">
        <ele>115.4</ele>
        <time>2020-06-08T11:23:11Z</time>
      </trkpt>
      <trkpt lat="48.22527" lon="-3.9613">
        <ele>115.1</ele>
        <time>2020-06-08T11:23:12Z</time>
      </trkpt>
      <trkpt lat="48.22529" lon="-3.96137">
        <ele>114.9</ele>
        <time>2020-06-08T11:23:13Z</time>
      </trkpt>
      <trkpt lat="48.22532" lon="-3.96144">
        <ele>114.7</ele>
        <time>2020-06-08T11:23:14Z</time>
      </trkpt>
      <trkpt lat="48.22534" lon="-3.96149">
        <ele>114.5</ele>
        <time>2020-06-08T11:23:15Z</time>
      </trkpt>
      <trkpt lat="48.22537" lon="-3.96157">
        <ele>114.2</ele>
        <time>2020-06-08T11:23:16Z</time>
      </trkpt>
      <trkpt lat="48.22541" lon="-3.96164">
        <ele>113.9</ele>
        <time>2020-06-08T11:23:17Z</time>
      </trkpt>
      <trkpt lat="48.22544" lon="-3.96172">
        <ele>113.7</ele>
        <time>2020-06-08T11:23:18Z</time>
      </trkpt>
      <trkpt lat="48.22547" lon="-3.96181">
        <ele>113.4</ele>
        <time>2020-06-08T11:23:19Z</time>
      </trkpt>
      <trkpt lat="48.2255" lon="-3.9619">
        <ele>113.1</ele>
        <time>2020-06-08T11:23:20Z</time>
      </trkpt>
      <trkpt lat="48.22553" lon="-3.96198">
        <ele>112.8</ele>
        <time>2020-06-08T11:23:21Z</time>
      </trkpt>
      <trkpt lat="48.22557" lon="-3.96208">
        <ele>112.5</ele>
        <time>2020-06-08T11:23:22Z</time>
      </trkpt>
      <trkpt lat="48.2256" lon="-3.96218">
        <ele>112.3</ele>
        <time>2020-06-08T11:23:23Z</time>
      </trkpt>
      <trkpt lat="48.22564" lon="-3.96228">
        <ele>112</ele>
        <time>2020-06-08T11:23:24Z</time>
      </trkpt>
      <trkpt lat="48.22567" lon="-3.96238">
        <ele>111.8</ele>
        <time>2020-06-08T11:23:25Z</time>
      </trkpt>
      <trkpt lat="48.22571" lon="-3.96249">
        <ele>111.5</ele>
        <time>2020-06-08T11:23:26Z</time>
      </trkpt>
      <trkpt lat="48.22575" lon="-3.96258">
        <ele>111.2</ele>
        <time>2020-06-08T11:23:27Z</time>
      </trkpt>
      <trkpt lat="48.22579" lon="-3.96269">
        <ele>110.9</ele>
        <time>2020-06-08T11:23:28Z</time>
      </trkpt>
      <trkpt lat="48.22583" lon="-3.96279">
        <ele>110.7</ele>
        <time>2020-06-08T11:23:29Z</time>
      </trkpt>
      <trkpt lat="48.22587" lon="-3.96289">
        <ele>110.4</ele>
        <time>2020-06-08T11:23:30Z</time>
      </trkpt>
      <trkpt lat="48.2259" lon="-3.96299">
        <ele>110.2</ele>
        <time>2020-06-08T11:23:31Z</time>
      </trkpt>
      <trkpt lat="48.22593" lon="-3.96308">
        <ele>110</ele>
        <time>2020-06-08T11:23:32Z</time>
      </trkpt>
      <trkpt lat="48.22595" lon="-3.96317">
        <ele>109.8</ele>
        <time>2020-06-08T11:23:33Z</time>
      </trkpt>
      <trkpt lat="48.22598" lon="-3.96327">
        <ele>109.6</ele>
        <time>2020-06-08T11:23:34Z</time>
      </trkpt>
      <trkpt lat="48.226" lon="-3.96336">
        <ele>109.4</ele>
        <time>2020-06-08T11:23:35Z</time>
      </trkpt>
      <trkpt lat="48.22602" lon="-3.96346">
        <ele>109.2</ele>
        <time>2020-06-08T11:23:36Z</time>
      </trkpt>
      <trkpt lat="48.22604" lon="-3.96356">
        <ele>108.9</ele>
        <time>2020-06-08T11:23:37Z</time>
      </trkpt>
      <trkpt lat="48.22606" lon="-3.96365">
        <ele>108.7</ele>
        <time>2020-06-08T11:23:38Z</time>
      </trkpt>
      <trkpt lat="48.22608" lon="-3.96374">
        <ele>108.5</ele>
        <time>2020-06-08T11:23:39Z</time>
      </trkpt>
      <trkpt lat="48.22611" lon="-3.96384">
        <ele>108.3</ele>
        <time>2020-06-08T11:23:40Z</time>
      </trkpt>
      <trkpt lat="48.22613" lon="-3.96393">
        <ele>108.1</ele>
        <time>2020-06-08T11:23:41Z</time>
      </trkpt>
      <trkpt lat="48.22616" lon="-3.96402">
        <ele>107.8</ele>
        <time>2020-06-08T11:23:42Z</time>
      </trkpt>
      <trkpt lat="48.22618" lon="-3.96412">
        <ele>107.6</ele>
        <time>2020-06-08T11:23:43Z</time>
      </trkpt>
      <trkpt lat="48.22621" lon="-3.96421">
        <ele>107.3</ele>
        <time>2020-06-08T11:23:44Z</time>
      </trkpt>
      <trkpt lat="48.22623" lon="-3.9643">
        <ele>107.2</ele>
        <time>2020-06-08T11:23:45Z</time>
      </trkpt>
      <trkpt lat="48.22625" lon="-3.9644">
        <ele>107</ele>
        <time>2020-06-08T11:23:46Z</time>
      </trkpt>
      <trkpt lat="48.22627" lon="-3.96449">
        <ele>106.8</ele>
        <time>2020-06-08T11:23:47Z</time>
      </trkpt>
      <trkpt lat="48.22629" lon="-3.96459">
        <ele>106.6</ele>
        <time>2020-06-08T11:23:48Z</time>
      </trkpt>
      <trkpt lat="48.22632" lon="-3.96468">
        <ele>106.5</ele>
        <time>2020-06-08T11:23:49Z</time>
      </trkpt>
      <trkpt lat="48.22634" lon="-3.96477">
        <ele>106.4</ele>
        <time>2020-06-08T11:23:50Z</time>
      </trkpt>
      <trkpt lat="48.22636" lon="-3.96487">
        <ele>106.2</ele>
        <time>2020-06-08T11:23:51Z</time>
      </trkpt>
      <trkpt lat="48.22638" lon="-3.96496">
        <ele>106.1</ele>
        <time>2020-06-08T11:23:52Z</time>
      </trkpt>
      <trkpt lat="48.2264" lon="-3.96506">
        <ele>105.9</ele>
        <time>2020-06-08T11:23:53Z</time>
      </trkpt>
      <trkpt lat="48.22642" lon="-3.96516">
        <ele>105.8</ele>
        <time>2020-06-08T11:23:54Z</time>
      </trkpt>
      <trkpt lat="48.22643" lon="-3.96526">
        <ele>105.7</ele>
        <time>2020-06-08T11:23:55Z</time>
      </trkpt>
      <trkpt lat="48.22645" lon="-3.96536">
        <ele>105.5</ele>
        <time>2020-06-08T11:23:56Z</time>
      </trkpt>
      <trkpt lat="48.22647" lon="-3.96546">
        <ele>105.3</ele>
        <time>2020-06-08T11:23:57Z</time>
      </trkpt>
      <trkpt lat="48.22649" lon="-3.96556">
        <ele>105.2</ele>
        <time>2020-06-08T11:23:58Z</time>
      </trkpt>
      <trkpt lat="48.2265" lon="-3.96566">
        <ele>105</ele>
        <time>2020-06-08T11:23:59Z</time>
      </trkpt>
      <trkpt lat="48.22651" lon="-3.96577">
        <ele>105</ele>
        <time>2020-06-08T11:24:00Z</time>
      </trkpt>
      <trkpt lat="48.22653" lon="-3.96587">
        <ele>105</ele>
        <time>2020-06-08T11:24:01Z</time>
      </trkpt>
      <trkpt lat="48.22654" lon="-3.96597">
        <ele>105</ele>
        <time>2020-06-08T11:24:02Z</time>
      </trkpt>
      <trkpt lat="48.22655" lon="-3.96607">
        <ele>105.1</ele>
        <time>2020-06-08T11:24:03Z</time>
      </trkpt>
      <trkpt lat="48.22656" lon="-3.96617">
        <ele>105.2</ele>
        <time>2020-06-08T11:24:04Z</time>
      </trkpt>
      <trkpt lat="48.22656" lon="-3.96627">
        <ele>105.3</ele>
        <time>2020-06-08T11:24:05Z</time>
      </trkpt>
      <trkpt lat="48.22656" lon="-3.96637">
        <ele>105.4</ele>
        <time>2020-06-08T11:24:06Z</time>
      </trkpt>
      <trkpt lat="48.22656" lon="-3.96646">
        <ele>105.5</ele>
        <time>2020-06-08T11:24:07Z</time>
      </trkpt>
      <trkpt lat="48.22656" lon="-3.96656">
        <ele>105.8</ele>
        <time>2020-06-08T11:24:08Z</time>
      </trkpt>
      <trkpt lat="48.22657" lon="-3.96666">
        <ele>105.9</ele>
        <time>2020-06-08T11:24:09Z</time>
      </trkpt>
      <trkpt lat="48.22657" lon="-3.96675">
        <ele>106.2</ele>
        <time>2020-06-08T11:24:10Z</time>
      </trkpt>
      <trkpt lat="48.22657" lon="-3.96685">
        <ele>106.4</ele>
        <time>2020-06-08T11:24:11Z</time>
      </trkpt>
      <trkpt lat="48.22657" lon="-3.96694">
        <ele>106.7</ele>
        <time>2020-06-08T11:24:12Z</time>
      </trkpt>
      <trkpt lat="48.22658" lon="-3.96703">
        <ele>107</ele>
        <time>2020-06-08T11:24:13Z</time>
      </trkpt>
      <trkpt lat="48.22659" lon="-3.96712">
        <ele>107.2</ele>
        <time>2020-06-08T11:24:14Z</time>
      </trkpt>
      <trkpt lat="48.2266" lon="-3.9672">
        <ele>107.5</ele>
        <time>2020-06-08T11:24:15Z</time>
      </trkpt>
      <trkpt lat="48.2266" lon="-3.96728">
        <ele>107.7</ele>
        <time>2020-06-08T11:24:16Z</time>
      </trkpt>
      <trkpt lat="48.22661" lon="-3.96736">
        <ele>107.9</ele>
        <time>2020-06-08T11:24:17Z</time>
      </trkpt>
      <trkpt lat="48.22662" lon="-3.96745">
        <ele>108.2</ele>
        <time>2020-06-08T11:24:18Z</time>
      </trkpt>
      <trkpt lat="48.22662" lon="-3.96753">
        <ele>108.4</ele>
        <time>2020-06-08T11:24:19Z</time>
      </trkpt>
      <trkpt lat="48.22663" lon="-3.96761">
        <ele>108.6</ele>
        <time>2020-06-08T11:24:20Z</time>
      </trkpt>
      <trkpt lat="48.22663" lon="-3.96769">
        <ele>108.8</ele>
        <time>2020-06-08T11:24:21Z</time>
      </trkpt>
      <trkpt lat="48.22663" lon="-3.96777">
        <ele>109.1</ele>
        <time>2020-06-08T11:24:22Z</time>
      </trkpt>
      <trkpt lat="48.22663" lon="-3.96785">
        <ele>109.4</ele>
        <time>2020-06-08T11:24:23Z</time>
      </trkpt>
      <trkpt lat="48.22664" lon="-3.96792">
        <ele>109.6</ele>
        <time>2020-06-08T11:24:24Z</time>
      </trkpt>
      <trkpt lat="48.22664" lon="-3.96799">
        <ele>109.9</ele>
        <time>2020-06-08T11:24:25Z</time>
      </trkpt>
      <trkpt lat="48.22665" lon="-3.96805">
        <ele>110.1</ele>
        <time>2020-06-08T11:24:26Z</time>
      </trkpt>
      <trkpt lat="48.22666" lon="-3.96811">
        <ele>110.4</ele>
        <time>2020-06-08T11:24:27Z</time>
      </trkpt>
      <trkpt lat="48.22667" lon="-3.96819">
        <ele>110.7</ele>
        <time>2020-06-08T11:24:28Z</time>
      </trkpt>
      <trkpt lat="48.22666" lon="-3.96826">
        <ele>111</ele>
        <time>2020-06-08T11:24:29Z</time>
      </trkpt>
      <trkpt lat="48.22666" lon="-3.96834">
        <ele>111.4</ele>
        <time>2020-06-08T11:24:30Z</time>
      </trkpt>
      <trkpt lat="48.22666" lon="-3.9684">
        <ele>111.6</ele>
        <time>2020-06-08T11:24:31Z</time>
      </trkpt>
      <trkpt lat="48.22666" lon="-3.96848">
        <ele>112</ele>
        <time>2020-06-08T11:24:32Z</time>
      </trkpt>
      <trkpt lat="48.22667" lon="-3.96855">
        <ele>112.3</ele>
        <time>2020-06-08T11:24:33Z</time>
      </trkpt>
      <trkpt lat="48.22667" lon="-3.96861">
        <ele>112.6</ele>
        <time>2020-06-08T11:24:34Z</time>
      </trkpt>
      <trkpt lat="48.22667" lon="-3.96867">
        <ele>112.9</ele>
        <time>2020-06-08T11:24:35Z</time>
      </trkpt>
      <trkpt lat="48.22667" lon="-3.96873">
        <ele>113.2</ele>
        <time>2020-06-08T11:24:36Z</time>
      </trkpt>
      <trkpt lat="48.22667" lon="-3.96879">
        <ele>113.5</ele>
        <time>2020-06-08T11:24:37Z</time>
      </trkpt>
      <trkpt lat="48.22667" lon="-3.96885">
        <ele>113.8</ele>
        <time>2020-06-08T11:24:38Z</time>
      </trkpt>
      <trkpt lat="48.22668" lon="-3.96891">
        <ele>114</ele>
        <time>2020-06-08T11:24:39Z</time>
      </trkpt>
      <trkpt lat="48.22669" lon="-3.96897">
        <ele>114.3</ele>
        <time>2020-06-08T11:24:40Z</time>
      </trkpt>
      <trkpt lat="48.2267" lon="-3.96902">
        <ele>114.6</ele>
        <time>2020-06-08T11:24:41Z</time>
      </trkpt>
      <trkpt lat="48.22671" lon="-3.96907">
        <ele>114.8</ele>
        <time>2020-06-08T11:24:42Z</time>
      </trkpt>
      <trkpt lat="48.22672" lon="-3.96912">
        <ele>115.1</ele>
        <time>2020-06-08T11:24:43Z</time>
      </trkpt>
      <trkpt lat="48.22672" lon="-3.96914">
        <ele>115.2</ele>
        <time>2020-06-08T11:24:44Z</time>
      </trkpt>
      <trkpt lat="48.22671" lon="-3.9692">
        <ele>115.4</ele>
        <time>2020-06-08T11:24:45Z</time>
      </trkpt>
      <trkpt lat="48.2267" lon="-3.96921">
        <ele>115.5</ele>
        <time>2020-06-08T11:24:46Z</time>
      </trkpt>
      <trkpt lat="48.2267" lon="-3.96925">
        <ele>115.6</ele>
        <time>2020-06-08T11:24:47Z</time>
      </trkpt>
      <trkpt lat="48.22671" lon="-3.96927">
        <ele>115.7</ele>
        <time>2020-06-08T11:24:48Z</time>
      </trkpt>
      <trkpt lat="48.22671" lon="-3.9693">
        <ele>115.8</ele>
        <time>2020-06-08T11:24:49Z</time>
      </trkpt>
      <trkpt lat="48.22671" lon="-3.96931">
        <ele>115.9</ele>
        <time>2020-06-08T11:24:50Z</time>
      </trkpt>
      <trkpt lat="48.22671" lon="-3.96934">
        <ele>116.1</ele>
        <time>2020-06-08T11:24:51Z</time>
      </trkpt>
      <trkpt lat="48.22671" lon="-3.96935">
        <ele>116.1</ele>
        <time>2020-06-08T11:24:52Z</time>
      </trkpt>
      <trkpt lat="48.2267" lon="-3.96937">
        <ele>116.2</ele>
        <time>2020-06-08T11:24:53Z</time>
      </trkpt>
      <trkpt lat="48.22671" lon="-3.96939">
        <ele>116.3</ele>
        <time>2020-06-08T11:24:54Z</time>
      </trkpt>
      <trkpt lat="48.2267" lon="-3.96941">
        <ele>116.3</ele>
        <time>2020-06-08T11:24:55Z</time>
      </trkpt>
      <trkpt lat="48.2267" lon="-3.96943">
        <ele>116.5</ele>
        <time>2020-06-08T11:24:56Z</time>
      </trkpt>
      <trkpt lat="48.22669" lon="-3.96946">
        <ele>116.5</ele>
        <time>2020-06-08T11:24:57Z</time>
      </trkpt>
      <trkpt lat="48.22669" lon="-3.96948">
        <ele>116.5</ele>
        <time>2020-06-08T11:24:58Z</time>
      </trkpt>
      <trkpt lat="48.22668" lon="-3.96949">
        <ele>116.5</ele>
        <time>2020-06-08T11:24:59Z</time>
      </trkpt>
      <trkpt lat="48.22667" lon="-3.9695">
        <ele>116.5</ele>
        <time>2020-06-08T11:25:00Z</time>
      </trkpt>
      <trkpt lat="48.22665" lon="-3.96953">
        <ele>116.5</ele>
        <time>2020-06-08T11:25:01Z</time>
      </trkpt>
      <trkpt lat="48.22662" lon="-3.96956">
        <ele>116.5</ele>
        <time>2020-06-08T11:25:02Z</time>
      </trkpt>
      <trkpt lat="48.22661" lon="-3.96957">
        <ele>116.5</ele>
        <time>2020-06-08T11:25:03Z</time>
      </trkpt>
      <trkpt lat="48.22659" lon="-3.96959">
        <ele>116.5</ele>
        <time>2020-06-08T11:25:04Z</time>
      </trkpt>
      <trkpt lat="48.22657" lon="-3.96964">
        <ele>116.5</ele>
        <time>2020-06-08T11:25:05Z</time>
      </trkpt>
      <trkpt lat="48.22657" lon="-3.96966">
        <ele>116.7</ele>
        <time>2020-06-08T11:25:06Z</time>
      </trkpt>
      <trkpt lat="48.22656" lon="-3.96971">
        <ele>116.7</ele>
        <time>2020-06-08T11:25:07Z</time>
      </trkpt>
      <trkpt lat="48.22656" lon="-3.96976">
        <ele>116.8</ele>
        <time>2020-06-08T11:25:08Z</time>
      </trkpt>
      <trkpt lat="48.22656" lon="-3.96982">
        <ele>116.8</ele>
        <time>2020-06-08T11:25:09Z</time>
      </trkpt>
      <trkpt lat="48.22655" lon="-3.96983">
        <ele>116.8</ele>
        <time>2020-06-08T11:25:10Z</time>
      </trkpt>
      <trkpt lat="48.22656" lon="-3.96986">
        <ele>116.8</ele>
        <time>2020-06-08T11:25:11Z</time>
      </trkpt>
      <trkpt lat="48.22655" lon="-3.96989">
        <ele>116.9</ele>
        <time>2020-06-08T11:25:12Z</time>
      </trkpt>
      <trkpt lat="48.22655" lon="-3.96992">
        <ele>116.9</ele>
        <time>2020-06-08T11:25:13Z</time>
      </trkpt>
      <trkpt lat="48.22653" lon="-3.96993">
        <ele>116.9</ele>
        <time>2020-06-08T11:25:14Z</time>
      </trkpt>
      <trkpt lat="48.22651" lon="-3.96996">
        <ele>116.9</ele>
        <time>2020-06-08T11:25:15Z</time>
      </trkpt>
      <trkpt lat="48.2265" lon="-3.96997">
        <ele>116.9</ele>
        <time>2020-06-08T11:25:16Z</time>
      </trkpt>
      <trkpt lat="48.22647" lon="-3.96999">
        <ele>116.9</ele>
        <time>2020-06-08T11:25:17Z</time>
      </trkpt>
      <trkpt lat="48.22646" lon="-3.97">
        <ele>116.9</ele>
        <time>2020-06-08T11:25:18Z</time>
      </trkpt>
      <trkpt lat="48.22642" lon="-3.97003">
        <ele>116.9</ele>
        <time>2020-06-08T11:25:19Z</time>
      </trkpt>
      <trkpt lat="48.22641" lon="-3.97004">
        <ele>116.8</ele>
        <time>2020-06-08T11:25:20Z</time>
      </trkpt>
      <trkpt lat="48.22639" lon="-3.97006">
        <ele>116.8</ele>
        <time>2020-06-08T11:25:21Z</time>
      </trkpt>
      <trkpt lat="48.22636" lon="-3.97009">
        <ele>116.8</ele>
        <time>2020-06-08T11:25:22Z</time>
      </trkpt>
      <trkpt lat="48.22633" lon="-3.97011">
        <ele>116.8</ele>
        <time>2020-06-08T11:25:23Z</time>
      </trkpt>
      <trkpt lat="48.22632" lon="-3.97011">
        <ele>116.8</ele>
        <time>2020-06-08T11:25:24Z</time>
      </trkpt>
      <trkpt lat="48.2263" lon="-3.97011">
        <ele>116.7</ele>
        <time>2020-06-08T11:25:25Z</time>
      </trkpt>
      <trkpt lat="48.22628" lon="-3.97011">
        <ele>116.7</ele>
        <time>2020-06-08T11:25:26Z</time>
      </trkpt>
      <trkpt lat="48.22625" lon="-3.97012">
        <ele>116.6</ele>
        <time>2020-06-08T11:25:27Z</time>
      </trkpt>
      <trkpt lat="48.22623" lon="-3.97014">
        <ele>116.6</ele>
        <time>2020-06-08T11:25:28Z</time>
      </trkpt>
      <trkpt lat="48.22619" lon="-3.97015">
        <ele>116.5</ele>
        <time>2020-06-08T11:25:29Z</time>
      </trkpt>
      <trkpt lat="48.22615" lon="-3.97016">
        <ele>116.4</ele>
        <time>2020-06-08T11:25:30Z</time>
      </trkpt>
      <trkpt lat="48.22611" lon="-3.97018">
        <ele>116.3</ele>
        <time>2020-06-08T11:25:31Z</time>
      </trkpt>
      <trkpt lat="48.22608" lon="-3.97019">
        <ele>116.2</ele>
        <time>2020-06-08T11:25:32Z</time>
      </trkpt>
      <trkpt lat="48.22607" lon="-3.97019">
        <ele>116.2</ele>
        <time>2020-06-08T11:25:33Z</time>
      </trkpt>
      <trkpt lat="48.22604" lon="-3.97019">
        <ele>116.1</ele>
        <time>2020-06-08T11:25:34Z</time>
      </trkpt>
      <trkpt lat="48.22601" lon="-3.97019">
        <ele>115.9</ele>
        <time>2020-06-08T11:25:35Z</time>
      </trkpt>
      <trkpt lat="48.22598" lon="-3.97019">
        <ele>115.8</ele>
        <time>2020-06-08T11:25:36Z</time>
      </trkpt>
      <trkpt lat="48.22594" lon="-3.97019">
        <ele>115.8</ele>
        <time>2020-06-08T11:25:37Z</time>
      </trkpt>
      <trkpt lat="48.22592" lon="-3.97015">
        <ele>115.7</ele>
        <time>2020-06-08T11:25:38Z</time>
      </trkpt>
      <trkpt lat="48.22591" lon="-3.9701">
        <ele>115.4</ele>
        <time>2020-06-08T11:25:39Z</time>
      </trkpt>
      <trkpt lat="48.22591" lon="-3.97009">
        <ele>115.4</ele>
        <time>2020-06-08T11:25:40Z</time>
      </trkpt>
      <trkpt lat="48.22588" lon="-3.97006">
        <ele>115.4</ele>
        <time>2020-06-08T11:25:41Z</time>
      </trkpt>
      <trkpt lat="48.22588" lon="-3.97005">
        <ele>115.4</ele>
        <time>2020-06-08T11:25:42Z</time>
      </trkpt>
      <trkpt lat="48.22586" lon="-3.97001">
        <ele>115.4</ele>
        <time>2020-06-08T11:25:43Z</time>
      </trkpt>
      <trkpt lat="48.22585" lon="-3.96999">
        <ele>116.1</ele>
        <time>2020-06-08T11:25:44Z</time>
      </trkpt>
      <trkpt lat="48.22583" lon="-3.96996">
        <ele>116.4</ele>
        <time>2020-06-08T11:25:45Z</time>
      </trkpt>
      <trkpt lat="48.22582" lon="-3.96994">
        <ele>116.4</ele>
        <time>2020-06-08T11:25:46Z</time>
      </trkpt>
      <trkpt lat="48.2258" lon="-3.96991">
        <ele>116.4</ele>
        <time>2020-06-08T11:25:47Z</time>
      </trkpt>
      <trkpt lat="48.22578" lon="-3.96988">
        <ele>116.4</ele>
        <time>2020-06-08T11:25:48Z</time>
      </trkpt>
      <trkpt lat="48.22576" lon="-3.96983">
        <ele>116.4</ele>
        <time>2020-06-08T11:25:49Z</time>
      </trkpt>
      <trkpt lat="48.22575" lon="-3.96982">
        <ele>116.4</ele>
        <time>2020-06-08T11:25:50Z</time>
      </trkpt>
      <trkpt lat="48.22573" lon="-3.96977">
        <ele>116.4</ele>
        <time>2020-06-08T11:25:51Z</time>
      </trkpt>
      <trkpt lat="48.22572" lon="-3.96975">
        <ele>116.4</ele>
        <time>2020-06-08T11:25:52Z</time>
      </trkpt>
      <trkpt lat="48.22569" lon="-3.96973">
        <ele>116.5</ele>
        <time>2020-06-08T11:25:53Z</time>
      </trkpt>
      <trkpt lat="48.22568" lon="-3.96972">
        <ele>116.5</ele>
        <time>2020-06-08T11:25:54Z</time>
      </trkpt>
      <trkpt lat="48.22566" lon="-3.96969">
        <ele>116.5</ele>
        <time>2020-06-08T11:25:55Z</time>
      </trkpt>
      <trkpt lat="48.22564" lon="-3.96966">
        <ele>116.5</ele>
        <time>2020-06-08T11:25:56Z</time>
      </trkpt>
      <trkpt lat="48.22561" lon="-3.96965">
        <ele>116.5</ele>
        <time>2020-06-08T11:25:57Z</time>
      </trkpt>
      <trkpt lat="48.22559" lon="-3.96962">
        <ele>116.5</ele>
        <time>2020-06-08T11:25:58Z</time>
      </trkpt>
      <trkpt lat="48.22556" lon="-3.96959">
        <ele>116.4</ele>
        <time>2020-06-08T11:25:59Z</time>
      </trkpt>
      <trkpt lat="48.22553" lon="-3.96957">
        <ele>116.4</ele>
        <time>2020-06-08T11:26:00Z</time>
      </trkpt>
      <trkpt lat="48.22551" lon="-3.96954">
        <ele>116.3</ele>
        <time>2020-06-08T11:26:01Z</time>
      </trkpt>
      <trkpt lat="48.22549" lon="-3.9695">
        <ele>116.2</ele>
        <time>2020-06-08T11:26:02Z</time>
      </trkpt>
      <trkpt lat="48.22547" lon="-3.96947">
        <ele>115.9</ele>
        <time>2020-06-08T11:26:03Z</time>
      </trkpt>
      <trkpt lat="48.22545" lon="-3.96942">
        <ele>115.5</ele>
        <time>2020-06-08T11:26:04Z</time>
      </trkpt>
      <trkpt lat="48.22545" lon="-3.9694">
        <ele>115.4</ele>
        <time>2020-06-08T11:26:05Z</time>
      </trkpt>
      <trkpt lat="48.22543" lon="-3.96935">
        <ele>115</ele>
        <time>2020-06-08T11:26:06Z</time>
      </trkpt>
      <trkpt lat="48.22543" lon="-3.96933">
        <ele>114.8</ele>
        <time>2020-06-08T11:26:07Z</time>
      </trkpt>
      <trkpt lat="48.22542" lon="-3.96928">
        <ele>114.5</ele>
        <time>2020-06-08T11:26:08Z</time>
      </trkpt>
      <trkpt lat="48.22543" lon="-3.96924">
        <ele>114.1</ele>
        <time>2020-06-08T11:26:09Z</time>
      </trkpt>
      <trkpt lat="48.22543" lon="-3.96922">
        <ele>113.4</ele>
        <time>2020-06-08T11:26:10Z</time>
      </trkpt>
      <trkpt lat="48.22545" lon="-3.96919">
        <ele>113.5</ele>
        <time>2020-06-08T11:26:11Z</time>
      </trkpt>
      <trkpt lat="48.22545" lon="-3.96918">
        <ele>113.5</ele>
        <time>2020-06-08T11:26:12Z</time>
      </trkpt>
      <trkpt lat="48.22546" lon="-3.96915">
        <ele>113.5</ele>
        <time>2020-06-08T11:26:13Z</time>
      </trkpt>
      <trkpt lat="48.22546" lon="-3.96914">
        <ele>113.5</ele>
        <time>2020-06-08T11:26:14Z</time>
      </trkpt>
      <trkpt lat="48.22546" lon="-3.96913">
        <ele>113.5</ele>
        <time>2020-06-08T11:26:15Z</time>
      </trkpt>
      <trkpt lat="48.22545" lon="-3.96912">
        <ele>113.5</ele>
        <time>2020-06-08T11:26:16Z</time>
      </trkpt>
      <trkpt lat="48.22543" lon="-3.96912">
        <ele>113.5</ele>
        <time>2020-06-08T11:26:17Z</time>
      </trkpt>
      <trkpt lat="48.22542" lon="-3.96912">
        <ele>113.5</ele>
        <time>2020-06-08T11:26:18Z</time>
      </trkpt>
      <trkpt lat="48.22542" lon="-3.96913">
        <ele>113.5</ele>
        <time>2020-06-08T11:26:19Z</time>
      </trkpt>
      <trkpt lat="48.22543" lon="-3.96912">
        <ele>113.5</ele>
        <time>2020-06-08T11:26:20Z</time>
      </trkpt>
      <trkpt lat="48.22543" lon="-3.96912">
        <ele>113.5</ele>
        <time>2020-06-08T11:26:21Z</time>
      </trkpt>
      <trkpt lat="48.22542" lon="-3.96912">
        <ele>113.5</ele>
        <time>2020-06-08T11:26:22Z</time>
      </trkpt>
      <trkpt lat="48.22542" lon="-3.96911">
        <ele>113.5</ele>
        <time>2020-06-08T11:26:23Z</time>
      </trkpt>
      <trkpt lat="48.22541" lon="-3.96911">
        <ele>113.5</ele>
        <time>2020-06-08T11:26:24Z</time>
      </trkpt>
      <trkpt lat="48.22541" lon="-3.96915">
        <ele>113.5</ele>
        <time>2020-06-08T11:26:25Z</time>
      </trkpt>
      <trkpt lat="48.22541" lon="-3.96916">
        <ele>113.5</ele>
        <time>2020-06-08T11:26:26Z</time>
      </trkpt>
      <trkpt lat="48.22541" lon="-3.96915">
        <ele>113.5</ele>
        <time>2020-06-08T11:26:27Z</time>
      </trkpt>
      <trkpt lat="48.2254" lon="-3.96919">
        <ele>113.5</ele>
        <time>2020-06-08T11:26:28Z</time>
      </trkpt>
      <trkpt lat="48.2254" lon="-3.9692">
        <ele>113.5</ele>
        <time>2020-06-08T11:26:29Z</time>
      </trkpt>
      <trkpt lat="48.22539" lon="-3.96922">
        <ele>113.5</ele>
        <time>2020-06-08T11:26:30Z</time>
      </trkpt>
      <trkpt lat="48.22538" lon="-3.96928">
        <ele>113.4</ele>
        <time>2020-06-08T11:26:31Z</time>
      </trkpt>
      <trkpt lat="48.22537" lon="-3.9693">
        <ele>113.4</ele>
        <time>2020-06-08T11:26:32Z</time>
      </trkpt>
      <trkpt lat="48.22535" lon="-3.96936">
        <ele>113.4</ele>
        <time>2020-06-08T11:26:33Z</time>
      </trkpt>
      <trkpt lat="48.22534" lon="-3.96942">
        <ele>113.3</ele>
        <time>2020-06-08T11:26:34Z</time>
      </trkpt>
      <trkpt lat="48.22535" lon="-3.96948">
        <ele>113.3</ele>
        <time>2020-06-08T11:26:35Z</time>
      </trkpt>
      <trkpt lat="48.22536" lon="-3.96954">
        <ele>113.2</ele>
        <time>2020-06-08T11:26:36Z</time>
      </trkpt>
      <trkpt lat="48.22536" lon="-3.96961">
        <ele>113.2</ele>
        <time>2020-06-08T11:26:37Z</time>
      </trkpt>
      <trkpt lat="48.22535" lon="-3.96968">
        <ele>113.2</ele>
        <time>2020-06-08T11:26:38Z</time>
      </trkpt>
      <trkpt lat="48.22534" lon="-3.96975">
        <ele>113.1</ele>
        <time>2020-06-08T11:26:39Z</time>
      </trkpt>
      <trkpt lat="48.22534" lon="-3.96982">
        <ele>113.1</ele>
        <time>2020-06-08T11:26:40Z</time>
      </trkpt>
      <trkpt lat="48.22535" lon="-3.96989">
        <ele>113.1</ele>
        <time>2020-06-08T11:26:41Z</time>
      </trkpt>
      <trkpt lat="48.22536" lon="-3.96996">
        <ele>113.1</ele>
        <time>2020-06-08T11:26:42Z</time>
      </trkpt>
      <trkpt lat="48.22536" lon="-3.97003">
        <ele>113.1</ele>
        <time>2020-06-08T11:26:43Z</time>
      </trkpt>
      <trkpt lat="48.22536" lon="-3.9701">
        <ele>113.1</ele>
        <time>2020-06-08T11:26:44Z</time>
      </trkpt>
      <trkpt lat="48.22536" lon="-3.97016">
        <ele>113.1</ele>
        <time>2020-06-08T11:26:45Z</time>
      </trkpt>
      <trkpt lat="48.22535" lon="-3.97021">
        <ele>113.1</ele>
        <time>2020-06-08T11:26:46Z</time>
      </trkpt>
      <trkpt lat="48.22534" lon="-3.97026">
        <ele>113.1</ele>
        <time>2020-06-08T11:26:47Z</time>
      </trkpt>
      <trkpt lat="48.22534" lon="-3.97031">
        <ele>113.1</ele>
        <time>2020-06-08T11:26:48Z</time>
      </trkpt>
      <trkpt lat="48.22533" lon="-3.97033">
        <ele>113.1</ele>
        <time>2020-06-08T11:26:49Z</time>
      </trkpt>
      <trkpt lat="48.22532" lon="-3.97034">
        <ele>113.1</ele>
        <time>2020-06-08T11:26:50Z</time>
      </trkpt>
      <trkpt lat="48.22532" lon="-3.97034">
        <ele>113.1</ele>
        <time>2020-06-08T11:26:51Z</time>
      </trkpt>
      <trkpt lat="48.22532" lon="-3.97034">
        <ele>113.1</ele>
        <time>2020-06-08T11:26:52Z</time>
      </trkpt>
      <trkpt lat="48.22533" lon="-3.97034">
        <ele>113.1</ele>
        <time>2020-06-08T11:26:53Z</time>
      </trkpt>
      <trkpt lat="48.22534" lon="-3.97035">
        <ele>113.1</ele>
        <time>2020-06-08T11:26:54Z</time>
      </trkpt>
      <trkpt lat="48.22534" lon="-3.97035">
        <ele>113.1</ele>
        <time>2020-06-08T11:26:55Z</time>
      </trkpt>
      <trkpt lat="48.22533" lon="-3.97034">
        <ele>113.1</ele>
        <time>2020-06-08T11:26:56Z</time>
      </trkpt>
      <trkpt lat="48.22533" lon="-3.97034">
        <ele>113.1</ele>
        <time>2020-06-08T11:26:57Z</time>
      </trkpt>
      <trkpt lat="48.22533" lon="-3.97035">
        <ele>113.1</ele>
        <time>2020-06-08T11:26:58Z</time>
      </trkpt>
      <trkpt lat="48.22533" lon="-3.97035">
        <ele>113.1</ele>
        <time>2020-06-08T11:26:59Z</time>
      </trkpt>
      <trkpt lat="48.22533" lon="-3.97036">
        <ele>113.1</ele>
        <time>2020-06-08T11:27:00Z</time>
      </trkpt>
      <trkpt lat="48.22532" lon="-3.97037">
        <ele>113.1</ele>
        <time>2020-06-08T11:27:01Z</time>
      </trkpt>
      <trkpt lat="48.22532" lon="-3.97037">
        <ele>113.1</ele>
        <time>2020-06-08T11:27:02Z</time>
      </trkpt>
      <trkpt lat="48.22532" lon="-3.97036">
        <ele>113.1</ele>
        <time>2020-06-08T11:27:03Z</time>
      </trkpt>
      <trkpt lat="48.22532" lon="-3.97036">
        <ele>113.1</ele>
        <time>2020-06-08T11:27:04Z</time>
      </trkpt>
      <trkpt lat="48.22532" lon="-3.97036">
        <ele>113.1</ele>
        <time>2020-06-08T11:27:05Z</time>
      </trkpt>
      <trkpt lat="48.22532" lon="-3.97036">
        <ele>113.1</ele>
        <time>2020-06-08T11:27:06Z</time>
      </trkpt>
      <trkpt lat="48.22532" lon="-3.97035">
        <ele>113.1</ele>
        <time>2020-06-08T11:27:07Z</time>
      </trkpt>
      <trkpt lat="48.22532" lon="-3.97035">
        <ele>113.1</ele>
        <time>2020-06-08T11:27:08Z</time>
      </trkpt>
      <trkpt lat="48.22532" lon="-3.97035">
        <ele>113.1</ele>
        <time>2020-06-08T11:27:09Z</time>
      </trkpt>
      <trkpt lat="48.22532" lon="-3.97035">
        <ele>113.1</ele>
        <time>2020-06-08T11:27:10Z</time>
      </trkpt>
      <trkpt lat="48.22532" lon="-3.97035">
        <ele>113.1</ele>
        <time>2020-06-08T11:27:11Z</time>
      </trkpt>
      <trkpt lat="48.22532" lon="-3.97034">
        <ele>113.1</ele>
        <time>2020-06-08T11:27:20Z</time>
      </trkpt>
      <trkpt lat="48.22532" lon="-3.97034">
        <ele>113.1</ele>
        <time>2020-06-08T11:27:21Z</time>
      </trkpt>
      <trkpt lat="48.22532" lon="-3.97034">
        <ele>113.1</ele>
        <time>2020-06-08T11:27:22Z</time>
      </trkpt>
      <trkpt lat="48.22532" lon="-3.97034">
        <ele>113.1</ele>
        <time>2020-06-08T11:27:23Z</time>
      </trkpt>
      <trkpt lat="48.22532" lon="-3.97034">
        <ele>113.1</ele>
        <time>2020-06-08T11:27:24Z</time>
      </trkpt>
      <trkpt lat="48.22532" lon="-3.97033">
        <ele>113.1</ele>
        <time>2020-06-08T11:27:25Z</time>
      </trkpt>
      <trkpt lat="48.22532" lon="-3.97033">
        <ele>113.1</ele>
        <time>2020-06-08T11:27:26Z</time>
      </trkpt>
      <trkpt lat="48.22532" lon="-3.97033">
        <ele>113.1</ele>
        <time>2020-06-08T11:27:27Z</time>
      </trkpt>
      <trkpt lat="48.22532" lon="-3.97033">
        <ele>113.1</ele>
        <time>2020-06-08T11:27:28Z</time>
      </trkpt>
      <trkpt lat="48.2253" lon="-3.97027">
        <ele>113.1</ele>
        <time>2020-06-08T11:27:29Z</time>
      </trkpt>
      <trkpt lat="48.22529" lon="-3.97022">
        <ele>113.1</ele>
        <time>2020-06-08T11:27:30Z</time>
      </trkpt>
      <trkpt lat="48.2253" lon="-3.97016">
        <ele>113.1</ele>
        <time>2020-06-08T11:27:31Z</time>
      </trkpt>
      <trkpt lat="48.2253" lon="-3.9701">
        <ele>113.1</ele>
        <time>2020-06-08T11:27:32Z</time>
      </trkpt>
      <trkpt lat="48.22531" lon="-3.97004">
        <ele>113.2</ele>
        <time>2020-06-08T11:27:33Z</time>
      </trkpt>
      <trkpt lat="48.22531" lon="-3.96999">
        <ele>113.2</ele>
        <time>2020-06-08T11:27:34Z</time>
      </trkpt>
      <trkpt lat="48.22531" lon="-3.96993">
        <ele>113.2</ele>
        <time>2020-06-08T11:27:35Z</time>
      </trkpt>
      <trkpt lat="48.22532" lon="-3.96987">
        <ele>113.3</ele>
        <time>2020-06-08T11:27:36Z</time>
      </trkpt>
      <trkpt lat="48.22533" lon="-3.96981">
        <ele>113.3</ele>
        <time>2020-06-08T11:27:37Z</time>
      </trkpt>
      <trkpt lat="48.22533" lon="-3.96974">
        <ele>113.4</ele>
        <time>2020-06-08T11:27:38Z</time>
      </trkpt>
      <trkpt lat="48.22533" lon="-3.96967">
        <ele>113.4</ele>
        <time>2020-06-08T11:27:39Z</time>
      </trkpt>
      <trkpt lat="48.22534" lon="-3.96962">
        <ele>113.4</ele>
        <time>2020-06-08T11:27:40Z</time>
      </trkpt>
      <trkpt lat="48.22534" lon="-3.96956">
        <ele>113.5</ele>
        <time>2020-06-08T11:27:41Z</time>
      </trkpt>
      <trkpt lat="48.22533" lon="-3.96951">
        <ele>113.5</ele>
        <time>2020-06-08T11:27:42Z</time>
      </trkpt>
      <trkpt lat="48.22534" lon="-3.96945">
        <ele>113.5</ele>
        <time>2020-06-08T11:27:43Z</time>
      </trkpt>
      <trkpt lat="48.22534" lon="-3.9694">
        <ele>113.5</ele>
        <time>2020-06-08T11:27:44Z</time>
      </trkpt>
      <trkpt lat="48.22535" lon="-3.96935">
        <ele>113.5</ele>
        <time>2020-06-08T11:27:45Z</time>
      </trkpt>
      <trkpt lat="48.22535" lon="-3.9693">
        <ele>113.5</ele>
        <time>2020-06-08T11:27:46Z</time>
      </trkpt>
      <trkpt lat="48.22538" lon="-3.96926">
        <ele>113.5</ele>
        <time>2020-06-08T11:27:47Z</time>
      </trkpt>
      <trkpt lat="48.22539" lon="-3.96925">
        <ele>113.7</ele>
        <time>2020-06-08T11:27:48Z</time>
      </trkpt>
      <trkpt lat="48.2254" lon="-3.96922">
        <ele>113.7</ele>
        <time>2020-06-08T11:27:49Z</time>
      </trkpt>
      <trkpt lat="48.2254" lon="-3.96922">
        <ele>113.7</ele>
        <time>2020-06-08T11:27:50Z</time>
      </trkpt>
      <trkpt lat="48.2254" lon="-3.96922">
        <ele>113.7</ele>
        <time>2020-06-08T11:27:51Z</time>
      </trkpt>
      <trkpt lat="48.2254" lon="-3.96923">
        <ele>113.7</ele>
        <time>2020-06-08T11:27:52Z</time>
      </trkpt>
      <trkpt lat="48.22541" lon="-3.96923">
        <ele>113.7</ele>
        <time>2020-06-08T11:27:53Z</time>
      </trkpt>
      <trkpt lat="48.22542" lon="-3.96923">
        <ele>113.7</ele>
        <time>2020-06-08T11:27:54Z</time>
      </trkpt>
      <trkpt lat="48.22543" lon="-3.96922">
        <ele>113.8</ele>
        <time>2020-06-08T11:27:55Z</time>
      </trkpt>
      <trkpt lat="48.22543" lon="-3.96922">
        <ele>113.8</ele>
        <time>2020-06-08T11:27:56Z</time>
      </trkpt>
      <trkpt lat="48.22543" lon="-3.96921">
        <ele>113.8</ele>
        <time>2020-06-08T11:27:57Z</time>
      </trkpt>
      <trkpt lat="48.22543" lon="-3.9692">
        <ele>113.8</ele>
        <time>2020-06-08T11:27:58Z</time>
      </trkpt>
      <trkpt lat="48.22543" lon="-3.96919">
        <ele>113.8</ele>
        <time>2020-06-08T11:27:59Z</time>
      </trkpt>
      <trkpt lat="48.22543" lon="-3.96918">
        <ele>113.8</ele>
        <time>2020-06-08T11:28:00Z</time>
      </trkpt>
      <trkpt lat="48.22543" lon="-3.96917">
        <ele>113.8</ele>
        <time>2020-06-08T11:28:01Z</time>
      </trkpt>
      <trkpt lat="48.22543" lon="-3.96916">
        <ele>113.8</ele>
        <time>2020-06-08T11:28:02Z</time>
      </trkpt>
      <trkpt lat="48.22543" lon="-3.96916">
        <ele>113.8</ele>
        <time>2020-06-08T11:28:03Z</time>
      </trkpt>
      <trkpt lat="48.22543" lon="-3.96915">
        <ele>113.8</ele>
        <time>2020-06-08T11:28:04Z</time>
      </trkpt>
      <trkpt lat="48.22543" lon="-3.96914">
        <ele>113.8</ele>
        <time>2020-06-08T11:28:05Z</time>
      </trkpt>
      <trkpt lat="48.22543" lon="-3.96913">
        <ele>113.9</ele>
        <time>2020-06-08T11:28:06Z</time>
      </trkpt>
      <trkpt lat="48.22543" lon="-3.96912">
        <ele>113.9</ele>
        <time>2020-06-08T11:28:07Z</time>
      </trkpt>
      <trkpt lat="48.22543" lon="-3.96911">
        <ele>113.9</ele>
        <time>2020-06-08T11:28:08Z</time>
      </trkpt>
      <trkpt lat="48.22543" lon="-3.9691">
        <ele>113.9</ele>
        <time>2020-06-08T11:28:09Z</time>
      </trkpt>
      <trkpt lat="48.22544" lon="-3.96909">
        <ele>113.9</ele>
        <time>2020-06-08T11:28:10Z</time>
      </trkpt>
      <trkpt lat="48.22544" lon="-3.96909">
        <ele>113.9</ele>
        <time>2020-06-08T11:28:11Z</time>
      </trkpt>
      <trkpt lat="48.22544" lon="-3.96908">
        <ele>113.9</ele>
        <time>2020-06-08T11:28:12Z</time>
      </trkpt>
      <trkpt lat="48.22544" lon="-3.96907">
        <ele>113.9</ele>
        <time>2020-06-08T11:29:56Z</time>
      </trkpt>
      <trkpt lat="48.22544" lon="-3.96906">
        <ele>113.9</ele>
        <time>2020-06-08T11:29:57Z</time>
      </trkpt>
      <trkpt lat="48.22544" lon="-3.96905">
        <ele>113.9</ele>
        <time>2020-06-08T11:29:58Z</time>
      </trkpt>
      <trkpt lat="48.22545" lon="-3.96903">
        <ele>113.9</ele>
        <time>2020-06-08T11:29:59Z</time>
      </trkpt>
      <trkpt lat="48.22545" lon="-3.96902">
        <ele>114</ele>
        <time>2020-06-08T11:30:00Z</time>
      </trkpt>
      <trkpt lat="48.22545" lon="-3.969">
        <ele>114</ele>
        <time>2020-06-08T11:30:01Z</time>
      </trkpt>
      <trkpt lat="48.22546" lon="-3.969">
        <ele>114</ele>
        <time>2020-06-08T11:30:02Z</time>
      </trkpt>
      <trkpt lat="48.22547" lon="-3.96899">
        <ele>114</ele>
        <time>2020-06-08T11:30:03Z</time>
      </trkpt>
      <trkpt lat="48.22548" lon="-3.96899">
        <ele>114</ele>
        <time>2020-06-08T11:30:04Z</time>
      </trkpt>
      <trkpt lat="48.2255" lon="-3.96898">
        <ele>114</ele>
        <time>2020-06-08T11:30:05Z</time>
      </trkpt>
      <trkpt lat="48.22551" lon="-3.96899">
        <ele>114.1</ele>
        <time>2020-06-08T11:30:06Z</time>
      </trkpt>
      <trkpt lat="48.22552" lon="-3.96898">
        <ele>114.1</ele>
        <time>2020-06-08T11:30:07Z</time>
      </trkpt>
      <trkpt lat="48.22553" lon="-3.96898">
        <ele>114.1</ele>
        <time>2020-06-08T11:30:08Z</time>
      </trkpt>
      <trkpt lat="48.22553" lon="-3.96898">
        <ele>114.1</ele>
        <time>2020-06-08T11:30:09Z</time>
      </trkpt>
      <trkpt lat="48.22554" lon="-3.96899">
        <ele>114.1</ele>
        <time>2020-06-08T11:30:10Z</time>
      </trkpt>
      <trkpt lat="48.22554" lon="-3.96899">
        <ele>114.1</ele>
        <time>2020-06-08T11:30:11Z</time>
      </trkpt>
      <trkpt lat="48.22555" lon="-3.969">
        <ele>114.1</ele>
        <time>2020-06-08T11:30:12Z</time>
      </trkpt>
      <trkpt lat="48.22555" lon="-3.969">
        <ele>114.1</ele>
        <time>2020-06-08T11:30:13Z</time>
      </trkpt>
      <trkpt lat="48.22555" lon="-3.969">
        <ele>114.1</ele>
        <time>2020-06-08T11:30:14Z</time>
      </trkpt>
      <trkpt lat="48.22556" lon="-3.96901">
        <ele>114.1</ele>
        <time>2020-06-08T11:30:15Z</time>
      </trkpt>
      <trkpt lat="48.22556" lon="-3.96901">
        <ele>114.1</ele>
        <time>2020-06-08T11:30:16Z</time>
      </trkpt>
      <trkpt lat="48.22556" lon="-3.96901">
        <ele>114.1</ele>
        <time>2020-06-08T11:30:17Z</time>
      </trkpt>
      <trkpt lat="48.22556" lon="-3.96901">
        <ele>114.1</ele>
        <time>2020-06-08T11:30:18Z</time>
      </trkpt>
      <trkpt lat="48.22556" lon="-3.96901">
        <ele>114.1</ele>
        <time>2020-06-08T11:30:19Z</time>
      </trkpt>
      <trkpt lat="48.22556" lon="-3.96901">
        <ele>114.1</ele>
        <time>2020-06-08T11:30:20Z</time>
      </trkpt>
      <trkpt lat="48.22556" lon="-3.96901">
        <ele>114.1</ele>
        <time>2020-06-08T11:30:21Z</time>
      </trkpt>
      <trkpt lat="48.22556" lon="-3.96901">
        <ele>114.1</ele>
        <time>2020-06-08T11:30:22Z</time>
      </trkpt>
      <trkpt lat="48.22556" lon="-3.96901">
        <ele>114.1</ele>
        <time>2020-06-08T11:30:23Z</time>
      </trkpt>
      <trkpt lat="48.22556" lon="-3.96894">
        <ele>114.2</ele>
        <time>2020-06-08T11:30:57Z</time>
      </trkpt>
      <trkpt lat="48.22557" lon="-3.96891">
        <ele>114.2</ele>
        <time>2020-06-08T11:30:58Z</time>
      </trkpt>
      <trkpt lat="48.22557" lon="-3.96891">
        <ele>114.2</ele>
        <time>2020-06-08T11:30:59Z</time>
      </trkpt>
      <trkpt lat="48.22557" lon="-3.96891">
        <ele>114.2</ele>
        <time>2020-06-08T11:31:00Z</time>
      </trkpt>
      <trkpt lat="48.22557" lon="-3.96891">
        <ele>114.2</ele>
        <time>2020-06-08T11:31:01Z</time>
      </trkpt>
      <trkpt lat="48.22558" lon="-3.9689">
        <ele>114.2</ele>
        <time>2020-06-08T11:31:02Z</time>
      </trkpt>
      <trkpt lat="48.22557" lon="-3.9689">
        <ele>114.2</ele>
        <time>2020-06-08T11:31:03Z</time>
      </trkpt>
      <trkpt lat="48.22557" lon="-3.96892">
        <ele>114.2</ele>
        <time>2020-06-08T11:31:04Z</time>
      </trkpt>
      <trkpt lat="48.22557" lon="-3.96891">
        <ele>114.2</ele>
        <time>2020-06-08T11:31:05Z</time>
      </trkpt>
      <trkpt lat="48.22556" lon="-3.96892">
        <ele>114.3</ele>
        <time>2020-06-08T11:31:06Z</time>
      </trkpt>
      <trkpt lat="48.22556" lon="-3.96896">
        <ele>114.3</ele>
        <time>2020-06-08T11:31:07Z</time>
      </trkpt>
      <trkpt lat="48.22556" lon="-3.96897">
        <ele>114.3</ele>
        <time>2020-06-08T11:31:08Z</time>
      </trkpt>
      <trkpt lat="48.22555" lon="-3.96897">
        <ele>114.3</ele>
        <time>2020-06-08T11:31:09Z</time>
      </trkpt>
      <trkpt lat="48.22556" lon="-3.96898">
        <ele>114.3</ele>
        <time>2020-06-08T11:31:10Z</time>
      </trkpt>
      <trkpt lat="48.22555" lon="-3.96899">
        <ele>114.3</ele>
        <time>2020-06-08T11:31:11Z</time>
      </trkpt>
      <trkpt lat="48.22556" lon="-3.96899">
        <ele>114.3</ele>
        <time>2020-06-08T11:31:12Z</time>
      </trkpt>
      <trkpt lat="48.22556" lon="-3.969">
        <ele>114.3</ele>
        <time>2020-06-08T11:31:13Z</time>
      </trkpt>
      <trkpt lat="48.22556" lon="-3.969">
        <ele>114.3</ele>
        <time>2020-06-08T11:31:14Z</time>
      </trkpt>
      <trkpt lat="48.22556" lon="-3.969">
        <ele>114.3</ele>
        <time>2020-06-08T11:31:15Z</time>
      </trkpt>
      <trkpt lat="48.22556" lon="-3.96899">
        <ele>114.3</ele>
        <time>2020-06-08T11:31:16Z</time>
      </trkpt>
      <trkpt lat="48.22556" lon="-3.96899">
        <ele>114.3</ele>
        <time>2020-06-08T11:31:17Z</time>
      </trkpt>
      <trkpt lat="48.22556" lon="-3.96899">
        <ele>114.3</ele>
        <time>2020-06-08T11:31:18Z</time>
      </trkpt>
      <trkpt lat="48.22556" lon="-3.96899">
        <ele>114.3</ele>
        <time>2020-06-08T11:31:19Z</time>
      </trkpt>
      <trkpt lat="48.22556" lon="-3.96899">
        <ele>114.3</ele>
        <time>2020-06-08T11:31:20Z</time>
      </trkpt>
      <trkpt lat="48.22556" lon="-3.96899">
        <ele>114.3</ele>
        <time>2020-06-08T11:31:21Z</time>
      </trkpt>
      <trkpt lat="48.22556" lon="-3.96899">
        <ele>114.3</ele>
        <time>2020-06-08T11:31:22Z</time>
      </trkpt>
      <trkpt lat="48.22556" lon="-3.96899">
        <ele>114.3</ele>
        <time>2020-06-08T11:31:23Z</time>
      </trkpt>
      <trkpt lat="48.22556" lon="-3.96899">
        <ele>114.3</ele>
        <time>2020-06-08T11:31:24Z</time>
      </trkpt>
      <trkpt lat="48.22556" lon="-3.96899">
        <ele>114.3</ele>
        <time>2020-06-08T11:31:25Z</time>
      </trkpt>
      <trkpt lat="48.22556" lon="-3.96899">
        <ele>114.3</ele>
        <time>2020-06-08T11:31:26Z</time>
      </trkpt>
      <trkpt lat="48.22556" lon="-3.96899">
        <ele>114.3</ele>
        <time>2020-06-08T11:31:27Z</time>
      </trkpt>
      <trkpt lat="48.22558" lon="-3.96868">
        <ele>114.5</ele>
        <time>2020-06-08T12:01:11Z</time>
      </trkpt>
      <trkpt lat="48.22558" lon="-3.96869">
        <ele>114.5</ele>
        <time>2020-06-08T12:01:12Z</time>
      </trkpt>
      <trkpt lat="48.22558" lon="-3.96869">
        <ele>114.5</ele>
        <time>2020-06-08T12:01:13Z</time>
      </trkpt>
      <trkpt lat="48.22558" lon="-3.9687">
        <ele>114.5</ele>
        <time>2020-06-08T12:01:14Z</time>
      </trkpt>
      <trkpt lat="48.22557" lon="-3.96869">
        <ele>114.6</ele>
        <time>2020-06-08T12:01:15Z</time>
      </trkpt>
      <trkpt lat="48.22557" lon="-3.96869">
        <ele>114.6</ele>
        <time>2020-06-08T12:01:16Z</time>
      </trkpt>
      <trkpt lat="48.22557" lon="-3.96868">
        <ele>114.6</ele>
        <time>2020-06-08T12:01:17Z</time>
      </trkpt>
      <trkpt lat="48.22557" lon="-3.96868">
        <ele>114.6</ele>
        <time>2020-06-08T12:01:18Z</time>
      </trkpt>
      <trkpt lat="48.22557" lon="-3.96867">
        <ele>114.6</ele>
        <time>2020-06-08T12:01:19Z</time>
      </trkpt>
      <trkpt lat="48.22557" lon="-3.96867">
        <ele>114.6</ele>
        <time>2020-06-08T12:01:20Z</time>
      </trkpt>
      <trkpt lat="48.22556" lon="-3.96867">
        <ele>114.6</ele>
        <time>2020-06-08T12:01:21Z</time>
      </trkpt>
      <trkpt lat="48.22556" lon="-3.96867">
        <ele>114.6</ele>
        <time>2020-06-08T12:01:22Z</time>
      </trkpt>
      <trkpt lat="48.22556" lon="-3.96867">
        <ele>114.6</ele>
        <time>2020-06-08T12:01:23Z</time>
      </trkpt>
      <trkpt lat="48.22555" lon="-3.96866">
        <ele>114.6</ele>
        <time>2020-06-08T12:01:24Z</time>
      </trkpt>
      <trkpt lat="48.22555" lon="-3.96866">
        <ele>114.6</ele>
        <time>2020-06-08T12:01:25Z</time>
      </trkpt>
      <trkpt lat="48.2255" lon="-3.96915">
        <ele>114.9</ele>
        <time>2020-06-08T13:03:43Z</time>
      </trkpt>
      <trkpt lat="48.22551" lon="-3.96916">
        <ele>114.9</ele>
        <time>2020-06-08T13:03:44Z</time>
      </trkpt>
      <trkpt lat="48.22551" lon="-3.96917">
        <ele>114.9</ele>
        <time>2020-06-08T13:03:45Z</time>
      </trkpt>
      <trkpt lat="48.22552" lon="-3.96917">
        <ele>114.9</ele>
        <time>2020-06-08T13:03:46Z</time>
      </trkpt>
      <trkpt lat="48.22552" lon="-3.96918">
        <ele>114.9</ele>
        <time>2020-06-08T13:03:47Z</time>
      </trkpt>
      <trkpt lat="48.22552" lon="-3.96918">
        <ele>114.9</ele>
        <time>2020-06-08T13:03:48Z</time>
      </trkpt>
      <trkpt lat="48.22553" lon="-3.96918">
        <ele>115</ele>
        <time>2020-06-08T13:03:49Z</time>
      </trkpt>
      <trkpt lat="48.22553" lon="-3.96919">
        <ele>115</ele>
        <time>2020-06-08T13:03:50Z</time>
      </trkpt>
      <trkpt lat="48.22554" lon="-3.96919">
        <ele>115</ele>
        <time>2020-06-08T13:03:51Z</time>
      </trkpt>
      <trkpt lat="48.22554" lon="-3.96919">
        <ele>115</ele>
        <time>2020-06-08T13:03:52Z</time>
      </trkpt>
      <trkpt lat="48.22554" lon="-3.9692">
        <ele>115</ele>
        <time>2020-06-08T13:03:53Z</time>
      </trkpt>
      <trkpt lat="48.22555" lon="-3.9692">
        <ele>115</ele>
        <time>2020-06-08T13:03:54Z</time>
      </trkpt>
      <trkpt lat="48.22555" lon="-3.9692">
        <ele>115</ele>
        <time>2020-06-08T13:03:55Z</time>
      </trkpt>
      <trkpt lat="48.22555" lon="-3.96921">
        <ele>115</ele>
        <time>2020-06-08T13:03:56Z</time>
      </trkpt>
      <trkpt lat="48.22556" lon="-3.96921">
        <ele>115</ele>
        <time>2020-06-08T13:03:57Z</time>
      </trkpt>
      <trkpt lat="48.22556" lon="-3.96921">
        <ele>115</ele>
        <time>2020-06-08T13:03:58Z</time>
      </trkpt>
      <trkpt lat="48.22556" lon="-3.96922">
        <ele>115</ele>
        <time>2020-06-08T13:03:59Z</time>
      </trkpt>
      <trkpt lat="48.22557" lon="-3.96922">
        <ele>115</ele>
        <time>2020-06-08T13:04:00Z</time>
      </trkpt>
      <trkpt lat="48.22557" lon="-3.96922">
        <ele>115</ele>
        <time>2020-06-08T13:04:01Z</time>
      </trkpt>
      <trkpt lat="48.22558" lon="-3.96923">
        <ele>115</ele>
        <time>2020-06-08T13:04:02Z</time>
      </trkpt>
      <trkpt lat="48.22558" lon="-3.96923">
        <ele>115</ele>
        <time>2020-06-08T13:04:03Z</time>
      </trkpt>
      <trkpt lat="48.22558" lon="-3.96923">
        <ele>115</ele>
        <time>2020-06-08T13:04:25Z</time>
      </trkpt>
      <trkpt lat="48.22559" lon="-3.96923">
        <ele>115</ele>
        <time>2020-06-08T13:04:26Z</time>
      </trkpt>
      <trkpt lat="48.22561" lon="-3.96927">
        <ele>115.1</ele>
        <time>2020-06-08T13:04:27Z</time>
      </trkpt>
      <trkpt lat="48.22564" lon="-3.9693">
        <ele>115.1</ele>
        <time>2020-06-08T13:04:28Z</time>
      </trkpt>
      <trkpt lat="48.22566" lon="-3.96931">
        <ele>115.2</ele>
        <time>2020-06-08T13:04:29Z</time>
      </trkpt>
      <trkpt lat="48.22569" lon="-3.96933">
        <ele>115.2</ele>
        <time>2020-06-08T13:04:30Z</time>
      </trkpt>
      <trkpt lat="48.22573" lon="-3.96936">
        <ele>115.3</ele>
        <time>2020-06-08T13:04:31Z</time>
      </trkpt>
      <trkpt lat="48.22577" lon="-3.96937">
        <ele>115.3</ele>
        <time>2020-06-08T13:04:32Z</time>
      </trkpt>
      <trkpt lat="48.22581" lon="-3.96939">
        <ele>115.4</ele>
        <time>2020-06-08T13:04:33Z</time>
      </trkpt>
      <trkpt lat="48.22585" lon="-3.9694">
        <ele>115.4</ele>
        <time>2020-06-08T13:04:34Z</time>
      </trkpt>
      <trkpt lat="48.22588" lon="-3.96941">
        <ele>115.5</ele>
        <time>2020-06-08T13:04:35Z</time>
      </trkpt>
      <trkpt lat="48.22592" lon="-3.96943">
        <ele>115.5</ele>
        <time>2020-06-08T13:04:36Z</time>
      </trkpt>
      <trkpt lat="48.22595" lon="-3.96944">
        <ele>115.5</ele>
        <time>2020-06-08T13:04:37Z</time>
      </trkpt>
      <trkpt lat="48.22599" lon="-3.96946">
        <ele>115.6</ele>
        <time>2020-06-08T13:04:38Z</time>
      </trkpt>
      <trkpt lat="48.22603" lon="-3.96947">
        <ele>115.6</ele>
        <time>2020-06-08T13:04:39Z</time>
      </trkpt>
      <trkpt lat="48.22607" lon="-3.96949">
        <ele>115.7</ele>
        <time>2020-06-08T13:04:40Z</time>
      </trkpt>
      <trkpt lat="48.22611" lon="-3.96949">
        <ele>115.7</ele>
        <time>2020-06-08T13:04:41Z</time>
      </trkpt>
      <trkpt lat="48.22616" lon="-3.96949">
        <ele>115.8</ele>
        <time>2020-06-08T13:04:42Z</time>
      </trkpt>
      <trkpt lat="48.2262" lon="-3.96949">
        <ele>116.3</ele>
        <time>2020-06-08T13:04:43Z</time>
      </trkpt>
      <trkpt lat="48.22624" lon="-3.96949">
        <ele>116.3</ele>
        <time>2020-06-08T13:04:44Z</time>
      </trkpt>
      <trkpt lat="48.22628" lon="-3.96948">
        <ele>116.3</ele>
        <time>2020-06-08T13:04:45Z</time>
      </trkpt>
      <trkpt lat="48.22631" lon="-3.96947">
        <ele>116.4</ele>
        <time>2020-06-08T13:04:46Z</time>
      </trkpt>
      <trkpt lat="48.22634" lon="-3.96945">
        <ele>116.4</ele>
        <time>2020-06-08T13:04:47Z</time>
      </trkpt>
      <trkpt lat="48.22637" lon="-3.96944">
        <ele>116.4</ele>
        <time>2020-06-08T13:04:48Z</time>
      </trkpt>
      <trkpt lat="48.2264" lon="-3.96943">
        <ele>116.4</ele>
        <time>2020-06-08T13:04:49Z</time>
      </trkpt>
      <trkpt lat="48.22643" lon="-3.96942">
        <ele>116.4</ele>
        <time>2020-06-08T13:04:50Z</time>
      </trkpt>
      <trkpt lat="48.22646" lon="-3.96944">
        <ele>116.5</ele>
        <time>2020-06-08T13:04:51Z</time>
      </trkpt>
      <trkpt lat="48.22649" lon="-3.96947">
        <ele>116.5</ele>
        <time>2020-06-08T13:04:52Z</time>
      </trkpt>
      <trkpt lat="48.2265" lon="-3.96949">
        <ele>116.5</ele>
        <time>2020-06-08T13:04:53Z</time>
      </trkpt>
      <trkpt lat="48.22652" lon="-3.96953">
        <ele>116.5</ele>
        <time>2020-06-08T13:04:54Z</time>
      </trkpt>
      <trkpt lat="48.22654" lon="-3.96956">
        <ele>116.5</ele>
        <time>2020-06-08T13:04:55Z</time>
      </trkpt>
      <trkpt lat="48.22656" lon="-3.96959">
        <ele>116.6</ele>
        <time>2020-06-08T13:04:56Z</time>
      </trkpt>
      <trkpt lat="48.22659" lon="-3.96962">
        <ele>116.6</ele>
        <time>2020-06-08T13:04:57Z</time>
      </trkpt>
      <trkpt lat="48.2266" lon="-3.96963">
        <ele>116.7</ele>
        <time>2020-06-08T13:04:58Z</time>
      </trkpt>
      <trkpt lat="48.22662" lon="-3.96969">
        <ele>116.7</ele>
        <time>2020-06-08T13:04:59Z</time>
      </trkpt>
      <trkpt lat="48.22662" lon="-3.96971">
        <ele>116.7</ele>
        <time>2020-06-08T13:05:00Z</time>
      </trkpt>
      <trkpt lat="48.22662" lon="-3.96976">
        <ele>116.8</ele>
        <time>2020-06-08T13:05:01Z</time>
      </trkpt>
      <trkpt lat="48.22662" lon="-3.96978">
        <ele>116.8</ele>
        <time>2020-06-08T13:05:02Z</time>
      </trkpt>
      <trkpt lat="48.22662" lon="-3.96982">
        <ele>116.8</ele>
        <time>2020-06-08T13:05:03Z</time>
      </trkpt>
      <trkpt lat="48.22663" lon="-3.96984">
        <ele>116.8</ele>
        <time>2020-06-08T13:05:04Z</time>
      </trkpt>
      <trkpt lat="48.22662" lon="-3.96986">
        <ele>116.9</ele>
        <time>2020-06-08T13:05:05Z</time>
      </trkpt>
      <trkpt lat="48.22663" lon="-3.96989">
        <ele>116.9</ele>
        <time>2020-06-08T13:05:06Z</time>
      </trkpt>
      <trkpt lat="48.22664" lon="-3.96994">
        <ele>117</ele>
        <time>2020-06-08T13:05:07Z</time>
      </trkpt>
      <trkpt lat="48.22665" lon="-3.96996">
        <ele>117</ele>
        <time>2020-06-08T13:05:08Z</time>
      </trkpt>
      <trkpt lat="48.22666" lon="-3.96999">
        <ele>117</ele>
        <time>2020-06-08T13:05:09Z</time>
      </trkpt>
      <trkpt lat="48.22667" lon="-3.97">
        <ele>117.1</ele>
        <time>2020-06-08T13:05:10Z</time>
      </trkpt>
      <trkpt lat="48.22669" lon="-3.97004">
        <ele>117.1</ele>
        <time>2020-06-08T13:05:11Z</time>
      </trkpt>
      <trkpt lat="48.2267" lon="-3.97004">
        <ele>117.1</ele>
        <time>2020-06-08T13:05:12Z</time>
      </trkpt>
      <trkpt lat="48.22673" lon="-3.97006">
        <ele>117.1</ele>
        <time>2020-06-08T13:05:13Z</time>
      </trkpt>
      <trkpt lat="48.22676" lon="-3.97007">
        <ele>117.1</ele>
        <time>2020-06-08T13:05:14Z</time>
      </trkpt>
      <trkpt lat="48.22679" lon="-3.97009">
        <ele>117.1</ele>
        <time>2020-06-08T13:05:15Z</time>
      </trkpt>
      <trkpt lat="48.22682" lon="-3.9701">
        <ele>117.2</ele>
        <time>2020-06-08T13:05:16Z</time>
      </trkpt>
      <trkpt lat="48.22685" lon="-3.97012">
        <ele>117.2</ele>
        <time>2020-06-08T13:05:17Z</time>
      </trkpt>
      <trkpt lat="48.22686" lon="-3.97012">
        <ele>117.2</ele>
        <time>2020-06-08T13:05:18Z</time>
      </trkpt>
      <trkpt lat="48.2269" lon="-3.97013">
        <ele>117.3</ele>
        <time>2020-06-08T13:05:19Z</time>
      </trkpt>
      <trkpt lat="48.22691" lon="-3.97013">
        <ele>117.3</ele>
        <time>2020-06-08T13:05:20Z</time>
      </trkpt>
      <trkpt lat="48.22694" lon="-3.97014">
        <ele>117.4</ele>
        <time>2020-06-08T13:05:21Z</time>
      </trkpt>
      <trkpt lat="48.22695" lon="-3.97015">
        <ele>117.4</ele>
        <time>2020-06-08T13:05:22Z</time>
      </trkpt>
      <trkpt lat="48.22696" lon="-3.97016">
        <ele>117.4</ele>
        <time>2020-06-08T13:05:23Z</time>
      </trkpt>
      <trkpt lat="48.22698" lon="-3.97017">
        <ele>117.4</ele>
        <time>2020-06-08T13:05:24Z</time>
      </trkpt>
      <trkpt lat="48.22701" lon="-3.97019">
        <ele>117.6</ele>
        <time>2020-06-08T13:05:25Z</time>
      </trkpt>
      <trkpt lat="48.22703" lon="-3.97019">
        <ele>117.7</ele>
        <time>2020-06-08T13:05:26Z</time>
      </trkpt>
      <trkpt lat="48.22706" lon="-3.97018">
        <ele>118.1</ele>
        <time>2020-06-08T13:05:27Z</time>
      </trkpt>
      <trkpt lat="48.22708" lon="-3.97018">
        <ele>118.2</ele>
        <time>2020-06-08T13:05:28Z</time>
      </trkpt>
      <trkpt lat="48.22711" lon="-3.97016">
        <ele>118.6</ele>
        <time>2020-06-08T13:05:29Z</time>
      </trkpt>
      <trkpt lat="48.22714" lon="-3.97017">
        <ele>118.6</ele>
        <time>2020-06-08T13:05:30Z</time>
      </trkpt>
      <trkpt lat="48.22717" lon="-3.97015">
        <ele>118.5</ele>
        <time>2020-06-08T13:05:31Z</time>
      </trkpt>
      <trkpt lat="48.2272" lon="-3.97014">
        <ele>118.5</ele>
        <time>2020-06-08T13:05:32Z</time>
      </trkpt>
      <trkpt lat="48.22724" lon="-3.97013">
        <ele>118.5</ele>
        <time>2020-06-08T13:05:33Z</time>
      </trkpt>
      <trkpt lat="48.22728" lon="-3.97012">
        <ele>118.4</ele>
        <time>2020-06-08T13:05:34Z</time>
      </trkpt>
      <trkpt lat="48.22732" lon="-3.97011">
        <ele>118.3</ele>
        <time>2020-06-08T13:05:35Z</time>
      </trkpt>
      <trkpt lat="48.22735" lon="-3.9701">
        <ele>118.3</ele>
        <time>2020-06-08T13:05:36Z</time>
      </trkpt>
      <trkpt lat="48.22739" lon="-3.97011">
        <ele>118.2</ele>
        <time>2020-06-08T13:05:37Z</time>
      </trkpt>
      <trkpt lat="48.22742" lon="-3.9701">
        <ele>118.1</ele>
        <time>2020-06-08T13:05:38Z</time>
      </trkpt>
      <trkpt lat="48.22746" lon="-3.97009">
        <ele>118.1</ele>
        <time>2020-06-08T13:05:39Z</time>
      </trkpt>
      <trkpt lat="48.22749" lon="-3.97009">
        <ele>118</ele>
        <time>2020-06-08T13:05:40Z</time>
      </trkpt>
      <trkpt lat="48.22752" lon="-3.97009">
        <ele>117.9</ele>
        <time>2020-06-08T13:05:41Z</time>
      </trkpt>
      <trkpt lat="48.22756" lon="-3.97008">
        <ele>117.8</ele>
        <time>2020-06-08T13:05:42Z</time>
      </trkpt>
      <trkpt lat="48.22759" lon="-3.97009">
        <ele>117.8</ele>
        <time>2020-06-08T13:05:43Z</time>
      </trkpt>
      <trkpt lat="48.22763" lon="-3.97009">
        <ele>117.8</ele>
        <time>2020-06-08T13:05:44Z</time>
      </trkpt>
      <trkpt lat="48.22767" lon="-3.97011">
        <ele>117.9</ele>
        <time>2020-06-08T13:05:45Z</time>
      </trkpt>
      <trkpt lat="48.22771" lon="-3.97012">
        <ele>117.9</ele>
        <time>2020-06-08T13:05:46Z</time>
      </trkpt>
      <trkpt lat="48.22774" lon="-3.97013">
        <ele>117.9</ele>
        <time>2020-06-08T13:05:47Z</time>
      </trkpt>
      <trkpt lat="48.22778" lon="-3.97015">
        <ele>117.9</ele>
        <time>2020-06-08T13:05:48Z</time>
      </trkpt>
      <trkpt lat="48.22781" lon="-3.97017">
        <ele>117.9</ele>
        <time>2020-06-08T13:05:49Z</time>
      </trkpt>
      <trkpt lat="48.22785" lon="-3.9702">
        <ele>117.8</ele>
        <time>2020-06-08T13:05:50Z</time>
      </trkpt>
      <trkpt lat="48.22787" lon="-3.97025">
        <ele>117.7</ele>
        <time>2020-06-08T13:05:51Z</time>
      </trkpt>
      <trkpt lat="48.22788" lon="-3.97032">
        <ele>117.4</ele>
        <time>2020-06-08T13:05:52Z</time>
      </trkpt>
      <trkpt lat="48.22789" lon="-3.97039">
        <ele>117.2</ele>
        <time>2020-06-08T13:05:53Z</time>
      </trkpt>
      <trkpt lat="48.22789" lon="-3.97046">
        <ele>117</ele>
        <time>2020-06-08T13:05:54Z</time>
      </trkpt>
      <trkpt lat="48.22789" lon="-3.97053">
        <ele>116.8</ele>
        <time>2020-06-08T13:05:55Z</time>
      </trkpt>
      <trkpt lat="48.22789" lon="-3.9706">
        <ele>116.7</ele>
        <time>2020-06-08T13:05:56Z</time>
      </trkpt>
      <trkpt lat="48.22789" lon="-3.97067">
        <ele>116.6</ele>
        <time>2020-06-08T13:05:57Z</time>
      </trkpt>
      <trkpt lat="48.22788" lon="-3.97073">
        <ele>116.5</ele>
        <time>2020-06-08T13:05:58Z</time>
      </trkpt>
      <trkpt lat="48.22787" lon="-3.9708">
        <ele>116.3</ele>
        <time>2020-06-08T13:05:59Z</time>
      </trkpt>
      <trkpt lat="48.22784" lon="-3.97086">
        <ele>116</ele>
        <time>2020-06-08T13:06:00Z</time>
      </trkpt>
      <trkpt lat="48.22782" lon="-3.97094">
        <ele>115.6</ele>
        <time>2020-06-08T13:06:01Z</time>
      </trkpt>
      <trkpt lat="48.2278" lon="-3.97102">
        <ele>115.2</ele>
        <time>2020-06-08T13:06:02Z</time>
      </trkpt>
      <trkpt lat="48.22777" lon="-3.97111">
        <ele>114.7</ele>
        <time>2020-06-08T13:06:03Z</time>
      </trkpt>
      <trkpt lat="48.22775" lon="-3.9712">
        <ele>114.1</ele>
        <time>2020-06-08T13:06:04Z</time>
      </trkpt>
      <trkpt lat="48.22775" lon="-3.9713">
        <ele>113.6</ele>
        <time>2020-06-08T13:06:05Z</time>
      </trkpt>
      <trkpt lat="48.22775" lon="-3.97139">
        <ele>113.1</ele>
        <time>2020-06-08T13:06:06Z</time>
      </trkpt>
      <trkpt lat="48.22775" lon="-3.97148">
        <ele>112.5</ele>
        <time>2020-06-08T13:06:07Z</time>
      </trkpt>
      <trkpt lat="48.22776" lon="-3.97156">
        <ele>112</ele>
        <time>2020-06-08T13:06:08Z</time>
      </trkpt>
      <trkpt lat="48.22778" lon="-3.97166">
        <ele>111.5</ele>
        <time>2020-06-08T13:06:09Z</time>
      </trkpt>
      <trkpt lat="48.22781" lon="-3.97176">
        <ele>111</ele>
        <time>2020-06-08T13:06:10Z</time>
      </trkpt>
      <trkpt lat="48.22783" lon="-3.97186">
        <ele>110.4</ele>
        <time>2020-06-08T13:06:11Z</time>
      </trkpt>
      <trkpt lat="48.22786" lon="-3.97197">
        <ele>109.8</ele>
        <time>2020-06-08T13:06:12Z</time>
      </trkpt>
      <trkpt lat="48.22789" lon="-3.97208">
        <ele>109.2</ele>
        <time>2020-06-08T13:06:13Z</time>
      </trkpt>
      <trkpt lat="48.22793" lon="-3.97218">
        <ele>108.5</ele>
        <time>2020-06-08T13:06:14Z</time>
      </trkpt>
      <trkpt lat="48.22798" lon="-3.97228">
        <ele>107.8</ele>
        <time>2020-06-08T13:06:15Z</time>
      </trkpt>
      <trkpt lat="48.22803" lon="-3.97239">
        <ele>107.1</ele>
        <time>2020-06-08T13:06:16Z</time>
      </trkpt>
      <trkpt lat="48.22808" lon="-3.9725">
        <ele>106.4</ele>
        <time>2020-06-08T13:06:17Z</time>
      </trkpt>
      <trkpt lat="48.22813" lon="-3.97261">
        <ele>105.6</ele>
        <time>2020-06-08T13:06:18Z</time>
      </trkpt>
      <trkpt lat="48.22818" lon="-3.97272">
        <ele>104.8</ele>
        <time>2020-06-08T13:06:19Z</time>
      </trkpt>
      <trkpt lat="48.22824" lon="-3.97284">
        <ele>104</ele>
        <time>2020-06-08T13:06:20Z</time>
      </trkpt>
      <trkpt lat="48.22831" lon="-3.97295">
        <ele>103.1</ele>
        <time>2020-06-08T13:06:21Z</time>
      </trkpt>
      <trkpt lat="48.22837" lon="-3.97307">
        <ele>102.2</ele>
        <time>2020-06-08T13:06:22Z</time>
      </trkpt>
      <trkpt lat="48.22844" lon="-3.97319">
        <ele>101.3</ele>
        <time>2020-06-08T13:06:23Z</time>
      </trkpt>
      <trkpt lat="48.22851" lon="-3.97331">
        <ele>100.3</ele>
        <time>2020-06-08T13:06:24Z</time>
      </trkpt>
      <trkpt lat="48.22859" lon="-3.97343">
        <ele>99.4</ele>
        <time>2020-06-08T13:06:25Z</time>
      </trkpt>
      <trkpt lat="48.22866" lon="-3.97356">
        <ele>98.4</ele>
        <time>2020-06-08T13:06:26Z</time>
      </trkpt>
      <trkpt lat="48.22873" lon="-3.97369">
        <ele>97.4</ele>
        <time>2020-06-08T13:06:27Z</time>
      </trkpt>
      <trkpt lat="48.22881" lon="-3.97382">
        <ele>96.4</ele>
        <time>2020-06-08T13:06:28Z</time>
      </trkpt>
      <trkpt lat="48.22889" lon="-3.97395">
        <ele>95.4</ele>
        <time>2020-06-08T13:06:29Z</time>
      </trkpt>
      <trkpt lat="48.22896" lon="-3.97409">
        <ele>94.2</ele>
        <time>2020-06-08T13:06:30Z</time>
      </trkpt>
      <trkpt lat="48.22904" lon="-3.97423">
        <ele>93.1</ele>
        <time>2020-06-08T13:06:31Z</time>
      </trkpt>
      <trkpt lat="48.22911" lon="-3.97438">
        <ele>92</ele>
        <time>2020-06-08T13:06:32Z</time>
      </trkpt>
      <trkpt lat="48.22919" lon="-3.97453">
        <ele>90.9</ele>
        <time>2020-06-08T13:06:33Z</time>
      </trkpt>
      <trkpt lat="48.22926" lon="-3.97468">
        <ele>89.6</ele>
        <time>2020-06-08T13:06:34Z</time>
      </trkpt>
      <trkpt lat="48.22932" lon="-3.97484">
        <ele>88.9</ele>
        <time>2020-06-08T13:06:35Z</time>
      </trkpt>
      <trkpt lat="48.22939" lon="-3.975">
        <ele>88.2</ele>
        <time>2020-06-08T13:06:36Z</time>
      </trkpt>
      <trkpt lat="48.22945" lon="-3.97518">
        <ele>87.4</ele>
        <time>2020-06-08T13:06:37Z</time>
      </trkpt>
      <trkpt lat="48.2295" lon="-3.97536">
        <ele>86.3</ele>
        <time>2020-06-08T13:06:38Z</time>
      </trkpt>
      <trkpt lat="48.22955" lon="-3.97554">
        <ele>85</ele>
        <time>2020-06-08T13:06:39Z</time>
      </trkpt>
      <trkpt lat="48.22959" lon="-3.97573">
        <ele>83.8</ele>
        <time>2020-06-08T13:06:40Z</time>
      </trkpt>
      <trkpt lat="48.22963" lon="-3.97593">
        <ele>82.7</ele>
        <time>2020-06-08T13:06:41Z</time>
      </trkpt>
      <trkpt lat="48.22967" lon="-3.97612">
        <ele>81.6</ele>
        <time>2020-06-08T13:06:42Z</time>
      </trkpt>
      <trkpt lat="48.2297" lon="-3.97631">
        <ele>80.6</ele>
        <time>2020-06-08T13:06:43Z</time>
      </trkpt>
      <trkpt lat="48.22973" lon="-3.97651">
        <ele>79.7</ele>
        <time>2020-06-08T13:06:44Z</time>
      </trkpt>
      <trkpt lat="48.22976" lon="-3.9767">
        <ele>78.9</ele>
        <time>2020-06-08T13:06:45Z</time>
      </trkpt>
      <trkpt lat="48.22979" lon="-3.97688">
        <ele>78.2</ele>
        <time>2020-06-08T13:06:46Z</time>
      </trkpt>
      <trkpt lat="48.22981" lon="-3.97707">
        <ele>77.7</ele>
        <time>2020-06-08T13:06:47Z</time>
      </trkpt>
      <trkpt lat="48.22984" lon="-3.97725">
        <ele>77</ele>
        <time>2020-06-08T13:06:48Z</time>
      </trkpt>
      <trkpt lat="48.22987" lon="-3.97742">
        <ele>76.5</ele>
        <time>2020-06-08T13:06:49Z</time>
      </trkpt>
      <trkpt lat="48.2299" lon="-3.9776">
        <ele>76.1</ele>
        <time>2020-06-08T13:06:50Z</time>
      </trkpt>
      <trkpt lat="48.22992" lon="-3.97777">
        <ele>75.9</ele>
        <time>2020-06-08T13:06:51Z</time>
      </trkpt>
      <trkpt lat="48.22994" lon="-3.97794">
        <ele>75.8</ele>
        <time>2020-06-08T13:06:52Z</time>
      </trkpt>
      <trkpt lat="48.22996" lon="-3.97809">
        <ele>75.8</ele>
        <time>2020-06-08T13:06:53Z</time>
      </trkpt>
      <trkpt lat="48.22998" lon="-3.97825">
        <ele>75.9</ele>
        <time>2020-06-08T13:06:54Z</time>
      </trkpt>
      <trkpt lat="48.22999" lon="-3.97839">
        <ele>76.1</ele>
        <time>2020-06-08T13:06:55Z</time>
      </trkpt>
      <trkpt lat="48.23002" lon="-3.97853">
        <ele>76.2</ele>
        <time>2020-06-08T13:06:56Z</time>
      </trkpt>
      <trkpt lat="48.23004" lon="-3.97866">
        <ele>76.5</ele>
        <time>2020-06-08T13:06:57Z</time>
      </trkpt>
      <trkpt lat="48.23006" lon="-3.97878">
        <ele>76.8</ele>
        <time>2020-06-08T13:06:58Z</time>
      </trkpt>
      <trkpt lat="48.23008" lon="-3.9789">
        <ele>77.2</ele>
        <time>2020-06-08T13:06:59Z</time>
      </trkpt>
      <trkpt lat="48.23009" lon="-3.97901">
        <ele>77.3</ele>
        <time>2020-06-08T13:07:00Z</time>
      </trkpt>
      <trkpt lat="48.2301" lon="-3.9791">
        <ele>77.3</ele>
        <time>2020-06-08T13:07:01Z</time>
      </trkpt>
      <trkpt lat="48.23011" lon="-3.97919">
        <ele>77.4</ele>
        <time>2020-06-08T13:07:02Z</time>
      </trkpt>
      <trkpt lat="48.23013" lon="-3.97927">
        <ele>77.6</ele>
        <time>2020-06-08T13:07:03Z</time>
      </trkpt>
      <trkpt lat="48.23014" lon="-3.97935">
        <ele>77.7</ele>
        <time>2020-06-08T13:07:04Z</time>
      </trkpt>
      <trkpt lat="48.23015" lon="-3.97942">
        <ele>77.9</ele>
        <time>2020-06-08T13:07:05Z</time>
      </trkpt>
      <trkpt lat="48.23015" lon="-3.97948">
        <ele>78</ele>
        <time>2020-06-08T13:07:06Z</time>
      </trkpt>
      <trkpt lat="48.23016" lon="-3.97953">
        <ele>78.2</ele>
        <time>2020-06-08T13:07:07Z</time>
      </trkpt>
      <trkpt lat="48.23016" lon="-3.97958">
        <ele>78.3</ele>
        <time>2020-06-08T13:07:08Z</time>
      </trkpt>
      <trkpt lat="48.23017" lon="-3.97962">
        <ele>78.4</ele>
        <time>2020-06-08T13:07:09Z</time>
      </trkpt>
      <trkpt lat="48.23017" lon="-3.97967">
        <ele>78.6</ele>
        <time>2020-06-08T13:07:10Z</time>
      </trkpt>
      <trkpt lat="48.23018" lon="-3.97971">
        <ele>78.7</ele>
        <time>2020-06-08T13:07:11Z</time>
      </trkpt>
      <trkpt lat="48.23019" lon="-3.97976">
        <ele>79</ele>
        <time>2020-06-08T13:07:12Z</time>
      </trkpt>
      <trkpt lat="48.23019" lon="-3.97978">
        <ele>79</ele>
        <time>2020-06-08T13:07:13Z</time>
      </trkpt>
      <trkpt lat="48.23019" lon="-3.97983">
        <ele>79.2</ele>
        <time>2020-06-08T13:07:14Z</time>
      </trkpt>
      <trkpt lat="48.2302" lon="-3.97985">
        <ele>79.3</ele>
        <time>2020-06-08T13:07:15Z</time>
      </trkpt>
      <trkpt lat="48.23021" lon="-3.9799">
        <ele>79.5</ele>
        <time>2020-06-08T13:07:16Z</time>
      </trkpt>
      <trkpt lat="48.23022" lon="-3.97992">
        <ele>79.5</ele>
        <time>2020-06-08T13:07:17Z</time>
      </trkpt>
      <trkpt lat="48.23022" lon="-3.97997">
        <ele>79.7</ele>
        <time>2020-06-08T13:07:18Z</time>
      </trkpt>
      <trkpt lat="48.23022" lon="-3.97998">
        <ele>79.8</ele>
        <time>2020-06-08T13:07:19Z</time>
      </trkpt>
      <trkpt lat="48.23023" lon="-3.98003">
        <ele>80</ele>
        <time>2020-06-08T13:07:20Z</time>
      </trkpt>
      <trkpt lat="48.23023" lon="-3.98005">
        <ele>80</ele>
        <time>2020-06-08T13:07:21Z</time>
      </trkpt>
      <trkpt lat="48.23024" lon="-3.98009">
        <ele>80.2</ele>
        <time>2020-06-08T13:07:22Z</time>
      </trkpt>
      <trkpt lat="48.23024" lon="-3.98013">
        <ele>80.3</ele>
        <time>2020-06-08T13:07:23Z</time>
      </trkpt>
      <trkpt lat="48.23024" lon="-3.98019">
        <ele>80.5</ele>
        <time>2020-06-08T13:07:24Z</time>
      </trkpt>
      <trkpt lat="48.23024" lon="-3.98021">
        <ele>80.5</ele>
        <time>2020-06-08T13:07:25Z</time>
      </trkpt>
      <trkpt lat="48.23025" lon="-3.98025">
        <ele>80.7</ele>
        <time>2020-06-08T13:07:26Z</time>
      </trkpt>
      <trkpt lat="48.23026" lon="-3.98029">
        <ele>80.8</ele>
        <time>2020-06-08T13:07:27Z</time>
      </trkpt>
      <trkpt lat="48.23027" lon="-3.98033">
        <ele>81</ele>
        <time>2020-06-08T13:07:28Z</time>
      </trkpt>
      <trkpt lat="48.23027" lon="-3.98037">
        <ele>81.1</ele>
        <time>2020-06-08T13:07:29Z</time>
      </trkpt>
      <trkpt lat="48.23027" lon="-3.98042">
        <ele>81.6</ele>
        <time>2020-06-08T13:07:30Z</time>
      </trkpt>
      <trkpt lat="48.23027" lon="-3.98047">
        <ele>81.8</ele>
        <time>2020-06-08T13:07:31Z</time>
      </trkpt>
      <trkpt lat="48.23028" lon="-3.98052">
        <ele>82</ele>
        <time>2020-06-08T13:07:32Z</time>
      </trkpt>
      <trkpt lat="48.23028" lon="-3.98058">
        <ele>82.3</ele>
        <time>2020-06-08T13:07:33Z</time>
      </trkpt>
      <trkpt lat="48.23029" lon="-3.98061">
        <ele>82.4</ele>
        <time>2020-06-08T13:07:34Z</time>
      </trkpt>
      <trkpt lat="48.23029" lon="-3.98065">
        <ele>82.6</ele>
        <time>2020-06-08T13:07:35Z</time>
      </trkpt>
      <trkpt lat="48.23028" lon="-3.98072">
        <ele>82.9</ele>
        <time>2020-06-08T13:07:36Z</time>
      </trkpt>
      <trkpt lat="48.23028" lon="-3.98074">
        <ele>83</ele>
        <time>2020-06-08T13:07:37Z</time>
      </trkpt>
      <trkpt lat="48.23028" lon="-3.98079">
        <ele>83.2</ele>
        <time>2020-06-08T13:07:38Z</time>
      </trkpt>
      <trkpt lat="48.23029" lon="-3.98083">
        <ele>83.4</ele>
        <time>2020-06-08T13:07:39Z</time>
      </trkpt>
      <trkpt lat="48.23028" lon="-3.98089">
        <ele>83.6</ele>
        <time>2020-06-08T13:07:40Z</time>
      </trkpt>
      <trkpt lat="48.23029" lon="-3.98097">
        <ele>83.9</ele>
        <time>2020-06-08T13:07:41Z</time>
      </trkpt>
      <trkpt lat="48.23029" lon="-3.98103">
        <ele>84.2</ele>
        <time>2020-06-08T13:07:42Z</time>
      </trkpt>
      <trkpt lat="48.23029" lon="-3.98111">
        <ele>84.4</ele>
        <time>2020-06-08T13:07:43Z</time>
      </trkpt>
      <trkpt lat="48.23029" lon="-3.98118">
        <ele>84.6</ele>
        <time>2020-06-08T13:07:44Z</time>
      </trkpt>
      <trkpt lat="48.23029" lon="-3.98125">
        <ele>84.9</ele>
        <time>2020-06-08T13:07:45Z</time>
      </trkpt>
      <trkpt lat="48.23029" lon="-3.9813">
        <ele>85</ele>
        <time>2020-06-08T13:07:46Z</time>
      </trkpt>
      <trkpt lat="48.23029" lon="-3.98137">
        <ele>85.2</ele>
        <time>2020-06-08T13:07:47Z</time>
      </trkpt>
      <trkpt lat="48.23028" lon="-3.98141">
        <ele>85.3</ele>
        <time>2020-06-08T13:07:48Z</time>
      </trkpt>
      <trkpt lat="48.23027" lon="-3.98146">
        <ele>85.5</ele>
        <time>2020-06-08T13:07:49Z</time>
      </trkpt>
      <trkpt lat="48.23026" lon="-3.98152">
        <ele>85.7</ele>
        <time>2020-06-08T13:07:50Z</time>
      </trkpt>
      <trkpt lat="48.23025" lon="-3.98158">
        <ele>85.9</ele>
        <time>2020-06-08T13:07:51Z</time>
      </trkpt>
      <trkpt lat="48.23025" lon="-3.9816">
        <ele>85.9</ele>
        <time>2020-06-08T13:07:52Z</time>
      </trkpt>
      <trkpt lat="48.23025" lon="-3.98165">
        <ele>86.1</ele>
        <time>2020-06-08T13:07:53Z</time>
      </trkpt>
      <trkpt lat="48.23024" lon="-3.9817">
        <ele>86.2</ele>
        <time>2020-06-08T13:07:54Z</time>
      </trkpt>
      <trkpt lat="48.23022" lon="-3.98175">
        <ele>86.4</ele>
        <time>2020-06-08T13:07:55Z</time>
      </trkpt>
      <trkpt lat="48.23021" lon="-3.98181">
        <ele>86.6</ele>
        <time>2020-06-08T13:07:56Z</time>
      </trkpt>
      <trkpt lat="48.23021" lon="-3.98187">
        <ele>86.8</ele>
        <time>2020-06-08T13:07:57Z</time>
      </trkpt>
      <trkpt lat="48.23022" lon="-3.98192">
        <ele>87</ele>
        <time>2020-06-08T13:07:58Z</time>
      </trkpt>
      <trkpt lat="48.23022" lon="-3.98198">
        <ele>87.2</ele>
        <time>2020-06-08T13:07:59Z</time>
      </trkpt>
      <trkpt lat="48.23021" lon="-3.98206">
        <ele>87.5</ele>
        <time>2020-06-08T13:08:00Z</time>
      </trkpt>
      <trkpt lat="48.23021" lon="-3.98211">
        <ele>87.7</ele>
        <time>2020-06-08T13:08:01Z</time>
      </trkpt>
      <trkpt lat="48.2302" lon="-3.98216">
        <ele>87.8</ele>
        <time>2020-06-08T13:08:02Z</time>
      </trkpt>
      <trkpt lat="48.23019" lon="-3.98221">
        <ele>88</ele>
        <time>2020-06-08T13:08:03Z</time>
      </trkpt>
      <trkpt lat="48.23018" lon="-3.98226">
        <ele>88.2</ele>
        <time>2020-06-08T13:08:04Z</time>
      </trkpt>
      <trkpt lat="48.23018" lon="-3.98232">
        <ele>88.4</ele>
        <time>2020-06-08T13:08:05Z</time>
      </trkpt>
      <trkpt lat="48.23016" lon="-3.98238">
        <ele>88.5</ele>
        <time>2020-06-08T13:08:06Z</time>
      </trkpt>
      <trkpt lat="48.23014" lon="-3.98243">
        <ele>88.7</ele>
        <time>2020-06-08T13:08:07Z</time>
      </trkpt>
      <trkpt lat="48.23012" lon="-3.98248">
        <ele>88.8</ele>
        <time>2020-06-08T13:08:08Z</time>
      </trkpt>
      <trkpt lat="48.23011" lon="-3.98252">
        <ele>88.9</ele>
        <time>2020-06-08T13:08:09Z</time>
      </trkpt>
      <trkpt lat="48.23009" lon="-3.98255">
        <ele>89.1</ele>
        <time>2020-06-08T13:08:10Z</time>
      </trkpt>
      <trkpt lat="48.23007" lon="-3.9826">
        <ele>89.2</ele>
        <time>2020-06-08T13:08:11Z</time>
      </trkpt>
      <trkpt lat="48.23005" lon="-3.98268">
        <ele>89.4</ele>
        <time>2020-06-08T13:08:12Z</time>
      </trkpt>
      <trkpt lat="48.23003" lon="-3.98274">
        <ele>89.6</ele>
        <time>2020-06-08T13:08:13Z</time>
      </trkpt>
      <trkpt lat="48.23002" lon="-3.98279">
        <ele>89.8</ele>
        <time>2020-06-08T13:08:14Z</time>
      </trkpt>
      <trkpt lat="48.23001" lon="-3.98286">
        <ele>89.9</ele>
        <time>2020-06-08T13:08:15Z</time>
      </trkpt>
      <trkpt lat="48.22999" lon="-3.98292">
        <ele>90.1</ele>
        <time>2020-06-08T13:08:16Z</time>
      </trkpt>
      <trkpt lat="48.22998" lon="-3.98299">
        <ele>90.3</ele>
        <time>2020-06-08T13:08:17Z</time>
      </trkpt>
      <trkpt lat="48.22996" lon="-3.98306">
        <ele>90.3</ele>
        <time>2020-06-08T13:08:18Z</time>
      </trkpt>
      <trkpt lat="48.22995" lon="-3.98314">
        <ele>90.4</ele>
        <time>2020-06-08T13:08:19Z</time>
      </trkpt>
      <trkpt lat="48.22993" lon="-3.98321">
        <ele>90.5</ele>
        <time>2020-06-08T13:08:20Z</time>
      </trkpt>
      <trkpt lat="48.22991" lon="-3.98327">
        <ele>90.5</ele>
        <time>2020-06-08T13:08:21Z</time>
      </trkpt>
      <trkpt lat="48.22989" lon="-3.98334">
        <ele>90.6</ele>
        <time>2020-06-08T13:08:22Z</time>
      </trkpt>
      <trkpt lat="48.22987" lon="-3.9834">
        <ele>90.6</ele>
        <time>2020-06-08T13:08:23Z</time>
      </trkpt>
      <trkpt lat="48.22985" lon="-3.98346">
        <ele>90.7</ele>
        <time>2020-06-08T13:08:24Z</time>
      </trkpt>
      <trkpt lat="48.22983" lon="-3.9835">
        <ele>90.7</ele>
        <time>2020-06-08T13:08:25Z</time>
      </trkpt>
      <trkpt lat="48.22981" lon="-3.98355">
        <ele>90.7</ele>
        <time>2020-06-08T13:08:26Z</time>
      </trkpt>
      <trkpt lat="48.22978" lon="-3.98364">
        <ele>90.8</ele>
        <time>2020-06-08T13:08:27Z</time>
      </trkpt>
      <trkpt lat="48.22976" lon="-3.9837">
        <ele>90.8</ele>
        <time>2020-06-08T13:08:28Z</time>
      </trkpt>
      <trkpt lat="48.22975" lon="-3.98378">
        <ele>90.8</ele>
        <time>2020-06-08T13:08:29Z</time>
      </trkpt>
      <trkpt lat="48.22975" lon="-3.98382">
        <ele>90.7</ele>
        <time>2020-06-08T13:08:30Z</time>
      </trkpt>
      <trkpt lat="48.22974" lon="-3.98388">
        <ele>90.7</ele>
        <time>2020-06-08T13:08:31Z</time>
      </trkpt>
      <trkpt lat="48.22972" lon="-3.98395">
        <ele>90.6</ele>
        <time>2020-06-08T13:08:32Z</time>
      </trkpt>
      <trkpt lat="48.22971" lon="-3.98402">
        <ele>90.6</ele>
        <time>2020-06-08T13:08:33Z</time>
      </trkpt>
      <trkpt lat="48.22969" lon="-3.9841">
        <ele>90.4</ele>
        <time>2020-06-08T13:08:34Z</time>
      </trkpt>
      <trkpt lat="48.22969" lon="-3.98416">
        <ele>90.3</ele>
        <time>2020-06-08T13:08:35Z</time>
      </trkpt>
      <trkpt lat="48.22968" lon="-3.98423">
        <ele>90.1</ele>
        <time>2020-06-08T13:08:36Z</time>
      </trkpt>
      <trkpt lat="48.22967" lon="-3.98432">
        <ele>89.9</ele>
        <time>2020-06-08T13:08:37Z</time>
      </trkpt>
      <trkpt lat="48.22966" lon="-3.98441">
        <ele>89.7</ele>
        <time>2020-06-08T13:08:38Z</time>
      </trkpt>
      <trkpt lat="48.22965" lon="-3.98447">
        <ele>89.5</ele>
        <time>2020-06-08T13:08:39Z</time>
      </trkpt>
      <trkpt lat="48.22964" lon="-3.98454">
        <ele>89.3</ele>
        <time>2020-06-08T13:08:40Z</time>
      </trkpt>
      <trkpt lat="48.22964" lon="-3.98462">
        <ele>88.9</ele>
        <time>2020-06-08T13:08:41Z</time>
      </trkpt>
      <trkpt lat="48.22963" lon="-3.98474">
        <ele>88.5</ele>
        <time>2020-06-08T13:08:42Z</time>
      </trkpt>
      <trkpt lat="48.22963" lon="-3.98485">
        <ele>88</ele>
        <time>2020-06-08T13:08:43Z</time>
      </trkpt>
      <trkpt lat="48.22962" lon="-3.98496">
        <ele>87.5</ele>
        <time>2020-06-08T13:08:44Z</time>
      </trkpt>
      <trkpt lat="48.22962" lon="-3.9851">
        <ele>87</ele>
        <time>2020-06-08T13:08:45Z</time>
      </trkpt>
      <trkpt lat="48.22962" lon="-3.98523">
        <ele>86.5</ele>
        <time>2020-06-08T13:08:46Z</time>
      </trkpt>
      <trkpt lat="48.22962" lon="-3.98536">
        <ele>86.1</ele>
        <time>2020-06-08T13:08:47Z</time>
      </trkpt>
      <trkpt lat="48.22963" lon="-3.9855">
        <ele>85.7</ele>
        <time>2020-06-08T13:08:48Z</time>
      </trkpt>
      <trkpt lat="48.22964" lon="-3.98563">
        <ele>85.4</ele>
        <time>2020-06-08T13:08:49Z</time>
      </trkpt>
      <trkpt lat="48.22965" lon="-3.98577">
        <ele>85.1</ele>
        <time>2020-06-08T13:08:50Z</time>
      </trkpt>
      <trkpt lat="48.22967" lon="-3.98591">
        <ele>85</ele>
        <time>2020-06-08T13:08:51Z</time>
      </trkpt>
      <trkpt lat="48.22969" lon="-3.98604">
        <ele>88</ele>
        <time>2020-06-08T13:08:52Z</time>
      </trkpt>
      <trkpt lat="48.22971" lon="-3.98618">
        <ele>87.8</ele>
        <time>2020-06-08T13:08:53Z</time>
      </trkpt>
      <trkpt lat="48.22974" lon="-3.98631">
        <ele>87.3</ele>
        <time>2020-06-08T13:08:54Z</time>
      </trkpt>
      <trkpt lat="48.22977" lon="-3.98644">
        <ele>86.8</ele>
        <time>2020-06-08T13:08:55Z</time>
      </trkpt>
      <trkpt lat="48.2298" lon="-3.98657">
        <ele>86.3</ele>
        <time>2020-06-08T13:08:56Z</time>
      </trkpt>
      <trkpt lat="48.22985" lon="-3.98668">
        <ele>85.9</ele>
        <time>2020-06-08T13:08:57Z</time>
      </trkpt>
      <trkpt lat="48.2299" lon="-3.98679">
        <ele>85.5</ele>
        <time>2020-06-08T13:08:58Z</time>
      </trkpt>
      <trkpt lat="48.22994" lon="-3.9869">
        <ele>85.1</ele>
        <time>2020-06-08T13:08:59Z</time>
      </trkpt>
      <trkpt lat="48.23" lon="-3.987">
        <ele>84.7</ele>
        <time>2020-06-08T13:09:00Z</time>
      </trkpt>
      <trkpt lat="48.23006" lon="-3.98711">
        <ele>84.4</ele>
        <time>2020-06-08T13:09:01Z</time>
      </trkpt>
      <trkpt lat="48.23012" lon="-3.98721">
        <ele>84</ele>
        <time>2020-06-08T13:09:02Z</time>
      </trkpt>
      <trkpt lat="48.23018" lon="-3.9873">
        <ele>83.7</ele>
        <time>2020-06-08T13:09:03Z</time>
      </trkpt>
      <trkpt lat="48.23025" lon="-3.98738">
        <ele>83.4</ele>
        <time>2020-06-08T13:09:04Z</time>
      </trkpt>
      <trkpt lat="48.23032" lon="-3.98745">
        <ele>83.1</ele>
        <time>2020-06-08T13:09:05Z</time>
      </trkpt>
      <trkpt lat="48.23038" lon="-3.98752">
        <ele>82.8</ele>
        <time>2020-06-08T13:09:06Z</time>
      </trkpt>
      <trkpt lat="48.23044" lon="-3.98759">
        <ele>82.5</ele>
        <time>2020-06-08T13:09:07Z</time>
      </trkpt>
      <trkpt lat="48.23051" lon="-3.98765">
        <ele>82.2</ele>
        <time>2020-06-08T13:09:08Z</time>
      </trkpt>
      <trkpt lat="48.23058" lon="-3.98771">
        <ele>81.9</ele>
        <time>2020-06-08T13:09:09Z</time>
      </trkpt>
      <trkpt lat="48.23065" lon="-3.98777">
        <ele>81.6</ele>
        <time>2020-06-08T13:09:10Z</time>
      </trkpt>
      <trkpt lat="48.23072" lon="-3.98783">
        <ele>81.2</ele>
        <time>2020-06-08T13:09:11Z</time>
      </trkpt>
      <trkpt lat="48.23079" lon="-3.98789">
        <ele>80.9</ele>
        <time>2020-06-08T13:09:12Z</time>
      </trkpt>
      <trkpt lat="48.23086" lon="-3.98795">
        <ele>80.5</ele>
        <time>2020-06-08T13:09:13Z</time>
      </trkpt>
      <trkpt lat="48.23093" lon="-3.98802">
        <ele>80.2</ele>
        <time>2020-06-08T13:09:14Z</time>
      </trkpt>
      <trkpt lat="48.231" lon="-3.98809">
        <ele>79.8</ele>
        <time>2020-06-08T13:09:15Z</time>
      </trkpt>
      <trkpt lat="48.23106" lon="-3.98816">
        <ele>79.5</ele>
        <time>2020-06-08T13:09:16Z</time>
      </trkpt>
      <trkpt lat="48.23113" lon="-3.98823">
        <ele>79.3</ele>
        <time>2020-06-08T13:09:17Z</time>
      </trkpt>
      <trkpt lat="48.23119" lon="-3.98831">
        <ele>79.1</ele>
        <time>2020-06-08T13:09:18Z</time>
      </trkpt>
      <trkpt lat="48.23125" lon="-3.9884">
        <ele>78.9</ele>
        <time>2020-06-08T13:09:19Z</time>
      </trkpt>
      <trkpt lat="48.2313" lon="-3.98848">
        <ele>78.8</ele>
        <time>2020-06-08T13:09:20Z</time>
      </trkpt>
      <trkpt lat="48.23136" lon="-3.98856">
        <ele>78.6</ele>
        <time>2020-06-08T13:09:21Z</time>
      </trkpt>
      <trkpt lat="48.23141" lon="-3.98865">
        <ele>78.5</ele>
        <time>2020-06-08T13:09:22Z</time>
      </trkpt>
      <trkpt lat="48.23146" lon="-3.98874">
        <ele>78.3</ele>
        <time>2020-06-08T13:09:23Z</time>
      </trkpt>
      <trkpt lat="48.2315" lon="-3.98884">
        <ele>78.1</ele>
        <time>2020-06-08T13:09:24Z</time>
      </trkpt>
      <trkpt lat="48.23154" lon="-3.98894">
        <ele>77.9</ele>
        <time>2020-06-08T13:09:25Z</time>
      </trkpt>
      <trkpt lat="48.23156" lon="-3.98906">
        <ele>77.9</ele>
        <time>2020-06-08T13:09:26Z</time>
      </trkpt>
      <trkpt lat="48.23159" lon="-3.98917">
        <ele>77.9</ele>
        <time>2020-06-08T13:09:27Z</time>
      </trkpt>
      <trkpt lat="48.23161" lon="-3.98928">
        <ele>78</ele>
        <time>2020-06-08T13:09:28Z</time>
      </trkpt>
      <trkpt lat="48.23165" lon="-3.98937">
        <ele>78.2</ele>
        <time>2020-06-08T13:09:29Z</time>
      </trkpt>
      <trkpt lat="48.23167" lon="-3.98947">
        <ele>78.5</ele>
        <time>2020-06-08T13:09:30Z</time>
      </trkpt>
      <trkpt lat="48.23169" lon="-3.98956">
        <ele>78.8</ele>
        <time>2020-06-08T13:09:31Z</time>
      </trkpt>
      <trkpt lat="48.23171" lon="-3.98965">
        <ele>79</ele>
        <time>2020-06-08T13:09:32Z</time>
      </trkpt>
      <trkpt lat="48.23173" lon="-3.98973">
        <ele>79.3</ele>
        <time>2020-06-08T13:09:33Z</time>
      </trkpt>
      <trkpt lat="48.23175" lon="-3.9898">
        <ele>79.5</ele>
        <time>2020-06-08T13:09:34Z</time>
      </trkpt>
      <trkpt lat="48.23176" lon="-3.98987">
        <ele>79.8</ele>
        <time>2020-06-08T13:09:35Z</time>
      </trkpt>
      <trkpt lat="48.23178" lon="-3.98994">
        <ele>80.1</ele>
        <time>2020-06-08T13:09:36Z</time>
      </trkpt>
      <trkpt lat="48.2318" lon="-3.99">
        <ele>80.4</ele>
        <time>2020-06-08T13:09:37Z</time>
      </trkpt>
      <trkpt lat="48.23183" lon="-3.99005">
        <ele>80.7</ele>
        <time>2020-06-08T13:09:38Z</time>
      </trkpt>
      <trkpt lat="48.23185" lon="-3.9901">
        <ele>81</ele>
        <time>2020-06-08T13:09:39Z</time>
      </trkpt>
      <trkpt lat="48.23187" lon="-3.99014">
        <ele>81.3</ele>
        <time>2020-06-08T13:09:40Z</time>
      </trkpt>
      <trkpt lat="48.23188" lon="-3.99019">
        <ele>81.6</ele>
        <time>2020-06-08T13:09:41Z</time>
      </trkpt>
      <trkpt lat="48.23189" lon="-3.99023">
        <ele>81.8</ele>
        <time>2020-06-08T13:09:42Z</time>
      </trkpt>
      <trkpt lat="48.23191" lon="-3.99027">
        <ele>82</ele>
        <time>2020-06-08T13:09:43Z</time>
      </trkpt>
      <trkpt lat="48.23192" lon="-3.99031">
        <ele>82.3</ele>
        <time>2020-06-08T13:09:44Z</time>
      </trkpt>
      <trkpt lat="48.23194" lon="-3.99034">
        <ele>82.5</ele>
        <time>2020-06-08T13:09:45Z</time>
      </trkpt>
      <trkpt lat="48.23196" lon="-3.99038">
        <ele>82.8</ele>
        <time>2020-06-08T13:09:46Z</time>
      </trkpt>
      <trkpt lat="48.23199" lon="-3.99042">
        <ele>83</ele>
        <time>2020-06-08T13:09:47Z</time>
      </trkpt>
      <trkpt lat="48.232" lon="-3.99047">
        <ele>83.3</ele>
        <time>2020-06-08T13:09:48Z</time>
      </trkpt>
      <trkpt lat="48.23202" lon="-3.99052">
        <ele>83.6</ele>
        <time>2020-06-08T13:09:49Z</time>
      </trkpt>
      <trkpt lat="48.23203" lon="-3.99058">
        <ele>83.9</ele>
        <time>2020-06-08T13:09:50Z</time>
      </trkpt>
      <trkpt lat="48.23206" lon="-3.99064">
        <ele>84.2</ele>
        <time>2020-06-08T13:09:51Z</time>
      </trkpt>
      <trkpt lat="48.23209" lon="-3.9907">
        <ele>84.6</ele>
        <time>2020-06-08T13:09:52Z</time>
      </trkpt>
      <trkpt lat="48.23211" lon="-3.99076">
        <ele>84.9</ele>
        <time>2020-06-08T13:09:53Z</time>
      </trkpt>
      <trkpt lat="48.23213" lon="-3.99082">
        <ele>85.2</ele>
        <time>2020-06-08T13:09:54Z</time>
      </trkpt>
      <trkpt lat="48.23214" lon="-3.99087">
        <ele>85.4</ele>
        <time>2020-06-08T13:09:55Z</time>
      </trkpt>
      <trkpt lat="48.23216" lon="-3.99092">
        <ele>85.7</ele>
        <time>2020-06-08T13:09:56Z</time>
      </trkpt>
      <trkpt lat="48.23219" lon="-3.99098">
        <ele>86</ele>
        <time>2020-06-08T13:09:57Z</time>
      </trkpt>
      <trkpt lat="48.23221" lon="-3.99103">
        <ele>86.2</ele>
        <time>2020-06-08T13:09:58Z</time>
      </trkpt>
      <trkpt lat="48.23223" lon="-3.99108">
        <ele>86.4</ele>
        <time>2020-06-08T13:09:59Z</time>
      </trkpt>
      <trkpt lat="48.23225" lon="-3.99112">
        <ele>86.7</ele>
        <time>2020-06-08T13:10:00Z</time>
      </trkpt>
      <trkpt lat="48.23228" lon="-3.99118">
        <ele>86.9</ele>
        <time>2020-06-08T13:10:01Z</time>
      </trkpt>
      <trkpt lat="48.2323" lon="-3.99123">
        <ele>87.1</ele>
        <time>2020-06-08T13:10:02Z</time>
      </trkpt>
      <trkpt lat="48.23232" lon="-3.99128">
        <ele>87.4</ele>
        <time>2020-06-08T13:10:03Z</time>
      </trkpt>
      <trkpt lat="48.23235" lon="-3.99133">
        <ele>87.6</ele>
        <time>2020-06-08T13:10:04Z</time>
      </trkpt>
      <trkpt lat="48.23238" lon="-3.99136">
        <ele>87.8</ele>
        <time>2020-06-08T13:10:05Z</time>
      </trkpt>
      <trkpt lat="48.2324" lon="-3.9914">
        <ele>87.9</ele>
        <time>2020-06-08T13:10:06Z</time>
      </trkpt>
      <trkpt lat="48.23242" lon="-3.99145">
        <ele>88.1</ele>
        <time>2020-06-08T13:10:07Z</time>
      </trkpt>
      <trkpt lat="48.23243" lon="-3.9915">
        <ele>88.3</ele>
        <time>2020-06-08T13:10:08Z</time>
      </trkpt>
      <trkpt lat="48.23245" lon="-3.99156">
        <ele>88.5</ele>
        <time>2020-06-08T13:10:09Z</time>
      </trkpt>
      <trkpt lat="48.23247" lon="-3.99162">
        <ele>88.7</ele>
        <time>2020-06-08T13:10:10Z</time>
      </trkpt>
      <trkpt lat="48.23249" lon="-3.99169">
        <ele>88.9</ele>
        <time>2020-06-08T13:10:11Z</time>
      </trkpt>
      <trkpt lat="48.2325" lon="-3.99175">
        <ele>89.2</ele>
        <time>2020-06-08T13:10:12Z</time>
      </trkpt>
      <trkpt lat="48.23252" lon="-3.99181">
        <ele>89.4</ele>
        <time>2020-06-08T13:10:13Z</time>
      </trkpt>
      <trkpt lat="48.23254" lon="-3.99187">
        <ele>89.7</ele>
        <time>2020-06-08T13:10:14Z</time>
      </trkpt>
      <trkpt lat="48.23255" lon="-3.99193">
        <ele>89.9</ele>
        <time>2020-06-08T13:10:15Z</time>
      </trkpt>
      <trkpt lat="48.23257" lon="-3.99199">
        <ele>90.1</ele>
        <time>2020-06-08T13:10:16Z</time>
      </trkpt>
      <trkpt lat="48.23258" lon="-3.99201">
        <ele>90.2</ele>
        <time>2020-06-08T13:10:17Z</time>
      </trkpt>
      <trkpt lat="48.23259" lon="-3.99205">
        <ele>90.4</ele>
        <time>2020-06-08T13:10:18Z</time>
      </trkpt>
      <trkpt lat="48.23259" lon="-3.99211">
        <ele>90.6</ele>
        <time>2020-06-08T13:10:19Z</time>
      </trkpt>
      <trkpt lat="48.2326" lon="-3.99216">
        <ele>90.8</ele>
        <time>2020-06-08T13:10:20Z</time>
      </trkpt>
      <trkpt lat="48.2326" lon="-3.99221">
        <ele>91</ele>
        <time>2020-06-08T13:10:21Z</time>
      </trkpt>
      <trkpt lat="48.23261" lon="-3.99228">
        <ele>91.2</ele>
        <time>2020-06-08T13:10:22Z</time>
      </trkpt>
      <trkpt lat="48.23262" lon="-3.99234">
        <ele>91.4</ele>
        <time>2020-06-08T13:10:23Z</time>
      </trkpt>
      <trkpt lat="48.23263" lon="-3.9924">
        <ele>91.6</ele>
        <time>2020-06-08T13:10:24Z</time>
      </trkpt>
      <trkpt lat="48.23263" lon="-3.99245">
        <ele>91.8</ele>
        <time>2020-06-08T13:10:25Z</time>
      </trkpt>
      <trkpt lat="48.23264" lon="-3.9925">
        <ele>92</ele>
        <time>2020-06-08T13:10:26Z</time>
      </trkpt>
      <trkpt lat="48.23265" lon="-3.99256">
        <ele>92.2</ele>
        <time>2020-06-08T13:10:27Z</time>
      </trkpt>
      <trkpt lat="48.23265" lon="-3.99262">
        <ele>92.4</ele>
        <time>2020-06-08T13:10:28Z</time>
      </trkpt>
      <trkpt lat="48.23266" lon="-3.99267">
        <ele>92.5</ele>
        <time>2020-06-08T13:10:29Z</time>
      </trkpt>
      <trkpt lat="48.23267" lon="-3.99273">
        <ele>92.7</ele>
        <time>2020-06-08T13:10:30Z</time>
      </trkpt>
      <trkpt lat="48.23268" lon="-3.99279">
        <ele>92.8</ele>
        <time>2020-06-08T13:10:31Z</time>
      </trkpt>
      <trkpt lat="48.2327" lon="-3.99285">
        <ele>93</ele>
        <time>2020-06-08T13:10:32Z</time>
      </trkpt>
      <trkpt lat="48.23271" lon="-3.9929">
        <ele>93.1</ele>
        <time>2020-06-08T13:10:33Z</time>
      </trkpt>
      <trkpt lat="48.23271" lon="-3.99296">
        <ele>93.2</ele>
        <time>2020-06-08T13:10:34Z</time>
      </trkpt>
      <trkpt lat="48.23272" lon="-3.99301">
        <ele>93.3</ele>
        <time>2020-06-08T13:10:35Z</time>
      </trkpt>
      <trkpt lat="48.23273" lon="-3.99306">
        <ele>93.4</ele>
        <time>2020-06-08T13:10:36Z</time>
      </trkpt>
      <trkpt lat="48.23273" lon="-3.99312">
        <ele>93.5</ele>
        <time>2020-06-08T13:10:37Z</time>
      </trkpt>
      <trkpt lat="48.23275" lon="-3.99317">
        <ele>93.6</ele>
        <time>2020-06-08T13:10:38Z</time>
      </trkpt>
      <trkpt lat="48.23276" lon="-3.99321">
        <ele>93.7</ele>
        <time>2020-06-08T13:10:39Z</time>
      </trkpt>
      <trkpt lat="48.23277" lon="-3.99329">
        <ele>93.9</ele>
        <time>2020-06-08T13:10:40Z</time>
      </trkpt>
      <trkpt lat="48.23279" lon="-3.99335">
        <ele>94</ele>
        <time>2020-06-08T13:10:41Z</time>
      </trkpt>
      <trkpt lat="48.2328" lon="-3.99342">
        <ele>94.2</ele>
        <time>2020-06-08T13:10:42Z</time>
      </trkpt>
      <trkpt lat="48.2328" lon="-3.99349">
        <ele>94.4</ele>
        <time>2020-06-08T13:10:43Z</time>
      </trkpt>
      <trkpt lat="48.2328" lon="-3.99356">
        <ele>94.6</ele>
        <time>2020-06-08T13:10:44Z</time>
      </trkpt>
      <trkpt lat="48.23281" lon="-3.99361">
        <ele>94.7</ele>
        <time>2020-06-08T13:10:45Z</time>
      </trkpt>
      <trkpt lat="48.23281" lon="-3.99367">
        <ele>94.9</ele>
        <time>2020-06-08T13:10:46Z</time>
      </trkpt>
      <trkpt lat="48.23282" lon="-3.99374">
        <ele>95.2</ele>
        <time>2020-06-08T13:10:47Z</time>
      </trkpt>
      <trkpt lat="48.23284" lon="-3.9938">
        <ele>95.4</ele>
        <time>2020-06-08T13:10:48Z</time>
      </trkpt>
      <trkpt lat="48.23285" lon="-3.99386">
        <ele>95.6</ele>
        <time>2020-06-08T13:10:49Z</time>
      </trkpt>
      <trkpt lat="48.23286" lon="-3.99392">
        <ele>95.9</ele>
        <time>2020-06-08T13:10:50Z</time>
      </trkpt>
      <trkpt lat="48.23288" lon="-3.99397">
        <ele>96.1</ele>
        <time>2020-06-08T13:10:51Z</time>
      </trkpt>
      <trkpt lat="48.23289" lon="-3.99402">
        <ele>96.3</ele>
        <time>2020-06-08T13:10:52Z</time>
      </trkpt>
      <trkpt lat="48.23291" lon="-3.99407">
        <ele>96.5</ele>
        <time>2020-06-08T13:10:53Z</time>
      </trkpt>
      <trkpt lat="48.23293" lon="-3.99411">
        <ele>96.7</ele>
        <time>2020-06-08T13:10:54Z</time>
      </trkpt>
      <trkpt lat="48.23294" lon="-3.99416">
        <ele>96.9</ele>
        <time>2020-06-08T13:10:55Z</time>
      </trkpt>
      <trkpt lat="48.23297" lon="-3.99419">
        <ele>97</ele>
        <time>2020-06-08T13:10:56Z</time>
      </trkpt>
      <trkpt lat="48.23297" lon="-3.99421">
        <ele>97.1</ele>
        <time>2020-06-08T13:10:57Z</time>
      </trkpt>
      <trkpt lat="48.23299" lon="-3.99425">
        <ele>97.3</ele>
        <time>2020-06-08T13:10:58Z</time>
      </trkpt>
      <trkpt lat="48.233" lon="-3.99429">
        <ele>97.4</ele>
        <time>2020-06-08T13:10:59Z</time>
      </trkpt>
      <trkpt lat="48.23302" lon="-3.99433">
        <ele>97.4</ele>
        <time>2020-06-08T13:11:00Z</time>
      </trkpt>
      <trkpt lat="48.23304" lon="-3.99436">
        <ele>97.5</ele>
        <time>2020-06-08T13:11:01Z</time>
      </trkpt>
      <trkpt lat="48.23307" lon="-3.9944">
        <ele>97.6</ele>
        <time>2020-06-08T13:11:02Z</time>
      </trkpt>
      <trkpt lat="48.23309" lon="-3.99442">
        <ele>97.7</ele>
        <time>2020-06-08T13:11:03Z</time>
      </trkpt>
      <trkpt lat="48.23311" lon="-3.99444">
        <ele>97.7</ele>
        <time>2020-06-08T13:11:04Z</time>
      </trkpt>
      <trkpt lat="48.23313" lon="-3.99446">
        <ele>97.8</ele>
        <time>2020-06-08T13:11:05Z</time>
      </trkpt>
      <trkpt lat="48.23315" lon="-3.99449">
        <ele>97.9</ele>
        <time>2020-06-08T13:11:06Z</time>
      </trkpt>
      <trkpt lat="48.23318" lon="-3.99454">
        <ele>98</ele>
        <time>2020-06-08T13:11:07Z</time>
      </trkpt>
      <trkpt lat="48.23322" lon="-3.99459">
        <ele>98.2</ele>
        <time>2020-06-08T13:11:08Z</time>
      </trkpt>
      <trkpt lat="48.23324" lon="-3.99463">
        <ele>98.3</ele>
        <time>2020-06-08T13:11:09Z</time>
      </trkpt>
      <trkpt lat="48.23326" lon="-3.99466">
        <ele>98.4</ele>
        <time>2020-06-08T13:11:10Z</time>
      </trkpt>
      <trkpt lat="48.23329" lon="-3.99469">
        <ele>98.5</ele>
        <time>2020-06-08T13:11:11Z</time>
      </trkpt>
      <trkpt lat="48.23332" lon="-3.99473">
        <ele>98.7</ele>
        <time>2020-06-08T13:11:12Z</time>
      </trkpt>
      <trkpt lat="48.23335" lon="-3.99478">
        <ele>98.8</ele>
        <time>2020-06-08T13:11:13Z</time>
      </trkpt>
      <trkpt lat="48.23338" lon="-3.99481">
        <ele>99</ele>
        <time>2020-06-08T13:11:14Z</time>
      </trkpt>
      <trkpt lat="48.23341" lon="-3.99483">
        <ele>99</ele>
        <time>2020-06-08T13:11:15Z</time>
      </trkpt>
      <trkpt lat="48.23344" lon="-3.99487">
        <ele>99.2</ele>
        <time>2020-06-08T13:11:16Z</time>
      </trkpt>
      <trkpt lat="48.23346" lon="-3.99488">
        <ele>99.2</ele>
        <time>2020-06-08T13:11:17Z</time>
      </trkpt>
      <trkpt lat="48.23349" lon="-3.99492">
        <ele>99.3</ele>
        <time>2020-06-08T13:11:18Z</time>
      </trkpt>
      <trkpt lat="48.23352" lon="-3.99496">
        <ele>99.5</ele>
        <time>2020-06-08T13:11:19Z</time>
      </trkpt>
      <trkpt lat="48.23354" lon="-3.995">
        <ele>99.6</ele>
        <time>2020-06-08T13:11:20Z</time>
      </trkpt>
      <trkpt lat="48.23356" lon="-3.99504">
        <ele>99.7</ele>
        <time>2020-06-08T13:11:21Z</time>
      </trkpt>
      <trkpt lat="48.23358" lon="-3.99507">
        <ele>99.9</ele>
        <time>2020-06-08T13:11:22Z</time>
      </trkpt>
      <trkpt lat="48.23361" lon="-3.9951">
        <ele>100</ele>
        <time>2020-06-08T13:11:23Z</time>
      </trkpt>
      <trkpt lat="48.23363" lon="-3.99513">
        <ele>100.1</ele>
        <time>2020-06-08T13:11:24Z</time>
      </trkpt>
      <trkpt lat="48.23365" lon="-3.99516">
        <ele>100.2</ele>
        <time>2020-06-08T13:11:25Z</time>
      </trkpt>
      <trkpt lat="48.23368" lon="-3.99519">
        <ele>100.4</ele>
        <time>2020-06-08T13:11:26Z</time>
      </trkpt>
      <trkpt lat="48.23371" lon="-3.99523">
        <ele>100.5</ele>
        <time>2020-06-08T13:11:27Z</time>
      </trkpt>
      <trkpt lat="48.23374" lon="-3.99527">
        <ele>100.7</ele>
        <time>2020-06-08T13:11:28Z</time>
      </trkpt>
      <trkpt lat="48.23377" lon="-3.99531">
        <ele>100.8</ele>
        <time>2020-06-08T13:11:29Z</time>
      </trkpt>
      <trkpt lat="48.2338" lon="-3.99534">
        <ele>100.9</ele>
        <time>2020-06-08T13:11:30Z</time>
      </trkpt>
      <trkpt lat="48.23383" lon="-3.99538">
        <ele>101.1</ele>
        <time>2020-06-08T13:11:31Z</time>
      </trkpt>
      <trkpt lat="48.23385" lon="-3.99541">
        <ele>101.2</ele>
        <time>2020-06-08T13:11:32Z</time>
      </trkpt>
      <trkpt lat="48.23387" lon="-3.99544">
        <ele>101.3</ele>
        <time>2020-06-08T13:11:33Z</time>
      </trkpt>
      <trkpt lat="48.2339" lon="-3.99547">
        <ele>101.5</ele>
        <time>2020-06-08T13:11:34Z</time>
      </trkpt>
      <trkpt lat="48.23392" lon="-3.9955">
        <ele>101.6</ele>
        <time>2020-06-08T13:11:35Z</time>
      </trkpt>
      <trkpt lat="48.23395" lon="-3.99553">
        <ele>101.7</ele>
        <time>2020-06-08T13:11:36Z</time>
      </trkpt>
      <trkpt lat="48.23398" lon="-3.99556">
        <ele>101.8</ele>
        <time>2020-06-08T13:11:37Z</time>
      </trkpt>
      <trkpt lat="48.23401" lon="-3.9956">
        <ele>102</ele>
        <time>2020-06-08T13:11:38Z</time>
      </trkpt>
      <trkpt lat="48.23404" lon="-3.99563">
        <ele>102.2</ele>
        <time>2020-06-08T13:11:39Z</time>
      </trkpt>
      <trkpt lat="48.23406" lon="-3.99566">
        <ele>102.3</ele>
        <time>2020-06-08T13:11:40Z</time>
      </trkpt>
      <trkpt lat="48.23408" lon="-3.99568">
        <ele>102.4</ele>
        <time>2020-06-08T13:11:41Z</time>
      </trkpt>
      <trkpt lat="48.2341" lon="-3.99572">
        <ele>102.6</ele>
        <time>2020-06-08T13:11:42Z</time>
      </trkpt>
      <trkpt lat="48.23413" lon="-3.99576">
        <ele>102.7</ele>
        <time>2020-06-08T13:11:43Z</time>
      </trkpt>
      <trkpt lat="48.23416" lon="-3.99581">
        <ele>102.9</ele>
        <time>2020-06-08T13:11:44Z</time>
      </trkpt>
      <trkpt lat="48.23418" lon="-3.99585">
        <ele>103.1</ele>
        <time>2020-06-08T13:11:45Z</time>
      </trkpt>
      <trkpt lat="48.23421" lon="-3.99589">
        <ele>103.3</ele>
        <time>2020-06-08T13:11:46Z</time>
      </trkpt>
      <trkpt lat="48.23423" lon="-3.99593">
        <ele>103.5</ele>
        <time>2020-06-08T13:11:47Z</time>
      </trkpt>
      <trkpt lat="48.23425" lon="-3.99597">
        <ele>103.7</ele>
        <time>2020-06-08T13:11:48Z</time>
      </trkpt>
      <trkpt lat="48.23426" lon="-3.99599">
        <ele>103.8</ele>
        <time>2020-06-08T13:11:49Z</time>
      </trkpt>
      <trkpt lat="48.23427" lon="-3.99604">
        <ele>104.1</ele>
        <time>2020-06-08T13:11:50Z</time>
      </trkpt>
      <trkpt lat="48.23429" lon="-3.99609">
        <ele>104.3</ele>
        <time>2020-06-08T13:11:51Z</time>
      </trkpt>
      <trkpt lat="48.2343" lon="-3.99615">
        <ele>104.6</ele>
        <time>2020-06-08T13:11:52Z</time>
      </trkpt>
      <trkpt lat="48.23431" lon="-3.99617">
        <ele>104.7</ele>
        <time>2020-06-08T13:11:53Z</time>
      </trkpt>
      <trkpt lat="48.23432" lon="-3.99622">
        <ele>105</ele>
        <time>2020-06-08T13:11:54Z</time>
      </trkpt>
      <trkpt lat="48.23433" lon="-3.99627">
        <ele>105.3</ele>
        <time>2020-06-08T13:11:55Z</time>
      </trkpt>
      <trkpt lat="48.23433" lon="-3.99629">
        <ele>105.4</ele>
        <time>2020-06-08T13:11:56Z</time>
      </trkpt>
      <trkpt lat="48.23433" lon="-3.99633">
        <ele>105.6</ele>
        <time>2020-06-08T13:11:57Z</time>
      </trkpt>
      <trkpt lat="48.23434" lon="-3.99638">
        <ele>105.9</ele>
        <time>2020-06-08T13:11:58Z</time>
      </trkpt>
      <trkpt lat="48.23434" lon="-3.99644">
        <ele>106.2</ele>
        <time>2020-06-08T13:11:59Z</time>
      </trkpt>
      <trkpt lat="48.23434" lon="-3.99645">
        <ele>106.2</ele>
        <time>2020-06-08T13:12:00Z</time>
      </trkpt>
      <trkpt lat="48.23433" lon="-3.99651">
        <ele>106.5</ele>
        <time>2020-06-08T13:12:01Z</time>
      </trkpt>
      <trkpt lat="48.23432" lon="-3.99653">
        <ele>106.7</ele>
        <time>2020-06-08T13:12:02Z</time>
      </trkpt>
      <trkpt lat="48.23431" lon="-3.99659">
        <ele>107</ele>
        <time>2020-06-08T13:12:03Z</time>
      </trkpt>
      <trkpt lat="48.23431" lon="-3.99665">
        <ele>107.3</ele>
        <time>2020-06-08T13:12:04Z</time>
      </trkpt>
      <trkpt lat="48.23431" lon="-3.9967">
        <ele>107.6</ele>
        <time>2020-06-08T13:12:05Z</time>
      </trkpt>
      <trkpt lat="48.23431" lon="-3.99671">
        <ele>107.7</ele>
        <time>2020-06-08T13:12:06Z</time>
      </trkpt>
      <trkpt lat="48.2343" lon="-3.99676">
        <ele>107.9</ele>
        <time>2020-06-08T13:12:07Z</time>
      </trkpt>
      <trkpt lat="48.23429" lon="-3.99682">
        <ele>108.3</ele>
        <time>2020-06-08T13:12:08Z</time>
      </trkpt>
      <trkpt lat="48.23428" lon="-3.99687">
        <ele>108.6</ele>
        <time>2020-06-08T13:12:09Z</time>
      </trkpt>
      <trkpt lat="48.23427" lon="-3.99692">
        <ele>108.9</ele>
        <time>2020-06-08T13:12:10Z</time>
      </trkpt>
      <trkpt lat="48.23426" lon="-3.99696">
        <ele>109.2</ele>
        <time>2020-06-08T13:12:11Z</time>
      </trkpt>
      <trkpt lat="48.23425" lon="-3.997">
        <ele>109.5</ele>
        <time>2020-06-08T13:12:12Z</time>
      </trkpt>
      <trkpt lat="48.23425" lon="-3.99702">
        <ele>109.6</ele>
        <time>2020-06-08T13:12:13Z</time>
      </trkpt>
      <trkpt lat="48.23423" lon="-3.99707">
        <ele>109.9</ele>
        <time>2020-06-08T13:12:14Z</time>
      </trkpt>
      <trkpt lat="48.23422" lon="-3.99711">
        <ele>110.2</ele>
        <time>2020-06-08T13:12:15Z</time>
      </trkpt>
      <trkpt lat="48.2342" lon="-3.99717">
        <ele>110.6</ele>
        <time>2020-06-08T13:12:16Z</time>
      </trkpt>
      <trkpt lat="48.2342" lon="-3.99718">
        <ele>110.7</ele>
        <time>2020-06-08T13:12:17Z</time>
      </trkpt>
      <trkpt lat="48.23418" lon="-3.99724">
        <ele>111.1</ele>
        <time>2020-06-08T13:12:18Z</time>
      </trkpt>
      <trkpt lat="48.23417" lon="-3.99728">
        <ele>111.3</ele>
        <time>2020-06-08T13:12:19Z</time>
      </trkpt>
      <trkpt lat="48.23416" lon="-3.99733">
        <ele>111.6</ele>
        <time>2020-06-08T13:12:20Z</time>
      </trkpt>
      <trkpt lat="48.23415" lon="-3.99736">
        <ele>111.8</ele>
        <time>2020-06-08T13:12:21Z</time>
      </trkpt>
      <trkpt lat="48.23416" lon="-3.99737">
        <ele>111.9</ele>
        <time>2020-06-08T13:12:22Z</time>
      </trkpt>
      <trkpt lat="48.23416" lon="-3.99742">
        <ele>112.2</ele>
        <time>2020-06-08T13:12:23Z</time>
      </trkpt>
      <trkpt lat="48.23416" lon="-3.99743">
        <ele>112.3</ele>
        <time>2020-06-08T13:12:24Z</time>
      </trkpt>
      <trkpt lat="48.23415" lon="-3.99747">
        <ele>112.5</ele>
        <time>2020-06-08T13:12:25Z</time>
      </trkpt>
      <trkpt lat="48.23414" lon="-3.99749">
        <ele>112.6</ele>
        <time>2020-06-08T13:12:26Z</time>
      </trkpt>
      <trkpt lat="48.23413" lon="-3.99754">
        <ele>113</ele>
        <time>2020-06-08T13:12:27Z</time>
      </trkpt>
      <trkpt lat="48.23411" lon="-3.99759">
        <ele>113.3</ele>
        <time>2020-06-08T13:12:28Z</time>
      </trkpt>
      <trkpt lat="48.2341" lon="-3.99764">
        <ele>114</ele>
        <time>2020-06-08T13:12:29Z</time>
      </trkpt>
      <trkpt lat="48.2341" lon="-3.99765">
        <ele>114.3</ele>
        <time>2020-06-08T13:12:30Z</time>
      </trkpt>
      <trkpt lat="48.23409" lon="-3.9977">
        <ele>115</ele>
        <time>2020-06-08T13:12:31Z</time>
      </trkpt>
      <trkpt lat="48.23408" lon="-3.99771">
        <ele>115.3</ele>
        <time>2020-06-08T13:12:32Z</time>
      </trkpt>
      <trkpt lat="48.23409" lon="-3.99774">
        <ele>115.7</ele>
        <time>2020-06-08T13:12:33Z</time>
      </trkpt>
      <trkpt lat="48.23409" lon="-3.99776">
        <ele>115.9</ele>
        <time>2020-06-08T13:12:34Z</time>
      </trkpt>
      <trkpt lat="48.23408" lon="-3.99781">
        <ele>116.6</ele>
        <time>2020-06-08T13:12:35Z</time>
      </trkpt>
      <trkpt lat="48.23407" lon="-3.99783">
        <ele>116.8</ele>
        <time>2020-06-08T13:12:36Z</time>
      </trkpt>
      <trkpt lat="48.23406" lon="-3.99788">
        <ele>117.2</ele>
        <time>2020-06-08T13:12:37Z</time>
      </trkpt>
      <trkpt lat="48.23405" lon="-3.99792">
        <ele>117.6</ele>
        <time>2020-06-08T13:12:38Z</time>
      </trkpt>
      <trkpt lat="48.23405" lon="-3.99794">
        <ele>117.8</ele>
        <time>2020-06-08T13:12:39Z</time>
      </trkpt>
      <trkpt lat="48.23404" lon="-3.99798">
        <ele>118.1</ele>
        <time>2020-06-08T13:12:40Z</time>
      </trkpt>
      <trkpt lat="48.23404" lon="-3.998">
        <ele>118.2</ele>
        <time>2020-06-08T13:12:41Z</time>
      </trkpt>
      <trkpt lat="48.23403" lon="-3.99804">
        <ele>118.6</ele>
        <time>2020-06-08T13:12:42Z</time>
      </trkpt>
      <trkpt lat="48.23402" lon="-3.99806">
        <ele>118.7</ele>
        <time>2020-06-08T13:12:43Z</time>
      </trkpt>
      <trkpt lat="48.234" lon="-3.9981">
        <ele>119</ele>
        <time>2020-06-08T13:12:44Z</time>
      </trkpt>
      <trkpt lat="48.234" lon="-3.99815">
        <ele>119.2</ele>
        <time>2020-06-08T13:12:45Z</time>
      </trkpt>
      <trkpt lat="48.23398" lon="-3.9982">
        <ele>119.6</ele>
        <time>2020-06-08T13:12:46Z</time>
      </trkpt>
      <trkpt lat="48.23397" lon="-3.99822">
        <ele>119.7</ele>
        <time>2020-06-08T13:12:47Z</time>
      </trkpt>
      <trkpt lat="48.23396" lon="-3.99826">
        <ele>119.9</ele>
        <time>2020-06-08T13:12:48Z</time>
      </trkpt>
      <trkpt lat="48.23394" lon="-3.9983">
        <ele>120.1</ele>
        <time>2020-06-08T13:12:49Z</time>
      </trkpt>
      <trkpt lat="48.23393" lon="-3.99834">
        <ele>120.3</ele>
        <time>2020-06-08T13:12:50Z</time>
      </trkpt>
      <trkpt lat="48.23392" lon="-3.99835">
        <ele>120.3</ele>
        <time>2020-06-08T13:12:51Z</time>
      </trkpt>
      <trkpt lat="48.2339" lon="-3.99839">
        <ele>120.5</ele>
        <time>2020-06-08T13:12:52Z</time>
      </trkpt>
      <trkpt lat="48.23389" lon="-3.9984">
        <ele>120.6</ele>
        <time>2020-06-08T13:12:53Z</time>
      </trkpt>
      <trkpt lat="48.23388" lon="-3.99844">
        <ele>120.7</ele>
        <time>2020-06-08T13:12:54Z</time>
      </trkpt>
      <trkpt lat="48.23386" lon="-3.99846">
        <ele>120.8</ele>
        <time>2020-06-08T13:12:55Z</time>
      </trkpt>
      <trkpt lat="48.23385" lon="-3.99848">
        <ele>120.8</ele>
        <time>2020-06-08T13:12:56Z</time>
      </trkpt>
      <trkpt lat="48.23384" lon="-3.99852">
        <ele>120.9</ele>
        <time>2020-06-08T13:12:57Z</time>
      </trkpt>
      <trkpt lat="48.23381" lon="-3.99854">
        <ele>121</ele>
        <time>2020-06-08T13:12:58Z</time>
      </trkpt>
      <trkpt lat="48.2338" lon="-3.99856">
        <ele>121</ele>
        <time>2020-06-08T13:12:59Z</time>
      </trkpt>
      <trkpt lat="48.23379" lon="-3.99856">
        <ele>121.1</ele>
        <time>2020-06-08T13:13:00Z</time>
      </trkpt>
      <trkpt lat="48.23378" lon="-3.99857">
        <ele>121.1</ele>
        <time>2020-06-08T13:13:01Z</time>
      </trkpt>
      <trkpt lat="48.23377" lon="-3.99859">
        <ele>121.1</ele>
        <time>2020-06-08T13:13:02Z</time>
      </trkpt>
      <trkpt lat="48.23377" lon="-3.99861">
        <ele>121.1</ele>
        <time>2020-06-08T13:13:03Z</time>
      </trkpt>
      <trkpt lat="48.23377" lon="-3.99863">
        <ele>121.1</ele>
        <time>2020-06-08T13:13:04Z</time>
      </trkpt>
      <trkpt lat="48.23377" lon="-3.99864">
        <ele>121.1</ele>
        <time>2020-06-08T13:13:05Z</time>
      </trkpt>
      <trkpt lat="48.23376" lon="-3.99866">
        <ele>121.1</ele>
        <time>2020-06-08T13:13:06Z</time>
      </trkpt>
      <trkpt lat="48.23376" lon="-3.99867">
        <ele>121.1</ele>
        <time>2020-06-08T13:13:07Z</time>
      </trkpt>
      <trkpt lat="48.23375" lon="-3.99868">
        <ele>121.1</ele>
        <time>2020-06-08T13:13:08Z</time>
      </trkpt>
      <trkpt lat="48.23374" lon="-3.9987">
        <ele>121.1</ele>
        <time>2020-06-08T13:13:09Z</time>
      </trkpt>
      <trkpt lat="48.23374" lon="-3.99872">
        <ele>121.1</ele>
        <time>2020-06-08T13:13:10Z</time>
      </trkpt>
      <trkpt lat="48.23372" lon="-3.99874">
        <ele>121.1</ele>
        <time>2020-06-08T13:13:11Z</time>
      </trkpt>
      <trkpt lat="48.23372" lon="-3.99876">
        <ele>121.1</ele>
        <time>2020-06-08T13:13:12Z</time>
      </trkpt>
      <trkpt lat="48.23371" lon="-3.99878">
        <ele>121.1</ele>
        <time>2020-06-08T13:13:13Z</time>
      </trkpt>
      <trkpt lat="48.2337" lon="-3.9988">
        <ele>121.1</ele>
        <time>2020-06-08T13:13:14Z</time>
      </trkpt>
      <trkpt lat="48.23369" lon="-3.99882">
        <ele>121</ele>
        <time>2020-06-08T13:13:15Z</time>
      </trkpt>
      <trkpt lat="48.23368" lon="-3.99883">
        <ele>121</ele>
        <time>2020-06-08T13:13:16Z</time>
      </trkpt>
      <trkpt lat="48.23367" lon="-3.99887">
        <ele>121</ele>
        <time>2020-06-08T13:13:17Z</time>
      </trkpt>
      <trkpt lat="48.23367" lon="-3.99888">
        <ele>121</ele>
        <time>2020-06-08T13:13:18Z</time>
      </trkpt>
      <trkpt lat="48.23366" lon="-3.9989">
        <ele>121</ele>
        <time>2020-06-08T13:13:19Z</time>
      </trkpt>
      <trkpt lat="48.23365" lon="-3.99892">
        <ele>121</ele>
        <time>2020-06-08T13:13:20Z</time>
      </trkpt>
      <trkpt lat="48.23363" lon="-3.99895">
        <ele>120.9</ele>
        <time>2020-06-08T13:13:21Z</time>
      </trkpt>
      <trkpt lat="48.23362" lon="-3.99899">
        <ele>120.9</ele>
        <time>2020-06-08T13:13:22Z</time>
      </trkpt>
      <trkpt lat="48.23361" lon="-3.99903">
        <ele>120.9</ele>
        <time>2020-06-08T13:13:23Z</time>
      </trkpt>
      <trkpt lat="48.23361" lon="-3.99906">
        <ele>120.8</ele>
        <time>2020-06-08T13:13:24Z</time>
      </trkpt>
      <trkpt lat="48.23359" lon="-3.99907">
        <ele>120.8</ele>
        <time>2020-06-08T13:13:25Z</time>
      </trkpt>
      <trkpt lat="48.23356" lon="-3.99911">
        <ele>120.8</ele>
        <time>2020-06-08T13:13:26Z</time>
      </trkpt>
      <trkpt lat="48.23355" lon="-3.99912">
        <ele>120.8</ele>
        <time>2020-06-08T13:13:27Z</time>
      </trkpt>
      <trkpt lat="48.23353" lon="-3.99915">
        <ele>120.7</ele>
        <time>2020-06-08T13:13:28Z</time>
      </trkpt>
      <trkpt lat="48.23352" lon="-3.99919">
        <ele>120.7</ele>
        <time>2020-06-08T13:13:29Z</time>
      </trkpt>
      <trkpt lat="48.23351" lon="-3.99923">
        <ele>120.7</ele>
        <time>2020-06-08T13:13:30Z</time>
      </trkpt>
      <trkpt lat="48.23349" lon="-3.99927">
        <ele>120.7</ele>
        <time>2020-06-08T13:13:31Z</time>
      </trkpt>
      <trkpt lat="48.23346" lon="-3.99932">
        <ele>120.6</ele>
        <time>2020-06-08T13:13:32Z</time>
      </trkpt>
      <trkpt lat="48.23345" lon="-3.99934">
        <ele>120.6</ele>
        <time>2020-06-08T13:13:33Z</time>
      </trkpt>
      <trkpt lat="48.23342" lon="-3.99939">
        <ele>120.6</ele>
        <time>2020-06-08T13:13:34Z</time>
      </trkpt>
      <trkpt lat="48.23341" lon="-3.99942">
        <ele>120.6</ele>
        <time>2020-06-08T13:13:35Z</time>
      </trkpt>
      <trkpt lat="48.23339" lon="-3.99945">
        <ele>120.6</ele>
        <time>2020-06-08T13:13:36Z</time>
      </trkpt>
      <trkpt lat="48.23338" lon="-3.99947">
        <ele>120.6</ele>
        <time>2020-06-08T13:13:37Z</time>
      </trkpt>
      <trkpt lat="48.23336" lon="-3.99949">
        <ele>120.6</ele>
        <time>2020-06-08T13:13:38Z</time>
      </trkpt>
      <trkpt lat="48.23336" lon="-3.9995">
        <ele>120.6</ele>
        <time>2020-06-08T13:13:39Z</time>
      </trkpt>
      <trkpt lat="48.23334" lon="-3.99953">
        <ele>120.6</ele>
        <time>2020-06-08T13:13:40Z</time>
      </trkpt>
      <trkpt lat="48.23333" lon="-3.99954">
        <ele>120.7</ele>
        <time>2020-06-08T13:13:41Z</time>
      </trkpt>
      <trkpt lat="48.23334" lon="-3.99954">
        <ele>120.7</ele>
        <time>2020-06-08T13:13:42Z</time>
      </trkpt>
      <trkpt lat="48.23333" lon="-3.99958">
        <ele>120.7</ele>
        <time>2020-06-08T13:13:43Z</time>
      </trkpt>
      <trkpt lat="48.23333" lon="-3.99965">
        <ele>120.8</ele>
        <time>2020-06-08T13:13:44Z</time>
      </trkpt>
      <trkpt lat="48.23333" lon="-3.99972">
        <ele>120.9</ele>
        <time>2020-06-08T13:13:45Z</time>
      </trkpt>
      <trkpt lat="48.23334" lon="-3.99976">
        <ele>120.9</ele>
        <time>2020-06-08T13:13:46Z</time>
      </trkpt>
      <trkpt lat="48.23334" lon="-3.99978">
        <ele>121</ele>
        <time>2020-06-08T13:13:47Z</time>
      </trkpt>
      <trkpt lat="48.23334" lon="-3.99979">
        <ele>121</ele>
        <time>2020-06-08T13:13:48Z</time>
      </trkpt>
      <trkpt lat="48.23334" lon="-3.99982">
        <ele>121.1</ele>
        <time>2020-06-08T13:13:49Z</time>
      </trkpt>
      <trkpt lat="48.23333" lon="-3.99983">
        <ele>121.1</ele>
        <time>2020-06-08T13:13:50Z</time>
      </trkpt>
      <trkpt lat="48.23333" lon="-3.99988">
        <ele>121.2</ele>
        <time>2020-06-08T13:13:51Z</time>
      </trkpt>
      <trkpt lat="48.23333" lon="-3.99992">
        <ele>121.3</ele>
        <time>2020-06-08T13:13:52Z</time>
      </trkpt>
      <trkpt lat="48.23333" lon="-3.99994">
        <ele>121.4</ele>
        <time>2020-06-08T13:13:53Z</time>
      </trkpt>
      <trkpt lat="48.23333" lon="-3.99997">
        <ele>121.5</ele>
        <time>2020-06-08T13:13:54Z</time>
      </trkpt>
      <trkpt lat="48.23333" lon="-4">
        <ele>121.5</ele>
        <time>2020-06-08T13:13:55Z</time>
      </trkpt>
      <trkpt lat="48.23334" lon="-4.00004">
        <ele>121.7</ele>
        <time>2020-06-08T13:13:56Z</time>
      </trkpt>
      <trkpt lat="48.23334" lon="-4.00005">
        <ele>121.7</ele>
        <time>2020-06-08T13:13:57Z</time>
      </trkpt>
      <trkpt lat="48.23333" lon="-4.0001">
        <ele>121.8</ele>
        <time>2020-06-08T13:13:58Z</time>
      </trkpt>
      <trkpt lat="48.23334" lon="-4.00011">
        <ele>121.9</ele>
        <time>2020-06-08T13:13:59Z</time>
      </trkpt>
      <trkpt lat="48.23334" lon="-4.00016">
        <ele>122.1</ele>
        <time>2020-06-08T13:14:00Z</time>
      </trkpt>
      <trkpt lat="48.23335" lon="-4.00021">
        <ele>122.3</ele>
        <time>2020-06-08T13:14:01Z</time>
      </trkpt>
      <trkpt lat="48.23335" lon="-4.00023">
        <ele>122.3</ele>
        <time>2020-06-08T13:14:02Z</time>
      </trkpt>
      <trkpt lat="48.23335" lon="-4.00025">
        <ele>122.4</ele>
        <time>2020-06-08T13:14:03Z</time>
      </trkpt>
      <trkpt lat="48.23335" lon="-4.00028">
        <ele>122.5</ele>
        <time>2020-06-08T13:14:04Z</time>
      </trkpt>
      <trkpt lat="48.23335" lon="-4.00033">
        <ele>122.7</ele>
        <time>2020-06-08T13:14:05Z</time>
      </trkpt>
      <trkpt lat="48.23335" lon="-4.00034">
        <ele>122.7</ele>
        <time>2020-06-08T13:14:06Z</time>
      </trkpt>
      <trkpt lat="48.23336" lon="-4.00038">
        <ele>122.9</ele>
        <time>2020-06-08T13:14:07Z</time>
      </trkpt>
      <trkpt lat="48.23336" lon="-4.0004">
        <ele>122.9</ele>
        <time>2020-06-08T13:14:08Z</time>
      </trkpt>
      <trkpt lat="48.23336" lon="-4.00045">
        <ele>123.1</ele>
        <time>2020-06-08T13:14:09Z</time>
      </trkpt>
      <trkpt lat="48.23336" lon="-4.00047">
        <ele>123.2</ele>
        <time>2020-06-08T13:14:10Z</time>
      </trkpt>
      <trkpt lat="48.23338" lon="-4.00051">
        <ele>123.4</ele>
        <time>2020-06-08T13:14:11Z</time>
      </trkpt>
      <trkpt lat="48.23338" lon="-4.00052">
        <ele>123.4</ele>
        <time>2020-06-08T13:14:12Z</time>
      </trkpt>
      <trkpt lat="48.23338" lon="-4.00057">
        <ele>123.6</ele>
        <time>2020-06-08T13:14:13Z</time>
      </trkpt>
      <trkpt lat="48.23338" lon="-4.00059">
        <ele>123.7</ele>
        <time>2020-06-08T13:14:14Z</time>
      </trkpt>
      <trkpt lat="48.23338" lon="-4.00061">
        <ele>123.8</ele>
        <time>2020-06-08T13:14:15Z</time>
      </trkpt>
      <trkpt lat="48.23337" lon="-4.00063">
        <ele>123.9</ele>
        <time>2020-06-08T13:14:16Z</time>
      </trkpt>
      <trkpt lat="48.23336" lon="-4.00066">
        <ele>124</ele>
        <time>2020-06-08T13:14:17Z</time>
      </trkpt>
      <trkpt lat="48.23336" lon="-4.00067">
        <ele>124.1</ele>
        <time>2020-06-08T13:14:18Z</time>
      </trkpt>
      <trkpt lat="48.23335" lon="-4.00068">
        <ele>124.2</ele>
        <time>2020-06-08T13:14:19Z</time>
      </trkpt>
      <trkpt lat="48.23335" lon="-4.00073">
        <ele>124.4</ele>
        <time>2020-06-08T13:14:20Z</time>
      </trkpt>
      <trkpt lat="48.23335" lon="-4.00075">
        <ele>124.5</ele>
        <time>2020-06-08T13:14:21Z</time>
      </trkpt>
      <trkpt lat="48.23336" lon="-4.00077">
        <ele>124.6</ele>
        <time>2020-06-08T13:14:22Z</time>
      </trkpt>
      <trkpt lat="48.23337" lon="-4.00079">
        <ele>124.7</ele>
        <time>2020-06-08T13:14:23Z</time>
      </trkpt>
      <trkpt lat="48.23338" lon="-4.00082">
        <ele>124.9</ele>
        <time>2020-06-08T13:14:24Z</time>
      </trkpt>
      <trkpt lat="48.23339" lon="-4.00084">
        <ele>125</ele>
        <time>2020-06-08T13:14:25Z</time>
      </trkpt>
      <trkpt lat="48.2334" lon="-4.00088">
        <ele>125.2</ele>
        <time>2020-06-08T13:14:26Z</time>
      </trkpt>
      <trkpt lat="48.2334" lon="-4.00089">
        <ele>125.2</ele>
        <time>2020-06-08T13:14:27Z</time>
      </trkpt>
      <trkpt lat="48.2334" lon="-4.00092">
        <ele>125.4</ele>
        <time>2020-06-08T13:14:28Z</time>
      </trkpt>
      <trkpt lat="48.2334" lon="-4.00094">
        <ele>125.5</ele>
        <time>2020-06-08T13:14:29Z</time>
      </trkpt>
      <trkpt lat="48.2334" lon="-4.00095">
        <ele>125.6</ele>
        <time>2020-06-08T13:14:30Z</time>
      </trkpt>
      <trkpt lat="48.23341" lon="-4.00097">
        <ele>125.7</ele>
        <time>2020-06-08T13:14:31Z</time>
      </trkpt>
      <trkpt lat="48.23341" lon="-4.00099">
        <ele>125.7</ele>
        <time>2020-06-08T13:14:32Z</time>
      </trkpt>
      <trkpt lat="48.23341" lon="-4.001">
        <ele>125.8</ele>
        <time>2020-06-08T13:14:33Z</time>
      </trkpt>
      <trkpt lat="48.23341" lon="-4.00101">
        <ele>125.9</ele>
        <time>2020-06-08T13:14:34Z</time>
      </trkpt>
      <trkpt lat="48.23341" lon="-4.00103">
        <ele>126</ele>
        <time>2020-06-08T13:14:35Z</time>
      </trkpt>
      <trkpt lat="48.23342" lon="-4.00105">
        <ele>126.1</ele>
        <time>2020-06-08T13:14:36Z</time>
      </trkpt>
      <trkpt lat="48.23342" lon="-4.00107">
        <ele>126.2</ele>
        <time>2020-06-08T13:14:37Z</time>
      </trkpt>
      <trkpt lat="48.23341" lon="-4.0011">
        <ele>126.3</ele>
        <time>2020-06-08T13:14:38Z</time>
      </trkpt>
      <trkpt lat="48.23341" lon="-4.00112">
        <ele>126.4</ele>
        <time>2020-06-08T13:14:39Z</time>
      </trkpt>
      <trkpt lat="48.23341" lon="-4.00115">
        <ele>126.6</ele>
        <time>2020-06-08T13:14:40Z</time>
      </trkpt>
      <trkpt lat="48.23342" lon="-4.00118">
        <ele>126.7</ele>
        <time>2020-06-08T13:14:41Z</time>
      </trkpt>
      <trkpt lat="48.23342" lon="-4.0012">
        <ele>126.8</ele>
        <time>2020-06-08T13:14:42Z</time>
      </trkpt>
      <trkpt lat="48.23342" lon="-4.00123">
        <ele>127</ele>
        <time>2020-06-08T13:14:43Z</time>
      </trkpt>
      <trkpt lat="48.23342" lon="-4.00124">
        <ele>127.1</ele>
        <time>2020-06-08T13:14:44Z</time>
      </trkpt>
      <trkpt lat="48.23342" lon="-4.00126">
        <ele>127.2</ele>
        <time>2020-06-08T13:14:45Z</time>
      </trkpt>
      <trkpt lat="48.23343" lon="-4.00127">
        <ele>127.2</ele>
        <time>2020-06-08T13:14:46Z</time>
      </trkpt>
      <trkpt lat="48.23343" lon="-4.0013">
        <ele>127.4</ele>
        <time>2020-06-08T13:14:47Z</time>
      </trkpt>
      <trkpt lat="48.23344" lon="-4.00132">
        <ele>127.5</ele>
        <time>2020-06-08T13:14:48Z</time>
      </trkpt>
      <trkpt lat="48.23344" lon="-4.00133">
        <ele>127.6</ele>
        <time>2020-06-08T13:14:49Z</time>
      </trkpt>
      <trkpt lat="48.23345" lon="-4.00135">
        <ele>127.6</ele>
        <time>2020-06-08T13:14:50Z</time>
      </trkpt>
      <trkpt lat="48.23345" lon="-4.00138">
        <ele>127.8</ele>
        <time>2020-06-08T13:14:51Z</time>
      </trkpt>
      <trkpt lat="48.23346" lon="-4.0014">
        <ele>127.9</ele>
        <time>2020-06-08T13:14:52Z</time>
      </trkpt>
      <trkpt lat="48.23346" lon="-4.00142">
        <ele>128</ele>
        <time>2020-06-08T13:14:53Z</time>
      </trkpt>
      <trkpt lat="48.23346" lon="-4.00143">
        <ele>128.1</ele>
        <time>2020-06-08T13:14:54Z</time>
      </trkpt>
      <trkpt lat="48.23345" lon="-4.00145">
        <ele>128.2</ele>
        <time>2020-06-08T13:14:55Z</time>
      </trkpt>
      <trkpt lat="48.23345" lon="-4.00147">
        <ele>128.3</ele>
        <time>2020-06-08T13:14:56Z</time>
      </trkpt>
      <trkpt lat="48.23346" lon="-4.00149">
        <ele>128.4</ele>
        <time>2020-06-08T13:14:57Z</time>
      </trkpt>
      <trkpt lat="48.23346" lon="-4.00151">
        <ele>128.5</ele>
        <time>2020-06-08T13:14:58Z</time>
      </trkpt>
      <trkpt lat="48.23347" lon="-4.00154">
        <ele>128.6</ele>
        <time>2020-06-08T13:14:59Z</time>
      </trkpt>
      <trkpt lat="48.23347" lon="-4.00157">
        <ele>128.8</ele>
        <time>2020-06-08T13:15:00Z</time>
      </trkpt>
      <trkpt lat="48.23348" lon="-4.00158">
        <ele>128.9</ele>
        <time>2020-06-08T13:15:01Z</time>
      </trkpt>
      <trkpt lat="48.23348" lon="-4.00162">
        <ele>129.1</ele>
        <time>2020-06-08T13:15:02Z</time>
      </trkpt>
      <trkpt lat="48.23348" lon="-4.00164">
        <ele>129.2</ele>
        <time>2020-06-08T13:15:03Z</time>
      </trkpt>
      <trkpt lat="48.23349" lon="-4.00167">
        <ele>129.4</ele>
        <time>2020-06-08T13:15:04Z</time>
      </trkpt>
      <trkpt lat="48.2335" lon="-4.00168">
        <ele>129.5</ele>
        <time>2020-06-08T13:15:05Z</time>
      </trkpt>
      <trkpt lat="48.2335" lon="-4.0017">
        <ele>129.5</ele>
        <time>2020-06-08T13:15:06Z</time>
      </trkpt>
      <trkpt lat="48.2335" lon="-4.00172">
        <ele>129.7</ele>
        <time>2020-06-08T13:15:07Z</time>
      </trkpt>
      <trkpt lat="48.2335" lon="-4.00175">
        <ele>129.9</ele>
        <time>2020-06-08T13:15:08Z</time>
      </trkpt>
      <trkpt lat="48.2335" lon="-4.00177">
        <ele>130</ele>
        <time>2020-06-08T13:15:09Z</time>
      </trkpt>
      <trkpt lat="48.2335" lon="-4.0018">
        <ele>130.1</ele>
        <time>2020-06-08T13:15:10Z</time>
      </trkpt>
      <trkpt lat="48.23349" lon="-4.00181">
        <ele>130.2</ele>
        <time>2020-06-08T13:15:11Z</time>
      </trkpt>
      <trkpt lat="48.23349" lon="-4.00182">
        <ele>130.3</ele>
        <time>2020-06-08T13:15:12Z</time>
      </trkpt>
      <trkpt lat="48.23349" lon="-4.00185">
        <ele>130.4</ele>
        <time>2020-06-08T13:15:13Z</time>
      </trkpt>
      <trkpt lat="48.23349" lon="-4.00187">
        <ele>130.6</ele>
        <time>2020-06-08T13:15:14Z</time>
      </trkpt>
      <trkpt lat="48.23349" lon="-4.00189">
        <ele>130.7</ele>
        <time>2020-06-08T13:15:15Z</time>
      </trkpt>
      <trkpt lat="48.2335" lon="-4.00191">
        <ele>130.8</ele>
        <time>2020-06-08T13:15:16Z</time>
      </trkpt>
      <trkpt lat="48.2335" lon="-4.00193">
        <ele>131</ele>
        <time>2020-06-08T13:15:17Z</time>
      </trkpt>
      <trkpt lat="48.23351" lon="-4.00196">
        <ele>131.1</ele>
        <time>2020-06-08T13:15:18Z</time>
      </trkpt>
      <trkpt lat="48.23351" lon="-4.00197">
        <ele>131.2</ele>
        <time>2020-06-08T13:15:19Z</time>
      </trkpt>
      <trkpt lat="48.23351" lon="-4.00199">
        <ele>131.3</ele>
        <time>2020-06-08T13:15:20Z</time>
      </trkpt>
      <trkpt lat="48.23351" lon="-4.002">
        <ele>131.4</ele>
        <time>2020-06-08T13:15:21Z</time>
      </trkpt>
      <trkpt lat="48.23352" lon="-4.00202">
        <ele>131.5</ele>
        <time>2020-06-08T13:15:22Z</time>
      </trkpt>
      <trkpt lat="48.23352" lon="-4.00204">
        <ele>131.6</ele>
        <time>2020-06-08T13:15:23Z</time>
      </trkpt>
      <trkpt lat="48.23353" lon="-4.00207">
        <ele>131.8</ele>
        <time>2020-06-08T13:15:24Z</time>
      </trkpt>
      <trkpt lat="48.23354" lon="-4.00207">
        <ele>131.9</ele>
        <time>2020-06-08T13:15:25Z</time>
      </trkpt>
      <trkpt lat="48.23355" lon="-4.00208">
        <ele>132</ele>
        <time>2020-06-08T13:15:26Z</time>
      </trkpt>
      <trkpt lat="48.23356" lon="-4.0021">
        <ele>132.1</ele>
        <time>2020-06-08T13:15:27Z</time>
      </trkpt>
      <trkpt lat="48.23357" lon="-4.00212">
        <ele>132.3</ele>
        <time>2020-06-08T13:15:28Z</time>
      </trkpt>
      <trkpt lat="48.23358" lon="-4.00214">
        <ele>132.4</ele>
        <time>2020-06-08T13:15:29Z</time>
      </trkpt>
      <trkpt lat="48.23358" lon="-4.00215">
        <ele>132.5</ele>
        <time>2020-06-08T13:15:30Z</time>
      </trkpt>
      <trkpt lat="48.23358" lon="-4.00216">
        <ele>132.5</ele>
        <time>2020-06-08T13:15:31Z</time>
      </trkpt>
      <trkpt lat="48.23359" lon="-4.00217">
        <ele>132.6</ele>
        <time>2020-06-08T13:15:32Z</time>
      </trkpt>
      <trkpt lat="48.23359" lon="-4.00218">
        <ele>132.7</ele>
        <time>2020-06-08T13:15:33Z</time>
      </trkpt>
      <trkpt lat="48.23359" lon="-4.0022">
        <ele>132.8</ele>
        <time>2020-06-08T13:15:34Z</time>
      </trkpt>
      <trkpt lat="48.23359" lon="-4.00221">
        <ele>132.9</ele>
        <time>2020-06-08T13:15:35Z</time>
      </trkpt>
      <trkpt lat="48.23359" lon="-4.00224">
        <ele>133</ele>
        <time>2020-06-08T13:15:36Z</time>
      </trkpt>
      <trkpt lat="48.23359" lon="-4.00226">
        <ele>133.1</ele>
        <time>2020-06-08T13:15:37Z</time>
      </trkpt>
      <trkpt lat="48.23359" lon="-4.00227">
        <ele>133.2</ele>
        <time>2020-06-08T13:15:38Z</time>
      </trkpt>
      <trkpt lat="48.2336" lon="-4.00231">
        <ele>133.5</ele>
        <time>2020-06-08T13:15:39Z</time>
      </trkpt>
      <trkpt lat="48.2336" lon="-4.00233">
        <ele>133.5</ele>
        <time>2020-06-08T13:15:40Z</time>
      </trkpt>
      <trkpt lat="48.23361" lon="-4.00238">
        <ele>133.9</ele>
        <time>2020-06-08T13:15:41Z</time>
      </trkpt>
      <trkpt lat="48.23362" lon="-4.0024">
        <ele>134</ele>
        <time>2020-06-08T13:15:42Z</time>
      </trkpt>
      <trkpt lat="48.23364" lon="-4.00245">
        <ele>134.3</ele>
        <time>2020-06-08T13:15:43Z</time>
      </trkpt>
      <trkpt lat="48.23364" lon="-4.00247">
        <ele>134.5</ele>
        <time>2020-06-08T13:15:44Z</time>
      </trkpt>
      <trkpt lat="48.23365" lon="-4.00252">
        <ele>134.7</ele>
        <time>2020-06-08T13:15:45Z</time>
      </trkpt>
      <trkpt lat="48.23365" lon="-4.00253">
        <ele>134.8</ele>
        <time>2020-06-08T13:15:46Z</time>
      </trkpt>
      <trkpt lat="48.23366" lon="-4.00258">
        <ele>135.1</ele>
        <time>2020-06-08T13:15:47Z</time>
      </trkpt>
      <trkpt lat="48.23366" lon="-4.0026">
        <ele>135.2</ele>
        <time>2020-06-08T13:15:48Z</time>
      </trkpt>
      <trkpt lat="48.23367" lon="-4.00265">
        <ele>135.5</ele>
        <time>2020-06-08T13:15:49Z</time>
      </trkpt>
      <trkpt lat="48.23367" lon="-4.00267">
        <ele>135.6</ele>
        <time>2020-06-08T13:15:50Z</time>
      </trkpt>
      <trkpt lat="48.23368" lon="-4.00271">
        <ele>135.9</ele>
        <time>2020-06-08T13:15:51Z</time>
      </trkpt>
      <trkpt lat="48.23369" lon="-4.00275">
        <ele>136.1</ele>
        <time>2020-06-08T13:15:52Z</time>
      </trkpt>
      <trkpt lat="48.2337" lon="-4.00281">
        <ele>136.4</ele>
        <time>2020-06-08T13:15:53Z</time>
      </trkpt>
      <trkpt lat="48.2337" lon="-4.00282">
        <ele>136.4</ele>
        <time>2020-06-08T13:15:54Z</time>
      </trkpt>
      <trkpt lat="48.23371" lon="-4.00287">
        <ele>136.7</ele>
        <time>2020-06-08T13:15:55Z</time>
      </trkpt>
      <trkpt lat="48.23372" lon="-4.00288">
        <ele>136.8</ele>
        <time>2020-06-08T13:15:56Z</time>
      </trkpt>
      <trkpt lat="48.23373" lon="-4.00293">
        <ele>137</ele>
        <time>2020-06-08T13:15:57Z</time>
      </trkpt>
      <trkpt lat="48.23373" lon="-4.00294">
        <ele>137.1</ele>
        <time>2020-06-08T13:15:58Z</time>
      </trkpt>
      <trkpt lat="48.23376" lon="-4.00296">
        <ele>137.3</ele>
        <time>2020-06-08T13:15:59Z</time>
      </trkpt>
      <trkpt lat="48.23377" lon="-4.00302">
        <ele>137.6</ele>
        <time>2020-06-08T13:16:00Z</time>
      </trkpt>
      <trkpt lat="48.23378" lon="-4.00304">
        <ele>137.7</ele>
        <time>2020-06-08T13:16:01Z</time>
      </trkpt>
      <trkpt lat="48.23378" lon="-4.00309">
        <ele>138</ele>
        <time>2020-06-08T13:16:02Z</time>
      </trkpt>
      <trkpt lat="48.23379" lon="-4.00312">
        <ele>138.1</ele>
        <time>2020-06-08T13:16:03Z</time>
      </trkpt>
      <trkpt lat="48.23379" lon="-4.00316">
        <ele>138.3</ele>
        <time>2020-06-08T13:16:04Z</time>
      </trkpt>
      <trkpt lat="48.23378" lon="-4.00317">
        <ele>138.3</ele>
        <time>2020-06-08T13:16:05Z</time>
      </trkpt>
      <trkpt lat="48.23378" lon="-4.00319">
        <ele>138.4</ele>
        <time>2020-06-08T13:16:06Z</time>
      </trkpt>
      <trkpt lat="48.23379" lon="-4.00322">
        <ele>138.5</ele>
        <time>2020-06-08T13:16:07Z</time>
      </trkpt>
      <trkpt lat="48.2338" lon="-4.00326">
        <ele>138.7</ele>
        <time>2020-06-08T13:16:08Z</time>
      </trkpt>
      <trkpt lat="48.2338" lon="-4.00327">
        <ele>138.8</ele>
        <time>2020-06-08T13:16:09Z</time>
      </trkpt>
      <trkpt lat="48.23381" lon="-4.0033">
        <ele>138.9</ele>
        <time>2020-06-08T13:16:10Z</time>
      </trkpt>
      <trkpt lat="48.23381" lon="-4.00332">
        <ele>139</ele>
        <time>2020-06-08T13:16:11Z</time>
      </trkpt>
      <trkpt lat="48.2338" lon="-4.00336">
        <ele>139.1</ele>
        <time>2020-06-08T13:16:12Z</time>
      </trkpt>
      <trkpt lat="48.23381" lon="-4.00338">
        <ele>139.2</ele>
        <time>2020-06-08T13:16:13Z</time>
      </trkpt>
      <trkpt lat="48.23383" lon="-4.00343">
        <ele>139.4</ele>
        <time>2020-06-08T13:16:14Z</time>
      </trkpt>
      <trkpt lat="48.23383" lon="-4.00344">
        <ele>139.4</ele>
        <time>2020-06-08T13:16:15Z</time>
      </trkpt>
      <trkpt lat="48.23384" lon="-4.00349">
        <ele>139.5</ele>
        <time>2020-06-08T13:16:16Z</time>
      </trkpt>
      <trkpt lat="48.23384" lon="-4.00353">
        <ele>139.7</ele>
        <time>2020-06-08T13:16:17Z</time>
      </trkpt>
      <trkpt lat="48.23386" lon="-4.00357">
        <ele>139.8</ele>
        <time>2020-06-08T13:16:18Z</time>
      </trkpt>
      <trkpt lat="48.23386" lon="-4.00362">
        <ele>139.9</ele>
        <time>2020-06-08T13:16:19Z</time>
      </trkpt>
      <trkpt lat="48.23387" lon="-4.00366">
        <ele>140</ele>
        <time>2020-06-08T13:16:20Z</time>
      </trkpt>
      <trkpt lat="48.23387" lon="-4.00368">
        <ele>140</ele>
        <time>2020-06-08T13:16:21Z</time>
      </trkpt>
      <trkpt lat="48.23388" lon="-4.00372">
        <ele>140.2</ele>
        <time>2020-06-08T13:16:22Z</time>
      </trkpt>
      <trkpt lat="48.23389" lon="-4.00377">
        <ele>140.3</ele>
        <time>2020-06-08T13:16:23Z</time>
      </trkpt>
      <trkpt lat="48.23389" lon="-4.00379">
        <ele>140.3</ele>
        <time>2020-06-08T13:16:24Z</time>
      </trkpt>
      <trkpt lat="48.2339" lon="-4.00383">
        <ele>140.4</ele>
        <time>2020-06-08T13:16:25Z</time>
      </trkpt>
      <trkpt lat="48.23391" lon="-4.00388">
        <ele>140.5</ele>
        <time>2020-06-08T13:16:26Z</time>
      </trkpt>
      <trkpt lat="48.23391" lon="-4.0039">
        <ele>140.5</ele>
        <time>2020-06-08T13:16:27Z</time>
      </trkpt>
      <trkpt lat="48.23391" lon="-4.00395">
        <ele>140.6</ele>
        <time>2020-06-08T13:16:28Z</time>
      </trkpt>
      <trkpt lat="48.23393" lon="-4.004">
        <ele>140.7</ele>
        <time>2020-06-08T13:16:29Z</time>
      </trkpt>
      <trkpt lat="48.23393" lon="-4.00402">
        <ele>140.7</ele>
        <time>2020-06-08T13:16:30Z</time>
      </trkpt>
      <trkpt lat="48.23395" lon="-4.00408">
        <ele>140.7</ele>
        <time>2020-06-08T13:16:31Z</time>
      </trkpt>
      <trkpt lat="48.23395" lon="-4.00409">
        <ele>140.7</ele>
        <time>2020-06-08T13:16:32Z</time>
      </trkpt>
      <trkpt lat="48.23395" lon="-4.00414">
        <ele>140.7</ele>
        <time>2020-06-08T13:16:33Z</time>
      </trkpt>
      <trkpt lat="48.23395" lon="-4.00416">
        <ele>140.7</ele>
        <time>2020-06-08T13:16:34Z</time>
      </trkpt>
      <trkpt lat="48.23395" lon="-4.00421">
        <ele>140.7</ele>
        <time>2020-06-08T13:16:35Z</time>
      </trkpt>
      <trkpt lat="48.23395" lon="-4.00423">
        <ele>140.7</ele>
        <time>2020-06-08T13:16:36Z</time>
      </trkpt>
      <trkpt lat="48.23396" lon="-4.00429">
        <ele>140.7</ele>
        <time>2020-06-08T13:16:37Z</time>
      </trkpt>
      <trkpt lat="48.23396" lon="-4.00431">
        <ele>140.7</ele>
        <time>2020-06-08T13:16:38Z</time>
      </trkpt>
      <trkpt lat="48.23396" lon="-4.00437">
        <ele>140.6</ele>
        <time>2020-06-08T13:16:39Z</time>
      </trkpt>
      <trkpt lat="48.23396" lon="-4.00439">
        <ele>140.6</ele>
        <time>2020-06-08T13:16:40Z</time>
      </trkpt>
      <trkpt lat="48.23397" lon="-4.00444">
        <ele>140.5</ele>
        <time>2020-06-08T13:16:41Z</time>
      </trkpt>
      <trkpt lat="48.23398" lon="-4.00449">
        <ele>140.4</ele>
        <time>2020-06-08T13:16:42Z</time>
      </trkpt>
      <trkpt lat="48.23399" lon="-4.00454">
        <ele>140.3</ele>
        <time>2020-06-08T13:16:43Z</time>
      </trkpt>
      <trkpt lat="48.234" lon="-4.0046">
        <ele>140.2</ele>
        <time>2020-06-08T13:16:44Z</time>
      </trkpt>
      <trkpt lat="48.23401" lon="-4.00466">
        <ele>140</ele>
        <time>2020-06-08T13:16:45Z</time>
      </trkpt>
      <trkpt lat="48.23401" lon="-4.00471">
        <ele>139.8</ele>
        <time>2020-06-08T13:16:46Z</time>
      </trkpt>
      <trkpt lat="48.23401" lon="-4.00478">
        <ele>139.6</ele>
        <time>2020-06-08T13:16:47Z</time>
      </trkpt>
      <trkpt lat="48.23402" lon="-4.00484">
        <ele>139.4</ele>
        <time>2020-06-08T13:16:48Z</time>
      </trkpt>
      <trkpt lat="48.23403" lon="-4.00491">
        <ele>139.2</ele>
        <time>2020-06-08T13:16:49Z</time>
      </trkpt>
      <trkpt lat="48.23403" lon="-4.00499">
        <ele>138.9</ele>
        <time>2020-06-08T13:16:50Z</time>
      </trkpt>
      <trkpt lat="48.23404" lon="-4.00507">
        <ele>138.6</ele>
        <time>2020-06-08T13:16:51Z</time>
      </trkpt>
      <trkpt lat="48.23405" lon="-4.00515">
        <ele>138.3</ele>
        <time>2020-06-08T13:16:52Z</time>
      </trkpt>
      <trkpt lat="48.23406" lon="-4.00524">
        <ele>138</ele>
        <time>2020-06-08T13:16:53Z</time>
      </trkpt>
      <trkpt lat="48.23407" lon="-4.00533">
        <ele>137.6</ele>
        <time>2020-06-08T13:16:54Z</time>
      </trkpt>
      <trkpt lat="48.23408" lon="-4.00543">
        <ele>137.2</ele>
        <time>2020-06-08T13:16:55Z</time>
      </trkpt>
      <trkpt lat="48.23409" lon="-4.00554">
        <ele>136.7</ele>
        <time>2020-06-08T13:16:56Z</time>
      </trkpt>
      <trkpt lat="48.2341" lon="-4.00566">
        <ele>136.2</ele>
        <time>2020-06-08T13:16:57Z</time>
      </trkpt>
      <trkpt lat="48.2341" lon="-4.00577">
        <ele>135.6</ele>
        <time>2020-06-08T13:16:58Z</time>
      </trkpt>
      <trkpt lat="48.23409" lon="-4.00589">
        <ele>135</ele>
        <time>2020-06-08T13:16:59Z</time>
      </trkpt>
      <trkpt lat="48.23409" lon="-4.00602">
        <ele>134.4</ele>
        <time>2020-06-08T13:17:00Z</time>
      </trkpt>
      <trkpt lat="48.2341" lon="-4.00615">
        <ele>133.7</ele>
        <time>2020-06-08T13:17:01Z</time>
      </trkpt>
      <trkpt lat="48.2341" lon="-4.00628">
        <ele>133.1</ele>
        <time>2020-06-08T13:17:02Z</time>
      </trkpt>
      <trkpt lat="48.23411" lon="-4.00642">
        <ele>132.4</ele>
        <time>2020-06-08T13:17:03Z</time>
      </trkpt>
      <trkpt lat="48.23411" lon="-4.00656">
        <ele>131.7</ele>
        <time>2020-06-08T13:17:04Z</time>
      </trkpt>
      <trkpt lat="48.23411" lon="-4.0067">
        <ele>130.9</ele>
        <time>2020-06-08T13:17:05Z</time>
      </trkpt>
      <trkpt lat="48.23411" lon="-4.00685">
        <ele>130.1</ele>
        <time>2020-06-08T13:17:06Z</time>
      </trkpt>
      <trkpt lat="48.2341" lon="-4.00701">
        <ele>129.2</ele>
        <time>2020-06-08T13:17:07Z</time>
      </trkpt>
      <trkpt lat="48.23408" lon="-4.00717">
        <ele>128.3</ele>
        <time>2020-06-08T13:17:08Z</time>
      </trkpt>
      <trkpt lat="48.23405" lon="-4.00733">
        <ele>127.2</ele>
        <time>2020-06-08T13:17:09Z</time>
      </trkpt>
      <trkpt lat="48.23402" lon="-4.00749">
        <ele>126.1</ele>
        <time>2020-06-08T13:17:10Z</time>
      </trkpt>
      <trkpt lat="48.234" lon="-4.00767">
        <ele>124.9</ele>
        <time>2020-06-08T13:17:11Z</time>
      </trkpt>
      <trkpt lat="48.23397" lon="-4.00785">
        <ele>123.6</ele>
        <time>2020-06-08T13:17:12Z</time>
      </trkpt>
      <trkpt lat="48.23394" lon="-4.00804">
        <ele>122</ele>
        <time>2020-06-08T13:17:13Z</time>
      </trkpt>
      <trkpt lat="48.23392" lon="-4.00823">
        <ele>120.4</ele>
        <time>2020-06-08T13:17:14Z</time>
      </trkpt>
      <trkpt lat="48.2339" lon="-4.00842">
        <ele>118.8</ele>
        <time>2020-06-08T13:17:15Z</time>
      </trkpt>
      <trkpt lat="48.23389" lon="-4.00862">
        <ele>117.3</ele>
        <time>2020-06-08T13:17:16Z</time>
      </trkpt>
      <trkpt lat="48.2339" lon="-4.00882">
        <ele>115.8</ele>
        <time>2020-06-08T13:17:17Z</time>
      </trkpt>
      <trkpt lat="48.23392" lon="-4.00902">
        <ele>114.4</ele>
        <time>2020-06-08T13:17:18Z</time>
      </trkpt>
      <trkpt lat="48.23394" lon="-4.00922">
        <ele>113.2</ele>
        <time>2020-06-08T13:17:19Z</time>
      </trkpt>
      <trkpt lat="48.23396" lon="-4.00943">
        <ele>112.3</ele>
        <time>2020-06-08T13:17:20Z</time>
      </trkpt>
      <trkpt lat="48.23398" lon="-4.00963">
        <ele>111.8</ele>
        <time>2020-06-08T13:17:21Z</time>
      </trkpt>
      <trkpt lat="48.234" lon="-4.00983">
        <ele>111.8</ele>
        <time>2020-06-08T13:17:22Z</time>
      </trkpt>
      <trkpt lat="48.23402" lon="-4.01002">
        <ele>112</ele>
        <time>2020-06-08T13:17:23Z</time>
      </trkpt>
      <trkpt lat="48.23405" lon="-4.01021">
        <ele>111.6</ele>
        <time>2020-06-08T13:17:24Z</time>
      </trkpt>
      <trkpt lat="48.23408" lon="-4.01038">
        <ele>111.5</ele>
        <time>2020-06-08T13:17:25Z</time>
      </trkpt>
      <trkpt lat="48.2341" lon="-4.01054">
        <ele>111.7</ele>
        <time>2020-06-08T13:17:26Z</time>
      </trkpt>
      <trkpt lat="48.23412" lon="-4.01069">
        <ele>112.2</ele>
        <time>2020-06-08T13:17:27Z</time>
      </trkpt>
      <trkpt lat="48.23413" lon="-4.01083">
        <ele>112.9</ele>
        <time>2020-06-08T13:17:28Z</time>
      </trkpt>
      <trkpt lat="48.23415" lon="-4.01096">
        <ele>113.6</ele>
        <time>2020-06-08T13:17:29Z</time>
      </trkpt>
      <trkpt lat="48.23416" lon="-4.01108">
        <ele>114.2</ele>
        <time>2020-06-08T13:17:30Z</time>
      </trkpt>
      <trkpt lat="48.23418" lon="-4.01118">
        <ele>114.9</ele>
        <time>2020-06-08T13:17:31Z</time>
      </trkpt>
      <trkpt lat="48.2342" lon="-4.01127">
        <ele>115.5</ele>
        <time>2020-06-08T13:17:32Z</time>
      </trkpt>
      <trkpt lat="48.23422" lon="-4.01135">
        <ele>116.1</ele>
        <time>2020-06-08T13:17:33Z</time>
      </trkpt>
      <trkpt lat="48.23424" lon="-4.01143">
        <ele>116.7</ele>
        <time>2020-06-08T13:17:34Z</time>
      </trkpt>
      <trkpt lat="48.23427" lon="-4.0115">
        <ele>117.3</ele>
        <time>2020-06-08T13:17:35Z</time>
      </trkpt>
      <trkpt lat="48.23429" lon="-4.01157">
        <ele>117.8</ele>
        <time>2020-06-08T13:17:36Z</time>
      </trkpt>
      <trkpt lat="48.2343" lon="-4.01165">
        <ele>118.4</ele>
        <time>2020-06-08T13:17:37Z</time>
      </trkpt>
      <trkpt lat="48.23432" lon="-4.01172">
        <ele>118.9</ele>
        <time>2020-06-08T13:17:38Z</time>
      </trkpt>
      <trkpt lat="48.23435" lon="-4.01178">
        <ele>119.5</ele>
        <time>2020-06-08T13:17:39Z</time>
      </trkpt>
      <trkpt lat="48.23437" lon="-4.01184">
        <ele>120.1</ele>
        <time>2020-06-08T13:17:40Z</time>
      </trkpt>
      <trkpt lat="48.2344" lon="-4.01189">
        <ele>120.6</ele>
        <time>2020-06-08T13:17:41Z</time>
      </trkpt>
      <trkpt lat="48.23443" lon="-4.01195">
        <ele>121.2</ele>
        <time>2020-06-08T13:17:42Z</time>
      </trkpt>
      <trkpt lat="48.23445" lon="-4.01201">
        <ele>121.8</ele>
        <time>2020-06-08T13:17:43Z</time>
      </trkpt>
      <trkpt lat="48.23447" lon="-4.01206">
        <ele>122.3</ele>
        <time>2020-06-08T13:17:44Z</time>
      </trkpt>
      <trkpt lat="48.2345" lon="-4.01211">
        <ele>122.8</ele>
        <time>2020-06-08T13:17:45Z</time>
      </trkpt>
      <trkpt lat="48.23453" lon="-4.01214">
        <ele>123.2</ele>
        <time>2020-06-08T13:17:46Z</time>
      </trkpt>
      <trkpt lat="48.23456" lon="-4.01218">
        <ele>123.7</ele>
        <time>2020-06-08T13:17:47Z</time>
      </trkpt>
      <trkpt lat="48.23458" lon="-4.01223">
        <ele>124.1</ele>
        <time>2020-06-08T13:17:48Z</time>
      </trkpt>
      <trkpt lat="48.2346" lon="-4.01229">
        <ele>124.5</ele>
        <time>2020-06-08T13:17:49Z</time>
      </trkpt>
      <trkpt lat="48.23462" lon="-4.01233">
        <ele>124.8</ele>
        <time>2020-06-08T13:17:50Z</time>
      </trkpt>
      <trkpt lat="48.23464" lon="-4.01236">
        <ele>125.2</ele>
        <time>2020-06-08T13:17:51Z</time>
      </trkpt>
      <trkpt lat="48.23467" lon="-4.0124">
        <ele>125.5</ele>
        <time>2020-06-08T13:17:52Z</time>
      </trkpt>
      <trkpt lat="48.23468" lon="-4.01245">
        <ele>125.9</ele>
        <time>2020-06-08T13:17:53Z</time>
      </trkpt>
      <trkpt lat="48.2347" lon="-4.01249">
        <ele>126.2</ele>
        <time>2020-06-08T13:17:54Z</time>
      </trkpt>
      <trkpt lat="48.23473" lon="-4.01254">
        <ele>126.6</ele>
        <time>2020-06-08T13:17:55Z</time>
      </trkpt>
      <trkpt lat="48.23475" lon="-4.01259">
        <ele>126.9</ele>
        <time>2020-06-08T13:17:56Z</time>
      </trkpt>
      <trkpt lat="48.23478" lon="-4.01263">
        <ele>127.2</ele>
        <time>2020-06-08T13:17:57Z</time>
      </trkpt>
      <trkpt lat="48.2348" lon="-4.01266">
        <ele>127.5</ele>
        <time>2020-06-08T13:17:58Z</time>
      </trkpt>
      <trkpt lat="48.23483" lon="-4.01269">
        <ele>127.7</ele>
        <time>2020-06-08T13:17:59Z</time>
      </trkpt>
      <trkpt lat="48.23485" lon="-4.01274">
        <ele>128</ele>
        <time>2020-06-08T13:18:00Z</time>
      </trkpt>
      <trkpt lat="48.23487" lon="-4.01277">
        <ele>128.2</ele>
        <time>2020-06-08T13:18:01Z</time>
      </trkpt>
      <trkpt lat="48.2349" lon="-4.01281">
        <ele>128.5</ele>
        <time>2020-06-08T13:18:02Z</time>
      </trkpt>
      <trkpt lat="48.23492" lon="-4.01283">
        <ele>128.6</ele>
        <time>2020-06-08T13:18:03Z</time>
      </trkpt>
      <trkpt lat="48.23494" lon="-4.01286">
        <ele>128.9</ele>
        <time>2020-06-08T13:18:04Z</time>
      </trkpt>
      <trkpt lat="48.23496" lon="-4.01291">
        <ele>129.1</ele>
        <time>2020-06-08T13:18:05Z</time>
      </trkpt>
      <trkpt lat="48.23498" lon="-4.01296">
        <ele>129.4</ele>
        <time>2020-06-08T13:18:06Z</time>
      </trkpt>
      <trkpt lat="48.235" lon="-4.013">
        <ele>129.6</ele>
        <time>2020-06-08T13:18:07Z</time>
      </trkpt>
      <trkpt lat="48.23502" lon="-4.01305">
        <ele>129.9</ele>
        <time>2020-06-08T13:18:08Z</time>
      </trkpt>
      <trkpt lat="48.23504" lon="-4.01309">
        <ele>130.1</ele>
        <time>2020-06-08T13:18:09Z</time>
      </trkpt>
      <trkpt lat="48.23506" lon="-4.01312">
        <ele>130.2</ele>
        <time>2020-06-08T13:18:10Z</time>
      </trkpt>
      <trkpt lat="48.23508" lon="-4.01316">
        <ele>130.4</ele>
        <time>2020-06-08T13:18:11Z</time>
      </trkpt>
      <trkpt lat="48.23509" lon="-4.01321">
        <ele>130.7</ele>
        <time>2020-06-08T13:18:12Z</time>
      </trkpt>
      <trkpt lat="48.23511" lon="-4.01325">
        <ele>130.8</ele>
        <time>2020-06-08T13:18:13Z</time>
      </trkpt>
      <trkpt lat="48.23514" lon="-4.01329">
        <ele>131</ele>
        <time>2020-06-08T13:18:14Z</time>
      </trkpt>
      <trkpt lat="48.23515" lon="-4.01331">
        <ele>131.1</ele>
        <time>2020-06-08T13:18:15Z</time>
      </trkpt>
      <trkpt lat="48.23517" lon="-4.01336">
        <ele>131.3</ele>
        <time>2020-06-08T13:18:16Z</time>
      </trkpt>
      <trkpt lat="48.23519" lon="-4.01339">
        <ele>131.4</ele>
        <time>2020-06-08T13:18:17Z</time>
      </trkpt>
      <trkpt lat="48.23519" lon="-4.01341">
        <ele>131.4</ele>
        <time>2020-06-08T13:18:18Z</time>
      </trkpt>
      <trkpt lat="48.23521" lon="-4.01345">
        <ele>131.6</ele>
        <time>2020-06-08T13:18:19Z</time>
      </trkpt>
      <trkpt lat="48.23523" lon="-4.01349">
        <ele>131.7</ele>
        <time>2020-06-08T13:18:20Z</time>
      </trkpt>
      <trkpt lat="48.23524" lon="-4.0135">
        <ele>131.8</ele>
        <time>2020-06-08T13:18:21Z</time>
      </trkpt>
      <trkpt lat="48.23525" lon="-4.01354">
        <ele>131.9</ele>
        <time>2020-06-08T13:18:22Z</time>
      </trkpt>
      <trkpt lat="48.23528" lon="-4.01358">
        <ele>132.1</ele>
        <time>2020-06-08T13:18:23Z</time>
      </trkpt>
      <trkpt lat="48.23531" lon="-4.01362">
        <ele>132.3</ele>
        <time>2020-06-08T13:18:24Z</time>
      </trkpt>
      <trkpt lat="48.23532" lon="-4.01363">
        <ele>132.4</ele>
        <time>2020-06-08T13:18:25Z</time>
      </trkpt>
      <trkpt lat="48.23534" lon="-4.01368">
        <ele>132.6</ele>
        <time>2020-06-08T13:18:26Z</time>
      </trkpt>
      <trkpt lat="48.23535" lon="-4.01373">
        <ele>132.8</ele>
        <time>2020-06-08T13:18:27Z</time>
      </trkpt>
      <trkpt lat="48.23536" lon="-4.01375">
        <ele>132.9</ele>
        <time>2020-06-08T13:18:28Z</time>
      </trkpt>
      <trkpt lat="48.23537" lon="-4.01378">
        <ele>133</ele>
        <time>2020-06-08T13:18:29Z</time>
      </trkpt>
      <trkpt lat="48.23539" lon="-4.01382">
        <ele>133.2</ele>
        <time>2020-06-08T13:18:30Z</time>
      </trkpt>
      <trkpt lat="48.2354" lon="-4.01383">
        <ele>133.3</ele>
        <time>2020-06-08T13:18:31Z</time>
      </trkpt>
      <trkpt lat="48.23541" lon="-4.01385">
        <ele>133.3</ele>
        <time>2020-06-08T13:18:32Z</time>
      </trkpt>
      <trkpt lat="48.23542" lon="-4.01389">
        <ele>133.5</ele>
        <time>2020-06-08T13:18:33Z</time>
      </trkpt>
      <trkpt lat="48.23543" lon="-4.01391">
        <ele>133.6</ele>
        <time>2020-06-08T13:18:34Z</time>
      </trkpt>
      <trkpt lat="48.23544" lon="-4.01395">
        <ele>133.7</ele>
        <time>2020-06-08T13:18:35Z</time>
      </trkpt>
      <trkpt lat="48.23546" lon="-4.01401">
        <ele>133.9</ele>
        <time>2020-06-08T13:18:36Z</time>
      </trkpt>
      <trkpt lat="48.23547" lon="-4.01403">
        <ele>134</ele>
        <time>2020-06-08T13:18:37Z</time>
      </trkpt>
      <trkpt lat="48.23548" lon="-4.01405">
        <ele>134.1</ele>
        <time>2020-06-08T13:18:38Z</time>
      </trkpt>
      <trkpt lat="48.23549" lon="-4.01407">
        <ele>134.2</ele>
        <time>2020-06-08T13:18:39Z</time>
      </trkpt>
      <trkpt lat="48.23549" lon="-4.01409">
        <ele>134.3</ele>
        <time>2020-06-08T13:18:40Z</time>
      </trkpt>
      <trkpt lat="48.2355" lon="-4.01411">
        <ele>134.4</ele>
        <time>2020-06-08T13:18:41Z</time>
      </trkpt>
      <trkpt lat="48.2355" lon="-4.01415">
        <ele>134.5</ele>
        <time>2020-06-08T13:18:42Z</time>
      </trkpt>
      <trkpt lat="48.2355" lon="-4.01417">
        <ele>134.5</ele>
        <time>2020-06-08T13:18:43Z</time>
      </trkpt>
      <trkpt lat="48.23551" lon="-4.01419">
        <ele>134.6</ele>
        <time>2020-06-08T13:18:44Z</time>
      </trkpt>
      <trkpt lat="48.23552" lon="-4.01421">
        <ele>134.7</ele>
        <time>2020-06-08T13:18:45Z</time>
      </trkpt>
      <trkpt lat="48.23553" lon="-4.01425">
        <ele>134.8</ele>
        <time>2020-06-08T13:18:46Z</time>
      </trkpt>
      <trkpt lat="48.23556" lon="-4.0143">
        <ele>135</ele>
        <time>2020-06-08T13:18:47Z</time>
      </trkpt>
      <trkpt lat="48.23557" lon="-4.01432">
        <ele>135.1</ele>
        <time>2020-06-08T13:18:48Z</time>
      </trkpt>
      <trkpt lat="48.23558" lon="-4.01437">
        <ele>135.2</ele>
        <time>2020-06-08T13:18:49Z</time>
      </trkpt>
      <trkpt lat="48.2356" lon="-4.01442">
        <ele>135.3</ele>
        <time>2020-06-08T13:18:50Z</time>
      </trkpt>
      <trkpt lat="48.23562" lon="-4.01446">
        <ele>135.4</ele>
        <time>2020-06-08T13:18:51Z</time>
      </trkpt>
      <trkpt lat="48.23563" lon="-4.01448">
        <ele>135.5</ele>
        <time>2020-06-08T13:18:52Z</time>
      </trkpt>
      <trkpt lat="48.23564" lon="-4.01452">
        <ele>135.5</ele>
        <time>2020-06-08T13:18:53Z</time>
      </trkpt>
      <trkpt lat="48.23564" lon="-4.01454">
        <ele>135.6</ele>
        <time>2020-06-08T13:18:54Z</time>
      </trkpt>
      <trkpt lat="48.23564" lon="-4.01456">
        <ele>135.6</ele>
        <time>2020-06-08T13:18:55Z</time>
      </trkpt>
      <trkpt lat="48.23565" lon="-4.01461">
        <ele>135.7</ele>
        <time>2020-06-08T13:18:56Z</time>
      </trkpt>
      <trkpt lat="48.23565" lon="-4.01465">
        <ele>135.8</ele>
        <time>2020-06-08T13:18:57Z</time>
      </trkpt>
      <trkpt lat="48.23567" lon="-4.0147">
        <ele>135.9</ele>
        <time>2020-06-08T13:18:58Z</time>
      </trkpt>
      <trkpt lat="48.23568" lon="-4.01477">
        <ele>136</ele>
        <time>2020-06-08T13:18:59Z</time>
      </trkpt>
      <trkpt lat="48.2357" lon="-4.01481">
        <ele>136</ele>
        <time>2020-06-08T13:19:00Z</time>
      </trkpt>
      <trkpt lat="48.23571" lon="-4.01483">
        <ele>136.1</ele>
        <time>2020-06-08T13:19:01Z</time>
      </trkpt>
      <trkpt lat="48.23572" lon="-4.01488">
        <ele>136.1</ele>
        <time>2020-06-08T13:19:02Z</time>
      </trkpt>
      <trkpt lat="48.23572" lon="-4.01492">
        <ele>136.2</ele>
        <time>2020-06-08T13:19:03Z</time>
      </trkpt>
      <trkpt lat="48.23573" lon="-4.01495">
        <ele>136.2</ele>
        <time>2020-06-08T13:19:04Z</time>
      </trkpt>
      <trkpt lat="48.23573" lon="-4.015">
        <ele>136.3</ele>
        <time>2020-06-08T13:19:05Z</time>
      </trkpt>
      <trkpt lat="48.23573" lon="-4.01504">
        <ele>136.4</ele>
        <time>2020-06-08T13:19:06Z</time>
      </trkpt>
      <trkpt lat="48.23573" lon="-4.01508">
        <ele>136.4</ele>
        <time>2020-06-08T13:19:07Z</time>
      </trkpt>
      <trkpt lat="48.23573" lon="-4.01512">
        <ele>136.4</ele>
        <time>2020-06-08T13:19:08Z</time>
      </trkpt>
      <trkpt lat="48.23572" lon="-4.01516">
        <ele>136.5</ele>
        <time>2020-06-08T13:19:09Z</time>
      </trkpt>
      <trkpt lat="48.23572" lon="-4.01521">
        <ele>136.5</ele>
        <time>2020-06-08T13:19:10Z</time>
      </trkpt>
      <trkpt lat="48.23572" lon="-4.01526">
        <ele>136.6</ele>
        <time>2020-06-08T13:19:11Z</time>
      </trkpt>
      <trkpt lat="48.23572" lon="-4.01531">
        <ele>136.6</ele>
        <time>2020-06-08T13:19:12Z</time>
      </trkpt>
      <trkpt lat="48.23573" lon="-4.01536">
        <ele>136.6</ele>
        <time>2020-06-08T13:19:13Z</time>
      </trkpt>
      <trkpt lat="48.23572" lon="-4.01543">
        <ele>136.7</ele>
        <time>2020-06-08T13:19:14Z</time>
      </trkpt>
      <trkpt lat="48.23572" lon="-4.01548">
        <ele>136.7</ele>
        <time>2020-06-08T13:19:15Z</time>
      </trkpt>
      <trkpt lat="48.23572" lon="-4.01553">
        <ele>136.7</ele>
        <time>2020-06-08T13:19:16Z</time>
      </trkpt>
      <trkpt lat="48.23572" lon="-4.01555">
        <ele>136.7</ele>
        <time>2020-06-08T13:19:17Z</time>
      </trkpt>
      <trkpt lat="48.23572" lon="-4.0156">
        <ele>136.7</ele>
        <time>2020-06-08T13:19:18Z</time>
      </trkpt>
      <trkpt lat="48.23572" lon="-4.01565">
        <ele>136.8</ele>
        <time>2020-06-08T13:19:19Z</time>
      </trkpt>
      <trkpt lat="48.23573" lon="-4.0157">
        <ele>136.8</ele>
        <time>2020-06-08T13:19:20Z</time>
      </trkpt>
      <trkpt lat="48.23573" lon="-4.01575">
        <ele>136.9</ele>
        <time>2020-06-08T13:19:21Z</time>
      </trkpt>
      <trkpt lat="48.23573" lon="-4.01582">
        <ele>136.9</ele>
        <time>2020-06-08T13:19:22Z</time>
      </trkpt>
      <trkpt lat="48.23573" lon="-4.01585">
        <ele>136.9</ele>
        <time>2020-06-08T13:19:23Z</time>
      </trkpt>
      <trkpt lat="48.23573" lon="-4.01592">
        <ele>136.9</ele>
        <time>2020-06-08T13:19:24Z</time>
      </trkpt>
      <trkpt lat="48.23574" lon="-4.01597">
        <ele>136.9</ele>
        <time>2020-06-08T13:19:25Z</time>
      </trkpt>
      <trkpt lat="48.23574" lon="-4.01603">
        <ele>137</ele>
        <time>2020-06-08T13:19:26Z</time>
      </trkpt>
      <trkpt lat="48.23576" lon="-4.01608">
        <ele>137</ele>
        <time>2020-06-08T13:19:27Z</time>
      </trkpt>
      <trkpt lat="48.23577" lon="-4.01614">
        <ele>137</ele>
        <time>2020-06-08T13:19:28Z</time>
      </trkpt>
      <trkpt lat="48.23578" lon="-4.01619">
        <ele>137</ele>
        <time>2020-06-08T13:19:29Z</time>
      </trkpt>
      <trkpt lat="48.23579" lon="-4.01624">
        <ele>137</ele>
        <time>2020-06-08T13:19:30Z</time>
      </trkpt>
      <trkpt lat="48.23582" lon="-4.0163">
        <ele>137.1</ele>
        <time>2020-06-08T13:19:31Z</time>
      </trkpt>
      <trkpt lat="48.23584" lon="-4.01634">
        <ele>137.1</ele>
        <time>2020-06-08T13:19:32Z</time>
      </trkpt>
      <trkpt lat="48.23585" lon="-4.01639">
        <ele>137</ele>
        <time>2020-06-08T13:19:33Z</time>
      </trkpt>
      <trkpt lat="48.23587" lon="-4.01644">
        <ele>137</ele>
        <time>2020-06-08T13:19:34Z</time>
      </trkpt>
      <trkpt lat="48.23589" lon="-4.01649">
        <ele>137</ele>
        <time>2020-06-08T13:19:35Z</time>
      </trkpt>
      <trkpt lat="48.2359" lon="-4.01652">
        <ele>137</ele>
        <time>2020-06-08T13:19:36Z</time>
      </trkpt>
      <trkpt lat="48.23592" lon="-4.01656">
        <ele>137.1</ele>
        <time>2020-06-08T13:19:37Z</time>
      </trkpt>
      <trkpt lat="48.23595" lon="-4.0166">
        <ele>137.1</ele>
        <time>2020-06-08T13:19:38Z</time>
      </trkpt>
      <trkpt lat="48.23597" lon="-4.01664">
        <ele>137.1</ele>
        <time>2020-06-08T13:19:39Z</time>
      </trkpt>
      <trkpt lat="48.236" lon="-4.01669">
        <ele>137.1</ele>
        <time>2020-06-08T13:19:40Z</time>
      </trkpt>
      <trkpt lat="48.23603" lon="-4.01671">
        <ele>137.1</ele>
        <time>2020-06-08T13:19:41Z</time>
      </trkpt>
      <trkpt lat="48.23606" lon="-4.01674">
        <ele>137.2</ele>
        <time>2020-06-08T13:19:42Z</time>
      </trkpt>
      <trkpt lat="48.23609" lon="-4.01677">
        <ele>137.2</ele>
        <time>2020-06-08T13:19:43Z</time>
      </trkpt>
      <trkpt lat="48.23612" lon="-4.01679">
        <ele>137.2</ele>
        <time>2020-06-08T13:19:44Z</time>
      </trkpt>
      <trkpt lat="48.23615" lon="-4.01683">
        <ele>137.3</ele>
        <time>2020-06-08T13:19:45Z</time>
      </trkpt>
      <trkpt lat="48.23618" lon="-4.01687">
        <ele>137.3</ele>
        <time>2020-06-08T13:19:46Z</time>
      </trkpt>
      <trkpt lat="48.23622" lon="-4.0169">
        <ele>137.4</ele>
        <time>2020-06-08T13:19:47Z</time>
      </trkpt>
      <trkpt lat="48.23623" lon="-4.01691">
        <ele>137.4</ele>
        <time>2020-06-08T13:19:48Z</time>
      </trkpt>
      <trkpt lat="48.23626" lon="-4.01695">
        <ele>137.5</ele>
        <time>2020-06-08T13:19:49Z</time>
      </trkpt>
      <trkpt lat="48.23628" lon="-4.01698">
        <ele>137.5</ele>
        <time>2020-06-08T13:19:50Z</time>
      </trkpt>
      <trkpt lat="48.23631" lon="-4.017">
        <ele>137.6</ele>
        <time>2020-06-08T13:19:51Z</time>
      </trkpt>
      <trkpt lat="48.23633" lon="-4.01704">
        <ele>137.6</ele>
        <time>2020-06-08T13:19:52Z</time>
      </trkpt>
      <trkpt lat="48.23636" lon="-4.01708">
        <ele>137.7</ele>
        <time>2020-06-08T13:19:53Z</time>
      </trkpt>
      <trkpt lat="48.23639" lon="-4.0171">
        <ele>137.8</ele>
        <time>2020-06-08T13:19:54Z</time>
      </trkpt>
      <trkpt lat="48.23642" lon="-4.01713">
        <ele>137.8</ele>
        <time>2020-06-08T13:19:55Z</time>
      </trkpt>
      <trkpt lat="48.23645" lon="-4.01717">
        <ele>137.9</ele>
        <time>2020-06-08T13:19:56Z</time>
      </trkpt>
      <trkpt lat="48.23649" lon="-4.01721">
        <ele>138</ele>
        <time>2020-06-08T13:19:57Z</time>
      </trkpt>
      <trkpt lat="48.23653" lon="-4.01724">
        <ele>138.1</ele>
        <time>2020-06-08T13:19:58Z</time>
      </trkpt>
      <trkpt lat="48.23656" lon="-4.01728">
        <ele>138.1</ele>
        <time>2020-06-08T13:19:59Z</time>
      </trkpt>
      <trkpt lat="48.23659" lon="-4.01731">
        <ele>138.2</ele>
        <time>2020-06-08T13:20:00Z</time>
      </trkpt>
      <trkpt lat="48.23662" lon="-4.01734">
        <ele>138.3</ele>
        <time>2020-06-08T13:20:01Z</time>
      </trkpt>
      <trkpt lat="48.23665" lon="-4.01736">
        <ele>138.3</ele>
        <time>2020-06-08T13:20:02Z</time>
      </trkpt>
      <trkpt lat="48.23666" lon="-4.01737">
        <ele>138.3</ele>
        <time>2020-06-08T13:20:03Z</time>
      </trkpt>
      <trkpt lat="48.23669" lon="-4.0174">
        <ele>138.4</ele>
        <time>2020-06-08T13:20:04Z</time>
      </trkpt>
      <trkpt lat="48.23673" lon="-4.01744">
        <ele>138.4</ele>
        <time>2020-06-08T13:20:05Z</time>
      </trkpt>
      <trkpt lat="48.23676" lon="-4.01747">
        <ele>138.5</ele>
        <time>2020-06-08T13:20:06Z</time>
      </trkpt>
      <trkpt lat="48.23678" lon="-4.01751">
        <ele>138.5</ele>
        <time>2020-06-08T13:20:07Z</time>
      </trkpt>
      <trkpt lat="48.23681" lon="-4.01755">
        <ele>138.5</ele>
        <time>2020-06-08T13:20:08Z</time>
      </trkpt>
      <trkpt lat="48.23684" lon="-4.01759">
        <ele>138.5</ele>
        <time>2020-06-08T13:20:09Z</time>
      </trkpt>
      <trkpt lat="48.23686" lon="-4.01762">
        <ele>138.6</ele>
        <time>2020-06-08T13:20:10Z</time>
      </trkpt>
      <trkpt lat="48.23689" lon="-4.01765">
        <ele>138.6</ele>
        <time>2020-06-08T13:20:11Z</time>
      </trkpt>
      <trkpt lat="48.23691" lon="-4.01768">
        <ele>138.6</ele>
        <time>2020-06-08T13:20:12Z</time>
      </trkpt>
      <trkpt lat="48.23694" lon="-4.01772">
        <ele>138.6</ele>
        <time>2020-06-08T13:20:13Z</time>
      </trkpt>
      <trkpt lat="48.23697" lon="-4.01776">
        <ele>138.6</ele>
        <time>2020-06-08T13:20:14Z</time>
      </trkpt>
      <trkpt lat="48.237" lon="-4.01781">
        <ele>138.5</ele>
        <time>2020-06-08T13:20:15Z</time>
      </trkpt>
      <trkpt lat="48.23703" lon="-4.01785">
        <ele>138.5</ele>
        <time>2020-06-08T13:20:16Z</time>
      </trkpt>
      <trkpt lat="48.23706" lon="-4.01789">
        <ele>138.5</ele>
        <time>2020-06-08T13:20:17Z</time>
      </trkpt>
      <trkpt lat="48.23709" lon="-4.01793">
        <ele>138.5</ele>
        <time>2020-06-08T13:20:18Z</time>
      </trkpt>
      <trkpt lat="48.23712" lon="-4.01798">
        <ele>138.5</ele>
        <time>2020-06-08T13:20:19Z</time>
      </trkpt>
      <trkpt lat="48.23714" lon="-4.01803">
        <ele>138.4</ele>
        <time>2020-06-08T13:20:20Z</time>
      </trkpt>
      <trkpt lat="48.23716" lon="-4.01808">
        <ele>138.4</ele>
        <time>2020-06-08T13:20:21Z</time>
      </trkpt>
      <trkpt lat="48.23719" lon="-4.01813">
        <ele>138.4</ele>
        <time>2020-06-08T13:20:22Z</time>
      </trkpt>
      <trkpt lat="48.23723" lon="-4.01818">
        <ele>138.4</ele>
        <time>2020-06-08T13:20:23Z</time>
      </trkpt>
      <trkpt lat="48.23725" lon="-4.01821">
        <ele>138.4</ele>
        <time>2020-06-08T13:20:24Z</time>
      </trkpt>
      <trkpt lat="48.23729" lon="-4.01825">
        <ele>138.3</ele>
        <time>2020-06-08T13:20:25Z</time>
      </trkpt>
      <trkpt lat="48.23732" lon="-4.0183">
        <ele>138.3</ele>
        <time>2020-06-08T13:20:26Z</time>
      </trkpt>
      <trkpt lat="48.23735" lon="-4.01834">
        <ele>138.3</ele>
        <time>2020-06-08T13:20:27Z</time>
      </trkpt>
      <trkpt lat="48.23739" lon="-4.01839">
        <ele>138.2</ele>
        <time>2020-06-08T13:20:28Z</time>
      </trkpt>
      <trkpt lat="48.23743" lon="-4.01843">
        <ele>138.2</ele>
        <time>2020-06-08T13:20:29Z</time>
      </trkpt>
      <trkpt lat="48.23748" lon="-4.01846">
        <ele>138.2</ele>
        <time>2020-06-08T13:20:30Z</time>
      </trkpt>
      <trkpt lat="48.23751" lon="-4.0185">
        <ele>138.1</ele>
        <time>2020-06-08T13:20:31Z</time>
      </trkpt>
      <trkpt lat="48.23755" lon="-4.01853">
        <ele>138.1</ele>
        <time>2020-06-08T13:20:32Z</time>
      </trkpt>
      <trkpt lat="48.23759" lon="-4.01855">
        <ele>138.1</ele>
        <time>2020-06-08T13:20:33Z</time>
      </trkpt>
      <trkpt lat="48.23763" lon="-4.01858">
        <ele>138.1</ele>
        <time>2020-06-08T13:20:34Z</time>
      </trkpt>
      <trkpt lat="48.23766" lon="-4.0186">
        <ele>138.1</ele>
        <time>2020-06-08T13:20:35Z</time>
      </trkpt>
      <trkpt lat="48.23769" lon="-4.01863">
        <ele>138.1</ele>
        <time>2020-06-08T13:20:36Z</time>
      </trkpt>
      <trkpt lat="48.23773" lon="-4.01867">
        <ele>138.1</ele>
        <time>2020-06-08T13:20:37Z</time>
      </trkpt>
      <trkpt lat="48.23776" lon="-4.01871">
        <ele>138.1</ele>
        <time>2020-06-08T13:20:38Z</time>
      </trkpt>
      <trkpt lat="48.23779" lon="-4.01873">
        <ele>138.1</ele>
        <time>2020-06-08T13:20:39Z</time>
      </trkpt>
      <trkpt lat="48.23782" lon="-4.01876">
        <ele>138.1</ele>
        <time>2020-06-08T13:20:40Z</time>
      </trkpt>
      <trkpt lat="48.23786" lon="-4.01879">
        <ele>138</ele>
        <time>2020-06-08T13:20:41Z</time>
      </trkpt>
      <trkpt lat="48.23791" lon="-4.01882">
        <ele>138</ele>
        <time>2020-06-08T13:20:42Z</time>
      </trkpt>
      <trkpt lat="48.23795" lon="-4.01886">
        <ele>138</ele>
        <time>2020-06-08T13:20:43Z</time>
      </trkpt>
      <trkpt lat="48.23798" lon="-4.01889">
        <ele>138</ele>
        <time>2020-06-08T13:20:44Z</time>
      </trkpt>
      <trkpt lat="48.23801" lon="-4.01893">
        <ele>137.9</ele>
        <time>2020-06-08T13:20:45Z</time>
      </trkpt>
      <trkpt lat="48.23804" lon="-4.01896">
        <ele>137.9</ele>
        <time>2020-06-08T13:20:46Z</time>
      </trkpt>
      <trkpt lat="48.23808" lon="-4.01899">
        <ele>137.9</ele>
        <time>2020-06-08T13:20:47Z</time>
      </trkpt>
      <trkpt lat="48.2381" lon="-4.01901">
        <ele>137.8</ele>
        <time>2020-06-08T13:20:48Z</time>
      </trkpt>
      <trkpt lat="48.23813" lon="-4.01904">
        <ele>137.8</ele>
        <time>2020-06-08T13:20:49Z</time>
      </trkpt>
      <trkpt lat="48.23816" lon="-4.01907">
        <ele>137.8</ele>
        <time>2020-06-08T13:20:50Z</time>
      </trkpt>
      <trkpt lat="48.23818" lon="-4.0191">
        <ele>137.8</ele>
        <time>2020-06-08T13:20:51Z</time>
      </trkpt>
      <trkpt lat="48.23821" lon="-4.01914">
        <ele>137.7</ele>
        <time>2020-06-08T13:20:52Z</time>
      </trkpt>
      <trkpt lat="48.23824" lon="-4.01919">
        <ele>137.7</ele>
        <time>2020-06-08T13:20:53Z</time>
      </trkpt>
      <trkpt lat="48.23828" lon="-4.01923">
        <ele>137.7</ele>
        <time>2020-06-08T13:20:54Z</time>
      </trkpt>
      <trkpt lat="48.2383" lon="-4.01926">
        <ele>137.6</ele>
        <time>2020-06-08T13:20:55Z</time>
      </trkpt>
      <trkpt lat="48.23833" lon="-4.0193">
        <ele>137.6</ele>
        <time>2020-06-08T13:20:56Z</time>
      </trkpt>
      <trkpt lat="48.23836" lon="-4.01932">
        <ele>137.6</ele>
        <time>2020-06-08T13:20:57Z</time>
      </trkpt>
      <trkpt lat="48.23839" lon="-4.01935">
        <ele>137.6</ele>
        <time>2020-06-08T13:20:58Z</time>
      </trkpt>
      <trkpt lat="48.23843" lon="-4.01938">
        <ele>137.6</ele>
        <time>2020-06-08T13:20:59Z</time>
      </trkpt>
      <trkpt lat="48.23846" lon="-4.01941">
        <ele>137.6</ele>
        <time>2020-06-08T13:21:00Z</time>
      </trkpt>
      <trkpt lat="48.2385" lon="-4.01943">
        <ele>137.6</ele>
        <time>2020-06-08T13:21:01Z</time>
      </trkpt>
      <trkpt lat="48.23854" lon="-4.01947">
        <ele>137.6</ele>
        <time>2020-06-08T13:21:02Z</time>
      </trkpt>
      <trkpt lat="48.23857" lon="-4.01949">
        <ele>137.6</ele>
        <time>2020-06-08T13:21:03Z</time>
      </trkpt>
      <trkpt lat="48.2386" lon="-4.01952">
        <ele>137.6</ele>
        <time>2020-06-08T13:21:04Z</time>
      </trkpt>
      <trkpt lat="48.23863" lon="-4.01955">
        <ele>137.6</ele>
        <time>2020-06-08T13:21:05Z</time>
      </trkpt>
      <trkpt lat="48.23866" lon="-4.0196">
        <ele>137.6</ele>
        <time>2020-06-08T13:21:06Z</time>
      </trkpt>
      <trkpt lat="48.2387" lon="-4.01963">
        <ele>137.6</ele>
        <time>2020-06-08T13:21:07Z</time>
      </trkpt>
      <trkpt lat="48.23873" lon="-4.01967">
        <ele>137.6</ele>
        <time>2020-06-08T13:21:08Z</time>
      </trkpt>
      <trkpt lat="48.23878" lon="-4.0197">
        <ele>137.6</ele>
        <time>2020-06-08T13:21:09Z</time>
      </trkpt>
      <trkpt lat="48.2388" lon="-4.01972">
        <ele>137.5</ele>
        <time>2020-06-08T13:21:10Z</time>
      </trkpt>
      <trkpt lat="48.23884" lon="-4.01975">
        <ele>137.5</ele>
        <time>2020-06-08T13:21:11Z</time>
      </trkpt>
      <trkpt lat="48.23887" lon="-4.01979">
        <ele>137.5</ele>
        <time>2020-06-08T13:21:12Z</time>
      </trkpt>
      <trkpt lat="48.23889" lon="-4.01981">
        <ele>137.5</ele>
        <time>2020-06-08T13:21:13Z</time>
      </trkpt>
      <trkpt lat="48.23892" lon="-4.01984">
        <ele>137.4</ele>
        <time>2020-06-08T13:21:14Z</time>
      </trkpt>
      <trkpt lat="48.23896" lon="-4.01987">
        <ele>137.4</ele>
        <time>2020-06-08T13:21:15Z</time>
      </trkpt>
      <trkpt lat="48.23899" lon="-4.01989">
        <ele>137.4</ele>
        <time>2020-06-08T13:21:16Z</time>
      </trkpt>
      <trkpt lat="48.23903" lon="-4.01992">
        <ele>137.4</ele>
        <time>2020-06-08T13:21:17Z</time>
      </trkpt>
      <trkpt lat="48.23907" lon="-4.01995">
        <ele>137.4</ele>
        <time>2020-06-08T13:21:18Z</time>
      </trkpt>
      <trkpt lat="48.23911" lon="-4.01999">
        <ele>137.4</ele>
        <time>2020-06-08T13:21:19Z</time>
      </trkpt>
      <trkpt lat="48.23915" lon="-4.02002">
        <ele>137.4</ele>
        <time>2020-06-08T13:21:20Z</time>
      </trkpt>
      <trkpt lat="48.23919" lon="-4.02006">
        <ele>137.4</ele>
        <time>2020-06-08T13:21:21Z</time>
      </trkpt>
      <trkpt lat="48.23923" lon="-4.0201">
        <ele>137.4</ele>
        <time>2020-06-08T13:21:22Z</time>
      </trkpt>
      <trkpt lat="48.23926" lon="-4.02014">
        <ele>137.4</ele>
        <time>2020-06-08T13:21:23Z</time>
      </trkpt>
      <trkpt lat="48.2393" lon="-4.02017">
        <ele>137.4</ele>
        <time>2020-06-08T13:21:24Z</time>
      </trkpt>
      <trkpt lat="48.23933" lon="-4.0202">
        <ele>137.4</ele>
        <time>2020-06-08T13:21:25Z</time>
      </trkpt>
      <trkpt lat="48.23936" lon="-4.02024">
        <ele>137.4</ele>
        <time>2020-06-08T13:21:26Z</time>
      </trkpt>
      <trkpt lat="48.2394" lon="-4.02028">
        <ele>137.3</ele>
        <time>2020-06-08T13:21:27Z</time>
      </trkpt>
      <trkpt lat="48.23943" lon="-4.02031">
        <ele>137.3</ele>
        <time>2020-06-08T13:21:28Z</time>
      </trkpt>
      <trkpt lat="48.23947" lon="-4.02034">
        <ele>137.3</ele>
        <time>2020-06-08T13:21:29Z</time>
      </trkpt>
      <trkpt lat="48.2395" lon="-4.02038">
        <ele>137.3</ele>
        <time>2020-06-08T13:21:30Z</time>
      </trkpt>
      <trkpt lat="48.23953" lon="-4.02041">
        <ele>137.2</ele>
        <time>2020-06-08T13:21:31Z</time>
      </trkpt>
      <trkpt lat="48.23955" lon="-4.02045">
        <ele>137.2</ele>
        <time>2020-06-08T13:21:32Z</time>
      </trkpt>
      <trkpt lat="48.23957" lon="-4.02048">
        <ele>137.2</ele>
        <time>2020-06-08T13:21:33Z</time>
      </trkpt>
      <trkpt lat="48.23959" lon="-4.02054">
        <ele>137.1</ele>
        <time>2020-06-08T13:21:34Z</time>
      </trkpt>
      <trkpt lat="48.23959" lon="-4.0206">
        <ele>137</ele>
        <time>2020-06-08T13:21:35Z</time>
      </trkpt>
      <trkpt lat="48.23959" lon="-4.02067">
        <ele>136.7</ele>
        <time>2020-06-08T13:21:36Z</time>
      </trkpt>
      <trkpt lat="48.23958" lon="-4.02074">
        <ele>136.5</ele>
        <time>2020-06-08T13:21:37Z</time>
      </trkpt>
      <trkpt lat="48.23956" lon="-4.0208">
        <ele>136.4</ele>
        <time>2020-06-08T13:21:38Z</time>
      </trkpt>
      <trkpt lat="48.23954" lon="-4.02086">
        <ele>136.2</ele>
        <time>2020-06-08T13:21:39Z</time>
      </trkpt>
      <trkpt lat="48.2395" lon="-4.02091">
        <ele>136</ele>
        <time>2020-06-08T13:21:40Z</time>
      </trkpt>
      <trkpt lat="48.23948" lon="-4.02098">
        <ele>135.8</ele>
        <time>2020-06-08T13:21:41Z</time>
      </trkpt>
      <trkpt lat="48.23945" lon="-4.02103">
        <ele>135.7</ele>
        <time>2020-06-08T13:21:42Z</time>
      </trkpt>
      <trkpt lat="48.23943" lon="-4.02108">
        <ele>135.6</ele>
        <time>2020-06-08T13:21:43Z</time>
      </trkpt>
      <trkpt lat="48.2394" lon="-4.02114">
        <ele>135.5</ele>
        <time>2020-06-08T13:21:44Z</time>
      </trkpt>
      <trkpt lat="48.23937" lon="-4.02119">
        <ele>135.4</ele>
        <time>2020-06-08T13:21:45Z</time>
      </trkpt>
      <trkpt lat="48.23934" lon="-4.02125">
        <ele>135.3</ele>
        <time>2020-06-08T13:21:46Z</time>
      </trkpt>
      <trkpt lat="48.23933" lon="-4.0213">
        <ele>135.3</ele>
        <time>2020-06-08T13:21:47Z</time>
      </trkpt>
      <trkpt lat="48.23931" lon="-4.02134">
        <ele>135.2</ele>
        <time>2020-06-08T13:21:48Z</time>
      </trkpt>
      <trkpt lat="48.23931" lon="-4.02137">
        <ele>135.2</ele>
        <time>2020-06-08T13:21:49Z</time>
      </trkpt>
      <trkpt lat="48.23931" lon="-4.02138">
        <ele>135.2</ele>
        <time>2020-06-08T13:21:50Z</time>
      </trkpt>
      <trkpt lat="48.23931" lon="-4.02141">
        <ele>135.2</ele>
        <time>2020-06-08T13:21:51Z</time>
      </trkpt>
      <trkpt lat="48.2393" lon="-4.02143">
        <ele>135.1</ele>
        <time>2020-06-08T13:21:52Z</time>
      </trkpt>
      <trkpt lat="48.2393" lon="-4.02144">
        <ele>135.1</ele>
        <time>2020-06-08T13:21:53Z</time>
      </trkpt>
      <trkpt lat="48.23928" lon="-4.02148">
        <ele>135.1</ele>
        <time>2020-06-08T13:21:54Z</time>
      </trkpt>
      <trkpt lat="48.23927" lon="-4.02149">
        <ele>135.1</ele>
        <time>2020-06-08T13:21:55Z</time>
      </trkpt>
      <trkpt lat="48.23926" lon="-4.02153">
        <ele>135.1</ele>
        <time>2020-06-08T13:21:56Z</time>
      </trkpt>
      <trkpt lat="48.23925" lon="-4.02155">
        <ele>135</ele>
        <time>2020-06-08T13:21:57Z</time>
      </trkpt>
      <trkpt lat="48.23923" lon="-4.02159">
        <ele>135</ele>
        <time>2020-06-08T13:21:58Z</time>
      </trkpt>
      <trkpt lat="48.23922" lon="-4.02164">
        <ele>135</ele>
        <time>2020-06-08T13:21:59Z</time>
      </trkpt>
      <trkpt lat="48.23922" lon="-4.02169">
        <ele>135</ele>
        <time>2020-06-08T13:22:00Z</time>
      </trkpt>
      <trkpt lat="48.23921" lon="-4.02174">
        <ele>134.9</ele>
        <time>2020-06-08T13:22:01Z</time>
      </trkpt>
      <trkpt lat="48.23919" lon="-4.0218">
        <ele>134.9</ele>
        <time>2020-06-08T13:22:02Z</time>
      </trkpt>
      <trkpt lat="48.23917" lon="-4.02185">
        <ele>134.9</ele>
        <time>2020-06-08T13:22:03Z</time>
      </trkpt>
      <trkpt lat="48.23915" lon="-4.02191">
        <ele>134.8</ele>
        <time>2020-06-08T13:22:04Z</time>
      </trkpt>
      <trkpt lat="48.23914" lon="-4.02197">
        <ele>134.8</ele>
        <time>2020-06-08T13:22:05Z</time>
      </trkpt>
      <trkpt lat="48.23912" lon="-4.02203">
        <ele>134.8</ele>
        <time>2020-06-08T13:22:06Z</time>
      </trkpt>
      <trkpt lat="48.2391" lon="-4.0221">
        <ele>134.8</ele>
        <time>2020-06-08T13:22:07Z</time>
      </trkpt>
      <trkpt lat="48.23908" lon="-4.02216">
        <ele>134.8</ele>
        <time>2020-06-08T13:22:08Z</time>
      </trkpt>
      <trkpt lat="48.23906" lon="-4.02223">
        <ele>134.9</ele>
        <time>2020-06-08T13:22:09Z</time>
      </trkpt>
      <trkpt lat="48.23904" lon="-4.02229">
        <ele>134.9</ele>
        <time>2020-06-08T13:22:10Z</time>
      </trkpt>
      <trkpt lat="48.23903" lon="-4.02235">
        <ele>135</ele>
        <time>2020-06-08T13:22:11Z</time>
      </trkpt>
      <trkpt lat="48.23902" lon="-4.02242">
        <ele>135</ele>
        <time>2020-06-08T13:22:12Z</time>
      </trkpt>
      <trkpt lat="48.23901" lon="-4.02248">
        <ele>135.1</ele>
        <time>2020-06-08T13:22:13Z</time>
      </trkpt>
      <trkpt lat="48.23899" lon="-4.02255">
        <ele>135.2</ele>
        <time>2020-06-08T13:22:14Z</time>
      </trkpt>
      <trkpt lat="48.23897" lon="-4.02261">
        <ele>135.2</ele>
        <time>2020-06-08T13:22:15Z</time>
      </trkpt>
      <trkpt lat="48.23897" lon="-4.02268">
        <ele>135.3</ele>
        <time>2020-06-08T13:22:16Z</time>
      </trkpt>
      <trkpt lat="48.23895" lon="-4.02274">
        <ele>135.4</ele>
        <time>2020-06-08T13:22:17Z</time>
      </trkpt>
      <trkpt lat="48.23893" lon="-4.0228">
        <ele>135.5</ele>
        <time>2020-06-08T13:22:18Z</time>
      </trkpt>
      <trkpt lat="48.23892" lon="-4.02286">
        <ele>135.6</ele>
        <time>2020-06-08T13:22:19Z</time>
      </trkpt>
      <trkpt lat="48.23891" lon="-4.02293">
        <ele>135.6</ele>
        <time>2020-06-08T13:22:20Z</time>
      </trkpt>
      <trkpt lat="48.23891" lon="-4.02299">
        <ele>135.7</ele>
        <time>2020-06-08T13:22:21Z</time>
      </trkpt>
      <trkpt lat="48.2389" lon="-4.02306">
        <ele>135.8</ele>
        <time>2020-06-08T13:22:22Z</time>
      </trkpt>
      <trkpt lat="48.23889" lon="-4.02313">
        <ele>135.9</ele>
        <time>2020-06-08T13:22:23Z</time>
      </trkpt>
      <trkpt lat="48.23888" lon="-4.02319">
        <ele>136</ele>
        <time>2020-06-08T13:22:24Z</time>
      </trkpt>
      <trkpt lat="48.23886" lon="-4.02326">
        <ele>136.1</ele>
        <time>2020-06-08T13:22:25Z</time>
      </trkpt>
      <trkpt lat="48.23884" lon="-4.02333">
        <ele>136.2</ele>
        <time>2020-06-08T13:22:26Z</time>
      </trkpt>
      <trkpt lat="48.23883" lon="-4.02339">
        <ele>136.4</ele>
        <time>2020-06-08T13:22:27Z</time>
      </trkpt>
      <trkpt lat="48.23883" lon="-4.02345">
        <ele>136.5</ele>
        <time>2020-06-08T13:22:28Z</time>
      </trkpt>
      <trkpt lat="48.23881" lon="-4.02351">
        <ele>136.6</ele>
        <time>2020-06-08T13:22:29Z</time>
      </trkpt>
      <trkpt lat="48.23881" lon="-4.02358">
        <ele>136.7</ele>
        <time>2020-06-08T13:22:30Z</time>
      </trkpt>
      <trkpt lat="48.2388" lon="-4.02364">
        <ele>136.9</ele>
        <time>2020-06-08T13:22:31Z</time>
      </trkpt>
      <trkpt lat="48.23879" lon="-4.02371">
        <ele>137</ele>
        <time>2020-06-08T13:22:32Z</time>
      </trkpt>
      <trkpt lat="48.23878" lon="-4.02377">
        <ele>137.2</ele>
        <time>2020-06-08T13:22:33Z</time>
      </trkpt>
      <trkpt lat="48.23876" lon="-4.02385">
        <ele>137.4</ele>
        <time>2020-06-08T13:22:34Z</time>
      </trkpt>
      <trkpt lat="48.23874" lon="-4.02393">
        <ele>137.6</ele>
        <time>2020-06-08T13:22:35Z</time>
      </trkpt>
      <trkpt lat="48.23872" lon="-4.02399">
        <ele>137.8</ele>
        <time>2020-06-08T13:22:36Z</time>
      </trkpt>
      <trkpt lat="48.2387" lon="-4.02407">
        <ele>138</ele>
        <time>2020-06-08T13:22:37Z</time>
      </trkpt>
      <trkpt lat="48.23869" lon="-4.02413">
        <ele>138.2</ele>
        <time>2020-06-08T13:22:38Z</time>
      </trkpt>
      <trkpt lat="48.23868" lon="-4.02419">
        <ele>138.4</ele>
        <time>2020-06-08T13:22:39Z</time>
      </trkpt>
      <trkpt lat="48.23866" lon="-4.02427">
        <ele>138.7</ele>
        <time>2020-06-08T13:22:40Z</time>
      </trkpt>
      <trkpt lat="48.23865" lon="-4.02432">
        <ele>138.9</ele>
        <time>2020-06-08T13:22:41Z</time>
      </trkpt>
      <trkpt lat="48.23863" lon="-4.02437">
        <ele>139.1</ele>
        <time>2020-06-08T13:22:42Z</time>
      </trkpt>
      <trkpt lat="48.23861" lon="-4.02442">
        <ele>139.3</ele>
        <time>2020-06-08T13:22:43Z</time>
      </trkpt>
      <trkpt lat="48.23859" lon="-4.0245">
        <ele>139.6</ele>
        <time>2020-06-08T13:22:44Z</time>
      </trkpt>
      <trkpt lat="48.23857" lon="-4.02455">
        <ele>139.9</ele>
        <time>2020-06-08T13:22:45Z</time>
      </trkpt>
      <trkpt lat="48.23855" lon="-4.02461">
        <ele>140.2</ele>
        <time>2020-06-08T13:22:46Z</time>
      </trkpt>
      <trkpt lat="48.23854" lon="-4.02466">
        <ele>140.4</ele>
        <time>2020-06-08T13:22:47Z</time>
      </trkpt>
      <trkpt lat="48.23853" lon="-4.02471">
        <ele>140.6</ele>
        <time>2020-06-08T13:22:48Z</time>
      </trkpt>
      <trkpt lat="48.23851" lon="-4.02478">
        <ele>140.9</ele>
        <time>2020-06-08T13:22:49Z</time>
      </trkpt>
      <trkpt lat="48.23849" lon="-4.02482">
        <ele>141.1</ele>
        <time>2020-06-08T13:22:50Z</time>
      </trkpt>
      <trkpt lat="48.23847" lon="-4.02486">
        <ele>141.3</ele>
        <time>2020-06-08T13:22:51Z</time>
      </trkpt>
      <trkpt lat="48.23846" lon="-4.02491">
        <ele>141.5</ele>
        <time>2020-06-08T13:22:52Z</time>
      </trkpt>
      <trkpt lat="48.23845" lon="-4.02495">
        <ele>141.7</ele>
        <time>2020-06-08T13:22:53Z</time>
      </trkpt>
      <trkpt lat="48.23844" lon="-4.025">
        <ele>141.8</ele>
        <time>2020-06-08T13:22:54Z</time>
      </trkpt>
      <trkpt lat="48.23843" lon="-4.02504">
        <ele>142</ele>
        <time>2020-06-08T13:22:55Z</time>
      </trkpt>
      <trkpt lat="48.2384" lon="-4.02509">
        <ele>142.1</ele>
        <time>2020-06-08T13:22:56Z</time>
      </trkpt>
      <trkpt lat="48.23839" lon="-4.02514">
        <ele>142.3</ele>
        <time>2020-06-08T13:22:57Z</time>
      </trkpt>
      <trkpt lat="48.23839" lon="-4.02516">
        <ele>142.3</ele>
        <time>2020-06-08T13:22:58Z</time>
      </trkpt>
      <trkpt lat="48.23837" lon="-4.02521">
        <ele>142.5</ele>
        <time>2020-06-08T13:22:59Z</time>
      </trkpt>
      <trkpt lat="48.23836" lon="-4.02526">
        <ele>142.6</ele>
        <time>2020-06-08T13:23:00Z</time>
      </trkpt>
      <trkpt lat="48.23835" lon="-4.02529">
        <ele>142.7</ele>
        <time>2020-06-08T13:23:01Z</time>
      </trkpt>
      <trkpt lat="48.23835" lon="-4.02533">
        <ele>142.7</ele>
        <time>2020-06-08T13:23:02Z</time>
      </trkpt>
      <trkpt lat="48.23834" lon="-4.02538">
        <ele>142.8</ele>
        <time>2020-06-08T13:23:03Z</time>
      </trkpt>
      <trkpt lat="48.23832" lon="-4.02545">
        <ele>142.9</ele>
        <time>2020-06-08T13:23:04Z</time>
      </trkpt>
      <trkpt lat="48.23831" lon="-4.02549">
        <ele>142.9</ele>
        <time>2020-06-08T13:23:05Z</time>
      </trkpt>
      <trkpt lat="48.23829" lon="-4.02553">
        <ele>142.9</ele>
        <time>2020-06-08T13:23:06Z</time>
      </trkpt>
      <trkpt lat="48.23827" lon="-4.02558">
        <ele>142.9</ele>
        <time>2020-06-08T13:23:07Z</time>
      </trkpt>
      <trkpt lat="48.23826" lon="-4.02562">
        <ele>142.8</ele>
        <time>2020-06-08T13:23:08Z</time>
      </trkpt>
      <trkpt lat="48.23824" lon="-4.02567">
        <ele>142.8</ele>
        <time>2020-06-08T13:23:09Z</time>
      </trkpt>
      <trkpt lat="48.23823" lon="-4.02572">
        <ele>142.7</ele>
        <time>2020-06-08T13:23:10Z</time>
      </trkpt>
      <trkpt lat="48.23822" lon="-4.02577">
        <ele>142.7</ele>
        <time>2020-06-08T13:23:11Z</time>
      </trkpt>
      <trkpt lat="48.23821" lon="-4.02582">
        <ele>142.6</ele>
        <time>2020-06-08T13:23:12Z</time>
      </trkpt>
      <trkpt lat="48.23819" lon="-4.02589">
        <ele>142.5</ele>
        <time>2020-06-08T13:23:13Z</time>
      </trkpt>
      <trkpt lat="48.23817" lon="-4.02596">
        <ele>142.3</ele>
        <time>2020-06-08T13:23:14Z</time>
      </trkpt>
      <trkpt lat="48.23815" lon="-4.02604">
        <ele>142.2</ele>
        <time>2020-06-08T13:23:15Z</time>
      </trkpt>
      <trkpt lat="48.23812" lon="-4.0261">
        <ele>142.1</ele>
        <time>2020-06-08T13:23:16Z</time>
      </trkpt>
      <trkpt lat="48.23809" lon="-4.02617">
        <ele>141.9</ele>
        <time>2020-06-08T13:23:17Z</time>
      </trkpt>
      <trkpt lat="48.23805" lon="-4.02626">
        <ele>141.8</ele>
        <time>2020-06-08T13:23:18Z</time>
      </trkpt>
      <trkpt lat="48.23803" lon="-4.02632">
        <ele>141.7</ele>
        <time>2020-06-08T13:23:19Z</time>
      </trkpt>
      <trkpt lat="48.238" lon="-4.0264">
        <ele>141.6</ele>
        <time>2020-06-08T13:23:20Z</time>
      </trkpt>
      <trkpt lat="48.23797" lon="-4.02648">
        <ele>141.5</ele>
        <time>2020-06-08T13:23:21Z</time>
      </trkpt>
      <trkpt lat="48.23794" lon="-4.02656">
        <ele>141.4</ele>
        <time>2020-06-08T13:23:22Z</time>
      </trkpt>
      <trkpt lat="48.23791" lon="-4.02665">
        <ele>141.4</ele>
        <time>2020-06-08T13:23:23Z</time>
      </trkpt>
      <trkpt lat="48.23788" lon="-4.02674">
        <ele>141.4</ele>
        <time>2020-06-08T13:23:24Z</time>
      </trkpt>
      <trkpt lat="48.23786" lon="-4.02681">
        <ele>141.4</ele>
        <time>2020-06-08T13:23:25Z</time>
      </trkpt>
      <trkpt lat="48.23783" lon="-4.0269">
        <ele>141.4</ele>
        <time>2020-06-08T13:23:26Z</time>
      </trkpt>
      <trkpt lat="48.23781" lon="-4.02697">
        <ele>141.2</ele>
        <time>2020-06-08T13:23:27Z</time>
      </trkpt>
      <trkpt lat="48.23779" lon="-4.02705">
        <ele>141.1</ele>
        <time>2020-06-08T13:23:28Z</time>
      </trkpt>
      <trkpt lat="48.23777" lon="-4.02712">
        <ele>141</ele>
        <time>2020-06-08T13:23:29Z</time>
      </trkpt>
      <trkpt lat="48.23775" lon="-4.02718">
        <ele>140.9</ele>
        <time>2020-06-08T13:23:30Z</time>
      </trkpt>
      <trkpt lat="48.23771" lon="-4.02726">
        <ele>140.8</ele>
        <time>2020-06-08T13:23:31Z</time>
      </trkpt>
      <trkpt lat="48.23768" lon="-4.02734">
        <ele>140.8</ele>
        <time>2020-06-08T13:23:32Z</time>
      </trkpt>
      <trkpt lat="48.23765" lon="-4.02741">
        <ele>140.8</ele>
        <time>2020-06-08T13:23:33Z</time>
      </trkpt>
      <trkpt lat="48.23762" lon="-4.02748">
        <ele>140.8</ele>
        <time>2020-06-08T13:23:34Z</time>
      </trkpt>
      <trkpt lat="48.23758" lon="-4.02756">
        <ele>140.8</ele>
        <time>2020-06-08T13:23:35Z</time>
      </trkpt>
      <trkpt lat="48.23755" lon="-4.02764">
        <ele>140.8</ele>
        <time>2020-06-08T13:23:36Z</time>
      </trkpt>
      <trkpt lat="48.23752" lon="-4.02772">
        <ele>140.9</ele>
        <time>2020-06-08T13:23:37Z</time>
      </trkpt>
      <trkpt lat="48.23751" lon="-4.0278">
        <ele>140.9</ele>
        <time>2020-06-08T13:23:38Z</time>
      </trkpt>
      <trkpt lat="48.23748" lon="-4.02787">
        <ele>140.9</ele>
        <time>2020-06-08T13:23:39Z</time>
      </trkpt>
      <trkpt lat="48.23745" lon="-4.02796">
        <ele>141</ele>
        <time>2020-06-08T13:23:40Z</time>
      </trkpt>
      <trkpt lat="48.23743" lon="-4.02803">
        <ele>141.1</ele>
        <time>2020-06-08T13:23:41Z</time>
      </trkpt>
      <trkpt lat="48.23742" lon="-4.02813">
        <ele>141.2</ele>
        <time>2020-06-08T13:23:42Z</time>
      </trkpt>
      <trkpt lat="48.2374" lon="-4.02818">
        <ele>141.3</ele>
        <time>2020-06-08T13:23:43Z</time>
      </trkpt>
      <trkpt lat="48.23737" lon="-4.02823">
        <ele>141.4</ele>
        <time>2020-06-08T13:23:44Z</time>
      </trkpt>
      <trkpt lat="48.23735" lon="-4.02829">
        <ele>141.4</ele>
        <time>2020-06-08T13:23:45Z</time>
      </trkpt>
      <trkpt lat="48.23733" lon="-4.02835">
        <ele>141.4</ele>
        <time>2020-06-08T13:23:46Z</time>
      </trkpt>
      <trkpt lat="48.2373" lon="-4.02841">
        <ele>141.4</ele>
        <time>2020-06-08T13:23:47Z</time>
      </trkpt>
      <trkpt lat="48.23728" lon="-4.02847">
        <ele>141.4</ele>
        <time>2020-06-08T13:23:48Z</time>
      </trkpt>
      <trkpt lat="48.23726" lon="-4.02852">
        <ele>141.4</ele>
        <time>2020-06-08T13:23:49Z</time>
      </trkpt>
      <trkpt lat="48.23724" lon="-4.02858">
        <ele>141.4</ele>
        <time>2020-06-08T13:23:50Z</time>
      </trkpt>
      <trkpt lat="48.23722" lon="-4.02866">
        <ele>141.4</ele>
        <time>2020-06-08T13:23:51Z</time>
      </trkpt>
      <trkpt lat="48.2372" lon="-4.02872">
        <ele>141.4</ele>
        <time>2020-06-08T13:23:52Z</time>
      </trkpt>
      <trkpt lat="48.23717" lon="-4.02879">
        <ele>141.3</ele>
        <time>2020-06-08T13:23:53Z</time>
      </trkpt>
      <trkpt lat="48.23714" lon="-4.02886">
        <ele>141.3</ele>
        <time>2020-06-08T13:23:54Z</time>
      </trkpt>
      <trkpt lat="48.23712" lon="-4.02893">
        <ele>141.2</ele>
        <time>2020-06-08T13:23:55Z</time>
      </trkpt>
      <trkpt lat="48.23708" lon="-4.029">
        <ele>141.1</ele>
        <time>2020-06-08T13:23:56Z</time>
      </trkpt>
      <trkpt lat="48.23707" lon="-4.02907">
        <ele>141.1</ele>
        <time>2020-06-08T13:23:57Z</time>
      </trkpt>
      <trkpt lat="48.23704" lon="-4.02914">
        <ele>141</ele>
        <time>2020-06-08T13:23:58Z</time>
      </trkpt>
      <trkpt lat="48.23702" lon="-4.02922">
        <ele>140.9</ele>
        <time>2020-06-08T13:23:59Z</time>
      </trkpt>
      <trkpt lat="48.237" lon="-4.02928">
        <ele>140.8</ele>
        <time>2020-06-08T13:24:00Z</time>
      </trkpt>
      <trkpt lat="48.23698" lon="-4.02935">
        <ele>140.7</ele>
        <time>2020-06-08T13:24:01Z</time>
      </trkpt>
      <trkpt lat="48.23696" lon="-4.02942">
        <ele>140.6</ele>
        <time>2020-06-08T13:24:02Z</time>
      </trkpt>
      <trkpt lat="48.23693" lon="-4.0295">
        <ele>140.5</ele>
        <time>2020-06-08T13:24:03Z</time>
      </trkpt>
      <trkpt lat="48.23689" lon="-4.02959">
        <ele>140.3</ele>
        <time>2020-06-08T13:24:04Z</time>
      </trkpt>
      <trkpt lat="48.23686" lon="-4.02967">
        <ele>140.1</ele>
        <time>2020-06-08T13:24:05Z</time>
      </trkpt>
      <trkpt lat="48.23683" lon="-4.02973">
        <ele>139.9</ele>
        <time>2020-06-08T13:24:06Z</time>
      </trkpt>
      <trkpt lat="48.2368" lon="-4.02982">
        <ele>139.7</ele>
        <time>2020-06-08T13:24:07Z</time>
      </trkpt>
      <trkpt lat="48.23675" lon="-4.02991">
        <ele>139.3</ele>
        <time>2020-06-08T13:24:08Z</time>
      </trkpt>
      <trkpt lat="48.23671" lon="-4.02999">
        <ele>139</ele>
        <time>2020-06-08T13:24:09Z</time>
      </trkpt>
      <trkpt lat="48.23666" lon="-4.03008">
        <ele>138.6</ele>
        <time>2020-06-08T13:24:10Z</time>
      </trkpt>
      <trkpt lat="48.23662" lon="-4.03018">
        <ele>138.3</ele>
        <time>2020-06-08T13:24:11Z</time>
      </trkpt>
      <trkpt lat="48.23658" lon="-4.03028">
        <ele>137.9</ele>
        <time>2020-06-08T13:24:12Z</time>
      </trkpt>
      <trkpt lat="48.23653" lon="-4.03039">
        <ele>137.5</ele>
        <time>2020-06-08T13:24:13Z</time>
      </trkpt>
      <trkpt lat="48.23649" lon="-4.0305">
        <ele>137.2</ele>
        <time>2020-06-08T13:24:14Z</time>
      </trkpt>
      <trkpt lat="48.23644" lon="-4.0306">
        <ele>136.9</ele>
        <time>2020-06-08T13:24:15Z</time>
      </trkpt>
      <trkpt lat="48.23639" lon="-4.0307">
        <ele>136.7</ele>
        <time>2020-06-08T13:24:16Z</time>
      </trkpt>
      <trkpt lat="48.23635" lon="-4.03081">
        <ele>136.5</ele>
        <time>2020-06-08T13:24:17Z</time>
      </trkpt>
      <trkpt lat="48.2363" lon="-4.03091">
        <ele>136.3</ele>
        <time>2020-06-08T13:24:18Z</time>
      </trkpt>
      <trkpt lat="48.23626" lon="-4.03101">
        <ele>136.1</ele>
        <time>2020-06-08T13:24:19Z</time>
      </trkpt>
      <trkpt lat="48.23622" lon="-4.03111">
        <ele>136</ele>
        <time>2020-06-08T13:24:20Z</time>
      </trkpt>
      <trkpt lat="48.23617" lon="-4.03121">
        <ele>135.8</ele>
        <time>2020-06-08T13:24:21Z</time>
      </trkpt>
      <trkpt lat="48.23614" lon="-4.03131">
        <ele>135.7</ele>
        <time>2020-06-08T13:24:22Z</time>
      </trkpt>
      <trkpt lat="48.23611" lon="-4.03141">
        <ele>135.6</ele>
        <time>2020-06-08T13:24:23Z</time>
      </trkpt>
      <trkpt lat="48.23607" lon="-4.03151">
        <ele>135.5</ele>
        <time>2020-06-08T13:24:24Z</time>
      </trkpt>
      <trkpt lat="48.23604" lon="-4.03161">
        <ele>135.4</ele>
        <time>2020-06-08T13:24:25Z</time>
      </trkpt>
      <trkpt lat="48.23601" lon="-4.03171">
        <ele>135.3</ele>
        <time>2020-06-08T13:24:26Z</time>
      </trkpt>
      <trkpt lat="48.23597" lon="-4.0318">
        <ele>135.3</ele>
        <time>2020-06-08T13:24:27Z</time>
      </trkpt>
      <trkpt lat="48.23593" lon="-4.0319">
        <ele>135.2</ele>
        <time>2020-06-08T13:24:28Z</time>
      </trkpt>
      <trkpt lat="48.23589" lon="-4.03199">
        <ele>135.2</ele>
        <time>2020-06-08T13:24:29Z</time>
      </trkpt>
      <trkpt lat="48.23585" lon="-4.03208">
        <ele>135.1</ele>
        <time>2020-06-08T13:24:30Z</time>
      </trkpt>
      <trkpt lat="48.23581" lon="-4.03216">
        <ele>135</ele>
        <time>2020-06-08T13:24:31Z</time>
      </trkpt>
      <trkpt lat="48.23577" lon="-4.03225">
        <ele>135</ele>
        <time>2020-06-08T13:24:32Z</time>
      </trkpt>
      <trkpt lat="48.23573" lon="-4.03234">
        <ele>135</ele>
        <time>2020-06-08T13:24:33Z</time>
      </trkpt>
      <trkpt lat="48.23569" lon="-4.03243">
        <ele>135</ele>
        <time>2020-06-08T13:24:34Z</time>
      </trkpt>
      <trkpt lat="48.23565" lon="-4.03252">
        <ele>135.1</ele>
        <time>2020-06-08T13:24:35Z</time>
      </trkpt>
      <trkpt lat="48.23562" lon="-4.03261">
        <ele>135.2</ele>
        <time>2020-06-08T13:24:36Z</time>
      </trkpt>
      <trkpt lat="48.23558" lon="-4.0327">
        <ele>135.1</ele>
        <time>2020-06-08T13:24:37Z</time>
      </trkpt>
      <trkpt lat="48.23555" lon="-4.03279">
        <ele>135.2</ele>
        <time>2020-06-08T13:24:38Z</time>
      </trkpt>
      <trkpt lat="48.23551" lon="-4.03287">
        <ele>135.2</ele>
        <time>2020-06-08T13:24:39Z</time>
      </trkpt>
      <trkpt lat="48.23547" lon="-4.03295">
        <ele>135.2</ele>
        <time>2020-06-08T13:24:40Z</time>
      </trkpt>
      <trkpt lat="48.23543" lon="-4.03303">
        <ele>135.2</ele>
        <time>2020-06-08T13:24:41Z</time>
      </trkpt>
      <trkpt lat="48.23538" lon="-4.03309">
        <ele>135.2</ele>
        <time>2020-06-08T13:24:42Z</time>
      </trkpt>
      <trkpt lat="48.23533" lon="-4.03316">
        <ele>135.2</ele>
        <time>2020-06-08T13:24:43Z</time>
      </trkpt>
      <trkpt lat="48.23529" lon="-4.03323">
        <ele>135.2</ele>
        <time>2020-06-08T13:24:44Z</time>
      </trkpt>
      <trkpt lat="48.23524" lon="-4.0333">
        <ele>135.2</ele>
        <time>2020-06-08T13:24:45Z</time>
      </trkpt>
      <trkpt lat="48.23519" lon="-4.03337">
        <ele>135.1</ele>
        <time>2020-06-08T13:24:46Z</time>
      </trkpt>
      <trkpt lat="48.23515" lon="-4.03344">
        <ele>135</ele>
        <time>2020-06-08T13:24:47Z</time>
      </trkpt>
      <trkpt lat="48.23511" lon="-4.03352">
        <ele>134.9</ele>
        <time>2020-06-08T13:24:48Z</time>
      </trkpt>
      <trkpt lat="48.23506" lon="-4.03358">
        <ele>134.8</ele>
        <time>2020-06-08T13:24:49Z</time>
      </trkpt>
      <trkpt lat="48.23501" lon="-4.03365">
        <ele>134.7</ele>
        <time>2020-06-08T13:24:50Z</time>
      </trkpt>
      <trkpt lat="48.23497" lon="-4.03372">
        <ele>134.5</ele>
        <time>2020-06-08T13:24:51Z</time>
      </trkpt>
      <trkpt lat="48.23492" lon="-4.03379">
        <ele>134.3</ele>
        <time>2020-06-08T13:24:52Z</time>
      </trkpt>
      <trkpt lat="48.23487" lon="-4.03386">
        <ele>134.1</ele>
        <time>2020-06-08T13:24:53Z</time>
      </trkpt>
      <trkpt lat="48.23482" lon="-4.03394">
        <ele>134</ele>
        <time>2020-06-08T13:24:54Z</time>
      </trkpt>
      <trkpt lat="48.23476" lon="-4.03402">
        <ele>133.8</ele>
        <time>2020-06-08T13:24:55Z</time>
      </trkpt>
      <trkpt lat="48.23471" lon="-4.0341">
        <ele>133.6</ele>
        <time>2020-06-08T13:24:56Z</time>
      </trkpt>
      <trkpt lat="48.23466" lon="-4.03418">
        <ele>133.5</ele>
        <time>2020-06-08T13:24:57Z</time>
      </trkpt>
      <trkpt lat="48.23461" lon="-4.03426">
        <ele>133.3</ele>
        <time>2020-06-08T13:24:58Z</time>
      </trkpt>
      <trkpt lat="48.23456" lon="-4.03434">
        <ele>133.2</ele>
        <time>2020-06-08T13:24:59Z</time>
      </trkpt>
      <trkpt lat="48.23451" lon="-4.03442">
        <ele>133</ele>
        <time>2020-06-08T13:25:00Z</time>
      </trkpt>
      <trkpt lat="48.23446" lon="-4.0345">
        <ele>132.8</ele>
        <time>2020-06-08T13:25:01Z</time>
      </trkpt>
      <trkpt lat="48.23442" lon="-4.03459">
        <ele>132.7</ele>
        <time>2020-06-08T13:25:02Z</time>
      </trkpt>
      <trkpt lat="48.23438" lon="-4.03468">
        <ele>132.5</ele>
        <time>2020-06-08T13:25:03Z</time>
      </trkpt>
      <trkpt lat="48.23434" lon="-4.03477">
        <ele>132.4</ele>
        <time>2020-06-08T13:25:04Z</time>
      </trkpt>
      <trkpt lat="48.2343" lon="-4.03486">
        <ele>132.4</ele>
        <time>2020-06-08T13:25:05Z</time>
      </trkpt>
      <trkpt lat="48.23426" lon="-4.03495">
        <ele>132.3</ele>
        <time>2020-06-08T13:25:06Z</time>
      </trkpt>
      <trkpt lat="48.23422" lon="-4.03504">
        <ele>132.2</ele>
        <time>2020-06-08T13:25:07Z</time>
      </trkpt>
      <trkpt lat="48.23421" lon="-4.03514">
        <ele>132.2</ele>
        <time>2020-06-08T13:25:08Z</time>
      </trkpt>
      <trkpt lat="48.23421" lon="-4.03524">
        <ele>132.1</ele>
        <time>2020-06-08T13:25:09Z</time>
      </trkpt>
      <trkpt lat="48.23422" lon="-4.03534">
        <ele>132.1</ele>
        <time>2020-06-08T13:25:10Z</time>
      </trkpt>
      <trkpt lat="48.23424" lon="-4.03544">
        <ele>132</ele>
        <time>2020-06-08T13:25:11Z</time>
      </trkpt>
      <trkpt lat="48.23427" lon="-4.03552">
        <ele>131.7</ele>
        <time>2020-06-08T13:25:12Z</time>
      </trkpt>
      <trkpt lat="48.23431" lon="-4.0356">
        <ele>131.5</ele>
        <time>2020-06-08T13:25:13Z</time>
      </trkpt>
      <trkpt lat="48.23434" lon="-4.03569">
        <ele>131.3</ele>
        <time>2020-06-08T13:25:14Z</time>
      </trkpt>
      <trkpt lat="48.23437" lon="-4.03577">
        <ele>131.1</ele>
        <time>2020-06-08T13:25:15Z</time>
      </trkpt>
      <trkpt lat="48.2344" lon="-4.03585">
        <ele>130.9</ele>
        <time>2020-06-08T13:25:16Z</time>
      </trkpt>
      <trkpt lat="48.23443" lon="-4.03593">
        <ele>130.7</ele>
        <time>2020-06-08T13:25:17Z</time>
      </trkpt>
      <trkpt lat="48.23446" lon="-4.03601">
        <ele>130.5</ele>
        <time>2020-06-08T13:25:18Z</time>
      </trkpt>
      <trkpt lat="48.23448" lon="-4.0361">
        <ele>130.3</ele>
        <time>2020-06-08T13:25:19Z</time>
      </trkpt>
      <trkpt lat="48.2345" lon="-4.03618">
        <ele>130.2</ele>
        <time>2020-06-08T13:25:20Z</time>
      </trkpt>
      <trkpt lat="48.23453" lon="-4.03627">
        <ele>130.1</ele>
        <time>2020-06-08T13:25:21Z</time>
      </trkpt>
      <trkpt lat="48.23455" lon="-4.03635">
        <ele>129.9</ele>
        <time>2020-06-08T13:25:22Z</time>
      </trkpt>
      <trkpt lat="48.23458" lon="-4.03644">
        <ele>129.8</ele>
        <time>2020-06-08T13:25:23Z</time>
      </trkpt>
      <trkpt lat="48.2346" lon="-4.03652">
        <ele>129.6</ele>
        <time>2020-06-08T13:25:24Z</time>
      </trkpt>
      <trkpt lat="48.23462" lon="-4.03661">
        <ele>129.5</ele>
        <time>2020-06-08T13:25:25Z</time>
      </trkpt>
      <trkpt lat="48.23464" lon="-4.0367">
        <ele>129.3</ele>
        <time>2020-06-08T13:25:26Z</time>
      </trkpt>
      <trkpt lat="48.23466" lon="-4.03679">
        <ele>129.2</ele>
        <time>2020-06-08T13:25:27Z</time>
      </trkpt>
      <trkpt lat="48.23469" lon="-4.03687">
        <ele>129</ele>
        <time>2020-06-08T13:25:28Z</time>
      </trkpt>
      <trkpt lat="48.23471" lon="-4.03696">
        <ele>128.8</ele>
        <time>2020-06-08T13:25:29Z</time>
      </trkpt>
      <trkpt lat="48.23474" lon="-4.03704">
        <ele>128.6</ele>
        <time>2020-06-08T13:25:30Z</time>
      </trkpt>
      <trkpt lat="48.23477" lon="-4.03713">
        <ele>128.4</ele>
        <time>2020-06-08T13:25:31Z</time>
      </trkpt>
      <trkpt lat="48.23479" lon="-4.03721">
        <ele>128.3</ele>
        <time>2020-06-08T13:25:32Z</time>
      </trkpt>
      <trkpt lat="48.23482" lon="-4.0373">
        <ele>128.1</ele>
        <time>2020-06-08T13:25:33Z</time>
      </trkpt>
      <trkpt lat="48.23484" lon="-4.03739">
        <ele>127.9</ele>
        <time>2020-06-08T13:25:34Z</time>
      </trkpt>
      <trkpt lat="48.23486" lon="-4.03748">
        <ele>127.7</ele>
        <time>2020-06-08T13:25:35Z</time>
      </trkpt>
      <trkpt lat="48.23489" lon="-4.03757">
        <ele>127.5</ele>
        <time>2020-06-08T13:25:36Z</time>
      </trkpt>
      <trkpt lat="48.23492" lon="-4.03766">
        <ele>127.4</ele>
        <time>2020-06-08T13:25:37Z</time>
      </trkpt>
      <trkpt lat="48.23494" lon="-4.03776">
        <ele>127.1</ele>
        <time>2020-06-08T13:25:38Z</time>
      </trkpt>
      <trkpt lat="48.23497" lon="-4.03785">
        <ele>126.9</ele>
        <time>2020-06-08T13:25:39Z</time>
      </trkpt>
      <trkpt lat="48.23499" lon="-4.03795">
        <ele>126.7</ele>
        <time>2020-06-08T13:25:40Z</time>
      </trkpt>
      <trkpt lat="48.23502" lon="-4.03805">
        <ele>126.5</ele>
        <time>2020-06-08T13:25:41Z</time>
      </trkpt>
      <trkpt lat="48.23505" lon="-4.03814">
        <ele>126.2</ele>
        <time>2020-06-08T13:25:42Z</time>
      </trkpt>
      <trkpt lat="48.23507" lon="-4.03825">
        <ele>125.9</ele>
        <time>2020-06-08T13:25:43Z</time>
      </trkpt>
      <trkpt lat="48.2351" lon="-4.03834">
        <ele>125.7</ele>
        <time>2020-06-08T13:25:44Z</time>
      </trkpt>
      <trkpt lat="48.23514" lon="-4.03844">
        <ele>125.4</ele>
        <time>2020-06-08T13:25:45Z</time>
      </trkpt>
      <trkpt lat="48.23517" lon="-4.03855">
        <ele>125.2</ele>
        <time>2020-06-08T13:25:46Z</time>
      </trkpt>
      <trkpt lat="48.2352" lon="-4.03865">
        <ele>124.9</ele>
        <time>2020-06-08T13:25:47Z</time>
      </trkpt>
      <trkpt lat="48.23523" lon="-4.03876">
        <ele>124.7</ele>
        <time>2020-06-08T13:25:48Z</time>
      </trkpt>
      <trkpt lat="48.23526" lon="-4.03887">
        <ele>124.4</ele>
        <time>2020-06-08T13:25:49Z</time>
      </trkpt>
      <trkpt lat="48.23529" lon="-4.03898">
        <ele>124.1</ele>
        <time>2020-06-08T13:25:50Z</time>
      </trkpt>
      <trkpt lat="48.23532" lon="-4.03908">
        <ele>123.8</ele>
        <time>2020-06-08T13:25:51Z</time>
      </trkpt>
      <trkpt lat="48.23535" lon="-4.0392">
        <ele>123.5</ele>
        <time>2020-06-08T13:25:52Z</time>
      </trkpt>
      <trkpt lat="48.23539" lon="-4.03931">
        <ele>123.3</ele>
        <time>2020-06-08T13:25:53Z</time>
      </trkpt>
      <trkpt lat="48.23542" lon="-4.03943">
        <ele>123.1</ele>
        <time>2020-06-08T13:25:54Z</time>
      </trkpt>
      <trkpt lat="48.23545" lon="-4.03954">
        <ele>122.8</ele>
        <time>2020-06-08T13:25:55Z</time>
      </trkpt>
      <trkpt lat="48.23548" lon="-4.03966">
        <ele>122.7</ele>
        <time>2020-06-08T13:25:56Z</time>
      </trkpt>
      <trkpt lat="48.23551" lon="-4.03978">
        <ele>122.5</ele>
        <time>2020-06-08T13:25:57Z</time>
      </trkpt>
      <trkpt lat="48.23554" lon="-4.0399">
        <ele>122.4</ele>
        <time>2020-06-08T13:25:58Z</time>
      </trkpt>
      <trkpt lat="48.23557" lon="-4.04002">
        <ele>122.2</ele>
        <time>2020-06-08T13:25:59Z</time>
      </trkpt>
      <trkpt lat="48.23561" lon="-4.04013">
        <ele>122.1</ele>
        <time>2020-06-08T13:26:00Z</time>
      </trkpt>
      <trkpt lat="48.23564" lon="-4.04025">
        <ele>121.9</ele>
        <time>2020-06-08T13:26:01Z</time>
      </trkpt>
      <trkpt lat="48.23567" lon="-4.04037">
        <ele>121.8</ele>
        <time>2020-06-08T13:26:02Z</time>
      </trkpt>
      <trkpt lat="48.2357" lon="-4.04049">
        <ele>121.8</ele>
        <time>2020-06-08T13:26:03Z</time>
      </trkpt>
      <trkpt lat="48.23573" lon="-4.0406">
        <ele>121.7</ele>
        <time>2020-06-08T13:26:04Z</time>
      </trkpt>
      <trkpt lat="48.23576" lon="-4.04072">
        <ele>121.7</ele>
        <time>2020-06-08T13:26:05Z</time>
      </trkpt>
      <trkpt lat="48.2358" lon="-4.04083">
        <ele>121.7</ele>
        <time>2020-06-08T13:26:06Z</time>
      </trkpt>
      <trkpt lat="48.23584" lon="-4.04094">
        <ele>121.7</ele>
        <time>2020-06-08T13:26:07Z</time>
      </trkpt>
      <trkpt lat="48.23587" lon="-4.04105">
        <ele>121.8</ele>
        <time>2020-06-08T13:26:08Z</time>
      </trkpt>
      <trkpt lat="48.23589" lon="-4.04116">
        <ele>121.8</ele>
        <time>2020-06-08T13:26:09Z</time>
      </trkpt>
      <trkpt lat="48.23592" lon="-4.04127">
        <ele>121.9</ele>
        <time>2020-06-08T13:26:10Z</time>
      </trkpt>
      <trkpt lat="48.23595" lon="-4.04138">
        <ele>122</ele>
        <time>2020-06-08T13:26:11Z</time>
      </trkpt>
      <trkpt lat="48.23598" lon="-4.04149">
        <ele>122.1</ele>
        <time>2020-06-08T13:26:12Z</time>
      </trkpt>
      <trkpt lat="48.236" lon="-4.0416">
        <ele>122.2</ele>
        <time>2020-06-08T13:26:13Z</time>
      </trkpt>
      <trkpt lat="48.23603" lon="-4.0417">
        <ele>122.3</ele>
        <time>2020-06-08T13:26:14Z</time>
      </trkpt>
      <trkpt lat="48.23606" lon="-4.04181">
        <ele>122.4</ele>
        <time>2020-06-08T13:26:15Z</time>
      </trkpt>
      <trkpt lat="48.23609" lon="-4.04191">
        <ele>122.5</ele>
        <time>2020-06-08T13:26:16Z</time>
      </trkpt>
      <trkpt lat="48.23611" lon="-4.04201">
        <ele>122.6</ele>
        <time>2020-06-08T13:26:17Z</time>
      </trkpt>
      <trkpt lat="48.23614" lon="-4.04211">
        <ele>122.7</ele>
        <time>2020-06-08T13:26:18Z</time>
      </trkpt>
      <trkpt lat="48.23617" lon="-4.04221">
        <ele>122.8</ele>
        <time>2020-06-08T13:26:19Z</time>
      </trkpt>
      <trkpt lat="48.23619" lon="-4.04231">
        <ele>122.9</ele>
        <time>2020-06-08T13:26:20Z</time>
      </trkpt>
      <trkpt lat="48.23621" lon="-4.0424">
        <ele>123.1</ele>
        <time>2020-06-08T13:26:21Z</time>
      </trkpt>
      <trkpt lat="48.23624" lon="-4.04249">
        <ele>123.2</ele>
        <time>2020-06-08T13:26:22Z</time>
      </trkpt>
      <trkpt lat="48.23626" lon="-4.04258">
        <ele>123.3</ele>
        <time>2020-06-08T13:26:23Z</time>
      </trkpt>
      <trkpt lat="48.23628" lon="-4.04268">
        <ele>123.4</ele>
        <time>2020-06-08T13:26:24Z</time>
      </trkpt>
      <trkpt lat="48.23629" lon="-4.04276">
        <ele>123.5</ele>
        <time>2020-06-08T13:26:25Z</time>
      </trkpt>
      <trkpt lat="48.23631" lon="-4.04285">
        <ele>123.6</ele>
        <time>2020-06-08T13:26:26Z</time>
      </trkpt>
      <trkpt lat="48.23633" lon="-4.04294">
        <ele>123.7</ele>
        <time>2020-06-08T13:26:27Z</time>
      </trkpt>
      <trkpt lat="48.23634" lon="-4.04302">
        <ele>123.8</ele>
        <time>2020-06-08T13:26:28Z</time>
      </trkpt>
      <trkpt lat="48.23635" lon="-4.0431">
        <ele>123.9</ele>
        <time>2020-06-08T13:26:29Z</time>
      </trkpt>
      <trkpt lat="48.23636" lon="-4.04318">
        <ele>123.9</ele>
        <time>2020-06-08T13:26:30Z</time>
      </trkpt>
      <trkpt lat="48.23638" lon="-4.04326">
        <ele>124</ele>
        <time>2020-06-08T13:26:31Z</time>
      </trkpt>
      <trkpt lat="48.23639" lon="-4.04333">
        <ele>124</ele>
        <time>2020-06-08T13:26:32Z</time>
      </trkpt>
      <trkpt lat="48.23641" lon="-4.04341">
        <ele>124</ele>
        <time>2020-06-08T13:26:33Z</time>
      </trkpt>
      <trkpt lat="48.23642" lon="-4.04349">
        <ele>124</ele>
        <time>2020-06-08T13:26:34Z</time>
      </trkpt>
      <trkpt lat="48.23643" lon="-4.04358">
        <ele>124</ele>
        <time>2020-06-08T13:26:35Z</time>
      </trkpt>
      <trkpt lat="48.23643" lon="-4.04366">
        <ele>124</ele>
        <time>2020-06-08T13:26:36Z</time>
      </trkpt>
      <trkpt lat="48.23644" lon="-4.04375">
        <ele>123.9</ele>
        <time>2020-06-08T13:26:37Z</time>
      </trkpt>
      <trkpt lat="48.23645" lon="-4.04383">
        <ele>123.8</ele>
        <time>2020-06-08T13:26:38Z</time>
      </trkpt>
      <trkpt lat="48.23646" lon="-4.04392">
        <ele>123.7</ele>
        <time>2020-06-08T13:26:39Z</time>
      </trkpt>
      <trkpt lat="48.23647" lon="-4.04401">
        <ele>123.6</ele>
        <time>2020-06-08T13:26:40Z</time>
      </trkpt>
      <trkpt lat="48.23648" lon="-4.0441">
        <ele>123.4</ele>
        <time>2020-06-08T13:26:41Z</time>
      </trkpt>
      <trkpt lat="48.23649" lon="-4.04419">
        <ele>123.3</ele>
        <time>2020-06-08T13:26:42Z</time>
      </trkpt>
      <trkpt lat="48.23651" lon="-4.04429">
        <ele>123</ele>
        <time>2020-06-08T13:26:43Z</time>
      </trkpt>
      <trkpt lat="48.23651" lon="-4.04439">
        <ele>122.8</ele>
        <time>2020-06-08T13:26:44Z</time>
      </trkpt>
      <trkpt lat="48.23652" lon="-4.04449">
        <ele>122.5</ele>
        <time>2020-06-08T13:26:45Z</time>
      </trkpt>
      <trkpt lat="48.23653" lon="-4.0446">
        <ele>122.1</ele>
        <time>2020-06-08T13:26:46Z</time>
      </trkpt>
      <trkpt lat="48.23654" lon="-4.04471">
        <ele>121.7</ele>
        <time>2020-06-08T13:26:47Z</time>
      </trkpt>
      <trkpt lat="48.23655" lon="-4.04483">
        <ele>121.2</ele>
        <time>2020-06-08T13:26:48Z</time>
      </trkpt>
      <trkpt lat="48.23655" lon="-4.04495">
        <ele>120.6</ele>
        <time>2020-06-08T13:26:49Z</time>
      </trkpt>
      <trkpt lat="48.23655" lon="-4.04508">
        <ele>120</ele>
        <time>2020-06-08T13:26:50Z</time>
      </trkpt>
      <trkpt lat="48.23655" lon="-4.04521">
        <ele>119.4</ele>
        <time>2020-06-08T13:26:51Z</time>
      </trkpt>
      <trkpt lat="48.23655" lon="-4.04535">
        <ele>118.7</ele>
        <time>2020-06-08T13:26:52Z</time>
      </trkpt>
      <trkpt lat="48.23654" lon="-4.04549">
        <ele>118</ele>
        <time>2020-06-08T13:26:53Z</time>
      </trkpt>
      <trkpt lat="48.23653" lon="-4.04564">
        <ele>117.3</ele>
        <time>2020-06-08T13:26:54Z</time>
      </trkpt>
      <trkpt lat="48.23652" lon="-4.0458">
        <ele>116.7</ele>
        <time>2020-06-08T13:26:55Z</time>
      </trkpt>
      <trkpt lat="48.23651" lon="-4.04595">
        <ele>116.2</ele>
        <time>2020-06-08T13:26:56Z</time>
      </trkpt>
      <trkpt lat="48.23649" lon="-4.04611">
        <ele>115.7</ele>
        <time>2020-06-08T13:26:57Z</time>
      </trkpt>
      <trkpt lat="48.23648" lon="-4.04626">
        <ele>115.2</ele>
        <time>2020-06-08T13:26:58Z</time>
      </trkpt>
      <trkpt lat="48.23647" lon="-4.04642">
        <ele>114.7</ele>
        <time>2020-06-08T13:26:59Z</time>
      </trkpt>
      <trkpt lat="48.23647" lon="-4.04658">
        <ele>114.1</ele>
        <time>2020-06-08T13:27:00Z</time>
      </trkpt>
      <trkpt lat="48.23647" lon="-4.04673">
        <ele>113.5</ele>
        <time>2020-06-08T13:27:01Z</time>
      </trkpt>
      <trkpt lat="48.23647" lon="-4.04689">
        <ele>113</ele>
        <time>2020-06-08T13:27:02Z</time>
      </trkpt>
      <trkpt lat="48.23646" lon="-4.04705">
        <ele>112.5</ele>
        <time>2020-06-08T13:27:03Z</time>
      </trkpt>
      <trkpt lat="48.23645" lon="-4.04721">
        <ele>112</ele>
        <time>2020-06-08T13:27:04Z</time>
      </trkpt>
      <trkpt lat="48.23644" lon="-4.04736">
        <ele>111.5</ele>
        <time>2020-06-08T13:27:05Z</time>
      </trkpt>
      <trkpt lat="48.23644" lon="-4.04752">
        <ele>111.1</ele>
        <time>2020-06-08T13:27:06Z</time>
      </trkpt>
      <trkpt lat="48.23643" lon="-4.04768">
        <ele>110.7</ele>
        <time>2020-06-08T13:27:07Z</time>
      </trkpt>
      <trkpt lat="48.23642" lon="-4.04783">
        <ele>110.3</ele>
        <time>2020-06-08T13:27:08Z</time>
      </trkpt>
      <trkpt lat="48.23642" lon="-4.04798">
        <ele>110.1</ele>
        <time>2020-06-08T13:27:09Z</time>
      </trkpt>
      <trkpt lat="48.23642" lon="-4.04813">
        <ele>110</ele>
        <time>2020-06-08T13:27:10Z</time>
      </trkpt>
      <trkpt lat="48.23641" lon="-4.04828">
        <ele>109.8</ele>
        <time>2020-06-08T13:27:11Z</time>
      </trkpt>
      <trkpt lat="48.2364" lon="-4.04843">
        <ele>109.7</ele>
        <time>2020-06-08T13:27:12Z</time>
      </trkpt>
      <trkpt lat="48.2364" lon="-4.04857">
        <ele>109.6</ele>
        <time>2020-06-08T13:27:13Z</time>
      </trkpt>
      <trkpt lat="48.23639" lon="-4.04871">
        <ele>109.6</ele>
        <time>2020-06-08T13:27:14Z</time>
      </trkpt>
      <trkpt lat="48.23638" lon="-4.04885">
        <ele>109.5</ele>
        <time>2020-06-08T13:27:15Z</time>
      </trkpt>
      <trkpt lat="48.23638" lon="-4.04899">
        <ele>109.4</ele>
        <time>2020-06-08T13:27:16Z</time>
      </trkpt>
      <trkpt lat="48.23638" lon="-4.04914">
        <ele>109.3</ele>
        <time>2020-06-08T13:27:17Z</time>
      </trkpt>
      <trkpt lat="48.23638" lon="-4.04928">
        <ele>109.2</ele>
        <time>2020-06-08T13:27:18Z</time>
      </trkpt>
      <trkpt lat="48.23637" lon="-4.04942">
        <ele>109</ele>
        <time>2020-06-08T13:27:19Z</time>
      </trkpt>
      <trkpt lat="48.23636" lon="-4.04955">
        <ele>109</ele>
        <time>2020-06-08T13:27:20Z</time>
      </trkpt>
      <trkpt lat="48.23636" lon="-4.04969">
        <ele>109</ele>
        <time>2020-06-08T13:27:21Z</time>
      </trkpt>
      <trkpt lat="48.23636" lon="-4.04983">
        <ele>109</ele>
        <time>2020-06-08T13:27:22Z</time>
      </trkpt>
      <trkpt lat="48.23635" lon="-4.04996">
        <ele>109</ele>
        <time>2020-06-08T13:27:23Z</time>
      </trkpt>
      <trkpt lat="48.23633" lon="-4.0501">
        <ele>109</ele>
        <time>2020-06-08T13:27:24Z</time>
      </trkpt>
      <trkpt lat="48.23633" lon="-4.05022">
        <ele>109.1</ele>
        <time>2020-06-08T13:27:25Z</time>
      </trkpt>
      <trkpt lat="48.23634" lon="-4.05035">
        <ele>109.3</ele>
        <time>2020-06-08T13:27:26Z</time>
      </trkpt>
      <trkpt lat="48.23634" lon="-4.05048">
        <ele>109.5</ele>
        <time>2020-06-08T13:27:27Z</time>
      </trkpt>
      <trkpt lat="48.23634" lon="-4.05061">
        <ele>109.7</ele>
        <time>2020-06-08T13:27:28Z</time>
      </trkpt>
      <trkpt lat="48.23635" lon="-4.05073">
        <ele>110</ele>
        <time>2020-06-08T13:27:29Z</time>
      </trkpt>
      <trkpt lat="48.23636" lon="-4.05085">
        <ele>110.2</ele>
        <time>2020-06-08T13:27:30Z</time>
      </trkpt>
      <trkpt lat="48.23637" lon="-4.05096">
        <ele>110.5</ele>
        <time>2020-06-08T13:27:31Z</time>
      </trkpt>
      <trkpt lat="48.23638" lon="-4.05108">
        <ele>110.7</ele>
        <time>2020-06-08T13:27:32Z</time>
      </trkpt>
      <trkpt lat="48.23639" lon="-4.05119">
        <ele>110.9</ele>
        <time>2020-06-08T13:27:33Z</time>
      </trkpt>
      <trkpt lat="48.2364" lon="-4.05129">
        <ele>111.2</ele>
        <time>2020-06-08T13:27:34Z</time>
      </trkpt>
      <trkpt lat="48.23641" lon="-4.0514">
        <ele>111.4</ele>
        <time>2020-06-08T13:27:35Z</time>
      </trkpt>
      <trkpt lat="48.23642" lon="-4.0515">
        <ele>111.6</ele>
        <time>2020-06-08T13:27:36Z</time>
      </trkpt>
      <trkpt lat="48.23643" lon="-4.0516">
        <ele>111.9</ele>
        <time>2020-06-08T13:27:37Z</time>
      </trkpt>
      <trkpt lat="48.23644" lon="-4.05169">
        <ele>112.1</ele>
        <time>2020-06-08T13:27:38Z</time>
      </trkpt>
      <trkpt lat="48.23646" lon="-4.05178">
        <ele>112.3</ele>
        <time>2020-06-08T13:27:39Z</time>
      </trkpt>
      <trkpt lat="48.23648" lon="-4.05188">
        <ele>112.5</ele>
        <time>2020-06-08T13:27:40Z</time>
      </trkpt>
      <trkpt lat="48.23649" lon="-4.05197">
        <ele>112.6</ele>
        <time>2020-06-08T13:27:41Z</time>
      </trkpt>
      <trkpt lat="48.2365" lon="-4.05206">
        <ele>112.8</ele>
        <time>2020-06-08T13:27:42Z</time>
      </trkpt>
      <trkpt lat="48.23651" lon="-4.05215">
        <ele>112.8</ele>
        <time>2020-06-08T13:27:43Z</time>
      </trkpt>
      <trkpt lat="48.23653" lon="-4.05224">
        <ele>113</ele>
        <time>2020-06-08T13:27:44Z</time>
      </trkpt>
      <trkpt lat="48.23654" lon="-4.05232">
        <ele>113.1</ele>
        <time>2020-06-08T13:27:45Z</time>
      </trkpt>
      <trkpt lat="48.23655" lon="-4.05241">
        <ele>113.3</ele>
        <time>2020-06-08T13:27:46Z</time>
      </trkpt>
      <trkpt lat="48.23657" lon="-4.05249">
        <ele>113.4</ele>
        <time>2020-06-08T13:27:47Z</time>
      </trkpt>
      <trkpt lat="48.2366" lon="-4.05257">
        <ele>113.6</ele>
        <time>2020-06-08T13:27:48Z</time>
      </trkpt>
      <trkpt lat="48.23662" lon="-4.05265">
        <ele>113.7</ele>
        <time>2020-06-08T13:27:49Z</time>
      </trkpt>
      <trkpt lat="48.23663" lon="-4.05274">
        <ele>113.8</ele>
        <time>2020-06-08T13:27:50Z</time>
      </trkpt>
      <trkpt lat="48.23665" lon="-4.05282">
        <ele>113.9</ele>
        <time>2020-06-08T13:27:51Z</time>
      </trkpt>
      <trkpt lat="48.23666" lon="-4.0529">
        <ele>114</ele>
        <time>2020-06-08T13:27:52Z</time>
      </trkpt>
      <trkpt lat="48.23667" lon="-4.05299">
        <ele>114.1</ele>
        <time>2020-06-08T13:27:53Z</time>
      </trkpt>
      <trkpt lat="48.23669" lon="-4.05307">
        <ele>114.3</ele>
        <time>2020-06-08T13:27:54Z</time>
      </trkpt>
      <trkpt lat="48.2367" lon="-4.05316">
        <ele>114.4</ele>
        <time>2020-06-08T13:27:55Z</time>
      </trkpt>
      <trkpt lat="48.23671" lon="-4.05324">
        <ele>114.5</ele>
        <time>2020-06-08T13:27:56Z</time>
      </trkpt>
      <trkpt lat="48.23672" lon="-4.05333">
        <ele>114.6</ele>
        <time>2020-06-08T13:27:57Z</time>
      </trkpt>
      <trkpt lat="48.23674" lon="-4.05341">
        <ele>114.7</ele>
        <time>2020-06-08T13:27:58Z</time>
      </trkpt>
      <trkpt lat="48.23676" lon="-4.05349">
        <ele>114.8</ele>
        <time>2020-06-08T13:27:59Z</time>
      </trkpt>
      <trkpt lat="48.23678" lon="-4.05358">
        <ele>114.9</ele>
        <time>2020-06-08T13:28:00Z</time>
      </trkpt>
      <trkpt lat="48.2368" lon="-4.05366">
        <ele>115</ele>
        <time>2020-06-08T13:28:01Z</time>
      </trkpt>
      <trkpt lat="48.23682" lon="-4.05374">
        <ele>115.1</ele>
        <time>2020-06-08T13:28:02Z</time>
      </trkpt>
      <trkpt lat="48.23683" lon="-4.05382">
        <ele>115.2</ele>
        <time>2020-06-08T13:28:03Z</time>
      </trkpt>
      <trkpt lat="48.23684" lon="-4.0539">
        <ele>115.3</ele>
        <time>2020-06-08T13:28:04Z</time>
      </trkpt>
      <trkpt lat="48.23686" lon="-4.05398">
        <ele>115.4</ele>
        <time>2020-06-08T13:28:05Z</time>
      </trkpt>
      <trkpt lat="48.23687" lon="-4.05407">
        <ele>115.5</ele>
        <time>2020-06-08T13:28:06Z</time>
      </trkpt>
      <trkpt lat="48.23688" lon="-4.05414">
        <ele>115.6</ele>
        <time>2020-06-08T13:28:07Z</time>
      </trkpt>
      <trkpt lat="48.23689" lon="-4.05424">
        <ele>115.8</ele>
        <time>2020-06-08T13:28:08Z</time>
      </trkpt>
      <trkpt lat="48.2369" lon="-4.05431">
        <ele>115.9</ele>
        <time>2020-06-08T13:28:09Z</time>
      </trkpt>
      <trkpt lat="48.23691" lon="-4.05439">
        <ele>116</ele>
        <time>2020-06-08T13:28:10Z</time>
      </trkpt>
      <trkpt lat="48.23692" lon="-4.05446">
        <ele>116</ele>
        <time>2020-06-08T13:28:11Z</time>
      </trkpt>
      <trkpt lat="48.23692" lon="-4.05453">
        <ele>116.1</ele>
        <time>2020-06-08T13:28:12Z</time>
      </trkpt>
      <trkpt lat="48.23692" lon="-4.05459">
        <ele>116.2</ele>
        <time>2020-06-08T13:28:13Z</time>
      </trkpt>
      <trkpt lat="48.23693" lon="-4.05466">
        <ele>116.2</ele>
        <time>2020-06-08T13:28:14Z</time>
      </trkpt>
      <trkpt lat="48.23693" lon="-4.05474">
        <ele>116.3</ele>
        <time>2020-06-08T13:28:15Z</time>
      </trkpt>
      <trkpt lat="48.23692" lon="-4.05481">
        <ele>116.4</ele>
        <time>2020-06-08T13:28:16Z</time>
      </trkpt>
      <trkpt lat="48.23691" lon="-4.05488">
        <ele>116.5</ele>
        <time>2020-06-08T13:28:17Z</time>
      </trkpt>
      <trkpt lat="48.23691" lon="-4.05494">
        <ele>116.5</ele>
        <time>2020-06-08T13:28:18Z</time>
      </trkpt>
      <trkpt lat="48.23691" lon="-4.055">
        <ele>116.6</ele>
        <time>2020-06-08T13:28:19Z</time>
      </trkpt>
      <trkpt lat="48.2369" lon="-4.05505">
        <ele>116.6</ele>
        <time>2020-06-08T13:28:20Z</time>
      </trkpt>
      <trkpt lat="48.23691" lon="-4.05511">
        <ele>116.7</ele>
        <time>2020-06-08T13:28:21Z</time>
      </trkpt>
      <trkpt lat="48.23691" lon="-4.05515">
        <ele>116.7</ele>
        <time>2020-06-08T13:28:22Z</time>
      </trkpt>
      <trkpt lat="48.23692" lon="-4.05521">
        <ele>116.8</ele>
        <time>2020-06-08T13:28:23Z</time>
      </trkpt>
      <trkpt lat="48.23692" lon="-4.05528">
        <ele>116.8</ele>
        <time>2020-06-08T13:28:24Z</time>
      </trkpt>
      <trkpt lat="48.23692" lon="-4.05533">
        <ele>116.9</ele>
        <time>2020-06-08T13:28:25Z</time>
      </trkpt>
      <trkpt lat="48.23692" lon="-4.05539">
        <ele>116.9</ele>
        <time>2020-06-08T13:28:26Z</time>
      </trkpt>
      <trkpt lat="48.23691" lon="-4.05546">
        <ele>116.9</ele>
        <time>2020-06-08T13:28:27Z</time>
      </trkpt>
      <trkpt lat="48.23691" lon="-4.05553">
        <ele>116.9</ele>
        <time>2020-06-08T13:28:28Z</time>
      </trkpt>
      <trkpt lat="48.23691" lon="-4.0556">
        <ele>117</ele>
        <time>2020-06-08T13:28:29Z</time>
      </trkpt>
      <trkpt lat="48.23691" lon="-4.05565">
        <ele>117</ele>
        <time>2020-06-08T13:28:30Z</time>
      </trkpt>
      <trkpt lat="48.23691" lon="-4.05572">
        <ele>117</ele>
        <time>2020-06-08T13:28:31Z</time>
      </trkpt>
      <trkpt lat="48.23691" lon="-4.05578">
        <ele>117</ele>
        <time>2020-06-08T13:28:32Z</time>
      </trkpt>
      <trkpt lat="48.2369" lon="-4.05586">
        <ele>117</ele>
        <time>2020-06-08T13:28:33Z</time>
      </trkpt>
      <trkpt lat="48.2369" lon="-4.05593">
        <ele>116.9</ele>
        <time>2020-06-08T13:28:34Z</time>
      </trkpt>
      <trkpt lat="48.23691" lon="-4.05597">
        <ele>116.9</ele>
        <time>2020-06-08T13:28:35Z</time>
      </trkpt>
      <trkpt lat="48.23692" lon="-4.05604">
        <ele>116.9</ele>
        <time>2020-06-08T13:28:36Z</time>
      </trkpt>
      <trkpt lat="48.23691" lon="-4.05609">
        <ele>116.9</ele>
        <time>2020-06-08T13:28:37Z</time>
      </trkpt>
      <trkpt lat="48.2369" lon="-4.05613">
        <ele>116.9</ele>
        <time>2020-06-08T13:28:38Z</time>
      </trkpt>
      <trkpt lat="48.2369" lon="-4.05619">
        <ele>116.8</ele>
        <time>2020-06-08T13:28:39Z</time>
      </trkpt>
      <trkpt lat="48.2369" lon="-4.05624">
        <ele>116.7</ele>
        <time>2020-06-08T13:28:40Z</time>
      </trkpt>
      <trkpt lat="48.2369" lon="-4.05629">
        <ele>116.6</ele>
        <time>2020-06-08T13:28:41Z</time>
      </trkpt>
      <trkpt lat="48.2369" lon="-4.05636">
        <ele>116.5</ele>
        <time>2020-06-08T13:28:42Z</time>
      </trkpt>
      <trkpt lat="48.2369" lon="-4.05642">
        <ele>116.4</ele>
        <time>2020-06-08T13:28:43Z</time>
      </trkpt>
      <trkpt lat="48.23689" lon="-4.05647">
        <ele>116.3</ele>
        <time>2020-06-08T13:28:44Z</time>
      </trkpt>
      <trkpt lat="48.23689" lon="-4.05653">
        <ele>116.2</ele>
        <time>2020-06-08T13:28:45Z</time>
      </trkpt>
      <trkpt lat="48.23688" lon="-4.0566">
        <ele>116.1</ele>
        <time>2020-06-08T13:28:46Z</time>
      </trkpt>
      <trkpt lat="48.23688" lon="-4.05668">
        <ele>115.9</ele>
        <time>2020-06-08T13:28:47Z</time>
      </trkpt>
      <trkpt lat="48.23688" lon="-4.05674">
        <ele>115.8</ele>
        <time>2020-06-08T13:28:48Z</time>
      </trkpt>
      <trkpt lat="48.23688" lon="-4.05681">
        <ele>115.6</ele>
        <time>2020-06-08T13:28:49Z</time>
      </trkpt>
      <trkpt lat="48.23689" lon="-4.05689">
        <ele>115.4</ele>
        <time>2020-06-08T13:28:50Z</time>
      </trkpt>
      <trkpt lat="48.23689" lon="-4.05695">
        <ele>115.3</ele>
        <time>2020-06-08T13:28:51Z</time>
      </trkpt>
      <trkpt lat="48.23689" lon="-4.05703">
        <ele>115.1</ele>
        <time>2020-06-08T13:28:52Z</time>
      </trkpt>
      <trkpt lat="48.2369" lon="-4.05712">
        <ele>114.9</ele>
        <time>2020-06-08T13:28:53Z</time>
      </trkpt>
      <trkpt lat="48.23691" lon="-4.05721">
        <ele>114.8</ele>
        <time>2020-06-08T13:28:54Z</time>
      </trkpt>
      <trkpt lat="48.23691" lon="-4.05729">
        <ele>114.6</ele>
        <time>2020-06-08T13:28:55Z</time>
      </trkpt>
      <trkpt lat="48.23692" lon="-4.05736">
        <ele>114.4</ele>
        <time>2020-06-08T13:28:56Z</time>
      </trkpt>
      <trkpt lat="48.23692" lon="-4.05743">
        <ele>114.2</ele>
        <time>2020-06-08T13:28:57Z</time>
      </trkpt>
      <trkpt lat="48.23691" lon="-4.05753">
        <ele>113.8</ele>
        <time>2020-06-08T13:28:58Z</time>
      </trkpt>
      <trkpt lat="48.23692" lon="-4.05762">
        <ele>113.5</ele>
        <time>2020-06-08T13:28:59Z</time>
      </trkpt>
      <trkpt lat="48.23692" lon="-4.05772">
        <ele>113.2</ele>
        <time>2020-06-08T13:29:00Z</time>
      </trkpt>
      <trkpt lat="48.23692" lon="-4.05784">
        <ele>112.8</ele>
        <time>2020-06-08T13:29:01Z</time>
      </trkpt>
      <trkpt lat="48.23691" lon="-4.05793">
        <ele>112.5</ele>
        <time>2020-06-08T13:29:02Z</time>
      </trkpt>
      <trkpt lat="48.23691" lon="-4.05803">
        <ele>112.1</ele>
        <time>2020-06-08T13:29:03Z</time>
      </trkpt>
      <trkpt lat="48.23691" lon="-4.05815">
        <ele>111.8</ele>
        <time>2020-06-08T13:29:04Z</time>
      </trkpt>
      <trkpt lat="48.23691" lon="-4.05826">
        <ele>111.4</ele>
        <time>2020-06-08T13:29:05Z</time>
      </trkpt>
      <trkpt lat="48.23691" lon="-4.05835">
        <ele>111.1</ele>
        <time>2020-06-08T13:29:06Z</time>
      </trkpt>
      <trkpt lat="48.23692" lon="-4.05845">
        <ele>110.8</ele>
        <time>2020-06-08T13:29:07Z</time>
      </trkpt>
      <trkpt lat="48.23692" lon="-4.05857">
        <ele>110.5</ele>
        <time>2020-06-08T13:29:08Z</time>
      </trkpt>
      <trkpt lat="48.23692" lon="-4.05869">
        <ele>110.2</ele>
        <time>2020-06-08T13:29:09Z</time>
      </trkpt>
      <trkpt lat="48.23691" lon="-4.05881">
        <ele>110</ele>
        <time>2020-06-08T13:29:10Z</time>
      </trkpt>
      <trkpt lat="48.23691" lon="-4.05892">
        <ele>109.7</ele>
        <time>2020-06-08T13:29:11Z</time>
      </trkpt>
      <trkpt lat="48.23691" lon="-4.05903">
        <ele>109.4</ele>
        <time>2020-06-08T13:29:12Z</time>
      </trkpt>
      <trkpt lat="48.23691" lon="-4.05915">
        <ele>109</ele>
        <time>2020-06-08T13:29:13Z</time>
      </trkpt>
      <trkpt lat="48.23691" lon="-4.05926">
        <ele>108.7</ele>
        <time>2020-06-08T13:29:14Z</time>
      </trkpt>
      <trkpt lat="48.23691" lon="-4.05937">
        <ele>108.4</ele>
        <time>2020-06-08T13:29:15Z</time>
      </trkpt>
      <trkpt lat="48.23691" lon="-4.05949">
        <ele>108.1</ele>
        <time>2020-06-08T13:29:16Z</time>
      </trkpt>
      <trkpt lat="48.23691" lon="-4.05961">
        <ele>107.9</ele>
        <time>2020-06-08T13:29:17Z</time>
      </trkpt>
      <trkpt lat="48.23692" lon="-4.05972">
        <ele>107.6</ele>
        <time>2020-06-08T13:29:18Z</time>
      </trkpt>
      <trkpt lat="48.23693" lon="-4.05984">
        <ele>107.3</ele>
        <time>2020-06-08T13:29:19Z</time>
      </trkpt>
      <trkpt lat="48.23693" lon="-4.05996">
        <ele>107.1</ele>
        <time>2020-06-08T13:29:20Z</time>
      </trkpt>
      <trkpt lat="48.23694" lon="-4.06007">
        <ele>106.8</ele>
        <time>2020-06-08T13:29:21Z</time>
      </trkpt>
      <trkpt lat="48.23695" lon="-4.06019">
        <ele>106.5</ele>
        <time>2020-06-08T13:29:22Z</time>
      </trkpt>
      <trkpt lat="48.23696" lon="-4.0603">
        <ele>106.2</ele>
        <time>2020-06-08T13:29:23Z</time>
      </trkpt>
      <trkpt lat="48.23698" lon="-4.06042">
        <ele>105.9</ele>
        <time>2020-06-08T13:29:24Z</time>
      </trkpt>
      <trkpt lat="48.23699" lon="-4.06053">
        <ele>105.6</ele>
        <time>2020-06-08T13:29:25Z</time>
      </trkpt>
      <trkpt lat="48.23701" lon="-4.06065">
        <ele>105.2</ele>
        <time>2020-06-08T13:29:26Z</time>
      </trkpt>
      <trkpt lat="48.23703" lon="-4.06076">
        <ele>104.8</ele>
        <time>2020-06-08T13:29:27Z</time>
      </trkpt>
      <trkpt lat="48.23705" lon="-4.06088">
        <ele>104.5</ele>
        <time>2020-06-08T13:29:28Z</time>
      </trkpt>
      <trkpt lat="48.23709" lon="-4.06098">
        <ele>104.2</ele>
        <time>2020-06-08T13:29:29Z</time>
      </trkpt>
      <trkpt lat="48.23713" lon="-4.0611">
        <ele>103.8</ele>
        <time>2020-06-08T13:29:30Z</time>
      </trkpt>
      <trkpt lat="48.23716" lon="-4.06121">
        <ele>103.4</ele>
        <time>2020-06-08T13:29:31Z</time>
      </trkpt>
      <trkpt lat="48.2372" lon="-4.06132">
        <ele>103.1</ele>
        <time>2020-06-08T13:29:32Z</time>
      </trkpt>
      <trkpt lat="48.23724" lon="-4.06143">
        <ele>102.7</ele>
        <time>2020-06-08T13:29:33Z</time>
      </trkpt>
      <trkpt lat="48.23728" lon="-4.06154">
        <ele>102.3</ele>
        <time>2020-06-08T13:29:34Z</time>
      </trkpt>
      <trkpt lat="48.23732" lon="-4.06165">
        <ele>102</ele>
        <time>2020-06-08T13:29:35Z</time>
      </trkpt>
      <trkpt lat="48.23737" lon="-4.06175">
        <ele>101.7</ele>
        <time>2020-06-08T13:29:36Z</time>
      </trkpt>
      <trkpt lat="48.23743" lon="-4.06185">
        <ele>101.4</ele>
        <time>2020-06-08T13:29:37Z</time>
      </trkpt>
      <trkpt lat="48.23748" lon="-4.06196">
        <ele>101</ele>
        <time>2020-06-08T13:29:38Z</time>
      </trkpt>
      <trkpt lat="48.23753" lon="-4.06205">
        <ele>100.7</ele>
        <time>2020-06-08T13:29:39Z</time>
      </trkpt>
      <trkpt lat="48.23759" lon="-4.06215">
        <ele>100.3</ele>
        <time>2020-06-08T13:29:40Z</time>
      </trkpt>
      <trkpt lat="48.23766" lon="-4.06224">
        <ele>99.9</ele>
        <time>2020-06-08T13:29:41Z</time>
      </trkpt>
      <trkpt lat="48.23772" lon="-4.06233">
        <ele>99.6</ele>
        <time>2020-06-08T13:29:42Z</time>
      </trkpt>
      <trkpt lat="48.23777" lon="-4.06242">
        <ele>99.3</ele>
        <time>2020-06-08T13:29:43Z</time>
      </trkpt>
      <trkpt lat="48.23783" lon="-4.06252">
        <ele>99</ele>
        <time>2020-06-08T13:29:44Z</time>
      </trkpt>
      <trkpt lat="48.23789" lon="-4.06261">
        <ele>98.7</ele>
        <time>2020-06-08T13:29:45Z</time>
      </trkpt>
      <trkpt lat="48.23795" lon="-4.06269">
        <ele>98.5</ele>
        <time>2020-06-08T13:29:46Z</time>
      </trkpt>
      <trkpt lat="48.23801" lon="-4.06278">
        <ele>98.3</ele>
        <time>2020-06-08T13:29:47Z</time>
      </trkpt>
      <trkpt lat="48.23807" lon="-4.06286">
        <ele>98.2</ele>
        <time>2020-06-08T13:29:48Z</time>
      </trkpt>
      <trkpt lat="48.23813" lon="-4.06294">
        <ele>98</ele>
        <time>2020-06-08T13:29:49Z</time>
      </trkpt>
      <trkpt lat="48.23818" lon="-4.06302">
        <ele>97.9</ele>
        <time>2020-06-08T13:29:50Z</time>
      </trkpt>
      <trkpt lat="48.23825" lon="-4.06309">
        <ele>97.7</ele>
        <time>2020-06-08T13:29:51Z</time>
      </trkpt>
      <trkpt lat="48.23831" lon="-4.06314">
        <ele>97.6</ele>
        <time>2020-06-08T13:29:52Z</time>
      </trkpt>
      <trkpt lat="48.23838" lon="-4.06318">
        <ele>97.5</ele>
        <time>2020-06-08T13:29:53Z</time>
      </trkpt>
      <trkpt lat="48.23845" lon="-4.06323">
        <ele>97.4</ele>
        <time>2020-06-08T13:29:54Z</time>
      </trkpt>
      <trkpt lat="48.23851" lon="-4.06326">
        <ele>97.4</ele>
        <time>2020-06-08T13:29:55Z</time>
      </trkpt>
      <trkpt lat="48.23858" lon="-4.06328">
        <ele>97.4</ele>
        <time>2020-06-08T13:29:56Z</time>
      </trkpt>
      <trkpt lat="48.23864" lon="-4.0633">
        <ele>97.4</ele>
        <time>2020-06-08T13:29:57Z</time>
      </trkpt>
      <trkpt lat="48.23871" lon="-4.06332">
        <ele>97.5</ele>
        <time>2020-06-08T13:29:58Z</time>
      </trkpt>
      <trkpt lat="48.23877" lon="-4.06334">
        <ele>97.5</ele>
        <time>2020-06-08T13:29:59Z</time>
      </trkpt>
      <trkpt lat="48.23883" lon="-4.06335">
        <ele>97.5</ele>
        <time>2020-06-08T13:30:00Z</time>
      </trkpt>
      <trkpt lat="48.23889" lon="-4.06337">
        <ele>97.6</ele>
        <time>2020-06-08T13:30:01Z</time>
      </trkpt>
      <trkpt lat="48.23895" lon="-4.0634">
        <ele>97.7</ele>
        <time>2020-06-08T13:30:02Z</time>
      </trkpt>
      <trkpt lat="48.239" lon="-4.06343">
        <ele>97.8</ele>
        <time>2020-06-08T13:30:03Z</time>
      </trkpt>
      <trkpt lat="48.23904" lon="-4.06349">
        <ele>97.8</ele>
        <time>2020-06-08T13:30:04Z</time>
      </trkpt>
      <trkpt lat="48.23907" lon="-4.06355">
        <ele>98</ele>
        <time>2020-06-08T13:30:05Z</time>
      </trkpt>
      <trkpt lat="48.23909" lon="-4.06361">
        <ele>98.2</ele>
        <time>2020-06-08T13:30:06Z</time>
      </trkpt>
      <trkpt lat="48.23911" lon="-4.06368">
        <ele>98.3</ele>
        <time>2020-06-08T13:30:07Z</time>
      </trkpt>
      <trkpt lat="48.23913" lon="-4.06373">
        <ele>98.4</ele>
        <time>2020-06-08T13:30:08Z</time>
      </trkpt>
      <trkpt lat="48.23914" lon="-4.06379">
        <ele>98.6</ele>
        <time>2020-06-08T13:30:09Z</time>
      </trkpt>
      <trkpt lat="48.23916" lon="-4.06385">
        <ele>98.7</ele>
        <time>2020-06-08T13:30:10Z</time>
      </trkpt>
      <trkpt lat="48.23917" lon="-4.0639">
        <ele>98.9</ele>
        <time>2020-06-08T13:30:11Z</time>
      </trkpt>
      <trkpt lat="48.23917" lon="-4.06396">
        <ele>99</ele>
        <time>2020-06-08T13:30:12Z</time>
      </trkpt>
      <trkpt lat="48.2392" lon="-4.064">
        <ele>99.2</ele>
        <time>2020-06-08T13:30:13Z</time>
      </trkpt>
      <trkpt lat="48.2392" lon="-4.06405">
        <ele>99.3</ele>
        <time>2020-06-08T13:30:14Z</time>
      </trkpt>
      <trkpt lat="48.2392" lon="-4.0641">
        <ele>99.5</ele>
        <time>2020-06-08T13:30:15Z</time>
      </trkpt>
      <trkpt lat="48.23921" lon="-4.06415">
        <ele>99.7</ele>
        <time>2020-06-08T13:30:16Z</time>
      </trkpt>
      <trkpt lat="48.23922" lon="-4.06421">
        <ele>99.8</ele>
        <time>2020-06-08T13:30:17Z</time>
      </trkpt>
      <trkpt lat="48.23924" lon="-4.06426">
        <ele>100</ele>
        <time>2020-06-08T13:30:18Z</time>
      </trkpt>
      <trkpt lat="48.23926" lon="-4.06431">
        <ele>100.2</ele>
        <time>2020-06-08T13:30:19Z</time>
      </trkpt>
      <trkpt lat="48.23929" lon="-4.06436">
        <ele>100.3</ele>
        <time>2020-06-08T13:30:20Z</time>
      </trkpt>
      <trkpt lat="48.23931" lon="-4.06441">
        <ele>100.5</ele>
        <time>2020-06-08T13:30:21Z</time>
      </trkpt>
      <trkpt lat="48.23934" lon="-4.06444">
        <ele>100.7</ele>
        <time>2020-06-08T13:30:22Z</time>
      </trkpt>
      <trkpt lat="48.23937" lon="-4.06447">
        <ele>101.1</ele>
        <time>2020-06-08T13:30:23Z</time>
      </trkpt>
      <trkpt lat="48.2394" lon="-4.0645">
        <ele>101.3</ele>
        <time>2020-06-08T13:30:24Z</time>
      </trkpt>
      <trkpt lat="48.23943" lon="-4.06453">
        <ele>101.5</ele>
        <time>2020-06-08T13:30:25Z</time>
      </trkpt>
      <trkpt lat="48.23945" lon="-4.06457">
        <ele>101.7</ele>
        <time>2020-06-08T13:30:26Z</time>
      </trkpt>
      <trkpt lat="48.23946" lon="-4.06462">
        <ele>101.9</ele>
        <time>2020-06-08T13:30:27Z</time>
      </trkpt>
      <trkpt lat="48.23948" lon="-4.06467">
        <ele>102.2</ele>
        <time>2020-06-08T13:30:28Z</time>
      </trkpt>
      <trkpt lat="48.23949" lon="-4.06468">
        <ele>102.2</ele>
        <time>2020-06-08T13:30:29Z</time>
      </trkpt>
      <trkpt lat="48.23952" lon="-4.06471">
        <ele>102.5</ele>
        <time>2020-06-08T13:30:30Z</time>
      </trkpt>
      <trkpt lat="48.23952" lon="-4.06473">
        <ele>102.6</ele>
        <time>2020-06-08T13:30:31Z</time>
      </trkpt>
      <trkpt lat="48.23955" lon="-4.06477">
        <ele>102.9</ele>
        <time>2020-06-08T13:30:32Z</time>
      </trkpt>
      <trkpt lat="48.23956" lon="-4.06478">
        <ele>103</ele>
        <time>2020-06-08T13:30:33Z</time>
      </trkpt>
      <trkpt lat="48.23959" lon="-4.06481">
        <ele>103.2</ele>
        <time>2020-06-08T13:30:34Z</time>
      </trkpt>
      <trkpt lat="48.23961" lon="-4.06483">
        <ele>103.4</ele>
        <time>2020-06-08T13:30:35Z</time>
      </trkpt>
      <trkpt lat="48.23963" lon="-4.06486">
        <ele>103.6</ele>
        <time>2020-06-08T13:30:36Z</time>
      </trkpt>
      <trkpt lat="48.23966" lon="-4.06489">
        <ele>103.8</ele>
        <time>2020-06-08T13:30:37Z</time>
      </trkpt>
      <trkpt lat="48.23968" lon="-4.06492">
        <ele>104</ele>
        <time>2020-06-08T13:30:38Z</time>
      </trkpt>
      <trkpt lat="48.23971" lon="-4.06495">
        <ele>104.3</ele>
        <time>2020-06-08T13:30:39Z</time>
      </trkpt>
      <trkpt lat="48.23973" lon="-4.06498">
        <ele>104.5</ele>
        <time>2020-06-08T13:30:40Z</time>
      </trkpt>
      <trkpt lat="48.23975" lon="-4.06501">
        <ele>104.7</ele>
        <time>2020-06-08T13:30:41Z</time>
      </trkpt>
      <trkpt lat="48.23977" lon="-4.06505">
        <ele>104.9</ele>
        <time>2020-06-08T13:30:42Z</time>
      </trkpt>
      <trkpt lat="48.23977" lon="-4.06506">
        <ele>105</ele>
        <time>2020-06-08T13:30:43Z</time>
      </trkpt>
      <trkpt lat="48.23981" lon="-4.06509">
        <ele>105.3</ele>
        <time>2020-06-08T13:30:44Z</time>
      </trkpt>
      <trkpt lat="48.23982" lon="-4.0651">
        <ele>105.4</ele>
        <time>2020-06-08T13:30:45Z</time>
      </trkpt>
      <trkpt lat="48.23984" lon="-4.06515">
        <ele>105.7</ele>
        <time>2020-06-08T13:30:46Z</time>
      </trkpt>
      <trkpt lat="48.23985" lon="-4.06516">
        <ele>105.8</ele>
        <time>2020-06-08T13:30:47Z</time>
      </trkpt>
      <trkpt lat="48.23988" lon="-4.06517">
        <ele>106</ele>
        <time>2020-06-08T13:30:48Z</time>
      </trkpt>
      <trkpt lat="48.23991" lon="-4.06517">
        <ele>106.2</ele>
        <time>2020-06-08T13:30:49Z</time>
      </trkpt>
      <trkpt lat="48.23993" lon="-4.06519">
        <ele>106.2</ele>
        <time>2020-06-08T13:30:50Z</time>
      </trkpt>
      <trkpt lat="48.23996" lon="-4.06521">
        <ele>106.3</ele>
        <time>2020-06-08T13:30:51Z</time>
      </trkpt>
      <trkpt lat="48.23998" lon="-4.06525">
        <ele>106.5</ele>
        <time>2020-06-08T13:30:52Z</time>
      </trkpt>
      <trkpt lat="48.23999" lon="-4.06525">
        <ele>106.5</ele>
        <time>2020-06-08T13:30:53Z</time>
      </trkpt>
      <trkpt lat="48.24002" lon="-4.06528">
        <ele>106.7</ele>
        <time>2020-06-08T13:30:54Z</time>
      </trkpt>
      <trkpt lat="48.24004" lon="-4.06529">
        <ele>106.8</ele>
        <time>2020-06-08T13:30:55Z</time>
      </trkpt>
      <trkpt lat="48.24007" lon="-4.06532">
        <ele>107</ele>
        <time>2020-06-08T13:30:56Z</time>
      </trkpt>
      <trkpt lat="48.2401" lon="-4.06535">
        <ele>107.2</ele>
        <time>2020-06-08T13:30:57Z</time>
      </trkpt>
      <trkpt lat="48.24013" lon="-4.06536">
        <ele>107.3</ele>
        <time>2020-06-08T13:30:58Z</time>
      </trkpt>
      <trkpt lat="48.24016" lon="-4.06538">
        <ele>107.5</ele>
        <time>2020-06-08T13:30:59Z</time>
      </trkpt>
      <trkpt lat="48.24018" lon="-4.0654">
        <ele>107.6</ele>
        <time>2020-06-08T13:31:00Z</time>
      </trkpt>
      <trkpt lat="48.24021" lon="-4.06545">
        <ele>107.7</ele>
        <time>2020-06-08T13:31:01Z</time>
      </trkpt>
      <trkpt lat="48.24024" lon="-4.06548">
        <ele>107.8</ele>
        <time>2020-06-08T13:31:02Z</time>
      </trkpt>
      <trkpt lat="48.24026" lon="-4.06552">
        <ele>108</ele>
        <time>2020-06-08T13:31:03Z</time>
      </trkpt>
      <trkpt lat="48.24029" lon="-4.06555">
        <ele>108.1</ele>
        <time>2020-06-08T13:31:04Z</time>
      </trkpt>
      <trkpt lat="48.24032" lon="-4.06559">
        <ele>108.2</ele>
        <time>2020-06-08T13:31:05Z</time>
      </trkpt>
      <trkpt lat="48.24035" lon="-4.06562">
        <ele>108.3</ele>
        <time>2020-06-08T13:31:06Z</time>
      </trkpt>
      <trkpt lat="48.24038" lon="-4.06565">
        <ele>108.4</ele>
        <time>2020-06-08T13:31:07Z</time>
      </trkpt>
      <trkpt lat="48.24041" lon="-4.06568">
        <ele>108.5</ele>
        <time>2020-06-08T13:31:08Z</time>
      </trkpt>
      <trkpt lat="48.24043" lon="-4.06572">
        <ele>108.6</ele>
        <time>2020-06-08T13:31:09Z</time>
      </trkpt>
      <trkpt lat="48.24046" lon="-4.06575">
        <ele>108.7</ele>
        <time>2020-06-08T13:31:10Z</time>
      </trkpt>
      <trkpt lat="48.2405" lon="-4.06575">
        <ele>108.9</ele>
        <time>2020-06-08T13:31:11Z</time>
      </trkpt>
      <trkpt lat="48.24053" lon="-4.06578">
        <ele>109</ele>
        <time>2020-06-08T13:31:12Z</time>
      </trkpt>
      <trkpt lat="48.24055" lon="-4.06581">
        <ele>109.1</ele>
        <time>2020-06-08T13:31:13Z</time>
      </trkpt>
      <trkpt lat="48.24057" lon="-4.06585">
        <ele>109.2</ele>
        <time>2020-06-08T13:31:14Z</time>
      </trkpt>
      <trkpt lat="48.2406" lon="-4.06588">
        <ele>109.2</ele>
        <time>2020-06-08T13:31:15Z</time>
      </trkpt>
      <trkpt lat="48.24062" lon="-4.06591">
        <ele>109.3</ele>
        <time>2020-06-08T13:31:16Z</time>
      </trkpt>
      <trkpt lat="48.24065" lon="-4.06593">
        <ele>109.4</ele>
        <time>2020-06-08T13:31:17Z</time>
      </trkpt>
      <trkpt lat="48.24067" lon="-4.06596">
        <ele>109.5</ele>
        <time>2020-06-08T13:31:18Z</time>
      </trkpt>
      <trkpt lat="48.24068" lon="-4.066">
        <ele>109.6</ele>
        <time>2020-06-08T13:31:19Z</time>
      </trkpt>
      <trkpt lat="48.2407" lon="-4.06604">
        <ele>109.7</ele>
        <time>2020-06-08T13:31:20Z</time>
      </trkpt>
      <trkpt lat="48.24073" lon="-4.06606">
        <ele>109.7</ele>
        <time>2020-06-08T13:31:21Z</time>
      </trkpt>
      <trkpt lat="48.24075" lon="-4.0661">
        <ele>109.8</ele>
        <time>2020-06-08T13:31:22Z</time>
      </trkpt>
      <trkpt lat="48.24077" lon="-4.06614">
        <ele>109.9</ele>
        <time>2020-06-08T13:31:23Z</time>
      </trkpt>
      <trkpt lat="48.2408" lon="-4.06616">
        <ele>109.9</ele>
        <time>2020-06-08T13:31:24Z</time>
      </trkpt>
      <trkpt lat="48.24081" lon="-4.0662">
        <ele>110</ele>
        <time>2020-06-08T13:31:25Z</time>
      </trkpt>
      <trkpt lat="48.24081" lon="-4.06624">
        <ele>110.1</ele>
        <time>2020-06-08T13:31:26Z</time>
      </trkpt>
      <trkpt lat="48.24081" lon="-4.06629">
        <ele>110.1</ele>
        <time>2020-06-08T13:31:27Z</time>
      </trkpt>
      <trkpt lat="48.24083" lon="-4.06634">
        <ele>110.2</ele>
        <time>2020-06-08T13:31:28Z</time>
      </trkpt>
      <trkpt lat="48.24083" lon="-4.06636">
        <ele>110.3</ele>
        <time>2020-06-08T13:31:29Z</time>
      </trkpt>
      <trkpt lat="48.24083" lon="-4.06641">
        <ele>110.4</ele>
        <time>2020-06-08T13:31:30Z</time>
      </trkpt>
      <trkpt lat="48.24084" lon="-4.06646">
        <ele>110.5</ele>
        <time>2020-06-08T13:31:31Z</time>
      </trkpt>
      <trkpt lat="48.24085" lon="-4.0665">
        <ele>110.5</ele>
        <time>2020-06-08T13:31:32Z</time>
      </trkpt>
      <trkpt lat="48.24086" lon="-4.06655">
        <ele>110.6</ele>
        <time>2020-06-08T13:31:33Z</time>
      </trkpt>
      <trkpt lat="48.24088" lon="-4.0666">
        <ele>110.7</ele>
        <time>2020-06-08T13:31:34Z</time>
      </trkpt>
      <trkpt lat="48.24087" lon="-4.06665">
        <ele>110.8</ele>
        <time>2020-06-08T13:31:35Z</time>
      </trkpt>
      <trkpt lat="48.24088" lon="-4.0667">
        <ele>110.9</ele>
        <time>2020-06-08T13:31:36Z</time>
      </trkpt>
      <trkpt lat="48.24088" lon="-4.06675">
        <ele>111</ele>
        <time>2020-06-08T13:31:37Z</time>
      </trkpt>
      <trkpt lat="48.24089" lon="-4.06679">
        <ele>111.1</ele>
        <time>2020-06-08T13:31:38Z</time>
      </trkpt>
      <trkpt lat="48.24092" lon="-4.06683">
        <ele>111.2</ele>
        <time>2020-06-08T13:31:39Z</time>
      </trkpt>
      <trkpt lat="48.24093" lon="-4.06687">
        <ele>111.3</ele>
        <time>2020-06-08T13:31:40Z</time>
      </trkpt>
      <trkpt lat="48.24094" lon="-4.06692">
        <ele>111.4</ele>
        <time>2020-06-08T13:31:41Z</time>
      </trkpt>
      <trkpt lat="48.24095" lon="-4.06697">
        <ele>111.4</ele>
        <time>2020-06-08T13:31:42Z</time>
      </trkpt>
      <trkpt lat="48.24096" lon="-4.06702">
        <ele>111.5</ele>
        <time>2020-06-08T13:31:43Z</time>
      </trkpt>
      <trkpt lat="48.24098" lon="-4.06707">
        <ele>111.6</ele>
        <time>2020-06-08T13:31:44Z</time>
      </trkpt>
      <trkpt lat="48.24098" lon="-4.06712">
        <ele>111.6</ele>
        <time>2020-06-08T13:31:45Z</time>
      </trkpt>
      <trkpt lat="48.24098" lon="-4.06717">
        <ele>111.7</ele>
        <time>2020-06-08T13:31:46Z</time>
      </trkpt>
      <trkpt lat="48.24099" lon="-4.06722">
        <ele>111.8</ele>
        <time>2020-06-08T13:31:47Z</time>
      </trkpt>
      <trkpt lat="48.241" lon="-4.06726">
        <ele>111.8</ele>
        <time>2020-06-08T13:31:48Z</time>
      </trkpt>
      <trkpt lat="48.241" lon="-4.0673">
        <ele>111.9</ele>
        <time>2020-06-08T13:31:49Z</time>
      </trkpt>
      <trkpt lat="48.24101" lon="-4.06735">
        <ele>112</ele>
        <time>2020-06-08T13:31:50Z</time>
      </trkpt>
      <trkpt lat="48.24102" lon="-4.06739">
        <ele>112.1</ele>
        <time>2020-06-08T13:31:51Z</time>
      </trkpt>
      <trkpt lat="48.24104" lon="-4.06743">
        <ele>112.1</ele>
        <time>2020-06-08T13:31:52Z</time>
      </trkpt>
      <trkpt lat="48.24105" lon="-4.06748">
        <ele>112.2</ele>
        <time>2020-06-08T13:31:53Z</time>
      </trkpt>
      <trkpt lat="48.24106" lon="-4.06752">
        <ele>112.3</ele>
        <time>2020-06-08T13:31:54Z</time>
      </trkpt>
      <trkpt lat="48.24107" lon="-4.06757">
        <ele>112.4</ele>
        <time>2020-06-08T13:31:55Z</time>
      </trkpt>
      <trkpt lat="48.24108" lon="-4.06762">
        <ele>112.5</ele>
        <time>2020-06-08T13:31:56Z</time>
      </trkpt>
      <trkpt lat="48.24107" lon="-4.06767">
        <ele>112.5</ele>
        <time>2020-06-08T13:31:57Z</time>
      </trkpt>
      <trkpt lat="48.24108" lon="-4.06772">
        <ele>112.6</ele>
        <time>2020-06-08T13:31:58Z</time>
      </trkpt>
      <trkpt lat="48.24109" lon="-4.06777">
        <ele>112.7</ele>
        <time>2020-06-08T13:31:59Z</time>
      </trkpt>
      <trkpt lat="48.24109" lon="-4.06781">
        <ele>112.8</ele>
        <time>2020-06-08T13:32:00Z</time>
      </trkpt>
      <trkpt lat="48.24112" lon="-4.06785">
        <ele>112.9</ele>
        <time>2020-06-08T13:32:01Z</time>
      </trkpt>
      <trkpt lat="48.24112" lon="-4.0679">
        <ele>112.9</ele>
        <time>2020-06-08T13:32:02Z</time>
      </trkpt>
      <trkpt lat="48.24114" lon="-4.06795">
        <ele>113</ele>
        <time>2020-06-08T13:32:03Z</time>
      </trkpt>
      <trkpt lat="48.24115" lon="-4.06799">
        <ele>113.1</ele>
        <time>2020-06-08T13:32:04Z</time>
      </trkpt>
      <trkpt lat="48.24117" lon="-4.06803">
        <ele>113.1</ele>
        <time>2020-06-08T13:32:05Z</time>
      </trkpt>
      <trkpt lat="48.24117" lon="-4.06808">
        <ele>113.1</ele>
        <time>2020-06-08T13:32:06Z</time>
      </trkpt>
      <trkpt lat="48.24118" lon="-4.06812">
        <ele>113.1</ele>
        <time>2020-06-08T13:32:07Z</time>
      </trkpt>
      <trkpt lat="48.24118" lon="-4.06816">
        <ele>113.2</ele>
        <time>2020-06-08T13:32:08Z</time>
      </trkpt>
      <trkpt lat="48.24119" lon="-4.06821">
        <ele>113.2</ele>
        <time>2020-06-08T13:32:09Z</time>
      </trkpt>
      <trkpt lat="48.2412" lon="-4.06825">
        <ele>113.2</ele>
        <time>2020-06-08T13:32:10Z</time>
      </trkpt>
      <trkpt lat="48.2412" lon="-4.0683">
        <ele>113.3</ele>
        <time>2020-06-08T13:32:11Z</time>
      </trkpt>
      <trkpt lat="48.24121" lon="-4.06835">
        <ele>113.3</ele>
        <time>2020-06-08T13:32:12Z</time>
      </trkpt>
      <trkpt lat="48.24121" lon="-4.06841">
        <ele>113.4</ele>
        <time>2020-06-08T13:32:13Z</time>
      </trkpt>
      <trkpt lat="48.24122" lon="-4.06846">
        <ele>113.5</ele>
        <time>2020-06-08T13:32:14Z</time>
      </trkpt>
      <trkpt lat="48.24124" lon="-4.0685">
        <ele>113.5</ele>
        <time>2020-06-08T13:32:15Z</time>
      </trkpt>
      <trkpt lat="48.24125" lon="-4.06855">
        <ele>113.6</ele>
        <time>2020-06-08T13:32:16Z</time>
      </trkpt>
      <trkpt lat="48.24127" lon="-4.06859">
        <ele>113.7</ele>
        <time>2020-06-08T13:32:17Z</time>
      </trkpt>
      <trkpt lat="48.24128" lon="-4.06864">
        <ele>113.7</ele>
        <time>2020-06-08T13:32:18Z</time>
      </trkpt>
      <trkpt lat="48.24129" lon="-4.06869">
        <ele>113.8</ele>
        <time>2020-06-08T13:32:19Z</time>
      </trkpt>
      <trkpt lat="48.2413" lon="-4.06874">
        <ele>113.8</ele>
        <time>2020-06-08T13:32:20Z</time>
      </trkpt>
      <trkpt lat="48.24131" lon="-4.06879">
        <ele>113.9</ele>
        <time>2020-06-08T13:32:21Z</time>
      </trkpt>
      <trkpt lat="48.24131" lon="-4.06884">
        <ele>113.9</ele>
        <time>2020-06-08T13:32:22Z</time>
      </trkpt>
      <trkpt lat="48.24132" lon="-4.06889">
        <ele>114</ele>
        <time>2020-06-08T13:32:23Z</time>
      </trkpt>
      <trkpt lat="48.24133" lon="-4.06894">
        <ele>114</ele>
        <time>2020-06-08T13:32:24Z</time>
      </trkpt>
      <trkpt lat="48.24134" lon="-4.06899">
        <ele>114.1</ele>
        <time>2020-06-08T13:32:25Z</time>
      </trkpt>
      <trkpt lat="48.24136" lon="-4.06903">
        <ele>114.1</ele>
        <time>2020-06-08T13:32:26Z</time>
      </trkpt>
      <trkpt lat="48.24137" lon="-4.06908">
        <ele>114.1</ele>
        <time>2020-06-08T13:32:27Z</time>
      </trkpt>
      <trkpt lat="48.24138" lon="-4.06913">
        <ele>114.2</ele>
        <time>2020-06-08T13:32:28Z</time>
      </trkpt>
      <trkpt lat="48.24139" lon="-4.06918">
        <ele>114.2</ele>
        <time>2020-06-08T13:32:29Z</time>
      </trkpt>
      <trkpt lat="48.24139" lon="-4.06923">
        <ele>114.2</ele>
        <time>2020-06-08T13:32:30Z</time>
      </trkpt>
      <trkpt lat="48.2414" lon="-4.06928">
        <ele>114.2</ele>
        <time>2020-06-08T13:32:31Z</time>
      </trkpt>
      <trkpt lat="48.2414" lon="-4.06933">
        <ele>114.3</ele>
        <time>2020-06-08T13:32:32Z</time>
      </trkpt>
      <trkpt lat="48.24142" lon="-4.06938">
        <ele>114.3</ele>
        <time>2020-06-08T13:32:33Z</time>
      </trkpt>
      <trkpt lat="48.24144" lon="-4.06942">
        <ele>114.3</ele>
        <time>2020-06-08T13:32:34Z</time>
      </trkpt>
      <trkpt lat="48.24145" lon="-4.06947">
        <ele>114.4</ele>
        <time>2020-06-08T13:32:35Z</time>
      </trkpt>
      <trkpt lat="48.24146" lon="-4.06953">
        <ele>114.4</ele>
        <time>2020-06-08T13:32:36Z</time>
      </trkpt>
      <trkpt lat="48.24147" lon="-4.06958">
        <ele>114.5</ele>
        <time>2020-06-08T13:32:37Z</time>
      </trkpt>
      <trkpt lat="48.24149" lon="-4.06962">
        <ele>114.5</ele>
        <time>2020-06-08T13:32:38Z</time>
      </trkpt>
      <trkpt lat="48.24149" lon="-4.06967">
        <ele>114.6</ele>
        <time>2020-06-08T13:32:39Z</time>
      </trkpt>
      <trkpt lat="48.24152" lon="-4.06971">
        <ele>114.7</ele>
        <time>2020-06-08T13:32:40Z</time>
      </trkpt>
      <trkpt lat="48.24154" lon="-4.06976">
        <ele>114.8</ele>
        <time>2020-06-08T13:32:41Z</time>
      </trkpt>
      <trkpt lat="48.24155" lon="-4.0698">
        <ele>114.8</ele>
        <time>2020-06-08T13:32:42Z</time>
      </trkpt>
      <trkpt lat="48.24157" lon="-4.06985">
        <ele>114.9</ele>
        <time>2020-06-08T13:32:43Z</time>
      </trkpt>
      <trkpt lat="48.24158" lon="-4.06989">
        <ele>115</ele>
        <time>2020-06-08T13:32:44Z</time>
      </trkpt>
      <trkpt lat="48.2416" lon="-4.06994">
        <ele>115.1</ele>
        <time>2020-06-08T13:32:45Z</time>
      </trkpt>
      <trkpt lat="48.24162" lon="-4.06998">
        <ele>115.1</ele>
        <time>2020-06-08T13:32:46Z</time>
      </trkpt>
      <trkpt lat="48.24163" lon="-4.07004">
        <ele>115.2</ele>
        <time>2020-06-08T13:32:47Z</time>
      </trkpt>
      <trkpt lat="48.24164" lon="-4.07008">
        <ele>115.2</ele>
        <time>2020-06-08T13:32:48Z</time>
      </trkpt>
      <trkpt lat="48.24166" lon="-4.07013">
        <ele>115.2</ele>
        <time>2020-06-08T13:32:49Z</time>
      </trkpt>
      <trkpt lat="48.24168" lon="-4.07018">
        <ele>115.3</ele>
        <time>2020-06-08T13:32:50Z</time>
      </trkpt>
      <trkpt lat="48.24169" lon="-4.07024">
        <ele>115.3</ele>
        <time>2020-06-08T13:32:51Z</time>
      </trkpt>
      <trkpt lat="48.24171" lon="-4.07028">
        <ele>115.3</ele>
        <time>2020-06-08T13:32:52Z</time>
      </trkpt>
      <trkpt lat="48.24172" lon="-4.07034">
        <ele>115.4</ele>
        <time>2020-06-08T13:32:53Z</time>
      </trkpt>
      <trkpt lat="48.24173" lon="-4.07039">
        <ele>115.4</ele>
        <time>2020-06-08T13:32:54Z</time>
      </trkpt>
      <trkpt lat="48.24175" lon="-4.07043">
        <ele>115.4</ele>
        <time>2020-06-08T13:32:55Z</time>
      </trkpt>
      <trkpt lat="48.24177" lon="-4.07047">
        <ele>115.5</ele>
        <time>2020-06-08T13:32:56Z</time>
      </trkpt>
      <trkpt lat="48.24179" lon="-4.07051">
        <ele>115.5</ele>
        <time>2020-06-08T13:32:57Z</time>
      </trkpt>
      <trkpt lat="48.24183" lon="-4.07054">
        <ele>115.5</ele>
        <time>2020-06-08T13:32:58Z</time>
      </trkpt>
      <trkpt lat="48.24184" lon="-4.0706">
        <ele>115.5</ele>
        <time>2020-06-08T13:32:59Z</time>
      </trkpt>
      <trkpt lat="48.24186" lon="-4.07064">
        <ele>115.6</ele>
        <time>2020-06-08T13:33:00Z</time>
      </trkpt>
      <trkpt lat="48.24188" lon="-4.07069">
        <ele>115.6</ele>
        <time>2020-06-08T13:33:01Z</time>
      </trkpt>
      <trkpt lat="48.2419" lon="-4.07073">
        <ele>115.6</ele>
        <time>2020-06-08T13:33:02Z</time>
      </trkpt>
      <trkpt lat="48.24193" lon="-4.07078">
        <ele>115.6</ele>
        <time>2020-06-08T13:33:03Z</time>
      </trkpt>
      <trkpt lat="48.24194" lon="-4.07083">
        <ele>115.6</ele>
        <time>2020-06-08T13:33:04Z</time>
      </trkpt>
      <trkpt lat="48.24196" lon="-4.07088">
        <ele>115.7</ele>
        <time>2020-06-08T13:33:05Z</time>
      </trkpt>
      <trkpt lat="48.24198" lon="-4.07094">
        <ele>115.7</ele>
        <time>2020-06-08T13:33:06Z</time>
      </trkpt>
      <trkpt lat="48.24199" lon="-4.07099">
        <ele>115.8</ele>
        <time>2020-06-08T13:33:07Z</time>
      </trkpt>
      <trkpt lat="48.24201" lon="-4.07103">
        <ele>115.8</ele>
        <time>2020-06-08T13:33:08Z</time>
      </trkpt>
      <trkpt lat="48.24203" lon="-4.07108">
        <ele>115.9</ele>
        <time>2020-06-08T13:33:09Z</time>
      </trkpt>
      <trkpt lat="48.24205" lon="-4.07112">
        <ele>116</ele>
        <time>2020-06-08T13:33:10Z</time>
      </trkpt>
      <trkpt lat="48.24208" lon="-4.07117">
        <ele>116</ele>
        <time>2020-06-08T13:33:11Z</time>
      </trkpt>
      <trkpt lat="48.2421" lon="-4.07121">
        <ele>116.1</ele>
        <time>2020-06-08T13:33:12Z</time>
      </trkpt>
      <trkpt lat="48.24213" lon="-4.07125">
        <ele>116.2</ele>
        <time>2020-06-08T13:33:13Z</time>
      </trkpt>
      <trkpt lat="48.24215" lon="-4.0713">
        <ele>116.3</ele>
        <time>2020-06-08T13:33:14Z</time>
      </trkpt>
      <trkpt lat="48.24217" lon="-4.07134">
        <ele>116.3</ele>
        <time>2020-06-08T13:33:15Z</time>
      </trkpt>
      <trkpt lat="48.2422" lon="-4.07137">
        <ele>116.4</ele>
        <time>2020-06-08T13:33:16Z</time>
      </trkpt>
      <trkpt lat="48.24223" lon="-4.07141">
        <ele>116.5</ele>
        <time>2020-06-08T13:33:17Z</time>
      </trkpt>
      <trkpt lat="48.24224" lon="-4.07146">
        <ele>116.5</ele>
        <time>2020-06-08T13:33:18Z</time>
      </trkpt>
      <trkpt lat="48.24226" lon="-4.07151">
        <ele>116.6</ele>
        <time>2020-06-08T13:33:19Z</time>
      </trkpt>
      <trkpt lat="48.24228" lon="-4.07156">
        <ele>116.7</ele>
        <time>2020-06-08T13:33:20Z</time>
      </trkpt>
      <trkpt lat="48.24231" lon="-4.0716">
        <ele>116.8</ele>
        <time>2020-06-08T13:33:21Z</time>
      </trkpt>
      <trkpt lat="48.24233" lon="-4.07165">
        <ele>116.8</ele>
        <time>2020-06-08T13:33:22Z</time>
      </trkpt>
      <trkpt lat="48.24235" lon="-4.07169">
        <ele>116.9</ele>
        <time>2020-06-08T13:33:23Z</time>
      </trkpt>
      <trkpt lat="48.24236" lon="-4.07174">
        <ele>117</ele>
        <time>2020-06-08T13:33:24Z</time>
      </trkpt>
      <trkpt lat="48.24237" lon="-4.07179">
        <ele>117</ele>
        <time>2020-06-08T13:33:25Z</time>
      </trkpt>
      <trkpt lat="48.24239" lon="-4.07184">
        <ele>117.1</ele>
        <time>2020-06-08T13:33:26Z</time>
      </trkpt>
      <trkpt lat="48.2424" lon="-4.07189">
        <ele>117.1</ele>
        <time>2020-06-08T13:33:27Z</time>
      </trkpt>
      <trkpt lat="48.24243" lon="-4.07192">
        <ele>117.2</ele>
        <time>2020-06-08T13:33:28Z</time>
      </trkpt>
      <trkpt lat="48.24244" lon="-4.07197">
        <ele>117.2</ele>
        <time>2020-06-08T13:33:29Z</time>
      </trkpt>
      <trkpt lat="48.24246" lon="-4.07201">
        <ele>117.3</ele>
        <time>2020-06-08T13:33:30Z</time>
      </trkpt>
      <trkpt lat="48.24248" lon="-4.07205">
        <ele>117.3</ele>
        <time>2020-06-08T13:33:31Z</time>
      </trkpt>
      <trkpt lat="48.2425" lon="-4.0721">
        <ele>117.4</ele>
        <time>2020-06-08T13:33:32Z</time>
      </trkpt>
      <trkpt lat="48.24251" lon="-4.07214">
        <ele>117.5</ele>
        <time>2020-06-08T13:33:33Z</time>
      </trkpt>
      <trkpt lat="48.24254" lon="-4.07219">
        <ele>117.5</ele>
        <time>2020-06-08T13:33:34Z</time>
      </trkpt>
      <trkpt lat="48.24256" lon="-4.07223">
        <ele>117.6</ele>
        <time>2020-06-08T13:33:35Z</time>
      </trkpt>
      <trkpt lat="48.24258" lon="-4.07227">
        <ele>117.7</ele>
        <time>2020-06-08T13:33:36Z</time>
      </trkpt>
      <trkpt lat="48.24259" lon="-4.07232">
        <ele>117.7</ele>
        <time>2020-06-08T13:33:37Z</time>
      </trkpt>
      <trkpt lat="48.24262" lon="-4.07235">
        <ele>117.8</ele>
        <time>2020-06-08T13:33:38Z</time>
      </trkpt>
      <trkpt lat="48.24265" lon="-4.07239">
        <ele>117.9</ele>
        <time>2020-06-08T13:33:39Z</time>
      </trkpt>
      <trkpt lat="48.24267" lon="-4.07242">
        <ele>117.9</ele>
        <time>2020-06-08T13:33:40Z</time>
      </trkpt>
      <trkpt lat="48.24269" lon="-4.07246">
        <ele>118</ele>
        <time>2020-06-08T13:33:41Z</time>
      </trkpt>
      <trkpt lat="48.24271" lon="-4.07251">
        <ele>118.1</ele>
        <time>2020-06-08T13:33:42Z</time>
      </trkpt>
      <trkpt lat="48.24273" lon="-4.07255">
        <ele>118.1</ele>
        <time>2020-06-08T13:33:43Z</time>
      </trkpt>
      <trkpt lat="48.24274" lon="-4.0726">
        <ele>118.1</ele>
        <time>2020-06-08T13:33:44Z</time>
      </trkpt>
      <trkpt lat="48.24276" lon="-4.07264">
        <ele>118.2</ele>
        <time>2020-06-08T13:33:45Z</time>
      </trkpt>
      <trkpt lat="48.24278" lon="-4.07269">
        <ele>118.2</ele>
        <time>2020-06-08T13:33:46Z</time>
      </trkpt>
      <trkpt lat="48.24279" lon="-4.07274">
        <ele>118.2</ele>
        <time>2020-06-08T13:33:47Z</time>
      </trkpt>
      <trkpt lat="48.24281" lon="-4.07278">
        <ele>118.2</ele>
        <time>2020-06-08T13:33:48Z</time>
      </trkpt>
      <trkpt lat="48.24283" lon="-4.07283">
        <ele>118.2</ele>
        <time>2020-06-08T13:33:49Z</time>
      </trkpt>
      <trkpt lat="48.24284" lon="-4.07288">
        <ele>118.3</ele>
        <time>2020-06-08T13:33:50Z</time>
      </trkpt>
      <trkpt lat="48.24286" lon="-4.07292">
        <ele>118.3</ele>
        <time>2020-06-08T13:33:51Z</time>
      </trkpt>
      <trkpt lat="48.24288" lon="-4.07297">
        <ele>118.3</ele>
        <time>2020-06-08T13:33:52Z</time>
      </trkpt>
      <trkpt lat="48.2429" lon="-4.07301">
        <ele>118.3</ele>
        <time>2020-06-08T13:33:53Z</time>
      </trkpt>
      <trkpt lat="48.24292" lon="-4.07306">
        <ele>118.3</ele>
        <time>2020-06-08T13:33:54Z</time>
      </trkpt>
      <trkpt lat="48.24294" lon="-4.0731">
        <ele>118.3</ele>
        <time>2020-06-08T13:33:55Z</time>
      </trkpt>
      <trkpt lat="48.24295" lon="-4.07315">
        <ele>118.3</ele>
        <time>2020-06-08T13:33:56Z</time>
      </trkpt>
      <trkpt lat="48.24297" lon="-4.0732">
        <ele>118.3</ele>
        <time>2020-06-08T13:33:57Z</time>
      </trkpt>
      <trkpt lat="48.24298" lon="-4.07325">
        <ele>118.2</ele>
        <time>2020-06-08T13:33:58Z</time>
      </trkpt>
      <trkpt lat="48.243" lon="-4.0733">
        <ele>118.2</ele>
        <time>2020-06-08T13:33:59Z</time>
      </trkpt>
      <trkpt lat="48.24301" lon="-4.07336">
        <ele>118.2</ele>
        <time>2020-06-08T13:34:00Z</time>
      </trkpt>
      <trkpt lat="48.24303" lon="-4.07341">
        <ele>118.1</ele>
        <time>2020-06-08T13:34:01Z</time>
      </trkpt>
      <trkpt lat="48.24306" lon="-4.07345">
        <ele>118</ele>
        <time>2020-06-08T13:34:02Z</time>
      </trkpt>
      <trkpt lat="48.24308" lon="-4.0735">
        <ele>117.9</ele>
        <time>2020-06-08T13:34:03Z</time>
      </trkpt>
      <trkpt lat="48.24311" lon="-4.07354">
        <ele>117.8</ele>
        <time>2020-06-08T13:34:04Z</time>
      </trkpt>
      <trkpt lat="48.24313" lon="-4.0736">
        <ele>117.7</ele>
        <time>2020-06-08T13:34:05Z</time>
      </trkpt>
      <trkpt lat="48.24316" lon="-4.07366">
        <ele>117.5</ele>
        <time>2020-06-08T13:34:06Z</time>
      </trkpt>
      <trkpt lat="48.24318" lon="-4.07372">
        <ele>117.3</ele>
        <time>2020-06-08T13:34:07Z</time>
      </trkpt>
      <trkpt lat="48.24321" lon="-4.07378">
        <ele>117.1</ele>
        <time>2020-06-08T13:34:08Z</time>
      </trkpt>
      <trkpt lat="48.24323" lon="-4.07385">
        <ele>116.9</ele>
        <time>2020-06-08T13:34:09Z</time>
      </trkpt>
      <trkpt lat="48.24326" lon="-4.07392">
        <ele>116.7</ele>
        <time>2020-06-08T13:34:10Z</time>
      </trkpt>
      <trkpt lat="48.2433" lon="-4.07398">
        <ele>116.3</ele>
        <time>2020-06-08T13:34:11Z</time>
      </trkpt>
      <trkpt lat="48.24332" lon="-4.07406">
        <ele>116.1</ele>
        <time>2020-06-08T13:34:12Z</time>
      </trkpt>
      <trkpt lat="48.24336" lon="-4.07413">
        <ele>115.8</ele>
        <time>2020-06-08T13:34:13Z</time>
      </trkpt>
      <trkpt lat="48.24338" lon="-4.07421">
        <ele>115.5</ele>
        <time>2020-06-08T13:34:14Z</time>
      </trkpt>
      <trkpt lat="48.24342" lon="-4.07429">
        <ele>115.1</ele>
        <time>2020-06-08T13:34:15Z</time>
      </trkpt>
      <trkpt lat="48.24346" lon="-4.07438">
        <ele>114.8</ele>
        <time>2020-06-08T13:34:16Z</time>
      </trkpt>
      <trkpt lat="48.24349" lon="-4.07448">
        <ele>114.3</ele>
        <time>2020-06-08T13:34:17Z</time>
      </trkpt>
      <trkpt lat="48.24353" lon="-4.07458">
        <ele>113.8</ele>
        <time>2020-06-08T13:34:18Z</time>
      </trkpt>
      <trkpt lat="48.24357" lon="-4.07468">
        <ele>113.2</ele>
        <time>2020-06-08T13:34:19Z</time>
      </trkpt>
      <trkpt lat="48.24362" lon="-4.07479">
        <ele>112.6</ele>
        <time>2020-06-08T13:34:20Z</time>
      </trkpt>
      <trkpt lat="48.24366" lon="-4.0749">
        <ele>112</ele>
        <time>2020-06-08T13:34:21Z</time>
      </trkpt>
      <trkpt lat="48.24372" lon="-4.07501">
        <ele>111.5</ele>
        <time>2020-06-08T13:34:22Z</time>
      </trkpt>
      <trkpt lat="48.24377" lon="-4.07512">
        <ele>110.9</ele>
        <time>2020-06-08T13:34:23Z</time>
      </trkpt>
      <trkpt lat="48.24382" lon="-4.07523">
        <ele>110.4</ele>
        <time>2020-06-08T13:34:24Z</time>
      </trkpt>
      <trkpt lat="48.24387" lon="-4.07535">
        <ele>109.9</ele>
        <time>2020-06-08T13:34:25Z</time>
      </trkpt>
      <trkpt lat="48.24392" lon="-4.07547">
        <ele>109.4</ele>
        <time>2020-06-08T13:34:26Z</time>
      </trkpt>
      <trkpt lat="48.24397" lon="-4.07559">
        <ele>108.9</ele>
        <time>2020-06-08T13:34:27Z</time>
      </trkpt>
      <trkpt lat="48.24402" lon="-4.07571">
        <ele>108.4</ele>
        <time>2020-06-08T13:34:28Z</time>
      </trkpt>
      <trkpt lat="48.24408" lon="-4.07583">
        <ele>108</ele>
        <time>2020-06-08T13:34:29Z</time>
      </trkpt>
      <trkpt lat="48.24413" lon="-4.07594">
        <ele>107.6</ele>
        <time>2020-06-08T13:34:30Z</time>
      </trkpt>
      <trkpt lat="48.24418" lon="-4.07605">
        <ele>107.3</ele>
        <time>2020-06-08T13:34:31Z</time>
      </trkpt>
      <trkpt lat="48.24423" lon="-4.07616">
        <ele>107.1</ele>
        <time>2020-06-08T13:34:32Z</time>
      </trkpt>
      <trkpt lat="48.24428" lon="-4.07626">
        <ele>107</ele>
        <time>2020-06-08T13:34:33Z</time>
      </trkpt>
      <trkpt lat="48.24433" lon="-4.07636">
        <ele>106.9</ele>
        <time>2020-06-08T13:34:34Z</time>
      </trkpt>
      <trkpt lat="48.24439" lon="-4.07645">
        <ele>106.8</ele>
        <time>2020-06-08T13:34:35Z</time>
      </trkpt>
      <trkpt lat="48.24444" lon="-4.07653">
        <ele>106.7</ele>
        <time>2020-06-08T13:34:36Z</time>
      </trkpt>
      <trkpt lat="48.2445" lon="-4.07661">
        <ele>106.6</ele>
        <time>2020-06-08T13:34:37Z</time>
      </trkpt>
      <trkpt lat="48.24456" lon="-4.07669">
        <ele>106.5</ele>
        <time>2020-06-08T13:34:38Z</time>
      </trkpt>
      <trkpt lat="48.24461" lon="-4.07676">
        <ele>106.5</ele>
        <time>2020-06-08T13:34:39Z</time>
      </trkpt>
      <trkpt lat="48.24467" lon="-4.07683">
        <ele>106.4</ele>
        <time>2020-06-08T13:34:40Z</time>
      </trkpt>
      <trkpt lat="48.24472" lon="-4.07691">
        <ele>106.4</ele>
        <time>2020-06-08T13:34:41Z</time>
      </trkpt>
      <trkpt lat="48.24477" lon="-4.07697">
        <ele>106.5</ele>
        <time>2020-06-08T13:34:42Z</time>
      </trkpt>
      <trkpt lat="48.24482" lon="-4.07703">
        <ele>106.5</ele>
        <time>2020-06-08T13:34:43Z</time>
      </trkpt>
      <trkpt lat="48.24487" lon="-4.07708">
        <ele>106.5</ele>
        <time>2020-06-08T13:34:44Z</time>
      </trkpt>
      <trkpt lat="48.24492" lon="-4.07713">
        <ele>106.6</ele>
        <time>2020-06-08T13:34:45Z</time>
      </trkpt>
      <trkpt lat="48.24497" lon="-4.07718">
        <ele>106.6</ele>
        <time>2020-06-08T13:34:46Z</time>
      </trkpt>
      <trkpt lat="48.24502" lon="-4.07723">
        <ele>106.6</ele>
        <time>2020-06-08T13:34:47Z</time>
      </trkpt>
      <trkpt lat="48.24507" lon="-4.07727">
        <ele>106.6</ele>
        <time>2020-06-08T13:34:48Z</time>
      </trkpt>
      <trkpt lat="48.24511" lon="-4.07732">
        <ele>106.6</ele>
        <time>2020-06-08T13:34:49Z</time>
      </trkpt>
      <trkpt lat="48.24516" lon="-4.07736">
        <ele>106.6</ele>
        <time>2020-06-08T13:34:50Z</time>
      </trkpt>
      <trkpt lat="48.2452" lon="-4.07739">
        <ele>106.6</ele>
        <time>2020-06-08T13:34:51Z</time>
      </trkpt>
      <trkpt lat="48.24525" lon="-4.07744">
        <ele>106.6</ele>
        <time>2020-06-08T13:34:52Z</time>
      </trkpt>
      <trkpt lat="48.24529" lon="-4.07748">
        <ele>106.6</ele>
        <time>2020-06-08T13:34:53Z</time>
      </trkpt>
      <trkpt lat="48.24533" lon="-4.07752">
        <ele>106.6</ele>
        <time>2020-06-08T13:34:54Z</time>
      </trkpt>
      <trkpt lat="48.24537" lon="-4.07757">
        <ele>106.6</ele>
        <time>2020-06-08T13:34:55Z</time>
      </trkpt>
      <trkpt lat="48.24542" lon="-4.07761">
        <ele>106.6</ele>
        <time>2020-06-08T13:34:56Z</time>
      </trkpt>
      <trkpt lat="48.24548" lon="-4.07764">
        <ele>106.6</ele>
        <time>2020-06-08T13:34:57Z</time>
      </trkpt>
      <trkpt lat="48.24552" lon="-4.07769">
        <ele>106.5</ele>
        <time>2020-06-08T13:34:58Z</time>
      </trkpt>
      <trkpt lat="48.24557" lon="-4.07773">
        <ele>106.5</ele>
        <time>2020-06-08T13:34:59Z</time>
      </trkpt>
      <trkpt lat="48.24562" lon="-4.07778">
        <ele>106.5</ele>
        <time>2020-06-08T13:35:00Z</time>
      </trkpt>
      <trkpt lat="48.24566" lon="-4.07783">
        <ele>106.5</ele>
        <time>2020-06-08T13:35:01Z</time>
      </trkpt>
      <trkpt lat="48.2457" lon="-4.07788">
        <ele>106.4</ele>
        <time>2020-06-08T13:35:02Z</time>
      </trkpt>
      <trkpt lat="48.24575" lon="-4.07793">
        <ele>106.3</ele>
        <time>2020-06-08T13:35:03Z</time>
      </trkpt>
      <trkpt lat="48.24579" lon="-4.07799">
        <ele>106.2</ele>
        <time>2020-06-08T13:35:04Z</time>
      </trkpt>
      <trkpt lat="48.24584" lon="-4.07806">
        <ele>106.1</ele>
        <time>2020-06-08T13:35:05Z</time>
      </trkpt>
      <trkpt lat="48.24588" lon="-4.07811">
        <ele>105.9</ele>
        <time>2020-06-08T13:35:06Z</time>
      </trkpt>
      <trkpt lat="48.24593" lon="-4.07817">
        <ele>105.8</ele>
        <time>2020-06-08T13:35:07Z</time>
      </trkpt>
      <trkpt lat="48.24597" lon="-4.07822">
        <ele>105.7</ele>
        <time>2020-06-08T13:35:08Z</time>
      </trkpt>
      <trkpt lat="48.24602" lon="-4.07827">
        <ele>105.5</ele>
        <time>2020-06-08T13:35:09Z</time>
      </trkpt>
      <trkpt lat="48.24605" lon="-4.07834">
        <ele>105.4</ele>
        <time>2020-06-08T13:35:10Z</time>
      </trkpt>
      <trkpt lat="48.24609" lon="-4.07841">
        <ele>105.2</ele>
        <time>2020-06-08T13:35:11Z</time>
      </trkpt>
      <trkpt lat="48.24613" lon="-4.07848">
        <ele>105.1</ele>
        <time>2020-06-08T13:35:12Z</time>
      </trkpt>
      <trkpt lat="48.24617" lon="-4.07855">
        <ele>104.9</ele>
        <time>2020-06-08T13:35:13Z</time>
      </trkpt>
      <trkpt lat="48.24621" lon="-4.07862">
        <ele>104.7</ele>
        <time>2020-06-08T13:35:14Z</time>
      </trkpt>
      <trkpt lat="48.24626" lon="-4.07869">
        <ele>104.5</ele>
        <time>2020-06-08T13:35:15Z</time>
      </trkpt>
      <trkpt lat="48.24631" lon="-4.07876">
        <ele>104.4</ele>
        <time>2020-06-08T13:35:16Z</time>
      </trkpt>
      <trkpt lat="48.24637" lon="-4.07883">
        <ele>104.2</ele>
        <time>2020-06-08T13:35:17Z</time>
      </trkpt>
      <trkpt lat="48.24643" lon="-4.07891">
        <ele>104.1</ele>
        <time>2020-06-08T13:35:18Z</time>
      </trkpt>
      <trkpt lat="48.24647" lon="-4.079">
        <ele>103.9</ele>
        <time>2020-06-08T13:35:19Z</time>
      </trkpt>
      <trkpt lat="48.24652" lon="-4.07908">
        <ele>103.6</ele>
        <time>2020-06-08T13:35:20Z</time>
      </trkpt>
      <trkpt lat="48.24658" lon="-4.07916">
        <ele>103.3</ele>
        <time>2020-06-08T13:35:21Z</time>
      </trkpt>
      <trkpt lat="48.24663" lon="-4.07924">
        <ele>103</ele>
        <time>2020-06-08T13:35:22Z</time>
      </trkpt>
      <trkpt lat="48.24668" lon="-4.07933">
        <ele>102.7</ele>
        <time>2020-06-08T13:35:23Z</time>
      </trkpt>
      <trkpt lat="48.24674" lon="-4.07942">
        <ele>102.4</ele>
        <time>2020-06-08T13:35:24Z</time>
      </trkpt>
      <trkpt lat="48.24679" lon="-4.0795">
        <ele>102.1</ele>
        <time>2020-06-08T13:35:25Z</time>
      </trkpt>
      <trkpt lat="48.24684" lon="-4.07958">
        <ele>101.8</ele>
        <time>2020-06-08T13:35:26Z</time>
      </trkpt>
      <trkpt lat="48.24689" lon="-4.07965">
        <ele>101.5</ele>
        <time>2020-06-08T13:35:27Z</time>
      </trkpt>
      <trkpt lat="48.24694" lon="-4.07973">
        <ele>101.2</ele>
        <time>2020-06-08T13:35:28Z</time>
      </trkpt>
      <trkpt lat="48.24699" lon="-4.07981">
        <ele>100.8</ele>
        <time>2020-06-08T13:35:29Z</time>
      </trkpt>
      <trkpt lat="48.24704" lon="-4.0799">
        <ele>100.5</ele>
        <time>2020-06-08T13:35:30Z</time>
      </trkpt>
      <trkpt lat="48.24709" lon="-4.07998">
        <ele>100.1</ele>
        <time>2020-06-08T13:35:31Z</time>
      </trkpt>
      <trkpt lat="48.24715" lon="-4.08007">
        <ele>99.7</ele>
        <time>2020-06-08T13:35:32Z</time>
      </trkpt>
      <trkpt lat="48.24721" lon="-4.08015">
        <ele>99.4</ele>
        <time>2020-06-08T13:35:33Z</time>
      </trkpt>
      <trkpt lat="48.24726" lon="-4.08024">
        <ele>99.2</ele>
        <time>2020-06-08T13:35:34Z</time>
      </trkpt>
      <trkpt lat="48.24731" lon="-4.08033">
        <ele>98.9</ele>
        <time>2020-06-08T13:35:35Z</time>
      </trkpt>
      <trkpt lat="48.24737" lon="-4.08042">
        <ele>98.7</ele>
        <time>2020-06-08T13:35:36Z</time>
      </trkpt>
      <trkpt lat="48.24742" lon="-4.08051">
        <ele>98.5</ele>
        <time>2020-06-08T13:35:37Z</time>
      </trkpt>
      <trkpt lat="48.24748" lon="-4.08059">
        <ele>98.3</ele>
        <time>2020-06-08T13:35:38Z</time>
      </trkpt>
      <trkpt lat="48.24754" lon="-4.08067">
        <ele>98.2</ele>
        <time>2020-06-08T13:35:39Z</time>
      </trkpt>
      <trkpt lat="48.24759" lon="-4.08076">
        <ele>98</ele>
        <time>2020-06-08T13:35:40Z</time>
      </trkpt>
      <trkpt lat="48.24765" lon="-4.08084">
        <ele>97.9</ele>
        <time>2020-06-08T13:35:41Z</time>
      </trkpt>
      <trkpt lat="48.2477" lon="-4.08092">
        <ele>97.9</ele>
        <time>2020-06-08T13:35:42Z</time>
      </trkpt>
      <trkpt lat="48.24776" lon="-4.08099">
        <ele>97.8</ele>
        <time>2020-06-08T13:35:43Z</time>
      </trkpt>
      <trkpt lat="48.24781" lon="-4.08107">
        <ele>97.7</ele>
        <time>2020-06-08T13:35:44Z</time>
      </trkpt>
      <trkpt lat="48.24786" lon="-4.08116">
        <ele>97.7</ele>
        <time>2020-06-08T13:35:45Z</time>
      </trkpt>
      <trkpt lat="48.24792" lon="-4.08123">
        <ele>97.7</ele>
        <time>2020-06-08T13:35:46Z</time>
      </trkpt>
      <trkpt lat="48.24797" lon="-4.08131">
        <ele>97.7</ele>
        <time>2020-06-08T13:35:47Z</time>
      </trkpt>
      <trkpt lat="48.24802" lon="-4.08137">
        <ele>97.7</ele>
        <time>2020-06-08T13:35:48Z</time>
      </trkpt>
      <trkpt lat="48.24807" lon="-4.08142">
        <ele>97.7</ele>
        <time>2020-06-08T13:35:49Z</time>
      </trkpt>
      <trkpt lat="48.24812" lon="-4.08148">
        <ele>97.8</ele>
        <time>2020-06-08T13:35:50Z</time>
      </trkpt>
      <trkpt lat="48.24816" lon="-4.08155">
        <ele>97.8</ele>
        <time>2020-06-08T13:35:51Z</time>
      </trkpt>
      <trkpt lat="48.2482" lon="-4.08161">
        <ele>97.9</ele>
        <time>2020-06-08T13:35:52Z</time>
      </trkpt>
      <trkpt lat="48.24823" lon="-4.08167">
        <ele>98</ele>
        <time>2020-06-08T13:35:53Z</time>
      </trkpt>
      <trkpt lat="48.24827" lon="-4.08174">
        <ele>98</ele>
        <time>2020-06-08T13:35:54Z</time>
      </trkpt>
      <trkpt lat="48.2483" lon="-4.0818">
        <ele>98.1</ele>
        <time>2020-06-08T13:35:55Z</time>
      </trkpt>
      <trkpt lat="48.24833" lon="-4.08185">
        <ele>98.2</ele>
        <time>2020-06-08T13:35:56Z</time>
      </trkpt>
      <trkpt lat="48.24836" lon="-4.08189">
        <ele>98.4</ele>
        <time>2020-06-08T13:35:57Z</time>
      </trkpt>
      <trkpt lat="48.24839" lon="-4.08191">
        <ele>98.4</ele>
        <time>2020-06-08T13:35:58Z</time>
      </trkpt>
      <trkpt lat="48.24843" lon="-4.08188">
        <ele>98.4</ele>
        <time>2020-06-08T13:35:59Z</time>
      </trkpt>
      <trkpt lat="48.24846" lon="-4.08184">
        <ele>98.4</ele>
        <time>2020-06-08T13:36:00Z</time>
      </trkpt>
      <trkpt lat="48.2485" lon="-4.0818">
        <ele>98.4</ele>
        <time>2020-06-08T13:36:01Z</time>
      </trkpt>
      <trkpt lat="48.24854" lon="-4.08175">
        <ele>98.3</ele>
        <time>2020-06-08T13:36:02Z</time>
      </trkpt>
      <trkpt lat="48.24859" lon="-4.0817">
        <ele>98.3</ele>
        <time>2020-06-08T13:36:03Z</time>
      </trkpt>
      <trkpt lat="48.24865" lon="-4.08166">
        <ele>98.3</ele>
        <time>2020-06-08T13:36:04Z</time>
      </trkpt>
      <trkpt lat="48.2487" lon="-4.08162">
        <ele>98.2</ele>
        <time>2020-06-08T13:36:05Z</time>
      </trkpt>
      <trkpt lat="48.24875" lon="-4.08157">
        <ele>98.2</ele>
        <time>2020-06-08T13:36:06Z</time>
      </trkpt>
      <trkpt lat="48.2488" lon="-4.08153">
        <ele>98.2</ele>
        <time>2020-06-08T13:36:07Z</time>
      </trkpt>
      <trkpt lat="48.24884" lon="-4.08149">
        <ele>98.2</ele>
        <time>2020-06-08T13:36:08Z</time>
      </trkpt>
      <trkpt lat="48.24889" lon="-4.08144">
        <ele>98.2</ele>
        <time>2020-06-08T13:36:09Z</time>
      </trkpt>
      <trkpt lat="48.24894" lon="-4.08142">
        <ele>98.2</ele>
        <time>2020-06-08T13:36:10Z</time>
      </trkpt>
      <trkpt lat="48.24898" lon="-4.08136">
        <ele>98.3</ele>
        <time>2020-06-08T13:36:11Z</time>
      </trkpt>
      <trkpt lat="48.24903" lon="-4.08132">
        <ele>98.3</ele>
        <time>2020-06-08T13:36:12Z</time>
      </trkpt>
      <trkpt lat="48.24907" lon="-4.08129">
        <ele>98.4</ele>
        <time>2020-06-08T13:36:13Z</time>
      </trkpt>
      <trkpt lat="48.24912" lon="-4.08126">
        <ele>98.4</ele>
        <time>2020-06-08T13:36:14Z</time>
      </trkpt>
      <trkpt lat="48.24916" lon="-4.08123">
        <ele>98.4</ele>
        <time>2020-06-08T13:36:15Z</time>
      </trkpt>
      <trkpt lat="48.24921" lon="-4.0812">
        <ele>98.4</ele>
        <time>2020-06-08T13:36:16Z</time>
      </trkpt>
      <trkpt lat="48.24925" lon="-4.08116">
        <ele>98.5</ele>
        <time>2020-06-08T13:36:17Z</time>
      </trkpt>
      <trkpt lat="48.24929" lon="-4.08112">
        <ele>98.5</ele>
        <time>2020-06-08T13:36:18Z</time>
      </trkpt>
      <trkpt lat="48.24933" lon="-4.08109">
        <ele>98.5</ele>
        <time>2020-06-08T13:36:19Z</time>
      </trkpt>
      <trkpt lat="48.24937" lon="-4.08105">
        <ele>98.5</ele>
        <time>2020-06-08T13:36:20Z</time>
      </trkpt>
      <trkpt lat="48.2494" lon="-4.08102">
        <ele>98.4</ele>
        <time>2020-06-08T13:36:21Z</time>
      </trkpt>
      <trkpt lat="48.24942" lon="-4.08099">
        <ele>98.4</ele>
        <time>2020-06-08T13:36:22Z</time>
      </trkpt>
      <trkpt lat="48.24946" lon="-4.08096">
        <ele>98.4</ele>
        <time>2020-06-08T13:36:23Z</time>
      </trkpt>
      <trkpt lat="48.24949" lon="-4.08094">
        <ele>98.4</ele>
        <time>2020-06-08T13:36:24Z</time>
      </trkpt>
      <trkpt lat="48.24953" lon="-4.08092">
        <ele>98.3</ele>
        <time>2020-06-08T13:36:25Z</time>
      </trkpt>
      <trkpt lat="48.24957" lon="-4.08091">
        <ele>98.3</ele>
        <time>2020-06-08T13:36:26Z</time>
      </trkpt>
      <trkpt lat="48.24961" lon="-4.0809">
        <ele>98.3</ele>
        <time>2020-06-08T13:36:27Z</time>
      </trkpt>
      <trkpt lat="48.24965" lon="-4.08089">
        <ele>98.2</ele>
        <time>2020-06-08T13:36:28Z</time>
      </trkpt>
      <trkpt lat="48.24969" lon="-4.08087">
        <ele>98.2</ele>
        <time>2020-06-08T13:36:29Z</time>
      </trkpt>
      <trkpt lat="48.24973" lon="-4.08084">
        <ele>98.1</ele>
        <time>2020-06-08T13:36:30Z</time>
      </trkpt>
      <trkpt lat="48.24978" lon="-4.08079">
        <ele>98.1</ele>
        <time>2020-06-08T13:36:31Z</time>
      </trkpt>
      <trkpt lat="48.24981" lon="-4.08073">
        <ele>98</ele>
        <time>2020-06-08T13:36:32Z</time>
      </trkpt>
      <trkpt lat="48.24986" lon="-4.0807">
        <ele>98</ele>
        <time>2020-06-08T13:36:33Z</time>
      </trkpt>
      <trkpt lat="48.24991" lon="-4.08066">
        <ele>97.9</ele>
        <time>2020-06-08T13:36:34Z</time>
      </trkpt>
      <trkpt lat="48.24995" lon="-4.08064">
        <ele>97.8</ele>
        <time>2020-06-08T13:36:35Z</time>
      </trkpt>
      <trkpt lat="48.24999" lon="-4.08061">
        <ele>97.8</ele>
        <time>2020-06-08T13:36:36Z</time>
      </trkpt>
      <trkpt lat="48.25003" lon="-4.08058">
        <ele>97.8</ele>
        <time>2020-06-08T13:36:37Z</time>
      </trkpt>
      <trkpt lat="48.25007" lon="-4.08055">
        <ele>97.8</ele>
        <time>2020-06-08T13:36:38Z</time>
      </trkpt>
      <trkpt lat="48.25013" lon="-4.08053">
        <ele>97.8</ele>
        <time>2020-06-08T13:36:39Z</time>
      </trkpt>
      <trkpt lat="48.25017" lon="-4.0805">
        <ele>97.8</ele>
        <time>2020-06-08T13:36:40Z</time>
      </trkpt>
      <trkpt lat="48.25022" lon="-4.08047">
        <ele>97.8</ele>
        <time>2020-06-08T13:36:41Z</time>
      </trkpt>
      <trkpt lat="48.25025" lon="-4.08045">
        <ele>97.8</ele>
        <time>2020-06-08T13:36:42Z</time>
      </trkpt>
      <trkpt lat="48.25026" lon="-4.08044">
        <ele>97.9</ele>
        <time>2020-06-08T13:36:43Z</time>
      </trkpt>
      <trkpt lat="48.25027" lon="-4.08044">
        <ele>97.9</ele>
        <time>2020-06-08T13:36:44Z</time>
      </trkpt>
      <trkpt lat="48.25027" lon="-4.08045">
        <ele>97.9</ele>
        <time>2020-06-08T13:36:45Z</time>
      </trkpt>
      <trkpt lat="48.25026" lon="-4.08047">
        <ele>97.9</ele>
        <time>2020-06-08T13:36:46Z</time>
      </trkpt>
      <trkpt lat="48.25023" lon="-4.08048">
        <ele>97.9</ele>
        <time>2020-06-08T13:36:47Z</time>
      </trkpt>
      <trkpt lat="48.25021" lon="-4.08052">
        <ele>97.9</ele>
        <time>2020-06-08T13:36:48Z</time>
      </trkpt>
      <trkpt lat="48.2502" lon="-4.08054">
        <ele>97.9</ele>
        <time>2020-06-08T13:36:49Z</time>
      </trkpt>
      <trkpt lat="48.25019" lon="-4.08059">
        <ele>97.9</ele>
        <time>2020-06-08T13:36:50Z</time>
      </trkpt>
      <trkpt lat="48.25018" lon="-4.08061">
        <ele>97.9</ele>
        <time>2020-06-08T13:36:51Z</time>
      </trkpt>
      <trkpt lat="48.25019" lon="-4.08066">
        <ele>97.9</ele>
        <time>2020-06-08T13:36:52Z</time>
      </trkpt>
      <trkpt lat="48.25019" lon="-4.0807">
        <ele>98</ele>
        <time>2020-06-08T13:36:53Z</time>
      </trkpt>
      <trkpt lat="48.25021" lon="-4.08074">
        <ele>98</ele>
        <time>2020-06-08T13:36:54Z</time>
      </trkpt>
      <trkpt lat="48.25022" lon="-4.08078">
        <ele>98</ele>
        <time>2020-06-08T13:36:55Z</time>
      </trkpt>
      <trkpt lat="48.25024" lon="-4.08083">
        <ele>98</ele>
        <time>2020-06-08T13:36:56Z</time>
      </trkpt>
      <trkpt lat="48.25025" lon="-4.08088">
        <ele>98</ele>
        <time>2020-06-08T13:36:57Z</time>
      </trkpt>
      <trkpt lat="48.25026" lon="-4.08094">
        <ele>98.1</ele>
        <time>2020-06-08T13:36:58Z</time>
      </trkpt>
      <trkpt lat="48.25027" lon="-4.08099">
        <ele>98.1</ele>
        <time>2020-06-08T13:36:59Z</time>
      </trkpt>
      <trkpt lat="48.25029" lon="-4.08103">
        <ele>98.1</ele>
        <time>2020-06-08T13:37:00Z</time>
      </trkpt>
      <trkpt lat="48.2503" lon="-4.08107">
        <ele>98.1</ele>
        <time>2020-06-08T13:37:01Z</time>
      </trkpt>
      <trkpt lat="48.25031" lon="-4.08111">
        <ele>98.2</ele>
        <time>2020-06-08T13:37:02Z</time>
      </trkpt>
      <trkpt lat="48.25032" lon="-4.08115">
        <ele>98.1</ele>
        <time>2020-06-08T13:37:03Z</time>
      </trkpt>
      <trkpt lat="48.25033" lon="-4.0812">
        <ele>98.1</ele>
        <time>2020-06-08T13:37:04Z</time>
      </trkpt>
      <trkpt lat="48.25034" lon="-4.08124">
        <ele>98.1</ele>
        <time>2020-06-08T13:37:05Z</time>
      </trkpt>
      <trkpt lat="48.25036" lon="-4.08128">
        <ele>98.1</ele>
        <time>2020-06-08T13:37:06Z</time>
      </trkpt>
      <trkpt lat="48.25037" lon="-4.08132">
        <ele>98</ele>
        <time>2020-06-08T13:37:07Z</time>
      </trkpt>
      <trkpt lat="48.25037" lon="-4.08137">
        <ele>98</ele>
        <time>2020-06-08T13:37:08Z</time>
      </trkpt>
      <trkpt lat="48.25038" lon="-4.08142">
        <ele>98</ele>
        <time>2020-06-08T13:37:09Z</time>
      </trkpt>
      <trkpt lat="48.25039" lon="-4.08146">
        <ele>98.1</ele>
        <time>2020-06-08T13:37:10Z</time>
      </trkpt>
      <trkpt lat="48.25039" lon="-4.08151">
        <ele>98.1</ele>
        <time>2020-06-08T13:37:11Z</time>
      </trkpt>
      <trkpt lat="48.2504" lon="-4.08156">
        <ele>98.2</ele>
        <time>2020-06-08T13:37:12Z</time>
      </trkpt>
      <trkpt lat="48.25041" lon="-4.0816">
        <ele>98.2</ele>
        <time>2020-06-08T13:37:13Z</time>
      </trkpt>
      <trkpt lat="48.25043" lon="-4.08165">
        <ele>98.3</ele>
        <time>2020-06-08T13:37:14Z</time>
      </trkpt>
      <trkpt lat="48.25043" lon="-4.0817">
        <ele>98.3</ele>
        <time>2020-06-08T13:37:15Z</time>
      </trkpt>
      <trkpt lat="48.25043" lon="-4.08174">
        <ele>98.4</ele>
        <time>2020-06-08T13:37:16Z</time>
      </trkpt>
      <trkpt lat="48.25044" lon="-4.08179">
        <ele>98.4</ele>
        <time>2020-06-08T13:37:17Z</time>
      </trkpt>
      <trkpt lat="48.25045" lon="-4.08184">
        <ele>98.5</ele>
        <time>2020-06-08T13:37:18Z</time>
      </trkpt>
      <trkpt lat="48.25047" lon="-4.08189">
        <ele>98.6</ele>
        <time>2020-06-08T13:37:19Z</time>
      </trkpt>
      <trkpt lat="48.25048" lon="-4.08194">
        <ele>98.7</ele>
        <time>2020-06-08T13:37:20Z</time>
      </trkpt>
      <trkpt lat="48.2505" lon="-4.08199">
        <ele>98.8</ele>
        <time>2020-06-08T13:37:21Z</time>
      </trkpt>
      <trkpt lat="48.25052" lon="-4.08203">
        <ele>98.8</ele>
        <time>2020-06-08T13:37:22Z</time>
      </trkpt>
      <trkpt lat="48.25053" lon="-4.08208">
        <ele>98.9</ele>
        <time>2020-06-08T13:37:23Z</time>
      </trkpt>
      <trkpt lat="48.25054" lon="-4.08213">
        <ele>98.9</ele>
        <time>2020-06-08T13:37:24Z</time>
      </trkpt>
      <trkpt lat="48.25056" lon="-4.08218">
        <ele>98.9</ele>
        <time>2020-06-08T13:37:25Z</time>
      </trkpt>
      <trkpt lat="48.25058" lon="-4.08223">
        <ele>99</ele>
        <time>2020-06-08T13:37:26Z</time>
      </trkpt>
      <trkpt lat="48.25059" lon="-4.08228">
        <ele>99</ele>
        <time>2020-06-08T13:37:27Z</time>
      </trkpt>
      <trkpt lat="48.25061" lon="-4.08233">
        <ele>99</ele>
        <time>2020-06-08T13:37:28Z</time>
      </trkpt>
      <trkpt lat="48.25063" lon="-4.08238">
        <ele>99.1</ele>
        <time>2020-06-08T13:37:29Z</time>
      </trkpt>
      <trkpt lat="48.25064" lon="-4.08243">
        <ele>99.1</ele>
        <time>2020-06-08T13:37:30Z</time>
      </trkpt>
      <trkpt lat="48.25066" lon="-4.08247">
        <ele>99.1</ele>
        <time>2020-06-08T13:37:31Z</time>
      </trkpt>
      <trkpt lat="48.25068" lon="-4.08251">
        <ele>99.1</ele>
        <time>2020-06-08T13:37:32Z</time>
      </trkpt>
      <trkpt lat="48.2507" lon="-4.08255">
        <ele>99.2</ele>
        <time>2020-06-08T13:37:33Z</time>
      </trkpt>
      <trkpt lat="48.25073" lon="-4.08259">
        <ele>99.2</ele>
        <time>2020-06-08T13:37:34Z</time>
      </trkpt>
      <trkpt lat="48.25075" lon="-4.08263">
        <ele>99.2</ele>
        <time>2020-06-08T13:37:35Z</time>
      </trkpt>
      <trkpt lat="48.25077" lon="-4.08268">
        <ele>99.1</ele>
        <time>2020-06-08T13:37:36Z</time>
      </trkpt>
      <trkpt lat="48.25079" lon="-4.08272">
        <ele>99.1</ele>
        <time>2020-06-08T13:37:37Z</time>
      </trkpt>
      <trkpt lat="48.25082" lon="-4.08275">
        <ele>99.1</ele>
        <time>2020-06-08T13:37:38Z</time>
      </trkpt>
      <trkpt lat="48.25084" lon="-4.0828">
        <ele>99.1</ele>
        <time>2020-06-08T13:37:39Z</time>
      </trkpt>
      <trkpt lat="48.25087" lon="-4.08284">
        <ele>99</ele>
        <time>2020-06-08T13:37:40Z</time>
      </trkpt>
      <trkpt lat="48.2509" lon="-4.08287">
        <ele>98.9</ele>
        <time>2020-06-08T13:37:41Z</time>
      </trkpt>
      <trkpt lat="48.25093" lon="-4.0829">
        <ele>98.8</ele>
        <time>2020-06-08T13:37:42Z</time>
      </trkpt>
      <trkpt lat="48.25097" lon="-4.08293">
        <ele>98.7</ele>
        <time>2020-06-08T13:37:43Z</time>
      </trkpt>
      <trkpt lat="48.251" lon="-4.08296">
        <ele>98.6</ele>
        <time>2020-06-08T13:37:44Z</time>
      </trkpt>
      <trkpt lat="48.25103" lon="-4.08299">
        <ele>98.5</ele>
        <time>2020-06-08T13:37:45Z</time>
      </trkpt>
      <trkpt lat="48.25106" lon="-4.08303">
        <ele>98.4</ele>
        <time>2020-06-08T13:37:46Z</time>
      </trkpt>
      <trkpt lat="48.25108" lon="-4.08307">
        <ele>98.3</ele>
        <time>2020-06-08T13:37:47Z</time>
      </trkpt>
      <trkpt lat="48.2511" lon="-4.08312">
        <ele>98.1</ele>
        <time>2020-06-08T13:37:48Z</time>
      </trkpt>
      <trkpt lat="48.25112" lon="-4.08317">
        <ele>97.9</ele>
        <time>2020-06-08T13:37:49Z</time>
      </trkpt>
      <trkpt lat="48.25114" lon="-4.08322">
        <ele>97.7</ele>
        <time>2020-06-08T13:37:50Z</time>
      </trkpt>
      <trkpt lat="48.25117" lon="-4.08326">
        <ele>97.4</ele>
        <time>2020-06-08T13:37:51Z</time>
      </trkpt>
      <trkpt lat="48.25118" lon="-4.08331">
        <ele>97.3</ele>
        <time>2020-06-08T13:37:52Z</time>
      </trkpt>
      <trkpt lat="48.2512" lon="-4.08336">
        <ele>97.1</ele>
        <time>2020-06-08T13:37:53Z</time>
      </trkpt>
      <trkpt lat="48.25123" lon="-4.0834">
        <ele>96.9</ele>
        <time>2020-06-08T13:37:54Z</time>
      </trkpt>
      <trkpt lat="48.25125" lon="-4.08345">
        <ele>96.8</ele>
        <time>2020-06-08T13:37:55Z</time>
      </trkpt>
      <trkpt lat="48.25128" lon="-4.08349">
        <ele>96.6</ele>
        <time>2020-06-08T13:37:56Z</time>
      </trkpt>
      <trkpt lat="48.2513" lon="-4.08353">
        <ele>96.4</ele>
        <time>2020-06-08T13:37:57Z</time>
      </trkpt>
      <trkpt lat="48.25133" lon="-4.08356">
        <ele>96.3</ele>
        <time>2020-06-08T13:37:58Z</time>
      </trkpt>
      <trkpt lat="48.25137" lon="-4.0836">
        <ele>96</ele>
        <time>2020-06-08T13:37:59Z</time>
      </trkpt>
      <trkpt lat="48.25141" lon="-4.08365">
        <ele>95.7</ele>
        <time>2020-06-08T13:38:00Z</time>
      </trkpt>
      <trkpt lat="48.25144" lon="-4.08371">
        <ele>95.5</ele>
        <time>2020-06-08T13:38:01Z</time>
      </trkpt>
      <trkpt lat="48.25148" lon="-4.08376">
        <ele>95.2</ele>
        <time>2020-06-08T13:38:02Z</time>
      </trkpt>
      <trkpt lat="48.25152" lon="-4.0838">
        <ele>94.8</ele>
        <time>2020-06-08T13:38:03Z</time>
      </trkpt>
      <trkpt lat="48.25157" lon="-4.08386">
        <ele>94.5</ele>
        <time>2020-06-08T13:38:04Z</time>
      </trkpt>
      <trkpt lat="48.25162" lon="-4.08392">
        <ele>94.3</ele>
        <time>2020-06-08T13:38:05Z</time>
      </trkpt>
      <trkpt lat="48.25167" lon="-4.08397">
        <ele>94</ele>
        <time>2020-06-08T13:38:06Z</time>
      </trkpt>
      <trkpt lat="48.25173" lon="-4.08403">
        <ele>93.7</ele>
        <time>2020-06-08T13:38:07Z</time>
      </trkpt>
      <trkpt lat="48.25179" lon="-4.08409">
        <ele>93.5</ele>
        <time>2020-06-08T13:38:08Z</time>
      </trkpt>
      <trkpt lat="48.25186" lon="-4.08415">
        <ele>93.2</ele>
        <time>2020-06-08T13:38:09Z</time>
      </trkpt>
      <trkpt lat="48.25193" lon="-4.0842">
        <ele>92.9</ele>
        <time>2020-06-08T13:38:10Z</time>
      </trkpt>
      <trkpt lat="48.252" lon="-4.08425">
        <ele>92.6</ele>
        <time>2020-06-08T13:38:11Z</time>
      </trkpt>
      <trkpt lat="48.25206" lon="-4.08429">
        <ele>91.8</ele>
        <time>2020-06-08T13:38:12Z</time>
      </trkpt>
      <trkpt lat="48.25213" lon="-4.08434">
        <ele>91</ele>
        <time>2020-06-08T13:38:13Z</time>
      </trkpt>
      <trkpt lat="48.25219" lon="-4.08438">
        <ele>90.2</ele>
        <time>2020-06-08T13:38:14Z</time>
      </trkpt>
      <trkpt lat="48.25225" lon="-4.08442">
        <ele>89.5</ele>
        <time>2020-06-08T13:38:15Z</time>
      </trkpt>
      <trkpt lat="48.2523" lon="-4.08445">
        <ele>88.8</ele>
        <time>2020-06-08T13:38:16Z</time>
      </trkpt>
      <trkpt lat="48.25235" lon="-4.0845">
        <ele>88.1</ele>
        <time>2020-06-08T13:38:17Z</time>
      </trkpt>
      <trkpt lat="48.25239" lon="-4.08456">
        <ele>87.3</ele>
        <time>2020-06-08T13:38:18Z</time>
      </trkpt>
      <trkpt lat="48.2524" lon="-4.08465">
        <ele>86.3</ele>
        <time>2020-06-08T13:38:19Z</time>
      </trkpt>
      <trkpt lat="48.25238" lon="-4.08474">
        <ele>86.2</ele>
        <time>2020-06-08T13:38:20Z</time>
      </trkpt>
      <trkpt lat="48.25237" lon="-4.08483">
        <ele>86.2</ele>
        <time>2020-06-08T13:38:21Z</time>
      </trkpt>
      <trkpt lat="48.25236" lon="-4.08491">
        <ele>86.1</ele>
        <time>2020-06-08T13:38:22Z</time>
      </trkpt>
      <trkpt lat="48.25236" lon="-4.08498">
        <ele>86.1</ele>
        <time>2020-06-08T13:38:23Z</time>
      </trkpt>
      <trkpt lat="48.25239" lon="-4.08501">
        <ele>85.5</ele>
        <time>2020-06-08T13:38:24Z</time>
      </trkpt>
      <trkpt lat="48.2524" lon="-4.08501">
        <ele>85.4</ele>
        <time>2020-06-08T13:38:25Z</time>
      </trkpt>
      <trkpt lat="48.25242" lon="-4.08501">
        <ele>85</ele>
        <time>2020-06-08T13:38:26Z</time>
      </trkpt>
      <trkpt lat="48.25246" lon="-4.08499">
        <ele>84.5</ele>
        <time>2020-06-08T13:38:27Z</time>
      </trkpt>
      <trkpt lat="48.25251" lon="-4.08498">
        <ele>83.8</ele>
        <time>2020-06-08T13:38:28Z</time>
      </trkpt>
      <trkpt lat="48.25256" lon="-4.08494">
        <ele>83.1</ele>
        <time>2020-06-08T13:38:29Z</time>
      </trkpt>
      <trkpt lat="48.2526" lon="-4.0849">
        <ele>82.5</ele>
        <time>2020-06-08T13:38:30Z</time>
      </trkpt>
      <trkpt lat="48.25266" lon="-4.08488">
        <ele>81.8</ele>
        <time>2020-06-08T13:38:31Z</time>
      </trkpt>
      <trkpt lat="48.25271" lon="-4.08485">
        <ele>81.1</ele>
        <time>2020-06-08T13:38:32Z</time>
      </trkpt>
      <trkpt lat="48.25276" lon="-4.08482">
        <ele>80.4</ele>
        <time>2020-06-08T13:38:33Z</time>
      </trkpt>
      <trkpt lat="48.25283" lon="-4.08481">
        <ele>79.6</ele>
        <time>2020-06-08T13:38:34Z</time>
      </trkpt>
      <trkpt lat="48.25289" lon="-4.0848">
        <ele>78.7</ele>
        <time>2020-06-08T13:38:35Z</time>
      </trkpt>
      <trkpt lat="48.25296" lon="-4.08482">
        <ele>78.5</ele>
        <time>2020-06-08T13:38:36Z</time>
      </trkpt>
      <trkpt lat="48.25303" lon="-4.08484">
        <ele>78.2</ele>
        <time>2020-06-08T13:38:37Z</time>
      </trkpt>
      <trkpt lat="48.2531" lon="-4.08488">
        <ele>78</ele>
        <time>2020-06-08T13:38:38Z</time>
      </trkpt>
      <trkpt lat="48.25316" lon="-4.08491">
        <ele>77.7</ele>
        <time>2020-06-08T13:38:39Z</time>
      </trkpt>
      <trkpt lat="48.25321" lon="-4.08493">
        <ele>77.5</ele>
        <time>2020-06-08T13:38:40Z</time>
      </trkpt>
      <trkpt lat="48.25325" lon="-4.08495">
        <ele>77.1</ele>
        <time>2020-06-08T13:38:41Z</time>
      </trkpt>
      <trkpt lat="48.25329" lon="-4.08496">
        <ele>77</ele>
        <time>2020-06-08T13:38:42Z</time>
      </trkpt>
      <trkpt lat="48.25332" lon="-4.08496">
        <ele>76.9</ele>
        <time>2020-06-08T13:38:43Z</time>
      </trkpt>
      <trkpt lat="48.25333" lon="-4.0849">
        <ele>76.7</ele>
        <time>2020-06-08T13:38:44Z</time>
      </trkpt>
      <trkpt lat="48.25334" lon="-4.08483">
        <ele>76.5</ele>
        <time>2020-06-08T13:38:45Z</time>
      </trkpt>
      <trkpt lat="48.25337" lon="-4.08478">
        <ele>76.4</ele>
        <time>2020-06-08T13:38:46Z</time>
      </trkpt>
      <trkpt lat="48.25341" lon="-4.08473">
        <ele>76.2</ele>
        <time>2020-06-08T13:38:47Z</time>
      </trkpt>
      <trkpt lat="48.25345" lon="-4.08468">
        <ele>75.9</ele>
        <time>2020-06-08T13:38:48Z</time>
      </trkpt>
      <trkpt lat="48.25349" lon="-4.08463">
        <ele>75.7</ele>
        <time>2020-06-08T13:38:49Z</time>
      </trkpt>
      <trkpt lat="48.25355" lon="-4.0846">
        <ele>75.5</ele>
        <time>2020-06-08T13:38:50Z</time>
      </trkpt>
      <trkpt lat="48.2536" lon="-4.08457">
        <ele>75.3</ele>
        <time>2020-06-08T13:38:51Z</time>
      </trkpt>
      <trkpt lat="48.25366" lon="-4.08454">
        <ele>75.1</ele>
        <time>2020-06-08T13:38:52Z</time>
      </trkpt>
      <trkpt lat="48.25371" lon="-4.08453">
        <ele>74.8</ele>
        <time>2020-06-08T13:38:53Z</time>
      </trkpt>
      <trkpt lat="48.25377" lon="-4.08452">
        <ele>74.6</ele>
        <time>2020-06-08T13:38:54Z</time>
      </trkpt>
      <trkpt lat="48.25384" lon="-4.08452">
        <ele>74.3</ele>
        <time>2020-06-08T13:38:55Z</time>
      </trkpt>
      <trkpt lat="48.2539" lon="-4.08452">
        <ele>73.8</ele>
        <time>2020-06-08T13:38:56Z</time>
      </trkpt>
      <trkpt lat="48.25396" lon="-4.08455">
        <ele>73.5</ele>
        <time>2020-06-08T13:38:57Z</time>
      </trkpt>
      <trkpt lat="48.25403" lon="-4.0846">
        <ele>73.1</ele>
        <time>2020-06-08T13:38:58Z</time>
      </trkpt>
      <trkpt lat="48.25408" lon="-4.08467">
        <ele>72.7</ele>
        <time>2020-06-08T13:38:59Z</time>
      </trkpt>
      <trkpt lat="48.25414" lon="-4.08473">
        <ele>72.3</ele>
        <time>2020-06-08T13:39:00Z</time>
      </trkpt>
      <trkpt lat="48.2542" lon="-4.0848">
        <ele>72</ele>
        <time>2020-06-08T13:39:01Z</time>
      </trkpt>
      <trkpt lat="48.25423" lon="-4.08489">
        <ele>71.7</ele>
        <time>2020-06-08T13:39:02Z</time>
      </trkpt>
      <trkpt lat="48.25427" lon="-4.08498">
        <ele>71.4</ele>
        <time>2020-06-08T13:39:03Z</time>
      </trkpt>
      <trkpt lat="48.25431" lon="-4.08508">
        <ele>71.2</ele>
        <time>2020-06-08T13:39:04Z</time>
      </trkpt>
      <trkpt lat="48.25435" lon="-4.08518">
        <ele>70.7</ele>
        <time>2020-06-08T13:39:05Z</time>
      </trkpt>
      <trkpt lat="48.25439" lon="-4.08529">
        <ele>70.4</ele>
        <time>2020-06-08T13:39:06Z</time>
      </trkpt>
      <trkpt lat="48.25444" lon="-4.08539">
        <ele>70.1</ele>
        <time>2020-06-08T13:39:07Z</time>
      </trkpt>
      <trkpt lat="48.25447" lon="-4.08549">
        <ele>69.8</ele>
        <time>2020-06-08T13:39:08Z</time>
      </trkpt>
      <trkpt lat="48.2545" lon="-4.08558">
        <ele>69.6</ele>
        <time>2020-06-08T13:39:09Z</time>
      </trkpt>
      <trkpt lat="48.25452" lon="-4.08566">
        <ele>69.5</ele>
        <time>2020-06-08T13:39:10Z</time>
      </trkpt>
      <trkpt lat="48.25454" lon="-4.08574">
        <ele>69.4</ele>
        <time>2020-06-08T13:39:11Z</time>
      </trkpt>
      <trkpt lat="48.25457" lon="-4.08581">
        <ele>69.3</ele>
        <time>2020-06-08T13:39:12Z</time>
      </trkpt>
      <trkpt lat="48.25458" lon="-4.08588">
        <ele>69.2</ele>
        <time>2020-06-08T13:39:13Z</time>
      </trkpt>
      <trkpt lat="48.25461" lon="-4.08594">
        <ele>69.1</ele>
        <time>2020-06-08T13:39:14Z</time>
      </trkpt>
      <trkpt lat="48.25463" lon="-4.086">
        <ele>69</ele>
        <time>2020-06-08T13:39:15Z</time>
      </trkpt>
      <trkpt lat="48.25466" lon="-4.08605">
        <ele>68.8</ele>
        <time>2020-06-08T13:39:16Z</time>
      </trkpt>
      <trkpt lat="48.25467" lon="-4.0861">
        <ele>68.7</ele>
        <time>2020-06-08T13:39:17Z</time>
      </trkpt>
      <trkpt lat="48.25464" lon="-4.08615">
        <ele>68.6</ele>
        <time>2020-06-08T13:39:18Z</time>
      </trkpt>
      <trkpt lat="48.2546" lon="-4.08617">
        <ele>68.5</ele>
        <time>2020-06-08T13:39:19Z</time>
      </trkpt>
      <trkpt lat="48.25456" lon="-4.0862">
        <ele>68.2</ele>
        <time>2020-06-08T13:39:20Z</time>
      </trkpt>
      <trkpt lat="48.25453" lon="-4.08624">
        <ele>68.1</ele>
        <time>2020-06-08T13:39:21Z</time>
      </trkpt>
      <trkpt lat="48.2545" lon="-4.08629">
        <ele>68</ele>
        <time>2020-06-08T13:39:22Z</time>
      </trkpt>
      <trkpt lat="48.25447" lon="-4.08634">
        <ele>68</ele>
        <time>2020-06-08T13:39:23Z</time>
      </trkpt>
      <trkpt lat="48.25445" lon="-4.08639">
        <ele>67.9</ele>
        <time>2020-06-08T13:39:24Z</time>
      </trkpt>
      <trkpt lat="48.25442" lon="-4.08644">
        <ele>67.8</ele>
        <time>2020-06-08T13:39:25Z</time>
      </trkpt>
      <trkpt lat="48.25439" lon="-4.08648">
        <ele>67.8</ele>
        <time>2020-06-08T13:39:26Z</time>
      </trkpt>
      <trkpt lat="48.25436" lon="-4.08653">
        <ele>67.7</ele>
        <time>2020-06-08T13:39:27Z</time>
      </trkpt>
      <trkpt lat="48.25434" lon="-4.08659">
        <ele>67.7</ele>
        <time>2020-06-08T13:39:28Z</time>
      </trkpt>
      <trkpt lat="48.2543" lon="-4.08663">
        <ele>67.6</ele>
        <time>2020-06-08T13:39:29Z</time>
      </trkpt>
      <trkpt lat="48.25428" lon="-4.08668">
        <ele>67.5</ele>
        <time>2020-06-08T13:39:30Z</time>
      </trkpt>
      <trkpt lat="48.25426" lon="-4.08675">
        <ele>67.4</ele>
        <time>2020-06-08T13:39:31Z</time>
      </trkpt>
      <trkpt lat="48.25424" lon="-4.08681">
        <ele>67.3</ele>
        <time>2020-06-08T13:39:32Z</time>
      </trkpt>
      <trkpt lat="48.25422" lon="-4.08687">
        <ele>67.3</ele>
        <time>2020-06-08T13:39:33Z</time>
      </trkpt>
      <trkpt lat="48.2542" lon="-4.08694">
        <ele>67.3</ele>
        <time>2020-06-08T13:39:34Z</time>
      </trkpt>
      <trkpt lat="48.25417" lon="-4.08701">
        <ele>67.3</ele>
        <time>2020-06-08T13:39:35Z</time>
      </trkpt>
      <trkpt lat="48.25414" lon="-4.08707">
        <ele>67.3</ele>
        <time>2020-06-08T13:39:36Z</time>
      </trkpt>
      <trkpt lat="48.2541" lon="-4.08712">
        <ele>67.3</ele>
        <time>2020-06-08T13:39:37Z</time>
      </trkpt>
      <trkpt lat="48.25408" lon="-4.08718">
        <ele>67.3</ele>
        <time>2020-06-08T13:39:38Z</time>
      </trkpt>
      <trkpt lat="48.25405" lon="-4.08724">
        <ele>67.4</ele>
        <time>2020-06-08T13:39:39Z</time>
      </trkpt>
      <trkpt lat="48.25403" lon="-4.08729">
        <ele>67.4</ele>
        <time>2020-06-08T13:39:40Z</time>
      </trkpt>
      <trkpt lat="48.25401" lon="-4.08734">
        <ele>67.5</ele>
        <time>2020-06-08T13:39:41Z</time>
      </trkpt>
      <trkpt lat="48.254" lon="-4.08739">
        <ele>67.5</ele>
        <time>2020-06-08T13:39:42Z</time>
      </trkpt>
      <trkpt lat="48.25398" lon="-4.08744">
        <ele>67.6</ele>
        <time>2020-06-08T13:39:43Z</time>
      </trkpt>
      <trkpt lat="48.25396" lon="-4.08749">
        <ele>67.6</ele>
        <time>2020-06-08T13:39:44Z</time>
      </trkpt>
      <trkpt lat="48.25394" lon="-4.08754">
        <ele>67.7</ele>
        <time>2020-06-08T13:39:45Z</time>
      </trkpt>
      <trkpt lat="48.25392" lon="-4.0876">
        <ele>67.8</ele>
        <time>2020-06-08T13:39:46Z</time>
      </trkpt>
      <trkpt lat="48.25391" lon="-4.08766">
        <ele>67.8</ele>
        <time>2020-06-08T13:39:47Z</time>
      </trkpt>
      <trkpt lat="48.25388" lon="-4.08771">
        <ele>67.9</ele>
        <time>2020-06-08T13:39:48Z</time>
      </trkpt>
      <trkpt lat="48.25386" lon="-4.08776">
        <ele>67.9</ele>
        <time>2020-06-08T13:39:49Z</time>
      </trkpt>
      <trkpt lat="48.25384" lon="-4.0878">
        <ele>68</ele>
        <time>2020-06-08T13:39:50Z</time>
      </trkpt>
      <trkpt lat="48.25382" lon="-4.08785">
        <ele>68</ele>
        <time>2020-06-08T13:39:51Z</time>
      </trkpt>
      <trkpt lat="48.25382" lon="-4.08789">
        <ele>68</ele>
        <time>2020-06-08T13:39:52Z</time>
      </trkpt>
      <trkpt lat="48.25381" lon="-4.08795">
        <ele>68.1</ele>
        <time>2020-06-08T13:39:53Z</time>
      </trkpt>
      <trkpt lat="48.25381" lon="-4.08797">
        <ele>68.1</ele>
        <time>2020-06-08T13:39:54Z</time>
      </trkpt>
      <trkpt lat="48.2538" lon="-4.08803">
        <ele>68.2</ele>
        <time>2020-06-08T13:39:55Z</time>
      </trkpt>
      <trkpt lat="48.25381" lon="-4.08808">
        <ele>68.1</ele>
        <time>2020-06-08T13:39:56Z</time>
      </trkpt>
      <trkpt lat="48.25383" lon="-4.08814">
        <ele>68</ele>
        <time>2020-06-08T13:39:57Z</time>
      </trkpt>
      <trkpt lat="48.25385" lon="-4.0882">
        <ele>67.8</ele>
        <time>2020-06-08T13:39:58Z</time>
      </trkpt>
      <trkpt lat="48.25388" lon="-4.08826">
        <ele>67.6</ele>
        <time>2020-06-08T13:39:59Z</time>
      </trkpt>
      <trkpt lat="48.2539" lon="-4.08834">
        <ele>67.3</ele>
        <time>2020-06-08T13:40:00Z</time>
      </trkpt>
      <trkpt lat="48.25392" lon="-4.08843">
        <ele>66.9</ele>
        <time>2020-06-08T13:40:01Z</time>
      </trkpt>
      <trkpt lat="48.25394" lon="-4.08853">
        <ele>66.5</ele>
        <time>2020-06-08T13:40:02Z</time>
      </trkpt>
      <trkpt lat="48.25395" lon="-4.08865">
        <ele>66</ele>
        <time>2020-06-08T13:40:03Z</time>
      </trkpt>
      <trkpt lat="48.25398" lon="-4.08876">
        <ele>65.2</ele>
        <time>2020-06-08T13:40:04Z</time>
      </trkpt>
      <trkpt lat="48.254" lon="-4.08888">
        <ele>64.5</ele>
        <time>2020-06-08T13:40:05Z</time>
      </trkpt>
      <trkpt lat="48.25403" lon="-4.08899">
        <ele>63.8</ele>
        <time>2020-06-08T13:40:06Z</time>
      </trkpt>
      <trkpt lat="48.25406" lon="-4.08912">
        <ele>63.1</ele>
        <time>2020-06-08T13:40:07Z</time>
      </trkpt>
      <trkpt lat="48.25409" lon="-4.08925">
        <ele>63.8</ele>
        <time>2020-06-08T13:40:08Z</time>
      </trkpt>
      <trkpt lat="48.25411" lon="-4.08937">
        <ele>62.5</ele>
        <time>2020-06-08T13:40:09Z</time>
      </trkpt>
      <trkpt lat="48.25413" lon="-4.0895">
        <ele>61.2</ele>
        <time>2020-06-08T13:40:10Z</time>
      </trkpt>
      <trkpt lat="48.25416" lon="-4.08963">
        <ele>59.8</ele>
        <time>2020-06-08T13:40:11Z</time>
      </trkpt>
      <trkpt lat="48.25418" lon="-4.08977">
        <ele>58.4</ele>
        <time>2020-06-08T13:40:12Z</time>
      </trkpt>
      <trkpt lat="48.2542" lon="-4.08991">
        <ele>56.9</ele>
        <time>2020-06-08T13:40:13Z</time>
      </trkpt>
      <trkpt lat="48.25422" lon="-4.09005">
        <ele>55.7</ele>
        <time>2020-06-08T13:40:14Z</time>
      </trkpt>
      <trkpt lat="48.25425" lon="-4.09018">
        <ele>54.4</ele>
        <time>2020-06-08T13:40:15Z</time>
      </trkpt>
      <trkpt lat="48.25428" lon="-4.09031">
        <ele>53.2</ele>
        <time>2020-06-08T13:40:16Z</time>
      </trkpt>
      <trkpt lat="48.2543" lon="-4.09044">
        <ele>52.1</ele>
        <time>2020-06-08T13:40:17Z</time>
      </trkpt>
      <trkpt lat="48.25433" lon="-4.09056">
        <ele>51.1</ele>
        <time>2020-06-08T13:40:18Z</time>
      </trkpt>
      <trkpt lat="48.25435" lon="-4.09067">
        <ele>50</ele>
        <time>2020-06-08T13:40:19Z</time>
      </trkpt>
      <trkpt lat="48.25435" lon="-4.09078">
        <ele>49.1</ele>
        <time>2020-06-08T13:40:20Z</time>
      </trkpt>
      <trkpt lat="48.25435" lon="-4.09087">
        <ele>48.2</ele>
        <time>2020-06-08T13:40:21Z</time>
      </trkpt>
      <trkpt lat="48.25433" lon="-4.09098">
        <ele>47.2</ele>
        <time>2020-06-08T13:40:22Z</time>
      </trkpt>
      <trkpt lat="48.2543" lon="-4.09108">
        <ele>46.1</ele>
        <time>2020-06-08T13:40:23Z</time>
      </trkpt>
      <trkpt lat="48.25427" lon="-4.09119">
        <ele>45</ele>
        <time>2020-06-08T13:40:24Z</time>
      </trkpt>
      <trkpt lat="48.25424" lon="-4.0913">
        <ele>43.9</ele>
        <time>2020-06-08T13:40:25Z</time>
      </trkpt>
      <trkpt lat="48.25422" lon="-4.09142">
        <ele>43</ele>
        <time>2020-06-08T13:40:26Z</time>
      </trkpt>
      <trkpt lat="48.25419" lon="-4.09152">
        <ele>42.1</ele>
        <time>2020-06-08T13:40:27Z</time>
      </trkpt>
      <trkpt lat="48.25417" lon="-4.09162">
        <ele>41.4</ele>
        <time>2020-06-08T13:40:28Z</time>
      </trkpt>
      <trkpt lat="48.25415" lon="-4.0917">
        <ele>40.7</ele>
        <time>2020-06-08T13:40:29Z</time>
      </trkpt>
      <trkpt lat="48.25414" lon="-4.09178">
        <ele>40.2</ele>
        <time>2020-06-08T13:40:30Z</time>
      </trkpt>
      <trkpt lat="48.25413" lon="-4.09186">
        <ele>39.6</ele>
        <time>2020-06-08T13:40:31Z</time>
      </trkpt>
      <trkpt lat="48.25412" lon="-4.09193">
        <ele>39.1</ele>
        <time>2020-06-08T13:40:32Z</time>
      </trkpt>
      <trkpt lat="48.25414" lon="-4.092">
        <ele>38.6</ele>
        <time>2020-06-08T13:40:33Z</time>
      </trkpt>
      <trkpt lat="48.25418" lon="-4.09202">
        <ele>38</ele>
        <time>2020-06-08T13:40:34Z</time>
      </trkpt>
      <trkpt lat="48.25423" lon="-4.09203">
        <ele>37.3</ele>
        <time>2020-06-08T13:40:35Z</time>
      </trkpt>
      <trkpt lat="48.25428" lon="-4.09202">
        <ele>35.8</ele>
        <time>2020-06-08T13:40:36Z</time>
      </trkpt>
      <trkpt lat="48.25433" lon="-4.09198">
        <ele>35.1</ele>
        <time>2020-06-08T13:40:37Z</time>
      </trkpt>
      <trkpt lat="48.25438" lon="-4.09192">
        <ele>34.4</ele>
        <time>2020-06-08T13:40:38Z</time>
      </trkpt>
      <trkpt lat="48.25444" lon="-4.09189">
        <ele>33.7</ele>
        <time>2020-06-08T13:40:39Z</time>
      </trkpt>
      <trkpt lat="48.2545" lon="-4.09185">
        <ele>33.1</ele>
        <time>2020-06-08T13:40:40Z</time>
      </trkpt>
      <trkpt lat="48.25457" lon="-4.09184">
        <ele>32.6</ele>
        <time>2020-06-08T13:40:41Z</time>
      </trkpt>
      <trkpt lat="48.25463" lon="-4.09182">
        <ele>32</ele>
        <time>2020-06-08T13:40:42Z</time>
      </trkpt>
      <trkpt lat="48.25469" lon="-4.09177">
        <ele>31.5</ele>
        <time>2020-06-08T13:40:43Z</time>
      </trkpt>
      <trkpt lat="48.25476" lon="-4.09172">
        <ele>31</ele>
        <time>2020-06-08T13:40:44Z</time>
      </trkpt>
      <trkpt lat="48.25481" lon="-4.09168">
        <ele>30.4</ele>
        <time>2020-06-08T13:40:45Z</time>
      </trkpt>
      <trkpt lat="48.25487" lon="-4.09163">
        <ele>29.8</ele>
        <time>2020-06-08T13:40:46Z</time>
      </trkpt>
      <trkpt lat="48.25493" lon="-4.09159">
        <ele>29.1</ele>
        <time>2020-06-08T13:40:47Z</time>
      </trkpt>
      <trkpt lat="48.25498" lon="-4.09157">
        <ele>28.4</ele>
        <time>2020-06-08T13:40:48Z</time>
      </trkpt>
      <trkpt lat="48.25503" lon="-4.09155">
        <ele>27.9</ele>
        <time>2020-06-08T13:40:49Z</time>
      </trkpt>
      <trkpt lat="48.25508" lon="-4.09153">
        <ele>27.5</ele>
        <time>2020-06-08T13:40:50Z</time>
      </trkpt>
      <trkpt lat="48.25513" lon="-4.0915">
        <ele>26.9</ele>
        <time>2020-06-08T13:40:51Z</time>
      </trkpt>
      <trkpt lat="48.25518" lon="-4.09147">
        <ele>26.4</ele>
        <time>2020-06-08T13:40:52Z</time>
      </trkpt>
      <trkpt lat="48.25522" lon="-4.09144">
        <ele>25.8</ele>
        <time>2020-06-08T13:40:53Z</time>
      </trkpt>
      <trkpt lat="48.25527" lon="-4.0914">
        <ele>25.3</ele>
        <time>2020-06-08T13:40:54Z</time>
      </trkpt>
      <trkpt lat="48.25533" lon="-4.09136">
        <ele>24.6</ele>
        <time>2020-06-08T13:40:55Z</time>
      </trkpt>
      <trkpt lat="48.25539" lon="-4.09132">
        <ele>24.1</ele>
        <time>2020-06-08T13:40:56Z</time>
      </trkpt>
      <trkpt lat="48.25544" lon="-4.09129">
        <ele>23.6</ele>
        <time>2020-06-08T13:40:57Z</time>
      </trkpt>
      <trkpt lat="48.2555" lon="-4.09126">
        <ele>23.1</ele>
        <time>2020-06-08T13:40:58Z</time>
      </trkpt>
      <trkpt lat="48.25556" lon="-4.09124">
        <ele>22.7</ele>
        <time>2020-06-08T13:40:59Z</time>
      </trkpt>
      <trkpt lat="48.25561" lon="-4.0912">
        <ele>22.3</ele>
        <time>2020-06-08T13:41:00Z</time>
      </trkpt>
      <trkpt lat="48.25565" lon="-4.09113">
        <ele>21.9</ele>
        <time>2020-06-08T13:41:01Z</time>
      </trkpt>
      <trkpt lat="48.25569" lon="-4.09105">
        <ele>21.3</ele>
        <time>2020-06-08T13:41:02Z</time>
      </trkpt>
      <trkpt lat="48.25571" lon="-4.09096">
        <ele>20.9</ele>
        <time>2020-06-08T13:41:03Z</time>
      </trkpt>
      <trkpt lat="48.25574" lon="-4.09087">
        <ele>20.4</ele>
        <time>2020-06-08T13:41:04Z</time>
      </trkpt>
      <trkpt lat="48.25578" lon="-4.09078">
        <ele>20</ele>
        <time>2020-06-08T13:41:05Z</time>
      </trkpt>
      <trkpt lat="48.25581" lon="-4.09069">
        <ele>19.6</ele>
        <time>2020-06-08T13:41:06Z</time>
      </trkpt>
      <trkpt lat="48.25584" lon="-4.09059">
        <ele>19.2</ele>
        <time>2020-06-08T13:41:07Z</time>
      </trkpt>
      <trkpt lat="48.25587" lon="-4.09049">
        <ele>18.8</ele>
        <time>2020-06-08T13:41:08Z</time>
      </trkpt>
      <trkpt lat="48.25589" lon="-4.0904">
        <ele>18.4</ele>
        <time>2020-06-08T13:41:09Z</time>
      </trkpt>
      <trkpt lat="48.25592" lon="-4.0903">
        <ele>17.9</ele>
        <time>2020-06-08T13:41:10Z</time>
      </trkpt>
      <trkpt lat="48.25595" lon="-4.09022">
        <ele>17.5</ele>
        <time>2020-06-08T13:41:11Z</time>
      </trkpt>
      <trkpt lat="48.25597" lon="-4.09013">
        <ele>17</ele>
        <time>2020-06-08T13:41:12Z</time>
      </trkpt>
      <trkpt lat="48.25599" lon="-4.09004">
        <ele>16.5</ele>
        <time>2020-06-08T13:41:13Z</time>
      </trkpt>
      <trkpt lat="48.25601" lon="-4.08996">
        <ele>16.1</ele>
        <time>2020-06-08T13:41:14Z</time>
      </trkpt>
      <trkpt lat="48.25603" lon="-4.08987">
        <ele>15.6</ele>
        <time>2020-06-08T13:41:15Z</time>
      </trkpt>
      <trkpt lat="48.25605" lon="-4.0898">
        <ele>15.1</ele>
        <time>2020-06-08T13:41:16Z</time>
      </trkpt>
      <trkpt lat="48.25608" lon="-4.08972">
        <ele>14.7</ele>
        <time>2020-06-08T13:41:17Z</time>
      </trkpt>
      <trkpt lat="48.25609" lon="-4.08965">
        <ele>14.4</ele>
        <time>2020-06-08T13:41:18Z</time>
      </trkpt>
      <trkpt lat="48.25611" lon="-4.08958">
        <ele>14.1</ele>
        <time>2020-06-08T13:41:19Z</time>
      </trkpt>
      <trkpt lat="48.25612" lon="-4.08951">
        <ele>13.9</ele>
        <time>2020-06-08T13:41:20Z</time>
      </trkpt>
      <trkpt lat="48.25614" lon="-4.08946">
        <ele>13.8</ele>
        <time>2020-06-08T13:41:21Z</time>
      </trkpt>
      <trkpt lat="48.25615" lon="-4.0894">
        <ele>13.9</ele>
        <time>2020-06-08T13:41:22Z</time>
      </trkpt>
      <trkpt lat="48.25618" lon="-4.08935">
        <ele>14</ele>
        <time>2020-06-08T13:41:23Z</time>
      </trkpt>
      <trkpt lat="48.2562" lon="-4.08929">
        <ele>13.5</ele>
        <time>2020-06-08T13:41:24Z</time>
      </trkpt>
      <trkpt lat="48.25622" lon="-4.08922">
        <ele>12.9</ele>
        <time>2020-06-08T13:41:25Z</time>
      </trkpt>
      <trkpt lat="48.25625" lon="-4.08915">
        <ele>12.3</ele>
        <time>2020-06-08T13:41:26Z</time>
      </trkpt>
      <trkpt lat="48.25627" lon="-4.08908">
        <ele>11.8</ele>
        <time>2020-06-08T13:41:27Z</time>
      </trkpt>
      <trkpt lat="48.25629" lon="-4.08902">
        <ele>11.3</ele>
        <time>2020-06-08T13:41:28Z</time>
      </trkpt>
      <trkpt lat="48.2563" lon="-4.08896">
        <ele>11</ele>
        <time>2020-06-08T13:41:29Z</time>
      </trkpt>
      <trkpt lat="48.25633" lon="-4.08891">
        <ele>10.7</ele>
        <time>2020-06-08T13:41:30Z</time>
      </trkpt>
      <trkpt lat="48.25636" lon="-4.08886">
        <ele>10.4</ele>
        <time>2020-06-08T13:41:31Z</time>
      </trkpt>
      <trkpt lat="48.2564" lon="-4.08884">
        <ele>10.1</ele>
        <time>2020-06-08T13:41:32Z</time>
      </trkpt>
      <trkpt lat="48.25645" lon="-4.08882">
        <ele>9.9</ele>
        <time>2020-06-08T13:41:33Z</time>
      </trkpt>
      <trkpt lat="48.2565" lon="-4.08878">
        <ele>9.6</ele>
        <time>2020-06-08T13:41:34Z</time>
      </trkpt>
      <trkpt lat="48.25654" lon="-4.08874">
        <ele>12</ele>
        <time>2020-06-08T13:41:35Z</time>
      </trkpt>
      <trkpt lat="48.25658" lon="-4.0887">
        <ele>11.9</ele>
        <time>2020-06-08T13:41:36Z</time>
      </trkpt>
      <trkpt lat="48.25662" lon="-4.08868">
        <ele>11</ele>
        <time>2020-06-08T13:41:37Z</time>
      </trkpt>
      <trkpt lat="48.25667" lon="-4.08864">
        <ele>10.1</ele>
        <time>2020-06-08T13:41:38Z</time>
      </trkpt>
      <trkpt lat="48.25672" lon="-4.08862">
        <ele>10</ele>
        <time>2020-06-08T13:41:39Z</time>
      </trkpt>
      <trkpt lat="48.25674" lon="-4.08856">
        <ele>10</ele>
        <time>2020-06-08T13:41:40Z</time>
      </trkpt>
      <trkpt lat="48.25676" lon="-4.0885">
        <ele>10.1</ele>
        <time>2020-06-08T13:41:41Z</time>
      </trkpt>
      <trkpt lat="48.25677" lon="-4.08844">
        <ele>10.2</ele>
        <time>2020-06-08T13:41:42Z</time>
      </trkpt>
      <trkpt lat="48.25677" lon="-4.08838">
        <ele>10.4</ele>
        <time>2020-06-08T13:41:43Z</time>
      </trkpt>
      <trkpt lat="48.25678" lon="-4.08832">
        <ele>10.5</ele>
        <time>2020-06-08T13:41:44Z</time>
      </trkpt>
      <trkpt lat="48.25679" lon="-4.08828">
        <ele>10.7</ele>
        <time>2020-06-08T13:41:45Z</time>
      </trkpt>
      <trkpt lat="48.25679" lon="-4.08823">
        <ele>10.9</ele>
        <time>2020-06-08T13:41:46Z</time>
      </trkpt>
      <trkpt lat="48.25679" lon="-4.08821">
        <ele>10.9</ele>
        <time>2020-06-08T13:41:47Z</time>
      </trkpt>
      <trkpt lat="48.25681" lon="-4.08817">
        <ele>11.1</ele>
        <time>2020-06-08T13:41:48Z</time>
      </trkpt>
      <trkpt lat="48.25683" lon="-4.08812">
        <ele>11.4</ele>
        <time>2020-06-08T13:41:49Z</time>
      </trkpt>
      <trkpt lat="48.25684" lon="-4.08811">
        <ele>11.5</ele>
        <time>2020-06-08T13:41:50Z</time>
      </trkpt>
      <trkpt lat="48.25684" lon="-4.08806">
        <ele>11.7</ele>
        <time>2020-06-08T13:41:51Z</time>
      </trkpt>
      <trkpt lat="48.25684" lon="-4.08805">
        <ele>11.8</ele>
        <time>2020-06-08T13:41:52Z</time>
      </trkpt>
      <trkpt lat="48.25684" lon="-4.08802">
        <ele>11.9</ele>
        <time>2020-06-08T13:41:53Z</time>
      </trkpt>
      <trkpt lat="48.25686" lon="-4.08801">
        <ele>12</ele>
        <time>2020-06-08T13:41:54Z</time>
      </trkpt>
      <trkpt lat="48.25686" lon="-4.08796">
        <ele>12.3</ele>
        <time>2020-06-08T13:41:55Z</time>
      </trkpt>
      <trkpt lat="48.25689" lon="-4.08794">
        <ele>12.5</ele>
        <time>2020-06-08T13:41:56Z</time>
      </trkpt>
      <trkpt lat="48.25692" lon="-4.08792">
        <ele>12.8</ele>
        <time>2020-06-08T13:41:57Z</time>
      </trkpt>
      <trkpt lat="48.25693" lon="-4.08791">
        <ele>12.8</ele>
        <time>2020-06-08T13:41:58Z</time>
      </trkpt>
      <trkpt lat="48.25695" lon="-4.08793">
        <ele>13.1</ele>
        <time>2020-06-08T13:41:59Z</time>
      </trkpt>
      <trkpt lat="48.25696" lon="-4.08794">
        <ele>13.2</ele>
        <time>2020-06-08T13:42:00Z</time>
      </trkpt>
      <trkpt lat="48.25697" lon="-4.08797">
        <ele>13.4</ele>
        <time>2020-06-08T13:42:01Z</time>
      </trkpt>
      <trkpt lat="48.25698" lon="-4.08799">
        <ele>14.2</ele>
        <time>2020-06-08T13:42:02Z</time>
      </trkpt>
      <trkpt lat="48.25697" lon="-4.08801">
        <ele>14.4</ele>
        <time>2020-06-08T13:42:03Z</time>
      </trkpt>
      <trkpt lat="48.25698" lon="-4.08803">
        <ele>14.5</ele>
        <time>2020-06-08T13:42:04Z</time>
      </trkpt>
      <trkpt lat="48.25698" lon="-4.08805">
        <ele>14.7</ele>
        <time>2020-06-08T13:42:05Z</time>
      </trkpt>
      <trkpt lat="48.25698" lon="-4.08807">
        <ele>14.8</ele>
        <time>2020-06-08T13:42:06Z</time>
      </trkpt>
      <trkpt lat="48.25698" lon="-4.08808">
        <ele>14.9</ele>
        <time>2020-06-08T13:42:07Z</time>
      </trkpt>
      <trkpt lat="48.257" lon="-4.08812">
        <ele>15.3</ele>
        <time>2020-06-08T13:42:08Z</time>
      </trkpt>
      <trkpt lat="48.25701" lon="-4.08813">
        <ele>15.5</ele>
        <time>2020-06-08T13:42:09Z</time>
      </trkpt>
      <trkpt lat="48.25702" lon="-4.08815">
        <ele>15.7</ele>
        <time>2020-06-08T13:42:10Z</time>
      </trkpt>
      <trkpt lat="48.25702" lon="-4.08817">
        <ele>15.9</ele>
        <time>2020-06-08T13:42:11Z</time>
      </trkpt>
      <trkpt lat="48.25703" lon="-4.08821">
        <ele>16.3</ele>
        <time>2020-06-08T13:42:12Z</time>
      </trkpt>
      <trkpt lat="48.25704" lon="-4.08823">
        <ele>16.4</ele>
        <time>2020-06-08T13:42:13Z</time>
      </trkpt>
      <trkpt lat="48.25705" lon="-4.08825">
        <ele>16.6</ele>
        <time>2020-06-08T13:42:14Z</time>
      </trkpt>
      <trkpt lat="48.25704" lon="-4.08826">
        <ele>16.7</ele>
        <time>2020-06-08T13:42:15Z</time>
      </trkpt>
      <trkpt lat="48.25705" lon="-4.08828">
        <ele>16.9</ele>
        <time>2020-06-08T13:42:16Z</time>
      </trkpt>
      <trkpt lat="48.25706" lon="-4.08831">
        <ele>17.1</ele>
        <time>2020-06-08T13:42:17Z</time>
      </trkpt>
      <trkpt lat="48.25706" lon="-4.08833">
        <ele>17.3</ele>
        <time>2020-06-08T13:42:18Z</time>
      </trkpt>
      <trkpt lat="48.25707" lon="-4.08834">
        <ele>17.5</ele>
        <time>2020-06-08T13:42:19Z</time>
      </trkpt>
      <trkpt lat="48.25708" lon="-4.08838">
        <ele>17.8</ele>
        <time>2020-06-08T13:42:20Z</time>
      </trkpt>
      <trkpt lat="48.25708" lon="-4.08839">
        <ele>17.9</ele>
        <time>2020-06-08T13:42:21Z</time>
      </trkpt>
      <trkpt lat="48.25709" lon="-4.0884">
        <ele>18</ele>
        <time>2020-06-08T13:42:22Z</time>
      </trkpt>
      <trkpt lat="48.2571" lon="-4.08843">
        <ele>18.3</ele>
        <time>2020-06-08T13:42:23Z</time>
      </trkpt>
      <trkpt lat="48.25711" lon="-4.08845">
        <ele>18.5</ele>
        <time>2020-06-08T13:42:24Z</time>
      </trkpt>
      <trkpt lat="48.25713" lon="-4.08848">
        <ele>18.8</ele>
        <time>2020-06-08T13:42:25Z</time>
      </trkpt>
      <trkpt lat="48.25713" lon="-4.08849">
        <ele>18.9</ele>
        <time>2020-06-08T13:42:26Z</time>
      </trkpt>
      <trkpt lat="48.25715" lon="-4.08852">
        <ele>19.3</ele>
        <time>2020-06-08T13:42:27Z</time>
      </trkpt>
      <trkpt lat="48.25715" lon="-4.08853">
        <ele>19.3</ele>
        <time>2020-06-08T13:42:28Z</time>
      </trkpt>
      <trkpt lat="48.25716" lon="-4.08857">
        <ele>19.6</ele>
        <time>2020-06-08T13:42:29Z</time>
      </trkpt>
      <trkpt lat="48.25718" lon="-4.08861">
        <ele>20.1</ele>
        <time>2020-06-08T13:42:30Z</time>
      </trkpt>
      <trkpt lat="48.25719" lon="-4.08866">
        <ele>20.6</ele>
        <time>2020-06-08T13:42:31Z</time>
      </trkpt>
      <trkpt lat="48.2572" lon="-4.08867">
        <ele>20.7</ele>
        <time>2020-06-08T13:42:32Z</time>
      </trkpt>
      <trkpt lat="48.25722" lon="-4.08869">
        <ele>21</ele>
        <time>2020-06-08T13:42:33Z</time>
      </trkpt>
      <trkpt lat="48.25722" lon="-4.0887">
        <ele>21.1</ele>
        <time>2020-06-08T13:42:34Z</time>
      </trkpt>
      <trkpt lat="48.25723" lon="-4.08871">
        <ele>21.3</ele>
        <time>2020-06-08T13:42:35Z</time>
      </trkpt>
      <trkpt lat="48.25724" lon="-4.08874">
        <ele>21.6</ele>
        <time>2020-06-08T13:42:36Z</time>
      </trkpt>
      <trkpt lat="48.25725" lon="-4.08875">
        <ele>21.7</ele>
        <time>2020-06-08T13:42:37Z</time>
      </trkpt>
      <trkpt lat="48.25725" lon="-4.08876">
        <ele>21.8</ele>
        <time>2020-06-08T13:42:38Z</time>
      </trkpt>
      <trkpt lat="48.25727" lon="-4.08879">
        <ele>22.2</ele>
        <time>2020-06-08T13:42:39Z</time>
      </trkpt>
      <trkpt lat="48.25727" lon="-4.0888">
        <ele>22.4</ele>
        <time>2020-06-08T13:42:40Z</time>
      </trkpt>
      <trkpt lat="48.25728" lon="-4.08883">
        <ele>22.6</ele>
        <time>2020-06-08T13:42:41Z</time>
      </trkpt>
      <trkpt lat="48.2573" lon="-4.08884">
        <ele>22.9</ele>
        <time>2020-06-08T13:42:42Z</time>
      </trkpt>
      <trkpt lat="48.2573" lon="-4.08886">
        <ele>23.1</ele>
        <time>2020-06-08T13:42:43Z</time>
      </trkpt>
      <trkpt lat="48.25732" lon="-4.08888">
        <ele>23.3</ele>
        <time>2020-06-08T13:42:44Z</time>
      </trkpt>
      <trkpt lat="48.25732" lon="-4.08888">
        <ele>23.5</ele>
        <time>2020-06-08T13:42:45Z</time>
      </trkpt>
      <trkpt lat="48.25732" lon="-4.08889">
        <ele>23.6</ele>
        <time>2020-06-08T13:42:46Z</time>
      </trkpt>
      <trkpt lat="48.25733" lon="-4.08891">
        <ele>23.8</ele>
        <time>2020-06-08T13:42:47Z</time>
      </trkpt>
      <trkpt lat="48.25735" lon="-4.08892">
        <ele>24</ele>
        <time>2020-06-08T13:42:48Z</time>
      </trkpt>
      <trkpt lat="48.25735" lon="-4.08894">
        <ele>24.2</ele>
        <time>2020-06-08T13:42:49Z</time>
      </trkpt>
      <trkpt lat="48.25736" lon="-4.08895">
        <ele>24.4</ele>
        <time>2020-06-08T13:42:50Z</time>
      </trkpt>
      <trkpt lat="48.25736" lon="-4.08899">
        <ele>24.7</ele>
        <time>2020-06-08T13:42:51Z</time>
      </trkpt>
      <trkpt lat="48.25737" lon="-4.08901">
        <ele>24.9</ele>
        <time>2020-06-08T13:42:52Z</time>
      </trkpt>
      <trkpt lat="48.25738" lon="-4.08904">
        <ele>25.2</ele>
        <time>2020-06-08T13:42:53Z</time>
      </trkpt>
      <trkpt lat="48.25738" lon="-4.08906">
        <ele>25.5</ele>
        <time>2020-06-08T13:42:54Z</time>
      </trkpt>
      <trkpt lat="48.25739" lon="-4.08908">
        <ele>25.7</ele>
        <time>2020-06-08T13:42:55Z</time>
      </trkpt>
      <trkpt lat="48.25742" lon="-4.08909">
        <ele>26</ele>
        <time>2020-06-08T13:42:56Z</time>
      </trkpt>
      <trkpt lat="48.25742" lon="-4.0891">
        <ele>26.2</ele>
        <time>2020-06-08T13:42:57Z</time>
      </trkpt>
      <trkpt lat="48.25744" lon="-4.08913">
        <ele>26.5</ele>
        <time>2020-06-08T13:42:58Z</time>
      </trkpt>
      <trkpt lat="48.25745" lon="-4.08915">
        <ele>26.7</ele>
        <time>2020-06-08T13:42:59Z</time>
      </trkpt>
      <trkpt lat="48.25746" lon="-4.08918">
        <ele>27.1</ele>
        <time>2020-06-08T13:43:00Z</time>
      </trkpt>
      <trkpt lat="48.25747" lon="-4.0892">
        <ele>27.3</ele>
        <time>2020-06-08T13:43:01Z</time>
      </trkpt>
      <trkpt lat="48.25748" lon="-4.08922">
        <ele>27.5</ele>
        <time>2020-06-08T13:43:02Z</time>
      </trkpt>
      <trkpt lat="48.25748" lon="-4.08924">
        <ele>27.7</ele>
        <time>2020-06-08T13:43:03Z</time>
      </trkpt>
      <trkpt lat="48.25748" lon="-4.08924">
        <ele>27.7</ele>
        <time>2020-06-08T13:43:04Z</time>
      </trkpt>
      <trkpt lat="48.2575" lon="-4.08926">
        <ele>28</ele>
        <time>2020-06-08T13:43:05Z</time>
      </trkpt>
      <trkpt lat="48.25751" lon="-4.08928">
        <ele>28.2</ele>
        <time>2020-06-08T13:43:06Z</time>
      </trkpt>
      <trkpt lat="48.25753" lon="-4.08931">
        <ele>28.6</ele>
        <time>2020-06-08T13:43:07Z</time>
      </trkpt>
      <trkpt lat="48.25754" lon="-4.08933">
        <ele>28.8</ele>
        <time>2020-06-08T13:43:08Z</time>
      </trkpt>
      <trkpt lat="48.25755" lon="-4.08936">
        <ele>29.1</ele>
        <time>2020-06-08T13:43:09Z</time>
      </trkpt>
      <trkpt lat="48.25755" lon="-4.08938">
        <ele>29.3</ele>
        <time>2020-06-08T13:43:10Z</time>
      </trkpt>
      <trkpt lat="48.25756" lon="-4.08939">
        <ele>29.5</ele>
        <time>2020-06-08T13:43:11Z</time>
      </trkpt>
      <trkpt lat="48.25757" lon="-4.0894">
        <ele>29.6</ele>
        <time>2020-06-08T13:43:12Z</time>
      </trkpt>
      <trkpt lat="48.25758" lon="-4.08941">
        <ele>29.8</ele>
        <time>2020-06-08T13:43:13Z</time>
      </trkpt>
      <trkpt lat="48.2576" lon="-4.08943">
        <ele>30.1</ele>
        <time>2020-06-08T13:43:14Z</time>
      </trkpt>
      <trkpt lat="48.2576" lon="-4.08944">
        <ele>30.2</ele>
        <time>2020-06-08T13:43:15Z</time>
      </trkpt>
      <trkpt lat="48.2576" lon="-4.08945">
        <ele>30.3</ele>
        <time>2020-06-08T13:43:16Z</time>
      </trkpt>
      <trkpt lat="48.25761" lon="-4.08947">
        <ele>30.5</ele>
        <time>2020-06-08T13:43:17Z</time>
      </trkpt>
      <trkpt lat="48.25762" lon="-4.08949">
        <ele>30.7</ele>
        <time>2020-06-08T13:43:18Z</time>
      </trkpt>
      <trkpt lat="48.25764" lon="-4.08952">
        <ele>31.1</ele>
        <time>2020-06-08T13:43:19Z</time>
      </trkpt>
      <trkpt lat="48.25765" lon="-4.08953">
        <ele>31.2</ele>
        <time>2020-06-08T13:43:20Z</time>
      </trkpt>
      <trkpt lat="48.25768" lon="-4.08954">
        <ele>31.6</ele>
        <time>2020-06-08T13:43:21Z</time>
      </trkpt>
      <trkpt lat="48.25769" lon="-4.08954">
        <ele>31.7</ele>
        <time>2020-06-08T13:43:22Z</time>
      </trkpt>
      <trkpt lat="48.25772" lon="-4.08956">
        <ele>32.1</ele>
        <time>2020-06-08T13:43:23Z</time>
      </trkpt>
      <trkpt lat="48.25773" lon="-4.08959">
        <ele>32.4</ele>
        <time>2020-06-08T13:43:24Z</time>
      </trkpt>
      <trkpt lat="48.25774" lon="-4.0896">
        <ele>32.5</ele>
        <time>2020-06-08T13:43:25Z</time>
      </trkpt>
      <trkpt lat="48.25774" lon="-4.08961">
        <ele>32.6</ele>
        <time>2020-06-08T13:43:26Z</time>
      </trkpt>
      <trkpt lat="48.25775" lon="-4.08962">
        <ele>32.8</ele>
        <time>2020-06-08T13:43:27Z</time>
      </trkpt>
      <trkpt lat="48.25777" lon="-4.08963">
        <ele>33</ele>
        <time>2020-06-08T13:43:28Z</time>
      </trkpt>
      <trkpt lat="48.2578" lon="-4.08965">
        <ele>33.4</ele>
        <time>2020-06-08T13:43:29Z</time>
      </trkpt>
      <trkpt lat="48.25781" lon="-4.08966">
        <ele>33.5</ele>
        <time>2020-06-08T13:43:30Z</time>
      </trkpt>
      <trkpt lat="48.25781" lon="-4.08968">
        <ele>33.7</ele>
        <time>2020-06-08T13:43:31Z</time>
      </trkpt>
      <trkpt lat="48.25782" lon="-4.08969">
        <ele>33.9</ele>
        <time>2020-06-08T13:43:32Z</time>
      </trkpt>
      <trkpt lat="48.25783" lon="-4.08971">
        <ele>34</ele>
        <time>2020-06-08T13:43:33Z</time>
      </trkpt>
      <trkpt lat="48.25784" lon="-4.08973">
        <ele>34.2</ele>
        <time>2020-06-08T13:43:34Z</time>
      </trkpt>
      <trkpt lat="48.25785" lon="-4.08973">
        <ele>34.3</ele>
        <time>2020-06-08T13:43:35Z</time>
      </trkpt>
      <trkpt lat="48.25785" lon="-4.08975">
        <ele>34.4</ele>
        <time>2020-06-08T13:43:36Z</time>
      </trkpt>
      <trkpt lat="48.25788" lon="-4.08977">
        <ele>34.8</ele>
        <time>2020-06-08T13:43:37Z</time>
      </trkpt>
      <trkpt lat="48.25788" lon="-4.08978">
        <ele>34.9</ele>
        <time>2020-06-08T13:43:38Z</time>
      </trkpt>
      <trkpt lat="48.2579" lon="-4.0898">
        <ele>35.2</ele>
        <time>2020-06-08T13:43:39Z</time>
      </trkpt>
      <trkpt lat="48.25791" lon="-4.08981">
        <ele>35.3</ele>
        <time>2020-06-08T13:43:40Z</time>
      </trkpt>
      <trkpt lat="48.25794" lon="-4.08984">
        <ele>35.7</ele>
        <time>2020-06-08T13:43:41Z</time>
      </trkpt>
      <trkpt lat="48.25795" lon="-4.08985">
        <ele>35.9</ele>
        <time>2020-06-08T13:43:42Z</time>
      </trkpt>
      <trkpt lat="48.25796" lon="-4.08988">
        <ele>36.1</ele>
        <time>2020-06-08T13:43:43Z</time>
      </trkpt>
      <trkpt lat="48.25797" lon="-4.08989">
        <ele>36.2</ele>
        <time>2020-06-08T13:43:44Z</time>
      </trkpt>
      <trkpt lat="48.25798" lon="-4.08989">
        <ele>36.3</ele>
        <time>2020-06-08T13:43:45Z</time>
      </trkpt>
      <trkpt lat="48.25799" lon="-4.08992">
        <ele>36.6</ele>
        <time>2020-06-08T13:43:46Z</time>
      </trkpt>
      <trkpt lat="48.25801" lon="-4.08993">
        <ele>36.7</ele>
        <time>2020-06-08T13:43:47Z</time>
      </trkpt>
      <trkpt lat="48.25801" lon="-4.08995">
        <ele>36.9</ele>
        <time>2020-06-08T13:43:48Z</time>
      </trkpt>
      <trkpt lat="48.25801" lon="-4.08997">
        <ele>37.1</ele>
        <time>2020-06-08T13:43:49Z</time>
      </trkpt>
      <trkpt lat="48.25803" lon="-4.09">
        <ele>37.3</ele>
        <time>2020-06-08T13:43:50Z</time>
      </trkpt>
      <trkpt lat="48.25804" lon="-4.09002">
        <ele>37.5</ele>
        <time>2020-06-08T13:43:51Z</time>
      </trkpt>
      <trkpt lat="48.25804" lon="-4.09002">
        <ele>37.6</ele>
        <time>2020-06-08T13:43:52Z</time>
      </trkpt>
      <trkpt lat="48.25805" lon="-4.09003">
        <ele>37.7</ele>
        <time>2020-06-08T13:43:53Z</time>
      </trkpt>
      <trkpt lat="48.25805" lon="-4.09005">
        <ele>37.8</ele>
        <time>2020-06-08T13:43:54Z</time>
      </trkpt>
      <trkpt lat="48.25807" lon="-4.09008">
        <ele>38.1</ele>
        <time>2020-06-08T13:43:55Z</time>
      </trkpt>
      <trkpt lat="48.25809" lon="-4.09012">
        <ele>38.5</ele>
        <time>2020-06-08T13:43:56Z</time>
      </trkpt>
      <trkpt lat="48.2581" lon="-4.09013">
        <ele>38.6</ele>
        <time>2020-06-08T13:43:57Z</time>
      </trkpt>
      <trkpt lat="48.25811" lon="-4.09015">
        <ele>38.8</ele>
        <time>2020-06-08T13:43:58Z</time>
      </trkpt>
      <trkpt lat="48.25812" lon="-4.09016">
        <ele>39</ele>
        <time>2020-06-08T13:43:59Z</time>
      </trkpt>
      <trkpt lat="48.25813" lon="-4.09017">
        <ele>39.2</ele>
        <time>2020-06-08T13:44:00Z</time>
      </trkpt>
      <trkpt lat="48.25814" lon="-4.09016">
        <ele>39.3</ele>
        <time>2020-06-08T13:44:01Z</time>
      </trkpt>
      <trkpt lat="48.25815" lon="-4.09016">
        <ele>39.5</ele>
        <time>2020-06-08T13:44:02Z</time>
      </trkpt>
      <trkpt lat="48.25819" lon="-4.09016">
        <ele>39.9</ele>
        <time>2020-06-08T13:44:03Z</time>
      </trkpt>
      <trkpt lat="48.2582" lon="-4.09017">
        <ele>40.1</ele>
        <time>2020-06-08T13:44:04Z</time>
      </trkpt>
      <trkpt lat="48.25821" lon="-4.09018">
        <ele>40.2</ele>
        <time>2020-06-08T13:44:05Z</time>
      </trkpt>
      <trkpt lat="48.25823" lon="-4.09021">
        <ele>40.5</ele>
        <time>2020-06-08T13:44:06Z</time>
      </trkpt>
      <trkpt lat="48.25824" lon="-4.09022">
        <ele>40.7</ele>
        <time>2020-06-08T13:44:07Z</time>
      </trkpt>
      <trkpt lat="48.25824" lon="-4.09024">
        <ele>40.9</ele>
        <time>2020-06-08T13:44:08Z</time>
      </trkpt>
      <trkpt lat="48.25825" lon="-4.09027">
        <ele>41.1</ele>
        <time>2020-06-08T13:44:09Z</time>
      </trkpt>
      <trkpt lat="48.25825" lon="-4.0903">
        <ele>41.3</ele>
        <time>2020-06-08T13:44:10Z</time>
      </trkpt>
      <trkpt lat="48.25825" lon="-4.09032">
        <ele>41.6</ele>
        <time>2020-06-08T13:44:11Z</time>
      </trkpt>
      <trkpt lat="48.25826" lon="-4.09034">
        <ele>41.7</ele>
        <time>2020-06-08T13:44:12Z</time>
      </trkpt>
      <trkpt lat="48.25827" lon="-4.09035">
        <ele>41.8</ele>
        <time>2020-06-08T13:44:13Z</time>
      </trkpt>
      <trkpt lat="48.25828" lon="-4.09036">
        <ele>42</ele>
        <time>2020-06-08T13:44:14Z</time>
      </trkpt>
      <trkpt lat="48.25829" lon="-4.09038">
        <ele>42.2</ele>
        <time>2020-06-08T13:44:15Z</time>
      </trkpt>
      <trkpt lat="48.2583" lon="-4.09041">
        <ele>42.5</ele>
        <time>2020-06-08T13:44:16Z</time>
      </trkpt>
      <trkpt lat="48.25831" lon="-4.09041">
        <ele>42.6</ele>
        <time>2020-06-08T13:44:17Z</time>
      </trkpt>
      <trkpt lat="48.25831" lon="-4.09043">
        <ele>42.7</ele>
        <time>2020-06-08T13:44:18Z</time>
      </trkpt>
      <trkpt lat="48.25832" lon="-4.09044">
        <ele>42.9</ele>
        <time>2020-06-08T13:44:19Z</time>
      </trkpt>
      <trkpt lat="48.25833" lon="-4.09046">
        <ele>43.1</ele>
        <time>2020-06-08T13:44:20Z</time>
      </trkpt>
      <trkpt lat="48.25834" lon="-4.09047">
        <ele>43.3</ele>
        <time>2020-06-08T13:44:21Z</time>
      </trkpt>
      <trkpt lat="48.25836" lon="-4.09048">
        <ele>43.5</ele>
        <time>2020-06-08T13:44:22Z</time>
      </trkpt>
      <trkpt lat="48.25837" lon="-4.09052">
        <ele>44</ele>
        <time>2020-06-08T13:44:23Z</time>
      </trkpt>
      <trkpt lat="48.25838" lon="-4.09053">
        <ele>44.1</ele>
        <time>2020-06-08T13:44:24Z</time>
      </trkpt>
      <trkpt lat="48.25839" lon="-4.09056">
        <ele>44.4</ele>
        <time>2020-06-08T13:44:25Z</time>
      </trkpt>
      <trkpt lat="48.2584" lon="-4.09057">
        <ele>44.6</ele>
        <time>2020-06-08T13:44:26Z</time>
      </trkpt>
      <trkpt lat="48.2584" lon="-4.0906">
        <ele>44.9</ele>
        <time>2020-06-08T13:44:27Z</time>
      </trkpt>
      <trkpt lat="48.25841" lon="-4.09062">
        <ele>45.1</ele>
        <time>2020-06-08T13:44:28Z</time>
      </trkpt>
      <trkpt lat="48.25841" lon="-4.09063">
        <ele>45.2</ele>
        <time>2020-06-08T13:44:29Z</time>
      </trkpt>
      <trkpt lat="48.25842" lon="-4.09064">
        <ele>45.4</ele>
        <time>2020-06-08T13:44:30Z</time>
      </trkpt>
      <trkpt lat="48.25843" lon="-4.09066">
        <ele>45.6</ele>
        <time>2020-06-08T13:44:31Z</time>
      </trkpt>
      <trkpt lat="48.25843" lon="-4.09067">
        <ele>45.7</ele>
        <time>2020-06-08T13:44:32Z</time>
      </trkpt>
      <trkpt lat="48.25842" lon="-4.09067">
        <ele>45.8</ele>
        <time>2020-06-08T13:44:33Z</time>
      </trkpt>
      <trkpt lat="48.25842" lon="-4.09068">
        <ele>45.9</ele>
        <time>2020-06-08T13:44:34Z</time>
      </trkpt>
      <trkpt lat="48.25843" lon="-4.09069">
        <ele>46</ele>
        <time>2020-06-08T13:44:35Z</time>
      </trkpt>
      <trkpt lat="48.25844" lon="-4.09071">
        <ele>46.2</ele>
        <time>2020-06-08T13:44:36Z</time>
      </trkpt>
      <trkpt lat="48.25846" lon="-4.09073">
        <ele>46.6</ele>
        <time>2020-06-08T13:44:37Z</time>
      </trkpt>
      <trkpt lat="48.25847" lon="-4.09074">
        <ele>46.8</ele>
        <time>2020-06-08T13:44:38Z</time>
      </trkpt>
      <trkpt lat="48.25848" lon="-4.09075">
        <ele>47</ele>
        <time>2020-06-08T13:44:39Z</time>
      </trkpt>
      <trkpt lat="48.25849" lon="-4.09078">
        <ele>47.4</ele>
        <time>2020-06-08T13:44:40Z</time>
      </trkpt>
      <trkpt lat="48.25851" lon="-4.09079">
        <ele>47.6</ele>
        <time>2020-06-08T13:44:41Z</time>
      </trkpt>
      <trkpt lat="48.25852" lon="-4.09081">
        <ele>47.9</ele>
        <time>2020-06-08T13:44:42Z</time>
      </trkpt>
      <trkpt lat="48.25853" lon="-4.09082">
        <ele>48.1</ele>
        <time>2020-06-08T13:44:43Z</time>
      </trkpt>
      <trkpt lat="48.25854" lon="-4.09083">
        <ele>48.3</ele>
        <time>2020-06-08T13:44:44Z</time>
      </trkpt>
      <trkpt lat="48.25856" lon="-4.09085">
        <ele>48.6</ele>
        <time>2020-06-08T13:44:45Z</time>
      </trkpt>
      <trkpt lat="48.25856" lon="-4.09085">
        <ele>48.7</ele>
        <time>2020-06-08T13:44:46Z</time>
      </trkpt>
      <trkpt lat="48.25857" lon="-4.09086">
        <ele>48.8</ele>
        <time>2020-06-08T13:44:47Z</time>
      </trkpt>
      <trkpt lat="48.25858" lon="-4.09088">
        <ele>49.1</ele>
        <time>2020-06-08T13:44:48Z</time>
      </trkpt>
      <trkpt lat="48.25859" lon="-4.09089">
        <ele>49.3</ele>
        <time>2020-06-08T13:44:49Z</time>
      </trkpt>
      <trkpt lat="48.2586" lon="-4.09089">
        <ele>49.4</ele>
        <time>2020-06-08T13:44:50Z</time>
      </trkpt>
      <trkpt lat="48.25861" lon="-4.09091">
        <ele>49.6</ele>
        <time>2020-06-08T13:44:51Z</time>
      </trkpt>
      <trkpt lat="48.25862" lon="-4.09093">
        <ele>49.9</ele>
        <time>2020-06-08T13:44:52Z</time>
      </trkpt>
      <trkpt lat="48.25864" lon="-4.09095">
        <ele>50.2</ele>
        <time>2020-06-08T13:44:53Z</time>
      </trkpt>
      <trkpt lat="48.25864" lon="-4.09097">
        <ele>50.4</ele>
        <time>2020-06-08T13:44:54Z</time>
      </trkpt>
      <trkpt lat="48.25865" lon="-4.09099">
        <ele>50.6</ele>
        <time>2020-06-08T13:44:55Z</time>
      </trkpt>
      <trkpt lat="48.25865" lon="-4.091">
        <ele>50.7</ele>
        <time>2020-06-08T13:44:56Z</time>
      </trkpt>
      <trkpt lat="48.25866" lon="-4.09101">
        <ele>50.9</ele>
        <time>2020-06-08T13:44:57Z</time>
      </trkpt>
      <trkpt lat="48.25866" lon="-4.09101">
        <ele>51</ele>
        <time>2020-06-08T13:44:58Z</time>
      </trkpt>
      <trkpt lat="48.25867" lon="-4.09104">
        <ele>51.3</ele>
        <time>2020-06-08T13:44:59Z</time>
      </trkpt>
      <trkpt lat="48.25869" lon="-4.09104">
        <ele>51.5</ele>
        <time>2020-06-08T13:45:00Z</time>
      </trkpt>
      <trkpt lat="48.25869" lon="-4.09105">
        <ele>51.6</ele>
        <time>2020-06-08T13:45:01Z</time>
      </trkpt>
      <trkpt lat="48.2587" lon="-4.09108">
        <ele>51.8</ele>
        <time>2020-06-08T13:45:02Z</time>
      </trkpt>
      <trkpt lat="48.25871" lon="-4.09108">
        <ele>52</ele>
        <time>2020-06-08T13:45:03Z</time>
      </trkpt>
      <trkpt lat="48.25872" lon="-4.09109">
        <ele>52.1</ele>
        <time>2020-06-08T13:45:04Z</time>
      </trkpt>
      <trkpt lat="48.25873" lon="-4.09111">
        <ele>52.3</ele>
        <time>2020-06-08T13:45:05Z</time>
      </trkpt>
      <trkpt lat="48.25874" lon="-4.09113">
        <ele>52.6</ele>
        <time>2020-06-08T13:45:06Z</time>
      </trkpt>
      <trkpt lat="48.25875" lon="-4.09116">
        <ele>52.8</ele>
        <time>2020-06-08T13:45:07Z</time>
      </trkpt>
      <trkpt lat="48.25875" lon="-4.09117">
        <ele>53</ele>
        <time>2020-06-08T13:45:08Z</time>
      </trkpt>
      <trkpt lat="48.25876" lon="-4.09119">
        <ele>53.2</ele>
        <time>2020-06-08T13:45:09Z</time>
      </trkpt>
      <trkpt lat="48.25876" lon="-4.0912">
        <ele>53.3</ele>
        <time>2020-06-08T13:45:10Z</time>
      </trkpt>
      <trkpt lat="48.25878" lon="-4.09122">
        <ele>53.6</ele>
        <time>2020-06-08T13:45:11Z</time>
      </trkpt>
      <trkpt lat="48.25879" lon="-4.09123">
        <ele>53.8</ele>
        <time>2020-06-08T13:45:12Z</time>
      </trkpt>
      <trkpt lat="48.25881" lon="-4.09125">
        <ele>54</ele>
        <time>2020-06-08T13:45:13Z</time>
      </trkpt>
      <trkpt lat="48.25882" lon="-4.09126">
        <ele>54.1</ele>
        <time>2020-06-08T13:45:14Z</time>
      </trkpt>
      <trkpt lat="48.25882" lon="-4.09127">
        <ele>54.2</ele>
        <time>2020-06-08T13:45:15Z</time>
      </trkpt>
      <trkpt lat="48.25885" lon="-4.09132">
        <ele>54.7</ele>
        <time>2020-06-08T13:45:16Z</time>
      </trkpt>
      <trkpt lat="48.25886" lon="-4.09133">
        <ele>54.8</ele>
        <time>2020-06-08T13:45:17Z</time>
      </trkpt>
      <trkpt lat="48.25889" lon="-4.09137">
        <ele>55.2</ele>
        <time>2020-06-08T13:45:18Z</time>
      </trkpt>
      <trkpt lat="48.2589" lon="-4.09138">
        <ele>55.3</ele>
        <time>2020-06-08T13:45:19Z</time>
      </trkpt>
      <trkpt lat="48.25892" lon="-4.09138">
        <ele>55.5</ele>
        <time>2020-06-08T13:45:20Z</time>
      </trkpt>
      <trkpt lat="48.25893" lon="-4.09139">
        <ele>55.6</ele>
        <time>2020-06-08T13:45:21Z</time>
      </trkpt>
      <trkpt lat="48.25895" lon="-4.0914">
        <ele>55.8</ele>
        <time>2020-06-08T13:45:22Z</time>
      </trkpt>
      <trkpt lat="48.25897" lon="-4.09141">
        <ele>56</ele>
        <time>2020-06-08T13:45:23Z</time>
      </trkpt>
      <trkpt lat="48.25899" lon="-4.09143">
        <ele>56.3</ele>
        <time>2020-06-08T13:45:24Z</time>
      </trkpt>
      <trkpt lat="48.259" lon="-4.09144">
        <ele>56.4</ele>
        <time>2020-06-08T13:45:25Z</time>
      </trkpt>
      <trkpt lat="48.25903" lon="-4.09147">
        <ele>56.7</ele>
        <time>2020-06-08T13:45:26Z</time>
      </trkpt>
      <trkpt lat="48.25906" lon="-4.09151">
        <ele>57</ele>
        <time>2020-06-08T13:45:27Z</time>
      </trkpt>
      <trkpt lat="48.25907" lon="-4.09152">
        <ele>57.1</ele>
        <time>2020-06-08T13:45:28Z</time>
      </trkpt>
      <trkpt lat="48.25909" lon="-4.09155">
        <ele>57.4</ele>
        <time>2020-06-08T13:45:29Z</time>
      </trkpt>
      <trkpt lat="48.2591" lon="-4.09156">
        <ele>57.5</ele>
        <time>2020-06-08T13:45:30Z</time>
      </trkpt>
      <trkpt lat="48.25912" lon="-4.09159">
        <ele>57.7</ele>
        <time>2020-06-08T13:45:31Z</time>
      </trkpt>
      <trkpt lat="48.25913" lon="-4.0916">
        <ele>57.8</ele>
        <time>2020-06-08T13:45:32Z</time>
      </trkpt>
      <trkpt lat="48.25916" lon="-4.09163">
        <ele>58.1</ele>
        <time>2020-06-08T13:45:33Z</time>
      </trkpt>
      <trkpt lat="48.25917" lon="-4.09164">
        <ele>58.2</ele>
        <time>2020-06-08T13:45:34Z</time>
      </trkpt>
      <trkpt lat="48.2592" lon="-4.09166">
        <ele>58.4</ele>
        <time>2020-06-08T13:45:35Z</time>
      </trkpt>
      <trkpt lat="48.25921" lon="-4.09168">
        <ele>58.5</ele>
        <time>2020-06-08T13:45:36Z</time>
      </trkpt>
      <trkpt lat="48.25924" lon="-4.09171">
        <ele>58.8</ele>
        <time>2020-06-08T13:45:37Z</time>
      </trkpt>
      <trkpt lat="48.25924" lon="-4.09172">
        <ele>58.9</ele>
        <time>2020-06-08T13:45:38Z</time>
      </trkpt>
      <trkpt lat="48.25926" lon="-4.09173">
        <ele>59</ele>
        <time>2020-06-08T13:45:39Z</time>
      </trkpt>
      <trkpt lat="48.25927" lon="-4.09174">
        <ele>59.1</ele>
        <time>2020-06-08T13:45:40Z</time>
      </trkpt>
      <trkpt lat="48.25928" lon="-4.09175">
        <ele>59.3</ele>
        <time>2020-06-08T13:45:41Z</time>
      </trkpt>
      <trkpt lat="48.25931" lon="-4.09177">
        <ele>59.5</ele>
        <time>2020-06-08T13:45:42Z</time>
      </trkpt>
      <trkpt lat="48.25932" lon="-4.09178">
        <ele>59.5</ele>
        <time>2020-06-08T13:45:43Z</time>
      </trkpt>
      <trkpt lat="48.25935" lon="-4.0918">
        <ele>59.7</ele>
        <time>2020-06-08T13:45:44Z</time>
      </trkpt>
      <trkpt lat="48.25938" lon="-4.09182">
        <ele>59.9</ele>
        <time>2020-06-08T13:45:45Z</time>
      </trkpt>
      <trkpt lat="48.25939" lon="-4.09183">
        <ele>60</ele>
        <time>2020-06-08T13:45:46Z</time>
      </trkpt>
      <trkpt lat="48.25941" lon="-4.09184">
        <ele>60.1</ele>
        <time>2020-06-08T13:45:47Z</time>
      </trkpt>
      <trkpt lat="48.25944" lon="-4.09186">
        <ele>60.2</ele>
        <time>2020-06-08T13:45:48Z</time>
      </trkpt>
      <trkpt lat="48.25945" lon="-4.09187">
        <ele>60.3</ele>
        <time>2020-06-08T13:45:49Z</time>
      </trkpt>
      <trkpt lat="48.25944" lon="-4.09189">
        <ele>60.4</ele>
        <time>2020-06-08T13:45:50Z</time>
      </trkpt>
      <trkpt lat="48.25947" lon="-4.0919">
        <ele>60.5</ele>
        <time>2020-06-08T13:45:51Z</time>
      </trkpt>
      <trkpt lat="48.25949" lon="-4.09192">
        <ele>60.6</ele>
        <time>2020-06-08T13:45:52Z</time>
      </trkpt>
      <trkpt lat="48.2595" lon="-4.09193">
        <ele>60.7</ele>
        <time>2020-06-08T13:45:53Z</time>
      </trkpt>
      <trkpt lat="48.25951" lon="-4.09194">
        <ele>60.7</ele>
        <time>2020-06-08T13:45:54Z</time>
      </trkpt>
      <trkpt lat="48.25953" lon="-4.09197">
        <ele>60.9</ele>
        <time>2020-06-08T13:45:55Z</time>
      </trkpt>
      <trkpt lat="48.25954" lon="-4.09199">
        <ele>61</ele>
        <time>2020-06-08T13:45:56Z</time>
      </trkpt>
      <trkpt lat="48.25956" lon="-4.092">
        <ele>61.1</ele>
        <time>2020-06-08T13:45:57Z</time>
      </trkpt>
      <trkpt lat="48.25958" lon="-4.09202">
        <ele>61.3</ele>
        <time>2020-06-08T13:45:58Z</time>
      </trkpt>
      <trkpt lat="48.25962" lon="-4.09205">
        <ele>61.6</ele>
        <time>2020-06-08T13:45:59Z</time>
      </trkpt>
      <trkpt lat="48.25963" lon="-4.09205">
        <ele>61.6</ele>
        <time>2020-06-08T13:46:00Z</time>
      </trkpt>
      <trkpt lat="48.25966" lon="-4.09207">
        <ele>61.8</ele>
        <time>2020-06-08T13:46:01Z</time>
      </trkpt>
      <trkpt lat="48.25967" lon="-4.09207">
        <ele>61.9</ele>
        <time>2020-06-08T13:46:02Z</time>
      </trkpt>
      <trkpt lat="48.25969" lon="-4.09209">
        <ele>62.1</ele>
        <time>2020-06-08T13:46:03Z</time>
      </trkpt>
      <trkpt lat="48.2597" lon="-4.09209">
        <ele>62.1</ele>
        <time>2020-06-08T13:46:04Z</time>
      </trkpt>
      <trkpt lat="48.2597" lon="-4.0921">
        <ele>62.2</ele>
        <time>2020-06-08T13:46:05Z</time>
      </trkpt>
      <trkpt lat="48.25971" lon="-4.09211">
        <ele>62.2</ele>
        <time>2020-06-08T13:46:06Z</time>
      </trkpt>
      <trkpt lat="48.25972" lon="-4.09212">
        <ele>62.3</ele>
        <time>2020-06-08T13:46:07Z</time>
      </trkpt>
      <trkpt lat="48.25973" lon="-4.09213">
        <ele>62.4</ele>
        <time>2020-06-08T13:46:08Z</time>
      </trkpt>
      <trkpt lat="48.25974" lon="-4.09214">
        <ele>62.4</ele>
        <time>2020-06-08T13:46:09Z</time>
      </trkpt>
      <trkpt lat="48.25975" lon="-4.09217">
        <ele>62.6</ele>
        <time>2020-06-08T13:46:10Z</time>
      </trkpt>
      <trkpt lat="48.25977" lon="-4.09219">
        <ele>62.7</ele>
        <time>2020-06-08T13:46:11Z</time>
      </trkpt>
      <trkpt lat="48.25977" lon="-4.09221">
        <ele>62.8</ele>
        <time>2020-06-08T13:46:12Z</time>
      </trkpt>
      <trkpt lat="48.2598" lon="-4.09224">
        <ele>63.2</ele>
        <time>2020-06-08T13:46:13Z</time>
      </trkpt>
      <trkpt lat="48.25981" lon="-4.09225">
        <ele>63.3</ele>
        <time>2020-06-08T13:46:14Z</time>
      </trkpt>
      <trkpt lat="48.25983" lon="-4.09227">
        <ele>63.4</ele>
        <time>2020-06-08T13:46:15Z</time>
      </trkpt>
      <trkpt lat="48.25986" lon="-4.0923">
        <ele>63.5</ele>
        <time>2020-06-08T13:46:16Z</time>
      </trkpt>
      <trkpt lat="48.25988" lon="-4.09232">
        <ele>63.6</ele>
        <time>2020-06-08T13:46:17Z</time>
      </trkpt>
      <trkpt lat="48.25989" lon="-4.09234">
        <ele>63.6</ele>
        <time>2020-06-08T13:46:18Z</time>
      </trkpt>
      <trkpt lat="48.2599" lon="-4.09235">
        <ele>63.7</ele>
        <time>2020-06-08T13:46:19Z</time>
      </trkpt>
      <trkpt lat="48.25991" lon="-4.09237">
        <ele>63.7</ele>
        <time>2020-06-08T13:46:20Z</time>
      </trkpt>
      <trkpt lat="48.25994" lon="-4.0924">
        <ele>63.9</ele>
        <time>2020-06-08T13:46:21Z</time>
      </trkpt>
      <trkpt lat="48.25995" lon="-4.0924">
        <ele>63.9</ele>
        <time>2020-06-08T13:46:22Z</time>
      </trkpt>
      <trkpt lat="48.25996" lon="-4.0924">
        <ele>64</ele>
        <time>2020-06-08T13:46:23Z</time>
      </trkpt>
      <trkpt lat="48.25998" lon="-4.09241">
        <ele>64</ele>
        <time>2020-06-08T13:46:24Z</time>
      </trkpt>
      <trkpt lat="48.26" lon="-4.09242">
        <ele>64.1</ele>
        <time>2020-06-08T13:46:25Z</time>
      </trkpt>
      <trkpt lat="48.26001" lon="-4.09242">
        <ele>64.1</ele>
        <time>2020-06-08T13:46:26Z</time>
      </trkpt>
      <trkpt lat="48.26003" lon="-4.09243">
        <ele>64.2</ele>
        <time>2020-06-08T13:46:27Z</time>
      </trkpt>
      <trkpt lat="48.26004" lon="-4.09244">
        <ele>64.2</ele>
        <time>2020-06-08T13:46:28Z</time>
      </trkpt>
      <trkpt lat="48.26004" lon="-4.09245">
        <ele>64.2</ele>
        <time>2020-06-08T13:46:29Z</time>
      </trkpt>
      <trkpt lat="48.26005" lon="-4.09246">
        <ele>64.2</ele>
        <time>2020-06-08T13:46:30Z</time>
      </trkpt>
      <trkpt lat="48.26006" lon="-4.09247">
        <ele>64.3</ele>
        <time>2020-06-08T13:46:31Z</time>
      </trkpt>
      <trkpt lat="48.26008" lon="-4.09248">
        <ele>64.3</ele>
        <time>2020-06-08T13:46:32Z</time>
      </trkpt>
      <trkpt lat="48.26009" lon="-4.0925">
        <ele>64.3</ele>
        <time>2020-06-08T13:46:33Z</time>
      </trkpt>
      <trkpt lat="48.2601" lon="-4.09251">
        <ele>64.3</ele>
        <time>2020-06-08T13:46:34Z</time>
      </trkpt>
      <trkpt lat="48.2601" lon="-4.09252">
        <ele>64.4</ele>
        <time>2020-06-08T13:46:35Z</time>
      </trkpt>
      <trkpt lat="48.2601" lon="-4.09253">
        <ele>64.4</ele>
        <time>2020-06-08T13:46:36Z</time>
      </trkpt>
      <trkpt lat="48.2601" lon="-4.09254">
        <ele>64.4</ele>
        <time>2020-06-08T13:46:37Z</time>
      </trkpt>
      <trkpt lat="48.26011" lon="-4.09255">
        <ele>64.4</ele>
        <time>2020-06-08T13:46:38Z</time>
      </trkpt>
      <trkpt lat="48.26011" lon="-4.09255">
        <ele>64.4</ele>
        <time>2020-06-08T13:46:39Z</time>
      </trkpt>
      <trkpt lat="48.26011" lon="-4.09256">
        <ele>64.4</ele>
        <time>2020-06-08T13:46:40Z</time>
      </trkpt>
      <trkpt lat="48.26012" lon="-4.09257">
        <ele>64.4</ele>
        <time>2020-06-08T13:46:41Z</time>
      </trkpt>
      <trkpt lat="48.26012" lon="-4.09258">
        <ele>64.4</ele>
        <time>2020-06-08T13:46:42Z</time>
      </trkpt>
      <trkpt lat="48.26012" lon="-4.09259">
        <ele>64.4</ele>
        <time>2020-06-08T13:46:43Z</time>
      </trkpt>
      <trkpt lat="48.26012" lon="-4.0926">
        <ele>64.4</ele>
        <time>2020-06-08T13:46:44Z</time>
      </trkpt>
      <trkpt lat="48.26013" lon="-4.09261">
        <ele>64.4</ele>
        <time>2020-06-08T13:46:45Z</time>
      </trkpt>
      <trkpt lat="48.26013" lon="-4.09262">
        <ele>64.4</ele>
        <time>2020-06-08T13:46:46Z</time>
      </trkpt>
      <trkpt lat="48.26013" lon="-4.09262">
        <ele>64.4</ele>
        <time>2020-06-08T13:49:38Z</time>
      </trkpt>
      <trkpt lat="48.26013" lon="-4.09263">
        <ele>64.4</ele>
        <time>2020-06-08T13:49:39Z</time>
      </trkpt>
      <trkpt lat="48.26015" lon="-4.09267">
        <ele>64.4</ele>
        <time>2020-06-08T13:49:40Z</time>
      </trkpt>
      <trkpt lat="48.26016" lon="-4.09269">
        <ele>64.4</ele>
        <time>2020-06-08T13:49:41Z</time>
      </trkpt>
      <trkpt lat="48.2602" lon="-4.09272">
        <ele>64.3</ele>
        <time>2020-06-08T13:49:42Z</time>
      </trkpt>
      <trkpt lat="48.26022" lon="-4.09273">
        <ele>64.2</ele>
        <time>2020-06-08T13:49:43Z</time>
      </trkpt>
      <trkpt lat="48.26026" lon="-4.09275">
        <ele>64.1</ele>
        <time>2020-06-08T13:49:44Z</time>
      </trkpt>
      <trkpt lat="48.26028" lon="-4.09276">
        <ele>63.9</ele>
        <time>2020-06-08T13:49:45Z</time>
      </trkpt>
      <trkpt lat="48.26034" lon="-4.09276">
        <ele>63.7</ele>
        <time>2020-06-08T13:49:46Z</time>
      </trkpt>
      <trkpt lat="48.26037" lon="-4.09278">
        <ele>63.6</ele>
        <time>2020-06-08T13:49:47Z</time>
      </trkpt>
      <trkpt lat="48.2604" lon="-4.09282">
        <ele>63.5</ele>
        <time>2020-06-08T13:49:48Z</time>
      </trkpt>
      <trkpt lat="48.26043" lon="-4.09286">
        <ele>63.4</ele>
        <time>2020-06-08T13:49:49Z</time>
      </trkpt>
      <trkpt lat="48.26047" lon="-4.0929">
        <ele>63.3</ele>
        <time>2020-06-08T13:49:50Z</time>
      </trkpt>
      <trkpt lat="48.2605" lon="-4.09294">
        <ele>63.2</ele>
        <time>2020-06-08T13:49:51Z</time>
      </trkpt>
      <trkpt lat="48.26054" lon="-4.09298">
        <ele>63.1</ele>
        <time>2020-06-08T13:49:52Z</time>
      </trkpt>
      <trkpt lat="48.26058" lon="-4.09302">
        <ele>63.1</ele>
        <time>2020-06-08T13:49:53Z</time>
      </trkpt>
      <trkpt lat="48.26061" lon="-4.09307">
        <ele>63</ele>
        <time>2020-06-08T13:49:54Z</time>
      </trkpt>
      <trkpt lat="48.26065" lon="-4.09311">
        <ele>63</ele>
        <time>2020-06-08T13:49:55Z</time>
      </trkpt>
      <trkpt lat="48.26068" lon="-4.09314">
        <ele>63</ele>
        <time>2020-06-08T13:49:56Z</time>
      </trkpt>
      <trkpt lat="48.26071" lon="-4.09318">
        <ele>63</ele>
        <time>2020-06-08T13:49:57Z</time>
      </trkpt>
      <trkpt lat="48.26075" lon="-4.09324">
        <ele>63</ele>
        <time>2020-06-08T13:49:58Z</time>
      </trkpt>
      <trkpt lat="48.26079" lon="-4.09327">
        <ele>63</ele>
        <time>2020-06-08T13:49:59Z</time>
      </trkpt>
      <trkpt lat="48.26083" lon="-4.0933">
        <ele>63</ele>
        <time>2020-06-08T13:50:00Z</time>
      </trkpt>
      <trkpt lat="48.26086" lon="-4.09333">
        <ele>63</ele>
        <time>2020-06-08T13:50:01Z</time>
      </trkpt>
      <trkpt lat="48.2609" lon="-4.09334">
        <ele>63</ele>
        <time>2020-06-08T13:50:02Z</time>
      </trkpt>
      <trkpt lat="48.26094" lon="-4.09336">
        <ele>63</ele>
        <time>2020-06-08T13:50:03Z</time>
      </trkpt>
      <trkpt lat="48.26096" lon="-4.0934">
        <ele>63.1</ele>
        <time>2020-06-08T13:50:04Z</time>
      </trkpt>
      <trkpt lat="48.261" lon="-4.09343">
        <ele>63.1</ele>
        <time>2020-06-08T13:50:05Z</time>
      </trkpt>
      <trkpt lat="48.26104" lon="-4.09347">
        <ele>63.2</ele>
        <time>2020-06-08T13:50:06Z</time>
      </trkpt>
      <trkpt lat="48.26107" lon="-4.0935">
        <ele>63.3</ele>
        <time>2020-06-08T13:50:07Z</time>
      </trkpt>
      <trkpt lat="48.2611" lon="-4.09352">
        <ele>63.5</ele>
        <time>2020-06-08T13:50:08Z</time>
      </trkpt>
      <trkpt lat="48.26113" lon="-4.09356">
        <ele>63.7</ele>
        <time>2020-06-08T13:50:09Z</time>
      </trkpt>
      <trkpt lat="48.26116" lon="-4.09358">
        <ele>63.8</ele>
        <time>2020-06-08T13:50:10Z</time>
      </trkpt>
      <trkpt lat="48.2612" lon="-4.0936">
        <ele>63.9</ele>
        <time>2020-06-08T13:50:11Z</time>
      </trkpt>
      <trkpt lat="48.26123" lon="-4.09362">
        <ele>64</ele>
        <time>2020-06-08T13:50:12Z</time>
      </trkpt>
      <trkpt lat="48.26126" lon="-4.09364">
        <ele>64.1</ele>
        <time>2020-06-08T13:50:13Z</time>
      </trkpt>
      <trkpt lat="48.26128" lon="-4.09367">
        <ele>64.2</ele>
        <time>2020-06-08T13:50:14Z</time>
      </trkpt>
      <trkpt lat="48.26131" lon="-4.0937">
        <ele>64.3</ele>
        <time>2020-06-08T13:50:15Z</time>
      </trkpt>
      <trkpt lat="48.26134" lon="-4.09372">
        <ele>64.3</ele>
        <time>2020-06-08T13:50:16Z</time>
      </trkpt>
      <trkpt lat="48.26137" lon="-4.09374">
        <ele>64.4</ele>
        <time>2020-06-08T13:50:17Z</time>
      </trkpt>
      <trkpt lat="48.26141" lon="-4.09377">
        <ele>64.5</ele>
        <time>2020-06-08T13:50:18Z</time>
      </trkpt>
      <trkpt lat="48.26143" lon="-4.09379">
        <ele>64.6</ele>
        <time>2020-06-08T13:50:19Z</time>
      </trkpt>
      <trkpt lat="48.26147" lon="-4.09382">
        <ele>64.7</ele>
        <time>2020-06-08T13:50:20Z</time>
      </trkpt>
      <trkpt lat="48.2615" lon="-4.09385">
        <ele>64.8</ele>
        <time>2020-06-08T13:50:21Z</time>
      </trkpt>
      <trkpt lat="48.26153" lon="-4.09387">
        <ele>64.9</ele>
        <time>2020-06-08T13:50:22Z</time>
      </trkpt>
      <trkpt lat="48.26157" lon="-4.0939">
        <ele>65</ele>
        <time>2020-06-08T13:50:23Z</time>
      </trkpt>
      <trkpt lat="48.26158" lon="-4.09391">
        <ele>65.1</ele>
        <time>2020-06-08T13:50:24Z</time>
      </trkpt>
      <trkpt lat="48.26162" lon="-4.09394">
        <ele>65.2</ele>
        <time>2020-06-08T13:50:25Z</time>
      </trkpt>
      <trkpt lat="48.26163" lon="-4.09395">
        <ele>65.3</ele>
        <time>2020-06-08T13:50:26Z</time>
      </trkpt>
      <trkpt lat="48.26166" lon="-4.09398">
        <ele>65.5</ele>
        <time>2020-06-08T13:50:27Z</time>
      </trkpt>
      <trkpt lat="48.26168" lon="-4.09401">
        <ele>65.6</ele>
        <time>2020-06-08T13:50:28Z</time>
      </trkpt>
      <trkpt lat="48.26171" lon="-4.09403">
        <ele>65.8</ele>
        <time>2020-06-08T13:50:29Z</time>
      </trkpt>
      <trkpt lat="48.26173" lon="-4.09405">
        <ele>65.9</ele>
        <time>2020-06-08T13:50:30Z</time>
      </trkpt>
      <trkpt lat="48.26177" lon="-4.09408">
        <ele>66.2</ele>
        <time>2020-06-08T13:50:31Z</time>
      </trkpt>
      <trkpt lat="48.26179" lon="-4.09409">
        <ele>66.3</ele>
        <time>2020-06-08T13:50:32Z</time>
      </trkpt>
      <trkpt lat="48.26182" lon="-4.09411">
        <ele>66.5</ele>
        <time>2020-06-08T13:50:33Z</time>
      </trkpt>
      <trkpt lat="48.26185" lon="-4.09414">
        <ele>66.7</ele>
        <time>2020-06-08T13:50:34Z</time>
      </trkpt>
      <trkpt lat="48.26186" lon="-4.09415">
        <ele>66.8</ele>
        <time>2020-06-08T13:50:35Z</time>
      </trkpt>
      <trkpt lat="48.2619" lon="-4.09418">
        <ele>67</ele>
        <time>2020-06-08T13:50:36Z</time>
      </trkpt>
      <trkpt lat="48.26192" lon="-4.09421">
        <ele>67.2</ele>
        <time>2020-06-08T13:50:37Z</time>
      </trkpt>
      <trkpt lat="48.26195" lon="-4.09422">
        <ele>67.4</ele>
        <time>2020-06-08T13:50:38Z</time>
      </trkpt>
      <trkpt lat="48.26197" lon="-4.09423">
        <ele>67.6</ele>
        <time>2020-06-08T13:50:39Z</time>
      </trkpt>
      <trkpt lat="48.26201" lon="-4.09425">
        <ele>67.8</ele>
        <time>2020-06-08T13:50:40Z</time>
      </trkpt>
      <trkpt lat="48.26203" lon="-4.09426">
        <ele>67.9</ele>
        <time>2020-06-08T13:50:41Z</time>
      </trkpt>
      <trkpt lat="48.26206" lon="-4.09427">
        <ele>68.1</ele>
        <time>2020-06-08T13:50:42Z</time>
      </trkpt>
      <trkpt lat="48.26209" lon="-4.09429">
        <ele>68.3</ele>
        <time>2020-06-08T13:50:43Z</time>
      </trkpt>
      <trkpt lat="48.26211" lon="-4.0943">
        <ele>68.5</ele>
        <time>2020-06-08T13:50:44Z</time>
      </trkpt>
      <trkpt lat="48.26215" lon="-4.09434">
        <ele>68.8</ele>
        <time>2020-06-08T13:50:45Z</time>
      </trkpt>
      <trkpt lat="48.26216" lon="-4.09435">
        <ele>68.9</ele>
        <time>2020-06-08T13:50:46Z</time>
      </trkpt>
      <trkpt lat="48.26218" lon="-4.09437">
        <ele>69.1</ele>
        <time>2020-06-08T13:50:47Z</time>
      </trkpt>
      <trkpt lat="48.26219" lon="-4.09437">
        <ele>69.1</ele>
        <time>2020-06-08T13:50:48Z</time>
      </trkpt>
      <trkpt lat="48.26222" lon="-4.09438">
        <ele>69.3</ele>
        <time>2020-06-08T13:50:49Z</time>
      </trkpt>
      <trkpt lat="48.26225" lon="-4.0944">
        <ele>69.6</ele>
        <time>2020-06-08T13:50:50Z</time>
      </trkpt>
      <trkpt lat="48.26228" lon="-4.09443">
        <ele>69.9</ele>
        <time>2020-06-08T13:50:51Z</time>
      </trkpt>
      <trkpt lat="48.26232" lon="-4.09443">
        <ele>70.1</ele>
        <time>2020-06-08T13:50:52Z</time>
      </trkpt>
      <trkpt lat="48.26235" lon="-4.09446">
        <ele>70.4</ele>
        <time>2020-06-08T13:50:53Z</time>
      </trkpt>
      <trkpt lat="48.26238" lon="-4.09447">
        <ele>70.6</ele>
        <time>2020-06-08T13:50:54Z</time>
      </trkpt>
      <trkpt lat="48.26242" lon="-4.0945">
        <ele>70.9</ele>
        <time>2020-06-08T13:50:55Z</time>
      </trkpt>
      <trkpt lat="48.26244" lon="-4.0945">
        <ele>71</ele>
        <time>2020-06-08T13:50:56Z</time>
      </trkpt>
      <trkpt lat="48.26247" lon="-4.09452">
        <ele>71.3</ele>
        <time>2020-06-08T13:50:57Z</time>
      </trkpt>
      <trkpt lat="48.2625" lon="-4.09454">
        <ele>71.5</ele>
        <time>2020-06-08T13:50:58Z</time>
      </trkpt>
      <trkpt lat="48.26253" lon="-4.09455">
        <ele>71.7</ele>
        <time>2020-06-08T13:50:59Z</time>
      </trkpt>
      <trkpt lat="48.26257" lon="-4.09457">
        <ele>72</ele>
        <time>2020-06-08T13:51:00Z</time>
      </trkpt>
      <trkpt lat="48.26258" lon="-4.09458">
        <ele>72.1</ele>
        <time>2020-06-08T13:51:01Z</time>
      </trkpt>
      <trkpt lat="48.26261" lon="-4.0946">
        <ele>72.4</ele>
        <time>2020-06-08T13:51:02Z</time>
      </trkpt>
      <trkpt lat="48.26262" lon="-4.09461">
        <ele>72.5</ele>
        <time>2020-06-08T13:51:03Z</time>
      </trkpt>
      <trkpt lat="48.26265" lon="-4.09462">
        <ele>72.7</ele>
        <time>2020-06-08T13:51:04Z</time>
      </trkpt>
      <trkpt lat="48.26268" lon="-4.09462">
        <ele>73</ele>
        <time>2020-06-08T13:51:05Z</time>
      </trkpt>
      <trkpt lat="48.26272" lon="-4.09464">
        <ele>73.2</ele>
        <time>2020-06-08T13:51:06Z</time>
      </trkpt>
      <trkpt lat="48.26273" lon="-4.09465">
        <ele>73.3</ele>
        <time>2020-06-08T13:51:07Z</time>
      </trkpt>
      <trkpt lat="48.26274" lon="-4.09467">
        <ele>73.4</ele>
        <time>2020-06-08T13:51:08Z</time>
      </trkpt>
      <trkpt lat="48.26275" lon="-4.09469">
        <ele>73.5</ele>
        <time>2020-06-08T13:51:09Z</time>
      </trkpt>
      <trkpt lat="48.26279" lon="-4.09471">
        <ele>73.8</ele>
        <time>2020-06-08T13:51:10Z</time>
      </trkpt>
      <trkpt lat="48.2628" lon="-4.09472">
        <ele>73.9</ele>
        <time>2020-06-08T13:51:11Z</time>
      </trkpt>
      <trkpt lat="48.26284" lon="-4.09473">
        <ele>74.3</ele>
        <time>2020-06-08T13:51:12Z</time>
      </trkpt>
      <trkpt lat="48.26285" lon="-4.09473">
        <ele>74.5</ele>
        <time>2020-06-08T13:51:13Z</time>
      </trkpt>
      <trkpt lat="48.2629" lon="-4.09473">
        <ele>74.8</ele>
        <time>2020-06-08T13:51:14Z</time>
      </trkpt>
      <trkpt lat="48.26291" lon="-4.09473">
        <ele>75</ele>
        <time>2020-06-08T13:51:15Z</time>
      </trkpt>
      <trkpt lat="48.26294" lon="-4.09477">
        <ele>75.3</ele>
        <time>2020-06-08T13:51:16Z</time>
      </trkpt>
      <trkpt lat="48.26295" lon="-4.09478">
        <ele>75.4</ele>
        <time>2020-06-08T13:51:17Z</time>
      </trkpt>
      <trkpt lat="48.26298" lon="-4.09481">
        <ele>75.8</ele>
        <time>2020-06-08T13:51:18Z</time>
      </trkpt>
      <trkpt lat="48.263" lon="-4.09483">
        <ele>75.9</ele>
        <time>2020-06-08T13:51:19Z</time>
      </trkpt>
      <trkpt lat="48.26303" lon="-4.09485">
        <ele>76.2</ele>
        <time>2020-06-08T13:51:20Z</time>
      </trkpt>
      <trkpt lat="48.26305" lon="-4.09487">
        <ele>76.4</ele>
        <time>2020-06-08T13:51:21Z</time>
      </trkpt>
      <trkpt lat="48.26308" lon="-4.09489">
        <ele>76.7</ele>
        <time>2020-06-08T13:51:22Z</time>
      </trkpt>
      <trkpt lat="48.26311" lon="-4.09489">
        <ele>76.9</ele>
        <time>2020-06-08T13:51:23Z</time>
      </trkpt>
      <trkpt lat="48.26315" lon="-4.0949">
        <ele>77.2</ele>
        <time>2020-06-08T13:51:24Z</time>
      </trkpt>
      <trkpt lat="48.26316" lon="-4.09491">
        <ele>77.3</ele>
        <time>2020-06-08T13:51:25Z</time>
      </trkpt>
      <trkpt lat="48.26319" lon="-4.09493">
        <ele>77.6</ele>
        <time>2020-06-08T13:51:26Z</time>
      </trkpt>
      <trkpt lat="48.26322" lon="-4.09494">
        <ele>77.8</ele>
        <time>2020-06-08T13:51:27Z</time>
      </trkpt>
      <trkpt lat="48.26323" lon="-4.09494">
        <ele>77.9</ele>
        <time>2020-06-08T13:51:28Z</time>
      </trkpt>
      <trkpt lat="48.26326" lon="-4.09495">
        <ele>78.1</ele>
        <time>2020-06-08T13:51:29Z</time>
      </trkpt>
      <trkpt lat="48.26328" lon="-4.09496">
        <ele>78.3</ele>
        <time>2020-06-08T13:51:30Z</time>
      </trkpt>
      <trkpt lat="48.26331" lon="-4.09498">
        <ele>78.5</ele>
        <time>2020-06-08T13:51:31Z</time>
      </trkpt>
      <trkpt lat="48.26334" lon="-4.09499">
        <ele>78.8</ele>
        <time>2020-06-08T13:51:32Z</time>
      </trkpt>
      <trkpt lat="48.26337" lon="-4.09501">
        <ele>79</ele>
        <time>2020-06-08T13:51:33Z</time>
      </trkpt>
      <trkpt lat="48.2634" lon="-4.09503">
        <ele>79.2</ele>
        <time>2020-06-08T13:51:34Z</time>
      </trkpt>
      <trkpt lat="48.26343" lon="-4.09504">
        <ele>79.4</ele>
        <time>2020-06-08T13:51:35Z</time>
      </trkpt>
      <trkpt lat="48.26346" lon="-4.09505">
        <ele>79.6</ele>
        <time>2020-06-08T13:51:36Z</time>
      </trkpt>
      <trkpt lat="48.2635" lon="-4.09508">
        <ele>79.9</ele>
        <time>2020-06-08T13:51:37Z</time>
      </trkpt>
      <trkpt lat="48.26351" lon="-4.09508">
        <ele>80</ele>
        <time>2020-06-08T13:51:38Z</time>
      </trkpt>
      <trkpt lat="48.26355" lon="-4.0951">
        <ele>80.3</ele>
        <time>2020-06-08T13:51:39Z</time>
      </trkpt>
      <trkpt lat="48.26359" lon="-4.09511">
        <ele>80.5</ele>
        <time>2020-06-08T13:51:40Z</time>
      </trkpt>
      <trkpt lat="48.26361" lon="-4.09513">
        <ele>80.8</ele>
        <time>2020-06-08T13:51:41Z</time>
      </trkpt>
      <trkpt lat="48.26364" lon="-4.09515">
        <ele>81</ele>
        <time>2020-06-08T13:51:42Z</time>
      </trkpt>
      <trkpt lat="48.26367" lon="-4.09518">
        <ele>81.2</ele>
        <time>2020-06-08T13:51:43Z</time>
      </trkpt>
      <trkpt lat="48.2637" lon="-4.0952">
        <ele>81.5</ele>
        <time>2020-06-08T13:51:44Z</time>
      </trkpt>
      <trkpt lat="48.26372" lon="-4.09521">
        <ele>81.6</ele>
        <time>2020-06-08T13:51:45Z</time>
      </trkpt>
      <trkpt lat="48.26374" lon="-4.09523">
        <ele>81.8</ele>
        <time>2020-06-08T13:51:46Z</time>
      </trkpt>
      <trkpt lat="48.26377" lon="-4.09524">
        <ele>82.1</ele>
        <time>2020-06-08T13:51:47Z</time>
      </trkpt>
      <trkpt lat="48.2638" lon="-4.09527">
        <ele>82.3</ele>
        <time>2020-06-08T13:51:48Z</time>
      </trkpt>
      <trkpt lat="48.26381" lon="-4.09528">
        <ele>82.4</ele>
        <time>2020-06-08T13:51:49Z</time>
      </trkpt>
      <trkpt lat="48.26384" lon="-4.09529">
        <ele>82.6</ele>
        <time>2020-06-08T13:51:50Z</time>
      </trkpt>
      <trkpt lat="48.26387" lon="-4.09531">
        <ele>82.8</ele>
        <time>2020-06-08T13:51:51Z</time>
      </trkpt>
      <trkpt lat="48.2639" lon="-4.09532">
        <ele>83.1</ele>
        <time>2020-06-08T13:51:52Z</time>
      </trkpt>
      <trkpt lat="48.26393" lon="-4.09534">
        <ele>83.3</ele>
        <time>2020-06-08T13:51:53Z</time>
      </trkpt>
      <trkpt lat="48.26397" lon="-4.09536">
        <ele>83.6</ele>
        <time>2020-06-08T13:51:54Z</time>
      </trkpt>
      <trkpt lat="48.264" lon="-4.09537">
        <ele>83.8</ele>
        <time>2020-06-08T13:51:55Z</time>
      </trkpt>
      <trkpt lat="48.26403" lon="-4.09538">
        <ele>84</ele>
        <time>2020-06-08T13:51:56Z</time>
      </trkpt>
      <trkpt lat="48.26407" lon="-4.0954">
        <ele>84.2</ele>
        <time>2020-06-08T13:51:57Z</time>
      </trkpt>
      <trkpt lat="48.2641" lon="-4.09542">
        <ele>84.5</ele>
        <time>2020-06-08T13:51:58Z</time>
      </trkpt>
      <trkpt lat="48.26412" lon="-4.09543">
        <ele>84.6</ele>
        <time>2020-06-08T13:51:59Z</time>
      </trkpt>
      <trkpt lat="48.26415" lon="-4.09545">
        <ele>84.8</ele>
        <time>2020-06-08T13:52:00Z</time>
      </trkpt>
      <trkpt lat="48.26417" lon="-4.09547">
        <ele>85.1</ele>
        <time>2020-06-08T13:52:01Z</time>
      </trkpt>
      <trkpt lat="48.2642" lon="-4.09549">
        <ele>85.4</ele>
        <time>2020-06-08T13:52:02Z</time>
      </trkpt>
      <trkpt lat="48.26421" lon="-4.09549">
        <ele>85.5</ele>
        <time>2020-06-08T13:52:03Z</time>
      </trkpt>
      <trkpt lat="48.26424" lon="-4.09549">
        <ele>85.8</ele>
        <time>2020-06-08T13:52:04Z</time>
      </trkpt>
      <trkpt lat="48.26427" lon="-4.09549">
        <ele>86</ele>
        <time>2020-06-08T13:52:05Z</time>
      </trkpt>
      <trkpt lat="48.26428" lon="-4.0955">
        <ele>86.1</ele>
        <time>2020-06-08T13:52:06Z</time>
      </trkpt>
      <trkpt lat="48.26432" lon="-4.09549">
        <ele>86.4</ele>
        <time>2020-06-08T13:52:07Z</time>
      </trkpt>
      <trkpt lat="48.26433" lon="-4.09549">
        <ele>86.5</ele>
        <time>2020-06-08T13:52:08Z</time>
      </trkpt>
      <trkpt lat="48.26436" lon="-4.09549">
        <ele>86.8</ele>
        <time>2020-06-08T13:52:09Z</time>
      </trkpt>
      <trkpt lat="48.26439" lon="-4.09549">
        <ele>87</ele>
        <time>2020-06-08T13:52:10Z</time>
      </trkpt>
      <trkpt lat="48.26443" lon="-4.09548">
        <ele>87.3</ele>
        <time>2020-06-08T13:52:11Z</time>
      </trkpt>
      <trkpt lat="48.26444" lon="-4.09548">
        <ele>87.4</ele>
        <time>2020-06-08T13:52:12Z</time>
      </trkpt>
      <trkpt lat="48.26448" lon="-4.09549">
        <ele>87.7</ele>
        <time>2020-06-08T13:52:13Z</time>
      </trkpt>
      <trkpt lat="48.26449" lon="-4.0955">
        <ele>87.8</ele>
        <time>2020-06-08T13:52:14Z</time>
      </trkpt>
      <trkpt lat="48.26453" lon="-4.09549">
        <ele>88.1</ele>
        <time>2020-06-08T13:52:15Z</time>
      </trkpt>
      <trkpt lat="48.26453" lon="-4.09548">
        <ele>88.2</ele>
        <time>2020-06-08T13:52:16Z</time>
      </trkpt>
      <trkpt lat="48.26457" lon="-4.09548">
        <ele>88.5</ele>
        <time>2020-06-08T13:52:17Z</time>
      </trkpt>
      <trkpt lat="48.26458" lon="-4.09549">
        <ele>88.6</ele>
        <time>2020-06-08T13:52:18Z</time>
      </trkpt>
      <trkpt lat="48.26461" lon="-4.09548">
        <ele>88.9</ele>
        <time>2020-06-08T13:52:19Z</time>
      </trkpt>
      <trkpt lat="48.26463" lon="-4.09548">
        <ele>89</ele>
        <time>2020-06-08T13:52:20Z</time>
      </trkpt>
      <trkpt lat="48.26466" lon="-4.09549">
        <ele>89.2</ele>
        <time>2020-06-08T13:52:21Z</time>
      </trkpt>
      <trkpt lat="48.26467" lon="-4.09549">
        <ele>89.4</ele>
        <time>2020-06-08T13:52:22Z</time>
      </trkpt>
      <trkpt lat="48.26468" lon="-4.09548">
        <ele>89.5</ele>
        <time>2020-06-08T13:52:23Z</time>
      </trkpt>
      <trkpt lat="48.26471" lon="-4.09547">
        <ele>89.7</ele>
        <time>2020-06-08T13:52:24Z</time>
      </trkpt>
      <trkpt lat="48.26473" lon="-4.09547">
        <ele>89.9</ele>
        <time>2020-06-08T13:52:25Z</time>
      </trkpt>
      <trkpt lat="48.26476" lon="-4.09547">
        <ele>90.1</ele>
        <time>2020-06-08T13:52:26Z</time>
      </trkpt>
      <trkpt lat="48.26479" lon="-4.09548">
        <ele>90.3</ele>
        <time>2020-06-08T13:52:27Z</time>
      </trkpt>
      <trkpt lat="48.26481" lon="-4.09548">
        <ele>90.4</ele>
        <time>2020-06-08T13:52:28Z</time>
      </trkpt>
      <trkpt lat="48.26484" lon="-4.09548">
        <ele>90.7</ele>
        <time>2020-06-08T13:52:29Z</time>
      </trkpt>
      <trkpt lat="48.26485" lon="-4.09548">
        <ele>90.8</ele>
        <time>2020-06-08T13:52:30Z</time>
      </trkpt>
      <trkpt lat="48.26489" lon="-4.09549">
        <ele>91</ele>
        <time>2020-06-08T13:52:31Z</time>
      </trkpt>
      <trkpt lat="48.2649" lon="-4.09549">
        <ele>91.2</ele>
        <time>2020-06-08T13:52:32Z</time>
      </trkpt>
      <trkpt lat="48.26494" lon="-4.09549">
        <ele>91.4</ele>
        <time>2020-06-08T13:52:33Z</time>
      </trkpt>
      <trkpt lat="48.26496" lon="-4.09549">
        <ele>91.5</ele>
        <time>2020-06-08T13:52:34Z</time>
      </trkpt>
      <trkpt lat="48.26499" lon="-4.0955">
        <ele>91.8</ele>
        <time>2020-06-08T13:52:35Z</time>
      </trkpt>
      <trkpt lat="48.26503" lon="-4.09551">
        <ele>92.1</ele>
        <time>2020-06-08T13:52:36Z</time>
      </trkpt>
      <trkpt lat="48.26506" lon="-4.09551">
        <ele>92.3</ele>
        <time>2020-06-08T13:52:37Z</time>
      </trkpt>
      <trkpt lat="48.2651" lon="-4.09551">
        <ele>92.6</ele>
        <time>2020-06-08T13:52:38Z</time>
      </trkpt>
      <trkpt lat="48.26512" lon="-4.09551">
        <ele>92.6</ele>
        <time>2020-06-08T13:52:39Z</time>
      </trkpt>
      <trkpt lat="48.26515" lon="-4.09551">
        <ele>92.8</ele>
        <time>2020-06-08T13:52:40Z</time>
      </trkpt>
      <trkpt lat="48.26519" lon="-4.0955">
        <ele>93.1</ele>
        <time>2020-06-08T13:52:41Z</time>
      </trkpt>
      <trkpt lat="48.2652" lon="-4.0955">
        <ele>93.1</ele>
        <time>2020-06-08T13:52:42Z</time>
      </trkpt>
      <trkpt lat="48.26524" lon="-4.09549">
        <ele>93.3</ele>
        <time>2020-06-08T13:52:43Z</time>
      </trkpt>
      <trkpt lat="48.26527" lon="-4.0955">
        <ele>93.4</ele>
        <time>2020-06-08T13:52:44Z</time>
      </trkpt>
      <trkpt lat="48.26528" lon="-4.0955">
        <ele>93.5</ele>
        <time>2020-06-08T13:52:45Z</time>
      </trkpt>
      <trkpt lat="48.26531" lon="-4.0955">
        <ele>93.6</ele>
        <time>2020-06-08T13:52:46Z</time>
      </trkpt>
      <trkpt lat="48.26532" lon="-4.09549">
        <ele>93.6</ele>
        <time>2020-06-08T13:52:47Z</time>
      </trkpt>
      <trkpt lat="48.26536" lon="-4.0955">
        <ele>93.7</ele>
        <time>2020-06-08T13:52:48Z</time>
      </trkpt>
      <trkpt lat="48.26537" lon="-4.0955">
        <ele>93.7</ele>
        <time>2020-06-08T13:52:49Z</time>
      </trkpt>
      <trkpt lat="48.2654" lon="-4.09551">
        <ele>93.7</ele>
        <time>2020-06-08T13:52:50Z</time>
      </trkpt>
      <trkpt lat="48.26542" lon="-4.09553">
        <ele>93.8</ele>
        <time>2020-06-08T13:52:51Z</time>
      </trkpt>
      <trkpt lat="48.26544" lon="-4.09555">
        <ele>93.8</ele>
        <time>2020-06-08T13:52:52Z</time>
      </trkpt>
      <trkpt lat="48.26545" lon="-4.09556">
        <ele>93.9</ele>
        <time>2020-06-08T13:52:53Z</time>
      </trkpt>
      <trkpt lat="48.26547" lon="-4.09556">
        <ele>94</ele>
        <time>2020-06-08T13:52:54Z</time>
      </trkpt>
      <trkpt lat="48.26548" lon="-4.09556">
        <ele>94.1</ele>
        <time>2020-06-08T13:52:55Z</time>
      </trkpt>
      <trkpt lat="48.26551" lon="-4.09557">
        <ele>93.9</ele>
        <time>2020-06-08T13:52:56Z</time>
      </trkpt>
      <trkpt lat="48.26552" lon="-4.09557">
        <ele>93.9</ele>
        <time>2020-06-08T13:52:57Z</time>
      </trkpt>
      <trkpt lat="48.26553" lon="-4.09557">
        <ele>93.9</ele>
        <time>2020-06-08T13:52:58Z</time>
      </trkpt>
      <trkpt lat="48.26556" lon="-4.09555">
        <ele>93.9</ele>
        <time>2020-06-08T13:52:59Z</time>
      </trkpt>
      <trkpt lat="48.26557" lon="-4.09554">
        <ele>93.9</ele>
        <time>2020-06-08T13:53:00Z</time>
      </trkpt>
      <trkpt lat="48.2656" lon="-4.09554">
        <ele>93.9</ele>
        <time>2020-06-08T13:53:01Z</time>
      </trkpt>
      <trkpt lat="48.26563" lon="-4.09554">
        <ele>93.9</ele>
        <time>2020-06-08T13:53:02Z</time>
      </trkpt>
      <trkpt lat="48.26566" lon="-4.09555">
        <ele>94</ele>
        <time>2020-06-08T13:53:03Z</time>
      </trkpt>
      <trkpt lat="48.26569" lon="-4.09556">
        <ele>94</ele>
        <time>2020-06-08T13:53:04Z</time>
      </trkpt>
      <trkpt lat="48.26572" lon="-4.09557">
        <ele>94</ele>
        <time>2020-06-08T13:53:05Z</time>
      </trkpt>
      <trkpt lat="48.26573" lon="-4.09557">
        <ele>94</ele>
        <time>2020-06-08T13:53:06Z</time>
      </trkpt>
      <trkpt lat="48.26575" lon="-4.09558">
        <ele>94</ele>
        <time>2020-06-08T13:53:07Z</time>
      </trkpt>
      <trkpt lat="48.26576" lon="-4.09559">
        <ele>94</ele>
        <time>2020-06-08T13:53:08Z</time>
      </trkpt>
      <trkpt lat="48.26578" lon="-4.0956">
        <ele>94</ele>
        <time>2020-06-08T13:53:09Z</time>
      </trkpt>
      <trkpt lat="48.2658" lon="-4.09562">
        <ele>94</ele>
        <time>2020-06-08T13:53:10Z</time>
      </trkpt>
      <trkpt lat="48.26582" lon="-4.09563">
        <ele>94</ele>
        <time>2020-06-08T13:53:11Z</time>
      </trkpt>
      <trkpt lat="48.26585" lon="-4.09562">
        <ele>94</ele>
        <time>2020-06-08T13:53:12Z</time>
      </trkpt>
      <trkpt lat="48.26586" lon="-4.09562">
        <ele>94</ele>
        <time>2020-06-08T13:53:13Z</time>
      </trkpt>
      <trkpt lat="48.26589" lon="-4.09563">
        <ele>94</ele>
        <time>2020-06-08T13:53:14Z</time>
      </trkpt>
      <trkpt lat="48.2659" lon="-4.09563">
        <ele>94</ele>
        <time>2020-06-08T13:53:15Z</time>
      </trkpt>
      <trkpt lat="48.26593" lon="-4.09563">
        <ele>94</ele>
        <time>2020-06-08T13:53:16Z</time>
      </trkpt>
      <trkpt lat="48.26594" lon="-4.09563">
        <ele>94</ele>
        <time>2020-06-08T13:53:17Z</time>
      </trkpt>
      <trkpt lat="48.26597" lon="-4.09562">
        <ele>94.1</ele>
        <time>2020-06-08T13:53:18Z</time>
      </trkpt>
      <trkpt lat="48.26598" lon="-4.09562">
        <ele>94.1</ele>
        <time>2020-06-08T13:53:19Z</time>
      </trkpt>
      <trkpt lat="48.26601" lon="-4.09562">
        <ele>94.1</ele>
        <time>2020-06-08T13:53:20Z</time>
      </trkpt>
      <trkpt lat="48.26603" lon="-4.09561">
        <ele>94.1</ele>
        <time>2020-06-08T13:53:21Z</time>
      </trkpt>
      <trkpt lat="48.26607" lon="-4.09562">
        <ele>94.1</ele>
        <time>2020-06-08T13:53:22Z</time>
      </trkpt>
      <trkpt lat="48.26608" lon="-4.09562">
        <ele>94.2</ele>
        <time>2020-06-08T13:53:23Z</time>
      </trkpt>
      <trkpt lat="48.26611" lon="-4.09564">
        <ele>94.2</ele>
        <time>2020-06-08T13:53:24Z</time>
      </trkpt>
      <trkpt lat="48.26614" lon="-4.09565">
        <ele>94.2</ele>
        <time>2020-06-08T13:53:25Z</time>
      </trkpt>
      <trkpt lat="48.26615" lon="-4.09566">
        <ele>94.2</ele>
        <time>2020-06-08T13:53:26Z</time>
      </trkpt>
      <trkpt lat="48.26619" lon="-4.09566">
        <ele>94.2</ele>
        <time>2020-06-08T13:53:27Z</time>
      </trkpt>
      <trkpt lat="48.2662" lon="-4.09567">
        <ele>94.2</ele>
        <time>2020-06-08T13:53:28Z</time>
      </trkpt>
      <trkpt lat="48.26624" lon="-4.09566">
        <ele>94.2</ele>
        <time>2020-06-08T13:53:29Z</time>
      </trkpt>
      <trkpt lat="48.26625" lon="-4.09565">
        <ele>94.2</ele>
        <time>2020-06-08T13:53:30Z</time>
      </trkpt>
      <trkpt lat="48.26628" lon="-4.09563">
        <ele>94.2</ele>
        <time>2020-06-08T13:53:31Z</time>
      </trkpt>
      <trkpt lat="48.26631" lon="-4.09564">
        <ele>94.2</ele>
        <time>2020-06-08T13:53:32Z</time>
      </trkpt>
      <trkpt lat="48.26634" lon="-4.09565">
        <ele>94.2</ele>
        <time>2020-06-08T13:53:33Z</time>
      </trkpt>
      <trkpt lat="48.26635" lon="-4.09566">
        <ele>94.2</ele>
        <time>2020-06-08T13:53:34Z</time>
      </trkpt>
      <trkpt lat="48.26636" lon="-4.09565">
        <ele>94.2</ele>
        <time>2020-06-08T13:53:35Z</time>
      </trkpt>
      <trkpt lat="48.26638" lon="-4.09565">
        <ele>94.2</ele>
        <time>2020-06-08T13:53:36Z</time>
      </trkpt>
      <trkpt lat="48.26639" lon="-4.09564">
        <ele>94.2</ele>
        <time>2020-06-08T13:53:37Z</time>
      </trkpt>
      <trkpt lat="48.26641" lon="-4.09565">
        <ele>94.2</ele>
        <time>2020-06-08T13:53:38Z</time>
      </trkpt>
      <trkpt lat="48.26644" lon="-4.09565">
        <ele>94.2</ele>
        <time>2020-06-08T13:53:39Z</time>
      </trkpt>
      <trkpt lat="48.26645" lon="-4.09565">
        <ele>94.2</ele>
        <time>2020-06-08T13:53:40Z</time>
      </trkpt>
      <trkpt lat="48.26648" lon="-4.09566">
        <ele>94.2</ele>
        <time>2020-06-08T13:53:41Z</time>
      </trkpt>
      <trkpt lat="48.26648" lon="-4.09567">
        <ele>94.2</ele>
        <time>2020-06-08T13:53:42Z</time>
      </trkpt>
      <trkpt lat="48.2665" lon="-4.09568">
        <ele>94.1</ele>
        <time>2020-06-08T13:53:43Z</time>
      </trkpt>
      <trkpt lat="48.26651" lon="-4.09567">
        <ele>94.1</ele>
        <time>2020-06-08T13:53:44Z</time>
      </trkpt>
      <trkpt lat="48.26652" lon="-4.09568">
        <ele>94.1</ele>
        <time>2020-06-08T13:53:45Z</time>
      </trkpt>
      <trkpt lat="48.26653" lon="-4.09569">
        <ele>94.1</ele>
        <time>2020-06-08T13:53:46Z</time>
      </trkpt>
      <trkpt lat="48.26655" lon="-4.09568">
        <ele>94.1</ele>
        <time>2020-06-08T13:53:47Z</time>
      </trkpt>
      <trkpt lat="48.26658" lon="-4.09569">
        <ele>94</ele>
        <time>2020-06-08T13:53:48Z</time>
      </trkpt>
      <trkpt lat="48.26659" lon="-4.09569">
        <ele>94</ele>
        <time>2020-06-08T13:53:49Z</time>
      </trkpt>
      <trkpt lat="48.26661" lon="-4.0957">
        <ele>94</ele>
        <time>2020-06-08T13:53:50Z</time>
      </trkpt>
      <trkpt lat="48.26662" lon="-4.09571">
        <ele>93.9</ele>
        <time>2020-06-08T13:53:51Z</time>
      </trkpt>
      <trkpt lat="48.26663" lon="-4.09571">
        <ele>93.9</ele>
        <time>2020-06-08T13:53:52Z</time>
      </trkpt>
      <trkpt lat="48.26666" lon="-4.09571">
        <ele>93.8</ele>
        <time>2020-06-08T13:53:53Z</time>
      </trkpt>
      <trkpt lat="48.26667" lon="-4.09571">
        <ele>93.8</ele>
        <time>2020-06-08T13:53:54Z</time>
      </trkpt>
      <trkpt lat="48.2667" lon="-4.09572">
        <ele>93.7</ele>
        <time>2020-06-08T13:53:55Z</time>
      </trkpt>
      <trkpt lat="48.26671" lon="-4.09572">
        <ele>93.7</ele>
        <time>2020-06-08T13:53:56Z</time>
      </trkpt>
      <trkpt lat="48.26673" lon="-4.0957">
        <ele>93.7</ele>
        <time>2020-06-08T13:53:57Z</time>
      </trkpt>
      <trkpt lat="48.26674" lon="-4.09569">
        <ele>93.6</ele>
        <time>2020-06-08T13:53:58Z</time>
      </trkpt>
      <trkpt lat="48.26677" lon="-4.09568">
        <ele>93.6</ele>
        <time>2020-06-08T13:53:59Z</time>
      </trkpt>
      <trkpt lat="48.26678" lon="-4.09568">
        <ele>93.5</ele>
        <time>2020-06-08T13:54:00Z</time>
      </trkpt>
      <trkpt lat="48.26682" lon="-4.09568">
        <ele>93.5</ele>
        <time>2020-06-08T13:54:01Z</time>
      </trkpt>
      <trkpt lat="48.26683" lon="-4.09568">
        <ele>93.4</ele>
        <time>2020-06-08T13:54:02Z</time>
      </trkpt>
      <trkpt lat="48.26686" lon="-4.09566">
        <ele>93.4</ele>
        <time>2020-06-08T13:54:03Z</time>
      </trkpt>
      <trkpt lat="48.26689" lon="-4.09564">
        <ele>93.2</ele>
        <time>2020-06-08T13:54:04Z</time>
      </trkpt>
      <trkpt lat="48.26691" lon="-4.09565">
        <ele>93.1</ele>
        <time>2020-06-08T13:54:05Z</time>
      </trkpt>
      <trkpt lat="48.26694" lon="-4.09565">
        <ele>93</ele>
        <time>2020-06-08T13:54:06Z</time>
      </trkpt>
      <trkpt lat="48.26697" lon="-4.09565">
        <ele>92.8</ele>
        <time>2020-06-08T13:54:07Z</time>
      </trkpt>
      <trkpt lat="48.267" lon="-4.09566">
        <ele>92.7</ele>
        <time>2020-06-08T13:54:08Z</time>
      </trkpt>
      <trkpt lat="48.26703" lon="-4.09566">
        <ele>92.5</ele>
        <time>2020-06-08T13:54:09Z</time>
      </trkpt>
      <trkpt lat="48.26707" lon="-4.09566">
        <ele>92.3</ele>
        <time>2020-06-08T13:54:10Z</time>
      </trkpt>
      <trkpt lat="48.26711" lon="-4.09567">
        <ele>92.1</ele>
        <time>2020-06-08T13:54:11Z</time>
      </trkpt>
      <trkpt lat="48.26714" lon="-4.09566">
        <ele>91.9</ele>
        <time>2020-06-08T13:54:12Z</time>
      </trkpt>
      <trkpt lat="48.26718" lon="-4.09564">
        <ele>91.7</ele>
        <time>2020-06-08T13:54:13Z</time>
      </trkpt>
      <trkpt lat="48.26722" lon="-4.09561">
        <ele>91.4</ele>
        <time>2020-06-08T13:54:14Z</time>
      </trkpt>
      <trkpt lat="48.26728" lon="-4.09561">
        <ele>91</ele>
        <time>2020-06-08T13:54:15Z</time>
      </trkpt>
      <trkpt lat="48.26733" lon="-4.09559">
        <ele>90.6</ele>
        <time>2020-06-08T13:54:16Z</time>
      </trkpt>
      <trkpt lat="48.26738" lon="-4.09557">
        <ele>90.2</ele>
        <time>2020-06-08T13:54:17Z</time>
      </trkpt>
      <trkpt lat="48.26743" lon="-4.09554">
        <ele>89.8</ele>
        <time>2020-06-08T13:54:18Z</time>
      </trkpt>
      <trkpt lat="48.2675" lon="-4.09549">
        <ele>89.1</ele>
        <time>2020-06-08T13:54:19Z</time>
      </trkpt>
      <trkpt lat="48.26757" lon="-4.09545">
        <ele>88.4</ele>
        <time>2020-06-08T13:54:20Z</time>
      </trkpt>
      <trkpt lat="48.26765" lon="-4.09542">
        <ele>87.8</ele>
        <time>2020-06-08T13:54:21Z</time>
      </trkpt>
      <trkpt lat="48.26773" lon="-4.09538">
        <ele>87.2</ele>
        <time>2020-06-08T13:54:22Z</time>
      </trkpt>
      <trkpt lat="48.26782" lon="-4.09535">
        <ele>86.5</ele>
        <time>2020-06-08T13:54:23Z</time>
      </trkpt>
      <trkpt lat="48.26791" lon="-4.09532">
        <ele>85.8</ele>
        <time>2020-06-08T13:54:24Z</time>
      </trkpt>
      <trkpt lat="48.268" lon="-4.09528">
        <ele>85.3</ele>
        <time>2020-06-08T13:54:25Z</time>
      </trkpt>
      <trkpt lat="48.26809" lon="-4.09526">
        <ele>84.9</ele>
        <time>2020-06-08T13:54:26Z</time>
      </trkpt>
      <trkpt lat="48.26819" lon="-4.09526">
        <ele>84.6</ele>
        <time>2020-06-08T13:54:27Z</time>
      </trkpt>
      <trkpt lat="48.26829" lon="-4.09527">
        <ele>84.2</ele>
        <time>2020-06-08T13:54:28Z</time>
      </trkpt>
      <trkpt lat="48.26838" lon="-4.0953">
        <ele>83.8</ele>
        <time>2020-06-08T13:54:29Z</time>
      </trkpt>
      <trkpt lat="48.26847" lon="-4.09534">
        <ele>83.3</ele>
        <time>2020-06-08T13:54:30Z</time>
      </trkpt>
      <trkpt lat="48.26856" lon="-4.09537">
        <ele>82.9</ele>
        <time>2020-06-08T13:54:31Z</time>
      </trkpt>
      <trkpt lat="48.26864" lon="-4.0954">
        <ele>82.6</ele>
        <time>2020-06-08T13:54:32Z</time>
      </trkpt>
      <trkpt lat="48.26873" lon="-4.09543">
        <ele>82.5</ele>
        <time>2020-06-08T13:54:33Z</time>
      </trkpt>
      <trkpt lat="48.26881" lon="-4.09546">
        <ele>82.4</ele>
        <time>2020-06-08T13:54:34Z</time>
      </trkpt>
      <trkpt lat="48.26889" lon="-4.09549">
        <ele>82.3</ele>
        <time>2020-06-08T13:54:35Z</time>
      </trkpt>
      <trkpt lat="48.26896" lon="-4.09553">
        <ele>82.3</ele>
        <time>2020-06-08T13:54:36Z</time>
      </trkpt>
      <trkpt lat="48.26903" lon="-4.09557">
        <ele>82.4</ele>
        <time>2020-06-08T13:54:37Z</time>
      </trkpt>
      <trkpt lat="48.2691" lon="-4.09561">
        <ele>82.4</ele>
        <time>2020-06-08T13:54:38Z</time>
      </trkpt>
      <trkpt lat="48.26916" lon="-4.09565">
        <ele>82.4</ele>
        <time>2020-06-08T13:54:39Z</time>
      </trkpt>
      <trkpt lat="48.26922" lon="-4.09569">
        <ele>82.5</ele>
        <time>2020-06-08T13:54:40Z</time>
      </trkpt>
      <trkpt lat="48.26928" lon="-4.09572">
        <ele>82.5</ele>
        <time>2020-06-08T13:54:41Z</time>
      </trkpt>
      <trkpt lat="48.26933" lon="-4.09575">
        <ele>82.6</ele>
        <time>2020-06-08T13:54:42Z</time>
      </trkpt>
      <trkpt lat="48.26939" lon="-4.09577">
        <ele>82.6</ele>
        <time>2020-06-08T13:54:43Z</time>
      </trkpt>
      <trkpt lat="48.26944" lon="-4.0958">
        <ele>82.7</ele>
        <time>2020-06-08T13:54:44Z</time>
      </trkpt>
      <trkpt lat="48.26949" lon="-4.09582">
        <ele>82.7</ele>
        <time>2020-06-08T13:54:45Z</time>
      </trkpt>
      <trkpt lat="48.26954" lon="-4.09586">
        <ele>82.8</ele>
        <time>2020-06-08T13:54:46Z</time>
      </trkpt>
      <trkpt lat="48.26959" lon="-4.09588">
        <ele>82.8</ele>
        <time>2020-06-08T13:54:47Z</time>
      </trkpt>
      <trkpt lat="48.26963" lon="-4.0959">
        <ele>82.9</ele>
        <time>2020-06-08T13:54:48Z</time>
      </trkpt>
      <trkpt lat="48.26967" lon="-4.09592">
        <ele>82.9</ele>
        <time>2020-06-08T13:54:49Z</time>
      </trkpt>
      <trkpt lat="48.26971" lon="-4.09595">
        <ele>83</ele>
        <time>2020-06-08T13:54:50Z</time>
      </trkpt>
      <trkpt lat="48.26974" lon="-4.09597">
        <ele>83</ele>
        <time>2020-06-08T13:54:51Z</time>
      </trkpt>
      <trkpt lat="48.26978" lon="-4.096">
        <ele>83.1</ele>
        <time>2020-06-08T13:54:52Z</time>
      </trkpt>
      <trkpt lat="48.26981" lon="-4.09603">
        <ele>83.1</ele>
        <time>2020-06-08T13:54:53Z</time>
      </trkpt>
      <trkpt lat="48.26985" lon="-4.09605">
        <ele>83.2</ele>
        <time>2020-06-08T13:54:54Z</time>
      </trkpt>
      <trkpt lat="48.26989" lon="-4.09608">
        <ele>83.2</ele>
        <time>2020-06-08T13:54:55Z</time>
      </trkpt>
      <trkpt lat="48.26993" lon="-4.0961">
        <ele>83.2</ele>
        <time>2020-06-08T13:54:56Z</time>
      </trkpt>
      <trkpt lat="48.26997" lon="-4.09612">
        <ele>83.3</ele>
        <time>2020-06-08T13:54:57Z</time>
      </trkpt>
      <trkpt lat="48.27001" lon="-4.09614">
        <ele>83.3</ele>
        <time>2020-06-08T13:54:58Z</time>
      </trkpt>
      <trkpt lat="48.27004" lon="-4.09616">
        <ele>83.3</ele>
        <time>2020-06-08T13:54:59Z</time>
      </trkpt>
      <trkpt lat="48.27008" lon="-4.09617">
        <ele>83.4</ele>
        <time>2020-06-08T13:55:00Z</time>
      </trkpt>
      <trkpt lat="48.27012" lon="-4.09619">
        <ele>83.4</ele>
        <time>2020-06-08T13:55:01Z</time>
      </trkpt>
      <trkpt lat="48.27015" lon="-4.09621">
        <ele>83.4</ele>
        <time>2020-06-08T13:55:02Z</time>
      </trkpt>
      <trkpt lat="48.27019" lon="-4.09623">
        <ele>83.5</ele>
        <time>2020-06-08T13:55:03Z</time>
      </trkpt>
      <trkpt lat="48.27023" lon="-4.09625">
        <ele>83.5</ele>
        <time>2020-06-08T13:55:04Z</time>
      </trkpt>
      <trkpt lat="48.27026" lon="-4.09627">
        <ele>83.5</ele>
        <time>2020-06-08T13:55:05Z</time>
      </trkpt>
      <trkpt lat="48.2703" lon="-4.09628">
        <ele>83.4</ele>
        <time>2020-06-08T13:55:06Z</time>
      </trkpt>
      <trkpt lat="48.27034" lon="-4.09629">
        <ele>83.4</ele>
        <time>2020-06-08T13:55:07Z</time>
      </trkpt>
      <trkpt lat="48.27037" lon="-4.09631">
        <ele>83.4</ele>
        <time>2020-06-08T13:55:08Z</time>
      </trkpt>
      <trkpt lat="48.27041" lon="-4.09633">
        <ele>83.4</ele>
        <time>2020-06-08T13:55:09Z</time>
      </trkpt>
      <trkpt lat="48.27044" lon="-4.09636">
        <ele>83.4</ele>
        <time>2020-06-08T13:55:10Z</time>
      </trkpt>
      <trkpt lat="48.27047" lon="-4.09638">
        <ele>83.4</ele>
        <time>2020-06-08T13:55:11Z</time>
      </trkpt>
      <trkpt lat="48.2705" lon="-4.0964">
        <ele>83.4</ele>
        <time>2020-06-08T13:55:12Z</time>
      </trkpt>
      <trkpt lat="48.27053" lon="-4.09643">
        <ele>83.5</ele>
        <time>2020-06-08T13:55:13Z</time>
      </trkpt>
      <trkpt lat="48.27056" lon="-4.09645">
        <ele>83.5</ele>
        <time>2020-06-08T13:55:14Z</time>
      </trkpt>
      <trkpt lat="48.27059" lon="-4.09647">
        <ele>83.6</ele>
        <time>2020-06-08T13:55:15Z</time>
      </trkpt>
      <trkpt lat="48.27062" lon="-4.09649">
        <ele>83.6</ele>
        <time>2020-06-08T13:55:16Z</time>
      </trkpt>
      <trkpt lat="48.27065" lon="-4.0965">
        <ele>83.7</ele>
        <time>2020-06-08T13:55:17Z</time>
      </trkpt>
      <trkpt lat="48.27069" lon="-4.09652">
        <ele>83.8</ele>
        <time>2020-06-08T13:55:18Z</time>
      </trkpt>
      <trkpt lat="48.2707" lon="-4.09652">
        <ele>83.8</ele>
        <time>2020-06-08T13:55:19Z</time>
      </trkpt>
      <trkpt lat="48.27072" lon="-4.09655">
        <ele>83.8</ele>
        <time>2020-06-08T13:55:20Z</time>
      </trkpt>
      <trkpt lat="48.27075" lon="-4.09657">
        <ele>83.9</ele>
        <time>2020-06-08T13:55:21Z</time>
      </trkpt>
      <trkpt lat="48.27078" lon="-4.09659">
        <ele>83.9</ele>
        <time>2020-06-08T13:55:22Z</time>
      </trkpt>
      <trkpt lat="48.27081" lon="-4.09661">
        <ele>84</ele>
        <time>2020-06-08T13:55:23Z</time>
      </trkpt>
      <trkpt lat="48.27084" lon="-4.09662">
        <ele>84.1</ele>
        <time>2020-06-08T13:55:24Z</time>
      </trkpt>
      <trkpt lat="48.27087" lon="-4.09664">
        <ele>84.1</ele>
        <time>2020-06-08T13:55:25Z</time>
      </trkpt>
      <trkpt lat="48.27089" lon="-4.09666">
        <ele>84.2</ele>
        <time>2020-06-08T13:55:26Z</time>
      </trkpt>
      <trkpt lat="48.27093" lon="-4.09667">
        <ele>84.3</ele>
        <time>2020-06-08T13:55:27Z</time>
      </trkpt>
      <trkpt lat="48.27096" lon="-4.0967">
        <ele>84.4</ele>
        <time>2020-06-08T13:55:28Z</time>
      </trkpt>
      <trkpt lat="48.27099" lon="-4.09672">
        <ele>84.5</ele>
        <time>2020-06-08T13:55:29Z</time>
      </trkpt>
      <trkpt lat="48.27102" lon="-4.09673">
        <ele>84.6</ele>
        <time>2020-06-08T13:55:30Z</time>
      </trkpt>
      <trkpt lat="48.27106" lon="-4.09674">
        <ele>84.7</ele>
        <time>2020-06-08T13:55:31Z</time>
      </trkpt>
      <trkpt lat="48.27109" lon="-4.09676">
        <ele>84.9</ele>
        <time>2020-06-08T13:55:32Z</time>
      </trkpt>
      <trkpt lat="48.27112" lon="-4.09678">
        <ele>85</ele>
        <time>2020-06-08T13:55:33Z</time>
      </trkpt>
      <trkpt lat="48.27115" lon="-4.09679">
        <ele>85.1</ele>
        <time>2020-06-08T13:55:34Z</time>
      </trkpt>
      <trkpt lat="48.27118" lon="-4.09681">
        <ele>85.2</ele>
        <time>2020-06-08T13:55:35Z</time>
      </trkpt>
      <trkpt lat="48.27121" lon="-4.09682">
        <ele>85.3</ele>
        <time>2020-06-08T13:55:36Z</time>
      </trkpt>
      <trkpt lat="48.27124" lon="-4.09683">
        <ele>85.4</ele>
        <time>2020-06-08T13:55:37Z</time>
      </trkpt>
      <trkpt lat="48.27127" lon="-4.09684">
        <ele>85.5</ele>
        <time>2020-06-08T13:55:38Z</time>
      </trkpt>
      <trkpt lat="48.2713" lon="-4.09686">
        <ele>85.5</ele>
        <time>2020-06-08T13:55:39Z</time>
      </trkpt>
      <trkpt lat="48.27133" lon="-4.09688">
        <ele>85.6</ele>
        <time>2020-06-08T13:55:40Z</time>
      </trkpt>
      <trkpt lat="48.27136" lon="-4.0969">
        <ele>85.7</ele>
        <time>2020-06-08T13:55:41Z</time>
      </trkpt>
      <trkpt lat="48.2714" lon="-4.09691">
        <ele>85.8</ele>
        <time>2020-06-08T13:55:42Z</time>
      </trkpt>
      <trkpt lat="48.27143" lon="-4.09693">
        <ele>85.9</ele>
        <time>2020-06-08T13:55:43Z</time>
      </trkpt>
      <trkpt lat="48.27147" lon="-4.09696">
        <ele>86</ele>
        <time>2020-06-08T13:55:44Z</time>
      </trkpt>
      <trkpt lat="48.2715" lon="-4.09698">
        <ele>86.1</ele>
        <time>2020-06-08T13:55:45Z</time>
      </trkpt>
      <trkpt lat="48.27153" lon="-4.09698">
        <ele>86.2</ele>
        <time>2020-06-08T13:55:46Z</time>
      </trkpt>
      <trkpt lat="48.27156" lon="-4.097">
        <ele>86.3</ele>
        <time>2020-06-08T13:55:47Z</time>
      </trkpt>
      <trkpt lat="48.2716" lon="-4.09701">
        <ele>86.4</ele>
        <time>2020-06-08T13:55:48Z</time>
      </trkpt>
      <trkpt lat="48.27163" lon="-4.09703">
        <ele>86.5</ele>
        <time>2020-06-08T13:55:49Z</time>
      </trkpt>
      <trkpt lat="48.27166" lon="-4.09707">
        <ele>86.6</ele>
        <time>2020-06-08T13:55:50Z</time>
      </trkpt>
      <trkpt lat="48.27168" lon="-4.09708">
        <ele>86.7</ele>
        <time>2020-06-08T13:55:51Z</time>
      </trkpt>
      <trkpt lat="48.27171" lon="-4.09711">
        <ele>86.8</ele>
        <time>2020-06-08T13:55:52Z</time>
      </trkpt>
      <trkpt lat="48.27175" lon="-4.09713">
        <ele>86.9</ele>
        <time>2020-06-08T13:55:53Z</time>
      </trkpt>
      <trkpt lat="48.27179" lon="-4.09715">
        <ele>87</ele>
        <time>2020-06-08T13:55:54Z</time>
      </trkpt>
      <trkpt lat="48.27183" lon="-4.09717">
        <ele>87.1</ele>
        <time>2020-06-08T13:55:55Z</time>
      </trkpt>
      <trkpt lat="48.27185" lon="-4.09717">
        <ele>87.2</ele>
        <time>2020-06-08T13:55:56Z</time>
      </trkpt>
      <trkpt lat="48.27188" lon="-4.09718">
        <ele>87.3</ele>
        <time>2020-06-08T13:55:57Z</time>
      </trkpt>
      <trkpt lat="48.27192" lon="-4.09719">
        <ele>87.4</ele>
        <time>2020-06-08T13:55:58Z</time>
      </trkpt>
      <trkpt lat="48.27195" lon="-4.0972">
        <ele>87.5</ele>
        <time>2020-06-08T13:55:59Z</time>
      </trkpt>
      <trkpt lat="48.27198" lon="-4.0972">
        <ele>87.6</ele>
        <time>2020-06-08T13:56:00Z</time>
      </trkpt>
      <trkpt lat="48.27201" lon="-4.09721">
        <ele>87.7</ele>
        <time>2020-06-08T13:56:01Z</time>
      </trkpt>
      <trkpt lat="48.27204" lon="-4.09723">
        <ele>87.8</ele>
        <time>2020-06-08T13:56:02Z</time>
      </trkpt>
      <trkpt lat="48.27207" lon="-4.09725">
        <ele>88</ele>
        <time>2020-06-08T13:56:03Z</time>
      </trkpt>
      <trkpt lat="48.2721" lon="-4.09727">
        <ele>88.1</ele>
        <time>2020-06-08T13:56:04Z</time>
      </trkpt>
      <trkpt lat="48.27213" lon="-4.09728">
        <ele>88.2</ele>
        <time>2020-06-08T13:56:05Z</time>
      </trkpt>
      <trkpt lat="48.27216" lon="-4.0973">
        <ele>88.3</ele>
        <time>2020-06-08T13:56:06Z</time>
      </trkpt>
      <trkpt lat="48.27219" lon="-4.09732">
        <ele>88.4</ele>
        <time>2020-06-08T13:56:07Z</time>
      </trkpt>
      <trkpt lat="48.27222" lon="-4.09734">
        <ele>88.5</ele>
        <time>2020-06-08T13:56:08Z</time>
      </trkpt>
      <trkpt lat="48.27225" lon="-4.09737">
        <ele>88.6</ele>
        <time>2020-06-08T13:56:09Z</time>
      </trkpt>
      <trkpt lat="48.27228" lon="-4.09739">
        <ele>88.7</ele>
        <time>2020-06-08T13:56:10Z</time>
      </trkpt>
      <trkpt lat="48.27231" lon="-4.09741">
        <ele>88.8</ele>
        <time>2020-06-08T13:56:11Z</time>
      </trkpt>
      <trkpt lat="48.27235" lon="-4.09744">
        <ele>89</ele>
        <time>2020-06-08T13:56:12Z</time>
      </trkpt>
      <trkpt lat="48.27239" lon="-4.09747">
        <ele>89.1</ele>
        <time>2020-06-08T13:56:13Z</time>
      </trkpt>
      <trkpt lat="48.2724" lon="-4.09748">
        <ele>89.2</ele>
        <time>2020-06-08T13:56:14Z</time>
      </trkpt>
      <trkpt lat="48.27243" lon="-4.09749">
        <ele>89.2</ele>
        <time>2020-06-08T13:56:15Z</time>
      </trkpt>
      <trkpt lat="48.27247" lon="-4.0975">
        <ele>89.4</ele>
        <time>2020-06-08T13:56:16Z</time>
      </trkpt>
      <trkpt lat="48.27249" lon="-4.09751">
        <ele>89.4</ele>
        <time>2020-06-08T13:56:17Z</time>
      </trkpt>
      <trkpt lat="48.27253" lon="-4.09753">
        <ele>89.6</ele>
        <time>2020-06-08T13:56:18Z</time>
      </trkpt>
      <trkpt lat="48.27256" lon="-4.09754">
        <ele>89.6</ele>
        <time>2020-06-08T13:56:19Z</time>
      </trkpt>
      <trkpt lat="48.27257" lon="-4.09754">
        <ele>89.7</ele>
        <time>2020-06-08T13:56:20Z</time>
      </trkpt>
      <trkpt lat="48.2726" lon="-4.09756">
        <ele>89.8</ele>
        <time>2020-06-08T13:56:21Z</time>
      </trkpt>
      <trkpt lat="48.27264" lon="-4.09757">
        <ele>89.9</ele>
        <time>2020-06-08T13:56:22Z</time>
      </trkpt>
      <trkpt lat="48.27268" lon="-4.0976">
        <ele>90</ele>
        <time>2020-06-08T13:56:23Z</time>
      </trkpt>
      <trkpt lat="48.27271" lon="-4.0976">
        <ele>90.1</ele>
        <time>2020-06-08T13:56:24Z</time>
      </trkpt>
      <trkpt lat="48.27274" lon="-4.09763">
        <ele>90.2</ele>
        <time>2020-06-08T13:56:25Z</time>
      </trkpt>
      <trkpt lat="48.27276" lon="-4.09764">
        <ele>90.3</ele>
        <time>2020-06-08T13:56:26Z</time>
      </trkpt>
      <trkpt lat="48.27279" lon="-4.09765">
        <ele>90.3</ele>
        <time>2020-06-08T13:56:27Z</time>
      </trkpt>
      <trkpt lat="48.27282" lon="-4.09767">
        <ele>90.4</ele>
        <time>2020-06-08T13:56:28Z</time>
      </trkpt>
      <trkpt lat="48.27285" lon="-4.0977">
        <ele>90.5</ele>
        <time>2020-06-08T13:56:29Z</time>
      </trkpt>
      <trkpt lat="48.27289" lon="-4.09773">
        <ele>90.6</ele>
        <time>2020-06-08T13:56:30Z</time>
      </trkpt>
      <trkpt lat="48.27292" lon="-4.09775">
        <ele>90.6</ele>
        <time>2020-06-08T13:56:31Z</time>
      </trkpt>
      <trkpt lat="48.27294" lon="-4.0978">
        <ele>90.6</ele>
        <time>2020-06-08T13:56:32Z</time>
      </trkpt>
      <trkpt lat="48.27296" lon="-4.09783">
        <ele>90.6</ele>
        <time>2020-06-08T13:56:33Z</time>
      </trkpt>
      <trkpt lat="48.27299" lon="-4.09784">
        <ele>90.7</ele>
        <time>2020-06-08T13:56:34Z</time>
      </trkpt>
      <trkpt lat="48.27301" lon="-4.09786">
        <ele>90.7</ele>
        <time>2020-06-08T13:56:35Z</time>
      </trkpt>
      <trkpt lat="48.27304" lon="-4.09788">
        <ele>90.7</ele>
        <time>2020-06-08T13:56:36Z</time>
      </trkpt>
      <trkpt lat="48.27307" lon="-4.09789">
        <ele>90.7</ele>
        <time>2020-06-08T13:56:37Z</time>
      </trkpt>
      <trkpt lat="48.2731" lon="-4.09792">
        <ele>90.8</ele>
        <time>2020-06-08T13:56:38Z</time>
      </trkpt>
      <trkpt lat="48.27313" lon="-4.09794">
        <ele>90.8</ele>
        <time>2020-06-08T13:56:39Z</time>
      </trkpt>
      <trkpt lat="48.27316" lon="-4.09796">
        <ele>90.8</ele>
        <time>2020-06-08T13:56:40Z</time>
      </trkpt>
      <trkpt lat="48.27319" lon="-4.09797">
        <ele>90.9</ele>
        <time>2020-06-08T13:56:41Z</time>
      </trkpt>
      <trkpt lat="48.27323" lon="-4.09797">
        <ele>90.9</ele>
        <time>2020-06-08T13:56:42Z</time>
      </trkpt>
      <trkpt lat="48.27327" lon="-4.09796">
        <ele>90.9</ele>
        <time>2020-06-08T13:56:43Z</time>
      </trkpt>
      <trkpt lat="48.27328" lon="-4.09795">
        <ele>90.9</ele>
        <time>2020-06-08T13:56:44Z</time>
      </trkpt>
      <trkpt lat="48.27332" lon="-4.09796">
        <ele>90.9</ele>
        <time>2020-06-08T13:56:45Z</time>
      </trkpt>
      <trkpt lat="48.27336" lon="-4.09797">
        <ele>90.9</ele>
        <time>2020-06-08T13:56:46Z</time>
      </trkpt>
      <trkpt lat="48.2734" lon="-4.09797">
        <ele>90.8</ele>
        <time>2020-06-08T13:56:47Z</time>
      </trkpt>
      <trkpt lat="48.27344" lon="-4.09798">
        <ele>90.7</ele>
        <time>2020-06-08T13:56:48Z</time>
      </trkpt>
      <trkpt lat="48.27348" lon="-4.09802">
        <ele>90.6</ele>
        <time>2020-06-08T13:56:49Z</time>
      </trkpt>
      <trkpt lat="48.27351" lon="-4.09805">
        <ele>90.5</ele>
        <time>2020-06-08T13:56:50Z</time>
      </trkpt>
      <trkpt lat="48.27353" lon="-4.09808">
        <ele>90.4</ele>
        <time>2020-06-08T13:56:51Z</time>
      </trkpt>
      <trkpt lat="48.27356" lon="-4.0981">
        <ele>90.3</ele>
        <time>2020-06-08T13:56:52Z</time>
      </trkpt>
      <trkpt lat="48.2736" lon="-4.09814">
        <ele>90.1</ele>
        <time>2020-06-08T13:56:53Z</time>
      </trkpt>
      <trkpt lat="48.27364" lon="-4.09815">
        <ele>89.9</ele>
        <time>2020-06-08T13:56:54Z</time>
      </trkpt>
      <trkpt lat="48.27368" lon="-4.09817">
        <ele>89.7</ele>
        <time>2020-06-08T13:56:55Z</time>
      </trkpt>
      <trkpt lat="48.27373" lon="-4.0982">
        <ele>89.5</ele>
        <time>2020-06-08T13:56:56Z</time>
      </trkpt>
      <trkpt lat="48.27379" lon="-4.09824">
        <ele>89.2</ele>
        <time>2020-06-08T13:56:57Z</time>
      </trkpt>
      <trkpt lat="48.27385" lon="-4.09829">
        <ele>88.8</ele>
        <time>2020-06-08T13:56:58Z</time>
      </trkpt>
      <trkpt lat="48.27392" lon="-4.09836">
        <ele>88.3</ele>
        <time>2020-06-08T13:56:59Z</time>
      </trkpt>
      <trkpt lat="48.274" lon="-4.09841">
        <ele>87.8</ele>
        <time>2020-06-08T13:57:00Z</time>
      </trkpt>
      <trkpt lat="48.27406" lon="-4.09845">
        <ele>87.5</ele>
        <time>2020-06-08T13:57:01Z</time>
      </trkpt>
      <trkpt lat="48.27412" lon="-4.0985">
        <ele>87.2</ele>
        <time>2020-06-08T13:57:02Z</time>
      </trkpt>
      <trkpt lat="48.27418" lon="-4.09854">
        <ele>86.7</ele>
        <time>2020-06-08T13:57:03Z</time>
      </trkpt>
      <trkpt lat="48.27426" lon="-4.09858">
        <ele>86.3</ele>
        <time>2020-06-08T13:57:04Z</time>
      </trkpt>
      <trkpt lat="48.27434" lon="-4.09862">
        <ele>85.8</ele>
        <time>2020-06-08T13:57:05Z</time>
      </trkpt>
      <trkpt lat="48.27442" lon="-4.09865">
        <ele>85.4</ele>
        <time>2020-06-08T13:57:06Z</time>
      </trkpt>
      <trkpt lat="48.27449" lon="-4.09869">
        <ele>84.9</ele>
        <time>2020-06-08T13:57:07Z</time>
      </trkpt>
      <trkpt lat="48.27458" lon="-4.09874">
        <ele>84.5</ele>
        <time>2020-06-08T13:57:08Z</time>
      </trkpt>
      <trkpt lat="48.27466" lon="-4.09879">
        <ele>84</ele>
        <time>2020-06-08T13:57:09Z</time>
      </trkpt>
      <trkpt lat="48.27474" lon="-4.09884">
        <ele>83.6</ele>
        <time>2020-06-08T13:57:10Z</time>
      </trkpt>
      <trkpt lat="48.27483" lon="-4.0989">
        <ele>83.3</ele>
        <time>2020-06-08T13:57:11Z</time>
      </trkpt>
      <trkpt lat="48.27491" lon="-4.09895">
        <ele>82.9</ele>
        <time>2020-06-08T13:57:12Z</time>
      </trkpt>
      <trkpt lat="48.275" lon="-4.099">
        <ele>82.6</ele>
        <time>2020-06-08T13:57:13Z</time>
      </trkpt>
      <trkpt lat="48.27509" lon="-4.09905">
        <ele>82.3</ele>
        <time>2020-06-08T13:57:14Z</time>
      </trkpt>
      <trkpt lat="48.27518" lon="-4.0991">
        <ele>82.1</ele>
        <time>2020-06-08T13:57:15Z</time>
      </trkpt>
      <trkpt lat="48.27527" lon="-4.09916">
        <ele>82</ele>
        <time>2020-06-08T13:57:16Z</time>
      </trkpt>
      <trkpt lat="48.27536" lon="-4.09921">
        <ele>81.9</ele>
        <time>2020-06-08T13:57:17Z</time>
      </trkpt>
      <trkpt lat="48.27545" lon="-4.09926">
        <ele>81.9</ele>
        <time>2020-06-08T13:57:18Z</time>
      </trkpt>
      <trkpt lat="48.27554" lon="-4.09931">
        <ele>82</ele>
        <time>2020-06-08T13:57:19Z</time>
      </trkpt>
      <trkpt lat="48.27562" lon="-4.09935">
        <ele>82.2</ele>
        <time>2020-06-08T13:57:20Z</time>
      </trkpt>
      <trkpt lat="48.2757" lon="-4.0994">
        <ele>82.5</ele>
        <time>2020-06-08T13:57:21Z</time>
      </trkpt>
      <trkpt lat="48.27578" lon="-4.09944">
        <ele>82.9</ele>
        <time>2020-06-08T13:57:22Z</time>
      </trkpt>
      <trkpt lat="48.27586" lon="-4.09948">
        <ele>83.3</ele>
        <time>2020-06-08T13:57:23Z</time>
      </trkpt>
      <trkpt lat="48.27593" lon="-4.09952">
        <ele>83.6</ele>
        <time>2020-06-08T13:57:24Z</time>
      </trkpt>
      <trkpt lat="48.276" lon="-4.09956">
        <ele>84</ele>
        <time>2020-06-08T13:57:25Z</time>
      </trkpt>
      <trkpt lat="48.27607" lon="-4.09959">
        <ele>84.3</ele>
        <time>2020-06-08T13:57:26Z</time>
      </trkpt>
      <trkpt lat="48.27613" lon="-4.09962">
        <ele>84.8</ele>
        <time>2020-06-08T13:57:27Z</time>
      </trkpt>
      <trkpt lat="48.2762" lon="-4.09966">
        <ele>85.3</ele>
        <time>2020-06-08T13:57:28Z</time>
      </trkpt>
      <trkpt lat="48.27625" lon="-4.09969">
        <ele>85.7</ele>
        <time>2020-06-08T13:57:29Z</time>
      </trkpt>
      <trkpt lat="48.2763" lon="-4.09973">
        <ele>86.2</ele>
        <time>2020-06-08T13:57:30Z</time>
      </trkpt>
      <trkpt lat="48.27634" lon="-4.09976">
        <ele>86.6</ele>
        <time>2020-06-08T13:57:31Z</time>
      </trkpt>
      <trkpt lat="48.27638" lon="-4.09978">
        <ele>87</ele>
        <time>2020-06-08T13:57:32Z</time>
      </trkpt>
      <trkpt lat="48.27643" lon="-4.09979">
        <ele>87.5</ele>
        <time>2020-06-08T13:57:33Z</time>
      </trkpt>
      <trkpt lat="48.27646" lon="-4.09981">
        <ele>87.9</ele>
        <time>2020-06-08T13:57:34Z</time>
      </trkpt>
      <trkpt lat="48.2765" lon="-4.09983">
        <ele>88.4</ele>
        <time>2020-06-08T13:57:35Z</time>
      </trkpt>
      <trkpt lat="48.27654" lon="-4.09984">
        <ele>88.8</ele>
        <time>2020-06-08T13:57:36Z</time>
      </trkpt>
      <trkpt lat="48.27657" lon="-4.09986">
        <ele>89.2</ele>
        <time>2020-06-08T13:57:37Z</time>
      </trkpt>
      <trkpt lat="48.27661" lon="-4.09987">
        <ele>89.7</ele>
        <time>2020-06-08T13:57:38Z</time>
      </trkpt>
      <trkpt lat="48.27664" lon="-4.09989">
        <ele>90</ele>
        <time>2020-06-08T13:57:39Z</time>
      </trkpt>
      <trkpt lat="48.27666" lon="-4.09991">
        <ele>90.3</ele>
        <time>2020-06-08T13:57:40Z</time>
      </trkpt>
      <trkpt lat="48.2767" lon="-4.09993">
        <ele>90.8</ele>
        <time>2020-06-08T13:57:41Z</time>
      </trkpt>
      <trkpt lat="48.27671" lon="-4.09993">
        <ele>90.9</ele>
        <time>2020-06-08T13:57:42Z</time>
      </trkpt>
      <trkpt lat="48.27674" lon="-4.09996">
        <ele>91.3</ele>
        <time>2020-06-08T13:57:43Z</time>
      </trkpt>
      <trkpt lat="48.27675" lon="-4.09997">
        <ele>91.5</ele>
        <time>2020-06-08T13:57:44Z</time>
      </trkpt>
      <trkpt lat="48.27678" lon="-4.09999">
        <ele>91.9</ele>
        <time>2020-06-08T13:57:45Z</time>
      </trkpt>
      <trkpt lat="48.27679" lon="-4.09999">
        <ele>92</ele>
        <time>2020-06-08T13:57:46Z</time>
      </trkpt>
      <trkpt lat="48.27681" lon="-4.1">
        <ele>92.3</ele>
        <time>2020-06-08T13:57:47Z</time>
      </trkpt>
      <trkpt lat="48.27682" lon="-4.1">
        <ele>92.5</ele>
        <time>2020-06-08T13:57:48Z</time>
      </trkpt>
      <trkpt lat="48.27686" lon="-4.1">
        <ele>93</ele>
        <time>2020-06-08T13:57:49Z</time>
      </trkpt>
      <trkpt lat="48.27688" lon="-4.1">
        <ele>93.2</ele>
        <time>2020-06-08T13:57:50Z</time>
      </trkpt>
      <trkpt lat="48.27688" lon="-4.10001">
        <ele>93.3</ele>
        <time>2020-06-08T13:57:51Z</time>
      </trkpt>
      <trkpt lat="48.2769" lon="-4.10003">
        <ele>93.6</ele>
        <time>2020-06-08T13:57:52Z</time>
      </trkpt>
      <trkpt lat="48.27691" lon="-4.10004">
        <ele>93.8</ele>
        <time>2020-06-08T13:57:53Z</time>
      </trkpt>
      <trkpt lat="48.27693" lon="-4.10004">
        <ele>94</ele>
        <time>2020-06-08T13:57:54Z</time>
      </trkpt>
      <trkpt lat="48.27696" lon="-4.10007">
        <ele>94.4</ele>
        <time>2020-06-08T13:57:55Z</time>
      </trkpt>
      <trkpt lat="48.27696" lon="-4.10007">
        <ele>94.4</ele>
        <time>2020-06-08T13:57:56Z</time>
      </trkpt>
      <trkpt lat="48.27699" lon="-4.10009">
        <ele>94.8</ele>
        <time>2020-06-08T13:57:57Z</time>
      </trkpt>
      <trkpt lat="48.277" lon="-4.10009">
        <ele>94.9</ele>
        <time>2020-06-08T13:57:58Z</time>
      </trkpt>
      <trkpt lat="48.27703" lon="-4.10012">
        <ele>95.3</ele>
        <time>2020-06-08T13:57:59Z</time>
      </trkpt>
      <trkpt lat="48.27704" lon="-4.10013">
        <ele>95.5</ele>
        <time>2020-06-08T13:58:00Z</time>
      </trkpt>
      <trkpt lat="48.27708" lon="-4.10015">
        <ele>95.9</ele>
        <time>2020-06-08T13:58:01Z</time>
      </trkpt>
      <trkpt lat="48.27709" lon="-4.10016">
        <ele>96</ele>
        <time>2020-06-08T13:58:02Z</time>
      </trkpt>
      <trkpt lat="48.27712" lon="-4.10018">
        <ele>96.3</ele>
        <time>2020-06-08T13:58:03Z</time>
      </trkpt>
      <trkpt lat="48.27713" lon="-4.10018">
        <ele>96.4</ele>
        <time>2020-06-08T13:58:04Z</time>
      </trkpt>
      <trkpt lat="48.27716" lon="-4.1002">
        <ele>96.7</ele>
        <time>2020-06-08T13:58:05Z</time>
      </trkpt>
      <trkpt lat="48.27718" lon="-4.10021">
        <ele>96.9</ele>
        <time>2020-06-08T13:58:06Z</time>
      </trkpt>
      <trkpt lat="48.2772" lon="-4.10023">
        <ele>97.1</ele>
        <time>2020-06-08T13:58:07Z</time>
      </trkpt>
      <trkpt lat="48.27723" lon="-4.10025">
        <ele>97.4</ele>
        <time>2020-06-08T13:58:08Z</time>
      </trkpt>
      <trkpt lat="48.27724" lon="-4.10025">
        <ele>97.5</ele>
        <time>2020-06-08T13:58:09Z</time>
      </trkpt>
      <trkpt lat="48.27727" lon="-4.10028">
        <ele>97.8</ele>
        <time>2020-06-08T13:58:10Z</time>
      </trkpt>
      <trkpt lat="48.2773" lon="-4.1003">
        <ele>98.1</ele>
        <time>2020-06-08T13:58:11Z</time>
      </trkpt>
      <trkpt lat="48.27731" lon="-4.10031">
        <ele>98.2</ele>
        <time>2020-06-08T13:58:12Z</time>
      </trkpt>
      <trkpt lat="48.27735" lon="-4.10034">
        <ele>98.5</ele>
        <time>2020-06-08T13:58:13Z</time>
      </trkpt>
      <trkpt lat="48.27736" lon="-4.10035">
        <ele>98.6</ele>
        <time>2020-06-08T13:58:14Z</time>
      </trkpt>
      <trkpt lat="48.27738" lon="-4.10037">
        <ele>98.8</ele>
        <time>2020-06-08T13:58:15Z</time>
      </trkpt>
      <trkpt lat="48.27741" lon="-4.10039">
        <ele>99</ele>
        <time>2020-06-08T13:58:16Z</time>
      </trkpt>
      <trkpt lat="48.27743" lon="-4.10042">
        <ele>99.2</ele>
        <time>2020-06-08T13:58:17Z</time>
      </trkpt>
      <trkpt lat="48.27746" lon="-4.10045">
        <ele>99.4</ele>
        <time>2020-06-08T13:58:18Z</time>
      </trkpt>
      <trkpt lat="48.27747" lon="-4.10046">
        <ele>99.5</ele>
        <time>2020-06-08T13:58:19Z</time>
      </trkpt>
      <trkpt lat="48.27751" lon="-4.10048">
        <ele>99.7</ele>
        <time>2020-06-08T13:58:20Z</time>
      </trkpt>
      <trkpt lat="48.27752" lon="-4.10049">
        <ele>99.8</ele>
        <time>2020-06-08T13:58:21Z</time>
      </trkpt>
      <trkpt lat="48.27755" lon="-4.10051">
        <ele>99.9</ele>
        <time>2020-06-08T13:58:22Z</time>
      </trkpt>
      <trkpt lat="48.27758" lon="-4.10054">
        <ele>100.1</ele>
        <time>2020-06-08T13:58:23Z</time>
      </trkpt>
      <trkpt lat="48.27759" lon="-4.10055">
        <ele>100.1</ele>
        <time>2020-06-08T13:58:24Z</time>
      </trkpt>
      <trkpt lat="48.27761" lon="-4.10057">
        <ele>100.3</ele>
        <time>2020-06-08T13:58:25Z</time>
      </trkpt>
      <trkpt lat="48.27762" lon="-4.10058">
        <ele>100.3</ele>
        <time>2020-06-08T13:58:26Z</time>
      </trkpt>
      <trkpt lat="48.27765" lon="-4.1006">
        <ele>100.4</ele>
        <time>2020-06-08T13:58:27Z</time>
      </trkpt>
      <trkpt lat="48.27765" lon="-4.1006">
        <ele>100.5</ele>
        <time>2020-06-08T13:58:28Z</time>
      </trkpt>
      <trkpt lat="48.27767" lon="-4.10062">
        <ele>100.5</ele>
        <time>2020-06-08T13:58:29Z</time>
      </trkpt>
      <trkpt lat="48.27768" lon="-4.10064">
        <ele>100.6</ele>
        <time>2020-06-08T13:58:30Z</time>
      </trkpt>
      <trkpt lat="48.2777" lon="-4.10068">
        <ele>100.8</ele>
        <time>2020-06-08T13:58:31Z</time>
      </trkpt>
      <trkpt lat="48.27771" lon="-4.10069">
        <ele>100.8</ele>
        <time>2020-06-08T13:58:32Z</time>
      </trkpt>
      <trkpt lat="48.27774" lon="-4.10073">
        <ele>100.9</ele>
        <time>2020-06-08T13:58:33Z</time>
      </trkpt>
      <trkpt lat="48.27774" lon="-4.10074">
        <ele>101</ele>
        <time>2020-06-08T13:58:34Z</time>
      </trkpt>
      <trkpt lat="48.27777" lon="-4.10077">
        <ele>101.1</ele>
        <time>2020-06-08T13:58:35Z</time>
      </trkpt>
      <trkpt lat="48.27778" lon="-4.10078">
        <ele>101.1</ele>
        <time>2020-06-08T13:58:36Z</time>
      </trkpt>
      <trkpt lat="48.2778" lon="-4.10081">
        <ele>101.2</ele>
        <time>2020-06-08T13:58:37Z</time>
      </trkpt>
      <trkpt lat="48.27781" lon="-4.10082">
        <ele>101.3</ele>
        <time>2020-06-08T13:58:38Z</time>
      </trkpt>
      <trkpt lat="48.27784" lon="-4.10084">
        <ele>101.3</ele>
        <time>2020-06-08T13:58:39Z</time>
      </trkpt>
      <trkpt lat="48.27785" lon="-4.10084">
        <ele>101.3</ele>
        <time>2020-06-08T13:58:40Z</time>
      </trkpt>
      <trkpt lat="48.27788" lon="-4.10085">
        <ele>101.4</ele>
        <time>2020-06-08T13:58:41Z</time>
      </trkpt>
      <trkpt lat="48.27789" lon="-4.10086">
        <ele>101.4</ele>
        <time>2020-06-08T13:58:42Z</time>
      </trkpt>
      <trkpt lat="48.27791" lon="-4.10089">
        <ele>101.4</ele>
        <time>2020-06-08T13:58:43Z</time>
      </trkpt>
      <trkpt lat="48.27791" lon="-4.1009">
        <ele>101.4</ele>
        <time>2020-06-08T13:58:44Z</time>
      </trkpt>
      <trkpt lat="48.27793" lon="-4.10092">
        <ele>101.4</ele>
        <time>2020-06-08T13:58:45Z</time>
      </trkpt>
      <trkpt lat="48.27794" lon="-4.10093">
        <ele>101.4</ele>
        <time>2020-06-08T13:58:46Z</time>
      </trkpt>
      <trkpt lat="48.27795" lon="-4.10096">
        <ele>101.5</ele>
        <time>2020-06-08T13:58:47Z</time>
      </trkpt>
      <trkpt lat="48.27796" lon="-4.10097">
        <ele>101.5</ele>
        <time>2020-06-08T13:58:48Z</time>
      </trkpt>
      <trkpt lat="48.27797" lon="-4.10098">
        <ele>101.5</ele>
        <time>2020-06-08T13:58:49Z</time>
      </trkpt>
      <trkpt lat="48.27798" lon="-4.10099">
        <ele>101.5</ele>
        <time>2020-06-08T13:58:50Z</time>
      </trkpt>
      <trkpt lat="48.27799" lon="-4.101">
        <ele>101.5</ele>
        <time>2020-06-08T13:58:51Z</time>
      </trkpt>
      <trkpt lat="48.27802" lon="-4.10103">
        <ele>101.6</ele>
        <time>2020-06-08T13:58:52Z</time>
      </trkpt>
      <trkpt lat="48.27803" lon="-4.10104">
        <ele>101.6</ele>
        <time>2020-06-08T13:58:53Z</time>
      </trkpt>
      <trkpt lat="48.27806" lon="-4.10108">
        <ele>101.7</ele>
        <time>2020-06-08T13:58:54Z</time>
      </trkpt>
      <trkpt lat="48.27807" lon="-4.1011">
        <ele>101.7</ele>
        <time>2020-06-08T13:58:55Z</time>
      </trkpt>
      <trkpt lat="48.27809" lon="-4.10112">
        <ele>101.7</ele>
        <time>2020-06-08T13:58:56Z</time>
      </trkpt>
      <trkpt lat="48.27811" lon="-4.10115">
        <ele>101.8</ele>
        <time>2020-06-08T13:58:57Z</time>
      </trkpt>
      <trkpt lat="48.27814" lon="-4.10118">
        <ele>101.9</ele>
        <time>2020-06-08T13:58:58Z</time>
      </trkpt>
      <trkpt lat="48.27815" lon="-4.10119">
        <ele>101.9</ele>
        <time>2020-06-08T13:58:59Z</time>
      </trkpt>
      <trkpt lat="48.27816" lon="-4.1012">
        <ele>101.9</ele>
        <time>2020-06-08T13:59:00Z</time>
      </trkpt>
      <trkpt lat="48.27817" lon="-4.10122">
        <ele>102</ele>
        <time>2020-06-08T13:59:01Z</time>
      </trkpt>
      <trkpt lat="48.27819" lon="-4.10123">
        <ele>102</ele>
        <time>2020-06-08T13:59:02Z</time>
      </trkpt>
      <trkpt lat="48.2782" lon="-4.10125">
        <ele>102</ele>
        <time>2020-06-08T13:59:03Z</time>
      </trkpt>
      <trkpt lat="48.2782" lon="-4.10126">
        <ele>102</ele>
        <time>2020-06-08T13:59:04Z</time>
      </trkpt>
      <trkpt lat="48.27822" lon="-4.10127">
        <ele>102.1</ele>
        <time>2020-06-08T13:59:05Z</time>
      </trkpt>
      <trkpt lat="48.27824" lon="-4.10128">
        <ele>102.1</ele>
        <time>2020-06-08T13:59:06Z</time>
      </trkpt>
      <trkpt lat="48.27824" lon="-4.10129">
        <ele>102.1</ele>
        <time>2020-06-08T13:59:07Z</time>
      </trkpt>
      <trkpt lat="48.27825" lon="-4.10131">
        <ele>102.1</ele>
        <time>2020-06-08T13:59:08Z</time>
      </trkpt>
      <trkpt lat="48.27827" lon="-4.10132">
        <ele>102.2</ele>
        <time>2020-06-08T13:59:09Z</time>
      </trkpt>
      <trkpt lat="48.27828" lon="-4.10133">
        <ele>102.2</ele>
        <time>2020-06-08T13:59:10Z</time>
      </trkpt>
      <trkpt lat="48.27829" lon="-4.10134">
        <ele>102.2</ele>
        <time>2020-06-08T13:59:11Z</time>
      </trkpt>
      <trkpt lat="48.27831" lon="-4.10136">
        <ele>102.3</ele>
        <time>2020-06-08T13:59:12Z</time>
      </trkpt>
      <trkpt lat="48.27832" lon="-4.10137">
        <ele>102.3</ele>
        <time>2020-06-08T13:59:13Z</time>
      </trkpt>
      <trkpt lat="48.27833" lon="-4.10138">
        <ele>102.3</ele>
        <time>2020-06-08T13:59:14Z</time>
      </trkpt>
      <trkpt lat="48.27835" lon="-4.1014">
        <ele>102.4</ele>
        <time>2020-06-08T13:59:15Z</time>
      </trkpt>
      <trkpt lat="48.27836" lon="-4.10141">
        <ele>102.4</ele>
        <time>2020-06-08T13:59:16Z</time>
      </trkpt>
      <trkpt lat="48.27837" lon="-4.10141">
        <ele>102.4</ele>
        <time>2020-06-08T13:59:17Z</time>
      </trkpt>
      <trkpt lat="48.27839" lon="-4.10143">
        <ele>102.4</ele>
        <time>2020-06-08T13:59:18Z</time>
      </trkpt>
      <trkpt lat="48.27839" lon="-4.10143">
        <ele>102.4</ele>
        <time>2020-06-08T13:59:19Z</time>
      </trkpt>
      <trkpt lat="48.27841" lon="-4.10144">
        <ele>102.4</ele>
        <time>2020-06-08T13:59:20Z</time>
      </trkpt>
      <trkpt lat="48.27841" lon="-4.10145">
        <ele>102.5</ele>
        <time>2020-06-08T13:59:21Z</time>
      </trkpt>
      <trkpt lat="48.27843" lon="-4.10146">
        <ele>102.5</ele>
        <time>2020-06-08T13:59:22Z</time>
      </trkpt>
      <trkpt lat="48.27844" lon="-4.10147">
        <ele>102.5</ele>
        <time>2020-06-08T13:59:23Z</time>
      </trkpt>
      <trkpt lat="48.27844" lon="-4.10148">
        <ele>102.5</ele>
        <time>2020-06-08T13:59:24Z</time>
      </trkpt>
      <trkpt lat="48.27845" lon="-4.10149">
        <ele>102.5</ele>
        <time>2020-06-08T13:59:25Z</time>
      </trkpt>
      <trkpt lat="48.27845" lon="-4.10149">
        <ele>102.5</ele>
        <time>2020-06-08T13:59:26Z</time>
      </trkpt>
      <trkpt lat="48.27846" lon="-4.10149">
        <ele>102.6</ele>
        <time>2020-06-08T13:59:27Z</time>
      </trkpt>
      <trkpt lat="48.27847" lon="-4.10149">
        <ele>102.6</ele>
        <time>2020-06-08T13:59:28Z</time>
      </trkpt>
      <trkpt lat="48.27847" lon="-4.1015">
        <ele>102.6</ele>
        <time>2020-06-08T13:59:29Z</time>
      </trkpt>
      <trkpt lat="48.27848" lon="-4.10151">
        <ele>102.6</ele>
        <time>2020-06-08T13:59:30Z</time>
      </trkpt>
      <trkpt lat="48.2785" lon="-4.10153">
        <ele>102.6</ele>
        <time>2020-06-08T13:59:31Z</time>
      </trkpt>
      <trkpt lat="48.27853" lon="-4.10156">
        <ele>102.7</ele>
        <time>2020-06-08T13:59:32Z</time>
      </trkpt>
      <trkpt lat="48.27854" lon="-4.10157">
        <ele>102.7</ele>
        <time>2020-06-08T13:59:33Z</time>
      </trkpt>
      <trkpt lat="48.27855" lon="-4.10157">
        <ele>102.7</ele>
        <time>2020-06-08T13:59:34Z</time>
      </trkpt>
      <trkpt lat="48.27857" lon="-4.10158">
        <ele>102.7</ele>
        <time>2020-06-08T13:59:35Z</time>
      </trkpt>
      <trkpt lat="48.27857" lon="-4.10158">
        <ele>102.7</ele>
        <time>2020-06-08T13:59:36Z</time>
      </trkpt>
      <trkpt lat="48.27858" lon="-4.10159">
        <ele>102.7</ele>
        <time>2020-06-08T13:59:37Z</time>
      </trkpt>
      <trkpt lat="48.27857" lon="-4.10157">
        <ele>102.7</ele>
        <time>2020-06-08T13:59:38Z</time>
      </trkpt>
      <trkpt lat="48.27857" lon="-4.10158">
        <ele>102.7</ele>
        <time>2020-06-08T13:59:39Z</time>
      </trkpt>
      <trkpt lat="48.27858" lon="-4.10157">
        <ele>102.7</ele>
        <time>2020-06-08T13:59:40Z</time>
      </trkpt>
      <trkpt lat="48.27858" lon="-4.10157">
        <ele>102.7</ele>
        <time>2020-06-08T13:59:41Z</time>
      </trkpt>
      <trkpt lat="48.27858" lon="-4.10157">
        <ele>102.7</ele>
        <time>2020-06-08T13:59:42Z</time>
      </trkpt>
      <trkpt lat="48.27858" lon="-4.10156">
        <ele>102.7</ele>
        <time>2020-06-08T13:59:43Z</time>
      </trkpt>
      <trkpt lat="48.27858" lon="-4.10155">
        <ele>102.7</ele>
        <time>2020-06-08T13:59:44Z</time>
      </trkpt>
      <trkpt lat="48.27858" lon="-4.10155">
        <ele>102.7</ele>
        <time>2020-06-08T13:59:45Z</time>
      </trkpt>
      <trkpt lat="48.27858" lon="-4.10155">
        <ele>102.7</ele>
        <time>2020-06-08T13:59:46Z</time>
      </trkpt>
      <trkpt lat="48.27859" lon="-4.10155">
        <ele>102.7</ele>
        <time>2020-06-08T13:59:47Z</time>
      </trkpt>
      <trkpt lat="48.27859" lon="-4.10155">
        <ele>102.7</ele>
        <time>2020-06-08T13:59:48Z</time>
      </trkpt>
      <trkpt lat="48.27861" lon="-4.10161">
        <ele>102.8</ele>
        <time>2020-06-08T14:00:25Z</time>
      </trkpt>
      <trkpt lat="48.27862" lon="-4.10163">
        <ele>102.8</ele>
        <time>2020-06-08T14:00:26Z</time>
      </trkpt>
      <trkpt lat="48.27863" lon="-4.10164">
        <ele>102.8</ele>
        <time>2020-06-08T14:00:27Z</time>
      </trkpt>
      <trkpt lat="48.27864" lon="-4.10165">
        <ele>102.8</ele>
        <time>2020-06-08T14:00:28Z</time>
      </trkpt>
      <trkpt lat="48.27864" lon="-4.10165">
        <ele>102.8</ele>
        <time>2020-06-08T14:00:29Z</time>
      </trkpt>
      <trkpt lat="48.27866" lon="-4.10164">
        <ele>102.8</ele>
        <time>2020-06-08T14:00:30Z</time>
      </trkpt>
      <trkpt lat="48.27867" lon="-4.10164">
        <ele>102.8</ele>
        <time>2020-06-08T14:00:31Z</time>
      </trkpt>
      <trkpt lat="48.27869" lon="-4.10164">
        <ele>102.8</ele>
        <time>2020-06-08T14:00:32Z</time>
      </trkpt>
      <trkpt lat="48.2787" lon="-4.10164">
        <ele>102.8</ele>
        <time>2020-06-08T14:00:33Z</time>
      </trkpt>
      <trkpt lat="48.27872" lon="-4.10164">
        <ele>102.8</ele>
        <time>2020-06-08T14:00:34Z</time>
      </trkpt>
      <trkpt lat="48.27873" lon="-4.10164">
        <ele>102.8</ele>
        <time>2020-06-08T14:00:35Z</time>
      </trkpt>
      <trkpt lat="48.27875" lon="-4.10164">
        <ele>102.8</ele>
        <time>2020-06-08T14:00:36Z</time>
      </trkpt>
      <trkpt lat="48.27876" lon="-4.10164">
        <ele>102.8</ele>
        <time>2020-06-08T14:00:37Z</time>
      </trkpt>
      <trkpt lat="48.27878" lon="-4.10164">
        <ele>102.8</ele>
        <time>2020-06-08T14:00:38Z</time>
      </trkpt>
      <trkpt lat="48.27879" lon="-4.10164">
        <ele>102.8</ele>
        <time>2020-06-08T14:01:54Z</time>
      </trkpt>
      <trkpt lat="48.27881" lon="-4.10164">
        <ele>102.7</ele>
        <time>2020-06-08T14:01:55Z</time>
      </trkpt>
      <trkpt lat="48.27884" lon="-4.10166">
        <ele>102.7</ele>
        <time>2020-06-08T14:01:56Z</time>
      </trkpt>
      <trkpt lat="48.27885" lon="-4.10166">
        <ele>102.7</ele>
        <time>2020-06-08T14:01:57Z</time>
      </trkpt>
      <trkpt lat="48.27887" lon="-4.10166">
        <ele>102.6</ele>
        <time>2020-06-08T14:01:58Z</time>
      </trkpt>
      <trkpt lat="48.27887" lon="-4.10166">
        <ele>102.6</ele>
        <time>2020-06-08T14:01:59Z</time>
      </trkpt>
      <trkpt lat="48.27888" lon="-4.10167">
        <ele>102.6</ele>
        <time>2020-06-08T14:02:00Z</time>
      </trkpt>
      <trkpt lat="48.27889" lon="-4.10167">
        <ele>102.6</ele>
        <time>2020-06-08T14:02:01Z</time>
      </trkpt>
      <trkpt lat="48.2789" lon="-4.10167">
        <ele>102.6</ele>
        <time>2020-06-08T14:02:02Z</time>
      </trkpt>
      <trkpt lat="48.27891" lon="-4.10168">
        <ele>102.6</ele>
        <time>2020-06-08T14:02:03Z</time>
      </trkpt>
      <trkpt lat="48.27891" lon="-4.10168">
        <ele>102.5</ele>
        <time>2020-06-08T14:02:04Z</time>
      </trkpt>
      <trkpt lat="48.27892" lon="-4.10169">
        <ele>102.5</ele>
        <time>2020-06-08T14:02:05Z</time>
      </trkpt>
      <trkpt lat="48.27893" lon="-4.10169">
        <ele>102.5</ele>
        <time>2020-06-08T14:02:06Z</time>
      </trkpt>
      <trkpt lat="48.27894" lon="-4.10169">
        <ele>102.5</ele>
        <time>2020-06-08T14:02:07Z</time>
      </trkpt>
      <trkpt lat="48.27895" lon="-4.1017">
        <ele>102.5</ele>
        <time>2020-06-08T14:02:08Z</time>
      </trkpt>
      <trkpt lat="48.27896" lon="-4.1017">
        <ele>102.5</ele>
        <time>2020-06-08T14:02:09Z</time>
      </trkpt>
      <trkpt lat="48.27896" lon="-4.1017">
        <ele>102.5</ele>
        <time>2020-06-08T14:03:33Z</time>
      </trkpt>
      <trkpt lat="48.27897" lon="-4.10171">
        <ele>102.4</ele>
        <time>2020-06-08T14:03:34Z</time>
      </trkpt>
      <trkpt lat="48.27898" lon="-4.10171">
        <ele>102.4</ele>
        <time>2020-06-08T14:03:35Z</time>
      </trkpt>
      <trkpt lat="48.279" lon="-4.10171">
        <ele>102.4</ele>
        <time>2020-06-08T14:03:36Z</time>
      </trkpt>
      <trkpt lat="48.27901" lon="-4.10173">
        <ele>102.3</ele>
        <time>2020-06-08T14:03:37Z</time>
      </trkpt>
      <trkpt lat="48.27903" lon="-4.10173">
        <ele>102.3</ele>
        <time>2020-06-08T14:03:38Z</time>
      </trkpt>
      <trkpt lat="48.27904" lon="-4.10174">
        <ele>102.3</ele>
        <time>2020-06-08T14:03:39Z</time>
      </trkpt>
      <trkpt lat="48.27906" lon="-4.10177">
        <ele>102.2</ele>
        <time>2020-06-08T14:03:40Z</time>
      </trkpt>
      <trkpt lat="48.27907" lon="-4.10177">
        <ele>102.2</ele>
        <time>2020-06-08T14:03:41Z</time>
      </trkpt>
      <trkpt lat="48.27908" lon="-4.10178">
        <ele>102.1</ele>
        <time>2020-06-08T14:03:42Z</time>
      </trkpt>
      <trkpt lat="48.2791" lon="-4.1018">
        <ele>102</ele>
        <time>2020-06-08T14:03:43Z</time>
      </trkpt>
      <trkpt lat="48.27911" lon="-4.1018">
        <ele>102</ele>
        <time>2020-06-08T14:03:44Z</time>
      </trkpt>
      <trkpt lat="48.27913" lon="-4.10183">
        <ele>101.9</ele>
        <time>2020-06-08T14:03:45Z</time>
      </trkpt>
      <trkpt lat="48.27914" lon="-4.10184">
        <ele>101.8</ele>
        <time>2020-06-08T14:03:46Z</time>
      </trkpt>
      <trkpt lat="48.27917" lon="-4.10186">
        <ele>101.7</ele>
        <time>2020-06-08T14:03:47Z</time>
      </trkpt>
      <trkpt lat="48.27918" lon="-4.10186">
        <ele>101.7</ele>
        <time>2020-06-08T14:03:48Z</time>
      </trkpt>
      <trkpt lat="48.27921" lon="-4.10188">
        <ele>101.5</ele>
        <time>2020-06-08T14:03:49Z</time>
      </trkpt>
      <trkpt lat="48.27924" lon="-4.10189">
        <ele>101.3</ele>
        <time>2020-06-08T14:03:50Z</time>
      </trkpt>
      <trkpt lat="48.27926" lon="-4.1019">
        <ele>101.3</ele>
        <time>2020-06-08T14:03:51Z</time>
      </trkpt>
      <trkpt lat="48.27929" lon="-4.10191">
        <ele>101.1</ele>
        <time>2020-06-08T14:03:52Z</time>
      </trkpt>
      <trkpt lat="48.27932" lon="-4.10193">
        <ele>100.9</ele>
        <time>2020-06-08T14:03:53Z</time>
      </trkpt>
      <trkpt lat="48.27936" lon="-4.10195">
        <ele>100.6</ele>
        <time>2020-06-08T14:03:54Z</time>
      </trkpt>
      <trkpt lat="48.27939" lon="-4.10198">
        <ele>100.4</ele>
        <time>2020-06-08T14:03:55Z</time>
      </trkpt>
      <trkpt lat="48.27943" lon="-4.10201">
        <ele>100.1</ele>
        <time>2020-06-08T14:03:56Z</time>
      </trkpt>
      <trkpt lat="48.27948" lon="-4.10204">
        <ele>99.7</ele>
        <time>2020-06-08T14:03:57Z</time>
      </trkpt>
      <trkpt lat="48.27952" lon="-4.10207">
        <ele>99.4</ele>
        <time>2020-06-08T14:03:58Z</time>
      </trkpt>
      <trkpt lat="48.27958" lon="-4.1021">
        <ele>99</ele>
        <time>2020-06-08T14:03:59Z</time>
      </trkpt>
      <trkpt lat="48.27964" lon="-4.10212">
        <ele>98.6</ele>
        <time>2020-06-08T14:04:00Z</time>
      </trkpt>
      <trkpt lat="48.27969" lon="-4.10215">
        <ele>98.1</ele>
        <time>2020-06-08T14:04:01Z</time>
      </trkpt>
      <trkpt lat="48.27974" lon="-4.10218">
        <ele>97.9</ele>
        <time>2020-06-08T14:04:02Z</time>
      </trkpt>
      <trkpt lat="48.2798" lon="-4.10222">
        <ele>97.7</ele>
        <time>2020-06-08T14:04:03Z</time>
      </trkpt>
      <trkpt lat="48.27987" lon="-4.10228">
        <ele>97.3</ele>
        <time>2020-06-08T14:04:04Z</time>
      </trkpt>
      <trkpt lat="48.27993" lon="-4.10231">
        <ele>96.9</ele>
        <time>2020-06-08T14:04:05Z</time>
      </trkpt>
      <trkpt lat="48.28001" lon="-4.10236">
        <ele>96.4</ele>
        <time>2020-06-08T14:04:06Z</time>
      </trkpt>
      <trkpt lat="48.28009" lon="-4.10242">
        <ele>95.9</ele>
        <time>2020-06-08T14:04:07Z</time>
      </trkpt>
      <trkpt lat="48.28016" lon="-4.10246">
        <ele>95.5</ele>
        <time>2020-06-08T14:04:08Z</time>
      </trkpt>
      <trkpt lat="48.28023" lon="-4.1025">
        <ele>95.1</ele>
        <time>2020-06-08T14:04:09Z</time>
      </trkpt>
      <trkpt lat="48.28031" lon="-4.10254">
        <ele>94.7</ele>
        <time>2020-06-08T14:04:10Z</time>
      </trkpt>
      <trkpt lat="48.28038" lon="-4.10256">
        <ele>94.5</ele>
        <time>2020-06-08T14:04:11Z</time>
      </trkpt>
      <trkpt lat="48.28045" lon="-4.10262">
        <ele>94.3</ele>
        <time>2020-06-08T14:04:12Z</time>
      </trkpt>
      <trkpt lat="48.28052" lon="-4.10267">
        <ele>94.1</ele>
        <time>2020-06-08T14:04:13Z</time>
      </trkpt>
      <trkpt lat="48.28058" lon="-4.10271">
        <ele>94</ele>
        <time>2020-06-08T14:04:14Z</time>
      </trkpt>
      <trkpt lat="48.28065" lon="-4.10275">
        <ele>93.8</ele>
        <time>2020-06-08T14:04:15Z</time>
      </trkpt>
      <trkpt lat="48.28071" lon="-4.10278">
        <ele>93.7</ele>
        <time>2020-06-08T14:04:16Z</time>
      </trkpt>
      <trkpt lat="48.28077" lon="-4.10282">
        <ele>93.7</ele>
        <time>2020-06-08T14:04:17Z</time>
      </trkpt>
      <trkpt lat="48.28082" lon="-4.10286">
        <ele>93.6</ele>
        <time>2020-06-08T14:04:18Z</time>
      </trkpt>
      <trkpt lat="48.28086" lon="-4.1029">
        <ele>93.6</ele>
        <time>2020-06-08T14:04:19Z</time>
      </trkpt>
      <trkpt lat="48.2809" lon="-4.10296">
        <ele>93.7</ele>
        <time>2020-06-08T14:04:20Z</time>
      </trkpt>
      <trkpt lat="48.28094" lon="-4.103">
        <ele>93.7</ele>
        <time>2020-06-08T14:04:21Z</time>
      </trkpt>
      <trkpt lat="48.28098" lon="-4.10305">
        <ele>93.8</ele>
        <time>2020-06-08T14:04:22Z</time>
      </trkpt>
      <trkpt lat="48.28102" lon="-4.10309">
        <ele>93.9</ele>
        <time>2020-06-08T14:04:23Z</time>
      </trkpt>
      <trkpt lat="48.28105" lon="-4.10313">
        <ele>93.9</ele>
        <time>2020-06-08T14:04:24Z</time>
      </trkpt>
      <trkpt lat="48.28109" lon="-4.10317">
        <ele>94</ele>
        <time>2020-06-08T14:04:25Z</time>
      </trkpt>
      <trkpt lat="48.28112" lon="-4.10321">
        <ele>94</ele>
        <time>2020-06-08T14:04:26Z</time>
      </trkpt>
      <trkpt lat="48.28115" lon="-4.10324">
        <ele>94.1</ele>
        <time>2020-06-08T14:04:27Z</time>
      </trkpt>
      <trkpt lat="48.28118" lon="-4.10328">
        <ele>94.1</ele>
        <time>2020-06-08T14:04:28Z</time>
      </trkpt>
      <trkpt lat="48.28121" lon="-4.10332">
        <ele>94.2</ele>
        <time>2020-06-08T14:04:29Z</time>
      </trkpt>
      <trkpt lat="48.28124" lon="-4.10336">
        <ele>94.3</ele>
        <time>2020-06-08T14:04:30Z</time>
      </trkpt>
      <trkpt lat="48.28127" lon="-4.10341">
        <ele>94.4</ele>
        <time>2020-06-08T14:04:31Z</time>
      </trkpt>
      <trkpt lat="48.2813" lon="-4.10345">
        <ele>94.5</ele>
        <time>2020-06-08T14:04:32Z</time>
      </trkpt>
      <trkpt lat="48.28133" lon="-4.10349">
        <ele>94.7</ele>
        <time>2020-06-08T14:04:33Z</time>
      </trkpt>
      <trkpt lat="48.28137" lon="-4.10353">
        <ele>94.8</ele>
        <time>2020-06-08T14:04:34Z</time>
      </trkpt>
      <trkpt lat="48.2814" lon="-4.10357">
        <ele>94.9</ele>
        <time>2020-06-08T14:04:35Z</time>
      </trkpt>
      <trkpt lat="48.28143" lon="-4.10361">
        <ele>95</ele>
        <time>2020-06-08T14:04:36Z</time>
      </trkpt>
      <trkpt lat="48.28146" lon="-4.10365">
        <ele>95.2</ele>
        <time>2020-06-08T14:04:37Z</time>
      </trkpt>
      <trkpt lat="48.2815" lon="-4.10368">
        <ele>95.3</ele>
        <time>2020-06-08T14:04:38Z</time>
      </trkpt>
      <trkpt lat="48.28152" lon="-4.10371">
        <ele>95.5</ele>
        <time>2020-06-08T14:04:39Z</time>
      </trkpt>
      <trkpt lat="48.28155" lon="-4.10374">
        <ele>95.6</ele>
        <time>2020-06-08T14:04:40Z</time>
      </trkpt>
      <trkpt lat="48.28158" lon="-4.10377">
        <ele>95.8</ele>
        <time>2020-06-08T14:04:41Z</time>
      </trkpt>
      <trkpt lat="48.28161" lon="-4.1038">
        <ele>96</ele>
        <time>2020-06-08T14:04:42Z</time>
      </trkpt>
      <trkpt lat="48.28163" lon="-4.10383">
        <ele>96.1</ele>
        <time>2020-06-08T14:04:43Z</time>
      </trkpt>
      <trkpt lat="48.28166" lon="-4.10386">
        <ele>96.3</ele>
        <time>2020-06-08T14:04:44Z</time>
      </trkpt>
      <trkpt lat="48.28168" lon="-4.10389">
        <ele>96.4</ele>
        <time>2020-06-08T14:04:45Z</time>
      </trkpt>
      <trkpt lat="48.28171" lon="-4.10392">
        <ele>96.6</ele>
        <time>2020-06-08T14:04:46Z</time>
      </trkpt>
      <trkpt lat="48.28173" lon="-4.10395">
        <ele>96.8</ele>
        <time>2020-06-08T14:04:47Z</time>
      </trkpt>
      <trkpt lat="48.28176" lon="-4.10398">
        <ele>97</ele>
        <time>2020-06-08T14:04:48Z</time>
      </trkpt>
      <trkpt lat="48.28178" lon="-4.10401">
        <ele>97.1</ele>
        <time>2020-06-08T14:04:49Z</time>
      </trkpt>
      <trkpt lat="48.28181" lon="-4.10403">
        <ele>97.3</ele>
        <time>2020-06-08T14:04:50Z</time>
      </trkpt>
      <trkpt lat="48.28183" lon="-4.10407">
        <ele>97.5</ele>
        <time>2020-06-08T14:04:51Z</time>
      </trkpt>
      <trkpt lat="48.28185" lon="-4.1041">
        <ele>97.8</ele>
        <time>2020-06-08T14:04:52Z</time>
      </trkpt>
      <trkpt lat="48.28187" lon="-4.10415">
        <ele>98</ele>
        <time>2020-06-08T14:04:53Z</time>
      </trkpt>
      <trkpt lat="48.28188" lon="-4.10416">
        <ele>98.1</ele>
        <time>2020-06-08T14:04:54Z</time>
      </trkpt>
      <trkpt lat="48.2819" lon="-4.10421">
        <ele>98.4</ele>
        <time>2020-06-08T14:04:55Z</time>
      </trkpt>
      <trkpt lat="48.28191" lon="-4.10422">
        <ele>98.5</ele>
        <time>2020-06-08T14:04:56Z</time>
      </trkpt>
      <trkpt lat="48.28192" lon="-4.10427">
        <ele>98.8</ele>
        <time>2020-06-08T14:04:57Z</time>
      </trkpt>
      <trkpt lat="48.28193" lon="-4.10429">
        <ele>98.9</ele>
        <time>2020-06-08T14:04:58Z</time>
      </trkpt>
      <trkpt lat="48.28194" lon="-4.10434">
        <ele>99.2</ele>
        <time>2020-06-08T14:04:59Z</time>
      </trkpt>
      <trkpt lat="48.28195" lon="-4.10435">
        <ele>99.3</ele>
        <time>2020-06-08T14:05:00Z</time>
      </trkpt>
      <trkpt lat="48.28196" lon="-4.10439">
        <ele>99.5</ele>
        <time>2020-06-08T14:05:01Z</time>
      </trkpt>
      <trkpt lat="48.28196" lon="-4.1044">
        <ele>99.6</ele>
        <time>2020-06-08T14:05:02Z</time>
      </trkpt>
      <trkpt lat="48.28199" lon="-4.10443">
        <ele>99.8</ele>
        <time>2020-06-08T14:05:03Z</time>
      </trkpt>
      <trkpt lat="48.282" lon="-4.10445">
        <ele>99.9</ele>
        <time>2020-06-08T14:05:04Z</time>
      </trkpt>
      <trkpt lat="48.28201" lon="-4.1045">
        <ele>100.2</ele>
        <time>2020-06-08T14:05:05Z</time>
      </trkpt>
      <trkpt lat="48.28201" lon="-4.10452">
        <ele>100.3</ele>
        <time>2020-06-08T14:05:06Z</time>
      </trkpt>
      <trkpt lat="48.28203" lon="-4.10457">
        <ele>100.6</ele>
        <time>2020-06-08T14:05:07Z</time>
      </trkpt>
      <trkpt lat="48.28204" lon="-4.10459">
        <ele>100.7</ele>
        <time>2020-06-08T14:05:08Z</time>
      </trkpt>
      <trkpt lat="48.28206" lon="-4.10464">
        <ele>101.1</ele>
        <time>2020-06-08T14:05:09Z</time>
      </trkpt>
      <trkpt lat="48.28207" lon="-4.10466">
        <ele>101.2</ele>
        <time>2020-06-08T14:05:10Z</time>
      </trkpt>
      <trkpt lat="48.28208" lon="-4.1047">
        <ele>101.4</ele>
        <time>2020-06-08T14:05:11Z</time>
      </trkpt>
      <trkpt lat="48.28209" lon="-4.10473">
        <ele>101.6</ele>
        <time>2020-06-08T14:05:12Z</time>
      </trkpt>
      <trkpt lat="48.28212" lon="-4.10478">
        <ele>102</ele>
        <time>2020-06-08T14:05:13Z</time>
      </trkpt>
      <trkpt lat="48.28212" lon="-4.1048">
        <ele>102.1</ele>
        <time>2020-06-08T14:05:14Z</time>
      </trkpt>
      <trkpt lat="48.28213" lon="-4.10484">
        <ele>102.3</ele>
        <time>2020-06-08T14:05:15Z</time>
      </trkpt>
      <trkpt lat="48.28214" lon="-4.10488">
        <ele>102.5</ele>
        <time>2020-06-08T14:05:16Z</time>
      </trkpt>
      <trkpt lat="48.28215" lon="-4.10494">
        <ele>102.8</ele>
        <time>2020-06-08T14:05:17Z</time>
      </trkpt>
      <trkpt lat="48.28215" lon="-4.10496">
        <ele>102.9</ele>
        <time>2020-06-08T14:05:18Z</time>
      </trkpt>
      <trkpt lat="48.28217" lon="-4.105">
        <ele>103.2</ele>
        <time>2020-06-08T14:05:19Z</time>
      </trkpt>
      <trkpt lat="48.28218" lon="-4.10502">
        <ele>103.3</ele>
        <time>2020-06-08T14:05:20Z</time>
      </trkpt>
      <trkpt lat="48.2822" lon="-4.10507">
        <ele>103.6</ele>
        <time>2020-06-08T14:05:21Z</time>
      </trkpt>
      <trkpt lat="48.28221" lon="-4.10512">
        <ele>103.8</ele>
        <time>2020-06-08T14:05:22Z</time>
      </trkpt>
      <trkpt lat="48.28221" lon="-4.10515">
        <ele>104</ele>
        <time>2020-06-08T14:05:23Z</time>
      </trkpt>
      <trkpt lat="48.28222" lon="-4.10519">
        <ele>104.2</ele>
        <time>2020-06-08T14:05:24Z</time>
      </trkpt>
      <trkpt lat="48.28223" lon="-4.10523">
        <ele>104.4</ele>
        <time>2020-06-08T14:05:25Z</time>
      </trkpt>
      <trkpt lat="48.28223" lon="-4.10524">
        <ele>104.5</ele>
        <time>2020-06-08T14:05:26Z</time>
      </trkpt>
      <trkpt lat="48.28224" lon="-4.10529">
        <ele>104.7</ele>
        <time>2020-06-08T14:05:27Z</time>
      </trkpt>
      <trkpt lat="48.28224" lon="-4.10533">
        <ele>104.9</ele>
        <time>2020-06-08T14:05:28Z</time>
      </trkpt>
      <trkpt lat="48.28225" lon="-4.10534">
        <ele>105</ele>
        <time>2020-06-08T14:05:29Z</time>
      </trkpt>
      <trkpt lat="48.28227" lon="-4.1054">
        <ele>105.3</ele>
        <time>2020-06-08T14:05:30Z</time>
      </trkpt>
      <trkpt lat="48.28228" lon="-4.10541">
        <ele>105.4</ele>
        <time>2020-06-08T14:05:31Z</time>
      </trkpt>
      <trkpt lat="48.2823" lon="-4.10546">
        <ele>105.7</ele>
        <time>2020-06-08T14:05:32Z</time>
      </trkpt>
      <trkpt lat="48.2823" lon="-4.10548">
        <ele>105.7</ele>
        <time>2020-06-08T14:05:33Z</time>
      </trkpt>
      <trkpt lat="48.28232" lon="-4.10552">
        <ele>105.9</ele>
        <time>2020-06-08T14:05:34Z</time>
      </trkpt>
      <trkpt lat="48.28233" lon="-4.10557">
        <ele>106.2</ele>
        <time>2020-06-08T14:05:35Z</time>
      </trkpt>
      <trkpt lat="48.28233" lon="-4.10558">
        <ele>106.3</ele>
        <time>2020-06-08T14:05:36Z</time>
      </trkpt>
      <trkpt lat="48.28234" lon="-4.10562">
        <ele>106.5</ele>
        <time>2020-06-08T14:05:37Z</time>
      </trkpt>
      <trkpt lat="48.28235" lon="-4.10564">
        <ele>106.5</ele>
        <time>2020-06-08T14:05:38Z</time>
      </trkpt>
      <trkpt lat="48.28235" lon="-4.10565">
        <ele>106.6</ele>
        <time>2020-06-08T14:05:39Z</time>
      </trkpt>
      <trkpt lat="48.28236" lon="-4.10568">
        <ele>106.7</ele>
        <time>2020-06-08T14:05:40Z</time>
      </trkpt>
      <trkpt lat="48.28238" lon="-4.10572">
        <ele>106.9</ele>
        <time>2020-06-08T14:05:41Z</time>
      </trkpt>
      <trkpt lat="48.28238" lon="-4.10573">
        <ele>107</ele>
        <time>2020-06-08T14:05:42Z</time>
      </trkpt>
      <trkpt lat="48.28241" lon="-4.10577">
        <ele>107.2</ele>
        <time>2020-06-08T14:05:43Z</time>
      </trkpt>
      <trkpt lat="48.28242" lon="-4.10579">
        <ele>107.3</ele>
        <time>2020-06-08T14:05:44Z</time>
      </trkpt>
      <trkpt lat="48.28244" lon="-4.10581">
        <ele>107.5</ele>
        <time>2020-06-08T14:05:45Z</time>
      </trkpt>
      <trkpt lat="48.28247" lon="-4.10584">
        <ele>107.8</ele>
        <time>2020-06-08T14:05:46Z</time>
      </trkpt>
      <trkpt lat="48.28248" lon="-4.10585">
        <ele>107.8</ele>
        <time>2020-06-08T14:05:47Z</time>
      </trkpt>
      <trkpt lat="48.28251" lon="-4.10586">
        <ele>108</ele>
        <time>2020-06-08T14:05:48Z</time>
      </trkpt>
      <trkpt lat="48.28254" lon="-4.10588">
        <ele>108.1</ele>
        <time>2020-06-08T14:05:49Z</time>
      </trkpt>
      <trkpt lat="48.28257" lon="-4.10589">
        <ele>108.2</ele>
        <time>2020-06-08T14:05:50Z</time>
      </trkpt>
      <trkpt lat="48.2826" lon="-4.10589">
        <ele>108.4</ele>
        <time>2020-06-08T14:05:51Z</time>
      </trkpt>
      <trkpt lat="48.28261" lon="-4.10589">
        <ele>108.4</ele>
        <time>2020-06-08T14:05:52Z</time>
      </trkpt>
      <trkpt lat="48.28265" lon="-4.1059">
        <ele>108.5</ele>
        <time>2020-06-08T14:05:53Z</time>
      </trkpt>
      <trkpt lat="48.28265" lon="-4.1059">
        <ele>108.6</ele>
        <time>2020-06-08T14:05:54Z</time>
      </trkpt>
      <trkpt lat="48.28269" lon="-4.10591">
        <ele>108.7</ele>
        <time>2020-06-08T14:05:55Z</time>
      </trkpt>
      <trkpt lat="48.28269" lon="-4.10592">
        <ele>108.7</ele>
        <time>2020-06-08T14:05:56Z</time>
      </trkpt>
      <trkpt lat="48.28272" lon="-4.10593">
        <ele>108.8</ele>
        <time>2020-06-08T14:05:57Z</time>
      </trkpt>
      <trkpt lat="48.28275" lon="-4.10595">
        <ele>108.9</ele>
        <time>2020-06-08T14:05:58Z</time>
      </trkpt>
      <trkpt lat="48.28277" lon="-4.10596">
        <ele>108.9</ele>
        <time>2020-06-08T14:05:59Z</time>
      </trkpt>
      <trkpt lat="48.2828" lon="-4.10598">
        <ele>108.9</ele>
        <time>2020-06-08T14:06:00Z</time>
      </trkpt>
      <trkpt lat="48.28282" lon="-4.10602">
        <ele>108.9</ele>
        <time>2020-06-08T14:06:01Z</time>
      </trkpt>
      <trkpt lat="48.28283" lon="-4.10604">
        <ele>109</ele>
        <time>2020-06-08T14:06:02Z</time>
      </trkpt>
      <trkpt lat="48.28283" lon="-4.10608">
        <ele>109</ele>
        <time>2020-06-08T14:06:03Z</time>
      </trkpt>
      <trkpt lat="48.28283" lon="-4.10613">
        <ele>109</ele>
        <time>2020-06-08T14:06:04Z</time>
      </trkpt>
      <trkpt lat="48.28283" lon="-4.10617">
        <ele>109.1</ele>
        <time>2020-06-08T14:06:05Z</time>
      </trkpt>
      <trkpt lat="48.28282" lon="-4.10623">
        <ele>109.4</ele>
        <time>2020-06-08T14:06:06Z</time>
      </trkpt>
      <trkpt lat="48.28282" lon="-4.10626">
        <ele>109.5</ele>
        <time>2020-06-08T14:06:07Z</time>
      </trkpt>
      <trkpt lat="48.28281" lon="-4.10631">
        <ele>109.7</ele>
        <time>2020-06-08T14:06:08Z</time>
      </trkpt>
      <trkpt lat="48.2828" lon="-4.10637">
        <ele>109.9</ele>
        <time>2020-06-08T14:06:09Z</time>
      </trkpt>
      <trkpt lat="48.28279" lon="-4.10639">
        <ele>110</ele>
        <time>2020-06-08T14:06:10Z</time>
      </trkpt>
      <trkpt lat="48.28278" lon="-4.10644">
        <ele>110.2</ele>
        <time>2020-06-08T14:06:11Z</time>
      </trkpt>
      <trkpt lat="48.28277" lon="-4.10648">
        <ele>110.4</ele>
        <time>2020-06-08T14:06:12Z</time>
      </trkpt>
      <trkpt lat="48.28276" lon="-4.1065">
        <ele>110.5</ele>
        <time>2020-06-08T14:06:13Z</time>
      </trkpt>
      <trkpt lat="48.28276" lon="-4.10652">
        <ele>110.6</ele>
        <time>2020-06-08T14:06:14Z</time>
      </trkpt>
      <trkpt lat="48.28274" lon="-4.10657">
        <ele>110.8</ele>
        <time>2020-06-08T14:06:15Z</time>
      </trkpt>
      <trkpt lat="48.28274" lon="-4.10659">
        <ele>110.9</ele>
        <time>2020-06-08T14:06:16Z</time>
      </trkpt>
      <trkpt lat="48.28273" lon="-4.10663">
        <ele>111.1</ele>
        <time>2020-06-08T14:06:17Z</time>
      </trkpt>
      <trkpt lat="48.28272" lon="-4.10669">
        <ele>111.3</ele>
        <time>2020-06-08T14:06:18Z</time>
      </trkpt>
      <trkpt lat="48.28272" lon="-4.10674">
        <ele>111.5</ele>
        <time>2020-06-08T14:06:19Z</time>
      </trkpt>
      <trkpt lat="48.28273" lon="-4.1068">
        <ele>111.7</ele>
        <time>2020-06-08T14:06:20Z</time>
      </trkpt>
      <trkpt lat="48.28274" lon="-4.10682">
        <ele>111.8</ele>
        <time>2020-06-08T14:06:21Z</time>
      </trkpt>
      <trkpt lat="48.28274" lon="-4.10687">
        <ele>112.1</ele>
        <time>2020-06-08T14:06:22Z</time>
      </trkpt>
      <trkpt lat="48.28274" lon="-4.10689">
        <ele>112.2</ele>
        <time>2020-06-08T14:06:23Z</time>
      </trkpt>
      <trkpt lat="48.28275" lon="-4.10694">
        <ele>112.4</ele>
        <time>2020-06-08T14:06:24Z</time>
      </trkpt>
      <trkpt lat="48.28275" lon="-4.10696">
        <ele>112.5</ele>
        <time>2020-06-08T14:06:25Z</time>
      </trkpt>
      <trkpt lat="48.28276" lon="-4.10701">
        <ele>112.7</ele>
        <time>2020-06-08T14:06:26Z</time>
      </trkpt>
      <trkpt lat="48.28277" lon="-4.10705">
        <ele>113</ele>
        <time>2020-06-08T14:06:27Z</time>
      </trkpt>
      <trkpt lat="48.28278" lon="-4.10707">
        <ele>113.1</ele>
        <time>2020-06-08T14:06:28Z</time>
      </trkpt>
      <trkpt lat="48.2828" lon="-4.10711">
        <ele>113.4</ele>
        <time>2020-06-08T14:06:29Z</time>
      </trkpt>
      <trkpt lat="48.2828" lon="-4.10712">
        <ele>113.5</ele>
        <time>2020-06-08T14:06:30Z</time>
      </trkpt>
      <trkpt lat="48.28283" lon="-4.10717">
        <ele>113.8</ele>
        <time>2020-06-08T14:06:31Z</time>
      </trkpt>
      <trkpt lat="48.28284" lon="-4.10718">
        <ele>114</ele>
        <time>2020-06-08T14:06:32Z</time>
      </trkpt>
      <trkpt lat="48.28285" lon="-4.10722">
        <ele>114.3</ele>
        <time>2020-06-08T14:06:33Z</time>
      </trkpt>
      <trkpt lat="48.28286" lon="-4.10724">
        <ele>114.4</ele>
        <time>2020-06-08T14:06:34Z</time>
      </trkpt>
      <trkpt lat="48.28287" lon="-4.10728">
        <ele>114.6</ele>
        <time>2020-06-08T14:06:35Z</time>
      </trkpt>
      <trkpt lat="48.28288" lon="-4.10731">
        <ele>114.6</ele>
        <time>2020-06-08T14:06:36Z</time>
      </trkpt>
      <trkpt lat="48.28289" lon="-4.10733">
        <ele>114.7</ele>
        <time>2020-06-08T14:06:37Z</time>
      </trkpt>
      <trkpt lat="48.2829" lon="-4.10737">
        <ele>114.7</ele>
        <time>2020-06-08T14:06:38Z</time>
      </trkpt>
      <trkpt lat="48.2829" lon="-4.10739">
        <ele>114.8</ele>
        <time>2020-06-08T14:06:39Z</time>
      </trkpt>
      <trkpt lat="48.2829" lon="-4.10743">
        <ele>115.1</ele>
        <time>2020-06-08T14:06:40Z</time>
      </trkpt>
      <trkpt lat="48.2829" lon="-4.10745">
        <ele>115.1</ele>
        <time>2020-06-08T14:06:41Z</time>
      </trkpt>
      <trkpt lat="48.28291" lon="-4.10749">
        <ele>115.4</ele>
        <time>2020-06-08T14:06:42Z</time>
      </trkpt>
      <trkpt lat="48.28292" lon="-4.10751">
        <ele>115.5</ele>
        <time>2020-06-08T14:06:43Z</time>
      </trkpt>
      <trkpt lat="48.28292" lon="-4.10754">
        <ele>115.7</ele>
        <time>2020-06-08T14:06:44Z</time>
      </trkpt>
      <trkpt lat="48.28292" lon="-4.10756">
        <ele>115.8</ele>
        <time>2020-06-08T14:06:45Z</time>
      </trkpt>
      <trkpt lat="48.28293" lon="-4.1076">
        <ele>116.1</ele>
        <time>2020-06-08T14:06:46Z</time>
      </trkpt>
      <trkpt lat="48.28294" lon="-4.10762">
        <ele>116.1</ele>
        <time>2020-06-08T14:06:47Z</time>
      </trkpt>
      <trkpt lat="48.28294" lon="-4.10764">
        <ele>116.3</ele>
        <time>2020-06-08T14:06:48Z</time>
      </trkpt>
      <trkpt lat="48.28294" lon="-4.10766">
        <ele>116.4</ele>
        <time>2020-06-08T14:06:49Z</time>
      </trkpt>
      <trkpt lat="48.28295" lon="-4.1077">
        <ele>116.6</ele>
        <time>2020-06-08T14:06:50Z</time>
      </trkpt>
      <trkpt lat="48.28296" lon="-4.10775">
        <ele>116.9</ele>
        <time>2020-06-08T14:06:51Z</time>
      </trkpt>
      <trkpt lat="48.28296" lon="-4.10776">
        <ele>117</ele>
        <time>2020-06-08T14:06:52Z</time>
      </trkpt>
      <trkpt lat="48.28296" lon="-4.1078">
        <ele>117.2</ele>
        <time>2020-06-08T14:06:53Z</time>
      </trkpt>
      <trkpt lat="48.28296" lon="-4.10781">
        <ele>117.3</ele>
        <time>2020-06-08T14:06:54Z</time>
      </trkpt>
      <trkpt lat="48.28297" lon="-4.10785">
        <ele>117.6</ele>
        <time>2020-06-08T14:06:55Z</time>
      </trkpt>
      <trkpt lat="48.28297" lon="-4.10787">
        <ele>117.7</ele>
        <time>2020-06-08T14:06:56Z</time>
      </trkpt>
      <trkpt lat="48.28297" lon="-4.10792">
        <ele>118</ele>
        <time>2020-06-08T14:06:57Z</time>
      </trkpt>
      <trkpt lat="48.28297" lon="-4.10793">
        <ele>118.1</ele>
        <time>2020-06-08T14:06:58Z</time>
      </trkpt>
      <trkpt lat="48.28297" lon="-4.10797">
        <ele>118.3</ele>
        <time>2020-06-08T14:06:59Z</time>
      </trkpt>
      <trkpt lat="48.28298" lon="-4.10801">
        <ele>118.6</ele>
        <time>2020-06-08T14:07:00Z</time>
      </trkpt>
      <trkpt lat="48.28298" lon="-4.10804">
        <ele>118.8</ele>
        <time>2020-06-08T14:07:01Z</time>
      </trkpt>
      <trkpt lat="48.28299" lon="-4.10806">
        <ele>118.9</ele>
        <time>2020-06-08T14:07:02Z</time>
      </trkpt>
      <trkpt lat="48.28299" lon="-4.10811">
        <ele>119.2</ele>
        <time>2020-06-08T14:07:03Z</time>
      </trkpt>
      <trkpt lat="48.283" lon="-4.10815">
        <ele>119.4</ele>
        <time>2020-06-08T14:07:04Z</time>
      </trkpt>
      <trkpt lat="48.283" lon="-4.10817">
        <ele>119.5</ele>
        <time>2020-06-08T14:07:05Z</time>
      </trkpt>
      <trkpt lat="48.283" lon="-4.10819">
        <ele>119.6</ele>
        <time>2020-06-08T14:07:06Z</time>
      </trkpt>
      <trkpt lat="48.283" lon="-4.10822">
        <ele>119.8</ele>
        <time>2020-06-08T14:07:07Z</time>
      </trkpt>
      <trkpt lat="48.283" lon="-4.10827">
        <ele>120.1</ele>
        <time>2020-06-08T14:07:08Z</time>
      </trkpt>
      <trkpt lat="48.283" lon="-4.10829">
        <ele>120.2</ele>
        <time>2020-06-08T14:07:09Z</time>
      </trkpt>
      <trkpt lat="48.283" lon="-4.10833">
        <ele>120.4</ele>
        <time>2020-06-08T14:07:10Z</time>
      </trkpt>
      <trkpt lat="48.283" lon="-4.10836">
        <ele>120.6</ele>
        <time>2020-06-08T14:07:11Z</time>
      </trkpt>
      <trkpt lat="48.28299" lon="-4.10839">
        <ele>120.7</ele>
        <time>2020-06-08T14:07:12Z</time>
      </trkpt>
      <trkpt lat="48.28299" lon="-4.10841">
        <ele>120.8</ele>
        <time>2020-06-08T14:07:13Z</time>
      </trkpt>
      <trkpt lat="48.283" lon="-4.10846">
        <ele>121.1</ele>
        <time>2020-06-08T14:07:14Z</time>
      </trkpt>
      <trkpt lat="48.283" lon="-4.10848">
        <ele>121.2</ele>
        <time>2020-06-08T14:07:15Z</time>
      </trkpt>
      <trkpt lat="48.28301" lon="-4.10852">
        <ele>121.4</ele>
        <time>2020-06-08T14:07:16Z</time>
      </trkpt>
      <trkpt lat="48.28302" lon="-4.10857">
        <ele>121.6</ele>
        <time>2020-06-08T14:07:17Z</time>
      </trkpt>
      <trkpt lat="48.28302" lon="-4.1086">
        <ele>121.8</ele>
        <time>2020-06-08T14:07:18Z</time>
      </trkpt>
      <trkpt lat="48.28302" lon="-4.10862">
        <ele>121.9</ele>
        <time>2020-06-08T14:07:19Z</time>
      </trkpt>
      <trkpt lat="48.28304" lon="-4.10866">
        <ele>122.1</ele>
        <time>2020-06-08T14:07:20Z</time>
      </trkpt>
      <trkpt lat="48.28304" lon="-4.10868">
        <ele>122.2</ele>
        <time>2020-06-08T14:07:21Z</time>
      </trkpt>
      <trkpt lat="48.28305" lon="-4.10873">
        <ele>122.5</ele>
        <time>2020-06-08T14:07:22Z</time>
      </trkpt>
      <trkpt lat="48.28305" lon="-4.10876">
        <ele>122.6</ele>
        <time>2020-06-08T14:07:23Z</time>
      </trkpt>
      <trkpt lat="48.28306" lon="-4.1088">
        <ele>122.8</ele>
        <time>2020-06-08T14:07:24Z</time>
      </trkpt>
      <trkpt lat="48.28306" lon="-4.10882">
        <ele>122.9</ele>
        <time>2020-06-08T14:07:25Z</time>
      </trkpt>
      <trkpt lat="48.28308" lon="-4.10887">
        <ele>123.2</ele>
        <time>2020-06-08T14:07:26Z</time>
      </trkpt>
      <trkpt lat="48.28308" lon="-4.10889">
        <ele>123.3</ele>
        <time>2020-06-08T14:07:27Z</time>
      </trkpt>
      <trkpt lat="48.28309" lon="-4.10893">
        <ele>123.5</ele>
        <time>2020-06-08T14:07:28Z</time>
      </trkpt>
      <trkpt lat="48.28309" lon="-4.10895">
        <ele>123.6</ele>
        <time>2020-06-08T14:07:29Z</time>
      </trkpt>
      <trkpt lat="48.2831" lon="-4.10898">
        <ele>123.8</ele>
        <time>2020-06-08T14:07:30Z</time>
      </trkpt>
      <trkpt lat="48.2831" lon="-4.109">
        <ele>123.8</ele>
        <time>2020-06-08T14:07:31Z</time>
      </trkpt>
      <trkpt lat="48.28312" lon="-4.10904">
        <ele>124.1</ele>
        <time>2020-06-08T14:07:32Z</time>
      </trkpt>
      <trkpt lat="48.28312" lon="-4.10906">
        <ele>124.2</ele>
        <time>2020-06-08T14:07:33Z</time>
      </trkpt>
      <trkpt lat="48.28312" lon="-4.10909">
        <ele>124.3</ele>
        <time>2020-06-08T14:07:34Z</time>
      </trkpt>
      <trkpt lat="48.28312" lon="-4.10915">
        <ele>124.6</ele>
        <time>2020-06-08T14:07:35Z</time>
      </trkpt>
      <trkpt lat="48.28312" lon="-4.10917">
        <ele>124.6</ele>
        <time>2020-06-08T14:07:36Z</time>
      </trkpt>
      <trkpt lat="48.28313" lon="-4.10922">
        <ele>124.9</ele>
        <time>2020-06-08T14:07:37Z</time>
      </trkpt>
      <trkpt lat="48.28313" lon="-4.10924">
        <ele>125</ele>
        <time>2020-06-08T14:07:38Z</time>
      </trkpt>
      <trkpt lat="48.28313" lon="-4.10929">
        <ele>125.2</ele>
        <time>2020-06-08T14:07:39Z</time>
      </trkpt>
      <trkpt lat="48.28313" lon="-4.10931">
        <ele>125.3</ele>
        <time>2020-06-08T14:07:40Z</time>
      </trkpt>
      <trkpt lat="48.28313" lon="-4.10935">
        <ele>125.4</ele>
        <time>2020-06-08T14:07:41Z</time>
      </trkpt>
      <trkpt lat="48.28313" lon="-4.10937">
        <ele>125.5</ele>
        <time>2020-06-08T14:07:42Z</time>
      </trkpt>
      <trkpt lat="48.28314" lon="-4.10942">
        <ele>125.7</ele>
        <time>2020-06-08T14:07:43Z</time>
      </trkpt>
      <trkpt lat="48.28315" lon="-4.10944">
        <ele>125.8</ele>
        <time>2020-06-08T14:07:44Z</time>
      </trkpt>
      <trkpt lat="48.28315" lon="-4.10949">
        <ele>126</ele>
        <time>2020-06-08T14:07:45Z</time>
      </trkpt>
      <trkpt lat="48.28315" lon="-4.10951">
        <ele>126</ele>
        <time>2020-06-08T14:07:46Z</time>
      </trkpt>
      <trkpt lat="48.28316" lon="-4.10956">
        <ele>126.3</ele>
        <time>2020-06-08T14:07:47Z</time>
      </trkpt>
      <trkpt lat="48.28316" lon="-4.10959">
        <ele>126.3</ele>
        <time>2020-06-08T14:07:48Z</time>
      </trkpt>
      <trkpt lat="48.28317" lon="-4.10964">
        <ele>126.5</ele>
        <time>2020-06-08T14:07:49Z</time>
      </trkpt>
      <trkpt lat="48.28317" lon="-4.10968">
        <ele>126.7</ele>
        <time>2020-06-08T14:07:50Z</time>
      </trkpt>
      <trkpt lat="48.28317" lon="-4.10972">
        <ele>126.8</ele>
        <time>2020-06-08T14:07:51Z</time>
      </trkpt>
      <trkpt lat="48.28317" lon="-4.10974">
        <ele>126.9</ele>
        <time>2020-06-08T14:07:52Z</time>
      </trkpt>
      <trkpt lat="48.28317" lon="-4.10977">
        <ele>127</ele>
        <time>2020-06-08T14:07:53Z</time>
      </trkpt>
      <trkpt lat="48.28317" lon="-4.10982">
        <ele>127.2</ele>
        <time>2020-06-08T14:07:54Z</time>
      </trkpt>
      <trkpt lat="48.28317" lon="-4.10983">
        <ele>127.3</ele>
        <time>2020-06-08T14:07:55Z</time>
      </trkpt>
      <trkpt lat="48.28316" lon="-4.10986">
        <ele>127.4</ele>
        <time>2020-06-08T14:07:56Z</time>
      </trkpt>
      <trkpt lat="48.28317" lon="-4.10991">
        <ele>127.7</ele>
        <time>2020-06-08T14:07:57Z</time>
      </trkpt>
      <trkpt lat="48.28317" lon="-4.10994">
        <ele>127.8</ele>
        <time>2020-06-08T14:07:58Z</time>
      </trkpt>
      <trkpt lat="48.28318" lon="-4.10997">
        <ele>128</ele>
        <time>2020-06-08T14:07:59Z</time>
      </trkpt>
      <trkpt lat="48.28318" lon="-4.10999">
        <ele>128</ele>
        <time>2020-06-08T14:08:00Z</time>
      </trkpt>
      <trkpt lat="48.28318" lon="-4.11">
        <ele>128.1</ele>
        <time>2020-06-08T14:08:01Z</time>
      </trkpt>
      <trkpt lat="48.28319" lon="-4.11003">
        <ele>128.3</ele>
        <time>2020-06-08T14:08:02Z</time>
      </trkpt>
      <trkpt lat="48.28319" lon="-4.11004">
        <ele>128.3</ele>
        <time>2020-06-08T14:08:03Z</time>
      </trkpt>
      <trkpt lat="48.2832" lon="-4.11007">
        <ele>128.5</ele>
        <time>2020-06-08T14:08:04Z</time>
      </trkpt>
      <trkpt lat="48.2832" lon="-4.11009">
        <ele>128.6</ele>
        <time>2020-06-08T14:08:05Z</time>
      </trkpt>
      <trkpt lat="48.2832" lon="-4.11015">
        <ele>128.9</ele>
        <time>2020-06-08T14:08:06Z</time>
      </trkpt>
      <trkpt lat="48.28321" lon="-4.11018">
        <ele>129</ele>
        <time>2020-06-08T14:08:07Z</time>
      </trkpt>
      <trkpt lat="48.28321" lon="-4.11021">
        <ele>129.2</ele>
        <time>2020-06-08T14:08:08Z</time>
      </trkpt>
      <trkpt lat="48.28322" lon="-4.11023">
        <ele>129.3</ele>
        <time>2020-06-08T14:08:09Z</time>
      </trkpt>
      <trkpt lat="48.28323" lon="-4.11025">
        <ele>129.4</ele>
        <time>2020-06-08T14:08:10Z</time>
      </trkpt>
      <trkpt lat="48.28324" lon="-4.11026">
        <ele>129.5</ele>
        <time>2020-06-08T14:08:11Z</time>
      </trkpt>
      <trkpt lat="48.28326" lon="-4.11028">
        <ele>129.7</ele>
        <time>2020-06-08T14:08:12Z</time>
      </trkpt>
      <trkpt lat="48.28327" lon="-4.11029">
        <ele>129.8</ele>
        <time>2020-06-08T14:08:13Z</time>
      </trkpt>
      <trkpt lat="48.28329" lon="-4.11031">
        <ele>129.9</ele>
        <time>2020-06-08T14:08:14Z</time>
      </trkpt>
      <trkpt lat="48.2833" lon="-4.11031">
        <ele>130.1</ele>
        <time>2020-06-08T14:08:15Z</time>
      </trkpt>
      <trkpt lat="48.28331" lon="-4.11032">
        <ele>130.1</ele>
        <time>2020-06-08T14:08:16Z</time>
      </trkpt>
      <trkpt lat="48.28333" lon="-4.11035">
        <ele>130.3</ele>
        <time>2020-06-08T14:08:17Z</time>
      </trkpt>
      <trkpt lat="48.28334" lon="-4.11036">
        <ele>130.3</ele>
        <time>2020-06-08T14:08:18Z</time>
      </trkpt>
      <trkpt lat="48.28335" lon="-4.11041">
        <ele>130.5</ele>
        <time>2020-06-08T14:08:19Z</time>
      </trkpt>
      <trkpt lat="48.28336" lon="-4.11042">
        <ele>130.6</ele>
        <time>2020-06-08T14:08:20Z</time>
      </trkpt>
      <trkpt lat="48.28336" lon="-4.11045">
        <ele>130.7</ele>
        <time>2020-06-08T14:08:21Z</time>
      </trkpt>
      <trkpt lat="48.28335" lon="-4.11047">
        <ele>130.8</ele>
        <time>2020-06-08T14:08:22Z</time>
      </trkpt>
      <trkpt lat="48.28336" lon="-4.11051">
        <ele>130.9</ele>
        <time>2020-06-08T14:08:23Z</time>
      </trkpt>
      <trkpt lat="48.28335" lon="-4.11053">
        <ele>130.9</ele>
        <time>2020-06-08T14:08:24Z</time>
      </trkpt>
      <trkpt lat="48.28335" lon="-4.11055">
        <ele>131</ele>
        <time>2020-06-08T14:08:25Z</time>
      </trkpt>
      <trkpt lat="48.28335" lon="-4.11058">
        <ele>131.1</ele>
        <time>2020-06-08T14:08:26Z</time>
      </trkpt>
      <trkpt lat="48.28335" lon="-4.1106">
        <ele>131.2</ele>
        <time>2020-06-08T14:08:27Z</time>
      </trkpt>
      <trkpt lat="48.28335" lon="-4.11063">
        <ele>131.3</ele>
        <time>2020-06-08T14:08:28Z</time>
      </trkpt>
      <trkpt lat="48.28336" lon="-4.11068">
        <ele>131.4</ele>
        <time>2020-06-08T14:08:29Z</time>
      </trkpt>
      <trkpt lat="48.28336" lon="-4.11069">
        <ele>131.5</ele>
        <time>2020-06-08T14:08:30Z</time>
      </trkpt>
      <trkpt lat="48.28337" lon="-4.11074">
        <ele>131.6</ele>
        <time>2020-06-08T14:08:31Z</time>
      </trkpt>
      <trkpt lat="48.28337" lon="-4.11076">
        <ele>131.7</ele>
        <time>2020-06-08T14:08:32Z</time>
      </trkpt>
      <trkpt lat="48.28338" lon="-4.11081">
        <ele>131.9</ele>
        <time>2020-06-08T14:08:33Z</time>
      </trkpt>
      <trkpt lat="48.28339" lon="-4.11084">
        <ele>132</ele>
        <time>2020-06-08T14:08:34Z</time>
      </trkpt>
      <trkpt lat="48.28339" lon="-4.11089">
        <ele>132.2</ele>
        <time>2020-06-08T14:08:35Z</time>
      </trkpt>
      <trkpt lat="48.28339" lon="-4.1109">
        <ele>132.2</ele>
        <time>2020-06-08T14:08:36Z</time>
      </trkpt>
      <trkpt lat="48.28339" lon="-4.11095">
        <ele>132.4</ele>
        <time>2020-06-08T14:08:37Z</time>
      </trkpt>
      <trkpt lat="48.28339" lon="-4.11098">
        <ele>132.5</ele>
        <time>2020-06-08T14:08:38Z</time>
      </trkpt>
      <trkpt lat="48.2834" lon="-4.11102">
        <ele>132.7</ele>
        <time>2020-06-08T14:08:39Z</time>
      </trkpt>
      <trkpt lat="48.2834" lon="-4.11104">
        <ele>132.7</ele>
        <time>2020-06-08T14:08:40Z</time>
      </trkpt>
      <trkpt lat="48.2834" lon="-4.11109">
        <ele>132.9</ele>
        <time>2020-06-08T14:08:41Z</time>
      </trkpt>
      <trkpt lat="48.2834" lon="-4.1111">
        <ele>133</ele>
        <time>2020-06-08T14:08:42Z</time>
      </trkpt>
      <trkpt lat="48.28341" lon="-4.11115">
        <ele>133.1</ele>
        <time>2020-06-08T14:08:43Z</time>
      </trkpt>
      <trkpt lat="48.28341" lon="-4.11116">
        <ele>133.2</ele>
        <time>2020-06-08T14:08:44Z</time>
      </trkpt>
      <trkpt lat="48.28342" lon="-4.11122">
        <ele>133.4</ele>
        <time>2020-06-08T14:08:45Z</time>
      </trkpt>
      <trkpt lat="48.28342" lon="-4.11124">
        <ele>133.5</ele>
        <time>2020-06-08T14:08:46Z</time>
      </trkpt>
      <trkpt lat="48.28342" lon="-4.11129">
        <ele>133.7</ele>
        <time>2020-06-08T14:08:47Z</time>
      </trkpt>
      <trkpt lat="48.28342" lon="-4.1113">
        <ele>133.7</ele>
        <time>2020-06-08T14:08:48Z</time>
      </trkpt>
      <trkpt lat="48.28343" lon="-4.11136">
        <ele>133.9</ele>
        <time>2020-06-08T14:08:49Z</time>
      </trkpt>
      <trkpt lat="48.28343" lon="-4.11138">
        <ele>134</ele>
        <time>2020-06-08T14:08:50Z</time>
      </trkpt>
      <trkpt lat="48.28344" lon="-4.11142">
        <ele>134.1</ele>
        <time>2020-06-08T14:08:51Z</time>
      </trkpt>
      <trkpt lat="48.28344" lon="-4.11144">
        <ele>134.2</ele>
        <time>2020-06-08T14:08:52Z</time>
      </trkpt>
      <trkpt lat="48.28344" lon="-4.11148">
        <ele>134.4</ele>
        <time>2020-06-08T14:08:53Z</time>
      </trkpt>
      <trkpt lat="48.28344" lon="-4.11153">
        <ele>134.5</ele>
        <time>2020-06-08T14:08:54Z</time>
      </trkpt>
      <trkpt lat="48.28345" lon="-4.11157">
        <ele>134.6</ele>
        <time>2020-06-08T14:08:55Z</time>
      </trkpt>
      <trkpt lat="48.28347" lon="-4.11161">
        <ele>134.8</ele>
        <time>2020-06-08T14:08:56Z</time>
      </trkpt>
      <trkpt lat="48.28347" lon="-4.11163">
        <ele>134.9</ele>
        <time>2020-06-08T14:08:57Z</time>
      </trkpt>
      <trkpt lat="48.28349" lon="-4.11167">
        <ele>135</ele>
        <time>2020-06-08T14:08:58Z</time>
      </trkpt>
      <trkpt lat="48.2835" lon="-4.11169">
        <ele>135.1</ele>
        <time>2020-06-08T14:08:59Z</time>
      </trkpt>
      <trkpt lat="48.28351" lon="-4.11174">
        <ele>135.2</ele>
        <time>2020-06-08T14:09:00Z</time>
      </trkpt>
      <trkpt lat="48.28351" lon="-4.11175">
        <ele>135.3</ele>
        <time>2020-06-08T14:09:01Z</time>
      </trkpt>
      <trkpt lat="48.28352" lon="-4.11179">
        <ele>135.4</ele>
        <time>2020-06-08T14:09:02Z</time>
      </trkpt>
      <trkpt lat="48.28352" lon="-4.11185">
        <ele>135.6</ele>
        <time>2020-06-08T14:09:03Z</time>
      </trkpt>
      <trkpt lat="48.28353" lon="-4.11187">
        <ele>135.7</ele>
        <time>2020-06-08T14:09:04Z</time>
      </trkpt>
      <trkpt lat="48.28353" lon="-4.11192">
        <ele>135.9</ele>
        <time>2020-06-08T14:09:05Z</time>
      </trkpt>
      <trkpt lat="48.28354" lon="-4.11197">
        <ele>136.1</ele>
        <time>2020-06-08T14:09:06Z</time>
      </trkpt>
      <trkpt lat="48.28354" lon="-4.11199">
        <ele>136.1</ele>
        <time>2020-06-08T14:09:07Z</time>
      </trkpt>
      <trkpt lat="48.28354" lon="-4.11204">
        <ele>136.3</ele>
        <time>2020-06-08T14:09:08Z</time>
      </trkpt>
      <trkpt lat="48.28355" lon="-4.11206">
        <ele>136.4</ele>
        <time>2020-06-08T14:09:09Z</time>
      </trkpt>
      <trkpt lat="48.28355" lon="-4.11212">
        <ele>136.6</ele>
        <time>2020-06-08T14:09:10Z</time>
      </trkpt>
      <trkpt lat="48.28356" lon="-4.11213">
        <ele>136.6</ele>
        <time>2020-06-08T14:09:11Z</time>
      </trkpt>
      <trkpt lat="48.28355" lon="-4.11218">
        <ele>136.8</ele>
        <time>2020-06-08T14:09:12Z</time>
      </trkpt>
      <trkpt lat="48.28355" lon="-4.11219">
        <ele>136.8</ele>
        <time>2020-06-08T14:09:13Z</time>
      </trkpt>
      <trkpt lat="48.28355" lon="-4.11225">
        <ele>137</ele>
        <time>2020-06-08T14:09:14Z</time>
      </trkpt>
      <trkpt lat="48.28355" lon="-4.11227">
        <ele>137.1</ele>
        <time>2020-06-08T14:09:15Z</time>
      </trkpt>
      <trkpt lat="48.28356" lon="-4.11232">
        <ele>137.3</ele>
        <time>2020-06-08T14:09:16Z</time>
      </trkpt>
      <trkpt lat="48.28356" lon="-4.11237">
        <ele>137.4</ele>
        <time>2020-06-08T14:09:17Z</time>
      </trkpt>
      <trkpt lat="48.28357" lon="-4.11242">
        <ele>137.6</ele>
        <time>2020-06-08T14:09:18Z</time>
      </trkpt>
      <trkpt lat="48.28357" lon="-4.11243">
        <ele>137.7</ele>
        <time>2020-06-08T14:09:19Z</time>
      </trkpt>
      <trkpt lat="48.28357" lon="-4.11248">
        <ele>137.8</ele>
        <time>2020-06-08T14:09:20Z</time>
      </trkpt>
      <trkpt lat="48.28357" lon="-4.1125">
        <ele>137.9</ele>
        <time>2020-06-08T14:09:21Z</time>
      </trkpt>
      <trkpt lat="48.28358" lon="-4.11255">
        <ele>138</ele>
        <time>2020-06-08T14:09:22Z</time>
      </trkpt>
      <trkpt lat="48.28359" lon="-4.11257">
        <ele>138.1</ele>
        <time>2020-06-08T14:09:23Z</time>
      </trkpt>
      <trkpt lat="48.2836" lon="-4.11262">
        <ele>138.3</ele>
        <time>2020-06-08T14:09:24Z</time>
      </trkpt>
      <trkpt lat="48.28361" lon="-4.11264">
        <ele>138.4</ele>
        <time>2020-06-08T14:09:25Z</time>
      </trkpt>
      <trkpt lat="48.28361" lon="-4.11268">
        <ele>138.5</ele>
        <time>2020-06-08T14:09:26Z</time>
      </trkpt>
      <trkpt lat="48.28362" lon="-4.11274">
        <ele>138.7</ele>
        <time>2020-06-08T14:09:27Z</time>
      </trkpt>
      <trkpt lat="48.28362" lon="-4.11276">
        <ele>138.7</ele>
        <time>2020-06-08T14:09:28Z</time>
      </trkpt>
      <trkpt lat="48.28362" lon="-4.11282">
        <ele>138.9</ele>
        <time>2020-06-08T14:09:29Z</time>
      </trkpt>
      <trkpt lat="48.28362" lon="-4.11284">
        <ele>139</ele>
        <time>2020-06-08T14:09:30Z</time>
      </trkpt>
      <trkpt lat="48.28362" lon="-4.1129">
        <ele>139.2</ele>
        <time>2020-06-08T14:09:31Z</time>
      </trkpt>
      <trkpt lat="48.28362" lon="-4.11292">
        <ele>139.2</ele>
        <time>2020-06-08T14:09:32Z</time>
      </trkpt>
      <trkpt lat="48.28362" lon="-4.11297">
        <ele>139.4</ele>
        <time>2020-06-08T14:09:33Z</time>
      </trkpt>
      <trkpt lat="48.28363" lon="-4.11299">
        <ele>139.1</ele>
        <time>2020-06-08T14:09:34Z</time>
      </trkpt>
      <trkpt lat="48.28364" lon="-4.11303">
        <ele>139.2</ele>
        <time>2020-06-08T14:09:35Z</time>
      </trkpt>
      <trkpt lat="48.28365" lon="-4.11305">
        <ele>139.3</ele>
        <time>2020-06-08T14:09:36Z</time>
      </trkpt>
      <trkpt lat="48.28365" lon="-4.1131">
        <ele>139.4</ele>
        <time>2020-06-08T14:09:37Z</time>
      </trkpt>
      <trkpt lat="48.28366" lon="-4.11315">
        <ele>139.5</ele>
        <time>2020-06-08T14:09:38Z</time>
      </trkpt>
      <trkpt lat="48.28367" lon="-4.11321">
        <ele>139.7</ele>
        <time>2020-06-08T14:09:39Z</time>
      </trkpt>
      <trkpt lat="48.28368" lon="-4.11324">
        <ele>139.8</ele>
        <time>2020-06-08T14:09:40Z</time>
      </trkpt>
      <trkpt lat="48.28368" lon="-4.11328">
        <ele>139.9</ele>
        <time>2020-06-08T14:09:41Z</time>
      </trkpt>
      <trkpt lat="48.28369" lon="-4.1133">
        <ele>140</ele>
        <time>2020-06-08T14:09:42Z</time>
      </trkpt>
      <trkpt lat="48.28369" lon="-4.11334">
        <ele>140.1</ele>
        <time>2020-06-08T14:09:43Z</time>
      </trkpt>
      <trkpt lat="48.2837" lon="-4.11338">
        <ele>140.2</ele>
        <time>2020-06-08T14:09:44Z</time>
      </trkpt>
      <trkpt lat="48.2837" lon="-4.1134">
        <ele>140.3</ele>
        <time>2020-06-08T14:09:45Z</time>
      </trkpt>
      <trkpt lat="48.28371" lon="-4.11346">
        <ele>140.4</ele>
        <time>2020-06-08T14:09:46Z</time>
      </trkpt>
      <trkpt lat="48.28372" lon="-4.11347">
        <ele>140.5</ele>
        <time>2020-06-08T14:09:47Z</time>
      </trkpt>
      <trkpt lat="48.28372" lon="-4.11353">
        <ele>140.6</ele>
        <time>2020-06-08T14:09:48Z</time>
      </trkpt>
      <trkpt lat="48.28372" lon="-4.11359">
        <ele>140.8</ele>
        <time>2020-06-08T14:09:50Z</time>
      </trkpt>
      <trkpt lat="48.28373" lon="-4.11365">
        <ele>141</ele>
        <time>2020-06-08T14:09:51Z</time>
      </trkpt>
      <trkpt lat="48.28373" lon="-4.11367">
        <ele>141.1</ele>
        <time>2020-06-08T14:09:52Z</time>
      </trkpt>
      <trkpt lat="48.28373" lon="-4.11372">
        <ele>141.2</ele>
        <time>2020-06-08T14:09:53Z</time>
      </trkpt>
      <trkpt lat="48.28374" lon="-4.11376">
        <ele>141.3</ele>
        <time>2020-06-08T14:09:54Z</time>
      </trkpt>
      <trkpt lat="48.28374" lon="-4.11382">
        <ele>141.4</ele>
        <time>2020-06-08T14:09:55Z</time>
      </trkpt>
      <trkpt lat="48.28374" lon="-4.11384">
        <ele>141.5</ele>
        <time>2020-06-08T14:09:56Z</time>
      </trkpt>
      <trkpt lat="48.28375" lon="-4.1139">
        <ele>141.6</ele>
        <time>2020-06-08T14:09:57Z</time>
      </trkpt>
      <trkpt lat="48.28376" lon="-4.11392">
        <ele>141.7</ele>
        <time>2020-06-08T14:09:58Z</time>
      </trkpt>
      <trkpt lat="48.28377" lon="-4.11396">
        <ele>141.8</ele>
        <time>2020-06-08T14:09:59Z</time>
      </trkpt>
      <trkpt lat="48.28378" lon="-4.11402">
        <ele>142</ele>
        <time>2020-06-08T14:10:00Z</time>
      </trkpt>
      <trkpt lat="48.28378" lon="-4.11407">
        <ele>142.1</ele>
        <time>2020-06-08T14:10:01Z</time>
      </trkpt>
      <trkpt lat="48.28378" lon="-4.11412">
        <ele>142.2</ele>
        <time>2020-06-08T14:10:02Z</time>
      </trkpt>
      <trkpt lat="48.28379" lon="-4.11418">
        <ele>142.4</ele>
        <time>2020-06-08T14:10:03Z</time>
      </trkpt>
      <trkpt lat="48.2838" lon="-4.11421">
        <ele>142.4</ele>
        <time>2020-06-08T14:10:04Z</time>
      </trkpt>
      <trkpt lat="48.2838" lon="-4.11425">
        <ele>142.5</ele>
        <time>2020-06-08T14:10:05Z</time>
      </trkpt>
      <trkpt lat="48.28381" lon="-4.1143">
        <ele>142.7</ele>
        <time>2020-06-08T14:10:06Z</time>
      </trkpt>
      <trkpt lat="48.28382" lon="-4.11435">
        <ele>142.8</ele>
        <time>2020-06-08T14:10:07Z</time>
      </trkpt>
      <trkpt lat="48.28382" lon="-4.11439">
        <ele>142.9</ele>
        <time>2020-06-08T14:10:08Z</time>
      </trkpt>
      <trkpt lat="48.28383" lon="-4.11444">
        <ele>143</ele>
        <time>2020-06-08T14:10:09Z</time>
      </trkpt>
      <trkpt lat="48.28384" lon="-4.11447">
        <ele>143.1</ele>
        <time>2020-06-08T14:10:10Z</time>
      </trkpt>
      <trkpt lat="48.28384" lon="-4.11451">
        <ele>143.2</ele>
        <time>2020-06-08T14:10:11Z</time>
      </trkpt>
      <trkpt lat="48.28385" lon="-4.11457">
        <ele>143.4</ele>
        <time>2020-06-08T14:10:12Z</time>
      </trkpt>
      <trkpt lat="48.28385" lon="-4.11459">
        <ele>143.5</ele>
        <time>2020-06-08T14:10:13Z</time>
      </trkpt>
      <trkpt lat="48.28386" lon="-4.11464">
        <ele>143.6</ele>
        <time>2020-06-08T14:10:14Z</time>
      </trkpt>
      <trkpt lat="48.28386" lon="-4.11468">
        <ele>143.7</ele>
        <time>2020-06-08T14:10:15Z</time>
      </trkpt>
      <trkpt lat="48.28387" lon="-4.11472">
        <ele>143.8</ele>
        <time>2020-06-08T14:10:16Z</time>
      </trkpt>
      <trkpt lat="48.28387" lon="-4.11478">
        <ele>143.9</ele>
        <time>2020-06-08T14:10:17Z</time>
      </trkpt>
      <trkpt lat="48.28388" lon="-4.1148">
        <ele>144</ele>
        <time>2020-06-08T14:10:18Z</time>
      </trkpt>
      <trkpt lat="48.28388" lon="-4.11484">
        <ele>144.1</ele>
        <time>2020-06-08T14:10:19Z</time>
      </trkpt>
      <trkpt lat="48.28388" lon="-4.11485">
        <ele>144.1</ele>
        <time>2020-06-08T14:10:20Z</time>
      </trkpt>
      <trkpt lat="48.28388" lon="-4.11492">
        <ele>144.3</ele>
        <time>2020-06-08T14:10:21Z</time>
      </trkpt>
      <trkpt lat="48.28389" lon="-4.11497">
        <ele>144.5</ele>
        <time>2020-06-08T14:10:22Z</time>
      </trkpt>
      <trkpt lat="48.28389" lon="-4.11499">
        <ele>144.5</ele>
        <time>2020-06-08T14:10:23Z</time>
      </trkpt>
      <trkpt lat="48.2839" lon="-4.11504">
        <ele>144.7</ele>
        <time>2020-06-08T14:10:24Z</time>
      </trkpt>
      <trkpt lat="48.2839" lon="-4.11506">
        <ele>144.7</ele>
        <time>2020-06-08T14:10:25Z</time>
      </trkpt>
      <trkpt lat="48.28391" lon="-4.11512">
        <ele>144.9</ele>
        <time>2020-06-08T14:10:26Z</time>
      </trkpt>
      <trkpt lat="48.28392" lon="-4.11518">
        <ele>145</ele>
        <time>2020-06-08T14:10:27Z</time>
      </trkpt>
      <trkpt lat="48.28392" lon="-4.11523">
        <ele>145.2</ele>
        <time>2020-06-08T14:10:28Z</time>
      </trkpt>
      <trkpt lat="48.28393" lon="-4.11529">
        <ele>145.3</ele>
        <time>2020-06-08T14:10:29Z</time>
      </trkpt>
      <trkpt lat="48.28393" lon="-4.11531">
        <ele>145.4</ele>
        <time>2020-06-08T14:10:30Z</time>
      </trkpt>
      <trkpt lat="48.28394" lon="-4.11536">
        <ele>145.5</ele>
        <time>2020-06-08T14:10:31Z</time>
      </trkpt>
      <trkpt lat="48.28394" lon="-4.11541">
        <ele>145.7</ele>
        <time>2020-06-08T14:10:32Z</time>
      </trkpt>
      <trkpt lat="48.28394" lon="-4.11546">
        <ele>145.8</ele>
        <time>2020-06-08T14:10:33Z</time>
      </trkpt>
      <trkpt lat="48.28395" lon="-4.11551">
        <ele>145.9</ele>
        <time>2020-06-08T14:10:34Z</time>
      </trkpt>
      <trkpt lat="48.28396" lon="-4.11555">
        <ele>146.1</ele>
        <time>2020-06-08T14:10:35Z</time>
      </trkpt>
      <trkpt lat="48.28396" lon="-4.11561">
        <ele>146.2</ele>
        <time>2020-06-08T14:10:36Z</time>
      </trkpt>
      <trkpt lat="48.28396" lon="-4.11563">
        <ele>146.3</ele>
        <time>2020-06-08T14:10:37Z</time>
      </trkpt>
      <trkpt lat="48.28397" lon="-4.11569">
        <ele>146.5</ele>
        <time>2020-06-08T14:10:38Z</time>
      </trkpt>
      <trkpt lat="48.28397" lon="-4.1157">
        <ele>146.5</ele>
        <time>2020-06-08T14:10:39Z</time>
      </trkpt>
      <trkpt lat="48.28398" lon="-4.11575">
        <ele>146.7</ele>
        <time>2020-06-08T14:10:40Z</time>
      </trkpt>
      <trkpt lat="48.28399" lon="-4.1158">
        <ele>146.8</ele>
        <time>2020-06-08T14:10:41Z</time>
      </trkpt>
      <trkpt lat="48.28399" lon="-4.11586">
        <ele>147</ele>
        <time>2020-06-08T14:10:42Z</time>
      </trkpt>
      <trkpt lat="48.28399" lon="-4.11587">
        <ele>147</ele>
        <time>2020-06-08T14:10:43Z</time>
      </trkpt>
      <trkpt lat="48.284" lon="-4.11592">
        <ele>147.2</ele>
        <time>2020-06-08T14:10:44Z</time>
      </trkpt>
      <trkpt lat="48.28401" lon="-4.11594">
        <ele>147.2</ele>
        <time>2020-06-08T14:10:45Z</time>
      </trkpt>
      <trkpt lat="48.28402" lon="-4.11599">
        <ele>147.4</ele>
        <time>2020-06-08T14:10:46Z</time>
      </trkpt>
      <trkpt lat="48.28404" lon="-4.11604">
        <ele>147.5</ele>
        <time>2020-06-08T14:10:47Z</time>
      </trkpt>
      <trkpt lat="48.28404" lon="-4.11609">
        <ele>147.7</ele>
        <time>2020-06-08T14:10:48Z</time>
      </trkpt>
      <trkpt lat="48.28405" lon="-4.11615">
        <ele>147.8</ele>
        <time>2020-06-08T14:10:49Z</time>
      </trkpt>
      <trkpt lat="48.28406" lon="-4.11619">
        <ele>148</ele>
        <time>2020-06-08T14:10:50Z</time>
      </trkpt>
      <trkpt lat="48.28407" lon="-4.11623">
        <ele>148.1</ele>
        <time>2020-06-08T14:10:51Z</time>
      </trkpt>
      <trkpt lat="48.28407" lon="-4.11627">
        <ele>148.2</ele>
        <time>2020-06-08T14:10:52Z</time>
      </trkpt>
      <trkpt lat="48.28408" lon="-4.11633">
        <ele>148.4</ele>
        <time>2020-06-08T14:10:53Z</time>
      </trkpt>
      <trkpt lat="48.28409" lon="-4.11636">
        <ele>148.4</ele>
        <time>2020-06-08T14:10:54Z</time>
      </trkpt>
      <trkpt lat="48.28408" lon="-4.1164">
        <ele>148.6</ele>
        <time>2020-06-08T14:10:55Z</time>
      </trkpt>
      <trkpt lat="48.28409" lon="-4.11645">
        <ele>148.7</ele>
        <time>2020-06-08T14:10:56Z</time>
      </trkpt>
      <trkpt lat="48.28409" lon="-4.11648">
        <ele>148.8</ele>
        <time>2020-06-08T14:10:57Z</time>
      </trkpt>
      <trkpt lat="48.2841" lon="-4.11653">
        <ele>149</ele>
        <time>2020-06-08T14:10:58Z</time>
      </trkpt>
      <trkpt lat="48.2841" lon="-4.11656">
        <ele>149</ele>
        <time>2020-06-08T14:10:59Z</time>
      </trkpt>
      <trkpt lat="48.28411" lon="-4.11663">
        <ele>149.2</ele>
        <time>2020-06-08T14:11:00Z</time>
      </trkpt>
      <trkpt lat="48.28411" lon="-4.11666">
        <ele>149.3</ele>
        <time>2020-06-08T14:11:01Z</time>
      </trkpt>
      <trkpt lat="48.28412" lon="-4.1167">
        <ele>149.4</ele>
        <time>2020-06-08T14:11:02Z</time>
      </trkpt>
      <trkpt lat="48.28412" lon="-4.11676">
        <ele>149.6</ele>
        <time>2020-06-08T14:11:03Z</time>
      </trkpt>
      <trkpt lat="48.28413" lon="-4.1168">
        <ele>149.7</ele>
        <time>2020-06-08T14:11:04Z</time>
      </trkpt>
      <trkpt lat="48.28414" lon="-4.11685">
        <ele>149.9</ele>
        <time>2020-06-08T14:11:05Z</time>
      </trkpt>
      <trkpt lat="48.28415" lon="-4.1169">
        <ele>150.1</ele>
        <time>2020-06-08T14:11:06Z</time>
      </trkpt>
      <trkpt lat="48.28416" lon="-4.11696">
        <ele>150.3</ele>
        <time>2020-06-08T14:11:07Z</time>
      </trkpt>
      <trkpt lat="48.28416" lon="-4.11698">
        <ele>150.3</ele>
        <time>2020-06-08T14:11:08Z</time>
      </trkpt>
      <trkpt lat="48.28417" lon="-4.11704">
        <ele>150.5</ele>
        <time>2020-06-08T14:11:09Z</time>
      </trkpt>
      <trkpt lat="48.28417" lon="-4.1171">
        <ele>150.7</ele>
        <time>2020-06-08T14:11:10Z</time>
      </trkpt>
      <trkpt lat="48.28417" lon="-4.11711">
        <ele>150.8</ele>
        <time>2020-06-08T14:11:11Z</time>
      </trkpt>
      <trkpt lat="48.28418" lon="-4.11716">
        <ele>150.9</ele>
        <time>2020-06-08T14:11:12Z</time>
      </trkpt>
      <trkpt lat="48.28417" lon="-4.11721">
        <ele>151.1</ele>
        <time>2020-06-08T14:11:13Z</time>
      </trkpt>
      <trkpt lat="48.28417" lon="-4.11726">
        <ele>151.2</ele>
        <time>2020-06-08T14:11:14Z</time>
      </trkpt>
      <trkpt lat="48.28417" lon="-4.11728">
        <ele>151.3</ele>
        <time>2020-06-08T14:11:15Z</time>
      </trkpt>
      <trkpt lat="48.28418" lon="-4.11734">
        <ele>151.5</ele>
        <time>2020-06-08T14:11:16Z</time>
      </trkpt>
      <trkpt lat="48.28419" lon="-4.11736">
        <ele>151.6</ele>
        <time>2020-06-08T14:11:17Z</time>
      </trkpt>
      <trkpt lat="48.2842" lon="-4.11741">
        <ele>151.7</ele>
        <time>2020-06-08T14:11:18Z</time>
      </trkpt>
      <trkpt lat="48.28421" lon="-4.11746">
        <ele>151.9</ele>
        <time>2020-06-08T14:11:19Z</time>
      </trkpt>
      <trkpt lat="48.28422" lon="-4.11751">
        <ele>152.1</ele>
        <time>2020-06-08T14:11:20Z</time>
      </trkpt>
      <trkpt lat="48.28422" lon="-4.11753">
        <ele>152.2</ele>
        <time>2020-06-08T14:11:21Z</time>
      </trkpt>
      <trkpt lat="48.28423" lon="-4.11758">
        <ele>152.3</ele>
        <time>2020-06-08T14:11:22Z</time>
      </trkpt>
      <trkpt lat="48.28423" lon="-4.11764">
        <ele>152.5</ele>
        <time>2020-06-08T14:11:23Z</time>
      </trkpt>
      <trkpt lat="48.28424" lon="-4.11768">
        <ele>152.6</ele>
        <time>2020-06-08T14:11:24Z</time>
      </trkpt>
      <trkpt lat="48.28425" lon="-4.11772">
        <ele>152.7</ele>
        <time>2020-06-08T14:11:25Z</time>
      </trkpt>
      <trkpt lat="48.28424" lon="-4.11777">
        <ele>152.9</ele>
        <time>2020-06-08T14:11:26Z</time>
      </trkpt>
      <trkpt lat="48.28426" lon="-4.11782">
        <ele>153.1</ele>
        <time>2020-06-08T14:11:27Z</time>
      </trkpt>
      <trkpt lat="48.28426" lon="-4.11784">
        <ele>153.1</ele>
        <time>2020-06-08T14:11:28Z</time>
      </trkpt>
      <trkpt lat="48.28427" lon="-4.11788">
        <ele>153.2</ele>
        <time>2020-06-08T14:11:29Z</time>
      </trkpt>
      <trkpt lat="48.28428" lon="-4.11794">
        <ele>153.4</ele>
        <time>2020-06-08T14:11:30Z</time>
      </trkpt>
      <trkpt lat="48.28428" lon="-4.11797">
        <ele>153.5</ele>
        <time>2020-06-08T14:11:31Z</time>
      </trkpt>
      <trkpt lat="48.28428" lon="-4.11802">
        <ele>153.7</ele>
        <time>2020-06-08T14:11:32Z</time>
      </trkpt>
      <trkpt lat="48.2843" lon="-4.11806">
        <ele>153.8</ele>
        <time>2020-06-08T14:11:33Z</time>
      </trkpt>
      <trkpt lat="48.2843" lon="-4.11812">
        <ele>154</ele>
        <time>2020-06-08T14:11:34Z</time>
      </trkpt>
      <trkpt lat="48.2843" lon="-4.11814">
        <ele>154.1</ele>
        <time>2020-06-08T14:11:35Z</time>
      </trkpt>
      <trkpt lat="48.2843" lon="-4.1182">
        <ele>154.3</ele>
        <time>2020-06-08T14:11:36Z</time>
      </trkpt>
      <trkpt lat="48.28431" lon="-4.11825">
        <ele>154.4</ele>
        <time>2020-06-08T14:11:37Z</time>
      </trkpt>
      <trkpt lat="48.28431" lon="-4.11829">
        <ele>154.6</ele>
        <time>2020-06-08T14:11:38Z</time>
      </trkpt>
      <trkpt lat="48.28431" lon="-4.11834">
        <ele>154.7</ele>
        <time>2020-06-08T14:11:39Z</time>
      </trkpt>
      <trkpt lat="48.28432" lon="-4.11838">
        <ele>154.9</ele>
        <time>2020-06-08T14:11:40Z</time>
      </trkpt>
      <trkpt lat="48.28433" lon="-4.11844">
        <ele>155.1</ele>
        <time>2020-06-08T14:11:41Z</time>
      </trkpt>
      <trkpt lat="48.28433" lon="-4.11846">
        <ele>155.2</ele>
        <time>2020-06-08T14:11:42Z</time>
      </trkpt>
      <trkpt lat="48.28433" lon="-4.11851">
        <ele>155.4</ele>
        <time>2020-06-08T14:11:43Z</time>
      </trkpt>
      <trkpt lat="48.28434" lon="-4.11857">
        <ele>155.5</ele>
        <time>2020-06-08T14:11:44Z</time>
      </trkpt>
      <trkpt lat="48.28434" lon="-4.11862">
        <ele>155.7</ele>
        <time>2020-06-08T14:11:45Z</time>
      </trkpt>
      <trkpt lat="48.28435" lon="-4.11866">
        <ele>155.9</ele>
        <time>2020-06-08T14:11:46Z</time>
      </trkpt>
      <trkpt lat="48.28435" lon="-4.11871">
        <ele>156</ele>
        <time>2020-06-08T14:11:47Z</time>
      </trkpt>
      <trkpt lat="48.28436" lon="-4.11873">
        <ele>156.1</ele>
        <time>2020-06-08T14:11:48Z</time>
      </trkpt>
      <trkpt lat="48.28436" lon="-4.11877">
        <ele>156.2</ele>
        <time>2020-06-08T14:11:49Z</time>
      </trkpt>
      <trkpt lat="48.28437" lon="-4.11883">
        <ele>156.4</ele>
        <time>2020-06-08T14:11:50Z</time>
      </trkpt>
      <trkpt lat="48.28438" lon="-4.11885">
        <ele>156.5</ele>
        <time>2020-06-08T14:11:51Z</time>
      </trkpt>
      <trkpt lat="48.28438" lon="-4.11889">
        <ele>156.6</ele>
        <time>2020-06-08T14:11:52Z</time>
      </trkpt>
      <trkpt lat="48.28439" lon="-4.11897">
        <ele>156.9</ele>
        <time>2020-06-08T14:11:53Z</time>
      </trkpt>
      <trkpt lat="48.28438" lon="-4.11899">
        <ele>157</ele>
        <time>2020-06-08T14:11:54Z</time>
      </trkpt>
      <trkpt lat="48.28439" lon="-4.11901">
        <ele>157.1</ele>
        <time>2020-06-08T14:11:55Z</time>
      </trkpt>
      <trkpt lat="48.28439" lon="-4.11906">
        <ele>157.2</ele>
        <time>2020-06-08T14:11:56Z</time>
      </trkpt>
      <trkpt lat="48.2844" lon="-4.11911">
        <ele>157.4</ele>
        <time>2020-06-08T14:11:57Z</time>
      </trkpt>
      <trkpt lat="48.28441" lon="-4.11915">
        <ele>157.5</ele>
        <time>2020-06-08T14:11:58Z</time>
      </trkpt>
      <trkpt lat="48.28442" lon="-4.1192">
        <ele>157.7</ele>
        <time>2020-06-08T14:11:59Z</time>
      </trkpt>
      <trkpt lat="48.28443" lon="-4.11925">
        <ele>157.9</ele>
        <time>2020-06-08T14:12:00Z</time>
      </trkpt>
      <trkpt lat="48.28443" lon="-4.11927">
        <ele>158</ele>
        <time>2020-06-08T14:12:01Z</time>
      </trkpt>
      <trkpt lat="48.28443" lon="-4.11934">
        <ele>158.2</ele>
        <time>2020-06-08T14:12:02Z</time>
      </trkpt>
      <trkpt lat="48.28443" lon="-4.11936">
        <ele>158.3</ele>
        <time>2020-06-08T14:12:03Z</time>
      </trkpt>
      <trkpt lat="48.28444" lon="-4.11943">
        <ele>158.5</ele>
        <time>2020-06-08T14:12:04Z</time>
      </trkpt>
      <trkpt lat="48.28444" lon="-4.11945">
        <ele>158.6</ele>
        <time>2020-06-08T14:12:05Z</time>
      </trkpt>
      <trkpt lat="48.28445" lon="-4.11951">
        <ele>158.8</ele>
        <time>2020-06-08T14:12:06Z</time>
      </trkpt>
      <trkpt lat="48.28446" lon="-4.11953">
        <ele>158.8</ele>
        <time>2020-06-08T14:12:07Z</time>
      </trkpt>
      <trkpt lat="48.28447" lon="-4.11957">
        <ele>159</ele>
        <time>2020-06-08T14:12:08Z</time>
      </trkpt>
      <trkpt lat="48.28447" lon="-4.11962">
        <ele>159.2</ele>
        <time>2020-06-08T14:12:09Z</time>
      </trkpt>
      <trkpt lat="48.28448" lon="-4.11968">
        <ele>159.4</ele>
        <time>2020-06-08T14:12:10Z</time>
      </trkpt>
      <trkpt lat="48.28449" lon="-4.1197">
        <ele>159.4</ele>
        <time>2020-06-08T14:12:11Z</time>
      </trkpt>
      <trkpt lat="48.2845" lon="-4.11974">
        <ele>159.6</ele>
        <time>2020-06-08T14:12:12Z</time>
      </trkpt>
      <trkpt lat="48.28451" lon="-4.11979">
        <ele>159.7</ele>
        <time>2020-06-08T14:12:13Z</time>
      </trkpt>
      <trkpt lat="48.28452" lon="-4.11985">
        <ele>159.9</ele>
        <time>2020-06-08T14:12:14Z</time>
      </trkpt>
      <trkpt lat="48.28452" lon="-4.11987">
        <ele>160</ele>
        <time>2020-06-08T14:12:15Z</time>
      </trkpt>
      <trkpt lat="48.28452" lon="-4.11991">
        <ele>160.2</ele>
        <time>2020-06-08T14:12:16Z</time>
      </trkpt>
      <trkpt lat="48.28453" lon="-4.11996">
        <ele>160.3</ele>
        <time>2020-06-08T14:12:17Z</time>
      </trkpt>
      <trkpt lat="48.28454" lon="-4.12">
        <ele>160.5</ele>
        <time>2020-06-08T14:12:18Z</time>
      </trkpt>
      <trkpt lat="48.28454" lon="-4.12005">
        <ele>160.6</ele>
        <time>2020-06-08T14:12:19Z</time>
      </trkpt>
      <trkpt lat="48.28455" lon="-4.12007">
        <ele>160.7</ele>
        <time>2020-06-08T14:12:20Z</time>
      </trkpt>
      <trkpt lat="48.28455" lon="-4.12011">
        <ele>160.8</ele>
        <time>2020-06-08T14:12:21Z</time>
      </trkpt>
      <trkpt lat="48.28456" lon="-4.12016">
        <ele>161</ele>
        <time>2020-06-08T14:12:22Z</time>
      </trkpt>
      <trkpt lat="48.28457" lon="-4.1202">
        <ele>161.1</ele>
        <time>2020-06-08T14:12:23Z</time>
      </trkpt>
      <trkpt lat="48.28459" lon="-4.12025">
        <ele>161.4</ele>
        <time>2020-06-08T14:12:24Z</time>
      </trkpt>
      <trkpt lat="48.2846" lon="-4.12027">
        <ele>161.4</ele>
        <time>2020-06-08T14:12:25Z</time>
      </trkpt>
      <trkpt lat="48.28462" lon="-4.12032">
        <ele>161.6</ele>
        <time>2020-06-08T14:12:26Z</time>
      </trkpt>
      <trkpt lat="48.28463" lon="-4.12034">
        <ele>161.7</ele>
        <time>2020-06-08T14:12:27Z</time>
      </trkpt>
      <trkpt lat="48.28466" lon="-4.12038">
        <ele>161.9</ele>
        <time>2020-06-08T14:12:28Z</time>
      </trkpt>
      <trkpt lat="48.28467" lon="-4.12039">
        <ele>161.9</ele>
        <time>2020-06-08T14:12:29Z</time>
      </trkpt>
      <trkpt lat="48.28468" lon="-4.12043">
        <ele>162.1</ele>
        <time>2020-06-08T14:12:30Z</time>
      </trkpt>
      <trkpt lat="48.2847" lon="-4.12047">
        <ele>162.3</ele>
        <time>2020-06-08T14:12:31Z</time>
      </trkpt>
      <trkpt lat="48.28472" lon="-4.12052">
        <ele>162.5</ele>
        <time>2020-06-08T14:12:32Z</time>
      </trkpt>
      <trkpt lat="48.28473" lon="-4.12056">
        <ele>162.6</ele>
        <time>2020-06-08T14:12:33Z</time>
      </trkpt>
      <trkpt lat="48.28475" lon="-4.12059">
        <ele>162.8</ele>
        <time>2020-06-08T14:12:34Z</time>
      </trkpt>
      <trkpt lat="48.28476" lon="-4.12064">
        <ele>163</ele>
        <time>2020-06-08T14:12:35Z</time>
      </trkpt>
      <trkpt lat="48.28479" lon="-4.12068">
        <ele>163.1</ele>
        <time>2020-06-08T14:12:36Z</time>
      </trkpt>
      <trkpt lat="48.2848" lon="-4.1207">
        <ele>163.2</ele>
        <time>2020-06-08T14:12:37Z</time>
      </trkpt>
      <trkpt lat="48.28481" lon="-4.12072">
        <ele>163.3</ele>
        <time>2020-06-08T14:12:38Z</time>
      </trkpt>
      <trkpt lat="48.28481" lon="-4.12075">
        <ele>163.4</ele>
        <time>2020-06-08T14:12:39Z</time>
      </trkpt>
      <trkpt lat="48.28483" lon="-4.12078">
        <ele>163.6</ele>
        <time>2020-06-08T14:12:40Z</time>
      </trkpt>
      <trkpt lat="48.28484" lon="-4.1208">
        <ele>163.6</ele>
        <time>2020-06-08T14:12:41Z</time>
      </trkpt>
      <trkpt lat="48.28485" lon="-4.12085">
        <ele>163.8</ele>
        <time>2020-06-08T14:12:42Z</time>
      </trkpt>
      <trkpt lat="48.28485" lon="-4.12086">
        <ele>163.9</ele>
        <time>2020-06-08T14:12:43Z</time>
      </trkpt>
      <trkpt lat="48.28487" lon="-4.12091">
        <ele>164</ele>
        <time>2020-06-08T14:12:44Z</time>
      </trkpt>
      <trkpt lat="48.28488" lon="-4.12092">
        <ele>164.1</ele>
        <time>2020-06-08T14:12:45Z</time>
      </trkpt>
      <trkpt lat="48.28489" lon="-4.12095">
        <ele>164.2</ele>
        <time>2020-06-08T14:12:46Z</time>
      </trkpt>
      <trkpt lat="48.2849" lon="-4.12096">
        <ele>164.3</ele>
        <time>2020-06-08T14:12:47Z</time>
      </trkpt>
      <trkpt lat="48.28491" lon="-4.12096">
        <ele>164.3</ele>
        <time>2020-06-08T14:12:48Z</time>
      </trkpt>
      <trkpt lat="48.28493" lon="-4.12097">
        <ele>164.6</ele>
        <time>2020-06-08T14:12:49Z</time>
      </trkpt>
      <trkpt lat="48.28496" lon="-4.121">
        <ele>164.7</ele>
        <time>2020-06-08T14:12:50Z</time>
      </trkpt>
      <trkpt lat="48.28496" lon="-4.12101">
        <ele>164.7</ele>
        <time>2020-06-08T14:12:51Z</time>
      </trkpt>
      <trkpt lat="48.28499" lon="-4.12104">
        <ele>164.8</ele>
        <time>2020-06-08T14:12:52Z</time>
      </trkpt>
      <trkpt lat="48.28501" lon="-4.12107">
        <ele>164.9</ele>
        <time>2020-06-08T14:12:53Z</time>
      </trkpt>
      <trkpt lat="48.28501" lon="-4.12108">
        <ele>164.9</ele>
        <time>2020-06-08T14:12:54Z</time>
      </trkpt>
      <trkpt lat="48.28503" lon="-4.1211">
        <ele>164.9</ele>
        <time>2020-06-08T14:12:55Z</time>
      </trkpt>
      <trkpt lat="48.28504" lon="-4.12111">
        <ele>164.9</ele>
        <time>2020-06-08T14:12:56Z</time>
      </trkpt>
      <trkpt lat="48.28506" lon="-4.12116">
        <ele>165</ele>
        <time>2020-06-08T14:12:57Z</time>
      </trkpt>
      <trkpt lat="48.28507" lon="-4.12118">
        <ele>165</ele>
        <time>2020-06-08T14:12:58Z</time>
      </trkpt>
      <trkpt lat="48.28509" lon="-4.12121">
        <ele>165.1</ele>
        <time>2020-06-08T14:12:59Z</time>
      </trkpt>
      <trkpt lat="48.28511" lon="-4.12125">
        <ele>165.1</ele>
        <time>2020-06-08T14:13:00Z</time>
      </trkpt>
      <trkpt lat="48.28511" lon="-4.12125">
        <ele>165.1</ele>
        <time>2020-06-08T14:13:01Z</time>
      </trkpt>
      <trkpt lat="48.28513" lon="-4.12127">
        <ele>165.1</ele>
        <time>2020-06-08T14:13:02Z</time>
      </trkpt>
      <trkpt lat="48.28513" lon="-4.12128">
        <ele>165.1</ele>
        <time>2020-06-08T14:13:03Z</time>
      </trkpt>
      <trkpt lat="48.28514" lon="-4.12128">
        <ele>165.1</ele>
        <time>2020-06-08T14:13:04Z</time>
      </trkpt>
      <trkpt lat="48.28515" lon="-4.12129">
        <ele>165.2</ele>
        <time>2020-06-08T14:13:05Z</time>
      </trkpt>
      <trkpt lat="48.28516" lon="-4.12129">
        <ele>165.2</ele>
        <time>2020-06-08T14:13:06Z</time>
      </trkpt>
      <trkpt lat="48.28517" lon="-4.1213">
        <ele>165.2</ele>
        <time>2020-06-08T14:13:07Z</time>
      </trkpt>
      <trkpt lat="48.28517" lon="-4.1213">
        <ele>165.2</ele>
        <time>2020-06-08T14:13:08Z</time>
      </trkpt>
      <trkpt lat="48.28516" lon="-4.12131">
        <ele>165.2</ele>
        <time>2020-06-08T14:13:09Z</time>
      </trkpt>
      <trkpt lat="48.28516" lon="-4.12131">
        <ele>165.2</ele>
        <time>2020-06-08T14:13:10Z</time>
      </trkpt>
      <trkpt lat="48.28516" lon="-4.12131">
        <ele>165.2</ele>
        <time>2020-06-08T14:13:11Z</time>
      </trkpt>
      <trkpt lat="48.28517" lon="-4.1213">
        <ele>165.2</ele>
        <time>2020-06-08T14:13:12Z</time>
      </trkpt>
      <trkpt lat="48.28517" lon="-4.12131">
        <ele>165.2</ele>
        <time>2020-06-08T14:13:13Z</time>
      </trkpt>
      <trkpt lat="48.28517" lon="-4.12132">
        <ele>165.2</ele>
        <time>2020-06-08T14:13:14Z</time>
      </trkpt>
      <trkpt lat="48.28517" lon="-4.12133">
        <ele>165.2</ele>
        <time>2020-06-08T14:13:15Z</time>
      </trkpt>
      <trkpt lat="48.28515" lon="-4.12132">
        <ele>165.3</ele>
        <time>2020-06-08T14:13:16Z</time>
      </trkpt>
      <trkpt lat="48.28514" lon="-4.12132">
        <ele>165.3</ele>
        <time>2020-06-08T14:13:17Z</time>
      </trkpt>
      <trkpt lat="48.28518" lon="-4.12132">
        <ele>165.3</ele>
        <time>2020-06-08T14:13:18Z</time>
      </trkpt>
      <trkpt lat="48.28522" lon="-4.12133">
        <ele>165.3</ele>
        <time>2020-06-08T14:13:19Z</time>
      </trkpt>
      <trkpt lat="48.28525" lon="-4.12134">
        <ele>165.4</ele>
        <time>2020-06-08T14:14:28Z</time>
      </trkpt>
      <trkpt lat="48.28528" lon="-4.12135">
        <ele>165.4</ele>
        <time>2020-06-08T14:14:29Z</time>
      </trkpt>
      <trkpt lat="48.28531" lon="-4.1214">
        <ele>165.4</ele>
        <time>2020-06-08T14:14:30Z</time>
      </trkpt>
      <trkpt lat="48.28531" lon="-4.12142">
        <ele>165.4</ele>
        <time>2020-06-08T14:14:31Z</time>
      </trkpt>
      <trkpt lat="48.28533" lon="-4.12145">
        <ele>165.4</ele>
        <time>2020-06-08T14:14:32Z</time>
      </trkpt>
      <trkpt lat="48.28536" lon="-4.1215">
        <ele>165.5</ele>
        <time>2020-06-08T14:14:33Z</time>
      </trkpt>
      <trkpt lat="48.28537" lon="-4.12151">
        <ele>165.5</ele>
        <time>2020-06-08T14:14:34Z</time>
      </trkpt>
      <trkpt lat="48.28539" lon="-4.12156">
        <ele>165.5</ele>
        <time>2020-06-08T14:14:35Z</time>
      </trkpt>
      <trkpt lat="48.28542" lon="-4.1216">
        <ele>165.5</ele>
        <time>2020-06-08T14:14:36Z</time>
      </trkpt>
      <trkpt lat="48.28543" lon="-4.12164">
        <ele>165.6</ele>
        <time>2020-06-08T14:14:37Z</time>
      </trkpt>
      <trkpt lat="48.28545" lon="-4.12167">
        <ele>165.6</ele>
        <time>2020-06-08T14:14:38Z</time>
      </trkpt>
      <trkpt lat="48.28548" lon="-4.12172">
        <ele>165.6</ele>
        <time>2020-06-08T14:14:39Z</time>
      </trkpt>
      <trkpt lat="48.2855" lon="-4.12177">
        <ele>165.6</ele>
        <time>2020-06-08T14:14:40Z</time>
      </trkpt>
      <trkpt lat="48.28552" lon="-4.12182">
        <ele>165.6</ele>
        <time>2020-06-08T14:14:41Z</time>
      </trkpt>
      <trkpt lat="48.28554" lon="-4.12187">
        <ele>165.6</ele>
        <time>2020-06-08T14:14:42Z</time>
      </trkpt>
      <trkpt lat="48.28557" lon="-4.1219">
        <ele>165.5</ele>
        <time>2020-06-08T14:14:43Z</time>
      </trkpt>
      <trkpt lat="48.2856" lon="-4.12194">
        <ele>165.5</ele>
        <time>2020-06-08T14:14:44Z</time>
      </trkpt>
      <trkpt lat="48.28563" lon="-4.12197">
        <ele>165.5</ele>
        <time>2020-06-08T14:14:45Z</time>
      </trkpt>
      <trkpt lat="48.28565" lon="-4.122">
        <ele>165.5</ele>
        <time>2020-06-08T14:14:46Z</time>
      </trkpt>
      <trkpt lat="48.28568" lon="-4.12204">
        <ele>165.4</ele>
        <time>2020-06-08T14:14:47Z</time>
      </trkpt>
      <trkpt lat="48.28571" lon="-4.12208">
        <ele>165.4</ele>
        <time>2020-06-08T14:14:48Z</time>
      </trkpt>
      <trkpt lat="48.28574" lon="-4.12212">
        <ele>165.3</ele>
        <time>2020-06-08T14:14:49Z</time>
      </trkpt>
      <trkpt lat="48.28577" lon="-4.12216">
        <ele>165.3</ele>
        <time>2020-06-08T14:14:50Z</time>
      </trkpt>
      <trkpt lat="48.28579" lon="-4.1222">
        <ele>165.3</ele>
        <time>2020-06-08T14:14:51Z</time>
      </trkpt>
      <trkpt lat="48.28581" lon="-4.12223">
        <ele>165.2</ele>
        <time>2020-06-08T14:14:52Z</time>
      </trkpt>
      <trkpt lat="48.28584" lon="-4.12227">
        <ele>165.2</ele>
        <time>2020-06-08T14:14:53Z</time>
      </trkpt>
      <trkpt lat="48.28587" lon="-4.1223">
        <ele>165.1</ele>
        <time>2020-06-08T14:14:54Z</time>
      </trkpt>
      <trkpt lat="48.28589" lon="-4.12233">
        <ele>165</ele>
        <time>2020-06-08T14:14:55Z</time>
      </trkpt>
      <trkpt lat="48.28593" lon="-4.12236">
        <ele>165</ele>
        <time>2020-06-08T14:14:56Z</time>
      </trkpt>
      <trkpt lat="48.28594" lon="-4.12238">
        <ele>164.9</ele>
        <time>2020-06-08T14:14:57Z</time>
      </trkpt>
      <trkpt lat="48.28596" lon="-4.1224">
        <ele>164.9</ele>
        <time>2020-06-08T14:14:58Z</time>
      </trkpt>
      <trkpt lat="48.28598" lon="-4.12244">
        <ele>164.8</ele>
        <time>2020-06-08T14:14:59Z</time>
      </trkpt>
      <trkpt lat="48.28601" lon="-4.12248">
        <ele>164.7</ele>
        <time>2020-06-08T14:15:00Z</time>
      </trkpt>
      <trkpt lat="48.28604" lon="-4.12253">
        <ele>164.5</ele>
        <time>2020-06-08T14:15:01Z</time>
      </trkpt>
      <trkpt lat="48.28606" lon="-4.12259">
        <ele>164.4</ele>
        <time>2020-06-08T14:15:02Z</time>
      </trkpt>
      <trkpt lat="48.28609" lon="-4.12264">
        <ele>164.2</ele>
        <time>2020-06-08T14:15:03Z</time>
      </trkpt>
      <trkpt lat="48.2861" lon="-4.12269">
        <ele>164.1</ele>
        <time>2020-06-08T14:15:04Z</time>
      </trkpt>
      <trkpt lat="48.28613" lon="-4.12274">
        <ele>163.9</ele>
        <time>2020-06-08T14:15:05Z</time>
      </trkpt>
      <trkpt lat="48.28616" lon="-4.1228">
        <ele>163.7</ele>
        <time>2020-06-08T14:15:06Z</time>
      </trkpt>
      <trkpt lat="48.28618" lon="-4.12287">
        <ele>163.5</ele>
        <time>2020-06-08T14:15:07Z</time>
      </trkpt>
      <trkpt lat="48.28621" lon="-4.12293">
        <ele>163.3</ele>
        <time>2020-06-08T14:15:08Z</time>
      </trkpt>
      <trkpt lat="48.28624" lon="-4.12299">
        <ele>163.1</ele>
        <time>2020-06-08T14:15:09Z</time>
      </trkpt>
      <trkpt lat="48.28626" lon="-4.12305">
        <ele>163</ele>
        <time>2020-06-08T14:15:10Z</time>
      </trkpt>
      <trkpt lat="48.28628" lon="-4.12314">
        <ele>162.7</ele>
        <time>2020-06-08T14:15:11Z</time>
      </trkpt>
      <trkpt lat="48.2863" lon="-4.1232">
        <ele>162.5</ele>
        <time>2020-06-08T14:15:12Z</time>
      </trkpt>
      <trkpt lat="48.28633" lon="-4.12328">
        <ele>162.3</ele>
        <time>2020-06-08T14:15:13Z</time>
      </trkpt>
      <trkpt lat="48.28635" lon="-4.12338">
        <ele>162</ele>
        <time>2020-06-08T14:15:14Z</time>
      </trkpt>
      <trkpt lat="48.28637" lon="-4.12347">
        <ele>161.7</ele>
        <time>2020-06-08T14:15:15Z</time>
      </trkpt>
      <trkpt lat="48.2864" lon="-4.12356">
        <ele>161.4</ele>
        <time>2020-06-08T14:15:16Z</time>
      </trkpt>
      <trkpt lat="48.28642" lon="-4.12365">
        <ele>161.2</ele>
        <time>2020-06-08T14:15:17Z</time>
      </trkpt>
      <trkpt lat="48.28644" lon="-4.12375">
        <ele>160.9</ele>
        <time>2020-06-08T14:15:18Z</time>
      </trkpt>
      <trkpt lat="48.28646" lon="-4.12384">
        <ele>160.6</ele>
        <time>2020-06-08T14:15:19Z</time>
      </trkpt>
      <trkpt lat="48.28649" lon="-4.12392">
        <ele>160</ele>
        <time>2020-06-08T14:15:20Z</time>
      </trkpt>
      <trkpt lat="48.28652" lon="-4.12401">
        <ele>159.7</ele>
        <time>2020-06-08T14:15:21Z</time>
      </trkpt>
      <trkpt lat="48.28654" lon="-4.12411">
        <ele>159.4</ele>
        <time>2020-06-08T14:15:22Z</time>
      </trkpt>
      <trkpt lat="48.28656" lon="-4.12419">
        <ele>159.1</ele>
        <time>2020-06-08T14:15:23Z</time>
      </trkpt>
      <trkpt lat="48.28657" lon="-4.12427">
        <ele>158.9</ele>
        <time>2020-06-08T14:15:24Z</time>
      </trkpt>
      <trkpt lat="48.28659" lon="-4.12435">
        <ele>158.7</ele>
        <time>2020-06-08T14:15:25Z</time>
      </trkpt>
      <trkpt lat="48.28661" lon="-4.12441">
        <ele>158.6</ele>
        <time>2020-06-08T14:15:26Z</time>
      </trkpt>
      <trkpt lat="48.28662" lon="-4.12448">
        <ele>158.5</ele>
        <time>2020-06-08T14:15:27Z</time>
      </trkpt>
      <trkpt lat="48.28664" lon="-4.12452">
        <ele>158.4</ele>
        <time>2020-06-08T14:15:28Z</time>
      </trkpt>
      <trkpt lat="48.28665" lon="-4.12453">
        <ele>158.4</ele>
        <time>2020-06-08T14:15:29Z</time>
      </trkpt>
      <trkpt lat="48.28665" lon="-4.12453">
        <ele>158.4</ele>
        <time>2020-06-08T14:15:30Z</time>
      </trkpt>
      <trkpt lat="48.28665" lon="-4.12453">
        <ele>158.4</ele>
        <time>2020-06-08T14:15:31Z</time>
      </trkpt>
      <trkpt lat="48.28665" lon="-4.12453">
        <ele>158.4</ele>
        <time>2020-06-08T14:15:32Z</time>
      </trkpt>
      <trkpt lat="48.28665" lon="-4.12454">
        <ele>158.4</ele>
        <time>2020-06-08T14:15:33Z</time>
      </trkpt>
      <trkpt lat="48.28665" lon="-4.12454">
        <ele>158.4</ele>
        <time>2020-06-08T14:15:34Z</time>
      </trkpt>
      <trkpt lat="48.28665" lon="-4.12454">
        <ele>158.4</ele>
        <time>2020-06-08T14:15:35Z</time>
      </trkpt>
      <trkpt lat="48.28665" lon="-4.12455">
        <ele>158.4</ele>
        <time>2020-06-08T14:15:36Z</time>
      </trkpt>
      <trkpt lat="48.28665" lon="-4.12455">
        <ele>158.4</ele>
        <time>2020-06-08T14:15:37Z</time>
      </trkpt>
      <trkpt lat="48.28665" lon="-4.12455">
        <ele>158.4</ele>
        <time>2020-06-08T14:15:38Z</time>
      </trkpt>
      <trkpt lat="48.28665" lon="-4.12455">
        <ele>158.4</ele>
        <time>2020-06-08T14:15:39Z</time>
      </trkpt>
      <trkpt lat="48.28665" lon="-4.12456">
        <ele>158.4</ele>
        <time>2020-06-08T14:15:40Z</time>
      </trkpt>
      <trkpt lat="48.28665" lon="-4.12456">
        <ele>158.4</ele>
        <time>2020-06-08T14:15:41Z</time>
      </trkpt>
      <trkpt lat="48.28665" lon="-4.12456">
        <ele>158.4</ele>
        <time>2020-06-08T14:15:42Z</time>
      </trkpt>
      <trkpt lat="48.28665" lon="-4.12457">
        <ele>158.4</ele>
        <time>2020-06-08T14:15:43Z</time>
      </trkpt>
      <trkpt lat="48.28665" lon="-4.12457">
        <ele>158.4</ele>
        <time>2020-06-08T14:15:44Z</time>
      </trkpt>
      <trkpt lat="48.28665" lon="-4.12457">
        <ele>158.4</ele>
        <time>2020-06-08T14:15:45Z</time>
      </trkpt>
      <trkpt lat="48.28665" lon="-4.12458">
        <ele>158.4</ele>
        <time>2020-06-08T14:15:46Z</time>
      </trkpt>
      <trkpt lat="48.28665" lon="-4.12458">
        <ele>158.3</ele>
        <time>2020-06-08T14:15:47Z</time>
      </trkpt>
      <trkpt lat="48.28665" lon="-4.12458">
        <ele>158.3</ele>
        <time>2020-06-08T14:15:48Z</time>
      </trkpt>
      <trkpt lat="48.28665" lon="-4.12458">
        <ele>158.3</ele>
        <time>2020-06-08T14:15:49Z</time>
      </trkpt>
      <trkpt lat="48.28666" lon="-4.1246">
        <ele>158.3</ele>
        <time>2020-06-08T14:15:50Z</time>
      </trkpt>
      <trkpt lat="48.28668" lon="-4.12461">
        <ele>158.3</ele>
        <time>2020-06-08T14:15:51Z</time>
      </trkpt>
      <trkpt lat="48.28669" lon="-4.12462">
        <ele>158.2</ele>
        <time>2020-06-08T14:15:52Z</time>
      </trkpt>
      <trkpt lat="48.2867" lon="-4.12463">
        <ele>158.2</ele>
        <time>2020-06-08T14:15:53Z</time>
      </trkpt>
      <trkpt lat="48.2867" lon="-4.12464">
        <ele>158.2</ele>
        <time>2020-06-08T14:15:54Z</time>
      </trkpt>
      <trkpt lat="48.2867" lon="-4.12466">
        <ele>158.2</ele>
        <time>2020-06-08T14:15:55Z</time>
      </trkpt>
      <trkpt lat="48.2867" lon="-4.12466">
        <ele>158.2</ele>
        <time>2020-06-08T14:15:56Z</time>
      </trkpt>
      <trkpt lat="48.2867" lon="-4.12467">
        <ele>158.2</ele>
        <time>2020-06-08T14:15:57Z</time>
      </trkpt>
      <trkpt lat="48.2867" lon="-4.12467">
        <ele>158.2</ele>
        <time>2020-06-08T14:15:58Z</time>
      </trkpt>
      <trkpt lat="48.2867" lon="-4.12467">
        <ele>158.2</ele>
        <time>2020-06-08T14:15:59Z</time>
      </trkpt>
      <trkpt lat="48.2867" lon="-4.12468">
        <ele>158.2</ele>
        <time>2020-06-08T14:16:00Z</time>
      </trkpt>
      <trkpt lat="48.2867" lon="-4.12468">
        <ele>158.2</ele>
        <time>2020-06-08T14:16:01Z</time>
      </trkpt>
      <trkpt lat="48.2867" lon="-4.12468">
        <ele>158.2</ele>
        <time>2020-06-08T14:16:02Z</time>
      </trkpt>
      <trkpt lat="48.2867" lon="-4.12468">
        <ele>158.2</ele>
        <time>2020-06-08T14:16:03Z</time>
      </trkpt>
      <trkpt lat="48.2867" lon="-4.12468">
        <ele>158.2</ele>
        <time>2020-06-08T14:16:04Z</time>
      </trkpt>
      <trkpt lat="48.2867" lon="-4.12468">
        <ele>158.1</ele>
        <time>2020-06-08T14:16:05Z</time>
      </trkpt>
      <trkpt lat="48.2867" lon="-4.12468">
        <ele>158.1</ele>
        <time>2020-06-08T14:16:06Z</time>
      </trkpt>
      <trkpt lat="48.28671" lon="-4.12468">
        <ele>158.1</ele>
        <time>2020-06-08T14:16:07Z</time>
      </trkpt>
      <trkpt lat="48.28671" lon="-4.12468">
        <ele>158.1</ele>
        <time>2020-06-08T14:16:08Z</time>
      </trkpt>
      <trkpt lat="48.28671" lon="-4.12467">
        <ele>158.1</ele>
        <time>2020-06-08T14:16:09Z</time>
      </trkpt>
      <trkpt lat="48.28676" lon="-4.12462">
        <ele>158</ele>
        <time>2020-06-08T14:18:38Z</time>
      </trkpt>
      <trkpt lat="48.28676" lon="-4.12462">
        <ele>157.9</ele>
        <time>2020-06-08T14:18:39Z</time>
      </trkpt>
      <trkpt lat="48.28675" lon="-4.12462">
        <ele>157.9</ele>
        <time>2020-06-08T14:18:40Z</time>
      </trkpt>
      <trkpt lat="48.28675" lon="-4.12462">
        <ele>157.9</ele>
        <time>2020-06-08T14:18:41Z</time>
      </trkpt>
      <trkpt lat="48.28675" lon="-4.12462">
        <ele>157.9</ele>
        <time>2020-06-08T14:18:42Z</time>
      </trkpt>
      <trkpt lat="48.28675" lon="-4.12462">
        <ele>157.9</ele>
        <time>2020-06-08T14:18:43Z</time>
      </trkpt>
      <trkpt lat="48.28674" lon="-4.12462">
        <ele>157.9</ele>
        <time>2020-06-08T14:18:44Z</time>
      </trkpt>
      <trkpt lat="48.28675" lon="-4.12462">
        <ele>157.9</ele>
        <time>2020-06-08T14:18:45Z</time>
      </trkpt>
      <trkpt lat="48.28675" lon="-4.12463">
        <ele>157.8</ele>
        <time>2020-06-08T14:18:46Z</time>
      </trkpt>
      <trkpt lat="48.28675" lon="-4.12462">
        <ele>157.8</ele>
        <time>2020-06-08T14:18:47Z</time>
      </trkpt>
      <trkpt lat="48.28675" lon="-4.12463">
        <ele>157.8</ele>
        <time>2020-06-08T14:18:48Z</time>
      </trkpt>
      <trkpt lat="48.28675" lon="-4.12464">
        <ele>157.8</ele>
        <time>2020-06-08T14:18:49Z</time>
      </trkpt>
      <trkpt lat="48.28676" lon="-4.12464">
        <ele>157.8</ele>
        <time>2020-06-08T14:18:50Z</time>
      </trkpt>
      <trkpt lat="48.28676" lon="-4.12464">
        <ele>157.8</ele>
        <time>2020-06-08T14:18:51Z</time>
      </trkpt>
      <trkpt lat="48.28676" lon="-4.12464">
        <ele>157.8</ele>
        <time>2020-06-08T14:18:52Z</time>
      </trkpt>
      <trkpt lat="48.28676" lon="-4.12464">
        <ele>157.8</ele>
        <time>2020-06-08T14:18:53Z</time>
      </trkpt>
      <trkpt lat="48.28676" lon="-4.12464">
        <ele>157.8</ele>
        <time>2020-06-08T14:18:54Z</time>
      </trkpt>
      <trkpt lat="48.28676" lon="-4.12464">
        <ele>157.8</ele>
        <time>2020-06-08T14:18:55Z</time>
      </trkpt>
      <trkpt lat="48.28676" lon="-4.12464">
        <ele>157.8</ele>
        <time>2020-06-08T14:18:56Z</time>
      </trkpt>
      <trkpt lat="48.28676" lon="-4.12464">
        <ele>157.8</ele>
        <time>2020-06-08T14:18:57Z</time>
      </trkpt>
      <trkpt lat="48.28675" lon="-4.12465">
        <ele>157.7</ele>
        <time>2020-06-08T14:18:58Z</time>
      </trkpt>
      <trkpt lat="48.28675" lon="-4.12465">
        <ele>157.7</ele>
        <time>2020-06-08T14:18:59Z</time>
      </trkpt>
      <trkpt lat="48.28675" lon="-4.12463">
        <ele>157.7</ele>
        <time>2020-06-08T14:19:00Z</time>
      </trkpt>
      <trkpt lat="48.28665" lon="-4.12456">
        <ele>157.3</ele>
        <time>2020-06-08T14:20:36Z</time>
      </trkpt>
      <trkpt lat="48.28663" lon="-4.12456">
        <ele>157.3</ele>
        <time>2020-06-08T14:20:37Z</time>
      </trkpt>
      <trkpt lat="48.28662" lon="-4.12454">
        <ele>157.2</ele>
        <time>2020-06-08T14:20:38Z</time>
      </trkpt>
      <trkpt lat="48.28662" lon="-4.12452">
        <ele>157.2</ele>
        <time>2020-06-08T14:20:39Z</time>
      </trkpt>
      <trkpt lat="48.28662" lon="-4.12451">
        <ele>157.1</ele>
        <time>2020-06-08T14:20:40Z</time>
      </trkpt>
      <trkpt lat="48.28662" lon="-4.1245">
        <ele>157.1</ele>
        <time>2020-06-08T14:20:41Z</time>
      </trkpt>
      <trkpt lat="48.28662" lon="-4.12449">
        <ele>157.1</ele>
        <time>2020-06-08T14:20:42Z</time>
      </trkpt>
      <trkpt lat="48.28662" lon="-4.12449">
        <ele>157.1</ele>
        <time>2020-06-08T14:20:43Z</time>
      </trkpt>
      <trkpt lat="48.28662" lon="-4.12448">
        <ele>157.1</ele>
        <time>2020-06-08T14:20:44Z</time>
      </trkpt>
      <trkpt lat="48.28661" lon="-4.12446">
        <ele>157</ele>
        <time>2020-06-08T14:20:45Z</time>
      </trkpt>
      <trkpt lat="48.28661" lon="-4.12446">
        <ele>157</ele>
        <time>2020-06-08T14:20:46Z</time>
      </trkpt>
      <trkpt lat="48.28661" lon="-4.12446">
        <ele>157</ele>
        <time>2020-06-08T14:20:47Z</time>
      </trkpt>
      <trkpt lat="48.28661" lon="-4.12446">
        <ele>157</ele>
        <time>2020-06-08T14:20:48Z</time>
      </trkpt>
      <trkpt lat="48.28661" lon="-4.12446">
        <ele>157</ele>
        <time>2020-06-08T14:20:49Z</time>
      </trkpt>
      <trkpt lat="48.28661" lon="-4.12446">
        <ele>157</ele>
        <time>2020-06-08T14:20:50Z</time>
      </trkpt>
      <trkpt lat="48.28663" lon="-4.12447">
        <ele>157</ele>
        <time>2020-06-08T14:20:51Z</time>
      </trkpt>
      <trkpt lat="48.28663" lon="-4.12448">
        <ele>157</ele>
        <time>2020-06-08T14:20:52Z</time>
      </trkpt>
      <trkpt lat="48.28664" lon="-4.12448">
        <ele>156.9</ele>
        <time>2020-06-08T14:20:53Z</time>
      </trkpt>
      <trkpt lat="48.28664" lon="-4.12448">
        <ele>156.9</ele>
        <time>2020-06-08T14:20:54Z</time>
      </trkpt>
      <trkpt lat="48.28664" lon="-4.12448">
        <ele>156.9</ele>
        <time>2020-06-08T14:20:55Z</time>
      </trkpt>
      <trkpt lat="48.28666" lon="-4.12459">
        <ele>156.7</ele>
        <time>2020-06-08T14:22:56Z</time>
      </trkpt>
      <trkpt lat="48.28666" lon="-4.12459">
        <ele>156.7</ele>
        <time>2020-06-08T14:22:57Z</time>
      </trkpt>
      <trkpt lat="48.28665" lon="-4.12461">
        <ele>156.7</ele>
        <time>2020-06-08T14:22:58Z</time>
      </trkpt>
      <trkpt lat="48.28665" lon="-4.12462">
        <ele>156.7</ele>
        <time>2020-06-08T14:22:59Z</time>
      </trkpt>
      <trkpt lat="48.28664" lon="-4.12463">
        <ele>156.6</ele>
        <time>2020-06-08T14:23:00Z</time>
      </trkpt>
      <trkpt lat="48.28664" lon="-4.12464">
        <ele>156.6</ele>
        <time>2020-06-08T14:23:01Z</time>
      </trkpt>
      <trkpt lat="48.28664" lon="-4.12465">
        <ele>156.6</ele>
        <time>2020-06-08T14:23:02Z</time>
      </trkpt>
      <trkpt lat="48.28663" lon="-4.12466">
        <ele>156.6</ele>
        <time>2020-06-08T14:23:03Z</time>
      </trkpt>
      <trkpt lat="48.28663" lon="-4.12467">
        <ele>156.6</ele>
        <time>2020-06-08T14:23:04Z</time>
      </trkpt>
      <trkpt lat="48.28663" lon="-4.12468">
        <ele>156.5</ele>
        <time>2020-06-08T14:23:05Z</time>
      </trkpt>
      <trkpt lat="48.28662" lon="-4.12468">
        <ele>156.5</ele>
        <time>2020-06-08T14:23:06Z</time>
      </trkpt>
      <trkpt lat="48.28662" lon="-4.12469">
        <ele>156.5</ele>
        <time>2020-06-08T14:23:07Z</time>
      </trkpt>
      <trkpt lat="48.28662" lon="-4.1247">
        <ele>156.5</ele>
        <time>2020-06-08T14:23:32Z</time>
      </trkpt>
      <trkpt lat="48.28661" lon="-4.12471">
        <ele>156.5</ele>
        <time>2020-06-08T14:23:33Z</time>
      </trkpt>
      <trkpt lat="48.28661" lon="-4.12476">
        <ele>156.3</ele>
        <time>2020-06-08T14:23:34Z</time>
      </trkpt>
      <trkpt lat="48.2866" lon="-4.1248">
        <ele>156.3</ele>
        <time>2020-06-08T14:23:35Z</time>
      </trkpt>
      <trkpt lat="48.28659" lon="-4.12484">
        <ele>156.2</ele>
        <time>2020-06-08T14:23:36Z</time>
      </trkpt>
      <trkpt lat="48.28656" lon="-4.12488">
        <ele>156</ele>
        <time>2020-06-08T14:23:37Z</time>
      </trkpt>
      <trkpt lat="48.28654" lon="-4.12492">
        <ele>155.9</ele>
        <time>2020-06-08T14:23:38Z</time>
      </trkpt>
      <trkpt lat="48.28652" lon="-4.12498">
        <ele>155.8</ele>
        <time>2020-06-08T14:23:39Z</time>
      </trkpt>
      <trkpt lat="48.2865" lon="-4.12503">
        <ele>155.7</ele>
        <time>2020-06-08T14:23:40Z</time>
      </trkpt>
      <trkpt lat="48.28648" lon="-4.12509">
        <ele>155.6</ele>
        <time>2020-06-08T14:23:41Z</time>
      </trkpt>
      <trkpt lat="48.28646" lon="-4.12514">
        <ele>155.5</ele>
        <time>2020-06-08T14:23:42Z</time>
      </trkpt>
      <trkpt lat="48.28644" lon="-4.12519">
        <ele>155.4</ele>
        <time>2020-06-08T14:23:43Z</time>
      </trkpt>
      <trkpt lat="48.28641" lon="-4.12523">
        <ele>155.3</ele>
        <time>2020-06-08T14:23:44Z</time>
      </trkpt>
      <trkpt lat="48.28639" lon="-4.12526">
        <ele>155.2</ele>
        <time>2020-06-08T14:23:45Z</time>
      </trkpt>
      <trkpt lat="48.28637" lon="-4.12529">
        <ele>155.2</ele>
        <time>2020-06-08T14:23:46Z</time>
      </trkpt>
      <trkpt lat="48.28636" lon="-4.1253">
        <ele>155.1</ele>
        <time>2020-06-08T14:23:47Z</time>
      </trkpt>
      <trkpt lat="48.28634" lon="-4.12531">
        <ele>155.1</ele>
        <time>2020-06-08T14:23:48Z</time>
      </trkpt>
      <trkpt lat="48.28634" lon="-4.12533">
        <ele>155.1</ele>
        <time>2020-06-08T14:23:49Z</time>
      </trkpt>
      <trkpt lat="48.28632" lon="-4.12538">
        <ele>155</ele>
        <time>2020-06-08T14:23:50Z</time>
      </trkpt>
      <trkpt lat="48.28631" lon="-4.1254">
        <ele>154.9</ele>
        <time>2020-06-08T14:23:51Z</time>
      </trkpt>
      <trkpt lat="48.28629" lon="-4.12545">
        <ele>154.7</ele>
        <time>2020-06-08T14:23:52Z</time>
      </trkpt>
      <trkpt lat="48.28628" lon="-4.12551">
        <ele>154.5</ele>
        <time>2020-06-08T14:23:53Z</time>
      </trkpt>
      <trkpt lat="48.28627" lon="-4.12557">
        <ele>154.4</ele>
        <time>2020-06-08T14:23:54Z</time>
      </trkpt>
      <trkpt lat="48.28626" lon="-4.12562">
        <ele>154.2</ele>
        <time>2020-06-08T14:23:55Z</time>
      </trkpt>
      <trkpt lat="48.28625" lon="-4.12569">
        <ele>154</ele>
        <time>2020-06-08T14:23:56Z</time>
      </trkpt>
      <trkpt lat="48.28624" lon="-4.12576">
        <ele>153.8</ele>
        <time>2020-06-08T14:23:57Z</time>
      </trkpt>
      <trkpt lat="48.28623" lon="-4.12584">
        <ele>153.5</ele>
        <time>2020-06-08T14:23:58Z</time>
      </trkpt>
      <trkpt lat="48.28622" lon="-4.12591">
        <ele>153.3</ele>
        <time>2020-06-08T14:23:59Z</time>
      </trkpt>
      <trkpt lat="48.28621" lon="-4.12599">
        <ele>153.1</ele>
        <time>2020-06-08T14:24:00Z</time>
      </trkpt>
      <trkpt lat="48.2862" lon="-4.12607">
        <ele>152.8</ele>
        <time>2020-06-08T14:24:01Z</time>
      </trkpt>
      <trkpt lat="48.28618" lon="-4.12615">
        <ele>152.6</ele>
        <time>2020-06-08T14:24:02Z</time>
      </trkpt>
      <trkpt lat="48.28616" lon="-4.12624">
        <ele>152.3</ele>
        <time>2020-06-08T14:24:03Z</time>
      </trkpt>
      <trkpt lat="48.28614" lon="-4.12634">
        <ele>152</ele>
        <time>2020-06-08T14:24:04Z</time>
      </trkpt>
      <trkpt lat="48.28612" lon="-4.12644">
        <ele>151.7</ele>
        <time>2020-06-08T14:24:05Z</time>
      </trkpt>
      <trkpt lat="48.2861" lon="-4.12656">
        <ele>151.3</ele>
        <time>2020-06-08T14:24:06Z</time>
      </trkpt>
      <trkpt lat="48.28609" lon="-4.12666">
        <ele>151</ele>
        <time>2020-06-08T14:24:07Z</time>
      </trkpt>
      <trkpt lat="48.28606" lon="-4.12677">
        <ele>150.7</ele>
        <time>2020-06-08T14:24:08Z</time>
      </trkpt>
      <trkpt lat="48.28604" lon="-4.1269">
        <ele>150.3</ele>
        <time>2020-06-08T14:24:09Z</time>
      </trkpt>
      <trkpt lat="48.28601" lon="-4.12704">
        <ele>149.9</ele>
        <time>2020-06-08T14:24:10Z</time>
      </trkpt>
      <trkpt lat="48.28598" lon="-4.12717">
        <ele>149.5</ele>
        <time>2020-06-08T14:24:11Z</time>
      </trkpt>
      <trkpt lat="48.28595" lon="-4.12731">
        <ele>149.1</ele>
        <time>2020-06-08T14:24:12Z</time>
      </trkpt>
      <trkpt lat="48.28593" lon="-4.12744">
        <ele>148.7</ele>
        <time>2020-06-08T14:24:13Z</time>
      </trkpt>
      <trkpt lat="48.28589" lon="-4.12757">
        <ele>148.3</ele>
        <time>2020-06-08T14:24:14Z</time>
      </trkpt>
      <trkpt lat="48.28586" lon="-4.1277">
        <ele>147.8</ele>
        <time>2020-06-08T14:24:15Z</time>
      </trkpt>
      <trkpt lat="48.28583" lon="-4.12784">
        <ele>147.4</ele>
        <time>2020-06-08T14:24:16Z</time>
      </trkpt>
      <trkpt lat="48.2858" lon="-4.12797">
        <ele>147</ele>
        <time>2020-06-08T14:24:17Z</time>
      </trkpt>
      <trkpt lat="48.28577" lon="-4.12811">
        <ele>146.6</ele>
        <time>2020-06-08T14:24:18Z</time>
      </trkpt>
      <trkpt lat="48.28574" lon="-4.12824">
        <ele>146.2</ele>
        <time>2020-06-08T14:24:19Z</time>
      </trkpt>
      <trkpt lat="48.2857" lon="-4.12837">
        <ele>145.8</ele>
        <time>2020-06-08T14:24:20Z</time>
      </trkpt>
      <trkpt lat="48.28567" lon="-4.12852">
        <ele>145.4</ele>
        <time>2020-06-08T14:24:21Z</time>
      </trkpt>
      <trkpt lat="48.28564" lon="-4.12866">
        <ele>145</ele>
        <time>2020-06-08T14:24:22Z</time>
      </trkpt>
      <trkpt lat="48.2856" lon="-4.1288">
        <ele>144.6</ele>
        <time>2020-06-08T14:24:23Z</time>
      </trkpt>
      <trkpt lat="48.28556" lon="-4.12894">
        <ele>144.2</ele>
        <time>2020-06-08T14:24:24Z</time>
      </trkpt>
      <trkpt lat="48.28552" lon="-4.12908">
        <ele>143.7</ele>
        <time>2020-06-08T14:24:25Z</time>
      </trkpt>
      <trkpt lat="48.28548" lon="-4.12922">
        <ele>143.2</ele>
        <time>2020-06-08T14:24:26Z</time>
      </trkpt>
      <trkpt lat="48.28544" lon="-4.12936">
        <ele>142.8</ele>
        <time>2020-06-08T14:24:27Z</time>
      </trkpt>
      <trkpt lat="48.2854" lon="-4.12949">
        <ele>142.3</ele>
        <time>2020-06-08T14:24:28Z</time>
      </trkpt>
      <trkpt lat="48.28536" lon="-4.12963">
        <ele>141.8</ele>
        <time>2020-06-08T14:24:29Z</time>
      </trkpt>
      <trkpt lat="48.28533" lon="-4.12977">
        <ele>141.3</ele>
        <time>2020-06-08T14:24:30Z</time>
      </trkpt>
      <trkpt lat="48.28529" lon="-4.12991">
        <ele>140.8</ele>
        <time>2020-06-08T14:24:31Z</time>
      </trkpt>
      <trkpt lat="48.28526" lon="-4.13005">
        <ele>140.2</ele>
        <time>2020-06-08T14:24:32Z</time>
      </trkpt>
      <trkpt lat="48.28522" lon="-4.1302">
        <ele>139.7</ele>
        <time>2020-06-08T14:24:33Z</time>
      </trkpt>
      <trkpt lat="48.28519" lon="-4.13035">
        <ele>139.1</ele>
        <time>2020-06-08T14:24:34Z</time>
      </trkpt>
      <trkpt lat="48.28515" lon="-4.13049">
        <ele>138.6</ele>
        <time>2020-06-08T14:24:35Z</time>
      </trkpt>
      <trkpt lat="48.2851" lon="-4.13064">
        <ele>138.1</ele>
        <time>2020-06-08T14:24:36Z</time>
      </trkpt>
      <trkpt lat="48.28505" lon="-4.13078">
        <ele>137.5</ele>
        <time>2020-06-08T14:24:37Z</time>
      </trkpt>
      <trkpt lat="48.28501" lon="-4.13093">
        <ele>137</ele>
        <time>2020-06-08T14:24:38Z</time>
      </trkpt>
      <trkpt lat="48.28498" lon="-4.13108">
        <ele>136.5</ele>
        <time>2020-06-08T14:24:39Z</time>
      </trkpt>
      <trkpt lat="48.28494" lon="-4.13123">
        <ele>136</ele>
        <time>2020-06-08T14:24:40Z</time>
      </trkpt>
      <trkpt lat="48.28489" lon="-4.13138">
        <ele>135.5</ele>
        <time>2020-06-08T14:24:41Z</time>
      </trkpt>
      <trkpt lat="48.28485" lon="-4.13152">
        <ele>135.1</ele>
        <time>2020-06-08T14:24:42Z</time>
      </trkpt>
      <trkpt lat="48.2848" lon="-4.13167">
        <ele>134.6</ele>
        <time>2020-06-08T14:24:43Z</time>
      </trkpt>
      <trkpt lat="48.28475" lon="-4.13182">
        <ele>134.1</ele>
        <time>2020-06-08T14:24:44Z</time>
      </trkpt>
      <trkpt lat="48.28471" lon="-4.13197">
        <ele>133.7</ele>
        <time>2020-06-08T14:24:45Z</time>
      </trkpt>
      <trkpt lat="48.28466" lon="-4.13211">
        <ele>133.2</ele>
        <time>2020-06-08T14:24:46Z</time>
      </trkpt>
      <trkpt lat="48.28462" lon="-4.13226">
        <ele>132.7</ele>
        <time>2020-06-08T14:24:47Z</time>
      </trkpt>
      <trkpt lat="48.28457" lon="-4.13241">
        <ele>132.3</ele>
        <time>2020-06-08T14:24:48Z</time>
      </trkpt>
      <trkpt lat="48.28453" lon="-4.13255">
        <ele>131.9</ele>
        <time>2020-06-08T14:24:49Z</time>
      </trkpt>
      <trkpt lat="48.2845" lon="-4.1327">
        <ele>131.5</ele>
        <time>2020-06-08T14:24:50Z</time>
      </trkpt>
      <trkpt lat="48.28446" lon="-4.13285">
        <ele>131.1</ele>
        <time>2020-06-08T14:24:51Z</time>
      </trkpt>
      <trkpt lat="48.28442" lon="-4.13299">
        <ele>130.6</ele>
        <time>2020-06-08T14:24:52Z</time>
      </trkpt>
      <trkpt lat="48.28439" lon="-4.13314">
        <ele>130.2</ele>
        <time>2020-06-08T14:24:53Z</time>
      </trkpt>
      <trkpt lat="48.28436" lon="-4.13328">
        <ele>129.8</ele>
        <time>2020-06-08T14:24:54Z</time>
      </trkpt>
      <trkpt lat="48.28433" lon="-4.13342">
        <ele>129.4</ele>
        <time>2020-06-08T14:24:55Z</time>
      </trkpt>
      <trkpt lat="48.28431" lon="-4.13356">
        <ele>128.9</ele>
        <time>2020-06-08T14:24:56Z</time>
      </trkpt>
      <trkpt lat="48.28428" lon="-4.13371">
        <ele>128.5</ele>
        <time>2020-06-08T14:24:57Z</time>
      </trkpt>
      <trkpt lat="48.28427" lon="-4.13386">
        <ele>128</ele>
        <time>2020-06-08T14:24:58Z</time>
      </trkpt>
      <trkpt lat="48.28425" lon="-4.13401">
        <ele>127.6</ele>
        <time>2020-06-08T14:24:59Z</time>
      </trkpt>
      <trkpt lat="48.28424" lon="-4.13416">
        <ele>127.2</ele>
        <time>2020-06-08T14:25:00Z</time>
      </trkpt>
      <trkpt lat="48.28423" lon="-4.13431">
        <ele>126.8</ele>
        <time>2020-06-08T14:25:01Z</time>
      </trkpt>
      <trkpt lat="48.28422" lon="-4.13446">
        <ele>126.4</ele>
        <time>2020-06-08T14:25:02Z</time>
      </trkpt>
      <trkpt lat="48.28423" lon="-4.13461">
        <ele>125.9</ele>
        <time>2020-06-08T14:25:03Z</time>
      </trkpt>
      <trkpt lat="48.28423" lon="-4.13476">
        <ele>125.5</ele>
        <time>2020-06-08T14:25:04Z</time>
      </trkpt>
      <trkpt lat="48.28423" lon="-4.13491">
        <ele>125.1</ele>
        <time>2020-06-08T14:25:05Z</time>
      </trkpt>
      <trkpt lat="48.28424" lon="-4.13505">
        <ele>124.7</ele>
        <time>2020-06-08T14:25:06Z</time>
      </trkpt>
      <trkpt lat="48.28425" lon="-4.1352">
        <ele>124.3</ele>
        <time>2020-06-08T14:25:07Z</time>
      </trkpt>
      <trkpt lat="48.28426" lon="-4.13535">
        <ele>123.9</ele>
        <time>2020-06-08T14:25:08Z</time>
      </trkpt>
      <trkpt lat="48.28428" lon="-4.1355">
        <ele>123.6</ele>
        <time>2020-06-08T14:25:09Z</time>
      </trkpt>
      <trkpt lat="48.28429" lon="-4.13564">
        <ele>123.2</ele>
        <time>2020-06-08T14:25:10Z</time>
      </trkpt>
      <trkpt lat="48.28431" lon="-4.13579">
        <ele>122.8</ele>
        <time>2020-06-08T14:25:11Z</time>
      </trkpt>
      <trkpt lat="48.28432" lon="-4.13593">
        <ele>122.4</ele>
        <time>2020-06-08T14:25:12Z</time>
      </trkpt>
      <trkpt lat="48.28433" lon="-4.13608">
        <ele>122</ele>
        <time>2020-06-08T14:25:13Z</time>
      </trkpt>
      <trkpt lat="48.28435" lon="-4.13622">
        <ele>121.7</ele>
        <time>2020-06-08T14:25:14Z</time>
      </trkpt>
      <trkpt lat="48.28436" lon="-4.13637">
        <ele>121.3</ele>
        <time>2020-06-08T14:25:15Z</time>
      </trkpt>
      <trkpt lat="48.28439" lon="-4.13652">
        <ele>120.9</ele>
        <time>2020-06-08T14:25:16Z</time>
      </trkpt>
      <trkpt lat="48.28441" lon="-4.13668">
        <ele>120.5</ele>
        <time>2020-06-08T14:25:17Z</time>
      </trkpt>
      <trkpt lat="48.28443" lon="-4.13684">
        <ele>120</ele>
        <time>2020-06-08T14:25:18Z</time>
      </trkpt>
      <trkpt lat="48.28445" lon="-4.137">
        <ele>119.6</ele>
        <time>2020-06-08T14:25:19Z</time>
      </trkpt>
      <trkpt lat="48.28447" lon="-4.13717">
        <ele>119.2</ele>
        <time>2020-06-08T14:25:20Z</time>
      </trkpt>
      <trkpt lat="48.28448" lon="-4.13733">
        <ele>118.8</ele>
        <time>2020-06-08T14:25:21Z</time>
      </trkpt>
      <trkpt lat="48.2845" lon="-4.1375">
        <ele>118.4</ele>
        <time>2020-06-08T14:25:22Z</time>
      </trkpt>
      <trkpt lat="48.28451" lon="-4.13767">
        <ele>117.9</ele>
        <time>2020-06-08T14:25:23Z</time>
      </trkpt>
      <trkpt lat="48.28453" lon="-4.13783">
        <ele>117.5</ele>
        <time>2020-06-08T14:25:24Z</time>
      </trkpt>
      <trkpt lat="48.28456" lon="-4.13799">
        <ele>117.1</ele>
        <time>2020-06-08T14:25:25Z</time>
      </trkpt>
      <trkpt lat="48.28458" lon="-4.13816">
        <ele>116.7</ele>
        <time>2020-06-08T14:25:26Z</time>
      </trkpt>
      <trkpt lat="48.2846" lon="-4.13833">
        <ele>116.3</ele>
        <time>2020-06-08T14:25:27Z</time>
      </trkpt>
      <trkpt lat="48.28462" lon="-4.13849">
        <ele>115.9</ele>
        <time>2020-06-08T14:25:28Z</time>
      </trkpt>
      <trkpt lat="48.28464" lon="-4.13865">
        <ele>115.5</ele>
        <time>2020-06-08T14:25:29Z</time>
      </trkpt>
      <trkpt lat="48.28465" lon="-4.13881">
        <ele>115.1</ele>
        <time>2020-06-08T14:25:30Z</time>
      </trkpt>
      <trkpt lat="48.28466" lon="-4.13896">
        <ele>114.8</ele>
        <time>2020-06-08T14:25:31Z</time>
      </trkpt>
      <trkpt lat="48.28466" lon="-4.13913">
        <ele>114.4</ele>
        <time>2020-06-08T14:25:32Z</time>
      </trkpt>
      <trkpt lat="48.28467" lon="-4.13929">
        <ele>114.1</ele>
        <time>2020-06-08T14:25:33Z</time>
      </trkpt>
      <trkpt lat="48.28468" lon="-4.13945">
        <ele>113.7</ele>
        <time>2020-06-08T14:25:34Z</time>
      </trkpt>
      <trkpt lat="48.28468" lon="-4.13961">
        <ele>113.4</ele>
        <time>2020-06-08T14:25:35Z</time>
      </trkpt>
      <trkpt lat="48.28468" lon="-4.13977">
        <ele>112.9</ele>
        <time>2020-06-08T14:25:36Z</time>
      </trkpt>
      <trkpt lat="48.28468" lon="-4.13993">
        <ele>112.5</ele>
        <time>2020-06-08T14:25:37Z</time>
      </trkpt>
      <trkpt lat="48.28467" lon="-4.14009">
        <ele>112</ele>
        <time>2020-06-08T14:25:38Z</time>
      </trkpt>
      <trkpt lat="48.28466" lon="-4.14025">
        <ele>111.6</ele>
        <time>2020-06-08T14:25:39Z</time>
      </trkpt>
      <trkpt lat="48.28464" lon="-4.14041">
        <ele>111.2</ele>
        <time>2020-06-08T14:25:40Z</time>
      </trkpt>
      <trkpt lat="48.28461" lon="-4.14057">
        <ele>110.7</ele>
        <time>2020-06-08T14:25:41Z</time>
      </trkpt>
      <trkpt lat="48.28458" lon="-4.14072">
        <ele>110.2</ele>
        <time>2020-06-08T14:25:42Z</time>
      </trkpt>
      <trkpt lat="48.28454" lon="-4.14086">
        <ele>109.8</ele>
        <time>2020-06-08T14:25:43Z</time>
      </trkpt>
      <trkpt lat="48.28451" lon="-4.14101">
        <ele>109.3</ele>
        <time>2020-06-08T14:25:44Z</time>
      </trkpt>
      <trkpt lat="48.28448" lon="-4.14115">
        <ele>108.9</ele>
        <time>2020-06-08T14:25:45Z</time>
      </trkpt>
      <trkpt lat="48.28446" lon="-4.14131">
        <ele>108.5</ele>
        <time>2020-06-08T14:25:46Z</time>
      </trkpt>
      <trkpt lat="48.28443" lon="-4.14146">
        <ele>108.1</ele>
        <time>2020-06-08T14:25:47Z</time>
      </trkpt>
      <trkpt lat="48.2844" lon="-4.14161">
        <ele>107.7</ele>
        <time>2020-06-08T14:25:48Z</time>
      </trkpt>
      <trkpt lat="48.28436" lon="-4.14176">
        <ele>107.3</ele>
        <time>2020-06-08T14:25:49Z</time>
      </trkpt>
      <trkpt lat="48.28432" lon="-4.14193">
        <ele>106.8</ele>
        <time>2020-06-08T14:25:50Z</time>
      </trkpt>
      <trkpt lat="48.28429" lon="-4.14208">
        <ele>106.3</ele>
        <time>2020-06-08T14:25:51Z</time>
      </trkpt>
      <trkpt lat="48.28425" lon="-4.14223">
        <ele>105.9</ele>
        <time>2020-06-08T14:25:52Z</time>
      </trkpt>
      <trkpt lat="48.28422" lon="-4.14239">
        <ele>105.4</ele>
        <time>2020-06-08T14:25:53Z</time>
      </trkpt>
      <trkpt lat="48.28419" lon="-4.14255">
        <ele>104.9</ele>
        <time>2020-06-08T14:25:54Z</time>
      </trkpt>
      <trkpt lat="48.28417" lon="-4.14271">
        <ele>104.5</ele>
        <time>2020-06-08T14:25:55Z</time>
      </trkpt>
      <trkpt lat="48.28417" lon="-4.14288">
        <ele>104</ele>
        <time>2020-06-08T14:25:56Z</time>
      </trkpt>
      <trkpt lat="48.28415" lon="-4.14305">
        <ele>103.5</ele>
        <time>2020-06-08T14:25:57Z</time>
      </trkpt>
      <trkpt lat="48.28415" lon="-4.14322">
        <ele>103.1</ele>
        <time>2020-06-08T14:25:58Z</time>
      </trkpt>
      <trkpt lat="48.28415" lon="-4.14339">
        <ele>102.6</ele>
        <time>2020-06-08T14:25:59Z</time>
      </trkpt>
      <trkpt lat="48.28417" lon="-4.14356">
        <ele>102.2</ele>
        <time>2020-06-08T14:26:00Z</time>
      </trkpt>
      <trkpt lat="48.28418" lon="-4.14372">
        <ele>101.8</ele>
        <time>2020-06-08T14:26:01Z</time>
      </trkpt>
      <trkpt lat="48.28419" lon="-4.14388">
        <ele>101.4</ele>
        <time>2020-06-08T14:26:02Z</time>
      </trkpt>
      <trkpt lat="48.2842" lon="-4.14404">
        <ele>101</ele>
        <time>2020-06-08T14:26:03Z</time>
      </trkpt>
      <trkpt lat="48.28421" lon="-4.14418">
        <ele>100.7</ele>
        <time>2020-06-08T14:26:04Z</time>
      </trkpt>
      <trkpt lat="48.28424" lon="-4.14433">
        <ele>100.3</ele>
        <time>2020-06-08T14:26:05Z</time>
      </trkpt>
      <trkpt lat="48.28426" lon="-4.14447">
        <ele>100</ele>
        <time>2020-06-08T14:26:06Z</time>
      </trkpt>
      <trkpt lat="48.28428" lon="-4.1446">
        <ele>99.7</ele>
        <time>2020-06-08T14:26:07Z</time>
      </trkpt>
      <trkpt lat="48.28431" lon="-4.14473">
        <ele>99.6</ele>
        <time>2020-06-08T14:26:08Z</time>
      </trkpt>
      <trkpt lat="48.28434" lon="-4.14487">
        <ele>99.1</ele>
        <time>2020-06-08T14:26:09Z</time>
      </trkpt>
      <trkpt lat="48.28436" lon="-4.145">
        <ele>98.7</ele>
        <time>2020-06-08T14:26:10Z</time>
      </trkpt>
      <trkpt lat="48.28439" lon="-4.14512">
        <ele>98.4</ele>
        <time>2020-06-08T14:26:11Z</time>
      </trkpt>
      <trkpt lat="48.28442" lon="-4.14525">
        <ele>98.1</ele>
        <time>2020-06-08T14:26:12Z</time>
      </trkpt>
      <trkpt lat="48.28445" lon="-4.14538">
        <ele>97.7</ele>
        <time>2020-06-08T14:26:13Z</time>
      </trkpt>
      <trkpt lat="48.28448" lon="-4.14551">
        <ele>97.4</ele>
        <time>2020-06-08T14:26:14Z</time>
      </trkpt>
      <trkpt lat="48.2845" lon="-4.14563">
        <ele>97.1</ele>
        <time>2020-06-08T14:26:15Z</time>
      </trkpt>
      <trkpt lat="48.28454" lon="-4.14576">
        <ele>96.7</ele>
        <time>2020-06-08T14:26:16Z</time>
      </trkpt>
      <trkpt lat="48.28458" lon="-4.14587">
        <ele>96.4</ele>
        <time>2020-06-08T14:26:17Z</time>
      </trkpt>
      <trkpt lat="48.28463" lon="-4.14598">
        <ele>96.1</ele>
        <time>2020-06-08T14:26:18Z</time>
      </trkpt>
      <trkpt lat="48.28468" lon="-4.1461">
        <ele>95.7</ele>
        <time>2020-06-08T14:26:19Z</time>
      </trkpt>
      <trkpt lat="48.28474" lon="-4.14621">
        <ele>95.4</ele>
        <time>2020-06-08T14:26:20Z</time>
      </trkpt>
      <trkpt lat="48.28479" lon="-4.14631">
        <ele>95</ele>
        <time>2020-06-08T14:26:21Z</time>
      </trkpt>
      <trkpt lat="48.28485" lon="-4.14641">
        <ele>94.6</ele>
        <time>2020-06-08T14:26:22Z</time>
      </trkpt>
      <trkpt lat="48.28491" lon="-4.14651">
        <ele>94.2</ele>
        <time>2020-06-08T14:26:23Z</time>
      </trkpt>
      <trkpt lat="48.28497" lon="-4.14661">
        <ele>93.8</ele>
        <time>2020-06-08T14:26:24Z</time>
      </trkpt>
      <trkpt lat="48.28503" lon="-4.1467">
        <ele>93.4</ele>
        <time>2020-06-08T14:26:25Z</time>
      </trkpt>
      <trkpt lat="48.28509" lon="-4.1468">
        <ele>93</ele>
        <time>2020-06-08T14:26:26Z</time>
      </trkpt>
      <trkpt lat="48.28516" lon="-4.1469">
        <ele>92.7</ele>
        <time>2020-06-08T14:26:27Z</time>
      </trkpt>
      <trkpt lat="48.28522" lon="-4.147">
        <ele>92.3</ele>
        <time>2020-06-08T14:26:28Z</time>
      </trkpt>
      <trkpt lat="48.28528" lon="-4.14709">
        <ele>91.9</ele>
        <time>2020-06-08T14:26:29Z</time>
      </trkpt>
      <trkpt lat="48.28535" lon="-4.14719">
        <ele>91.5</ele>
        <time>2020-06-08T14:26:30Z</time>
      </trkpt>
      <trkpt lat="48.28541" lon="-4.14728">
        <ele>91.1</ele>
        <time>2020-06-08T14:26:31Z</time>
      </trkpt>
      <trkpt lat="48.28547" lon="-4.14738">
        <ele>90.7</ele>
        <time>2020-06-08T14:26:32Z</time>
      </trkpt>
      <trkpt lat="48.28553" lon="-4.14748">
        <ele>90.3</ele>
        <time>2020-06-08T14:26:33Z</time>
      </trkpt>
      <trkpt lat="48.28559" lon="-4.14759">
        <ele>89.8</ele>
        <time>2020-06-08T14:26:34Z</time>
      </trkpt>
      <trkpt lat="48.28564" lon="-4.1477">
        <ele>89.4</ele>
        <time>2020-06-08T14:26:35Z</time>
      </trkpt>
      <trkpt lat="48.28569" lon="-4.14781">
        <ele>89</ele>
        <time>2020-06-08T14:26:36Z</time>
      </trkpt>
      <trkpt lat="48.28574" lon="-4.14793">
        <ele>88.7</ele>
        <time>2020-06-08T14:26:37Z</time>
      </trkpt>
      <trkpt lat="48.28578" lon="-4.14804">
        <ele>88.3</ele>
        <time>2020-06-08T14:26:38Z</time>
      </trkpt>
      <trkpt lat="48.28583" lon="-4.14816">
        <ele>87.9</ele>
        <time>2020-06-08T14:26:39Z</time>
      </trkpt>
      <trkpt lat="48.28587" lon="-4.14828">
        <ele>87.6</ele>
        <time>2020-06-08T14:26:40Z</time>
      </trkpt>
      <trkpt lat="48.2859" lon="-4.14841">
        <ele>87.2</ele>
        <time>2020-06-08T14:26:41Z</time>
      </trkpt>
      <trkpt lat="48.28593" lon="-4.14854">
        <ele>86.8</ele>
        <time>2020-06-08T14:26:42Z</time>
      </trkpt>
      <trkpt lat="48.28596" lon="-4.14867">
        <ele>86.4</ele>
        <time>2020-06-08T14:26:43Z</time>
      </trkpt>
      <trkpt lat="48.28598" lon="-4.14879">
        <ele>86</ele>
        <time>2020-06-08T14:26:44Z</time>
      </trkpt>
      <trkpt lat="48.286" lon="-4.14892">
        <ele>85.6</ele>
        <time>2020-06-08T14:26:45Z</time>
      </trkpt>
      <trkpt lat="48.28602" lon="-4.14905">
        <ele>85.1</ele>
        <time>2020-06-08T14:26:46Z</time>
      </trkpt>
      <trkpt lat="48.28603" lon="-4.14918">
        <ele>84.6</ele>
        <time>2020-06-08T14:26:47Z</time>
      </trkpt>
      <trkpt lat="48.28604" lon="-4.14931">
        <ele>84.1</ele>
        <time>2020-06-08T14:26:48Z</time>
      </trkpt>
      <trkpt lat="48.28604" lon="-4.14945">
        <ele>83.6</ele>
        <time>2020-06-08T14:26:49Z</time>
      </trkpt>
      <trkpt lat="48.28604" lon="-4.14959">
        <ele>83.2</ele>
        <time>2020-06-08T14:26:50Z</time>
      </trkpt>
      <trkpt lat="48.28604" lon="-4.14973">
        <ele>82.7</ele>
        <time>2020-06-08T14:26:51Z</time>
      </trkpt>
      <trkpt lat="48.28603" lon="-4.14988">
        <ele>82.1</ele>
        <time>2020-06-08T14:26:52Z</time>
      </trkpt>
      <trkpt lat="48.28602" lon="-4.15002">
        <ele>81.6</ele>
        <time>2020-06-08T14:26:53Z</time>
      </trkpt>
      <trkpt lat="48.28601" lon="-4.15017">
        <ele>81</ele>
        <time>2020-06-08T14:26:54Z</time>
      </trkpt>
      <trkpt lat="48.28598" lon="-4.15031">
        <ele>80.5</ele>
        <time>2020-06-08T14:26:55Z</time>
      </trkpt>
      <trkpt lat="48.28596" lon="-4.15046">
        <ele>80</ele>
        <time>2020-06-08T14:26:56Z</time>
      </trkpt>
      <trkpt lat="48.28593" lon="-4.1506">
        <ele>79.4</ele>
        <time>2020-06-08T14:26:57Z</time>
      </trkpt>
      <trkpt lat="48.2859" lon="-4.15074">
        <ele>78.9</ele>
        <time>2020-06-08T14:26:58Z</time>
      </trkpt>
      <trkpt lat="48.28586" lon="-4.15088">
        <ele>78.5</ele>
        <time>2020-06-08T14:26:59Z</time>
      </trkpt>
      <trkpt lat="48.28583" lon="-4.15101">
        <ele>78.2</ele>
        <time>2020-06-08T14:27:00Z</time>
      </trkpt>
      <trkpt lat="48.28579" lon="-4.15115">
        <ele>77.9</ele>
        <time>2020-06-08T14:27:01Z</time>
      </trkpt>
      <trkpt lat="48.28575" lon="-4.15128">
        <ele>77.4</ele>
        <time>2020-06-08T14:27:02Z</time>
      </trkpt>
      <trkpt lat="48.2857" lon="-4.15142">
        <ele>77</ele>
        <time>2020-06-08T14:27:03Z</time>
      </trkpt>
      <trkpt lat="48.28566" lon="-4.15156">
        <ele>76.4</ele>
        <time>2020-06-08T14:27:04Z</time>
      </trkpt>
      <trkpt lat="48.28563" lon="-4.1517">
        <ele>75.9</ele>
        <time>2020-06-08T14:27:05Z</time>
      </trkpt>
      <trkpt lat="48.2856" lon="-4.15185">
        <ele>75.4</ele>
        <time>2020-06-08T14:27:06Z</time>
      </trkpt>
      <trkpt lat="48.28557" lon="-4.152">
        <ele>74.8</ele>
        <time>2020-06-08T14:27:07Z</time>
      </trkpt>
      <trkpt lat="48.28554" lon="-4.15215">
        <ele>74.3</ele>
        <time>2020-06-08T14:27:08Z</time>
      </trkpt>
      <trkpt lat="48.28551" lon="-4.1523">
        <ele>73.8</ele>
        <time>2020-06-08T14:27:09Z</time>
      </trkpt>
      <trkpt lat="48.28549" lon="-4.15245">
        <ele>73.5</ele>
        <time>2020-06-08T14:27:10Z</time>
      </trkpt>
      <trkpt lat="48.28549" lon="-4.1526">
        <ele>73</ele>
        <time>2020-06-08T14:27:11Z</time>
      </trkpt>
      <trkpt lat="48.28549" lon="-4.15276">
        <ele>72.6</ele>
        <time>2020-06-08T14:27:12Z</time>
      </trkpt>
      <trkpt lat="48.28549" lon="-4.15292">
        <ele>72.1</ele>
        <time>2020-06-08T14:27:13Z</time>
      </trkpt>
      <trkpt lat="48.28549" lon="-4.15307">
        <ele>71.7</ele>
        <time>2020-06-08T14:27:14Z</time>
      </trkpt>
      <trkpt lat="48.2855" lon="-4.15323">
        <ele>71.5</ele>
        <time>2020-06-08T14:27:15Z</time>
      </trkpt>
      <trkpt lat="48.28551" lon="-4.15338">
        <ele>71.1</ele>
        <time>2020-06-08T14:27:16Z</time>
      </trkpt>
      <trkpt lat="48.28552" lon="-4.15354">
        <ele>70.7</ele>
        <time>2020-06-08T14:27:17Z</time>
      </trkpt>
      <trkpt lat="48.28554" lon="-4.15369">
        <ele>70.3</ele>
        <time>2020-06-08T14:27:18Z</time>
      </trkpt>
      <trkpt lat="48.28556" lon="-4.15385">
        <ele>69.9</ele>
        <time>2020-06-08T14:27:19Z</time>
      </trkpt>
      <trkpt lat="48.28559" lon="-4.154">
        <ele>69.6</ele>
        <time>2020-06-08T14:27:20Z</time>
      </trkpt>
      <trkpt lat="48.28562" lon="-4.15414">
        <ele>69.2</ele>
        <time>2020-06-08T14:27:21Z</time>
      </trkpt>
      <trkpt lat="48.28566" lon="-4.15428">
        <ele>69</ele>
        <time>2020-06-08T14:27:22Z</time>
      </trkpt>
      <trkpt lat="48.28571" lon="-4.15442">
        <ele>68.5</ele>
        <time>2020-06-08T14:27:23Z</time>
      </trkpt>
      <trkpt lat="48.28576" lon="-4.15455">
        <ele>68</ele>
        <time>2020-06-08T14:27:24Z</time>
      </trkpt>
      <trkpt lat="48.28581" lon="-4.15469">
        <ele>67.4</ele>
        <time>2020-06-08T14:27:25Z</time>
      </trkpt>
      <trkpt lat="48.28586" lon="-4.15482">
        <ele>67</ele>
        <time>2020-06-08T14:27:26Z</time>
      </trkpt>
      <trkpt lat="48.28592" lon="-4.15495">
        <ele>66.5</ele>
        <time>2020-06-08T14:27:27Z</time>
      </trkpt>
      <trkpt lat="48.28597" lon="-4.15507">
        <ele>66</ele>
        <time>2020-06-08T14:27:28Z</time>
      </trkpt>
      <trkpt lat="48.28603" lon="-4.15519">
        <ele>65.5</ele>
        <time>2020-06-08T14:27:29Z</time>
      </trkpt>
      <trkpt lat="48.2861" lon="-4.15531">
        <ele>65</ele>
        <time>2020-06-08T14:27:30Z</time>
      </trkpt>
      <trkpt lat="48.28616" lon="-4.15543">
        <ele>64.6</ele>
        <time>2020-06-08T14:27:31Z</time>
      </trkpt>
      <trkpt lat="48.28623" lon="-4.15555">
        <ele>64.2</ele>
        <time>2020-06-08T14:27:32Z</time>
      </trkpt>
      <trkpt lat="48.28629" lon="-4.15567">
        <ele>63.8</ele>
        <time>2020-06-08T14:27:33Z</time>
      </trkpt>
      <trkpt lat="48.28635" lon="-4.15579">
        <ele>63.4</ele>
        <time>2020-06-08T14:27:34Z</time>
      </trkpt>
      <trkpt lat="48.28641" lon="-4.15591">
        <ele>63.1</ele>
        <time>2020-06-08T14:27:35Z</time>
      </trkpt>
      <trkpt lat="48.28647" lon="-4.15603">
        <ele>62.8</ele>
        <time>2020-06-08T14:27:36Z</time>
      </trkpt>
      <trkpt lat="48.28653" lon="-4.15615">
        <ele>62.6</ele>
        <time>2020-06-08T14:27:37Z</time>
      </trkpt>
      <trkpt lat="48.28658" lon="-4.15627">
        <ele>62.4</ele>
        <time>2020-06-08T14:27:38Z</time>
      </trkpt>
      <trkpt lat="48.28663" lon="-4.15639">
        <ele>62.3</ele>
        <time>2020-06-08T14:27:39Z</time>
      </trkpt>
      <trkpt lat="48.28668" lon="-4.15651">
        <ele>62.2</ele>
        <time>2020-06-08T14:27:40Z</time>
      </trkpt>
      <trkpt lat="48.28673" lon="-4.15662">
        <ele>62.1</ele>
        <time>2020-06-08T14:27:41Z</time>
      </trkpt>
      <trkpt lat="48.28677" lon="-4.15673">
        <ele>62</ele>
        <time>2020-06-08T14:27:42Z</time>
      </trkpt>
      <trkpt lat="48.28681" lon="-4.15684">
        <ele>61.9</ele>
        <time>2020-06-08T14:27:43Z</time>
      </trkpt>
      <trkpt lat="48.28686" lon="-4.15694">
        <ele>61.7</ele>
        <time>2020-06-08T14:27:44Z</time>
      </trkpt>
      <trkpt lat="48.28689" lon="-4.15705">
        <ele>61.7</ele>
        <time>2020-06-08T14:27:45Z</time>
      </trkpt>
      <trkpt lat="48.28694" lon="-4.15715">
        <ele>61.9</ele>
        <time>2020-06-08T14:27:46Z</time>
      </trkpt>
      <trkpt lat="48.28698" lon="-4.15725">
        <ele>61.9</ele>
        <time>2020-06-08T14:27:47Z</time>
      </trkpt>
      <trkpt lat="48.28702" lon="-4.15735">
        <ele>61.8</ele>
        <time>2020-06-08T14:27:48Z</time>
      </trkpt>
      <trkpt lat="48.28704" lon="-4.15746">
        <ele>61.8</ele>
        <time>2020-06-08T14:27:49Z</time>
      </trkpt>
      <trkpt lat="48.28707" lon="-4.15757">
        <ele>61.8</ele>
        <time>2020-06-08T14:27:50Z</time>
      </trkpt>
      <trkpt lat="48.2871" lon="-4.15767">
        <ele>61.9</ele>
        <time>2020-06-08T14:27:51Z</time>
      </trkpt>
      <trkpt lat="48.28713" lon="-4.15777">
        <ele>61.9</ele>
        <time>2020-06-08T14:27:52Z</time>
      </trkpt>
      <trkpt lat="48.28715" lon="-4.15788">
        <ele>61.9</ele>
        <time>2020-06-08T14:27:53Z</time>
      </trkpt>
      <trkpt lat="48.28719" lon="-4.15797">
        <ele>61.9</ele>
        <time>2020-06-08T14:27:54Z</time>
      </trkpt>
      <trkpt lat="48.28723" lon="-4.15806">
        <ele>61.9</ele>
        <time>2020-06-08T14:27:55Z</time>
      </trkpt>
      <trkpt lat="48.28727" lon="-4.15816">
        <ele>61.9</ele>
        <time>2020-06-08T14:27:56Z</time>
      </trkpt>
      <trkpt lat="48.28729" lon="-4.15826">
        <ele>61.8</ele>
        <time>2020-06-08T14:27:57Z</time>
      </trkpt>
      <trkpt lat="48.28732" lon="-4.15835">
        <ele>61.8</ele>
        <time>2020-06-08T14:27:58Z</time>
      </trkpt>
      <trkpt lat="48.28735" lon="-4.15844">
        <ele>61.7</ele>
        <time>2020-06-08T14:27:59Z</time>
      </trkpt>
      <trkpt lat="48.28738" lon="-4.15853">
        <ele>61.6</ele>
        <time>2020-06-08T14:28:00Z</time>
      </trkpt>
      <trkpt lat="48.2874" lon="-4.15861">
        <ele>61.5</ele>
        <time>2020-06-08T14:28:01Z</time>
      </trkpt>
      <trkpt lat="48.28743" lon="-4.1587">
        <ele>61.4</ele>
        <time>2020-06-08T14:28:02Z</time>
      </trkpt>
      <trkpt lat="48.28745" lon="-4.15879">
        <ele>61.3</ele>
        <time>2020-06-08T14:28:03Z</time>
      </trkpt>
      <trkpt lat="48.28748" lon="-4.15887">
        <ele>61.1</ele>
        <time>2020-06-08T14:28:04Z</time>
      </trkpt>
      <trkpt lat="48.2875" lon="-4.15896">
        <ele>61</ele>
        <time>2020-06-08T14:28:05Z</time>
      </trkpt>
      <trkpt lat="48.28752" lon="-4.15904">
        <ele>60.8</ele>
        <time>2020-06-08T14:28:06Z</time>
      </trkpt>
      <trkpt lat="48.28754" lon="-4.15913">
        <ele>60.6</ele>
        <time>2020-06-08T14:28:07Z</time>
      </trkpt>
      <trkpt lat="48.28758" lon="-4.15921">
        <ele>60.4</ele>
        <time>2020-06-08T14:28:08Z</time>
      </trkpt>
      <trkpt lat="48.28761" lon="-4.15929">
        <ele>60.1</ele>
        <time>2020-06-08T14:28:09Z</time>
      </trkpt>
      <trkpt lat="48.28764" lon="-4.15938">
        <ele>59.9</ele>
        <time>2020-06-08T14:28:10Z</time>
      </trkpt>
      <trkpt lat="48.28767" lon="-4.15947">
        <ele>59.6</ele>
        <time>2020-06-08T14:28:11Z</time>
      </trkpt>
      <trkpt lat="48.28769" lon="-4.15957">
        <ele>59.2</ele>
        <time>2020-06-08T14:28:12Z</time>
      </trkpt>
      <trkpt lat="48.28772" lon="-4.15966">
        <ele>58.9</ele>
        <time>2020-06-08T14:28:13Z</time>
      </trkpt>
      <trkpt lat="48.28774" lon="-4.15976">
        <ele>58.5</ele>
        <time>2020-06-08T14:28:14Z</time>
      </trkpt>
      <trkpt lat="48.28778" lon="-4.15986">
        <ele>58.2</ele>
        <time>2020-06-08T14:28:15Z</time>
      </trkpt>
      <trkpt lat="48.28781" lon="-4.15996">
        <ele>57.8</ele>
        <time>2020-06-08T14:28:16Z</time>
      </trkpt>
      <trkpt lat="48.28784" lon="-4.16006">
        <ele>57.4</ele>
        <time>2020-06-08T14:28:17Z</time>
      </trkpt>
      <trkpt lat="48.28788" lon="-4.16016">
        <ele>57</ele>
        <time>2020-06-08T14:28:18Z</time>
      </trkpt>
      <trkpt lat="48.28791" lon="-4.16026">
        <ele>56.6</ele>
        <time>2020-06-08T14:28:19Z</time>
      </trkpt>
      <trkpt lat="48.28795" lon="-4.16037">
        <ele>56.2</ele>
        <time>2020-06-08T14:28:20Z</time>
      </trkpt>
      <trkpt lat="48.28799" lon="-4.16048">
        <ele>55.8</ele>
        <time>2020-06-08T14:28:21Z</time>
      </trkpt>
      <trkpt lat="48.28802" lon="-4.16059">
        <ele>55.4</ele>
        <time>2020-06-08T14:28:22Z</time>
      </trkpt>
      <trkpt lat="48.28806" lon="-4.1607">
        <ele>55.1</ele>
        <time>2020-06-08T14:28:23Z</time>
      </trkpt>
      <trkpt lat="48.2881" lon="-4.16081">
        <ele>54.8</ele>
        <time>2020-06-08T14:28:24Z</time>
      </trkpt>
      <trkpt lat="48.28815" lon="-4.16093">
        <ele>54.6</ele>
        <time>2020-06-08T14:28:25Z</time>
      </trkpt>
      <trkpt lat="48.28819" lon="-4.16104">
        <ele>54.5</ele>
        <time>2020-06-08T14:28:26Z</time>
      </trkpt>
      <trkpt lat="48.28824" lon="-4.16114">
        <ele>54.3</ele>
        <time>2020-06-08T14:28:27Z</time>
      </trkpt>
      <trkpt lat="48.28829" lon="-4.16124">
        <ele>54.2</ele>
        <time>2020-06-08T14:28:28Z</time>
      </trkpt>
      <trkpt lat="48.28835" lon="-4.16134">
        <ele>54</ele>
        <time>2020-06-08T14:28:29Z</time>
      </trkpt>
      <trkpt lat="48.2884" lon="-4.16143">
        <ele>53.9</ele>
        <time>2020-06-08T14:28:30Z</time>
      </trkpt>
      <trkpt lat="48.28846" lon="-4.1615">
        <ele>53.8</ele>
        <time>2020-06-08T14:28:31Z</time>
      </trkpt>
      <trkpt lat="48.28852" lon="-4.16157">
        <ele>53.6</ele>
        <time>2020-06-08T14:28:32Z</time>
      </trkpt>
      <trkpt lat="48.28859" lon="-4.16161">
        <ele>53.5</ele>
        <time>2020-06-08T14:28:33Z</time>
      </trkpt>
      <trkpt lat="48.28866" lon="-4.16166">
        <ele>53.3</ele>
        <time>2020-06-08T14:28:34Z</time>
      </trkpt>
      <trkpt lat="48.28872" lon="-4.16172">
        <ele>53.1</ele>
        <time>2020-06-08T14:28:35Z</time>
      </trkpt>
      <trkpt lat="48.28878" lon="-4.16178">
        <ele>53</ele>
        <time>2020-06-08T14:28:36Z</time>
      </trkpt>
      <trkpt lat="48.28884" lon="-4.16184">
        <ele>52.7</ele>
        <time>2020-06-08T14:28:37Z</time>
      </trkpt>
      <trkpt lat="48.2889" lon="-4.1619">
        <ele>52.5</ele>
        <time>2020-06-08T14:28:38Z</time>
      </trkpt>
      <trkpt lat="48.28895" lon="-4.16196">
        <ele>52.3</ele>
        <time>2020-06-08T14:28:39Z</time>
      </trkpt>
      <trkpt lat="48.289" lon="-4.16202">
        <ele>52</ele>
        <time>2020-06-08T14:28:40Z</time>
      </trkpt>
      <trkpt lat="48.28906" lon="-4.16209">
        <ele>51.8</ele>
        <time>2020-06-08T14:28:41Z</time>
      </trkpt>
      <trkpt lat="48.28911" lon="-4.16217">
        <ele>51.5</ele>
        <time>2020-06-08T14:28:42Z</time>
      </trkpt>
      <trkpt lat="48.28916" lon="-4.16224">
        <ele>51.2</ele>
        <time>2020-06-08T14:28:43Z</time>
      </trkpt>
      <trkpt lat="48.28921" lon="-4.1623">
        <ele>50.9</ele>
        <time>2020-06-08T14:28:44Z</time>
      </trkpt>
      <trkpt lat="48.28927" lon="-4.16237">
        <ele>50.6</ele>
        <time>2020-06-08T14:28:45Z</time>
      </trkpt>
      <trkpt lat="48.28932" lon="-4.16245">
        <ele>50.3</ele>
        <time>2020-06-08T14:28:46Z</time>
      </trkpt>
      <trkpt lat="48.28938" lon="-4.16251">
        <ele>50</ele>
        <time>2020-06-08T14:28:47Z</time>
      </trkpt>
      <trkpt lat="48.28943" lon="-4.1626">
        <ele>49.6</ele>
        <time>2020-06-08T14:28:48Z</time>
      </trkpt>
      <trkpt lat="48.28948" lon="-4.16269">
        <ele>49.2</ele>
        <time>2020-06-08T14:28:49Z</time>
      </trkpt>
      <trkpt lat="48.28953" lon="-4.16278">
        <ele>48.7</ele>
        <time>2020-06-08T14:28:50Z</time>
      </trkpt>
      <trkpt lat="48.28958" lon="-4.16288">
        <ele>48.3</ele>
        <time>2020-06-08T14:28:51Z</time>
      </trkpt>
      <trkpt lat="48.28962" lon="-4.16298">
        <ele>47.8</ele>
        <time>2020-06-08T14:28:52Z</time>
      </trkpt>
      <trkpt lat="48.28967" lon="-4.16308">
        <ele>47.3</ele>
        <time>2020-06-08T14:28:53Z</time>
      </trkpt>
      <trkpt lat="48.28972" lon="-4.16319">
        <ele>46.9</ele>
        <time>2020-06-08T14:28:54Z</time>
      </trkpt>
      <trkpt lat="48.28976" lon="-4.1633">
        <ele>46.4</ele>
        <time>2020-06-08T14:28:55Z</time>
      </trkpt>
      <trkpt lat="48.28981" lon="-4.16342">
        <ele>45.9</ele>
        <time>2020-06-08T14:28:56Z</time>
      </trkpt>
      <trkpt lat="48.28985" lon="-4.16354">
        <ele>45.3</ele>
        <time>2020-06-08T14:28:57Z</time>
      </trkpt>
      <trkpt lat="48.28989" lon="-4.16366">
        <ele>44.8</ele>
        <time>2020-06-08T14:28:58Z</time>
      </trkpt>
      <trkpt lat="48.28993" lon="-4.16379">
        <ele>44.3</ele>
        <time>2020-06-08T14:28:59Z</time>
      </trkpt>
      <trkpt lat="48.28996" lon="-4.16392">
        <ele>43.8</ele>
        <time>2020-06-08T14:29:00Z</time>
      </trkpt>
      <trkpt lat="48.28999" lon="-4.16406">
        <ele>43.3</ele>
        <time>2020-06-08T14:29:01Z</time>
      </trkpt>
      <trkpt lat="48.29002" lon="-4.1642">
        <ele>42.7</ele>
        <time>2020-06-08T14:29:02Z</time>
      </trkpt>
      <trkpt lat="48.29005" lon="-4.16434">
        <ele>42.2</ele>
        <time>2020-06-08T14:29:03Z</time>
      </trkpt>
      <trkpt lat="48.29008" lon="-4.16448">
        <ele>41.6</ele>
        <time>2020-06-08T14:29:04Z</time>
      </trkpt>
      <trkpt lat="48.2901" lon="-4.16463">
        <ele>41.1</ele>
        <time>2020-06-08T14:29:05Z</time>
      </trkpt>
      <trkpt lat="48.29012" lon="-4.16479">
        <ele>40.4</ele>
        <time>2020-06-08T14:29:06Z</time>
      </trkpt>
      <trkpt lat="48.29014" lon="-4.16494">
        <ele>39.8</ele>
        <time>2020-06-08T14:29:07Z</time>
      </trkpt>
      <trkpt lat="48.29017" lon="-4.16508">
        <ele>39.2</ele>
        <time>2020-06-08T14:29:08Z</time>
      </trkpt>
      <trkpt lat="48.2902" lon="-4.16523">
        <ele>38.6</ele>
        <time>2020-06-08T14:29:09Z</time>
      </trkpt>
      <trkpt lat="48.29023" lon="-4.16538">
        <ele>38.1</ele>
        <time>2020-06-08T14:29:10Z</time>
      </trkpt>
      <trkpt lat="48.29025" lon="-4.16553">
        <ele>37.5</ele>
        <time>2020-06-08T14:29:11Z</time>
      </trkpt>
      <trkpt lat="48.29027" lon="-4.16568">
        <ele>36.9</ele>
        <time>2020-06-08T14:29:12Z</time>
      </trkpt>
      <trkpt lat="48.2903" lon="-4.16584">
        <ele>36.2</ele>
        <time>2020-06-08T14:29:13Z</time>
      </trkpt>
      <trkpt lat="48.29033" lon="-4.16599">
        <ele>35.6</ele>
        <time>2020-06-08T14:29:14Z</time>
      </trkpt>
      <trkpt lat="48.29036" lon="-4.16614">
        <ele>35</ele>
        <time>2020-06-08T14:29:15Z</time>
      </trkpt>
      <trkpt lat="48.29037" lon="-4.1663">
        <ele>34.4</ele>
        <time>2020-06-08T14:29:16Z</time>
      </trkpt>
      <trkpt lat="48.29039" lon="-4.16646">
        <ele>33.8</ele>
        <time>2020-06-08T14:29:17Z</time>
      </trkpt>
      <trkpt lat="48.29042" lon="-4.16662">
        <ele>33.2</ele>
        <time>2020-06-08T14:29:18Z</time>
      </trkpt>
      <trkpt lat="48.29045" lon="-4.16677">
        <ele>32.6</ele>
        <time>2020-06-08T14:29:19Z</time>
      </trkpt>
      <trkpt lat="48.29047" lon="-4.16693">
        <ele>31.9</ele>
        <time>2020-06-08T14:29:20Z</time>
      </trkpt>
      <trkpt lat="48.2905" lon="-4.16709">
        <ele>31.3</ele>
        <time>2020-06-08T14:29:21Z</time>
      </trkpt>
      <trkpt lat="48.29053" lon="-4.16725">
        <ele>30.6</ele>
        <time>2020-06-08T14:29:22Z</time>
      </trkpt>
      <trkpt lat="48.29055" lon="-4.1674">
        <ele>30</ele>
        <time>2020-06-08T14:29:23Z</time>
      </trkpt>
      <trkpt lat="48.29058" lon="-4.16756">
        <ele>29.3</ele>
        <time>2020-06-08T14:29:24Z</time>
      </trkpt>
      <trkpt lat="48.2906" lon="-4.16772">
        <ele>28.7</ele>
        <time>2020-06-08T14:29:25Z</time>
      </trkpt>
      <trkpt lat="48.29063" lon="-4.16788">
        <ele>28.1</ele>
        <time>2020-06-08T14:29:26Z</time>
      </trkpt>
      <trkpt lat="48.29066" lon="-4.16804">
        <ele>27.6</ele>
        <time>2020-06-08T14:29:27Z</time>
      </trkpt>
      <trkpt lat="48.29069" lon="-4.1682">
        <ele>27.3</ele>
        <time>2020-06-08T14:29:28Z</time>
      </trkpt>
      <trkpt lat="48.29072" lon="-4.16835">
        <ele>26.9</ele>
        <time>2020-06-08T14:29:29Z</time>
      </trkpt>
      <trkpt lat="48.29074" lon="-4.16851">
        <ele>26.6</ele>
        <time>2020-06-08T14:29:30Z</time>
      </trkpt>
      <trkpt lat="48.29076" lon="-4.16867">
        <ele>26.3</ele>
        <time>2020-06-08T14:29:31Z</time>
      </trkpt>
      <trkpt lat="48.29079" lon="-4.16883">
        <ele>26</ele>
        <time>2020-06-08T14:29:32Z</time>
      </trkpt>
      <trkpt lat="48.29082" lon="-4.16899">
        <ele>25.7</ele>
        <time>2020-06-08T14:29:33Z</time>
      </trkpt>
      <trkpt lat="48.29084" lon="-4.16914">
        <ele>25.5</ele>
        <time>2020-06-08T14:29:34Z</time>
      </trkpt>
      <trkpt lat="48.29087" lon="-4.1693">
        <ele>25.3</ele>
        <time>2020-06-08T14:29:35Z</time>
      </trkpt>
      <trkpt lat="48.2909" lon="-4.16944">
        <ele>25.1</ele>
        <time>2020-06-08T14:29:36Z</time>
      </trkpt>
      <trkpt lat="48.29092" lon="-4.16959">
        <ele>24.9</ele>
        <time>2020-06-08T14:29:37Z</time>
      </trkpt>
      <trkpt lat="48.29095" lon="-4.16974">
        <ele>24.7</ele>
        <time>2020-06-08T14:29:38Z</time>
      </trkpt>
      <trkpt lat="48.29097" lon="-4.16988">
        <ele>24.6</ele>
        <time>2020-06-08T14:29:39Z</time>
      </trkpt>
      <trkpt lat="48.29099" lon="-4.17002">
        <ele>24.4</ele>
        <time>2020-06-08T14:29:40Z</time>
      </trkpt>
      <trkpt lat="48.29101" lon="-4.17016">
        <ele>24.3</ele>
        <time>2020-06-08T14:29:41Z</time>
      </trkpt>
      <trkpt lat="48.29103" lon="-4.17029">
        <ele>23.9</ele>
        <time>2020-06-08T14:29:42Z</time>
      </trkpt>
      <trkpt lat="48.29105" lon="-4.17042">
        <ele>23.4</ele>
        <time>2020-06-08T14:29:43Z</time>
      </trkpt>
      <trkpt lat="48.29108" lon="-4.17055">
        <ele>23</ele>
        <time>2020-06-08T14:29:44Z</time>
      </trkpt>
      <trkpt lat="48.29111" lon="-4.17068">
        <ele>22.6</ele>
        <time>2020-06-08T14:29:45Z</time>
      </trkpt>
      <trkpt lat="48.29114" lon="-4.17081">
        <ele>22.2</ele>
        <time>2020-06-08T14:29:46Z</time>
      </trkpt>
      <trkpt lat="48.29118" lon="-4.17094">
        <ele>21.7</ele>
        <time>2020-06-08T14:29:47Z</time>
      </trkpt>
      <trkpt lat="48.29121" lon="-4.17106">
        <ele>21.2</ele>
        <time>2020-06-08T14:29:48Z</time>
      </trkpt>
      <trkpt lat="48.29125" lon="-4.17119">
        <ele>20.8</ele>
        <time>2020-06-08T14:29:49Z</time>
      </trkpt>
      <trkpt lat="48.29129" lon="-4.17132">
        <ele>20.3</ele>
        <time>2020-06-08T14:29:50Z</time>
      </trkpt>
      <trkpt lat="48.29133" lon="-4.17144">
        <ele>19.9</ele>
        <time>2020-06-08T14:29:51Z</time>
      </trkpt>
      <trkpt lat="48.29137" lon="-4.17157">
        <ele>19.5</ele>
        <time>2020-06-08T14:29:52Z</time>
      </trkpt>
      <trkpt lat="48.2914" lon="-4.1717">
        <ele>19</ele>
        <time>2020-06-08T14:29:53Z</time>
      </trkpt>
      <trkpt lat="48.29144" lon="-4.17184">
        <ele>18.6</ele>
        <time>2020-06-08T14:29:54Z</time>
      </trkpt>
      <trkpt lat="48.29148" lon="-4.17196">
        <ele>18.2</ele>
        <time>2020-06-08T14:29:55Z</time>
      </trkpt>
      <trkpt lat="48.29152" lon="-4.17209">
        <ele>17.8</ele>
        <time>2020-06-08T14:29:56Z</time>
      </trkpt>
      <trkpt lat="48.29156" lon="-4.17222">
        <ele>17.4</ele>
        <time>2020-06-08T14:29:57Z</time>
      </trkpt>
      <trkpt lat="48.29159" lon="-4.17234">
        <ele>17.1</ele>
        <time>2020-06-08T14:29:58Z</time>
      </trkpt>
      <trkpt lat="48.29162" lon="-4.17247">
        <ele>16.7</ele>
        <time>2020-06-08T14:29:59Z</time>
      </trkpt>
      <trkpt lat="48.29166" lon="-4.17259">
        <ele>16.4</ele>
        <time>2020-06-08T14:30:00Z</time>
      </trkpt>
      <trkpt lat="48.2917" lon="-4.17271">
        <ele>16</ele>
        <time>2020-06-08T14:30:01Z</time>
      </trkpt>
      <trkpt lat="48.29175" lon="-4.17283">
        <ele>15.6</ele>
        <time>2020-06-08T14:30:02Z</time>
      </trkpt>
      <trkpt lat="48.29178" lon="-4.17296">
        <ele>15.2</ele>
        <time>2020-06-08T14:30:03Z</time>
      </trkpt>
      <trkpt lat="48.29182" lon="-4.17309">
        <ele>14.9</ele>
        <time>2020-06-08T14:30:04Z</time>
      </trkpt>
      <trkpt lat="48.29186" lon="-4.17321">
        <ele>14.6</ele>
        <time>2020-06-08T14:30:05Z</time>
      </trkpt>
      <trkpt lat="48.2919" lon="-4.17334">
        <ele>14.4</ele>
        <time>2020-06-08T14:30:06Z</time>
      </trkpt>
      <trkpt lat="48.29193" lon="-4.17347">
        <ele>14.3</ele>
        <time>2020-06-08T14:30:07Z</time>
      </trkpt>
      <trkpt lat="48.29197" lon="-4.1736">
        <ele>14.2</ele>
        <time>2020-06-08T14:30:08Z</time>
      </trkpt>
      <trkpt lat="48.29201" lon="-4.17373">
        <ele>14.1</ele>
        <time>2020-06-08T14:30:09Z</time>
      </trkpt>
      <trkpt lat="48.29206" lon="-4.17385">
        <ele>14</ele>
        <time>2020-06-08T14:30:10Z</time>
      </trkpt>
      <trkpt lat="48.2921" lon="-4.17397">
        <ele>13.9</ele>
        <time>2020-06-08T14:30:11Z</time>
      </trkpt>
      <trkpt lat="48.29214" lon="-4.1741">
        <ele>14</ele>
        <time>2020-06-08T14:30:12Z</time>
      </trkpt>
      <trkpt lat="48.29218" lon="-4.17421">
        <ele>13.9</ele>
        <time>2020-06-08T14:30:13Z</time>
      </trkpt>
      <trkpt lat="48.29223" lon="-4.17433">
        <ele>13.7</ele>
        <time>2020-06-08T14:30:14Z</time>
      </trkpt>
      <trkpt lat="48.29228" lon="-4.17443">
        <ele>13.6</ele>
        <time>2020-06-08T14:30:15Z</time>
      </trkpt>
      <trkpt lat="48.29233" lon="-4.17453">
        <ele>13.5</ele>
        <time>2020-06-08T14:30:16Z</time>
      </trkpt>
      <trkpt lat="48.29237" lon="-4.17463">
        <ele>13.4</ele>
        <time>2020-06-08T14:30:17Z</time>
      </trkpt>
      <trkpt lat="48.29242" lon="-4.17471">
        <ele>13.3</ele>
        <time>2020-06-08T14:30:18Z</time>
      </trkpt>
      <trkpt lat="48.29246" lon="-4.1748">
        <ele>13.2</ele>
        <time>2020-06-08T14:30:19Z</time>
      </trkpt>
      <trkpt lat="48.2925" lon="-4.17489">
        <ele>13.1</ele>
        <time>2020-06-08T14:30:20Z</time>
      </trkpt>
      <trkpt lat="48.29254" lon="-4.17497">
        <ele>13</ele>
        <time>2020-06-08T14:30:21Z</time>
      </trkpt>
      <trkpt lat="48.29257" lon="-4.17505">
        <ele>13</ele>
        <time>2020-06-08T14:30:22Z</time>
      </trkpt>
      <trkpt lat="48.2926" lon="-4.17514">
        <ele>12.9</ele>
        <time>2020-06-08T14:30:23Z</time>
      </trkpt>
      <trkpt lat="48.29264" lon="-4.17521">
        <ele>12.8</ele>
        <time>2020-06-08T14:30:24Z</time>
      </trkpt>
      <trkpt lat="48.29267" lon="-4.17529">
        <ele>12.7</ele>
        <time>2020-06-08T14:30:25Z</time>
      </trkpt>
      <trkpt lat="48.2927" lon="-4.17535">
        <ele>12.6</ele>
        <time>2020-06-08T14:30:26Z</time>
      </trkpt>
      <trkpt lat="48.29273" lon="-4.17542">
        <ele>12.5</ele>
        <time>2020-06-08T14:30:27Z</time>
      </trkpt>
      <trkpt lat="48.29277" lon="-4.1755">
        <ele>12.4</ele>
        <time>2020-06-08T14:30:28Z</time>
      </trkpt>
      <trkpt lat="48.2928" lon="-4.17557">
        <ele>12.3</ele>
        <time>2020-06-08T14:30:29Z</time>
      </trkpt>
      <trkpt lat="48.29282" lon="-4.17565">
        <ele>12.3</ele>
        <time>2020-06-08T14:30:30Z</time>
      </trkpt>
      <trkpt lat="48.29285" lon="-4.17572">
        <ele>12.2</ele>
        <time>2020-06-08T14:30:31Z</time>
      </trkpt>
      <trkpt lat="48.29288" lon="-4.17579">
        <ele>12.1</ele>
        <time>2020-06-08T14:30:32Z</time>
      </trkpt>
      <trkpt lat="48.29291" lon="-4.17585">
        <ele>12.1</ele>
        <time>2020-06-08T14:30:33Z</time>
      </trkpt>
      <trkpt lat="48.29294" lon="-4.17592">
        <ele>12</ele>
        <time>2020-06-08T14:30:34Z</time>
      </trkpt>
      <trkpt lat="48.29297" lon="-4.17598">
        <ele>12</ele>
        <time>2020-06-08T14:30:35Z</time>
      </trkpt>
      <trkpt lat="48.29302" lon="-4.17603">
        <ele>12</ele>
        <time>2020-06-08T14:30:36Z</time>
      </trkpt>
      <trkpt lat="48.29305" lon="-4.17609">
        <ele>11.9</ele>
        <time>2020-06-08T14:30:37Z</time>
      </trkpt>
      <trkpt lat="48.29309" lon="-4.17614">
        <ele>11.9</ele>
        <time>2020-06-08T14:30:38Z</time>
      </trkpt>
      <trkpt lat="48.29312" lon="-4.1762">
        <ele>11.9</ele>
        <time>2020-06-08T14:30:39Z</time>
      </trkpt>
      <trkpt lat="48.29314" lon="-4.17625">
        <ele>11.9</ele>
        <time>2020-06-08T14:30:40Z</time>
      </trkpt>
      <trkpt lat="48.29316" lon="-4.17631">
        <ele>11.8</ele>
        <time>2020-06-08T14:30:41Z</time>
      </trkpt>
      <trkpt lat="48.29318" lon="-4.17636">
        <ele>11.8</ele>
        <time>2020-06-08T14:30:42Z</time>
      </trkpt>
      <trkpt lat="48.29321" lon="-4.17642">
        <ele>11.8</ele>
        <time>2020-06-08T14:30:43Z</time>
      </trkpt>
      <trkpt lat="48.29323" lon="-4.17647">
        <ele>11.7</ele>
        <time>2020-06-08T14:30:44Z</time>
      </trkpt>
      <trkpt lat="48.29326" lon="-4.17652">
        <ele>11.7</ele>
        <time>2020-06-08T14:30:45Z</time>
      </trkpt>
      <trkpt lat="48.29328" lon="-4.17657">
        <ele>11.7</ele>
        <time>2020-06-08T14:30:46Z</time>
      </trkpt>
      <trkpt lat="48.2933" lon="-4.17663">
        <ele>11.6</ele>
        <time>2020-06-08T14:30:47Z</time>
      </trkpt>
      <trkpt lat="48.29332" lon="-4.17669">
        <ele>11.6</ele>
        <time>2020-06-08T14:30:48Z</time>
      </trkpt>
      <trkpt lat="48.29335" lon="-4.17675">
        <ele>11.6</ele>
        <time>2020-06-08T14:30:49Z</time>
      </trkpt>
      <trkpt lat="48.29338" lon="-4.17682">
        <ele>11.5</ele>
        <time>2020-06-08T14:30:50Z</time>
      </trkpt>
      <trkpt lat="48.29341" lon="-4.17688">
        <ele>11.5</ele>
        <time>2020-06-08T14:30:51Z</time>
      </trkpt>
      <trkpt lat="48.29343" lon="-4.17693">
        <ele>11.4</ele>
        <time>2020-06-08T14:30:52Z</time>
      </trkpt>
      <trkpt lat="48.29346" lon="-4.17698">
        <ele>11.4</ele>
        <time>2020-06-08T14:30:53Z</time>
      </trkpt>
      <trkpt lat="48.29348" lon="-4.17704">
        <ele>11.4</ele>
        <time>2020-06-08T14:30:54Z</time>
      </trkpt>
      <trkpt lat="48.2935" lon="-4.1771">
        <ele>11.4</ele>
        <time>2020-06-08T14:30:55Z</time>
      </trkpt>
      <trkpt lat="48.29352" lon="-4.17716">
        <ele>11.4</ele>
        <time>2020-06-08T14:30:56Z</time>
      </trkpt>
      <trkpt lat="48.29354" lon="-4.17723">
        <ele>11.3</ele>
        <time>2020-06-08T14:30:57Z</time>
      </trkpt>
      <trkpt lat="48.29357" lon="-4.17727">
        <ele>11.3</ele>
        <time>2020-06-08T14:30:58Z</time>
      </trkpt>
      <trkpt lat="48.2936" lon="-4.17731">
        <ele>11.3</ele>
        <time>2020-06-08T14:30:59Z</time>
      </trkpt>
      <trkpt lat="48.29363" lon="-4.17736">
        <ele>11.3</ele>
        <time>2020-06-08T14:31:00Z</time>
      </trkpt>
      <trkpt lat="48.29364" lon="-4.1774">
        <ele>11.4</ele>
        <time>2020-06-08T14:31:01Z</time>
      </trkpt>
      <trkpt lat="48.29366" lon="-4.17745">
        <ele>11.4</ele>
        <time>2020-06-08T14:31:02Z</time>
      </trkpt>
      <trkpt lat="48.29368" lon="-4.17748">
        <ele>11.4</ele>
        <time>2020-06-08T14:31:03Z</time>
      </trkpt>
      <trkpt lat="48.29371" lon="-4.17751">
        <ele>11.4</ele>
        <time>2020-06-08T14:31:04Z</time>
      </trkpt>
      <trkpt lat="48.29374" lon="-4.17755">
        <ele>11.4</ele>
        <time>2020-06-08T14:31:05Z</time>
      </trkpt>
      <trkpt lat="48.29376" lon="-4.17757">
        <ele>11.4</ele>
        <time>2020-06-08T14:31:06Z</time>
      </trkpt>
      <trkpt lat="48.29378" lon="-4.1776">
        <ele>11.4</ele>
        <time>2020-06-08T14:31:07Z</time>
      </trkpt>
      <trkpt lat="48.2938" lon="-4.17764">
        <ele>11.3</ele>
        <time>2020-06-08T14:31:08Z</time>
      </trkpt>
      <trkpt lat="48.29381" lon="-4.17765">
        <ele>11.3</ele>
        <time>2020-06-08T14:31:09Z</time>
      </trkpt>
      <trkpt lat="48.29382" lon="-4.1777">
        <ele>11.3</ele>
        <time>2020-06-08T14:31:10Z</time>
      </trkpt>
      <trkpt lat="48.29383" lon="-4.17771">
        <ele>11.3</ele>
        <time>2020-06-08T14:31:11Z</time>
      </trkpt>
      <trkpt lat="48.29384" lon="-4.17775">
        <ele>11.3</ele>
        <time>2020-06-08T14:31:12Z</time>
      </trkpt>
      <trkpt lat="48.29385" lon="-4.17776">
        <ele>11.3</ele>
        <time>2020-06-08T14:31:13Z</time>
      </trkpt>
      <trkpt lat="48.29385" lon="-4.17778">
        <ele>11.3</ele>
        <time>2020-06-08T14:31:14Z</time>
      </trkpt>
      <trkpt lat="48.29386" lon="-4.1778">
        <ele>11.2</ele>
        <time>2020-06-08T14:31:15Z</time>
      </trkpt>
      <trkpt lat="48.29388" lon="-4.17784">
        <ele>11.2</ele>
        <time>2020-06-08T14:31:16Z</time>
      </trkpt>
      <trkpt lat="48.29389" lon="-4.17785">
        <ele>11.2</ele>
        <time>2020-06-08T14:31:17Z</time>
      </trkpt>
      <trkpt lat="48.29392" lon="-4.17787">
        <ele>11.2</ele>
        <time>2020-06-08T14:31:18Z</time>
      </trkpt>
      <trkpt lat="48.29392" lon="-4.17788">
        <ele>11.2</ele>
        <time>2020-06-08T14:31:19Z</time>
      </trkpt>
      <trkpt lat="48.29394" lon="-4.17792">
        <ele>11.2</ele>
        <time>2020-06-08T14:31:20Z</time>
      </trkpt>
      <trkpt lat="48.29395" lon="-4.17794">
        <ele>11.2</ele>
        <time>2020-06-08T14:31:21Z</time>
      </trkpt>
      <trkpt lat="48.29397" lon="-4.17798">
        <ele>11.1</ele>
        <time>2020-06-08T14:31:22Z</time>
      </trkpt>
      <trkpt lat="48.29398" lon="-4.178">
        <ele>11.1</ele>
        <time>2020-06-08T14:31:23Z</time>
      </trkpt>
      <trkpt lat="48.294" lon="-4.17804">
        <ele>11.1</ele>
        <time>2020-06-08T14:31:24Z</time>
      </trkpt>
      <trkpt lat="48.29401" lon="-4.17805">
        <ele>11.1</ele>
        <time>2020-06-08T14:31:25Z</time>
      </trkpt>
      <trkpt lat="48.29404" lon="-4.1781">
        <ele>11.1</ele>
        <time>2020-06-08T14:31:26Z</time>
      </trkpt>
      <trkpt lat="48.29404" lon="-4.17811">
        <ele>11.1</ele>
        <time>2020-06-08T14:31:27Z</time>
      </trkpt>
      <trkpt lat="48.29406" lon="-4.17815">
        <ele>11.1</ele>
        <time>2020-06-08T14:31:28Z</time>
      </trkpt>
      <trkpt lat="48.29407" lon="-4.17819">
        <ele>11.1</ele>
        <time>2020-06-08T14:31:29Z</time>
      </trkpt>
      <trkpt lat="48.29409" lon="-4.17824">
        <ele>11.1</ele>
        <time>2020-06-08T14:31:30Z</time>
      </trkpt>
      <trkpt lat="48.29409" lon="-4.17825">
        <ele>11.1</ele>
        <time>2020-06-08T14:31:31Z</time>
      </trkpt>
      <trkpt lat="48.29411" lon="-4.17829">
        <ele>11.1</ele>
        <time>2020-06-08T14:31:32Z</time>
      </trkpt>
      <trkpt lat="48.29412" lon="-4.17833">
        <ele>11.1</ele>
        <time>2020-06-08T14:31:33Z</time>
      </trkpt>
      <trkpt lat="48.29414" lon="-4.17838">
        <ele>11.1</ele>
        <time>2020-06-08T14:31:34Z</time>
      </trkpt>
      <trkpt lat="48.29415" lon="-4.17839">
        <ele>11.1</ele>
        <time>2020-06-08T14:31:35Z</time>
      </trkpt>
      <trkpt lat="48.29417" lon="-4.17842">
        <ele>11.1</ele>
        <time>2020-06-08T14:31:36Z</time>
      </trkpt>
      <trkpt lat="48.29418" lon="-4.17844">
        <ele>11.1</ele>
        <time>2020-06-08T14:31:37Z</time>
      </trkpt>
      <trkpt lat="48.29418" lon="-4.17846">
        <ele>11.1</ele>
        <time>2020-06-08T14:31:38Z</time>
      </trkpt>
      <trkpt lat="48.29418" lon="-4.17846">
        <ele>11.1</ele>
        <time>2020-06-08T14:31:39Z</time>
      </trkpt>
      <trkpt lat="48.29418" lon="-4.17846">
        <ele>11.1</ele>
        <time>2020-06-08T14:31:40Z</time>
      </trkpt>
      <trkpt lat="48.29418" lon="-4.17846">
        <ele>11.1</ele>
        <time>2020-06-08T14:31:41Z</time>
      </trkpt>
      <trkpt lat="48.29418" lon="-4.17846">
        <ele>11.1</ele>
        <time>2020-06-08T14:31:42Z</time>
      </trkpt>
      <trkpt lat="48.29418" lon="-4.17845">
        <ele>11.1</ele>
        <time>2020-06-08T14:31:43Z</time>
      </trkpt>
      <trkpt lat="48.29418" lon="-4.17846">
        <ele>11.1</ele>
        <time>2020-06-08T14:31:44Z</time>
      </trkpt>
      <trkpt lat="48.29418" lon="-4.17846">
        <ele>11.1</ele>
        <time>2020-06-08T14:31:45Z</time>
      </trkpt>
      <trkpt lat="48.29419" lon="-4.17846">
        <ele>11.1</ele>
        <time>2020-06-08T14:31:46Z</time>
      </trkpt>
      <trkpt lat="48.29419" lon="-4.17846">
        <ele>11.1</ele>
        <time>2020-06-08T14:31:47Z</time>
      </trkpt>
      <trkpt lat="48.2942" lon="-4.17846">
        <ele>11.1</ele>
        <time>2020-06-08T14:31:48Z</time>
      </trkpt>
      <trkpt lat="48.2942" lon="-4.17846">
        <ele>11.1</ele>
        <time>2020-06-08T14:31:49Z</time>
      </trkpt>
      <trkpt lat="48.29419" lon="-4.17847">
        <ele>11.1</ele>
        <time>2020-06-08T14:31:50Z</time>
      </trkpt>
      <trkpt lat="48.2942" lon="-4.17847">
        <ele>11.1</ele>
        <time>2020-06-08T14:31:51Z</time>
      </trkpt>
      <trkpt lat="48.2942" lon="-4.17847">
        <ele>11.1</ele>
        <time>2020-06-08T14:31:52Z</time>
      </trkpt>
      <trkpt lat="48.29421" lon="-4.17846">
        <ele>11.1</ele>
        <time>2020-06-08T14:31:53Z</time>
      </trkpt>
      <trkpt lat="48.29421" lon="-4.17846">
        <ele>11.1</ele>
        <time>2020-06-08T14:31:54Z</time>
      </trkpt>
      <trkpt lat="48.29421" lon="-4.17846">
        <ele>11.1</ele>
        <time>2020-06-08T14:31:55Z</time>
      </trkpt>
      <trkpt lat="48.29423" lon="-4.17853">
        <ele>11.1</ele>
        <time>2020-06-08T14:32:10Z</time>
      </trkpt>
      <trkpt lat="48.29423" lon="-4.17856">
        <ele>11.1</ele>
        <time>2020-06-08T14:32:11Z</time>
      </trkpt>
      <trkpt lat="48.29424" lon="-4.17859">
        <ele>11.1</ele>
        <time>2020-06-08T14:32:12Z</time>
      </trkpt>
      <trkpt lat="48.29425" lon="-4.17861">
        <ele>11.1</ele>
        <time>2020-06-08T14:32:13Z</time>
      </trkpt>
      <trkpt lat="48.29427" lon="-4.17866">
        <ele>10.8</ele>
        <time>2020-06-08T14:32:14Z</time>
      </trkpt>
      <trkpt lat="48.29427" lon="-4.17868">
        <ele>10.7</ele>
        <time>2020-06-08T14:32:15Z</time>
      </trkpt>
      <trkpt lat="48.29429" lon="-4.17873">
        <ele>10.7</ele>
        <time>2020-06-08T14:32:16Z</time>
      </trkpt>
      <trkpt lat="48.2943" lon="-4.17875">
        <ele>10.6</ele>
        <time>2020-06-08T14:32:17Z</time>
      </trkpt>
      <trkpt lat="48.29431" lon="-4.17879">
        <ele>10.6</ele>
        <time>2020-06-08T14:32:18Z</time>
      </trkpt>
      <trkpt lat="48.29435" lon="-4.17881">
        <ele>10.5</ele>
        <time>2020-06-08T14:32:19Z</time>
      </trkpt>
      <trkpt lat="48.29436" lon="-4.17885">
        <ele>10.4</ele>
        <time>2020-06-08T14:32:20Z</time>
      </trkpt>
      <trkpt lat="48.29438" lon="-4.17888">
        <ele>10.3</ele>
        <time>2020-06-08T14:32:21Z</time>
      </trkpt>
      <trkpt lat="48.29439" lon="-4.17892">
        <ele>10.3</ele>
        <time>2020-06-08T14:32:22Z</time>
      </trkpt>
      <trkpt lat="48.2944" lon="-4.17895">
        <ele>10.3</ele>
        <time>2020-06-08T14:32:23Z</time>
      </trkpt>
      <trkpt lat="48.29441" lon="-4.179">
        <ele>10.2</ele>
        <time>2020-06-08T14:32:24Z</time>
      </trkpt>
      <trkpt lat="48.29442" lon="-4.17904">
        <ele>10.2</ele>
        <time>2020-06-08T14:32:25Z</time>
      </trkpt>
      <trkpt lat="48.29443" lon="-4.17909">
        <ele>10.1</ele>
        <time>2020-06-08T14:32:26Z</time>
      </trkpt>
      <trkpt lat="48.29445" lon="-4.17912">
        <ele>10.1</ele>
        <time>2020-06-08T14:32:27Z</time>
      </trkpt>
      <trkpt lat="48.29446" lon="-4.17918">
        <ele>10</ele>
        <time>2020-06-08T14:32:28Z</time>
      </trkpt>
      <trkpt lat="48.29446" lon="-4.1792">
        <ele>10</ele>
        <time>2020-06-08T14:32:29Z</time>
      </trkpt>
      <trkpt lat="48.29447" lon="-4.17924">
        <ele>10</ele>
        <time>2020-06-08T14:32:30Z</time>
      </trkpt>
      <trkpt lat="48.29448" lon="-4.17929">
        <ele>9.9</ele>
        <time>2020-06-08T14:32:31Z</time>
      </trkpt>
      <trkpt lat="48.29449" lon="-4.17931">
        <ele>9.9</ele>
        <time>2020-06-08T14:32:32Z</time>
      </trkpt>
      <trkpt lat="48.2945" lon="-4.17936">
        <ele>9.9</ele>
        <time>2020-06-08T14:32:33Z</time>
      </trkpt>
      <trkpt lat="48.2945" lon="-4.1794">
        <ele>9.9</ele>
        <time>2020-06-08T14:32:34Z</time>
      </trkpt>
      <trkpt lat="48.29449" lon="-4.17945">
        <ele>9.8</ele>
        <time>2020-06-08T14:32:35Z</time>
      </trkpt>
      <trkpt lat="48.29449" lon="-4.17949">
        <ele>9.8</ele>
        <time>2020-06-08T14:32:36Z</time>
      </trkpt>
      <trkpt lat="48.29449" lon="-4.17954">
        <ele>9.8</ele>
        <time>2020-06-08T14:32:37Z</time>
      </trkpt>
      <trkpt lat="48.29449" lon="-4.17956">
        <ele>9.8</ele>
        <time>2020-06-08T14:32:38Z</time>
      </trkpt>
      <trkpt lat="48.29452" lon="-4.17959">
        <ele>9.7</ele>
        <time>2020-06-08T14:32:39Z</time>
      </trkpt>
      <trkpt lat="48.29453" lon="-4.17961">
        <ele>9.7</ele>
        <time>2020-06-08T14:32:40Z</time>
      </trkpt>
      <trkpt lat="48.29455" lon="-4.17962">
        <ele>9.7</ele>
        <time>2020-06-08T14:32:41Z</time>
      </trkpt>
      <trkpt lat="48.29458" lon="-4.17965">
        <ele>9.6</ele>
        <time>2020-06-08T14:32:42Z</time>
      </trkpt>
      <trkpt lat="48.2946" lon="-4.17968">
        <ele>9.6</ele>
        <time>2020-06-08T14:32:43Z</time>
      </trkpt>
      <trkpt lat="48.29463" lon="-4.17971">
        <ele>9.5</ele>
        <time>2020-06-08T14:32:44Z</time>
      </trkpt>
      <trkpt lat="48.29467" lon="-4.17971">
        <ele>9.3</ele>
        <time>2020-06-08T14:32:45Z</time>
      </trkpt>
      <trkpt lat="48.2947" lon="-4.17972">
        <ele>9.2</ele>
        <time>2020-06-08T14:32:46Z</time>
      </trkpt>
      <trkpt lat="48.29474" lon="-4.17974">
        <ele>9</ele>
        <time>2020-06-08T14:32:47Z</time>
      </trkpt>
      <trkpt lat="48.29478" lon="-4.17976">
        <ele>8.9</ele>
        <time>2020-06-08T14:32:48Z</time>
      </trkpt>
      <trkpt lat="48.29482" lon="-4.17979">
        <ele>8.7</ele>
        <time>2020-06-08T14:32:49Z</time>
      </trkpt>
      <trkpt lat="48.29486" lon="-4.17982">
        <ele>8.5</ele>
        <time>2020-06-08T14:32:50Z</time>
      </trkpt>
      <trkpt lat="48.2949" lon="-4.17985">
        <ele>8.3</ele>
        <time>2020-06-08T14:32:51Z</time>
      </trkpt>
      <trkpt lat="48.29493" lon="-4.17988">
        <ele>8.2</ele>
        <time>2020-06-08T14:32:52Z</time>
      </trkpt>
      <trkpt lat="48.29497" lon="-4.17992">
        <ele>8</ele>
        <time>2020-06-08T14:32:53Z</time>
      </trkpt>
      <trkpt lat="48.29501" lon="-4.17996">
        <ele>7.8</ele>
        <time>2020-06-08T14:32:54Z</time>
      </trkpt>
      <trkpt lat="48.29505" lon="-4.18">
        <ele>7.6</ele>
        <time>2020-06-08T14:32:55Z</time>
      </trkpt>
      <trkpt lat="48.29508" lon="-4.18003">
        <ele>7.4</ele>
        <time>2020-06-08T14:32:56Z</time>
      </trkpt>
      <trkpt lat="48.29512" lon="-4.18007">
        <ele>7.3</ele>
        <time>2020-06-08T14:32:57Z</time>
      </trkpt>
      <trkpt lat="48.29516" lon="-4.18012">
        <ele>7.1</ele>
        <time>2020-06-08T14:32:58Z</time>
      </trkpt>
      <trkpt lat="48.2952" lon="-4.18017">
        <ele>6.9</ele>
        <time>2020-06-08T14:32:59Z</time>
      </trkpt>
      <trkpt lat="48.29523" lon="-4.18021">
        <ele>6.8</ele>
        <time>2020-06-08T14:33:00Z</time>
      </trkpt>
      <trkpt lat="48.29526" lon="-4.18025">
        <ele>6.6</ele>
        <time>2020-06-08T14:33:01Z</time>
      </trkpt>
      <trkpt lat="48.2953" lon="-4.1803">
        <ele>6.4</ele>
        <time>2020-06-08T14:33:02Z</time>
      </trkpt>
      <trkpt lat="48.29535" lon="-4.18034">
        <ele>6.3</ele>
        <time>2020-06-08T14:33:03Z</time>
      </trkpt>
      <trkpt lat="48.29539" lon="-4.18039">
        <ele>6.1</ele>
        <time>2020-06-08T14:33:04Z</time>
      </trkpt>
      <trkpt lat="48.29543" lon="-4.18043">
        <ele>6</ele>
        <time>2020-06-08T14:33:05Z</time>
      </trkpt>
      <trkpt lat="48.29547" lon="-4.18048">
        <ele>5.8</ele>
        <time>2020-06-08T14:33:06Z</time>
      </trkpt>
      <trkpt lat="48.29551" lon="-4.18052">
        <ele>5.7</ele>
        <time>2020-06-08T14:33:07Z</time>
      </trkpt>
      <trkpt lat="48.29554" lon="-4.18056">
        <ele>5.7</ele>
        <time>2020-06-08T14:33:08Z</time>
      </trkpt>
      <trkpt lat="48.29558" lon="-4.18058">
        <ele>5.6</ele>
        <time>2020-06-08T14:33:09Z</time>
      </trkpt>
      <trkpt lat="48.29562" lon="-4.18061">
        <ele>5.5</ele>
        <time>2020-06-08T14:33:10Z</time>
      </trkpt>
      <trkpt lat="48.29566" lon="-4.18066">
        <ele>5.4</ele>
        <time>2020-06-08T14:33:11Z</time>
      </trkpt>
      <trkpt lat="48.2957" lon="-4.1807">
        <ele>5.4</ele>
        <time>2020-06-08T14:33:12Z</time>
      </trkpt>
      <trkpt lat="48.29574" lon="-4.18073">
        <ele>5.4</ele>
        <time>2020-06-08T14:33:13Z</time>
      </trkpt>
      <trkpt lat="48.29575" lon="-4.18078">
        <ele>5.4</ele>
        <time>2020-06-08T14:33:14Z</time>
      </trkpt>
      <trkpt lat="48.29578" lon="-4.18081">
        <ele>5.3</ele>
        <time>2020-06-08T14:33:15Z</time>
      </trkpt>
      <trkpt lat="48.29581" lon="-4.18085">
        <ele>5.3</ele>
        <time>2020-06-08T14:33:16Z</time>
      </trkpt>
      <trkpt lat="48.29583" lon="-4.18087">
        <ele>5.3</ele>
        <time>2020-06-08T14:33:17Z</time>
      </trkpt>
      <trkpt lat="48.29586" lon="-4.1809">
        <ele>5.3</ele>
        <time>2020-06-08T14:33:18Z</time>
      </trkpt>
      <trkpt lat="48.29589" lon="-4.18092">
        <ele>5.2</ele>
        <time>2020-06-08T14:33:19Z</time>
      </trkpt>
      <trkpt lat="48.29593" lon="-4.18093">
        <ele>5.2</ele>
        <time>2020-06-08T14:33:20Z</time>
      </trkpt>
      <trkpt lat="48.29596" lon="-4.18095">
        <ele>5.2</ele>
        <time>2020-06-08T14:33:21Z</time>
      </trkpt>
      <trkpt lat="48.29599" lon="-4.18096">
        <ele>5.1</ele>
        <time>2020-06-08T14:33:22Z</time>
      </trkpt>
      <trkpt lat="48.29601" lon="-4.18096">
        <ele>5.1</ele>
        <time>2020-06-08T14:33:23Z</time>
      </trkpt>
      <trkpt lat="48.29605" lon="-4.18096">
        <ele>5.1</ele>
        <time>2020-06-08T14:33:24Z</time>
      </trkpt>
      <trkpt lat="48.29608" lon="-4.18094">
        <ele>5</ele>
        <time>2020-06-08T14:33:25Z</time>
      </trkpt>
      <trkpt lat="48.29612" lon="-4.18093">
        <ele>5</ele>
        <time>2020-06-08T14:33:26Z</time>
      </trkpt>
      <trkpt lat="48.29613" lon="-4.18093">
        <ele>5</ele>
        <time>2020-06-08T14:33:27Z</time>
      </trkpt>
      <trkpt lat="48.29616" lon="-4.18093">
        <ele>5</ele>
        <time>2020-06-08T14:33:28Z</time>
      </trkpt>
      <trkpt lat="48.29618" lon="-4.18094">
        <ele>5</ele>
        <time>2020-06-08T14:33:29Z</time>
      </trkpt>
      <trkpt lat="48.29621" lon="-4.18093">
        <ele>5</ele>
        <time>2020-06-08T14:33:30Z</time>
      </trkpt>
      <trkpt lat="48.29623" lon="-4.18093">
        <ele>5</ele>
        <time>2020-06-08T14:33:31Z</time>
      </trkpt>
      <trkpt lat="48.29627" lon="-4.18095">
        <ele>5</ele>
        <time>2020-06-08T14:33:32Z</time>
      </trkpt>
      <trkpt lat="48.29628" lon="-4.18095">
        <ele>4.9</ele>
        <time>2020-06-08T14:33:33Z</time>
      </trkpt>
      <trkpt lat="48.29631" lon="-4.18096">
        <ele>4.9</ele>
        <time>2020-06-08T14:33:34Z</time>
      </trkpt>
      <trkpt lat="48.29632" lon="-4.18096">
        <ele>4.9</ele>
        <time>2020-06-08T14:33:35Z</time>
      </trkpt>
      <trkpt lat="48.29635" lon="-4.18097">
        <ele>4.9</ele>
        <time>2020-06-08T14:33:36Z</time>
      </trkpt>
      <trkpt lat="48.29636" lon="-4.18098">
        <ele>4.9</ele>
        <time>2020-06-08T14:33:37Z</time>
      </trkpt>
      <trkpt lat="48.2964" lon="-4.18098">
        <ele>4.9</ele>
        <time>2020-06-08T14:33:38Z</time>
      </trkpt>
      <trkpt lat="48.29641" lon="-4.18098">
        <ele>4.9</ele>
        <time>2020-06-08T14:33:39Z</time>
      </trkpt>
      <trkpt lat="48.29644" lon="-4.18096">
        <ele>4.9</ele>
        <time>2020-06-08T14:33:40Z</time>
      </trkpt>
      <trkpt lat="48.29645" lon="-4.18095">
        <ele>4.9</ele>
        <time>2020-06-08T14:33:41Z</time>
      </trkpt>
      <trkpt lat="48.29649" lon="-4.18093">
        <ele>4.8</ele>
        <time>2020-06-08T14:33:42Z</time>
      </trkpt>
      <trkpt lat="48.2965" lon="-4.18093">
        <ele>4.8</ele>
        <time>2020-06-08T14:33:43Z</time>
      </trkpt>
      <trkpt lat="48.29654" lon="-4.18092">
        <ele>4.7</ele>
        <time>2020-06-08T14:33:44Z</time>
      </trkpt>
      <trkpt lat="48.29655" lon="-4.18092">
        <ele>4.7</ele>
        <time>2020-06-08T14:33:45Z</time>
      </trkpt>
      <trkpt lat="48.29658" lon="-4.18091">
        <ele>4.7</ele>
        <time>2020-06-08T14:33:46Z</time>
      </trkpt>
      <trkpt lat="48.2966" lon="-4.1809">
        <ele>4.6</ele>
        <time>2020-06-08T14:33:47Z</time>
      </trkpt>
      <trkpt lat="48.29664" lon="-4.18089">
        <ele>4.6</ele>
        <time>2020-06-08T14:33:48Z</time>
      </trkpt>
      <trkpt lat="48.29666" lon="-4.18088">
        <ele>4.6</ele>
        <time>2020-06-08T14:33:49Z</time>
      </trkpt>
      <trkpt lat="48.29669" lon="-4.18089">
        <ele>4.5</ele>
        <time>2020-06-08T14:33:50Z</time>
      </trkpt>
      <trkpt lat="48.29672" lon="-4.1809">
        <ele>4.5</ele>
        <time>2020-06-08T14:33:51Z</time>
      </trkpt>
      <trkpt lat="48.29675" lon="-4.18091">
        <ele>4.6</ele>
        <time>2020-06-08T14:33:52Z</time>
      </trkpt>
      <trkpt lat="48.29678" lon="-4.1809">
        <ele>4.6</ele>
        <time>2020-06-08T14:33:53Z</time>
      </trkpt>
      <trkpt lat="48.29681" lon="-4.1809">
        <ele>4.6</ele>
        <time>2020-06-08T14:33:54Z</time>
      </trkpt>
      <trkpt lat="48.29684" lon="-4.1809">
        <ele>4.6</ele>
        <time>2020-06-08T14:33:55Z</time>
      </trkpt>
      <trkpt lat="48.29687" lon="-4.18091">
        <ele>4.6</ele>
        <time>2020-06-08T14:33:56Z</time>
      </trkpt>
      <trkpt lat="48.2969" lon="-4.18092">
        <ele>4.7</ele>
        <time>2020-06-08T14:33:57Z</time>
      </trkpt>
      <trkpt lat="48.29694" lon="-4.18091">
        <ele>4.7</ele>
        <time>2020-06-08T14:33:58Z</time>
      </trkpt>
      <trkpt lat="48.29695" lon="-4.18091">
        <ele>4.7</ele>
        <time>2020-06-08T14:33:59Z</time>
      </trkpt>
      <trkpt lat="48.29698" lon="-4.18091">
        <ele>4.8</ele>
        <time>2020-06-08T14:34:00Z</time>
      </trkpt>
      <trkpt lat="48.29699" lon="-4.18091">
        <ele>4.8</ele>
        <time>2020-06-08T14:34:01Z</time>
      </trkpt>
      <trkpt lat="48.29702" lon="-4.1809">
        <ele>4.9</ele>
        <time>2020-06-08T14:34:02Z</time>
      </trkpt>
      <trkpt lat="48.29704" lon="-4.1809">
        <ele>4.9</ele>
        <time>2020-06-08T14:34:03Z</time>
      </trkpt>
      <trkpt lat="48.29706" lon="-4.18088">
        <ele>5</ele>
        <time>2020-06-08T14:34:04Z</time>
      </trkpt>
      <trkpt lat="48.29709" lon="-4.18088">
        <ele>5</ele>
        <time>2020-06-08T14:34:05Z</time>
      </trkpt>
      <trkpt lat="48.29712" lon="-4.1809">
        <ele>5.1</ele>
        <time>2020-06-08T14:34:06Z</time>
      </trkpt>
      <trkpt lat="48.29716" lon="-4.18091">
        <ele>5.2</ele>
        <time>2020-06-08T14:34:07Z</time>
      </trkpt>
      <trkpt lat="48.29719" lon="-4.18093">
        <ele>5.4</ele>
        <time>2020-06-08T14:34:08Z</time>
      </trkpt>
      <trkpt lat="48.2972" lon="-4.18095">
        <ele>5.4</ele>
        <time>2020-06-08T14:34:09Z</time>
      </trkpt>
      <trkpt lat="48.29724" lon="-4.18097">
        <ele>5.6</ele>
        <time>2020-06-08T14:34:10Z</time>
      </trkpt>
      <trkpt lat="48.29725" lon="-4.18097">
        <ele>5.7</ele>
        <time>2020-06-08T14:34:11Z</time>
      </trkpt>
      <trkpt lat="48.29729" lon="-4.18099">
        <ele>5.8</ele>
        <time>2020-06-08T14:34:12Z</time>
      </trkpt>
      <trkpt lat="48.2973" lon="-4.181">
        <ele>5.9</ele>
        <time>2020-06-08T14:34:13Z</time>
      </trkpt>
      <trkpt lat="48.29732" lon="-4.18103">
        <ele>6</ele>
        <time>2020-06-08T14:34:14Z</time>
      </trkpt>
      <trkpt lat="48.29734" lon="-4.18106">
        <ele>6.1</ele>
        <time>2020-06-08T14:34:15Z</time>
      </trkpt>
      <trkpt lat="48.29737" lon="-4.1811">
        <ele>6.3</ele>
        <time>2020-06-08T14:34:16Z</time>
      </trkpt>
      <trkpt lat="48.29738" lon="-4.18111">
        <ele>6.3</ele>
        <time>2020-06-08T14:34:17Z</time>
      </trkpt>
      <trkpt lat="48.2974" lon="-4.18114">
        <ele>6.4</ele>
        <time>2020-06-08T14:34:18Z</time>
      </trkpt>
      <trkpt lat="48.29741" lon="-4.18116">
        <ele>6.5</ele>
        <time>2020-06-08T14:34:19Z</time>
      </trkpt>
      <trkpt lat="48.29743" lon="-4.1812">
        <ele>6.6</ele>
        <time>2020-06-08T14:34:20Z</time>
      </trkpt>
      <trkpt lat="48.29744" lon="-4.18121">
        <ele>6.7</ele>
        <time>2020-06-08T14:34:21Z</time>
      </trkpt>
      <trkpt lat="48.29747" lon="-4.18125">
        <ele>7</ele>
        <time>2020-06-08T14:34:22Z</time>
      </trkpt>
      <trkpt lat="48.29748" lon="-4.18127">
        <ele>7</ele>
        <time>2020-06-08T14:34:23Z</time>
      </trkpt>
      <trkpt lat="48.29751" lon="-4.1813">
        <ele>7.1</ele>
        <time>2020-06-08T14:34:24Z</time>
      </trkpt>
      <trkpt lat="48.29753" lon="-4.18131">
        <ele>7.2</ele>
        <time>2020-06-08T14:34:25Z</time>
      </trkpt>
      <trkpt lat="48.29755" lon="-4.18132">
        <ele>7.3</ele>
        <time>2020-06-08T14:34:26Z</time>
      </trkpt>
      <trkpt lat="48.29758" lon="-4.18134">
        <ele>7.5</ele>
        <time>2020-06-08T14:34:27Z</time>
      </trkpt>
      <trkpt lat="48.2976" lon="-4.18135">
        <ele>7.5</ele>
        <time>2020-06-08T14:34:28Z</time>
      </trkpt>
      <trkpt lat="48.29762" lon="-4.18137">
        <ele>7.7</ele>
        <time>2020-06-08T14:34:29Z</time>
      </trkpt>
      <trkpt lat="48.29763" lon="-4.18138">
        <ele>7.7</ele>
        <time>2020-06-08T14:34:30Z</time>
      </trkpt>
      <trkpt lat="48.29767" lon="-4.1814">
        <ele>7.9</ele>
        <time>2020-06-08T14:34:31Z</time>
      </trkpt>
      <trkpt lat="48.29768" lon="-4.18141">
        <ele>7.9</ele>
        <time>2020-06-08T14:34:32Z</time>
      </trkpt>
      <trkpt lat="48.29771" lon="-4.18145">
        <ele>8.1</ele>
        <time>2020-06-08T14:34:33Z</time>
      </trkpt>
      <trkpt lat="48.29771" lon="-4.18146">
        <ele>8.2</ele>
        <time>2020-06-08T14:34:34Z</time>
      </trkpt>
      <trkpt lat="48.29773" lon="-4.18152">
        <ele>8.4</ele>
        <time>2020-06-08T14:34:35Z</time>
      </trkpt>
      <trkpt lat="48.29774" lon="-4.18154">
        <ele>8.5</ele>
        <time>2020-06-08T14:34:36Z</time>
      </trkpt>
      <trkpt lat="48.29777" lon="-4.18158">
        <ele>8.7</ele>
        <time>2020-06-08T14:34:37Z</time>
      </trkpt>
      <trkpt lat="48.29777" lon="-4.18159">
        <ele>8.7</ele>
        <time>2020-06-08T14:34:38Z</time>
      </trkpt>
      <trkpt lat="48.2978" lon="-4.18162">
        <ele>8.9</ele>
        <time>2020-06-08T14:34:39Z</time>
      </trkpt>
      <trkpt lat="48.29781" lon="-4.18161">
        <ele>9.2</ele>
        <time>2020-06-08T14:34:40Z</time>
      </trkpt>
      <trkpt lat="48.29784" lon="-4.18163">
        <ele>9.5</ele>
        <time>2020-06-08T14:34:41Z</time>
      </trkpt>
      <trkpt lat="48.29785" lon="-4.18164">
        <ele>9.6</ele>
        <time>2020-06-08T14:34:42Z</time>
      </trkpt>
      <trkpt lat="48.29788" lon="-4.18167">
        <ele>10</ele>
        <time>2020-06-08T14:34:43Z</time>
      </trkpt>
      <trkpt lat="48.29789" lon="-4.18168">
        <ele>10.1</ele>
        <time>2020-06-08T14:34:44Z</time>
      </trkpt>
      <trkpt lat="48.29792" lon="-4.18169">
        <ele>10.4</ele>
        <time>2020-06-08T14:34:45Z</time>
      </trkpt>
      <trkpt lat="48.29793" lon="-4.1817">
        <ele>10.5</ele>
        <time>2020-06-08T14:34:46Z</time>
      </trkpt>
      <trkpt lat="48.29794" lon="-4.18172">
        <ele>10.7</ele>
        <time>2020-06-08T14:34:47Z</time>
      </trkpt>
      <trkpt lat="48.29795" lon="-4.18175">
        <ele>10.9</ele>
        <time>2020-06-08T14:34:48Z</time>
      </trkpt>
      <trkpt lat="48.29797" lon="-4.18178">
        <ele>11.3</ele>
        <time>2020-06-08T14:34:49Z</time>
      </trkpt>
      <trkpt lat="48.29798" lon="-4.18179">
        <ele>11.4</ele>
        <time>2020-06-08T14:34:50Z</time>
      </trkpt>
      <trkpt lat="48.298" lon="-4.18182">
        <ele>11.7</ele>
        <time>2020-06-08T14:34:51Z</time>
      </trkpt>
      <trkpt lat="48.29803" lon="-4.18185">
        <ele>12</ele>
        <time>2020-06-08T14:34:52Z</time>
      </trkpt>
      <trkpt lat="48.29804" lon="-4.18186">
        <ele>12.2</ele>
        <time>2020-06-08T14:34:53Z</time>
      </trkpt>
      <trkpt lat="48.29806" lon="-4.18189">
        <ele>12.5</ele>
        <time>2020-06-08T14:34:54Z</time>
      </trkpt>
      <trkpt lat="48.29806" lon="-4.1819">
        <ele>12.6</ele>
        <time>2020-06-08T14:34:55Z</time>
      </trkpt>
      <trkpt lat="48.29809" lon="-4.18192">
        <ele>12.8</ele>
        <time>2020-06-08T14:34:56Z</time>
      </trkpt>
      <trkpt lat="48.2981" lon="-4.18193">
        <ele>12.9</ele>
        <time>2020-06-08T14:34:57Z</time>
      </trkpt>
      <trkpt lat="48.29811" lon="-4.18195">
        <ele>13.1</ele>
        <time>2020-06-08T14:34:58Z</time>
      </trkpt>
      <trkpt lat="48.29812" lon="-4.18197">
        <ele>13.3</ele>
        <time>2020-06-08T14:34:59Z</time>
      </trkpt>
      <trkpt lat="48.29814" lon="-4.18199">
        <ele>13.6</ele>
        <time>2020-06-08T14:35:00Z</time>
      </trkpt>
      <trkpt lat="48.29815" lon="-4.182">
        <ele>13.7</ele>
        <time>2020-06-08T14:35:01Z</time>
      </trkpt>
      <trkpt lat="48.29818" lon="-4.18204">
        <ele>14.1</ele>
        <time>2020-06-08T14:35:02Z</time>
      </trkpt>
      <trkpt lat="48.29819" lon="-4.18206">
        <ele>14.2</ele>
        <time>2020-06-08T14:35:03Z</time>
      </trkpt>
      <trkpt lat="48.29821" lon="-4.18209">
        <ele>14.5</ele>
        <time>2020-06-08T14:35:04Z</time>
      </trkpt>
      <trkpt lat="48.29822" lon="-4.1821">
        <ele>14.6</ele>
        <time>2020-06-08T14:35:05Z</time>
      </trkpt>
      <trkpt lat="48.29824" lon="-4.18213">
        <ele>14.9</ele>
        <time>2020-06-08T14:35:06Z</time>
      </trkpt>
      <trkpt lat="48.29825" lon="-4.18213">
        <ele>15</ele>
        <time>2020-06-08T14:35:07Z</time>
      </trkpt>
      <trkpt lat="48.29828" lon="-4.18216">
        <ele>15.3</ele>
        <time>2020-06-08T14:35:08Z</time>
      </trkpt>
      <trkpt lat="48.29828" lon="-4.18217">
        <ele>15.4</ele>
        <time>2020-06-08T14:35:09Z</time>
      </trkpt>
      <trkpt lat="48.29831" lon="-4.1822">
        <ele>15.7</ele>
        <time>2020-06-08T14:35:10Z</time>
      </trkpt>
      <trkpt lat="48.29832" lon="-4.18221">
        <ele>15.8</ele>
        <time>2020-06-08T14:35:11Z</time>
      </trkpt>
      <trkpt lat="48.29834" lon="-4.18224">
        <ele>16</ele>
        <time>2020-06-08T14:35:12Z</time>
      </trkpt>
      <trkpt lat="48.29836" lon="-4.18227">
        <ele>16.3</ele>
        <time>2020-06-08T14:35:13Z</time>
      </trkpt>
      <trkpt lat="48.29837" lon="-4.18229">
        <ele>16.3</ele>
        <time>2020-06-08T14:35:14Z</time>
      </trkpt>
      <trkpt lat="48.29839" lon="-4.18231">
        <ele>16.6</ele>
        <time>2020-06-08T14:35:15Z</time>
      </trkpt>
      <trkpt lat="48.2984" lon="-4.18233">
        <ele>16.7</ele>
        <time>2020-06-08T14:35:16Z</time>
      </trkpt>
      <trkpt lat="48.29843" lon="-4.18236">
        <ele>17</ele>
        <time>2020-06-08T14:35:17Z</time>
      </trkpt>
      <trkpt lat="48.29844" lon="-4.18237">
        <ele>17.1</ele>
        <time>2020-06-08T14:35:18Z</time>
      </trkpt>
      <trkpt lat="48.29847" lon="-4.1824">
        <ele>17.3</ele>
        <time>2020-06-08T14:35:19Z</time>
      </trkpt>
      <trkpt lat="48.29849" lon="-4.18244">
        <ele>17.5</ele>
        <time>2020-06-08T14:35:20Z</time>
      </trkpt>
      <trkpt lat="48.29852" lon="-4.18247">
        <ele>17.8</ele>
        <time>2020-06-08T14:35:21Z</time>
      </trkpt>
      <trkpt lat="48.29853" lon="-4.18248">
        <ele>17.9</ele>
        <time>2020-06-08T14:35:22Z</time>
      </trkpt>
      <trkpt lat="48.29855" lon="-4.18251">
        <ele>18.1</ele>
        <time>2020-06-08T14:35:23Z</time>
      </trkpt>
      <trkpt lat="48.29856" lon="-4.18252">
        <ele>18.2</ele>
        <time>2020-06-08T14:35:24Z</time>
      </trkpt>
      <trkpt lat="48.29859" lon="-4.18255">
        <ele>18.4</ele>
        <time>2020-06-08T14:35:25Z</time>
      </trkpt>
      <trkpt lat="48.2986" lon="-4.18256">
        <ele>18.5</ele>
        <time>2020-06-08T14:35:26Z</time>
      </trkpt>
      <trkpt lat="48.29863" lon="-4.18258">
        <ele>18.7</ele>
        <time>2020-06-08T14:35:27Z</time>
      </trkpt>
      <trkpt lat="48.29864" lon="-4.18259">
        <ele>18.8</ele>
        <time>2020-06-08T14:35:28Z</time>
      </trkpt>
      <trkpt lat="48.29866" lon="-4.18262">
        <ele>19</ele>
        <time>2020-06-08T14:35:29Z</time>
      </trkpt>
      <trkpt lat="48.29869" lon="-4.18265">
        <ele>19.2</ele>
        <time>2020-06-08T14:35:30Z</time>
      </trkpt>
      <trkpt lat="48.2987" lon="-4.18267">
        <ele>19.3</ele>
        <time>2020-06-08T14:35:31Z</time>
      </trkpt>
      <trkpt lat="48.29873" lon="-4.1827">
        <ele>19.5</ele>
        <time>2020-06-08T14:35:32Z</time>
      </trkpt>
      <trkpt lat="48.29874" lon="-4.18271">
        <ele>19.6</ele>
        <time>2020-06-08T14:35:33Z</time>
      </trkpt>
      <trkpt lat="48.29876" lon="-4.18274">
        <ele>19.8</ele>
        <time>2020-06-08T14:35:34Z</time>
      </trkpt>
      <trkpt lat="48.29878" lon="-4.18276">
        <ele>20</ele>
        <time>2020-06-08T14:35:35Z</time>
      </trkpt>
      <trkpt lat="48.29881" lon="-4.18279">
        <ele>20.1</ele>
        <time>2020-06-08T14:35:36Z</time>
      </trkpt>
      <trkpt lat="48.29883" lon="-4.18282">
        <ele>20.3</ele>
        <time>2020-06-08T14:35:37Z</time>
      </trkpt>
      <trkpt lat="48.29885" lon="-4.18284">
        <ele>20.6</ele>
        <time>2020-06-08T14:35:38Z</time>
      </trkpt>
      <trkpt lat="48.29886" lon="-4.18286">
        <ele>20.6</ele>
        <time>2020-06-08T14:35:39Z</time>
      </trkpt>
      <trkpt lat="48.29889" lon="-4.18289">
        <ele>20.9</ele>
        <time>2020-06-08T14:35:40Z</time>
      </trkpt>
      <trkpt lat="48.2989" lon="-4.18291">
        <ele>21</ele>
        <time>2020-06-08T14:35:41Z</time>
      </trkpt>
      <trkpt lat="48.29893" lon="-4.18294">
        <ele>21.3</ele>
        <time>2020-06-08T14:35:42Z</time>
      </trkpt>
      <trkpt lat="48.29894" lon="-4.18295">
        <ele>21.4</ele>
        <time>2020-06-08T14:35:43Z</time>
      </trkpt>
      <trkpt lat="48.29896" lon="-4.18298">
        <ele>21.6</ele>
        <time>2020-06-08T14:35:44Z</time>
      </trkpt>
      <trkpt lat="48.29897" lon="-4.18299">
        <ele>21.7</ele>
        <time>2020-06-08T14:35:45Z</time>
      </trkpt>
      <trkpt lat="48.29899" lon="-4.18302">
        <ele>21.9</ele>
        <time>2020-06-08T14:35:46Z</time>
      </trkpt>
      <trkpt lat="48.29899" lon="-4.18303">
        <ele>22</ele>
        <time>2020-06-08T14:35:47Z</time>
      </trkpt>
      <trkpt lat="48.29903" lon="-4.18306">
        <ele>22.3</ele>
        <time>2020-06-08T14:35:48Z</time>
      </trkpt>
      <trkpt lat="48.29904" lon="-4.18307">
        <ele>22.5</ele>
        <time>2020-06-08T14:35:49Z</time>
      </trkpt>
      <trkpt lat="48.29907" lon="-4.1831">
        <ele>22.8</ele>
        <time>2020-06-08T14:35:50Z</time>
      </trkpt>
      <trkpt lat="48.29907" lon="-4.18311">
        <ele>22.9</ele>
        <time>2020-06-08T14:35:51Z</time>
      </trkpt>
      <trkpt lat="48.29909" lon="-4.18314">
        <ele>23.2</ele>
        <time>2020-06-08T14:35:52Z</time>
      </trkpt>
      <trkpt lat="48.29912" lon="-4.18317">
        <ele>23.5</ele>
        <time>2020-06-08T14:35:53Z</time>
      </trkpt>
      <trkpt lat="48.29913" lon="-4.18318">
        <ele>23.6</ele>
        <time>2020-06-08T14:35:54Z</time>
      </trkpt>
      <trkpt lat="48.29914" lon="-4.1832">
        <ele>23.8</ele>
        <time>2020-06-08T14:35:55Z</time>
      </trkpt>
      <trkpt lat="48.29915" lon="-4.18322">
        <ele>23.9</ele>
        <time>2020-06-08T14:35:56Z</time>
      </trkpt>
      <trkpt lat="48.29917" lon="-4.18324">
        <ele>24.2</ele>
        <time>2020-06-08T14:35:57Z</time>
      </trkpt>
      <trkpt lat="48.29918" lon="-4.18325">
        <ele>24.3</ele>
        <time>2020-06-08T14:35:58Z</time>
      </trkpt>
      <trkpt lat="48.2992" lon="-4.18329">
        <ele>24.6</ele>
        <time>2020-06-08T14:35:59Z</time>
      </trkpt>
      <trkpt lat="48.29923" lon="-4.18332">
        <ele>25</ele>
        <time>2020-06-08T14:36:00Z</time>
      </trkpt>
      <trkpt lat="48.29924" lon="-4.18333">
        <ele>25.1</ele>
        <time>2020-06-08T14:36:01Z</time>
      </trkpt>
      <trkpt lat="48.29927" lon="-4.18336">
        <ele>25.5</ele>
        <time>2020-06-08T14:36:02Z</time>
      </trkpt>
      <trkpt lat="48.29928" lon="-4.18337">
        <ele>25.6</ele>
        <time>2020-06-08T14:36:03Z</time>
      </trkpt>
      <trkpt lat="48.29931" lon="-4.1834">
        <ele>25.9</ele>
        <time>2020-06-08T14:36:04Z</time>
      </trkpt>
      <trkpt lat="48.29932" lon="-4.18341">
        <ele>26</ele>
        <time>2020-06-08T14:36:05Z</time>
      </trkpt>
      <trkpt lat="48.29935" lon="-4.18344">
        <ele>26.3</ele>
        <time>2020-06-08T14:36:06Z</time>
      </trkpt>
      <trkpt lat="48.29936" lon="-4.18345">
        <ele>26.4</ele>
        <time>2020-06-08T14:36:07Z</time>
      </trkpt>
      <trkpt lat="48.29939" lon="-4.18349">
        <ele>26.8</ele>
        <time>2020-06-08T14:36:08Z</time>
      </trkpt>
      <trkpt lat="48.2994" lon="-4.18351">
        <ele>26.9</ele>
        <time>2020-06-08T14:36:09Z</time>
      </trkpt>
      <trkpt lat="48.29943" lon="-4.18354">
        <ele>27.2</ele>
        <time>2020-06-08T14:36:10Z</time>
      </trkpt>
      <trkpt lat="48.29943" lon="-4.18355">
        <ele>27.2</ele>
        <time>2020-06-08T14:36:11Z</time>
      </trkpt>
      <trkpt lat="48.29946" lon="-4.18358">
        <ele>27.5</ele>
        <time>2020-06-08T14:36:12Z</time>
      </trkpt>
      <trkpt lat="48.29947" lon="-4.18359">
        <ele>27.6</ele>
        <time>2020-06-08T14:36:13Z</time>
      </trkpt>
      <trkpt lat="48.29949" lon="-4.18361">
        <ele>27.8</ele>
        <time>2020-06-08T14:36:14Z</time>
      </trkpt>
      <trkpt lat="48.2995" lon="-4.18362">
        <ele>27.9</ele>
        <time>2020-06-08T14:36:15Z</time>
      </trkpt>
      <trkpt lat="48.29952" lon="-4.18365">
        <ele>28.1</ele>
        <time>2020-06-08T14:36:16Z</time>
      </trkpt>
      <trkpt lat="48.29955" lon="-4.18369">
        <ele>28.4</ele>
        <time>2020-06-08T14:36:17Z</time>
      </trkpt>
      <trkpt lat="48.29955" lon="-4.1837">
        <ele>28.5</ele>
        <time>2020-06-08T14:36:18Z</time>
      </trkpt>
      <trkpt lat="48.29958" lon="-4.18374">
        <ele>28.7</ele>
        <time>2020-06-08T14:36:19Z</time>
      </trkpt>
      <trkpt lat="48.29959" lon="-4.18375">
        <ele>28.8</ele>
        <time>2020-06-08T14:36:20Z</time>
      </trkpt>
      <trkpt lat="48.29962" lon="-4.18379">
        <ele>29.1</ele>
        <time>2020-06-08T14:36:21Z</time>
      </trkpt>
      <trkpt lat="48.29963" lon="-4.1838">
        <ele>29.2</ele>
        <time>2020-06-08T14:36:22Z</time>
      </trkpt>
      <trkpt lat="48.29965" lon="-4.18384">
        <ele>29.4</ele>
        <time>2020-06-08T14:36:23Z</time>
      </trkpt>
      <trkpt lat="48.29966" lon="-4.18385">
        <ele>29.5</ele>
        <time>2020-06-08T14:36:24Z</time>
      </trkpt>
      <trkpt lat="48.29968" lon="-4.18387">
        <ele>29.7</ele>
        <time>2020-06-08T14:36:25Z</time>
      </trkpt>
      <trkpt lat="48.29969" lon="-4.18388">
        <ele>29.8</ele>
        <time>2020-06-08T14:36:26Z</time>
      </trkpt>
      <trkpt lat="48.29972" lon="-4.18391">
        <ele>30</ele>
        <time>2020-06-08T14:36:27Z</time>
      </trkpt>
      <trkpt lat="48.29973" lon="-4.18392">
        <ele>30.1</ele>
        <time>2020-06-08T14:36:28Z</time>
      </trkpt>
      <trkpt lat="48.29976" lon="-4.18394">
        <ele>30.4</ele>
        <time>2020-06-08T14:36:29Z</time>
      </trkpt>
      <trkpt lat="48.29977" lon="-4.18395">
        <ele>30.4</ele>
        <time>2020-06-08T14:36:30Z</time>
      </trkpt>
      <trkpt lat="48.29979" lon="-4.18399">
        <ele>30.7</ele>
        <time>2020-06-08T14:36:31Z</time>
      </trkpt>
      <trkpt lat="48.2998" lon="-4.184">
        <ele>30.7</ele>
        <time>2020-06-08T14:36:32Z</time>
      </trkpt>
      <trkpt lat="48.29983" lon="-4.18402">
        <ele>31</ele>
        <time>2020-06-08T14:36:33Z</time>
      </trkpt>
      <trkpt lat="48.29984" lon="-4.18403">
        <ele>31</ele>
        <time>2020-06-08T14:36:34Z</time>
      </trkpt>
      <trkpt lat="48.29988" lon="-4.18405">
        <ele>31.3</ele>
        <time>2020-06-08T14:36:35Z</time>
      </trkpt>
      <trkpt lat="48.29989" lon="-4.18406">
        <ele>31.4</ele>
        <time>2020-06-08T14:36:36Z</time>
      </trkpt>
      <trkpt lat="48.29991" lon="-4.1841">
        <ele>31.6</ele>
        <time>2020-06-08T14:36:37Z</time>
      </trkpt>
      <trkpt lat="48.29992" lon="-4.18411">
        <ele>31.7</ele>
        <time>2020-06-08T14:36:38Z</time>
      </trkpt>
      <trkpt lat="48.29995" lon="-4.18414">
        <ele>32</ele>
        <time>2020-06-08T14:36:39Z</time>
      </trkpt>
      <trkpt lat="48.29996" lon="-4.18415">
        <ele>32</ele>
        <time>2020-06-08T14:36:40Z</time>
      </trkpt>
      <trkpt lat="48.29999" lon="-4.18417">
        <ele>32.3</ele>
        <time>2020-06-08T14:36:41Z</time>
      </trkpt>
      <trkpt lat="48.29999" lon="-4.18418">
        <ele>32.3</ele>
        <time>2020-06-08T14:36:42Z</time>
      </trkpt>
      <trkpt lat="48.30001" lon="-4.18422">
        <ele>32.6</ele>
        <time>2020-06-08T14:36:43Z</time>
      </trkpt>
      <trkpt lat="48.30002" lon="-4.18423">
        <ele>32.7</ele>
        <time>2020-06-08T14:36:44Z</time>
      </trkpt>
      <trkpt lat="48.30004" lon="-4.18426">
        <ele>32.9</ele>
        <time>2020-06-08T14:36:45Z</time>
      </trkpt>
      <trkpt lat="48.30005" lon="-4.18426">
        <ele>32.9</ele>
        <time>2020-06-08T14:36:46Z</time>
      </trkpt>
      <trkpt lat="48.30007" lon="-4.18429">
        <ele>33.2</ele>
        <time>2020-06-08T14:36:47Z</time>
      </trkpt>
      <trkpt lat="48.30008" lon="-4.1843">
        <ele>33.2</ele>
        <time>2020-06-08T14:36:48Z</time>
      </trkpt>
      <trkpt lat="48.30011" lon="-4.18434">
        <ele>33.5</ele>
        <time>2020-06-08T14:36:49Z</time>
      </trkpt>
      <trkpt lat="48.30012" lon="-4.18435">
        <ele>33.6</ele>
        <time>2020-06-08T14:36:50Z</time>
      </trkpt>
      <trkpt lat="48.30016" lon="-4.18437">
        <ele>33.9</ele>
        <time>2020-06-08T14:36:51Z</time>
      </trkpt>
      <trkpt lat="48.30017" lon="-4.18439">
        <ele>34</ele>
        <time>2020-06-08T14:36:52Z</time>
      </trkpt>
      <trkpt lat="48.30019" lon="-4.18441">
        <ele>34.2</ele>
        <time>2020-06-08T14:36:53Z</time>
      </trkpt>
      <trkpt lat="48.30022" lon="-4.18443">
        <ele>34.4</ele>
        <time>2020-06-08T14:36:54Z</time>
      </trkpt>
      <trkpt lat="48.30023" lon="-4.18443">
        <ele>34.5</ele>
        <time>2020-06-08T14:36:55Z</time>
      </trkpt>
      <trkpt lat="48.30025" lon="-4.18446">
        <ele>34.7</ele>
        <time>2020-06-08T14:36:56Z</time>
      </trkpt>
      <trkpt lat="48.30028" lon="-4.1845">
        <ele>34.9</ele>
        <time>2020-06-08T14:36:57Z</time>
      </trkpt>
      <trkpt lat="48.30029" lon="-4.18451">
        <ele>35</ele>
        <time>2020-06-08T14:36:58Z</time>
      </trkpt>
      <trkpt lat="48.30031" lon="-4.18454">
        <ele>35.3</ele>
        <time>2020-06-08T14:36:59Z</time>
      </trkpt>
      <trkpt lat="48.30032" lon="-4.18455">
        <ele>35.3</ele>
        <time>2020-06-08T14:37:00Z</time>
      </trkpt>
      <trkpt lat="48.30035" lon="-4.18456">
        <ele>35.5</ele>
        <time>2020-06-08T14:37:01Z</time>
      </trkpt>
      <trkpt lat="48.30036" lon="-4.18457">
        <ele>35.6</ele>
        <time>2020-06-08T14:37:02Z</time>
      </trkpt>
      <trkpt lat="48.30039" lon="-4.18459">
        <ele>35.8</ele>
        <time>2020-06-08T14:37:03Z</time>
      </trkpt>
      <trkpt lat="48.3004" lon="-4.1846">
        <ele>36.1</ele>
        <time>2020-06-08T14:37:04Z</time>
      </trkpt>
      <trkpt lat="48.30043" lon="-4.18462">
        <ele>36.1</ele>
        <time>2020-06-08T14:37:05Z</time>
      </trkpt>
      <trkpt lat="48.30044" lon="-4.18463">
        <ele>36.1</ele>
        <time>2020-06-08T14:37:06Z</time>
      </trkpt>
      <trkpt lat="48.30046" lon="-4.18466">
        <ele>36.1</ele>
        <time>2020-06-08T14:37:07Z</time>
      </trkpt>
      <trkpt lat="48.30047" lon="-4.18467">
        <ele>36.2</ele>
        <time>2020-06-08T14:37:08Z</time>
      </trkpt>
      <trkpt lat="48.3005" lon="-4.18469">
        <ele>36.4</ele>
        <time>2020-06-08T14:37:09Z</time>
      </trkpt>
      <trkpt lat="48.3005" lon="-4.1847">
        <ele>36.4</ele>
        <time>2020-06-08T14:37:10Z</time>
      </trkpt>
      <trkpt lat="48.30051" lon="-4.18471">
        <ele>36.5</ele>
        <time>2020-06-08T14:37:11Z</time>
      </trkpt>
      <trkpt lat="48.30053" lon="-4.18473">
        <ele>36.6</ele>
        <time>2020-06-08T14:37:12Z</time>
      </trkpt>
      <trkpt lat="48.30055" lon="-4.18477">
        <ele>36.8</ele>
        <time>2020-06-08T14:37:13Z</time>
      </trkpt>
      <trkpt lat="48.30056" lon="-4.18479">
        <ele>36.9</ele>
        <time>2020-06-08T14:37:14Z</time>
      </trkpt>
      <trkpt lat="48.30059" lon="-4.18482">
        <ele>37</ele>
        <time>2020-06-08T14:37:15Z</time>
      </trkpt>
      <trkpt lat="48.30059" lon="-4.18483">
        <ele>37.1</ele>
        <time>2020-06-08T14:37:16Z</time>
      </trkpt>
      <trkpt lat="48.30062" lon="-4.18486">
        <ele>37.2</ele>
        <time>2020-06-08T14:37:17Z</time>
      </trkpt>
      <trkpt lat="48.30065" lon="-4.18489">
        <ele>37.4</ele>
        <time>2020-06-08T14:37:18Z</time>
      </trkpt>
      <trkpt lat="48.30066" lon="-4.18489">
        <ele>37.4</ele>
        <time>2020-06-08T14:37:19Z</time>
      </trkpt>
      <trkpt lat="48.30069" lon="-4.18491">
        <ele>37.5</ele>
        <time>2020-06-08T14:37:20Z</time>
      </trkpt>
      <trkpt lat="48.3007" lon="-4.18492">
        <ele>37.5</ele>
        <time>2020-06-08T14:37:21Z</time>
      </trkpt>
      <trkpt lat="48.30071" lon="-4.18493">
        <ele>37.6</ele>
        <time>2020-06-08T14:37:22Z</time>
      </trkpt>
      <trkpt lat="48.30072" lon="-4.18494">
        <ele>37.6</ele>
        <time>2020-06-08T14:37:23Z</time>
      </trkpt>
      <trkpt lat="48.30073" lon="-4.18495">
        <ele>37.7</ele>
        <time>2020-06-08T14:37:24Z</time>
      </trkpt>
      <trkpt lat="48.30075" lon="-4.18497">
        <ele>37.7</ele>
        <time>2020-06-08T14:37:25Z</time>
      </trkpt>
      <trkpt lat="48.30075" lon="-4.18499">
        <ele>37.7</ele>
        <time>2020-06-08T14:37:26Z</time>
      </trkpt>
      <trkpt lat="48.30076" lon="-4.18501">
        <ele>37.8</ele>
        <time>2020-06-08T14:37:27Z</time>
      </trkpt>
      <trkpt lat="48.30078" lon="-4.18502">
        <ele>37.8</ele>
        <time>2020-06-08T14:37:28Z</time>
      </trkpt>
      <trkpt lat="48.30079" lon="-4.18503">
        <ele>37.9</ele>
        <time>2020-06-08T14:37:29Z</time>
      </trkpt>
      <trkpt lat="48.3008" lon="-4.18503">
        <ele>37.9</ele>
        <time>2020-06-08T14:37:30Z</time>
      </trkpt>
      <trkpt lat="48.30081" lon="-4.18503">
        <ele>37.9</ele>
        <time>2020-06-08T14:37:31Z</time>
      </trkpt>
      <trkpt lat="48.30082" lon="-4.18503">
        <ele>37.9</ele>
        <time>2020-06-08T14:37:32Z</time>
      </trkpt>
      <trkpt lat="48.30082" lon="-4.18503">
        <ele>37.9</ele>
        <time>2020-06-08T14:37:33Z</time>
      </trkpt>
      <trkpt lat="48.30082" lon="-4.18503">
        <ele>37.9</ele>
        <time>2020-06-08T14:37:34Z</time>
      </trkpt>
      <trkpt lat="48.30082" lon="-4.18504">
        <ele>37.9</ele>
        <time>2020-06-08T14:37:35Z</time>
      </trkpt>
      <trkpt lat="48.30082" lon="-4.18503">
        <ele>37.9</ele>
        <time>2020-06-08T14:37:36Z</time>
      </trkpt>
      <trkpt lat="48.30082" lon="-4.18503">
        <ele>38</ele>
        <time>2020-06-08T14:37:37Z</time>
      </trkpt>
      <trkpt lat="48.30082" lon="-4.18503">
        <ele>38</ele>
        <time>2020-06-08T14:37:38Z</time>
      </trkpt>
      <trkpt lat="48.30082" lon="-4.18503">
        <ele>38</ele>
        <time>2020-06-08T14:37:39Z</time>
      </trkpt>
      <trkpt lat="48.30082" lon="-4.18503">
        <ele>38</ele>
        <time>2020-06-08T14:37:40Z</time>
      </trkpt>
      <trkpt lat="48.30083" lon="-4.18503">
        <ele>38</ele>
        <time>2020-06-08T14:37:41Z</time>
      </trkpt>
      <trkpt lat="48.30083" lon="-4.18503">
        <ele>38</ele>
        <time>2020-06-08T14:37:42Z</time>
      </trkpt>
      <trkpt lat="48.30083" lon="-4.18503">
        <ele>38</ele>
        <time>2020-06-08T14:37:43Z</time>
      </trkpt>
      <trkpt lat="48.30087" lon="-4.18509">
        <ele>38.1</ele>
        <time>2020-06-08T14:39:49Z</time>
      </trkpt>
      <trkpt lat="48.30088" lon="-4.1851">
        <ele>38.1</ele>
        <time>2020-06-08T14:39:50Z</time>
      </trkpt>
      <trkpt lat="48.30091" lon="-4.18514">
        <ele>38.1</ele>
        <time>2020-06-08T14:39:51Z</time>
      </trkpt>
      <trkpt lat="48.30091" lon="-4.18516">
        <ele>38.1</ele>
        <time>2020-06-08T14:39:52Z</time>
      </trkpt>
      <trkpt lat="48.30095" lon="-4.1852">
        <ele>38.1</ele>
        <time>2020-06-08T14:39:53Z</time>
      </trkpt>
      <trkpt lat="48.30096" lon="-4.18521">
        <ele>38.1</ele>
        <time>2020-06-08T14:39:54Z</time>
      </trkpt>
      <trkpt lat="48.30098" lon="-4.18524">
        <ele>38.1</ele>
        <time>2020-06-08T14:39:55Z</time>
      </trkpt>
      <trkpt lat="48.30101" lon="-4.18526">
        <ele>38.1</ele>
        <time>2020-06-08T14:39:56Z</time>
      </trkpt>
      <trkpt lat="48.30104" lon="-4.1853">
        <ele>38.1</ele>
        <time>2020-06-08T14:39:57Z</time>
      </trkpt>
      <trkpt lat="48.30105" lon="-4.18531">
        <ele>38.1</ele>
        <time>2020-06-08T14:39:58Z</time>
      </trkpt>
      <trkpt lat="48.30108" lon="-4.18533">
        <ele>38.1</ele>
        <time>2020-06-08T14:39:59Z</time>
      </trkpt>
      <trkpt lat="48.30111" lon="-4.18536">
        <ele>38.1</ele>
        <time>2020-06-08T14:40:00Z</time>
      </trkpt>
      <trkpt lat="48.30112" lon="-4.18538">
        <ele>38.1</ele>
        <time>2020-06-08T14:40:01Z</time>
      </trkpt>
      <trkpt lat="48.30114" lon="-4.18539">
        <ele>38.1</ele>
        <time>2020-06-08T14:40:02Z</time>
      </trkpt>
      <trkpt lat="48.30115" lon="-4.1854">
        <ele>38</ele>
        <time>2020-06-08T14:40:03Z</time>
      </trkpt>
      <trkpt lat="48.30118" lon="-4.18542">
        <ele>38</ele>
        <time>2020-06-08T14:40:04Z</time>
      </trkpt>
      <trkpt lat="48.30119" lon="-4.18543">
        <ele>38</ele>
        <time>2020-06-08T14:40:05Z</time>
      </trkpt>
      <trkpt lat="48.30122" lon="-4.18545">
        <ele>38</ele>
        <time>2020-06-08T14:40:06Z</time>
      </trkpt>
      <trkpt lat="48.30125" lon="-4.18548">
        <ele>38</ele>
        <time>2020-06-08T14:40:07Z</time>
      </trkpt>
      <trkpt lat="48.30128" lon="-4.18551">
        <ele>38</ele>
        <time>2020-06-08T14:40:08Z</time>
      </trkpt>
      <trkpt lat="48.30131" lon="-4.18554">
        <ele>38</ele>
        <time>2020-06-08T14:40:09Z</time>
      </trkpt>
      <trkpt lat="48.30133" lon="-4.18556">
        <ele>38</ele>
        <time>2020-06-08T14:40:10Z</time>
      </trkpt>
      <trkpt lat="48.30136" lon="-4.18559">
        <ele>38</ele>
        <time>2020-06-08T14:40:11Z</time>
      </trkpt>
      <trkpt lat="48.30138" lon="-4.18562">
        <ele>37.9</ele>
        <time>2020-06-08T14:40:12Z</time>
      </trkpt>
      <trkpt lat="48.3014" lon="-4.18565">
        <ele>37.9</ele>
        <time>2020-06-08T14:40:13Z</time>
      </trkpt>
      <trkpt lat="48.30143" lon="-4.18569">
        <ele>37.9</ele>
        <time>2020-06-08T14:40:14Z</time>
      </trkpt>
      <trkpt lat="48.30144" lon="-4.1857">
        <ele>37.9</ele>
        <time>2020-06-08T14:40:15Z</time>
      </trkpt>
      <trkpt lat="48.30146" lon="-4.18573">
        <ele>37.9</ele>
        <time>2020-06-08T14:40:16Z</time>
      </trkpt>
      <trkpt lat="48.30148" lon="-4.18578">
        <ele>37.9</ele>
        <time>2020-06-08T14:40:17Z</time>
      </trkpt>
      <trkpt lat="48.30149" lon="-4.1858">
        <ele>37.8</ele>
        <time>2020-06-08T14:40:18Z</time>
      </trkpt>
      <trkpt lat="48.3015" lon="-4.18584">
        <ele>37.8</ele>
        <time>2020-06-08T14:40:19Z</time>
      </trkpt>
      <trkpt lat="48.30153" lon="-4.18585">
        <ele>37.8</ele>
        <time>2020-06-08T14:40:20Z</time>
      </trkpt>
      <trkpt lat="48.30156" lon="-4.18588">
        <ele>37.8</ele>
        <time>2020-06-08T14:40:21Z</time>
      </trkpt>
      <trkpt lat="48.30157" lon="-4.18589">
        <ele>37.8</ele>
        <time>2020-06-08T14:40:22Z</time>
      </trkpt>
      <trkpt lat="48.3016" lon="-4.18592">
        <ele>37.8</ele>
        <time>2020-06-08T14:40:23Z</time>
      </trkpt>
      <trkpt lat="48.30161" lon="-4.18594">
        <ele>37.8</ele>
        <time>2020-06-08T14:40:24Z</time>
      </trkpt>
      <trkpt lat="48.30164" lon="-4.18597">
        <ele>37.8</ele>
        <time>2020-06-08T14:40:25Z</time>
      </trkpt>
      <trkpt lat="48.30166" lon="-4.18601">
        <ele>37.8</ele>
        <time>2020-06-08T14:40:26Z</time>
      </trkpt>
      <trkpt lat="48.30169" lon="-4.18604">
        <ele>37.8</ele>
        <time>2020-06-08T14:40:27Z</time>
      </trkpt>
      <trkpt lat="48.30172" lon="-4.18608">
        <ele>37.8</ele>
        <time>2020-06-08T14:40:28Z</time>
      </trkpt>
      <trkpt lat="48.30174" lon="-4.1861">
        <ele>37.8</ele>
        <time>2020-06-08T14:40:29Z</time>
      </trkpt>
      <trkpt lat="48.30177" lon="-4.18614">
        <ele>37.8</ele>
        <time>2020-06-08T14:40:30Z</time>
      </trkpt>
      <trkpt lat="48.30179" lon="-4.18617">
        <ele>37.9</ele>
        <time>2020-06-08T14:40:31Z</time>
      </trkpt>
      <trkpt lat="48.3018" lon="-4.18619">
        <ele>37.9</ele>
        <time>2020-06-08T14:40:32Z</time>
      </trkpt>
      <trkpt lat="48.30182" lon="-4.18624">
        <ele>37.9</ele>
        <time>2020-06-08T14:40:33Z</time>
      </trkpt>
      <trkpt lat="48.30183" lon="-4.18625">
        <ele>37.9</ele>
        <time>2020-06-08T14:40:34Z</time>
      </trkpt>
      <trkpt lat="48.30185" lon="-4.18629">
        <ele>37.9</ele>
        <time>2020-06-08T14:40:35Z</time>
      </trkpt>
      <trkpt lat="48.30187" lon="-4.18632">
        <ele>38</ele>
        <time>2020-06-08T14:40:36Z</time>
      </trkpt>
      <trkpt lat="48.30189" lon="-4.18637">
        <ele>38</ele>
        <time>2020-06-08T14:40:37Z</time>
      </trkpt>
      <trkpt lat="48.3019" lon="-4.18638">
        <ele>38</ele>
        <time>2020-06-08T14:40:38Z</time>
      </trkpt>
      <trkpt lat="48.30192" lon="-4.18641">
        <ele>38</ele>
        <time>2020-06-08T14:40:39Z</time>
      </trkpt>
      <trkpt lat="48.30195" lon="-4.18645">
        <ele>38.1</ele>
        <time>2020-06-08T14:40:40Z</time>
      </trkpt>
      <trkpt lat="48.30196" lon="-4.18647">
        <ele>38.1</ele>
        <time>2020-06-08T14:40:41Z</time>
      </trkpt>
      <trkpt lat="48.30199" lon="-4.1865">
        <ele>38.2</ele>
        <time>2020-06-08T14:40:42Z</time>
      </trkpt>
      <trkpt lat="48.30199" lon="-4.18651">
        <ele>38.2</ele>
        <time>2020-06-08T14:40:43Z</time>
      </trkpt>
      <trkpt lat="48.30202" lon="-4.18655">
        <ele>38.2</ele>
        <time>2020-06-08T14:40:44Z</time>
      </trkpt>
      <trkpt lat="48.30202" lon="-4.18657">
        <ele>38.3</ele>
        <time>2020-06-08T14:40:45Z</time>
      </trkpt>
      <trkpt lat="48.30205" lon="-4.18661">
        <ele>38.4</ele>
        <time>2020-06-08T14:40:46Z</time>
      </trkpt>
      <trkpt lat="48.30206" lon="-4.18662">
        <ele>38.4</ele>
        <time>2020-06-08T14:40:47Z</time>
      </trkpt>
      <trkpt lat="48.30207" lon="-4.18666">
        <ele>38.5</ele>
        <time>2020-06-08T14:40:48Z</time>
      </trkpt>
      <trkpt lat="48.30209" lon="-4.18671">
        <ele>38.6</ele>
        <time>2020-06-08T14:40:49Z</time>
      </trkpt>
      <trkpt lat="48.3021" lon="-4.18673">
        <ele>38.7</ele>
        <time>2020-06-08T14:40:50Z</time>
      </trkpt>
      <trkpt lat="48.30212" lon="-4.18676">
        <ele>38.8</ele>
        <time>2020-06-08T14:40:51Z</time>
      </trkpt>
      <trkpt lat="48.30214" lon="-4.1868">
        <ele>38.9</ele>
        <time>2020-06-08T14:40:52Z</time>
      </trkpt>
      <trkpt lat="48.30217" lon="-4.18683">
        <ele>39.1</ele>
        <time>2020-06-08T14:40:53Z</time>
      </trkpt>
      <trkpt lat="48.30219" lon="-4.18687">
        <ele>39.2</ele>
        <time>2020-06-08T14:40:54Z</time>
      </trkpt>
      <trkpt lat="48.30221" lon="-4.1869">
        <ele>39.4</ele>
        <time>2020-06-08T14:40:55Z</time>
      </trkpt>
      <trkpt lat="48.30223" lon="-4.18693">
        <ele>39.5</ele>
        <time>2020-06-08T14:40:56Z</time>
      </trkpt>
      <trkpt lat="48.30225" lon="-4.18696">
        <ele>39.7</ele>
        <time>2020-06-08T14:40:57Z</time>
      </trkpt>
      <trkpt lat="48.30227" lon="-4.18699">
        <ele>39.9</ele>
        <time>2020-06-08T14:40:58Z</time>
      </trkpt>
      <trkpt lat="48.3023" lon="-4.18702">
        <ele>40</ele>
        <time>2020-06-08T14:40:59Z</time>
      </trkpt>
      <trkpt lat="48.30231" lon="-4.18706">
        <ele>40.2</ele>
        <time>2020-06-08T14:41:00Z</time>
      </trkpt>
      <trkpt lat="48.30233" lon="-4.1871">
        <ele>40.4</ele>
        <time>2020-06-08T14:41:01Z</time>
      </trkpt>
      <trkpt lat="48.30234" lon="-4.18711">
        <ele>40.5</ele>
        <time>2020-06-08T14:41:02Z</time>
      </trkpt>
      <trkpt lat="48.30237" lon="-4.18714">
        <ele>40.7</ele>
        <time>2020-06-08T14:41:03Z</time>
      </trkpt>
      <trkpt lat="48.30238" lon="-4.18715">
        <ele>40.8</ele>
        <time>2020-06-08T14:41:04Z</time>
      </trkpt>
      <trkpt lat="48.3024" lon="-4.18718">
        <ele>41</ele>
        <time>2020-06-08T14:41:05Z</time>
      </trkpt>
      <trkpt lat="48.30242" lon="-4.18721">
        <ele>41.2</ele>
        <time>2020-06-08T14:41:06Z</time>
      </trkpt>
      <trkpt lat="48.30244" lon="-4.18725">
        <ele>41.4</ele>
        <time>2020-06-08T14:41:07Z</time>
      </trkpt>
      <trkpt lat="48.30247" lon="-4.18729">
        <ele>41.6</ele>
        <time>2020-06-08T14:41:08Z</time>
      </trkpt>
      <trkpt lat="48.30249" lon="-4.18732">
        <ele>41.8</ele>
        <time>2020-06-08T14:41:09Z</time>
      </trkpt>
      <trkpt lat="48.30252" lon="-4.18736">
        <ele>42</ele>
        <time>2020-06-08T14:41:10Z</time>
      </trkpt>
      <trkpt lat="48.30254" lon="-4.18739">
        <ele>42.3</ele>
        <time>2020-06-08T14:41:11Z</time>
      </trkpt>
      <trkpt lat="48.30256" lon="-4.18743">
        <ele>42.5</ele>
        <time>2020-06-08T14:41:12Z</time>
      </trkpt>
      <trkpt lat="48.30258" lon="-4.18747">
        <ele>42.7</ele>
        <time>2020-06-08T14:41:13Z</time>
      </trkpt>
      <trkpt lat="48.30261" lon="-4.18751">
        <ele>42.9</ele>
        <time>2020-06-08T14:41:14Z</time>
      </trkpt>
      <trkpt lat="48.30264" lon="-4.18755">
        <ele>43.1</ele>
        <time>2020-06-08T14:41:15Z</time>
      </trkpt>
      <trkpt lat="48.30267" lon="-4.18757">
        <ele>43.3</ele>
        <time>2020-06-08T14:41:16Z</time>
      </trkpt>
      <trkpt lat="48.30269" lon="-4.1876">
        <ele>43.5</ele>
        <time>2020-06-08T14:41:17Z</time>
      </trkpt>
      <trkpt lat="48.30271" lon="-4.18762">
        <ele>43.6</ele>
        <time>2020-06-08T14:41:18Z</time>
      </trkpt>
      <trkpt lat="48.30275" lon="-4.18764">
        <ele>43.8</ele>
        <time>2020-06-08T14:41:19Z</time>
      </trkpt>
      <trkpt lat="48.30277" lon="-4.18767">
        <ele>44</ele>
        <time>2020-06-08T14:41:20Z</time>
      </trkpt>
      <trkpt lat="48.3028" lon="-4.1877">
        <ele>44.2</ele>
        <time>2020-06-08T14:41:21Z</time>
      </trkpt>
      <trkpt lat="48.30283" lon="-4.18773">
        <ele>44.4</ele>
        <time>2020-06-08T14:41:22Z</time>
      </trkpt>
      <trkpt lat="48.30285" lon="-4.18776">
        <ele>44.6</ele>
        <time>2020-06-08T14:41:23Z</time>
      </trkpt>
      <trkpt lat="48.30287" lon="-4.18779">
        <ele>44.8</ele>
        <time>2020-06-08T14:41:24Z</time>
      </trkpt>
      <trkpt lat="48.3029" lon="-4.18781">
        <ele>44.9</ele>
        <time>2020-06-08T14:41:25Z</time>
      </trkpt>
      <trkpt lat="48.30293" lon="-4.18785">
        <ele>45.1</ele>
        <time>2020-06-08T14:41:26Z</time>
      </trkpt>
      <trkpt lat="48.30295" lon="-4.18787">
        <ele>45.2</ele>
        <time>2020-06-08T14:41:27Z</time>
      </trkpt>
      <trkpt lat="48.30297" lon="-4.1879">
        <ele>45.3</ele>
        <time>2020-06-08T14:41:28Z</time>
      </trkpt>
      <trkpt lat="48.30301" lon="-4.18792">
        <ele>45.5</ele>
        <time>2020-06-08T14:41:29Z</time>
      </trkpt>
      <trkpt lat="48.30302" lon="-4.18793">
        <ele>45.5</ele>
        <time>2020-06-08T14:41:30Z</time>
      </trkpt>
      <trkpt lat="48.30305" lon="-4.18796">
        <ele>45.6</ele>
        <time>2020-06-08T14:41:31Z</time>
      </trkpt>
      <trkpt lat="48.30307" lon="-4.188">
        <ele>45.8</ele>
        <time>2020-06-08T14:41:32Z</time>
      </trkpt>
      <trkpt lat="48.3031" lon="-4.18803">
        <ele>45.8</ele>
        <time>2020-06-08T14:41:33Z</time>
      </trkpt>
      <trkpt lat="48.30312" lon="-4.18805">
        <ele>45.9</ele>
        <time>2020-06-08T14:41:34Z</time>
      </trkpt>
      <trkpt lat="48.30315" lon="-4.18807">
        <ele>46</ele>
        <time>2020-06-08T14:41:35Z</time>
      </trkpt>
      <trkpt lat="48.30318" lon="-4.18809">
        <ele>46.1</ele>
        <time>2020-06-08T14:41:36Z</time>
      </trkpt>
      <trkpt lat="48.30319" lon="-4.1881">
        <ele>46.1</ele>
        <time>2020-06-08T14:41:37Z</time>
      </trkpt>
      <trkpt lat="48.30323" lon="-4.18813">
        <ele>46.1</ele>
        <time>2020-06-08T14:41:38Z</time>
      </trkpt>
      <trkpt lat="48.30324" lon="-4.18813">
        <ele>46.2</ele>
        <time>2020-06-08T14:41:39Z</time>
      </trkpt>
      <trkpt lat="48.30327" lon="-4.18814">
        <ele>46.2</ele>
        <time>2020-06-08T14:41:40Z</time>
      </trkpt>
      <trkpt lat="48.30329" lon="-4.18817">
        <ele>46.2</ele>
        <time>2020-06-08T14:41:41Z</time>
      </trkpt>
      <trkpt lat="48.30332" lon="-4.18819">
        <ele>46.3</ele>
        <time>2020-06-08T14:41:42Z</time>
      </trkpt>
      <trkpt lat="48.30335" lon="-4.18821">
        <ele>46.3</ele>
        <time>2020-06-08T14:41:43Z</time>
      </trkpt>
      <trkpt lat="48.30338" lon="-4.18824">
        <ele>46.3</ele>
        <time>2020-06-08T14:41:44Z</time>
      </trkpt>
      <trkpt lat="48.30341" lon="-4.18828">
        <ele>46.4</ele>
        <time>2020-06-08T14:41:45Z</time>
      </trkpt>
      <trkpt lat="48.30342" lon="-4.18829">
        <ele>46.4</ele>
        <time>2020-06-08T14:41:46Z</time>
      </trkpt>
      <trkpt lat="48.30344" lon="-4.18832">
        <ele>46.4</ele>
        <time>2020-06-08T14:41:47Z</time>
      </trkpt>
      <trkpt lat="48.30347" lon="-4.18833">
        <ele>46.5</ele>
        <time>2020-06-08T14:41:48Z</time>
      </trkpt>
      <trkpt lat="48.30351" lon="-4.18836">
        <ele>46.5</ele>
        <time>2020-06-08T14:41:49Z</time>
      </trkpt>
      <trkpt lat="48.30352" lon="-4.18837">
        <ele>46.6</ele>
        <time>2020-06-08T14:41:50Z</time>
      </trkpt>
      <trkpt lat="48.30354" lon="-4.18839">
        <ele>46.7</ele>
        <time>2020-06-08T14:41:51Z</time>
      </trkpt>
      <trkpt lat="48.30358" lon="-4.18842">
        <ele>46.8</ele>
        <time>2020-06-08T14:41:52Z</time>
      </trkpt>
      <trkpt lat="48.3036" lon="-4.18845">
        <ele>46.8</ele>
        <time>2020-06-08T14:41:53Z</time>
      </trkpt>
      <trkpt lat="48.30364" lon="-4.18847">
        <ele>46.9</ele>
        <time>2020-06-08T14:41:54Z</time>
      </trkpt>
      <trkpt lat="48.30366" lon="-4.18852">
        <ele>46.9</ele>
        <time>2020-06-08T14:41:55Z</time>
      </trkpt>
      <trkpt lat="48.30369" lon="-4.18855">
        <ele>46.9</ele>
        <time>2020-06-08T14:41:56Z</time>
      </trkpt>
      <trkpt lat="48.30372" lon="-4.18858">
        <ele>46.9</ele>
        <time>2020-06-08T14:41:57Z</time>
      </trkpt>
      <trkpt lat="48.30375" lon="-4.1886">
        <ele>46.9</ele>
        <time>2020-06-08T14:41:58Z</time>
      </trkpt>
      <trkpt lat="48.30378" lon="-4.18863">
        <ele>46.9</ele>
        <time>2020-06-08T14:41:59Z</time>
      </trkpt>
      <trkpt lat="48.3038" lon="-4.18865">
        <ele>46.9</ele>
        <time>2020-06-08T14:42:00Z</time>
      </trkpt>
      <trkpt lat="48.30384" lon="-4.18867">
        <ele>46.9</ele>
        <time>2020-06-08T14:42:01Z</time>
      </trkpt>
      <trkpt lat="48.30387" lon="-4.1887">
        <ele>46.9</ele>
        <time>2020-06-08T14:42:02Z</time>
      </trkpt>
      <trkpt lat="48.30388" lon="-4.18871">
        <ele>46.9</ele>
        <time>2020-06-08T14:42:03Z</time>
      </trkpt>
      <trkpt lat="48.30391" lon="-4.18872">
        <ele>46.9</ele>
        <time>2020-06-08T14:42:04Z</time>
      </trkpt>
      <trkpt lat="48.30394" lon="-4.18873">
        <ele>46.9</ele>
        <time>2020-06-08T14:42:05Z</time>
      </trkpt>
      <trkpt lat="48.30396" lon="-4.18876">
        <ele>46.8</ele>
        <time>2020-06-08T14:42:06Z</time>
      </trkpt>
      <trkpt lat="48.30399" lon="-4.18879">
        <ele>46.8</ele>
        <time>2020-06-08T14:42:07Z</time>
      </trkpt>
      <trkpt lat="48.30401" lon="-4.18881">
        <ele>46.8</ele>
        <time>2020-06-08T14:42:08Z</time>
      </trkpt>
      <trkpt lat="48.30404" lon="-4.18883">
        <ele>46.8</ele>
        <time>2020-06-08T14:42:09Z</time>
      </trkpt>
      <trkpt lat="48.30406" lon="-4.18886">
        <ele>46.8</ele>
        <time>2020-06-08T14:42:10Z</time>
      </trkpt>
      <trkpt lat="48.30409" lon="-4.18889">
        <ele>46.8</ele>
        <time>2020-06-08T14:42:11Z</time>
      </trkpt>
      <trkpt lat="48.30411" lon="-4.18891">
        <ele>46.8</ele>
        <time>2020-06-08T14:42:12Z</time>
      </trkpt>
      <trkpt lat="48.30414" lon="-4.18893">
        <ele>46.8</ele>
        <time>2020-06-08T14:42:13Z</time>
      </trkpt>
      <trkpt lat="48.30416" lon="-4.18895">
        <ele>46.8</ele>
        <time>2020-06-08T14:42:14Z</time>
      </trkpt>
      <trkpt lat="48.30419" lon="-4.18898">
        <ele>46.8</ele>
        <time>2020-06-08T14:42:15Z</time>
      </trkpt>
      <trkpt lat="48.30423" lon="-4.18901">
        <ele>46.8</ele>
        <time>2020-06-08T14:42:16Z</time>
      </trkpt>
      <trkpt lat="48.30426" lon="-4.18905">
        <ele>46.8</ele>
        <time>2020-06-08T14:42:17Z</time>
      </trkpt>
      <trkpt lat="48.30428" lon="-4.18907">
        <ele>46.8</ele>
        <time>2020-06-08T14:42:18Z</time>
      </trkpt>
      <trkpt lat="48.30431" lon="-4.18909">
        <ele>46.8</ele>
        <time>2020-06-08T14:42:19Z</time>
      </trkpt>
      <trkpt lat="48.30433" lon="-4.18912">
        <ele>46.8</ele>
        <time>2020-06-08T14:42:20Z</time>
      </trkpt>
      <trkpt lat="48.30436" lon="-4.18914">
        <ele>46.8</ele>
        <time>2020-06-08T14:42:21Z</time>
      </trkpt>
      <trkpt lat="48.30438" lon="-4.18917">
        <ele>46.8</ele>
        <time>2020-06-08T14:42:22Z</time>
      </trkpt>
      <trkpt lat="48.3044" lon="-4.1892">
        <ele>46.9</ele>
        <time>2020-06-08T14:42:23Z</time>
      </trkpt>
      <trkpt lat="48.30442" lon="-4.18921">
        <ele>46.9</ele>
        <time>2020-06-08T14:42:24Z</time>
      </trkpt>
      <trkpt lat="48.30443" lon="-4.18921">
        <ele>46.9</ele>
        <time>2020-06-08T14:42:25Z</time>
      </trkpt>
      <trkpt lat="48.30444" lon="-4.18923">
        <ele>46.9</ele>
        <time>2020-06-08T14:42:26Z</time>
      </trkpt>
      <trkpt lat="48.30445" lon="-4.18923">
        <ele>46.9</ele>
        <time>2020-06-08T14:42:27Z</time>
      </trkpt>
      <trkpt lat="48.30445" lon="-4.18923">
        <ele>46.9</ele>
        <time>2020-06-08T14:42:28Z</time>
      </trkpt>
      <trkpt lat="48.30445" lon="-4.18924">
        <ele>46.9</ele>
        <time>2020-06-08T14:42:29Z</time>
      </trkpt>
      <trkpt lat="48.30446" lon="-4.18925">
        <ele>46.9</ele>
        <time>2020-06-08T14:42:30Z</time>
      </trkpt>
      <trkpt lat="48.30447" lon="-4.18928">
        <ele>46.9</ele>
        <time>2020-06-08T14:42:31Z</time>
      </trkpt>
      <trkpt lat="48.30447" lon="-4.18929">
        <ele>46.9</ele>
        <time>2020-06-08T14:42:32Z</time>
      </trkpt>
      <trkpt lat="48.30447" lon="-4.18931">
        <ele>46.9</ele>
        <time>2020-06-08T14:42:33Z</time>
      </trkpt>
      <trkpt lat="48.30447" lon="-4.18938">
        <ele>47</ele>
        <time>2020-06-08T14:42:34Z</time>
      </trkpt>
      <trkpt lat="48.30446" lon="-4.18941">
        <ele>46.8</ele>
        <time>2020-06-08T14:42:35Z</time>
      </trkpt>
      <trkpt lat="48.30445" lon="-4.18947">
        <ele>46.4</ele>
        <time>2020-06-08T14:42:36Z</time>
      </trkpt>
      <trkpt lat="48.30443" lon="-4.18952">
        <ele>46</ele>
        <time>2020-06-08T14:42:37Z</time>
      </trkpt>
      <trkpt lat="48.30441" lon="-4.18958">
        <ele>45.5</ele>
        <time>2020-06-08T14:42:38Z</time>
      </trkpt>
      <trkpt lat="48.30439" lon="-4.18965">
        <ele>45</ele>
        <time>2020-06-08T14:42:39Z</time>
      </trkpt>
      <trkpt lat="48.30438" lon="-4.18973">
        <ele>44.5</ele>
        <time>2020-06-08T14:42:40Z</time>
      </trkpt>
      <trkpt lat="48.30436" lon="-4.18981">
        <ele>44</ele>
        <time>2020-06-08T14:42:41Z</time>
      </trkpt>
      <trkpt lat="48.30434" lon="-4.18989">
        <ele>43.8</ele>
        <time>2020-06-08T14:42:42Z</time>
      </trkpt>
      <trkpt lat="48.30433" lon="-4.18997">
        <ele>43.6</ele>
        <time>2020-06-08T14:42:43Z</time>
      </trkpt>
      <trkpt lat="48.30432" lon="-4.19006">
        <ele>43.3</ele>
        <time>2020-06-08T14:42:44Z</time>
      </trkpt>
      <trkpt lat="48.30433" lon="-4.19015">
        <ele>43.1</ele>
        <time>2020-06-08T14:42:45Z</time>
      </trkpt>
      <trkpt lat="48.30435" lon="-4.19025">
        <ele>42.9</ele>
        <time>2020-06-08T14:42:46Z</time>
      </trkpt>
      <trkpt lat="48.30438" lon="-4.19034">
        <ele>42.7</ele>
        <time>2020-06-08T14:42:47Z</time>
      </trkpt>
      <trkpt lat="48.30442" lon="-4.19043">
        <ele>42.5</ele>
        <time>2020-06-08T14:42:48Z</time>
      </trkpt>
      <trkpt lat="48.30446" lon="-4.19052">
        <ele>42.4</ele>
        <time>2020-06-08T14:42:49Z</time>
      </trkpt>
      <trkpt lat="48.3045" lon="-4.1906">
        <ele>42.4</ele>
        <time>2020-06-08T14:42:50Z</time>
      </trkpt>
      <trkpt lat="48.30454" lon="-4.19068">
        <ele>42.5</ele>
        <time>2020-06-08T14:42:51Z</time>
      </trkpt>
      <trkpt lat="48.30459" lon="-4.19075">
        <ele>42.5</ele>
        <time>2020-06-08T14:42:52Z</time>
      </trkpt>
      <trkpt lat="48.30463" lon="-4.19083">
        <ele>42.6</ele>
        <time>2020-06-08T14:42:53Z</time>
      </trkpt>
      <trkpt lat="48.30467" lon="-4.1909">
        <ele>42.7</ele>
        <time>2020-06-08T14:42:54Z</time>
      </trkpt>
      <trkpt lat="48.3047" lon="-4.19095">
        <ele>42.7</ele>
        <time>2020-06-08T14:42:55Z</time>
      </trkpt>
      <trkpt lat="48.30475" lon="-4.19101">
        <ele>42.8</ele>
        <time>2020-06-08T14:42:56Z</time>
      </trkpt>
      <trkpt lat="48.30479" lon="-4.19107">
        <ele>42.8</ele>
        <time>2020-06-08T14:42:57Z</time>
      </trkpt>
      <trkpt lat="48.30481" lon="-4.1911">
        <ele>42.9</ele>
        <time>2020-06-08T14:42:58Z</time>
      </trkpt>
      <trkpt lat="48.30484" lon="-4.19115">
        <ele>43</ele>
        <time>2020-06-08T14:42:59Z</time>
      </trkpt>
      <trkpt lat="48.30486" lon="-4.19118">
        <ele>43</ele>
        <time>2020-06-08T14:43:00Z</time>
      </trkpt>
      <trkpt lat="48.30488" lon="-4.19123">
        <ele>43.1</ele>
        <time>2020-06-08T14:43:01Z</time>
      </trkpt>
      <trkpt lat="48.3049" lon="-4.19127">
        <ele>43.2</ele>
        <time>2020-06-08T14:43:02Z</time>
      </trkpt>
      <trkpt lat="48.30492" lon="-4.19131">
        <ele>43.2</ele>
        <time>2020-06-08T14:43:03Z</time>
      </trkpt>
      <trkpt lat="48.30494" lon="-4.19134">
        <ele>43.3</ele>
        <time>2020-06-08T14:43:04Z</time>
      </trkpt>
      <trkpt lat="48.30495" lon="-4.19139">
        <ele>43.4</ele>
        <time>2020-06-08T14:43:05Z</time>
      </trkpt>
      <trkpt lat="48.30497" lon="-4.19143">
        <ele>43.5</ele>
        <time>2020-06-08T14:43:06Z</time>
      </trkpt>
      <trkpt lat="48.30499" lon="-4.19147">
        <ele>43.6</ele>
        <time>2020-06-08T14:43:07Z</time>
      </trkpt>
      <trkpt lat="48.30501" lon="-4.19151">
        <ele>43.7</ele>
        <time>2020-06-08T14:43:08Z</time>
      </trkpt>
      <trkpt lat="48.30502" lon="-4.19154">
        <ele>43.8</ele>
        <time>2020-06-08T14:43:09Z</time>
      </trkpt>
      <trkpt lat="48.30504" lon="-4.19157">
        <ele>43.9</ele>
        <time>2020-06-08T14:43:10Z</time>
      </trkpt>
      <trkpt lat="48.30506" lon="-4.19161">
        <ele>44</ele>
        <time>2020-06-08T14:43:11Z</time>
      </trkpt>
      <trkpt lat="48.30508" lon="-4.19164">
        <ele>44.1</ele>
        <time>2020-06-08T14:43:12Z</time>
      </trkpt>
      <trkpt lat="48.3051" lon="-4.19168">
        <ele>44.2</ele>
        <time>2020-06-08T14:43:13Z</time>
      </trkpt>
      <trkpt lat="48.30513" lon="-4.1917">
        <ele>44.3</ele>
        <time>2020-06-08T14:43:14Z</time>
      </trkpt>
      <trkpt lat="48.30515" lon="-4.19173">
        <ele>44.5</ele>
        <time>2020-06-08T14:43:15Z</time>
      </trkpt>
      <trkpt lat="48.30518" lon="-4.19176">
        <ele>44.6</ele>
        <time>2020-06-08T14:43:16Z</time>
      </trkpt>
      <trkpt lat="48.3052" lon="-4.19178">
        <ele>44.7</ele>
        <time>2020-06-08T14:43:17Z</time>
      </trkpt>
      <trkpt lat="48.30523" lon="-4.19181">
        <ele>44.8</ele>
        <time>2020-06-08T14:43:18Z</time>
      </trkpt>
      <trkpt lat="48.30525" lon="-4.19184">
        <ele>44.9</ele>
        <time>2020-06-08T14:43:19Z</time>
      </trkpt>
      <trkpt lat="48.30528" lon="-4.19187">
        <ele>45.1</ele>
        <time>2020-06-08T14:43:20Z</time>
      </trkpt>
      <trkpt lat="48.3053" lon="-4.1919">
        <ele>45.2</ele>
        <time>2020-06-08T14:43:21Z</time>
      </trkpt>
      <trkpt lat="48.30532" lon="-4.19194">
        <ele>45.3</ele>
        <time>2020-06-08T14:43:22Z</time>
      </trkpt>
      <trkpt lat="48.30535" lon="-4.19197">
        <ele>45.5</ele>
        <time>2020-06-08T14:43:23Z</time>
      </trkpt>
      <trkpt lat="48.30537" lon="-4.19201">
        <ele>45.7</ele>
        <time>2020-06-08T14:43:24Z</time>
      </trkpt>
      <trkpt lat="48.30539" lon="-4.19204">
        <ele>45.8</ele>
        <time>2020-06-08T14:43:25Z</time>
      </trkpt>
      <trkpt lat="48.30542" lon="-4.19208">
        <ele>45.9</ele>
        <time>2020-06-08T14:43:26Z</time>
      </trkpt>
      <trkpt lat="48.30544" lon="-4.19212">
        <ele>46.1</ele>
        <time>2020-06-08T14:43:27Z</time>
      </trkpt>
      <trkpt lat="48.30546" lon="-4.19215">
        <ele>46.2</ele>
        <time>2020-06-08T14:43:28Z</time>
      </trkpt>
      <trkpt lat="48.30548" lon="-4.1922">
        <ele>46.4</ele>
        <time>2020-06-08T14:43:29Z</time>
      </trkpt>
      <trkpt lat="48.30551" lon="-4.19225">
        <ele>46.7</ele>
        <time>2020-06-08T14:43:30Z</time>
      </trkpt>
      <trkpt lat="48.30552" lon="-4.19227">
        <ele>46.8</ele>
        <time>2020-06-08T14:43:31Z</time>
      </trkpt>
      <trkpt lat="48.30555" lon="-4.19231">
        <ele>47</ele>
        <time>2020-06-08T14:43:32Z</time>
      </trkpt>
      <trkpt lat="48.30555" lon="-4.19233">
        <ele>47.1</ele>
        <time>2020-06-08T14:43:33Z</time>
      </trkpt>
      <trkpt lat="48.30558" lon="-4.19237">
        <ele>47.3</ele>
        <time>2020-06-08T14:43:34Z</time>
      </trkpt>
      <trkpt lat="48.3056" lon="-4.19241">
        <ele>47.5</ele>
        <time>2020-06-08T14:43:35Z</time>
      </trkpt>
      <trkpt lat="48.30561" lon="-4.19242">
        <ele>47.6</ele>
        <time>2020-06-08T14:43:36Z</time>
      </trkpt>
      <trkpt lat="48.30563" lon="-4.19244">
        <ele>47.7</ele>
        <time>2020-06-08T14:43:37Z</time>
      </trkpt>
      <trkpt lat="48.30567" lon="-4.19247">
        <ele>48</ele>
        <time>2020-06-08T14:43:38Z</time>
      </trkpt>
      <trkpt lat="48.3057" lon="-4.19251">
        <ele>48.2</ele>
        <time>2020-06-08T14:43:39Z</time>
      </trkpt>
      <trkpt lat="48.30571" lon="-4.19254">
        <ele>48.4</ele>
        <time>2020-06-08T14:43:40Z</time>
      </trkpt>
      <trkpt lat="48.30574" lon="-4.19258">
        <ele>48.5</ele>
        <time>2020-06-08T14:43:41Z</time>
      </trkpt>
      <trkpt lat="48.30576" lon="-4.1926">
        <ele>48.7</ele>
        <time>2020-06-08T14:43:42Z</time>
      </trkpt>
      <trkpt lat="48.30579" lon="-4.19262">
        <ele>48.9</ele>
        <time>2020-06-08T14:43:43Z</time>
      </trkpt>
      <trkpt lat="48.3058" lon="-4.19263">
        <ele>48.9</ele>
        <time>2020-06-08T14:43:44Z</time>
      </trkpt>
      <trkpt lat="48.30583" lon="-4.19266">
        <ele>49.1</ele>
        <time>2020-06-08T14:43:45Z</time>
      </trkpt>
      <trkpt lat="48.30585" lon="-4.19268">
        <ele>49.3</ele>
        <time>2020-06-08T14:43:46Z</time>
      </trkpt>
      <trkpt lat="48.30588" lon="-4.19272">
        <ele>49.5</ele>
        <time>2020-06-08T14:43:47Z</time>
      </trkpt>
      <trkpt lat="48.30589" lon="-4.19273">
        <ele>49.6</ele>
        <time>2020-06-08T14:43:48Z</time>
      </trkpt>
      <trkpt lat="48.30592" lon="-4.19275">
        <ele>49.7</ele>
        <time>2020-06-08T14:43:49Z</time>
      </trkpt>
      <trkpt lat="48.30595" lon="-4.19278">
        <ele>49.9</ele>
        <time>2020-06-08T14:43:50Z</time>
      </trkpt>
      <trkpt lat="48.30598" lon="-4.1928">
        <ele>50.2</ele>
        <time>2020-06-08T14:43:51Z</time>
      </trkpt>
      <trkpt lat="48.306" lon="-4.19281">
        <ele>50.4</ele>
        <time>2020-06-08T14:43:52Z</time>
      </trkpt>
      <trkpt lat="48.30603" lon="-4.19284">
        <ele>50.6</ele>
        <time>2020-06-08T14:43:53Z</time>
      </trkpt>
      <trkpt lat="48.30604" lon="-4.19286">
        <ele>50.7</ele>
        <time>2020-06-08T14:43:54Z</time>
      </trkpt>
      <trkpt lat="48.30605" lon="-4.19288">
        <ele>50.9</ele>
        <time>2020-06-08T14:43:55Z</time>
      </trkpt>
      <trkpt lat="48.30607" lon="-4.19291">
        <ele>51.1</ele>
        <time>2020-06-08T14:43:56Z</time>
      </trkpt>
      <trkpt lat="48.30609" lon="-4.19293">
        <ele>51.3</ele>
        <time>2020-06-08T14:43:57Z</time>
      </trkpt>
      <trkpt lat="48.30612" lon="-4.19296">
        <ele>51.5</ele>
        <time>2020-06-08T14:43:58Z</time>
      </trkpt>
      <trkpt lat="48.30613" lon="-4.19297">
        <ele>51.6</ele>
        <time>2020-06-08T14:43:59Z</time>
      </trkpt>
      <trkpt lat="48.30616" lon="-4.19299">
        <ele>51.8</ele>
        <time>2020-06-08T14:44:00Z</time>
      </trkpt>
      <trkpt lat="48.3062" lon="-4.19303">
        <ele>52.1</ele>
        <time>2020-06-08T14:44:01Z</time>
      </trkpt>
      <trkpt lat="48.3062" lon="-4.19304">
        <ele>52.2</ele>
        <time>2020-06-08T14:44:02Z</time>
      </trkpt>
      <trkpt lat="48.30622" lon="-4.19306">
        <ele>52.3</ele>
        <time>2020-06-08T14:44:03Z</time>
      </trkpt>
      <trkpt lat="48.30623" lon="-4.19307">
        <ele>52.4</ele>
        <time>2020-06-08T14:44:04Z</time>
      </trkpt>
      <trkpt lat="48.30626" lon="-4.19309">
        <ele>52.6</ele>
        <time>2020-06-08T14:44:05Z</time>
      </trkpt>
      <trkpt lat="48.30627" lon="-4.1931">
        <ele>52.6</ele>
        <time>2020-06-08T14:44:06Z</time>
      </trkpt>
      <trkpt lat="48.30629" lon="-4.19313">
        <ele>52.8</ele>
        <time>2020-06-08T14:44:07Z</time>
      </trkpt>
      <trkpt lat="48.3063" lon="-4.19314">
        <ele>52.9</ele>
        <time>2020-06-08T14:44:08Z</time>
      </trkpt>
      <trkpt lat="48.30632" lon="-4.19317">
        <ele>53.2</ele>
        <time>2020-06-08T14:44:09Z</time>
      </trkpt>
      <trkpt lat="48.30635" lon="-4.19321">
        <ele>53.5</ele>
        <time>2020-06-08T14:44:10Z</time>
      </trkpt>
      <trkpt lat="48.30637" lon="-4.19323">
        <ele>53.6</ele>
        <time>2020-06-08T14:44:11Z</time>
      </trkpt>
      <trkpt lat="48.30639" lon="-4.19324">
        <ele>53.8</ele>
        <time>2020-06-08T14:44:12Z</time>
      </trkpt>
      <trkpt lat="48.30642" lon="-4.19328">
        <ele>54</ele>
        <time>2020-06-08T14:44:13Z</time>
      </trkpt>
      <trkpt lat="48.30643" lon="-4.19329">
        <ele>54</ele>
        <time>2020-06-08T14:44:14Z</time>
      </trkpt>
      <trkpt lat="48.30647" lon="-4.19332">
        <ele>54.3</ele>
        <time>2020-06-08T14:44:15Z</time>
      </trkpt>
      <trkpt lat="48.3065" lon="-4.19336">
        <ele>54.5</ele>
        <time>2020-06-08T14:44:16Z</time>
      </trkpt>
      <trkpt lat="48.30651" lon="-4.19337">
        <ele>54.5</ele>
        <time>2020-06-08T14:44:17Z</time>
      </trkpt>
      <trkpt lat="48.30652" lon="-4.19337">
        <ele>54.6</ele>
        <time>2020-06-08T14:44:18Z</time>
      </trkpt>
      <trkpt lat="48.30654" lon="-4.19339">
        <ele>54.7</ele>
        <time>2020-06-08T14:44:19Z</time>
      </trkpt>
      <trkpt lat="48.30657" lon="-4.19342">
        <ele>54.8</ele>
        <time>2020-06-08T14:44:20Z</time>
      </trkpt>
      <trkpt lat="48.30659" lon="-4.19345">
        <ele>55</ele>
        <time>2020-06-08T14:44:21Z</time>
      </trkpt>
      <trkpt lat="48.30663" lon="-4.19348">
        <ele>55.1</ele>
        <time>2020-06-08T14:44:22Z</time>
      </trkpt>
      <trkpt lat="48.30664" lon="-4.1935">
        <ele>55.2</ele>
        <time>2020-06-08T14:44:23Z</time>
      </trkpt>
      <trkpt lat="48.30667" lon="-4.19353">
        <ele>55.4</ele>
        <time>2020-06-08T14:44:24Z</time>
      </trkpt>
      <trkpt lat="48.30669" lon="-4.19355">
        <ele>55.4</ele>
        <time>2020-06-08T14:44:25Z</time>
      </trkpt>
      <trkpt lat="48.30671" lon="-4.19356">
        <ele>55.5</ele>
        <time>2020-06-08T14:44:26Z</time>
      </trkpt>
      <trkpt lat="48.30672" lon="-4.19357">
        <ele>55.6</ele>
        <time>2020-06-08T14:44:27Z</time>
      </trkpt>
      <trkpt lat="48.30675" lon="-4.1936">
        <ele>55.7</ele>
        <time>2020-06-08T14:44:28Z</time>
      </trkpt>
      <trkpt lat="48.30676" lon="-4.19361">
        <ele>55.7</ele>
        <time>2020-06-08T14:44:29Z</time>
      </trkpt>
      <trkpt lat="48.30679" lon="-4.19364">
        <ele>55.8</ele>
        <time>2020-06-08T14:44:30Z</time>
      </trkpt>
      <trkpt lat="48.30681" lon="-4.19366">
        <ele>55.9</ele>
        <time>2020-06-08T14:44:31Z</time>
      </trkpt>
      <trkpt lat="48.30685" lon="-4.19369">
        <ele>56.1</ele>
        <time>2020-06-08T14:44:32Z</time>
      </trkpt>
      <trkpt lat="48.30686" lon="-4.19371">
        <ele>56.1</ele>
        <time>2020-06-08T14:44:33Z</time>
      </trkpt>
      <trkpt lat="48.30688" lon="-4.19374">
        <ele>56.2</ele>
        <time>2020-06-08T14:44:34Z</time>
      </trkpt>
      <trkpt lat="48.30688" lon="-4.19375">
        <ele>56.2</ele>
        <time>2020-06-08T14:44:35Z</time>
      </trkpt>
      <trkpt lat="48.30691" lon="-4.19377">
        <ele>56.3</ele>
        <time>2020-06-08T14:44:36Z</time>
      </trkpt>
      <trkpt lat="48.30692" lon="-4.19377">
        <ele>56.3</ele>
        <time>2020-06-08T14:44:37Z</time>
      </trkpt>
      <trkpt lat="48.30695" lon="-4.1938">
        <ele>56.4</ele>
        <time>2020-06-08T14:44:38Z</time>
      </trkpt>
      <trkpt lat="48.30697" lon="-4.19383">
        <ele>56.5</ele>
        <time>2020-06-08T14:44:39Z</time>
      </trkpt>
      <trkpt lat="48.307" lon="-4.19387">
        <ele>56.6</ele>
        <time>2020-06-08T14:44:40Z</time>
      </trkpt>
      <trkpt lat="48.307" lon="-4.19389">
        <ele>56.7</ele>
        <time>2020-06-08T14:44:41Z</time>
      </trkpt>
      <trkpt lat="48.30702" lon="-4.1939">
        <ele>56.7</ele>
        <time>2020-06-08T14:44:42Z</time>
      </trkpt>
      <trkpt lat="48.30705" lon="-4.19393">
        <ele>56.8</ele>
        <time>2020-06-08T14:44:43Z</time>
      </trkpt>
      <trkpt lat="48.30706" lon="-4.19394">
        <ele>56.9</ele>
        <time>2020-06-08T14:44:44Z</time>
      </trkpt>
      <trkpt lat="48.30709" lon="-4.19398">
        <ele>57</ele>
        <time>2020-06-08T14:44:45Z</time>
      </trkpt>
      <trkpt lat="48.30712" lon="-4.194">
        <ele>57</ele>
        <time>2020-06-08T14:44:46Z</time>
      </trkpt>
      <trkpt lat="48.30715" lon="-4.19404">
        <ele>57.2</ele>
        <time>2020-06-08T14:44:47Z</time>
      </trkpt>
      <trkpt lat="48.30717" lon="-4.19406">
        <ele>57.2</ele>
        <time>2020-06-08T14:44:48Z</time>
      </trkpt>
      <trkpt lat="48.30719" lon="-4.19408">
        <ele>57.3</ele>
        <time>2020-06-08T14:44:49Z</time>
      </trkpt>
      <trkpt lat="48.30723" lon="-4.19411">
        <ele>57.4</ele>
        <time>2020-06-08T14:44:50Z</time>
      </trkpt>
      <trkpt lat="48.30725" lon="-4.19412">
        <ele>57.5</ele>
        <time>2020-06-08T14:44:51Z</time>
      </trkpt>
      <trkpt lat="48.30727" lon="-4.19416">
        <ele>57.6</ele>
        <time>2020-06-08T14:44:52Z</time>
      </trkpt>
      <trkpt lat="48.30731" lon="-4.19419">
        <ele>57.7</ele>
        <time>2020-06-08T14:44:53Z</time>
      </trkpt>
      <trkpt lat="48.30732" lon="-4.1942">
        <ele>57.8</ele>
        <time>2020-06-08T14:44:54Z</time>
      </trkpt>
      <trkpt lat="48.30736" lon="-4.19424">
        <ele>57.9</ele>
        <time>2020-06-08T14:44:55Z</time>
      </trkpt>
      <trkpt lat="48.30737" lon="-4.19425">
        <ele>58</ele>
        <time>2020-06-08T14:44:56Z</time>
      </trkpt>
      <trkpt lat="48.30739" lon="-4.19428">
        <ele>58</ele>
        <time>2020-06-08T14:44:57Z</time>
      </trkpt>
      <trkpt lat="48.30741" lon="-4.1943">
        <ele>58.1</ele>
        <time>2020-06-08T14:44:58Z</time>
      </trkpt>
      <trkpt lat="48.30745" lon="-4.19432">
        <ele>58.1</ele>
        <time>2020-06-08T14:44:59Z</time>
      </trkpt>
      <trkpt lat="48.30747" lon="-4.19433">
        <ele>58.1</ele>
        <time>2020-06-08T14:45:00Z</time>
      </trkpt>
      <trkpt lat="48.3075" lon="-4.19436">
        <ele>58.1</ele>
        <time>2020-06-08T14:45:01Z</time>
      </trkpt>
      <trkpt lat="48.30752" lon="-4.19438">
        <ele>58.3</ele>
        <time>2020-06-08T14:45:02Z</time>
      </trkpt>
      <trkpt lat="48.30754" lon="-4.19442">
        <ele>58.4</ele>
        <time>2020-06-08T14:45:03Z</time>
      </trkpt>
      <trkpt lat="48.30757" lon="-4.19445">
        <ele>58.4</ele>
        <time>2020-06-08T14:45:04Z</time>
      </trkpt>
      <trkpt lat="48.30758" lon="-4.19446">
        <ele>58.5</ele>
        <time>2020-06-08T14:45:05Z</time>
      </trkpt>
      <trkpt lat="48.30761" lon="-4.19449">
        <ele>58.5</ele>
        <time>2020-06-08T14:45:06Z</time>
      </trkpt>
      <trkpt lat="48.30762" lon="-4.19451">
        <ele>58.6</ele>
        <time>2020-06-08T14:45:07Z</time>
      </trkpt>
      <trkpt lat="48.30764" lon="-4.19452">
        <ele>58.6</ele>
        <time>2020-06-08T14:45:08Z</time>
      </trkpt>
      <trkpt lat="48.30765" lon="-4.19454">
        <ele>58.6</ele>
        <time>2020-06-08T14:45:09Z</time>
      </trkpt>
      <trkpt lat="48.30767" lon="-4.19457">
        <ele>58.7</ele>
        <time>2020-06-08T14:45:10Z</time>
      </trkpt>
      <trkpt lat="48.3077" lon="-4.1946">
        <ele>58.7</ele>
        <time>2020-06-08T14:45:11Z</time>
      </trkpt>
      <trkpt lat="48.30773" lon="-4.19464">
        <ele>58.8</ele>
        <time>2020-06-08T14:45:12Z</time>
      </trkpt>
      <trkpt lat="48.30776" lon="-4.19467">
        <ele>58.9</ele>
        <time>2020-06-08T14:45:13Z</time>
      </trkpt>
      <trkpt lat="48.30776" lon="-4.19468">
        <ele>58.9</ele>
        <time>2020-06-08T14:45:14Z</time>
      </trkpt>
      <trkpt lat="48.30778" lon="-4.19471">
        <ele>58.9</ele>
        <time>2020-06-08T14:45:15Z</time>
      </trkpt>
      <trkpt lat="48.3078" lon="-4.19474">
        <ele>59</ele>
        <time>2020-06-08T14:45:16Z</time>
      </trkpt>
      <trkpt lat="48.30782" lon="-4.19477">
        <ele>59</ele>
        <time>2020-06-08T14:45:17Z</time>
      </trkpt>
      <trkpt lat="48.30785" lon="-4.1948">
        <ele>59.1</ele>
        <time>2020-06-08T14:45:18Z</time>
      </trkpt>
      <trkpt lat="48.30787" lon="-4.19482">
        <ele>59.1</ele>
        <time>2020-06-08T14:45:19Z</time>
      </trkpt>
      <trkpt lat="48.3079" lon="-4.19484">
        <ele>59.2</ele>
        <time>2020-06-08T14:45:20Z</time>
      </trkpt>
      <trkpt lat="48.30793" lon="-4.19486">
        <ele>59.2</ele>
        <time>2020-06-08T14:45:21Z</time>
      </trkpt>
      <trkpt lat="48.30796" lon="-4.19488">
        <ele>59.3</ele>
        <time>2020-06-08T14:45:22Z</time>
      </trkpt>
      <trkpt lat="48.30798" lon="-4.19491">
        <ele>59.3</ele>
        <time>2020-06-08T14:45:23Z</time>
      </trkpt>
      <trkpt lat="48.30801" lon="-4.19494">
        <ele>59.3</ele>
        <time>2020-06-08T14:45:24Z</time>
      </trkpt>
      <trkpt lat="48.30804" lon="-4.19497">
        <ele>59.4</ele>
        <time>2020-06-08T14:45:25Z</time>
      </trkpt>
      <trkpt lat="48.30808" lon="-4.19501">
        <ele>59.4</ele>
        <time>2020-06-08T14:45:26Z</time>
      </trkpt>
      <trkpt lat="48.3081" lon="-4.19504">
        <ele>59.5</ele>
        <time>2020-06-08T14:45:27Z</time>
      </trkpt>
      <trkpt lat="48.30813" lon="-4.19508">
        <ele>59.5</ele>
        <time>2020-06-08T14:45:28Z</time>
      </trkpt>
      <trkpt lat="48.30814" lon="-4.19509">
        <ele>59.5</ele>
        <time>2020-06-08T14:45:29Z</time>
      </trkpt>
      <trkpt lat="48.30816" lon="-4.19512">
        <ele>59.5</ele>
        <time>2020-06-08T14:45:30Z</time>
      </trkpt>
      <trkpt lat="48.30818" lon="-4.19515">
        <ele>59.5</ele>
        <time>2020-06-08T14:45:31Z</time>
      </trkpt>
      <trkpt lat="48.30821" lon="-4.19519">
        <ele>59.6</ele>
        <time>2020-06-08T14:45:32Z</time>
      </trkpt>
      <trkpt lat="48.30823" lon="-4.19521">
        <ele>59.6</ele>
        <time>2020-06-08T14:45:33Z</time>
      </trkpt>
      <trkpt lat="48.30827" lon="-4.19525">
        <ele>59.6</ele>
        <time>2020-06-08T14:45:34Z</time>
      </trkpt>
      <trkpt lat="48.30828" lon="-4.19526">
        <ele>59.6</ele>
        <time>2020-06-08T14:45:35Z</time>
      </trkpt>
      <trkpt lat="48.30831" lon="-4.1953">
        <ele>59.6</ele>
        <time>2020-06-08T14:45:36Z</time>
      </trkpt>
      <trkpt lat="48.30834" lon="-4.19534">
        <ele>59.6</ele>
        <time>2020-06-08T14:45:37Z</time>
      </trkpt>
      <trkpt lat="48.30838" lon="-4.19541">
        <ele>59.5</ele>
        <time>2020-06-08T14:45:38Z</time>
      </trkpt>
      <trkpt lat="48.30841" lon="-4.19543">
        <ele>59.5</ele>
        <time>2020-06-08T14:45:39Z</time>
      </trkpt>
      <trkpt lat="48.30844" lon="-4.19546">
        <ele>59.5</ele>
        <time>2020-06-08T14:45:40Z</time>
      </trkpt>
      <trkpt lat="48.30846" lon="-4.19548">
        <ele>59.5</ele>
        <time>2020-06-08T14:45:41Z</time>
      </trkpt>
      <trkpt lat="48.30848" lon="-4.19551">
        <ele>59.5</ele>
        <time>2020-06-08T14:45:42Z</time>
      </trkpt>
      <trkpt lat="48.30851" lon="-4.19554">
        <ele>59.5</ele>
        <time>2020-06-08T14:45:43Z</time>
      </trkpt>
      <trkpt lat="48.30852" lon="-4.19556">
        <ele>59.5</ele>
        <time>2020-06-08T14:45:44Z</time>
      </trkpt>
      <trkpt lat="48.30855" lon="-4.1956">
        <ele>59.5</ele>
        <time>2020-06-08T14:45:45Z</time>
      </trkpt>
      <trkpt lat="48.30859" lon="-4.19565">
        <ele>59.5</ele>
        <time>2020-06-08T14:45:46Z</time>
      </trkpt>
      <trkpt lat="48.30863" lon="-4.19569">
        <ele>59.5</ele>
        <time>2020-06-08T14:45:47Z</time>
      </trkpt>
      <trkpt lat="48.30866" lon="-4.19574">
        <ele>59.4</ele>
        <time>2020-06-08T14:45:48Z</time>
      </trkpt>
      <trkpt lat="48.30871" lon="-4.19579">
        <ele>59.4</ele>
        <time>2020-06-08T14:45:49Z</time>
      </trkpt>
      <trkpt lat="48.30875" lon="-4.19584">
        <ele>59.3</ele>
        <time>2020-06-08T14:45:50Z</time>
      </trkpt>
      <trkpt lat="48.30878" lon="-4.19587">
        <ele>59.3</ele>
        <time>2020-06-08T14:45:51Z</time>
      </trkpt>
      <trkpt lat="48.30881" lon="-4.1959">
        <ele>59.2</ele>
        <time>2020-06-08T14:45:52Z</time>
      </trkpt>
      <trkpt lat="48.30884" lon="-4.19594">
        <ele>59.2</ele>
        <time>2020-06-08T14:45:53Z</time>
      </trkpt>
      <trkpt lat="48.30887" lon="-4.19598">
        <ele>59.1</ele>
        <time>2020-06-08T14:45:54Z</time>
      </trkpt>
      <trkpt lat="48.30891" lon="-4.19603">
        <ele>59</ele>
        <time>2020-06-08T14:45:55Z</time>
      </trkpt>
      <trkpt lat="48.30894" lon="-4.19607">
        <ele>59</ele>
        <time>2020-06-08T14:45:56Z</time>
      </trkpt>
      <trkpt lat="48.30897" lon="-4.19612">
        <ele>58.9</ele>
        <time>2020-06-08T14:45:57Z</time>
      </trkpt>
      <trkpt lat="48.30901" lon="-4.19616">
        <ele>58.8</ele>
        <time>2020-06-08T14:45:58Z</time>
      </trkpt>
      <trkpt lat="48.30904" lon="-4.19621">
        <ele>58.8</ele>
        <time>2020-06-08T14:45:59Z</time>
      </trkpt>
      <trkpt lat="48.30907" lon="-4.19626">
        <ele>58.7</ele>
        <time>2020-06-08T14:46:00Z</time>
      </trkpt>
      <trkpt lat="48.3091" lon="-4.1963">
        <ele>58.6</ele>
        <time>2020-06-08T14:46:01Z</time>
      </trkpt>
      <trkpt lat="48.30913" lon="-4.19636">
        <ele>58.5</ele>
        <time>2020-06-08T14:46:02Z</time>
      </trkpt>
      <trkpt lat="48.30916" lon="-4.19641">
        <ele>58.4</ele>
        <time>2020-06-08T14:46:03Z</time>
      </trkpt>
      <trkpt lat="48.3092" lon="-4.19646">
        <ele>58.3</ele>
        <time>2020-06-08T14:46:04Z</time>
      </trkpt>
      <trkpt lat="48.30924" lon="-4.19653">
        <ele>58.2</ele>
        <time>2020-06-08T14:46:05Z</time>
      </trkpt>
      <trkpt lat="48.30929" lon="-4.1966">
        <ele>58</ele>
        <time>2020-06-08T14:46:06Z</time>
      </trkpt>
      <trkpt lat="48.30932" lon="-4.19666">
        <ele>57.9</ele>
        <time>2020-06-08T14:46:07Z</time>
      </trkpt>
      <trkpt lat="48.30936" lon="-4.19671">
        <ele>57.9</ele>
        <time>2020-06-08T14:46:08Z</time>
      </trkpt>
      <trkpt lat="48.30939" lon="-4.19676">
        <ele>57.8</ele>
        <time>2020-06-08T14:46:09Z</time>
      </trkpt>
      <trkpt lat="48.30943" lon="-4.19682">
        <ele>57.7</ele>
        <time>2020-06-08T14:46:10Z</time>
      </trkpt>
      <trkpt lat="48.30945" lon="-4.19688">
        <ele>57.6</ele>
        <time>2020-06-08T14:46:11Z</time>
      </trkpt>
      <trkpt lat="48.30949" lon="-4.19695">
        <ele>57.5</ele>
        <time>2020-06-08T14:46:12Z</time>
      </trkpt>
      <trkpt lat="48.30952" lon="-4.19701">
        <ele>57.3</ele>
        <time>2020-06-08T14:46:13Z</time>
      </trkpt>
      <trkpt lat="48.30956" lon="-4.1971">
        <ele>57.2</ele>
        <time>2020-06-08T14:46:14Z</time>
      </trkpt>
      <trkpt lat="48.3096" lon="-4.19716">
        <ele>57.1</ele>
        <time>2020-06-08T14:46:15Z</time>
      </trkpt>
      <trkpt lat="48.30963" lon="-4.19721">
        <ele>57</ele>
        <time>2020-06-08T14:46:16Z</time>
      </trkpt>
      <trkpt lat="48.30966" lon="-4.19728">
        <ele>56.9</ele>
        <time>2020-06-08T14:46:17Z</time>
      </trkpt>
      <trkpt lat="48.30968" lon="-4.19734">
        <ele>56.8</ele>
        <time>2020-06-08T14:46:18Z</time>
      </trkpt>
      <trkpt lat="48.30969" lon="-4.19739">
        <ele>56.7</ele>
        <time>2020-06-08T14:46:19Z</time>
      </trkpt>
      <trkpt lat="48.30974" lon="-4.19745">
        <ele>56.6</ele>
        <time>2020-06-08T14:46:20Z</time>
      </trkpt>
      <trkpt lat="48.30976" lon="-4.1975">
        <ele>56.5</ele>
        <time>2020-06-08T14:46:21Z</time>
      </trkpt>
      <trkpt lat="48.3098" lon="-4.19754">
        <ele>56.3</ele>
        <time>2020-06-08T14:46:22Z</time>
      </trkpt>
      <trkpt lat="48.30983" lon="-4.1976">
        <ele>56.2</ele>
        <time>2020-06-08T14:46:23Z</time>
      </trkpt>
      <trkpt lat="48.30987" lon="-4.19768">
        <ele>56</ele>
        <time>2020-06-08T14:46:24Z</time>
      </trkpt>
      <trkpt lat="48.3099" lon="-4.19774">
        <ele>55.8</ele>
        <time>2020-06-08T14:46:25Z</time>
      </trkpt>
      <trkpt lat="48.30993" lon="-4.1978">
        <ele>55.7</ele>
        <time>2020-06-08T14:46:26Z</time>
      </trkpt>
      <trkpt lat="48.30996" lon="-4.19787">
        <ele>55.5</ele>
        <time>2020-06-08T14:46:27Z</time>
      </trkpt>
      <trkpt lat="48.30999" lon="-4.19794">
        <ele>55.3</ele>
        <time>2020-06-08T14:46:28Z</time>
      </trkpt>
      <trkpt lat="48.31002" lon="-4.198">
        <ele>55.1</ele>
        <time>2020-06-08T14:46:29Z</time>
      </trkpt>
      <trkpt lat="48.31004" lon="-4.19806">
        <ele>55</ele>
        <time>2020-06-08T14:46:30Z</time>
      </trkpt>
      <trkpt lat="48.31008" lon="-4.19813">
        <ele>54.8</ele>
        <time>2020-06-08T14:46:31Z</time>
      </trkpt>
      <trkpt lat="48.31011" lon="-4.19821">
        <ele>54.7</ele>
        <time>2020-06-08T14:46:32Z</time>
      </trkpt>
      <trkpt lat="48.31014" lon="-4.19829">
        <ele>54.5</ele>
        <time>2020-06-08T14:46:33Z</time>
      </trkpt>
      <trkpt lat="48.31018" lon="-4.19839">
        <ele>54.3</ele>
        <time>2020-06-08T14:46:34Z</time>
      </trkpt>
      <trkpt lat="48.31022" lon="-4.19848">
        <ele>54.1</ele>
        <time>2020-06-08T14:46:35Z</time>
      </trkpt>
      <trkpt lat="48.31026" lon="-4.19856">
        <ele>53.9</ele>
        <time>2020-06-08T14:46:36Z</time>
      </trkpt>
      <trkpt lat="48.31029" lon="-4.19865">
        <ele>53.7</ele>
        <time>2020-06-08T14:46:37Z</time>
      </trkpt>
      <trkpt lat="48.31033" lon="-4.19873">
        <ele>53.5</ele>
        <time>2020-06-08T14:46:38Z</time>
      </trkpt>
      <trkpt lat="48.31036" lon="-4.19882">
        <ele>53.3</ele>
        <time>2020-06-08T14:46:39Z</time>
      </trkpt>
      <trkpt lat="48.3104" lon="-4.1989">
        <ele>53.1</ele>
        <time>2020-06-08T14:46:40Z</time>
      </trkpt>
      <trkpt lat="48.31043" lon="-4.19898">
        <ele>52.8</ele>
        <time>2020-06-08T14:46:41Z</time>
      </trkpt>
      <trkpt lat="48.31047" lon="-4.19907">
        <ele>52.6</ele>
        <time>2020-06-08T14:46:42Z</time>
      </trkpt>
      <trkpt lat="48.3105" lon="-4.19916">
        <ele>52.3</ele>
        <time>2020-06-08T14:46:43Z</time>
      </trkpt>
      <trkpt lat="48.31054" lon="-4.19925">
        <ele>52.1</ele>
        <time>2020-06-08T14:46:44Z</time>
      </trkpt>
      <trkpt lat="48.31057" lon="-4.19934">
        <ele>51.8</ele>
        <time>2020-06-08T14:46:45Z</time>
      </trkpt>
      <trkpt lat="48.3106" lon="-4.19943">
        <ele>51.5</ele>
        <time>2020-06-08T14:46:46Z</time>
      </trkpt>
      <trkpt lat="48.31062" lon="-4.19952">
        <ele>51.3</ele>
        <time>2020-06-08T14:46:47Z</time>
      </trkpt>
      <trkpt lat="48.31065" lon="-4.19961">
        <ele>51</ele>
        <time>2020-06-08T14:46:48Z</time>
      </trkpt>
      <trkpt lat="48.31068" lon="-4.1997">
        <ele>50.7</ele>
        <time>2020-06-08T14:46:49Z</time>
      </trkpt>
      <trkpt lat="48.31071" lon="-4.19979">
        <ele>50.5</ele>
        <time>2020-06-08T14:46:50Z</time>
      </trkpt>
      <trkpt lat="48.31074" lon="-4.19988">
        <ele>50.2</ele>
        <time>2020-06-08T14:46:51Z</time>
      </trkpt>
      <trkpt lat="48.31078" lon="-4.19998">
        <ele>50</ele>
        <time>2020-06-08T14:46:52Z</time>
      </trkpt>
      <trkpt lat="48.31081" lon="-4.20008">
        <ele>49.6</ele>
        <time>2020-06-08T14:46:53Z</time>
      </trkpt>
      <trkpt lat="48.31084" lon="-4.20018">
        <ele>49.3</ele>
        <time>2020-06-08T14:46:54Z</time>
      </trkpt>
      <trkpt lat="48.31086" lon="-4.20028">
        <ele>48.9</ele>
        <time>2020-06-08T14:46:55Z</time>
      </trkpt>
      <trkpt lat="48.31089" lon="-4.20039">
        <ele>48.6</ele>
        <time>2020-06-08T14:46:56Z</time>
      </trkpt>
      <trkpt lat="48.31092" lon="-4.2005">
        <ele>48.2</ele>
        <time>2020-06-08T14:46:57Z</time>
      </trkpt>
      <trkpt lat="48.31095" lon="-4.20061">
        <ele>47.9</ele>
        <time>2020-06-08T14:46:58Z</time>
      </trkpt>
      <trkpt lat="48.31098" lon="-4.20072">
        <ele>47.5</ele>
        <time>2020-06-08T14:46:59Z</time>
      </trkpt>
      <trkpt lat="48.311" lon="-4.20084">
        <ele>47</ele>
        <time>2020-06-08T14:47:00Z</time>
      </trkpt>
      <trkpt lat="48.31103" lon="-4.20096">
        <ele>46.6</ele>
        <time>2020-06-08T14:47:01Z</time>
      </trkpt>
      <trkpt lat="48.31106" lon="-4.20109">
        <ele>46.2</ele>
        <time>2020-06-08T14:47:02Z</time>
      </trkpt>
      <trkpt lat="48.31108" lon="-4.20121">
        <ele>45.7</ele>
        <time>2020-06-08T14:47:03Z</time>
      </trkpt>
      <trkpt lat="48.31111" lon="-4.20134">
        <ele>45.2</ele>
        <time>2020-06-08T14:47:04Z</time>
      </trkpt>
      <trkpt lat="48.31114" lon="-4.20147">
        <ele>44.8</ele>
        <time>2020-06-08T14:47:05Z</time>
      </trkpt>
      <trkpt lat="48.31116" lon="-4.2016">
        <ele>44.3</ele>
        <time>2020-06-08T14:47:06Z</time>
      </trkpt>
      <trkpt lat="48.31119" lon="-4.20173">
        <ele>43.9</ele>
        <time>2020-06-08T14:47:07Z</time>
      </trkpt>
      <trkpt lat="48.31122" lon="-4.20186">
        <ele>43.5</ele>
        <time>2020-06-08T14:47:08Z</time>
      </trkpt>
      <trkpt lat="48.31125" lon="-4.20199">
        <ele>43</ele>
        <time>2020-06-08T14:47:09Z</time>
      </trkpt>
      <trkpt lat="48.31128" lon="-4.20212">
        <ele>42.6</ele>
        <time>2020-06-08T14:47:10Z</time>
      </trkpt>
      <trkpt lat="48.31131" lon="-4.20225">
        <ele>42.1</ele>
        <time>2020-06-08T14:47:11Z</time>
      </trkpt>
      <trkpt lat="48.31135" lon="-4.20238">
        <ele>41.7</ele>
        <time>2020-06-08T14:47:12Z</time>
      </trkpt>
      <trkpt lat="48.31138" lon="-4.20252">
        <ele>41.2</ele>
        <time>2020-06-08T14:47:13Z</time>
      </trkpt>
      <trkpt lat="48.31142" lon="-4.20265">
        <ele>40.6</ele>
        <time>2020-06-08T14:47:14Z</time>
      </trkpt>
      <trkpt lat="48.31145" lon="-4.20278">
        <ele>40</ele>
        <time>2020-06-08T14:47:15Z</time>
      </trkpt>
      <trkpt lat="48.31149" lon="-4.20291">
        <ele>39.5</ele>
        <time>2020-06-08T14:47:16Z</time>
      </trkpt>
      <trkpt lat="48.31153" lon="-4.20305">
        <ele>38.9</ele>
        <time>2020-06-08T14:47:17Z</time>
      </trkpt>
      <trkpt lat="48.31157" lon="-4.20318">
        <ele>38.3</ele>
        <time>2020-06-08T14:47:18Z</time>
      </trkpt>
      <trkpt lat="48.31162" lon="-4.2033">
        <ele>37.7</ele>
        <time>2020-06-08T14:47:19Z</time>
      </trkpt>
      <trkpt lat="48.31167" lon="-4.20342">
        <ele>37.1</ele>
        <time>2020-06-08T14:47:20Z</time>
      </trkpt>
      <trkpt lat="48.31172" lon="-4.20355">
        <ele>36.4</ele>
        <time>2020-06-08T14:47:21Z</time>
      </trkpt>
      <trkpt lat="48.31177" lon="-4.20368">
        <ele>35.8</ele>
        <time>2020-06-08T14:47:22Z</time>
      </trkpt>
      <trkpt lat="48.31182" lon="-4.20381">
        <ele>35.2</ele>
        <time>2020-06-08T14:47:23Z</time>
      </trkpt>
      <trkpt lat="48.31188" lon="-4.20394">
        <ele>34.6</ele>
        <time>2020-06-08T14:47:24Z</time>
      </trkpt>
      <trkpt lat="48.31194" lon="-4.20406">
        <ele>34.1</ele>
        <time>2020-06-08T14:47:25Z</time>
      </trkpt>
      <trkpt lat="48.312" lon="-4.20419">
        <ele>33.5</ele>
        <time>2020-06-08T14:47:26Z</time>
      </trkpt>
      <trkpt lat="48.31205" lon="-4.20431">
        <ele>32.8</ele>
        <time>2020-06-08T14:47:27Z</time>
      </trkpt>
      <trkpt lat="48.31211" lon="-4.20444">
        <ele>32.2</ele>
        <time>2020-06-08T14:47:28Z</time>
      </trkpt>
      <trkpt lat="48.31216" lon="-4.20457">
        <ele>31.5</ele>
        <time>2020-06-08T14:47:29Z</time>
      </trkpt>
      <trkpt lat="48.31221" lon="-4.2047">
        <ele>31</ele>
        <time>2020-06-08T14:47:30Z</time>
      </trkpt>
      <trkpt lat="48.31226" lon="-4.20483">
        <ele>30.4</ele>
        <time>2020-06-08T14:47:31Z</time>
      </trkpt>
      <trkpt lat="48.31232" lon="-4.20496">
        <ele>29.8</ele>
        <time>2020-06-08T14:47:32Z</time>
      </trkpt>
      <trkpt lat="48.31237" lon="-4.20509">
        <ele>29.2</ele>
        <time>2020-06-08T14:47:33Z</time>
      </trkpt>
      <trkpt lat="48.31243" lon="-4.20521">
        <ele>28.6</ele>
        <time>2020-06-08T14:47:34Z</time>
      </trkpt>
      <trkpt lat="48.31248" lon="-4.20534">
        <ele>27.9</ele>
        <time>2020-06-08T14:47:35Z</time>
      </trkpt>
      <trkpt lat="48.31252" lon="-4.20548">
        <ele>27.3</ele>
        <time>2020-06-08T14:47:36Z</time>
      </trkpt>
      <trkpt lat="48.31256" lon="-4.20561">
        <ele>26.7</ele>
        <time>2020-06-08T14:47:37Z</time>
      </trkpt>
      <trkpt lat="48.31259" lon="-4.20576">
        <ele>26.1</ele>
        <time>2020-06-08T14:47:38Z</time>
      </trkpt>
      <trkpt lat="48.31263" lon="-4.2059">
        <ele>25.6</ele>
        <time>2020-06-08T14:47:39Z</time>
      </trkpt>
      <trkpt lat="48.31265" lon="-4.20605">
        <ele>25.1</ele>
        <time>2020-06-08T14:47:40Z</time>
      </trkpt>
      <trkpt lat="48.31266" lon="-4.2062">
        <ele>24.6</ele>
        <time>2020-06-08T14:47:41Z</time>
      </trkpt>
      <trkpt lat="48.31266" lon="-4.20636">
        <ele>24.1</ele>
        <time>2020-06-08T14:47:42Z</time>
      </trkpt>
      <trkpt lat="48.31266" lon="-4.20651">
        <ele>23.7</ele>
        <time>2020-06-08T14:47:43Z</time>
      </trkpt>
      <trkpt lat="48.31265" lon="-4.20667">
        <ele>23.2</ele>
        <time>2020-06-08T14:47:44Z</time>
      </trkpt>
      <trkpt lat="48.31263" lon="-4.20682">
        <ele>22.8</ele>
        <time>2020-06-08T14:47:45Z</time>
      </trkpt>
      <trkpt lat="48.31261" lon="-4.20696">
        <ele>22.4</ele>
        <time>2020-06-08T14:47:46Z</time>
      </trkpt>
      <trkpt lat="48.31258" lon="-4.2071">
        <ele>21.9</ele>
        <time>2020-06-08T14:47:47Z</time>
      </trkpt>
      <trkpt lat="48.31255" lon="-4.20725">
        <ele>21.6</ele>
        <time>2020-06-08T14:47:48Z</time>
      </trkpt>
      <trkpt lat="48.31252" lon="-4.20739">
        <ele>21.4</ele>
        <time>2020-06-08T14:47:49Z</time>
      </trkpt>
      <trkpt lat="48.31249" lon="-4.20753">
        <ele>21.2</ele>
        <time>2020-06-08T14:47:50Z</time>
      </trkpt>
      <trkpt lat="48.31246" lon="-4.20766">
        <ele>21.1</ele>
        <time>2020-06-08T14:47:51Z</time>
      </trkpt>
      <trkpt lat="48.31244" lon="-4.2078">
        <ele>21.1</ele>
        <time>2020-06-08T14:47:52Z</time>
      </trkpt>
      <trkpt lat="48.31244" lon="-4.20793">
        <ele>21.1</ele>
        <time>2020-06-08T14:47:53Z</time>
      </trkpt>
      <trkpt lat="48.31245" lon="-4.20806">
        <ele>21.1</ele>
        <time>2020-06-08T14:47:54Z</time>
      </trkpt>
      <trkpt lat="48.31245" lon="-4.20818">
        <ele>21.3</ele>
        <time>2020-06-08T14:47:55Z</time>
      </trkpt>
      <trkpt lat="48.31246" lon="-4.2083">
        <ele>21.5</ele>
        <time>2020-06-08T14:47:56Z</time>
      </trkpt>
      <trkpt lat="48.31246" lon="-4.20841">
        <ele>21.4</ele>
        <time>2020-06-08T14:47:57Z</time>
      </trkpt>
      <trkpt lat="48.31248" lon="-4.20851">
        <ele>21.4</ele>
        <time>2020-06-08T14:47:58Z</time>
      </trkpt>
      <trkpt lat="48.31251" lon="-4.20861">
        <ele>21.4</ele>
        <time>2020-06-08T14:47:59Z</time>
      </trkpt>
      <trkpt lat="48.31253" lon="-4.20871">
        <ele>21.4</ele>
        <time>2020-06-08T14:48:00Z</time>
      </trkpt>
      <trkpt lat="48.31255" lon="-4.2088">
        <ele>21.4</ele>
        <time>2020-06-08T14:48:01Z</time>
      </trkpt>
      <trkpt lat="48.31258" lon="-4.20889">
        <ele>21.4</ele>
        <time>2020-06-08T14:48:02Z</time>
      </trkpt>
      <trkpt lat="48.31259" lon="-4.20899">
        <ele>21.4</ele>
        <time>2020-06-08T14:48:03Z</time>
      </trkpt>
      <trkpt lat="48.31261" lon="-4.20908">
        <ele>21.4</ele>
        <time>2020-06-08T14:48:04Z</time>
      </trkpt>
      <trkpt lat="48.31262" lon="-4.20918">
        <ele>21.4</ele>
        <time>2020-06-08T14:48:05Z</time>
      </trkpt>
      <trkpt lat="48.31265" lon="-4.20927">
        <ele>21.5</ele>
        <time>2020-06-08T14:48:06Z</time>
      </trkpt>
      <trkpt lat="48.31267" lon="-4.20936">
        <ele>21.5</ele>
        <time>2020-06-08T14:48:07Z</time>
      </trkpt>
      <trkpt lat="48.31268" lon="-4.20945">
        <ele>21.5</ele>
        <time>2020-06-08T14:48:08Z</time>
      </trkpt>
      <trkpt lat="48.31269" lon="-4.20954">
        <ele>21.6</ele>
        <time>2020-06-08T14:48:09Z</time>
      </trkpt>
      <trkpt lat="48.3127" lon="-4.20963">
        <ele>21.6</ele>
        <time>2020-06-08T14:48:10Z</time>
      </trkpt>
      <trkpt lat="48.31271" lon="-4.20972">
        <ele>21.5</ele>
        <time>2020-06-08T14:48:11Z</time>
      </trkpt>
      <trkpt lat="48.31273" lon="-4.2098">
        <ele>21.5</ele>
        <time>2020-06-08T14:48:12Z</time>
      </trkpt>
      <trkpt lat="48.31274" lon="-4.20989">
        <ele>21.5</ele>
        <time>2020-06-08T14:48:13Z</time>
      </trkpt>
      <trkpt lat="48.31275" lon="-4.20998">
        <ele>21.4</ele>
        <time>2020-06-08T14:48:14Z</time>
      </trkpt>
      <trkpt lat="48.31276" lon="-4.21006">
        <ele>21.4</ele>
        <time>2020-06-08T14:48:15Z</time>
      </trkpt>
      <trkpt lat="48.31278" lon="-4.21014">
        <ele>21.3</ele>
        <time>2020-06-08T14:48:16Z</time>
      </trkpt>
      <trkpt lat="48.31279" lon="-4.21022">
        <ele>21.3</ele>
        <time>2020-06-08T14:48:17Z</time>
      </trkpt>
      <trkpt lat="48.3128" lon="-4.2103">
        <ele>21.2</ele>
        <time>2020-06-08T14:48:18Z</time>
      </trkpt>
      <trkpt lat="48.31281" lon="-4.21039">
        <ele>21.1</ele>
        <time>2020-06-08T14:48:19Z</time>
      </trkpt>
      <trkpt lat="48.31282" lon="-4.21047">
        <ele>21</ele>
        <time>2020-06-08T14:48:20Z</time>
      </trkpt>
      <trkpt lat="48.31283" lon="-4.21056">
        <ele>20.9</ele>
        <time>2020-06-08T14:48:21Z</time>
      </trkpt>
      <trkpt lat="48.31285" lon="-4.21064">
        <ele>20.8</ele>
        <time>2020-06-08T14:48:22Z</time>
      </trkpt>
      <trkpt lat="48.31287" lon="-4.21073">
        <ele>20.7</ele>
        <time>2020-06-08T14:48:23Z</time>
      </trkpt>
      <trkpt lat="48.31287" lon="-4.21081">
        <ele>20.6</ele>
        <time>2020-06-08T14:48:24Z</time>
      </trkpt>
      <trkpt lat="48.31289" lon="-4.2109">
        <ele>20.5</ele>
        <time>2020-06-08T14:48:25Z</time>
      </trkpt>
      <trkpt lat="48.3129" lon="-4.21099">
        <ele>20.3</ele>
        <time>2020-06-08T14:48:26Z</time>
      </trkpt>
      <trkpt lat="48.31291" lon="-4.21108">
        <ele>20.2</ele>
        <time>2020-06-08T14:48:27Z</time>
      </trkpt>
      <trkpt lat="48.31292" lon="-4.21117">
        <ele>20.1</ele>
        <time>2020-06-08T14:48:28Z</time>
      </trkpt>
      <trkpt lat="48.31294" lon="-4.21127">
        <ele>19.9</ele>
        <time>2020-06-08T14:48:29Z</time>
      </trkpt>
      <trkpt lat="48.31295" lon="-4.21136">
        <ele>19.7</ele>
        <time>2020-06-08T14:48:30Z</time>
      </trkpt>
      <trkpt lat="48.31297" lon="-4.21145">
        <ele>19.5</ele>
        <time>2020-06-08T14:48:31Z</time>
      </trkpt>
      <trkpt lat="48.31298" lon="-4.21154">
        <ele>19.2</ele>
        <time>2020-06-08T14:48:32Z</time>
      </trkpt>
      <trkpt lat="48.31299" lon="-4.21163">
        <ele>19</ele>
        <time>2020-06-08T14:48:33Z</time>
      </trkpt>
      <trkpt lat="48.313" lon="-4.21173">
        <ele>18.8</ele>
        <time>2020-06-08T14:48:34Z</time>
      </trkpt>
      <trkpt lat="48.31301" lon="-4.21183">
        <ele>18.5</ele>
        <time>2020-06-08T14:48:35Z</time>
      </trkpt>
      <trkpt lat="48.31302" lon="-4.21194">
        <ele>18.2</ele>
        <time>2020-06-08T14:48:36Z</time>
      </trkpt>
      <trkpt lat="48.31304" lon="-4.21204">
        <ele>17.9</ele>
        <time>2020-06-08T14:48:37Z</time>
      </trkpt>
      <trkpt lat="48.31305" lon="-4.21214">
        <ele>17.7</ele>
        <time>2020-06-08T14:48:38Z</time>
      </trkpt>
      <trkpt lat="48.31307" lon="-4.21225">
        <ele>17.4</ele>
        <time>2020-06-08T14:48:39Z</time>
      </trkpt>
      <trkpt lat="48.31309" lon="-4.21236">
        <ele>17.1</ele>
        <time>2020-06-08T14:48:40Z</time>
      </trkpt>
      <trkpt lat="48.3131" lon="-4.21246">
        <ele>16.9</ele>
        <time>2020-06-08T14:48:41Z</time>
      </trkpt>
      <trkpt lat="48.31312" lon="-4.21257">
        <ele>16.6</ele>
        <time>2020-06-08T14:48:42Z</time>
      </trkpt>
      <trkpt lat="48.31313" lon="-4.21268">
        <ele>16.4</ele>
        <time>2020-06-08T14:48:43Z</time>
      </trkpt>
      <trkpt lat="48.31314" lon="-4.21279">
        <ele>15.9</ele>
        <time>2020-06-08T14:48:44Z</time>
      </trkpt>
      <trkpt lat="48.31316" lon="-4.2129">
        <ele>15.6</ele>
        <time>2020-06-08T14:48:45Z</time>
      </trkpt>
      <trkpt lat="48.31317" lon="-4.21301">
        <ele>15.3</ele>
        <time>2020-06-08T14:48:46Z</time>
      </trkpt>
      <trkpt lat="48.31318" lon="-4.21313">
        <ele>15</ele>
        <time>2020-06-08T14:48:47Z</time>
      </trkpt>
      <trkpt lat="48.31319" lon="-4.21324">
        <ele>14.7</ele>
        <time>2020-06-08T14:48:48Z</time>
      </trkpt>
      <trkpt lat="48.31321" lon="-4.21335">
        <ele>14.4</ele>
        <time>2020-06-08T14:48:49Z</time>
      </trkpt>
      <trkpt lat="48.31322" lon="-4.21347">
        <ele>14.1</ele>
        <time>2020-06-08T14:48:50Z</time>
      </trkpt>
      <trkpt lat="48.31324" lon="-4.2136">
        <ele>13.7</ele>
        <time>2020-06-08T14:48:51Z</time>
      </trkpt>
      <trkpt lat="48.31326" lon="-4.21372">
        <ele>13.3</ele>
        <time>2020-06-08T14:48:52Z</time>
      </trkpt>
      <trkpt lat="48.31328" lon="-4.21384">
        <ele>13</ele>
        <time>2020-06-08T14:48:53Z</time>
      </trkpt>
      <trkpt lat="48.31331" lon="-4.21397">
        <ele>12.6</ele>
        <time>2020-06-08T14:48:54Z</time>
      </trkpt>
      <trkpt lat="48.31333" lon="-4.21409">
        <ele>12.3</ele>
        <time>2020-06-08T14:48:55Z</time>
      </trkpt>
      <trkpt lat="48.31336" lon="-4.21422">
        <ele>12.1</ele>
        <time>2020-06-08T14:48:56Z</time>
      </trkpt>
      <trkpt lat="48.31338" lon="-4.21434">
        <ele>11.8</ele>
        <time>2020-06-08T14:48:57Z</time>
      </trkpt>
      <trkpt lat="48.31339" lon="-4.21446">
        <ele>11.5</ele>
        <time>2020-06-08T14:48:58Z</time>
      </trkpt>
      <trkpt lat="48.31341" lon="-4.21459">
        <ele>11.1</ele>
        <time>2020-06-08T14:48:59Z</time>
      </trkpt>
      <trkpt lat="48.31343" lon="-4.21472">
        <ele>10.8</ele>
        <time>2020-06-08T14:49:00Z</time>
      </trkpt>
      <trkpt lat="48.31345" lon="-4.21486">
        <ele>10.5</ele>
        <time>2020-06-08T14:49:01Z</time>
      </trkpt>
      <trkpt lat="48.31348" lon="-4.21499">
        <ele>10.2</ele>
        <time>2020-06-08T14:49:02Z</time>
      </trkpt>
      <trkpt lat="48.3135" lon="-4.21511">
        <ele>10</ele>
        <time>2020-06-08T14:49:03Z</time>
      </trkpt>
      <trkpt lat="48.31353" lon="-4.21524">
        <ele>9.7</ele>
        <time>2020-06-08T14:49:04Z</time>
      </trkpt>
      <trkpt lat="48.31356" lon="-4.21537">
        <ele>9.5</ele>
        <time>2020-06-08T14:49:05Z</time>
      </trkpt>
      <trkpt lat="48.31357" lon="-4.2155">
        <ele>9.2</ele>
        <time>2020-06-08T14:49:06Z</time>
      </trkpt>
      <trkpt lat="48.31359" lon="-4.21562">
        <ele>9</ele>
        <time>2020-06-08T14:49:07Z</time>
      </trkpt>
      <trkpt lat="48.31362" lon="-4.21575">
        <ele>8.8</ele>
        <time>2020-06-08T14:49:08Z</time>
      </trkpt>
      <trkpt lat="48.31364" lon="-4.21587">
        <ele>8.7</ele>
        <time>2020-06-08T14:49:09Z</time>
      </trkpt>
      <trkpt lat="48.31367" lon="-4.21597">
        <ele>8.5</ele>
        <time>2020-06-08T14:49:10Z</time>
      </trkpt>
      <trkpt lat="48.31369" lon="-4.21609">
        <ele>8.3</ele>
        <time>2020-06-08T14:49:11Z</time>
      </trkpt>
      <trkpt lat="48.3137" lon="-4.21621">
        <ele>8.1</ele>
        <time>2020-06-08T14:49:12Z</time>
      </trkpt>
      <trkpt lat="48.31372" lon="-4.21633">
        <ele>8</ele>
        <time>2020-06-08T14:49:13Z</time>
      </trkpt>
      <trkpt lat="48.31375" lon="-4.21643">
        <ele>7.9</ele>
        <time>2020-06-08T14:49:14Z</time>
      </trkpt>
      <trkpt lat="48.31377" lon="-4.21653">
        <ele>7.8</ele>
        <time>2020-06-08T14:49:15Z</time>
      </trkpt>
      <trkpt lat="48.3138" lon="-4.21664">
        <ele>7.7</ele>
        <time>2020-06-08T14:49:16Z</time>
      </trkpt>
      <trkpt lat="48.31383" lon="-4.21674">
        <ele>7.6</ele>
        <time>2020-06-08T14:49:17Z</time>
      </trkpt>
      <trkpt lat="48.31385" lon="-4.21684">
        <ele>7.6</ele>
        <time>2020-06-08T14:49:18Z</time>
      </trkpt>
      <trkpt lat="48.31387" lon="-4.21693">
        <ele>7.5</ele>
        <time>2020-06-08T14:49:19Z</time>
      </trkpt>
      <trkpt lat="48.31389" lon="-4.21703">
        <ele>7.5</ele>
        <time>2020-06-08T14:49:20Z</time>
      </trkpt>
      <trkpt lat="48.31391" lon="-4.21712">
        <ele>7.4</ele>
        <time>2020-06-08T14:49:21Z</time>
      </trkpt>
      <trkpt lat="48.31393" lon="-4.21721">
        <ele>7.4</ele>
        <time>2020-06-08T14:49:22Z</time>
      </trkpt>
      <trkpt lat="48.31394" lon="-4.2173">
        <ele>7.3</ele>
        <time>2020-06-08T14:49:23Z</time>
      </trkpt>
      <trkpt lat="48.31396" lon="-4.21739">
        <ele>7.3</ele>
        <time>2020-06-08T14:49:24Z</time>
      </trkpt>
      <trkpt lat="48.31398" lon="-4.21748">
        <ele>7.2</ele>
        <time>2020-06-08T14:49:25Z</time>
      </trkpt>
      <trkpt lat="48.31401" lon="-4.21756">
        <ele>7.3</ele>
        <time>2020-06-08T14:49:26Z</time>
      </trkpt>
      <trkpt lat="48.31402" lon="-4.21766">
        <ele>7.3</ele>
        <time>2020-06-08T14:49:27Z</time>
      </trkpt>
      <trkpt lat="48.31405" lon="-4.21775">
        <ele>7.4</ele>
        <time>2020-06-08T14:49:28Z</time>
      </trkpt>
      <trkpt lat="48.31406" lon="-4.21784">
        <ele>7.4</ele>
        <time>2020-06-08T14:49:29Z</time>
      </trkpt>
      <trkpt lat="48.31407" lon="-4.21793">
        <ele>7.5</ele>
        <time>2020-06-08T14:49:30Z</time>
      </trkpt>
      <trkpt lat="48.31409" lon="-4.21801">
        <ele>7.5</ele>
        <time>2020-06-08T14:49:31Z</time>
      </trkpt>
      <trkpt lat="48.31411" lon="-4.21809">
        <ele>7.6</ele>
        <time>2020-06-08T14:49:32Z</time>
      </trkpt>
      <trkpt lat="48.31411" lon="-4.21818">
        <ele>7.6</ele>
        <time>2020-06-08T14:49:33Z</time>
      </trkpt>
      <trkpt lat="48.31413" lon="-4.21826">
        <ele>7.7</ele>
        <time>2020-06-08T14:49:34Z</time>
      </trkpt>
      <trkpt lat="48.31415" lon="-4.21834">
        <ele>7.8</ele>
        <time>2020-06-08T14:49:35Z</time>
      </trkpt>
      <trkpt lat="48.31417" lon="-4.21842">
        <ele>7.9</ele>
        <time>2020-06-08T14:49:36Z</time>
      </trkpt>
      <trkpt lat="48.31418" lon="-4.21849">
        <ele>7.9</ele>
        <time>2020-06-08T14:49:37Z</time>
      </trkpt>
      <trkpt lat="48.31419" lon="-4.21858">
        <ele>8</ele>
        <time>2020-06-08T14:49:38Z</time>
      </trkpt>
      <trkpt lat="48.3142" lon="-4.21866">
        <ele>8.1</ele>
        <time>2020-06-08T14:49:39Z</time>
      </trkpt>
      <trkpt lat="48.31421" lon="-4.21874">
        <ele>8.2</ele>
        <time>2020-06-08T14:49:40Z</time>
      </trkpt>
      <trkpt lat="48.31424" lon="-4.2188">
        <ele>8.3</ele>
        <time>2020-06-08T14:49:41Z</time>
      </trkpt>
      <trkpt lat="48.31426" lon="-4.21888">
        <ele>8.4</ele>
        <time>2020-06-08T14:49:42Z</time>
      </trkpt>
      <trkpt lat="48.31428" lon="-4.21895">
        <ele>8.6</ele>
        <time>2020-06-08T14:49:43Z</time>
      </trkpt>
      <trkpt lat="48.31432" lon="-4.21902">
        <ele>8.7</ele>
        <time>2020-06-08T14:49:44Z</time>
      </trkpt>
      <trkpt lat="48.31433" lon="-4.21909">
        <ele>8.8</ele>
        <time>2020-06-08T14:49:45Z</time>
      </trkpt>
      <trkpt lat="48.31435" lon="-4.21918">
        <ele>8.9</ele>
        <time>2020-06-08T14:49:46Z</time>
      </trkpt>
      <trkpt lat="48.31436" lon="-4.21925">
        <ele>9.1</ele>
        <time>2020-06-08T14:49:47Z</time>
      </trkpt>
      <trkpt lat="48.31438" lon="-4.21932">
        <ele>9.2</ele>
        <time>2020-06-08T14:49:48Z</time>
      </trkpt>
      <trkpt lat="48.3144" lon="-4.21938">
        <ele>9.4</ele>
        <time>2020-06-08T14:49:49Z</time>
      </trkpt>
      <trkpt lat="48.31441" lon="-4.21945">
        <ele>9.6</ele>
        <time>2020-06-08T14:49:50Z</time>
      </trkpt>
      <trkpt lat="48.31442" lon="-4.21952">
        <ele>9.9</ele>
        <time>2020-06-08T14:49:51Z</time>
      </trkpt>
      <trkpt lat="48.31445" lon="-4.21959">
        <ele>10.2</ele>
        <time>2020-06-08T14:49:52Z</time>
      </trkpt>
      <trkpt lat="48.31446" lon="-4.21966">
        <ele>10.6</ele>
        <time>2020-06-08T14:49:53Z</time>
      </trkpt>
      <trkpt lat="48.31448" lon="-4.21973">
        <ele>10.6</ele>
        <time>2020-06-08T14:49:54Z</time>
      </trkpt>
      <trkpt lat="48.31449" lon="-4.2198">
        <ele>10.6</ele>
        <time>2020-06-08T14:49:55Z</time>
      </trkpt>
      <trkpt lat="48.31451" lon="-4.21986">
        <ele>10.7</ele>
        <time>2020-06-08T14:49:56Z</time>
      </trkpt>
      <trkpt lat="48.31453" lon="-4.21992">
        <ele>10.7</ele>
        <time>2020-06-08T14:49:57Z</time>
      </trkpt>
      <trkpt lat="48.31454" lon="-4.21999">
        <ele>10.9</ele>
        <time>2020-06-08T14:49:58Z</time>
      </trkpt>
      <trkpt lat="48.31455" lon="-4.22005">
        <ele>11.1</ele>
        <time>2020-06-08T14:49:59Z</time>
      </trkpt>
      <trkpt lat="48.31455" lon="-4.22012">
        <ele>11.3</ele>
        <time>2020-06-08T14:50:00Z</time>
      </trkpt>
      <trkpt lat="48.31456" lon="-4.22018">
        <ele>11.4</ele>
        <time>2020-06-08T14:50:01Z</time>
      </trkpt>
      <trkpt lat="48.31457" lon="-4.22024">
        <ele>11.6</ele>
        <time>2020-06-08T14:50:02Z</time>
      </trkpt>
      <trkpt lat="48.31459" lon="-4.2203">
        <ele>11.8</ele>
        <time>2020-06-08T14:50:03Z</time>
      </trkpt>
      <trkpt lat="48.3146" lon="-4.22036">
        <ele>11.9</ele>
        <time>2020-06-08T14:50:04Z</time>
      </trkpt>
      <trkpt lat="48.3146" lon="-4.22041">
        <ele>12.1</ele>
        <time>2020-06-08T14:50:05Z</time>
      </trkpt>
      <trkpt lat="48.31461" lon="-4.22047">
        <ele>12.2</ele>
        <time>2020-06-08T14:50:06Z</time>
      </trkpt>
      <trkpt lat="48.31462" lon="-4.22052">
        <ele>12.4</ele>
        <time>2020-06-08T14:50:07Z</time>
      </trkpt>
      <trkpt lat="48.31463" lon="-4.22058">
        <ele>12.5</ele>
        <time>2020-06-08T14:50:08Z</time>
      </trkpt>
      <trkpt lat="48.31464" lon="-4.22064">
        <ele>12.8</ele>
        <time>2020-06-08T14:50:09Z</time>
      </trkpt>
      <trkpt lat="48.31465" lon="-4.2207">
        <ele>13</ele>
        <time>2020-06-08T14:50:10Z</time>
      </trkpt>
      <trkpt lat="48.31465" lon="-4.22076">
        <ele>13.2</ele>
        <time>2020-06-08T14:50:11Z</time>
      </trkpt>
      <trkpt lat="48.31466" lon="-4.22082">
        <ele>13.5</ele>
        <time>2020-06-08T14:50:12Z</time>
      </trkpt>
      <trkpt lat="48.31466" lon="-4.22087">
        <ele>13.6</ele>
        <time>2020-06-08T14:50:13Z</time>
      </trkpt>
      <trkpt lat="48.31467" lon="-4.22092">
        <ele>13.8</ele>
        <time>2020-06-08T14:50:14Z</time>
      </trkpt>
      <trkpt lat="48.31467" lon="-4.22097">
        <ele>14</ele>
        <time>2020-06-08T14:50:15Z</time>
      </trkpt>
      <trkpt lat="48.31467" lon="-4.22103">
        <ele>14.2</ele>
        <time>2020-06-08T14:50:16Z</time>
      </trkpt>
      <trkpt lat="48.31467" lon="-4.22108">
        <ele>14.4</ele>
        <time>2020-06-08T14:50:17Z</time>
      </trkpt>
      <trkpt lat="48.31467" lon="-4.22113">
        <ele>14.5</ele>
        <time>2020-06-08T14:50:18Z</time>
      </trkpt>
      <trkpt lat="48.31468" lon="-4.22117">
        <ele>14.5</ele>
        <time>2020-06-08T14:50:19Z</time>
      </trkpt>
      <trkpt lat="48.31469" lon="-4.22122">
        <ele>14.6</ele>
        <time>2020-06-08T14:50:20Z</time>
      </trkpt>
      <trkpt lat="48.31469" lon="-4.22127">
        <ele>14.6</ele>
        <time>2020-06-08T14:50:21Z</time>
      </trkpt>
      <trkpt lat="48.31469" lon="-4.22132">
        <ele>14.7</ele>
        <time>2020-06-08T14:50:22Z</time>
      </trkpt>
      <trkpt lat="48.3147" lon="-4.22137">
        <ele>14.8</ele>
        <time>2020-06-08T14:50:23Z</time>
      </trkpt>
      <trkpt lat="48.31471" lon="-4.22141">
        <ele>14.8</ele>
        <time>2020-06-08T14:50:24Z</time>
      </trkpt>
      <trkpt lat="48.31471" lon="-4.22147">
        <ele>14.9</ele>
        <time>2020-06-08T14:50:25Z</time>
      </trkpt>
      <trkpt lat="48.31471" lon="-4.22152">
        <ele>15</ele>
        <time>2020-06-08T14:50:26Z</time>
      </trkpt>
      <trkpt lat="48.31471" lon="-4.22158">
        <ele>15.2</ele>
        <time>2020-06-08T14:50:27Z</time>
      </trkpt>
      <trkpt lat="48.31471" lon="-4.22166">
        <ele>15.4</ele>
        <time>2020-06-08T14:50:28Z</time>
      </trkpt>
      <trkpt lat="48.3147" lon="-4.22174">
        <ele>15.5</ele>
        <time>2020-06-08T14:50:29Z</time>
      </trkpt>
      <trkpt lat="48.3147" lon="-4.22181">
        <ele>15.7</ele>
        <time>2020-06-08T14:50:30Z</time>
      </trkpt>
      <trkpt lat="48.31469" lon="-4.22184">
        <ele>15.8</ele>
        <time>2020-06-08T14:50:31Z</time>
      </trkpt>
      <trkpt lat="48.31469" lon="-4.22191">
        <ele>16</ele>
        <time>2020-06-08T14:50:32Z</time>
      </trkpt>
      <trkpt lat="48.31469" lon="-4.22198">
        <ele>16.1</ele>
        <time>2020-06-08T14:50:33Z</time>
      </trkpt>
      <trkpt lat="48.31468" lon="-4.22205">
        <ele>16.3</ele>
        <time>2020-06-08T14:50:34Z</time>
      </trkpt>
      <trkpt lat="48.31468" lon="-4.22209">
        <ele>16.4</ele>
        <time>2020-06-08T14:50:35Z</time>
      </trkpt>
      <trkpt lat="48.31467" lon="-4.22214">
        <ele>16.5</ele>
        <time>2020-06-08T14:50:36Z</time>
      </trkpt>
      <trkpt lat="48.31467" lon="-4.2222">
        <ele>16.6</ele>
        <time>2020-06-08T14:50:37Z</time>
      </trkpt>
      <trkpt lat="48.31467" lon="-4.22226">
        <ele>16.8</ele>
        <time>2020-06-08T14:50:38Z</time>
      </trkpt>
      <trkpt lat="48.31467" lon="-4.22231">
        <ele>16.9</ele>
        <time>2020-06-08T14:50:39Z</time>
      </trkpt>
      <trkpt lat="48.31467" lon="-4.22236">
        <ele>17</ele>
        <time>2020-06-08T14:50:40Z</time>
      </trkpt>
      <trkpt lat="48.31467" lon="-4.22243">
        <ele>17.1</ele>
        <time>2020-06-08T14:50:41Z</time>
      </trkpt>
      <trkpt lat="48.31467" lon="-4.22247">
        <ele>17.3</ele>
        <time>2020-06-08T14:50:42Z</time>
      </trkpt>
      <trkpt lat="48.31466" lon="-4.22253">
        <ele>17.4</ele>
        <time>2020-06-08T14:50:43Z</time>
      </trkpt>
      <trkpt lat="48.31467" lon="-4.22259">
        <ele>17.5</ele>
        <time>2020-06-08T14:50:44Z</time>
      </trkpt>
      <trkpt lat="48.31467" lon="-4.22266">
        <ele>17.7</ele>
        <time>2020-06-08T14:50:45Z</time>
      </trkpt>
      <trkpt lat="48.31467" lon="-4.22271">
        <ele>17.8</ele>
        <time>2020-06-08T14:50:46Z</time>
      </trkpt>
      <trkpt lat="48.31467" lon="-4.22278">
        <ele>18</ele>
        <time>2020-06-08T14:50:47Z</time>
      </trkpt>
      <trkpt lat="48.31467" lon="-4.22284">
        <ele>18.1</ele>
        <time>2020-06-08T14:50:48Z</time>
      </trkpt>
      <trkpt lat="48.31468" lon="-4.22289">
        <ele>18.2</ele>
        <time>2020-06-08T14:50:49Z</time>
      </trkpt>
      <trkpt lat="48.31468" lon="-4.22294">
        <ele>18.3</ele>
        <time>2020-06-08T14:50:50Z</time>
      </trkpt>
      <trkpt lat="48.31468" lon="-4.22298">
        <ele>18.3</ele>
        <time>2020-06-08T14:50:51Z</time>
      </trkpt>
      <trkpt lat="48.31468" lon="-4.22304">
        <ele>18.5</ele>
        <time>2020-06-08T14:50:52Z</time>
      </trkpt>
      <trkpt lat="48.31468" lon="-4.22311">
        <ele>18.6</ele>
        <time>2020-06-08T14:50:53Z</time>
      </trkpt>
      <trkpt lat="48.31468" lon="-4.22318">
        <ele>18.8</ele>
        <time>2020-06-08T14:50:54Z</time>
      </trkpt>
      <trkpt lat="48.31468" lon="-4.22325">
        <ele>18.9</ele>
        <time>2020-06-08T14:50:55Z</time>
      </trkpt>
      <trkpt lat="48.31468" lon="-4.2233">
        <ele>19.1</ele>
        <time>2020-06-08T14:50:56Z</time>
      </trkpt>
      <trkpt lat="48.31468" lon="-4.22334">
        <ele>19.2</ele>
        <time>2020-06-08T14:50:57Z</time>
      </trkpt>
      <trkpt lat="48.31468" lon="-4.22339">
        <ele>19.3</ele>
        <time>2020-06-08T14:50:58Z</time>
      </trkpt>
      <trkpt lat="48.31468" lon="-4.22345">
        <ele>19.4</ele>
        <time>2020-06-08T14:50:59Z</time>
      </trkpt>
      <trkpt lat="48.31467" lon="-4.2235">
        <ele>19.6</ele>
        <time>2020-06-08T14:51:00Z</time>
      </trkpt>
      <trkpt lat="48.31466" lon="-4.22355">
        <ele>19.7</ele>
        <time>2020-06-08T14:51:01Z</time>
      </trkpt>
      <trkpt lat="48.31466" lon="-4.22362">
        <ele>19.9</ele>
        <time>2020-06-08T14:51:02Z</time>
      </trkpt>
      <trkpt lat="48.31466" lon="-4.22368">
        <ele>20.1</ele>
        <time>2020-06-08T14:51:03Z</time>
      </trkpt>
      <trkpt lat="48.31466" lon="-4.22374">
        <ele>20.2</ele>
        <time>2020-06-08T14:51:04Z</time>
      </trkpt>
      <trkpt lat="48.31465" lon="-4.22376">
        <ele>20.2</ele>
        <time>2020-06-08T14:51:05Z</time>
      </trkpt>
      <trkpt lat="48.31465" lon="-4.22382">
        <ele>20.4</ele>
        <time>2020-06-08T14:51:06Z</time>
      </trkpt>
      <trkpt lat="48.31465" lon="-4.22384">
        <ele>20.4</ele>
        <time>2020-06-08T14:51:07Z</time>
      </trkpt>
      <trkpt lat="48.31465" lon="-4.22389">
        <ele>20.5</ele>
        <time>2020-06-08T14:51:08Z</time>
      </trkpt>
      <trkpt lat="48.31464" lon="-4.22394">
        <ele>20.6</ele>
        <time>2020-06-08T14:51:09Z</time>
      </trkpt>
      <trkpt lat="48.31464" lon="-4.22399">
        <ele>20.8</ele>
        <time>2020-06-08T14:51:10Z</time>
      </trkpt>
      <trkpt lat="48.31463" lon="-4.22404">
        <ele>20.9</ele>
        <time>2020-06-08T14:51:11Z</time>
      </trkpt>
      <trkpt lat="48.31463" lon="-4.22409">
        <ele>21</ele>
        <time>2020-06-08T14:51:12Z</time>
      </trkpt>
      <trkpt lat="48.31463" lon="-4.22416">
        <ele>21.2</ele>
        <time>2020-06-08T14:51:13Z</time>
      </trkpt>
      <trkpt lat="48.31462" lon="-4.22422">
        <ele>21.4</ele>
        <time>2020-06-08T14:51:14Z</time>
      </trkpt>
      <trkpt lat="48.31461" lon="-4.22428">
        <ele>21.5</ele>
        <time>2020-06-08T14:51:15Z</time>
      </trkpt>
      <trkpt lat="48.3146" lon="-4.2243">
        <ele>21.6</ele>
        <time>2020-06-08T14:51:16Z</time>
      </trkpt>
      <trkpt lat="48.3146" lon="-4.22438">
        <ele>21.8</ele>
        <time>2020-06-08T14:51:17Z</time>
      </trkpt>
      <trkpt lat="48.3146" lon="-4.22445">
        <ele>22</ele>
        <time>2020-06-08T14:51:18Z</time>
      </trkpt>
      <trkpt lat="48.3146" lon="-4.22452">
        <ele>22.2</ele>
        <time>2020-06-08T14:51:19Z</time>
      </trkpt>
      <trkpt lat="48.31459" lon="-4.22458">
        <ele>22.3</ele>
        <time>2020-06-08T14:51:20Z</time>
      </trkpt>
      <trkpt lat="48.31459" lon="-4.22464">
        <ele>22.5</ele>
        <time>2020-06-08T14:51:21Z</time>
      </trkpt>
      <trkpt lat="48.31459" lon="-4.2247">
        <ele>22.6</ele>
        <time>2020-06-08T14:51:22Z</time>
      </trkpt>
      <trkpt lat="48.31459" lon="-4.22475">
        <ele>22.8</ele>
        <time>2020-06-08T14:51:23Z</time>
      </trkpt>
      <trkpt lat="48.31459" lon="-4.22479">
        <ele>22.9</ele>
        <time>2020-06-08T14:51:24Z</time>
      </trkpt>
      <trkpt lat="48.31459" lon="-4.22481">
        <ele>22.9</ele>
        <time>2020-06-08T14:51:25Z</time>
      </trkpt>
      <trkpt lat="48.31459" lon="-4.22487">
        <ele>23.1</ele>
        <time>2020-06-08T14:51:26Z</time>
      </trkpt>
      <trkpt lat="48.3146" lon="-4.22493">
        <ele>23.2</ele>
        <time>2020-06-08T14:51:27Z</time>
      </trkpt>
      <trkpt lat="48.3146" lon="-4.225">
        <ele>23.4</ele>
        <time>2020-06-08T14:51:28Z</time>
      </trkpt>
      <trkpt lat="48.3146" lon="-4.22506">
        <ele>23.6</ele>
        <time>2020-06-08T14:51:29Z</time>
      </trkpt>
      <trkpt lat="48.3146" lon="-4.22511">
        <ele>23.7</ele>
        <time>2020-06-08T14:51:30Z</time>
      </trkpt>
      <trkpt lat="48.3146" lon="-4.22516">
        <ele>23.9</ele>
        <time>2020-06-08T14:51:31Z</time>
      </trkpt>
      <trkpt lat="48.31461" lon="-4.22522">
        <ele>24</ele>
        <time>2020-06-08T14:51:32Z</time>
      </trkpt>
      <trkpt lat="48.31461" lon="-4.22528">
        <ele>24.2</ele>
        <time>2020-06-08T14:51:33Z</time>
      </trkpt>
      <trkpt lat="48.31461" lon="-4.22533">
        <ele>24.4</ele>
        <time>2020-06-08T14:51:34Z</time>
      </trkpt>
      <trkpt lat="48.31461" lon="-4.22538">
        <ele>24.5</ele>
        <time>2020-06-08T14:51:35Z</time>
      </trkpt>
      <trkpt lat="48.31461" lon="-4.22544">
        <ele>24.7</ele>
        <time>2020-06-08T14:51:36Z</time>
      </trkpt>
      <trkpt lat="48.3146" lon="-4.2255">
        <ele>24.9</ele>
        <time>2020-06-08T14:51:37Z</time>
      </trkpt>
      <trkpt lat="48.3146" lon="-4.22557">
        <ele>25.1</ele>
        <time>2020-06-08T14:51:38Z</time>
      </trkpt>
      <trkpt lat="48.31459" lon="-4.22561">
        <ele>25.2</ele>
        <time>2020-06-08T14:51:39Z</time>
      </trkpt>
      <trkpt lat="48.31459" lon="-4.22567">
        <ele>25.3</ele>
        <time>2020-06-08T14:51:40Z</time>
      </trkpt>
      <trkpt lat="48.31459" lon="-4.22569">
        <ele>25.4</ele>
        <time>2020-06-08T14:51:41Z</time>
      </trkpt>
      <trkpt lat="48.31459" lon="-4.22576">
        <ele>25.5</ele>
        <time>2020-06-08T14:51:42Z</time>
      </trkpt>
      <trkpt lat="48.31458" lon="-4.22578">
        <ele>25.6</ele>
        <time>2020-06-08T14:51:43Z</time>
      </trkpt>
      <trkpt lat="48.31458" lon="-4.22583">
        <ele>25.7</ele>
        <time>2020-06-08T14:51:44Z</time>
      </trkpt>
      <trkpt lat="48.31458" lon="-4.2259">
        <ele>25.9</ele>
        <time>2020-06-08T14:51:45Z</time>
      </trkpt>
      <trkpt lat="48.31458" lon="-4.22593">
        <ele>25.9</ele>
        <time>2020-06-08T14:51:46Z</time>
      </trkpt>
      <trkpt lat="48.31458" lon="-4.22599">
        <ele>26.1</ele>
        <time>2020-06-08T14:51:47Z</time>
      </trkpt>
      <trkpt lat="48.31459" lon="-4.22604">
        <ele>26.2</ele>
        <time>2020-06-08T14:51:48Z</time>
      </trkpt>
      <trkpt lat="48.31459" lon="-4.22608">
        <ele>26.2</ele>
        <time>2020-06-08T14:51:49Z</time>
      </trkpt>
      <trkpt lat="48.31458" lon="-4.22614">
        <ele>26.3</ele>
        <time>2020-06-08T14:51:50Z</time>
      </trkpt>
      <trkpt lat="48.31459" lon="-4.22616">
        <ele>26.4</ele>
        <time>2020-06-08T14:51:51Z</time>
      </trkpt>
      <trkpt lat="48.3146" lon="-4.22624">
        <ele>26.5</ele>
        <time>2020-06-08T14:51:52Z</time>
      </trkpt>
      <trkpt lat="48.31461" lon="-4.2263">
        <ele>26.6</ele>
        <time>2020-06-08T14:51:53Z</time>
      </trkpt>
      <trkpt lat="48.31462" lon="-4.22636">
        <ele>26.7</ele>
        <time>2020-06-08T14:51:54Z</time>
      </trkpt>
      <trkpt lat="48.31462" lon="-4.22641">
        <ele>26.8</ele>
        <time>2020-06-08T14:51:55Z</time>
      </trkpt>
      <trkpt lat="48.31463" lon="-4.22646">
        <ele>26.8</ele>
        <time>2020-06-08T14:51:56Z</time>
      </trkpt>
      <trkpt lat="48.31463" lon="-4.22654">
        <ele>27</ele>
        <time>2020-06-08T14:51:57Z</time>
      </trkpt>
      <trkpt lat="48.31462" lon="-4.22659">
        <ele>27</ele>
        <time>2020-06-08T14:51:58Z</time>
      </trkpt>
      <trkpt lat="48.31463" lon="-4.22664">
        <ele>27.1</ele>
        <time>2020-06-08T14:51:59Z</time>
      </trkpt>
      <trkpt lat="48.31464" lon="-4.2267">
        <ele>27.2</ele>
        <time>2020-06-08T14:52:00Z</time>
      </trkpt>
      <trkpt lat="48.31465" lon="-4.22675">
        <ele>27.2</ele>
        <time>2020-06-08T14:52:01Z</time>
      </trkpt>
      <trkpt lat="48.31465" lon="-4.2268">
        <ele>27.2</ele>
        <time>2020-06-08T14:52:02Z</time>
      </trkpt>
      <trkpt lat="48.31465" lon="-4.22685">
        <ele>27.2</ele>
        <time>2020-06-08T14:52:03Z</time>
      </trkpt>
      <trkpt lat="48.31466" lon="-4.2269">
        <ele>27.3</ele>
        <time>2020-06-08T14:52:04Z</time>
      </trkpt>
      <trkpt lat="48.31466" lon="-4.22695">
        <ele>27.3</ele>
        <time>2020-06-08T14:52:05Z</time>
      </trkpt>
      <trkpt lat="48.31467" lon="-4.22701">
        <ele>27.3</ele>
        <time>2020-06-08T14:52:06Z</time>
      </trkpt>
      <trkpt lat="48.31468" lon="-4.22708">
        <ele>27.3</ele>
        <time>2020-06-08T14:52:07Z</time>
      </trkpt>
      <trkpt lat="48.31469" lon="-4.22713">
        <ele>27.2</ele>
        <time>2020-06-08T14:52:08Z</time>
      </trkpt>
      <trkpt lat="48.3147" lon="-4.22719">
        <ele>27.2</ele>
        <time>2020-06-08T14:52:09Z</time>
      </trkpt>
      <trkpt lat="48.31471" lon="-4.22725">
        <ele>27.2</ele>
        <time>2020-06-08T14:52:10Z</time>
      </trkpt>
      <trkpt lat="48.31472" lon="-4.22727">
        <ele>27.1</ele>
        <time>2020-06-08T14:52:11Z</time>
      </trkpt>
      <trkpt lat="48.31473" lon="-4.22734">
        <ele>27.1</ele>
        <time>2020-06-08T14:52:12Z</time>
      </trkpt>
      <trkpt lat="48.31474" lon="-4.2274">
        <ele>27</ele>
        <time>2020-06-08T14:52:13Z</time>
      </trkpt>
      <trkpt lat="48.31476" lon="-4.22746">
        <ele>27</ele>
        <time>2020-06-08T14:52:14Z</time>
      </trkpt>
      <trkpt lat="48.31477" lon="-4.22753">
        <ele>26.9</ele>
        <time>2020-06-08T14:52:15Z</time>
      </trkpt>
      <trkpt lat="48.31477" lon="-4.2276">
        <ele>26.8</ele>
        <time>2020-06-08T14:52:16Z</time>
      </trkpt>
      <trkpt lat="48.31477" lon="-4.22764">
        <ele>26.8</ele>
        <time>2020-06-08T14:52:17Z</time>
      </trkpt>
      <trkpt lat="48.31478" lon="-4.2277">
        <ele>26.7</ele>
        <time>2020-06-08T14:52:18Z</time>
      </trkpt>
      <trkpt lat="48.31479" lon="-4.22776">
        <ele>26.6</ele>
        <time>2020-06-08T14:52:19Z</time>
      </trkpt>
      <trkpt lat="48.3148" lon="-4.22784">
        <ele>26.5</ele>
        <time>2020-06-08T14:52:20Z</time>
      </trkpt>
      <trkpt lat="48.31481" lon="-4.22789">
        <ele>26.5</ele>
        <time>2020-06-08T14:52:21Z</time>
      </trkpt>
      <trkpt lat="48.31484" lon="-4.22796">
        <ele>26.4</ele>
        <time>2020-06-08T14:52:22Z</time>
      </trkpt>
      <trkpt lat="48.31486" lon="-4.22803">
        <ele>26.3</ele>
        <time>2020-06-08T14:52:23Z</time>
      </trkpt>
      <trkpt lat="48.31489" lon="-4.22811">
        <ele>26.2</ele>
        <time>2020-06-08T14:52:24Z</time>
      </trkpt>
      <trkpt lat="48.31492" lon="-4.22818">
        <ele>26.1</ele>
        <time>2020-06-08T14:52:25Z</time>
      </trkpt>
      <trkpt lat="48.31495" lon="-4.22828">
        <ele>26.1</ele>
        <time>2020-06-08T14:52:26Z</time>
      </trkpt>
      <trkpt lat="48.31499" lon="-4.22835">
        <ele>26</ele>
        <time>2020-06-08T14:52:27Z</time>
      </trkpt>
      <trkpt lat="48.31502" lon="-4.2284">
        <ele>25.8</ele>
        <time>2020-06-08T14:52:28Z</time>
      </trkpt>
      <trkpt lat="48.31507" lon="-4.22846">
        <ele>25.6</ele>
        <time>2020-06-08T14:52:29Z</time>
      </trkpt>
      <trkpt lat="48.31512" lon="-4.22852">
        <ele>25.4</ele>
        <time>2020-06-08T14:52:30Z</time>
      </trkpt>
      <trkpt lat="48.31518" lon="-4.22858">
        <ele>25.2</ele>
        <time>2020-06-08T14:52:31Z</time>
      </trkpt>
      <trkpt lat="48.31523" lon="-4.22864">
        <ele>25</ele>
        <time>2020-06-08T14:52:32Z</time>
      </trkpt>
      <trkpt lat="48.31529" lon="-4.22868">
        <ele>24.9</ele>
        <time>2020-06-08T14:52:33Z</time>
      </trkpt>
      <trkpt lat="48.31535" lon="-4.22873">
        <ele>24.7</ele>
        <time>2020-06-08T14:52:34Z</time>
      </trkpt>
      <trkpt lat="48.31541" lon="-4.22877">
        <ele>24.5</ele>
        <time>2020-06-08T14:52:35Z</time>
      </trkpt>
      <trkpt lat="48.31546" lon="-4.2288">
        <ele>24.3</ele>
        <time>2020-06-08T14:52:36Z</time>
      </trkpt>
      <trkpt lat="48.31552" lon="-4.22883">
        <ele>24.2</ele>
        <time>2020-06-08T14:52:37Z</time>
      </trkpt>
      <trkpt lat="48.31558" lon="-4.22886">
        <ele>23.9</ele>
        <time>2020-06-08T14:52:38Z</time>
      </trkpt>
      <trkpt lat="48.31564" lon="-4.22887">
        <ele>23.7</ele>
        <time>2020-06-08T14:52:39Z</time>
      </trkpt>
      <trkpt lat="48.31571" lon="-4.22887">
        <ele>23.5</ele>
        <time>2020-06-08T14:52:40Z</time>
      </trkpt>
      <trkpt lat="48.31578" lon="-4.22889">
        <ele>23.3</ele>
        <time>2020-06-08T14:52:41Z</time>
      </trkpt>
      <trkpt lat="48.31584" lon="-4.22888">
        <ele>23.1</ele>
        <time>2020-06-08T14:52:42Z</time>
      </trkpt>
      <trkpt lat="48.3159" lon="-4.22887">
        <ele>22.9</ele>
        <time>2020-06-08T14:52:43Z</time>
      </trkpt>
      <trkpt lat="48.31597" lon="-4.22886">
        <ele>22.7</ele>
        <time>2020-06-08T14:52:44Z</time>
      </trkpt>
      <trkpt lat="48.31604" lon="-4.22885">
        <ele>22.5</ele>
        <time>2020-06-08T14:52:45Z</time>
      </trkpt>
      <trkpt lat="48.31609" lon="-4.22882">
        <ele>22.3</ele>
        <time>2020-06-08T14:52:46Z</time>
      </trkpt>
      <trkpt lat="48.31615" lon="-4.22879">
        <ele>22.1</ele>
        <time>2020-06-08T14:52:47Z</time>
      </trkpt>
      <trkpt lat="48.3162" lon="-4.22875">
        <ele>22</ele>
        <time>2020-06-08T14:52:48Z</time>
      </trkpt>
      <trkpt lat="48.31624" lon="-4.22873">
        <ele>21.8</ele>
        <time>2020-06-08T14:52:49Z</time>
      </trkpt>
      <trkpt lat="48.31629" lon="-4.22869">
        <ele>21.6</ele>
        <time>2020-06-08T14:52:50Z</time>
      </trkpt>
      <trkpt lat="48.31632" lon="-4.22866">
        <ele>21.5</ele>
        <time>2020-06-08T14:52:51Z</time>
      </trkpt>
      <trkpt lat="48.31638" lon="-4.2286">
        <ele>21.2</ele>
        <time>2020-06-08T14:52:52Z</time>
      </trkpt>
      <trkpt lat="48.31642" lon="-4.22855">
        <ele>21</ele>
        <time>2020-06-08T14:52:53Z</time>
      </trkpt>
      <trkpt lat="48.31649" lon="-4.22851">
        <ele>20.7</ele>
        <time>2020-06-08T14:52:54Z</time>
      </trkpt>
      <trkpt lat="48.31654" lon="-4.22846">
        <ele>20.4</ele>
        <time>2020-06-08T14:52:55Z</time>
      </trkpt>
      <trkpt lat="48.31659" lon="-4.22841">
        <ele>20.2</ele>
        <time>2020-06-08T14:52:56Z</time>
      </trkpt>
      <trkpt lat="48.31665" lon="-4.22836">
        <ele>19.9</ele>
        <time>2020-06-08T14:52:57Z</time>
      </trkpt>
      <trkpt lat="48.31669" lon="-4.22831">
        <ele>19.6</ele>
        <time>2020-06-08T14:52:58Z</time>
      </trkpt>
      <trkpt lat="48.31673" lon="-4.22826">
        <ele>19.4</ele>
        <time>2020-06-08T14:52:59Z</time>
      </trkpt>
      <trkpt lat="48.31677" lon="-4.22821">
        <ele>19.1</ele>
        <time>2020-06-08T14:53:00Z</time>
      </trkpt>
      <trkpt lat="48.31681" lon="-4.22816">
        <ele>18.9</ele>
        <time>2020-06-08T14:53:01Z</time>
      </trkpt>
      <trkpt lat="48.31685" lon="-4.22811">
        <ele>18.7</ele>
        <time>2020-06-08T14:53:02Z</time>
      </trkpt>
      <trkpt lat="48.3169" lon="-4.22807">
        <ele>18.5</ele>
        <time>2020-06-08T14:53:03Z</time>
      </trkpt>
      <trkpt lat="48.31694" lon="-4.22802">
        <ele>18.3</ele>
        <time>2020-06-08T14:53:04Z</time>
      </trkpt>
      <trkpt lat="48.31698" lon="-4.22799">
        <ele>18.1</ele>
        <time>2020-06-08T14:53:05Z</time>
      </trkpt>
      <trkpt lat="48.31705" lon="-4.22795">
        <ele>17.8</ele>
        <time>2020-06-08T14:53:06Z</time>
      </trkpt>
      <trkpt lat="48.3171" lon="-4.22791">
        <ele>17.6</ele>
        <time>2020-06-08T14:53:07Z</time>
      </trkpt>
      <trkpt lat="48.31715" lon="-4.22788">
        <ele>17.5</ele>
        <time>2020-06-08T14:53:08Z</time>
      </trkpt>
      <trkpt lat="48.31721" lon="-4.22785">
        <ele>17.3</ele>
        <time>2020-06-08T14:53:09Z</time>
      </trkpt>
      <trkpt lat="48.31727" lon="-4.22782">
        <ele>17.1</ele>
        <time>2020-06-08T14:53:10Z</time>
      </trkpt>
      <trkpt lat="48.31732" lon="-4.2278">
        <ele>16.9</ele>
        <time>2020-06-08T14:53:11Z</time>
      </trkpt>
      <trkpt lat="48.31738" lon="-4.22777">
        <ele>16.8</ele>
        <time>2020-06-08T14:53:12Z</time>
      </trkpt>
      <trkpt lat="48.31743" lon="-4.22775">
        <ele>16.6</ele>
        <time>2020-06-08T14:53:13Z</time>
      </trkpt>
      <trkpt lat="48.31746" lon="-4.22773">
        <ele>16.6</ele>
        <time>2020-06-08T14:53:14Z</time>
      </trkpt>
      <trkpt lat="48.31749" lon="-4.22772">
        <ele>16.5</ele>
        <time>2020-06-08T14:53:15Z</time>
      </trkpt>
      <trkpt lat="48.31753" lon="-4.22772">
        <ele>16.4</ele>
        <time>2020-06-08T14:53:16Z</time>
      </trkpt>
      <trkpt lat="48.31758" lon="-4.22773">
        <ele>16.3</ele>
        <time>2020-06-08T14:53:17Z</time>
      </trkpt>
      <trkpt lat="48.31764" lon="-4.22773">
        <ele>16.3</ele>
        <time>2020-06-08T14:53:18Z</time>
      </trkpt>
      <trkpt lat="48.3177" lon="-4.22774">
        <ele>16.2</ele>
        <time>2020-06-08T14:53:19Z</time>
      </trkpt>
      <trkpt lat="48.31776" lon="-4.22775">
        <ele>16.2</ele>
        <time>2020-06-08T14:53:20Z</time>
      </trkpt>
      <trkpt lat="48.31781" lon="-4.22776">
        <ele>16.2</ele>
        <time>2020-06-08T14:53:21Z</time>
      </trkpt>
      <trkpt lat="48.31786" lon="-4.22776">
        <ele>16.2</ele>
        <time>2020-06-08T14:53:22Z</time>
      </trkpt>
      <trkpt lat="48.31792" lon="-4.22777">
        <ele>16.3</ele>
        <time>2020-06-08T14:53:23Z</time>
      </trkpt>
      <trkpt lat="48.31798" lon="-4.22777">
        <ele>16.3</ele>
        <time>2020-06-08T14:53:24Z</time>
      </trkpt>
      <trkpt lat="48.31804" lon="-4.22778">
        <ele>16.3</ele>
        <time>2020-06-08T14:53:25Z</time>
      </trkpt>
      <trkpt lat="48.3181" lon="-4.22777">
        <ele>16.3</ele>
        <time>2020-06-08T14:53:26Z</time>
      </trkpt>
      <trkpt lat="48.31815" lon="-4.22777">
        <ele>16.3</ele>
        <time>2020-06-08T14:53:27Z</time>
      </trkpt>
      <trkpt lat="48.3182" lon="-4.22776">
        <ele>16.4</ele>
        <time>2020-06-08T14:53:28Z</time>
      </trkpt>
      <trkpt lat="48.31825" lon="-4.22774">
        <ele>16.4</ele>
        <time>2020-06-08T14:53:29Z</time>
      </trkpt>
      <trkpt lat="48.3183" lon="-4.22773">
        <ele>16.4</ele>
        <time>2020-06-08T14:53:30Z</time>
      </trkpt>
      <trkpt lat="48.31835" lon="-4.22769">
        <ele>16.4</ele>
        <time>2020-06-08T14:53:31Z</time>
      </trkpt>
      <trkpt lat="48.3184" lon="-4.22767">
        <ele>16.5</ele>
        <time>2020-06-08T14:53:32Z</time>
      </trkpt>
      <trkpt lat="48.31845" lon="-4.22764">
        <ele>16.5</ele>
        <time>2020-06-08T14:53:33Z</time>
      </trkpt>
      <trkpt lat="48.31849" lon="-4.2276">
        <ele>16.5</ele>
        <time>2020-06-08T14:53:34Z</time>
      </trkpt>
      <trkpt lat="48.31855" lon="-4.22756">
        <ele>16.5</ele>
        <time>2020-06-08T14:53:35Z</time>
      </trkpt>
      <trkpt lat="48.31858" lon="-4.22755">
        <ele>16.5</ele>
        <time>2020-06-08T14:53:36Z</time>
      </trkpt>
      <trkpt lat="48.31862" lon="-4.22751">
        <ele>16.4</ele>
        <time>2020-06-08T14:53:37Z</time>
      </trkpt>
      <trkpt lat="48.31866" lon="-4.22748">
        <ele>16.4</ele>
        <time>2020-06-08T14:53:38Z</time>
      </trkpt>
      <trkpt lat="48.3187" lon="-4.22745">
        <ele>16.4</ele>
        <time>2020-06-08T14:53:39Z</time>
      </trkpt>
      <trkpt lat="48.31875" lon="-4.22742">
        <ele>16.4</ele>
        <time>2020-06-08T14:53:40Z</time>
      </trkpt>
      <trkpt lat="48.31881" lon="-4.22741">
        <ele>16.3</ele>
        <time>2020-06-08T14:53:41Z</time>
      </trkpt>
      <trkpt lat="48.31885" lon="-4.22739">
        <ele>16.3</ele>
        <time>2020-06-08T14:53:42Z</time>
      </trkpt>
      <trkpt lat="48.31889" lon="-4.22736">
        <ele>16.2</ele>
        <time>2020-06-08T14:53:43Z</time>
      </trkpt>
      <trkpt lat="48.31893" lon="-4.22734">
        <ele>16.2</ele>
        <time>2020-06-08T14:53:44Z</time>
      </trkpt>
      <trkpt lat="48.31897" lon="-4.22732">
        <ele>16.1</ele>
        <time>2020-06-08T14:53:45Z</time>
      </trkpt>
      <trkpt lat="48.31902" lon="-4.22728">
        <ele>16.1</ele>
        <time>2020-06-08T14:53:46Z</time>
      </trkpt>
      <trkpt lat="48.31906" lon="-4.22727">
        <ele>16.1</ele>
        <time>2020-06-08T14:53:47Z</time>
      </trkpt>
      <trkpt lat="48.3191" lon="-4.22726">
        <ele>16</ele>
        <time>2020-06-08T14:53:48Z</time>
      </trkpt>
      <trkpt lat="48.31915" lon="-4.22725">
        <ele>16</ele>
        <time>2020-06-08T14:53:49Z</time>
      </trkpt>
      <trkpt lat="48.3192" lon="-4.22723">
        <ele>16</ele>
        <time>2020-06-08T14:53:50Z</time>
      </trkpt>
      <trkpt lat="48.31926" lon="-4.22721">
        <ele>16</ele>
        <time>2020-06-08T14:53:51Z</time>
      </trkpt>
      <trkpt lat="48.31931" lon="-4.2272">
        <ele>16</ele>
        <time>2020-06-08T14:53:52Z</time>
      </trkpt>
      <trkpt lat="48.31936" lon="-4.22718">
        <ele>16</ele>
        <time>2020-06-08T14:53:53Z</time>
      </trkpt>
      <trkpt lat="48.31941" lon="-4.22717">
        <ele>16.1</ele>
        <time>2020-06-08T14:53:54Z</time>
      </trkpt>
      <trkpt lat="48.31945" lon="-4.22716">
        <ele>16.1</ele>
        <time>2020-06-08T14:53:55Z</time>
      </trkpt>
      <trkpt lat="48.31954" lon="-4.22714">
        <ele>16.1</ele>
        <time>2020-06-08T14:53:56Z</time>
      </trkpt>
      <trkpt lat="48.3196" lon="-4.22713">
        <ele>16.2</ele>
        <time>2020-06-08T14:53:57Z</time>
      </trkpt>
      <trkpt lat="48.31966" lon="-4.22711">
        <ele>16.2</ele>
        <time>2020-06-08T14:53:58Z</time>
      </trkpt>
      <trkpt lat="48.31971" lon="-4.22708">
        <ele>16.3</ele>
        <time>2020-06-08T14:53:59Z</time>
      </trkpt>
      <trkpt lat="48.31976" lon="-4.22707">
        <ele>16.4</ele>
        <time>2020-06-08T14:54:00Z</time>
      </trkpt>
      <trkpt lat="48.3198" lon="-4.22705">
        <ele>16.5</ele>
        <time>2020-06-08T14:54:01Z</time>
      </trkpt>
      <trkpt lat="48.31985" lon="-4.22702">
        <ele>16.7</ele>
        <time>2020-06-08T14:54:02Z</time>
      </trkpt>
      <trkpt lat="48.31989" lon="-4.22699">
        <ele>16.9</ele>
        <time>2020-06-08T14:54:03Z</time>
      </trkpt>
      <trkpt lat="48.31994" lon="-4.22696">
        <ele>17.1</ele>
        <time>2020-06-08T14:54:04Z</time>
      </trkpt>
      <trkpt lat="48.31999" lon="-4.22695">
        <ele>17.4</ele>
        <time>2020-06-08T14:54:05Z</time>
      </trkpt>
      <trkpt lat="48.32004" lon="-4.22693">
        <ele>17.6</ele>
        <time>2020-06-08T14:54:06Z</time>
      </trkpt>
      <trkpt lat="48.32009" lon="-4.22692">
        <ele>18.1</ele>
        <time>2020-06-08T14:54:07Z</time>
      </trkpt>
      <trkpt lat="48.32013" lon="-4.22691">
        <ele>18</ele>
        <time>2020-06-08T14:54:08Z</time>
      </trkpt>
      <trkpt lat="48.32017" lon="-4.22689">
        <ele>18</ele>
        <time>2020-06-08T14:54:09Z</time>
      </trkpt>
      <trkpt lat="48.32019" lon="-4.22689">
        <ele>18</ele>
        <time>2020-06-08T14:54:10Z</time>
      </trkpt>
      <trkpt lat="48.32023" lon="-4.22688">
        <ele>18</ele>
        <time>2020-06-08T14:54:11Z</time>
      </trkpt>
      <trkpt lat="48.32027" lon="-4.22688">
        <ele>18</ele>
        <time>2020-06-08T14:54:12Z</time>
      </trkpt>
      <trkpt lat="48.32029" lon="-4.22687">
        <ele>18</ele>
        <time>2020-06-08T14:54:13Z</time>
      </trkpt>
      <trkpt lat="48.32032" lon="-4.22686">
        <ele>18</ele>
        <time>2020-06-08T14:54:14Z</time>
      </trkpt>
      <trkpt lat="48.32037" lon="-4.22686">
        <ele>18.1</ele>
        <time>2020-06-08T14:54:15Z</time>
      </trkpt>
      <trkpt lat="48.32039" lon="-4.22686">
        <ele>18.1</ele>
        <time>2020-06-08T14:54:16Z</time>
      </trkpt>
      <trkpt lat="48.32043" lon="-4.22685">
        <ele>18.2</ele>
        <time>2020-06-08T14:54:17Z</time>
      </trkpt>
      <trkpt lat="48.32045" lon="-4.22684">
        <ele>18.2</ele>
        <time>2020-06-08T14:54:18Z</time>
      </trkpt>
      <trkpt lat="48.32049" lon="-4.22683">
        <ele>18.2</ele>
        <time>2020-06-08T14:54:19Z</time>
      </trkpt>
      <trkpt lat="48.32049" lon="-4.22683">
        <ele>18.3</ele>
        <time>2020-06-08T14:54:20Z</time>
      </trkpt>
      <trkpt lat="48.32052" lon="-4.22681">
        <ele>18.3</ele>
        <time>2020-06-08T14:54:21Z</time>
      </trkpt>
      <trkpt lat="48.32053" lon="-4.22681">
        <ele>18.3</ele>
        <time>2020-06-08T14:54:22Z</time>
      </trkpt>
      <trkpt lat="48.32057" lon="-4.22679">
        <ele>18.4</ele>
        <time>2020-06-08T14:54:23Z</time>
      </trkpt>
      <trkpt lat="48.3206" lon="-4.22678">
        <ele>18.5</ele>
        <time>2020-06-08T14:54:24Z</time>
      </trkpt>
      <trkpt lat="48.32061" lon="-4.22677">
        <ele>18.5</ele>
        <time>2020-06-08T14:54:25Z</time>
      </trkpt>
      <trkpt lat="48.32064" lon="-4.22676">
        <ele>18.6</ele>
        <time>2020-06-08T14:54:26Z</time>
      </trkpt>
      <trkpt lat="48.32067" lon="-4.22674">
        <ele>18.7</ele>
        <time>2020-06-08T14:54:27Z</time>
      </trkpt>
      <trkpt lat="48.3207" lon="-4.22673">
        <ele>18.8</ele>
        <time>2020-06-08T14:54:28Z</time>
      </trkpt>
      <trkpt lat="48.32073" lon="-4.22672">
        <ele>18.9</ele>
        <time>2020-06-08T14:54:29Z</time>
      </trkpt>
      <trkpt lat="48.32077" lon="-4.22671">
        <ele>19</ele>
        <time>2020-06-08T14:54:30Z</time>
      </trkpt>
      <trkpt lat="48.32081" lon="-4.2267">
        <ele>19.1</ele>
        <time>2020-06-08T14:54:31Z</time>
      </trkpt>
      <trkpt lat="48.32085" lon="-4.22667">
        <ele>19.2</ele>
        <time>2020-06-08T14:54:32Z</time>
      </trkpt>
      <trkpt lat="48.32088" lon="-4.22665">
        <ele>19.2</ele>
        <time>2020-06-08T14:54:33Z</time>
      </trkpt>
      <trkpt lat="48.32091" lon="-4.22664">
        <ele>19.3</ele>
        <time>2020-06-08T14:54:34Z</time>
      </trkpt>
      <trkpt lat="48.32095" lon="-4.22663">
        <ele>19.4</ele>
        <time>2020-06-08T14:54:35Z</time>
      </trkpt>
      <trkpt lat="48.32098" lon="-4.22663">
        <ele>19.5</ele>
        <time>2020-06-08T14:54:36Z</time>
      </trkpt>
      <trkpt lat="48.321" lon="-4.22663">
        <ele>19.6</ele>
        <time>2020-06-08T14:54:37Z</time>
      </trkpt>
      <trkpt lat="48.32103" lon="-4.22663">
        <ele>19.6</ele>
        <time>2020-06-08T14:54:38Z</time>
      </trkpt>
      <trkpt lat="48.32106" lon="-4.22663">
        <ele>19.7</ele>
        <time>2020-06-08T14:54:39Z</time>
      </trkpt>
      <trkpt lat="48.32109" lon="-4.22662">
        <ele>19.8</ele>
        <time>2020-06-08T14:54:40Z</time>
      </trkpt>
      <trkpt lat="48.32113" lon="-4.22661">
        <ele>19.9</ele>
        <time>2020-06-08T14:54:41Z</time>
      </trkpt>
      <trkpt lat="48.32117" lon="-4.22661">
        <ele>19.9</ele>
        <time>2020-06-08T14:54:42Z</time>
      </trkpt>
      <trkpt lat="48.32121" lon="-4.22661">
        <ele>20</ele>
        <time>2020-06-08T14:54:43Z</time>
      </trkpt>
      <trkpt lat="48.32125" lon="-4.22663">
        <ele>20.3</ele>
        <time>2020-06-08T14:54:44Z</time>
      </trkpt>
      <trkpt lat="48.32127" lon="-4.22665">
        <ele>20.6</ele>
        <time>2020-06-08T14:54:45Z</time>
      </trkpt>
      <trkpt lat="48.32129" lon="-4.22669">
        <ele>21</ele>
        <time>2020-06-08T14:54:46Z</time>
      </trkpt>
      <trkpt lat="48.32131" lon="-4.22674">
        <ele>21.3</ele>
        <time>2020-06-08T14:54:47Z</time>
      </trkpt>
      <trkpt lat="48.32133" lon="-4.22679">
        <ele>21.7</ele>
        <time>2020-06-08T14:54:48Z</time>
      </trkpt>
      <trkpt lat="48.32134" lon="-4.22681">
        <ele>21.8</ele>
        <time>2020-06-08T14:54:49Z</time>
      </trkpt>
      <trkpt lat="48.32136" lon="-4.22685">
        <ele>22.1</ele>
        <time>2020-06-08T14:54:50Z</time>
      </trkpt>
      <trkpt lat="48.32136" lon="-4.22687">
        <ele>22.2</ele>
        <time>2020-06-08T14:54:51Z</time>
      </trkpt>
      <trkpt lat="48.32138" lon="-4.22692">
        <ele>22.5</ele>
        <time>2020-06-08T14:54:52Z</time>
      </trkpt>
      <trkpt lat="48.3214" lon="-4.22696">
        <ele>22.7</ele>
        <time>2020-06-08T14:54:53Z</time>
      </trkpt>
      <trkpt lat="48.32141" lon="-4.22698">
        <ele>22.9</ele>
        <time>2020-06-08T14:54:54Z</time>
      </trkpt>
      <trkpt lat="48.32142" lon="-4.22699">
        <ele>23</ele>
        <time>2020-06-08T14:54:55Z</time>
      </trkpt>
      <trkpt lat="48.32143" lon="-4.22702">
        <ele>23.2</ele>
        <time>2020-06-08T14:54:56Z</time>
      </trkpt>
      <trkpt lat="48.32145" lon="-4.22705">
        <ele>23.5</ele>
        <time>2020-06-08T14:54:57Z</time>
      </trkpt>
      <trkpt lat="48.32146" lon="-4.22706">
        <ele>23.6</ele>
        <time>2020-06-08T14:54:58Z</time>
      </trkpt>
      <trkpt lat="48.32148" lon="-4.22711">
        <ele>23.9</ele>
        <time>2020-06-08T14:54:59Z</time>
      </trkpt>
      <trkpt lat="48.32149" lon="-4.22713">
        <ele>24</ele>
        <time>2020-06-08T14:55:00Z</time>
      </trkpt>
      <trkpt lat="48.3215" lon="-4.22715">
        <ele>24.2</ele>
        <time>2020-06-08T14:55:01Z</time>
      </trkpt>
      <trkpt lat="48.32151" lon="-4.22717">
        <ele>24.4</ele>
        <time>2020-06-08T14:55:02Z</time>
      </trkpt>
      <trkpt lat="48.32153" lon="-4.22721">
        <ele>24.7</ele>
        <time>2020-06-08T14:55:03Z</time>
      </trkpt>
      <trkpt lat="48.32154" lon="-4.22723">
        <ele>24.8</ele>
        <time>2020-06-08T14:55:04Z</time>
      </trkpt>
      <trkpt lat="48.32156" lon="-4.22727">
        <ele>25.1</ele>
        <time>2020-06-08T14:55:05Z</time>
      </trkpt>
      <trkpt lat="48.32157" lon="-4.22729">
        <ele>25.2</ele>
        <time>2020-06-08T14:55:06Z</time>
      </trkpt>
      <trkpt lat="48.32158" lon="-4.22733">
        <ele>25.5</ele>
        <time>2020-06-08T14:55:07Z</time>
      </trkpt>
      <trkpt lat="48.32159" lon="-4.22734">
        <ele>25.6</ele>
        <time>2020-06-08T14:55:08Z</time>
      </trkpt>
      <trkpt lat="48.32159" lon="-4.22739">
        <ele>25.9</ele>
        <time>2020-06-08T14:55:09Z</time>
      </trkpt>
      <trkpt lat="48.3216" lon="-4.22741">
        <ele>26.1</ele>
        <time>2020-06-08T14:55:10Z</time>
      </trkpt>
      <trkpt lat="48.32162" lon="-4.22744">
        <ele>26.3</ele>
        <time>2020-06-08T14:55:11Z</time>
      </trkpt>
      <trkpt lat="48.32164" lon="-4.22748">
        <ele>26.7</ele>
        <time>2020-06-08T14:55:12Z</time>
      </trkpt>
      <trkpt lat="48.32165" lon="-4.22749">
        <ele>26.8</ele>
        <time>2020-06-08T14:55:13Z</time>
      </trkpt>
      <trkpt lat="48.32167" lon="-4.22753">
        <ele>27.2</ele>
        <time>2020-06-08T14:55:14Z</time>
      </trkpt>
      <trkpt lat="48.32167" lon="-4.22754">
        <ele>27.2</ele>
        <time>2020-06-08T14:55:15Z</time>
      </trkpt>
      <trkpt lat="48.32169" lon="-4.22759">
        <ele>27.6</ele>
        <time>2020-06-08T14:55:16Z</time>
      </trkpt>
      <trkpt lat="48.32169" lon="-4.2276">
        <ele>27.7</ele>
        <time>2020-06-08T14:55:17Z</time>
      </trkpt>
      <trkpt lat="48.32171" lon="-4.22764">
        <ele>28</ele>
        <time>2020-06-08T14:55:18Z</time>
      </trkpt>
      <trkpt lat="48.32172" lon="-4.22765">
        <ele>28.1</ele>
        <time>2020-06-08T14:55:19Z</time>
      </trkpt>
      <trkpt lat="48.32173" lon="-4.22769">
        <ele>28.5</ele>
        <time>2020-06-08T14:55:20Z</time>
      </trkpt>
      <trkpt lat="48.32174" lon="-4.22771">
        <ele>28.6</ele>
        <time>2020-06-08T14:55:21Z</time>
      </trkpt>
      <trkpt lat="48.32175" lon="-4.22774">
        <ele>29</ele>
        <time>2020-06-08T14:55:22Z</time>
      </trkpt>
      <trkpt lat="48.32176" lon="-4.22779">
        <ele>29.3</ele>
        <time>2020-06-08T14:55:23Z</time>
      </trkpt>
      <trkpt lat="48.32177" lon="-4.2278">
        <ele>29.5</ele>
        <time>2020-06-08T14:55:24Z</time>
      </trkpt>
      <trkpt lat="48.32178" lon="-4.22784">
        <ele>29.8</ele>
        <time>2020-06-08T14:55:25Z</time>
      </trkpt>
      <trkpt lat="48.32178" lon="-4.22785">
        <ele>29.9</ele>
        <time>2020-06-08T14:55:26Z</time>
      </trkpt>
      <trkpt lat="48.3218" lon="-4.22787">
        <ele>30.1</ele>
        <time>2020-06-08T14:55:27Z</time>
      </trkpt>
      <trkpt lat="48.32181" lon="-4.22789">
        <ele>30.3</ele>
        <time>2020-06-08T14:55:28Z</time>
      </trkpt>
      <trkpt lat="48.32182" lon="-4.22793">
        <ele>30.6</ele>
        <time>2020-06-08T14:55:29Z</time>
      </trkpt>
      <trkpt lat="48.32183" lon="-4.22795">
        <ele>30.8</ele>
        <time>2020-06-08T14:55:30Z</time>
      </trkpt>
      <trkpt lat="48.32185" lon="-4.22799">
        <ele>31.2</ele>
        <time>2020-06-08T14:55:31Z</time>
      </trkpt>
      <trkpt lat="48.32185" lon="-4.228">
        <ele>31.3</ele>
        <time>2020-06-08T14:55:32Z</time>
      </trkpt>
      <trkpt lat="48.32187" lon="-4.22804">
        <ele>31.7</ele>
        <time>2020-06-08T14:55:33Z</time>
      </trkpt>
      <trkpt lat="48.32187" lon="-4.22805">
        <ele>31.8</ele>
        <time>2020-06-08T14:55:34Z</time>
      </trkpt>
      <trkpt lat="48.32188" lon="-4.22807">
        <ele>32</ele>
        <time>2020-06-08T14:55:35Z</time>
      </trkpt>
      <trkpt lat="48.32189" lon="-4.2281">
        <ele>32.2</ele>
        <time>2020-06-08T14:55:36Z</time>
      </trkpt>
      <trkpt lat="48.3219" lon="-4.22814">
        <ele>32.6</ele>
        <time>2020-06-08T14:55:37Z</time>
      </trkpt>
      <trkpt lat="48.3219" lon="-4.22815">
        <ele>32.8</ele>
        <time>2020-06-08T14:55:38Z</time>
      </trkpt>
      <trkpt lat="48.32191" lon="-4.22818">
        <ele>33</ele>
        <time>2020-06-08T14:55:39Z</time>
      </trkpt>
      <trkpt lat="48.32192" lon="-4.2282">
        <ele>33.3</ele>
        <time>2020-06-08T14:55:40Z</time>
      </trkpt>
      <trkpt lat="48.32193" lon="-4.22823">
        <ele>33.7</ele>
        <time>2020-06-08T14:55:41Z</time>
      </trkpt>
      <trkpt lat="48.32194" lon="-4.22825">
        <ele>33.8</ele>
        <time>2020-06-08T14:55:42Z</time>
      </trkpt>
      <trkpt lat="48.32195" lon="-4.22826">
        <ele>34</ele>
        <time>2020-06-08T14:55:43Z</time>
      </trkpt>
      <trkpt lat="48.32196" lon="-4.22829">
        <ele>34.3</ele>
        <time>2020-06-08T14:55:44Z</time>
      </trkpt>
      <trkpt lat="48.32197" lon="-4.22833">
        <ele>34.7</ele>
        <time>2020-06-08T14:55:45Z</time>
      </trkpt>
      <trkpt lat="48.32197" lon="-4.22834">
        <ele>34.9</ele>
        <time>2020-06-08T14:55:46Z</time>
      </trkpt>
      <trkpt lat="48.32198" lon="-4.22836">
        <ele>35.1</ele>
        <time>2020-06-08T14:55:47Z</time>
      </trkpt>
      <trkpt lat="48.32199" lon="-4.22839">
        <ele>35.4</ele>
        <time>2020-06-08T14:55:48Z</time>
      </trkpt>
      <trkpt lat="48.32199" lon="-4.22841">
        <ele>35.7</ele>
        <time>2020-06-08T14:55:49Z</time>
      </trkpt>
      <trkpt lat="48.322" lon="-4.22843">
        <ele>35.9</ele>
        <time>2020-06-08T14:55:50Z</time>
      </trkpt>
      <trkpt lat="48.32202" lon="-4.22846">
        <ele>36.2</ele>
        <time>2020-06-08T14:55:51Z</time>
      </trkpt>
      <trkpt lat="48.32202" lon="-4.22847">
        <ele>36.3</ele>
        <time>2020-06-08T14:55:52Z</time>
      </trkpt>
      <trkpt lat="48.32203" lon="-4.22848">
        <ele>36.4</ele>
        <time>2020-06-08T14:55:53Z</time>
      </trkpt>
      <trkpt lat="48.32204" lon="-4.22851">
        <ele>36.7</ele>
        <time>2020-06-08T14:55:54Z</time>
      </trkpt>
      <trkpt lat="48.32205" lon="-4.22853">
        <ele>36.9</ele>
        <time>2020-06-08T14:55:55Z</time>
      </trkpt>
      <trkpt lat="48.32207" lon="-4.22857">
        <ele>37.3</ele>
        <time>2020-06-08T14:55:56Z</time>
      </trkpt>
      <trkpt lat="48.32208" lon="-4.22858">
        <ele>37.4</ele>
        <time>2020-06-08T14:55:57Z</time>
      </trkpt>
      <trkpt lat="48.3221" lon="-4.22862">
        <ele>37.8</ele>
        <time>2020-06-08T14:55:58Z</time>
      </trkpt>
      <trkpt lat="48.3221" lon="-4.22863">
        <ele>37.9</ele>
        <time>2020-06-08T14:55:59Z</time>
      </trkpt>
      <trkpt lat="48.32212" lon="-4.22867">
        <ele>38.3</ele>
        <time>2020-06-08T14:56:00Z</time>
      </trkpt>
      <trkpt lat="48.32213" lon="-4.22868">
        <ele>38.4</ele>
        <time>2020-06-08T14:56:01Z</time>
      </trkpt>
      <trkpt lat="48.32215" lon="-4.22871">
        <ele>38.8</ele>
        <time>2020-06-08T14:56:02Z</time>
      </trkpt>
      <trkpt lat="48.32215" lon="-4.22873">
        <ele>38.9</ele>
        <time>2020-06-08T14:56:03Z</time>
      </trkpt>
      <trkpt lat="48.32216" lon="-4.22877">
        <ele>39.3</ele>
        <time>2020-06-08T14:56:04Z</time>
      </trkpt>
      <trkpt lat="48.32217" lon="-4.22879">
        <ele>39.4</ele>
        <time>2020-06-08T14:56:05Z</time>
      </trkpt>
      <trkpt lat="48.32218" lon="-4.22881">
        <ele>39.6</ele>
        <time>2020-06-08T14:56:06Z</time>
      </trkpt>
      <trkpt lat="48.32219" lon="-4.22883">
        <ele>39.8</ele>
        <time>2020-06-08T14:56:07Z</time>
      </trkpt>
      <trkpt lat="48.32219" lon="-4.22885">
        <ele>40</ele>
        <time>2020-06-08T14:56:08Z</time>
      </trkpt>
      <trkpt lat="48.3222" lon="-4.22887">
        <ele>40.2</ele>
        <time>2020-06-08T14:56:09Z</time>
      </trkpt>
      <trkpt lat="48.32222" lon="-4.22891">
        <ele>40.6</ele>
        <time>2020-06-08T14:56:10Z</time>
      </trkpt>
      <trkpt lat="48.32222" lon="-4.22892">
        <ele>40.7</ele>
        <time>2020-06-08T14:56:11Z</time>
      </trkpt>
      <trkpt lat="48.32224" lon="-4.22896">
        <ele>41</ele>
        <time>2020-06-08T14:56:12Z</time>
      </trkpt>
      <trkpt lat="48.32224" lon="-4.22897">
        <ele>41.2</ele>
        <time>2020-06-08T14:56:13Z</time>
      </trkpt>
      <trkpt lat="48.32225" lon="-4.22899">
        <ele>41.3</ele>
        <time>2020-06-08T14:56:14Z</time>
      </trkpt>
      <trkpt lat="48.32226" lon="-4.22901">
        <ele>41.5</ele>
        <time>2020-06-08T14:56:15Z</time>
      </trkpt>
      <trkpt lat="48.32227" lon="-4.22904">
        <ele>41.7</ele>
        <time>2020-06-08T14:56:16Z</time>
      </trkpt>
      <trkpt lat="48.32227" lon="-4.22906">
        <ele>41.9</ele>
        <time>2020-06-08T14:56:17Z</time>
      </trkpt>
      <trkpt lat="48.32229" lon="-4.2291">
        <ele>42.2</ele>
        <time>2020-06-08T14:56:18Z</time>
      </trkpt>
      <trkpt lat="48.32229" lon="-4.22911">
        <ele>42.3</ele>
        <time>2020-06-08T14:56:19Z</time>
      </trkpt>
      <trkpt lat="48.3223" lon="-4.22914">
        <ele>42.6</ele>
        <time>2020-06-08T14:56:20Z</time>
      </trkpt>
      <trkpt lat="48.32231" lon="-4.22916">
        <ele>42.7</ele>
        <time>2020-06-08T14:56:21Z</time>
      </trkpt>
      <trkpt lat="48.32232" lon="-4.22918">
        <ele>42.9</ele>
        <time>2020-06-08T14:56:22Z</time>
      </trkpt>
      <trkpt lat="48.32233" lon="-4.2292">
        <ele>43.1</ele>
        <time>2020-06-08T14:56:23Z</time>
      </trkpt>
      <trkpt lat="48.32234" lon="-4.22923">
        <ele>43.3</ele>
        <time>2020-06-08T14:56:24Z</time>
      </trkpt>
      <trkpt lat="48.32234" lon="-4.22925">
        <ele>43.5</ele>
        <time>2020-06-08T14:56:25Z</time>
      </trkpt>
      <trkpt lat="48.32235" lon="-4.22928">
        <ele>43.8</ele>
        <time>2020-06-08T14:56:26Z</time>
      </trkpt>
      <trkpt lat="48.32236" lon="-4.22929">
        <ele>43.9</ele>
        <time>2020-06-08T14:56:27Z</time>
      </trkpt>
      <trkpt lat="48.32237" lon="-4.22932">
        <ele>44.2</ele>
        <time>2020-06-08T14:56:28Z</time>
      </trkpt>
      <trkpt lat="48.32238" lon="-4.22934">
        <ele>44.4</ele>
        <time>2020-06-08T14:56:29Z</time>
      </trkpt>
      <trkpt lat="48.32239" lon="-4.22937">
        <ele>44.7</ele>
        <time>2020-06-08T14:56:30Z</time>
      </trkpt>
      <trkpt lat="48.3224" lon="-4.22939">
        <ele>44.8</ele>
        <time>2020-06-08T14:56:31Z</time>
      </trkpt>
      <trkpt lat="48.32241" lon="-4.22941">
        <ele>45</ele>
        <time>2020-06-08T14:56:32Z</time>
      </trkpt>
      <trkpt lat="48.32242" lon="-4.22943">
        <ele>45.3</ele>
        <time>2020-06-08T14:56:33Z</time>
      </trkpt>
      <trkpt lat="48.32243" lon="-4.22945">
        <ele>45.5</ele>
        <time>2020-06-08T14:56:34Z</time>
      </trkpt>
      <trkpt lat="48.32244" lon="-4.22948">
        <ele>45.7</ele>
        <time>2020-06-08T14:56:35Z</time>
      </trkpt>
      <trkpt lat="48.32245" lon="-4.22952">
        <ele>46.1</ele>
        <time>2020-06-08T14:56:36Z</time>
      </trkpt>
      <trkpt lat="48.32246" lon="-4.22953">
        <ele>46.3</ele>
        <time>2020-06-08T14:56:37Z</time>
      </trkpt>
      <trkpt lat="48.32247" lon="-4.22957">
        <ele>46.7</ele>
        <time>2020-06-08T14:56:38Z</time>
      </trkpt>
      <trkpt lat="48.32248" lon="-4.22959">
        <ele>46.8</ele>
        <time>2020-06-08T14:56:39Z</time>
      </trkpt>
      <trkpt lat="48.32249" lon="-4.22961">
        <ele>47.2</ele>
        <time>2020-06-08T14:56:40Z</time>
      </trkpt>
      <trkpt lat="48.3225" lon="-4.22963">
        <ele>47.3</ele>
        <time>2020-06-08T14:56:41Z</time>
      </trkpt>
      <trkpt lat="48.32251" lon="-4.22965">
        <ele>47.5</ele>
        <time>2020-06-08T14:56:42Z</time>
      </trkpt>
      <trkpt lat="48.32251" lon="-4.22967">
        <ele>47.7</ele>
        <time>2020-06-08T14:56:43Z</time>
      </trkpt>
      <trkpt lat="48.32252" lon="-4.22969">
        <ele>48</ele>
        <time>2020-06-08T14:56:44Z</time>
      </trkpt>
      <trkpt lat="48.32252" lon="-4.22971">
        <ele>48.2</ele>
        <time>2020-06-08T14:56:45Z</time>
      </trkpt>
      <trkpt lat="48.32252" lon="-4.22973">
        <ele>48.3</ele>
        <time>2020-06-08T14:56:46Z</time>
      </trkpt>
      <trkpt lat="48.32252" lon="-4.22976">
        <ele>48.5</ele>
        <time>2020-06-08T14:56:47Z</time>
      </trkpt>
      <trkpt lat="48.32254" lon="-4.22978">
        <ele>48.8</ele>
        <time>2020-06-08T14:56:48Z</time>
      </trkpt>
      <trkpt lat="48.32255" lon="-4.2298">
        <ele>49</ele>
        <time>2020-06-08T14:56:49Z</time>
      </trkpt>
      <trkpt lat="48.32256" lon="-4.22983">
        <ele>49.2</ele>
        <time>2020-06-08T14:56:50Z</time>
      </trkpt>
      <trkpt lat="48.32256" lon="-4.22985">
        <ele>49.4</ele>
        <time>2020-06-08T14:56:51Z</time>
      </trkpt>
      <trkpt lat="48.32256" lon="-4.22986">
        <ele>49.5</ele>
        <time>2020-06-08T14:56:52Z</time>
      </trkpt>
      <trkpt lat="48.32257" lon="-4.22989">
        <ele>49.6</ele>
        <time>2020-06-08T14:56:53Z</time>
      </trkpt>
      <trkpt lat="48.32257" lon="-4.22991">
        <ele>49.8</ele>
        <time>2020-06-08T14:56:54Z</time>
      </trkpt>
      <trkpt lat="48.32258" lon="-4.22993">
        <ele>49.9</ele>
        <time>2020-06-08T14:56:55Z</time>
      </trkpt>
      <trkpt lat="48.32259" lon="-4.22995">
        <ele>50.1</ele>
        <time>2020-06-08T14:56:56Z</time>
      </trkpt>
      <trkpt lat="48.3226" lon="-4.23">
        <ele>50.4</ele>
        <time>2020-06-08T14:56:57Z</time>
      </trkpt>
      <trkpt lat="48.3226" lon="-4.23001">
        <ele>50.4</ele>
        <time>2020-06-08T14:56:58Z</time>
      </trkpt>
      <trkpt lat="48.3226" lon="-4.23005">
        <ele>50.7</ele>
        <time>2020-06-08T14:56:59Z</time>
      </trkpt>
      <trkpt lat="48.32261" lon="-4.23007">
        <ele>50.7</ele>
        <time>2020-06-08T14:57:00Z</time>
      </trkpt>
      <trkpt lat="48.32261" lon="-4.23009">
        <ele>50.9</ele>
        <time>2020-06-08T14:57:01Z</time>
      </trkpt>
      <trkpt lat="48.32262" lon="-4.23012">
        <ele>51</ele>
        <time>2020-06-08T14:57:02Z</time>
      </trkpt>
      <trkpt lat="48.32262" lon="-4.23016">
        <ele>51.2</ele>
        <time>2020-06-08T14:57:03Z</time>
      </trkpt>
      <trkpt lat="48.32262" lon="-4.23018">
        <ele>51.3</ele>
        <time>2020-06-08T14:57:04Z</time>
      </trkpt>
      <trkpt lat="48.32263" lon="-4.23022">
        <ele>51.4</ele>
        <time>2020-06-08T14:57:05Z</time>
      </trkpt>
      <trkpt lat="48.32263" lon="-4.23024">
        <ele>51.5</ele>
        <time>2020-06-08T14:57:06Z</time>
      </trkpt>
      <trkpt lat="48.32263" lon="-4.23025">
        <ele>51.5</ele>
        <time>2020-06-08T14:57:07Z</time>
      </trkpt>
      <trkpt lat="48.32263" lon="-4.23028">
        <ele>51.6</ele>
        <time>2020-06-08T14:57:08Z</time>
      </trkpt>
      <trkpt lat="48.32264" lon="-4.2303">
        <ele>51.7</ele>
        <time>2020-06-08T14:57:09Z</time>
      </trkpt>
      <trkpt lat="48.32264" lon="-4.23033">
        <ele>51.7</ele>
        <time>2020-06-08T14:57:10Z</time>
      </trkpt>
      <trkpt lat="48.32265" lon="-4.23037">
        <ele>51.8</ele>
        <time>2020-06-08T14:57:11Z</time>
      </trkpt>
      <trkpt lat="48.32266" lon="-4.23038">
        <ele>51.8</ele>
        <time>2020-06-08T14:57:12Z</time>
      </trkpt>
      <trkpt lat="48.32266" lon="-4.23043">
        <ele>51.9</ele>
        <time>2020-06-08T14:57:13Z</time>
      </trkpt>
      <trkpt lat="48.32266" lon="-4.23044">
        <ele>51.9</ele>
        <time>2020-06-08T14:57:14Z</time>
      </trkpt>
      <trkpt lat="48.32266" lon="-4.23047">
        <ele>51.9</ele>
        <time>2020-06-08T14:57:15Z</time>
      </trkpt>
      <trkpt lat="48.32267" lon="-4.23049">
        <ele>51.9</ele>
        <time>2020-06-08T14:57:16Z</time>
      </trkpt>
      <trkpt lat="48.32268" lon="-4.23053">
        <ele>51.9</ele>
        <time>2020-06-08T14:57:17Z</time>
      </trkpt>
      <trkpt lat="48.32268" lon="-4.23054">
        <ele>51.9</ele>
        <time>2020-06-08T14:57:18Z</time>
      </trkpt>
      <trkpt lat="48.32268" lon="-4.23057">
        <ele>51.9</ele>
        <time>2020-06-08T14:57:19Z</time>
      </trkpt>
      <trkpt lat="48.32269" lon="-4.23059">
        <ele>51.9</ele>
        <time>2020-06-08T14:57:20Z</time>
      </trkpt>
      <trkpt lat="48.32269" lon="-4.23061">
        <ele>51.9</ele>
        <time>2020-06-08T14:57:21Z</time>
      </trkpt>
      <trkpt lat="48.32269" lon="-4.23064">
        <ele>51.9</ele>
        <time>2020-06-08T14:57:22Z</time>
      </trkpt>
      <trkpt lat="48.3227" lon="-4.23068">
        <ele>51.8</ele>
        <time>2020-06-08T14:57:23Z</time>
      </trkpt>
      <trkpt lat="48.3227" lon="-4.2307">
        <ele>51.8</ele>
        <time>2020-06-08T14:57:24Z</time>
      </trkpt>
      <trkpt lat="48.32272" lon="-4.23075">
        <ele>51.7</ele>
        <time>2020-06-08T14:57:25Z</time>
      </trkpt>
      <trkpt lat="48.32272" lon="-4.23077">
        <ele>51.7</ele>
        <time>2020-06-08T14:57:26Z</time>
      </trkpt>
      <trkpt lat="48.32273" lon="-4.23081">
        <ele>51.6</ele>
        <time>2020-06-08T14:57:27Z</time>
      </trkpt>
      <trkpt lat="48.32275" lon="-4.23085">
        <ele>51.5</ele>
        <time>2020-06-08T14:57:28Z</time>
      </trkpt>
      <trkpt lat="48.32277" lon="-4.23089">
        <ele>51.5</ele>
        <time>2020-06-08T14:57:29Z</time>
      </trkpt>
      <trkpt lat="48.32278" lon="-4.23093">
        <ele>51.4</ele>
        <time>2020-06-08T14:57:30Z</time>
      </trkpt>
      <trkpt lat="48.32279" lon="-4.23098">
        <ele>51.3</ele>
        <time>2020-06-08T14:57:31Z</time>
      </trkpt>
      <trkpt lat="48.3228" lon="-4.23103">
        <ele>51.2</ele>
        <time>2020-06-08T14:57:32Z</time>
      </trkpt>
      <trkpt lat="48.3228" lon="-4.23104">
        <ele>51.2</ele>
        <time>2020-06-08T14:57:33Z</time>
      </trkpt>
      <trkpt lat="48.32281" lon="-4.23105">
        <ele>51.1</ele>
        <time>2020-06-08T14:57:34Z</time>
      </trkpt>
      <trkpt lat="48.32282" lon="-4.23106">
        <ele>51.1</ele>
        <time>2020-06-08T14:57:35Z</time>
      </trkpt>
      <trkpt lat="48.32282" lon="-4.23106">
        <ele>51.1</ele>
        <time>2020-06-08T14:57:36Z</time>
      </trkpt>
      <trkpt lat="48.32282" lon="-4.23106">
        <ele>51.1</ele>
        <time>2020-06-08T14:57:37Z</time>
      </trkpt>
      <trkpt lat="48.32282" lon="-4.23107">
        <ele>51.1</ele>
        <time>2020-06-08T14:57:38Z</time>
      </trkpt>
      <trkpt lat="48.32282" lon="-4.23107">
        <ele>51.1</ele>
        <time>2020-06-08T14:57:39Z</time>
      </trkpt>
      <trkpt lat="48.32282" lon="-4.23108">
        <ele>51.1</ele>
        <time>2020-06-08T14:57:40Z</time>
      </trkpt>
      <trkpt lat="48.32282" lon="-4.23108">
        <ele>51.1</ele>
        <time>2020-06-08T14:57:41Z</time>
      </trkpt>
      <trkpt lat="48.32282" lon="-4.23108">
        <ele>51.1</ele>
        <time>2020-06-08T14:57:42Z</time>
      </trkpt>
      <trkpt lat="48.32282" lon="-4.23109">
        <ele>51.1</ele>
        <time>2020-06-08T14:57:43Z</time>
      </trkpt>
      <trkpt lat="48.32282" lon="-4.23109">
        <ele>51</ele>
        <time>2020-06-08T14:57:44Z</time>
      </trkpt>
      <trkpt lat="48.32282" lon="-4.2311">
        <ele>51</ele>
        <time>2020-06-08T14:57:45Z</time>
      </trkpt>
      <trkpt lat="48.32282" lon="-4.2311">
        <ele>51</ele>
        <time>2020-06-08T14:57:46Z</time>
      </trkpt>
      <trkpt lat="48.32282" lon="-4.2311">
        <ele>51</ele>
        <time>2020-06-08T14:57:47Z</time>
      </trkpt>
      <trkpt lat="48.32282" lon="-4.23111">
        <ele>51</ele>
        <time>2020-06-08T14:57:48Z</time>
      </trkpt>
      <trkpt lat="48.32283" lon="-4.23115">
        <ele>50.9</ele>
        <time>2020-06-08T14:57:49Z</time>
      </trkpt>
      <trkpt lat="48.32284" lon="-4.2312">
        <ele>50.8</ele>
        <time>2020-06-08T14:57:50Z</time>
      </trkpt>
      <trkpt lat="48.32286" lon="-4.23125">
        <ele>50.7</ele>
        <time>2020-06-08T14:57:51Z</time>
      </trkpt>
      <trkpt lat="48.32287" lon="-4.23129">
        <ele>50.6</ele>
        <time>2020-06-08T14:57:52Z</time>
      </trkpt>
      <trkpt lat="48.32288" lon="-4.23133">
        <ele>50.5</ele>
        <time>2020-06-08T14:57:53Z</time>
      </trkpt>
      <trkpt lat="48.32289" lon="-4.23137">
        <ele>50.4</ele>
        <time>2020-06-08T14:57:54Z</time>
      </trkpt>
      <trkpt lat="48.3229" lon="-4.23143">
        <ele>50.3</ele>
        <time>2020-06-08T14:57:55Z</time>
      </trkpt>
      <trkpt lat="48.32291" lon="-4.23149">
        <ele>50.2</ele>
        <time>2020-06-08T14:57:56Z</time>
      </trkpt>
      <trkpt lat="48.32292" lon="-4.23154">
        <ele>50.1</ele>
        <time>2020-06-08T14:57:57Z</time>
      </trkpt>
      <trkpt lat="48.32293" lon="-4.23159">
        <ele>50</ele>
        <time>2020-06-08T14:57:58Z</time>
      </trkpt>
      <trkpt lat="48.32292" lon="-4.23164">
        <ele>49.9</ele>
        <time>2020-06-08T14:57:59Z</time>
      </trkpt>
      <trkpt lat="48.32293" lon="-4.23168">
        <ele>49.8</ele>
        <time>2020-06-08T14:58:00Z</time>
      </trkpt>
      <trkpt lat="48.32293" lon="-4.23174">
        <ele>49.7</ele>
        <time>2020-06-08T14:58:01Z</time>
      </trkpt>
      <trkpt lat="48.32294" lon="-4.2318">
        <ele>49.6</ele>
        <time>2020-06-08T14:58:02Z</time>
      </trkpt>
      <trkpt lat="48.32295" lon="-4.23185">
        <ele>49.6</ele>
        <time>2020-06-08T14:58:03Z</time>
      </trkpt>
      <trkpt lat="48.32296" lon="-4.2319">
        <ele>49.5</ele>
        <time>2020-06-08T14:58:04Z</time>
      </trkpt>
      <trkpt lat="48.32297" lon="-4.23194">
        <ele>49.5</ele>
        <time>2020-06-08T14:58:05Z</time>
      </trkpt>
      <trkpt lat="48.32298" lon="-4.23199">
        <ele>49.5</ele>
        <time>2020-06-08T14:58:06Z</time>
      </trkpt>
      <trkpt lat="48.32298" lon="-4.232">
        <ele>49.5</ele>
        <time>2020-06-08T14:58:07Z</time>
      </trkpt>
      <trkpt lat="48.32298" lon="-4.23202">
        <ele>49.5</ele>
        <time>2020-06-08T14:58:08Z</time>
      </trkpt>
      <trkpt lat="48.32298" lon="-4.23202">
        <ele>49.5</ele>
        <time>2020-06-08T14:58:09Z</time>
      </trkpt>
      <trkpt lat="48.32298" lon="-4.23203">
        <ele>49.5</ele>
        <time>2020-06-08T14:58:10Z</time>
      </trkpt>
      <trkpt lat="48.32297" lon="-4.23203">
        <ele>49.5</ele>
        <time>2020-06-08T14:58:11Z</time>
      </trkpt>
      <trkpt lat="48.32297" lon="-4.23204">
        <ele>49.5</ele>
        <time>2020-06-08T14:58:12Z</time>
      </trkpt>
      <trkpt lat="48.32297" lon="-4.23204">
        <ele>49.5</ele>
        <time>2020-06-08T14:58:13Z</time>
      </trkpt>
      <trkpt lat="48.32297" lon="-4.23205">
        <ele>49.5</ele>
        <time>2020-06-08T14:58:14Z</time>
      </trkpt>
      <trkpt lat="48.32296" lon="-4.23205">
        <ele>49.5</ele>
        <time>2020-06-08T14:58:15Z</time>
      </trkpt>
      <trkpt lat="48.32296" lon="-4.23206">
        <ele>49.5</ele>
        <time>2020-06-08T14:58:16Z</time>
      </trkpt>
      <trkpt lat="48.32296" lon="-4.23206">
        <ele>49.5</ele>
        <time>2020-06-08T14:58:17Z</time>
      </trkpt>
      <trkpt lat="48.32295" lon="-4.23207">
        <ele>49.5</ele>
        <time>2020-06-08T14:58:18Z</time>
      </trkpt>
      <trkpt lat="48.32295" lon="-4.23207">
        <ele>49.5</ele>
        <time>2020-06-08T14:58:19Z</time>
      </trkpt>
      <trkpt lat="48.32295" lon="-4.23208">
        <ele>49.5</ele>
        <time>2020-06-08T14:59:56Z</time>
      </trkpt>
      <trkpt lat="48.32295" lon="-4.23208">
        <ele>49.5</ele>
        <time>2020-06-08T14:59:57Z</time>
      </trkpt>
      <trkpt lat="48.32296" lon="-4.23213">
        <ele>49.4</ele>
        <time>2020-06-08T14:59:58Z</time>
      </trkpt>
      <trkpt lat="48.32296" lon="-4.23215">
        <ele>49.4</ele>
        <time>2020-06-08T14:59:59Z</time>
      </trkpt>
      <trkpt lat="48.32296" lon="-4.23221">
        <ele>49.4</ele>
        <time>2020-06-08T15:00:00Z</time>
      </trkpt>
      <trkpt lat="48.32296" lon="-4.23222">
        <ele>49.3</ele>
        <time>2020-06-08T15:00:01Z</time>
      </trkpt>
      <trkpt lat="48.32296" lon="-4.23227">
        <ele>49.3</ele>
        <time>2020-06-08T15:00:02Z</time>
      </trkpt>
      <trkpt lat="48.32297" lon="-4.23229">
        <ele>49.3</ele>
        <time>2020-06-08T15:00:03Z</time>
      </trkpt>
      <trkpt lat="48.32297" lon="-4.23234">
        <ele>49.2</ele>
        <time>2020-06-08T15:00:04Z</time>
      </trkpt>
      <trkpt lat="48.32297" lon="-4.23235">
        <ele>49.2</ele>
        <time>2020-06-08T15:00:05Z</time>
      </trkpt>
      <trkpt lat="48.32298" lon="-4.2324">
        <ele>49.1</ele>
        <time>2020-06-08T15:00:06Z</time>
      </trkpt>
      <trkpt lat="48.32299" lon="-4.23244">
        <ele>49.1</ele>
        <time>2020-06-08T15:00:07Z</time>
      </trkpt>
      <trkpt lat="48.32298" lon="-4.23248">
        <ele>49</ele>
        <time>2020-06-08T15:00:08Z</time>
      </trkpt>
      <trkpt lat="48.32299" lon="-4.23252">
        <ele>48.9</ele>
        <time>2020-06-08T15:00:09Z</time>
      </trkpt>
      <trkpt lat="48.32299" lon="-4.23257">
        <ele>48.9</ele>
        <time>2020-06-08T15:00:10Z</time>
      </trkpt>
      <trkpt lat="48.323" lon="-4.23261">
        <ele>48.8</ele>
        <time>2020-06-08T15:00:11Z</time>
      </trkpt>
      <trkpt lat="48.32301" lon="-4.23265">
        <ele>48.7</ele>
        <time>2020-06-08T15:00:12Z</time>
      </trkpt>
      <trkpt lat="48.32302" lon="-4.23269">
        <ele>48.7</ele>
        <time>2020-06-08T15:00:13Z</time>
      </trkpt>
      <trkpt lat="48.32303" lon="-4.23276">
        <ele>48.5</ele>
        <time>2020-06-08T15:00:14Z</time>
      </trkpt>
      <trkpt lat="48.32304" lon="-4.23281">
        <ele>48.5</ele>
        <time>2020-06-08T15:00:15Z</time>
      </trkpt>
      <trkpt lat="48.32305" lon="-4.23286">
        <ele>48.4</ele>
        <time>2020-06-08T15:00:16Z</time>
      </trkpt>
      <trkpt lat="48.32306" lon="-4.23291">
        <ele>48.3</ele>
        <time>2020-06-08T15:00:17Z</time>
      </trkpt>
      <trkpt lat="48.32308" lon="-4.23296">
        <ele>48.2</ele>
        <time>2020-06-08T15:00:18Z</time>
      </trkpt>
      <trkpt lat="48.32309" lon="-4.23301">
        <ele>48.1</ele>
        <time>2020-06-08T15:00:19Z</time>
      </trkpt>
      <trkpt lat="48.3231" lon="-4.23307">
        <ele>48</ele>
        <time>2020-06-08T15:00:20Z</time>
      </trkpt>
      <trkpt lat="48.32311" lon="-4.23313">
        <ele>47.8</ele>
        <time>2020-06-08T15:00:21Z</time>
      </trkpt>
      <trkpt lat="48.32313" lon="-4.23317">
        <ele>47.7</ele>
        <time>2020-06-08T15:00:22Z</time>
      </trkpt>
      <trkpt lat="48.32315" lon="-4.23322">
        <ele>47.6</ele>
        <time>2020-06-08T15:00:23Z</time>
      </trkpt>
      <trkpt lat="48.32317" lon="-4.23329">
        <ele>47.5</ele>
        <time>2020-06-08T15:00:24Z</time>
      </trkpt>
      <trkpt lat="48.32319" lon="-4.23335">
        <ele>47.3</ele>
        <time>2020-06-08T15:00:25Z</time>
      </trkpt>
      <trkpt lat="48.32322" lon="-4.23341">
        <ele>47.1</ele>
        <time>2020-06-08T15:00:26Z</time>
      </trkpt>
      <trkpt lat="48.32323" lon="-4.23348">
        <ele>46.9</ele>
        <time>2020-06-08T15:00:27Z</time>
      </trkpt>
      <trkpt lat="48.32325" lon="-4.23356">
        <ele>46.7</ele>
        <time>2020-06-08T15:00:28Z</time>
      </trkpt>
      <trkpt lat="48.32327" lon="-4.23364">
        <ele>46.4</ele>
        <time>2020-06-08T15:00:29Z</time>
      </trkpt>
      <trkpt lat="48.3233" lon="-4.23371">
        <ele>46.2</ele>
        <time>2020-06-08T15:00:30Z</time>
      </trkpt>
      <trkpt lat="48.32333" lon="-4.23379">
        <ele>45.9</ele>
        <time>2020-06-08T15:00:31Z</time>
      </trkpt>
      <trkpt lat="48.32336" lon="-4.23386">
        <ele>45.7</ele>
        <time>2020-06-08T15:00:32Z</time>
      </trkpt>
      <trkpt lat="48.32338" lon="-4.23395">
        <ele>45.4</ele>
        <time>2020-06-08T15:00:33Z</time>
      </trkpt>
      <trkpt lat="48.3234" lon="-4.23404">
        <ele>45.1</ele>
        <time>2020-06-08T15:00:34Z</time>
      </trkpt>
      <trkpt lat="48.32343" lon="-4.23412">
        <ele>44.8</ele>
        <time>2020-06-08T15:00:35Z</time>
      </trkpt>
      <trkpt lat="48.32347" lon="-4.23421">
        <ele>44.5</ele>
        <time>2020-06-08T15:00:36Z</time>
      </trkpt>
      <trkpt lat="48.3235" lon="-4.2343">
        <ele>44.2</ele>
        <time>2020-06-08T15:00:37Z</time>
      </trkpt>
      <trkpt lat="48.32353" lon="-4.23439">
        <ele>43.8</ele>
        <time>2020-06-08T15:00:38Z</time>
      </trkpt>
      <trkpt lat="48.32356" lon="-4.23448">
        <ele>43.5</ele>
        <time>2020-06-08T15:00:39Z</time>
      </trkpt>
      <trkpt lat="48.32359" lon="-4.23459">
        <ele>43</ele>
        <time>2020-06-08T15:00:40Z</time>
      </trkpt>
      <trkpt lat="48.32362" lon="-4.23469">
        <ele>42.6</ele>
        <time>2020-06-08T15:00:41Z</time>
      </trkpt>
      <trkpt lat="48.32366" lon="-4.23478">
        <ele>42.3</ele>
        <time>2020-06-08T15:00:42Z</time>
      </trkpt>
      <trkpt lat="48.3237" lon="-4.23489">
        <ele>41.9</ele>
        <time>2020-06-08T15:00:43Z</time>
      </trkpt>
      <trkpt lat="48.32374" lon="-4.23499">
        <ele>41.5</ele>
        <time>2020-06-08T15:00:44Z</time>
      </trkpt>
      <trkpt lat="48.32377" lon="-4.23509">
        <ele>41.2</ele>
        <time>2020-06-08T15:00:45Z</time>
      </trkpt>
      <trkpt lat="48.32381" lon="-4.2352">
        <ele>40.8</ele>
        <time>2020-06-08T15:00:46Z</time>
      </trkpt>
      <trkpt lat="48.32386" lon="-4.23531">
        <ele>40.5</ele>
        <time>2020-06-08T15:00:47Z</time>
      </trkpt>
      <trkpt lat="48.3239" lon="-4.23543">
        <ele>40.1</ele>
        <time>2020-06-08T15:00:48Z</time>
      </trkpt>
      <trkpt lat="48.32394" lon="-4.23554">
        <ele>39.7</ele>
        <time>2020-06-08T15:00:49Z</time>
      </trkpt>
      <trkpt lat="48.32398" lon="-4.23565">
        <ele>39.3</ele>
        <time>2020-06-08T15:00:50Z</time>
      </trkpt>
      <trkpt lat="48.32402" lon="-4.23576">
        <ele>38.8</ele>
        <time>2020-06-08T15:00:51Z</time>
      </trkpt>
      <trkpt lat="48.32407" lon="-4.23587">
        <ele>38.4</ele>
        <time>2020-06-08T15:00:52Z</time>
      </trkpt>
      <trkpt lat="48.32412" lon="-4.23597">
        <ele>37.6</ele>
        <time>2020-06-08T15:00:53Z</time>
      </trkpt>
      <trkpt lat="48.32418" lon="-4.23606">
        <ele>36.9</ele>
        <time>2020-06-08T15:00:54Z</time>
      </trkpt>
      <trkpt lat="48.32424" lon="-4.23615">
        <ele>36.2</ele>
        <time>2020-06-08T15:00:55Z</time>
      </trkpt>
      <trkpt lat="48.3243" lon="-4.23622">
        <ele>35.4</ele>
        <time>2020-06-08T15:00:56Z</time>
      </trkpt>
      <trkpt lat="48.32435" lon="-4.23629">
        <ele>35.2</ele>
        <time>2020-06-08T15:00:57Z</time>
      </trkpt>
      <trkpt lat="48.32439" lon="-4.23635">
        <ele>35</ele>
        <time>2020-06-08T15:00:58Z</time>
      </trkpt>
      <trkpt lat="48.32444" lon="-4.23642">
        <ele>34.7</ele>
        <time>2020-06-08T15:00:59Z</time>
      </trkpt>
      <trkpt lat="48.32449" lon="-4.2365">
        <ele>34.2</ele>
        <time>2020-06-08T15:01:00Z</time>
      </trkpt>
      <trkpt lat="48.32453" lon="-4.23657">
        <ele>33.9</ele>
        <time>2020-06-08T15:01:01Z</time>
      </trkpt>
      <trkpt lat="48.32458" lon="-4.23664">
        <ele>33.7</ele>
        <time>2020-06-08T15:01:02Z</time>
      </trkpt>
      <trkpt lat="48.32463" lon="-4.2367">
        <ele>33.3</ele>
        <time>2020-06-08T15:01:03Z</time>
      </trkpt>
      <trkpt lat="48.32467" lon="-4.23677">
        <ele>33</ele>
        <time>2020-06-08T15:01:04Z</time>
      </trkpt>
      <trkpt lat="48.32471" lon="-4.23683">
        <ele>32.6</ele>
        <time>2020-06-08T15:01:05Z</time>
      </trkpt>
      <trkpt lat="48.32475" lon="-4.23689">
        <ele>32.3</ele>
        <time>2020-06-08T15:01:06Z</time>
      </trkpt>
      <trkpt lat="48.3248" lon="-4.23695">
        <ele>32</ele>
        <time>2020-06-08T15:01:07Z</time>
      </trkpt>
      <trkpt lat="48.32484" lon="-4.23702">
        <ele>31.6</ele>
        <time>2020-06-08T15:01:08Z</time>
      </trkpt>
      <trkpt lat="48.32488" lon="-4.23708">
        <ele>31.2</ele>
        <time>2020-06-08T15:01:09Z</time>
      </trkpt>
      <trkpt lat="48.32492" lon="-4.23716">
        <ele>30.8</ele>
        <time>2020-06-08T15:01:10Z</time>
      </trkpt>
      <trkpt lat="48.32498" lon="-4.23722">
        <ele>30.3</ele>
        <time>2020-06-08T15:01:11Z</time>
      </trkpt>
      <trkpt lat="48.32504" lon="-4.23729">
        <ele>29.7</ele>
        <time>2020-06-08T15:01:12Z</time>
      </trkpt>
      <trkpt lat="48.32509" lon="-4.23736">
        <ele>29.2</ele>
        <time>2020-06-08T15:01:13Z</time>
      </trkpt>
      <trkpt lat="48.32516" lon="-4.23743">
        <ele>28.6</ele>
        <time>2020-06-08T15:01:14Z</time>
      </trkpt>
      <trkpt lat="48.32522" lon="-4.23751">
        <ele>28.1</ele>
        <time>2020-06-08T15:01:15Z</time>
      </trkpt>
      <trkpt lat="48.32529" lon="-4.23758">
        <ele>27.5</ele>
        <time>2020-06-08T15:01:16Z</time>
      </trkpt>
      <trkpt lat="48.32536" lon="-4.23766">
        <ele>26.9</ele>
        <time>2020-06-08T15:01:17Z</time>
      </trkpt>
      <trkpt lat="48.32543" lon="-4.23773">
        <ele>26.5</ele>
        <time>2020-06-08T15:01:18Z</time>
      </trkpt>
      <trkpt lat="48.3255" lon="-4.23781">
        <ele>26.2</ele>
        <time>2020-06-08T15:01:19Z</time>
      </trkpt>
      <trkpt lat="48.32557" lon="-4.23788">
        <ele>25.9</ele>
        <time>2020-06-08T15:01:20Z</time>
      </trkpt>
      <trkpt lat="48.32564" lon="-4.23794">
        <ele>25.6</ele>
        <time>2020-06-08T15:01:21Z</time>
      </trkpt>
      <trkpt lat="48.32572" lon="-4.238">
        <ele>25.3</ele>
        <time>2020-06-08T15:01:22Z</time>
      </trkpt>
      <trkpt lat="48.32579" lon="-4.23805">
        <ele>25.1</ele>
        <time>2020-06-08T15:01:23Z</time>
      </trkpt>
      <trkpt lat="48.32586" lon="-4.23811">
        <ele>24.8</ele>
        <time>2020-06-08T15:01:24Z</time>
      </trkpt>
      <trkpt lat="48.32593" lon="-4.23816">
        <ele>24.4</ele>
        <time>2020-06-08T15:01:25Z</time>
      </trkpt>
      <trkpt lat="48.326" lon="-4.23821">
        <ele>24.1</ele>
        <time>2020-06-08T15:01:26Z</time>
      </trkpt>
      <trkpt lat="48.32606" lon="-4.23827">
        <ele>23.7</ele>
        <time>2020-06-08T15:01:27Z</time>
      </trkpt>
      <trkpt lat="48.32613" lon="-4.23835">
        <ele>23.3</ele>
        <time>2020-06-08T15:01:28Z</time>
      </trkpt>
      <trkpt lat="48.32619" lon="-4.23843">
        <ele>22.8</ele>
        <time>2020-06-08T15:01:29Z</time>
      </trkpt>
      <trkpt lat="48.32624" lon="-4.23853">
        <ele>22.3</ele>
        <time>2020-06-08T15:01:30Z</time>
      </trkpt>
      <trkpt lat="48.32629" lon="-4.23863">
        <ele>21.8</ele>
        <time>2020-06-08T15:01:31Z</time>
      </trkpt>
      <trkpt lat="48.32633" lon="-4.23873">
        <ele>21.4</ele>
        <time>2020-06-08T15:01:32Z</time>
      </trkpt>
      <trkpt lat="48.32637" lon="-4.23883">
        <ele>20.9</ele>
        <time>2020-06-08T15:01:33Z</time>
      </trkpt>
      <trkpt lat="48.32641" lon="-4.23892">
        <ele>20.5</ele>
        <time>2020-06-08T15:01:34Z</time>
      </trkpt>
      <trkpt lat="48.32646" lon="-4.239">
        <ele>20</ele>
        <time>2020-06-08T15:01:35Z</time>
      </trkpt>
      <trkpt lat="48.3265" lon="-4.23909">
        <ele>19.6</ele>
        <time>2020-06-08T15:01:36Z</time>
      </trkpt>
      <trkpt lat="48.32653" lon="-4.23917">
        <ele>19.2</ele>
        <time>2020-06-08T15:01:37Z</time>
      </trkpt>
      <trkpt lat="48.32656" lon="-4.23925">
        <ele>18.9</ele>
        <time>2020-06-08T15:01:38Z</time>
      </trkpt>
      <trkpt lat="48.32659" lon="-4.23931">
        <ele>18.6</ele>
        <time>2020-06-08T15:01:39Z</time>
      </trkpt>
      <trkpt lat="48.32662" lon="-4.23936">
        <ele>18.4</ele>
        <time>2020-06-08T15:01:40Z</time>
      </trkpt>
      <trkpt lat="48.32664" lon="-4.23942">
        <ele>18.3</ele>
        <time>2020-06-08T15:01:41Z</time>
      </trkpt>
      <trkpt lat="48.32666" lon="-4.23948">
        <ele>17.9</ele>
        <time>2020-06-08T15:01:42Z</time>
      </trkpt>
      <trkpt lat="48.32669" lon="-4.23955">
        <ele>17.5</ele>
        <time>2020-06-08T15:01:43Z</time>
      </trkpt>
      <trkpt lat="48.32671" lon="-4.23962">
        <ele>17.2</ele>
        <time>2020-06-08T15:01:44Z</time>
      </trkpt>
      <trkpt lat="48.32674" lon="-4.23969">
        <ele>16.8</ele>
        <time>2020-06-08T15:01:45Z</time>
      </trkpt>
      <trkpt lat="48.32677" lon="-4.23976">
        <ele>16.4</ele>
        <time>2020-06-08T15:01:46Z</time>
      </trkpt>
      <trkpt lat="48.3268" lon="-4.23983">
        <ele>16.1</ele>
        <time>2020-06-08T15:01:47Z</time>
      </trkpt>
      <trkpt lat="48.32682" lon="-4.23989">
        <ele>15.8</ele>
        <time>2020-06-08T15:01:48Z</time>
      </trkpt>
      <trkpt lat="48.32684" lon="-4.23994">
        <ele>15.6</ele>
        <time>2020-06-08T15:01:49Z</time>
      </trkpt>
      <trkpt lat="48.32686" lon="-4.23997">
        <ele>15.5</ele>
        <time>2020-06-08T15:01:50Z</time>
      </trkpt>
      <trkpt lat="48.32689" lon="-4.24001">
        <ele>15.4</ele>
        <time>2020-06-08T15:01:51Z</time>
      </trkpt>
      <trkpt lat="48.3269" lon="-4.24002">
        <ele>15.4</ele>
        <time>2020-06-08T15:01:52Z</time>
      </trkpt>
      <trkpt lat="48.32693" lon="-4.24005">
        <ele>15.1</ele>
        <time>2020-06-08T15:01:53Z</time>
      </trkpt>
      <trkpt lat="48.32697" lon="-4.24009">
        <ele>14.9</ele>
        <time>2020-06-08T15:01:54Z</time>
      </trkpt>
      <trkpt lat="48.32702" lon="-4.24011">
        <ele>14.5</ele>
        <time>2020-06-08T15:01:55Z</time>
      </trkpt>
      <trkpt lat="48.32707" lon="-4.24012">
        <ele>14.1</ele>
        <time>2020-06-08T15:01:56Z</time>
      </trkpt>
      <trkpt lat="48.32713" lon="-4.24014">
        <ele>13.6</ele>
        <time>2020-06-08T15:01:57Z</time>
      </trkpt>
      <trkpt lat="48.32719" lon="-4.24014">
        <ele>13</ele>
        <time>2020-06-08T15:01:58Z</time>
      </trkpt>
      <trkpt lat="48.32724" lon="-4.24014">
        <ele>12.6</ele>
        <time>2020-06-08T15:01:59Z</time>
      </trkpt>
      <trkpt lat="48.32728" lon="-4.24014">
        <ele>12.2</ele>
        <time>2020-06-08T15:02:00Z</time>
      </trkpt>
      <trkpt lat="48.32733" lon="-4.24012">
        <ele>11.9</ele>
        <time>2020-06-08T15:02:01Z</time>
      </trkpt>
      <trkpt lat="48.32737" lon="-4.24011">
        <ele>11.5</ele>
        <time>2020-06-08T15:02:02Z</time>
      </trkpt>
      <trkpt lat="48.32741" lon="-4.24009">
        <ele>11.2</ele>
        <time>2020-06-08T15:02:03Z</time>
      </trkpt>
      <trkpt lat="48.32744" lon="-4.24007">
        <ele>11</ele>
        <time>2020-06-08T15:02:04Z</time>
      </trkpt>
      <trkpt lat="48.32748" lon="-4.24005">
        <ele>10.5</ele>
        <time>2020-06-08T15:02:05Z</time>
      </trkpt>
      <trkpt lat="48.32749" lon="-4.24004">
        <ele>10.5</ele>
        <time>2020-06-08T15:02:06Z</time>
      </trkpt>
      <trkpt lat="48.32752" lon="-4.24007">
        <ele>10.3</ele>
        <time>2020-06-08T15:02:07Z</time>
      </trkpt>
      <trkpt lat="48.32753" lon="-4.24009">
        <ele>10.2</ele>
        <time>2020-06-08T15:02:08Z</time>
      </trkpt>
      <trkpt lat="48.32755" lon="-4.24014">
        <ele>10</ele>
        <time>2020-06-08T15:02:09Z</time>
      </trkpt>
      <trkpt lat="48.32756" lon="-4.24019">
        <ele>9.9</ele>
        <time>2020-06-08T15:02:10Z</time>
      </trkpt>
      <trkpt lat="48.32757" lon="-4.24025">
        <ele>9.7</ele>
        <time>2020-06-08T15:02:11Z</time>
      </trkpt>
      <trkpt lat="48.32759" lon="-4.2403">
        <ele>9.5</ele>
        <time>2020-06-08T15:02:12Z</time>
      </trkpt>
      <trkpt lat="48.3276" lon="-4.24036">
        <ele>9.3</ele>
        <time>2020-06-08T15:02:13Z</time>
      </trkpt>
      <trkpt lat="48.32762" lon="-4.24043">
        <ele>9.1</ele>
        <time>2020-06-08T15:02:14Z</time>
      </trkpt>
      <trkpt lat="48.32764" lon="-4.24049">
        <ele>8.9</ele>
        <time>2020-06-08T15:02:15Z</time>
      </trkpt>
      <trkpt lat="48.32766" lon="-4.24056">
        <ele>8.7</ele>
        <time>2020-06-08T15:02:16Z</time>
      </trkpt>
      <trkpt lat="48.32769" lon="-4.24063">
        <ele>8.5</ele>
        <time>2020-06-08T15:02:17Z</time>
      </trkpt>
      <trkpt lat="48.32772" lon="-4.2407">
        <ele>8.3</ele>
        <time>2020-06-08T15:02:18Z</time>
      </trkpt>
      <trkpt lat="48.32775" lon="-4.24076">
        <ele>8.1</ele>
        <time>2020-06-08T15:02:19Z</time>
      </trkpt>
      <trkpt lat="48.32778" lon="-4.24081">
        <ele>7.9</ele>
        <time>2020-06-08T15:02:20Z</time>
      </trkpt>
      <trkpt lat="48.32781" lon="-4.24085">
        <ele>7.7</ele>
        <time>2020-06-08T15:02:21Z</time>
      </trkpt>
      <trkpt lat="48.32783" lon="-4.24089">
        <ele>7.5</ele>
        <time>2020-06-08T15:02:22Z</time>
      </trkpt>
      <trkpt lat="48.32784" lon="-4.24092">
        <ele>7.4</ele>
        <time>2020-06-08T15:02:23Z</time>
      </trkpt>
      <trkpt lat="48.32785" lon="-4.24091">
        <ele>7.4</ele>
        <time>2020-06-08T15:02:24Z</time>
      </trkpt>
      <trkpt lat="48.32784" lon="-4.24091">
        <ele>7.4</ele>
        <time>2020-06-08T15:02:25Z</time>
      </trkpt>
      <trkpt lat="48.32784" lon="-4.24091">
        <ele>7.4</ele>
        <time>2020-06-08T15:02:26Z</time>
      </trkpt>
      <trkpt lat="48.32785" lon="-4.24091">
        <ele>7.4</ele>
        <time>2020-06-08T15:02:27Z</time>
      </trkpt>
      <trkpt lat="48.32785" lon="-4.24091">
        <ele>7.4</ele>
        <time>2020-06-08T15:02:28Z</time>
      </trkpt>
      <trkpt lat="48.32785" lon="-4.24092">
        <ele>7.4</ele>
        <time>2020-06-08T15:02:29Z</time>
      </trkpt>
      <trkpt lat="48.32785" lon="-4.24092">
        <ele>7.4</ele>
        <time>2020-06-08T15:02:30Z</time>
      </trkpt>
      <trkpt lat="48.32785" lon="-4.24092">
        <ele>7.4</ele>
        <time>2020-06-08T15:02:31Z</time>
      </trkpt>
      <trkpt lat="48.32785" lon="-4.24091">
        <ele>7.3</ele>
        <time>2020-06-08T15:02:32Z</time>
      </trkpt>
      <trkpt lat="48.32785" lon="-4.24092">
        <ele>7.3</ele>
        <time>2020-06-08T15:02:33Z</time>
      </trkpt>
      <trkpt lat="48.32785" lon="-4.24093">
        <ele>7.3</ele>
        <time>2020-06-08T15:02:34Z</time>
      </trkpt>
      <trkpt lat="48.32784" lon="-4.24092">
        <ele>7.3</ele>
        <time>2020-06-08T15:02:35Z</time>
      </trkpt>
      <trkpt lat="48.32785" lon="-4.24092">
        <ele>7.3</ele>
        <time>2020-06-08T15:02:36Z</time>
      </trkpt>
      <trkpt lat="48.32784" lon="-4.24093">
        <ele>7.3</ele>
        <time>2020-06-08T15:02:37Z</time>
      </trkpt>
      <trkpt lat="48.32784" lon="-4.24093">
        <ele>7.3</ele>
        <time>2020-06-08T15:02:38Z</time>
      </trkpt>
      <trkpt lat="48.32784" lon="-4.24092">
        <ele>7.2</ele>
        <time>2020-06-08T15:02:39Z</time>
      </trkpt>
      <trkpt lat="48.32784" lon="-4.24093">
        <ele>7.2</ele>
        <time>2020-06-08T15:02:40Z</time>
      </trkpt>
      <trkpt lat="48.32784" lon="-4.24094">
        <ele>7.2</ele>
        <time>2020-06-08T15:02:41Z</time>
      </trkpt>
      <trkpt lat="48.32784" lon="-4.24095">
        <ele>7.2</ele>
        <time>2020-06-08T15:02:42Z</time>
      </trkpt>
      <trkpt lat="48.32789" lon="-4.24107">
        <ele>6.8</ele>
        <time>2020-06-08T15:05:40Z</time>
      </trkpt>
      <trkpt lat="48.32791" lon="-4.24107">
        <ele>6.8</ele>
        <time>2020-06-08T15:05:41Z</time>
      </trkpt>
      <trkpt lat="48.32795" lon="-4.24109">
        <ele>6.7</ele>
        <time>2020-06-08T15:05:42Z</time>
      </trkpt>
      <trkpt lat="48.32796" lon="-4.2411">
        <ele>6.6</ele>
        <time>2020-06-08T15:05:43Z</time>
      </trkpt>
      <trkpt lat="48.32798" lon="-4.24113">
        <ele>6.5</ele>
        <time>2020-06-08T15:05:44Z</time>
      </trkpt>
      <trkpt lat="48.32801" lon="-4.24116">
        <ele>6.4</ele>
        <time>2020-06-08T15:05:45Z</time>
      </trkpt>
      <trkpt lat="48.32803" lon="-4.2412">
        <ele>6.3</ele>
        <time>2020-06-08T15:05:46Z</time>
      </trkpt>
      <trkpt lat="48.32806" lon="-4.24123">
        <ele>6.2</ele>
        <time>2020-06-08T15:05:47Z</time>
      </trkpt>
      <trkpt lat="48.32809" lon="-4.24127">
        <ele>6.1</ele>
        <time>2020-06-08T15:05:48Z</time>
      </trkpt>
      <trkpt lat="48.32812" lon="-4.24132">
        <ele>6</ele>
        <time>2020-06-08T15:05:49Z</time>
      </trkpt>
      <trkpt lat="48.32816" lon="-4.24137">
        <ele>5.9</ele>
        <time>2020-06-08T15:05:50Z</time>
      </trkpt>
      <trkpt lat="48.32819" lon="-4.24142">
        <ele>5.8</ele>
        <time>2020-06-08T15:05:51Z</time>
      </trkpt>
      <trkpt lat="48.32824" lon="-4.24146">
        <ele>5.7</ele>
        <time>2020-06-08T15:05:52Z</time>
      </trkpt>
      <trkpt lat="48.32828" lon="-4.2415">
        <ele>5.6</ele>
        <time>2020-06-08T15:05:53Z</time>
      </trkpt>
      <trkpt lat="48.32832" lon="-4.24155">
        <ele>5.5</ele>
        <time>2020-06-08T15:05:54Z</time>
      </trkpt>
      <trkpt lat="48.32836" lon="-4.2416">
        <ele>5.5</ele>
        <time>2020-06-08T15:05:55Z</time>
      </trkpt>
      <trkpt lat="48.32841" lon="-4.24162">
        <ele>5.4</ele>
        <time>2020-06-08T15:05:56Z</time>
      </trkpt>
      <trkpt lat="48.32845" lon="-4.24167">
        <ele>5.4</ele>
        <time>2020-06-08T15:05:57Z</time>
      </trkpt>
      <trkpt lat="48.32849" lon="-4.2417">
        <ele>5.4</ele>
        <time>2020-06-08T15:05:58Z</time>
      </trkpt>
      <trkpt lat="48.32853" lon="-4.24173">
        <ele>5.4</ele>
        <time>2020-06-08T15:05:59Z</time>
      </trkpt>
      <trkpt lat="48.32856" lon="-4.24177">
        <ele>5.4</ele>
        <time>2020-06-08T15:06:00Z</time>
      </trkpt>
      <trkpt lat="48.3286" lon="-4.2418">
        <ele>5.3</ele>
        <time>2020-06-08T15:06:01Z</time>
      </trkpt>
      <trkpt lat="48.32864" lon="-4.24185">
        <ele>5.3</ele>
        <time>2020-06-08T15:06:02Z</time>
      </trkpt>
      <trkpt lat="48.32867" lon="-4.24189">
        <ele>5.3</ele>
        <time>2020-06-08T15:06:03Z</time>
      </trkpt>
      <trkpt lat="48.32868" lon="-4.24191">
        <ele>5.3</ele>
        <time>2020-06-08T15:06:04Z</time>
      </trkpt>
      <trkpt lat="48.32869" lon="-4.24191">
        <ele>5.4</ele>
        <time>2020-06-08T15:06:05Z</time>
      </trkpt>
      <trkpt lat="48.32869" lon="-4.24192">
        <ele>5.4</ele>
        <time>2020-06-08T15:06:06Z</time>
      </trkpt>
      <trkpt lat="48.32868" lon="-4.24196">
        <ele>5.4</ele>
        <time>2020-06-08T15:06:07Z</time>
      </trkpt>
      <trkpt lat="48.32868" lon="-4.24199">
        <ele>5.4</ele>
        <time>2020-06-08T15:06:08Z</time>
      </trkpt>
      <trkpt lat="48.32869" lon="-4.24199">
        <ele>5.4</ele>
        <time>2020-06-08T15:06:09Z</time>
      </trkpt>
      <trkpt lat="48.32869" lon="-4.242">
        <ele>5.4</ele>
        <time>2020-06-08T15:06:10Z</time>
      </trkpt>
      <trkpt lat="48.32869" lon="-4.242">
        <ele>5.4</ele>
        <time>2020-06-08T15:06:11Z</time>
      </trkpt>
      <trkpt lat="48.32868" lon="-4.24199">
        <ele>5.4</ele>
        <time>2020-06-08T15:06:12Z</time>
      </trkpt>
      <trkpt lat="48.32868" lon="-4.24198">
        <ele>5.4</ele>
        <time>2020-06-08T15:06:13Z</time>
      </trkpt>
      <trkpt lat="48.32868" lon="-4.24198">
        <ele>5.4</ele>
        <time>2020-06-08T15:06:14Z</time>
      </trkpt>
      <trkpt lat="48.32869" lon="-4.24198">
        <ele>5.4</ele>
        <time>2020-06-08T15:06:15Z</time>
      </trkpt>
      <trkpt lat="48.32869" lon="-4.24197">
        <ele>5.4</ele>
        <time>2020-06-08T15:06:16Z</time>
      </trkpt>
      <trkpt lat="48.32868" lon="-4.24197">
        <ele>5.4</ele>
        <time>2020-06-08T15:06:17Z</time>
      </trkpt>
      <trkpt lat="48.32869" lon="-4.24196">
        <ele>5.4</ele>
        <time>2020-06-08T15:06:18Z</time>
      </trkpt>
      <trkpt lat="48.32868" lon="-4.24195">
        <ele>5.4</ele>
        <time>2020-06-08T15:06:19Z</time>
      </trkpt>
      <trkpt lat="48.32869" lon="-4.24196">
        <ele>5.4</ele>
        <time>2020-06-08T15:06:20Z</time>
      </trkpt>
      <trkpt lat="48.32873" lon="-4.24203">
        <ele>5.4</ele>
        <time>2020-06-08T15:16:17Z</time>
      </trkpt>
      <trkpt lat="48.32874" lon="-4.24205">
        <ele>5.4</ele>
        <time>2020-06-08T15:16:18Z</time>
      </trkpt>
      <trkpt lat="48.32876" lon="-4.24206">
        <ele>5.4</ele>
        <time>2020-06-08T15:16:19Z</time>
      </trkpt>
      <trkpt lat="48.32877" lon="-4.24208">
        <ele>5.4</ele>
        <time>2020-06-08T15:16:20Z</time>
      </trkpt>
      <trkpt lat="48.32879" lon="-4.24211">
        <ele>5.4</ele>
        <time>2020-06-08T15:16:21Z</time>
      </trkpt>
      <trkpt lat="48.3288" lon="-4.24212">
        <ele>5.4</ele>
        <time>2020-06-08T15:16:22Z</time>
      </trkpt>
      <trkpt lat="48.32883" lon="-4.24215">
        <ele>5.4</ele>
        <time>2020-06-08T15:16:23Z</time>
      </trkpt>
      <trkpt lat="48.32884" lon="-4.24216">
        <ele>5.4</ele>
        <time>2020-06-08T15:16:24Z</time>
      </trkpt>
      <trkpt lat="48.32887" lon="-4.24216">
        <ele>5.4</ele>
        <time>2020-06-08T15:16:25Z</time>
      </trkpt>
      <trkpt lat="48.32888" lon="-4.24216">
        <ele>5.4</ele>
        <time>2020-06-08T15:16:26Z</time>
      </trkpt>
      <trkpt lat="48.3289" lon="-4.24216">
        <ele>5.4</ele>
        <time>2020-06-08T15:16:27Z</time>
      </trkpt>
      <trkpt lat="48.32891" lon="-4.24217">
        <ele>5.4</ele>
        <time>2020-06-08T15:16:28Z</time>
      </trkpt>
      <trkpt lat="48.32894" lon="-4.24218">
        <ele>5.4</ele>
        <time>2020-06-08T15:16:29Z</time>
      </trkpt>
      <trkpt lat="48.32896" lon="-4.24222">
        <ele>5.4</ele>
        <time>2020-06-08T15:16:30Z</time>
      </trkpt>
      <trkpt lat="48.32896" lon="-4.24223">
        <ele>5.4</ele>
        <time>2020-06-08T15:16:31Z</time>
      </trkpt>
      <trkpt lat="48.32899" lon="-4.24229">
        <ele>5.4</ele>
        <time>2020-06-08T15:16:32Z</time>
      </trkpt>
      <trkpt lat="48.32899" lon="-4.24231">
        <ele>5.4</ele>
        <time>2020-06-08T15:16:33Z</time>
      </trkpt>
      <trkpt lat="48.329" lon="-4.24235">
        <ele>5.4</ele>
        <time>2020-06-08T15:16:34Z</time>
      </trkpt>
      <trkpt lat="48.32902" lon="-4.2424">
        <ele>5.4</ele>
        <time>2020-06-08T15:16:35Z</time>
      </trkpt>
      <trkpt lat="48.32903" lon="-4.24243">
        <ele>5.4</ele>
        <time>2020-06-08T15:16:36Z</time>
      </trkpt>
      <trkpt lat="48.32905" lon="-4.24245">
        <ele>5.4</ele>
        <time>2020-06-08T15:16:37Z</time>
      </trkpt>
      <trkpt lat="48.32908" lon="-4.24248">
        <ele>5.4</ele>
        <time>2020-06-08T15:16:38Z</time>
      </trkpt>
      <trkpt lat="48.3291" lon="-4.2425">
        <ele>5.4</ele>
        <time>2020-06-08T15:16:39Z</time>
      </trkpt>
      <trkpt lat="48.32912" lon="-4.24253">
        <ele>5.4</ele>
        <time>2020-06-08T15:16:40Z</time>
      </trkpt>
      <trkpt lat="48.32915" lon="-4.24256">
        <ele>5.4</ele>
        <time>2020-06-08T15:16:41Z</time>
      </trkpt>
      <trkpt lat="48.32917" lon="-4.2426">
        <ele>5.4</ele>
        <time>2020-06-08T15:16:42Z</time>
      </trkpt>
      <trkpt lat="48.32919" lon="-4.24263">
        <ele>5.4</ele>
        <time>2020-06-08T15:16:43Z</time>
      </trkpt>
      <trkpt lat="48.32922" lon="-4.24265">
        <ele>5.4</ele>
        <time>2020-06-08T15:16:44Z</time>
      </trkpt>
      <trkpt lat="48.32923" lon="-4.24267">
        <ele>5.4</ele>
        <time>2020-06-08T15:16:45Z</time>
      </trkpt>
      <trkpt lat="48.32925" lon="-4.2427">
        <ele>5.4</ele>
        <time>2020-06-08T15:16:46Z</time>
      </trkpt>
      <trkpt lat="48.32928" lon="-4.24274">
        <ele>5.5</ele>
        <time>2020-06-08T15:16:47Z</time>
      </trkpt>
      <trkpt lat="48.32931" lon="-4.24276">
        <ele>5.5</ele>
        <time>2020-06-08T15:16:48Z</time>
      </trkpt>
      <trkpt lat="48.32934" lon="-4.24279">
        <ele>5.5</ele>
        <time>2020-06-08T15:16:49Z</time>
      </trkpt>
      <trkpt lat="48.32936" lon="-4.24283">
        <ele>5.6</ele>
        <time>2020-06-08T15:16:50Z</time>
      </trkpt>
      <trkpt lat="48.32938" lon="-4.24286">
        <ele>5.6</ele>
        <time>2020-06-08T15:16:51Z</time>
      </trkpt>
      <trkpt lat="48.3294" lon="-4.24289">
        <ele>5.6</ele>
        <time>2020-06-08T15:16:52Z</time>
      </trkpt>
      <trkpt lat="48.32943" lon="-4.24292">
        <ele>5.7</ele>
        <time>2020-06-08T15:16:53Z</time>
      </trkpt>
      <trkpt lat="48.32945" lon="-4.24294">
        <ele>5.7</ele>
        <time>2020-06-08T15:16:54Z</time>
      </trkpt>
      <trkpt lat="48.32948" lon="-4.24297">
        <ele>5.8</ele>
        <time>2020-06-08T15:16:55Z</time>
      </trkpt>
      <trkpt lat="48.3295" lon="-4.24301">
        <ele>5.8</ele>
        <time>2020-06-08T15:16:56Z</time>
      </trkpt>
      <trkpt lat="48.32953" lon="-4.24303">
        <ele>5.8</ele>
        <time>2020-06-08T15:16:57Z</time>
      </trkpt>
      <trkpt lat="48.32955" lon="-4.24306">
        <ele>5.9</ele>
        <time>2020-06-08T15:16:58Z</time>
      </trkpt>
      <trkpt lat="48.32958" lon="-4.24309">
        <ele>5.9</ele>
        <time>2020-06-08T15:16:59Z</time>
      </trkpt>
      <trkpt lat="48.32961" lon="-4.24312">
        <ele>5.9</ele>
        <time>2020-06-08T15:17:00Z</time>
      </trkpt>
      <trkpt lat="48.32964" lon="-4.24314">
        <ele>6</ele>
        <time>2020-06-08T15:17:01Z</time>
      </trkpt>
      <trkpt lat="48.32967" lon="-4.24317">
        <ele>6</ele>
        <time>2020-06-08T15:17:02Z</time>
      </trkpt>
      <trkpt lat="48.3297" lon="-4.2432">
        <ele>6</ele>
        <time>2020-06-08T15:17:03Z</time>
      </trkpt>
      <trkpt lat="48.32971" lon="-4.24321">
        <ele>6.1</ele>
        <time>2020-06-08T15:17:04Z</time>
      </trkpt>
      <trkpt lat="48.32974" lon="-4.24325">
        <ele>6.2</ele>
        <time>2020-06-08T15:17:05Z</time>
      </trkpt>
      <trkpt lat="48.32974" lon="-4.24326">
        <ele>6.2</ele>
        <time>2020-06-08T15:17:06Z</time>
      </trkpt>
      <trkpt lat="48.32976" lon="-4.2433">
        <ele>6.3</ele>
        <time>2020-06-08T15:17:07Z</time>
      </trkpt>
      <trkpt lat="48.32977" lon="-4.24332">
        <ele>6.3</ele>
        <time>2020-06-08T15:17:08Z</time>
      </trkpt>
      <trkpt lat="48.32979" lon="-4.24336">
        <ele>6.4</ele>
        <time>2020-06-08T15:17:09Z</time>
      </trkpt>
      <trkpt lat="48.32981" lon="-4.24339">
        <ele>6.4</ele>
        <time>2020-06-08T15:17:10Z</time>
      </trkpt>
      <trkpt lat="48.32983" lon="-4.24343">
        <ele>6.5</ele>
        <time>2020-06-08T15:17:11Z</time>
      </trkpt>
      <trkpt lat="48.32985" lon="-4.24347">
        <ele>6.5</ele>
        <time>2020-06-08T15:17:12Z</time>
      </trkpt>
      <trkpt lat="48.32988" lon="-4.24349">
        <ele>6.5</ele>
        <time>2020-06-08T15:17:13Z</time>
      </trkpt>
      <trkpt lat="48.32991" lon="-4.24351">
        <ele>6.6</ele>
        <time>2020-06-08T15:17:14Z</time>
      </trkpt>
      <trkpt lat="48.32994" lon="-4.24354">
        <ele>6.6</ele>
        <time>2020-06-08T15:17:15Z</time>
      </trkpt>
      <trkpt lat="48.32996" lon="-4.24357">
        <ele>6.6</ele>
        <time>2020-06-08T15:17:16Z</time>
      </trkpt>
      <trkpt lat="48.32999" lon="-4.24361">
        <ele>6.7</ele>
        <time>2020-06-08T15:17:17Z</time>
      </trkpt>
      <trkpt lat="48.33001" lon="-4.24365">
        <ele>6.7</ele>
        <time>2020-06-08T15:17:18Z</time>
      </trkpt>
      <trkpt lat="48.33003" lon="-4.24368">
        <ele>6.8</ele>
        <time>2020-06-08T15:17:19Z</time>
      </trkpt>
      <trkpt lat="48.33005" lon="-4.24372">
        <ele>6.8</ele>
        <time>2020-06-08T15:17:20Z</time>
      </trkpt>
      <trkpt lat="48.33008" lon="-4.24374">
        <ele>6.8</ele>
        <time>2020-06-08T15:17:21Z</time>
      </trkpt>
      <trkpt lat="48.33011" lon="-4.24377">
        <ele>6.9</ele>
        <time>2020-06-08T15:17:22Z</time>
      </trkpt>
      <trkpt lat="48.33013" lon="-4.24379">
        <ele>6.9</ele>
        <time>2020-06-08T15:17:23Z</time>
      </trkpt>
      <trkpt lat="48.33016" lon="-4.24381">
        <ele>7</ele>
        <time>2020-06-08T15:17:24Z</time>
      </trkpt>
      <trkpt lat="48.33019" lon="-4.24383">
        <ele>7</ele>
        <time>2020-06-08T15:17:25Z</time>
      </trkpt>
      <trkpt lat="48.33021" lon="-4.24385">
        <ele>7.1</ele>
        <time>2020-06-08T15:17:26Z</time>
      </trkpt>
      <trkpt lat="48.33023" lon="-4.24389">
        <ele>7.1</ele>
        <time>2020-06-08T15:17:27Z</time>
      </trkpt>
      <trkpt lat="48.33026" lon="-4.24391">
        <ele>7.1</ele>
        <time>2020-06-08T15:17:28Z</time>
      </trkpt>
      <trkpt lat="48.33028" lon="-4.24393">
        <ele>7.2</ele>
        <time>2020-06-08T15:17:29Z</time>
      </trkpt>
      <trkpt lat="48.33031" lon="-4.24396">
        <ele>7.2</ele>
        <time>2020-06-08T15:17:30Z</time>
      </trkpt>
      <trkpt lat="48.33033" lon="-4.24399">
        <ele>7.3</ele>
        <time>2020-06-08T15:17:31Z</time>
      </trkpt>
      <trkpt lat="48.33036" lon="-4.24403">
        <ele>7.3</ele>
        <time>2020-06-08T15:17:32Z</time>
      </trkpt>
      <trkpt lat="48.33037" lon="-4.24404">
        <ele>7.4</ele>
        <time>2020-06-08T15:17:33Z</time>
      </trkpt>
      <trkpt lat="48.3304" lon="-4.24407">
        <ele>7.4</ele>
        <time>2020-06-08T15:17:34Z</time>
      </trkpt>
      <trkpt lat="48.33043" lon="-4.2441">
        <ele>7.5</ele>
        <time>2020-06-08T15:17:35Z</time>
      </trkpt>
      <trkpt lat="48.33044" lon="-4.24414">
        <ele>7.6</ele>
        <time>2020-06-08T15:17:36Z</time>
      </trkpt>
      <trkpt lat="48.33046" lon="-4.24417">
        <ele>7.7</ele>
        <time>2020-06-08T15:17:37Z</time>
      </trkpt>
      <trkpt lat="48.33048" lon="-4.2442">
        <ele>7.8</ele>
        <time>2020-06-08T15:17:38Z</time>
      </trkpt>
      <trkpt lat="48.33051" lon="-4.24424">
        <ele>7.9</ele>
        <time>2020-06-08T15:17:39Z</time>
      </trkpt>
      <trkpt lat="48.33054" lon="-4.24426">
        <ele>8</ele>
        <time>2020-06-08T15:17:40Z</time>
      </trkpt>
      <trkpt lat="48.33055" lon="-4.24431">
        <ele>8.1</ele>
        <time>2020-06-08T15:17:41Z</time>
      </trkpt>
      <trkpt lat="48.33058" lon="-4.24435">
        <ele>8.2</ele>
        <time>2020-06-08T15:17:42Z</time>
      </trkpt>
      <trkpt lat="48.33058" lon="-4.24439">
        <ele>8.3</ele>
        <time>2020-06-08T15:17:43Z</time>
      </trkpt>
      <trkpt lat="48.3306" lon="-4.24442">
        <ele>8.3</ele>
        <time>2020-06-08T15:17:44Z</time>
      </trkpt>
      <trkpt lat="48.3306" lon="-4.24447">
        <ele>8.4</ele>
        <time>2020-06-08T15:17:45Z</time>
      </trkpt>
      <trkpt lat="48.33062" lon="-4.24451">
        <ele>8.5</ele>
        <time>2020-06-08T15:17:46Z</time>
      </trkpt>
      <trkpt lat="48.33064" lon="-4.24455">
        <ele>8.6</ele>
        <time>2020-06-08T15:17:47Z</time>
      </trkpt>
      <trkpt lat="48.33066" lon="-4.24459">
        <ele>8.7</ele>
        <time>2020-06-08T15:17:48Z</time>
      </trkpt>
      <trkpt lat="48.33067" lon="-4.24463">
        <ele>8.8</ele>
        <time>2020-06-08T15:17:49Z</time>
      </trkpt>
      <trkpt lat="48.33069" lon="-4.24467">
        <ele>8.9</ele>
        <time>2020-06-08T15:17:50Z</time>
      </trkpt>
      <trkpt lat="48.3307" lon="-4.24471">
        <ele>8.9</ele>
        <time>2020-06-08T15:17:51Z</time>
      </trkpt>
      <trkpt lat="48.33072" lon="-4.24475">
        <ele>9</ele>
        <time>2020-06-08T15:17:52Z</time>
      </trkpt>
      <trkpt lat="48.33073" lon="-4.2448">
        <ele>9.1</ele>
        <time>2020-06-08T15:17:53Z</time>
      </trkpt>
      <trkpt lat="48.33075" lon="-4.24484">
        <ele>9.1</ele>
        <time>2020-06-08T15:17:54Z</time>
      </trkpt>
      <trkpt lat="48.33076" lon="-4.24489">
        <ele>9.1</ele>
        <time>2020-06-08T15:17:55Z</time>
      </trkpt>
      <trkpt lat="48.33078" lon="-4.24493">
        <ele>9.2</ele>
        <time>2020-06-08T15:17:56Z</time>
      </trkpt>
      <trkpt lat="48.33079" lon="-4.24497">
        <ele>9.2</ele>
        <time>2020-06-08T15:17:57Z</time>
      </trkpt>
      <trkpt lat="48.33081" lon="-4.24501">
        <ele>9.3</ele>
        <time>2020-06-08T15:17:58Z</time>
      </trkpt>
      <trkpt lat="48.33082" lon="-4.24506">
        <ele>9.3</ele>
        <time>2020-06-08T15:17:59Z</time>
      </trkpt>
      <trkpt lat="48.33082" lon="-4.24512">
        <ele>9.4</ele>
        <time>2020-06-08T15:18:00Z</time>
      </trkpt>
      <trkpt lat="48.33083" lon="-4.24517">
        <ele>9.5</ele>
        <time>2020-06-08T15:18:01Z</time>
      </trkpt>
      <trkpt lat="48.33084" lon="-4.24522">
        <ele>9.6</ele>
        <time>2020-06-08T15:18:02Z</time>
      </trkpt>
      <trkpt lat="48.33085" lon="-4.24527">
        <ele>9.7</ele>
        <time>2020-06-08T15:18:03Z</time>
      </trkpt>
      <trkpt lat="48.33087" lon="-4.24532">
        <ele>9.7</ele>
        <time>2020-06-08T15:18:04Z</time>
      </trkpt>
      <trkpt lat="48.33088" lon="-4.24536">
        <ele>9.8</ele>
        <time>2020-06-08T15:18:05Z</time>
      </trkpt>
      <trkpt lat="48.33089" lon="-4.24541">
        <ele>9.9</ele>
        <time>2020-06-08T15:18:06Z</time>
      </trkpt>
      <trkpt lat="48.33091" lon="-4.24545">
        <ele>10</ele>
        <time>2020-06-08T15:18:07Z</time>
      </trkpt>
      <trkpt lat="48.33093" lon="-4.24549">
        <ele>10.1</ele>
        <time>2020-06-08T15:18:08Z</time>
      </trkpt>
      <trkpt lat="48.33095" lon="-4.24554">
        <ele>10.2</ele>
        <time>2020-06-08T15:18:09Z</time>
      </trkpt>
      <trkpt lat="48.33096" lon="-4.24558">
        <ele>10.3</ele>
        <time>2020-06-08T15:18:10Z</time>
      </trkpt>
      <trkpt lat="48.33097" lon="-4.24562">
        <ele>10.4</ele>
        <time>2020-06-08T15:18:11Z</time>
      </trkpt>
      <trkpt lat="48.33099" lon="-4.24567">
        <ele>10.5</ele>
        <time>2020-06-08T15:18:12Z</time>
      </trkpt>
      <trkpt lat="48.33099" lon="-4.2457">
        <ele>10.5</ele>
        <time>2020-06-08T15:18:13Z</time>
      </trkpt>
      <trkpt lat="48.33101" lon="-4.24574">
        <ele>10.6</ele>
        <time>2020-06-08T15:18:14Z</time>
      </trkpt>
      <trkpt lat="48.33103" lon="-4.24578">
        <ele>10.7</ele>
        <time>2020-06-08T15:18:15Z</time>
      </trkpt>
      <trkpt lat="48.33104" lon="-4.24582">
        <ele>10.8</ele>
        <time>2020-06-08T15:18:16Z</time>
      </trkpt>
      <trkpt lat="48.33105" lon="-4.24586">
        <ele>10.9</ele>
        <time>2020-06-08T15:18:17Z</time>
      </trkpt>
      <trkpt lat="48.33107" lon="-4.24592">
        <ele>11</ele>
        <time>2020-06-08T15:18:18Z</time>
      </trkpt>
      <trkpt lat="48.33108" lon="-4.24597">
        <ele>11.2</ele>
        <time>2020-06-08T15:18:19Z</time>
      </trkpt>
      <trkpt lat="48.33108" lon="-4.24603">
        <ele>11.4</ele>
        <time>2020-06-08T15:18:20Z</time>
      </trkpt>
      <trkpt lat="48.33108" lon="-4.24609">
        <ele>11.5</ele>
        <time>2020-06-08T15:18:21Z</time>
      </trkpt>
      <trkpt lat="48.33108" lon="-4.24613">
        <ele>11.7</ele>
        <time>2020-06-08T15:18:22Z</time>
      </trkpt>
      <trkpt lat="48.33108" lon="-4.24618">
        <ele>11.8</ele>
        <time>2020-06-08T15:18:23Z</time>
      </trkpt>
      <trkpt lat="48.33109" lon="-4.24624">
        <ele>12</ele>
        <time>2020-06-08T15:18:24Z</time>
      </trkpt>
      <trkpt lat="48.3311" lon="-4.24626">
        <ele>12.1</ele>
        <time>2020-06-08T15:18:25Z</time>
      </trkpt>
      <trkpt lat="48.33112" lon="-4.24631">
        <ele>12.2</ele>
        <time>2020-06-08T15:18:26Z</time>
      </trkpt>
      <trkpt lat="48.33113" lon="-4.24632">
        <ele>12.3</ele>
        <time>2020-06-08T15:18:27Z</time>
      </trkpt>
      <trkpt lat="48.33115" lon="-4.24637">
        <ele>12.5</ele>
        <time>2020-06-08T15:18:28Z</time>
      </trkpt>
      <trkpt lat="48.33116" lon="-4.24639">
        <ele>12.6</ele>
        <time>2020-06-08T15:18:29Z</time>
      </trkpt>
      <trkpt lat="48.33117" lon="-4.24643">
        <ele>12.7</ele>
        <time>2020-06-08T15:18:30Z</time>
      </trkpt>
      <trkpt lat="48.33118" lon="-4.24649">
        <ele>12.9</ele>
        <time>2020-06-08T15:18:31Z</time>
      </trkpt>
      <trkpt lat="48.33119" lon="-4.24652">
        <ele>13</ele>
        <time>2020-06-08T15:18:32Z</time>
      </trkpt>
      <trkpt lat="48.33119" lon="-4.24656">
        <ele>13.1</ele>
        <time>2020-06-08T15:18:33Z</time>
      </trkpt>
      <trkpt lat="48.33119" lon="-4.24662">
        <ele>13.3</ele>
        <time>2020-06-08T15:18:34Z</time>
      </trkpt>
      <trkpt lat="48.33121" lon="-4.24668">
        <ele>13.5</ele>
        <time>2020-06-08T15:18:35Z</time>
      </trkpt>
      <trkpt lat="48.33123" lon="-4.24673">
        <ele>13.6</ele>
        <time>2020-06-08T15:18:36Z</time>
      </trkpt>
      <trkpt lat="48.33124" lon="-4.24678">
        <ele>13.8</ele>
        <time>2020-06-08T15:18:37Z</time>
      </trkpt>
      <trkpt lat="48.33125" lon="-4.24682">
        <ele>13.9</ele>
        <time>2020-06-08T15:18:38Z</time>
      </trkpt>
      <trkpt lat="48.33125" lon="-4.24687">
        <ele>14</ele>
        <time>2020-06-08T15:18:39Z</time>
      </trkpt>
      <trkpt lat="48.33127" lon="-4.24692">
        <ele>14.2</ele>
        <time>2020-06-08T15:18:40Z</time>
      </trkpt>
      <trkpt lat="48.33128" lon="-4.24693">
        <ele>14.2</ele>
        <time>2020-06-08T15:18:41Z</time>
      </trkpt>
      <trkpt lat="48.33129" lon="-4.24697">
        <ele>14.4</ele>
        <time>2020-06-08T15:18:42Z</time>
      </trkpt>
      <trkpt lat="48.33132" lon="-4.24702">
        <ele>14.5</ele>
        <time>2020-06-08T15:18:43Z</time>
      </trkpt>
      <trkpt lat="48.33134" lon="-4.24704">
        <ele>14.6</ele>
        <time>2020-06-08T15:18:44Z</time>
      </trkpt>
      <trkpt lat="48.33135" lon="-4.24707">
        <ele>14.7</ele>
        <time>2020-06-08T15:18:45Z</time>
      </trkpt>
      <trkpt lat="48.33137" lon="-4.24711">
        <ele>14.9</ele>
        <time>2020-06-08T15:18:46Z</time>
      </trkpt>
      <trkpt lat="48.33139" lon="-4.24715">
        <ele>15</ele>
        <time>2020-06-08T15:18:47Z</time>
      </trkpt>
      <trkpt lat="48.3314" lon="-4.2472">
        <ele>15.2</ele>
        <time>2020-06-08T15:18:48Z</time>
      </trkpt>
      <trkpt lat="48.33142" lon="-4.24725">
        <ele>15.3</ele>
        <time>2020-06-08T15:18:49Z</time>
      </trkpt>
      <trkpt lat="48.33143" lon="-4.2473">
        <ele>15.5</ele>
        <time>2020-06-08T15:18:50Z</time>
      </trkpt>
      <trkpt lat="48.33144" lon="-4.24734">
        <ele>15.6</ele>
        <time>2020-06-08T15:18:51Z</time>
      </trkpt>
      <trkpt lat="48.33145" lon="-4.24739">
        <ele>15.8</ele>
        <time>2020-06-08T15:18:52Z</time>
      </trkpt>
      <trkpt lat="48.33146" lon="-4.24743">
        <ele>15.9</ele>
        <time>2020-06-08T15:18:53Z</time>
      </trkpt>
      <trkpt lat="48.33147" lon="-4.24748">
        <ele>16.1</ele>
        <time>2020-06-08T15:18:54Z</time>
      </trkpt>
      <trkpt lat="48.33147" lon="-4.24754">
        <ele>16.2</ele>
        <time>2020-06-08T15:18:55Z</time>
      </trkpt>
      <trkpt lat="48.33149" lon="-4.24758">
        <ele>16.4</ele>
        <time>2020-06-08T15:18:56Z</time>
      </trkpt>
      <trkpt lat="48.3315" lon="-4.24762">
        <ele>16.5</ele>
        <time>2020-06-08T15:18:57Z</time>
      </trkpt>
      <trkpt lat="48.33151" lon="-4.24768">
        <ele>16.7</ele>
        <time>2020-06-08T15:18:58Z</time>
      </trkpt>
      <trkpt lat="48.33151" lon="-4.2477">
        <ele>16.7</ele>
        <time>2020-06-08T15:18:59Z</time>
      </trkpt>
      <trkpt lat="48.33153" lon="-4.24774">
        <ele>16.9</ele>
        <time>2020-06-08T15:19:00Z</time>
      </trkpt>
      <trkpt lat="48.33154" lon="-4.24779">
        <ele>17</ele>
        <time>2020-06-08T15:19:01Z</time>
      </trkpt>
      <trkpt lat="48.33155" lon="-4.24783">
        <ele>17.1</ele>
        <time>2020-06-08T15:19:02Z</time>
      </trkpt>
      <trkpt lat="48.33156" lon="-4.24787">
        <ele>17.3</ele>
        <time>2020-06-08T15:19:03Z</time>
      </trkpt>
      <trkpt lat="48.33157" lon="-4.24791">
        <ele>17.4</ele>
        <time>2020-06-08T15:19:04Z</time>
      </trkpt>
      <trkpt lat="48.33159" lon="-4.24795">
        <ele>17.5</ele>
        <time>2020-06-08T15:19:05Z</time>
      </trkpt>
      <trkpt lat="48.3316" lon="-4.24799">
        <ele>17.7</ele>
        <time>2020-06-08T15:19:06Z</time>
      </trkpt>
      <trkpt lat="48.33162" lon="-4.24805">
        <ele>17.9</ele>
        <time>2020-06-08T15:19:07Z</time>
      </trkpt>
      <trkpt lat="48.33162" lon="-4.24807">
        <ele>18</ele>
        <time>2020-06-08T15:19:08Z</time>
      </trkpt>
      <trkpt lat="48.33163" lon="-4.24812">
        <ele>18.1</ele>
        <time>2020-06-08T15:19:09Z</time>
      </trkpt>
      <trkpt lat="48.33164" lon="-4.24816">
        <ele>18.2</ele>
        <time>2020-06-08T15:19:10Z</time>
      </trkpt>
      <trkpt lat="48.33166" lon="-4.24821">
        <ele>18.4</ele>
        <time>2020-06-08T15:19:11Z</time>
      </trkpt>
      <trkpt lat="48.33166" lon="-4.24822">
        <ele>18.5</ele>
        <time>2020-06-08T15:19:12Z</time>
      </trkpt>
      <trkpt lat="48.33167" lon="-4.24828">
        <ele>18.7</ele>
        <time>2020-06-08T15:19:13Z</time>
      </trkpt>
      <trkpt lat="48.33168" lon="-4.2483">
        <ele>18.7</ele>
        <time>2020-06-08T15:19:14Z</time>
      </trkpt>
      <trkpt lat="48.33169" lon="-4.24834">
        <ele>18.9</ele>
        <time>2020-06-08T15:19:15Z</time>
      </trkpt>
      <trkpt lat="48.3317" lon="-4.24838">
        <ele>19</ele>
        <time>2020-06-08T15:19:16Z</time>
      </trkpt>
      <trkpt lat="48.33172" lon="-4.24843">
        <ele>19.2</ele>
        <time>2020-06-08T15:19:17Z</time>
      </trkpt>
      <trkpt lat="48.33173" lon="-4.24845">
        <ele>19.2</ele>
        <time>2020-06-08T15:19:18Z</time>
      </trkpt>
      <trkpt lat="48.33173" lon="-4.24849">
        <ele>19.4</ele>
        <time>2020-06-08T15:19:19Z</time>
      </trkpt>
      <trkpt lat="48.33174" lon="-4.24855">
        <ele>19.6</ele>
        <time>2020-06-08T15:19:20Z</time>
      </trkpt>
      <trkpt lat="48.33174" lon="-4.24857">
        <ele>19.6</ele>
        <time>2020-06-08T15:19:21Z</time>
      </trkpt>
      <trkpt lat="48.33176" lon="-4.24861">
        <ele>19.8</ele>
        <time>2020-06-08T15:19:22Z</time>
      </trkpt>
      <trkpt lat="48.33176" lon="-4.24865">
        <ele>19.9</ele>
        <time>2020-06-08T15:19:23Z</time>
      </trkpt>
      <trkpt lat="48.33178" lon="-4.24871">
        <ele>20.1</ele>
        <time>2020-06-08T15:19:24Z</time>
      </trkpt>
      <trkpt lat="48.33178" lon="-4.24873">
        <ele>20.2</ele>
        <time>2020-06-08T15:19:25Z</time>
      </trkpt>
      <trkpt lat="48.33179" lon="-4.24877">
        <ele>20.3</ele>
        <time>2020-06-08T15:19:26Z</time>
      </trkpt>
      <trkpt lat="48.3318" lon="-4.24881">
        <ele>20.4</ele>
        <time>2020-06-08T15:19:27Z</time>
      </trkpt>
      <trkpt lat="48.33182" lon="-4.24886">
        <ele>20.6</ele>
        <time>2020-06-08T15:19:28Z</time>
      </trkpt>
      <trkpt lat="48.33183" lon="-4.24888">
        <ele>20.7</ele>
        <time>2020-06-08T15:19:29Z</time>
      </trkpt>
      <trkpt lat="48.33184" lon="-4.24892">
        <ele>20.8</ele>
        <time>2020-06-08T15:19:30Z</time>
      </trkpt>
      <trkpt lat="48.33186" lon="-4.24896">
        <ele>21</ele>
        <time>2020-06-08T15:19:31Z</time>
      </trkpt>
      <trkpt lat="48.33187" lon="-4.24901">
        <ele>21.2</ele>
        <time>2020-06-08T15:19:32Z</time>
      </trkpt>
      <trkpt lat="48.33188" lon="-4.24903">
        <ele>21.2</ele>
        <time>2020-06-08T15:19:33Z</time>
      </trkpt>
      <trkpt lat="48.3319" lon="-4.24906">
        <ele>21.4</ele>
        <time>2020-06-08T15:19:34Z</time>
      </trkpt>
      <trkpt lat="48.33191" lon="-4.2491">
        <ele>21.5</ele>
        <time>2020-06-08T15:19:35Z</time>
      </trkpt>
      <trkpt lat="48.33194" lon="-4.24915">
        <ele>21.7</ele>
        <time>2020-06-08T15:19:36Z</time>
      </trkpt>
      <trkpt lat="48.33194" lon="-4.24917">
        <ele>21.8</ele>
        <time>2020-06-08T15:19:37Z</time>
      </trkpt>
      <trkpt lat="48.33196" lon="-4.24922">
        <ele>22</ele>
        <time>2020-06-08T15:19:38Z</time>
      </trkpt>
      <trkpt lat="48.33196" lon="-4.24925">
        <ele>22.2</ele>
        <time>2020-06-08T15:19:39Z</time>
      </trkpt>
      <trkpt lat="48.33198" lon="-4.2493">
        <ele>22.3</ele>
        <time>2020-06-08T15:19:40Z</time>
      </trkpt>
      <trkpt lat="48.33198" lon="-4.24933">
        <ele>22.3</ele>
        <time>2020-06-08T15:19:41Z</time>
      </trkpt>
      <trkpt lat="48.33199" lon="-4.24938">
        <ele>22.5</ele>
        <time>2020-06-08T15:19:42Z</time>
      </trkpt>
      <trkpt lat="48.332" lon="-4.2494">
        <ele>22.5</ele>
        <time>2020-06-08T15:19:43Z</time>
      </trkpt>
      <trkpt lat="48.33201" lon="-4.24944">
        <ele>22.6</ele>
        <time>2020-06-08T15:19:44Z</time>
      </trkpt>
      <trkpt lat="48.33202" lon="-4.24948">
        <ele>22.7</ele>
        <time>2020-06-08T15:19:45Z</time>
      </trkpt>
      <trkpt lat="48.33203" lon="-4.24953">
        <ele>22.9</ele>
        <time>2020-06-08T15:19:46Z</time>
      </trkpt>
      <trkpt lat="48.33203" lon="-4.24956">
        <ele>23</ele>
        <time>2020-06-08T15:19:47Z</time>
      </trkpt>
      <trkpt lat="48.33204" lon="-4.24961">
        <ele>23.1</ele>
        <time>2020-06-08T15:19:48Z</time>
      </trkpt>
      <trkpt lat="48.33204" lon="-4.24963">
        <ele>23.2</ele>
        <time>2020-06-08T15:19:49Z</time>
      </trkpt>
      <trkpt lat="48.33206" lon="-4.24969">
        <ele>23.4</ele>
        <time>2020-06-08T15:19:50Z</time>
      </trkpt>
      <trkpt lat="48.33206" lon="-4.2497">
        <ele>23.5</ele>
        <time>2020-06-08T15:19:51Z</time>
      </trkpt>
      <trkpt lat="48.33209" lon="-4.24975">
        <ele>23.6</ele>
        <time>2020-06-08T15:19:52Z</time>
      </trkpt>
      <trkpt lat="48.3321" lon="-4.24976">
        <ele>23.7</ele>
        <time>2020-06-08T15:19:53Z</time>
      </trkpt>
      <trkpt lat="48.33211" lon="-4.2498">
        <ele>23.8</ele>
        <time>2020-06-08T15:19:54Z</time>
      </trkpt>
      <trkpt lat="48.33212" lon="-4.24986">
        <ele>24</ele>
        <time>2020-06-08T15:19:55Z</time>
      </trkpt>
      <trkpt lat="48.33212" lon="-4.24988">
        <ele>24.1</ele>
        <time>2020-06-08T15:19:56Z</time>
      </trkpt>
      <trkpt lat="48.33214" lon="-4.24994">
        <ele>24.2</ele>
        <time>2020-06-08T15:19:57Z</time>
      </trkpt>
      <trkpt lat="48.33215" lon="-4.24996">
        <ele>24.3</ele>
        <time>2020-06-08T15:19:58Z</time>
      </trkpt>
      <trkpt lat="48.33216" lon="-4.25">
        <ele>24.4</ele>
        <time>2020-06-08T15:19:59Z</time>
      </trkpt>
      <trkpt lat="48.33217" lon="-4.25004">
        <ele>24.6</ele>
        <time>2020-06-08T15:20:00Z</time>
      </trkpt>
      <trkpt lat="48.33218" lon="-4.25008">
        <ele>24.7</ele>
        <time>2020-06-08T15:20:01Z</time>
      </trkpt>
      <trkpt lat="48.33219" lon="-4.25012">
        <ele>24.8</ele>
        <time>2020-06-08T15:20:02Z</time>
      </trkpt>
      <trkpt lat="48.3322" lon="-4.25016">
        <ele>24.9</ele>
        <time>2020-06-08T15:20:03Z</time>
      </trkpt>
      <trkpt lat="48.33221" lon="-4.25022">
        <ele>25.1</ele>
        <time>2020-06-08T15:20:04Z</time>
      </trkpt>
      <trkpt lat="48.33222" lon="-4.25024">
        <ele>25.1</ele>
        <time>2020-06-08T15:20:05Z</time>
      </trkpt>
      <trkpt lat="48.33222" lon="-4.25029">
        <ele>25.2</ele>
        <time>2020-06-08T15:20:06Z</time>
      </trkpt>
      <trkpt lat="48.33223" lon="-4.25031">
        <ele>25.3</ele>
        <time>2020-06-08T15:20:07Z</time>
      </trkpt>
      <trkpt lat="48.33223" lon="-4.25037">
        <ele>25.4</ele>
        <time>2020-06-08T15:20:08Z</time>
      </trkpt>
      <trkpt lat="48.33225" lon="-4.2504">
        <ele>25.5</ele>
        <time>2020-06-08T15:20:09Z</time>
      </trkpt>
      <trkpt lat="48.33226" lon="-4.25042">
        <ele>25.6</ele>
        <time>2020-06-08T15:20:10Z</time>
      </trkpt>
      <trkpt lat="48.33227" lon="-4.25046">
        <ele>25.7</ele>
        <time>2020-06-08T15:20:11Z</time>
      </trkpt>
      <trkpt lat="48.33228" lon="-4.25051">
        <ele>25.8</ele>
        <time>2020-06-08T15:20:12Z</time>
      </trkpt>
      <trkpt lat="48.33229" lon="-4.25053">
        <ele>25.8</ele>
        <time>2020-06-08T15:20:13Z</time>
      </trkpt>
      <trkpt lat="48.3323" lon="-4.25059">
        <ele>26</ele>
        <time>2020-06-08T15:20:14Z</time>
      </trkpt>
      <trkpt lat="48.33231" lon="-4.25061">
        <ele>26</ele>
        <time>2020-06-08T15:20:15Z</time>
      </trkpt>
      <trkpt lat="48.33232" lon="-4.25067">
        <ele>26.1</ele>
        <time>2020-06-08T15:20:16Z</time>
      </trkpt>
      <trkpt lat="48.33233" lon="-4.25069">
        <ele>26.2</ele>
        <time>2020-06-08T15:20:17Z</time>
      </trkpt>
      <trkpt lat="48.33234" lon="-4.25074">
        <ele>26.3</ele>
        <time>2020-06-08T15:20:18Z</time>
      </trkpt>
      <trkpt lat="48.33235" lon="-4.25079">
        <ele>26.4</ele>
        <time>2020-06-08T15:20:19Z</time>
      </trkpt>
      <trkpt lat="48.33237" lon="-4.25083">
        <ele>26.5</ele>
        <time>2020-06-08T15:20:20Z</time>
      </trkpt>
      <trkpt lat="48.33238" lon="-4.25085">
        <ele>26.6</ele>
        <time>2020-06-08T15:20:21Z</time>
      </trkpt>
      <trkpt lat="48.33239" lon="-4.25089">
        <ele>26.7</ele>
        <time>2020-06-08T15:20:22Z</time>
      </trkpt>
      <trkpt lat="48.33241" lon="-4.25093">
        <ele>26.7</ele>
        <time>2020-06-08T15:20:23Z</time>
      </trkpt>
      <trkpt lat="48.33242" lon="-4.25098">
        <ele>26.8</ele>
        <time>2020-06-08T15:20:24Z</time>
      </trkpt>
      <trkpt lat="48.33243" lon="-4.25103">
        <ele>26.9</ele>
        <time>2020-06-08T15:20:25Z</time>
      </trkpt>
      <trkpt lat="48.33244" lon="-4.25107">
        <ele>27</ele>
        <time>2020-06-08T15:20:26Z</time>
      </trkpt>
      <trkpt lat="48.33246" lon="-4.25111">
        <ele>27.1</ele>
        <time>2020-06-08T15:20:27Z</time>
      </trkpt>
      <trkpt lat="48.33248" lon="-4.25114">
        <ele>27.1</ele>
        <time>2020-06-08T15:20:28Z</time>
      </trkpt>
      <trkpt lat="48.33248" lon="-4.25119">
        <ele>27.3</ele>
        <time>2020-06-08T15:20:29Z</time>
      </trkpt>
      <trkpt lat="48.33251" lon="-4.25124">
        <ele>27.4</ele>
        <time>2020-06-08T15:20:30Z</time>
      </trkpt>
      <trkpt lat="48.33251" lon="-4.25126">
        <ele>27.4</ele>
        <time>2020-06-08T15:20:31Z</time>
      </trkpt>
      <trkpt lat="48.33252" lon="-4.2513">
        <ele>27.4</ele>
        <time>2020-06-08T15:20:32Z</time>
      </trkpt>
      <trkpt lat="48.33254" lon="-4.25134">
        <ele>27.5</ele>
        <time>2020-06-08T15:20:33Z</time>
      </trkpt>
      <trkpt lat="48.33256" lon="-4.25138">
        <ele>27.6</ele>
        <time>2020-06-08T15:20:34Z</time>
      </trkpt>
      <trkpt lat="48.33257" lon="-4.25143">
        <ele>27.7</ele>
        <time>2020-06-08T15:20:35Z</time>
      </trkpt>
      <trkpt lat="48.33258" lon="-4.25148">
        <ele>27.7</ele>
        <time>2020-06-08T15:20:36Z</time>
      </trkpt>
      <trkpt lat="48.33257" lon="-4.25153">
        <ele>27.8</ele>
        <time>2020-06-08T15:20:37Z</time>
      </trkpt>
      <trkpt lat="48.33259" lon="-4.25157">
        <ele>27.9</ele>
        <time>2020-06-08T15:20:38Z</time>
      </trkpt>
      <trkpt lat="48.3326" lon="-4.25162">
        <ele>27.9</ele>
        <time>2020-06-08T15:20:39Z</time>
      </trkpt>
      <trkpt lat="48.33261" lon="-4.25166">
        <ele>28</ele>
        <time>2020-06-08T15:20:40Z</time>
      </trkpt>
      <trkpt lat="48.33262" lon="-4.2517">
        <ele>28.1</ele>
        <time>2020-06-08T15:20:41Z</time>
      </trkpt>
      <trkpt lat="48.33263" lon="-4.25174">
        <ele>28.2</ele>
        <time>2020-06-08T15:20:42Z</time>
      </trkpt>
      <trkpt lat="48.33265" lon="-4.25178">
        <ele>28.3</ele>
        <time>2020-06-08T15:20:43Z</time>
      </trkpt>
      <trkpt lat="48.33266" lon="-4.25182">
        <ele>28.4</ele>
        <time>2020-06-08T15:20:44Z</time>
      </trkpt>
      <trkpt lat="48.33267" lon="-4.25186">
        <ele>28.5</ele>
        <time>2020-06-08T15:20:45Z</time>
      </trkpt>
      <trkpt lat="48.33268" lon="-4.25191">
        <ele>28.6</ele>
        <time>2020-06-08T15:20:46Z</time>
      </trkpt>
      <trkpt lat="48.33268" lon="-4.25197">
        <ele>28.7</ele>
        <time>2020-06-08T15:20:47Z</time>
      </trkpt>
      <trkpt lat="48.33269" lon="-4.25201">
        <ele>28.8</ele>
        <time>2020-06-08T15:20:48Z</time>
      </trkpt>
      <trkpt lat="48.3327" lon="-4.25207">
        <ele>29</ele>
        <time>2020-06-08T15:20:49Z</time>
      </trkpt>
      <trkpt lat="48.33271" lon="-4.25211">
        <ele>29.1</ele>
        <time>2020-06-08T15:20:50Z</time>
      </trkpt>
      <trkpt lat="48.33272" lon="-4.25216">
        <ele>29.2</ele>
        <time>2020-06-08T15:20:51Z</time>
      </trkpt>
      <trkpt lat="48.33273" lon="-4.2522">
        <ele>29.3</ele>
        <time>2020-06-08T15:20:52Z</time>
      </trkpt>
      <trkpt lat="48.33275" lon="-4.25224">
        <ele>29.4</ele>
        <time>2020-06-08T15:20:54Z</time>
      </trkpt>
      <trkpt lat="48.33277" lon="-4.25229">
        <ele>29.6</ele>
        <time>2020-06-08T15:20:55Z</time>
      </trkpt>
      <trkpt lat="48.33279" lon="-4.25233">
        <ele>29.7</ele>
        <time>2020-06-08T15:20:56Z</time>
      </trkpt>
      <trkpt lat="48.3328" lon="-4.25238">
        <ele>29.9</ele>
        <time>2020-06-08T15:20:57Z</time>
      </trkpt>
      <trkpt lat="48.33281" lon="-4.25243">
        <ele>30</ele>
        <time>2020-06-08T15:20:58Z</time>
      </trkpt>
      <trkpt lat="48.33283" lon="-4.25247">
        <ele>30.1</ele>
        <time>2020-06-08T15:20:59Z</time>
      </trkpt>
      <trkpt lat="48.33284" lon="-4.25252">
        <ele>30.3</ele>
        <time>2020-06-08T15:21:00Z</time>
      </trkpt>
      <trkpt lat="48.33286" lon="-4.25257">
        <ele>30.4</ele>
        <time>2020-06-08T15:21:01Z</time>
      </trkpt>
      <trkpt lat="48.33287" lon="-4.25261">
        <ele>30.6</ele>
        <time>2020-06-08T15:21:02Z</time>
      </trkpt>
      <trkpt lat="48.33288" lon="-4.25266">
        <ele>30.7</ele>
        <time>2020-06-08T15:21:03Z</time>
      </trkpt>
      <trkpt lat="48.3329" lon="-4.2527">
        <ele>30.9</ele>
        <time>2020-06-08T15:21:04Z</time>
      </trkpt>
      <trkpt lat="48.3329" lon="-4.25275">
        <ele>31</ele>
        <time>2020-06-08T15:21:05Z</time>
      </trkpt>
      <trkpt lat="48.33291" lon="-4.25279">
        <ele>31.1</ele>
        <time>2020-06-08T15:21:06Z</time>
      </trkpt>
      <trkpt lat="48.33292" lon="-4.25283">
        <ele>31.2</ele>
        <time>2020-06-08T15:21:07Z</time>
      </trkpt>
      <trkpt lat="48.33294" lon="-4.25288">
        <ele>31.4</ele>
        <time>2020-06-08T15:21:08Z</time>
      </trkpt>
      <trkpt lat="48.33295" lon="-4.25292">
        <ele>31.5</ele>
        <time>2020-06-08T15:21:09Z</time>
      </trkpt>
      <trkpt lat="48.33296" lon="-4.25297">
        <ele>31.7</ele>
        <time>2020-06-08T15:21:10Z</time>
      </trkpt>
      <trkpt lat="48.33297" lon="-4.25301">
        <ele>31.8</ele>
        <time>2020-06-08T15:21:11Z</time>
      </trkpt>
      <trkpt lat="48.33299" lon="-4.25304">
        <ele>32</ele>
        <time>2020-06-08T15:21:12Z</time>
      </trkpt>
      <trkpt lat="48.33301" lon="-4.25308">
        <ele>32.1</ele>
        <time>2020-06-08T15:21:13Z</time>
      </trkpt>
      <trkpt lat="48.33303" lon="-4.25317">
        <ele>32.5</ele>
        <time>2020-06-08T15:21:14Z</time>
      </trkpt>
      <trkpt lat="48.33304" lon="-4.25321">
        <ele>32.6</ele>
        <time>2020-06-08T15:21:15Z</time>
      </trkpt>
      <trkpt lat="48.33306" lon="-4.25325">
        <ele>32.8</ele>
        <time>2020-06-08T15:21:16Z</time>
      </trkpt>
      <trkpt lat="48.33307" lon="-4.25331">
        <ele>33</ele>
        <time>2020-06-08T15:21:17Z</time>
      </trkpt>
      <trkpt lat="48.33307" lon="-4.25334">
        <ele>33.1</ele>
        <time>2020-06-08T15:21:18Z</time>
      </trkpt>
      <trkpt lat="48.33309" lon="-4.25338">
        <ele>33.3</ele>
        <time>2020-06-08T15:21:19Z</time>
      </trkpt>
      <trkpt lat="48.3331" lon="-4.25343">
        <ele>33.5</ele>
        <time>2020-06-08T15:21:20Z</time>
      </trkpt>
      <trkpt lat="48.33312" lon="-4.25346">
        <ele>33.7</ele>
        <time>2020-06-08T15:21:21Z</time>
      </trkpt>
      <trkpt lat="48.33314" lon="-4.2535">
        <ele>33.8</ele>
        <time>2020-06-08T15:21:22Z</time>
      </trkpt>
      <trkpt lat="48.33316" lon="-4.25354">
        <ele>34</ele>
        <time>2020-06-08T15:21:23Z</time>
      </trkpt>
      <trkpt lat="48.33319" lon="-4.25358">
        <ele>34.2</ele>
        <time>2020-06-08T15:21:24Z</time>
      </trkpt>
      <trkpt lat="48.3332" lon="-4.25359">
        <ele>34.3</ele>
        <time>2020-06-08T15:21:25Z</time>
      </trkpt>
      <trkpt lat="48.33321" lon="-4.25365">
        <ele>34.5</ele>
        <time>2020-06-08T15:21:26Z</time>
      </trkpt>
      <trkpt lat="48.33321" lon="-4.25367">
        <ele>34.5</ele>
        <time>2020-06-08T15:21:27Z</time>
      </trkpt>
      <trkpt lat="48.33323" lon="-4.25371">
        <ele>34.7</ele>
        <time>2020-06-08T15:21:28Z</time>
      </trkpt>
      <trkpt lat="48.33325" lon="-4.25375">
        <ele>34.9</ele>
        <time>2020-06-08T15:21:29Z</time>
      </trkpt>
      <trkpt lat="48.33328" lon="-4.25378">
        <ele>34.6</ele>
        <time>2020-06-08T15:21:30Z</time>
      </trkpt>
      <trkpt lat="48.3333" lon="-4.25382">
        <ele>34.7</ele>
        <time>2020-06-08T15:21:31Z</time>
      </trkpt>
      <trkpt lat="48.33332" lon="-4.25386">
        <ele>34.9</ele>
        <time>2020-06-08T15:21:32Z</time>
      </trkpt>
      <trkpt lat="48.33334" lon="-4.2539">
        <ele>35</ele>
        <time>2020-06-08T15:21:33Z</time>
      </trkpt>
      <trkpt lat="48.33336" lon="-4.25393">
        <ele>35.2</ele>
        <time>2020-06-08T15:21:34Z</time>
      </trkpt>
      <trkpt lat="48.33339" lon="-4.25397">
        <ele>35.4</ele>
        <time>2020-06-08T15:21:35Z</time>
      </trkpt>
      <trkpt lat="48.33341" lon="-4.254">
        <ele>35.5</ele>
        <time>2020-06-08T15:21:36Z</time>
      </trkpt>
      <trkpt lat="48.33343" lon="-4.25405">
        <ele>35.7</ele>
        <time>2020-06-08T15:21:37Z</time>
      </trkpt>
      <trkpt lat="48.33345" lon="-4.25409">
        <ele>35.9</ele>
        <time>2020-06-08T15:21:38Z</time>
      </trkpt>
      <trkpt lat="48.33348" lon="-4.25411">
        <ele>36</ele>
        <time>2020-06-08T15:21:39Z</time>
      </trkpt>
      <trkpt lat="48.3335" lon="-4.25413">
        <ele>36.2</ele>
        <time>2020-06-08T15:21:40Z</time>
      </trkpt>
      <trkpt lat="48.33353" lon="-4.25416">
        <ele>36.4</ele>
        <time>2020-06-08T15:21:41Z</time>
      </trkpt>
      <trkpt lat="48.33356" lon="-4.25418">
        <ele>36.5</ele>
        <time>2020-06-08T15:21:42Z</time>
      </trkpt>
      <trkpt lat="48.33359" lon="-4.25421">
        <ele>36.7</ele>
        <time>2020-06-08T15:21:43Z</time>
      </trkpt>
      <trkpt lat="48.33362" lon="-4.25423">
        <ele>36.9</ele>
        <time>2020-06-08T15:21:44Z</time>
      </trkpt>
      <trkpt lat="48.33365" lon="-4.25425">
        <ele>37</ele>
        <time>2020-06-08T15:21:45Z</time>
      </trkpt>
      <trkpt lat="48.33369" lon="-4.25428">
        <ele>37.2</ele>
        <time>2020-06-08T15:21:46Z</time>
      </trkpt>
      <trkpt lat="48.3337" lon="-4.25429">
        <ele>37.3</ele>
        <time>2020-06-08T15:21:47Z</time>
      </trkpt>
      <trkpt lat="48.33373" lon="-4.25433">
        <ele>37.5</ele>
        <time>2020-06-08T15:21:48Z</time>
      </trkpt>
      <trkpt lat="48.33376" lon="-4.25435">
        <ele>37.7</ele>
        <time>2020-06-08T15:21:49Z</time>
      </trkpt>
      <trkpt lat="48.33379" lon="-4.25437">
        <ele>37.8</ele>
        <time>2020-06-08T15:21:50Z</time>
      </trkpt>
      <trkpt lat="48.33382" lon="-4.25439">
        <ele>38</ele>
        <time>2020-06-08T15:21:51Z</time>
      </trkpt>
      <trkpt lat="48.33385" lon="-4.2544">
        <ele>38.1</ele>
        <time>2020-06-08T15:21:52Z</time>
      </trkpt>
      <trkpt lat="48.33388" lon="-4.25441">
        <ele>38.3</ele>
        <time>2020-06-08T15:21:53Z</time>
      </trkpt>
      <trkpt lat="48.33391" lon="-4.25443">
        <ele>38.4</ele>
        <time>2020-06-08T15:21:54Z</time>
      </trkpt>
      <trkpt lat="48.33394" lon="-4.25444">
        <ele>38.6</ele>
        <time>2020-06-08T15:21:55Z</time>
      </trkpt>
      <trkpt lat="48.33397" lon="-4.25445">
        <ele>38.7</ele>
        <time>2020-06-08T15:21:56Z</time>
      </trkpt>
      <trkpt lat="48.33399" lon="-4.25445">
        <ele>38.8</ele>
        <time>2020-06-08T15:21:57Z</time>
      </trkpt>
      <trkpt lat="48.33401" lon="-4.25446">
        <ele>38.9</ele>
        <time>2020-06-08T15:21:58Z</time>
      </trkpt>
      <trkpt lat="48.33404" lon="-4.25447">
        <ele>39</ele>
        <time>2020-06-08T15:21:59Z</time>
      </trkpt>
      <trkpt lat="48.33407" lon="-4.25449">
        <ele>39.1</ele>
        <time>2020-06-08T15:22:00Z</time>
      </trkpt>
      <trkpt lat="48.3341" lon="-4.25449">
        <ele>39.2</ele>
        <time>2020-06-08T15:22:01Z</time>
      </trkpt>
      <trkpt lat="48.33413" lon="-4.2545">
        <ele>39.4</ele>
        <time>2020-06-08T15:22:02Z</time>
      </trkpt>
      <trkpt lat="48.33416" lon="-4.25452">
        <ele>39.5</ele>
        <time>2020-06-08T15:22:03Z</time>
      </trkpt>
      <trkpt lat="48.33419" lon="-4.25453">
        <ele>39.7</ele>
        <time>2020-06-08T15:22:04Z</time>
      </trkpt>
      <trkpt lat="48.3342" lon="-4.25453">
        <ele>39.7</ele>
        <time>2020-06-08T15:22:05Z</time>
      </trkpt>
      <trkpt lat="48.33424" lon="-4.25453">
        <ele>39.9</ele>
        <time>2020-06-08T15:22:06Z</time>
      </trkpt>
      <trkpt lat="48.33425" lon="-4.25453">
        <ele>39.9</ele>
        <time>2020-06-08T15:22:07Z</time>
      </trkpt>
      <trkpt lat="48.33428" lon="-4.25454">
        <ele>40.1</ele>
        <time>2020-06-08T15:22:08Z</time>
      </trkpt>
      <trkpt lat="48.33431" lon="-4.25455">
        <ele>40.2</ele>
        <time>2020-06-08T15:22:09Z</time>
      </trkpt>
      <trkpt lat="48.33434" lon="-4.25457">
        <ele>40.4</ele>
        <time>2020-06-08T15:22:10Z</time>
      </trkpt>
      <trkpt lat="48.33435" lon="-4.25458">
        <ele>40.4</ele>
        <time>2020-06-08T15:22:11Z</time>
      </trkpt>
      <trkpt lat="48.33438" lon="-4.25461">
        <ele>40.6</ele>
        <time>2020-06-08T15:22:12Z</time>
      </trkpt>
      <trkpt lat="48.33442" lon="-4.25461">
        <ele>40.8</ele>
        <time>2020-06-08T15:22:13Z</time>
      </trkpt>
      <trkpt lat="48.33445" lon="-4.25462">
        <ele>40.9</ele>
        <time>2020-06-08T15:22:14Z</time>
      </trkpt>
      <trkpt lat="48.33447" lon="-4.25464">
        <ele>41</ele>
        <time>2020-06-08T15:22:15Z</time>
      </trkpt>
      <trkpt lat="48.33451" lon="-4.25465">
        <ele>41.2</ele>
        <time>2020-06-08T15:22:16Z</time>
      </trkpt>
      <trkpt lat="48.33453" lon="-4.25466">
        <ele>41.3</ele>
        <time>2020-06-08T15:22:17Z</time>
      </trkpt>
      <trkpt lat="48.33455" lon="-4.25469">
        <ele>41.4</ele>
        <time>2020-06-08T15:22:18Z</time>
      </trkpt>
      <trkpt lat="48.33458" lon="-4.2547">
        <ele>41.6</ele>
        <time>2020-06-08T15:22:19Z</time>
      </trkpt>
      <trkpt lat="48.33462" lon="-4.25472">
        <ele>41.7</ele>
        <time>2020-06-08T15:22:20Z</time>
      </trkpt>
      <trkpt lat="48.33465" lon="-4.25474">
        <ele>41.9</ele>
        <time>2020-06-08T15:22:21Z</time>
      </trkpt>
      <trkpt lat="48.33469" lon="-4.25475">
        <ele>42.1</ele>
        <time>2020-06-08T15:22:22Z</time>
      </trkpt>
      <trkpt lat="48.33473" lon="-4.25475">
        <ele>42.3</ele>
        <time>2020-06-08T15:22:23Z</time>
      </trkpt>
      <trkpt lat="48.33475" lon="-4.25478">
        <ele>42.4</ele>
        <time>2020-06-08T15:22:24Z</time>
      </trkpt>
      <trkpt lat="48.33479" lon="-4.2548">
        <ele>42.6</ele>
        <time>2020-06-08T15:22:25Z</time>
      </trkpt>
      <trkpt lat="48.33481" lon="-4.25481">
        <ele>42.7</ele>
        <time>2020-06-08T15:22:26Z</time>
      </trkpt>
      <trkpt lat="48.33485" lon="-4.25481">
        <ele>42.8</ele>
        <time>2020-06-08T15:22:27Z</time>
      </trkpt>
      <trkpt lat="48.33487" lon="-4.25482">
        <ele>42.9</ele>
        <time>2020-06-08T15:22:28Z</time>
      </trkpt>
      <trkpt lat="48.3349" lon="-4.25483">
        <ele>43.1</ele>
        <time>2020-06-08T15:22:29Z</time>
      </trkpt>
      <trkpt lat="48.33494" lon="-4.25485">
        <ele>43.2</ele>
        <time>2020-06-08T15:22:30Z</time>
      </trkpt>
      <trkpt lat="48.33497" lon="-4.25487">
        <ele>43.4</ele>
        <time>2020-06-08T15:22:31Z</time>
      </trkpt>
      <trkpt lat="48.33501" lon="-4.25488">
        <ele>43.5</ele>
        <time>2020-06-08T15:22:32Z</time>
      </trkpt>
      <trkpt lat="48.33503" lon="-4.25489">
        <ele>43.6</ele>
        <time>2020-06-08T15:22:33Z</time>
      </trkpt>
      <trkpt lat="48.33506" lon="-4.2549">
        <ele>43.7</ele>
        <time>2020-06-08T15:22:34Z</time>
      </trkpt>
      <trkpt lat="48.33511" lon="-4.25491">
        <ele>43.8</ele>
        <time>2020-06-08T15:22:35Z</time>
      </trkpt>
      <trkpt lat="48.33514" lon="-4.25493">
        <ele>43.9</ele>
        <time>2020-06-08T15:22:36Z</time>
      </trkpt>
      <trkpt lat="48.33518" lon="-4.25495">
        <ele>44</ele>
        <time>2020-06-08T15:22:37Z</time>
      </trkpt>
      <trkpt lat="48.33521" lon="-4.25496">
        <ele>44.1</ele>
        <time>2020-06-08T15:22:38Z</time>
      </trkpt>
      <trkpt lat="48.33524" lon="-4.25498">
        <ele>44.2</ele>
        <time>2020-06-08T15:22:39Z</time>
      </trkpt>
      <trkpt lat="48.33527" lon="-4.255">
        <ele>44.2</ele>
        <time>2020-06-08T15:22:40Z</time>
      </trkpt>
      <trkpt lat="48.3353" lon="-4.25502">
        <ele>44.3</ele>
        <time>2020-06-08T15:22:41Z</time>
      </trkpt>
      <trkpt lat="48.33534" lon="-4.25504">
        <ele>44.3</ele>
        <time>2020-06-08T15:22:42Z</time>
      </trkpt>
      <trkpt lat="48.33538" lon="-4.25506">
        <ele>44.4</ele>
        <time>2020-06-08T15:22:43Z</time>
      </trkpt>
      <trkpt lat="48.33541" lon="-4.25509">
        <ele>44.4</ele>
        <time>2020-06-08T15:22:44Z</time>
      </trkpt>
      <trkpt lat="48.33544" lon="-4.25513">
        <ele>44.4</ele>
        <time>2020-06-08T15:22:45Z</time>
      </trkpt>
      <trkpt lat="48.33547" lon="-4.25516">
        <ele>44.4</ele>
        <time>2020-06-08T15:22:46Z</time>
      </trkpt>
      <trkpt lat="48.33551" lon="-4.25518">
        <ele>44.4</ele>
        <time>2020-06-08T15:22:47Z</time>
      </trkpt>
      <trkpt lat="48.33554" lon="-4.2552">
        <ele>44.4</ele>
        <time>2020-06-08T15:22:48Z</time>
      </trkpt>
      <trkpt lat="48.33557" lon="-4.25522">
        <ele>44.3</ele>
        <time>2020-06-08T15:22:49Z</time>
      </trkpt>
      <trkpt lat="48.33561" lon="-4.25525">
        <ele>44.2</ele>
        <time>2020-06-08T15:22:50Z</time>
      </trkpt>
      <trkpt lat="48.33563" lon="-4.25528">
        <ele>44.1</ele>
        <time>2020-06-08T15:22:51Z</time>
      </trkpt>
      <trkpt lat="48.33568" lon="-4.25531">
        <ele>44.1</ele>
        <time>2020-06-08T15:22:52Z</time>
      </trkpt>
      <trkpt lat="48.33571" lon="-4.25533">
        <ele>44</ele>
        <time>2020-06-08T15:22:53Z</time>
      </trkpt>
      <trkpt lat="48.33574" lon="-4.25536">
        <ele>43.9</ele>
        <time>2020-06-08T15:22:54Z</time>
      </trkpt>
      <trkpt lat="48.33578" lon="-4.25539">
        <ele>43.8</ele>
        <time>2020-06-08T15:22:55Z</time>
      </trkpt>
      <trkpt lat="48.33581" lon="-4.25544">
        <ele>43.7</ele>
        <time>2020-06-08T15:22:56Z</time>
      </trkpt>
      <trkpt lat="48.33585" lon="-4.25546">
        <ele>43.6</ele>
        <time>2020-06-08T15:22:57Z</time>
      </trkpt>
      <trkpt lat="48.33589" lon="-4.25551">
        <ele>43.5</ele>
        <time>2020-06-08T15:22:58Z</time>
      </trkpt>
      <trkpt lat="48.33592" lon="-4.25554">
        <ele>43.4</ele>
        <time>2020-06-08T15:22:59Z</time>
      </trkpt>
      <trkpt lat="48.33596" lon="-4.25559">
        <ele>43.3</ele>
        <time>2020-06-08T15:23:00Z</time>
      </trkpt>
      <trkpt lat="48.33599" lon="-4.25564">
        <ele>43.1</ele>
        <time>2020-06-08T15:23:01Z</time>
      </trkpt>
      <trkpt lat="48.33603" lon="-4.25567">
        <ele>43</ele>
        <time>2020-06-08T15:23:02Z</time>
      </trkpt>
      <trkpt lat="48.33608" lon="-4.25572">
        <ele>42.8</ele>
        <time>2020-06-08T15:23:03Z</time>
      </trkpt>
      <trkpt lat="48.33613" lon="-4.25576">
        <ele>42.6</ele>
        <time>2020-06-08T15:23:04Z</time>
      </trkpt>
      <trkpt lat="48.33618" lon="-4.25579">
        <ele>42.4</ele>
        <time>2020-06-08T15:23:05Z</time>
      </trkpt>
      <trkpt lat="48.33623" lon="-4.25584">
        <ele>42.2</ele>
        <time>2020-06-08T15:23:06Z</time>
      </trkpt>
      <trkpt lat="48.33628" lon="-4.25588">
        <ele>42</ele>
        <time>2020-06-08T15:23:07Z</time>
      </trkpt>
      <trkpt lat="48.33633" lon="-4.25592">
        <ele>41.8</ele>
        <time>2020-06-08T15:23:08Z</time>
      </trkpt>
      <trkpt lat="48.33638" lon="-4.25596">
        <ele>41.7</ele>
        <time>2020-06-08T15:23:09Z</time>
      </trkpt>
      <trkpt lat="48.33642" lon="-4.25602">
        <ele>41.5</ele>
        <time>2020-06-08T15:23:10Z</time>
      </trkpt>
      <trkpt lat="48.33648" lon="-4.25607">
        <ele>41.2</ele>
        <time>2020-06-08T15:23:11Z</time>
      </trkpt>
      <trkpt lat="48.33654" lon="-4.25614">
        <ele>41</ele>
        <time>2020-06-08T15:23:12Z</time>
      </trkpt>
      <trkpt lat="48.33662" lon="-4.25621">
        <ele>40.7</ele>
        <time>2020-06-08T15:23:13Z</time>
      </trkpt>
      <trkpt lat="48.33669" lon="-4.25628">
        <ele>40.4</ele>
        <time>2020-06-08T15:23:14Z</time>
      </trkpt>
      <trkpt lat="48.33677" lon="-4.25635">
        <ele>40.1</ele>
        <time>2020-06-08T15:23:15Z</time>
      </trkpt>
      <trkpt lat="48.33684" lon="-4.2564">
        <ele>39.8</ele>
        <time>2020-06-08T15:23:16Z</time>
      </trkpt>
      <trkpt lat="48.33692" lon="-4.25646">
        <ele>39.6</ele>
        <time>2020-06-08T15:23:17Z</time>
      </trkpt>
      <trkpt lat="48.337" lon="-4.25652">
        <ele>39.3</ele>
        <time>2020-06-08T15:23:18Z</time>
      </trkpt>
      <trkpt lat="48.33708" lon="-4.2566">
        <ele>39</ele>
        <time>2020-06-08T15:23:19Z</time>
      </trkpt>
      <trkpt lat="48.33716" lon="-4.25667">
        <ele>38.7</ele>
        <time>2020-06-08T15:23:20Z</time>
      </trkpt>
      <trkpt lat="48.33723" lon="-4.25674">
        <ele>38.5</ele>
        <time>2020-06-08T15:23:21Z</time>
      </trkpt>
      <trkpt lat="48.3373" lon="-4.25681">
        <ele>38.3</ele>
        <time>2020-06-08T15:23:22Z</time>
      </trkpt>
      <trkpt lat="48.33737" lon="-4.25688">
        <ele>38.1</ele>
        <time>2020-06-08T15:23:23Z</time>
      </trkpt>
      <trkpt lat="48.33744" lon="-4.25694">
        <ele>38</ele>
        <time>2020-06-08T15:23:24Z</time>
      </trkpt>
      <trkpt lat="48.3375" lon="-4.257">
        <ele>37.9</ele>
        <time>2020-06-08T15:23:25Z</time>
      </trkpt>
      <trkpt lat="48.33756" lon="-4.25702">
        <ele>37.9</ele>
        <time>2020-06-08T15:23:26Z</time>
      </trkpt>
      <trkpt lat="48.33761" lon="-4.25705">
        <ele>37.9</ele>
        <time>2020-06-08T15:23:27Z</time>
      </trkpt>
      <trkpt lat="48.33766" lon="-4.25707">
        <ele>37.9</ele>
        <time>2020-06-08T15:23:28Z</time>
      </trkpt>
      <trkpt lat="48.3377" lon="-4.2571">
        <ele>37.9</ele>
        <time>2020-06-08T15:23:29Z</time>
      </trkpt>
      <trkpt lat="48.33771" lon="-4.25712">
        <ele>37.9</ele>
        <time>2020-06-08T15:23:30Z</time>
      </trkpt>
      <trkpt lat="48.33772" lon="-4.25714">
        <ele>37.9</ele>
        <time>2020-06-08T15:23:31Z</time>
      </trkpt>
      <trkpt lat="48.33775" lon="-4.25717">
        <ele>37.9</ele>
        <time>2020-06-08T15:23:32Z</time>
      </trkpt>
      <trkpt lat="48.33776" lon="-4.25718">
        <ele>37.9</ele>
        <time>2020-06-08T15:23:33Z</time>
      </trkpt>
      <trkpt lat="48.33777" lon="-4.25722">
        <ele>37.9</ele>
        <time>2020-06-08T15:23:34Z</time>
      </trkpt>
      <trkpt lat="48.33778" lon="-4.25724">
        <ele>37.9</ele>
        <time>2020-06-08T15:23:35Z</time>
      </trkpt>
      <trkpt lat="48.33782" lon="-4.25726">
        <ele>37.9</ele>
        <time>2020-06-08T15:23:36Z</time>
      </trkpt>
      <trkpt lat="48.33783" lon="-4.25727">
        <ele>37.9</ele>
        <time>2020-06-08T15:23:37Z</time>
      </trkpt>
      <trkpt lat="48.33785" lon="-4.2573">
        <ele>37.9</ele>
        <time>2020-06-08T15:23:38Z</time>
      </trkpt>
      <trkpt lat="48.33788" lon="-4.25732">
        <ele>37.9</ele>
        <time>2020-06-08T15:23:39Z</time>
      </trkpt>
      <trkpt lat="48.33791" lon="-4.25734">
        <ele>37.9</ele>
        <time>2020-06-08T15:23:40Z</time>
      </trkpt>
      <trkpt lat="48.33795" lon="-4.25736">
        <ele>38</ele>
        <time>2020-06-08T15:23:41Z</time>
      </trkpt>
      <trkpt lat="48.33799" lon="-4.2574">
        <ele>38</ele>
        <time>2020-06-08T15:23:42Z</time>
      </trkpt>
      <trkpt lat="48.33804" lon="-4.25745">
        <ele>38.1</ele>
        <time>2020-06-08T15:23:43Z</time>
      </trkpt>
      <trkpt lat="48.33809" lon="-4.2575">
        <ele>38.1</ele>
        <time>2020-06-08T15:23:44Z</time>
      </trkpt>
      <trkpt lat="48.33814" lon="-4.25755">
        <ele>38.2</ele>
        <time>2020-06-08T15:23:45Z</time>
      </trkpt>
      <trkpt lat="48.33819" lon="-4.2576">
        <ele>38.4</ele>
        <time>2020-06-08T15:23:46Z</time>
      </trkpt>
      <trkpt lat="48.33824" lon="-4.25766">
        <ele>38.5</ele>
        <time>2020-06-08T15:23:47Z</time>
      </trkpt>
      <trkpt lat="48.33829" lon="-4.25771">
        <ele>38.7</ele>
        <time>2020-06-08T15:23:48Z</time>
      </trkpt>
      <trkpt lat="48.33834" lon="-4.25775">
        <ele>38.9</ele>
        <time>2020-06-08T15:23:49Z</time>
      </trkpt>
      <trkpt lat="48.3384" lon="-4.25779">
        <ele>39</ele>
        <time>2020-06-08T15:23:50Z</time>
      </trkpt>
      <trkpt lat="48.33846" lon="-4.25783">
        <ele>39.2</ele>
        <time>2020-06-08T15:23:51Z</time>
      </trkpt>
      <trkpt lat="48.33851" lon="-4.25788">
        <ele>39.4</ele>
        <time>2020-06-08T15:23:52Z</time>
      </trkpt>
      <trkpt lat="48.33857" lon="-4.25793">
        <ele>39.5</ele>
        <time>2020-06-08T15:23:53Z</time>
      </trkpt>
      <trkpt lat="48.33863" lon="-4.25799">
        <ele>39.7</ele>
        <time>2020-06-08T15:23:54Z</time>
      </trkpt>
      <trkpt lat="48.33868" lon="-4.25803">
        <ele>39.9</ele>
        <time>2020-06-08T15:23:55Z</time>
      </trkpt>
      <trkpt lat="48.33874" lon="-4.25808">
        <ele>40</ele>
        <time>2020-06-08T15:23:56Z</time>
      </trkpt>
      <trkpt lat="48.3388" lon="-4.25812">
        <ele>40.2</ele>
        <time>2020-06-08T15:23:57Z</time>
      </trkpt>
      <trkpt lat="48.33885" lon="-4.25816">
        <ele>40.4</ele>
        <time>2020-06-08T15:23:58Z</time>
      </trkpt>
      <trkpt lat="48.3389" lon="-4.25821">
        <ele>40.5</ele>
        <time>2020-06-08T15:23:59Z</time>
      </trkpt>
      <trkpt lat="48.33895" lon="-4.25826">
        <ele>40.7</ele>
        <time>2020-06-08T15:24:00Z</time>
      </trkpt>
      <trkpt lat="48.339" lon="-4.25831">
        <ele>40.9</ele>
        <time>2020-06-08T15:24:01Z</time>
      </trkpt>
      <trkpt lat="48.33904" lon="-4.25837">
        <ele>41</ele>
        <time>2020-06-08T15:24:02Z</time>
      </trkpt>
      <trkpt lat="48.33909" lon="-4.25841">
        <ele>41.1</ele>
        <time>2020-06-08T15:24:03Z</time>
      </trkpt>
      <trkpt lat="48.33913" lon="-4.25846">
        <ele>41.3</ele>
        <time>2020-06-08T15:24:04Z</time>
      </trkpt>
      <trkpt lat="48.33918" lon="-4.2585">
        <ele>41.4</ele>
        <time>2020-06-08T15:24:05Z</time>
      </trkpt>
      <trkpt lat="48.33922" lon="-4.25854">
        <ele>41.5</ele>
        <time>2020-06-08T15:24:06Z</time>
      </trkpt>
      <trkpt lat="48.33927" lon="-4.25857">
        <ele>41.6</ele>
        <time>2020-06-08T15:24:07Z</time>
      </trkpt>
      <trkpt lat="48.33931" lon="-4.2586">
        <ele>41.7</ele>
        <time>2020-06-08T15:24:08Z</time>
      </trkpt>
      <trkpt lat="48.33935" lon="-4.25864">
        <ele>41.8</ele>
        <time>2020-06-08T15:24:09Z</time>
      </trkpt>
      <trkpt lat="48.33939" lon="-4.25867">
        <ele>41.9</ele>
        <time>2020-06-08T15:24:10Z</time>
      </trkpt>
      <trkpt lat="48.33944" lon="-4.2587">
        <ele>42</ele>
        <time>2020-06-08T15:24:11Z</time>
      </trkpt>
      <trkpt lat="48.33948" lon="-4.25873">
        <ele>42</ele>
        <time>2020-06-08T15:24:12Z</time>
      </trkpt>
      <trkpt lat="48.33953" lon="-4.25875">
        <ele>42.1</ele>
        <time>2020-06-08T15:24:13Z</time>
      </trkpt>
      <trkpt lat="48.33957" lon="-4.25879">
        <ele>42.1</ele>
        <time>2020-06-08T15:24:14Z</time>
      </trkpt>
      <trkpt lat="48.33961" lon="-4.25882">
        <ele>42.1</ele>
        <time>2020-06-08T15:24:15Z</time>
      </trkpt>
      <trkpt lat="48.33965" lon="-4.25886">
        <ele>42.1</ele>
        <time>2020-06-08T15:24:16Z</time>
      </trkpt>
      <trkpt lat="48.33968" lon="-4.2589">
        <ele>42</ele>
        <time>2020-06-08T15:24:17Z</time>
      </trkpt>
      <trkpt lat="48.33971" lon="-4.25894">
        <ele>42</ele>
        <time>2020-06-08T15:24:18Z</time>
      </trkpt>
      <trkpt lat="48.33975" lon="-4.25898">
        <ele>42</ele>
        <time>2020-06-08T15:24:19Z</time>
      </trkpt>
      <trkpt lat="48.33978" lon="-4.25901">
        <ele>42</ele>
        <time>2020-06-08T15:24:20Z</time>
      </trkpt>
      <trkpt lat="48.33983" lon="-4.25904">
        <ele>42</ele>
        <time>2020-06-08T15:24:21Z</time>
      </trkpt>
      <trkpt lat="48.33986" lon="-4.25907">
        <ele>42</ele>
        <time>2020-06-08T15:24:22Z</time>
      </trkpt>
      <trkpt lat="48.33989" lon="-4.2591">
        <ele>41.9</ele>
        <time>2020-06-08T15:24:23Z</time>
      </trkpt>
      <trkpt lat="48.33993" lon="-4.25914">
        <ele>41.9</ele>
        <time>2020-06-08T15:24:24Z</time>
      </trkpt>
      <trkpt lat="48.33997" lon="-4.25917">
        <ele>41.8</ele>
        <time>2020-06-08T15:24:25Z</time>
      </trkpt>
      <trkpt lat="48.34001" lon="-4.25919">
        <ele>41.8</ele>
        <time>2020-06-08T15:24:26Z</time>
      </trkpt>
      <trkpt lat="48.34005" lon="-4.25922">
        <ele>41.7</ele>
        <time>2020-06-08T15:24:27Z</time>
      </trkpt>
      <trkpt lat="48.3401" lon="-4.25924">
        <ele>41.6</ele>
        <time>2020-06-08T15:24:28Z</time>
      </trkpt>
      <trkpt lat="48.34014" lon="-4.25927">
        <ele>41.6</ele>
        <time>2020-06-08T15:24:29Z</time>
      </trkpt>
      <trkpt lat="48.34019" lon="-4.25929">
        <ele>41.6</ele>
        <time>2020-06-08T15:24:30Z</time>
      </trkpt>
      <trkpt lat="48.34025" lon="-4.25931">
        <ele>41.5</ele>
        <time>2020-06-08T15:24:31Z</time>
      </trkpt>
      <trkpt lat="48.34031" lon="-4.25933">
        <ele>41.4</ele>
        <time>2020-06-08T15:24:32Z</time>
      </trkpt>
      <trkpt lat="48.34036" lon="-4.25936">
        <ele>41.3</ele>
        <time>2020-06-08T15:24:33Z</time>
      </trkpt>
      <trkpt lat="48.34042" lon="-4.25939">
        <ele>41.2</ele>
        <time>2020-06-08T15:24:34Z</time>
      </trkpt>
      <trkpt lat="48.34049" lon="-4.25941">
        <ele>41.1</ele>
        <time>2020-06-08T15:24:35Z</time>
      </trkpt>
      <trkpt lat="48.34055" lon="-4.25943">
        <ele>40.9</ele>
        <time>2020-06-08T15:24:36Z</time>
      </trkpt>
      <trkpt lat="48.34062" lon="-4.25945">
        <ele>40.8</ele>
        <time>2020-06-08T15:24:37Z</time>
      </trkpt>
      <trkpt lat="48.34068" lon="-4.25946">
        <ele>40.7</ele>
        <time>2020-06-08T15:24:38Z</time>
      </trkpt>
      <trkpt lat="48.34075" lon="-4.25947">
        <ele>40.6</ele>
        <time>2020-06-08T15:24:39Z</time>
      </trkpt>
      <trkpt lat="48.34081" lon="-4.25944">
        <ele>40.5</ele>
        <time>2020-06-08T15:24:40Z</time>
      </trkpt>
      <trkpt lat="48.34088" lon="-4.25943">
        <ele>40.3</ele>
        <time>2020-06-08T15:24:41Z</time>
      </trkpt>
      <trkpt lat="48.34095" lon="-4.25942">
        <ele>40.1</ele>
        <time>2020-06-08T15:24:42Z</time>
      </trkpt>
      <trkpt lat="48.34102" lon="-4.2594">
        <ele>40</ele>
        <time>2020-06-08T15:24:43Z</time>
      </trkpt>
      <trkpt lat="48.34109" lon="-4.25939">
        <ele>39.8</ele>
        <time>2020-06-08T15:24:44Z</time>
      </trkpt>
      <trkpt lat="48.34117" lon="-4.25937">
        <ele>39.7</ele>
        <time>2020-06-08T15:24:45Z</time>
      </trkpt>
      <trkpt lat="48.34124" lon="-4.25936">
        <ele>39.5</ele>
        <time>2020-06-08T15:24:46Z</time>
      </trkpt>
      <trkpt lat="48.3413" lon="-4.25934">
        <ele>39.4</ele>
        <time>2020-06-08T15:24:47Z</time>
      </trkpt>
      <trkpt lat="48.34137" lon="-4.25931">
        <ele>39.3</ele>
        <time>2020-06-08T15:24:48Z</time>
      </trkpt>
      <trkpt lat="48.34144" lon="-4.2593">
        <ele>39.2</ele>
        <time>2020-06-08T15:24:49Z</time>
      </trkpt>
      <trkpt lat="48.34152" lon="-4.25928">
        <ele>39.2</ele>
        <time>2020-06-08T15:24:50Z</time>
      </trkpt>
      <trkpt lat="48.34159" lon="-4.25925">
        <ele>39.2</ele>
        <time>2020-06-08T15:24:51Z</time>
      </trkpt>
      <trkpt lat="48.34166" lon="-4.25923">
        <ele>39.2</ele>
        <time>2020-06-08T15:24:52Z</time>
      </trkpt>
      <trkpt lat="48.34172" lon="-4.25922">
        <ele>39.1</ele>
        <time>2020-06-08T15:24:53Z</time>
      </trkpt>
      <trkpt lat="48.34178" lon="-4.2592">
        <ele>39.1</ele>
        <time>2020-06-08T15:24:54Z</time>
      </trkpt>
      <trkpt lat="48.34183" lon="-4.2592">
        <ele>39.1</ele>
        <time>2020-06-08T15:24:55Z</time>
      </trkpt>
      <trkpt lat="48.34188" lon="-4.25919">
        <ele>39</ele>
        <time>2020-06-08T15:24:56Z</time>
      </trkpt>
      <trkpt lat="48.34193" lon="-4.25918">
        <ele>39</ele>
        <time>2020-06-08T15:24:57Z</time>
      </trkpt>
      <trkpt lat="48.34198" lon="-4.25916">
        <ele>38.9</ele>
        <time>2020-06-08T15:24:58Z</time>
      </trkpt>
      <trkpt lat="48.34203" lon="-4.25915">
        <ele>38.9</ele>
        <time>2020-06-08T15:24:59Z</time>
      </trkpt>
      <trkpt lat="48.34209" lon="-4.25914">
        <ele>38.9</ele>
        <time>2020-06-08T15:25:00Z</time>
      </trkpt>
      <trkpt lat="48.34215" lon="-4.25912">
        <ele>38.8</ele>
        <time>2020-06-08T15:25:01Z</time>
      </trkpt>
      <trkpt lat="48.34221" lon="-4.25907">
        <ele>38.8</ele>
        <time>2020-06-08T15:25:02Z</time>
      </trkpt>
      <trkpt lat="48.34228" lon="-4.25903">
        <ele>38.8</ele>
        <time>2020-06-08T15:25:03Z</time>
      </trkpt>
      <trkpt lat="48.34235" lon="-4.259">
        <ele>38.8</ele>
        <time>2020-06-08T15:25:04Z</time>
      </trkpt>
      <trkpt lat="48.34242" lon="-4.25898">
        <ele>38.9</ele>
        <time>2020-06-08T15:25:05Z</time>
      </trkpt>
      <trkpt lat="48.34248" lon="-4.25897">
        <ele>39</ele>
        <time>2020-06-08T15:25:06Z</time>
      </trkpt>
      <trkpt lat="48.34253" lon="-4.25896">
        <ele>39.1</ele>
        <time>2020-06-08T15:25:07Z</time>
      </trkpt>
      <trkpt lat="48.34257" lon="-4.25895">
        <ele>39.1</ele>
        <time>2020-06-08T15:25:08Z</time>
      </trkpt>
      <trkpt lat="48.34263" lon="-4.25895">
        <ele>39.2</ele>
        <time>2020-06-08T15:25:09Z</time>
      </trkpt>
      <trkpt lat="48.34269" lon="-4.25893">
        <ele>39.4</ele>
        <time>2020-06-08T15:25:10Z</time>
      </trkpt>
      <trkpt lat="48.34275" lon="-4.25892">
        <ele>39.6</ele>
        <time>2020-06-08T15:25:11Z</time>
      </trkpt>
      <trkpt lat="48.3428" lon="-4.25891">
        <ele>39.8</ele>
        <time>2020-06-08T15:25:12Z</time>
      </trkpt>
      <trkpt lat="48.34285" lon="-4.25892">
        <ele>40</ele>
        <time>2020-06-08T15:25:13Z</time>
      </trkpt>
      <trkpt lat="48.34291" lon="-4.25892">
        <ele>40.2</ele>
        <time>2020-06-08T15:25:14Z</time>
      </trkpt>
      <trkpt lat="48.34297" lon="-4.25891">
        <ele>40.5</ele>
        <time>2020-06-08T15:25:15Z</time>
      </trkpt>
      <trkpt lat="48.34304" lon="-4.2589">
        <ele>40.8</ele>
        <time>2020-06-08T15:25:16Z</time>
      </trkpt>
      <trkpt lat="48.3431" lon="-4.25888">
        <ele>41.1</ele>
        <time>2020-06-08T15:25:17Z</time>
      </trkpt>
      <trkpt lat="48.34315" lon="-4.25887">
        <ele>41.4</ele>
        <time>2020-06-08T15:25:18Z</time>
      </trkpt>
      <trkpt lat="48.34321" lon="-4.25887">
        <ele>41.6</ele>
        <time>2020-06-08T15:25:19Z</time>
      </trkpt>
      <trkpt lat="48.34326" lon="-4.25887">
        <ele>41.9</ele>
        <time>2020-06-08T15:25:20Z</time>
      </trkpt>
      <trkpt lat="48.34331" lon="-4.25887">
        <ele>42.1</ele>
        <time>2020-06-08T15:25:21Z</time>
      </trkpt>
      <trkpt lat="48.34335" lon="-4.25886">
        <ele>42.3</ele>
        <time>2020-06-08T15:25:22Z</time>
      </trkpt>
      <trkpt lat="48.3434" lon="-4.25884">
        <ele>42.5</ele>
        <time>2020-06-08T15:25:23Z</time>
      </trkpt>
      <trkpt lat="48.34345" lon="-4.25883">
        <ele>42.7</ele>
        <time>2020-06-08T15:25:24Z</time>
      </trkpt>
      <trkpt lat="48.34351" lon="-4.25882">
        <ele>42.9</ele>
        <time>2020-06-08T15:25:25Z</time>
      </trkpt>
      <trkpt lat="48.34356" lon="-4.2588">
        <ele>43.2</ele>
        <time>2020-06-08T15:25:26Z</time>
      </trkpt>
      <trkpt lat="48.34363" lon="-4.25879">
        <ele>43.5</ele>
        <time>2020-06-08T15:25:27Z</time>
      </trkpt>
      <trkpt lat="48.34368" lon="-4.25878">
        <ele>43.8</ele>
        <time>2020-06-08T15:25:28Z</time>
      </trkpt>
      <trkpt lat="48.34373" lon="-4.25878">
        <ele>44</ele>
        <time>2020-06-08T15:25:29Z</time>
      </trkpt>
      <trkpt lat="48.34379" lon="-4.25877">
        <ele>44.3</ele>
        <time>2020-06-08T15:25:30Z</time>
      </trkpt>
      <trkpt lat="48.34384" lon="-4.25876">
        <ele>44.6</ele>
        <time>2020-06-08T15:25:31Z</time>
      </trkpt>
      <trkpt lat="48.34389" lon="-4.25876">
        <ele>44.8</ele>
        <time>2020-06-08T15:25:32Z</time>
      </trkpt>
      <trkpt lat="48.34395" lon="-4.25875">
        <ele>45.1</ele>
        <time>2020-06-08T15:25:33Z</time>
      </trkpt>
      <trkpt lat="48.344" lon="-4.25874">
        <ele>45.4</ele>
        <time>2020-06-08T15:25:34Z</time>
      </trkpt>
      <trkpt lat="48.34404" lon="-4.25873">
        <ele>45.6</ele>
        <time>2020-06-08T15:25:35Z</time>
      </trkpt>
      <trkpt lat="48.34408" lon="-4.25873">
        <ele>45.8</ele>
        <time>2020-06-08T15:25:36Z</time>
      </trkpt>
      <trkpt lat="48.34412" lon="-4.25873">
        <ele>46</ele>
        <time>2020-06-08T15:25:37Z</time>
      </trkpt>
      <trkpt lat="48.34416" lon="-4.25872">
        <ele>46.2</ele>
        <time>2020-06-08T15:25:38Z</time>
      </trkpt>
      <trkpt lat="48.34419" lon="-4.25872">
        <ele>46.4</ele>
        <time>2020-06-08T15:25:39Z</time>
      </trkpt>
      <trkpt lat="48.34423" lon="-4.25871">
        <ele>46.6</ele>
        <time>2020-06-08T15:25:40Z</time>
      </trkpt>
      <trkpt lat="48.34427" lon="-4.25872">
        <ele>46.8</ele>
        <time>2020-06-08T15:25:41Z</time>
      </trkpt>
      <trkpt lat="48.34429" lon="-4.25872">
        <ele>46.8</ele>
        <time>2020-06-08T15:25:42Z</time>
      </trkpt>
      <trkpt lat="48.34433" lon="-4.25871">
        <ele>47</ele>
        <time>2020-06-08T15:25:43Z</time>
      </trkpt>
      <trkpt lat="48.34436" lon="-4.2587">
        <ele>47.2</ele>
        <time>2020-06-08T15:25:44Z</time>
      </trkpt>
      <trkpt lat="48.34441" lon="-4.2587">
        <ele>47.4</ele>
        <time>2020-06-08T15:25:45Z</time>
      </trkpt>
      <trkpt lat="48.34445" lon="-4.25869">
        <ele>47.6</ele>
        <time>2020-06-08T15:25:46Z</time>
      </trkpt>
      <trkpt lat="48.34448" lon="-4.25868">
        <ele>47.8</ele>
        <time>2020-06-08T15:25:47Z</time>
      </trkpt>
      <trkpt lat="48.34452" lon="-4.25867">
        <ele>47.9</ele>
        <time>2020-06-08T15:25:48Z</time>
      </trkpt>
      <trkpt lat="48.34457" lon="-4.25866">
        <ele>48.2</ele>
        <time>2020-06-08T15:25:49Z</time>
      </trkpt>
      <trkpt lat="48.34461" lon="-4.25866">
        <ele>48.4</ele>
        <time>2020-06-08T15:25:50Z</time>
      </trkpt>
      <trkpt lat="48.34465" lon="-4.25866">
        <ele>48.6</ele>
        <time>2020-06-08T15:25:51Z</time>
      </trkpt>
      <trkpt lat="48.34469" lon="-4.25866">
        <ele>48.8</ele>
        <time>2020-06-08T15:25:52Z</time>
      </trkpt>
      <trkpt lat="48.34472" lon="-4.25865">
        <ele>49</ele>
        <time>2020-06-08T15:25:53Z</time>
      </trkpt>
      <trkpt lat="48.34476" lon="-4.25864">
        <ele>49.2</ele>
        <time>2020-06-08T15:25:54Z</time>
      </trkpt>
      <trkpt lat="48.3448" lon="-4.25865">
        <ele>49.3</ele>
        <time>2020-06-08T15:25:55Z</time>
      </trkpt>
      <trkpt lat="48.34484" lon="-4.25864">
        <ele>49.6</ele>
        <time>2020-06-08T15:25:56Z</time>
      </trkpt>
      <trkpt lat="48.34488" lon="-4.25863">
        <ele>49.8</ele>
        <time>2020-06-08T15:25:57Z</time>
      </trkpt>
      <trkpt lat="48.34493" lon="-4.25863">
        <ele>50</ele>
        <time>2020-06-08T15:25:58Z</time>
      </trkpt>
      <trkpt lat="48.34495" lon="-4.25862">
        <ele>50.2</ele>
        <time>2020-06-08T15:25:59Z</time>
      </trkpt>
      <trkpt lat="48.34498" lon="-4.25862">
        <ele>50.3</ele>
        <time>2020-06-08T15:26:00Z</time>
      </trkpt>
      <trkpt lat="48.34502" lon="-4.25861">
        <ele>50.5</ele>
        <time>2020-06-08T15:26:01Z</time>
      </trkpt>
      <trkpt lat="48.34507" lon="-4.25859">
        <ele>50.8</ele>
        <time>2020-06-08T15:26:02Z</time>
      </trkpt>
      <trkpt lat="48.34511" lon="-4.25858">
        <ele>51</ele>
        <time>2020-06-08T15:26:03Z</time>
      </trkpt>
      <trkpt lat="48.34515" lon="-4.25857">
        <ele>51.2</ele>
        <time>2020-06-08T15:26:04Z</time>
      </trkpt>
      <trkpt lat="48.34519" lon="-4.25856">
        <ele>51.4</ele>
        <time>2020-06-08T15:26:05Z</time>
      </trkpt>
      <trkpt lat="48.34523" lon="-4.25855">
        <ele>51.6</ele>
        <time>2020-06-08T15:26:06Z</time>
      </trkpt>
      <trkpt lat="48.34527" lon="-4.25855">
        <ele>51.8</ele>
        <time>2020-06-08T15:26:07Z</time>
      </trkpt>
      <trkpt lat="48.34529" lon="-4.25855">
        <ele>51.9</ele>
        <time>2020-06-08T15:26:08Z</time>
      </trkpt>
      <trkpt lat="48.34532" lon="-4.25855">
        <ele>52</ele>
        <time>2020-06-08T15:26:09Z</time>
      </trkpt>
      <trkpt lat="48.34535" lon="-4.25855">
        <ele>52.2</ele>
        <time>2020-06-08T15:26:10Z</time>
      </trkpt>
      <trkpt lat="48.34539" lon="-4.25854">
        <ele>52.4</ele>
        <time>2020-06-08T15:26:11Z</time>
      </trkpt>
      <trkpt lat="48.3454" lon="-4.25853">
        <ele>52.5</ele>
        <time>2020-06-08T15:26:12Z</time>
      </trkpt>
      <trkpt lat="48.34545" lon="-4.25849">
        <ele>52.7</ele>
        <time>2020-06-08T15:26:13Z</time>
      </trkpt>
      <trkpt lat="48.34551" lon="-4.25849">
        <ele>53</ele>
        <time>2020-06-08T15:26:14Z</time>
      </trkpt>
      <trkpt lat="48.34554" lon="-4.25848">
        <ele>53.1</ele>
        <time>2020-06-08T15:26:15Z</time>
      </trkpt>
      <trkpt lat="48.34559" lon="-4.25847">
        <ele>53.3</ele>
        <time>2020-06-08T15:26:16Z</time>
      </trkpt>
      <trkpt lat="48.34562" lon="-4.25845">
        <ele>53.5</ele>
        <time>2020-06-08T15:26:17Z</time>
      </trkpt>
      <trkpt lat="48.34566" lon="-4.25844">
        <ele>53.7</ele>
        <time>2020-06-08T15:26:18Z</time>
      </trkpt>
      <trkpt lat="48.34571" lon="-4.25842">
        <ele>53.8</ele>
        <time>2020-06-08T15:26:19Z</time>
      </trkpt>
      <trkpt lat="48.34575" lon="-4.25841">
        <ele>53.9</ele>
        <time>2020-06-08T15:26:20Z</time>
      </trkpt>
      <trkpt lat="48.34578" lon="-4.2584">
        <ele>54.1</ele>
        <time>2020-06-08T15:26:21Z</time>
      </trkpt>
      <trkpt lat="48.34582" lon="-4.25839">
        <ele>54.2</ele>
        <time>2020-06-08T15:26:22Z</time>
      </trkpt>
      <trkpt lat="48.34585" lon="-4.25839">
        <ele>54.2</ele>
        <time>2020-06-08T15:26:23Z</time>
      </trkpt>
      <trkpt lat="48.3459" lon="-4.25838">
        <ele>54.3</ele>
        <time>2020-06-08T15:26:24Z</time>
      </trkpt>
      <trkpt lat="48.34593" lon="-4.25838">
        <ele>54.4</ele>
        <time>2020-06-08T15:26:25Z</time>
      </trkpt>
      <trkpt lat="48.34597" lon="-4.25836">
        <ele>54.4</ele>
        <time>2020-06-08T15:26:26Z</time>
      </trkpt>
      <trkpt lat="48.34601" lon="-4.25835">
        <ele>54.5</ele>
        <time>2020-06-08T15:26:27Z</time>
      </trkpt>
      <trkpt lat="48.34603" lon="-4.25834">
        <ele>54.5</ele>
        <time>2020-06-08T15:26:28Z</time>
      </trkpt>
      <trkpt lat="48.34607" lon="-4.25833">
        <ele>54.6</ele>
        <time>2020-06-08T15:26:29Z</time>
      </trkpt>
      <trkpt lat="48.34612" lon="-4.25829">
        <ele>54.7</ele>
        <time>2020-06-08T15:26:30Z</time>
      </trkpt>
      <trkpt lat="48.34617" lon="-4.25827">
        <ele>54.7</ele>
        <time>2020-06-08T15:26:31Z</time>
      </trkpt>
      <trkpt lat="48.3462" lon="-4.25825">
        <ele>54.7</ele>
        <time>2020-06-08T15:26:32Z</time>
      </trkpt>
      <trkpt lat="48.34622" lon="-4.25824">
        <ele>54.7</ele>
        <time>2020-06-08T15:26:33Z</time>
      </trkpt>
      <trkpt lat="48.34626" lon="-4.25821">
        <ele>54.8</ele>
        <time>2020-06-08T15:26:34Z</time>
      </trkpt>
      <trkpt lat="48.3463" lon="-4.25819">
        <ele>54.8</ele>
        <time>2020-06-08T15:26:35Z</time>
      </trkpt>
      <trkpt lat="48.34634" lon="-4.25817">
        <ele>54.8</ele>
        <time>2020-06-08T15:26:36Z</time>
      </trkpt>
      <trkpt lat="48.34637" lon="-4.25814">
        <ele>54.7</ele>
        <time>2020-06-08T15:26:37Z</time>
      </trkpt>
      <trkpt lat="48.34642" lon="-4.25811">
        <ele>54.7</ele>
        <time>2020-06-08T15:26:38Z</time>
      </trkpt>
      <trkpt lat="48.34647" lon="-4.25807">
        <ele>54.7</ele>
        <time>2020-06-08T15:26:39Z</time>
      </trkpt>
      <trkpt lat="48.3465" lon="-4.25805">
        <ele>54.6</ele>
        <time>2020-06-08T15:26:40Z</time>
      </trkpt>
      <trkpt lat="48.34654" lon="-4.25802">
        <ele>54.5</ele>
        <time>2020-06-08T15:26:41Z</time>
      </trkpt>
      <trkpt lat="48.34658" lon="-4.25799">
        <ele>54.4</ele>
        <time>2020-06-08T15:26:42Z</time>
      </trkpt>
      <trkpt lat="48.34662" lon="-4.25796">
        <ele>54.3</ele>
        <time>2020-06-08T15:26:43Z</time>
      </trkpt>
      <trkpt lat="48.34665" lon="-4.25793">
        <ele>54.2</ele>
        <time>2020-06-08T15:26:44Z</time>
      </trkpt>
      <trkpt lat="48.3467" lon="-4.25789">
        <ele>54</ele>
        <time>2020-06-08T15:26:45Z</time>
      </trkpt>
      <trkpt lat="48.34674" lon="-4.25786">
        <ele>53.9</ele>
        <time>2020-06-08T15:26:46Z</time>
      </trkpt>
      <trkpt lat="48.34679" lon="-4.25783">
        <ele>53.7</ele>
        <time>2020-06-08T15:26:47Z</time>
      </trkpt>
      <trkpt lat="48.34683" lon="-4.25779">
        <ele>53.5</ele>
        <time>2020-06-08T15:26:48Z</time>
      </trkpt>
      <trkpt lat="48.34687" lon="-4.25776">
        <ele>53.4</ele>
        <time>2020-06-08T15:26:49Z</time>
      </trkpt>
      <trkpt lat="48.34692" lon="-4.25772">
        <ele>53.2</ele>
        <time>2020-06-08T15:26:50Z</time>
      </trkpt>
      <trkpt lat="48.34698" lon="-4.25768">
        <ele>53.1</ele>
        <time>2020-06-08T15:26:51Z</time>
      </trkpt>
      <trkpt lat="48.34703" lon="-4.25764">
        <ele>52.9</ele>
        <time>2020-06-08T15:26:52Z</time>
      </trkpt>
      <trkpt lat="48.34709" lon="-4.2576">
        <ele>52.5</ele>
        <time>2020-06-08T15:26:53Z</time>
      </trkpt>
      <trkpt lat="48.34714" lon="-4.25755">
        <ele>52.2</ele>
        <time>2020-06-08T15:26:54Z</time>
      </trkpt>
      <trkpt lat="48.34719" lon="-4.25751">
        <ele>51.9</ele>
        <time>2020-06-08T15:26:55Z</time>
      </trkpt>
      <trkpt lat="48.34724" lon="-4.25747">
        <ele>51.5</ele>
        <time>2020-06-08T15:26:56Z</time>
      </trkpt>
      <trkpt lat="48.34729" lon="-4.25744">
        <ele>51.2</ele>
        <time>2020-06-08T15:26:57Z</time>
      </trkpt>
      <trkpt lat="48.34733" lon="-4.2574">
        <ele>51</ele>
        <time>2020-06-08T15:26:58Z</time>
      </trkpt>
      <trkpt lat="48.34739" lon="-4.25735">
        <ele>50.6</ele>
        <time>2020-06-08T15:26:59Z</time>
      </trkpt>
      <trkpt lat="48.34745" lon="-4.25732">
        <ele>50.2</ele>
        <time>2020-06-08T15:27:00Z</time>
      </trkpt>
      <trkpt lat="48.34752" lon="-4.25727">
        <ele>49.8</ele>
        <time>2020-06-08T15:27:01Z</time>
      </trkpt>
      <trkpt lat="48.34758" lon="-4.25723">
        <ele>49.5</ele>
        <time>2020-06-08T15:27:02Z</time>
      </trkpt>
      <trkpt lat="48.34765" lon="-4.25717">
        <ele>49.1</ele>
        <time>2020-06-08T15:27:03Z</time>
      </trkpt>
      <trkpt lat="48.34773" lon="-4.2571">
        <ele>48.7</ele>
        <time>2020-06-08T15:27:04Z</time>
      </trkpt>
      <trkpt lat="48.34779" lon="-4.25704">
        <ele>48.3</ele>
        <time>2020-06-08T15:27:05Z</time>
      </trkpt>
      <trkpt lat="48.34786" lon="-4.25698">
        <ele>48</ele>
        <time>2020-06-08T15:27:06Z</time>
      </trkpt>
      <trkpt lat="48.34791" lon="-4.25691">
        <ele>47.6</ele>
        <time>2020-06-08T15:27:07Z</time>
      </trkpt>
      <trkpt lat="48.34797" lon="-4.25685">
        <ele>47.3</ele>
        <time>2020-06-08T15:27:08Z</time>
      </trkpt>
      <trkpt lat="48.34803" lon="-4.25678">
        <ele>46.9</ele>
        <time>2020-06-08T15:27:09Z</time>
      </trkpt>
      <trkpt lat="48.3481" lon="-4.25672">
        <ele>46.5</ele>
        <time>2020-06-08T15:27:10Z</time>
      </trkpt>
      <trkpt lat="48.34816" lon="-4.25665">
        <ele>46.2</ele>
        <time>2020-06-08T15:27:11Z</time>
      </trkpt>
      <trkpt lat="48.34822" lon="-4.25659">
        <ele>45.8</ele>
        <time>2020-06-08T15:27:12Z</time>
      </trkpt>
      <trkpt lat="48.34828" lon="-4.25652">
        <ele>45.5</ele>
        <time>2020-06-08T15:27:13Z</time>
      </trkpt>
      <trkpt lat="48.34833" lon="-4.25646">
        <ele>45.1</ele>
        <time>2020-06-08T15:27:14Z</time>
      </trkpt>
      <trkpt lat="48.3484" lon="-4.25639">
        <ele>44.5</ele>
        <time>2020-06-08T15:27:15Z</time>
      </trkpt>
      <trkpt lat="48.34846" lon="-4.25632">
        <ele>44.2</ele>
        <time>2020-06-08T15:27:16Z</time>
      </trkpt>
      <trkpt lat="48.34852" lon="-4.25625">
        <ele>44</ele>
        <time>2020-06-08T15:27:17Z</time>
      </trkpt>
      <trkpt lat="48.34858" lon="-4.25618">
        <ele>43.7</ele>
        <time>2020-06-08T15:27:18Z</time>
      </trkpt>
      <trkpt lat="48.34864" lon="-4.25612">
        <ele>43.5</ele>
        <time>2020-06-08T15:27:19Z</time>
      </trkpt>
      <trkpt lat="48.3487" lon="-4.25606">
        <ele>43.3</ele>
        <time>2020-06-08T15:27:20Z</time>
      </trkpt>
      <trkpt lat="48.34876" lon="-4.25599">
        <ele>43.1</ele>
        <time>2020-06-08T15:27:21Z</time>
      </trkpt>
      <trkpt lat="48.34881" lon="-4.25591">
        <ele>42.9</ele>
        <time>2020-06-08T15:27:22Z</time>
      </trkpt>
      <trkpt lat="48.34887" lon="-4.25584">
        <ele>42.8</ele>
        <time>2020-06-08T15:27:23Z</time>
      </trkpt>
      <trkpt lat="48.34893" lon="-4.25578">
        <ele>42.7</ele>
        <time>2020-06-08T15:27:24Z</time>
      </trkpt>
      <trkpt lat="48.34899" lon="-4.25572">
        <ele>42.6</ele>
        <time>2020-06-08T15:27:25Z</time>
      </trkpt>
      <trkpt lat="48.34905" lon="-4.25567">
        <ele>42.5</ele>
        <time>2020-06-08T15:27:26Z</time>
      </trkpt>
      <trkpt lat="48.34912" lon="-4.25563">
        <ele>42.5</ele>
        <time>2020-06-08T15:27:27Z</time>
      </trkpt>
      <trkpt lat="48.34918" lon="-4.25559">
        <ele>42.4</ele>
        <time>2020-06-08T15:27:28Z</time>
      </trkpt>
      <trkpt lat="48.34923" lon="-4.25555">
        <ele>42.3</ele>
        <time>2020-06-08T15:27:29Z</time>
      </trkpt>
      <trkpt lat="48.34929" lon="-4.25551">
        <ele>42.3</ele>
        <time>2020-06-08T15:27:30Z</time>
      </trkpt>
      <trkpt lat="48.34934" lon="-4.25547">
        <ele>42.2</ele>
        <time>2020-06-08T15:27:31Z</time>
      </trkpt>
      <trkpt lat="48.34939" lon="-4.25543">
        <ele>42.2</ele>
        <time>2020-06-08T15:27:32Z</time>
      </trkpt>
      <trkpt lat="48.34944" lon="-4.25539">
        <ele>42.2</ele>
        <time>2020-06-08T15:27:33Z</time>
      </trkpt>
      <trkpt lat="48.3495" lon="-4.25535">
        <ele>42.2</ele>
        <time>2020-06-08T15:27:34Z</time>
      </trkpt>
      <trkpt lat="48.34955" lon="-4.25532">
        <ele>42.2</ele>
        <time>2020-06-08T15:27:35Z</time>
      </trkpt>
      <trkpt lat="48.3496" lon="-4.25529">
        <ele>42.2</ele>
        <time>2020-06-08T15:27:36Z</time>
      </trkpt>
      <trkpt lat="48.34966" lon="-4.25526">
        <ele>42.1</ele>
        <time>2020-06-08T15:27:37Z</time>
      </trkpt>
      <trkpt lat="48.34971" lon="-4.25523">
        <ele>42.1</ele>
        <time>2020-06-08T15:27:38Z</time>
      </trkpt>
      <trkpt lat="48.34977" lon="-4.2552">
        <ele>42</ele>
        <time>2020-06-08T15:27:39Z</time>
      </trkpt>
      <trkpt lat="48.34983" lon="-4.25517">
        <ele>41.9</ele>
        <time>2020-06-08T15:27:40Z</time>
      </trkpt>
      <trkpt lat="48.34989" lon="-4.25513">
        <ele>41.9</ele>
        <time>2020-06-08T15:27:41Z</time>
      </trkpt>
      <trkpt lat="48.34995" lon="-4.2551">
        <ele>41.8</ele>
        <time>2020-06-08T15:27:42Z</time>
      </trkpt>
      <trkpt lat="48.35001" lon="-4.25507">
        <ele>41.7</ele>
        <time>2020-06-08T15:27:43Z</time>
      </trkpt>
      <trkpt lat="48.35007" lon="-4.25503">
        <ele>41.7</ele>
        <time>2020-06-08T15:27:44Z</time>
      </trkpt>
      <trkpt lat="48.35013" lon="-4.255">
        <ele>41.6</ele>
        <time>2020-06-08T15:27:45Z</time>
      </trkpt>
      <trkpt lat="48.35019" lon="-4.25497">
        <ele>41.5</ele>
        <time>2020-06-08T15:27:46Z</time>
      </trkpt>
      <trkpt lat="48.35025" lon="-4.25493">
        <ele>41.4</ele>
        <time>2020-06-08T15:27:47Z</time>
      </trkpt>
      <trkpt lat="48.35031" lon="-4.25489">
        <ele>41.3</ele>
        <time>2020-06-08T15:27:49Z</time>
      </trkpt>
      <trkpt lat="48.35036" lon="-4.25485">
        <ele>41.2</ele>
        <time>2020-06-08T15:27:50Z</time>
      </trkpt>
      <trkpt lat="48.35042" lon="-4.25481">
        <ele>41.1</ele>
        <time>2020-06-08T15:27:51Z</time>
      </trkpt>
      <trkpt lat="48.35048" lon="-4.25478">
        <ele>41</ele>
        <time>2020-06-08T15:27:52Z</time>
      </trkpt>
      <trkpt lat="48.35054" lon="-4.25475">
        <ele>40.9</ele>
        <time>2020-06-08T15:27:53Z</time>
      </trkpt>
      <trkpt lat="48.35059" lon="-4.25473">
        <ele>40.8</ele>
        <time>2020-06-08T15:27:54Z</time>
      </trkpt>
      <trkpt lat="48.35064" lon="-4.25469">
        <ele>40.8</ele>
        <time>2020-06-08T15:27:55Z</time>
      </trkpt>
      <trkpt lat="48.35069" lon="-4.25465">
        <ele>40.6</ele>
        <time>2020-06-08T15:27:56Z</time>
      </trkpt>
      <trkpt lat="48.35075" lon="-4.25462">
        <ele>40.5</ele>
        <time>2020-06-08T15:27:57Z</time>
      </trkpt>
      <trkpt lat="48.35081" lon="-4.25459">
        <ele>40.4</ele>
        <time>2020-06-08T15:27:58Z</time>
      </trkpt>
      <trkpt lat="48.35086" lon="-4.25458">
        <ele>40.3</ele>
        <time>2020-06-08T15:27:59Z</time>
      </trkpt>
      <trkpt lat="48.35092" lon="-4.25456">
        <ele>40.2</ele>
        <time>2020-06-08T15:28:00Z</time>
      </trkpt>
      <trkpt lat="48.35098" lon="-4.25455">
        <ele>40.1</ele>
        <time>2020-06-08T15:28:01Z</time>
      </trkpt>
      <trkpt lat="48.35103" lon="-4.25455">
        <ele>39.9</ele>
        <time>2020-06-08T15:28:02Z</time>
      </trkpt>
      <trkpt lat="48.35109" lon="-4.25454">
        <ele>39.8</ele>
        <time>2020-06-08T15:28:03Z</time>
      </trkpt>
      <trkpt lat="48.35114" lon="-4.25453">
        <ele>39.7</ele>
        <time>2020-06-08T15:28:04Z</time>
      </trkpt>
      <trkpt lat="48.3512" lon="-4.25452">
        <ele>39.7</ele>
        <time>2020-06-08T15:28:05Z</time>
      </trkpt>
      <trkpt lat="48.35125" lon="-4.2545">
        <ele>39.7</ele>
        <time>2020-06-08T15:28:06Z</time>
      </trkpt>
      <trkpt lat="48.35131" lon="-4.2545">
        <ele>39.6</ele>
        <time>2020-06-08T15:28:07Z</time>
      </trkpt>
      <trkpt lat="48.35137" lon="-4.25448">
        <ele>39.6</ele>
        <time>2020-06-08T15:28:08Z</time>
      </trkpt>
      <trkpt lat="48.35143" lon="-4.25448">
        <ele>39.6</ele>
        <time>2020-06-08T15:28:09Z</time>
      </trkpt>
      <trkpt lat="48.3515" lon="-4.25445">
        <ele>39.6</ele>
        <time>2020-06-08T15:28:10Z</time>
      </trkpt>
      <trkpt lat="48.35156" lon="-4.25446">
        <ele>39.5</ele>
        <time>2020-06-08T15:28:11Z</time>
      </trkpt>
      <trkpt lat="48.35163" lon="-4.25445">
        <ele>39.5</ele>
        <time>2020-06-08T15:28:12Z</time>
      </trkpt>
      <trkpt lat="48.35169" lon="-4.25446">
        <ele>39.4</ele>
        <time>2020-06-08T15:28:13Z</time>
      </trkpt>
      <trkpt lat="48.35176" lon="-4.25446">
        <ele>39.4</ele>
        <time>2020-06-08T15:28:14Z</time>
      </trkpt>
      <trkpt lat="48.35182" lon="-4.25449">
        <ele>39.3</ele>
        <time>2020-06-08T15:28:15Z</time>
      </trkpt>
      <trkpt lat="48.35187" lon="-4.25451">
        <ele>39.3</ele>
        <time>2020-06-08T15:28:16Z</time>
      </trkpt>
      <trkpt lat="48.35193" lon="-4.25452">
        <ele>39.3</ele>
        <time>2020-06-08T15:28:17Z</time>
      </trkpt>
      <trkpt lat="48.35199" lon="-4.25454">
        <ele>39.2</ele>
        <time>2020-06-08T15:28:18Z</time>
      </trkpt>
      <trkpt lat="48.35204" lon="-4.25457">
        <ele>39.1</ele>
        <time>2020-06-08T15:28:19Z</time>
      </trkpt>
      <trkpt lat="48.3521" lon="-4.25459">
        <ele>39.1</ele>
        <time>2020-06-08T15:28:20Z</time>
      </trkpt>
      <trkpt lat="48.35215" lon="-4.25462">
        <ele>39</ele>
        <time>2020-06-08T15:28:21Z</time>
      </trkpt>
      <trkpt lat="48.3522" lon="-4.25465">
        <ele>38.9</ele>
        <time>2020-06-08T15:28:22Z</time>
      </trkpt>
      <trkpt lat="48.35226" lon="-4.25466">
        <ele>38.8</ele>
        <time>2020-06-08T15:28:23Z</time>
      </trkpt>
      <trkpt lat="48.35232" lon="-4.25469">
        <ele>38.7</ele>
        <time>2020-06-08T15:28:24Z</time>
      </trkpt>
      <trkpt lat="48.35237" lon="-4.25473">
        <ele>38.6</ele>
        <time>2020-06-08T15:28:25Z</time>
      </trkpt>
      <trkpt lat="48.35243" lon="-4.25476">
        <ele>38.5</ele>
        <time>2020-06-08T15:28:26Z</time>
      </trkpt>
      <trkpt lat="48.35248" lon="-4.2548">
        <ele>38.4</ele>
        <time>2020-06-08T15:28:27Z</time>
      </trkpt>
      <trkpt lat="48.35253" lon="-4.25484">
        <ele>38.3</ele>
        <time>2020-06-08T15:28:28Z</time>
      </trkpt>
      <trkpt lat="48.35258" lon="-4.25488">
        <ele>38.2</ele>
        <time>2020-06-08T15:28:29Z</time>
      </trkpt>
      <trkpt lat="48.35264" lon="-4.25491">
        <ele>38.1</ele>
        <time>2020-06-08T15:28:30Z</time>
      </trkpt>
      <trkpt lat="48.35269" lon="-4.25494">
        <ele>38</ele>
        <time>2020-06-08T15:28:31Z</time>
      </trkpt>
      <trkpt lat="48.35274" lon="-4.25497">
        <ele>37.9</ele>
        <time>2020-06-08T15:28:32Z</time>
      </trkpt>
      <trkpt lat="48.35279" lon="-4.25499">
        <ele>37.7</ele>
        <time>2020-06-08T15:28:33Z</time>
      </trkpt>
      <trkpt lat="48.35283" lon="-4.25502">
        <ele>37.6</ele>
        <time>2020-06-08T15:28:34Z</time>
      </trkpt>
      <trkpt lat="48.35288" lon="-4.25505">
        <ele>37.5</ele>
        <time>2020-06-08T15:28:35Z</time>
      </trkpt>
      <trkpt lat="48.35293" lon="-4.25507">
        <ele>37.4</ele>
        <time>2020-06-08T15:28:36Z</time>
      </trkpt>
      <trkpt lat="48.35298" lon="-4.25509">
        <ele>37.3</ele>
        <time>2020-06-08T15:28:37Z</time>
      </trkpt>
      <trkpt lat="48.35303" lon="-4.25512">
        <ele>37.1</ele>
        <time>2020-06-08T15:28:38Z</time>
      </trkpt>
      <trkpt lat="48.35308" lon="-4.25514">
        <ele>36.8</ele>
        <time>2020-06-08T15:28:39Z</time>
      </trkpt>
      <trkpt lat="48.35314" lon="-4.25515">
        <ele>36.8</ele>
        <time>2020-06-08T15:28:40Z</time>
      </trkpt>
      <trkpt lat="48.35319" lon="-4.25516">
        <ele>36.8</ele>
        <time>2020-06-08T15:28:41Z</time>
      </trkpt>
      <trkpt lat="48.35324" lon="-4.25521">
        <ele>36.7</ele>
        <time>2020-06-08T15:28:42Z</time>
      </trkpt>
      <trkpt lat="48.35328" lon="-4.25528">
        <ele>36.6</ele>
        <time>2020-06-08T15:28:43Z</time>
      </trkpt>
      <trkpt lat="48.35332" lon="-4.25535">
        <ele>36.2</ele>
        <time>2020-06-08T15:28:44Z</time>
      </trkpt>
      <trkpt lat="48.35339" lon="-4.25539">
        <ele>36</ele>
        <time>2020-06-08T15:28:45Z</time>
      </trkpt>
      <trkpt lat="48.35351" lon="-4.25549">
        <ele>35.5</ele>
        <time>2020-06-08T15:28:46Z</time>
      </trkpt>
      <trkpt lat="48.35357" lon="-4.25554">
        <ele>35.3</ele>
        <time>2020-06-08T15:28:47Z</time>
      </trkpt>
      <trkpt lat="48.35364" lon="-4.25559">
        <ele>34.8</ele>
        <time>2020-06-08T15:28:48Z</time>
      </trkpt>
      <trkpt lat="48.3537" lon="-4.25564">
        <ele>34.6</ele>
        <time>2020-06-08T15:28:49Z</time>
      </trkpt>
      <trkpt lat="48.35378" lon="-4.25568">
        <ele>34.3</ele>
        <time>2020-06-08T15:28:50Z</time>
      </trkpt>
      <trkpt lat="48.35385" lon="-4.25573">
        <ele>34</ele>
        <time>2020-06-08T15:28:51Z</time>
      </trkpt>
      <trkpt lat="48.35394" lon="-4.25578">
        <ele>33.6</ele>
        <time>2020-06-08T15:28:52Z</time>
      </trkpt>
      <trkpt lat="48.35402" lon="-4.25584">
        <ele>33.3</ele>
        <time>2020-06-08T15:28:53Z</time>
      </trkpt>
      <trkpt lat="48.3541" lon="-4.2559">
        <ele>32.9</ele>
        <time>2020-06-08T15:28:54Z</time>
      </trkpt>
      <trkpt lat="48.35419" lon="-4.25596">
        <ele>32.5</ele>
        <time>2020-06-08T15:28:55Z</time>
      </trkpt>
      <trkpt lat="48.35428" lon="-4.25602">
        <ele>32</ele>
        <time>2020-06-08T15:28:56Z</time>
      </trkpt>
      <trkpt lat="48.35437" lon="-4.2561">
        <ele>31.5</ele>
        <time>2020-06-08T15:28:57Z</time>
      </trkpt>
      <trkpt lat="48.35446" lon="-4.25617">
        <ele>30.9</ele>
        <time>2020-06-08T15:28:58Z</time>
      </trkpt>
      <trkpt lat="48.35454" lon="-4.25626">
        <ele>30.4</ele>
        <time>2020-06-08T15:28:59Z</time>
      </trkpt>
      <trkpt lat="48.35463" lon="-4.25634">
        <ele>29.9</ele>
        <time>2020-06-08T15:29:00Z</time>
      </trkpt>
      <trkpt lat="48.35472" lon="-4.25642">
        <ele>29.5</ele>
        <time>2020-06-08T15:29:01Z</time>
      </trkpt>
      <trkpt lat="48.35482" lon="-4.2565">
        <ele>29</ele>
        <time>2020-06-08T15:29:02Z</time>
      </trkpt>
      <trkpt lat="48.35491" lon="-4.25659">
        <ele>28.5</ele>
        <time>2020-06-08T15:29:03Z</time>
      </trkpt>
      <trkpt lat="48.35501" lon="-4.25667">
        <ele>28</ele>
        <time>2020-06-08T15:29:04Z</time>
      </trkpt>
      <trkpt lat="48.3551" lon="-4.25677">
        <ele>27.4</ele>
        <time>2020-06-08T15:29:05Z</time>
      </trkpt>
      <trkpt lat="48.3552" lon="-4.25685">
        <ele>26.9</ele>
        <time>2020-06-08T15:29:06Z</time>
      </trkpt>
      <trkpt lat="48.3553" lon="-4.25695">
        <ele>26.4</ele>
        <time>2020-06-08T15:29:07Z</time>
      </trkpt>
      <trkpt lat="48.3554" lon="-4.25703">
        <ele>25.8</ele>
        <time>2020-06-08T15:29:08Z</time>
      </trkpt>
      <trkpt lat="48.3555" lon="-4.25713">
        <ele>25.3</ele>
        <time>2020-06-08T15:29:09Z</time>
      </trkpt>
      <trkpt lat="48.35561" lon="-4.25722">
        <ele>24.7</ele>
        <time>2020-06-08T15:29:10Z</time>
      </trkpt>
      <trkpt lat="48.35571" lon="-4.25731">
        <ele>24.2</ele>
        <time>2020-06-08T15:29:11Z</time>
      </trkpt>
      <trkpt lat="48.35581" lon="-4.25741">
        <ele>23.6</ele>
        <time>2020-06-08T15:29:12Z</time>
      </trkpt>
      <trkpt lat="48.35592" lon="-4.25751">
        <ele>23</ele>
        <time>2020-06-08T15:29:13Z</time>
      </trkpt>
      <trkpt lat="48.35602" lon="-4.25761">
        <ele>22.4</ele>
        <time>2020-06-08T15:29:14Z</time>
      </trkpt>
      <trkpt lat="48.35613" lon="-4.2577">
        <ele>21.8</ele>
        <time>2020-06-08T15:29:15Z</time>
      </trkpt>
      <trkpt lat="48.35623" lon="-4.2578">
        <ele>21.3</ele>
        <time>2020-06-08T15:29:16Z</time>
      </trkpt>
      <trkpt lat="48.35634" lon="-4.2579">
        <ele>20.8</ele>
        <time>2020-06-08T15:29:17Z</time>
      </trkpt>
      <trkpt lat="48.35644" lon="-4.258">
        <ele>20.2</ele>
        <time>2020-06-08T15:29:18Z</time>
      </trkpt>
      <trkpt lat="48.35655" lon="-4.2581">
        <ele>19.7</ele>
        <time>2020-06-08T15:29:19Z</time>
      </trkpt>
      <trkpt lat="48.35666" lon="-4.25819">
        <ele>19.2</ele>
        <time>2020-06-08T15:29:20Z</time>
      </trkpt>
      <trkpt lat="48.35676" lon="-4.25829">
        <ele>18.7</ele>
        <time>2020-06-08T15:29:21Z</time>
      </trkpt>
      <trkpt lat="48.35686" lon="-4.25838">
        <ele>18.2</ele>
        <time>2020-06-08T15:29:22Z</time>
      </trkpt>
      <trkpt lat="48.35696" lon="-4.25847">
        <ele>17.7</ele>
        <time>2020-06-08T15:29:23Z</time>
      </trkpt>
      <trkpt lat="48.35705" lon="-4.25856">
        <ele>17.1</ele>
        <time>2020-06-08T15:29:24Z</time>
      </trkpt>
      <trkpt lat="48.35715" lon="-4.25864">
        <ele>16.7</ele>
        <time>2020-06-08T15:29:25Z</time>
      </trkpt>
      <trkpt lat="48.35724" lon="-4.25873">
        <ele>16.2</ele>
        <time>2020-06-08T15:29:26Z</time>
      </trkpt>
      <trkpt lat="48.35733" lon="-4.2588">
        <ele>15.7</ele>
        <time>2020-06-08T15:29:27Z</time>
      </trkpt>
      <trkpt lat="48.35742" lon="-4.25888">
        <ele>15.1</ele>
        <time>2020-06-08T15:29:28Z</time>
      </trkpt>
      <trkpt lat="48.3575" lon="-4.25895">
        <ele>14.6</ele>
        <time>2020-06-08T15:29:29Z</time>
      </trkpt>
      <trkpt lat="48.35759" lon="-4.25904">
        <ele>14.1</ele>
        <time>2020-06-08T15:29:30Z</time>
      </trkpt>
      <trkpt lat="48.35766" lon="-4.25912">
        <ele>13.6</ele>
        <time>2020-06-08T15:29:31Z</time>
      </trkpt>
      <trkpt lat="48.35774" lon="-4.25921">
        <ele>13.1</ele>
        <time>2020-06-08T15:29:32Z</time>
      </trkpt>
      <trkpt lat="48.35782" lon="-4.2593">
        <ele>12.6</ele>
        <time>2020-06-08T15:29:33Z</time>
      </trkpt>
      <trkpt lat="48.35791" lon="-4.25936">
        <ele>12</ele>
        <time>2020-06-08T15:29:34Z</time>
      </trkpt>
      <trkpt lat="48.35799" lon="-4.25942">
        <ele>11.5</ele>
        <time>2020-06-08T15:29:35Z</time>
      </trkpt>
      <trkpt lat="48.35808" lon="-4.25948">
        <ele>11</ele>
        <time>2020-06-08T15:29:36Z</time>
      </trkpt>
      <trkpt lat="48.35816" lon="-4.25953">
        <ele>10.4</ele>
        <time>2020-06-08T15:29:37Z</time>
      </trkpt>
      <trkpt lat="48.35825" lon="-4.25958">
        <ele>9.9</ele>
        <time>2020-06-08T15:29:38Z</time>
      </trkpt>
      <trkpt lat="48.35834" lon="-4.25963">
        <ele>9.3</ele>
        <time>2020-06-08T15:29:39Z</time>
      </trkpt>
      <trkpt lat="48.35843" lon="-4.25967">
        <ele>8.9</ele>
        <time>2020-06-08T15:29:40Z</time>
      </trkpt>
      <trkpt lat="48.35851" lon="-4.25971">
        <ele>8.4</ele>
        <time>2020-06-08T15:29:41Z</time>
      </trkpt>
      <trkpt lat="48.3586" lon="-4.25974">
        <ele>8</ele>
        <time>2020-06-08T15:29:42Z</time>
      </trkpt>
      <trkpt lat="48.35869" lon="-4.25976">
        <ele>7.7</ele>
        <time>2020-06-08T15:29:43Z</time>
      </trkpt>
      <trkpt lat="48.35878" lon="-4.25978">
        <ele>7.4</ele>
        <time>2020-06-08T15:29:44Z</time>
      </trkpt>
      <trkpt lat="48.35887" lon="-4.25981">
        <ele>7.1</ele>
        <time>2020-06-08T15:29:45Z</time>
      </trkpt>
      <trkpt lat="48.35895" lon="-4.25983">
        <ele>6.9</ele>
        <time>2020-06-08T15:29:46Z</time>
      </trkpt>
      <trkpt lat="48.35903" lon="-4.25985">
        <ele>6.7</ele>
        <time>2020-06-08T15:29:47Z</time>
      </trkpt>
      <trkpt lat="48.35911" lon="-4.25986">
        <ele>6.6</ele>
        <time>2020-06-08T15:29:48Z</time>
      </trkpt>
      <trkpt lat="48.35918" lon="-4.25986">
        <ele>6.5</ele>
        <time>2020-06-08T15:29:49Z</time>
      </trkpt>
      <trkpt lat="48.35926" lon="-4.25986">
        <ele>6.4</ele>
        <time>2020-06-08T15:29:50Z</time>
      </trkpt>
      <trkpt lat="48.35933" lon="-4.25986">
        <ele>6.3</ele>
        <time>2020-06-08T15:29:51Z</time>
      </trkpt>
      <trkpt lat="48.3594" lon="-4.25986">
        <ele>6.1</ele>
        <time>2020-06-08T15:29:52Z</time>
      </trkpt>
      <trkpt lat="48.35946" lon="-4.25986">
        <ele>6</ele>
        <time>2020-06-08T15:29:53Z</time>
      </trkpt>
      <trkpt lat="48.35952" lon="-4.25985">
        <ele>5.9</ele>
        <time>2020-06-08T15:29:54Z</time>
      </trkpt>
      <trkpt lat="48.35957" lon="-4.25985">
        <ele>5.9</ele>
        <time>2020-06-08T15:29:55Z</time>
      </trkpt>
      <trkpt lat="48.35962" lon="-4.25986">
        <ele>5.8</ele>
        <time>2020-06-08T15:29:56Z</time>
      </trkpt>
      <trkpt lat="48.35967" lon="-4.25985">
        <ele>5.8</ele>
        <time>2020-06-08T15:29:57Z</time>
      </trkpt>
      <trkpt lat="48.35972" lon="-4.25986">
        <ele>5.7</ele>
        <time>2020-06-08T15:29:58Z</time>
      </trkpt>
      <trkpt lat="48.35977" lon="-4.25984">
        <ele>5.7</ele>
        <time>2020-06-08T15:29:59Z</time>
      </trkpt>
      <trkpt lat="48.35982" lon="-4.25983">
        <ele>5.7</ele>
        <time>2020-06-08T15:30:00Z</time>
      </trkpt>
      <trkpt lat="48.35986" lon="-4.25981">
        <ele>5.7</ele>
        <time>2020-06-08T15:30:01Z</time>
      </trkpt>
      <trkpt lat="48.35991" lon="-4.2598">
        <ele>5.7</ele>
        <time>2020-06-08T15:30:02Z</time>
      </trkpt>
      <trkpt lat="48.35995" lon="-4.25979">
        <ele>5.7</ele>
        <time>2020-06-08T15:30:03Z</time>
      </trkpt>
      <trkpt lat="48.35999" lon="-4.25978">
        <ele>5.7</ele>
        <time>2020-06-08T15:30:04Z</time>
      </trkpt>
      <trkpt lat="48.36003" lon="-4.25978">
        <ele>5.7</ele>
        <time>2020-06-08T15:30:05Z</time>
      </trkpt>
      <trkpt lat="48.36006" lon="-4.25978">
        <ele>5.7</ele>
        <time>2020-06-08T15:30:06Z</time>
      </trkpt>
      <trkpt lat="48.36009" lon="-4.25977">
        <ele>5.7</ele>
        <time>2020-06-08T15:30:07Z</time>
      </trkpt>
      <trkpt lat="48.36013" lon="-4.25976">
        <ele>5.7</ele>
        <time>2020-06-08T15:30:08Z</time>
      </trkpt>
      <trkpt lat="48.36015" lon="-4.25978">
        <ele>5.7</ele>
        <time>2020-06-08T15:30:09Z</time>
      </trkpt>
      <trkpt lat="48.36019" lon="-4.25977">
        <ele>5.7</ele>
        <time>2020-06-08T15:30:10Z</time>
      </trkpt>
      <trkpt lat="48.36024" lon="-4.25976">
        <ele>5.7</ele>
        <time>2020-06-08T15:30:11Z</time>
      </trkpt>
      <trkpt lat="48.36028" lon="-4.25975">
        <ele>5.7</ele>
        <time>2020-06-08T15:30:12Z</time>
      </trkpt>
      <trkpt lat="48.36032" lon="-4.25976">
        <ele>5.7</ele>
        <time>2020-06-08T15:30:13Z</time>
      </trkpt>
      <trkpt lat="48.36035" lon="-4.25976">
        <ele>5.8</ele>
        <time>2020-06-08T15:30:14Z</time>
      </trkpt>
      <trkpt lat="48.36039" lon="-4.25977">
        <ele>5.8</ele>
        <time>2020-06-08T15:30:15Z</time>
      </trkpt>
      <trkpt lat="48.36042" lon="-4.25977">
        <ele>5.8</ele>
        <time>2020-06-08T15:30:16Z</time>
      </trkpt>
      <trkpt lat="48.36047" lon="-4.25978">
        <ele>5.8</ele>
        <time>2020-06-08T15:30:17Z</time>
      </trkpt>
      <trkpt lat="48.36051" lon="-4.25977">
        <ele>5.9</ele>
        <time>2020-06-08T15:30:18Z</time>
      </trkpt>
      <trkpt lat="48.36056" lon="-4.25977">
        <ele>5.9</ele>
        <time>2020-06-08T15:30:19Z</time>
      </trkpt>
      <trkpt lat="48.36061" lon="-4.25975">
        <ele>5.9</ele>
        <time>2020-06-08T15:30:20Z</time>
      </trkpt>
      <trkpt lat="48.36066" lon="-4.25975">
        <ele>5.9</ele>
        <time>2020-06-08T15:30:21Z</time>
      </trkpt>
      <trkpt lat="48.3607" lon="-4.25974">
        <ele>6</ele>
        <time>2020-06-08T15:30:22Z</time>
      </trkpt>
      <trkpt lat="48.36074" lon="-4.25974">
        <ele>6</ele>
        <time>2020-06-08T15:30:23Z</time>
      </trkpt>
      <trkpt lat="48.36079" lon="-4.25974">
        <ele>6.1</ele>
        <time>2020-06-08T15:30:24Z</time>
      </trkpt>
      <trkpt lat="48.36083" lon="-4.25973">
        <ele>6.1</ele>
        <time>2020-06-08T15:30:25Z</time>
      </trkpt>
      <trkpt lat="48.36087" lon="-4.2597">
        <ele>6.2</ele>
        <time>2020-06-08T15:30:26Z</time>
      </trkpt>
      <trkpt lat="48.36091" lon="-4.25968">
        <ele>6.3</ele>
        <time>2020-06-08T15:30:27Z</time>
      </trkpt>
      <trkpt lat="48.36095" lon="-4.25967">
        <ele>6.3</ele>
        <time>2020-06-08T15:30:28Z</time>
      </trkpt>
      <trkpt lat="48.36099" lon="-4.25967">
        <ele>6.4</ele>
        <time>2020-06-08T15:30:29Z</time>
      </trkpt>
      <trkpt lat="48.36103" lon="-4.25967">
        <ele>6.5</ele>
        <time>2020-06-08T15:30:30Z</time>
      </trkpt>
      <trkpt lat="48.36107" lon="-4.25967">
        <ele>6.5</ele>
        <time>2020-06-08T15:30:31Z</time>
      </trkpt>
      <trkpt lat="48.36111" lon="-4.25968">
        <ele>6.6</ele>
        <time>2020-06-08T15:30:32Z</time>
      </trkpt>
      <trkpt lat="48.36115" lon="-4.25968">
        <ele>6.7</ele>
        <time>2020-06-08T15:30:33Z</time>
      </trkpt>
      <trkpt lat="48.36119" lon="-4.25968">
        <ele>6.8</ele>
        <time>2020-06-08T15:30:34Z</time>
      </trkpt>
      <trkpt lat="48.36122" lon="-4.25968">
        <ele>6.8</ele>
        <time>2020-06-08T15:30:35Z</time>
      </trkpt>
      <trkpt lat="48.36125" lon="-4.25968">
        <ele>6.9</ele>
        <time>2020-06-08T15:30:36Z</time>
      </trkpt>
      <trkpt lat="48.36129" lon="-4.25965">
        <ele>7</ele>
        <time>2020-06-08T15:30:37Z</time>
      </trkpt>
      <trkpt lat="48.3613" lon="-4.25962">
        <ele>7</ele>
        <time>2020-06-08T15:30:38Z</time>
      </trkpt>
      <trkpt lat="48.36133" lon="-4.25962">
        <ele>7.1</ele>
        <time>2020-06-08T15:30:39Z</time>
      </trkpt>
      <trkpt lat="48.36138" lon="-4.25961">
        <ele>7.1</ele>
        <time>2020-06-08T15:30:40Z</time>
      </trkpt>
      <trkpt lat="48.36139" lon="-4.25966">
        <ele>7.2</ele>
        <time>2020-06-08T15:30:41Z</time>
      </trkpt>
      <trkpt lat="48.3614" lon="-4.25971">
        <ele>7.2</ele>
        <time>2020-06-08T15:30:42Z</time>
      </trkpt>
      <trkpt lat="48.36142" lon="-4.25975">
        <ele>7.4</ele>
        <time>2020-06-08T15:30:43Z</time>
      </trkpt>
      <trkpt lat="48.36143" lon="-4.25979">
        <ele>7.3</ele>
        <time>2020-06-08T15:30:44Z</time>
      </trkpt>
      <trkpt lat="48.36143" lon="-4.25984">
        <ele>7.2</ele>
        <time>2020-06-08T15:30:45Z</time>
      </trkpt>
      <trkpt lat="48.36145" lon="-4.2599">
        <ele>7.1</ele>
        <time>2020-06-08T15:30:46Z</time>
      </trkpt>
      <trkpt lat="48.36147" lon="-4.25995">
        <ele>7</ele>
        <time>2020-06-08T15:30:47Z</time>
      </trkpt>
      <trkpt lat="48.3615" lon="-4.26">
        <ele>6.8</ele>
        <time>2020-06-08T15:30:48Z</time>
      </trkpt>
      <trkpt lat="48.3615" lon="-4.26007">
        <ele>6.8</ele>
        <time>2020-06-08T15:30:49Z</time>
      </trkpt>
      <trkpt lat="48.36152" lon="-4.26013">
        <ele>6.7</ele>
        <time>2020-06-08T15:30:50Z</time>
      </trkpt>
      <trkpt lat="48.36153" lon="-4.2602">
        <ele>6.4</ele>
        <time>2020-06-08T15:30:51Z</time>
      </trkpt>
      <trkpt lat="48.36154" lon="-4.26026">
        <ele>6.2</ele>
        <time>2020-06-08T15:30:52Z</time>
      </trkpt>
      <trkpt lat="48.36155" lon="-4.26032">
        <ele>6.1</ele>
        <time>2020-06-08T15:30:53Z</time>
      </trkpt>
      <trkpt lat="48.36156" lon="-4.26038">
        <ele>6</ele>
        <time>2020-06-08T15:30:54Z</time>
      </trkpt>
      <trkpt lat="48.36158" lon="-4.26043">
        <ele>5.9</ele>
        <time>2020-06-08T15:30:55Z</time>
      </trkpt>
      <trkpt lat="48.3616" lon="-4.26049">
        <ele>5.8</ele>
        <time>2020-06-08T15:30:56Z</time>
      </trkpt>
      <trkpt lat="48.3616" lon="-4.26055">
        <ele>5.7</ele>
        <time>2020-06-08T15:30:57Z</time>
      </trkpt>
      <trkpt lat="48.36162" lon="-4.26061">
        <ele>5.7</ele>
        <time>2020-06-08T15:30:58Z</time>
      </trkpt>
      <trkpt lat="48.36163" lon="-4.26068">
        <ele>5.7</ele>
        <time>2020-06-08T15:30:59Z</time>
      </trkpt>
      <trkpt lat="48.36164" lon="-4.26075">
        <ele>5.7</ele>
        <time>2020-06-08T15:31:00Z</time>
      </trkpt>
      <trkpt lat="48.36164" lon="-4.26082">
        <ele>5.7</ele>
        <time>2020-06-08T15:31:01Z</time>
      </trkpt>
      <trkpt lat="48.36165" lon="-4.26089">
        <ele>5.7</ele>
        <time>2020-06-08T15:31:02Z</time>
      </trkpt>
      <trkpt lat="48.36164" lon="-4.26097">
        <ele>5.7</ele>
        <time>2020-06-08T15:31:03Z</time>
      </trkpt>
      <trkpt lat="48.36164" lon="-4.26104">
        <ele>5.8</ele>
        <time>2020-06-08T15:31:04Z</time>
      </trkpt>
      <trkpt lat="48.36163" lon="-4.26111">
        <ele>5.9</ele>
        <time>2020-06-08T15:31:05Z</time>
      </trkpt>
      <trkpt lat="48.36161" lon="-4.26116">
        <ele>6</ele>
        <time>2020-06-08T15:31:06Z</time>
      </trkpt>
      <trkpt lat="48.36161" lon="-4.26122">
        <ele>6.1</ele>
        <time>2020-06-08T15:31:07Z</time>
      </trkpt>
      <trkpt lat="48.3616" lon="-4.26128">
        <ele>6.1</ele>
        <time>2020-06-08T15:31:08Z</time>
      </trkpt>
      <trkpt lat="48.36159" lon="-4.26132">
        <ele>6.3</ele>
        <time>2020-06-08T15:31:09Z</time>
      </trkpt>
      <trkpt lat="48.36158" lon="-4.26137">
        <ele>6.2</ele>
        <time>2020-06-08T15:31:10Z</time>
      </trkpt>
      <trkpt lat="48.36156" lon="-4.26143">
        <ele>6.2</ele>
        <time>2020-06-08T15:31:11Z</time>
      </trkpt>
      <trkpt lat="48.36154" lon="-4.26148">
        <ele>6.1</ele>
        <time>2020-06-08T15:31:12Z</time>
      </trkpt>
      <trkpt lat="48.36152" lon="-4.26154">
        <ele>6</ele>
        <time>2020-06-08T15:31:13Z</time>
      </trkpt>
      <trkpt lat="48.36151" lon="-4.2616">
        <ele>5.9</ele>
        <time>2020-06-08T15:31:14Z</time>
      </trkpt>
      <trkpt lat="48.36149" lon="-4.26166">
        <ele>5.9</ele>
        <time>2020-06-08T15:31:15Z</time>
      </trkpt>
      <trkpt lat="48.36148" lon="-4.26172">
        <ele>5.9</ele>
        <time>2020-06-08T15:31:16Z</time>
      </trkpt>
      <trkpt lat="48.36147" lon="-4.26178">
        <ele>5.8</ele>
        <time>2020-06-08T15:31:17Z</time>
      </trkpt>
      <trkpt lat="48.36145" lon="-4.26185">
        <ele>5.9</ele>
        <time>2020-06-08T15:31:18Z</time>
      </trkpt>
      <trkpt lat="48.36145" lon="-4.26192">
        <ele>5.9</ele>
        <time>2020-06-08T15:31:19Z</time>
      </trkpt>
      <trkpt lat="48.36143" lon="-4.26198">
        <ele>5.9</ele>
        <time>2020-06-08T15:31:20Z</time>
      </trkpt>
      <trkpt lat="48.36143" lon="-4.26204">
        <ele>6</ele>
        <time>2020-06-08T15:31:21Z</time>
      </trkpt>
      <trkpt lat="48.36141" lon="-4.2621">
        <ele>6.1</ele>
        <time>2020-06-08T15:31:22Z</time>
      </trkpt>
      <trkpt lat="48.3614" lon="-4.26216">
        <ele>6.1</ele>
        <time>2020-06-08T15:31:23Z</time>
      </trkpt>
      <trkpt lat="48.36139" lon="-4.26221">
        <ele>6.2</ele>
        <time>2020-06-08T15:31:24Z</time>
      </trkpt>
      <trkpt lat="48.36137" lon="-4.26227">
        <ele>6.3</ele>
        <time>2020-06-08T15:31:25Z</time>
      </trkpt>
      <trkpt lat="48.36136" lon="-4.26232">
        <ele>6.3</ele>
        <time>2020-06-08T15:31:26Z</time>
      </trkpt>
      <trkpt lat="48.36135" lon="-4.26236">
        <ele>6.4</ele>
        <time>2020-06-08T15:31:27Z</time>
      </trkpt>
      <trkpt lat="48.36134" lon="-4.26241">
        <ele>6.5</ele>
        <time>2020-06-08T15:31:28Z</time>
      </trkpt>
      <trkpt lat="48.36133" lon="-4.26247">
        <ele>6.6</ele>
        <time>2020-06-08T15:31:29Z</time>
      </trkpt>
      <trkpt lat="48.36131" lon="-4.26251">
        <ele>6.7</ele>
        <time>2020-06-08T15:31:30Z</time>
      </trkpt>
      <trkpt lat="48.3613" lon="-4.26256">
        <ele>6.8</ele>
        <time>2020-06-08T15:31:31Z</time>
      </trkpt>
      <trkpt lat="48.36129" lon="-4.26261">
        <ele>6.9</ele>
        <time>2020-06-08T15:31:32Z</time>
      </trkpt>
      <trkpt lat="48.36127" lon="-4.26265">
        <ele>7</ele>
        <time>2020-06-08T15:31:33Z</time>
      </trkpt>
      <trkpt lat="48.36126" lon="-4.26271">
        <ele>7.1</ele>
        <time>2020-06-08T15:31:34Z</time>
      </trkpt>
      <trkpt lat="48.36125" lon="-4.26277">
        <ele>7.2</ele>
        <time>2020-06-08T15:31:35Z</time>
      </trkpt>
      <trkpt lat="48.36123" lon="-4.26282">
        <ele>7.3</ele>
        <time>2020-06-08T15:31:36Z</time>
      </trkpt>
      <trkpt lat="48.36122" lon="-4.26288">
        <ele>7.4</ele>
        <time>2020-06-08T15:31:37Z</time>
      </trkpt>
      <trkpt lat="48.36121" lon="-4.26293">
        <ele>7.5</ele>
        <time>2020-06-08T15:31:38Z</time>
      </trkpt>
      <trkpt lat="48.36119" lon="-4.26299">
        <ele>7.6</ele>
        <time>2020-06-08T15:31:39Z</time>
      </trkpt>
      <trkpt lat="48.36119" lon="-4.26306">
        <ele>7.7</ele>
        <time>2020-06-08T15:31:40Z</time>
      </trkpt>
      <trkpt lat="48.36116" lon="-4.26311">
        <ele>7.8</ele>
        <time>2020-06-08T15:31:41Z</time>
      </trkpt>
      <trkpt lat="48.36114" lon="-4.26316">
        <ele>7.8</ele>
        <time>2020-06-08T15:31:42Z</time>
      </trkpt>
      <trkpt lat="48.36112" lon="-4.2632">
        <ele>7.8</ele>
        <time>2020-06-08T15:31:43Z</time>
      </trkpt>
      <trkpt lat="48.3611" lon="-4.26324">
        <ele>7.8</ele>
        <time>2020-06-08T15:31:44Z</time>
      </trkpt>
      <trkpt lat="48.36108" lon="-4.26329">
        <ele>8</ele>
        <time>2020-06-08T15:31:45Z</time>
      </trkpt>
      <trkpt lat="48.36106" lon="-4.26333">
        <ele>8.3</ele>
        <time>2020-06-08T15:31:46Z</time>
      </trkpt>
      <trkpt lat="48.36103" lon="-4.26337">
        <ele>8.5</ele>
        <time>2020-06-08T15:31:47Z</time>
      </trkpt>
      <trkpt lat="48.36101" lon="-4.26342">
        <ele>8.8</ele>
        <time>2020-06-08T15:31:48Z</time>
      </trkpt>
      <trkpt lat="48.36097" lon="-4.26345">
        <ele>9.1</ele>
        <time>2020-06-08T15:31:49Z</time>
      </trkpt>
      <trkpt lat="48.36094" lon="-4.2635">
        <ele>9.4</ele>
        <time>2020-06-08T15:31:50Z</time>
      </trkpt>
      <trkpt lat="48.36092" lon="-4.26355">
        <ele>9.7</ele>
        <time>2020-06-08T15:31:51Z</time>
      </trkpt>
      <trkpt lat="48.36092" lon="-4.26361">
        <ele>9.9</ele>
        <time>2020-06-08T15:31:52Z</time>
      </trkpt>
      <trkpt lat="48.3609" lon="-4.26365">
        <ele>10.2</ele>
        <time>2020-06-08T15:31:53Z</time>
      </trkpt>
      <trkpt lat="48.36089" lon="-4.2637">
        <ele>10.6</ele>
        <time>2020-06-08T15:31:54Z</time>
      </trkpt>
      <trkpt lat="48.36087" lon="-4.26375">
        <ele>10.4</ele>
        <time>2020-06-08T15:31:55Z</time>
      </trkpt>
      <trkpt lat="48.36086" lon="-4.2638">
        <ele>10.3</ele>
        <time>2020-06-08T15:31:56Z</time>
      </trkpt>
      <trkpt lat="48.36085" lon="-4.26384">
        <ele>10.3</ele>
        <time>2020-06-08T15:31:57Z</time>
      </trkpt>
      <trkpt lat="48.36084" lon="-4.26388">
        <ele>10.4</ele>
        <time>2020-06-08T15:31:58Z</time>
      </trkpt>
      <trkpt lat="48.36083" lon="-4.26392">
        <ele>10.5</ele>
        <time>2020-06-08T15:31:59Z</time>
      </trkpt>
      <trkpt lat="48.36081" lon="-4.26396">
        <ele>10.6</ele>
        <time>2020-06-08T15:32:00Z</time>
      </trkpt>
      <trkpt lat="48.36079" lon="-4.26399">
        <ele>10.7</ele>
        <time>2020-06-08T15:32:01Z</time>
      </trkpt>
      <trkpt lat="48.36077" lon="-4.26405">
        <ele>10.9</ele>
        <time>2020-06-08T15:32:02Z</time>
      </trkpt>
      <trkpt lat="48.36076" lon="-4.26406">
        <ele>10.9</ele>
        <time>2020-06-08T15:32:03Z</time>
      </trkpt>
      <trkpt lat="48.36075" lon="-4.26411">
        <ele>11.1</ele>
        <time>2020-06-08T15:32:04Z</time>
      </trkpt>
      <trkpt lat="48.36073" lon="-4.26415">
        <ele>11.2</ele>
        <time>2020-06-08T15:32:05Z</time>
      </trkpt>
      <trkpt lat="48.36073" lon="-4.2642">
        <ele>11.3</ele>
        <time>2020-06-08T15:32:06Z</time>
      </trkpt>
      <trkpt lat="48.36072" lon="-4.26425">
        <ele>11.5</ele>
        <time>2020-06-08T15:32:07Z</time>
      </trkpt>
      <trkpt lat="48.36072" lon="-4.26427">
        <ele>11.5</ele>
        <time>2020-06-08T15:32:08Z</time>
      </trkpt>
      <trkpt lat="48.36071" lon="-4.26433">
        <ele>11.7</ele>
        <time>2020-06-08T15:32:09Z</time>
      </trkpt>
      <trkpt lat="48.36071" lon="-4.26435">
        <ele>11.7</ele>
        <time>2020-06-08T15:32:10Z</time>
      </trkpt>
      <trkpt lat="48.3607" lon="-4.26439">
        <ele>11.8</ele>
        <time>2020-06-08T15:32:11Z</time>
      </trkpt>
      <trkpt lat="48.36068" lon="-4.26444">
        <ele>12</ele>
        <time>2020-06-08T15:32:12Z</time>
      </trkpt>
      <trkpt lat="48.36068" lon="-4.26448">
        <ele>12.1</ele>
        <time>2020-06-08T15:32:13Z</time>
      </trkpt>
      <trkpt lat="48.36066" lon="-4.26454">
        <ele>12.3</ele>
        <time>2020-06-08T15:32:14Z</time>
      </trkpt>
      <trkpt lat="48.36065" lon="-4.26455">
        <ele>12.3</ele>
        <time>2020-06-08T15:32:15Z</time>
      </trkpt>
      <trkpt lat="48.36063" lon="-4.26458">
        <ele>12.4</ele>
        <time>2020-06-08T15:32:16Z</time>
      </trkpt>
      <trkpt lat="48.36061" lon="-4.26462">
        <ele>12.6</ele>
        <time>2020-06-08T15:32:17Z</time>
      </trkpt>
      <trkpt lat="48.3606" lon="-4.26466">
        <ele>12.7</ele>
        <time>2020-06-08T15:32:18Z</time>
      </trkpt>
      <trkpt lat="48.3606" lon="-4.2647">
        <ele>12.8</ele>
        <time>2020-06-08T15:32:19Z</time>
      </trkpt>
      <trkpt lat="48.36059" lon="-4.26475">
        <ele>12.9</ele>
        <time>2020-06-08T15:32:20Z</time>
      </trkpt>
      <trkpt lat="48.36059" lon="-4.2648">
        <ele>13.1</ele>
        <time>2020-06-08T15:32:21Z</time>
      </trkpt>
      <trkpt lat="48.36057" lon="-4.26483">
        <ele>13.2</ele>
        <time>2020-06-08T15:32:22Z</time>
      </trkpt>
      <trkpt lat="48.36055" lon="-4.26488">
        <ele>13.3</ele>
        <time>2020-06-08T15:32:23Z</time>
      </trkpt>
      <trkpt lat="48.36054" lon="-4.26489">
        <ele>13.4</ele>
        <time>2020-06-08T15:32:24Z</time>
      </trkpt>
      <trkpt lat="48.36053" lon="-4.26493">
        <ele>13.5</ele>
        <time>2020-06-08T15:32:25Z</time>
      </trkpt>
      <trkpt lat="48.36052" lon="-4.26498">
        <ele>13.6</ele>
        <time>2020-06-08T15:32:26Z</time>
      </trkpt>
      <trkpt lat="48.36052" lon="-4.26502">
        <ele>13.7</ele>
        <time>2020-06-08T15:32:27Z</time>
      </trkpt>
      <trkpt lat="48.36052" lon="-4.26507">
        <ele>13.8</ele>
        <time>2020-06-08T15:32:28Z</time>
      </trkpt>
      <trkpt lat="48.36052" lon="-4.26513">
        <ele>13.9</ele>
        <time>2020-06-08T15:32:29Z</time>
      </trkpt>
      <trkpt lat="48.36053" lon="-4.26515">
        <ele>13.9</ele>
        <time>2020-06-08T15:32:30Z</time>
      </trkpt>
      <trkpt lat="48.36052" lon="-4.2652">
        <ele>13.9</ele>
        <time>2020-06-08T15:32:31Z</time>
      </trkpt>
      <trkpt lat="48.36053" lon="-4.26524">
        <ele>14</ele>
        <time>2020-06-08T15:32:32Z</time>
      </trkpt>
      <trkpt lat="48.36053" lon="-4.26529">
        <ele>14.1</ele>
        <time>2020-06-08T15:32:33Z</time>
      </trkpt>
      <trkpt lat="48.36053" lon="-4.26534">
        <ele>14.1</ele>
        <time>2020-06-08T15:32:34Z</time>
      </trkpt>
      <trkpt lat="48.36053" lon="-4.26539">
        <ele>14.2</ele>
        <time>2020-06-08T15:32:35Z</time>
      </trkpt>
      <trkpt lat="48.36055" lon="-4.26543">
        <ele>14.2</ele>
        <time>2020-06-08T15:32:36Z</time>
      </trkpt>
      <trkpt lat="48.36055" lon="-4.26545">
        <ele>14.2</ele>
        <time>2020-06-08T15:32:37Z</time>
      </trkpt>
      <trkpt lat="48.36056" lon="-4.26549">
        <ele>14.2</ele>
        <time>2020-06-08T15:32:38Z</time>
      </trkpt>
      <trkpt lat="48.36058" lon="-4.26552">
        <ele>14.3</ele>
        <time>2020-06-08T15:32:39Z</time>
      </trkpt>
      <trkpt lat="48.3606" lon="-4.26556">
        <ele>14.3</ele>
        <time>2020-06-08T15:32:40Z</time>
      </trkpt>
      <trkpt lat="48.36062" lon="-4.26561">
        <ele>14.4</ele>
        <time>2020-06-08T15:32:41Z</time>
      </trkpt>
      <trkpt lat="48.36064" lon="-4.26565">
        <ele>14.4</ele>
        <time>2020-06-08T15:32:42Z</time>
      </trkpt>
      <trkpt lat="48.36067" lon="-4.26568">
        <ele>14.5</ele>
        <time>2020-06-08T15:32:43Z</time>
      </trkpt>
      <trkpt lat="48.3607" lon="-4.26573">
        <ele>14.6</ele>
        <time>2020-06-08T15:32:44Z</time>
      </trkpt>
      <trkpt lat="48.36072" lon="-4.26576">
        <ele>14.7</ele>
        <time>2020-06-08T15:32:45Z</time>
      </trkpt>
      <trkpt lat="48.36076" lon="-4.26578">
        <ele>14.8</ele>
        <time>2020-06-08T15:32:46Z</time>
      </trkpt>
      <trkpt lat="48.36079" lon="-4.2658">
        <ele>14.8</ele>
        <time>2020-06-08T15:32:47Z</time>
      </trkpt>
      <trkpt lat="48.36082" lon="-4.26582">
        <ele>14.9</ele>
        <time>2020-06-08T15:32:48Z</time>
      </trkpt>
      <trkpt lat="48.36085" lon="-4.26586">
        <ele>15</ele>
        <time>2020-06-08T15:32:49Z</time>
      </trkpt>
      <trkpt lat="48.36087" lon="-4.26589">
        <ele>15.1</ele>
        <time>2020-06-08T15:32:50Z</time>
      </trkpt>
      <trkpt lat="48.36089" lon="-4.26592">
        <ele>15.1</ele>
        <time>2020-06-08T15:32:51Z</time>
      </trkpt>
      <trkpt lat="48.36092" lon="-4.26594">
        <ele>15.2</ele>
        <time>2020-06-08T15:32:52Z</time>
      </trkpt>
      <trkpt lat="48.36095" lon="-4.26597">
        <ele>15.3</ele>
        <time>2020-06-08T15:32:53Z</time>
      </trkpt>
      <trkpt lat="48.36097" lon="-4.266">
        <ele>15.5</ele>
        <time>2020-06-08T15:32:54Z</time>
      </trkpt>
      <trkpt lat="48.36101" lon="-4.26602">
        <ele>15.6</ele>
        <time>2020-06-08T15:32:55Z</time>
      </trkpt>
      <trkpt lat="48.36103" lon="-4.26604">
        <ele>15.7</ele>
        <time>2020-06-08T15:32:56Z</time>
      </trkpt>
      <trkpt lat="48.36106" lon="-4.26606">
        <ele>15.8</ele>
        <time>2020-06-08T15:32:57Z</time>
      </trkpt>
      <trkpt lat="48.36109" lon="-4.26609">
        <ele>16</ele>
        <time>2020-06-08T15:32:58Z</time>
      </trkpt>
      <trkpt lat="48.36111" lon="-4.26611">
        <ele>16.1</ele>
        <time>2020-06-08T15:32:59Z</time>
      </trkpt>
      <trkpt lat="48.36115" lon="-4.26614">
        <ele>16.3</ele>
        <time>2020-06-08T15:33:00Z</time>
      </trkpt>
      <trkpt lat="48.36116" lon="-4.26615">
        <ele>16.3</ele>
        <time>2020-06-08T15:33:01Z</time>
      </trkpt>
      <trkpt lat="48.36119" lon="-4.26617">
        <ele>16.5</ele>
        <time>2020-06-08T15:33:02Z</time>
      </trkpt>
      <trkpt lat="48.36121" lon="-4.26621">
        <ele>16.6</ele>
        <time>2020-06-08T15:33:03Z</time>
      </trkpt>
      <trkpt lat="48.36123" lon="-4.26624">
        <ele>16.7</ele>
        <time>2020-06-08T15:33:04Z</time>
      </trkpt>
      <trkpt lat="48.36126" lon="-4.26626">
        <ele>16.8</ele>
        <time>2020-06-08T15:33:05Z</time>
      </trkpt>
      <trkpt lat="48.36128" lon="-4.26629">
        <ele>17</ele>
        <time>2020-06-08T15:33:06Z</time>
      </trkpt>
      <trkpt lat="48.3613" lon="-4.26632">
        <ele>17.1</ele>
        <time>2020-06-08T15:33:07Z</time>
      </trkpt>
      <trkpt lat="48.36132" lon="-4.26635">
        <ele>17.2</ele>
        <time>2020-06-08T15:33:08Z</time>
      </trkpt>
      <trkpt lat="48.36135" lon="-4.26638">
        <ele>17.4</ele>
        <time>2020-06-08T15:33:09Z</time>
      </trkpt>
      <trkpt lat="48.36137" lon="-4.26641">
        <ele>17.6</ele>
        <time>2020-06-08T15:33:10Z</time>
      </trkpt>
      <trkpt lat="48.36139" lon="-4.26645">
        <ele>17.6</ele>
        <time>2020-06-08T15:33:11Z</time>
      </trkpt>
      <trkpt lat="48.36141" lon="-4.26648">
        <ele>17.7</ele>
        <time>2020-06-08T15:33:12Z</time>
      </trkpt>
      <trkpt lat="48.36142" lon="-4.26652">
        <ele>17.8</ele>
        <time>2020-06-08T15:33:13Z</time>
      </trkpt>
      <trkpt lat="48.36143" lon="-4.26657">
        <ele>17.9</ele>
        <time>2020-06-08T15:33:14Z</time>
      </trkpt>
      <trkpt lat="48.36145" lon="-4.2666">
        <ele>18</ele>
        <time>2020-06-08T15:33:15Z</time>
      </trkpt>
      <trkpt lat="48.36147" lon="-4.26665">
        <ele>18.1</ele>
        <time>2020-06-08T15:33:16Z</time>
      </trkpt>
      <trkpt lat="48.36147" lon="-4.26667">
        <ele>18.1</ele>
        <time>2020-06-08T15:33:17Z</time>
      </trkpt>
      <trkpt lat="48.36148" lon="-4.26673">
        <ele>18.2</ele>
        <time>2020-06-08T15:33:18Z</time>
      </trkpt>
      <trkpt lat="48.36148" lon="-4.26675">
        <ele>18.2</ele>
        <time>2020-06-08T15:33:19Z</time>
      </trkpt>
      <trkpt lat="48.36149" lon="-4.26681">
        <ele>18.3</ele>
        <time>2020-06-08T15:33:20Z</time>
      </trkpt>
      <trkpt lat="48.36148" lon="-4.26683">
        <ele>18.5</ele>
        <time>2020-06-08T15:33:21Z</time>
      </trkpt>
      <trkpt lat="48.36149" lon="-4.26689">
        <ele>18.6</ele>
        <time>2020-06-08T15:33:22Z</time>
      </trkpt>
      <trkpt lat="48.36149" lon="-4.2669">
        <ele>18.6</ele>
        <time>2020-06-08T15:33:23Z</time>
      </trkpt>
      <trkpt lat="48.36149" lon="-4.26695">
        <ele>18.7</ele>
        <time>2020-06-08T15:33:24Z</time>
      </trkpt>
      <trkpt lat="48.36149" lon="-4.26697">
        <ele>18.8</ele>
        <time>2020-06-08T15:33:25Z</time>
      </trkpt>
      <trkpt lat="48.36149" lon="-4.26703">
        <ele>18.9</ele>
        <time>2020-06-08T15:33:26Z</time>
      </trkpt>
      <trkpt lat="48.36149" lon="-4.26704">
        <ele>18.9</ele>
        <time>2020-06-08T15:33:27Z</time>
      </trkpt>
      <trkpt lat="48.36149" lon="-4.26709">
        <ele>19</ele>
        <time>2020-06-08T15:33:28Z</time>
      </trkpt>
      <trkpt lat="48.36149" lon="-4.26711">
        <ele>19.1</ele>
        <time>2020-06-08T15:33:29Z</time>
      </trkpt>
      <trkpt lat="48.36149" lon="-4.26715">
        <ele>19.2</ele>
        <time>2020-06-08T15:33:30Z</time>
      </trkpt>
      <trkpt lat="48.36149" lon="-4.26717">
        <ele>19.2</ele>
        <time>2020-06-08T15:33:31Z</time>
      </trkpt>
      <trkpt lat="48.3615" lon="-4.26722">
        <ele>19.3</ele>
        <time>2020-06-08T15:33:32Z</time>
      </trkpt>
      <trkpt lat="48.36149" lon="-4.26724">
        <ele>19.4</ele>
        <time>2020-06-08T15:33:33Z</time>
      </trkpt>
      <trkpt lat="48.3615" lon="-4.26728">
        <ele>19.5</ele>
        <time>2020-06-08T15:33:34Z</time>
      </trkpt>
      <trkpt lat="48.36149" lon="-4.26732">
        <ele>19.6</ele>
        <time>2020-06-08T15:33:35Z</time>
      </trkpt>
      <trkpt lat="48.36149" lon="-4.26738">
        <ele>19.7</ele>
        <time>2020-06-08T15:33:36Z</time>
      </trkpt>
      <trkpt lat="48.36149" lon="-4.2674">
        <ele>19.7</ele>
        <time>2020-06-08T15:33:37Z</time>
      </trkpt>
      <trkpt lat="48.36149" lon="-4.26745">
        <ele>19.9</ele>
        <time>2020-06-08T15:33:38Z</time>
      </trkpt>
      <trkpt lat="48.36149" lon="-4.26747">
        <ele>19.9</ele>
        <time>2020-06-08T15:33:39Z</time>
      </trkpt>
      <trkpt lat="48.36149" lon="-4.26753">
        <ele>20</ele>
        <time>2020-06-08T15:33:40Z</time>
      </trkpt>
      <trkpt lat="48.36149" lon="-4.26755">
        <ele>20</ele>
        <time>2020-06-08T15:33:41Z</time>
      </trkpt>
      <trkpt lat="48.36148" lon="-4.26761">
        <ele>20.2</ele>
        <time>2020-06-08T15:33:42Z</time>
      </trkpt>
      <trkpt lat="48.36149" lon="-4.26763">
        <ele>20.2</ele>
        <time>2020-06-08T15:33:43Z</time>
      </trkpt>
      <trkpt lat="48.36148" lon="-4.26768">
        <ele>20.3</ele>
        <time>2020-06-08T15:33:44Z</time>
      </trkpt>
      <trkpt lat="48.36148" lon="-4.2677">
        <ele>20.3</ele>
        <time>2020-06-08T15:33:45Z</time>
      </trkpt>
      <trkpt lat="48.36148" lon="-4.26774">
        <ele>20.4</ele>
        <time>2020-06-08T15:33:46Z</time>
      </trkpt>
      <trkpt lat="48.36147" lon="-4.26779">
        <ele>20.4</ele>
        <time>2020-06-08T15:33:47Z</time>
      </trkpt>
      <trkpt lat="48.36147" lon="-4.26784">
        <ele>20.5</ele>
        <time>2020-06-08T15:33:48Z</time>
      </trkpt>
      <trkpt lat="48.36147" lon="-4.26788">
        <ele>20.5</ele>
        <time>2020-06-08T15:33:49Z</time>
      </trkpt>
      <trkpt lat="48.36146" lon="-4.26793">
        <ele>20.6</ele>
        <time>2020-06-08T15:33:50Z</time>
      </trkpt>
      <trkpt lat="48.36146" lon="-4.26797">
        <ele>20.6</ele>
        <time>2020-06-08T15:33:51Z</time>
      </trkpt>
      <trkpt lat="48.36145" lon="-4.26801">
        <ele>20.6</ele>
        <time>2020-06-08T15:33:52Z</time>
      </trkpt>
      <trkpt lat="48.36145" lon="-4.26805">
        <ele>20.6</ele>
        <time>2020-06-08T15:33:53Z</time>
      </trkpt>
      <trkpt lat="48.36144" lon="-4.26809">
        <ele>20.6</ele>
        <time>2020-06-08T15:33:54Z</time>
      </trkpt>
      <trkpt lat="48.36143" lon="-4.26814">
        <ele>20.6</ele>
        <time>2020-06-08T15:33:55Z</time>
      </trkpt>
      <trkpt lat="48.36143" lon="-4.26819">
        <ele>20.6</ele>
        <time>2020-06-08T15:33:56Z</time>
      </trkpt>
      <trkpt lat="48.36144" lon="-4.26824">
        <ele>20.5</ele>
        <time>2020-06-08T15:33:57Z</time>
      </trkpt>
      <trkpt lat="48.36144" lon="-4.26829">
        <ele>20.5</ele>
        <time>2020-06-08T15:33:58Z</time>
      </trkpt>
      <trkpt lat="48.36143" lon="-4.26833">
        <ele>20.4</ele>
        <time>2020-06-08T15:33:59Z</time>
      </trkpt>
      <trkpt lat="48.36143" lon="-4.26838">
        <ele>20.3</ele>
        <time>2020-06-08T15:34:00Z</time>
      </trkpt>
      <trkpt lat="48.36142" lon="-4.26843">
        <ele>20.3</ele>
        <time>2020-06-08T15:34:01Z</time>
      </trkpt>
      <trkpt lat="48.36141" lon="-4.26848">
        <ele>20.2</ele>
        <time>2020-06-08T15:34:02Z</time>
      </trkpt>
      <trkpt lat="48.3614" lon="-4.26854">
        <ele>20.1</ele>
        <time>2020-06-08T15:34:03Z</time>
      </trkpt>
      <trkpt lat="48.36139" lon="-4.26859">
        <ele>20</ele>
        <time>2020-06-08T15:34:04Z</time>
      </trkpt>
      <trkpt lat="48.36138" lon="-4.26865">
        <ele>19.9</ele>
        <time>2020-06-08T15:34:05Z</time>
      </trkpt>
      <trkpt lat="48.36135" lon="-4.2687">
        <ele>19.7</ele>
        <time>2020-06-08T15:34:06Z</time>
      </trkpt>
      <trkpt lat="48.36134" lon="-4.26876">
        <ele>19.6</ele>
        <time>2020-06-08T15:34:07Z</time>
      </trkpt>
      <trkpt lat="48.36133" lon="-4.26883">
        <ele>19.5</ele>
        <time>2020-06-08T15:34:08Z</time>
      </trkpt>
      <trkpt lat="48.36132" lon="-4.2689">
        <ele>19.4</ele>
        <time>2020-06-08T15:34:09Z</time>
      </trkpt>
      <trkpt lat="48.36131" lon="-4.26896">
        <ele>19.3</ele>
        <time>2020-06-08T15:34:10Z</time>
      </trkpt>
      <trkpt lat="48.3613" lon="-4.26903">
        <ele>19.1</ele>
        <time>2020-06-08T15:34:11Z</time>
      </trkpt>
      <trkpt lat="48.36128" lon="-4.2691">
        <ele>19</ele>
        <time>2020-06-08T15:34:12Z</time>
      </trkpt>
      <trkpt lat="48.36128" lon="-4.26917">
        <ele>18.8</ele>
        <time>2020-06-08T15:34:13Z</time>
      </trkpt>
      <trkpt lat="48.36127" lon="-4.26924">
        <ele>18.7</ele>
        <time>2020-06-08T15:34:14Z</time>
      </trkpt>
      <trkpt lat="48.36126" lon="-4.26931">
        <ele>18.5</ele>
        <time>2020-06-08T15:34:15Z</time>
      </trkpt>
      <trkpt lat="48.36124" lon="-4.26937">
        <ele>18.4</ele>
        <time>2020-06-08T15:34:16Z</time>
      </trkpt>
      <trkpt lat="48.36123" lon="-4.26944">
        <ele>18.2</ele>
        <time>2020-06-08T15:34:17Z</time>
      </trkpt>
      <trkpt lat="48.36122" lon="-4.26951">
        <ele>18</ele>
        <time>2020-06-08T15:34:18Z</time>
      </trkpt>
      <trkpt lat="48.36121" lon="-4.26958">
        <ele>17.8</ele>
        <time>2020-06-08T15:34:19Z</time>
      </trkpt>
      <trkpt lat="48.36119" lon="-4.26966">
        <ele>17.6</ele>
        <time>2020-06-08T15:34:20Z</time>
      </trkpt>
      <trkpt lat="48.36117" lon="-4.26974">
        <ele>17.4</ele>
        <time>2020-06-08T15:34:21Z</time>
      </trkpt>
      <trkpt lat="48.36115" lon="-4.26982">
        <ele>17.2</ele>
        <time>2020-06-08T15:34:22Z</time>
      </trkpt>
      <trkpt lat="48.36114" lon="-4.2699">
        <ele>16.9</ele>
        <time>2020-06-08T15:34:23Z</time>
      </trkpt>
      <trkpt lat="48.36112" lon="-4.26999">
        <ele>16.7</ele>
        <time>2020-06-08T15:34:24Z</time>
      </trkpt>
      <trkpt lat="48.3611" lon="-4.27008">
        <ele>16.5</ele>
        <time>2020-06-08T15:34:25Z</time>
      </trkpt>
      <trkpt lat="48.3611" lon="-4.27018">
        <ele>16.3</ele>
        <time>2020-06-08T15:34:26Z</time>
      </trkpt>
      <trkpt lat="48.36109" lon="-4.27027">
        <ele>16.1</ele>
        <time>2020-06-08T15:34:27Z</time>
      </trkpt>
      <trkpt lat="48.36109" lon="-4.27037">
        <ele>15.9</ele>
        <time>2020-06-08T15:34:28Z</time>
      </trkpt>
      <trkpt lat="48.36109" lon="-4.27048">
        <ele>15.8</ele>
        <time>2020-06-08T15:34:29Z</time>
      </trkpt>
      <trkpt lat="48.36109" lon="-4.27059">
        <ele>15.8</ele>
        <time>2020-06-08T15:34:30Z</time>
      </trkpt>
      <trkpt lat="48.36109" lon="-4.2707">
        <ele>15.8</ele>
        <time>2020-06-08T15:34:31Z</time>
      </trkpt>
      <trkpt lat="48.3611" lon="-4.27081">
        <ele>15.8</ele>
        <time>2020-06-08T15:34:32Z</time>
      </trkpt>
      <trkpt lat="48.36111" lon="-4.27092">
        <ele>16</ele>
        <time>2020-06-08T15:34:33Z</time>
      </trkpt>
      <trkpt lat="48.36111" lon="-4.27103">
        <ele>16.3</ele>
        <time>2020-06-08T15:34:34Z</time>
      </trkpt>
      <trkpt lat="48.36112" lon="-4.27114">
        <ele>16.5</ele>
        <time>2020-06-08T15:34:35Z</time>
      </trkpt>
      <trkpt lat="48.36112" lon="-4.27124">
        <ele>16.9</ele>
        <time>2020-06-08T15:34:36Z</time>
      </trkpt>
      <trkpt lat="48.36113" lon="-4.27134">
        <ele>16.9</ele>
        <time>2020-06-08T15:34:37Z</time>
      </trkpt>
      <trkpt lat="48.36114" lon="-4.27144">
        <ele>16.9</ele>
        <time>2020-06-08T15:34:38Z</time>
      </trkpt>
      <trkpt lat="48.36115" lon="-4.27153">
        <ele>17.1</ele>
        <time>2020-06-08T15:34:39Z</time>
      </trkpt>
      <trkpt lat="48.36117" lon="-4.27161">
        <ele>17.3</ele>
        <time>2020-06-08T15:34:40Z</time>
      </trkpt>
      <trkpt lat="48.36117" lon="-4.2717">
        <ele>17.5</ele>
        <time>2020-06-08T15:34:41Z</time>
      </trkpt>
      <trkpt lat="48.36118" lon="-4.27178">
        <ele>17.8</ele>
        <time>2020-06-08T15:34:42Z</time>
      </trkpt>
      <trkpt lat="48.36119" lon="-4.27186">
        <ele>18</ele>
        <time>2020-06-08T15:34:43Z</time>
      </trkpt>
      <trkpt lat="48.36118" lon="-4.27193">
        <ele>18.2</ele>
        <time>2020-06-08T15:34:44Z</time>
      </trkpt>
      <trkpt lat="48.36118" lon="-4.272">
        <ele>18.5</ele>
        <time>2020-06-08T15:34:45Z</time>
      </trkpt>
      <trkpt lat="48.36117" lon="-4.27207">
        <ele>18.7</ele>
        <time>2020-06-08T15:34:46Z</time>
      </trkpt>
      <trkpt lat="48.36116" lon="-4.27215">
        <ele>19</ele>
        <time>2020-06-08T15:34:47Z</time>
      </trkpt>
      <trkpt lat="48.36116" lon="-4.27223">
        <ele>19.5</ele>
        <time>2020-06-08T15:34:48Z</time>
      </trkpt>
      <trkpt lat="48.36115" lon="-4.2723">
        <ele>19.9</ele>
        <time>2020-06-08T15:34:49Z</time>
      </trkpt>
      <trkpt lat="48.36116" lon="-4.27237">
        <ele>20.2</ele>
        <time>2020-06-08T15:34:50Z</time>
      </trkpt>
      <trkpt lat="48.36116" lon="-4.27245">
        <ele>20.5</ele>
        <time>2020-06-08T15:34:51Z</time>
      </trkpt>
      <trkpt lat="48.36117" lon="-4.27252">
        <ele>20.8</ele>
        <time>2020-06-08T15:34:52Z</time>
      </trkpt>
      <trkpt lat="48.36116" lon="-4.27258">
        <ele>21.1</ele>
        <time>2020-06-08T15:34:53Z</time>
      </trkpt>
      <trkpt lat="48.36114" lon="-4.27264">
        <ele>21.4</ele>
        <time>2020-06-08T15:34:54Z</time>
      </trkpt>
      <trkpt lat="48.36114" lon="-4.27271">
        <ele>21.7</ele>
        <time>2020-06-08T15:34:55Z</time>
      </trkpt>
      <trkpt lat="48.36113" lon="-4.27278">
        <ele>22</ele>
        <time>2020-06-08T15:34:56Z</time>
      </trkpt>
      <trkpt lat="48.36113" lon="-4.27285">
        <ele>22.3</ele>
        <time>2020-06-08T15:34:57Z</time>
      </trkpt>
      <trkpt lat="48.36111" lon="-4.27291">
        <ele>22.5</ele>
        <time>2020-06-08T15:34:58Z</time>
      </trkpt>
      <trkpt lat="48.3611" lon="-4.27296">
        <ele>22.8</ele>
        <time>2020-06-08T15:34:59Z</time>
      </trkpt>
      <trkpt lat="48.36109" lon="-4.27303">
        <ele>23.1</ele>
        <time>2020-06-08T15:35:00Z</time>
      </trkpt>
      <trkpt lat="48.36107" lon="-4.27308">
        <ele>23.3</ele>
        <time>2020-06-08T15:35:01Z</time>
      </trkpt>
      <trkpt lat="48.36105" lon="-4.27315">
        <ele>23.6</ele>
        <time>2020-06-08T15:35:02Z</time>
      </trkpt>
      <trkpt lat="48.36103" lon="-4.27322">
        <ele>23.9</ele>
        <time>2020-06-08T15:35:03Z</time>
      </trkpt>
      <trkpt lat="48.36101" lon="-4.27328">
        <ele>24.2</ele>
        <time>2020-06-08T15:35:04Z</time>
      </trkpt>
      <trkpt lat="48.36099" lon="-4.27331">
        <ele>24.3</ele>
        <time>2020-06-08T15:35:05Z</time>
      </trkpt>
      <trkpt lat="48.36098" lon="-4.27337">
        <ele>24.6</ele>
        <time>2020-06-08T15:35:06Z</time>
      </trkpt>
      <trkpt lat="48.36097" lon="-4.27342">
        <ele>24.8</ele>
        <time>2020-06-08T15:35:07Z</time>
      </trkpt>
      <trkpt lat="48.36095" lon="-4.27348">
        <ele>25.1</ele>
        <time>2020-06-08T15:35:08Z</time>
      </trkpt>
      <trkpt lat="48.36093" lon="-4.27355">
        <ele>25.4</ele>
        <time>2020-06-08T15:35:09Z</time>
      </trkpt>
      <trkpt lat="48.36092" lon="-4.27361">
        <ele>25.6</ele>
        <time>2020-06-08T15:35:10Z</time>
      </trkpt>
      <trkpt lat="48.36092" lon="-4.27366">
        <ele>25.8</ele>
        <time>2020-06-08T15:35:11Z</time>
      </trkpt>
      <trkpt lat="48.36092" lon="-4.27372">
        <ele>26.1</ele>
        <time>2020-06-08T15:35:12Z</time>
      </trkpt>
      <trkpt lat="48.36092" lon="-4.27378">
        <ele>26.3</ele>
        <time>2020-06-08T15:35:13Z</time>
      </trkpt>
      <trkpt lat="48.36092" lon="-4.27383">
        <ele>26.5</ele>
        <time>2020-06-08T15:35:14Z</time>
      </trkpt>
      <trkpt lat="48.36092" lon="-4.27387">
        <ele>26.7</ele>
        <time>2020-06-08T15:35:15Z</time>
      </trkpt>
      <trkpt lat="48.36092" lon="-4.27393">
        <ele>26.9</ele>
        <time>2020-06-08T15:35:17Z</time>
      </trkpt>
      <trkpt lat="48.36093" lon="-4.27399">
        <ele>27.1</ele>
        <time>2020-06-08T15:35:18Z</time>
      </trkpt>
      <trkpt lat="48.36093" lon="-4.27404">
        <ele>27.6</ele>
        <time>2020-06-08T15:35:19Z</time>
      </trkpt>
      <trkpt lat="48.36094" lon="-4.27409">
        <ele>27.9</ele>
        <time>2020-06-08T15:35:20Z</time>
      </trkpt>
      <trkpt lat="48.36096" lon="-4.27414">
        <ele>28.2</ele>
        <time>2020-06-08T15:35:21Z</time>
      </trkpt>
      <trkpt lat="48.36097" lon="-4.27418">
        <ele>28.4</ele>
        <time>2020-06-08T15:35:22Z</time>
      </trkpt>
      <trkpt lat="48.36099" lon="-4.27422">
        <ele>28.6</ele>
        <time>2020-06-08T15:35:23Z</time>
      </trkpt>
      <trkpt lat="48.361" lon="-4.27427">
        <ele>28.9</ele>
        <time>2020-06-08T15:35:24Z</time>
      </trkpt>
      <trkpt lat="48.36101" lon="-4.27429">
        <ele>29.1</ele>
        <time>2020-06-08T15:35:25Z</time>
      </trkpt>
      <trkpt lat="48.36102" lon="-4.27433">
        <ele>29.3</ele>
        <time>2020-06-08T15:35:26Z</time>
      </trkpt>
      <trkpt lat="48.36103" lon="-4.27437">
        <ele>29.6</ele>
        <time>2020-06-08T15:35:27Z</time>
      </trkpt>
      <trkpt lat="48.36104" lon="-4.27439">
        <ele>29.7</ele>
        <time>2020-06-08T15:35:28Z</time>
      </trkpt>
      <trkpt lat="48.36105" lon="-4.27444">
        <ele>29.9</ele>
        <time>2020-06-08T15:35:29Z</time>
      </trkpt>
      <trkpt lat="48.36106" lon="-4.27445">
        <ele>30</ele>
        <time>2020-06-08T15:35:30Z</time>
      </trkpt>
      <trkpt lat="48.36107" lon="-4.27449">
        <ele>30.3</ele>
        <time>2020-06-08T15:35:31Z</time>
      </trkpt>
      <trkpt lat="48.36108" lon="-4.27452">
        <ele>30.4</ele>
        <time>2020-06-08T15:35:32Z</time>
      </trkpt>
      <trkpt lat="48.3611" lon="-4.27457">
        <ele>30.7</ele>
        <time>2020-06-08T15:35:33Z</time>
      </trkpt>
      <trkpt lat="48.36112" lon="-4.27461">
        <ele>31</ele>
        <time>2020-06-08T15:35:34Z</time>
      </trkpt>
      <trkpt lat="48.36113" lon="-4.27465">
        <ele>31.2</ele>
        <time>2020-06-08T15:35:35Z</time>
      </trkpt>
      <trkpt lat="48.36114" lon="-4.2747">
        <ele>31.5</ele>
        <time>2020-06-08T15:35:36Z</time>
      </trkpt>
      <trkpt lat="48.36115" lon="-4.27474">
        <ele>31.7</ele>
        <time>2020-06-08T15:35:37Z</time>
      </trkpt>
      <trkpt lat="48.36117" lon="-4.27478">
        <ele>32</ele>
        <time>2020-06-08T15:35:38Z</time>
      </trkpt>
      <trkpt lat="48.36119" lon="-4.27481">
        <ele>32.2</ele>
        <time>2020-06-08T15:35:39Z</time>
      </trkpt>
      <trkpt lat="48.36121" lon="-4.27485">
        <ele>32.4</ele>
        <time>2020-06-08T15:35:40Z</time>
      </trkpt>
      <trkpt lat="48.36122" lon="-4.2749">
        <ele>32.7</ele>
        <time>2020-06-08T15:35:41Z</time>
      </trkpt>
      <trkpt lat="48.36122" lon="-4.27492">
        <ele>32.8</ele>
        <time>2020-06-08T15:35:42Z</time>
      </trkpt>
      <trkpt lat="48.36124" lon="-4.27496">
        <ele>33</ele>
        <time>2020-06-08T15:35:43Z</time>
      </trkpt>
      <trkpt lat="48.36125" lon="-4.27503">
        <ele>33.3</ele>
        <time>2020-06-08T15:35:44Z</time>
      </trkpt>
      <trkpt lat="48.36126" lon="-4.27507">
        <ele>33.6</ele>
        <time>2020-06-08T15:35:45Z</time>
      </trkpt>
      <trkpt lat="48.36128" lon="-4.27511">
        <ele>33.8</ele>
        <time>2020-06-08T15:35:46Z</time>
      </trkpt>
      <trkpt lat="48.36129" lon="-4.27516">
        <ele>34</ele>
        <time>2020-06-08T15:35:47Z</time>
      </trkpt>
      <trkpt lat="48.3613" lon="-4.27521">
        <ele>34.3</ele>
        <time>2020-06-08T15:35:48Z</time>
      </trkpt>
      <trkpt lat="48.36131" lon="-4.27526">
        <ele>34.5</ele>
        <time>2020-06-08T15:35:49Z</time>
      </trkpt>
      <trkpt lat="48.36133" lon="-4.27531">
        <ele>34.7</ele>
        <time>2020-06-08T15:35:50Z</time>
      </trkpt>
      <trkpt lat="48.36135" lon="-4.27535">
        <ele>34.9</ele>
        <time>2020-06-08T15:35:51Z</time>
      </trkpt>
      <trkpt lat="48.36136" lon="-4.27539">
        <ele>35.1</ele>
        <time>2020-06-08T15:35:52Z</time>
      </trkpt>
      <trkpt lat="48.36138" lon="-4.27543">
        <ele>35.4</ele>
        <time>2020-06-08T15:35:53Z</time>
      </trkpt>
      <trkpt lat="48.3614" lon="-4.27547">
        <ele>35.6</ele>
        <time>2020-06-08T15:35:54Z</time>
      </trkpt>
      <trkpt lat="48.36141" lon="-4.27549">
        <ele>35.7</ele>
        <time>2020-06-08T15:35:55Z</time>
      </trkpt>
      <trkpt lat="48.36142" lon="-4.27553">
        <ele>35.9</ele>
        <time>2020-06-08T15:35:56Z</time>
      </trkpt>
      <trkpt lat="48.36143" lon="-4.27557">
        <ele>36.1</ele>
        <time>2020-06-08T15:35:57Z</time>
      </trkpt>
      <trkpt lat="48.36144" lon="-4.27561">
        <ele>36.3</ele>
        <time>2020-06-08T15:35:58Z</time>
      </trkpt>
      <trkpt lat="48.36146" lon="-4.27565">
        <ele>36.5</ele>
        <time>2020-06-08T15:35:59Z</time>
      </trkpt>
      <trkpt lat="48.36147" lon="-4.2757">
        <ele>36.8</ele>
        <time>2020-06-08T15:36:00Z</time>
      </trkpt>
      <trkpt lat="48.36149" lon="-4.27573">
        <ele>37</ele>
        <time>2020-06-08T15:36:01Z</time>
      </trkpt>
      <trkpt lat="48.36151" lon="-4.27576">
        <ele>37.2</ele>
        <time>2020-06-08T15:36:02Z</time>
      </trkpt>
      <trkpt lat="48.36154" lon="-4.2758">
        <ele>37.4</ele>
        <time>2020-06-08T15:36:03Z</time>
      </trkpt>
      <trkpt lat="48.36156" lon="-4.27583">
        <ele>37.7</ele>
        <time>2020-06-08T15:36:04Z</time>
      </trkpt>
      <trkpt lat="48.36159" lon="-4.27585">
        <ele>37.9</ele>
        <time>2020-06-08T15:36:05Z</time>
      </trkpt>
      <trkpt lat="48.36161" lon="-4.27588">
        <ele>38.1</ele>
        <time>2020-06-08T15:36:06Z</time>
      </trkpt>
      <trkpt lat="48.36163" lon="-4.27591">
        <ele>38.6</ele>
        <time>2020-06-08T15:36:07Z</time>
      </trkpt>
      <trkpt lat="48.36166" lon="-4.27594">
        <ele>38.6</ele>
        <time>2020-06-08T15:36:08Z</time>
      </trkpt>
      <trkpt lat="48.36169" lon="-4.27596">
        <ele>38.6</ele>
        <time>2020-06-08T15:36:09Z</time>
      </trkpt>
      <trkpt lat="48.36171" lon="-4.27598">
        <ele>38.6</ele>
        <time>2020-06-08T15:36:10Z</time>
      </trkpt>
      <trkpt lat="48.36173" lon="-4.27601">
        <ele>38.6</ele>
        <time>2020-06-08T15:36:11Z</time>
      </trkpt>
      <trkpt lat="48.36175" lon="-4.27603">
        <ele>38.6</ele>
        <time>2020-06-08T15:36:12Z</time>
      </trkpt>
      <trkpt lat="48.36177" lon="-4.27606">
        <ele>38.6</ele>
        <time>2020-06-08T15:36:13Z</time>
      </trkpt>
      <trkpt lat="48.36181" lon="-4.27608">
        <ele>39</ele>
        <time>2020-06-08T15:36:14Z</time>
      </trkpt>
      <trkpt lat="48.36182" lon="-4.27608">
        <ele>39.1</ele>
        <time>2020-06-08T15:36:15Z</time>
      </trkpt>
      <trkpt lat="48.36185" lon="-4.27609">
        <ele>39.3</ele>
        <time>2020-06-08T15:36:16Z</time>
      </trkpt>
      <trkpt lat="48.36187" lon="-4.2761">
        <ele>39.5</ele>
        <time>2020-06-08T15:36:17Z</time>
      </trkpt>
      <trkpt lat="48.36191" lon="-4.27611">
        <ele>39.7</ele>
        <time>2020-06-08T15:36:18Z</time>
      </trkpt>
      <trkpt lat="48.36193" lon="-4.27613">
        <ele>39.8</ele>
        <time>2020-06-08T15:36:19Z</time>
      </trkpt>
      <trkpt lat="48.36196" lon="-4.27614">
        <ele>40</ele>
        <time>2020-06-08T15:36:20Z</time>
      </trkpt>
      <trkpt lat="48.36199" lon="-4.27615">
        <ele>40.2</ele>
        <time>2020-06-08T15:36:21Z</time>
      </trkpt>
      <trkpt lat="48.36202" lon="-4.27616">
        <ele>40.4</ele>
        <time>2020-06-08T15:36:22Z</time>
      </trkpt>
      <trkpt lat="48.36204" lon="-4.27616">
        <ele>40.5</ele>
        <time>2020-06-08T15:36:23Z</time>
      </trkpt>
      <trkpt lat="48.36208" lon="-4.27617">
        <ele>40.7</ele>
        <time>2020-06-08T15:36:24Z</time>
      </trkpt>
      <trkpt lat="48.36209" lon="-4.27617">
        <ele>40.8</ele>
        <time>2020-06-08T15:36:25Z</time>
      </trkpt>
      <trkpt lat="48.36212" lon="-4.27619">
        <ele>41</ele>
        <time>2020-06-08T15:36:26Z</time>
      </trkpt>
      <trkpt lat="48.36213" lon="-4.27619">
        <ele>41.1</ele>
        <time>2020-06-08T15:36:27Z</time>
      </trkpt>
      <trkpt lat="48.36217" lon="-4.2762">
        <ele>41.4</ele>
        <time>2020-06-08T15:36:28Z</time>
      </trkpt>
      <trkpt lat="48.36219" lon="-4.27619">
        <ele>41.5</ele>
        <time>2020-06-08T15:36:29Z</time>
      </trkpt>
      <trkpt lat="48.36221" lon="-4.27619">
        <ele>41.6</ele>
        <time>2020-06-08T15:36:30Z</time>
      </trkpt>
      <trkpt lat="48.36224" lon="-4.27619">
        <ele>41.8</ele>
        <time>2020-06-08T15:36:31Z</time>
      </trkpt>
      <trkpt lat="48.36228" lon="-4.2762">
        <ele>42</ele>
        <time>2020-06-08T15:36:32Z</time>
      </trkpt>
      <trkpt lat="48.36229" lon="-4.27621">
        <ele>42.1</ele>
        <time>2020-06-08T15:36:33Z</time>
      </trkpt>
      <trkpt lat="48.36233" lon="-4.27622">
        <ele>42.4</ele>
        <time>2020-06-08T15:36:34Z</time>
      </trkpt>
      <trkpt lat="48.36234" lon="-4.27622">
        <ele>42.4</ele>
        <time>2020-06-08T15:36:35Z</time>
      </trkpt>
      <trkpt lat="48.36237" lon="-4.27623">
        <ele>42.6</ele>
        <time>2020-06-08T15:36:36Z</time>
      </trkpt>
      <trkpt lat="48.3624" lon="-4.27623">
        <ele>42.8</ele>
        <time>2020-06-08T15:36:37Z</time>
      </trkpt>
      <trkpt lat="48.36243" lon="-4.27623">
        <ele>43</ele>
        <time>2020-06-08T15:36:38Z</time>
      </trkpt>
      <trkpt lat="48.36246" lon="-4.27624">
        <ele>43.1</ele>
        <time>2020-06-08T15:36:39Z</time>
      </trkpt>
      <trkpt lat="48.3625" lon="-4.27625">
        <ele>43.4</ele>
        <time>2020-06-08T15:36:40Z</time>
      </trkpt>
      <trkpt lat="48.36252" lon="-4.27625">
        <ele>43.5</ele>
        <time>2020-06-08T15:36:41Z</time>
      </trkpt>
      <trkpt lat="48.36255" lon="-4.27627">
        <ele>43.7</ele>
        <time>2020-06-08T15:36:42Z</time>
      </trkpt>
      <trkpt lat="48.36258" lon="-4.27628">
        <ele>43.8</ele>
        <time>2020-06-08T15:36:43Z</time>
      </trkpt>
      <trkpt lat="48.36261" lon="-4.27629">
        <ele>44</ele>
        <time>2020-06-08T15:36:44Z</time>
      </trkpt>
      <trkpt lat="48.36264" lon="-4.2763">
        <ele>44.2</ele>
        <time>2020-06-08T15:36:45Z</time>
      </trkpt>
      <trkpt lat="48.36267" lon="-4.27631">
        <ele>44.4</ele>
        <time>2020-06-08T15:36:46Z</time>
      </trkpt>
      <trkpt lat="48.3627" lon="-4.27633">
        <ele>44.7</ele>
        <time>2020-06-08T15:36:47Z</time>
      </trkpt>
      <trkpt lat="48.36272" lon="-4.27633">
        <ele>44.7</ele>
        <time>2020-06-08T15:36:48Z</time>
      </trkpt>
      <trkpt lat="48.36275" lon="-4.27634">
        <ele>44.9</ele>
        <time>2020-06-08T15:36:49Z</time>
      </trkpt>
      <trkpt lat="48.36278" lon="-4.27636">
        <ele>45.2</ele>
        <time>2020-06-08T15:36:50Z</time>
      </trkpt>
      <trkpt lat="48.3628" lon="-4.27636">
        <ele>45.2</ele>
        <time>2020-06-08T15:36:51Z</time>
      </trkpt>
      <trkpt lat="48.36283" lon="-4.27638">
        <ele>45.5</ele>
        <time>2020-06-08T15:36:52Z</time>
      </trkpt>
      <trkpt lat="48.36284" lon="-4.27639">
        <ele>45.6</ele>
        <time>2020-06-08T15:36:53Z</time>
      </trkpt>
      <trkpt lat="48.36288" lon="-4.2764">
        <ele>45.8</ele>
        <time>2020-06-08T15:36:54Z</time>
      </trkpt>
      <trkpt lat="48.36289" lon="-4.27641">
        <ele>45.8</ele>
        <time>2020-06-08T15:36:55Z</time>
      </trkpt>
      <trkpt lat="48.36292" lon="-4.27641">
        <ele>46</ele>
        <time>2020-06-08T15:36:56Z</time>
      </trkpt>
      <trkpt lat="48.36295" lon="-4.27644">
        <ele>46.2</ele>
        <time>2020-06-08T15:36:57Z</time>
      </trkpt>
      <trkpt lat="48.36296" lon="-4.27644">
        <ele>46.3</ele>
        <time>2020-06-08T15:36:58Z</time>
      </trkpt>
      <trkpt lat="48.36299" lon="-4.27646">
        <ele>46.4</ele>
        <time>2020-06-08T15:36:59Z</time>
      </trkpt>
      <trkpt lat="48.36302" lon="-4.27648">
        <ele>46.6</ele>
        <time>2020-06-08T15:37:00Z</time>
      </trkpt>
      <trkpt lat="48.36305" lon="-4.27649">
        <ele>46.8</ele>
        <time>2020-06-08T15:37:01Z</time>
      </trkpt>
      <trkpt lat="48.36308" lon="-4.2765">
        <ele>47</ele>
        <time>2020-06-08T15:37:02Z</time>
      </trkpt>
      <trkpt lat="48.36312" lon="-4.27652">
        <ele>47.2</ele>
        <time>2020-06-08T15:37:03Z</time>
      </trkpt>
      <trkpt lat="48.36313" lon="-4.27652">
        <ele>47.2</ele>
        <time>2020-06-08T15:37:04Z</time>
      </trkpt>
      <trkpt lat="48.36317" lon="-4.27654">
        <ele>47.4</ele>
        <time>2020-06-08T15:37:05Z</time>
      </trkpt>
      <trkpt lat="48.36318" lon="-4.27655">
        <ele>47.5</ele>
        <time>2020-06-08T15:37:06Z</time>
      </trkpt>
      <trkpt lat="48.36321" lon="-4.27656">
        <ele>47.6</ele>
        <time>2020-06-08T15:37:07Z</time>
      </trkpt>
      <trkpt lat="48.36324" lon="-4.27657">
        <ele>47.8</ele>
        <time>2020-06-08T15:37:08Z</time>
      </trkpt>
      <trkpt lat="48.36327" lon="-4.27658">
        <ele>47.9</ele>
        <time>2020-06-08T15:37:09Z</time>
      </trkpt>
      <trkpt lat="48.3633" lon="-4.27659">
        <ele>48.1</ele>
        <time>2020-06-08T15:37:10Z</time>
      </trkpt>
      <trkpt lat="48.36333" lon="-4.27661">
        <ele>48.2</ele>
        <time>2020-06-08T15:37:11Z</time>
      </trkpt>
      <trkpt lat="48.36336" lon="-4.27663">
        <ele>48.4</ele>
        <time>2020-06-08T15:37:12Z</time>
      </trkpt>
      <trkpt lat="48.3634" lon="-4.27664">
        <ele>48.5</ele>
        <time>2020-06-08T15:37:13Z</time>
      </trkpt>
      <trkpt lat="48.36342" lon="-4.27667">
        <ele>48.7</ele>
        <time>2020-06-08T15:37:14Z</time>
      </trkpt>
      <trkpt lat="48.36345" lon="-4.27668">
        <ele>48.8</ele>
        <time>2020-06-08T15:37:15Z</time>
      </trkpt>
      <trkpt lat="48.36348" lon="-4.2767">
        <ele>48.9</ele>
        <time>2020-06-08T15:37:16Z</time>
      </trkpt>
      <trkpt lat="48.36351" lon="-4.27672">
        <ele>49.1</ele>
        <time>2020-06-08T15:37:17Z</time>
      </trkpt>
      <trkpt lat="48.36354" lon="-4.27673">
        <ele>49.2</ele>
        <time>2020-06-08T15:37:18Z</time>
      </trkpt>
      <trkpt lat="48.36357" lon="-4.27675">
        <ele>49.3</ele>
        <time>2020-06-08T15:37:19Z</time>
      </trkpt>
      <trkpt lat="48.36358" lon="-4.27675">
        <ele>49.4</ele>
        <time>2020-06-08T15:37:20Z</time>
      </trkpt>
      <trkpt lat="48.36362" lon="-4.27676">
        <ele>49.5</ele>
        <time>2020-06-08T15:37:21Z</time>
      </trkpt>
      <trkpt lat="48.36365" lon="-4.27677">
        <ele>49.7</ele>
        <time>2020-06-08T15:37:22Z</time>
      </trkpt>
      <trkpt lat="48.36366" lon="-4.27678">
        <ele>49.7</ele>
        <time>2020-06-08T15:37:23Z</time>
      </trkpt>
      <trkpt lat="48.36369" lon="-4.27679">
        <ele>49.8</ele>
        <time>2020-06-08T15:37:24Z</time>
      </trkpt>
      <trkpt lat="48.36372" lon="-4.2768">
        <ele>49.9</ele>
        <time>2020-06-08T15:37:25Z</time>
      </trkpt>
      <trkpt lat="48.36375" lon="-4.27681">
        <ele>50.1</ele>
        <time>2020-06-08T15:37:26Z</time>
      </trkpt>
      <trkpt lat="48.36378" lon="-4.27683">
        <ele>50.3</ele>
        <time>2020-06-08T15:37:27Z</time>
      </trkpt>
      <trkpt lat="48.36381" lon="-4.27685">
        <ele>50.5</ele>
        <time>2020-06-08T15:37:28Z</time>
      </trkpt>
      <trkpt lat="48.36384" lon="-4.27686">
        <ele>50.6</ele>
        <time>2020-06-08T15:37:29Z</time>
      </trkpt>
      <trkpt lat="48.36387" lon="-4.27688">
        <ele>50.8</ele>
        <time>2020-06-08T15:37:30Z</time>
      </trkpt>
      <trkpt lat="48.3639" lon="-4.27688">
        <ele>50.9</ele>
        <time>2020-06-08T15:37:31Z</time>
      </trkpt>
      <trkpt lat="48.36393" lon="-4.27689">
        <ele>51.1</ele>
        <time>2020-06-08T15:37:32Z</time>
      </trkpt>
      <trkpt lat="48.36396" lon="-4.2769">
        <ele>51.2</ele>
        <time>2020-06-08T15:37:33Z</time>
      </trkpt>
      <trkpt lat="48.364" lon="-4.27691">
        <ele>51.4</ele>
        <time>2020-06-08T15:37:34Z</time>
      </trkpt>
      <trkpt lat="48.36402" lon="-4.27691">
        <ele>51.5</ele>
        <time>2020-06-08T15:37:35Z</time>
      </trkpt>
      <trkpt lat="48.36405" lon="-4.27692">
        <ele>51.7</ele>
        <time>2020-06-08T15:37:36Z</time>
      </trkpt>
      <trkpt lat="48.36408" lon="-4.27693">
        <ele>51.8</ele>
        <time>2020-06-08T15:37:37Z</time>
      </trkpt>
      <trkpt lat="48.36411" lon="-4.27694">
        <ele>52</ele>
        <time>2020-06-08T15:37:38Z</time>
      </trkpt>
      <trkpt lat="48.36413" lon="-4.27695">
        <ele>52.1</ele>
        <time>2020-06-08T15:37:39Z</time>
      </trkpt>
      <trkpt lat="48.36416" lon="-4.27696">
        <ele>52.2</ele>
        <time>2020-06-08T15:37:40Z</time>
      </trkpt>
      <trkpt lat="48.36419" lon="-4.27697">
        <ele>52.4</ele>
        <time>2020-06-08T15:37:41Z</time>
      </trkpt>
      <trkpt lat="48.3642" lon="-4.27698">
        <ele>52.4</ele>
        <time>2020-06-08T15:37:42Z</time>
      </trkpt>
      <trkpt lat="48.36424" lon="-4.27699">
        <ele>52.6</ele>
        <time>2020-06-08T15:37:43Z</time>
      </trkpt>
      <trkpt lat="48.36425" lon="-4.277">
        <ele>52.7</ele>
        <time>2020-06-08T15:37:44Z</time>
      </trkpt>
      <trkpt lat="48.36428" lon="-4.277">
        <ele>52.9</ele>
        <time>2020-06-08T15:37:45Z</time>
      </trkpt>
      <trkpt lat="48.36429" lon="-4.277">
        <ele>52.9</ele>
        <time>2020-06-08T15:37:46Z</time>
      </trkpt>
      <trkpt lat="48.36432" lon="-4.27699">
        <ele>53.1</ele>
        <time>2020-06-08T15:37:47Z</time>
      </trkpt>
      <trkpt lat="48.36436" lon="-4.27698">
        <ele>53.3</ele>
        <time>2020-06-08T15:37:48Z</time>
      </trkpt>
      <trkpt lat="48.36437" lon="-4.27698">
        <ele>53.4</ele>
        <time>2020-06-08T15:37:49Z</time>
      </trkpt>
      <trkpt lat="48.3644" lon="-4.27698">
        <ele>53.6</ele>
        <time>2020-06-08T15:37:50Z</time>
      </trkpt>
      <trkpt lat="48.36443" lon="-4.27698">
        <ele>53.7</ele>
        <time>2020-06-08T15:37:51Z</time>
      </trkpt>
      <trkpt lat="48.36447" lon="-4.27697">
        <ele>53.9</ele>
        <time>2020-06-08T15:37:52Z</time>
      </trkpt>
      <trkpt lat="48.3645" lon="-4.27698">
        <ele>54.1</ele>
        <time>2020-06-08T15:37:53Z</time>
      </trkpt>
      <trkpt lat="48.36452" lon="-4.27697">
        <ele>54.3</ele>
        <time>2020-06-08T15:37:54Z</time>
      </trkpt>
      <trkpt lat="48.36455" lon="-4.27697">
        <ele>54.5</ele>
        <time>2020-06-08T15:37:55Z</time>
      </trkpt>
      <trkpt lat="48.36458" lon="-4.27697">
        <ele>54.7</ele>
        <time>2020-06-08T15:37:56Z</time>
      </trkpt>
      <trkpt lat="48.36461" lon="-4.27697">
        <ele>54.8</ele>
        <time>2020-06-08T15:37:57Z</time>
      </trkpt>
      <trkpt lat="48.36464" lon="-4.27697">
        <ele>55</ele>
        <time>2020-06-08T15:37:58Z</time>
      </trkpt>
      <trkpt lat="48.36467" lon="-4.27697">
        <ele>55.2</ele>
        <time>2020-06-08T15:37:59Z</time>
      </trkpt>
      <trkpt lat="48.3647" lon="-4.27697">
        <ele>55.4</ele>
        <time>2020-06-08T15:38:00Z</time>
      </trkpt>
      <trkpt lat="48.36471" lon="-4.27696">
        <ele>55.5</ele>
        <time>2020-06-08T15:38:01Z</time>
      </trkpt>
      <trkpt lat="48.36474" lon="-4.27696">
        <ele>55.7</ele>
        <time>2020-06-08T15:38:02Z</time>
      </trkpt>
      <trkpt lat="48.36475" lon="-4.27696">
        <ele>55.8</ele>
        <time>2020-06-08T15:38:03Z</time>
      </trkpt>
      <trkpt lat="48.36479" lon="-4.27696">
        <ele>56</ele>
        <time>2020-06-08T15:38:04Z</time>
      </trkpt>
      <trkpt lat="48.3648" lon="-4.27695">
        <ele>56.1</ele>
        <time>2020-06-08T15:38:05Z</time>
      </trkpt>
      <trkpt lat="48.36483" lon="-4.27696">
        <ele>56.3</ele>
        <time>2020-06-08T15:38:06Z</time>
      </trkpt>
      <trkpt lat="48.36486" lon="-4.27695">
        <ele>56.5</ele>
        <time>2020-06-08T15:38:07Z</time>
      </trkpt>
      <trkpt lat="48.36488" lon="-4.27695">
        <ele>56.6</ele>
        <time>2020-06-08T15:38:08Z</time>
      </trkpt>
      <trkpt lat="48.36491" lon="-4.27697">
        <ele>56.8</ele>
        <time>2020-06-08T15:38:09Z</time>
      </trkpt>
      <trkpt lat="48.36494" lon="-4.27696">
        <ele>57</ele>
        <time>2020-06-08T15:38:10Z</time>
      </trkpt>
      <trkpt lat="48.36495" lon="-4.27695">
        <ele>57</ele>
        <time>2020-06-08T15:38:11Z</time>
      </trkpt>
      <trkpt lat="48.36498" lon="-4.27695">
        <ele>57.3</ele>
        <time>2020-06-08T15:38:12Z</time>
      </trkpt>
      <trkpt lat="48.365" lon="-4.27695">
        <ele>57.3</ele>
        <time>2020-06-08T15:38:13Z</time>
      </trkpt>
      <trkpt lat="48.36504" lon="-4.27696">
        <ele>57.6</ele>
        <time>2020-06-08T15:38:14Z</time>
      </trkpt>
      <trkpt lat="48.36505" lon="-4.27697">
        <ele>57.7</ele>
        <time>2020-06-08T15:38:15Z</time>
      </trkpt>
      <trkpt lat="48.36508" lon="-4.27698">
        <ele>57.8</ele>
        <time>2020-06-08T15:38:16Z</time>
      </trkpt>
      <trkpt lat="48.36511" lon="-4.27698">
        <ele>58</ele>
        <time>2020-06-08T15:38:17Z</time>
      </trkpt>
      <trkpt lat="48.36514" lon="-4.27699">
        <ele>58.2</ele>
        <time>2020-06-08T15:38:18Z</time>
      </trkpt>
      <trkpt lat="48.36518" lon="-4.27699">
        <ele>58.4</ele>
        <time>2020-06-08T15:38:19Z</time>
      </trkpt>
      <trkpt lat="48.36519" lon="-4.27698">
        <ele>58.5</ele>
        <time>2020-06-08T15:38:20Z</time>
      </trkpt>
      <trkpt lat="48.36523" lon="-4.27698">
        <ele>58.7</ele>
        <time>2020-06-08T15:38:21Z</time>
      </trkpt>
      <trkpt lat="48.36527" lon="-4.27698">
        <ele>58.9</ele>
        <time>2020-06-08T15:38:22Z</time>
      </trkpt>
      <trkpt lat="48.36528" lon="-4.27698">
        <ele>58.9</ele>
        <time>2020-06-08T15:38:23Z</time>
      </trkpt>
      <trkpt lat="48.36531" lon="-4.27698">
        <ele>59.1</ele>
        <time>2020-06-08T15:38:24Z</time>
      </trkpt>
      <trkpt lat="48.36535" lon="-4.27697">
        <ele>59.3</ele>
        <time>2020-06-08T15:38:25Z</time>
      </trkpt>
      <trkpt lat="48.36536" lon="-4.27697">
        <ele>59.4</ele>
        <time>2020-06-08T15:38:26Z</time>
      </trkpt>
      <trkpt lat="48.3654" lon="-4.27697">
        <ele>59.6</ele>
        <time>2020-06-08T15:38:27Z</time>
      </trkpt>
      <trkpt lat="48.36541" lon="-4.27696">
        <ele>59.7</ele>
        <time>2020-06-08T15:38:28Z</time>
      </trkpt>
      <trkpt lat="48.36545" lon="-4.27696">
        <ele>59.9</ele>
        <time>2020-06-08T15:38:29Z</time>
      </trkpt>
      <trkpt lat="48.36549" lon="-4.27697">
        <ele>60.1</ele>
        <time>2020-06-08T15:38:30Z</time>
      </trkpt>
      <trkpt lat="48.36552" lon="-4.27697">
        <ele>60.3</ele>
        <time>2020-06-08T15:38:31Z</time>
      </trkpt>
      <trkpt lat="48.36555" lon="-4.27698">
        <ele>60.5</ele>
        <time>2020-06-08T15:38:32Z</time>
      </trkpt>
      <trkpt lat="48.36559" lon="-4.27698">
        <ele>60.7</ele>
        <time>2020-06-08T15:38:33Z</time>
      </trkpt>
      <trkpt lat="48.36561" lon="-4.27698">
        <ele>60.7</ele>
        <time>2020-06-08T15:38:34Z</time>
      </trkpt>
      <trkpt lat="48.36564" lon="-4.27697">
        <ele>60.9</ele>
        <time>2020-06-08T15:38:35Z</time>
      </trkpt>
      <trkpt lat="48.36565" lon="-4.27697">
        <ele>61</ele>
        <time>2020-06-08T15:38:36Z</time>
      </trkpt>
      <trkpt lat="48.36569" lon="-4.27697">
        <ele>61.2</ele>
        <time>2020-06-08T15:38:37Z</time>
      </trkpt>
      <trkpt lat="48.36573" lon="-4.27697">
        <ele>61.4</ele>
        <time>2020-06-08T15:38:38Z</time>
      </trkpt>
      <trkpt lat="48.36577" lon="-4.27698">
        <ele>61.7</ele>
        <time>2020-06-08T15:38:39Z</time>
      </trkpt>
      <trkpt lat="48.3658" lon="-4.27697">
        <ele>61.8</ele>
        <time>2020-06-08T15:38:40Z</time>
      </trkpt>
      <trkpt lat="48.36583" lon="-4.27697">
        <ele>62</ele>
        <time>2020-06-08T15:38:41Z</time>
      </trkpt>
      <trkpt lat="48.36587" lon="-4.27698">
        <ele>62.3</ele>
        <time>2020-06-08T15:38:42Z</time>
      </trkpt>
      <trkpt lat="48.36589" lon="-4.27698">
        <ele>62.4</ele>
        <time>2020-06-08T15:38:43Z</time>
      </trkpt>
      <trkpt lat="48.36592" lon="-4.277">
        <ele>62.5</ele>
        <time>2020-06-08T15:38:44Z</time>
      </trkpt>
      <trkpt lat="48.36596" lon="-4.27701">
        <ele>62.8</ele>
        <time>2020-06-08T15:38:45Z</time>
      </trkpt>
      <trkpt lat="48.36599" lon="-4.27703">
        <ele>63</ele>
        <time>2020-06-08T15:38:46Z</time>
      </trkpt>
      <trkpt lat="48.366" lon="-4.27704">
        <ele>63.1</ele>
        <time>2020-06-08T15:38:47Z</time>
      </trkpt>
      <trkpt lat="48.36603" lon="-4.27705">
        <ele>63.2</ele>
        <time>2020-06-08T15:38:48Z</time>
      </trkpt>
      <trkpt lat="48.36605" lon="-4.27708">
        <ele>63.4</ele>
        <time>2020-06-08T15:38:49Z</time>
      </trkpt>
      <trkpt lat="48.36606" lon="-4.27709">
        <ele>63.5</ele>
        <time>2020-06-08T15:38:50Z</time>
      </trkpt>
      <trkpt lat="48.36609" lon="-4.27706">
        <ele>63.7</ele>
        <time>2020-06-08T15:38:51Z</time>
      </trkpt>
      <trkpt lat="48.36613" lon="-4.27708">
        <ele>63.9</ele>
        <time>2020-06-08T15:38:52Z</time>
      </trkpt>
      <trkpt lat="48.36614" lon="-4.27709">
        <ele>64</ele>
        <time>2020-06-08T15:38:53Z</time>
      </trkpt>
      <trkpt lat="48.36617" lon="-4.27711">
        <ele>64.1</ele>
        <time>2020-06-08T15:38:54Z</time>
      </trkpt>
      <trkpt lat="48.3662" lon="-4.27712">
        <ele>64.3</ele>
        <time>2020-06-08T15:38:55Z</time>
      </trkpt>
      <trkpt lat="48.36624" lon="-4.27714">
        <ele>64.6</ele>
        <time>2020-06-08T15:38:56Z</time>
      </trkpt>
      <trkpt lat="48.36626" lon="-4.27715">
        <ele>64.7</ele>
        <time>2020-06-08T15:38:57Z</time>
      </trkpt>
      <trkpt lat="48.36629" lon="-4.27718">
        <ele>64.9</ele>
        <time>2020-06-08T15:38:58Z</time>
      </trkpt>
      <trkpt lat="48.36632" lon="-4.2772">
        <ele>65.1</ele>
        <time>2020-06-08T15:38:59Z</time>
      </trkpt>
      <trkpt lat="48.36635" lon="-4.27722">
        <ele>65.3</ele>
        <time>2020-06-08T15:39:00Z</time>
      </trkpt>
      <trkpt lat="48.36638" lon="-4.27726">
        <ele>65.5</ele>
        <time>2020-06-08T15:39:01Z</time>
      </trkpt>
      <trkpt lat="48.36641" lon="-4.27728">
        <ele>65.7</ele>
        <time>2020-06-08T15:39:02Z</time>
      </trkpt>
      <trkpt lat="48.36644" lon="-4.27731">
        <ele>65.9</ele>
        <time>2020-06-08T15:39:03Z</time>
      </trkpt>
      <trkpt lat="48.36648" lon="-4.27733">
        <ele>66.1</ele>
        <time>2020-06-08T15:39:04Z</time>
      </trkpt>
      <trkpt lat="48.3665" lon="-4.27734">
        <ele>66.3</ele>
        <time>2020-06-08T15:39:05Z</time>
      </trkpt>
      <trkpt lat="48.36653" lon="-4.27737">
        <ele>66.4</ele>
        <time>2020-06-08T15:39:06Z</time>
      </trkpt>
      <trkpt lat="48.36655" lon="-4.27741">
        <ele>66.6</ele>
        <time>2020-06-08T15:39:07Z</time>
      </trkpt>
      <trkpt lat="48.36658" lon="-4.27742">
        <ele>66.9</ele>
        <time>2020-06-08T15:39:08Z</time>
      </trkpt>
      <trkpt lat="48.36661" lon="-4.27746">
        <ele>67.1</ele>
        <time>2020-06-08T15:39:09Z</time>
      </trkpt>
      <trkpt lat="48.36664" lon="-4.27752">
        <ele>67.4</ele>
        <time>2020-06-08T15:39:10Z</time>
      </trkpt>
      <trkpt lat="48.36666" lon="-4.27755">
        <ele>67.6</ele>
        <time>2020-06-08T15:39:11Z</time>
      </trkpt>
      <trkpt lat="48.36668" lon="-4.27758">
        <ele>67.7</ele>
        <time>2020-06-08T15:39:12Z</time>
      </trkpt>
      <trkpt lat="48.36671" lon="-4.2776">
        <ele>67.9</ele>
        <time>2020-06-08T15:39:13Z</time>
      </trkpt>
      <trkpt lat="48.36674" lon="-4.27763">
        <ele>68.1</ele>
        <time>2020-06-08T15:39:14Z</time>
      </trkpt>
      <trkpt lat="48.36675" lon="-4.27764">
        <ele>68.2</ele>
        <time>2020-06-08T15:39:15Z</time>
      </trkpt>
      <trkpt lat="48.36677" lon="-4.27768">
        <ele>68.4</ele>
        <time>2020-06-08T15:39:16Z</time>
      </trkpt>
      <trkpt lat="48.3668" lon="-4.2777">
        <ele>68.6</ele>
        <time>2020-06-08T15:39:17Z</time>
      </trkpt>
      <trkpt lat="48.36683" lon="-4.27772">
        <ele>68.7</ele>
        <time>2020-06-08T15:39:18Z</time>
      </trkpt>
      <trkpt lat="48.36686" lon="-4.27775">
        <ele>69</ele>
        <time>2020-06-08T15:39:19Z</time>
      </trkpt>
      <trkpt lat="48.36687" lon="-4.27776">
        <ele>69.1</ele>
        <time>2020-06-08T15:39:20Z</time>
      </trkpt>
      <trkpt lat="48.3669" lon="-4.27778">
        <ele>69.2</ele>
        <time>2020-06-08T15:39:21Z</time>
      </trkpt>
      <trkpt lat="48.36692" lon="-4.27781">
        <ele>69.4</ele>
        <time>2020-06-08T15:39:22Z</time>
      </trkpt>
      <trkpt lat="48.36695" lon="-4.27784">
        <ele>69.6</ele>
        <time>2020-06-08T15:39:23Z</time>
      </trkpt>
      <trkpt lat="48.36698" lon="-4.27787">
        <ele>69.9</ele>
        <time>2020-06-08T15:39:24Z</time>
      </trkpt>
      <trkpt lat="48.36701" lon="-4.2779">
        <ele>70.1</ele>
        <time>2020-06-08T15:39:25Z</time>
      </trkpt>
      <trkpt lat="48.36703" lon="-4.27792">
        <ele>70.3</ele>
        <time>2020-06-08T15:39:26Z</time>
      </trkpt>
      <trkpt lat="48.36706" lon="-4.27792">
        <ele>70.4</ele>
        <time>2020-06-08T15:39:27Z</time>
      </trkpt>
      <trkpt lat="48.36709" lon="-4.27794">
        <ele>70.6</ele>
        <time>2020-06-08T15:39:28Z</time>
      </trkpt>
      <trkpt lat="48.36712" lon="-4.27796">
        <ele>70.9</ele>
        <time>2020-06-08T15:39:29Z</time>
      </trkpt>
      <trkpt lat="48.36716" lon="-4.27798">
        <ele>71.1</ele>
        <time>2020-06-08T15:39:30Z</time>
      </trkpt>
      <trkpt lat="48.36719" lon="-4.27799">
        <ele>71.3</ele>
        <time>2020-06-08T15:39:31Z</time>
      </trkpt>
      <trkpt lat="48.36722" lon="-4.278">
        <ele>71.5</ele>
        <time>2020-06-08T15:39:32Z</time>
      </trkpt>
      <trkpt lat="48.36726" lon="-4.27799">
        <ele>71.7</ele>
        <time>2020-06-08T15:39:33Z</time>
      </trkpt>
      <trkpt lat="48.36727" lon="-4.27799">
        <ele>71.8</ele>
        <time>2020-06-08T15:39:34Z</time>
      </trkpt>
      <trkpt lat="48.36731" lon="-4.27799">
        <ele>72</ele>
        <time>2020-06-08T15:39:35Z</time>
      </trkpt>
      <trkpt lat="48.36734" lon="-4.278">
        <ele>72.2</ele>
        <time>2020-06-08T15:39:36Z</time>
      </trkpt>
      <trkpt lat="48.36737" lon="-4.27802">
        <ele>72.4</ele>
        <time>2020-06-08T15:39:37Z</time>
      </trkpt>
      <trkpt lat="48.3674" lon="-4.27802">
        <ele>72.6</ele>
        <time>2020-06-08T15:39:38Z</time>
      </trkpt>
      <trkpt lat="48.36744" lon="-4.27802">
        <ele>72.7</ele>
        <time>2020-06-08T15:39:39Z</time>
      </trkpt>
      <trkpt lat="48.36747" lon="-4.27802">
        <ele>72.9</ele>
        <time>2020-06-08T15:39:40Z</time>
      </trkpt>
      <trkpt lat="48.36751" lon="-4.27803">
        <ele>73.1</ele>
        <time>2020-06-08T15:39:41Z</time>
      </trkpt>
      <trkpt lat="48.36753" lon="-4.27805">
        <ele>73.2</ele>
        <time>2020-06-08T15:39:42Z</time>
      </trkpt>
      <trkpt lat="48.36756" lon="-4.27806">
        <ele>73.4</ele>
        <time>2020-06-08T15:39:43Z</time>
      </trkpt>
      <trkpt lat="48.3676" lon="-4.27807">
        <ele>73.6</ele>
        <time>2020-06-08T15:39:44Z</time>
      </trkpt>
      <trkpt lat="48.36764" lon="-4.27807">
        <ele>73.8</ele>
        <time>2020-06-08T15:39:45Z</time>
      </trkpt>
      <trkpt lat="48.36767" lon="-4.27806">
        <ele>73.9</ele>
        <time>2020-06-08T15:39:46Z</time>
      </trkpt>
      <trkpt lat="48.3677" lon="-4.27808">
        <ele>74.1</ele>
        <time>2020-06-08T15:39:47Z</time>
      </trkpt>
      <trkpt lat="48.36774" lon="-4.27809">
        <ele>74.3</ele>
        <time>2020-06-08T15:39:48Z</time>
      </trkpt>
      <trkpt lat="48.36776" lon="-4.2781">
        <ele>74.4</ele>
        <time>2020-06-08T15:39:49Z</time>
      </trkpt>
      <trkpt lat="48.36779" lon="-4.27811">
        <ele>74.5</ele>
        <time>2020-06-08T15:39:50Z</time>
      </trkpt>
      <trkpt lat="48.36783" lon="-4.27811">
        <ele>74.7</ele>
        <time>2020-06-08T15:39:51Z</time>
      </trkpt>
      <trkpt lat="48.36785" lon="-4.27811">
        <ele>74.8</ele>
        <time>2020-06-08T15:39:52Z</time>
      </trkpt>
      <trkpt lat="48.3679" lon="-4.2781">
        <ele>75</ele>
        <time>2020-06-08T15:39:53Z</time>
      </trkpt>
      <trkpt lat="48.36795" lon="-4.27811">
        <ele>75.2</ele>
        <time>2020-06-08T15:39:54Z</time>
      </trkpt>
      <trkpt lat="48.36797" lon="-4.27811">
        <ele>75.3</ele>
        <time>2020-06-08T15:39:55Z</time>
      </trkpt>
      <trkpt lat="48.368" lon="-4.27813">
        <ele>75.4</ele>
        <time>2020-06-08T15:39:56Z</time>
      </trkpt>
      <trkpt lat="48.36804" lon="-4.27814">
        <ele>75.6</ele>
        <time>2020-06-08T15:39:57Z</time>
      </trkpt>
      <trkpt lat="48.36807" lon="-4.27814">
        <ele>75.7</ele>
        <time>2020-06-08T15:39:58Z</time>
      </trkpt>
      <trkpt lat="48.36811" lon="-4.27814">
        <ele>75.9</ele>
        <time>2020-06-08T15:39:59Z</time>
      </trkpt>
      <trkpt lat="48.36815" lon="-4.27814">
        <ele>76</ele>
        <time>2020-06-08T15:40:00Z</time>
      </trkpt>
      <trkpt lat="48.36817" lon="-4.27816">
        <ele>76.2</ele>
        <time>2020-06-08T15:40:01Z</time>
      </trkpt>
      <trkpt lat="48.36821" lon="-4.27816">
        <ele>76.3</ele>
        <time>2020-06-08T15:40:02Z</time>
      </trkpt>
      <trkpt lat="48.36824" lon="-4.27816">
        <ele>76.5</ele>
        <time>2020-06-08T15:40:03Z</time>
      </trkpt>
      <trkpt lat="48.36827" lon="-4.27816">
        <ele>76.6</ele>
        <time>2020-06-08T15:40:04Z</time>
      </trkpt>
      <trkpt lat="48.3683" lon="-4.27816">
        <ele>76.7</ele>
        <time>2020-06-08T15:40:05Z</time>
      </trkpt>
      <trkpt lat="48.36834" lon="-4.27816">
        <ele>76.9</ele>
        <time>2020-06-08T15:40:06Z</time>
      </trkpt>
      <trkpt lat="48.36838" lon="-4.27817">
        <ele>77.1</ele>
        <time>2020-06-08T15:40:07Z</time>
      </trkpt>
      <trkpt lat="48.36842" lon="-4.27819">
        <ele>77.2</ele>
        <time>2020-06-08T15:40:08Z</time>
      </trkpt>
      <trkpt lat="48.36846" lon="-4.2782">
        <ele>77.3</ele>
        <time>2020-06-08T15:40:09Z</time>
      </trkpt>
      <trkpt lat="48.3685" lon="-4.27821">
        <ele>77.5</ele>
        <time>2020-06-08T15:40:10Z</time>
      </trkpt>
      <trkpt lat="48.36855" lon="-4.27821">
        <ele>77.6</ele>
        <time>2020-06-08T15:40:11Z</time>
      </trkpt>
      <trkpt lat="48.36857" lon="-4.27821">
        <ele>77.7</ele>
        <time>2020-06-08T15:40:12Z</time>
      </trkpt>
      <trkpt lat="48.36861" lon="-4.2782">
        <ele>77.8</ele>
        <time>2020-06-08T15:40:13Z</time>
      </trkpt>
      <trkpt lat="48.36864" lon="-4.27819">
        <ele>77.9</ele>
        <time>2020-06-08T15:40:14Z</time>
      </trkpt>
      <trkpt lat="48.36868" lon="-4.27818">
        <ele>78</ele>
        <time>2020-06-08T15:40:15Z</time>
      </trkpt>
      <trkpt lat="48.36873" lon="-4.27819">
        <ele>78.1</ele>
        <time>2020-06-08T15:40:16Z</time>
      </trkpt>
      <trkpt lat="48.36878" lon="-4.2782">
        <ele>78.3</ele>
        <time>2020-06-08T15:40:17Z</time>
      </trkpt>
      <trkpt lat="48.36882" lon="-4.27822">
        <ele>78.4</ele>
        <time>2020-06-08T15:40:18Z</time>
      </trkpt>
      <trkpt lat="48.36887" lon="-4.27823">
        <ele>78.5</ele>
        <time>2020-06-08T15:40:19Z</time>
      </trkpt>
      <trkpt lat="48.36892" lon="-4.27826">
        <ele>78.6</ele>
        <time>2020-06-08T15:40:20Z</time>
      </trkpt>
      <trkpt lat="48.36896" lon="-4.2783">
        <ele>78.7</ele>
        <time>2020-06-08T15:40:21Z</time>
      </trkpt>
      <trkpt lat="48.369" lon="-4.27833">
        <ele>78.7</ele>
        <time>2020-06-08T15:40:22Z</time>
      </trkpt>
      <trkpt lat="48.36904" lon="-4.27837">
        <ele>78.8</ele>
        <time>2020-06-08T15:40:23Z</time>
      </trkpt>
      <trkpt lat="48.36907" lon="-4.2784">
        <ele>78.9</ele>
        <time>2020-06-08T15:40:24Z</time>
      </trkpt>
      <trkpt lat="48.36911" lon="-4.27844">
        <ele>79</ele>
        <time>2020-06-08T15:40:25Z</time>
      </trkpt>
      <trkpt lat="48.36914" lon="-4.27847">
        <ele>79.1</ele>
        <time>2020-06-08T15:40:26Z</time>
      </trkpt>
      <trkpt lat="48.36918" lon="-4.2785">
        <ele>79.1</ele>
        <time>2020-06-08T15:40:27Z</time>
      </trkpt>
      <trkpt lat="48.36921" lon="-4.27852">
        <ele>79.2</ele>
        <time>2020-06-08T15:40:28Z</time>
      </trkpt>
      <trkpt lat="48.36924" lon="-4.27855">
        <ele>79.2</ele>
        <time>2020-06-08T15:40:29Z</time>
      </trkpt>
      <trkpt lat="48.36927" lon="-4.27858">
        <ele>79.3</ele>
        <time>2020-06-08T15:40:30Z</time>
      </trkpt>
      <trkpt lat="48.36927" lon="-4.27859">
        <ele>79.3</ele>
        <time>2020-06-08T15:40:31Z</time>
      </trkpt>
      <trkpt lat="48.3693" lon="-4.27858">
        <ele>79.4</ele>
        <time>2020-06-08T15:40:32Z</time>
      </trkpt>
      <trkpt lat="48.3693" lon="-4.27857">
        <ele>79.4</ele>
        <time>2020-06-08T15:40:33Z</time>
      </trkpt>
      <trkpt lat="48.3693" lon="-4.27857">
        <ele>79.4</ele>
        <time>2020-06-08T15:40:34Z</time>
      </trkpt>
      <trkpt lat="48.36931" lon="-4.27857">
        <ele>79.4</ele>
        <time>2020-06-08T15:40:35Z</time>
      </trkpt>
      <trkpt lat="48.36931" lon="-4.27858">
        <ele>79.4</ele>
        <time>2020-06-08T15:40:36Z</time>
      </trkpt>
      <trkpt lat="48.36931" lon="-4.27859">
        <ele>79.4</ele>
        <time>2020-06-08T15:40:37Z</time>
      </trkpt>
      <trkpt lat="48.36931" lon="-4.2786">
        <ele>79.4</ele>
        <time>2020-06-08T15:40:38Z</time>
      </trkpt>
      <trkpt lat="48.36932" lon="-4.2786">
        <ele>79.4</ele>
        <time>2020-06-08T15:40:39Z</time>
      </trkpt>
      <trkpt lat="48.36932" lon="-4.27861">
        <ele>79.4</ele>
        <time>2020-06-08T15:40:40Z</time>
      </trkpt>
      <trkpt lat="48.36932" lon="-4.27862">
        <ele>79.5</ele>
        <time>2020-06-08T15:40:41Z</time>
      </trkpt>
      <trkpt lat="48.36932" lon="-4.27863">
        <ele>79.5</ele>
        <time>2020-06-08T15:40:42Z</time>
      </trkpt>
      <trkpt lat="48.36933" lon="-4.27863">
        <ele>79.5</ele>
        <time>2020-06-08T15:42:05Z</time>
      </trkpt>
      <trkpt lat="48.36933" lon="-4.27864">
        <ele>79.5</ele>
        <time>2020-06-08T15:42:06Z</time>
      </trkpt>
      <trkpt lat="48.36933" lon="-4.27865">
        <ele>79.5</ele>
        <time>2020-06-08T15:42:07Z</time>
      </trkpt>
      <trkpt lat="48.36933" lon="-4.27866">
        <ele>79.5</ele>
        <time>2020-06-08T15:42:08Z</time>
      </trkpt>
      <trkpt lat="48.36934" lon="-4.27867">
        <ele>79.5</ele>
        <time>2020-06-08T15:42:09Z</time>
      </trkpt>
      <trkpt lat="48.36934" lon="-4.27867">
        <ele>79.5</ele>
        <time>2020-06-08T15:42:10Z</time>
      </trkpt>
      <trkpt lat="48.36934" lon="-4.27868">
        <ele>79.5</ele>
        <time>2020-06-08T15:42:11Z</time>
      </trkpt>
      <trkpt lat="48.36934" lon="-4.27869">
        <ele>79.6</ele>
        <time>2020-06-08T15:42:12Z</time>
      </trkpt>
      <trkpt lat="48.36935" lon="-4.2787">
        <ele>79.6</ele>
        <time>2020-06-08T15:42:13Z</time>
      </trkpt>
      <trkpt lat="48.36935" lon="-4.2787">
        <ele>79.6</ele>
        <time>2020-06-08T15:42:14Z</time>
      </trkpt>
      <trkpt lat="48.36935" lon="-4.27871">
        <ele>79.6</ele>
        <time>2020-06-08T15:42:15Z</time>
      </trkpt>
      <trkpt lat="48.36935" lon="-4.27872">
        <ele>79.6</ele>
        <time>2020-06-08T15:42:16Z</time>
      </trkpt>
      <trkpt lat="48.36936" lon="-4.27873">
        <ele>79.6</ele>
        <time>2020-06-08T15:45:40Z</time>
      </trkpt>
      <trkpt lat="48.36936" lon="-4.27874">
        <ele>79.6</ele>
        <time>2020-06-08T15:45:41Z</time>
      </trkpt>
      <trkpt lat="48.36938" lon="-4.27879">
        <ele>79.7</ele>
        <time>2020-06-08T15:45:42Z</time>
      </trkpt>
      <trkpt lat="48.36939" lon="-4.2788">
        <ele>79.7</ele>
        <time>2020-06-08T15:45:43Z</time>
      </trkpt>
      <trkpt lat="48.36942" lon="-4.27884">
        <ele>79.8</ele>
        <time>2020-06-08T15:45:44Z</time>
      </trkpt>
      <trkpt lat="48.36943" lon="-4.27885">
        <ele>79.8</ele>
        <time>2020-06-08T15:45:45Z</time>
      </trkpt>
      <trkpt lat="48.36944" lon="-4.27889">
        <ele>79.8</ele>
        <time>2020-06-08T15:45:46Z</time>
      </trkpt>
      <trkpt lat="48.36946" lon="-4.27893">
        <ele>79.9</ele>
        <time>2020-06-08T15:45:47Z</time>
      </trkpt>
      <trkpt lat="48.36948" lon="-4.27896">
        <ele>79.9</ele>
        <time>2020-06-08T15:45:48Z</time>
      </trkpt>
      <trkpt lat="48.36949" lon="-4.279">
        <ele>79.9</ele>
        <time>2020-06-08T15:45:49Z</time>
      </trkpt>
      <trkpt lat="48.3695" lon="-4.27905">
        <ele>80</ele>
        <time>2020-06-08T15:45:50Z</time>
      </trkpt>
      <trkpt lat="48.3695" lon="-4.27907">
        <ele>80</ele>
        <time>2020-06-08T15:45:51Z</time>
      </trkpt>
      <trkpt lat="48.36952" lon="-4.27911">
        <ele>80</ele>
        <time>2020-06-08T15:45:52Z</time>
      </trkpt>
      <trkpt lat="48.36953" lon="-4.27912">
        <ele>80</ele>
        <time>2020-06-08T15:45:53Z</time>
      </trkpt>
      <trkpt lat="48.36954" lon="-4.27916">
        <ele>80</ele>
        <time>2020-06-08T15:45:54Z</time>
      </trkpt>
      <trkpt lat="48.36956" lon="-4.2792">
        <ele>80.1</ele>
        <time>2020-06-08T15:45:55Z</time>
      </trkpt>
      <trkpt lat="48.36958" lon="-4.27924">
        <ele>80.1</ele>
        <time>2020-06-08T15:45:56Z</time>
      </trkpt>
      <trkpt lat="48.36959" lon="-4.27927">
        <ele>80.1</ele>
        <time>2020-06-08T15:45:57Z</time>
      </trkpt>
      <trkpt lat="48.36962" lon="-4.27932">
        <ele>80.2</ele>
        <time>2020-06-08T15:45:58Z</time>
      </trkpt>
      <trkpt lat="48.36963" lon="-4.27933">
        <ele>80.2</ele>
        <time>2020-06-08T15:45:59Z</time>
      </trkpt>
      <trkpt lat="48.36964" lon="-4.27937">
        <ele>80.2</ele>
        <time>2020-06-08T15:46:00Z</time>
      </trkpt>
      <trkpt lat="48.36965" lon="-4.27941">
        <ele>80.2</ele>
        <time>2020-06-08T15:46:01Z</time>
      </trkpt>
      <trkpt lat="48.36967" lon="-4.27944">
        <ele>80.2</ele>
        <time>2020-06-08T15:46:02Z</time>
      </trkpt>
      <trkpt lat="48.36969" lon="-4.27948">
        <ele>80.2</ele>
        <time>2020-06-08T15:46:03Z</time>
      </trkpt>
      <trkpt lat="48.36971" lon="-4.27952">
        <ele>80.2</ele>
        <time>2020-06-08T15:46:04Z</time>
      </trkpt>
      <trkpt lat="48.36972" lon="-4.27955">
        <ele>80.2</ele>
        <time>2020-06-08T15:46:05Z</time>
      </trkpt>
      <trkpt lat="48.36974" lon="-4.27959">
        <ele>80.3</ele>
        <time>2020-06-08T15:46:06Z</time>
      </trkpt>
      <trkpt lat="48.36975" lon="-4.2796">
        <ele>80.3</ele>
        <time>2020-06-08T15:46:07Z</time>
      </trkpt>
      <trkpt lat="48.36976" lon="-4.27964">
        <ele>80.3</ele>
        <time>2020-06-08T15:46:08Z</time>
      </trkpt>
      <trkpt lat="48.36977" lon="-4.27966">
        <ele>80.3</ele>
        <time>2020-06-08T15:46:09Z</time>
      </trkpt>
      <trkpt lat="48.36979" lon="-4.27971">
        <ele>80.3</ele>
        <time>2020-06-08T15:46:10Z</time>
      </trkpt>
      <trkpt lat="48.36979" lon="-4.27973">
        <ele>80.3</ele>
        <time>2020-06-08T15:46:11Z</time>
      </trkpt>
      <trkpt lat="48.36981" lon="-4.27977">
        <ele>80.3</ele>
        <time>2020-06-08T15:46:12Z</time>
      </trkpt>
      <trkpt lat="48.36983" lon="-4.27982">
        <ele>80.3</ele>
        <time>2020-06-08T15:46:13Z</time>
      </trkpt>
      <trkpt lat="48.36984" lon="-4.27983">
        <ele>80.3</ele>
        <time>2020-06-08T15:46:14Z</time>
      </trkpt>
      <trkpt lat="48.36986" lon="-4.27988">
        <ele>80.3</ele>
        <time>2020-06-08T15:46:15Z</time>
      </trkpt>
      <trkpt lat="48.36987" lon="-4.27991">
        <ele>80.3</ele>
        <time>2020-06-08T15:46:16Z</time>
      </trkpt>
      <trkpt lat="48.36989" lon="-4.27995">
        <ele>80.3</ele>
        <time>2020-06-08T15:46:17Z</time>
      </trkpt>
      <trkpt lat="48.3699" lon="-4.27997">
        <ele>80.3</ele>
        <time>2020-06-08T15:46:18Z</time>
      </trkpt>
      <trkpt lat="48.36991" lon="-4.28">
        <ele>80.3</ele>
        <time>2020-06-08T15:46:19Z</time>
      </trkpt>
      <trkpt lat="48.36993" lon="-4.28004">
        <ele>80.3</ele>
        <time>2020-06-08T15:46:20Z</time>
      </trkpt>
      <trkpt lat="48.36995" lon="-4.28007">
        <ele>80.3</ele>
        <time>2020-06-08T15:46:21Z</time>
      </trkpt>
      <trkpt lat="48.36996" lon="-4.28012">
        <ele>80.3</ele>
        <time>2020-06-08T15:46:22Z</time>
      </trkpt>
      <trkpt lat="48.36997" lon="-4.28013">
        <ele>80.3</ele>
        <time>2020-06-08T15:46:23Z</time>
      </trkpt>
      <trkpt lat="48.36998" lon="-4.28019">
        <ele>80.3</ele>
        <time>2020-06-08T15:46:24Z</time>
      </trkpt>
      <trkpt lat="48.36999" lon="-4.28021">
        <ele>80.3</ele>
        <time>2020-06-08T15:46:25Z</time>
      </trkpt>
      <trkpt lat="48.37001" lon="-4.28024">
        <ele>80.3</ele>
        <time>2020-06-08T15:46:26Z</time>
      </trkpt>
      <trkpt lat="48.37002" lon="-4.28028">
        <ele>80.3</ele>
        <time>2020-06-08T15:46:27Z</time>
      </trkpt>
      <trkpt lat="48.37004" lon="-4.28032">
        <ele>80.3</ele>
        <time>2020-06-08T15:46:28Z</time>
      </trkpt>
      <trkpt lat="48.37005" lon="-4.28033">
        <ele>80.3</ele>
        <time>2020-06-08T15:46:29Z</time>
      </trkpt>
      <trkpt lat="48.37006" lon="-4.28038">
        <ele>80.2</ele>
        <time>2020-06-08T15:46:30Z</time>
      </trkpt>
      <trkpt lat="48.37007" lon="-4.28039">
        <ele>80.2</ele>
        <time>2020-06-08T15:46:31Z</time>
      </trkpt>
      <trkpt lat="48.37008" lon="-4.28043">
        <ele>80.2</ele>
        <time>2020-06-08T15:46:32Z</time>
      </trkpt>
      <trkpt lat="48.3701" lon="-4.28046">
        <ele>80.2</ele>
        <time>2020-06-08T15:46:33Z</time>
      </trkpt>
      <trkpt lat="48.37012" lon="-4.28051">
        <ele>80.2</ele>
        <time>2020-06-08T15:46:34Z</time>
      </trkpt>
      <trkpt lat="48.37013" lon="-4.28056">
        <ele>80.2</ele>
        <time>2020-06-08T15:46:35Z</time>
      </trkpt>
      <trkpt lat="48.37015" lon="-4.28061">
        <ele>80.1</ele>
        <time>2020-06-08T15:46:36Z</time>
      </trkpt>
      <trkpt lat="48.37016" lon="-4.28065">
        <ele>80.1</ele>
        <time>2020-06-08T15:46:37Z</time>
      </trkpt>
      <trkpt lat="48.37018" lon="-4.28069">
        <ele>80.1</ele>
        <time>2020-06-08T15:46:38Z</time>
      </trkpt>
      <trkpt lat="48.3702" lon="-4.28072">
        <ele>80.1</ele>
        <time>2020-06-08T15:46:39Z</time>
      </trkpt>
      <trkpt lat="48.37022" lon="-4.28077">
        <ele>80.1</ele>
        <time>2020-06-08T15:46:40Z</time>
      </trkpt>
      <trkpt lat="48.37024" lon="-4.28081">
        <ele>80.1</ele>
        <time>2020-06-08T15:46:41Z</time>
      </trkpt>
      <trkpt lat="48.37026" lon="-4.28084">
        <ele>80.1</ele>
        <time>2020-06-08T15:46:42Z</time>
      </trkpt>
      <trkpt lat="48.37027" lon="-4.28088">
        <ele>80.1</ele>
        <time>2020-06-08T15:46:43Z</time>
      </trkpt>
      <trkpt lat="48.37028" lon="-4.28092">
        <ele>80.1</ele>
        <time>2020-06-08T15:46:44Z</time>
      </trkpt>
      <trkpt lat="48.3703" lon="-4.28097">
        <ele>80.1</ele>
        <time>2020-06-08T15:46:45Z</time>
      </trkpt>
      <trkpt lat="48.37031" lon="-4.28101">
        <ele>80.1</ele>
        <time>2020-06-08T15:46:46Z</time>
      </trkpt>
      <trkpt lat="48.37033" lon="-4.28107">
        <ele>80.2</ele>
        <time>2020-06-08T15:46:47Z</time>
      </trkpt>
      <trkpt lat="48.37033" lon="-4.28109">
        <ele>80.2</ele>
        <time>2020-06-08T15:46:48Z</time>
      </trkpt>
      <trkpt lat="48.37035" lon="-4.28115">
        <ele>80.2</ele>
        <time>2020-06-08T15:46:49Z</time>
      </trkpt>
      <trkpt lat="48.37036" lon="-4.2812">
        <ele>80.2</ele>
        <time>2020-06-08T15:46:50Z</time>
      </trkpt>
      <trkpt lat="48.37037" lon="-4.28122">
        <ele>80.3</ele>
        <time>2020-06-08T15:46:51Z</time>
      </trkpt>
      <trkpt lat="48.37038" lon="-4.28125">
        <ele>80.3</ele>
        <time>2020-06-08T15:46:52Z</time>
      </trkpt>
      <trkpt lat="48.37039" lon="-4.28129">
        <ele>80.3</ele>
        <time>2020-06-08T15:46:53Z</time>
      </trkpt>
      <trkpt lat="48.3704" lon="-4.28134">
        <ele>80.2</ele>
        <time>2020-06-08T15:46:54Z</time>
      </trkpt>
      <trkpt lat="48.37041" lon="-4.28138">
        <ele>80.2</ele>
        <time>2020-06-08T15:46:55Z</time>
      </trkpt>
      <trkpt lat="48.37043" lon="-4.28145">
        <ele>80.2</ele>
        <time>2020-06-08T15:46:56Z</time>
      </trkpt>
      <trkpt lat="48.37044" lon="-4.2815">
        <ele>80.2</ele>
        <time>2020-06-08T15:46:57Z</time>
      </trkpt>
      <trkpt lat="48.37045" lon="-4.28155">
        <ele>80.2</ele>
        <time>2020-06-08T15:46:58Z</time>
      </trkpt>
      <trkpt lat="48.37046" lon="-4.28159">
        <ele>80.2</ele>
        <time>2020-06-08T15:46:59Z</time>
      </trkpt>
      <trkpt lat="48.37048" lon="-4.28164">
        <ele>80.2</ele>
        <time>2020-06-08T15:47:00Z</time>
      </trkpt>
      <trkpt lat="48.3705" lon="-4.28169">
        <ele>80.2</ele>
        <time>2020-06-08T15:47:01Z</time>
      </trkpt>
      <trkpt lat="48.37052" lon="-4.28174">
        <ele>80.2</ele>
        <time>2020-06-08T15:47:02Z</time>
      </trkpt>
      <trkpt lat="48.37053" lon="-4.28179">
        <ele>80.2</ele>
        <time>2020-06-08T15:47:03Z</time>
      </trkpt>
      <trkpt lat="48.37055" lon="-4.28183">
        <ele>80.2</ele>
        <time>2020-06-08T15:47:04Z</time>
      </trkpt>
      <trkpt lat="48.37057" lon="-4.28187">
        <ele>80.2</ele>
        <time>2020-06-08T15:47:05Z</time>
      </trkpt>
      <trkpt lat="48.37058" lon="-4.28188">
        <ele>80.3</ele>
        <time>2020-06-08T15:47:06Z</time>
      </trkpt>
      <trkpt lat="48.37059" lon="-4.28192">
        <ele>80.3</ele>
        <time>2020-06-08T15:47:07Z</time>
      </trkpt>
      <trkpt lat="48.3706" lon="-4.28194">
        <ele>80.3</ele>
        <time>2020-06-08T15:47:08Z</time>
      </trkpt>
      <trkpt lat="48.37063" lon="-4.28198">
        <ele>80.3</ele>
        <time>2020-06-08T15:47:09Z</time>
      </trkpt>
      <trkpt lat="48.37064" lon="-4.28199">
        <ele>80.3</ele>
        <time>2020-06-08T15:47:10Z</time>
      </trkpt>
      <trkpt lat="48.37066" lon="-4.28204">
        <ele>80.4</ele>
        <time>2020-06-08T15:47:11Z</time>
      </trkpt>
      <trkpt lat="48.37066" lon="-4.28205">
        <ele>80.4</ele>
        <time>2020-06-08T15:47:12Z</time>
      </trkpt>
      <trkpt lat="48.37067" lon="-4.2821">
        <ele>80.4</ele>
        <time>2020-06-08T15:47:13Z</time>
      </trkpt>
      <trkpt lat="48.37068" lon="-4.28214">
        <ele>80.5</ele>
        <time>2020-06-08T15:47:14Z</time>
      </trkpt>
      <trkpt lat="48.37071" lon="-4.28218">
        <ele>80.5</ele>
        <time>2020-06-08T15:47:15Z</time>
      </trkpt>
      <trkpt lat="48.37073" lon="-4.28223">
        <ele>80.6</ele>
        <time>2020-06-08T15:47:16Z</time>
      </trkpt>
      <trkpt lat="48.37075" lon="-4.28227">
        <ele>80.6</ele>
        <time>2020-06-08T15:47:17Z</time>
      </trkpt>
      <trkpt lat="48.37077" lon="-4.2823">
        <ele>80.7</ele>
        <time>2020-06-08T15:47:18Z</time>
      </trkpt>
      <trkpt lat="48.37078" lon="-4.28232">
        <ele>80.7</ele>
        <time>2020-06-08T15:47:19Z</time>
      </trkpt>
      <trkpt lat="48.37081" lon="-4.28237">
        <ele>80.8</ele>
        <time>2020-06-08T15:47:20Z</time>
      </trkpt>
      <trkpt lat="48.37082" lon="-4.28239">
        <ele>80.8</ele>
        <time>2020-06-08T15:47:21Z</time>
      </trkpt>
      <trkpt lat="48.37085" lon="-4.28245">
        <ele>80.9</ele>
        <time>2020-06-08T15:47:22Z</time>
      </trkpt>
      <trkpt lat="48.37087" lon="-4.2825">
        <ele>80.9</ele>
        <time>2020-06-08T15:47:23Z</time>
      </trkpt>
      <trkpt lat="48.37089" lon="-4.28255">
        <ele>81</ele>
        <time>2020-06-08T15:47:24Z</time>
      </trkpt>
      <trkpt lat="48.3709" lon="-4.28263">
        <ele>81.2</ele>
        <time>2020-06-08T15:47:25Z</time>
      </trkpt>
      <trkpt lat="48.37092" lon="-4.28268">
        <ele>81.2</ele>
        <time>2020-06-08T15:47:26Z</time>
      </trkpt>
      <trkpt lat="48.37094" lon="-4.28272">
        <ele>81.3</ele>
        <time>2020-06-08T15:47:27Z</time>
      </trkpt>
      <trkpt lat="48.37097" lon="-4.28276">
        <ele>81.4</ele>
        <time>2020-06-08T15:47:28Z</time>
      </trkpt>
      <trkpt lat="48.37099" lon="-4.2828">
        <ele>81.5</ele>
        <time>2020-06-08T15:47:29Z</time>
      </trkpt>
      <trkpt lat="48.37101" lon="-4.28285">
        <ele>81.6</ele>
        <time>2020-06-08T15:47:30Z</time>
      </trkpt>
      <trkpt lat="48.37103" lon="-4.2829">
        <ele>81.7</ele>
        <time>2020-06-08T15:47:31Z</time>
      </trkpt>
      <trkpt lat="48.37105" lon="-4.28294">
        <ele>81.8</ele>
        <time>2020-06-08T15:47:32Z</time>
      </trkpt>
      <trkpt lat="48.37108" lon="-4.28297">
        <ele>81.9</ele>
        <time>2020-06-08T15:47:33Z</time>
      </trkpt>
      <trkpt lat="48.3711" lon="-4.28299">
        <ele>82</ele>
        <time>2020-06-08T15:47:34Z</time>
      </trkpt>
      <trkpt lat="48.37113" lon="-4.28302">
        <ele>82.1</ele>
        <time>2020-06-08T15:47:35Z</time>
      </trkpt>
      <trkpt lat="48.37114" lon="-4.28303">
        <ele>82.1</ele>
        <time>2020-06-08T15:47:36Z</time>
      </trkpt>
      <trkpt lat="48.37117" lon="-4.28305">
        <ele>82.2</ele>
        <time>2020-06-08T15:47:37Z</time>
      </trkpt>
      <trkpt lat="48.37117" lon="-4.2831">
        <ele>82.3</ele>
        <time>2020-06-08T15:47:38Z</time>
      </trkpt>
      <trkpt lat="48.37119" lon="-4.28314">
        <ele>82.4</ele>
        <time>2020-06-08T15:47:39Z</time>
      </trkpt>
      <trkpt lat="48.37122" lon="-4.28316">
        <ele>82.5</ele>
        <time>2020-06-08T15:47:40Z</time>
      </trkpt>
      <trkpt lat="48.37125" lon="-4.2832">
        <ele>82.6</ele>
        <time>2020-06-08T15:47:41Z</time>
      </trkpt>
      <trkpt lat="48.37127" lon="-4.28323">
        <ele>82.7</ele>
        <time>2020-06-08T15:47:42Z</time>
      </trkpt>
      <trkpt lat="48.37131" lon="-4.28325">
        <ele>82.8</ele>
        <time>2020-06-08T15:47:43Z</time>
      </trkpt>
      <trkpt lat="48.37135" lon="-4.28328">
        <ele>83</ele>
        <time>2020-06-08T15:47:44Z</time>
      </trkpt>
      <trkpt lat="48.37139" lon="-4.28331">
        <ele>83.2</ele>
        <time>2020-06-08T15:47:45Z</time>
      </trkpt>
      <trkpt lat="48.37142" lon="-4.28334">
        <ele>83.3</ele>
        <time>2020-06-08T15:47:46Z</time>
      </trkpt>
      <trkpt lat="48.37144" lon="-4.28337">
        <ele>83.5</ele>
        <time>2020-06-08T15:47:47Z</time>
      </trkpt>
      <trkpt lat="48.37146" lon="-4.28341">
        <ele>83.6</ele>
        <time>2020-06-08T15:47:48Z</time>
      </trkpt>
      <trkpt lat="48.37149" lon="-4.28344">
        <ele>83.7</ele>
        <time>2020-06-08T15:47:49Z</time>
      </trkpt>
      <trkpt lat="48.37152" lon="-4.28346">
        <ele>83.8</ele>
        <time>2020-06-08T15:47:50Z</time>
      </trkpt>
      <trkpt lat="48.37154" lon="-4.28349">
        <ele>84</ele>
        <time>2020-06-08T15:47:51Z</time>
      </trkpt>
      <trkpt lat="48.37157" lon="-4.28352">
        <ele>84.1</ele>
        <time>2020-06-08T15:47:52Z</time>
      </trkpt>
      <trkpt lat="48.37159" lon="-4.28355">
        <ele>84.2</ele>
        <time>2020-06-08T15:47:53Z</time>
      </trkpt>
      <trkpt lat="48.37162" lon="-4.28357">
        <ele>84.3</ele>
        <time>2020-06-08T15:47:54Z</time>
      </trkpt>
      <trkpt lat="48.37165" lon="-4.28361">
        <ele>84.4</ele>
        <time>2020-06-08T15:47:55Z</time>
      </trkpt>
      <trkpt lat="48.37168" lon="-4.28364">
        <ele>84.6</ele>
        <time>2020-06-08T15:47:56Z</time>
      </trkpt>
      <trkpt lat="48.37171" lon="-4.28368">
        <ele>84.7</ele>
        <time>2020-06-08T15:47:57Z</time>
      </trkpt>
      <trkpt lat="48.37173" lon="-4.2837">
        <ele>84.9</ele>
        <time>2020-06-08T15:47:58Z</time>
      </trkpt>
      <trkpt lat="48.37177" lon="-4.28372">
        <ele>85</ele>
        <time>2020-06-08T15:47:59Z</time>
      </trkpt>
      <trkpt lat="48.37179" lon="-4.28374">
        <ele>85.1</ele>
        <time>2020-06-08T15:48:00Z</time>
      </trkpt>
      <trkpt lat="48.37181" lon="-4.28376">
        <ele>85.2</ele>
        <time>2020-06-08T15:48:01Z</time>
      </trkpt>
      <trkpt lat="48.37184" lon="-4.28379">
        <ele>85.3</ele>
        <time>2020-06-08T15:48:02Z</time>
      </trkpt>
      <trkpt lat="48.37187" lon="-4.28381">
        <ele>85.4</ele>
        <time>2020-06-08T15:48:03Z</time>
      </trkpt>
      <trkpt lat="48.3719" lon="-4.28384">
        <ele>85.5</ele>
        <time>2020-06-08T15:48:04Z</time>
      </trkpt>
      <trkpt lat="48.37194" lon="-4.28387">
        <ele>85.7</ele>
        <time>2020-06-08T15:48:05Z</time>
      </trkpt>
      <trkpt lat="48.37195" lon="-4.28388">
        <ele>85.7</ele>
        <time>2020-06-08T15:48:06Z</time>
      </trkpt>
      <trkpt lat="48.37198" lon="-4.2839">
        <ele>85.8</ele>
        <time>2020-06-08T15:48:07Z</time>
      </trkpt>
      <trkpt lat="48.37199" lon="-4.28391">
        <ele>85.9</ele>
        <time>2020-06-08T15:48:08Z</time>
      </trkpt>
      <trkpt lat="48.37203" lon="-4.28393">
        <ele>86</ele>
        <time>2020-06-08T15:48:09Z</time>
      </trkpt>
      <trkpt lat="48.37205" lon="-4.28395">
        <ele>86</ele>
        <time>2020-06-08T15:48:10Z</time>
      </trkpt>
      <trkpt lat="48.37209" lon="-4.28397">
        <ele>86.1</ele>
        <time>2020-06-08T15:48:11Z</time>
      </trkpt>
      <trkpt lat="48.37212" lon="-4.284">
        <ele>86.1</ele>
        <time>2020-06-08T15:48:12Z</time>
      </trkpt>
      <trkpt lat="48.37214" lon="-4.28403">
        <ele>86.2</ele>
        <time>2020-06-08T15:48:13Z</time>
      </trkpt>
      <trkpt lat="48.37219" lon="-4.28404">
        <ele>86.3</ele>
        <time>2020-06-08T15:48:14Z</time>
      </trkpt>
      <trkpt lat="48.37221" lon="-4.28405">
        <ele>86.3</ele>
        <time>2020-06-08T15:48:15Z</time>
      </trkpt>
      <trkpt lat="48.37223" lon="-4.28408">
        <ele>86.3</ele>
        <time>2020-06-08T15:48:16Z</time>
      </trkpt>
      <trkpt lat="48.37226" lon="-4.28409">
        <ele>86.5</ele>
        <time>2020-06-08T15:48:17Z</time>
      </trkpt>
      <trkpt lat="48.3723" lon="-4.28411">
        <ele>86.6</ele>
        <time>2020-06-08T15:48:18Z</time>
      </trkpt>
      <trkpt lat="48.37233" lon="-4.28412">
        <ele>86.6</ele>
        <time>2020-06-08T15:48:19Z</time>
      </trkpt>
      <trkpt lat="48.37236" lon="-4.28414">
        <ele>86.7</ele>
        <time>2020-06-08T15:48:20Z</time>
      </trkpt>
      <trkpt lat="48.3724" lon="-4.28415">
        <ele>86.8</ele>
        <time>2020-06-08T15:48:21Z</time>
      </trkpt>
      <trkpt lat="48.37244" lon="-4.28416">
        <ele>86.9</ele>
        <time>2020-06-08T15:48:22Z</time>
      </trkpt>
      <trkpt lat="48.37248" lon="-4.28417">
        <ele>86.9</ele>
        <time>2020-06-08T15:48:23Z</time>
      </trkpt>
      <trkpt lat="48.37252" lon="-4.28418">
        <ele>87</ele>
        <time>2020-06-08T15:48:24Z</time>
      </trkpt>
      <trkpt lat="48.37255" lon="-4.28421">
        <ele>87.1</ele>
        <time>2020-06-08T15:48:25Z</time>
      </trkpt>
      <trkpt lat="48.37257" lon="-4.28421">
        <ele>87.1</ele>
        <time>2020-06-08T15:48:26Z</time>
      </trkpt>
      <trkpt lat="48.37261" lon="-4.28422">
        <ele>87.2</ele>
        <time>2020-06-08T15:48:27Z</time>
      </trkpt>
      <trkpt lat="48.37264" lon="-4.28422">
        <ele>87.3</ele>
        <time>2020-06-08T15:48:28Z</time>
      </trkpt>
      <trkpt lat="48.37267" lon="-4.28422">
        <ele>87.3</ele>
        <time>2020-06-08T15:48:29Z</time>
      </trkpt>
      <trkpt lat="48.3727" lon="-4.28423">
        <ele>87.4</ele>
        <time>2020-06-08T15:48:30Z</time>
      </trkpt>
      <trkpt lat="48.37274" lon="-4.28424">
        <ele>87.5</ele>
        <time>2020-06-08T15:48:31Z</time>
      </trkpt>
      <trkpt lat="48.37277" lon="-4.28426">
        <ele>87.5</ele>
        <time>2020-06-08T15:48:32Z</time>
      </trkpt>
      <trkpt lat="48.37281" lon="-4.28427">
        <ele>87.6</ele>
        <time>2020-06-08T15:48:33Z</time>
      </trkpt>
      <trkpt lat="48.37285" lon="-4.28427">
        <ele>87.6</ele>
        <time>2020-06-08T15:48:34Z</time>
      </trkpt>
      <trkpt lat="48.37287" lon="-4.28429">
        <ele>87.7</ele>
        <time>2020-06-08T15:48:35Z</time>
      </trkpt>
      <trkpt lat="48.37291" lon="-4.28432">
        <ele>87.8</ele>
        <time>2020-06-08T15:48:36Z</time>
      </trkpt>
      <trkpt lat="48.37294" lon="-4.28433">
        <ele>87.8</ele>
        <time>2020-06-08T15:48:37Z</time>
      </trkpt>
      <trkpt lat="48.37297" lon="-4.28434">
        <ele>87.9</ele>
        <time>2020-06-08T15:48:38Z</time>
      </trkpt>
      <trkpt lat="48.37301" lon="-4.28435">
        <ele>88</ele>
        <time>2020-06-08T15:48:39Z</time>
      </trkpt>
      <trkpt lat="48.37304" lon="-4.28437">
        <ele>88</ele>
        <time>2020-06-08T15:48:40Z</time>
      </trkpt>
      <trkpt lat="48.37308" lon="-4.28438">
        <ele>88.1</ele>
        <time>2020-06-08T15:48:41Z</time>
      </trkpt>
      <trkpt lat="48.37312" lon="-4.28439">
        <ele>88.2</ele>
        <time>2020-06-08T15:48:42Z</time>
      </trkpt>
      <trkpt lat="48.37315" lon="-4.28441">
        <ele>88.3</ele>
        <time>2020-06-08T15:48:43Z</time>
      </trkpt>
      <trkpt lat="48.37319" lon="-4.28444">
        <ele>88.4</ele>
        <time>2020-06-08T15:48:44Z</time>
      </trkpt>
      <trkpt lat="48.3732" lon="-4.28445">
        <ele>88.4</ele>
        <time>2020-06-08T15:48:45Z</time>
      </trkpt>
      <trkpt lat="48.37324" lon="-4.28446">
        <ele>88.5</ele>
        <time>2020-06-08T15:48:46Z</time>
      </trkpt>
      <trkpt lat="48.37327" lon="-4.28449">
        <ele>88.5</ele>
        <time>2020-06-08T15:48:47Z</time>
      </trkpt>
      <trkpt lat="48.37331" lon="-4.2845">
        <ele>88.6</ele>
        <time>2020-06-08T15:48:48Z</time>
      </trkpt>
      <trkpt lat="48.37334" lon="-4.28452">
        <ele>88.7</ele>
        <time>2020-06-08T15:48:49Z</time>
      </trkpt>
      <trkpt lat="48.37337" lon="-4.28453">
        <ele>88.7</ele>
        <time>2020-06-08T15:48:50Z</time>
      </trkpt>
      <trkpt lat="48.37341" lon="-4.28453">
        <ele>88.8</ele>
        <time>2020-06-08T15:48:51Z</time>
      </trkpt>
      <trkpt lat="48.37345" lon="-4.28454">
        <ele>88.8</ele>
        <time>2020-06-08T15:48:52Z</time>
      </trkpt>
      <trkpt lat="48.37349" lon="-4.28455">
        <ele>88.9</ele>
        <time>2020-06-08T15:48:53Z</time>
      </trkpt>
      <trkpt lat="48.37352" lon="-4.28457">
        <ele>88.9</ele>
        <time>2020-06-08T15:48:54Z</time>
      </trkpt>
      <trkpt lat="48.37355" lon="-4.28458">
        <ele>88.9</ele>
        <time>2020-06-08T15:48:55Z</time>
      </trkpt>
      <trkpt lat="48.37358" lon="-4.2846">
        <ele>89</ele>
        <time>2020-06-08T15:48:56Z</time>
      </trkpt>
      <trkpt lat="48.3736" lon="-4.28461">
        <ele>89</ele>
        <time>2020-06-08T15:48:57Z</time>
      </trkpt>
      <trkpt lat="48.37365" lon="-4.28462">
        <ele>89</ele>
        <time>2020-06-08T15:48:58Z</time>
      </trkpt>
      <trkpt lat="48.37369" lon="-4.28463">
        <ele>89</ele>
        <time>2020-06-08T15:48:59Z</time>
      </trkpt>
      <trkpt lat="48.37372" lon="-4.28465">
        <ele>89</ele>
        <time>2020-06-08T15:49:00Z</time>
      </trkpt>
      <trkpt lat="48.37375" lon="-4.28468">
        <ele>89</ele>
        <time>2020-06-08T15:49:01Z</time>
      </trkpt>
      <trkpt lat="48.37377" lon="-4.2847">
        <ele>89</ele>
        <time>2020-06-08T15:49:02Z</time>
      </trkpt>
      <trkpt lat="48.3738" lon="-4.28472">
        <ele>89</ele>
        <time>2020-06-08T15:49:03Z</time>
      </trkpt>
      <trkpt lat="48.37383" lon="-4.28473">
        <ele>89</ele>
        <time>2020-06-08T15:49:04Z</time>
      </trkpt>
      <trkpt lat="48.37387" lon="-4.28474">
        <ele>89</ele>
        <time>2020-06-08T15:49:05Z</time>
      </trkpt>
      <trkpt lat="48.3739" lon="-4.28475">
        <ele>88.9</ele>
        <time>2020-06-08T15:49:06Z</time>
      </trkpt>
      <trkpt lat="48.37393" lon="-4.28476">
        <ele>88.9</ele>
        <time>2020-06-08T15:49:07Z</time>
      </trkpt>
      <trkpt lat="48.37396" lon="-4.28477">
        <ele>88.8</ele>
        <time>2020-06-08T15:49:08Z</time>
      </trkpt>
      <trkpt lat="48.37399" lon="-4.28479">
        <ele>88.7</ele>
        <time>2020-06-08T15:49:09Z</time>
      </trkpt>
      <trkpt lat="48.37403" lon="-4.28481">
        <ele>88.6</ele>
        <time>2020-06-08T15:49:10Z</time>
      </trkpt>
      <trkpt lat="48.37406" lon="-4.28484">
        <ele>88.5</ele>
        <time>2020-06-08T15:49:11Z</time>
      </trkpt>
      <trkpt lat="48.37411" lon="-4.28486">
        <ele>88.4</ele>
        <time>2020-06-08T15:49:12Z</time>
      </trkpt>
      <trkpt lat="48.37415" lon="-4.2849">
        <ele>88.2</ele>
        <time>2020-06-08T15:49:13Z</time>
      </trkpt>
      <trkpt lat="48.37419" lon="-4.28492">
        <ele>88.1</ele>
        <time>2020-06-08T15:49:14Z</time>
      </trkpt>
      <trkpt lat="48.37422" lon="-4.28496">
        <ele>87.9</ele>
        <time>2020-06-08T15:49:15Z</time>
      </trkpt>
      <trkpt lat="48.37427" lon="-4.28501">
        <ele>87.7</ele>
        <time>2020-06-08T15:49:16Z</time>
      </trkpt>
      <trkpt lat="48.3743" lon="-4.28506">
        <ele>87.5</ele>
        <time>2020-06-08T15:49:17Z</time>
      </trkpt>
      <trkpt lat="48.37433" lon="-4.28512">
        <ele>87.3</ele>
        <time>2020-06-08T15:49:18Z</time>
      </trkpt>
      <trkpt lat="48.37437" lon="-4.28518">
        <ele>87</ele>
        <time>2020-06-08T15:49:19Z</time>
      </trkpt>
      <trkpt lat="48.37441" lon="-4.28524">
        <ele>86.7</ele>
        <time>2020-06-08T15:49:20Z</time>
      </trkpt>
      <trkpt lat="48.37445" lon="-4.28531">
        <ele>86.4</ele>
        <time>2020-06-08T15:49:21Z</time>
      </trkpt>
      <trkpt lat="48.3745" lon="-4.28538">
        <ele>86.1</ele>
        <time>2020-06-08T15:49:22Z</time>
      </trkpt>
      <trkpt lat="48.37453" lon="-4.28545">
        <ele>85.8</ele>
        <time>2020-06-08T15:49:23Z</time>
      </trkpt>
      <trkpt lat="48.37458" lon="-4.28551">
        <ele>85.4</ele>
        <time>2020-06-08T15:49:24Z</time>
      </trkpt>
      <trkpt lat="48.37463" lon="-4.28558">
        <ele>85</ele>
        <time>2020-06-08T15:49:25Z</time>
      </trkpt>
      <trkpt lat="48.37467" lon="-4.28565">
        <ele>84.6</ele>
        <time>2020-06-08T15:49:26Z</time>
      </trkpt>
      <trkpt lat="48.37471" lon="-4.28572">
        <ele>84.3</ele>
        <time>2020-06-08T15:49:27Z</time>
      </trkpt>
      <trkpt lat="48.37477" lon="-4.28582">
        <ele>83.8</ele>
        <time>2020-06-08T15:49:28Z</time>
      </trkpt>
      <trkpt lat="48.37482" lon="-4.2859">
        <ele>83.3</ele>
        <time>2020-06-08T15:49:29Z</time>
      </trkpt>
      <trkpt lat="48.37487" lon="-4.28599">
        <ele>82.8</ele>
        <time>2020-06-08T15:49:30Z</time>
      </trkpt>
      <trkpt lat="48.37492" lon="-4.28606">
        <ele>82.3</ele>
        <time>2020-06-08T15:49:31Z</time>
      </trkpt>
      <trkpt lat="48.37498" lon="-4.28615">
        <ele>81.8</ele>
        <time>2020-06-08T15:49:32Z</time>
      </trkpt>
      <trkpt lat="48.37505" lon="-4.28622">
        <ele>81.3</ele>
        <time>2020-06-08T15:49:33Z</time>
      </trkpt>
      <trkpt lat="48.37512" lon="-4.28627">
        <ele>80.8</ele>
        <time>2020-06-08T15:49:34Z</time>
      </trkpt>
      <trkpt lat="48.3752" lon="-4.2863">
        <ele>80.3</ele>
        <time>2020-06-08T15:49:35Z</time>
      </trkpt>
      <trkpt lat="48.37527" lon="-4.28633">
        <ele>79.9</ele>
        <time>2020-06-08T15:49:36Z</time>
      </trkpt>
      <trkpt lat="48.37535" lon="-4.28637">
        <ele>79.4</ele>
        <time>2020-06-08T15:49:37Z</time>
      </trkpt>
      <trkpt lat="48.37543" lon="-4.28642">
        <ele>78.9</ele>
        <time>2020-06-08T15:49:38Z</time>
      </trkpt>
      <trkpt lat="48.3755" lon="-4.28648">
        <ele>78.4</ele>
        <time>2020-06-08T15:49:39Z</time>
      </trkpt>
      <trkpt lat="48.37558" lon="-4.28655">
        <ele>78</ele>
        <time>2020-06-08T15:49:40Z</time>
      </trkpt>
      <trkpt lat="48.37564" lon="-4.28663">
        <ele>77.6</ele>
        <time>2020-06-08T15:49:41Z</time>
      </trkpt>
      <trkpt lat="48.37571" lon="-4.28671">
        <ele>77.3</ele>
        <time>2020-06-08T15:49:42Z</time>
      </trkpt>
      <trkpt lat="48.37576" lon="-4.28681">
        <ele>76.9</ele>
        <time>2020-06-08T15:49:43Z</time>
      </trkpt>
      <trkpt lat="48.37581" lon="-4.28691">
        <ele>76.6</ele>
        <time>2020-06-08T15:49:44Z</time>
      </trkpt>
      <trkpt lat="48.37586" lon="-4.28702">
        <ele>76.3</ele>
        <time>2020-06-08T15:49:45Z</time>
      </trkpt>
      <trkpt lat="48.3759" lon="-4.28713">
        <ele>75.9</ele>
        <time>2020-06-08T15:49:46Z</time>
      </trkpt>
      <trkpt lat="48.37594" lon="-4.28723">
        <ele>75.5</ele>
        <time>2020-06-08T15:49:47Z</time>
      </trkpt>
      <trkpt lat="48.37598" lon="-4.28734">
        <ele>75.2</ele>
        <time>2020-06-08T15:49:48Z</time>
      </trkpt>
      <trkpt lat="48.37602" lon="-4.28745">
        <ele>74.7</ele>
        <time>2020-06-08T15:49:49Z</time>
      </trkpt>
      <trkpt lat="48.37606" lon="-4.28758">
        <ele>74.1</ele>
        <time>2020-06-08T15:49:50Z</time>
      </trkpt>
      <trkpt lat="48.3761" lon="-4.28769">
        <ele>73.5</ele>
        <time>2020-06-08T15:49:51Z</time>
      </trkpt>
      <trkpt lat="48.37614" lon="-4.28781">
        <ele>73</ele>
        <time>2020-06-08T15:49:52Z</time>
      </trkpt>
      <trkpt lat="48.37617" lon="-4.28794">
        <ele>72.3</ele>
        <time>2020-06-08T15:49:53Z</time>
      </trkpt>
      <trkpt lat="48.37621" lon="-4.28806">
        <ele>71.7</ele>
        <time>2020-06-08T15:49:54Z</time>
      </trkpt>
      <trkpt lat="48.37624" lon="-4.28818">
        <ele>71.1</ele>
        <time>2020-06-08T15:49:55Z</time>
      </trkpt>
      <trkpt lat="48.37626" lon="-4.28832">
        <ele>70.5</ele>
        <time>2020-06-08T15:49:56Z</time>
      </trkpt>
      <trkpt lat="48.37628" lon="-4.28846">
        <ele>69.9</ele>
        <time>2020-06-08T15:49:57Z</time>
      </trkpt>
      <trkpt lat="48.3763" lon="-4.2886">
        <ele>69.2</ele>
        <time>2020-06-08T15:49:58Z</time>
      </trkpt>
      <trkpt lat="48.37633" lon="-4.28874">
        <ele>68.6</ele>
        <time>2020-06-08T15:49:59Z</time>
      </trkpt>
      <trkpt lat="48.37635" lon="-4.28888">
        <ele>68</ele>
        <time>2020-06-08T15:50:00Z</time>
      </trkpt>
      <trkpt lat="48.37636" lon="-4.28903">
        <ele>67.4</ele>
        <time>2020-06-08T15:50:01Z</time>
      </trkpt>
      <trkpt lat="48.37638" lon="-4.28918">
        <ele>66.7</ele>
        <time>2020-06-08T15:50:02Z</time>
      </trkpt>
      <trkpt lat="48.3764" lon="-4.28933">
        <ele>66.1</ele>
        <time>2020-06-08T15:50:03Z</time>
      </trkpt>
      <trkpt lat="48.37643" lon="-4.28947">
        <ele>65.5</ele>
        <time>2020-06-08T15:50:04Z</time>
      </trkpt>
      <trkpt lat="48.37646" lon="-4.28962">
        <ele>64.9</ele>
        <time>2020-06-08T15:50:05Z</time>
      </trkpt>
      <trkpt lat="48.37649" lon="-4.28976">
        <ele>64.4</ele>
        <time>2020-06-08T15:50:06Z</time>
      </trkpt>
      <trkpt lat="48.37653" lon="-4.28991">
        <ele>63.8</ele>
        <time>2020-06-08T15:50:07Z</time>
      </trkpt>
      <trkpt lat="48.37657" lon="-4.29005">
        <ele>63.3</ele>
        <time>2020-06-08T15:50:08Z</time>
      </trkpt>
      <trkpt lat="48.3766" lon="-4.29019">
        <ele>62.7</ele>
        <time>2020-06-08T15:50:09Z</time>
      </trkpt>
      <trkpt lat="48.37664" lon="-4.29033">
        <ele>62.1</ele>
        <time>2020-06-08T15:50:10Z</time>
      </trkpt>
      <trkpt lat="48.37668" lon="-4.29045">
        <ele>61.7</ele>
        <time>2020-06-08T15:50:11Z</time>
      </trkpt>
      <trkpt lat="48.37672" lon="-4.29055">
        <ele>61.2</ele>
        <time>2020-06-08T15:50:12Z</time>
      </trkpt>
      <trkpt lat="48.37676" lon="-4.29064">
        <ele>60.8</ele>
        <time>2020-06-08T15:50:13Z</time>
      </trkpt>
      <trkpt lat="48.3768" lon="-4.29074">
        <ele>60.3</ele>
        <time>2020-06-08T15:50:14Z</time>
      </trkpt>
      <trkpt lat="48.37686" lon="-4.29081">
        <ele>59.8</ele>
        <time>2020-06-08T15:50:15Z</time>
      </trkpt>
      <trkpt lat="48.37693" lon="-4.29087">
        <ele>59.3</ele>
        <time>2020-06-08T15:50:16Z</time>
      </trkpt>
      <trkpt lat="48.37701" lon="-4.29091">
        <ele>58.7</ele>
        <time>2020-06-08T15:50:17Z</time>
      </trkpt>
      <trkpt lat="48.3771" lon="-4.29092">
        <ele>58.2</ele>
        <time>2020-06-08T15:50:18Z</time>
      </trkpt>
      <trkpt lat="48.37719" lon="-4.29091">
        <ele>57.6</ele>
        <time>2020-06-08T15:50:19Z</time>
      </trkpt>
      <trkpt lat="48.37728" lon="-4.2909">
        <ele>57.1</ele>
        <time>2020-06-08T15:50:20Z</time>
      </trkpt>
      <trkpt lat="48.37737" lon="-4.29088">
        <ele>56.5</ele>
        <time>2020-06-08T15:50:21Z</time>
      </trkpt>
      <trkpt lat="48.37746" lon="-4.29085">
        <ele>56</ele>
        <time>2020-06-08T15:50:22Z</time>
      </trkpt>
      <trkpt lat="48.37755" lon="-4.29082">
        <ele>55.5</ele>
        <time>2020-06-08T15:50:23Z</time>
      </trkpt>
      <trkpt lat="48.37763" lon="-4.29079">
        <ele>55.1</ele>
        <time>2020-06-08T15:50:24Z</time>
      </trkpt>
      <trkpt lat="48.37772" lon="-4.29076">
        <ele>54.5</ele>
        <time>2020-06-08T15:50:25Z</time>
      </trkpt>
      <trkpt lat="48.37781" lon="-4.29074">
        <ele>53.9</ele>
        <time>2020-06-08T15:50:26Z</time>
      </trkpt>
      <trkpt lat="48.3779" lon="-4.29071">
        <ele>53.3</ele>
        <time>2020-06-08T15:50:27Z</time>
      </trkpt>
      <trkpt lat="48.37799" lon="-4.29069">
        <ele>52.7</ele>
        <time>2020-06-08T15:50:28Z</time>
      </trkpt>
      <trkpt lat="48.37809" lon="-4.29066">
        <ele>52.1</ele>
        <time>2020-06-08T15:50:29Z</time>
      </trkpt>
      <trkpt lat="48.37818" lon="-4.29062">
        <ele>51.5</ele>
        <time>2020-06-08T15:50:30Z</time>
      </trkpt>
      <trkpt lat="48.37828" lon="-4.2906">
        <ele>50.9</ele>
        <time>2020-06-08T15:50:31Z</time>
      </trkpt>
      <trkpt lat="48.37837" lon="-4.29058">
        <ele>50.2</ele>
        <time>2020-06-08T15:50:32Z</time>
      </trkpt>
      <trkpt lat="48.37847" lon="-4.29057">
        <ele>49.5</ele>
        <time>2020-06-08T15:50:33Z</time>
      </trkpt>
      <trkpt lat="48.37857" lon="-4.29056">
        <ele>48.8</ele>
        <time>2020-06-08T15:50:34Z</time>
      </trkpt>
      <trkpt lat="48.37867" lon="-4.29056">
        <ele>47.9</ele>
        <time>2020-06-08T15:50:35Z</time>
      </trkpt>
      <trkpt lat="48.37877" lon="-4.29057">
        <ele>47.1</ele>
        <time>2020-06-08T15:50:36Z</time>
      </trkpt>
      <trkpt lat="48.37886" lon="-4.29061">
        <ele>46.3</ele>
        <time>2020-06-08T15:50:37Z</time>
      </trkpt>
      <trkpt lat="48.37896" lon="-4.29067">
        <ele>45.5</ele>
        <time>2020-06-08T15:50:38Z</time>
      </trkpt>
      <trkpt lat="48.37904" lon="-4.29078">
        <ele>44.8</ele>
        <time>2020-06-08T15:50:39Z</time>
      </trkpt>
      <trkpt lat="48.37911" lon="-4.29089">
        <ele>44.1</ele>
        <time>2020-06-08T15:50:40Z</time>
      </trkpt>
      <trkpt lat="48.37918" lon="-4.29101">
        <ele>43.6</ele>
        <time>2020-06-08T15:50:41Z</time>
      </trkpt>
      <trkpt lat="48.37923" lon="-4.29115">
        <ele>43.1</ele>
        <time>2020-06-08T15:50:42Z</time>
      </trkpt>
      <trkpt lat="48.37927" lon="-4.29129">
        <ele>42.6</ele>
        <time>2020-06-08T15:50:43Z</time>
      </trkpt>
      <trkpt lat="48.37931" lon="-4.29144">
        <ele>42.2</ele>
        <time>2020-06-08T15:50:44Z</time>
      </trkpt>
      <trkpt lat="48.37932" lon="-4.29159">
        <ele>41.8</ele>
        <time>2020-06-08T15:50:45Z</time>
      </trkpt>
      <trkpt lat="48.37935" lon="-4.29175">
        <ele>41.4</ele>
        <time>2020-06-08T15:50:46Z</time>
      </trkpt>
      <trkpt lat="48.37938" lon="-4.2919">
        <ele>41</ele>
        <time>2020-06-08T15:50:47Z</time>
      </trkpt>
      <trkpt lat="48.37942" lon="-4.29205">
        <ele>40.7</ele>
        <time>2020-06-08T15:50:48Z</time>
      </trkpt>
      <trkpt lat="48.37945" lon="-4.2922">
        <ele>40.5</ele>
        <time>2020-06-08T15:50:49Z</time>
      </trkpt>
      <trkpt lat="48.37948" lon="-4.29234">
        <ele>40.3</ele>
        <time>2020-06-08T15:50:50Z</time>
      </trkpt>
      <trkpt lat="48.3795" lon="-4.29249">
        <ele>40.2</ele>
        <time>2020-06-08T15:50:51Z</time>
      </trkpt>
      <trkpt lat="48.37952" lon="-4.29263">
        <ele>40.2</ele>
        <time>2020-06-08T15:50:52Z</time>
      </trkpt>
      <trkpt lat="48.37955" lon="-4.29277">
        <ele>40.4</ele>
        <time>2020-06-08T15:50:53Z</time>
      </trkpt>
      <trkpt lat="48.37956" lon="-4.29291">
        <ele>40.4</ele>
        <time>2020-06-08T15:50:54Z</time>
      </trkpt>
      <trkpt lat="48.37958" lon="-4.29304">
        <ele>40.4</ele>
        <time>2020-06-08T15:50:55Z</time>
      </trkpt>
      <trkpt lat="48.37959" lon="-4.29317">
        <ele>40.5</ele>
        <time>2020-06-08T15:50:56Z</time>
      </trkpt>
      <trkpt lat="48.37958" lon="-4.29329">
        <ele>40.5</ele>
        <time>2020-06-08T15:50:57Z</time>
      </trkpt>
      <trkpt lat="48.37957" lon="-4.2934">
        <ele>40.7</ele>
        <time>2020-06-08T15:50:58Z</time>
      </trkpt>
      <trkpt lat="48.37956" lon="-4.2935">
        <ele>40.8</ele>
        <time>2020-06-08T15:50:59Z</time>
      </trkpt>
      <trkpt lat="48.37955" lon="-4.29361">
        <ele>40.9</ele>
        <time>2020-06-08T15:51:00Z</time>
      </trkpt>
      <trkpt lat="48.37954" lon="-4.29372">
        <ele>40.9</ele>
        <time>2020-06-08T15:51:01Z</time>
      </trkpt>
      <trkpt lat="48.37953" lon="-4.29382">
        <ele>41</ele>
        <time>2020-06-08T15:51:02Z</time>
      </trkpt>
      <trkpt lat="48.37954" lon="-4.29391">
        <ele>41</ele>
        <time>2020-06-08T15:51:03Z</time>
      </trkpt>
      <trkpt lat="48.37955" lon="-4.29401">
        <ele>41</ele>
        <time>2020-06-08T15:51:04Z</time>
      </trkpt>
      <trkpt lat="48.37956" lon="-4.29411">
        <ele>41.1</ele>
        <time>2020-06-08T15:51:05Z</time>
      </trkpt>
      <trkpt lat="48.37958" lon="-4.2942">
        <ele>41.3</ele>
        <time>2020-06-08T15:51:06Z</time>
      </trkpt>
      <trkpt lat="48.37955" lon="-4.29428">
        <ele>41.5</ele>
        <time>2020-06-08T15:51:07Z</time>
      </trkpt>
      <trkpt lat="48.37951" lon="-4.29435">
        <ele>42.4</ele>
        <time>2020-06-08T15:51:08Z</time>
      </trkpt>
      <trkpt lat="48.37944" lon="-4.29439">
        <ele>42.1</ele>
        <time>2020-06-08T15:51:09Z</time>
      </trkpt>
      <trkpt lat="48.37939" lon="-4.29443">
        <ele>40.8</ele>
        <time>2020-06-08T15:51:10Z</time>
      </trkpt>
      <trkpt lat="48.37933" lon="-4.29448">
        <ele>40.7</ele>
        <time>2020-06-08T15:51:11Z</time>
      </trkpt>
      <trkpt lat="48.37929" lon="-4.29453">
        <ele>40.6</ele>
        <time>2020-06-08T15:51:12Z</time>
      </trkpt>
      <trkpt lat="48.37925" lon="-4.29461">
        <ele>40.5</ele>
        <time>2020-06-08T15:51:13Z</time>
      </trkpt>
      <trkpt lat="48.37921" lon="-4.29469">
        <ele>40.4</ele>
        <time>2020-06-08T15:51:14Z</time>
      </trkpt>
      <trkpt lat="48.37918" lon="-4.29479">
        <ele>40.3</ele>
        <time>2020-06-08T15:51:15Z</time>
      </trkpt>
      <trkpt lat="48.37915" lon="-4.29488">
        <ele>40.2</ele>
        <time>2020-06-08T15:51:16Z</time>
      </trkpt>
      <trkpt lat="48.37912" lon="-4.29498">
        <ele>40.1</ele>
        <time>2020-06-08T15:51:17Z</time>
      </trkpt>
      <trkpt lat="48.37907" lon="-4.29507">
        <ele>40</ele>
        <time>2020-06-08T15:51:18Z</time>
      </trkpt>
      <trkpt lat="48.37903" lon="-4.29516">
        <ele>40</ele>
        <time>2020-06-08T15:51:19Z</time>
      </trkpt>
      <trkpt lat="48.37899" lon="-4.29524">
        <ele>40</ele>
        <time>2020-06-08T15:51:20Z</time>
      </trkpt>
      <trkpt lat="48.37894" lon="-4.29533">
        <ele>40</ele>
        <time>2020-06-08T15:51:21Z</time>
      </trkpt>
      <trkpt lat="48.37889" lon="-4.2954">
        <ele>40</ele>
        <time>2020-06-08T15:51:22Z</time>
      </trkpt>
      <trkpt lat="48.37884" lon="-4.29548">
        <ele>40</ele>
        <time>2020-06-08T15:51:23Z</time>
      </trkpt>
      <trkpt lat="48.3788" lon="-4.29556">
        <ele>40.1</ele>
        <time>2020-06-08T15:51:24Z</time>
      </trkpt>
      <trkpt lat="48.37876" lon="-4.29564">
        <ele>40.2</ele>
        <time>2020-06-08T15:51:25Z</time>
      </trkpt>
      <trkpt lat="48.37871" lon="-4.2957">
        <ele>40.3</ele>
        <time>2020-06-08T15:51:26Z</time>
      </trkpt>
      <trkpt lat="48.37866" lon="-4.29576">
        <ele>40.4</ele>
        <time>2020-06-08T15:51:27Z</time>
      </trkpt>
      <trkpt lat="48.37862" lon="-4.29583">
        <ele>40.5</ele>
        <time>2020-06-08T15:51:28Z</time>
      </trkpt>
      <trkpt lat="48.37857" lon="-4.2959">
        <ele>40.6</ele>
        <time>2020-06-08T15:51:29Z</time>
      </trkpt>
      <trkpt lat="48.37853" lon="-4.29596">
        <ele>40.7</ele>
        <time>2020-06-08T15:51:30Z</time>
      </trkpt>
      <trkpt lat="48.37849" lon="-4.29602">
        <ele>40.9</ele>
        <time>2020-06-08T15:51:31Z</time>
      </trkpt>
      <trkpt lat="48.37845" lon="-4.29608">
        <ele>41.1</ele>
        <time>2020-06-08T15:51:32Z</time>
      </trkpt>
      <trkpt lat="48.37842" lon="-4.29615">
        <ele>41.3</ele>
        <time>2020-06-08T15:51:33Z</time>
      </trkpt>
      <trkpt lat="48.37838" lon="-4.2962">
        <ele>41.4</ele>
        <time>2020-06-08T15:51:34Z</time>
      </trkpt>
      <trkpt lat="48.37835" lon="-4.29626">
        <ele>41.6</ele>
        <time>2020-06-08T15:51:35Z</time>
      </trkpt>
      <trkpt lat="48.37831" lon="-4.29632">
        <ele>41.7</ele>
        <time>2020-06-08T15:51:36Z</time>
      </trkpt>
      <trkpt lat="48.37827" lon="-4.29637">
        <ele>41.9</ele>
        <time>2020-06-08T15:51:37Z</time>
      </trkpt>
      <trkpt lat="48.37823" lon="-4.29642">
        <ele>42</ele>
        <time>2020-06-08T15:51:38Z</time>
      </trkpt>
      <trkpt lat="48.3782" lon="-4.29648">
        <ele>42.2</ele>
        <time>2020-06-08T15:51:39Z</time>
      </trkpt>
      <trkpt lat="48.37815" lon="-4.29653">
        <ele>42.3</ele>
        <time>2020-06-08T15:51:40Z</time>
      </trkpt>
      <trkpt lat="48.37811" lon="-4.29658">
        <ele>42.5</ele>
        <time>2020-06-08T15:51:41Z</time>
      </trkpt>
      <trkpt lat="48.37807" lon="-4.29664">
        <ele>42.6</ele>
        <time>2020-06-08T15:51:42Z</time>
      </trkpt>
      <trkpt lat="48.37803" lon="-4.29669">
        <ele>42.8</ele>
        <time>2020-06-08T15:51:43Z</time>
      </trkpt>
      <trkpt lat="48.37799" lon="-4.29675">
        <ele>42.9</ele>
        <time>2020-06-08T15:51:44Z</time>
      </trkpt>
      <trkpt lat="48.37796" lon="-4.2968">
        <ele>43.1</ele>
        <time>2020-06-08T15:51:45Z</time>
      </trkpt>
      <trkpt lat="48.37793" lon="-4.29686">
        <ele>43.2</ele>
        <time>2020-06-08T15:51:46Z</time>
      </trkpt>
      <trkpt lat="48.3779" lon="-4.29692">
        <ele>43.3</ele>
        <time>2020-06-08T15:51:47Z</time>
      </trkpt>
      <trkpt lat="48.37787" lon="-4.29697">
        <ele>43.5</ele>
        <time>2020-06-08T15:51:48Z</time>
      </trkpt>
      <trkpt lat="48.37784" lon="-4.29702">
        <ele>43.6</ele>
        <time>2020-06-08T15:51:49Z</time>
      </trkpt>
      <trkpt lat="48.37781" lon="-4.29708">
        <ele>43.7</ele>
        <time>2020-06-08T15:51:50Z</time>
      </trkpt>
      <trkpt lat="48.37778" lon="-4.29714">
        <ele>43.8</ele>
        <time>2020-06-08T15:51:51Z</time>
      </trkpt>
      <trkpt lat="48.37776" lon="-4.2972">
        <ele>43.9</ele>
        <time>2020-06-08T15:51:52Z</time>
      </trkpt>
      <trkpt lat="48.37773" lon="-4.29726">
        <ele>43.9</ele>
        <time>2020-06-08T15:51:53Z</time>
      </trkpt>
      <trkpt lat="48.37771" lon="-4.29732">
        <ele>44</ele>
        <time>2020-06-08T15:51:54Z</time>
      </trkpt>
      <trkpt lat="48.37768" lon="-4.29738">
        <ele>44.1</ele>
        <time>2020-06-08T15:51:55Z</time>
      </trkpt>
      <trkpt lat="48.37765" lon="-4.29744">
        <ele>44.2</ele>
        <time>2020-06-08T15:51:56Z</time>
      </trkpt>
      <trkpt lat="48.37762" lon="-4.2975">
        <ele>44.3</ele>
        <time>2020-06-08T15:51:57Z</time>
      </trkpt>
      <trkpt lat="48.37759" lon="-4.29756">
        <ele>44.4</ele>
        <time>2020-06-08T15:51:58Z</time>
      </trkpt>
      <trkpt lat="48.37757" lon="-4.29761">
        <ele>44.5</ele>
        <time>2020-06-08T15:51:59Z</time>
      </trkpt>
      <trkpt lat="48.37755" lon="-4.29767">
        <ele>44.6</ele>
        <time>2020-06-08T15:52:00Z</time>
      </trkpt>
      <trkpt lat="48.37752" lon="-4.29772">
        <ele>44.7</ele>
        <time>2020-06-08T15:52:01Z</time>
      </trkpt>
      <trkpt lat="48.3775" lon="-4.29778">
        <ele>44.8</ele>
        <time>2020-06-08T15:52:02Z</time>
      </trkpt>
      <trkpt lat="48.37747" lon="-4.29783">
        <ele>45</ele>
        <time>2020-06-08T15:52:03Z</time>
      </trkpt>
      <trkpt lat="48.37745" lon="-4.29788">
        <ele>45.1</ele>
        <time>2020-06-08T15:52:04Z</time>
      </trkpt>
      <trkpt lat="48.37743" lon="-4.29793">
        <ele>45.2</ele>
        <time>2020-06-08T15:52:05Z</time>
      </trkpt>
      <trkpt lat="48.37741" lon="-4.29799">
        <ele>45.3</ele>
        <time>2020-06-08T15:52:06Z</time>
      </trkpt>
      <trkpt lat="48.37739" lon="-4.29804">
        <ele>45.4</ele>
        <time>2020-06-08T15:52:07Z</time>
      </trkpt>
      <trkpt lat="48.37738" lon="-4.2981">
        <ele>45.5</ele>
        <time>2020-06-08T15:52:08Z</time>
      </trkpt>
      <trkpt lat="48.37736" lon="-4.29816">
        <ele>45.5</ele>
        <time>2020-06-08T15:52:09Z</time>
      </trkpt>
      <trkpt lat="48.37734" lon="-4.29822">
        <ele>45.6</ele>
        <time>2020-06-08T15:52:10Z</time>
      </trkpt>
      <trkpt lat="48.37732" lon="-4.29828">
        <ele>45.7</ele>
        <time>2020-06-08T15:52:11Z</time>
      </trkpt>
      <trkpt lat="48.37729" lon="-4.29834">
        <ele>45.8</ele>
        <time>2020-06-08T15:52:12Z</time>
      </trkpt>
      <trkpt lat="48.37726" lon="-4.29839">
        <ele>45.9</ele>
        <time>2020-06-08T15:52:13Z</time>
      </trkpt>
      <trkpt lat="48.37723" lon="-4.29845">
        <ele>46</ele>
        <time>2020-06-08T15:52:14Z</time>
      </trkpt>
      <trkpt lat="48.37722" lon="-4.29852">
        <ele>46.2</ele>
        <time>2020-06-08T15:52:15Z</time>
      </trkpt>
      <trkpt lat="48.3772" lon="-4.29858">
        <ele>46.3</ele>
        <time>2020-06-08T15:52:16Z</time>
      </trkpt>
      <trkpt lat="48.37718" lon="-4.29863">
        <ele>46.4</ele>
        <time>2020-06-08T15:52:17Z</time>
      </trkpt>
      <trkpt lat="48.37714" lon="-4.29868">
        <ele>46.5</ele>
        <time>2020-06-08T15:52:18Z</time>
      </trkpt>
      <trkpt lat="48.37713" lon="-4.29874">
        <ele>46.6</ele>
        <time>2020-06-08T15:52:19Z</time>
      </trkpt>
      <trkpt lat="48.37712" lon="-4.2988">
        <ele>46.7</ele>
        <time>2020-06-08T15:52:20Z</time>
      </trkpt>
      <trkpt lat="48.37709" lon="-4.29885">
        <ele>46.9</ele>
        <time>2020-06-08T15:52:21Z</time>
      </trkpt>
      <trkpt lat="48.37706" lon="-4.29891">
        <ele>47</ele>
        <time>2020-06-08T15:52:22Z</time>
      </trkpt>
      <trkpt lat="48.37704" lon="-4.29898">
        <ele>47.1</ele>
        <time>2020-06-08T15:52:23Z</time>
      </trkpt>
      <trkpt lat="48.37701" lon="-4.29904">
        <ele>47.2</ele>
        <time>2020-06-08T15:52:24Z</time>
      </trkpt>
      <trkpt lat="48.37699" lon="-4.2991">
        <ele>47.3</ele>
        <time>2020-06-08T15:52:25Z</time>
      </trkpt>
      <trkpt lat="48.37696" lon="-4.29916">
        <ele>47.5</ele>
        <time>2020-06-08T15:52:26Z</time>
      </trkpt>
      <trkpt lat="48.37694" lon="-4.29922">
        <ele>47.6</ele>
        <time>2020-06-08T15:52:27Z</time>
      </trkpt>
      <trkpt lat="48.37692" lon="-4.29928">
        <ele>47.8</ele>
        <time>2020-06-08T15:52:28Z</time>
      </trkpt>
      <trkpt lat="48.3769" lon="-4.29935">
        <ele>48</ele>
        <time>2020-06-08T15:52:29Z</time>
      </trkpt>
      <trkpt lat="48.37687" lon="-4.29942">
        <ele>48.2</ele>
        <time>2020-06-08T15:52:30Z</time>
      </trkpt>
      <trkpt lat="48.37683" lon="-4.29949">
        <ele>48.4</ele>
        <time>2020-06-08T15:52:31Z</time>
      </trkpt>
      <trkpt lat="48.37681" lon="-4.29955">
        <ele>48.6</ele>
        <time>2020-06-08T15:52:32Z</time>
      </trkpt>
      <trkpt lat="48.37677" lon="-4.2996">
        <ele>48.8</ele>
        <time>2020-06-08T15:52:33Z</time>
      </trkpt>
      <trkpt lat="48.37674" lon="-4.29965">
        <ele>48.9</ele>
        <time>2020-06-08T15:52:34Z</time>
      </trkpt>
      <trkpt lat="48.37672" lon="-4.2997">
        <ele>49.1</ele>
        <time>2020-06-08T15:52:35Z</time>
      </trkpt>
      <trkpt lat="48.3767" lon="-4.29976">
        <ele>49.3</ele>
        <time>2020-06-08T15:52:36Z</time>
      </trkpt>
      <trkpt lat="48.37668" lon="-4.29981">
        <ele>49.5</ele>
        <time>2020-06-08T15:52:37Z</time>
      </trkpt>
      <trkpt lat="48.37666" lon="-4.29987">
        <ele>49.7</ele>
        <time>2020-06-08T15:52:38Z</time>
      </trkpt>
      <trkpt lat="48.37664" lon="-4.29992">
        <ele>49.9</ele>
        <time>2020-06-08T15:52:39Z</time>
      </trkpt>
      <trkpt lat="48.37662" lon="-4.29998">
        <ele>50.2</ele>
        <time>2020-06-08T15:52:40Z</time>
      </trkpt>
      <trkpt lat="48.37658" lon="-4.30002">
        <ele>50.4</ele>
        <time>2020-06-08T15:52:41Z</time>
      </trkpt>
      <trkpt lat="48.37656" lon="-4.30006">
        <ele>50.5</ele>
        <time>2020-06-08T15:52:42Z</time>
      </trkpt>
      <trkpt lat="48.37655" lon="-4.30011">
        <ele>50.7</ele>
        <time>2020-06-08T15:52:43Z</time>
      </trkpt>
      <trkpt lat="48.37653" lon="-4.30016">
        <ele>50.9</ele>
        <time>2020-06-08T15:52:44Z</time>
      </trkpt>
      <trkpt lat="48.37651" lon="-4.30021">
        <ele>51</ele>
        <time>2020-06-08T15:52:45Z</time>
      </trkpt>
      <trkpt lat="48.37649" lon="-4.30026">
        <ele>51.2</ele>
        <time>2020-06-08T15:52:46Z</time>
      </trkpt>
      <trkpt lat="48.37648" lon="-4.30031">
        <ele>51.4</ele>
        <time>2020-06-08T15:52:47Z</time>
      </trkpt>
      <trkpt lat="48.37646" lon="-4.30036">
        <ele>51.6</ele>
        <time>2020-06-08T15:52:48Z</time>
      </trkpt>
      <trkpt lat="48.37644" lon="-4.30041">
        <ele>51.8</ele>
        <time>2020-06-08T15:52:49Z</time>
      </trkpt>
      <trkpt lat="48.37641" lon="-4.30045">
        <ele>52</ele>
        <time>2020-06-08T15:52:50Z</time>
      </trkpt>
      <trkpt lat="48.37639" lon="-4.3005">
        <ele>52.2</ele>
        <time>2020-06-08T15:52:51Z</time>
      </trkpt>
      <trkpt lat="48.37637" lon="-4.30054">
        <ele>52.4</ele>
        <time>2020-06-08T15:52:52Z</time>
      </trkpt>
      <trkpt lat="48.37635" lon="-4.30059">
        <ele>52.6</ele>
        <time>2020-06-08T15:52:53Z</time>
      </trkpt>
      <trkpt lat="48.37631" lon="-4.30062">
        <ele>52.8</ele>
        <time>2020-06-08T15:52:54Z</time>
      </trkpt>
      <trkpt lat="48.37629" lon="-4.30067">
        <ele>53</ele>
        <time>2020-06-08T15:52:55Z</time>
      </trkpt>
      <trkpt lat="48.37627" lon="-4.30071">
        <ele>53.1</ele>
        <time>2020-06-08T15:52:56Z</time>
      </trkpt>
      <trkpt lat="48.37626" lon="-4.30076">
        <ele>53.3</ele>
        <time>2020-06-08T15:52:57Z</time>
      </trkpt>
      <trkpt lat="48.37625" lon="-4.30082">
        <ele>53.5</ele>
        <time>2020-06-08T15:52:58Z</time>
      </trkpt>
      <trkpt lat="48.37622" lon="-4.30086">
        <ele>53.7</ele>
        <time>2020-06-08T15:52:59Z</time>
      </trkpt>
      <trkpt lat="48.3762" lon="-4.30091">
        <ele>53.8</ele>
        <time>2020-06-08T15:53:00Z</time>
      </trkpt>
      <trkpt lat="48.37617" lon="-4.30096">
        <ele>54</ele>
        <time>2020-06-08T15:53:01Z</time>
      </trkpt>
      <trkpt lat="48.37615" lon="-4.30101">
        <ele>54.2</ele>
        <time>2020-06-08T15:53:02Z</time>
      </trkpt>
      <trkpt lat="48.37614" lon="-4.30106">
        <ele>54.4</ele>
        <time>2020-06-08T15:53:03Z</time>
      </trkpt>
      <trkpt lat="48.37613" lon="-4.3011">
        <ele>54.5</ele>
        <time>2020-06-08T15:53:04Z</time>
      </trkpt>
      <trkpt lat="48.37612" lon="-4.30115">
        <ele>54.7</ele>
        <time>2020-06-08T15:53:05Z</time>
      </trkpt>
      <trkpt lat="48.37611" lon="-4.30119">
        <ele>54.8</ele>
        <time>2020-06-08T15:53:06Z</time>
      </trkpt>
      <trkpt lat="48.3761" lon="-4.30122">
        <ele>54.9</ele>
        <time>2020-06-08T15:53:07Z</time>
      </trkpt>
      <trkpt lat="48.37607" lon="-4.30124">
        <ele>55</ele>
        <time>2020-06-08T15:53:08Z</time>
      </trkpt>
      <trkpt lat="48.37604" lon="-4.30126">
        <ele>55.1</ele>
        <time>2020-06-08T15:53:09Z</time>
      </trkpt>
      <trkpt lat="48.37603" lon="-4.30131">
        <ele>55.1</ele>
        <time>2020-06-08T15:53:10Z</time>
      </trkpt>
      <trkpt lat="48.37601" lon="-4.30135">
        <ele>55.2</ele>
        <time>2020-06-08T15:53:11Z</time>
      </trkpt>
      <trkpt lat="48.37599" lon="-4.3014">
        <ele>55.4</ele>
        <time>2020-06-08T15:53:12Z</time>
      </trkpt>
      <trkpt lat="48.37597" lon="-4.30145">
        <ele>55.5</ele>
        <time>2020-06-08T15:53:13Z</time>
      </trkpt>
      <trkpt lat="48.37596" lon="-4.3015">
        <ele>55.6</ele>
        <time>2020-06-08T15:53:14Z</time>
      </trkpt>
      <trkpt lat="48.37594" lon="-4.30154">
        <ele>55.7</ele>
        <time>2020-06-08T15:53:15Z</time>
      </trkpt>
      <trkpt lat="48.37593" lon="-4.30158">
        <ele>55.8</ele>
        <time>2020-06-08T15:53:16Z</time>
      </trkpt>
      <trkpt lat="48.37591" lon="-4.30162">
        <ele>55.9</ele>
        <time>2020-06-08T15:53:17Z</time>
      </trkpt>
      <trkpt lat="48.3759" lon="-4.30167">
        <ele>56.1</ele>
        <time>2020-06-08T15:53:18Z</time>
      </trkpt>
      <trkpt lat="48.37588" lon="-4.3017">
        <ele>56.2</ele>
        <time>2020-06-08T15:53:19Z</time>
      </trkpt>
      <trkpt lat="48.37586" lon="-4.30175">
        <ele>56.4</ele>
        <time>2020-06-08T15:53:20Z</time>
      </trkpt>
      <trkpt lat="48.37585" lon="-4.3018">
        <ele>56.6</ele>
        <time>2020-06-08T15:53:21Z</time>
      </trkpt>
      <trkpt lat="48.37583" lon="-4.30184">
        <ele>56.8</ele>
        <time>2020-06-08T15:53:22Z</time>
      </trkpt>
      <trkpt lat="48.37581" lon="-4.30188">
        <ele>57</ele>
        <time>2020-06-08T15:53:23Z</time>
      </trkpt>
      <trkpt lat="48.3758" lon="-4.30192">
        <ele>57.1</ele>
        <time>2020-06-08T15:53:24Z</time>
      </trkpt>
      <trkpt lat="48.37578" lon="-4.30196">
        <ele>57.3</ele>
        <time>2020-06-08T15:53:25Z</time>
      </trkpt>
      <trkpt lat="48.37575" lon="-4.30199">
        <ele>57.5</ele>
        <time>2020-06-08T15:53:26Z</time>
      </trkpt>
      <trkpt lat="48.37574" lon="-4.30203">
        <ele>57.7</ele>
        <time>2020-06-08T15:53:27Z</time>
      </trkpt>
      <trkpt lat="48.37572" lon="-4.30208">
        <ele>57.8</ele>
        <time>2020-06-08T15:53:28Z</time>
      </trkpt>
      <trkpt lat="48.37571" lon="-4.30212">
        <ele>58</ele>
        <time>2020-06-08T15:53:29Z</time>
      </trkpt>
      <trkpt lat="48.37569" lon="-4.30216">
        <ele>58.2</ele>
        <time>2020-06-08T15:53:30Z</time>
      </trkpt>
      <trkpt lat="48.37567" lon="-4.3022">
        <ele>58.3</ele>
        <time>2020-06-08T15:53:31Z</time>
      </trkpt>
      <trkpt lat="48.37565" lon="-4.30224">
        <ele>58.5</ele>
        <time>2020-06-08T15:53:32Z</time>
      </trkpt>
      <trkpt lat="48.37563" lon="-4.30227">
        <ele>58.6</ele>
        <time>2020-06-08T15:53:33Z</time>
      </trkpt>
      <trkpt lat="48.37562" lon="-4.30231">
        <ele>58.8</ele>
        <time>2020-06-08T15:53:34Z</time>
      </trkpt>
      <trkpt lat="48.37561" lon="-4.30235">
        <ele>58.9</ele>
        <time>2020-06-08T15:53:35Z</time>
      </trkpt>
      <trkpt lat="48.3756" lon="-4.30239">
        <ele>59</ele>
        <time>2020-06-08T15:53:36Z</time>
      </trkpt>
      <trkpt lat="48.37559" lon="-4.30244">
        <ele>59.2</ele>
        <time>2020-06-08T15:53:37Z</time>
      </trkpt>
      <trkpt lat="48.37558" lon="-4.30248">
        <ele>59.3</ele>
        <time>2020-06-08T15:53:38Z</time>
      </trkpt>
      <trkpt lat="48.37557" lon="-4.30253">
        <ele>59.5</ele>
        <time>2020-06-08T15:53:39Z</time>
      </trkpt>
      <trkpt lat="48.37556" lon="-4.30258">
        <ele>59.7</ele>
        <time>2020-06-08T15:53:40Z</time>
      </trkpt>
      <trkpt lat="48.37553" lon="-4.30263">
        <ele>59.8</ele>
        <time>2020-06-08T15:53:41Z</time>
      </trkpt>
      <trkpt lat="48.37552" lon="-4.30268">
        <ele>60</ele>
        <time>2020-06-08T15:53:42Z</time>
      </trkpt>
      <trkpt lat="48.3755" lon="-4.30273">
        <ele>60.2</ele>
        <time>2020-06-08T15:53:43Z</time>
      </trkpt>
      <trkpt lat="48.37549" lon="-4.30278">
        <ele>60.4</ele>
        <time>2020-06-08T15:53:44Z</time>
      </trkpt>
      <trkpt lat="48.37547" lon="-4.30282">
        <ele>60.6</ele>
        <time>2020-06-08T15:53:45Z</time>
      </trkpt>
      <trkpt lat="48.37545" lon="-4.30287">
        <ele>60.8</ele>
        <time>2020-06-08T15:53:46Z</time>
      </trkpt>
      <trkpt lat="48.37545" lon="-4.30292">
        <ele>61</ele>
        <time>2020-06-08T15:53:47Z</time>
      </trkpt>
      <trkpt lat="48.37544" lon="-4.30297">
        <ele>61.2</ele>
        <time>2020-06-08T15:53:48Z</time>
      </trkpt>
      <trkpt lat="48.37543" lon="-4.30302">
        <ele>61.3</ele>
        <time>2020-06-08T15:53:49Z</time>
      </trkpt>
      <trkpt lat="48.37542" lon="-4.30307">
        <ele>61.5</ele>
        <time>2020-06-08T15:53:50Z</time>
      </trkpt>
      <trkpt lat="48.37542" lon="-4.30311">
        <ele>61.6</ele>
        <time>2020-06-08T15:53:51Z</time>
      </trkpt>
      <trkpt lat="48.37541" lon="-4.30315">
        <ele>61.8</ele>
        <time>2020-06-08T15:53:52Z</time>
      </trkpt>
      <trkpt lat="48.37541" lon="-4.3032">
        <ele>61.9</ele>
        <time>2020-06-08T15:53:53Z</time>
      </trkpt>
      <trkpt lat="48.3754" lon="-4.30325">
        <ele>62.1</ele>
        <time>2020-06-08T15:53:54Z</time>
      </trkpt>
      <trkpt lat="48.3754" lon="-4.3033">
        <ele>62.2</ele>
        <time>2020-06-08T15:53:55Z</time>
      </trkpt>
      <trkpt lat="48.37541" lon="-4.30335">
        <ele>62.4</ele>
        <time>2020-06-08T15:53:56Z</time>
      </trkpt>
      <trkpt lat="48.3754" lon="-4.3034">
        <ele>62.6</ele>
        <time>2020-06-08T15:53:57Z</time>
      </trkpt>
      <trkpt lat="48.37539" lon="-4.30345">
        <ele>62.7</ele>
        <time>2020-06-08T15:53:58Z</time>
      </trkpt>
      <trkpt lat="48.37539" lon="-4.3035">
        <ele>62.9</ele>
        <time>2020-06-08T15:53:59Z</time>
      </trkpt>
      <trkpt lat="48.37538" lon="-4.30354">
        <ele>63</ele>
        <time>2020-06-08T15:54:00Z</time>
      </trkpt>
      <trkpt lat="48.37538" lon="-4.30359">
        <ele>63.1</ele>
        <time>2020-06-08T15:54:01Z</time>
      </trkpt>
      <trkpt lat="48.37537" lon="-4.30364">
        <ele>63.2</ele>
        <time>2020-06-08T15:54:02Z</time>
      </trkpt>
      <trkpt lat="48.37536" lon="-4.30369">
        <ele>63.4</ele>
        <time>2020-06-08T15:54:03Z</time>
      </trkpt>
      <trkpt lat="48.37536" lon="-4.30374">
        <ele>63.5</ele>
        <time>2020-06-08T15:54:04Z</time>
      </trkpt>
      <trkpt lat="48.37536" lon="-4.30379">
        <ele>63.6</ele>
        <time>2020-06-08T15:54:05Z</time>
      </trkpt>
      <trkpt lat="48.37536" lon="-4.30385">
        <ele>63.7</ele>
        <time>2020-06-08T15:54:06Z</time>
      </trkpt>
      <trkpt lat="48.37536" lon="-4.3039">
        <ele>63.9</ele>
        <time>2020-06-08T15:54:07Z</time>
      </trkpt>
      <trkpt lat="48.37536" lon="-4.30395">
        <ele>64</ele>
        <time>2020-06-08T15:54:08Z</time>
      </trkpt>
      <trkpt lat="48.37536" lon="-4.304">
        <ele>64.1</ele>
        <time>2020-06-08T15:54:09Z</time>
      </trkpt>
      <trkpt lat="48.37536" lon="-4.30405">
        <ele>64.2</ele>
        <time>2020-06-08T15:54:10Z</time>
      </trkpt>
      <trkpt lat="48.37536" lon="-4.3041">
        <ele>64.3</ele>
        <time>2020-06-08T15:54:11Z</time>
      </trkpt>
      <trkpt lat="48.37536" lon="-4.30415">
        <ele>64.4</ele>
        <time>2020-06-08T15:54:12Z</time>
      </trkpt>
      <trkpt lat="48.37536" lon="-4.3042">
        <ele>64.5</ele>
        <time>2020-06-08T15:54:13Z</time>
      </trkpt>
      <trkpt lat="48.37536" lon="-4.30425">
        <ele>64.6</ele>
        <time>2020-06-08T15:54:14Z</time>
      </trkpt>
      <trkpt lat="48.37536" lon="-4.3043">
        <ele>64.7</ele>
        <time>2020-06-08T15:54:15Z</time>
      </trkpt>
      <trkpt lat="48.37537" lon="-4.30435">
        <ele>64.7</ele>
        <time>2020-06-08T15:54:16Z</time>
      </trkpt>
      <trkpt lat="48.37537" lon="-4.30439">
        <ele>64.7</ele>
        <time>2020-06-08T15:54:17Z</time>
      </trkpt>
      <trkpt lat="48.37537" lon="-4.30444">
        <ele>64.6</ele>
        <time>2020-06-08T15:54:18Z</time>
      </trkpt>
      <trkpt lat="48.37537" lon="-4.30449">
        <ele>64.6</ele>
        <time>2020-06-08T15:54:19Z</time>
      </trkpt>
      <trkpt lat="48.37536" lon="-4.30453">
        <ele>64.5</ele>
        <time>2020-06-08T15:54:20Z</time>
      </trkpt>
      <trkpt lat="48.37536" lon="-4.30458">
        <ele>64.4</ele>
        <time>2020-06-08T15:54:21Z</time>
      </trkpt>
      <trkpt lat="48.37535" lon="-4.30462">
        <ele>64.4</ele>
        <time>2020-06-08T15:54:22Z</time>
      </trkpt>
      <trkpt lat="48.37536" lon="-4.30468">
        <ele>64.2</ele>
        <time>2020-06-08T15:54:23Z</time>
      </trkpt>
      <trkpt lat="48.37536" lon="-4.3047">
        <ele>64.2</ele>
        <time>2020-06-08T15:54:24Z</time>
      </trkpt>
      <trkpt lat="48.37536" lon="-4.30475">
        <ele>64.1</ele>
        <time>2020-06-08T15:54:25Z</time>
      </trkpt>
      <trkpt lat="48.37536" lon="-4.3048">
        <ele>64.1</ele>
        <time>2020-06-08T15:54:26Z</time>
      </trkpt>
      <trkpt lat="48.37536" lon="-4.30486">
        <ele>64.1</ele>
        <time>2020-06-08T15:54:27Z</time>
      </trkpt>
      <trkpt lat="48.37536" lon="-4.30493">
        <ele>64</ele>
        <time>2020-06-08T15:54:28Z</time>
      </trkpt>
      <trkpt lat="48.37536" lon="-4.305">
        <ele>64</ele>
        <time>2020-06-08T15:54:29Z</time>
      </trkpt>
      <trkpt lat="48.37536" lon="-4.30507">
        <ele>63.9</ele>
        <time>2020-06-08T15:54:30Z</time>
      </trkpt>
      <trkpt lat="48.37537" lon="-4.30514">
        <ele>63.8</ele>
        <time>2020-06-08T15:54:31Z</time>
      </trkpt>
      <trkpt lat="48.37538" lon="-4.30521">
        <ele>63.6</ele>
        <time>2020-06-08T15:54:32Z</time>
      </trkpt>
      <trkpt lat="48.37539" lon="-4.30528">
        <ele>63.5</ele>
        <time>2020-06-08T15:54:33Z</time>
      </trkpt>
      <trkpt lat="48.3754" lon="-4.30536">
        <ele>63.4</ele>
        <time>2020-06-08T15:54:34Z</time>
      </trkpt>
      <trkpt lat="48.37541" lon="-4.30543">
        <ele>63.4</ele>
        <time>2020-06-08T15:54:35Z</time>
      </trkpt>
      <trkpt lat="48.37542" lon="-4.3055">
        <ele>63.3</ele>
        <time>2020-06-08T15:54:36Z</time>
      </trkpt>
      <trkpt lat="48.37543" lon="-4.30556">
        <ele>63.3</ele>
        <time>2020-06-08T15:54:37Z</time>
      </trkpt>
      <trkpt lat="48.37545" lon="-4.30563">
        <ele>63.2</ele>
        <time>2020-06-08T15:54:38Z</time>
      </trkpt>
      <trkpt lat="48.37545" lon="-4.30571">
        <ele>63.1</ele>
        <time>2020-06-08T15:54:39Z</time>
      </trkpt>
      <trkpt lat="48.37545" lon="-4.3058">
        <ele>63.1</ele>
        <time>2020-06-08T15:54:40Z</time>
      </trkpt>
      <trkpt lat="48.37547" lon="-4.30587">
        <ele>63</ele>
        <time>2020-06-08T15:54:41Z</time>
      </trkpt>
      <trkpt lat="48.37549" lon="-4.30594">
        <ele>62.9</ele>
        <time>2020-06-08T15:54:42Z</time>
      </trkpt>
      <trkpt lat="48.37551" lon="-4.30602">
        <ele>62.9</ele>
        <time>2020-06-08T15:54:43Z</time>
      </trkpt>
      <trkpt lat="48.37553" lon="-4.30609">
        <ele>62.9</ele>
        <time>2020-06-08T15:54:44Z</time>
      </trkpt>
      <trkpt lat="48.37555" lon="-4.30615">
        <ele>63</ele>
        <time>2020-06-08T15:54:45Z</time>
      </trkpt>
      <trkpt lat="48.37557" lon="-4.30622">
        <ele>63</ele>
        <time>2020-06-08T15:54:46Z</time>
      </trkpt>
      <trkpt lat="48.37558" lon="-4.30629">
        <ele>63</ele>
        <time>2020-06-08T15:54:47Z</time>
      </trkpt>
      <trkpt lat="48.37561" lon="-4.30635">
        <ele>63</ele>
        <time>2020-06-08T15:54:48Z</time>
      </trkpt>
      <trkpt lat="48.37562" lon="-4.30642">
        <ele>63.1</ele>
        <time>2020-06-08T15:54:49Z</time>
      </trkpt>
      <trkpt lat="48.37564" lon="-4.30649">
        <ele>63.1</ele>
        <time>2020-06-08T15:54:50Z</time>
      </trkpt>
      <trkpt lat="48.37567" lon="-4.30654">
        <ele>63.1</ele>
        <time>2020-06-08T15:54:51Z</time>
      </trkpt>
      <trkpt lat="48.37569" lon="-4.3066">
        <ele>63.1</ele>
        <time>2020-06-08T15:54:52Z</time>
      </trkpt>
      <trkpt lat="48.37571" lon="-4.30666">
        <ele>63.1</ele>
        <time>2020-06-08T15:54:53Z</time>
      </trkpt>
      <trkpt lat="48.37573" lon="-4.30671">
        <ele>63.1</ele>
        <time>2020-06-08T15:54:54Z</time>
      </trkpt>
      <trkpt lat="48.37575" lon="-4.30677">
        <ele>63.1</ele>
        <time>2020-06-08T15:54:55Z</time>
      </trkpt>
      <trkpt lat="48.37577" lon="-4.30683">
        <ele>63.1</ele>
        <time>2020-06-08T15:54:56Z</time>
      </trkpt>
      <trkpt lat="48.37579" lon="-4.30688">
        <ele>63.1</ele>
        <time>2020-06-08T15:54:57Z</time>
      </trkpt>
      <trkpt lat="48.37582" lon="-4.30692">
        <ele>63.2</ele>
        <time>2020-06-08T15:54:58Z</time>
      </trkpt>
      <trkpt lat="48.37585" lon="-4.30696">
        <ele>63.3</ele>
        <time>2020-06-08T15:54:59Z</time>
      </trkpt>
      <trkpt lat="48.37587" lon="-4.30701">
        <ele>63.4</ele>
        <time>2020-06-08T15:55:00Z</time>
      </trkpt>
      <trkpt lat="48.37589" lon="-4.30706">
        <ele>63.6</ele>
        <time>2020-06-08T15:55:01Z</time>
      </trkpt>
      <trkpt lat="48.37591" lon="-4.30711">
        <ele>63.7</ele>
        <time>2020-06-08T15:55:02Z</time>
      </trkpt>
      <trkpt lat="48.37593" lon="-4.30716">
        <ele>63.8</ele>
        <time>2020-06-08T15:55:03Z</time>
      </trkpt>
      <trkpt lat="48.37595" lon="-4.30721">
        <ele>64</ele>
        <time>2020-06-08T15:55:04Z</time>
      </trkpt>
      <trkpt lat="48.37597" lon="-4.30725">
        <ele>64.1</ele>
        <time>2020-06-08T15:55:05Z</time>
      </trkpt>
      <trkpt lat="48.37599" lon="-4.3073">
        <ele>64.3</ele>
        <time>2020-06-08T15:55:06Z</time>
      </trkpt>
      <trkpt lat="48.37602" lon="-4.30734">
        <ele>64.4</ele>
        <time>2020-06-08T15:55:07Z</time>
      </trkpt>
      <trkpt lat="48.37603" lon="-4.30738">
        <ele>64.6</ele>
        <time>2020-06-08T15:55:08Z</time>
      </trkpt>
      <trkpt lat="48.37606" lon="-4.30742">
        <ele>64.7</ele>
        <time>2020-06-08T15:55:09Z</time>
      </trkpt>
      <trkpt lat="48.37608" lon="-4.30746">
        <ele>64.9</ele>
        <time>2020-06-08T15:55:10Z</time>
      </trkpt>
      <trkpt lat="48.37611" lon="-4.30749">
        <ele>65</ele>
        <time>2020-06-08T15:55:11Z</time>
      </trkpt>
      <trkpt lat="48.37615" lon="-4.30752">
        <ele>65.2</ele>
        <time>2020-06-08T15:55:12Z</time>
      </trkpt>
      <trkpt lat="48.37617" lon="-4.30756">
        <ele>65.3</ele>
        <time>2020-06-08T15:55:13Z</time>
      </trkpt>
      <trkpt lat="48.37619" lon="-4.3076">
        <ele>65.4</ele>
        <time>2020-06-08T15:55:14Z</time>
      </trkpt>
      <trkpt lat="48.37621" lon="-4.30764">
        <ele>65.6</ele>
        <time>2020-06-08T15:55:15Z</time>
      </trkpt>
      <trkpt lat="48.37623" lon="-4.30768">
        <ele>65.7</ele>
        <time>2020-06-08T15:55:16Z</time>
      </trkpt>
      <trkpt lat="48.37625" lon="-4.30771">
        <ele>65.8</ele>
        <time>2020-06-08T15:55:17Z</time>
      </trkpt>
      <trkpt lat="48.37627" lon="-4.30775">
        <ele>65.9</ele>
        <time>2020-06-08T15:55:18Z</time>
      </trkpt>
      <trkpt lat="48.37629" lon="-4.30778">
        <ele>66</ele>
        <time>2020-06-08T15:55:19Z</time>
      </trkpt>
      <trkpt lat="48.37631" lon="-4.30782">
        <ele>66</ele>
        <time>2020-06-08T15:55:20Z</time>
      </trkpt>
      <trkpt lat="48.37633" lon="-4.30786">
        <ele>66.1</ele>
        <time>2020-06-08T15:55:21Z</time>
      </trkpt>
      <trkpt lat="48.37635" lon="-4.3079">
        <ele>66.1</ele>
        <time>2020-06-08T15:55:22Z</time>
      </trkpt>
      <trkpt lat="48.37638" lon="-4.30794">
        <ele>66.1</ele>
        <time>2020-06-08T15:55:23Z</time>
      </trkpt>
      <trkpt lat="48.3764" lon="-4.30798">
        <ele>66.1</ele>
        <time>2020-06-08T15:55:24Z</time>
      </trkpt>
      <trkpt lat="48.37643" lon="-4.30802">
        <ele>66.2</ele>
        <time>2020-06-08T15:55:25Z</time>
      </trkpt>
      <trkpt lat="48.37645" lon="-4.30806">
        <ele>66.3</ele>
        <time>2020-06-08T15:55:26Z</time>
      </trkpt>
      <trkpt lat="48.37647" lon="-4.3081">
        <ele>66.3</ele>
        <time>2020-06-08T15:55:27Z</time>
      </trkpt>
      <trkpt lat="48.3765" lon="-4.30814">
        <ele>66.4</ele>
        <time>2020-06-08T15:55:28Z</time>
      </trkpt>
      <trkpt lat="48.37652" lon="-4.30818">
        <ele>66.4</ele>
        <time>2020-06-08T15:55:29Z</time>
      </trkpt>
      <trkpt lat="48.37654" lon="-4.30823">
        <ele>66.5</ele>
        <time>2020-06-08T15:55:30Z</time>
      </trkpt>
      <trkpt lat="48.37658" lon="-4.30825">
        <ele>66.5</ele>
        <time>2020-06-08T15:55:31Z</time>
      </trkpt>
      <trkpt lat="48.3766" lon="-4.30829">
        <ele>66.6</ele>
        <time>2020-06-08T15:55:32Z</time>
      </trkpt>
      <trkpt lat="48.37663" lon="-4.30833">
        <ele>66.6</ele>
        <time>2020-06-08T15:55:33Z</time>
      </trkpt>
      <trkpt lat="48.37665" lon="-4.30837">
        <ele>66.7</ele>
        <time>2020-06-08T15:55:34Z</time>
      </trkpt>
      <trkpt lat="48.37668" lon="-4.30841">
        <ele>66.7</ele>
        <time>2020-06-08T15:55:35Z</time>
      </trkpt>
      <trkpt lat="48.37671" lon="-4.30844">
        <ele>66.7</ele>
        <time>2020-06-08T15:55:36Z</time>
      </trkpt>
      <trkpt lat="48.37674" lon="-4.30846">
        <ele>66.7</ele>
        <time>2020-06-08T15:55:37Z</time>
      </trkpt>
      <trkpt lat="48.37676" lon="-4.30851">
        <ele>66.7</ele>
        <time>2020-06-08T15:55:38Z</time>
      </trkpt>
      <trkpt lat="48.37679" lon="-4.30855">
        <ele>66.7</ele>
        <time>2020-06-08T15:55:39Z</time>
      </trkpt>
      <trkpt lat="48.37681" lon="-4.30859">
        <ele>66.7</ele>
        <time>2020-06-08T15:55:40Z</time>
      </trkpt>
      <trkpt lat="48.37684" lon="-4.30863">
        <ele>66.7</ele>
        <time>2020-06-08T15:55:41Z</time>
      </trkpt>
      <trkpt lat="48.37686" lon="-4.30866">
        <ele>66.7</ele>
        <time>2020-06-08T15:55:42Z</time>
      </trkpt>
      <trkpt lat="48.37689" lon="-4.30871">
        <ele>66.7</ele>
        <time>2020-06-08T15:55:43Z</time>
      </trkpt>
      <trkpt lat="48.37691" lon="-4.30876">
        <ele>66.6</ele>
        <time>2020-06-08T15:55:44Z</time>
      </trkpt>
      <trkpt lat="48.37693" lon="-4.3088">
        <ele>66.6</ele>
        <time>2020-06-08T15:55:45Z</time>
      </trkpt>
      <trkpt lat="48.37696" lon="-4.30884">
        <ele>66.6</ele>
        <time>2020-06-08T15:55:46Z</time>
      </trkpt>
      <trkpt lat="48.37699" lon="-4.30889">
        <ele>66.6</ele>
        <time>2020-06-08T15:55:47Z</time>
      </trkpt>
      <trkpt lat="48.37701" lon="-4.30894">
        <ele>66.6</ele>
        <time>2020-06-08T15:55:48Z</time>
      </trkpt>
      <trkpt lat="48.37704" lon="-4.30898">
        <ele>66.5</ele>
        <time>2020-06-08T15:55:49Z</time>
      </trkpt>
      <trkpt lat="48.37706" lon="-4.30902">
        <ele>66.5</ele>
        <time>2020-06-08T15:55:50Z</time>
      </trkpt>
      <trkpt lat="48.37709" lon="-4.30907">
        <ele>66.5</ele>
        <time>2020-06-08T15:55:51Z</time>
      </trkpt>
      <trkpt lat="48.37711" lon="-4.30912">
        <ele>66.5</ele>
        <time>2020-06-08T15:55:52Z</time>
      </trkpt>
      <trkpt lat="48.37713" lon="-4.30916">
        <ele>66.4</ele>
        <time>2020-06-08T15:55:53Z</time>
      </trkpt>
      <trkpt lat="48.37716" lon="-4.30921">
        <ele>66.4</ele>
        <time>2020-06-08T15:55:54Z</time>
      </trkpt>
      <trkpt lat="48.37718" lon="-4.30926">
        <ele>66.4</ele>
        <time>2020-06-08T15:55:55Z</time>
      </trkpt>
      <trkpt lat="48.3772" lon="-4.30931">
        <ele>66.4</ele>
        <time>2020-06-08T15:55:56Z</time>
      </trkpt>
      <trkpt lat="48.37722" lon="-4.30936">
        <ele>66.4</ele>
        <time>2020-06-08T15:55:57Z</time>
      </trkpt>
      <trkpt lat="48.37724" lon="-4.30942">
        <ele>66.4</ele>
        <time>2020-06-08T15:55:58Z</time>
      </trkpt>
      <trkpt lat="48.37727" lon="-4.30946">
        <ele>66.3</ele>
        <time>2020-06-08T15:55:59Z</time>
      </trkpt>
      <trkpt lat="48.37728" lon="-4.30952">
        <ele>66.3</ele>
        <time>2020-06-08T15:56:00Z</time>
      </trkpt>
      <trkpt lat="48.3773" lon="-4.30957">
        <ele>66.3</ele>
        <time>2020-06-08T15:56:01Z</time>
      </trkpt>
      <trkpt lat="48.37732" lon="-4.30962">
        <ele>66.2</ele>
        <time>2020-06-08T15:56:02Z</time>
      </trkpt>
      <trkpt lat="48.37735" lon="-4.30967">
        <ele>66.2</ele>
        <time>2020-06-08T15:56:03Z</time>
      </trkpt>
      <trkpt lat="48.37738" lon="-4.30971">
        <ele>66.2</ele>
        <time>2020-06-08T15:56:04Z</time>
      </trkpt>
      <trkpt lat="48.37741" lon="-4.30975">
        <ele>66.2</ele>
        <time>2020-06-08T15:56:05Z</time>
      </trkpt>
      <trkpt lat="48.37743" lon="-4.30979">
        <ele>66.1</ele>
        <time>2020-06-08T15:56:06Z</time>
      </trkpt>
      <trkpt lat="48.37745" lon="-4.30984">
        <ele>66.1</ele>
        <time>2020-06-08T15:56:07Z</time>
      </trkpt>
      <trkpt lat="48.37748" lon="-4.30989">
        <ele>66.1</ele>
        <time>2020-06-08T15:56:08Z</time>
      </trkpt>
      <trkpt lat="48.3775" lon="-4.30993">
        <ele>66.1</ele>
        <time>2020-06-08T15:56:09Z</time>
      </trkpt>
      <trkpt lat="48.37752" lon="-4.30997">
        <ele>66.1</ele>
        <time>2020-06-08T15:56:10Z</time>
      </trkpt>
      <trkpt lat="48.37754" lon="-4.31002">
        <ele>66.1</ele>
        <time>2020-06-08T15:56:11Z</time>
      </trkpt>
      <trkpt lat="48.37755" lon="-4.31007">
        <ele>66.1</ele>
        <time>2020-06-08T15:56:12Z</time>
      </trkpt>
      <trkpt lat="48.37757" lon="-4.31013">
        <ele>66.1</ele>
        <time>2020-06-08T15:56:13Z</time>
      </trkpt>
      <trkpt lat="48.37759" lon="-4.31018">
        <ele>66</ele>
        <time>2020-06-08T15:56:14Z</time>
      </trkpt>
      <trkpt lat="48.3776" lon="-4.31025">
        <ele>66</ele>
        <time>2020-06-08T15:56:15Z</time>
      </trkpt>
      <trkpt lat="48.37762" lon="-4.3103">
        <ele>66</ele>
        <time>2020-06-08T15:56:16Z</time>
      </trkpt>
      <trkpt lat="48.37764" lon="-4.31036">
        <ele>66</ele>
        <time>2020-06-08T15:56:17Z</time>
      </trkpt>
      <trkpt lat="48.37766" lon="-4.3104">
        <ele>66</ele>
        <time>2020-06-08T15:56:18Z</time>
      </trkpt>
      <trkpt lat="48.37768" lon="-4.31046">
        <ele>65.9</ele>
        <time>2020-06-08T15:56:19Z</time>
      </trkpt>
      <trkpt lat="48.37769" lon="-4.31051">
        <ele>65.9</ele>
        <time>2020-06-08T15:56:20Z</time>
      </trkpt>
      <trkpt lat="48.3777" lon="-4.31056">
        <ele>65.9</ele>
        <time>2020-06-08T15:56:21Z</time>
      </trkpt>
      <trkpt lat="48.37772" lon="-4.31061">
        <ele>65.9</ele>
        <time>2020-06-08T15:56:22Z</time>
      </trkpt>
      <trkpt lat="48.37774" lon="-4.31066">
        <ele>65.9</ele>
        <time>2020-06-08T15:56:23Z</time>
      </trkpt>
      <trkpt lat="48.37775" lon="-4.31072">
        <ele>65.8</ele>
        <time>2020-06-08T15:56:24Z</time>
      </trkpt>
      <trkpt lat="48.37775" lon="-4.31077">
        <ele>65.8</ele>
        <time>2020-06-08T15:56:25Z</time>
      </trkpt>
      <trkpt lat="48.37775" lon="-4.31081">
        <ele>65.8</ele>
        <time>2020-06-08T15:56:26Z</time>
      </trkpt>
      <trkpt lat="48.37776" lon="-4.31086">
        <ele>65.8</ele>
        <time>2020-06-08T15:56:27Z</time>
      </trkpt>
      <trkpt lat="48.37777" lon="-4.3109">
        <ele>65.8</ele>
        <time>2020-06-08T15:56:28Z</time>
      </trkpt>
      <trkpt lat="48.37778" lon="-4.31094">
        <ele>65.8</ele>
        <time>2020-06-08T15:56:29Z</time>
      </trkpt>
      <trkpt lat="48.37778" lon="-4.31099">
        <ele>65.8</ele>
        <time>2020-06-08T15:56:30Z</time>
      </trkpt>
      <trkpt lat="48.3778" lon="-4.31104">
        <ele>65.8</ele>
        <time>2020-06-08T15:56:31Z</time>
      </trkpt>
      <trkpt lat="48.3778" lon="-4.31109">
        <ele>65.7</ele>
        <time>2020-06-08T15:56:32Z</time>
      </trkpt>
      <trkpt lat="48.37781" lon="-4.31113">
        <ele>65.7</ele>
        <time>2020-06-08T15:56:33Z</time>
      </trkpt>
      <trkpt lat="48.37782" lon="-4.31117">
        <ele>65.6</ele>
        <time>2020-06-08T15:56:34Z</time>
      </trkpt>
      <trkpt lat="48.37784" lon="-4.31122">
        <ele>65.6</ele>
        <time>2020-06-08T15:56:35Z</time>
      </trkpt>
      <trkpt lat="48.37784" lon="-4.31123">
        <ele>65.6</ele>
        <time>2020-06-08T15:56:36Z</time>
      </trkpt>
      <trkpt lat="48.37785" lon="-4.31127">
        <ele>65.6</ele>
        <time>2020-06-08T15:56:37Z</time>
      </trkpt>
      <trkpt lat="48.37786" lon="-4.31133">
        <ele>65.5</ele>
        <time>2020-06-08T15:56:38Z</time>
      </trkpt>
      <trkpt lat="48.37785" lon="-4.31134">
        <ele>65.5</ele>
        <time>2020-06-08T15:56:39Z</time>
      </trkpt>
      <trkpt lat="48.37786" lon="-4.31139">
        <ele>65.5</ele>
        <time>2020-06-08T15:56:40Z</time>
      </trkpt>
      <trkpt lat="48.37786" lon="-4.31141">
        <ele>65.5</ele>
        <time>2020-06-08T15:56:41Z</time>
      </trkpt>
      <trkpt lat="48.37787" lon="-4.31145">
        <ele>65.4</ele>
        <time>2020-06-08T15:56:42Z</time>
      </trkpt>
      <trkpt lat="48.37784" lon="-4.31148">
        <ele>65.4</ele>
        <time>2020-06-08T15:56:43Z</time>
      </trkpt>
      <trkpt lat="48.37782" lon="-4.3115">
        <ele>65.4</ele>
        <time>2020-06-08T15:56:44Z</time>
      </trkpt>
      <trkpt lat="48.37779" lon="-4.31152">
        <ele>65.3</ele>
        <time>2020-06-08T15:56:45Z</time>
      </trkpt>
      <trkpt lat="48.37776" lon="-4.31153">
        <ele>65.3</ele>
        <time>2020-06-08T15:56:46Z</time>
      </trkpt>
      <trkpt lat="48.37773" lon="-4.31154">
        <ele>65.3</ele>
        <time>2020-06-08T15:56:47Z</time>
      </trkpt>
      <trkpt lat="48.37771" lon="-4.31155">
        <ele>65.3</ele>
        <time>2020-06-08T15:56:48Z</time>
      </trkpt>
      <trkpt lat="48.37768" lon="-4.31158">
        <ele>65.3</ele>
        <time>2020-06-08T15:56:49Z</time>
      </trkpt>
      <trkpt lat="48.37766" lon="-4.31162">
        <ele>65.2</ele>
        <time>2020-06-08T15:56:50Z</time>
      </trkpt>
      <trkpt lat="48.37764" lon="-4.31165">
        <ele>65.2</ele>
        <time>2020-06-08T15:56:51Z</time>
      </trkpt>
      <trkpt lat="48.37761" lon="-4.31167">
        <ele>65.3</ele>
        <time>2020-06-08T15:56:52Z</time>
      </trkpt>
      <trkpt lat="48.37759" lon="-4.31169">
        <ele>65.3</ele>
        <time>2020-06-08T15:56:53Z</time>
      </trkpt>
      <trkpt lat="48.37756" lon="-4.31171">
        <ele>65.3</ele>
        <time>2020-06-08T15:56:54Z</time>
      </trkpt>
      <trkpt lat="48.37754" lon="-4.31175">
        <ele>65.3</ele>
        <time>2020-06-08T15:56:55Z</time>
      </trkpt>
      <trkpt lat="48.37752" lon="-4.31178">
        <ele>65.3</ele>
        <time>2020-06-08T15:56:56Z</time>
      </trkpt>
      <trkpt lat="48.37749" lon="-4.31181">
        <ele>65.4</ele>
        <time>2020-06-08T15:56:57Z</time>
      </trkpt>
      <trkpt lat="48.37748" lon="-4.31184">
        <ele>65.4</ele>
        <time>2020-06-08T15:56:58Z</time>
      </trkpt>
      <trkpt lat="48.37746" lon="-4.31188">
        <ele>65.4</ele>
        <time>2020-06-08T15:56:59Z</time>
      </trkpt>
      <trkpt lat="48.37745" lon="-4.31189">
        <ele>65.4</ele>
        <time>2020-06-08T15:57:00Z</time>
      </trkpt>
      <trkpt lat="48.37745" lon="-4.31188">
        <ele>65.4</ele>
        <time>2020-06-08T15:57:01Z</time>
      </trkpt>
      <trkpt lat="48.37745" lon="-4.31187">
        <ele>65.4</ele>
        <time>2020-06-08T15:57:02Z</time>
      </trkpt>
      <trkpt lat="48.37744" lon="-4.31186">
        <ele>65.4</ele>
        <time>2020-06-08T15:57:03Z</time>
      </trkpt>
      <trkpt lat="48.37744" lon="-4.31185">
        <ele>65.4</ele>
        <time>2020-06-08T15:57:04Z</time>
      </trkpt>
      <trkpt lat="48.37744" lon="-4.31184">
        <ele>65.5</ele>
        <time>2020-06-08T15:57:05Z</time>
      </trkpt>
      <trkpt lat="48.37746" lon="-4.31179">
        <ele>65.4</ele>
        <time>2020-06-08T15:57:06Z</time>
      </trkpt>
      <trkpt lat="48.37747" lon="-4.31177">
        <ele>65.4</ele>
        <time>2020-06-08T15:57:07Z</time>
      </trkpt>
      <trkpt lat="48.37749" lon="-4.31174">
        <ele>65.4</ele>
        <time>2020-06-08T15:57:08Z</time>
      </trkpt>
      <trkpt lat="48.37751" lon="-4.31171">
        <ele>65.3</ele>
        <time>2020-06-08T15:57:09Z</time>
      </trkpt>
      <trkpt lat="48.37753" lon="-4.31168">
        <ele>65.3</ele>
        <time>2020-06-08T15:57:10Z</time>
      </trkpt>
      <trkpt lat="48.37756" lon="-4.31165">
        <ele>65.3</ele>
        <time>2020-06-08T15:57:11Z</time>
      </trkpt>
      <trkpt lat="48.37759" lon="-4.31162">
        <ele>65.3</ele>
        <time>2020-06-08T15:57:12Z</time>
      </trkpt>
      <trkpt lat="48.37762" lon="-4.31159">
        <ele>65.3</ele>
        <time>2020-06-08T15:57:13Z</time>
      </trkpt>
      <trkpt lat="48.37764" lon="-4.31156">
        <ele>65.2</ele>
        <time>2020-06-08T15:57:14Z</time>
      </trkpt>
      <trkpt lat="48.37766" lon="-4.31151">
        <ele>65.2</ele>
        <time>2020-06-08T15:57:15Z</time>
      </trkpt>
      <trkpt lat="48.37767" lon="-4.3115">
        <ele>65.3</ele>
        <time>2020-06-08T15:57:16Z</time>
      </trkpt>
      <trkpt lat="48.3777" lon="-4.31147">
        <ele>65.3</ele>
        <time>2020-06-08T15:57:17Z</time>
      </trkpt>
      <trkpt lat="48.37771" lon="-4.31146">
        <ele>65.3</ele>
        <time>2020-06-08T15:57:18Z</time>
      </trkpt>
      <trkpt lat="48.37773" lon="-4.31144">
        <ele>65.3</ele>
        <time>2020-06-08T15:57:19Z</time>
      </trkpt>
      <trkpt lat="48.37774" lon="-4.31145">
        <ele>65.3</ele>
        <time>2020-06-08T15:57:20Z</time>
      </trkpt>
      <trkpt lat="48.37775" lon="-4.31146">
        <ele>65.3</ele>
        <time>2020-06-08T15:57:21Z</time>
      </trkpt>
      <trkpt lat="48.37777" lon="-4.31148">
        <ele>65.3</ele>
        <time>2020-06-08T15:57:22Z</time>
      </trkpt>
      <trkpt lat="48.37778" lon="-4.31152">
        <ele>65.2</ele>
        <time>2020-06-08T15:57:23Z</time>
      </trkpt>
      <trkpt lat="48.37779" lon="-4.31153">
        <ele>65.2</ele>
        <time>2020-06-08T15:57:24Z</time>
      </trkpt>
      <trkpt lat="48.37781" lon="-4.31157">
        <ele>65.1</ele>
        <time>2020-06-08T15:57:25Z</time>
      </trkpt>
      <trkpt lat="48.37782" lon="-4.31159">
        <ele>65.1</ele>
        <time>2020-06-08T15:57:26Z</time>
      </trkpt>
      <trkpt lat="48.37784" lon="-4.31163">
        <ele>64.9</ele>
        <time>2020-06-08T15:57:27Z</time>
      </trkpt>
      <trkpt lat="48.37785" lon="-4.31165">
        <ele>64.8</ele>
        <time>2020-06-08T15:57:28Z</time>
      </trkpt>
      <trkpt lat="48.37786" lon="-4.31169">
        <ele>64.7</ele>
        <time>2020-06-08T15:57:29Z</time>
      </trkpt>
      <trkpt lat="48.37786" lon="-4.31175">
        <ele>64.5</ele>
        <time>2020-06-08T15:57:30Z</time>
      </trkpt>
      <trkpt lat="48.37785" lon="-4.31181">
        <ele>64.3</ele>
        <time>2020-06-08T15:57:31Z</time>
      </trkpt>
      <trkpt lat="48.37784" lon="-4.31187">
        <ele>64.1</ele>
        <time>2020-06-08T15:57:32Z</time>
      </trkpt>
      <trkpt lat="48.37784" lon="-4.31194">
        <ele>63.8</ele>
        <time>2020-06-08T15:57:33Z</time>
      </trkpt>
      <trkpt lat="48.37785" lon="-4.31202">
        <ele>63.3</ele>
        <time>2020-06-08T15:57:34Z</time>
      </trkpt>
      <trkpt lat="48.37786" lon="-4.31209">
        <ele>63.2</ele>
        <time>2020-06-08T15:57:35Z</time>
      </trkpt>
      <trkpt lat="48.37788" lon="-4.31217">
        <ele>63.1</ele>
        <time>2020-06-08T15:57:36Z</time>
      </trkpt>
      <trkpt lat="48.37788" lon="-4.31224">
        <ele>62.9</ele>
        <time>2020-06-08T15:57:37Z</time>
      </trkpt>
      <trkpt lat="48.37788" lon="-4.31233">
        <ele>62.7</ele>
        <time>2020-06-08T15:57:38Z</time>
      </trkpt>
      <trkpt lat="48.37789" lon="-4.31241">
        <ele>62.4</ele>
        <time>2020-06-08T15:57:39Z</time>
      </trkpt>
      <trkpt lat="48.37788" lon="-4.3125">
        <ele>62.1</ele>
        <time>2020-06-08T15:57:40Z</time>
      </trkpt>
      <trkpt lat="48.37789" lon="-4.31259">
        <ele>61.9</ele>
        <time>2020-06-08T15:57:41Z</time>
      </trkpt>
      <trkpt lat="48.3779" lon="-4.31268">
        <ele>61.6</ele>
        <time>2020-06-08T15:57:42Z</time>
      </trkpt>
      <trkpt lat="48.37791" lon="-4.31278">
        <ele>61.4</ele>
        <time>2020-06-08T15:57:43Z</time>
      </trkpt>
      <trkpt lat="48.37791" lon="-4.31289">
        <ele>61.1</ele>
        <time>2020-06-08T15:57:44Z</time>
      </trkpt>
      <trkpt lat="48.37792" lon="-4.313">
        <ele>60.8</ele>
        <time>2020-06-08T15:57:45Z</time>
      </trkpt>
      <trkpt lat="48.37792" lon="-4.3131">
        <ele>60.4</ele>
        <time>2020-06-08T15:57:46Z</time>
      </trkpt>
      <trkpt lat="48.37793" lon="-4.31321">
        <ele>60.1</ele>
        <time>2020-06-08T15:57:47Z</time>
      </trkpt>
      <trkpt lat="48.37794" lon="-4.31332">
        <ele>59.8</ele>
        <time>2020-06-08T15:57:48Z</time>
      </trkpt>
      <trkpt lat="48.37794" lon="-4.31343">
        <ele>59.4</ele>
        <time>2020-06-08T15:57:49Z</time>
      </trkpt>
      <trkpt lat="48.37795" lon="-4.31354">
        <ele>59</ele>
        <time>2020-06-08T15:57:50Z</time>
      </trkpt>
      <trkpt lat="48.37795" lon="-4.31365">
        <ele>58.5</ele>
        <time>2020-06-08T15:57:51Z</time>
      </trkpt>
      <trkpt lat="48.37796" lon="-4.31376">
        <ele>58.1</ele>
        <time>2020-06-08T15:57:52Z</time>
      </trkpt>
      <trkpt lat="48.37796" lon="-4.31387">
        <ele>57.6</ele>
        <time>2020-06-08T15:57:53Z</time>
      </trkpt>
      <trkpt lat="48.37796" lon="-4.31399">
        <ele>57</ele>
        <time>2020-06-08T15:57:54Z</time>
      </trkpt>
      <trkpt lat="48.37795" lon="-4.31411">
        <ele>56.5</ele>
        <time>2020-06-08T15:57:55Z</time>
      </trkpt>
      <trkpt lat="48.37795" lon="-4.31424">
        <ele>55.9</ele>
        <time>2020-06-08T15:57:56Z</time>
      </trkpt>
      <trkpt lat="48.37794" lon="-4.31436">
        <ele>55.3</ele>
        <time>2020-06-08T15:57:57Z</time>
      </trkpt>
      <trkpt lat="48.37792" lon="-4.31449">
        <ele>54.7</ele>
        <time>2020-06-08T15:57:58Z</time>
      </trkpt>
      <trkpt lat="48.37791" lon="-4.31462">
        <ele>54.1</ele>
        <time>2020-06-08T15:57:59Z</time>
      </trkpt>
      <trkpt lat="48.37791" lon="-4.31476">
        <ele>53.5</ele>
        <time>2020-06-08T15:58:00Z</time>
      </trkpt>
      <trkpt lat="48.37789" lon="-4.31491">
        <ele>52.8</ele>
        <time>2020-06-08T15:58:01Z</time>
      </trkpt>
      <trkpt lat="48.37787" lon="-4.31505">
        <ele>52.1</ele>
        <time>2020-06-08T15:58:02Z</time>
      </trkpt>
      <trkpt lat="48.37785" lon="-4.3152">
        <ele>51.5</ele>
        <time>2020-06-08T15:58:03Z</time>
      </trkpt>
      <trkpt lat="48.37783" lon="-4.31536">
        <ele>50.9</ele>
        <time>2020-06-08T15:58:04Z</time>
      </trkpt>
      <trkpt lat="48.37782" lon="-4.31551">
        <ele>50.3</ele>
        <time>2020-06-08T15:58:05Z</time>
      </trkpt>
      <trkpt lat="48.37781" lon="-4.31566">
        <ele>49.7</ele>
        <time>2020-06-08T15:58:06Z</time>
      </trkpt>
      <trkpt lat="48.3778" lon="-4.31581">
        <ele>49.1</ele>
        <time>2020-06-08T15:58:07Z</time>
      </trkpt>
      <trkpt lat="48.3778" lon="-4.31597">
        <ele>48.5</ele>
        <time>2020-06-08T15:58:08Z</time>
      </trkpt>
      <trkpt lat="48.37779" lon="-4.31612">
        <ele>47.8</ele>
        <time>2020-06-08T15:58:09Z</time>
      </trkpt>
      <trkpt lat="48.3778" lon="-4.31628">
        <ele>47.2</ele>
        <time>2020-06-08T15:58:10Z</time>
      </trkpt>
      <trkpt lat="48.37781" lon="-4.31644">
        <ele>46.6</ele>
        <time>2020-06-08T15:58:11Z</time>
      </trkpt>
      <trkpt lat="48.37783" lon="-4.3166">
        <ele>46</ele>
        <time>2020-06-08T15:58:12Z</time>
      </trkpt>
      <trkpt lat="48.37784" lon="-4.31676">
        <ele>45.5</ele>
        <time>2020-06-08T15:58:13Z</time>
      </trkpt>
      <trkpt lat="48.37785" lon="-4.31692">
        <ele>44.9</ele>
        <time>2020-06-08T15:58:14Z</time>
      </trkpt>
      <trkpt lat="48.37786" lon="-4.31708">
        <ele>44.4</ele>
        <time>2020-06-08T15:58:15Z</time>
      </trkpt>
      <trkpt lat="48.37787" lon="-4.31724">
        <ele>43.8</ele>
        <time>2020-06-08T15:58:16Z</time>
      </trkpt>
      <trkpt lat="48.37788" lon="-4.3174">
        <ele>43.2</ele>
        <time>2020-06-08T15:58:17Z</time>
      </trkpt>
      <trkpt lat="48.3779" lon="-4.31756">
        <ele>42.6</ele>
        <time>2020-06-08T15:58:18Z</time>
      </trkpt>
      <trkpt lat="48.37791" lon="-4.31772">
        <ele>42</ele>
        <time>2020-06-08T15:58:19Z</time>
      </trkpt>
      <trkpt lat="48.37792" lon="-4.31789">
        <ele>41.4</ele>
        <time>2020-06-08T15:58:20Z</time>
      </trkpt>
      <trkpt lat="48.37792" lon="-4.31805">
        <ele>40.8</ele>
        <time>2020-06-08T15:58:21Z</time>
      </trkpt>
      <trkpt lat="48.37793" lon="-4.31821">
        <ele>40.2</ele>
        <time>2020-06-08T15:58:22Z</time>
      </trkpt>
      <trkpt lat="48.37794" lon="-4.31838">
        <ele>39.7</ele>
        <time>2020-06-08T15:58:23Z</time>
      </trkpt>
      <trkpt lat="48.37794" lon="-4.31853">
        <ele>39.3</ele>
        <time>2020-06-08T15:58:24Z</time>
      </trkpt>
      <trkpt lat="48.37796" lon="-4.31869">
        <ele>38.9</ele>
        <time>2020-06-08T15:58:25Z</time>
      </trkpt>
      <trkpt lat="48.37797" lon="-4.31885">
        <ele>38.8</ele>
        <time>2020-06-08T15:58:26Z</time>
      </trkpt>
      <trkpt lat="48.37799" lon="-4.31901">
        <ele>38.4</ele>
        <time>2020-06-08T15:58:27Z</time>
      </trkpt>
      <trkpt lat="48.37801" lon="-4.31917">
        <ele>37.7</ele>
        <time>2020-06-08T15:58:28Z</time>
      </trkpt>
      <trkpt lat="48.37804" lon="-4.31932">
        <ele>37.2</ele>
        <time>2020-06-08T15:58:29Z</time>
      </trkpt>
      <trkpt lat="48.37808" lon="-4.31947">
        <ele>36.9</ele>
        <time>2020-06-08T15:58:30Z</time>
      </trkpt>
      <trkpt lat="48.37811" lon="-4.31961">
        <ele>36.6</ele>
        <time>2020-06-08T15:58:31Z</time>
      </trkpt>
      <trkpt lat="48.37815" lon="-4.31975">
        <ele>36.3</ele>
        <time>2020-06-08T15:58:32Z</time>
      </trkpt>
      <trkpt lat="48.37819" lon="-4.31988">
        <ele>36</ele>
        <time>2020-06-08T15:58:33Z</time>
      </trkpt>
      <trkpt lat="48.37824" lon="-4.32001">
        <ele>35.6</ele>
        <time>2020-06-08T15:58:34Z</time>
      </trkpt>
      <trkpt lat="48.37828" lon="-4.32014">
        <ele>35.5</ele>
        <time>2020-06-08T15:58:35Z</time>
      </trkpt>
      <trkpt lat="48.37832" lon="-4.32027">
        <ele>35.3</ele>
        <time>2020-06-08T15:58:36Z</time>
      </trkpt>
      <trkpt lat="48.37836" lon="-4.32039">
        <ele>35.2</ele>
        <time>2020-06-08T15:58:37Z</time>
      </trkpt>
      <trkpt lat="48.37841" lon="-4.32051">
        <ele>35.1</ele>
        <time>2020-06-08T15:58:38Z</time>
      </trkpt>
      <trkpt lat="48.37846" lon="-4.32062">
        <ele>35.1</ele>
        <time>2020-06-08T15:58:39Z</time>
      </trkpt>
      <trkpt lat="48.37851" lon="-4.32072">
        <ele>35.1</ele>
        <time>2020-06-08T15:58:40Z</time>
      </trkpt>
      <trkpt lat="48.37855" lon="-4.32083">
        <ele>35.2</ele>
        <time>2020-06-08T15:58:41Z</time>
      </trkpt>
      <trkpt lat="48.3786" lon="-4.32093">
        <ele>35.3</ele>
        <time>2020-06-08T15:58:42Z</time>
      </trkpt>
      <trkpt lat="48.37864" lon="-4.32104">
        <ele>35.3</ele>
        <time>2020-06-08T15:58:43Z</time>
      </trkpt>
      <trkpt lat="48.37869" lon="-4.32115">
        <ele>35.4</ele>
        <time>2020-06-08T15:58:44Z</time>
      </trkpt>
      <trkpt lat="48.37874" lon="-4.32125">
        <ele>35.4</ele>
        <time>2020-06-08T15:58:45Z</time>
      </trkpt>
      <trkpt lat="48.37879" lon="-4.32136">
        <ele>35.5</ele>
        <time>2020-06-08T15:58:46Z</time>
      </trkpt>
      <trkpt lat="48.37884" lon="-4.32145">
        <ele>35.6</ele>
        <time>2020-06-08T15:58:47Z</time>
      </trkpt>
      <trkpt lat="48.37886" lon="-4.32155">
        <ele>35.8</ele>
        <time>2020-06-08T15:58:48Z</time>
      </trkpt>
      <trkpt lat="48.37889" lon="-4.32165">
        <ele>36</ele>
        <time>2020-06-08T15:58:49Z</time>
      </trkpt>
      <trkpt lat="48.37893" lon="-4.32174">
        <ele>36.1</ele>
        <time>2020-06-08T15:58:50Z</time>
      </trkpt>
      <trkpt lat="48.37895" lon="-4.32184">
        <ele>36.3</ele>
        <time>2020-06-08T15:58:51Z</time>
      </trkpt>
      <trkpt lat="48.37898" lon="-4.32193">
        <ele>36.5</ele>
        <time>2020-06-08T15:58:52Z</time>
      </trkpt>
      <trkpt lat="48.37901" lon="-4.32204">
        <ele>36.6</ele>
        <time>2020-06-08T15:58:53Z</time>
      </trkpt>
      <trkpt lat="48.37903" lon="-4.32214">
        <ele>36.9</ele>
        <time>2020-06-08T15:58:54Z</time>
      </trkpt>
      <trkpt lat="48.37905" lon="-4.32225">
        <ele>37.1</ele>
        <time>2020-06-08T15:58:55Z</time>
      </trkpt>
      <trkpt lat="48.37908" lon="-4.32235">
        <ele>37.4</ele>
        <time>2020-06-08T15:58:56Z</time>
      </trkpt>
      <trkpt lat="48.37908" lon="-4.32245">
        <ele>37.8</ele>
        <time>2020-06-08T15:58:57Z</time>
      </trkpt>
      <trkpt lat="48.37909" lon="-4.32255">
        <ele>38.2</ele>
        <time>2020-06-08T15:58:58Z</time>
      </trkpt>
      <trkpt lat="48.37912" lon="-4.32266">
        <ele>38.4</ele>
        <time>2020-06-08T15:58:59Z</time>
      </trkpt>
      <trkpt lat="48.37913" lon="-4.32276">
        <ele>38.5</ele>
        <time>2020-06-08T15:59:00Z</time>
      </trkpt>
      <trkpt lat="48.37914" lon="-4.32286">
        <ele>38.7</ele>
        <time>2020-06-08T15:59:01Z</time>
      </trkpt>
      <trkpt lat="48.37915" lon="-4.32296">
        <ele>38.8</ele>
        <time>2020-06-08T15:59:02Z</time>
      </trkpt>
      <trkpt lat="48.37916" lon="-4.32305">
        <ele>39</ele>
        <time>2020-06-08T15:59:03Z</time>
      </trkpt>
      <trkpt lat="48.37916" lon="-4.32314">
        <ele>39.1</ele>
        <time>2020-06-08T15:59:04Z</time>
      </trkpt>
      <trkpt lat="48.37916" lon="-4.32324">
        <ele>39.3</ele>
        <time>2020-06-08T15:59:05Z</time>
      </trkpt>
      <trkpt lat="48.37916" lon="-4.32333">
        <ele>39.4</ele>
        <time>2020-06-08T15:59:06Z</time>
      </trkpt>
      <trkpt lat="48.37916" lon="-4.32342">
        <ele>39.6</ele>
        <time>2020-06-08T15:59:07Z</time>
      </trkpt>
      <trkpt lat="48.37916" lon="-4.32351">
        <ele>39.7</ele>
        <time>2020-06-08T15:59:08Z</time>
      </trkpt>
      <trkpt lat="48.37916" lon="-4.32359">
        <ele>39.8</ele>
        <time>2020-06-08T15:59:09Z</time>
      </trkpt>
      <trkpt lat="48.37917" lon="-4.32367">
        <ele>39.9</ele>
        <time>2020-06-08T15:59:10Z</time>
      </trkpt>
      <trkpt lat="48.37917" lon="-4.32375">
        <ele>40</ele>
        <time>2020-06-08T15:59:11Z</time>
      </trkpt>
      <trkpt lat="48.37917" lon="-4.32382">
        <ele>40.1</ele>
        <time>2020-06-08T15:59:12Z</time>
      </trkpt>
      <trkpt lat="48.37917" lon="-4.3239">
        <ele>40.2</ele>
        <time>2020-06-08T15:59:13Z</time>
      </trkpt>
      <trkpt lat="48.37917" lon="-4.32399">
        <ele>40.3</ele>
        <time>2020-06-08T15:59:14Z</time>
      </trkpt>
      <trkpt lat="48.37916" lon="-4.32407">
        <ele>40.4</ele>
        <time>2020-06-08T15:59:15Z</time>
      </trkpt>
      <trkpt lat="48.37916" lon="-4.32415">
        <ele>40.5</ele>
        <time>2020-06-08T15:59:16Z</time>
      </trkpt>
      <trkpt lat="48.37916" lon="-4.32424">
        <ele>40.5</ele>
        <time>2020-06-08T15:59:17Z</time>
      </trkpt>
      <trkpt lat="48.37915" lon="-4.32431">
        <ele>40.6</ele>
        <time>2020-06-08T15:59:18Z</time>
      </trkpt>
      <trkpt lat="48.37915" lon="-4.32439">
        <ele>40.7</ele>
        <time>2020-06-08T15:59:19Z</time>
      </trkpt>
      <trkpt lat="48.37914" lon="-4.32448">
        <ele>40.8</ele>
        <time>2020-06-08T15:59:20Z</time>
      </trkpt>
      <trkpt lat="48.37913" lon="-4.32457">
        <ele>41</ele>
        <time>2020-06-08T15:59:21Z</time>
      </trkpt>
      <trkpt lat="48.37913" lon="-4.32465">
        <ele>41.1</ele>
        <time>2020-06-08T15:59:22Z</time>
      </trkpt>
      <trkpt lat="48.37912" lon="-4.32472">
        <ele>41.3</ele>
        <time>2020-06-08T15:59:23Z</time>
      </trkpt>
      <trkpt lat="48.37912" lon="-4.3248">
        <ele>41.5</ele>
        <time>2020-06-08T15:59:24Z</time>
      </trkpt>
      <trkpt lat="48.37911" lon="-4.32489">
        <ele>41.7</ele>
        <time>2020-06-08T15:59:25Z</time>
      </trkpt>
      <trkpt lat="48.37911" lon="-4.32497">
        <ele>41.8</ele>
        <time>2020-06-08T15:59:26Z</time>
      </trkpt>
      <trkpt lat="48.37911" lon="-4.32504">
        <ele>42</ele>
        <time>2020-06-08T15:59:27Z</time>
      </trkpt>
      <trkpt lat="48.3791" lon="-4.3251">
        <ele>42.1</ele>
        <time>2020-06-08T15:59:28Z</time>
      </trkpt>
      <trkpt lat="48.3791" lon="-4.32515">
        <ele>42.5</ele>
        <time>2020-06-08T15:59:29Z</time>
      </trkpt>
      <trkpt lat="48.37909" lon="-4.32524">
        <ele>42.9</ele>
        <time>2020-06-08T15:59:30Z</time>
      </trkpt>
      <trkpt lat="48.3791" lon="-4.32531">
        <ele>43.2</ele>
        <time>2020-06-08T15:59:31Z</time>
      </trkpt>
      <trkpt lat="48.3791" lon="-4.32538">
        <ele>43.5</ele>
        <time>2020-06-08T15:59:32Z</time>
      </trkpt>
      <trkpt lat="48.37911" lon="-4.32545">
        <ele>43.8</ele>
        <time>2020-06-08T15:59:33Z</time>
      </trkpt>
      <trkpt lat="48.37911" lon="-4.32552">
        <ele>44.1</ele>
        <time>2020-06-08T15:59:34Z</time>
      </trkpt>
      <trkpt lat="48.37912" lon="-4.32558">
        <ele>44.4</ele>
        <time>2020-06-08T15:59:35Z</time>
      </trkpt>
      <trkpt lat="48.37912" lon="-4.32565">
        <ele>44.7</ele>
        <time>2020-06-08T15:59:36Z</time>
      </trkpt>
      <trkpt lat="48.37913" lon="-4.32571">
        <ele>45</ele>
        <time>2020-06-08T15:59:37Z</time>
      </trkpt>
      <trkpt lat="48.37913" lon="-4.32577">
        <ele>45.2</ele>
        <time>2020-06-08T15:59:38Z</time>
      </trkpt>
      <trkpt lat="48.37913" lon="-4.32581">
        <ele>45.5</ele>
        <time>2020-06-08T15:59:39Z</time>
      </trkpt>
      <trkpt lat="48.37913" lon="-4.32588">
        <ele>45.8</ele>
        <time>2020-06-08T15:59:40Z</time>
      </trkpt>
      <trkpt lat="48.37913" lon="-4.32596">
        <ele>46.2</ele>
        <time>2020-06-08T15:59:41Z</time>
      </trkpt>
      <trkpt lat="48.37914" lon="-4.32603">
        <ele>46.5</ele>
        <time>2020-06-08T15:59:42Z</time>
      </trkpt>
      <trkpt lat="48.37915" lon="-4.32608">
        <ele>46.8</ele>
        <time>2020-06-08T15:59:43Z</time>
      </trkpt>
      <trkpt lat="48.37915" lon="-4.32613">
        <ele>47</ele>
        <time>2020-06-08T15:59:44Z</time>
      </trkpt>
      <trkpt lat="48.37915" lon="-4.32618">
        <ele>47.3</ele>
        <time>2020-06-08T15:59:45Z</time>
      </trkpt>
      <trkpt lat="48.37915" lon="-4.32625">
        <ele>47.7</ele>
        <time>2020-06-08T15:59:46Z</time>
      </trkpt>
      <trkpt lat="48.37915" lon="-4.3263">
        <ele>48</ele>
        <time>2020-06-08T15:59:47Z</time>
      </trkpt>
      <trkpt lat="48.37916" lon="-4.32635">
        <ele>48.3</ele>
        <time>2020-06-08T15:59:48Z</time>
      </trkpt>
      <trkpt lat="48.37916" lon="-4.32639">
        <ele>48.5</ele>
        <time>2020-06-08T15:59:49Z</time>
      </trkpt>
      <trkpt lat="48.37917" lon="-4.32645">
        <ele>48.8</ele>
        <time>2020-06-08T15:59:50Z</time>
      </trkpt>
      <trkpt lat="48.37918" lon="-4.32652">
        <ele>49.1</ele>
        <time>2020-06-08T15:59:51Z</time>
      </trkpt>
      <trkpt lat="48.37919" lon="-4.32656">
        <ele>49.3</ele>
        <time>2020-06-08T15:59:52Z</time>
      </trkpt>
      <trkpt lat="48.3792" lon="-4.32662">
        <ele>49.5</ele>
        <time>2020-06-08T15:59:53Z</time>
      </trkpt>
      <trkpt lat="48.37921" lon="-4.32667">
        <ele>49.7</ele>
        <time>2020-06-08T15:59:54Z</time>
      </trkpt>
      <trkpt lat="48.37922" lon="-4.32673">
        <ele>49.9</ele>
        <time>2020-06-08T15:59:55Z</time>
      </trkpt>
      <trkpt lat="48.37923" lon="-4.32681">
        <ele>50.2</ele>
        <time>2020-06-08T15:59:56Z</time>
      </trkpt>
      <trkpt lat="48.37924" lon="-4.32685">
        <ele>50.3</ele>
        <time>2020-06-08T15:59:57Z</time>
      </trkpt>
      <trkpt lat="48.37925" lon="-4.32689">
        <ele>50.5</ele>
        <time>2020-06-08T15:59:58Z</time>
      </trkpt>
      <trkpt lat="48.37926" lon="-4.32695">
        <ele>50.6</ele>
        <time>2020-06-08T15:59:59Z</time>
      </trkpt>
      <trkpt lat="48.37927" lon="-4.32701">
        <ele>50.8</ele>
        <time>2020-06-08T16:00:00Z</time>
      </trkpt>
      <trkpt lat="48.37928" lon="-4.32706">
        <ele>50.9</ele>
        <time>2020-06-08T16:00:01Z</time>
      </trkpt>
      <trkpt lat="48.37931" lon="-4.32714">
        <ele>51</ele>
        <time>2020-06-08T16:00:02Z</time>
      </trkpt>
      <trkpt lat="48.37932" lon="-4.32718">
        <ele>51.1</ele>
        <time>2020-06-08T16:00:03Z</time>
      </trkpt>
      <trkpt lat="48.37933" lon="-4.32723">
        <ele>51.2</ele>
        <time>2020-06-08T16:00:04Z</time>
      </trkpt>
      <trkpt lat="48.37934" lon="-4.32728">
        <ele>51.3</ele>
        <time>2020-06-08T16:00:05Z</time>
      </trkpt>
      <trkpt lat="48.37936" lon="-4.32734">
        <ele>51.4</ele>
        <time>2020-06-08T16:00:06Z</time>
      </trkpt>
      <trkpt lat="48.37938" lon="-4.32738">
        <ele>51.4</ele>
        <time>2020-06-08T16:00:07Z</time>
      </trkpt>
      <trkpt lat="48.37939" lon="-4.32743">
        <ele>51.5</ele>
        <time>2020-06-08T16:00:08Z</time>
      </trkpt>
      <trkpt lat="48.37941" lon="-4.32748">
        <ele>51.5</ele>
        <time>2020-06-08T16:00:09Z</time>
      </trkpt>
      <trkpt lat="48.37943" lon="-4.32753">
        <ele>51.6</ele>
        <time>2020-06-08T16:00:10Z</time>
      </trkpt>
      <trkpt lat="48.37944" lon="-4.32758">
        <ele>51.6</ele>
        <time>2020-06-08T16:00:11Z</time>
      </trkpt>
      <trkpt lat="48.37945" lon="-4.3276">
        <ele>51.6</ele>
        <time>2020-06-08T16:00:12Z</time>
      </trkpt>
      <trkpt lat="48.37946" lon="-4.32764">
        <ele>51.6</ele>
        <time>2020-06-08T16:00:13Z</time>
      </trkpt>
      <trkpt lat="48.37948" lon="-4.3277">
        <ele>51.6</ele>
        <time>2020-06-08T16:00:14Z</time>
      </trkpt>
      <trkpt lat="48.37949" lon="-4.32773">
        <ele>51.6</ele>
        <time>2020-06-08T16:00:15Z</time>
      </trkpt>
      <trkpt lat="48.37951" lon="-4.32777">
        <ele>51.5</ele>
        <time>2020-06-08T16:00:16Z</time>
      </trkpt>
      <trkpt lat="48.37953" lon="-4.32781">
        <ele>51.5</ele>
        <time>2020-06-08T16:00:17Z</time>
      </trkpt>
      <trkpt lat="48.37955" lon="-4.32785">
        <ele>51.5</ele>
        <time>2020-06-08T16:00:18Z</time>
      </trkpt>
      <trkpt lat="48.37957" lon="-4.32789">
        <ele>51.5</ele>
        <time>2020-06-08T16:00:19Z</time>
      </trkpt>
      <trkpt lat="48.37958" lon="-4.32794">
        <ele>51.5</ele>
        <time>2020-06-08T16:00:20Z</time>
      </trkpt>
      <trkpt lat="48.3796" lon="-4.32797">
        <ele>51.4</ele>
        <time>2020-06-08T16:00:21Z</time>
      </trkpt>
      <trkpt lat="48.37963" lon="-4.32804">
        <ele>51.4</ele>
        <time>2020-06-08T16:00:22Z</time>
      </trkpt>
      <trkpt lat="48.37966" lon="-4.32811">
        <ele>51.4</ele>
        <time>2020-06-08T16:00:23Z</time>
      </trkpt>
      <trkpt lat="48.37969" lon="-4.32814">
        <ele>51.3</ele>
        <time>2020-06-08T16:00:24Z</time>
      </trkpt>
      <trkpt lat="48.37971" lon="-4.32819">
        <ele>51.3</ele>
        <time>2020-06-08T16:00:25Z</time>
      </trkpt>
      <trkpt lat="48.37973" lon="-4.32825">
        <ele>51.3</ele>
        <time>2020-06-08T16:00:26Z</time>
      </trkpt>
      <trkpt lat="48.37975" lon="-4.32829">
        <ele>51.3</ele>
        <time>2020-06-08T16:00:27Z</time>
      </trkpt>
      <trkpt lat="48.37977" lon="-4.32835">
        <ele>51.2</ele>
        <time>2020-06-08T16:00:28Z</time>
      </trkpt>
      <trkpt lat="48.3798" lon="-4.3284">
        <ele>51.2</ele>
        <time>2020-06-08T16:00:29Z</time>
      </trkpt>
      <trkpt lat="48.37983" lon="-4.32848">
        <ele>51.2</ele>
        <time>2020-06-08T16:00:30Z</time>
      </trkpt>
      <trkpt lat="48.37986" lon="-4.32853">
        <ele>51.1</ele>
        <time>2020-06-08T16:00:31Z</time>
      </trkpt>
      <trkpt lat="48.3799" lon="-4.32859">
        <ele>51.1</ele>
        <time>2020-06-08T16:00:32Z</time>
      </trkpt>
      <trkpt lat="48.37992" lon="-4.32865">
        <ele>51.1</ele>
        <time>2020-06-08T16:00:33Z</time>
      </trkpt>
      <trkpt lat="48.37994" lon="-4.3287">
        <ele>51.1</ele>
        <time>2020-06-08T16:00:34Z</time>
      </trkpt>
      <trkpt lat="48.37997" lon="-4.32877">
        <ele>51.1</ele>
        <time>2020-06-08T16:00:35Z</time>
      </trkpt>
      <trkpt lat="48.37999" lon="-4.32882">
        <ele>51.1</ele>
        <time>2020-06-08T16:00:36Z</time>
      </trkpt>
      <trkpt lat="48.38002" lon="-4.32889">
        <ele>51.1</ele>
        <time>2020-06-08T16:00:37Z</time>
      </trkpt>
      <trkpt lat="48.38004" lon="-4.32894">
        <ele>51.1</ele>
        <time>2020-06-08T16:00:38Z</time>
      </trkpt>
      <trkpt lat="48.38007" lon="-4.32898">
        <ele>51.1</ele>
        <time>2020-06-08T16:00:39Z</time>
      </trkpt>
      <trkpt lat="48.38009" lon="-4.32903">
        <ele>51.2</ele>
        <time>2020-06-08T16:00:40Z</time>
      </trkpt>
      <trkpt lat="48.38013" lon="-4.3291">
        <ele>51.2</ele>
        <time>2020-06-08T16:00:41Z</time>
      </trkpt>
      <trkpt lat="48.38015" lon="-4.32914">
        <ele>51.3</ele>
        <time>2020-06-08T16:00:42Z</time>
      </trkpt>
      <trkpt lat="48.38018" lon="-4.32919">
        <ele>51.4</ele>
        <time>2020-06-08T16:00:43Z</time>
      </trkpt>
      <trkpt lat="48.38022" lon="-4.32926">
        <ele>51.6</ele>
        <time>2020-06-08T16:00:44Z</time>
      </trkpt>
      <trkpt lat="48.38025" lon="-4.32931">
        <ele>51.7</ele>
        <time>2020-06-08T16:00:45Z</time>
      </trkpt>
      <trkpt lat="48.38027" lon="-4.32934">
        <ele>51.8</ele>
        <time>2020-06-08T16:00:46Z</time>
      </trkpt>
      <trkpt lat="48.3803" lon="-4.32939">
        <ele>51.9</ele>
        <time>2020-06-08T16:00:47Z</time>
      </trkpt>
      <trkpt lat="48.38033" lon="-4.32945">
        <ele>52.1</ele>
        <time>2020-06-08T16:00:48Z</time>
      </trkpt>
      <trkpt lat="48.38037" lon="-4.32949">
        <ele>52.3</ele>
        <time>2020-06-08T16:00:49Z</time>
      </trkpt>
      <trkpt lat="48.3804" lon="-4.32953">
        <ele>52.5</ele>
        <time>2020-06-08T16:00:50Z</time>
      </trkpt>
      <trkpt lat="48.38043" lon="-4.32957">
        <ele>52.8</ele>
        <time>2020-06-08T16:00:51Z</time>
      </trkpt>
      <trkpt lat="48.38046" lon="-4.32962">
        <ele>52.8</ele>
        <time>2020-06-08T16:00:52Z</time>
      </trkpt>
      <trkpt lat="48.3805" lon="-4.32968">
        <ele>52.9</ele>
        <time>2020-06-08T16:00:53Z</time>
      </trkpt>
      <trkpt lat="48.38053" lon="-4.32971">
        <ele>53</ele>
        <time>2020-06-08T16:00:54Z</time>
      </trkpt>
      <trkpt lat="48.38058" lon="-4.32976">
        <ele>53</ele>
        <time>2020-06-08T16:00:55Z</time>
      </trkpt>
      <trkpt lat="48.3806" lon="-4.32979">
        <ele>53.3</ele>
        <time>2020-06-08T16:00:56Z</time>
      </trkpt>
      <trkpt lat="48.38062" lon="-4.32982">
        <ele>53.5</ele>
        <time>2020-06-08T16:00:57Z</time>
      </trkpt>
      <trkpt lat="48.38064" lon="-4.32986">
        <ele>53.7</ele>
        <time>2020-06-08T16:00:58Z</time>
      </trkpt>
      <trkpt lat="48.38067" lon="-4.32992">
        <ele>54</ele>
        <time>2020-06-08T16:00:59Z</time>
      </trkpt>
      <trkpt lat="48.38071" lon="-4.33">
        <ele>54.4</ele>
        <time>2020-06-08T16:01:00Z</time>
      </trkpt>
      <trkpt lat="48.38074" lon="-4.33006">
        <ele>54.7</ele>
        <time>2020-06-08T16:01:01Z</time>
      </trkpt>
      <trkpt lat="48.38077" lon="-4.3301">
        <ele>55</ele>
        <time>2020-06-08T16:01:02Z</time>
      </trkpt>
      <trkpt lat="48.38079" lon="-4.33014">
        <ele>55.3</ele>
        <time>2020-06-08T16:01:03Z</time>
      </trkpt>
      <trkpt lat="48.38082" lon="-4.33018">
        <ele>55.6</ele>
        <time>2020-06-08T16:01:04Z</time>
      </trkpt>
      <trkpt lat="48.38085" lon="-4.33023">
        <ele>55.9</ele>
        <time>2020-06-08T16:01:05Z</time>
      </trkpt>
      <trkpt lat="48.38089" lon="-4.33029">
        <ele>56.3</ele>
        <time>2020-06-08T16:01:06Z</time>
      </trkpt>
      <trkpt lat="48.38091" lon="-4.33033">
        <ele>56.6</ele>
        <time>2020-06-08T16:01:07Z</time>
      </trkpt>
      <trkpt lat="48.38094" lon="-4.33036">
        <ele>56.9</ele>
        <time>2020-06-08T16:01:08Z</time>
      </trkpt>
      <trkpt lat="48.38097" lon="-4.33042">
        <ele>57.3</ele>
        <time>2020-06-08T16:01:09Z</time>
      </trkpt>
      <trkpt lat="48.381" lon="-4.33047">
        <ele>57.6</ele>
        <time>2020-06-08T16:01:10Z</time>
      </trkpt>
      <trkpt lat="48.38103" lon="-4.33052">
        <ele>58</ele>
        <time>2020-06-08T16:01:11Z</time>
      </trkpt>
      <trkpt lat="48.38107" lon="-4.33057">
        <ele>58.4</ele>
        <time>2020-06-08T16:01:12Z</time>
      </trkpt>
      <trkpt lat="48.3811" lon="-4.33062">
        <ele>58.7</ele>
        <time>2020-06-08T16:01:13Z</time>
      </trkpt>
      <trkpt lat="48.38113" lon="-4.33067">
        <ele>59.1</ele>
        <time>2020-06-08T16:01:14Z</time>
      </trkpt>
      <trkpt lat="48.38116" lon="-4.33071">
        <ele>59.4</ele>
        <time>2020-06-08T16:01:15Z</time>
      </trkpt>
      <trkpt lat="48.3812" lon="-4.33076">
        <ele>59.8</ele>
        <time>2020-06-08T16:01:16Z</time>
      </trkpt>
      <trkpt lat="48.38122" lon="-4.33078">
        <ele>60</ele>
        <time>2020-06-08T16:01:17Z</time>
      </trkpt>
      <trkpt lat="48.38125" lon="-4.33084">
        <ele>60.4</ele>
        <time>2020-06-08T16:01:18Z</time>
      </trkpt>
      <trkpt lat="48.38128" lon="-4.33087">
        <ele>60.7</ele>
        <time>2020-06-08T16:01:19Z</time>
      </trkpt>
      <trkpt lat="48.38131" lon="-4.33092">
        <ele>61.1</ele>
        <time>2020-06-08T16:01:20Z</time>
      </trkpt>
      <trkpt lat="48.38135" lon="-4.33096">
        <ele>61.5</ele>
        <time>2020-06-08T16:01:21Z</time>
      </trkpt>
      <trkpt lat="48.38138" lon="-4.331">
        <ele>61.8</ele>
        <time>2020-06-08T16:01:22Z</time>
      </trkpt>
      <trkpt lat="48.3814" lon="-4.33105">
        <ele>62.1</ele>
        <time>2020-06-08T16:01:23Z</time>
      </trkpt>
      <trkpt lat="48.38142" lon="-4.33109">
        <ele>62.3</ele>
        <time>2020-06-08T16:01:24Z</time>
      </trkpt>
      <trkpt lat="48.38143" lon="-4.33111">
        <ele>62.4</ele>
        <time>2020-06-08T16:01:25Z</time>
      </trkpt>
      <trkpt lat="48.38146" lon="-4.33116">
        <ele>62.7</ele>
        <time>2020-06-08T16:01:26Z</time>
      </trkpt>
      <trkpt lat="48.38148" lon="-4.33119">
        <ele>62.9</ele>
        <time>2020-06-08T16:01:27Z</time>
      </trkpt>
      <trkpt lat="48.38149" lon="-4.33122">
        <ele>63</ele>
        <time>2020-06-08T16:01:28Z</time>
      </trkpt>
      <trkpt lat="48.38152" lon="-4.33127">
        <ele>63.2</ele>
        <time>2020-06-08T16:01:29Z</time>
      </trkpt>
      <trkpt lat="48.38154" lon="-4.3313">
        <ele>63.4</ele>
        <time>2020-06-08T16:01:30Z</time>
      </trkpt>
      <trkpt lat="48.38157" lon="-4.33135">
        <ele>63.6</ele>
        <time>2020-06-08T16:01:31Z</time>
      </trkpt>
      <trkpt lat="48.38158" lon="-4.33138">
        <ele>63.7</ele>
        <time>2020-06-08T16:01:32Z</time>
      </trkpt>
      <trkpt lat="48.38159" lon="-4.33142">
        <ele>63.8</ele>
        <time>2020-06-08T16:01:33Z</time>
      </trkpt>
      <trkpt lat="48.3816" lon="-4.33146">
        <ele>63.9</ele>
        <time>2020-06-08T16:01:34Z</time>
      </trkpt>
      <trkpt lat="48.38162" lon="-4.33151">
        <ele>64</ele>
        <time>2020-06-08T16:01:35Z</time>
      </trkpt>
      <trkpt lat="48.38164" lon="-4.33155">
        <ele>64.1</ele>
        <time>2020-06-08T16:01:36Z</time>
      </trkpt>
      <trkpt lat="48.38166" lon="-4.33158">
        <ele>64.2</ele>
        <time>2020-06-08T16:01:37Z</time>
      </trkpt>
      <trkpt lat="48.38169" lon="-4.33163">
        <ele>64.3</ele>
        <time>2020-06-08T16:01:38Z</time>
      </trkpt>
      <trkpt lat="48.3817" lon="-4.33165">
        <ele>64.3</ele>
        <time>2020-06-08T16:01:39Z</time>
      </trkpt>
      <trkpt lat="48.38171" lon="-4.33169">
        <ele>64.4</ele>
        <time>2020-06-08T16:01:40Z</time>
      </trkpt>
      <trkpt lat="48.38172" lon="-4.3317">
        <ele>64.4</ele>
        <time>2020-06-08T16:01:41Z</time>
      </trkpt>
      <trkpt lat="48.38174" lon="-4.33175">
        <ele>64.5</ele>
        <time>2020-06-08T16:01:42Z</time>
      </trkpt>
      <trkpt lat="48.38176" lon="-4.33181">
        <ele>64.6</ele>
        <time>2020-06-08T16:01:43Z</time>
      </trkpt>
      <trkpt lat="48.38178" lon="-4.33187">
        <ele>64.7</ele>
        <time>2020-06-08T16:01:44Z</time>
      </trkpt>
      <trkpt lat="48.3818" lon="-4.33192">
        <ele>64.8</ele>
        <time>2020-06-08T16:01:45Z</time>
      </trkpt>
      <trkpt lat="48.38181" lon="-4.33197">
        <ele>64.8</ele>
        <time>2020-06-08T16:01:46Z</time>
      </trkpt>
      <trkpt lat="48.38182" lon="-4.33204">
        <ele>64.9</ele>
        <time>2020-06-08T16:01:47Z</time>
      </trkpt>
      <trkpt lat="48.38184" lon="-4.33208">
        <ele>65</ele>
        <time>2020-06-08T16:01:48Z</time>
      </trkpt>
      <trkpt lat="48.38186" lon="-4.33214">
        <ele>65</ele>
        <time>2020-06-08T16:01:49Z</time>
      </trkpt>
      <trkpt lat="48.38188" lon="-4.33219">
        <ele>65</ele>
        <time>2020-06-08T16:01:50Z</time>
      </trkpt>
      <trkpt lat="48.38191" lon="-4.33224">
        <ele>65</ele>
        <time>2020-06-08T16:01:51Z</time>
      </trkpt>
      <trkpt lat="48.38192" lon="-4.33228">
        <ele>65</ele>
        <time>2020-06-08T16:01:52Z</time>
      </trkpt>
      <trkpt lat="48.38194" lon="-4.33233">
        <ele>65</ele>
        <time>2020-06-08T16:01:53Z</time>
      </trkpt>
      <trkpt lat="48.38196" lon="-4.33238">
        <ele>65</ele>
        <time>2020-06-08T16:01:54Z</time>
      </trkpt>
      <trkpt lat="48.38197" lon="-4.33243">
        <ele>65.1</ele>
        <time>2020-06-08T16:01:55Z</time>
      </trkpt>
      <trkpt lat="48.38199" lon="-4.33248">
        <ele>65.1</ele>
        <time>2020-06-08T16:01:56Z</time>
      </trkpt>
      <trkpt lat="48.382" lon="-4.33254">
        <ele>65.1</ele>
        <time>2020-06-08T16:01:57Z</time>
      </trkpt>
      <trkpt lat="48.38202" lon="-4.3326">
        <ele>65.1</ele>
        <time>2020-06-08T16:01:58Z</time>
      </trkpt>
      <trkpt lat="48.38204" lon="-4.33266">
        <ele>65.1</ele>
        <time>2020-06-08T16:01:59Z</time>
      </trkpt>
      <trkpt lat="48.38206" lon="-4.33272">
        <ele>65.2</ele>
        <time>2020-06-08T16:02:00Z</time>
      </trkpt>
      <trkpt lat="48.38208" lon="-4.33277">
        <ele>65.2</ele>
        <time>2020-06-08T16:02:01Z</time>
      </trkpt>
      <trkpt lat="48.3821" lon="-4.33283">
        <ele>65.3</ele>
        <time>2020-06-08T16:02:02Z</time>
      </trkpt>
      <trkpt lat="48.38212" lon="-4.33288">
        <ele>65.3</ele>
        <time>2020-06-08T16:02:03Z</time>
      </trkpt>
      <trkpt lat="48.38213" lon="-4.33294">
        <ele>65.3</ele>
        <time>2020-06-08T16:02:04Z</time>
      </trkpt>
      <trkpt lat="48.38214" lon="-4.333">
        <ele>65.4</ele>
        <time>2020-06-08T16:02:05Z</time>
      </trkpt>
      <trkpt lat="48.38215" lon="-4.33304">
        <ele>65.4</ele>
        <time>2020-06-08T16:02:06Z</time>
      </trkpt>
      <trkpt lat="48.38217" lon="-4.33309">
        <ele>65.4</ele>
        <time>2020-06-08T16:02:07Z</time>
      </trkpt>
      <trkpt lat="48.38218" lon="-4.33314">
        <ele>65.4</ele>
        <time>2020-06-08T16:02:08Z</time>
      </trkpt>
      <trkpt lat="48.3822" lon="-4.33318">
        <ele>65.5</ele>
        <time>2020-06-08T16:02:09Z</time>
      </trkpt>
      <trkpt lat="48.38222" lon="-4.33323">
        <ele>65.5</ele>
        <time>2020-06-08T16:02:10Z</time>
      </trkpt>
      <trkpt lat="48.38224" lon="-4.33329">
        <ele>65.5</ele>
        <time>2020-06-08T16:02:11Z</time>
      </trkpt>
      <trkpt lat="48.38226" lon="-4.33334">
        <ele>65.6</ele>
        <time>2020-06-08T16:02:12Z</time>
      </trkpt>
      <trkpt lat="48.38228" lon="-4.33339">
        <ele>65.6</ele>
        <time>2020-06-08T16:02:13Z</time>
      </trkpt>
      <trkpt lat="48.38231" lon="-4.33344">
        <ele>65.6</ele>
        <time>2020-06-08T16:02:14Z</time>
      </trkpt>
      <trkpt lat="48.38233" lon="-4.3335">
        <ele>65.6</ele>
        <time>2020-06-08T16:02:15Z</time>
      </trkpt>
      <trkpt lat="48.38235" lon="-4.33356">
        <ele>65.5</ele>
        <time>2020-06-08T16:02:16Z</time>
      </trkpt>
      <trkpt lat="48.38237" lon="-4.33363">
        <ele>65.5</ele>
        <time>2020-06-08T16:02:17Z</time>
      </trkpt>
      <trkpt lat="48.38239" lon="-4.3337">
        <ele>65.5</ele>
        <time>2020-06-08T16:02:18Z</time>
      </trkpt>
      <trkpt lat="48.3824" lon="-4.33375">
        <ele>65.6</ele>
        <time>2020-06-08T16:02:19Z</time>
      </trkpt>
      <trkpt lat="48.38241" lon="-4.33382">
        <ele>65.6</ele>
        <time>2020-06-08T16:02:20Z</time>
      </trkpt>
      <trkpt lat="48.38243" lon="-4.33389">
        <ele>65.6</ele>
        <time>2020-06-08T16:02:21Z</time>
      </trkpt>
      <trkpt lat="48.38245" lon="-4.33395">
        <ele>65.6</ele>
        <time>2020-06-08T16:02:22Z</time>
      </trkpt>
      <trkpt lat="48.38247" lon="-4.33402">
        <ele>65.7</ele>
        <time>2020-06-08T16:02:23Z</time>
      </trkpt>
      <trkpt lat="48.38249" lon="-4.33408">
        <ele>65.7</ele>
        <time>2020-06-08T16:02:24Z</time>
      </trkpt>
      <trkpt lat="48.3825" lon="-4.33416">
        <ele>65.8</ele>
        <time>2020-06-08T16:02:25Z</time>
      </trkpt>
      <trkpt lat="48.38251" lon="-4.33422">
        <ele>65.9</ele>
        <time>2020-06-08T16:02:26Z</time>
      </trkpt>
      <trkpt lat="48.38253" lon="-4.33431">
        <ele>65.9</ele>
        <time>2020-06-08T16:02:27Z</time>
      </trkpt>
      <trkpt lat="48.38255" lon="-4.33438">
        <ele>66</ele>
        <time>2020-06-08T16:02:28Z</time>
      </trkpt>
      <trkpt lat="48.38257" lon="-4.33445">
        <ele>66</ele>
        <time>2020-06-08T16:02:29Z</time>
      </trkpt>
      <trkpt lat="48.38258" lon="-4.3345">
        <ele>66</ele>
        <time>2020-06-08T16:02:30Z</time>
      </trkpt>
      <trkpt lat="48.38258" lon="-4.33457">
        <ele>66</ele>
        <time>2020-06-08T16:02:31Z</time>
      </trkpt>
      <trkpt lat="48.38259" lon="-4.33462">
        <ele>66.1</ele>
        <time>2020-06-08T16:02:32Z</time>
      </trkpt>
      <trkpt lat="48.3826" lon="-4.3347">
        <ele>66.1</ele>
        <time>2020-06-08T16:02:33Z</time>
      </trkpt>
      <trkpt lat="48.38261" lon="-4.33477">
        <ele>66.1</ele>
        <time>2020-06-08T16:02:34Z</time>
      </trkpt>
      <trkpt lat="48.38262" lon="-4.33485">
        <ele>66.2</ele>
        <time>2020-06-08T16:02:35Z</time>
      </trkpt>
      <trkpt lat="48.38262" lon="-4.33493">
        <ele>66.2</ele>
        <time>2020-06-08T16:02:36Z</time>
      </trkpt>
      <trkpt lat="48.38262" lon="-4.33501">
        <ele>66.3</ele>
        <time>2020-06-08T16:02:37Z</time>
      </trkpt>
      <trkpt lat="48.38263" lon="-4.33509">
        <ele>66.3</ele>
        <time>2020-06-08T16:02:38Z</time>
      </trkpt>
      <trkpt lat="48.38263" lon="-4.33516">
        <ele>66.3</ele>
        <time>2020-06-08T16:02:39Z</time>
      </trkpt>
      <trkpt lat="48.38262" lon="-4.33524">
        <ele>66.4</ele>
        <time>2020-06-08T16:02:40Z</time>
      </trkpt>
      <trkpt lat="48.38262" lon="-4.33531">
        <ele>66.5</ele>
        <time>2020-06-08T16:02:41Z</time>
      </trkpt>
      <trkpt lat="48.38262" lon="-4.33538">
        <ele>66.6</ele>
        <time>2020-06-08T16:02:42Z</time>
      </trkpt>
      <trkpt lat="48.38261" lon="-4.33546">
        <ele>66.8</ele>
        <time>2020-06-08T16:02:43Z</time>
      </trkpt>
      <trkpt lat="48.38261" lon="-4.33554">
        <ele>66.9</ele>
        <time>2020-06-08T16:02:44Z</time>
      </trkpt>
      <trkpt lat="48.38259" lon="-4.33562">
        <ele>67</ele>
        <time>2020-06-08T16:02:45Z</time>
      </trkpt>
      <trkpt lat="48.38258" lon="-4.33569">
        <ele>67.2</ele>
        <time>2020-06-08T16:02:46Z</time>
      </trkpt>
      <trkpt lat="48.38257" lon="-4.33577">
        <ele>67.3</ele>
        <time>2020-06-08T16:02:47Z</time>
      </trkpt>
      <trkpt lat="48.38256" lon="-4.33584">
        <ele>67.5</ele>
        <time>2020-06-08T16:02:48Z</time>
      </trkpt>
      <trkpt lat="48.38256" lon="-4.33591">
        <ele>67.7</ele>
        <time>2020-06-08T16:02:49Z</time>
      </trkpt>
      <trkpt lat="48.38255" lon="-4.33598">
        <ele>67.9</ele>
        <time>2020-06-08T16:02:50Z</time>
      </trkpt>
      <trkpt lat="48.38254" lon="-4.33602">
        <ele>68.1</ele>
        <time>2020-06-08T16:02:51Z</time>
      </trkpt>
      <trkpt lat="48.38252" lon="-4.3361">
        <ele>68.3</ele>
        <time>2020-06-08T16:02:52Z</time>
      </trkpt>
      <trkpt lat="48.38251" lon="-4.33615">
        <ele>68.5</ele>
        <time>2020-06-08T16:02:53Z</time>
      </trkpt>
      <trkpt lat="48.38249" lon="-4.33622">
        <ele>68.8</ele>
        <time>2020-06-08T16:02:54Z</time>
      </trkpt>
      <trkpt lat="48.38247" lon="-4.33628">
        <ele>69</ele>
        <time>2020-06-08T16:02:55Z</time>
      </trkpt>
      <trkpt lat="48.38244" lon="-4.33633">
        <ele>69.3</ele>
        <time>2020-06-08T16:02:56Z</time>
      </trkpt>
      <trkpt lat="48.38242" lon="-4.3364">
        <ele>69.5</ele>
        <time>2020-06-08T16:02:57Z</time>
      </trkpt>
      <trkpt lat="48.38241" lon="-4.33645">
        <ele>69.7</ele>
        <time>2020-06-08T16:02:58Z</time>
      </trkpt>
      <trkpt lat="48.38239" lon="-4.3365">
        <ele>70</ele>
        <time>2020-06-08T16:02:59Z</time>
      </trkpt>
      <trkpt lat="48.38237" lon="-4.33656">
        <ele>70.4</ele>
        <time>2020-06-08T16:03:00Z</time>
      </trkpt>
      <trkpt lat="48.38235" lon="-4.33661">
        <ele>70.6</ele>
        <time>2020-06-08T16:03:01Z</time>
      </trkpt>
      <trkpt lat="48.38233" lon="-4.33665">
        <ele>70.8</ele>
        <time>2020-06-08T16:03:02Z</time>
      </trkpt>
      <trkpt lat="48.3823" lon="-4.33671">
        <ele>71</ele>
        <time>2020-06-08T16:03:03Z</time>
      </trkpt>
      <trkpt lat="48.38228" lon="-4.33675">
        <ele>71.2</ele>
        <time>2020-06-08T16:03:04Z</time>
      </trkpt>
      <trkpt lat="48.38225" lon="-4.33679">
        <ele>71.4</ele>
        <time>2020-06-08T16:03:05Z</time>
      </trkpt>
      <trkpt lat="48.38223" lon="-4.33685">
        <ele>71.7</ele>
        <time>2020-06-08T16:03:06Z</time>
      </trkpt>
      <trkpt lat="48.38221" lon="-4.3369">
        <ele>71.9</ele>
        <time>2020-06-08T16:03:07Z</time>
      </trkpt>
      <trkpt lat="48.38219" lon="-4.33694">
        <ele>72.1</ele>
        <time>2020-06-08T16:03:08Z</time>
      </trkpt>
      <trkpt lat="48.38217" lon="-4.33697">
        <ele>72.2</ele>
        <time>2020-06-08T16:03:09Z</time>
      </trkpt>
      <trkpt lat="48.38214" lon="-4.33701">
        <ele>72.4</ele>
        <time>2020-06-08T16:03:10Z</time>
      </trkpt>
      <trkpt lat="48.38212" lon="-4.33704">
        <ele>72.6</ele>
        <time>2020-06-08T16:03:11Z</time>
      </trkpt>
      <trkpt lat="48.38209" lon="-4.33709">
        <ele>72.8</ele>
        <time>2020-06-08T16:03:12Z</time>
      </trkpt>
      <trkpt lat="48.38207" lon="-4.33714">
        <ele>73.1</ele>
        <time>2020-06-08T16:03:13Z</time>
      </trkpt>
      <trkpt lat="48.38205" lon="-4.33719">
        <ele>73.3</ele>
        <time>2020-06-08T16:03:14Z</time>
      </trkpt>
      <trkpt lat="48.38203" lon="-4.33723">
        <ele>73.5</ele>
        <time>2020-06-08T16:03:15Z</time>
      </trkpt>
      <trkpt lat="48.38201" lon="-4.33728">
        <ele>73.7</ele>
        <time>2020-06-08T16:03:16Z</time>
      </trkpt>
      <trkpt lat="48.38198" lon="-4.33733">
        <ele>74</ele>
        <time>2020-06-08T16:03:17Z</time>
      </trkpt>
      <trkpt lat="48.38196" lon="-4.33739">
        <ele>74.2</ele>
        <time>2020-06-08T16:03:18Z</time>
      </trkpt>
      <trkpt lat="48.38194" lon="-4.33742">
        <ele>74.4</ele>
        <time>2020-06-08T16:03:19Z</time>
      </trkpt>
      <trkpt lat="48.38192" lon="-4.33747">
        <ele>74.6</ele>
        <time>2020-06-08T16:03:20Z</time>
      </trkpt>
      <trkpt lat="48.3819" lon="-4.33752">
        <ele>74.8</ele>
        <time>2020-06-08T16:03:21Z</time>
      </trkpt>
      <trkpt lat="48.38188" lon="-4.33755">
        <ele>75</ele>
        <time>2020-06-08T16:03:22Z</time>
      </trkpt>
      <trkpt lat="48.38186" lon="-4.33759">
        <ele>75.2</ele>
        <time>2020-06-08T16:03:23Z</time>
      </trkpt>
      <trkpt lat="48.38184" lon="-4.33763">
        <ele>75.5</ele>
        <time>2020-06-08T16:03:24Z</time>
      </trkpt>
      <trkpt lat="48.38182" lon="-4.33768">
        <ele>75.7</ele>
        <time>2020-06-08T16:03:25Z</time>
      </trkpt>
      <trkpt lat="48.3818" lon="-4.33771">
        <ele>75.9</ele>
        <time>2020-06-08T16:03:26Z</time>
      </trkpt>
      <trkpt lat="48.38178" lon="-4.33776">
        <ele>76.1</ele>
        <time>2020-06-08T16:03:27Z</time>
      </trkpt>
      <trkpt lat="48.38176" lon="-4.33782">
        <ele>76.3</ele>
        <time>2020-06-08T16:03:28Z</time>
      </trkpt>
      <trkpt lat="48.38173" lon="-4.33788">
        <ele>76.6</ele>
        <time>2020-06-08T16:03:29Z</time>
      </trkpt>
      <trkpt lat="48.38172" lon="-4.3379">
        <ele>76.7</ele>
        <time>2020-06-08T16:03:30Z</time>
      </trkpt>
      <trkpt lat="48.3817" lon="-4.33794">
        <ele>76.9</ele>
        <time>2020-06-08T16:03:31Z</time>
      </trkpt>
      <trkpt lat="48.38169" lon="-4.33797">
        <ele>77</ele>
        <time>2020-06-08T16:03:32Z</time>
      </trkpt>
      <trkpt lat="48.38168" lon="-4.33802">
        <ele>77.2</ele>
        <time>2020-06-08T16:03:33Z</time>
      </trkpt>
      <trkpt lat="48.38166" lon="-4.33809">
        <ele>77.5</ele>
        <time>2020-06-08T16:03:34Z</time>
      </trkpt>
      <trkpt lat="48.38164" lon="-4.33812">
        <ele>77.6</ele>
        <time>2020-06-08T16:03:35Z</time>
      </trkpt>
      <trkpt lat="48.38163" lon="-4.33816">
        <ele>77.8</ele>
        <time>2020-06-08T16:03:36Z</time>
      </trkpt>
      <trkpt lat="48.38161" lon="-4.33821">
        <ele>78</ele>
        <time>2020-06-08T16:03:37Z</time>
      </trkpt>
      <trkpt lat="48.38159" lon="-4.33825">
        <ele>78.2</ele>
        <time>2020-06-08T16:03:38Z</time>
      </trkpt>
      <trkpt lat="48.38158" lon="-4.3383">
        <ele>78.3</ele>
        <time>2020-06-08T16:03:39Z</time>
      </trkpt>
      <trkpt lat="48.38156" lon="-4.33835">
        <ele>78.5</ele>
        <time>2020-06-08T16:03:40Z</time>
      </trkpt>
      <trkpt lat="48.38155" lon="-4.33839">
        <ele>78.6</ele>
        <time>2020-06-08T16:03:41Z</time>
      </trkpt>
      <trkpt lat="48.38153" lon="-4.33844">
        <ele>78.8</ele>
        <time>2020-06-08T16:03:42Z</time>
      </trkpt>
      <trkpt lat="48.38154" lon="-4.33848">
        <ele>79</ele>
        <time>2020-06-08T16:03:43Z</time>
      </trkpt>
      <trkpt lat="48.38154" lon="-4.33854">
        <ele>79.1</ele>
        <time>2020-06-08T16:03:44Z</time>
      </trkpt>
      <trkpt lat="48.38153" lon="-4.33858">
        <ele>79.3</ele>
        <time>2020-06-08T16:03:45Z</time>
      </trkpt>
      <trkpt lat="48.38152" lon="-4.33865">
        <ele>79.5</ele>
        <time>2020-06-08T16:03:46Z</time>
      </trkpt>
      <trkpt lat="48.38152" lon="-4.33867">
        <ele>79.6</ele>
        <time>2020-06-08T16:03:47Z</time>
      </trkpt>
      <trkpt lat="48.38152" lon="-4.33872">
        <ele>79.7</ele>
        <time>2020-06-08T16:03:48Z</time>
      </trkpt>
      <trkpt lat="48.3815" lon="-4.33875">
        <ele>79.9</ele>
        <time>2020-06-08T16:03:49Z</time>
      </trkpt>
      <trkpt lat="48.3815" lon="-4.3388">
        <ele>80.1</ele>
        <time>2020-06-08T16:03:50Z</time>
      </trkpt>
      <trkpt lat="48.38149" lon="-4.33886">
        <ele>80.3</ele>
        <time>2020-06-08T16:03:51Z</time>
      </trkpt>
      <trkpt lat="48.38148" lon="-4.33888">
        <ele>80.4</ele>
        <time>2020-06-08T16:03:52Z</time>
      </trkpt>
      <trkpt lat="48.38147" lon="-4.33893">
        <ele>80.6</ele>
        <time>2020-06-08T16:03:53Z</time>
      </trkpt>
      <trkpt lat="48.38146" lon="-4.33898">
        <ele>80.7</ele>
        <time>2020-06-08T16:03:54Z</time>
      </trkpt>
      <trkpt lat="48.38146" lon="-4.33903">
        <ele>80.9</ele>
        <time>2020-06-08T16:03:55Z</time>
      </trkpt>
      <trkpt lat="48.38145" lon="-4.33909">
        <ele>81.1</ele>
        <time>2020-06-08T16:03:56Z</time>
      </trkpt>
      <trkpt lat="48.38144" lon="-4.33914">
        <ele>81.3</ele>
        <time>2020-06-08T16:03:57Z</time>
      </trkpt>
      <trkpt lat="48.38143" lon="-4.33919">
        <ele>81.5</ele>
        <time>2020-06-08T16:03:58Z</time>
      </trkpt>
      <trkpt lat="48.38142" lon="-4.33924">
        <ele>81.6</ele>
        <time>2020-06-08T16:03:59Z</time>
      </trkpt>
      <trkpt lat="48.38142" lon="-4.33928">
        <ele>81.8</ele>
        <time>2020-06-08T16:04:00Z</time>
      </trkpt>
      <trkpt lat="48.38141" lon="-4.33935">
        <ele>82</ele>
        <time>2020-06-08T16:04:01Z</time>
      </trkpt>
      <trkpt lat="48.38141" lon="-4.33937">
        <ele>82.1</ele>
        <time>2020-06-08T16:04:02Z</time>
      </trkpt>
      <trkpt lat="48.38141" lon="-4.33942">
        <ele>82.2</ele>
        <time>2020-06-08T16:04:03Z</time>
      </trkpt>
      <trkpt lat="48.38141" lon="-4.33948">
        <ele>82.4</ele>
        <time>2020-06-08T16:04:04Z</time>
      </trkpt>
      <trkpt lat="48.3814" lon="-4.33953">
        <ele>82.5</ele>
        <time>2020-06-08T16:04:05Z</time>
      </trkpt>
      <trkpt lat="48.3814" lon="-4.33958">
        <ele>82.7</ele>
        <time>2020-06-08T16:04:06Z</time>
      </trkpt>
      <trkpt lat="48.3814" lon="-4.33963">
        <ele>82.9</ele>
        <time>2020-06-08T16:04:07Z</time>
      </trkpt>
      <trkpt lat="48.38139" lon="-4.33968">
        <ele>83</ele>
        <time>2020-06-08T16:04:08Z</time>
      </trkpt>
      <trkpt lat="48.38139" lon="-4.33974">
        <ele>83.2</ele>
        <time>2020-06-08T16:04:09Z</time>
      </trkpt>
      <trkpt lat="48.38139" lon="-4.3398">
        <ele>83.3</ele>
        <time>2020-06-08T16:04:10Z</time>
      </trkpt>
      <trkpt lat="48.38139" lon="-4.33985">
        <ele>83.5</ele>
        <time>2020-06-08T16:04:11Z</time>
      </trkpt>
      <trkpt lat="48.38139" lon="-4.3399">
        <ele>83.6</ele>
        <time>2020-06-08T16:04:12Z</time>
      </trkpt>
      <trkpt lat="48.38139" lon="-4.33997">
        <ele>83.8</ele>
        <time>2020-06-08T16:04:13Z</time>
      </trkpt>
      <trkpt lat="48.38139" lon="-4.34">
        <ele>83.9</ele>
        <time>2020-06-08T16:04:14Z</time>
      </trkpt>
      <trkpt lat="48.3814" lon="-4.34005">
        <ele>84.1</ele>
        <time>2020-06-08T16:04:15Z</time>
      </trkpt>
      <trkpt lat="48.3814" lon="-4.34011">
        <ele>84.2</ele>
        <time>2020-06-08T16:04:16Z</time>
      </trkpt>
      <trkpt lat="48.38139" lon="-4.34017">
        <ele>84.4</ele>
        <time>2020-06-08T16:04:17Z</time>
      </trkpt>
      <trkpt lat="48.38139" lon="-4.34021">
        <ele>84.5</ele>
        <time>2020-06-08T16:04:18Z</time>
      </trkpt>
      <trkpt lat="48.3814" lon="-4.34026">
        <ele>84.6</ele>
        <time>2020-06-08T16:04:19Z</time>
      </trkpt>
      <trkpt lat="48.3814" lon="-4.34031">
        <ele>84.8</ele>
        <time>2020-06-08T16:04:20Z</time>
      </trkpt>
      <trkpt lat="48.38139" lon="-4.34037">
        <ele>84.9</ele>
        <time>2020-06-08T16:04:21Z</time>
      </trkpt>
      <trkpt lat="48.38139" lon="-4.34043">
        <ele>85.1</ele>
        <time>2020-06-08T16:04:22Z</time>
      </trkpt>
      <trkpt lat="48.3814" lon="-4.34048">
        <ele>85.2</ele>
        <time>2020-06-08T16:04:23Z</time>
      </trkpt>
      <trkpt lat="48.38139" lon="-4.34053">
        <ele>85.4</ele>
        <time>2020-06-08T16:04:24Z</time>
      </trkpt>
      <trkpt lat="48.38139" lon="-4.34057">
        <ele>85.5</ele>
        <time>2020-06-08T16:04:25Z</time>
      </trkpt>
      <trkpt lat="48.38139" lon="-4.34062">
        <ele>85.6</ele>
        <time>2020-06-08T16:04:26Z</time>
      </trkpt>
      <trkpt lat="48.38138" lon="-4.34066">
        <ele>85.7</ele>
        <time>2020-06-08T16:04:27Z</time>
      </trkpt>
      <trkpt lat="48.38138" lon="-4.34071">
        <ele>85.8</ele>
        <time>2020-06-08T16:04:28Z</time>
      </trkpt>
      <trkpt lat="48.38138" lon="-4.34075">
        <ele>85.9</ele>
        <time>2020-06-08T16:04:29Z</time>
      </trkpt>
      <trkpt lat="48.38139" lon="-4.34081">
        <ele>86.1</ele>
        <time>2020-06-08T16:04:30Z</time>
      </trkpt>
      <trkpt lat="48.38139" lon="-4.34084">
        <ele>86.1</ele>
        <time>2020-06-08T16:04:31Z</time>
      </trkpt>
      <trkpt lat="48.38139" lon="-4.3409">
        <ele>86.4</ele>
        <time>2020-06-08T16:04:32Z</time>
      </trkpt>
      <trkpt lat="48.3814" lon="-4.34096">
        <ele>86.5</ele>
        <time>2020-06-08T16:04:33Z</time>
      </trkpt>
      <trkpt lat="48.38141" lon="-4.34102">
        <ele>86.7</ele>
        <time>2020-06-08T16:04:34Z</time>
      </trkpt>
      <trkpt lat="48.38141" lon="-4.34108">
        <ele>86.9</ele>
        <time>2020-06-08T16:04:35Z</time>
      </trkpt>
      <trkpt lat="48.38141" lon="-4.34113">
        <ele>87</ele>
        <time>2020-06-08T16:04:36Z</time>
      </trkpt>
      <trkpt lat="48.38141" lon="-4.34118">
        <ele>87.2</ele>
        <time>2020-06-08T16:04:37Z</time>
      </trkpt>
      <trkpt lat="48.3814" lon="-4.34125">
        <ele>87.4</ele>
        <time>2020-06-08T16:04:38Z</time>
      </trkpt>
      <trkpt lat="48.3814" lon="-4.3413">
        <ele>87.6</ele>
        <time>2020-06-08T16:04:39Z</time>
      </trkpt>
      <trkpt lat="48.3814" lon="-4.34136">
        <ele>87.7</ele>
        <time>2020-06-08T16:04:40Z</time>
      </trkpt>
      <trkpt lat="48.3814" lon="-4.3414">
        <ele>87.8</ele>
        <time>2020-06-08T16:04:41Z</time>
      </trkpt>
      <trkpt lat="48.3814" lon="-4.34145">
        <ele>88</ele>
        <time>2020-06-08T16:04:42Z</time>
      </trkpt>
      <trkpt lat="48.38141" lon="-4.3415">
        <ele>88.2</ele>
        <time>2020-06-08T16:04:43Z</time>
      </trkpt>
      <trkpt lat="48.38142" lon="-4.34155">
        <ele>88.3</ele>
        <time>2020-06-08T16:04:44Z</time>
      </trkpt>
      <trkpt lat="48.38141" lon="-4.34161">
        <ele>88.5</ele>
        <time>2020-06-08T16:04:45Z</time>
      </trkpt>
      <trkpt lat="48.3814" lon="-4.34167">
        <ele>88.7</ele>
        <time>2020-06-08T16:04:46Z</time>
      </trkpt>
      <trkpt lat="48.38141" lon="-4.34171">
        <ele>88.8</ele>
        <time>2020-06-08T16:04:47Z</time>
      </trkpt>
      <trkpt lat="48.38141" lon="-4.34177">
        <ele>89</ele>
        <time>2020-06-08T16:04:48Z</time>
      </trkpt>
      <trkpt lat="48.3814" lon="-4.34182">
        <ele>89.2</ele>
        <time>2020-06-08T16:04:49Z</time>
      </trkpt>
      <trkpt lat="48.38139" lon="-4.34187">
        <ele>89.3</ele>
        <time>2020-06-08T16:04:50Z</time>
      </trkpt>
      <trkpt lat="48.38139" lon="-4.34192">
        <ele>89.5</ele>
        <time>2020-06-08T16:04:51Z</time>
      </trkpt>
      <trkpt lat="48.38139" lon="-4.34196">
        <ele>89.6</ele>
        <time>2020-06-08T16:04:52Z</time>
      </trkpt>
      <trkpt lat="48.3814" lon="-4.34201">
        <ele>89.7</ele>
        <time>2020-06-08T16:04:53Z</time>
      </trkpt>
      <trkpt lat="48.3814" lon="-4.34206">
        <ele>89.9</ele>
        <time>2020-06-08T16:04:54Z</time>
      </trkpt>
      <trkpt lat="48.3814" lon="-4.34212">
        <ele>90.1</ele>
        <time>2020-06-08T16:04:55Z</time>
      </trkpt>
      <trkpt lat="48.38139" lon="-4.34218">
        <ele>90.3</ele>
        <time>2020-06-08T16:04:56Z</time>
      </trkpt>
      <trkpt lat="48.38138" lon="-4.34223">
        <ele>90.4</ele>
        <time>2020-06-08T16:04:57Z</time>
      </trkpt>
      <trkpt lat="48.38138" lon="-4.34228">
        <ele>90.6</ele>
        <time>2020-06-08T16:04:58Z</time>
      </trkpt>
      <trkpt lat="48.38137" lon="-4.34234">
        <ele>90.8</ele>
        <time>2020-06-08T16:04:59Z</time>
      </trkpt>
      <trkpt lat="48.38137" lon="-4.34239">
        <ele>91</ele>
        <time>2020-06-08T16:05:00Z</time>
      </trkpt>
      <trkpt lat="48.38136" lon="-4.34245">
        <ele>91.2</ele>
        <time>2020-06-08T16:05:01Z</time>
      </trkpt>
      <trkpt lat="48.38136" lon="-4.34251">
        <ele>91.4</ele>
        <time>2020-06-08T16:05:02Z</time>
      </trkpt>
      <trkpt lat="48.38135" lon="-4.34255">
        <ele>91.6</ele>
        <time>2020-06-08T16:05:03Z</time>
      </trkpt>
      <trkpt lat="48.38135" lon="-4.34261">
        <ele>91.8</ele>
        <time>2020-06-08T16:05:04Z</time>
      </trkpt>
      <trkpt lat="48.38134" lon="-4.34267">
        <ele>92</ele>
        <time>2020-06-08T16:05:05Z</time>
      </trkpt>
      <trkpt lat="48.38134" lon="-4.34272">
        <ele>92.1</ele>
        <time>2020-06-08T16:05:06Z</time>
      </trkpt>
      <trkpt lat="48.38134" lon="-4.34276">
        <ele>92.3</ele>
        <time>2020-06-08T16:05:07Z</time>
      </trkpt>
      <trkpt lat="48.38133" lon="-4.34281">
        <ele>92.5</ele>
        <time>2020-06-08T16:05:08Z</time>
      </trkpt>
      <trkpt lat="48.38132" lon="-4.34286">
        <ele>92.6</ele>
        <time>2020-06-08T16:05:09Z</time>
      </trkpt>
      <trkpt lat="48.38131" lon="-4.34291">
        <ele>92.8</ele>
        <time>2020-06-08T16:05:10Z</time>
      </trkpt>
      <trkpt lat="48.38132" lon="-4.34297">
        <ele>93</ele>
        <time>2020-06-08T16:05:11Z</time>
      </trkpt>
      <trkpt lat="48.38132" lon="-4.34302">
        <ele>93.1</ele>
        <time>2020-06-08T16:05:12Z</time>
      </trkpt>
      <trkpt lat="48.38131" lon="-4.34307">
        <ele>93.3</ele>
        <time>2020-06-08T16:05:13Z</time>
      </trkpt>
      <trkpt lat="48.38131" lon="-4.34312">
        <ele>93.4</ele>
        <time>2020-06-08T16:05:14Z</time>
      </trkpt>
      <trkpt lat="48.38131" lon="-4.34317">
        <ele>93.6</ele>
        <time>2020-06-08T16:05:15Z</time>
      </trkpt>
      <trkpt lat="48.38131" lon="-4.34324">
        <ele>93.9</ele>
        <time>2020-06-08T16:05:16Z</time>
      </trkpt>
      <trkpt lat="48.3813" lon="-4.34327">
        <ele>94</ele>
        <time>2020-06-08T16:05:17Z</time>
      </trkpt>
      <trkpt lat="48.38129" lon="-4.34332">
        <ele>94.1</ele>
        <time>2020-06-08T16:05:18Z</time>
      </trkpt>
      <trkpt lat="48.38128" lon="-4.34337">
        <ele>94.3</ele>
        <time>2020-06-08T16:05:19Z</time>
      </trkpt>
      <trkpt lat="48.38128" lon="-4.34343">
        <ele>94.5</ele>
        <time>2020-06-08T16:05:20Z</time>
      </trkpt>
      <trkpt lat="48.38127" lon="-4.34348">
        <ele>94.7</ele>
        <time>2020-06-08T16:05:21Z</time>
      </trkpt>
      <trkpt lat="48.38127" lon="-4.34353">
        <ele>94.8</ele>
        <time>2020-06-08T16:05:22Z</time>
      </trkpt>
      <trkpt lat="48.38127" lon="-4.3436">
        <ele>95</ele>
        <time>2020-06-08T16:05:23Z</time>
      </trkpt>
      <trkpt lat="48.38127" lon="-4.34365">
        <ele>95.2</ele>
        <time>2020-06-08T16:05:24Z</time>
      </trkpt>
      <trkpt lat="48.38126" lon="-4.34371">
        <ele>95.4</ele>
        <time>2020-06-08T16:05:25Z</time>
      </trkpt>
      <trkpt lat="48.38126" lon="-4.34376">
        <ele>95.5</ele>
        <time>2020-06-08T16:05:26Z</time>
      </trkpt>
      <trkpt lat="48.38126" lon="-4.34381">
        <ele>95.7</ele>
        <time>2020-06-08T16:05:27Z</time>
      </trkpt>
      <trkpt lat="48.38126" lon="-4.34386">
        <ele>95.8</ele>
        <time>2020-06-08T16:05:28Z</time>
      </trkpt>
      <trkpt lat="48.38126" lon="-4.34391">
        <ele>96</ele>
        <time>2020-06-08T16:05:29Z</time>
      </trkpt>
      <trkpt lat="48.38126" lon="-4.34397">
        <ele>96.1</ele>
        <time>2020-06-08T16:05:30Z</time>
      </trkpt>
      <trkpt lat="48.38126" lon="-4.34401">
        <ele>96.3</ele>
        <time>2020-06-08T16:05:31Z</time>
      </trkpt>
      <trkpt lat="48.38125" lon="-4.34406">
        <ele>96.4</ele>
        <time>2020-06-08T16:05:32Z</time>
      </trkpt>
      <trkpt lat="48.38125" lon="-4.34411">
        <ele>96.5</ele>
        <time>2020-06-08T16:05:33Z</time>
      </trkpt>
      <trkpt lat="48.38125" lon="-4.34416">
        <ele>96.6</ele>
        <time>2020-06-08T16:05:34Z</time>
      </trkpt>
      <trkpt lat="48.38124" lon="-4.3442">
        <ele>96.8</ele>
        <time>2020-06-08T16:05:35Z</time>
      </trkpt>
      <trkpt lat="48.38123" lon="-4.34425">
        <ele>96.9</ele>
        <time>2020-06-08T16:05:36Z</time>
      </trkpt>
      <trkpt lat="48.38122" lon="-4.34431">
        <ele>97.1</ele>
        <time>2020-06-08T16:05:37Z</time>
      </trkpt>
      <trkpt lat="48.38122" lon="-4.34438">
        <ele>97.2</ele>
        <time>2020-06-08T16:05:38Z</time>
      </trkpt>
      <trkpt lat="48.38122" lon="-4.34441">
        <ele>97.3</ele>
        <time>2020-06-08T16:05:39Z</time>
      </trkpt>
      <trkpt lat="48.38122" lon="-4.34446">
        <ele>97.5</ele>
        <time>2020-06-08T16:05:40Z</time>
      </trkpt>
      <trkpt lat="48.3812" lon="-4.34452">
        <ele>97.6</ele>
        <time>2020-06-08T16:05:41Z</time>
      </trkpt>
      <trkpt lat="48.3812" lon="-4.34457">
        <ele>97.7</ele>
        <time>2020-06-08T16:05:42Z</time>
      </trkpt>
      <trkpt lat="48.3812" lon="-4.34463">
        <ele>97.8</ele>
        <time>2020-06-08T16:05:43Z</time>
      </trkpt>
      <trkpt lat="48.3812" lon="-4.34469">
        <ele>98</ele>
        <time>2020-06-08T16:05:44Z</time>
      </trkpt>
      <trkpt lat="48.3812" lon="-4.34475">
        <ele>98.1</ele>
        <time>2020-06-08T16:05:45Z</time>
      </trkpt>
      <trkpt lat="48.3812" lon="-4.34479">
        <ele>98.2</ele>
        <time>2020-06-08T16:05:46Z</time>
      </trkpt>
      <trkpt lat="48.38119" lon="-4.34484">
        <ele>98.3</ele>
        <time>2020-06-08T16:05:47Z</time>
      </trkpt>
      <trkpt lat="48.38119" lon="-4.3449">
        <ele>98.4</ele>
        <time>2020-06-08T16:05:48Z</time>
      </trkpt>
      <trkpt lat="48.38119" lon="-4.34496">
        <ele>98.5</ele>
        <time>2020-06-08T16:05:49Z</time>
      </trkpt>
      <trkpt lat="48.38119" lon="-4.34502">
        <ele>98.6</ele>
        <time>2020-06-08T16:05:50Z</time>
      </trkpt>
      <trkpt lat="48.3812" lon="-4.34507">
        <ele>98.7</ele>
        <time>2020-06-08T16:05:51Z</time>
      </trkpt>
      <trkpt lat="48.3812" lon="-4.34514">
        <ele>98.8</ele>
        <time>2020-06-08T16:05:52Z</time>
      </trkpt>
      <trkpt lat="48.38119" lon="-4.34522">
        <ele>99</ele>
        <time>2020-06-08T16:05:53Z</time>
      </trkpt>
      <trkpt lat="48.3812" lon="-4.34528">
        <ele>99.1</ele>
        <time>2020-06-08T16:05:54Z</time>
      </trkpt>
      <trkpt lat="48.38121" lon="-4.34534">
        <ele>99.2</ele>
        <time>2020-06-08T16:05:55Z</time>
      </trkpt>
      <trkpt lat="48.38123" lon="-4.3454">
        <ele>99.3</ele>
        <time>2020-06-08T16:05:56Z</time>
      </trkpt>
      <trkpt lat="48.38124" lon="-4.34546">
        <ele>99.4</ele>
        <time>2020-06-08T16:05:57Z</time>
      </trkpt>
      <trkpt lat="48.38125" lon="-4.34551">
        <ele>99.5</ele>
        <time>2020-06-08T16:05:58Z</time>
      </trkpt>
      <trkpt lat="48.38126" lon="-4.34556">
        <ele>99.6</ele>
        <time>2020-06-08T16:05:59Z</time>
      </trkpt>
      <trkpt lat="48.38127" lon="-4.3456">
        <ele>99.7</ele>
        <time>2020-06-08T16:06:00Z</time>
      </trkpt>
      <trkpt lat="48.38128" lon="-4.34566">
        <ele>99.8</ele>
        <time>2020-06-08T16:06:01Z</time>
      </trkpt>
      <trkpt lat="48.38128" lon="-4.34572">
        <ele>99.9</ele>
        <time>2020-06-08T16:06:02Z</time>
      </trkpt>
      <trkpt lat="48.38128" lon="-4.34575">
        <ele>100</ele>
        <time>2020-06-08T16:06:03Z</time>
      </trkpt>
      <trkpt lat="48.38129" lon="-4.34579">
        <ele>100.1</ele>
        <time>2020-06-08T16:06:04Z</time>
      </trkpt>
      <trkpt lat="48.3813" lon="-4.34585">
        <ele>100.2</ele>
        <time>2020-06-08T16:06:05Z</time>
      </trkpt>
      <trkpt lat="48.38131" lon="-4.34591">
        <ele>100.4</ele>
        <time>2020-06-08T16:06:06Z</time>
      </trkpt>
      <trkpt lat="48.38133" lon="-4.34597">
        <ele>100.5</ele>
        <time>2020-06-08T16:06:07Z</time>
      </trkpt>
      <trkpt lat="48.38134" lon="-4.34602">
        <ele>100.7</ele>
        <time>2020-06-08T16:06:08Z</time>
      </trkpt>
      <trkpt lat="48.38135" lon="-4.34606">
        <ele>100.9</ele>
        <time>2020-06-08T16:06:09Z</time>
      </trkpt>
      <trkpt lat="48.38136" lon="-4.3461">
        <ele>101.1</ele>
        <time>2020-06-08T16:06:10Z</time>
      </trkpt>
      <trkpt lat="48.38137" lon="-4.34615">
        <ele>101.3</ele>
        <time>2020-06-08T16:06:11Z</time>
      </trkpt>
      <trkpt lat="48.38138" lon="-4.34619">
        <ele>101.5</ele>
        <time>2020-06-08T16:06:12Z</time>
      </trkpt>
      <trkpt lat="48.3814" lon="-4.34624">
        <ele>101.7</ele>
        <time>2020-06-08T16:06:13Z</time>
      </trkpt>
      <trkpt lat="48.38141" lon="-4.3463">
        <ele>101.9</ele>
        <time>2020-06-08T16:06:14Z</time>
      </trkpt>
      <trkpt lat="48.38142" lon="-4.34637">
        <ele>102.2</ele>
        <time>2020-06-08T16:06:15Z</time>
      </trkpt>
      <trkpt lat="48.38143" lon="-4.34643">
        <ele>102.4</ele>
        <time>2020-06-08T16:06:16Z</time>
      </trkpt>
      <trkpt lat="48.38144" lon="-4.34648">
        <ele>102.7</ele>
        <time>2020-06-08T16:06:17Z</time>
      </trkpt>
      <trkpt lat="48.38147" lon="-4.34655">
        <ele>103</ele>
        <time>2020-06-08T16:06:18Z</time>
      </trkpt>
      <trkpt lat="48.38147" lon="-4.34658">
        <ele>103.1</ele>
        <time>2020-06-08T16:06:19Z</time>
      </trkpt>
      <trkpt lat="48.38149" lon="-4.34664">
        <ele>103.3</ele>
        <time>2020-06-08T16:06:20Z</time>
      </trkpt>
      <trkpt lat="48.3815" lon="-4.34668">
        <ele>103.5</ele>
        <time>2020-06-08T16:06:21Z</time>
      </trkpt>
      <trkpt lat="48.38151" lon="-4.34673">
        <ele>103.7</ele>
        <time>2020-06-08T16:06:22Z</time>
      </trkpt>
      <trkpt lat="48.38153" lon="-4.34678">
        <ele>103.7</ele>
        <time>2020-06-08T16:06:23Z</time>
      </trkpt>
      <trkpt lat="48.38154" lon="-4.34683">
        <ele>103.8</ele>
        <time>2020-06-08T16:06:24Z</time>
      </trkpt>
      <trkpt lat="48.38155" lon="-4.34687">
        <ele>103.8</ele>
        <time>2020-06-08T16:06:25Z</time>
      </trkpt>
      <trkpt lat="48.38157" lon="-4.34693">
        <ele>104.1</ele>
        <time>2020-06-08T16:06:26Z</time>
      </trkpt>
      <trkpt lat="48.38158" lon="-4.34698">
        <ele>104.2</ele>
        <time>2020-06-08T16:06:27Z</time>
      </trkpt>
      <trkpt lat="48.3816" lon="-4.34702">
        <ele>104.3</ele>
        <time>2020-06-08T16:06:28Z</time>
      </trkpt>
      <trkpt lat="48.38161" lon="-4.34707">
        <ele>104.4</ele>
        <time>2020-06-08T16:06:29Z</time>
      </trkpt>
      <trkpt lat="48.38164" lon="-4.34712">
        <ele>104.6</ele>
        <time>2020-06-08T16:06:30Z</time>
      </trkpt>
      <trkpt lat="48.38165" lon="-4.34717">
        <ele>104.8</ele>
        <time>2020-06-08T16:06:31Z</time>
      </trkpt>
      <trkpt lat="48.38167" lon="-4.34724">
        <ele>105.1</ele>
        <time>2020-06-08T16:06:32Z</time>
      </trkpt>
      <trkpt lat="48.38168" lon="-4.34731">
        <ele>105.3</ele>
        <time>2020-06-08T16:06:33Z</time>
      </trkpt>
      <trkpt lat="48.3817" lon="-4.34737">
        <ele>105.4</ele>
        <time>2020-06-08T16:06:34Z</time>
      </trkpt>
      <trkpt lat="48.38171" lon="-4.34743">
        <ele>105.6</ele>
        <time>2020-06-08T16:06:35Z</time>
      </trkpt>
      <trkpt lat="48.38172" lon="-4.34749">
        <ele>105.8</ele>
        <time>2020-06-08T16:06:36Z</time>
      </trkpt>
      <trkpt lat="48.38173" lon="-4.34753">
        <ele>106</ele>
        <time>2020-06-08T16:06:37Z</time>
      </trkpt>
      <trkpt lat="48.38173" lon="-4.34757">
        <ele>106.1</ele>
        <time>2020-06-08T16:06:38Z</time>
      </trkpt>
      <trkpt lat="48.38175" lon="-4.34761">
        <ele>106.2</ele>
        <time>2020-06-08T16:06:39Z</time>
      </trkpt>
      <trkpt lat="48.38176" lon="-4.34766">
        <ele>106.4</ele>
        <time>2020-06-08T16:06:40Z</time>
      </trkpt>
      <trkpt lat="48.38177" lon="-4.34772">
        <ele>106.6</ele>
        <time>2020-06-08T16:06:41Z</time>
      </trkpt>
      <trkpt lat="48.38178" lon="-4.34776">
        <ele>106.7</ele>
        <time>2020-06-08T16:06:42Z</time>
      </trkpt>
      <trkpt lat="48.38179" lon="-4.3478">
        <ele>106.8</ele>
        <time>2020-06-08T16:06:43Z</time>
      </trkpt>
      <trkpt lat="48.38181" lon="-4.34785">
        <ele>107</ele>
        <time>2020-06-08T16:06:44Z</time>
      </trkpt>
      <trkpt lat="48.38182" lon="-4.3479">
        <ele>107.2</ele>
        <time>2020-06-08T16:06:45Z</time>
      </trkpt>
      <trkpt lat="48.38183" lon="-4.34793">
        <ele>107.2</ele>
        <time>2020-06-08T16:06:46Z</time>
      </trkpt>
      <trkpt lat="48.38184" lon="-4.348">
        <ele>107.5</ele>
        <time>2020-06-08T16:06:47Z</time>
      </trkpt>
      <trkpt lat="48.38185" lon="-4.34806">
        <ele>107.7</ele>
        <time>2020-06-08T16:06:48Z</time>
      </trkpt>
      <trkpt lat="48.38186" lon="-4.3481">
        <ele>107.8</ele>
        <time>2020-06-08T16:06:49Z</time>
      </trkpt>
      <trkpt lat="48.38188" lon="-4.34814">
        <ele>107.9</ele>
        <time>2020-06-08T16:06:50Z</time>
      </trkpt>
      <trkpt lat="48.38189" lon="-4.34815">
        <ele>107.9</ele>
        <time>2020-06-08T16:06:51Z</time>
      </trkpt>
      <trkpt lat="48.38191" lon="-4.34818">
        <ele>108</ele>
        <time>2020-06-08T16:06:52Z</time>
      </trkpt>
      <trkpt lat="48.38193" lon="-4.34821">
        <ele>108.1</ele>
        <time>2020-06-08T16:06:53Z</time>
      </trkpt>
      <trkpt lat="48.38196" lon="-4.34821">
        <ele>108.2</ele>
        <time>2020-06-08T16:06:54Z</time>
      </trkpt>
      <trkpt lat="48.38199" lon="-4.34822">
        <ele>108.3</ele>
        <time>2020-06-08T16:06:55Z</time>
      </trkpt>
      <trkpt lat="48.38202" lon="-4.34823">
        <ele>108.4</ele>
        <time>2020-06-08T16:06:56Z</time>
      </trkpt>
      <trkpt lat="48.38203" lon="-4.34823">
        <ele>108.5</ele>
        <time>2020-06-08T16:06:57Z</time>
      </trkpt>
      <trkpt lat="48.38207" lon="-4.34824">
        <ele>108.6</ele>
        <time>2020-06-08T16:06:58Z</time>
      </trkpt>
      <trkpt lat="48.38208" lon="-4.34825">
        <ele>108.7</ele>
        <time>2020-06-08T16:06:59Z</time>
      </trkpt>
      <trkpt lat="48.3821" lon="-4.34827">
        <ele>108.7</ele>
        <time>2020-06-08T16:07:00Z</time>
      </trkpt>
      <trkpt lat="48.38212" lon="-4.34832">
        <ele>108.8</ele>
        <time>2020-06-08T16:07:01Z</time>
      </trkpt>
      <trkpt lat="48.38213" lon="-4.34836">
        <ele>108.9</ele>
        <time>2020-06-08T16:07:02Z</time>
      </trkpt>
      <trkpt lat="48.38215" lon="-4.3484">
        <ele>109</ele>
        <time>2020-06-08T16:07:03Z</time>
      </trkpt>
      <trkpt lat="48.38217" lon="-4.34845">
        <ele>109</ele>
        <time>2020-06-08T16:07:04Z</time>
      </trkpt>
      <trkpt lat="48.38218" lon="-4.34847">
        <ele>109.1</ele>
        <time>2020-06-08T16:07:05Z</time>
      </trkpt>
      <trkpt lat="48.38219" lon="-4.34851">
        <ele>109.2</ele>
        <time>2020-06-08T16:07:06Z</time>
      </trkpt>
      <trkpt lat="48.3822" lon="-4.34855">
        <ele>109.2</ele>
        <time>2020-06-08T16:07:07Z</time>
      </trkpt>
      <trkpt lat="48.3822" lon="-4.34858">
        <ele>109.3</ele>
        <time>2020-06-08T16:07:08Z</time>
      </trkpt>
      <trkpt lat="48.3822" lon="-4.3486">
        <ele>109.3</ele>
        <time>2020-06-08T16:07:09Z</time>
      </trkpt>
      <trkpt lat="48.3822" lon="-4.3486">
        <ele>109.3</ele>
        <time>2020-06-08T16:07:10Z</time>
      </trkpt>
      <trkpt lat="48.38221" lon="-4.34861">
        <ele>109.3</ele>
        <time>2020-06-08T16:07:11Z</time>
      </trkpt>
      <trkpt lat="48.38221" lon="-4.3486">
        <ele>109.3</ele>
        <time>2020-06-08T16:07:12Z</time>
      </trkpt>
      <trkpt lat="48.38222" lon="-4.3486">
        <ele>109.3</ele>
        <time>2020-06-08T16:07:13Z</time>
      </trkpt>
      <trkpt lat="48.38221" lon="-4.34861">
        <ele>109.4</ele>
        <time>2020-06-08T16:07:14Z</time>
      </trkpt>
      <trkpt lat="48.3822" lon="-4.34861">
        <ele>109.4</ele>
        <time>2020-06-08T16:07:15Z</time>
      </trkpt>
      <trkpt lat="48.3822" lon="-4.34861">
        <ele>109.4</ele>
        <time>2020-06-08T16:07:16Z</time>
      </trkpt>
      <trkpt lat="48.3822" lon="-4.34861">
        <ele>109.4</ele>
        <time>2020-06-08T16:07:17Z</time>
      </trkpt>
      <trkpt lat="48.38221" lon="-4.34861">
        <ele>109.4</ele>
        <time>2020-06-08T16:07:18Z</time>
      </trkpt>
      <trkpt lat="48.38221" lon="-4.34862">
        <ele>109.4</ele>
        <time>2020-06-08T16:07:19Z</time>
      </trkpt>
      <trkpt lat="48.38221" lon="-4.34864">
        <ele>109.4</ele>
        <time>2020-06-08T16:07:20Z</time>
      </trkpt>
      <trkpt lat="48.38218" lon="-4.34869">
        <ele>109.5</ele>
        <time>2020-06-08T16:07:21Z</time>
      </trkpt>
      <trkpt lat="48.38216" lon="-4.34871">
        <ele>109.5</ele>
        <time>2020-06-08T16:07:22Z</time>
      </trkpt>
      <trkpt lat="48.38213" lon="-4.34876">
        <ele>109.5</ele>
        <time>2020-06-08T16:07:23Z</time>
      </trkpt>
      <trkpt lat="48.38211" lon="-4.34881">
        <ele>109.4</ele>
        <time>2020-06-08T16:07:24Z</time>
      </trkpt>
      <trkpt lat="48.38209" lon="-4.34886">
        <ele>109.4</ele>
        <time>2020-06-08T16:07:25Z</time>
      </trkpt>
      <trkpt lat="48.38206" lon="-4.34891">
        <ele>109.4</ele>
        <time>2020-06-08T16:07:26Z</time>
      </trkpt>
      <trkpt lat="48.38203" lon="-4.34895">
        <ele>109.2</ele>
        <time>2020-06-08T16:07:27Z</time>
      </trkpt>
      <trkpt lat="48.38197" lon="-4.34898">
        <ele>109</ele>
        <time>2020-06-08T16:07:28Z</time>
      </trkpt>
      <trkpt lat="48.38192" lon="-4.349">
        <ele>108.8</ele>
        <time>2020-06-08T16:07:29Z</time>
      </trkpt>
      <trkpt lat="48.38189" lon="-4.34906">
        <ele>108.4</ele>
        <time>2020-06-08T16:07:30Z</time>
      </trkpt>
      <trkpt lat="48.38188" lon="-4.34913">
        <ele>108.2</ele>
        <time>2020-06-08T16:07:31Z</time>
      </trkpt>
      <trkpt lat="48.38188" lon="-4.34919">
        <ele>108.1</ele>
        <time>2020-06-08T16:07:32Z</time>
      </trkpt>
      <trkpt lat="48.3819" lon="-4.34924">
        <ele>108</ele>
        <time>2020-06-08T16:07:33Z</time>
      </trkpt>
      <trkpt lat="48.38192" lon="-4.34927">
        <ele>107.9</ele>
        <time>2020-06-08T16:07:34Z</time>
      </trkpt>
      <trkpt lat="48.38194" lon="-4.3493">
        <ele>107.8</ele>
        <time>2020-06-08T16:07:35Z</time>
      </trkpt>
      <trkpt lat="48.38194" lon="-4.34932">
        <ele>107.8</ele>
        <time>2020-06-08T16:07:36Z</time>
      </trkpt>
      <trkpt lat="48.38194" lon="-4.34933">
        <ele>107.8</ele>
        <time>2020-06-08T16:07:37Z</time>
      </trkpt>
      <trkpt lat="48.38194" lon="-4.34934">
        <ele>107.8</ele>
        <time>2020-06-08T16:07:38Z</time>
      </trkpt>
      <trkpt lat="48.38194" lon="-4.34935">
        <ele>107.8</ele>
        <time>2020-06-08T16:07:39Z</time>
      </trkpt>
      <trkpt lat="48.38194" lon="-4.34936">
        <ele>107.8</ele>
        <time>2020-06-08T16:07:40Z</time>
      </trkpt>
      <trkpt lat="48.38194" lon="-4.34937">
        <ele>107.7</ele>
        <time>2020-06-08T16:07:41Z</time>
      </trkpt>
      <trkpt lat="48.38194" lon="-4.34938">
        <ele>107.7</ele>
        <time>2020-06-08T16:07:42Z</time>
      </trkpt>
      <trkpt lat="48.38194" lon="-4.34939">
        <ele>107.7</ele>
        <time>2020-06-08T16:07:43Z</time>
      </trkpt>
      <trkpt lat="48.38194" lon="-4.34939">
        <ele>107.7</ele>
        <time>2020-06-08T16:07:44Z</time>
      </trkpt>
      <trkpt lat="48.38194" lon="-4.3494">
        <ele>107.7</ele>
        <time>2020-06-08T16:07:45Z</time>
      </trkpt>
      <trkpt lat="48.38194" lon="-4.34941">
        <ele>107.7</ele>
        <time>2020-06-08T16:07:46Z</time>
      </trkpt>
      <trkpt lat="48.38194" lon="-4.34942">
        <ele>107.7</ele>
        <time>2020-06-08T16:07:47Z</time>
      </trkpt>
      <trkpt lat="48.38194" lon="-4.34943">
        <ele>107.6</ele>
        <time>2020-06-08T16:11:32Z</time>
      </trkpt>
      <trkpt lat="48.38194" lon="-4.34944">
        <ele>107.6</ele>
        <time>2020-06-08T16:11:33Z</time>
      </trkpt>
      <trkpt lat="48.38193" lon="-4.34948">
        <ele>107.6</ele>
        <time>2020-06-08T16:11:34Z</time>
      </trkpt>
      <trkpt lat="48.38193" lon="-4.34951">
        <ele>107.5</ele>
        <time>2020-06-08T16:11:35Z</time>
      </trkpt>
      <trkpt lat="48.38192" lon="-4.34956">
        <ele>107.5</ele>
        <time>2020-06-08T16:11:36Z</time>
      </trkpt>
      <trkpt lat="48.38192" lon="-4.34958">
        <ele>107.4</ele>
        <time>2020-06-08T16:11:37Z</time>
      </trkpt>
      <trkpt lat="48.38192" lon="-4.34962">
        <ele>107.4</ele>
        <time>2020-06-08T16:11:38Z</time>
      </trkpt>
      <trkpt lat="48.38193" lon="-4.34968">
        <ele>107.3</ele>
        <time>2020-06-08T16:11:39Z</time>
      </trkpt>
      <trkpt lat="48.38193" lon="-4.3497">
        <ele>107.3</ele>
        <time>2020-06-08T16:11:40Z</time>
      </trkpt>
      <trkpt lat="48.38194" lon="-4.34975">
        <ele>107.2</ele>
        <time>2020-06-08T16:11:41Z</time>
      </trkpt>
      <trkpt lat="48.38194" lon="-4.34981">
        <ele>107.2</ele>
        <time>2020-06-08T16:11:42Z</time>
      </trkpt>
      <trkpt lat="48.38193" lon="-4.34987">
        <ele>107.2</ele>
        <time>2020-06-08T16:11:43Z</time>
      </trkpt>
      <trkpt lat="48.38194" lon="-4.34991">
        <ele>107.2</ele>
        <time>2020-06-08T16:11:44Z</time>
      </trkpt>
      <trkpt lat="48.38194" lon="-4.34997">
        <ele>107.1</ele>
        <time>2020-06-08T16:11:45Z</time>
      </trkpt>
      <trkpt lat="48.38196" lon="-4.35003">
        <ele>107.1</ele>
        <time>2020-06-08T16:11:46Z</time>
      </trkpt>
      <trkpt lat="48.38197" lon="-4.35008">
        <ele>107.1</ele>
        <time>2020-06-08T16:11:47Z</time>
      </trkpt>
      <trkpt lat="48.38197" lon="-4.35014">
        <ele>107.1</ele>
        <time>2020-06-08T16:11:48Z</time>
      </trkpt>
      <trkpt lat="48.38197" lon="-4.35019">
        <ele>107.1</ele>
        <time>2020-06-08T16:11:49Z</time>
      </trkpt>
      <trkpt lat="48.38198" lon="-4.35025">
        <ele>107.1</ele>
        <time>2020-06-08T16:11:50Z</time>
      </trkpt>
      <trkpt lat="48.38199" lon="-4.35029">
        <ele>107</ele>
        <time>2020-06-08T16:11:51Z</time>
      </trkpt>
      <trkpt lat="48.38199" lon="-4.35034">
        <ele>107</ele>
        <time>2020-06-08T16:11:52Z</time>
      </trkpt>
      <trkpt lat="48.382" lon="-4.35038">
        <ele>107</ele>
        <time>2020-06-08T16:11:53Z</time>
      </trkpt>
      <trkpt lat="48.382" lon="-4.35044">
        <ele>107</ele>
        <time>2020-06-08T16:11:54Z</time>
      </trkpt>
      <trkpt lat="48.38201" lon="-4.35049">
        <ele>107</ele>
        <time>2020-06-08T16:11:55Z</time>
      </trkpt>
      <trkpt lat="48.38201" lon="-4.35054">
        <ele>107</ele>
        <time>2020-06-08T16:11:56Z</time>
      </trkpt>
      <trkpt lat="48.38202" lon="-4.3506">
        <ele>107.1</ele>
        <time>2020-06-08T16:11:57Z</time>
      </trkpt>
      <trkpt lat="48.38203" lon="-4.35066">
        <ele>107.1</ele>
        <time>2020-06-08T16:11:58Z</time>
      </trkpt>
      <trkpt lat="48.38202" lon="-4.3507">
        <ele>107.1</ele>
        <time>2020-06-08T16:11:59Z</time>
      </trkpt>
      <trkpt lat="48.38202" lon="-4.35078">
        <ele>107.2</ele>
        <time>2020-06-08T16:12:00Z</time>
      </trkpt>
      <trkpt lat="48.38202" lon="-4.35085">
        <ele>107.2</ele>
        <time>2020-06-08T16:12:01Z</time>
      </trkpt>
      <trkpt lat="48.38203" lon="-4.35091">
        <ele>107.3</ele>
        <time>2020-06-08T16:12:02Z</time>
      </trkpt>
      <trkpt lat="48.38203" lon="-4.35099">
        <ele>107.4</ele>
        <time>2020-06-08T16:12:03Z</time>
      </trkpt>
      <trkpt lat="48.38204" lon="-4.35106">
        <ele>107.5</ele>
        <time>2020-06-08T16:12:04Z</time>
      </trkpt>
      <trkpt lat="48.38204" lon="-4.35112">
        <ele>107.5</ele>
        <time>2020-06-08T16:12:05Z</time>
      </trkpt>
      <trkpt lat="48.38204" lon="-4.35119">
        <ele>107.6</ele>
        <time>2020-06-08T16:12:06Z</time>
      </trkpt>
      <trkpt lat="48.38204" lon="-4.35124">
        <ele>107.7</ele>
        <time>2020-06-08T16:12:07Z</time>
      </trkpt>
      <trkpt lat="48.38204" lon="-4.35129">
        <ele>107.7</ele>
        <time>2020-06-08T16:12:08Z</time>
      </trkpt>
      <trkpt lat="48.38203" lon="-4.35135">
        <ele>107.8</ele>
        <time>2020-06-08T16:12:09Z</time>
      </trkpt>
      <trkpt lat="48.38203" lon="-4.35141">
        <ele>107.8</ele>
        <time>2020-06-08T16:12:10Z</time>
      </trkpt>
      <trkpt lat="48.38203" lon="-4.35147">
        <ele>107.9</ele>
        <time>2020-06-08T16:12:11Z</time>
      </trkpt>
      <trkpt lat="48.38203" lon="-4.35152">
        <ele>108</ele>
        <time>2020-06-08T16:12:12Z</time>
      </trkpt>
      <trkpt lat="48.38202" lon="-4.35159">
        <ele>108</ele>
        <time>2020-06-08T16:12:13Z</time>
      </trkpt>
      <trkpt lat="48.38202" lon="-4.35165">
        <ele>108.1</ele>
        <time>2020-06-08T16:12:14Z</time>
      </trkpt>
      <trkpt lat="48.38202" lon="-4.35171">
        <ele>108.2</ele>
        <time>2020-06-08T16:12:15Z</time>
      </trkpt>
      <trkpt lat="48.38203" lon="-4.35175">
        <ele>108.2</ele>
        <time>2020-06-08T16:12:16Z</time>
      </trkpt>
      <trkpt lat="48.38202" lon="-4.35182">
        <ele>108.3</ele>
        <time>2020-06-08T16:12:17Z</time>
      </trkpt>
      <trkpt lat="48.38201" lon="-4.35188">
        <ele>108.4</ele>
        <time>2020-06-08T16:12:18Z</time>
      </trkpt>
      <trkpt lat="48.38201" lon="-4.35194">
        <ele>108.5</ele>
        <time>2020-06-08T16:12:19Z</time>
      </trkpt>
      <trkpt lat="48.38201" lon="-4.35199">
        <ele>108.5</ele>
        <time>2020-06-08T16:12:20Z</time>
      </trkpt>
      <trkpt lat="48.382" lon="-4.35204">
        <ele>108.6</ele>
        <time>2020-06-08T16:12:21Z</time>
      </trkpt>
      <trkpt lat="48.382" lon="-4.3521">
        <ele>108.6</ele>
        <time>2020-06-08T16:12:22Z</time>
      </trkpt>
      <trkpt lat="48.38199" lon="-4.35216">
        <ele>108.6</ele>
        <time>2020-06-08T16:12:23Z</time>
      </trkpt>
      <trkpt lat="48.38199" lon="-4.35222">
        <ele>108.7</ele>
        <time>2020-06-08T16:12:24Z</time>
      </trkpt>
      <trkpt lat="48.38198" lon="-4.35228">
        <ele>108.8</ele>
        <time>2020-06-08T16:12:25Z</time>
      </trkpt>
      <trkpt lat="48.38198" lon="-4.35233">
        <ele>108.8</ele>
        <time>2020-06-08T16:12:26Z</time>
      </trkpt>
      <trkpt lat="48.38197" lon="-4.35238">
        <ele>108.9</ele>
        <time>2020-06-08T16:12:27Z</time>
      </trkpt>
      <trkpt lat="48.38196" lon="-4.35244">
        <ele>108.9</ele>
        <time>2020-06-08T16:12:28Z</time>
      </trkpt>
      <trkpt lat="48.38195" lon="-4.3525">
        <ele>109</ele>
        <time>2020-06-08T16:12:29Z</time>
      </trkpt>
      <trkpt lat="48.38194" lon="-4.35256">
        <ele>109.1</ele>
        <time>2020-06-08T16:12:30Z</time>
      </trkpt>
      <trkpt lat="48.38193" lon="-4.35263">
        <ele>109.2</ele>
        <time>2020-06-08T16:12:31Z</time>
      </trkpt>
      <trkpt lat="48.38193" lon="-4.35269">
        <ele>109.3</ele>
        <time>2020-06-08T16:12:32Z</time>
      </trkpt>
      <trkpt lat="48.38193" lon="-4.35274">
        <ele>109.4</ele>
        <time>2020-06-08T16:12:33Z</time>
      </trkpt>
      <trkpt lat="48.38194" lon="-4.35281">
        <ele>109.5</ele>
        <time>2020-06-08T16:12:34Z</time>
      </trkpt>
      <trkpt lat="48.38195" lon="-4.35287">
        <ele>109.6</ele>
        <time>2020-06-08T16:12:35Z</time>
      </trkpt>
      <trkpt lat="48.38196" lon="-4.35293">
        <ele>109.6</ele>
        <time>2020-06-08T16:12:36Z</time>
      </trkpt>
      <trkpt lat="48.38196" lon="-4.35299">
        <ele>109.7</ele>
        <time>2020-06-08T16:12:37Z</time>
      </trkpt>
      <trkpt lat="48.38196" lon="-4.35305">
        <ele>109.8</ele>
        <time>2020-06-08T16:12:38Z</time>
      </trkpt>
      <trkpt lat="48.38196" lon="-4.35311">
        <ele>109.8</ele>
        <time>2020-06-08T16:12:39Z</time>
      </trkpt>
      <trkpt lat="48.38196" lon="-4.35318">
        <ele>109.9</ele>
        <time>2020-06-08T16:12:40Z</time>
      </trkpt>
      <trkpt lat="48.38195" lon="-4.35324">
        <ele>110</ele>
        <time>2020-06-08T16:12:41Z</time>
      </trkpt>
      <trkpt lat="48.38195" lon="-4.35329">
        <ele>110</ele>
        <time>2020-06-08T16:12:42Z</time>
      </trkpt>
      <trkpt lat="48.38194" lon="-4.35335">
        <ele>110.1</ele>
        <time>2020-06-08T16:12:43Z</time>
      </trkpt>
      <trkpt lat="48.38195" lon="-4.3534">
        <ele>110.1</ele>
        <time>2020-06-08T16:12:44Z</time>
      </trkpt>
      <trkpt lat="48.38195" lon="-4.35346">
        <ele>110.2</ele>
        <time>2020-06-08T16:12:45Z</time>
      </trkpt>
      <trkpt lat="48.38195" lon="-4.35351">
        <ele>110.2</ele>
        <time>2020-06-08T16:12:46Z</time>
      </trkpt>
      <trkpt lat="48.38195" lon="-4.35357">
        <ele>110.3</ele>
        <time>2020-06-08T16:12:47Z</time>
      </trkpt>
      <trkpt lat="48.38195" lon="-4.35364">
        <ele>110.3</ele>
        <time>2020-06-08T16:12:48Z</time>
      </trkpt>
      <trkpt lat="48.38194" lon="-4.3537">
        <ele>110.4</ele>
        <time>2020-06-08T16:12:49Z</time>
      </trkpt>
      <trkpt lat="48.38193" lon="-4.35377">
        <ele>110.5</ele>
        <time>2020-06-08T16:12:50Z</time>
      </trkpt>
      <trkpt lat="48.38192" lon="-4.35384">
        <ele>110.6</ele>
        <time>2020-06-08T16:12:51Z</time>
      </trkpt>
      <trkpt lat="48.38192" lon="-4.3539">
        <ele>110.6</ele>
        <time>2020-06-08T16:12:52Z</time>
      </trkpt>
      <trkpt lat="48.38191" lon="-4.35396">
        <ele>110.7</ele>
        <time>2020-06-08T16:12:53Z</time>
      </trkpt>
      <trkpt lat="48.38192" lon="-4.35401">
        <ele>110.8</ele>
        <time>2020-06-08T16:12:54Z</time>
      </trkpt>
      <trkpt lat="48.38192" lon="-4.35407">
        <ele>110.8</ele>
        <time>2020-06-08T16:12:55Z</time>
      </trkpt>
      <trkpt lat="48.38191" lon="-4.35413">
        <ele>110.9</ele>
        <time>2020-06-08T16:12:56Z</time>
      </trkpt>
      <trkpt lat="48.3819" lon="-4.3542">
        <ele>110.9</ele>
        <time>2020-06-08T16:12:57Z</time>
      </trkpt>
      <trkpt lat="48.38189" lon="-4.35426">
        <ele>111</ele>
        <time>2020-06-08T16:12:58Z</time>
      </trkpt>
      <trkpt lat="48.38188" lon="-4.35433">
        <ele>111.1</ele>
        <time>2020-06-08T16:12:59Z</time>
      </trkpt>
      <trkpt lat="48.38188" lon="-4.3544">
        <ele>111.1</ele>
        <time>2020-06-08T16:13:00Z</time>
      </trkpt>
      <trkpt lat="48.38188" lon="-4.35446">
        <ele>111.2</ele>
        <time>2020-06-08T16:13:01Z</time>
      </trkpt>
      <trkpt lat="48.38188" lon="-4.35453">
        <ele>111.3</ele>
        <time>2020-06-08T16:13:02Z</time>
      </trkpt>
      <trkpt lat="48.38189" lon="-4.35457">
        <ele>111.3</ele>
        <time>2020-06-08T16:13:03Z</time>
      </trkpt>
      <trkpt lat="48.38189" lon="-4.35464">
        <ele>111.4</ele>
        <time>2020-06-08T16:13:04Z</time>
      </trkpt>
      <trkpt lat="48.38188" lon="-4.3547">
        <ele>111.5</ele>
        <time>2020-06-08T16:13:05Z</time>
      </trkpt>
      <trkpt lat="48.38188" lon="-4.35476">
        <ele>111.5</ele>
        <time>2020-06-08T16:13:06Z</time>
      </trkpt>
      <trkpt lat="48.38188" lon="-4.35483">
        <ele>111.6</ele>
        <time>2020-06-08T16:13:07Z</time>
      </trkpt>
      <trkpt lat="48.38187" lon="-4.3549">
        <ele>111.7</ele>
        <time>2020-06-08T16:13:08Z</time>
      </trkpt>
      <trkpt lat="48.38188" lon="-4.35496">
        <ele>111.7</ele>
        <time>2020-06-08T16:13:09Z</time>
      </trkpt>
      <trkpt lat="48.38187" lon="-4.35504">
        <ele>111.8</ele>
        <time>2020-06-08T16:13:10Z</time>
      </trkpt>
      <trkpt lat="48.38187" lon="-4.3551">
        <ele>111.9</ele>
        <time>2020-06-08T16:13:11Z</time>
      </trkpt>
      <trkpt lat="48.38187" lon="-4.35516">
        <ele>112</ele>
        <time>2020-06-08T16:13:12Z</time>
      </trkpt>
      <trkpt lat="48.38187" lon="-4.35523">
        <ele>112.1</ele>
        <time>2020-06-08T16:13:13Z</time>
      </trkpt>
      <trkpt lat="48.38187" lon="-4.35528">
        <ele>112.1</ele>
        <time>2020-06-08T16:13:14Z</time>
      </trkpt>
      <trkpt lat="48.38187" lon="-4.35534">
        <ele>112.2</ele>
        <time>2020-06-08T16:13:15Z</time>
      </trkpt>
      <trkpt lat="48.38187" lon="-4.35539">
        <ele>112.3</ele>
        <time>2020-06-08T16:13:16Z</time>
      </trkpt>
      <trkpt lat="48.38187" lon="-4.35546">
        <ele>112.4</ele>
        <time>2020-06-08T16:13:17Z</time>
      </trkpt>
      <trkpt lat="48.38187" lon="-4.35552">
        <ele>112.5</ele>
        <time>2020-06-08T16:13:18Z</time>
      </trkpt>
      <trkpt lat="48.38187" lon="-4.35558">
        <ele>112.7</ele>
        <time>2020-06-08T16:13:19Z</time>
      </trkpt>
      <trkpt lat="48.38186" lon="-4.35564">
        <ele>112.8</ele>
        <time>2020-06-08T16:13:20Z</time>
      </trkpt>
      <trkpt lat="48.38186" lon="-4.3557">
        <ele>113</ele>
        <time>2020-06-08T16:13:21Z</time>
      </trkpt>
      <trkpt lat="48.38186" lon="-4.35575">
        <ele>113</ele>
        <time>2020-06-08T16:13:22Z</time>
      </trkpt>
      <trkpt lat="48.38186" lon="-4.35581">
        <ele>113.1</ele>
        <time>2020-06-08T16:13:23Z</time>
      </trkpt>
      <trkpt lat="48.38185" lon="-4.35588">
        <ele>113.1</ele>
        <time>2020-06-08T16:13:24Z</time>
      </trkpt>
      <trkpt lat="48.38185" lon="-4.35594">
        <ele>113.2</ele>
        <time>2020-06-08T16:13:25Z</time>
      </trkpt>
      <trkpt lat="48.38186" lon="-4.356">
        <ele>113.2</ele>
        <time>2020-06-08T16:13:26Z</time>
      </trkpt>
      <trkpt lat="48.38186" lon="-4.35606">
        <ele>113.4</ele>
        <time>2020-06-08T16:13:27Z</time>
      </trkpt>
      <trkpt lat="48.38185" lon="-4.35613">
        <ele>113.4</ele>
        <time>2020-06-08T16:13:28Z</time>
      </trkpt>
      <trkpt lat="48.38185" lon="-4.35619">
        <ele>113.5</ele>
        <time>2020-06-08T16:13:29Z</time>
      </trkpt>
      <trkpt lat="48.38186" lon="-4.35625">
        <ele>113.5</ele>
        <time>2020-06-08T16:13:30Z</time>
      </trkpt>
      <trkpt lat="48.38186" lon="-4.35631">
        <ele>113.6</ele>
        <time>2020-06-08T16:13:31Z</time>
      </trkpt>
      <trkpt lat="48.38187" lon="-4.35638">
        <ele>113.6</ele>
        <time>2020-06-08T16:13:32Z</time>
      </trkpt>
      <trkpt lat="48.38187" lon="-4.35644">
        <ele>113.8</ele>
        <time>2020-06-08T16:13:33Z</time>
      </trkpt>
      <trkpt lat="48.38187" lon="-4.3565">
        <ele>113.8</ele>
        <time>2020-06-08T16:13:34Z</time>
      </trkpt>
      <trkpt lat="48.38187" lon="-4.35657">
        <ele>113.8</ele>
        <time>2020-06-08T16:13:35Z</time>
      </trkpt>
      <trkpt lat="48.38186" lon="-4.35664">
        <ele>113.9</ele>
        <time>2020-06-08T16:13:36Z</time>
      </trkpt>
      <trkpt lat="48.38187" lon="-4.3567">
        <ele>114</ele>
        <time>2020-06-08T16:13:37Z</time>
      </trkpt>
      <trkpt lat="48.38187" lon="-4.35676">
        <ele>114.1</ele>
        <time>2020-06-08T16:13:38Z</time>
      </trkpt>
      <trkpt lat="48.38188" lon="-4.35683">
        <ele>114.2</ele>
        <time>2020-06-08T16:13:39Z</time>
      </trkpt>
      <trkpt lat="48.38188" lon="-4.35689">
        <ele>114.3</ele>
        <time>2020-06-08T16:13:40Z</time>
      </trkpt>
      <trkpt lat="48.38187" lon="-4.35695">
        <ele>114.4</ele>
        <time>2020-06-08T16:13:41Z</time>
      </trkpt>
      <trkpt lat="48.38185" lon="-4.35699">
        <ele>114.5</ele>
        <time>2020-06-08T16:13:42Z</time>
      </trkpt>
      <trkpt lat="48.38183" lon="-4.35703">
        <ele>114.6</ele>
        <time>2020-06-08T16:13:43Z</time>
      </trkpt>
      <trkpt lat="48.38182" lon="-4.35708">
        <ele>114.8</ele>
        <time>2020-06-08T16:13:44Z</time>
      </trkpt>
      <trkpt lat="48.38182" lon="-4.35713">
        <ele>114.8</ele>
        <time>2020-06-08T16:13:45Z</time>
      </trkpt>
      <trkpt lat="48.38182" lon="-4.35719">
        <ele>114.8</ele>
        <time>2020-06-08T16:13:46Z</time>
      </trkpt>
      <trkpt lat="48.38184" lon="-4.35725">
        <ele>114.9</ele>
        <time>2020-06-08T16:13:47Z</time>
      </trkpt>
      <trkpt lat="48.38186" lon="-4.3573">
        <ele>114.9</ele>
        <time>2020-06-08T16:13:48Z</time>
      </trkpt>
      <trkpt lat="48.38188" lon="-4.35736">
        <ele>114.9</ele>
        <time>2020-06-08T16:13:49Z</time>
      </trkpt>
      <trkpt lat="48.38189" lon="-4.35742">
        <ele>114.9</ele>
        <time>2020-06-08T16:13:50Z</time>
      </trkpt>
      <trkpt lat="48.38189" lon="-4.35748">
        <ele>115</ele>
        <time>2020-06-08T16:13:51Z</time>
      </trkpt>
      <trkpt lat="48.38188" lon="-4.35754">
        <ele>115</ele>
        <time>2020-06-08T16:13:52Z</time>
      </trkpt>
      <trkpt lat="48.38189" lon="-4.35761">
        <ele>115</ele>
        <time>2020-06-08T16:13:53Z</time>
      </trkpt>
      <trkpt lat="48.38189" lon="-4.35768">
        <ele>115.1</ele>
        <time>2020-06-08T16:13:54Z</time>
      </trkpt>
      <trkpt lat="48.38189" lon="-4.35775">
        <ele>115.1</ele>
        <time>2020-06-08T16:13:55Z</time>
      </trkpt>
      <trkpt lat="48.38189" lon="-4.35781">
        <ele>115.2</ele>
        <time>2020-06-08T16:13:56Z</time>
      </trkpt>
      <trkpt lat="48.38189" lon="-4.35789">
        <ele>115.3</ele>
        <time>2020-06-08T16:13:57Z</time>
      </trkpt>
      <trkpt lat="48.38189" lon="-4.35796">
        <ele>115.3</ele>
        <time>2020-06-08T16:13:58Z</time>
      </trkpt>
      <trkpt lat="48.38188" lon="-4.35804">
        <ele>115.3</ele>
        <time>2020-06-08T16:13:59Z</time>
      </trkpt>
      <trkpt lat="48.38189" lon="-4.35811">
        <ele>115.4</ele>
        <time>2020-06-08T16:14:00Z</time>
      </trkpt>
      <trkpt lat="48.3819" lon="-4.35818">
        <ele>115.4</ele>
        <time>2020-06-08T16:14:01Z</time>
      </trkpt>
      <trkpt lat="48.38191" lon="-4.35827">
        <ele>115.5</ele>
        <time>2020-06-08T16:14:02Z</time>
      </trkpt>
      <trkpt lat="48.38191" lon="-4.35835">
        <ele>115.5</ele>
        <time>2020-06-08T16:14:03Z</time>
      </trkpt>
      <trkpt lat="48.38189" lon="-4.35843">
        <ele>115.5</ele>
        <time>2020-06-08T16:14:04Z</time>
      </trkpt>
      <trkpt lat="48.3819" lon="-4.35848">
        <ele>115.6</ele>
        <time>2020-06-08T16:14:05Z</time>
      </trkpt>
      <trkpt lat="48.3819" lon="-4.35854">
        <ele>115.6</ele>
        <time>2020-06-08T16:14:06Z</time>
      </trkpt>
      <trkpt lat="48.3819" lon="-4.35862">
        <ele>115.6</ele>
        <time>2020-06-08T16:14:07Z</time>
      </trkpt>
      <trkpt lat="48.38189" lon="-4.35868">
        <ele>115.7</ele>
        <time>2020-06-08T16:14:08Z</time>
      </trkpt>
      <trkpt lat="48.38189" lon="-4.35876">
        <ele>115.7</ele>
        <time>2020-06-08T16:14:09Z</time>
      </trkpt>
      <trkpt lat="48.38189" lon="-4.35884">
        <ele>115.7</ele>
        <time>2020-06-08T16:14:10Z</time>
      </trkpt>
      <trkpt lat="48.38188" lon="-4.35893">
        <ele>115.7</ele>
        <time>2020-06-08T16:14:11Z</time>
      </trkpt>
      <trkpt lat="48.38187" lon="-4.359">
        <ele>115.7</ele>
        <time>2020-06-08T16:14:12Z</time>
      </trkpt>
      <trkpt lat="48.38187" lon="-4.35906">
        <ele>115.7</ele>
        <time>2020-06-08T16:14:13Z</time>
      </trkpt>
      <trkpt lat="48.38186" lon="-4.35914">
        <ele>115.7</ele>
        <time>2020-06-08T16:14:14Z</time>
      </trkpt>
      <trkpt lat="48.38185" lon="-4.35921">
        <ele>115.7</ele>
        <time>2020-06-08T16:14:15Z</time>
      </trkpt>
      <trkpt lat="48.38184" lon="-4.3593">
        <ele>115.7</ele>
        <time>2020-06-08T16:14:16Z</time>
      </trkpt>
      <trkpt lat="48.38184" lon="-4.35937">
        <ele>115.7</ele>
        <time>2020-06-08T16:14:17Z</time>
      </trkpt>
      <trkpt lat="48.38185" lon="-4.35943">
        <ele>115.8</ele>
        <time>2020-06-08T16:14:18Z</time>
      </trkpt>
      <trkpt lat="48.38185" lon="-4.35951">
        <ele>115.8</ele>
        <time>2020-06-08T16:14:19Z</time>
      </trkpt>
      <trkpt lat="48.38185" lon="-4.3596">
        <ele>115.9</ele>
        <time>2020-06-08T16:14:20Z</time>
      </trkpt>
      <trkpt lat="48.38184" lon="-4.35969">
        <ele>115.9</ele>
        <time>2020-06-08T16:14:21Z</time>
      </trkpt>
      <trkpt lat="48.38185" lon="-4.35979">
        <ele>116</ele>
        <time>2020-06-08T16:14:22Z</time>
      </trkpt>
      <trkpt lat="48.38185" lon="-4.35988">
        <ele>116</ele>
        <time>2020-06-08T16:14:23Z</time>
      </trkpt>
      <trkpt lat="48.38185" lon="-4.35996">
        <ele>115.9</ele>
        <time>2020-06-08T16:14:24Z</time>
      </trkpt>
      <trkpt lat="48.38184" lon="-4.36004">
        <ele>115.9</ele>
        <time>2020-06-08T16:14:25Z</time>
      </trkpt>
      <trkpt lat="48.38184" lon="-4.36011">
        <ele>115.9</ele>
        <time>2020-06-08T16:14:26Z</time>
      </trkpt>
      <trkpt lat="48.38184" lon="-4.36018">
        <ele>115.9</ele>
        <time>2020-06-08T16:14:27Z</time>
      </trkpt>
      <trkpt lat="48.38183" lon="-4.36026">
        <ele>115.9</ele>
        <time>2020-06-08T16:14:28Z</time>
      </trkpt>
      <trkpt lat="48.38182" lon="-4.36034">
        <ele>115.9</ele>
        <time>2020-06-08T16:14:29Z</time>
      </trkpt>
      <trkpt lat="48.38182" lon="-4.3604">
        <ele>116</ele>
        <time>2020-06-08T16:14:30Z</time>
      </trkpt>
      <trkpt lat="48.38182" lon="-4.36047">
        <ele>116</ele>
        <time>2020-06-08T16:14:31Z</time>
      </trkpt>
      <trkpt lat="48.38182" lon="-4.36056">
        <ele>116</ele>
        <time>2020-06-08T16:14:32Z</time>
      </trkpt>
      <trkpt lat="48.3818" lon="-4.36065">
        <ele>116.1</ele>
        <time>2020-06-08T16:14:33Z</time>
      </trkpt>
      <trkpt lat="48.3818" lon="-4.36073">
        <ele>116.1</ele>
        <time>2020-06-08T16:14:34Z</time>
      </trkpt>
      <trkpt lat="48.38179" lon="-4.36083">
        <ele>116.1</ele>
        <time>2020-06-08T16:14:35Z</time>
      </trkpt>
      <trkpt lat="48.38178" lon="-4.36093">
        <ele>116.1</ele>
        <time>2020-06-08T16:14:36Z</time>
      </trkpt>
      <trkpt lat="48.38177" lon="-4.361">
        <ele>116.1</ele>
        <time>2020-06-08T16:14:37Z</time>
      </trkpt>
      <trkpt lat="48.38177" lon="-4.36108">
        <ele>116.1</ele>
        <time>2020-06-08T16:14:38Z</time>
      </trkpt>
      <trkpt lat="48.38177" lon="-4.36115">
        <ele>116.2</ele>
        <time>2020-06-08T16:14:39Z</time>
      </trkpt>
      <trkpt lat="48.38176" lon="-4.36123">
        <ele>116.2</ele>
        <time>2020-06-08T16:14:40Z</time>
      </trkpt>
      <trkpt lat="48.38176" lon="-4.36131">
        <ele>116.2</ele>
        <time>2020-06-08T16:14:41Z</time>
      </trkpt>
      <trkpt lat="48.38175" lon="-4.36138">
        <ele>116.2</ele>
        <time>2020-06-08T16:14:42Z</time>
      </trkpt>
      <trkpt lat="48.38174" lon="-4.36146">
        <ele>116.2</ele>
        <time>2020-06-08T16:14:43Z</time>
      </trkpt>
      <trkpt lat="48.38174" lon="-4.36155">
        <ele>116.2</ele>
        <time>2020-06-08T16:14:44Z</time>
      </trkpt>
      <trkpt lat="48.38173" lon="-4.36164">
        <ele>116.3</ele>
        <time>2020-06-08T16:14:45Z</time>
      </trkpt>
      <trkpt lat="48.38173" lon="-4.36173">
        <ele>116.3</ele>
        <time>2020-06-08T16:14:46Z</time>
      </trkpt>
      <trkpt lat="48.38172" lon="-4.36181">
        <ele>116.3</ele>
        <time>2020-06-08T16:14:47Z</time>
      </trkpt>
      <trkpt lat="48.38172" lon="-4.36189">
        <ele>116.3</ele>
        <time>2020-06-08T16:14:48Z</time>
      </trkpt>
      <trkpt lat="48.38171" lon="-4.36197">
        <ele>116.3</ele>
        <time>2020-06-08T16:14:49Z</time>
      </trkpt>
      <trkpt lat="48.38171" lon="-4.36206">
        <ele>116.4</ele>
        <time>2020-06-08T16:14:50Z</time>
      </trkpt>
      <trkpt lat="48.3817" lon="-4.36214">
        <ele>116.4</ele>
        <time>2020-06-08T16:14:51Z</time>
      </trkpt>
      <trkpt lat="48.38169" lon="-4.36222">
        <ele>116.4</ele>
        <time>2020-06-08T16:14:52Z</time>
      </trkpt>
      <trkpt lat="48.38168" lon="-4.3623">
        <ele>116.4</ele>
        <time>2020-06-08T16:14:53Z</time>
      </trkpt>
      <trkpt lat="48.38167" lon="-4.36238">
        <ele>116.4</ele>
        <time>2020-06-08T16:14:54Z</time>
      </trkpt>
      <trkpt lat="48.38166" lon="-4.36248">
        <ele>116.5</ele>
        <time>2020-06-08T16:14:55Z</time>
      </trkpt>
      <trkpt lat="48.38164" lon="-4.36256">
        <ele>116.5</ele>
        <time>2020-06-08T16:14:56Z</time>
      </trkpt>
      <trkpt lat="48.38164" lon="-4.36264">
        <ele>116.5</ele>
        <time>2020-06-08T16:14:57Z</time>
      </trkpt>
      <trkpt lat="48.38163" lon="-4.36272">
        <ele>116.6</ele>
        <time>2020-06-08T16:14:58Z</time>
      </trkpt>
      <trkpt lat="48.38163" lon="-4.36281">
        <ele>116.6</ele>
        <time>2020-06-08T16:14:59Z</time>
      </trkpt>
      <trkpt lat="48.38162" lon="-4.36291">
        <ele>116.6</ele>
        <time>2020-06-08T16:15:00Z</time>
      </trkpt>
      <trkpt lat="48.38162" lon="-4.36299">
        <ele>116.6</ele>
        <time>2020-06-08T16:15:01Z</time>
      </trkpt>
      <trkpt lat="48.38163" lon="-4.36308">
        <ele>116.6</ele>
        <time>2020-06-08T16:15:02Z</time>
      </trkpt>
      <trkpt lat="48.38162" lon="-4.36315">
        <ele>116.7</ele>
        <time>2020-06-08T16:15:03Z</time>
      </trkpt>
      <trkpt lat="48.38162" lon="-4.36323">
        <ele>116.7</ele>
        <time>2020-06-08T16:15:04Z</time>
      </trkpt>
      <trkpt lat="48.38161" lon="-4.36332">
        <ele>116.7</ele>
        <time>2020-06-08T16:15:05Z</time>
      </trkpt>
      <trkpt lat="48.38161" lon="-4.3634">
        <ele>116.8</ele>
        <time>2020-06-08T16:15:06Z</time>
      </trkpt>
      <trkpt lat="48.3816" lon="-4.36348">
        <ele>116.8</ele>
        <time>2020-06-08T16:15:07Z</time>
      </trkpt>
      <trkpt lat="48.38159" lon="-4.36356">
        <ele>116.9</ele>
        <time>2020-06-08T16:15:08Z</time>
      </trkpt>
      <trkpt lat="48.38158" lon="-4.36365">
        <ele>116.9</ele>
        <time>2020-06-08T16:15:09Z</time>
      </trkpt>
      <trkpt lat="48.38157" lon="-4.36373">
        <ele>116.9</ele>
        <time>2020-06-08T16:15:10Z</time>
      </trkpt>
      <trkpt lat="48.38156" lon="-4.36383">
        <ele>116.9</ele>
        <time>2020-06-08T16:15:11Z</time>
      </trkpt>
      <trkpt lat="48.38155" lon="-4.36392">
        <ele>116.9</ele>
        <time>2020-06-08T16:15:12Z</time>
      </trkpt>
      <trkpt lat="48.38154" lon="-4.364">
        <ele>116.9</ele>
        <time>2020-06-08T16:15:13Z</time>
      </trkpt>
      <trkpt lat="48.38152" lon="-4.36409">
        <ele>116.9</ele>
        <time>2020-06-08T16:15:14Z</time>
      </trkpt>
      <trkpt lat="48.38151" lon="-4.36418">
        <ele>116.9</ele>
        <time>2020-06-08T16:15:15Z</time>
      </trkpt>
      <trkpt lat="48.3815" lon="-4.36427">
        <ele>116.9</ele>
        <time>2020-06-08T16:15:16Z</time>
      </trkpt>
      <trkpt lat="48.38149" lon="-4.36435">
        <ele>116.9</ele>
        <time>2020-06-08T16:15:17Z</time>
      </trkpt>
      <trkpt lat="48.38148" lon="-4.36443">
        <ele>116.9</ele>
        <time>2020-06-08T16:15:18Z</time>
      </trkpt>
      <trkpt lat="48.38148" lon="-4.36452">
        <ele>116.9</ele>
        <time>2020-06-08T16:15:19Z</time>
      </trkpt>
      <trkpt lat="48.38147" lon="-4.36461">
        <ele>116.9</ele>
        <time>2020-06-08T16:15:20Z</time>
      </trkpt>
      <trkpt lat="48.38147" lon="-4.36469">
        <ele>116.9</ele>
        <time>2020-06-08T16:15:21Z</time>
      </trkpt>
      <trkpt lat="48.38146" lon="-4.36478">
        <ele>116.9</ele>
        <time>2020-06-08T16:15:22Z</time>
      </trkpt>
      <trkpt lat="48.38146" lon="-4.36486">
        <ele>116.8</ele>
        <time>2020-06-08T16:15:23Z</time>
      </trkpt>
      <trkpt lat="48.38145" lon="-4.36494">
        <ele>116.8</ele>
        <time>2020-06-08T16:15:24Z</time>
      </trkpt>
      <trkpt lat="48.38144" lon="-4.36502">
        <ele>116.8</ele>
        <time>2020-06-08T16:15:25Z</time>
      </trkpt>
      <trkpt lat="48.38144" lon="-4.3651">
        <ele>116.8</ele>
        <time>2020-06-08T16:15:26Z</time>
      </trkpt>
      <trkpt lat="48.38143" lon="-4.36518">
        <ele>116.8</ele>
        <time>2020-06-08T16:15:27Z</time>
      </trkpt>
      <trkpt lat="48.38142" lon="-4.36527">
        <ele>116.8</ele>
        <time>2020-06-08T16:15:28Z</time>
      </trkpt>
      <trkpt lat="48.38142" lon="-4.36535">
        <ele>116.7</ele>
        <time>2020-06-08T16:15:29Z</time>
      </trkpt>
      <trkpt lat="48.38141" lon="-4.36544">
        <ele>116.7</ele>
        <time>2020-06-08T16:15:30Z</time>
      </trkpt>
      <trkpt lat="48.3814" lon="-4.36552">
        <ele>116.7</ele>
        <time>2020-06-08T16:15:31Z</time>
      </trkpt>
      <trkpt lat="48.3814" lon="-4.3656">
        <ele>116.7</ele>
        <time>2020-06-08T16:15:32Z</time>
      </trkpt>
      <trkpt lat="48.3814" lon="-4.36569">
        <ele>116.7</ele>
        <time>2020-06-08T16:15:33Z</time>
      </trkpt>
      <trkpt lat="48.38139" lon="-4.36578">
        <ele>116.7</ele>
        <time>2020-06-08T16:15:34Z</time>
      </trkpt>
      <trkpt lat="48.38138" lon="-4.36586">
        <ele>116.6</ele>
        <time>2020-06-08T16:15:35Z</time>
      </trkpt>
      <trkpt lat="48.38137" lon="-4.36595">
        <ele>116.6</ele>
        <time>2020-06-08T16:15:36Z</time>
      </trkpt>
      <trkpt lat="48.38136" lon="-4.36605">
        <ele>116.6</ele>
        <time>2020-06-08T16:15:37Z</time>
      </trkpt>
      <trkpt lat="48.38136" lon="-4.36613">
        <ele>116.5</ele>
        <time>2020-06-08T16:15:38Z</time>
      </trkpt>
      <trkpt lat="48.38135" lon="-4.36622">
        <ele>116.4</ele>
        <time>2020-06-08T16:15:39Z</time>
      </trkpt>
      <trkpt lat="48.38134" lon="-4.36631">
        <ele>116.4</ele>
        <time>2020-06-08T16:15:40Z</time>
      </trkpt>
      <trkpt lat="48.38133" lon="-4.36639">
        <ele>116.3</ele>
        <time>2020-06-08T16:15:41Z</time>
      </trkpt>
      <trkpt lat="48.38132" lon="-4.36648">
        <ele>116.2</ele>
        <time>2020-06-08T16:15:42Z</time>
      </trkpt>
      <trkpt lat="48.38131" lon="-4.36656">
        <ele>116.2</ele>
        <time>2020-06-08T16:15:43Z</time>
      </trkpt>
      <trkpt lat="48.3813" lon="-4.36666">
        <ele>116.1</ele>
        <time>2020-06-08T16:15:44Z</time>
      </trkpt>
      <trkpt lat="48.3813" lon="-4.36675">
        <ele>116</ele>
        <time>2020-06-08T16:15:45Z</time>
      </trkpt>
      <trkpt lat="48.38129" lon="-4.36684">
        <ele>116</ele>
        <time>2020-06-08T16:15:46Z</time>
      </trkpt>
      <trkpt lat="48.38128" lon="-4.36693">
        <ele>115.9</ele>
        <time>2020-06-08T16:15:47Z</time>
      </trkpt>
      <trkpt lat="48.38128" lon="-4.36701">
        <ele>115.8</ele>
        <time>2020-06-08T16:15:48Z</time>
      </trkpt>
      <trkpt lat="48.38128" lon="-4.36711">
        <ele>115.7</ele>
        <time>2020-06-08T16:15:49Z</time>
      </trkpt>
      <trkpt lat="48.38126" lon="-4.36721">
        <ele>115.5</ele>
        <time>2020-06-08T16:15:50Z</time>
      </trkpt>
      <trkpt lat="48.38126" lon="-4.36731">
        <ele>115.3</ele>
        <time>2020-06-08T16:15:51Z</time>
      </trkpt>
      <trkpt lat="48.38125" lon="-4.3674">
        <ele>115.2</ele>
        <time>2020-06-08T16:15:52Z</time>
      </trkpt>
      <trkpt lat="48.38124" lon="-4.36749">
        <ele>115</ele>
        <time>2020-06-08T16:15:53Z</time>
      </trkpt>
      <trkpt lat="48.38124" lon="-4.36759">
        <ele>114.8</ele>
        <time>2020-06-08T16:15:54Z</time>
      </trkpt>
      <trkpt lat="48.38124" lon="-4.36769">
        <ele>114.7</ele>
        <time>2020-06-08T16:15:55Z</time>
      </trkpt>
      <trkpt lat="48.38125" lon="-4.36779">
        <ele>114.5</ele>
        <time>2020-06-08T16:15:56Z</time>
      </trkpt>
      <trkpt lat="48.38124" lon="-4.3679">
        <ele>114.3</ele>
        <time>2020-06-08T16:15:57Z</time>
      </trkpt>
      <trkpt lat="48.38124" lon="-4.368">
        <ele>114.1</ele>
        <time>2020-06-08T16:15:58Z</time>
      </trkpt>
      <trkpt lat="48.38124" lon="-4.36811">
        <ele>113.8</ele>
        <time>2020-06-08T16:15:59Z</time>
      </trkpt>
      <trkpt lat="48.38124" lon="-4.36822">
        <ele>113.5</ele>
        <time>2020-06-08T16:16:00Z</time>
      </trkpt>
      <trkpt lat="48.38124" lon="-4.36834">
        <ele>113.2</ele>
        <time>2020-06-08T16:16:01Z</time>
      </trkpt>
      <trkpt lat="48.38124" lon="-4.36845">
        <ele>112.9</ele>
        <time>2020-06-08T16:16:02Z</time>
      </trkpt>
      <trkpt lat="48.38123" lon="-4.36857">
        <ele>112.6</ele>
        <time>2020-06-08T16:16:03Z</time>
      </trkpt>
      <trkpt lat="48.38124" lon="-4.36868">
        <ele>112.2</ele>
        <time>2020-06-08T16:16:04Z</time>
      </trkpt>
      <trkpt lat="48.38124" lon="-4.3688">
        <ele>111.9</ele>
        <time>2020-06-08T16:16:05Z</time>
      </trkpt>
      <trkpt lat="48.38124" lon="-4.36893">
        <ele>111.5</ele>
        <time>2020-06-08T16:16:06Z</time>
      </trkpt>
      <trkpt lat="48.38125" lon="-4.36905">
        <ele>111</ele>
        <time>2020-06-08T16:16:07Z</time>
      </trkpt>
      <trkpt lat="48.38125" lon="-4.36918">
        <ele>110.6</ele>
        <time>2020-06-08T16:16:08Z</time>
      </trkpt>
      <trkpt lat="48.38125" lon="-4.3693">
        <ele>110.1</ele>
        <time>2020-06-08T16:16:09Z</time>
      </trkpt>
      <trkpt lat="48.38126" lon="-4.36942">
        <ele>109.6</ele>
        <time>2020-06-08T16:16:10Z</time>
      </trkpt>
      <trkpt lat="48.38126" lon="-4.36954">
        <ele>109.1</ele>
        <time>2020-06-08T16:16:11Z</time>
      </trkpt>
      <trkpt lat="48.38126" lon="-4.36967">
        <ele>108.7</ele>
        <time>2020-06-08T16:16:12Z</time>
      </trkpt>
      <trkpt lat="48.38127" lon="-4.3698">
        <ele>108.3</ele>
        <time>2020-06-08T16:16:13Z</time>
      </trkpt>
      <trkpt lat="48.38129" lon="-4.36994">
        <ele>107.8</ele>
        <time>2020-06-08T16:16:14Z</time>
      </trkpt>
      <trkpt lat="48.3813" lon="-4.37008">
        <ele>107.4</ele>
        <time>2020-06-08T16:16:15Z</time>
      </trkpt>
      <trkpt lat="48.38132" lon="-4.37021">
        <ele>107</ele>
        <time>2020-06-08T16:16:16Z</time>
      </trkpt>
      <trkpt lat="48.38134" lon="-4.37035">
        <ele>106.5</ele>
        <time>2020-06-08T16:16:17Z</time>
      </trkpt>
      <trkpt lat="48.38135" lon="-4.37049">
        <ele>106.1</ele>
        <time>2020-06-08T16:16:18Z</time>
      </trkpt>
      <trkpt lat="48.38136" lon="-4.37063">
        <ele>105.6</ele>
        <time>2020-06-08T16:16:19Z</time>
      </trkpt>
      <trkpt lat="48.38137" lon="-4.37077">
        <ele>105.2</ele>
        <time>2020-06-08T16:16:20Z</time>
      </trkpt>
      <trkpt lat="48.38139" lon="-4.3709">
        <ele>104.7</ele>
        <time>2020-06-08T16:16:21Z</time>
      </trkpt>
      <trkpt lat="48.38142" lon="-4.37103">
        <ele>104.2</ele>
        <time>2020-06-08T16:16:22Z</time>
      </trkpt>
      <trkpt lat="48.38144" lon="-4.37117">
        <ele>103.7</ele>
        <time>2020-06-08T16:16:23Z</time>
      </trkpt>
      <trkpt lat="48.38145" lon="-4.37131">
        <ele>103.3</ele>
        <time>2020-06-08T16:16:24Z</time>
      </trkpt>
      <trkpt lat="48.38148" lon="-4.37144">
        <ele>102.9</ele>
        <time>2020-06-08T16:16:25Z</time>
      </trkpt>
      <trkpt lat="48.38151" lon="-4.37157">
        <ele>102.4</ele>
        <time>2020-06-08T16:16:26Z</time>
      </trkpt>
      <trkpt lat="48.38153" lon="-4.37171">
        <ele>102</ele>
        <time>2020-06-08T16:16:27Z</time>
      </trkpt>
      <trkpt lat="48.38156" lon="-4.37185">
        <ele>101.6</ele>
        <time>2020-06-08T16:16:28Z</time>
      </trkpt>
      <trkpt lat="48.38159" lon="-4.37199">
        <ele>101.3</ele>
        <time>2020-06-08T16:16:29Z</time>
      </trkpt>
      <trkpt lat="48.38162" lon="-4.37213">
        <ele>101</ele>
        <time>2020-06-08T16:16:30Z</time>
      </trkpt>
      <trkpt lat="48.38165" lon="-4.37227">
        <ele>100.7</ele>
        <time>2020-06-08T16:16:31Z</time>
      </trkpt>
      <trkpt lat="48.38169" lon="-4.37241">
        <ele>100.5</ele>
        <time>2020-06-08T16:16:32Z</time>
      </trkpt>
      <trkpt lat="48.38172" lon="-4.37255">
        <ele>100.3</ele>
        <time>2020-06-08T16:16:33Z</time>
      </trkpt>
      <trkpt lat="48.38176" lon="-4.37268">
        <ele>100.1</ele>
        <time>2020-06-08T16:16:34Z</time>
      </trkpt>
      <trkpt lat="48.3818" lon="-4.3728">
        <ele>100</ele>
        <time>2020-06-08T16:16:35Z</time>
      </trkpt>
      <trkpt lat="48.38183" lon="-4.37293">
        <ele>99.9</ele>
        <time>2020-06-08T16:16:36Z</time>
      </trkpt>
      <trkpt lat="48.38187" lon="-4.37306">
        <ele>99.8</ele>
        <time>2020-06-08T16:16:37Z</time>
      </trkpt>
      <trkpt lat="48.3819" lon="-4.37318">
        <ele>99.7</ele>
        <time>2020-06-08T16:16:38Z</time>
      </trkpt>
      <trkpt lat="48.38194" lon="-4.3733">
        <ele>99.5</ele>
        <time>2020-06-08T16:16:39Z</time>
      </trkpt>
      <trkpt lat="48.38198" lon="-4.37342">
        <ele>99.2</ele>
        <time>2020-06-08T16:16:40Z</time>
      </trkpt>
      <trkpt lat="48.38202" lon="-4.37353">
        <ele>99</ele>
        <time>2020-06-08T16:16:41Z</time>
      </trkpt>
      <trkpt lat="48.38206" lon="-4.37365">
        <ele>98.7</ele>
        <time>2020-06-08T16:16:42Z</time>
      </trkpt>
      <trkpt lat="48.3821" lon="-4.37378">
        <ele>98.4</ele>
        <time>2020-06-08T16:16:43Z</time>
      </trkpt>
      <trkpt lat="48.38214" lon="-4.3739">
        <ele>98.1</ele>
        <time>2020-06-08T16:16:44Z</time>
      </trkpt>
      <trkpt lat="48.38217" lon="-4.37403">
        <ele>97.8</ele>
        <time>2020-06-08T16:16:45Z</time>
      </trkpt>
      <trkpt lat="48.38221" lon="-4.37416">
        <ele>97.5</ele>
        <time>2020-06-08T16:16:46Z</time>
      </trkpt>
      <trkpt lat="48.38225" lon="-4.37429">
        <ele>97.1</ele>
        <time>2020-06-08T16:16:47Z</time>
      </trkpt>
      <trkpt lat="48.3823" lon="-4.37442">
        <ele>96.7</ele>
        <time>2020-06-08T16:16:48Z</time>
      </trkpt>
      <trkpt lat="48.38233" lon="-4.37455">
        <ele>96.4</ele>
        <time>2020-06-08T16:16:49Z</time>
      </trkpt>
      <trkpt lat="48.38237" lon="-4.37468">
        <ele>96.2</ele>
        <time>2020-06-08T16:16:50Z</time>
      </trkpt>
      <trkpt lat="48.3824" lon="-4.37481">
        <ele>95.9</ele>
        <time>2020-06-08T16:16:51Z</time>
      </trkpt>
      <trkpt lat="48.38244" lon="-4.37494">
        <ele>95.7</ele>
        <time>2020-06-08T16:16:52Z</time>
      </trkpt>
      <trkpt lat="48.38247" lon="-4.37506">
        <ele>95.4</ele>
        <time>2020-06-08T16:16:53Z</time>
      </trkpt>
      <trkpt lat="48.3825" lon="-4.37519">
        <ele>95.3</ele>
        <time>2020-06-08T16:16:54Z</time>
      </trkpt>
      <trkpt lat="48.38254" lon="-4.37531">
        <ele>95.1</ele>
        <time>2020-06-08T16:16:55Z</time>
      </trkpt>
      <trkpt lat="48.38257" lon="-4.37543">
        <ele>94.9</ele>
        <time>2020-06-08T16:16:56Z</time>
      </trkpt>
      <trkpt lat="48.3826" lon="-4.37554">
        <ele>94.9</ele>
        <time>2020-06-08T16:16:57Z</time>
      </trkpt>
      <trkpt lat="48.38263" lon="-4.37566">
        <ele>94.9</ele>
        <time>2020-06-08T16:16:58Z</time>
      </trkpt>
      <trkpt lat="48.38265" lon="-4.37577">
        <ele>94.9</ele>
        <time>2020-06-08T16:16:59Z</time>
      </trkpt>
      <trkpt lat="48.38267" lon="-4.37588">
        <ele>95</ele>
        <time>2020-06-08T16:17:00Z</time>
      </trkpt>
      <trkpt lat="48.3827" lon="-4.37598">
        <ele>95.1</ele>
        <time>2020-06-08T16:17:01Z</time>
      </trkpt>
      <trkpt lat="48.38272" lon="-4.37608">
        <ele>95.3</ele>
        <time>2020-06-08T16:17:02Z</time>
      </trkpt>
      <trkpt lat="48.38274" lon="-4.37618">
        <ele>95.5</ele>
        <time>2020-06-08T16:17:03Z</time>
      </trkpt>
      <trkpt lat="48.38276" lon="-4.37627">
        <ele>95.6</ele>
        <time>2020-06-08T16:17:04Z</time>
      </trkpt>
      <trkpt lat="48.38277" lon="-4.37637">
        <ele>95.8</ele>
        <time>2020-06-08T16:17:05Z</time>
      </trkpt>
      <trkpt lat="48.38278" lon="-4.37647">
        <ele>96</ele>
        <time>2020-06-08T16:17:06Z</time>
      </trkpt>
      <trkpt lat="48.38278" lon="-4.37657">
        <ele>96.2</ele>
        <time>2020-06-08T16:17:07Z</time>
      </trkpt>
      <trkpt lat="48.38278" lon="-4.37667">
        <ele>96.4</ele>
        <time>2020-06-08T16:17:08Z</time>
      </trkpt>
      <trkpt lat="48.38278" lon="-4.37676">
        <ele>96.6</ele>
        <time>2020-06-08T16:17:09Z</time>
      </trkpt>
      <trkpt lat="48.38278" lon="-4.37685">
        <ele>96.8</ele>
        <time>2020-06-08T16:17:10Z</time>
      </trkpt>
      <trkpt lat="48.38278" lon="-4.37693">
        <ele>96.9</ele>
        <time>2020-06-08T16:17:11Z</time>
      </trkpt>
      <trkpt lat="48.38279" lon="-4.37702">
        <ele>97.1</ele>
        <time>2020-06-08T16:17:12Z</time>
      </trkpt>
      <trkpt lat="48.3828" lon="-4.37709">
        <ele>97.3</ele>
        <time>2020-06-08T16:17:13Z</time>
      </trkpt>
      <trkpt lat="48.38282" lon="-4.37715">
        <ele>97.4</ele>
        <time>2020-06-08T16:17:14Z</time>
      </trkpt>
      <trkpt lat="48.38285" lon="-4.37718">
        <ele>97.6</ele>
        <time>2020-06-08T16:17:15Z</time>
      </trkpt>
      <trkpt lat="48.38289" lon="-4.37719">
        <ele>97.7</ele>
        <time>2020-06-08T16:17:16Z</time>
      </trkpt>
      <trkpt lat="48.38293" lon="-4.37719">
        <ele>98</ele>
        <time>2020-06-08T16:17:17Z</time>
      </trkpt>
      <trkpt lat="48.38296" lon="-4.3772">
        <ele>98</ele>
        <time>2020-06-08T16:17:18Z</time>
      </trkpt>
      <trkpt lat="48.38299" lon="-4.37722">
        <ele>98</ele>
        <time>2020-06-08T16:17:19Z</time>
      </trkpt>
      <trkpt lat="48.38303" lon="-4.37724">
        <ele>98.1</ele>
        <time>2020-06-08T16:17:20Z</time>
      </trkpt>
      <trkpt lat="48.38306" lon="-4.37726">
        <ele>98.1</ele>
        <time>2020-06-08T16:17:21Z</time>
      </trkpt>
      <trkpt lat="48.3831" lon="-4.37729">
        <ele>98.2</ele>
        <time>2020-06-08T16:17:22Z</time>
      </trkpt>
      <trkpt lat="48.38313" lon="-4.37734">
        <ele>98.3</ele>
        <time>2020-06-08T16:17:23Z</time>
      </trkpt>
      <trkpt lat="48.38316" lon="-4.37739">
        <ele>98.3</ele>
        <time>2020-06-08T16:17:24Z</time>
      </trkpt>
      <trkpt lat="48.38317" lon="-4.37746">
        <ele>98.4</ele>
        <time>2020-06-08T16:17:25Z</time>
      </trkpt>
      <trkpt lat="48.38318" lon="-4.37753">
        <ele>98.5</ele>
        <time>2020-06-08T16:17:26Z</time>
      </trkpt>
      <trkpt lat="48.38318" lon="-4.37761">
        <ele>98.6</ele>
        <time>2020-06-08T16:17:27Z</time>
      </trkpt>
      <trkpt lat="48.38316" lon="-4.37769">
        <ele>98.6</ele>
        <time>2020-06-08T16:17:28Z</time>
      </trkpt>
      <trkpt lat="48.38313" lon="-4.37777">
        <ele>98.6</ele>
        <time>2020-06-08T16:17:29Z</time>
      </trkpt>
      <trkpt lat="48.38309" lon="-4.37784">
        <ele>98.6</ele>
        <time>2020-06-08T16:17:30Z</time>
      </trkpt>
      <trkpt lat="48.38304" lon="-4.37792">
        <ele>98.6</ele>
        <time>2020-06-08T16:17:31Z</time>
      </trkpt>
      <trkpt lat="48.38301" lon="-4.37802">
        <ele>98.3</ele>
        <time>2020-06-08T16:17:32Z</time>
      </trkpt>
      <trkpt lat="48.38301" lon="-4.37812">
        <ele>98.1</ele>
        <time>2020-06-08T16:17:33Z</time>
      </trkpt>
      <trkpt lat="48.38302" lon="-4.37824">
        <ele>97.7</ele>
        <time>2020-06-08T16:17:34Z</time>
      </trkpt>
      <trkpt lat="48.38306" lon="-4.37835">
        <ele>97.4</ele>
        <time>2020-06-08T16:17:35Z</time>
      </trkpt>
      <trkpt lat="48.38312" lon="-4.37844">
        <ele>97</ele>
        <time>2020-06-08T16:17:36Z</time>
      </trkpt>
      <trkpt lat="48.38318" lon="-4.37852">
        <ele>96.8</ele>
        <time>2020-06-08T16:17:37Z</time>
      </trkpt>
      <trkpt lat="48.38324" lon="-4.3786">
        <ele>96.6</ele>
        <time>2020-06-08T16:17:38Z</time>
      </trkpt>
      <trkpt lat="48.38329" lon="-4.37868">
        <ele>96.4</ele>
        <time>2020-06-08T16:17:39Z</time>
      </trkpt>
      <trkpt lat="48.38334" lon="-4.37877">
        <ele>96.2</ele>
        <time>2020-06-08T16:17:40Z</time>
      </trkpt>
      <trkpt lat="48.38338" lon="-4.37887">
        <ele>96</ele>
        <time>2020-06-08T16:17:41Z</time>
      </trkpt>
      <trkpt lat="48.38343" lon="-4.37896">
        <ele>95.8</ele>
        <time>2020-06-08T16:17:42Z</time>
      </trkpt>
      <trkpt lat="48.38346" lon="-4.37906">
        <ele>95.4</ele>
        <time>2020-06-08T16:17:43Z</time>
      </trkpt>
      <trkpt lat="48.38349" lon="-4.37917">
        <ele>95.1</ele>
        <time>2020-06-08T16:17:44Z</time>
      </trkpt>
      <trkpt lat="48.3835" lon="-4.37928">
        <ele>94.8</ele>
        <time>2020-06-08T16:17:45Z</time>
      </trkpt>
      <trkpt lat="48.3835" lon="-4.3794">
        <ele>94.4</ele>
        <time>2020-06-08T16:17:46Z</time>
      </trkpt>
      <trkpt lat="48.3835" lon="-4.37951">
        <ele>94</ele>
        <time>2020-06-08T16:17:47Z</time>
      </trkpt>
      <trkpt lat="48.3835" lon="-4.37963">
        <ele>93.6</ele>
        <time>2020-06-08T16:17:48Z</time>
      </trkpt>
      <trkpt lat="48.38351" lon="-4.37973">
        <ele>93.3</ele>
        <time>2020-06-08T16:17:49Z</time>
      </trkpt>
      <trkpt lat="48.38351" lon="-4.37984">
        <ele>92.9</ele>
        <time>2020-06-08T16:17:50Z</time>
      </trkpt>
      <trkpt lat="48.38352" lon="-4.37995">
        <ele>92.5</ele>
        <time>2020-06-08T16:17:51Z</time>
      </trkpt>
      <trkpt lat="48.38352" lon="-4.38006">
        <ele>92.1</ele>
        <time>2020-06-08T16:17:52Z</time>
      </trkpt>
      <trkpt lat="48.38352" lon="-4.38017">
        <ele>91.7</ele>
        <time>2020-06-08T16:17:53Z</time>
      </trkpt>
      <trkpt lat="48.38352" lon="-4.38029">
        <ele>91.2</ele>
        <time>2020-06-08T16:17:54Z</time>
      </trkpt>
      <trkpt lat="48.38352" lon="-4.3804">
        <ele>90.8</ele>
        <time>2020-06-08T16:17:55Z</time>
      </trkpt>
      <trkpt lat="48.38353" lon="-4.38052">
        <ele>90.3</ele>
        <time>2020-06-08T16:17:56Z</time>
      </trkpt>
      <trkpt lat="48.38354" lon="-4.38063">
        <ele>89.9</ele>
        <time>2020-06-08T16:17:57Z</time>
      </trkpt>
      <trkpt lat="48.38354" lon="-4.38076">
        <ele>89.5</ele>
        <time>2020-06-08T16:17:58Z</time>
      </trkpt>
      <trkpt lat="48.38355" lon="-4.38088">
        <ele>89</ele>
        <time>2020-06-08T16:17:59Z</time>
      </trkpt>
      <trkpt lat="48.38356" lon="-4.38101">
        <ele>88.6</ele>
        <time>2020-06-08T16:18:00Z</time>
      </trkpt>
      <trkpt lat="48.38357" lon="-4.38113">
        <ele>88.2</ele>
        <time>2020-06-08T16:18:01Z</time>
      </trkpt>
      <trkpt lat="48.38358" lon="-4.38126">
        <ele>87.7</ele>
        <time>2020-06-08T16:18:02Z</time>
      </trkpt>
      <trkpt lat="48.38359" lon="-4.38138">
        <ele>87.3</ele>
        <time>2020-06-08T16:18:03Z</time>
      </trkpt>
      <trkpt lat="48.3836" lon="-4.3815">
        <ele>86.9</ele>
        <time>2020-06-08T16:18:04Z</time>
      </trkpt>
      <trkpt lat="48.3836" lon="-4.38162">
        <ele>86.5</ele>
        <time>2020-06-08T16:18:05Z</time>
      </trkpt>
      <trkpt lat="48.38361" lon="-4.38173">
        <ele>86.1</ele>
        <time>2020-06-08T16:18:06Z</time>
      </trkpt>
      <trkpt lat="48.38362" lon="-4.38185">
        <ele>85.7</ele>
        <time>2020-06-08T16:18:07Z</time>
      </trkpt>
      <trkpt lat="48.38362" lon="-4.38196">
        <ele>85.2</ele>
        <time>2020-06-08T16:18:08Z</time>
      </trkpt>
      <trkpt lat="48.38363" lon="-4.38207">
        <ele>84.8</ele>
        <time>2020-06-08T16:18:09Z</time>
      </trkpt>
      <trkpt lat="48.38364" lon="-4.38219">
        <ele>84.3</ele>
        <time>2020-06-08T16:18:10Z</time>
      </trkpt>
      <trkpt lat="48.38364" lon="-4.38231">
        <ele>83.8</ele>
        <time>2020-06-08T16:18:11Z</time>
      </trkpt>
      <trkpt lat="48.38366" lon="-4.38243">
        <ele>83.3</ele>
        <time>2020-06-08T16:18:12Z</time>
      </trkpt>
      <trkpt lat="48.38367" lon="-4.38256">
        <ele>82.9</ele>
        <time>2020-06-08T16:18:13Z</time>
      </trkpt>
      <trkpt lat="48.38368" lon="-4.38269">
        <ele>82.4</ele>
        <time>2020-06-08T16:18:14Z</time>
      </trkpt>
      <trkpt lat="48.38369" lon="-4.38282">
        <ele>81.9</ele>
        <time>2020-06-08T16:18:15Z</time>
      </trkpt>
      <trkpt lat="48.38371" lon="-4.38295">
        <ele>81.5</ele>
        <time>2020-06-08T16:18:16Z</time>
      </trkpt>
      <trkpt lat="48.38372" lon="-4.38308">
        <ele>81.1</ele>
        <time>2020-06-08T16:18:17Z</time>
      </trkpt>
      <trkpt lat="48.38374" lon="-4.38322">
        <ele>80.6</ele>
        <time>2020-06-08T16:18:18Z</time>
      </trkpt>
      <trkpt lat="48.38375" lon="-4.38336">
        <ele>80.1</ele>
        <time>2020-06-08T16:18:19Z</time>
      </trkpt>
      <trkpt lat="48.38377" lon="-4.3835">
        <ele>79.6</ele>
        <time>2020-06-08T16:18:20Z</time>
      </trkpt>
      <trkpt lat="48.38379" lon="-4.38365">
        <ele>79.1</ele>
        <time>2020-06-08T16:18:21Z</time>
      </trkpt>
      <trkpt lat="48.38381" lon="-4.3838">
        <ele>78.6</ele>
        <time>2020-06-08T16:18:22Z</time>
      </trkpt>
      <trkpt lat="48.38383" lon="-4.38395">
        <ele>78.2</ele>
        <time>2020-06-08T16:18:23Z</time>
      </trkpt>
      <trkpt lat="48.38384" lon="-4.3841">
        <ele>77.7</ele>
        <time>2020-06-08T16:18:24Z</time>
      </trkpt>
      <trkpt lat="48.38386" lon="-4.38425">
        <ele>77.2</ele>
        <time>2020-06-08T16:18:25Z</time>
      </trkpt>
      <trkpt lat="48.38387" lon="-4.38441">
        <ele>76.7</ele>
        <time>2020-06-08T16:18:26Z</time>
      </trkpt>
      <trkpt lat="48.38388" lon="-4.38456">
        <ele>76.3</ele>
        <time>2020-06-08T16:18:27Z</time>
      </trkpt>
      <trkpt lat="48.38389" lon="-4.38472">
        <ele>75.8</ele>
        <time>2020-06-08T16:18:28Z</time>
      </trkpt>
      <trkpt lat="48.3839" lon="-4.38487">
        <ele>75.3</ele>
        <time>2020-06-08T16:18:29Z</time>
      </trkpt>
      <trkpt lat="48.38391" lon="-4.38503">
        <ele>74.9</ele>
        <time>2020-06-08T16:18:30Z</time>
      </trkpt>
      <trkpt lat="48.38391" lon="-4.3852">
        <ele>74.4</ele>
        <time>2020-06-08T16:18:31Z</time>
      </trkpt>
      <trkpt lat="48.38391" lon="-4.38536">
        <ele>73.8</ele>
        <time>2020-06-08T16:18:32Z</time>
      </trkpt>
      <trkpt lat="48.38392" lon="-4.38553">
        <ele>73.3</ele>
        <time>2020-06-08T16:18:33Z</time>
      </trkpt>
      <trkpt lat="48.38391" lon="-4.38569">
        <ele>72.8</ele>
        <time>2020-06-08T16:18:34Z</time>
      </trkpt>
      <trkpt lat="48.3839" lon="-4.38586">
        <ele>72.2</ele>
        <time>2020-06-08T16:18:35Z</time>
      </trkpt>
      <trkpt lat="48.3839" lon="-4.38603">
        <ele>71.7</ele>
        <time>2020-06-08T16:18:36Z</time>
      </trkpt>
      <trkpt lat="48.38388" lon="-4.3862">
        <ele>71.1</ele>
        <time>2020-06-08T16:18:37Z</time>
      </trkpt>
      <trkpt lat="48.38387" lon="-4.38637">
        <ele>70.5</ele>
        <time>2020-06-08T16:18:38Z</time>
      </trkpt>
      <trkpt lat="48.38386" lon="-4.38654">
        <ele>69.9</ele>
        <time>2020-06-08T16:18:39Z</time>
      </trkpt>
      <trkpt lat="48.38386" lon="-4.38671">
        <ele>69.2</ele>
        <time>2020-06-08T16:18:40Z</time>
      </trkpt>
      <trkpt lat="48.38385" lon="-4.38689">
        <ele>68.6</ele>
        <time>2020-06-08T16:18:41Z</time>
      </trkpt>
      <trkpt lat="48.38384" lon="-4.38706">
        <ele>67.9</ele>
        <time>2020-06-08T16:18:42Z</time>
      </trkpt>
      <trkpt lat="48.38384" lon="-4.38724">
        <ele>67.3</ele>
        <time>2020-06-08T16:18:43Z</time>
      </trkpt>
      <trkpt lat="48.38383" lon="-4.38741">
        <ele>66.6</ele>
        <time>2020-06-08T16:18:44Z</time>
      </trkpt>
      <trkpt lat="48.38382" lon="-4.38759">
        <ele>65.9</ele>
        <time>2020-06-08T16:18:45Z</time>
      </trkpt>
      <trkpt lat="48.38381" lon="-4.38777">
        <ele>65.3</ele>
        <time>2020-06-08T16:18:46Z</time>
      </trkpt>
      <trkpt lat="48.3838" lon="-4.38795">
        <ele>64.6</ele>
        <time>2020-06-08T16:18:47Z</time>
      </trkpt>
      <trkpt lat="48.38379" lon="-4.38813">
        <ele>63.9</ele>
        <time>2020-06-08T16:18:48Z</time>
      </trkpt>
      <trkpt lat="48.38378" lon="-4.38831">
        <ele>63.2</ele>
        <time>2020-06-08T16:18:49Z</time>
      </trkpt>
      <trkpt lat="48.38377" lon="-4.3885">
        <ele>62.4</ele>
        <time>2020-06-08T16:18:50Z</time>
      </trkpt>
      <trkpt lat="48.38375" lon="-4.38868">
        <ele>61.7</ele>
        <time>2020-06-08T16:18:51Z</time>
      </trkpt>
      <trkpt lat="48.38374" lon="-4.38885">
        <ele>61.1</ele>
        <time>2020-06-08T16:18:52Z</time>
      </trkpt>
      <trkpt lat="48.38372" lon="-4.38903">
        <ele>60.4</ele>
        <time>2020-06-08T16:18:53Z</time>
      </trkpt>
      <trkpt lat="48.3837" lon="-4.38921">
        <ele>59.7</ele>
        <time>2020-06-08T16:18:54Z</time>
      </trkpt>
      <trkpt lat="48.38369" lon="-4.38938">
        <ele>59</ele>
        <time>2020-06-08T16:18:55Z</time>
      </trkpt>
      <trkpt lat="48.38368" lon="-4.38956">
        <ele>58.3</ele>
        <time>2020-06-08T16:18:56Z</time>
      </trkpt>
      <trkpt lat="48.38367" lon="-4.38973">
        <ele>57.6</ele>
        <time>2020-06-08T16:18:57Z</time>
      </trkpt>
      <trkpt lat="48.38367" lon="-4.3899">
        <ele>56.9</ele>
        <time>2020-06-08T16:18:58Z</time>
      </trkpt>
      <trkpt lat="48.38367" lon="-4.39008">
        <ele>56.3</ele>
        <time>2020-06-08T16:18:59Z</time>
      </trkpt>
      <trkpt lat="48.38367" lon="-4.39025">
        <ele>55.6</ele>
        <time>2020-06-08T16:19:00Z</time>
      </trkpt>
      <trkpt lat="48.38368" lon="-4.39043">
        <ele>54.9</ele>
        <time>2020-06-08T16:19:01Z</time>
      </trkpt>
      <trkpt lat="48.38369" lon="-4.39061">
        <ele>54.3</ele>
        <time>2020-06-08T16:19:02Z</time>
      </trkpt>
      <trkpt lat="48.3837" lon="-4.39078">
        <ele>53.6</ele>
        <time>2020-06-08T16:19:03Z</time>
      </trkpt>
      <trkpt lat="48.38371" lon="-4.39096">
        <ele>53</ele>
        <time>2020-06-08T16:19:04Z</time>
      </trkpt>
      <trkpt lat="48.38371" lon="-4.39114">
        <ele>52.5</ele>
        <time>2020-06-08T16:19:05Z</time>
      </trkpt>
      <trkpt lat="48.38371" lon="-4.39131">
        <ele>51.9</ele>
        <time>2020-06-08T16:19:06Z</time>
      </trkpt>
      <trkpt lat="48.38371" lon="-4.39149">
        <ele>51.4</ele>
        <time>2020-06-08T16:19:07Z</time>
      </trkpt>
      <trkpt lat="48.3837" lon="-4.39166">
        <ele>50.9</ele>
        <time>2020-06-08T16:19:08Z</time>
      </trkpt>
      <trkpt lat="48.38368" lon="-4.39183">
        <ele>50.4</ele>
        <time>2020-06-08T16:19:09Z</time>
      </trkpt>
      <trkpt lat="48.38367" lon="-4.392">
        <ele>49.9</ele>
        <time>2020-06-08T16:19:10Z</time>
      </trkpt>
      <trkpt lat="48.38365" lon="-4.39216">
        <ele>49.4</ele>
        <time>2020-06-08T16:19:11Z</time>
      </trkpt>
      <trkpt lat="48.38364" lon="-4.39232">
        <ele>48.8</ele>
        <time>2020-06-08T16:19:12Z</time>
      </trkpt>
      <trkpt lat="48.38362" lon="-4.39248">
        <ele>48.5</ele>
        <time>2020-06-08T16:19:13Z</time>
      </trkpt>
      <trkpt lat="48.38361" lon="-4.39264">
        <ele>48.1</ele>
        <time>2020-06-08T16:19:14Z</time>
      </trkpt>
      <trkpt lat="48.3836" lon="-4.3928">
        <ele>47.7</ele>
        <time>2020-06-08T16:19:15Z</time>
      </trkpt>
      <trkpt lat="48.38359" lon="-4.39296">
        <ele>47.3</ele>
        <time>2020-06-08T16:19:16Z</time>
      </trkpt>
      <trkpt lat="48.38358" lon="-4.39312">
        <ele>46.9</ele>
        <time>2020-06-08T16:19:17Z</time>
      </trkpt>
      <trkpt lat="48.38358" lon="-4.39328">
        <ele>46.5</ele>
        <time>2020-06-08T16:19:18Z</time>
      </trkpt>
      <trkpt lat="48.38357" lon="-4.39344">
        <ele>46.1</ele>
        <time>2020-06-08T16:19:19Z</time>
      </trkpt>
      <trkpt lat="48.38355" lon="-4.3936">
        <ele>45.8</ele>
        <time>2020-06-08T16:19:20Z</time>
      </trkpt>
      <trkpt lat="48.38354" lon="-4.39374">
        <ele>45.5</ele>
        <time>2020-06-08T16:19:21Z</time>
      </trkpt>
      <trkpt lat="48.38352" lon="-4.39388">
        <ele>45.3</ele>
        <time>2020-06-08T16:19:22Z</time>
      </trkpt>
      <trkpt lat="48.38351" lon="-4.394">
        <ele>45.1</ele>
        <time>2020-06-08T16:19:23Z</time>
      </trkpt>
      <trkpt lat="48.3835" lon="-4.3941">
        <ele>44.9</ele>
        <time>2020-06-08T16:19:24Z</time>
      </trkpt>
      <trkpt lat="48.38352" lon="-4.39419">
        <ele>44.8</ele>
        <time>2020-06-08T16:19:25Z</time>
      </trkpt>
      <trkpt lat="48.38355" lon="-4.39426">
        <ele>44.7</ele>
        <time>2020-06-08T16:19:26Z</time>
      </trkpt>
      <trkpt lat="48.3836" lon="-4.3943">
        <ele>44.7</ele>
        <time>2020-06-08T16:19:27Z</time>
      </trkpt>
      <trkpt lat="48.38366" lon="-4.39433">
        <ele>44.6</ele>
        <time>2020-06-08T16:19:28Z</time>
      </trkpt>
      <trkpt lat="48.38371" lon="-4.39438">
        <ele>44.5</ele>
        <time>2020-06-08T16:19:29Z</time>
      </trkpt>
      <trkpt lat="48.38376" lon="-4.39445">
        <ele>44.2</ele>
        <time>2020-06-08T16:19:30Z</time>
      </trkpt>
      <trkpt lat="48.38379" lon="-4.39454">
        <ele>43.8</ele>
        <time>2020-06-08T16:19:31Z</time>
      </trkpt>
      <trkpt lat="48.38379" lon="-4.39465">
        <ele>43.5</ele>
        <time>2020-06-08T16:19:32Z</time>
      </trkpt>
      <trkpt lat="48.38377" lon="-4.39475">
        <ele>43.1</ele>
        <time>2020-06-08T16:19:33Z</time>
      </trkpt>
      <trkpt lat="48.38373" lon="-4.39484">
        <ele>42.8</ele>
        <time>2020-06-08T16:19:34Z</time>
      </trkpt>
      <trkpt lat="48.38371" lon="-4.39492">
        <ele>42.4</ele>
        <time>2020-06-08T16:19:35Z</time>
      </trkpt>
      <trkpt lat="48.38368" lon="-4.395">
        <ele>42.2</ele>
        <time>2020-06-08T16:19:36Z</time>
      </trkpt>
      <trkpt lat="48.38366" lon="-4.39507">
        <ele>41.9</ele>
        <time>2020-06-08T16:19:37Z</time>
      </trkpt>
      <trkpt lat="48.38364" lon="-4.39515">
        <ele>41.6</ele>
        <time>2020-06-08T16:19:38Z</time>
      </trkpt>
      <trkpt lat="48.3836" lon="-4.39521">
        <ele>41.4</ele>
        <time>2020-06-08T16:19:39Z</time>
      </trkpt>
      <trkpt lat="48.38357" lon="-4.39527">
        <ele>41.1</ele>
        <time>2020-06-08T16:19:40Z</time>
      </trkpt>
      <trkpt lat="48.38354" lon="-4.39534">
        <ele>40.8</ele>
        <time>2020-06-08T16:19:41Z</time>
      </trkpt>
      <trkpt lat="48.38353" lon="-4.39542">
        <ele>40.6</ele>
        <time>2020-06-08T16:19:42Z</time>
      </trkpt>
      <trkpt lat="48.38352" lon="-4.39551">
        <ele>40.3</ele>
        <time>2020-06-08T16:19:43Z</time>
      </trkpt>
      <trkpt lat="48.38353" lon="-4.39561">
        <ele>40</ele>
        <time>2020-06-08T16:19:44Z</time>
      </trkpt>
      <trkpt lat="48.38355" lon="-4.3957">
        <ele>39.7</ele>
        <time>2020-06-08T16:19:45Z</time>
      </trkpt>
      <trkpt lat="48.38359" lon="-4.3958">
        <ele>39.4</ele>
        <time>2020-06-08T16:19:46Z</time>
      </trkpt>
      <trkpt lat="48.38362" lon="-4.3959">
        <ele>39.2</ele>
        <time>2020-06-08T16:19:47Z</time>
      </trkpt>
      <trkpt lat="48.38365" lon="-4.396">
        <ele>38.9</ele>
        <time>2020-06-08T16:19:48Z</time>
      </trkpt>
      <trkpt lat="48.38367" lon="-4.39611">
        <ele>38.6</ele>
        <time>2020-06-08T16:19:49Z</time>
      </trkpt>
      <trkpt lat="48.3837" lon="-4.39621">
        <ele>38.4</ele>
        <time>2020-06-08T16:19:50Z</time>
      </trkpt>
      <trkpt lat="48.38373" lon="-4.3963">
        <ele>38.3</ele>
        <time>2020-06-08T16:19:51Z</time>
      </trkpt>
      <trkpt lat="48.38377" lon="-4.39639">
        <ele>38.3</ele>
        <time>2020-06-08T16:19:52Z</time>
      </trkpt>
      <trkpt lat="48.3838" lon="-4.39647">
        <ele>38.2</ele>
        <time>2020-06-08T16:19:53Z</time>
      </trkpt>
      <trkpt lat="48.38383" lon="-4.39656">
        <ele>38.2</ele>
        <time>2020-06-08T16:19:54Z</time>
      </trkpt>
      <trkpt lat="48.38387" lon="-4.39664">
        <ele>38.2</ele>
        <time>2020-06-08T16:19:55Z</time>
      </trkpt>
      <trkpt lat="48.38391" lon="-4.39672">
        <ele>38.2</ele>
        <time>2020-06-08T16:19:56Z</time>
      </trkpt>
      <trkpt lat="48.38396" lon="-4.39678">
        <ele>38.2</ele>
        <time>2020-06-08T16:19:57Z</time>
      </trkpt>
      <trkpt lat="48.38401" lon="-4.39684">
        <ele>38.2</ele>
        <time>2020-06-08T16:19:58Z</time>
      </trkpt>
      <trkpt lat="48.38406" lon="-4.3969">
        <ele>38.2</ele>
        <time>2020-06-08T16:19:59Z</time>
      </trkpt>
      <trkpt lat="48.3841" lon="-4.39696">
        <ele>38.2</ele>
        <time>2020-06-08T16:20:00Z</time>
      </trkpt>
      <trkpt lat="48.38415" lon="-4.39701">
        <ele>38.2</ele>
        <time>2020-06-08T16:20:01Z</time>
      </trkpt>
      <trkpt lat="48.3842" lon="-4.39707">
        <ele>38.2</ele>
        <time>2020-06-08T16:20:02Z</time>
      </trkpt>
      <trkpt lat="48.38425" lon="-4.39713">
        <ele>38.2</ele>
        <time>2020-06-08T16:20:03Z</time>
      </trkpt>
      <trkpt lat="48.3843" lon="-4.39718">
        <ele>38.2</ele>
        <time>2020-06-08T16:20:04Z</time>
      </trkpt>
      <trkpt lat="48.38435" lon="-4.39722">
        <ele>38.3</ele>
        <time>2020-06-08T16:20:05Z</time>
      </trkpt>
      <trkpt lat="48.38439" lon="-4.39726">
        <ele>38.3</ele>
        <time>2020-06-08T16:20:06Z</time>
      </trkpt>
      <trkpt lat="48.38443" lon="-4.3973">
        <ele>38.3</ele>
        <time>2020-06-08T16:20:07Z</time>
      </trkpt>
      <trkpt lat="48.38448" lon="-4.39731">
        <ele>38.4</ele>
        <time>2020-06-08T16:20:08Z</time>
      </trkpt>
      <trkpt lat="48.38452" lon="-4.39733">
        <ele>38.4</ele>
        <time>2020-06-08T16:20:09Z</time>
      </trkpt>
      <trkpt lat="48.38455" lon="-4.39736">
        <ele>38.4</ele>
        <time>2020-06-08T16:20:10Z</time>
      </trkpt>
      <trkpt lat="48.38458" lon="-4.39739">
        <ele>38.5</ele>
        <time>2020-06-08T16:20:11Z</time>
      </trkpt>
      <trkpt lat="48.38461" lon="-4.39742">
        <ele>38.5</ele>
        <time>2020-06-08T16:20:12Z</time>
      </trkpt>
      <trkpt lat="48.38464" lon="-4.39744">
        <ele>38.5</ele>
        <time>2020-06-08T16:20:13Z</time>
      </trkpt>
      <trkpt lat="48.38466" lon="-4.39746">
        <ele>38.5</ele>
        <time>2020-06-08T16:20:14Z</time>
      </trkpt>
      <trkpt lat="48.38469" lon="-4.39746">
        <ele>38.6</ele>
        <time>2020-06-08T16:20:15Z</time>
      </trkpt>
      <trkpt lat="48.3847" lon="-4.39746">
        <ele>38.6</ele>
        <time>2020-06-08T16:20:16Z</time>
      </trkpt>
      <trkpt lat="48.3847" lon="-4.39745">
        <ele>38.6</ele>
        <time>2020-06-08T16:20:17Z</time>
      </trkpt>
      <trkpt lat="48.3847" lon="-4.39745">
        <ele>38.6</ele>
        <time>2020-06-08T16:20:18Z</time>
      </trkpt>
      <trkpt lat="48.3847" lon="-4.39744">
        <ele>38.6</ele>
        <time>2020-06-08T16:20:19Z</time>
      </trkpt>
      <trkpt lat="48.3847" lon="-4.39745">
        <ele>38.6</ele>
        <time>2020-06-08T16:20:20Z</time>
      </trkpt>
      <trkpt lat="48.3847" lon="-4.39746">
        <ele>38.6</ele>
        <time>2020-06-08T16:20:21Z</time>
      </trkpt>
      <trkpt lat="48.3847" lon="-4.39746">
        <ele>38.6</ele>
        <time>2020-06-08T16:20:22Z</time>
      </trkpt>
      <trkpt lat="48.3847" lon="-4.39746">
        <ele>38.6</ele>
        <time>2020-06-08T16:20:23Z</time>
      </trkpt>
      <trkpt lat="48.38471" lon="-4.39746">
        <ele>38.6</ele>
        <time>2020-06-08T16:20:24Z</time>
      </trkpt>
      <trkpt lat="48.3847" lon="-4.39746">
        <ele>38.6</ele>
        <time>2020-06-08T16:20:25Z</time>
      </trkpt>
      <trkpt lat="48.3847" lon="-4.39747">
        <ele>38.6</ele>
        <time>2020-06-08T16:20:26Z</time>
      </trkpt>
      <trkpt lat="48.3847" lon="-4.39747">
        <ele>38.6</ele>
        <time>2020-06-08T16:20:27Z</time>
      </trkpt>
      <trkpt lat="48.38477" lon="-4.39748">
        <ele>38.7</ele>
        <time>2020-06-08T16:24:14Z</time>
      </trkpt>
      <trkpt lat="48.38478" lon="-4.3975">
        <ele>38.7</ele>
        <time>2020-06-08T16:24:15Z</time>
      </trkpt>
      <trkpt lat="48.38481" lon="-4.39753">
        <ele>38.7</ele>
        <time>2020-06-08T16:24:16Z</time>
      </trkpt>
      <trkpt lat="48.38482" lon="-4.39753">
        <ele>38.7</ele>
        <time>2020-06-08T16:24:17Z</time>
      </trkpt>
      <trkpt lat="48.38483" lon="-4.39754">
        <ele>38.7</ele>
        <time>2020-06-08T16:24:18Z</time>
      </trkpt>
      <trkpt lat="48.38483" lon="-4.39755">
        <ele>38.7</ele>
        <time>2020-06-08T16:24:19Z</time>
      </trkpt>
      <trkpt lat="48.38483" lon="-4.39755">
        <ele>38.8</ele>
        <time>2020-06-08T16:24:20Z</time>
      </trkpt>
      <trkpt lat="48.38483" lon="-4.39755">
        <ele>38.8</ele>
        <time>2020-06-08T16:24:21Z</time>
      </trkpt>
      <trkpt lat="48.38483" lon="-4.39755">
        <ele>38.8</ele>
        <time>2020-06-08T16:24:22Z</time>
      </trkpt>
      <trkpt lat="48.38483" lon="-4.39755">
        <ele>38.8</ele>
        <time>2020-06-08T16:24:23Z</time>
      </trkpt>
      <trkpt lat="48.38483" lon="-4.39755">
        <ele>38.8</ele>
        <time>2020-06-08T16:24:24Z</time>
      </trkpt>
      <trkpt lat="48.38483" lon="-4.39755">
        <ele>38.8</ele>
        <time>2020-06-08T16:24:25Z</time>
      </trkpt>
      <trkpt lat="48.38483" lon="-4.39754">
        <ele>38.8</ele>
        <time>2020-06-08T16:24:26Z</time>
      </trkpt>
      <trkpt lat="48.38483" lon="-4.39754">
        <ele>38.8</ele>
        <time>2020-06-08T16:24:27Z</time>
      </trkpt>
      <trkpt lat="48.38483" lon="-4.39755">
        <ele>38.8</ele>
        <time>2020-06-08T16:24:28Z</time>
      </trkpt>
      <trkpt lat="48.38483" lon="-4.39755">
        <ele>38.8</ele>
        <time>2020-06-08T16:24:29Z</time>
      </trkpt>
      <trkpt lat="48.38486" lon="-4.39758">
        <ele>38.8</ele>
        <time>2020-06-08T16:24:35Z</time>
      </trkpt>
      <trkpt lat="48.38487" lon="-4.3976">
        <ele>38.8</ele>
        <time>2020-06-08T16:24:36Z</time>
      </trkpt>
      <trkpt lat="48.3849" lon="-4.39764">
        <ele>38.8</ele>
        <time>2020-06-08T16:24:37Z</time>
      </trkpt>
      <trkpt lat="48.38491" lon="-4.39765">
        <ele>38.8</ele>
        <time>2020-06-08T16:24:38Z</time>
      </trkpt>
      <trkpt lat="48.38493" lon="-4.39768">
        <ele>38.8</ele>
        <time>2020-06-08T16:24:39Z</time>
      </trkpt>
      <trkpt lat="48.38495" lon="-4.39771">
        <ele>38.8</ele>
        <time>2020-06-08T16:24:40Z</time>
      </trkpt>
      <trkpt lat="48.38498" lon="-4.39774">
        <ele>38.8</ele>
        <time>2020-06-08T16:24:41Z</time>
      </trkpt>
      <trkpt lat="48.38501" lon="-4.39777">
        <ele>38.8</ele>
        <time>2020-06-08T16:24:42Z</time>
      </trkpt>
      <trkpt lat="48.38504" lon="-4.39779">
        <ele>38.8</ele>
        <time>2020-06-08T16:24:43Z</time>
      </trkpt>
      <trkpt lat="48.38507" lon="-4.39782">
        <ele>38.8</ele>
        <time>2020-06-08T16:24:44Z</time>
      </trkpt>
      <trkpt lat="48.38509" lon="-4.39784">
        <ele>38.8</ele>
        <time>2020-06-08T16:24:45Z</time>
      </trkpt>
      <trkpt lat="48.38512" lon="-4.39786">
        <ele>38.7</ele>
        <time>2020-06-08T16:24:46Z</time>
      </trkpt>
      <trkpt lat="48.38515" lon="-4.39788">
        <ele>38.7</ele>
        <time>2020-06-08T16:24:47Z</time>
      </trkpt>
      <trkpt lat="48.38518" lon="-4.3979">
        <ele>38.7</ele>
        <time>2020-06-08T16:24:48Z</time>
      </trkpt>
      <trkpt lat="48.38521" lon="-4.39792">
        <ele>38.7</ele>
        <time>2020-06-08T16:24:49Z</time>
      </trkpt>
      <trkpt lat="48.38524" lon="-4.39795">
        <ele>38.7</ele>
        <time>2020-06-08T16:24:50Z</time>
      </trkpt>
      <trkpt lat="48.38528" lon="-4.39797">
        <ele>38.7</ele>
        <time>2020-06-08T16:24:51Z</time>
      </trkpt>
      <trkpt lat="48.38531" lon="-4.398">
        <ele>38.6</ele>
        <time>2020-06-08T16:24:52Z</time>
      </trkpt>
      <trkpt lat="48.38534" lon="-4.39803">
        <ele>38.6</ele>
        <time>2020-06-08T16:24:53Z</time>
      </trkpt>
      <trkpt lat="48.38537" lon="-4.39806">
        <ele>38.6</ele>
        <time>2020-06-08T16:24:54Z</time>
      </trkpt>
      <trkpt lat="48.3854" lon="-4.39808">
        <ele>38.6</ele>
        <time>2020-06-08T16:24:55Z</time>
      </trkpt>
      <trkpt lat="48.38544" lon="-4.39811">
        <ele>38.6</ele>
        <time>2020-06-08T16:24:56Z</time>
      </trkpt>
      <trkpt lat="48.38548" lon="-4.39814">
        <ele>38.6</ele>
        <time>2020-06-08T16:24:57Z</time>
      </trkpt>
      <trkpt lat="48.38552" lon="-4.39816">
        <ele>38.6</ele>
        <time>2020-06-08T16:24:58Z</time>
      </trkpt>
      <trkpt lat="48.38555" lon="-4.39819">
        <ele>38.6</ele>
        <time>2020-06-08T16:24:59Z</time>
      </trkpt>
      <trkpt lat="48.38558" lon="-4.39823">
        <ele>38.6</ele>
        <time>2020-06-08T16:25:00Z</time>
      </trkpt>
      <trkpt lat="48.38561" lon="-4.39826">
        <ele>38.6</ele>
        <time>2020-06-08T16:25:01Z</time>
      </trkpt>
      <trkpt lat="48.38564" lon="-4.39828">
        <ele>38.6</ele>
        <time>2020-06-08T16:25:02Z</time>
      </trkpt>
      <trkpt lat="48.38567" lon="-4.39831">
        <ele>38.6</ele>
        <time>2020-06-08T16:25:03Z</time>
      </trkpt>
      <trkpt lat="48.3857" lon="-4.39833">
        <ele>38.6</ele>
        <time>2020-06-08T16:25:04Z</time>
      </trkpt>
      <trkpt lat="48.38573" lon="-4.39836">
        <ele>38.6</ele>
        <time>2020-06-08T16:25:05Z</time>
      </trkpt>
      <trkpt lat="48.38576" lon="-4.39839">
        <ele>38.6</ele>
        <time>2020-06-08T16:25:06Z</time>
      </trkpt>
      <trkpt lat="48.38579" lon="-4.39842">
        <ele>38.6</ele>
        <time>2020-06-08T16:25:07Z</time>
      </trkpt>
      <trkpt lat="48.38582" lon="-4.39845">
        <ele>38.6</ele>
        <time>2020-06-08T16:25:08Z</time>
      </trkpt>
      <trkpt lat="48.38585" lon="-4.39848">
        <ele>38.6</ele>
        <time>2020-06-08T16:25:09Z</time>
      </trkpt>
      <trkpt lat="48.38588" lon="-4.39851">
        <ele>38.6</ele>
        <time>2020-06-08T16:25:10Z</time>
      </trkpt>
      <trkpt lat="48.38591" lon="-4.39853">
        <ele>38.6</ele>
        <time>2020-06-08T16:25:11Z</time>
      </trkpt>
      <trkpt lat="48.38594" lon="-4.39855">
        <ele>38.6</ele>
        <time>2020-06-08T16:25:12Z</time>
      </trkpt>
      <trkpt lat="48.38597" lon="-4.39858">
        <ele>38.6</ele>
        <time>2020-06-08T16:25:13Z</time>
      </trkpt>
      <trkpt lat="48.38598" lon="-4.39859">
        <ele>38.6</ele>
        <time>2020-06-08T16:25:14Z</time>
      </trkpt>
      <trkpt lat="48.38601" lon="-4.39862">
        <ele>38.6</ele>
        <time>2020-06-08T16:25:15Z</time>
      </trkpt>
      <trkpt lat="48.38604" lon="-4.39864">
        <ele>38.6</ele>
        <time>2020-06-08T16:25:16Z</time>
      </trkpt>
      <trkpt lat="48.38607" lon="-4.39866">
        <ele>38.6</ele>
        <time>2020-06-08T16:25:17Z</time>
      </trkpt>
      <trkpt lat="48.3861" lon="-4.39868">
        <ele>38.6</ele>
        <time>2020-06-08T16:25:18Z</time>
      </trkpt>
      <trkpt lat="48.38612" lon="-4.39869">
        <ele>38.6</ele>
        <time>2020-06-08T16:25:19Z</time>
      </trkpt>
      <trkpt lat="48.38614" lon="-4.39871">
        <ele>38.6</ele>
        <time>2020-06-08T16:25:20Z</time>
      </trkpt>
      <trkpt lat="48.38618" lon="-4.39873">
        <ele>38.6</ele>
        <time>2020-06-08T16:25:21Z</time>
      </trkpt>
      <trkpt lat="48.38619" lon="-4.39874">
        <ele>38.6</ele>
        <time>2020-06-08T16:25:22Z</time>
      </trkpt>
      <trkpt lat="48.38623" lon="-4.39876">
        <ele>38.6</ele>
        <time>2020-06-08T16:25:23Z</time>
      </trkpt>
      <trkpt lat="48.38624" lon="-4.39877">
        <ele>38.6</ele>
        <time>2020-06-08T16:25:24Z</time>
      </trkpt>
      <trkpt lat="48.38627" lon="-4.39879">
        <ele>38.6</ele>
        <time>2020-06-08T16:25:25Z</time>
      </trkpt>
      <trkpt lat="48.3863" lon="-4.39881">
        <ele>38.6</ele>
        <time>2020-06-08T16:25:26Z</time>
      </trkpt>
      <trkpt lat="48.38633" lon="-4.39884">
        <ele>38.6</ele>
        <time>2020-06-08T16:25:27Z</time>
      </trkpt>
      <trkpt lat="48.38636" lon="-4.39887">
        <ele>38.6</ele>
        <time>2020-06-08T16:25:28Z</time>
      </trkpt>
      <trkpt lat="48.38639" lon="-4.39889">
        <ele>38.6</ele>
        <time>2020-06-08T16:25:29Z</time>
      </trkpt>
      <trkpt lat="48.38642" lon="-4.39889">
        <ele>38.6</ele>
        <time>2020-06-08T16:25:30Z</time>
      </trkpt>
      <trkpt lat="48.38645" lon="-4.39891">
        <ele>38.6</ele>
        <time>2020-06-08T16:25:31Z</time>
      </trkpt>
      <trkpt lat="48.38648" lon="-4.39895">
        <ele>38.6</ele>
        <time>2020-06-08T16:25:32Z</time>
      </trkpt>
      <trkpt lat="48.38649" lon="-4.39897">
        <ele>38.6</ele>
        <time>2020-06-08T16:25:33Z</time>
      </trkpt>
      <trkpt lat="48.38651" lon="-4.39899">
        <ele>38.6</ele>
        <time>2020-06-08T16:25:34Z</time>
      </trkpt>
      <trkpt lat="48.38655" lon="-4.39901">
        <ele>38.6</ele>
        <time>2020-06-08T16:25:35Z</time>
      </trkpt>
      <trkpt lat="48.38656" lon="-4.39901">
        <ele>38.6</ele>
        <time>2020-06-08T16:25:36Z</time>
      </trkpt>
      <trkpt lat="48.38658" lon="-4.39902">
        <ele>38.6</ele>
        <time>2020-06-08T16:25:37Z</time>
      </trkpt>
      <trkpt lat="48.38659" lon="-4.39903">
        <ele>38.6</ele>
        <time>2020-06-08T16:25:38Z</time>
      </trkpt>
      <trkpt lat="48.38659" lon="-4.39904">
        <ele>38.6</ele>
        <time>2020-06-08T16:25:39Z</time>
      </trkpt>
      <trkpt lat="48.3866" lon="-4.39904">
        <ele>38.6</ele>
        <time>2020-06-08T16:25:40Z</time>
      </trkpt>
      <trkpt lat="48.3866" lon="-4.39905">
        <ele>38.6</ele>
        <time>2020-06-08T16:25:41Z</time>
      </trkpt>
      <trkpt lat="48.3866" lon="-4.39905">
        <ele>38.6</ele>
        <time>2020-06-08T16:25:42Z</time>
      </trkpt>
      <trkpt lat="48.3866" lon="-4.39905">
        <ele>38.6</ele>
        <time>2020-06-08T16:25:43Z</time>
      </trkpt>
      <trkpt lat="48.38661" lon="-4.39905">
        <ele>38.6</ele>
        <time>2020-06-08T16:25:44Z</time>
      </trkpt>
      <trkpt lat="48.38661" lon="-4.39905">
        <ele>38.6</ele>
        <time>2020-06-08T16:25:45Z</time>
      </trkpt>
      <trkpt lat="48.38661" lon="-4.39905">
        <ele>38.6</ele>
        <time>2020-06-08T16:25:46Z</time>
      </trkpt>
      <trkpt lat="48.38661" lon="-4.39905">
        <ele>38.6</ele>
        <time>2020-06-08T16:25:47Z</time>
      </trkpt>
      <trkpt lat="48.38662" lon="-4.39906">
        <ele>38.6</ele>
        <time>2020-06-08T16:25:48Z</time>
      </trkpt>
      <trkpt lat="48.38662" lon="-4.39906">
        <ele>38.6</ele>
        <time>2020-06-08T16:25:49Z</time>
      </trkpt>
      <trkpt lat="48.38662" lon="-4.39906">
        <ele>38.6</ele>
        <time>2020-06-08T16:25:50Z</time>
      </trkpt>
      <trkpt lat="48.38662" lon="-4.39906">
        <ele>38.6</ele>
        <time>2020-06-08T16:25:51Z</time>
      </trkpt>
      <trkpt lat="48.38663" lon="-4.39906">
        <ele>38.6</ele>
        <time>2020-06-08T16:25:52Z</time>
      </trkpt>
      <trkpt lat="48.38663" lon="-4.39906">
        <ele>38.6</ele>
        <time>2020-06-08T16:25:53Z</time>
      </trkpt>
      <trkpt lat="48.38663" lon="-4.39906">
        <ele>38.6</ele>
        <time>2020-06-08T16:25:54Z</time>
      </trkpt>
      <trkpt lat="48.38663" lon="-4.39907">
        <ele>38.6</ele>
        <time>2020-06-08T16:25:55Z</time>
      </trkpt>
      <trkpt lat="48.38664" lon="-4.39907">
        <ele>38.6</ele>
        <time>2020-06-08T16:25:56Z</time>
      </trkpt>
      <trkpt lat="48.38664" lon="-4.39907">
        <ele>38.6</ele>
        <time>2020-06-08T16:25:57Z</time>
      </trkpt>
      <trkpt lat="48.38664" lon="-4.39907">
        <ele>38.6</ele>
        <time>2020-06-08T16:25:58Z</time>
      </trkpt>
      <trkpt lat="48.38664" lon="-4.39907">
        <ele>38.6</ele>
        <time>2020-06-08T16:25:59Z</time>
      </trkpt>
      <trkpt lat="48.38665" lon="-4.39907">
        <ele>38.6</ele>
        <time>2020-06-08T16:26:00Z</time>
      </trkpt>
      <trkpt lat="48.38665" lon="-4.39908">
        <ele>38.6</ele>
        <time>2020-06-08T16:26:01Z</time>
      </trkpt>
      <trkpt lat="48.38665" lon="-4.39908">
        <ele>38.6</ele>
        <time>2020-06-08T16:26:02Z</time>
      </trkpt>
      <trkpt lat="48.38666" lon="-4.39908">
        <ele>38.6</ele>
        <time>2020-06-08T16:26:20Z</time>
      </trkpt>
      <trkpt lat="48.38666" lon="-4.39908">
        <ele>38.6</ele>
        <time>2020-06-08T16:26:21Z</time>
      </trkpt>
      <trkpt lat="48.38666" lon="-4.39908">
        <ele>38.6</ele>
        <time>2020-06-08T16:26:22Z</time>
      </trkpt>
      <trkpt lat="48.38669" lon="-4.39911">
        <ele>38.6</ele>
        <time>2020-06-08T16:26:23Z</time>
      </trkpt>
      <trkpt lat="48.3867" lon="-4.39912">
        <ele>38.6</ele>
        <time>2020-06-08T16:26:24Z</time>
      </trkpt>
      <trkpt lat="48.38673" lon="-4.39916">
        <ele>38.6</ele>
        <time>2020-06-08T16:26:25Z</time>
      </trkpt>
      <trkpt lat="48.38675" lon="-4.39918">
        <ele>38.6</ele>
        <time>2020-06-08T16:26:26Z</time>
      </trkpt>
      <trkpt lat="48.38677" lon="-4.39921">
        <ele>38.6</ele>
        <time>2020-06-08T16:26:27Z</time>
      </trkpt>
      <trkpt lat="48.3868" lon="-4.39923">
        <ele>38.6</ele>
        <time>2020-06-08T16:26:28Z</time>
      </trkpt>
      <trkpt lat="48.38683" lon="-4.39926">
        <ele>38.6</ele>
        <time>2020-06-08T16:26:29Z</time>
      </trkpt>
      <trkpt lat="48.38685" lon="-4.39929">
        <ele>38.6</ele>
        <time>2020-06-08T16:26:30Z</time>
      </trkpt>
      <trkpt lat="48.38688" lon="-4.39931">
        <ele>38.6</ele>
        <time>2020-06-08T16:26:31Z</time>
      </trkpt>
      <trkpt lat="48.38691" lon="-4.39934">
        <ele>38.6</ele>
        <time>2020-06-08T16:26:32Z</time>
      </trkpt>
      <trkpt lat="48.38694" lon="-4.39937">
        <ele>38.7</ele>
        <time>2020-06-08T16:26:33Z</time>
      </trkpt>
      <trkpt lat="48.38698" lon="-4.39939">
        <ele>38.7</ele>
        <time>2020-06-08T16:26:34Z</time>
      </trkpt>
      <trkpt lat="48.38701" lon="-4.39941">
        <ele>38.7</ele>
        <time>2020-06-08T16:26:35Z</time>
      </trkpt>
      <trkpt lat="48.38703" lon="-4.39944">
        <ele>38.7</ele>
        <time>2020-06-08T16:26:36Z</time>
      </trkpt>
      <trkpt lat="48.38706" lon="-4.39946">
        <ele>38.7</ele>
        <time>2020-06-08T16:26:37Z</time>
      </trkpt>
      <trkpt lat="48.38709" lon="-4.39949">
        <ele>38.7</ele>
        <time>2020-06-08T16:26:38Z</time>
      </trkpt>
      <trkpt lat="48.38711" lon="-4.39951">
        <ele>38.7</ele>
        <time>2020-06-08T16:26:39Z</time>
      </trkpt>
      <trkpt lat="48.38714" lon="-4.39953">
        <ele>38.7</ele>
        <time>2020-06-08T16:26:40Z</time>
      </trkpt>
      <trkpt lat="48.38717" lon="-4.39956">
        <ele>38.7</ele>
        <time>2020-06-08T16:26:41Z</time>
      </trkpt>
      <trkpt lat="48.3872" lon="-4.39959">
        <ele>38.7</ele>
        <time>2020-06-08T16:26:42Z</time>
      </trkpt>
      <trkpt lat="48.38724" lon="-4.39961">
        <ele>38.7</ele>
        <time>2020-06-08T16:26:43Z</time>
      </trkpt>
      <trkpt lat="48.38727" lon="-4.39964">
        <ele>38.7</ele>
        <time>2020-06-08T16:26:44Z</time>
      </trkpt>
      <trkpt lat="48.3873" lon="-4.39967">
        <ele>38.7</ele>
        <time>2020-06-08T16:26:45Z</time>
      </trkpt>
      <trkpt lat="48.38733" lon="-4.3997">
        <ele>38.7</ele>
        <time>2020-06-08T16:26:46Z</time>
      </trkpt>
      <trkpt lat="48.38737" lon="-4.39972">
        <ele>38.7</ele>
        <time>2020-06-08T16:26:47Z</time>
      </trkpt>
      <trkpt lat="48.3874" lon="-4.39974">
        <ele>38.7</ele>
        <time>2020-06-08T16:26:48Z</time>
      </trkpt>
      <trkpt lat="48.38744" lon="-4.39977">
        <ele>38.7</ele>
        <time>2020-06-08T16:26:49Z</time>
      </trkpt>
      <trkpt lat="48.38745" lon="-4.39978">
        <ele>38.7</ele>
        <time>2020-06-08T16:26:50Z</time>
      </trkpt>
      <trkpt lat="48.38748" lon="-4.3998">
        <ele>38.7</ele>
        <time>2020-06-08T16:26:51Z</time>
      </trkpt>
      <trkpt lat="48.38751" lon="-4.39982">
        <ele>38.7</ele>
        <time>2020-06-08T16:26:52Z</time>
      </trkpt>
      <trkpt lat="48.38755" lon="-4.39984">
        <ele>38.7</ele>
        <time>2020-06-08T16:26:53Z</time>
      </trkpt>
      <trkpt lat="48.38757" lon="-4.39986">
        <ele>38.7</ele>
        <time>2020-06-08T16:26:54Z</time>
      </trkpt>
      <trkpt lat="48.3876" lon="-4.39987">
        <ele>38.7</ele>
        <time>2020-06-08T16:26:55Z</time>
      </trkpt>
      <trkpt lat="48.38763" lon="-4.3999">
        <ele>38.7</ele>
        <time>2020-06-08T16:26:56Z</time>
      </trkpt>
      <trkpt lat="48.38765" lon="-4.39991">
        <ele>38.7</ele>
        <time>2020-06-08T16:26:57Z</time>
      </trkpt>
      <trkpt lat="48.38767" lon="-4.39994">
        <ele>38.7</ele>
        <time>2020-06-08T16:26:58Z</time>
      </trkpt>
      <trkpt lat="48.3877" lon="-4.39996">
        <ele>38.7</ele>
        <time>2020-06-08T16:26:59Z</time>
      </trkpt>
      <trkpt lat="48.38774" lon="-4.39999">
        <ele>38.6</ele>
        <time>2020-06-08T16:27:00Z</time>
      </trkpt>
      <trkpt lat="48.38776" lon="-4.40001">
        <ele>38.6</ele>
        <time>2020-06-08T16:27:01Z</time>
      </trkpt>
      <trkpt lat="48.38779" lon="-4.40005">
        <ele>38.6</ele>
        <time>2020-06-08T16:27:02Z</time>
      </trkpt>
      <trkpt lat="48.3878" lon="-4.40006">
        <ele>38.6</ele>
        <time>2020-06-08T16:27:03Z</time>
      </trkpt>
      <trkpt lat="48.38782" lon="-4.40009">
        <ele>38.6</ele>
        <time>2020-06-08T16:27:04Z</time>
      </trkpt>
      <trkpt lat="48.38785" lon="-4.40012">
        <ele>38.6</ele>
        <time>2020-06-08T16:27:05Z</time>
      </trkpt>
      <trkpt lat="48.38788" lon="-4.40014">
        <ele>38.6</ele>
        <time>2020-06-08T16:27:06Z</time>
      </trkpt>
      <trkpt lat="48.38791" lon="-4.40016">
        <ele>38.6</ele>
        <time>2020-06-08T16:27:07Z</time>
      </trkpt>
      <trkpt lat="48.38793" lon="-4.40018">
        <ele>38.6</ele>
        <time>2020-06-08T16:27:08Z</time>
      </trkpt>
      <trkpt lat="48.38796" lon="-4.4002">
        <ele>38.6</ele>
        <time>2020-06-08T16:27:09Z</time>
      </trkpt>
      <trkpt lat="48.38797" lon="-4.40022">
        <ele>38.6</ele>
        <time>2020-06-08T16:27:10Z</time>
      </trkpt>
      <trkpt lat="48.38799" lon="-4.40025">
        <ele>38.6</ele>
        <time>2020-06-08T16:27:11Z</time>
      </trkpt>
      <trkpt lat="48.38802" lon="-4.40028">
        <ele>38.6</ele>
        <time>2020-06-08T16:27:12Z</time>
      </trkpt>
      <trkpt lat="48.38803" lon="-4.40029">
        <ele>38.6</ele>
        <time>2020-06-08T16:27:13Z</time>
      </trkpt>
      <trkpt lat="48.38806" lon="-4.40032">
        <ele>38.6</ele>
        <time>2020-06-08T16:27:14Z</time>
      </trkpt>
      <trkpt lat="48.38807" lon="-4.40033">
        <ele>38.6</ele>
        <time>2020-06-08T16:27:15Z</time>
      </trkpt>
      <trkpt lat="48.38809" lon="-4.40035">
        <ele>38.6</ele>
        <time>2020-06-08T16:27:16Z</time>
      </trkpt>
      <trkpt lat="48.38813" lon="-4.40036">
        <ele>38.6</ele>
        <time>2020-06-08T16:27:17Z</time>
      </trkpt>
      <trkpt lat="48.38815" lon="-4.40037">
        <ele>38.6</ele>
        <time>2020-06-08T16:27:18Z</time>
      </trkpt>
      <trkpt lat="48.38818" lon="-4.40037">
        <ele>38.6</ele>
        <time>2020-06-08T16:27:19Z</time>
      </trkpt>
      <trkpt lat="48.38821" lon="-4.40038">
        <ele>38.6</ele>
        <time>2020-06-08T16:27:20Z</time>
      </trkpt>
      <trkpt lat="48.38822" lon="-4.40038">
        <ele>38.6</ele>
        <time>2020-06-08T16:27:21Z</time>
      </trkpt>
      <trkpt lat="48.38824" lon="-4.40041">
        <ele>38.6</ele>
        <time>2020-06-08T16:27:22Z</time>
      </trkpt>
      <trkpt lat="48.38825" lon="-4.40042">
        <ele>38.6</ele>
        <time>2020-06-08T16:27:23Z</time>
      </trkpt>
      <trkpt lat="48.38829" lon="-4.40045">
        <ele>38.6</ele>
        <time>2020-06-08T16:27:24Z</time>
      </trkpt>
      <trkpt lat="48.3883" lon="-4.40046">
        <ele>38.6</ele>
        <time>2020-06-08T16:27:25Z</time>
      </trkpt>
      <trkpt lat="48.38833" lon="-4.40049">
        <ele>38.7</ele>
        <time>2020-06-08T16:27:26Z</time>
      </trkpt>
      <trkpt lat="48.38834" lon="-4.40049">
        <ele>38.7</ele>
        <time>2020-06-08T16:27:27Z</time>
      </trkpt>
      <trkpt lat="48.38837" lon="-4.40052">
        <ele>38.7</ele>
        <time>2020-06-08T16:27:28Z</time>
      </trkpt>
      <trkpt lat="48.38839" lon="-4.40054">
        <ele>38.7</ele>
        <time>2020-06-08T16:27:29Z</time>
      </trkpt>
      <trkpt lat="48.38843" lon="-4.40057">
        <ele>38.7</ele>
        <time>2020-06-08T16:27:30Z</time>
      </trkpt>
      <trkpt lat="48.38845" lon="-4.40059">
        <ele>38.7</ele>
        <time>2020-06-08T16:27:31Z</time>
      </trkpt>
      <trkpt lat="48.38848" lon="-4.40061">
        <ele>38.7</ele>
        <time>2020-06-08T16:27:32Z</time>
      </trkpt>
      <trkpt lat="48.38849" lon="-4.40061">
        <ele>38.7</ele>
        <time>2020-06-08T16:27:33Z</time>
      </trkpt>
      <trkpt lat="48.38852" lon="-4.40064">
        <ele>38.7</ele>
        <time>2020-06-08T16:27:34Z</time>
      </trkpt>
      <trkpt lat="48.38855" lon="-4.40066">
        <ele>38.6</ele>
        <time>2020-06-08T16:27:35Z</time>
      </trkpt>
      <trkpt lat="48.38857" lon="-4.40069">
        <ele>38.6</ele>
        <time>2020-06-08T16:27:36Z</time>
      </trkpt>
      <trkpt lat="48.38859" lon="-4.40073">
        <ele>38.6</ele>
        <time>2020-06-08T16:27:37Z</time>
      </trkpt>
      <trkpt lat="48.38862" lon="-4.40078">
        <ele>38.6</ele>
        <time>2020-06-08T16:27:38Z</time>
      </trkpt>
      <trkpt lat="48.38863" lon="-4.40079">
        <ele>38.6</ele>
        <time>2020-06-08T16:27:39Z</time>
      </trkpt>
      <trkpt lat="48.38866" lon="-4.40082">
        <ele>38.6</ele>
        <time>2020-06-08T16:27:40Z</time>
      </trkpt>
      <trkpt lat="48.3887" lon="-4.40084">
        <ele>38.6</ele>
        <time>2020-06-08T16:27:41Z</time>
      </trkpt>
      <trkpt lat="48.38873" lon="-4.40086">
        <ele>38.6</ele>
        <time>2020-06-08T16:27:42Z</time>
      </trkpt>
      <trkpt lat="48.38876" lon="-4.40088">
        <ele>38.6</ele>
        <time>2020-06-08T16:27:43Z</time>
      </trkpt>
      <trkpt lat="48.38878" lon="-4.4009">
        <ele>38.6</ele>
        <time>2020-06-08T16:27:44Z</time>
      </trkpt>
      <trkpt lat="48.38881" lon="-4.40092">
        <ele>38.6</ele>
        <time>2020-06-08T16:27:45Z</time>
      </trkpt>
      <trkpt lat="48.38884" lon="-4.40095">
        <ele>38.6</ele>
        <time>2020-06-08T16:27:46Z</time>
      </trkpt>
      <trkpt lat="48.38887" lon="-4.40097">
        <ele>38.6</ele>
        <time>2020-06-08T16:27:47Z</time>
      </trkpt>
      <trkpt lat="48.3889" lon="-4.40099">
        <ele>38.6</ele>
        <time>2020-06-08T16:27:48Z</time>
      </trkpt>
      <trkpt lat="48.38893" lon="-4.40102">
        <ele>38.6</ele>
        <time>2020-06-08T16:27:49Z</time>
      </trkpt>
      <trkpt lat="48.38896" lon="-4.40105">
        <ele>38.6</ele>
        <time>2020-06-08T16:27:50Z</time>
      </trkpt>
      <trkpt lat="48.389" lon="-4.40109">
        <ele>38.6</ele>
        <time>2020-06-08T16:27:51Z</time>
      </trkpt>
      <trkpt lat="48.38902" lon="-4.40111">
        <ele>38.6</ele>
        <time>2020-06-08T16:27:52Z</time>
      </trkpt>
      <trkpt lat="48.38906" lon="-4.40114">
        <ele>38.6</ele>
        <time>2020-06-08T16:27:53Z</time>
      </trkpt>
      <trkpt lat="48.38907" lon="-4.40115">
        <ele>38.6</ele>
        <time>2020-06-08T16:27:54Z</time>
      </trkpt>
      <trkpt lat="48.3891" lon="-4.40118">
        <ele>38.5</ele>
        <time>2020-06-08T16:27:55Z</time>
      </trkpt>
      <trkpt lat="48.38913" lon="-4.40119">
        <ele>38.5</ele>
        <time>2020-06-08T16:27:56Z</time>
      </trkpt>
      <trkpt lat="48.38916" lon="-4.4012">
        <ele>38.5</ele>
        <time>2020-06-08T16:27:57Z</time>
      </trkpt>
      <trkpt lat="48.38916" lon="-4.4012">
        <ele>38.5</ele>
        <time>2020-06-08T16:27:58Z</time>
      </trkpt>
      <trkpt lat="48.38917" lon="-4.4012">
        <ele>38.5</ele>
        <time>2020-06-08T16:27:59Z</time>
      </trkpt>
      <trkpt lat="48.38917" lon="-4.40121">
        <ele>38.5</ele>
        <time>2020-06-08T16:28:00Z</time>
      </trkpt>
      <trkpt lat="48.38917" lon="-4.4012">
        <ele>38.5</ele>
        <time>2020-06-08T16:28:01Z</time>
      </trkpt>
      <trkpt lat="48.38916" lon="-4.40118">
        <ele>38.5</ele>
        <time>2020-06-08T16:28:02Z</time>
      </trkpt>
      <trkpt lat="48.38916" lon="-4.40118">
        <ele>38.5</ele>
        <time>2020-06-08T16:28:03Z</time>
      </trkpt>
      <trkpt lat="48.38916" lon="-4.40117">
        <ele>38.5</ele>
        <time>2020-06-08T16:28:04Z</time>
      </trkpt>
      <trkpt lat="48.38916" lon="-4.40117">
        <ele>38.5</ele>
        <time>2020-06-08T16:28:05Z</time>
      </trkpt>
      <trkpt lat="48.38916" lon="-4.40117">
        <ele>38.5</ele>
        <time>2020-06-08T16:28:06Z</time>
      </trkpt>
      <trkpt lat="48.38916" lon="-4.40117">
        <ele>38.5</ele>
        <time>2020-06-08T16:28:07Z</time>
      </trkpt>
      <trkpt lat="48.38916" lon="-4.40117">
        <ele>38.5</ele>
        <time>2020-06-08T16:28:08Z</time>
      </trkpt>
      <trkpt lat="48.38916" lon="-4.40117">
        <ele>38.5</ele>
        <time>2020-06-08T16:28:09Z</time>
      </trkpt>
      <trkpt lat="48.38915" lon="-4.40117">
        <ele>38.5</ele>
        <time>2020-06-08T16:28:10Z</time>
      </trkpt>
      <trkpt lat="48.38912" lon="-4.40103">
        <ele>38.5</ele>
        <time>2020-06-08T16:28:48Z</time>
      </trkpt>
      <trkpt lat="48.38912" lon="-4.40101">
        <ele>38.5</ele>
        <time>2020-06-08T16:28:49Z</time>
      </trkpt>
      <trkpt lat="48.38911" lon="-4.401">
        <ele>38.5</ele>
        <time>2020-06-08T16:28:50Z</time>
      </trkpt>
      <trkpt lat="48.3891" lon="-4.40098">
        <ele>38.5</ele>
        <time>2020-06-08T16:28:51Z</time>
      </trkpt>
      <trkpt lat="48.38909" lon="-4.40098">
        <ele>38.4</ele>
        <time>2020-06-08T16:28:52Z</time>
      </trkpt>
      <trkpt lat="48.38908" lon="-4.40097">
        <ele>38.4</ele>
        <time>2020-06-08T16:28:53Z</time>
      </trkpt>
      <trkpt lat="48.38907" lon="-4.40097">
        <ele>38.4</ele>
        <time>2020-06-08T16:28:54Z</time>
      </trkpt>
      <trkpt lat="48.38907" lon="-4.40097">
        <ele>38.4</ele>
        <time>2020-06-08T16:28:55Z</time>
      </trkpt>
      <trkpt lat="48.38905" lon="-4.40095">
        <ele>38.4</ele>
        <time>2020-06-08T16:28:56Z</time>
      </trkpt>
      <trkpt lat="48.38904" lon="-4.40095">
        <ele>38.4</ele>
        <time>2020-06-08T16:28:57Z</time>
      </trkpt>
      <trkpt lat="48.38902" lon="-4.40094">
        <ele>38.4</ele>
        <time>2020-06-08T16:28:58Z</time>
      </trkpt>
      <trkpt lat="48.38901" lon="-4.40094">
        <ele>38.4</ele>
        <time>2020-06-08T16:28:59Z</time>
      </trkpt>
      <trkpt lat="48.38899" lon="-4.40093">
        <ele>38.4</ele>
        <time>2020-06-08T16:29:00Z</time>
      </trkpt>
      <trkpt lat="48.38898" lon="-4.40093">
        <ele>38.4</ele>
        <time>2020-06-08T16:29:01Z</time>
      </trkpt>
      <trkpt lat="48.38897" lon="-4.40092">
        <ele>38.4</ele>
        <time>2020-06-08T16:29:02Z</time>
      </trkpt>
      <trkpt lat="48.38897" lon="-4.40093">
        <ele>38.4</ele>
        <time>2020-06-08T16:29:03Z</time>
      </trkpt>
      <trkpt lat="48.38897" lon="-4.40094">
        <ele>38.4</ele>
        <time>2020-06-08T16:29:04Z</time>
      </trkpt>
      <trkpt lat="48.38897" lon="-4.40094">
        <ele>38.4</ele>
        <time>2020-06-08T16:29:05Z</time>
      </trkpt>
      <trkpt lat="48.38897" lon="-4.40095">
        <ele>38.4</ele>
        <time>2020-06-08T16:29:06Z</time>
      </trkpt>
      <trkpt lat="48.38897" lon="-4.40096">
        <ele>38.4</ele>
        <time>2020-06-08T16:29:07Z</time>
      </trkpt>
      <trkpt lat="48.38897" lon="-4.40096">
        <ele>38.4</ele>
        <time>2020-06-08T16:29:08Z</time>
      </trkpt>
      <trkpt lat="48.38898" lon="-4.40096">
        <ele>38.4</ele>
        <time>2020-06-08T16:29:09Z</time>
      </trkpt>
      <trkpt lat="48.38898" lon="-4.40097">
        <ele>38.4</ele>
        <time>2020-06-08T16:29:10Z</time>
      </trkpt>
      <trkpt lat="48.38898" lon="-4.40098">
        <ele>38.4</ele>
        <time>2020-06-08T16:29:11Z</time>
      </trkpt>
      <trkpt lat="48.38899" lon="-4.40099">
        <ele>38.4</ele>
        <time>2020-06-08T16:29:12Z</time>
      </trkpt>
      <trkpt lat="48.38899" lon="-4.40099">
        <ele>38.4</ele>
        <time>2020-06-08T16:29:13Z</time>
      </trkpt>
      <trkpt lat="48.38899" lon="-4.40099">
        <ele>38.4</ele>
        <time>2020-06-08T16:29:14Z</time>
      </trkpt>
      <trkpt lat="48.389" lon="-4.40101">
        <ele>38.4</ele>
        <time>2020-06-08T16:29:15Z</time>
      </trkpt>
      <trkpt lat="48.389" lon="-4.40103">
        <ele>38.4</ele>
        <time>2020-06-08T16:29:16Z</time>
      </trkpt>
      <trkpt lat="48.38901" lon="-4.40104">
        <ele>38.4</ele>
        <time>2020-06-08T16:29:17Z</time>
      </trkpt>
      <trkpt lat="48.38902" lon="-4.40105">
        <ele>38.3</ele>
        <time>2020-06-08T16:29:18Z</time>
      </trkpt>
      <trkpt lat="48.38902" lon="-4.40106">
        <ele>38.3</ele>
        <time>2020-06-08T16:29:19Z</time>
      </trkpt>
      <trkpt lat="48.38903" lon="-4.40106">
        <ele>38.3</ele>
        <time>2020-06-08T16:29:20Z</time>
      </trkpt>
      <trkpt lat="48.38903" lon="-4.40107">
        <ele>38.3</ele>
        <time>2020-06-08T16:29:21Z</time>
      </trkpt>
      <trkpt lat="48.38904" lon="-4.40107">
        <ele>38.3</ele>
        <time>2020-06-08T16:29:22Z</time>
      </trkpt>
      <trkpt lat="48.38904" lon="-4.40107">
        <ele>38.3</ele>
        <time>2020-06-08T16:29:23Z</time>
      </trkpt>
      <trkpt lat="48.38918" lon="-4.40117">
        <ele>38.2</ele>
        <time>2020-06-08T16:30:17Z</time>
      </trkpt>
      <trkpt lat="48.38918" lon="-4.40117">
        <ele>38.2</ele>
        <time>2020-06-08T16:30:18Z</time>
      </trkpt>
      <trkpt lat="48.38918" lon="-4.40117">
        <ele>38.2</ele>
        <time>2020-06-08T16:30:19Z</time>
      </trkpt>
      <trkpt lat="48.38918" lon="-4.40117">
        <ele>38.2</ele>
        <time>2020-06-08T16:30:20Z</time>
      </trkpt>
      <trkpt lat="48.38918" lon="-4.40116">
        <ele>38.2</ele>
        <time>2020-06-08T16:30:21Z</time>
      </trkpt>
      <trkpt lat="48.38918" lon="-4.40116">
        <ele>38.2</ele>
        <time>2020-06-08T16:30:22Z</time>
      </trkpt>
      <trkpt lat="48.38918" lon="-4.40117">
        <ele>38.2</ele>
        <time>2020-06-08T16:30:23Z</time>
      </trkpt>
      <trkpt lat="48.38919" lon="-4.40117">
        <ele>38.2</ele>
        <time>2020-06-08T16:30:24Z</time>
      </trkpt>
      <trkpt lat="48.38919" lon="-4.40117">
        <ele>38.2</ele>
        <time>2020-06-08T16:30:25Z</time>
      </trkpt>
      <trkpt lat="48.38919" lon="-4.40117">
        <ele>38.2</ele>
        <time>2020-06-08T16:30:26Z</time>
      </trkpt>
      <trkpt lat="48.38919" lon="-4.40117">
        <ele>38.2</ele>
        <time>2020-06-08T16:30:27Z</time>
      </trkpt>
      <trkpt lat="48.38918" lon="-4.40124">
        <ele>38.2</ele>
        <time>2020-06-08T16:32:31Z</time>
      </trkpt>
      <trkpt lat="48.38919" lon="-4.40126">
        <ele>38.2</ele>
        <time>2020-06-08T16:32:32Z</time>
      </trkpt>
      <trkpt lat="48.38919" lon="-4.40126">
        <ele>38.2</ele>
        <time>2020-06-08T16:32:33Z</time>
      </trkpt>
      <trkpt lat="48.38921" lon="-4.40127">
        <ele>38.2</ele>
        <time>2020-06-08T16:32:34Z</time>
      </trkpt>
      <trkpt lat="48.38921" lon="-4.40128">
        <ele>38.2</ele>
        <time>2020-06-08T16:32:35Z</time>
      </trkpt>
      <trkpt lat="48.38922" lon="-4.40129">
        <ele>38.2</ele>
        <time>2020-06-08T16:32:36Z</time>
      </trkpt>
      <trkpt lat="48.38923" lon="-4.4013">
        <ele>38.2</ele>
        <time>2020-06-08T16:32:37Z</time>
      </trkpt>
      <trkpt lat="48.38924" lon="-4.40131">
        <ele>38.2</ele>
        <time>2020-06-08T16:32:38Z</time>
      </trkpt>
      <trkpt lat="48.38924" lon="-4.40132">
        <ele>38.2</ele>
        <time>2020-06-08T16:32:39Z</time>
      </trkpt>
      <trkpt lat="48.38925" lon="-4.40132">
        <ele>38.2</ele>
        <time>2020-06-08T16:32:40Z</time>
      </trkpt>
      <trkpt lat="48.38926" lon="-4.40133">
        <ele>38.2</ele>
        <time>2020-06-08T16:32:41Z</time>
      </trkpt>
      <trkpt lat="48.38926" lon="-4.40134">
        <ele>38.3</ele>
        <time>2020-06-08T16:32:42Z</time>
      </trkpt>
      <trkpt lat="48.38927" lon="-4.40135">
        <ele>38.3</ele>
        <time>2020-06-08T16:32:43Z</time>
      </trkpt>
      <trkpt lat="48.38928" lon="-4.40136">
        <ele>38.3</ele>
        <time>2020-06-08T16:32:44Z</time>
      </trkpt>
      <trkpt lat="48.38929" lon="-4.40136">
        <ele>38.3</ele>
        <time>2020-06-08T16:32:45Z</time>
      </trkpt>
      <trkpt lat="48.38929" lon="-4.40137">
        <ele>38.3</ele>
        <time>2020-06-08T16:35:41Z</time>
      </trkpt>
      <trkpt lat="48.3893" lon="-4.40138">
        <ele>38.3</ele>
        <time>2020-06-08T16:35:42Z</time>
      </trkpt>
      <trkpt lat="48.38932" lon="-4.40139">
        <ele>38.3</ele>
        <time>2020-06-08T16:35:43Z</time>
      </trkpt>
      <trkpt lat="48.38933" lon="-4.4014">
        <ele>38.3</ele>
        <time>2020-06-08T16:35:44Z</time>
      </trkpt>
      <trkpt lat="48.38936" lon="-4.40142">
        <ele>38.4</ele>
        <time>2020-06-08T16:35:45Z</time>
      </trkpt>
      <trkpt lat="48.38938" lon="-4.40145">
        <ele>38.4</ele>
        <time>2020-06-08T16:35:46Z</time>
      </trkpt>
      <trkpt lat="48.38939" lon="-4.40145">
        <ele>38.4</ele>
        <time>2020-06-08T16:35:47Z</time>
      </trkpt>
      <trkpt lat="48.38943" lon="-4.40147">
        <ele>38.3</ele>
        <time>2020-06-08T16:35:48Z</time>
      </trkpt>
      <trkpt lat="48.38944" lon="-4.40147">
        <ele>38.3</ele>
        <time>2020-06-08T16:35:49Z</time>
      </trkpt>
      <trkpt lat="48.38948" lon="-4.40149">
        <ele>38.2</ele>
        <time>2020-06-08T16:35:50Z</time>
      </trkpt>
      <trkpt lat="48.38949" lon="-4.40149">
        <ele>38.2</ele>
        <time>2020-06-08T16:35:51Z</time>
      </trkpt>
      <trkpt lat="48.38951" lon="-4.40152">
        <ele>38.1</ele>
        <time>2020-06-08T16:35:52Z</time>
      </trkpt>
      <trkpt lat="48.38951" lon="-4.40154">
        <ele>38.1</ele>
        <time>2020-06-08T16:35:53Z</time>
      </trkpt>
      <trkpt lat="48.38953" lon="-4.40156">
        <ele>38.1</ele>
        <time>2020-06-08T16:35:54Z</time>
      </trkpt>
      <trkpt lat="48.38954" lon="-4.40157">
        <ele>38</ele>
        <time>2020-06-08T16:35:55Z</time>
      </trkpt>
      <trkpt lat="48.38956" lon="-4.40158">
        <ele>38</ele>
        <time>2020-06-08T16:35:56Z</time>
      </trkpt>
      <trkpt lat="48.38957" lon="-4.40159">
        <ele>37.9</ele>
        <time>2020-06-08T16:35:57Z</time>
      </trkpt>
      <trkpt lat="48.38958" lon="-4.40161">
        <ele>37.9</ele>
        <time>2020-06-08T16:35:58Z</time>
      </trkpt>
      <trkpt lat="48.38959" lon="-4.40162">
        <ele>37.8</ele>
        <time>2020-06-08T16:35:59Z</time>
      </trkpt>
      <trkpt lat="48.38961" lon="-4.40164">
        <ele>37.8</ele>
        <time>2020-06-08T16:36:00Z</time>
      </trkpt>
      <trkpt lat="48.38964" lon="-4.40166">
        <ele>37.7</ele>
        <time>2020-06-08T16:36:01Z</time>
      </trkpt>
      <trkpt lat="48.38965" lon="-4.40167">
        <ele>37.7</ele>
        <time>2020-06-08T16:36:02Z</time>
      </trkpt>
      <trkpt lat="48.38966" lon="-4.40169">
        <ele>37.6</ele>
        <time>2020-06-08T16:36:03Z</time>
      </trkpt>
      <trkpt lat="48.38968" lon="-4.4017">
        <ele>37.5</ele>
        <time>2020-06-08T16:36:04Z</time>
      </trkpt>
      <trkpt lat="48.3897" lon="-4.40172">
        <ele>37.4</ele>
        <time>2020-06-08T16:36:05Z</time>
      </trkpt>
      <trkpt lat="48.38971" lon="-4.40172">
        <ele>37.4</ele>
        <time>2020-06-08T16:36:06Z</time>
      </trkpt>
      <trkpt lat="48.38974" lon="-4.40175">
        <ele>37.2</ele>
        <time>2020-06-08T16:36:07Z</time>
      </trkpt>
      <trkpt lat="48.38975" lon="-4.40177">
        <ele>37.2</ele>
        <time>2020-06-08T16:36:08Z</time>
      </trkpt>
      <trkpt lat="48.38978" lon="-4.40179">
        <ele>37</ele>
        <time>2020-06-08T16:36:09Z</time>
      </trkpt>
      <trkpt lat="48.3898" lon="-4.40179">
        <ele>36.9</ele>
        <time>2020-06-08T16:36:10Z</time>
      </trkpt>
      <trkpt lat="48.38983" lon="-4.40181">
        <ele>36.8</ele>
        <time>2020-06-08T16:36:11Z</time>
      </trkpt>
      <trkpt lat="48.38984" lon="-4.40182">
        <ele>36.7</ele>
        <time>2020-06-08T16:36:12Z</time>
      </trkpt>
      <trkpt lat="48.38988" lon="-4.40184">
        <ele>36.5</ele>
        <time>2020-06-08T16:36:13Z</time>
      </trkpt>
      <trkpt lat="48.3899" lon="-4.40185">
        <ele>36.4</ele>
        <time>2020-06-08T16:36:14Z</time>
      </trkpt>
      <trkpt lat="48.38994" lon="-4.40187">
        <ele>36.2</ele>
        <time>2020-06-08T16:36:15Z</time>
      </trkpt>
      <trkpt lat="48.38996" lon="-4.4019">
        <ele>36</ele>
        <time>2020-06-08T16:36:16Z</time>
      </trkpt>
      <trkpt lat="48.38999" lon="-4.40192">
        <ele>35.8</ele>
        <time>2020-06-08T16:36:17Z</time>
      </trkpt>
      <trkpt lat="48.39003" lon="-4.40195">
        <ele>35.5</ele>
        <time>2020-06-08T16:36:18Z</time>
      </trkpt>
      <trkpt lat="48.39007" lon="-4.40195">
        <ele>35.3</ele>
        <time>2020-06-08T16:36:19Z</time>
      </trkpt>
      <trkpt lat="48.3901" lon="-4.40197">
        <ele>35</ele>
        <time>2020-06-08T16:36:20Z</time>
      </trkpt>
      <trkpt lat="48.39013" lon="-4.40201">
        <ele>34.8</ele>
        <time>2020-06-08T16:36:21Z</time>
      </trkpt>
      <trkpt lat="48.39017" lon="-4.40205">
        <ele>34.4</ele>
        <time>2020-06-08T16:36:22Z</time>
      </trkpt>
      <trkpt lat="48.39021" lon="-4.40208">
        <ele>34.1</ele>
        <time>2020-06-08T16:36:23Z</time>
      </trkpt>
      <trkpt lat="48.39025" lon="-4.40213">
        <ele>33.8</ele>
        <time>2020-06-08T16:36:24Z</time>
      </trkpt>
      <trkpt lat="48.3903" lon="-4.40217">
        <ele>33.4</ele>
        <time>2020-06-08T16:36:25Z</time>
      </trkpt>
      <trkpt lat="48.39035" lon="-4.40221">
        <ele>33.1</ele>
        <time>2020-06-08T16:36:26Z</time>
      </trkpt>
      <trkpt lat="48.39038" lon="-4.40225">
        <ele>32.8</ele>
        <time>2020-06-08T16:36:27Z</time>
      </trkpt>
      <trkpt lat="48.39043" lon="-4.40228">
        <ele>32.5</ele>
        <time>2020-06-08T16:36:28Z</time>
      </trkpt>
      <trkpt lat="48.39048" lon="-4.40232">
        <ele>32.2</ele>
        <time>2020-06-08T16:36:29Z</time>
      </trkpt>
      <trkpt lat="48.39054" lon="-4.40235">
        <ele>31.8</ele>
        <time>2020-06-08T16:36:30Z</time>
      </trkpt>
      <trkpt lat="48.39058" lon="-4.4024">
        <ele>31.5</ele>
        <time>2020-06-08T16:36:31Z</time>
      </trkpt>
      <trkpt lat="48.39064" lon="-4.40243">
        <ele>31.2</ele>
        <time>2020-06-08T16:36:32Z</time>
      </trkpt>
      <trkpt lat="48.39068" lon="-4.40247">
        <ele>30.9</ele>
        <time>2020-06-08T16:36:33Z</time>
      </trkpt>
      <trkpt lat="48.39072" lon="-4.4025">
        <ele>30.6</ele>
        <time>2020-06-08T16:36:34Z</time>
      </trkpt>
      <trkpt lat="48.39076" lon="-4.40253">
        <ele>30.4</ele>
        <time>2020-06-08T16:36:35Z</time>
      </trkpt>
      <trkpt lat="48.39079" lon="-4.40256">
        <ele>30.2</ele>
        <time>2020-06-08T16:36:36Z</time>
      </trkpt>
      <trkpt lat="48.39082" lon="-4.40258">
        <ele>30.1</ele>
        <time>2020-06-08T16:36:37Z</time>
      </trkpt>
      <trkpt lat="48.39083" lon="-4.40259">
        <ele>30</ele>
        <time>2020-06-08T16:36:38Z</time>
      </trkpt>
      <trkpt lat="48.39085" lon="-4.40259">
        <ele>29.9</ele>
        <time>2020-06-08T16:36:39Z</time>
      </trkpt>
      <trkpt lat="48.39087" lon="-4.40257">
        <ele>29.8</ele>
        <time>2020-06-08T16:36:40Z</time>
      </trkpt>
      <trkpt lat="48.3909" lon="-4.40255">
        <ele>29.6</ele>
        <time>2020-06-08T16:36:41Z</time>
      </trkpt>
      <trkpt lat="48.39092" lon="-4.40255">
        <ele>29.5</ele>
        <time>2020-06-08T16:36:42Z</time>
      </trkpt>
      <trkpt lat="48.39095" lon="-4.40256">
        <ele>29.4</ele>
        <time>2020-06-08T16:36:43Z</time>
      </trkpt>
      <trkpt lat="48.39098" lon="-4.40258">
        <ele>29.2</ele>
        <time>2020-06-08T16:36:44Z</time>
      </trkpt>
      <trkpt lat="48.39102" lon="-4.40262">
        <ele>29</ele>
        <time>2020-06-08T16:36:45Z</time>
      </trkpt>
      <trkpt lat="48.39106" lon="-4.40266">
        <ele>28.8</ele>
        <time>2020-06-08T16:36:46Z</time>
      </trkpt>
      <trkpt lat="48.39109" lon="-4.40269">
        <ele>28.6</ele>
        <time>2020-06-08T16:36:47Z</time>
      </trkpt>
      <trkpt lat="48.39112" lon="-4.40273">
        <ele>28.4</ele>
        <time>2020-06-08T16:36:48Z</time>
      </trkpt>
      <trkpt lat="48.39116" lon="-4.40277">
        <ele>28.2</ele>
        <time>2020-06-08T16:36:49Z</time>
      </trkpt>
      <trkpt lat="48.3912" lon="-4.40281">
        <ele>28.1</ele>
        <time>2020-06-08T16:36:50Z</time>
      </trkpt>
      <trkpt lat="48.39124" lon="-4.40285">
        <ele>27.9</ele>
        <time>2020-06-08T16:36:51Z</time>
      </trkpt>
      <trkpt lat="48.39128" lon="-4.40289">
        <ele>27.8</ele>
        <time>2020-06-08T16:36:52Z</time>
      </trkpt>
      <trkpt lat="48.39131" lon="-4.40292">
        <ele>27.7</ele>
        <time>2020-06-08T16:36:53Z</time>
      </trkpt>
      <trkpt lat="48.39134" lon="-4.40294">
        <ele>27.6</ele>
        <time>2020-06-08T16:36:54Z</time>
      </trkpt>
      <trkpt lat="48.39137" lon="-4.40296">
        <ele>27.6</ele>
        <time>2020-06-08T16:36:55Z</time>
      </trkpt>
      <trkpt lat="48.39141" lon="-4.403">
        <ele>27.4</ele>
        <time>2020-06-08T16:36:56Z</time>
      </trkpt>
      <trkpt lat="48.39145" lon="-4.40303">
        <ele>27.3</ele>
        <time>2020-06-08T16:36:57Z</time>
      </trkpt>
      <trkpt lat="48.39149" lon="-4.40307">
        <ele>27.2</ele>
        <time>2020-06-08T16:36:58Z</time>
      </trkpt>
      <trkpt lat="48.39153" lon="-4.40311">
        <ele>27.1</ele>
        <time>2020-06-08T16:36:59Z</time>
      </trkpt>
      <trkpt lat="48.39156" lon="-4.40313">
        <ele>27</ele>
        <time>2020-06-08T16:37:00Z</time>
      </trkpt>
      <trkpt lat="48.39161" lon="-4.40318">
        <ele>26.8</ele>
        <time>2020-06-08T16:37:01Z</time>
      </trkpt>
      <trkpt lat="48.39164" lon="-4.40319">
        <ele>26.7</ele>
        <time>2020-06-08T16:37:02Z</time>
      </trkpt>
      <trkpt lat="48.39168" lon="-4.40321">
        <ele>26.6</ele>
        <time>2020-06-08T16:37:03Z</time>
      </trkpt>
      <trkpt lat="48.39171" lon="-4.40323">
        <ele>26.6</ele>
        <time>2020-06-08T16:37:04Z</time>
      </trkpt>
      <trkpt lat="48.39175" lon="-4.40325">
        <ele>26.5</ele>
        <time>2020-06-08T16:37:05Z</time>
      </trkpt>
      <trkpt lat="48.39178" lon="-4.40327">
        <ele>26.4</ele>
        <time>2020-06-08T16:37:06Z</time>
      </trkpt>
      <trkpt lat="48.39179" lon="-4.40328">
        <ele>26.3</ele>
        <time>2020-06-08T16:37:07Z</time>
      </trkpt>
      <trkpt lat="48.3918" lon="-4.40329">
        <ele>26.3</ele>
        <time>2020-06-08T16:37:08Z</time>
      </trkpt>
      <trkpt lat="48.39182" lon="-4.40331">
        <ele>26.3</ele>
        <time>2020-06-08T16:37:09Z</time>
      </trkpt>
      <trkpt lat="48.39184" lon="-4.40331">
        <ele>26.2</ele>
        <time>2020-06-08T16:37:10Z</time>
      </trkpt>
      <trkpt lat="48.39185" lon="-4.40332">
        <ele>26.2</ele>
        <time>2020-06-08T16:37:11Z</time>
      </trkpt>
      <trkpt lat="48.39188" lon="-4.40334">
        <ele>26.2</ele>
        <time>2020-06-08T16:37:12Z</time>
      </trkpt>
      <trkpt lat="48.3919" lon="-4.40335">
        <ele>26.2</ele>
        <time>2020-06-08T16:37:13Z</time>
      </trkpt>
      <trkpt lat="48.39191" lon="-4.40338">
        <ele>26.2</ele>
        <time>2020-06-08T16:37:14Z</time>
      </trkpt>
      <trkpt lat="48.39191" lon="-4.40339">
        <ele>26.2</ele>
        <time>2020-06-08T16:37:15Z</time>
      </trkpt>
      <trkpt lat="48.39192" lon="-4.4034">
        <ele>26.2</ele>
        <time>2020-06-08T16:37:16Z</time>
      </trkpt>
      <trkpt lat="48.3919" lon="-4.4034">
        <ele>26.2</ele>
        <time>2020-06-08T16:37:17Z</time>
      </trkpt>
      <trkpt lat="48.39189" lon="-4.40339">
        <ele>26.2</ele>
        <time>2020-06-08T16:37:18Z</time>
      </trkpt>
      <trkpt lat="48.39188" lon="-4.40339">
        <ele>26.2</ele>
        <time>2020-06-08T16:37:19Z</time>
      </trkpt>
      <trkpt lat="48.39188" lon="-4.40337">
        <ele>26.2</ele>
        <time>2020-06-08T16:37:20Z</time>
      </trkpt>
      <trkpt lat="48.39188" lon="-4.40337">
        <ele>26.2</ele>
        <time>2020-06-08T16:37:21Z</time>
      </trkpt>
      <trkpt lat="48.39188" lon="-4.40336">
        <ele>26.2</ele>
        <time>2020-06-08T16:37:22Z</time>
      </trkpt>
      <trkpt lat="48.39187" lon="-4.40335">
        <ele>26.2</ele>
        <time>2020-06-08T16:37:23Z</time>
      </trkpt>
      <trkpt lat="48.39188" lon="-4.40334">
        <ele>26.2</ele>
        <time>2020-06-08T16:37:24Z</time>
      </trkpt>
      <trkpt lat="48.39192" lon="-4.40336">
        <ele>26.3</ele>
        <time>2020-06-08T16:37:25Z</time>
      </trkpt>
      <trkpt lat="48.39194" lon="-4.40337">
        <ele>26.3</ele>
        <time>2020-06-08T16:37:26Z</time>
      </trkpt>
      <trkpt lat="48.39194" lon="-4.40338">
        <ele>26.3</ele>
        <time>2020-06-08T16:37:27Z</time>
      </trkpt>
      <trkpt lat="48.39194" lon="-4.4034">
        <ele>26.3</ele>
        <time>2020-06-08T16:37:28Z</time>
      </trkpt>
      <trkpt lat="48.39195" lon="-4.40341">
        <ele>26.3</ele>
        <time>2020-06-08T16:37:29Z</time>
      </trkpt>
      <trkpt lat="48.39197" lon="-4.40347">
        <ele>26.1</ele>
        <time>2020-06-08T16:37:30Z</time>
      </trkpt>
      <trkpt lat="48.39198" lon="-4.4035">
        <ele>26.1</ele>
        <time>2020-06-08T16:37:31Z</time>
      </trkpt>
      <trkpt lat="48.392" lon="-4.40355">
        <ele>26</ele>
        <time>2020-06-08T16:37:32Z</time>
      </trkpt>
      <trkpt lat="48.39203" lon="-4.40357">
        <ele>25.8</ele>
        <time>2020-06-08T16:37:33Z</time>
      </trkpt>
      <trkpt lat="48.39206" lon="-4.40359">
        <ele>25.7</ele>
        <time>2020-06-08T16:37:34Z</time>
      </trkpt>
      <trkpt lat="48.39209" lon="-4.40361">
        <ele>25.6</ele>
        <time>2020-06-08T16:37:35Z</time>
      </trkpt>
      <trkpt lat="48.39213" lon="-4.40363">
        <ele>25.5</ele>
        <time>2020-06-08T16:37:36Z</time>
      </trkpt>
      <trkpt lat="48.39216" lon="-4.40366">
        <ele>25.3</ele>
        <time>2020-06-08T16:37:37Z</time>
      </trkpt>
      <trkpt lat="48.39219" lon="-4.40369">
        <ele>25.2</ele>
        <time>2020-06-08T16:37:38Z</time>
      </trkpt>
      <trkpt lat="48.39223" lon="-4.40371">
        <ele>25</ele>
        <time>2020-06-08T16:37:39Z</time>
      </trkpt>
      <trkpt lat="48.39226" lon="-4.40373">
        <ele>24.9</ele>
        <time>2020-06-08T16:37:40Z</time>
      </trkpt>
      <trkpt lat="48.3923" lon="-4.40375">
        <ele>24.8</ele>
        <time>2020-06-08T16:37:41Z</time>
      </trkpt>
      <trkpt lat="48.39234" lon="-4.40377">
        <ele>24.7</ele>
        <time>2020-06-08T16:37:42Z</time>
      </trkpt>
      <trkpt lat="48.39238" lon="-4.4038">
        <ele>24.6</ele>
        <time>2020-06-08T16:37:43Z</time>
      </trkpt>
      <trkpt lat="48.39242" lon="-4.40383">
        <ele>24.5</ele>
        <time>2020-06-08T16:37:44Z</time>
      </trkpt>
      <trkpt lat="48.39246" lon="-4.40386">
        <ele>24.3</ele>
        <time>2020-06-08T16:37:45Z</time>
      </trkpt>
      <trkpt lat="48.39251" lon="-4.40389">
        <ele>24.2</ele>
        <time>2020-06-08T16:37:46Z</time>
      </trkpt>
      <trkpt lat="48.39255" lon="-4.40392">
        <ele>24.1</ele>
        <time>2020-06-08T16:37:47Z</time>
      </trkpt>
      <trkpt lat="48.39259" lon="-4.40396">
        <ele>24</ele>
        <time>2020-06-08T16:37:48Z</time>
      </trkpt>
      <trkpt lat="48.39263" lon="-4.40401">
        <ele>24</ele>
        <time>2020-06-08T16:37:49Z</time>
      </trkpt>
      <trkpt lat="48.39268" lon="-4.40405">
        <ele>23.9</ele>
        <time>2020-06-08T16:37:50Z</time>
      </trkpt>
      <trkpt lat="48.39273" lon="-4.40408">
        <ele>23.9</ele>
        <time>2020-06-08T16:37:51Z</time>
      </trkpt>
      <trkpt lat="48.39278" lon="-4.40412">
        <ele>23.9</ele>
        <time>2020-06-08T16:37:52Z</time>
      </trkpt>
      <trkpt lat="48.39284" lon="-4.40415">
        <ele>23.9</ele>
        <time>2020-06-08T16:37:53Z</time>
      </trkpt>
      <trkpt lat="48.39288" lon="-4.4042">
        <ele>24</ele>
        <time>2020-06-08T16:37:54Z</time>
      </trkpt>
      <trkpt lat="48.39292" lon="-4.40426">
        <ele>24</ele>
        <time>2020-06-08T16:37:55Z</time>
      </trkpt>
      <trkpt lat="48.39296" lon="-4.40432">
        <ele>24.1</ele>
        <time>2020-06-08T16:37:56Z</time>
      </trkpt>
      <trkpt lat="48.393" lon="-4.40439">
        <ele>24.2</ele>
        <time>2020-06-08T16:37:57Z</time>
      </trkpt>
      <trkpt lat="48.39304" lon="-4.40445">
        <ele>24.3</ele>
        <time>2020-06-08T16:37:58Z</time>
      </trkpt>
      <trkpt lat="48.39308" lon="-4.4045">
        <ele>24.5</ele>
        <time>2020-06-08T16:37:59Z</time>
      </trkpt>
      <trkpt lat="48.39313" lon="-4.40455">
        <ele>24.6</ele>
        <time>2020-06-08T16:38:00Z</time>
      </trkpt>
      <trkpt lat="48.39319" lon="-4.4046">
        <ele>24.8</ele>
        <time>2020-06-08T16:38:01Z</time>
      </trkpt>
      <trkpt lat="48.39324" lon="-4.40463">
        <ele>24.9</ele>
        <time>2020-06-08T16:38:02Z</time>
      </trkpt>
      <trkpt lat="48.39328" lon="-4.40466">
        <ele>25</ele>
        <time>2020-06-08T16:38:03Z</time>
      </trkpt>
      <trkpt lat="48.39332" lon="-4.40471">
        <ele>25.2</ele>
        <time>2020-06-08T16:38:04Z</time>
      </trkpt>
      <trkpt lat="48.39334" lon="-4.40475">
        <ele>25.3</ele>
        <time>2020-06-08T16:38:05Z</time>
      </trkpt>
      <trkpt lat="48.39338" lon="-4.4048">
        <ele>25.5</ele>
        <time>2020-06-08T16:38:06Z</time>
      </trkpt>
      <trkpt lat="48.39341" lon="-4.40485">
        <ele>25.6</ele>
        <time>2020-06-08T16:38:07Z</time>
      </trkpt>
      <trkpt lat="48.39344" lon="-4.40489">
        <ele>25.8</ele>
        <time>2020-06-08T16:38:08Z</time>
      </trkpt>
      <trkpt lat="48.39348" lon="-4.40495">
        <ele>26</ele>
        <time>2020-06-08T16:38:09Z</time>
      </trkpt>
      <trkpt lat="48.39351" lon="-4.405">
        <ele>26.2</ele>
        <time>2020-06-08T16:38:10Z</time>
      </trkpt>
      <trkpt lat="48.39354" lon="-4.40505">
        <ele>26.6</ele>
        <time>2020-06-08T16:38:11Z</time>
      </trkpt>
      <trkpt lat="48.39358" lon="-4.40509">
        <ele>26.9</ele>
        <time>2020-06-08T16:38:12Z</time>
      </trkpt>
      <trkpt lat="48.39361" lon="-4.40514">
        <ele>27.2</ele>
        <time>2020-06-08T16:38:13Z</time>
      </trkpt>
      <trkpt lat="48.39363" lon="-4.40518">
        <ele>27.4</ele>
        <time>2020-06-08T16:38:14Z</time>
      </trkpt>
      <trkpt lat="48.39366" lon="-4.40522">
        <ele>27.6</ele>
        <time>2020-06-08T16:38:15Z</time>
      </trkpt>
      <trkpt lat="48.39368" lon="-4.40525">
        <ele>27.8</ele>
        <time>2020-06-08T16:38:16Z</time>
      </trkpt>
      <trkpt lat="48.39371" lon="-4.40529">
        <ele>28</ele>
        <time>2020-06-08T16:38:17Z</time>
      </trkpt>
      <trkpt lat="48.39372" lon="-4.40533">
        <ele>28.2</ele>
        <time>2020-06-08T16:38:18Z</time>
      </trkpt>
      <trkpt lat="48.39376" lon="-4.40538">
        <ele>28.5</ele>
        <time>2020-06-08T16:38:19Z</time>
      </trkpt>
      <trkpt lat="48.39377" lon="-4.40542">
        <ele>28.7</ele>
        <time>2020-06-08T16:38:20Z</time>
      </trkpt>
      <trkpt lat="48.39379" lon="-4.40545">
        <ele>28.9</ele>
        <time>2020-06-08T16:38:21Z</time>
      </trkpt>
      <trkpt lat="48.39381" lon="-4.40548">
        <ele>29.1</ele>
        <time>2020-06-08T16:38:22Z</time>
      </trkpt>
      <trkpt lat="48.39384" lon="-4.40554">
        <ele>29.4</ele>
        <time>2020-06-08T16:38:23Z</time>
      </trkpt>
      <trkpt lat="48.39385" lon="-4.40556">
        <ele>29.5</ele>
        <time>2020-06-08T16:38:24Z</time>
      </trkpt>
      <trkpt lat="48.39387" lon="-4.4056">
        <ele>29.7</ele>
        <time>2020-06-08T16:38:25Z</time>
      </trkpt>
      <trkpt lat="48.39388" lon="-4.40564">
        <ele>29.9</ele>
        <time>2020-06-08T16:38:26Z</time>
      </trkpt>
      <trkpt lat="48.3939" lon="-4.40568">
        <ele>30.1</ele>
        <time>2020-06-08T16:38:27Z</time>
      </trkpt>
      <trkpt lat="48.39392" lon="-4.40572">
        <ele>30.3</ele>
        <time>2020-06-08T16:38:28Z</time>
      </trkpt>
      <trkpt lat="48.39394" lon="-4.40577">
        <ele>30.6</ele>
        <time>2020-06-08T16:38:29Z</time>
      </trkpt>
      <trkpt lat="48.39397" lon="-4.40582">
        <ele>30.8</ele>
        <time>2020-06-08T16:38:30Z</time>
      </trkpt>
      <trkpt lat="48.39399" lon="-4.40587">
        <ele>31</ele>
        <time>2020-06-08T16:38:31Z</time>
      </trkpt>
      <trkpt lat="48.394" lon="-4.40591">
        <ele>31.2</ele>
        <time>2020-06-08T16:38:32Z</time>
      </trkpt>
      <trkpt lat="48.39401" lon="-4.40595">
        <ele>31.3</ele>
        <time>2020-06-08T16:38:33Z</time>
      </trkpt>
      <trkpt lat="48.39403" lon="-4.406">
        <ele>31.5</ele>
        <time>2020-06-08T16:38:34Z</time>
      </trkpt>
      <trkpt lat="48.39404" lon="-4.40602">
        <ele>31.5</ele>
        <time>2020-06-08T16:38:35Z</time>
      </trkpt>
      <trkpt lat="48.39406" lon="-4.40606">
        <ele>31.7</ele>
        <time>2020-06-08T16:38:36Z</time>
      </trkpt>
      <trkpt lat="48.39407" lon="-4.40611">
        <ele>31.8</ele>
        <time>2020-06-08T16:38:37Z</time>
      </trkpt>
      <trkpt lat="48.3941" lon="-4.40615">
        <ele>32</ele>
        <time>2020-06-08T16:38:38Z</time>
      </trkpt>
      <trkpt lat="48.39411" lon="-4.40617">
        <ele>32.1</ele>
        <time>2020-06-08T16:38:39Z</time>
      </trkpt>
      <trkpt lat="48.39414" lon="-4.40621">
        <ele>32.2</ele>
        <time>2020-06-08T16:38:40Z</time>
      </trkpt>
      <trkpt lat="48.39415" lon="-4.40623">
        <ele>32.3</ele>
        <time>2020-06-08T16:38:41Z</time>
      </trkpt>
      <trkpt lat="48.39417" lon="-4.40626">
        <ele>32.4</ele>
        <time>2020-06-08T16:38:42Z</time>
      </trkpt>
      <trkpt lat="48.39418" lon="-4.4063">
        <ele>32.5</ele>
        <time>2020-06-08T16:38:43Z</time>
      </trkpt>
      <trkpt lat="48.3942" lon="-4.40634">
        <ele>32.6</ele>
        <time>2020-06-08T16:38:44Z</time>
      </trkpt>
      <trkpt lat="48.39421" lon="-4.40639">
        <ele>32.8</ele>
        <time>2020-06-08T16:38:45Z</time>
      </trkpt>
      <trkpt lat="48.39421" lon="-4.40642">
        <ele>32.8</ele>
        <time>2020-06-08T16:38:46Z</time>
      </trkpt>
      <trkpt lat="48.39423" lon="-4.40646">
        <ele>33</ele>
        <time>2020-06-08T16:38:47Z</time>
      </trkpt>
      <trkpt lat="48.39424" lon="-4.40652">
        <ele>33.1</ele>
        <time>2020-06-08T16:38:48Z</time>
      </trkpt>
      <trkpt lat="48.39426" lon="-4.40658">
        <ele>33.2</ele>
        <time>2020-06-08T16:38:49Z</time>
      </trkpt>
      <trkpt lat="48.39427" lon="-4.40661">
        <ele>33.3</ele>
        <time>2020-06-08T16:38:50Z</time>
      </trkpt>
      <trkpt lat="48.39428" lon="-4.40665">
        <ele>33.4</ele>
        <time>2020-06-08T16:38:51Z</time>
      </trkpt>
      <trkpt lat="48.3943" lon="-4.40669">
        <ele>33.5</ele>
        <time>2020-06-08T16:38:52Z</time>
      </trkpt>
      <trkpt lat="48.39432" lon="-4.40673">
        <ele>33.6</ele>
        <time>2020-06-08T16:38:53Z</time>
      </trkpt>
      <trkpt lat="48.39434" lon="-4.40677">
        <ele>33.7</ele>
        <time>2020-06-08T16:38:54Z</time>
      </trkpt>
      <trkpt lat="48.39435" lon="-4.40683">
        <ele>33.8</ele>
        <time>2020-06-08T16:38:55Z</time>
      </trkpt>
      <trkpt lat="48.39437" lon="-4.40688">
        <ele>33.9</ele>
        <time>2020-06-08T16:38:56Z</time>
      </trkpt>
      <trkpt lat="48.39438" lon="-4.40693">
        <ele>34</ele>
        <time>2020-06-08T16:38:57Z</time>
      </trkpt>
      <trkpt lat="48.39438" lon="-4.40695">
        <ele>34</ele>
        <time>2020-06-08T16:38:58Z</time>
      </trkpt>
      <trkpt lat="48.39439" lon="-4.40699">
        <ele>34</ele>
        <time>2020-06-08T16:38:59Z</time>
      </trkpt>
      <trkpt lat="48.39442" lon="-4.40703">
        <ele>34.1</ele>
        <time>2020-06-08T16:39:00Z</time>
      </trkpt>
      <trkpt lat="48.39443" lon="-4.40705">
        <ele>34.1</ele>
        <time>2020-06-08T16:39:01Z</time>
      </trkpt>
      <trkpt lat="48.39447" lon="-4.40709">
        <ele>34.1</ele>
        <time>2020-06-08T16:39:02Z</time>
      </trkpt>
      <trkpt lat="48.39449" lon="-4.40712">
        <ele>34.1</ele>
        <time>2020-06-08T16:39:03Z</time>
      </trkpt>
      <trkpt lat="48.39452" lon="-4.40715">
        <ele>34.2</ele>
        <time>2020-06-08T16:39:04Z</time>
      </trkpt>
      <trkpt lat="48.39453" lon="-4.40717">
        <ele>34.2</ele>
        <time>2020-06-08T16:39:05Z</time>
      </trkpt>
      <trkpt lat="48.39454" lon="-4.40718">
        <ele>34.2</ele>
        <time>2020-06-08T16:39:06Z</time>
      </trkpt>
      <trkpt lat="48.39454" lon="-4.40719">
        <ele>34.2</ele>
        <time>2020-06-08T16:39:07Z</time>
      </trkpt>
      <trkpt lat="48.39453" lon="-4.40717">
        <ele>34.2</ele>
        <time>2020-06-08T16:39:08Z</time>
      </trkpt>
      <trkpt lat="48.39453" lon="-4.40719">
        <ele>34.2</ele>
        <time>2020-06-08T16:39:09Z</time>
      </trkpt>
      <trkpt lat="48.39453" lon="-4.40719">
        <ele>34.2</ele>
        <time>2020-06-08T16:39:10Z</time>
      </trkpt>
      <trkpt lat="48.39453" lon="-4.40719">
        <ele>34.2</ele>
        <time>2020-06-08T16:39:11Z</time>
      </trkpt>
      <trkpt lat="48.39453" lon="-4.40718">
        <ele>34.2</ele>
        <time>2020-06-08T16:39:12Z</time>
      </trkpt>
      <trkpt lat="48.39452" lon="-4.40718">
        <ele>34.2</ele>
        <time>2020-06-08T16:39:13Z</time>
      </trkpt>
      <trkpt lat="48.39452" lon="-4.40718">
        <ele>34.2</ele>
        <time>2020-06-08T16:39:14Z</time>
      </trkpt>
      <trkpt lat="48.39452" lon="-4.40718">
        <ele>34.2</ele>
        <time>2020-06-08T16:39:15Z</time>
      </trkpt>
      <trkpt lat="48.39452" lon="-4.40718">
        <ele>34.2</ele>
        <time>2020-06-08T16:39:16Z</time>
      </trkpt>
      <trkpt lat="48.39452" lon="-4.40718">
        <ele>34.2</ele>
        <time>2020-06-08T16:39:17Z</time>
      </trkpt>
      <trkpt lat="48.39451" lon="-4.40722">
        <ele>34.3</ele>
        <time>2020-06-08T16:39:56Z</time>
      </trkpt>
      <trkpt lat="48.39451" lon="-4.40725">
        <ele>34.3</ele>
        <time>2020-06-08T16:39:57Z</time>
      </trkpt>
      <trkpt lat="48.39452" lon="-4.40729">
        <ele>34.3</ele>
        <time>2020-06-08T16:39:58Z</time>
      </trkpt>
      <trkpt lat="48.39452" lon="-4.40731">
        <ele>34.3</ele>
        <time>2020-06-08T16:39:59Z</time>
      </trkpt>
      <trkpt lat="48.39453" lon="-4.40736">
        <ele>34.3</ele>
        <time>2020-06-08T16:40:00Z</time>
      </trkpt>
      <trkpt lat="48.39454" lon="-4.40741">
        <ele>34.3</ele>
        <time>2020-06-08T16:40:01Z</time>
      </trkpt>
      <trkpt lat="48.39456" lon="-4.40747">
        <ele>34.3</ele>
        <time>2020-06-08T16:40:02Z</time>
      </trkpt>
      <trkpt lat="48.39458" lon="-4.40753">
        <ele>34.4</ele>
        <time>2020-06-08T16:40:03Z</time>
      </trkpt>
      <trkpt lat="48.3946" lon="-4.4076">
        <ele>34.3</ele>
        <time>2020-06-08T16:40:04Z</time>
      </trkpt>
      <trkpt lat="48.39462" lon="-4.40766">
        <ele>34.3</ele>
        <time>2020-06-08T16:40:05Z</time>
      </trkpt>
      <trkpt lat="48.39463" lon="-4.40774">
        <ele>34.3</ele>
        <time>2020-06-08T16:40:06Z</time>
      </trkpt>
      <trkpt lat="48.39465" lon="-4.40781">
        <ele>34.3</ele>
        <time>2020-06-08T16:40:07Z</time>
      </trkpt>
      <trkpt lat="48.39467" lon="-4.40787">
        <ele>34.3</ele>
        <time>2020-06-08T16:40:08Z</time>
      </trkpt>
      <trkpt lat="48.39469" lon="-4.40793">
        <ele>34.3</ele>
        <time>2020-06-08T16:40:09Z</time>
      </trkpt>
      <trkpt lat="48.39471" lon="-4.40799">
        <ele>34.3</ele>
        <time>2020-06-08T16:40:10Z</time>
      </trkpt>
      <trkpt lat="48.39473" lon="-4.40806">
        <ele>34.4</ele>
        <time>2020-06-08T16:40:11Z</time>
      </trkpt>
      <trkpt lat="48.39475" lon="-4.40813">
        <ele>34.3</ele>
        <time>2020-06-08T16:40:12Z</time>
      </trkpt>
      <trkpt lat="48.39477" lon="-4.40819">
        <ele>34.3</ele>
        <time>2020-06-08T16:40:13Z</time>
      </trkpt>
      <trkpt lat="48.3948" lon="-4.40825">
        <ele>34.3</ele>
        <time>2020-06-08T16:40:14Z</time>
      </trkpt>
      <trkpt lat="48.39483" lon="-4.40832">
        <ele>34.3</ele>
        <time>2020-06-08T16:40:15Z</time>
      </trkpt>
      <trkpt lat="48.39486" lon="-4.40837">
        <ele>34.3</ele>
        <time>2020-06-08T16:40:16Z</time>
      </trkpt>
      <trkpt lat="48.3949" lon="-4.40843">
        <ele>34.3</ele>
        <time>2020-06-08T16:40:17Z</time>
      </trkpt>
      <trkpt lat="48.39495" lon="-4.40847">
        <ele>34.3</ele>
        <time>2020-06-08T16:40:18Z</time>
      </trkpt>
      <trkpt lat="48.395" lon="-4.40849">
        <ele>34.1</ele>
        <time>2020-06-08T16:40:19Z</time>
      </trkpt>
      <trkpt lat="48.39505" lon="-4.40854">
        <ele>34</ele>
        <time>2020-06-08T16:40:20Z</time>
      </trkpt>
      <trkpt lat="48.39507" lon="-4.40861">
        <ele>34</ele>
        <time>2020-06-08T16:40:21Z</time>
      </trkpt>
      <trkpt lat="48.39508" lon="-4.40866">
        <ele>34</ele>
        <time>2020-06-08T16:40:22Z</time>
      </trkpt>
      <trkpt lat="48.39507" lon="-4.40873">
        <ele>34.1</ele>
        <time>2020-06-08T16:40:23Z</time>
      </trkpt>
      <trkpt lat="48.39505" lon="-4.40879">
        <ele>34.1</ele>
        <time>2020-06-08T16:40:24Z</time>
      </trkpt>
      <trkpt lat="48.39501" lon="-4.4088">
        <ele>34.1</ele>
        <time>2020-06-08T16:40:25Z</time>
      </trkpt>
      <trkpt lat="48.39497" lon="-4.40882">
        <ele>34.2</ele>
        <time>2020-06-08T16:40:26Z</time>
      </trkpt>
      <trkpt lat="48.39495" lon="-4.40886">
        <ele>34.1</ele>
        <time>2020-06-08T16:40:27Z</time>
      </trkpt>
      <trkpt lat="48.39495" lon="-4.40894">
        <ele>34.1</ele>
        <time>2020-06-08T16:40:28Z</time>
      </trkpt>
      <trkpt lat="48.39495" lon="-4.40901">
        <ele>34</ele>
        <time>2020-06-08T16:40:29Z</time>
      </trkpt>
      <trkpt lat="48.39496" lon="-4.40907">
        <ele>34</ele>
        <time>2020-06-08T16:40:30Z</time>
      </trkpt>
      <trkpt lat="48.39497" lon="-4.40914">
        <ele>34</ele>
        <time>2020-06-08T16:40:31Z</time>
      </trkpt>
      <trkpt lat="48.39498" lon="-4.4092">
        <ele>33.9</ele>
        <time>2020-06-08T16:40:32Z</time>
      </trkpt>
      <trkpt lat="48.39499" lon="-4.40928">
        <ele>33.8</ele>
        <time>2020-06-08T16:40:33Z</time>
      </trkpt>
      <trkpt lat="48.395" lon="-4.40936">
        <ele>33.8</ele>
        <time>2020-06-08T16:40:34Z</time>
      </trkpt>
      <trkpt lat="48.39502" lon="-4.40944">
        <ele>33.7</ele>
        <time>2020-06-08T16:40:35Z</time>
      </trkpt>
      <trkpt lat="48.39503" lon="-4.40952">
        <ele>33.7</ele>
        <time>2020-06-08T16:40:36Z</time>
      </trkpt>
      <trkpt lat="48.39504" lon="-4.40959">
        <ele>33.6</ele>
        <time>2020-06-08T16:40:37Z</time>
      </trkpt>
      <trkpt lat="48.39505" lon="-4.40965">
        <ele>33.6</ele>
        <time>2020-06-08T16:40:38Z</time>
      </trkpt>
      <trkpt lat="48.39508" lon="-4.40973">
        <ele>33.5</ele>
        <time>2020-06-08T16:40:39Z</time>
      </trkpt>
      <trkpt lat="48.39509" lon="-4.40982">
        <ele>33.4</ele>
        <time>2020-06-08T16:40:40Z</time>
      </trkpt>
      <trkpt lat="48.39511" lon="-4.4099">
        <ele>33.3</ele>
        <time>2020-06-08T16:40:41Z</time>
      </trkpt>
      <trkpt lat="48.39512" lon="-4.40996">
        <ele>33.2</ele>
        <time>2020-06-08T16:40:42Z</time>
      </trkpt>
      <trkpt lat="48.39514" lon="-4.41003">
        <ele>33.1</ele>
        <time>2020-06-08T16:40:43Z</time>
      </trkpt>
      <trkpt lat="48.39515" lon="-4.41009">
        <ele>33</ele>
        <time>2020-06-08T16:40:44Z</time>
      </trkpt>
      <trkpt lat="48.39516" lon="-4.41016">
        <ele>32.9</ele>
        <time>2020-06-08T16:40:45Z</time>
      </trkpt>
      <trkpt lat="48.39517" lon="-4.41023">
        <ele>32.8</ele>
        <time>2020-06-08T16:40:46Z</time>
      </trkpt>
      <trkpt lat="48.39518" lon="-4.41029">
        <ele>32.7</ele>
        <time>2020-06-08T16:40:47Z</time>
      </trkpt>
      <trkpt lat="48.39518" lon="-4.41033">
        <ele>32.7</ele>
        <time>2020-06-08T16:40:48Z</time>
      </trkpt>
      <trkpt lat="48.39518" lon="-4.41037">
        <ele>32.6</ele>
        <time>2020-06-08T16:40:49Z</time>
      </trkpt>
      <trkpt lat="48.3952" lon="-4.41044">
        <ele>32.6</ele>
        <time>2020-06-08T16:40:50Z</time>
      </trkpt>
      <trkpt lat="48.39521" lon="-4.41051">
        <ele>32.5</ele>
        <time>2020-06-08T16:40:51Z</time>
      </trkpt>
      <trkpt lat="48.39522" lon="-4.41058">
        <ele>32.4</ele>
        <time>2020-06-08T16:40:52Z</time>
      </trkpt>
      <trkpt lat="48.39523" lon="-4.41064">
        <ele>32.3</ele>
        <time>2020-06-08T16:40:53Z</time>
      </trkpt>
      <trkpt lat="48.39524" lon="-4.41071">
        <ele>32.2</ele>
        <time>2020-06-08T16:40:54Z</time>
      </trkpt>
      <trkpt lat="48.39525" lon="-4.41078">
        <ele>32.1</ele>
        <time>2020-06-08T16:40:55Z</time>
      </trkpt>
      <trkpt lat="48.39526" lon="-4.41086">
        <ele>32</ele>
        <time>2020-06-08T16:40:56Z</time>
      </trkpt>
      <trkpt lat="48.39528" lon="-4.41093">
        <ele>31.9</ele>
        <time>2020-06-08T16:40:57Z</time>
      </trkpt>
      <trkpt lat="48.39529" lon="-4.41101">
        <ele>31.8</ele>
        <time>2020-06-08T16:40:58Z</time>
      </trkpt>
      <trkpt lat="48.39529" lon="-4.41109">
        <ele>31.6</ele>
        <time>2020-06-08T16:40:59Z</time>
      </trkpt>
      <trkpt lat="48.3953" lon="-4.41117">
        <ele>31.4</ele>
        <time>2020-06-08T16:41:00Z</time>
      </trkpt>
      <trkpt lat="48.39531" lon="-4.41127">
        <ele>31.2</ele>
        <time>2020-06-08T16:41:01Z</time>
      </trkpt>
      <trkpt lat="48.39531" lon="-4.41134">
        <ele>31.2</ele>
        <time>2020-06-08T16:41:02Z</time>
      </trkpt>
      <trkpt lat="48.39531" lon="-4.41143">
        <ele>31</ele>
        <time>2020-06-08T16:41:03Z</time>
      </trkpt>
      <trkpt lat="48.39531" lon="-4.41152">
        <ele>30.9</ele>
        <time>2020-06-08T16:41:04Z</time>
      </trkpt>
      <trkpt lat="48.39532" lon="-4.4116">
        <ele>30.8</ele>
        <time>2020-06-08T16:41:05Z</time>
      </trkpt>
      <trkpt lat="48.39532" lon="-4.41168">
        <ele>30.6</ele>
        <time>2020-06-08T16:41:06Z</time>
      </trkpt>
      <trkpt lat="48.39532" lon="-4.41177">
        <ele>30.4</ele>
        <time>2020-06-08T16:41:07Z</time>
      </trkpt>
      <trkpt lat="48.39531" lon="-4.41188">
        <ele>30.2</ele>
        <time>2020-06-08T16:41:08Z</time>
      </trkpt>
      <trkpt lat="48.39531" lon="-4.41198">
        <ele>30</ele>
        <time>2020-06-08T16:41:09Z</time>
      </trkpt>
      <trkpt lat="48.39532" lon="-4.41208">
        <ele>29.9</ele>
        <time>2020-06-08T16:41:10Z</time>
      </trkpt>
      <trkpt lat="48.39532" lon="-4.41217">
        <ele>29.7</ele>
        <time>2020-06-08T16:41:11Z</time>
      </trkpt>
      <trkpt lat="48.39531" lon="-4.41227">
        <ele>29.5</ele>
        <time>2020-06-08T16:41:12Z</time>
      </trkpt>
      <trkpt lat="48.39531" lon="-4.41237">
        <ele>29.4</ele>
        <time>2020-06-08T16:41:13Z</time>
      </trkpt>
      <trkpt lat="48.39531" lon="-4.41246">
        <ele>29.2</ele>
        <time>2020-06-08T16:41:14Z</time>
      </trkpt>
      <trkpt lat="48.3953" lon="-4.41256">
        <ele>29</ele>
        <time>2020-06-08T16:41:15Z</time>
      </trkpt>
      <trkpt lat="48.39529" lon="-4.41265">
        <ele>28.8</ele>
        <time>2020-06-08T16:41:16Z</time>
      </trkpt>
      <trkpt lat="48.39529" lon="-4.41274">
        <ele>28.7</ele>
        <time>2020-06-08T16:41:17Z</time>
      </trkpt>
      <trkpt lat="48.39528" lon="-4.41283">
        <ele>28.5</ele>
        <time>2020-06-08T16:41:18Z</time>
      </trkpt>
      <trkpt lat="48.39527" lon="-4.41291">
        <ele>28.3</ele>
        <time>2020-06-08T16:41:19Z</time>
      </trkpt>
      <trkpt lat="48.39526" lon="-4.413">
        <ele>28.2</ele>
        <time>2020-06-08T16:41:20Z</time>
      </trkpt>
      <trkpt lat="48.39525" lon="-4.41309">
        <ele>28</ele>
        <time>2020-06-08T16:41:21Z</time>
      </trkpt>
      <trkpt lat="48.39524" lon="-4.41319">
        <ele>27.8</ele>
        <time>2020-06-08T16:41:22Z</time>
      </trkpt>
      <trkpt lat="48.39523" lon="-4.4133">
        <ele>27.5</ele>
        <time>2020-06-08T16:41:23Z</time>
      </trkpt>
      <trkpt lat="48.39523" lon="-4.41341">
        <ele>27.3</ele>
        <time>2020-06-08T16:41:24Z</time>
      </trkpt>
      <trkpt lat="48.39522" lon="-4.41351">
        <ele>27.1</ele>
        <time>2020-06-08T16:41:25Z</time>
      </trkpt>
      <trkpt lat="48.39521" lon="-4.41361">
        <ele>26.9</ele>
        <time>2020-06-08T16:41:26Z</time>
      </trkpt>
      <trkpt lat="48.39521" lon="-4.41371">
        <ele>26.6</ele>
        <time>2020-06-08T16:41:27Z</time>
      </trkpt>
      <trkpt lat="48.39521" lon="-4.41381">
        <ele>26.4</ele>
        <time>2020-06-08T16:41:28Z</time>
      </trkpt>
      <trkpt lat="48.39521" lon="-4.4139">
        <ele>26.2</ele>
        <time>2020-06-08T16:41:29Z</time>
      </trkpt>
      <trkpt lat="48.39521" lon="-4.414">
        <ele>25.9</ele>
        <time>2020-06-08T16:41:30Z</time>
      </trkpt>
      <trkpt lat="48.39521" lon="-4.4141">
        <ele>25.7</ele>
        <time>2020-06-08T16:41:31Z</time>
      </trkpt>
      <trkpt lat="48.39522" lon="-4.41421">
        <ele>25.4</ele>
        <time>2020-06-08T16:41:32Z</time>
      </trkpt>
      <trkpt lat="48.39525" lon="-4.41429">
        <ele>25.1</ele>
        <time>2020-06-08T16:41:33Z</time>
      </trkpt>
      <trkpt lat="48.39527" lon="-4.41438">
        <ele>24.9</ele>
        <time>2020-06-08T16:41:34Z</time>
      </trkpt>
      <trkpt lat="48.39529" lon="-4.41445">
        <ele>24.6</ele>
        <time>2020-06-08T16:41:35Z</time>
      </trkpt>
      <trkpt lat="48.39531" lon="-4.41453">
        <ele>24.4</ele>
        <time>2020-06-08T16:41:36Z</time>
      </trkpt>
      <trkpt lat="48.39532" lon="-4.41461">
        <ele>24.1</ele>
        <time>2020-06-08T16:41:37Z</time>
      </trkpt>
      <trkpt lat="48.39534" lon="-4.41471">
        <ele>23.8</ele>
        <time>2020-06-08T16:41:38Z</time>
      </trkpt>
      <trkpt lat="48.39536" lon="-4.41481">
        <ele>23.4</ele>
        <time>2020-06-08T16:41:39Z</time>
      </trkpt>
      <trkpt lat="48.39538" lon="-4.41493">
        <ele>23</ele>
        <time>2020-06-08T16:41:40Z</time>
      </trkpt>
      <trkpt lat="48.3954" lon="-4.41505">
        <ele>22.5</ele>
        <time>2020-06-08T16:41:41Z</time>
      </trkpt>
      <trkpt lat="48.39542" lon="-4.41517">
        <ele>22.1</ele>
        <time>2020-06-08T16:41:42Z</time>
      </trkpt>
      <trkpt lat="48.39543" lon="-4.4153">
        <ele>21.6</ele>
        <time>2020-06-08T16:41:43Z</time>
      </trkpt>
      <trkpt lat="48.39544" lon="-4.41542">
        <ele>21.2</ele>
        <time>2020-06-08T16:41:44Z</time>
      </trkpt>
      <trkpt lat="48.39546" lon="-4.41553">
        <ele>20.8</ele>
        <time>2020-06-08T16:41:45Z</time>
      </trkpt>
      <trkpt lat="48.39547" lon="-4.41562">
        <ele>20.5</ele>
        <time>2020-06-08T16:41:46Z</time>
      </trkpt>
      <trkpt lat="48.39548" lon="-4.4157">
        <ele>20.3</ele>
        <time>2020-06-08T16:41:47Z</time>
      </trkpt>
      <trkpt lat="48.39549" lon="-4.41577">
        <ele>20.1</ele>
        <time>2020-06-08T16:41:48Z</time>
      </trkpt>
      <trkpt lat="48.39551" lon="-4.41583">
        <ele>19.9</ele>
        <time>2020-06-08T16:41:49Z</time>
      </trkpt>
      <trkpt lat="48.39552" lon="-4.41589">
        <ele>19.7</ele>
        <time>2020-06-08T16:41:50Z</time>
      </trkpt>
      <trkpt lat="48.39554" lon="-4.41594">
        <ele>19.4</ele>
        <time>2020-06-08T16:41:51Z</time>
      </trkpt>
      <trkpt lat="48.39554" lon="-4.41602">
        <ele>19.1</ele>
        <time>2020-06-08T16:41:52Z</time>
      </trkpt>
      <trkpt lat="48.39552" lon="-4.4161">
        <ele>18.3</ele>
        <time>2020-06-08T16:41:53Z</time>
      </trkpt>
      <trkpt lat="48.39549" lon="-4.41618">
        <ele>17.8</ele>
        <time>2020-06-08T16:41:54Z</time>
      </trkpt>
      <trkpt lat="48.39548" lon="-4.41627">
        <ele>17.3</ele>
        <time>2020-06-08T16:41:55Z</time>
      </trkpt>
      <trkpt lat="48.39549" lon="-4.41636">
        <ele>16.7</ele>
        <time>2020-06-08T16:41:56Z</time>
      </trkpt>
      <trkpt lat="48.39551" lon="-4.41646">
        <ele>16.2</ele>
        <time>2020-06-08T16:41:57Z</time>
      </trkpt>
      <trkpt lat="48.39552" lon="-4.41656">
        <ele>15.6</ele>
        <time>2020-06-08T16:41:58Z</time>
      </trkpt>
      <trkpt lat="48.39553" lon="-4.41666">
        <ele>15.1</ele>
        <time>2020-06-08T16:41:59Z</time>
      </trkpt>
      <trkpt lat="48.39554" lon="-4.41677">
        <ele>14.5</ele>
        <time>2020-06-08T16:42:00Z</time>
      </trkpt>
      <trkpt lat="48.39555" lon="-4.41689">
        <ele>13.9</ele>
        <time>2020-06-08T16:42:01Z</time>
      </trkpt>
      <trkpt lat="48.39555" lon="-4.41701">
        <ele>13.4</ele>
        <time>2020-06-08T16:42:02Z</time>
      </trkpt>
      <trkpt lat="48.39557" lon="-4.41713">
        <ele>12.8</ele>
        <time>2020-06-08T16:42:03Z</time>
      </trkpt>
      <trkpt lat="48.39557" lon="-4.41726">
        <ele>12.2</ele>
        <time>2020-06-08T16:42:04Z</time>
      </trkpt>
      <trkpt lat="48.3956" lon="-4.41739">
        <ele>11.7</ele>
        <time>2020-06-08T16:42:05Z</time>
      </trkpt>
      <trkpt lat="48.39562" lon="-4.41752">
        <ele>11.1</ele>
        <time>2020-06-08T16:42:06Z</time>
      </trkpt>
      <trkpt lat="48.39564" lon="-4.41766">
        <ele>10.5</ele>
        <time>2020-06-08T16:42:07Z</time>
      </trkpt>
      <trkpt lat="48.39566" lon="-4.4178">
        <ele>9.9</ele>
        <time>2020-06-08T16:42:08Z</time>
      </trkpt>
      <trkpt lat="48.39569" lon="-4.41794">
        <ele>9.3</ele>
        <time>2020-06-08T16:42:09Z</time>
      </trkpt>
      <trkpt lat="48.39572" lon="-4.41808">
        <ele>8.6</ele>
        <time>2020-06-08T16:42:10Z</time>
      </trkpt>
      <trkpt lat="48.39575" lon="-4.41821">
        <ele>8.1</ele>
        <time>2020-06-08T16:42:11Z</time>
      </trkpt>
      <trkpt lat="48.39579" lon="-4.41833">
        <ele>7.7</ele>
        <time>2020-06-08T16:42:12Z</time>
      </trkpt>
      <trkpt lat="48.39583" lon="-4.41843">
        <ele>7.3</ele>
        <time>2020-06-08T16:42:13Z</time>
      </trkpt>
      <trkpt lat="48.39588" lon="-4.41854">
        <ele>7</ele>
        <time>2020-06-08T16:42:14Z</time>
      </trkpt>
      <trkpt lat="48.39592" lon="-4.41866">
        <ele>6.6</ele>
        <time>2020-06-08T16:42:15Z</time>
      </trkpt>
      <trkpt lat="48.39596" lon="-4.41877">
        <ele>6.2</ele>
        <time>2020-06-08T16:42:16Z</time>
      </trkpt>
      <trkpt lat="48.39601" lon="-4.41888">
        <ele>6.1</ele>
        <time>2020-06-08T16:42:17Z</time>
      </trkpt>
      <trkpt lat="48.39605" lon="-4.41899">
        <ele>6.1</ele>
        <time>2020-06-08T16:42:18Z</time>
      </trkpt>
      <trkpt lat="48.39609" lon="-4.41909">
        <ele>6</ele>
        <time>2020-06-08T16:42:19Z</time>
      </trkpt>
      <trkpt lat="48.39614" lon="-4.41919">
        <ele>6</ele>
        <time>2020-06-08T16:42:20Z</time>
      </trkpt>
      <trkpt lat="48.39618" lon="-4.41929">
        <ele>5.9</ele>
        <time>2020-06-08T16:42:21Z</time>
      </trkpt>
      <trkpt lat="48.39621" lon="-4.41938">
        <ele>5.9</ele>
        <time>2020-06-08T16:42:22Z</time>
      </trkpt>
      <trkpt lat="48.39624" lon="-4.41947">
        <ele>5.9</ele>
        <time>2020-06-08T16:42:23Z</time>
      </trkpt>
      <trkpt lat="48.39626" lon="-4.41955">
        <ele>5.9</ele>
        <time>2020-06-08T16:42:24Z</time>
      </trkpt>
      <trkpt lat="48.39631" lon="-4.41959">
        <ele>5.9</ele>
        <time>2020-06-08T16:42:25Z</time>
      </trkpt>
      <trkpt lat="48.39634" lon="-4.41965">
        <ele>5.8</ele>
        <time>2020-06-08T16:42:26Z</time>
      </trkpt>
      <trkpt lat="48.39637" lon="-4.4197">
        <ele>5.8</ele>
        <time>2020-06-08T16:42:27Z</time>
      </trkpt>
      <trkpt lat="48.39639" lon="-4.41974">
        <ele>5.8</ele>
        <time>2020-06-08T16:42:28Z</time>
      </trkpt>
      <trkpt lat="48.3964" lon="-4.41979">
        <ele>5.9</ele>
        <time>2020-06-08T16:42:29Z</time>
      </trkpt>
      <trkpt lat="48.39641" lon="-4.4198">
        <ele>5.9</ele>
        <time>2020-06-08T16:42:30Z</time>
      </trkpt>
      <trkpt lat="48.39643" lon="-4.41982">
        <ele>5.9</ele>
        <time>2020-06-08T16:42:31Z</time>
      </trkpt>
      <trkpt lat="48.39644" lon="-4.41982">
        <ele>5.9</ele>
        <time>2020-06-08T16:42:32Z</time>
      </trkpt>
      <trkpt lat="48.39648" lon="-4.41984">
        <ele>5.9</ele>
        <time>2020-06-08T16:42:33Z</time>
      </trkpt>
      <trkpt lat="48.39649" lon="-4.41985">
        <ele>5.9</ele>
        <time>2020-06-08T16:42:34Z</time>
      </trkpt>
      <trkpt lat="48.39651" lon="-4.41989">
        <ele>5.9</ele>
        <time>2020-06-08T16:42:35Z</time>
      </trkpt>
      <trkpt lat="48.39652" lon="-4.41993">
        <ele>5.9</ele>
        <time>2020-06-08T16:42:36Z</time>
      </trkpt>
      <trkpt lat="48.39654" lon="-4.41999">
        <ele>6</ele>
        <time>2020-06-08T16:42:37Z</time>
      </trkpt>
      <trkpt lat="48.39654" lon="-4.42005">
        <ele>6</ele>
        <time>2020-06-08T16:42:38Z</time>
      </trkpt>
      <trkpt lat="48.39656" lon="-4.42012">
        <ele>6</ele>
        <time>2020-06-08T16:42:39Z</time>
      </trkpt>
      <trkpt lat="48.39657" lon="-4.4202">
        <ele>6</ele>
        <time>2020-06-08T16:42:40Z</time>
      </trkpt>
      <trkpt lat="48.39659" lon="-4.42028">
        <ele>6</ele>
        <time>2020-06-08T16:42:41Z</time>
      </trkpt>
      <trkpt lat="48.39661" lon="-4.42036">
        <ele>5.8</ele>
        <time>2020-06-08T16:42:42Z</time>
      </trkpt>
      <trkpt lat="48.39665" lon="-4.42043">
        <ele>5.7</ele>
        <time>2020-06-08T16:42:43Z</time>
      </trkpt>
      <trkpt lat="48.39667" lon="-4.4205">
        <ele>5.5</ele>
        <time>2020-06-08T16:42:44Z</time>
      </trkpt>
      <trkpt lat="48.3967" lon="-4.42057">
        <ele>5.3</ele>
        <time>2020-06-08T16:42:45Z</time>
      </trkpt>
      <trkpt lat="48.39672" lon="-4.42064">
        <ele>5.1</ele>
        <time>2020-06-08T16:42:46Z</time>
      </trkpt>
      <trkpt lat="48.39674" lon="-4.42072">
        <ele>4.9</ele>
        <time>2020-06-08T16:42:47Z</time>
      </trkpt>
      <trkpt lat="48.39675" lon="-4.4208">
        <ele>4.7</ele>
        <time>2020-06-08T16:42:48Z</time>
      </trkpt>
      <trkpt lat="48.39677" lon="-4.42088">
        <ele>4.8</ele>
        <time>2020-06-08T16:42:49Z</time>
      </trkpt>
      <trkpt lat="48.39678" lon="-4.42096">
        <ele>4.9</ele>
        <time>2020-06-08T16:42:50Z</time>
      </trkpt>
      <trkpt lat="48.3968" lon="-4.42103">
        <ele>4.9</ele>
        <time>2020-06-08T16:42:51Z</time>
      </trkpt>
      <trkpt lat="48.39682" lon="-4.4211">
        <ele>5</ele>
        <time>2020-06-08T16:42:52Z</time>
      </trkpt>
      <trkpt lat="48.39684" lon="-4.42117">
        <ele>5</ele>
        <time>2020-06-08T16:42:53Z</time>
      </trkpt>
      <trkpt lat="48.39686" lon="-4.42125">
        <ele>5</ele>
        <time>2020-06-08T16:42:54Z</time>
      </trkpt>
      <trkpt lat="48.39689" lon="-4.42132">
        <ele>5</ele>
        <time>2020-06-08T16:42:55Z</time>
      </trkpt>
      <trkpt lat="48.3969" lon="-4.4214">
        <ele>5</ele>
        <time>2020-06-08T16:42:56Z</time>
      </trkpt>
      <trkpt lat="48.39692" lon="-4.42147">
        <ele>5</ele>
        <time>2020-06-08T16:42:57Z</time>
      </trkpt>
      <trkpt lat="48.39694" lon="-4.42155">
        <ele>5</ele>
        <time>2020-06-08T16:42:58Z</time>
      </trkpt>
      <trkpt lat="48.39697" lon="-4.42162">
        <ele>5</ele>
        <time>2020-06-08T16:42:59Z</time>
      </trkpt>
      <trkpt lat="48.397" lon="-4.4217">
        <ele>5</ele>
        <time>2020-06-08T16:43:00Z</time>
      </trkpt>
      <trkpt lat="48.39702" lon="-4.42177">
        <ele>5</ele>
        <time>2020-06-08T16:43:01Z</time>
      </trkpt>
      <trkpt lat="48.39706" lon="-4.42184">
        <ele>5</ele>
        <time>2020-06-08T16:43:02Z</time>
      </trkpt>
      <trkpt lat="48.39708" lon="-4.42192">
        <ele>5</ele>
        <time>2020-06-08T16:43:03Z</time>
      </trkpt>
      <trkpt lat="48.3971" lon="-4.422">
        <ele>5.1</ele>
        <time>2020-06-08T16:43:04Z</time>
      </trkpt>
      <trkpt lat="48.39712" lon="-4.42207">
        <ele>5</ele>
        <time>2020-06-08T16:43:05Z</time>
      </trkpt>
      <trkpt lat="48.39714" lon="-4.42215">
        <ele>5</ele>
        <time>2020-06-08T16:43:06Z</time>
      </trkpt>
      <trkpt lat="48.39716" lon="-4.42222">
        <ele>5</ele>
        <time>2020-06-08T16:43:07Z</time>
      </trkpt>
      <trkpt lat="48.39717" lon="-4.4223">
        <ele>4.9</ele>
        <time>2020-06-08T16:43:08Z</time>
      </trkpt>
      <trkpt lat="48.39717" lon="-4.42238">
        <ele>4.9</ele>
        <time>2020-06-08T16:43:09Z</time>
      </trkpt>
      <trkpt lat="48.39718" lon="-4.42245">
        <ele>4.9</ele>
        <time>2020-06-08T16:43:10Z</time>
      </trkpt>
      <trkpt lat="48.39719" lon="-4.42253">
        <ele>4.9</ele>
        <time>2020-06-08T16:43:11Z</time>
      </trkpt>
      <trkpt lat="48.39721" lon="-4.4226">
        <ele>4.9</ele>
        <time>2020-06-08T16:43:12Z</time>
      </trkpt>
      <trkpt lat="48.39723" lon="-4.42267">
        <ele>4.9</ele>
        <time>2020-06-08T16:43:13Z</time>
      </trkpt>
      <trkpt lat="48.39725" lon="-4.42274">
        <ele>5</ele>
        <time>2020-06-08T16:43:14Z</time>
      </trkpt>
      <trkpt lat="48.39728" lon="-4.42279">
        <ele>5.1</ele>
        <time>2020-06-08T16:43:15Z</time>
      </trkpt>
      <trkpt lat="48.39731" lon="-4.42285">
        <ele>5.2</ele>
        <time>2020-06-08T16:43:16Z</time>
      </trkpt>
      <trkpt lat="48.39733" lon="-4.42291">
        <ele>5.3</ele>
        <time>2020-06-08T16:43:17Z</time>
      </trkpt>
      <trkpt lat="48.39734" lon="-4.42297">
        <ele>5.4</ele>
        <time>2020-06-08T16:43:18Z</time>
      </trkpt>
      <trkpt lat="48.39736" lon="-4.42303">
        <ele>5.6</ele>
        <time>2020-06-08T16:43:19Z</time>
      </trkpt>
      <trkpt lat="48.39737" lon="-4.42309">
        <ele>5.7</ele>
        <time>2020-06-08T16:43:20Z</time>
      </trkpt>
      <trkpt lat="48.39739" lon="-4.42316">
        <ele>5.9</ele>
        <time>2020-06-08T16:43:21Z</time>
      </trkpt>
      <trkpt lat="48.3974" lon="-4.42323">
        <ele>6.1</ele>
        <time>2020-06-08T16:43:22Z</time>
      </trkpt>
      <trkpt lat="48.39742" lon="-4.4233">
        <ele>6.2</ele>
        <time>2020-06-08T16:43:23Z</time>
      </trkpt>
      <trkpt lat="48.39743" lon="-4.42337">
        <ele>6.3</ele>
        <time>2020-06-08T16:43:24Z</time>
      </trkpt>
      <trkpt lat="48.39745" lon="-4.42344">
        <ele>6.5</ele>
        <time>2020-06-08T16:43:25Z</time>
      </trkpt>
      <trkpt lat="48.39747" lon="-4.4235">
        <ele>6.6</ele>
        <time>2020-06-08T16:43:26Z</time>
      </trkpt>
      <trkpt lat="48.39748" lon="-4.42356">
        <ele>6.8</ele>
        <time>2020-06-08T16:43:27Z</time>
      </trkpt>
      <trkpt lat="48.3975" lon="-4.42361">
        <ele>7</ele>
        <time>2020-06-08T16:43:28Z</time>
      </trkpt>
      <trkpt lat="48.39751" lon="-4.42367">
        <ele>7.2</ele>
        <time>2020-06-08T16:43:29Z</time>
      </trkpt>
      <trkpt lat="48.39753" lon="-4.42372">
        <ele>7.3</ele>
        <time>2020-06-08T16:43:30Z</time>
      </trkpt>
      <trkpt lat="48.39754" lon="-4.42377">
        <ele>7.5</ele>
        <time>2020-06-08T16:43:31Z</time>
      </trkpt>
      <trkpt lat="48.39755" lon="-4.42382">
        <ele>7.6</ele>
        <time>2020-06-08T16:43:32Z</time>
      </trkpt>
      <trkpt lat="48.39756" lon="-4.42388">
        <ele>7.8</ele>
        <time>2020-06-08T16:43:33Z</time>
      </trkpt>
      <trkpt lat="48.39757" lon="-4.42393">
        <ele>7.9</ele>
        <time>2020-06-08T16:43:34Z</time>
      </trkpt>
      <trkpt lat="48.39758" lon="-4.42398">
        <ele>8.1</ele>
        <time>2020-06-08T16:43:35Z</time>
      </trkpt>
      <trkpt lat="48.39759" lon="-4.42402">
        <ele>8.2</ele>
        <time>2020-06-08T16:43:36Z</time>
      </trkpt>
      <trkpt lat="48.39759" lon="-4.42407">
        <ele>8.4</ele>
        <time>2020-06-08T16:43:37Z</time>
      </trkpt>
      <trkpt lat="48.39759" lon="-4.42408">
        <ele>8.4</ele>
        <time>2020-06-08T16:43:38Z</time>
      </trkpt>
      <trkpt lat="48.3976" lon="-4.42412">
        <ele>8.5</ele>
        <time>2020-06-08T16:43:39Z</time>
      </trkpt>
      <trkpt lat="48.39761" lon="-4.42414">
        <ele>8.6</ele>
        <time>2020-06-08T16:43:40Z</time>
      </trkpt>
      <trkpt lat="48.39761" lon="-4.42419">
        <ele>8.8</ele>
        <time>2020-06-08T16:43:41Z</time>
      </trkpt>
      <trkpt lat="48.39761" lon="-4.42421">
        <ele>8.8</ele>
        <time>2020-06-08T16:43:42Z</time>
      </trkpt>
      <trkpt lat="48.39762" lon="-4.42425">
        <ele>9</ele>
        <time>2020-06-08T16:43:43Z</time>
      </trkpt>
      <trkpt lat="48.39763" lon="-4.42427">
        <ele>9</ele>
        <time>2020-06-08T16:43:44Z</time>
      </trkpt>
      <trkpt lat="48.39764" lon="-4.42431">
        <ele>9.2</ele>
        <time>2020-06-08T16:43:45Z</time>
      </trkpt>
      <trkpt lat="48.39765" lon="-4.42432">
        <ele>9.2</ele>
        <time>2020-06-08T16:43:46Z</time>
      </trkpt>
      <trkpt lat="48.39766" lon="-4.42436">
        <ele>9.4</ele>
        <time>2020-06-08T16:43:47Z</time>
      </trkpt>
      <trkpt lat="48.39766" lon="-4.42438">
        <ele>9.4</ele>
        <time>2020-06-08T16:43:48Z</time>
      </trkpt>
      <trkpt lat="48.39767" lon="-4.42443">
        <ele>9.6</ele>
        <time>2020-06-08T16:43:49Z</time>
      </trkpt>
      <trkpt lat="48.39767" lon="-4.42445">
        <ele>9.7</ele>
        <time>2020-06-08T16:43:50Z</time>
      </trkpt>
      <trkpt lat="48.39769" lon="-4.4245">
        <ele>9.9</ele>
        <time>2020-06-08T16:43:51Z</time>
      </trkpt>
      <trkpt lat="48.39769" lon="-4.42451">
        <ele>9.9</ele>
        <time>2020-06-08T16:43:52Z</time>
      </trkpt>
      <trkpt lat="48.3977" lon="-4.42457">
        <ele>10.1</ele>
        <time>2020-06-08T16:43:53Z</time>
      </trkpt>
      <trkpt lat="48.3977" lon="-4.42458">
        <ele>10.2</ele>
        <time>2020-06-08T16:43:54Z</time>
      </trkpt>
      <trkpt lat="48.39773" lon="-4.42463">
        <ele>10.4</ele>
        <time>2020-06-08T16:43:55Z</time>
      </trkpt>
      <trkpt lat="48.39773" lon="-4.42465">
        <ele>10.5</ele>
        <time>2020-06-08T16:43:56Z</time>
      </trkpt>
      <trkpt lat="48.39775" lon="-4.42469">
        <ele>10.7</ele>
        <time>2020-06-08T16:43:57Z</time>
      </trkpt>
      <trkpt lat="48.39776" lon="-4.42473">
        <ele>10.8</ele>
        <time>2020-06-08T16:43:58Z</time>
      </trkpt>
      <trkpt lat="48.39778" lon="-4.42477">
        <ele>11</ele>
        <time>2020-06-08T16:43:59Z</time>
      </trkpt>
      <trkpt lat="48.39779" lon="-4.42482">
        <ele>11.2</ele>
        <time>2020-06-08T16:44:00Z</time>
      </trkpt>
      <trkpt lat="48.3978" lon="-4.42487">
        <ele>11.4</ele>
        <time>2020-06-08T16:44:01Z</time>
      </trkpt>
      <trkpt lat="48.39781" lon="-4.42492">
        <ele>11.5</ele>
        <time>2020-06-08T16:44:02Z</time>
      </trkpt>
      <trkpt lat="48.39782" lon="-4.42497">
        <ele>11.7</ele>
        <time>2020-06-08T16:44:03Z</time>
      </trkpt>
      <trkpt lat="48.39783" lon="-4.42502">
        <ele>11.9</ele>
        <time>2020-06-08T16:44:04Z</time>
      </trkpt>
      <trkpt lat="48.39784" lon="-4.42508">
        <ele>12</ele>
        <time>2020-06-08T16:44:05Z</time>
      </trkpt>
      <trkpt lat="48.39785" lon="-4.42513">
        <ele>12.2</ele>
        <time>2020-06-08T16:44:06Z</time>
      </trkpt>
      <trkpt lat="48.39786" lon="-4.42518">
        <ele>12.4</ele>
        <time>2020-06-08T16:44:07Z</time>
      </trkpt>
      <trkpt lat="48.39786" lon="-4.42524">
        <ele>12.5</ele>
        <time>2020-06-08T16:44:08Z</time>
      </trkpt>
      <trkpt lat="48.39786" lon="-4.42529">
        <ele>12.7</ele>
        <time>2020-06-08T16:44:09Z</time>
      </trkpt>
      <trkpt lat="48.39787" lon="-4.42534">
        <ele>12.8</ele>
        <time>2020-06-08T16:44:10Z</time>
      </trkpt>
      <trkpt lat="48.39787" lon="-4.42539">
        <ele>13</ele>
        <time>2020-06-08T16:44:11Z</time>
      </trkpt>
      <trkpt lat="48.39787" lon="-4.42544">
        <ele>13.2</ele>
        <time>2020-06-08T16:44:12Z</time>
      </trkpt>
      <trkpt lat="48.39787" lon="-4.42549">
        <ele>13.3</ele>
        <time>2020-06-08T16:44:13Z</time>
      </trkpt>
      <trkpt lat="48.39787" lon="-4.42553">
        <ele>13.4</ele>
        <time>2020-06-08T16:44:14Z</time>
      </trkpt>
      <trkpt lat="48.39787" lon="-4.42557">
        <ele>13.6</ele>
        <time>2020-06-08T16:44:15Z</time>
      </trkpt>
      <trkpt lat="48.39788" lon="-4.42561">
        <ele>13.7</ele>
        <time>2020-06-08T16:44:16Z</time>
      </trkpt>
      <trkpt lat="48.39788" lon="-4.42566">
        <ele>13.8</ele>
        <time>2020-06-08T16:44:17Z</time>
      </trkpt>
      <trkpt lat="48.39788" lon="-4.42571">
        <ele>14</ele>
        <time>2020-06-08T16:44:18Z</time>
      </trkpt>
      <trkpt lat="48.39787" lon="-4.42577">
        <ele>14.1</ele>
        <time>2020-06-08T16:44:19Z</time>
      </trkpt>
      <trkpt lat="48.39787" lon="-4.42582">
        <ele>14.2</ele>
        <time>2020-06-08T16:44:20Z</time>
      </trkpt>
      <trkpt lat="48.39787" lon="-4.42587">
        <ele>14.4</ele>
        <time>2020-06-08T16:44:21Z</time>
      </trkpt>
      <trkpt lat="48.39787" lon="-4.42593">
        <ele>14.5</ele>
        <time>2020-06-08T16:44:22Z</time>
      </trkpt>
      <trkpt lat="48.39787" lon="-4.42598">
        <ele>14.6</ele>
        <time>2020-06-08T16:44:23Z</time>
      </trkpt>
      <trkpt lat="48.39787" lon="-4.42603">
        <ele>14.8</ele>
        <time>2020-06-08T16:44:24Z</time>
      </trkpt>
      <trkpt lat="48.39787" lon="-4.42608">
        <ele>14.9</ele>
        <time>2020-06-08T16:44:25Z</time>
      </trkpt>
      <trkpt lat="48.39788" lon="-4.42613">
        <ele>15</ele>
        <time>2020-06-08T16:44:26Z</time>
      </trkpt>
      <trkpt lat="48.39787" lon="-4.42617">
        <ele>15.1</ele>
        <time>2020-06-08T16:44:27Z</time>
      </trkpt>
      <trkpt lat="48.39787" lon="-4.42622">
        <ele>15.2</ele>
        <time>2020-06-08T16:44:28Z</time>
      </trkpt>
      <trkpt lat="48.39788" lon="-4.42626">
        <ele>15.3</ele>
        <time>2020-06-08T16:44:29Z</time>
      </trkpt>
      <trkpt lat="48.39789" lon="-4.4263">
        <ele>15.4</ele>
        <time>2020-06-08T16:44:30Z</time>
      </trkpt>
      <trkpt lat="48.39789" lon="-4.42634">
        <ele>15.5</ele>
        <time>2020-06-08T16:44:31Z</time>
      </trkpt>
      <trkpt lat="48.39789" lon="-4.42639">
        <ele>15.5</ele>
        <time>2020-06-08T16:44:32Z</time>
      </trkpt>
      <trkpt lat="48.39789" lon="-4.42643">
        <ele>15.6</ele>
        <time>2020-06-08T16:44:33Z</time>
      </trkpt>
      <trkpt lat="48.39791" lon="-4.42648">
        <ele>15.7</ele>
        <time>2020-06-08T16:44:34Z</time>
      </trkpt>
      <trkpt lat="48.39791" lon="-4.42652">
        <ele>15.8</ele>
        <time>2020-06-08T16:44:35Z</time>
      </trkpt>
      <trkpt lat="48.39791" lon="-4.42657">
        <ele>15.8</ele>
        <time>2020-06-08T16:44:36Z</time>
      </trkpt>
      <trkpt lat="48.39791" lon="-4.42662">
        <ele>15.9</ele>
        <time>2020-06-08T16:44:37Z</time>
      </trkpt>
      <trkpt lat="48.39792" lon="-4.42667">
        <ele>16</ele>
        <time>2020-06-08T16:44:38Z</time>
      </trkpt>
      <trkpt lat="48.39791" lon="-4.42672">
        <ele>16.1</ele>
        <time>2020-06-08T16:44:39Z</time>
      </trkpt>
      <trkpt lat="48.3979" lon="-4.42678">
        <ele>16.1</ele>
        <time>2020-06-08T16:44:40Z</time>
      </trkpt>
      <trkpt lat="48.3979" lon="-4.42683">
        <ele>16.2</ele>
        <time>2020-06-08T16:44:41Z</time>
      </trkpt>
      <trkpt lat="48.39789" lon="-4.42688">
        <ele>16.2</ele>
        <time>2020-06-08T16:44:42Z</time>
      </trkpt>
      <trkpt lat="48.39789" lon="-4.42693">
        <ele>16.2</ele>
        <time>2020-06-08T16:44:43Z</time>
      </trkpt>
      <trkpt lat="48.39788" lon="-4.42698">
        <ele>16.3</ele>
        <time>2020-06-08T16:44:44Z</time>
      </trkpt>
      <trkpt lat="48.39788" lon="-4.42703">
        <ele>16.3</ele>
        <time>2020-06-08T16:44:45Z</time>
      </trkpt>
      <trkpt lat="48.39788" lon="-4.42708">
        <ele>16.3</ele>
        <time>2020-06-08T16:44:46Z</time>
      </trkpt>
      <trkpt lat="48.39788" lon="-4.42713">
        <ele>16.4</ele>
        <time>2020-06-08T16:44:47Z</time>
      </trkpt>
      <trkpt lat="48.39787" lon="-4.42718">
        <ele>16.4</ele>
        <time>2020-06-08T16:44:48Z</time>
      </trkpt>
      <trkpt lat="48.39787" lon="-4.42723">
        <ele>16.4</ele>
        <time>2020-06-08T16:44:49Z</time>
      </trkpt>
      <trkpt lat="48.39787" lon="-4.42727">
        <ele>16.4</ele>
        <time>2020-06-08T16:44:50Z</time>
      </trkpt>
      <trkpt lat="48.39787" lon="-4.42731">
        <ele>16.5</ele>
        <time>2020-06-08T16:44:51Z</time>
      </trkpt>
      <trkpt lat="48.39786" lon="-4.42736">
        <ele>16.5</ele>
        <time>2020-06-08T16:44:52Z</time>
      </trkpt>
      <trkpt lat="48.39786" lon="-4.42741">
        <ele>16.5</ele>
        <time>2020-06-08T16:44:53Z</time>
      </trkpt>
      <trkpt lat="48.39786" lon="-4.42747">
        <ele>16.6</ele>
        <time>2020-06-08T16:44:54Z</time>
      </trkpt>
      <trkpt lat="48.39785" lon="-4.42752">
        <ele>16.6</ele>
        <time>2020-06-08T16:44:55Z</time>
      </trkpt>
      <trkpt lat="48.39785" lon="-4.42757">
        <ele>16.7</ele>
        <time>2020-06-08T16:44:56Z</time>
      </trkpt>
      <trkpt lat="48.39785" lon="-4.42762">
        <ele>16.7</ele>
        <time>2020-06-08T16:44:57Z</time>
      </trkpt>
      <trkpt lat="48.39785" lon="-4.42767">
        <ele>16.7</ele>
        <time>2020-06-08T16:44:58Z</time>
      </trkpt>
      <trkpt lat="48.39785" lon="-4.42772">
        <ele>16.8</ele>
        <time>2020-06-08T16:44:59Z</time>
      </trkpt>
      <trkpt lat="48.39785" lon="-4.42776">
        <ele>16.8</ele>
        <time>2020-06-08T16:45:00Z</time>
      </trkpt>
      <trkpt lat="48.39785" lon="-4.42781">
        <ele>16.9</ele>
        <time>2020-06-08T16:45:01Z</time>
      </trkpt>
      <trkpt lat="48.39786" lon="-4.42783">
        <ele>16.9</ele>
        <time>2020-06-08T16:45:02Z</time>
      </trkpt>
      <trkpt lat="48.39785" lon="-4.42789">
        <ele>16.9</ele>
        <time>2020-06-08T16:45:03Z</time>
      </trkpt>
      <trkpt lat="48.39785" lon="-4.42791">
        <ele>16.9</ele>
        <time>2020-06-08T16:45:04Z</time>
      </trkpt>
      <trkpt lat="48.39784" lon="-4.42796">
        <ele>17</ele>
        <time>2020-06-08T16:45:05Z</time>
      </trkpt>
      <trkpt lat="48.39784" lon="-4.42798">
        <ele>17</ele>
        <time>2020-06-08T16:45:06Z</time>
      </trkpt>
      <trkpt lat="48.39784" lon="-4.42803">
        <ele>17</ele>
        <time>2020-06-08T16:45:07Z</time>
      </trkpt>
      <trkpt lat="48.39784" lon="-4.42804">
        <ele>17</ele>
        <time>2020-06-08T16:45:08Z</time>
      </trkpt>
      <trkpt lat="48.39784" lon="-4.4281">
        <ele>17</ele>
        <time>2020-06-08T16:45:09Z</time>
      </trkpt>
      <trkpt lat="48.39784" lon="-4.42812">
        <ele>17</ele>
        <time>2020-06-08T16:45:10Z</time>
      </trkpt>
      <trkpt lat="48.39782" lon="-4.42817">
        <ele>17.1</ele>
        <time>2020-06-08T16:45:11Z</time>
      </trkpt>
      <trkpt lat="48.39782" lon="-4.42819">
        <ele>17.1</ele>
        <time>2020-06-08T16:45:12Z</time>
      </trkpt>
      <trkpt lat="48.3978" lon="-4.42824">
        <ele>17.1</ele>
        <time>2020-06-08T16:45:13Z</time>
      </trkpt>
      <trkpt lat="48.3978" lon="-4.42826">
        <ele>17.1</ele>
        <time>2020-06-08T16:45:14Z</time>
      </trkpt>
      <trkpt lat="48.3978" lon="-4.42832">
        <ele>17.2</ele>
        <time>2020-06-08T16:45:15Z</time>
      </trkpt>
      <trkpt lat="48.3978" lon="-4.42834">
        <ele>17.2</ele>
        <time>2020-06-08T16:45:16Z</time>
      </trkpt>
      <trkpt lat="48.3978" lon="-4.42838">
        <ele>17.2</ele>
        <time>2020-06-08T16:45:17Z</time>
      </trkpt>
      <trkpt lat="48.3978" lon="-4.42842">
        <ele>17.3</ele>
        <time>2020-06-08T16:45:18Z</time>
      </trkpt>
      <trkpt lat="48.39781" lon="-4.42847">
        <ele>17.3</ele>
        <time>2020-06-08T16:45:19Z</time>
      </trkpt>
      <trkpt lat="48.39779" lon="-4.42851">
        <ele>17.3</ele>
        <time>2020-06-08T16:45:20Z</time>
      </trkpt>
      <trkpt lat="48.39778" lon="-4.42855">
        <ele>17.4</ele>
        <time>2020-06-08T16:45:21Z</time>
      </trkpt>
      <trkpt lat="48.39778" lon="-4.4286">
        <ele>17.4</ele>
        <time>2020-06-08T16:45:22Z</time>
      </trkpt>
      <trkpt lat="48.39778" lon="-4.42862">
        <ele>17.4</ele>
        <time>2020-06-08T16:45:23Z</time>
      </trkpt>
      <trkpt lat="48.39778" lon="-4.42867">
        <ele>17.4</ele>
        <time>2020-06-08T16:45:24Z</time>
      </trkpt>
      <trkpt lat="48.39778" lon="-4.42869">
        <ele>17.4</ele>
        <time>2020-06-08T16:45:25Z</time>
      </trkpt>
      <trkpt lat="48.39779" lon="-4.42875">
        <ele>17.4</ele>
        <time>2020-06-08T16:45:26Z</time>
      </trkpt>
      <trkpt lat="48.39779" lon="-4.42877">
        <ele>17.4</ele>
        <time>2020-06-08T16:45:27Z</time>
      </trkpt>
      <trkpt lat="48.39779" lon="-4.42881">
        <ele>17.5</ele>
        <time>2020-06-08T16:45:28Z</time>
      </trkpt>
      <trkpt lat="48.39778" lon="-4.42886">
        <ele>17.5</ele>
        <time>2020-06-08T16:45:29Z</time>
      </trkpt>
      <trkpt lat="48.39777" lon="-4.42891">
        <ele>17.5</ele>
        <time>2020-06-08T16:45:30Z</time>
      </trkpt>
      <trkpt lat="48.39777" lon="-4.42896">
        <ele>17.5</ele>
        <time>2020-06-08T16:45:31Z</time>
      </trkpt>
      <trkpt lat="48.39777" lon="-4.42901">
        <ele>17.5</ele>
        <time>2020-06-08T16:45:32Z</time>
      </trkpt>
      <trkpt lat="48.39777" lon="-4.42906">
        <ele>17.5</ele>
        <time>2020-06-08T16:45:33Z</time>
      </trkpt>
      <trkpt lat="48.39776" lon="-4.42911">
        <ele>17.5</ele>
        <time>2020-06-08T16:45:34Z</time>
      </trkpt>
      <trkpt lat="48.39776" lon="-4.42917">
        <ele>17.5</ele>
        <time>2020-06-08T16:45:35Z</time>
      </trkpt>
      <trkpt lat="48.39776" lon="-4.42922">
        <ele>17.5</ele>
        <time>2020-06-08T16:45:36Z</time>
      </trkpt>
      <trkpt lat="48.39775" lon="-4.42927">
        <ele>17.5</ele>
        <time>2020-06-08T16:45:37Z</time>
      </trkpt>
      <trkpt lat="48.39775" lon="-4.42932">
        <ele>17.5</ele>
        <time>2020-06-08T16:45:38Z</time>
      </trkpt>
      <trkpt lat="48.39774" lon="-4.42937">
        <ele>17.5</ele>
        <time>2020-06-08T16:45:39Z</time>
      </trkpt>
      <trkpt lat="48.39774" lon="-4.42942">
        <ele>17.5</ele>
        <time>2020-06-08T16:45:40Z</time>
      </trkpt>
      <trkpt lat="48.39773" lon="-4.42948">
        <ele>17.5</ele>
        <time>2020-06-08T16:45:41Z</time>
      </trkpt>
      <trkpt lat="48.39773" lon="-4.42954">
        <ele>17.5</ele>
        <time>2020-06-08T16:45:42Z</time>
      </trkpt>
      <trkpt lat="48.39773" lon="-4.42959">
        <ele>17.5</ele>
        <time>2020-06-08T16:45:43Z</time>
      </trkpt>
      <trkpt lat="48.39772" lon="-4.42965">
        <ele>17.4</ele>
        <time>2020-06-08T16:45:44Z</time>
      </trkpt>
      <trkpt lat="48.39772" lon="-4.4297">
        <ele>17.4</ele>
        <time>2020-06-08T16:45:45Z</time>
      </trkpt>
      <trkpt lat="48.39772" lon="-4.42974">
        <ele>17.4</ele>
        <time>2020-06-08T16:45:46Z</time>
      </trkpt>
      <trkpt lat="48.39772" lon="-4.42979">
        <ele>17.3</ele>
        <time>2020-06-08T16:45:47Z</time>
      </trkpt>
      <trkpt lat="48.39771" lon="-4.42985">
        <ele>17.3</ele>
        <time>2020-06-08T16:45:48Z</time>
      </trkpt>
      <trkpt lat="48.39771" lon="-4.4299">
        <ele>17.2</ele>
        <time>2020-06-08T16:45:49Z</time>
      </trkpt>
      <trkpt lat="48.3977" lon="-4.42995">
        <ele>17.2</ele>
        <time>2020-06-08T16:45:50Z</time>
      </trkpt>
      <trkpt lat="48.3977" lon="-4.43">
        <ele>17.1</ele>
        <time>2020-06-08T16:45:51Z</time>
      </trkpt>
      <trkpt lat="48.3977" lon="-4.43005">
        <ele>17</ele>
        <time>2020-06-08T16:45:52Z</time>
      </trkpt>
      <trkpt lat="48.39769" lon="-4.4301">
        <ele>17</ele>
        <time>2020-06-08T16:45:53Z</time>
      </trkpt>
      <trkpt lat="48.39769" lon="-4.43015">
        <ele>16.9</ele>
        <time>2020-06-08T16:45:54Z</time>
      </trkpt>
      <trkpt lat="48.39769" lon="-4.43016">
        <ele>16.9</ele>
        <time>2020-06-08T16:45:55Z</time>
      </trkpt>
      <trkpt lat="48.39769" lon="-4.43021">
        <ele>16.8</ele>
        <time>2020-06-08T16:45:56Z</time>
      </trkpt>
      <trkpt lat="48.39769" lon="-4.43023">
        <ele>16.8</ele>
        <time>2020-06-08T16:45:57Z</time>
      </trkpt>
      <trkpt lat="48.39768" lon="-4.43027">
        <ele>16.7</ele>
        <time>2020-06-08T16:45:58Z</time>
      </trkpt>
      <trkpt lat="48.39767" lon="-4.43033">
        <ele>16.6</ele>
        <time>2020-06-08T16:45:59Z</time>
      </trkpt>
      <trkpt lat="48.39767" lon="-4.43039">
        <ele>16.5</ele>
        <time>2020-06-08T16:46:00Z</time>
      </trkpt>
      <trkpt lat="48.39767" lon="-4.43046">
        <ele>16.3</ele>
        <time>2020-06-08T16:46:01Z</time>
      </trkpt>
      <trkpt lat="48.39766" lon="-4.43054">
        <ele>16.2</ele>
        <time>2020-06-08T16:46:02Z</time>
      </trkpt>
      <trkpt lat="48.39765" lon="-4.43062">
        <ele>16</ele>
        <time>2020-06-08T16:46:03Z</time>
      </trkpt>
      <trkpt lat="48.39765" lon="-4.4307">
        <ele>15.9</ele>
        <time>2020-06-08T16:46:04Z</time>
      </trkpt>
      <trkpt lat="48.39764" lon="-4.43078">
        <ele>15.8</ele>
        <time>2020-06-08T16:46:05Z</time>
      </trkpt>
      <trkpt lat="48.39763" lon="-4.43085">
        <ele>15.6</ele>
        <time>2020-06-08T16:46:06Z</time>
      </trkpt>
      <trkpt lat="48.39761" lon="-4.43093">
        <ele>15.5</ele>
        <time>2020-06-08T16:46:07Z</time>
      </trkpt>
      <trkpt lat="48.39759" lon="-4.43102">
        <ele>15.3</ele>
        <time>2020-06-08T16:46:08Z</time>
      </trkpt>
      <trkpt lat="48.39758" lon="-4.4311">
        <ele>15.1</ele>
        <time>2020-06-08T16:46:09Z</time>
      </trkpt>
      <trkpt lat="48.39756" lon="-4.43119">
        <ele>15</ele>
        <time>2020-06-08T16:46:10Z</time>
      </trkpt>
      <trkpt lat="48.39754" lon="-4.43128">
        <ele>14.8</ele>
        <time>2020-06-08T16:46:11Z</time>
      </trkpt>
      <trkpt lat="48.39753" lon="-4.43137">
        <ele>14.7</ele>
        <time>2020-06-08T16:46:12Z</time>
      </trkpt>
      <trkpt lat="48.39752" lon="-4.43146">
        <ele>14.6</ele>
        <time>2020-06-08T16:46:13Z</time>
      </trkpt>
      <trkpt lat="48.39751" lon="-4.43155">
        <ele>14.6</ele>
        <time>2020-06-08T16:46:14Z</time>
      </trkpt>
      <trkpt lat="48.39749" lon="-4.43165">
        <ele>14.5</ele>
        <time>2020-06-08T16:46:15Z</time>
      </trkpt>
      <trkpt lat="48.39747" lon="-4.43173">
        <ele>14.4</ele>
        <time>2020-06-08T16:46:16Z</time>
      </trkpt>
      <trkpt lat="48.39745" lon="-4.43182">
        <ele>14.3</ele>
        <time>2020-06-08T16:46:17Z</time>
      </trkpt>
      <trkpt lat="48.39743" lon="-4.43191">
        <ele>14.2</ele>
        <time>2020-06-08T16:46:18Z</time>
      </trkpt>
      <trkpt lat="48.39741" lon="-4.432">
        <ele>14</ele>
        <time>2020-06-08T16:46:19Z</time>
      </trkpt>
      <trkpt lat="48.39738" lon="-4.43209">
        <ele>13.9</ele>
        <time>2020-06-08T16:46:20Z</time>
      </trkpt>
      <trkpt lat="48.39736" lon="-4.43218">
        <ele>13.8</ele>
        <time>2020-06-08T16:46:21Z</time>
      </trkpt>
      <trkpt lat="48.39734" lon="-4.43227">
        <ele>13.8</ele>
        <time>2020-06-08T16:46:22Z</time>
      </trkpt>
      <trkpt lat="48.39732" lon="-4.43235">
        <ele>13.7</ele>
        <time>2020-06-08T16:46:23Z</time>
      </trkpt>
      <trkpt lat="48.39729" lon="-4.43243">
        <ele>13.6</ele>
        <time>2020-06-08T16:46:24Z</time>
      </trkpt>
      <trkpt lat="48.39727" lon="-4.43251">
        <ele>13.6</ele>
        <time>2020-06-08T16:46:25Z</time>
      </trkpt>
      <trkpt lat="48.39725" lon="-4.43259">
        <ele>13.5</ele>
        <time>2020-06-08T16:46:26Z</time>
      </trkpt>
      <trkpt lat="48.39723" lon="-4.43268">
        <ele>13.5</ele>
        <time>2020-06-08T16:46:27Z</time>
      </trkpt>
      <trkpt lat="48.39721" lon="-4.43276">
        <ele>13.5</ele>
        <time>2020-06-08T16:46:28Z</time>
      </trkpt>
      <trkpt lat="48.39719" lon="-4.43285">
        <ele>13.4</ele>
        <time>2020-06-08T16:46:29Z</time>
      </trkpt>
      <trkpt lat="48.39716" lon="-4.43292">
        <ele>13.3</ele>
        <time>2020-06-08T16:46:30Z</time>
      </trkpt>
      <trkpt lat="48.39714" lon="-4.43301">
        <ele>13.3</ele>
        <time>2020-06-08T16:46:31Z</time>
      </trkpt>
      <trkpt lat="48.39711" lon="-4.43309">
        <ele>13.2</ele>
        <time>2020-06-08T16:46:32Z</time>
      </trkpt>
      <trkpt lat="48.39708" lon="-4.43316">
        <ele>13.1</ele>
        <time>2020-06-08T16:46:33Z</time>
      </trkpt>
      <trkpt lat="48.39705" lon="-4.43324">
        <ele>13</ele>
        <time>2020-06-08T16:46:34Z</time>
      </trkpt>
      <trkpt lat="48.39702" lon="-4.43332">
        <ele>12.9</ele>
        <time>2020-06-08T16:46:35Z</time>
      </trkpt>
      <trkpt lat="48.39699" lon="-4.43339">
        <ele>12.8</ele>
        <time>2020-06-08T16:46:36Z</time>
      </trkpt>
      <trkpt lat="48.39696" lon="-4.43345">
        <ele>12.7</ele>
        <time>2020-06-08T16:46:37Z</time>
      </trkpt>
      <trkpt lat="48.39695" lon="-4.43351">
        <ele>12.6</ele>
        <time>2020-06-08T16:46:38Z</time>
      </trkpt>
      <trkpt lat="48.39693" lon="-4.43355">
        <ele>12.6</ele>
        <time>2020-06-08T16:46:39Z</time>
      </trkpt>
      <trkpt lat="48.39693" lon="-4.4336">
        <ele>12.5</ele>
        <time>2020-06-08T16:46:40Z</time>
      </trkpt>
      <trkpt lat="48.39691" lon="-4.43364">
        <ele>12.5</ele>
        <time>2020-06-08T16:46:41Z</time>
      </trkpt>
      <trkpt lat="48.39689" lon="-4.43368">
        <ele>12.3</ele>
        <time>2020-06-08T16:46:42Z</time>
      </trkpt>
      <trkpt lat="48.39687" lon="-4.43371">
        <ele>12.2</ele>
        <time>2020-06-08T16:46:43Z</time>
      </trkpt>
      <trkpt lat="48.39685" lon="-4.43374">
        <ele>12</ele>
        <time>2020-06-08T16:46:44Z</time>
      </trkpt>
      <trkpt lat="48.39683" lon="-4.43376">
        <ele>11.9</ele>
        <time>2020-06-08T16:46:45Z</time>
      </trkpt>
      <trkpt lat="48.39682" lon="-4.43376">
        <ele>11.9</ele>
        <time>2020-06-08T16:46:46Z</time>
      </trkpt>
      <trkpt lat="48.39682" lon="-4.43377">
        <ele>11.8</ele>
        <time>2020-06-08T16:46:47Z</time>
      </trkpt>
      <trkpt lat="48.39681" lon="-4.43378">
        <ele>11.8</ele>
        <time>2020-06-08T16:46:48Z</time>
      </trkpt>
      <trkpt lat="48.3968" lon="-4.43379">
        <ele>11.7</ele>
        <time>2020-06-08T16:46:49Z</time>
      </trkpt>
      <trkpt lat="48.39677" lon="-4.4338">
        <ele>11.6</ele>
        <time>2020-06-08T16:46:50Z</time>
      </trkpt>
      <trkpt lat="48.39676" lon="-4.43381">
        <ele>11.6</ele>
        <time>2020-06-08T16:46:51Z</time>
      </trkpt>
      <trkpt lat="48.39674" lon="-4.43384">
        <ele>11.4</ele>
        <time>2020-06-08T16:46:52Z</time>
      </trkpt>
      <trkpt lat="48.39672" lon="-4.43387">
        <ele>11.3</ele>
        <time>2020-06-08T16:46:53Z</time>
      </trkpt>
      <trkpt lat="48.39669" lon="-4.43389">
        <ele>11.2</ele>
        <time>2020-06-08T16:46:54Z</time>
      </trkpt>
      <trkpt lat="48.39665" lon="-4.43392">
        <ele>10.9</ele>
        <time>2020-06-08T16:46:55Z</time>
      </trkpt>
      <trkpt lat="48.39661" lon="-4.43396">
        <ele>10.7</ele>
        <time>2020-06-08T16:46:56Z</time>
      </trkpt>
      <trkpt lat="48.39656" lon="-4.43401">
        <ele>10.4</ele>
        <time>2020-06-08T16:46:57Z</time>
      </trkpt>
      <trkpt lat="48.39651" lon="-4.43405">
        <ele>10.1</ele>
        <time>2020-06-08T16:46:58Z</time>
      </trkpt>
      <trkpt lat="48.39646" lon="-4.43411">
        <ele>9.8</ele>
        <time>2020-06-08T16:46:59Z</time>
      </trkpt>
      <trkpt lat="48.39639" lon="-4.43414">
        <ele>9.4</ele>
        <time>2020-06-08T16:47:00Z</time>
      </trkpt>
      <trkpt lat="48.39632" lon="-4.43418">
        <ele>9.1</ele>
        <time>2020-06-08T16:47:01Z</time>
      </trkpt>
      <trkpt lat="48.39625" lon="-4.43422">
        <ele>8.8</ele>
        <time>2020-06-08T16:47:02Z</time>
      </trkpt>
      <trkpt lat="48.39618" lon="-4.43425">
        <ele>8.5</ele>
        <time>2020-06-08T16:47:03Z</time>
      </trkpt>
      <trkpt lat="48.39611" lon="-4.43428">
        <ele>8.2</ele>
        <time>2020-06-08T16:47:04Z</time>
      </trkpt>
      <trkpt lat="48.39604" lon="-4.4343">
        <ele>7.9</ele>
        <time>2020-06-08T16:47:05Z</time>
      </trkpt>
      <trkpt lat="48.39597" lon="-4.43433">
        <ele>7.8</ele>
        <time>2020-06-08T16:47:06Z</time>
      </trkpt>
      <trkpt lat="48.3959" lon="-4.43436">
        <ele>7.7</ele>
        <time>2020-06-08T16:47:07Z</time>
      </trkpt>
      <trkpt lat="48.39585" lon="-4.43438">
        <ele>7.6</ele>
        <time>2020-06-08T16:47:08Z</time>
      </trkpt>
      <trkpt lat="48.39581" lon="-4.4344">
        <ele>7.6</ele>
        <time>2020-06-08T16:47:09Z</time>
      </trkpt>
      <trkpt lat="48.39577" lon="-4.43441">
        <ele>7.6</ele>
        <time>2020-06-08T16:47:10Z</time>
      </trkpt>
      <trkpt lat="48.39574" lon="-4.43442">
        <ele>7.6</ele>
        <time>2020-06-08T16:47:11Z</time>
      </trkpt>
      <trkpt lat="48.39572" lon="-4.43443">
        <ele>7.6</ele>
        <time>2020-06-08T16:47:12Z</time>
      </trkpt>
      <trkpt lat="48.39571" lon="-4.43444">
        <ele>7.6</ele>
        <time>2020-06-08T16:47:13Z</time>
      </trkpt>
      <trkpt lat="48.3957" lon="-4.43445">
        <ele>7.6</ele>
        <time>2020-06-08T16:47:14Z</time>
      </trkpt>
      <trkpt lat="48.39568" lon="-4.43446">
        <ele>7.6</ele>
        <time>2020-06-08T16:47:15Z</time>
      </trkpt>
      <trkpt lat="48.39565" lon="-4.43446">
        <ele>7.6</ele>
        <time>2020-06-08T16:47:16Z</time>
      </trkpt>
      <trkpt lat="48.39564" lon="-4.43446">
        <ele>7.5</ele>
        <time>2020-06-08T16:47:17Z</time>
      </trkpt>
      <trkpt lat="48.39564" lon="-4.43441">
        <ele>7.6</ele>
        <time>2020-06-08T16:47:18Z</time>
      </trkpt>
      <trkpt lat="48.3956" lon="-4.43441">
        <ele>7.4</ele>
        <time>2020-06-08T16:47:19Z</time>
      </trkpt>
      <trkpt lat="48.39559" lon="-4.4344">
        <ele>7.4</ele>
        <time>2020-06-08T16:47:20Z</time>
      </trkpt>
      <trkpt lat="48.39556" lon="-4.43439">
        <ele>7.3</ele>
        <time>2020-06-08T16:47:21Z</time>
      </trkpt>
      <trkpt lat="48.39553" lon="-4.43437">
        <ele>7.2</ele>
        <time>2020-06-08T16:47:22Z</time>
      </trkpt>
      <trkpt lat="48.39551" lon="-4.43436">
        <ele>7.2</ele>
        <time>2020-06-08T16:47:23Z</time>
      </trkpt>
      <trkpt lat="48.39548" lon="-4.43433">
        <ele>7.1</ele>
        <time>2020-06-08T16:47:24Z</time>
      </trkpt>
      <trkpt lat="48.39547" lon="-4.43432">
        <ele>7.1</ele>
        <time>2020-06-08T16:47:25Z</time>
      </trkpt>
      <trkpt lat="48.39545" lon="-4.43428">
        <ele>7</ele>
        <time>2020-06-08T16:47:26Z</time>
      </trkpt>
      <trkpt lat="48.39542" lon="-4.43425">
        <ele>7</ele>
        <time>2020-06-08T16:47:27Z</time>
      </trkpt>
      <trkpt lat="48.3954" lon="-4.43423">
        <ele>6.9</ele>
        <time>2020-06-08T16:47:28Z</time>
      </trkpt>
      <trkpt lat="48.39539" lon="-4.43417">
        <ele>6.8</ele>
        <time>2020-06-08T16:47:29Z</time>
      </trkpt>
      <trkpt lat="48.39538" lon="-4.43415">
        <ele>6.8</ele>
        <time>2020-06-08T16:47:30Z</time>
      </trkpt>
      <trkpt lat="48.39537" lon="-4.43411">
        <ele>6.8</ele>
        <time>2020-06-08T16:47:31Z</time>
      </trkpt>
      <trkpt lat="48.39536" lon="-4.43406">
        <ele>6.8</ele>
        <time>2020-06-08T16:47:32Z</time>
      </trkpt>
      <trkpt lat="48.39536" lon="-4.43401">
        <ele>6.8</ele>
        <time>2020-06-08T16:47:33Z</time>
      </trkpt>
      <trkpt lat="48.39535" lon="-4.43395">
        <ele>6.7</ele>
        <time>2020-06-08T16:47:34Z</time>
      </trkpt>
      <trkpt lat="48.39535" lon="-4.43389">
        <ele>6.7</ele>
        <time>2020-06-08T16:47:35Z</time>
      </trkpt>
      <trkpt lat="48.39534" lon="-4.43384">
        <ele>6.7</ele>
        <time>2020-06-08T16:47:36Z</time>
      </trkpt>
      <trkpt lat="48.39534" lon="-4.43379">
        <ele>6.7</ele>
        <time>2020-06-08T16:47:37Z</time>
      </trkpt>
      <trkpt lat="48.39534" lon="-4.43374">
        <ele>6.7</ele>
        <time>2020-06-08T16:47:38Z</time>
      </trkpt>
      <trkpt lat="48.39535" lon="-4.43369">
        <ele>6.7</ele>
        <time>2020-06-08T16:47:39Z</time>
      </trkpt>
      <trkpt lat="48.39535" lon="-4.43364">
        <ele>6.7</ele>
        <time>2020-06-08T16:47:40Z</time>
      </trkpt>
      <trkpt lat="48.39535" lon="-4.4336">
        <ele>6.7</ele>
        <time>2020-06-08T16:47:41Z</time>
      </trkpt>
      <trkpt lat="48.39534" lon="-4.43356">
        <ele>6.7</ele>
        <time>2020-06-08T16:47:42Z</time>
      </trkpt>
      <trkpt lat="48.39533" lon="-4.43352">
        <ele>6.7</ele>
        <time>2020-06-08T16:47:43Z</time>
      </trkpt>
      <trkpt lat="48.3953" lon="-4.43348">
        <ele>6.7</ele>
        <time>2020-06-08T16:47:44Z</time>
      </trkpt>
      <trkpt lat="48.39527" lon="-4.43346">
        <ele>6.7</ele>
        <time>2020-06-08T16:47:45Z</time>
      </trkpt>
      <trkpt lat="48.39524" lon="-4.43345">
        <ele>6.7</ele>
        <time>2020-06-08T16:47:46Z</time>
      </trkpt>
      <trkpt lat="48.39521" lon="-4.43345">
        <ele>6.7</ele>
        <time>2020-06-08T16:47:47Z</time>
      </trkpt>
      <trkpt lat="48.39517" lon="-4.43346">
        <ele>6.8</ele>
        <time>2020-06-08T16:47:48Z</time>
      </trkpt>
      <trkpt lat="48.39514" lon="-4.43345">
        <ele>6.8</ele>
        <time>2020-06-08T16:47:49Z</time>
      </trkpt>
      <trkpt lat="48.3951" lon="-4.43345">
        <ele>6.8</ele>
        <time>2020-06-08T16:47:50Z</time>
      </trkpt>
      <trkpt lat="48.39507" lon="-4.43345">
        <ele>6.8</ele>
        <time>2020-06-08T16:47:51Z</time>
      </trkpt>
      <trkpt lat="48.39505" lon="-4.43345">
        <ele>6.8</ele>
        <time>2020-06-08T16:47:52Z</time>
      </trkpt>
      <trkpt lat="48.39502" lon="-4.43345">
        <ele>6.8</ele>
        <time>2020-06-08T16:47:53Z</time>
      </trkpt>
      <trkpt lat="48.39499" lon="-4.43343">
        <ele>6.8</ele>
        <time>2020-06-08T16:47:54Z</time>
      </trkpt>
      <trkpt lat="48.39496" lon="-4.43342">
        <ele>6.8</ele>
        <time>2020-06-08T16:47:55Z</time>
      </trkpt>
      <trkpt lat="48.39494" lon="-4.4334">
        <ele>6.8</ele>
        <time>2020-06-08T16:47:56Z</time>
      </trkpt>
      <trkpt lat="48.39491" lon="-4.43338">
        <ele>6.8</ele>
        <time>2020-06-08T16:47:57Z</time>
      </trkpt>
      <trkpt lat="48.39487" lon="-4.43338">
        <ele>6.8</ele>
        <time>2020-06-08T16:47:58Z</time>
      </trkpt>
      <trkpt lat="48.39484" lon="-4.43338">
        <ele>6.8</ele>
        <time>2020-06-08T16:47:59Z</time>
      </trkpt>
      <trkpt lat="48.3948" lon="-4.43338">
        <ele>6.8</ele>
        <time>2020-06-08T16:48:00Z</time>
      </trkpt>
      <trkpt lat="48.39477" lon="-4.43338">
        <ele>6.8</ele>
        <time>2020-06-08T16:48:01Z</time>
      </trkpt>
      <trkpt lat="48.39474" lon="-4.43338">
        <ele>6.8</ele>
        <time>2020-06-08T16:48:02Z</time>
      </trkpt>
      <trkpt lat="48.3947" lon="-4.43336">
        <ele>6.8</ele>
        <time>2020-06-08T16:48:03Z</time>
      </trkpt>
      <trkpt lat="48.39467" lon="-4.43336">
        <ele>6.8</ele>
        <time>2020-06-08T16:48:04Z</time>
      </trkpt>
      <trkpt lat="48.39464" lon="-4.43336">
        <ele>6.8</ele>
        <time>2020-06-08T16:48:05Z</time>
      </trkpt>
      <trkpt lat="48.3946" lon="-4.43336">
        <ele>6.8</ele>
        <time>2020-06-08T16:48:06Z</time>
      </trkpt>
      <trkpt lat="48.39457" lon="-4.43335">
        <ele>6.8</ele>
        <time>2020-06-08T16:48:07Z</time>
      </trkpt>
      <trkpt lat="48.39453" lon="-4.43335">
        <ele>6.8</ele>
        <time>2020-06-08T16:48:08Z</time>
      </trkpt>
      <trkpt lat="48.3945" lon="-4.43335">
        <ele>6.8</ele>
        <time>2020-06-08T16:48:09Z</time>
      </trkpt>
      <trkpt lat="48.39446" lon="-4.43335">
        <ele>6.8</ele>
        <time>2020-06-08T16:48:10Z</time>
      </trkpt>
      <trkpt lat="48.39442" lon="-4.43332">
        <ele>6.8</ele>
        <time>2020-06-08T16:48:11Z</time>
      </trkpt>
      <trkpt lat="48.39439" lon="-4.43331">
        <ele>6.7</ele>
        <time>2020-06-08T16:48:12Z</time>
      </trkpt>
      <trkpt lat="48.39435" lon="-4.4333">
        <ele>6.7</ele>
        <time>2020-06-08T16:48:13Z</time>
      </trkpt>
      <trkpt lat="48.39432" lon="-4.43331">
        <ele>6.7</ele>
        <time>2020-06-08T16:48:14Z</time>
      </trkpt>
      <trkpt lat="48.39429" lon="-4.4333">
        <ele>6.7</ele>
        <time>2020-06-08T16:48:15Z</time>
      </trkpt>
      <trkpt lat="48.39425" lon="-4.4333">
        <ele>6.7</ele>
        <time>2020-06-08T16:48:16Z</time>
      </trkpt>
      <trkpt lat="48.39422" lon="-4.43327">
        <ele>6.7</ele>
        <time>2020-06-08T16:48:17Z</time>
      </trkpt>
      <trkpt lat="48.39418" lon="-4.43326">
        <ele>6.6</ele>
        <time>2020-06-08T16:48:18Z</time>
      </trkpt>
      <trkpt lat="48.39414" lon="-4.43326">
        <ele>6.6</ele>
        <time>2020-06-08T16:48:19Z</time>
      </trkpt>
      <trkpt lat="48.3941" lon="-4.43327">
        <ele>6.6</ele>
        <time>2020-06-08T16:48:20Z</time>
      </trkpt>
      <trkpt lat="48.39407" lon="-4.43326">
        <ele>6.6</ele>
        <time>2020-06-08T16:48:21Z</time>
      </trkpt>
      <trkpt lat="48.39403" lon="-4.43324">
        <ele>6.6</ele>
        <time>2020-06-08T16:48:22Z</time>
      </trkpt>
      <trkpt lat="48.39399" lon="-4.43324">
        <ele>6.6</ele>
        <time>2020-06-08T16:48:23Z</time>
      </trkpt>
      <trkpt lat="48.39395" lon="-4.43324">
        <ele>6.5</ele>
        <time>2020-06-08T16:48:24Z</time>
      </trkpt>
      <trkpt lat="48.3939" lon="-4.43325">
        <ele>6.5</ele>
        <time>2020-06-08T16:48:25Z</time>
      </trkpt>
      <trkpt lat="48.39386" lon="-4.43325">
        <ele>6.5</ele>
        <time>2020-06-08T16:48:26Z</time>
      </trkpt>
      <trkpt lat="48.39382" lon="-4.43324">
        <ele>6.5</ele>
        <time>2020-06-08T16:48:27Z</time>
      </trkpt>
      <trkpt lat="48.39378" lon="-4.43323">
        <ele>6.5</ele>
        <time>2020-06-08T16:48:28Z</time>
      </trkpt>
      <trkpt lat="48.39374" lon="-4.43321">
        <ele>6.5</ele>
        <time>2020-06-08T16:48:29Z</time>
      </trkpt>
      <trkpt lat="48.3937" lon="-4.43321">
        <ele>6.5</ele>
        <time>2020-06-08T16:48:30Z</time>
      </trkpt>
      <trkpt lat="48.39366" lon="-4.4332">
        <ele>6.5</ele>
        <time>2020-06-08T16:48:31Z</time>
      </trkpt>
      <trkpt lat="48.39361" lon="-4.43319">
        <ele>6.5</ele>
        <time>2020-06-08T16:48:32Z</time>
      </trkpt>
      <trkpt lat="48.39357" lon="-4.43319">
        <ele>6.5</ele>
        <time>2020-06-08T16:48:33Z</time>
      </trkpt>
      <trkpt lat="48.39352" lon="-4.4332">
        <ele>6.4</ele>
        <time>2020-06-08T16:48:34Z</time>
      </trkpt>
      <trkpt lat="48.39348" lon="-4.43319">
        <ele>6.4</ele>
        <time>2020-06-08T16:48:35Z</time>
      </trkpt>
      <trkpt lat="48.39343" lon="-4.43318">
        <ele>6.4</ele>
        <time>2020-06-08T16:48:36Z</time>
      </trkpt>
      <trkpt lat="48.39339" lon="-4.43316">
        <ele>6.4</ele>
        <time>2020-06-08T16:48:37Z</time>
      </trkpt>
      <trkpt lat="48.39334" lon="-4.43316">
        <ele>6.4</ele>
        <time>2020-06-08T16:48:38Z</time>
      </trkpt>
      <trkpt lat="48.3933" lon="-4.43314">
        <ele>6.4</ele>
        <time>2020-06-08T16:48:39Z</time>
      </trkpt>
      <trkpt lat="48.39326" lon="-4.43313">
        <ele>6.4</ele>
        <time>2020-06-08T16:48:40Z</time>
      </trkpt>
      <trkpt lat="48.39323" lon="-4.4331">
        <ele>6.4</ele>
        <time>2020-06-08T16:48:41Z</time>
      </trkpt>
      <trkpt lat="48.39319" lon="-4.43309">
        <ele>6.4</ele>
        <time>2020-06-08T16:48:42Z</time>
      </trkpt>
      <trkpt lat="48.39315" lon="-4.43308">
        <ele>6.4</ele>
        <time>2020-06-08T16:48:43Z</time>
      </trkpt>
      <trkpt lat="48.39311" lon="-4.43306">
        <ele>6.4</ele>
        <time>2020-06-08T16:48:44Z</time>
      </trkpt>
      <trkpt lat="48.39307" lon="-4.43304">
        <ele>6.4</ele>
        <time>2020-06-08T16:48:45Z</time>
      </trkpt>
      <trkpt lat="48.39303" lon="-4.43303">
        <ele>6.4</ele>
        <time>2020-06-08T16:48:46Z</time>
      </trkpt>
      <trkpt lat="48.39299" lon="-4.43303">
        <ele>6.4</ele>
        <time>2020-06-08T16:48:47Z</time>
      </trkpt>
      <trkpt lat="48.39294" lon="-4.43303">
        <ele>6.4</ele>
        <time>2020-06-08T16:48:48Z</time>
      </trkpt>
      <trkpt lat="48.3929" lon="-4.43302">
        <ele>6.4</ele>
        <time>2020-06-08T16:48:49Z</time>
      </trkpt>
      <trkpt lat="48.39286" lon="-4.43302">
        <ele>6.4</ele>
        <time>2020-06-08T16:48:50Z</time>
      </trkpt>
      <trkpt lat="48.39283" lon="-4.43303">
        <ele>6.3</ele>
        <time>2020-06-08T16:48:51Z</time>
      </trkpt>
      <trkpt lat="48.39279" lon="-4.43302">
        <ele>6.3</ele>
        <time>2020-06-08T16:48:52Z</time>
      </trkpt>
      <trkpt lat="48.39277" lon="-4.43304">
        <ele>6.3</ele>
        <time>2020-06-08T16:48:53Z</time>
      </trkpt>
      <trkpt lat="48.39274" lon="-4.43307">
        <ele>6.3</ele>
        <time>2020-06-08T16:48:54Z</time>
      </trkpt>
      <trkpt lat="48.39272" lon="-4.43311">
        <ele>6.3</ele>
        <time>2020-06-08T16:48:55Z</time>
      </trkpt>
      <trkpt lat="48.39271" lon="-4.43316">
        <ele>6.3</ele>
        <time>2020-06-08T16:48:56Z</time>
      </trkpt>
      <trkpt lat="48.3927" lon="-4.4332">
        <ele>6.3</ele>
        <time>2020-06-08T16:48:57Z</time>
      </trkpt>
      <trkpt lat="48.3927" lon="-4.43325">
        <ele>6.2</ele>
        <time>2020-06-08T16:48:58Z</time>
      </trkpt>
      <trkpt lat="48.39269" lon="-4.4333">
        <ele>6.2</ele>
        <time>2020-06-08T16:48:59Z</time>
      </trkpt>
      <trkpt lat="48.39267" lon="-4.43334">
        <ele>6.2</ele>
        <time>2020-06-08T16:49:00Z</time>
      </trkpt>
      <trkpt lat="48.39266" lon="-4.43339">
        <ele>6.2</ele>
        <time>2020-06-08T16:49:01Z</time>
      </trkpt>
      <trkpt lat="48.39265" lon="-4.43344">
        <ele>6.2</ele>
        <time>2020-06-08T16:49:02Z</time>
      </trkpt>
      <trkpt lat="48.39265" lon="-4.43349">
        <ele>6.2</ele>
        <time>2020-06-08T16:49:03Z</time>
      </trkpt>
      <trkpt lat="48.39264" lon="-4.43354">
        <ele>6.1</ele>
        <time>2020-06-08T16:49:04Z</time>
      </trkpt>
      <trkpt lat="48.39264" lon="-4.43359">
        <ele>6.1</ele>
        <time>2020-06-08T16:49:05Z</time>
      </trkpt>
      <trkpt lat="48.39264" lon="-4.43364">
        <ele>6.1</ele>
        <time>2020-06-08T16:49:06Z</time>
      </trkpt>
      <trkpt lat="48.39264" lon="-4.43368">
        <ele>6.1</ele>
        <time>2020-06-08T16:49:07Z</time>
      </trkpt>
      <trkpt lat="48.39264" lon="-4.43373">
        <ele>6.1</ele>
        <time>2020-06-08T16:49:08Z</time>
      </trkpt>
      <trkpt lat="48.39263" lon="-4.43377">
        <ele>6.1</ele>
        <time>2020-06-08T16:49:09Z</time>
      </trkpt>
      <trkpt lat="48.39263" lon="-4.43382">
        <ele>6.1</ele>
        <time>2020-06-08T16:49:10Z</time>
      </trkpt>
      <trkpt lat="48.39262" lon="-4.43386">
        <ele>6.1</ele>
        <time>2020-06-08T16:49:11Z</time>
      </trkpt>
      <trkpt lat="48.39262" lon="-4.43391">
        <ele>6.1</ele>
        <time>2020-06-08T16:49:12Z</time>
      </trkpt>
      <trkpt lat="48.39262" lon="-4.43395">
        <ele>6.1</ele>
        <time>2020-06-08T16:49:13Z</time>
      </trkpt>
      <trkpt lat="48.39261" lon="-4.43399">
        <ele>6.1</ele>
        <time>2020-06-08T16:49:14Z</time>
      </trkpt>
      <trkpt lat="48.39259" lon="-4.43404">
        <ele>6.1</ele>
        <time>2020-06-08T16:49:15Z</time>
      </trkpt>
      <trkpt lat="48.39258" lon="-4.43405">
        <ele>6.1</ele>
        <time>2020-06-08T16:49:16Z</time>
      </trkpt>
      <trkpt lat="48.39254" lon="-4.43408">
        <ele>6.1</ele>
        <time>2020-06-08T16:49:17Z</time>
      </trkpt>
      <trkpt lat="48.39253" lon="-4.43408">
        <ele>6.1</ele>
        <time>2020-06-08T16:49:18Z</time>
      </trkpt>
      <trkpt lat="48.3925" lon="-4.43407">
        <ele>6.1</ele>
        <time>2020-06-08T16:49:19Z</time>
      </trkpt>
      <trkpt lat="48.39247" lon="-4.43406">
        <ele>6.1</ele>
        <time>2020-06-08T16:49:20Z</time>
      </trkpt>
      <trkpt lat="48.39244" lon="-4.43405">
        <ele>6.1</ele>
        <time>2020-06-08T16:49:21Z</time>
      </trkpt>
      <trkpt lat="48.39241" lon="-4.43405">
        <ele>6.1</ele>
        <time>2020-06-08T16:49:22Z</time>
      </trkpt>
      <trkpt lat="48.39238" lon="-4.43405">
        <ele>6.1</ele>
        <time>2020-06-08T16:49:23Z</time>
      </trkpt>
      <trkpt lat="48.39235" lon="-4.43406">
        <ele>6.1</ele>
        <time>2020-06-08T16:49:24Z</time>
      </trkpt>
      <trkpt lat="48.39232" lon="-4.43405">
        <ele>6.1</ele>
        <time>2020-06-08T16:49:25Z</time>
      </trkpt>
      <trkpt lat="48.39229" lon="-4.43404">
        <ele>6.1</ele>
        <time>2020-06-08T16:49:26Z</time>
      </trkpt>
      <trkpt lat="48.39227" lon="-4.43402">
        <ele>6.1</ele>
        <time>2020-06-08T16:49:27Z</time>
      </trkpt>
      <trkpt lat="48.39224" lon="-4.43401">
        <ele>6.1</ele>
        <time>2020-06-08T16:49:28Z</time>
      </trkpt>
      <trkpt lat="48.39221" lon="-4.434">
        <ele>6.2</ele>
        <time>2020-06-08T16:49:29Z</time>
      </trkpt>
      <trkpt lat="48.39217" lon="-4.43399">
        <ele>6.2</ele>
        <time>2020-06-08T16:49:30Z</time>
      </trkpt>
      <trkpt lat="48.39216" lon="-4.43399">
        <ele>6.2</ele>
        <time>2020-06-08T16:49:31Z</time>
      </trkpt>
      <trkpt lat="48.39213" lon="-4.43399">
        <ele>6.2</ele>
        <time>2020-06-08T16:49:32Z</time>
      </trkpt>
      <trkpt lat="48.39212" lon="-4.43399">
        <ele>6.2</ele>
        <time>2020-06-08T16:49:33Z</time>
      </trkpt>
      <trkpt lat="48.39209" lon="-4.43397">
        <ele>6.2</ele>
        <time>2020-06-08T16:49:34Z</time>
      </trkpt>
      <trkpt lat="48.39208" lon="-4.43396">
        <ele>6.2</ele>
        <time>2020-06-08T16:49:35Z</time>
      </trkpt>
      <trkpt lat="48.39206" lon="-4.43392">
        <ele>6.2</ele>
        <time>2020-06-08T16:49:36Z</time>
      </trkpt>
      <trkpt lat="48.39205" lon="-4.4339">
        <ele>6.3</ele>
        <time>2020-06-08T16:49:37Z</time>
      </trkpt>
      <trkpt lat="48.39205" lon="-4.43384">
        <ele>6.3</ele>
        <time>2020-06-08T16:49:38Z</time>
      </trkpt>
      <trkpt lat="48.39204" lon="-4.43382">
        <ele>6.3</ele>
        <time>2020-06-08T16:49:39Z</time>
      </trkpt>
      <trkpt lat="48.39204" lon="-4.43378">
        <ele>6.3</ele>
        <time>2020-06-08T16:49:40Z</time>
      </trkpt>
      <trkpt lat="48.39204" lon="-4.43374">
        <ele>6.3</ele>
        <time>2020-06-08T16:49:41Z</time>
      </trkpt>
      <trkpt lat="48.39204" lon="-4.43368">
        <ele>6.3</ele>
        <time>2020-06-08T16:49:42Z</time>
      </trkpt>
      <trkpt lat="48.39203" lon="-4.43367">
        <ele>6.3</ele>
        <time>2020-06-08T16:49:43Z</time>
      </trkpt>
      <trkpt lat="48.39202" lon="-4.43362">
        <ele>6.3</ele>
        <time>2020-06-08T16:49:44Z</time>
      </trkpt>
      <trkpt lat="48.39201" lon="-4.4336">
        <ele>6.3</ele>
        <time>2020-06-08T16:49:45Z</time>
      </trkpt>
      <trkpt lat="48.39199" lon="-4.43357">
        <ele>6.3</ele>
        <time>2020-06-08T16:49:46Z</time>
      </trkpt>
      <trkpt lat="48.39197" lon="-4.43355">
        <ele>6.3</ele>
        <time>2020-06-08T16:49:47Z</time>
      </trkpt>
      <trkpt lat="48.39193" lon="-4.43353">
        <ele>6.3</ele>
        <time>2020-06-08T16:49:48Z</time>
      </trkpt>
      <trkpt lat="48.3919" lon="-4.43352">
        <ele>6.3</ele>
        <time>2020-06-08T16:49:49Z</time>
      </trkpt>
      <trkpt lat="48.39187" lon="-4.43352">
        <ele>6.3</ele>
        <time>2020-06-08T16:49:50Z</time>
      </trkpt>
      <trkpt lat="48.39184" lon="-4.43353">
        <ele>6.3</ele>
        <time>2020-06-08T16:49:51Z</time>
      </trkpt>
      <trkpt lat="48.39181" lon="-4.43354">
        <ele>6.3</ele>
        <time>2020-06-08T16:49:52Z</time>
      </trkpt>
      <trkpt lat="48.39177" lon="-4.43354">
        <ele>6.3</ele>
        <time>2020-06-08T16:49:53Z</time>
      </trkpt>
      <trkpt lat="48.39174" lon="-4.43355">
        <ele>6.3</ele>
        <time>2020-06-08T16:49:54Z</time>
      </trkpt>
      <trkpt lat="48.3917" lon="-4.43355">
        <ele>6.3</ele>
        <time>2020-06-08T16:49:55Z</time>
      </trkpt>
      <trkpt lat="48.39167" lon="-4.43354">
        <ele>6.3</ele>
        <time>2020-06-08T16:49:56Z</time>
      </trkpt>
      <trkpt lat="48.39164" lon="-4.43353">
        <ele>6.4</ele>
        <time>2020-06-08T16:49:57Z</time>
      </trkpt>
      <trkpt lat="48.39161" lon="-4.43352">
        <ele>6.4</ele>
        <time>2020-06-08T16:49:58Z</time>
      </trkpt>
      <trkpt lat="48.39158" lon="-4.43352">
        <ele>6.4</ele>
        <time>2020-06-08T16:49:59Z</time>
      </trkpt>
      <trkpt lat="48.39155" lon="-4.43351">
        <ele>6.4</ele>
        <time>2020-06-08T16:50:00Z</time>
      </trkpt>
      <trkpt lat="48.39151" lon="-4.43351">
        <ele>6.4</ele>
        <time>2020-06-08T16:50:01Z</time>
      </trkpt>
      <trkpt lat="48.39148" lon="-4.43351">
        <ele>6.5</ele>
        <time>2020-06-08T16:50:02Z</time>
      </trkpt>
      <trkpt lat="48.39145" lon="-4.43353">
        <ele>6.5</ele>
        <time>2020-06-08T16:50:03Z</time>
      </trkpt>
      <trkpt lat="48.39141" lon="-4.43353">
        <ele>6.5</ele>
        <time>2020-06-08T16:50:04Z</time>
      </trkpt>
      <trkpt lat="48.39137" lon="-4.43352">
        <ele>6.5</ele>
        <time>2020-06-08T16:50:05Z</time>
      </trkpt>
      <trkpt lat="48.39134" lon="-4.43351">
        <ele>6.5</ele>
        <time>2020-06-08T16:50:06Z</time>
      </trkpt>
      <trkpt lat="48.39131" lon="-4.43351">
        <ele>6.5</ele>
        <time>2020-06-08T16:50:07Z</time>
      </trkpt>
      <trkpt lat="48.39127" lon="-4.43349">
        <ele>6.6</ele>
        <time>2020-06-08T16:50:08Z</time>
      </trkpt>
      <trkpt lat="48.39124" lon="-4.43349">
        <ele>6.6</ele>
        <time>2020-06-08T16:50:09Z</time>
      </trkpt>
      <trkpt lat="48.39121" lon="-4.4335">
        <ele>6.6</ele>
        <time>2020-06-08T16:50:10Z</time>
      </trkpt>
      <trkpt lat="48.39118" lon="-4.43349">
        <ele>6.6</ele>
        <time>2020-06-08T16:50:11Z</time>
      </trkpt>
      <trkpt lat="48.39115" lon="-4.43349">
        <ele>6.6</ele>
        <time>2020-06-08T16:50:12Z</time>
      </trkpt>
      <trkpt lat="48.39115" lon="-4.43348">
        <ele>6.6</ele>
        <time>2020-06-08T16:50:13Z</time>
      </trkpt>
      <trkpt lat="48.39114" lon="-4.43348">
        <ele>6.6</ele>
        <time>2020-06-08T16:50:14Z</time>
      </trkpt>
      <trkpt lat="48.39115" lon="-4.43348">
        <ele>6.6</ele>
        <time>2020-06-08T16:50:15Z</time>
      </trkpt>
      <trkpt lat="48.39115" lon="-4.43348">
        <ele>6.6</ele>
        <time>2020-06-08T16:50:16Z</time>
      </trkpt>
      <trkpt lat="48.39116" lon="-4.43347">
        <ele>6.6</ele>
        <time>2020-06-08T16:50:17Z</time>
      </trkpt>
      <trkpt lat="48.39116" lon="-4.43347">
        <ele>6.6</ele>
        <time>2020-06-08T16:50:18Z</time>
      </trkpt>
      <trkpt lat="48.39118" lon="-4.43347">
        <ele>6.6</ele>
        <time>2020-06-08T16:50:19Z</time>
      </trkpt>
      <trkpt lat="48.39121" lon="-4.43348">
        <ele>6.6</ele>
        <time>2020-06-08T16:50:20Z</time>
      </trkpt>
      <trkpt lat="48.39123" lon="-4.4335">
        <ele>6.6</ele>
        <time>2020-06-08T16:50:21Z</time>
      </trkpt>
      <trkpt lat="48.39124" lon="-4.4335">
        <ele>6.6</ele>
        <time>2020-06-08T16:50:22Z</time>
      </trkpt>
      <trkpt lat="48.39125" lon="-4.43349">
        <ele>6.6</ele>
        <time>2020-06-08T16:50:23Z</time>
      </trkpt>
      <trkpt lat="48.39124" lon="-4.43349">
        <ele>6.6</ele>
        <time>2020-06-08T16:50:24Z</time>
      </trkpt>
      <trkpt lat="48.39125" lon="-4.43349">
        <ele>6.6</ele>
        <time>2020-06-08T16:50:25Z</time>
      </trkpt>
      <trkpt lat="48.39126" lon="-4.43348">
        <ele>6.6</ele>
        <time>2020-06-08T16:50:26Z</time>
      </trkpt>
      <trkpt lat="48.39126" lon="-4.43348">
        <ele>6.6</ele>
        <time>2020-06-08T16:50:27Z</time>
      </trkpt>
      <trkpt lat="48.39127" lon="-4.43348">
        <ele>6.6</ele>
        <time>2020-06-08T16:50:28Z</time>
      </trkpt>
      <trkpt lat="48.39127" lon="-4.43347">
        <ele>6.6</ele>
        <time>2020-06-08T16:50:29Z</time>
      </trkpt>
      <trkpt lat="48.39129" lon="-4.43347">
        <ele>6.6</ele>
        <time>2020-06-08T16:50:30Z</time>
      </trkpt>
      <trkpt lat="48.3913" lon="-4.43347">
        <ele>6.6</ele>
        <time>2020-06-08T16:50:31Z</time>
      </trkpt>
      <trkpt lat="48.39131" lon="-4.43348">
        <ele>6.6</ele>
        <time>2020-06-08T16:50:32Z</time>
      </trkpt>
      <trkpt lat="48.39132" lon="-4.43348">
        <ele>6.6</ele>
        <time>2020-06-08T16:50:33Z</time>
      </trkpt>
      <trkpt lat="48.39131" lon="-4.43348">
        <ele>6.6</ele>
        <time>2020-06-08T16:50:34Z</time>
      </trkpt>
      <trkpt lat="48.3913" lon="-4.43348">
        <ele>6.6</ele>
        <time>2020-06-08T16:50:35Z</time>
      </trkpt>
      <trkpt lat="48.3913" lon="-4.4335">
        <ele>6.6</ele>
        <time>2020-06-08T16:50:36Z</time>
      </trkpt>
      <trkpt lat="48.39128" lon="-4.4335">
        <ele>6.6</ele>
        <time>2020-06-08T16:50:37Z</time>
      </trkpt>
      <trkpt lat="48.39125" lon="-4.43349">
        <ele>6.6</ele>
        <time>2020-06-08T16:50:38Z</time>
      </trkpt>
      <trkpt lat="48.39121" lon="-4.43348">
        <ele>6.6</ele>
        <time>2020-06-08T16:50:39Z</time>
      </trkpt>
      <trkpt lat="48.39116" lon="-4.43348">
        <ele>6.6</ele>
        <time>2020-06-08T16:50:40Z</time>
      </trkpt>
      <trkpt lat="48.39112" lon="-4.43349">
        <ele>6.6</ele>
        <time>2020-06-08T16:50:41Z</time>
      </trkpt>
      <trkpt lat="48.39107" lon="-4.43348">
        <ele>6.6</ele>
        <time>2020-06-08T16:50:42Z</time>
      </trkpt>
      <trkpt lat="48.39103" lon="-4.4335">
        <ele>6.6</ele>
        <time>2020-06-08T16:50:43Z</time>
      </trkpt>
      <trkpt lat="48.39098" lon="-4.43349">
        <ele>6.6</ele>
        <time>2020-06-08T16:50:44Z</time>
      </trkpt>
      <trkpt lat="48.39093" lon="-4.43348">
        <ele>6.7</ele>
        <time>2020-06-08T16:50:45Z</time>
      </trkpt>
      <trkpt lat="48.39088" lon="-4.43347">
        <ele>6.7</ele>
        <time>2020-06-08T16:50:46Z</time>
      </trkpt>
      <trkpt lat="48.39084" lon="-4.43347">
        <ele>6.7</ele>
        <time>2020-06-08T16:50:47Z</time>
      </trkpt>
      <trkpt lat="48.3908" lon="-4.43346">
        <ele>6.7</ele>
        <time>2020-06-08T16:50:48Z</time>
      </trkpt>
      <trkpt lat="48.39075" lon="-4.43345">
        <ele>6.8</ele>
        <time>2020-06-08T16:50:49Z</time>
      </trkpt>
      <trkpt lat="48.3907" lon="-4.43345">
        <ele>6.8</ele>
        <time>2020-06-08T16:50:50Z</time>
      </trkpt>
      <trkpt lat="48.39066" lon="-4.43344">
        <ele>6.8</ele>
        <time>2020-06-08T16:50:51Z</time>
      </trkpt>
      <trkpt lat="48.39062" lon="-4.43343">
        <ele>6.9</ele>
        <time>2020-06-08T16:50:52Z</time>
      </trkpt>
      <trkpt lat="48.39059" lon="-4.43341">
        <ele>6.9</ele>
        <time>2020-06-08T16:50:53Z</time>
      </trkpt>
      <trkpt lat="48.39056" lon="-4.43338">
        <ele>6.9</ele>
        <time>2020-06-08T16:50:54Z</time>
      </trkpt>
      <trkpt lat="48.39052" lon="-4.43339">
        <ele>6.9</ele>
        <time>2020-06-08T16:50:55Z</time>
      </trkpt>
      <trkpt lat="48.39048" lon="-4.43339">
        <ele>6.9</ele>
        <time>2020-06-08T16:50:56Z</time>
      </trkpt>
      <trkpt lat="48.39044" lon="-4.43336">
        <ele>6.9</ele>
        <time>2020-06-08T16:50:57Z</time>
      </trkpt>
      <trkpt lat="48.3904" lon="-4.43335">
        <ele>6.9</ele>
        <time>2020-06-08T16:50:58Z</time>
      </trkpt>
      <trkpt lat="48.39035" lon="-4.43334">
        <ele>6.9</ele>
        <time>2020-06-08T16:50:59Z</time>
      </trkpt>
      <trkpt lat="48.3903" lon="-4.43334">
        <ele>6.8</ele>
        <time>2020-06-08T16:51:00Z</time>
      </trkpt>
      <trkpt lat="48.39025" lon="-4.43334">
        <ele>6.8</ele>
        <time>2020-06-08T16:51:01Z</time>
      </trkpt>
      <trkpt lat="48.3902" lon="-4.43332">
        <ele>6.8</ele>
        <time>2020-06-08T16:51:02Z</time>
      </trkpt>
      <trkpt lat="48.39015" lon="-4.43333">
        <ele>6.8</ele>
        <time>2020-06-08T16:51:03Z</time>
      </trkpt>
      <trkpt lat="48.3901" lon="-4.43334">
        <ele>6.8</ele>
        <time>2020-06-08T16:51:04Z</time>
      </trkpt>
      <trkpt lat="48.39005" lon="-4.43334">
        <ele>6.8</ele>
        <time>2020-06-08T16:51:05Z</time>
      </trkpt>
      <trkpt lat="48.39" lon="-4.43334">
        <ele>6.8</ele>
        <time>2020-06-08T16:51:06Z</time>
      </trkpt>
      <trkpt lat="48.38995" lon="-4.43333">
        <ele>6.8</ele>
        <time>2020-06-08T16:51:07Z</time>
      </trkpt>
      <trkpt lat="48.38989" lon="-4.43331">
        <ele>6.8</ele>
        <time>2020-06-08T16:51:08Z</time>
      </trkpt>
      <trkpt lat="48.38984" lon="-4.4333">
        <ele>6.9</ele>
        <time>2020-06-08T16:51:09Z</time>
      </trkpt>
      <trkpt lat="48.38979" lon="-4.43329">
        <ele>6.9</ele>
        <time>2020-06-08T16:51:10Z</time>
      </trkpt>
      <trkpt lat="48.38974" lon="-4.43329">
        <ele>6.9</ele>
        <time>2020-06-08T16:51:11Z</time>
      </trkpt>
      <trkpt lat="48.38969" lon="-4.43328">
        <ele>6.9</ele>
        <time>2020-06-08T16:51:12Z</time>
      </trkpt>
      <trkpt lat="48.38964" lon="-4.43328">
        <ele>6.9</ele>
        <time>2020-06-08T16:51:13Z</time>
      </trkpt>
      <trkpt lat="48.3896" lon="-4.43328">
        <ele>6.9</ele>
        <time>2020-06-08T16:51:14Z</time>
      </trkpt>
      <trkpt lat="48.38955" lon="-4.43326">
        <ele>6.9</ele>
        <time>2020-06-08T16:51:15Z</time>
      </trkpt>
      <trkpt lat="48.38951" lon="-4.43325">
        <ele>6.9</ele>
        <time>2020-06-08T16:51:16Z</time>
      </trkpt>
      <trkpt lat="48.38948" lon="-4.43325">
        <ele>6.9</ele>
        <time>2020-06-08T16:51:17Z</time>
      </trkpt>
      <trkpt lat="48.38946" lon="-4.4333">
        <ele>6.9</ele>
        <time>2020-06-08T16:51:18Z</time>
      </trkpt>
      <trkpt lat="48.38947" lon="-4.43332">
        <ele>6.9</ele>
        <time>2020-06-08T16:51:19Z</time>
      </trkpt>
      <trkpt lat="48.38948" lon="-4.43338">
        <ele>6.9</ele>
        <time>2020-06-08T16:51:20Z</time>
      </trkpt>
      <trkpt lat="48.38948" lon="-4.43342">
        <ele>7</ele>
        <time>2020-06-08T16:51:21Z</time>
      </trkpt>
      <trkpt lat="48.38948" lon="-4.43346">
        <ele>7</ele>
        <time>2020-06-08T16:51:22Z</time>
      </trkpt>
      <trkpt lat="48.38948" lon="-4.43351">
        <ele>7</ele>
        <time>2020-06-08T16:51:23Z</time>
      </trkpt>
      <trkpt lat="48.38949" lon="-4.43356">
        <ele>7</ele>
        <time>2020-06-08T16:51:24Z</time>
      </trkpt>
      <trkpt lat="48.38949" lon="-4.43361">
        <ele>7.1</ele>
        <time>2020-06-08T16:51:25Z</time>
      </trkpt>
      <trkpt lat="48.38947" lon="-4.43366">
        <ele>7.1</ele>
        <time>2020-06-08T16:51:26Z</time>
      </trkpt>
      <trkpt lat="48.38944" lon="-4.43369">
        <ele>7.1</ele>
        <time>2020-06-08T16:51:27Z</time>
      </trkpt>
      <trkpt lat="48.38941" lon="-4.43371">
        <ele>7.1</ele>
        <time>2020-06-08T16:51:28Z</time>
      </trkpt>
      <trkpt lat="48.38939" lon="-4.43374">
        <ele>7.1</ele>
        <time>2020-06-08T16:51:29Z</time>
      </trkpt>
      <trkpt lat="48.38936" lon="-4.43377">
        <ele>7.1</ele>
        <time>2020-06-08T16:51:30Z</time>
      </trkpt>
      <trkpt lat="48.38933" lon="-4.4338">
        <ele>7.2</ele>
        <time>2020-06-08T16:51:31Z</time>
      </trkpt>
      <trkpt lat="48.38931" lon="-4.43383">
        <ele>7.2</ele>
        <time>2020-06-08T16:51:32Z</time>
      </trkpt>
      <trkpt lat="48.38928" lon="-4.43387">
        <ele>7.2</ele>
        <time>2020-06-08T16:51:33Z</time>
      </trkpt>
      <trkpt lat="48.38925" lon="-4.43391">
        <ele>7.2</ele>
        <time>2020-06-08T16:51:34Z</time>
      </trkpt>
      <trkpt lat="48.38922" lon="-4.43396">
        <ele>7.2</ele>
        <time>2020-06-08T16:51:35Z</time>
      </trkpt>
      <trkpt lat="48.38918" lon="-4.43398">
        <ele>7.3</ele>
        <time>2020-06-08T16:51:36Z</time>
      </trkpt>
      <trkpt lat="48.38915" lon="-4.434">
        <ele>7.3</ele>
        <time>2020-06-08T16:51:37Z</time>
      </trkpt>
      <trkpt lat="48.38913" lon="-4.43403">
        <ele>7.3</ele>
        <time>2020-06-08T16:51:38Z</time>
      </trkpt>
      <trkpt lat="48.3891" lon="-4.43406">
        <ele>7.3</ele>
        <time>2020-06-08T16:51:39Z</time>
      </trkpt>
      <trkpt lat="48.38908" lon="-4.43409">
        <ele>7.3</ele>
        <time>2020-06-08T16:51:40Z</time>
      </trkpt>
      <trkpt lat="48.38905" lon="-4.4341">
        <ele>7.4</ele>
        <time>2020-06-08T16:51:41Z</time>
      </trkpt>
      <trkpt lat="48.38903" lon="-4.43414">
        <ele>7.3</ele>
        <time>2020-06-08T16:51:42Z</time>
      </trkpt>
      <trkpt lat="48.38902" lon="-4.43418">
        <ele>7.4</ele>
        <time>2020-06-08T16:51:43Z</time>
      </trkpt>
      <trkpt lat="48.389" lon="-4.43421">
        <ele>7.4</ele>
        <time>2020-06-08T16:51:44Z</time>
      </trkpt>
      <trkpt lat="48.38898" lon="-4.43425">
        <ele>7.4</ele>
        <time>2020-06-08T16:51:45Z</time>
      </trkpt>
      <trkpt lat="48.38896" lon="-4.43429">
        <ele>7.4</ele>
        <time>2020-06-08T16:51:46Z</time>
      </trkpt>
      <trkpt lat="48.38894" lon="-4.43433">
        <ele>7.5</ele>
        <time>2020-06-08T16:51:47Z</time>
      </trkpt>
      <trkpt lat="48.3889" lon="-4.43435">
        <ele>7.5</ele>
        <time>2020-06-08T16:51:48Z</time>
      </trkpt>
      <trkpt lat="48.38887" lon="-4.43438">
        <ele>7.5</ele>
        <time>2020-06-08T16:51:49Z</time>
      </trkpt>
      <trkpt lat="48.38884" lon="-4.43442">
        <ele>7.6</ele>
        <time>2020-06-08T16:51:50Z</time>
      </trkpt>
      <trkpt lat="48.3888" lon="-4.43445">
        <ele>7.6</ele>
        <time>2020-06-08T16:51:51Z</time>
      </trkpt>
      <trkpt lat="48.38876" lon="-4.43447">
        <ele>7.6</ele>
        <time>2020-06-08T16:51:52Z</time>
      </trkpt>
      <trkpt lat="48.38872" lon="-4.43449">
        <ele>7.7</ele>
        <time>2020-06-08T16:51:53Z</time>
      </trkpt>
      <trkpt lat="48.38869" lon="-4.43452">
        <ele>7.7</ele>
        <time>2020-06-08T16:51:54Z</time>
      </trkpt>
      <trkpt lat="48.38865" lon="-4.43453">
        <ele>7.8</ele>
        <time>2020-06-08T16:51:55Z</time>
      </trkpt>
      <trkpt lat="48.38862" lon="-4.43456">
        <ele>7.8</ele>
        <time>2020-06-08T16:51:56Z</time>
      </trkpt>
      <trkpt lat="48.38858" lon="-4.43459">
        <ele>7.9</ele>
        <time>2020-06-08T16:51:57Z</time>
      </trkpt>
      <trkpt lat="48.38854" lon="-4.43462">
        <ele>7.9</ele>
        <time>2020-06-08T16:51:58Z</time>
      </trkpt>
      <trkpt lat="48.38851" lon="-4.43465">
        <ele>8</ele>
        <time>2020-06-08T16:51:59Z</time>
      </trkpt>
      <trkpt lat="48.38847" lon="-4.43467">
        <ele>8.1</ele>
        <time>2020-06-08T16:52:00Z</time>
      </trkpt>
      <trkpt lat="48.38844" lon="-4.43472">
        <ele>8.1</ele>
        <time>2020-06-08T16:52:01Z</time>
      </trkpt>
      <trkpt lat="48.38841" lon="-4.43475">
        <ele>8.2</ele>
        <time>2020-06-08T16:52:02Z</time>
      </trkpt>
      <trkpt lat="48.38838" lon="-4.43478">
        <ele>8.2</ele>
        <time>2020-06-08T16:52:03Z</time>
      </trkpt>
      <trkpt lat="48.38834" lon="-4.4348">
        <ele>8.2</ele>
        <time>2020-06-08T16:52:04Z</time>
      </trkpt>
      <trkpt lat="48.38831" lon="-4.43483">
        <ele>8.2</ele>
        <time>2020-06-08T16:52:05Z</time>
      </trkpt>
      <trkpt lat="48.38827" lon="-4.43487">
        <ele>8.3</ele>
        <time>2020-06-08T16:52:06Z</time>
      </trkpt>
      <trkpt lat="48.38824" lon="-4.43491">
        <ele>8.3</ele>
        <time>2020-06-08T16:52:07Z</time>
      </trkpt>
      <trkpt lat="48.3882" lon="-4.43494">
        <ele>8.3</ele>
        <time>2020-06-08T16:52:08Z</time>
      </trkpt>
      <trkpt lat="48.38816" lon="-4.43497">
        <ele>8.4</ele>
        <time>2020-06-08T16:52:09Z</time>
      </trkpt>
      <trkpt lat="48.38811" lon="-4.435">
        <ele>8.4</ele>
        <time>2020-06-08T16:52:10Z</time>
      </trkpt>
      <trkpt lat="48.38806" lon="-4.43502">
        <ele>8.5</ele>
        <time>2020-06-08T16:52:11Z</time>
      </trkpt>
      <trkpt lat="48.38801" lon="-4.43504">
        <ele>8.6</ele>
        <time>2020-06-08T16:52:12Z</time>
      </trkpt>
      <trkpt lat="48.38796" lon="-4.43507">
        <ele>8.6</ele>
        <time>2020-06-08T16:52:13Z</time>
      </trkpt>
      <trkpt lat="48.38792" lon="-4.43511">
        <ele>8.6</ele>
        <time>2020-06-08T16:52:14Z</time>
      </trkpt>
      <trkpt lat="48.38787" lon="-4.43514">
        <ele>8.5</ele>
        <time>2020-06-08T16:52:15Z</time>
      </trkpt>
      <trkpt lat="48.38783" lon="-4.43518">
        <ele>8.5</ele>
        <time>2020-06-08T16:52:16Z</time>
      </trkpt>
      <trkpt lat="48.38779" lon="-4.4352">
        <ele>8.5</ele>
        <time>2020-06-08T16:52:17Z</time>
      </trkpt>
      <trkpt lat="48.38775" lon="-4.43522">
        <ele>8.5</ele>
        <time>2020-06-08T16:52:18Z</time>
      </trkpt>
      <trkpt lat="48.38772" lon="-4.43525">
        <ele>8.5</ele>
        <time>2020-06-08T16:52:19Z</time>
      </trkpt>
      <trkpt lat="48.3877" lon="-4.43529">
        <ele>8.5</ele>
        <time>2020-06-08T16:52:20Z</time>
      </trkpt>
      <trkpt lat="48.38768" lon="-4.43532">
        <ele>8.4</ele>
        <time>2020-06-08T16:52:21Z</time>
      </trkpt>
      <trkpt lat="48.38766" lon="-4.43536">
        <ele>8.4</ele>
        <time>2020-06-08T16:52:22Z</time>
      </trkpt>
      <trkpt lat="48.38765" lon="-4.4354">
        <ele>8.4</ele>
        <time>2020-06-08T16:52:23Z</time>
      </trkpt>
      <trkpt lat="48.38761" lon="-4.43541">
        <ele>8.5</ele>
        <time>2020-06-08T16:52:24Z</time>
      </trkpt>
      <trkpt lat="48.38757" lon="-4.43541">
        <ele>8.5</ele>
        <time>2020-06-08T16:52:25Z</time>
      </trkpt>
      <trkpt lat="48.38754" lon="-4.43543">
        <ele>8.6</ele>
        <time>2020-06-08T16:52:26Z</time>
      </trkpt>
      <trkpt lat="48.38751" lon="-4.43545">
        <ele>8.6</ele>
        <time>2020-06-08T16:52:27Z</time>
      </trkpt>
      <trkpt lat="48.38748" lon="-4.43547">
        <ele>8.6</ele>
        <time>2020-06-08T16:52:28Z</time>
      </trkpt>
      <trkpt lat="48.38745" lon="-4.43549">
        <ele>8.7</ele>
        <time>2020-06-08T16:52:29Z</time>
      </trkpt>
      <trkpt lat="48.38742" lon="-4.43551">
        <ele>8.7</ele>
        <time>2020-06-08T16:52:30Z</time>
      </trkpt>
      <trkpt lat="48.38739" lon="-4.43554">
        <ele>8.8</ele>
        <time>2020-06-08T16:52:31Z</time>
      </trkpt>
      <trkpt lat="48.38736" lon="-4.43557">
        <ele>8.8</ele>
        <time>2020-06-08T16:52:32Z</time>
      </trkpt>
      <trkpt lat="48.38734" lon="-4.43559">
        <ele>8.8</ele>
        <time>2020-06-08T16:52:33Z</time>
      </trkpt>
      <trkpt lat="48.38731" lon="-4.43561">
        <ele>8.8</ele>
        <time>2020-06-08T16:52:34Z</time>
      </trkpt>
      <trkpt lat="48.38728" lon="-4.43563">
        <ele>8.8</ele>
        <time>2020-06-08T16:52:35Z</time>
      </trkpt>
      <trkpt lat="48.38725" lon="-4.43565">
        <ele>8.8</ele>
        <time>2020-06-08T16:52:36Z</time>
      </trkpt>
      <trkpt lat="48.38724" lon="-4.43566">
        <ele>8.8</ele>
        <time>2020-06-08T16:52:37Z</time>
      </trkpt>
      <trkpt lat="48.38722" lon="-4.43566">
        <ele>8.8</ele>
        <time>2020-06-08T16:52:38Z</time>
      </trkpt>
      <trkpt lat="48.3872" lon="-4.43566">
        <ele>8.8</ele>
        <time>2020-06-08T16:52:39Z</time>
      </trkpt>
      <trkpt lat="48.38719" lon="-4.43568">
        <ele>8.8</ele>
        <time>2020-06-08T16:52:40Z</time>
      </trkpt>
      <trkpt lat="48.38718" lon="-4.43569">
        <ele>8.8</ele>
        <time>2020-06-08T16:52:41Z</time>
      </trkpt>
      <trkpt lat="48.38717" lon="-4.43571">
        <ele>8.8</ele>
        <time>2020-06-08T16:52:42Z</time>
      </trkpt>
      <trkpt lat="48.38715" lon="-4.43572">
        <ele>8.8</ele>
        <time>2020-06-08T16:52:43Z</time>
      </trkpt>
      <trkpt lat="48.38713" lon="-4.43574">
        <ele>8.8</ele>
        <time>2020-06-08T16:52:44Z</time>
      </trkpt>
      <trkpt lat="48.38712" lon="-4.43574">
        <ele>8.8</ele>
        <time>2020-06-08T16:52:45Z</time>
      </trkpt>
      <trkpt lat="48.38711" lon="-4.43575">
        <ele>8.8</ele>
        <time>2020-06-08T16:52:46Z</time>
      </trkpt>
      <trkpt lat="48.38708" lon="-4.43578">
        <ele>8.8</ele>
        <time>2020-06-08T16:52:47Z</time>
      </trkpt>
      <trkpt lat="48.38707" lon="-4.43579">
        <ele>8.8</ele>
        <time>2020-06-08T16:52:48Z</time>
      </trkpt>
      <trkpt lat="48.38705" lon="-4.4358">
        <ele>8.8</ele>
        <time>2020-06-08T16:52:49Z</time>
      </trkpt>
      <trkpt lat="48.38704" lon="-4.4358">
        <ele>8.8</ele>
        <time>2020-06-08T16:52:50Z</time>
      </trkpt>
      <trkpt lat="48.38701" lon="-4.43581">
        <ele>8.7</ele>
        <time>2020-06-08T16:52:51Z</time>
      </trkpt>
      <trkpt lat="48.387" lon="-4.43581">
        <ele>8.7</ele>
        <time>2020-06-08T16:52:52Z</time>
      </trkpt>
      <trkpt lat="48.38696" lon="-4.43583">
        <ele>8.7</ele>
        <time>2020-06-08T16:52:53Z</time>
      </trkpt>
      <trkpt lat="48.38695" lon="-4.43583">
        <ele>8.7</ele>
        <time>2020-06-08T16:52:54Z</time>
      </trkpt>
      <trkpt lat="48.38692" lon="-4.43585">
        <ele>8.7</ele>
        <time>2020-06-08T16:52:55Z</time>
      </trkpt>
      <trkpt lat="48.38691" lon="-4.43586">
        <ele>8.7</ele>
        <time>2020-06-08T16:52:56Z</time>
      </trkpt>
      <trkpt lat="48.38689" lon="-4.43589">
        <ele>8.7</ele>
        <time>2020-06-08T16:52:57Z</time>
      </trkpt>
      <trkpt lat="48.38686" lon="-4.43591">
        <ele>8.7</ele>
        <time>2020-06-08T16:52:58Z</time>
      </trkpt>
      <trkpt lat="48.38685" lon="-4.43592">
        <ele>8.7</ele>
        <time>2020-06-08T16:52:59Z</time>
      </trkpt>
      <trkpt lat="48.38682" lon="-4.43592">
        <ele>8.6</ele>
        <time>2020-06-08T16:53:00Z</time>
      </trkpt>
      <trkpt lat="48.38681" lon="-4.43591">
        <ele>8.6</ele>
        <time>2020-06-08T16:53:01Z</time>
      </trkpt>
      <trkpt lat="48.3868" lon="-4.43591">
        <ele>8.6</ele>
        <time>2020-06-08T16:53:02Z</time>
      </trkpt>
      <trkpt lat="48.38679" lon="-4.43591">
        <ele>8.6</ele>
        <time>2020-06-08T16:53:03Z</time>
      </trkpt>
      <trkpt lat="48.38678" lon="-4.43589">
        <ele>8.6</ele>
        <time>2020-06-08T16:53:04Z</time>
      </trkpt>
      <trkpt lat="48.38679" lon="-4.43584">
        <ele>8.6</ele>
        <time>2020-06-08T16:53:05Z</time>
      </trkpt>
      <trkpt lat="48.38677" lon="-4.43583">
        <ele>8.6</ele>
        <time>2020-06-08T16:53:06Z</time>
      </trkpt>
      <trkpt lat="48.38676" lon="-4.43583">
        <ele>8.6</ele>
        <time>2020-06-08T16:53:07Z</time>
      </trkpt>
      <trkpt lat="48.38675" lon="-4.43583">
        <ele>8.6</ele>
        <time>2020-06-08T16:53:08Z</time>
      </trkpt>
      <trkpt lat="48.38674" lon="-4.43583">
        <ele>8.6</ele>
        <time>2020-06-08T16:53:09Z</time>
      </trkpt>
      <trkpt lat="48.38672" lon="-4.43583">
        <ele>8.6</ele>
        <time>2020-06-08T16:53:10Z</time>
      </trkpt>
      <trkpt lat="48.38671" lon="-4.43583">
        <ele>8.6</ele>
        <time>2020-06-08T16:53:11Z</time>
      </trkpt>
      <trkpt lat="48.3867" lon="-4.43583">
        <ele>8.6</ele>
        <time>2020-06-08T16:53:12Z</time>
      </trkpt>
      <trkpt lat="48.38669" lon="-4.43583">
        <ele>8.6</ele>
        <time>2020-06-08T16:53:13Z</time>
      </trkpt>
      <trkpt lat="48.38668" lon="-4.43583">
        <ele>8.6</ele>
        <time>2020-06-08T16:53:14Z</time>
      </trkpt>
      <trkpt lat="48.38666" lon="-4.43584">
        <ele>8.6</ele>
        <time>2020-06-08T16:53:15Z</time>
      </trkpt>
      <trkpt lat="48.38665" lon="-4.43584">
        <ele>8.6</ele>
        <time>2020-06-08T16:53:16Z</time>
      </trkpt>
      <trkpt lat="48.38664" lon="-4.43584">
        <ele>8.6</ele>
        <time>2020-06-08T16:54:07Z</time>
      </trkpt>
      <trkpt lat="48.38663" lon="-4.43584">
        <ele>8.6</ele>
        <time>2020-06-08T16:54:08Z</time>
      </trkpt>
      <trkpt lat="48.38662" lon="-4.43584">
        <ele>8.6</ele>
        <time>2020-06-08T16:54:09Z</time>
      </trkpt>
      <trkpt lat="48.3866" lon="-4.43585">
        <ele>8.6</ele>
        <time>2020-06-08T16:54:10Z</time>
      </trkpt>
      <trkpt lat="48.38659" lon="-4.43587">
        <ele>8.6</ele>
        <time>2020-06-08T16:54:11Z</time>
      </trkpt>
      <trkpt lat="48.38658" lon="-4.43588">
        <ele>8.6</ele>
        <time>2020-06-08T16:54:12Z</time>
      </trkpt>
      <trkpt lat="48.38656" lon="-4.43588">
        <ele>8.6</ele>
        <time>2020-06-08T16:54:13Z</time>
      </trkpt>
      <trkpt lat="48.38653" lon="-4.43588">
        <ele>8.6</ele>
        <time>2020-06-08T16:54:14Z</time>
      </trkpt>
      <trkpt lat="48.38651" lon="-4.43588">
        <ele>8.6</ele>
        <time>2020-06-08T16:54:15Z</time>
      </trkpt>
      <trkpt lat="48.38649" lon="-4.4359">
        <ele>8.6</ele>
        <time>2020-06-08T16:54:16Z</time>
      </trkpt>
      <trkpt lat="48.38645" lon="-4.43591">
        <ele>8.6</ele>
        <time>2020-06-08T16:54:17Z</time>
      </trkpt>
      <trkpt lat="48.38642" lon="-4.43593">
        <ele>8.6</ele>
        <time>2020-06-08T16:54:18Z</time>
      </trkpt>
      <trkpt lat="48.38642" lon="-4.43594">
        <ele>8.5</ele>
        <time>2020-06-08T16:54:19Z</time>
      </trkpt>
      <trkpt lat="48.38639" lon="-4.43596">
        <ele>8.5</ele>
        <time>2020-06-08T16:54:20Z</time>
      </trkpt>
      <trkpt lat="48.38638" lon="-4.43597">
        <ele>8.5</ele>
        <time>2020-06-08T16:54:21Z</time>
      </trkpt>
      <trkpt lat="48.38635" lon="-4.43599">
        <ele>8.5</ele>
        <time>2020-06-08T16:54:22Z</time>
      </trkpt>
      <trkpt lat="48.38633" lon="-4.43599">
        <ele>8.5</ele>
        <time>2020-06-08T16:54:23Z</time>
      </trkpt>
      <trkpt lat="48.38629" lon="-4.43601">
        <ele>8.5</ele>
        <time>2020-06-08T16:54:24Z</time>
      </trkpt>
      <trkpt lat="48.38628" lon="-4.43601">
        <ele>8.5</ele>
        <time>2020-06-08T16:54:25Z</time>
      </trkpt>
      <trkpt lat="48.38625" lon="-4.43603">
        <ele>8.4</ele>
        <time>2020-06-08T16:54:26Z</time>
      </trkpt>
      <trkpt lat="48.38622" lon="-4.43605">
        <ele>8.4</ele>
        <time>2020-06-08T16:54:27Z</time>
      </trkpt>
      <trkpt lat="48.38621" lon="-4.43606">
        <ele>8.4</ele>
        <time>2020-06-08T16:54:28Z</time>
      </trkpt>
      <trkpt lat="48.38618" lon="-4.43608">
        <ele>8.4</ele>
        <time>2020-06-08T16:54:29Z</time>
      </trkpt>
      <trkpt lat="48.38615" lon="-4.4361">
        <ele>8.3</ele>
        <time>2020-06-08T16:54:30Z</time>
      </trkpt>
      <trkpt lat="48.38612" lon="-4.4361">
        <ele>8.3</ele>
        <time>2020-06-08T16:54:31Z</time>
      </trkpt>
      <trkpt lat="48.38608" lon="-4.43609">
        <ele>8.2</ele>
        <time>2020-06-08T16:54:32Z</time>
      </trkpt>
      <trkpt lat="48.38605" lon="-4.4361">
        <ele>8.1</ele>
        <time>2020-06-08T16:54:33Z</time>
      </trkpt>
      <trkpt lat="48.38602" lon="-4.43611">
        <ele>8.1</ele>
        <time>2020-06-08T16:54:34Z</time>
      </trkpt>
      <trkpt lat="48.38599" lon="-4.43611">
        <ele>8</ele>
        <time>2020-06-08T16:54:35Z</time>
      </trkpt>
      <trkpt lat="48.38595" lon="-4.43612">
        <ele>8</ele>
        <time>2020-06-08T16:54:36Z</time>
      </trkpt>
      <trkpt lat="48.38592" lon="-4.43612">
        <ele>7.9</ele>
        <time>2020-06-08T16:54:37Z</time>
      </trkpt>
      <trkpt lat="48.38588" lon="-4.43613">
        <ele>7.8</ele>
        <time>2020-06-08T16:54:38Z</time>
      </trkpt>
      <trkpt lat="48.38585" lon="-4.43614">
        <ele>7.8</ele>
        <time>2020-06-08T16:54:39Z</time>
      </trkpt>
      <trkpt lat="48.38582" lon="-4.43616">
        <ele>7.7</ele>
        <time>2020-06-08T16:54:40Z</time>
      </trkpt>
      <trkpt lat="48.38578" lon="-4.43617">
        <ele>7.7</ele>
        <time>2020-06-08T16:54:41Z</time>
      </trkpt>
      <trkpt lat="48.38575" lon="-4.43618">
        <ele>7.7</ele>
        <time>2020-06-08T16:54:42Z</time>
      </trkpt>
      <trkpt lat="48.38572" lon="-4.43619">
        <ele>7.6</ele>
        <time>2020-06-08T16:54:43Z</time>
      </trkpt>
      <trkpt lat="48.38569" lon="-4.43621">
        <ele>7.6</ele>
        <time>2020-06-08T16:54:44Z</time>
      </trkpt>
      <trkpt lat="48.38565" lon="-4.43622">
        <ele>7.5</ele>
        <time>2020-06-08T16:54:45Z</time>
      </trkpt>
      <trkpt lat="48.38561" lon="-4.43622">
        <ele>7.5</ele>
        <time>2020-06-08T16:54:46Z</time>
      </trkpt>
      <trkpt lat="48.38557" lon="-4.43623">
        <ele>7.5</ele>
        <time>2020-06-08T16:54:47Z</time>
      </trkpt>
      <trkpt lat="48.38553" lon="-4.43624">
        <ele>7.4</ele>
        <time>2020-06-08T16:54:48Z</time>
      </trkpt>
      <trkpt lat="48.38549" lon="-4.43625">
        <ele>7.4</ele>
        <time>2020-06-08T16:54:49Z</time>
      </trkpt>
      <trkpt lat="48.38546" lon="-4.43627">
        <ele>7.4</ele>
        <time>2020-06-08T16:54:50Z</time>
      </trkpt>
      <trkpt lat="48.38543" lon="-4.43629">
        <ele>7.3</ele>
        <time>2020-06-08T16:54:51Z</time>
      </trkpt>
      <trkpt lat="48.3854" lon="-4.43634">
        <ele>7.3</ele>
        <time>2020-06-08T16:54:52Z</time>
      </trkpt>
      <trkpt lat="48.38537" lon="-4.43638">
        <ele>7.2</ele>
        <time>2020-06-08T16:54:53Z</time>
      </trkpt>
      <trkpt lat="48.38534" lon="-4.4364">
        <ele>7.2</ele>
        <time>2020-06-08T16:54:54Z</time>
      </trkpt>
      <trkpt lat="48.3853" lon="-4.43638">
        <ele>7.2</ele>
        <time>2020-06-08T16:54:55Z</time>
      </trkpt>
      <trkpt lat="48.38528" lon="-4.43632">
        <ele>7.2</ele>
        <time>2020-06-08T16:54:56Z</time>
      </trkpt>
      <trkpt lat="48.38528" lon="-4.43626">
        <ele>7.5</ele>
        <time>2020-06-08T16:54:57Z</time>
      </trkpt>
      <trkpt lat="48.3853" lon="-4.4362">
        <ele>7.6</ele>
        <time>2020-06-08T16:54:58Z</time>
      </trkpt>
      <trkpt lat="48.38533" lon="-4.43617">
        <ele>7.6</ele>
        <time>2020-06-08T16:54:59Z</time>
      </trkpt>
      <trkpt lat="48.38536" lon="-4.43617">
        <ele>7.6</ele>
        <time>2020-06-08T16:55:00Z</time>
      </trkpt>
      <trkpt lat="48.38539" lon="-4.4362">
        <ele>7.4</ele>
        <time>2020-06-08T16:55:01Z</time>
      </trkpt>
      <trkpt lat="48.3854" lon="-4.43621">
        <ele>7.4</ele>
        <time>2020-06-08T16:55:02Z</time>
      </trkpt>
      <trkpt lat="48.38541" lon="-4.43626">
        <ele>7.4</ele>
        <time>2020-06-08T16:55:03Z</time>
      </trkpt>
      <trkpt lat="48.38541" lon="-4.43628">
        <ele>7.4</ele>
        <time>2020-06-08T16:55:04Z</time>
      </trkpt>
      <trkpt lat="48.38542" lon="-4.43633">
        <ele>7.2</ele>
        <time>2020-06-08T16:55:05Z</time>
      </trkpt>
      <trkpt lat="48.38543" lon="-4.43637">
        <ele>7.2</ele>
        <time>2020-06-08T16:55:06Z</time>
      </trkpt>
      <trkpt lat="48.38545" lon="-4.43641">
        <ele>7.2</ele>
        <time>2020-06-08T16:55:07Z</time>
      </trkpt>
      <trkpt lat="48.38548" lon="-4.43643">
        <ele>7.2</ele>
        <time>2020-06-08T16:55:08Z</time>
      </trkpt>
      <trkpt lat="48.38552" lon="-4.43645">
        <ele>7.2</ele>
        <time>2020-06-08T16:55:09Z</time>
      </trkpt>
      <trkpt lat="48.38555" lon="-4.43646">
        <ele>7.2</ele>
        <time>2020-06-08T16:55:10Z</time>
      </trkpt>
      <trkpt lat="48.38559" lon="-4.43647">
        <ele>7.2</ele>
        <time>2020-06-08T16:55:11Z</time>
      </trkpt>
      <trkpt lat="48.38563" lon="-4.43649">
        <ele>7.2</ele>
        <time>2020-06-08T16:55:12Z</time>
      </trkpt>
      <trkpt lat="48.38567" lon="-4.43651">
        <ele>7.2</ele>
        <time>2020-06-08T16:55:13Z</time>
      </trkpt>
      <trkpt lat="48.3857" lon="-4.43653">
        <ele>7.2</ele>
        <time>2020-06-08T16:55:14Z</time>
      </trkpt>
      <trkpt lat="48.38574" lon="-4.43655">
        <ele>7.2</ele>
        <time>2020-06-08T16:55:15Z</time>
      </trkpt>
      <trkpt lat="48.38578" lon="-4.43656">
        <ele>7.3</ele>
        <time>2020-06-08T16:55:16Z</time>
      </trkpt>
      <trkpt lat="48.38581" lon="-4.43659">
        <ele>7.3</ele>
        <time>2020-06-08T16:55:17Z</time>
      </trkpt>
      <trkpt lat="48.38584" lon="-4.43661">
        <ele>7.3</ele>
        <time>2020-06-08T16:55:18Z</time>
      </trkpt>
      <trkpt lat="48.38588" lon="-4.43663">
        <ele>7.3</ele>
        <time>2020-06-08T16:55:19Z</time>
      </trkpt>
      <trkpt lat="48.38591" lon="-4.43666">
        <ele>7.4</ele>
        <time>2020-06-08T16:55:20Z</time>
      </trkpt>
      <trkpt lat="48.38594" lon="-4.43669">
        <ele>7.4</ele>
        <time>2020-06-08T16:55:21Z</time>
      </trkpt>
      <trkpt lat="48.38598" lon="-4.4367">
        <ele>7.4</ele>
        <time>2020-06-08T16:55:22Z</time>
      </trkpt>
      <trkpt lat="48.38602" lon="-4.43672">
        <ele>7.5</ele>
        <time>2020-06-08T16:55:23Z</time>
      </trkpt>
      <trkpt lat="48.38606" lon="-4.43674">
        <ele>7.5</ele>
        <time>2020-06-08T16:55:24Z</time>
      </trkpt>
      <trkpt lat="48.38609" lon="-4.43677">
        <ele>7.5</ele>
        <time>2020-06-08T16:55:25Z</time>
      </trkpt>
      <trkpt lat="48.38613" lon="-4.4368">
        <ele>7.6</ele>
        <time>2020-06-08T16:55:26Z</time>
      </trkpt>
      <trkpt lat="48.38617" lon="-4.43682">
        <ele>7.6</ele>
        <time>2020-06-08T16:55:27Z</time>
      </trkpt>
      <trkpt lat="48.38621" lon="-4.43684">
        <ele>7.6</ele>
        <time>2020-06-08T16:55:28Z</time>
      </trkpt>
      <trkpt lat="48.38625" lon="-4.43686">
        <ele>7.7</ele>
        <time>2020-06-08T16:55:29Z</time>
      </trkpt>
      <trkpt lat="48.38629" lon="-4.43688">
        <ele>7.7</ele>
        <time>2020-06-08T16:55:30Z</time>
      </trkpt>
      <trkpt lat="48.38632" lon="-4.43691">
        <ele>7.7</ele>
        <time>2020-06-08T16:55:31Z</time>
      </trkpt>
      <trkpt lat="48.38637" lon="-4.43693">
        <ele>7.7</ele>
        <time>2020-06-08T16:55:32Z</time>
      </trkpt>
      <trkpt lat="48.38641" lon="-4.43696">
        <ele>7.7</ele>
        <time>2020-06-08T16:55:33Z</time>
      </trkpt>
      <trkpt lat="48.38645" lon="-4.43698">
        <ele>7.9</ele>
        <time>2020-06-08T16:55:34Z</time>
      </trkpt>
      <trkpt lat="48.38648" lon="-4.437">
        <ele>7.9</ele>
        <time>2020-06-08T16:55:35Z</time>
      </trkpt>
      <trkpt lat="48.38652" lon="-4.43702">
        <ele>8</ele>
        <time>2020-06-08T16:55:36Z</time>
      </trkpt>
      <trkpt lat="48.38655" lon="-4.43704">
        <ele>8.1</ele>
        <time>2020-06-08T16:55:37Z</time>
      </trkpt>
      <trkpt lat="48.38658" lon="-4.43706">
        <ele>8.1</ele>
        <time>2020-06-08T16:55:38Z</time>
      </trkpt>
      <trkpt lat="48.38661" lon="-4.43709">
        <ele>8.2</ele>
        <time>2020-06-08T16:55:39Z</time>
      </trkpt>
      <trkpt lat="48.38664" lon="-4.4371">
        <ele>8.2</ele>
        <time>2020-06-08T16:55:40Z</time>
      </trkpt>
      <trkpt lat="48.38667" lon="-4.43712">
        <ele>8.3</ele>
        <time>2020-06-08T16:55:41Z</time>
      </trkpt>
      <trkpt lat="48.38671" lon="-4.43714">
        <ele>8.3</ele>
        <time>2020-06-08T16:55:42Z</time>
      </trkpt>
      <trkpt lat="48.38675" lon="-4.43716">
        <ele>8.4</ele>
        <time>2020-06-08T16:55:43Z</time>
      </trkpt>
      <trkpt lat="48.38679" lon="-4.43718">
        <ele>8.4</ele>
        <time>2020-06-08T16:55:44Z</time>
      </trkpt>
      <trkpt lat="48.38683" lon="-4.4372">
        <ele>8.4</ele>
        <time>2020-06-08T16:55:45Z</time>
      </trkpt>
      <trkpt lat="48.38687" lon="-4.43724">
        <ele>8.5</ele>
        <time>2020-06-08T16:55:46Z</time>
      </trkpt>
      <trkpt lat="48.38692" lon="-4.43727">
        <ele>8.5</ele>
        <time>2020-06-08T16:55:47Z</time>
      </trkpt>
      <trkpt lat="48.38696" lon="-4.4373">
        <ele>8.5</ele>
        <time>2020-06-08T16:55:48Z</time>
      </trkpt>
      <trkpt lat="48.387" lon="-4.43732">
        <ele>8.6</ele>
        <time>2020-06-08T16:55:49Z</time>
      </trkpt>
      <trkpt lat="48.38703" lon="-4.43733">
        <ele>8.6</ele>
        <time>2020-06-08T16:55:50Z</time>
      </trkpt>
      <trkpt lat="48.38707" lon="-4.43735">
        <ele>8.6</ele>
        <time>2020-06-08T16:55:51Z</time>
      </trkpt>
      <trkpt lat="48.38711" lon="-4.43737">
        <ele>8.6</ele>
        <time>2020-06-08T16:55:52Z</time>
      </trkpt>
      <trkpt lat="48.38714" lon="-4.43739">
        <ele>8.6</ele>
        <time>2020-06-08T16:55:53Z</time>
      </trkpt>
      <trkpt lat="48.38717" lon="-4.43741">
        <ele>8.6</ele>
        <time>2020-06-08T16:55:54Z</time>
      </trkpt>
      <trkpt lat="48.38721" lon="-4.43744">
        <ele>8.6</ele>
        <time>2020-06-08T16:55:55Z</time>
      </trkpt>
      <trkpt lat="48.38723" lon="-4.43745">
        <ele>8.6</ele>
        <time>2020-06-08T16:55:56Z</time>
      </trkpt>
      <trkpt lat="48.38727" lon="-4.43748">
        <ele>8.6</ele>
        <time>2020-06-08T16:55:57Z</time>
      </trkpt>
      <trkpt lat="48.38729" lon="-4.43749">
        <ele>8.7</ele>
        <time>2020-06-08T16:55:58Z</time>
      </trkpt>
      <trkpt lat="48.38732" lon="-4.43751">
        <ele>8.7</ele>
        <time>2020-06-08T16:55:59Z</time>
      </trkpt>
      <trkpt lat="48.38736" lon="-4.43753">
        <ele>8.7</ele>
        <time>2020-06-08T16:56:00Z</time>
      </trkpt>
      <trkpt lat="48.3874" lon="-4.43755">
        <ele>8.8</ele>
        <time>2020-06-08T16:56:01Z</time>
      </trkpt>
      <trkpt lat="48.38744" lon="-4.43757">
        <ele>8.8</ele>
        <time>2020-06-08T16:56:02Z</time>
      </trkpt>
      <trkpt lat="48.38747" lon="-4.43758">
        <ele>8.9</ele>
        <time>2020-06-08T16:56:03Z</time>
      </trkpt>
      <trkpt lat="48.3875" lon="-4.43761">
        <ele>8.9</ele>
        <time>2020-06-08T16:56:04Z</time>
      </trkpt>
      <trkpt lat="48.38754" lon="-4.43762">
        <ele>9</ele>
        <time>2020-06-08T16:56:05Z</time>
      </trkpt>
      <trkpt lat="48.38756" lon="-4.43764">
        <ele>9</ele>
        <time>2020-06-08T16:56:06Z</time>
      </trkpt>
      <trkpt lat="48.38759" lon="-4.43766">
        <ele>9.1</ele>
        <time>2020-06-08T16:56:07Z</time>
      </trkpt>
      <trkpt lat="48.38763" lon="-4.43769">
        <ele>9.1</ele>
        <time>2020-06-08T16:56:08Z</time>
      </trkpt>
      <trkpt lat="48.38765" lon="-4.4377">
        <ele>9.1</ele>
        <time>2020-06-08T16:56:09Z</time>
      </trkpt>
      <trkpt lat="48.38768" lon="-4.43772">
        <ele>9.2</ele>
        <time>2020-06-08T16:56:10Z</time>
      </trkpt>
      <trkpt lat="48.38771" lon="-4.43774">
        <ele>9.3</ele>
        <time>2020-06-08T16:56:11Z</time>
      </trkpt>
      <trkpt lat="48.38774" lon="-4.43777">
        <ele>9.3</ele>
        <time>2020-06-08T16:56:12Z</time>
      </trkpt>
      <trkpt lat="48.38777" lon="-4.43779">
        <ele>9.4</ele>
        <time>2020-06-08T16:56:13Z</time>
      </trkpt>
      <trkpt lat="48.3878" lon="-4.43782">
        <ele>9.4</ele>
        <time>2020-06-08T16:56:14Z</time>
      </trkpt>
      <trkpt lat="48.38783" lon="-4.43784">
        <ele>9.4</ele>
        <time>2020-06-08T16:56:15Z</time>
      </trkpt>
      <trkpt lat="48.38787" lon="-4.43787">
        <ele>9.5</ele>
        <time>2020-06-08T16:56:16Z</time>
      </trkpt>
      <trkpt lat="48.38789" lon="-4.43789">
        <ele>9.5</ele>
        <time>2020-06-08T16:56:17Z</time>
      </trkpt>
      <trkpt lat="48.38788" lon="-4.43795">
        <ele>9.6</ele>
        <time>2020-06-08T16:56:18Z</time>
      </trkpt>
      <trkpt lat="48.38788" lon="-4.43797">
        <ele>9.6</ele>
        <time>2020-06-08T16:56:19Z</time>
      </trkpt>
      <trkpt lat="48.3879" lon="-4.43803">
        <ele>9.6</ele>
        <time>2020-06-08T16:56:20Z</time>
      </trkpt>
      <trkpt lat="48.38791" lon="-4.43805">
        <ele>9.6</ele>
        <time>2020-06-08T16:56:21Z</time>
      </trkpt>
      <trkpt lat="48.38793" lon="-4.43808">
        <ele>9.7</ele>
        <time>2020-06-08T16:56:22Z</time>
      </trkpt>
      <trkpt lat="48.38796" lon="-4.43811">
        <ele>9.7</ele>
        <time>2020-06-08T16:56:23Z</time>
      </trkpt>
      <trkpt lat="48.388" lon="-4.43813">
        <ele>9.7</ele>
        <time>2020-06-08T16:56:24Z</time>
      </trkpt>
      <trkpt lat="48.38803" lon="-4.43815">
        <ele>9.9</ele>
        <time>2020-06-08T16:56:25Z</time>
      </trkpt>
      <trkpt lat="48.38806" lon="-4.43817">
        <ele>10</ele>
        <time>2020-06-08T16:56:26Z</time>
      </trkpt>
      <trkpt lat="48.38809" lon="-4.4382">
        <ele>10</ele>
        <time>2020-06-08T16:56:27Z</time>
      </trkpt>
      <trkpt lat="48.38812" lon="-4.43823">
        <ele>10</ele>
        <time>2020-06-08T16:56:28Z</time>
      </trkpt>
      <trkpt lat="48.38815" lon="-4.43826">
        <ele>10.1</ele>
        <time>2020-06-08T16:56:29Z</time>
      </trkpt>
      <trkpt lat="48.38817" lon="-4.43828">
        <ele>10.1</ele>
        <time>2020-06-08T16:56:30Z</time>
      </trkpt>
      <trkpt lat="48.3882" lon="-4.43831">
        <ele>10.1</ele>
        <time>2020-06-08T16:56:31Z</time>
      </trkpt>
      <trkpt lat="48.38823" lon="-4.43833">
        <ele>10.2</ele>
        <time>2020-06-08T16:56:32Z</time>
      </trkpt>
      <trkpt lat="48.38825" lon="-4.43835">
        <ele>10.2</ele>
        <time>2020-06-08T16:56:33Z</time>
      </trkpt>
      <trkpt lat="48.38828" lon="-4.43837">
        <ele>10.2</ele>
        <time>2020-06-08T16:56:34Z</time>
      </trkpt>
      <trkpt lat="48.38831" lon="-4.43839">
        <ele>10.2</ele>
        <time>2020-06-08T16:56:35Z</time>
      </trkpt>
      <trkpt lat="48.38833" lon="-4.4384">
        <ele>10.2</ele>
        <time>2020-06-08T16:56:36Z</time>
      </trkpt>
      <trkpt lat="48.38836" lon="-4.43842">
        <ele>10.3</ele>
        <time>2020-06-08T16:56:37Z</time>
      </trkpt>
      <trkpt lat="48.38837" lon="-4.43843">
        <ele>10.3</ele>
        <time>2020-06-08T16:56:38Z</time>
      </trkpt>
      <trkpt lat="48.3884" lon="-4.43846">
        <ele>10.3</ele>
        <time>2020-06-08T16:56:39Z</time>
      </trkpt>
      <trkpt lat="48.38843" lon="-4.43849">
        <ele>10.4</ele>
        <time>2020-06-08T16:56:40Z</time>
      </trkpt>
      <trkpt lat="48.38845" lon="-4.43852">
        <ele>10.4</ele>
        <time>2020-06-08T16:56:41Z</time>
      </trkpt>
      <trkpt lat="48.38848" lon="-4.43854">
        <ele>10.4</ele>
        <time>2020-06-08T16:56:42Z</time>
      </trkpt>
      <trkpt lat="48.38853" lon="-4.43857">
        <ele>10.5</ele>
        <time>2020-06-08T16:56:43Z</time>
      </trkpt>
      <trkpt lat="48.38857" lon="-4.4386">
        <ele>10.5</ele>
        <time>2020-06-08T16:56:44Z</time>
      </trkpt>
      <trkpt lat="48.38862" lon="-4.43864">
        <ele>10.5</ele>
        <time>2020-06-08T16:56:45Z</time>
      </trkpt>
      <trkpt lat="48.38866" lon="-4.43869">
        <ele>10.5</ele>
        <time>2020-06-08T16:56:46Z</time>
      </trkpt>
      <trkpt lat="48.38871" lon="-4.43873">
        <ele>10.5</ele>
        <time>2020-06-08T16:56:47Z</time>
      </trkpt>
      <trkpt lat="48.38875" lon="-4.43877">
        <ele>10.5</ele>
        <time>2020-06-08T16:56:48Z</time>
      </trkpt>
      <trkpt lat="48.38879" lon="-4.4388">
        <ele>10.5</ele>
        <time>2020-06-08T16:56:49Z</time>
      </trkpt>
      <trkpt lat="48.38883" lon="-4.43881">
        <ele>10.5</ele>
        <time>2020-06-08T16:56:50Z</time>
      </trkpt>
      <trkpt lat="48.38887" lon="-4.4388">
        <ele>10.3</ele>
        <time>2020-06-08T16:56:51Z</time>
      </trkpt>
      <trkpt lat="48.3889" lon="-4.43877">
        <ele>10.3</ele>
        <time>2020-06-08T16:56:52Z</time>
      </trkpt>
      <trkpt lat="48.3889" lon="-4.43876">
        <ele>10.3</ele>
        <time>2020-06-08T16:56:53Z</time>
      </trkpt>
      <trkpt lat="48.38892" lon="-4.43873">
        <ele>10.3</ele>
        <time>2020-06-08T16:56:54Z</time>
      </trkpt>
      <trkpt lat="48.38892" lon="-4.43872">
        <ele>10.3</ele>
        <time>2020-06-08T16:56:55Z</time>
      </trkpt>
      <trkpt lat="48.38893" lon="-4.43872">
        <ele>10.3</ele>
        <time>2020-06-08T16:56:56Z</time>
      </trkpt>
      <trkpt lat="48.38896" lon="-4.43874">
        <ele>10.3</ele>
        <time>2020-06-08T16:56:57Z</time>
      </trkpt>
      <trkpt lat="48.38897" lon="-4.43875">
        <ele>10.3</ele>
        <time>2020-06-08T16:56:58Z</time>
      </trkpt>
      <trkpt lat="48.38899" lon="-4.43877">
        <ele>10.3</ele>
        <time>2020-06-08T16:56:59Z</time>
      </trkpt>
      <trkpt lat="48.38902" lon="-4.43878">
        <ele>10.3</ele>
        <time>2020-06-08T16:57:00Z</time>
      </trkpt>
      <trkpt lat="48.38905" lon="-4.4388">
        <ele>10.3</ele>
        <time>2020-06-08T16:57:01Z</time>
      </trkpt>
      <trkpt lat="48.38908" lon="-4.43882">
        <ele>10.3</ele>
        <time>2020-06-08T16:57:02Z</time>
      </trkpt>
      <trkpt lat="48.38911" lon="-4.43884">
        <ele>10.2</ele>
        <time>2020-06-08T16:57:03Z</time>
      </trkpt>
      <trkpt lat="48.38913" lon="-4.43888">
        <ele>10.2</ele>
        <time>2020-06-08T16:57:04Z</time>
      </trkpt>
      <trkpt lat="48.38916" lon="-4.43894">
        <ele>10.2</ele>
        <time>2020-06-08T16:57:05Z</time>
      </trkpt>
      <trkpt lat="48.38918" lon="-4.439">
        <ele>10.1</ele>
        <time>2020-06-08T16:57:06Z</time>
      </trkpt>
      <trkpt lat="48.3892" lon="-4.43905">
        <ele>10.1</ele>
        <time>2020-06-08T16:57:07Z</time>
      </trkpt>
      <trkpt lat="48.38923" lon="-4.43911">
        <ele>10</ele>
        <time>2020-06-08T16:57:08Z</time>
      </trkpt>
      <trkpt lat="48.38924" lon="-4.43917">
        <ele>10</ele>
        <time>2020-06-08T16:57:09Z</time>
      </trkpt>
      <trkpt lat="48.38926" lon="-4.43923">
        <ele>9.9</ele>
        <time>2020-06-08T16:57:10Z</time>
      </trkpt>
      <trkpt lat="48.38927" lon="-4.4393">
        <ele>9.8</ele>
        <time>2020-06-08T16:57:11Z</time>
      </trkpt>
      <trkpt lat="48.38928" lon="-4.43937">
        <ele>9.8</ele>
        <time>2020-06-08T16:57:12Z</time>
      </trkpt>
      <trkpt lat="48.38929" lon="-4.43944">
        <ele>9.7</ele>
        <time>2020-06-08T16:57:13Z</time>
      </trkpt>
      <trkpt lat="48.3893" lon="-4.43951">
        <ele>9.7</ele>
        <time>2020-06-08T16:57:14Z</time>
      </trkpt>
      <trkpt lat="48.38932" lon="-4.43958">
        <ele>9.6</ele>
        <time>2020-06-08T16:57:15Z</time>
      </trkpt>
      <trkpt lat="48.38933" lon="-4.43965">
        <ele>9.6</ele>
        <time>2020-06-08T16:57:16Z</time>
      </trkpt>
      <trkpt lat="48.38933" lon="-4.43972">
        <ele>9.6</ele>
        <time>2020-06-08T16:57:17Z</time>
      </trkpt>
      <trkpt lat="48.38934" lon="-4.43978">
        <ele>9.5</ele>
        <time>2020-06-08T16:57:18Z</time>
      </trkpt>
      <trkpt lat="48.38934" lon="-4.43986">
        <ele>9.5</ele>
        <time>2020-06-08T16:57:19Z</time>
      </trkpt>
      <trkpt lat="48.38938" lon="-4.43992">
        <ele>9.5</ele>
        <time>2020-06-08T16:57:20Z</time>
      </trkpt>
      <trkpt lat="48.38942" lon="-4.43998">
        <ele>9.4</ele>
        <time>2020-06-08T16:57:21Z</time>
      </trkpt>
      <trkpt lat="48.38945" lon="-4.44004">
        <ele>9.3</ele>
        <time>2020-06-08T16:57:22Z</time>
      </trkpt>
      <trkpt lat="48.38948" lon="-4.44011">
        <ele>9.1</ele>
        <time>2020-06-08T16:57:23Z</time>
      </trkpt>
      <trkpt lat="48.3895" lon="-4.44017">
        <ele>9.1</ele>
        <time>2020-06-08T16:57:24Z</time>
      </trkpt>
      <trkpt lat="48.38952" lon="-4.44023">
        <ele>9</ele>
        <time>2020-06-08T16:57:25Z</time>
      </trkpt>
      <trkpt lat="48.38954" lon="-4.44029">
        <ele>9</ele>
        <time>2020-06-08T16:57:26Z</time>
      </trkpt>
      <trkpt lat="48.38957" lon="-4.44035">
        <ele>8.9</ele>
        <time>2020-06-08T16:57:27Z</time>
      </trkpt>
      <trkpt lat="48.38958" lon="-4.44042">
        <ele>8.9</ele>
        <time>2020-06-08T16:57:28Z</time>
      </trkpt>
      <trkpt lat="48.38958" lon="-4.44049">
        <ele>8.7</ele>
        <time>2020-06-08T16:57:29Z</time>
      </trkpt>
      <trkpt lat="48.38958" lon="-4.44056">
        <ele>8.6</ele>
        <time>2020-06-08T16:57:30Z</time>
      </trkpt>
      <trkpt lat="48.38959" lon="-4.44061">
        <ele>8.5</ele>
        <time>2020-06-08T16:57:31Z</time>
      </trkpt>
      <trkpt lat="48.38961" lon="-4.44067">
        <ele>8.5</ele>
        <time>2020-06-08T16:57:32Z</time>
      </trkpt>
      <trkpt lat="48.38962" lon="-4.44074">
        <ele>8.5</ele>
        <time>2020-06-08T16:57:33Z</time>
      </trkpt>
      <trkpt lat="48.38962" lon="-4.44081">
        <ele>8.5</ele>
        <time>2020-06-08T16:57:34Z</time>
      </trkpt>
      <trkpt lat="48.38962" lon="-4.44088">
        <ele>8.5</ele>
        <time>2020-06-08T16:57:35Z</time>
      </trkpt>
      <trkpt lat="48.38962" lon="-4.44093">
        <ele>8.8</ele>
        <time>2020-06-08T16:57:36Z</time>
      </trkpt>
      <trkpt lat="48.38961" lon="-4.441">
        <ele>8.8</ele>
        <time>2020-06-08T16:57:37Z</time>
      </trkpt>
      <trkpt lat="48.38959" lon="-4.44106">
        <ele>8.7</ele>
        <time>2020-06-08T16:57:38Z</time>
      </trkpt>
      <trkpt lat="48.38958" lon="-4.44112">
        <ele>8.3</ele>
        <time>2020-06-08T16:57:39Z</time>
      </trkpt>
      <trkpt lat="48.38959" lon="-4.44119">
        <ele>8.2</ele>
        <time>2020-06-08T16:57:40Z</time>
      </trkpt>
      <trkpt lat="48.38963" lon="-4.44126">
        <ele>8.2</ele>
        <time>2020-06-08T16:57:41Z</time>
      </trkpt>
      <trkpt lat="48.38965" lon="-4.44135">
        <ele>8.1</ele>
        <time>2020-06-08T16:57:42Z</time>
      </trkpt>
      <trkpt lat="48.38967" lon="-4.44142">
        <ele>8.1</ele>
        <time>2020-06-08T16:57:43Z</time>
      </trkpt>
      <trkpt lat="48.38969" lon="-4.4415">
        <ele>8</ele>
        <time>2020-06-08T16:57:44Z</time>
      </trkpt>
      <trkpt lat="48.3897" lon="-4.44157">
        <ele>7.9</ele>
        <time>2020-06-08T16:57:45Z</time>
      </trkpt>
      <trkpt lat="48.38972" lon="-4.44166">
        <ele>7.8</ele>
        <time>2020-06-08T16:57:46Z</time>
      </trkpt>
      <trkpt lat="48.38973" lon="-4.44175">
        <ele>7.7</ele>
        <time>2020-06-08T16:57:47Z</time>
      </trkpt>
      <trkpt lat="48.38975" lon="-4.44182">
        <ele>7.6</ele>
        <time>2020-06-08T16:57:48Z</time>
      </trkpt>
      <trkpt lat="48.38977" lon="-4.44189">
        <ele>7.6</ele>
        <time>2020-06-08T16:57:49Z</time>
      </trkpt>
      <trkpt lat="48.3898" lon="-4.44197">
        <ele>7.5</ele>
        <time>2020-06-08T16:57:50Z</time>
      </trkpt>
      <trkpt lat="48.38982" lon="-4.44204">
        <ele>7.5</ele>
        <time>2020-06-08T16:57:51Z</time>
      </trkpt>
      <trkpt lat="48.38985" lon="-4.44212">
        <ele>7.5</ele>
        <time>2020-06-08T16:57:52Z</time>
      </trkpt>
      <trkpt lat="48.38988" lon="-4.44219">
        <ele>7.4</ele>
        <time>2020-06-08T16:57:53Z</time>
      </trkpt>
      <trkpt lat="48.38991" lon="-4.44226">
        <ele>7.4</ele>
        <time>2020-06-08T16:57:54Z</time>
      </trkpt>
      <trkpt lat="48.38995" lon="-4.44232">
        <ele>7.4</ele>
        <time>2020-06-08T16:57:55Z</time>
      </trkpt>
      <trkpt lat="48.38997" lon="-4.4424">
        <ele>7.4</ele>
        <time>2020-06-08T16:57:56Z</time>
      </trkpt>
      <trkpt lat="48.39" lon="-4.44246">
        <ele>7.4</ele>
        <time>2020-06-08T16:57:57Z</time>
      </trkpt>
      <trkpt lat="48.39003" lon="-4.44252">
        <ele>7.4</ele>
        <time>2020-06-08T16:57:58Z</time>
      </trkpt>
      <trkpt lat="48.39007" lon="-4.44258">
        <ele>7.4</ele>
        <time>2020-06-08T16:57:59Z</time>
      </trkpt>
      <trkpt lat="48.3901" lon="-4.44265">
        <ele>7.4</ele>
        <time>2020-06-08T16:58:00Z</time>
      </trkpt>
      <trkpt lat="48.39012" lon="-4.44271">
        <ele>7.5</ele>
        <time>2020-06-08T16:58:01Z</time>
      </trkpt>
      <trkpt lat="48.39015" lon="-4.44278">
        <ele>7.5</ele>
        <time>2020-06-08T16:58:02Z</time>
      </trkpt>
      <trkpt lat="48.39018" lon="-4.44286">
        <ele>7.5</ele>
        <time>2020-06-08T16:58:03Z</time>
      </trkpt>
      <trkpt lat="48.39021" lon="-4.44292">
        <ele>7.5</ele>
        <time>2020-06-08T16:58:04Z</time>
      </trkpt>
      <trkpt lat="48.39024" lon="-4.44299">
        <ele>7.5</ele>
        <time>2020-06-08T16:58:05Z</time>
      </trkpt>
      <trkpt lat="48.39027" lon="-4.44306">
        <ele>7.6</ele>
        <time>2020-06-08T16:58:06Z</time>
      </trkpt>
      <trkpt lat="48.39029" lon="-4.44312">
        <ele>7.6</ele>
        <time>2020-06-08T16:58:07Z</time>
      </trkpt>
      <trkpt lat="48.39032" lon="-4.44317">
        <ele>7.5</ele>
        <time>2020-06-08T16:58:08Z</time>
      </trkpt>
      <trkpt lat="48.39034" lon="-4.44323">
        <ele>7.5</ele>
        <time>2020-06-08T16:58:09Z</time>
      </trkpt>
      <trkpt lat="48.39037" lon="-4.44329">
        <ele>7.4</ele>
        <time>2020-06-08T16:58:10Z</time>
      </trkpt>
      <trkpt lat="48.3904" lon="-4.44336">
        <ele>7.4</ele>
        <time>2020-06-08T16:58:11Z</time>
      </trkpt>
      <trkpt lat="48.39042" lon="-4.44342">
        <ele>7.3</ele>
        <time>2020-06-08T16:58:12Z</time>
      </trkpt>
      <trkpt lat="48.39045" lon="-4.44348">
        <ele>7.3</ele>
        <time>2020-06-08T16:58:13Z</time>
      </trkpt>
      <trkpt lat="48.39047" lon="-4.44354">
        <ele>7.3</ele>
        <time>2020-06-08T16:58:14Z</time>
      </trkpt>
      <trkpt lat="48.3905" lon="-4.4436">
        <ele>7.3</ele>
        <time>2020-06-08T16:58:15Z</time>
      </trkpt>
      <trkpt lat="48.39052" lon="-4.44367">
        <ele>7.3</ele>
        <time>2020-06-08T16:58:16Z</time>
      </trkpt>
      <trkpt lat="48.39054" lon="-4.44373">
        <ele>7.2</ele>
        <time>2020-06-08T16:58:17Z</time>
      </trkpt>
      <trkpt lat="48.39057" lon="-4.4438">
        <ele>7.2</ele>
        <time>2020-06-08T16:58:18Z</time>
      </trkpt>
      <trkpt lat="48.3906" lon="-4.44386">
        <ele>7.2</ele>
        <time>2020-06-08T16:58:19Z</time>
      </trkpt>
      <trkpt lat="48.39062" lon="-4.44392">
        <ele>7.2</ele>
        <time>2020-06-08T16:58:20Z</time>
      </trkpt>
      <trkpt lat="48.39065" lon="-4.44398">
        <ele>7.2</ele>
        <time>2020-06-08T16:58:21Z</time>
      </trkpt>
      <trkpt lat="48.39068" lon="-4.44405">
        <ele>7.2</ele>
        <time>2020-06-08T16:58:22Z</time>
      </trkpt>
      <trkpt lat="48.3907" lon="-4.44412">
        <ele>7.2</ele>
        <time>2020-06-08T16:58:23Z</time>
      </trkpt>
      <trkpt lat="48.39073" lon="-4.44418">
        <ele>7.2</ele>
        <time>2020-06-08T16:58:24Z</time>
      </trkpt>
      <trkpt lat="48.39075" lon="-4.44425">
        <ele>7.2</ele>
        <time>2020-06-08T16:58:25Z</time>
      </trkpt>
      <trkpt lat="48.39077" lon="-4.44432">
        <ele>7.2</ele>
        <time>2020-06-08T16:58:26Z</time>
      </trkpt>
      <trkpt lat="48.3908" lon="-4.44438">
        <ele>7.2</ele>
        <time>2020-06-08T16:58:27Z</time>
      </trkpt>
      <trkpt lat="48.39082" lon="-4.44445">
        <ele>7.2</ele>
        <time>2020-06-08T16:58:28Z</time>
      </trkpt>
      <trkpt lat="48.39085" lon="-4.44452">
        <ele>7.2</ele>
        <time>2020-06-08T16:58:29Z</time>
      </trkpt>
      <trkpt lat="48.39087" lon="-4.44458">
        <ele>7.2</ele>
        <time>2020-06-08T16:58:30Z</time>
      </trkpt>
      <trkpt lat="48.3909" lon="-4.44465">
        <ele>7.2</ele>
        <time>2020-06-08T16:58:31Z</time>
      </trkpt>
      <trkpt lat="48.39092" lon="-4.44471">
        <ele>7.2</ele>
        <time>2020-06-08T16:58:32Z</time>
      </trkpt>
      <trkpt lat="48.39095" lon="-4.44477">
        <ele>7.2</ele>
        <time>2020-06-08T16:58:33Z</time>
      </trkpt>
      <trkpt lat="48.39098" lon="-4.44484">
        <ele>7.2</ele>
        <time>2020-06-08T16:58:34Z</time>
      </trkpt>
      <trkpt lat="48.39101" lon="-4.44491">
        <ele>7.2</ele>
        <time>2020-06-08T16:58:35Z</time>
      </trkpt>
      <trkpt lat="48.39104" lon="-4.44498">
        <ele>7.2</ele>
        <time>2020-06-08T16:58:36Z</time>
      </trkpt>
      <trkpt lat="48.39107" lon="-4.44504">
        <ele>7.2</ele>
        <time>2020-06-08T16:58:37Z</time>
      </trkpt>
      <trkpt lat="48.3911" lon="-4.4451">
        <ele>7.2</ele>
        <time>2020-06-08T16:58:38Z</time>
      </trkpt>
      <trkpt lat="48.39113" lon="-4.44517">
        <ele>7.1</ele>
        <time>2020-06-08T16:58:39Z</time>
      </trkpt>
      <trkpt lat="48.39116" lon="-4.44523">
        <ele>7.1</ele>
        <time>2020-06-08T16:58:40Z</time>
      </trkpt>
      <trkpt lat="48.3912" lon="-4.4453">
        <ele>7.1</ele>
        <time>2020-06-08T16:58:41Z</time>
      </trkpt>
      <trkpt lat="48.39124" lon="-4.44536">
        <ele>7.1</ele>
        <time>2020-06-08T16:58:42Z</time>
      </trkpt>
      <trkpt lat="48.39128" lon="-4.44542">
        <ele>7</ele>
        <time>2020-06-08T16:58:43Z</time>
      </trkpt>
      <trkpt lat="48.39131" lon="-4.44548">
        <ele>7</ele>
        <time>2020-06-08T16:58:44Z</time>
      </trkpt>
      <trkpt lat="48.39135" lon="-4.44554">
        <ele>7</ele>
        <time>2020-06-08T16:58:45Z</time>
      </trkpt>
      <trkpt lat="48.39138" lon="-4.44561">
        <ele>7</ele>
        <time>2020-06-08T16:58:46Z</time>
      </trkpt>
      <trkpt lat="48.39141" lon="-4.44567">
        <ele>7.1</ele>
        <time>2020-06-08T16:58:47Z</time>
      </trkpt>
      <trkpt lat="48.39145" lon="-4.44573">
        <ele>7.1</ele>
        <time>2020-06-08T16:58:48Z</time>
      </trkpt>
      <trkpt lat="48.39148" lon="-4.44579">
        <ele>7.2</ele>
        <time>2020-06-08T16:58:49Z</time>
      </trkpt>
      <trkpt lat="48.39151" lon="-4.44586">
        <ele>7.1</ele>
        <time>2020-06-08T16:58:50Z</time>
      </trkpt>
      <trkpt lat="48.39152" lon="-4.44593">
        <ele>7</ele>
        <time>2020-06-08T16:58:51Z</time>
      </trkpt>
      <trkpt lat="48.39154" lon="-4.446">
        <ele>7</ele>
        <time>2020-06-08T16:58:52Z</time>
      </trkpt>
      <trkpt lat="48.39156" lon="-4.44606">
        <ele>6.9</ele>
        <time>2020-06-08T16:58:53Z</time>
      </trkpt>
      <trkpt lat="48.39157" lon="-4.44613">
        <ele>6.9</ele>
        <time>2020-06-08T16:58:54Z</time>
      </trkpt>
      <trkpt lat="48.39159" lon="-4.4462">
        <ele>6.9</ele>
        <time>2020-06-08T16:58:55Z</time>
      </trkpt>
      <trkpt lat="48.39161" lon="-4.44627">
        <ele>6.8</ele>
        <time>2020-06-08T16:58:56Z</time>
      </trkpt>
      <trkpt lat="48.39161" lon="-4.44635">
        <ele>6.7</ele>
        <time>2020-06-08T16:58:57Z</time>
      </trkpt>
      <trkpt lat="48.39161" lon="-4.44643">
        <ele>6.7</ele>
        <time>2020-06-08T16:58:58Z</time>
      </trkpt>
      <trkpt lat="48.39161" lon="-4.44652">
        <ele>6.7</ele>
        <time>2020-06-08T16:58:59Z</time>
      </trkpt>
      <trkpt lat="48.39163" lon="-4.4466">
        <ele>6.7</ele>
        <time>2020-06-08T16:59:00Z</time>
      </trkpt>
      <trkpt lat="48.39164" lon="-4.44668">
        <ele>6.7</ele>
        <time>2020-06-08T16:59:01Z</time>
      </trkpt>
      <trkpt lat="48.39164" lon="-4.44676">
        <ele>6.7</ele>
        <time>2020-06-08T16:59:02Z</time>
      </trkpt>
      <trkpt lat="48.39166" lon="-4.44684">
        <ele>6.8</ele>
        <time>2020-06-08T16:59:03Z</time>
      </trkpt>
      <trkpt lat="48.39167" lon="-4.44692">
        <ele>6.8</ele>
        <time>2020-06-08T16:59:04Z</time>
      </trkpt>
      <trkpt lat="48.39167" lon="-4.447">
        <ele>6.8</ele>
        <time>2020-06-08T16:59:05Z</time>
      </trkpt>
      <trkpt lat="48.39168" lon="-4.44708">
        <ele>6.8</ele>
        <time>2020-06-08T16:59:06Z</time>
      </trkpt>
      <trkpt lat="48.39168" lon="-4.44716">
        <ele>6.8</ele>
        <time>2020-06-08T16:59:07Z</time>
      </trkpt>
      <trkpt lat="48.39167" lon="-4.44724">
        <ele>6.8</ele>
        <time>2020-06-08T16:59:08Z</time>
      </trkpt>
      <trkpt lat="48.39167" lon="-4.44732">
        <ele>6.8</ele>
        <time>2020-06-08T16:59:09Z</time>
      </trkpt>
      <trkpt lat="48.39168" lon="-4.4474">
        <ele>6.8</ele>
        <time>2020-06-08T16:59:10Z</time>
      </trkpt>
      <trkpt lat="48.39167" lon="-4.44748">
        <ele>6.8</ele>
        <time>2020-06-08T16:59:11Z</time>
      </trkpt>
      <trkpt lat="48.39167" lon="-4.44757">
        <ele>6.8</ele>
        <time>2020-06-08T16:59:12Z</time>
      </trkpt>
      <trkpt lat="48.39165" lon="-4.44766">
        <ele>6.8</ele>
        <time>2020-06-08T16:59:13Z</time>
      </trkpt>
      <trkpt lat="48.39165" lon="-4.44775">
        <ele>6.8</ele>
        <time>2020-06-08T16:59:14Z</time>
      </trkpt>
      <trkpt lat="48.39164" lon="-4.44783">
        <ele>6.8</ele>
        <time>2020-06-08T16:59:15Z</time>
      </trkpt>
      <trkpt lat="48.39164" lon="-4.44792">
        <ele>6.8</ele>
        <time>2020-06-08T16:59:16Z</time>
      </trkpt>
      <trkpt lat="48.39163" lon="-4.448">
        <ele>6.8</ele>
        <time>2020-06-08T16:59:17Z</time>
      </trkpt>
      <trkpt lat="48.39161" lon="-4.44808">
        <ele>6.7</ele>
        <time>2020-06-08T16:59:18Z</time>
      </trkpt>
      <trkpt lat="48.3916" lon="-4.44816">
        <ele>6.7</ele>
        <time>2020-06-08T16:59:19Z</time>
      </trkpt>
      <trkpt lat="48.39158" lon="-4.44823">
        <ele>6.7</ele>
        <time>2020-06-08T16:59:20Z</time>
      </trkpt>
      <trkpt lat="48.39156" lon="-4.44831">
        <ele>6.7</ele>
        <time>2020-06-08T16:59:21Z</time>
      </trkpt>
      <trkpt lat="48.39154" lon="-4.44839">
        <ele>6.6</ele>
        <time>2020-06-08T16:59:22Z</time>
      </trkpt>
      <trkpt lat="48.39152" lon="-4.44847">
        <ele>6.6</ele>
        <time>2020-06-08T16:59:23Z</time>
      </trkpt>
      <trkpt lat="48.39149" lon="-4.44854">
        <ele>6.6</ele>
        <time>2020-06-08T16:59:24Z</time>
      </trkpt>
      <trkpt lat="48.39146" lon="-4.44861">
        <ele>6.5</ele>
        <time>2020-06-08T16:59:25Z</time>
      </trkpt>
      <trkpt lat="48.39144" lon="-4.44869">
        <ele>6.5</ele>
        <time>2020-06-08T16:59:26Z</time>
      </trkpt>
      <trkpt lat="48.39141" lon="-4.44877">
        <ele>6.5</ele>
        <time>2020-06-08T16:59:27Z</time>
      </trkpt>
      <trkpt lat="48.39139" lon="-4.44886">
        <ele>6.5</ele>
        <time>2020-06-08T16:59:28Z</time>
      </trkpt>
      <trkpt lat="48.39137" lon="-4.44895">
        <ele>6.5</ele>
        <time>2020-06-08T16:59:29Z</time>
      </trkpt>
      <trkpt lat="48.39134" lon="-4.44904">
        <ele>6.5</ele>
        <time>2020-06-08T16:59:30Z</time>
      </trkpt>
      <trkpt lat="48.39132" lon="-4.44912">
        <ele>6.6</ele>
        <time>2020-06-08T16:59:31Z</time>
      </trkpt>
      <trkpt lat="48.3913" lon="-4.4492">
        <ele>6.6</ele>
        <time>2020-06-08T16:59:32Z</time>
      </trkpt>
      <trkpt lat="48.39128" lon="-4.44928">
        <ele>6.6</ele>
        <time>2020-06-08T16:59:33Z</time>
      </trkpt>
      <trkpt lat="48.39125" lon="-4.44936">
        <ele>6.7</ele>
        <time>2020-06-08T16:59:34Z</time>
      </trkpt>
      <trkpt lat="48.39122" lon="-4.44944">
        <ele>6.7</ele>
        <time>2020-06-08T16:59:35Z</time>
      </trkpt>
      <trkpt lat="48.3912" lon="-4.44953">
        <ele>6.7</ele>
        <time>2020-06-08T16:59:36Z</time>
      </trkpt>
      <trkpt lat="48.39118" lon="-4.44961">
        <ele>6.7</ele>
        <time>2020-06-08T16:59:37Z</time>
      </trkpt>
      <trkpt lat="48.39115" lon="-4.44969">
        <ele>6.7</ele>
        <time>2020-06-08T16:59:38Z</time>
      </trkpt>
      <trkpt lat="48.39113" lon="-4.44977">
        <ele>6.7</ele>
        <time>2020-06-08T16:59:39Z</time>
      </trkpt>
      <trkpt lat="48.39111" lon="-4.44984">
        <ele>6.7</ele>
        <time>2020-06-08T16:59:40Z</time>
      </trkpt>
      <trkpt lat="48.39109" lon="-4.44993">
        <ele>6.7</ele>
        <time>2020-06-08T16:59:41Z</time>
      </trkpt>
      <trkpt lat="48.39107" lon="-4.45">
        <ele>6.7</ele>
        <time>2020-06-08T16:59:42Z</time>
      </trkpt>
      <trkpt lat="48.39104" lon="-4.45008">
        <ele>6.7</ele>
        <time>2020-06-08T16:59:43Z</time>
      </trkpt>
      <trkpt lat="48.39102" lon="-4.45016">
        <ele>6.7</ele>
        <time>2020-06-08T16:59:44Z</time>
      </trkpt>
      <trkpt lat="48.39099" lon="-4.45024">
        <ele>6.7</ele>
        <time>2020-06-08T16:59:45Z</time>
      </trkpt>
      <trkpt lat="48.39097" lon="-4.45032">
        <ele>6.7</ele>
        <time>2020-06-08T16:59:46Z</time>
      </trkpt>
      <trkpt lat="48.39095" lon="-4.45039">
        <ele>6.7</ele>
        <time>2020-06-08T16:59:47Z</time>
      </trkpt>
      <trkpt lat="48.39093" lon="-4.45047">
        <ele>6.7</ele>
        <time>2020-06-08T16:59:48Z</time>
      </trkpt>
      <trkpt lat="48.3909" lon="-4.45055">
        <ele>6.7</ele>
        <time>2020-06-08T16:59:49Z</time>
      </trkpt>
      <trkpt lat="48.39088" lon="-4.45063">
        <ele>6.7</ele>
        <time>2020-06-08T16:59:50Z</time>
      </trkpt>
      <trkpt lat="48.39086" lon="-4.45071">
        <ele>6.7</ele>
        <time>2020-06-08T16:59:51Z</time>
      </trkpt>
      <trkpt lat="48.39083" lon="-4.4508">
        <ele>6.6</ele>
        <time>2020-06-08T16:59:52Z</time>
      </trkpt>
      <trkpt lat="48.3908" lon="-4.45088">
        <ele>6.6</ele>
        <time>2020-06-08T16:59:53Z</time>
      </trkpt>
      <trkpt lat="48.39078" lon="-4.45096">
        <ele>6.6</ele>
        <time>2020-06-08T16:59:54Z</time>
      </trkpt>
      <trkpt lat="48.39075" lon="-4.45104">
        <ele>6.5</ele>
        <time>2020-06-08T16:59:55Z</time>
      </trkpt>
      <trkpt lat="48.39073" lon="-4.45112">
        <ele>6.5</ele>
        <time>2020-06-08T16:59:56Z</time>
      </trkpt>
      <trkpt lat="48.39071" lon="-4.4512">
        <ele>6.4</ele>
        <time>2020-06-08T16:59:57Z</time>
      </trkpt>
      <trkpt lat="48.39068" lon="-4.45127">
        <ele>6.4</ele>
        <time>2020-06-08T16:59:58Z</time>
      </trkpt>
      <trkpt lat="48.39066" lon="-4.45134">
        <ele>6.4</ele>
        <time>2020-06-08T16:59:59Z</time>
      </trkpt>
      <trkpt lat="48.39064" lon="-4.45141">
        <ele>6.4</ele>
        <time>2020-06-08T17:00:00Z</time>
      </trkpt>
      <trkpt lat="48.39062" lon="-4.45149">
        <ele>6.4</ele>
        <time>2020-06-08T17:00:01Z</time>
      </trkpt>
      <trkpt lat="48.3906" lon="-4.45157">
        <ele>6.4</ele>
        <time>2020-06-08T17:00:02Z</time>
      </trkpt>
      <trkpt lat="48.39058" lon="-4.45165">
        <ele>6.4</ele>
        <time>2020-06-08T17:00:03Z</time>
      </trkpt>
      <trkpt lat="48.39056" lon="-4.45173">
        <ele>6.4</ele>
        <time>2020-06-08T17:00:04Z</time>
      </trkpt>
      <trkpt lat="48.39053" lon="-4.45181">
        <ele>6.5</ele>
        <time>2020-06-08T17:00:05Z</time>
      </trkpt>
      <trkpt lat="48.39051" lon="-4.4519">
        <ele>6.6</ele>
        <time>2020-06-08T17:00:06Z</time>
      </trkpt>
      <trkpt lat="48.39049" lon="-4.45198">
        <ele>6.7</ele>
        <time>2020-06-08T17:00:07Z</time>
      </trkpt>
      <trkpt lat="48.39046" lon="-4.45207">
        <ele>6.7</ele>
        <time>2020-06-08T17:00:08Z</time>
      </trkpt>
      <trkpt lat="48.39043" lon="-4.45215">
        <ele>6.7</ele>
        <time>2020-06-08T17:00:09Z</time>
      </trkpt>
      <trkpt lat="48.3904" lon="-4.45223">
        <ele>6.7</ele>
        <time>2020-06-08T17:00:10Z</time>
      </trkpt>
      <trkpt lat="48.39038" lon="-4.45231">
        <ele>6.8</ele>
        <time>2020-06-08T17:00:11Z</time>
      </trkpt>
      <trkpt lat="48.39036" lon="-4.45239">
        <ele>6.8</ele>
        <time>2020-06-08T17:00:12Z</time>
      </trkpt>
      <trkpt lat="48.39033" lon="-4.45246">
        <ele>6.9</ele>
        <time>2020-06-08T17:00:13Z</time>
      </trkpt>
      <trkpt lat="48.39032" lon="-4.45253">
        <ele>6.9</ele>
        <time>2020-06-08T17:00:14Z</time>
      </trkpt>
      <trkpt lat="48.39031" lon="-4.45259">
        <ele>6.9</ele>
        <time>2020-06-08T17:00:15Z</time>
      </trkpt>
      <trkpt lat="48.39029" lon="-4.45266">
        <ele>7</ele>
        <time>2020-06-08T17:00:16Z</time>
      </trkpt>
      <trkpt lat="48.39027" lon="-4.45272">
        <ele>7</ele>
        <time>2020-06-08T17:00:17Z</time>
      </trkpt>
      <trkpt lat="48.39025" lon="-4.4528">
        <ele>7</ele>
        <time>2020-06-08T17:00:18Z</time>
      </trkpt>
      <trkpt lat="48.39023" lon="-4.45288">
        <ele>6.9</ele>
        <time>2020-06-08T17:00:19Z</time>
      </trkpt>
      <trkpt lat="48.3902" lon="-4.45295">
        <ele>6.9</ele>
        <time>2020-06-08T17:00:20Z</time>
      </trkpt>
      <trkpt lat="48.39018" lon="-4.45304">
        <ele>6.9</ele>
        <time>2020-06-08T17:00:21Z</time>
      </trkpt>
      <trkpt lat="48.39016" lon="-4.45312">
        <ele>6.8</ele>
        <time>2020-06-08T17:00:22Z</time>
      </trkpt>
      <trkpt lat="48.39014" lon="-4.4532">
        <ele>6.8</ele>
        <time>2020-06-08T17:00:23Z</time>
      </trkpt>
      <trkpt lat="48.39012" lon="-4.45329">
        <ele>6.8</ele>
        <time>2020-06-08T17:00:24Z</time>
      </trkpt>
      <trkpt lat="48.39009" lon="-4.45337">
        <ele>6.8</ele>
        <time>2020-06-08T17:00:25Z</time>
      </trkpt>
      <trkpt lat="48.39006" lon="-4.45344">
        <ele>6.8</ele>
        <time>2020-06-08T17:00:26Z</time>
      </trkpt>
      <trkpt lat="48.39003" lon="-4.45352">
        <ele>6.7</ele>
        <time>2020-06-08T17:00:27Z</time>
      </trkpt>
      <trkpt lat="48.39001" lon="-4.45359">
        <ele>6.7</ele>
        <time>2020-06-08T17:00:28Z</time>
      </trkpt>
      <trkpt lat="48.38999" lon="-4.45366">
        <ele>6.7</ele>
        <time>2020-06-08T17:00:29Z</time>
      </trkpt>
      <trkpt lat="48.38996" lon="-4.45375">
        <ele>6.7</ele>
        <time>2020-06-08T17:00:30Z</time>
      </trkpt>
      <trkpt lat="48.38994" lon="-4.45383">
        <ele>6.7</ele>
        <time>2020-06-08T17:00:31Z</time>
      </trkpt>
      <trkpt lat="48.38991" lon="-4.45392">
        <ele>6.7</ele>
        <time>2020-06-08T17:00:32Z</time>
      </trkpt>
      <trkpt lat="48.38989" lon="-4.454">
        <ele>6.7</ele>
        <time>2020-06-08T17:00:33Z</time>
      </trkpt>
      <trkpt lat="48.38986" lon="-4.45409">
        <ele>6.7</ele>
        <time>2020-06-08T17:00:34Z</time>
      </trkpt>
      <trkpt lat="48.38983" lon="-4.45417">
        <ele>6.7</ele>
        <time>2020-06-08T17:00:35Z</time>
      </trkpt>
      <trkpt lat="48.3898" lon="-4.45426">
        <ele>6.7</ele>
        <time>2020-06-08T17:00:36Z</time>
      </trkpt>
      <trkpt lat="48.38978" lon="-4.45434">
        <ele>6.7</ele>
        <time>2020-06-08T17:00:37Z</time>
      </trkpt>
      <trkpt lat="48.38975" lon="-4.45441">
        <ele>6.7</ele>
        <time>2020-06-08T17:00:38Z</time>
      </trkpt>
      <trkpt lat="48.38973" lon="-4.45449">
        <ele>6.7</ele>
        <time>2020-06-08T17:00:39Z</time>
      </trkpt>
      <trkpt lat="48.3897" lon="-4.45456">
        <ele>6.7</ele>
        <time>2020-06-08T17:00:40Z</time>
      </trkpt>
      <trkpt lat="48.38967" lon="-4.45464">
        <ele>6.7</ele>
        <time>2020-06-08T17:00:41Z</time>
      </trkpt>
      <trkpt lat="48.38965" lon="-4.45472">
        <ele>6.7</ele>
        <time>2020-06-08T17:00:42Z</time>
      </trkpt>
      <trkpt lat="48.38962" lon="-4.45479">
        <ele>6.7</ele>
        <time>2020-06-08T17:00:43Z</time>
      </trkpt>
      <trkpt lat="48.38959" lon="-4.45487">
        <ele>6.7</ele>
        <time>2020-06-08T17:00:44Z</time>
      </trkpt>
      <trkpt lat="48.38957" lon="-4.45495">
        <ele>6.7</ele>
        <time>2020-06-08T17:00:45Z</time>
      </trkpt>
      <trkpt lat="48.38954" lon="-4.45503">
        <ele>6.7</ele>
        <time>2020-06-08T17:00:46Z</time>
      </trkpt>
      <trkpt lat="48.38952" lon="-4.4551">
        <ele>6.7</ele>
        <time>2020-06-08T17:00:47Z</time>
      </trkpt>
      <trkpt lat="48.3895" lon="-4.45518">
        <ele>6.7</ele>
        <time>2020-06-08T17:00:48Z</time>
      </trkpt>
      <trkpt lat="48.38948" lon="-4.45526">
        <ele>6.6</ele>
        <time>2020-06-08T17:00:49Z</time>
      </trkpt>
      <trkpt lat="48.38946" lon="-4.45534">
        <ele>6.6</ele>
        <time>2020-06-08T17:00:50Z</time>
      </trkpt>
      <trkpt lat="48.38944" lon="-4.45542">
        <ele>6.6</ele>
        <time>2020-06-08T17:00:51Z</time>
      </trkpt>
      <trkpt lat="48.38941" lon="-4.45551">
        <ele>6.6</ele>
        <time>2020-06-08T17:00:52Z</time>
      </trkpt>
      <trkpt lat="48.38939" lon="-4.45559">
        <ele>6.6</ele>
        <time>2020-06-08T17:00:53Z</time>
      </trkpt>
      <trkpt lat="48.38936" lon="-4.45567">
        <ele>6.6</ele>
        <time>2020-06-08T17:00:54Z</time>
      </trkpt>
      <trkpt lat="48.38934" lon="-4.45576">
        <ele>6.6</ele>
        <time>2020-06-08T17:00:55Z</time>
      </trkpt>
      <trkpt lat="48.38932" lon="-4.45584">
        <ele>6.6</ele>
        <time>2020-06-08T17:00:56Z</time>
      </trkpt>
      <trkpt lat="48.38929" lon="-4.45591">
        <ele>6.6</ele>
        <time>2020-06-08T17:00:57Z</time>
      </trkpt>
      <trkpt lat="48.38927" lon="-4.45599">
        <ele>6.5</ele>
        <time>2020-06-08T17:00:58Z</time>
      </trkpt>
      <trkpt lat="48.38925" lon="-4.45608">
        <ele>6.5</ele>
        <time>2020-06-08T17:00:59Z</time>
      </trkpt>
      <trkpt lat="48.38922" lon="-4.45616">
        <ele>6.5</ele>
        <time>2020-06-08T17:01:00Z</time>
      </trkpt>
      <trkpt lat="48.38921" lon="-4.45625">
        <ele>6.5</ele>
        <time>2020-06-08T17:01:01Z</time>
      </trkpt>
      <trkpt lat="48.38918" lon="-4.45633">
        <ele>6.5</ele>
        <time>2020-06-08T17:01:02Z</time>
      </trkpt>
      <trkpt lat="48.38916" lon="-4.45642">
        <ele>6.5</ele>
        <time>2020-06-08T17:01:03Z</time>
      </trkpt>
      <trkpt lat="48.38913" lon="-4.45651">
        <ele>6.5</ele>
        <time>2020-06-08T17:01:04Z</time>
      </trkpt>
      <trkpt lat="48.38911" lon="-4.45659">
        <ele>6.5</ele>
        <time>2020-06-08T17:01:05Z</time>
      </trkpt>
      <trkpt lat="48.38908" lon="-4.45668">
        <ele>6.5</ele>
        <time>2020-06-08T17:01:06Z</time>
      </trkpt>
      <trkpt lat="48.38906" lon="-4.45676">
        <ele>6.6</ele>
        <time>2020-06-08T17:01:07Z</time>
      </trkpt>
      <trkpt lat="48.38903" lon="-4.45685">
        <ele>6.6</ele>
        <time>2020-06-08T17:01:08Z</time>
      </trkpt>
      <trkpt lat="48.38901" lon="-4.45692">
        <ele>6.6</ele>
        <time>2020-06-08T17:01:09Z</time>
      </trkpt>
      <trkpt lat="48.38899" lon="-4.45699">
        <ele>6.6</ele>
        <time>2020-06-08T17:01:10Z</time>
      </trkpt>
      <trkpt lat="48.38896" lon="-4.45706">
        <ele>6.6</ele>
        <time>2020-06-08T17:01:11Z</time>
      </trkpt>
      <trkpt lat="48.38894" lon="-4.45714">
        <ele>6.6</ele>
        <time>2020-06-08T17:01:12Z</time>
      </trkpt>
      <trkpt lat="48.38892" lon="-4.4572">
        <ele>6.7</ele>
        <time>2020-06-08T17:01:13Z</time>
      </trkpt>
      <trkpt lat="48.38891" lon="-4.45727">
        <ele>6.7</ele>
        <time>2020-06-08T17:01:14Z</time>
      </trkpt>
      <trkpt lat="48.38891" lon="-4.45734">
        <ele>6.7</ele>
        <time>2020-06-08T17:01:15Z</time>
      </trkpt>
      <trkpt lat="48.38891" lon="-4.45742">
        <ele>6.7</ele>
        <time>2020-06-08T17:01:16Z</time>
      </trkpt>
      <trkpt lat="48.38893" lon="-4.45751">
        <ele>6.7</ele>
        <time>2020-06-08T17:01:17Z</time>
      </trkpt>
      <trkpt lat="48.38895" lon="-4.45758">
        <ele>6.8</ele>
        <time>2020-06-08T17:01:18Z</time>
      </trkpt>
      <trkpt lat="48.38898" lon="-4.45765">
        <ele>6.9</ele>
        <time>2020-06-08T17:01:19Z</time>
      </trkpt>
      <trkpt lat="48.38902" lon="-4.4577">
        <ele>7</ele>
        <time>2020-06-08T17:01:20Z</time>
      </trkpt>
      <trkpt lat="48.38905" lon="-4.45775">
        <ele>7.1</ele>
        <time>2020-06-08T17:01:21Z</time>
      </trkpt>
      <trkpt lat="48.38908" lon="-4.4578">
        <ele>7.1</ele>
        <time>2020-06-08T17:01:22Z</time>
      </trkpt>
      <trkpt lat="48.3891" lon="-4.45785">
        <ele>7.2</ele>
        <time>2020-06-08T17:01:23Z</time>
      </trkpt>
      <trkpt lat="48.38912" lon="-4.4579">
        <ele>7.3</ele>
        <time>2020-06-08T17:01:24Z</time>
      </trkpt>
      <trkpt lat="48.38913" lon="-4.45796">
        <ele>7.4</ele>
        <time>2020-06-08T17:01:25Z</time>
      </trkpt>
      <trkpt lat="48.38914" lon="-4.458">
        <ele>7.4</ele>
        <time>2020-06-08T17:01:26Z</time>
      </trkpt>
      <trkpt lat="48.38914" lon="-4.45806">
        <ele>7.6</ele>
        <time>2020-06-08T17:01:27Z</time>
      </trkpt>
      <trkpt lat="48.38913" lon="-4.4581">
        <ele>7.7</ele>
        <time>2020-06-08T17:01:28Z</time>
      </trkpt>
      <trkpt lat="48.38912" lon="-4.45815">
        <ele>7.9</ele>
        <time>2020-06-08T17:01:29Z</time>
      </trkpt>
      <trkpt lat="48.3891" lon="-4.4582">
        <ele>8.1</ele>
        <time>2020-06-08T17:01:30Z</time>
      </trkpt>
      <trkpt lat="48.38908" lon="-4.45825">
        <ele>8.2</ele>
        <time>2020-06-08T17:01:31Z</time>
      </trkpt>
      <trkpt lat="48.38906" lon="-4.45829">
        <ele>8.3</ele>
        <time>2020-06-08T17:01:32Z</time>
      </trkpt>
      <trkpt lat="48.38903" lon="-4.45832">
        <ele>8.4</ele>
        <time>2020-06-08T17:01:33Z</time>
      </trkpt>
      <trkpt lat="48.38901" lon="-4.45837">
        <ele>8.5</ele>
        <time>2020-06-08T17:01:34Z</time>
      </trkpt>
      <trkpt lat="48.38903" lon="-4.45843">
        <ele>8.6</ele>
        <time>2020-06-08T17:01:35Z</time>
      </trkpt>
      <trkpt lat="48.38906" lon="-4.45847">
        <ele>8.6</ele>
        <time>2020-06-08T17:01:36Z</time>
      </trkpt>
      <trkpt lat="48.38909" lon="-4.45847">
        <ele>8.6</ele>
        <time>2020-06-08T17:01:37Z</time>
      </trkpt>
      <trkpt lat="48.38913" lon="-4.45846">
        <ele>8.6</ele>
        <time>2020-06-08T17:01:38Z</time>
      </trkpt>
      <trkpt lat="48.38917" lon="-4.45845">
        <ele>8.7</ele>
        <time>2020-06-08T17:01:39Z</time>
      </trkpt>
      <trkpt lat="48.3892" lon="-4.45845">
        <ele>8.8</ele>
        <time>2020-06-08T17:01:40Z</time>
      </trkpt>
      <trkpt lat="48.38924" lon="-4.45845">
        <ele>8.8</ele>
        <time>2020-06-08T17:01:41Z</time>
      </trkpt>
      <trkpt lat="48.38928" lon="-4.45846">
        <ele>8.9</ele>
        <time>2020-06-08T17:01:42Z</time>
      </trkpt>
      <trkpt lat="48.38932" lon="-4.45848">
        <ele>9</ele>
        <time>2020-06-08T17:01:43Z</time>
      </trkpt>
      <trkpt lat="48.38935" lon="-4.45852">
        <ele>9.1</ele>
        <time>2020-06-08T17:01:44Z</time>
      </trkpt>
      <trkpt lat="48.38938" lon="-4.45856">
        <ele>9.1</ele>
        <time>2020-06-08T17:01:45Z</time>
      </trkpt>
      <trkpt lat="48.38941" lon="-4.45861">
        <ele>9.2</ele>
        <time>2020-06-08T17:01:46Z</time>
      </trkpt>
      <trkpt lat="48.38942" lon="-4.45866">
        <ele>9.3</ele>
        <time>2020-06-08T17:01:47Z</time>
      </trkpt>
      <trkpt lat="48.38943" lon="-4.45872">
        <ele>9.4</ele>
        <time>2020-06-08T17:01:48Z</time>
      </trkpt>
      <trkpt lat="48.38944" lon="-4.45878">
        <ele>9.5</ele>
        <time>2020-06-08T17:01:49Z</time>
      </trkpt>
      <trkpt lat="48.38945" lon="-4.45884">
        <ele>9.5</ele>
        <time>2020-06-08T17:01:50Z</time>
      </trkpt>
      <trkpt lat="48.38946" lon="-4.4589">
        <ele>9.6</ele>
        <time>2020-06-08T17:01:51Z</time>
      </trkpt>
      <trkpt lat="48.38948" lon="-4.45894">
        <ele>9.6</ele>
        <time>2020-06-08T17:01:52Z</time>
      </trkpt>
      <trkpt lat="48.38951" lon="-4.45899">
        <ele>9.7</ele>
        <time>2020-06-08T17:01:53Z</time>
      </trkpt>
      <trkpt lat="48.38953" lon="-4.45903">
        <ele>9.7</ele>
        <time>2020-06-08T17:01:54Z</time>
      </trkpt>
      <trkpt lat="48.38955" lon="-4.45908">
        <ele>9.7</ele>
        <time>2020-06-08T17:01:55Z</time>
      </trkpt>
      <trkpt lat="48.38956" lon="-4.45912">
        <ele>9.8</ele>
        <time>2020-06-08T17:01:56Z</time>
      </trkpt>
      <trkpt lat="48.38958" lon="-4.45917">
        <ele>9.8</ele>
        <time>2020-06-08T17:01:57Z</time>
      </trkpt>
      <trkpt lat="48.38958" lon="-4.45923">
        <ele>9.8</ele>
        <time>2020-06-08T17:01:58Z</time>
      </trkpt>
      <trkpt lat="48.38958" lon="-4.45929">
        <ele>9.8</ele>
        <time>2020-06-08T17:01:59Z</time>
      </trkpt>
      <trkpt lat="48.38957" lon="-4.45936">
        <ele>9.7</ele>
        <time>2020-06-08T17:02:00Z</time>
      </trkpt>
      <trkpt lat="48.38955" lon="-4.45942">
        <ele>9.7</ele>
        <time>2020-06-08T17:02:01Z</time>
      </trkpt>
      <trkpt lat="48.38953" lon="-4.45948">
        <ele>9.6</ele>
        <time>2020-06-08T17:02:02Z</time>
      </trkpt>
      <trkpt lat="48.38951" lon="-4.45953">
        <ele>9.6</ele>
        <time>2020-06-08T17:02:03Z</time>
      </trkpt>
      <trkpt lat="48.38949" lon="-4.4596">
        <ele>9.5</ele>
        <time>2020-06-08T17:02:04Z</time>
      </trkpt>
      <trkpt lat="48.38948" lon="-4.45967">
        <ele>9.5</ele>
        <time>2020-06-08T17:02:05Z</time>
      </trkpt>
      <trkpt lat="48.38947" lon="-4.45974">
        <ele>9.4</ele>
        <time>2020-06-08T17:02:06Z</time>
      </trkpt>
      <trkpt lat="48.38946" lon="-4.45982">
        <ele>9.4</ele>
        <time>2020-06-08T17:02:07Z</time>
      </trkpt>
      <trkpt lat="48.38945" lon="-4.45989">
        <ele>9.3</ele>
        <time>2020-06-08T17:02:08Z</time>
      </trkpt>
      <trkpt lat="48.38944" lon="-4.45996">
        <ele>9.3</ele>
        <time>2020-06-08T17:02:09Z</time>
      </trkpt>
      <trkpt lat="48.38941" lon="-4.46003">
        <ele>9.3</ele>
        <time>2020-06-08T17:02:10Z</time>
      </trkpt>
      <trkpt lat="48.38938" lon="-4.4601">
        <ele>9.2</ele>
        <time>2020-06-08T17:02:11Z</time>
      </trkpt>
      <trkpt lat="48.38935" lon="-4.46018">
        <ele>9.2</ele>
        <time>2020-06-08T17:02:12Z</time>
      </trkpt>
      <trkpt lat="48.38933" lon="-4.46026">
        <ele>9.1</ele>
        <time>2020-06-08T17:02:13Z</time>
      </trkpt>
      <trkpt lat="48.3893" lon="-4.46033">
        <ele>9</ele>
        <time>2020-06-08T17:02:14Z</time>
      </trkpt>
      <trkpt lat="48.38926" lon="-4.46041">
        <ele>9</ele>
        <time>2020-06-08T17:02:15Z</time>
      </trkpt>
      <trkpt lat="48.38922" lon="-4.46049">
        <ele>8.9</ele>
        <time>2020-06-08T17:02:16Z</time>
      </trkpt>
      <trkpt lat="48.38919" lon="-4.46057">
        <ele>8.8</ele>
        <time>2020-06-08T17:02:17Z</time>
      </trkpt>
      <trkpt lat="48.38916" lon="-4.46065">
        <ele>8.8</ele>
        <time>2020-06-08T17:02:18Z</time>
      </trkpt>
      <trkpt lat="48.38911" lon="-4.46073">
        <ele>8.7</ele>
        <time>2020-06-08T17:02:19Z</time>
      </trkpt>
      <trkpt lat="48.38907" lon="-4.4608">
        <ele>8.7</ele>
        <time>2020-06-08T17:02:20Z</time>
      </trkpt>
      <trkpt lat="48.38903" lon="-4.46089">
        <ele>8.6</ele>
        <time>2020-06-08T17:02:21Z</time>
      </trkpt>
      <trkpt lat="48.38899" lon="-4.46096">
        <ele>8.5</ele>
        <time>2020-06-08T17:02:22Z</time>
      </trkpt>
      <trkpt lat="48.38894" lon="-4.46104">
        <ele>8.5</ele>
        <time>2020-06-08T17:02:23Z</time>
      </trkpt>
      <trkpt lat="48.3889" lon="-4.46112">
        <ele>8.4</ele>
        <time>2020-06-08T17:02:24Z</time>
      </trkpt>
      <trkpt lat="48.38886" lon="-4.4612">
        <ele>8.4</ele>
        <time>2020-06-08T17:02:25Z</time>
      </trkpt>
      <trkpt lat="48.38881" lon="-4.46128">
        <ele>8.3</ele>
        <time>2020-06-08T17:02:26Z</time>
      </trkpt>
      <trkpt lat="48.38877" lon="-4.46136">
        <ele>8.3</ele>
        <time>2020-06-08T17:02:27Z</time>
      </trkpt>
      <trkpt lat="48.38873" lon="-4.46145">
        <ele>8.3</ele>
        <time>2020-06-08T17:02:28Z</time>
      </trkpt>
      <trkpt lat="48.38869" lon="-4.46153">
        <ele>8.2</ele>
        <time>2020-06-08T17:02:29Z</time>
      </trkpt>
      <trkpt lat="48.38865" lon="-4.46161">
        <ele>8.2</ele>
        <time>2020-06-08T17:02:30Z</time>
      </trkpt>
      <trkpt lat="48.38861" lon="-4.4617">
        <ele>8.2</ele>
        <time>2020-06-08T17:02:31Z</time>
      </trkpt>
      <trkpt lat="48.38857" lon="-4.46178">
        <ele>8.2</ele>
        <time>2020-06-08T17:02:32Z</time>
      </trkpt>
      <trkpt lat="48.38853" lon="-4.46187">
        <ele>8.1</ele>
        <time>2020-06-08T17:02:33Z</time>
      </trkpt>
      <trkpt lat="48.38849" lon="-4.46196">
        <ele>8.1</ele>
        <time>2020-06-08T17:02:34Z</time>
      </trkpt>
      <trkpt lat="48.38845" lon="-4.46205">
        <ele>8.1</ele>
        <time>2020-06-08T17:02:35Z</time>
      </trkpt>
      <trkpt lat="48.38842" lon="-4.46214">
        <ele>8</ele>
        <time>2020-06-08T17:02:36Z</time>
      </trkpt>
      <trkpt lat="48.38838" lon="-4.46223">
        <ele>8</ele>
        <time>2020-06-08T17:02:37Z</time>
      </trkpt>
      <trkpt lat="48.38834" lon="-4.46232">
        <ele>8</ele>
        <time>2020-06-08T17:02:38Z</time>
      </trkpt>
      <trkpt lat="48.38831" lon="-4.46241">
        <ele>8</ele>
        <time>2020-06-08T17:02:39Z</time>
      </trkpt>
      <trkpt lat="48.38828" lon="-4.4625">
        <ele>8</ele>
        <time>2020-06-08T17:02:40Z</time>
      </trkpt>
      <trkpt lat="48.38824" lon="-4.46258">
        <ele>8</ele>
        <time>2020-06-08T17:02:41Z</time>
      </trkpt>
      <trkpt lat="48.38821" lon="-4.46267">
        <ele>8</ele>
        <time>2020-06-08T17:02:42Z</time>
      </trkpt>
      <trkpt lat="48.38817" lon="-4.46277">
        <ele>7.9</ele>
        <time>2020-06-08T17:02:43Z</time>
      </trkpt>
      <trkpt lat="48.38814" lon="-4.46286">
        <ele>7.8</ele>
        <time>2020-06-08T17:02:44Z</time>
      </trkpt>
      <trkpt lat="48.38811" lon="-4.46295">
        <ele>7.8</ele>
        <time>2020-06-08T17:02:45Z</time>
      </trkpt>
      <trkpt lat="48.38808" lon="-4.46304">
        <ele>7.7</ele>
        <time>2020-06-08T17:02:46Z</time>
      </trkpt>
      <trkpt lat="48.38805" lon="-4.46314">
        <ele>7.7</ele>
        <time>2020-06-08T17:02:47Z</time>
      </trkpt>
      <trkpt lat="48.38802" lon="-4.46322">
        <ele>7.6</ele>
        <time>2020-06-08T17:02:48Z</time>
      </trkpt>
      <trkpt lat="48.38799" lon="-4.46331">
        <ele>7.6</ele>
        <time>2020-06-08T17:02:49Z</time>
      </trkpt>
      <trkpt lat="48.38796" lon="-4.4634">
        <ele>7.6</ele>
        <time>2020-06-08T17:02:50Z</time>
      </trkpt>
      <trkpt lat="48.38793" lon="-4.46349">
        <ele>7.6</ele>
        <time>2020-06-08T17:02:51Z</time>
      </trkpt>
      <trkpt lat="48.38791" lon="-4.46358">
        <ele>7.6</ele>
        <time>2020-06-08T17:02:52Z</time>
      </trkpt>
      <trkpt lat="48.38788" lon="-4.46367">
        <ele>7.6</ele>
        <time>2020-06-08T17:02:53Z</time>
      </trkpt>
      <trkpt lat="48.38785" lon="-4.46376">
        <ele>7.6</ele>
        <time>2020-06-08T17:02:54Z</time>
      </trkpt>
      <trkpt lat="48.38783" lon="-4.46384">
        <ele>7.5</ele>
        <time>2020-06-08T17:02:55Z</time>
      </trkpt>
      <trkpt lat="48.3878" lon="-4.46393">
        <ele>7.5</ele>
        <time>2020-06-08T17:02:56Z</time>
      </trkpt>
      <trkpt lat="48.38778" lon="-4.46402">
        <ele>7.4</ele>
        <time>2020-06-08T17:02:57Z</time>
      </trkpt>
      <trkpt lat="48.38777" lon="-4.46411">
        <ele>7.4</ele>
        <time>2020-06-08T17:02:58Z</time>
      </trkpt>
      <trkpt lat="48.38774" lon="-4.4642">
        <ele>7.4</ele>
        <time>2020-06-08T17:02:59Z</time>
      </trkpt>
      <trkpt lat="48.38772" lon="-4.46429">
        <ele>7.4</ele>
        <time>2020-06-08T17:03:00Z</time>
      </trkpt>
      <trkpt lat="48.3877" lon="-4.46438">
        <ele>7.4</ele>
        <time>2020-06-08T17:03:01Z</time>
      </trkpt>
      <trkpt lat="48.38767" lon="-4.46447">
        <ele>7.4</ele>
        <time>2020-06-08T17:03:02Z</time>
      </trkpt>
      <trkpt lat="48.38765" lon="-4.46456">
        <ele>7.4</ele>
        <time>2020-06-08T17:03:03Z</time>
      </trkpt>
      <trkpt lat="48.38763" lon="-4.46465">
        <ele>7.4</ele>
        <time>2020-06-08T17:03:04Z</time>
      </trkpt>
      <trkpt lat="48.3876" lon="-4.46474">
        <ele>7.4</ele>
        <time>2020-06-08T17:03:05Z</time>
      </trkpt>
      <trkpt lat="48.38757" lon="-4.46483">
        <ele>7.4</ele>
        <time>2020-06-08T17:03:06Z</time>
      </trkpt>
      <trkpt lat="48.38755" lon="-4.46492">
        <ele>7.3</ele>
        <time>2020-06-08T17:03:07Z</time>
      </trkpt>
      <trkpt lat="48.38753" lon="-4.46501">
        <ele>7.3</ele>
        <time>2020-06-08T17:03:08Z</time>
      </trkpt>
      <trkpt lat="48.38751" lon="-4.46511">
        <ele>7.3</ele>
        <time>2020-06-08T17:03:09Z</time>
      </trkpt>
      <trkpt lat="48.38749" lon="-4.46521">
        <ele>7.3</ele>
        <time>2020-06-08T17:03:10Z</time>
      </trkpt>
      <trkpt lat="48.38747" lon="-4.4653">
        <ele>7.3</ele>
        <time>2020-06-08T17:03:11Z</time>
      </trkpt>
      <trkpt lat="48.38745" lon="-4.4654">
        <ele>7.3</ele>
        <time>2020-06-08T17:03:12Z</time>
      </trkpt>
      <trkpt lat="48.38743" lon="-4.4655">
        <ele>7.3</ele>
        <time>2020-06-08T17:03:13Z</time>
      </trkpt>
      <trkpt lat="48.38741" lon="-4.46559">
        <ele>7.3</ele>
        <time>2020-06-08T17:03:14Z</time>
      </trkpt>
      <trkpt lat="48.38739" lon="-4.46569">
        <ele>7.3</ele>
        <time>2020-06-08T17:03:15Z</time>
      </trkpt>
      <trkpt lat="48.38737" lon="-4.46578">
        <ele>7.3</ele>
        <time>2020-06-08T17:03:16Z</time>
      </trkpt>
      <trkpt lat="48.38736" lon="-4.46587">
        <ele>7.3</ele>
        <time>2020-06-08T17:03:17Z</time>
      </trkpt>
      <trkpt lat="48.38734" lon="-4.46596">
        <ele>7.3</ele>
        <time>2020-06-08T17:03:18Z</time>
      </trkpt>
      <trkpt lat="48.38733" lon="-4.46606">
        <ele>7.3</ele>
        <time>2020-06-08T17:03:19Z</time>
      </trkpt>
      <trkpt lat="48.38732" lon="-4.46615">
        <ele>7.3</ele>
        <time>2020-06-08T17:03:20Z</time>
      </trkpt>
      <trkpt lat="48.3873" lon="-4.46625">
        <ele>7.3</ele>
        <time>2020-06-08T17:03:21Z</time>
      </trkpt>
      <trkpt lat="48.38729" lon="-4.46635">
        <ele>7.4</ele>
        <time>2020-06-08T17:03:22Z</time>
      </trkpt>
      <trkpt lat="48.38728" lon="-4.46645">
        <ele>7.4</ele>
        <time>2020-06-08T17:03:23Z</time>
      </trkpt>
      <trkpt lat="48.38727" lon="-4.46654">
        <ele>7.4</ele>
        <time>2020-06-08T17:03:24Z</time>
      </trkpt>
      <trkpt lat="48.38725" lon="-4.46664">
        <ele>7.4</ele>
        <time>2020-06-08T17:03:25Z</time>
      </trkpt>
      <trkpt lat="48.38724" lon="-4.46673">
        <ele>7.4</ele>
        <time>2020-06-08T17:03:26Z</time>
      </trkpt>
      <trkpt lat="48.38722" lon="-4.46683">
        <ele>7.4</ele>
        <time>2020-06-08T17:03:27Z</time>
      </trkpt>
      <trkpt lat="48.3872" lon="-4.46692">
        <ele>7.5</ele>
        <time>2020-06-08T17:03:28Z</time>
      </trkpt>
      <trkpt lat="48.38719" lon="-4.46702">
        <ele>7.5</ele>
        <time>2020-06-08T17:03:29Z</time>
      </trkpt>
      <trkpt lat="48.38717" lon="-4.46711">
        <ele>7.4</ele>
        <time>2020-06-08T17:03:30Z</time>
      </trkpt>
      <trkpt lat="48.38716" lon="-4.46721">
        <ele>7.4</ele>
        <time>2020-06-08T17:03:31Z</time>
      </trkpt>
      <trkpt lat="48.38714" lon="-4.4673">
        <ele>7.4</ele>
        <time>2020-06-08T17:03:32Z</time>
      </trkpt>
      <trkpt lat="48.38713" lon="-4.4674">
        <ele>7.4</ele>
        <time>2020-06-08T17:03:33Z</time>
      </trkpt>
      <trkpt lat="48.38711" lon="-4.46749">
        <ele>7.4</ele>
        <time>2020-06-08T17:03:34Z</time>
      </trkpt>
      <trkpt lat="48.38709" lon="-4.46758">
        <ele>7.4</ele>
        <time>2020-06-08T17:03:35Z</time>
      </trkpt>
      <trkpt lat="48.38708" lon="-4.46767">
        <ele>7.4</ele>
        <time>2020-06-08T17:03:36Z</time>
      </trkpt>
      <trkpt lat="48.38706" lon="-4.46776">
        <ele>7.4</ele>
        <time>2020-06-08T17:03:37Z</time>
      </trkpt>
      <trkpt lat="48.38705" lon="-4.46784">
        <ele>7.4</ele>
        <time>2020-06-08T17:03:38Z</time>
      </trkpt>
      <trkpt lat="48.38704" lon="-4.46793">
        <ele>7.4</ele>
        <time>2020-06-08T17:03:39Z</time>
      </trkpt>
      <trkpt lat="48.38703" lon="-4.46801">
        <ele>7.4</ele>
        <time>2020-06-08T17:03:40Z</time>
      </trkpt>
      <trkpt lat="48.38702" lon="-4.46811">
        <ele>7.4</ele>
        <time>2020-06-08T17:03:41Z</time>
      </trkpt>
      <trkpt lat="48.387" lon="-4.4682">
        <ele>7.4</ele>
        <time>2020-06-08T17:03:42Z</time>
      </trkpt>
      <trkpt lat="48.38698" lon="-4.4683">
        <ele>7.4</ele>
        <time>2020-06-08T17:03:43Z</time>
      </trkpt>
      <trkpt lat="48.38697" lon="-4.46839">
        <ele>7.4</ele>
        <time>2020-06-08T17:03:44Z</time>
      </trkpt>
      <trkpt lat="48.38695" lon="-4.46848">
        <ele>7.4</ele>
        <time>2020-06-08T17:03:45Z</time>
      </trkpt>
      <trkpt lat="48.38694" lon="-4.46857">
        <ele>7.4</ele>
        <time>2020-06-08T17:03:46Z</time>
      </trkpt>
      <trkpt lat="48.38693" lon="-4.46866">
        <ele>7.5</ele>
        <time>2020-06-08T17:03:47Z</time>
      </trkpt>
      <trkpt lat="48.38691" lon="-4.46875">
        <ele>7.5</ele>
        <time>2020-06-08T17:03:48Z</time>
      </trkpt>
      <trkpt lat="48.3869" lon="-4.46884">
        <ele>7.5</ele>
        <time>2020-06-08T17:03:49Z</time>
      </trkpt>
      <trkpt lat="48.38689" lon="-4.46892">
        <ele>7.5</ele>
        <time>2020-06-08T17:03:50Z</time>
      </trkpt>
      <trkpt lat="48.38688" lon="-4.469">
        <ele>7.6</ele>
        <time>2020-06-08T17:03:51Z</time>
      </trkpt>
      <trkpt lat="48.38687" lon="-4.46909">
        <ele>7.6</ele>
        <time>2020-06-08T17:03:52Z</time>
      </trkpt>
      <trkpt lat="48.38685" lon="-4.46918">
        <ele>7.6</ele>
        <time>2020-06-08T17:03:53Z</time>
      </trkpt>
      <trkpt lat="48.38684" lon="-4.46927">
        <ele>7.6</ele>
        <time>2020-06-08T17:03:54Z</time>
      </trkpt>
      <trkpt lat="48.38683" lon="-4.46936">
        <ele>7.6</ele>
        <time>2020-06-08T17:03:55Z</time>
      </trkpt>
      <trkpt lat="48.38682" lon="-4.46943">
        <ele>7.6</ele>
        <time>2020-06-08T17:03:56Z</time>
      </trkpt>
      <trkpt lat="48.38681" lon="-4.46952">
        <ele>7.6</ele>
        <time>2020-06-08T17:03:57Z</time>
      </trkpt>
      <trkpt lat="48.38679" lon="-4.4696">
        <ele>7.6</ele>
        <time>2020-06-08T17:03:58Z</time>
      </trkpt>
      <trkpt lat="48.38678" lon="-4.46969">
        <ele>7.6</ele>
        <time>2020-06-08T17:03:59Z</time>
      </trkpt>
      <trkpt lat="48.38677" lon="-4.46977">
        <ele>7.6</ele>
        <time>2020-06-08T17:04:00Z</time>
      </trkpt>
      <trkpt lat="48.38675" lon="-4.46986">
        <ele>7.6</ele>
        <time>2020-06-08T17:04:01Z</time>
      </trkpt>
      <trkpt lat="48.38674" lon="-4.46995">
        <ele>7.7</ele>
        <time>2020-06-08T17:04:02Z</time>
      </trkpt>
      <trkpt lat="48.38672" lon="-4.47004">
        <ele>7.7</ele>
        <time>2020-06-08T17:04:03Z</time>
      </trkpt>
      <trkpt lat="48.38672" lon="-4.47012">
        <ele>7.7</ele>
        <time>2020-06-08T17:04:04Z</time>
      </trkpt>
      <trkpt lat="48.38671" lon="-4.47021">
        <ele>7.7</ele>
        <time>2020-06-08T17:04:05Z</time>
      </trkpt>
      <trkpt lat="48.3867" lon="-4.47029">
        <ele>7.7</ele>
        <time>2020-06-08T17:04:06Z</time>
      </trkpt>
      <trkpt lat="48.38668" lon="-4.47038">
        <ele>7.7</ele>
        <time>2020-06-08T17:04:07Z</time>
      </trkpt>
      <trkpt lat="48.38665" lon="-4.47045">
        <ele>7.7</ele>
        <time>2020-06-08T17:04:08Z</time>
      </trkpt>
      <trkpt lat="48.38662" lon="-4.47051">
        <ele>7.7</ele>
        <time>2020-06-08T17:04:09Z</time>
      </trkpt>
      <trkpt lat="48.38659" lon="-4.47058">
        <ele>7.7</ele>
        <time>2020-06-08T17:04:10Z</time>
      </trkpt>
      <trkpt lat="48.38656" lon="-4.47066">
        <ele>7.7</ele>
        <time>2020-06-08T17:04:11Z</time>
      </trkpt>
      <trkpt lat="48.38654" lon="-4.47074">
        <ele>7.7</ele>
        <time>2020-06-08T17:04:12Z</time>
      </trkpt>
      <trkpt lat="48.38652" lon="-4.47082">
        <ele>7.7</ele>
        <time>2020-06-08T17:04:13Z</time>
      </trkpt>
      <trkpt lat="48.3865" lon="-4.47091">
        <ele>7.7</ele>
        <time>2020-06-08T17:04:14Z</time>
      </trkpt>
      <trkpt lat="48.38648" lon="-4.47099">
        <ele>7.7</ele>
        <time>2020-06-08T17:04:15Z</time>
      </trkpt>
      <trkpt lat="48.38647" lon="-4.47108">
        <ele>7.7</ele>
        <time>2020-06-08T17:04:16Z</time>
      </trkpt>
      <trkpt lat="48.38645" lon="-4.47116">
        <ele>7.7</ele>
        <time>2020-06-08T17:04:17Z</time>
      </trkpt>
      <trkpt lat="48.38645" lon="-4.47124">
        <ele>7.8</ele>
        <time>2020-06-08T17:04:18Z</time>
      </trkpt>
      <trkpt lat="48.38646" lon="-4.47129">
        <ele>7.8</ele>
        <time>2020-06-08T17:04:19Z</time>
      </trkpt>
      <trkpt lat="48.38647" lon="-4.47135">
        <ele>7.8</ele>
        <time>2020-06-08T17:04:20Z</time>
      </trkpt>
      <trkpt lat="48.38648" lon="-4.47137">
        <ele>7.9</ele>
        <time>2020-06-08T17:04:21Z</time>
      </trkpt>
      <trkpt lat="48.38651" lon="-4.47139">
        <ele>7.9</ele>
        <time>2020-06-08T17:04:22Z</time>
      </trkpt>
      <trkpt lat="48.38654" lon="-4.47142">
        <ele>8.2</ele>
        <time>2020-06-08T17:04:23Z</time>
      </trkpt>
      <trkpt lat="48.38656" lon="-4.47145">
        <ele>8.2</ele>
        <time>2020-06-08T17:04:24Z</time>
      </trkpt>
      <trkpt lat="48.38656" lon="-4.47151">
        <ele>8.2</ele>
        <time>2020-06-08T17:04:25Z</time>
      </trkpt>
      <trkpt lat="48.38655" lon="-4.47153">
        <ele>8.1</ele>
        <time>2020-06-08T17:04:26Z</time>
      </trkpt>
      <trkpt lat="48.38654" lon="-4.47158">
        <ele>8.1</ele>
        <time>2020-06-08T17:04:27Z</time>
      </trkpt>
      <trkpt lat="48.38653" lon="-4.47163">
        <ele>8.1</ele>
        <time>2020-06-08T17:04:28Z</time>
      </trkpt>
      <trkpt lat="48.38652" lon="-4.4717">
        <ele>8</ele>
        <time>2020-06-08T17:04:29Z</time>
      </trkpt>
      <trkpt lat="48.38651" lon="-4.47176">
        <ele>7.9</ele>
        <time>2020-06-08T17:04:30Z</time>
      </trkpt>
      <trkpt lat="48.38651" lon="-4.47183">
        <ele>7.9</ele>
        <time>2020-06-08T17:04:31Z</time>
      </trkpt>
      <trkpt lat="48.38651" lon="-4.47191">
        <ele>7.8</ele>
        <time>2020-06-08T17:04:32Z</time>
      </trkpt>
      <trkpt lat="48.3865" lon="-4.47198">
        <ele>7.7</ele>
        <time>2020-06-08T17:04:33Z</time>
      </trkpt>
      <trkpt lat="48.38649" lon="-4.47206">
        <ele>7.7</ele>
        <time>2020-06-08T17:04:34Z</time>
      </trkpt>
      <trkpt lat="48.38647" lon="-4.47212">
        <ele>7.6</ele>
        <time>2020-06-08T17:04:35Z</time>
      </trkpt>
      <trkpt lat="48.38646" lon="-4.4722">
        <ele>7.6</ele>
        <time>2020-06-08T17:04:36Z</time>
      </trkpt>
      <trkpt lat="48.38644" lon="-4.47229">
        <ele>7.5</ele>
        <time>2020-06-08T17:04:37Z</time>
      </trkpt>
      <trkpt lat="48.38643" lon="-4.47237">
        <ele>7.4</ele>
        <time>2020-06-08T17:04:38Z</time>
      </trkpt>
      <trkpt lat="48.38642" lon="-4.47246">
        <ele>7.4</ele>
        <time>2020-06-08T17:04:39Z</time>
      </trkpt>
      <trkpt lat="48.38641" lon="-4.47255">
        <ele>7.3</ele>
        <time>2020-06-08T17:04:40Z</time>
      </trkpt>
      <trkpt lat="48.3864" lon="-4.47264">
        <ele>7.2</ele>
        <time>2020-06-08T17:04:41Z</time>
      </trkpt>
      <trkpt lat="48.38638" lon="-4.47272">
        <ele>7.2</ele>
        <time>2020-06-08T17:04:42Z</time>
      </trkpt>
      <trkpt lat="48.38637" lon="-4.47281">
        <ele>7.1</ele>
        <time>2020-06-08T17:04:43Z</time>
      </trkpt>
      <trkpt lat="48.38636" lon="-4.47289">
        <ele>7.1</ele>
        <time>2020-06-08T17:04:44Z</time>
      </trkpt>
      <trkpt lat="48.38635" lon="-4.47298">
        <ele>7.1</ele>
        <time>2020-06-08T17:04:45Z</time>
      </trkpt>
      <trkpt lat="48.38634" lon="-4.47307">
        <ele>7</ele>
        <time>2020-06-08T17:04:46Z</time>
      </trkpt>
      <trkpt lat="48.38634" lon="-4.47316">
        <ele>7</ele>
        <time>2020-06-08T17:04:47Z</time>
      </trkpt>
      <trkpt lat="48.38634" lon="-4.47325">
        <ele>7</ele>
        <time>2020-06-08T17:04:48Z</time>
      </trkpt>
      <trkpt lat="48.38632" lon="-4.47334">
        <ele>7</ele>
        <time>2020-06-08T17:04:49Z</time>
      </trkpt>
      <trkpt lat="48.38631" lon="-4.47343">
        <ele>7</ele>
        <time>2020-06-08T17:04:50Z</time>
      </trkpt>
      <trkpt lat="48.38628" lon="-4.47351">
        <ele>7</ele>
        <time>2020-06-08T17:04:51Z</time>
      </trkpt>
      <trkpt lat="48.38626" lon="-4.47359">
        <ele>7</ele>
        <time>2020-06-08T17:04:52Z</time>
      </trkpt>
      <trkpt lat="48.38622" lon="-4.47367">
        <ele>7</ele>
        <time>2020-06-08T17:04:53Z</time>
      </trkpt>
      <trkpt lat="48.3862" lon="-4.47377">
        <ele>6.9</ele>
        <time>2020-06-08T17:04:54Z</time>
      </trkpt>
      <trkpt lat="48.38618" lon="-4.47385">
        <ele>6.9</ele>
        <time>2020-06-08T17:04:55Z</time>
      </trkpt>
      <trkpt lat="48.38618" lon="-4.47394">
        <ele>6.9</ele>
        <time>2020-06-08T17:04:56Z</time>
      </trkpt>
      <trkpt lat="48.38615" lon="-4.47402">
        <ele>6.9</ele>
        <time>2020-06-08T17:04:57Z</time>
      </trkpt>
      <trkpt lat="48.38614" lon="-4.4741">
        <ele>6.9</ele>
        <time>2020-06-08T17:04:58Z</time>
      </trkpt>
      <trkpt lat="48.38613" lon="-4.47418">
        <ele>6.9</ele>
        <time>2020-06-08T17:04:59Z</time>
      </trkpt>
      <trkpt lat="48.38612" lon="-4.47427">
        <ele>6.9</ele>
        <time>2020-06-08T17:05:00Z</time>
      </trkpt>
      <trkpt lat="48.3861" lon="-4.47435">
        <ele>6.9</ele>
        <time>2020-06-08T17:05:01Z</time>
      </trkpt>
      <trkpt lat="48.38609" lon="-4.47443">
        <ele>6.9</ele>
        <time>2020-06-08T17:05:02Z</time>
      </trkpt>
      <trkpt lat="48.38607" lon="-4.47451">
        <ele>6.9</ele>
        <time>2020-06-08T17:05:03Z</time>
      </trkpt>
      <trkpt lat="48.38607" lon="-4.47459">
        <ele>6.9</ele>
        <time>2020-06-08T17:05:04Z</time>
      </trkpt>
      <trkpt lat="48.38606" lon="-4.47468">
        <ele>6.9</ele>
        <time>2020-06-08T17:05:05Z</time>
      </trkpt>
      <trkpt lat="48.38605" lon="-4.47476">
        <ele>6.9</ele>
        <time>2020-06-08T17:05:06Z</time>
      </trkpt>
      <trkpt lat="48.38603" lon="-4.47484">
        <ele>6.9</ele>
        <time>2020-06-08T17:05:07Z</time>
      </trkpt>
      <trkpt lat="48.38601" lon="-4.47492">
        <ele>6.9</ele>
        <time>2020-06-08T17:05:08Z</time>
      </trkpt>
      <trkpt lat="48.38599" lon="-4.475">
        <ele>6.9</ele>
        <time>2020-06-08T17:05:09Z</time>
      </trkpt>
      <trkpt lat="48.38598" lon="-4.47507">
        <ele>6.9</ele>
        <time>2020-06-08T17:05:10Z</time>
      </trkpt>
      <trkpt lat="48.38597" lon="-4.47513">
        <ele>6.9</ele>
        <time>2020-06-08T17:05:11Z</time>
      </trkpt>
      <trkpt lat="48.38597" lon="-4.47519">
        <ele>6.9</ele>
        <time>2020-06-08T17:05:12Z</time>
      </trkpt>
      <trkpt lat="48.38598" lon="-4.47526">
        <ele>7</ele>
        <time>2020-06-08T17:05:13Z</time>
      </trkpt>
      <trkpt lat="48.38596" lon="-4.47533">
        <ele>6.9</ele>
        <time>2020-06-08T17:05:14Z</time>
      </trkpt>
      <trkpt lat="48.38593" lon="-4.47538">
        <ele>6.7</ele>
        <time>2020-06-08T17:05:15Z</time>
      </trkpt>
      <trkpt lat="48.3859" lon="-4.47542">
        <ele>6.5</ele>
        <time>2020-06-08T17:05:16Z</time>
      </trkpt>
      <trkpt lat="48.38587" lon="-4.47548">
        <ele>6.5</ele>
        <time>2020-06-08T17:05:17Z</time>
      </trkpt>
      <trkpt lat="48.38585" lon="-4.47554">
        <ele>6.5</ele>
        <time>2020-06-08T17:05:18Z</time>
      </trkpt>
      <trkpt lat="48.38583" lon="-4.4756">
        <ele>6.4</ele>
        <time>2020-06-08T17:05:19Z</time>
      </trkpt>
      <trkpt lat="48.3858" lon="-4.47566">
        <ele>6.4</ele>
        <time>2020-06-08T17:05:20Z</time>
      </trkpt>
      <trkpt lat="48.38578" lon="-4.47573">
        <ele>6.3</ele>
        <time>2020-06-08T17:05:21Z</time>
      </trkpt>
      <trkpt lat="48.38577" lon="-4.4758">
        <ele>6.2</ele>
        <time>2020-06-08T17:05:22Z</time>
      </trkpt>
      <trkpt lat="48.38574" lon="-4.47586">
        <ele>6.2</ele>
        <time>2020-06-08T17:05:23Z</time>
      </trkpt>
      <trkpt lat="48.38573" lon="-4.47593">
        <ele>6.1</ele>
        <time>2020-06-08T17:05:24Z</time>
      </trkpt>
      <trkpt lat="48.38575" lon="-4.47597">
        <ele>6.5</ele>
        <time>2020-06-08T17:05:25Z</time>
      </trkpt>
      <trkpt lat="48.38579" lon="-4.47601">
        <ele>6.6</ele>
        <time>2020-06-08T17:05:26Z</time>
      </trkpt>
      <trkpt lat="48.38584" lon="-4.47603">
        <ele>6.7</ele>
        <time>2020-06-08T17:05:27Z</time>
      </trkpt>
      <trkpt lat="48.38588" lon="-4.47604">
        <ele>6.7</ele>
        <time>2020-06-08T17:05:28Z</time>
      </trkpt>
      <trkpt lat="48.38593" lon="-4.47605">
        <ele>6.7</ele>
        <time>2020-06-08T17:05:29Z</time>
      </trkpt>
      <trkpt lat="48.38597" lon="-4.47607">
        <ele>6.7</ele>
        <time>2020-06-08T17:05:30Z</time>
      </trkpt>
      <trkpt lat="48.38601" lon="-4.4761">
        <ele>6.8</ele>
        <time>2020-06-08T17:05:31Z</time>
      </trkpt>
      <trkpt lat="48.38605" lon="-4.47611">
        <ele>6.8</ele>
        <time>2020-06-08T17:05:32Z</time>
      </trkpt>
      <trkpt lat="48.38609" lon="-4.47614">
        <ele>6.9</ele>
        <time>2020-06-08T17:05:33Z</time>
      </trkpt>
      <trkpt lat="48.38614" lon="-4.47616">
        <ele>6.9</ele>
        <time>2020-06-08T17:05:34Z</time>
      </trkpt>
      <trkpt lat="48.38617" lon="-4.47619">
        <ele>6.9</ele>
        <time>2020-06-08T17:05:35Z</time>
      </trkpt>
      <trkpt lat="48.38621" lon="-4.4762">
        <ele>7</ele>
        <time>2020-06-08T17:05:36Z</time>
      </trkpt>
      <trkpt lat="48.38624" lon="-4.47622">
        <ele>7</ele>
        <time>2020-06-08T17:05:37Z</time>
      </trkpt>
      <trkpt lat="48.38628" lon="-4.47623">
        <ele>7.1</ele>
        <time>2020-06-08T17:05:38Z</time>
      </trkpt>
      <trkpt lat="48.3863" lon="-4.47626">
        <ele>7.1</ele>
        <time>2020-06-08T17:05:39Z</time>
      </trkpt>
      <trkpt lat="48.38631" lon="-4.47631">
        <ele>7.1</ele>
        <time>2020-06-08T17:05:40Z</time>
      </trkpt>
      <trkpt lat="48.38633" lon="-4.47637">
        <ele>7</ele>
        <time>2020-06-08T17:05:41Z</time>
      </trkpt>
      <trkpt lat="48.38632" lon="-4.47643">
        <ele>6.9</ele>
        <time>2020-06-08T17:05:42Z</time>
      </trkpt>
      <trkpt lat="48.3863" lon="-4.47649">
        <ele>6.9</ele>
        <time>2020-06-08T17:05:43Z</time>
      </trkpt>
      <trkpt lat="48.3863" lon="-4.47655">
        <ele>6.8</ele>
        <time>2020-06-08T17:05:44Z</time>
      </trkpt>
      <trkpt lat="48.3863" lon="-4.47663">
        <ele>6.7</ele>
        <time>2020-06-08T17:05:45Z</time>
      </trkpt>
      <trkpt lat="48.3863" lon="-4.47669">
        <ele>6.7</ele>
        <time>2020-06-08T17:05:46Z</time>
      </trkpt>
      <trkpt lat="48.38629" lon="-4.47677">
        <ele>6.6</ele>
        <time>2020-06-08T17:05:47Z</time>
      </trkpt>
      <trkpt lat="48.38629" lon="-4.47685">
        <ele>6.6</ele>
        <time>2020-06-08T17:05:48Z</time>
      </trkpt>
      <trkpt lat="48.38628" lon="-4.47692">
        <ele>6.6</ele>
        <time>2020-06-08T17:05:49Z</time>
      </trkpt>
      <trkpt lat="48.38626" lon="-4.477">
        <ele>6.7</ele>
        <time>2020-06-08T17:05:50Z</time>
      </trkpt>
      <trkpt lat="48.38625" lon="-4.47707">
        <ele>6.7</ele>
        <time>2020-06-08T17:05:51Z</time>
      </trkpt>
      <trkpt lat="48.38625" lon="-4.47715">
        <ele>6.7</ele>
        <time>2020-06-08T17:05:52Z</time>
      </trkpt>
      <trkpt lat="48.38624" lon="-4.47722">
        <ele>6.7</ele>
        <time>2020-06-08T17:05:53Z</time>
      </trkpt>
      <trkpt lat="48.38621" lon="-4.4773">
        <ele>6.7</ele>
        <time>2020-06-08T17:05:54Z</time>
      </trkpt>
      <trkpt lat="48.3862" lon="-4.47737">
        <ele>6.7</ele>
        <time>2020-06-08T17:05:55Z</time>
      </trkpt>
      <trkpt lat="48.38618" lon="-4.47744">
        <ele>6.6</ele>
        <time>2020-06-08T17:05:56Z</time>
      </trkpt>
      <trkpt lat="48.38617" lon="-4.47753">
        <ele>6.6</ele>
        <time>2020-06-08T17:05:57Z</time>
      </trkpt>
      <trkpt lat="48.38615" lon="-4.47761">
        <ele>6.6</ele>
        <time>2020-06-08T17:05:58Z</time>
      </trkpt>
      <trkpt lat="48.38614" lon="-4.47769">
        <ele>6.6</ele>
        <time>2020-06-08T17:05:59Z</time>
      </trkpt>
      <trkpt lat="48.38613" lon="-4.47778">
        <ele>6.6</ele>
        <time>2020-06-08T17:06:00Z</time>
      </trkpt>
      <trkpt lat="48.38612" lon="-4.47787">
        <ele>6.6</ele>
        <time>2020-06-08T17:06:01Z</time>
      </trkpt>
      <trkpt lat="48.38611" lon="-4.47796">
        <ele>6.6</ele>
        <time>2020-06-08T17:06:02Z</time>
      </trkpt>
      <trkpt lat="48.38608" lon="-4.47804">
        <ele>6.6</ele>
        <time>2020-06-08T17:06:03Z</time>
      </trkpt>
      <trkpt lat="48.38607" lon="-4.47813">
        <ele>6.6</ele>
        <time>2020-06-08T17:06:04Z</time>
      </trkpt>
      <trkpt lat="48.38606" lon="-4.47821">
        <ele>6.7</ele>
        <time>2020-06-08T17:06:05Z</time>
      </trkpt>
      <trkpt lat="48.38604" lon="-4.4783">
        <ele>6.7</ele>
        <time>2020-06-08T17:06:06Z</time>
      </trkpt>
      <trkpt lat="48.38604" lon="-4.47837">
        <ele>6.7</ele>
        <time>2020-06-08T17:06:07Z</time>
      </trkpt>
      <trkpt lat="48.38603" lon="-4.47845">
        <ele>6.7</ele>
        <time>2020-06-08T17:06:08Z</time>
      </trkpt>
      <trkpt lat="48.38602" lon="-4.47852">
        <ele>6.8</ele>
        <time>2020-06-08T17:06:09Z</time>
      </trkpt>
      <trkpt lat="48.386" lon="-4.47859">
        <ele>6.8</ele>
        <time>2020-06-08T17:06:10Z</time>
      </trkpt>
      <trkpt lat="48.38599" lon="-4.47865">
        <ele>6.8</ele>
        <time>2020-06-08T17:06:11Z</time>
      </trkpt>
      <trkpt lat="48.38597" lon="-4.47871">
        <ele>6.8</ele>
        <time>2020-06-08T17:06:12Z</time>
      </trkpt>
      <trkpt lat="48.38596" lon="-4.47878">
        <ele>6.9</ele>
        <time>2020-06-08T17:06:13Z</time>
      </trkpt>
      <trkpt lat="48.38595" lon="-4.47886">
        <ele>6.9</ele>
        <time>2020-06-08T17:06:14Z</time>
      </trkpt>
      <trkpt lat="48.38594" lon="-4.47893">
        <ele>6.9</ele>
        <time>2020-06-08T17:06:15Z</time>
      </trkpt>
      <trkpt lat="48.38593" lon="-4.479">
        <ele>7</ele>
        <time>2020-06-08T17:06:16Z</time>
      </trkpt>
      <trkpt lat="48.38592" lon="-4.47907">
        <ele>7</ele>
        <time>2020-06-08T17:06:17Z</time>
      </trkpt>
      <trkpt lat="48.38592" lon="-4.47913">
        <ele>7</ele>
        <time>2020-06-08T17:06:18Z</time>
      </trkpt>
      <trkpt lat="48.3859" lon="-4.47919">
        <ele>7</ele>
        <time>2020-06-08T17:06:19Z</time>
      </trkpt>
      <trkpt lat="48.38588" lon="-4.47925">
        <ele>7</ele>
        <time>2020-06-08T17:06:20Z</time>
      </trkpt>
      <trkpt lat="48.38587" lon="-4.47931">
        <ele>7.1</ele>
        <time>2020-06-08T17:06:21Z</time>
      </trkpt>
      <trkpt lat="48.38587" lon="-4.47938">
        <ele>7.1</ele>
        <time>2020-06-08T17:06:22Z</time>
      </trkpt>
      <trkpt lat="48.38586" lon="-4.47944">
        <ele>7.1</ele>
        <time>2020-06-08T17:06:23Z</time>
      </trkpt>
      <trkpt lat="48.38586" lon="-4.47948">
        <ele>7.1</ele>
        <time>2020-06-08T17:06:24Z</time>
      </trkpt>
      <trkpt lat="48.38584" lon="-4.47953">
        <ele>7.1</ele>
        <time>2020-06-08T17:06:25Z</time>
      </trkpt>
      <trkpt lat="48.38582" lon="-4.47958">
        <ele>7.1</ele>
        <time>2020-06-08T17:06:26Z</time>
      </trkpt>
      <trkpt lat="48.38581" lon="-4.47964">
        <ele>7.1</ele>
        <time>2020-06-08T17:06:27Z</time>
      </trkpt>
      <trkpt lat="48.38579" lon="-4.4797">
        <ele>7.2</ele>
        <time>2020-06-08T17:06:28Z</time>
      </trkpt>
      <trkpt lat="48.38577" lon="-4.47976">
        <ele>7.2</ele>
        <time>2020-06-08T17:06:29Z</time>
      </trkpt>
      <trkpt lat="48.38575" lon="-4.47982">
        <ele>7.2</ele>
        <time>2020-06-08T17:06:30Z</time>
      </trkpt>
      <trkpt lat="48.38573" lon="-4.47988">
        <ele>7.3</ele>
        <time>2020-06-08T17:06:31Z</time>
      </trkpt>
      <trkpt lat="48.3857" lon="-4.47994">
        <ele>7.3</ele>
        <time>2020-06-08T17:06:32Z</time>
      </trkpt>
      <trkpt lat="48.38568" lon="-4.48">
        <ele>7.3</ele>
        <time>2020-06-08T17:06:33Z</time>
      </trkpt>
      <trkpt lat="48.38566" lon="-4.48005">
        <ele>7.3</ele>
        <time>2020-06-08T17:06:34Z</time>
      </trkpt>
      <trkpt lat="48.38563" lon="-4.4801">
        <ele>7.4</ele>
        <time>2020-06-08T17:06:35Z</time>
      </trkpt>
      <trkpt lat="48.38561" lon="-4.48016">
        <ele>7.4</ele>
        <time>2020-06-08T17:06:36Z</time>
      </trkpt>
      <trkpt lat="48.38559" lon="-4.48022">
        <ele>7.4</ele>
        <time>2020-06-08T17:06:37Z</time>
      </trkpt>
      <trkpt lat="48.38557" lon="-4.48028">
        <ele>7.5</ele>
        <time>2020-06-08T17:06:38Z</time>
      </trkpt>
      <trkpt lat="48.38554" lon="-4.48034">
        <ele>7.5</ele>
        <time>2020-06-08T17:06:39Z</time>
      </trkpt>
      <trkpt lat="48.38553" lon="-4.48041">
        <ele>7.6</ele>
        <time>2020-06-08T17:06:40Z</time>
      </trkpt>
      <trkpt lat="48.38551" lon="-4.48047">
        <ele>7.7</ele>
        <time>2020-06-08T17:06:41Z</time>
      </trkpt>
      <trkpt lat="48.38549" lon="-4.48053">
        <ele>7.8</ele>
        <time>2020-06-08T17:06:42Z</time>
      </trkpt>
      <trkpt lat="48.38547" lon="-4.48059">
        <ele>7.9</ele>
        <time>2020-06-08T17:06:43Z</time>
      </trkpt>
      <trkpt lat="48.38545" lon="-4.48065">
        <ele>8</ele>
        <time>2020-06-08T17:06:44Z</time>
      </trkpt>
      <trkpt lat="48.38543" lon="-4.48071">
        <ele>8.1</ele>
        <time>2020-06-08T17:06:45Z</time>
      </trkpt>
      <trkpt lat="48.38541" lon="-4.48077">
        <ele>8.2</ele>
        <time>2020-06-08T17:06:46Z</time>
      </trkpt>
      <trkpt lat="48.38539" lon="-4.48082">
        <ele>8.3</ele>
        <time>2020-06-08T17:06:47Z</time>
      </trkpt>
      <trkpt lat="48.38536" lon="-4.48088">
        <ele>8.4</ele>
        <time>2020-06-08T17:06:48Z</time>
      </trkpt>
      <trkpt lat="48.38534" lon="-4.48093">
        <ele>8.5</ele>
        <time>2020-06-08T17:06:49Z</time>
      </trkpt>
      <trkpt lat="48.38531" lon="-4.48098">
        <ele>9.3</ele>
        <time>2020-06-08T17:06:50Z</time>
      </trkpt>
      <trkpt lat="48.3853" lon="-4.48104">
        <ele>9.2</ele>
        <time>2020-06-08T17:06:51Z</time>
      </trkpt>
      <trkpt lat="48.38527" lon="-4.48108">
        <ele>9.2</ele>
        <time>2020-06-08T17:06:52Z</time>
      </trkpt>
      <trkpt lat="48.38524" lon="-4.48112">
        <ele>9.2</ele>
        <time>2020-06-08T17:06:53Z</time>
      </trkpt>
      <trkpt lat="48.38521" lon="-4.48116">
        <ele>9.2</ele>
        <time>2020-06-08T17:06:54Z</time>
      </trkpt>
      <trkpt lat="48.38518" lon="-4.4812">
        <ele>9.2</ele>
        <time>2020-06-08T17:06:55Z</time>
      </trkpt>
      <trkpt lat="48.38514" lon="-4.48121">
        <ele>9.2</ele>
        <time>2020-06-08T17:06:56Z</time>
      </trkpt>
      <trkpt lat="48.3851" lon="-4.48124">
        <ele>9.1</ele>
        <time>2020-06-08T17:06:57Z</time>
      </trkpt>
      <trkpt lat="48.38506" lon="-4.48124">
        <ele>9.1</ele>
        <time>2020-06-08T17:06:58Z</time>
      </trkpt>
      <trkpt lat="48.38502" lon="-4.48124">
        <ele>9.1</ele>
        <time>2020-06-08T17:06:59Z</time>
      </trkpt>
      <trkpt lat="48.38499" lon="-4.48123">
        <ele>9.1</ele>
        <time>2020-06-08T17:07:00Z</time>
      </trkpt>
      <trkpt lat="48.38496" lon="-4.48121">
        <ele>9.1</ele>
        <time>2020-06-08T17:07:01Z</time>
      </trkpt>
      <trkpt lat="48.38493" lon="-4.48119">
        <ele>9.1</ele>
        <time>2020-06-08T17:07:02Z</time>
      </trkpt>
      <trkpt lat="48.3849" lon="-4.4812">
        <ele>9</ele>
        <time>2020-06-08T17:07:03Z</time>
      </trkpt>
      <trkpt lat="48.38486" lon="-4.48123">
        <ele>9</ele>
        <time>2020-06-08T17:07:04Z</time>
      </trkpt>
      <trkpt lat="48.38483" lon="-4.48126">
        <ele>9</ele>
        <time>2020-06-08T17:07:05Z</time>
      </trkpt>
      <trkpt lat="48.3848" lon="-4.48127">
        <ele>9</ele>
        <time>2020-06-08T17:07:06Z</time>
      </trkpt>
      <trkpt lat="48.38477" lon="-4.4813">
        <ele>8.9</ele>
        <time>2020-06-08T17:07:07Z</time>
      </trkpt>
      <trkpt lat="48.38474" lon="-4.48134">
        <ele>8.9</ele>
        <time>2020-06-08T17:07:08Z</time>
      </trkpt>
      <trkpt lat="48.38471" lon="-4.48141">
        <ele>8.9</ele>
        <time>2020-06-08T17:07:09Z</time>
      </trkpt>
      <trkpt lat="48.38468" lon="-4.48148">
        <ele>8.9</ele>
        <time>2020-06-08T17:07:10Z</time>
      </trkpt>
      <trkpt lat="48.38467" lon="-4.48155">
        <ele>8.8</ele>
        <time>2020-06-08T17:07:11Z</time>
      </trkpt>
      <trkpt lat="48.38464" lon="-4.48161">
        <ele>8.8</ele>
        <time>2020-06-08T17:07:12Z</time>
      </trkpt>
      <trkpt lat="48.38462" lon="-4.48167">
        <ele>8.8</ele>
        <time>2020-06-08T17:07:13Z</time>
      </trkpt>
      <trkpt lat="48.38461" lon="-4.48174">
        <ele>8.8</ele>
        <time>2020-06-08T17:07:14Z</time>
      </trkpt>
      <trkpt lat="48.38459" lon="-4.48181">
        <ele>8.8</ele>
        <time>2020-06-08T17:07:15Z</time>
      </trkpt>
      <trkpt lat="48.38458" lon="-4.48188">
        <ele>8.8</ele>
        <time>2020-06-08T17:07:16Z</time>
      </trkpt>
      <trkpt lat="48.38457" lon="-4.48196">
        <ele>8.8</ele>
        <time>2020-06-08T17:07:17Z</time>
      </trkpt>
      <trkpt lat="48.38456" lon="-4.48203">
        <ele>8.8</ele>
        <time>2020-06-08T17:07:18Z</time>
      </trkpt>
      <trkpt lat="48.38455" lon="-4.4821">
        <ele>8.8</ele>
        <time>2020-06-08T17:07:19Z</time>
      </trkpt>
      <trkpt lat="48.38453" lon="-4.48217">
        <ele>8.8</ele>
        <time>2020-06-08T17:07:20Z</time>
      </trkpt>
      <trkpt lat="48.38451" lon="-4.48224">
        <ele>8.8</ele>
        <time>2020-06-08T17:07:21Z</time>
      </trkpt>
      <trkpt lat="48.3845" lon="-4.48231">
        <ele>8.7</ele>
        <time>2020-06-08T17:07:22Z</time>
      </trkpt>
      <trkpt lat="48.38449" lon="-4.48238">
        <ele>8.7</ele>
        <time>2020-06-08T17:07:23Z</time>
      </trkpt>
      <trkpt lat="48.38448" lon="-4.48245">
        <ele>8.7</ele>
        <time>2020-06-08T17:07:24Z</time>
      </trkpt>
      <trkpt lat="48.38447" lon="-4.48252">
        <ele>8.7</ele>
        <time>2020-06-08T17:07:25Z</time>
      </trkpt>
      <trkpt lat="48.38446" lon="-4.4826">
        <ele>8.7</ele>
        <time>2020-06-08T17:07:26Z</time>
      </trkpt>
      <trkpt lat="48.38445" lon="-4.48268">
        <ele>8.7</ele>
        <time>2020-06-08T17:07:27Z</time>
      </trkpt>
      <trkpt lat="48.38444" lon="-4.48275">
        <ele>8.7</ele>
        <time>2020-06-08T17:07:28Z</time>
      </trkpt>
      <trkpt lat="48.38442" lon="-4.48281">
        <ele>8.7</ele>
        <time>2020-06-08T17:07:29Z</time>
      </trkpt>
      <trkpt lat="48.38441" lon="-4.48288">
        <ele>8.7</ele>
        <time>2020-06-08T17:07:30Z</time>
      </trkpt>
      <trkpt lat="48.3844" lon="-4.48296">
        <ele>8.7</ele>
        <time>2020-06-08T17:07:31Z</time>
      </trkpt>
      <trkpt lat="48.38438" lon="-4.48303">
        <ele>8.7</ele>
        <time>2020-06-08T17:07:32Z</time>
      </trkpt>
      <trkpt lat="48.38437" lon="-4.4831">
        <ele>8.7</ele>
        <time>2020-06-08T17:07:33Z</time>
      </trkpt>
      <trkpt lat="48.38435" lon="-4.48316">
        <ele>8.7</ele>
        <time>2020-06-08T17:07:34Z</time>
      </trkpt>
      <trkpt lat="48.38433" lon="-4.48323">
        <ele>8.8</ele>
        <time>2020-06-08T17:07:35Z</time>
      </trkpt>
      <trkpt lat="48.38432" lon="-4.4833">
        <ele>8.8</ele>
        <time>2020-06-08T17:07:36Z</time>
      </trkpt>
      <trkpt lat="48.3843" lon="-4.48336">
        <ele>8.8</ele>
        <time>2020-06-08T17:07:37Z</time>
      </trkpt>
      <trkpt lat="48.38428" lon="-4.48343">
        <ele>8.8</ele>
        <time>2020-06-08T17:07:38Z</time>
      </trkpt>
      <trkpt lat="48.38426" lon="-4.48349">
        <ele>8.8</ele>
        <time>2020-06-08T17:07:39Z</time>
      </trkpt>
      <trkpt lat="48.38425" lon="-4.48356">
        <ele>8.8</ele>
        <time>2020-06-08T17:07:40Z</time>
      </trkpt>
      <trkpt lat="48.38425" lon="-4.48362">
        <ele>8.8</ele>
        <time>2020-06-08T17:07:41Z</time>
      </trkpt>
      <trkpt lat="48.38424" lon="-4.48368">
        <ele>8.9</ele>
        <time>2020-06-08T17:07:42Z</time>
      </trkpt>
      <trkpt lat="48.38422" lon="-4.48374">
        <ele>8.9</ele>
        <time>2020-06-08T17:07:43Z</time>
      </trkpt>
      <trkpt lat="48.3842" lon="-4.48381">
        <ele>8.8</ele>
        <time>2020-06-08T17:07:44Z</time>
      </trkpt>
      <trkpt lat="48.38417" lon="-4.48387">
        <ele>8.8</ele>
        <time>2020-06-08T17:07:45Z</time>
      </trkpt>
      <trkpt lat="48.38416" lon="-4.48394">
        <ele>8.8</ele>
        <time>2020-06-08T17:07:46Z</time>
      </trkpt>
      <trkpt lat="48.38414" lon="-4.48401">
        <ele>8.8</ele>
        <time>2020-06-08T17:07:47Z</time>
      </trkpt>
      <trkpt lat="48.38412" lon="-4.48409">
        <ele>8.8</ele>
        <time>2020-06-08T17:07:48Z</time>
      </trkpt>
      <trkpt lat="48.3841" lon="-4.48415">
        <ele>8.8</ele>
        <time>2020-06-08T17:07:49Z</time>
      </trkpt>
      <trkpt lat="48.38409" lon="-4.48422">
        <ele>8.8</ele>
        <time>2020-06-08T17:07:50Z</time>
      </trkpt>
      <trkpt lat="48.38406" lon="-4.48428">
        <ele>8.7</ele>
        <time>2020-06-08T17:07:51Z</time>
      </trkpt>
      <trkpt lat="48.38404" lon="-4.48434">
        <ele>8.7</ele>
        <time>2020-06-08T17:07:52Z</time>
      </trkpt>
      <trkpt lat="48.38402" lon="-4.4844">
        <ele>8.7</ele>
        <time>2020-06-08T17:07:53Z</time>
      </trkpt>
      <trkpt lat="48.38399" lon="-4.48446">
        <ele>8.7</ele>
        <time>2020-06-08T17:07:54Z</time>
      </trkpt>
      <trkpt lat="48.38397" lon="-4.48453">
        <ele>8.7</ele>
        <time>2020-06-08T17:07:55Z</time>
      </trkpt>
      <trkpt lat="48.38396" lon="-4.4846">
        <ele>8.6</ele>
        <time>2020-06-08T17:07:56Z</time>
      </trkpt>
      <trkpt lat="48.38394" lon="-4.48467">
        <ele>8.6</ele>
        <time>2020-06-08T17:07:57Z</time>
      </trkpt>
      <trkpt lat="48.38392" lon="-4.48473">
        <ele>8.6</ele>
        <time>2020-06-08T17:07:58Z</time>
      </trkpt>
      <trkpt lat="48.3839" lon="-4.48479">
        <ele>8.6</ele>
        <time>2020-06-08T17:07:59Z</time>
      </trkpt>
      <trkpt lat="48.38387" lon="-4.48485">
        <ele>8.5</ele>
        <time>2020-06-08T17:08:00Z</time>
      </trkpt>
      <trkpt lat="48.38384" lon="-4.4849">
        <ele>8.5</ele>
        <time>2020-06-08T17:08:01Z</time>
      </trkpt>
      <trkpt lat="48.38382" lon="-4.48496">
        <ele>8.5</ele>
        <time>2020-06-08T17:08:02Z</time>
      </trkpt>
      <trkpt lat="48.38378" lon="-4.48503">
        <ele>8.5</ele>
        <time>2020-06-08T17:08:03Z</time>
      </trkpt>
      <trkpt lat="48.38375" lon="-4.48509">
        <ele>8.4</ele>
        <time>2020-06-08T17:08:04Z</time>
      </trkpt>
      <trkpt lat="48.38372" lon="-4.48515">
        <ele>8.4</ele>
        <time>2020-06-08T17:08:05Z</time>
      </trkpt>
      <trkpt lat="48.38369" lon="-4.48522">
        <ele>8.4</ele>
        <time>2020-06-08T17:08:06Z</time>
      </trkpt>
      <trkpt lat="48.38366" lon="-4.48528">
        <ele>8.4</ele>
        <time>2020-06-08T17:08:07Z</time>
      </trkpt>
      <trkpt lat="48.38364" lon="-4.48534">
        <ele>8.3</ele>
        <time>2020-06-08T17:08:08Z</time>
      </trkpt>
      <trkpt lat="48.38361" lon="-4.48541">
        <ele>8.3</ele>
        <time>2020-06-08T17:08:09Z</time>
      </trkpt>
      <trkpt lat="48.38359" lon="-4.48547">
        <ele>8.3</ele>
        <time>2020-06-08T17:08:10Z</time>
      </trkpt>
      <trkpt lat="48.38357" lon="-4.48553">
        <ele>8.3</ele>
        <time>2020-06-08T17:08:11Z</time>
      </trkpt>
      <trkpt lat="48.38355" lon="-4.48558">
        <ele>8.3</ele>
        <time>2020-06-08T17:08:12Z</time>
      </trkpt>
      <trkpt lat="48.38352" lon="-4.48563">
        <ele>8.3</ele>
        <time>2020-06-08T17:08:13Z</time>
      </trkpt>
      <trkpt lat="48.3835" lon="-4.48569">
        <ele>8.2</ele>
        <time>2020-06-08T17:08:14Z</time>
      </trkpt>
      <trkpt lat="48.38347" lon="-4.48574">
        <ele>8.2</ele>
        <time>2020-06-08T17:08:15Z</time>
      </trkpt>
      <trkpt lat="48.38346" lon="-4.4858">
        <ele>8.2</ele>
        <time>2020-06-08T17:08:16Z</time>
      </trkpt>
      <trkpt lat="48.38343" lon="-4.48586">
        <ele>8.3</ele>
        <time>2020-06-08T17:08:17Z</time>
      </trkpt>
      <trkpt lat="48.3834" lon="-4.48592">
        <ele>8.3</ele>
        <time>2020-06-08T17:08:18Z</time>
      </trkpt>
      <trkpt lat="48.38338" lon="-4.48595">
        <ele>8.3</ele>
        <time>2020-06-08T17:08:19Z</time>
      </trkpt>
      <trkpt lat="48.38335" lon="-4.48602">
        <ele>8.3</ele>
        <time>2020-06-08T17:08:20Z</time>
      </trkpt>
      <trkpt lat="48.38333" lon="-4.48606">
        <ele>8.4</ele>
        <time>2020-06-08T17:08:21Z</time>
      </trkpt>
      <trkpt lat="48.38331" lon="-4.48611">
        <ele>8.4</ele>
        <time>2020-06-08T17:08:22Z</time>
      </trkpt>
      <trkpt lat="48.38329" lon="-4.48616">
        <ele>8.4</ele>
        <time>2020-06-08T17:08:23Z</time>
      </trkpt>
      <trkpt lat="48.38328" lon="-4.48621">
        <ele>8.5</ele>
        <time>2020-06-08T17:08:24Z</time>
      </trkpt>
      <trkpt lat="48.38326" lon="-4.48625">
        <ele>8.6</ele>
        <time>2020-06-08T17:08:25Z</time>
      </trkpt>
      <trkpt lat="48.38325" lon="-4.4863">
        <ele>8.7</ele>
        <time>2020-06-08T17:08:26Z</time>
      </trkpt>
      <trkpt lat="48.38325" lon="-4.48635">
        <ele>8.8</ele>
        <time>2020-06-08T17:08:27Z</time>
      </trkpt>
      <trkpt lat="48.38324" lon="-4.48642">
        <ele>9</ele>
        <time>2020-06-08T17:08:28Z</time>
      </trkpt>
      <trkpt lat="48.38323" lon="-4.48649">
        <ele>9.1</ele>
        <time>2020-06-08T17:08:29Z</time>
      </trkpt>
      <trkpt lat="48.38322" lon="-4.48656">
        <ele>9.3</ele>
        <time>2020-06-08T17:08:30Z</time>
      </trkpt>
      <trkpt lat="48.38321" lon="-4.48661">
        <ele>9.4</ele>
        <time>2020-06-08T17:08:31Z</time>
      </trkpt>
      <trkpt lat="48.3832" lon="-4.48667">
        <ele>9.6</ele>
        <time>2020-06-08T17:08:32Z</time>
      </trkpt>
      <trkpt lat="48.38318" lon="-4.48672">
        <ele>9.7</ele>
        <time>2020-06-08T17:08:33Z</time>
      </trkpt>
      <trkpt lat="48.38317" lon="-4.48677">
        <ele>9.8</ele>
        <time>2020-06-08T17:08:34Z</time>
      </trkpt>
      <trkpt lat="48.38315" lon="-4.48683">
        <ele>10</ele>
        <time>2020-06-08T17:08:35Z</time>
      </trkpt>
      <trkpt lat="48.38314" lon="-4.48688">
        <ele>10.1</ele>
        <time>2020-06-08T17:08:36Z</time>
      </trkpt>
      <trkpt lat="48.38313" lon="-4.48694">
        <ele>10.3</ele>
        <time>2020-06-08T17:08:37Z</time>
      </trkpt>
      <trkpt lat="48.38312" lon="-4.48699">
        <ele>10.4</ele>
        <time>2020-06-08T17:08:38Z</time>
      </trkpt>
      <trkpt lat="48.3831" lon="-4.48704">
        <ele>10.6</ele>
        <time>2020-06-08T17:08:39Z</time>
      </trkpt>
      <trkpt lat="48.38309" lon="-4.4871">
        <ele>10.7</ele>
        <time>2020-06-08T17:08:40Z</time>
      </trkpt>
      <trkpt lat="48.38308" lon="-4.48716">
        <ele>11</ele>
        <time>2020-06-08T17:08:41Z</time>
      </trkpt>
      <trkpt lat="48.38307" lon="-4.48721">
        <ele>11.1</ele>
        <time>2020-06-08T17:08:42Z</time>
      </trkpt>
      <trkpt lat="48.38306" lon="-4.48727">
        <ele>11.3</ele>
        <time>2020-06-08T17:08:43Z</time>
      </trkpt>
      <trkpt lat="48.38304" lon="-4.48732">
        <ele>11.5</ele>
        <time>2020-06-08T17:08:44Z</time>
      </trkpt>
      <trkpt lat="48.38303" lon="-4.48737">
        <ele>11.7</ele>
        <time>2020-06-08T17:08:45Z</time>
      </trkpt>
      <trkpt lat="48.38301" lon="-4.48743">
        <ele>11.9</ele>
        <time>2020-06-08T17:08:46Z</time>
      </trkpt>
      <trkpt lat="48.383" lon="-4.48749">
        <ele>12.1</ele>
        <time>2020-06-08T17:08:47Z</time>
      </trkpt>
      <trkpt lat="48.38299" lon="-4.48755">
        <ele>12.2</ele>
        <time>2020-06-08T17:08:48Z</time>
      </trkpt>
      <trkpt lat="48.38298" lon="-4.48761">
        <ele>12.4</ele>
        <time>2020-06-08T17:08:49Z</time>
      </trkpt>
      <trkpt lat="48.38297" lon="-4.48767">
        <ele>12.5</ele>
        <time>2020-06-08T17:08:50Z</time>
      </trkpt>
      <trkpt lat="48.38296" lon="-4.48772">
        <ele>12.7</ele>
        <time>2020-06-08T17:08:51Z</time>
      </trkpt>
      <trkpt lat="48.38295" lon="-4.48777">
        <ele>12.8</ele>
        <time>2020-06-08T17:08:52Z</time>
      </trkpt>
      <trkpt lat="48.38295" lon="-4.48781">
        <ele>12.8</ele>
        <time>2020-06-08T17:08:53Z</time>
      </trkpt>
      <trkpt lat="48.38295" lon="-4.48783">
        <ele>12.8</ele>
        <time>2020-06-08T17:08:54Z</time>
      </trkpt>
      <trkpt lat="48.38297" lon="-4.48786">
        <ele>12.9</ele>
        <time>2020-06-08T17:08:55Z</time>
      </trkpt>
      <trkpt lat="48.38299" lon="-4.4879">
        <ele>13.1</ele>
        <time>2020-06-08T17:08:56Z</time>
      </trkpt>
      <trkpt lat="48.38301" lon="-4.48795">
        <ele>13.1</ele>
        <time>2020-06-08T17:08:57Z</time>
      </trkpt>
      <trkpt lat="48.38302" lon="-4.48799">
        <ele>13.1</ele>
        <time>2020-06-08T17:08:58Z</time>
      </trkpt>
      <trkpt lat="48.38302" lon="-4.48803">
        <ele>13.2</ele>
        <time>2020-06-08T17:08:59Z</time>
      </trkpt>
      <trkpt lat="48.38303" lon="-4.48807">
        <ele>13.2</ele>
        <time>2020-06-08T17:09:00Z</time>
      </trkpt>
      <trkpt lat="48.38302" lon="-4.48813">
        <ele>13.2</ele>
        <time>2020-06-08T17:09:01Z</time>
      </trkpt>
      <trkpt lat="48.38301" lon="-4.48817">
        <ele>13.2</ele>
        <time>2020-06-08T17:09:02Z</time>
      </trkpt>
      <trkpt lat="48.38299" lon="-4.48821">
        <ele>13.3</ele>
        <time>2020-06-08T17:09:03Z</time>
      </trkpt>
      <trkpt lat="48.38297" lon="-4.48827">
        <ele>13.4</ele>
        <time>2020-06-08T17:09:04Z</time>
      </trkpt>
      <trkpt lat="48.38296" lon="-4.48833">
        <ele>13.4</ele>
        <time>2020-06-08T17:09:05Z</time>
      </trkpt>
      <trkpt lat="48.38294" lon="-4.4884">
        <ele>13.5</ele>
        <time>2020-06-08T17:09:06Z</time>
      </trkpt>
      <trkpt lat="48.38293" lon="-4.48845">
        <ele>13.5</ele>
        <time>2020-06-08T17:09:07Z</time>
      </trkpt>
      <trkpt lat="48.38291" lon="-4.48851">
        <ele>13.5</ele>
        <time>2020-06-08T17:09:08Z</time>
      </trkpt>
      <trkpt lat="48.38291" lon="-4.48853">
        <ele>13.5</ele>
        <time>2020-06-08T17:09:09Z</time>
      </trkpt>
      <trkpt lat="48.38289" lon="-4.48858">
        <ele>13.5</ele>
        <time>2020-06-08T17:09:10Z</time>
      </trkpt>
      <trkpt lat="48.38287" lon="-4.48863">
        <ele>13.6</ele>
        <time>2020-06-08T17:09:11Z</time>
      </trkpt>
      <trkpt lat="48.38285" lon="-4.48868">
        <ele>13.6</ele>
        <time>2020-06-08T17:09:12Z</time>
      </trkpt>
      <trkpt lat="48.38283" lon="-4.48874">
        <ele>13.6</ele>
        <time>2020-06-08T17:09:13Z</time>
      </trkpt>
      <trkpt lat="48.38282" lon="-4.48878">
        <ele>13.7</ele>
        <time>2020-06-08T17:09:14Z</time>
      </trkpt>
      <trkpt lat="48.3828" lon="-4.48884">
        <ele>13.8</ele>
        <time>2020-06-08T17:09:15Z</time>
      </trkpt>
      <trkpt lat="48.38277" lon="-4.4889">
        <ele>14</ele>
        <time>2020-06-08T17:09:16Z</time>
      </trkpt>
      <trkpt lat="48.38275" lon="-4.48895">
        <ele>14.1</ele>
        <time>2020-06-08T17:09:17Z</time>
      </trkpt>
      <trkpt lat="48.38275" lon="-4.48899">
        <ele>14.2</ele>
        <time>2020-06-08T17:09:18Z</time>
      </trkpt>
      <trkpt lat="48.38274" lon="-4.48905">
        <ele>14.4</ele>
        <time>2020-06-08T17:09:19Z</time>
      </trkpt>
      <trkpt lat="48.38273" lon="-4.4891">
        <ele>14.5</ele>
        <time>2020-06-08T17:09:20Z</time>
      </trkpt>
      <trkpt lat="48.38271" lon="-4.48916">
        <ele>14.7</ele>
        <time>2020-06-08T17:09:21Z</time>
      </trkpt>
      <trkpt lat="48.3827" lon="-4.48921">
        <ele>14.8</ele>
        <time>2020-06-08T17:09:22Z</time>
      </trkpt>
      <trkpt lat="48.38269" lon="-4.48925">
        <ele>14.9</ele>
        <time>2020-06-08T17:09:23Z</time>
      </trkpt>
      <trkpt lat="48.38267" lon="-4.4893">
        <ele>15</ele>
        <time>2020-06-08T17:09:24Z</time>
      </trkpt>
      <trkpt lat="48.38266" lon="-4.48935">
        <ele>15.1</ele>
        <time>2020-06-08T17:09:25Z</time>
      </trkpt>
      <trkpt lat="48.38264" lon="-4.48939">
        <ele>15.2</ele>
        <time>2020-06-08T17:09:26Z</time>
      </trkpt>
      <trkpt lat="48.38261" lon="-4.48944">
        <ele>15.4</ele>
        <time>2020-06-08T17:09:27Z</time>
      </trkpt>
      <trkpt lat="48.38259" lon="-4.48949">
        <ele>15.5</ele>
        <time>2020-06-08T17:09:28Z</time>
      </trkpt>
      <trkpt lat="48.38258" lon="-4.48954">
        <ele>15.6</ele>
        <time>2020-06-08T17:09:29Z</time>
      </trkpt>
      <trkpt lat="48.38255" lon="-4.48961">
        <ele>15.8</ele>
        <time>2020-06-08T17:09:30Z</time>
      </trkpt>
      <trkpt lat="48.38253" lon="-4.48966">
        <ele>15.9</ele>
        <time>2020-06-08T17:09:31Z</time>
      </trkpt>
      <trkpt lat="48.38251" lon="-4.48971">
        <ele>16.1</ele>
        <time>2020-06-08T17:09:32Z</time>
      </trkpt>
      <trkpt lat="48.38249" lon="-4.48977">
        <ele>16.3</ele>
        <time>2020-06-08T17:09:33Z</time>
      </trkpt>
      <trkpt lat="48.38247" lon="-4.48982">
        <ele>16.4</ele>
        <time>2020-06-08T17:09:34Z</time>
      </trkpt>
      <trkpt lat="48.38245" lon="-4.48987">
        <ele>16.5</ele>
        <time>2020-06-08T17:09:35Z</time>
      </trkpt>
      <trkpt lat="48.38244" lon="-4.48993">
        <ele>16.7</ele>
        <time>2020-06-08T17:09:36Z</time>
      </trkpt>
      <trkpt lat="48.38243" lon="-4.48998">
        <ele>16.8</ele>
        <time>2020-06-08T17:09:37Z</time>
      </trkpt>
      <trkpt lat="48.3824" lon="-4.49004">
        <ele>17</ele>
        <time>2020-06-08T17:09:38Z</time>
      </trkpt>
      <trkpt lat="48.38238" lon="-4.4901">
        <ele>17.2</ele>
        <time>2020-06-08T17:09:39Z</time>
      </trkpt>
      <trkpt lat="48.38236" lon="-4.49016">
        <ele>17.4</ele>
        <time>2020-06-08T17:09:40Z</time>
      </trkpt>
      <trkpt lat="48.38234" lon="-4.49023">
        <ele>17.6</ele>
        <time>2020-06-08T17:09:41Z</time>
      </trkpt>
      <trkpt lat="48.38233" lon="-4.49029">
        <ele>17.7</ele>
        <time>2020-06-08T17:09:42Z</time>
      </trkpt>
      <trkpt lat="48.38231" lon="-4.49034">
        <ele>17.9</ele>
        <time>2020-06-08T17:09:43Z</time>
      </trkpt>
      <trkpt lat="48.38229" lon="-4.49039">
        <ele>18</ele>
        <time>2020-06-08T17:09:44Z</time>
      </trkpt>
      <trkpt lat="48.38226" lon="-4.49044">
        <ele>18.2</ele>
        <time>2020-06-08T17:09:45Z</time>
      </trkpt>
      <trkpt lat="48.38223" lon="-4.49049">
        <ele>18.4</ele>
        <time>2020-06-08T17:09:46Z</time>
      </trkpt>
      <trkpt lat="48.38221" lon="-4.49054">
        <ele>18.5</ele>
        <time>2020-06-08T17:09:47Z</time>
      </trkpt>
      <trkpt lat="48.38219" lon="-4.49059">
        <ele>18.6</ele>
        <time>2020-06-08T17:09:48Z</time>
      </trkpt>
      <trkpt lat="48.38217" lon="-4.49064">
        <ele>18.7</ele>
        <time>2020-06-08T17:09:49Z</time>
      </trkpt>
      <trkpt lat="48.38215" lon="-4.4907">
        <ele>18.9</ele>
        <time>2020-06-08T17:09:50Z</time>
      </trkpt>
      <trkpt lat="48.38214" lon="-4.49078">
        <ele>19</ele>
        <time>2020-06-08T17:09:51Z</time>
      </trkpt>
      <trkpt lat="48.38212" lon="-4.49083">
        <ele>19.1</ele>
        <time>2020-06-08T17:09:52Z</time>
      </trkpt>
      <trkpt lat="48.3821" lon="-4.49088">
        <ele>19.2</ele>
        <time>2020-06-08T17:09:53Z</time>
      </trkpt>
      <trkpt lat="48.38209" lon="-4.49094">
        <ele>19.3</ele>
        <time>2020-06-08T17:09:54Z</time>
      </trkpt>
      <trkpt lat="48.38206" lon="-4.49099">
        <ele>19.4</ele>
        <time>2020-06-08T17:09:55Z</time>
      </trkpt>
      <trkpt lat="48.38202" lon="-4.491">
        <ele>19.4</ele>
        <time>2020-06-08T17:09:56Z</time>
      </trkpt>
      <trkpt lat="48.382" lon="-4.49103">
        <ele>19.4</ele>
        <time>2020-06-08T17:09:57Z</time>
      </trkpt>
      <trkpt lat="48.38198" lon="-4.49108">
        <ele>19.4</ele>
        <time>2020-06-08T17:09:58Z</time>
      </trkpt>
      <trkpt lat="48.38196" lon="-4.49114">
        <ele>19.5</ele>
        <time>2020-06-08T17:09:59Z</time>
      </trkpt>
      <trkpt lat="48.38193" lon="-4.4912">
        <ele>19.5</ele>
        <time>2020-06-08T17:10:00Z</time>
      </trkpt>
      <trkpt lat="48.38191" lon="-4.49126">
        <ele>19.5</ele>
        <time>2020-06-08T17:10:01Z</time>
      </trkpt>
      <trkpt lat="48.38188" lon="-4.49131">
        <ele>19.5</ele>
        <time>2020-06-08T17:10:02Z</time>
      </trkpt>
      <trkpt lat="48.38186" lon="-4.49136">
        <ele>19.4</ele>
        <time>2020-06-08T17:10:03Z</time>
      </trkpt>
      <trkpt lat="48.38184" lon="-4.49143">
        <ele>19.7</ele>
        <time>2020-06-08T17:10:04Z</time>
      </trkpt>
      <trkpt lat="48.38182" lon="-4.49148">
        <ele>20</ele>
        <time>2020-06-08T17:10:05Z</time>
      </trkpt>
      <trkpt lat="48.3818" lon="-4.49154">
        <ele>20.3</ele>
        <time>2020-06-08T17:10:06Z</time>
      </trkpt>
      <trkpt lat="48.38179" lon="-4.49158">
        <ele>20.5</ele>
        <time>2020-06-08T17:10:07Z</time>
      </trkpt>
      <trkpt lat="48.38179" lon="-4.49163">
        <ele>20.7</ele>
        <time>2020-06-08T17:10:08Z</time>
      </trkpt>
      <trkpt lat="48.38181" lon="-4.49167">
        <ele>20.9</ele>
        <time>2020-06-08T17:10:09Z</time>
      </trkpt>
      <trkpt lat="48.38184" lon="-4.49171">
        <ele>21.2</ele>
        <time>2020-06-08T17:10:10Z</time>
      </trkpt>
      <trkpt lat="48.38187" lon="-4.49172">
        <ele>21.4</ele>
        <time>2020-06-08T17:10:11Z</time>
      </trkpt>
      <trkpt lat="48.38191" lon="-4.49174">
        <ele>21.7</ele>
        <time>2020-06-08T17:10:12Z</time>
      </trkpt>
      <trkpt lat="48.38194" lon="-4.49173">
        <ele>21.9</ele>
        <time>2020-06-08T17:10:13Z</time>
      </trkpt>
      <trkpt lat="48.38198" lon="-4.49172">
        <ele>22.2</ele>
        <time>2020-06-08T17:10:14Z</time>
      </trkpt>
      <trkpt lat="48.38201" lon="-4.4917">
        <ele>22.4</ele>
        <time>2020-06-08T17:10:15Z</time>
      </trkpt>
      <trkpt lat="48.38204" lon="-4.49169">
        <ele>22.6</ele>
        <time>2020-06-08T17:10:16Z</time>
      </trkpt>
      <trkpt lat="48.38207" lon="-4.49168">
        <ele>22.8</ele>
        <time>2020-06-08T17:10:17Z</time>
      </trkpt>
      <trkpt lat="48.3821" lon="-4.49167">
        <ele>23</ele>
        <time>2020-06-08T17:10:18Z</time>
      </trkpt>
      <trkpt lat="48.38212" lon="-4.49166">
        <ele>23.2</ele>
        <time>2020-06-08T17:10:19Z</time>
      </trkpt>
      <trkpt lat="48.38216" lon="-4.49164">
        <ele>23.5</ele>
        <time>2020-06-08T17:10:20Z</time>
      </trkpt>
      <trkpt lat="48.38219" lon="-4.49163">
        <ele>23.7</ele>
        <time>2020-06-08T17:10:21Z</time>
      </trkpt>
      <trkpt lat="48.38222" lon="-4.49162">
        <ele>24</ele>
        <time>2020-06-08T17:10:22Z</time>
      </trkpt>
      <trkpt lat="48.38226" lon="-4.4916">
        <ele>24.3</ele>
        <time>2020-06-08T17:10:23Z</time>
      </trkpt>
      <trkpt lat="48.38229" lon="-4.49159">
        <ele>24.6</ele>
        <time>2020-06-08T17:10:24Z</time>
      </trkpt>
      <trkpt lat="48.3823" lon="-4.49159">
        <ele>24.7</ele>
        <time>2020-06-08T17:10:25Z</time>
      </trkpt>
      <trkpt lat="48.38234" lon="-4.49159">
        <ele>24.9</ele>
        <time>2020-06-08T17:10:26Z</time>
      </trkpt>
      <trkpt lat="48.38237" lon="-4.49162">
        <ele>24.9</ele>
        <time>2020-06-08T17:10:27Z</time>
      </trkpt>
      <trkpt lat="48.38238" lon="-4.49163">
        <ele>24.9</ele>
        <time>2020-06-08T17:10:28Z</time>
      </trkpt>
      <trkpt lat="48.38241" lon="-4.49166">
        <ele>24.9</ele>
        <time>2020-06-08T17:10:29Z</time>
      </trkpt>
      <trkpt lat="48.38244" lon="-4.49168">
        <ele>24.9</ele>
        <time>2020-06-08T17:10:30Z</time>
      </trkpt>
      <trkpt lat="48.38247" lon="-4.49172">
        <ele>24.9</ele>
        <time>2020-06-08T17:10:31Z</time>
      </trkpt>
      <trkpt lat="48.3825" lon="-4.49176">
        <ele>25</ele>
        <time>2020-06-08T17:10:32Z</time>
      </trkpt>
      <trkpt lat="48.38252" lon="-4.4918">
        <ele>25</ele>
        <time>2020-06-08T17:10:33Z</time>
      </trkpt>
      <trkpt lat="48.38255" lon="-4.49183">
        <ele>25</ele>
        <time>2020-06-08T17:10:34Z</time>
      </trkpt>
      <trkpt lat="48.38258" lon="-4.49186">
        <ele>25</ele>
        <time>2020-06-08T17:10:35Z</time>
      </trkpt>
      <trkpt lat="48.3826" lon="-4.49186">
        <ele>25.2</ele>
        <time>2020-06-08T17:10:36Z</time>
      </trkpt>
      <trkpt lat="48.38264" lon="-4.49188">
        <ele>25.2</ele>
        <time>2020-06-08T17:10:37Z</time>
      </trkpt>
      <trkpt lat="48.38268" lon="-4.49187">
        <ele>25.3</ele>
        <time>2020-06-08T17:10:38Z</time>
      </trkpt>
      <trkpt lat="48.38271" lon="-4.49185">
        <ele>25.5</ele>
        <time>2020-06-08T17:10:39Z</time>
      </trkpt>
      <trkpt lat="48.38274" lon="-4.49182">
        <ele>25.6</ele>
        <time>2020-06-08T17:10:40Z</time>
      </trkpt>
      <trkpt lat="48.38277" lon="-4.49177">
        <ele>25.7</ele>
        <time>2020-06-08T17:10:41Z</time>
      </trkpt>
      <trkpt lat="48.38279" lon="-4.49173">
        <ele>25.8</ele>
        <time>2020-06-08T17:10:42Z</time>
      </trkpt>
      <trkpt lat="48.38281" lon="-4.49171">
        <ele>25.9</ele>
        <time>2020-06-08T17:10:43Z</time>
      </trkpt>
      <trkpt lat="48.38283" lon="-4.49169">
        <ele>26</ele>
        <time>2020-06-08T17:10:44Z</time>
      </trkpt>
      <trkpt lat="48.38284" lon="-4.49168">
        <ele>26.1</ele>
        <time>2020-06-08T17:10:45Z</time>
      </trkpt>
      <trkpt lat="48.38286" lon="-4.49165">
        <ele>26.2</ele>
        <time>2020-06-08T17:10:46Z</time>
      </trkpt>
      <trkpt lat="48.38287" lon="-4.49164">
        <ele>26.2</ele>
        <time>2020-06-08T17:10:47Z</time>
      </trkpt>
      <trkpt lat="48.3829" lon="-4.49161">
        <ele>26.3</ele>
        <time>2020-06-08T17:10:48Z</time>
      </trkpt>
      <trkpt lat="48.38291" lon="-4.49159">
        <ele>26.4</ele>
        <time>2020-06-08T17:10:49Z</time>
      </trkpt>
      <trkpt lat="48.38293" lon="-4.49156">
        <ele>26.5</ele>
        <time>2020-06-08T17:10:50Z</time>
      </trkpt>
      <trkpt lat="48.38294" lon="-4.49156">
        <ele>26.5</ele>
        <time>2020-06-08T17:10:51Z</time>
      </trkpt>
      <trkpt lat="48.38296" lon="-4.49153">
        <ele>26.6</ele>
        <time>2020-06-08T17:10:52Z</time>
      </trkpt>
      <trkpt lat="48.38296" lon="-4.49151">
        <ele>26.6</ele>
        <time>2020-06-08T17:10:53Z</time>
      </trkpt>
      <trkpt lat="48.38297" lon="-4.49149">
        <ele>26.7</ele>
        <time>2020-06-08T17:10:54Z</time>
      </trkpt>
      <trkpt lat="48.38298" lon="-4.49148">
        <ele>26.7</ele>
        <time>2020-06-08T17:10:55Z</time>
      </trkpt>
      <trkpt lat="48.38299" lon="-4.49148">
        <ele>26.8</ele>
        <time>2020-06-08T17:10:56Z</time>
      </trkpt>
      <trkpt lat="48.383" lon="-4.49146">
        <ele>26.8</ele>
        <time>2020-06-08T17:10:57Z</time>
      </trkpt>
      <trkpt lat="48.383" lon="-4.49144">
        <ele>26.9</ele>
        <time>2020-06-08T17:10:58Z</time>
      </trkpt>
      <trkpt lat="48.38301" lon="-4.4914">
        <ele>27</ele>
        <time>2020-06-08T17:10:59Z</time>
      </trkpt>
      <trkpt lat="48.38302" lon="-4.49139">
        <ele>27</ele>
        <time>2020-06-08T17:11:00Z</time>
      </trkpt>
      <trkpt lat="48.38302" lon="-4.49137">
        <ele>27.1</ele>
        <time>2020-06-08T17:11:01Z</time>
      </trkpt>
      <trkpt lat="48.38303" lon="-4.49136">
        <ele>27.1</ele>
        <time>2020-06-08T17:11:02Z</time>
      </trkpt>
      <trkpt lat="48.38304" lon="-4.49135">
        <ele>27.1</ele>
        <time>2020-06-08T17:11:03Z</time>
      </trkpt>
      <trkpt lat="48.38306" lon="-4.49135">
        <ele>27.2</ele>
        <time>2020-06-08T17:11:04Z</time>
      </trkpt>
      <trkpt lat="48.38307" lon="-4.49135">
        <ele>27.2</ele>
        <time>2020-06-08T17:11:05Z</time>
      </trkpt>
      <trkpt lat="48.38308" lon="-4.49135">
        <ele>27.3</ele>
        <time>2020-06-08T17:11:06Z</time>
      </trkpt>
      <trkpt lat="48.38312" lon="-4.49132">
        <ele>27.4</ele>
        <time>2020-06-08T17:11:07Z</time>
      </trkpt>
      <trkpt lat="48.38313" lon="-4.4913">
        <ele>27.5</ele>
        <time>2020-06-08T17:11:08Z</time>
      </trkpt>
      <trkpt lat="48.38316" lon="-4.49126">
        <ele>27.6</ele>
        <time>2020-06-08T17:11:09Z</time>
      </trkpt>
      <trkpt lat="48.38318" lon="-4.49121">
        <ele>27.7</ele>
        <time>2020-06-08T17:11:10Z</time>
      </trkpt>
      <trkpt lat="48.38321" lon="-4.49116">
        <ele>27.8</ele>
        <time>2020-06-08T17:11:11Z</time>
      </trkpt>
      <trkpt lat="48.38325" lon="-4.4911">
        <ele>28</ele>
        <time>2020-06-08T17:11:12Z</time>
      </trkpt>
      <trkpt lat="48.38328" lon="-4.49107">
        <ele>28.2</ele>
        <time>2020-06-08T17:11:13Z</time>
      </trkpt>
      <trkpt lat="48.38332" lon="-4.49103">
        <ele>28.4</ele>
        <time>2020-06-08T17:11:14Z</time>
      </trkpt>
      <trkpt lat="48.38337" lon="-4.49099">
        <ele>28.6</ele>
        <time>2020-06-08T17:11:15Z</time>
      </trkpt>
      <trkpt lat="48.38341" lon="-4.49095">
        <ele>28.8</ele>
        <time>2020-06-08T17:11:16Z</time>
      </trkpt>
      <trkpt lat="48.38345" lon="-4.49091">
        <ele>29</ele>
        <time>2020-06-08T17:11:17Z</time>
      </trkpt>
      <trkpt lat="48.38348" lon="-4.49088">
        <ele>29.2</ele>
        <time>2020-06-08T17:11:18Z</time>
      </trkpt>
      <trkpt lat="48.38351" lon="-4.49084">
        <ele>29.3</ele>
        <time>2020-06-08T17:11:19Z</time>
      </trkpt>
      <trkpt lat="48.38354" lon="-4.49081">
        <ele>29.5</ele>
        <time>2020-06-08T17:11:20Z</time>
      </trkpt>
      <trkpt lat="48.38358" lon="-4.49076">
        <ele>29.7</ele>
        <time>2020-06-08T17:11:21Z</time>
      </trkpt>
      <trkpt lat="48.38362" lon="-4.4907">
        <ele>30</ele>
        <time>2020-06-08T17:11:22Z</time>
      </trkpt>
      <trkpt lat="48.38365" lon="-4.49065">
        <ele>30.2</ele>
        <time>2020-06-08T17:11:23Z</time>
      </trkpt>
      <trkpt lat="48.38368" lon="-4.49063">
        <ele>30.4</ele>
        <time>2020-06-08T17:11:24Z</time>
      </trkpt>
      <trkpt lat="48.3837" lon="-4.4906">
        <ele>30.5</ele>
        <time>2020-06-08T17:11:25Z</time>
      </trkpt>
      <trkpt lat="48.38373" lon="-4.49059">
        <ele>30.7</ele>
        <time>2020-06-08T17:11:26Z</time>
      </trkpt>
      <trkpt lat="48.38376" lon="-4.49055">
        <ele>31</ele>
        <time>2020-06-08T17:11:27Z</time>
      </trkpt>
      <trkpt lat="48.38379" lon="-4.4905">
        <ele>31.2</ele>
        <time>2020-06-08T17:11:28Z</time>
      </trkpt>
      <trkpt lat="48.38382" lon="-4.49047">
        <ele>31.3</ele>
        <time>2020-06-08T17:11:29Z</time>
      </trkpt>
      <trkpt lat="48.38385" lon="-4.49044">
        <ele>31.7</ele>
        <time>2020-06-08T17:11:30Z</time>
      </trkpt>
      <trkpt lat="48.38389" lon="-4.49042">
        <ele>31.8</ele>
        <time>2020-06-08T17:11:31Z</time>
      </trkpt>
      <trkpt lat="48.38392" lon="-4.49039">
        <ele>32</ele>
        <time>2020-06-08T17:11:32Z</time>
      </trkpt>
      <trkpt lat="48.38396" lon="-4.49035">
        <ele>32.2</ele>
        <time>2020-06-08T17:11:33Z</time>
      </trkpt>
      <trkpt lat="48.38398" lon="-4.49032">
        <ele>32.3</ele>
        <time>2020-06-08T17:11:34Z</time>
      </trkpt>
      <trkpt lat="48.38401" lon="-4.49029">
        <ele>32.5</ele>
        <time>2020-06-08T17:11:35Z</time>
      </trkpt>
      <trkpt lat="48.38404" lon="-4.49025">
        <ele>32.6</ele>
        <time>2020-06-08T17:11:36Z</time>
      </trkpt>
      <trkpt lat="48.38407" lon="-4.4902">
        <ele>32.8</ele>
        <time>2020-06-08T17:11:37Z</time>
      </trkpt>
      <trkpt lat="48.38408" lon="-4.49016">
        <ele>33</ele>
        <time>2020-06-08T17:11:38Z</time>
      </trkpt>
      <trkpt lat="48.3841" lon="-4.49014">
        <ele>33.1</ele>
        <time>2020-06-08T17:11:39Z</time>
      </trkpt>
      <trkpt lat="48.38414" lon="-4.4901">
        <ele>33.3</ele>
        <time>2020-06-08T17:11:40Z</time>
      </trkpt>
      <trkpt lat="48.38415" lon="-4.49009">
        <ele>33.4</ele>
        <time>2020-06-08T17:11:41Z</time>
      </trkpt>
      <trkpt lat="48.38418" lon="-4.49006">
        <ele>33.6</ele>
        <time>2020-06-08T17:11:42Z</time>
      </trkpt>
      <trkpt lat="48.38421" lon="-4.49004">
        <ele>33.8</ele>
        <time>2020-06-08T17:11:43Z</time>
      </trkpt>
      <trkpt lat="48.38423" lon="-4.49001">
        <ele>34</ele>
        <time>2020-06-08T17:11:44Z</time>
      </trkpt>
      <trkpt lat="48.38426" lon="-4.48997">
        <ele>34.2</ele>
        <time>2020-06-08T17:11:45Z</time>
      </trkpt>
      <trkpt lat="48.38429" lon="-4.48993">
        <ele>34.4</ele>
        <time>2020-06-08T17:11:46Z</time>
      </trkpt>
      <trkpt lat="48.38432" lon="-4.4899">
        <ele>34.7</ele>
        <time>2020-06-08T17:11:47Z</time>
      </trkpt>
      <trkpt lat="48.38433" lon="-4.48988">
        <ele>34.8</ele>
        <time>2020-06-08T17:11:48Z</time>
      </trkpt>
      <trkpt lat="48.38436" lon="-4.48984">
        <ele>35</ele>
        <time>2020-06-08T17:11:49Z</time>
      </trkpt>
      <trkpt lat="48.38437" lon="-4.48981">
        <ele>35.2</ele>
        <time>2020-06-08T17:11:50Z</time>
      </trkpt>
      <trkpt lat="48.3844" lon="-4.48977">
        <ele>35.4</ele>
        <time>2020-06-08T17:11:51Z</time>
      </trkpt>
      <trkpt lat="48.38442" lon="-4.48973">
        <ele>35.6</ele>
        <time>2020-06-08T17:11:52Z</time>
      </trkpt>
      <trkpt lat="48.38444" lon="-4.4897">
        <ele>35.8</ele>
        <time>2020-06-08T17:11:53Z</time>
      </trkpt>
      <trkpt lat="48.38444" lon="-4.48967">
        <ele>35.9</ele>
        <time>2020-06-08T17:11:54Z</time>
      </trkpt>
      <trkpt lat="48.38445" lon="-4.48965">
        <ele>36</ele>
        <time>2020-06-08T17:11:55Z</time>
      </trkpt>
      <trkpt lat="48.38448" lon="-4.48963">
        <ele>36.2</ele>
        <time>2020-06-08T17:11:56Z</time>
      </trkpt>
      <trkpt lat="48.38449" lon="-4.48963">
        <ele>36.3</ele>
        <time>2020-06-08T17:11:57Z</time>
      </trkpt>
      <trkpt lat="48.38453" lon="-4.48961">
        <ele>36.7</ele>
        <time>2020-06-08T17:11:58Z</time>
      </trkpt>
      <trkpt lat="48.38454" lon="-4.4896">
        <ele>36.8</ele>
        <time>2020-06-08T17:11:59Z</time>
      </trkpt>
      <trkpt lat="48.38456" lon="-4.48958">
        <ele>36.9</ele>
        <time>2020-06-08T17:12:00Z</time>
      </trkpt>
      <trkpt lat="48.38459" lon="-4.48956">
        <ele>37</ele>
        <time>2020-06-08T17:12:01Z</time>
      </trkpt>
      <trkpt lat="48.38462" lon="-4.48955">
        <ele>37.1</ele>
        <time>2020-06-08T17:12:02Z</time>
      </trkpt>
      <trkpt lat="48.38465" lon="-4.48954">
        <ele>37.3</ele>
        <time>2020-06-08T17:12:03Z</time>
      </trkpt>
      <trkpt lat="48.38466" lon="-4.48953">
        <ele>37.4</ele>
        <time>2020-06-08T17:12:04Z</time>
      </trkpt>
      <trkpt lat="48.38468" lon="-4.48949">
        <ele>37.5</ele>
        <time>2020-06-08T17:12:05Z</time>
      </trkpt>
      <trkpt lat="48.3847" lon="-4.48946">
        <ele>37.6</ele>
        <time>2020-06-08T17:12:06Z</time>
      </trkpt>
      <trkpt lat="48.38473" lon="-4.48944">
        <ele>37.7</ele>
        <time>2020-06-08T17:12:07Z</time>
      </trkpt>
      <trkpt lat="48.38475" lon="-4.48941">
        <ele>37.8</ele>
        <time>2020-06-08T17:12:08Z</time>
      </trkpt>
      <trkpt lat="48.38478" lon="-4.48938">
        <ele>38</ele>
        <time>2020-06-08T17:12:09Z</time>
      </trkpt>
      <trkpt lat="48.38479" lon="-4.48932">
        <ele>38.1</ele>
        <time>2020-06-08T17:12:10Z</time>
      </trkpt>
      <trkpt lat="48.38482" lon="-4.48927">
        <ele>38.3</ele>
        <time>2020-06-08T17:12:11Z</time>
      </trkpt>
      <trkpt lat="48.38483" lon="-4.48925">
        <ele>38.3</ele>
        <time>2020-06-08T17:12:12Z</time>
      </trkpt>
      <trkpt lat="48.38484" lon="-4.48921">
        <ele>38.4</ele>
        <time>2020-06-08T17:12:13Z</time>
      </trkpt>
      <trkpt lat="48.38485" lon="-4.4892">
        <ele>38.5</ele>
        <time>2020-06-08T17:12:14Z</time>
      </trkpt>
      <trkpt lat="48.38486" lon="-4.48918">
        <ele>38.5</ele>
        <time>2020-06-08T17:12:15Z</time>
      </trkpt>
      <trkpt lat="48.38486" lon="-4.48918">
        <ele>38.6</ele>
        <time>2020-06-08T17:12:16Z</time>
      </trkpt>
      <trkpt lat="48.38485" lon="-4.48917">
        <ele>38.6</ele>
        <time>2020-06-08T17:12:17Z</time>
      </trkpt>
      <trkpt lat="48.38486" lon="-4.48916">
        <ele>38.6</ele>
        <time>2020-06-08T17:12:18Z</time>
      </trkpt>
      <trkpt lat="48.38487" lon="-4.48915">
        <ele>38.7</ele>
        <time>2020-06-08T17:12:19Z</time>
      </trkpt>
      <trkpt lat="48.38489" lon="-4.48915">
        <ele>38.7</ele>
        <time>2020-06-08T17:12:20Z</time>
      </trkpt>
      <trkpt lat="48.38488" lon="-4.48914">
        <ele>38.8</ele>
        <time>2020-06-08T17:12:21Z</time>
      </trkpt>
      <trkpt lat="48.38489" lon="-4.48914">
        <ele>38.8</ele>
        <time>2020-06-08T17:12:22Z</time>
      </trkpt>
      <trkpt lat="48.3849" lon="-4.48914">
        <ele>38.8</ele>
        <time>2020-06-08T17:12:23Z</time>
      </trkpt>
      <trkpt lat="48.38491" lon="-4.48913">
        <ele>38.9</ele>
        <time>2020-06-08T17:12:24Z</time>
      </trkpt>
      <trkpt lat="48.38492" lon="-4.48912">
        <ele>38.9</ele>
        <time>2020-06-08T17:12:25Z</time>
      </trkpt>
      <trkpt lat="48.38493" lon="-4.48911">
        <ele>39</ele>
        <time>2020-06-08T17:12:26Z</time>
      </trkpt>
      <trkpt lat="48.38493" lon="-4.48912">
        <ele>39</ele>
        <time>2020-06-08T17:12:27Z</time>
      </trkpt>
      <trkpt lat="48.38493" lon="-4.48912">
        <ele>39</ele>
        <time>2020-06-08T17:12:28Z</time>
      </trkpt>
      <trkpt lat="48.38494" lon="-4.48912">
        <ele>39</ele>
        <time>2020-06-08T17:12:29Z</time>
      </trkpt>
      <trkpt lat="48.38494" lon="-4.48912">
        <ele>39</ele>
        <time>2020-06-08T17:12:30Z</time>
      </trkpt>
      <trkpt lat="48.38495" lon="-4.48911">
        <ele>39.1</ele>
        <time>2020-06-08T17:12:31Z</time>
      </trkpt>
      <trkpt lat="48.38495" lon="-4.48912">
        <ele>39.1</ele>
        <time>2020-06-08T17:12:32Z</time>
      </trkpt>
      <trkpt lat="48.38496" lon="-4.48911">
        <ele>39.1</ele>
        <time>2020-06-08T17:12:33Z</time>
      </trkpt>
      <trkpt lat="48.38496" lon="-4.48911">
        <ele>39.1</ele>
        <time>2020-06-08T17:12:34Z</time>
      </trkpt>
      <trkpt lat="48.38497" lon="-4.4891">
        <ele>39.2</ele>
        <time>2020-06-08T17:12:35Z</time>
      </trkpt>
      <trkpt lat="48.38496" lon="-4.4891">
        <ele>39.2</ele>
        <time>2020-06-08T17:12:36Z</time>
      </trkpt>
      <trkpt lat="48.38495" lon="-4.48911">
        <ele>39.2</ele>
        <time>2020-06-08T17:12:37Z</time>
      </trkpt>
      <trkpt lat="48.38495" lon="-4.48912">
        <ele>39.2</ele>
        <time>2020-06-08T17:12:38Z</time>
      </trkpt>
      <trkpt lat="48.38494" lon="-4.48913">
        <ele>39.3</ele>
        <time>2020-06-08T17:12:39Z</time>
      </trkpt>
      <trkpt lat="48.38493" lon="-4.48914">
        <ele>39.3</ele>
        <time>2020-06-08T17:12:40Z</time>
      </trkpt>
      <trkpt lat="48.38493" lon="-4.48915">
        <ele>39.3</ele>
        <time>2020-06-08T17:12:41Z</time>
      </trkpt>
      <trkpt lat="48.38492" lon="-4.48916">
        <ele>39.4</ele>
        <time>2020-06-08T17:12:42Z</time>
      </trkpt>
      <trkpt lat="48.38491" lon="-4.48917">
        <ele>39.4</ele>
        <time>2020-06-08T17:12:43Z</time>
      </trkpt>
      <trkpt lat="48.38491" lon="-4.48917">
        <ele>39.5</ele>
        <time>2020-06-08T17:13:50Z</time>
      </trkpt>
      <trkpt lat="48.3849" lon="-4.48918">
        <ele>39.5</ele>
        <time>2020-06-08T17:13:51Z</time>
      </trkpt>
      <trkpt lat="48.38493" lon="-4.48922">
        <ele>39.5</ele>
        <time>2020-06-08T17:13:52Z</time>
      </trkpt>
      <trkpt lat="48.38496" lon="-4.48926">
        <ele>39.5</ele>
        <time>2020-06-08T17:13:53Z</time>
      </trkpt>
      <trkpt lat="48.38498" lon="-4.4893">
        <ele>39.5</ele>
        <time>2020-06-08T17:13:54Z</time>
      </trkpt>
      <trkpt lat="48.385" lon="-4.48935">
        <ele>39.5</ele>
        <time>2020-06-08T17:13:55Z</time>
      </trkpt>
      <trkpt lat="48.38502" lon="-4.4894">
        <ele>39.4</ele>
        <time>2020-06-08T17:13:56Z</time>
      </trkpt>
      <trkpt lat="48.38504" lon="-4.48944">
        <ele>39.4</ele>
        <time>2020-06-08T17:13:57Z</time>
      </trkpt>
      <trkpt lat="48.38506" lon="-4.48948">
        <ele>39.3</ele>
        <time>2020-06-08T17:13:58Z</time>
      </trkpt>
      <trkpt lat="48.38508" lon="-4.48952">
        <ele>39.3</ele>
        <time>2020-06-08T17:13:59Z</time>
      </trkpt>
      <trkpt lat="48.3851" lon="-4.48956">
        <ele>39.2</ele>
        <time>2020-06-08T17:14:00Z</time>
      </trkpt>
      <trkpt lat="48.38512" lon="-4.4896">
        <ele>39.2</ele>
        <time>2020-06-08T17:14:01Z</time>
      </trkpt>
      <trkpt lat="48.38515" lon="-4.48965">
        <ele>39.1</ele>
        <time>2020-06-08T17:14:02Z</time>
      </trkpt>
      <trkpt lat="48.38517" lon="-4.48969">
        <ele>39.1</ele>
        <time>2020-06-08T17:14:03Z</time>
      </trkpt>
      <trkpt lat="48.38519" lon="-4.48973">
        <ele>39.1</ele>
        <time>2020-06-08T17:14:04Z</time>
      </trkpt>
      <trkpt lat="48.38522" lon="-4.48976">
        <ele>39.1</ele>
        <time>2020-06-08T17:14:05Z</time>
      </trkpt>
      <trkpt lat="48.38523" lon="-4.48981">
        <ele>39</ele>
        <time>2020-06-08T17:14:06Z</time>
      </trkpt>
      <trkpt lat="48.38526" lon="-4.48985">
        <ele>39</ele>
        <time>2020-06-08T17:14:07Z</time>
      </trkpt>
      <trkpt lat="48.38529" lon="-4.48989">
        <ele>39</ele>
        <time>2020-06-08T17:14:08Z</time>
      </trkpt>
      <trkpt lat="48.38531" lon="-4.48993">
        <ele>39</ele>
        <time>2020-06-08T17:14:09Z</time>
      </trkpt>
      <trkpt lat="48.38534" lon="-4.48998">
        <ele>39</ele>
        <time>2020-06-08T17:14:10Z</time>
      </trkpt>
      <trkpt lat="48.38537" lon="-4.49002">
        <ele>39.1</ele>
        <time>2020-06-08T17:14:11Z</time>
      </trkpt>
      <trkpt lat="48.38539" lon="-4.49006">
        <ele>39.1</ele>
        <time>2020-06-08T17:14:12Z</time>
      </trkpt>
      <trkpt lat="48.38541" lon="-4.49009">
        <ele>39.2</ele>
        <time>2020-06-08T17:14:13Z</time>
      </trkpt>
      <trkpt lat="48.38543" lon="-4.49012">
        <ele>39</ele>
        <time>2020-06-08T17:14:14Z</time>
      </trkpt>
      <trkpt lat="48.38546" lon="-4.49016">
        <ele>38.8</ele>
        <time>2020-06-08T17:14:15Z</time>
      </trkpt>
      <trkpt lat="48.38548" lon="-4.49021">
        <ele>38.7</ele>
        <time>2020-06-08T17:14:16Z</time>
      </trkpt>
      <trkpt lat="48.38551" lon="-4.49026">
        <ele>38.5</ele>
        <time>2020-06-08T17:14:17Z</time>
      </trkpt>
      <trkpt lat="48.38554" lon="-4.4903">
        <ele>38.5</ele>
        <time>2020-06-08T17:14:18Z</time>
      </trkpt>
      <trkpt lat="48.38556" lon="-4.49033">
        <ele>38.5</ele>
        <time>2020-06-08T17:14:19Z</time>
      </trkpt>
      <trkpt lat="48.38558" lon="-4.49037">
        <ele>38.5</ele>
        <time>2020-06-08T17:14:20Z</time>
      </trkpt>
      <trkpt lat="48.3856" lon="-4.4904">
        <ele>38.5</ele>
        <time>2020-06-08T17:14:21Z</time>
      </trkpt>
      <trkpt lat="48.38563" lon="-4.49044">
        <ele>38.6</ele>
        <time>2020-06-08T17:14:22Z</time>
      </trkpt>
      <trkpt lat="48.38566" lon="-4.49047">
        <ele>38.6</ele>
        <time>2020-06-08T17:14:23Z</time>
      </trkpt>
      <trkpt lat="48.38569" lon="-4.49051">
        <ele>38.7</ele>
        <time>2020-06-08T17:14:24Z</time>
      </trkpt>
      <trkpt lat="48.38571" lon="-4.49054">
        <ele>38.7</ele>
        <time>2020-06-08T17:14:25Z</time>
      </trkpt>
      <trkpt lat="48.38574" lon="-4.49057">
        <ele>38.8</ele>
        <time>2020-06-08T17:14:26Z</time>
      </trkpt>
      <trkpt lat="48.38575" lon="-4.49058">
        <ele>38.8</ele>
        <time>2020-06-08T17:14:27Z</time>
      </trkpt>
      <trkpt lat="48.38578" lon="-4.49061">
        <ele>38.9</ele>
        <time>2020-06-08T17:14:28Z</time>
      </trkpt>
      <trkpt lat="48.38579" lon="-4.49063">
        <ele>38.9</ele>
        <time>2020-06-08T17:14:29Z</time>
      </trkpt>
      <trkpt lat="48.38582" lon="-4.49066">
        <ele>38.9</ele>
        <time>2020-06-08T17:14:30Z</time>
      </trkpt>
      <trkpt lat="48.38583" lon="-4.49067">
        <ele>38.9</ele>
        <time>2020-06-08T17:14:31Z</time>
      </trkpt>
      <trkpt lat="48.38585" lon="-4.49072">
        <ele>38.9</ele>
        <time>2020-06-08T17:14:32Z</time>
      </trkpt>
      <trkpt lat="48.38587" lon="-4.49074">
        <ele>38.7</ele>
        <time>2020-06-08T17:14:33Z</time>
      </trkpt>
      <trkpt lat="48.38589" lon="-4.49079">
        <ele>38.5</ele>
        <time>2020-06-08T17:14:34Z</time>
      </trkpt>
      <trkpt lat="48.38592" lon="-4.49085">
        <ele>38.2</ele>
        <time>2020-06-08T17:14:35Z</time>
      </trkpt>
      <trkpt lat="48.38595" lon="-4.4909">
        <ele>37.9</ele>
        <time>2020-06-08T17:14:36Z</time>
      </trkpt>
      <trkpt lat="48.38597" lon="-4.49095">
        <ele>37.6</ele>
        <time>2020-06-08T17:14:37Z</time>
      </trkpt>
      <trkpt lat="48.386" lon="-4.491">
        <ele>37.4</ele>
        <time>2020-06-08T17:14:38Z</time>
      </trkpt>
      <trkpt lat="48.38602" lon="-4.49105">
        <ele>37.1</ele>
        <time>2020-06-08T17:14:39Z</time>
      </trkpt>
      <trkpt lat="48.38605" lon="-4.49111">
        <ele>36.8</ele>
        <time>2020-06-08T17:14:40Z</time>
      </trkpt>
      <trkpt lat="48.38608" lon="-4.49116">
        <ele>36.5</ele>
        <time>2020-06-08T17:14:41Z</time>
      </trkpt>
      <trkpt lat="48.38611" lon="-4.49121">
        <ele>36.3</ele>
        <time>2020-06-08T17:14:42Z</time>
      </trkpt>
      <trkpt lat="48.38613" lon="-4.49124">
        <ele>36.1</ele>
        <time>2020-06-08T17:14:43Z</time>
      </trkpt>
      <trkpt lat="48.38614" lon="-4.49128">
        <ele>35.8</ele>
        <time>2020-06-08T17:14:44Z</time>
      </trkpt>
      <trkpt lat="48.38614" lon="-4.4913">
        <ele>35.8</ele>
        <time>2020-06-08T17:14:45Z</time>
      </trkpt>
      <trkpt lat="48.38615" lon="-4.49131">
        <ele>35.9</ele>
        <time>2020-06-08T17:14:46Z</time>
      </trkpt>
      <trkpt lat="48.38616" lon="-4.49133">
        <ele>35.9</ele>
        <time>2020-06-08T17:14:47Z</time>
      </trkpt>
      <trkpt lat="48.38616" lon="-4.49134">
        <ele>35.9</ele>
        <time>2020-06-08T17:14:48Z</time>
      </trkpt>
      <trkpt lat="48.38617" lon="-4.49135">
        <ele>36</ele>
        <time>2020-06-08T17:14:49Z</time>
      </trkpt>
      <trkpt lat="48.38617" lon="-4.49138">
        <ele>36</ele>
        <time>2020-06-08T17:14:50Z</time>
      </trkpt>
      <trkpt lat="48.38617" lon="-4.49139">
        <ele>36</ele>
        <time>2020-06-08T17:14:51Z</time>
      </trkpt>
      <trkpt lat="48.38617" lon="-4.4914">
        <ele>36</ele>
        <time>2020-06-08T17:14:52Z</time>
      </trkpt>
      <trkpt lat="48.38618" lon="-4.4914">
        <ele>36.1</ele>
        <time>2020-06-08T17:14:53Z</time>
      </trkpt>
      <trkpt lat="48.3862" lon="-4.4914">
        <ele>36.1</ele>
        <time>2020-06-08T17:14:54Z</time>
      </trkpt>
      <trkpt lat="48.38621" lon="-4.4914">
        <ele>36.1</ele>
        <time>2020-06-08T17:14:55Z</time>
      </trkpt>
      <trkpt lat="48.38622" lon="-4.49138">
        <ele>36.2</ele>
        <time>2020-06-08T17:14:56Z</time>
      </trkpt>
      <trkpt lat="48.38625" lon="-4.49136">
        <ele>36.2</ele>
        <time>2020-06-08T17:14:57Z</time>
      </trkpt>
      <trkpt lat="48.38627" lon="-4.49135">
        <ele>36.3</ele>
        <time>2020-06-08T17:14:58Z</time>
      </trkpt>
      <trkpt lat="48.38629" lon="-4.49132">
        <ele>36.3</ele>
        <time>2020-06-08T17:14:59Z</time>
      </trkpt>
      <trkpt lat="48.3863" lon="-4.49127">
        <ele>36.4</ele>
        <time>2020-06-08T17:15:00Z</time>
      </trkpt>
      <trkpt lat="48.38634" lon="-4.49124">
        <ele>36.5</ele>
        <time>2020-06-08T17:15:01Z</time>
      </trkpt>
      <trkpt lat="48.38636" lon="-4.49118">
        <ele>36.7</ele>
        <time>2020-06-08T17:15:02Z</time>
      </trkpt>
      <trkpt lat="48.38639" lon="-4.49112">
        <ele>36.8</ele>
        <time>2020-06-08T17:15:03Z</time>
      </trkpt>
      <trkpt lat="48.38642" lon="-4.49109">
        <ele>36.9</ele>
        <time>2020-06-08T17:15:04Z</time>
      </trkpt>
      <trkpt lat="48.38644" lon="-4.49105">
        <ele>37</ele>
        <time>2020-06-08T17:15:05Z</time>
      </trkpt>
      <trkpt lat="48.38647" lon="-4.49102">
        <ele>37.1</ele>
        <time>2020-06-08T17:15:06Z</time>
      </trkpt>
      <trkpt lat="48.3865" lon="-4.49098">
        <ele>37.2</ele>
        <time>2020-06-08T17:15:07Z</time>
      </trkpt>
      <trkpt lat="48.38653" lon="-4.49096">
        <ele>37.3</ele>
        <time>2020-06-08T17:15:08Z</time>
      </trkpt>
      <trkpt lat="48.38655" lon="-4.49094">
        <ele>37.3</ele>
        <time>2020-06-08T17:15:09Z</time>
      </trkpt>
      <trkpt lat="48.38658" lon="-4.4909">
        <ele>37.4</ele>
        <time>2020-06-08T17:15:10Z</time>
      </trkpt>
      <trkpt lat="48.38659" lon="-4.49089">
        <ele>37.5</ele>
        <time>2020-06-08T17:15:11Z</time>
      </trkpt>
      <trkpt lat="48.3866" lon="-4.49082">
        <ele>37.6</ele>
        <time>2020-06-08T17:15:12Z</time>
      </trkpt>
      <trkpt lat="48.38662" lon="-4.49077">
        <ele>37.7</ele>
        <time>2020-06-08T17:15:13Z</time>
      </trkpt>
      <trkpt lat="48.38662" lon="-4.49074">
        <ele>37.7</ele>
        <time>2020-06-08T17:15:14Z</time>
      </trkpt>
      <trkpt lat="48.38663" lon="-4.49068">
        <ele>37.8</ele>
        <time>2020-06-08T17:15:15Z</time>
      </trkpt>
      <trkpt lat="48.38668" lon="-4.4907">
        <ele>37.9</ele>
        <time>2020-06-08T17:15:16Z</time>
      </trkpt>
      <trkpt lat="48.38672" lon="-4.49069">
        <ele>38</ele>
        <time>2020-06-08T17:15:17Z</time>
      </trkpt>
      <trkpt lat="48.38675" lon="-4.49068">
        <ele>38.3</ele>
        <time>2020-06-08T17:15:18Z</time>
      </trkpt>
      <trkpt lat="48.38676" lon="-4.49067">
        <ele>38.3</ele>
        <time>2020-06-08T17:15:19Z</time>
      </trkpt>
      <trkpt lat="48.38678" lon="-4.49066">
        <ele>38.3</ele>
        <time>2020-06-08T17:15:20Z</time>
      </trkpt>
      <trkpt lat="48.38681" lon="-4.49063">
        <ele>38.3</ele>
        <time>2020-06-08T17:15:21Z</time>
      </trkpt>
      <trkpt lat="48.38684" lon="-4.49061">
        <ele>37.8</ele>
        <time>2020-06-08T17:15:22Z</time>
      </trkpt>
      <trkpt lat="48.38687" lon="-4.49059">
        <ele>37.8</ele>
        <time>2020-06-08T17:15:23Z</time>
      </trkpt>
      <trkpt lat="48.38691" lon="-4.49057">
        <ele>37.5</ele>
        <time>2020-06-08T17:15:24Z</time>
      </trkpt>
      <trkpt lat="48.38694" lon="-4.49053">
        <ele>37.5</ele>
        <time>2020-06-08T17:15:25Z</time>
      </trkpt>
      <trkpt lat="48.38696" lon="-4.49051">
        <ele>37.5</ele>
        <time>2020-06-08T17:15:26Z</time>
      </trkpt>
      <trkpt lat="48.38702" lon="-4.49053">
        <ele>37.6</ele>
        <time>2020-06-08T17:15:27Z</time>
      </trkpt>
      <trkpt lat="48.38705" lon="-4.49052">
        <ele>37.6</ele>
        <time>2020-06-08T17:15:28Z</time>
      </trkpt>
      <trkpt lat="48.38708" lon="-4.4905">
        <ele>37.6</ele>
        <time>2020-06-08T17:15:29Z</time>
      </trkpt>
      <trkpt lat="48.38711" lon="-4.49048">
        <ele>37.6</ele>
        <time>2020-06-08T17:15:30Z</time>
      </trkpt>
      <trkpt lat="48.38713" lon="-4.49044">
        <ele>37.7</ele>
        <time>2020-06-08T17:15:31Z</time>
      </trkpt>
      <trkpt lat="48.38717" lon="-4.49041">
        <ele>37.7</ele>
        <time>2020-06-08T17:15:32Z</time>
      </trkpt>
      <trkpt lat="48.3872" lon="-4.49038">
        <ele>37.7</ele>
        <time>2020-06-08T17:15:33Z</time>
      </trkpt>
      <trkpt lat="48.38722" lon="-4.49035">
        <ele>37.8</ele>
        <time>2020-06-08T17:15:34Z</time>
      </trkpt>
      <trkpt lat="48.38725" lon="-4.49031">
        <ele>37.8</ele>
        <time>2020-06-08T17:15:35Z</time>
      </trkpt>
      <trkpt lat="48.38728" lon="-4.49028">
        <ele>37.9</ele>
        <time>2020-06-08T17:15:36Z</time>
      </trkpt>
      <trkpt lat="48.38732" lon="-4.49025">
        <ele>37.9</ele>
        <time>2020-06-08T17:15:37Z</time>
      </trkpt>
      <trkpt lat="48.38735" lon="-4.49022">
        <ele>37.9</ele>
        <time>2020-06-08T17:15:38Z</time>
      </trkpt>
      <trkpt lat="48.38738" lon="-4.49019">
        <ele>37.9</ele>
        <time>2020-06-08T17:15:39Z</time>
      </trkpt>
      <trkpt lat="48.38741" lon="-4.49015">
        <ele>37.9</ele>
        <time>2020-06-08T17:15:40Z</time>
      </trkpt>
      <trkpt lat="48.38744" lon="-4.49012">
        <ele>37.9</ele>
        <time>2020-06-08T17:15:41Z</time>
      </trkpt>
      <trkpt lat="48.38747" lon="-4.49007">
        <ele>38</ele>
        <time>2020-06-08T17:15:42Z</time>
      </trkpt>
      <trkpt lat="48.38751" lon="-4.49002">
        <ele>38</ele>
        <time>2020-06-08T17:15:43Z</time>
      </trkpt>
      <trkpt lat="48.38754" lon="-4.48995">
        <ele>38.1</ele>
        <time>2020-06-08T17:15:44Z</time>
      </trkpt>
      <trkpt lat="48.38759" lon="-4.4898">
        <ele>38.2</ele>
        <time>2020-06-08T17:15:45Z</time>
      </trkpt>
      <trkpt lat="48.38762" lon="-4.48974">
        <ele>38.2</ele>
        <time>2020-06-08T17:15:46Z</time>
      </trkpt>
      <trkpt lat="48.38763" lon="-4.48968">
        <ele>38.3</ele>
        <time>2020-06-08T17:15:47Z</time>
      </trkpt>
      <trkpt lat="48.38766" lon="-4.48965">
        <ele>38.3</ele>
        <time>2020-06-08T17:15:48Z</time>
      </trkpt>
      <trkpt lat="48.38769" lon="-4.48961">
        <ele>38.3</ele>
        <time>2020-06-08T17:15:49Z</time>
      </trkpt>
      <trkpt lat="48.38771" lon="-4.48959">
        <ele>38.4</ele>
        <time>2020-06-08T17:15:50Z</time>
      </trkpt>
      <trkpt lat="48.38774" lon="-4.48954">
        <ele>38.4</ele>
        <time>2020-06-08T17:15:51Z</time>
      </trkpt>
      <trkpt lat="48.38777" lon="-4.48951">
        <ele>38.5</ele>
        <time>2020-06-08T17:15:52Z</time>
      </trkpt>
      <trkpt lat="48.3878" lon="-4.48947">
        <ele>38.6</ele>
        <time>2020-06-08T17:15:53Z</time>
      </trkpt>
      <trkpt lat="48.38782" lon="-4.48944">
        <ele>38.6</ele>
        <time>2020-06-08T17:15:54Z</time>
      </trkpt>
      <trkpt lat="48.38784" lon="-4.48941">
        <ele>38.7</ele>
        <time>2020-06-08T17:15:55Z</time>
      </trkpt>
      <trkpt lat="48.38787" lon="-4.48939">
        <ele>38.7</ele>
        <time>2020-06-08T17:15:56Z</time>
      </trkpt>
      <trkpt lat="48.38789" lon="-4.48936">
        <ele>38.8</ele>
        <time>2020-06-08T17:15:57Z</time>
      </trkpt>
      <trkpt lat="48.38791" lon="-4.48934">
        <ele>38.9</ele>
        <time>2020-06-08T17:15:58Z</time>
      </trkpt>
      <trkpt lat="48.38794" lon="-4.48932">
        <ele>39</ele>
        <time>2020-06-08T17:15:59Z</time>
      </trkpt>
      <trkpt lat="48.38797" lon="-4.48931">
        <ele>39.1</ele>
        <time>2020-06-08T17:16:00Z</time>
      </trkpt>
      <trkpt lat="48.388" lon="-4.48929">
        <ele>39.2</ele>
        <time>2020-06-08T17:16:01Z</time>
      </trkpt>
      <trkpt lat="48.38803" lon="-4.48929">
        <ele>39.2</ele>
        <time>2020-06-08T17:16:02Z</time>
      </trkpt>
      <trkpt lat="48.38804" lon="-4.48928">
        <ele>39.3</ele>
        <time>2020-06-08T17:16:03Z</time>
      </trkpt>
      <trkpt lat="48.38806" lon="-4.48926">
        <ele>39.3</ele>
        <time>2020-06-08T17:16:04Z</time>
      </trkpt>
      <trkpt lat="48.38806" lon="-4.48925">
        <ele>39.3</ele>
        <time>2020-06-08T17:16:05Z</time>
      </trkpt>
      <trkpt lat="48.38807" lon="-4.48924">
        <ele>39.4</ele>
        <time>2020-06-08T17:16:06Z</time>
      </trkpt>
      <trkpt lat="48.3881" lon="-4.48922">
        <ele>39.4</ele>
        <time>2020-06-08T17:16:07Z</time>
      </trkpt>
      <trkpt lat="48.38811" lon="-4.48921">
        <ele>39.5</ele>
        <time>2020-06-08T17:16:08Z</time>
      </trkpt>
      <trkpt lat="48.38813" lon="-4.48918">
        <ele>39.5</ele>
        <time>2020-06-08T17:16:09Z</time>
      </trkpt>
      <trkpt lat="48.38816" lon="-4.48914">
        <ele>39.6</ele>
        <time>2020-06-08T17:16:10Z</time>
      </trkpt>
      <trkpt lat="48.38818" lon="-4.4891">
        <ele>39.7</ele>
        <time>2020-06-08T17:16:11Z</time>
      </trkpt>
      <trkpt lat="48.38821" lon="-4.48906">
        <ele>39.8</ele>
        <time>2020-06-08T17:16:12Z</time>
      </trkpt>
      <trkpt lat="48.38829" lon="-4.48893">
        <ele>40.1</ele>
        <time>2020-06-08T17:16:13Z</time>
      </trkpt>
      <trkpt lat="48.38835" lon="-4.48883">
        <ele>40.4</ele>
        <time>2020-06-08T17:16:14Z</time>
      </trkpt>
      <trkpt lat="48.38839" lon="-4.48875">
        <ele>40.5</ele>
        <time>2020-06-08T17:16:15Z</time>
      </trkpt>
      <trkpt lat="48.38842" lon="-4.48867">
        <ele>40.7</ele>
        <time>2020-06-08T17:16:16Z</time>
      </trkpt>
      <trkpt lat="48.38847" lon="-4.48863">
        <ele>40.9</ele>
        <time>2020-06-08T17:16:17Z</time>
      </trkpt>
      <trkpt lat="48.38852" lon="-4.48861">
        <ele>40.9</ele>
        <time>2020-06-08T17:16:18Z</time>
      </trkpt>
      <trkpt lat="48.38855" lon="-4.48858">
        <ele>41.1</ele>
        <time>2020-06-08T17:16:19Z</time>
      </trkpt>
      <trkpt lat="48.38856" lon="-4.48856">
        <ele>41.1</ele>
        <time>2020-06-08T17:16:20Z</time>
      </trkpt>
      <trkpt lat="48.38855" lon="-4.48855">
        <ele>41.2</ele>
        <time>2020-06-08T17:16:21Z</time>
      </trkpt>
      <trkpt lat="48.38856" lon="-4.48854">
        <ele>41.2</ele>
        <time>2020-06-08T17:16:22Z</time>
      </trkpt>
      <trkpt lat="48.38857" lon="-4.48853">
        <ele>41.2</ele>
        <time>2020-06-08T17:16:23Z</time>
      </trkpt>
      <trkpt lat="48.38857" lon="-4.48852">
        <ele>41.2</ele>
        <time>2020-06-08T17:16:24Z</time>
      </trkpt>
      <trkpt lat="48.38858" lon="-4.48852">
        <ele>41.2</ele>
        <time>2020-06-08T17:16:25Z</time>
      </trkpt>
      <trkpt lat="48.38859" lon="-4.48852">
        <ele>41.2</ele>
        <time>2020-06-08T17:16:26Z</time>
      </trkpt>
      <trkpt lat="48.3886" lon="-4.48852">
        <ele>41.2</ele>
        <time>2020-06-08T17:16:27Z</time>
      </trkpt>
      <trkpt lat="48.38861" lon="-4.48852">
        <ele>41.2</ele>
        <time>2020-06-08T17:16:28Z</time>
      </trkpt>
      <trkpt lat="48.38861" lon="-4.48853">
        <ele>41.2</ele>
        <time>2020-06-08T17:16:29Z</time>
      </trkpt>
      <trkpt lat="48.3886" lon="-4.48852">
        <ele>41.2</ele>
        <time>2020-06-08T17:16:30Z</time>
      </trkpt>
      <trkpt lat="48.38859" lon="-4.48852">
        <ele>41.2</ele>
        <time>2020-06-08T17:16:31Z</time>
      </trkpt>
      <trkpt lat="48.38857" lon="-4.48852">
        <ele>41.2</ele>
        <time>2020-06-08T17:16:32Z</time>
      </trkpt>
      <trkpt lat="48.38857" lon="-4.48851">
        <ele>41.3</ele>
        <time>2020-06-08T17:16:33Z</time>
      </trkpt>
      <trkpt lat="48.38857" lon="-4.48848">
        <ele>41.3</ele>
        <time>2020-06-08T17:16:34Z</time>
      </trkpt>
      <trkpt lat="48.38856" lon="-4.48845">
        <ele>41.5</ele>
        <time>2020-06-08T17:16:35Z</time>
      </trkpt>
      <trkpt lat="48.38855" lon="-4.48844">
        <ele>41.5</ele>
        <time>2020-06-08T17:16:36Z</time>
      </trkpt>
      <trkpt lat="48.38855" lon="-4.48845">
        <ele>41.5</ele>
        <time>2020-06-08T17:16:37Z</time>
      </trkpt>
      <trkpt lat="48.38855" lon="-4.48847">
        <ele>41.5</ele>
        <time>2020-06-08T17:16:38Z</time>
      </trkpt>
      <trkpt lat="48.38856" lon="-4.48849">
        <ele>41.3</ele>
        <time>2020-06-08T17:16:39Z</time>
      </trkpt>
      <trkpt lat="48.38857" lon="-4.48849">
        <ele>41.3</ele>
        <time>2020-06-08T17:16:40Z</time>
      </trkpt>
      <trkpt lat="48.38857" lon="-4.48849">
        <ele>41.3</ele>
        <time>2020-06-08T17:16:41Z</time>
      </trkpt>
      <trkpt lat="48.38857" lon="-4.4885">
        <ele>41.3</ele>
        <time>2020-06-08T17:16:42Z</time>
      </trkpt>
      <trkpt lat="48.38858" lon="-4.4885">
        <ele>41.3</ele>
        <time>2020-06-08T17:16:43Z</time>
      </trkpt>
      <trkpt lat="48.38858" lon="-4.48849">
        <ele>41.3</ele>
        <time>2020-06-08T17:16:44Z</time>
      </trkpt>
      <trkpt lat="48.38858" lon="-4.48847">
        <ele>41.5</ele>
        <time>2020-06-08T17:16:45Z</time>
      </trkpt>
      <trkpt lat="48.38858" lon="-4.48846">
        <ele>41.5</ele>
        <time>2020-06-08T17:16:46Z</time>
      </trkpt>
      <trkpt lat="48.38854" lon="-4.48836">
        <ele>41.7</ele>
        <time>2020-06-08T17:22:05Z</time>
      </trkpt>
      <trkpt lat="48.38857" lon="-4.48834">
        <ele>41.9</ele>
        <time>2020-06-08T17:22:06Z</time>
      </trkpt>
      <trkpt lat="48.3886" lon="-4.48832">
        <ele>41.9</ele>
        <time>2020-06-08T17:22:07Z</time>
      </trkpt>
      <trkpt lat="48.38863" lon="-4.4883">
        <ele>42.1</ele>
        <time>2020-06-08T17:22:08Z</time>
      </trkpt>
      <trkpt lat="48.38866" lon="-4.48828">
        <ele>42.1</ele>
        <time>2020-06-08T17:22:09Z</time>
      </trkpt>
      <trkpt lat="48.38869" lon="-4.48825">
        <ele>42.3</ele>
        <time>2020-06-08T17:22:10Z</time>
      </trkpt>
      <trkpt lat="48.38872" lon="-4.48823">
        <ele>42.3</ele>
        <time>2020-06-08T17:22:11Z</time>
      </trkpt>
      <trkpt lat="48.38876" lon="-4.48821">
        <ele>42.4</ele>
        <time>2020-06-08T17:22:12Z</time>
      </trkpt>
      <trkpt lat="48.3888" lon="-4.48818">
        <ele>42.4</ele>
        <time>2020-06-08T17:22:13Z</time>
      </trkpt>
      <trkpt lat="48.38883" lon="-4.48813">
        <ele>42.5</ele>
        <time>2020-06-08T17:22:14Z</time>
      </trkpt>
      <trkpt lat="48.38887" lon="-4.48809">
        <ele>42.8</ele>
        <time>2020-06-08T17:22:15Z</time>
      </trkpt>
      <trkpt lat="48.3889" lon="-4.48803">
        <ele>42.9</ele>
        <time>2020-06-08T17:22:16Z</time>
      </trkpt>
      <trkpt lat="48.38894" lon="-4.48796">
        <ele>43.2</ele>
        <time>2020-06-08T17:22:17Z</time>
      </trkpt>
      <trkpt lat="48.38897" lon="-4.4879">
        <ele>43.3</ele>
        <time>2020-06-08T17:22:18Z</time>
      </trkpt>
      <trkpt lat="48.38902" lon="-4.48783">
        <ele>43.7</ele>
        <time>2020-06-08T17:22:19Z</time>
      </trkpt>
      <trkpt lat="48.38906" lon="-4.48774">
        <ele>44</ele>
        <time>2020-06-08T17:22:20Z</time>
      </trkpt>
      <trkpt lat="48.38908" lon="-4.48767">
        <ele>44.1</ele>
        <time>2020-06-08T17:22:21Z</time>
      </trkpt>
      <trkpt lat="48.3891" lon="-4.48764">
        <ele>44.3</ele>
        <time>2020-06-08T17:22:22Z</time>
      </trkpt>
      <trkpt lat="48.38911" lon="-4.48762">
        <ele>44.3</ele>
        <time>2020-06-08T17:22:23Z</time>
      </trkpt>
      <trkpt lat="48.38913" lon="-4.4876">
        <ele>44.4</ele>
        <time>2020-06-08T17:22:24Z</time>
      </trkpt>
      <trkpt lat="48.38915" lon="-4.48757">
        <ele>44.5</ele>
        <time>2020-06-08T17:22:25Z</time>
      </trkpt>
      <trkpt lat="48.38917" lon="-4.48754">
        <ele>44.5</ele>
        <time>2020-06-08T17:22:26Z</time>
      </trkpt>
      <trkpt lat="48.3892" lon="-4.48751">
        <ele>44.7</ele>
        <time>2020-06-08T17:22:27Z</time>
      </trkpt>
      <trkpt lat="48.38922" lon="-4.48747">
        <ele>44.8</ele>
        <time>2020-06-08T17:22:28Z</time>
      </trkpt>
      <trkpt lat="48.38925" lon="-4.48743">
        <ele>44.9</ele>
        <time>2020-06-08T17:22:29Z</time>
      </trkpt>
      <trkpt lat="48.38928" lon="-4.4874">
        <ele>45</ele>
        <time>2020-06-08T17:22:30Z</time>
      </trkpt>
      <trkpt lat="48.38931" lon="-4.48736">
        <ele>45.1</ele>
        <time>2020-06-08T17:22:31Z</time>
      </trkpt>
      <trkpt lat="48.38934" lon="-4.48731">
        <ele>45.2</ele>
        <time>2020-06-08T17:22:32Z</time>
      </trkpt>
      <trkpt lat="48.38938" lon="-4.48726">
        <ele>45.3</ele>
        <time>2020-06-08T17:22:33Z</time>
      </trkpt>
      <trkpt lat="48.38945" lon="-4.48714">
        <ele>45.5</ele>
        <time>2020-06-08T17:22:34Z</time>
      </trkpt>
      <trkpt lat="48.38948" lon="-4.48709">
        <ele>45.6</ele>
        <time>2020-06-08T17:22:35Z</time>
      </trkpt>
      <trkpt lat="48.38951" lon="-4.48705">
        <ele>45.7</ele>
        <time>2020-06-08T17:22:36Z</time>
      </trkpt>
      <trkpt lat="48.38954" lon="-4.48703">
        <ele>45.7</ele>
        <time>2020-06-08T17:22:37Z</time>
      </trkpt>
      <trkpt lat="48.38958" lon="-4.48701">
        <ele>45.7</ele>
        <time>2020-06-08T17:22:38Z</time>
      </trkpt>
      <trkpt lat="48.38959" lon="-4.48701">
        <ele>45.7</ele>
        <time>2020-06-08T17:22:39Z</time>
      </trkpt>
      <trkpt lat="48.38962" lon="-4.48699">
        <ele>45.7</ele>
        <time>2020-06-08T17:22:40Z</time>
      </trkpt>
      <trkpt lat="48.38965" lon="-4.48696">
        <ele>45.8</ele>
        <time>2020-06-08T17:22:41Z</time>
      </trkpt>
      <trkpt lat="48.38968" lon="-4.48697">
        <ele>45.8</ele>
        <time>2020-06-08T17:22:42Z</time>
      </trkpt>
      <trkpt lat="48.38971" lon="-4.48699">
        <ele>45.8</ele>
        <time>2020-06-08T17:22:43Z</time>
      </trkpt>
      <trkpt lat="48.38974" lon="-4.48703">
        <ele>45.8</ele>
        <time>2020-06-08T17:22:44Z</time>
      </trkpt>
      <trkpt lat="48.38976" lon="-4.48704">
        <ele>45.9</ele>
        <time>2020-06-08T17:22:45Z</time>
      </trkpt>
      <trkpt lat="48.38979" lon="-4.48705">
        <ele>46</ele>
        <time>2020-06-08T17:22:46Z</time>
      </trkpt>
      <trkpt lat="48.38981" lon="-4.48707">
        <ele>46</ele>
        <time>2020-06-08T17:22:47Z</time>
      </trkpt>
      <trkpt lat="48.38984" lon="-4.48707">
        <ele>46.1</ele>
        <time>2020-06-08T17:22:48Z</time>
      </trkpt>
      <trkpt lat="48.38987" lon="-4.48707">
        <ele>46.2</ele>
        <time>2020-06-08T17:22:49Z</time>
      </trkpt>
      <trkpt lat="48.38988" lon="-4.48706">
        <ele>46.2</ele>
        <time>2020-06-08T17:22:50Z</time>
      </trkpt>
      <trkpt lat="48.38992" lon="-4.48706">
        <ele>46.3</ele>
        <time>2020-06-08T17:22:51Z</time>
      </trkpt>
      <trkpt lat="48.38992" lon="-4.48706">
        <ele>46.4</ele>
        <time>2020-06-08T17:22:52Z</time>
      </trkpt>
      <trkpt lat="48.38992" lon="-4.48703">
        <ele>46.4</ele>
        <time>2020-06-08T17:22:53Z</time>
      </trkpt>
      <trkpt lat="48.38992" lon="-4.48702">
        <ele>46.4</ele>
        <time>2020-06-08T17:22:54Z</time>
      </trkpt>
      <trkpt lat="48.38992" lon="-4.487">
        <ele>46.4</ele>
        <time>2020-06-08T17:22:55Z</time>
      </trkpt>
      <trkpt lat="48.38992" lon="-4.48695">
        <ele>46.3</ele>
        <time>2020-06-08T17:22:56Z</time>
      </trkpt>
      <trkpt lat="48.38992" lon="-4.48694">
        <ele>46.3</ele>
        <time>2020-06-08T17:22:57Z</time>
      </trkpt>
      <trkpt lat="48.38992" lon="-4.48688">
        <ele>46.4</ele>
        <time>2020-06-08T17:22:58Z</time>
      </trkpt>
      <trkpt lat="48.38993" lon="-4.48687">
        <ele>46.4</ele>
        <time>2020-06-08T17:22:59Z</time>
      </trkpt>
      <trkpt lat="48.38994" lon="-4.48682">
        <ele>46.4</ele>
        <time>2020-06-08T17:23:00Z</time>
      </trkpt>
      <trkpt lat="48.38995" lon="-4.48681">
        <ele>46.5</ele>
        <time>2020-06-08T17:23:01Z</time>
      </trkpt>
      <trkpt lat="48.38995" lon="-4.48679">
        <ele>46.5</ele>
        <time>2020-06-08T17:23:02Z</time>
      </trkpt>
      <trkpt lat="48.38996" lon="-4.48677">
        <ele>46.5</ele>
        <time>2020-06-08T17:23:03Z</time>
      </trkpt>
      <trkpt lat="48.38998" lon="-4.48674">
        <ele>46.6</ele>
        <time>2020-06-08T17:23:04Z</time>
      </trkpt>
      <trkpt lat="48.38999" lon="-4.48672">
        <ele>46.6</ele>
        <time>2020-06-08T17:23:05Z</time>
      </trkpt>
      <trkpt lat="48.39002" lon="-4.48669">
        <ele>46.8</ele>
        <time>2020-06-08T17:23:06Z</time>
      </trkpt>
      <trkpt lat="48.39003" lon="-4.48668">
        <ele>46.8</ele>
        <time>2020-06-08T17:23:07Z</time>
      </trkpt>
      <trkpt lat="48.39006" lon="-4.48665">
        <ele>46.9</ele>
        <time>2020-06-08T17:23:08Z</time>
      </trkpt>
      <trkpt lat="48.39009" lon="-4.48662">
        <ele>47</ele>
        <time>2020-06-08T17:23:09Z</time>
      </trkpt>
      <trkpt lat="48.3901" lon="-4.48659">
        <ele>47.2</ele>
        <time>2020-06-08T17:23:10Z</time>
      </trkpt>
      <trkpt lat="48.39013" lon="-4.48655">
        <ele>47.3</ele>
        <time>2020-06-08T17:23:11Z</time>
      </trkpt>
      <trkpt lat="48.39015" lon="-4.48651">
        <ele>47.5</ele>
        <time>2020-06-08T17:23:12Z</time>
      </trkpt>
      <trkpt lat="48.39017" lon="-4.48648">
        <ele>47.5</ele>
        <time>2020-06-08T17:23:13Z</time>
      </trkpt>
      <trkpt lat="48.3902" lon="-4.48644">
        <ele>47.7</ele>
        <time>2020-06-08T17:23:14Z</time>
      </trkpt>
      <trkpt lat="48.39021" lon="-4.48642">
        <ele>47.9</ele>
        <time>2020-06-08T17:23:15Z</time>
      </trkpt>
      <trkpt lat="48.39022" lon="-4.48639">
        <ele>47.9</ele>
        <time>2020-06-08T17:23:16Z</time>
      </trkpt>
      <trkpt lat="48.39024" lon="-4.48636">
        <ele>48.2</ele>
        <time>2020-06-08T17:23:17Z</time>
      </trkpt>
      <trkpt lat="48.39027" lon="-4.4863">
        <ele>48.4</ele>
        <time>2020-06-08T17:23:18Z</time>
      </trkpt>
      <trkpt lat="48.39028" lon="-4.48628">
        <ele>48.4</ele>
        <time>2020-06-08T17:23:19Z</time>
      </trkpt>
      <trkpt lat="48.3903" lon="-4.48624">
        <ele>48.6</ele>
        <time>2020-06-08T17:23:20Z</time>
      </trkpt>
      <trkpt lat="48.39032" lon="-4.48621">
        <ele>48.7</ele>
        <time>2020-06-08T17:23:21Z</time>
      </trkpt>
      <trkpt lat="48.39036" lon="-4.48613">
        <ele>48.9</ele>
        <time>2020-06-08T17:23:22Z</time>
      </trkpt>
      <trkpt lat="48.39039" lon="-4.48609">
        <ele>49</ele>
        <time>2020-06-08T17:23:23Z</time>
      </trkpt>
      <trkpt lat="48.39041" lon="-4.48606">
        <ele>49.1</ele>
        <time>2020-06-08T17:23:24Z</time>
      </trkpt>
      <trkpt lat="48.39042" lon="-4.48601">
        <ele>49.1</ele>
        <time>2020-06-08T17:23:25Z</time>
      </trkpt>
      <trkpt lat="48.39042" lon="-4.48599">
        <ele>49.1</ele>
        <time>2020-06-08T17:23:26Z</time>
      </trkpt>
      <trkpt lat="48.39046" lon="-4.48597">
        <ele>49.4</ele>
        <time>2020-06-08T17:23:27Z</time>
      </trkpt>
      <trkpt lat="48.3905" lon="-4.48595">
        <ele>49.6</ele>
        <time>2020-06-08T17:23:28Z</time>
      </trkpt>
      <trkpt lat="48.39051" lon="-4.48593">
        <ele>49.6</ele>
        <time>2020-06-08T17:23:29Z</time>
      </trkpt>
      <trkpt lat="48.39053" lon="-4.4859">
        <ele>49.8</ele>
        <time>2020-06-08T17:23:30Z</time>
      </trkpt>
      <trkpt lat="48.39054" lon="-4.48589">
        <ele>49.8</ele>
        <time>2020-06-08T17:23:31Z</time>
      </trkpt>
      <trkpt lat="48.39057" lon="-4.48585">
        <ele>50.1</ele>
        <time>2020-06-08T17:23:32Z</time>
      </trkpt>
      <trkpt lat="48.39059" lon="-4.48582">
        <ele>50.2</ele>
        <time>2020-06-08T17:23:33Z</time>
      </trkpt>
      <trkpt lat="48.39062" lon="-4.4858">
        <ele>50.5</ele>
        <time>2020-06-08T17:23:34Z</time>
      </trkpt>
      <trkpt lat="48.39065" lon="-4.48577">
        <ele>50.7</ele>
        <time>2020-06-08T17:23:35Z</time>
      </trkpt>
      <trkpt lat="48.39067" lon="-4.48573">
        <ele>50.9</ele>
        <time>2020-06-08T17:23:36Z</time>
      </trkpt>
      <trkpt lat="48.39068" lon="-4.48572">
        <ele>51</ele>
        <time>2020-06-08T17:23:37Z</time>
      </trkpt>
      <trkpt lat="48.3907" lon="-4.48568">
        <ele>51.3</ele>
        <time>2020-06-08T17:23:38Z</time>
      </trkpt>
      <trkpt lat="48.39071" lon="-4.48566">
        <ele>51.3</ele>
        <time>2020-06-08T17:23:39Z</time>
      </trkpt>
      <trkpt lat="48.39074" lon="-4.48563">
        <ele>51.7</ele>
        <time>2020-06-08T17:23:40Z</time>
      </trkpt>
      <trkpt lat="48.39075" lon="-4.48561">
        <ele>51.8</ele>
        <time>2020-06-08T17:23:41Z</time>
      </trkpt>
      <trkpt lat="48.39077" lon="-4.48558">
        <ele>52.2</ele>
        <time>2020-06-08T17:23:42Z</time>
      </trkpt>
      <trkpt lat="48.39078" lon="-4.48556">
        <ele>52.2</ele>
        <time>2020-06-08T17:23:43Z</time>
      </trkpt>
      <trkpt lat="48.39079" lon="-4.48553">
        <ele>52.4</ele>
        <time>2020-06-08T17:23:44Z</time>
      </trkpt>
      <trkpt lat="48.39081" lon="-4.48549">
        <ele>52.8</ele>
        <time>2020-06-08T17:23:45Z</time>
      </trkpt>
      <trkpt lat="48.39082" lon="-4.48544">
        <ele>53</ele>
        <time>2020-06-08T17:23:46Z</time>
      </trkpt>
      <trkpt lat="48.39083" lon="-4.48542">
        <ele>53.3</ele>
        <time>2020-06-08T17:23:47Z</time>
      </trkpt>
      <trkpt lat="48.39083" lon="-4.48538">
        <ele>53.7</ele>
        <time>2020-06-08T17:23:48Z</time>
      </trkpt>
      <trkpt lat="48.39084" lon="-4.48533">
        <ele>54</ele>
        <time>2020-06-08T17:23:49Z</time>
      </trkpt>
      <trkpt lat="48.39084" lon="-4.4853">
        <ele>54</ele>
        <time>2020-06-08T17:23:50Z</time>
      </trkpt>
      <trkpt lat="48.39085" lon="-4.48525">
        <ele>54.7</ele>
        <time>2020-06-08T17:23:51Z</time>
      </trkpt>
      <trkpt lat="48.39086" lon="-4.48524">
        <ele>54.6</ele>
        <time>2020-06-08T17:23:52Z</time>
      </trkpt>
      <trkpt lat="48.39087" lon="-4.48519">
        <ele>55</ele>
        <time>2020-06-08T17:23:53Z</time>
      </trkpt>
      <trkpt lat="48.39087" lon="-4.48518">
        <ele>55</ele>
        <time>2020-06-08T17:23:54Z</time>
      </trkpt>
      <trkpt lat="48.39089" lon="-4.48513">
        <ele>55.3</ele>
        <time>2020-06-08T17:23:55Z</time>
      </trkpt>
      <trkpt lat="48.39089" lon="-4.48512">
        <ele>55.7</ele>
        <time>2020-06-08T17:23:56Z</time>
      </trkpt>
      <trkpt lat="48.3909" lon="-4.48507">
        <ele>55.9</ele>
        <time>2020-06-08T17:23:57Z</time>
      </trkpt>
      <trkpt lat="48.3909" lon="-4.48506">
        <ele>55.9</ele>
        <time>2020-06-08T17:23:58Z</time>
      </trkpt>
      <trkpt lat="48.39091" lon="-4.48505">
        <ele>55.9</ele>
        <time>2020-06-08T17:23:59Z</time>
      </trkpt>
      <trkpt lat="48.39092" lon="-4.48503">
        <ele>56.2</ele>
        <time>2020-06-08T17:24:00Z</time>
      </trkpt>
      <trkpt lat="48.39092" lon="-4.48502">
        <ele>56.2</ele>
        <time>2020-06-08T17:24:01Z</time>
      </trkpt>
      <trkpt lat="48.39091" lon="-4.485">
        <ele>56.1</ele>
        <time>2020-06-08T17:24:02Z</time>
      </trkpt>
      <trkpt lat="48.39091" lon="-4.48502">
        <ele>56.1</ele>
        <time>2020-06-08T17:24:03Z</time>
      </trkpt>
      <trkpt lat="48.39091" lon="-4.48501">
        <ele>56.1</ele>
        <time>2020-06-08T17:24:04Z</time>
      </trkpt>
      <trkpt lat="48.39091" lon="-4.48501">
        <ele>56.1</ele>
        <time>2020-06-08T17:24:05Z</time>
      </trkpt>
      <trkpt lat="48.39091" lon="-4.48501">
        <ele>56.1</ele>
        <time>2020-06-08T17:24:06Z</time>
      </trkpt>
      <trkpt lat="48.39091" lon="-4.48501">
        <ele>56.1</ele>
        <time>2020-06-08T17:24:07Z</time>
      </trkpt>
      <trkpt lat="48.39091" lon="-4.485">
        <ele>56.1</ele>
        <time>2020-06-08T17:24:08Z</time>
      </trkpt>
      <trkpt lat="48.39089" lon="-4.48499">
        <ele>56.3</ele>
        <time>2020-06-08T17:24:09Z</time>
      </trkpt>
      <trkpt lat="48.39089" lon="-4.48496">
        <ele>56.3</ele>
        <time>2020-06-08T17:24:10Z</time>
      </trkpt>
      <trkpt lat="48.39088" lon="-4.48494">
        <ele>56.5</ele>
        <time>2020-06-08T17:24:11Z</time>
      </trkpt>
      <trkpt lat="48.39088" lon="-4.48492">
        <ele>56.5</ele>
        <time>2020-06-08T17:24:12Z</time>
      </trkpt>
      <trkpt lat="48.39087" lon="-4.48489">
        <ele>56.6</ele>
        <time>2020-06-08T17:24:13Z</time>
      </trkpt>
      <trkpt lat="48.39086" lon="-4.48486">
        <ele>56.8</ele>
        <time>2020-06-08T17:24:14Z</time>
      </trkpt>
      <trkpt lat="48.39085" lon="-4.48485">
        <ele>56.7</ele>
        <time>2020-06-08T17:24:15Z</time>
      </trkpt>
      <trkpt lat="48.39084" lon="-4.48484">
        <ele>56.7</ele>
        <time>2020-06-08T17:24:16Z</time>
      </trkpt>
      <trkpt lat="48.39083" lon="-4.48484">
        <ele>56.7</ele>
        <time>2020-06-08T17:24:17Z</time>
      </trkpt>
      <trkpt lat="48.39082" lon="-4.48484">
        <ele>56.7</ele>
        <time>2020-06-08T17:24:18Z</time>
      </trkpt>
      <trkpt lat="48.3908" lon="-4.48481">
        <ele>56.7</ele>
        <time>2020-06-08T17:24:19Z</time>
      </trkpt>
      <trkpt lat="48.39079" lon="-4.4848">
        <ele>56.7</ele>
        <time>2020-06-08T17:24:20Z</time>
      </trkpt>
      <trkpt lat="48.39076" lon="-4.48479">
        <ele>56.7</ele>
        <time>2020-06-08T17:24:21Z</time>
      </trkpt>
      <trkpt lat="48.39075" lon="-4.48479">
        <ele>56.7</ele>
        <time>2020-06-08T17:24:22Z</time>
      </trkpt>
      <trkpt lat="48.39074" lon="-4.48481">
        <ele>56.6</ele>
        <time>2020-06-08T17:24:23Z</time>
      </trkpt>
      <trkpt lat="48.39072" lon="-4.48481">
        <ele>56.6</ele>
        <time>2020-06-08T17:24:24Z</time>
      </trkpt>
      <trkpt lat="48.39069" lon="-4.48479">
        <ele>56.5</ele>
        <time>2020-06-08T17:24:25Z</time>
      </trkpt>
      <trkpt lat="48.39069" lon="-4.48478">
        <ele>56.6</ele>
        <time>2020-06-08T17:24:26Z</time>
      </trkpt>
      <trkpt lat="48.39068" lon="-4.48475">
        <ele>56.6</ele>
        <time>2020-06-08T17:24:27Z</time>
      </trkpt>
      <trkpt lat="48.39069" lon="-4.48473">
        <ele>56.7</ele>
        <time>2020-06-08T17:24:28Z</time>
      </trkpt>
      <trkpt lat="48.39069" lon="-4.48472">
        <ele>56.7</ele>
        <time>2020-06-08T17:24:29Z</time>
      </trkpt>
      <trkpt lat="48.39069" lon="-4.48472">
        <ele>56.7</ele>
        <time>2020-06-08T17:24:30Z</time>
      </trkpt>
      <trkpt lat="48.39069" lon="-4.48472">
        <ele>56.7</ele>
        <time>2020-06-08T17:24:31Z</time>
      </trkpt>
      <trkpt lat="48.39071" lon="-4.48473">
        <ele>56.7</ele>
        <time>2020-06-08T17:24:32Z</time>
      </trkpt>
      <trkpt lat="48.39071" lon="-4.48473">
        <ele>56.7</ele>
        <time>2020-06-08T17:24:33Z</time>
      </trkpt>
      <trkpt lat="48.39072" lon="-4.48473">
        <ele>56.7</ele>
        <time>2020-06-08T17:24:34Z</time>
      </trkpt>
      <trkpt lat="48.39071" lon="-4.48473">
        <ele>56.7</ele>
        <time>2020-06-08T17:24:35Z</time>
      </trkpt>
      <trkpt lat="48.39071" lon="-4.48473">
        <ele>56.7</ele>
        <time>2020-06-08T17:24:36Z</time>
      </trkpt>
      <trkpt lat="48.39071" lon="-4.48472">
        <ele>56.7</ele>
        <time>2020-06-08T17:24:37Z</time>
      </trkpt>
      <trkpt lat="48.3907" lon="-4.48472">
        <ele>56.7</ele>
        <time>2020-06-08T17:24:38Z</time>
      </trkpt>
      <trkpt lat="48.3907" lon="-4.48472">
        <ele>56.7</ele>
        <time>2020-06-08T17:24:39Z</time>
      </trkpt>
      <trkpt lat="48.3907" lon="-4.48472">
        <ele>56.7</ele>
        <time>2020-06-08T17:24:40Z</time>
      </trkpt>
      <trkpt lat="48.3907" lon="-4.48472">
        <ele>56.7</ele>
        <time>2020-06-08T17:24:41Z</time>
      </trkpt>
      <trkpt lat="48.39069" lon="-4.48472">
        <ele>56.7</ele>
        <time>2020-06-08T17:24:42Z</time>
      </trkpt>
      <trkpt lat="48.39069" lon="-4.48472">
        <ele>56.7</ele>
        <time>2020-06-08T17:24:43Z</time>
      </trkpt>
      <trkpt lat="48.39069" lon="-4.48472">
        <ele>56.6</ele>
        <time>2020-06-08T17:24:44Z</time>
      </trkpt>
      <trkpt lat="48.39068" lon="-4.48471">
        <ele>56.6</ele>
        <time>2020-06-08T17:24:45Z</time>
      </trkpt>
      <trkpt lat="48.39068" lon="-4.48471">
        <ele>56.6</ele>
        <time>2020-06-08T17:24:46Z</time>
      </trkpt>
      <trkpt lat="48.39068" lon="-4.48471">
        <ele>56.6</ele>
        <time>2020-06-08T17:24:47Z</time>
      </trkpt>
      <trkpt lat="48.39067" lon="-4.48471">
        <ele>56.6</ele>
        <time>2020-06-08T17:24:48Z</time>
      </trkpt>
      <trkpt lat="48.39067" lon="-4.48472">
        <ele>56.6</ele>
        <time>2020-06-08T17:24:49Z</time>
      </trkpt>
      <trkpt lat="48.39069" lon="-4.48473">
        <ele>56.6</ele>
        <time>2020-06-08T17:24:50Z</time>
      </trkpt>
      <trkpt lat="48.39069" lon="-4.48473">
        <ele>56.6</ele>
        <time>2020-06-08T17:24:51Z</time>
      </trkpt>
      <trkpt lat="48.39069" lon="-4.48473">
        <ele>56.6</ele>
        <time>2020-06-08T17:24:52Z</time>
      </trkpt>
      <trkpt lat="48.39069" lon="-4.48473">
        <ele>56.6</ele>
        <time>2020-06-08T17:24:53Z</time>
      </trkpt>
      <trkpt lat="48.39069" lon="-4.48472">
        <ele>56.6</ele>
        <time>2020-06-08T17:24:54Z</time>
      </trkpt>
      <trkpt lat="48.3895" lon="-4.48512">
        <ele>51.2</ele>
        <time>2020-06-08T17:29:41Z</time>
      </trkpt>
      <trkpt lat="48.38956" lon="-4.48516">
        <ele>50.9</ele>
        <time>2020-06-08T17:29:42Z</time>
      </trkpt>
      <trkpt lat="48.38964" lon="-4.48512">
        <ele>51.2</ele>
        <time>2020-06-08T17:29:43Z</time>
      </trkpt>
      <trkpt lat="48.38969" lon="-4.4851">
        <ele>51.2</ele>
        <time>2020-06-08T17:29:44Z</time>
      </trkpt>
      <trkpt lat="48.38969" lon="-4.48509">
        <ele>51.2</ele>
        <time>2020-06-08T17:29:45Z</time>
      </trkpt>
      <trkpt lat="48.3897" lon="-4.48509">
        <ele>51.2</ele>
        <time>2020-06-08T17:29:46Z</time>
      </trkpt>
      <trkpt lat="48.38971" lon="-4.48508">
        <ele>51.2</ele>
        <time>2020-06-08T17:29:47Z</time>
      </trkpt>
      <trkpt lat="48.38972" lon="-4.48508">
        <ele>51.5</ele>
        <time>2020-06-08T17:29:48Z</time>
      </trkpt>
      <trkpt lat="48.38973" lon="-4.48507">
        <ele>51.5</ele>
        <time>2020-06-08T17:29:49Z</time>
      </trkpt>
      <trkpt lat="48.38974" lon="-4.48507">
        <ele>51.5</ele>
        <time>2020-06-08T17:29:50Z</time>
      </trkpt>
      <trkpt lat="48.38975" lon="-4.48506">
        <ele>51.5</ele>
        <time>2020-06-08T17:29:51Z</time>
      </trkpt>
      <trkpt lat="48.38976" lon="-4.48506">
        <ele>51.5</ele>
        <time>2020-06-08T17:29:52Z</time>
      </trkpt>
      <trkpt lat="48.38976" lon="-4.48505">
        <ele>51.5</ele>
        <time>2020-06-08T17:29:53Z</time>
      </trkpt>
      <trkpt lat="48.38979" lon="-4.48507">
        <ele>51.6</ele>
        <time>2020-06-08T17:29:54Z</time>
      </trkpt>
      <trkpt lat="48.38981" lon="-4.48507">
        <ele>51.6</ele>
        <time>2020-06-08T17:29:55Z</time>
      </trkpt>
      <trkpt lat="48.38983" lon="-4.48507">
        <ele>51.6</ele>
        <time>2020-06-08T17:29:56Z</time>
      </trkpt>
      <trkpt lat="48.38985" lon="-4.4851">
        <ele>51.4</ele>
        <time>2020-06-08T17:29:57Z</time>
      </trkpt>
      <trkpt lat="48.38988" lon="-4.48511">
        <ele>51.5</ele>
        <time>2020-06-08T17:29:58Z</time>
      </trkpt>
      <trkpt lat="48.3899" lon="-4.48512">
        <ele>51.6</ele>
        <time>2020-06-08T17:29:59Z</time>
      </trkpt>
      <trkpt lat="48.38993" lon="-4.48514">
        <ele>51.4</ele>
        <time>2020-06-08T17:30:00Z</time>
      </trkpt>
      <trkpt lat="48.39083" lon="-4.48464">
        <ele>56.8</ele>
        <time>2020-06-08T17:37:11Z</time>
      </trkpt>
      <trkpt lat="48.39083" lon="-4.48463">
        <ele>56.8</ele>
        <time>2020-06-08T17:37:12Z</time>
      </trkpt>
      <trkpt lat="48.39084" lon="-4.48462">
        <ele>56.8</ele>
        <time>2020-06-08T17:37:13Z</time>
      </trkpt>
      <trkpt lat="48.39083" lon="-4.48462">
        <ele>56.8</ele>
        <time>2020-06-08T17:37:14Z</time>
      </trkpt>
      <trkpt lat="48.39084" lon="-4.48462">
        <ele>56.8</ele>
        <time>2020-06-08T17:37:15Z</time>
      </trkpt>
      <trkpt lat="48.39084" lon="-4.48461">
        <ele>56.8</ele>
        <time>2020-06-08T17:37:16Z</time>
      </trkpt>
      <trkpt lat="48.39084" lon="-4.48461">
        <ele>56.8</ele>
        <time>2020-06-08T17:37:17Z</time>
      </trkpt>
      <trkpt lat="48.39084" lon="-4.48461">
        <ele>56.8</ele>
        <time>2020-06-08T17:37:18Z</time>
      </trkpt>
      <trkpt lat="48.39084" lon="-4.48461">
        <ele>56.8</ele>
        <time>2020-06-08T17:37:19Z</time>
      </trkpt>
      <trkpt lat="48.39084" lon="-4.48461">
        <ele>56.8</ele>
        <time>2020-06-08T17:37:20Z</time>
      </trkpt>
      <trkpt lat="48.39084" lon="-4.48461">
        <ele>56.8</ele>
        <time>2020-06-08T17:37:21Z</time>
      </trkpt>
      <trkpt lat="48.39084" lon="-4.48461">
        <ele>56.8</ele>
        <time>2020-06-08T17:37:22Z</time>
      </trkpt>
      <trkpt lat="48.39084" lon="-4.48461">
        <ele>56.8</ele>
        <time>2020-06-08T17:37:23Z</time>
      </trkpt>
      <trkpt lat="48.39084" lon="-4.48461">
        <ele>56.8</ele>
        <time>2020-06-08T17:37:24Z</time>
      </trkpt>
      <trkpt lat="48.39084" lon="-4.48461">
        <ele>56.8</ele>
        <time>2020-06-08T17:37:25Z</time>
      </trkpt>
      <trkpt lat="48.39084" lon="-4.48461">
        <ele>56.8</ele>
        <time>2020-06-08T17:37:26Z</time>
      </trkpt>
      <trkpt lat="48.39084" lon="-4.48461">
        <ele>56.8</ele>
        <time>2020-06-08T17:37:27Z</time>
      </trkpt>
      <trkpt lat="48.39077" lon="-4.48483">
        <ele>56.3</ele>
        <time>2020-06-08T17:41:40Z</time>
      </trkpt>
      <trkpt lat="48.39076" lon="-4.48484">
        <ele>56.3</ele>
        <time>2020-06-08T17:41:41Z</time>
      </trkpt>
      <trkpt lat="48.39076" lon="-4.48485">
        <ele>56.3</ele>
        <time>2020-06-08T17:41:42Z</time>
      </trkpt>
      <trkpt lat="48.39075" lon="-4.48487">
        <ele>56.2</ele>
        <time>2020-06-08T17:41:43Z</time>
      </trkpt>
      <trkpt lat="48.39075" lon="-4.48487">
        <ele>56.1</ele>
        <time>2020-06-08T17:41:44Z</time>
      </trkpt>
      <trkpt lat="48.39074" lon="-4.48489">
        <ele>56</ele>
        <time>2020-06-08T17:41:45Z</time>
      </trkpt>
      <trkpt lat="48.39074" lon="-4.4849">
        <ele>56</ele>
        <time>2020-06-08T17:41:46Z</time>
      </trkpt>
      <trkpt lat="48.39073" lon="-4.48492">
        <ele>55.8</ele>
        <time>2020-06-08T17:41:47Z</time>
      </trkpt>
      <trkpt lat="48.39073" lon="-4.48493">
        <ele>55.8</ele>
        <time>2020-06-08T17:41:48Z</time>
      </trkpt>
      <trkpt lat="48.39071" lon="-4.48496">
        <ele>55.5</ele>
        <time>2020-06-08T17:41:49Z</time>
      </trkpt>
      <trkpt lat="48.39071" lon="-4.48498">
        <ele>55.5</ele>
        <time>2020-06-08T17:41:50Z</time>
      </trkpt>
      <trkpt lat="48.39071" lon="-4.48499">
        <ele>55.5</ele>
        <time>2020-06-08T17:41:51Z</time>
      </trkpt>
      <trkpt lat="48.39071" lon="-4.48498">
        <ele>55.5</ele>
        <time>2020-06-08T17:41:52Z</time>
      </trkpt>
      <trkpt lat="48.39071" lon="-4.48497">
        <ele>55.5</ele>
        <time>2020-06-08T17:41:53Z</time>
      </trkpt>
      <trkpt lat="48.39071" lon="-4.48496">
        <ele>55.5</ele>
        <time>2020-06-08T17:41:54Z</time>
      </trkpt>
      <trkpt lat="48.39071" lon="-4.48495">
        <ele>55.7</ele>
        <time>2020-06-08T17:41:55Z</time>
      </trkpt>
      <trkpt lat="48.39071" lon="-4.48494">
        <ele>55.7</ele>
        <time>2020-06-08T17:41:56Z</time>
      </trkpt>
      <trkpt lat="48.39071" lon="-4.48493">
        <ele>55.7</ele>
        <time>2020-06-08T17:41:57Z</time>
      </trkpt>
      <trkpt lat="48.39071" lon="-4.48492">
        <ele>55.7</ele>
        <time>2020-06-08T17:41:58Z</time>
      </trkpt>
      <trkpt lat="48.39071" lon="-4.48491">
        <ele>55.9</ele>
        <time>2020-06-08T17:41:59Z</time>
      </trkpt>
      <trkpt lat="48.39072" lon="-4.48488">
        <ele>56</ele>
        <time>2020-06-08T17:42:00Z</time>
      </trkpt>
      <trkpt lat="48.39073" lon="-4.48487">
        <ele>56.1</ele>
        <time>2020-06-08T17:42:01Z</time>
      </trkpt>
      <trkpt lat="48.39073" lon="-4.48485">
        <ele>56.1</ele>
        <time>2020-06-08T17:42:02Z</time>
      </trkpt>
      <trkpt lat="48.39074" lon="-4.48484">
        <ele>56.1</ele>
        <time>2020-06-08T17:42:03Z</time>
      </trkpt>
      <trkpt lat="48.39076" lon="-4.48481">
        <ele>56.3</ele>
        <time>2020-06-08T17:42:04Z</time>
      </trkpt>
      <trkpt lat="48.39078" lon="-4.48478">
        <ele>56.5</ele>
        <time>2020-06-08T17:42:05Z</time>
      </trkpt>
      <trkpt lat="48.39078" lon="-4.48476">
        <ele>56.5</ele>
        <time>2020-06-08T17:42:06Z</time>
      </trkpt>
      <trkpt lat="48.39079" lon="-4.48475">
        <ele>56.5</ele>
        <time>2020-06-08T17:42:07Z</time>
      </trkpt>
      <trkpt lat="48.39079" lon="-4.48473">
        <ele>56.5</ele>
        <time>2020-06-08T17:42:08Z</time>
      </trkpt>
      <trkpt lat="48.39078" lon="-4.48471">
        <ele>56.5</ele>
        <time>2020-06-08T17:42:09Z</time>
      </trkpt>
      <trkpt lat="48.39078" lon="-4.48468">
        <ele>56.6</ele>
        <time>2020-06-08T17:42:10Z</time>
      </trkpt>
      <trkpt lat="48.39078" lon="-4.48468">
        <ele>56.6</ele>
        <time>2020-06-08T17:42:11Z</time>
      </trkpt>
      <trkpt lat="48.39078" lon="-4.48468">
        <ele>56.6</ele>
        <time>2020-06-08T17:42:12Z</time>
      </trkpt>
      <trkpt lat="48.39079" lon="-4.48464">
        <ele>56.6</ele>
        <time>2020-06-08T17:42:13Z</time>
      </trkpt>
      <trkpt lat="48.39079" lon="-4.48464">
        <ele>56.6</ele>
        <time>2020-06-08T17:42:14Z</time>
      </trkpt>
      <trkpt lat="48.3908" lon="-4.48463">
        <ele>56.6</ele>
        <time>2020-06-08T17:42:15Z</time>
      </trkpt>
      <trkpt lat="48.3908" lon="-4.48462">
        <ele>56.6</ele>
        <time>2020-06-08T17:42:16Z</time>
      </trkpt>
      <trkpt lat="48.3908" lon="-4.48462">
        <ele>56.6</ele>
        <time>2020-06-08T17:42:17Z</time>
      </trkpt>
      <trkpt lat="48.3908" lon="-4.48462">
        <ele>56.5</ele>
        <time>2020-06-08T17:42:18Z</time>
      </trkpt>
      <trkpt lat="48.39077" lon="-4.48463">
        <ele>56.5</ele>
        <time>2020-06-08T17:47:02Z</time>
      </trkpt>
      <trkpt lat="48.39077" lon="-4.48462">
        <ele>56.5</ele>
        <time>2020-06-08T17:47:03Z</time>
      </trkpt>
      <trkpt lat="48.39077" lon="-4.48461">
        <ele>56.5</ele>
        <time>2020-06-08T17:47:04Z</time>
      </trkpt>
      <trkpt lat="48.39076" lon="-4.4846">
        <ele>56.5</ele>
        <time>2020-06-08T17:47:05Z</time>
      </trkpt>
      <trkpt lat="48.39076" lon="-4.4846">
        <ele>56.5</ele>
        <time>2020-06-08T17:47:06Z</time>
      </trkpt>
      <trkpt lat="48.39076" lon="-4.48461">
        <ele>56.5</ele>
        <time>2020-06-08T17:47:07Z</time>
      </trkpt>
      <trkpt lat="48.39077" lon="-4.48463">
        <ele>56.5</ele>
        <time>2020-06-08T17:47:08Z</time>
      </trkpt>
      <trkpt lat="48.39077" lon="-4.48464">
        <ele>56.5</ele>
        <time>2020-06-08T17:47:09Z</time>
      </trkpt>
      <trkpt lat="48.39077" lon="-4.48466">
        <ele>56.5</ele>
        <time>2020-06-08T17:47:10Z</time>
      </trkpt>
      <trkpt lat="48.39077" lon="-4.48466">
        <ele>56.5</ele>
        <time>2020-06-08T17:47:11Z</time>
      </trkpt>
      <trkpt lat="48.39077" lon="-4.48467">
        <ele>56.5</ele>
        <time>2020-06-08T17:47:12Z</time>
      </trkpt>
      <trkpt lat="48.39077" lon="-4.48467">
        <ele>56.5</ele>
        <time>2020-06-08T17:47:13Z</time>
      </trkpt>
      <trkpt lat="48.39077" lon="-4.48467">
        <ele>56.4</ele>
        <time>2020-06-08T17:47:14Z</time>
      </trkpt>
      <trkpt lat="48.39077" lon="-4.48467">
        <ele>56.4</ele>
        <time>2020-06-08T17:47:15Z</time>
      </trkpt>
      <trkpt lat="48.39077" lon="-4.48468">
        <ele>56.4</ele>
        <time>2020-06-08T17:47:16Z</time>
      </trkpt>
      <trkpt lat="48.39077" lon="-4.48468">
        <ele>56.4</ele>
        <time>2020-06-08T17:47:17Z</time>
      </trkpt>
      <trkpt lat="48.39077" lon="-4.48468">
        <ele>56.4</ele>
        <time>2020-06-08T17:47:18Z</time>
      </trkpt>
      <trkpt lat="48.39076" lon="-4.48467">
        <ele>56.4</ele>
        <time>2020-06-08T17:47:19Z</time>
      </trkpt>
      <trkpt lat="48.39076" lon="-4.48465">
        <ele>56.4</ele>
        <time>2020-06-08T17:47:20Z</time>
      </trkpt>
      <trkpt lat="48.39076" lon="-4.48464">
        <ele>56.4</ele>
        <time>2020-06-08T17:47:21Z</time>
      </trkpt>
      <trkpt lat="48.39075" lon="-4.48463">
        <ele>56.4</ele>
        <time>2020-06-08T17:47:22Z</time>
      </trkpt>
      <trkpt lat="48.39075" lon="-4.48465">
        <ele>56.4</ele>
        <time>2020-06-08T17:47:23Z</time>
      </trkpt>
      <trkpt lat="48.39075" lon="-4.48465">
        <ele>56.4</ele>
        <time>2020-06-08T17:47:24Z</time>
      </trkpt>
      <trkpt lat="48.39075" lon="-4.48464">
        <ele>56.4</ele>
        <time>2020-06-08T17:47:25Z</time>
      </trkpt>
      <trkpt lat="48.39075" lon="-4.48465">
        <ele>56.4</ele>
        <time>2020-06-08T17:47:26Z</time>
      </trkpt>
      <trkpt lat="48.39076" lon="-4.48465">
        <ele>56.4</ele>
        <time>2020-06-08T17:47:27Z</time>
      </trkpt>
      <trkpt lat="48.39076" lon="-4.48465">
        <ele>56.4</ele>
        <time>2020-06-08T17:47:28Z</time>
      </trkpt>
      <trkpt lat="48.39076" lon="-4.48466">
        <ele>56.4</ele>
        <time>2020-06-08T17:47:29Z</time>
      </trkpt>
      <trkpt lat="48.39076" lon="-4.48465">
        <ele>56.4</ele>
        <time>2020-06-08T17:47:30Z</time>
      </trkpt>
      <trkpt lat="48.39076" lon="-4.48465">
        <ele>56.4</ele>
        <time>2020-06-08T17:47:31Z</time>
      </trkpt>
      <trkpt lat="48.39077" lon="-4.48465">
        <ele>56.4</ele>
        <time>2020-06-08T17:47:32Z</time>
      </trkpt>
      <trkpt lat="48.39077" lon="-4.48464">
        <ele>56.4</ele>
        <time>2020-06-08T17:47:33Z</time>
      </trkpt>
      <trkpt lat="48.39078" lon="-4.48463">
        <ele>56.4</ele>
        <time>2020-06-08T17:47:34Z</time>
      </trkpt>
      <trkpt lat="48.39078" lon="-4.48463">
        <ele>56.4</ele>
        <time>2020-06-08T17:47:35Z</time>
      </trkpt>
      <trkpt lat="48.39078" lon="-4.48463">
        <ele>56.4</ele>
        <time>2020-06-08T17:47:36Z</time>
      </trkpt>
      <trkpt lat="48.39078" lon="-4.48463">
        <ele>56.4</ele>
        <time>2020-06-08T17:47:37Z</time>
      </trkpt>
      <trkpt lat="48.39079" lon="-4.48462">
        <ele>56.4</ele>
        <time>2020-06-08T17:47:38Z</time>
      </trkpt>
      <trkpt lat="48.3908" lon="-4.4846">
        <ele>56.4</ele>
        <time>2020-06-08T17:47:39Z</time>
      </trkpt>
      <trkpt lat="48.39081" lon="-4.48459">
        <ele>56.4</ele>
        <time>2020-06-08T17:47:40Z</time>
      </trkpt>
      <trkpt lat="48.39083" lon="-4.48457">
        <ele>56.4</ele>
        <time>2020-06-08T17:47:41Z</time>
      </trkpt>
      <trkpt lat="48.39084" lon="-4.48456">
        <ele>56.4</ele>
        <time>2020-06-08T17:47:42Z</time>
      </trkpt>
      <trkpt lat="48.39085" lon="-4.48455">
        <ele>56.4</ele>
        <time>2020-06-08T17:47:43Z</time>
      </trkpt>
      <trkpt lat="48.39086" lon="-4.48456">
        <ele>56.5</ele>
        <time>2020-06-08T17:47:44Z</time>
      </trkpt>
      <trkpt lat="48.39087" lon="-4.48456">
        <ele>56.5</ele>
        <time>2020-06-08T17:47:45Z</time>
      </trkpt>
      <trkpt lat="48.39087" lon="-4.48457">
        <ele>56.5</ele>
        <time>2020-06-08T17:47:46Z</time>
      </trkpt>
      <trkpt lat="48.39087" lon="-4.48457">
        <ele>56.5</ele>
        <time>2020-06-08T17:47:47Z</time>
      </trkpt>
      <trkpt lat="48.39086" lon="-4.48458">
        <ele>56.5</ele>
        <time>2020-06-08T17:47:48Z</time>
      </trkpt>
      <trkpt lat="48.39086" lon="-4.48459">
        <ele>56.5</ele>
        <time>2020-06-08T17:47:49Z</time>
      </trkpt>
      <trkpt lat="48.39088" lon="-4.48459">
        <ele>56.5</ele>
        <time>2020-06-08T17:47:50Z</time>
      </trkpt>
      <trkpt lat="48.39088" lon="-4.48459">
        <ele>56.5</ele>
        <time>2020-06-08T17:47:51Z</time>
      </trkpt>
      <trkpt lat="48.39088" lon="-4.4846">
        <ele>56.5</ele>
        <time>2020-06-08T17:47:52Z</time>
      </trkpt>
      <trkpt lat="48.39089" lon="-4.4846">
        <ele>56.5</ele>
        <time>2020-06-08T17:47:53Z</time>
      </trkpt>
      <trkpt lat="48.39089" lon="-4.4846">
        <ele>56.5</ele>
        <time>2020-06-08T17:47:54Z</time>
      </trkpt>
      <trkpt lat="48.39089" lon="-4.4846">
        <ele>56.5</ele>
        <time>2020-06-08T17:47:55Z</time>
      </trkpt>
      <trkpt lat="48.39088" lon="-4.4846">
        <ele>56.4</ele>
        <time>2020-06-08T17:47:56Z</time>
      </trkpt>
      <trkpt lat="48.39089" lon="-4.48459">
        <ele>56.5</ele>
        <time>2020-06-08T17:47:57Z</time>
      </trkpt>
      <trkpt lat="48.39089" lon="-4.48459">
        <ele>56.4</ele>
        <time>2020-06-08T17:47:58Z</time>
      </trkpt>
      <trkpt lat="48.39089" lon="-4.48459">
        <ele>56.4</ele>
        <time>2020-06-08T17:47:59Z</time>
      </trkpt>
      <trkpt lat="48.39089" lon="-4.48459">
        <ele>56.4</ele>
        <time>2020-06-08T17:48:00Z</time>
      </trkpt>
      <trkpt lat="48.39089" lon="-4.48458">
        <ele>56.4</ele>
        <time>2020-06-08T17:48:01Z</time>
      </trkpt>
      <trkpt lat="48.39089" lon="-4.48458">
        <ele>56.4</ele>
        <time>2020-06-08T17:48:02Z</time>
      </trkpt>
      <trkpt lat="48.39089" lon="-4.48458">
        <ele>56.4</ele>
        <time>2020-06-08T17:48:03Z</time>
      </trkpt>
      <trkpt lat="48.3909" lon="-4.48458">
        <ele>56.4</ele>
        <time>2020-06-08T17:48:04Z</time>
      </trkpt>
      <trkpt lat="48.39091" lon="-4.48458">
        <ele>56.4</ele>
        <time>2020-06-08T17:48:05Z</time>
      </trkpt>
      <trkpt lat="48.3909" lon="-4.48457">
        <ele>56.4</ele>
        <time>2020-06-08T17:48:06Z</time>
      </trkpt>
      <trkpt lat="48.3909" lon="-4.48458">
        <ele>56.4</ele>
        <time>2020-06-08T17:48:07Z</time>
      </trkpt>
      <trkpt lat="48.3909" lon="-4.48458">
        <ele>56.4</ele>
        <time>2020-06-08T17:48:08Z</time>
      </trkpt>
      <trkpt lat="48.3909" lon="-4.48458">
        <ele>56.4</ele>
        <time>2020-06-08T17:48:09Z</time>
      </trkpt>
      <trkpt lat="48.39091" lon="-4.48457">
        <ele>56.4</ele>
        <time>2020-06-08T17:48:10Z</time>
      </trkpt>
      <trkpt lat="48.39091" lon="-4.48457">
        <ele>56.4</ele>
        <time>2020-06-08T17:48:11Z</time>
      </trkpt>
      <trkpt lat="48.39091" lon="-4.48457">
        <ele>56.4</ele>
        <time>2020-06-08T17:48:12Z</time>
      </trkpt>
      <trkpt lat="48.39091" lon="-4.48458">
        <ele>56.4</ele>
        <time>2020-06-08T17:48:13Z</time>
      </trkpt>
      <trkpt lat="48.39091" lon="-4.48459">
        <ele>56.4</ele>
        <time>2020-06-08T17:48:14Z</time>
      </trkpt>
      <trkpt lat="48.39091" lon="-4.48459">
        <ele>56.4</ele>
        <time>2020-06-08T17:48:15Z</time>
      </trkpt>
      <trkpt lat="48.3909" lon="-4.48458">
        <ele>56.4</ele>
        <time>2020-06-08T17:48:16Z</time>
      </trkpt>
      <trkpt lat="48.3909" lon="-4.48458">
        <ele>56.4</ele>
        <time>2020-06-08T17:48:17Z</time>
      </trkpt>
      <trkpt lat="48.3909" lon="-4.48457">
        <ele>56.4</ele>
        <time>2020-06-08T17:48:18Z</time>
      </trkpt>
      <trkpt lat="48.3909" lon="-4.48457">
        <ele>56.3</ele>
        <time>2020-06-08T17:48:19Z</time>
      </trkpt>
      <trkpt lat="48.3909" lon="-4.48456">
        <ele>56.3</ele>
        <time>2020-06-08T17:48:20Z</time>
      </trkpt>
      <trkpt lat="48.39089" lon="-4.48456">
        <ele>56.3</ele>
        <time>2020-06-08T17:48:21Z</time>
      </trkpt>
      <trkpt lat="48.39089" lon="-4.48457">
        <ele>56.3</ele>
        <time>2020-06-08T17:48:22Z</time>
      </trkpt>
      <trkpt lat="48.39089" lon="-4.48457">
        <ele>56.4</ele>
        <time>2020-06-08T17:48:23Z</time>
      </trkpt>
      <trkpt lat="48.39088" lon="-4.48457">
        <ele>56.3</ele>
        <time>2020-06-08T17:48:24Z</time>
      </trkpt>
      <trkpt lat="48.39088" lon="-4.48457">
        <ele>56.3</ele>
        <time>2020-06-08T17:48:25Z</time>
      </trkpt>
      <trkpt lat="48.39087" lon="-4.48457">
        <ele>56.3</ele>
        <time>2020-06-08T17:48:26Z</time>
      </trkpt>
      <trkpt lat="48.39087" lon="-4.48458">
        <ele>56.3</ele>
        <time>2020-06-08T17:48:27Z</time>
      </trkpt>
      <trkpt lat="48.39087" lon="-4.48457">
        <ele>56.3</ele>
        <time>2020-06-08T17:48:28Z</time>
      </trkpt>
      <trkpt lat="48.39088" lon="-4.48456">
        <ele>56.3</ele>
        <time>2020-06-08T17:48:29Z</time>
      </trkpt>
      <trkpt lat="48.39088" lon="-4.48457">
        <ele>56.3</ele>
        <time>2020-06-08T17:48:30Z</time>
      </trkpt>
      <trkpt lat="48.39087" lon="-4.48457">
        <ele>56.3</ele>
        <time>2020-06-08T17:48:31Z</time>
      </trkpt>
      <trkpt lat="48.39086" lon="-4.48458">
        <ele>56.3</ele>
        <time>2020-06-08T17:48:32Z</time>
      </trkpt>
      <trkpt lat="48.39087" lon="-4.48457">
        <ele>56.3</ele>
        <time>2020-06-08T17:48:33Z</time>
      </trkpt>
      <trkpt lat="48.39087" lon="-4.48457">
        <ele>56.3</ele>
        <time>2020-06-08T17:48:34Z</time>
      </trkpt>
      <trkpt lat="48.39086" lon="-4.48457">
        <ele>56.3</ele>
        <time>2020-06-08T17:48:35Z</time>
      </trkpt>
      <trkpt lat="48.39086" lon="-4.48458">
        <ele>56.3</ele>
        <time>2020-06-08T17:48:36Z</time>
      </trkpt>
      <trkpt lat="48.39086" lon="-4.48458">
        <ele>56.3</ele>
        <time>2020-06-08T17:48:37Z</time>
      </trkpt>
      <trkpt lat="48.39085" lon="-4.48459">
        <ele>56.3</ele>
        <time>2020-06-08T17:48:38Z</time>
      </trkpt>
      <trkpt lat="48.39085" lon="-4.48459">
        <ele>56.3</ele>
        <time>2020-06-08T17:48:39Z</time>
      </trkpt>
      <trkpt lat="48.39085" lon="-4.4846">
        <ele>56.3</ele>
        <time>2020-06-08T17:48:40Z</time>
      </trkpt>
      <trkpt lat="48.39084" lon="-4.48461">
        <ele>56.2</ele>
        <time>2020-06-08T17:48:41Z</time>
      </trkpt>
      <trkpt lat="48.39084" lon="-4.48462">
        <ele>56.2</ele>
        <time>2020-06-08T17:48:42Z</time>
      </trkpt>
      <trkpt lat="48.39083" lon="-4.48462">
        <ele>56.2</ele>
        <time>2020-06-08T17:48:43Z</time>
      </trkpt>
      <trkpt lat="48.39083" lon="-4.48463">
        <ele>56.2</ele>
        <time>2020-06-08T17:48:44Z</time>
      </trkpt>
      <trkpt lat="48.39083" lon="-4.48464">
        <ele>56.2</ele>
        <time>2020-06-08T17:48:45Z</time>
      </trkpt>
      <trkpt lat="48.39083" lon="-4.48464">
        <ele>56.2</ele>
        <time>2020-06-08T17:48:46Z</time>
      </trkpt>
      <trkpt lat="48.39083" lon="-4.48464">
        <ele>56.2</ele>
        <time>2020-06-08T17:48:47Z</time>
      </trkpt>
      <trkpt lat="48.39083" lon="-4.48465">
        <ele>56.2</ele>
        <time>2020-06-08T17:48:48Z</time>
      </trkpt>
      <trkpt lat="48.39083" lon="-4.48465">
        <ele>56.2</ele>
        <time>2020-06-08T17:48:49Z</time>
      </trkpt>
      <trkpt lat="48.39082" lon="-4.4846">
        <ele>56.2</ele>
        <time>2020-06-08T17:49:21Z</time>
      </trkpt>
      <trkpt lat="48.39082" lon="-4.48461">
        <ele>56.2</ele>
        <time>2020-06-08T17:49:22Z</time>
      </trkpt>
      <trkpt lat="48.39082" lon="-4.48462">
        <ele>56.2</ele>
        <time>2020-06-08T17:49:23Z</time>
      </trkpt>
      <trkpt lat="48.39081" lon="-4.48462">
        <ele>56.2</ele>
        <time>2020-06-08T17:49:24Z</time>
      </trkpt>
      <trkpt lat="48.3908" lon="-4.48462">
        <ele>56.1</ele>
        <time>2020-06-08T17:49:25Z</time>
      </trkpt>
      <trkpt lat="48.39079" lon="-4.48462">
        <ele>56.1</ele>
        <time>2020-06-08T17:49:26Z</time>
      </trkpt>
      <trkpt lat="48.39079" lon="-4.48463">
        <ele>56.1</ele>
        <time>2020-06-08T17:49:27Z</time>
      </trkpt>
      <trkpt lat="48.39078" lon="-4.48463">
        <ele>56.1</ele>
        <time>2020-06-08T17:49:28Z</time>
      </trkpt>
      <trkpt lat="48.39078" lon="-4.48463">
        <ele>56.1</ele>
        <time>2020-06-08T17:49:29Z</time>
      </trkpt>
      <trkpt lat="48.39078" lon="-4.48463">
        <ele>56.1</ele>
        <time>2020-06-08T17:49:30Z</time>
      </trkpt>
      <trkpt lat="48.39078" lon="-4.48462">
        <ele>56.1</ele>
        <time>2020-06-08T17:49:31Z</time>
      </trkpt>
      <trkpt lat="48.39074" lon="-4.48474">
        <ele>55.9</ele>
        <time>2020-06-08T17:53:50Z</time>
      </trkpt>
      <trkpt lat="48.39073" lon="-4.48473">
        <ele>55.9</ele>
        <time>2020-06-08T17:53:51Z</time>
      </trkpt>
      <trkpt lat="48.39073" lon="-4.48474">
        <ele>55.9</ele>
        <time>2020-06-08T17:53:52Z</time>
      </trkpt>
      <trkpt lat="48.39073" lon="-4.48476">
        <ele>55.9</ele>
        <time>2020-06-08T17:53:53Z</time>
      </trkpt>
      <trkpt lat="48.39072" lon="-4.48477">
        <ele>55.8</ele>
        <time>2020-06-08T17:53:54Z</time>
      </trkpt>
      <trkpt lat="48.3907" lon="-4.48477">
        <ele>55.8</ele>
        <time>2020-06-08T17:53:55Z</time>
      </trkpt>
      <trkpt lat="48.39069" lon="-4.48476">
        <ele>55.8</ele>
        <time>2020-06-08T17:53:56Z</time>
      </trkpt>
      <trkpt lat="48.39069" lon="-4.48475">
        <ele>55.8</ele>
        <time>2020-06-08T17:53:57Z</time>
      </trkpt>
      <trkpt lat="48.39068" lon="-4.48473">
        <ele>55.8</ele>
        <time>2020-06-08T17:53:58Z</time>
      </trkpt>
      <trkpt lat="48.39068" lon="-4.48472">
        <ele>55.8</ele>
        <time>2020-06-08T17:53:59Z</time>
      </trkpt>
      <trkpt lat="48.39068" lon="-4.48472">
        <ele>55.8</ele>
        <time>2020-06-08T17:54:00Z</time>
      </trkpt>
      <trkpt lat="48.39068" lon="-4.48471">
        <ele>55.8</ele>
        <time>2020-06-08T17:54:01Z</time>
      </trkpt>
      <trkpt lat="48.39068" lon="-4.48471">
        <ele>55.8</ele>
        <time>2020-06-08T17:54:02Z</time>
      </trkpt>
      <trkpt lat="48.39068" lon="-4.48472">
        <ele>55.8</ele>
        <time>2020-06-08T17:54:03Z</time>
      </trkpt>
      <trkpt lat="48.39067" lon="-4.48472">
        <ele>55.8</ele>
        <time>2020-06-08T17:54:04Z</time>
      </trkpt>
      <trkpt lat="48.39068" lon="-4.48473">
        <ele>55.8</ele>
        <time>2020-06-08T17:54:05Z</time>
      </trkpt>
      <trkpt lat="48.39067" lon="-4.48472">
        <ele>55.8</ele>
        <time>2020-06-08T17:54:06Z</time>
      </trkpt>
      <trkpt lat="48.39067" lon="-4.48472">
        <ele>55.8</ele>
        <time>2020-06-08T17:54:07Z</time>
      </trkpt>
      <trkpt lat="48.39067" lon="-4.48471">
        <ele>55.8</ele>
        <time>2020-06-08T17:54:08Z</time>
      </trkpt>
      <trkpt lat="48.39066" lon="-4.4847">
        <ele>55.8</ele>
        <time>2020-06-08T17:54:09Z</time>
      </trkpt>
      <trkpt lat="48.39066" lon="-4.4847">
        <ele>55.8</ele>
        <time>2020-06-08T17:54:10Z</time>
      </trkpt>
      <trkpt lat="48.39066" lon="-4.48469">
        <ele>55.8</ele>
        <time>2020-06-08T17:54:11Z</time>
      </trkpt>
      <trkpt lat="48.39077" lon="-4.48474">
        <ele>55.9</ele>
        <time>2020-06-08T17:56:30Z</time>
      </trkpt>
      <trkpt lat="48.39078" lon="-4.48477">
        <ele>55.9</ele>
        <time>2020-06-08T17:56:31Z</time>
      </trkpt>
      <trkpt lat="48.39079" lon="-4.4848">
        <ele>55.8</ele>
        <time>2020-06-08T17:56:32Z</time>
      </trkpt>
      <trkpt lat="48.3908" lon="-4.48481">
        <ele>55.8</ele>
        <time>2020-06-08T17:56:33Z</time>
      </trkpt>
      <trkpt lat="48.3908" lon="-4.48483">
        <ele>55.7</ele>
        <time>2020-06-08T17:56:34Z</time>
      </trkpt>
      <trkpt lat="48.39081" lon="-4.48486">
        <ele>55.7</ele>
        <time>2020-06-08T17:56:35Z</time>
      </trkpt>
      <trkpt lat="48.39081" lon="-4.4849">
        <ele>55.5</ele>
        <time>2020-06-08T17:56:36Z</time>
      </trkpt>
      <trkpt lat="48.39082" lon="-4.48492">
        <ele>55.4</ele>
        <time>2020-06-08T17:56:37Z</time>
      </trkpt>
      <trkpt lat="48.39083" lon="-4.48495">
        <ele>55.4</ele>
        <time>2020-06-08T17:56:38Z</time>
      </trkpt>
      <trkpt lat="48.39085" lon="-4.48499">
        <ele>55.2</ele>
        <time>2020-06-08T17:56:39Z</time>
      </trkpt>
      <trkpt lat="48.39086" lon="-4.48503">
        <ele>55</ele>
        <time>2020-06-08T17:56:40Z</time>
      </trkpt>
      <trkpt lat="48.39086" lon="-4.48505">
        <ele>54.7</ele>
        <time>2020-06-08T17:56:41Z</time>
      </trkpt>
      <trkpt lat="48.39086" lon="-4.48506">
        <ele>54.7</ele>
        <time>2020-06-08T17:56:42Z</time>
      </trkpt>
      <trkpt lat="48.39086" lon="-4.48508">
        <ele>54.8</ele>
        <time>2020-06-08T17:56:43Z</time>
      </trkpt>
      <trkpt lat="48.39086" lon="-4.48509">
        <ele>54.5</ele>
        <time>2020-06-08T17:56:44Z</time>
      </trkpt>
      <trkpt lat="48.39086" lon="-4.48508">
        <ele>54.4</ele>
        <time>2020-06-08T17:56:45Z</time>
      </trkpt>
      <trkpt lat="48.39085" lon="-4.48508">
        <ele>54.7</ele>
        <time>2020-06-08T17:56:46Z</time>
      </trkpt>
      <trkpt lat="48.39085" lon="-4.48508">
        <ele>54.7</ele>
        <time>2020-06-08T17:56:47Z</time>
      </trkpt>
      <trkpt lat="48.39085" lon="-4.48507">
        <ele>54.7</ele>
        <time>2020-06-08T17:56:48Z</time>
      </trkpt>
      <trkpt lat="48.39085" lon="-4.48507">
        <ele>54.7</ele>
        <time>2020-06-08T17:56:49Z</time>
      </trkpt>
      <trkpt lat="48.39085" lon="-4.48506">
        <ele>54.7</ele>
        <time>2020-06-08T17:56:50Z</time>
      </trkpt>
      <trkpt lat="48.39084" lon="-4.48506">
        <ele>54.7</ele>
        <time>2020-06-08T17:56:51Z</time>
      </trkpt>
      <trkpt lat="48.39084" lon="-4.48505">
        <ele>54.7</ele>
        <time>2020-06-08T17:56:52Z</time>
      </trkpt>
      <trkpt lat="48.39084" lon="-4.48505">
        <ele>54.7</ele>
        <time>2020-06-08T17:56:53Z</time>
      </trkpt>
      <trkpt lat="48.39084" lon="-4.48504">
        <ele>54.7</ele>
        <time>2020-06-08T17:56:54Z</time>
      </trkpt>
      <trkpt lat="48.39084" lon="-4.48504">
        <ele>54.9</ele>
        <time>2020-06-08T17:57:18Z</time>
      </trkpt>
      <trkpt lat="48.39083" lon="-4.48503">
        <ele>54.9</ele>
        <time>2020-06-08T17:57:19Z</time>
      </trkpt>
      <trkpt lat="48.39083" lon="-4.48503">
        <ele>54.9</ele>
        <time>2020-06-08T17:57:20Z</time>
      </trkpt>
      <trkpt lat="48.39085" lon="-4.48499">
        <ele>55.1</ele>
        <time>2020-06-08T17:57:21Z</time>
      </trkpt>
      <trkpt lat="48.39086" lon="-4.48498">
        <ele>55.2</ele>
        <time>2020-06-08T17:57:22Z</time>
      </trkpt>
      <trkpt lat="48.39089" lon="-4.48499">
        <ele>55.3</ele>
        <time>2020-06-08T17:57:23Z</time>
      </trkpt>
      <trkpt lat="48.39092" lon="-4.48501">
        <ele>55.1</ele>
        <time>2020-06-08T17:57:24Z</time>
      </trkpt>
      <trkpt lat="48.39092" lon="-4.48502">
        <ele>55.1</ele>
        <time>2020-06-08T17:57:25Z</time>
      </trkpt>
      <trkpt lat="48.39094" lon="-4.48502">
        <ele>55</ele>
        <time>2020-06-08T17:57:26Z</time>
      </trkpt>
      <trkpt lat="48.39094" lon="-4.48504">
        <ele>55</ele>
        <time>2020-06-08T17:57:27Z</time>
      </trkpt>
      <trkpt lat="48.39093" lon="-4.48506">
        <ele>54.9</ele>
        <time>2020-06-08T17:57:28Z</time>
      </trkpt>
      <trkpt lat="48.39092" lon="-4.48512">
        <ele>54.7</ele>
        <time>2020-06-08T17:57:29Z</time>
      </trkpt>
      <trkpt lat="48.39092" lon="-4.48514">
        <ele>54.7</ele>
        <time>2020-06-08T17:57:30Z</time>
      </trkpt>
      <trkpt lat="48.3909" lon="-4.4852">
        <ele>54.5</ele>
        <time>2020-06-08T17:57:31Z</time>
      </trkpt>
      <trkpt lat="48.3909" lon="-4.48528">
        <ele>54.3</ele>
        <time>2020-06-08T17:57:32Z</time>
      </trkpt>
      <trkpt lat="48.3909" lon="-4.48537">
        <ele>54</ele>
        <time>2020-06-08T17:57:33Z</time>
      </trkpt>
      <trkpt lat="48.39087" lon="-4.48546">
        <ele>53.7</ele>
        <time>2020-06-08T17:57:34Z</time>
      </trkpt>
      <trkpt lat="48.39084" lon="-4.48555">
        <ele>53.6</ele>
        <time>2020-06-08T17:57:35Z</time>
      </trkpt>
      <trkpt lat="48.39078" lon="-4.48563">
        <ele>53.2</ele>
        <time>2020-06-08T17:57:36Z</time>
      </trkpt>
      <trkpt lat="48.39072" lon="-4.4857">
        <ele>52.8</ele>
        <time>2020-06-08T17:57:37Z</time>
      </trkpt>
      <trkpt lat="48.39066" lon="-4.48578">
        <ele>52.4</ele>
        <time>2020-06-08T17:57:38Z</time>
      </trkpt>
      <trkpt lat="48.39061" lon="-4.48585">
        <ele>52.1</ele>
        <time>2020-06-08T17:57:39Z</time>
      </trkpt>
      <trkpt lat="48.39055" lon="-4.48593">
        <ele>51.8</ele>
        <time>2020-06-08T17:57:40Z</time>
      </trkpt>
      <trkpt lat="48.3905" lon="-4.486">
        <ele>51.8</ele>
        <time>2020-06-08T17:57:41Z</time>
      </trkpt>
      <trkpt lat="48.39046" lon="-4.48609">
        <ele>51.8</ele>
        <time>2020-06-08T17:57:42Z</time>
      </trkpt>
      <trkpt lat="48.39042" lon="-4.48617">
        <ele>51.8</ele>
        <time>2020-06-08T17:57:43Z</time>
      </trkpt>
      <trkpt lat="48.39038" lon="-4.48622">
        <ele>51.6</ele>
        <time>2020-06-08T17:57:44Z</time>
      </trkpt>
      <trkpt lat="48.39036" lon="-4.48627">
        <ele>51.5</ele>
        <time>2020-06-08T17:57:45Z</time>
      </trkpt>
      <trkpt lat="48.39033" lon="-4.48631">
        <ele>51.4</ele>
        <time>2020-06-08T17:57:46Z</time>
      </trkpt>
      <trkpt lat="48.3903" lon="-4.48635">
        <ele>51.3</ele>
        <time>2020-06-08T17:57:47Z</time>
      </trkpt>
      <trkpt lat="48.39025" lon="-4.4864">
        <ele>51.2</ele>
        <time>2020-06-08T17:57:48Z</time>
      </trkpt>
      <trkpt lat="48.3902" lon="-4.48643">
        <ele>51</ele>
        <time>2020-06-08T17:57:49Z</time>
      </trkpt>
      <trkpt lat="48.39017" lon="-4.48649">
        <ele>50.9</ele>
        <time>2020-06-08T17:57:50Z</time>
      </trkpt>
      <trkpt lat="48.39015" lon="-4.48653">
        <ele>50.8</ele>
        <time>2020-06-08T17:57:51Z</time>
      </trkpt>
      <trkpt lat="48.39014" lon="-4.48659">
        <ele>50.4</ele>
        <time>2020-06-08T17:57:52Z</time>
      </trkpt>
      <trkpt lat="48.39013" lon="-4.48664">
        <ele>50.4</ele>
        <time>2020-06-08T17:57:53Z</time>
      </trkpt>
      <trkpt lat="48.39013" lon="-4.4867">
        <ele>50.4</ele>
        <time>2020-06-08T17:57:54Z</time>
      </trkpt>
      <trkpt lat="48.39012" lon="-4.48672">
        <ele>50.5</ele>
        <time>2020-06-08T17:57:55Z</time>
      </trkpt>
      <trkpt lat="48.39012" lon="-4.48677">
        <ele>50.5</ele>
        <time>2020-06-08T17:57:56Z</time>
      </trkpt>
      <trkpt lat="48.39012" lon="-4.48682">
        <ele>50.5</ele>
        <time>2020-06-08T17:57:57Z</time>
      </trkpt>
      <trkpt lat="48.39011" lon="-4.48683">
        <ele>50.5</ele>
        <time>2020-06-08T17:57:58Z</time>
      </trkpt>
      <trkpt lat="48.39012" lon="-4.48684">
        <ele>50.5</ele>
        <time>2020-06-08T17:57:59Z</time>
      </trkpt>
      <trkpt lat="48.39012" lon="-4.48684">
        <ele>50.5</ele>
        <time>2020-06-08T17:58:00Z</time>
      </trkpt>
      <trkpt lat="48.39012" lon="-4.48683">
        <ele>50.5</ele>
        <time>2020-06-08T17:58:01Z</time>
      </trkpt>
      <trkpt lat="48.39011" lon="-4.48683">
        <ele>50.5</ele>
        <time>2020-06-08T17:58:02Z</time>
      </trkpt>
      <trkpt lat="48.39011" lon="-4.48683">
        <ele>50.5</ele>
        <time>2020-06-08T17:58:03Z</time>
      </trkpt>
      <trkpt lat="48.39011" lon="-4.48683">
        <ele>50.5</ele>
        <time>2020-06-08T17:58:04Z</time>
      </trkpt>
      <trkpt lat="48.39011" lon="-4.48683">
        <ele>50.5</ele>
        <time>2020-06-08T17:58:05Z</time>
      </trkpt>
      <trkpt lat="48.39011" lon="-4.48684">
        <ele>50.5</ele>
        <time>2020-06-08T17:58:06Z</time>
      </trkpt>
      <trkpt lat="48.3901" lon="-4.48684">
        <ele>50.6</ele>
        <time>2020-06-08T17:58:07Z</time>
      </trkpt>
      <trkpt lat="48.39009" lon="-4.48685">
        <ele>50.6</ele>
        <time>2020-06-08T17:58:08Z</time>
      </trkpt>
      <trkpt lat="48.39009" lon="-4.48685">
        <ele>50.6</ele>
        <time>2020-06-08T17:58:09Z</time>
      </trkpt>
      <trkpt lat="48.39009" lon="-4.48692">
        <ele>50.6</ele>
        <time>2020-06-08T17:58:14Z</time>
      </trkpt>
      <trkpt lat="48.39009" lon="-4.48695">
        <ele>50.6</ele>
        <time>2020-06-08T17:58:15Z</time>
      </trkpt>
      <trkpt lat="48.39008" lon="-4.487">
        <ele>50.5</ele>
        <time>2020-06-08T17:58:16Z</time>
      </trkpt>
      <trkpt lat="48.39008" lon="-4.48702">
        <ele>50.5</ele>
        <time>2020-06-08T17:58:17Z</time>
      </trkpt>
      <trkpt lat="48.3901" lon="-4.48705">
        <ele>50.5</ele>
        <time>2020-06-08T17:58:18Z</time>
      </trkpt>
      <trkpt lat="48.39011" lon="-4.48708">
        <ele>50.4</ele>
        <time>2020-06-08T17:58:19Z</time>
      </trkpt>
      <trkpt lat="48.39013" lon="-4.48707">
        <ele>50.6</ele>
        <time>2020-06-08T17:58:20Z</time>
      </trkpt>
      <trkpt lat="48.39017" lon="-4.48705">
        <ele>51</ele>
        <time>2020-06-08T17:58:21Z</time>
      </trkpt>
      <trkpt lat="48.39018" lon="-4.48705">
        <ele>51.1</ele>
        <time>2020-06-08T17:58:22Z</time>
      </trkpt>
      <trkpt lat="48.39021" lon="-4.48704">
        <ele>51.3</ele>
        <time>2020-06-08T17:58:23Z</time>
      </trkpt>
      <trkpt lat="48.39023" lon="-4.48702">
        <ele>51.5</ele>
        <time>2020-06-08T17:58:24Z</time>
      </trkpt>
      <trkpt lat="48.39027" lon="-4.48701">
        <ele>51.7</ele>
        <time>2020-06-08T17:58:25Z</time>
      </trkpt>
      <trkpt lat="48.39028" lon="-4.48701">
        <ele>51.7</ele>
        <time>2020-06-08T17:58:26Z</time>
      </trkpt>
      <trkpt lat="48.3903" lon="-4.48698">
        <ele>51.9</ele>
        <time>2020-06-08T17:58:27Z</time>
      </trkpt>
      <trkpt lat="48.39031" lon="-4.48698">
        <ele>51.9</ele>
        <time>2020-06-08T17:58:28Z</time>
      </trkpt>
      <trkpt lat="48.39033" lon="-4.48697">
        <ele>52</ele>
        <time>2020-06-08T17:58:29Z</time>
      </trkpt>
      <trkpt lat="48.39034" lon="-4.48697">
        <ele>52.1</ele>
        <time>2020-06-08T17:58:30Z</time>
      </trkpt>
      <trkpt lat="48.39035" lon="-4.48697">
        <ele>52.2</ele>
        <time>2020-06-08T17:58:31Z</time>
      </trkpt>
      <trkpt lat="48.39037" lon="-4.487">
        <ele>52.3</ele>
        <time>2020-06-08T17:58:32Z</time>
      </trkpt>
      <trkpt lat="48.39038" lon="-4.48701">
        <ele>52.3</ele>
        <time>2020-06-08T17:58:33Z</time>
      </trkpt>
      <trkpt lat="48.39039" lon="-4.48704">
        <ele>52.5</ele>
        <time>2020-06-08T17:58:34Z</time>
      </trkpt>
      <trkpt lat="48.3904" lon="-4.48705">
        <ele>52.5</ele>
        <time>2020-06-08T17:58:35Z</time>
      </trkpt>
      <trkpt lat="48.39041" lon="-4.48705">
        <ele>52.6</ele>
        <time>2020-06-08T17:58:36Z</time>
      </trkpt>
      <trkpt lat="48.39042" lon="-4.48705">
        <ele>52.7</ele>
        <time>2020-06-08T17:58:37Z</time>
      </trkpt>
      <trkpt lat="48.39044" lon="-4.48704">
        <ele>52.7</ele>
        <time>2020-06-08T17:58:38Z</time>
      </trkpt>
      <trkpt lat="48.39045" lon="-4.48704">
        <ele>52.8</ele>
        <time>2020-06-08T17:58:40Z</time>
      </trkpt>
      <trkpt lat="48.39046" lon="-4.48705">
        <ele>52.9</ele>
        <time>2020-06-08T17:58:41Z</time>
      </trkpt>
      <trkpt lat="48.39048" lon="-4.48705">
        <ele>53</ele>
        <time>2020-06-08T17:58:42Z</time>
      </trkpt>
      <trkpt lat="48.39049" lon="-4.48704">
        <ele>53.2</ele>
        <time>2020-06-08T17:58:43Z</time>
      </trkpt>
      <trkpt lat="48.3905" lon="-4.48703">
        <ele>53.2</ele>
        <time>2020-06-08T17:58:44Z</time>
      </trkpt>
      <trkpt lat="48.39051" lon="-4.48703">
        <ele>53.2</ele>
        <time>2020-06-08T17:58:45Z</time>
      </trkpt>
      <trkpt lat="48.39051" lon="-4.48701">
        <ele>53.2</ele>
        <time>2020-06-08T17:58:46Z</time>
      </trkpt>
      <trkpt lat="48.39051" lon="-4.48701">
        <ele>53.2</ele>
        <time>2020-06-08T17:58:47Z</time>
      </trkpt>
      <trkpt lat="48.39052" lon="-4.48702">
        <ele>53.2</ele>
        <time>2020-06-08T17:58:48Z</time>
      </trkpt>
      <trkpt lat="48.39052" lon="-4.48702">
        <ele>53.2</ele>
        <time>2020-06-08T17:58:49Z</time>
      </trkpt>
      <trkpt lat="48.39052" lon="-4.48701">
        <ele>53.2</ele>
        <time>2020-06-08T17:58:50Z</time>
      </trkpt>
      <trkpt lat="48.39052" lon="-4.48701">
        <ele>53.2</ele>
        <time>2020-06-08T17:58:51Z</time>
      </trkpt>
      <trkpt lat="48.39052" lon="-4.48701">
        <ele>53.2</ele>
        <time>2020-06-08T17:58:52Z</time>
      </trkpt>
      <trkpt lat="48.39052" lon="-4.48701">
        <ele>53.2</ele>
        <time>2020-06-08T17:58:53Z</time>
      </trkpt>
      <trkpt lat="48.39053" lon="-4.48701">
        <ele>53.2</ele>
        <time>2020-06-08T17:58:54Z</time>
      </trkpt>
      <trkpt lat="48.39053" lon="-4.48702">
        <ele>53.2</ele>
        <time>2020-06-08T17:58:55Z</time>
      </trkpt>
      <trkpt lat="48.39054" lon="-4.48703">
        <ele>53.2</ele>
        <time>2020-06-08T17:58:56Z</time>
      </trkpt>
      <trkpt lat="48.39054" lon="-4.48704">
        <ele>53.2</ele>
        <time>2020-06-08T17:58:57Z</time>
      </trkpt>
      <trkpt lat="48.39056" lon="-4.48705">
        <ele>53.2</ele>
        <time>2020-06-08T17:58:58Z</time>
      </trkpt>
      <trkpt lat="48.39058" lon="-4.48708">
        <ele>53.2</ele>
        <time>2020-06-08T17:58:59Z</time>
      </trkpt>
      <trkpt lat="48.39058" lon="-4.4871">
        <ele>53.1</ele>
        <time>2020-06-08T17:59:00Z</time>
      </trkpt>
      <trkpt lat="48.39062" lon="-4.48712">
        <ele>53.2</ele>
        <time>2020-06-08T17:59:01Z</time>
      </trkpt>
      <trkpt lat="48.39064" lon="-4.48714">
        <ele>53.2</ele>
        <time>2020-06-08T17:59:02Z</time>
      </trkpt>
      <trkpt lat="48.39065" lon="-4.48717">
        <ele>53.2</ele>
        <time>2020-06-08T17:59:03Z</time>
      </trkpt>
      <trkpt lat="48.39069" lon="-4.4872">
        <ele>53.3</ele>
        <time>2020-06-08T17:59:04Z</time>
      </trkpt>
      <trkpt lat="48.3907" lon="-4.48721">
        <ele>53.3</ele>
        <time>2020-06-08T17:59:05Z</time>
      </trkpt>
      <trkpt lat="48.39072" lon="-4.48725">
        <ele>53.3</ele>
        <time>2020-06-08T17:59:06Z</time>
      </trkpt>
      <trkpt lat="48.39074" lon="-4.48729">
        <ele>53.3</ele>
        <time>2020-06-08T17:59:07Z</time>
      </trkpt>
      <trkpt lat="48.39077" lon="-4.48732">
        <ele>53.5</ele>
        <time>2020-06-08T17:59:08Z</time>
      </trkpt>
      <trkpt lat="48.39079" lon="-4.48736">
        <ele>53.5</ele>
        <time>2020-06-08T17:59:09Z</time>
      </trkpt>
      <trkpt lat="48.39081" lon="-4.48739">
        <ele>53.6</ele>
        <time>2020-06-08T17:59:10Z</time>
      </trkpt>
      <trkpt lat="48.39083" lon="-4.48743">
        <ele>53.6</ele>
        <time>2020-06-08T17:59:11Z</time>
      </trkpt>
      <trkpt lat="48.39085" lon="-4.48746">
        <ele>53.7</ele>
        <time>2020-06-08T17:59:12Z</time>
      </trkpt>
      <trkpt lat="48.39087" lon="-4.4875">
        <ele>53.7</ele>
        <time>2020-06-08T17:59:13Z</time>
      </trkpt>
      <trkpt lat="48.39089" lon="-4.48755">
        <ele>53.8</ele>
        <time>2020-06-08T17:59:14Z</time>
      </trkpt>
      <trkpt lat="48.3909" lon="-4.48757">
        <ele>53.8</ele>
        <time>2020-06-08T17:59:15Z</time>
      </trkpt>
      <trkpt lat="48.39091" lon="-4.48761">
        <ele>53.8</ele>
        <time>2020-06-08T17:59:16Z</time>
      </trkpt>
      <trkpt lat="48.39093" lon="-4.48765">
        <ele>53.8</ele>
        <time>2020-06-08T17:59:17Z</time>
      </trkpt>
      <trkpt lat="48.39095" lon="-4.48769">
        <ele>53.9</ele>
        <time>2020-06-08T17:59:18Z</time>
      </trkpt>
      <trkpt lat="48.39095" lon="-4.48771">
        <ele>53.9</ele>
        <time>2020-06-08T17:59:19Z</time>
      </trkpt>
      <trkpt lat="48.39099" lon="-4.48772">
        <ele>53.9</ele>
        <time>2020-06-08T17:59:20Z</time>
      </trkpt>
      <trkpt lat="48.391" lon="-4.48776">
        <ele>54</ele>
        <time>2020-06-08T17:59:21Z</time>
      </trkpt>
      <trkpt lat="48.39103" lon="-4.48779">
        <ele>54</ele>
        <time>2020-06-08T17:59:22Z</time>
      </trkpt>
      <trkpt lat="48.39106" lon="-4.48783">
        <ele>54.1</ele>
        <time>2020-06-08T17:59:23Z</time>
      </trkpt>
      <trkpt lat="48.39109" lon="-4.48788">
        <ele>54.2</ele>
        <time>2020-06-08T17:59:24Z</time>
      </trkpt>
      <trkpt lat="48.39113" lon="-4.48792">
        <ele>54.2</ele>
        <time>2020-06-08T17:59:25Z</time>
      </trkpt>
      <trkpt lat="48.39117" lon="-4.48793">
        <ele>54.3</ele>
        <time>2020-06-08T17:59:26Z</time>
      </trkpt>
      <trkpt lat="48.3912" lon="-4.48795">
        <ele>54.4</ele>
        <time>2020-06-08T17:59:27Z</time>
      </trkpt>
      <trkpt lat="48.39122" lon="-4.48798">
        <ele>54.4</ele>
        <time>2020-06-08T17:59:28Z</time>
      </trkpt>
      <trkpt lat="48.39125" lon="-4.48803">
        <ele>54.5</ele>
        <time>2020-06-08T17:59:29Z</time>
      </trkpt>
      <trkpt lat="48.39126" lon="-4.48805">
        <ele>54.5</ele>
        <time>2020-06-08T17:59:30Z</time>
      </trkpt>
      <trkpt lat="48.39128" lon="-4.4881">
        <ele>54.4</ele>
        <time>2020-06-08T17:59:31Z</time>
      </trkpt>
      <trkpt lat="48.39128" lon="-4.48811">
        <ele>54.4</ele>
        <time>2020-06-08T17:59:32Z</time>
      </trkpt>
      <trkpt lat="48.39131" lon="-4.48814">
        <ele>54.3</ele>
        <time>2020-06-08T17:59:33Z</time>
      </trkpt>
      <trkpt lat="48.39132" lon="-4.4882">
        <ele>54.3</ele>
        <time>2020-06-08T17:59:34Z</time>
      </trkpt>
      <trkpt lat="48.39134" lon="-4.48825">
        <ele>54</ele>
        <time>2020-06-08T17:59:35Z</time>
      </trkpt>
      <trkpt lat="48.39133" lon="-4.48827">
        <ele>54</ele>
        <time>2020-06-08T17:59:36Z</time>
      </trkpt>
      <trkpt lat="48.39134" lon="-4.4883">
        <ele>54.1</ele>
        <time>2020-06-08T17:59:37Z</time>
      </trkpt>
      <trkpt lat="48.39136" lon="-4.48834">
        <ele>54.2</ele>
        <time>2020-06-08T17:59:38Z</time>
      </trkpt>
      <trkpt lat="48.39138" lon="-4.48835">
        <ele>54.2</ele>
        <time>2020-06-08T17:59:39Z</time>
      </trkpt>
      <trkpt lat="48.39138" lon="-4.48837">
        <ele>54.3</ele>
        <time>2020-06-08T17:59:40Z</time>
      </trkpt>
      <trkpt lat="48.39138" lon="-4.48838">
        <ele>54.3</ele>
        <time>2020-06-08T17:59:41Z</time>
      </trkpt>
      <trkpt lat="48.39138" lon="-4.48839">
        <ele>54.3</ele>
        <time>2020-06-08T17:59:42Z</time>
      </trkpt>
      <trkpt lat="48.39139" lon="-4.48843">
        <ele>54.4</ele>
        <time>2020-06-08T17:59:43Z</time>
      </trkpt>
      <trkpt lat="48.39141" lon="-4.48844">
        <ele>54.5</ele>
        <time>2020-06-08T17:59:44Z</time>
      </trkpt>
      <trkpt lat="48.39143" lon="-4.48843">
        <ele>54.4</ele>
        <time>2020-06-08T17:59:45Z</time>
      </trkpt>
      <trkpt lat="48.39146" lon="-4.48847">
        <ele>54.3</ele>
        <time>2020-06-08T17:59:46Z</time>
      </trkpt>
      <trkpt lat="48.39146" lon="-4.48848">
        <ele>54.3</ele>
        <time>2020-06-08T17:59:47Z</time>
      </trkpt>
      <trkpt lat="48.39147" lon="-4.48851">
        <ele>54.3</ele>
        <time>2020-06-08T17:59:48Z</time>
      </trkpt>
      <trkpt lat="48.39147" lon="-4.48853">
        <ele>54.3</ele>
        <time>2020-06-08T17:59:49Z</time>
      </trkpt>
      <trkpt lat="48.3915" lon="-4.48856">
        <ele>54.2</ele>
        <time>2020-06-08T17:59:50Z</time>
      </trkpt>
      <trkpt lat="48.39151" lon="-4.48856">
        <ele>54.2</ele>
        <time>2020-06-08T17:59:51Z</time>
      </trkpt>
      <trkpt lat="48.39153" lon="-4.48855">
        <ele>54.1</ele>
        <time>2020-06-08T17:59:52Z</time>
      </trkpt>
      <trkpt lat="48.39154" lon="-4.48855">
        <ele>54.1</ele>
        <time>2020-06-08T17:59:53Z</time>
      </trkpt>
      <trkpt lat="48.39157" lon="-4.48853">
        <ele>54</ele>
        <time>2020-06-08T17:59:54Z</time>
      </trkpt>
      <trkpt lat="48.39159" lon="-4.48852">
        <ele>54</ele>
        <time>2020-06-08T17:59:55Z</time>
      </trkpt>
      <trkpt lat="48.3916" lon="-4.4885">
        <ele>53.9</ele>
        <time>2020-06-08T17:59:56Z</time>
      </trkpt>
      <trkpt lat="48.39163" lon="-4.48852">
        <ele>53.9</ele>
        <time>2020-06-08T17:59:57Z</time>
      </trkpt>
      <trkpt lat="48.39165" lon="-4.48856">
        <ele>53.8</ele>
        <time>2020-06-08T17:59:58Z</time>
      </trkpt>
      <trkpt lat="48.39166" lon="-4.4886">
        <ele>53.7</ele>
        <time>2020-06-08T17:59:59Z</time>
      </trkpt>
      <trkpt lat="48.39168" lon="-4.48865">
        <ele>53.6</ele>
        <time>2020-06-08T18:00:00Z</time>
      </trkpt>
      <trkpt lat="48.39169" lon="-4.48867">
        <ele>53.6</ele>
        <time>2020-06-08T18:00:01Z</time>
      </trkpt>
      <trkpt lat="48.39171" lon="-4.48873">
        <ele>53.4</ele>
        <time>2020-06-08T18:00:02Z</time>
      </trkpt>
      <trkpt lat="48.39172" lon="-4.48875">
        <ele>53.4</ele>
        <time>2020-06-08T18:00:03Z</time>
      </trkpt>
      <trkpt lat="48.39173" lon="-4.48881">
        <ele>53.2</ele>
        <time>2020-06-08T18:00:04Z</time>
      </trkpt>
      <trkpt lat="48.39178" lon="-4.48892">
        <ele>52.8</ele>
        <time>2020-06-08T18:00:05Z</time>
      </trkpt>
      <trkpt lat="48.39181" lon="-4.48897">
        <ele>52.6</ele>
        <time>2020-06-08T18:00:06Z</time>
      </trkpt>
      <trkpt lat="48.39185" lon="-4.48906">
        <ele>52.3</ele>
        <time>2020-06-08T18:00:07Z</time>
      </trkpt>
      <trkpt lat="48.39189" lon="-4.48912">
        <ele>52.1</ele>
        <time>2020-06-08T18:00:08Z</time>
      </trkpt>
      <trkpt lat="48.39192" lon="-4.48917">
        <ele>51.9</ele>
        <time>2020-06-08T18:00:09Z</time>
      </trkpt>
      <trkpt lat="48.39195" lon="-4.48924">
        <ele>51.7</ele>
        <time>2020-06-08T18:00:10Z</time>
      </trkpt>
      <trkpt lat="48.39198" lon="-4.48932">
        <ele>51.4</ele>
        <time>2020-06-08T18:00:11Z</time>
      </trkpt>
      <trkpt lat="48.39201" lon="-4.4894">
        <ele>51.1</ele>
        <time>2020-06-08T18:00:12Z</time>
      </trkpt>
      <trkpt lat="48.39204" lon="-4.48946">
        <ele>50.9</ele>
        <time>2020-06-08T18:00:13Z</time>
      </trkpt>
      <trkpt lat="48.39209" lon="-4.48955">
        <ele>50.6</ele>
        <time>2020-06-08T18:00:14Z</time>
      </trkpt>
      <trkpt lat="48.39212" lon="-4.48962">
        <ele>50.4</ele>
        <time>2020-06-08T18:00:15Z</time>
      </trkpt>
      <trkpt lat="48.39214" lon="-4.48969">
        <ele>50.2</ele>
        <time>2020-06-08T18:00:16Z</time>
      </trkpt>
      <trkpt lat="48.39216" lon="-4.48975">
        <ele>50</ele>
        <time>2020-06-08T18:00:17Z</time>
      </trkpt>
      <trkpt lat="48.39219" lon="-4.48981">
        <ele>49.8</ele>
        <time>2020-06-08T18:00:18Z</time>
      </trkpt>
      <trkpt lat="48.39221" lon="-4.48987">
        <ele>49.6</ele>
        <time>2020-06-08T18:00:19Z</time>
      </trkpt>
      <trkpt lat="48.39226" lon="-4.48995">
        <ele>49.4</ele>
        <time>2020-06-08T18:00:20Z</time>
      </trkpt>
      <trkpt lat="48.39228" lon="-4.49003">
        <ele>49.2</ele>
        <time>2020-06-08T18:00:21Z</time>
      </trkpt>
      <trkpt lat="48.39232" lon="-4.49009">
        <ele>49</ele>
        <time>2020-06-08T18:00:22Z</time>
      </trkpt>
      <trkpt lat="48.39235" lon="-4.49016">
        <ele>48.6</ele>
        <time>2020-06-08T18:00:23Z</time>
      </trkpt>
      <trkpt lat="48.39238" lon="-4.49022">
        <ele>48.4</ele>
        <time>2020-06-08T18:00:24Z</time>
      </trkpt>
      <trkpt lat="48.39241" lon="-4.49029">
        <ele>48.3</ele>
        <time>2020-06-08T18:00:25Z</time>
      </trkpt>
      <trkpt lat="48.39246" lon="-4.49032">
        <ele>48</ele>
        <time>2020-06-08T18:00:26Z</time>
      </trkpt>
      <trkpt lat="48.3925" lon="-4.49037">
        <ele>47.8</ele>
        <time>2020-06-08T18:00:27Z</time>
      </trkpt>
      <trkpt lat="48.39254" lon="-4.49042">
        <ele>47.6</ele>
        <time>2020-06-08T18:00:28Z</time>
      </trkpt>
      <trkpt lat="48.3926" lon="-4.4905">
        <ele>47.3</ele>
        <time>2020-06-08T18:00:29Z</time>
      </trkpt>
      <trkpt lat="48.39264" lon="-4.49058">
        <ele>47</ele>
        <time>2020-06-08T18:00:30Z</time>
      </trkpt>
      <trkpt lat="48.39268" lon="-4.49065">
        <ele>46.8</ele>
        <time>2020-06-08T18:00:31Z</time>
      </trkpt>
      <trkpt lat="48.39272" lon="-4.49072">
        <ele>46.7</ele>
        <time>2020-06-08T18:00:32Z</time>
      </trkpt>
      <trkpt lat="48.39276" lon="-4.4908">
        <ele>46.4</ele>
        <time>2020-06-08T18:00:33Z</time>
      </trkpt>
      <trkpt lat="48.39279" lon="-4.4909">
        <ele>46.2</ele>
        <time>2020-06-08T18:00:34Z</time>
      </trkpt>
      <trkpt lat="48.39283" lon="-4.49099">
        <ele>46</ele>
        <time>2020-06-08T18:00:35Z</time>
      </trkpt>
      <trkpt lat="48.39287" lon="-4.49108">
        <ele>45.7</ele>
        <time>2020-06-08T18:00:36Z</time>
      </trkpt>
      <trkpt lat="48.39291" lon="-4.49117">
        <ele>45.4</ele>
        <time>2020-06-08T18:00:37Z</time>
      </trkpt>
      <trkpt lat="48.39296" lon="-4.49125">
        <ele>44.8</ele>
        <time>2020-06-08T18:00:38Z</time>
      </trkpt>
      <trkpt lat="48.39301" lon="-4.49135">
        <ele>44.2</ele>
        <time>2020-06-08T18:00:39Z</time>
      </trkpt>
      <trkpt lat="48.39306" lon="-4.49146">
        <ele>43.5</ele>
        <time>2020-06-08T18:00:40Z</time>
      </trkpt>
      <trkpt lat="48.39311" lon="-4.49157">
        <ele>42.8</ele>
        <time>2020-06-08T18:00:41Z</time>
      </trkpt>
      <trkpt lat="48.39316" lon="-4.49166">
        <ele>42.1</ele>
        <time>2020-06-08T18:00:42Z</time>
      </trkpt>
      <trkpt lat="48.3932" lon="-4.49174">
        <ele>41.6</ele>
        <time>2020-06-08T18:00:43Z</time>
      </trkpt>
      <trkpt lat="48.39324" lon="-4.49182">
        <ele>41.1</ele>
        <time>2020-06-08T18:00:44Z</time>
      </trkpt>
      <trkpt lat="48.39328" lon="-4.4919">
        <ele>40.7</ele>
        <time>2020-06-08T18:00:45Z</time>
      </trkpt>
      <trkpt lat="48.39332" lon="-4.49197">
        <ele>40.3</ele>
        <time>2020-06-08T18:00:46Z</time>
      </trkpt>
      <trkpt lat="48.39336" lon="-4.49204">
        <ele>40</ele>
        <time>2020-06-08T18:00:47Z</time>
      </trkpt>
      <trkpt lat="48.3934" lon="-4.4921">
        <ele>39.8</ele>
        <time>2020-06-08T18:00:48Z</time>
      </trkpt>
      <trkpt lat="48.39343" lon="-4.49215">
        <ele>39.6</ele>
        <time>2020-06-08T18:00:49Z</time>
      </trkpt>
      <trkpt lat="48.39346" lon="-4.49221">
        <ele>39.5</ele>
        <time>2020-06-08T18:00:50Z</time>
      </trkpt>
      <trkpt lat="48.39348" lon="-4.49226">
        <ele>39.3</ele>
        <time>2020-06-08T18:00:51Z</time>
      </trkpt>
      <trkpt lat="48.3935" lon="-4.49231">
        <ele>39.2</ele>
        <time>2020-06-08T18:00:52Z</time>
      </trkpt>
      <trkpt lat="48.39353" lon="-4.49235">
        <ele>39.1</ele>
        <time>2020-06-08T18:00:53Z</time>
      </trkpt>
      <trkpt lat="48.3936" lon="-4.49233">
        <ele>39.1</ele>
        <time>2020-06-08T18:00:54Z</time>
      </trkpt>
      <trkpt lat="48.39363" lon="-4.49237">
        <ele>39</ele>
        <time>2020-06-08T18:00:55Z</time>
      </trkpt>
      <trkpt lat="48.39365" lon="-4.49241">
        <ele>39</ele>
        <time>2020-06-08T18:00:56Z</time>
      </trkpt>
      <trkpt lat="48.39368" lon="-4.49245">
        <ele>39</ele>
        <time>2020-06-08T18:00:57Z</time>
      </trkpt>
      <trkpt lat="48.39369" lon="-4.4925">
        <ele>38.9</ele>
        <time>2020-06-08T18:00:58Z</time>
      </trkpt>
      <trkpt lat="48.39372" lon="-4.49256">
        <ele>38.9</ele>
        <time>2020-06-08T18:00:59Z</time>
      </trkpt>
      <trkpt lat="48.39374" lon="-4.4926">
        <ele>38.9</ele>
        <time>2020-06-08T18:01:00Z</time>
      </trkpt>
      <trkpt lat="48.39376" lon="-4.49266">
        <ele>38.8</ele>
        <time>2020-06-08T18:01:01Z</time>
      </trkpt>
      <trkpt lat="48.39378" lon="-4.49272">
        <ele>38.8</ele>
        <time>2020-06-08T18:01:02Z</time>
      </trkpt>
      <trkpt lat="48.3938" lon="-4.49277">
        <ele>38.8</ele>
        <time>2020-06-08T18:01:03Z</time>
      </trkpt>
      <trkpt lat="48.39382" lon="-4.49283">
        <ele>38.8</ele>
        <time>2020-06-08T18:01:04Z</time>
      </trkpt>
      <trkpt lat="48.39385" lon="-4.49287">
        <ele>38.8</ele>
        <time>2020-06-08T18:01:05Z</time>
      </trkpt>
      <trkpt lat="48.39389" lon="-4.49291">
        <ele>38.7</ele>
        <time>2020-06-08T18:01:06Z</time>
      </trkpt>
      <trkpt lat="48.39392" lon="-4.49295">
        <ele>38.6</ele>
        <time>2020-06-08T18:01:07Z</time>
      </trkpt>
      <trkpt lat="48.39395" lon="-4.49299">
        <ele>38.5</ele>
        <time>2020-06-08T18:01:08Z</time>
      </trkpt>
      <trkpt lat="48.39397" lon="-4.49304">
        <ele>38.4</ele>
        <time>2020-06-08T18:01:09Z</time>
      </trkpt>
      <trkpt lat="48.394" lon="-4.49308">
        <ele>38.3</ele>
        <time>2020-06-08T18:01:10Z</time>
      </trkpt>
      <trkpt lat="48.39402" lon="-4.49313">
        <ele>38.2</ele>
        <time>2020-06-08T18:01:11Z</time>
      </trkpt>
      <trkpt lat="48.39403" lon="-4.49319">
        <ele>38.2</ele>
        <time>2020-06-08T18:01:12Z</time>
      </trkpt>
      <trkpt lat="48.39405" lon="-4.49325">
        <ele>38.2</ele>
        <time>2020-06-08T18:01:13Z</time>
      </trkpt>
      <trkpt lat="48.39406" lon="-4.49331">
        <ele>38.2</ele>
        <time>2020-06-08T18:01:14Z</time>
      </trkpt>
      <trkpt lat="48.39408" lon="-4.49336">
        <ele>38.2</ele>
        <time>2020-06-08T18:01:15Z</time>
      </trkpt>
      <trkpt lat="48.3941" lon="-4.49341">
        <ele>38.2</ele>
        <time>2020-06-08T18:01:16Z</time>
      </trkpt>
      <trkpt lat="48.39412" lon="-4.49346">
        <ele>38.2</ele>
        <time>2020-06-08T18:01:17Z</time>
      </trkpt>
      <trkpt lat="48.39415" lon="-4.49351">
        <ele>38.1</ele>
        <time>2020-06-08T18:01:18Z</time>
      </trkpt>
      <trkpt lat="48.39415" lon="-4.49356">
        <ele>38.1</ele>
        <time>2020-06-08T18:01:19Z</time>
      </trkpt>
      <trkpt lat="48.39414" lon="-4.49362">
        <ele>38</ele>
        <time>2020-06-08T18:01:20Z</time>
      </trkpt>
      <trkpt lat="48.39412" lon="-4.49368">
        <ele>38</ele>
        <time>2020-06-08T18:01:21Z</time>
      </trkpt>
      <trkpt lat="48.3941" lon="-4.49373">
        <ele>38.1</ele>
        <time>2020-06-08T18:01:22Z</time>
      </trkpt>
      <trkpt lat="48.39409" lon="-4.49379">
        <ele>38.1</ele>
        <time>2020-06-08T18:01:23Z</time>
      </trkpt>
      <trkpt lat="48.39409" lon="-4.49385">
        <ele>38.1</ele>
        <time>2020-06-08T18:01:24Z</time>
      </trkpt>
      <trkpt lat="48.39407" lon="-4.49392">
        <ele>38.1</ele>
        <time>2020-06-08T18:01:25Z</time>
      </trkpt>
      <trkpt lat="48.39406" lon="-4.49398">
        <ele>38.2</ele>
        <time>2020-06-08T18:01:26Z</time>
      </trkpt>
      <trkpt lat="48.39406" lon="-4.49404">
        <ele>38.2</ele>
        <time>2020-06-08T18:01:27Z</time>
      </trkpt>
      <trkpt lat="48.39405" lon="-4.4941">
        <ele>38.3</ele>
        <time>2020-06-08T18:01:28Z</time>
      </trkpt>
      <trkpt lat="48.39404" lon="-4.49415">
        <ele>38.3</ele>
        <time>2020-06-08T18:01:29Z</time>
      </trkpt>
      <trkpt lat="48.39403" lon="-4.4942">
        <ele>38.4</ele>
        <time>2020-06-08T18:01:30Z</time>
      </trkpt>
      <trkpt lat="48.39402" lon="-4.49425">
        <ele>38.5</ele>
        <time>2020-06-08T18:01:31Z</time>
      </trkpt>
      <trkpt lat="48.39401" lon="-4.4943">
        <ele>38.5</ele>
        <time>2020-06-08T18:01:32Z</time>
      </trkpt>
      <trkpt lat="48.39401" lon="-4.49434">
        <ele>38.6</ele>
        <time>2020-06-08T18:01:33Z</time>
      </trkpt>
      <trkpt lat="48.394" lon="-4.49439">
        <ele>38.7</ele>
        <time>2020-06-08T18:01:34Z</time>
      </trkpt>
      <trkpt lat="48.394" lon="-4.49444">
        <ele>38.8</ele>
        <time>2020-06-08T18:01:35Z</time>
      </trkpt>
      <trkpt lat="48.39399" lon="-4.49449">
        <ele>38.9</ele>
        <time>2020-06-08T18:01:36Z</time>
      </trkpt>
      <trkpt lat="48.39398" lon="-4.49453">
        <ele>38.9</ele>
        <time>2020-06-08T18:01:37Z</time>
      </trkpt>
      <trkpt lat="48.39395" lon="-4.49456">
        <ele>39</ele>
        <time>2020-06-08T18:01:38Z</time>
      </trkpt>
      <trkpt lat="48.39394" lon="-4.49461">
        <ele>39.1</ele>
        <time>2020-06-08T18:01:39Z</time>
      </trkpt>
      <trkpt lat="48.39393" lon="-4.49465">
        <ele>39.2</ele>
        <time>2020-06-08T18:01:40Z</time>
      </trkpt>
      <trkpt lat="48.39392" lon="-4.49469">
        <ele>39.3</ele>
        <time>2020-06-08T18:01:41Z</time>
      </trkpt>
      <trkpt lat="48.39391" lon="-4.49473">
        <ele>39.4</ele>
        <time>2020-06-08T18:01:42Z</time>
      </trkpt>
      <trkpt lat="48.3939" lon="-4.49478">
        <ele>39.6</ele>
        <time>2020-06-08T18:01:43Z</time>
      </trkpt>
      <trkpt lat="48.39389" lon="-4.49482">
        <ele>39.8</ele>
        <time>2020-06-08T18:01:44Z</time>
      </trkpt>
      <trkpt lat="48.39388" lon="-4.49488">
        <ele>40.1</ele>
        <time>2020-06-08T18:01:45Z</time>
      </trkpt>
      <trkpt lat="48.39387" lon="-4.49493">
        <ele>40.4</ele>
        <time>2020-06-08T18:01:46Z</time>
      </trkpt>
      <trkpt lat="48.39387" lon="-4.49498">
        <ele>40.7</ele>
        <time>2020-06-08T18:01:47Z</time>
      </trkpt>
      <trkpt lat="48.39385" lon="-4.49504">
        <ele>41</ele>
        <time>2020-06-08T18:01:48Z</time>
      </trkpt>
      <trkpt lat="48.39385" lon="-4.49509">
        <ele>41.1</ele>
        <time>2020-06-08T18:01:49Z</time>
      </trkpt>
      <trkpt lat="48.39384" lon="-4.49516">
        <ele>41.2</ele>
        <time>2020-06-08T18:01:50Z</time>
      </trkpt>
      <trkpt lat="48.39383" lon="-4.49524">
        <ele>41.2</ele>
        <time>2020-06-08T18:01:51Z</time>
      </trkpt>
      <trkpt lat="48.39382" lon="-4.49531">
        <ele>41.3</ele>
        <time>2020-06-08T18:01:52Z</time>
      </trkpt>
      <trkpt lat="48.3938" lon="-4.49538">
        <ele>41.3</ele>
        <time>2020-06-08T18:01:53Z</time>
      </trkpt>
      <trkpt lat="48.39378" lon="-4.49545">
        <ele>41.4</ele>
        <time>2020-06-08T18:01:54Z</time>
      </trkpt>
      <trkpt lat="48.39376" lon="-4.49552">
        <ele>41.5</ele>
        <time>2020-06-08T18:01:55Z</time>
      </trkpt>
      <trkpt lat="48.39374" lon="-4.49559">
        <ele>41.5</ele>
        <time>2020-06-08T18:01:56Z</time>
      </trkpt>
      <trkpt lat="48.39373" lon="-4.49566">
        <ele>41.6</ele>
        <time>2020-06-08T18:01:57Z</time>
      </trkpt>
      <trkpt lat="48.39371" lon="-4.49573">
        <ele>41.6</ele>
        <time>2020-06-08T18:01:58Z</time>
      </trkpt>
      <trkpt lat="48.39369" lon="-4.4958">
        <ele>41.7</ele>
        <time>2020-06-08T18:01:59Z</time>
      </trkpt>
      <trkpt lat="48.39367" lon="-4.49586">
        <ele>41.9</ele>
        <time>2020-06-08T18:02:00Z</time>
      </trkpt>
      <trkpt lat="48.39366" lon="-4.49593">
        <ele>42.1</ele>
        <time>2020-06-08T18:02:01Z</time>
      </trkpt>
      <trkpt lat="48.39364" lon="-4.49601">
        <ele>42.3</ele>
        <time>2020-06-08T18:02:02Z</time>
      </trkpt>
      <trkpt lat="48.39362" lon="-4.49609">
        <ele>42.5</ele>
        <time>2020-06-08T18:02:03Z</time>
      </trkpt>
      <trkpt lat="48.3936" lon="-4.49616">
        <ele>42.6</ele>
        <time>2020-06-08T18:02:04Z</time>
      </trkpt>
      <trkpt lat="48.39358" lon="-4.49623">
        <ele>42.8</ele>
        <time>2020-06-08T18:02:05Z</time>
      </trkpt>
      <trkpt lat="48.39356" lon="-4.4963">
        <ele>43</ele>
        <time>2020-06-08T18:02:06Z</time>
      </trkpt>
      <trkpt lat="48.39355" lon="-4.49637">
        <ele>43.1</ele>
        <time>2020-06-08T18:02:07Z</time>
      </trkpt>
      <trkpt lat="48.39354" lon="-4.49644">
        <ele>43.3</ele>
        <time>2020-06-08T18:02:08Z</time>
      </trkpt>
      <trkpt lat="48.39352" lon="-4.49651">
        <ele>43.4</ele>
        <time>2020-06-08T18:02:09Z</time>
      </trkpt>
      <trkpt lat="48.39351" lon="-4.49658">
        <ele>43.6</ele>
        <time>2020-06-08T18:02:10Z</time>
      </trkpt>
      <trkpt lat="48.39349" lon="-4.49665">
        <ele>43.7</ele>
        <time>2020-06-08T18:02:11Z</time>
      </trkpt>
      <trkpt lat="48.39347" lon="-4.49671">
        <ele>43.9</ele>
        <time>2020-06-08T18:02:12Z</time>
      </trkpt>
      <trkpt lat="48.39346" lon="-4.49679">
        <ele>44</ele>
        <time>2020-06-08T18:02:13Z</time>
      </trkpt>
      <trkpt lat="48.39345" lon="-4.49686">
        <ele>44.2</ele>
        <time>2020-06-08T18:02:14Z</time>
      </trkpt>
      <trkpt lat="48.39344" lon="-4.49694">
        <ele>44.4</ele>
        <time>2020-06-08T18:02:15Z</time>
      </trkpt>
      <trkpt lat="48.39344" lon="-4.49701">
        <ele>44.6</ele>
        <time>2020-06-08T18:02:16Z</time>
      </trkpt>
      <trkpt lat="48.39342" lon="-4.49708">
        <ele>44.8</ele>
        <time>2020-06-08T18:02:17Z</time>
      </trkpt>
      <trkpt lat="48.39341" lon="-4.49715">
        <ele>45</ele>
        <time>2020-06-08T18:02:18Z</time>
      </trkpt>
      <trkpt lat="48.3934" lon="-4.49723">
        <ele>45.2</ele>
        <time>2020-06-08T18:02:19Z</time>
      </trkpt>
      <trkpt lat="48.39338" lon="-4.49729">
        <ele>45.4</ele>
        <time>2020-06-08T18:02:20Z</time>
      </trkpt>
      <trkpt lat="48.39336" lon="-4.49737">
        <ele>45.5</ele>
        <time>2020-06-08T18:02:21Z</time>
      </trkpt>
      <trkpt lat="48.39335" lon="-4.49744">
        <ele>45.7</ele>
        <time>2020-06-08T18:02:22Z</time>
      </trkpt>
      <trkpt lat="48.39334" lon="-4.49751">
        <ele>45.9</ele>
        <time>2020-06-08T18:02:23Z</time>
      </trkpt>
      <trkpt lat="48.39332" lon="-4.49758">
        <ele>46</ele>
        <time>2020-06-08T18:02:24Z</time>
      </trkpt>
      <trkpt lat="48.3933" lon="-4.49765">
        <ele>46.2</ele>
        <time>2020-06-08T18:02:25Z</time>
      </trkpt>
      <trkpt lat="48.39329" lon="-4.49772">
        <ele>46.4</ele>
        <time>2020-06-08T18:02:26Z</time>
      </trkpt>
      <trkpt lat="48.39328" lon="-4.49778">
        <ele>46.6</ele>
        <time>2020-06-08T18:02:27Z</time>
      </trkpt>
      <trkpt lat="48.39326" lon="-4.49787">
        <ele>46.8</ele>
        <time>2020-06-08T18:02:28Z</time>
      </trkpt>
      <trkpt lat="48.39325" lon="-4.49793">
        <ele>47</ele>
        <time>2020-06-08T18:02:29Z</time>
      </trkpt>
      <trkpt lat="48.39324" lon="-4.498">
        <ele>47.2</ele>
        <time>2020-06-08T18:02:30Z</time>
      </trkpt>
      <trkpt lat="48.39322" lon="-4.49806">
        <ele>47.4</ele>
        <time>2020-06-08T18:02:31Z</time>
      </trkpt>
      <trkpt lat="48.3932" lon="-4.49815">
        <ele>47.6</ele>
        <time>2020-06-08T18:02:32Z</time>
      </trkpt>
      <trkpt lat="48.39319" lon="-4.49822">
        <ele>47.8</ele>
        <time>2020-06-08T18:02:33Z</time>
      </trkpt>
      <trkpt lat="48.39318" lon="-4.4983">
        <ele>48</ele>
        <time>2020-06-08T18:02:34Z</time>
      </trkpt>
      <trkpt lat="48.39317" lon="-4.49836">
        <ele>48.1</ele>
        <time>2020-06-08T18:02:35Z</time>
      </trkpt>
      <trkpt lat="48.39315" lon="-4.49843">
        <ele>48.3</ele>
        <time>2020-06-08T18:02:36Z</time>
      </trkpt>
      <trkpt lat="48.39314" lon="-4.49848">
        <ele>48.4</ele>
        <time>2020-06-08T18:02:37Z</time>
      </trkpt>
      <trkpt lat="48.39312" lon="-4.49854">
        <ele>48.5</ele>
        <time>2020-06-08T18:02:38Z</time>
      </trkpt>
      <trkpt lat="48.39311" lon="-4.49861">
        <ele>48.6</ele>
        <time>2020-06-08T18:02:39Z</time>
      </trkpt>
      <trkpt lat="48.39309" lon="-4.49868">
        <ele>48.8</ele>
        <time>2020-06-08T18:02:40Z</time>
      </trkpt>
      <trkpt lat="48.39307" lon="-4.49875">
        <ele>49</ele>
        <time>2020-06-08T18:02:41Z</time>
      </trkpt>
      <trkpt lat="48.39306" lon="-4.49882">
        <ele>49.1</ele>
        <time>2020-06-08T18:02:42Z</time>
      </trkpt>
      <trkpt lat="48.39305" lon="-4.49888">
        <ele>49.3</ele>
        <time>2020-06-08T18:02:43Z</time>
      </trkpt>
      <trkpt lat="48.39304" lon="-4.49893">
        <ele>49.4</ele>
        <time>2020-06-08T18:02:44Z</time>
      </trkpt>
      <trkpt lat="48.39302" lon="-4.49901">
        <ele>49.6</ele>
        <time>2020-06-08T18:02:45Z</time>
      </trkpt>
      <trkpt lat="48.39302" lon="-4.49908">
        <ele>49.7</ele>
        <time>2020-06-08T18:02:46Z</time>
      </trkpt>
      <trkpt lat="48.393" lon="-4.49916">
        <ele>49.9</ele>
        <time>2020-06-08T18:02:47Z</time>
      </trkpt>
      <trkpt lat="48.39298" lon="-4.49923">
        <ele>50</ele>
        <time>2020-06-08T18:02:48Z</time>
      </trkpt>
      <trkpt lat="48.39297" lon="-4.49931">
        <ele>50.2</ele>
        <time>2020-06-08T18:02:49Z</time>
      </trkpt>
      <trkpt lat="48.39295" lon="-4.49939">
        <ele>50.3</ele>
        <time>2020-06-08T18:02:50Z</time>
      </trkpt>
      <trkpt lat="48.39293" lon="-4.49946">
        <ele>50.4</ele>
        <time>2020-06-08T18:02:51Z</time>
      </trkpt>
      <trkpt lat="48.39292" lon="-4.49953">
        <ele>50.6</ele>
        <time>2020-06-08T18:02:52Z</time>
      </trkpt>
      <trkpt lat="48.39291" lon="-4.49961">
        <ele>50.6</ele>
        <time>2020-06-08T18:02:53Z</time>
      </trkpt>
      <trkpt lat="48.3929" lon="-4.49967">
        <ele>50.7</ele>
        <time>2020-06-08T18:02:54Z</time>
      </trkpt>
      <trkpt lat="48.39288" lon="-4.49974">
        <ele>50.8</ele>
        <time>2020-06-08T18:02:55Z</time>
      </trkpt>
      <trkpt lat="48.39286" lon="-4.4998">
        <ele>50.8</ele>
        <time>2020-06-08T18:02:56Z</time>
      </trkpt>
      <trkpt lat="48.39284" lon="-4.49988">
        <ele>50.9</ele>
        <time>2020-06-08T18:02:57Z</time>
      </trkpt>
      <trkpt lat="48.39283" lon="-4.49996">
        <ele>51</ele>
        <time>2020-06-08T18:02:58Z</time>
      </trkpt>
      <trkpt lat="48.39282" lon="-4.50003">
        <ele>51.1</ele>
        <time>2020-06-08T18:02:59Z</time>
      </trkpt>
      <trkpt lat="48.3928" lon="-4.50011">
        <ele>51.2</ele>
        <time>2020-06-08T18:03:00Z</time>
      </trkpt>
      <trkpt lat="48.39279" lon="-4.50017">
        <ele>51.2</ele>
        <time>2020-06-08T18:03:01Z</time>
      </trkpt>
      <trkpt lat="48.39277" lon="-4.50025">
        <ele>51.3</ele>
        <time>2020-06-08T18:03:02Z</time>
      </trkpt>
      <trkpt lat="48.39275" lon="-4.50032">
        <ele>51.3</ele>
        <time>2020-06-08T18:03:03Z</time>
      </trkpt>
      <trkpt lat="48.39273" lon="-4.5004">
        <ele>51.3</ele>
        <time>2020-06-08T18:03:04Z</time>
      </trkpt>
      <trkpt lat="48.39271" lon="-4.50047">
        <ele>51.2</ele>
        <time>2020-06-08T18:03:05Z</time>
      </trkpt>
      <trkpt lat="48.39271" lon="-4.50057">
        <ele>51.2</ele>
        <time>2020-06-08T18:03:06Z</time>
      </trkpt>
      <trkpt lat="48.39269" lon="-4.50065">
        <ele>51.2</ele>
        <time>2020-06-08T18:03:07Z</time>
      </trkpt>
      <trkpt lat="48.39267" lon="-4.50074">
        <ele>51.2</ele>
        <time>2020-06-08T18:03:08Z</time>
      </trkpt>
      <trkpt lat="48.39265" lon="-4.50083">
        <ele>51.3</ele>
        <time>2020-06-08T18:03:09Z</time>
      </trkpt>
      <trkpt lat="48.39263" lon="-4.50091">
        <ele>51.3</ele>
        <time>2020-06-08T18:03:10Z</time>
      </trkpt>
      <trkpt lat="48.39261" lon="-4.50101">
        <ele>51.2</ele>
        <time>2020-06-08T18:03:11Z</time>
      </trkpt>
      <trkpt lat="48.39259" lon="-4.50108">
        <ele>51.1</ele>
        <time>2020-06-08T18:03:12Z</time>
      </trkpt>
      <trkpt lat="48.39257" lon="-4.50118">
        <ele>51</ele>
        <time>2020-06-08T18:03:13Z</time>
      </trkpt>
      <trkpt lat="48.39256" lon="-4.50127">
        <ele>51</ele>
        <time>2020-06-08T18:03:14Z</time>
      </trkpt>
      <trkpt lat="48.39255" lon="-4.50135">
        <ele>50.9</ele>
        <time>2020-06-08T18:03:15Z</time>
      </trkpt>
      <trkpt lat="48.39253" lon="-4.50145">
        <ele>50.8</ele>
        <time>2020-06-08T18:03:16Z</time>
      </trkpt>
      <trkpt lat="48.39251" lon="-4.50153">
        <ele>50.8</ele>
        <time>2020-06-08T18:03:17Z</time>
      </trkpt>
      <trkpt lat="48.39249" lon="-4.50164">
        <ele>50.7</ele>
        <time>2020-06-08T18:03:18Z</time>
      </trkpt>
      <trkpt lat="48.39247" lon="-4.50172">
        <ele>50.5</ele>
        <time>2020-06-08T18:03:19Z</time>
      </trkpt>
      <trkpt lat="48.39246" lon="-4.5018">
        <ele>50.4</ele>
        <time>2020-06-08T18:03:20Z</time>
      </trkpt>
      <trkpt lat="48.39243" lon="-4.5019">
        <ele>50.3</ele>
        <time>2020-06-08T18:03:21Z</time>
      </trkpt>
      <trkpt lat="48.39241" lon="-4.502">
        <ele>50.2</ele>
        <time>2020-06-08T18:03:22Z</time>
      </trkpt>
      <trkpt lat="48.39239" lon="-4.5021">
        <ele>50.1</ele>
        <time>2020-06-08T18:03:23Z</time>
      </trkpt>
      <trkpt lat="48.39237" lon="-4.5022">
        <ele>50</ele>
        <time>2020-06-08T18:03:24Z</time>
      </trkpt>
      <trkpt lat="48.39235" lon="-4.5023">
        <ele>49.8</ele>
        <time>2020-06-08T18:03:25Z</time>
      </trkpt>
      <trkpt lat="48.39233" lon="-4.50241">
        <ele>49.7</ele>
        <time>2020-06-08T18:03:26Z</time>
      </trkpt>
      <trkpt lat="48.39231" lon="-4.50251">
        <ele>49.5</ele>
        <time>2020-06-08T18:03:27Z</time>
      </trkpt>
      <trkpt lat="48.39228" lon="-4.50262">
        <ele>49.4</ele>
        <time>2020-06-08T18:03:28Z</time>
      </trkpt>
      <trkpt lat="48.39226" lon="-4.50273">
        <ele>49.2</ele>
        <time>2020-06-08T18:03:29Z</time>
      </trkpt>
      <trkpt lat="48.39224" lon="-4.50284">
        <ele>49.1</ele>
        <time>2020-06-08T18:03:30Z</time>
      </trkpt>
      <trkpt lat="48.39222" lon="-4.50295">
        <ele>48.9</ele>
        <time>2020-06-08T18:03:31Z</time>
      </trkpt>
      <trkpt lat="48.39219" lon="-4.50305">
        <ele>48.8</ele>
        <time>2020-06-08T18:03:32Z</time>
      </trkpt>
      <trkpt lat="48.39218" lon="-4.50315">
        <ele>48.7</ele>
        <time>2020-06-08T18:03:33Z</time>
      </trkpt>
      <trkpt lat="48.39216" lon="-4.50325">
        <ele>48.7</ele>
        <time>2020-06-08T18:03:34Z</time>
      </trkpt>
      <trkpt lat="48.39215" lon="-4.50335">
        <ele>48.7</ele>
        <time>2020-06-08T18:03:35Z</time>
      </trkpt>
      <trkpt lat="48.39213" lon="-4.50343">
        <ele>48.6</ele>
        <time>2020-06-08T18:03:36Z</time>
      </trkpt>
      <trkpt lat="48.39212" lon="-4.50351">
        <ele>48.6</ele>
        <time>2020-06-08T18:03:37Z</time>
      </trkpt>
      <trkpt lat="48.39211" lon="-4.50358">
        <ele>48.7</ele>
        <time>2020-06-08T18:03:38Z</time>
      </trkpt>
      <trkpt lat="48.39209" lon="-4.50364">
        <ele>48.8</ele>
        <time>2020-06-08T18:03:39Z</time>
      </trkpt>
      <trkpt lat="48.39207" lon="-4.50371">
        <ele>48.9</ele>
        <time>2020-06-08T18:03:40Z</time>
      </trkpt>
      <trkpt lat="48.39207" lon="-4.50378">
        <ele>48.9</ele>
        <time>2020-06-08T18:03:41Z</time>
      </trkpt>
      <trkpt lat="48.39207" lon="-4.50385">
        <ele>49</ele>
        <time>2020-06-08T18:03:42Z</time>
      </trkpt>
      <trkpt lat="48.39207" lon="-4.50391">
        <ele>49.1</ele>
        <time>2020-06-08T18:03:43Z</time>
      </trkpt>
      <trkpt lat="48.39207" lon="-4.50398">
        <ele>49.2</ele>
        <time>2020-06-08T18:03:44Z</time>
      </trkpt>
      <trkpt lat="48.39206" lon="-4.50405">
        <ele>49.3</ele>
        <time>2020-06-08T18:03:45Z</time>
      </trkpt>
      <trkpt lat="48.39205" lon="-4.5041">
        <ele>49.4</ele>
        <time>2020-06-08T18:03:46Z</time>
      </trkpt>
      <trkpt lat="48.39202" lon="-4.50415">
        <ele>49.4</ele>
        <time>2020-06-08T18:03:47Z</time>
      </trkpt>
      <trkpt lat="48.39199" lon="-4.5042">
        <ele>49.5</ele>
        <time>2020-06-08T18:03:48Z</time>
      </trkpt>
      <trkpt lat="48.39198" lon="-4.50426">
        <ele>49.6</ele>
        <time>2020-06-08T18:03:49Z</time>
      </trkpt>
      <trkpt lat="48.39198" lon="-4.50432">
        <ele>50.1</ele>
        <time>2020-06-08T18:03:50Z</time>
      </trkpt>
      <trkpt lat="48.39196" lon="-4.50438">
        <ele>50.2</ele>
        <time>2020-06-08T18:03:51Z</time>
      </trkpt>
      <trkpt lat="48.39194" lon="-4.50446">
        <ele>50.3</ele>
        <time>2020-06-08T18:03:52Z</time>
      </trkpt>
      <trkpt lat="48.39193" lon="-4.50454">
        <ele>50.4</ele>
        <time>2020-06-08T18:03:53Z</time>
      </trkpt>
      <trkpt lat="48.3919" lon="-4.50462">
        <ele>50.6</ele>
        <time>2020-06-08T18:03:54Z</time>
      </trkpt>
      <trkpt lat="48.39188" lon="-4.50469">
        <ele>50.8</ele>
        <time>2020-06-08T18:03:55Z</time>
      </trkpt>
      <trkpt lat="48.39184" lon="-4.50475">
        <ele>50.9</ele>
        <time>2020-06-08T18:03:56Z</time>
      </trkpt>
      <trkpt lat="48.39181" lon="-4.50482">
        <ele>51.1</ele>
        <time>2020-06-08T18:03:57Z</time>
      </trkpt>
      <trkpt lat="48.3918" lon="-4.50489">
        <ele>51.3</ele>
        <time>2020-06-08T18:03:58Z</time>
      </trkpt>
      <trkpt lat="48.39179" lon="-4.50496">
        <ele>51.4</ele>
        <time>2020-06-08T18:03:59Z</time>
      </trkpt>
      <trkpt lat="48.39178" lon="-4.50503">
        <ele>51.6</ele>
        <time>2020-06-08T18:04:00Z</time>
      </trkpt>
      <trkpt lat="48.39177" lon="-4.50511">
        <ele>51.7</ele>
        <time>2020-06-08T18:04:01Z</time>
      </trkpt>
      <trkpt lat="48.39176" lon="-4.50517">
        <ele>51.9</ele>
        <time>2020-06-08T18:04:02Z</time>
      </trkpt>
      <trkpt lat="48.39174" lon="-4.50525">
        <ele>52.1</ele>
        <time>2020-06-08T18:04:03Z</time>
      </trkpt>
      <trkpt lat="48.39174" lon="-4.50532">
        <ele>52.3</ele>
        <time>2020-06-08T18:04:04Z</time>
      </trkpt>
      <trkpt lat="48.39172" lon="-4.50539">
        <ele>52.5</ele>
        <time>2020-06-08T18:04:05Z</time>
      </trkpt>
      <trkpt lat="48.3917" lon="-4.50547">
        <ele>52.7</ele>
        <time>2020-06-08T18:04:06Z</time>
      </trkpt>
      <trkpt lat="48.39169" lon="-4.50553">
        <ele>52.9</ele>
        <time>2020-06-08T18:04:07Z</time>
      </trkpt>
      <trkpt lat="48.39167" lon="-4.5056">
        <ele>53.1</ele>
        <time>2020-06-08T18:04:08Z</time>
      </trkpt>
      <trkpt lat="48.39163" lon="-4.50566">
        <ele>53.3</ele>
        <time>2020-06-08T18:04:09Z</time>
      </trkpt>
      <trkpt lat="48.3916" lon="-4.50572">
        <ele>53.5</ele>
        <time>2020-06-08T18:04:10Z</time>
      </trkpt>
      <trkpt lat="48.39158" lon="-4.50577">
        <ele>53.7</ele>
        <time>2020-06-08T18:04:11Z</time>
      </trkpt>
      <trkpt lat="48.39157" lon="-4.50583">
        <ele>53.9</ele>
        <time>2020-06-08T18:04:12Z</time>
      </trkpt>
      <trkpt lat="48.39155" lon="-4.50588">
        <ele>54</ele>
        <time>2020-06-08T18:04:13Z</time>
      </trkpt>
      <trkpt lat="48.39154" lon="-4.50594">
        <ele>54.2</ele>
        <time>2020-06-08T18:04:14Z</time>
      </trkpt>
      <trkpt lat="48.39152" lon="-4.50599">
        <ele>54.3</ele>
        <time>2020-06-08T18:04:15Z</time>
      </trkpt>
      <trkpt lat="48.3915" lon="-4.50606">
        <ele>54.4</ele>
        <time>2020-06-08T18:04:16Z</time>
      </trkpt>
      <trkpt lat="48.39149" lon="-4.50613">
        <ele>54.5</ele>
        <time>2020-06-08T18:04:17Z</time>
      </trkpt>
      <trkpt lat="48.39147" lon="-4.50619">
        <ele>54.6</ele>
        <time>2020-06-08T18:04:18Z</time>
      </trkpt>
      <trkpt lat="48.39146" lon="-4.50624">
        <ele>54.7</ele>
        <time>2020-06-08T18:04:19Z</time>
      </trkpt>
      <trkpt lat="48.39144" lon="-4.50629">
        <ele>54.7</ele>
        <time>2020-06-08T18:04:20Z</time>
      </trkpt>
      <trkpt lat="48.39144" lon="-4.50633">
        <ele>54.8</ele>
        <time>2020-06-08T18:04:21Z</time>
      </trkpt>
      <trkpt lat="48.39143" lon="-4.50637">
        <ele>54.8</ele>
        <time>2020-06-08T18:04:22Z</time>
      </trkpt>
      <trkpt lat="48.39142" lon="-4.50642">
        <ele>54.8</ele>
        <time>2020-06-08T18:04:23Z</time>
      </trkpt>
      <trkpt lat="48.3914" lon="-4.50648">
        <ele>54.8</ele>
        <time>2020-06-08T18:04:24Z</time>
      </trkpt>
      <trkpt lat="48.39138" lon="-4.50655">
        <ele>54.9</ele>
        <time>2020-06-08T18:04:25Z</time>
      </trkpt>
      <trkpt lat="48.39137" lon="-4.50662">
        <ele>54.9</ele>
        <time>2020-06-08T18:04:26Z</time>
      </trkpt>
      <trkpt lat="48.39136" lon="-4.50668">
        <ele>55</ele>
        <time>2020-06-08T18:04:27Z</time>
      </trkpt>
      <trkpt lat="48.39135" lon="-4.50674">
        <ele>55</ele>
        <time>2020-06-08T18:04:28Z</time>
      </trkpt>
      <trkpt lat="48.39134" lon="-4.50679">
        <ele>55.1</ele>
        <time>2020-06-08T18:04:29Z</time>
      </trkpt>
      <trkpt lat="48.39131" lon="-4.50684">
        <ele>55.1</ele>
        <time>2020-06-08T18:04:30Z</time>
      </trkpt>
      <trkpt lat="48.3913" lon="-4.5069">
        <ele>55.2</ele>
        <time>2020-06-08T18:04:31Z</time>
      </trkpt>
      <trkpt lat="48.39129" lon="-4.50697">
        <ele>55.2</ele>
        <time>2020-06-08T18:04:32Z</time>
      </trkpt>
      <trkpt lat="48.39128" lon="-4.50704">
        <ele>55.3</ele>
        <time>2020-06-08T18:04:33Z</time>
      </trkpt>
      <trkpt lat="48.39127" lon="-4.50711">
        <ele>55.3</ele>
        <time>2020-06-08T18:04:34Z</time>
      </trkpt>
      <trkpt lat="48.39126" lon="-4.50718">
        <ele>55.4</ele>
        <time>2020-06-08T18:04:35Z</time>
      </trkpt>
      <trkpt lat="48.39122" lon="-4.50725">
        <ele>55.5</ele>
        <time>2020-06-08T18:04:36Z</time>
      </trkpt>
      <trkpt lat="48.3912" lon="-4.50733">
        <ele>55.6</ele>
        <time>2020-06-08T18:04:37Z</time>
      </trkpt>
      <trkpt lat="48.39117" lon="-4.5074">
        <ele>55.7</ele>
        <time>2020-06-08T18:04:38Z</time>
      </trkpt>
      <trkpt lat="48.39115" lon="-4.50747">
        <ele>55.8</ele>
        <time>2020-06-08T18:04:39Z</time>
      </trkpt>
      <trkpt lat="48.39114" lon="-4.50754">
        <ele>55.9</ele>
        <time>2020-06-08T18:04:40Z</time>
      </trkpt>
      <trkpt lat="48.39112" lon="-4.50761">
        <ele>56</ele>
        <time>2020-06-08T18:04:41Z</time>
      </trkpt>
      <trkpt lat="48.39111" lon="-4.50767">
        <ele>56.1</ele>
        <time>2020-06-08T18:04:42Z</time>
      </trkpt>
      <trkpt lat="48.39109" lon="-4.50774">
        <ele>56.2</ele>
        <time>2020-06-08T18:04:43Z</time>
      </trkpt>
      <trkpt lat="48.39108" lon="-4.50781">
        <ele>56.2</ele>
        <time>2020-06-08T18:04:44Z</time>
      </trkpt>
      <trkpt lat="48.39106" lon="-4.50788">
        <ele>56.3</ele>
        <time>2020-06-08T18:04:45Z</time>
      </trkpt>
      <trkpt lat="48.39104" lon="-4.50796">
        <ele>56.5</ele>
        <time>2020-06-08T18:04:46Z</time>
      </trkpt>
      <trkpt lat="48.39103" lon="-4.50804">
        <ele>56.6</ele>
        <time>2020-06-08T18:04:47Z</time>
      </trkpt>
      <trkpt lat="48.39101" lon="-4.5081">
        <ele>56.7</ele>
        <time>2020-06-08T18:04:48Z</time>
      </trkpt>
      <trkpt lat="48.39099" lon="-4.50817">
        <ele>56.8</ele>
        <time>2020-06-08T18:04:49Z</time>
      </trkpt>
      <trkpt lat="48.39098" lon="-4.50823">
        <ele>56.9</ele>
        <time>2020-06-08T18:04:50Z</time>
      </trkpt>
      <trkpt lat="48.39097" lon="-4.5083">
        <ele>56.9</ele>
        <time>2020-06-08T18:04:51Z</time>
      </trkpt>
      <trkpt lat="48.39096" lon="-4.50836">
        <ele>57</ele>
        <time>2020-06-08T18:04:52Z</time>
      </trkpt>
      <trkpt lat="48.39093" lon="-4.50843">
        <ele>57.2</ele>
        <time>2020-06-08T18:04:53Z</time>
      </trkpt>
      <trkpt lat="48.39093" lon="-4.5085">
        <ele>57.3</ele>
        <time>2020-06-08T18:04:54Z</time>
      </trkpt>
      <trkpt lat="48.39091" lon="-4.50856">
        <ele>57.5</ele>
        <time>2020-06-08T18:04:55Z</time>
      </trkpt>
      <trkpt lat="48.3909" lon="-4.50862">
        <ele>57.6</ele>
        <time>2020-06-08T18:04:56Z</time>
      </trkpt>
      <trkpt lat="48.39088" lon="-4.50869">
        <ele>57.8</ele>
        <time>2020-06-08T18:04:57Z</time>
      </trkpt>
      <trkpt lat="48.39087" lon="-4.50876">
        <ele>57.9</ele>
        <time>2020-06-08T18:04:58Z</time>
      </trkpt>
      <trkpt lat="48.39086" lon="-4.50884">
        <ele>58</ele>
        <time>2020-06-08T18:04:59Z</time>
      </trkpt>
      <trkpt lat="48.39085" lon="-4.50892">
        <ele>58.2</ele>
        <time>2020-06-08T18:05:00Z</time>
      </trkpt>
      <trkpt lat="48.39084" lon="-4.50899">
        <ele>58.4</ele>
        <time>2020-06-08T18:05:01Z</time>
      </trkpt>
      <trkpt lat="48.39085" lon="-4.50906">
        <ele>58.6</ele>
        <time>2020-06-08T18:05:02Z</time>
      </trkpt>
      <trkpt lat="48.39081" lon="-4.50912">
        <ele>58.8</ele>
        <time>2020-06-08T18:05:03Z</time>
      </trkpt>
      <trkpt lat="48.39082" lon="-4.50919">
        <ele>59</ele>
        <time>2020-06-08T18:05:04Z</time>
      </trkpt>
      <trkpt lat="48.39081" lon="-4.50926">
        <ele>59.2</ele>
        <time>2020-06-08T18:05:05Z</time>
      </trkpt>
      <trkpt lat="48.3908" lon="-4.50932">
        <ele>59.4</ele>
        <time>2020-06-08T18:05:06Z</time>
      </trkpt>
      <trkpt lat="48.39079" lon="-4.50938">
        <ele>59.6</ele>
        <time>2020-06-08T18:05:07Z</time>
      </trkpt>
      <trkpt lat="48.39079" lon="-4.50945">
        <ele>59.8</ele>
        <time>2020-06-08T18:05:08Z</time>
      </trkpt>
      <trkpt lat="48.39078" lon="-4.50951">
        <ele>60</ele>
        <time>2020-06-08T18:05:09Z</time>
      </trkpt>
      <trkpt lat="48.39079" lon="-4.50957">
        <ele>60.1</ele>
        <time>2020-06-08T18:05:10Z</time>
      </trkpt>
      <trkpt lat="48.39079" lon="-4.50962">
        <ele>60.3</ele>
        <time>2020-06-08T18:05:11Z</time>
      </trkpt>
      <trkpt lat="48.39079" lon="-4.50968">
        <ele>60.5</ele>
        <time>2020-06-08T18:05:12Z</time>
      </trkpt>
      <trkpt lat="48.39078" lon="-4.50974">
        <ele>60.7</ele>
        <time>2020-06-08T18:05:13Z</time>
      </trkpt>
      <trkpt lat="48.39078" lon="-4.50979">
        <ele>60.9</ele>
        <time>2020-06-08T18:05:14Z</time>
      </trkpt>
      <trkpt lat="48.39076" lon="-4.50984">
        <ele>61.1</ele>
        <time>2020-06-08T18:05:15Z</time>
      </trkpt>
      <trkpt lat="48.39075" lon="-4.5099">
        <ele>61.3</ele>
        <time>2020-06-08T18:05:16Z</time>
      </trkpt>
      <trkpt lat="48.39074" lon="-4.50996">
        <ele>61.5</ele>
        <time>2020-06-08T18:05:17Z</time>
      </trkpt>
      <trkpt lat="48.39074" lon="-4.51001">
        <ele>61.6</ele>
        <time>2020-06-08T18:05:18Z</time>
      </trkpt>
      <trkpt lat="48.39072" lon="-4.51005">
        <ele>61.8</ele>
        <time>2020-06-08T18:05:19Z</time>
      </trkpt>
      <trkpt lat="48.39071" lon="-4.5101">
        <ele>62</ele>
        <time>2020-06-08T18:05:20Z</time>
      </trkpt>
      <trkpt lat="48.3907" lon="-4.51016">
        <ele>62.1</ele>
        <time>2020-06-08T18:05:21Z</time>
      </trkpt>
      <trkpt lat="48.39068" lon="-4.51021">
        <ele>62.3</ele>
        <time>2020-06-08T18:05:22Z</time>
      </trkpt>
      <trkpt lat="48.39067" lon="-4.51026">
        <ele>62.4</ele>
        <time>2020-06-08T18:05:23Z</time>
      </trkpt>
      <trkpt lat="48.39066" lon="-4.51032">
        <ele>62.5</ele>
        <time>2020-06-08T18:05:24Z</time>
      </trkpt>
      <trkpt lat="48.39065" lon="-4.51037">
        <ele>62.7</ele>
        <time>2020-06-08T18:05:25Z</time>
      </trkpt>
      <trkpt lat="48.39065" lon="-4.51042">
        <ele>62.8</ele>
        <time>2020-06-08T18:05:26Z</time>
      </trkpt>
      <trkpt lat="48.39064" lon="-4.51047">
        <ele>62.9</ele>
        <time>2020-06-08T18:05:27Z</time>
      </trkpt>
      <trkpt lat="48.39063" lon="-4.51052">
        <ele>63</ele>
        <time>2020-06-08T18:05:28Z</time>
      </trkpt>
      <trkpt lat="48.39062" lon="-4.51057">
        <ele>63.2</ele>
        <time>2020-06-08T18:05:29Z</time>
      </trkpt>
      <trkpt lat="48.3906" lon="-4.51062">
        <ele>63.3</ele>
        <time>2020-06-08T18:05:30Z</time>
      </trkpt>
      <trkpt lat="48.39058" lon="-4.51067">
        <ele>63.5</ele>
        <time>2020-06-08T18:05:31Z</time>
      </trkpt>
      <trkpt lat="48.39056" lon="-4.51072">
        <ele>63.6</ele>
        <time>2020-06-08T18:05:32Z</time>
      </trkpt>
      <trkpt lat="48.39056" lon="-4.51077">
        <ele>63.7</ele>
        <time>2020-06-08T18:05:33Z</time>
      </trkpt>
      <trkpt lat="48.39055" lon="-4.51082">
        <ele>63.9</ele>
        <time>2020-06-08T18:05:34Z</time>
      </trkpt>
      <trkpt lat="48.39052" lon="-4.51086">
        <ele>64</ele>
        <time>2020-06-08T18:05:35Z</time>
      </trkpt>
      <trkpt lat="48.39051" lon="-4.51091">
        <ele>64.2</ele>
        <time>2020-06-08T18:05:36Z</time>
      </trkpt>
      <trkpt lat="48.39049" lon="-4.51096">
        <ele>64.4</ele>
        <time>2020-06-08T18:05:37Z</time>
      </trkpt>
      <trkpt lat="48.39048" lon="-4.51101">
        <ele>64.6</ele>
        <time>2020-06-08T18:05:38Z</time>
      </trkpt>
      <trkpt lat="48.39047" lon="-4.51107">
        <ele>64.8</ele>
        <time>2020-06-08T18:05:39Z</time>
      </trkpt>
      <trkpt lat="48.39045" lon="-4.51113">
        <ele>65</ele>
        <time>2020-06-08T18:05:40Z</time>
      </trkpt>
      <trkpt lat="48.39042" lon="-4.51118">
        <ele>65.1</ele>
        <time>2020-06-08T18:05:41Z</time>
      </trkpt>
      <trkpt lat="48.3904" lon="-4.51122">
        <ele>65.3</ele>
        <time>2020-06-08T18:05:42Z</time>
      </trkpt>
      <trkpt lat="48.39039" lon="-4.51127">
        <ele>65.4</ele>
        <time>2020-06-08T18:05:43Z</time>
      </trkpt>
      <trkpt lat="48.39037" lon="-4.51131">
        <ele>65.6</ele>
        <time>2020-06-08T18:05:44Z</time>
      </trkpt>
      <trkpt lat="48.39035" lon="-4.51137">
        <ele>65.7</ele>
        <time>2020-06-08T18:05:45Z</time>
      </trkpt>
      <trkpt lat="48.39033" lon="-4.51144">
        <ele>65.9</ele>
        <time>2020-06-08T18:05:46Z</time>
      </trkpt>
      <trkpt lat="48.39032" lon="-4.51149">
        <ele>66.1</ele>
        <time>2020-06-08T18:05:47Z</time>
      </trkpt>
      <trkpt lat="48.3903" lon="-4.51154">
        <ele>66.2</ele>
        <time>2020-06-08T18:05:48Z</time>
      </trkpt>
      <trkpt lat="48.39029" lon="-4.5116">
        <ele>66.3</ele>
        <time>2020-06-08T18:05:49Z</time>
      </trkpt>
      <trkpt lat="48.39026" lon="-4.51165">
        <ele>66.5</ele>
        <time>2020-06-08T18:05:50Z</time>
      </trkpt>
      <trkpt lat="48.39024" lon="-4.51169">
        <ele>66.6</ele>
        <time>2020-06-08T18:05:51Z</time>
      </trkpt>
      <trkpt lat="48.39022" lon="-4.51174">
        <ele>66.8</ele>
        <time>2020-06-08T18:05:52Z</time>
      </trkpt>
      <trkpt lat="48.3902" lon="-4.51178">
        <ele>66.9</ele>
        <time>2020-06-08T18:05:53Z</time>
      </trkpt>
      <trkpt lat="48.39017" lon="-4.51184">
        <ele>67.2</ele>
        <time>2020-06-08T18:05:54Z</time>
      </trkpt>
      <trkpt lat="48.39015" lon="-4.51189">
        <ele>67.4</ele>
        <time>2020-06-08T18:05:55Z</time>
      </trkpt>
      <trkpt lat="48.39012" lon="-4.51194">
        <ele>67.6</ele>
        <time>2020-06-08T18:05:56Z</time>
      </trkpt>
      <trkpt lat="48.39008" lon="-4.512">
        <ele>67.8</ele>
        <time>2020-06-08T18:05:57Z</time>
      </trkpt>
      <trkpt lat="48.39006" lon="-4.51207">
        <ele>68.1</ele>
        <time>2020-06-08T18:05:58Z</time>
      </trkpt>
      <trkpt lat="48.39004" lon="-4.51216">
        <ele>68.4</ele>
        <time>2020-06-08T18:05:59Z</time>
      </trkpt>
      <trkpt lat="48.39002" lon="-4.5122">
        <ele>68.5</ele>
        <time>2020-06-08T18:06:00Z</time>
      </trkpt>
      <trkpt lat="48.39001" lon="-4.51226">
        <ele>68.7</ele>
        <time>2020-06-08T18:06:01Z</time>
      </trkpt>
      <trkpt lat="48.38999" lon="-4.51229">
        <ele>68.8</ele>
        <time>2020-06-08T18:06:02Z</time>
      </trkpt>
      <trkpt lat="48.38997" lon="-4.51234">
        <ele>69</ele>
        <time>2020-06-08T18:06:03Z</time>
      </trkpt>
      <trkpt lat="48.38997" lon="-4.51236">
        <ele>69.1</ele>
        <time>2020-06-08T18:06:04Z</time>
      </trkpt>
      <trkpt lat="48.38993" lon="-4.51239">
        <ele>69.2</ele>
        <time>2020-06-08T18:06:05Z</time>
      </trkpt>
      <trkpt lat="48.38991" lon="-4.51243">
        <ele>69.4</ele>
        <time>2020-06-08T18:06:06Z</time>
      </trkpt>
      <trkpt lat="48.38989" lon="-4.51248">
        <ele>69.6</ele>
        <time>2020-06-08T18:06:07Z</time>
      </trkpt>
      <trkpt lat="48.38988" lon="-4.51254">
        <ele>69.7</ele>
        <time>2020-06-08T18:06:08Z</time>
      </trkpt>
      <trkpt lat="48.38986" lon="-4.51257">
        <ele>69.9</ele>
        <time>2020-06-08T18:06:09Z</time>
      </trkpt>
      <trkpt lat="48.38984" lon="-4.51262">
        <ele>70</ele>
        <time>2020-06-08T18:06:10Z</time>
      </trkpt>
      <trkpt lat="48.38981" lon="-4.51266">
        <ele>70.2</ele>
        <time>2020-06-08T18:06:11Z</time>
      </trkpt>
      <trkpt lat="48.3898" lon="-4.51268">
        <ele>70.3</ele>
        <time>2020-06-08T18:06:12Z</time>
      </trkpt>
      <trkpt lat="48.38978" lon="-4.51274">
        <ele>70.4</ele>
        <time>2020-06-08T18:06:13Z</time>
      </trkpt>
      <trkpt lat="48.38976" lon="-4.51279">
        <ele>70.6</ele>
        <time>2020-06-08T18:06:14Z</time>
      </trkpt>
      <trkpt lat="48.38974" lon="-4.51283">
        <ele>70.7</ele>
        <time>2020-06-08T18:06:15Z</time>
      </trkpt>
      <trkpt lat="48.38973" lon="-4.51288">
        <ele>70.9</ele>
        <time>2020-06-08T18:06:16Z</time>
      </trkpt>
      <trkpt lat="48.3897" lon="-4.51293">
        <ele>71</ele>
        <time>2020-06-08T18:06:17Z</time>
      </trkpt>
      <trkpt lat="48.38968" lon="-4.51297">
        <ele>71.1</ele>
        <time>2020-06-08T18:06:18Z</time>
      </trkpt>
      <trkpt lat="48.38967" lon="-4.51303">
        <ele>71.3</ele>
        <time>2020-06-08T18:06:19Z</time>
      </trkpt>
      <trkpt lat="48.38966" lon="-4.51305">
        <ele>71.3</ele>
        <time>2020-06-08T18:06:20Z</time>
      </trkpt>
      <trkpt lat="48.38964" lon="-4.5131">
        <ele>71.5</ele>
        <time>2020-06-08T18:06:21Z</time>
      </trkpt>
      <trkpt lat="48.38962" lon="-4.51315">
        <ele>71.6</ele>
        <time>2020-06-08T18:06:22Z</time>
      </trkpt>
      <trkpt lat="48.3896" lon="-4.5132">
        <ele>71.7</ele>
        <time>2020-06-08T18:06:23Z</time>
      </trkpt>
      <trkpt lat="48.38957" lon="-4.51325">
        <ele>71.8</ele>
        <time>2020-06-08T18:06:24Z</time>
      </trkpt>
      <trkpt lat="48.38955" lon="-4.51332">
        <ele>71.9</ele>
        <time>2020-06-08T18:06:25Z</time>
      </trkpt>
      <trkpt lat="48.38953" lon="-4.51337">
        <ele>72</ele>
        <time>2020-06-08T18:06:26Z</time>
      </trkpt>
      <trkpt lat="48.38951" lon="-4.51343">
        <ele>72.3</ele>
        <time>2020-06-08T18:06:27Z</time>
      </trkpt>
      <trkpt lat="48.38948" lon="-4.51347">
        <ele>72.4</ele>
        <time>2020-06-08T18:06:28Z</time>
      </trkpt>
      <trkpt lat="48.38947" lon="-4.51353">
        <ele>72.5</ele>
        <time>2020-06-08T18:06:29Z</time>
      </trkpt>
      <trkpt lat="48.38943" lon="-4.51359">
        <ele>72.7</ele>
        <time>2020-06-08T18:06:30Z</time>
      </trkpt>
      <trkpt lat="48.38942" lon="-4.51366">
        <ele>72.8</ele>
        <time>2020-06-08T18:06:31Z</time>
      </trkpt>
      <trkpt lat="48.3894" lon="-4.51369">
        <ele>72.9</ele>
        <time>2020-06-08T18:06:32Z</time>
      </trkpt>
      <trkpt lat="48.38938" lon="-4.51375">
        <ele>73</ele>
        <time>2020-06-08T18:06:33Z</time>
      </trkpt>
      <trkpt lat="48.38936" lon="-4.5138">
        <ele>73.1</ele>
        <time>2020-06-08T18:06:34Z</time>
      </trkpt>
      <trkpt lat="48.38935" lon="-4.51386">
        <ele>73.2</ele>
        <time>2020-06-08T18:06:35Z</time>
      </trkpt>
      <trkpt lat="48.38932" lon="-4.51391">
        <ele>73.3</ele>
        <time>2020-06-08T18:06:36Z</time>
      </trkpt>
      <trkpt lat="48.38929" lon="-4.51395">
        <ele>73.4</ele>
        <time>2020-06-08T18:06:37Z</time>
      </trkpt>
      <trkpt lat="48.38926" lon="-4.514">
        <ele>73.5</ele>
        <time>2020-06-08T18:06:38Z</time>
      </trkpt>
      <trkpt lat="48.38924" lon="-4.51405">
        <ele>73.6</ele>
        <time>2020-06-08T18:06:39Z</time>
      </trkpt>
      <trkpt lat="48.38922" lon="-4.5141">
        <ele>73.7</ele>
        <time>2020-06-08T18:06:40Z</time>
      </trkpt>
      <trkpt lat="48.3892" lon="-4.51416">
        <ele>73.8</ele>
        <time>2020-06-08T18:06:41Z</time>
      </trkpt>
      <trkpt lat="48.38918" lon="-4.51422">
        <ele>73.9</ele>
        <time>2020-06-08T18:06:42Z</time>
      </trkpt>
      <trkpt lat="48.38915" lon="-4.51428">
        <ele>73.9</ele>
        <time>2020-06-08T18:06:43Z</time>
      </trkpt>
      <trkpt lat="48.38914" lon="-4.51433">
        <ele>74</ele>
        <time>2020-06-08T18:06:44Z</time>
      </trkpt>
      <trkpt lat="48.38912" lon="-4.51439">
        <ele>74</ele>
        <time>2020-06-08T18:06:45Z</time>
      </trkpt>
      <trkpt lat="48.3891" lon="-4.51444">
        <ele>74.1</ele>
        <time>2020-06-08T18:06:46Z</time>
      </trkpt>
      <trkpt lat="48.38907" lon="-4.5145">
        <ele>74.1</ele>
        <time>2020-06-08T18:06:47Z</time>
      </trkpt>
      <trkpt lat="48.38905" lon="-4.51456">
        <ele>74.2</ele>
        <time>2020-06-08T18:06:48Z</time>
      </trkpt>
      <trkpt lat="48.38903" lon="-4.51463">
        <ele>74.2</ele>
        <time>2020-06-08T18:06:49Z</time>
      </trkpt>
      <trkpt lat="48.389" lon="-4.51468">
        <ele>74.2</ele>
        <time>2020-06-08T18:06:50Z</time>
      </trkpt>
      <trkpt lat="48.38899" lon="-4.51473">
        <ele>74.2</ele>
        <time>2020-06-08T18:06:51Z</time>
      </trkpt>
      <trkpt lat="48.38897" lon="-4.51476">
        <ele>74.2</ele>
        <time>2020-06-08T18:06:52Z</time>
      </trkpt>
      <trkpt lat="48.38894" lon="-4.51481">
        <ele>74.2</ele>
        <time>2020-06-08T18:06:53Z</time>
      </trkpt>
      <trkpt lat="48.38892" lon="-4.51486">
        <ele>74.2</ele>
        <time>2020-06-08T18:06:54Z</time>
      </trkpt>
      <trkpt lat="48.38888" lon="-4.51491">
        <ele>74.2</ele>
        <time>2020-06-08T18:06:55Z</time>
      </trkpt>
      <trkpt lat="48.38884" lon="-4.51497">
        <ele>74.2</ele>
        <time>2020-06-08T18:06:56Z</time>
      </trkpt>
      <trkpt lat="48.38882" lon="-4.51502">
        <ele>74.2</ele>
        <time>2020-06-08T18:06:57Z</time>
      </trkpt>
      <trkpt lat="48.38878" lon="-4.51507">
        <ele>74.2</ele>
        <time>2020-06-08T18:06:58Z</time>
      </trkpt>
      <trkpt lat="48.38876" lon="-4.51512">
        <ele>74.2</ele>
        <time>2020-06-08T18:06:59Z</time>
      </trkpt>
      <trkpt lat="48.38872" lon="-4.51518">
        <ele>74.2</ele>
        <time>2020-06-08T18:07:00Z</time>
      </trkpt>
      <trkpt lat="48.3887" lon="-4.51523">
        <ele>74.2</ele>
        <time>2020-06-08T18:07:01Z</time>
      </trkpt>
      <trkpt lat="48.38867" lon="-4.51528">
        <ele>74.1</ele>
        <time>2020-06-08T18:07:02Z</time>
      </trkpt>
      <trkpt lat="48.38864" lon="-4.51534">
        <ele>74.1</ele>
        <time>2020-06-08T18:07:03Z</time>
      </trkpt>
      <trkpt lat="48.3886" lon="-4.51538">
        <ele>74</ele>
        <time>2020-06-08T18:07:04Z</time>
      </trkpt>
      <trkpt lat="48.38857" lon="-4.51544">
        <ele>73.9</ele>
        <time>2020-06-08T18:07:05Z</time>
      </trkpt>
      <trkpt lat="48.38854" lon="-4.51551">
        <ele>73.8</ele>
        <time>2020-06-08T18:07:06Z</time>
      </trkpt>
      <trkpt lat="48.38851" lon="-4.51559">
        <ele>73.6</ele>
        <time>2020-06-08T18:07:07Z</time>
      </trkpt>
      <trkpt lat="48.38849" lon="-4.51567">
        <ele>73.4</ele>
        <time>2020-06-08T18:07:08Z</time>
      </trkpt>
      <trkpt lat="48.38846" lon="-4.51571">
        <ele>73.2</ele>
        <time>2020-06-08T18:07:09Z</time>
      </trkpt>
      <trkpt lat="48.38845" lon="-4.51574">
        <ele>73.1</ele>
        <time>2020-06-08T18:07:10Z</time>
      </trkpt>
      <trkpt lat="48.38843" lon="-4.51574">
        <ele>73</ele>
        <time>2020-06-08T18:07:11Z</time>
      </trkpt>
      <trkpt lat="48.38842" lon="-4.51578">
        <ele>72.9</ele>
        <time>2020-06-08T18:07:12Z</time>
      </trkpt>
      <trkpt lat="48.38842" lon="-4.5158">
        <ele>72.8</ele>
        <time>2020-06-08T18:07:13Z</time>
      </trkpt>
      <trkpt lat="48.38842" lon="-4.51582">
        <ele>72.8</ele>
        <time>2020-06-08T18:07:14Z</time>
      </trkpt>
      <trkpt lat="48.38838" lon="-4.51587">
        <ele>72.7</ele>
        <time>2020-06-08T18:07:15Z</time>
      </trkpt>
      <trkpt lat="48.38835" lon="-4.51591">
        <ele>72.7</ele>
        <time>2020-06-08T18:07:16Z</time>
      </trkpt>
      <trkpt lat="48.38833" lon="-4.51596">
        <ele>72.6</ele>
        <time>2020-06-08T18:07:17Z</time>
      </trkpt>
      <trkpt lat="48.3883" lon="-4.51599">
        <ele>72.6</ele>
        <time>2020-06-08T18:07:18Z</time>
      </trkpt>
      <trkpt lat="48.38827" lon="-4.51604">
        <ele>72.6</ele>
        <time>2020-06-08T18:07:19Z</time>
      </trkpt>
      <trkpt lat="48.38824" lon="-4.51609">
        <ele>72.6</ele>
        <time>2020-06-08T18:07:20Z</time>
      </trkpt>
      <trkpt lat="48.3882" lon="-4.51614">
        <ele>72.6</ele>
        <time>2020-06-08T18:07:21Z</time>
      </trkpt>
      <trkpt lat="48.38817" lon="-4.5162">
        <ele>72.6</ele>
        <time>2020-06-08T18:07:22Z</time>
      </trkpt>
      <trkpt lat="48.38813" lon="-4.51624">
        <ele>72.7</ele>
        <time>2020-06-08T18:07:23Z</time>
      </trkpt>
      <trkpt lat="48.3881" lon="-4.5163">
        <ele>72.8</ele>
        <time>2020-06-08T18:07:24Z</time>
      </trkpt>
      <trkpt lat="48.38807" lon="-4.51636">
        <ele>72.9</ele>
        <time>2020-06-08T18:07:25Z</time>
      </trkpt>
      <trkpt lat="48.38804" lon="-4.51642">
        <ele>73</ele>
        <time>2020-06-08T18:07:26Z</time>
      </trkpt>
      <trkpt lat="48.38802" lon="-4.51646">
        <ele>73.2</ele>
        <time>2020-06-08T18:07:27Z</time>
      </trkpt>
      <trkpt lat="48.388" lon="-4.51652">
        <ele>73.3</ele>
        <time>2020-06-08T18:07:28Z</time>
      </trkpt>
      <trkpt lat="48.38799" lon="-4.51657">
        <ele>73.5</ele>
        <time>2020-06-08T18:07:29Z</time>
      </trkpt>
      <trkpt lat="48.38797" lon="-4.51664">
        <ele>73.8</ele>
        <time>2020-06-08T18:07:30Z</time>
      </trkpt>
      <trkpt lat="48.38796" lon="-4.5167">
        <ele>74</ele>
        <time>2020-06-08T18:07:31Z</time>
      </trkpt>
      <trkpt lat="48.38794" lon="-4.51675">
        <ele>74.2</ele>
        <time>2020-06-08T18:07:32Z</time>
      </trkpt>
      <trkpt lat="48.38793" lon="-4.51683">
        <ele>74.5</ele>
        <time>2020-06-08T18:07:33Z</time>
      </trkpt>
      <trkpt lat="48.38792" lon="-4.51688">
        <ele>74.7</ele>
        <time>2020-06-08T18:07:34Z</time>
      </trkpt>
      <trkpt lat="48.38793" lon="-4.51694">
        <ele>74.9</ele>
        <time>2020-06-08T18:07:35Z</time>
      </trkpt>
      <trkpt lat="48.38792" lon="-4.517">
        <ele>75.2</ele>
        <time>2020-06-08T18:07:36Z</time>
      </trkpt>
      <trkpt lat="48.38791" lon="-4.51706">
        <ele>75.4</ele>
        <time>2020-06-08T18:07:37Z</time>
      </trkpt>
      <trkpt lat="48.38791" lon="-4.51713">
        <ele>75.7</ele>
        <time>2020-06-08T18:07:38Z</time>
      </trkpt>
      <trkpt lat="48.3879" lon="-4.51719">
        <ele>75.9</ele>
        <time>2020-06-08T18:07:39Z</time>
      </trkpt>
      <trkpt lat="48.38789" lon="-4.51725">
        <ele>76.2</ele>
        <time>2020-06-08T18:07:40Z</time>
      </trkpt>
      <trkpt lat="48.38788" lon="-4.51731">
        <ele>76.5</ele>
        <time>2020-06-08T18:07:41Z</time>
      </trkpt>
      <trkpt lat="48.38787" lon="-4.51736">
        <ele>76.7</ele>
        <time>2020-06-08T18:07:42Z</time>
      </trkpt>
      <trkpt lat="48.38785" lon="-4.51743">
        <ele>77</ele>
        <time>2020-06-08T18:07:43Z</time>
      </trkpt>
      <trkpt lat="48.38784" lon="-4.51749">
        <ele>77.3</ele>
        <time>2020-06-08T18:07:44Z</time>
      </trkpt>
      <trkpt lat="48.38784" lon="-4.51756">
        <ele>77.6</ele>
        <time>2020-06-08T18:07:45Z</time>
      </trkpt>
      <trkpt lat="48.38783" lon="-4.51761">
        <ele>77.9</ele>
        <time>2020-06-08T18:07:46Z</time>
      </trkpt>
      <trkpt lat="48.38783" lon="-4.51767">
        <ele>78.1</ele>
        <time>2020-06-08T18:07:47Z</time>
      </trkpt>
      <trkpt lat="48.38782" lon="-4.51771">
        <ele>78.3</ele>
        <time>2020-06-08T18:07:48Z</time>
      </trkpt>
      <trkpt lat="48.38781" lon="-4.51777">
        <ele>78.6</ele>
        <time>2020-06-08T18:07:49Z</time>
      </trkpt>
      <trkpt lat="48.38781" lon="-4.51783">
        <ele>78.9</ele>
        <time>2020-06-08T18:07:50Z</time>
      </trkpt>
      <trkpt lat="48.38781" lon="-4.51789">
        <ele>79.2</ele>
        <time>2020-06-08T18:07:51Z</time>
      </trkpt>
      <trkpt lat="48.38779" lon="-4.51795">
        <ele>79.5</ele>
        <time>2020-06-08T18:07:52Z</time>
      </trkpt>
      <trkpt lat="48.38778" lon="-4.51799">
        <ele>79.7</ele>
        <time>2020-06-08T18:07:53Z</time>
      </trkpt>
      <trkpt lat="48.38776" lon="-4.51805">
        <ele>80</ele>
        <time>2020-06-08T18:07:54Z</time>
      </trkpt>
      <trkpt lat="48.38775" lon="-4.5181">
        <ele>80.2</ele>
        <time>2020-06-08T18:07:55Z</time>
      </trkpt>
      <trkpt lat="48.38773" lon="-4.51815">
        <ele>80.3</ele>
        <time>2020-06-08T18:07:56Z</time>
      </trkpt>
      <trkpt lat="48.38772" lon="-4.51818">
        <ele>80.5</ele>
        <time>2020-06-08T18:07:57Z</time>
      </trkpt>
      <trkpt lat="48.38771" lon="-4.51823">
        <ele>80.7</ele>
        <time>2020-06-08T18:07:58Z</time>
      </trkpt>
      <trkpt lat="48.38769" lon="-4.51827">
        <ele>80.9</ele>
        <time>2020-06-08T18:07:59Z</time>
      </trkpt>
      <trkpt lat="48.38767" lon="-4.51831">
        <ele>81</ele>
        <time>2020-06-08T18:08:00Z</time>
      </trkpt>
      <trkpt lat="48.38765" lon="-4.51837">
        <ele>81.3</ele>
        <time>2020-06-08T18:08:01Z</time>
      </trkpt>
      <trkpt lat="48.38762" lon="-4.51842">
        <ele>81.5</ele>
        <time>2020-06-08T18:08:02Z</time>
      </trkpt>
      <trkpt lat="48.3876" lon="-4.51847">
        <ele>81.7</ele>
        <time>2020-06-08T18:08:03Z</time>
      </trkpt>
      <trkpt lat="48.38756" lon="-4.51851">
        <ele>81.8</ele>
        <time>2020-06-08T18:08:04Z</time>
      </trkpt>
      <trkpt lat="48.38755" lon="-4.51857">
        <ele>82</ele>
        <time>2020-06-08T18:08:05Z</time>
      </trkpt>
      <trkpt lat="48.38752" lon="-4.51861">
        <ele>82.2</ele>
        <time>2020-06-08T18:08:06Z</time>
      </trkpt>
      <trkpt lat="48.38748" lon="-4.51864">
        <ele>82.3</ele>
        <time>2020-06-08T18:08:07Z</time>
      </trkpt>
      <trkpt lat="48.38746" lon="-4.51868">
        <ele>82.6</ele>
        <time>2020-06-08T18:08:08Z</time>
      </trkpt>
      <trkpt lat="48.38744" lon="-4.51872">
        <ele>82.7</ele>
        <time>2020-06-08T18:08:09Z</time>
      </trkpt>
      <trkpt lat="48.38741" lon="-4.51875">
        <ele>82.9</ele>
        <time>2020-06-08T18:08:10Z</time>
      </trkpt>
      <trkpt lat="48.38738" lon="-4.51877">
        <ele>83</ele>
        <time>2020-06-08T18:08:11Z</time>
      </trkpt>
      <trkpt lat="48.38735" lon="-4.51881">
        <ele>83.1</ele>
        <time>2020-06-08T18:08:12Z</time>
      </trkpt>
      <trkpt lat="48.38733" lon="-4.51883">
        <ele>83.2</ele>
        <time>2020-06-08T18:08:13Z</time>
      </trkpt>
      <trkpt lat="48.38731" lon="-4.51886">
        <ele>83.3</ele>
        <time>2020-06-08T18:08:14Z</time>
      </trkpt>
      <trkpt lat="48.38729" lon="-4.51889">
        <ele>83.4</ele>
        <time>2020-06-08T18:08:15Z</time>
      </trkpt>
      <trkpt lat="48.38726" lon="-4.51893">
        <ele>83.5</ele>
        <time>2020-06-08T18:08:16Z</time>
      </trkpt>
      <trkpt lat="48.38722" lon="-4.51896">
        <ele>83.7</ele>
        <time>2020-06-08T18:08:17Z</time>
      </trkpt>
      <trkpt lat="48.38719" lon="-4.519">
        <ele>83.8</ele>
        <time>2020-06-08T18:08:18Z</time>
      </trkpt>
      <trkpt lat="48.38716" lon="-4.51904">
        <ele>84</ele>
        <time>2020-06-08T18:08:19Z</time>
      </trkpt>
      <trkpt lat="48.38713" lon="-4.51908">
        <ele>84.1</ele>
        <time>2020-06-08T18:08:20Z</time>
      </trkpt>
      <trkpt lat="48.38711" lon="-4.51911">
        <ele>84.2</ele>
        <time>2020-06-08T18:08:21Z</time>
      </trkpt>
      <trkpt lat="48.38708" lon="-4.51914">
        <ele>84.3</ele>
        <time>2020-06-08T18:08:22Z</time>
      </trkpt>
      <trkpt lat="48.38704" lon="-4.51916">
        <ele>84.5</ele>
        <time>2020-06-08T18:08:23Z</time>
      </trkpt>
      <trkpt lat="48.38701" lon="-4.51919">
        <ele>84.6</ele>
        <time>2020-06-08T18:08:24Z</time>
      </trkpt>
      <trkpt lat="48.38696" lon="-4.5192">
        <ele>84.7</ele>
        <time>2020-06-08T18:08:25Z</time>
      </trkpt>
      <trkpt lat="48.38693" lon="-4.51922">
        <ele>84.7</ele>
        <time>2020-06-08T18:08:26Z</time>
      </trkpt>
      <trkpt lat="48.3869" lon="-4.51926">
        <ele>84.8</ele>
        <time>2020-06-08T18:08:27Z</time>
      </trkpt>
      <trkpt lat="48.38689" lon="-4.51932">
        <ele>84.8</ele>
        <time>2020-06-08T18:08:28Z</time>
      </trkpt>
      <trkpt lat="48.38687" lon="-4.51939">
        <ele>84.9</ele>
        <time>2020-06-08T18:08:29Z</time>
      </trkpt>
      <trkpt lat="48.38685" lon="-4.51945">
        <ele>85</ele>
        <time>2020-06-08T18:08:30Z</time>
      </trkpt>
      <trkpt lat="48.38683" lon="-4.51953">
        <ele>85</ele>
        <time>2020-06-08T18:08:31Z</time>
      </trkpt>
      <trkpt lat="48.38682" lon="-4.51958">
        <ele>85.1</ele>
        <time>2020-06-08T18:08:32Z</time>
      </trkpt>
      <trkpt lat="48.38682" lon="-4.51965">
        <ele>85.1</ele>
        <time>2020-06-08T18:08:33Z</time>
      </trkpt>
      <trkpt lat="48.38682" lon="-4.51971">
        <ele>85.1</ele>
        <time>2020-06-08T18:08:34Z</time>
      </trkpt>
      <trkpt lat="48.38682" lon="-4.51977">
        <ele>85.2</ele>
        <time>2020-06-08T18:08:35Z</time>
      </trkpt>
      <trkpt lat="48.38683" lon="-4.51984">
        <ele>85.2</ele>
        <time>2020-06-08T18:08:36Z</time>
      </trkpt>
      <trkpt lat="48.38683" lon="-4.5199">
        <ele>85.2</ele>
        <time>2020-06-08T18:08:37Z</time>
      </trkpt>
      <trkpt lat="48.38686" lon="-4.51997">
        <ele>85.2</ele>
        <time>2020-06-08T18:08:38Z</time>
      </trkpt>
      <trkpt lat="48.38687" lon="-4.52003">
        <ele>85.3</ele>
        <time>2020-06-08T18:08:39Z</time>
      </trkpt>
      <trkpt lat="48.38688" lon="-4.52009">
        <ele>85.3</ele>
        <time>2020-06-08T18:08:40Z</time>
      </trkpt>
      <trkpt lat="48.3869" lon="-4.52016">
        <ele>85.4</ele>
        <time>2020-06-08T18:08:41Z</time>
      </trkpt>
      <trkpt lat="48.38691" lon="-4.52024">
        <ele>85.4</ele>
        <time>2020-06-08T18:08:42Z</time>
      </trkpt>
      <trkpt lat="48.38692" lon="-4.52032">
        <ele>85.5</ele>
        <time>2020-06-08T18:08:43Z</time>
      </trkpt>
      <trkpt lat="48.38694" lon="-4.52037">
        <ele>85.6</ele>
        <time>2020-06-08T18:08:44Z</time>
      </trkpt>
      <trkpt lat="48.38694" lon="-4.52044">
        <ele>85.6</ele>
        <time>2020-06-08T18:08:45Z</time>
      </trkpt>
      <trkpt lat="48.38695" lon="-4.52051">
        <ele>85.7</ele>
        <time>2020-06-08T18:08:46Z</time>
      </trkpt>
      <trkpt lat="48.38696" lon="-4.52057">
        <ele>85.7</ele>
        <time>2020-06-08T18:08:47Z</time>
      </trkpt>
      <trkpt lat="48.38698" lon="-4.52061">
        <ele>85.7</ele>
        <time>2020-06-08T18:08:48Z</time>
      </trkpt>
      <trkpt lat="48.387" lon="-4.52066">
        <ele>85.8</ele>
        <time>2020-06-08T18:08:49Z</time>
      </trkpt>
      <trkpt lat="48.38702" lon="-4.5207">
        <ele>85.8</ele>
        <time>2020-06-08T18:08:50Z</time>
      </trkpt>
      <trkpt lat="48.38704" lon="-4.52076">
        <ele>85.8</ele>
        <time>2020-06-08T18:08:51Z</time>
      </trkpt>
      <trkpt lat="48.38706" lon="-4.52082">
        <ele>85.8</ele>
        <time>2020-06-08T18:08:52Z</time>
      </trkpt>
      <trkpt lat="48.38707" lon="-4.52088">
        <ele>85.8</ele>
        <time>2020-06-08T18:08:53Z</time>
      </trkpt>
      <trkpt lat="48.38708" lon="-4.52091">
        <ele>85.8</ele>
        <time>2020-06-08T18:08:54Z</time>
      </trkpt>
      <trkpt lat="48.3871" lon="-4.52096">
        <ele>85.8</ele>
        <time>2020-06-08T18:08:55Z</time>
      </trkpt>
      <trkpt lat="48.38711" lon="-4.52103">
        <ele>85.8</ele>
        <time>2020-06-08T18:08:56Z</time>
      </trkpt>
      <trkpt lat="48.38712" lon="-4.5211">
        <ele>85.9</ele>
        <time>2020-06-08T18:08:57Z</time>
      </trkpt>
      <trkpt lat="48.38714" lon="-4.52117">
        <ele>85.9</ele>
        <time>2020-06-08T18:08:58Z</time>
      </trkpt>
      <trkpt lat="48.38716" lon="-4.52126">
        <ele>85.9</ele>
        <time>2020-06-08T18:08:59Z</time>
      </trkpt>
      <trkpt lat="48.38719" lon="-4.52134">
        <ele>86</ele>
        <time>2020-06-08T18:09:00Z</time>
      </trkpt>
      <trkpt lat="48.3872" lon="-4.52139">
        <ele>86</ele>
        <time>2020-06-08T18:09:01Z</time>
      </trkpt>
      <trkpt lat="48.38722" lon="-4.52146">
        <ele>86</ele>
        <time>2020-06-08T18:09:02Z</time>
      </trkpt>
      <trkpt lat="48.38723" lon="-4.52153">
        <ele>86.1</ele>
        <time>2020-06-08T18:09:03Z</time>
      </trkpt>
      <trkpt lat="48.38726" lon="-4.52159">
        <ele>86.2</ele>
        <time>2020-06-08T18:09:04Z</time>
      </trkpt>
      <trkpt lat="48.38728" lon="-4.52168">
        <ele>86.3</ele>
        <time>2020-06-08T18:09:05Z</time>
      </trkpt>
      <trkpt lat="48.38731" lon="-4.52174">
        <ele>86.4</ele>
        <time>2020-06-08T18:09:06Z</time>
      </trkpt>
      <trkpt lat="48.38734" lon="-4.5218">
        <ele>86.5</ele>
        <time>2020-06-08T18:09:07Z</time>
      </trkpt>
      <trkpt lat="48.38736" lon="-4.52187">
        <ele>86.6</ele>
        <time>2020-06-08T18:09:08Z</time>
      </trkpt>
      <trkpt lat="48.38738" lon="-4.52193">
        <ele>86.7</ele>
        <time>2020-06-08T18:09:09Z</time>
      </trkpt>
      <trkpt lat="48.3874" lon="-4.52199">
        <ele>86.8</ele>
        <time>2020-06-08T18:09:10Z</time>
      </trkpt>
      <trkpt lat="48.38741" lon="-4.52206">
        <ele>87</ele>
        <time>2020-06-08T18:09:11Z</time>
      </trkpt>
      <trkpt lat="48.38742" lon="-4.52215">
        <ele>87.1</ele>
        <time>2020-06-08T18:09:12Z</time>
      </trkpt>
      <trkpt lat="48.38744" lon="-4.52221">
        <ele>87.2</ele>
        <time>2020-06-08T18:09:13Z</time>
      </trkpt>
      <trkpt lat="48.38745" lon="-4.52226">
        <ele>87.4</ele>
        <time>2020-06-08T18:09:14Z</time>
      </trkpt>
      <trkpt lat="48.38747" lon="-4.52231">
        <ele>87.5</ele>
        <time>2020-06-08T18:09:15Z</time>
      </trkpt>
      <trkpt lat="48.38748" lon="-4.52236">
        <ele>87.6</ele>
        <time>2020-06-08T18:09:16Z</time>
      </trkpt>
      <trkpt lat="48.38749" lon="-4.52242">
        <ele>87.7</ele>
        <time>2020-06-08T18:09:17Z</time>
      </trkpt>
      <trkpt lat="48.3875" lon="-4.52248">
        <ele>87.8</ele>
        <time>2020-06-08T18:09:18Z</time>
      </trkpt>
      <trkpt lat="48.3875" lon="-4.52253">
        <ele>87.9</ele>
        <time>2020-06-08T18:09:19Z</time>
      </trkpt>
      <trkpt lat="48.38752" lon="-4.52257">
        <ele>88</ele>
        <time>2020-06-08T18:09:20Z</time>
      </trkpt>
      <trkpt lat="48.38752" lon="-4.52262">
        <ele>88.1</ele>
        <time>2020-06-08T18:09:21Z</time>
      </trkpt>
      <trkpt lat="48.38752" lon="-4.52267">
        <ele>88.3</ele>
        <time>2020-06-08T18:09:22Z</time>
      </trkpt>
      <trkpt lat="48.38753" lon="-4.52274">
        <ele>88.4</ele>
        <time>2020-06-08T18:09:23Z</time>
      </trkpt>
      <trkpt lat="48.38754" lon="-4.5228">
        <ele>88.7</ele>
        <time>2020-06-08T18:09:24Z</time>
      </trkpt>
      <trkpt lat="48.38755" lon="-4.52285">
        <ele>88.8</ele>
        <time>2020-06-08T18:09:25Z</time>
      </trkpt>
      <trkpt lat="48.38755" lon="-4.5229">
        <ele>88.9</ele>
        <time>2020-06-08T18:09:26Z</time>
      </trkpt>
      <trkpt lat="48.38754" lon="-4.52295">
        <ele>89</ele>
        <time>2020-06-08T18:09:27Z</time>
      </trkpt>
      <trkpt lat="48.38753" lon="-4.523">
        <ele>89.1</ele>
        <time>2020-06-08T18:09:28Z</time>
      </trkpt>
      <trkpt lat="48.38752" lon="-4.52305">
        <ele>89.3</ele>
        <time>2020-06-08T18:09:29Z</time>
      </trkpt>
      <trkpt lat="48.38752" lon="-4.52311">
        <ele>89.4</ele>
        <time>2020-06-08T18:09:30Z</time>
      </trkpt>
      <trkpt lat="48.38751" lon="-4.52318">
        <ele>89.5</ele>
        <time>2020-06-08T18:09:31Z</time>
      </trkpt>
      <trkpt lat="48.38751" lon="-4.52325">
        <ele>89.7</ele>
        <time>2020-06-08T18:09:32Z</time>
      </trkpt>
      <trkpt lat="48.3875" lon="-4.52331">
        <ele>89.8</ele>
        <time>2020-06-08T18:09:33Z</time>
      </trkpt>
      <trkpt lat="48.38748" lon="-4.52336">
        <ele>90</ele>
        <time>2020-06-08T18:09:34Z</time>
      </trkpt>
      <trkpt lat="48.38748" lon="-4.52341">
        <ele>90.1</ele>
        <time>2020-06-08T18:09:35Z</time>
      </trkpt>
      <trkpt lat="48.38747" lon="-4.52347">
        <ele>90.2</ele>
        <time>2020-06-08T18:09:36Z</time>
      </trkpt>
      <trkpt lat="48.38746" lon="-4.52352">
        <ele>90.4</ele>
        <time>2020-06-08T18:09:37Z</time>
      </trkpt>
      <trkpt lat="48.38745" lon="-4.52357">
        <ele>90.5</ele>
        <time>2020-06-08T18:09:38Z</time>
      </trkpt>
      <trkpt lat="48.38743" lon="-4.52363">
        <ele>90.6</ele>
        <time>2020-06-08T18:09:39Z</time>
      </trkpt>
      <trkpt lat="48.38743" lon="-4.52368">
        <ele>90.7</ele>
        <time>2020-06-08T18:09:40Z</time>
      </trkpt>
      <trkpt lat="48.38743" lon="-4.52374">
        <ele>90.9</ele>
        <time>2020-06-08T18:09:41Z</time>
      </trkpt>
      <trkpt lat="48.38742" lon="-4.5238">
        <ele>91</ele>
        <time>2020-06-08T18:09:42Z</time>
      </trkpt>
      <trkpt lat="48.38742" lon="-4.52385">
        <ele>91.1</ele>
        <time>2020-06-08T18:09:43Z</time>
      </trkpt>
      <trkpt lat="48.3874" lon="-4.5239">
        <ele>91.3</ele>
        <time>2020-06-08T18:09:44Z</time>
      </trkpt>
      <trkpt lat="48.38739" lon="-4.52395">
        <ele>91.4</ele>
        <time>2020-06-08T18:09:45Z</time>
      </trkpt>
      <trkpt lat="48.38739" lon="-4.52399">
        <ele>91.5</ele>
        <time>2020-06-08T18:09:46Z</time>
      </trkpt>
      <trkpt lat="48.38738" lon="-4.52407">
        <ele>91.7</ele>
        <time>2020-06-08T18:09:47Z</time>
      </trkpt>
      <trkpt lat="48.38737" lon="-4.52412">
        <ele>91.9</ele>
        <time>2020-06-08T18:09:48Z</time>
      </trkpt>
      <trkpt lat="48.38736" lon="-4.52418">
        <ele>92</ele>
        <time>2020-06-08T18:09:49Z</time>
      </trkpt>
      <trkpt lat="48.38735" lon="-4.52425">
        <ele>92.1</ele>
        <time>2020-06-08T18:09:50Z</time>
      </trkpt>
      <trkpt lat="48.38735" lon="-4.5243">
        <ele>92.3</ele>
        <time>2020-06-08T18:09:51Z</time>
      </trkpt>
      <trkpt lat="48.38734" lon="-4.52435">
        <ele>92.4</ele>
        <time>2020-06-08T18:09:52Z</time>
      </trkpt>
      <trkpt lat="48.38733" lon="-4.52441">
        <ele>92.5</ele>
        <time>2020-06-08T18:09:53Z</time>
      </trkpt>
      <trkpt lat="48.38733" lon="-4.52446">
        <ele>92.6</ele>
        <time>2020-06-08T18:09:54Z</time>
      </trkpt>
      <trkpt lat="48.38733" lon="-4.52452">
        <ele>92.8</ele>
        <time>2020-06-08T18:09:55Z</time>
      </trkpt>
      <trkpt lat="48.38732" lon="-4.52456">
        <ele>93</ele>
        <time>2020-06-08T18:09:56Z</time>
      </trkpt>
      <trkpt lat="48.38732" lon="-4.52461">
        <ele>93.1</ele>
        <time>2020-06-08T18:09:57Z</time>
      </trkpt>
      <trkpt lat="48.38732" lon="-4.52466">
        <ele>93.2</ele>
        <time>2020-06-08T18:09:58Z</time>
      </trkpt>
      <trkpt lat="48.38732" lon="-4.52471">
        <ele>93.3</ele>
        <time>2020-06-08T18:09:59Z</time>
      </trkpt>
      <trkpt lat="48.38731" lon="-4.52476">
        <ele>93.4</ele>
        <time>2020-06-08T18:10:00Z</time>
      </trkpt>
      <trkpt lat="48.3873" lon="-4.52481">
        <ele>93.4</ele>
        <time>2020-06-08T18:10:01Z</time>
      </trkpt>
      <trkpt lat="48.38727" lon="-4.52487">
        <ele>93.6</ele>
        <time>2020-06-08T18:10:02Z</time>
      </trkpt>
      <trkpt lat="48.38726" lon="-4.52493">
        <ele>93.7</ele>
        <time>2020-06-08T18:10:03Z</time>
      </trkpt>
      <trkpt lat="48.38725" lon="-4.52499">
        <ele>93.7</ele>
        <time>2020-06-08T18:10:04Z</time>
      </trkpt>
      <trkpt lat="48.38724" lon="-4.52504">
        <ele>93.8</ele>
        <time>2020-06-08T18:10:05Z</time>
      </trkpt>
      <trkpt lat="48.38724" lon="-4.5251">
        <ele>93.9</ele>
        <time>2020-06-08T18:10:06Z</time>
      </trkpt>
      <trkpt lat="48.38724" lon="-4.52513">
        <ele>93.9</ele>
        <time>2020-06-08T18:10:07Z</time>
      </trkpt>
      <trkpt lat="48.38723" lon="-4.52519">
        <ele>93.9</ele>
        <time>2020-06-08T18:10:08Z</time>
      </trkpt>
      <trkpt lat="48.38722" lon="-4.52523">
        <ele>94</ele>
        <time>2020-06-08T18:10:09Z</time>
      </trkpt>
      <trkpt lat="48.38721" lon="-4.52527">
        <ele>94</ele>
        <time>2020-06-08T18:10:10Z</time>
      </trkpt>
      <trkpt lat="48.38721" lon="-4.52532">
        <ele>94</ele>
        <time>2020-06-08T18:10:11Z</time>
      </trkpt>
      <trkpt lat="48.3872" lon="-4.52537">
        <ele>94.1</ele>
        <time>2020-06-08T18:10:12Z</time>
      </trkpt>
      <trkpt lat="48.38719" lon="-4.52541">
        <ele>94.1</ele>
        <time>2020-06-08T18:10:13Z</time>
      </trkpt>
      <trkpt lat="48.3872" lon="-4.52548">
        <ele>94.2</ele>
        <time>2020-06-08T18:10:14Z</time>
      </trkpt>
      <trkpt lat="48.38719" lon="-4.52551">
        <ele>94.2</ele>
        <time>2020-06-08T18:10:15Z</time>
      </trkpt>
      <trkpt lat="48.38718" lon="-4.52557">
        <ele>94.3</ele>
        <time>2020-06-08T18:10:16Z</time>
      </trkpt>
      <trkpt lat="48.38718" lon="-4.52564">
        <ele>94.4</ele>
        <time>2020-06-08T18:10:17Z</time>
      </trkpt>
      <trkpt lat="48.38717" lon="-4.52568">
        <ele>94.4</ele>
        <time>2020-06-08T18:10:18Z</time>
      </trkpt>
      <trkpt lat="48.38716" lon="-4.52573">
        <ele>94.5</ele>
        <time>2020-06-08T18:10:19Z</time>
      </trkpt>
      <trkpt lat="48.38716" lon="-4.52581">
        <ele>94.5</ele>
        <time>2020-06-08T18:10:20Z</time>
      </trkpt>
      <trkpt lat="48.38716" lon="-4.52586">
        <ele>94.6</ele>
        <time>2020-06-08T18:10:21Z</time>
      </trkpt>
      <trkpt lat="48.38715" lon="-4.52591">
        <ele>94.6</ele>
        <time>2020-06-08T18:10:22Z</time>
      </trkpt>
      <trkpt lat="48.38715" lon="-4.52596">
        <ele>94.6</ele>
        <time>2020-06-08T18:10:23Z</time>
      </trkpt>
      <trkpt lat="48.38715" lon="-4.52601">
        <ele>94.7</ele>
        <time>2020-06-08T18:10:24Z</time>
      </trkpt>
      <trkpt lat="48.38714" lon="-4.52606">
        <ele>94.7</ele>
        <time>2020-06-08T18:10:25Z</time>
      </trkpt>
      <trkpt lat="48.38713" lon="-4.52611">
        <ele>94.7</ele>
        <time>2020-06-08T18:10:26Z</time>
      </trkpt>
      <trkpt lat="48.38712" lon="-4.52617">
        <ele>94.7</ele>
        <time>2020-06-08T18:10:27Z</time>
      </trkpt>
      <trkpt lat="48.38711" lon="-4.52622">
        <ele>94.8</ele>
        <time>2020-06-08T18:10:28Z</time>
      </trkpt>
      <trkpt lat="48.3871" lon="-4.52627">
        <ele>94.8</ele>
        <time>2020-06-08T18:10:29Z</time>
      </trkpt>
      <trkpt lat="48.3871" lon="-4.52633">
        <ele>94.8</ele>
        <time>2020-06-08T18:10:30Z</time>
      </trkpt>
      <trkpt lat="48.38709" lon="-4.52638">
        <ele>94.9</ele>
        <time>2020-06-08T18:10:31Z</time>
      </trkpt>
      <trkpt lat="48.38708" lon="-4.52643">
        <ele>94.9</ele>
        <time>2020-06-08T18:10:32Z</time>
      </trkpt>
      <trkpt lat="48.38708" lon="-4.52644">
        <ele>94.9</ele>
        <time>2020-06-08T18:10:33Z</time>
      </trkpt>
      <trkpt lat="48.38707" lon="-4.52648">
        <ele>94.9</ele>
        <time>2020-06-08T18:10:34Z</time>
      </trkpt>
      <trkpt lat="48.38707" lon="-4.52649">
        <ele>94.9</ele>
        <time>2020-06-08T18:10:35Z</time>
      </trkpt>
      <trkpt lat="48.38708" lon="-4.52651">
        <ele>94.9</ele>
        <time>2020-06-08T18:10:36Z</time>
      </trkpt>
      <trkpt lat="48.38708" lon="-4.52653">
        <ele>94.9</ele>
        <time>2020-06-08T18:10:37Z</time>
      </trkpt>
      <trkpt lat="48.38708" lon="-4.52654">
        <ele>94.9</ele>
        <time>2020-06-08T18:10:38Z</time>
      </trkpt>
      <trkpt lat="48.38709" lon="-4.52655">
        <ele>94.9</ele>
        <time>2020-06-08T18:10:39Z</time>
      </trkpt>
      <trkpt lat="48.38709" lon="-4.52655">
        <ele>94.9</ele>
        <time>2020-06-08T18:10:40Z</time>
      </trkpt>
      <trkpt lat="48.38709" lon="-4.52656">
        <ele>94.9</ele>
        <time>2020-06-08T18:10:41Z</time>
      </trkpt>
      <trkpt lat="48.38709" lon="-4.52656">
        <ele>94.9</ele>
        <time>2020-06-08T18:10:42Z</time>
      </trkpt>
      <trkpt lat="48.38709" lon="-4.52657">
        <ele>94.9</ele>
        <time>2020-06-08T18:10:43Z</time>
      </trkpt>
      <trkpt lat="48.38709" lon="-4.52657">
        <ele>94.9</ele>
        <time>2020-06-08T18:10:44Z</time>
      </trkpt>
      <trkpt lat="48.38709" lon="-4.52658">
        <ele>94.9</ele>
        <time>2020-06-08T18:10:45Z</time>
      </trkpt>
      <trkpt lat="48.38709" lon="-4.52658">
        <ele>94.9</ele>
        <time>2020-06-08T18:10:46Z</time>
      </trkpt>
      <trkpt lat="48.38709" lon="-4.52659">
        <ele>94.9</ele>
        <time>2020-06-08T18:10:47Z</time>
      </trkpt>
      <trkpt lat="48.38709" lon="-4.52659">
        <ele>94.9</ele>
        <time>2020-06-08T18:10:48Z</time>
      </trkpt>
      <trkpt lat="48.38709" lon="-4.5266">
        <ele>94.9</ele>
        <time>2020-06-08T18:10:49Z</time>
      </trkpt>
      <trkpt lat="48.38709" lon="-4.5266">
        <ele>94.9</ele>
        <time>2020-06-08T18:19:45Z</time>
      </trkpt>
      <trkpt lat="48.3871" lon="-4.5266">
        <ele>94.9</ele>
        <time>2020-06-08T18:19:46Z</time>
      </trkpt>
      <trkpt lat="48.3871" lon="-4.52661">
        <ele>94.9</ele>
        <time>2020-06-08T18:19:47Z</time>
      </trkpt>
      <trkpt lat="48.3871" lon="-4.52666">
        <ele>94.8</ele>
        <time>2020-06-08T18:19:48Z</time>
      </trkpt>
      <trkpt lat="48.3871" lon="-4.52667">
        <ele>94.8</ele>
        <time>2020-06-08T18:19:49Z</time>
      </trkpt>
      <trkpt lat="48.38709" lon="-4.52672">
        <ele>94.8</ele>
        <time>2020-06-08T18:19:50Z</time>
      </trkpt>
      <trkpt lat="48.38709" lon="-4.52675">
        <ele>94.8</ele>
        <time>2020-06-08T18:19:51Z</time>
      </trkpt>
      <trkpt lat="48.38708" lon="-4.52679">
        <ele>94.8</ele>
        <time>2020-06-08T18:19:52Z</time>
      </trkpt>
      <trkpt lat="48.38706" lon="-4.52684">
        <ele>94.8</ele>
        <time>2020-06-08T18:19:53Z</time>
      </trkpt>
      <trkpt lat="48.38705" lon="-4.52688">
        <ele>94.8</ele>
        <time>2020-06-08T18:19:54Z</time>
      </trkpt>
      <trkpt lat="48.38705" lon="-4.52694">
        <ele>94.8</ele>
        <time>2020-06-08T18:19:55Z</time>
      </trkpt>
      <trkpt lat="48.38703" lon="-4.52699">
        <ele>94.8</ele>
        <time>2020-06-08T18:19:56Z</time>
      </trkpt>
      <trkpt lat="48.38703" lon="-4.52705">
        <ele>94.8</ele>
        <time>2020-06-08T18:19:57Z</time>
      </trkpt>
      <trkpt lat="48.38702" lon="-4.52711">
        <ele>94.8</ele>
        <time>2020-06-08T18:19:58Z</time>
      </trkpt>
      <trkpt lat="48.38701" lon="-4.52718">
        <ele>94.7</ele>
        <time>2020-06-08T18:19:59Z</time>
      </trkpt>
      <trkpt lat="48.387" lon="-4.52724">
        <ele>94.7</ele>
        <time>2020-06-08T18:20:00Z</time>
      </trkpt>
      <trkpt lat="48.38699" lon="-4.52732">
        <ele>94.7</ele>
        <time>2020-06-08T18:20:01Z</time>
      </trkpt>
      <trkpt lat="48.38698" lon="-4.52739">
        <ele>94.6</ele>
        <time>2020-06-08T18:20:02Z</time>
      </trkpt>
      <trkpt lat="48.38697" lon="-4.52746">
        <ele>94.6</ele>
        <time>2020-06-08T18:20:03Z</time>
      </trkpt>
      <trkpt lat="48.38696" lon="-4.52753">
        <ele>94.6</ele>
        <time>2020-06-08T18:20:04Z</time>
      </trkpt>
      <trkpt lat="48.38695" lon="-4.5276">
        <ele>94.6</ele>
        <time>2020-06-08T18:20:05Z</time>
      </trkpt>
      <trkpt lat="48.38694" lon="-4.52768">
        <ele>94.6</ele>
        <time>2020-06-08T18:20:06Z</time>
      </trkpt>
      <trkpt lat="48.38692" lon="-4.52775">
        <ele>94.6</ele>
        <time>2020-06-08T18:20:07Z</time>
      </trkpt>
      <trkpt lat="48.38692" lon="-4.5278">
        <ele>94.6</ele>
        <time>2020-06-08T18:20:08Z</time>
      </trkpt>
      <trkpt lat="48.38691" lon="-4.52788">
        <ele>94.6</ele>
        <time>2020-06-08T18:20:09Z</time>
      </trkpt>
      <trkpt lat="48.3869" lon="-4.52796">
        <ele>94.6</ele>
        <time>2020-06-08T18:20:10Z</time>
      </trkpt>
      <trkpt lat="48.38689" lon="-4.52804">
        <ele>94.6</ele>
        <time>2020-06-08T18:20:11Z</time>
      </trkpt>
      <trkpt lat="48.38688" lon="-4.5281">
        <ele>94.6</ele>
        <time>2020-06-08T18:20:12Z</time>
      </trkpt>
      <trkpt lat="48.38687" lon="-4.52815">
        <ele>94.6</ele>
        <time>2020-06-08T18:20:13Z</time>
      </trkpt>
      <trkpt lat="48.38686" lon="-4.5282">
        <ele>94.6</ele>
        <time>2020-06-08T18:20:14Z</time>
      </trkpt>
      <trkpt lat="48.38685" lon="-4.52826">
        <ele>94.6</ele>
        <time>2020-06-08T18:20:15Z</time>
      </trkpt>
      <trkpt lat="48.38686" lon="-4.5283">
        <ele>94.7</ele>
        <time>2020-06-08T18:20:16Z</time>
      </trkpt>
      <trkpt lat="48.38686" lon="-4.52835">
        <ele>94.8</ele>
        <time>2020-06-08T18:20:17Z</time>
      </trkpt>
      <trkpt lat="48.38684" lon="-4.5284">
        <ele>94.7</ele>
        <time>2020-06-08T18:20:18Z</time>
      </trkpt>
      <trkpt lat="48.38683" lon="-4.52842">
        <ele>94.7</ele>
        <time>2020-06-08T18:20:19Z</time>
      </trkpt>
      <trkpt lat="48.38684" lon="-4.52847">
        <ele>94.6</ele>
        <time>2020-06-08T18:20:20Z</time>
      </trkpt>
      <trkpt lat="48.38683" lon="-4.52851">
        <ele>94.6</ele>
        <time>2020-06-08T18:20:21Z</time>
      </trkpt>
      <trkpt lat="48.38682" lon="-4.52856">
        <ele>94.6</ele>
        <time>2020-06-08T18:20:22Z</time>
      </trkpt>
      <trkpt lat="48.3868" lon="-4.52861">
        <ele>94.5</ele>
        <time>2020-06-08T18:20:23Z</time>
      </trkpt>
      <trkpt lat="48.38679" lon="-4.52867">
        <ele>94.3</ele>
        <time>2020-06-08T18:20:24Z</time>
      </trkpt>
      <trkpt lat="48.38679" lon="-4.52868">
        <ele>94.3</ele>
        <time>2020-06-08T18:20:25Z</time>
      </trkpt>
      <trkpt lat="48.38678" lon="-4.52873">
        <ele>94.2</ele>
        <time>2020-06-08T18:20:26Z</time>
      </trkpt>
      <trkpt lat="48.38676" lon="-4.52877">
        <ele>94.2</ele>
        <time>2020-06-08T18:20:27Z</time>
      </trkpt>
      <trkpt lat="48.38673" lon="-4.52882">
        <ele>94.1</ele>
        <time>2020-06-08T18:20:28Z</time>
      </trkpt>
      <trkpt lat="48.38672" lon="-4.52884">
        <ele>94.1</ele>
        <time>2020-06-08T18:20:29Z</time>
      </trkpt>
      <trkpt lat="48.38672" lon="-4.52891">
        <ele>94</ele>
        <time>2020-06-08T18:20:30Z</time>
      </trkpt>
      <trkpt lat="48.38672" lon="-4.52898">
        <ele>94</ele>
        <time>2020-06-08T18:20:31Z</time>
      </trkpt>
      <trkpt lat="48.38672" lon="-4.52904">
        <ele>93.9</ele>
        <time>2020-06-08T18:20:32Z</time>
      </trkpt>
      <trkpt lat="48.38671" lon="-4.52911">
        <ele>93.9</ele>
        <time>2020-06-08T18:20:33Z</time>
      </trkpt>
      <trkpt lat="48.3867" lon="-4.52918">
        <ele>93.8</ele>
        <time>2020-06-08T18:20:34Z</time>
      </trkpt>
      <trkpt lat="48.38668" lon="-4.52925">
        <ele>93.8</ele>
        <time>2020-06-08T18:20:35Z</time>
      </trkpt>
      <trkpt lat="48.38666" lon="-4.52932">
        <ele>93.7</ele>
        <time>2020-06-08T18:20:36Z</time>
      </trkpt>
      <trkpt lat="48.38666" lon="-4.52939">
        <ele>93.7</ele>
        <time>2020-06-08T18:20:37Z</time>
      </trkpt>
      <trkpt lat="48.38665" lon="-4.52945">
        <ele>93.6</ele>
        <time>2020-06-08T18:20:38Z</time>
      </trkpt>
      <trkpt lat="48.38664" lon="-4.52952">
        <ele>93.6</ele>
        <time>2020-06-08T18:20:39Z</time>
      </trkpt>
      <trkpt lat="48.38662" lon="-4.5296">
        <ele>93.5</ele>
        <time>2020-06-08T18:20:40Z</time>
      </trkpt>
      <trkpt lat="48.38662" lon="-4.52968">
        <ele>93.5</ele>
        <time>2020-06-08T18:20:41Z</time>
      </trkpt>
      <trkpt lat="48.38661" lon="-4.52974">
        <ele>93.4</ele>
        <time>2020-06-08T18:20:42Z</time>
      </trkpt>
      <trkpt lat="48.38661" lon="-4.52981">
        <ele>93.4</ele>
        <time>2020-06-08T18:20:43Z</time>
      </trkpt>
      <trkpt lat="48.3866" lon="-4.52986">
        <ele>93.4</ele>
        <time>2020-06-08T18:20:44Z</time>
      </trkpt>
      <trkpt lat="48.3866" lon="-4.52994">
        <ele>93.3</ele>
        <time>2020-06-08T18:20:45Z</time>
      </trkpt>
      <trkpt lat="48.38659" lon="-4.53">
        <ele>93.3</ele>
        <time>2020-06-08T18:20:46Z</time>
      </trkpt>
      <trkpt lat="48.38658" lon="-4.53008">
        <ele>93.2</ele>
        <time>2020-06-08T18:20:47Z</time>
      </trkpt>
      <trkpt lat="48.38657" lon="-4.53016">
        <ele>93.1</ele>
        <time>2020-06-08T18:20:48Z</time>
      </trkpt>
      <trkpt lat="48.38655" lon="-4.53025">
        <ele>93.1</ele>
        <time>2020-06-08T18:20:49Z</time>
      </trkpt>
      <trkpt lat="48.38654" lon="-4.53033">
        <ele>93.1</ele>
        <time>2020-06-08T18:20:50Z</time>
      </trkpt>
      <trkpt lat="48.38654" lon="-4.53042">
        <ele>93.1</ele>
        <time>2020-06-08T18:20:51Z</time>
      </trkpt>
      <trkpt lat="48.38653" lon="-4.53051">
        <ele>93.1</ele>
        <time>2020-06-08T18:20:52Z</time>
      </trkpt>
      <trkpt lat="48.38652" lon="-4.53059">
        <ele>93.1</ele>
        <time>2020-06-08T18:20:53Z</time>
      </trkpt>
      <trkpt lat="48.38651" lon="-4.53067">
        <ele>93.1</ele>
        <time>2020-06-08T18:20:54Z</time>
      </trkpt>
      <trkpt lat="48.3865" lon="-4.53075">
        <ele>93.1</ele>
        <time>2020-06-08T18:20:55Z</time>
      </trkpt>
      <trkpt lat="48.38648" lon="-4.53083">
        <ele>93.1</ele>
        <time>2020-06-08T18:20:56Z</time>
      </trkpt>
      <trkpt lat="48.38646" lon="-4.5309">
        <ele>93.1</ele>
        <time>2020-06-08T18:20:57Z</time>
      </trkpt>
      <trkpt lat="48.38644" lon="-4.53098">
        <ele>93.1</ele>
        <time>2020-06-08T18:20:58Z</time>
      </trkpt>
      <trkpt lat="48.38643" lon="-4.53107">
        <ele>93.1</ele>
        <time>2020-06-08T18:20:59Z</time>
      </trkpt>
      <trkpt lat="48.38642" lon="-4.53117">
        <ele>93.2</ele>
        <time>2020-06-08T18:21:00Z</time>
      </trkpt>
      <trkpt lat="48.3864" lon="-4.53126">
        <ele>93.2</ele>
        <time>2020-06-08T18:21:01Z</time>
      </trkpt>
      <trkpt lat="48.38638" lon="-4.53135">
        <ele>93.3</ele>
        <time>2020-06-08T18:21:02Z</time>
      </trkpt>
      <trkpt lat="48.38637" lon="-4.53143">
        <ele>93.4</ele>
        <time>2020-06-08T18:21:03Z</time>
      </trkpt>
      <trkpt lat="48.38635" lon="-4.53152">
        <ele>93.5</ele>
        <time>2020-06-08T18:21:04Z</time>
      </trkpt>
      <trkpt lat="48.38634" lon="-4.53161">
        <ele>93.7</ele>
        <time>2020-06-08T18:21:05Z</time>
      </trkpt>
      <trkpt lat="48.38632" lon="-4.53169">
        <ele>93.8</ele>
        <time>2020-06-08T18:21:06Z</time>
      </trkpt>
      <trkpt lat="48.3863" lon="-4.53177">
        <ele>94</ele>
        <time>2020-06-08T18:21:07Z</time>
      </trkpt>
      <trkpt lat="48.38628" lon="-4.53186">
        <ele>94.1</ele>
        <time>2020-06-08T18:21:08Z</time>
      </trkpt>
      <trkpt lat="48.38628" lon="-4.53195">
        <ele>94.2</ele>
        <time>2020-06-08T18:21:09Z</time>
      </trkpt>
      <trkpt lat="48.38627" lon="-4.53204">
        <ele>94.4</ele>
        <time>2020-06-08T18:21:10Z</time>
      </trkpt>
      <trkpt lat="48.38625" lon="-4.53211">
        <ele>94.5</ele>
        <time>2020-06-08T18:21:11Z</time>
      </trkpt>
      <trkpt lat="48.38623" lon="-4.53217">
        <ele>94.6</ele>
        <time>2020-06-08T18:21:12Z</time>
      </trkpt>
      <trkpt lat="48.38622" lon="-4.53226">
        <ele>94.8</ele>
        <time>2020-06-08T18:21:13Z</time>
      </trkpt>
      <trkpt lat="48.3862" lon="-4.53235">
        <ele>95</ele>
        <time>2020-06-08T18:21:14Z</time>
      </trkpt>
      <trkpt lat="48.38619" lon="-4.53243">
        <ele>95.1</ele>
        <time>2020-06-08T18:21:15Z</time>
      </trkpt>
      <trkpt lat="48.38618" lon="-4.53251">
        <ele>95.3</ele>
        <time>2020-06-08T18:21:16Z</time>
      </trkpt>
      <trkpt lat="48.38617" lon="-4.53259">
        <ele>95.4</ele>
        <time>2020-06-08T18:21:17Z</time>
      </trkpt>
      <trkpt lat="48.38616" lon="-4.53266">
        <ele>95.5</ele>
        <time>2020-06-08T18:21:18Z</time>
      </trkpt>
      <trkpt lat="48.38616" lon="-4.53274">
        <ele>95.7</ele>
        <time>2020-06-08T18:21:19Z</time>
      </trkpt>
      <trkpt lat="48.38614" lon="-4.53282">
        <ele>95.8</ele>
        <time>2020-06-08T18:21:20Z</time>
      </trkpt>
      <trkpt lat="48.38613" lon="-4.53289">
        <ele>95.9</ele>
        <time>2020-06-08T18:21:21Z</time>
      </trkpt>
      <trkpt lat="48.38612" lon="-4.53295">
        <ele>96</ele>
        <time>2020-06-08T18:21:22Z</time>
      </trkpt>
      <trkpt lat="48.38612" lon="-4.53302">
        <ele>96.1</ele>
        <time>2020-06-08T18:21:23Z</time>
      </trkpt>
      <trkpt lat="48.38611" lon="-4.53308">
        <ele>96.2</ele>
        <time>2020-06-08T18:21:24Z</time>
      </trkpt>
      <trkpt lat="48.3861" lon="-4.53312">
        <ele>96.3</ele>
        <time>2020-06-08T18:21:25Z</time>
      </trkpt>
      <trkpt lat="48.3861" lon="-4.53319">
        <ele>96.4</ele>
        <time>2020-06-08T18:21:26Z</time>
      </trkpt>
      <trkpt lat="48.38608" lon="-4.53326">
        <ele>96.4</ele>
        <time>2020-06-08T18:21:27Z</time>
      </trkpt>
      <trkpt lat="48.38607" lon="-4.53331">
        <ele>96.4</ele>
        <time>2020-06-08T18:21:28Z</time>
      </trkpt>
      <trkpt lat="48.38607" lon="-4.53338">
        <ele>96.5</ele>
        <time>2020-06-08T18:21:29Z</time>
      </trkpt>
      <trkpt lat="48.38606" lon="-4.53343">
        <ele>96.5</ele>
        <time>2020-06-08T18:21:30Z</time>
      </trkpt>
      <trkpt lat="48.38605" lon="-4.53348">
        <ele>96.5</ele>
        <time>2020-06-08T18:21:31Z</time>
      </trkpt>
      <trkpt lat="48.38605" lon="-4.53354">
        <ele>96.5</ele>
        <time>2020-06-08T18:21:32Z</time>
      </trkpt>
      <trkpt lat="48.38604" lon="-4.53361">
        <ele>96.6</ele>
        <time>2020-06-08T18:21:33Z</time>
      </trkpt>
      <trkpt lat="48.38603" lon="-4.53369">
        <ele>96.6</ele>
        <time>2020-06-08T18:21:34Z</time>
      </trkpt>
      <trkpt lat="48.38601" lon="-4.53375">
        <ele>96.7</ele>
        <time>2020-06-08T18:21:35Z</time>
      </trkpt>
      <trkpt lat="48.38602" lon="-4.53382">
        <ele>96.7</ele>
        <time>2020-06-08T18:21:36Z</time>
      </trkpt>
      <trkpt lat="48.38602" lon="-4.53386">
        <ele>96.7</ele>
        <time>2020-06-08T18:21:37Z</time>
      </trkpt>
      <trkpt lat="48.38602" lon="-4.53393">
        <ele>96.8</ele>
        <time>2020-06-08T18:21:38Z</time>
      </trkpt>
      <trkpt lat="48.386" lon="-4.534">
        <ele>96.8</ele>
        <time>2020-06-08T18:21:39Z</time>
      </trkpt>
      <trkpt lat="48.38598" lon="-4.53406">
        <ele>96.8</ele>
        <time>2020-06-08T18:21:40Z</time>
      </trkpt>
      <trkpt lat="48.38597" lon="-4.53413">
        <ele>96.8</ele>
        <time>2020-06-08T18:21:41Z</time>
      </trkpt>
      <trkpt lat="48.38596" lon="-4.5342">
        <ele>96.9</ele>
        <time>2020-06-08T18:21:42Z</time>
      </trkpt>
      <trkpt lat="48.38594" lon="-4.53428">
        <ele>96.9</ele>
        <time>2020-06-08T18:21:43Z</time>
      </trkpt>
      <trkpt lat="48.38593" lon="-4.53436">
        <ele>97</ele>
        <time>2020-06-08T18:21:44Z</time>
      </trkpt>
      <trkpt lat="48.38592" lon="-4.53442">
        <ele>97</ele>
        <time>2020-06-08T18:21:45Z</time>
      </trkpt>
      <trkpt lat="48.38592" lon="-4.53448">
        <ele>97</ele>
        <time>2020-06-08T18:21:46Z</time>
      </trkpt>
      <trkpt lat="48.38591" lon="-4.53453">
        <ele>97</ele>
        <time>2020-06-08T18:21:47Z</time>
      </trkpt>
      <trkpt lat="48.38591" lon="-4.53455">
        <ele>97.1</ele>
        <time>2020-06-08T18:21:48Z</time>
      </trkpt>
      <trkpt lat="48.38589" lon="-4.5346">
        <ele>97.1</ele>
        <time>2020-06-08T18:21:49Z</time>
      </trkpt>
      <trkpt lat="48.38587" lon="-4.53465">
        <ele>97.1</ele>
        <time>2020-06-08T18:21:50Z</time>
      </trkpt>
      <trkpt lat="48.38585" lon="-4.53468">
        <ele>97.1</ele>
        <time>2020-06-08T18:21:51Z</time>
      </trkpt>
      <trkpt lat="48.38582" lon="-4.53473">
        <ele>97.1</ele>
        <time>2020-06-08T18:21:52Z</time>
      </trkpt>
      <trkpt lat="48.38581" lon="-4.53474">
        <ele>97.1</ele>
        <time>2020-06-08T18:21:53Z</time>
      </trkpt>
      <trkpt lat="48.38579" lon="-4.53479">
        <ele>97.1</ele>
        <time>2020-06-08T18:21:54Z</time>
      </trkpt>
      <trkpt lat="48.38577" lon="-4.53484">
        <ele>97.1</ele>
        <time>2020-06-08T18:21:55Z</time>
      </trkpt>
      <trkpt lat="48.38575" lon="-4.53488">
        <ele>97</ele>
        <time>2020-06-08T18:21:56Z</time>
      </trkpt>
      <trkpt lat="48.38573" lon="-4.53491">
        <ele>97</ele>
        <time>2020-06-08T18:21:57Z</time>
      </trkpt>
      <trkpt lat="48.38571" lon="-4.53494">
        <ele>97</ele>
        <time>2020-06-08T18:21:58Z</time>
      </trkpt>
      <trkpt lat="48.38567" lon="-4.53498">
        <ele>97</ele>
        <time>2020-06-08T18:21:59Z</time>
      </trkpt>
      <trkpt lat="48.38563" lon="-4.53502">
        <ele>97</ele>
        <time>2020-06-08T18:22:00Z</time>
      </trkpt>
      <trkpt lat="48.3856" lon="-4.53505">
        <ele>97</ele>
        <time>2020-06-08T18:22:01Z</time>
      </trkpt>
      <trkpt lat="48.38557" lon="-4.53507">
        <ele>97</ele>
        <time>2020-06-08T18:22:02Z</time>
      </trkpt>
      <trkpt lat="48.38554" lon="-4.5351">
        <ele>97.1</ele>
        <time>2020-06-08T18:22:03Z</time>
      </trkpt>
      <trkpt lat="48.38549" lon="-4.53513">
        <ele>97.1</ele>
        <time>2020-06-08T18:22:04Z</time>
      </trkpt>
      <trkpt lat="48.38544" lon="-4.53517">
        <ele>97.1</ele>
        <time>2020-06-08T18:22:05Z</time>
      </trkpt>
      <trkpt lat="48.38539" lon="-4.5352">
        <ele>97.2</ele>
        <time>2020-06-08T18:22:06Z</time>
      </trkpt>
      <trkpt lat="48.38534" lon="-4.53525">
        <ele>97.3</ele>
        <time>2020-06-08T18:22:07Z</time>
      </trkpt>
      <trkpt lat="48.3853" lon="-4.53528">
        <ele>97.3</ele>
        <time>2020-06-08T18:22:08Z</time>
      </trkpt>
      <trkpt lat="48.38525" lon="-4.53531">
        <ele>97.3</ele>
        <time>2020-06-08T18:22:09Z</time>
      </trkpt>
      <trkpt lat="48.38522" lon="-4.53536">
        <ele>97.3</ele>
        <time>2020-06-08T18:22:10Z</time>
      </trkpt>
      <trkpt lat="48.38517" lon="-4.53538">
        <ele>97.4</ele>
        <time>2020-06-08T18:22:11Z</time>
      </trkpt>
      <trkpt lat="48.38513" lon="-4.53543">
        <ele>97.4</ele>
        <time>2020-06-08T18:22:12Z</time>
      </trkpt>
      <trkpt lat="48.38509" lon="-4.53548">
        <ele>97.4</ele>
        <time>2020-06-08T18:22:13Z</time>
      </trkpt>
      <trkpt lat="48.38504" lon="-4.53553">
        <ele>97.4</ele>
        <time>2020-06-08T18:22:14Z</time>
      </trkpt>
      <trkpt lat="48.385" lon="-4.53559">
        <ele>97.4</ele>
        <time>2020-06-08T18:22:15Z</time>
      </trkpt>
      <trkpt lat="48.38495" lon="-4.53565">
        <ele>97.4</ele>
        <time>2020-06-08T18:22:16Z</time>
      </trkpt>
      <trkpt lat="48.3849" lon="-4.5357">
        <ele>97.5</ele>
        <time>2020-06-08T18:22:17Z</time>
      </trkpt>
      <trkpt lat="48.38485" lon="-4.53575">
        <ele>97.5</ele>
        <time>2020-06-08T18:22:18Z</time>
      </trkpt>
      <trkpt lat="48.38481" lon="-4.5358">
        <ele>97.5</ele>
        <time>2020-06-08T18:22:19Z</time>
      </trkpt>
      <trkpt lat="48.38477" lon="-4.53586">
        <ele>97.5</ele>
        <time>2020-06-08T18:22:20Z</time>
      </trkpt>
      <trkpt lat="48.38473" lon="-4.53591">
        <ele>97.5</ele>
        <time>2020-06-08T18:22:21Z</time>
      </trkpt>
      <trkpt lat="48.3847" lon="-4.53597">
        <ele>97.5</ele>
        <time>2020-06-08T18:22:22Z</time>
      </trkpt>
      <trkpt lat="48.38465" lon="-4.53603">
        <ele>97.5</ele>
        <time>2020-06-08T18:22:23Z</time>
      </trkpt>
      <trkpt lat="48.38461" lon="-4.53608">
        <ele>97.5</ele>
        <time>2020-06-08T18:22:24Z</time>
      </trkpt>
      <trkpt lat="48.38458" lon="-4.53611">
        <ele>97.5</ele>
        <time>2020-06-08T18:22:25Z</time>
      </trkpt>
      <trkpt lat="48.38454" lon="-4.53617">
        <ele>97.4</ele>
        <time>2020-06-08T18:22:26Z</time>
      </trkpt>
      <trkpt lat="48.38452" lon="-4.53623">
        <ele>97.4</ele>
        <time>2020-06-08T18:22:27Z</time>
      </trkpt>
      <trkpt lat="48.38449" lon="-4.53629">
        <ele>97.4</ele>
        <time>2020-06-08T18:22:28Z</time>
      </trkpt>
      <trkpt lat="48.38446" lon="-4.53635">
        <ele>97.3</ele>
        <time>2020-06-08T18:22:29Z</time>
      </trkpt>
      <trkpt lat="48.38443" lon="-4.53642">
        <ele>97.3</ele>
        <time>2020-06-08T18:22:30Z</time>
      </trkpt>
      <trkpt lat="48.3844" lon="-4.53648">
        <ele>97.2</ele>
        <time>2020-06-08T18:22:31Z</time>
      </trkpt>
      <trkpt lat="48.38438" lon="-4.53653">
        <ele>97.2</ele>
        <time>2020-06-08T18:22:32Z</time>
      </trkpt>
      <trkpt lat="48.38435" lon="-4.53659">
        <ele>97.2</ele>
        <time>2020-06-08T18:22:33Z</time>
      </trkpt>
      <trkpt lat="48.38431" lon="-4.53665">
        <ele>97.1</ele>
        <time>2020-06-08T18:22:34Z</time>
      </trkpt>
      <trkpt lat="48.38427" lon="-4.53673">
        <ele>97.1</ele>
        <time>2020-06-08T18:22:35Z</time>
      </trkpt>
      <trkpt lat="48.38423" lon="-4.53679">
        <ele>97</ele>
        <time>2020-06-08T18:22:36Z</time>
      </trkpt>
      <trkpt lat="48.38421" lon="-4.53686">
        <ele>97</ele>
        <time>2020-06-08T18:22:37Z</time>
      </trkpt>
      <trkpt lat="48.38417" lon="-4.53693">
        <ele>97</ele>
        <time>2020-06-08T18:22:38Z</time>
      </trkpt>
      <trkpt lat="48.38415" lon="-4.53701">
        <ele>97</ele>
        <time>2020-06-08T18:22:39Z</time>
      </trkpt>
      <trkpt lat="48.38413" lon="-4.53708">
        <ele>96.9</ele>
        <time>2020-06-08T18:22:40Z</time>
      </trkpt>
      <trkpt lat="48.3841" lon="-4.53715">
        <ele>96.9</ele>
        <time>2020-06-08T18:22:41Z</time>
      </trkpt>
      <trkpt lat="48.38406" lon="-4.53722">
        <ele>96.9</ele>
        <time>2020-06-08T18:22:42Z</time>
      </trkpt>
      <trkpt lat="48.38402" lon="-4.53729">
        <ele>96.8</ele>
        <time>2020-06-08T18:22:43Z</time>
      </trkpt>
      <trkpt lat="48.38398" lon="-4.53734">
        <ele>96.8</ele>
        <time>2020-06-08T18:22:44Z</time>
      </trkpt>
      <trkpt lat="48.38395" lon="-4.53741">
        <ele>96.7</ele>
        <time>2020-06-08T18:22:45Z</time>
      </trkpt>
      <trkpt lat="48.38392" lon="-4.53749">
        <ele>96.6</ele>
        <time>2020-06-08T18:22:46Z</time>
      </trkpt>
      <trkpt lat="48.38387" lon="-4.53756">
        <ele>96.6</ele>
        <time>2020-06-08T18:22:47Z</time>
      </trkpt>
      <trkpt lat="48.38383" lon="-4.53761">
        <ele>96.5</ele>
        <time>2020-06-08T18:22:48Z</time>
      </trkpt>
      <trkpt lat="48.38378" lon="-4.53766">
        <ele>96.5</ele>
        <time>2020-06-08T18:22:49Z</time>
      </trkpt>
      <trkpt lat="48.38374" lon="-4.53772">
        <ele>96.5</ele>
        <time>2020-06-08T18:22:50Z</time>
      </trkpt>
      <trkpt lat="48.3837" lon="-4.53777">
        <ele>96.4</ele>
        <time>2020-06-08T18:22:51Z</time>
      </trkpt>
      <trkpt lat="48.38366" lon="-4.53782">
        <ele>96.4</ele>
        <time>2020-06-08T18:22:52Z</time>
      </trkpt>
      <trkpt lat="48.38361" lon="-4.53787">
        <ele>96.4</ele>
        <time>2020-06-08T18:22:53Z</time>
      </trkpt>
      <trkpt lat="48.38356" lon="-4.53792">
        <ele>96.3</ele>
        <time>2020-06-08T18:22:54Z</time>
      </trkpt>
      <trkpt lat="48.38352" lon="-4.53796">
        <ele>96.3</ele>
        <time>2020-06-08T18:22:55Z</time>
      </trkpt>
      <trkpt lat="48.38348" lon="-4.53802">
        <ele>96.2</ele>
        <time>2020-06-08T18:22:56Z</time>
      </trkpt>
      <trkpt lat="48.38343" lon="-4.53807">
        <ele>96.2</ele>
        <time>2020-06-08T18:22:57Z</time>
      </trkpt>
      <trkpt lat="48.38339" lon="-4.53812">
        <ele>96.1</ele>
        <time>2020-06-08T18:22:58Z</time>
      </trkpt>
      <trkpt lat="48.38335" lon="-4.53816">
        <ele>96.1</ele>
        <time>2020-06-08T18:22:59Z</time>
      </trkpt>
      <trkpt lat="48.38328" lon="-4.53822">
        <ele>96</ele>
        <time>2020-06-08T18:23:00Z</time>
      </trkpt>
      <trkpt lat="48.38324" lon="-4.53827">
        <ele>96</ele>
        <time>2020-06-08T18:23:01Z</time>
      </trkpt>
      <trkpt lat="48.3832" lon="-4.53832">
        <ele>96</ele>
        <time>2020-06-08T18:23:02Z</time>
      </trkpt>
      <trkpt lat="48.38316" lon="-4.53837">
        <ele>96</ele>
        <time>2020-06-08T18:23:03Z</time>
      </trkpt>
      <trkpt lat="48.38312" lon="-4.53843">
        <ele>95.9</ele>
        <time>2020-06-08T18:23:04Z</time>
      </trkpt>
      <trkpt lat="48.38309" lon="-4.53847">
        <ele>95.9</ele>
        <time>2020-06-08T18:23:05Z</time>
      </trkpt>
      <trkpt lat="48.38305" lon="-4.53851">
        <ele>95.9</ele>
        <time>2020-06-08T18:23:06Z</time>
      </trkpt>
      <trkpt lat="48.38301" lon="-4.53857">
        <ele>95.8</ele>
        <time>2020-06-08T18:23:07Z</time>
      </trkpt>
      <trkpt lat="48.38297" lon="-4.53861">
        <ele>95.8</ele>
        <time>2020-06-08T18:23:08Z</time>
      </trkpt>
      <trkpt lat="48.38294" lon="-4.53867">
        <ele>95.8</ele>
        <time>2020-06-08T18:23:09Z</time>
      </trkpt>
      <trkpt lat="48.38292" lon="-4.53873">
        <ele>95.8</ele>
        <time>2020-06-08T18:23:10Z</time>
      </trkpt>
      <trkpt lat="48.38293" lon="-4.53881">
        <ele>95.8</ele>
        <time>2020-06-08T18:23:11Z</time>
      </trkpt>
      <trkpt lat="48.38293" lon="-4.53887">
        <ele>95.7</ele>
        <time>2020-06-08T18:23:12Z</time>
      </trkpt>
      <trkpt lat="48.38292" lon="-4.53894">
        <ele>95.7</ele>
        <time>2020-06-08T18:23:13Z</time>
      </trkpt>
      <trkpt lat="48.38292" lon="-4.53901">
        <ele>95.6</ele>
        <time>2020-06-08T18:23:14Z</time>
      </trkpt>
      <trkpt lat="48.38291" lon="-4.53909">
        <ele>95.5</ele>
        <time>2020-06-08T18:23:15Z</time>
      </trkpt>
      <trkpt lat="48.38291" lon="-4.53917">
        <ele>95.4</ele>
        <time>2020-06-08T18:23:16Z</time>
      </trkpt>
      <trkpt lat="48.3829" lon="-4.53926">
        <ele>95.3</ele>
        <time>2020-06-08T18:23:17Z</time>
      </trkpt>
      <trkpt lat="48.38289" lon="-4.53935">
        <ele>95.2</ele>
        <time>2020-06-08T18:23:18Z</time>
      </trkpt>
      <trkpt lat="48.38287" lon="-4.53944">
        <ele>95.2</ele>
        <time>2020-06-08T18:23:19Z</time>
      </trkpt>
      <trkpt lat="48.38287" lon="-4.53953">
        <ele>95.1</ele>
        <time>2020-06-08T18:23:20Z</time>
      </trkpt>
      <trkpt lat="48.38287" lon="-4.53963">
        <ele>94.9</ele>
        <time>2020-06-08T18:23:21Z</time>
      </trkpt>
      <trkpt lat="48.38287" lon="-4.53973">
        <ele>94.8</ele>
        <time>2020-06-08T18:23:22Z</time>
      </trkpt>
      <trkpt lat="48.38286" lon="-4.53981">
        <ele>94.7</ele>
        <time>2020-06-08T18:23:23Z</time>
      </trkpt>
      <trkpt lat="48.38286" lon="-4.53991">
        <ele>94.6</ele>
        <time>2020-06-08T18:23:24Z</time>
      </trkpt>
      <trkpt lat="48.38285" lon="-4.54">
        <ele>94.5</ele>
        <time>2020-06-08T18:23:25Z</time>
      </trkpt>
      <trkpt lat="48.38285" lon="-4.54009">
        <ele>94.4</ele>
        <time>2020-06-08T18:23:26Z</time>
      </trkpt>
      <trkpt lat="48.38284" lon="-4.54018">
        <ele>94.3</ele>
        <time>2020-06-08T18:23:27Z</time>
      </trkpt>
      <trkpt lat="48.38282" lon="-4.54026">
        <ele>94.2</ele>
        <time>2020-06-08T18:23:28Z</time>
      </trkpt>
      <trkpt lat="48.38282" lon="-4.54035">
        <ele>94.1</ele>
        <time>2020-06-08T18:23:29Z</time>
      </trkpt>
      <trkpt lat="48.38281" lon="-4.54043">
        <ele>94</ele>
        <time>2020-06-08T18:23:30Z</time>
      </trkpt>
      <trkpt lat="48.38282" lon="-4.54052">
        <ele>93.9</ele>
        <time>2020-06-08T18:23:31Z</time>
      </trkpt>
      <trkpt lat="48.38281" lon="-4.5406">
        <ele>93.8</ele>
        <time>2020-06-08T18:23:32Z</time>
      </trkpt>
      <trkpt lat="48.3828" lon="-4.5407">
        <ele>93.6</ele>
        <time>2020-06-08T18:23:33Z</time>
      </trkpt>
      <trkpt lat="48.38279" lon="-4.54079">
        <ele>93.4</ele>
        <time>2020-06-08T18:23:34Z</time>
      </trkpt>
      <trkpt lat="48.38279" lon="-4.54088">
        <ele>93.2</ele>
        <time>2020-06-08T18:23:35Z</time>
      </trkpt>
      <trkpt lat="48.38278" lon="-4.54098">
        <ele>93</ele>
        <time>2020-06-08T18:23:36Z</time>
      </trkpt>
      <trkpt lat="48.38278" lon="-4.54108">
        <ele>92.8</ele>
        <time>2020-06-08T18:23:37Z</time>
      </trkpt>
      <trkpt lat="48.38278" lon="-4.54119">
        <ele>92.6</ele>
        <time>2020-06-08T18:23:38Z</time>
      </trkpt>
      <trkpt lat="48.38278" lon="-4.5413">
        <ele>92.4</ele>
        <time>2020-06-08T18:23:39Z</time>
      </trkpt>
      <trkpt lat="48.38278" lon="-4.54141">
        <ele>92.2</ele>
        <time>2020-06-08T18:23:40Z</time>
      </trkpt>
      <trkpt lat="48.38277" lon="-4.54152">
        <ele>91.9</ele>
        <time>2020-06-08T18:23:41Z</time>
      </trkpt>
      <trkpt lat="48.38275" lon="-4.54162">
        <ele>91.6</ele>
        <time>2020-06-08T18:23:42Z</time>
      </trkpt>
      <trkpt lat="48.38273" lon="-4.54174">
        <ele>91.3</ele>
        <time>2020-06-08T18:23:43Z</time>
      </trkpt>
      <trkpt lat="48.38271" lon="-4.54184">
        <ele>91.1</ele>
        <time>2020-06-08T18:23:44Z</time>
      </trkpt>
      <trkpt lat="48.38269" lon="-4.54195">
        <ele>90.8</ele>
        <time>2020-06-08T18:23:45Z</time>
      </trkpt>
      <trkpt lat="48.38266" lon="-4.54205">
        <ele>90.6</ele>
        <time>2020-06-08T18:23:46Z</time>
      </trkpt>
      <trkpt lat="48.38263" lon="-4.54215">
        <ele>90.4</ele>
        <time>2020-06-08T18:23:47Z</time>
      </trkpt>
      <trkpt lat="48.38261" lon="-4.54224">
        <ele>90.2</ele>
        <time>2020-06-08T18:23:48Z</time>
      </trkpt>
      <trkpt lat="48.38257" lon="-4.54234">
        <ele>90.1</ele>
        <time>2020-06-08T18:23:49Z</time>
      </trkpt>
      <trkpt lat="48.38253" lon="-4.54242">
        <ele>89.9</ele>
        <time>2020-06-08T18:23:50Z</time>
      </trkpt>
      <trkpt lat="48.38248" lon="-4.5425">
        <ele>89.8</ele>
        <time>2020-06-08T18:23:51Z</time>
      </trkpt>
      <trkpt lat="48.38243" lon="-4.54257">
        <ele>89.7</ele>
        <time>2020-06-08T18:23:52Z</time>
      </trkpt>
      <trkpt lat="48.38238" lon="-4.54265">
        <ele>89.6</ele>
        <time>2020-06-08T18:23:53Z</time>
      </trkpt>
      <trkpt lat="48.38234" lon="-4.54272">
        <ele>89.4</ele>
        <time>2020-06-08T18:23:54Z</time>
      </trkpt>
      <trkpt lat="48.38229" lon="-4.54279">
        <ele>89.3</ele>
        <time>2020-06-08T18:23:55Z</time>
      </trkpt>
      <trkpt lat="48.38224" lon="-4.54285">
        <ele>89.2</ele>
        <time>2020-06-08T18:23:56Z</time>
      </trkpt>
      <trkpt lat="48.38219" lon="-4.54292">
        <ele>89.1</ele>
        <time>2020-06-08T18:23:57Z</time>
      </trkpt>
      <trkpt lat="48.38215" lon="-4.543">
        <ele>89</ele>
        <time>2020-06-08T18:23:58Z</time>
      </trkpt>
      <trkpt lat="48.38211" lon="-4.54309">
        <ele>88.9</ele>
        <time>2020-06-08T18:23:59Z</time>
      </trkpt>
      <trkpt lat="48.38207" lon="-4.54318">
        <ele>88.7</ele>
        <time>2020-06-08T18:24:00Z</time>
      </trkpt>
      <trkpt lat="48.38205" lon="-4.54328">
        <ele>88.5</ele>
        <time>2020-06-08T18:24:01Z</time>
      </trkpt>
      <trkpt lat="48.38203" lon="-4.54339">
        <ele>88.4</ele>
        <time>2020-06-08T18:24:02Z</time>
      </trkpt>
      <trkpt lat="48.38203" lon="-4.5435">
        <ele>88.2</ele>
        <time>2020-06-08T18:24:03Z</time>
      </trkpt>
      <trkpt lat="48.38202" lon="-4.54361">
        <ele>88</ele>
        <time>2020-06-08T18:24:04Z</time>
      </trkpt>
      <trkpt lat="48.38201" lon="-4.54371">
        <ele>87.8</ele>
        <time>2020-06-08T18:24:05Z</time>
      </trkpt>
      <trkpt lat="48.38201" lon="-4.54382">
        <ele>87.6</ele>
        <time>2020-06-08T18:24:06Z</time>
      </trkpt>
      <trkpt lat="48.382" lon="-4.54393">
        <ele>87.4</ele>
        <time>2020-06-08T18:24:07Z</time>
      </trkpt>
      <trkpt lat="48.38199" lon="-4.54404">
        <ele>87.3</ele>
        <time>2020-06-08T18:24:08Z</time>
      </trkpt>
      <trkpt lat="48.38198" lon="-4.54415">
        <ele>87.1</ele>
        <time>2020-06-08T18:24:09Z</time>
      </trkpt>
      <trkpt lat="48.38196" lon="-4.54426">
        <ele>86.9</ele>
        <time>2020-06-08T18:24:10Z</time>
      </trkpt>
      <trkpt lat="48.38195" lon="-4.54436">
        <ele>86.7</ele>
        <time>2020-06-08T18:24:11Z</time>
      </trkpt>
      <trkpt lat="48.38195" lon="-4.54447">
        <ele>86.6</ele>
        <time>2020-06-08T18:24:12Z</time>
      </trkpt>
      <trkpt lat="48.38193" lon="-4.54458">
        <ele>86.5</ele>
        <time>2020-06-08T18:24:13Z</time>
      </trkpt>
      <trkpt lat="48.38192" lon="-4.54468">
        <ele>86.4</ele>
        <time>2020-06-08T18:24:14Z</time>
      </trkpt>
      <trkpt lat="48.38191" lon="-4.54479">
        <ele>86.3</ele>
        <time>2020-06-08T18:24:15Z</time>
      </trkpt>
      <trkpt lat="48.3819" lon="-4.54489">
        <ele>86.2</ele>
        <time>2020-06-08T18:24:16Z</time>
      </trkpt>
      <trkpt lat="48.38189" lon="-4.54499">
        <ele>86.1</ele>
        <time>2020-06-08T18:24:17Z</time>
      </trkpt>
      <trkpt lat="48.38189" lon="-4.54509">
        <ele>86</ele>
        <time>2020-06-08T18:24:18Z</time>
      </trkpt>
      <trkpt lat="48.38188" lon="-4.54519">
        <ele>85.8</ele>
        <time>2020-06-08T18:24:19Z</time>
      </trkpt>
      <trkpt lat="48.38187" lon="-4.54529">
        <ele>85.6</ele>
        <time>2020-06-08T18:24:20Z</time>
      </trkpt>
      <trkpt lat="48.38187" lon="-4.54539">
        <ele>85.4</ele>
        <time>2020-06-08T18:24:21Z</time>
      </trkpt>
      <trkpt lat="48.38187" lon="-4.54549">
        <ele>85.2</ele>
        <time>2020-06-08T18:24:22Z</time>
      </trkpt>
      <trkpt lat="48.38187" lon="-4.5456">
        <ele>85</ele>
        <time>2020-06-08T18:24:23Z</time>
      </trkpt>
      <trkpt lat="48.38187" lon="-4.5457">
        <ele>84.7</ele>
        <time>2020-06-08T18:24:24Z</time>
      </trkpt>
      <trkpt lat="48.38186" lon="-4.54581">
        <ele>84.5</ele>
        <time>2020-06-08T18:24:25Z</time>
      </trkpt>
      <trkpt lat="48.38185" lon="-4.54591">
        <ele>84.4</ele>
        <time>2020-06-08T18:24:26Z</time>
      </trkpt>
      <trkpt lat="48.38184" lon="-4.54602">
        <ele>84.2</ele>
        <time>2020-06-08T18:24:27Z</time>
      </trkpt>
      <trkpt lat="48.38183" lon="-4.54611">
        <ele>84</ele>
        <time>2020-06-08T18:24:28Z</time>
      </trkpt>
      <trkpt lat="48.38181" lon="-4.54621">
        <ele>83.8</ele>
        <time>2020-06-08T18:24:29Z</time>
      </trkpt>
      <trkpt lat="48.38178" lon="-4.5463">
        <ele>83.7</ele>
        <time>2020-06-08T18:24:30Z</time>
      </trkpt>
      <trkpt lat="48.38174" lon="-4.54639">
        <ele>83.7</ele>
        <time>2020-06-08T18:24:31Z</time>
      </trkpt>
      <trkpt lat="48.3817" lon="-4.54647">
        <ele>83.6</ele>
        <time>2020-06-08T18:24:32Z</time>
      </trkpt>
      <trkpt lat="48.38166" lon="-4.54654">
        <ele>83.6</ele>
        <time>2020-06-08T18:24:33Z</time>
      </trkpt>
      <trkpt lat="48.38163" lon="-4.54662">
        <ele>83.5</ele>
        <time>2020-06-08T18:24:34Z</time>
      </trkpt>
      <trkpt lat="48.38158" lon="-4.54668">
        <ele>83.5</ele>
        <time>2020-06-08T18:24:35Z</time>
      </trkpt>
      <trkpt lat="48.38154" lon="-4.54674">
        <ele>83.4</ele>
        <time>2020-06-08T18:24:36Z</time>
      </trkpt>
      <trkpt lat="48.3815" lon="-4.54681">
        <ele>83.4</ele>
        <time>2020-06-08T18:24:37Z</time>
      </trkpt>
      <trkpt lat="48.38146" lon="-4.54689">
        <ele>83.4</ele>
        <time>2020-06-08T18:24:38Z</time>
      </trkpt>
      <trkpt lat="48.38142" lon="-4.54697">
        <ele>83.4</ele>
        <time>2020-06-08T18:24:39Z</time>
      </trkpt>
      <trkpt lat="48.38137" lon="-4.54703">
        <ele>83.4</ele>
        <time>2020-06-08T18:24:40Z</time>
      </trkpt>
      <trkpt lat="48.38134" lon="-4.5471">
        <ele>83.4</ele>
        <time>2020-06-08T18:24:41Z</time>
      </trkpt>
      <trkpt lat="48.3813" lon="-4.54717">
        <ele>83.4</ele>
        <time>2020-06-08T18:24:42Z</time>
      </trkpt>
      <trkpt lat="48.38126" lon="-4.54724">
        <ele>83.4</ele>
        <time>2020-06-08T18:24:43Z</time>
      </trkpt>
      <trkpt lat="48.38123" lon="-4.5473">
        <ele>83.4</ele>
        <time>2020-06-08T18:24:44Z</time>
      </trkpt>
      <trkpt lat="48.38119" lon="-4.54734">
        <ele>83.4</ele>
        <time>2020-06-08T18:24:45Z</time>
      </trkpt>
      <trkpt lat="48.38116" lon="-4.54739">
        <ele>83.4</ele>
        <time>2020-06-08T18:24:46Z</time>
      </trkpt>
      <trkpt lat="48.38112" lon="-4.54746">
        <ele>83.3</ele>
        <time>2020-06-08T18:24:47Z</time>
      </trkpt>
      <trkpt lat="48.38107" lon="-4.54754">
        <ele>83.2</ele>
        <time>2020-06-08T18:24:48Z</time>
      </trkpt>
      <trkpt lat="48.38102" lon="-4.54761">
        <ele>83.1</ele>
        <time>2020-06-08T18:24:49Z</time>
      </trkpt>
      <trkpt lat="48.38097" lon="-4.54769">
        <ele>83</ele>
        <time>2020-06-08T18:24:50Z</time>
      </trkpt>
      <trkpt lat="48.38093" lon="-4.54777">
        <ele>82.9</ele>
        <time>2020-06-08T18:24:51Z</time>
      </trkpt>
      <trkpt lat="48.38089" lon="-4.54787">
        <ele>82.8</ele>
        <time>2020-06-08T18:24:52Z</time>
      </trkpt>
      <trkpt lat="48.38085" lon="-4.54796">
        <ele>82.7</ele>
        <time>2020-06-08T18:24:53Z</time>
      </trkpt>
      <trkpt lat="48.38081" lon="-4.54805">
        <ele>82.6</ele>
        <time>2020-06-08T18:24:54Z</time>
      </trkpt>
      <trkpt lat="48.38077" lon="-4.54815">
        <ele>82.5</ele>
        <time>2020-06-08T18:24:55Z</time>
      </trkpt>
      <trkpt lat="48.38073" lon="-4.54824">
        <ele>82.3</ele>
        <time>2020-06-08T18:24:56Z</time>
      </trkpt>
      <trkpt lat="48.38068" lon="-4.54834">
        <ele>82</ele>
        <time>2020-06-08T18:24:57Z</time>
      </trkpt>
      <trkpt lat="48.38063" lon="-4.54845">
        <ele>81.7</ele>
        <time>2020-06-08T18:24:58Z</time>
      </trkpt>
      <trkpt lat="48.38059" lon="-4.54854">
        <ele>81.5</ele>
        <time>2020-06-08T18:24:59Z</time>
      </trkpt>
      <trkpt lat="48.38055" lon="-4.54863">
        <ele>81.3</ele>
        <time>2020-06-08T18:25:00Z</time>
      </trkpt>
      <trkpt lat="48.3805" lon="-4.54873">
        <ele>81.2</ele>
        <time>2020-06-08T18:25:01Z</time>
      </trkpt>
      <trkpt lat="48.38046" lon="-4.54883">
        <ele>81</ele>
        <time>2020-06-08T18:25:02Z</time>
      </trkpt>
      <trkpt lat="48.38042" lon="-4.54892">
        <ele>80.8</ele>
        <time>2020-06-08T18:25:03Z</time>
      </trkpt>
      <trkpt lat="48.38038" lon="-4.54901">
        <ele>80.6</ele>
        <time>2020-06-08T18:25:04Z</time>
      </trkpt>
      <trkpt lat="48.38033" lon="-4.54911">
        <ele>80.4</ele>
        <time>2020-06-08T18:25:05Z</time>
      </trkpt>
      <trkpt lat="48.38028" lon="-4.54919">
        <ele>80.3</ele>
        <time>2020-06-08T18:25:06Z</time>
      </trkpt>
      <trkpt lat="48.38023" lon="-4.54927">
        <ele>80.1</ele>
        <time>2020-06-08T18:25:07Z</time>
      </trkpt>
      <trkpt lat="48.38019" lon="-4.54936">
        <ele>80</ele>
        <time>2020-06-08T18:25:08Z</time>
      </trkpt>
      <trkpt lat="48.38014" lon="-4.54945">
        <ele>79.8</ele>
        <time>2020-06-08T18:25:09Z</time>
      </trkpt>
      <trkpt lat="48.38009" lon="-4.54953">
        <ele>79.7</ele>
        <time>2020-06-08T18:25:10Z</time>
      </trkpt>
      <trkpt lat="48.38004" lon="-4.54961">
        <ele>79.6</ele>
        <time>2020-06-08T18:25:11Z</time>
      </trkpt>
      <trkpt lat="48.37999" lon="-4.54969">
        <ele>79.5</ele>
        <time>2020-06-08T18:25:12Z</time>
      </trkpt>
      <trkpt lat="48.37995" lon="-4.54978">
        <ele>79.4</ele>
        <time>2020-06-08T18:25:13Z</time>
      </trkpt>
      <trkpt lat="48.3799" lon="-4.54986">
        <ele>79.4</ele>
        <time>2020-06-08T18:25:14Z</time>
      </trkpt>
      <trkpt lat="48.37986" lon="-4.54994">
        <ele>79.4</ele>
        <time>2020-06-08T18:25:15Z</time>
      </trkpt>
      <trkpt lat="48.37981" lon="-4.55002">
        <ele>79.5</ele>
        <time>2020-06-08T18:25:16Z</time>
      </trkpt>
      <trkpt lat="48.37977" lon="-4.5501">
        <ele>79.5</ele>
        <time>2020-06-08T18:25:17Z</time>
      </trkpt>
      <trkpt lat="48.37973" lon="-4.55019">
        <ele>79.6</ele>
        <time>2020-06-08T18:25:18Z</time>
      </trkpt>
      <trkpt lat="48.37969" lon="-4.55028">
        <ele>79.7</ele>
        <time>2020-06-08T18:25:19Z</time>
      </trkpt>
      <trkpt lat="48.37965" lon="-4.55035">
        <ele>79.7</ele>
        <time>2020-06-08T18:25:20Z</time>
      </trkpt>
      <trkpt lat="48.3796" lon="-4.55042">
        <ele>79.8</ele>
        <time>2020-06-08T18:25:21Z</time>
      </trkpt>
      <trkpt lat="48.37956" lon="-4.55051">
        <ele>79.9</ele>
        <time>2020-06-08T18:25:22Z</time>
      </trkpt>
      <trkpt lat="48.37952" lon="-4.55058">
        <ele>80</ele>
        <time>2020-06-08T18:25:23Z</time>
      </trkpt>
      <trkpt lat="48.37948" lon="-4.55066">
        <ele>80.1</ele>
        <time>2020-06-08T18:25:24Z</time>
      </trkpt>
      <trkpt lat="48.37945" lon="-4.55074">
        <ele>80.1</ele>
        <time>2020-06-08T18:25:25Z</time>
      </trkpt>
      <trkpt lat="48.37941" lon="-4.55081">
        <ele>80.3</ele>
        <time>2020-06-08T18:25:26Z</time>
      </trkpt>
      <trkpt lat="48.37937" lon="-4.55089">
        <ele>80.4</ele>
        <time>2020-06-08T18:25:27Z</time>
      </trkpt>
      <trkpt lat="48.37933" lon="-4.55096">
        <ele>80.5</ele>
        <time>2020-06-08T18:25:28Z</time>
      </trkpt>
      <trkpt lat="48.37929" lon="-4.55103">
        <ele>80.6</ele>
        <time>2020-06-08T18:25:29Z</time>
      </trkpt>
      <trkpt lat="48.37924" lon="-4.5511">
        <ele>80.7</ele>
        <time>2020-06-08T18:25:30Z</time>
      </trkpt>
      <trkpt lat="48.37919" lon="-4.55115">
        <ele>80.9</ele>
        <time>2020-06-08T18:25:31Z</time>
      </trkpt>
      <trkpt lat="48.37914" lon="-4.55121">
        <ele>81.1</ele>
        <time>2020-06-08T18:25:32Z</time>
      </trkpt>
      <trkpt lat="48.3791" lon="-4.55128">
        <ele>81.3</ele>
        <time>2020-06-08T18:25:33Z</time>
      </trkpt>
      <trkpt lat="48.37906" lon="-4.55134">
        <ele>81.4</ele>
        <time>2020-06-08T18:25:34Z</time>
      </trkpt>
      <trkpt lat="48.37901" lon="-4.55142">
        <ele>81.7</ele>
        <time>2020-06-08T18:25:35Z</time>
      </trkpt>
      <trkpt lat="48.37897" lon="-4.55149">
        <ele>81.9</ele>
        <time>2020-06-08T18:25:36Z</time>
      </trkpt>
      <trkpt lat="48.37893" lon="-4.55156">
        <ele>82.1</ele>
        <time>2020-06-08T18:25:37Z</time>
      </trkpt>
      <trkpt lat="48.37889" lon="-4.55163">
        <ele>82.3</ele>
        <time>2020-06-08T18:25:38Z</time>
      </trkpt>
      <trkpt lat="48.37885" lon="-4.5517">
        <ele>82.5</ele>
        <time>2020-06-08T18:25:39Z</time>
      </trkpt>
      <trkpt lat="48.37881" lon="-4.55178">
        <ele>82.7</ele>
        <time>2020-06-08T18:25:40Z</time>
      </trkpt>
      <trkpt lat="48.37877" lon="-4.55185">
        <ele>82.9</ele>
        <time>2020-06-08T18:25:41Z</time>
      </trkpt>
      <trkpt lat="48.37873" lon="-4.55192">
        <ele>83.1</ele>
        <time>2020-06-08T18:25:42Z</time>
      </trkpt>
      <trkpt lat="48.37869" lon="-4.55199">
        <ele>83.3</ele>
        <time>2020-06-08T18:25:43Z</time>
      </trkpt>
      <trkpt lat="48.37866" lon="-4.55206">
        <ele>83.5</ele>
        <time>2020-06-08T18:25:44Z</time>
      </trkpt>
      <trkpt lat="48.37864" lon="-4.55213">
        <ele>83.7</ele>
        <time>2020-06-08T18:25:45Z</time>
      </trkpt>
      <trkpt lat="48.37862" lon="-4.55221">
        <ele>83.8</ele>
        <time>2020-06-08T18:25:46Z</time>
      </trkpt>
      <trkpt lat="48.37859" lon="-4.5523">
        <ele>83.9</ele>
        <time>2020-06-08T18:25:47Z</time>
      </trkpt>
      <trkpt lat="48.37856" lon="-4.55239">
        <ele>84</ele>
        <time>2020-06-08T18:25:48Z</time>
      </trkpt>
      <trkpt lat="48.37853" lon="-4.55249">
        <ele>84.1</ele>
        <time>2020-06-08T18:25:49Z</time>
      </trkpt>
      <trkpt lat="48.3785" lon="-4.55257">
        <ele>84.2</ele>
        <time>2020-06-08T18:25:50Z</time>
      </trkpt>
      <trkpt lat="48.37849" lon="-4.55264">
        <ele>84.2</ele>
        <time>2020-06-08T18:25:51Z</time>
      </trkpt>
      <trkpt lat="48.37846" lon="-4.55271">
        <ele>84.3</ele>
        <time>2020-06-08T18:25:52Z</time>
      </trkpt>
      <trkpt lat="48.37844" lon="-4.55279">
        <ele>84.3</ele>
        <time>2020-06-08T18:25:53Z</time>
      </trkpt>
      <trkpt lat="48.37841" lon="-4.55288">
        <ele>84.4</ele>
        <time>2020-06-08T18:25:54Z</time>
      </trkpt>
      <trkpt lat="48.37838" lon="-4.55297">
        <ele>84.4</ele>
        <time>2020-06-08T18:25:55Z</time>
      </trkpt>
      <trkpt lat="48.37835" lon="-4.55306">
        <ele>84.4</ele>
        <time>2020-06-08T18:25:56Z</time>
      </trkpt>
      <trkpt lat="48.37833" lon="-4.55314">
        <ele>84.4</ele>
        <time>2020-06-08T18:25:57Z</time>
      </trkpt>
      <trkpt lat="48.3783" lon="-4.55323">
        <ele>84.5</ele>
        <time>2020-06-08T18:25:58Z</time>
      </trkpt>
      <trkpt lat="48.37828" lon="-4.55331">
        <ele>84.5</ele>
        <time>2020-06-08T18:25:59Z</time>
      </trkpt>
      <trkpt lat="48.37825" lon="-4.55339">
        <ele>84.4</ele>
        <time>2020-06-08T18:26:00Z</time>
      </trkpt>
      <trkpt lat="48.37823" lon="-4.55346">
        <ele>84.4</ele>
        <time>2020-06-08T18:26:01Z</time>
      </trkpt>
      <trkpt lat="48.37821" lon="-4.55355">
        <ele>84.4</ele>
        <time>2020-06-08T18:26:02Z</time>
      </trkpt>
      <trkpt lat="48.37819" lon="-4.55362">
        <ele>84.4</ele>
        <time>2020-06-08T18:26:03Z</time>
      </trkpt>
      <trkpt lat="48.37817" lon="-4.5537">
        <ele>84.4</ele>
        <time>2020-06-08T18:26:04Z</time>
      </trkpt>
      <trkpt lat="48.37814" lon="-4.55378">
        <ele>84.4</ele>
        <time>2020-06-08T18:26:05Z</time>
      </trkpt>
      <trkpt lat="48.37811" lon="-4.55386">
        <ele>84.5</ele>
        <time>2020-06-08T18:26:06Z</time>
      </trkpt>
      <trkpt lat="48.37808" lon="-4.55395">
        <ele>84.5</ele>
        <time>2020-06-08T18:26:07Z</time>
      </trkpt>
      <trkpt lat="48.37805" lon="-4.55403">
        <ele>84.5</ele>
        <time>2020-06-08T18:26:08Z</time>
      </trkpt>
      <trkpt lat="48.37802" lon="-4.5541">
        <ele>84.6</ele>
        <time>2020-06-08T18:26:09Z</time>
      </trkpt>
      <trkpt lat="48.37798" lon="-4.55417">
        <ele>84.7</ele>
        <time>2020-06-08T18:26:10Z</time>
      </trkpt>
      <trkpt lat="48.37795" lon="-4.55425">
        <ele>84.8</ele>
        <time>2020-06-08T18:26:11Z</time>
      </trkpt>
      <trkpt lat="48.37791" lon="-4.55434">
        <ele>85</ele>
        <time>2020-06-08T18:26:12Z</time>
      </trkpt>
      <trkpt lat="48.37787" lon="-4.55445">
        <ele>85.1</ele>
        <time>2020-06-08T18:26:13Z</time>
      </trkpt>
      <trkpt lat="48.37783" lon="-4.55453">
        <ele>85.3</ele>
        <time>2020-06-08T18:26:14Z</time>
      </trkpt>
      <trkpt lat="48.37779" lon="-4.55462">
        <ele>85.4</ele>
        <time>2020-06-08T18:26:15Z</time>
      </trkpt>
      <trkpt lat="48.37777" lon="-4.5547">
        <ele>85.4</ele>
        <time>2020-06-08T18:26:16Z</time>
      </trkpt>
      <trkpt lat="48.37775" lon="-4.55477">
        <ele>85.5</ele>
        <time>2020-06-08T18:26:17Z</time>
      </trkpt>
      <trkpt lat="48.37773" lon="-4.55487">
        <ele>85.6</ele>
        <time>2020-06-08T18:26:18Z</time>
      </trkpt>
      <trkpt lat="48.37771" lon="-4.55496">
        <ele>85.6</ele>
        <time>2020-06-08T18:26:19Z</time>
      </trkpt>
      <trkpt lat="48.37769" lon="-4.55505">
        <ele>85.7</ele>
        <time>2020-06-08T18:26:20Z</time>
      </trkpt>
      <trkpt lat="48.37767" lon="-4.55515">
        <ele>85.7</ele>
        <time>2020-06-08T18:26:21Z</time>
      </trkpt>
      <trkpt lat="48.37766" lon="-4.55525">
        <ele>85.8</ele>
        <time>2020-06-08T18:26:22Z</time>
      </trkpt>
      <trkpt lat="48.37765" lon="-4.55533">
        <ele>85.8</ele>
        <time>2020-06-08T18:26:23Z</time>
      </trkpt>
      <trkpt lat="48.37763" lon="-4.55541">
        <ele>85.9</ele>
        <time>2020-06-08T18:26:24Z</time>
      </trkpt>
      <trkpt lat="48.37762" lon="-4.5555">
        <ele>85.9</ele>
        <time>2020-06-08T18:26:25Z</time>
      </trkpt>
      <trkpt lat="48.3776" lon="-4.55559">
        <ele>85.9</ele>
        <time>2020-06-08T18:26:26Z</time>
      </trkpt>
      <trkpt lat="48.37759" lon="-4.55567">
        <ele>85.9</ele>
        <time>2020-06-08T18:26:27Z</time>
      </trkpt>
      <trkpt lat="48.37758" lon="-4.55577">
        <ele>85.9</ele>
        <time>2020-06-08T18:26:28Z</time>
      </trkpt>
      <trkpt lat="48.37756" lon="-4.55586">
        <ele>86</ele>
        <time>2020-06-08T18:26:29Z</time>
      </trkpt>
      <trkpt lat="48.37756" lon="-4.55596">
        <ele>86</ele>
        <time>2020-06-08T18:26:30Z</time>
      </trkpt>
      <trkpt lat="48.37755" lon="-4.55608">
        <ele>86.1</ele>
        <time>2020-06-08T18:26:31Z</time>
      </trkpt>
      <trkpt lat="48.37753" lon="-4.55614">
        <ele>86.1</ele>
        <time>2020-06-08T18:26:32Z</time>
      </trkpt>
      <trkpt lat="48.37752" lon="-4.55623">
        <ele>86.2</ele>
        <time>2020-06-08T18:26:33Z</time>
      </trkpt>
      <trkpt lat="48.37751" lon="-4.55632">
        <ele>86.3</ele>
        <time>2020-06-08T18:26:34Z</time>
      </trkpt>
      <trkpt lat="48.37751" lon="-4.5564">
        <ele>86.3</ele>
        <time>2020-06-08T18:26:35Z</time>
      </trkpt>
      <trkpt lat="48.3775" lon="-4.55648">
        <ele>86.4</ele>
        <time>2020-06-08T18:26:36Z</time>
      </trkpt>
      <trkpt lat="48.37749" lon="-4.55656">
        <ele>86.4</ele>
        <time>2020-06-08T18:26:37Z</time>
      </trkpt>
      <trkpt lat="48.37747" lon="-4.55664">
        <ele>86.5</ele>
        <time>2020-06-08T18:26:38Z</time>
      </trkpt>
      <trkpt lat="48.37745" lon="-4.55671">
        <ele>86.5</ele>
        <time>2020-06-08T18:26:39Z</time>
      </trkpt>
      <trkpt lat="48.3774" lon="-4.55678">
        <ele>86.6</ele>
        <time>2020-06-08T18:26:40Z</time>
      </trkpt>
      <trkpt lat="48.37735" lon="-4.55679">
        <ele>86.6</ele>
        <time>2020-06-08T18:26:41Z</time>
      </trkpt>
      <trkpt lat="48.37729" lon="-4.55679">
        <ele>86.7</ele>
        <time>2020-06-08T18:26:42Z</time>
      </trkpt>
      <trkpt lat="48.37723" lon="-4.5568">
        <ele>86.8</ele>
        <time>2020-06-08T18:26:43Z</time>
      </trkpt>
      <trkpt lat="48.37718" lon="-4.55679">
        <ele>86.9</ele>
        <time>2020-06-08T18:26:44Z</time>
      </trkpt>
      <trkpt lat="48.37712" lon="-4.55681">
        <ele>87</ele>
        <time>2020-06-08T18:26:45Z</time>
      </trkpt>
      <trkpt lat="48.37707" lon="-4.55681">
        <ele>87</ele>
        <time>2020-06-08T18:26:46Z</time>
      </trkpt>
      <trkpt lat="48.37702" lon="-4.55684">
        <ele>87</ele>
        <time>2020-06-08T18:26:47Z</time>
      </trkpt>
      <trkpt lat="48.37696" lon="-4.55687">
        <ele>87</ele>
        <time>2020-06-08T18:26:48Z</time>
      </trkpt>
      <trkpt lat="48.37692" lon="-4.55694">
        <ele>86.9</ele>
        <time>2020-06-08T18:26:49Z</time>
      </trkpt>
      <trkpt lat="48.37689" lon="-4.55703">
        <ele>86.9</ele>
        <time>2020-06-08T18:26:50Z</time>
      </trkpt>
      <trkpt lat="48.37687" lon="-4.55712">
        <ele>86.8</ele>
        <time>2020-06-08T18:26:51Z</time>
      </trkpt>
      <trkpt lat="48.37685" lon="-4.55721">
        <ele>86.8</ele>
        <time>2020-06-08T18:26:52Z</time>
      </trkpt>
      <trkpt lat="48.37684" lon="-4.55731">
        <ele>86.8</ele>
        <time>2020-06-08T18:26:53Z</time>
      </trkpt>
      <trkpt lat="48.37683" lon="-4.5574">
        <ele>86.8</ele>
        <time>2020-06-08T18:26:54Z</time>
      </trkpt>
      <trkpt lat="48.37682" lon="-4.55749">
        <ele>86.7</ele>
        <time>2020-06-08T18:26:55Z</time>
      </trkpt>
      <trkpt lat="48.37683" lon="-4.55759">
        <ele>86.7</ele>
        <time>2020-06-08T18:26:56Z</time>
      </trkpt>
      <trkpt lat="48.37684" lon="-4.55768">
        <ele>86.6</ele>
        <time>2020-06-08T18:26:57Z</time>
      </trkpt>
      <trkpt lat="48.37685" lon="-4.55778">
        <ele>86.5</ele>
        <time>2020-06-08T18:26:58Z</time>
      </trkpt>
      <trkpt lat="48.37686" lon="-4.55786">
        <ele>86.4</ele>
        <time>2020-06-08T18:26:59Z</time>
      </trkpt>
      <trkpt lat="48.37688" lon="-4.55794">
        <ele>86.4</ele>
        <time>2020-06-08T18:27:00Z</time>
      </trkpt>
      <trkpt lat="48.3769" lon="-4.55802">
        <ele>86.3</ele>
        <time>2020-06-08T18:27:01Z</time>
      </trkpt>
      <trkpt lat="48.37693" lon="-4.5581">
        <ele>86.2</ele>
        <time>2020-06-08T18:27:02Z</time>
      </trkpt>
      <trkpt lat="48.37696" lon="-4.55818">
        <ele>86</ele>
        <time>2020-06-08T18:27:03Z</time>
      </trkpt>
      <trkpt lat="48.37699" lon="-4.55828">
        <ele>85.8</ele>
        <time>2020-06-08T18:27:04Z</time>
      </trkpt>
      <trkpt lat="48.377" lon="-4.55837">
        <ele>85.6</ele>
        <time>2020-06-08T18:27:05Z</time>
      </trkpt>
      <trkpt lat="48.37702" lon="-4.55847">
        <ele>85.4</ele>
        <time>2020-06-08T18:27:06Z</time>
      </trkpt>
      <trkpt lat="48.37702" lon="-4.55858">
        <ele>85.1</ele>
        <time>2020-06-08T18:27:07Z</time>
      </trkpt>
      <trkpt lat="48.37702" lon="-4.55869">
        <ele>84.8</ele>
        <time>2020-06-08T18:27:08Z</time>
      </trkpt>
      <trkpt lat="48.37702" lon="-4.55881">
        <ele>84.5</ele>
        <time>2020-06-08T18:27:09Z</time>
      </trkpt>
      <trkpt lat="48.37701" lon="-4.55892">
        <ele>84.2</ele>
        <time>2020-06-08T18:27:10Z</time>
      </trkpt>
      <trkpt lat="48.37701" lon="-4.55903">
        <ele>83.5</ele>
        <time>2020-06-08T18:27:11Z</time>
      </trkpt>
      <trkpt lat="48.377" lon="-4.55914">
        <ele>83.3</ele>
        <time>2020-06-08T18:27:12Z</time>
      </trkpt>
      <trkpt lat="48.377" lon="-4.55927">
        <ele>83.2</ele>
        <time>2020-06-08T18:27:13Z</time>
      </trkpt>
      <trkpt lat="48.377" lon="-4.5594">
        <ele>83</ele>
        <time>2020-06-08T18:27:14Z</time>
      </trkpt>
      <trkpt lat="48.377" lon="-4.55953">
        <ele>82.8</ele>
        <time>2020-06-08T18:27:15Z</time>
      </trkpt>
      <trkpt lat="48.37701" lon="-4.55966">
        <ele>82.7</ele>
        <time>2020-06-08T18:27:16Z</time>
      </trkpt>
      <trkpt lat="48.37701" lon="-4.55977">
        <ele>82.6</ele>
        <time>2020-06-08T18:27:17Z</time>
      </trkpt>
      <trkpt lat="48.37702" lon="-4.55988">
        <ele>82.5</ele>
        <time>2020-06-08T18:27:18Z</time>
      </trkpt>
      <trkpt lat="48.37701" lon="-4.55998">
        <ele>82.5</ele>
        <time>2020-06-08T18:27:19Z</time>
      </trkpt>
      <trkpt lat="48.377" lon="-4.56008">
        <ele>82.5</ele>
        <time>2020-06-08T18:27:20Z</time>
      </trkpt>
      <trkpt lat="48.37698" lon="-4.56018">
        <ele>82.5</ele>
        <time>2020-06-08T18:27:21Z</time>
      </trkpt>
      <trkpt lat="48.37694" lon="-4.56026">
        <ele>82.7</ele>
        <time>2020-06-08T18:27:22Z</time>
      </trkpt>
      <trkpt lat="48.3769" lon="-4.56033">
        <ele>83</ele>
        <time>2020-06-08T18:27:23Z</time>
      </trkpt>
      <trkpt lat="48.37686" lon="-4.5604">
        <ele>83.2</ele>
        <time>2020-06-08T18:27:24Z</time>
      </trkpt>
      <trkpt lat="48.37683" lon="-4.56049">
        <ele>83.4</ele>
        <time>2020-06-08T18:27:25Z</time>
      </trkpt>
      <trkpt lat="48.3768" lon="-4.56057">
        <ele>83.6</ele>
        <time>2020-06-08T18:27:26Z</time>
      </trkpt>
      <trkpt lat="48.37676" lon="-4.56064">
        <ele>83.8</ele>
        <time>2020-06-08T18:27:27Z</time>
      </trkpt>
      <trkpt lat="48.37673" lon="-4.56072">
        <ele>84</ele>
        <time>2020-06-08T18:27:28Z</time>
      </trkpt>
      <trkpt lat="48.3767" lon="-4.5608">
        <ele>84.2</ele>
        <time>2020-06-08T18:27:29Z</time>
      </trkpt>
      <trkpt lat="48.37668" lon="-4.56088">
        <ele>84.4</ele>
        <time>2020-06-08T18:27:30Z</time>
      </trkpt>
      <trkpt lat="48.37665" lon="-4.56094">
        <ele>84.6</ele>
        <time>2020-06-08T18:27:31Z</time>
      </trkpt>
      <trkpt lat="48.37663" lon="-4.56101">
        <ele>84.8</ele>
        <time>2020-06-08T18:27:32Z</time>
      </trkpt>
      <trkpt lat="48.37662" lon="-4.56109">
        <ele>84.9</ele>
        <time>2020-06-08T18:27:33Z</time>
      </trkpt>
      <trkpt lat="48.3766" lon="-4.56116">
        <ele>85.1</ele>
        <time>2020-06-08T18:27:34Z</time>
      </trkpt>
      <trkpt lat="48.37657" lon="-4.56123">
        <ele>85.3</ele>
        <time>2020-06-08T18:27:35Z</time>
      </trkpt>
      <trkpt lat="48.37655" lon="-4.5613">
        <ele>85.5</ele>
        <time>2020-06-08T18:27:36Z</time>
      </trkpt>
      <trkpt lat="48.37653" lon="-4.56137">
        <ele>85.7</ele>
        <time>2020-06-08T18:27:37Z</time>
      </trkpt>
      <trkpt lat="48.3765" lon="-4.56144">
        <ele>85.9</ele>
        <time>2020-06-08T18:27:38Z</time>
      </trkpt>
      <trkpt lat="48.37648" lon="-4.56151">
        <ele>86.1</ele>
        <time>2020-06-08T18:27:39Z</time>
      </trkpt>
      <trkpt lat="48.37646" lon="-4.56159">
        <ele>86.2</ele>
        <time>2020-06-08T18:27:40Z</time>
      </trkpt>
      <trkpt lat="48.37644" lon="-4.56166">
        <ele>86.4</ele>
        <time>2020-06-08T18:27:41Z</time>
      </trkpt>
      <trkpt lat="48.37643" lon="-4.56173">
        <ele>86.6</ele>
        <time>2020-06-08T18:27:42Z</time>
      </trkpt>
      <trkpt lat="48.37641" lon="-4.5618">
        <ele>86.7</ele>
        <time>2020-06-08T18:27:43Z</time>
      </trkpt>
      <trkpt lat="48.3764" lon="-4.56186">
        <ele>86.8</ele>
        <time>2020-06-08T18:27:44Z</time>
      </trkpt>
      <trkpt lat="48.3764" lon="-4.56193">
        <ele>86.9</ele>
        <time>2020-06-08T18:27:45Z</time>
      </trkpt>
      <trkpt lat="48.37639" lon="-4.562">
        <ele>87</ele>
        <time>2020-06-08T18:27:46Z</time>
      </trkpt>
      <trkpt lat="48.37638" lon="-4.56206">
        <ele>87.2</ele>
        <time>2020-06-08T18:27:47Z</time>
      </trkpt>
      <trkpt lat="48.37637" lon="-4.56214">
        <ele>87.3</ele>
        <time>2020-06-08T18:27:48Z</time>
      </trkpt>
      <trkpt lat="48.37635" lon="-4.56221">
        <ele>87.4</ele>
        <time>2020-06-08T18:27:49Z</time>
      </trkpt>
      <trkpt lat="48.37632" lon="-4.56227">
        <ele>87.5</ele>
        <time>2020-06-08T18:27:50Z</time>
      </trkpt>
      <trkpt lat="48.3763" lon="-4.56235">
        <ele>87.6</ele>
        <time>2020-06-08T18:27:51Z</time>
      </trkpt>
      <trkpt lat="48.37628" lon="-4.56242">
        <ele>87.8</ele>
        <time>2020-06-08T18:27:52Z</time>
      </trkpt>
      <trkpt lat="48.37625" lon="-4.56249">
        <ele>87.9</ele>
        <time>2020-06-08T18:27:53Z</time>
      </trkpt>
      <trkpt lat="48.37623" lon="-4.56256">
        <ele>88</ele>
        <time>2020-06-08T18:27:54Z</time>
      </trkpt>
      <trkpt lat="48.37619" lon="-4.56261">
        <ele>88.2</ele>
        <time>2020-06-08T18:27:55Z</time>
      </trkpt>
      <trkpt lat="48.37616" lon="-4.56267">
        <ele>88.3</ele>
        <time>2020-06-08T18:27:56Z</time>
      </trkpt>
      <trkpt lat="48.37614" lon="-4.56274">
        <ele>88.4</ele>
        <time>2020-06-08T18:27:57Z</time>
      </trkpt>
      <trkpt lat="48.37613" lon="-4.56282">
        <ele>88.5</ele>
        <time>2020-06-08T18:27:58Z</time>
      </trkpt>
      <trkpt lat="48.3761" lon="-4.56288">
        <ele>88.6</ele>
        <time>2020-06-08T18:27:59Z</time>
      </trkpt>
      <trkpt lat="48.37608" lon="-4.56293">
        <ele>88.6</ele>
        <time>2020-06-08T18:28:00Z</time>
      </trkpt>
      <trkpt lat="48.37605" lon="-4.56298">
        <ele>88.7</ele>
        <time>2020-06-08T18:28:01Z</time>
      </trkpt>
      <trkpt lat="48.37604" lon="-4.56304">
        <ele>88.9</ele>
        <time>2020-06-08T18:28:02Z</time>
      </trkpt>
      <trkpt lat="48.37601" lon="-4.56311">
        <ele>89</ele>
        <time>2020-06-08T18:28:03Z</time>
      </trkpt>
      <trkpt lat="48.37598" lon="-4.56317">
        <ele>89.1</ele>
        <time>2020-06-08T18:28:04Z</time>
      </trkpt>
      <trkpt lat="48.37596" lon="-4.56325">
        <ele>89.2</ele>
        <time>2020-06-08T18:28:05Z</time>
      </trkpt>
      <trkpt lat="48.37592" lon="-4.56331">
        <ele>89.3</ele>
        <time>2020-06-08T18:28:06Z</time>
      </trkpt>
      <trkpt lat="48.37588" lon="-4.56337">
        <ele>89.3</ele>
        <time>2020-06-08T18:28:07Z</time>
      </trkpt>
      <trkpt lat="48.37586" lon="-4.56343">
        <ele>89.4</ele>
        <time>2020-06-08T18:28:08Z</time>
      </trkpt>
      <trkpt lat="48.37583" lon="-4.56348">
        <ele>89.5</ele>
        <time>2020-06-08T18:28:09Z</time>
      </trkpt>
      <trkpt lat="48.37579" lon="-4.56353">
        <ele>89.5</ele>
        <time>2020-06-08T18:28:10Z</time>
      </trkpt>
      <trkpt lat="48.37577" lon="-4.5636">
        <ele>89.6</ele>
        <time>2020-06-08T18:28:11Z</time>
      </trkpt>
      <trkpt lat="48.37574" lon="-4.56366">
        <ele>89.6</ele>
        <time>2020-06-08T18:28:12Z</time>
      </trkpt>
      <trkpt lat="48.37571" lon="-4.56373">
        <ele>89.7</ele>
        <time>2020-06-08T18:28:13Z</time>
      </trkpt>
      <trkpt lat="48.37569" lon="-4.56381">
        <ele>89.8</ele>
        <time>2020-06-08T18:28:14Z</time>
      </trkpt>
      <trkpt lat="48.37565" lon="-4.56387">
        <ele>89.8</ele>
        <time>2020-06-08T18:28:15Z</time>
      </trkpt>
      <trkpt lat="48.37563" lon="-4.56395">
        <ele>89.9</ele>
        <time>2020-06-08T18:28:16Z</time>
      </trkpt>
      <trkpt lat="48.3756" lon="-4.56401">
        <ele>89.9</ele>
        <time>2020-06-08T18:28:17Z</time>
      </trkpt>
      <trkpt lat="48.37557" lon="-4.56407">
        <ele>90</ele>
        <time>2020-06-08T18:28:18Z</time>
      </trkpt>
      <trkpt lat="48.37554" lon="-4.56414">
        <ele>90.1</ele>
        <time>2020-06-08T18:28:19Z</time>
      </trkpt>
      <trkpt lat="48.37551" lon="-4.56419">
        <ele>90.1</ele>
        <time>2020-06-08T18:28:20Z</time>
      </trkpt>
      <trkpt lat="48.37549" lon="-4.56426">
        <ele>90.1</ele>
        <time>2020-06-08T18:28:21Z</time>
      </trkpt>
      <trkpt lat="48.37546" lon="-4.56431">
        <ele>90.2</ele>
        <time>2020-06-08T18:28:22Z</time>
      </trkpt>
      <trkpt lat="48.37544" lon="-4.56438">
        <ele>90.2</ele>
        <time>2020-06-08T18:28:23Z</time>
      </trkpt>
      <trkpt lat="48.37542" lon="-4.56445">
        <ele>90.3</ele>
        <time>2020-06-08T18:28:24Z</time>
      </trkpt>
      <trkpt lat="48.37539" lon="-4.56451">
        <ele>90.3</ele>
        <time>2020-06-08T18:28:25Z</time>
      </trkpt>
      <trkpt lat="48.37537" lon="-4.56456">
        <ele>90.3</ele>
        <time>2020-06-08T18:28:26Z</time>
      </trkpt>
      <trkpt lat="48.37533" lon="-4.56461">
        <ele>90.3</ele>
        <time>2020-06-08T18:28:27Z</time>
      </trkpt>
      <trkpt lat="48.37528" lon="-4.56464">
        <ele>90.3</ele>
        <time>2020-06-08T18:28:28Z</time>
      </trkpt>
      <trkpt lat="48.37522" lon="-4.56463">
        <ele>90.2</ele>
        <time>2020-06-08T18:28:29Z</time>
      </trkpt>
      <trkpt lat="48.37516" lon="-4.56463">
        <ele>90.1</ele>
        <time>2020-06-08T18:28:30Z</time>
      </trkpt>
      <trkpt lat="48.3751" lon="-4.56463">
        <ele>89.9</ele>
        <time>2020-06-08T18:28:31Z</time>
      </trkpt>
      <trkpt lat="48.37504" lon="-4.56462">
        <ele>89.8</ele>
        <time>2020-06-08T18:28:32Z</time>
      </trkpt>
      <trkpt lat="48.37498" lon="-4.56459">
        <ele>89.6</ele>
        <time>2020-06-08T18:28:33Z</time>
      </trkpt>
      <trkpt lat="48.37493" lon="-4.56457">
        <ele>89.5</ele>
        <time>2020-06-08T18:28:34Z</time>
      </trkpt>
      <trkpt lat="48.37487" lon="-4.56454">
        <ele>89.3</ele>
        <time>2020-06-08T18:28:35Z</time>
      </trkpt>
      <trkpt lat="48.37481" lon="-4.56453">
        <ele>89.2</ele>
        <time>2020-06-08T18:28:36Z</time>
      </trkpt>
      <trkpt lat="48.37475" lon="-4.56451">
        <ele>89.1</ele>
        <time>2020-06-08T18:28:37Z</time>
      </trkpt>
      <trkpt lat="48.37471" lon="-4.56454">
        <ele>89</ele>
        <time>2020-06-08T18:28:38Z</time>
      </trkpt>
      <trkpt lat="48.37467" lon="-4.56461">
        <ele>88.8</ele>
        <time>2020-06-08T18:28:39Z</time>
      </trkpt>
      <trkpt lat="48.37464" lon="-4.56469">
        <ele>88.8</ele>
        <time>2020-06-08T18:28:40Z</time>
      </trkpt>
      <trkpt lat="48.37464" lon="-4.56477">
        <ele>88.8</ele>
        <time>2020-06-08T18:28:41Z</time>
      </trkpt>
      <trkpt lat="48.37463" lon="-4.56485">
        <ele>88.8</ele>
        <time>2020-06-08T18:28:42Z</time>
      </trkpt>
      <trkpt lat="48.37463" lon="-4.56493">
        <ele>88.8</ele>
        <time>2020-06-08T18:28:43Z</time>
      </trkpt>
      <trkpt lat="48.37462" lon="-4.56501">
        <ele>88.8</ele>
        <time>2020-06-08T18:28:44Z</time>
      </trkpt>
      <trkpt lat="48.3746" lon="-4.56509">
        <ele>88.8</ele>
        <time>2020-06-08T18:28:45Z</time>
      </trkpt>
      <trkpt lat="48.37459" lon="-4.56518">
        <ele>88.7</ele>
        <time>2020-06-08T18:28:46Z</time>
      </trkpt>
      <trkpt lat="48.37458" lon="-4.56526">
        <ele>88.7</ele>
        <time>2020-06-08T18:28:47Z</time>
      </trkpt>
      <trkpt lat="48.37456" lon="-4.56535">
        <ele>88.7</ele>
        <time>2020-06-08T18:28:48Z</time>
      </trkpt>
      <trkpt lat="48.37455" lon="-4.56544">
        <ele>88.6</ele>
        <time>2020-06-08T18:28:49Z</time>
      </trkpt>
      <trkpt lat="48.37452" lon="-4.56553">
        <ele>88.6</ele>
        <time>2020-06-08T18:28:50Z</time>
      </trkpt>
      <trkpt lat="48.3745" lon="-4.56561">
        <ele>88.5</ele>
        <time>2020-06-08T18:28:51Z</time>
      </trkpt>
      <trkpt lat="48.37448" lon="-4.5657">
        <ele>88.4</ele>
        <time>2020-06-08T18:28:52Z</time>
      </trkpt>
      <trkpt lat="48.37446" lon="-4.56579">
        <ele>88.4</ele>
        <time>2020-06-08T18:28:53Z</time>
      </trkpt>
      <trkpt lat="48.37445" lon="-4.56589">
        <ele>88.3</ele>
        <time>2020-06-08T18:28:54Z</time>
      </trkpt>
      <trkpt lat="48.37444" lon="-4.56599">
        <ele>88.2</ele>
        <time>2020-06-08T18:28:55Z</time>
      </trkpt>
      <trkpt lat="48.37442" lon="-4.56608">
        <ele>88.2</ele>
        <time>2020-06-08T18:28:56Z</time>
      </trkpt>
      <trkpt lat="48.37441" lon="-4.56618">
        <ele>88.1</ele>
        <time>2020-06-08T18:28:57Z</time>
      </trkpt>
      <trkpt lat="48.37439" lon="-4.56627">
        <ele>88</ele>
        <time>2020-06-08T18:28:58Z</time>
      </trkpt>
      <trkpt lat="48.37437" lon="-4.56636">
        <ele>88</ele>
        <time>2020-06-08T18:28:59Z</time>
      </trkpt>
      <trkpt lat="48.37435" lon="-4.56645">
        <ele>87.9</ele>
        <time>2020-06-08T18:29:00Z</time>
      </trkpt>
      <trkpt lat="48.37433" lon="-4.56654">
        <ele>87.8</ele>
        <time>2020-06-08T18:29:01Z</time>
      </trkpt>
      <trkpt lat="48.37431" lon="-4.56663">
        <ele>87.8</ele>
        <time>2020-06-08T18:29:02Z</time>
      </trkpt>
      <trkpt lat="48.37429" lon="-4.56672">
        <ele>87.7</ele>
        <time>2020-06-08T18:29:03Z</time>
      </trkpt>
      <trkpt lat="48.37426" lon="-4.56681">
        <ele>87.6</ele>
        <time>2020-06-08T18:29:04Z</time>
      </trkpt>
      <trkpt lat="48.37424" lon="-4.5669">
        <ele>87.6</ele>
        <time>2020-06-08T18:29:05Z</time>
      </trkpt>
      <trkpt lat="48.37421" lon="-4.56699">
        <ele>87.6</ele>
        <time>2020-06-08T18:29:06Z</time>
      </trkpt>
      <trkpt lat="48.37419" lon="-4.56708">
        <ele>87.5</ele>
        <time>2020-06-08T18:29:07Z</time>
      </trkpt>
      <trkpt lat="48.37417" lon="-4.56718">
        <ele>87.4</ele>
        <time>2020-06-08T18:29:08Z</time>
      </trkpt>
      <trkpt lat="48.37416" lon="-4.56728">
        <ele>87.3</ele>
        <time>2020-06-08T18:29:09Z</time>
      </trkpt>
      <trkpt lat="48.37414" lon="-4.56738">
        <ele>87.2</ele>
        <time>2020-06-08T18:29:10Z</time>
      </trkpt>
      <trkpt lat="48.37413" lon="-4.56747">
        <ele>87</ele>
        <time>2020-06-08T18:29:11Z</time>
      </trkpt>
      <trkpt lat="48.37411" lon="-4.56757">
        <ele>86.9</ele>
        <time>2020-06-08T18:29:12Z</time>
      </trkpt>
      <trkpt lat="48.3741" lon="-4.56766">
        <ele>86.8</ele>
        <time>2020-06-08T18:29:13Z</time>
      </trkpt>
      <trkpt lat="48.37409" lon="-4.56776">
        <ele>86.7</ele>
        <time>2020-06-08T18:29:14Z</time>
      </trkpt>
      <trkpt lat="48.37409" lon="-4.56785">
        <ele>86.6</ele>
        <time>2020-06-08T18:29:15Z</time>
      </trkpt>
      <trkpt lat="48.37409" lon="-4.56795">
        <ele>86.6</ele>
        <time>2020-06-08T18:29:16Z</time>
      </trkpt>
      <trkpt lat="48.37409" lon="-4.56804">
        <ele>86.5</ele>
        <time>2020-06-08T18:29:17Z</time>
      </trkpt>
      <trkpt lat="48.3741" lon="-4.56814">
        <ele>86.5</ele>
        <time>2020-06-08T18:29:18Z</time>
      </trkpt>
      <trkpt lat="48.37411" lon="-4.56823">
        <ele>86.6</ele>
        <time>2020-06-08T18:29:19Z</time>
      </trkpt>
      <trkpt lat="48.37413" lon="-4.56832">
        <ele>86.6</ele>
        <time>2020-06-08T18:29:20Z</time>
      </trkpt>
      <trkpt lat="48.37414" lon="-4.5684">
        <ele>86.6</ele>
        <time>2020-06-08T18:29:21Z</time>
      </trkpt>
      <trkpt lat="48.37415" lon="-4.56849">
        <ele>86.6</ele>
        <time>2020-06-08T18:29:22Z</time>
      </trkpt>
      <trkpt lat="48.37415" lon="-4.56857">
        <ele>86.6</ele>
        <time>2020-06-08T18:29:23Z</time>
      </trkpt>
      <trkpt lat="48.37413" lon="-4.56865">
        <ele>86.5</ele>
        <time>2020-06-08T18:29:24Z</time>
      </trkpt>
      <trkpt lat="48.37412" lon="-4.56873">
        <ele>86.5</ele>
        <time>2020-06-08T18:29:25Z</time>
      </trkpt>
      <trkpt lat="48.3741" lon="-4.56881">
        <ele>86.4</ele>
        <time>2020-06-08T18:29:26Z</time>
      </trkpt>
      <trkpt lat="48.3741" lon="-4.5689">
        <ele>86.4</ele>
        <time>2020-06-08T18:29:27Z</time>
      </trkpt>
      <trkpt lat="48.37409" lon="-4.56899">
        <ele>86.4</ele>
        <time>2020-06-08T18:29:28Z</time>
      </trkpt>
      <trkpt lat="48.37408" lon="-4.56909">
        <ele>86.3</ele>
        <time>2020-06-08T18:29:29Z</time>
      </trkpt>
      <trkpt lat="48.37408" lon="-4.56918">
        <ele>86.3</ele>
        <time>2020-06-08T18:29:30Z</time>
      </trkpt>
      <trkpt lat="48.37409" lon="-4.56928">
        <ele>86.3</ele>
        <time>2020-06-08T18:29:31Z</time>
      </trkpt>
      <trkpt lat="48.37407" lon="-4.56937">
        <ele>86.3</ele>
        <time>2020-06-08T18:29:32Z</time>
      </trkpt>
      <trkpt lat="48.37407" lon="-4.56947">
        <ele>86.3</ele>
        <time>2020-06-08T18:29:33Z</time>
      </trkpt>
      <trkpt lat="48.37408" lon="-4.56957">
        <ele>86.3</ele>
        <time>2020-06-08T18:29:34Z</time>
      </trkpt>
      <trkpt lat="48.37409" lon="-4.56967">
        <ele>86.3</ele>
        <time>2020-06-08T18:29:35Z</time>
      </trkpt>
      <trkpt lat="48.37409" lon="-4.56977">
        <ele>86.3</ele>
        <time>2020-06-08T18:29:36Z</time>
      </trkpt>
      <trkpt lat="48.37409" lon="-4.56987">
        <ele>86.3</ele>
        <time>2020-06-08T18:29:37Z</time>
      </trkpt>
      <trkpt lat="48.37409" lon="-4.56997">
        <ele>86.3</ele>
        <time>2020-06-08T18:29:38Z</time>
      </trkpt>
      <trkpt lat="48.37408" lon="-4.57006">
        <ele>86.2</ele>
        <time>2020-06-08T18:29:39Z</time>
      </trkpt>
      <trkpt lat="48.37408" lon="-4.57016">
        <ele>86.2</ele>
        <time>2020-06-08T18:29:40Z</time>
      </trkpt>
      <trkpt lat="48.37407" lon="-4.57026">
        <ele>86</ele>
        <time>2020-06-08T18:29:41Z</time>
      </trkpt>
      <trkpt lat="48.37408" lon="-4.57035">
        <ele>85.9</ele>
        <time>2020-06-08T18:29:42Z</time>
      </trkpt>
      <trkpt lat="48.37407" lon="-4.57045">
        <ele>85.7</ele>
        <time>2020-06-08T18:29:43Z</time>
      </trkpt>
      <trkpt lat="48.37407" lon="-4.57055">
        <ele>85.4</ele>
        <time>2020-06-08T18:29:44Z</time>
      </trkpt>
      <trkpt lat="48.37405" lon="-4.57064">
        <ele>85.2</ele>
        <time>2020-06-08T18:29:45Z</time>
      </trkpt>
      <trkpt lat="48.37404" lon="-4.57074">
        <ele>84.9</ele>
        <time>2020-06-08T18:29:46Z</time>
      </trkpt>
      <trkpt lat="48.37404" lon="-4.57085">
        <ele>84.6</ele>
        <time>2020-06-08T18:29:47Z</time>
      </trkpt>
      <trkpt lat="48.37403" lon="-4.57095">
        <ele>84.3</ele>
        <time>2020-06-08T18:29:48Z</time>
      </trkpt>
      <trkpt lat="48.37402" lon="-4.57106">
        <ele>84</ele>
        <time>2020-06-08T18:29:49Z</time>
      </trkpt>
      <trkpt lat="48.37401" lon="-4.57116">
        <ele>83.6</ele>
        <time>2020-06-08T18:29:50Z</time>
      </trkpt>
      <trkpt lat="48.374" lon="-4.57127">
        <ele>83.2</ele>
        <time>2020-06-08T18:29:51Z</time>
      </trkpt>
      <trkpt lat="48.37399" lon="-4.57139">
        <ele>83</ele>
        <time>2020-06-08T18:29:52Z</time>
      </trkpt>
      <trkpt lat="48.37398" lon="-4.5715">
        <ele>82.7</ele>
        <time>2020-06-08T18:29:53Z</time>
      </trkpt>
      <trkpt lat="48.37397" lon="-4.57161">
        <ele>82.5</ele>
        <time>2020-06-08T18:29:54Z</time>
      </trkpt>
      <trkpt lat="48.37395" lon="-4.57172">
        <ele>82.2</ele>
        <time>2020-06-08T18:29:55Z</time>
      </trkpt>
      <trkpt lat="48.37394" lon="-4.57183">
        <ele>82</ele>
        <time>2020-06-08T18:29:56Z</time>
      </trkpt>
      <trkpt lat="48.37393" lon="-4.57195">
        <ele>81.8</ele>
        <time>2020-06-08T18:29:57Z</time>
      </trkpt>
      <trkpt lat="48.37393" lon="-4.57207">
        <ele>81.5</ele>
        <time>2020-06-08T18:29:58Z</time>
      </trkpt>
      <trkpt lat="48.37392" lon="-4.57218">
        <ele>81.4</ele>
        <time>2020-06-08T18:29:59Z</time>
      </trkpt>
      <trkpt lat="48.37391" lon="-4.5723">
        <ele>81.1</ele>
        <time>2020-06-08T18:30:00Z</time>
      </trkpt>
      <trkpt lat="48.3739" lon="-4.57241">
        <ele>81.1</ele>
        <time>2020-06-08T18:30:01Z</time>
      </trkpt>
      <trkpt lat="48.3739" lon="-4.57252">
        <ele>81</ele>
        <time>2020-06-08T18:30:02Z</time>
      </trkpt>
      <trkpt lat="48.37389" lon="-4.57262">
        <ele>81</ele>
        <time>2020-06-08T18:30:03Z</time>
      </trkpt>
      <trkpt lat="48.37389" lon="-4.57272">
        <ele>81</ele>
        <time>2020-06-08T18:30:04Z</time>
      </trkpt>
      <trkpt lat="48.37388" lon="-4.57282">
        <ele>81</ele>
        <time>2020-06-08T18:30:05Z</time>
      </trkpt>
      <trkpt lat="48.37386" lon="-4.57291">
        <ele>81.1</ele>
        <time>2020-06-08T18:30:06Z</time>
      </trkpt>
      <trkpt lat="48.37385" lon="-4.573">
        <ele>81.3</ele>
        <time>2020-06-08T18:30:07Z</time>
      </trkpt>
      <trkpt lat="48.37383" lon="-4.57309">
        <ele>81.4</ele>
        <time>2020-06-08T18:30:08Z</time>
      </trkpt>
      <trkpt lat="48.37383" lon="-4.57318">
        <ele>81.6</ele>
        <time>2020-06-08T18:30:09Z</time>
      </trkpt>
      <trkpt lat="48.37383" lon="-4.57326">
        <ele>81.8</ele>
        <time>2020-06-08T18:30:10Z</time>
      </trkpt>
      <trkpt lat="48.37384" lon="-4.57333">
        <ele>82</ele>
        <time>2020-06-08T18:30:11Z</time>
      </trkpt>
      <trkpt lat="48.37386" lon="-4.5734">
        <ele>82.2</ele>
        <time>2020-06-08T18:30:12Z</time>
      </trkpt>
      <trkpt lat="48.3739" lon="-4.57345">
        <ele>82.5</ele>
        <time>2020-06-08T18:30:13Z</time>
      </trkpt>
      <trkpt lat="48.37394" lon="-4.57349">
        <ele>82.7</ele>
        <time>2020-06-08T18:30:14Z</time>
      </trkpt>
      <trkpt lat="48.37396" lon="-4.57353">
        <ele>82.8</ele>
        <time>2020-06-08T18:30:15Z</time>
      </trkpt>
      <trkpt lat="48.37398" lon="-4.57358">
        <ele>82.9</ele>
        <time>2020-06-08T18:30:16Z</time>
      </trkpt>
      <trkpt lat="48.37399" lon="-4.57362">
        <ele>83</ele>
        <time>2020-06-08T18:30:17Z</time>
      </trkpt>
      <trkpt lat="48.374" lon="-4.57366">
        <ele>83.2</ele>
        <time>2020-06-08T18:30:18Z</time>
      </trkpt>
      <trkpt lat="48.374" lon="-4.5737">
        <ele>83.2</ele>
        <time>2020-06-08T18:30:19Z</time>
      </trkpt>
      <trkpt lat="48.37398" lon="-4.57373">
        <ele>83.2</ele>
        <time>2020-06-08T18:30:20Z</time>
      </trkpt>
      <trkpt lat="48.37396" lon="-4.57378">
        <ele>83.1</ele>
        <time>2020-06-08T18:30:21Z</time>
      </trkpt>
      <trkpt lat="48.37395" lon="-4.57379">
        <ele>83.1</ele>
        <time>2020-06-08T18:30:22Z</time>
      </trkpt>
      <trkpt lat="48.37392" lon="-4.57381">
        <ele>83</ele>
        <time>2020-06-08T18:30:23Z</time>
      </trkpt>
      <trkpt lat="48.37389" lon="-4.57384">
        <ele>82.9</ele>
        <time>2020-06-08T18:30:24Z</time>
      </trkpt>
      <trkpt lat="48.37385" lon="-4.57389">
        <ele>82.8</ele>
        <time>2020-06-08T18:30:25Z</time>
      </trkpt>
      <trkpt lat="48.37382" lon="-4.57396">
        <ele>82.8</ele>
        <time>2020-06-08T18:30:26Z</time>
      </trkpt>
      <trkpt lat="48.3738" lon="-4.57403">
        <ele>82.8</ele>
        <time>2020-06-08T18:30:27Z</time>
      </trkpt>
      <trkpt lat="48.3738" lon="-4.57411">
        <ele>82.8</ele>
        <time>2020-06-08T18:30:28Z</time>
      </trkpt>
      <trkpt lat="48.3738" lon="-4.5742">
        <ele>82.9</ele>
        <time>2020-06-08T18:30:29Z</time>
      </trkpt>
      <trkpt lat="48.37378" lon="-4.57428">
        <ele>83</ele>
        <time>2020-06-08T18:30:30Z</time>
      </trkpt>
      <trkpt lat="48.37376" lon="-4.57437">
        <ele>83.1</ele>
        <time>2020-06-08T18:30:31Z</time>
      </trkpt>
      <trkpt lat="48.37377" lon="-4.57446">
        <ele>83.3</ele>
        <time>2020-06-08T18:30:32Z</time>
      </trkpt>
      <trkpt lat="48.37377" lon="-4.57455">
        <ele>83.4</ele>
        <time>2020-06-08T18:30:33Z</time>
      </trkpt>
      <trkpt lat="48.37377" lon="-4.57464">
        <ele>83.6</ele>
        <time>2020-06-08T18:30:34Z</time>
      </trkpt>
      <trkpt lat="48.37378" lon="-4.57474">
        <ele>83.7</ele>
        <time>2020-06-08T18:30:35Z</time>
      </trkpt>
      <trkpt lat="48.37378" lon="-4.57483">
        <ele>83.9</ele>
        <time>2020-06-08T18:30:36Z</time>
      </trkpt>
      <trkpt lat="48.37379" lon="-4.57492">
        <ele>84.1</ele>
        <time>2020-06-08T18:30:37Z</time>
      </trkpt>
      <trkpt lat="48.3738" lon="-4.57501">
        <ele>84.3</ele>
        <time>2020-06-08T18:30:38Z</time>
      </trkpt>
      <trkpt lat="48.37381" lon="-4.5751">
        <ele>84.4</ele>
        <time>2020-06-08T18:30:39Z</time>
      </trkpt>
      <trkpt lat="48.37382" lon="-4.5752">
        <ele>84.6</ele>
        <time>2020-06-08T18:30:40Z</time>
      </trkpt>
      <trkpt lat="48.37383" lon="-4.5753">
        <ele>84.8</ele>
        <time>2020-06-08T18:30:41Z</time>
      </trkpt>
      <trkpt lat="48.37383" lon="-4.57542">
        <ele>85</ele>
        <time>2020-06-08T18:30:42Z</time>
      </trkpt>
      <trkpt lat="48.37384" lon="-4.57552">
        <ele>85.2</ele>
        <time>2020-06-08T18:30:43Z</time>
      </trkpt>
      <trkpt lat="48.37385" lon="-4.57561">
        <ele>85.3</ele>
        <time>2020-06-08T18:30:44Z</time>
      </trkpt>
      <trkpt lat="48.37384" lon="-4.5757">
        <ele>85.5</ele>
        <time>2020-06-08T18:30:45Z</time>
      </trkpt>
      <trkpt lat="48.37385" lon="-4.57577">
        <ele>85.7</ele>
        <time>2020-06-08T18:30:46Z</time>
      </trkpt>
      <trkpt lat="48.37385" lon="-4.57585">
        <ele>85.8</ele>
        <time>2020-06-08T18:30:47Z</time>
      </trkpt>
      <trkpt lat="48.37385" lon="-4.57593">
        <ele>86</ele>
        <time>2020-06-08T18:30:48Z</time>
      </trkpt>
      <trkpt lat="48.37386" lon="-4.576">
        <ele>86.1</ele>
        <time>2020-06-08T18:30:49Z</time>
      </trkpt>
      <trkpt lat="48.37386" lon="-4.57609">
        <ele>86.2</ele>
        <time>2020-06-08T18:30:50Z</time>
      </trkpt>
      <trkpt lat="48.37386" lon="-4.57618">
        <ele>86.3</ele>
        <time>2020-06-08T18:30:51Z</time>
      </trkpt>
      <trkpt lat="48.37386" lon="-4.57627">
        <ele>86.4</ele>
        <time>2020-06-08T18:30:52Z</time>
      </trkpt>
      <trkpt lat="48.37385" lon="-4.57634">
        <ele>86.5</ele>
        <time>2020-06-08T18:30:53Z</time>
      </trkpt>
      <trkpt lat="48.37385" lon="-4.57644">
        <ele>86.6</ele>
        <time>2020-06-08T18:30:54Z</time>
      </trkpt>
      <trkpt lat="48.37383" lon="-4.57652">
        <ele>86.6</ele>
        <time>2020-06-08T18:30:55Z</time>
      </trkpt>
      <trkpt lat="48.37382" lon="-4.57661">
        <ele>86.7</ele>
        <time>2020-06-08T18:30:56Z</time>
      </trkpt>
      <trkpt lat="48.37382" lon="-4.57669">
        <ele>86.8</ele>
        <time>2020-06-08T18:30:57Z</time>
      </trkpt>
      <trkpt lat="48.37382" lon="-4.57677">
        <ele>86.8</ele>
        <time>2020-06-08T18:30:58Z</time>
      </trkpt>
      <trkpt lat="48.37382" lon="-4.57684">
        <ele>86.8</ele>
        <time>2020-06-08T18:30:59Z</time>
      </trkpt>
      <trkpt lat="48.37381" lon="-4.57692">
        <ele>86.9</ele>
        <time>2020-06-08T18:31:00Z</time>
      </trkpt>
      <trkpt lat="48.37379" lon="-4.57701">
        <ele>86.9</ele>
        <time>2020-06-08T18:31:01Z</time>
      </trkpt>
      <trkpt lat="48.37377" lon="-4.57709">
        <ele>87</ele>
        <time>2020-06-08T18:31:02Z</time>
      </trkpt>
      <trkpt lat="48.37375" lon="-4.57718">
        <ele>87</ele>
        <time>2020-06-08T18:31:03Z</time>
      </trkpt>
      <trkpt lat="48.37373" lon="-4.57725">
        <ele>87</ele>
        <time>2020-06-08T18:31:04Z</time>
      </trkpt>
      <trkpt lat="48.37371" lon="-4.57733">
        <ele>87.1</ele>
        <time>2020-06-08T18:31:05Z</time>
      </trkpt>
      <trkpt lat="48.3737" lon="-4.57741">
        <ele>87.1</ele>
        <time>2020-06-08T18:31:06Z</time>
      </trkpt>
      <trkpt lat="48.37366" lon="-4.57751">
        <ele>87.2</ele>
        <time>2020-06-08T18:31:07Z</time>
      </trkpt>
      <trkpt lat="48.37364" lon="-4.57759">
        <ele>87.3</ele>
        <time>2020-06-08T18:31:08Z</time>
      </trkpt>
      <trkpt lat="48.37363" lon="-4.57767">
        <ele>87.3</ele>
        <time>2020-06-08T18:31:09Z</time>
      </trkpt>
      <trkpt lat="48.37361" lon="-4.57774">
        <ele>87.3</ele>
        <time>2020-06-08T18:31:10Z</time>
      </trkpt>
      <trkpt lat="48.37359" lon="-4.57782">
        <ele>87.2</ele>
        <time>2020-06-08T18:31:11Z</time>
      </trkpt>
      <trkpt lat="48.37356" lon="-4.5779">
        <ele>87.2</ele>
        <time>2020-06-08T18:31:12Z</time>
      </trkpt>
      <trkpt lat="48.37352" lon="-4.57799">
        <ele>87.1</ele>
        <time>2020-06-08T18:31:13Z</time>
      </trkpt>
      <trkpt lat="48.37349" lon="-4.57807">
        <ele>87.1</ele>
        <time>2020-06-08T18:31:14Z</time>
      </trkpt>
      <trkpt lat="48.37345" lon="-4.57815">
        <ele>87</ele>
        <time>2020-06-08T18:31:15Z</time>
      </trkpt>
      <trkpt lat="48.37342" lon="-4.57823">
        <ele>87</ele>
        <time>2020-06-08T18:31:16Z</time>
      </trkpt>
      <trkpt lat="48.37339" lon="-4.57832">
        <ele>87</ele>
        <time>2020-06-08T18:31:17Z</time>
      </trkpt>
      <trkpt lat="48.37337" lon="-4.5784">
        <ele>86.9</ele>
        <time>2020-06-08T18:31:18Z</time>
      </trkpt>
      <trkpt lat="48.37335" lon="-4.57847">
        <ele>86.8</ele>
        <time>2020-06-08T18:31:19Z</time>
      </trkpt>
      <trkpt lat="48.37332" lon="-4.57852">
        <ele>86.8</ele>
        <time>2020-06-08T18:31:20Z</time>
      </trkpt>
      <trkpt lat="48.3733" lon="-4.57861">
        <ele>86.7</ele>
        <time>2020-06-08T18:31:21Z</time>
      </trkpt>
      <trkpt lat="48.37327" lon="-4.57868">
        <ele>86.6</ele>
        <time>2020-06-08T18:31:22Z</time>
      </trkpt>
      <trkpt lat="48.37323" lon="-4.57876">
        <ele>86.5</ele>
        <time>2020-06-08T18:31:23Z</time>
      </trkpt>
      <trkpt lat="48.37317" lon="-4.57884">
        <ele>86.3</ele>
        <time>2020-06-08T18:31:24Z</time>
      </trkpt>
      <trkpt lat="48.37313" lon="-4.57891">
        <ele>86.2</ele>
        <time>2020-06-08T18:31:25Z</time>
      </trkpt>
      <trkpt lat="48.37309" lon="-4.579">
        <ele>86</ele>
        <time>2020-06-08T18:31:26Z</time>
      </trkpt>
      <trkpt lat="48.37307" lon="-4.57909">
        <ele>85.9</ele>
        <time>2020-06-08T18:31:27Z</time>
      </trkpt>
      <trkpt lat="48.37304" lon="-4.57918">
        <ele>85.7</ele>
        <time>2020-06-08T18:31:28Z</time>
      </trkpt>
      <trkpt lat="48.373" lon="-4.57927">
        <ele>85.6</ele>
        <time>2020-06-08T18:31:29Z</time>
      </trkpt>
      <trkpt lat="48.37297" lon="-4.57936">
        <ele>85.4</ele>
        <time>2020-06-08T18:31:30Z</time>
      </trkpt>
      <trkpt lat="48.37293" lon="-4.57946">
        <ele>85.2</ele>
        <time>2020-06-08T18:31:31Z</time>
      </trkpt>
      <trkpt lat="48.3729" lon="-4.57955">
        <ele>85.1</ele>
        <time>2020-06-08T18:31:32Z</time>
      </trkpt>
      <trkpt lat="48.37289" lon="-4.57963">
        <ele>85</ele>
        <time>2020-06-08T18:31:33Z</time>
      </trkpt>
      <trkpt lat="48.3729" lon="-4.57972">
        <ele>85</ele>
        <time>2020-06-08T18:31:34Z</time>
      </trkpt>
      <trkpt lat="48.3729" lon="-4.5798">
        <ele>84.9</ele>
        <time>2020-06-08T18:31:35Z</time>
      </trkpt>
      <trkpt lat="48.37288" lon="-4.57987">
        <ele>84.7</ele>
        <time>2020-06-08T18:31:36Z</time>
      </trkpt>
      <trkpt lat="48.37285" lon="-4.57994">
        <ele>84.4</ele>
        <time>2020-06-08T18:31:37Z</time>
      </trkpt>
      <trkpt lat="48.37281" lon="-4.57999">
        <ele>84.1</ele>
        <time>2020-06-08T18:31:38Z</time>
      </trkpt>
      <trkpt lat="48.37276" lon="-4.58002">
        <ele>83.7</ele>
        <time>2020-06-08T18:31:39Z</time>
      </trkpt>
      <trkpt lat="48.3727" lon="-4.58007">
        <ele>83.3</ele>
        <time>2020-06-08T18:31:40Z</time>
      </trkpt>
      <trkpt lat="48.37265" lon="-4.58011">
        <ele>82.9</ele>
        <time>2020-06-08T18:31:41Z</time>
      </trkpt>
      <trkpt lat="48.37259" lon="-4.58016">
        <ele>82.5</ele>
        <time>2020-06-08T18:31:42Z</time>
      </trkpt>
      <trkpt lat="48.37253" lon="-4.58023">
        <ele>82.2</ele>
        <time>2020-06-08T18:31:43Z</time>
      </trkpt>
      <trkpt lat="48.37248" lon="-4.58033">
        <ele>81.7</ele>
        <time>2020-06-08T18:31:44Z</time>
      </trkpt>
      <trkpt lat="48.37245" lon="-4.58045">
        <ele>81.3</ele>
        <time>2020-06-08T18:31:45Z</time>
      </trkpt>
      <trkpt lat="48.37241" lon="-4.58055">
        <ele>81</ele>
        <time>2020-06-08T18:31:46Z</time>
      </trkpt>
      <trkpt lat="48.37237" lon="-4.58065">
        <ele>80.8</ele>
        <time>2020-06-08T18:31:47Z</time>
      </trkpt>
      <trkpt lat="48.37233" lon="-4.58075">
        <ele>80.5</ele>
        <time>2020-06-08T18:31:48Z</time>
      </trkpt>
      <trkpt lat="48.37228" lon="-4.58086">
        <ele>80.3</ele>
        <time>2020-06-08T18:31:49Z</time>
      </trkpt>
      <trkpt lat="48.37224" lon="-4.58095">
        <ele>80.1</ele>
        <time>2020-06-08T18:31:50Z</time>
      </trkpt>
      <trkpt lat="48.3722" lon="-4.58107">
        <ele>79.9</ele>
        <time>2020-06-08T18:31:51Z</time>
      </trkpt>
      <trkpt lat="48.37216" lon="-4.58117">
        <ele>79.8</ele>
        <time>2020-06-08T18:31:52Z</time>
      </trkpt>
      <trkpt lat="48.37212" lon="-4.58127">
        <ele>79.8</ele>
        <time>2020-06-08T18:31:53Z</time>
      </trkpt>
      <trkpt lat="48.37209" lon="-4.58136">
        <ele>79.7</ele>
        <time>2020-06-08T18:31:54Z</time>
      </trkpt>
      <trkpt lat="48.37206" lon="-4.58146">
        <ele>79.7</ele>
        <time>2020-06-08T18:31:55Z</time>
      </trkpt>
      <trkpt lat="48.37203" lon="-4.58156">
        <ele>79.6</ele>
        <time>2020-06-08T18:31:56Z</time>
      </trkpt>
      <trkpt lat="48.37201" lon="-4.58165">
        <ele>79.6</ele>
        <time>2020-06-08T18:31:57Z</time>
      </trkpt>
      <trkpt lat="48.37199" lon="-4.58175">
        <ele>79.6</ele>
        <time>2020-06-08T18:31:58Z</time>
      </trkpt>
      <trkpt lat="48.37197" lon="-4.58184">
        <ele>79.6</ele>
        <time>2020-06-08T18:31:59Z</time>
      </trkpt>
      <trkpt lat="48.37196" lon="-4.58193">
        <ele>79.6</ele>
        <time>2020-06-08T18:32:00Z</time>
      </trkpt>
      <trkpt lat="48.37196" lon="-4.58202">
        <ele>79.6</ele>
        <time>2020-06-08T18:32:01Z</time>
      </trkpt>
      <trkpt lat="48.37196" lon="-4.58211">
        <ele>79.7</ele>
        <time>2020-06-08T18:32:02Z</time>
      </trkpt>
      <trkpt lat="48.37196" lon="-4.58219">
        <ele>79.7</ele>
        <time>2020-06-08T18:32:03Z</time>
      </trkpt>
      <trkpt lat="48.37196" lon="-4.58226">
        <ele>79.7</ele>
        <time>2020-06-08T18:32:04Z</time>
      </trkpt>
      <trkpt lat="48.37194" lon="-4.58231">
        <ele>79.7</ele>
        <time>2020-06-08T18:32:05Z</time>
      </trkpt>
      <trkpt lat="48.3719" lon="-4.58235">
        <ele>79.7</ele>
        <time>2020-06-08T18:32:06Z</time>
      </trkpt>
      <trkpt lat="48.37186" lon="-4.58235">
        <ele>79.7</ele>
        <time>2020-06-08T18:32:07Z</time>
      </trkpt>
      <trkpt lat="48.37182" lon="-4.5824">
        <ele>79.8</ele>
        <time>2020-06-08T18:32:08Z</time>
      </trkpt>
      <trkpt lat="48.37181" lon="-4.58247">
        <ele>79.8</ele>
        <time>2020-06-08T18:32:09Z</time>
      </trkpt>
      <trkpt lat="48.3718" lon="-4.58254">
        <ele>79.9</ele>
        <time>2020-06-08T18:32:10Z</time>
      </trkpt>
      <trkpt lat="48.37179" lon="-4.58261">
        <ele>79.9</ele>
        <time>2020-06-08T18:32:11Z</time>
      </trkpt>
      <trkpt lat="48.37178" lon="-4.58268">
        <ele>79.9</ele>
        <time>2020-06-08T18:32:12Z</time>
      </trkpt>
      <trkpt lat="48.37176" lon="-4.58275">
        <ele>79.9</ele>
        <time>2020-06-08T18:32:13Z</time>
      </trkpt>
      <trkpt lat="48.37175" lon="-4.58282">
        <ele>80</ele>
        <time>2020-06-08T18:32:14Z</time>
      </trkpt>
      <trkpt lat="48.37173" lon="-4.58289">
        <ele>80</ele>
        <time>2020-06-08T18:32:15Z</time>
      </trkpt>
      <trkpt lat="48.37172" lon="-4.58297">
        <ele>80.1</ele>
        <time>2020-06-08T18:32:16Z</time>
      </trkpt>
      <trkpt lat="48.37169" lon="-4.58304">
        <ele>80.1</ele>
        <time>2020-06-08T18:32:17Z</time>
      </trkpt>
      <trkpt lat="48.37167" lon="-4.58311">
        <ele>80.2</ele>
        <time>2020-06-08T18:32:18Z</time>
      </trkpt>
      <trkpt lat="48.37166" lon="-4.5832">
        <ele>80.3</ele>
        <time>2020-06-08T18:32:19Z</time>
      </trkpt>
      <trkpt lat="48.37165" lon="-4.58329">
        <ele>80.4</ele>
        <time>2020-06-08T18:32:20Z</time>
      </trkpt>
      <trkpt lat="48.37162" lon="-4.58338">
        <ele>80.4</ele>
        <time>2020-06-08T18:32:21Z</time>
      </trkpt>
      <trkpt lat="48.3716" lon="-4.58347">
        <ele>80.4</ele>
        <time>2020-06-08T18:32:22Z</time>
      </trkpt>
      <trkpt lat="48.37158" lon="-4.58356">
        <ele>80.5</ele>
        <time>2020-06-08T18:32:23Z</time>
      </trkpt>
      <trkpt lat="48.37156" lon="-4.58365">
        <ele>80.5</ele>
        <time>2020-06-08T18:32:24Z</time>
      </trkpt>
      <trkpt lat="48.37153" lon="-4.58374">
        <ele>80.5</ele>
        <time>2020-06-08T18:32:25Z</time>
      </trkpt>
      <trkpt lat="48.3715" lon="-4.58383">
        <ele>80.5</ele>
        <time>2020-06-08T18:32:26Z</time>
      </trkpt>
      <trkpt lat="48.37147" lon="-4.58391">
        <ele>80.6</ele>
        <time>2020-06-08T18:32:27Z</time>
      </trkpt>
      <trkpt lat="48.37145" lon="-4.58399">
        <ele>80.6</ele>
        <time>2020-06-08T18:32:28Z</time>
      </trkpt>
      <trkpt lat="48.37142" lon="-4.58408">
        <ele>80.7</ele>
        <time>2020-06-08T18:32:29Z</time>
      </trkpt>
      <trkpt lat="48.37139" lon="-4.58416">
        <ele>80.7</ele>
        <time>2020-06-08T18:32:30Z</time>
      </trkpt>
      <trkpt lat="48.37137" lon="-4.58425">
        <ele>80.8</ele>
        <time>2020-06-08T18:32:31Z</time>
      </trkpt>
      <trkpt lat="48.37136" lon="-4.58433">
        <ele>80.8</ele>
        <time>2020-06-08T18:32:32Z</time>
      </trkpt>
      <trkpt lat="48.37135" lon="-4.58442">
        <ele>80.9</ele>
        <time>2020-06-08T18:32:33Z</time>
      </trkpt>
      <trkpt lat="48.37134" lon="-4.5845">
        <ele>81</ele>
        <time>2020-06-08T18:32:34Z</time>
      </trkpt>
      <trkpt lat="48.37133" lon="-4.58458">
        <ele>81</ele>
        <time>2020-06-08T18:32:35Z</time>
      </trkpt>
      <trkpt lat="48.37132" lon="-4.58466">
        <ele>81.1</ele>
        <time>2020-06-08T18:32:36Z</time>
      </trkpt>
      <trkpt lat="48.37131" lon="-4.58473">
        <ele>81.2</ele>
        <time>2020-06-08T18:32:37Z</time>
      </trkpt>
      <trkpt lat="48.37129" lon="-4.5848">
        <ele>81.3</ele>
        <time>2020-06-08T18:32:38Z</time>
      </trkpt>
      <trkpt lat="48.37128" lon="-4.58486">
        <ele>81.4</ele>
        <time>2020-06-08T18:32:39Z</time>
      </trkpt>
      <trkpt lat="48.37125" lon="-4.58492">
        <ele>81.5</ele>
        <time>2020-06-08T18:32:40Z</time>
      </trkpt>
      <trkpt lat="48.37123" lon="-4.58497">
        <ele>81.6</ele>
        <time>2020-06-08T18:32:41Z</time>
      </trkpt>
      <trkpt lat="48.3712" lon="-4.58503">
        <ele>81.7</ele>
        <time>2020-06-08T18:32:42Z</time>
      </trkpt>
      <trkpt lat="48.37118" lon="-4.58509">
        <ele>81.9</ele>
        <time>2020-06-08T18:32:43Z</time>
      </trkpt>
      <trkpt lat="48.37117" lon="-4.58516">
        <ele>82</ele>
        <time>2020-06-08T18:32:44Z</time>
      </trkpt>
      <trkpt lat="48.37115" lon="-4.58524">
        <ele>82.1</ele>
        <time>2020-06-08T18:32:45Z</time>
      </trkpt>
      <trkpt lat="48.37113" lon="-4.58531">
        <ele>82.3</ele>
        <time>2020-06-08T18:32:46Z</time>
      </trkpt>
      <trkpt lat="48.37113" lon="-4.58539">
        <ele>82.5</ele>
        <time>2020-06-08T18:32:47Z</time>
      </trkpt>
      <trkpt lat="48.37113" lon="-4.58547">
        <ele>82.7</ele>
        <time>2020-06-08T18:32:48Z</time>
      </trkpt>
      <trkpt lat="48.37115" lon="-4.58555">
        <ele>82.9</ele>
        <time>2020-06-08T18:32:49Z</time>
      </trkpt>
      <trkpt lat="48.37117" lon="-4.58561">
        <ele>83</ele>
        <time>2020-06-08T18:32:50Z</time>
      </trkpt>
      <trkpt lat="48.37119" lon="-4.58567">
        <ele>83.2</ele>
        <time>2020-06-08T18:32:51Z</time>
      </trkpt>
      <trkpt lat="48.37122" lon="-4.58573">
        <ele>83.4</ele>
        <time>2020-06-08T18:32:52Z</time>
      </trkpt>
      <trkpt lat="48.37124" lon="-4.58579">
        <ele>83.7</ele>
        <time>2020-06-08T18:32:53Z</time>
      </trkpt>
      <trkpt lat="48.37125" lon="-4.58586">
        <ele>83.9</ele>
        <time>2020-06-08T18:32:54Z</time>
      </trkpt>
      <trkpt lat="48.37126" lon="-4.58593">
        <ele>84.2</ele>
        <time>2020-06-08T18:32:55Z</time>
      </trkpt>
      <trkpt lat="48.37128" lon="-4.586">
        <ele>84.4</ele>
        <time>2020-06-08T18:32:56Z</time>
      </trkpt>
      <trkpt lat="48.37128" lon="-4.58607">
        <ele>84.7</ele>
        <time>2020-06-08T18:32:57Z</time>
      </trkpt>
      <trkpt lat="48.37129" lon="-4.58613">
        <ele>85</ele>
        <time>2020-06-08T18:32:58Z</time>
      </trkpt>
      <trkpt lat="48.37131" lon="-4.58619">
        <ele>85.2</ele>
        <time>2020-06-08T18:32:59Z</time>
      </trkpt>
      <trkpt lat="48.37134" lon="-4.58623">
        <ele>85.4</ele>
        <time>2020-06-08T18:33:00Z</time>
      </trkpt>
      <trkpt lat="48.37135" lon="-4.58628">
        <ele>85.6</ele>
        <time>2020-06-08T18:33:01Z</time>
      </trkpt>
      <trkpt lat="48.37136" lon="-4.58632">
        <ele>85.8</ele>
        <time>2020-06-08T18:33:02Z</time>
      </trkpt>
      <trkpt lat="48.37138" lon="-4.58636">
        <ele>86</ele>
        <time>2020-06-08T18:33:03Z</time>
      </trkpt>
      <trkpt lat="48.37139" lon="-4.5864">
        <ele>86.2</ele>
        <time>2020-06-08T18:33:04Z</time>
      </trkpt>
      <trkpt lat="48.37141" lon="-4.58645">
        <ele>86.4</ele>
        <time>2020-06-08T18:33:05Z</time>
      </trkpt>
      <trkpt lat="48.37143" lon="-4.58648">
        <ele>86.6</ele>
        <time>2020-06-08T18:33:06Z</time>
      </trkpt>
      <trkpt lat="48.37146" lon="-4.5865">
        <ele>86.8</ele>
        <time>2020-06-08T18:33:07Z</time>
      </trkpt>
      <trkpt lat="48.3715" lon="-4.58655">
        <ele>87</ele>
        <time>2020-06-08T18:33:08Z</time>
      </trkpt>
      <trkpt lat="48.37153" lon="-4.58658">
        <ele>87.3</ele>
        <time>2020-06-08T18:33:09Z</time>
      </trkpt>
      <trkpt lat="48.37156" lon="-4.5866">
        <ele>87.5</ele>
        <time>2020-06-08T18:33:10Z</time>
      </trkpt>
      <trkpt lat="48.37159" lon="-4.58664">
        <ele>87.7</ele>
        <time>2020-06-08T18:33:11Z</time>
      </trkpt>
      <trkpt lat="48.3716" lon="-4.58666">
        <ele>87.8</ele>
        <time>2020-06-08T18:33:12Z</time>
      </trkpt>
      <trkpt lat="48.37163" lon="-4.58669">
        <ele>88.1</ele>
        <time>2020-06-08T18:33:13Z</time>
      </trkpt>
      <trkpt lat="48.37164" lon="-4.58671">
        <ele>88.5</ele>
        <time>2020-06-08T18:33:14Z</time>
      </trkpt>
      <trkpt lat="48.37168" lon="-4.58674">
        <ele>88.8</ele>
        <time>2020-06-08T18:33:15Z</time>
      </trkpt>
      <trkpt lat="48.3717" lon="-4.58678">
        <ele>89.1</ele>
        <time>2020-06-08T18:33:16Z</time>
      </trkpt>
      <trkpt lat="48.37173" lon="-4.58681">
        <ele>89.3</ele>
        <time>2020-06-08T18:33:17Z</time>
      </trkpt>
      <trkpt lat="48.37176" lon="-4.58684">
        <ele>89.5</ele>
        <time>2020-06-08T18:33:18Z</time>
      </trkpt>
      <trkpt lat="48.37178" lon="-4.58686">
        <ele>89.7</ele>
        <time>2020-06-08T18:33:19Z</time>
      </trkpt>
      <trkpt lat="48.3718" lon="-4.58687">
        <ele>89.8</ele>
        <time>2020-06-08T18:33:20Z</time>
      </trkpt>
      <trkpt lat="48.37183" lon="-4.5869">
        <ele>90</ele>
        <time>2020-06-08T18:33:21Z</time>
      </trkpt>
      <trkpt lat="48.37186" lon="-4.58693">
        <ele>90.2</ele>
        <time>2020-06-08T18:33:22Z</time>
      </trkpt>
      <trkpt lat="48.37188" lon="-4.58695">
        <ele>90.4</ele>
        <time>2020-06-08T18:33:23Z</time>
      </trkpt>
      <trkpt lat="48.37191" lon="-4.58697">
        <ele>90.6</ele>
        <time>2020-06-08T18:33:24Z</time>
      </trkpt>
      <trkpt lat="48.37195" lon="-4.58699">
        <ele>90.8</ele>
        <time>2020-06-08T18:33:25Z</time>
      </trkpt>
      <trkpt lat="48.37197" lon="-4.58701">
        <ele>91</ele>
        <time>2020-06-08T18:33:26Z</time>
      </trkpt>
      <trkpt lat="48.372" lon="-4.58702">
        <ele>91.2</ele>
        <time>2020-06-08T18:33:27Z</time>
      </trkpt>
      <trkpt lat="48.37203" lon="-4.58703">
        <ele>91.4</ele>
        <time>2020-06-08T18:33:28Z</time>
      </trkpt>
      <trkpt lat="48.37208" lon="-4.58705">
        <ele>91.7</ele>
        <time>2020-06-08T18:33:29Z</time>
      </trkpt>
      <trkpt lat="48.3721" lon="-4.58708">
        <ele>91.9</ele>
        <time>2020-06-08T18:33:30Z</time>
      </trkpt>
      <trkpt lat="48.37214" lon="-4.5871">
        <ele>92.2</ele>
        <time>2020-06-08T18:33:31Z</time>
      </trkpt>
      <trkpt lat="48.37216" lon="-4.58712">
        <ele>92.3</ele>
        <time>2020-06-08T18:33:32Z</time>
      </trkpt>
      <trkpt lat="48.37219" lon="-4.58715">
        <ele>92.7</ele>
        <time>2020-06-08T18:33:33Z</time>
      </trkpt>
      <trkpt lat="48.37221" lon="-4.58719">
        <ele>92.7</ele>
        <time>2020-06-08T18:33:34Z</time>
      </trkpt>
      <trkpt lat="48.37222" lon="-4.58721">
        <ele>92.7</ele>
        <time>2020-06-08T18:33:35Z</time>
      </trkpt>
      <trkpt lat="48.37223" lon="-4.58725">
        <ele>92.7</ele>
        <time>2020-06-08T18:33:36Z</time>
      </trkpt>
      <trkpt lat="48.37225" lon="-4.5873">
        <ele>92.9</ele>
        <time>2020-06-08T18:33:37Z</time>
      </trkpt>
      <trkpt lat="48.37227" lon="-4.58735">
        <ele>93</ele>
        <time>2020-06-08T18:33:38Z</time>
      </trkpt>
      <trkpt lat="48.37228" lon="-4.58739">
        <ele>93.1</ele>
        <time>2020-06-08T18:33:39Z</time>
      </trkpt>
      <trkpt lat="48.3723" lon="-4.58743">
        <ele>93.3</ele>
        <time>2020-06-08T18:33:40Z</time>
      </trkpt>
      <trkpt lat="48.37233" lon="-4.58749">
        <ele>93.6</ele>
        <time>2020-06-08T18:33:41Z</time>
      </trkpt>
      <trkpt lat="48.37233" lon="-4.58753">
        <ele>93.7</ele>
        <time>2020-06-08T18:33:42Z</time>
      </trkpt>
      <trkpt lat="48.37233" lon="-4.58758">
        <ele>93.8</ele>
        <time>2020-06-08T18:33:43Z</time>
      </trkpt>
      <trkpt lat="48.37233" lon="-4.58759">
        <ele>93.8</ele>
        <time>2020-06-08T18:33:44Z</time>
      </trkpt>
      <trkpt lat="48.37231" lon="-4.58764">
        <ele>94</ele>
        <time>2020-06-08T18:33:45Z</time>
      </trkpt>
      <trkpt lat="48.3723" lon="-4.58765">
        <ele>94</ele>
        <time>2020-06-08T18:33:46Z</time>
      </trkpt>
      <trkpt lat="48.37229" lon="-4.58771">
        <ele>94.1</ele>
        <time>2020-06-08T18:33:47Z</time>
      </trkpt>
      <trkpt lat="48.37227" lon="-4.58772">
        <ele>94.2</ele>
        <time>2020-06-08T18:33:48Z</time>
      </trkpt>
      <trkpt lat="48.37226" lon="-4.58779">
        <ele>94.3</ele>
        <time>2020-06-08T18:33:49Z</time>
      </trkpt>
      <trkpt lat="48.37225" lon="-4.58784">
        <ele>93.9</ele>
        <time>2020-06-08T18:33:50Z</time>
      </trkpt>
      <trkpt lat="48.37224" lon="-4.58788">
        <ele>93.6</ele>
        <time>2020-06-08T18:33:51Z</time>
      </trkpt>
      <trkpt lat="48.37224" lon="-4.58794">
        <ele>93.4</ele>
        <time>2020-06-08T18:33:52Z</time>
      </trkpt>
      <trkpt lat="48.37223" lon="-4.58798">
        <ele>93.1</ele>
        <time>2020-06-08T18:33:53Z</time>
      </trkpt>
      <trkpt lat="48.37222" lon="-4.58804">
        <ele>92.6</ele>
        <time>2020-06-08T18:33:54Z</time>
      </trkpt>
      <trkpt lat="48.37221" lon="-4.5881">
        <ele>92.6</ele>
        <time>2020-06-08T18:33:55Z</time>
      </trkpt>
      <trkpt lat="48.37221" lon="-4.58816">
        <ele>92.6</ele>
        <time>2020-06-08T18:33:56Z</time>
      </trkpt>
      <trkpt lat="48.37221" lon="-4.58822">
        <ele>92.6</ele>
        <time>2020-06-08T18:33:57Z</time>
      </trkpt>
      <trkpt lat="48.37222" lon="-4.58828">
        <ele>92.6</ele>
        <time>2020-06-08T18:33:58Z</time>
      </trkpt>
      <trkpt lat="48.37222" lon="-4.58835">
        <ele>92.6</ele>
        <time>2020-06-08T18:33:59Z</time>
      </trkpt>
      <trkpt lat="48.37222" lon="-4.58837">
        <ele>92.6</ele>
        <time>2020-06-08T18:34:00Z</time>
      </trkpt>
      <trkpt lat="48.37222" lon="-4.58842">
        <ele>92.7</ele>
        <time>2020-06-08T18:34:01Z</time>
      </trkpt>
      <trkpt lat="48.37223" lon="-4.58847">
        <ele>92.8</ele>
        <time>2020-06-08T18:34:02Z</time>
      </trkpt>
      <trkpt lat="48.37223" lon="-4.58853">
        <ele>93.2</ele>
        <time>2020-06-08T18:34:03Z</time>
      </trkpt>
      <trkpt lat="48.37224" lon="-4.58859">
        <ele>93.3</ele>
        <time>2020-06-08T18:34:04Z</time>
      </trkpt>
      <trkpt lat="48.37224" lon="-4.58866">
        <ele>93.4</ele>
        <time>2020-06-08T18:34:05Z</time>
      </trkpt>
      <trkpt lat="48.37225" lon="-4.58869">
        <ele>93.4</ele>
        <time>2020-06-08T18:34:06Z</time>
      </trkpt>
      <trkpt lat="48.37226" lon="-4.58873">
        <ele>93.8</ele>
        <time>2020-06-08T18:34:07Z</time>
      </trkpt>
      <trkpt lat="48.37227" lon="-4.58878">
        <ele>93.8</ele>
        <time>2020-06-08T18:34:08Z</time>
      </trkpt>
      <trkpt lat="48.37228" lon="-4.58882">
        <ele>93.9</ele>
        <time>2020-06-08T18:34:09Z</time>
      </trkpt>
      <trkpt lat="48.37228" lon="-4.58888">
        <ele>93.9</ele>
        <time>2020-06-08T18:34:10Z</time>
      </trkpt>
      <trkpt lat="48.37229" lon="-4.58892">
        <ele>94</ele>
        <time>2020-06-08T18:34:11Z</time>
      </trkpt>
      <trkpt lat="48.37229" lon="-4.58896">
        <ele>94</ele>
        <time>2020-06-08T18:34:12Z</time>
      </trkpt>
      <trkpt lat="48.37229" lon="-4.58901">
        <ele>94</ele>
        <time>2020-06-08T18:34:13Z</time>
      </trkpt>
      <trkpt lat="48.37228" lon="-4.58905">
        <ele>94</ele>
        <time>2020-06-08T18:34:14Z</time>
      </trkpt>
      <trkpt lat="48.37228" lon="-4.5891">
        <ele>94.1</ele>
        <time>2020-06-08T18:34:15Z</time>
      </trkpt>
      <trkpt lat="48.37227" lon="-4.58915">
        <ele>94.1</ele>
        <time>2020-06-08T18:34:16Z</time>
      </trkpt>
      <trkpt lat="48.37226" lon="-4.58921">
        <ele>94.2</ele>
        <time>2020-06-08T18:34:17Z</time>
      </trkpt>
      <trkpt lat="48.37225" lon="-4.58924">
        <ele>94.2</ele>
        <time>2020-06-08T18:34:18Z</time>
      </trkpt>
      <trkpt lat="48.37224" lon="-4.58929">
        <ele>94.2</ele>
        <time>2020-06-08T18:34:19Z</time>
      </trkpt>
      <trkpt lat="48.37222" lon="-4.58935">
        <ele>94.2</ele>
        <time>2020-06-08T18:34:20Z</time>
      </trkpt>
      <trkpt lat="48.37221" lon="-4.58941">
        <ele>94.1</ele>
        <time>2020-06-08T18:34:21Z</time>
      </trkpt>
      <trkpt lat="48.37219" lon="-4.58947">
        <ele>94</ele>
        <time>2020-06-08T18:34:22Z</time>
      </trkpt>
      <trkpt lat="48.37218" lon="-4.58953">
        <ele>93.9</ele>
        <time>2020-06-08T18:34:23Z</time>
      </trkpt>
      <trkpt lat="48.37217" lon="-4.58956">
        <ele>93.9</ele>
        <time>2020-06-08T18:34:24Z</time>
      </trkpt>
      <trkpt lat="48.37215" lon="-4.58963">
        <ele>93.8</ele>
        <time>2020-06-08T18:34:25Z</time>
      </trkpt>
      <trkpt lat="48.37212" lon="-4.58969">
        <ele>93.7</ele>
        <time>2020-06-08T18:34:26Z</time>
      </trkpt>
      <trkpt lat="48.3721" lon="-4.58976">
        <ele>93.6</ele>
        <time>2020-06-08T18:34:27Z</time>
      </trkpt>
      <trkpt lat="48.37207" lon="-4.58983">
        <ele>93.6</ele>
        <time>2020-06-08T18:34:28Z</time>
      </trkpt>
      <trkpt lat="48.37204" lon="-4.58991">
        <ele>93.6</ele>
        <time>2020-06-08T18:34:29Z</time>
      </trkpt>
      <trkpt lat="48.37202" lon="-4.58998">
        <ele>93.6</ele>
        <time>2020-06-08T18:34:30Z</time>
      </trkpt>
      <trkpt lat="48.372" lon="-4.59002">
        <ele>93.6</ele>
        <time>2020-06-08T18:34:31Z</time>
      </trkpt>
      <trkpt lat="48.37199" lon="-4.59009">
        <ele>93.6</ele>
        <time>2020-06-08T18:34:32Z</time>
      </trkpt>
      <trkpt lat="48.37197" lon="-4.59015">
        <ele>93.5</ele>
        <time>2020-06-08T18:34:33Z</time>
      </trkpt>
      <trkpt lat="48.37195" lon="-4.59019">
        <ele>93.5</ele>
        <time>2020-06-08T18:34:34Z</time>
      </trkpt>
      <trkpt lat="48.37194" lon="-4.59026">
        <ele>93.5</ele>
        <time>2020-06-08T18:34:35Z</time>
      </trkpt>
      <trkpt lat="48.37193" lon="-4.59031">
        <ele>93.5</ele>
        <time>2020-06-08T18:34:36Z</time>
      </trkpt>
      <trkpt lat="48.37193" lon="-4.59038">
        <ele>93.5</ele>
        <time>2020-06-08T18:34:37Z</time>
      </trkpt>
      <trkpt lat="48.37195" lon="-4.59043">
        <ele>93.5</ele>
        <time>2020-06-08T18:34:38Z</time>
      </trkpt>
      <trkpt lat="48.37202" lon="-4.5905">
        <ele>93.4</ele>
        <time>2020-06-08T18:34:39Z</time>
      </trkpt>
      <trkpt lat="48.37207" lon="-4.59055">
        <ele>93.4</ele>
        <time>2020-06-08T18:34:40Z</time>
      </trkpt>
      <trkpt lat="48.3721" lon="-4.59058">
        <ele>93.4</ele>
        <time>2020-06-08T18:34:41Z</time>
      </trkpt>
      <trkpt lat="48.37214" lon="-4.59064">
        <ele>93.3</ele>
        <time>2020-06-08T18:34:42Z</time>
      </trkpt>
      <trkpt lat="48.37216" lon="-4.59069">
        <ele>93.2</ele>
        <time>2020-06-08T18:34:43Z</time>
      </trkpt>
      <trkpt lat="48.37219" lon="-4.59074">
        <ele>93.2</ele>
        <time>2020-06-08T18:34:44Z</time>
      </trkpt>
      <trkpt lat="48.37222" lon="-4.59079">
        <ele>93.1</ele>
        <time>2020-06-08T18:34:45Z</time>
      </trkpt>
      <trkpt lat="48.37225" lon="-4.59085">
        <ele>93.1</ele>
        <time>2020-06-08T18:34:46Z</time>
      </trkpt>
      <trkpt lat="48.37228" lon="-4.59089">
        <ele>93.1</ele>
        <time>2020-06-08T18:34:47Z</time>
      </trkpt>
      <trkpt lat="48.3723" lon="-4.59094">
        <ele>93</ele>
        <time>2020-06-08T18:34:48Z</time>
      </trkpt>
      <trkpt lat="48.37232" lon="-4.59097">
        <ele>93</ele>
        <time>2020-06-08T18:34:49Z</time>
      </trkpt>
      <trkpt lat="48.37233" lon="-4.59098">
        <ele>93</ele>
        <time>2020-06-08T18:34:50Z</time>
      </trkpt>
      <trkpt lat="48.37232" lon="-4.59103">
        <ele>93</ele>
        <time>2020-06-08T18:34:51Z</time>
      </trkpt>
      <trkpt lat="48.3723" lon="-4.59106">
        <ele>93.1</ele>
        <time>2020-06-08T18:34:52Z</time>
      </trkpt>
      <trkpt lat="48.37228" lon="-4.59107">
        <ele>93.1</ele>
        <time>2020-06-08T18:34:53Z</time>
      </trkpt>
      <trkpt lat="48.37227" lon="-4.59111">
        <ele>93.1</ele>
        <time>2020-06-08T18:34:54Z</time>
      </trkpt>
      <trkpt lat="48.37228" lon="-4.59119">
        <ele>93.1</ele>
        <time>2020-06-08T18:34:55Z</time>
      </trkpt>
      <trkpt lat="48.37231" lon="-4.59125">
        <ele>93.2</ele>
        <time>2020-06-08T18:34:56Z</time>
      </trkpt>
      <trkpt lat="48.3723" lon="-4.5913">
        <ele>93.2</ele>
        <time>2020-06-08T18:34:57Z</time>
      </trkpt>
      <trkpt lat="48.37229" lon="-4.59136">
        <ele>93.2</ele>
        <time>2020-06-08T18:34:58Z</time>
      </trkpt>
      <trkpt lat="48.37227" lon="-4.59141">
        <ele>93.2</ele>
        <time>2020-06-08T18:34:59Z</time>
      </trkpt>
      <trkpt lat="48.37227" lon="-4.59147">
        <ele>93</ele>
        <time>2020-06-08T18:35:00Z</time>
      </trkpt>
      <trkpt lat="48.37227" lon="-4.59154">
        <ele>92.9</ele>
        <time>2020-06-08T18:35:01Z</time>
      </trkpt>
      <trkpt lat="48.37228" lon="-4.5916">
        <ele>92.9</ele>
        <time>2020-06-08T18:35:02Z</time>
      </trkpt>
      <trkpt lat="48.37231" lon="-4.59165">
        <ele>92.8</ele>
        <time>2020-06-08T18:35:03Z</time>
      </trkpt>
      <trkpt lat="48.37234" lon="-4.59172">
        <ele>92.8</ele>
        <time>2020-06-08T18:35:04Z</time>
      </trkpt>
      <trkpt lat="48.37237" lon="-4.59175">
        <ele>92.8</ele>
        <time>2020-06-08T18:35:05Z</time>
      </trkpt>
      <trkpt lat="48.37242" lon="-4.59179">
        <ele>92.8</ele>
        <time>2020-06-08T18:35:06Z</time>
      </trkpt>
      <trkpt lat="48.37246" lon="-4.59183">
        <ele>92.8</ele>
        <time>2020-06-08T18:35:07Z</time>
      </trkpt>
      <trkpt lat="48.3725" lon="-4.59185">
        <ele>92.7</ele>
        <time>2020-06-08T18:35:08Z</time>
      </trkpt>
      <trkpt lat="48.37254" lon="-4.59187">
        <ele>92.7</ele>
        <time>2020-06-08T18:35:09Z</time>
      </trkpt>
      <trkpt lat="48.37258" lon="-4.59189">
        <ele>92.7</ele>
        <time>2020-06-08T18:35:10Z</time>
      </trkpt>
      <trkpt lat="48.37262" lon="-4.59192">
        <ele>92.7</ele>
        <time>2020-06-08T18:35:11Z</time>
      </trkpt>
      <trkpt lat="48.37264" lon="-4.59193">
        <ele>92.7</ele>
        <time>2020-06-08T18:35:12Z</time>
      </trkpt>
      <trkpt lat="48.37267" lon="-4.59195">
        <ele>92.7</ele>
        <time>2020-06-08T18:35:13Z</time>
      </trkpt>
      <trkpt lat="48.3727" lon="-4.59196">
        <ele>92.6</ele>
        <time>2020-06-08T18:35:14Z</time>
      </trkpt>
      <trkpt lat="48.37274" lon="-4.59199">
        <ele>92.6</ele>
        <time>2020-06-08T18:35:15Z</time>
      </trkpt>
      <trkpt lat="48.37278" lon="-4.59203">
        <ele>92.6</ele>
        <time>2020-06-08T18:35:16Z</time>
      </trkpt>
      <trkpt lat="48.37282" lon="-4.59207">
        <ele>92.5</ele>
        <time>2020-06-08T18:35:17Z</time>
      </trkpt>
      <trkpt lat="48.37286" lon="-4.5921">
        <ele>92.5</ele>
        <time>2020-06-08T18:35:18Z</time>
      </trkpt>
      <trkpt lat="48.37291" lon="-4.59213">
        <ele>92.5</ele>
        <time>2020-06-08T18:35:19Z</time>
      </trkpt>
      <trkpt lat="48.37296" lon="-4.59218">
        <ele>92.4</ele>
        <time>2020-06-08T18:35:20Z</time>
      </trkpt>
      <trkpt lat="48.37301" lon="-4.5922">
        <ele>92.4</ele>
        <time>2020-06-08T18:35:21Z</time>
      </trkpt>
      <trkpt lat="48.37307" lon="-4.59222">
        <ele>92.3</ele>
        <time>2020-06-08T18:35:22Z</time>
      </trkpt>
      <trkpt lat="48.37312" lon="-4.59227">
        <ele>92.2</ele>
        <time>2020-06-08T18:35:23Z</time>
      </trkpt>
      <trkpt lat="48.37317" lon="-4.59231">
        <ele>92.1</ele>
        <time>2020-06-08T18:35:24Z</time>
      </trkpt>
      <trkpt lat="48.37322" lon="-4.59235">
        <ele>92</ele>
        <time>2020-06-08T18:35:25Z</time>
      </trkpt>
      <trkpt lat="48.37328" lon="-4.59239">
        <ele>91.9</ele>
        <time>2020-06-08T18:35:26Z</time>
      </trkpt>
      <trkpt lat="48.37332" lon="-4.59242">
        <ele>91.8</ele>
        <time>2020-06-08T18:35:27Z</time>
      </trkpt>
      <trkpt lat="48.37335" lon="-4.59247">
        <ele>91.8</ele>
        <time>2020-06-08T18:35:28Z</time>
      </trkpt>
      <trkpt lat="48.37341" lon="-4.59249">
        <ele>91.7</ele>
        <time>2020-06-08T18:35:29Z</time>
      </trkpt>
      <trkpt lat="48.37346" lon="-4.59251">
        <ele>91.6</ele>
        <time>2020-06-08T18:35:30Z</time>
      </trkpt>
      <trkpt lat="48.3735" lon="-4.59254">
        <ele>91.5</ele>
        <time>2020-06-08T18:35:31Z</time>
      </trkpt>
      <trkpt lat="48.37355" lon="-4.59258">
        <ele>91.4</ele>
        <time>2020-06-08T18:35:32Z</time>
      </trkpt>
      <trkpt lat="48.37359" lon="-4.59262">
        <ele>91.2</ele>
        <time>2020-06-08T18:35:33Z</time>
      </trkpt>
      <trkpt lat="48.37363" lon="-4.59267">
        <ele>91.1</ele>
        <time>2020-06-08T18:35:34Z</time>
      </trkpt>
      <trkpt lat="48.37367" lon="-4.59275">
        <ele>90.9</ele>
        <time>2020-06-08T18:35:35Z</time>
      </trkpt>
      <trkpt lat="48.3737" lon="-4.59282">
        <ele>90.7</ele>
        <time>2020-06-08T18:35:36Z</time>
      </trkpt>
      <trkpt lat="48.37371" lon="-4.5929">
        <ele>90.6</ele>
        <time>2020-06-08T18:35:37Z</time>
      </trkpt>
      <trkpt lat="48.37373" lon="-4.59296">
        <ele>90.5</ele>
        <time>2020-06-08T18:35:38Z</time>
      </trkpt>
      <trkpt lat="48.37375" lon="-4.59303">
        <ele>90.5</ele>
        <time>2020-06-08T18:35:39Z</time>
      </trkpt>
      <trkpt lat="48.37377" lon="-4.59311">
        <ele>90.3</ele>
        <time>2020-06-08T18:35:40Z</time>
      </trkpt>
      <trkpt lat="48.37379" lon="-4.59319">
        <ele>90.2</ele>
        <time>2020-06-08T18:35:41Z</time>
      </trkpt>
      <trkpt lat="48.37381" lon="-4.59325">
        <ele>90</ele>
        <time>2020-06-08T18:35:42Z</time>
      </trkpt>
      <trkpt lat="48.37384" lon="-4.59333">
        <ele>89.8</ele>
        <time>2020-06-08T18:35:43Z</time>
      </trkpt>
      <trkpt lat="48.37386" lon="-4.59341">
        <ele>89.6</ele>
        <time>2020-06-08T18:35:44Z</time>
      </trkpt>
      <trkpt lat="48.37388" lon="-4.59349">
        <ele>89.4</ele>
        <time>2020-06-08T18:35:45Z</time>
      </trkpt>
      <trkpt lat="48.37391" lon="-4.5936">
        <ele>89.1</ele>
        <time>2020-06-08T18:35:46Z</time>
      </trkpt>
      <trkpt lat="48.37393" lon="-4.5937">
        <ele>88.8</ele>
        <time>2020-06-08T18:35:47Z</time>
      </trkpt>
      <trkpt lat="48.37396" lon="-4.59379">
        <ele>88.5</ele>
        <time>2020-06-08T18:35:48Z</time>
      </trkpt>
      <trkpt lat="48.37399" lon="-4.59389">
        <ele>88.2</ele>
        <time>2020-06-08T18:35:49Z</time>
      </trkpt>
      <trkpt lat="48.37402" lon="-4.59399">
        <ele>87.9</ele>
        <time>2020-06-08T18:35:50Z</time>
      </trkpt>
      <trkpt lat="48.37405" lon="-4.5941">
        <ele>87.6</ele>
        <time>2020-06-08T18:35:51Z</time>
      </trkpt>
      <trkpt lat="48.37407" lon="-4.5942">
        <ele>87.3</ele>
        <time>2020-06-08T18:35:52Z</time>
      </trkpt>
      <trkpt lat="48.37408" lon="-4.59428">
        <ele>87.1</ele>
        <time>2020-06-08T18:35:53Z</time>
      </trkpt>
      <trkpt lat="48.37408" lon="-4.59435">
        <ele>86.9</ele>
        <time>2020-06-08T18:35:54Z</time>
      </trkpt>
      <trkpt lat="48.37409" lon="-4.59442">
        <ele>86.7</ele>
        <time>2020-06-08T18:35:55Z</time>
      </trkpt>
      <trkpt lat="48.37412" lon="-4.59448">
        <ele>86.5</ele>
        <time>2020-06-08T18:35:56Z</time>
      </trkpt>
      <trkpt lat="48.37415" lon="-4.59455">
        <ele>86.2</ele>
        <time>2020-06-08T18:35:57Z</time>
      </trkpt>
      <trkpt lat="48.37417" lon="-4.59463">
        <ele>86</ele>
        <time>2020-06-08T18:35:58Z</time>
      </trkpt>
      <trkpt lat="48.37419" lon="-4.59471">
        <ele>85.8</ele>
        <time>2020-06-08T18:35:59Z</time>
      </trkpt>
      <trkpt lat="48.37422" lon="-4.59477">
        <ele>85.6</ele>
        <time>2020-06-08T18:36:00Z</time>
      </trkpt>
      <trkpt lat="48.37424" lon="-4.59484">
        <ele>85.4</ele>
        <time>2020-06-08T18:36:01Z</time>
      </trkpt>
      <trkpt lat="48.37426" lon="-4.59492">
        <ele>85.1</ele>
        <time>2020-06-08T18:36:02Z</time>
      </trkpt>
      <trkpt lat="48.37429" lon="-4.59498">
        <ele>85</ele>
        <time>2020-06-08T18:36:03Z</time>
      </trkpt>
      <trkpt lat="48.37432" lon="-4.59506">
        <ele>84.8</ele>
        <time>2020-06-08T18:36:04Z</time>
      </trkpt>
      <trkpt lat="48.37434" lon="-4.59515">
        <ele>84.6</ele>
        <time>2020-06-08T18:36:05Z</time>
      </trkpt>
      <trkpt lat="48.37437" lon="-4.59524">
        <ele>84.4</ele>
        <time>2020-06-08T18:36:06Z</time>
      </trkpt>
      <trkpt lat="48.3744" lon="-4.59532">
        <ele>84.1</ele>
        <time>2020-06-08T18:36:07Z</time>
      </trkpt>
      <trkpt lat="48.37442" lon="-4.59539">
        <ele>83.9</ele>
        <time>2020-06-08T18:36:08Z</time>
      </trkpt>
      <trkpt lat="48.37445" lon="-4.59547">
        <ele>83.7</ele>
        <time>2020-06-08T18:36:09Z</time>
      </trkpt>
      <trkpt lat="48.37448" lon="-4.59554">
        <ele>83.5</ele>
        <time>2020-06-08T18:36:10Z</time>
      </trkpt>
      <trkpt lat="48.37453" lon="-4.59561">
        <ele>83.3</ele>
        <time>2020-06-08T18:36:11Z</time>
      </trkpt>
      <trkpt lat="48.37458" lon="-4.59568">
        <ele>83</ele>
        <time>2020-06-08T18:36:12Z</time>
      </trkpt>
      <trkpt lat="48.37465" lon="-4.59575">
        <ele>82.7</ele>
        <time>2020-06-08T18:36:13Z</time>
      </trkpt>
      <trkpt lat="48.3747" lon="-4.59579">
        <ele>82.5</ele>
        <time>2020-06-08T18:36:14Z</time>
      </trkpt>
      <trkpt lat="48.37476" lon="-4.59586">
        <ele>82.2</ele>
        <time>2020-06-08T18:36:15Z</time>
      </trkpt>
      <trkpt lat="48.37482" lon="-4.59593">
        <ele>81.9</ele>
        <time>2020-06-08T18:36:16Z</time>
      </trkpt>
      <trkpt lat="48.37487" lon="-4.59597">
        <ele>81.6</ele>
        <time>2020-06-08T18:36:17Z</time>
      </trkpt>
      <trkpt lat="48.37493" lon="-4.59601">
        <ele>81.4</ele>
        <time>2020-06-08T18:36:18Z</time>
      </trkpt>
      <trkpt lat="48.37499" lon="-4.59607">
        <ele>81.1</ele>
        <time>2020-06-08T18:36:19Z</time>
      </trkpt>
      <trkpt lat="48.37505" lon="-4.59612">
        <ele>80.8</ele>
        <time>2020-06-08T18:36:20Z</time>
      </trkpt>
      <trkpt lat="48.37511" lon="-4.59617">
        <ele>80.5</ele>
        <time>2020-06-08T18:36:21Z</time>
      </trkpt>
      <trkpt lat="48.37517" lon="-4.59623">
        <ele>80.3</ele>
        <time>2020-06-08T18:36:22Z</time>
      </trkpt>
      <trkpt lat="48.37524" lon="-4.5963">
        <ele>80</ele>
        <time>2020-06-08T18:36:23Z</time>
      </trkpt>
      <trkpt lat="48.37531" lon="-4.59636">
        <ele>79.7</ele>
        <time>2020-06-08T18:36:24Z</time>
      </trkpt>
      <trkpt lat="48.37539" lon="-4.59643">
        <ele>79.5</ele>
        <time>2020-06-08T18:36:25Z</time>
      </trkpt>
      <trkpt lat="48.37546" lon="-4.59649">
        <ele>79.3</ele>
        <time>2020-06-08T18:36:26Z</time>
      </trkpt>
      <trkpt lat="48.37553" lon="-4.59654">
        <ele>79.1</ele>
        <time>2020-06-08T18:36:27Z</time>
      </trkpt>
      <trkpt lat="48.3756" lon="-4.59658">
        <ele>79</ele>
        <time>2020-06-08T18:36:28Z</time>
      </trkpt>
      <trkpt lat="48.37566" lon="-4.59663">
        <ele>79</ele>
        <time>2020-06-08T18:36:29Z</time>
      </trkpt>
      <trkpt lat="48.37572" lon="-4.59667">
        <ele>78.9</ele>
        <time>2020-06-08T18:36:30Z</time>
      </trkpt>
      <trkpt lat="48.37578" lon="-4.5967">
        <ele>78.8</ele>
        <time>2020-06-08T18:36:31Z</time>
      </trkpt>
      <trkpt lat="48.37584" lon="-4.59671">
        <ele>78.7</ele>
        <time>2020-06-08T18:36:32Z</time>
      </trkpt>
      <trkpt lat="48.37589" lon="-4.59675">
        <ele>78.6</ele>
        <time>2020-06-08T18:36:33Z</time>
      </trkpt>
      <trkpt lat="48.37592" lon="-4.59682">
        <ele>78.6</ele>
        <time>2020-06-08T18:36:34Z</time>
      </trkpt>
      <trkpt lat="48.37597" lon="-4.59688">
        <ele>78.5</ele>
        <time>2020-06-08T18:36:35Z</time>
      </trkpt>
      <trkpt lat="48.37603" lon="-4.59693">
        <ele>78.4</ele>
        <time>2020-06-08T18:36:36Z</time>
      </trkpt>
      <trkpt lat="48.37609" lon="-4.59695">
        <ele>78.3</ele>
        <time>2020-06-08T18:36:37Z</time>
      </trkpt>
      <trkpt lat="48.37614" lon="-4.59701">
        <ele>78.3</ele>
        <time>2020-06-08T18:36:38Z</time>
      </trkpt>
      <trkpt lat="48.37619" lon="-4.59706">
        <ele>78.2</ele>
        <time>2020-06-08T18:36:39Z</time>
      </trkpt>
      <trkpt lat="48.37625" lon="-4.5971">
        <ele>78.2</ele>
        <time>2020-06-08T18:36:40Z</time>
      </trkpt>
      <trkpt lat="48.37631" lon="-4.59714">
        <ele>78.2</ele>
        <time>2020-06-08T18:36:41Z</time>
      </trkpt>
      <trkpt lat="48.37637" lon="-4.59718">
        <ele>78.2</ele>
        <time>2020-06-08T18:36:42Z</time>
      </trkpt>
      <trkpt lat="48.37643" lon="-4.59723">
        <ele>78.1</ele>
        <time>2020-06-08T18:36:43Z</time>
      </trkpt>
      <trkpt lat="48.37649" lon="-4.59727">
        <ele>78.1</ele>
        <time>2020-06-08T18:36:44Z</time>
      </trkpt>
      <trkpt lat="48.37656" lon="-4.59732">
        <ele>78</ele>
        <time>2020-06-08T18:36:45Z</time>
      </trkpt>
      <trkpt lat="48.37662" lon="-4.59736">
        <ele>78</ele>
        <time>2020-06-08T18:36:46Z</time>
      </trkpt>
      <trkpt lat="48.37668" lon="-4.59741">
        <ele>77.9</ele>
        <time>2020-06-08T18:36:47Z</time>
      </trkpt>
      <trkpt lat="48.37674" lon="-4.59745">
        <ele>77.9</ele>
        <time>2020-06-08T18:36:48Z</time>
      </trkpt>
      <trkpt lat="48.37679" lon="-4.5975">
        <ele>77.8</ele>
        <time>2020-06-08T18:36:49Z</time>
      </trkpt>
      <trkpt lat="48.37685" lon="-4.59753">
        <ele>77.8</ele>
        <time>2020-06-08T18:36:50Z</time>
      </trkpt>
      <trkpt lat="48.37691" lon="-4.59757">
        <ele>77.8</ele>
        <time>2020-06-08T18:36:51Z</time>
      </trkpt>
      <trkpt lat="48.37697" lon="-4.59761">
        <ele>77.7</ele>
        <time>2020-06-08T18:36:52Z</time>
      </trkpt>
      <trkpt lat="48.37702" lon="-4.59767">
        <ele>77.7</ele>
        <time>2020-06-08T18:36:53Z</time>
      </trkpt>
      <trkpt lat="48.37709" lon="-4.5977">
        <ele>77.7</ele>
        <time>2020-06-08T18:36:54Z</time>
      </trkpt>
      <trkpt lat="48.37715" lon="-4.59775">
        <ele>77.7</ele>
        <time>2020-06-08T18:36:55Z</time>
      </trkpt>
      <trkpt lat="48.37721" lon="-4.59781">
        <ele>77.7</ele>
        <time>2020-06-08T18:36:56Z</time>
      </trkpt>
      <trkpt lat="48.37727" lon="-4.59786">
        <ele>77.7</ele>
        <time>2020-06-08T18:36:57Z</time>
      </trkpt>
      <trkpt lat="48.37733" lon="-4.59791">
        <ele>77.7</ele>
        <time>2020-06-08T18:36:58Z</time>
      </trkpt>
      <trkpt lat="48.37739" lon="-4.59795">
        <ele>77.7</ele>
        <time>2020-06-08T18:36:59Z</time>
      </trkpt>
      <trkpt lat="48.37745" lon="-4.59799">
        <ele>77.6</ele>
        <time>2020-06-08T18:37:00Z</time>
      </trkpt>
      <trkpt lat="48.37751" lon="-4.59804">
        <ele>77.6</ele>
        <time>2020-06-08T18:37:01Z</time>
      </trkpt>
      <trkpt lat="48.37757" lon="-4.5981">
        <ele>77.5</ele>
        <time>2020-06-08T18:37:02Z</time>
      </trkpt>
      <trkpt lat="48.37762" lon="-4.59815">
        <ele>77.4</ele>
        <time>2020-06-08T18:37:03Z</time>
      </trkpt>
      <trkpt lat="48.37768" lon="-4.59822">
        <ele>77.3</ele>
        <time>2020-06-08T18:37:04Z</time>
      </trkpt>
      <trkpt lat="48.37773" lon="-4.59828">
        <ele>77.2</ele>
        <time>2020-06-08T18:37:05Z</time>
      </trkpt>
      <trkpt lat="48.37778" lon="-4.59833">
        <ele>77.2</ele>
        <time>2020-06-08T18:37:06Z</time>
      </trkpt>
      <trkpt lat="48.37783" lon="-4.59839">
        <ele>77.1</ele>
        <time>2020-06-08T18:37:07Z</time>
      </trkpt>
      <trkpt lat="48.37787" lon="-4.59845">
        <ele>77.1</ele>
        <time>2020-06-08T18:37:08Z</time>
      </trkpt>
      <trkpt lat="48.37792" lon="-4.59852">
        <ele>77</ele>
        <time>2020-06-08T18:37:09Z</time>
      </trkpt>
      <trkpt lat="48.37796" lon="-4.59859">
        <ele>76.9</ele>
        <time>2020-06-08T18:37:10Z</time>
      </trkpt>
      <trkpt lat="48.378" lon="-4.59867">
        <ele>76.9</ele>
        <time>2020-06-08T18:37:11Z</time>
      </trkpt>
      <trkpt lat="48.37805" lon="-4.59874">
        <ele>76.8</ele>
        <time>2020-06-08T18:37:12Z</time>
      </trkpt>
      <trkpt lat="48.3781" lon="-4.59882">
        <ele>76.7</ele>
        <time>2020-06-08T18:37:13Z</time>
      </trkpt>
      <trkpt lat="48.37815" lon="-4.59888">
        <ele>76.7</ele>
        <time>2020-06-08T18:37:14Z</time>
      </trkpt>
      <trkpt lat="48.37821" lon="-4.59895">
        <ele>76.6</ele>
        <time>2020-06-08T18:37:15Z</time>
      </trkpt>
      <trkpt lat="48.37826" lon="-4.599">
        <ele>76.6</ele>
        <time>2020-06-08T18:37:16Z</time>
      </trkpt>
      <trkpt lat="48.37832" lon="-4.59907">
        <ele>76.6</ele>
        <time>2020-06-08T18:37:17Z</time>
      </trkpt>
      <trkpt lat="48.37838" lon="-4.59912">
        <ele>76.5</ele>
        <time>2020-06-08T18:37:18Z</time>
      </trkpt>
      <trkpt lat="48.37844" lon="-4.59917">
        <ele>76.5</ele>
        <time>2020-06-08T18:37:19Z</time>
      </trkpt>
      <trkpt lat="48.3785" lon="-4.59921">
        <ele>76.4</ele>
        <time>2020-06-08T18:37:20Z</time>
      </trkpt>
      <trkpt lat="48.37855" lon="-4.59927">
        <ele>76.4</ele>
        <time>2020-06-08T18:37:21Z</time>
      </trkpt>
      <trkpt lat="48.3786" lon="-4.59933">
        <ele>76.3</ele>
        <time>2020-06-08T18:37:22Z</time>
      </trkpt>
      <trkpt lat="48.37865" lon="-4.59938">
        <ele>76.3</ele>
        <time>2020-06-08T18:37:23Z</time>
      </trkpt>
      <trkpt lat="48.3787" lon="-4.59943">
        <ele>76.3</ele>
        <time>2020-06-08T18:37:24Z</time>
      </trkpt>
      <trkpt lat="48.37875" lon="-4.59947">
        <ele>76.2</ele>
        <time>2020-06-08T18:37:25Z</time>
      </trkpt>
      <trkpt lat="48.37878" lon="-4.59953">
        <ele>76.2</ele>
        <time>2020-06-08T18:37:26Z</time>
      </trkpt>
      <trkpt lat="48.37878" lon="-4.59958">
        <ele>76.2</ele>
        <time>2020-06-08T18:37:27Z</time>
      </trkpt>
      <trkpt lat="48.37879" lon="-4.59962">
        <ele>76.2</ele>
        <time>2020-06-08T18:37:28Z</time>
      </trkpt>
      <trkpt lat="48.37882" lon="-4.59966">
        <ele>76.2</ele>
        <time>2020-06-08T18:37:29Z</time>
      </trkpt>
      <trkpt lat="48.37882" lon="-4.59967">
        <ele>76.2</ele>
        <time>2020-06-08T18:37:30Z</time>
      </trkpt>
      <trkpt lat="48.37882" lon="-4.59971">
        <ele>75.9</ele>
        <time>2020-06-08T18:37:31Z</time>
      </trkpt>
      <trkpt lat="48.37879" lon="-4.59974">
        <ele>75.7</ele>
        <time>2020-06-08T18:37:32Z</time>
      </trkpt>
      <trkpt lat="48.37875" lon="-4.59976">
        <ele>75.5</ele>
        <time>2020-06-08T18:37:33Z</time>
      </trkpt>
      <trkpt lat="48.37871" lon="-4.59979">
        <ele>75.3</ele>
        <time>2020-06-08T18:37:34Z</time>
      </trkpt>
      <trkpt lat="48.37867" lon="-4.59981">
        <ele>75</ele>
        <time>2020-06-08T18:37:35Z</time>
      </trkpt>
      <trkpt lat="48.37862" lon="-4.59985">
        <ele>74.7</ele>
        <time>2020-06-08T18:37:36Z</time>
      </trkpt>
      <trkpt lat="48.37858" lon="-4.59989">
        <ele>74.5</ele>
        <time>2020-06-08T18:37:37Z</time>
      </trkpt>
      <trkpt lat="48.37854" lon="-4.59996">
        <ele>74.5</ele>
        <time>2020-06-08T18:37:38Z</time>
      </trkpt>
      <trkpt lat="48.37851" lon="-4.60002">
        <ele>74.4</ele>
        <time>2020-06-08T18:37:39Z</time>
      </trkpt>
      <trkpt lat="48.37852" lon="-4.6001">
        <ele>74.4</ele>
        <time>2020-06-08T18:37:40Z</time>
      </trkpt>
      <trkpt lat="48.37853" lon="-4.60018">
        <ele>74.4</ele>
        <time>2020-06-08T18:37:41Z</time>
      </trkpt>
      <trkpt lat="48.37852" lon="-4.60026">
        <ele>74.4</ele>
        <time>2020-06-08T18:37:42Z</time>
      </trkpt>
      <trkpt lat="48.3785" lon="-4.60034">
        <ele>73.6</ele>
        <time>2020-06-08T18:37:43Z</time>
      </trkpt>
      <trkpt lat="48.37847" lon="-4.60042">
        <ele>73.4</ele>
        <time>2020-06-08T18:37:44Z</time>
      </trkpt>
      <trkpt lat="48.37844" lon="-4.60051">
        <ele>73.1</ele>
        <time>2020-06-08T18:37:45Z</time>
      </trkpt>
      <trkpt lat="48.37842" lon="-4.6006">
        <ele>72.8</ele>
        <time>2020-06-08T18:37:46Z</time>
      </trkpt>
      <trkpt lat="48.37841" lon="-4.6007">
        <ele>72.5</ele>
        <time>2020-06-08T18:37:47Z</time>
      </trkpt>
      <trkpt lat="48.37842" lon="-4.60081">
        <ele>72.2</ele>
        <time>2020-06-08T18:37:48Z</time>
      </trkpt>
      <trkpt lat="48.37844" lon="-4.60092">
        <ele>71.8</ele>
        <time>2020-06-08T18:37:49Z</time>
      </trkpt>
      <trkpt lat="48.37846" lon="-4.60103">
        <ele>71.4</ele>
        <time>2020-06-08T18:37:50Z</time>
      </trkpt>
      <trkpt lat="48.37848" lon="-4.60114">
        <ele>71.1</ele>
        <time>2020-06-08T18:37:51Z</time>
      </trkpt>
      <trkpt lat="48.3785" lon="-4.60126">
        <ele>70.7</ele>
        <time>2020-06-08T18:37:52Z</time>
      </trkpt>
      <trkpt lat="48.37851" lon="-4.60137">
        <ele>70.4</ele>
        <time>2020-06-08T18:37:53Z</time>
      </trkpt>
      <trkpt lat="48.37853" lon="-4.60149">
        <ele>70</ele>
        <time>2020-06-08T18:37:54Z</time>
      </trkpt>
      <trkpt lat="48.37855" lon="-4.6016">
        <ele>69.6</ele>
        <time>2020-06-08T18:37:55Z</time>
      </trkpt>
      <trkpt lat="48.37857" lon="-4.60172">
        <ele>69.3</ele>
        <time>2020-06-08T18:37:56Z</time>
      </trkpt>
      <trkpt lat="48.37859" lon="-4.60184">
        <ele>68.9</ele>
        <time>2020-06-08T18:37:57Z</time>
      </trkpt>
      <trkpt lat="48.3786" lon="-4.60196">
        <ele>68.6</ele>
        <time>2020-06-08T18:37:58Z</time>
      </trkpt>
      <trkpt lat="48.37861" lon="-4.60208">
        <ele>68.3</ele>
        <time>2020-06-08T18:37:59Z</time>
      </trkpt>
      <trkpt lat="48.37863" lon="-4.60221">
        <ele>68.1</ele>
        <time>2020-06-08T18:38:00Z</time>
      </trkpt>
      <trkpt lat="48.37866" lon="-4.60232">
        <ele>67.9</ele>
        <time>2020-06-08T18:38:01Z</time>
      </trkpt>
      <trkpt lat="48.3787" lon="-4.60244">
        <ele>67.7</ele>
        <time>2020-06-08T18:38:02Z</time>
      </trkpt>
      <trkpt lat="48.37873" lon="-4.60256">
        <ele>67.5</ele>
        <time>2020-06-08T18:38:03Z</time>
      </trkpt>
      <trkpt lat="48.37876" lon="-4.60267">
        <ele>67.3</ele>
        <time>2020-06-08T18:38:04Z</time>
      </trkpt>
      <trkpt lat="48.3788" lon="-4.60278">
        <ele>67.2</ele>
        <time>2020-06-08T18:38:05Z</time>
      </trkpt>
      <trkpt lat="48.37883" lon="-4.60289">
        <ele>67.2</ele>
        <time>2020-06-08T18:38:06Z</time>
      </trkpt>
      <trkpt lat="48.37887" lon="-4.60299">
        <ele>67.2</ele>
        <time>2020-06-08T18:38:07Z</time>
      </trkpt>
      <trkpt lat="48.37891" lon="-4.60309">
        <ele>67.2</ele>
        <time>2020-06-08T18:38:08Z</time>
      </trkpt>
      <trkpt lat="48.37895" lon="-4.60319">
        <ele>67.3</ele>
        <time>2020-06-08T18:38:09Z</time>
      </trkpt>
      <trkpt lat="48.37899" lon="-4.60328">
        <ele>67.3</ele>
        <time>2020-06-08T18:38:10Z</time>
      </trkpt>
      <trkpt lat="48.37902" lon="-4.60338">
        <ele>67.4</ele>
        <time>2020-06-08T18:38:11Z</time>
      </trkpt>
      <trkpt lat="48.37906" lon="-4.60348">
        <ele>67.4</ele>
        <time>2020-06-08T18:38:12Z</time>
      </trkpt>
      <trkpt lat="48.3791" lon="-4.60357">
        <ele>67.4</ele>
        <time>2020-06-08T18:38:13Z</time>
      </trkpt>
      <trkpt lat="48.37914" lon="-4.60365">
        <ele>67.3</ele>
        <time>2020-06-08T18:38:14Z</time>
      </trkpt>
      <trkpt lat="48.37918" lon="-4.60374">
        <ele>67.3</ele>
        <time>2020-06-08T18:38:15Z</time>
      </trkpt>
      <trkpt lat="48.37923" lon="-4.60381">
        <ele>67.4</ele>
        <time>2020-06-08T18:38:16Z</time>
      </trkpt>
      <trkpt lat="48.37928" lon="-4.60389">
        <ele>67.5</ele>
        <time>2020-06-08T18:38:17Z</time>
      </trkpt>
      <trkpt lat="48.37932" lon="-4.60396">
        <ele>67.6</ele>
        <time>2020-06-08T18:38:18Z</time>
      </trkpt>
      <trkpt lat="48.37937" lon="-4.60403">
        <ele>67.7</ele>
        <time>2020-06-08T18:38:19Z</time>
      </trkpt>
      <trkpt lat="48.37942" lon="-4.6041">
        <ele>67.8</ele>
        <time>2020-06-08T18:38:20Z</time>
      </trkpt>
      <trkpt lat="48.37947" lon="-4.60417">
        <ele>67.9</ele>
        <time>2020-06-08T18:38:21Z</time>
      </trkpt>
      <trkpt lat="48.37952" lon="-4.60424">
        <ele>68</ele>
        <time>2020-06-08T18:38:22Z</time>
      </trkpt>
      <trkpt lat="48.37957" lon="-4.6043">
        <ele>68.1</ele>
        <time>2020-06-08T18:38:23Z</time>
      </trkpt>
      <trkpt lat="48.37962" lon="-4.60435">
        <ele>68.2</ele>
        <time>2020-06-08T18:38:24Z</time>
      </trkpt>
      <trkpt lat="48.37967" lon="-4.60442">
        <ele>68.4</ele>
        <time>2020-06-08T18:38:25Z</time>
      </trkpt>
      <trkpt lat="48.37972" lon="-4.60448">
        <ele>68.5</ele>
        <time>2020-06-08T18:38:26Z</time>
      </trkpt>
      <trkpt lat="48.37977" lon="-4.60455">
        <ele>68.5</ele>
        <time>2020-06-08T18:38:27Z</time>
      </trkpt>
      <trkpt lat="48.37982" lon="-4.6046">
        <ele>68.6</ele>
        <time>2020-06-08T18:38:28Z</time>
      </trkpt>
      <trkpt lat="48.37987" lon="-4.60465">
        <ele>68.7</ele>
        <time>2020-06-08T18:38:29Z</time>
      </trkpt>
      <trkpt lat="48.37992" lon="-4.60471">
        <ele>68.8</ele>
        <time>2020-06-08T18:38:30Z</time>
      </trkpt>
      <trkpt lat="48.37996" lon="-4.60478">
        <ele>68.9</ele>
        <time>2020-06-08T18:38:31Z</time>
      </trkpt>
      <trkpt lat="48.38001" lon="-4.60485">
        <ele>68.9</ele>
        <time>2020-06-08T18:38:32Z</time>
      </trkpt>
      <trkpt lat="48.38006" lon="-4.60491">
        <ele>69</ele>
        <time>2020-06-08T18:38:33Z</time>
      </trkpt>
      <trkpt lat="48.38011" lon="-4.60497">
        <ele>69.1</ele>
        <time>2020-06-08T18:38:34Z</time>
      </trkpt>
      <trkpt lat="48.38016" lon="-4.60503">
        <ele>69.2</ele>
        <time>2020-06-08T18:38:35Z</time>
      </trkpt>
      <trkpt lat="48.38021" lon="-4.60508">
        <ele>69.2</ele>
        <time>2020-06-08T18:38:36Z</time>
      </trkpt>
      <trkpt lat="48.38026" lon="-4.60514">
        <ele>69.3</ele>
        <time>2020-06-08T18:38:37Z</time>
      </trkpt>
      <trkpt lat="48.3803" lon="-4.60521">
        <ele>69.4</ele>
        <time>2020-06-08T18:38:38Z</time>
      </trkpt>
      <trkpt lat="48.38035" lon="-4.60527">
        <ele>69.5</ele>
        <time>2020-06-08T18:38:39Z</time>
      </trkpt>
      <trkpt lat="48.3804" lon="-4.60532">
        <ele>69.6</ele>
        <time>2020-06-08T18:38:40Z</time>
      </trkpt>
      <trkpt lat="48.38045" lon="-4.60538">
        <ele>69.7</ele>
        <time>2020-06-08T18:38:41Z</time>
      </trkpt>
      <trkpt lat="48.3805" lon="-4.60544">
        <ele>69.8</ele>
        <time>2020-06-08T18:38:42Z</time>
      </trkpt>
      <trkpt lat="48.38055" lon="-4.6055">
        <ele>69.9</ele>
        <time>2020-06-08T18:38:43Z</time>
      </trkpt>
      <trkpt lat="48.38059" lon="-4.60557">
        <ele>70</ele>
        <time>2020-06-08T18:38:44Z</time>
      </trkpt>
      <trkpt lat="48.38064" lon="-4.60563">
        <ele>70.2</ele>
        <time>2020-06-08T18:38:45Z</time>
      </trkpt>
      <trkpt lat="48.38068" lon="-4.6057">
        <ele>70.3</ele>
        <time>2020-06-08T18:38:46Z</time>
      </trkpt>
      <trkpt lat="48.38073" lon="-4.60576">
        <ele>70.5</ele>
        <time>2020-06-08T18:38:47Z</time>
      </trkpt>
      <trkpt lat="48.38078" lon="-4.60582">
        <ele>70.6</ele>
        <time>2020-06-08T18:38:48Z</time>
      </trkpt>
      <trkpt lat="48.38082" lon="-4.60587">
        <ele>70.8</ele>
        <time>2020-06-08T18:38:49Z</time>
      </trkpt>
      <trkpt lat="48.38086" lon="-4.60594">
        <ele>70.9</ele>
        <time>2020-06-08T18:38:50Z</time>
      </trkpt>
      <trkpt lat="48.38091" lon="-4.606">
        <ele>71.1</ele>
        <time>2020-06-08T18:38:51Z</time>
      </trkpt>
      <trkpt lat="48.38094" lon="-4.60606">
        <ele>71.2</ele>
        <time>2020-06-08T18:38:52Z</time>
      </trkpt>
      <trkpt lat="48.38098" lon="-4.60612">
        <ele>71.3</ele>
        <time>2020-06-08T18:38:53Z</time>
      </trkpt>
      <trkpt lat="48.38102" lon="-4.60618">
        <ele>71.5</ele>
        <time>2020-06-08T18:38:54Z</time>
      </trkpt>
      <trkpt lat="48.38105" lon="-4.60625">
        <ele>71.6</ele>
        <time>2020-06-08T18:38:55Z</time>
      </trkpt>
      <trkpt lat="48.38108" lon="-4.6063">
        <ele>71.7</ele>
        <time>2020-06-08T18:38:56Z</time>
      </trkpt>
      <trkpt lat="48.38111" lon="-4.60636">
        <ele>71.7</ele>
        <time>2020-06-08T18:38:57Z</time>
      </trkpt>
      <trkpt lat="48.38115" lon="-4.60639">
        <ele>71.7</ele>
        <time>2020-06-08T18:38:58Z</time>
      </trkpt>
      <trkpt lat="48.38118" lon="-4.60645">
        <ele>71.8</ele>
        <time>2020-06-08T18:38:59Z</time>
      </trkpt>
      <trkpt lat="48.3812" lon="-4.6065">
        <ele>71.8</ele>
        <time>2020-06-08T18:39:00Z</time>
      </trkpt>
      <trkpt lat="48.38123" lon="-4.60655">
        <ele>71.8</ele>
        <time>2020-06-08T18:39:01Z</time>
      </trkpt>
      <trkpt lat="48.38126" lon="-4.60661">
        <ele>71.8</ele>
        <time>2020-06-08T18:39:02Z</time>
      </trkpt>
      <trkpt lat="48.38129" lon="-4.60665">
        <ele>71.8</ele>
        <time>2020-06-08T18:39:03Z</time>
      </trkpt>
      <trkpt lat="48.38132" lon="-4.60672">
        <ele>71.8</ele>
        <time>2020-06-08T18:39:04Z</time>
      </trkpt>
      <trkpt lat="48.38134" lon="-4.60677">
        <ele>71.8</ele>
        <time>2020-06-08T18:39:05Z</time>
      </trkpt>
      <trkpt lat="48.38136" lon="-4.60683">
        <ele>71.9</ele>
        <time>2020-06-08T18:39:06Z</time>
      </trkpt>
      <trkpt lat="48.38137" lon="-4.60687">
        <ele>71.9</ele>
        <time>2020-06-08T18:39:07Z</time>
      </trkpt>
      <trkpt lat="48.38139" lon="-4.60692">
        <ele>71.9</ele>
        <time>2020-06-08T18:39:08Z</time>
      </trkpt>
      <trkpt lat="48.38142" lon="-4.60698">
        <ele>71.9</ele>
        <time>2020-06-08T18:39:09Z</time>
      </trkpt>
      <trkpt lat="48.38143" lon="-4.60703">
        <ele>71.9</ele>
        <time>2020-06-08T18:39:10Z</time>
      </trkpt>
      <trkpt lat="48.38146" lon="-4.6071">
        <ele>71.9</ele>
        <time>2020-06-08T18:39:11Z</time>
      </trkpt>
      <trkpt lat="48.38146" lon="-4.60715">
        <ele>71.9</ele>
        <time>2020-06-08T18:39:12Z</time>
      </trkpt>
      <trkpt lat="48.38148" lon="-4.60721">
        <ele>71.9</ele>
        <time>2020-06-08T18:39:13Z</time>
      </trkpt>
      <trkpt lat="48.3815" lon="-4.60729">
        <ele>71.8</ele>
        <time>2020-06-08T18:39:14Z</time>
      </trkpt>
      <trkpt lat="48.3815" lon="-4.60733">
        <ele>71.8</ele>
        <time>2020-06-08T18:39:15Z</time>
      </trkpt>
      <trkpt lat="48.38152" lon="-4.6074">
        <ele>71.8</ele>
        <time>2020-06-08T18:39:16Z</time>
      </trkpt>
      <trkpt lat="48.38154" lon="-4.60747">
        <ele>71.7</ele>
        <time>2020-06-08T18:39:17Z</time>
      </trkpt>
      <trkpt lat="48.38156" lon="-4.60753">
        <ele>71.7</ele>
        <time>2020-06-08T18:39:18Z</time>
      </trkpt>
      <trkpt lat="48.38158" lon="-4.6076">
        <ele>71.6</ele>
        <time>2020-06-08T18:39:19Z</time>
      </trkpt>
      <trkpt lat="48.3816" lon="-4.60767">
        <ele>71.6</ele>
        <time>2020-06-08T18:39:20Z</time>
      </trkpt>
      <trkpt lat="48.38162" lon="-4.60774">
        <ele>71.5</ele>
        <time>2020-06-08T18:39:21Z</time>
      </trkpt>
      <trkpt lat="48.38163" lon="-4.60782">
        <ele>71.5</ele>
        <time>2020-06-08T18:39:22Z</time>
      </trkpt>
      <trkpt lat="48.38165" lon="-4.60787">
        <ele>71.5</ele>
        <time>2020-06-08T18:39:23Z</time>
      </trkpt>
      <trkpt lat="48.38166" lon="-4.60793">
        <ele>71.5</ele>
        <time>2020-06-08T18:39:24Z</time>
      </trkpt>
      <trkpt lat="48.38167" lon="-4.608">
        <ele>71.5</ele>
        <time>2020-06-08T18:39:25Z</time>
      </trkpt>
      <trkpt lat="48.38169" lon="-4.60807">
        <ele>71.5</ele>
        <time>2020-06-08T18:39:26Z</time>
      </trkpt>
      <trkpt lat="48.3817" lon="-4.60813">
        <ele>71.5</ele>
        <time>2020-06-08T18:39:27Z</time>
      </trkpt>
      <trkpt lat="48.38171" lon="-4.60822">
        <ele>71.5</ele>
        <time>2020-06-08T18:39:28Z</time>
      </trkpt>
      <trkpt lat="48.38172" lon="-4.60829">
        <ele>71.5</ele>
        <time>2020-06-08T18:39:29Z</time>
      </trkpt>
      <trkpt lat="48.38173" lon="-4.60837">
        <ele>71.5</ele>
        <time>2020-06-08T18:39:30Z</time>
      </trkpt>
      <trkpt lat="48.38174" lon="-4.60841">
        <ele>71.5</ele>
        <time>2020-06-08T18:39:31Z</time>
      </trkpt>
      <trkpt lat="48.38176" lon="-4.60849">
        <ele>71.6</ele>
        <time>2020-06-08T18:39:32Z</time>
      </trkpt>
      <trkpt lat="48.38179" lon="-4.60856">
        <ele>71.6</ele>
        <time>2020-06-08T18:39:33Z</time>
      </trkpt>
      <trkpt lat="48.38179" lon="-4.60863">
        <ele>71.6</ele>
        <time>2020-06-08T18:39:34Z</time>
      </trkpt>
      <trkpt lat="48.38181" lon="-4.60869">
        <ele>71.7</ele>
        <time>2020-06-08T18:39:35Z</time>
      </trkpt>
      <trkpt lat="48.38182" lon="-4.60876">
        <ele>71.7</ele>
        <time>2020-06-08T18:39:36Z</time>
      </trkpt>
      <trkpt lat="48.38184" lon="-4.60883">
        <ele>71.8</ele>
        <time>2020-06-08T18:39:37Z</time>
      </trkpt>
      <trkpt lat="48.38186" lon="-4.60889">
        <ele>71.8</ele>
        <time>2020-06-08T18:39:38Z</time>
      </trkpt>
      <trkpt lat="48.38188" lon="-4.60896">
        <ele>71.9</ele>
        <time>2020-06-08T18:39:39Z</time>
      </trkpt>
      <trkpt lat="48.3819" lon="-4.60901">
        <ele>71.9</ele>
        <time>2020-06-08T18:39:40Z</time>
      </trkpt>
      <trkpt lat="48.38191" lon="-4.60907">
        <ele>72</ele>
        <time>2020-06-08T18:39:41Z</time>
      </trkpt>
      <trkpt lat="48.38192" lon="-4.60912">
        <ele>72.1</ele>
        <time>2020-06-08T18:39:42Z</time>
      </trkpt>
      <trkpt lat="48.38195" lon="-4.60917">
        <ele>72.1</ele>
        <time>2020-06-08T18:39:43Z</time>
      </trkpt>
      <trkpt lat="48.382" lon="-4.60922">
        <ele>72.3</ele>
        <time>2020-06-08T18:39:44Z</time>
      </trkpt>
      <trkpt lat="48.38205" lon="-4.60924">
        <ele>72.4</ele>
        <time>2020-06-08T18:39:45Z</time>
      </trkpt>
      <trkpt lat="48.38208" lon="-4.60927">
        <ele>72.5</ele>
        <time>2020-06-08T18:39:46Z</time>
      </trkpt>
      <trkpt lat="48.38212" lon="-4.60929">
        <ele>72.6</ele>
        <time>2020-06-08T18:39:47Z</time>
      </trkpt>
      <trkpt lat="48.38214" lon="-4.60933">
        <ele>73.9</ele>
        <time>2020-06-08T18:39:48Z</time>
      </trkpt>
      <trkpt lat="48.38216" lon="-4.60937">
        <ele>73.8</ele>
        <time>2020-06-08T18:39:49Z</time>
      </trkpt>
      <trkpt lat="48.38217" lon="-4.60943">
        <ele>73.8</ele>
        <time>2020-06-08T18:39:50Z</time>
      </trkpt>
      <trkpt lat="48.38217" lon="-4.60944">
        <ele>73.8</ele>
        <time>2020-06-08T18:39:51Z</time>
      </trkpt>
      <trkpt lat="48.38217" lon="-4.60946">
        <ele>73.8</ele>
        <time>2020-06-08T18:39:52Z</time>
      </trkpt>
      <trkpt lat="48.38217" lon="-4.60946">
        <ele>73.8</ele>
        <time>2020-06-08T18:39:53Z</time>
      </trkpt>
      <trkpt lat="48.38217" lon="-4.60946">
        <ele>73.8</ele>
        <time>2020-06-08T18:39:54Z</time>
      </trkpt>
      <trkpt lat="48.38217" lon="-4.60946">
        <ele>73.8</ele>
        <time>2020-06-08T18:39:55Z</time>
      </trkpt>
      <trkpt lat="48.38217" lon="-4.60945">
        <ele>73.8</ele>
        <time>2020-06-08T18:39:56Z</time>
      </trkpt>
      <trkpt lat="48.38217" lon="-4.60946">
        <ele>73.8</ele>
        <time>2020-06-08T18:39:57Z</time>
      </trkpt>
      <trkpt lat="48.38217" lon="-4.60947">
        <ele>73.7</ele>
        <time>2020-06-08T18:39:58Z</time>
      </trkpt>
      <trkpt lat="48.38217" lon="-4.60947">
        <ele>73.7</ele>
        <time>2020-06-08T18:39:59Z</time>
      </trkpt>
      <trkpt lat="48.38217" lon="-4.60947">
        <ele>73.7</ele>
        <time>2020-06-08T18:40:00Z</time>
      </trkpt>
      <trkpt lat="48.38218" lon="-4.60948">
        <ele>73.7</ele>
        <time>2020-06-08T18:40:01Z</time>
      </trkpt>
      <trkpt lat="48.38217" lon="-4.60946">
        <ele>73.7</ele>
        <time>2020-06-08T18:40:02Z</time>
      </trkpt>
      <trkpt lat="48.38217" lon="-4.60946">
        <ele>73.7</ele>
        <time>2020-06-08T18:40:03Z</time>
      </trkpt>
      <trkpt lat="48.38217" lon="-4.60947">
        <ele>73.7</ele>
        <time>2020-06-08T18:40:04Z</time>
      </trkpt>
      <trkpt lat="48.38217" lon="-4.60947">
        <ele>73.7</ele>
        <time>2020-06-08T18:40:05Z</time>
      </trkpt>
      <trkpt lat="48.38217" lon="-4.60947">
        <ele>73.7</ele>
        <time>2020-06-08T18:40:06Z</time>
      </trkpt>
      <trkpt lat="48.38217" lon="-4.60945">
        <ele>73.6</ele>
        <time>2020-06-08T18:40:07Z</time>
      </trkpt>
      <trkpt lat="48.38216" lon="-4.60946">
        <ele>73.6</ele>
        <time>2020-06-08T18:40:08Z</time>
      </trkpt>
      <trkpt lat="48.38216" lon="-4.60945">
        <ele>73.6</ele>
        <time>2020-06-08T18:40:09Z</time>
      </trkpt>
      <trkpt lat="48.38216" lon="-4.60945">
        <ele>73.6</ele>
        <time>2020-06-08T18:40:10Z</time>
      </trkpt>
      <trkpt lat="48.38216" lon="-4.60946">
        <ele>73.6</ele>
        <time>2020-06-08T18:40:11Z</time>
      </trkpt>
      <trkpt lat="48.38216" lon="-4.60946">
        <ele>73.6</ele>
        <time>2020-06-08T18:40:12Z</time>
      </trkpt>
      <trkpt lat="48.38216" lon="-4.60946">
        <ele>73.6</ele>
        <time>2020-06-08T18:40:13Z</time>
      </trkpt>
      <trkpt lat="48.38216" lon="-4.60946">
        <ele>73.6</ele>
        <time>2020-06-08T18:40:14Z</time>
      </trkpt>
      <trkpt lat="48.38216" lon="-4.60946">
        <ele>73.6</ele>
        <time>2020-06-08T18:40:15Z</time>
      </trkpt>
      <trkpt lat="48.38215" lon="-4.60952">
        <ele>73.5</ele>
        <time>2020-06-08T18:42:05Z</time>
      </trkpt>
      <trkpt lat="48.38214" lon="-4.60954">
        <ele>73.5</ele>
        <time>2020-06-08T18:42:06Z</time>
      </trkpt>
      <trkpt lat="48.38212" lon="-4.60958">
        <ele>73.5</ele>
        <time>2020-06-08T18:42:07Z</time>
      </trkpt>
      <trkpt lat="48.38211" lon="-4.60962">
        <ele>73.4</ele>
        <time>2020-06-08T18:42:08Z</time>
      </trkpt>
      <trkpt lat="48.38209" lon="-4.60966">
        <ele>73.4</ele>
        <time>2020-06-08T18:42:09Z</time>
      </trkpt>
      <trkpt lat="48.38209" lon="-4.60973">
        <ele>73.5</ele>
        <time>2020-06-08T18:42:10Z</time>
      </trkpt>
      <trkpt lat="48.38209" lon="-4.60981">
        <ele>73.5</ele>
        <time>2020-06-08T18:42:11Z</time>
      </trkpt>
      <trkpt lat="48.3821" lon="-4.60987">
        <ele>73.5</ele>
        <time>2020-06-08T18:42:12Z</time>
      </trkpt>
      <trkpt lat="48.38211" lon="-4.60994">
        <ele>73.6</ele>
        <time>2020-06-08T18:42:13Z</time>
      </trkpt>
      <trkpt lat="48.38211" lon="-4.61001">
        <ele>73.6</ele>
        <time>2020-06-08T18:42:14Z</time>
      </trkpt>
      <trkpt lat="48.38213" lon="-4.61008">
        <ele>73.6</ele>
        <time>2020-06-08T18:42:15Z</time>
      </trkpt>
      <trkpt lat="48.38214" lon="-4.61015">
        <ele>73.7</ele>
        <time>2020-06-08T18:42:16Z</time>
      </trkpt>
      <trkpt lat="48.38215" lon="-4.61025">
        <ele>73.8</ele>
        <time>2020-06-08T18:42:17Z</time>
      </trkpt>
      <trkpt lat="48.38216" lon="-4.61031">
        <ele>73.8</ele>
        <time>2020-06-08T18:42:18Z</time>
      </trkpt>
      <trkpt lat="48.38215" lon="-4.6104">
        <ele>73.9</ele>
        <time>2020-06-08T18:42:19Z</time>
      </trkpt>
      <trkpt lat="48.38216" lon="-4.61048">
        <ele>74</ele>
        <time>2020-06-08T18:42:20Z</time>
      </trkpt>
      <trkpt lat="48.38217" lon="-4.61055">
        <ele>74</ele>
        <time>2020-06-08T18:42:21Z</time>
      </trkpt>
      <trkpt lat="48.38217" lon="-4.61063">
        <ele>74.1</ele>
        <time>2020-06-08T18:42:22Z</time>
      </trkpt>
      <trkpt lat="48.38217" lon="-4.61071">
        <ele>74.1</ele>
        <time>2020-06-08T18:42:23Z</time>
      </trkpt>
      <trkpt lat="48.38216" lon="-4.61079">
        <ele>74.2</ele>
        <time>2020-06-08T18:42:24Z</time>
      </trkpt>
      <trkpt lat="48.38214" lon="-4.61087">
        <ele>74.2</ele>
        <time>2020-06-08T18:42:25Z</time>
      </trkpt>
      <trkpt lat="48.38211" lon="-4.61095">
        <ele>74.2</ele>
        <time>2020-06-08T18:42:26Z</time>
      </trkpt>
      <trkpt lat="48.38209" lon="-4.61103">
        <ele>74.2</ele>
        <time>2020-06-08T18:42:27Z</time>
      </trkpt>
      <trkpt lat="48.38208" lon="-4.61112">
        <ele>74.2</ele>
        <time>2020-06-08T18:42:28Z</time>
      </trkpt>
      <trkpt lat="48.38209" lon="-4.61122">
        <ele>74.2</ele>
        <time>2020-06-08T18:42:29Z</time>
      </trkpt>
      <trkpt lat="48.38208" lon="-4.6113">
        <ele>74.2</ele>
        <time>2020-06-08T18:42:30Z</time>
      </trkpt>
      <trkpt lat="48.38207" lon="-4.61139">
        <ele>74.2</ele>
        <time>2020-06-08T18:42:31Z</time>
      </trkpt>
      <trkpt lat="48.38206" lon="-4.61147">
        <ele>74.2</ele>
        <time>2020-06-08T18:42:32Z</time>
      </trkpt>
      <trkpt lat="48.38205" lon="-4.61154">
        <ele>74.2</ele>
        <time>2020-06-08T18:42:33Z</time>
      </trkpt>
      <trkpt lat="48.38204" lon="-4.61163">
        <ele>74.3</ele>
        <time>2020-06-08T18:42:34Z</time>
      </trkpt>
      <trkpt lat="48.38204" lon="-4.61172">
        <ele>74.3</ele>
        <time>2020-06-08T18:42:35Z</time>
      </trkpt>
      <trkpt lat="48.38203" lon="-4.6118">
        <ele>74.3</ele>
        <time>2020-06-08T18:42:36Z</time>
      </trkpt>
      <trkpt lat="48.38204" lon="-4.61188">
        <ele>74.4</ele>
        <time>2020-06-08T18:42:37Z</time>
      </trkpt>
      <trkpt lat="48.38204" lon="-4.61196">
        <ele>74.3</ele>
        <time>2020-06-08T18:42:38Z</time>
      </trkpt>
      <trkpt lat="48.38204" lon="-4.61203">
        <ele>74.3</ele>
        <time>2020-06-08T18:42:39Z</time>
      </trkpt>
      <trkpt lat="48.38202" lon="-4.61209">
        <ele>74.3</ele>
        <time>2020-06-08T18:42:40Z</time>
      </trkpt>
      <trkpt lat="48.382" lon="-4.61215">
        <ele>74.3</ele>
        <time>2020-06-08T18:42:41Z</time>
      </trkpt>
      <trkpt lat="48.38197" lon="-4.61223">
        <ele>74.3</ele>
        <time>2020-06-08T18:42:42Z</time>
      </trkpt>
      <trkpt lat="48.38195" lon="-4.61231">
        <ele>74.4</ele>
        <time>2020-06-08T18:42:43Z</time>
      </trkpt>
      <trkpt lat="48.38193" lon="-4.61239">
        <ele>74.4</ele>
        <time>2020-06-08T18:42:44Z</time>
      </trkpt>
      <trkpt lat="48.38191" lon="-4.61249">
        <ele>74.5</ele>
        <time>2020-06-08T18:42:45Z</time>
      </trkpt>
      <trkpt lat="48.38188" lon="-4.61256">
        <ele>74.5</ele>
        <time>2020-06-08T18:42:46Z</time>
      </trkpt>
      <trkpt lat="48.38187" lon="-4.61265">
        <ele>74.6</ele>
        <time>2020-06-08T18:42:47Z</time>
      </trkpt>
      <trkpt lat="48.38185" lon="-4.61274">
        <ele>74.6</ele>
        <time>2020-06-08T18:42:48Z</time>
      </trkpt>
      <trkpt lat="48.38183" lon="-4.61285">
        <ele>74.7</ele>
        <time>2020-06-08T18:42:49Z</time>
      </trkpt>
      <trkpt lat="48.38182" lon="-4.61295">
        <ele>74.8</ele>
        <time>2020-06-08T18:42:50Z</time>
      </trkpt>
      <trkpt lat="48.38179" lon="-4.61302">
        <ele>74.9</ele>
        <time>2020-06-08T18:42:51Z</time>
      </trkpt>
      <trkpt lat="48.38178" lon="-4.61313">
        <ele>75</ele>
        <time>2020-06-08T18:42:52Z</time>
      </trkpt>
      <trkpt lat="48.38177" lon="-4.6132">
        <ele>75</ele>
        <time>2020-06-08T18:42:53Z</time>
      </trkpt>
      <trkpt lat="48.38175" lon="-4.6133">
        <ele>75.1</ele>
        <time>2020-06-08T18:42:54Z</time>
      </trkpt>
      <trkpt lat="48.38173" lon="-4.61337">
        <ele>75.2</ele>
        <time>2020-06-08T18:42:55Z</time>
      </trkpt>
      <trkpt lat="48.38172" lon="-4.61345">
        <ele>75.3</ele>
        <time>2020-06-08T18:42:56Z</time>
      </trkpt>
      <trkpt lat="48.38171" lon="-4.61353">
        <ele>75.3</ele>
        <time>2020-06-08T18:42:57Z</time>
      </trkpt>
      <trkpt lat="48.3817" lon="-4.61361">
        <ele>75.4</ele>
        <time>2020-06-08T18:42:58Z</time>
      </trkpt>
      <trkpt lat="48.38168" lon="-4.6137">
        <ele>75.5</ele>
        <time>2020-06-08T18:42:59Z</time>
      </trkpt>
      <trkpt lat="48.38167" lon="-4.61374">
        <ele>75.5</ele>
        <time>2020-06-08T18:43:00Z</time>
      </trkpt>
      <trkpt lat="48.38166" lon="-4.61381">
        <ele>75.6</ele>
        <time>2020-06-08T18:43:01Z</time>
      </trkpt>
      <trkpt lat="48.38168" lon="-4.61387">
        <ele>75.6</ele>
        <time>2020-06-08T18:43:02Z</time>
      </trkpt>
      <trkpt lat="48.38169" lon="-4.61394">
        <ele>75.6</ele>
        <time>2020-06-08T18:43:03Z</time>
      </trkpt>
      <trkpt lat="48.38168" lon="-4.614">
        <ele>75.6</ele>
        <time>2020-06-08T18:43:04Z</time>
      </trkpt>
      <trkpt lat="48.38167" lon="-4.61404">
        <ele>75.6</ele>
        <time>2020-06-08T18:43:05Z</time>
      </trkpt>
      <trkpt lat="48.38163" lon="-4.61408">
        <ele>75.6</ele>
        <time>2020-06-08T18:43:06Z</time>
      </trkpt>
      <trkpt lat="48.38161" lon="-4.61414">
        <ele>75.6</ele>
        <time>2020-06-08T18:43:07Z</time>
      </trkpt>
      <trkpt lat="48.3816" lon="-4.61422">
        <ele>75.6</ele>
        <time>2020-06-08T18:43:08Z</time>
      </trkpt>
      <trkpt lat="48.38158" lon="-4.6143">
        <ele>75.6</ele>
        <time>2020-06-08T18:43:09Z</time>
      </trkpt>
      <trkpt lat="48.38156" lon="-4.61436">
        <ele>75.6</ele>
        <time>2020-06-08T18:43:10Z</time>
      </trkpt>
      <trkpt lat="48.38154" lon="-4.61442">
        <ele>75.6</ele>
        <time>2020-06-08T18:43:11Z</time>
      </trkpt>
      <trkpt lat="48.38153" lon="-4.61451">
        <ele>75.6</ele>
        <time>2020-06-08T18:43:12Z</time>
      </trkpt>
      <trkpt lat="48.38151" lon="-4.61459">
        <ele>75.7</ele>
        <time>2020-06-08T18:43:13Z</time>
      </trkpt>
      <trkpt lat="48.3815" lon="-4.61468">
        <ele>75.7</ele>
        <time>2020-06-08T18:43:14Z</time>
      </trkpt>
      <trkpt lat="48.38149" lon="-4.61476">
        <ele>75.8</ele>
        <time>2020-06-08T18:43:15Z</time>
      </trkpt>
      <trkpt lat="48.38149" lon="-4.61484">
        <ele>75.8</ele>
        <time>2020-06-08T18:43:16Z</time>
      </trkpt>
      <trkpt lat="48.38149" lon="-4.61494">
        <ele>75.9</ele>
        <time>2020-06-08T18:43:17Z</time>
      </trkpt>
      <trkpt lat="48.38149" lon="-4.61502">
        <ele>75.9</ele>
        <time>2020-06-08T18:43:18Z</time>
      </trkpt>
      <trkpt lat="48.38149" lon="-4.61511">
        <ele>75.9</ele>
        <time>2020-06-08T18:43:19Z</time>
      </trkpt>
      <trkpt lat="48.38149" lon="-4.61521">
        <ele>76</ele>
        <time>2020-06-08T18:43:20Z</time>
      </trkpt>
      <trkpt lat="48.38149" lon="-4.6153">
        <ele>76</ele>
        <time>2020-06-08T18:43:21Z</time>
      </trkpt>
      <trkpt lat="48.38149" lon="-4.61536">
        <ele>75.9</ele>
        <time>2020-06-08T18:43:22Z</time>
      </trkpt>
      <trkpt lat="48.38149" lon="-4.61544">
        <ele>75.9</ele>
        <time>2020-06-08T18:43:23Z</time>
      </trkpt>
      <trkpt lat="48.3815" lon="-4.61552">
        <ele>75.9</ele>
        <time>2020-06-08T18:43:24Z</time>
      </trkpt>
      <trkpt lat="48.38151" lon="-4.6156">
        <ele>75.9</ele>
        <time>2020-06-08T18:43:25Z</time>
      </trkpt>
      <trkpt lat="48.38152" lon="-4.61568">
        <ele>75.8</ele>
        <time>2020-06-08T18:43:26Z</time>
      </trkpt>
      <trkpt lat="48.38153" lon="-4.61577">
        <ele>75.8</ele>
        <time>2020-06-08T18:43:27Z</time>
      </trkpt>
      <trkpt lat="48.38154" lon="-4.61585">
        <ele>75.8</ele>
        <time>2020-06-08T18:43:28Z</time>
      </trkpt>
      <trkpt lat="48.38157" lon="-4.61593">
        <ele>75.8</ele>
        <time>2020-06-08T18:43:29Z</time>
      </trkpt>
      <trkpt lat="48.3816" lon="-4.616">
        <ele>75.8</ele>
        <time>2020-06-08T18:43:30Z</time>
      </trkpt>
      <trkpt lat="48.38162" lon="-4.61604">
        <ele>75.7</ele>
        <time>2020-06-08T18:43:31Z</time>
      </trkpt>
      <trkpt lat="48.38163" lon="-4.61608">
        <ele>75.7</ele>
        <time>2020-06-08T18:43:32Z</time>
      </trkpt>
      <trkpt lat="48.38163" lon="-4.61613">
        <ele>75.6</ele>
        <time>2020-06-08T18:43:33Z</time>
      </trkpt>
      <trkpt lat="48.38162" lon="-4.61618">
        <ele>75.5</ele>
        <time>2020-06-08T18:43:34Z</time>
      </trkpt>
      <trkpt lat="48.38159" lon="-4.61621">
        <ele>75.3</ele>
        <time>2020-06-08T18:43:35Z</time>
      </trkpt>
      <trkpt lat="48.38156" lon="-4.61628">
        <ele>75.1</ele>
        <time>2020-06-08T18:43:36Z</time>
      </trkpt>
      <trkpt lat="48.38155" lon="-4.61634">
        <ele>74.9</ele>
        <time>2020-06-08T18:43:37Z</time>
      </trkpt>
      <trkpt lat="48.38155" lon="-4.61643">
        <ele>74.7</ele>
        <time>2020-06-08T18:43:38Z</time>
      </trkpt>
      <trkpt lat="48.38157" lon="-4.61652">
        <ele>74.5</ele>
        <time>2020-06-08T18:43:39Z</time>
      </trkpt>
      <trkpt lat="48.38157" lon="-4.6166">
        <ele>74.3</ele>
        <time>2020-06-08T18:43:40Z</time>
      </trkpt>
      <trkpt lat="48.38158" lon="-4.61669">
        <ele>74</ele>
        <time>2020-06-08T18:43:41Z</time>
      </trkpt>
      <trkpt lat="48.38159" lon="-4.61678">
        <ele>73.7</ele>
        <time>2020-06-08T18:43:42Z</time>
      </trkpt>
      <trkpt lat="48.3816" lon="-4.61688">
        <ele>73.5</ele>
        <time>2020-06-08T18:43:43Z</time>
      </trkpt>
      <trkpt lat="48.3816" lon="-4.61697">
        <ele>73.2</ele>
        <time>2020-06-08T18:43:44Z</time>
      </trkpt>
      <trkpt lat="48.38162" lon="-4.61708">
        <ele>72.9</ele>
        <time>2020-06-08T18:43:45Z</time>
      </trkpt>
      <trkpt lat="48.38162" lon="-4.61719">
        <ele>72.6</ele>
        <time>2020-06-08T18:43:46Z</time>
      </trkpt>
      <trkpt lat="48.38162" lon="-4.61729">
        <ele>72.3</ele>
        <time>2020-06-08T18:43:47Z</time>
      </trkpt>
      <trkpt lat="48.38162" lon="-4.6174">
        <ele>71.9</ele>
        <time>2020-06-08T18:43:48Z</time>
      </trkpt>
      <trkpt lat="48.38162" lon="-4.6175">
        <ele>71.4</ele>
        <time>2020-06-08T18:43:49Z</time>
      </trkpt>
      <trkpt lat="48.38163" lon="-4.6176">
        <ele>70.9</ele>
        <time>2020-06-08T18:43:50Z</time>
      </trkpt>
      <trkpt lat="48.38163" lon="-4.61771">
        <ele>70.5</ele>
        <time>2020-06-08T18:43:51Z</time>
      </trkpt>
      <trkpt lat="48.38164" lon="-4.61784">
        <ele>69.9</ele>
        <time>2020-06-08T18:43:52Z</time>
      </trkpt>
      <trkpt lat="48.38164" lon="-4.61795">
        <ele>69.4</ele>
        <time>2020-06-08T18:43:53Z</time>
      </trkpt>
      <trkpt lat="48.38165" lon="-4.61808">
        <ele>68.9</ele>
        <time>2020-06-08T18:43:54Z</time>
      </trkpt>
      <trkpt lat="48.38165" lon="-4.6182">
        <ele>68.5</ele>
        <time>2020-06-08T18:43:55Z</time>
      </trkpt>
      <trkpt lat="48.38165" lon="-4.61832">
        <ele>68.3</ele>
        <time>2020-06-08T18:43:56Z</time>
      </trkpt>
      <trkpt lat="48.38167" lon="-4.61844">
        <ele>68.1</ele>
        <time>2020-06-08T18:43:57Z</time>
      </trkpt>
      <trkpt lat="48.38168" lon="-4.61856">
        <ele>68</ele>
        <time>2020-06-08T18:43:58Z</time>
      </trkpt>
      <trkpt lat="48.38169" lon="-4.61867">
        <ele>67.8</ele>
        <time>2020-06-08T18:43:59Z</time>
      </trkpt>
      <trkpt lat="48.3817" lon="-4.61878">
        <ele>67.8</ele>
        <time>2020-06-08T18:44:00Z</time>
      </trkpt>
      <trkpt lat="48.38171" lon="-4.61889">
        <ele>67.7</ele>
        <time>2020-06-08T18:44:01Z</time>
      </trkpt>
      <trkpt lat="48.38172" lon="-4.619">
        <ele>67.7</ele>
        <time>2020-06-08T18:44:02Z</time>
      </trkpt>
      <trkpt lat="48.38173" lon="-4.61911">
        <ele>67.6</ele>
        <time>2020-06-08T18:44:03Z</time>
      </trkpt>
      <trkpt lat="48.38173" lon="-4.61921">
        <ele>67.6</ele>
        <time>2020-06-08T18:44:04Z</time>
      </trkpt>
      <trkpt lat="48.38172" lon="-4.61932">
        <ele>67.6</ele>
        <time>2020-06-08T18:44:05Z</time>
      </trkpt>
      <trkpt lat="48.38172" lon="-4.61942">
        <ele>67.7</ele>
        <time>2020-06-08T18:44:06Z</time>
      </trkpt>
      <trkpt lat="48.38173" lon="-4.61951">
        <ele>67.7</ele>
        <time>2020-06-08T18:44:07Z</time>
      </trkpt>
      <trkpt lat="48.38172" lon="-4.61961">
        <ele>67.7</ele>
        <time>2020-06-08T18:44:08Z</time>
      </trkpt>
      <trkpt lat="48.38171" lon="-4.61971">
        <ele>67.9</ele>
        <time>2020-06-08T18:44:09Z</time>
      </trkpt>
      <trkpt lat="48.38172" lon="-4.61979">
        <ele>67.9</ele>
        <time>2020-06-08T18:44:10Z</time>
      </trkpt>
      <trkpt lat="48.38172" lon="-4.61988">
        <ele>68</ele>
        <time>2020-06-08T18:44:11Z</time>
      </trkpt>
      <trkpt lat="48.38172" lon="-4.61996">
        <ele>68</ele>
        <time>2020-06-08T18:44:12Z</time>
      </trkpt>
      <trkpt lat="48.38172" lon="-4.62004">
        <ele>68.1</ele>
        <time>2020-06-08T18:44:13Z</time>
      </trkpt>
      <trkpt lat="48.38172" lon="-4.62012">
        <ele>68.1</ele>
        <time>2020-06-08T18:44:14Z</time>
      </trkpt>
      <trkpt lat="48.38172" lon="-4.6202">
        <ele>68.2</ele>
        <time>2020-06-08T18:44:15Z</time>
      </trkpt>
      <trkpt lat="48.38172" lon="-4.62028">
        <ele>68.2</ele>
        <time>2020-06-08T18:44:16Z</time>
      </trkpt>
      <trkpt lat="48.38173" lon="-4.62035">
        <ele>68.3</ele>
        <time>2020-06-08T18:44:17Z</time>
      </trkpt>
      <trkpt lat="48.38173" lon="-4.62041">
        <ele>68.4</ele>
        <time>2020-06-08T18:44:18Z</time>
      </trkpt>
      <trkpt lat="48.38174" lon="-4.62048">
        <ele>68.5</ele>
        <time>2020-06-08T18:44:19Z</time>
      </trkpt>
      <trkpt lat="48.38176" lon="-4.62054">
        <ele>68.7</ele>
        <time>2020-06-08T18:44:20Z</time>
      </trkpt>
      <trkpt lat="48.38177" lon="-4.62059">
        <ele>68.8</ele>
        <time>2020-06-08T18:44:21Z</time>
      </trkpt>
      <trkpt lat="48.38178" lon="-4.62064">
        <ele>68.9</ele>
        <time>2020-06-08T18:44:22Z</time>
      </trkpt>
      <trkpt lat="48.38179" lon="-4.62069">
        <ele>69</ele>
        <time>2020-06-08T18:44:23Z</time>
      </trkpt>
      <trkpt lat="48.38181" lon="-4.62074">
        <ele>69.2</ele>
        <time>2020-06-08T18:44:24Z</time>
      </trkpt>
      <trkpt lat="48.38183" lon="-4.62079">
        <ele>69.3</ele>
        <time>2020-06-08T18:44:25Z</time>
      </trkpt>
      <trkpt lat="48.38185" lon="-4.62084">
        <ele>69.4</ele>
        <time>2020-06-08T18:44:26Z</time>
      </trkpt>
      <trkpt lat="48.38185" lon="-4.62089">
        <ele>69.6</ele>
        <time>2020-06-08T18:44:27Z</time>
      </trkpt>
      <trkpt lat="48.38185" lon="-4.62091">
        <ele>69.6</ele>
        <time>2020-06-08T18:44:28Z</time>
      </trkpt>
      <trkpt lat="48.38186" lon="-4.62095">
        <ele>69.7</ele>
        <time>2020-06-08T18:44:29Z</time>
      </trkpt>
      <trkpt lat="48.38188" lon="-4.621">
        <ele>69.9</ele>
        <time>2020-06-08T18:44:30Z</time>
      </trkpt>
      <trkpt lat="48.3819" lon="-4.62103">
        <ele>70</ele>
        <time>2020-06-08T18:44:31Z</time>
      </trkpt>
      <trkpt lat="48.38192" lon="-4.62107">
        <ele>70.2</ele>
        <time>2020-06-08T18:44:32Z</time>
      </trkpt>
      <trkpt lat="48.38194" lon="-4.6211">
        <ele>70.3</ele>
        <time>2020-06-08T18:44:33Z</time>
      </trkpt>
      <trkpt lat="48.38197" lon="-4.62113">
        <ele>70.5</ele>
        <time>2020-06-08T18:44:34Z</time>
      </trkpt>
      <trkpt lat="48.382" lon="-4.62112">
        <ele>70.6</ele>
        <time>2020-06-08T18:44:35Z</time>
      </trkpt>
      <trkpt lat="48.38203" lon="-4.62113">
        <ele>70.8</ele>
        <time>2020-06-08T18:44:36Z</time>
      </trkpt>
      <trkpt lat="48.38206" lon="-4.62116">
        <ele>70.9</ele>
        <time>2020-06-08T18:44:37Z</time>
      </trkpt>
      <trkpt lat="48.38209" lon="-4.62119">
        <ele>71.1</ele>
        <time>2020-06-08T18:44:38Z</time>
      </trkpt>
      <trkpt lat="48.38212" lon="-4.62123">
        <ele>71.2</ele>
        <time>2020-06-08T18:44:39Z</time>
      </trkpt>
      <trkpt lat="48.38214" lon="-4.62127">
        <ele>71.4</ele>
        <time>2020-06-08T18:44:40Z</time>
      </trkpt>
      <trkpt lat="48.38216" lon="-4.62132">
        <ele>71.6</ele>
        <time>2020-06-08T18:44:41Z</time>
      </trkpt>
      <trkpt lat="48.38219" lon="-4.62137">
        <ele>71.7</ele>
        <time>2020-06-08T18:44:42Z</time>
      </trkpt>
      <trkpt lat="48.38223" lon="-4.62142">
        <ele>71.8</ele>
        <time>2020-06-08T18:44:43Z</time>
      </trkpt>
      <trkpt lat="48.38226" lon="-4.62147">
        <ele>72</ele>
        <time>2020-06-08T18:44:44Z</time>
      </trkpt>
      <trkpt lat="48.38228" lon="-4.62153">
        <ele>72</ele>
        <time>2020-06-08T18:44:45Z</time>
      </trkpt>
      <trkpt lat="48.3823" lon="-4.62159">
        <ele>72.1</ele>
        <time>2020-06-08T18:44:46Z</time>
      </trkpt>
      <trkpt lat="48.38232" lon="-4.62164">
        <ele>72.1</ele>
        <time>2020-06-08T18:44:47Z</time>
      </trkpt>
      <trkpt lat="48.38234" lon="-4.6217">
        <ele>72.2</ele>
        <time>2020-06-08T18:44:48Z</time>
      </trkpt>
      <trkpt lat="48.38236" lon="-4.62176">
        <ele>72.4</ele>
        <time>2020-06-08T18:44:49Z</time>
      </trkpt>
      <trkpt lat="48.38238" lon="-4.62182">
        <ele>72.5</ele>
        <time>2020-06-08T18:44:50Z</time>
      </trkpt>
      <trkpt lat="48.3824" lon="-4.62187">
        <ele>72.6</ele>
        <time>2020-06-08T18:44:51Z</time>
      </trkpt>
      <trkpt lat="48.38242" lon="-4.62191">
        <ele>72.7</ele>
        <time>2020-06-08T18:44:52Z</time>
      </trkpt>
      <trkpt lat="48.38243" lon="-4.62196">
        <ele>72.9</ele>
        <time>2020-06-08T18:44:53Z</time>
      </trkpt>
      <trkpt lat="48.38246" lon="-4.622">
        <ele>72.9</ele>
        <time>2020-06-08T18:44:54Z</time>
      </trkpt>
      <trkpt lat="48.38248" lon="-4.62205">
        <ele>72.8</ele>
        <time>2020-06-08T18:44:55Z</time>
      </trkpt>
      <trkpt lat="48.3825" lon="-4.62211">
        <ele>72.8</ele>
        <time>2020-06-08T18:44:56Z</time>
      </trkpt>
      <trkpt lat="48.38253" lon="-4.62217">
        <ele>72.7</ele>
        <time>2020-06-08T18:44:57Z</time>
      </trkpt>
      <trkpt lat="48.38256" lon="-4.62224">
        <ele>72.6</ele>
        <time>2020-06-08T18:44:58Z</time>
      </trkpt>
      <trkpt lat="48.3826" lon="-4.62228">
        <ele>72.6</ele>
        <time>2020-06-08T18:44:59Z</time>
      </trkpt>
      <trkpt lat="48.38263" lon="-4.62235">
        <ele>72.5</ele>
        <time>2020-06-08T18:45:00Z</time>
      </trkpt>
      <trkpt lat="48.38268" lon="-4.6224">
        <ele>72.5</ele>
        <time>2020-06-08T18:45:01Z</time>
      </trkpt>
      <trkpt lat="48.38272" lon="-4.62246">
        <ele>72.4</ele>
        <time>2020-06-08T18:45:02Z</time>
      </trkpt>
      <trkpt lat="48.38276" lon="-4.62252">
        <ele>72.3</ele>
        <time>2020-06-08T18:45:03Z</time>
      </trkpt>
      <trkpt lat="48.38281" lon="-4.62258">
        <ele>72.2</ele>
        <time>2020-06-08T18:45:04Z</time>
      </trkpt>
      <trkpt lat="48.38284" lon="-4.62265">
        <ele>72.1</ele>
        <time>2020-06-08T18:45:05Z</time>
      </trkpt>
      <trkpt lat="48.38289" lon="-4.62272">
        <ele>72</ele>
        <time>2020-06-08T18:45:06Z</time>
      </trkpt>
      <trkpt lat="48.38294" lon="-4.62276">
        <ele>72</ele>
        <time>2020-06-08T18:45:07Z</time>
      </trkpt>
      <trkpt lat="48.383" lon="-4.62281">
        <ele>71.9</ele>
        <time>2020-06-08T18:45:08Z</time>
      </trkpt>
      <trkpt lat="48.38305" lon="-4.62286">
        <ele>71.8</ele>
        <time>2020-06-08T18:45:09Z</time>
      </trkpt>
      <trkpt lat="48.3831" lon="-4.62292">
        <ele>71.7</ele>
        <time>2020-06-08T18:45:10Z</time>
      </trkpt>
      <trkpt lat="48.38316" lon="-4.62298">
        <ele>71.6</ele>
        <time>2020-06-08T18:45:11Z</time>
      </trkpt>
      <trkpt lat="48.38322" lon="-4.62302">
        <ele>71.5</ele>
        <time>2020-06-08T18:45:12Z</time>
      </trkpt>
      <trkpt lat="48.38328" lon="-4.62306">
        <ele>71.4</ele>
        <time>2020-06-08T18:45:13Z</time>
      </trkpt>
      <trkpt lat="48.38334" lon="-4.62309">
        <ele>71.2</ele>
        <time>2020-06-08T18:45:14Z</time>
      </trkpt>
      <trkpt lat="48.38339" lon="-4.62312">
        <ele>71.1</ele>
        <time>2020-06-08T18:45:15Z</time>
      </trkpt>
      <trkpt lat="48.38344" lon="-4.62316">
        <ele>70.9</ele>
        <time>2020-06-08T18:45:16Z</time>
      </trkpt>
      <trkpt lat="48.3835" lon="-4.62319">
        <ele>70.6</ele>
        <time>2020-06-08T18:45:17Z</time>
      </trkpt>
      <trkpt lat="48.38356" lon="-4.62323">
        <ele>70.3</ele>
        <time>2020-06-08T18:45:18Z</time>
      </trkpt>
      <trkpt lat="48.38362" lon="-4.62326">
        <ele>69.8</ele>
        <time>2020-06-08T18:45:19Z</time>
      </trkpt>
      <trkpt lat="48.38369" lon="-4.62331">
        <ele>69.3</ele>
        <time>2020-06-08T18:45:20Z</time>
      </trkpt>
      <trkpt lat="48.38375" lon="-4.62337">
        <ele>68.6</ele>
        <time>2020-06-08T18:45:21Z</time>
      </trkpt>
      <trkpt lat="48.38383" lon="-4.62342">
        <ele>67.9</ele>
        <time>2020-06-08T18:45:22Z</time>
      </trkpt>
      <trkpt lat="48.3839" lon="-4.62348">
        <ele>67.1</ele>
        <time>2020-06-08T18:45:23Z</time>
      </trkpt>
      <trkpt lat="48.38399" lon="-4.62353">
        <ele>66.1</ele>
        <time>2020-06-08T18:45:24Z</time>
      </trkpt>
      <trkpt lat="48.38408" lon="-4.6236">
        <ele>65.2</ele>
        <time>2020-06-08T18:45:25Z</time>
      </trkpt>
      <trkpt lat="48.38417" lon="-4.62368">
        <ele>64.4</ele>
        <time>2020-06-08T18:45:26Z</time>
      </trkpt>
      <trkpt lat="48.38426" lon="-4.62377">
        <ele>63.7</ele>
        <time>2020-06-08T18:45:27Z</time>
      </trkpt>
      <trkpt lat="48.38434" lon="-4.62387">
        <ele>63</ele>
        <time>2020-06-08T18:45:28Z</time>
      </trkpt>
      <trkpt lat="48.38442" lon="-4.62398">
        <ele>62.5</ele>
        <time>2020-06-08T18:45:29Z</time>
      </trkpt>
      <trkpt lat="48.3845" lon="-4.62409">
        <ele>62.1</ele>
        <time>2020-06-08T18:45:30Z</time>
      </trkpt>
      <trkpt lat="48.38457" lon="-4.6242">
        <ele>61.7</ele>
        <time>2020-06-08T18:45:31Z</time>
      </trkpt>
      <trkpt lat="48.38466" lon="-4.62428">
        <ele>61.5</ele>
        <time>2020-06-08T18:45:32Z</time>
      </trkpt>
      <trkpt lat="48.38473" lon="-4.62438">
        <ele>61.4</ele>
        <time>2020-06-08T18:45:33Z</time>
      </trkpt>
      <trkpt lat="48.3848" lon="-4.62448">
        <ele>61.4</ele>
        <time>2020-06-08T18:45:34Z</time>
      </trkpt>
      <trkpt lat="48.38487" lon="-4.62458">
        <ele>61.5</ele>
        <time>2020-06-08T18:45:35Z</time>
      </trkpt>
      <trkpt lat="48.38493" lon="-4.62468">
        <ele>61.6</ele>
        <time>2020-06-08T18:45:36Z</time>
      </trkpt>
      <trkpt lat="48.385" lon="-4.62476">
        <ele>61.7</ele>
        <time>2020-06-08T18:45:37Z</time>
      </trkpt>
      <trkpt lat="48.38507" lon="-4.62485">
        <ele>61.7</ele>
        <time>2020-06-08T18:45:38Z</time>
      </trkpt>
      <trkpt lat="48.38513" lon="-4.62492">
        <ele>61.7</ele>
        <time>2020-06-08T18:45:39Z</time>
      </trkpt>
      <trkpt lat="48.3852" lon="-4.625">
        <ele>61.6</ele>
        <time>2020-06-08T18:45:40Z</time>
      </trkpt>
      <trkpt lat="48.38526" lon="-4.62508">
        <ele>61.6</ele>
        <time>2020-06-08T18:45:41Z</time>
      </trkpt>
      <trkpt lat="48.38532" lon="-4.62516">
        <ele>61.4</ele>
        <time>2020-06-08T18:45:42Z</time>
      </trkpt>
      <trkpt lat="48.38538" lon="-4.62524">
        <ele>61.3</ele>
        <time>2020-06-08T18:45:43Z</time>
      </trkpt>
      <trkpt lat="48.38543" lon="-4.62533">
        <ele>61.2</ele>
        <time>2020-06-08T18:45:44Z</time>
      </trkpt>
      <trkpt lat="48.38548" lon="-4.62542">
        <ele>61</ele>
        <time>2020-06-08T18:45:45Z</time>
      </trkpt>
      <trkpt lat="48.38554" lon="-4.62552">
        <ele>60.8</ele>
        <time>2020-06-08T18:45:46Z</time>
      </trkpt>
      <trkpt lat="48.38558" lon="-4.62562">
        <ele>60.5</ele>
        <time>2020-06-08T18:45:47Z</time>
      </trkpt>
      <trkpt lat="48.38563" lon="-4.62573">
        <ele>60.2</ele>
        <time>2020-06-08T18:45:48Z</time>
      </trkpt>
      <trkpt lat="48.38567" lon="-4.62584">
        <ele>59.9</ele>
        <time>2020-06-08T18:45:49Z</time>
      </trkpt>
      <trkpt lat="48.38571" lon="-4.62596">
        <ele>59.5</ele>
        <time>2020-06-08T18:45:50Z</time>
      </trkpt>
      <trkpt lat="48.38576" lon="-4.62608">
        <ele>59.1</ele>
        <time>2020-06-08T18:45:51Z</time>
      </trkpt>
      <trkpt lat="48.3858" lon="-4.62619">
        <ele>58.7</ele>
        <time>2020-06-08T18:45:52Z</time>
      </trkpt>
      <trkpt lat="48.38585" lon="-4.62631">
        <ele>58.3</ele>
        <time>2020-06-08T18:45:53Z</time>
      </trkpt>
      <trkpt lat="48.38589" lon="-4.62643">
        <ele>57.8</ele>
        <time>2020-06-08T18:45:54Z</time>
      </trkpt>
      <trkpt lat="48.38594" lon="-4.62655">
        <ele>57.3</ele>
        <time>2020-06-08T18:45:55Z</time>
      </trkpt>
      <trkpt lat="48.38599" lon="-4.62666">
        <ele>56.8</ele>
        <time>2020-06-08T18:45:56Z</time>
      </trkpt>
      <trkpt lat="48.38604" lon="-4.62678">
        <ele>56.3</ele>
        <time>2020-06-08T18:45:57Z</time>
      </trkpt>
      <trkpt lat="48.38609" lon="-4.6269">
        <ele>55.7</ele>
        <time>2020-06-08T18:45:58Z</time>
      </trkpt>
      <trkpt lat="48.38614" lon="-4.62702">
        <ele>55.2</ele>
        <time>2020-06-08T18:45:59Z</time>
      </trkpt>
      <trkpt lat="48.38619" lon="-4.62714">
        <ele>54.6</ele>
        <time>2020-06-08T18:46:00Z</time>
      </trkpt>
      <trkpt lat="48.38625" lon="-4.62725">
        <ele>54</ele>
        <time>2020-06-08T18:46:01Z</time>
      </trkpt>
      <trkpt lat="48.38631" lon="-4.62735">
        <ele>53.4</ele>
        <time>2020-06-08T18:46:02Z</time>
      </trkpt>
      <trkpt lat="48.38638" lon="-4.62745">
        <ele>52.9</ele>
        <time>2020-06-08T18:46:03Z</time>
      </trkpt>
      <trkpt lat="48.38646" lon="-4.62754">
        <ele>52.4</ele>
        <time>2020-06-08T18:46:04Z</time>
      </trkpt>
      <trkpt lat="48.38654" lon="-4.62763">
        <ele>51.9</ele>
        <time>2020-06-08T18:46:05Z</time>
      </trkpt>
      <trkpt lat="48.38663" lon="-4.6277">
        <ele>51.4</ele>
        <time>2020-06-08T18:46:06Z</time>
      </trkpt>
      <trkpt lat="48.38671" lon="-4.62778">
        <ele>51</ele>
        <time>2020-06-08T18:46:07Z</time>
      </trkpt>
      <trkpt lat="48.3868" lon="-4.62786">
        <ele>50.6</ele>
        <time>2020-06-08T18:46:08Z</time>
      </trkpt>
      <trkpt lat="48.38689" lon="-4.62793">
        <ele>50.2</ele>
        <time>2020-06-08T18:46:09Z</time>
      </trkpt>
      <trkpt lat="48.38698" lon="-4.62802">
        <ele>49.9</ele>
        <time>2020-06-08T18:46:10Z</time>
      </trkpt>
      <trkpt lat="48.38706" lon="-4.62812">
        <ele>49.6</ele>
        <time>2020-06-08T18:46:11Z</time>
      </trkpt>
      <trkpt lat="48.38713" lon="-4.62822">
        <ele>49.4</ele>
        <time>2020-06-08T18:46:12Z</time>
      </trkpt>
      <trkpt lat="48.38721" lon="-4.62833">
        <ele>49.1</ele>
        <time>2020-06-08T18:46:13Z</time>
      </trkpt>
      <trkpt lat="48.3873" lon="-4.62842">
        <ele>48.8</ele>
        <time>2020-06-08T18:46:14Z</time>
      </trkpt>
      <trkpt lat="48.38737" lon="-4.62853">
        <ele>48.6</ele>
        <time>2020-06-08T18:46:15Z</time>
      </trkpt>
      <trkpt lat="48.38745" lon="-4.62863">
        <ele>48.5</ele>
        <time>2020-06-08T18:46:16Z</time>
      </trkpt>
      <trkpt lat="48.38753" lon="-4.62873">
        <ele>48.4</ele>
        <time>2020-06-08T18:46:17Z</time>
      </trkpt>
      <trkpt lat="48.3876" lon="-4.62883">
        <ele>48.4</ele>
        <time>2020-06-08T18:46:18Z</time>
      </trkpt>
      <trkpt lat="48.38768" lon="-4.62891">
        <ele>48.4</ele>
        <time>2020-06-08T18:46:19Z</time>
      </trkpt>
      <trkpt lat="48.38775" lon="-4.62901">
        <ele>48.4</ele>
        <time>2020-06-08T18:46:20Z</time>
      </trkpt>
      <trkpt lat="48.38782" lon="-4.6291">
        <ele>48.4</ele>
        <time>2020-06-08T18:46:21Z</time>
      </trkpt>
      <trkpt lat="48.3879" lon="-4.62917">
        <ele>48.6</ele>
        <time>2020-06-08T18:46:22Z</time>
      </trkpt>
      <trkpt lat="48.38797" lon="-4.62926">
        <ele>48.7</ele>
        <time>2020-06-08T18:46:23Z</time>
      </trkpt>
      <trkpt lat="48.38803" lon="-4.62934">
        <ele>48.9</ele>
        <time>2020-06-08T18:46:24Z</time>
      </trkpt>
      <trkpt lat="48.3881" lon="-4.6294">
        <ele>49</ele>
        <time>2020-06-08T18:46:25Z</time>
      </trkpt>
      <trkpt lat="48.38816" lon="-4.62948">
        <ele>49.1</ele>
        <time>2020-06-08T18:46:26Z</time>
      </trkpt>
      <trkpt lat="48.38823" lon="-4.62955">
        <ele>49.2</ele>
        <time>2020-06-08T18:46:27Z</time>
      </trkpt>
      <trkpt lat="48.38829" lon="-4.62963">
        <ele>49.3</ele>
        <time>2020-06-08T18:46:28Z</time>
      </trkpt>
      <trkpt lat="48.38835" lon="-4.6297">
        <ele>49.4</ele>
        <time>2020-06-08T18:46:29Z</time>
      </trkpt>
      <trkpt lat="48.3884" lon="-4.62978">
        <ele>49.5</ele>
        <time>2020-06-08T18:46:30Z</time>
      </trkpt>
      <trkpt lat="48.38845" lon="-4.62986">
        <ele>49.5</ele>
        <time>2020-06-08T18:46:31Z</time>
      </trkpt>
      <trkpt lat="48.3885" lon="-4.62994">
        <ele>49.6</ele>
        <time>2020-06-08T18:46:32Z</time>
      </trkpt>
      <trkpt lat="48.38854" lon="-4.63">
        <ele>49.6</ele>
        <time>2020-06-08T18:46:33Z</time>
      </trkpt>
      <trkpt lat="48.38859" lon="-4.63007">
        <ele>49.7</ele>
        <time>2020-06-08T18:46:34Z</time>
      </trkpt>
      <trkpt lat="48.38863" lon="-4.63014">
        <ele>49.6</ele>
        <time>2020-06-08T18:46:35Z</time>
      </trkpt>
      <trkpt lat="48.38866" lon="-4.63021">
        <ele>49.6</ele>
        <time>2020-06-08T18:46:36Z</time>
      </trkpt>
      <trkpt lat="48.38869" lon="-4.63029">
        <ele>49.5</ele>
        <time>2020-06-08T18:46:37Z</time>
      </trkpt>
      <trkpt lat="48.38871" lon="-4.63037">
        <ele>49.5</ele>
        <time>2020-06-08T18:46:38Z</time>
      </trkpt>
      <trkpt lat="48.38873" lon="-4.63045">
        <ele>49.4</ele>
        <time>2020-06-08T18:46:39Z</time>
      </trkpt>
      <trkpt lat="48.38874" lon="-4.63054">
        <ele>49.4</ele>
        <time>2020-06-08T18:46:40Z</time>
      </trkpt>
      <trkpt lat="48.38875" lon="-4.63062">
        <ele>49.3</ele>
        <time>2020-06-08T18:46:41Z</time>
      </trkpt>
      <trkpt lat="48.38875" lon="-4.63071">
        <ele>49.3</ele>
        <time>2020-06-08T18:46:42Z</time>
      </trkpt>
      <trkpt lat="48.38875" lon="-4.6308">
        <ele>49.3</ele>
        <time>2020-06-08T18:46:43Z</time>
      </trkpt>
      <trkpt lat="48.38875" lon="-4.63089">
        <ele>49.1</ele>
        <time>2020-06-08T18:46:44Z</time>
      </trkpt>
      <trkpt lat="48.38874" lon="-4.63099">
        <ele>48.9</ele>
        <time>2020-06-08T18:46:45Z</time>
      </trkpt>
      <trkpt lat="48.38873" lon="-4.63108">
        <ele>48.8</ele>
        <time>2020-06-08T18:46:46Z</time>
      </trkpt>
      <trkpt lat="48.38872" lon="-4.63117">
        <ele>48.6</ele>
        <time>2020-06-08T18:46:47Z</time>
      </trkpt>
      <trkpt lat="48.38872" lon="-4.63127">
        <ele>48.4</ele>
        <time>2020-06-08T18:46:48Z</time>
      </trkpt>
      <trkpt lat="48.38871" lon="-4.63136">
        <ele>48.2</ele>
        <time>2020-06-08T18:46:49Z</time>
      </trkpt>
      <trkpt lat="48.3887" lon="-4.63146">
        <ele>47.9</ele>
        <time>2020-06-08T18:46:50Z</time>
      </trkpt>
      <trkpt lat="48.38869" lon="-4.63155">
        <ele>47.7</ele>
        <time>2020-06-08T18:46:51Z</time>
      </trkpt>
      <trkpt lat="48.38869" lon="-4.63165">
        <ele>47.4</ele>
        <time>2020-06-08T18:46:52Z</time>
      </trkpt>
      <trkpt lat="48.38869" lon="-4.63175">
        <ele>47.2</ele>
        <time>2020-06-08T18:46:53Z</time>
      </trkpt>
      <trkpt lat="48.38868" lon="-4.63185">
        <ele>46.9</ele>
        <time>2020-06-08T18:46:54Z</time>
      </trkpt>
      <trkpt lat="48.38868" lon="-4.63194">
        <ele>46.6</ele>
        <time>2020-06-08T18:46:55Z</time>
      </trkpt>
      <trkpt lat="48.38868" lon="-4.63204">
        <ele>46.4</ele>
        <time>2020-06-08T18:46:56Z</time>
      </trkpt>
      <trkpt lat="48.38868" lon="-4.63214">
        <ele>46.1</ele>
        <time>2020-06-08T18:46:57Z</time>
      </trkpt>
      <trkpt lat="48.38868" lon="-4.63225">
        <ele>45.8</ele>
        <time>2020-06-08T18:46:58Z</time>
      </trkpt>
      <trkpt lat="48.38869" lon="-4.63235">
        <ele>45.4</ele>
        <time>2020-06-08T18:46:59Z</time>
      </trkpt>
      <trkpt lat="48.38869" lon="-4.63246">
        <ele>45</ele>
        <time>2020-06-08T18:47:00Z</time>
      </trkpt>
      <trkpt lat="48.3887" lon="-4.63257">
        <ele>44.7</ele>
        <time>2020-06-08T18:47:01Z</time>
      </trkpt>
      <trkpt lat="48.3887" lon="-4.63268">
        <ele>44.3</ele>
        <time>2020-06-08T18:47:02Z</time>
      </trkpt>
      <trkpt lat="48.3887" lon="-4.6328">
        <ele>43.9</ele>
        <time>2020-06-08T18:47:03Z</time>
      </trkpt>
      <trkpt lat="48.38871" lon="-4.63292">
        <ele>43.6</ele>
        <time>2020-06-08T18:47:04Z</time>
      </trkpt>
      <trkpt lat="48.38872" lon="-4.63305">
        <ele>43.3</ele>
        <time>2020-06-08T18:47:05Z</time>
      </trkpt>
      <trkpt lat="48.38872" lon="-4.63318">
        <ele>43</ele>
        <time>2020-06-08T18:47:06Z</time>
      </trkpt>
      <trkpt lat="48.38872" lon="-4.63331">
        <ele>42.8</ele>
        <time>2020-06-08T18:47:07Z</time>
      </trkpt>
      <trkpt lat="48.38874" lon="-4.63343">
        <ele>42.7</ele>
        <time>2020-06-08T18:47:08Z</time>
      </trkpt>
      <trkpt lat="48.38875" lon="-4.63357">
        <ele>42.7</ele>
        <time>2020-06-08T18:47:09Z</time>
      </trkpt>
      <trkpt lat="48.38876" lon="-4.6337">
        <ele>42.6</ele>
        <time>2020-06-08T18:47:10Z</time>
      </trkpt>
      <trkpt lat="48.38877" lon="-4.63384">
        <ele>42.4</ele>
        <time>2020-06-08T18:47:11Z</time>
      </trkpt>
      <trkpt lat="48.38878" lon="-4.63397">
        <ele>42.3</ele>
        <time>2020-06-08T18:47:12Z</time>
      </trkpt>
      <trkpt lat="48.3888" lon="-4.6341">
        <ele>42.2</ele>
        <time>2020-06-08T18:47:13Z</time>
      </trkpt>
      <trkpt lat="48.3888" lon="-4.63424">
        <ele>42.1</ele>
        <time>2020-06-08T18:47:14Z</time>
      </trkpt>
      <trkpt lat="48.38881" lon="-4.63437">
        <ele>42</ele>
        <time>2020-06-08T18:47:15Z</time>
      </trkpt>
      <trkpt lat="48.38883" lon="-4.6345">
        <ele>41.9</ele>
        <time>2020-06-08T18:47:16Z</time>
      </trkpt>
      <trkpt lat="48.38884" lon="-4.63463">
        <ele>41.9</ele>
        <time>2020-06-08T18:47:17Z</time>
      </trkpt>
      <trkpt lat="48.38885" lon="-4.63477">
        <ele>41.9</ele>
        <time>2020-06-08T18:47:18Z</time>
      </trkpt>
      <trkpt lat="48.38886" lon="-4.63489">
        <ele>41.9</ele>
        <time>2020-06-08T18:47:19Z</time>
      </trkpt>
      <trkpt lat="48.38887" lon="-4.63501">
        <ele>42</ele>
        <time>2020-06-08T18:47:20Z</time>
      </trkpt>
      <trkpt lat="48.38888" lon="-4.63512">
        <ele>42.1</ele>
        <time>2020-06-08T18:47:21Z</time>
      </trkpt>
      <trkpt lat="48.38889" lon="-4.63524">
        <ele>42.3</ele>
        <time>2020-06-08T18:47:22Z</time>
      </trkpt>
      <trkpt lat="48.38889" lon="-4.63536">
        <ele>42.6</ele>
        <time>2020-06-08T18:47:23Z</time>
      </trkpt>
      <trkpt lat="48.38889" lon="-4.63546">
        <ele>42.8</ele>
        <time>2020-06-08T18:47:24Z</time>
      </trkpt>
      <trkpt lat="48.3889" lon="-4.63557">
        <ele>43.1</ele>
        <time>2020-06-08T18:47:25Z</time>
      </trkpt>
      <trkpt lat="48.38891" lon="-4.63567">
        <ele>43.3</ele>
        <time>2020-06-08T18:47:26Z</time>
      </trkpt>
      <trkpt lat="48.38891" lon="-4.63577">
        <ele>43.6</ele>
        <time>2020-06-08T18:47:27Z</time>
      </trkpt>
      <trkpt lat="48.38892" lon="-4.63586">
        <ele>43.9</ele>
        <time>2020-06-08T18:47:28Z</time>
      </trkpt>
      <trkpt lat="48.38892" lon="-4.63595">
        <ele>44.3</ele>
        <time>2020-06-08T18:47:29Z</time>
      </trkpt>
      <trkpt lat="48.38893" lon="-4.63603">
        <ele>44.6</ele>
        <time>2020-06-08T18:47:30Z</time>
      </trkpt>
      <trkpt lat="48.38894" lon="-4.63612">
        <ele>44.9</ele>
        <time>2020-06-08T18:47:31Z</time>
      </trkpt>
      <trkpt lat="48.38894" lon="-4.6362">
        <ele>45.2</ele>
        <time>2020-06-08T18:47:32Z</time>
      </trkpt>
      <trkpt lat="48.38894" lon="-4.63628">
        <ele>45.5</ele>
        <time>2020-06-08T18:47:33Z</time>
      </trkpt>
      <trkpt lat="48.38894" lon="-4.63636">
        <ele>45.8</ele>
        <time>2020-06-08T18:47:34Z</time>
      </trkpt>
      <trkpt lat="48.38894" lon="-4.63643">
        <ele>46.1</ele>
        <time>2020-06-08T18:47:35Z</time>
      </trkpt>
      <trkpt lat="48.38894" lon="-4.63651">
        <ele>46.4</ele>
        <time>2020-06-08T18:47:36Z</time>
      </trkpt>
      <trkpt lat="48.38895" lon="-4.63658">
        <ele>46.6</ele>
        <time>2020-06-08T18:47:37Z</time>
      </trkpt>
      <trkpt lat="48.38895" lon="-4.63665">
        <ele>46.9</ele>
        <time>2020-06-08T18:47:38Z</time>
      </trkpt>
      <trkpt lat="48.38895" lon="-4.63672">
        <ele>47.2</ele>
        <time>2020-06-08T18:47:39Z</time>
      </trkpt>
      <trkpt lat="48.38894" lon="-4.63679">
        <ele>47.4</ele>
        <time>2020-06-08T18:47:40Z</time>
      </trkpt>
      <trkpt lat="48.38893" lon="-4.63686">
        <ele>47.7</ele>
        <time>2020-06-08T18:47:41Z</time>
      </trkpt>
      <trkpt lat="48.38892" lon="-4.63695">
        <ele>48</ele>
        <time>2020-06-08T18:47:42Z</time>
      </trkpt>
      <trkpt lat="48.38893" lon="-4.63705">
        <ele>48.3</ele>
        <time>2020-06-08T18:47:43Z</time>
      </trkpt>
      <trkpt lat="48.38892" lon="-4.63712">
        <ele>48.6</ele>
        <time>2020-06-08T18:47:44Z</time>
      </trkpt>
      <trkpt lat="48.38891" lon="-4.6372">
        <ele>48.8</ele>
        <time>2020-06-08T18:47:45Z</time>
      </trkpt>
      <trkpt lat="48.3889" lon="-4.63728">
        <ele>49</ele>
        <time>2020-06-08T18:47:46Z</time>
      </trkpt>
      <trkpt lat="48.38889" lon="-4.63735">
        <ele>49.3</ele>
        <time>2020-06-08T18:47:47Z</time>
      </trkpt>
      <trkpt lat="48.38889" lon="-4.6374">
        <ele>49.4</ele>
        <time>2020-06-08T18:47:48Z</time>
      </trkpt>
      <trkpt lat="48.38891" lon="-4.63748">
        <ele>49.7</ele>
        <time>2020-06-08T18:47:49Z</time>
      </trkpt>
      <trkpt lat="48.38891" lon="-4.63757">
        <ele>49.9</ele>
        <time>2020-06-08T18:47:50Z</time>
      </trkpt>
      <trkpt lat="48.38891" lon="-4.63765">
        <ele>50.2</ele>
        <time>2020-06-08T18:47:51Z</time>
      </trkpt>
      <trkpt lat="48.38891" lon="-4.63773">
        <ele>50.4</ele>
        <time>2020-06-08T18:47:52Z</time>
      </trkpt>
      <trkpt lat="48.38891" lon="-4.63778">
        <ele>50.6</ele>
        <time>2020-06-08T18:47:53Z</time>
      </trkpt>
      <trkpt lat="48.38893" lon="-4.63786">
        <ele>50.8</ele>
        <time>2020-06-08T18:47:54Z</time>
      </trkpt>
      <trkpt lat="48.38893" lon="-4.63792">
        <ele>51</ele>
        <time>2020-06-08T18:47:55Z</time>
      </trkpt>
      <trkpt lat="48.38895" lon="-4.63799">
        <ele>51.2</ele>
        <time>2020-06-08T18:47:56Z</time>
      </trkpt>
      <trkpt lat="48.38896" lon="-4.63806">
        <ele>51.4</ele>
        <time>2020-06-08T18:47:57Z</time>
      </trkpt>
      <trkpt lat="48.38896" lon="-4.63808">
        <ele>51.5</ele>
        <time>2020-06-08T18:47:58Z</time>
      </trkpt>
      <trkpt lat="48.38897" lon="-4.63815">
        <ele>51.7</ele>
        <time>2020-06-08T18:47:59Z</time>
      </trkpt>
      <trkpt lat="48.38897" lon="-4.63821">
        <ele>51.9</ele>
        <time>2020-06-08T18:48:00Z</time>
      </trkpt>
      <trkpt lat="48.38897" lon="-4.63825">
        <ele>52.1</ele>
        <time>2020-06-08T18:48:01Z</time>
      </trkpt>
      <trkpt lat="48.38896" lon="-4.63826">
        <ele>52.1</ele>
        <time>2020-06-08T18:48:02Z</time>
      </trkpt>
      <trkpt lat="48.38897" lon="-4.6383">
        <ele>52.3</ele>
        <time>2020-06-08T18:48:03Z</time>
      </trkpt>
      <trkpt lat="48.38897" lon="-4.63835">
        <ele>52.4</ele>
        <time>2020-06-08T18:48:04Z</time>
      </trkpt>
      <trkpt lat="48.38897" lon="-4.6384">
        <ele>52.6</ele>
        <time>2020-06-08T18:48:05Z</time>
      </trkpt>
      <trkpt lat="48.38897" lon="-4.63846">
        <ele>52.9</ele>
        <time>2020-06-08T18:48:06Z</time>
      </trkpt>
      <trkpt lat="48.38897" lon="-4.63848">
        <ele>53</ele>
        <time>2020-06-08T18:48:07Z</time>
      </trkpt>
      <trkpt lat="48.38896" lon="-4.63855">
        <ele>53.2</ele>
        <time>2020-06-08T18:48:08Z</time>
      </trkpt>
      <trkpt lat="48.38897" lon="-4.63861">
        <ele>53.4</ele>
        <time>2020-06-08T18:48:09Z</time>
      </trkpt>
      <trkpt lat="48.38897" lon="-4.63862">
        <ele>53.5</ele>
        <time>2020-06-08T18:48:10Z</time>
      </trkpt>
      <trkpt lat="48.38897" lon="-4.63865">
        <ele>53.6</ele>
        <time>2020-06-08T18:48:11Z</time>
      </trkpt>
      <trkpt lat="48.38898" lon="-4.63867">
        <ele>53.7</ele>
        <time>2020-06-08T18:48:12Z</time>
      </trkpt>
      <trkpt lat="48.38898" lon="-4.63872">
        <ele>53.9</ele>
        <time>2020-06-08T18:48:13Z</time>
      </trkpt>
      <trkpt lat="48.38898" lon="-4.63874">
        <ele>53.9</ele>
        <time>2020-06-08T18:48:14Z</time>
      </trkpt>
      <trkpt lat="48.38898" lon="-4.63879">
        <ele>54.1</ele>
        <time>2020-06-08T18:48:15Z</time>
      </trkpt>
      <trkpt lat="48.38898" lon="-4.63881">
        <ele>54.2</ele>
        <time>2020-06-08T18:48:16Z</time>
      </trkpt>
      <trkpt lat="48.38897" lon="-4.63886">
        <ele>54.4</ele>
        <time>2020-06-08T18:48:17Z</time>
      </trkpt>
      <trkpt lat="48.38897" lon="-4.63888">
        <ele>54.4</ele>
        <time>2020-06-08T18:48:18Z</time>
      </trkpt>
      <trkpt lat="48.38897" lon="-4.63893">
        <ele>54.6</ele>
        <time>2020-06-08T18:48:19Z</time>
      </trkpt>
      <trkpt lat="48.38897" lon="-4.63895">
        <ele>54.7</ele>
        <time>2020-06-08T18:48:20Z</time>
      </trkpt>
      <trkpt lat="48.38898" lon="-4.639">
        <ele>54.8</ele>
        <time>2020-06-08T18:48:21Z</time>
      </trkpt>
      <trkpt lat="48.38898" lon="-4.63906">
        <ele>55</ele>
        <time>2020-06-08T18:48:22Z</time>
      </trkpt>
      <trkpt lat="48.38898" lon="-4.63907">
        <ele>55</ele>
        <time>2020-06-08T18:48:23Z</time>
      </trkpt>
      <trkpt lat="48.38898" lon="-4.63912">
        <ele>55.2</ele>
        <time>2020-06-08T18:48:24Z</time>
      </trkpt>
      <trkpt lat="48.38898" lon="-4.63918">
        <ele>55.3</ele>
        <time>2020-06-08T18:48:25Z</time>
      </trkpt>
      <trkpt lat="48.38899" lon="-4.63921">
        <ele>55.4</ele>
        <time>2020-06-08T18:48:26Z</time>
      </trkpt>
      <trkpt lat="48.38898" lon="-4.63926">
        <ele>55.6</ele>
        <time>2020-06-08T18:48:27Z</time>
      </trkpt>
      <trkpt lat="48.38898" lon="-4.63933">
        <ele>55.7</ele>
        <time>2020-06-08T18:48:28Z</time>
      </trkpt>
      <trkpt lat="48.38898" lon="-4.63941">
        <ele>55.9</ele>
        <time>2020-06-08T18:48:29Z</time>
      </trkpt>
      <trkpt lat="48.38899" lon="-4.63948">
        <ele>56</ele>
        <time>2020-06-08T18:48:30Z</time>
      </trkpt>
      <trkpt lat="48.38898" lon="-4.63955">
        <ele>56.2</ele>
        <time>2020-06-08T18:48:31Z</time>
      </trkpt>
      <trkpt lat="48.38897" lon="-4.63962">
        <ele>56.3</ele>
        <time>2020-06-08T18:48:32Z</time>
      </trkpt>
      <trkpt lat="48.38897" lon="-4.6397">
        <ele>56.5</ele>
        <time>2020-06-08T18:48:33Z</time>
      </trkpt>
      <trkpt lat="48.38897" lon="-4.63976">
        <ele>56.6</ele>
        <time>2020-06-08T18:48:34Z</time>
      </trkpt>
      <trkpt lat="48.38896" lon="-4.63982">
        <ele>56.8</ele>
        <time>2020-06-08T18:48:35Z</time>
      </trkpt>
      <trkpt lat="48.38895" lon="-4.63989">
        <ele>56.9</ele>
        <time>2020-06-08T18:48:36Z</time>
      </trkpt>
      <trkpt lat="48.38893" lon="-4.63996">
        <ele>57</ele>
        <time>2020-06-08T18:48:37Z</time>
      </trkpt>
      <trkpt lat="48.38891" lon="-4.64">
        <ele>57.1</ele>
        <time>2020-06-08T18:48:38Z</time>
      </trkpt>
      <trkpt lat="48.3889" lon="-4.64007">
        <ele>57.3</ele>
        <time>2020-06-08T18:48:39Z</time>
      </trkpt>
      <trkpt lat="48.3889" lon="-4.64013">
        <ele>57.4</ele>
        <time>2020-06-08T18:48:40Z</time>
      </trkpt>
      <trkpt lat="48.3889" lon="-4.64019">
        <ele>57.5</ele>
        <time>2020-06-08T18:48:41Z</time>
      </trkpt>
      <trkpt lat="48.38889" lon="-4.64025">
        <ele>57.7</ele>
        <time>2020-06-08T18:48:42Z</time>
      </trkpt>
      <trkpt lat="48.38887" lon="-4.64031">
        <ele>57.8</ele>
        <time>2020-06-08T18:48:43Z</time>
      </trkpt>
      <trkpt lat="48.38886" lon="-4.64037">
        <ele>57.9</ele>
        <time>2020-06-08T18:48:44Z</time>
      </trkpt>
      <trkpt lat="48.38886" lon="-4.64044">
        <ele>58.1</ele>
        <time>2020-06-08T18:48:45Z</time>
      </trkpt>
      <trkpt lat="48.38886" lon="-4.64049">
        <ele>58.2</ele>
        <time>2020-06-08T18:48:46Z</time>
      </trkpt>
      <trkpt lat="48.38885" lon="-4.64055">
        <ele>58.4</ele>
        <time>2020-06-08T18:48:47Z</time>
      </trkpt>
      <trkpt lat="48.38884" lon="-4.6406">
        <ele>58.5</ele>
        <time>2020-06-08T18:48:48Z</time>
      </trkpt>
      <trkpt lat="48.38883" lon="-4.64066">
        <ele>58.7</ele>
        <time>2020-06-08T18:48:49Z</time>
      </trkpt>
      <trkpt lat="48.38883" lon="-4.64072">
        <ele>58.8</ele>
        <time>2020-06-08T18:48:50Z</time>
      </trkpt>
      <trkpt lat="48.38882" lon="-4.64077">
        <ele>59</ele>
        <time>2020-06-08T18:48:51Z</time>
      </trkpt>
      <trkpt lat="48.38882" lon="-4.64083">
        <ele>59.2</ele>
        <time>2020-06-08T18:48:52Z</time>
      </trkpt>
      <trkpt lat="48.38882" lon="-4.64088">
        <ele>59.4</ele>
        <time>2020-06-08T18:48:53Z</time>
      </trkpt>
      <trkpt lat="48.38882" lon="-4.64093">
        <ele>59.5</ele>
        <time>2020-06-08T18:48:54Z</time>
      </trkpt>
      <trkpt lat="48.38882" lon="-4.64098">
        <ele>59.7</ele>
        <time>2020-06-08T18:48:55Z</time>
      </trkpt>
      <trkpt lat="48.38881" lon="-4.64102">
        <ele>59.9</ele>
        <time>2020-06-08T18:48:56Z</time>
      </trkpt>
      <trkpt lat="48.38881" lon="-4.64108">
        <ele>60.1</ele>
        <time>2020-06-08T18:48:57Z</time>
      </trkpt>
      <trkpt lat="48.3888" lon="-4.64114">
        <ele>60.3</ele>
        <time>2020-06-08T18:48:58Z</time>
      </trkpt>
      <trkpt lat="48.3888" lon="-4.6412">
        <ele>60.5</ele>
        <time>2020-06-08T18:48:59Z</time>
      </trkpt>
      <trkpt lat="48.3888" lon="-4.64127">
        <ele>60.8</ele>
        <time>2020-06-08T18:49:00Z</time>
      </trkpt>
      <trkpt lat="48.3888" lon="-4.64133">
        <ele>61</ele>
        <time>2020-06-08T18:49:01Z</time>
      </trkpt>
      <trkpt lat="48.38879" lon="-4.6414">
        <ele>61.2</ele>
        <time>2020-06-08T18:49:02Z</time>
      </trkpt>
      <trkpt lat="48.38879" lon="-4.64146">
        <ele>61.4</ele>
        <time>2020-06-08T18:49:03Z</time>
      </trkpt>
      <trkpt lat="48.38879" lon="-4.64155">
        <ele>61.7</ele>
        <time>2020-06-08T18:49:04Z</time>
      </trkpt>
      <trkpt lat="48.38879" lon="-4.64162">
        <ele>62</ele>
        <time>2020-06-08T18:49:05Z</time>
      </trkpt>
      <trkpt lat="48.38878" lon="-4.64166">
        <ele>62.2</ele>
        <time>2020-06-08T18:49:06Z</time>
      </trkpt>
      <trkpt lat="48.38878" lon="-4.64171">
        <ele>62.4</ele>
        <time>2020-06-08T18:49:07Z</time>
      </trkpt>
      <trkpt lat="48.38878" lon="-4.64177">
        <ele>62.6</ele>
        <time>2020-06-08T18:49:08Z</time>
      </trkpt>
      <trkpt lat="48.38878" lon="-4.64179">
        <ele>62.7</ele>
        <time>2020-06-08T18:49:09Z</time>
      </trkpt>
      <trkpt lat="48.38879" lon="-4.64184">
        <ele>62.9</ele>
        <time>2020-06-08T18:49:10Z</time>
      </trkpt>
      <trkpt lat="48.38879" lon="-4.64186">
        <ele>63</ele>
        <time>2020-06-08T18:49:11Z</time>
      </trkpt>
      <trkpt lat="48.38879" lon="-4.64192">
        <ele>63.3</ele>
        <time>2020-06-08T18:49:12Z</time>
      </trkpt>
      <trkpt lat="48.38879" lon="-4.64194">
        <ele>63.4</ele>
        <time>2020-06-08T18:49:13Z</time>
      </trkpt>
      <trkpt lat="48.3888" lon="-4.642">
        <ele>63.6</ele>
        <time>2020-06-08T18:49:14Z</time>
      </trkpt>
      <trkpt lat="48.38879" lon="-4.64207">
        <ele>63.9</ele>
        <time>2020-06-08T18:49:15Z</time>
      </trkpt>
      <trkpt lat="48.3888" lon="-4.64214">
        <ele>64.3</ele>
        <time>2020-06-08T18:49:16Z</time>
      </trkpt>
      <trkpt lat="48.3888" lon="-4.64219">
        <ele>64.5</ele>
        <time>2020-06-08T18:49:17Z</time>
      </trkpt>
      <trkpt lat="48.38879" lon="-4.64224">
        <ele>64.8</ele>
        <time>2020-06-08T18:49:18Z</time>
      </trkpt>
      <trkpt lat="48.38878" lon="-4.64232">
        <ele>65.2</ele>
        <time>2020-06-08T18:49:19Z</time>
      </trkpt>
      <trkpt lat="48.38878" lon="-4.64239">
        <ele>65.6</ele>
        <time>2020-06-08T18:49:20Z</time>
      </trkpt>
      <trkpt lat="48.38878" lon="-4.64245">
        <ele>66</ele>
        <time>2020-06-08T18:49:21Z</time>
      </trkpt>
      <trkpt lat="48.38878" lon="-4.6425">
        <ele>66.3</ele>
        <time>2020-06-08T18:49:22Z</time>
      </trkpt>
      <trkpt lat="48.38877" lon="-4.64256">
        <ele>66.6</ele>
        <time>2020-06-08T18:49:23Z</time>
      </trkpt>
      <trkpt lat="48.38876" lon="-4.64262">
        <ele>66.9</ele>
        <time>2020-06-08T18:49:24Z</time>
      </trkpt>
      <trkpt lat="48.38875" lon="-4.64268">
        <ele>67.3</ele>
        <time>2020-06-08T18:49:25Z</time>
      </trkpt>
      <trkpt lat="48.38875" lon="-4.64274">
        <ele>67.6</ele>
        <time>2020-06-08T18:49:26Z</time>
      </trkpt>
      <trkpt lat="48.38874" lon="-4.64279">
        <ele>67.9</ele>
        <time>2020-06-08T18:49:27Z</time>
      </trkpt>
      <trkpt lat="48.38873" lon="-4.64285">
        <ele>68.3</ele>
        <time>2020-06-08T18:49:28Z</time>
      </trkpt>
      <trkpt lat="48.38871" lon="-4.64291">
        <ele>68.6</ele>
        <time>2020-06-08T18:49:29Z</time>
      </trkpt>
      <trkpt lat="48.3887" lon="-4.64296">
        <ele>68.9</ele>
        <time>2020-06-08T18:49:30Z</time>
      </trkpt>
      <trkpt lat="48.38868" lon="-4.64304">
        <ele>69.3</ele>
        <time>2020-06-08T18:49:31Z</time>
      </trkpt>
      <trkpt lat="48.38867" lon="-4.64312">
        <ele>69.8</ele>
        <time>2020-06-08T18:49:32Z</time>
      </trkpt>
      <trkpt lat="48.38864" lon="-4.64319">
        <ele>70.2</ele>
        <time>2020-06-08T18:49:33Z</time>
      </trkpt>
      <trkpt lat="48.38863" lon="-4.64326">
        <ele>70.5</ele>
        <time>2020-06-08T18:49:34Z</time>
      </trkpt>
      <trkpt lat="48.38862" lon="-4.64332">
        <ele>70.8</ele>
        <time>2020-06-08T18:49:35Z</time>
      </trkpt>
      <trkpt lat="48.38861" lon="-4.64341">
        <ele>71.1</ele>
        <time>2020-06-08T18:49:36Z</time>
      </trkpt>
      <trkpt lat="48.38861" lon="-4.64349">
        <ele>71.4</ele>
        <time>2020-06-08T18:49:37Z</time>
      </trkpt>
      <trkpt lat="48.3886" lon="-4.64356">
        <ele>71.6</ele>
        <time>2020-06-08T18:49:38Z</time>
      </trkpt>
      <trkpt lat="48.38859" lon="-4.64363">
        <ele>71.9</ele>
        <time>2020-06-08T18:49:39Z</time>
      </trkpt>
      <trkpt lat="48.38859" lon="-4.6437">
        <ele>72</ele>
        <time>2020-06-08T18:49:40Z</time>
      </trkpt>
      <trkpt lat="48.38858" lon="-4.64375">
        <ele>72.2</ele>
        <time>2020-06-08T18:49:41Z</time>
      </trkpt>
      <trkpt lat="48.38858" lon="-4.64382">
        <ele>72.4</ele>
        <time>2020-06-08T18:49:42Z</time>
      </trkpt>
      <trkpt lat="48.38857" lon="-4.64387">
        <ele>72.5</ele>
        <time>2020-06-08T18:49:43Z</time>
      </trkpt>
      <trkpt lat="48.38855" lon="-4.64391">
        <ele>72.6</ele>
        <time>2020-06-08T18:49:44Z</time>
      </trkpt>
      <trkpt lat="48.38854" lon="-4.64396">
        <ele>72.7</ele>
        <time>2020-06-08T18:49:45Z</time>
      </trkpt>
      <trkpt lat="48.38853" lon="-4.644">
        <ele>72.8</ele>
        <time>2020-06-08T18:49:46Z</time>
      </trkpt>
      <trkpt lat="48.38851" lon="-4.64404">
        <ele>72.9</ele>
        <time>2020-06-08T18:49:47Z</time>
      </trkpt>
      <trkpt lat="48.3885" lon="-4.64408">
        <ele>73</ele>
        <time>2020-06-08T18:49:48Z</time>
      </trkpt>
      <trkpt lat="48.38848" lon="-4.64413">
        <ele>73.1</ele>
        <time>2020-06-08T18:49:49Z</time>
      </trkpt>
      <trkpt lat="48.38848" lon="-4.64414">
        <ele>73.1</ele>
        <time>2020-06-08T18:49:50Z</time>
      </trkpt>
      <trkpt lat="48.38849" lon="-4.6442">
        <ele>73.2</ele>
        <time>2020-06-08T18:49:51Z</time>
      </trkpt>
      <trkpt lat="48.38848" lon="-4.64424">
        <ele>73.3</ele>
        <time>2020-06-08T18:49:52Z</time>
      </trkpt>
      <trkpt lat="48.38848" lon="-4.64425">
        <ele>73.3</ele>
        <time>2020-06-08T18:49:53Z</time>
      </trkpt>
      <trkpt lat="48.38848" lon="-4.64431">
        <ele>73.3</ele>
        <time>2020-06-08T18:49:54Z</time>
      </trkpt>
      <trkpt lat="48.38848" lon="-4.64433">
        <ele>73.3</ele>
        <time>2020-06-08T18:49:55Z</time>
      </trkpt>
      <trkpt lat="48.38846" lon="-4.64437">
        <ele>73.4</ele>
        <time>2020-06-08T18:49:56Z</time>
      </trkpt>
      <trkpt lat="48.38844" lon="-4.64442">
        <ele>73.4</ele>
        <time>2020-06-08T18:49:57Z</time>
      </trkpt>
      <trkpt lat="48.38844" lon="-4.64445">
        <ele>73.4</ele>
        <time>2020-06-08T18:49:58Z</time>
      </trkpt>
      <trkpt lat="48.38843" lon="-4.64449">
        <ele>73.5</ele>
        <time>2020-06-08T18:49:59Z</time>
      </trkpt>
      <trkpt lat="48.38842" lon="-4.64453">
        <ele>73.5</ele>
        <time>2020-06-08T18:50:00Z</time>
      </trkpt>
      <trkpt lat="48.3884" lon="-4.64457">
        <ele>73.6</ele>
        <time>2020-06-08T18:50:01Z</time>
      </trkpt>
      <trkpt lat="48.38839" lon="-4.6446">
        <ele>73.6</ele>
        <time>2020-06-08T18:50:02Z</time>
      </trkpt>
      <trkpt lat="48.38837" lon="-4.64464">
        <ele>73.6</ele>
        <time>2020-06-08T18:50:03Z</time>
      </trkpt>
      <trkpt lat="48.38837" lon="-4.64465">
        <ele>73.6</ele>
        <time>2020-06-08T18:50:04Z</time>
      </trkpt>
      <trkpt lat="48.38836" lon="-4.6447">
        <ele>73.8</ele>
        <time>2020-06-08T18:50:05Z</time>
      </trkpt>
      <trkpt lat="48.38836" lon="-4.64472">
        <ele>73.8</ele>
        <time>2020-06-08T18:50:06Z</time>
      </trkpt>
      <trkpt lat="48.38837" lon="-4.64477">
        <ele>73.9</ele>
        <time>2020-06-08T18:50:07Z</time>
      </trkpt>
      <trkpt lat="48.38837" lon="-4.64479">
        <ele>73.9</ele>
        <time>2020-06-08T18:50:08Z</time>
      </trkpt>
      <trkpt lat="48.38838" lon="-4.64484">
        <ele>74</ele>
        <time>2020-06-08T18:50:09Z</time>
      </trkpt>
      <trkpt lat="48.38838" lon="-4.64485">
        <ele>74</ele>
        <time>2020-06-08T18:50:10Z</time>
      </trkpt>
      <trkpt lat="48.38837" lon="-4.64488">
        <ele>74</ele>
        <time>2020-06-08T18:50:11Z</time>
      </trkpt>
      <trkpt lat="48.38837" lon="-4.6449">
        <ele>74</ele>
        <time>2020-06-08T18:50:12Z</time>
      </trkpt>
      <trkpt lat="48.38837" lon="-4.64494">
        <ele>74.1</ele>
        <time>2020-06-08T18:50:13Z</time>
      </trkpt>
      <trkpt lat="48.38837" lon="-4.64494">
        <ele>74.1</ele>
        <time>2020-06-08T18:50:14Z</time>
      </trkpt>
      <trkpt lat="48.38838" lon="-4.64494">
        <ele>74.1</ele>
        <time>2020-06-08T18:50:15Z</time>
      </trkpt>
      <trkpt lat="48.38839" lon="-4.64496">
        <ele>74.1</ele>
        <time>2020-06-08T18:50:16Z</time>
      </trkpt>
      <trkpt lat="48.38839" lon="-4.64496">
        <ele>74.1</ele>
        <time>2020-06-08T18:50:17Z</time>
      </trkpt>
      <trkpt lat="48.38839" lon="-4.64496">
        <ele>74.1</ele>
        <time>2020-06-08T18:50:18Z</time>
      </trkpt>
      <trkpt lat="48.38839" lon="-4.64496">
        <ele>74.1</ele>
        <time>2020-06-08T18:50:19Z</time>
      </trkpt>
      <trkpt lat="48.3884" lon="-4.64497">
        <ele>74.1</ele>
        <time>2020-06-08T18:50:20Z</time>
      </trkpt>
      <trkpt lat="48.3884" lon="-4.64499">
        <ele>74.1</ele>
        <time>2020-06-08T18:50:21Z</time>
      </trkpt>
      <trkpt lat="48.38839" lon="-4.645">
        <ele>74.2</ele>
        <time>2020-06-08T18:50:22Z</time>
      </trkpt>
      <trkpt lat="48.38839" lon="-4.64501">
        <ele>74.2</ele>
        <time>2020-06-08T18:50:23Z</time>
      </trkpt>
      <trkpt lat="48.38838" lon="-4.64503">
        <ele>74.2</ele>
        <time>2020-06-08T18:50:24Z</time>
      </trkpt>
      <trkpt lat="48.38838" lon="-4.64504">
        <ele>74.2</ele>
        <time>2020-06-08T18:50:25Z</time>
      </trkpt>
      <trkpt lat="48.38837" lon="-4.64505">
        <ele>74.2</ele>
        <time>2020-06-08T18:51:23Z</time>
      </trkpt>
      <trkpt lat="48.38837" lon="-4.64507">
        <ele>74.2</ele>
        <time>2020-06-08T18:51:24Z</time>
      </trkpt>
      <trkpt lat="48.38836" lon="-4.64511">
        <ele>74.3</ele>
        <time>2020-06-08T18:51:25Z</time>
      </trkpt>
      <trkpt lat="48.38836" lon="-4.64513">
        <ele>74.3</ele>
        <time>2020-06-08T18:51:26Z</time>
      </trkpt>
      <trkpt lat="48.38836" lon="-4.64518">
        <ele>74.4</ele>
        <time>2020-06-08T18:51:27Z</time>
      </trkpt>
      <trkpt lat="48.38835" lon="-4.64524">
        <ele>74.4</ele>
        <time>2020-06-08T18:51:28Z</time>
      </trkpt>
      <trkpt lat="48.38835" lon="-4.6453">
        <ele>74.5</ele>
        <time>2020-06-08T18:51:29Z</time>
      </trkpt>
      <trkpt lat="48.38835" lon="-4.64536">
        <ele>74.6</ele>
        <time>2020-06-08T18:51:30Z</time>
      </trkpt>
      <trkpt lat="48.38837" lon="-4.64542">
        <ele>74.7</ele>
        <time>2020-06-08T18:51:31Z</time>
      </trkpt>
      <trkpt lat="48.38837" lon="-4.64548">
        <ele>74.8</ele>
        <time>2020-06-08T18:51:32Z</time>
      </trkpt>
      <trkpt lat="48.38837" lon="-4.64555">
        <ele>74.9</ele>
        <time>2020-06-08T18:51:33Z</time>
      </trkpt>
      <trkpt lat="48.38837" lon="-4.64562">
        <ele>74.9</ele>
        <time>2020-06-08T18:51:34Z</time>
      </trkpt>
      <trkpt lat="48.38836" lon="-4.64568">
        <ele>75</ele>
        <time>2020-06-08T18:51:35Z</time>
      </trkpt>
      <trkpt lat="48.38836" lon="-4.64573">
        <ele>75.1</ele>
        <time>2020-06-08T18:51:36Z</time>
      </trkpt>
      <trkpt lat="48.38836" lon="-4.6458">
        <ele>75.2</ele>
        <time>2020-06-08T18:51:37Z</time>
      </trkpt>
      <trkpt lat="48.38837" lon="-4.64587">
        <ele>75.3</ele>
        <time>2020-06-08T18:51:38Z</time>
      </trkpt>
      <trkpt lat="48.38837" lon="-4.64594">
        <ele>75.3</ele>
        <time>2020-06-08T18:51:39Z</time>
      </trkpt>
      <trkpt lat="48.38837" lon="-4.64602">
        <ele>75.4</ele>
        <time>2020-06-08T18:51:40Z</time>
      </trkpt>
      <trkpt lat="48.38836" lon="-4.64609">
        <ele>75.5</ele>
        <time>2020-06-08T18:51:41Z</time>
      </trkpt>
      <trkpt lat="48.38837" lon="-4.64617">
        <ele>75.6</ele>
        <time>2020-06-08T18:51:42Z</time>
      </trkpt>
      <trkpt lat="48.38836" lon="-4.64623">
        <ele>75.8</ele>
        <time>2020-06-08T18:51:43Z</time>
      </trkpt>
      <trkpt lat="48.38836" lon="-4.6463">
        <ele>75.9</ele>
        <time>2020-06-08T18:51:44Z</time>
      </trkpt>
      <trkpt lat="48.38836" lon="-4.64636">
        <ele>76</ele>
        <time>2020-06-08T18:51:45Z</time>
      </trkpt>
      <trkpt lat="48.38836" lon="-4.64643">
        <ele>76.1</ele>
        <time>2020-06-08T18:51:46Z</time>
      </trkpt>
      <trkpt lat="48.38835" lon="-4.6465">
        <ele>76.2</ele>
        <time>2020-06-08T18:51:47Z</time>
      </trkpt>
      <trkpt lat="48.38836" lon="-4.64658">
        <ele>76.4</ele>
        <time>2020-06-08T18:51:48Z</time>
      </trkpt>
      <trkpt lat="48.38834" lon="-4.64663">
        <ele>76.5</ele>
        <time>2020-06-08T18:51:49Z</time>
      </trkpt>
      <trkpt lat="48.38833" lon="-4.6467">
        <ele>76.6</ele>
        <time>2020-06-08T18:51:50Z</time>
      </trkpt>
      <trkpt lat="48.38833" lon="-4.64677">
        <ele>76.8</ele>
        <time>2020-06-08T18:51:51Z</time>
      </trkpt>
      <trkpt lat="48.38833" lon="-4.64684">
        <ele>76.9</ele>
        <time>2020-06-08T18:51:52Z</time>
      </trkpt>
      <trkpt lat="48.38833" lon="-4.6469">
        <ele>77.1</ele>
        <time>2020-06-08T18:51:53Z</time>
      </trkpt>
      <trkpt lat="48.38833" lon="-4.64696">
        <ele>77.2</ele>
        <time>2020-06-08T18:51:54Z</time>
      </trkpt>
      <trkpt lat="48.38833" lon="-4.64702">
        <ele>77.4</ele>
        <time>2020-06-08T18:51:55Z</time>
      </trkpt>
      <trkpt lat="48.38833" lon="-4.6471">
        <ele>77.6</ele>
        <time>2020-06-08T18:51:56Z</time>
      </trkpt>
      <trkpt lat="48.38833" lon="-4.64718">
        <ele>77.7</ele>
        <time>2020-06-08T18:51:57Z</time>
      </trkpt>
      <trkpt lat="48.38833" lon="-4.64725">
        <ele>77.8</ele>
        <time>2020-06-08T18:51:58Z</time>
      </trkpt>
      <trkpt lat="48.38835" lon="-4.64732">
        <ele>77.9</ele>
        <time>2020-06-08T18:51:59Z</time>
      </trkpt>
      <trkpt lat="48.38836" lon="-4.64738">
        <ele>78</ele>
        <time>2020-06-08T18:52:00Z</time>
      </trkpt>
      <trkpt lat="48.38837" lon="-4.64744">
        <ele>78.2</ele>
        <time>2020-06-08T18:52:01Z</time>
      </trkpt>
      <trkpt lat="48.38838" lon="-4.6475">
        <ele>78.3</ele>
        <time>2020-06-08T18:52:02Z</time>
      </trkpt>
      <trkpt lat="48.38839" lon="-4.64756">
        <ele>78.4</ele>
        <time>2020-06-08T18:52:03Z</time>
      </trkpt>
      <trkpt lat="48.3884" lon="-4.64762">
        <ele>78.6</ele>
        <time>2020-06-08T18:52:04Z</time>
      </trkpt>
      <trkpt lat="48.38842" lon="-4.64767">
        <ele>78.7</ele>
        <time>2020-06-08T18:52:05Z</time>
      </trkpt>
      <trkpt lat="48.38843" lon="-4.64773">
        <ele>78.8</ele>
        <time>2020-06-08T18:52:06Z</time>
      </trkpt>
      <trkpt lat="48.38845" lon="-4.64779">
        <ele>78.8</ele>
        <time>2020-06-08T18:52:07Z</time>
      </trkpt>
      <trkpt lat="48.38846" lon="-4.64785">
        <ele>78.9</ele>
        <time>2020-06-08T18:52:08Z</time>
      </trkpt>
      <trkpt lat="48.38849" lon="-4.64791">
        <ele>79</ele>
        <time>2020-06-08T18:52:09Z</time>
      </trkpt>
      <trkpt lat="48.38849" lon="-4.64797">
        <ele>79.1</ele>
        <time>2020-06-08T18:52:10Z</time>
      </trkpt>
      <trkpt lat="48.38851" lon="-4.64803">
        <ele>79.2</ele>
        <time>2020-06-08T18:52:11Z</time>
      </trkpt>
      <trkpt lat="48.38852" lon="-4.6481">
        <ele>79.3</ele>
        <time>2020-06-08T18:52:12Z</time>
      </trkpt>
      <trkpt lat="48.38854" lon="-4.64818">
        <ele>79.4</ele>
        <time>2020-06-08T18:52:13Z</time>
      </trkpt>
      <trkpt lat="48.38855" lon="-4.64824">
        <ele>79.5</ele>
        <time>2020-06-08T18:52:14Z</time>
      </trkpt>
      <trkpt lat="48.38859" lon="-4.64829">
        <ele>79.6</ele>
        <time>2020-06-08T18:52:15Z</time>
      </trkpt>
      <trkpt lat="48.38862" lon="-4.64834">
        <ele>79.6</ele>
        <time>2020-06-08T18:52:16Z</time>
      </trkpt>
      <trkpt lat="48.38865" lon="-4.64841">
        <ele>79.7</ele>
        <time>2020-06-08T18:52:17Z</time>
      </trkpt>
      <trkpt lat="48.38868" lon="-4.64848">
        <ele>79.8</ele>
        <time>2020-06-08T18:52:18Z</time>
      </trkpt>
      <trkpt lat="48.3887" lon="-4.64854">
        <ele>79.9</ele>
        <time>2020-06-08T18:52:19Z</time>
      </trkpt>
      <trkpt lat="48.38874" lon="-4.64859">
        <ele>80</ele>
        <time>2020-06-08T18:52:20Z</time>
      </trkpt>
      <trkpt lat="48.38876" lon="-4.64865">
        <ele>80.1</ele>
        <time>2020-06-08T18:52:21Z</time>
      </trkpt>
      <trkpt lat="48.38878" lon="-4.64871">
        <ele>80.2</ele>
        <time>2020-06-08T18:52:22Z</time>
      </trkpt>
      <trkpt lat="48.3888" lon="-4.64878">
        <ele>80.3</ele>
        <time>2020-06-08T18:52:23Z</time>
      </trkpt>
      <trkpt lat="48.38883" lon="-4.64884">
        <ele>80.5</ele>
        <time>2020-06-08T18:52:24Z</time>
      </trkpt>
      <trkpt lat="48.38885" lon="-4.6489">
        <ele>80.6</ele>
        <time>2020-06-08T18:52:25Z</time>
      </trkpt>
      <trkpt lat="48.38887" lon="-4.64896">
        <ele>80.7</ele>
        <time>2020-06-08T18:52:26Z</time>
      </trkpt>
      <trkpt lat="48.38889" lon="-4.64902">
        <ele>80.8</ele>
        <time>2020-06-08T18:52:27Z</time>
      </trkpt>
      <trkpt lat="48.38891" lon="-4.64908">
        <ele>81</ele>
        <time>2020-06-08T18:52:28Z</time>
      </trkpt>
      <trkpt lat="48.38893" lon="-4.64914">
        <ele>81.1</ele>
        <time>2020-06-08T18:52:29Z</time>
      </trkpt>
      <trkpt lat="48.38894" lon="-4.64921">
        <ele>81.2</ele>
        <time>2020-06-08T18:52:30Z</time>
      </trkpt>
      <trkpt lat="48.38897" lon="-4.64928">
        <ele>81.3</ele>
        <time>2020-06-08T18:52:31Z</time>
      </trkpt>
      <trkpt lat="48.38899" lon="-4.64935">
        <ele>81.4</ele>
        <time>2020-06-08T18:52:32Z</time>
      </trkpt>
      <trkpt lat="48.389" lon="-4.64942">
        <ele>81.5</ele>
        <time>2020-06-08T18:52:33Z</time>
      </trkpt>
      <trkpt lat="48.38902" lon="-4.6495">
        <ele>81.6</ele>
        <time>2020-06-08T18:52:34Z</time>
      </trkpt>
      <trkpt lat="48.38903" lon="-4.64956">
        <ele>81.7</ele>
        <time>2020-06-08T18:52:35Z</time>
      </trkpt>
      <trkpt lat="48.38904" lon="-4.64963">
        <ele>81.8</ele>
        <time>2020-06-08T18:52:36Z</time>
      </trkpt>
      <trkpt lat="48.38906" lon="-4.64971">
        <ele>81.9</ele>
        <time>2020-06-08T18:52:37Z</time>
      </trkpt>
      <trkpt lat="48.38908" lon="-4.64978">
        <ele>82</ele>
        <time>2020-06-08T18:52:38Z</time>
      </trkpt>
      <trkpt lat="48.38908" lon="-4.64983">
        <ele>82.1</ele>
        <time>2020-06-08T18:52:39Z</time>
      </trkpt>
      <trkpt lat="48.38909" lon="-4.64991">
        <ele>82.2</ele>
        <time>2020-06-08T18:52:40Z</time>
      </trkpt>
      <trkpt lat="48.3891" lon="-4.64998">
        <ele>82.3</ele>
        <time>2020-06-08T18:52:41Z</time>
      </trkpt>
      <trkpt lat="48.3891" lon="-4.65005">
        <ele>82.5</ele>
        <time>2020-06-08T18:52:42Z</time>
      </trkpt>
      <trkpt lat="48.38911" lon="-4.65013">
        <ele>82.6</ele>
        <time>2020-06-08T18:52:43Z</time>
      </trkpt>
      <trkpt lat="48.38911" lon="-4.65021">
        <ele>82.8</ele>
        <time>2020-06-08T18:52:44Z</time>
      </trkpt>
      <trkpt lat="48.38912" lon="-4.6503">
        <ele>82.9</ele>
        <time>2020-06-08T18:52:45Z</time>
      </trkpt>
      <trkpt lat="48.38912" lon="-4.65037">
        <ele>83</ele>
        <time>2020-06-08T18:52:46Z</time>
      </trkpt>
      <trkpt lat="48.38914" lon="-4.65045">
        <ele>83.2</ele>
        <time>2020-06-08T18:52:47Z</time>
      </trkpt>
      <trkpt lat="48.38914" lon="-4.65051">
        <ele>83.2</ele>
        <time>2020-06-08T18:52:48Z</time>
      </trkpt>
      <trkpt lat="48.38915" lon="-4.65058">
        <ele>83.3</ele>
        <time>2020-06-08T18:52:49Z</time>
      </trkpt>
      <trkpt lat="48.38915" lon="-4.65066">
        <ele>83.4</ele>
        <time>2020-06-08T18:52:50Z</time>
      </trkpt>
      <trkpt lat="48.38915" lon="-4.65074">
        <ele>83.5</ele>
        <time>2020-06-08T18:52:51Z</time>
      </trkpt>
      <trkpt lat="48.38917" lon="-4.65083">
        <ele>83.7</ele>
        <time>2020-06-08T18:52:52Z</time>
      </trkpt>
      <trkpt lat="48.38918" lon="-4.65092">
        <ele>83.8</ele>
        <time>2020-06-08T18:52:53Z</time>
      </trkpt>
      <trkpt lat="48.38918" lon="-4.651">
        <ele>83.9</ele>
        <time>2020-06-08T18:52:54Z</time>
      </trkpt>
      <trkpt lat="48.38918" lon="-4.65107">
        <ele>83.9</ele>
        <time>2020-06-08T18:52:55Z</time>
      </trkpt>
      <trkpt lat="48.38919" lon="-4.65114">
        <ele>83.9</ele>
        <time>2020-06-08T18:52:56Z</time>
      </trkpt>
      <trkpt lat="48.38921" lon="-4.65123">
        <ele>83.9</ele>
        <time>2020-06-08T18:52:57Z</time>
      </trkpt>
      <trkpt lat="48.38922" lon="-4.65131">
        <ele>83.9</ele>
        <time>2020-06-08T18:52:58Z</time>
      </trkpt>
      <trkpt lat="48.38922" lon="-4.65137">
        <ele>83.8</ele>
        <time>2020-06-08T18:52:59Z</time>
      </trkpt>
      <trkpt lat="48.38923" lon="-4.65146">
        <ele>83.8</ele>
        <time>2020-06-08T18:53:00Z</time>
      </trkpt>
      <trkpt lat="48.38924" lon="-4.65152">
        <ele>83.8</ele>
        <time>2020-06-08T18:53:01Z</time>
      </trkpt>
      <trkpt lat="48.38925" lon="-4.65161">
        <ele>83.8</ele>
        <time>2020-06-08T18:53:02Z</time>
      </trkpt>
      <trkpt lat="48.38926" lon="-4.6517">
        <ele>83.7</ele>
        <time>2020-06-08T18:53:03Z</time>
      </trkpt>
      <trkpt lat="48.38928" lon="-4.65179">
        <ele>83.7</ele>
        <time>2020-06-08T18:53:04Z</time>
      </trkpt>
      <trkpt lat="48.38929" lon="-4.65188">
        <ele>83.7</ele>
        <time>2020-06-08T18:53:05Z</time>
      </trkpt>
      <trkpt lat="48.38931" lon="-4.65198">
        <ele>83.7</ele>
        <time>2020-06-08T18:53:06Z</time>
      </trkpt>
      <trkpt lat="48.38932" lon="-4.65208">
        <ele>83.7</ele>
        <time>2020-06-08T18:53:07Z</time>
      </trkpt>
      <trkpt lat="48.38933" lon="-4.65217">
        <ele>83.7</ele>
        <time>2020-06-08T18:53:08Z</time>
      </trkpt>
      <trkpt lat="48.38934" lon="-4.65225">
        <ele>83.7</ele>
        <time>2020-06-08T18:53:09Z</time>
      </trkpt>
      <trkpt lat="48.38935" lon="-4.65234">
        <ele>83.7</ele>
        <time>2020-06-08T18:53:10Z</time>
      </trkpt>
      <trkpt lat="48.38936" lon="-4.65244">
        <ele>83.6</ele>
        <time>2020-06-08T18:53:11Z</time>
      </trkpt>
      <trkpt lat="48.38936" lon="-4.65254">
        <ele>83.6</ele>
        <time>2020-06-08T18:53:12Z</time>
      </trkpt>
      <trkpt lat="48.38935" lon="-4.65263">
        <ele>83.6</ele>
        <time>2020-06-08T18:53:13Z</time>
      </trkpt>
      <trkpt lat="48.38936" lon="-4.65274">
        <ele>83.7</ele>
        <time>2020-06-08T18:53:14Z</time>
      </trkpt>
      <trkpt lat="48.38936" lon="-4.65284">
        <ele>83.7</ele>
        <time>2020-06-08T18:53:15Z</time>
      </trkpt>
      <trkpt lat="48.38937" lon="-4.6529">
        <ele>83.8</ele>
        <time>2020-06-08T18:53:16Z</time>
      </trkpt>
      <trkpt lat="48.38939" lon="-4.65297">
        <ele>83.9</ele>
        <time>2020-06-08T18:53:17Z</time>
      </trkpt>
      <trkpt lat="48.38939" lon="-4.65304">
        <ele>84</ele>
        <time>2020-06-08T18:53:18Z</time>
      </trkpt>
      <trkpt lat="48.38939" lon="-4.65312">
        <ele>84.1</ele>
        <time>2020-06-08T18:53:19Z</time>
      </trkpt>
      <trkpt lat="48.3894" lon="-4.65321">
        <ele>84.2</ele>
        <time>2020-06-08T18:53:20Z</time>
      </trkpt>
      <trkpt lat="48.38939" lon="-4.65328">
        <ele>84.3</ele>
        <time>2020-06-08T18:53:21Z</time>
      </trkpt>
      <trkpt lat="48.38939" lon="-4.65335">
        <ele>84.5</ele>
        <time>2020-06-08T18:53:22Z</time>
      </trkpt>
      <trkpt lat="48.38938" lon="-4.65342">
        <ele>84.6</ele>
        <time>2020-06-08T18:53:23Z</time>
      </trkpt>
      <trkpt lat="48.38939" lon="-4.6535">
        <ele>84.7</ele>
        <time>2020-06-08T18:53:24Z</time>
      </trkpt>
      <trkpt lat="48.38937" lon="-4.65356">
        <ele>84.8</ele>
        <time>2020-06-08T18:53:25Z</time>
      </trkpt>
      <trkpt lat="48.38936" lon="-4.65363">
        <ele>84.9</ele>
        <time>2020-06-08T18:53:26Z</time>
      </trkpt>
      <trkpt lat="48.38936" lon="-4.65372">
        <ele>85.1</ele>
        <time>2020-06-08T18:53:27Z</time>
      </trkpt>
      <trkpt lat="48.38936" lon="-4.65381">
        <ele>85.3</ele>
        <time>2020-06-08T18:53:28Z</time>
      </trkpt>
      <trkpt lat="48.38935" lon="-4.65389">
        <ele>85.4</ele>
        <time>2020-06-08T18:53:29Z</time>
      </trkpt>
      <trkpt lat="48.38934" lon="-4.65397">
        <ele>85.6</ele>
        <time>2020-06-08T18:53:30Z</time>
      </trkpt>
      <trkpt lat="48.38933" lon="-4.65406">
        <ele>85.8</ele>
        <time>2020-06-08T18:53:31Z</time>
      </trkpt>
      <trkpt lat="48.38931" lon="-4.65412">
        <ele>86</ele>
        <time>2020-06-08T18:53:32Z</time>
      </trkpt>
      <trkpt lat="48.3893" lon="-4.6542">
        <ele>86.2</ele>
        <time>2020-06-08T18:53:33Z</time>
      </trkpt>
      <trkpt lat="48.3893" lon="-4.65428">
        <ele>86.4</ele>
        <time>2020-06-08T18:53:34Z</time>
      </trkpt>
      <trkpt lat="48.38928" lon="-4.65434">
        <ele>86.6</ele>
        <time>2020-06-08T18:53:35Z</time>
      </trkpt>
      <trkpt lat="48.38928" lon="-4.65443">
        <ele>86.8</ele>
        <time>2020-06-08T18:53:36Z</time>
      </trkpt>
      <trkpt lat="48.38927" lon="-4.65449">
        <ele>87</ele>
        <time>2020-06-08T18:53:37Z</time>
      </trkpt>
      <trkpt lat="48.38926" lon="-4.65457">
        <ele>87.2</ele>
        <time>2020-06-08T18:53:38Z</time>
      </trkpt>
      <trkpt lat="48.38925" lon="-4.65464">
        <ele>87.4</ele>
        <time>2020-06-08T18:53:39Z</time>
      </trkpt>
      <trkpt lat="48.38924" lon="-4.65473">
        <ele>87.6</ele>
        <time>2020-06-08T18:53:40Z</time>
      </trkpt>
      <trkpt lat="48.38923" lon="-4.65481">
        <ele>87.9</ele>
        <time>2020-06-08T18:53:41Z</time>
      </trkpt>
      <trkpt lat="48.38922" lon="-4.65489">
        <ele>88.1</ele>
        <time>2020-06-08T18:53:42Z</time>
      </trkpt>
      <trkpt lat="48.3892" lon="-4.65496">
        <ele>88.3</ele>
        <time>2020-06-08T18:53:43Z</time>
      </trkpt>
      <trkpt lat="48.38919" lon="-4.65504">
        <ele>88.6</ele>
        <time>2020-06-08T18:53:44Z</time>
      </trkpt>
      <trkpt lat="48.38919" lon="-4.65511">
        <ele>88.8</ele>
        <time>2020-06-08T18:53:45Z</time>
      </trkpt>
      <trkpt lat="48.38918" lon="-4.65518">
        <ele>89</ele>
        <time>2020-06-08T18:53:46Z</time>
      </trkpt>
      <trkpt lat="48.38918" lon="-4.65525">
        <ele>89.2</ele>
        <time>2020-06-08T18:53:47Z</time>
      </trkpt>
      <trkpt lat="48.38917" lon="-4.65532">
        <ele>89.5</ele>
        <time>2020-06-08T18:53:48Z</time>
      </trkpt>
      <trkpt lat="48.38917" lon="-4.65538">
        <ele>89.7</ele>
        <time>2020-06-08T18:53:49Z</time>
      </trkpt>
      <trkpt lat="48.38917" lon="-4.65545">
        <ele>89.9</ele>
        <time>2020-06-08T18:53:50Z</time>
      </trkpt>
      <trkpt lat="48.38918" lon="-4.65553">
        <ele>90.2</ele>
        <time>2020-06-08T18:53:51Z</time>
      </trkpt>
      <trkpt lat="48.38919" lon="-4.6556">
        <ele>90.5</ele>
        <time>2020-06-08T18:53:52Z</time>
      </trkpt>
      <trkpt lat="48.38918" lon="-4.65566">
        <ele>90.7</ele>
        <time>2020-06-08T18:53:53Z</time>
      </trkpt>
      <trkpt lat="48.38918" lon="-4.65573">
        <ele>91</ele>
        <time>2020-06-08T18:53:54Z</time>
      </trkpt>
      <trkpt lat="48.38919" lon="-4.65578">
        <ele>91.2</ele>
        <time>2020-06-08T18:53:55Z</time>
      </trkpt>
      <trkpt lat="48.38919" lon="-4.65585">
        <ele>91.5</ele>
        <time>2020-06-08T18:53:56Z</time>
      </trkpt>
      <trkpt lat="48.38919" lon="-4.65592">
        <ele>91.8</ele>
        <time>2020-06-08T18:53:57Z</time>
      </trkpt>
      <trkpt lat="48.38921" lon="-4.65599">
        <ele>92.1</ele>
        <time>2020-06-08T18:53:58Z</time>
      </trkpt>
      <trkpt lat="48.38922" lon="-4.65605">
        <ele>92.3</ele>
        <time>2020-06-08T18:53:59Z</time>
      </trkpt>
      <trkpt lat="48.38923" lon="-4.6561">
        <ele>92.6</ele>
        <time>2020-06-08T18:54:00Z</time>
      </trkpt>
      <trkpt lat="48.38924" lon="-4.65616">
        <ele>92.9</ele>
        <time>2020-06-08T18:54:01Z</time>
      </trkpt>
      <trkpt lat="48.38926" lon="-4.65622">
        <ele>93.2</ele>
        <time>2020-06-08T18:54:02Z</time>
      </trkpt>
      <trkpt lat="48.38926" lon="-4.65627">
        <ele>93.4</ele>
        <time>2020-06-08T18:54:03Z</time>
      </trkpt>
      <trkpt lat="48.38927" lon="-4.65633">
        <ele>93.6</ele>
        <time>2020-06-08T18:54:04Z</time>
      </trkpt>
      <trkpt lat="48.38927" lon="-4.65637">
        <ele>93.8</ele>
        <time>2020-06-08T18:54:05Z</time>
      </trkpt>
      <trkpt lat="48.38929" lon="-4.65642">
        <ele>94.1</ele>
        <time>2020-06-08T18:54:06Z</time>
      </trkpt>
      <trkpt lat="48.38931" lon="-4.65649">
        <ele>94.4</ele>
        <time>2020-06-08T18:54:07Z</time>
      </trkpt>
      <trkpt lat="48.38933" lon="-4.65655">
        <ele>94.6</ele>
        <time>2020-06-08T18:54:08Z</time>
      </trkpt>
      <trkpt lat="48.38935" lon="-4.65661">
        <ele>94.9</ele>
        <time>2020-06-08T18:54:09Z</time>
      </trkpt>
      <trkpt lat="48.38935" lon="-4.65667">
        <ele>95.1</ele>
        <time>2020-06-08T18:54:10Z</time>
      </trkpt>
      <trkpt lat="48.38937" lon="-4.65673">
        <ele>95.4</ele>
        <time>2020-06-08T18:54:11Z</time>
      </trkpt>
      <trkpt lat="48.38938" lon="-4.6568">
        <ele>95.6</ele>
        <time>2020-06-08T18:54:12Z</time>
      </trkpt>
      <trkpt lat="48.38939" lon="-4.65685">
        <ele>95.8</ele>
        <time>2020-06-08T18:54:13Z</time>
      </trkpt>
      <trkpt lat="48.3894" lon="-4.65691">
        <ele>96</ele>
        <time>2020-06-08T18:54:14Z</time>
      </trkpt>
      <trkpt lat="48.38941" lon="-4.65698">
        <ele>96.2</ele>
        <time>2020-06-08T18:54:15Z</time>
      </trkpt>
      <trkpt lat="48.38943" lon="-4.65704">
        <ele>96.5</ele>
        <time>2020-06-08T18:54:16Z</time>
      </trkpt>
      <trkpt lat="48.38945" lon="-4.6571">
        <ele>96.7</ele>
        <time>2020-06-08T18:54:17Z</time>
      </trkpt>
      <trkpt lat="48.38947" lon="-4.65715">
        <ele>96.9</ele>
        <time>2020-06-08T18:54:18Z</time>
      </trkpt>
      <trkpt lat="48.38947" lon="-4.6572">
        <ele>97</ele>
        <time>2020-06-08T18:54:19Z</time>
      </trkpt>
      <trkpt lat="48.38948" lon="-4.65726">
        <ele>97.3</ele>
        <time>2020-06-08T18:54:20Z</time>
      </trkpt>
      <trkpt lat="48.38949" lon="-4.65729">
        <ele>97.4</ele>
        <time>2020-06-08T18:54:21Z</time>
      </trkpt>
      <trkpt lat="48.3895" lon="-4.65735">
        <ele>97.6</ele>
        <time>2020-06-08T18:54:22Z</time>
      </trkpt>
      <trkpt lat="48.38951" lon="-4.6574">
        <ele>97.8</ele>
        <time>2020-06-08T18:54:23Z</time>
      </trkpt>
      <trkpt lat="48.38952" lon="-4.65745">
        <ele>97.9</ele>
        <time>2020-06-08T18:54:24Z</time>
      </trkpt>
      <trkpt lat="48.38953" lon="-4.65749">
        <ele>98</ele>
        <time>2020-06-08T18:54:25Z</time>
      </trkpt>
      <trkpt lat="48.38954" lon="-4.65754">
        <ele>98.2</ele>
        <time>2020-06-08T18:54:26Z</time>
      </trkpt>
      <trkpt lat="48.38956" lon="-4.65759">
        <ele>98.4</ele>
        <time>2020-06-08T18:54:27Z</time>
      </trkpt>
      <trkpt lat="48.38957" lon="-4.65766">
        <ele>98.6</ele>
        <time>2020-06-08T18:54:28Z</time>
      </trkpt>
      <trkpt lat="48.38958" lon="-4.65768">
        <ele>98.6</ele>
        <time>2020-06-08T18:54:29Z</time>
      </trkpt>
      <trkpt lat="48.3896" lon="-4.65774">
        <ele>98.8</ele>
        <time>2020-06-08T18:54:30Z</time>
      </trkpt>
      <trkpt lat="48.38961" lon="-4.6578">
        <ele>98.9</ele>
        <time>2020-06-08T18:54:31Z</time>
      </trkpt>
      <trkpt lat="48.38961" lon="-4.65787">
        <ele>99.1</ele>
        <time>2020-06-08T18:54:32Z</time>
      </trkpt>
      <trkpt lat="48.38963" lon="-4.65793">
        <ele>99.2</ele>
        <time>2020-06-08T18:54:33Z</time>
      </trkpt>
      <trkpt lat="48.38963" lon="-4.65799">
        <ele>99.3</ele>
        <time>2020-06-08T18:54:34Z</time>
      </trkpt>
      <trkpt lat="48.38964" lon="-4.65806">
        <ele>99.4</ele>
        <time>2020-06-08T18:54:35Z</time>
      </trkpt>
      <trkpt lat="48.38965" lon="-4.65812">
        <ele>99.6</ele>
        <time>2020-06-08T18:54:36Z</time>
      </trkpt>
      <trkpt lat="48.38966" lon="-4.65817">
        <ele>99.6</ele>
        <time>2020-06-08T18:54:37Z</time>
      </trkpt>
      <trkpt lat="48.38966" lon="-4.65823">
        <ele>99.7</ele>
        <time>2020-06-08T18:54:38Z</time>
      </trkpt>
      <trkpt lat="48.38967" lon="-4.65829">
        <ele>99.8</ele>
        <time>2020-06-08T18:54:39Z</time>
      </trkpt>
      <trkpt lat="48.38967" lon="-4.65833">
        <ele>99.9</ele>
        <time>2020-06-08T18:54:40Z</time>
      </trkpt>
      <trkpt lat="48.38967" lon="-4.65839">
        <ele>100</ele>
        <time>2020-06-08T18:54:41Z</time>
      </trkpt>
      <trkpt lat="48.38968" lon="-4.65845">
        <ele>100</ele>
        <time>2020-06-08T18:54:42Z</time>
      </trkpt>
      <trkpt lat="48.38967" lon="-4.6585">
        <ele>100.1</ele>
        <time>2020-06-08T18:54:43Z</time>
      </trkpt>
      <trkpt lat="48.38967" lon="-4.65856">
        <ele>100.2</ele>
        <time>2020-06-08T18:54:44Z</time>
      </trkpt>
      <trkpt lat="48.38967" lon="-4.65863">
        <ele>100.3</ele>
        <time>2020-06-08T18:54:45Z</time>
      </trkpt>
      <trkpt lat="48.38967" lon="-4.65871">
        <ele>100.4</ele>
        <time>2020-06-08T18:54:46Z</time>
      </trkpt>
      <trkpt lat="48.38967" lon="-4.65877">
        <ele>100.4</ele>
        <time>2020-06-08T18:54:47Z</time>
      </trkpt>
      <trkpt lat="48.38968" lon="-4.65884">
        <ele>100.5</ele>
        <time>2020-06-08T18:54:48Z</time>
      </trkpt>
      <trkpt lat="48.38968" lon="-4.6589">
        <ele>100.5</ele>
        <time>2020-06-08T18:54:49Z</time>
      </trkpt>
      <trkpt lat="48.38967" lon="-4.65896">
        <ele>100.6</ele>
        <time>2020-06-08T18:54:50Z</time>
      </trkpt>
      <trkpt lat="48.38967" lon="-4.65902">
        <ele>100.6</ele>
        <time>2020-06-08T18:54:51Z</time>
      </trkpt>
      <trkpt lat="48.38967" lon="-4.65906">
        <ele>100.6</ele>
        <time>2020-06-08T18:54:52Z</time>
      </trkpt>
      <trkpt lat="48.38967" lon="-4.65913">
        <ele>100.6</ele>
        <time>2020-06-08T18:54:53Z</time>
      </trkpt>
      <trkpt lat="48.38968" lon="-4.6592">
        <ele>100.6</ele>
        <time>2020-06-08T18:54:54Z</time>
      </trkpt>
      <trkpt lat="48.38967" lon="-4.65925">
        <ele>100.6</ele>
        <time>2020-06-08T18:54:55Z</time>
      </trkpt>
      <trkpt lat="48.38968" lon="-4.65934">
        <ele>100.6</ele>
        <time>2020-06-08T18:54:56Z</time>
      </trkpt>
      <trkpt lat="48.38969" lon="-4.6594">
        <ele>100.6</ele>
        <time>2020-06-08T18:54:57Z</time>
      </trkpt>
      <trkpt lat="48.38969" lon="-4.65945">
        <ele>100.6</ele>
        <time>2020-06-08T18:54:58Z</time>
      </trkpt>
      <trkpt lat="48.38971" lon="-4.65954">
        <ele>100.5</ele>
        <time>2020-06-08T18:54:59Z</time>
      </trkpt>
      <trkpt lat="48.38972" lon="-4.65959">
        <ele>100.5</ele>
        <time>2020-06-08T18:55:00Z</time>
      </trkpt>
      <trkpt lat="48.38975" lon="-4.65962">
        <ele>100.5</ele>
        <time>2020-06-08T18:55:01Z</time>
      </trkpt>
      <trkpt lat="48.38976" lon="-4.65969">
        <ele>100.5</ele>
        <time>2020-06-08T18:55:02Z</time>
      </trkpt>
      <trkpt lat="48.38977" lon="-4.65977">
        <ele>100.5</ele>
        <time>2020-06-08T18:55:03Z</time>
      </trkpt>
      <trkpt lat="48.38979" lon="-4.65985">
        <ele>100.4</ele>
        <time>2020-06-08T18:55:04Z</time>
      </trkpt>
      <trkpt lat="48.3898" lon="-4.65991">
        <ele>100.4</ele>
        <time>2020-06-08T18:55:05Z</time>
      </trkpt>
      <trkpt lat="48.38982" lon="-4.65998">
        <ele>100.4</ele>
        <time>2020-06-08T18:55:06Z</time>
      </trkpt>
      <trkpt lat="48.38983" lon="-4.66004">
        <ele>100.3</ele>
        <time>2020-06-08T18:55:07Z</time>
      </trkpt>
      <trkpt lat="48.38984" lon="-4.6601">
        <ele>100.3</ele>
        <time>2020-06-08T18:55:08Z</time>
      </trkpt>
      <trkpt lat="48.38984" lon="-4.66015">
        <ele>100.3</ele>
        <time>2020-06-08T18:55:09Z</time>
      </trkpt>
      <trkpt lat="48.38986" lon="-4.66022">
        <ele>100.2</ele>
        <time>2020-06-08T18:55:10Z</time>
      </trkpt>
      <trkpt lat="48.38989" lon="-4.66028">
        <ele>100.2</ele>
        <time>2020-06-08T18:55:11Z</time>
      </trkpt>
      <trkpt lat="48.3899" lon="-4.66033">
        <ele>100.1</ele>
        <time>2020-06-08T18:55:12Z</time>
      </trkpt>
      <trkpt lat="48.38992" lon="-4.66038">
        <ele>100.1</ele>
        <time>2020-06-08T18:55:13Z</time>
      </trkpt>
      <trkpt lat="48.38994" lon="-4.66043">
        <ele>100.1</ele>
        <time>2020-06-08T18:55:14Z</time>
      </trkpt>
      <trkpt lat="48.38997" lon="-4.66048">
        <ele>100</ele>
        <time>2020-06-08T18:55:15Z</time>
      </trkpt>
      <trkpt lat="48.39" lon="-4.66053">
        <ele>100</ele>
        <time>2020-06-08T18:55:16Z</time>
      </trkpt>
      <trkpt lat="48.39002" lon="-4.66058">
        <ele>100</ele>
        <time>2020-06-08T18:55:17Z</time>
      </trkpt>
      <trkpt lat="48.39005" lon="-4.66063">
        <ele>99.9</ele>
        <time>2020-06-08T18:55:18Z</time>
      </trkpt>
      <trkpt lat="48.39007" lon="-4.6607">
        <ele>99.9</ele>
        <time>2020-06-08T18:55:19Z</time>
      </trkpt>
      <trkpt lat="48.39008" lon="-4.66075">
        <ele>99.8</ele>
        <time>2020-06-08T18:55:20Z</time>
      </trkpt>
      <trkpt lat="48.3901" lon="-4.66079">
        <ele>99.8</ele>
        <time>2020-06-08T18:55:21Z</time>
      </trkpt>
      <trkpt lat="48.39012" lon="-4.66083">
        <ele>99.8</ele>
        <time>2020-06-08T18:55:22Z</time>
      </trkpt>
      <trkpt lat="48.39014" lon="-4.66087">
        <ele>99.7</ele>
        <time>2020-06-08T18:55:23Z</time>
      </trkpt>
      <trkpt lat="48.39016" lon="-4.6609">
        <ele>99.7</ele>
        <time>2020-06-08T18:55:24Z</time>
      </trkpt>
      <trkpt lat="48.39018" lon="-4.66095">
        <ele>99.7</ele>
        <time>2020-06-08T18:55:25Z</time>
      </trkpt>
      <trkpt lat="48.39019" lon="-4.66097">
        <ele>99.7</ele>
        <time>2020-06-08T18:55:26Z</time>
      </trkpt>
      <trkpt lat="48.39022" lon="-4.66101">
        <ele>99.7</ele>
        <time>2020-06-08T18:55:27Z</time>
      </trkpt>
      <trkpt lat="48.39024" lon="-4.66105">
        <ele>99.6</ele>
        <time>2020-06-08T18:55:28Z</time>
      </trkpt>
      <trkpt lat="48.39025" lon="-4.66106">
        <ele>99.6</ele>
        <time>2020-06-08T18:55:29Z</time>
      </trkpt>
      <trkpt lat="48.39027" lon="-4.6611">
        <ele>99.6</ele>
        <time>2020-06-08T18:55:30Z</time>
      </trkpt>
      <trkpt lat="48.39028" lon="-4.66112">
        <ele>99.6</ele>
        <time>2020-06-08T18:55:31Z</time>
      </trkpt>
      <trkpt lat="48.39027" lon="-4.66117">
        <ele>99.5</ele>
        <time>2020-06-08T18:55:32Z</time>
      </trkpt>
      <trkpt lat="48.39026" lon="-4.66118">
        <ele>99.5</ele>
        <time>2020-06-08T18:55:33Z</time>
      </trkpt>
      <trkpt lat="48.39026" lon="-4.66121">
        <ele>99.5</ele>
        <time>2020-06-08T18:55:34Z</time>
      </trkpt>
      <trkpt lat="48.39025" lon="-4.66123">
        <ele>99.5</ele>
        <time>2020-06-08T18:55:35Z</time>
      </trkpt>
      <trkpt lat="48.39024" lon="-4.66125">
        <ele>99.5</ele>
        <time>2020-06-08T18:55:36Z</time>
      </trkpt>
      <trkpt lat="48.39024" lon="-4.66127">
        <ele>99.5</ele>
        <time>2020-06-08T18:55:37Z</time>
      </trkpt>
      <trkpt lat="48.39025" lon="-4.66128">
        <ele>99.5</ele>
        <time>2020-06-08T18:55:38Z</time>
      </trkpt>
      <trkpt lat="48.39025" lon="-4.66129">
        <ele>99.5</ele>
        <time>2020-06-08T18:55:39Z</time>
      </trkpt>
      <trkpt lat="48.39025" lon="-4.66131">
        <ele>99.5</ele>
        <time>2020-06-08T18:55:40Z</time>
      </trkpt>
      <trkpt lat="48.39025" lon="-4.66132">
        <ele>99.5</ele>
        <time>2020-06-08T18:55:41Z</time>
      </trkpt>
      <trkpt lat="48.39026" lon="-4.66133">
        <ele>99.5</ele>
        <time>2020-06-08T18:55:42Z</time>
      </trkpt>
      <trkpt lat="48.39026" lon="-4.66135">
        <ele>99.5</ele>
        <time>2020-06-08T18:55:43Z</time>
      </trkpt>
      <trkpt lat="48.39026" lon="-4.66136">
        <ele>99.5</ele>
        <time>2020-06-08T18:55:44Z</time>
      </trkpt>
      <trkpt lat="48.39026" lon="-4.66137">
        <ele>99.5</ele>
        <time>2020-06-08T18:55:45Z</time>
      </trkpt>
      <trkpt lat="48.39026" lon="-4.66139">
        <ele>99.4</ele>
        <time>2020-06-08T18:55:46Z</time>
      </trkpt>
      <trkpt lat="48.39027" lon="-4.6614">
        <ele>99.4</ele>
        <time>2020-06-08T18:55:47Z</time>
      </trkpt>
      <trkpt lat="48.39027" lon="-4.66141">
        <ele>99.4</ele>
        <time>2020-06-08T18:56:10Z</time>
      </trkpt>
      <trkpt lat="48.39027" lon="-4.66142">
        <ele>99.4</ele>
        <time>2020-06-08T18:56:11Z</time>
      </trkpt>
      <trkpt lat="48.39028" lon="-4.6615">
        <ele>99.4</ele>
        <time>2020-06-08T18:56:12Z</time>
      </trkpt>
      <trkpt lat="48.3903" lon="-4.66159">
        <ele>99.5</ele>
        <time>2020-06-08T18:56:13Z</time>
      </trkpt>
      <trkpt lat="48.39031" lon="-4.66168">
        <ele>99.5</ele>
        <time>2020-06-08T18:56:14Z</time>
      </trkpt>
      <trkpt lat="48.39031" lon="-4.66177">
        <ele>99.5</ele>
        <time>2020-06-08T18:56:15Z</time>
      </trkpt>
      <trkpt lat="48.39031" lon="-4.66186">
        <ele>99.5</ele>
        <time>2020-06-08T18:56:16Z</time>
      </trkpt>
      <trkpt lat="48.39032" lon="-4.66197">
        <ele>99.5</ele>
        <time>2020-06-08T18:56:17Z</time>
      </trkpt>
      <trkpt lat="48.39033" lon="-4.66207">
        <ele>99.5</ele>
        <time>2020-06-08T18:56:18Z</time>
      </trkpt>
      <trkpt lat="48.39035" lon="-4.66213">
        <ele>99.5</ele>
        <time>2020-06-08T18:56:19Z</time>
      </trkpt>
      <trkpt lat="48.39036" lon="-4.66221">
        <ele>99.4</ele>
        <time>2020-06-08T18:56:20Z</time>
      </trkpt>
      <trkpt lat="48.39038" lon="-4.66229">
        <ele>99.3</ele>
        <time>2020-06-08T18:56:21Z</time>
      </trkpt>
      <trkpt lat="48.39039" lon="-4.66237">
        <ele>99.3</ele>
        <time>2020-06-08T18:56:22Z</time>
      </trkpt>
      <trkpt lat="48.39041" lon="-4.66247">
        <ele>99.2</ele>
        <time>2020-06-08T18:56:23Z</time>
      </trkpt>
      <trkpt lat="48.39042" lon="-4.66256">
        <ele>99.1</ele>
        <time>2020-06-08T18:56:24Z</time>
      </trkpt>
      <trkpt lat="48.39044" lon="-4.66266">
        <ele>99</ele>
        <time>2020-06-08T18:56:25Z</time>
      </trkpt>
      <trkpt lat="48.39044" lon="-4.66275">
        <ele>98.9</ele>
        <time>2020-06-08T18:56:26Z</time>
      </trkpt>
      <trkpt lat="48.39046" lon="-4.66286">
        <ele>98.8</ele>
        <time>2020-06-08T18:56:27Z</time>
      </trkpt>
      <trkpt lat="48.39047" lon="-4.66295">
        <ele>98.7</ele>
        <time>2020-06-08T18:56:28Z</time>
      </trkpt>
      <trkpt lat="48.39049" lon="-4.66303">
        <ele>98.6</ele>
        <time>2020-06-08T18:56:29Z</time>
      </trkpt>
      <trkpt lat="48.39051" lon="-4.66311">
        <ele>98.6</ele>
        <time>2020-06-08T18:56:30Z</time>
      </trkpt>
      <trkpt lat="48.39052" lon="-4.6632">
        <ele>98.5</ele>
        <time>2020-06-08T18:56:31Z</time>
      </trkpt>
      <trkpt lat="48.39054" lon="-4.66327">
        <ele>98.5</ele>
        <time>2020-06-08T18:56:32Z</time>
      </trkpt>
      <trkpt lat="48.39055" lon="-4.66336">
        <ele>98.4</ele>
        <time>2020-06-08T18:56:33Z</time>
      </trkpt>
      <trkpt lat="48.39057" lon="-4.66346">
        <ele>98.4</ele>
        <time>2020-06-08T18:56:34Z</time>
      </trkpt>
      <trkpt lat="48.39058" lon="-4.66355">
        <ele>98.3</ele>
        <time>2020-06-08T18:56:35Z</time>
      </trkpt>
      <trkpt lat="48.39059" lon="-4.66364">
        <ele>98.3</ele>
        <time>2020-06-08T18:56:36Z</time>
      </trkpt>
      <trkpt lat="48.3906" lon="-4.66371">
        <ele>98.2</ele>
        <time>2020-06-08T18:56:37Z</time>
      </trkpt>
      <trkpt lat="48.39061" lon="-4.66379">
        <ele>98.2</ele>
        <time>2020-06-08T18:56:38Z</time>
      </trkpt>
      <trkpt lat="48.39064" lon="-4.6639">
        <ele>98.2</ele>
        <time>2020-06-08T18:56:39Z</time>
      </trkpt>
      <trkpt lat="48.39065" lon="-4.66398">
        <ele>98.1</ele>
        <time>2020-06-08T18:56:40Z</time>
      </trkpt>
      <trkpt lat="48.39067" lon="-4.66407">
        <ele>98.1</ele>
        <time>2020-06-08T18:56:41Z</time>
      </trkpt>
      <trkpt lat="48.39068" lon="-4.66415">
        <ele>98</ele>
        <time>2020-06-08T18:56:42Z</time>
      </trkpt>
      <trkpt lat="48.3907" lon="-4.66426">
        <ele>98</ele>
        <time>2020-06-08T18:56:43Z</time>
      </trkpt>
      <trkpt lat="48.39071" lon="-4.66431">
        <ele>97.9</ele>
        <time>2020-06-08T18:56:44Z</time>
      </trkpt>
      <trkpt lat="48.39073" lon="-4.6644">
        <ele>97.9</ele>
        <time>2020-06-08T18:56:45Z</time>
      </trkpt>
      <trkpt lat="48.39074" lon="-4.66449">
        <ele>97.9</ele>
        <time>2020-06-08T18:56:46Z</time>
      </trkpt>
      <trkpt lat="48.39076" lon="-4.66458">
        <ele>97.8</ele>
        <time>2020-06-08T18:56:47Z</time>
      </trkpt>
      <trkpt lat="48.39076" lon="-4.66466">
        <ele>97.8</ele>
        <time>2020-06-08T18:56:48Z</time>
      </trkpt>
      <trkpt lat="48.39078" lon="-4.66474">
        <ele>97.8</ele>
        <time>2020-06-08T18:56:49Z</time>
      </trkpt>
      <trkpt lat="48.39079" lon="-4.66482">
        <ele>97.7</ele>
        <time>2020-06-08T18:56:50Z</time>
      </trkpt>
      <trkpt lat="48.39081" lon="-4.66491">
        <ele>97.7</ele>
        <time>2020-06-08T18:56:51Z</time>
      </trkpt>
      <trkpt lat="48.39083" lon="-4.665">
        <ele>97.7</ele>
        <time>2020-06-08T18:56:52Z</time>
      </trkpt>
      <trkpt lat="48.39084" lon="-4.66508">
        <ele>97.6</ele>
        <time>2020-06-08T18:56:53Z</time>
      </trkpt>
      <trkpt lat="48.39086" lon="-4.66516">
        <ele>97.6</ele>
        <time>2020-06-08T18:56:54Z</time>
      </trkpt>
      <trkpt lat="48.39087" lon="-4.66525">
        <ele>97.6</ele>
        <time>2020-06-08T18:56:55Z</time>
      </trkpt>
      <trkpt lat="48.39088" lon="-4.66534">
        <ele>97.6</ele>
        <time>2020-06-08T18:56:56Z</time>
      </trkpt>
      <trkpt lat="48.39089" lon="-4.66543">
        <ele>97.6</ele>
        <time>2020-06-08T18:56:57Z</time>
      </trkpt>
      <trkpt lat="48.39091" lon="-4.66554">
        <ele>97.6</ele>
        <time>2020-06-08T18:56:58Z</time>
      </trkpt>
      <trkpt lat="48.39092" lon="-4.66563">
        <ele>97.5</ele>
        <time>2020-06-08T18:56:59Z</time>
      </trkpt>
      <trkpt lat="48.39093" lon="-4.66572">
        <ele>97.5</ele>
        <time>2020-06-08T18:57:00Z</time>
      </trkpt>
      <trkpt lat="48.39094" lon="-4.66581">
        <ele>97.4</ele>
        <time>2020-06-08T18:57:01Z</time>
      </trkpt>
      <trkpt lat="48.39095" lon="-4.6659">
        <ele>97.4</ele>
        <time>2020-06-08T18:57:02Z</time>
      </trkpt>
      <trkpt lat="48.39095" lon="-4.66599">
        <ele>97.3</ele>
        <time>2020-06-08T18:57:03Z</time>
      </trkpt>
      <trkpt lat="48.39097" lon="-4.66608">
        <ele>97.3</ele>
        <time>2020-06-08T18:57:04Z</time>
      </trkpt>
      <trkpt lat="48.39098" lon="-4.66617">
        <ele>97.3</ele>
        <time>2020-06-08T18:57:05Z</time>
      </trkpt>
      <trkpt lat="48.39099" lon="-4.66624">
        <ele>97.2</ele>
        <time>2020-06-08T18:57:06Z</time>
      </trkpt>
      <trkpt lat="48.39101" lon="-4.66633">
        <ele>97.2</ele>
        <time>2020-06-08T18:57:07Z</time>
      </trkpt>
      <trkpt lat="48.39102" lon="-4.66642">
        <ele>97.2</ele>
        <time>2020-06-08T18:57:08Z</time>
      </trkpt>
      <trkpt lat="48.39102" lon="-4.66649">
        <ele>97.1</ele>
        <time>2020-06-08T18:57:09Z</time>
      </trkpt>
      <trkpt lat="48.39104" lon="-4.6666">
        <ele>97.1</ele>
        <time>2020-06-08T18:57:10Z</time>
      </trkpt>
      <trkpt lat="48.39105" lon="-4.66669">
        <ele>97</ele>
        <time>2020-06-08T18:57:11Z</time>
      </trkpt>
      <trkpt lat="48.39105" lon="-4.66676">
        <ele>97</ele>
        <time>2020-06-08T18:57:12Z</time>
      </trkpt>
      <trkpt lat="48.39107" lon="-4.66687">
        <ele>96.9</ele>
        <time>2020-06-08T18:57:13Z</time>
      </trkpt>
      <trkpt lat="48.39107" lon="-4.66693">
        <ele>96.9</ele>
        <time>2020-06-08T18:57:14Z</time>
      </trkpt>
      <trkpt lat="48.39107" lon="-4.66702">
        <ele>96.9</ele>
        <time>2020-06-08T18:57:15Z</time>
      </trkpt>
      <trkpt lat="48.39108" lon="-4.66711">
        <ele>96.9</ele>
        <time>2020-06-08T18:57:16Z</time>
      </trkpt>
      <trkpt lat="48.39108" lon="-4.66721">
        <ele>96.8</ele>
        <time>2020-06-08T18:57:17Z</time>
      </trkpt>
      <trkpt lat="48.39107" lon="-4.66729">
        <ele>96.6</ele>
        <time>2020-06-08T18:57:18Z</time>
      </trkpt>
      <trkpt lat="48.39107" lon="-4.6674">
        <ele>96.4</ele>
        <time>2020-06-08T18:57:19Z</time>
      </trkpt>
      <trkpt lat="48.39105" lon="-4.6675">
        <ele>96.2</ele>
        <time>2020-06-08T18:57:20Z</time>
      </trkpt>
      <trkpt lat="48.39103" lon="-4.6676">
        <ele>96</ele>
        <time>2020-06-08T18:57:21Z</time>
      </trkpt>
      <trkpt lat="48.39102" lon="-4.66769">
        <ele>95.9</ele>
        <time>2020-06-08T18:57:22Z</time>
      </trkpt>
      <trkpt lat="48.39099" lon="-4.66775">
        <ele>95.8</ele>
        <time>2020-06-08T18:57:23Z</time>
      </trkpt>
      <trkpt lat="48.39098" lon="-4.66786">
        <ele>95.6</ele>
        <time>2020-06-08T18:57:24Z</time>
      </trkpt>
      <trkpt lat="48.39098" lon="-4.66795">
        <ele>95.5</ele>
        <time>2020-06-08T18:57:25Z</time>
      </trkpt>
      <trkpt lat="48.39097" lon="-4.66805">
        <ele>95.3</ele>
        <time>2020-06-08T18:57:26Z</time>
      </trkpt>
      <trkpt lat="48.39095" lon="-4.66814">
        <ele>95.2</ele>
        <time>2020-06-08T18:57:27Z</time>
      </trkpt>
      <trkpt lat="48.39093" lon="-4.66822">
        <ele>95.1</ele>
        <time>2020-06-08T18:57:28Z</time>
      </trkpt>
      <trkpt lat="48.39092" lon="-4.66831">
        <ele>95</ele>
        <time>2020-06-08T18:57:29Z</time>
      </trkpt>
      <trkpt lat="48.3909" lon="-4.6684">
        <ele>94.8</ele>
        <time>2020-06-08T18:57:30Z</time>
      </trkpt>
      <trkpt lat="48.39088" lon="-4.66851">
        <ele>94.7</ele>
        <time>2020-06-08T18:57:31Z</time>
      </trkpt>
      <trkpt lat="48.39087" lon="-4.6686">
        <ele>94.6</ele>
        <time>2020-06-08T18:57:32Z</time>
      </trkpt>
      <trkpt lat="48.39085" lon="-4.66871">
        <ele>94.4</ele>
        <time>2020-06-08T18:57:33Z</time>
      </trkpt>
      <trkpt lat="48.39084" lon="-4.66882">
        <ele>94.2</ele>
        <time>2020-06-08T18:57:34Z</time>
      </trkpt>
      <trkpt lat="48.39084" lon="-4.66894">
        <ele>94.1</ele>
        <time>2020-06-08T18:57:35Z</time>
      </trkpt>
      <trkpt lat="48.39083" lon="-4.66905">
        <ele>93.9</ele>
        <time>2020-06-08T18:57:36Z</time>
      </trkpt>
      <trkpt lat="48.39084" lon="-4.66914">
        <ele>93.8</ele>
        <time>2020-06-08T18:57:37Z</time>
      </trkpt>
      <trkpt lat="48.39084" lon="-4.66925">
        <ele>93.7</ele>
        <time>2020-06-08T18:57:38Z</time>
      </trkpt>
      <trkpt lat="48.39085" lon="-4.66935">
        <ele>93.6</ele>
        <time>2020-06-08T18:57:39Z</time>
      </trkpt>
      <trkpt lat="48.39086" lon="-4.66945">
        <ele>93.5</ele>
        <time>2020-06-08T18:57:40Z</time>
      </trkpt>
      <trkpt lat="48.39086" lon="-4.66955">
        <ele>93.4</ele>
        <time>2020-06-08T18:57:41Z</time>
      </trkpt>
      <trkpt lat="48.39087" lon="-4.66964">
        <ele>93.3</ele>
        <time>2020-06-08T18:57:42Z</time>
      </trkpt>
      <trkpt lat="48.39088" lon="-4.66974">
        <ele>93.3</ele>
        <time>2020-06-08T18:57:43Z</time>
      </trkpt>
      <trkpt lat="48.39088" lon="-4.66985">
        <ele>93.2</ele>
        <time>2020-06-08T18:57:44Z</time>
      </trkpt>
      <trkpt lat="48.39088" lon="-4.66995">
        <ele>93.2</ele>
        <time>2020-06-08T18:57:45Z</time>
      </trkpt>
      <trkpt lat="48.39088" lon="-4.67004">
        <ele>93.2</ele>
        <time>2020-06-08T18:57:46Z</time>
      </trkpt>
      <trkpt lat="48.39089" lon="-4.67016">
        <ele>93.2</ele>
        <time>2020-06-08T18:57:47Z</time>
      </trkpt>
      <trkpt lat="48.39089" lon="-4.67026">
        <ele>93.2</ele>
        <time>2020-06-08T18:57:48Z</time>
      </trkpt>
      <trkpt lat="48.39089" lon="-4.67035">
        <ele>93.2</ele>
        <time>2020-06-08T18:57:49Z</time>
      </trkpt>
      <trkpt lat="48.39091" lon="-4.67043">
        <ele>93.2</ele>
        <time>2020-06-08T18:57:50Z</time>
      </trkpt>
      <trkpt lat="48.39092" lon="-4.6705">
        <ele>93.2</ele>
        <time>2020-06-08T18:57:51Z</time>
      </trkpt>
      <trkpt lat="48.39093" lon="-4.67056">
        <ele>93.3</ele>
        <time>2020-06-08T18:57:52Z</time>
      </trkpt>
      <trkpt lat="48.39095" lon="-4.67063">
        <ele>93.3</ele>
        <time>2020-06-08T18:57:53Z</time>
      </trkpt>
      <trkpt lat="48.39096" lon="-4.6707">
        <ele>93.3</ele>
        <time>2020-06-08T18:57:54Z</time>
      </trkpt>
      <trkpt lat="48.39097" lon="-4.67077">
        <ele>93.2</ele>
        <time>2020-06-08T18:57:55Z</time>
      </trkpt>
      <trkpt lat="48.39098" lon="-4.67083">
        <ele>93.1</ele>
        <time>2020-06-08T18:57:56Z</time>
      </trkpt>
      <trkpt lat="48.39099" lon="-4.6709">
        <ele>92.9</ele>
        <time>2020-06-08T18:57:57Z</time>
      </trkpt>
      <trkpt lat="48.391" lon="-4.67097">
        <ele>92.7</ele>
        <time>2020-06-08T18:57:58Z</time>
      </trkpt>
      <trkpt lat="48.39102" lon="-4.67104">
        <ele>92.5</ele>
        <time>2020-06-08T18:57:59Z</time>
      </trkpt>
      <trkpt lat="48.39104" lon="-4.67111">
        <ele>92.4</ele>
        <time>2020-06-08T18:58:00Z</time>
      </trkpt>
      <trkpt lat="48.39107" lon="-4.67118">
        <ele>92.2</ele>
        <time>2020-06-08T18:58:01Z</time>
      </trkpt>
      <trkpt lat="48.39109" lon="-4.67125">
        <ele>92.1</ele>
        <time>2020-06-08T18:58:02Z</time>
      </trkpt>
      <trkpt lat="48.39112" lon="-4.67133">
        <ele>91.9</ele>
        <time>2020-06-08T18:58:03Z</time>
      </trkpt>
      <trkpt lat="48.39113" lon="-4.67141">
        <ele>91.8</ele>
        <time>2020-06-08T18:58:04Z</time>
      </trkpt>
      <trkpt lat="48.39115" lon="-4.67149">
        <ele>91.7</ele>
        <time>2020-06-08T18:58:05Z</time>
      </trkpt>
      <trkpt lat="48.39116" lon="-4.67157">
        <ele>91.7</ele>
        <time>2020-06-08T18:58:06Z</time>
      </trkpt>
      <trkpt lat="48.39114" lon="-4.67165">
        <ele>91.6</ele>
        <time>2020-06-08T18:58:07Z</time>
      </trkpt>
      <trkpt lat="48.39115" lon="-4.67173">
        <ele>91.5</ele>
        <time>2020-06-08T18:58:08Z</time>
      </trkpt>
      <trkpt lat="48.39115" lon="-4.67181">
        <ele>91.4</ele>
        <time>2020-06-08T18:58:09Z</time>
      </trkpt>
      <trkpt lat="48.39116" lon="-4.67188">
        <ele>91.3</ele>
        <time>2020-06-08T18:58:10Z</time>
      </trkpt>
      <trkpt lat="48.39116" lon="-4.67195">
        <ele>91.2</ele>
        <time>2020-06-08T18:58:11Z</time>
      </trkpt>
      <trkpt lat="48.39113" lon="-4.67201">
        <ele>91.2</ele>
        <time>2020-06-08T18:58:12Z</time>
      </trkpt>
      <trkpt lat="48.39112" lon="-4.67208">
        <ele>91.1</ele>
        <time>2020-06-08T18:58:13Z</time>
      </trkpt>
      <trkpt lat="48.39111" lon="-4.67215">
        <ele>91</ele>
        <time>2020-06-08T18:58:14Z</time>
      </trkpt>
      <trkpt lat="48.3911" lon="-4.67222">
        <ele>90.9</ele>
        <time>2020-06-08T18:58:15Z</time>
      </trkpt>
      <trkpt lat="48.39109" lon="-4.6723">
        <ele>90.8</ele>
        <time>2020-06-08T18:58:16Z</time>
      </trkpt>
      <trkpt lat="48.39108" lon="-4.67237">
        <ele>90.8</ele>
        <time>2020-06-08T18:58:17Z</time>
      </trkpt>
      <trkpt lat="48.39109" lon="-4.67245">
        <ele>90.7</ele>
        <time>2020-06-08T18:58:18Z</time>
      </trkpt>
      <trkpt lat="48.39108" lon="-4.67252">
        <ele>90.6</ele>
        <time>2020-06-08T18:58:19Z</time>
      </trkpt>
      <trkpt lat="48.39108" lon="-4.67259">
        <ele>90.6</ele>
        <time>2020-06-08T18:58:20Z</time>
      </trkpt>
      <trkpt lat="48.39108" lon="-4.67266">
        <ele>90.5</ele>
        <time>2020-06-08T18:58:21Z</time>
      </trkpt>
      <trkpt lat="48.39109" lon="-4.67273">
        <ele>90.4</ele>
        <time>2020-06-08T18:58:22Z</time>
      </trkpt>
      <trkpt lat="48.3911" lon="-4.6728">
        <ele>90.4</ele>
        <time>2020-06-08T18:58:23Z</time>
      </trkpt>
      <trkpt lat="48.39111" lon="-4.67287">
        <ele>90.3</ele>
        <time>2020-06-08T18:58:24Z</time>
      </trkpt>
      <trkpt lat="48.39112" lon="-4.67294">
        <ele>90.2</ele>
        <time>2020-06-08T18:58:25Z</time>
      </trkpt>
      <trkpt lat="48.39113" lon="-4.67301">
        <ele>90.2</ele>
        <time>2020-06-08T18:58:26Z</time>
      </trkpt>
      <trkpt lat="48.39113" lon="-4.67308">
        <ele>90.1</ele>
        <time>2020-06-08T18:58:27Z</time>
      </trkpt>
      <trkpt lat="48.39112" lon="-4.67315">
        <ele>90.1</ele>
        <time>2020-06-08T18:58:28Z</time>
      </trkpt>
      <trkpt lat="48.39112" lon="-4.67322">
        <ele>90</ele>
        <time>2020-06-08T18:58:29Z</time>
      </trkpt>
      <trkpt lat="48.39112" lon="-4.67329">
        <ele>90</ele>
        <time>2020-06-08T18:58:30Z</time>
      </trkpt>
      <trkpt lat="48.39112" lon="-4.67336">
        <ele>89.9</ele>
        <time>2020-06-08T18:58:31Z</time>
      </trkpt>
      <trkpt lat="48.39113" lon="-4.67344">
        <ele>89.9</ele>
        <time>2020-06-08T18:58:32Z</time>
      </trkpt>
      <trkpt lat="48.39114" lon="-4.67352">
        <ele>89.8</ele>
        <time>2020-06-08T18:58:33Z</time>
      </trkpt>
      <trkpt lat="48.39115" lon="-4.6736">
        <ele>89.8</ele>
        <time>2020-06-08T18:58:34Z</time>
      </trkpt>
      <trkpt lat="48.39114" lon="-4.67368">
        <ele>89.8</ele>
        <time>2020-06-08T18:58:35Z</time>
      </trkpt>
      <trkpt lat="48.39114" lon="-4.67376">
        <ele>89.8</ele>
        <time>2020-06-08T18:58:36Z</time>
      </trkpt>
      <trkpt lat="48.39115" lon="-4.67385">
        <ele>89.7</ele>
        <time>2020-06-08T18:58:37Z</time>
      </trkpt>
      <trkpt lat="48.39116" lon="-4.67393">
        <ele>89.7</ele>
        <time>2020-06-08T18:58:38Z</time>
      </trkpt>
      <trkpt lat="48.39117" lon="-4.67402">
        <ele>89.6</ele>
        <time>2020-06-08T18:58:39Z</time>
      </trkpt>
      <trkpt lat="48.39115" lon="-4.6741">
        <ele>89.5</ele>
        <time>2020-06-08T18:58:40Z</time>
      </trkpt>
      <trkpt lat="48.39112" lon="-4.67418">
        <ele>89.4</ele>
        <time>2020-06-08T18:58:41Z</time>
      </trkpt>
      <trkpt lat="48.39109" lon="-4.67426">
        <ele>89.3</ele>
        <time>2020-06-08T18:58:42Z</time>
      </trkpt>
      <trkpt lat="48.39107" lon="-4.67435">
        <ele>89.2</ele>
        <time>2020-06-08T18:58:43Z</time>
      </trkpt>
      <trkpt lat="48.39105" lon="-4.67443">
        <ele>89.2</ele>
        <time>2020-06-08T18:58:44Z</time>
      </trkpt>
      <trkpt lat="48.39103" lon="-4.67451">
        <ele>89.1</ele>
        <time>2020-06-08T18:58:45Z</time>
      </trkpt>
      <trkpt lat="48.39101" lon="-4.6746">
        <ele>89</ele>
        <time>2020-06-08T18:58:46Z</time>
      </trkpt>
      <trkpt lat="48.39099" lon="-4.67468">
        <ele>88.9</ele>
        <time>2020-06-08T18:58:47Z</time>
      </trkpt>
      <trkpt lat="48.39098" lon="-4.67478">
        <ele>88.9</ele>
        <time>2020-06-08T18:58:48Z</time>
      </trkpt>
      <trkpt lat="48.39096" lon="-4.67488">
        <ele>88.8</ele>
        <time>2020-06-08T18:58:49Z</time>
      </trkpt>
      <trkpt lat="48.39094" lon="-4.67497">
        <ele>88.7</ele>
        <time>2020-06-08T18:58:50Z</time>
      </trkpt>
      <trkpt lat="48.39092" lon="-4.67505">
        <ele>88.7</ele>
        <time>2020-06-08T18:58:51Z</time>
      </trkpt>
      <trkpt lat="48.3909" lon="-4.67513">
        <ele>88.6</ele>
        <time>2020-06-08T18:58:52Z</time>
      </trkpt>
      <trkpt lat="48.39088" lon="-4.67521">
        <ele>88.5</ele>
        <time>2020-06-08T18:58:53Z</time>
      </trkpt>
      <trkpt lat="48.39086" lon="-4.6753">
        <ele>88.4</ele>
        <time>2020-06-08T18:58:54Z</time>
      </trkpt>
      <trkpt lat="48.39084" lon="-4.67538">
        <ele>88.3</ele>
        <time>2020-06-08T18:58:55Z</time>
      </trkpt>
      <trkpt lat="48.39082" lon="-4.67546">
        <ele>88.2</ele>
        <time>2020-06-08T18:58:56Z</time>
      </trkpt>
      <trkpt lat="48.39079" lon="-4.67553">
        <ele>88.1</ele>
        <time>2020-06-08T18:58:57Z</time>
      </trkpt>
      <trkpt lat="48.39077" lon="-4.67562">
        <ele>88.1</ele>
        <time>2020-06-08T18:58:58Z</time>
      </trkpt>
      <trkpt lat="48.39076" lon="-4.67571">
        <ele>88</ele>
        <time>2020-06-08T18:58:59Z</time>
      </trkpt>
      <trkpt lat="48.39074" lon="-4.6758">
        <ele>88</ele>
        <time>2020-06-08T18:59:00Z</time>
      </trkpt>
      <trkpt lat="48.39072" lon="-4.67589">
        <ele>88</ele>
        <time>2020-06-08T18:59:01Z</time>
      </trkpt>
      <trkpt lat="48.3907" lon="-4.67597">
        <ele>87.9</ele>
        <time>2020-06-08T18:59:02Z</time>
      </trkpt>
      <trkpt lat="48.3907" lon="-4.67607">
        <ele>87.8</ele>
        <time>2020-06-08T18:59:03Z</time>
      </trkpt>
      <trkpt lat="48.3907" lon="-4.67617">
        <ele>87.7</ele>
        <time>2020-06-08T18:59:04Z</time>
      </trkpt>
      <trkpt lat="48.39073" lon="-4.67627">
        <ele>87.3</ele>
        <time>2020-06-08T18:59:05Z</time>
      </trkpt>
      <trkpt lat="48.39078" lon="-4.67634">
        <ele>87.1</ele>
        <time>2020-06-08T18:59:06Z</time>
      </trkpt>
      <trkpt lat="48.39084" lon="-4.6764">
        <ele>86.9</ele>
        <time>2020-06-08T18:59:07Z</time>
      </trkpt>
      <trkpt lat="48.3909" lon="-4.67646">
        <ele>86.7</ele>
        <time>2020-06-08T18:59:08Z</time>
      </trkpt>
      <trkpt lat="48.39096" lon="-4.67653">
        <ele>86.6</ele>
        <time>2020-06-08T18:59:09Z</time>
      </trkpt>
      <trkpt lat="48.39102" lon="-4.67659">
        <ele>86.4</ele>
        <time>2020-06-08T18:59:10Z</time>
      </trkpt>
      <trkpt lat="48.39107" lon="-4.67666">
        <ele>86.3</ele>
        <time>2020-06-08T18:59:11Z</time>
      </trkpt>
      <trkpt lat="48.39113" lon="-4.67672">
        <ele>86.1</ele>
        <time>2020-06-08T18:59:12Z</time>
      </trkpt>
      <trkpt lat="48.39119" lon="-4.67679">
        <ele>86</ele>
        <time>2020-06-08T18:59:13Z</time>
      </trkpt>
      <trkpt lat="48.39124" lon="-4.67687">
        <ele>85.9</ele>
        <time>2020-06-08T18:59:14Z</time>
      </trkpt>
      <trkpt lat="48.39129" lon="-4.67694">
        <ele>85.9</ele>
        <time>2020-06-08T18:59:15Z</time>
      </trkpt>
      <trkpt lat="48.39135" lon="-4.67701">
        <ele>85.8</ele>
        <time>2020-06-08T18:59:16Z</time>
      </trkpt>
      <trkpt lat="48.3914" lon="-4.67708">
        <ele>85.8</ele>
        <time>2020-06-08T18:59:17Z</time>
      </trkpt>
      <trkpt lat="48.39145" lon="-4.67715">
        <ele>85.7</ele>
        <time>2020-06-08T18:59:18Z</time>
      </trkpt>
      <trkpt lat="48.3915" lon="-4.67722">
        <ele>85.7</ele>
        <time>2020-06-08T18:59:19Z</time>
      </trkpt>
      <trkpt lat="48.39155" lon="-4.6773">
        <ele>85.7</ele>
        <time>2020-06-08T18:59:20Z</time>
      </trkpt>
      <trkpt lat="48.3916" lon="-4.67736">
        <ele>85.6</ele>
        <time>2020-06-08T18:59:21Z</time>
      </trkpt>
      <trkpt lat="48.39165" lon="-4.67743">
        <ele>85.6</ele>
        <time>2020-06-08T18:59:22Z</time>
      </trkpt>
      <trkpt lat="48.3917" lon="-4.6775">
        <ele>85.7</ele>
        <time>2020-06-08T18:59:23Z</time>
      </trkpt>
      <trkpt lat="48.39175" lon="-4.67756">
        <ele>85.7</ele>
        <time>2020-06-08T18:59:24Z</time>
      </trkpt>
      <trkpt lat="48.39179" lon="-4.67763">
        <ele>85.8</ele>
        <time>2020-06-08T18:59:25Z</time>
      </trkpt>
      <trkpt lat="48.39183" lon="-4.67769">
        <ele>85.9</ele>
        <time>2020-06-08T18:59:26Z</time>
      </trkpt>
      <trkpt lat="48.39185" lon="-4.67775">
        <ele>86</ele>
        <time>2020-06-08T18:59:27Z</time>
      </trkpt>
      <trkpt lat="48.39187" lon="-4.6778">
        <ele>86</ele>
        <time>2020-06-08T18:59:28Z</time>
      </trkpt>
      <trkpt lat="48.39187" lon="-4.67786">
        <ele>86</ele>
        <time>2020-06-08T18:59:29Z</time>
      </trkpt>
      <trkpt lat="48.39186" lon="-4.67793">
        <ele>86</ele>
        <time>2020-06-08T18:59:30Z</time>
      </trkpt>
      <trkpt lat="48.39183" lon="-4.67797">
        <ele>85.9</ele>
        <time>2020-06-08T18:59:31Z</time>
      </trkpt>
      <trkpt lat="48.3918" lon="-4.67802">
        <ele>85.9</ele>
        <time>2020-06-08T18:59:32Z</time>
      </trkpt>
      <trkpt lat="48.39176" lon="-4.67806">
        <ele>85.9</ele>
        <time>2020-06-08T18:59:33Z</time>
      </trkpt>
      <trkpt lat="48.39172" lon="-4.67811">
        <ele>85.9</ele>
        <time>2020-06-08T18:59:34Z</time>
      </trkpt>
      <trkpt lat="48.39169" lon="-4.67814">
        <ele>85.9</ele>
        <time>2020-06-08T18:59:35Z</time>
      </trkpt>
      <trkpt lat="48.39165" lon="-4.67818">
        <ele>86</ele>
        <time>2020-06-08T18:59:36Z</time>
      </trkpt>
      <trkpt lat="48.39161" lon="-4.67822">
        <ele>86</ele>
        <time>2020-06-08T18:59:37Z</time>
      </trkpt>
      <trkpt lat="48.39157" lon="-4.67826">
        <ele>86</ele>
        <time>2020-06-08T18:59:38Z</time>
      </trkpt>
      <trkpt lat="48.39154" lon="-4.67832">
        <ele>86</ele>
        <time>2020-06-08T18:59:39Z</time>
      </trkpt>
      <trkpt lat="48.3915" lon="-4.67836">
        <ele>86.1</ele>
        <time>2020-06-08T18:59:40Z</time>
      </trkpt>
      <trkpt lat="48.39146" lon="-4.67841">
        <ele>86.2</ele>
        <time>2020-06-08T18:59:41Z</time>
      </trkpt>
      <trkpt lat="48.39142" lon="-4.67844">
        <ele>86.2</ele>
        <time>2020-06-08T18:59:42Z</time>
      </trkpt>
      <trkpt lat="48.39138" lon="-4.6785">
        <ele>86.3</ele>
        <time>2020-06-08T18:59:43Z</time>
      </trkpt>
      <trkpt lat="48.39134" lon="-4.67854">
        <ele>86.4</ele>
        <time>2020-06-08T18:59:44Z</time>
      </trkpt>
      <trkpt lat="48.3913" lon="-4.67858">
        <ele>86.5</ele>
        <time>2020-06-08T18:59:45Z</time>
      </trkpt>
      <trkpt lat="48.39127" lon="-4.67864">
        <ele>86.5</ele>
        <time>2020-06-08T18:59:46Z</time>
      </trkpt>
      <trkpt lat="48.39124" lon="-4.6787">
        <ele>86.6</ele>
        <time>2020-06-08T18:59:47Z</time>
      </trkpt>
      <trkpt lat="48.39121" lon="-4.67876">
        <ele>86.7</ele>
        <time>2020-06-08T18:59:48Z</time>
      </trkpt>
      <trkpt lat="48.39118" lon="-4.67881">
        <ele>86.7</ele>
        <time>2020-06-08T18:59:49Z</time>
      </trkpt>
      <trkpt lat="48.39115" lon="-4.67887">
        <ele>86.8</ele>
        <time>2020-06-08T18:59:50Z</time>
      </trkpt>
      <trkpt lat="48.39112" lon="-4.67893">
        <ele>86.8</ele>
        <time>2020-06-08T18:59:51Z</time>
      </trkpt>
      <trkpt lat="48.39109" lon="-4.67899">
        <ele>86.9</ele>
        <time>2020-06-08T18:59:52Z</time>
      </trkpt>
      <trkpt lat="48.39106" lon="-4.67906">
        <ele>86.9</ele>
        <time>2020-06-08T18:59:53Z</time>
      </trkpt>
      <trkpt lat="48.39102" lon="-4.67912">
        <ele>87</ele>
        <time>2020-06-08T18:59:54Z</time>
      </trkpt>
      <trkpt lat="48.39099" lon="-4.67918">
        <ele>87.1</ele>
        <time>2020-06-08T18:59:55Z</time>
      </trkpt>
      <trkpt lat="48.39095" lon="-4.67924">
        <ele>87.2</ele>
        <time>2020-06-08T18:59:56Z</time>
      </trkpt>
      <trkpt lat="48.39091" lon="-4.67929">
        <ele>87.2</ele>
        <time>2020-06-08T18:59:57Z</time>
      </trkpt>
      <trkpt lat="48.39088" lon="-4.67936">
        <ele>87.3</ele>
        <time>2020-06-08T18:59:58Z</time>
      </trkpt>
      <trkpt lat="48.39085" lon="-4.67942">
        <ele>87.4</ele>
        <time>2020-06-08T18:59:59Z</time>
      </trkpt>
      <trkpt lat="48.39082" lon="-4.67949">
        <ele>87.4</ele>
        <time>2020-06-08T19:00:00Z</time>
      </trkpt>
      <trkpt lat="48.3908" lon="-4.67956">
        <ele>87.4</ele>
        <time>2020-06-08T19:00:01Z</time>
      </trkpt>
      <trkpt lat="48.39076" lon="-4.67963">
        <ele>87.3</ele>
        <time>2020-06-08T19:00:02Z</time>
      </trkpt>
      <trkpt lat="48.39073" lon="-4.67969">
        <ele>87.3</ele>
        <time>2020-06-08T19:00:03Z</time>
      </trkpt>
      <trkpt lat="48.3907" lon="-4.67977">
        <ele>87.3</ele>
        <time>2020-06-08T19:00:04Z</time>
      </trkpt>
      <trkpt lat="48.39067" lon="-4.67984">
        <ele>87.4</ele>
        <time>2020-06-08T19:00:05Z</time>
      </trkpt>
      <trkpt lat="48.39064" lon="-4.67991">
        <ele>87.4</ele>
        <time>2020-06-08T19:00:06Z</time>
      </trkpt>
      <trkpt lat="48.39061" lon="-4.67998">
        <ele>87.5</ele>
        <time>2020-06-08T19:00:07Z</time>
      </trkpt>
      <trkpt lat="48.39058" lon="-4.68006">
        <ele>87.5</ele>
        <time>2020-06-08T19:00:08Z</time>
      </trkpt>
      <trkpt lat="48.39055" lon="-4.68014">
        <ele>87.5</ele>
        <time>2020-06-08T19:00:09Z</time>
      </trkpt>
      <trkpt lat="48.39052" lon="-4.68022">
        <ele>87.6</ele>
        <time>2020-06-08T19:00:10Z</time>
      </trkpt>
      <trkpt lat="48.39048" lon="-4.68029">
        <ele>87.6</ele>
        <time>2020-06-08T19:00:11Z</time>
      </trkpt>
      <trkpt lat="48.39044" lon="-4.68036">
        <ele>87.6</ele>
        <time>2020-06-08T19:00:12Z</time>
      </trkpt>
      <trkpt lat="48.3904" lon="-4.68043">
        <ele>87.6</ele>
        <time>2020-06-08T19:00:13Z</time>
      </trkpt>
      <trkpt lat="48.39036" lon="-4.6805">
        <ele>87.6</ele>
        <time>2020-06-08T19:00:14Z</time>
      </trkpt>
      <trkpt lat="48.39032" lon="-4.68057">
        <ele>87.6</ele>
        <time>2020-06-08T19:00:15Z</time>
      </trkpt>
      <trkpt lat="48.39028" lon="-4.68065">
        <ele>87.6</ele>
        <time>2020-06-08T19:00:16Z</time>
      </trkpt>
      <trkpt lat="48.39024" lon="-4.68073">
        <ele>87.6</ele>
        <time>2020-06-08T19:00:17Z</time>
      </trkpt>
      <trkpt lat="48.39019" lon="-4.68081">
        <ele>87.6</ele>
        <time>2020-06-08T19:00:18Z</time>
      </trkpt>
      <trkpt lat="48.39015" lon="-4.68089">
        <ele>87.6</ele>
        <time>2020-06-08T19:00:19Z</time>
      </trkpt>
      <trkpt lat="48.39011" lon="-4.68099">
        <ele>87.6</ele>
        <time>2020-06-08T19:00:20Z</time>
      </trkpt>
      <trkpt lat="48.39007" lon="-4.68108">
        <ele>87.6</ele>
        <time>2020-06-08T19:00:21Z</time>
      </trkpt>
      <trkpt lat="48.39004" lon="-4.68117">
        <ele>87.7</ele>
        <time>2020-06-08T19:00:22Z</time>
      </trkpt>
      <trkpt lat="48.39" lon="-4.68125">
        <ele>87.7</ele>
        <time>2020-06-08T19:00:23Z</time>
      </trkpt>
      <trkpt lat="48.38996" lon="-4.68134">
        <ele>87.7</ele>
        <time>2020-06-08T19:00:24Z</time>
      </trkpt>
      <trkpt lat="48.38992" lon="-4.68144">
        <ele>87.8</ele>
        <time>2020-06-08T19:00:25Z</time>
      </trkpt>
      <trkpt lat="48.3899" lon="-4.68154">
        <ele>87.8</ele>
        <time>2020-06-08T19:00:26Z</time>
      </trkpt>
      <trkpt lat="48.38987" lon="-4.68163">
        <ele>87.8</ele>
        <time>2020-06-08T19:00:27Z</time>
      </trkpt>
      <trkpt lat="48.38983" lon="-4.68171">
        <ele>87.8</ele>
        <time>2020-06-08T19:00:28Z</time>
      </trkpt>
      <trkpt lat="48.3898" lon="-4.68181">
        <ele>87.7</ele>
        <time>2020-06-08T19:00:29Z</time>
      </trkpt>
      <trkpt lat="48.38977" lon="-4.68191">
        <ele>87.6</ele>
        <time>2020-06-08T19:00:30Z</time>
      </trkpt>
      <trkpt lat="48.38975" lon="-4.682">
        <ele>87.5</ele>
        <time>2020-06-08T19:00:31Z</time>
      </trkpt>
      <trkpt lat="48.38972" lon="-4.6821">
        <ele>87.4</ele>
        <time>2020-06-08T19:00:32Z</time>
      </trkpt>
      <trkpt lat="48.38969" lon="-4.68219">
        <ele>87.4</ele>
        <time>2020-06-08T19:00:33Z</time>
      </trkpt>
      <trkpt lat="48.38965" lon="-4.68227">
        <ele>87.4</ele>
        <time>2020-06-08T19:00:34Z</time>
      </trkpt>
      <trkpt lat="48.38963" lon="-4.68236">
        <ele>87.3</ele>
        <time>2020-06-08T19:00:35Z</time>
      </trkpt>
      <trkpt lat="48.38961" lon="-4.68245">
        <ele>87.3</ele>
        <time>2020-06-08T19:00:36Z</time>
      </trkpt>
      <trkpt lat="48.38958" lon="-4.68254">
        <ele>87.3</ele>
        <time>2020-06-08T19:00:37Z</time>
      </trkpt>
      <trkpt lat="48.38956" lon="-4.68264">
        <ele>87.3</ele>
        <time>2020-06-08T19:00:38Z</time>
      </trkpt>
      <trkpt lat="48.38954" lon="-4.68273">
        <ele>87.3</ele>
        <time>2020-06-08T19:00:39Z</time>
      </trkpt>
      <trkpt lat="48.3895" lon="-4.68282">
        <ele>87.3</ele>
        <time>2020-06-08T19:00:40Z</time>
      </trkpt>
      <trkpt lat="48.38948" lon="-4.68291">
        <ele>87.3</ele>
        <time>2020-06-08T19:00:41Z</time>
      </trkpt>
      <trkpt lat="48.38945" lon="-4.68301">
        <ele>87.3</ele>
        <time>2020-06-08T19:00:42Z</time>
      </trkpt>
      <trkpt lat="48.38942" lon="-4.6831">
        <ele>87.3</ele>
        <time>2020-06-08T19:00:43Z</time>
      </trkpt>
      <trkpt lat="48.38939" lon="-4.68319">
        <ele>87.3</ele>
        <time>2020-06-08T19:00:44Z</time>
      </trkpt>
      <trkpt lat="48.38936" lon="-4.68328">
        <ele>87.3</ele>
        <time>2020-06-08T19:00:45Z</time>
      </trkpt>
      <trkpt lat="48.38934" lon="-4.68337">
        <ele>87.3</ele>
        <time>2020-06-08T19:00:46Z</time>
      </trkpt>
      <trkpt lat="48.38931" lon="-4.68346">
        <ele>87.3</ele>
        <time>2020-06-08T19:00:47Z</time>
      </trkpt>
      <trkpt lat="48.38928" lon="-4.68355">
        <ele>87.3</ele>
        <time>2020-06-08T19:00:48Z</time>
      </trkpt>
      <trkpt lat="48.38925" lon="-4.68364">
        <ele>87.2</ele>
        <time>2020-06-08T19:00:49Z</time>
      </trkpt>
      <trkpt lat="48.38923" lon="-4.68373">
        <ele>87.1</ele>
        <time>2020-06-08T19:00:50Z</time>
      </trkpt>
      <trkpt lat="48.3892" lon="-4.68383">
        <ele>87</ele>
        <time>2020-06-08T19:00:51Z</time>
      </trkpt>
      <trkpt lat="48.38917" lon="-4.68392">
        <ele>87</ele>
        <time>2020-06-08T19:00:52Z</time>
      </trkpt>
      <trkpt lat="48.38914" lon="-4.68401">
        <ele>86.9</ele>
        <time>2020-06-08T19:00:53Z</time>
      </trkpt>
      <trkpt lat="48.38911" lon="-4.6841">
        <ele>86.8</ele>
        <time>2020-06-08T19:00:54Z</time>
      </trkpt>
      <trkpt lat="48.38907" lon="-4.6842">
        <ele>86.7</ele>
        <time>2020-06-08T19:00:55Z</time>
      </trkpt>
      <trkpt lat="48.38904" lon="-4.6843">
        <ele>86.6</ele>
        <time>2020-06-08T19:00:56Z</time>
      </trkpt>
      <trkpt lat="48.38901" lon="-4.6844">
        <ele>86.4</ele>
        <time>2020-06-08T19:00:57Z</time>
      </trkpt>
      <trkpt lat="48.38899" lon="-4.6845">
        <ele>86.3</ele>
        <time>2020-06-08T19:00:58Z</time>
      </trkpt>
      <trkpt lat="48.38896" lon="-4.6846">
        <ele>86.2</ele>
        <time>2020-06-08T19:00:59Z</time>
      </trkpt>
      <trkpt lat="48.38893" lon="-4.6847">
        <ele>86.1</ele>
        <time>2020-06-08T19:01:00Z</time>
      </trkpt>
      <trkpt lat="48.38889" lon="-4.6848">
        <ele>86</ele>
        <time>2020-06-08T19:01:01Z</time>
      </trkpt>
      <trkpt lat="48.38886" lon="-4.6849">
        <ele>85.9</ele>
        <time>2020-06-08T19:01:02Z</time>
      </trkpt>
      <trkpt lat="48.38883" lon="-4.685">
        <ele>85.8</ele>
        <time>2020-06-08T19:01:03Z</time>
      </trkpt>
      <trkpt lat="48.38879" lon="-4.6851">
        <ele>85.7</ele>
        <time>2020-06-08T19:01:04Z</time>
      </trkpt>
      <trkpt lat="48.38877" lon="-4.68521">
        <ele>85.5</ele>
        <time>2020-06-08T19:01:05Z</time>
      </trkpt>
      <trkpt lat="48.38875" lon="-4.68532">
        <ele>85.4</ele>
        <time>2020-06-08T19:01:06Z</time>
      </trkpt>
      <trkpt lat="48.38871" lon="-4.68542">
        <ele>85.3</ele>
        <time>2020-06-08T19:01:07Z</time>
      </trkpt>
      <trkpt lat="48.38867" lon="-4.68552">
        <ele>85.1</ele>
        <time>2020-06-08T19:01:08Z</time>
      </trkpt>
      <trkpt lat="48.38864" lon="-4.68562">
        <ele>85</ele>
        <time>2020-06-08T19:01:09Z</time>
      </trkpt>
      <trkpt lat="48.38861" lon="-4.68572">
        <ele>84.9</ele>
        <time>2020-06-08T19:01:10Z</time>
      </trkpt>
      <trkpt lat="48.38858" lon="-4.68582">
        <ele>84.8</ele>
        <time>2020-06-08T19:01:11Z</time>
      </trkpt>
      <trkpt lat="48.38855" lon="-4.68593">
        <ele>84.7</ele>
        <time>2020-06-08T19:01:12Z</time>
      </trkpt>
      <trkpt lat="48.38852" lon="-4.68603">
        <ele>84.5</ele>
        <time>2020-06-08T19:01:13Z</time>
      </trkpt>
      <trkpt lat="48.38848" lon="-4.68613">
        <ele>84.4</ele>
        <time>2020-06-08T19:01:14Z</time>
      </trkpt>
      <trkpt lat="48.38845" lon="-4.68623">
        <ele>84.2</ele>
        <time>2020-06-08T19:01:15Z</time>
      </trkpt>
      <trkpt lat="48.38842" lon="-4.68633">
        <ele>84</ele>
        <time>2020-06-08T19:01:16Z</time>
      </trkpt>
      <trkpt lat="48.38838" lon="-4.68644">
        <ele>83.9</ele>
        <time>2020-06-08T19:01:17Z</time>
      </trkpt>
      <trkpt lat="48.38835" lon="-4.68654">
        <ele>83.7</ele>
        <time>2020-06-08T19:01:18Z</time>
      </trkpt>
      <trkpt lat="48.38832" lon="-4.68665">
        <ele>83.5</ele>
        <time>2020-06-08T19:01:19Z</time>
      </trkpt>
      <trkpt lat="48.38829" lon="-4.68676">
        <ele>83.4</ele>
        <time>2020-06-08T19:01:20Z</time>
      </trkpt>
      <trkpt lat="48.38826" lon="-4.68687">
        <ele>83.2</ele>
        <time>2020-06-08T19:01:21Z</time>
      </trkpt>
      <trkpt lat="48.38823" lon="-4.68698">
        <ele>83.2</ele>
        <time>2020-06-08T19:01:22Z</time>
      </trkpt>
      <trkpt lat="48.3882" lon="-4.68708">
        <ele>83.2</ele>
        <time>2020-06-08T19:01:23Z</time>
      </trkpt>
      <trkpt lat="48.38817" lon="-4.68719">
        <ele>83</ele>
        <time>2020-06-08T19:01:24Z</time>
      </trkpt>
      <trkpt lat="48.38815" lon="-4.6873">
        <ele>82.7</ele>
        <time>2020-06-08T19:01:25Z</time>
      </trkpt>
      <trkpt lat="48.38812" lon="-4.68741">
        <ele>82.5</ele>
        <time>2020-06-08T19:01:26Z</time>
      </trkpt>
      <trkpt lat="48.38809" lon="-4.68752">
        <ele>82.2</ele>
        <time>2020-06-08T19:01:27Z</time>
      </trkpt>
      <trkpt lat="48.38806" lon="-4.68762">
        <ele>82.1</ele>
        <time>2020-06-08T19:01:28Z</time>
      </trkpt>
      <trkpt lat="48.38803" lon="-4.68772">
        <ele>81.9</ele>
        <time>2020-06-08T19:01:29Z</time>
      </trkpt>
      <trkpt lat="48.38799" lon="-4.68782">
        <ele>81.8</ele>
        <time>2020-06-08T19:01:30Z</time>
      </trkpt>
      <trkpt lat="48.38797" lon="-4.68793">
        <ele>81.6</ele>
        <time>2020-06-08T19:01:31Z</time>
      </trkpt>
      <trkpt lat="48.38794" lon="-4.68804">
        <ele>81.4</ele>
        <time>2020-06-08T19:01:32Z</time>
      </trkpt>
      <trkpt lat="48.38792" lon="-4.68815">
        <ele>81.2</ele>
        <time>2020-06-08T19:01:33Z</time>
      </trkpt>
      <trkpt lat="48.38789" lon="-4.68826">
        <ele>80.9</ele>
        <time>2020-06-08T19:01:34Z</time>
      </trkpt>
      <trkpt lat="48.38786" lon="-4.68838">
        <ele>80.6</ele>
        <time>2020-06-08T19:01:35Z</time>
      </trkpt>
      <trkpt lat="48.38783" lon="-4.68849">
        <ele>80.4</ele>
        <time>2020-06-08T19:01:36Z</time>
      </trkpt>
      <trkpt lat="48.38779" lon="-4.68859">
        <ele>80.1</ele>
        <time>2020-06-08T19:01:37Z</time>
      </trkpt>
      <trkpt lat="48.38775" lon="-4.68871">
        <ele>79.9</ele>
        <time>2020-06-08T19:01:38Z</time>
      </trkpt>
      <trkpt lat="48.38772" lon="-4.68882">
        <ele>79.7</ele>
        <time>2020-06-08T19:01:39Z</time>
      </trkpt>
      <trkpt lat="48.38768" lon="-4.68893">
        <ele>79.5</ele>
        <time>2020-06-08T19:01:40Z</time>
      </trkpt>
      <trkpt lat="48.38764" lon="-4.68905">
        <ele>79.3</ele>
        <time>2020-06-08T19:01:41Z</time>
      </trkpt>
      <trkpt lat="48.38761" lon="-4.68917">
        <ele>79.1</ele>
        <time>2020-06-08T19:01:42Z</time>
      </trkpt>
      <trkpt lat="48.38757" lon="-4.68929">
        <ele>78.9</ele>
        <time>2020-06-08T19:01:43Z</time>
      </trkpt>
      <trkpt lat="48.38753" lon="-4.68941">
        <ele>78.6</ele>
        <time>2020-06-08T19:01:44Z</time>
      </trkpt>
      <trkpt lat="48.3875" lon="-4.68953">
        <ele>78.4</ele>
        <time>2020-06-08T19:01:45Z</time>
      </trkpt>
      <trkpt lat="48.38745" lon="-4.68965">
        <ele>78.2</ele>
        <time>2020-06-08T19:01:46Z</time>
      </trkpt>
      <trkpt lat="48.38741" lon="-4.68977">
        <ele>78</ele>
        <time>2020-06-08T19:01:47Z</time>
      </trkpt>
      <trkpt lat="48.38737" lon="-4.6899">
        <ele>77.7</ele>
        <time>2020-06-08T19:01:48Z</time>
      </trkpt>
      <trkpt lat="48.38733" lon="-4.69002">
        <ele>77.5</ele>
        <time>2020-06-08T19:01:49Z</time>
      </trkpt>
      <trkpt lat="48.38729" lon="-4.69014">
        <ele>77.2</ele>
        <time>2020-06-08T19:01:50Z</time>
      </trkpt>
      <trkpt lat="48.38724" lon="-4.69026">
        <ele>77</ele>
        <time>2020-06-08T19:01:51Z</time>
      </trkpt>
      <trkpt lat="48.38719" lon="-4.69037">
        <ele>76.8</ele>
        <time>2020-06-08T19:01:52Z</time>
      </trkpt>
      <trkpt lat="48.38715" lon="-4.6905">
        <ele>76.6</ele>
        <time>2020-06-08T19:01:53Z</time>
      </trkpt>
      <trkpt lat="48.38711" lon="-4.69063">
        <ele>76.3</ele>
        <time>2020-06-08T19:01:54Z</time>
      </trkpt>
      <trkpt lat="48.38707" lon="-4.69075">
        <ele>76</ele>
        <time>2020-06-08T19:01:55Z</time>
      </trkpt>
      <trkpt lat="48.38703" lon="-4.69088">
        <ele>75.8</ele>
        <time>2020-06-08T19:01:56Z</time>
      </trkpt>
      <trkpt lat="48.38699" lon="-4.69101">
        <ele>75.6</ele>
        <time>2020-06-08T19:01:57Z</time>
      </trkpt>
      <trkpt lat="48.38695" lon="-4.69114">
        <ele>75.3</ele>
        <time>2020-06-08T19:01:58Z</time>
      </trkpt>
      <trkpt lat="48.38692" lon="-4.69127">
        <ele>75</ele>
        <time>2020-06-08T19:01:59Z</time>
      </trkpt>
      <trkpt lat="48.38687" lon="-4.6914">
        <ele>74.8</ele>
        <time>2020-06-08T19:02:00Z</time>
      </trkpt>
      <trkpt lat="48.38684" lon="-4.69153">
        <ele>74.5</ele>
        <time>2020-06-08T19:02:01Z</time>
      </trkpt>
      <trkpt lat="48.38681" lon="-4.69167">
        <ele>74.3</ele>
        <time>2020-06-08T19:02:02Z</time>
      </trkpt>
      <trkpt lat="48.38678" lon="-4.69181">
        <ele>74</ele>
        <time>2020-06-08T19:02:03Z</time>
      </trkpt>
      <trkpt lat="48.38676" lon="-4.69194">
        <ele>73.9</ele>
        <time>2020-06-08T19:02:04Z</time>
      </trkpt>
      <trkpt lat="48.38673" lon="-4.69208">
        <ele>73.8</ele>
        <time>2020-06-08T19:02:05Z</time>
      </trkpt>
      <trkpt lat="48.38669" lon="-4.69221">
        <ele>73.7</ele>
        <time>2020-06-08T19:02:06Z</time>
      </trkpt>
      <trkpt lat="48.38666" lon="-4.69234">
        <ele>73.7</ele>
        <time>2020-06-08T19:02:07Z</time>
      </trkpt>
      <trkpt lat="48.38664" lon="-4.69248">
        <ele>73.6</ele>
        <time>2020-06-08T19:02:08Z</time>
      </trkpt>
      <trkpt lat="48.38662" lon="-4.69261">
        <ele>73.6</ele>
        <time>2020-06-08T19:02:09Z</time>
      </trkpt>
      <trkpt lat="48.3866" lon="-4.69275">
        <ele>73.5</ele>
        <time>2020-06-08T19:02:10Z</time>
      </trkpt>
      <trkpt lat="48.38657" lon="-4.69288">
        <ele>73.5</ele>
        <time>2020-06-08T19:02:11Z</time>
      </trkpt>
      <trkpt lat="48.38655" lon="-4.69301">
        <ele>73.4</ele>
        <time>2020-06-08T19:02:12Z</time>
      </trkpt>
      <trkpt lat="48.38652" lon="-4.69313">
        <ele>73.2</ele>
        <time>2020-06-08T19:02:13Z</time>
      </trkpt>
      <trkpt lat="48.3865" lon="-4.69325">
        <ele>73.1</ele>
        <time>2020-06-08T19:02:14Z</time>
      </trkpt>
      <trkpt lat="48.38648" lon="-4.69338">
        <ele>72.9</ele>
        <time>2020-06-08T19:02:15Z</time>
      </trkpt>
      <trkpt lat="48.38646" lon="-4.6935">
        <ele>72.9</ele>
        <time>2020-06-08T19:02:16Z</time>
      </trkpt>
      <trkpt lat="48.38644" lon="-4.69363">
        <ele>72.8</ele>
        <time>2020-06-08T19:02:17Z</time>
      </trkpt>
      <trkpt lat="48.38642" lon="-4.69375">
        <ele>72.8</ele>
        <time>2020-06-08T19:02:18Z</time>
      </trkpt>
      <trkpt lat="48.3864" lon="-4.69386">
        <ele>72.8</ele>
        <time>2020-06-08T19:02:19Z</time>
      </trkpt>
      <trkpt lat="48.38638" lon="-4.69398">
        <ele>72.8</ele>
        <time>2020-06-08T19:02:20Z</time>
      </trkpt>
      <trkpt lat="48.38637" lon="-4.6941">
        <ele>72.7</ele>
        <time>2020-06-08T19:02:21Z</time>
      </trkpt>
      <trkpt lat="48.38636" lon="-4.69421">
        <ele>72.7</ele>
        <time>2020-06-08T19:02:22Z</time>
      </trkpt>
      <trkpt lat="48.38634" lon="-4.69432">
        <ele>72.7</ele>
        <time>2020-06-08T19:02:23Z</time>
      </trkpt>
      <trkpt lat="48.38632" lon="-4.69443">
        <ele>72.7</ele>
        <time>2020-06-08T19:02:24Z</time>
      </trkpt>
      <trkpt lat="48.38631" lon="-4.69454">
        <ele>72.7</ele>
        <time>2020-06-08T19:02:25Z</time>
      </trkpt>
      <trkpt lat="48.3863" lon="-4.69465">
        <ele>72.6</ele>
        <time>2020-06-08T19:02:26Z</time>
      </trkpt>
      <trkpt lat="48.38629" lon="-4.69475">
        <ele>72.6</ele>
        <time>2020-06-08T19:02:27Z</time>
      </trkpt>
      <trkpt lat="48.38628" lon="-4.69485">
        <ele>72.6</ele>
        <time>2020-06-08T19:02:28Z</time>
      </trkpt>
      <trkpt lat="48.38626" lon="-4.69496">
        <ele>72.5</ele>
        <time>2020-06-08T19:02:29Z</time>
      </trkpt>
      <trkpt lat="48.38625" lon="-4.69506">
        <ele>72.5</ele>
        <time>2020-06-08T19:02:30Z</time>
      </trkpt>
      <trkpt lat="48.38623" lon="-4.69517">
        <ele>72.3</ele>
        <time>2020-06-08T19:02:31Z</time>
      </trkpt>
      <trkpt lat="48.38621" lon="-4.69528">
        <ele>72.2</ele>
        <time>2020-06-08T19:02:32Z</time>
      </trkpt>
      <trkpt lat="48.3862" lon="-4.69539">
        <ele>72</ele>
        <time>2020-06-08T19:02:33Z</time>
      </trkpt>
      <trkpt lat="48.38619" lon="-4.69551">
        <ele>71.8</ele>
        <time>2020-06-08T19:02:34Z</time>
      </trkpt>
      <trkpt lat="48.38618" lon="-4.69563">
        <ele>71.7</ele>
        <time>2020-06-08T19:02:35Z</time>
      </trkpt>
      <trkpt lat="48.38616" lon="-4.69575">
        <ele>71.5</ele>
        <time>2020-06-08T19:02:36Z</time>
      </trkpt>
      <trkpt lat="48.38615" lon="-4.69587">
        <ele>71.3</ele>
        <time>2020-06-08T19:02:37Z</time>
      </trkpt>
      <trkpt lat="48.38613" lon="-4.69599">
        <ele>71.2</ele>
        <time>2020-06-08T19:02:38Z</time>
      </trkpt>
      <trkpt lat="48.38611" lon="-4.69611">
        <ele>71</ele>
        <time>2020-06-08T19:02:39Z</time>
      </trkpt>
      <trkpt lat="48.38609" lon="-4.69623">
        <ele>70.9</ele>
        <time>2020-06-08T19:02:40Z</time>
      </trkpt>
      <trkpt lat="48.38608" lon="-4.69635">
        <ele>70.9</ele>
        <time>2020-06-08T19:02:41Z</time>
      </trkpt>
      <trkpt lat="48.38606" lon="-4.69647">
        <ele>70.8</ele>
        <time>2020-06-08T19:02:42Z</time>
      </trkpt>
      <trkpt lat="48.38605" lon="-4.69659">
        <ele>70.7</ele>
        <time>2020-06-08T19:02:43Z</time>
      </trkpt>
      <trkpt lat="48.38603" lon="-4.69672">
        <ele>70.6</ele>
        <time>2020-06-08T19:02:44Z</time>
      </trkpt>
      <trkpt lat="48.38602" lon="-4.69684">
        <ele>70.5</ele>
        <time>2020-06-08T19:02:45Z</time>
      </trkpt>
      <trkpt lat="48.386" lon="-4.69695">
        <ele>70.3</ele>
        <time>2020-06-08T19:02:46Z</time>
      </trkpt>
      <trkpt lat="48.38597" lon="-4.69707">
        <ele>70.2</ele>
        <time>2020-06-08T19:02:47Z</time>
      </trkpt>
      <trkpt lat="48.38593" lon="-4.69719">
        <ele>70.1</ele>
        <time>2020-06-08T19:02:48Z</time>
      </trkpt>
      <trkpt lat="48.38591" lon="-4.69731">
        <ele>70</ele>
        <time>2020-06-08T19:02:49Z</time>
      </trkpt>
      <trkpt lat="48.3859" lon="-4.69743">
        <ele>69.9</ele>
        <time>2020-06-08T19:02:50Z</time>
      </trkpt>
      <trkpt lat="48.3859" lon="-4.69755">
        <ele>69.8</ele>
        <time>2020-06-08T19:02:51Z</time>
      </trkpt>
      <trkpt lat="48.38587" lon="-4.69766">
        <ele>69.7</ele>
        <time>2020-06-08T19:02:52Z</time>
      </trkpt>
      <trkpt lat="48.38585" lon="-4.69778">
        <ele>69.6</ele>
        <time>2020-06-08T19:02:53Z</time>
      </trkpt>
      <trkpt lat="48.38583" lon="-4.69789">
        <ele>69.5</ele>
        <time>2020-06-08T19:02:54Z</time>
      </trkpt>
      <trkpt lat="48.38581" lon="-4.69801">
        <ele>69.4</ele>
        <time>2020-06-08T19:02:55Z</time>
      </trkpt>
      <trkpt lat="48.38578" lon="-4.69812">
        <ele>69.3</ele>
        <time>2020-06-08T19:02:56Z</time>
      </trkpt>
      <trkpt lat="48.38576" lon="-4.69824">
        <ele>69.2</ele>
        <time>2020-06-08T19:02:57Z</time>
      </trkpt>
      <trkpt lat="48.38574" lon="-4.69835">
        <ele>69.1</ele>
        <time>2020-06-08T19:02:58Z</time>
      </trkpt>
      <trkpt lat="48.38572" lon="-4.69846">
        <ele>69.1</ele>
        <time>2020-06-08T19:02:59Z</time>
      </trkpt>
      <trkpt lat="48.3857" lon="-4.69858">
        <ele>69</ele>
        <time>2020-06-08T19:03:00Z</time>
      </trkpt>
      <trkpt lat="48.38568" lon="-4.69869">
        <ele>69</ele>
        <time>2020-06-08T19:03:01Z</time>
      </trkpt>
      <trkpt lat="48.38567" lon="-4.69881">
        <ele>69</ele>
        <time>2020-06-08T19:03:02Z</time>
      </trkpt>
      <trkpt lat="48.38566" lon="-4.69893">
        <ele>69</ele>
        <time>2020-06-08T19:03:03Z</time>
      </trkpt>
      <trkpt lat="48.38565" lon="-4.69905">
        <ele>68.9</ele>
        <time>2020-06-08T19:03:04Z</time>
      </trkpt>
      <trkpt lat="48.38564" lon="-4.69917">
        <ele>68.9</ele>
        <time>2020-06-08T19:03:05Z</time>
      </trkpt>
      <trkpt lat="48.38564" lon="-4.69928">
        <ele>68.8</ele>
        <time>2020-06-08T19:03:06Z</time>
      </trkpt>
      <trkpt lat="48.38563" lon="-4.6994">
        <ele>68.8</ele>
        <time>2020-06-08T19:03:07Z</time>
      </trkpt>
      <trkpt lat="48.38562" lon="-4.69952">
        <ele>68.8</ele>
        <time>2020-06-08T19:03:08Z</time>
      </trkpt>
      <trkpt lat="48.38562" lon="-4.69964">
        <ele>68.8</ele>
        <time>2020-06-08T19:03:09Z</time>
      </trkpt>
      <trkpt lat="48.38562" lon="-4.69975">
        <ele>68.7</ele>
        <time>2020-06-08T19:03:10Z</time>
      </trkpt>
      <trkpt lat="48.38562" lon="-4.69987">
        <ele>68.7</ele>
        <time>2020-06-08T19:03:11Z</time>
      </trkpt>
      <trkpt lat="48.38561" lon="-4.69998">
        <ele>68.7</ele>
        <time>2020-06-08T19:03:12Z</time>
      </trkpt>
      <trkpt lat="48.38561" lon="-4.7001">
        <ele>68.7</ele>
        <time>2020-06-08T19:03:13Z</time>
      </trkpt>
      <trkpt lat="48.3856" lon="-4.70022">
        <ele>68.8</ele>
        <time>2020-06-08T19:03:14Z</time>
      </trkpt>
      <trkpt lat="48.3856" lon="-4.70034">
        <ele>68.8</ele>
        <time>2020-06-08T19:03:15Z</time>
      </trkpt>
      <trkpt lat="48.3856" lon="-4.70045">
        <ele>68.9</ele>
        <time>2020-06-08T19:03:16Z</time>
      </trkpt>
      <trkpt lat="48.38559" lon="-4.70057">
        <ele>68.9</ele>
        <time>2020-06-08T19:03:17Z</time>
      </trkpt>
      <trkpt lat="48.38559" lon="-4.70068">
        <ele>69</ele>
        <time>2020-06-08T19:03:18Z</time>
      </trkpt>
      <trkpt lat="48.38559" lon="-4.7008">
        <ele>69</ele>
        <time>2020-06-08T19:03:19Z</time>
      </trkpt>
      <trkpt lat="48.38558" lon="-4.70091">
        <ele>69.1</ele>
        <time>2020-06-08T19:03:20Z</time>
      </trkpt>
      <trkpt lat="48.38557" lon="-4.70102">
        <ele>69.3</ele>
        <time>2020-06-08T19:03:21Z</time>
      </trkpt>
      <trkpt lat="48.38556" lon="-4.70113">
        <ele>69.5</ele>
        <time>2020-06-08T19:03:22Z</time>
      </trkpt>
      <trkpt lat="48.38556" lon="-4.70124">
        <ele>69.6</ele>
        <time>2020-06-08T19:03:23Z</time>
      </trkpt>
      <trkpt lat="48.38555" lon="-4.70134">
        <ele>69.6</ele>
        <time>2020-06-08T19:03:24Z</time>
      </trkpt>
      <trkpt lat="48.38553" lon="-4.70145">
        <ele>69.6</ele>
        <time>2020-06-08T19:03:25Z</time>
      </trkpt>
      <trkpt lat="48.3855" lon="-4.70154">
        <ele>69.6</ele>
        <time>2020-06-08T19:03:26Z</time>
      </trkpt>
      <trkpt lat="48.38547" lon="-4.70164">
        <ele>69.7</ele>
        <time>2020-06-08T19:03:27Z</time>
      </trkpt>
      <trkpt lat="48.38544" lon="-4.70173">
        <ele>69.7</ele>
        <time>2020-06-08T19:03:28Z</time>
      </trkpt>
      <trkpt lat="48.38541" lon="-4.70182">
        <ele>69.7</ele>
        <time>2020-06-08T19:03:29Z</time>
      </trkpt>
      <trkpt lat="48.38538" lon="-4.70191">
        <ele>69.7</ele>
        <time>2020-06-08T19:03:30Z</time>
      </trkpt>
      <trkpt lat="48.38535" lon="-4.70201">
        <ele>69.7</ele>
        <time>2020-06-08T19:03:31Z</time>
      </trkpt>
      <trkpt lat="48.38532" lon="-4.7021">
        <ele>69.7</ele>
        <time>2020-06-08T19:03:32Z</time>
      </trkpt>
      <trkpt lat="48.38528" lon="-4.70219">
        <ele>69.7</ele>
        <time>2020-06-08T19:03:33Z</time>
      </trkpt>
      <trkpt lat="48.38525" lon="-4.70228">
        <ele>69.6</ele>
        <time>2020-06-08T19:03:34Z</time>
      </trkpt>
      <trkpt lat="48.38521" lon="-4.70237">
        <ele>69.6</ele>
        <time>2020-06-08T19:03:35Z</time>
      </trkpt>
      <trkpt lat="48.38518" lon="-4.70247">
        <ele>69.5</ele>
        <time>2020-06-08T19:03:36Z</time>
      </trkpt>
      <trkpt lat="48.38515" lon="-4.70256">
        <ele>69.4</ele>
        <time>2020-06-08T19:03:37Z</time>
      </trkpt>
      <trkpt lat="48.38511" lon="-4.70265">
        <ele>69.2</ele>
        <time>2020-06-08T19:03:38Z</time>
      </trkpt>
      <trkpt lat="48.38508" lon="-4.70275">
        <ele>69.1</ele>
        <time>2020-06-08T19:03:39Z</time>
      </trkpt>
      <trkpt lat="48.38504" lon="-4.70284">
        <ele>69</ele>
        <time>2020-06-08T19:03:40Z</time>
      </trkpt>
      <trkpt lat="48.38499" lon="-4.70293">
        <ele>68.8</ele>
        <time>2020-06-08T19:03:41Z</time>
      </trkpt>
      <trkpt lat="48.38495" lon="-4.70303">
        <ele>68.6</ele>
        <time>2020-06-08T19:03:42Z</time>
      </trkpt>
      <trkpt lat="48.38492" lon="-4.70313">
        <ele>68.4</ele>
        <time>2020-06-08T19:03:43Z</time>
      </trkpt>
      <trkpt lat="48.38487" lon="-4.70323">
        <ele>68.2</ele>
        <time>2020-06-08T19:03:44Z</time>
      </trkpt>
      <trkpt lat="48.38483" lon="-4.70333">
        <ele>67.9</ele>
        <time>2020-06-08T19:03:45Z</time>
      </trkpt>
      <trkpt lat="48.38479" lon="-4.70343">
        <ele>67.6</ele>
        <time>2020-06-08T19:03:46Z</time>
      </trkpt>
      <trkpt lat="48.38475" lon="-4.70354">
        <ele>67.2</ele>
        <time>2020-06-08T19:03:47Z</time>
      </trkpt>
      <trkpt lat="48.3847" lon="-4.70364">
        <ele>66.9</ele>
        <time>2020-06-08T19:03:48Z</time>
      </trkpt>
      <trkpt lat="48.38465" lon="-4.70375">
        <ele>66.6</ele>
        <time>2020-06-08T19:03:49Z</time>
      </trkpt>
      <trkpt lat="48.38459" lon="-4.70384">
        <ele>66.2</ele>
        <time>2020-06-08T19:03:50Z</time>
      </trkpt>
      <trkpt lat="48.38452" lon="-4.70393">
        <ele>65.7</ele>
        <time>2020-06-08T19:03:51Z</time>
      </trkpt>
      <trkpt lat="48.38446" lon="-4.70403">
        <ele>65.3</ele>
        <time>2020-06-08T19:03:52Z</time>
      </trkpt>
      <trkpt lat="48.3844" lon="-4.70413">
        <ele>64.8</ele>
        <time>2020-06-08T19:03:53Z</time>
      </trkpt>
      <trkpt lat="48.38434" lon="-4.70424">
        <ele>64.3</ele>
        <time>2020-06-08T19:03:54Z</time>
      </trkpt>
      <trkpt lat="48.38429" lon="-4.70436">
        <ele>63.8</ele>
        <time>2020-06-08T19:03:55Z</time>
      </trkpt>
      <trkpt lat="48.38423" lon="-4.70447">
        <ele>63.3</ele>
        <time>2020-06-08T19:03:56Z</time>
      </trkpt>
      <trkpt lat="48.38416" lon="-4.70458">
        <ele>62.9</ele>
        <time>2020-06-08T19:03:57Z</time>
      </trkpt>
      <trkpt lat="48.38409" lon="-4.70468">
        <ele>62.4</ele>
        <time>2020-06-08T19:03:58Z</time>
      </trkpt>
      <trkpt lat="48.38403" lon="-4.70478">
        <ele>62.1</ele>
        <time>2020-06-08T19:03:59Z</time>
      </trkpt>
      <trkpt lat="48.38396" lon="-4.7049">
        <ele>61.8</ele>
        <time>2020-06-08T19:04:00Z</time>
      </trkpt>
      <trkpt lat="48.38391" lon="-4.70502">
        <ele>61.5</ele>
        <time>2020-06-08T19:04:01Z</time>
      </trkpt>
      <trkpt lat="48.38385" lon="-4.70513">
        <ele>61.1</ele>
        <time>2020-06-08T19:04:02Z</time>
      </trkpt>
      <trkpt lat="48.38378" lon="-4.70524">
        <ele>60.8</ele>
        <time>2020-06-08T19:04:03Z</time>
      </trkpt>
      <trkpt lat="48.38372" lon="-4.70535">
        <ele>60.5</ele>
        <time>2020-06-08T19:04:04Z</time>
      </trkpt>
      <trkpt lat="48.38365" lon="-4.70545">
        <ele>60.3</ele>
        <time>2020-06-08T19:04:05Z</time>
      </trkpt>
      <trkpt lat="48.38359" lon="-4.70556">
        <ele>60.1</ele>
        <time>2020-06-08T19:04:06Z</time>
      </trkpt>
      <trkpt lat="48.38353" lon="-4.70567">
        <ele>59.8</ele>
        <time>2020-06-08T19:04:07Z</time>
      </trkpt>
      <trkpt lat="48.38346" lon="-4.70578">
        <ele>59.6</ele>
        <time>2020-06-08T19:04:08Z</time>
      </trkpt>
      <trkpt lat="48.38341" lon="-4.70589">
        <ele>59.4</ele>
        <time>2020-06-08T19:04:09Z</time>
      </trkpt>
      <trkpt lat="48.38334" lon="-4.70599">
        <ele>59.3</ele>
        <time>2020-06-08T19:04:10Z</time>
      </trkpt>
      <trkpt lat="48.38328" lon="-4.70609">
        <ele>59.2</ele>
        <time>2020-06-08T19:04:11Z</time>
      </trkpt>
      <trkpt lat="48.38322" lon="-4.70619">
        <ele>59.1</ele>
        <time>2020-06-08T19:04:12Z</time>
      </trkpt>
      <trkpt lat="48.38316" lon="-4.7063">
        <ele>59</ele>
        <time>2020-06-08T19:04:13Z</time>
      </trkpt>
      <trkpt lat="48.38311" lon="-4.70641">
        <ele>58.9</ele>
        <time>2020-06-08T19:04:14Z</time>
      </trkpt>
      <trkpt lat="48.38305" lon="-4.70651">
        <ele>58.9</ele>
        <time>2020-06-08T19:04:15Z</time>
      </trkpt>
      <trkpt lat="48.38299" lon="-4.70661">
        <ele>58.8</ele>
        <time>2020-06-08T19:04:16Z</time>
      </trkpt>
      <trkpt lat="48.38293" lon="-4.70671">
        <ele>58.6</ele>
        <time>2020-06-08T19:04:17Z</time>
      </trkpt>
      <trkpt lat="48.38288" lon="-4.70682">
        <ele>58.5</ele>
        <time>2020-06-08T19:04:18Z</time>
      </trkpt>
      <trkpt lat="48.38283" lon="-4.70692">
        <ele>58.3</ele>
        <time>2020-06-08T19:04:19Z</time>
      </trkpt>
      <trkpt lat="48.38279" lon="-4.70704">
        <ele>58.1</ele>
        <time>2020-06-08T19:04:20Z</time>
      </trkpt>
      <trkpt lat="48.38273" lon="-4.70715">
        <ele>57.9</ele>
        <time>2020-06-08T19:04:21Z</time>
      </trkpt>
      <trkpt lat="48.38268" lon="-4.70725">
        <ele>57.8</ele>
        <time>2020-06-08T19:04:22Z</time>
      </trkpt>
      <trkpt lat="48.38262" lon="-4.70735">
        <ele>57.8</ele>
        <time>2020-06-08T19:04:23Z</time>
      </trkpt>
      <trkpt lat="48.38257" lon="-4.70745">
        <ele>57.8</ele>
        <time>2020-06-08T19:04:24Z</time>
      </trkpt>
      <trkpt lat="48.38252" lon="-4.70756">
        <ele>57.7</ele>
        <time>2020-06-08T19:04:25Z</time>
      </trkpt>
      <trkpt lat="48.38248" lon="-4.70767">
        <ele>57.7</ele>
        <time>2020-06-08T19:04:26Z</time>
      </trkpt>
      <trkpt lat="48.38243" lon="-4.70778">
        <ele>57.7</ele>
        <time>2020-06-08T19:04:27Z</time>
      </trkpt>
      <trkpt lat="48.38239" lon="-4.70789">
        <ele>57.7</ele>
        <time>2020-06-08T19:04:28Z</time>
      </trkpt>
      <trkpt lat="48.38234" lon="-4.70799">
        <ele>57.7</ele>
        <time>2020-06-08T19:04:29Z</time>
      </trkpt>
      <trkpt lat="48.38229" lon="-4.70809">
        <ele>57.7</ele>
        <time>2020-06-08T19:04:30Z</time>
      </trkpt>
      <trkpt lat="48.38224" lon="-4.7082">
        <ele>57.7</ele>
        <time>2020-06-08T19:04:31Z</time>
      </trkpt>
      <trkpt lat="48.38219" lon="-4.7083">
        <ele>57.8</ele>
        <time>2020-06-08T19:04:32Z</time>
      </trkpt>
      <trkpt lat="48.38215" lon="-4.70841">
        <ele>57.8</ele>
        <time>2020-06-08T19:04:33Z</time>
      </trkpt>
      <trkpt lat="48.3821" lon="-4.7085">
        <ele>57.9</ele>
        <time>2020-06-08T19:04:34Z</time>
      </trkpt>
      <trkpt lat="48.38205" lon="-4.7086">
        <ele>58</ele>
        <time>2020-06-08T19:04:35Z</time>
      </trkpt>
      <trkpt lat="48.38201" lon="-4.7087">
        <ele>58.1</ele>
        <time>2020-06-08T19:04:36Z</time>
      </trkpt>
      <trkpt lat="48.38196" lon="-4.7088">
        <ele>58.2</ele>
        <time>2020-06-08T19:04:37Z</time>
      </trkpt>
      <trkpt lat="48.38192" lon="-4.70889">
        <ele>58.2</ele>
        <time>2020-06-08T19:04:38Z</time>
      </trkpt>
      <trkpt lat="48.38188" lon="-4.70899">
        <ele>58.3</ele>
        <time>2020-06-08T19:04:39Z</time>
      </trkpt>
      <trkpt lat="48.38183" lon="-4.70907">
        <ele>58.4</ele>
        <time>2020-06-08T19:04:40Z</time>
      </trkpt>
      <trkpt lat="48.38178" lon="-4.70916">
        <ele>58.4</ele>
        <time>2020-06-08T19:04:41Z</time>
      </trkpt>
      <trkpt lat="48.38174" lon="-4.70925">
        <ele>58.4</ele>
        <time>2020-06-08T19:04:42Z</time>
      </trkpt>
      <trkpt lat="48.3817" lon="-4.70934">
        <ele>58.4</ele>
        <time>2020-06-08T19:04:43Z</time>
      </trkpt>
      <trkpt lat="48.38166" lon="-4.70943">
        <ele>58.4</ele>
        <time>2020-06-08T19:04:44Z</time>
      </trkpt>
      <trkpt lat="48.38162" lon="-4.70952">
        <ele>58.4</ele>
        <time>2020-06-08T19:04:45Z</time>
      </trkpt>
      <trkpt lat="48.38157" lon="-4.70961">
        <ele>58.5</ele>
        <time>2020-06-08T19:04:46Z</time>
      </trkpt>
      <trkpt lat="48.38153" lon="-4.70969">
        <ele>58.5</ele>
        <time>2020-06-08T19:04:47Z</time>
      </trkpt>
      <trkpt lat="48.38149" lon="-4.70978">
        <ele>58.5</ele>
        <time>2020-06-08T19:04:48Z</time>
      </trkpt>
      <trkpt lat="48.38145" lon="-4.70987">
        <ele>58.6</ele>
        <time>2020-06-08T19:04:49Z</time>
      </trkpt>
      <trkpt lat="48.38141" lon="-4.70997">
        <ele>58.6</ele>
        <time>2020-06-08T19:04:50Z</time>
      </trkpt>
      <trkpt lat="48.38138" lon="-4.71005">
        <ele>58.6</ele>
        <time>2020-06-08T19:04:51Z</time>
      </trkpt>
      <trkpt lat="48.38134" lon="-4.71014">
        <ele>58.7</ele>
        <time>2020-06-08T19:04:52Z</time>
      </trkpt>
      <trkpt lat="48.38129" lon="-4.71022">
        <ele>58.7</ele>
        <time>2020-06-08T19:04:53Z</time>
      </trkpt>
      <trkpt lat="48.38126" lon="-4.71031">
        <ele>58.7</ele>
        <time>2020-06-08T19:04:54Z</time>
      </trkpt>
      <trkpt lat="48.38122" lon="-4.71039">
        <ele>58.8</ele>
        <time>2020-06-08T19:04:55Z</time>
      </trkpt>
      <trkpt lat="48.38117" lon="-4.71048">
        <ele>58.8</ele>
        <time>2020-06-08T19:04:56Z</time>
      </trkpt>
      <trkpt lat="48.38113" lon="-4.71056">
        <ele>58.8</ele>
        <time>2020-06-08T19:04:57Z</time>
      </trkpt>
      <trkpt lat="48.38109" lon="-4.71065">
        <ele>58.9</ele>
        <time>2020-06-08T19:04:58Z</time>
      </trkpt>
      <trkpt lat="48.38106" lon="-4.71074">
        <ele>58.9</ele>
        <time>2020-06-08T19:04:59Z</time>
      </trkpt>
      <trkpt lat="48.38102" lon="-4.71082">
        <ele>58.9</ele>
        <time>2020-06-08T19:05:00Z</time>
      </trkpt>
      <trkpt lat="48.38097" lon="-4.71091">
        <ele>58.9</ele>
        <time>2020-06-08T19:05:01Z</time>
      </trkpt>
      <trkpt lat="48.38093" lon="-4.711">
        <ele>58.9</ele>
        <time>2020-06-08T19:05:02Z</time>
      </trkpt>
      <trkpt lat="48.38089" lon="-4.71108">
        <ele>58.9</ele>
        <time>2020-06-08T19:05:03Z</time>
      </trkpt>
      <trkpt lat="48.38085" lon="-4.71116">
        <ele>58.9</ele>
        <time>2020-06-08T19:05:04Z</time>
      </trkpt>
      <trkpt lat="48.38081" lon="-4.71125">
        <ele>58.9</ele>
        <time>2020-06-08T19:05:05Z</time>
      </trkpt>
      <trkpt lat="48.38077" lon="-4.71134">
        <ele>58.8</ele>
        <time>2020-06-08T19:05:06Z</time>
      </trkpt>
      <trkpt lat="48.38073" lon="-4.71142">
        <ele>58.8</ele>
        <time>2020-06-08T19:05:07Z</time>
      </trkpt>
      <trkpt lat="48.38069" lon="-4.71151">
        <ele>58.8</ele>
        <time>2020-06-08T19:05:08Z</time>
      </trkpt>
      <trkpt lat="48.38065" lon="-4.7116">
        <ele>58.7</ele>
        <time>2020-06-08T19:05:09Z</time>
      </trkpt>
      <trkpt lat="48.38061" lon="-4.71169">
        <ele>58.7</ele>
        <time>2020-06-08T19:05:10Z</time>
      </trkpt>
      <trkpt lat="48.38058" lon="-4.71178">
        <ele>58.7</ele>
        <time>2020-06-08T19:05:11Z</time>
      </trkpt>
      <trkpt lat="48.38054" lon="-4.71188">
        <ele>58.7</ele>
        <time>2020-06-08T19:05:12Z</time>
      </trkpt>
      <trkpt lat="48.38051" lon="-4.71197">
        <ele>58.7</ele>
        <time>2020-06-08T19:05:13Z</time>
      </trkpt>
      <trkpt lat="48.38048" lon="-4.71207">
        <ele>58.7</ele>
        <time>2020-06-08T19:05:14Z</time>
      </trkpt>
      <trkpt lat="48.38044" lon="-4.71217">
        <ele>58.6</ele>
        <time>2020-06-08T19:05:15Z</time>
      </trkpt>
      <trkpt lat="48.38041" lon="-4.71227">
        <ele>58.6</ele>
        <time>2020-06-08T19:05:16Z</time>
      </trkpt>
      <trkpt lat="48.38038" lon="-4.71236">
        <ele>58.6</ele>
        <time>2020-06-08T19:05:17Z</time>
      </trkpt>
      <trkpt lat="48.38036" lon="-4.71246">
        <ele>58.5</ele>
        <time>2020-06-08T19:05:18Z</time>
      </trkpt>
      <trkpt lat="48.38033" lon="-4.71256">
        <ele>58.5</ele>
        <time>2020-06-08T19:05:19Z</time>
      </trkpt>
      <trkpt lat="48.38031" lon="-4.71265">
        <ele>58.5</ele>
        <time>2020-06-08T19:05:20Z</time>
      </trkpt>
      <trkpt lat="48.38029" lon="-4.71275">
        <ele>58.5</ele>
        <time>2020-06-08T19:05:21Z</time>
      </trkpt>
      <trkpt lat="48.38027" lon="-4.71284">
        <ele>58.5</ele>
        <time>2020-06-08T19:05:22Z</time>
      </trkpt>
      <trkpt lat="48.38023" lon="-4.71293">
        <ele>58.5</ele>
        <time>2020-06-08T19:05:23Z</time>
      </trkpt>
      <trkpt lat="48.38019" lon="-4.71301">
        <ele>58.5</ele>
        <time>2020-06-08T19:05:24Z</time>
      </trkpt>
      <trkpt lat="48.38016" lon="-4.71309">
        <ele>58.5</ele>
        <time>2020-06-08T19:05:25Z</time>
      </trkpt>
      <trkpt lat="48.38013" lon="-4.71319">
        <ele>58.5</ele>
        <time>2020-06-08T19:05:26Z</time>
      </trkpt>
      <trkpt lat="48.3801" lon="-4.71328">
        <ele>58.6</ele>
        <time>2020-06-08T19:05:27Z</time>
      </trkpt>
      <trkpt lat="48.38007" lon="-4.71338">
        <ele>58.6</ele>
        <time>2020-06-08T19:05:28Z</time>
      </trkpt>
      <trkpt lat="48.38005" lon="-4.71347">
        <ele>58.6</ele>
        <time>2020-06-08T19:05:29Z</time>
      </trkpt>
      <trkpt lat="48.38001" lon="-4.71356">
        <ele>58.7</ele>
        <time>2020-06-08T19:05:30Z</time>
      </trkpt>
      <trkpt lat="48.37999" lon="-4.71365">
        <ele>58.7</ele>
        <time>2020-06-08T19:05:31Z</time>
      </trkpt>
      <trkpt lat="48.37996" lon="-4.71374">
        <ele>58.8</ele>
        <time>2020-06-08T19:05:32Z</time>
      </trkpt>
      <trkpt lat="48.37993" lon="-4.71383">
        <ele>58.8</ele>
        <time>2020-06-08T19:05:33Z</time>
      </trkpt>
      <trkpt lat="48.3799" lon="-4.71391">
        <ele>58.8</ele>
        <time>2020-06-08T19:05:34Z</time>
      </trkpt>
      <trkpt lat="48.37988" lon="-4.71401">
        <ele>58.8</ele>
        <time>2020-06-08T19:05:35Z</time>
      </trkpt>
      <trkpt lat="48.37986" lon="-4.7141">
        <ele>58.8</ele>
        <time>2020-06-08T19:05:36Z</time>
      </trkpt>
      <trkpt lat="48.37984" lon="-4.71419">
        <ele>58.8</ele>
        <time>2020-06-08T19:05:37Z</time>
      </trkpt>
      <trkpt lat="48.37981" lon="-4.71428">
        <ele>58.8</ele>
        <time>2020-06-08T19:05:38Z</time>
      </trkpt>
      <trkpt lat="48.37979" lon="-4.71437">
        <ele>58.8</ele>
        <time>2020-06-08T19:05:39Z</time>
      </trkpt>
      <trkpt lat="48.37975" lon="-4.71445">
        <ele>58.7</ele>
        <time>2020-06-08T19:05:40Z</time>
      </trkpt>
      <trkpt lat="48.37972" lon="-4.71454">
        <ele>58.7</ele>
        <time>2020-06-08T19:05:41Z</time>
      </trkpt>
      <trkpt lat="48.37968" lon="-4.71462">
        <ele>58.7</ele>
        <time>2020-06-08T19:05:42Z</time>
      </trkpt>
      <trkpt lat="48.37966" lon="-4.71472">
        <ele>58.6</ele>
        <time>2020-06-08T19:05:43Z</time>
      </trkpt>
      <trkpt lat="48.37964" lon="-4.71482">
        <ele>58.7</ele>
        <time>2020-06-08T19:05:44Z</time>
      </trkpt>
      <trkpt lat="48.37961" lon="-4.71491">
        <ele>58.7</ele>
        <time>2020-06-08T19:05:45Z</time>
      </trkpt>
      <trkpt lat="48.37958" lon="-4.715">
        <ele>58.8</ele>
        <time>2020-06-08T19:05:46Z</time>
      </trkpt>
      <trkpt lat="48.37954" lon="-4.71509">
        <ele>58.8</ele>
        <time>2020-06-08T19:05:47Z</time>
      </trkpt>
      <trkpt lat="48.37951" lon="-4.71518">
        <ele>58.6</ele>
        <time>2020-06-08T19:05:48Z</time>
      </trkpt>
      <trkpt lat="48.37948" lon="-4.71527">
        <ele>58.4</ele>
        <time>2020-06-08T19:05:49Z</time>
      </trkpt>
      <trkpt lat="48.37946" lon="-4.71535">
        <ele>58.2</ele>
        <time>2020-06-08T19:05:50Z</time>
      </trkpt>
      <trkpt lat="48.37944" lon="-4.71543">
        <ele>58.1</ele>
        <time>2020-06-08T19:05:51Z</time>
      </trkpt>
      <trkpt lat="48.37941" lon="-4.71551">
        <ele>58.1</ele>
        <time>2020-06-08T19:05:52Z</time>
      </trkpt>
      <trkpt lat="48.37938" lon="-4.71559">
        <ele>58</ele>
        <time>2020-06-08T19:05:53Z</time>
      </trkpt>
      <trkpt lat="48.37936" lon="-4.71567">
        <ele>58</ele>
        <time>2020-06-08T19:05:54Z</time>
      </trkpt>
      <trkpt lat="48.37933" lon="-4.71575">
        <ele>58</ele>
        <time>2020-06-08T19:05:55Z</time>
      </trkpt>
      <trkpt lat="48.3793" lon="-4.71583">
        <ele>57.9</ele>
        <time>2020-06-08T19:05:56Z</time>
      </trkpt>
      <trkpt lat="48.37927" lon="-4.71591">
        <ele>57.9</ele>
        <time>2020-06-08T19:05:57Z</time>
      </trkpt>
      <trkpt lat="48.37925" lon="-4.71599">
        <ele>57.9</ele>
        <time>2020-06-08T19:05:58Z</time>
      </trkpt>
      <trkpt lat="48.37924" lon="-4.71609">
        <ele>57.8</ele>
        <time>2020-06-08T19:05:59Z</time>
      </trkpt>
      <trkpt lat="48.37922" lon="-4.71617">
        <ele>57.8</ele>
        <time>2020-06-08T19:06:00Z</time>
      </trkpt>
      <trkpt lat="48.37919" lon="-4.71625">
        <ele>57.8</ele>
        <time>2020-06-08T19:06:01Z</time>
      </trkpt>
      <trkpt lat="48.37916" lon="-4.71632">
        <ele>57.8</ele>
        <time>2020-06-08T19:06:02Z</time>
      </trkpt>
      <trkpt lat="48.37912" lon="-4.7164">
        <ele>57.8</ele>
        <time>2020-06-08T19:06:03Z</time>
      </trkpt>
      <trkpt lat="48.3791" lon="-4.71648">
        <ele>57.8</ele>
        <time>2020-06-08T19:06:04Z</time>
      </trkpt>
      <trkpt lat="48.37907" lon="-4.71657">
        <ele>57.8</ele>
        <time>2020-06-08T19:06:05Z</time>
      </trkpt>
      <trkpt lat="48.37904" lon="-4.71665">
        <ele>57.8</ele>
        <time>2020-06-08T19:06:06Z</time>
      </trkpt>
      <trkpt lat="48.37901" lon="-4.71672">
        <ele>57.8</ele>
        <time>2020-06-08T19:06:07Z</time>
      </trkpt>
      <trkpt lat="48.37898" lon="-4.71679">
        <ele>57.8</ele>
        <time>2020-06-08T19:06:08Z</time>
      </trkpt>
      <trkpt lat="48.37895" lon="-4.71687">
        <ele>57.8</ele>
        <time>2020-06-08T19:06:09Z</time>
      </trkpt>
      <trkpt lat="48.37893" lon="-4.71695">
        <ele>57.7</ele>
        <time>2020-06-08T19:06:10Z</time>
      </trkpt>
      <trkpt lat="48.3789" lon="-4.71704">
        <ele>57.7</ele>
        <time>2020-06-08T19:06:11Z</time>
      </trkpt>
      <trkpt lat="48.37887" lon="-4.71712">
        <ele>57.6</ele>
        <time>2020-06-08T19:06:12Z</time>
      </trkpt>
      <trkpt lat="48.37884" lon="-4.7172">
        <ele>57.6</ele>
        <time>2020-06-08T19:06:13Z</time>
      </trkpt>
      <trkpt lat="48.37881" lon="-4.71728">
        <ele>57.5</ele>
        <time>2020-06-08T19:06:14Z</time>
      </trkpt>
      <trkpt lat="48.37878" lon="-4.71735">
        <ele>57.5</ele>
        <time>2020-06-08T19:06:15Z</time>
      </trkpt>
      <trkpt lat="48.37875" lon="-4.71743">
        <ele>57.5</ele>
        <time>2020-06-08T19:06:16Z</time>
      </trkpt>
      <trkpt lat="48.37872" lon="-4.71752">
        <ele>57.5</ele>
        <time>2020-06-08T19:06:17Z</time>
      </trkpt>
      <trkpt lat="48.37869" lon="-4.71761">
        <ele>57.5</ele>
        <time>2020-06-08T19:06:18Z</time>
      </trkpt>
      <trkpt lat="48.37866" lon="-4.71769">
        <ele>57.5</ele>
        <time>2020-06-08T19:06:19Z</time>
      </trkpt>
      <trkpt lat="48.37862" lon="-4.71776">
        <ele>57.4</ele>
        <time>2020-06-08T19:06:20Z</time>
      </trkpt>
      <trkpt lat="48.37858" lon="-4.71783">
        <ele>57.3</ele>
        <time>2020-06-08T19:06:21Z</time>
      </trkpt>
      <trkpt lat="48.37854" lon="-4.71791">
        <ele>57.2</ele>
        <time>2020-06-08T19:06:22Z</time>
      </trkpt>
      <trkpt lat="48.37852" lon="-4.71798">
        <ele>57.1</ele>
        <time>2020-06-08T19:06:23Z</time>
      </trkpt>
      <trkpt lat="48.37849" lon="-4.71806">
        <ele>57</ele>
        <time>2020-06-08T19:06:24Z</time>
      </trkpt>
      <trkpt lat="48.37846" lon="-4.71814">
        <ele>56.9</ele>
        <time>2020-06-08T19:06:25Z</time>
      </trkpt>
      <trkpt lat="48.37843" lon="-4.71822">
        <ele>56.9</ele>
        <time>2020-06-08T19:06:26Z</time>
      </trkpt>
      <trkpt lat="48.37839" lon="-4.7183">
        <ele>56.8</ele>
        <time>2020-06-08T19:06:27Z</time>
      </trkpt>
      <trkpt lat="48.37835" lon="-4.71837">
        <ele>56.7</ele>
        <time>2020-06-08T19:06:28Z</time>
      </trkpt>
      <trkpt lat="48.37831" lon="-4.71846">
        <ele>56.6</ele>
        <time>2020-06-08T19:06:29Z</time>
      </trkpt>
      <trkpt lat="48.37827" lon="-4.71854">
        <ele>56.5</ele>
        <time>2020-06-08T19:06:30Z</time>
      </trkpt>
      <trkpt lat="48.37824" lon="-4.71862">
        <ele>56.4</ele>
        <time>2020-06-08T19:06:31Z</time>
      </trkpt>
      <trkpt lat="48.37821" lon="-4.71871">
        <ele>56.3</ele>
        <time>2020-06-08T19:06:32Z</time>
      </trkpt>
      <trkpt lat="48.37818" lon="-4.71879">
        <ele>56.2</ele>
        <time>2020-06-08T19:06:33Z</time>
      </trkpt>
      <trkpt lat="48.37814" lon="-4.71887">
        <ele>56.2</ele>
        <time>2020-06-08T19:06:34Z</time>
      </trkpt>
      <trkpt lat="48.3781" lon="-4.71896">
        <ele>56.2</ele>
        <time>2020-06-08T19:06:35Z</time>
      </trkpt>
      <trkpt lat="48.37806" lon="-4.71903">
        <ele>56.2</ele>
        <time>2020-06-08T19:06:36Z</time>
      </trkpt>
      <trkpt lat="48.37803" lon="-4.71911">
        <ele>56.2</ele>
        <time>2020-06-08T19:06:37Z</time>
      </trkpt>
      <trkpt lat="48.378" lon="-4.71919">
        <ele>56.2</ele>
        <time>2020-06-08T19:06:38Z</time>
      </trkpt>
      <trkpt lat="48.37797" lon="-4.71927">
        <ele>56.1</ele>
        <time>2020-06-08T19:06:39Z</time>
      </trkpt>
      <trkpt lat="48.37794" lon="-4.71935">
        <ele>56.1</ele>
        <time>2020-06-08T19:06:40Z</time>
      </trkpt>
      <trkpt lat="48.37791" lon="-4.71943">
        <ele>56</ele>
        <time>2020-06-08T19:06:41Z</time>
      </trkpt>
      <trkpt lat="48.37787" lon="-4.71952">
        <ele>55.9</ele>
        <time>2020-06-08T19:06:42Z</time>
      </trkpt>
      <trkpt lat="48.37784" lon="-4.71961">
        <ele>55.8</ele>
        <time>2020-06-08T19:06:43Z</time>
      </trkpt>
      <trkpt lat="48.3778" lon="-4.71969">
        <ele>55.8</ele>
        <time>2020-06-08T19:06:44Z</time>
      </trkpt>
      <trkpt lat="48.37776" lon="-4.71978">
        <ele>55.7</ele>
        <time>2020-06-08T19:06:45Z</time>
      </trkpt>
      <trkpt lat="48.37772" lon="-4.71986">
        <ele>55.6</ele>
        <time>2020-06-08T19:06:46Z</time>
      </trkpt>
      <trkpt lat="48.37767" lon="-4.71995">
        <ele>55.6</ele>
        <time>2020-06-08T19:06:47Z</time>
      </trkpt>
      <trkpt lat="48.37764" lon="-4.72004">
        <ele>55.5</ele>
        <time>2020-06-08T19:06:48Z</time>
      </trkpt>
      <trkpt lat="48.3776" lon="-4.72014">
        <ele>55.5</ele>
        <time>2020-06-08T19:06:49Z</time>
      </trkpt>
      <trkpt lat="48.37756" lon="-4.72023">
        <ele>55.4</ele>
        <time>2020-06-08T19:06:50Z</time>
      </trkpt>
      <trkpt lat="48.37752" lon="-4.72032">
        <ele>55.3</ele>
        <time>2020-06-08T19:06:51Z</time>
      </trkpt>
      <trkpt lat="48.37748" lon="-4.72041">
        <ele>55.2</ele>
        <time>2020-06-08T19:06:52Z</time>
      </trkpt>
      <trkpt lat="48.37744" lon="-4.7205">
        <ele>55.1</ele>
        <time>2020-06-08T19:06:53Z</time>
      </trkpt>
      <trkpt lat="48.3774" lon="-4.72058">
        <ele>55.1</ele>
        <time>2020-06-08T19:06:54Z</time>
      </trkpt>
      <trkpt lat="48.37736" lon="-4.72067">
        <ele>55</ele>
        <time>2020-06-08T19:06:55Z</time>
      </trkpt>
      <trkpt lat="48.37732" lon="-4.72076">
        <ele>54.9</ele>
        <time>2020-06-08T19:06:56Z</time>
      </trkpt>
      <trkpt lat="48.37728" lon="-4.72085">
        <ele>54.8</ele>
        <time>2020-06-08T19:06:57Z</time>
      </trkpt>
      <trkpt lat="48.37724" lon="-4.72094">
        <ele>54.7</ele>
        <time>2020-06-08T19:06:58Z</time>
      </trkpt>
      <trkpt lat="48.3772" lon="-4.72103">
        <ele>54.6</ele>
        <time>2020-06-08T19:06:59Z</time>
      </trkpt>
      <trkpt lat="48.37716" lon="-4.72112">
        <ele>54.6</ele>
        <time>2020-06-08T19:07:00Z</time>
      </trkpt>
      <trkpt lat="48.37712" lon="-4.7212">
        <ele>54.5</ele>
        <time>2020-06-08T19:07:01Z</time>
      </trkpt>
      <trkpt lat="48.37707" lon="-4.72128">
        <ele>54.4</ele>
        <time>2020-06-08T19:07:02Z</time>
      </trkpt>
      <trkpt lat="48.37703" lon="-4.72136">
        <ele>54.3</ele>
        <time>2020-06-08T19:07:03Z</time>
      </trkpt>
      <trkpt lat="48.37698" lon="-4.72144">
        <ele>54.3</ele>
        <time>2020-06-08T19:07:04Z</time>
      </trkpt>
      <trkpt lat="48.37693" lon="-4.72152">
        <ele>54.2</ele>
        <time>2020-06-08T19:07:05Z</time>
      </trkpt>
      <trkpt lat="48.37689" lon="-4.72162">
        <ele>54.1</ele>
        <time>2020-06-08T19:07:06Z</time>
      </trkpt>
      <trkpt lat="48.37684" lon="-4.72172">
        <ele>54</ele>
        <time>2020-06-08T19:07:07Z</time>
      </trkpt>
      <trkpt lat="48.3768" lon="-4.72181">
        <ele>53.8</ele>
        <time>2020-06-08T19:07:08Z</time>
      </trkpt>
      <trkpt lat="48.37675" lon="-4.7219">
        <ele>53.7</ele>
        <time>2020-06-08T19:07:09Z</time>
      </trkpt>
      <trkpt lat="48.3767" lon="-4.722">
        <ele>53.3</ele>
        <time>2020-06-08T19:07:10Z</time>
      </trkpt>
      <trkpt lat="48.37665" lon="-4.72209">
        <ele>53</ele>
        <time>2020-06-08T19:07:11Z</time>
      </trkpt>
      <trkpt lat="48.37661" lon="-4.72219">
        <ele>52.8</ele>
        <time>2020-06-08T19:07:12Z</time>
      </trkpt>
      <trkpt lat="48.37655" lon="-4.72228">
        <ele>52.6</ele>
        <time>2020-06-08T19:07:13Z</time>
      </trkpt>
      <trkpt lat="48.3765" lon="-4.72237">
        <ele>52.4</ele>
        <time>2020-06-08T19:07:14Z</time>
      </trkpt>
      <trkpt lat="48.37645" lon="-4.72246">
        <ele>52.3</ele>
        <time>2020-06-08T19:07:15Z</time>
      </trkpt>
      <trkpt lat="48.3764" lon="-4.72256">
        <ele>52.1</ele>
        <time>2020-06-08T19:07:16Z</time>
      </trkpt>
      <trkpt lat="48.37635" lon="-4.72266">
        <ele>52</ele>
        <time>2020-06-08T19:07:17Z</time>
      </trkpt>
      <trkpt lat="48.3763" lon="-4.72276">
        <ele>51.9</ele>
        <time>2020-06-08T19:07:18Z</time>
      </trkpt>
      <trkpt lat="48.37625" lon="-4.72285">
        <ele>51.8</ele>
        <time>2020-06-08T19:07:19Z</time>
      </trkpt>
      <trkpt lat="48.37619" lon="-4.72294">
        <ele>51.7</ele>
        <time>2020-06-08T19:07:20Z</time>
      </trkpt>
      <trkpt lat="48.37613" lon="-4.72304">
        <ele>51.6</ele>
        <time>2020-06-08T19:07:21Z</time>
      </trkpt>
      <trkpt lat="48.37608" lon="-4.72313">
        <ele>51.5</ele>
        <time>2020-06-08T19:07:22Z</time>
      </trkpt>
      <trkpt lat="48.37603" lon="-4.72323">
        <ele>51.4</ele>
        <time>2020-06-08T19:07:23Z</time>
      </trkpt>
      <trkpt lat="48.37599" lon="-4.72333">
        <ele>51.3</ele>
        <time>2020-06-08T19:07:24Z</time>
      </trkpt>
      <trkpt lat="48.37594" lon="-4.72343">
        <ele>51.1</ele>
        <time>2020-06-08T19:07:25Z</time>
      </trkpt>
      <trkpt lat="48.37588" lon="-4.72352">
        <ele>50.9</ele>
        <time>2020-06-08T19:07:26Z</time>
      </trkpt>
      <trkpt lat="48.37583" lon="-4.7236">
        <ele>50.8</ele>
        <time>2020-06-08T19:07:27Z</time>
      </trkpt>
      <trkpt lat="48.37578" lon="-4.72369">
        <ele>50.7</ele>
        <time>2020-06-08T19:07:28Z</time>
      </trkpt>
      <trkpt lat="48.37573" lon="-4.72379">
        <ele>50.7</ele>
        <time>2020-06-08T19:07:29Z</time>
      </trkpt>
      <trkpt lat="48.37568" lon="-4.72388">
        <ele>50.6</ele>
        <time>2020-06-08T19:07:30Z</time>
      </trkpt>
      <trkpt lat="48.37564" lon="-4.72398">
        <ele>50.5</ele>
        <time>2020-06-08T19:07:31Z</time>
      </trkpt>
      <trkpt lat="48.37559" lon="-4.72407">
        <ele>50.3</ele>
        <time>2020-06-08T19:07:32Z</time>
      </trkpt>
      <trkpt lat="48.37554" lon="-4.72416">
        <ele>50.1</ele>
        <time>2020-06-08T19:07:33Z</time>
      </trkpt>
      <trkpt lat="48.3755" lon="-4.72426">
        <ele>49.9</ele>
        <time>2020-06-08T19:07:34Z</time>
      </trkpt>
      <trkpt lat="48.37545" lon="-4.72435">
        <ele>49.7</ele>
        <time>2020-06-08T19:07:35Z</time>
      </trkpt>
      <trkpt lat="48.3754" lon="-4.72445">
        <ele>49.5</ele>
        <time>2020-06-08T19:07:36Z</time>
      </trkpt>
      <trkpt lat="48.37535" lon="-4.72454">
        <ele>49.3</ele>
        <time>2020-06-08T19:07:37Z</time>
      </trkpt>
      <trkpt lat="48.3753" lon="-4.72463">
        <ele>49.2</ele>
        <time>2020-06-08T19:07:38Z</time>
      </trkpt>
      <trkpt lat="48.37525" lon="-4.72472">
        <ele>49</ele>
        <time>2020-06-08T19:07:39Z</time>
      </trkpt>
      <trkpt lat="48.3752" lon="-4.72481">
        <ele>48.9</ele>
        <time>2020-06-08T19:07:40Z</time>
      </trkpt>
      <trkpt lat="48.37515" lon="-4.7249">
        <ele>48.9</ele>
        <time>2020-06-08T19:07:41Z</time>
      </trkpt>
      <trkpt lat="48.37509" lon="-4.72499">
        <ele>48.8</ele>
        <time>2020-06-08T19:07:42Z</time>
      </trkpt>
      <trkpt lat="48.37504" lon="-4.72508">
        <ele>48.5</ele>
        <time>2020-06-08T19:07:43Z</time>
      </trkpt>
      <trkpt lat="48.37499" lon="-4.72518">
        <ele>48.2</ele>
        <time>2020-06-08T19:07:44Z</time>
      </trkpt>
      <trkpt lat="48.37494" lon="-4.72528">
        <ele>48</ele>
        <time>2020-06-08T19:07:45Z</time>
      </trkpt>
      <trkpt lat="48.37489" lon="-4.72537">
        <ele>47.7</ele>
        <time>2020-06-08T19:07:46Z</time>
      </trkpt>
      <trkpt lat="48.37483" lon="-4.72547">
        <ele>47.5</ele>
        <time>2020-06-08T19:07:47Z</time>
      </trkpt>
      <trkpt lat="48.37477" lon="-4.72556">
        <ele>47.3</ele>
        <time>2020-06-08T19:07:48Z</time>
      </trkpt>
      <trkpt lat="48.37472" lon="-4.72565">
        <ele>47.1</ele>
        <time>2020-06-08T19:07:49Z</time>
      </trkpt>
      <trkpt lat="48.37467" lon="-4.72575">
        <ele>46.9</ele>
        <time>2020-06-08T19:07:50Z</time>
      </trkpt>
      <trkpt lat="48.37462" lon="-4.72585">
        <ele>46.7</ele>
        <time>2020-06-08T19:07:51Z</time>
      </trkpt>
      <trkpt lat="48.37457" lon="-4.72595">
        <ele>46.5</ele>
        <time>2020-06-08T19:07:52Z</time>
      </trkpt>
      <trkpt lat="48.37452" lon="-4.72606">
        <ele>46.3</ele>
        <time>2020-06-08T19:07:53Z</time>
      </trkpt>
      <trkpt lat="48.37447" lon="-4.72615">
        <ele>46.1</ele>
        <time>2020-06-08T19:07:54Z</time>
      </trkpt>
      <trkpt lat="48.37442" lon="-4.72624">
        <ele>45.8</ele>
        <time>2020-06-08T19:07:55Z</time>
      </trkpt>
      <trkpt lat="48.37436" lon="-4.72633">
        <ele>45.7</ele>
        <time>2020-06-08T19:07:56Z</time>
      </trkpt>
      <trkpt lat="48.37431" lon="-4.72642">
        <ele>45.5</ele>
        <time>2020-06-08T19:07:57Z</time>
      </trkpt>
      <trkpt lat="48.37426" lon="-4.72652">
        <ele>45.3</ele>
        <time>2020-06-08T19:07:58Z</time>
      </trkpt>
      <trkpt lat="48.3742" lon="-4.72661">
        <ele>45.1</ele>
        <time>2020-06-08T19:07:59Z</time>
      </trkpt>
      <trkpt lat="48.37416" lon="-4.72671">
        <ele>44.8</ele>
        <time>2020-06-08T19:08:00Z</time>
      </trkpt>
      <trkpt lat="48.3741" lon="-4.7268">
        <ele>44.6</ele>
        <time>2020-06-08T19:08:01Z</time>
      </trkpt>
      <trkpt lat="48.37403" lon="-4.72689">
        <ele>44.3</ele>
        <time>2020-06-08T19:08:02Z</time>
      </trkpt>
      <trkpt lat="48.37397" lon="-4.72699">
        <ele>44</ele>
        <time>2020-06-08T19:08:03Z</time>
      </trkpt>
      <trkpt lat="48.37393" lon="-4.7271">
        <ele>43.8</ele>
        <time>2020-06-08T19:08:04Z</time>
      </trkpt>
      <trkpt lat="48.37388" lon="-4.72719">
        <ele>43.7</ele>
        <time>2020-06-08T19:08:05Z</time>
      </trkpt>
      <trkpt lat="48.37384" lon="-4.72728">
        <ele>43.5</ele>
        <time>2020-06-08T19:08:06Z</time>
      </trkpt>
      <trkpt lat="48.37378" lon="-4.72737">
        <ele>43.4</ele>
        <time>2020-06-08T19:08:07Z</time>
      </trkpt>
      <trkpt lat="48.37372" lon="-4.72746">
        <ele>43.3</ele>
        <time>2020-06-08T19:08:08Z</time>
      </trkpt>
      <trkpt lat="48.37367" lon="-4.72756">
        <ele>43.2</ele>
        <time>2020-06-08T19:08:09Z</time>
      </trkpt>
      <trkpt lat="48.37361" lon="-4.72764">
        <ele>43.2</ele>
        <time>2020-06-08T19:08:10Z</time>
      </trkpt>
      <trkpt lat="48.37356" lon="-4.72773">
        <ele>43.1</ele>
        <time>2020-06-08T19:08:11Z</time>
      </trkpt>
      <trkpt lat="48.37352" lon="-4.72782">
        <ele>43.1</ele>
        <time>2020-06-08T19:08:12Z</time>
      </trkpt>
      <trkpt lat="48.37346" lon="-4.72791">
        <ele>43.1</ele>
        <time>2020-06-08T19:08:13Z</time>
      </trkpt>
      <trkpt lat="48.37341" lon="-4.72799">
        <ele>43.1</ele>
        <time>2020-06-08T19:08:14Z</time>
      </trkpt>
      <trkpt lat="48.37337" lon="-4.72808">
        <ele>43</ele>
        <time>2020-06-08T19:08:15Z</time>
      </trkpt>
      <trkpt lat="48.37332" lon="-4.72818">
        <ele>43</ele>
        <time>2020-06-08T19:08:16Z</time>
      </trkpt>
      <trkpt lat="48.37327" lon="-4.72826">
        <ele>43</ele>
        <time>2020-06-08T19:08:17Z</time>
      </trkpt>
      <trkpt lat="48.37323" lon="-4.72833">
        <ele>43</ele>
        <time>2020-06-08T19:08:18Z</time>
      </trkpt>
      <trkpt lat="48.37318" lon="-4.72841">
        <ele>43</ele>
        <time>2020-06-08T19:08:19Z</time>
      </trkpt>
      <trkpt lat="48.37313" lon="-4.72849">
        <ele>43</ele>
        <time>2020-06-08T19:08:20Z</time>
      </trkpt>
      <trkpt lat="48.37309" lon="-4.72859">
        <ele>42.9</ele>
        <time>2020-06-08T19:08:21Z</time>
      </trkpt>
      <trkpt lat="48.37304" lon="-4.72867">
        <ele>42.9</ele>
        <time>2020-06-08T19:08:22Z</time>
      </trkpt>
      <trkpt lat="48.37299" lon="-4.72875">
        <ele>42.8</ele>
        <time>2020-06-08T19:08:23Z</time>
      </trkpt>
      <trkpt lat="48.37295" lon="-4.72883">
        <ele>42.6</ele>
        <time>2020-06-08T19:08:24Z</time>
      </trkpt>
      <trkpt lat="48.37291" lon="-4.72893">
        <ele>42.5</ele>
        <time>2020-06-08T19:08:25Z</time>
      </trkpt>
      <trkpt lat="48.37286" lon="-4.72901">
        <ele>42.4</ele>
        <time>2020-06-08T19:08:26Z</time>
      </trkpt>
      <trkpt lat="48.37282" lon="-4.7291">
        <ele>42.2</ele>
        <time>2020-06-08T19:08:27Z</time>
      </trkpt>
      <trkpt lat="48.37277" lon="-4.72919">
        <ele>42.1</ele>
        <time>2020-06-08T19:08:28Z</time>
      </trkpt>
      <trkpt lat="48.37272" lon="-4.72928">
        <ele>41.9</ele>
        <time>2020-06-08T19:08:29Z</time>
      </trkpt>
      <trkpt lat="48.37266" lon="-4.72935">
        <ele>41.8</ele>
        <time>2020-06-08T19:08:30Z</time>
      </trkpt>
      <trkpt lat="48.37261" lon="-4.72944">
        <ele>41.7</ele>
        <time>2020-06-08T19:08:31Z</time>
      </trkpt>
      <trkpt lat="48.37256" lon="-4.72952">
        <ele>41.6</ele>
        <time>2020-06-08T19:08:32Z</time>
      </trkpt>
      <trkpt lat="48.37252" lon="-4.72962">
        <ele>41.5</ele>
        <time>2020-06-08T19:08:33Z</time>
      </trkpt>
      <trkpt lat="48.37247" lon="-4.72971">
        <ele>41.4</ele>
        <time>2020-06-08T19:08:34Z</time>
      </trkpt>
      <trkpt lat="48.37243" lon="-4.7298">
        <ele>41.3</ele>
        <time>2020-06-08T19:08:35Z</time>
      </trkpt>
      <trkpt lat="48.37238" lon="-4.72988">
        <ele>41.2</ele>
        <time>2020-06-08T19:08:36Z</time>
      </trkpt>
      <trkpt lat="48.37233" lon="-4.72997">
        <ele>41.1</ele>
        <time>2020-06-08T19:08:37Z</time>
      </trkpt>
      <trkpt lat="48.37229" lon="-4.73007">
        <ele>41</ele>
        <time>2020-06-08T19:08:38Z</time>
      </trkpt>
      <trkpt lat="48.37224" lon="-4.73016">
        <ele>40.8</ele>
        <time>2020-06-08T19:08:39Z</time>
      </trkpt>
      <trkpt lat="48.37219" lon="-4.73025">
        <ele>40.6</ele>
        <time>2020-06-08T19:08:40Z</time>
      </trkpt>
      <trkpt lat="48.37213" lon="-4.73034">
        <ele>40.3</ele>
        <time>2020-06-08T19:08:41Z</time>
      </trkpt>
      <trkpt lat="48.37207" lon="-4.73042">
        <ele>40.2</ele>
        <time>2020-06-08T19:08:42Z</time>
      </trkpt>
      <trkpt lat="48.37201" lon="-4.7305">
        <ele>40.1</ele>
        <time>2020-06-08T19:08:43Z</time>
      </trkpt>
      <trkpt lat="48.37195" lon="-4.7306">
        <ele>40</ele>
        <time>2020-06-08T19:08:44Z</time>
      </trkpt>
      <trkpt lat="48.37189" lon="-4.73068">
        <ele>39.8</ele>
        <time>2020-06-08T19:08:45Z</time>
      </trkpt>
      <trkpt lat="48.37184" lon="-4.73076">
        <ele>39.6</ele>
        <time>2020-06-08T19:08:46Z</time>
      </trkpt>
      <trkpt lat="48.37178" lon="-4.73084">
        <ele>39.5</ele>
        <time>2020-06-08T19:08:47Z</time>
      </trkpt>
      <trkpt lat="48.37173" lon="-4.73092">
        <ele>39.4</ele>
        <time>2020-06-08T19:08:48Z</time>
      </trkpt>
      <trkpt lat="48.37167" lon="-4.73099">
        <ele>39.4</ele>
        <time>2020-06-08T19:08:49Z</time>
      </trkpt>
      <trkpt lat="48.37162" lon="-4.73106">
        <ele>39.4</ele>
        <time>2020-06-08T19:08:50Z</time>
      </trkpt>
      <trkpt lat="48.37157" lon="-4.73112">
        <ele>39.5</ele>
        <time>2020-06-08T19:08:51Z</time>
      </trkpt>
      <trkpt lat="48.37152" lon="-4.7312">
        <ele>39.5</ele>
        <time>2020-06-08T19:08:52Z</time>
      </trkpt>
      <trkpt lat="48.37147" lon="-4.73126">
        <ele>39.6</ele>
        <time>2020-06-08T19:08:53Z</time>
      </trkpt>
      <trkpt lat="48.37142" lon="-4.73134">
        <ele>39.6</ele>
        <time>2020-06-08T19:08:54Z</time>
      </trkpt>
      <trkpt lat="48.37137" lon="-4.7314">
        <ele>39.7</ele>
        <time>2020-06-08T19:08:55Z</time>
      </trkpt>
      <trkpt lat="48.37131" lon="-4.73147">
        <ele>39.8</ele>
        <time>2020-06-08T19:08:56Z</time>
      </trkpt>
      <trkpt lat="48.37126" lon="-4.73153">
        <ele>39.9</ele>
        <time>2020-06-08T19:08:57Z</time>
      </trkpt>
      <trkpt lat="48.37121" lon="-4.73159">
        <ele>40</ele>
        <time>2020-06-08T19:08:58Z</time>
      </trkpt>
      <trkpt lat="48.37117" lon="-4.73166">
        <ele>40.1</ele>
        <time>2020-06-08T19:08:59Z</time>
      </trkpt>
      <trkpt lat="48.37112" lon="-4.73172">
        <ele>40.2</ele>
        <time>2020-06-08T19:09:00Z</time>
      </trkpt>
      <trkpt lat="48.37107" lon="-4.73178">
        <ele>40.4</ele>
        <time>2020-06-08T19:09:01Z</time>
      </trkpt>
      <trkpt lat="48.37103" lon="-4.73184">
        <ele>40.5</ele>
        <time>2020-06-08T19:09:02Z</time>
      </trkpt>
      <trkpt lat="48.37098" lon="-4.73189">
        <ele>40.7</ele>
        <time>2020-06-08T19:09:03Z</time>
      </trkpt>
      <trkpt lat="48.37094" lon="-4.73195">
        <ele>40.9</ele>
        <time>2020-06-08T19:09:04Z</time>
      </trkpt>
      <trkpt lat="48.3709" lon="-4.73201">
        <ele>41</ele>
        <time>2020-06-08T19:09:05Z</time>
      </trkpt>
      <trkpt lat="48.37086" lon="-4.73206">
        <ele>41.1</ele>
        <time>2020-06-08T19:09:06Z</time>
      </trkpt>
      <trkpt lat="48.37082" lon="-4.7321">
        <ele>41.3</ele>
        <time>2020-06-08T19:09:07Z</time>
      </trkpt>
      <trkpt lat="48.37079" lon="-4.73215">
        <ele>41.4</ele>
        <time>2020-06-08T19:09:08Z</time>
      </trkpt>
      <trkpt lat="48.37076" lon="-4.73219">
        <ele>41.5</ele>
        <time>2020-06-08T19:09:09Z</time>
      </trkpt>
      <trkpt lat="48.37072" lon="-4.73223">
        <ele>41.6</ele>
        <time>2020-06-08T19:09:10Z</time>
      </trkpt>
      <trkpt lat="48.37069" lon="-4.73228">
        <ele>41.7</ele>
        <time>2020-06-08T19:09:11Z</time>
      </trkpt>
      <trkpt lat="48.37065" lon="-4.73232">
        <ele>41.8</ele>
        <time>2020-06-08T19:09:12Z</time>
      </trkpt>
      <trkpt lat="48.37061" lon="-4.73237">
        <ele>41.9</ele>
        <time>2020-06-08T19:09:13Z</time>
      </trkpt>
      <trkpt lat="48.37057" lon="-4.73241">
        <ele>42</ele>
        <time>2020-06-08T19:09:14Z</time>
      </trkpt>
      <trkpt lat="48.37052" lon="-4.73245">
        <ele>42</ele>
        <time>2020-06-08T19:09:15Z</time>
      </trkpt>
      <trkpt lat="48.37048" lon="-4.73248">
        <ele>42</ele>
        <time>2020-06-08T19:09:16Z</time>
      </trkpt>
      <trkpt lat="48.37044" lon="-4.73252">
        <ele>42</ele>
        <time>2020-06-08T19:09:17Z</time>
      </trkpt>
      <trkpt lat="48.3704" lon="-4.73257">
        <ele>42</ele>
        <time>2020-06-08T19:09:18Z</time>
      </trkpt>
      <trkpt lat="48.37036" lon="-4.73262">
        <ele>42.1</ele>
        <time>2020-06-08T19:09:19Z</time>
      </trkpt>
      <trkpt lat="48.37031" lon="-4.73267">
        <ele>42.1</ele>
        <time>2020-06-08T19:09:20Z</time>
      </trkpt>
      <trkpt lat="48.37027" lon="-4.73271">
        <ele>42.1</ele>
        <time>2020-06-08T19:09:21Z</time>
      </trkpt>
      <trkpt lat="48.37023" lon="-4.73277">
        <ele>42.1</ele>
        <time>2020-06-08T19:09:22Z</time>
      </trkpt>
      <trkpt lat="48.37018" lon="-4.73282">
        <ele>42.1</ele>
        <time>2020-06-08T19:09:23Z</time>
      </trkpt>
      <trkpt lat="48.37014" lon="-4.73286">
        <ele>42.2</ele>
        <time>2020-06-08T19:09:24Z</time>
      </trkpt>
      <trkpt lat="48.3701" lon="-4.73292">
        <ele>42.2</ele>
        <time>2020-06-08T19:09:25Z</time>
      </trkpt>
      <trkpt lat="48.37005" lon="-4.73297">
        <ele>42.1</ele>
        <time>2020-06-08T19:09:26Z</time>
      </trkpt>
      <trkpt lat="48.37001" lon="-4.73304">
        <ele>42.1</ele>
        <time>2020-06-08T19:09:27Z</time>
      </trkpt>
      <trkpt lat="48.36996" lon="-4.73308">
        <ele>42.1</ele>
        <time>2020-06-08T19:09:28Z</time>
      </trkpt>
      <trkpt lat="48.36992" lon="-4.73314">
        <ele>42</ele>
        <time>2020-06-08T19:09:29Z</time>
      </trkpt>
      <trkpt lat="48.36987" lon="-4.73319">
        <ele>42</ele>
        <time>2020-06-08T19:09:30Z</time>
      </trkpt>
      <trkpt lat="48.36982" lon="-4.73324">
        <ele>41.9</ele>
        <time>2020-06-08T19:09:31Z</time>
      </trkpt>
      <trkpt lat="48.36977" lon="-4.73328">
        <ele>41.9</ele>
        <time>2020-06-08T19:09:32Z</time>
      </trkpt>
      <trkpt lat="48.36972" lon="-4.73334">
        <ele>41.8</ele>
        <time>2020-06-08T19:09:33Z</time>
      </trkpt>
      <trkpt lat="48.36966" lon="-4.73339">
        <ele>41.8</ele>
        <time>2020-06-08T19:09:34Z</time>
      </trkpt>
      <trkpt lat="48.3696" lon="-4.73343">
        <ele>41.7</ele>
        <time>2020-06-08T19:09:35Z</time>
      </trkpt>
      <trkpt lat="48.36955" lon="-4.7335">
        <ele>41.6</ele>
        <time>2020-06-08T19:09:36Z</time>
      </trkpt>
      <trkpt lat="48.3695" lon="-4.73355">
        <ele>41.6</ele>
        <time>2020-06-08T19:09:37Z</time>
      </trkpt>
      <trkpt lat="48.36945" lon="-4.73361">
        <ele>41.5</ele>
        <time>2020-06-08T19:09:38Z</time>
      </trkpt>
      <trkpt lat="48.3694" lon="-4.73367">
        <ele>41.4</ele>
        <time>2020-06-08T19:09:39Z</time>
      </trkpt>
      <trkpt lat="48.36935" lon="-4.73372">
        <ele>41.4</ele>
        <time>2020-06-08T19:09:40Z</time>
      </trkpt>
      <trkpt lat="48.36929" lon="-4.73378">
        <ele>41.3</ele>
        <time>2020-06-08T19:09:41Z</time>
      </trkpt>
      <trkpt lat="48.36924" lon="-4.73382">
        <ele>41.2</ele>
        <time>2020-06-08T19:09:42Z</time>
      </trkpt>
      <trkpt lat="48.36918" lon="-4.73387">
        <ele>41.1</ele>
        <time>2020-06-08T19:09:43Z</time>
      </trkpt>
      <trkpt lat="48.36913" lon="-4.73393">
        <ele>41</ele>
        <time>2020-06-08T19:09:44Z</time>
      </trkpt>
      <trkpt lat="48.36908" lon="-4.734">
        <ele>40.9</ele>
        <time>2020-06-08T19:09:45Z</time>
      </trkpt>
      <trkpt lat="48.36902" lon="-4.73406">
        <ele>40.8</ele>
        <time>2020-06-08T19:09:46Z</time>
      </trkpt>
      <trkpt lat="48.36897" lon="-4.73413">
        <ele>40.7</ele>
        <time>2020-06-08T19:09:47Z</time>
      </trkpt>
      <trkpt lat="48.36891" lon="-4.73419">
        <ele>40.6</ele>
        <time>2020-06-08T19:09:48Z</time>
      </trkpt>
      <trkpt lat="48.36886" lon="-4.73425">
        <ele>40.5</ele>
        <time>2020-06-08T19:09:49Z</time>
      </trkpt>
      <trkpt lat="48.3688" lon="-4.73432">
        <ele>40.3</ele>
        <time>2020-06-08T19:09:50Z</time>
      </trkpt>
      <trkpt lat="48.36875" lon="-4.73438">
        <ele>40.2</ele>
        <time>2020-06-08T19:09:51Z</time>
      </trkpt>
      <trkpt lat="48.3687" lon="-4.73445">
        <ele>40.1</ele>
        <time>2020-06-08T19:09:52Z</time>
      </trkpt>
      <trkpt lat="48.36864" lon="-4.73452">
        <ele>39.9</ele>
        <time>2020-06-08T19:09:53Z</time>
      </trkpt>
      <trkpt lat="48.36858" lon="-4.73458">
        <ele>39.8</ele>
        <time>2020-06-08T19:09:54Z</time>
      </trkpt>
      <trkpt lat="48.36852" lon="-4.73464">
        <ele>39.7</ele>
        <time>2020-06-08T19:09:55Z</time>
      </trkpt>
      <trkpt lat="48.36847" lon="-4.73471">
        <ele>39.5</ele>
        <time>2020-06-08T19:09:56Z</time>
      </trkpt>
      <trkpt lat="48.36842" lon="-4.73479">
        <ele>39.4</ele>
        <time>2020-06-08T19:09:57Z</time>
      </trkpt>
      <trkpt lat="48.36836" lon="-4.73487">
        <ele>39.2</ele>
        <time>2020-06-08T19:09:58Z</time>
      </trkpt>
      <trkpt lat="48.36831" lon="-4.73495">
        <ele>39</ele>
        <time>2020-06-08T19:09:59Z</time>
      </trkpt>
      <trkpt lat="48.36826" lon="-4.73504">
        <ele>38.9</ele>
        <time>2020-06-08T19:10:00Z</time>
      </trkpt>
      <trkpt lat="48.3682" lon="-4.73512">
        <ele>38.8</ele>
        <time>2020-06-08T19:10:01Z</time>
      </trkpt>
      <trkpt lat="48.36815" lon="-4.7352">
        <ele>38.7</ele>
        <time>2020-06-08T19:10:02Z</time>
      </trkpt>
      <trkpt lat="48.3681" lon="-4.7353">
        <ele>38.6</ele>
        <time>2020-06-08T19:10:03Z</time>
      </trkpt>
      <trkpt lat="48.36806" lon="-4.73539">
        <ele>38.5</ele>
        <time>2020-06-08T19:10:04Z</time>
      </trkpt>
      <trkpt lat="48.36802" lon="-4.73549">
        <ele>38.4</ele>
        <time>2020-06-08T19:10:05Z</time>
      </trkpt>
      <trkpt lat="48.36798" lon="-4.73559">
        <ele>38.4</ele>
        <time>2020-06-08T19:10:06Z</time>
      </trkpt>
      <trkpt lat="48.36794" lon="-4.73569">
        <ele>38.3</ele>
        <time>2020-06-08T19:10:07Z</time>
      </trkpt>
      <trkpt lat="48.36791" lon="-4.7358">
        <ele>38.2</ele>
        <time>2020-06-08T19:10:08Z</time>
      </trkpt>
      <trkpt lat="48.36788" lon="-4.73591">
        <ele>38.2</ele>
        <time>2020-06-08T19:10:09Z</time>
      </trkpt>
      <trkpt lat="48.36784" lon="-4.73602">
        <ele>38.1</ele>
        <time>2020-06-08T19:10:10Z</time>
      </trkpt>
      <trkpt lat="48.36781" lon="-4.73612">
        <ele>38</ele>
        <time>2020-06-08T19:10:11Z</time>
      </trkpt>
      <trkpt lat="48.36778" lon="-4.73622">
        <ele>37.9</ele>
        <time>2020-06-08T19:10:12Z</time>
      </trkpt>
      <trkpt lat="48.36775" lon="-4.73632">
        <ele>37.7</ele>
        <time>2020-06-08T19:10:13Z</time>
      </trkpt>
      <trkpt lat="48.36773" lon="-4.73643">
        <ele>37.7</ele>
        <time>2020-06-08T19:10:14Z</time>
      </trkpt>
      <trkpt lat="48.3677" lon="-4.73653">
        <ele>37.7</ele>
        <time>2020-06-08T19:10:15Z</time>
      </trkpt>
      <trkpt lat="48.36768" lon="-4.73663">
        <ele>37.7</ele>
        <time>2020-06-08T19:10:16Z</time>
      </trkpt>
      <trkpt lat="48.36766" lon="-4.73673">
        <ele>37.7</ele>
        <time>2020-06-08T19:10:17Z</time>
      </trkpt>
      <trkpt lat="48.36763" lon="-4.73683">
        <ele>37.7</ele>
        <time>2020-06-08T19:10:18Z</time>
      </trkpt>
      <trkpt lat="48.3676" lon="-4.73693">
        <ele>37.7</ele>
        <time>2020-06-08T19:10:19Z</time>
      </trkpt>
      <trkpt lat="48.36757" lon="-4.73702">
        <ele>37.7</ele>
        <time>2020-06-08T19:10:20Z</time>
      </trkpt>
      <trkpt lat="48.36755" lon="-4.73711">
        <ele>37.8</ele>
        <time>2020-06-08T19:10:21Z</time>
      </trkpt>
      <trkpt lat="48.36753" lon="-4.73721">
        <ele>37.8</ele>
        <time>2020-06-08T19:10:22Z</time>
      </trkpt>
      <trkpt lat="48.3675" lon="-4.73731">
        <ele>37.8</ele>
        <time>2020-06-08T19:10:23Z</time>
      </trkpt>
      <trkpt lat="48.36748" lon="-4.73741">
        <ele>37.8</ele>
        <time>2020-06-08T19:10:24Z</time>
      </trkpt>
      <trkpt lat="48.36745" lon="-4.7375">
        <ele>37.8</ele>
        <time>2020-06-08T19:10:25Z</time>
      </trkpt>
      <trkpt lat="48.36741" lon="-4.73758">
        <ele>37.8</ele>
        <time>2020-06-08T19:10:26Z</time>
      </trkpt>
      <trkpt lat="48.36738" lon="-4.73768">
        <ele>37.8</ele>
        <time>2020-06-08T19:10:27Z</time>
      </trkpt>
      <trkpt lat="48.36735" lon="-4.73777">
        <ele>37.8</ele>
        <time>2020-06-08T19:10:28Z</time>
      </trkpt>
      <trkpt lat="48.36732" lon="-4.73786">
        <ele>37.8</ele>
        <time>2020-06-08T19:10:29Z</time>
      </trkpt>
      <trkpt lat="48.36729" lon="-4.73795">
        <ele>37.7</ele>
        <time>2020-06-08T19:10:30Z</time>
      </trkpt>
      <trkpt lat="48.36726" lon="-4.73805">
        <ele>37.7</ele>
        <time>2020-06-08T19:10:31Z</time>
      </trkpt>
      <trkpt lat="48.36723" lon="-4.73814">
        <ele>37.7</ele>
        <time>2020-06-08T19:10:32Z</time>
      </trkpt>
      <trkpt lat="48.36719" lon="-4.73823">
        <ele>37.6</ele>
        <time>2020-06-08T19:10:33Z</time>
      </trkpt>
      <trkpt lat="48.36716" lon="-4.73832">
        <ele>37.6</ele>
        <time>2020-06-08T19:10:34Z</time>
      </trkpt>
      <trkpt lat="48.36713" lon="-4.73842">
        <ele>37.5</ele>
        <time>2020-06-08T19:10:35Z</time>
      </trkpt>
      <trkpt lat="48.3671" lon="-4.73851">
        <ele>37.5</ele>
        <time>2020-06-08T19:10:36Z</time>
      </trkpt>
      <trkpt lat="48.36707" lon="-4.73861">
        <ele>37.4</ele>
        <time>2020-06-08T19:10:37Z</time>
      </trkpt>
      <trkpt lat="48.36704" lon="-4.73871">
        <ele>37.3</ele>
        <time>2020-06-08T19:10:38Z</time>
      </trkpt>
      <trkpt lat="48.36701" lon="-4.7388">
        <ele>37.2</ele>
        <time>2020-06-08T19:10:39Z</time>
      </trkpt>
      <trkpt lat="48.36698" lon="-4.73889">
        <ele>36.7</ele>
        <time>2020-06-08T19:10:40Z</time>
      </trkpt>
      <trkpt lat="48.36694" lon="-4.73898">
        <ele>36.5</ele>
        <time>2020-06-08T19:10:41Z</time>
      </trkpt>
      <trkpt lat="48.3669" lon="-4.73908">
        <ele>36.4</ele>
        <time>2020-06-08T19:10:42Z</time>
      </trkpt>
      <trkpt lat="48.36687" lon="-4.73917">
        <ele>36.3</ele>
        <time>2020-06-08T19:10:43Z</time>
      </trkpt>
      <trkpt lat="48.36683" lon="-4.73927">
        <ele>36.2</ele>
        <time>2020-06-08T19:10:44Z</time>
      </trkpt>
      <trkpt lat="48.3668" lon="-4.73937">
        <ele>36.2</ele>
        <time>2020-06-08T19:10:45Z</time>
      </trkpt>
      <trkpt lat="48.36677" lon="-4.73946">
        <ele>36.1</ele>
        <time>2020-06-08T19:10:46Z</time>
      </trkpt>
      <trkpt lat="48.36674" lon="-4.73956">
        <ele>36</ele>
        <time>2020-06-08T19:10:47Z</time>
      </trkpt>
      <trkpt lat="48.36671" lon="-4.73965">
        <ele>36</ele>
        <time>2020-06-08T19:10:48Z</time>
      </trkpt>
      <trkpt lat="48.36668" lon="-4.73975">
        <ele>36</ele>
        <time>2020-06-08T19:10:49Z</time>
      </trkpt>
      <trkpt lat="48.36664" lon="-4.73983">
        <ele>36</ele>
        <time>2020-06-08T19:10:50Z</time>
      </trkpt>
      <trkpt lat="48.36661" lon="-4.73993">
        <ele>36</ele>
        <time>2020-06-08T19:10:51Z</time>
      </trkpt>
      <trkpt lat="48.36658" lon="-4.74002">
        <ele>36</ele>
        <time>2020-06-08T19:10:52Z</time>
      </trkpt>
      <trkpt lat="48.36655" lon="-4.74012">
        <ele>35.9</ele>
        <time>2020-06-08T19:10:53Z</time>
      </trkpt>
      <trkpt lat="48.36652" lon="-4.74021">
        <ele>35.8</ele>
        <time>2020-06-08T19:10:54Z</time>
      </trkpt>
      <trkpt lat="48.36648" lon="-4.7403">
        <ele>35.7</ele>
        <time>2020-06-08T19:10:55Z</time>
      </trkpt>
      <trkpt lat="48.36644" lon="-4.7404">
        <ele>35.7</ele>
        <time>2020-06-08T19:10:56Z</time>
      </trkpt>
      <trkpt lat="48.36641" lon="-4.74049">
        <ele>35.5</ele>
        <time>2020-06-08T19:10:57Z</time>
      </trkpt>
      <trkpt lat="48.36638" lon="-4.74059">
        <ele>35.4</ele>
        <time>2020-06-08T19:10:58Z</time>
      </trkpt>
      <trkpt lat="48.36636" lon="-4.74069">
        <ele>35.3</ele>
        <time>2020-06-08T19:10:59Z</time>
      </trkpt>
      <trkpt lat="48.36632" lon="-4.74079">
        <ele>35.2</ele>
        <time>2020-06-08T19:11:00Z</time>
      </trkpt>
      <trkpt lat="48.36629" lon="-4.74088">
        <ele>35.1</ele>
        <time>2020-06-08T19:11:01Z</time>
      </trkpt>
      <trkpt lat="48.36624" lon="-4.74097">
        <ele>35</ele>
        <time>2020-06-08T19:11:02Z</time>
      </trkpt>
      <trkpt lat="48.36621" lon="-4.74107">
        <ele>34.9</ele>
        <time>2020-06-08T19:11:03Z</time>
      </trkpt>
      <trkpt lat="48.36617" lon="-4.74117">
        <ele>34.8</ele>
        <time>2020-06-08T19:11:04Z</time>
      </trkpt>
      <trkpt lat="48.36614" lon="-4.74127">
        <ele>34.6</ele>
        <time>2020-06-08T19:11:05Z</time>
      </trkpt>
      <trkpt lat="48.3661" lon="-4.74136">
        <ele>34.5</ele>
        <time>2020-06-08T19:11:06Z</time>
      </trkpt>
      <trkpt lat="48.36606" lon="-4.74146">
        <ele>34.3</ele>
        <time>2020-06-08T19:11:07Z</time>
      </trkpt>
      <trkpt lat="48.36602" lon="-4.74156">
        <ele>34.2</ele>
        <time>2020-06-08T19:11:08Z</time>
      </trkpt>
      <trkpt lat="48.36598" lon="-4.74165">
        <ele>34.2</ele>
        <time>2020-06-08T19:11:09Z</time>
      </trkpt>
      <trkpt lat="48.36593" lon="-4.74175">
        <ele>34</ele>
        <time>2020-06-08T19:11:10Z</time>
      </trkpt>
      <trkpt lat="48.36588" lon="-4.74184">
        <ele>33.9</ele>
        <time>2020-06-08T19:11:11Z</time>
      </trkpt>
      <trkpt lat="48.36584" lon="-4.74194">
        <ele>33.7</ele>
        <time>2020-06-08T19:11:12Z</time>
      </trkpt>
      <trkpt lat="48.36579" lon="-4.74204">
        <ele>33.4</ele>
        <time>2020-06-08T19:11:13Z</time>
      </trkpt>
      <trkpt lat="48.36574" lon="-4.74213">
        <ele>33.2</ele>
        <time>2020-06-08T19:11:14Z</time>
      </trkpt>
      <trkpt lat="48.36569" lon="-4.74222">
        <ele>33</ele>
        <time>2020-06-08T19:11:15Z</time>
      </trkpt>
      <trkpt lat="48.36564" lon="-4.74232">
        <ele>32.8</ele>
        <time>2020-06-08T19:11:16Z</time>
      </trkpt>
      <trkpt lat="48.36559" lon="-4.74242">
        <ele>32.5</ele>
        <time>2020-06-08T19:11:17Z</time>
      </trkpt>
      <trkpt lat="48.36554" lon="-4.74251">
        <ele>32.3</ele>
        <time>2020-06-08T19:11:18Z</time>
      </trkpt>
      <trkpt lat="48.36548" lon="-4.74261">
        <ele>32</ele>
        <time>2020-06-08T19:11:19Z</time>
      </trkpt>
      <trkpt lat="48.36543" lon="-4.74271">
        <ele>31.7</ele>
        <time>2020-06-08T19:11:20Z</time>
      </trkpt>
      <trkpt lat="48.36538" lon="-4.74281">
        <ele>31.4</ele>
        <time>2020-06-08T19:11:21Z</time>
      </trkpt>
      <trkpt lat="48.36532" lon="-4.74291">
        <ele>31.1</ele>
        <time>2020-06-08T19:11:22Z</time>
      </trkpt>
      <trkpt lat="48.36527" lon="-4.74302">
        <ele>30.8</ele>
        <time>2020-06-08T19:11:23Z</time>
      </trkpt>
      <trkpt lat="48.36523" lon="-4.74313">
        <ele>30.5</ele>
        <time>2020-06-08T19:11:24Z</time>
      </trkpt>
      <trkpt lat="48.36518" lon="-4.74325">
        <ele>30.1</ele>
        <time>2020-06-08T19:11:25Z</time>
      </trkpt>
      <trkpt lat="48.36514" lon="-4.74336">
        <ele>29.8</ele>
        <time>2020-06-08T19:11:26Z</time>
      </trkpt>
      <trkpt lat="48.36509" lon="-4.74348">
        <ele>29.4</ele>
        <time>2020-06-08T19:11:27Z</time>
      </trkpt>
      <trkpt lat="48.36504" lon="-4.7436">
        <ele>29</ele>
        <time>2020-06-08T19:11:28Z</time>
      </trkpt>
      <trkpt lat="48.36499" lon="-4.74372">
        <ele>28.7</ele>
        <time>2020-06-08T19:11:29Z</time>
      </trkpt>
      <trkpt lat="48.36494" lon="-4.74384">
        <ele>28.4</ele>
        <time>2020-06-08T19:11:30Z</time>
      </trkpt>
      <trkpt lat="48.36489" lon="-4.74396">
        <ele>28</ele>
        <time>2020-06-08T19:11:31Z</time>
      </trkpt>
      <trkpt lat="48.36484" lon="-4.74408">
        <ele>27.7</ele>
        <time>2020-06-08T19:11:32Z</time>
      </trkpt>
      <trkpt lat="48.36479" lon="-4.7442">
        <ele>27.5</ele>
        <time>2020-06-08T19:11:33Z</time>
      </trkpt>
      <trkpt lat="48.36475" lon="-4.74433">
        <ele>27.5</ele>
        <time>2020-06-08T19:11:34Z</time>
      </trkpt>
      <trkpt lat="48.36471" lon="-4.74446">
        <ele>27.5</ele>
        <time>2020-06-08T19:11:35Z</time>
      </trkpt>
      <trkpt lat="48.36467" lon="-4.74459">
        <ele>27.2</ele>
        <time>2020-06-08T19:11:36Z</time>
      </trkpt>
      <trkpt lat="48.36464" lon="-4.74472">
        <ele>27</ele>
        <time>2020-06-08T19:11:37Z</time>
      </trkpt>
      <trkpt lat="48.36461" lon="-4.74484">
        <ele>26.9</ele>
        <time>2020-06-08T19:11:38Z</time>
      </trkpt>
      <trkpt lat="48.36458" lon="-4.74497">
        <ele>26.8</ele>
        <time>2020-06-08T19:11:39Z</time>
      </trkpt>
      <trkpt lat="48.36454" lon="-4.7451">
        <ele>26.7</ele>
        <time>2020-06-08T19:11:40Z</time>
      </trkpt>
      <trkpt lat="48.36451" lon="-4.74522">
        <ele>26.7</ele>
        <time>2020-06-08T19:11:41Z</time>
      </trkpt>
      <trkpt lat="48.36448" lon="-4.74533">
        <ele>26.7</ele>
        <time>2020-06-08T19:11:42Z</time>
      </trkpt>
      <trkpt lat="48.36445" lon="-4.74544">
        <ele>26.7</ele>
        <time>2020-06-08T19:11:43Z</time>
      </trkpt>
      <trkpt lat="48.36442" lon="-4.74555">
        <ele>26.7</ele>
        <time>2020-06-08T19:11:44Z</time>
      </trkpt>
      <trkpt lat="48.36439" lon="-4.74566">
        <ele>26.7</ele>
        <time>2020-06-08T19:11:45Z</time>
      </trkpt>
      <trkpt lat="48.36436" lon="-4.74577">
        <ele>26.7</ele>
        <time>2020-06-08T19:11:46Z</time>
      </trkpt>
      <trkpt lat="48.36434" lon="-4.74587">
        <ele>26.7</ele>
        <time>2020-06-08T19:11:47Z</time>
      </trkpt>
      <trkpt lat="48.36432" lon="-4.74597">
        <ele>26.7</ele>
        <time>2020-06-08T19:11:48Z</time>
      </trkpt>
      <trkpt lat="48.36429" lon="-4.74607">
        <ele>26.7</ele>
        <time>2020-06-08T19:11:49Z</time>
      </trkpt>
      <trkpt lat="48.36427" lon="-4.74618">
        <ele>26.7</ele>
        <time>2020-06-08T19:11:50Z</time>
      </trkpt>
      <trkpt lat="48.36424" lon="-4.74627">
        <ele>26.7</ele>
        <time>2020-06-08T19:11:51Z</time>
      </trkpt>
      <trkpt lat="48.36422" lon="-4.74637">
        <ele>26.7</ele>
        <time>2020-06-08T19:11:52Z</time>
      </trkpt>
      <trkpt lat="48.36419" lon="-4.74646">
        <ele>26.7</ele>
        <time>2020-06-08T19:11:53Z</time>
      </trkpt>
      <trkpt lat="48.36417" lon="-4.74655">
        <ele>26.7</ele>
        <time>2020-06-08T19:11:54Z</time>
      </trkpt>
      <trkpt lat="48.36414" lon="-4.74664">
        <ele>26.6</ele>
        <time>2020-06-08T19:11:55Z</time>
      </trkpt>
      <trkpt lat="48.36412" lon="-4.74673">
        <ele>26.5</ele>
        <time>2020-06-08T19:11:56Z</time>
      </trkpt>
      <trkpt lat="48.3641" lon="-4.74682">
        <ele>26.5</ele>
        <time>2020-06-08T19:11:57Z</time>
      </trkpt>
      <trkpt lat="48.36407" lon="-4.74691">
        <ele>26.4</ele>
        <time>2020-06-08T19:11:58Z</time>
      </trkpt>
      <trkpt lat="48.36405" lon="-4.74701">
        <ele>26.3</ele>
        <time>2020-06-08T19:11:59Z</time>
      </trkpt>
      <trkpt lat="48.36403" lon="-4.7471">
        <ele>26.3</ele>
        <time>2020-06-08T19:12:00Z</time>
      </trkpt>
      <trkpt lat="48.364" lon="-4.74719">
        <ele>26.3</ele>
        <time>2020-06-08T19:12:01Z</time>
      </trkpt>
      <trkpt lat="48.36396" lon="-4.74728">
        <ele>26.3</ele>
        <time>2020-06-08T19:12:02Z</time>
      </trkpt>
      <trkpt lat="48.36392" lon="-4.74736">
        <ele>26.3</ele>
        <time>2020-06-08T19:12:03Z</time>
      </trkpt>
      <trkpt lat="48.36388" lon="-4.74743">
        <ele>26.3</ele>
        <time>2020-06-08T19:12:04Z</time>
      </trkpt>
      <trkpt lat="48.36382" lon="-4.74748">
        <ele>26.3</ele>
        <time>2020-06-08T19:12:05Z</time>
      </trkpt>
      <trkpt lat="48.36376" lon="-4.74752">
        <ele>26.4</ele>
        <time>2020-06-08T19:12:06Z</time>
      </trkpt>
      <trkpt lat="48.3637" lon="-4.74755">
        <ele>26.4</ele>
        <time>2020-06-08T19:12:07Z</time>
      </trkpt>
      <trkpt lat="48.36365" lon="-4.74758">
        <ele>26.6</ele>
        <time>2020-06-08T19:12:08Z</time>
      </trkpt>
      <trkpt lat="48.36359" lon="-4.74759">
        <ele>26.7</ele>
        <time>2020-06-08T19:12:09Z</time>
      </trkpt>
      <trkpt lat="48.36354" lon="-4.74761">
        <ele>26.9</ele>
        <time>2020-06-08T19:12:10Z</time>
      </trkpt>
      <trkpt lat="48.36349" lon="-4.74763">
        <ele>27</ele>
        <time>2020-06-08T19:12:11Z</time>
      </trkpt>
      <trkpt lat="48.36344" lon="-4.74765">
        <ele>27.1</ele>
        <time>2020-06-08T19:12:12Z</time>
      </trkpt>
      <trkpt lat="48.3634" lon="-4.74766">
        <ele>27.2</ele>
        <time>2020-06-08T19:12:13Z</time>
      </trkpt>
      <trkpt lat="48.36337" lon="-4.74766">
        <ele>27.3</ele>
        <time>2020-06-08T19:12:14Z</time>
      </trkpt>
      <trkpt lat="48.36333" lon="-4.74767">
        <ele>27.4</ele>
        <time>2020-06-08T19:12:15Z</time>
      </trkpt>
      <trkpt lat="48.36329" lon="-4.74768">
        <ele>27.5</ele>
        <time>2020-06-08T19:12:16Z</time>
      </trkpt>
      <trkpt lat="48.36324" lon="-4.74769">
        <ele>27.6</ele>
        <time>2020-06-08T19:12:17Z</time>
      </trkpt>
      <trkpt lat="48.36319" lon="-4.74767">
        <ele>27.7</ele>
        <time>2020-06-08T19:12:18Z</time>
      </trkpt>
      <trkpt lat="48.36315" lon="-4.74768">
        <ele>27.8</ele>
        <time>2020-06-08T19:12:19Z</time>
      </trkpt>
      <trkpt lat="48.3631" lon="-4.74769">
        <ele>27.9</ele>
        <time>2020-06-08T19:12:20Z</time>
      </trkpt>
      <trkpt lat="48.36305" lon="-4.74768">
        <ele>28</ele>
        <time>2020-06-08T19:12:21Z</time>
      </trkpt>
      <trkpt lat="48.36301" lon="-4.74769">
        <ele>28.1</ele>
        <time>2020-06-08T19:12:22Z</time>
      </trkpt>
      <trkpt lat="48.36296" lon="-4.7477">
        <ele>28.1</ele>
        <time>2020-06-08T19:12:23Z</time>
      </trkpt>
      <trkpt lat="48.36291" lon="-4.74772">
        <ele>28.2</ele>
        <time>2020-06-08T19:12:24Z</time>
      </trkpt>
      <trkpt lat="48.36287" lon="-4.74772">
        <ele>28.2</ele>
        <time>2020-06-08T19:12:25Z</time>
      </trkpt>
      <trkpt lat="48.36281" lon="-4.74772">
        <ele>28.2</ele>
        <time>2020-06-08T19:12:26Z</time>
      </trkpt>
      <trkpt lat="48.36275" lon="-4.74771">
        <ele>28.1</ele>
        <time>2020-06-08T19:12:27Z</time>
      </trkpt>
      <trkpt lat="48.36269" lon="-4.74771">
        <ele>28</ele>
        <time>2020-06-08T19:12:28Z</time>
      </trkpt>
      <trkpt lat="48.36263" lon="-4.74772">
        <ele>27.8</ele>
        <time>2020-06-08T19:12:29Z</time>
      </trkpt>
      <trkpt lat="48.36258" lon="-4.74773">
        <ele>27.6</ele>
        <time>2020-06-08T19:12:30Z</time>
      </trkpt>
      <trkpt lat="48.36251" lon="-4.74774">
        <ele>27.3</ele>
        <time>2020-06-08T19:12:31Z</time>
      </trkpt>
      <trkpt lat="48.36245" lon="-4.74775">
        <ele>27</ele>
        <time>2020-06-08T19:12:32Z</time>
      </trkpt>
      <trkpt lat="48.36238" lon="-4.74776">
        <ele>26.7</ele>
        <time>2020-06-08T19:12:33Z</time>
      </trkpt>
      <trkpt lat="48.36231" lon="-4.74777">
        <ele>26.4</ele>
        <time>2020-06-08T19:12:34Z</time>
      </trkpt>
      <trkpt lat="48.36223" lon="-4.74777">
        <ele>26.1</ele>
        <time>2020-06-08T19:12:35Z</time>
      </trkpt>
      <trkpt lat="48.36215" lon="-4.74777">
        <ele>25.6</ele>
        <time>2020-06-08T19:12:36Z</time>
      </trkpt>
      <trkpt lat="48.36207" lon="-4.74778">
        <ele>25.2</ele>
        <time>2020-06-08T19:12:37Z</time>
      </trkpt>
      <trkpt lat="48.36199" lon="-4.74779">
        <ele>24.7</ele>
        <time>2020-06-08T19:12:38Z</time>
      </trkpt>
      <trkpt lat="48.36189" lon="-4.74778">
        <ele>24.1</ele>
        <time>2020-06-08T19:12:39Z</time>
      </trkpt>
      <trkpt lat="48.36179" lon="-4.74779">
        <ele>23.3</ele>
        <time>2020-06-08T19:12:40Z</time>
      </trkpt>
      <trkpt lat="48.36169" lon="-4.74779">
        <ele>22.5</ele>
        <time>2020-06-08T19:12:41Z</time>
      </trkpt>
      <trkpt lat="48.36159" lon="-4.7478">
        <ele>21.8</ele>
        <time>2020-06-08T19:12:42Z</time>
      </trkpt>
      <trkpt lat="48.36148" lon="-4.7478">
        <ele>21.1</ele>
        <time>2020-06-08T19:12:43Z</time>
      </trkpt>
      <trkpt lat="48.36138" lon="-4.74781">
        <ele>20.5</ele>
        <time>2020-06-08T19:12:44Z</time>
      </trkpt>
      <trkpt lat="48.36127" lon="-4.74781">
        <ele>20</ele>
        <time>2020-06-08T19:12:45Z</time>
      </trkpt>
      <trkpt lat="48.36116" lon="-4.7478">
        <ele>19.4</ele>
        <time>2020-06-08T19:12:46Z</time>
      </trkpt>
      <trkpt lat="48.36106" lon="-4.74778">
        <ele>18.9</ele>
        <time>2020-06-08T19:12:47Z</time>
      </trkpt>
      <trkpt lat="48.36095" lon="-4.74778">
        <ele>18.4</ele>
        <time>2020-06-08T19:12:48Z</time>
      </trkpt>
      <trkpt lat="48.36084" lon="-4.74778">
        <ele>18</ele>
        <time>2020-06-08T19:12:49Z</time>
      </trkpt>
      <trkpt lat="48.36074" lon="-4.7478">
        <ele>17.4</ele>
        <time>2020-06-08T19:12:50Z</time>
      </trkpt>
      <trkpt lat="48.36064" lon="-4.74784">
        <ele>16.8</ele>
        <time>2020-06-08T19:12:51Z</time>
      </trkpt>
      <trkpt lat="48.36055" lon="-4.74788">
        <ele>16.1</ele>
        <time>2020-06-08T19:12:52Z</time>
      </trkpt>
      <trkpt lat="48.36047" lon="-4.74795">
        <ele>15.4</ele>
        <time>2020-06-08T19:12:53Z</time>
      </trkpt>
      <trkpt lat="48.36042" lon="-4.74805">
        <ele>14.8</ele>
        <time>2020-06-08T19:12:54Z</time>
      </trkpt>
      <trkpt lat="48.3604" lon="-4.74818">
        <ele>14.1</ele>
        <time>2020-06-08T19:12:55Z</time>
      </trkpt>
      <trkpt lat="48.36038" lon="-4.74832">
        <ele>13.4</ele>
        <time>2020-06-08T19:12:56Z</time>
      </trkpt>
      <trkpt lat="48.3604" lon="-4.74845">
        <ele>12.9</ele>
        <time>2020-06-08T19:12:57Z</time>
      </trkpt>
      <trkpt lat="48.36045" lon="-4.74858">
        <ele>12.2</ele>
        <time>2020-06-08T19:12:58Z</time>
      </trkpt>
      <trkpt lat="48.36052" lon="-4.74868">
        <ele>11.7</ele>
        <time>2020-06-08T19:12:59Z</time>
      </trkpt>
      <trkpt lat="48.3606" lon="-4.74878">
        <ele>11.1</ele>
        <time>2020-06-08T19:13:00Z</time>
      </trkpt>
      <trkpt lat="48.36069" lon="-4.74882">
        <ele>10.7</ele>
        <time>2020-06-08T19:13:01Z</time>
      </trkpt>
      <trkpt lat="48.36078" lon="-4.74885">
        <ele>10.2</ele>
        <time>2020-06-08T19:13:02Z</time>
      </trkpt>
      <trkpt lat="48.36086" lon="-4.74892">
        <ele>9.8</ele>
        <time>2020-06-08T19:13:03Z</time>
      </trkpt>
      <trkpt lat="48.36092" lon="-4.74901">
        <ele>9.3</ele>
        <time>2020-06-08T19:13:04Z</time>
      </trkpt>
      <trkpt lat="48.36099" lon="-4.74913">
        <ele>8.6</ele>
        <time>2020-06-08T19:13:05Z</time>
      </trkpt>
      <trkpt lat="48.36102" lon="-4.74926">
        <ele>7.9</ele>
        <time>2020-06-08T19:13:06Z</time>
      </trkpt>
      <trkpt lat="48.36102" lon="-4.74939">
        <ele>7.3</ele>
        <time>2020-06-08T19:13:07Z</time>
      </trkpt>
      <trkpt lat="48.36101" lon="-4.74954">
        <ele>6.6</ele>
        <time>2020-06-08T19:13:08Z</time>
      </trkpt>
      <trkpt lat="48.36097" lon="-4.74966">
        <ele>6</ele>
        <time>2020-06-08T19:13:09Z</time>
      </trkpt>
      <trkpt lat="48.36091" lon="-4.74978">
        <ele>5.3</ele>
        <time>2020-06-08T19:13:10Z</time>
      </trkpt>
      <trkpt lat="48.36084" lon="-4.74987">
        <ele>5.2</ele>
        <time>2020-06-08T19:13:11Z</time>
      </trkpt>
      <trkpt lat="48.36075" lon="-4.74995">
        <ele>5</ele>
        <time>2020-06-08T19:13:12Z</time>
      </trkpt>
      <trkpt lat="48.36067" lon="-4.75002">
        <ele>4.5</ele>
        <time>2020-06-08T19:13:13Z</time>
      </trkpt>
      <trkpt lat="48.36059" lon="-4.7501">
        <ele>4.1</ele>
        <time>2020-06-08T19:13:14Z</time>
      </trkpt>
      <trkpt lat="48.3605" lon="-4.75018">
        <ele>3.9</ele>
        <time>2020-06-08T19:13:15Z</time>
      </trkpt>
      <trkpt lat="48.36043" lon="-4.75025">
        <ele>3.7</ele>
        <time>2020-06-08T19:13:16Z</time>
      </trkpt>
      <trkpt lat="48.36035" lon="-4.75033">
        <ele>3.7</ele>
        <time>2020-06-08T19:13:17Z</time>
      </trkpt>
      <trkpt lat="48.36028" lon="-4.75041">
        <ele>3.7</ele>
        <time>2020-06-08T19:13:18Z</time>
      </trkpt>
      <trkpt lat="48.36021" lon="-4.75048">
        <ele>3.8</ele>
        <time>2020-06-08T19:13:19Z</time>
      </trkpt>
      <trkpt lat="48.36014" lon="-4.75055">
        <ele>3.8</ele>
        <time>2020-06-08T19:13:20Z</time>
      </trkpt>
      <trkpt lat="48.36008" lon="-4.75062">
        <ele>3.9</ele>
        <time>2020-06-08T19:13:21Z</time>
      </trkpt>
      <trkpt lat="48.36002" lon="-4.75068">
        <ele>4</ele>
        <time>2020-06-08T19:13:22Z</time>
      </trkpt>
      <trkpt lat="48.35995" lon="-4.75074">
        <ele>4.1</ele>
        <time>2020-06-08T19:13:23Z</time>
      </trkpt>
      <trkpt lat="48.35989" lon="-4.75081">
        <ele>4.2</ele>
        <time>2020-06-08T19:13:24Z</time>
      </trkpt>
      <trkpt lat="48.35983" lon="-4.75086">
        <ele>4.3</ele>
        <time>2020-06-08T19:13:25Z</time>
      </trkpt>
      <trkpt lat="48.35977" lon="-4.75092">
        <ele>4.4</ele>
        <time>2020-06-08T19:13:26Z</time>
      </trkpt>
      <trkpt lat="48.35972" lon="-4.75096">
        <ele>4.5</ele>
        <time>2020-06-08T19:13:27Z</time>
      </trkpt>
      <trkpt lat="48.35967" lon="-4.751">
        <ele>4.6</ele>
        <time>2020-06-08T19:13:28Z</time>
      </trkpt>
      <trkpt lat="48.35961" lon="-4.75105">
        <ele>4.6</ele>
        <time>2020-06-08T19:13:29Z</time>
      </trkpt>
      <trkpt lat="48.35957" lon="-4.75111">
        <ele>4.6</ele>
        <time>2020-06-08T19:13:30Z</time>
      </trkpt>
      <trkpt lat="48.35955" lon="-4.75119">
        <ele>4.5</ele>
        <time>2020-06-08T19:13:31Z</time>
      </trkpt>
      <trkpt lat="48.35954" lon="-4.75128">
        <ele>4.4</ele>
        <time>2020-06-08T19:13:32Z</time>
      </trkpt>
      <trkpt lat="48.35955" lon="-4.75136">
        <ele>4.4</ele>
        <time>2020-06-08T19:13:33Z</time>
      </trkpt>
      <trkpt lat="48.35955" lon="-4.75145">
        <ele>4.3</ele>
        <time>2020-06-08T19:13:34Z</time>
      </trkpt>
      <trkpt lat="48.35955" lon="-4.75153">
        <ele>4.2</ele>
        <time>2020-06-08T19:13:35Z</time>
      </trkpt>
      <trkpt lat="48.35955" lon="-4.75163">
        <ele>4.2</ele>
        <time>2020-06-08T19:13:36Z</time>
      </trkpt>
      <trkpt lat="48.35955" lon="-4.75172">
        <ele>4.1</ele>
        <time>2020-06-08T19:13:37Z</time>
      </trkpt>
      <trkpt lat="48.35954" lon="-4.75182">
        <ele>4.1</ele>
        <time>2020-06-08T19:13:38Z</time>
      </trkpt>
      <trkpt lat="48.35954" lon="-4.75192">
        <ele>4.1</ele>
        <time>2020-06-08T19:13:39Z</time>
      </trkpt>
      <trkpt lat="48.35954" lon="-4.75202">
        <ele>4.1</ele>
        <time>2020-06-08T19:13:40Z</time>
      </trkpt>
      <trkpt lat="48.35953" lon="-4.75213">
        <ele>4.2</ele>
        <time>2020-06-08T19:13:41Z</time>
      </trkpt>
      <trkpt lat="48.35952" lon="-4.75224">
        <ele>4.2</ele>
        <time>2020-06-08T19:13:42Z</time>
      </trkpt>
      <trkpt lat="48.35952" lon="-4.75234">
        <ele>4.1</ele>
        <time>2020-06-08T19:13:43Z</time>
      </trkpt>
      <trkpt lat="48.3595" lon="-4.75245">
        <ele>4.1</ele>
        <time>2020-06-08T19:13:44Z</time>
      </trkpt>
      <trkpt lat="48.3595" lon="-4.75256">
        <ele>4.1</ele>
        <time>2020-06-08T19:13:45Z</time>
      </trkpt>
      <trkpt lat="48.35949" lon="-4.75268">
        <ele>4.1</ele>
        <time>2020-06-08T19:13:46Z</time>
      </trkpt>
      <trkpt lat="48.35947" lon="-4.75279">
        <ele>4.2</ele>
        <time>2020-06-08T19:13:47Z</time>
      </trkpt>
      <trkpt lat="48.35945" lon="-4.75289">
        <ele>4.3</ele>
        <time>2020-06-08T19:13:48Z</time>
      </trkpt>
      <trkpt lat="48.35944" lon="-4.753">
        <ele>4.4</ele>
        <time>2020-06-08T19:13:49Z</time>
      </trkpt>
      <trkpt lat="48.35944" lon="-4.75312">
        <ele>4.6</ele>
        <time>2020-06-08T19:13:50Z</time>
      </trkpt>
      <trkpt lat="48.35943" lon="-4.75322">
        <ele>4.7</ele>
        <time>2020-06-08T19:13:51Z</time>
      </trkpt>
      <trkpt lat="48.35941" lon="-4.75333">
        <ele>4.8</ele>
        <time>2020-06-08T19:13:52Z</time>
      </trkpt>
      <trkpt lat="48.35941" lon="-4.75343">
        <ele>5</ele>
        <time>2020-06-08T19:13:53Z</time>
      </trkpt>
      <trkpt lat="48.3594" lon="-4.75353">
        <ele>5.2</ele>
        <time>2020-06-08T19:13:54Z</time>
      </trkpt>
      <trkpt lat="48.35939" lon="-4.75363">
        <ele>5.3</ele>
        <time>2020-06-08T19:13:55Z</time>
      </trkpt>
      <trkpt lat="48.35939" lon="-4.75373">
        <ele>5.4</ele>
        <time>2020-06-08T19:13:56Z</time>
      </trkpt>
      <trkpt lat="48.35938" lon="-4.75383">
        <ele>5.6</ele>
        <time>2020-06-08T19:13:57Z</time>
      </trkpt>
      <trkpt lat="48.35936" lon="-4.75393">
        <ele>5.7</ele>
        <time>2020-06-08T19:13:58Z</time>
      </trkpt>
      <trkpt lat="48.35936" lon="-4.75403">
        <ele>5.9</ele>
        <time>2020-06-08T19:13:59Z</time>
      </trkpt>
      <trkpt lat="48.35934" lon="-4.75412">
        <ele>6</ele>
        <time>2020-06-08T19:14:00Z</time>
      </trkpt>
      <trkpt lat="48.35933" lon="-4.75422">
        <ele>6.2</ele>
        <time>2020-06-08T19:14:01Z</time>
      </trkpt>
      <trkpt lat="48.35932" lon="-4.75431">
        <ele>6.3</ele>
        <time>2020-06-08T19:14:02Z</time>
      </trkpt>
      <trkpt lat="48.35931" lon="-4.7544">
        <ele>6.4</ele>
        <time>2020-06-08T19:14:03Z</time>
      </trkpt>
      <trkpt lat="48.35931" lon="-4.75449">
        <ele>6.5</ele>
        <time>2020-06-08T19:14:04Z</time>
      </trkpt>
      <trkpt lat="48.3593" lon="-4.75457">
        <ele>6.6</ele>
        <time>2020-06-08T19:14:05Z</time>
      </trkpt>
      <trkpt lat="48.35929" lon="-4.75466">
        <ele>6.6</ele>
        <time>2020-06-08T19:14:06Z</time>
      </trkpt>
      <trkpt lat="48.35929" lon="-4.75474">
        <ele>6.7</ele>
        <time>2020-06-08T19:14:07Z</time>
      </trkpt>
      <trkpt lat="48.35927" lon="-4.75482">
        <ele>6.7</ele>
        <time>2020-06-08T19:14:08Z</time>
      </trkpt>
      <trkpt lat="48.35926" lon="-4.75491">
        <ele>6.7</ele>
        <time>2020-06-08T19:14:09Z</time>
      </trkpt>
      <trkpt lat="48.35925" lon="-4.75501">
        <ele>6.6</ele>
        <time>2020-06-08T19:14:10Z</time>
      </trkpt>
      <trkpt lat="48.35924" lon="-4.7551">
        <ele>6.6</ele>
        <time>2020-06-08T19:14:11Z</time>
      </trkpt>
      <trkpt lat="48.35922" lon="-4.75519">
        <ele>6.5</ele>
        <time>2020-06-08T19:14:12Z</time>
      </trkpt>
      <trkpt lat="48.3592" lon="-4.7553">
        <ele>6.4</ele>
        <time>2020-06-08T19:14:13Z</time>
      </trkpt>
      <trkpt lat="48.35918" lon="-4.75541">
        <ele>6.3</ele>
        <time>2020-06-08T19:14:14Z</time>
      </trkpt>
      <trkpt lat="48.35916" lon="-4.75552">
        <ele>6.1</ele>
        <time>2020-06-08T19:14:15Z</time>
      </trkpt>
      <trkpt lat="48.35914" lon="-4.75563">
        <ele>6</ele>
        <time>2020-06-08T19:14:16Z</time>
      </trkpt>
      <trkpt lat="48.35913" lon="-4.75574">
        <ele>5.9</ele>
        <time>2020-06-08T19:14:17Z</time>
      </trkpt>
      <trkpt lat="48.35911" lon="-4.75586">
        <ele>5.8</ele>
        <time>2020-06-08T19:14:18Z</time>
      </trkpt>
      <trkpt lat="48.35908" lon="-4.75598">
        <ele>5.7</ele>
        <time>2020-06-08T19:14:19Z</time>
      </trkpt>
      <trkpt lat="48.35906" lon="-4.7561">
        <ele>5.6</ele>
        <time>2020-06-08T19:14:20Z</time>
      </trkpt>
      <trkpt lat="48.35904" lon="-4.75622">
        <ele>5.4</ele>
        <time>2020-06-08T19:14:21Z</time>
      </trkpt>
      <trkpt lat="48.35903" lon="-4.75634">
        <ele>5.3</ele>
        <time>2020-06-08T19:14:22Z</time>
      </trkpt>
      <trkpt lat="48.35903" lon="-4.75647">
        <ele>5.1</ele>
        <time>2020-06-08T19:14:23Z</time>
      </trkpt>
      <trkpt lat="48.35903" lon="-4.75658">
        <ele>5</ele>
        <time>2020-06-08T19:14:24Z</time>
      </trkpt>
      <trkpt lat="48.35903" lon="-4.75671">
        <ele>4.9</ele>
        <time>2020-06-08T19:14:25Z</time>
      </trkpt>
      <trkpt lat="48.35904" lon="-4.75683">
        <ele>5</ele>
        <time>2020-06-08T19:14:26Z</time>
      </trkpt>
      <trkpt lat="48.35906" lon="-4.75695">
        <ele>5</ele>
        <time>2020-06-08T19:14:27Z</time>
      </trkpt>
      <trkpt lat="48.35907" lon="-4.75706">
        <ele>5</ele>
        <time>2020-06-08T19:14:28Z</time>
      </trkpt>
      <trkpt lat="48.35908" lon="-4.75718">
        <ele>5.1</ele>
        <time>2020-06-08T19:14:29Z</time>
      </trkpt>
      <trkpt lat="48.3591" lon="-4.75729">
        <ele>5.1</ele>
        <time>2020-06-08T19:14:30Z</time>
      </trkpt>
      <trkpt lat="48.35911" lon="-4.7574">
        <ele>5.1</ele>
        <time>2020-06-08T19:14:31Z</time>
      </trkpt>
      <trkpt lat="48.35912" lon="-4.7575">
        <ele>5.1</ele>
        <time>2020-06-08T19:14:32Z</time>
      </trkpt>
      <trkpt lat="48.35913" lon="-4.7576">
        <ele>5.1</ele>
        <time>2020-06-08T19:14:33Z</time>
      </trkpt>
      <trkpt lat="48.35914" lon="-4.75771">
        <ele>5.1</ele>
        <time>2020-06-08T19:14:34Z</time>
      </trkpt>
      <trkpt lat="48.35915" lon="-4.75781">
        <ele>5.2</ele>
        <time>2020-06-08T19:14:35Z</time>
      </trkpt>
      <trkpt lat="48.35916" lon="-4.75792">
        <ele>5.3</ele>
        <time>2020-06-08T19:14:36Z</time>
      </trkpt>
      <trkpt lat="48.35915" lon="-4.75803">
        <ele>5.3</ele>
        <time>2020-06-08T19:14:37Z</time>
      </trkpt>
      <trkpt lat="48.35916" lon="-4.75814">
        <ele>5.3</ele>
        <time>2020-06-08T19:14:38Z</time>
      </trkpt>
      <trkpt lat="48.35918" lon="-4.75824">
        <ele>5</ele>
        <time>2020-06-08T19:14:39Z</time>
      </trkpt>
      <trkpt lat="48.35919" lon="-4.75836">
        <ele>4.8</ele>
        <time>2020-06-08T19:14:40Z</time>
      </trkpt>
      <trkpt lat="48.3592" lon="-4.75847">
        <ele>4.7</ele>
        <time>2020-06-08T19:14:41Z</time>
      </trkpt>
      <trkpt lat="48.35921" lon="-4.75858">
        <ele>4.7</ele>
        <time>2020-06-08T19:14:42Z</time>
      </trkpt>
      <trkpt lat="48.35922" lon="-4.75869">
        <ele>4.7</ele>
        <time>2020-06-08T19:14:43Z</time>
      </trkpt>
      <trkpt lat="48.35922" lon="-4.75879">
        <ele>4.8</ele>
        <time>2020-06-08T19:14:44Z</time>
      </trkpt>
      <trkpt lat="48.35923" lon="-4.7589">
        <ele>4.9</ele>
        <time>2020-06-08T19:14:45Z</time>
      </trkpt>
      <trkpt lat="48.35924" lon="-4.759">
        <ele>5</ele>
        <time>2020-06-08T19:14:46Z</time>
      </trkpt>
      <trkpt lat="48.35925" lon="-4.7591">
        <ele>5.1</ele>
        <time>2020-06-08T19:14:47Z</time>
      </trkpt>
      <trkpt lat="48.35926" lon="-4.7592">
        <ele>5.2</ele>
        <time>2020-06-08T19:14:48Z</time>
      </trkpt>
      <trkpt lat="48.35926" lon="-4.75929">
        <ele>5.4</ele>
        <time>2020-06-08T19:14:49Z</time>
      </trkpt>
      <trkpt lat="48.35927" lon="-4.75939">
        <ele>5.5</ele>
        <time>2020-06-08T19:14:50Z</time>
      </trkpt>
      <trkpt lat="48.35928" lon="-4.75948">
        <ele>5.5</ele>
        <time>2020-06-08T19:14:51Z</time>
      </trkpt>
      <trkpt lat="48.35929" lon="-4.75958">
        <ele>5.6</ele>
        <time>2020-06-08T19:14:52Z</time>
      </trkpt>
      <trkpt lat="48.35929" lon="-4.75968">
        <ele>5.6</ele>
        <time>2020-06-08T19:14:53Z</time>
      </trkpt>
      <trkpt lat="48.3593" lon="-4.75977">
        <ele>5.6</ele>
        <time>2020-06-08T19:14:54Z</time>
      </trkpt>
      <trkpt lat="48.3593" lon="-4.75987">
        <ele>5.7</ele>
        <time>2020-06-08T19:14:55Z</time>
      </trkpt>
      <trkpt lat="48.35932" lon="-4.75996">
        <ele>5.7</ele>
        <time>2020-06-08T19:14:56Z</time>
      </trkpt>
      <trkpt lat="48.35932" lon="-4.76006">
        <ele>5.8</ele>
        <time>2020-06-08T19:14:57Z</time>
      </trkpt>
      <trkpt lat="48.35933" lon="-4.76015">
        <ele>5.9</ele>
        <time>2020-06-08T19:14:58Z</time>
      </trkpt>
      <trkpt lat="48.35934" lon="-4.76024">
        <ele>6</ele>
        <time>2020-06-08T19:14:59Z</time>
      </trkpt>
      <trkpt lat="48.35935" lon="-4.76033">
        <ele>6</ele>
        <time>2020-06-08T19:15:00Z</time>
      </trkpt>
      <trkpt lat="48.35935" lon="-4.76041">
        <ele>6.1</ele>
        <time>2020-06-08T19:15:01Z</time>
      </trkpt>
      <trkpt lat="48.35935" lon="-4.7605">
        <ele>6.2</ele>
        <time>2020-06-08T19:15:02Z</time>
      </trkpt>
      <trkpt lat="48.35936" lon="-4.76058">
        <ele>6.3</ele>
        <time>2020-06-08T19:15:03Z</time>
      </trkpt>
      <trkpt lat="48.35935" lon="-4.76066">
        <ele>6.4</ele>
        <time>2020-06-08T19:15:04Z</time>
      </trkpt>
      <trkpt lat="48.35936" lon="-4.76073">
        <ele>6.4</ele>
        <time>2020-06-08T19:15:05Z</time>
      </trkpt>
      <trkpt lat="48.35937" lon="-4.7608">
        <ele>6.5</ele>
        <time>2020-06-08T19:15:06Z</time>
      </trkpt>
      <trkpt lat="48.35938" lon="-4.76087">
        <ele>6.5</ele>
        <time>2020-06-08T19:15:07Z</time>
      </trkpt>
      <trkpt lat="48.3594" lon="-4.76094">
        <ele>6.5</ele>
        <time>2020-06-08T19:15:08Z</time>
      </trkpt>
      <trkpt lat="48.3594" lon="-4.76102">
        <ele>6.4</ele>
        <time>2020-06-08T19:15:09Z</time>
      </trkpt>
      <trkpt lat="48.35942" lon="-4.76109">
        <ele>6.4</ele>
        <time>2020-06-08T19:15:10Z</time>
      </trkpt>
      <trkpt lat="48.35941" lon="-4.76116">
        <ele>6.3</ele>
        <time>2020-06-08T19:15:11Z</time>
      </trkpt>
      <trkpt lat="48.35941" lon="-4.76124">
        <ele>6.3</ele>
        <time>2020-06-08T19:15:12Z</time>
      </trkpt>
      <trkpt lat="48.35941" lon="-4.76131">
        <ele>6.2</ele>
        <time>2020-06-08T19:15:13Z</time>
      </trkpt>
      <trkpt lat="48.35942" lon="-4.7614">
        <ele>6.1</ele>
        <time>2020-06-08T19:15:14Z</time>
      </trkpt>
      <trkpt lat="48.35942" lon="-4.76148">
        <ele>6</ele>
        <time>2020-06-08T19:15:15Z</time>
      </trkpt>
      <trkpt lat="48.35942" lon="-4.76157">
        <ele>5.9</ele>
        <time>2020-06-08T19:15:16Z</time>
      </trkpt>
      <trkpt lat="48.35942" lon="-4.76166">
        <ele>5.7</ele>
        <time>2020-06-08T19:15:17Z</time>
      </trkpt>
      <trkpt lat="48.35942" lon="-4.76177">
        <ele>5.5</ele>
        <time>2020-06-08T19:15:18Z</time>
      </trkpt>
      <trkpt lat="48.35943" lon="-4.76187">
        <ele>5.3</ele>
        <time>2020-06-08T19:15:19Z</time>
      </trkpt>
      <trkpt lat="48.35944" lon="-4.76198">
        <ele>5.1</ele>
        <time>2020-06-08T19:15:20Z</time>
      </trkpt>
      <trkpt lat="48.35946" lon="-4.7621">
        <ele>5</ele>
        <time>2020-06-08T19:15:21Z</time>
      </trkpt>
      <trkpt lat="48.35948" lon="-4.76221">
        <ele>4.9</ele>
        <time>2020-06-08T19:15:22Z</time>
      </trkpt>
      <trkpt lat="48.35948" lon="-4.76233">
        <ele>4.8</ele>
        <time>2020-06-08T19:15:23Z</time>
      </trkpt>
      <trkpt lat="48.35948" lon="-4.76244">
        <ele>4.7</ele>
        <time>2020-06-08T19:15:24Z</time>
      </trkpt>
      <trkpt lat="48.35949" lon="-4.76255">
        <ele>4.5</ele>
        <time>2020-06-08T19:15:25Z</time>
      </trkpt>
      <trkpt lat="48.35949" lon="-4.76267">
        <ele>4.5</ele>
        <time>2020-06-08T19:15:26Z</time>
      </trkpt>
      <trkpt lat="48.3595" lon="-4.76279">
        <ele>4.4</ele>
        <time>2020-06-08T19:15:27Z</time>
      </trkpt>
      <trkpt lat="48.3595" lon="-4.7629">
        <ele>4.3</ele>
        <time>2020-06-08T19:15:28Z</time>
      </trkpt>
      <trkpt lat="48.35952" lon="-4.76302">
        <ele>4.3</ele>
        <time>2020-06-08T19:15:29Z</time>
      </trkpt>
      <trkpt lat="48.35953" lon="-4.76313">
        <ele>4.3</ele>
        <time>2020-06-08T19:15:30Z</time>
      </trkpt>
      <trkpt lat="48.35955" lon="-4.76323">
        <ele>4.3</ele>
        <time>2020-06-08T19:15:31Z</time>
      </trkpt>
      <trkpt lat="48.35957" lon="-4.76334">
        <ele>4.3</ele>
        <time>2020-06-08T19:15:32Z</time>
      </trkpt>
      <trkpt lat="48.35958" lon="-4.76345">
        <ele>4.4</ele>
        <time>2020-06-08T19:15:33Z</time>
      </trkpt>
      <trkpt lat="48.35959" lon="-4.76355">
        <ele>4.4</ele>
        <time>2020-06-08T19:15:34Z</time>
      </trkpt>
      <trkpt lat="48.35961" lon="-4.76365">
        <ele>4.5</ele>
        <time>2020-06-08T19:15:35Z</time>
      </trkpt>
      <trkpt lat="48.35963" lon="-4.76374">
        <ele>4.7</ele>
        <time>2020-06-08T19:15:36Z</time>
      </trkpt>
      <trkpt lat="48.35965" lon="-4.76383">
        <ele>4.8</ele>
        <time>2020-06-08T19:15:37Z</time>
      </trkpt>
      <trkpt lat="48.35967" lon="-4.76392">
        <ele>5</ele>
        <time>2020-06-08T19:15:38Z</time>
      </trkpt>
      <trkpt lat="48.35968" lon="-4.76401">
        <ele>5.1</ele>
        <time>2020-06-08T19:15:39Z</time>
      </trkpt>
      <trkpt lat="48.3597" lon="-4.7641">
        <ele>5.4</ele>
        <time>2020-06-08T19:15:40Z</time>
      </trkpt>
      <trkpt lat="48.3597" lon="-4.76418">
        <ele>5.7</ele>
        <time>2020-06-08T19:15:41Z</time>
      </trkpt>
      <trkpt lat="48.35972" lon="-4.76425">
        <ele>5.9</ele>
        <time>2020-06-08T19:15:42Z</time>
      </trkpt>
      <trkpt lat="48.35973" lon="-4.76432">
        <ele>6.1</ele>
        <time>2020-06-08T19:15:43Z</time>
      </trkpt>
      <trkpt lat="48.35975" lon="-4.76439">
        <ele>6.4</ele>
        <time>2020-06-08T19:15:44Z</time>
      </trkpt>
      <trkpt lat="48.35975" lon="-4.76446">
        <ele>6.6</ele>
        <time>2020-06-08T19:15:45Z</time>
      </trkpt>
      <trkpt lat="48.35977" lon="-4.76452">
        <ele>6.8</ele>
        <time>2020-06-08T19:15:46Z</time>
      </trkpt>
      <trkpt lat="48.35979" lon="-4.76458">
        <ele>7.1</ele>
        <time>2020-06-08T19:15:47Z</time>
      </trkpt>
      <trkpt lat="48.35981" lon="-4.76464">
        <ele>7.4</ele>
        <time>2020-06-08T19:15:48Z</time>
      </trkpt>
      <trkpt lat="48.35982" lon="-4.76471">
        <ele>7.6</ele>
        <time>2020-06-08T19:15:49Z</time>
      </trkpt>
      <trkpt lat="48.35983" lon="-4.76477">
        <ele>7.9</ele>
        <time>2020-06-08T19:15:50Z</time>
      </trkpt>
      <trkpt lat="48.35985" lon="-4.76483">
        <ele>8.2</ele>
        <time>2020-06-08T19:15:51Z</time>
      </trkpt>
      <trkpt lat="48.35987" lon="-4.76488">
        <ele>8.4</ele>
        <time>2020-06-08T19:15:52Z</time>
      </trkpt>
      <trkpt lat="48.35988" lon="-4.76494">
        <ele>8.7</ele>
        <time>2020-06-08T19:15:53Z</time>
      </trkpt>
      <trkpt lat="48.35988" lon="-4.76501">
        <ele>9</ele>
        <time>2020-06-08T19:15:54Z</time>
      </trkpt>
      <trkpt lat="48.3599" lon="-4.76506">
        <ele>9.2</ele>
        <time>2020-06-08T19:15:55Z</time>
      </trkpt>
      <trkpt lat="48.3599" lon="-4.76512">
        <ele>9.5</ele>
        <time>2020-06-08T19:15:56Z</time>
      </trkpt>
      <trkpt lat="48.35992" lon="-4.76518">
        <ele>9.7</ele>
        <time>2020-06-08T19:15:57Z</time>
      </trkpt>
      <trkpt lat="48.35994" lon="-4.76524">
        <ele>10</ele>
        <time>2020-06-08T19:15:58Z</time>
      </trkpt>
      <trkpt lat="48.35994" lon="-4.7653">
        <ele>10.2</ele>
        <time>2020-06-08T19:15:59Z</time>
      </trkpt>
      <trkpt lat="48.35995" lon="-4.76536">
        <ele>10.5</ele>
        <time>2020-06-08T19:16:00Z</time>
      </trkpt>
      <trkpt lat="48.35996" lon="-4.76542">
        <ele>10.7</ele>
        <time>2020-06-08T19:16:01Z</time>
      </trkpt>
      <trkpt lat="48.35998" lon="-4.76547">
        <ele>10.8</ele>
        <time>2020-06-08T19:16:02Z</time>
      </trkpt>
      <trkpt lat="48.35999" lon="-4.76552">
        <ele>11</ele>
        <time>2020-06-08T19:16:03Z</time>
      </trkpt>
      <trkpt lat="48.35999" lon="-4.76558">
        <ele>11.2</ele>
        <time>2020-06-08T19:16:04Z</time>
      </trkpt>
      <trkpt lat="48.36001" lon="-4.76564">
        <ele>11.4</ele>
        <time>2020-06-08T19:16:05Z</time>
      </trkpt>
      <trkpt lat="48.36002" lon="-4.7657">
        <ele>11.6</ele>
        <time>2020-06-08T19:16:06Z</time>
      </trkpt>
      <trkpt lat="48.36003" lon="-4.76577">
        <ele>11.8</ele>
        <time>2020-06-08T19:16:07Z</time>
      </trkpt>
      <trkpt lat="48.36004" lon="-4.76581">
        <ele>12</ele>
        <time>2020-06-08T19:16:08Z</time>
      </trkpt>
      <trkpt lat="48.36005" lon="-4.76586">
        <ele>12.2</ele>
        <time>2020-06-08T19:16:09Z</time>
      </trkpt>
      <trkpt lat="48.36006" lon="-4.7659">
        <ele>12.3</ele>
        <time>2020-06-08T19:16:10Z</time>
      </trkpt>
      <trkpt lat="48.36008" lon="-4.76597">
        <ele>12.6</ele>
        <time>2020-06-08T19:16:11Z</time>
      </trkpt>
      <trkpt lat="48.36009" lon="-4.76604">
        <ele>12.8</ele>
        <time>2020-06-08T19:16:12Z</time>
      </trkpt>
      <trkpt lat="48.36009" lon="-4.76608">
        <ele>13</ele>
        <time>2020-06-08T19:16:13Z</time>
      </trkpt>
      <trkpt lat="48.3601" lon="-4.76612">
        <ele>13.2</ele>
        <time>2020-06-08T19:16:14Z</time>
      </trkpt>
      <trkpt lat="48.36011" lon="-4.76617">
        <ele>13.3</ele>
        <time>2020-06-08T19:16:15Z</time>
      </trkpt>
      <trkpt lat="48.36012" lon="-4.76623">
        <ele>13.6</ele>
        <time>2020-06-08T19:16:16Z</time>
      </trkpt>
      <trkpt lat="48.36012" lon="-4.76628">
        <ele>13.8</ele>
        <time>2020-06-08T19:16:17Z</time>
      </trkpt>
      <trkpt lat="48.36013" lon="-4.76634">
        <ele>14</ele>
        <time>2020-06-08T19:16:18Z</time>
      </trkpt>
      <trkpt lat="48.36014" lon="-4.76636">
        <ele>14.1</ele>
        <time>2020-06-08T19:16:19Z</time>
      </trkpt>
      <trkpt lat="48.36016" lon="-4.76641">
        <ele>14.3</ele>
        <time>2020-06-08T19:16:20Z</time>
      </trkpt>
      <trkpt lat="48.36017" lon="-4.76646">
        <ele>14.5</ele>
        <time>2020-06-08T19:16:21Z</time>
      </trkpt>
      <trkpt lat="48.36017" lon="-4.76651">
        <ele>14.7</ele>
        <time>2020-06-08T19:16:22Z</time>
      </trkpt>
      <trkpt lat="48.36017" lon="-4.76653">
        <ele>14.7</ele>
        <time>2020-06-08T19:16:23Z</time>
      </trkpt>
      <trkpt lat="48.36018" lon="-4.7666">
        <ele>15</ele>
        <time>2020-06-08T19:16:24Z</time>
      </trkpt>
      <trkpt lat="48.36018" lon="-4.76665">
        <ele>15.1</ele>
        <time>2020-06-08T19:16:25Z</time>
      </trkpt>
      <trkpt lat="48.3602" lon="-4.76669">
        <ele>15.3</ele>
        <time>2020-06-08T19:16:26Z</time>
      </trkpt>
      <trkpt lat="48.36021" lon="-4.76674">
        <ele>15.4</ele>
        <time>2020-06-08T19:16:27Z</time>
      </trkpt>
      <trkpt lat="48.36021" lon="-4.76679">
        <ele>15.6</ele>
        <time>2020-06-08T19:16:28Z</time>
      </trkpt>
      <trkpt lat="48.36022" lon="-4.76684">
        <ele>15.8</ele>
        <time>2020-06-08T19:16:29Z</time>
      </trkpt>
      <trkpt lat="48.36023" lon="-4.76692">
        <ele>16</ele>
        <time>2020-06-08T19:16:30Z</time>
      </trkpt>
      <trkpt lat="48.36024" lon="-4.76698">
        <ele>16.2</ele>
        <time>2020-06-08T19:16:31Z</time>
      </trkpt>
      <trkpt lat="48.36025" lon="-4.76702">
        <ele>16.3</ele>
        <time>2020-06-08T19:16:32Z</time>
      </trkpt>
      <trkpt lat="48.36027" lon="-4.76708">
        <ele>16.5</ele>
        <time>2020-06-08T19:16:33Z</time>
      </trkpt>
      <trkpt lat="48.36028" lon="-4.76713">
        <ele>16.7</ele>
        <time>2020-06-08T19:16:34Z</time>
      </trkpt>
      <trkpt lat="48.36028" lon="-4.76715">
        <ele>16.7</ele>
        <time>2020-06-08T19:16:35Z</time>
      </trkpt>
      <trkpt lat="48.36029" lon="-4.7672">
        <ele>16.9</ele>
        <time>2020-06-08T19:16:36Z</time>
      </trkpt>
      <trkpt lat="48.3603" lon="-4.76726">
        <ele>17.1</ele>
        <time>2020-06-08T19:16:37Z</time>
      </trkpt>
      <trkpt lat="48.36031" lon="-4.76732">
        <ele>17.4</ele>
        <time>2020-06-08T19:16:38Z</time>
      </trkpt>
      <trkpt lat="48.36033" lon="-4.76738">
        <ele>17.6</ele>
        <time>2020-06-08T19:16:39Z</time>
      </trkpt>
      <trkpt lat="48.36033" lon="-4.76744">
        <ele>17.8</ele>
        <time>2020-06-08T19:16:40Z</time>
      </trkpt>
      <trkpt lat="48.36035" lon="-4.76749">
        <ele>17.9</ele>
        <time>2020-06-08T19:16:41Z</time>
      </trkpt>
      <trkpt lat="48.36035" lon="-4.76754">
        <ele>18.1</ele>
        <time>2020-06-08T19:16:42Z</time>
      </trkpt>
      <trkpt lat="48.36036" lon="-4.7676">
        <ele>18.3</ele>
        <time>2020-06-08T19:16:43Z</time>
      </trkpt>
      <trkpt lat="48.36036" lon="-4.76766">
        <ele>18.5</ele>
        <time>2020-06-08T19:16:44Z</time>
      </trkpt>
      <trkpt lat="48.36038" lon="-4.7677">
        <ele>18.7</ele>
        <time>2020-06-08T19:16:45Z</time>
      </trkpt>
      <trkpt lat="48.36039" lon="-4.76778">
        <ele>18.9</ele>
        <time>2020-06-08T19:16:46Z</time>
      </trkpt>
      <trkpt lat="48.3604" lon="-4.76782">
        <ele>19</ele>
        <time>2020-06-08T19:16:47Z</time>
      </trkpt>
      <trkpt lat="48.36041" lon="-4.76787">
        <ele>19.2</ele>
        <time>2020-06-08T19:16:48Z</time>
      </trkpt>
      <trkpt lat="48.36042" lon="-4.76792">
        <ele>19.4</ele>
        <time>2020-06-08T19:16:49Z</time>
      </trkpt>
      <trkpt lat="48.36043" lon="-4.76798">
        <ele>19.6</ele>
        <time>2020-06-08T19:16:50Z</time>
      </trkpt>
      <trkpt lat="48.36045" lon="-4.76803">
        <ele>19.7</ele>
        <time>2020-06-08T19:16:51Z</time>
      </trkpt>
      <trkpt lat="48.36046" lon="-4.76808">
        <ele>19.9</ele>
        <time>2020-06-08T19:16:52Z</time>
      </trkpt>
      <trkpt lat="48.36048" lon="-4.76814">
        <ele>20.2</ele>
        <time>2020-06-08T19:16:53Z</time>
      </trkpt>
      <trkpt lat="48.36048" lon="-4.76819">
        <ele>20.4</ele>
        <time>2020-06-08T19:16:54Z</time>
      </trkpt>
      <trkpt lat="48.3605" lon="-4.76826">
        <ele>20.6</ele>
        <time>2020-06-08T19:16:55Z</time>
      </trkpt>
      <trkpt lat="48.36051" lon="-4.76832">
        <ele>20.8</ele>
        <time>2020-06-08T19:16:56Z</time>
      </trkpt>
      <trkpt lat="48.36051" lon="-4.76835">
        <ele>20.9</ele>
        <time>2020-06-08T19:16:57Z</time>
      </trkpt>
      <trkpt lat="48.36052" lon="-4.76841">
        <ele>21.1</ele>
        <time>2020-06-08T19:16:58Z</time>
      </trkpt>
      <trkpt lat="48.36052" lon="-4.76843">
        <ele>21.2</ele>
        <time>2020-06-08T19:16:59Z</time>
      </trkpt>
      <trkpt lat="48.36053" lon="-4.76849">
        <ele>21.4</ele>
        <time>2020-06-08T19:17:00Z</time>
      </trkpt>
      <trkpt lat="48.36054" lon="-4.76853">
        <ele>21.6</ele>
        <time>2020-06-08T19:17:01Z</time>
      </trkpt>
      <trkpt lat="48.36055" lon="-4.76859">
        <ele>21.8</ele>
        <time>2020-06-08T19:17:02Z</time>
      </trkpt>
      <trkpt lat="48.36055" lon="-4.76864">
        <ele>22</ele>
        <time>2020-06-08T19:17:03Z</time>
      </trkpt>
      <trkpt lat="48.36056" lon="-4.76869">
        <ele>22.2</ele>
        <time>2020-06-08T19:17:04Z</time>
      </trkpt>
      <trkpt lat="48.36056" lon="-4.76875">
        <ele>22.5</ele>
        <time>2020-06-08T19:17:05Z</time>
      </trkpt>
      <trkpt lat="48.36057" lon="-4.7688">
        <ele>22.6</ele>
        <time>2020-06-08T19:17:06Z</time>
      </trkpt>
      <trkpt lat="48.36058" lon="-4.76886">
        <ele>22.8</ele>
        <time>2020-06-08T19:17:07Z</time>
      </trkpt>
      <trkpt lat="48.36059" lon="-4.7689">
        <ele>23</ele>
        <time>2020-06-08T19:17:08Z</time>
      </trkpt>
      <trkpt lat="48.36061" lon="-4.76895">
        <ele>23.2</ele>
        <time>2020-06-08T19:17:09Z</time>
      </trkpt>
      <trkpt lat="48.36063" lon="-4.76901">
        <ele>23.4</ele>
        <time>2020-06-08T19:17:10Z</time>
      </trkpt>
      <trkpt lat="48.36064" lon="-4.76905">
        <ele>23.5</ele>
        <time>2020-06-08T19:17:11Z</time>
      </trkpt>
      <trkpt lat="48.36065" lon="-4.76911">
        <ele>23.7</ele>
        <time>2020-06-08T19:17:12Z</time>
      </trkpt>
      <trkpt lat="48.36065" lon="-4.76917">
        <ele>23.9</ele>
        <time>2020-06-08T19:17:13Z</time>
      </trkpt>
      <trkpt lat="48.36066" lon="-4.76923">
        <ele>24.1</ele>
        <time>2020-06-08T19:17:14Z</time>
      </trkpt>
      <trkpt lat="48.36067" lon="-4.76928">
        <ele>24.3</ele>
        <time>2020-06-08T19:17:15Z</time>
      </trkpt>
      <trkpt lat="48.36069" lon="-4.76933">
        <ele>24.4</ele>
        <time>2020-06-08T19:17:16Z</time>
      </trkpt>
      <trkpt lat="48.36069" lon="-4.76937">
        <ele>24.6</ele>
        <time>2020-06-08T19:17:17Z</time>
      </trkpt>
      <trkpt lat="48.3607" lon="-4.76944">
        <ele>24.8</ele>
        <time>2020-06-08T19:17:18Z</time>
      </trkpt>
      <trkpt lat="48.36071" lon="-4.76949">
        <ele>24.9</ele>
        <time>2020-06-08T19:17:19Z</time>
      </trkpt>
      <trkpt lat="48.36072" lon="-4.76953">
        <ele>25</ele>
        <time>2020-06-08T19:17:20Z</time>
      </trkpt>
      <trkpt lat="48.36072" lon="-4.76958">
        <ele>25.2</ele>
        <time>2020-06-08T19:17:21Z</time>
      </trkpt>
      <trkpt lat="48.36073" lon="-4.76964">
        <ele>25.4</ele>
        <time>2020-06-08T19:17:22Z</time>
      </trkpt>
      <trkpt lat="48.36074" lon="-4.7697">
        <ele>25.5</ele>
        <time>2020-06-08T19:17:23Z</time>
      </trkpt>
      <trkpt lat="48.36076" lon="-4.76976">
        <ele>25.7</ele>
        <time>2020-06-08T19:17:24Z</time>
      </trkpt>
      <trkpt lat="48.36076" lon="-4.76979">
        <ele>25.8</ele>
        <time>2020-06-08T19:17:25Z</time>
      </trkpt>
      <trkpt lat="48.36077" lon="-4.76984">
        <ele>26</ele>
        <time>2020-06-08T19:17:26Z</time>
      </trkpt>
      <trkpt lat="48.36078" lon="-4.76989">
        <ele>26.1</ele>
        <time>2020-06-08T19:17:27Z</time>
      </trkpt>
      <trkpt lat="48.36079" lon="-4.76995">
        <ele>26.3</ele>
        <time>2020-06-08T19:17:28Z</time>
      </trkpt>
      <trkpt lat="48.3608" lon="-4.76998">
        <ele>26.4</ele>
        <time>2020-06-08T19:17:29Z</time>
      </trkpt>
      <trkpt lat="48.36081" lon="-4.77004">
        <ele>26.6</ele>
        <time>2020-06-08T19:17:30Z</time>
      </trkpt>
      <trkpt lat="48.36082" lon="-4.77009">
        <ele>26.7</ele>
        <time>2020-06-08T19:17:31Z</time>
      </trkpt>
      <trkpt lat="48.36083" lon="-4.77014">
        <ele>26.8</ele>
        <time>2020-06-08T19:17:32Z</time>
      </trkpt>
      <trkpt lat="48.36085" lon="-4.77018">
        <ele>27</ele>
        <time>2020-06-08T19:17:33Z</time>
      </trkpt>
      <trkpt lat="48.36087" lon="-4.77025">
        <ele>27.1</ele>
        <time>2020-06-08T19:17:34Z</time>
      </trkpt>
      <trkpt lat="48.36087" lon="-4.77027">
        <ele>27.1</ele>
        <time>2020-06-08T19:17:35Z</time>
      </trkpt>
      <trkpt lat="48.36089" lon="-4.77031">
        <ele>27.1</ele>
        <time>2020-06-08T19:17:36Z</time>
      </trkpt>
      <trkpt lat="48.36089" lon="-4.77032">
        <ele>27.1</ele>
        <time>2020-06-08T19:17:37Z</time>
      </trkpt>
      <trkpt lat="48.3609" lon="-4.77038">
        <ele>27</ele>
        <time>2020-06-08T19:17:38Z</time>
      </trkpt>
      <trkpt lat="48.36091" lon="-4.77044">
        <ele>27.1</ele>
        <time>2020-06-08T19:17:39Z</time>
      </trkpt>
      <trkpt lat="48.36091" lon="-4.77047">
        <ele>27.1</ele>
        <time>2020-06-08T19:17:40Z</time>
      </trkpt>
      <trkpt lat="48.36089" lon="-4.7705">
        <ele>27.1</ele>
        <time>2020-06-08T19:17:41Z</time>
      </trkpt>
      <trkpt lat="48.36088" lon="-4.77054">
        <ele>27.1</ele>
        <time>2020-06-08T19:17:42Z</time>
      </trkpt>
      <trkpt lat="48.36088" lon="-4.7706">
        <ele>27.2</ele>
        <time>2020-06-08T19:17:43Z</time>
      </trkpt>
      <trkpt lat="48.36086" lon="-4.77065">
        <ele>27.2</ele>
        <time>2020-06-08T19:17:44Z</time>
      </trkpt>
      <trkpt lat="48.36086" lon="-4.77071">
        <ele>27.3</ele>
        <time>2020-06-08T19:17:45Z</time>
      </trkpt>
      <trkpt lat="48.36085" lon="-4.77078">
        <ele>27.3</ele>
        <time>2020-06-08T19:17:46Z</time>
      </trkpt>
      <trkpt lat="48.36084" lon="-4.77085">
        <ele>27.4</ele>
        <time>2020-06-08T19:17:47Z</time>
      </trkpt>
      <trkpt lat="48.36083" lon="-4.77092">
        <ele>27.4</ele>
        <time>2020-06-08T19:17:48Z</time>
      </trkpt>
      <trkpt lat="48.36082" lon="-4.77098">
        <ele>27.4</ele>
        <time>2020-06-08T19:17:49Z</time>
      </trkpt>
      <trkpt lat="48.3608" lon="-4.77104">
        <ele>27.4</ele>
        <time>2020-06-08T19:17:50Z</time>
      </trkpt>
      <trkpt lat="48.36079" lon="-4.77111">
        <ele>27.4</ele>
        <time>2020-06-08T19:17:51Z</time>
      </trkpt>
      <trkpt lat="48.36078" lon="-4.77117">
        <ele>27.4</ele>
        <time>2020-06-08T19:17:52Z</time>
      </trkpt>
      <trkpt lat="48.36078" lon="-4.77124">
        <ele>27.5</ele>
        <time>2020-06-08T19:17:53Z</time>
      </trkpt>
      <trkpt lat="48.36076" lon="-4.77132">
        <ele>27.5</ele>
        <time>2020-06-08T19:17:54Z</time>
      </trkpt>
      <trkpt lat="48.36076" lon="-4.77139">
        <ele>27.5</ele>
        <time>2020-06-08T19:17:55Z</time>
      </trkpt>
      <trkpt lat="48.36076" lon="-4.77147">
        <ele>27.6</ele>
        <time>2020-06-08T19:17:56Z</time>
      </trkpt>
      <trkpt lat="48.36074" lon="-4.77155">
        <ele>27.6</ele>
        <time>2020-06-08T19:17:57Z</time>
      </trkpt>
      <trkpt lat="48.36073" lon="-4.77163">
        <ele>27.6</ele>
        <time>2020-06-08T19:17:58Z</time>
      </trkpt>
      <trkpt lat="48.36071" lon="-4.77169">
        <ele>27.5</ele>
        <time>2020-06-08T19:17:59Z</time>
      </trkpt>
      <trkpt lat="48.36069" lon="-4.77177">
        <ele>27.5</ele>
        <time>2020-06-08T19:18:00Z</time>
      </trkpt>
      <trkpt lat="48.36068" lon="-4.77184">
        <ele>27.5</ele>
        <time>2020-06-08T19:18:01Z</time>
      </trkpt>
      <trkpt lat="48.36066" lon="-4.77193">
        <ele>27.5</ele>
        <time>2020-06-08T19:18:02Z</time>
      </trkpt>
      <trkpt lat="48.36064" lon="-4.772">
        <ele>27.4</ele>
        <time>2020-06-08T19:18:03Z</time>
      </trkpt>
      <trkpt lat="48.36062" lon="-4.77207">
        <ele>27.4</ele>
        <time>2020-06-08T19:18:04Z</time>
      </trkpt>
      <trkpt lat="48.3606" lon="-4.77215">
        <ele>27.4</ele>
        <time>2020-06-08T19:18:05Z</time>
      </trkpt>
      <trkpt lat="48.36059" lon="-4.77222">
        <ele>27.4</ele>
        <time>2020-06-08T19:18:06Z</time>
      </trkpt>
      <trkpt lat="48.36057" lon="-4.77229">
        <ele>27.3</ele>
        <time>2020-06-08T19:18:07Z</time>
      </trkpt>
      <trkpt lat="48.36055" lon="-4.77237">
        <ele>27.3</ele>
        <time>2020-06-08T19:18:08Z</time>
      </trkpt>
      <trkpt lat="48.36053" lon="-4.77244">
        <ele>27.3</ele>
        <time>2020-06-08T19:18:09Z</time>
      </trkpt>
      <trkpt lat="48.36051" lon="-4.77253">
        <ele>27.3</ele>
        <time>2020-06-08T19:18:10Z</time>
      </trkpt>
      <trkpt lat="48.36048" lon="-4.7726">
        <ele>27.2</ele>
        <time>2020-06-08T19:18:11Z</time>
      </trkpt>
      <trkpt lat="48.36045" lon="-4.77266">
        <ele>27.2</ele>
        <time>2020-06-08T19:18:12Z</time>
      </trkpt>
      <trkpt lat="48.36042" lon="-4.77274">
        <ele>27.1</ele>
        <time>2020-06-08T19:18:13Z</time>
      </trkpt>
      <trkpt lat="48.36041" lon="-4.77282">
        <ele>27.1</ele>
        <time>2020-06-08T19:18:14Z</time>
      </trkpt>
      <trkpt lat="48.3604" lon="-4.77291">
        <ele>27</ele>
        <time>2020-06-08T19:18:15Z</time>
      </trkpt>
      <trkpt lat="48.36038" lon="-4.77299">
        <ele>26.9</ele>
        <time>2020-06-08T19:18:16Z</time>
      </trkpt>
      <trkpt lat="48.36036" lon="-4.77306">
        <ele>26.8</ele>
        <time>2020-06-08T19:18:17Z</time>
      </trkpt>
      <trkpt lat="48.36034" lon="-4.77314">
        <ele>26.8</ele>
        <time>2020-06-08T19:18:18Z</time>
      </trkpt>
      <trkpt lat="48.36031" lon="-4.77322">
        <ele>26.7</ele>
        <time>2020-06-08T19:18:19Z</time>
      </trkpt>
      <trkpt lat="48.36028" lon="-4.77329">
        <ele>26.6</ele>
        <time>2020-06-08T19:18:20Z</time>
      </trkpt>
      <trkpt lat="48.36025" lon="-4.77337">
        <ele>26.6</ele>
        <time>2020-06-08T19:18:21Z</time>
      </trkpt>
      <trkpt lat="48.36021" lon="-4.77345">
        <ele>26.5</ele>
        <time>2020-06-08T19:18:22Z</time>
      </trkpt>
      <trkpt lat="48.36018" lon="-4.77353">
        <ele>26.5</ele>
        <time>2020-06-08T19:18:23Z</time>
      </trkpt>
      <trkpt lat="48.36016" lon="-4.7736">
        <ele>26.4</ele>
        <time>2020-06-08T19:18:24Z</time>
      </trkpt>
      <trkpt lat="48.36014" lon="-4.77368">
        <ele>26.3</ele>
        <time>2020-06-08T19:18:25Z</time>
      </trkpt>
      <trkpt lat="48.36011" lon="-4.77371">
        <ele>26.3</ele>
        <time>2020-06-08T19:18:26Z</time>
      </trkpt>
      <trkpt lat="48.36009" lon="-4.77374">
        <ele>26.3</ele>
        <time>2020-06-08T19:18:27Z</time>
      </trkpt>
      <trkpt lat="48.36007" lon="-4.77371">
        <ele>26.3</ele>
        <time>2020-06-08T19:18:28Z</time>
      </trkpt>
      <trkpt lat="48.36005" lon="-4.77367">
        <ele>26.4</ele>
        <time>2020-06-08T19:18:29Z</time>
      </trkpt>
      <trkpt lat="48.36003" lon="-4.77363">
        <ele>26.5</ele>
        <time>2020-06-08T19:18:30Z</time>
      </trkpt>
      <trkpt lat="48.36002" lon="-4.77362">
        <ele>26.5</ele>
        <time>2020-06-08T19:18:31Z</time>
      </trkpt>
      <trkpt lat="48.35999" lon="-4.77358">
        <ele>26.6</ele>
        <time>2020-06-08T19:18:32Z</time>
      </trkpt>
      <trkpt lat="48.35998" lon="-4.77356">
        <ele>26.6</ele>
        <time>2020-06-08T19:18:33Z</time>
      </trkpt>
      <trkpt lat="48.35995" lon="-4.77353">
        <ele>26.7</ele>
        <time>2020-06-08T19:18:34Z</time>
      </trkpt>
      <trkpt lat="48.35993" lon="-4.7735">
        <ele>26.8</ele>
        <time>2020-06-08T19:18:35Z</time>
      </trkpt>
      <trkpt lat="48.3599" lon="-4.77347">
        <ele>26.9</ele>
        <time>2020-06-08T19:18:36Z</time>
      </trkpt>
      <trkpt lat="48.35986" lon="-4.77343">
        <ele>27.1</ele>
        <time>2020-06-08T19:18:37Z</time>
      </trkpt>
      <trkpt lat="48.35982" lon="-4.7734">
        <ele>27.2</ele>
        <time>2020-06-08T19:18:38Z</time>
      </trkpt>
      <trkpt lat="48.3598" lon="-4.77337">
        <ele>27.3</ele>
        <time>2020-06-08T19:18:39Z</time>
      </trkpt>
      <trkpt lat="48.35977" lon="-4.77335">
        <ele>27.4</ele>
        <time>2020-06-08T19:18:40Z</time>
      </trkpt>
      <trkpt lat="48.35974" lon="-4.77331">
        <ele>27.5</ele>
        <time>2020-06-08T19:18:41Z</time>
      </trkpt>
      <trkpt lat="48.35971" lon="-4.77329">
        <ele>27.6</ele>
        <time>2020-06-08T19:18:42Z</time>
      </trkpt>
      <trkpt lat="48.35967" lon="-4.77326">
        <ele>27.8</ele>
        <time>2020-06-08T19:18:43Z</time>
      </trkpt>
      <trkpt lat="48.35962" lon="-4.77324">
        <ele>28</ele>
        <time>2020-06-08T19:18:44Z</time>
      </trkpt>
      <trkpt lat="48.35957" lon="-4.77323">
        <ele>28.1</ele>
        <time>2020-06-08T19:18:45Z</time>
      </trkpt>
      <trkpt lat="48.35953" lon="-4.77326">
        <ele>28.3</ele>
        <time>2020-06-08T19:18:46Z</time>
      </trkpt>
      <trkpt lat="48.35952" lon="-4.77332">
        <ele>28.4</ele>
        <time>2020-06-08T19:18:47Z</time>
      </trkpt>
      <trkpt lat="48.35953" lon="-4.77338">
        <ele>28.6</ele>
        <time>2020-06-08T19:18:48Z</time>
      </trkpt>
      <trkpt lat="48.35953" lon="-4.77344">
        <ele>28.6</ele>
        <time>2020-06-08T19:18:49Z</time>
      </trkpt>
      <trkpt lat="48.35954" lon="-4.77345">
        <ele>28.5</ele>
        <time>2020-06-08T19:18:50Z</time>
      </trkpt>
      <trkpt lat="48.35956" lon="-4.77347">
        <ele>28.4</ele>
        <time>2020-06-08T19:18:51Z</time>
      </trkpt>
      <trkpt lat="48.35956" lon="-4.77347">
        <ele>28.4</ele>
        <time>2020-06-08T19:18:52Z</time>
      </trkpt>
      <trkpt lat="48.35956" lon="-4.77347">
        <ele>28.4</ele>
        <time>2020-06-08T19:18:53Z</time>
      </trkpt>
      <trkpt lat="48.35955" lon="-4.77346">
        <ele>28.4</ele>
        <time>2020-06-08T19:18:54Z</time>
      </trkpt>
      <trkpt lat="48.35954" lon="-4.77345">
        <ele>28.3</ele>
        <time>2020-06-08T19:18:55Z</time>
      </trkpt>
      <trkpt lat="48.35954" lon="-4.77345">
        <ele>28.3</ele>
        <time>2020-06-08T19:18:56Z</time>
      </trkpt>
      <trkpt lat="48.35954" lon="-4.77345">
        <ele>28.3</ele>
        <time>2020-06-08T19:18:57Z</time>
      </trkpt>
      <trkpt lat="48.35955" lon="-4.77345">
        <ele>28.3</ele>
        <time>2020-06-08T19:18:58Z</time>
      </trkpt>
      <trkpt lat="48.35955" lon="-4.77345">
        <ele>28.3</ele>
        <time>2020-06-08T19:18:59Z</time>
      </trkpt>
      <trkpt lat="48.35955" lon="-4.77346">
        <ele>28.3</ele>
        <time>2020-06-08T19:19:00Z</time>
      </trkpt>
      <trkpt lat="48.35956" lon="-4.77346">
        <ele>28.2</ele>
        <time>2020-06-08T19:19:01Z</time>
      </trkpt>
      <trkpt lat="48.35956" lon="-4.77348">
        <ele>28.2</ele>
        <time>2020-06-08T19:19:02Z</time>
      </trkpt>
      <trkpt lat="48.35956" lon="-4.77349">
        <ele>28.2</ele>
        <time>2020-06-08T19:19:03Z</time>
      </trkpt>
      <trkpt lat="48.35957" lon="-4.77349">
        <ele>28.2</ele>
        <time>2020-06-08T19:19:04Z</time>
      </trkpt>
      <trkpt lat="48.35957" lon="-4.77349">
        <ele>28.1</ele>
        <time>2020-06-08T19:19:05Z</time>
      </trkpt>
      <trkpt lat="48.35957" lon="-4.77349">
        <ele>28.1</ele>
        <time>2020-06-08T19:19:06Z</time>
      </trkpt>
      <trkpt lat="48.35958" lon="-4.77349">
        <ele>28.1</ele>
        <time>2020-06-08T19:19:07Z</time>
      </trkpt>
      <trkpt lat="48.35958" lon="-4.77349">
        <ele>28.1</ele>
        <time>2020-06-08T19:19:08Z</time>
      </trkpt>
      <trkpt lat="48.35958" lon="-4.77349">
        <ele>28.1</ele>
        <time>2020-06-08T19:19:09Z</time>
      </trkpt>
      <trkpt lat="48.35958" lon="-4.77349">
        <ele>28.1</ele>
        <time>2020-06-08T19:19:10Z</time>
      </trkpt>
      <trkpt lat="48.35958" lon="-4.77348">
        <ele>28.1</ele>
        <time>2020-06-08T19:19:11Z</time>
      </trkpt>
      <trkpt lat="48.35958" lon="-4.77348">
        <ele>28.1</ele>
        <time>2020-06-08T19:19:12Z</time>
      </trkpt>
      <trkpt lat="48.35959" lon="-4.77347">
        <ele>28.1</ele>
        <time>2020-06-08T19:19:13Z</time>
      </trkpt>
      <trkpt lat="48.35959" lon="-4.77347">
        <ele>28</ele>
        <time>2020-06-08T19:19:14Z</time>
      </trkpt>
      <trkpt lat="48.35959" lon="-4.77346">
        <ele>28</ele>
        <time>2020-06-08T19:19:15Z</time>
      </trkpt>
      <trkpt lat="48.3596" lon="-4.77345">
        <ele>28</ele>
        <time>2020-06-08T19:19:16Z</time>
      </trkpt>
      <trkpt lat="48.3596" lon="-4.77345">
        <ele>28</ele>
        <time>2020-06-08T19:19:17Z</time>
      </trkpt>
      <trkpt lat="48.3596" lon="-4.77344">
        <ele>28</ele>
        <time>2020-06-08T19:19:18Z</time>
      </trkpt>
      <trkpt lat="48.3596" lon="-4.77343">
        <ele>28</ele>
        <time>2020-06-08T19:19:19Z</time>
      </trkpt>
      <trkpt lat="48.35961" lon="-4.77343">
        <ele>28</ele>
        <time>2020-06-08T19:19:20Z</time>
      </trkpt>
      <trkpt lat="48.35961" lon="-4.77342">
        <ele>27.9</ele>
        <time>2020-06-08T19:19:21Z</time>
      </trkpt>
      <trkpt lat="48.35961" lon="-4.77342">
        <ele>27.9</ele>
        <time>2020-06-08T19:19:22Z</time>
      </trkpt>
      <trkpt lat="48.35962" lon="-4.77341">
        <ele>27.9</ele>
        <time>2020-06-08T19:19:23Z</time>
      </trkpt>
      <trkpt lat="48.35962" lon="-4.7734">
        <ele>27.9</ele>
        <time>2020-06-08T19:19:24Z</time>
      </trkpt>
      <trkpt lat="48.35962" lon="-4.7734">
        <ele>27.9</ele>
        <time>2020-06-08T19:19:25Z</time>
      </trkpt>
      <trkpt lat="48.35962" lon="-4.77339">
        <ele>27.9</ele>
        <time>2020-06-08T19:21:55Z</time>
      </trkpt>
      <trkpt lat="48.35963" lon="-4.77338">
        <ele>27.8</ele>
        <time>2020-06-08T19:21:56Z</time>
      </trkpt>
      <trkpt lat="48.35966" lon="-4.77336">
        <ele>27.7</ele>
        <time>2020-06-08T19:21:57Z</time>
      </trkpt>
      <trkpt lat="48.35967" lon="-4.77336">
        <ele>27.7</ele>
        <time>2020-06-08T19:21:58Z</time>
      </trkpt>
      <trkpt lat="48.35968" lon="-4.77335">
        <ele>27.6</ele>
        <time>2020-06-08T19:21:59Z</time>
      </trkpt>
      <trkpt lat="48.3597" lon="-4.77335">
        <ele>27.6</ele>
        <time>2020-06-08T19:22:00Z</time>
      </trkpt>
      <trkpt lat="48.35973" lon="-4.77335">
        <ele>27.5</ele>
        <time>2020-06-08T19:22:01Z</time>
      </trkpt>
      <trkpt lat="48.35974" lon="-4.77335">
        <ele>27.5</ele>
        <time>2020-06-08T19:22:02Z</time>
      </trkpt>
      <trkpt lat="48.35977" lon="-4.77335">
        <ele>27.4</ele>
        <time>2020-06-08T19:22:03Z</time>
      </trkpt>
      <trkpt lat="48.3598" lon="-4.77336">
        <ele>27.3</ele>
        <time>2020-06-08T19:22:04Z</time>
      </trkpt>
      <trkpt lat="48.35982" lon="-4.77339">
        <ele>27.2</ele>
        <time>2020-06-08T19:22:05Z</time>
      </trkpt>
      <trkpt lat="48.35985" lon="-4.77341">
        <ele>27.1</ele>
        <time>2020-06-08T19:22:06Z</time>
      </trkpt>
      <trkpt lat="48.35987" lon="-4.77345">
        <ele>27</ele>
        <time>2020-06-08T19:22:07Z</time>
      </trkpt>
      <trkpt lat="48.35989" lon="-4.77348">
        <ele>26.9</ele>
        <time>2020-06-08T19:22:08Z</time>
      </trkpt>
      <trkpt lat="48.35992" lon="-4.77352">
        <ele>26.8</ele>
        <time>2020-06-08T19:22:09Z</time>
      </trkpt>
      <trkpt lat="48.35995" lon="-4.77356">
        <ele>26.7</ele>
        <time>2020-06-08T19:22:10Z</time>
      </trkpt>
      <trkpt lat="48.35997" lon="-4.77361">
        <ele>26.6</ele>
        <time>2020-06-08T19:22:11Z</time>
      </trkpt>
      <trkpt lat="48.36" lon="-4.77365">
        <ele>26.5</ele>
        <time>2020-06-08T19:22:12Z</time>
      </trkpt>
      <trkpt lat="48.36002" lon="-4.77367">
        <ele>26.5</ele>
        <time>2020-06-08T19:22:13Z</time>
      </trkpt>
      <trkpt lat="48.36005" lon="-4.7737">
        <ele>26.4</ele>
        <time>2020-06-08T19:22:14Z</time>
      </trkpt>
      <trkpt lat="48.36006" lon="-4.7737">
        <ele>26.4</ele>
        <time>2020-06-08T19:22:15Z</time>
      </trkpt>
      <trkpt lat="48.36009" lon="-4.77368">
        <ele>26.3</ele>
        <time>2020-06-08T19:22:16Z</time>
      </trkpt>
      <trkpt lat="48.3601" lon="-4.77367">
        <ele>26.3</ele>
        <time>2020-06-08T19:22:17Z</time>
      </trkpt>
      <trkpt lat="48.36011" lon="-4.77367">
        <ele>26.3</ele>
        <time>2020-06-08T19:22:18Z</time>
      </trkpt>
      <trkpt lat="48.36012" lon="-4.77364">
        <ele>26.3</ele>
        <time>2020-06-08T19:22:19Z</time>
      </trkpt>
      <trkpt lat="48.36013" lon="-4.7736">
        <ele>26.4</ele>
        <time>2020-06-08T19:22:20Z</time>
      </trkpt>
      <trkpt lat="48.36015" lon="-4.77355">
        <ele>26.4</ele>
        <time>2020-06-08T19:22:21Z</time>
      </trkpt>
      <trkpt lat="48.36017" lon="-4.77351">
        <ele>26.5</ele>
        <time>2020-06-08T19:22:22Z</time>
      </trkpt>
      <trkpt lat="48.36019" lon="-4.77346">
        <ele>26.5</ele>
        <time>2020-06-08T19:22:23Z</time>
      </trkpt>
      <trkpt lat="48.36021" lon="-4.7734">
        <ele>26.6</ele>
        <time>2020-06-08T19:22:24Z</time>
      </trkpt>
      <trkpt lat="48.36023" lon="-4.77335">
        <ele>26.6</ele>
        <time>2020-06-08T19:22:25Z</time>
      </trkpt>
      <trkpt lat="48.36024" lon="-4.77328">
        <ele>26.6</ele>
        <time>2020-06-08T19:22:26Z</time>
      </trkpt>
      <trkpt lat="48.36026" lon="-4.77322">
        <ele>26.7</ele>
        <time>2020-06-08T19:22:27Z</time>
      </trkpt>
      <trkpt lat="48.36028" lon="-4.77317">
        <ele>26.7</ele>
        <time>2020-06-08T19:22:28Z</time>
      </trkpt>
      <trkpt lat="48.3603" lon="-4.77314">
        <ele>26.8</ele>
        <time>2020-06-08T19:22:29Z</time>
      </trkpt>
      <trkpt lat="48.36032" lon="-4.77309">
        <ele>26.8</ele>
        <time>2020-06-08T19:22:30Z</time>
      </trkpt>
      <trkpt lat="48.36033" lon="-4.77303">
        <ele>26.9</ele>
        <time>2020-06-08T19:22:31Z</time>
      </trkpt>
      <trkpt lat="48.36035" lon="-4.77297">
        <ele>26.9</ele>
        <time>2020-06-08T19:22:32Z</time>
      </trkpt>
      <trkpt lat="48.36037" lon="-4.77291">
        <ele>27</ele>
        <time>2020-06-08T19:22:33Z</time>
      </trkpt>
      <trkpt lat="48.36039" lon="-4.77284">
        <ele>27</ele>
        <time>2020-06-08T19:22:34Z</time>
      </trkpt>
      <trkpt lat="48.3604" lon="-4.77278">
        <ele>27.1</ele>
        <time>2020-06-08T19:22:35Z</time>
      </trkpt>
      <trkpt lat="48.36042" lon="-4.77272">
        <ele>27.1</ele>
        <time>2020-06-08T19:22:36Z</time>
      </trkpt>
      <trkpt lat="48.36044" lon="-4.77266">
        <ele>27.2</ele>
        <time>2020-06-08T19:22:37Z</time>
      </trkpt>
      <trkpt lat="48.36045" lon="-4.7726">
        <ele>27.2</ele>
        <time>2020-06-08T19:22:38Z</time>
      </trkpt>
      <trkpt lat="48.36046" lon="-4.77255">
        <ele>27.2</ele>
        <time>2020-06-08T19:22:39Z</time>
      </trkpt>
      <trkpt lat="48.36048" lon="-4.7725">
        <ele>27.3</ele>
        <time>2020-06-08T19:22:40Z</time>
      </trkpt>
      <trkpt lat="48.3605" lon="-4.77244">
        <ele>27.3</ele>
        <time>2020-06-08T19:22:41Z</time>
      </trkpt>
      <trkpt lat="48.36052" lon="-4.77239">
        <ele>27.3</ele>
        <time>2020-06-08T19:22:42Z</time>
      </trkpt>
      <trkpt lat="48.36054" lon="-4.77232">
        <ele>27.3</ele>
        <time>2020-06-08T19:22:43Z</time>
      </trkpt>
      <trkpt lat="48.36055" lon="-4.77226">
        <ele>27.4</ele>
        <time>2020-06-08T19:22:44Z</time>
      </trkpt>
      <trkpt lat="48.36057" lon="-4.77219">
        <ele>27.4</ele>
        <time>2020-06-08T19:22:45Z</time>
      </trkpt>
      <trkpt lat="48.36059" lon="-4.77213">
        <ele>27.4</ele>
        <time>2020-06-08T19:22:46Z</time>
      </trkpt>
      <trkpt lat="48.3606" lon="-4.77208">
        <ele>27.4</ele>
        <time>2020-06-08T19:22:47Z</time>
      </trkpt>
      <trkpt lat="48.36063" lon="-4.77201">
        <ele>27.4</ele>
        <time>2020-06-08T19:22:48Z</time>
      </trkpt>
      <trkpt lat="48.36065" lon="-4.77195">
        <ele>27.5</ele>
        <time>2020-06-08T19:22:49Z</time>
      </trkpt>
      <trkpt lat="48.36067" lon="-4.77188">
        <ele>27.5</ele>
        <time>2020-06-08T19:22:50Z</time>
      </trkpt>
      <trkpt lat="48.36068" lon="-4.77182">
        <ele>27.5</ele>
        <time>2020-06-08T19:22:51Z</time>
      </trkpt>
      <trkpt lat="48.3607" lon="-4.77175">
        <ele>27.5</ele>
        <time>2020-06-08T19:22:52Z</time>
      </trkpt>
      <trkpt lat="48.36071" lon="-4.77169">
        <ele>27.5</ele>
        <time>2020-06-08T19:22:53Z</time>
      </trkpt>
      <trkpt lat="48.36072" lon="-4.77162">
        <ele>27.6</ele>
        <time>2020-06-08T19:22:54Z</time>
      </trkpt>
      <trkpt lat="48.36073" lon="-4.77154">
        <ele>27.6</ele>
        <time>2020-06-08T19:22:55Z</time>
      </trkpt>
      <trkpt lat="48.36074" lon="-4.77147">
        <ele>27.6</ele>
        <time>2020-06-08T19:22:56Z</time>
      </trkpt>
      <trkpt lat="48.36075" lon="-4.7714">
        <ele>27.5</ele>
        <time>2020-06-08T19:22:57Z</time>
      </trkpt>
      <trkpt lat="48.36077" lon="-4.77132">
        <ele>27.5</ele>
        <time>2020-06-08T19:22:58Z</time>
      </trkpt>
      <trkpt lat="48.36079" lon="-4.77125">
        <ele>27.5</ele>
        <time>2020-06-08T19:22:59Z</time>
      </trkpt>
      <trkpt lat="48.3608" lon="-4.77118">
        <ele>27.4</ele>
        <time>2020-06-08T19:23:00Z</time>
      </trkpt>
      <trkpt lat="48.36081" lon="-4.7711">
        <ele>27.4</ele>
        <time>2020-06-08T19:23:01Z</time>
      </trkpt>
      <trkpt lat="48.36082" lon="-4.77104">
        <ele>27.4</ele>
        <time>2020-06-08T19:23:02Z</time>
      </trkpt>
      <trkpt lat="48.36083" lon="-4.77097">
        <ele>27.4</ele>
        <time>2020-06-08T19:23:03Z</time>
      </trkpt>
      <trkpt lat="48.36084" lon="-4.7709">
        <ele>27.4</ele>
        <time>2020-06-08T19:23:04Z</time>
      </trkpt>
      <trkpt lat="48.36084" lon="-4.77084">
        <ele>27.4</ele>
        <time>2020-06-08T19:23:05Z</time>
      </trkpt>
      <trkpt lat="48.36085" lon="-4.77078">
        <ele>27.3</ele>
        <time>2020-06-08T19:23:06Z</time>
      </trkpt>
      <trkpt lat="48.36085" lon="-4.77072">
        <ele>27.3</ele>
        <time>2020-06-08T19:23:07Z</time>
      </trkpt>
      <trkpt lat="48.36087" lon="-4.77067">
        <ele>27.2</ele>
        <time>2020-06-08T19:23:08Z</time>
      </trkpt>
      <trkpt lat="48.36088" lon="-4.7706">
        <ele>27.1</ele>
        <time>2020-06-08T19:23:09Z</time>
      </trkpt>
      <trkpt lat="48.36087" lon="-4.77055">
        <ele>27.1</ele>
        <time>2020-06-08T19:23:10Z</time>
      </trkpt>
      <trkpt lat="48.36088" lon="-4.77048">
        <ele>27.1</ele>
        <time>2020-06-08T19:23:11Z</time>
      </trkpt>
      <trkpt lat="48.36088" lon="-4.77045">
        <ele>27</ele>
        <time>2020-06-08T19:23:12Z</time>
      </trkpt>
      <trkpt lat="48.36089" lon="-4.7704">
        <ele>27</ele>
        <time>2020-06-08T19:23:13Z</time>
      </trkpt>
      <trkpt lat="48.36089" lon="-4.77038">
        <ele>27</ele>
        <time>2020-06-08T19:23:14Z</time>
      </trkpt>
      <trkpt lat="48.3609" lon="-4.77035">
        <ele>27</ele>
        <time>2020-06-08T19:23:15Z</time>
      </trkpt>
      <trkpt lat="48.3609" lon="-4.77033">
        <ele>27</ele>
        <time>2020-06-08T19:23:16Z</time>
      </trkpt>
      <trkpt lat="48.36091" lon="-4.77029">
        <ele>27.1</ele>
        <time>2020-06-08T19:23:17Z</time>
      </trkpt>
      <trkpt lat="48.36091" lon="-4.77027">
        <ele>27.1</ele>
        <time>2020-06-08T19:23:18Z</time>
      </trkpt>
      <trkpt lat="48.36088" lon="-4.77025">
        <ele>27.1</ele>
        <time>2020-06-08T19:23:19Z</time>
      </trkpt>
      <trkpt lat="48.36085" lon="-4.77024">
        <ele>27.1</ele>
        <time>2020-06-08T19:23:20Z</time>
      </trkpt>
      <trkpt lat="48.36082" lon="-4.77025">
        <ele>27.1</ele>
        <time>2020-06-08T19:23:21Z</time>
      </trkpt>
      <trkpt lat="48.3608" lon="-4.77028">
        <ele>27.2</ele>
        <time>2020-06-08T19:23:22Z</time>
      </trkpt>
      <trkpt lat="48.36079" lon="-4.77031">
        <ele>27.2</ele>
        <time>2020-06-08T19:23:23Z</time>
      </trkpt>
      <trkpt lat="48.36078" lon="-4.77032">
        <ele>27.2</ele>
        <time>2020-06-08T19:23:24Z</time>
      </trkpt>
      <trkpt lat="48.36078" lon="-4.77033">
        <ele>27.2</ele>
        <time>2020-06-08T19:23:25Z</time>
      </trkpt>
      <trkpt lat="48.36078" lon="-4.77032">
        <ele>27.2</ele>
        <time>2020-06-08T19:23:26Z</time>
      </trkpt>
      <trkpt lat="48.36078" lon="-4.77032">
        <ele>27.2</ele>
        <time>2020-06-08T19:23:27Z</time>
      </trkpt>
      <trkpt lat="48.36078" lon="-4.77032">
        <ele>27.2</ele>
        <time>2020-06-08T19:23:28Z</time>
      </trkpt>
      <trkpt lat="48.36078" lon="-4.77032">
        <ele>27.2</ele>
        <time>2020-06-08T19:23:29Z</time>
      </trkpt>
      <trkpt lat="48.36078" lon="-4.77032">
        <ele>27.2</ele>
        <time>2020-06-08T19:23:30Z</time>
      </trkpt>
      <trkpt lat="48.36078" lon="-4.77032">
        <ele>27.2</ele>
        <time>2020-06-08T19:23:31Z</time>
      </trkpt>
      <trkpt lat="48.36078" lon="-4.77032">
        <ele>27.2</ele>
        <time>2020-06-08T19:23:32Z</time>
      </trkpt>
      <trkpt lat="48.36077" lon="-4.77032">
        <ele>27.2</ele>
        <time>2020-06-08T19:23:33Z</time>
      </trkpt>
      <trkpt lat="48.36078" lon="-4.77032">
        <ele>27.2</ele>
        <time>2020-06-08T19:23:34Z</time>
      </trkpt>
      <trkpt lat="48.36078" lon="-4.77031">
        <ele>27.2</ele>
        <time>2020-06-08T19:23:35Z</time>
      </trkpt>
      <trkpt lat="48.36078" lon="-4.77031">
        <ele>27.2</ele>
        <time>2020-06-08T19:23:36Z</time>
      </trkpt>
      <trkpt lat="48.36078" lon="-4.77031">
        <ele>27.2</ele>
        <time>2020-06-08T19:23:37Z</time>
      </trkpt>
      <trkpt lat="48.36078" lon="-4.77031">
        <ele>27.2</ele>
        <time>2020-06-08T19:23:38Z</time>
      </trkpt>
      <trkpt lat="48.36078" lon="-4.77031">
        <ele>27.2</ele>
        <time>2020-06-08T19:23:39Z</time>
      </trkpt>
      <trkpt lat="48.36078" lon="-4.77031">
        <ele>27.2</ele>
        <time>2020-06-08T19:23:40Z</time>
      </trkpt>
      <trkpt lat="48.36078" lon="-4.77031">
        <ele>27.2</ele>
        <time>2020-06-08T19:23:41Z</time>
      </trkpt>
      <trkpt lat="48.36077" lon="-4.77031">
        <ele>27.2</ele>
        <time>2020-06-08T19:23:42Z</time>
      </trkpt>
      <trkpt lat="48.36078" lon="-4.77031">
        <ele>27.2</ele>
        <time>2020-06-08T19:23:43Z</time>
      </trkpt>
      <trkpt lat="48.36077" lon="-4.77031">
        <ele>27.2</ele>
        <time>2020-06-08T19:23:44Z</time>
      </trkpt>
      <trkpt lat="48.3608" lon="-4.77037">
        <ele>27.2</ele>
        <time>2020-06-08T19:24:03Z</time>
      </trkpt>
      <trkpt lat="48.3608" lon="-4.77037">
        <ele>27.2</ele>
        <time>2020-06-08T19:24:04Z</time>
      </trkpt>
      <trkpt lat="48.36081" lon="-4.77037">
        <ele>27.2</ele>
        <time>2020-06-08T19:24:05Z</time>
      </trkpt>
      <trkpt lat="48.36081" lon="-4.77037">
        <ele>27.2</ele>
        <time>2020-06-08T19:24:06Z</time>
      </trkpt>
      <trkpt lat="48.36081" lon="-4.77037">
        <ele>27.2</ele>
        <time>2020-06-08T19:24:07Z</time>
      </trkpt>
      <trkpt lat="48.36082" lon="-4.77037">
        <ele>27.2</ele>
        <time>2020-06-08T19:24:08Z</time>
      </trkpt>
      <trkpt lat="48.36082" lon="-4.77037">
        <ele>27.2</ele>
        <time>2020-06-08T19:24:09Z</time>
      </trkpt>
      <trkpt lat="48.36082" lon="-4.77037">
        <ele>27.2</ele>
        <time>2020-06-08T19:24:10Z</time>
      </trkpt>
      <trkpt lat="48.36082" lon="-4.77037">
        <ele>27.2</ele>
        <time>2020-06-08T19:24:11Z</time>
      </trkpt>
      <trkpt lat="48.36082" lon="-4.77037">
        <ele>27.2</ele>
        <time>2020-06-08T19:24:12Z</time>
      </trkpt>
      <trkpt lat="48.36082" lon="-4.77036">
        <ele>27.2</ele>
        <time>2020-06-08T19:24:13Z</time>
      </trkpt>
      <trkpt lat="48.36082" lon="-4.77036">
        <ele>27.2</ele>
        <time>2020-06-08T19:24:14Z</time>
      </trkpt>
      <trkpt lat="48.36082" lon="-4.77036">
        <ele>27.2</ele>
        <time>2020-06-08T19:24:15Z</time>
      </trkpt>
      <trkpt lat="48.36082" lon="-4.77036">
        <ele>27.2</ele>
        <time>2020-06-08T19:24:16Z</time>
      </trkpt>
      <trkpt lat="48.36082" lon="-4.77036">
        <ele>27.2</ele>
        <time>2020-06-08T19:24:17Z</time>
      </trkpt>
      <trkpt lat="48.36083" lon="-4.77036">
        <ele>27.2</ele>
        <time>2020-06-08T19:24:18Z</time>
      </trkpt>
      <trkpt lat="48.36083" lon="-4.77036">
        <ele>27.2</ele>
        <time>2020-06-08T19:24:19Z</time>
      </trkpt>
      <trkpt lat="48.36083" lon="-4.77036">
        <ele>27.2</ele>
        <time>2020-06-08T19:24:20Z</time>
      </trkpt>
      <trkpt lat="48.36083" lon="-4.77036">
        <ele>27.2</ele>
        <time>2020-06-08T19:24:21Z</time>
      </trkpt>
      <trkpt lat="48.36083" lon="-4.77036">
        <ele>27.2</ele>
        <time>2020-06-08T19:24:22Z</time>
      </trkpt>
      <trkpt lat="48.36083" lon="-4.77036">
        <ele>27.2</ele>
        <time>2020-06-08T19:24:23Z</time>
      </trkpt>
      <trkpt lat="48.36083" lon="-4.77036">
        <ele>27.2</ele>
        <time>2020-06-08T19:24:24Z</time>
      </trkpt>
      <trkpt lat="48.36072" lon="-4.77043">
        <ele>27.2</ele>
        <time>2020-06-08T19:25:46Z</time>
      </trkpt>
      <trkpt lat="48.36072" lon="-4.77043">
        <ele>27.2</ele>
        <time>2020-06-08T19:25:47Z</time>
      </trkpt>
      <trkpt lat="48.36072" lon="-4.77043">
        <ele>27.2</ele>
        <time>2020-06-08T19:25:48Z</time>
      </trkpt>
      <trkpt lat="48.36071" lon="-4.77044">
        <ele>27.2</ele>
        <time>2020-06-08T19:25:49Z</time>
      </trkpt>
      <trkpt lat="48.3607" lon="-4.77044">
        <ele>27.2</ele>
        <time>2020-06-08T19:25:50Z</time>
      </trkpt>
      <trkpt lat="48.3607" lon="-4.77043">
        <ele>27.2</ele>
        <time>2020-06-08T19:25:51Z</time>
      </trkpt>
      <trkpt lat="48.3607" lon="-4.77041">
        <ele>27.2</ele>
        <time>2020-06-08T19:25:52Z</time>
      </trkpt>
      <trkpt lat="48.3607" lon="-4.7704">
        <ele>27.2</ele>
        <time>2020-06-08T19:25:53Z</time>
      </trkpt>
      <trkpt lat="48.3607" lon="-4.77039">
        <ele>27.2</ele>
        <time>2020-06-08T19:25:54Z</time>
      </trkpt>
      <trkpt lat="48.3607" lon="-4.77038">
        <ele>27.2</ele>
        <time>2020-06-08T19:25:55Z</time>
      </trkpt>
      <trkpt lat="48.36071" lon="-4.77037">
        <ele>27.2</ele>
        <time>2020-06-08T19:25:56Z</time>
      </trkpt>
      <trkpt lat="48.36071" lon="-4.77036">
        <ele>27.2</ele>
        <time>2020-06-08T19:25:57Z</time>
      </trkpt>
      <trkpt lat="48.36073" lon="-4.77034">
        <ele>27.2</ele>
        <time>2020-06-08T19:25:58Z</time>
      </trkpt>
      <trkpt lat="48.36075" lon="-4.77033">
        <ele>27.2</ele>
        <time>2020-06-08T19:25:59Z</time>
      </trkpt>
      <trkpt lat="48.36076" lon="-4.77032">
        <ele>27.2</ele>
        <time>2020-06-08T19:26:00Z</time>
      </trkpt>
      <trkpt lat="48.36076" lon="-4.77032">
        <ele>27.2</ele>
        <time>2020-06-08T19:26:01Z</time>
      </trkpt>
      <trkpt lat="48.36076" lon="-4.77033">
        <ele>27.2</ele>
        <time>2020-06-08T19:26:02Z</time>
      </trkpt>
      <trkpt lat="48.36077" lon="-4.77033">
        <ele>27.2</ele>
        <time>2020-06-08T19:26:03Z</time>
      </trkpt>
      <trkpt lat="48.36077" lon="-4.77032">
        <ele>27.2</ele>
        <time>2020-06-08T19:26:04Z</time>
      </trkpt>
      <trkpt lat="48.36077" lon="-4.77032">
        <ele>27.2</ele>
        <time>2020-06-08T19:26:05Z</time>
      </trkpt>
      <trkpt lat="48.36076" lon="-4.77032">
        <ele>27.2</ele>
        <time>2020-06-08T19:26:06Z</time>
      </trkpt>
      <trkpt lat="48.36075" lon="-4.77032">
        <ele>27.2</ele>
        <time>2020-06-08T19:26:07Z</time>
      </trkpt>
      <trkpt lat="48.36075" lon="-4.77032">
        <ele>27.2</ele>
        <time>2020-06-08T19:26:08Z</time>
      </trkpt>
      <trkpt lat="48.36074" lon="-4.77031">
        <ele>27.2</ele>
        <time>2020-06-08T19:26:09Z</time>
      </trkpt>
      <trkpt lat="48.36073" lon="-4.77032">
        <ele>27.2</ele>
        <time>2020-06-08T19:26:10Z</time>
      </trkpt>
      <trkpt lat="48.36072" lon="-4.77032">
        <ele>27.2</ele>
        <time>2020-06-08T19:26:11Z</time>
      </trkpt>
      <trkpt lat="48.36072" lon="-4.77032">
        <ele>27.2</ele>
        <time>2020-06-08T19:26:12Z</time>
      </trkpt>
      <trkpt lat="48.36072" lon="-4.77032">
        <ele>27.2</ele>
        <time>2020-06-08T19:26:13Z</time>
      </trkpt>
      <trkpt lat="48.36072" lon="-4.77033">
        <ele>27.2</ele>
        <time>2020-06-08T19:26:14Z</time>
      </trkpt>
      <trkpt lat="48.36072" lon="-4.77033">
        <ele>27.2</ele>
        <time>2020-06-08T19:26:15Z</time>
      </trkpt>
      <trkpt lat="48.36073" lon="-4.77033">
        <ele>27.2</ele>
        <time>2020-06-08T19:26:16Z</time>
      </trkpt>
      <trkpt lat="48.36074" lon="-4.77033">
        <ele>27.2</ele>
        <time>2020-06-08T19:26:17Z</time>
      </trkpt>
      <trkpt lat="48.36074" lon="-4.77033">
        <ele>27.2</ele>
        <time>2020-06-08T19:26:18Z</time>
      </trkpt>
      <trkpt lat="48.36074" lon="-4.77034">
        <ele>27.2</ele>
        <time>2020-06-08T19:26:19Z</time>
      </trkpt>
      <trkpt lat="48.36074" lon="-4.77033">
        <ele>27.2</ele>
        <time>2020-06-08T19:26:20Z</time>
      </trkpt>
      <trkpt lat="48.36074" lon="-4.77034">
        <ele>27.2</ele>
        <time>2020-06-08T19:26:21Z</time>
      </trkpt>
      <trkpt lat="48.36074" lon="-4.77034">
        <ele>27.2</ele>
        <time>2020-06-08T19:26:22Z</time>
      </trkpt>
      <trkpt lat="48.36074" lon="-4.77034">
        <ele>27.2</ele>
        <time>2020-06-08T19:26:23Z</time>
      </trkpt>
      <trkpt lat="48.36075" lon="-4.77034">
        <ele>27.2</ele>
        <time>2020-06-08T19:26:24Z</time>
      </trkpt>
      <trkpt lat="48.36079" lon="-4.77037">
        <ele>27.2</ele>
        <time>2020-06-08T19:27:33Z</time>
      </trkpt>
      <trkpt lat="48.3608" lon="-4.77037">
        <ele>27.2</ele>
        <time>2020-06-08T19:27:34Z</time>
      </trkpt>
      <trkpt lat="48.36083" lon="-4.77034">
        <ele>27</ele>
        <time>2020-06-08T19:27:35Z</time>
      </trkpt>
      <trkpt lat="48.36083" lon="-4.77033">
        <ele>27</ele>
        <time>2020-06-08T19:27:36Z</time>
      </trkpt>
      <trkpt lat="48.36086" lon="-4.77029">
        <ele>27.1</ele>
        <time>2020-06-08T19:27:37Z</time>
      </trkpt>
      <trkpt lat="48.36087" lon="-4.77028">
        <ele>27</ele>
        <time>2020-06-08T19:27:38Z</time>
      </trkpt>
      <trkpt lat="48.3609" lon="-4.77026">
        <ele>27</ele>
        <time>2020-06-08T19:27:39Z</time>
      </trkpt>
      <trkpt lat="48.36093" lon="-4.77023">
        <ele>26.9</ele>
        <time>2020-06-08T19:27:40Z</time>
      </trkpt>
      <trkpt lat="48.36096" lon="-4.7702">
        <ele>26.7</ele>
        <time>2020-06-08T19:27:41Z</time>
      </trkpt>
      <trkpt lat="48.36098" lon="-4.77016">
        <ele>26.5</ele>
        <time>2020-06-08T19:27:42Z</time>
      </trkpt>
      <trkpt lat="48.36101" lon="-4.77007">
        <ele>26.1</ele>
        <time>2020-06-08T19:27:43Z</time>
      </trkpt>
      <trkpt lat="48.36103" lon="-4.77">
        <ele>25.8</ele>
        <time>2020-06-08T19:27:44Z</time>
      </trkpt>
      <trkpt lat="48.36104" lon="-4.76993">
        <ele>25.5</ele>
        <time>2020-06-08T19:27:45Z</time>
      </trkpt>
      <trkpt lat="48.36106" lon="-4.76985">
        <ele>25.1</ele>
        <time>2020-06-08T19:27:46Z</time>
      </trkpt>
      <trkpt lat="48.36108" lon="-4.76976">
        <ele>24.7</ele>
        <time>2020-06-08T19:27:47Z</time>
      </trkpt>
      <trkpt lat="48.3611" lon="-4.76967">
        <ele>24.2</ele>
        <time>2020-06-08T19:27:48Z</time>
      </trkpt>
      <trkpt lat="48.36112" lon="-4.76958">
        <ele>23.7</ele>
        <time>2020-06-08T19:27:49Z</time>
      </trkpt>
      <trkpt lat="48.36112" lon="-4.76949">
        <ele>23.3</ele>
        <time>2020-06-08T19:27:50Z</time>
      </trkpt>
      <trkpt lat="48.36116" lon="-4.76937">
        <ele>22.6</ele>
        <time>2020-06-08T19:27:51Z</time>
      </trkpt>
      <trkpt lat="48.36118" lon="-4.76927">
        <ele>22</ele>
        <time>2020-06-08T19:27:52Z</time>
      </trkpt>
      <trkpt lat="48.36121" lon="-4.76918">
        <ele>21.4</ele>
        <time>2020-06-08T19:27:53Z</time>
      </trkpt>
      <trkpt lat="48.36122" lon="-4.76905">
        <ele>20.7</ele>
        <time>2020-06-08T19:27:54Z</time>
      </trkpt>
      <trkpt lat="48.36124" lon="-4.76894">
        <ele>20.1</ele>
        <time>2020-06-08T19:27:55Z</time>
      </trkpt>
      <trkpt lat="48.36125" lon="-4.76883">
        <ele>19.4</ele>
        <time>2020-06-08T19:27:56Z</time>
      </trkpt>
      <trkpt lat="48.36127" lon="-4.76871">
        <ele>18.6</ele>
        <time>2020-06-08T19:27:57Z</time>
      </trkpt>
      <trkpt lat="48.36129" lon="-4.76858">
        <ele>17.8</ele>
        <time>2020-06-08T19:27:58Z</time>
      </trkpt>
      <trkpt lat="48.36131" lon="-4.76846">
        <ele>17</ele>
        <time>2020-06-08T19:27:59Z</time>
      </trkpt>
      <trkpt lat="48.36131" lon="-4.76834">
        <ele>16.3</ele>
        <time>2020-06-08T19:28:00Z</time>
      </trkpt>
      <trkpt lat="48.3613" lon="-4.76822">
        <ele>15.6</ele>
        <time>2020-06-08T19:28:01Z</time>
      </trkpt>
      <trkpt lat="48.36131" lon="-4.76812">
        <ele>14.9</ele>
        <time>2020-06-08T19:28:02Z</time>
      </trkpt>
      <trkpt lat="48.36131" lon="-4.76801">
        <ele>14.2</ele>
        <time>2020-06-08T19:28:03Z</time>
      </trkpt>
      <trkpt lat="48.36131" lon="-4.76791">
        <ele>13.6</ele>
        <time>2020-06-08T19:28:04Z</time>
      </trkpt>
      <trkpt lat="48.36132" lon="-4.76783">
        <ele>13</ele>
        <time>2020-06-08T19:28:05Z</time>
      </trkpt>
      <trkpt lat="48.36132" lon="-4.76775">
        <ele>12.5</ele>
        <time>2020-06-08T19:28:06Z</time>
      </trkpt>
      <trkpt lat="48.36132" lon="-4.76769">
        <ele>12.1</ele>
        <time>2020-06-08T19:28:07Z</time>
      </trkpt>
      <trkpt lat="48.36132" lon="-4.76762">
        <ele>11.7</ele>
        <time>2020-06-08T19:28:08Z</time>
      </trkpt>
      <trkpt lat="48.36131" lon="-4.76756">
        <ele>11.2</ele>
        <time>2020-06-08T19:28:09Z</time>
      </trkpt>
      <trkpt lat="48.36131" lon="-4.76747">
        <ele>10.6</ele>
        <time>2020-06-08T19:28:10Z</time>
      </trkpt>
      <trkpt lat="48.36131" lon="-4.76738">
        <ele>9.9</ele>
        <time>2020-06-08T19:28:11Z</time>
      </trkpt>
      <trkpt lat="48.36133" lon="-4.76731">
        <ele>9.4</ele>
        <time>2020-06-08T19:28:12Z</time>
      </trkpt>
      <trkpt lat="48.36133" lon="-4.76726">
        <ele>9.1</ele>
        <time>2020-06-08T19:28:13Z</time>
      </trkpt>
      <trkpt lat="48.36134" lon="-4.76722">
        <ele>8.8</ele>
        <time>2020-06-08T19:28:14Z</time>
      </trkpt>
      <trkpt lat="48.36136" lon="-4.76718">
        <ele>8.4</ele>
        <time>2020-06-08T19:28:15Z</time>
      </trkpt>
      <trkpt lat="48.36138" lon="-4.76717">
        <ele>8.3</ele>
        <time>2020-06-08T19:28:16Z</time>
      </trkpt>
      <trkpt lat="48.36141" lon="-4.76715">
        <ele>6.8</ele>
        <time>2020-06-08T19:28:17Z</time>
      </trkpt>
      <trkpt lat="48.36145" lon="-4.76713">
        <ele>6.2</ele>
        <time>2020-06-08T19:28:18Z</time>
      </trkpt>
      <trkpt lat="48.36149" lon="-4.76712">
        <ele>5.6</ele>
        <time>2020-06-08T19:28:19Z</time>
      </trkpt>
      <trkpt lat="48.36154" lon="-4.76711">
        <ele>5</ele>
        <time>2020-06-08T19:28:20Z</time>
      </trkpt>
      <trkpt lat="48.36158" lon="-4.7671">
        <ele>4.5</ele>
        <time>2020-06-08T19:28:21Z</time>
      </trkpt>
      <trkpt lat="48.36162" lon="-4.76709">
        <ele>4.1</ele>
        <time>2020-06-08T19:28:22Z</time>
      </trkpt>
      <trkpt lat="48.36165" lon="-4.76711">
        <ele>3.8</ele>
        <time>2020-06-08T19:28:23Z</time>
      </trkpt>
      <trkpt lat="48.36168" lon="-4.76709">
        <ele>3.5</ele>
        <time>2020-06-08T19:28:24Z</time>
      </trkpt>
      <trkpt lat="48.3617" lon="-4.76709">
        <ele>3.3</ele>
        <time>2020-06-08T19:28:25Z</time>
      </trkpt>
      <trkpt lat="48.36171" lon="-4.7671">
        <ele>3.3</ele>
        <time>2020-06-08T19:28:26Z</time>
      </trkpt>
      <trkpt lat="48.36172" lon="-4.76711">
        <ele>3.3</ele>
        <time>2020-06-08T19:28:27Z</time>
      </trkpt>
      <trkpt lat="48.36173" lon="-4.76712">
        <ele>3.3</ele>
        <time>2020-06-08T19:28:28Z</time>
      </trkpt>
      <trkpt lat="48.36173" lon="-4.76713">
        <ele>3.3</ele>
        <time>2020-06-08T19:28:29Z</time>
      </trkpt>
      <trkpt lat="48.36173" lon="-4.76713">
        <ele>3.3</ele>
        <time>2020-06-08T19:28:30Z</time>
      </trkpt>
      <trkpt lat="48.36174" lon="-4.76712">
        <ele>3.3</ele>
        <time>2020-06-08T19:28:31Z</time>
      </trkpt>
      <trkpt lat="48.36174" lon="-4.76713">
        <ele>3.3</ele>
        <time>2020-06-08T19:28:32Z</time>
      </trkpt>
      <trkpt lat="48.36174" lon="-4.76713">
        <ele>3.3</ele>
        <time>2020-06-08T19:28:33Z</time>
      </trkpt>
      <trkpt lat="48.36174" lon="-4.76713">
        <ele>3.3</ele>
        <time>2020-06-08T19:28:34Z</time>
      </trkpt>
      <trkpt lat="48.36174" lon="-4.76714">
        <ele>3.3</ele>
        <time>2020-06-08T19:28:35Z</time>
      </trkpt>
      <trkpt lat="48.36174" lon="-4.76714">
        <ele>3.3</ele>
        <time>2020-06-08T19:28:36Z</time>
      </trkpt>
      <trkpt lat="48.36173" lon="-4.76715">
        <ele>3.3</ele>
        <time>2020-06-08T19:28:37Z</time>
      </trkpt>
      <trkpt lat="48.36173" lon="-4.76715">
        <ele>3.3</ele>
        <time>2020-06-08T19:28:38Z</time>
      </trkpt>
      <trkpt lat="48.36173" lon="-4.76716">
        <ele>3.3</ele>
        <time>2020-06-08T19:28:39Z</time>
      </trkpt>
      <trkpt lat="48.36173" lon="-4.76716">
        <ele>3.3</ele>
        <time>2020-06-08T19:28:40Z</time>
      </trkpt>
      <trkpt lat="48.36175" lon="-4.76708">
        <ele>3.3</ele>
        <time>2020-06-08T19:29:04Z</time>
      </trkpt>
      <trkpt lat="48.36176" lon="-4.76707">
        <ele>3.3</ele>
        <time>2020-06-08T19:29:05Z</time>
      </trkpt>
      <trkpt lat="48.36177" lon="-4.76705">
        <ele>3.3</ele>
        <time>2020-06-08T19:29:06Z</time>
      </trkpt>
      <trkpt lat="48.3618" lon="-4.76705">
        <ele>3.3</ele>
        <time>2020-06-08T19:29:07Z</time>
      </trkpt>
      <trkpt lat="48.36181" lon="-4.76705">
        <ele>3.3</ele>
        <time>2020-06-08T19:29:08Z</time>
      </trkpt>
      <trkpt lat="48.36184" lon="-4.76702">
        <ele>3.2</ele>
        <time>2020-06-08T19:29:09Z</time>
      </trkpt>
      <trkpt lat="48.36186" lon="-4.76702">
        <ele>3.2</ele>
        <time>2020-06-08T19:29:10Z</time>
      </trkpt>
      <trkpt lat="48.36189" lon="-4.76699">
        <ele>3.2</ele>
        <time>2020-06-08T19:29:11Z</time>
      </trkpt>
      <trkpt lat="48.36191" lon="-4.76699">
        <ele>3.2</ele>
        <time>2020-06-08T19:29:12Z</time>
      </trkpt>
      <trkpt lat="48.36193" lon="-4.76699">
        <ele>3.2</ele>
        <time>2020-06-08T19:29:13Z</time>
      </trkpt>
      <trkpt lat="48.36196" lon="-4.76698">
        <ele>3.2</ele>
        <time>2020-06-08T19:29:14Z</time>
      </trkpt>
      <trkpt lat="48.362" lon="-4.76698">
        <ele>3.2</ele>
        <time>2020-06-08T19:29:15Z</time>
      </trkpt>
      <trkpt lat="48.36201" lon="-4.76697">
        <ele>3.2</ele>
        <time>2020-06-08T19:29:16Z</time>
      </trkpt>
      <trkpt lat="48.36205" lon="-4.76695">
        <ele>3.2</ele>
        <time>2020-06-08T19:29:17Z</time>
      </trkpt>
      <trkpt lat="48.36206" lon="-4.76694">
        <ele>3.2</ele>
        <time>2020-06-08T19:29:18Z</time>
      </trkpt>
      <trkpt lat="48.36209" lon="-4.76693">
        <ele>3.2</ele>
        <time>2020-06-08T19:29:19Z</time>
      </trkpt>
      <trkpt lat="48.36211" lon="-4.76691">
        <ele>3.2</ele>
        <time>2020-06-08T19:29:20Z</time>
      </trkpt>
      <trkpt lat="48.36214" lon="-4.7669">
        <ele>3.2</ele>
        <time>2020-06-08T19:29:21Z</time>
      </trkpt>
      <trkpt lat="48.36217" lon="-4.76688">
        <ele>3.2</ele>
        <time>2020-06-08T19:29:22Z</time>
      </trkpt>
      <trkpt lat="48.3622" lon="-4.76686">
        <ele>3.2</ele>
        <time>2020-06-08T19:29:23Z</time>
      </trkpt>
      <trkpt lat="48.36223" lon="-4.76684">
        <ele>3.3</ele>
        <time>2020-06-08T19:29:24Z</time>
      </trkpt>
      <trkpt lat="48.36225" lon="-4.76682">
        <ele>3.3</ele>
        <time>2020-06-08T19:29:25Z</time>
      </trkpt>
      <trkpt lat="48.36228" lon="-4.7668">
        <ele>3.3</ele>
        <time>2020-06-08T19:29:26Z</time>
      </trkpt>
      <trkpt lat="48.36231" lon="-4.76679">
        <ele>3.3</ele>
        <time>2020-06-08T19:29:27Z</time>
      </trkpt>
      <trkpt lat="48.36234" lon="-4.76677">
        <ele>3.3</ele>
        <time>2020-06-08T19:29:28Z</time>
      </trkpt>
      <trkpt lat="48.36237" lon="-4.76676">
        <ele>3.3</ele>
        <time>2020-06-08T19:29:29Z</time>
      </trkpt>
      <trkpt lat="48.3624" lon="-4.76674">
        <ele>3.3</ele>
        <time>2020-06-08T19:29:30Z</time>
      </trkpt>
      <trkpt lat="48.36241" lon="-4.76673">
        <ele>3.3</ele>
        <time>2020-06-08T19:29:31Z</time>
      </trkpt>
      <trkpt lat="48.36245" lon="-4.7667">
        <ele>3.4</ele>
        <time>2020-06-08T19:29:32Z</time>
      </trkpt>
      <trkpt lat="48.36246" lon="-4.7667">
        <ele>3.4</ele>
        <time>2020-06-08T19:29:33Z</time>
      </trkpt>
      <trkpt lat="48.36249" lon="-4.76668">
        <ele>3.4</ele>
        <time>2020-06-08T19:29:34Z</time>
      </trkpt>
      <trkpt lat="48.3625" lon="-4.76668">
        <ele>3.4</ele>
        <time>2020-06-08T19:29:35Z</time>
      </trkpt>
      <trkpt lat="48.36252" lon="-4.76667">
        <ele>3.4</ele>
        <time>2020-06-08T19:29:36Z</time>
      </trkpt>
      <trkpt lat="48.36254" lon="-4.76667">
        <ele>3.4</ele>
        <time>2020-06-08T19:29:37Z</time>
      </trkpt>
      <trkpt lat="48.36255" lon="-4.76666">
        <ele>3.4</ele>
        <time>2020-06-08T19:29:38Z</time>
      </trkpt>
      <trkpt lat="48.36256" lon="-4.76666">
        <ele>3.4</ele>
        <time>2020-06-08T19:29:39Z</time>
      </trkpt>
      <trkpt lat="48.36257" lon="-4.76665">
        <ele>3.4</ele>
        <time>2020-06-08T19:29:40Z</time>
      </trkpt>
      <trkpt lat="48.36257" lon="-4.76665">
        <ele>3.4</ele>
        <time>2020-06-08T19:29:41Z</time>
      </trkpt>
      <trkpt lat="48.36257" lon="-4.76665">
        <ele>3.4</ele>
        <time>2020-06-08T19:29:42Z</time>
      </trkpt>
      <trkpt lat="48.36257" lon="-4.76664">
        <ele>3.4</ele>
        <time>2020-06-08T19:29:43Z</time>
      </trkpt>
      <trkpt lat="48.36257" lon="-4.76662">
        <ele>3.4</ele>
        <time>2020-06-08T19:29:44Z</time>
      </trkpt>
      <trkpt lat="48.36257" lon="-4.76664">
        <ele>3.4</ele>
        <time>2020-06-08T19:29:45Z</time>
      </trkpt>
      <trkpt lat="48.36257" lon="-4.76663">
        <ele>3.4</ele>
        <time>2020-06-08T19:29:46Z</time>
      </trkpt>
      <trkpt lat="48.36257" lon="-4.76663">
        <ele>3.4</ele>
        <time>2020-06-08T19:29:47Z</time>
      </trkpt>
      <trkpt lat="48.36257" lon="-4.76662">
        <ele>3.4</ele>
        <time>2020-06-08T19:29:48Z</time>
      </trkpt>
      <trkpt lat="48.36257" lon="-4.76661">
        <ele>3.4</ele>
        <time>2020-06-08T19:29:49Z</time>
      </trkpt>
      <trkpt lat="48.36257" lon="-4.76661">
        <ele>3.4</ele>
        <time>2020-06-08T19:29:50Z</time>
      </trkpt>
      <trkpt lat="48.36263" lon="-4.76662">
        <ele>3.5</ele>
        <time>2020-06-08T19:32:15Z</time>
      </trkpt>
      <trkpt lat="48.36265" lon="-4.76662">
        <ele>3.5</ele>
        <time>2020-06-08T19:32:16Z</time>
      </trkpt>
      <trkpt lat="48.36266" lon="-4.76661">
        <ele>3.5</ele>
        <time>2020-06-08T19:32:17Z</time>
      </trkpt>
      <trkpt lat="48.36267" lon="-4.76661">
        <ele>3.5</ele>
        <time>2020-06-08T19:32:18Z</time>
      </trkpt>
      <trkpt lat="48.36268" lon="-4.76661">
        <ele>3.5</ele>
        <time>2020-06-08T19:32:19Z</time>
      </trkpt>
      <trkpt lat="48.36269" lon="-4.7666">
        <ele>3.5</ele>
        <time>2020-06-08T19:32:20Z</time>
      </trkpt>
      <trkpt lat="48.36271" lon="-4.76659">
        <ele>3.5</ele>
        <time>2020-06-08T19:32:21Z</time>
      </trkpt>
      <trkpt lat="48.36272" lon="-4.76658">
        <ele>3.5</ele>
        <time>2020-06-08T19:32:22Z</time>
      </trkpt>
      <trkpt lat="48.36273" lon="-4.76657">
        <ele>3.5</ele>
        <time>2020-06-08T19:32:23Z</time>
      </trkpt>
      <trkpt lat="48.36273" lon="-4.76657">
        <ele>3.5</ele>
        <time>2020-06-08T19:32:24Z</time>
      </trkpt>
      <trkpt lat="48.36274" lon="-4.76656">
        <ele>3.5</ele>
        <time>2020-06-08T19:32:25Z</time>
      </trkpt>
      <trkpt lat="48.36275" lon="-4.76655">
        <ele>3.5</ele>
        <time>2020-06-08T19:32:26Z</time>
      </trkpt>
      <trkpt lat="48.36275" lon="-4.76655">
        <ele>3.5</ele>
        <time>2020-06-08T19:32:27Z</time>
      </trkpt>
      <trkpt lat="48.36276" lon="-4.76655">
        <ele>3.5</ele>
        <time>2020-06-08T19:32:28Z</time>
      </trkpt>
      <trkpt lat="48.36276" lon="-4.76655">
        <ele>3.5</ele>
        <time>2020-06-08T19:32:29Z</time>
      </trkpt>
      <trkpt lat="48.36276" lon="-4.76655">
        <ele>3.5</ele>
        <time>2020-06-08T19:32:30Z</time>
      </trkpt>
      <trkpt lat="48.36276" lon="-4.76655">
        <ele>3.5</ele>
        <time>2020-06-08T19:32:31Z</time>
      </trkpt>
      <trkpt lat="48.36276" lon="-4.76654">
        <ele>3.6</ele>
        <time>2020-06-08T19:32:32Z</time>
      </trkpt>
      <trkpt lat="48.36276" lon="-4.76653">
        <ele>3.6</ele>
        <time>2020-06-08T19:32:33Z</time>
      </trkpt>
      <trkpt lat="48.36277" lon="-4.76652">
        <ele>3.6</ele>
        <time>2020-06-08T19:32:34Z</time>
      </trkpt>
      <trkpt lat="48.36277" lon="-4.76653">
        <ele>3.6</ele>
        <time>2020-06-08T19:32:35Z</time>
      </trkpt>
      <trkpt lat="48.36277" lon="-4.76651">
        <ele>3.6</ele>
        <time>2020-06-08T19:32:36Z</time>
      </trkpt>
      <trkpt lat="48.36277" lon="-4.76651">
        <ele>3.6</ele>
        <time>2020-06-08T19:32:37Z</time>
      </trkpt>
      <trkpt lat="48.36277" lon="-4.76651">
        <ele>3.6</ele>
        <time>2020-06-08T19:32:38Z</time>
      </trkpt>
      <trkpt lat="48.36277" lon="-4.7665">
        <ele>3.6</ele>
        <time>2020-06-08T19:32:39Z</time>
      </trkpt>
      <trkpt lat="48.36281" lon="-4.76652">
        <ele>3.6</ele>
        <time>2020-06-08T19:32:44Z</time>
      </trkpt>
      <trkpt lat="48.36281" lon="-4.76653">
        <ele>3.6</ele>
        <time>2020-06-08T19:32:45Z</time>
      </trkpt>
      <trkpt lat="48.36282" lon="-4.76652">
        <ele>3.6</ele>
        <time>2020-06-08T19:32:46Z</time>
      </trkpt>
      <trkpt lat="48.36282" lon="-4.76652">
        <ele>3.6</ele>
        <time>2020-06-08T19:32:47Z</time>
      </trkpt>
      <trkpt lat="48.36283" lon="-4.76651">
        <ele>3.6</ele>
        <time>2020-06-08T19:32:48Z</time>
      </trkpt>
      <trkpt lat="48.36285" lon="-4.76651">
        <ele>3.6</ele>
        <time>2020-06-08T19:32:49Z</time>
      </trkpt>
      <trkpt lat="48.36286" lon="-4.7665">
        <ele>3.6</ele>
        <time>2020-06-08T19:32:50Z</time>
      </trkpt>
      <trkpt lat="48.36289" lon="-4.76649">
        <ele>3.6</ele>
        <time>2020-06-08T19:32:51Z</time>
      </trkpt>
      <trkpt lat="48.3629" lon="-4.76649">
        <ele>3.6</ele>
        <time>2020-06-08T19:32:52Z</time>
      </trkpt>
      <trkpt lat="48.36293" lon="-4.76647">
        <ele>3.6</ele>
        <time>2020-06-08T19:32:53Z</time>
      </trkpt>
      <trkpt lat="48.36294" lon="-4.76646">
        <ele>3.6</ele>
        <time>2020-06-08T19:32:54Z</time>
      </trkpt>
      <trkpt lat="48.36298" lon="-4.76643">
        <ele>3.5</ele>
        <time>2020-06-08T19:32:55Z</time>
      </trkpt>
      <trkpt lat="48.36299" lon="-4.76642">
        <ele>3.5</ele>
        <time>2020-06-08T19:32:56Z</time>
      </trkpt>
      <trkpt lat="48.36302" lon="-4.76639">
        <ele>3.5</ele>
        <time>2020-06-08T19:32:57Z</time>
      </trkpt>
      <trkpt lat="48.36303" lon="-4.76638">
        <ele>3.5</ele>
        <time>2020-06-08T19:32:58Z</time>
      </trkpt>
      <trkpt lat="48.36306" lon="-4.76638">
        <ele>3.5</ele>
        <time>2020-06-08T19:32:59Z</time>
      </trkpt>
      <trkpt lat="48.36307" lon="-4.76638">
        <ele>3.5</ele>
        <time>2020-06-08T19:33:00Z</time>
      </trkpt>
      <trkpt lat="48.3631" lon="-4.76635">
        <ele>3.5</ele>
        <time>2020-06-08T19:33:01Z</time>
      </trkpt>
      <trkpt lat="48.3631" lon="-4.76634">
        <ele>3.5</ele>
        <time>2020-06-08T19:33:02Z</time>
      </trkpt>
      <trkpt lat="48.36314" lon="-4.76632">
        <ele>3.6</ele>
        <time>2020-06-08T19:33:03Z</time>
      </trkpt>
      <trkpt lat="48.36315" lon="-4.76631">
        <ele>3.6</ele>
        <time>2020-06-08T19:33:04Z</time>
      </trkpt>
      <trkpt lat="48.36318" lon="-4.76629">
        <ele>3.6</ele>
        <time>2020-06-08T19:33:05Z</time>
      </trkpt>
      <trkpt lat="48.3632" lon="-4.76628">
        <ele>3.6</ele>
        <time>2020-06-08T19:33:06Z</time>
      </trkpt>
      <trkpt lat="48.36322" lon="-4.76627">
        <ele>3.6</ele>
        <time>2020-06-08T19:33:07Z</time>
      </trkpt>
      <trkpt lat="48.36325" lon="-4.76625">
        <ele>3.6</ele>
        <time>2020-06-08T19:33:08Z</time>
      </trkpt>
      <trkpt lat="48.36328" lon="-4.76623">
        <ele>3.6</ele>
        <time>2020-06-08T19:33:09Z</time>
      </trkpt>
      <trkpt lat="48.3633" lon="-4.76621">
        <ele>3.7</ele>
        <time>2020-06-08T19:33:10Z</time>
      </trkpt>
      <trkpt lat="48.36333" lon="-4.76618">
        <ele>3.7</ele>
        <time>2020-06-08T19:33:11Z</time>
      </trkpt>
      <trkpt lat="48.36336" lon="-4.76617">
        <ele>3.7</ele>
        <time>2020-06-08T19:33:12Z</time>
      </trkpt>
      <trkpt lat="48.3634" lon="-4.76615">
        <ele>3.7</ele>
        <time>2020-06-08T19:33:13Z</time>
      </trkpt>
      <trkpt lat="48.36341" lon="-4.76614">
        <ele>3.7</ele>
        <time>2020-06-08T19:33:14Z</time>
      </trkpt>
      <trkpt lat="48.36344" lon="-4.76614">
        <ele>3.7</ele>
        <time>2020-06-08T19:33:15Z</time>
      </trkpt>
      <trkpt lat="48.36348" lon="-4.76612">
        <ele>3.7</ele>
        <time>2020-06-08T19:33:16Z</time>
      </trkpt>
      <trkpt lat="48.36349" lon="-4.76612">
        <ele>3.7</ele>
        <time>2020-06-08T19:33:17Z</time>
      </trkpt>
      <trkpt lat="48.36352" lon="-4.76609">
        <ele>3.7</ele>
        <time>2020-06-08T19:33:18Z</time>
      </trkpt>
      <trkpt lat="48.36353" lon="-4.76608">
        <ele>3.7</ele>
        <time>2020-06-08T19:33:19Z</time>
      </trkpt>
      <trkpt lat="48.36356" lon="-4.76606">
        <ele>3.7</ele>
        <time>2020-06-08T19:33:20Z</time>
      </trkpt>
      <trkpt lat="48.36357" lon="-4.76606">
        <ele>3.7</ele>
        <time>2020-06-08T19:33:21Z</time>
      </trkpt>
      <trkpt lat="48.36361" lon="-4.76603">
        <ele>3.8</ele>
        <time>2020-06-08T19:33:22Z</time>
      </trkpt>
      <trkpt lat="48.36362" lon="-4.76602">
        <ele>3.8</ele>
        <time>2020-06-08T19:33:23Z</time>
      </trkpt>
      <trkpt lat="48.36364" lon="-4.76602">
        <ele>3.8</ele>
        <time>2020-06-08T19:33:24Z</time>
      </trkpt>
      <trkpt lat="48.36365" lon="-4.76599">
        <ele>3.8</ele>
        <time>2020-06-08T19:33:25Z</time>
      </trkpt>
      <trkpt lat="48.36365" lon="-4.76595">
        <ele>3.8</ele>
        <time>2020-06-08T19:33:26Z</time>
      </trkpt>
      <trkpt lat="48.36365" lon="-4.76593">
        <ele>3.9</ele>
        <time>2020-06-08T19:33:27Z</time>
      </trkpt>
      <trkpt lat="48.36365" lon="-4.76588">
        <ele>4</ele>
        <time>2020-06-08T19:33:28Z</time>
      </trkpt>
      <trkpt lat="48.36365" lon="-4.76586">
        <ele>4</ele>
        <time>2020-06-08T19:33:29Z</time>
      </trkpt>
      <trkpt lat="48.36366" lon="-4.76582">
        <ele>4.1</ele>
        <time>2020-06-08T19:33:30Z</time>
      </trkpt>
      <trkpt lat="48.36367" lon="-4.76581">
        <ele>4.2</ele>
        <time>2020-06-08T19:33:31Z</time>
      </trkpt>
      <trkpt lat="48.36368" lon="-4.76576">
        <ele>4.3</ele>
        <time>2020-06-08T19:33:32Z</time>
      </trkpt>
      <trkpt lat="48.36368" lon="-4.76574">
        <ele>4.3</ele>
        <time>2020-06-08T19:33:33Z</time>
      </trkpt>
      <trkpt lat="48.36368" lon="-4.76568">
        <ele>4.4</ele>
        <time>2020-06-08T19:33:34Z</time>
      </trkpt>
      <trkpt lat="48.36368" lon="-4.76566">
        <ele>4.5</ele>
        <time>2020-06-08T19:33:35Z</time>
      </trkpt>
      <trkpt lat="48.36368" lon="-4.76561">
        <ele>4.7</ele>
        <time>2020-06-08T19:33:36Z</time>
      </trkpt>
      <trkpt lat="48.36368" lon="-4.76559">
        <ele>4.7</ele>
        <time>2020-06-08T19:33:37Z</time>
      </trkpt>
      <trkpt lat="48.36369" lon="-4.76554">
        <ele>4.9</ele>
        <time>2020-06-08T19:33:38Z</time>
      </trkpt>
      <trkpt lat="48.36369" lon="-4.76552">
        <ele>4.9</ele>
        <time>2020-06-08T19:33:39Z</time>
      </trkpt>
      <trkpt lat="48.3637" lon="-4.76548">
        <ele>5.1</ele>
        <time>2020-06-08T19:33:40Z</time>
      </trkpt>
      <trkpt lat="48.36371" lon="-4.76547">
        <ele>5.2</ele>
        <time>2020-06-08T19:33:41Z</time>
      </trkpt>
      <trkpt lat="48.36372" lon="-4.76545">
        <ele>5.3</ele>
        <time>2020-06-08T19:33:42Z</time>
      </trkpt>
      <trkpt lat="48.36373" lon="-4.76543">
        <ele>5.4</ele>
        <time>2020-06-08T19:33:43Z</time>
      </trkpt>
      <trkpt lat="48.36375" lon="-4.76543">
        <ele>5.5</ele>
        <time>2020-06-08T19:33:44Z</time>
      </trkpt>
      <trkpt lat="48.36377" lon="-4.76541">
        <ele>5.7</ele>
        <time>2020-06-08T19:33:45Z</time>
      </trkpt>
      <trkpt lat="48.36379" lon="-4.76539">
        <ele>5.9</ele>
        <time>2020-06-08T19:33:46Z</time>
      </trkpt>
      <trkpt lat="48.3638" lon="-4.76538">
        <ele>6</ele>
        <time>2020-06-08T19:33:47Z</time>
      </trkpt>
      <trkpt lat="48.36383" lon="-4.76536">
        <ele>6.3</ele>
        <time>2020-06-08T19:33:48Z</time>
      </trkpt>
      <trkpt lat="48.36384" lon="-4.76535">
        <ele>6.4</ele>
        <time>2020-06-08T19:33:49Z</time>
      </trkpt>
      <trkpt lat="48.36388" lon="-4.76536">
        <ele>6.7</ele>
        <time>2020-06-08T19:33:50Z</time>
      </trkpt>
      <trkpt lat="48.36388" lon="-4.76536">
        <ele>6.8</ele>
        <time>2020-06-08T19:33:51Z</time>
      </trkpt>
      <trkpt lat="48.3639" lon="-4.76536">
        <ele>6.9</ele>
        <time>2020-06-08T19:33:52Z</time>
      </trkpt>
      <trkpt lat="48.36391" lon="-4.76537">
        <ele>7</ele>
        <time>2020-06-08T19:33:53Z</time>
      </trkpt>
      <trkpt lat="48.36392" lon="-4.76537">
        <ele>7.1</ele>
        <time>2020-06-08T19:33:54Z</time>
      </trkpt>
      <trkpt lat="48.36392" lon="-4.76539">
        <ele>7.2</ele>
        <time>2020-06-08T19:33:55Z</time>
      </trkpt>
      <trkpt lat="48.36393" lon="-4.76537">
        <ele>7.4</ele>
        <time>2020-06-08T19:33:56Z</time>
      </trkpt>
      <trkpt lat="48.36394" lon="-4.76537">
        <ele>7.5</ele>
        <time>2020-06-08T19:33:57Z</time>
      </trkpt>
      <trkpt lat="48.36395" lon="-4.76537">
        <ele>7.6</ele>
        <time>2020-06-08T19:33:58Z</time>
      </trkpt>
      <trkpt lat="48.36395" lon="-4.76537">
        <ele>7.7</ele>
        <time>2020-06-08T19:33:59Z</time>
      </trkpt>
      <trkpt lat="48.36396" lon="-4.76537">
        <ele>7.7</ele>
        <time>2020-06-08T19:34:00Z</time>
      </trkpt>
      <trkpt lat="48.36396" lon="-4.76537">
        <ele>7.7</ele>
        <time>2020-06-08T19:34:01Z</time>
      </trkpt>
      <trkpt lat="48.36396" lon="-4.76537">
        <ele>7.8</ele>
        <time>2020-06-08T19:34:02Z</time>
      </trkpt>
      <trkpt lat="48.36396" lon="-4.76537">
        <ele>7.8</ele>
        <time>2020-06-08T19:34:03Z</time>
      </trkpt>
      <trkpt lat="48.36397" lon="-4.76538">
        <ele>7.8</ele>
        <time>2020-06-08T19:34:04Z</time>
      </trkpt>
      <trkpt lat="48.36397" lon="-4.76537">
        <ele>7.9</ele>
        <time>2020-06-08T19:34:05Z</time>
      </trkpt>
      <trkpt lat="48.36398" lon="-4.76539">
        <ele>8.1</ele>
        <time>2020-06-08T19:34:06Z</time>
      </trkpt>
      <trkpt lat="48.364" lon="-4.76539">
        <ele>8.3</ele>
        <time>2020-06-08T19:34:07Z</time>
      </trkpt>
      <trkpt lat="48.36401" lon="-4.76539">
        <ele>8.5</ele>
        <time>2020-06-08T19:34:08Z</time>
      </trkpt>
      <trkpt lat="48.36402" lon="-4.7654">
        <ele>8.6</ele>
        <time>2020-06-08T19:34:09Z</time>
      </trkpt>
      <trkpt lat="48.36404" lon="-4.7654">
        <ele>8.9</ele>
        <time>2020-06-08T19:34:10Z</time>
      </trkpt>
      <trkpt lat="48.36405" lon="-4.76541">
        <ele>9.1</ele>
        <time>2020-06-08T19:34:11Z</time>
      </trkpt>
      <trkpt lat="48.36407" lon="-4.76541">
        <ele>9.3</ele>
        <time>2020-06-08T19:34:12Z</time>
      </trkpt>
      <trkpt lat="48.36409" lon="-4.76541">
        <ele>9.5</ele>
        <time>2020-06-08T19:34:13Z</time>
      </trkpt>
      <trkpt lat="48.36412" lon="-4.76541">
        <ele>9.9</ele>
        <time>2020-06-08T19:34:14Z</time>
      </trkpt>
      <trkpt lat="48.36414" lon="-4.76541">
        <ele>10.1</ele>
        <time>2020-06-08T19:34:15Z</time>
      </trkpt>
      <trkpt lat="48.36417" lon="-4.76542">
        <ele>10.5</ele>
        <time>2020-06-08T19:34:16Z</time>
      </trkpt>
      <trkpt lat="48.36418" lon="-4.76542">
        <ele>10.6</ele>
        <time>2020-06-08T19:34:17Z</time>
      </trkpt>
      <trkpt lat="48.3642" lon="-4.76542">
        <ele>11</ele>
        <time>2020-06-08T19:34:18Z</time>
      </trkpt>
      <trkpt lat="48.36421" lon="-4.76541">
        <ele>12.2</ele>
        <time>2020-06-08T19:34:19Z</time>
      </trkpt>
      <trkpt lat="48.36423" lon="-4.76537">
        <ele>12.5</ele>
        <time>2020-06-08T19:34:20Z</time>
      </trkpt>
      <trkpt lat="48.36426" lon="-4.76534">
        <ele>12.8</ele>
        <time>2020-06-08T19:34:21Z</time>
      </trkpt>
      <trkpt lat="48.36426" lon="-4.76533">
        <ele>12.8</ele>
        <time>2020-06-08T19:34:22Z</time>
      </trkpt>
      <trkpt lat="48.36427" lon="-4.7653">
        <ele>13</ele>
        <time>2020-06-08T19:34:23Z</time>
      </trkpt>
      <trkpt lat="48.36428" lon="-4.76529">
        <ele>13.1</ele>
        <time>2020-06-08T19:34:24Z</time>
      </trkpt>
      <trkpt lat="48.36429" lon="-4.76527">
        <ele>13.2</ele>
        <time>2020-06-08T19:34:25Z</time>
      </trkpt>
      <trkpt lat="48.3643" lon="-4.76526">
        <ele>13.3</ele>
        <time>2020-06-08T19:34:26Z</time>
      </trkpt>
      <trkpt lat="48.36431" lon="-4.76525">
        <ele>13.4</ele>
        <time>2020-06-08T19:34:27Z</time>
      </trkpt>
      <trkpt lat="48.36431" lon="-4.76523">
        <ele>13.5</ele>
        <time>2020-06-08T19:34:28Z</time>
      </trkpt>
      <trkpt lat="48.36432" lon="-4.7652">
        <ele>13.6</ele>
        <time>2020-06-08T19:34:29Z</time>
      </trkpt>
      <trkpt lat="48.36433" lon="-4.76515">
        <ele>13.9</ele>
        <time>2020-06-08T19:34:30Z</time>
      </trkpt>
      <trkpt lat="48.36433" lon="-4.76513">
        <ele>14</ele>
        <time>2020-06-08T19:34:31Z</time>
      </trkpt>
      <trkpt lat="48.36434" lon="-4.76511">
        <ele>14.1</ele>
        <time>2020-06-08T19:34:32Z</time>
      </trkpt>
      <trkpt lat="48.36434" lon="-4.76508">
        <ele>14.3</ele>
        <time>2020-06-08T19:34:33Z</time>
      </trkpt>
      <trkpt lat="48.36435" lon="-4.76504">
        <ele>14.5</ele>
        <time>2020-06-08T19:34:34Z</time>
      </trkpt>
      <trkpt lat="48.36435" lon="-4.76503">
        <ele>14.6</ele>
        <time>2020-06-08T19:34:35Z</time>
      </trkpt>
      <trkpt lat="48.36437" lon="-4.76497">
        <ele>14.9</ele>
        <time>2020-06-08T19:34:36Z</time>
      </trkpt>
      <trkpt lat="48.36437" lon="-4.76495">
        <ele>15.1</ele>
        <time>2020-06-08T19:34:37Z</time>
      </trkpt>
      <trkpt lat="48.36437" lon="-4.76489">
        <ele>15.4</ele>
        <time>2020-06-08T19:34:38Z</time>
      </trkpt>
      <trkpt lat="48.36437" lon="-4.76487">
        <ele>15.6</ele>
        <time>2020-06-08T19:34:39Z</time>
      </trkpt>
      <trkpt lat="48.36438" lon="-4.76482">
        <ele>15.9</ele>
        <time>2020-06-08T19:34:40Z</time>
      </trkpt>
      <trkpt lat="48.36438" lon="-4.7648">
        <ele>16.1</ele>
        <time>2020-06-08T19:34:41Z</time>
      </trkpt>
      <trkpt lat="48.36438" lon="-4.76478">
        <ele>16.3</ele>
        <time>2020-06-08T19:34:42Z</time>
      </trkpt>
      <trkpt lat="48.36439" lon="-4.76476">
        <ele>16.4</ele>
        <time>2020-06-08T19:34:43Z</time>
      </trkpt>
      <trkpt lat="48.36441" lon="-4.76472">
        <ele>16.9</ele>
        <time>2020-06-08T19:34:44Z</time>
      </trkpt>
      <trkpt lat="48.36441" lon="-4.76471">
        <ele>17</ele>
        <time>2020-06-08T19:34:45Z</time>
      </trkpt>
      <trkpt lat="48.36444" lon="-4.76469">
        <ele>17.3</ele>
        <time>2020-06-08T19:34:46Z</time>
      </trkpt>
      <trkpt lat="48.36445" lon="-4.76468">
        <ele>17.4</ele>
        <time>2020-06-08T19:34:47Z</time>
      </trkpt>
      <trkpt lat="48.36448" lon="-4.76467">
        <ele>17.7</ele>
        <time>2020-06-08T19:34:48Z</time>
      </trkpt>
      <trkpt lat="48.36449" lon="-4.76467">
        <ele>17.8</ele>
        <time>2020-06-08T19:34:49Z</time>
      </trkpt>
      <trkpt lat="48.36453" lon="-4.76466">
        <ele>18.1</ele>
        <time>2020-06-08T19:34:50Z</time>
      </trkpt>
      <trkpt lat="48.36454" lon="-4.76466">
        <ele>18.2</ele>
        <time>2020-06-08T19:34:51Z</time>
      </trkpt>
      <trkpt lat="48.36457" lon="-4.76464">
        <ele>18.4</ele>
        <time>2020-06-08T19:34:52Z</time>
      </trkpt>
      <trkpt lat="48.3646" lon="-4.76464">
        <ele>18.7</ele>
        <time>2020-06-08T19:34:53Z</time>
      </trkpt>
      <trkpt lat="48.36463" lon="-4.76464">
        <ele>19</ele>
        <time>2020-06-08T19:34:54Z</time>
      </trkpt>
      <trkpt lat="48.36465" lon="-4.76464">
        <ele>19.1</ele>
        <time>2020-06-08T19:34:55Z</time>
      </trkpt>
      <trkpt lat="48.36468" lon="-4.76464">
        <ele>19.3</ele>
        <time>2020-06-08T19:34:56Z</time>
      </trkpt>
      <trkpt lat="48.36469" lon="-4.76464">
        <ele>19.7</ele>
        <time>2020-06-08T19:34:57Z</time>
      </trkpt>
      <trkpt lat="48.36472" lon="-4.76464">
        <ele>20</ele>
        <time>2020-06-08T19:34:58Z</time>
      </trkpt>
      <trkpt lat="48.36473" lon="-4.76463">
        <ele>20.1</ele>
        <time>2020-06-08T19:34:59Z</time>
      </trkpt>
      <trkpt lat="48.36476" lon="-4.76462">
        <ele>20.4</ele>
        <time>2020-06-08T19:35:00Z</time>
      </trkpt>
      <trkpt lat="48.3648" lon="-4.76461">
        <ele>20.7</ele>
        <time>2020-06-08T19:35:01Z</time>
      </trkpt>
      <trkpt lat="48.36481" lon="-4.76461">
        <ele>20.8</ele>
        <time>2020-06-08T19:35:02Z</time>
      </trkpt>
      <trkpt lat="48.36484" lon="-4.7646">
        <ele>21</ele>
        <time>2020-06-08T19:35:03Z</time>
      </trkpt>
      <trkpt lat="48.36485" lon="-4.76459">
        <ele>21.1</ele>
        <time>2020-06-08T19:35:04Z</time>
      </trkpt>
      <trkpt lat="48.36488" lon="-4.76457">
        <ele>21.4</ele>
        <time>2020-06-08T19:35:05Z</time>
      </trkpt>
      <trkpt lat="48.36489" lon="-4.76456">
        <ele>21.5</ele>
        <time>2020-06-08T19:35:06Z</time>
      </trkpt>
      <trkpt lat="48.36492" lon="-4.76455">
        <ele>21.7</ele>
        <time>2020-06-08T19:35:07Z</time>
      </trkpt>
      <trkpt lat="48.36494" lon="-4.76454">
        <ele>21.9</ele>
        <time>2020-06-08T19:35:08Z</time>
      </trkpt>
      <trkpt lat="48.36497" lon="-4.76451">
        <ele>22.1</ele>
        <time>2020-06-08T19:35:09Z</time>
      </trkpt>
      <trkpt lat="48.36498" lon="-4.7645">
        <ele>22.2</ele>
        <time>2020-06-08T19:35:10Z</time>
      </trkpt>
      <trkpt lat="48.36501" lon="-4.76447">
        <ele>22.4</ele>
        <time>2020-06-08T19:35:11Z</time>
      </trkpt>
      <trkpt lat="48.36504" lon="-4.76444">
        <ele>22.7</ele>
        <time>2020-06-08T19:35:12Z</time>
      </trkpt>
      <trkpt lat="48.36505" lon="-4.76444">
        <ele>22.8</ele>
        <time>2020-06-08T19:35:13Z</time>
      </trkpt>
      <trkpt lat="48.36507" lon="-4.76443">
        <ele>23</ele>
        <time>2020-06-08T19:35:14Z</time>
      </trkpt>
      <trkpt lat="48.3651" lon="-4.76442">
        <ele>23.2</ele>
        <time>2020-06-08T19:35:15Z</time>
      </trkpt>
      <trkpt lat="48.36512" lon="-4.76441">
        <ele>23.3</ele>
        <time>2020-06-08T19:35:16Z</time>
      </trkpt>
      <trkpt lat="48.36513" lon="-4.7644">
        <ele>23.4</ele>
        <time>2020-06-08T19:35:17Z</time>
      </trkpt>
      <trkpt lat="48.36516" lon="-4.76438">
        <ele>23.7</ele>
        <time>2020-06-08T19:35:18Z</time>
      </trkpt>
      <trkpt lat="48.36517" lon="-4.76437">
        <ele>23.7</ele>
        <time>2020-06-08T19:35:19Z</time>
      </trkpt>
      <trkpt lat="48.3652" lon="-4.76436">
        <ele>24</ele>
        <time>2020-06-08T19:35:20Z</time>
      </trkpt>
      <trkpt lat="48.36521" lon="-4.76435">
        <ele>24.1</ele>
        <time>2020-06-08T19:35:21Z</time>
      </trkpt>
      <trkpt lat="48.36525" lon="-4.76434">
        <ele>24.3</ele>
        <time>2020-06-08T19:35:22Z</time>
      </trkpt>
      <trkpt lat="48.36526" lon="-4.76434">
        <ele>24.4</ele>
        <time>2020-06-08T19:35:23Z</time>
      </trkpt>
      <trkpt lat="48.36529" lon="-4.76433">
        <ele>24.6</ele>
        <time>2020-06-08T19:35:24Z</time>
      </trkpt>
      <trkpt lat="48.3653" lon="-4.76432">
        <ele>24.6</ele>
        <time>2020-06-08T19:35:25Z</time>
      </trkpt>
      <trkpt lat="48.36533" lon="-4.76431">
        <ele>24.8</ele>
        <time>2020-06-08T19:35:26Z</time>
      </trkpt>
      <trkpt lat="48.36534" lon="-4.7643">
        <ele>24.9</ele>
        <time>2020-06-08T19:35:27Z</time>
      </trkpt>
      <trkpt lat="48.36537" lon="-4.76431">
        <ele>25.1</ele>
        <time>2020-06-08T19:35:28Z</time>
      </trkpt>
      <trkpt lat="48.36538" lon="-4.7643">
        <ele>25.2</ele>
        <time>2020-06-08T19:35:29Z</time>
      </trkpt>
      <trkpt lat="48.36541" lon="-4.7643">
        <ele>25.4</ele>
        <time>2020-06-08T19:35:30Z</time>
      </trkpt>
      <trkpt lat="48.36544" lon="-4.76429">
        <ele>25.6</ele>
        <time>2020-06-08T19:35:31Z</time>
      </trkpt>
      <trkpt lat="48.36544" lon="-4.76429">
        <ele>25.6</ele>
        <time>2020-06-08T19:35:32Z</time>
      </trkpt>
      <trkpt lat="48.36546" lon="-4.76426">
        <ele>25.8</ele>
        <time>2020-06-08T19:35:33Z</time>
      </trkpt>
      <trkpt lat="48.36548" lon="-4.76422">
        <ele>26.1</ele>
        <time>2020-06-08T19:35:34Z</time>
      </trkpt>
      <trkpt lat="48.3655" lon="-4.76417">
        <ele>26.4</ele>
        <time>2020-06-08T19:35:35Z</time>
      </trkpt>
      <trkpt lat="48.36551" lon="-4.76415">
        <ele>26.5</ele>
        <time>2020-06-08T19:35:36Z</time>
      </trkpt>
      <trkpt lat="48.36551" lon="-4.7641">
        <ele>26.6</ele>
        <time>2020-06-08T19:35:37Z</time>
      </trkpt>
      <trkpt lat="48.36551" lon="-4.76409">
        <ele>26.7</ele>
        <time>2020-06-08T19:35:38Z</time>
      </trkpt>
      <trkpt lat="48.36552" lon="-4.76404">
        <ele>26.9</ele>
        <time>2020-06-08T19:35:39Z</time>
      </trkpt>
      <trkpt lat="48.36552" lon="-4.76402">
        <ele>27</ele>
        <time>2020-06-08T19:35:40Z</time>
      </trkpt>
      <trkpt lat="48.36553" lon="-4.76398">
        <ele>27.1</ele>
        <time>2020-06-08T19:35:41Z</time>
      </trkpt>
      <trkpt lat="48.36553" lon="-4.76393">
        <ele>27.3</ele>
        <time>2020-06-08T19:35:42Z</time>
      </trkpt>
      <trkpt lat="48.36554" lon="-4.76387">
        <ele>27.4</ele>
        <time>2020-06-08T19:35:43Z</time>
      </trkpt>
      <trkpt lat="48.36554" lon="-4.76385">
        <ele>27.5</ele>
        <time>2020-06-08T19:35:44Z</time>
      </trkpt>
      <trkpt lat="48.36554" lon="-4.7638">
        <ele>27.7</ele>
        <time>2020-06-08T19:35:45Z</time>
      </trkpt>
      <trkpt lat="48.36554" lon="-4.76378">
        <ele>27.8</ele>
        <time>2020-06-08T19:35:46Z</time>
      </trkpt>
      <trkpt lat="48.36555" lon="-4.76371">
        <ele>28</ele>
        <time>2020-06-08T19:35:47Z</time>
      </trkpt>
      <trkpt lat="48.36556" lon="-4.76369">
        <ele>28.1</ele>
        <time>2020-06-08T19:35:48Z</time>
      </trkpt>
      <trkpt lat="48.36557" lon="-4.76364">
        <ele>28.3</ele>
        <time>2020-06-08T19:35:49Z</time>
      </trkpt>
      <trkpt lat="48.36558" lon="-4.76362">
        <ele>28.3</ele>
        <time>2020-06-08T19:35:50Z</time>
      </trkpt>
      <trkpt lat="48.36558" lon="-4.76358">
        <ele>28.5</ele>
        <time>2020-06-08T19:35:51Z</time>
      </trkpt>
      <trkpt lat="48.36558" lon="-4.76354">
        <ele>28.6</ele>
        <time>2020-06-08T19:35:52Z</time>
      </trkpt>
      <trkpt lat="48.36557" lon="-4.76352">
        <ele>28.7</ele>
        <time>2020-06-08T19:35:53Z</time>
      </trkpt>
      <trkpt lat="48.36558" lon="-4.76346">
        <ele>28.9</ele>
        <time>2020-06-08T19:35:54Z</time>
      </trkpt>
      <trkpt lat="48.36558" lon="-4.76344">
        <ele>29</ele>
        <time>2020-06-08T19:35:55Z</time>
      </trkpt>
      <trkpt lat="48.36558" lon="-4.7634">
        <ele>29.1</ele>
        <time>2020-06-08T19:35:56Z</time>
      </trkpt>
      <trkpt lat="48.36559" lon="-4.76334">
        <ele>29.3</ele>
        <time>2020-06-08T19:35:57Z</time>
      </trkpt>
      <trkpt lat="48.36559" lon="-4.76331">
        <ele>29.4</ele>
        <time>2020-06-08T19:35:58Z</time>
      </trkpt>
      <trkpt lat="48.36559" lon="-4.76327">
        <ele>29.5</ele>
        <time>2020-06-08T19:35:59Z</time>
      </trkpt>
      <trkpt lat="48.3656" lon="-4.76321">
        <ele>29.8</ele>
        <time>2020-06-08T19:36:00Z</time>
      </trkpt>
      <trkpt lat="48.36561" lon="-4.76318">
        <ele>29.8</ele>
        <time>2020-06-08T19:36:01Z</time>
      </trkpt>
      <trkpt lat="48.36561" lon="-4.76314">
        <ele>30</ele>
        <time>2020-06-08T19:36:02Z</time>
      </trkpt>
      <trkpt lat="48.36562" lon="-4.76309">
        <ele>30.1</ele>
        <time>2020-06-08T19:36:03Z</time>
      </trkpt>
      <trkpt lat="48.36562" lon="-4.76303">
        <ele>30.3</ele>
        <time>2020-06-08T19:36:04Z</time>
      </trkpt>
      <trkpt lat="48.36562" lon="-4.76301">
        <ele>30.4</ele>
        <time>2020-06-08T19:36:05Z</time>
      </trkpt>
      <trkpt lat="48.36562" lon="-4.76296">
        <ele>30.6</ele>
        <time>2020-06-08T19:36:06Z</time>
      </trkpt>
      <trkpt lat="48.36563" lon="-4.76291">
        <ele>30.7</ele>
        <time>2020-06-08T19:36:07Z</time>
      </trkpt>
      <trkpt lat="48.36564" lon="-4.76286">
        <ele>30.8</ele>
        <time>2020-06-08T19:36:08Z</time>
      </trkpt>
      <trkpt lat="48.36564" lon="-4.76284">
        <ele>30.9</ele>
        <time>2020-06-08T19:36:09Z</time>
      </trkpt>
      <trkpt lat="48.36564" lon="-4.76278">
        <ele>31</ele>
        <time>2020-06-08T19:36:10Z</time>
      </trkpt>
      <trkpt lat="48.36564" lon="-4.76273">
        <ele>31.1</ele>
        <time>2020-06-08T19:36:11Z</time>
      </trkpt>
      <trkpt lat="48.36564" lon="-4.76267">
        <ele>31.2</ele>
        <time>2020-06-08T19:36:12Z</time>
      </trkpt>
      <trkpt lat="48.36565" lon="-4.76262">
        <ele>31.3</ele>
        <time>2020-06-08T19:36:13Z</time>
      </trkpt>
      <trkpt lat="48.36566" lon="-4.76257">
        <ele>31.3</ele>
        <time>2020-06-08T19:36:14Z</time>
      </trkpt>
      <trkpt lat="48.36567" lon="-4.76252">
        <ele>31.4</ele>
        <time>2020-06-08T19:36:15Z</time>
      </trkpt>
      <trkpt lat="48.36567" lon="-4.76246">
        <ele>31.5</ele>
        <time>2020-06-08T19:36:16Z</time>
      </trkpt>
      <trkpt lat="48.36568" lon="-4.76241">
        <ele>31.6</ele>
        <time>2020-06-08T19:36:17Z</time>
      </trkpt>
      <trkpt lat="48.36571" lon="-4.76235">
        <ele>31.6</ele>
        <time>2020-06-08T19:36:18Z</time>
      </trkpt>
      <trkpt lat="48.36572" lon="-4.76228">
        <ele>31.6</ele>
        <time>2020-06-08T19:36:19Z</time>
      </trkpt>
      <trkpt lat="48.36573" lon="-4.76222">
        <ele>31.7</ele>
        <time>2020-06-08T19:36:20Z</time>
      </trkpt>
      <trkpt lat="48.36575" lon="-4.76217">
        <ele>31.7</ele>
        <time>2020-06-08T19:36:21Z</time>
      </trkpt>
      <trkpt lat="48.36577" lon="-4.7621">
        <ele>31.7</ele>
        <time>2020-06-08T19:36:22Z</time>
      </trkpt>
      <trkpt lat="48.36578" lon="-4.76206">
        <ele>31.8</ele>
        <time>2020-06-08T19:36:23Z</time>
      </trkpt>
      <trkpt lat="48.36582" lon="-4.762">
        <ele>31.8</ele>
        <time>2020-06-08T19:36:24Z</time>
      </trkpt>
      <trkpt lat="48.36585" lon="-4.76196">
        <ele>31.8</ele>
        <time>2020-06-08T19:36:25Z</time>
      </trkpt>
      <trkpt lat="48.36589" lon="-4.76191">
        <ele>31.9</ele>
        <time>2020-06-08T19:36:26Z</time>
      </trkpt>
      <trkpt lat="48.36593" lon="-4.76186">
        <ele>31.9</ele>
        <time>2020-06-08T19:36:27Z</time>
      </trkpt>
      <trkpt lat="48.36597" lon="-4.76182">
        <ele>32</ele>
        <time>2020-06-08T19:36:28Z</time>
      </trkpt>
      <trkpt lat="48.36602" lon="-4.76178">
        <ele>31.9</ele>
        <time>2020-06-08T19:36:29Z</time>
      </trkpt>
      <trkpt lat="48.36606" lon="-4.76173">
        <ele>31.9</ele>
        <time>2020-06-08T19:36:30Z</time>
      </trkpt>
      <trkpt lat="48.3661" lon="-4.7617">
        <ele>31.9</ele>
        <time>2020-06-08T19:36:31Z</time>
      </trkpt>
      <trkpt lat="48.36615" lon="-4.76165">
        <ele>31.9</ele>
        <time>2020-06-08T19:36:32Z</time>
      </trkpt>
      <trkpt lat="48.3662" lon="-4.76158">
        <ele>31.9</ele>
        <time>2020-06-08T19:36:33Z</time>
      </trkpt>
      <trkpt lat="48.36625" lon="-4.76153">
        <ele>31.8</ele>
        <time>2020-06-08T19:36:34Z</time>
      </trkpt>
      <trkpt lat="48.36628" lon="-4.76148">
        <ele>31.8</ele>
        <time>2020-06-08T19:36:35Z</time>
      </trkpt>
      <trkpt lat="48.36632" lon="-4.76142">
        <ele>31.7</ele>
        <time>2020-06-08T19:36:36Z</time>
      </trkpt>
      <trkpt lat="48.36636" lon="-4.76137">
        <ele>31.6</ele>
        <time>2020-06-08T19:36:37Z</time>
      </trkpt>
      <trkpt lat="48.36639" lon="-4.76132">
        <ele>31.5</ele>
        <time>2020-06-08T19:36:38Z</time>
      </trkpt>
      <trkpt lat="48.36643" lon="-4.76128">
        <ele>31.5</ele>
        <time>2020-06-08T19:36:39Z</time>
      </trkpt>
      <trkpt lat="48.36647" lon="-4.76123">
        <ele>31.4</ele>
        <time>2020-06-08T19:36:40Z</time>
      </trkpt>
      <trkpt lat="48.3665" lon="-4.76118">
        <ele>31.4</ele>
        <time>2020-06-08T19:36:41Z</time>
      </trkpt>
      <trkpt lat="48.36654" lon="-4.76112">
        <ele>31.3</ele>
        <time>2020-06-08T19:36:42Z</time>
      </trkpt>
      <trkpt lat="48.36659" lon="-4.76106">
        <ele>31.3</ele>
        <time>2020-06-08T19:36:43Z</time>
      </trkpt>
      <trkpt lat="48.36664" lon="-4.761">
        <ele>31.3</ele>
        <time>2020-06-08T19:36:44Z</time>
      </trkpt>
      <trkpt lat="48.36667" lon="-4.76094">
        <ele>31.3</ele>
        <time>2020-06-08T19:36:45Z</time>
      </trkpt>
      <trkpt lat="48.3667" lon="-4.76089">
        <ele>31.2</ele>
        <time>2020-06-08T19:36:46Z</time>
      </trkpt>
      <trkpt lat="48.36673" lon="-4.76084">
        <ele>31.2</ele>
        <time>2020-06-08T19:36:47Z</time>
      </trkpt>
      <trkpt lat="48.36676" lon="-4.76078">
        <ele>31.2</ele>
        <time>2020-06-08T19:36:48Z</time>
      </trkpt>
      <trkpt lat="48.3668" lon="-4.76073">
        <ele>31.2</ele>
        <time>2020-06-08T19:36:49Z</time>
      </trkpt>
      <trkpt lat="48.36683" lon="-4.76067">
        <ele>31.2</ele>
        <time>2020-06-08T19:36:50Z</time>
      </trkpt>
      <trkpt lat="48.36687" lon="-4.76062">
        <ele>31.2</ele>
        <time>2020-06-08T19:36:51Z</time>
      </trkpt>
      <trkpt lat="48.36692" lon="-4.76057">
        <ele>31.2</ele>
        <time>2020-06-08T19:36:52Z</time>
      </trkpt>
      <trkpt lat="48.36696" lon="-4.76053">
        <ele>31.2</ele>
        <time>2020-06-08T19:36:53Z</time>
      </trkpt>
      <trkpt lat="48.367" lon="-4.76047">
        <ele>31.2</ele>
        <time>2020-06-08T19:36:54Z</time>
      </trkpt>
      <trkpt lat="48.36704" lon="-4.76044">
        <ele>31.1</ele>
        <time>2020-06-08T19:36:55Z</time>
      </trkpt>
      <trkpt lat="48.36708" lon="-4.76038">
        <ele>31.1</ele>
        <time>2020-06-08T19:36:56Z</time>
      </trkpt>
      <trkpt lat="48.36712" lon="-4.76033">
        <ele>31</ele>
        <time>2020-06-08T19:36:57Z</time>
      </trkpt>
      <trkpt lat="48.36716" lon="-4.76028">
        <ele>31</ele>
        <time>2020-06-08T19:36:58Z</time>
      </trkpt>
      <trkpt lat="48.36721" lon="-4.76023">
        <ele>30.9</ele>
        <time>2020-06-08T19:36:59Z</time>
      </trkpt>
      <trkpt lat="48.36724" lon="-4.76019">
        <ele>30.8</ele>
        <time>2020-06-08T19:37:00Z</time>
      </trkpt>
      <trkpt lat="48.36728" lon="-4.76012">
        <ele>30.7</ele>
        <time>2020-06-08T19:37:01Z</time>
      </trkpt>
      <trkpt lat="48.36732" lon="-4.76006">
        <ele>30.6</ele>
        <time>2020-06-08T19:37:02Z</time>
      </trkpt>
      <trkpt lat="48.36736" lon="-4.75999">
        <ele>30.6</ele>
        <time>2020-06-08T19:37:03Z</time>
      </trkpt>
      <trkpt lat="48.3674" lon="-4.75993">
        <ele>30.6</ele>
        <time>2020-06-08T19:37:04Z</time>
      </trkpt>
      <trkpt lat="48.36744" lon="-4.75987">
        <ele>30.6</ele>
        <time>2020-06-08T19:37:05Z</time>
      </trkpt>
      <trkpt lat="48.36748" lon="-4.75981">
        <ele>30.6</ele>
        <time>2020-06-08T19:37:06Z</time>
      </trkpt>
      <trkpt lat="48.36753" lon="-4.75974">
        <ele>30.6</ele>
        <time>2020-06-08T19:37:07Z</time>
      </trkpt>
      <trkpt lat="48.36758" lon="-4.75967">
        <ele>30.5</ele>
        <time>2020-06-08T19:37:08Z</time>
      </trkpt>
      <trkpt lat="48.36762" lon="-4.7596">
        <ele>30.5</ele>
        <time>2020-06-08T19:37:09Z</time>
      </trkpt>
      <trkpt lat="48.36767" lon="-4.75954">
        <ele>30.4</ele>
        <time>2020-06-08T19:37:10Z</time>
      </trkpt>
      <trkpt lat="48.36771" lon="-4.75948">
        <ele>30.4</ele>
        <time>2020-06-08T19:37:11Z</time>
      </trkpt>
      <trkpt lat="48.36775" lon="-4.75941">
        <ele>30.4</ele>
        <time>2020-06-08T19:37:12Z</time>
      </trkpt>
      <trkpt lat="48.36779" lon="-4.75935">
        <ele>30.3</ele>
        <time>2020-06-08T19:37:13Z</time>
      </trkpt>
      <trkpt lat="48.36783" lon="-4.75929">
        <ele>30.3</ele>
        <time>2020-06-08T19:37:14Z</time>
      </trkpt>
      <trkpt lat="48.36787" lon="-4.75924">
        <ele>30.3</ele>
        <time>2020-06-08T19:37:15Z</time>
      </trkpt>
      <trkpt lat="48.36791" lon="-4.75919">
        <ele>30.3</ele>
        <time>2020-06-08T19:37:16Z</time>
      </trkpt>
      <trkpt lat="48.36794" lon="-4.75914">
        <ele>30.2</ele>
        <time>2020-06-08T19:37:17Z</time>
      </trkpt>
      <trkpt lat="48.36798" lon="-4.75908">
        <ele>30.2</ele>
        <time>2020-06-08T19:37:18Z</time>
      </trkpt>
      <trkpt lat="48.36802" lon="-4.75902">
        <ele>30.2</ele>
        <time>2020-06-08T19:37:19Z</time>
      </trkpt>
      <trkpt lat="48.36806" lon="-4.75895">
        <ele>30.2</ele>
        <time>2020-06-08T19:37:20Z</time>
      </trkpt>
      <trkpt lat="48.36811" lon="-4.75889">
        <ele>30.2</ele>
        <time>2020-06-08T19:37:21Z</time>
      </trkpt>
      <trkpt lat="48.36815" lon="-4.75883">
        <ele>30.2</ele>
        <time>2020-06-08T19:37:22Z</time>
      </trkpt>
      <trkpt lat="48.36819" lon="-4.75878">
        <ele>30.2</ele>
        <time>2020-06-08T19:37:23Z</time>
      </trkpt>
      <trkpt lat="48.36823" lon="-4.75871">
        <ele>30.3</ele>
        <time>2020-06-08T19:37:24Z</time>
      </trkpt>
      <trkpt lat="48.36827" lon="-4.75866">
        <ele>30.3</ele>
        <time>2020-06-08T19:37:25Z</time>
      </trkpt>
      <trkpt lat="48.36832" lon="-4.7586">
        <ele>30.4</ele>
        <time>2020-06-08T19:37:26Z</time>
      </trkpt>
      <trkpt lat="48.36837" lon="-4.75855">
        <ele>30.4</ele>
        <time>2020-06-08T19:37:27Z</time>
      </trkpt>
      <trkpt lat="48.3684" lon="-4.75849">
        <ele>30.4</ele>
        <time>2020-06-08T19:37:28Z</time>
      </trkpt>
      <trkpt lat="48.36843" lon="-4.75845">
        <ele>30.5</ele>
        <time>2020-06-08T19:37:29Z</time>
      </trkpt>
      <trkpt lat="48.36847" lon="-4.7584">
        <ele>30.5</ele>
        <time>2020-06-08T19:37:30Z</time>
      </trkpt>
      <trkpt lat="48.36851" lon="-4.75834">
        <ele>30.6</ele>
        <time>2020-06-08T19:37:31Z</time>
      </trkpt>
      <trkpt lat="48.36853" lon="-4.75829">
        <ele>30.6</ele>
        <time>2020-06-08T19:37:32Z</time>
      </trkpt>
      <trkpt lat="48.36857" lon="-4.75825">
        <ele>30.6</ele>
        <time>2020-06-08T19:37:33Z</time>
      </trkpt>
      <trkpt lat="48.36861" lon="-4.7582">
        <ele>30.6</ele>
        <time>2020-06-08T19:37:34Z</time>
      </trkpt>
      <trkpt lat="48.36865" lon="-4.75814">
        <ele>30.6</ele>
        <time>2020-06-08T19:37:35Z</time>
      </trkpt>
      <trkpt lat="48.36869" lon="-4.75807">
        <ele>30.6</ele>
        <time>2020-06-08T19:37:36Z</time>
      </trkpt>
      <trkpt lat="48.36874" lon="-4.75801">
        <ele>30.6</ele>
        <time>2020-06-08T19:37:37Z</time>
      </trkpt>
      <trkpt lat="48.36878" lon="-4.75795">
        <ele>30.5</ele>
        <time>2020-06-08T19:37:38Z</time>
      </trkpt>
      <trkpt lat="48.36883" lon="-4.75789">
        <ele>30.5</ele>
        <time>2020-06-08T19:37:39Z</time>
      </trkpt>
      <trkpt lat="48.36887" lon="-4.75784">
        <ele>30.4</ele>
        <time>2020-06-08T19:37:40Z</time>
      </trkpt>
      <trkpt lat="48.36891" lon="-4.75778">
        <ele>30.4</ele>
        <time>2020-06-08T19:37:41Z</time>
      </trkpt>
      <trkpt lat="48.36896" lon="-4.75771">
        <ele>30.3</ele>
        <time>2020-06-08T19:37:42Z</time>
      </trkpt>
      <trkpt lat="48.369" lon="-4.75765">
        <ele>30.3</ele>
        <time>2020-06-08T19:37:43Z</time>
      </trkpt>
      <trkpt lat="48.36904" lon="-4.75758">
        <ele>30.2</ele>
        <time>2020-06-08T19:37:44Z</time>
      </trkpt>
      <trkpt lat="48.36908" lon="-4.75753">
        <ele>30.1</ele>
        <time>2020-06-08T19:37:45Z</time>
      </trkpt>
      <trkpt lat="48.36912" lon="-4.75748">
        <ele>30.1</ele>
        <time>2020-06-08T19:37:46Z</time>
      </trkpt>
      <trkpt lat="48.36917" lon="-4.75742">
        <ele>30</ele>
        <time>2020-06-08T19:37:47Z</time>
      </trkpt>
      <trkpt lat="48.36922" lon="-4.75736">
        <ele>29.9</ele>
        <time>2020-06-08T19:37:48Z</time>
      </trkpt>
      <trkpt lat="48.36925" lon="-4.75729">
        <ele>29.9</ele>
        <time>2020-06-08T19:37:49Z</time>
      </trkpt>
      <trkpt lat="48.3693" lon="-4.75722">
        <ele>29.8</ele>
        <time>2020-06-08T19:37:50Z</time>
      </trkpt>
      <trkpt lat="48.36934" lon="-4.75717">
        <ele>29.8</ele>
        <time>2020-06-08T19:37:51Z</time>
      </trkpt>
      <trkpt lat="48.36938" lon="-4.75711">
        <ele>29.7</ele>
        <time>2020-06-08T19:37:52Z</time>
      </trkpt>
      <trkpt lat="48.36944" lon="-4.75705">
        <ele>29.7</ele>
        <time>2020-06-08T19:37:53Z</time>
      </trkpt>
      <trkpt lat="48.36949" lon="-4.75699">
        <ele>29.7</ele>
        <time>2020-06-08T19:37:54Z</time>
      </trkpt>
      <trkpt lat="48.36954" lon="-4.75691">
        <ele>29.7</ele>
        <time>2020-06-08T19:37:55Z</time>
      </trkpt>
      <trkpt lat="48.36959" lon="-4.75686">
        <ele>29.7</ele>
        <time>2020-06-08T19:37:56Z</time>
      </trkpt>
      <trkpt lat="48.36963" lon="-4.75679">
        <ele>29.7</ele>
        <time>2020-06-08T19:37:57Z</time>
      </trkpt>
      <trkpt lat="48.36967" lon="-4.75674">
        <ele>29.7</ele>
        <time>2020-06-08T19:37:58Z</time>
      </trkpt>
      <trkpt lat="48.36972" lon="-4.75668">
        <ele>29.7</ele>
        <time>2020-06-08T19:37:59Z</time>
      </trkpt>
      <trkpt lat="48.36976" lon="-4.75664">
        <ele>29.8</ele>
        <time>2020-06-08T19:38:00Z</time>
      </trkpt>
      <trkpt lat="48.3698" lon="-4.75657">
        <ele>29.8</ele>
        <time>2020-06-08T19:38:01Z</time>
      </trkpt>
      <trkpt lat="48.36985" lon="-4.75652">
        <ele>29.8</ele>
        <time>2020-06-08T19:38:02Z</time>
      </trkpt>
      <trkpt lat="48.3699" lon="-4.75645">
        <ele>29.8</ele>
        <time>2020-06-08T19:38:03Z</time>
      </trkpt>
      <trkpt lat="48.36994" lon="-4.75639">
        <ele>29.8</ele>
        <time>2020-06-08T19:38:04Z</time>
      </trkpt>
      <trkpt lat="48.36998" lon="-4.75633">
        <ele>29.9</ele>
        <time>2020-06-08T19:38:05Z</time>
      </trkpt>
      <trkpt lat="48.37002" lon="-4.75627">
        <ele>29.9</ele>
        <time>2020-06-08T19:38:06Z</time>
      </trkpt>
      <trkpt lat="48.37006" lon="-4.7562">
        <ele>29.9</ele>
        <time>2020-06-08T19:38:07Z</time>
      </trkpt>
      <trkpt lat="48.37011" lon="-4.75614">
        <ele>29.9</ele>
        <time>2020-06-08T19:38:08Z</time>
      </trkpt>
      <trkpt lat="48.37017" lon="-4.75606">
        <ele>30.1</ele>
        <time>2020-06-08T19:38:09Z</time>
      </trkpt>
      <trkpt lat="48.37021" lon="-4.75599">
        <ele>30.1</ele>
        <time>2020-06-08T19:38:10Z</time>
      </trkpt>
      <trkpt lat="48.37026" lon="-4.75593">
        <ele>30.1</ele>
        <time>2020-06-08T19:38:11Z</time>
      </trkpt>
      <trkpt lat="48.37029" lon="-4.75588">
        <ele>30.1</ele>
        <time>2020-06-08T19:38:12Z</time>
      </trkpt>
      <trkpt lat="48.37033" lon="-4.75581">
        <ele>30.1</ele>
        <time>2020-06-08T19:38:13Z</time>
      </trkpt>
      <trkpt lat="48.37037" lon="-4.75574">
        <ele>30.1</ele>
        <time>2020-06-08T19:38:14Z</time>
      </trkpt>
      <trkpt lat="48.3704" lon="-4.75568">
        <ele>30.2</ele>
        <time>2020-06-08T19:38:15Z</time>
      </trkpt>
      <trkpt lat="48.37044" lon="-4.75562">
        <ele>30.2</ele>
        <time>2020-06-08T19:38:16Z</time>
      </trkpt>
      <trkpt lat="48.37048" lon="-4.75555">
        <ele>30.3</ele>
        <time>2020-06-08T19:38:17Z</time>
      </trkpt>
      <trkpt lat="48.37052" lon="-4.75549">
        <ele>30.3</ele>
        <time>2020-06-08T19:38:18Z</time>
      </trkpt>
      <trkpt lat="48.37057" lon="-4.75543">
        <ele>30.3</ele>
        <time>2020-06-08T19:38:19Z</time>
      </trkpt>
      <trkpt lat="48.37062" lon="-4.75536">
        <ele>30.4</ele>
        <time>2020-06-08T19:38:20Z</time>
      </trkpt>
      <trkpt lat="48.37066" lon="-4.7553">
        <ele>30.4</ele>
        <time>2020-06-08T19:38:21Z</time>
      </trkpt>
      <trkpt lat="48.3707" lon="-4.75526">
        <ele>30.4</ele>
        <time>2020-06-08T19:38:22Z</time>
      </trkpt>
      <trkpt lat="48.37074" lon="-4.75519">
        <ele>30.5</ele>
        <time>2020-06-08T19:38:23Z</time>
      </trkpt>
      <trkpt lat="48.37078" lon="-4.75513">
        <ele>30.5</ele>
        <time>2020-06-08T19:38:24Z</time>
      </trkpt>
      <trkpt lat="48.37081" lon="-4.75508">
        <ele>30.4</ele>
        <time>2020-06-08T19:38:25Z</time>
      </trkpt>
      <trkpt lat="48.37085" lon="-4.75503">
        <ele>30.4</ele>
        <time>2020-06-08T19:38:26Z</time>
      </trkpt>
      <trkpt lat="48.37089" lon="-4.75498">
        <ele>30.4</ele>
        <time>2020-06-08T19:38:27Z</time>
      </trkpt>
      <trkpt lat="48.37093" lon="-4.75492">
        <ele>30.3</ele>
        <time>2020-06-08T19:38:28Z</time>
      </trkpt>
      <trkpt lat="48.37098" lon="-4.75486">
        <ele>30.2</ele>
        <time>2020-06-08T19:38:29Z</time>
      </trkpt>
      <trkpt lat="48.37102" lon="-4.75481">
        <ele>30.2</ele>
        <time>2020-06-08T19:38:30Z</time>
      </trkpt>
      <trkpt lat="48.37107" lon="-4.75475">
        <ele>30.2</ele>
        <time>2020-06-08T19:38:31Z</time>
      </trkpt>
      <trkpt lat="48.37111" lon="-4.7547">
        <ele>30.1</ele>
        <time>2020-06-08T19:38:32Z</time>
      </trkpt>
      <trkpt lat="48.37114" lon="-4.75465">
        <ele>30.1</ele>
        <time>2020-06-08T19:38:33Z</time>
      </trkpt>
      <trkpt lat="48.37117" lon="-4.75459">
        <ele>30.1</ele>
        <time>2020-06-08T19:38:34Z</time>
      </trkpt>
      <trkpt lat="48.37122" lon="-4.75452">
        <ele>30</ele>
        <time>2020-06-08T19:38:35Z</time>
      </trkpt>
      <trkpt lat="48.37126" lon="-4.75446">
        <ele>30</ele>
        <time>2020-06-08T19:38:36Z</time>
      </trkpt>
      <trkpt lat="48.37131" lon="-4.7544">
        <ele>29.9</ele>
        <time>2020-06-08T19:38:37Z</time>
      </trkpt>
      <trkpt lat="48.37134" lon="-4.75434">
        <ele>29.9</ele>
        <time>2020-06-08T19:38:38Z</time>
      </trkpt>
      <trkpt lat="48.37139" lon="-4.75427">
        <ele>29.8</ele>
        <time>2020-06-08T19:38:39Z</time>
      </trkpt>
      <trkpt lat="48.37143" lon="-4.75422">
        <ele>29.8</ele>
        <time>2020-06-08T19:38:40Z</time>
      </trkpt>
      <trkpt lat="48.37147" lon="-4.75416">
        <ele>29.8</ele>
        <time>2020-06-08T19:38:41Z</time>
      </trkpt>
      <trkpt lat="48.37151" lon="-4.75411">
        <ele>29.8</ele>
        <time>2020-06-08T19:38:42Z</time>
      </trkpt>
      <trkpt lat="48.37156" lon="-4.75405">
        <ele>29.9</ele>
        <time>2020-06-08T19:38:43Z</time>
      </trkpt>
      <trkpt lat="48.37161" lon="-4.75399">
        <ele>30</ele>
        <time>2020-06-08T19:38:44Z</time>
      </trkpt>
      <trkpt lat="48.37164" lon="-4.75393">
        <ele>30</ele>
        <time>2020-06-08T19:38:45Z</time>
      </trkpt>
      <trkpt lat="48.37166" lon="-4.7539">
        <ele>30.1</ele>
        <time>2020-06-08T19:38:46Z</time>
      </trkpt>
      <trkpt lat="48.3717" lon="-4.75383">
        <ele>30.1</ele>
        <time>2020-06-08T19:38:47Z</time>
      </trkpt>
      <trkpt lat="48.37175" lon="-4.75375">
        <ele>30.2</ele>
        <time>2020-06-08T19:38:48Z</time>
      </trkpt>
      <trkpt lat="48.3718" lon="-4.75369">
        <ele>30.3</ele>
        <time>2020-06-08T19:38:49Z</time>
      </trkpt>
      <trkpt lat="48.37185" lon="-4.75362">
        <ele>30.4</ele>
        <time>2020-06-08T19:38:50Z</time>
      </trkpt>
      <trkpt lat="48.37189" lon="-4.75356">
        <ele>30.5</ele>
        <time>2020-06-08T19:38:51Z</time>
      </trkpt>
      <trkpt lat="48.37194" lon="-4.75351">
        <ele>30.5</ele>
        <time>2020-06-08T19:38:52Z</time>
      </trkpt>
      <trkpt lat="48.37198" lon="-4.75344">
        <ele>30.6</ele>
        <time>2020-06-08T19:38:53Z</time>
      </trkpt>
      <trkpt lat="48.37202" lon="-4.75339">
        <ele>30.6</ele>
        <time>2020-06-08T19:38:54Z</time>
      </trkpt>
      <trkpt lat="48.37206" lon="-4.75332">
        <ele>30.7</ele>
        <time>2020-06-08T19:38:55Z</time>
      </trkpt>
      <trkpt lat="48.3721" lon="-4.75326">
        <ele>30.7</ele>
        <time>2020-06-08T19:38:56Z</time>
      </trkpt>
      <trkpt lat="48.37214" lon="-4.75321">
        <ele>30.8</ele>
        <time>2020-06-08T19:38:57Z</time>
      </trkpt>
      <trkpt lat="48.37218" lon="-4.75315">
        <ele>30.8</ele>
        <time>2020-06-08T19:38:58Z</time>
      </trkpt>
      <trkpt lat="48.37222" lon="-4.75308">
        <ele>30.9</ele>
        <time>2020-06-08T19:38:59Z</time>
      </trkpt>
      <trkpt lat="48.37226" lon="-4.75302">
        <ele>31</ele>
        <time>2020-06-08T19:39:00Z</time>
      </trkpt>
      <trkpt lat="48.37229" lon="-4.75297">
        <ele>31</ele>
        <time>2020-06-08T19:39:01Z</time>
      </trkpt>
      <trkpt lat="48.37233" lon="-4.75293">
        <ele>31.1</ele>
        <time>2020-06-08T19:39:02Z</time>
      </trkpt>
      <trkpt lat="48.37237" lon="-4.75287">
        <ele>31.2</ele>
        <time>2020-06-08T19:39:03Z</time>
      </trkpt>
      <trkpt lat="48.37241" lon="-4.75281">
        <ele>31.3</ele>
        <time>2020-06-08T19:39:04Z</time>
      </trkpt>
      <trkpt lat="48.37245" lon="-4.75276">
        <ele>31.4</ele>
        <time>2020-06-08T19:39:05Z</time>
      </trkpt>
      <trkpt lat="48.37248" lon="-4.7527">
        <ele>31.5</ele>
        <time>2020-06-08T19:39:06Z</time>
      </trkpt>
      <trkpt lat="48.37252" lon="-4.75264">
        <ele>31.6</ele>
        <time>2020-06-08T19:39:07Z</time>
      </trkpt>
      <trkpt lat="48.37255" lon="-4.75258">
        <ele>31.8</ele>
        <time>2020-06-08T19:39:08Z</time>
      </trkpt>
      <trkpt lat="48.37259" lon="-4.75254">
        <ele>31.9</ele>
        <time>2020-06-08T19:39:09Z</time>
      </trkpt>
      <trkpt lat="48.37264" lon="-4.75251">
        <ele>32</ele>
        <time>2020-06-08T19:39:10Z</time>
      </trkpt>
      <trkpt lat="48.37267" lon="-4.75248">
        <ele>32.1</ele>
        <time>2020-06-08T19:39:11Z</time>
      </trkpt>
      <trkpt lat="48.37271" lon="-4.75243">
        <ele>32.3</ele>
        <time>2020-06-08T19:39:12Z</time>
      </trkpt>
      <trkpt lat="48.37274" lon="-4.75241">
        <ele>32.4</ele>
        <time>2020-06-08T19:39:13Z</time>
      </trkpt>
      <trkpt lat="48.37277" lon="-4.75238">
        <ele>32.4</ele>
        <time>2020-06-08T19:39:14Z</time>
      </trkpt>
      <trkpt lat="48.37282" lon="-4.75239">
        <ele>32.6</ele>
        <time>2020-06-08T19:39:15Z</time>
      </trkpt>
      <trkpt lat="48.37286" lon="-4.75239">
        <ele>31.8</ele>
        <time>2020-06-08T19:39:16Z</time>
      </trkpt>
      <trkpt lat="48.3729" lon="-4.75244">
        <ele>31.4</ele>
        <time>2020-06-08T19:39:17Z</time>
      </trkpt>
      <trkpt lat="48.37294" lon="-4.7525">
        <ele>31.1</ele>
        <time>2020-06-08T19:39:18Z</time>
      </trkpt>
      <trkpt lat="48.37297" lon="-4.75257">
        <ele>30.8</ele>
        <time>2020-06-08T19:39:19Z</time>
      </trkpt>
      <trkpt lat="48.373" lon="-4.75265">
        <ele>30.5</ele>
        <time>2020-06-08T19:39:20Z</time>
      </trkpt>
      <trkpt lat="48.37304" lon="-4.75273">
        <ele>30.2</ele>
        <time>2020-06-08T19:39:21Z</time>
      </trkpt>
      <trkpt lat="48.37307" lon="-4.7528">
        <ele>29.9</ele>
        <time>2020-06-08T19:39:22Z</time>
      </trkpt>
      <trkpt lat="48.3731" lon="-4.75289">
        <ele>29.7</ele>
        <time>2020-06-08T19:39:23Z</time>
      </trkpt>
      <trkpt lat="48.37313" lon="-4.75298">
        <ele>29.4</ele>
        <time>2020-06-08T19:39:24Z</time>
      </trkpt>
      <trkpt lat="48.37317" lon="-4.75307">
        <ele>29.2</ele>
        <time>2020-06-08T19:39:25Z</time>
      </trkpt>
      <trkpt lat="48.37321" lon="-4.75316">
        <ele>29</ele>
        <time>2020-06-08T19:39:26Z</time>
      </trkpt>
      <trkpt lat="48.37324" lon="-4.75324">
        <ele>28.9</ele>
        <time>2020-06-08T19:39:27Z</time>
      </trkpt>
      <trkpt lat="48.37328" lon="-4.75333">
        <ele>28.7</ele>
        <time>2020-06-08T19:39:28Z</time>
      </trkpt>
      <trkpt lat="48.37331" lon="-4.75343">
        <ele>28.5</ele>
        <time>2020-06-08T19:39:29Z</time>
      </trkpt>
      <trkpt lat="48.37335" lon="-4.75352">
        <ele>28.4</ele>
        <time>2020-06-08T19:39:30Z</time>
      </trkpt>
      <trkpt lat="48.37339" lon="-4.75361">
        <ele>28.2</ele>
        <time>2020-06-08T19:39:31Z</time>
      </trkpt>
      <trkpt lat="48.37343" lon="-4.75369">
        <ele>28.1</ele>
        <time>2020-06-08T19:39:32Z</time>
      </trkpt>
      <trkpt lat="48.37346" lon="-4.75379">
        <ele>27.9</ele>
        <time>2020-06-08T19:39:33Z</time>
      </trkpt>
      <trkpt lat="48.3735" lon="-4.75389">
        <ele>27.8</ele>
        <time>2020-06-08T19:39:34Z</time>
      </trkpt>
      <trkpt lat="48.37353" lon="-4.75399">
        <ele>27.7</ele>
        <time>2020-06-08T19:39:35Z</time>
      </trkpt>
      <trkpt lat="48.37356" lon="-4.75409">
        <ele>27.6</ele>
        <time>2020-06-08T19:39:36Z</time>
      </trkpt>
      <trkpt lat="48.37359" lon="-4.75419">
        <ele>27.7</ele>
        <time>2020-06-08T19:39:37Z</time>
      </trkpt>
      <trkpt lat="48.37362" lon="-4.75429">
        <ele>27.8</ele>
        <time>2020-06-08T19:39:38Z</time>
      </trkpt>
      <trkpt lat="48.37365" lon="-4.75439">
        <ele>28</ele>
        <time>2020-06-08T19:39:39Z</time>
      </trkpt>
      <trkpt lat="48.37367" lon="-4.75449">
        <ele>28</ele>
        <time>2020-06-08T19:39:40Z</time>
      </trkpt>
      <trkpt lat="48.37369" lon="-4.75459">
        <ele>27.9</ele>
        <time>2020-06-08T19:39:41Z</time>
      </trkpt>
      <trkpt lat="48.37372" lon="-4.75469">
        <ele>27.9</ele>
        <time>2020-06-08T19:39:42Z</time>
      </trkpt>
      <trkpt lat="48.37374" lon="-4.75479">
        <ele>27.8</ele>
        <time>2020-06-08T19:39:43Z</time>
      </trkpt>
      <trkpt lat="48.37377" lon="-4.75488">
        <ele>27.8</ele>
        <time>2020-06-08T19:39:44Z</time>
      </trkpt>
      <trkpt lat="48.37379" lon="-4.75498">
        <ele>27.8</ele>
        <time>2020-06-08T19:39:45Z</time>
      </trkpt>
      <trkpt lat="48.37381" lon="-4.75507">
        <ele>27.7</ele>
        <time>2020-06-08T19:39:46Z</time>
      </trkpt>
      <trkpt lat="48.37384" lon="-4.75516">
        <ele>27.7</ele>
        <time>2020-06-08T19:39:47Z</time>
      </trkpt>
      <trkpt lat="48.37386" lon="-4.75526">
        <ele>27.7</ele>
        <time>2020-06-08T19:39:48Z</time>
      </trkpt>
      <trkpt lat="48.37388" lon="-4.75535">
        <ele>27.6</ele>
        <time>2020-06-08T19:39:49Z</time>
      </trkpt>
      <trkpt lat="48.37391" lon="-4.75543">
        <ele>27.6</ele>
        <time>2020-06-08T19:39:50Z</time>
      </trkpt>
      <trkpt lat="48.37394" lon="-4.75552">
        <ele>27.6</ele>
        <time>2020-06-08T19:39:51Z</time>
      </trkpt>
      <trkpt lat="48.37396" lon="-4.75562">
        <ele>27.5</ele>
        <time>2020-06-08T19:39:52Z</time>
      </trkpt>
      <trkpt lat="48.37398" lon="-4.75571">
        <ele>27.5</ele>
        <time>2020-06-08T19:39:53Z</time>
      </trkpt>
      <trkpt lat="48.374" lon="-4.7558">
        <ele>27.5</ele>
        <time>2020-06-08T19:39:54Z</time>
      </trkpt>
      <trkpt lat="48.37403" lon="-4.75589">
        <ele>27.4</ele>
        <time>2020-06-08T19:39:55Z</time>
      </trkpt>
      <trkpt lat="48.37406" lon="-4.75597">
        <ele>27.3</ele>
        <time>2020-06-08T19:39:56Z</time>
      </trkpt>
      <trkpt lat="48.37408" lon="-4.75606">
        <ele>27.3</ele>
        <time>2020-06-08T19:39:57Z</time>
      </trkpt>
      <trkpt lat="48.3741" lon="-4.75615">
        <ele>27.2</ele>
        <time>2020-06-08T19:39:58Z</time>
      </trkpt>
      <trkpt lat="48.37412" lon="-4.75624">
        <ele>27.2</ele>
        <time>2020-06-08T19:39:59Z</time>
      </trkpt>
      <trkpt lat="48.37414" lon="-4.75633">
        <ele>27.1</ele>
        <time>2020-06-08T19:40:00Z</time>
      </trkpt>
      <trkpt lat="48.37417" lon="-4.75642">
        <ele>27.1</ele>
        <time>2020-06-08T19:40:01Z</time>
      </trkpt>
      <trkpt lat="48.37419" lon="-4.75651">
        <ele>27</ele>
        <time>2020-06-08T19:40:02Z</time>
      </trkpt>
      <trkpt lat="48.37421" lon="-4.7566">
        <ele>26.9</ele>
        <time>2020-06-08T19:40:03Z</time>
      </trkpt>
      <trkpt lat="48.37424" lon="-4.75669">
        <ele>26.9</ele>
        <time>2020-06-08T19:40:04Z</time>
      </trkpt>
      <trkpt lat="48.37426" lon="-4.75679">
        <ele>26.8</ele>
        <time>2020-06-08T19:40:05Z</time>
      </trkpt>
      <trkpt lat="48.37428" lon="-4.75689">
        <ele>26.8</ele>
        <time>2020-06-08T19:40:06Z</time>
      </trkpt>
      <trkpt lat="48.3743" lon="-4.75698">
        <ele>26.7</ele>
        <time>2020-06-08T19:40:07Z</time>
      </trkpt>
      <trkpt lat="48.37433" lon="-4.75707">
        <ele>26.7</ele>
        <time>2020-06-08T19:40:08Z</time>
      </trkpt>
      <trkpt lat="48.37435" lon="-4.75716">
        <ele>26.6</ele>
        <time>2020-06-08T19:40:09Z</time>
      </trkpt>
      <trkpt lat="48.37437" lon="-4.75725">
        <ele>26.6</ele>
        <time>2020-06-08T19:40:10Z</time>
      </trkpt>
      <trkpt lat="48.37439" lon="-4.75734">
        <ele>26.6</ele>
        <time>2020-06-08T19:40:11Z</time>
      </trkpt>
      <trkpt lat="48.37441" lon="-4.75743">
        <ele>26.6</ele>
        <time>2020-06-08T19:40:12Z</time>
      </trkpt>
      <trkpt lat="48.37443" lon="-4.75753">
        <ele>26.6</ele>
        <time>2020-06-08T19:40:13Z</time>
      </trkpt>
      <trkpt lat="48.37445" lon="-4.75762">
        <ele>26.5</ele>
        <time>2020-06-08T19:40:14Z</time>
      </trkpt>
      <trkpt lat="48.37447" lon="-4.7577">
        <ele>26.5</ele>
        <time>2020-06-08T19:40:15Z</time>
      </trkpt>
      <trkpt lat="48.3745" lon="-4.7578">
        <ele>26.5</ele>
        <time>2020-06-08T19:40:16Z</time>
      </trkpt>
      <trkpt lat="48.37452" lon="-4.75789">
        <ele>26.5</ele>
        <time>2020-06-08T19:40:17Z</time>
      </trkpt>
      <trkpt lat="48.37454" lon="-4.75799">
        <ele>26.5</ele>
        <time>2020-06-08T19:40:18Z</time>
      </trkpt>
      <trkpt lat="48.37456" lon="-4.75809">
        <ele>26.6</ele>
        <time>2020-06-08T19:40:19Z</time>
      </trkpt>
      <trkpt lat="48.37458" lon="-4.75818">
        <ele>26.7</ele>
        <time>2020-06-08T19:40:20Z</time>
      </trkpt>
      <trkpt lat="48.3746" lon="-4.75827">
        <ele>26.8</ele>
        <time>2020-06-08T19:40:21Z</time>
      </trkpt>
      <trkpt lat="48.37461" lon="-4.75836">
        <ele>26.8</ele>
        <time>2020-06-08T19:40:22Z</time>
      </trkpt>
      <trkpt lat="48.37462" lon="-4.75845">
        <ele>26.9</ele>
        <time>2020-06-08T19:40:23Z</time>
      </trkpt>
      <trkpt lat="48.37464" lon="-4.75854">
        <ele>26.9</ele>
        <time>2020-06-08T19:40:24Z</time>
      </trkpt>
      <trkpt lat="48.37465" lon="-4.75863">
        <ele>27</ele>
        <time>2020-06-08T19:40:25Z</time>
      </trkpt>
      <trkpt lat="48.37465" lon="-4.75873">
        <ele>27.1</ele>
        <time>2020-06-08T19:40:26Z</time>
      </trkpt>
      <trkpt lat="48.37465" lon="-4.75882">
        <ele>27.2</ele>
        <time>2020-06-08T19:40:27Z</time>
      </trkpt>
      <trkpt lat="48.37467" lon="-4.7589">
        <ele>27.3</ele>
        <time>2020-06-08T19:40:28Z</time>
      </trkpt>
      <trkpt lat="48.37467" lon="-4.759">
        <ele>27.4</ele>
        <time>2020-06-08T19:40:29Z</time>
      </trkpt>
      <trkpt lat="48.37467" lon="-4.75908">
        <ele>27.5</ele>
        <time>2020-06-08T19:40:30Z</time>
      </trkpt>
      <trkpt lat="48.37468" lon="-4.75917">
        <ele>27.6</ele>
        <time>2020-06-08T19:40:31Z</time>
      </trkpt>
      <trkpt lat="48.37468" lon="-4.75925">
        <ele>27.7</ele>
        <time>2020-06-08T19:40:32Z</time>
      </trkpt>
      <trkpt lat="48.37469" lon="-4.75933">
        <ele>27.7</ele>
        <time>2020-06-08T19:40:33Z</time>
      </trkpt>
      <trkpt lat="48.3747" lon="-4.75942">
        <ele>27.8</ele>
        <time>2020-06-08T19:40:34Z</time>
      </trkpt>
      <trkpt lat="48.37472" lon="-4.7595">
        <ele>27.8</ele>
        <time>2020-06-08T19:40:35Z</time>
      </trkpt>
      <trkpt lat="48.37474" lon="-4.75958">
        <ele>27.8</ele>
        <time>2020-06-08T19:40:36Z</time>
      </trkpt>
      <trkpt lat="48.37477" lon="-4.75965">
        <ele>27.9</ele>
        <time>2020-06-08T19:40:37Z</time>
      </trkpt>
      <trkpt lat="48.37479" lon="-4.75973">
        <ele>27.9</ele>
        <time>2020-06-08T19:40:38Z</time>
      </trkpt>
      <trkpt lat="48.37484" lon="-4.7598">
        <ele>27.9</ele>
        <time>2020-06-08T19:40:39Z</time>
      </trkpt>
      <trkpt lat="48.37487" lon="-4.75987">
        <ele>27.9</ele>
        <time>2020-06-08T19:40:40Z</time>
      </trkpt>
      <trkpt lat="48.3749" lon="-4.75994">
        <ele>28</ele>
        <time>2020-06-08T19:40:41Z</time>
      </trkpt>
      <trkpt lat="48.37494" lon="-4.76">
        <ele>28</ele>
        <time>2020-06-08T19:40:42Z</time>
      </trkpt>
      <trkpt lat="48.37497" lon="-4.76007">
        <ele>28.1</ele>
        <time>2020-06-08T19:40:43Z</time>
      </trkpt>
      <trkpt lat="48.37501" lon="-4.76013">
        <ele>28.2</ele>
        <time>2020-06-08T19:40:44Z</time>
      </trkpt>
      <trkpt lat="48.37505" lon="-4.76018">
        <ele>28.2</ele>
        <time>2020-06-08T19:40:45Z</time>
      </trkpt>
      <trkpt lat="48.37509" lon="-4.76024">
        <ele>28.2</ele>
        <time>2020-06-08T19:40:46Z</time>
      </trkpt>
      <trkpt lat="48.37514" lon="-4.76028">
        <ele>28.3</ele>
        <time>2020-06-08T19:40:47Z</time>
      </trkpt>
      <trkpt lat="48.37519" lon="-4.76029">
        <ele>28.3</ele>
        <time>2020-06-08T19:40:48Z</time>
      </trkpt>
      <trkpt lat="48.37524" lon="-4.76033">
        <ele>28.3</ele>
        <time>2020-06-08T19:40:49Z</time>
      </trkpt>
      <trkpt lat="48.37529" lon="-4.76036">
        <ele>28.3</ele>
        <time>2020-06-08T19:40:50Z</time>
      </trkpt>
      <trkpt lat="48.37535" lon="-4.76038">
        <ele>28.3</ele>
        <time>2020-06-08T19:40:51Z</time>
      </trkpt>
      <trkpt lat="48.3754" lon="-4.76041">
        <ele>28.3</ele>
        <time>2020-06-08T19:40:52Z</time>
      </trkpt>
      <trkpt lat="48.37545" lon="-4.76043">
        <ele>28.4</ele>
        <time>2020-06-08T19:40:53Z</time>
      </trkpt>
      <trkpt lat="48.3755" lon="-4.76045">
        <ele>28.5</ele>
        <time>2020-06-08T19:40:54Z</time>
      </trkpt>
      <trkpt lat="48.37555" lon="-4.76046">
        <ele>28.7</ele>
        <time>2020-06-08T19:40:55Z</time>
      </trkpt>
      <trkpt lat="48.3756" lon="-4.76047">
        <ele>28.8</ele>
        <time>2020-06-08T19:40:56Z</time>
      </trkpt>
      <trkpt lat="48.37565" lon="-4.76049">
        <ele>28.9</ele>
        <time>2020-06-08T19:40:57Z</time>
      </trkpt>
      <trkpt lat="48.3757" lon="-4.76051">
        <ele>29.1</ele>
        <time>2020-06-08T19:40:58Z</time>
      </trkpt>
      <trkpt lat="48.37575" lon="-4.76054">
        <ele>29.2</ele>
        <time>2020-06-08T19:40:59Z</time>
      </trkpt>
      <trkpt lat="48.3758" lon="-4.76054">
        <ele>29.3</ele>
        <time>2020-06-08T19:41:00Z</time>
      </trkpt>
      <trkpt lat="48.37585" lon="-4.76056">
        <ele>29.4</ele>
        <time>2020-06-08T19:41:01Z</time>
      </trkpt>
      <trkpt lat="48.37589" lon="-4.76057">
        <ele>29.5</ele>
        <time>2020-06-08T19:41:02Z</time>
      </trkpt>
      <trkpt lat="48.37594" lon="-4.76056">
        <ele>29.5</ele>
        <time>2020-06-08T19:41:03Z</time>
      </trkpt>
      <trkpt lat="48.37598" lon="-4.76055">
        <ele>29.6</ele>
        <time>2020-06-08T19:41:04Z</time>
      </trkpt>
      <trkpt lat="48.37603" lon="-4.76057">
        <ele>29.7</ele>
        <time>2020-06-08T19:41:05Z</time>
      </trkpt>
      <trkpt lat="48.37607" lon="-4.76058">
        <ele>29.7</ele>
        <time>2020-06-08T19:41:06Z</time>
      </trkpt>
      <trkpt lat="48.37612" lon="-4.76059">
        <ele>29.8</ele>
        <time>2020-06-08T19:41:07Z</time>
      </trkpt>
      <trkpt lat="48.37617" lon="-4.76059">
        <ele>29.8</ele>
        <time>2020-06-08T19:41:08Z</time>
      </trkpt>
      <trkpt lat="48.37623" lon="-4.7606">
        <ele>29.9</ele>
        <time>2020-06-08T19:41:09Z</time>
      </trkpt>
      <trkpt lat="48.37628" lon="-4.76061">
        <ele>29.9</ele>
        <time>2020-06-08T19:41:10Z</time>
      </trkpt>
      <trkpt lat="48.37632" lon="-4.76063">
        <ele>30</ele>
        <time>2020-06-08T19:41:11Z</time>
      </trkpt>
      <trkpt lat="48.37638" lon="-4.76062">
        <ele>30</ele>
        <time>2020-06-08T19:41:12Z</time>
      </trkpt>
      <trkpt lat="48.37643" lon="-4.76062">
        <ele>30</ele>
        <time>2020-06-08T19:41:13Z</time>
      </trkpt>
      <trkpt lat="48.37648" lon="-4.76062">
        <ele>30</ele>
        <time>2020-06-08T19:41:14Z</time>
      </trkpt>
      <trkpt lat="48.37652" lon="-4.76063">
        <ele>30</ele>
        <time>2020-06-08T19:41:15Z</time>
      </trkpt>
      <trkpt lat="48.37657" lon="-4.76063">
        <ele>30</ele>
        <time>2020-06-08T19:41:16Z</time>
      </trkpt>
      <trkpt lat="48.3766" lon="-4.76064">
        <ele>30</ele>
        <time>2020-06-08T19:41:17Z</time>
      </trkpt>
      <trkpt lat="48.37665" lon="-4.76065">
        <ele>30</ele>
        <time>2020-06-08T19:41:18Z</time>
      </trkpt>
      <trkpt lat="48.3767" lon="-4.76068">
        <ele>30</ele>
        <time>2020-06-08T19:41:19Z</time>
      </trkpt>
      <trkpt lat="48.37675" lon="-4.76069">
        <ele>30</ele>
        <time>2020-06-08T19:41:20Z</time>
      </trkpt>
      <trkpt lat="48.3768" lon="-4.76069">
        <ele>30.1</ele>
        <time>2020-06-08T19:41:21Z</time>
      </trkpt>
      <trkpt lat="48.37685" lon="-4.7607">
        <ele>30.1</ele>
        <time>2020-06-08T19:41:22Z</time>
      </trkpt>
      <trkpt lat="48.3769" lon="-4.7607">
        <ele>30.1</ele>
        <time>2020-06-08T19:41:23Z</time>
      </trkpt>
      <trkpt lat="48.37695" lon="-4.7607">
        <ele>30.1</ele>
        <time>2020-06-08T19:41:24Z</time>
      </trkpt>
      <trkpt lat="48.37699" lon="-4.76072">
        <ele>30.1</ele>
        <time>2020-06-08T19:41:25Z</time>
      </trkpt>
      <trkpt lat="48.37704" lon="-4.76073">
        <ele>30.1</ele>
        <time>2020-06-08T19:41:26Z</time>
      </trkpt>
      <trkpt lat="48.37709" lon="-4.76073">
        <ele>30.1</ele>
        <time>2020-06-08T19:41:27Z</time>
      </trkpt>
      <trkpt lat="48.37714" lon="-4.76072">
        <ele>30.2</ele>
        <time>2020-06-08T19:41:28Z</time>
      </trkpt>
      <trkpt lat="48.37719" lon="-4.76072">
        <ele>30.2</ele>
        <time>2020-06-08T19:41:29Z</time>
      </trkpt>
      <trkpt lat="48.37724" lon="-4.76072">
        <ele>30.2</ele>
        <time>2020-06-08T19:41:30Z</time>
      </trkpt>
      <trkpt lat="48.37729" lon="-4.76072">
        <ele>30.2</ele>
        <time>2020-06-08T19:41:31Z</time>
      </trkpt>
      <trkpt lat="48.37734" lon="-4.7607">
        <ele>30.2</ele>
        <time>2020-06-08T19:41:32Z</time>
      </trkpt>
      <trkpt lat="48.37738" lon="-4.76068">
        <ele>30.2</ele>
        <time>2020-06-08T19:41:33Z</time>
      </trkpt>
      <trkpt lat="48.37743" lon="-4.76064">
        <ele>30.2</ele>
        <time>2020-06-08T19:41:34Z</time>
      </trkpt>
      <trkpt lat="48.37748" lon="-4.76062">
        <ele>30.2</ele>
        <time>2020-06-08T19:41:35Z</time>
      </trkpt>
      <trkpt lat="48.37753" lon="-4.76059">
        <ele>30.2</ele>
        <time>2020-06-08T19:41:36Z</time>
      </trkpt>
      <trkpt lat="48.37757" lon="-4.76056">
        <ele>30.1</ele>
        <time>2020-06-08T19:41:37Z</time>
      </trkpt>
      <trkpt lat="48.37762" lon="-4.76054">
        <ele>30.1</ele>
        <time>2020-06-08T19:41:38Z</time>
      </trkpt>
      <trkpt lat="48.37767" lon="-4.76051">
        <ele>30.1</ele>
        <time>2020-06-08T19:41:39Z</time>
      </trkpt>
      <trkpt lat="48.37772" lon="-4.76048">
        <ele>30.1</ele>
        <time>2020-06-08T19:41:40Z</time>
      </trkpt>
      <trkpt lat="48.37777" lon="-4.76045">
        <ele>30.1</ele>
        <time>2020-06-08T19:41:41Z</time>
      </trkpt>
      <trkpt lat="48.37782" lon="-4.76042">
        <ele>30.1</ele>
        <time>2020-06-08T19:41:42Z</time>
      </trkpt>
      <trkpt lat="48.37787" lon="-4.76039">
        <ele>30</ele>
        <time>2020-06-08T19:41:43Z</time>
      </trkpt>
      <trkpt lat="48.37792" lon="-4.76037">
        <ele>30</ele>
        <time>2020-06-08T19:41:44Z</time>
      </trkpt>
      <trkpt lat="48.37797" lon="-4.76035">
        <ele>30.1</ele>
        <time>2020-06-08T19:41:45Z</time>
      </trkpt>
      <trkpt lat="48.37802" lon="-4.76032">
        <ele>30.1</ele>
        <time>2020-06-08T19:41:46Z</time>
      </trkpt>
      <trkpt lat="48.37807" lon="-4.76028">
        <ele>30.1</ele>
        <time>2020-06-08T19:41:47Z</time>
      </trkpt>
      <trkpt lat="48.37813" lon="-4.76026">
        <ele>29.8</ele>
        <time>2020-06-08T19:41:48Z</time>
      </trkpt>
      <trkpt lat="48.37819" lon="-4.76023">
        <ele>29.7</ele>
        <time>2020-06-08T19:41:49Z</time>
      </trkpt>
      <trkpt lat="48.37824" lon="-4.76019">
        <ele>29.6</ele>
        <time>2020-06-08T19:41:50Z</time>
      </trkpt>
      <trkpt lat="48.37829" lon="-4.76015">
        <ele>29.5</ele>
        <time>2020-06-08T19:41:51Z</time>
      </trkpt>
      <trkpt lat="48.37834" lon="-4.76012">
        <ele>29.4</ele>
        <time>2020-06-08T19:41:52Z</time>
      </trkpt>
      <trkpt lat="48.3784" lon="-4.76008">
        <ele>29.2</ele>
        <time>2020-06-08T19:41:53Z</time>
      </trkpt>
      <trkpt lat="48.37847" lon="-4.76005">
        <ele>29.1</ele>
        <time>2020-06-08T19:41:54Z</time>
      </trkpt>
      <trkpt lat="48.37853" lon="-4.76002">
        <ele>29</ele>
        <time>2020-06-08T19:41:55Z</time>
      </trkpt>
      <trkpt lat="48.37859" lon="-4.75999">
        <ele>29</ele>
        <time>2020-06-08T19:41:56Z</time>
      </trkpt>
      <trkpt lat="48.37865" lon="-4.75994">
        <ele>28.9</ele>
        <time>2020-06-08T19:41:57Z</time>
      </trkpt>
      <trkpt lat="48.3787" lon="-4.7599">
        <ele>28.9</ele>
        <time>2020-06-08T19:41:58Z</time>
      </trkpt>
      <trkpt lat="48.37875" lon="-4.75986">
        <ele>28.9</ele>
        <time>2020-06-08T19:41:59Z</time>
      </trkpt>
      <trkpt lat="48.37881" lon="-4.75984">
        <ele>28.9</ele>
        <time>2020-06-08T19:42:00Z</time>
      </trkpt>
      <trkpt lat="48.37886" lon="-4.7598">
        <ele>28.8</ele>
        <time>2020-06-08T19:42:01Z</time>
      </trkpt>
      <trkpt lat="48.37891" lon="-4.75977">
        <ele>28.8</ele>
        <time>2020-06-08T19:42:02Z</time>
      </trkpt>
      <trkpt lat="48.37896" lon="-4.75975">
        <ele>28.8</ele>
        <time>2020-06-08T19:42:03Z</time>
      </trkpt>
      <trkpt lat="48.37901" lon="-4.75974">
        <ele>28.8</ele>
        <time>2020-06-08T19:42:04Z</time>
      </trkpt>
      <trkpt lat="48.37907" lon="-4.75973">
        <ele>28.7</ele>
        <time>2020-06-08T19:42:05Z</time>
      </trkpt>
      <trkpt lat="48.37913" lon="-4.75973">
        <ele>28.7</ele>
        <time>2020-06-08T19:42:06Z</time>
      </trkpt>
      <trkpt lat="48.37918" lon="-4.75973">
        <ele>28.6</ele>
        <time>2020-06-08T19:42:07Z</time>
      </trkpt>
      <trkpt lat="48.37924" lon="-4.75975">
        <ele>28.5</ele>
        <time>2020-06-08T19:42:08Z</time>
      </trkpt>
      <trkpt lat="48.3793" lon="-4.75976">
        <ele>28.4</ele>
        <time>2020-06-08T19:42:09Z</time>
      </trkpt>
      <trkpt lat="48.37936" lon="-4.75976">
        <ele>28.2</ele>
        <time>2020-06-08T19:42:10Z</time>
      </trkpt>
      <trkpt lat="48.37942" lon="-4.75977">
        <ele>28.1</ele>
        <time>2020-06-08T19:42:11Z</time>
      </trkpt>
      <trkpt lat="48.37948" lon="-4.75978">
        <ele>28.1</ele>
        <time>2020-06-08T19:42:12Z</time>
      </trkpt>
      <trkpt lat="48.37955" lon="-4.75977">
        <ele>28</ele>
        <time>2020-06-08T19:42:13Z</time>
      </trkpt>
      <trkpt lat="48.37961" lon="-4.75977">
        <ele>28</ele>
        <time>2020-06-08T19:42:14Z</time>
      </trkpt>
      <trkpt lat="48.37967" lon="-4.75979">
        <ele>28.1</ele>
        <time>2020-06-08T19:42:15Z</time>
      </trkpt>
      <trkpt lat="48.37973" lon="-4.75981">
        <ele>28.2</ele>
        <time>2020-06-08T19:42:16Z</time>
      </trkpt>
      <trkpt lat="48.37979" lon="-4.75981">
        <ele>28.4</ele>
        <time>2020-06-08T19:42:17Z</time>
      </trkpt>
      <trkpt lat="48.37984" lon="-4.75982">
        <ele>28.5</ele>
        <time>2020-06-08T19:42:18Z</time>
      </trkpt>
      <trkpt lat="48.3799" lon="-4.75983">
        <ele>28.7</ele>
        <time>2020-06-08T19:42:19Z</time>
      </trkpt>
      <trkpt lat="48.37995" lon="-4.75982">
        <ele>28.9</ele>
        <time>2020-06-08T19:42:20Z</time>
      </trkpt>
      <trkpt lat="48.38" lon="-4.75983">
        <ele>29.1</ele>
        <time>2020-06-08T19:42:21Z</time>
      </trkpt>
      <trkpt lat="48.38005" lon="-4.75985">
        <ele>29.3</ele>
        <time>2020-06-08T19:42:22Z</time>
      </trkpt>
      <trkpt lat="48.38009" lon="-4.75986">
        <ele>29.5</ele>
        <time>2020-06-08T19:42:23Z</time>
      </trkpt>
      <trkpt lat="48.38013" lon="-4.75988">
        <ele>29.7</ele>
        <time>2020-06-08T19:42:24Z</time>
      </trkpt>
      <trkpt lat="48.38017" lon="-4.7599">
        <ele>29.8</ele>
        <time>2020-06-08T19:42:25Z</time>
      </trkpt>
      <trkpt lat="48.3802" lon="-4.75992">
        <ele>29.9</ele>
        <time>2020-06-08T19:42:26Z</time>
      </trkpt>
      <trkpt lat="48.38023" lon="-4.75996">
        <ele>30.1</ele>
        <time>2020-06-08T19:42:27Z</time>
      </trkpt>
      <trkpt lat="48.38027" lon="-4.75998">
        <ele>30.2</ele>
        <time>2020-06-08T19:42:28Z</time>
      </trkpt>
      <trkpt lat="48.3803" lon="-4.76">
        <ele>30.3</ele>
        <time>2020-06-08T19:42:29Z</time>
      </trkpt>
      <trkpt lat="48.38034" lon="-4.76002">
        <ele>30.5</ele>
        <time>2020-06-08T19:42:30Z</time>
      </trkpt>
      <trkpt lat="48.38038" lon="-4.76005">
        <ele>30.6</ele>
        <time>2020-06-08T19:42:31Z</time>
      </trkpt>
      <trkpt lat="48.38041" lon="-4.76007">
        <ele>30.7</ele>
        <time>2020-06-08T19:42:32Z</time>
      </trkpt>
      <trkpt lat="48.38045" lon="-4.7601">
        <ele>30.8</ele>
        <time>2020-06-08T19:42:33Z</time>
      </trkpt>
      <trkpt lat="48.38048" lon="-4.76013">
        <ele>30.9</ele>
        <time>2020-06-08T19:42:34Z</time>
      </trkpt>
      <trkpt lat="48.38051" lon="-4.76018">
        <ele>30.9</ele>
        <time>2020-06-08T19:42:35Z</time>
      </trkpt>
      <trkpt lat="48.38054" lon="-4.76022">
        <ele>31</ele>
        <time>2020-06-08T19:42:36Z</time>
      </trkpt>
      <trkpt lat="48.38057" lon="-4.76026">
        <ele>31</ele>
        <time>2020-06-08T19:42:37Z</time>
      </trkpt>
      <trkpt lat="48.38061" lon="-4.76029">
        <ele>31</ele>
        <time>2020-06-08T19:42:38Z</time>
      </trkpt>
      <trkpt lat="48.38064" lon="-4.76033">
        <ele>31</ele>
        <time>2020-06-08T19:42:39Z</time>
      </trkpt>
      <trkpt lat="48.38067" lon="-4.76038">
        <ele>31</ele>
        <time>2020-06-08T19:42:40Z</time>
      </trkpt>
      <trkpt lat="48.3807" lon="-4.76041">
        <ele>30.9</ele>
        <time>2020-06-08T19:42:41Z</time>
      </trkpt>
      <trkpt lat="48.38073" lon="-4.76044">
        <ele>30.8</ele>
        <time>2020-06-08T19:42:42Z</time>
      </trkpt>
      <trkpt lat="48.38076" lon="-4.76047">
        <ele>30.8</ele>
        <time>2020-06-08T19:42:43Z</time>
      </trkpt>
      <trkpt lat="48.38079" lon="-4.76051">
        <ele>30.7</ele>
        <time>2020-06-08T19:42:44Z</time>
      </trkpt>
      <trkpt lat="48.38082" lon="-4.76053">
        <ele>30.7</ele>
        <time>2020-06-08T19:42:45Z</time>
      </trkpt>
      <trkpt lat="48.38085" lon="-4.76058">
        <ele>30.6</ele>
        <time>2020-06-08T19:42:46Z</time>
      </trkpt>
      <trkpt lat="48.38089" lon="-4.76062">
        <ele>30.4</ele>
        <time>2020-06-08T19:42:47Z</time>
      </trkpt>
      <trkpt lat="48.38093" lon="-4.76066">
        <ele>30.2</ele>
        <time>2020-06-08T19:42:48Z</time>
      </trkpt>
      <trkpt lat="48.38098" lon="-4.7607">
        <ele>29.9</ele>
        <time>2020-06-08T19:42:49Z</time>
      </trkpt>
      <trkpt lat="48.38103" lon="-4.76075">
        <ele>29.3</ele>
        <time>2020-06-08T19:42:50Z</time>
      </trkpt>
      <trkpt lat="48.38108" lon="-4.76083">
        <ele>28.4</ele>
        <time>2020-06-08T19:42:51Z</time>
      </trkpt>
      <trkpt lat="48.38112" lon="-4.76092">
        <ele>27.5</ele>
        <time>2020-06-08T19:42:52Z</time>
      </trkpt>
      <trkpt lat="48.38117" lon="-4.76102">
        <ele>26.4</ele>
        <time>2020-06-08T19:42:53Z</time>
      </trkpt>
      <trkpt lat="48.38121" lon="-4.76113">
        <ele>25.3</ele>
        <time>2020-06-08T19:42:54Z</time>
      </trkpt>
      <trkpt lat="48.3812" lon="-4.76128">
        <ele>24</ele>
        <time>2020-06-08T19:42:55Z</time>
      </trkpt>
      <trkpt lat="48.38123" lon="-4.76139">
        <ele>22.9</ele>
        <time>2020-06-08T19:42:56Z</time>
      </trkpt>
      <trkpt lat="48.38126" lon="-4.76151">
        <ele>21.7</ele>
        <time>2020-06-08T19:42:57Z</time>
      </trkpt>
      <trkpt lat="48.38129" lon="-4.76162">
        <ele>20.6</ele>
        <time>2020-06-08T19:42:58Z</time>
      </trkpt>
      <trkpt lat="48.38132" lon="-4.76172">
        <ele>19.6</ele>
        <time>2020-06-08T19:42:59Z</time>
      </trkpt>
      <trkpt lat="48.38134" lon="-4.76182">
        <ele>18.6</ele>
        <time>2020-06-08T19:43:00Z</time>
      </trkpt>
      <trkpt lat="48.38137" lon="-4.76191">
        <ele>17.7</ele>
        <time>2020-06-08T19:43:01Z</time>
      </trkpt>
      <trkpt lat="48.38139" lon="-4.762">
        <ele>16.9</ele>
        <time>2020-06-08T19:43:02Z</time>
      </trkpt>
      <trkpt lat="48.38142" lon="-4.76209">
        <ele>16.1</ele>
        <time>2020-06-08T19:43:03Z</time>
      </trkpt>
      <trkpt lat="48.38144" lon="-4.76217">
        <ele>15.2</ele>
        <time>2020-06-08T19:43:04Z</time>
      </trkpt>
      <trkpt lat="48.38146" lon="-4.76225">
        <ele>14.5</ele>
        <time>2020-06-08T19:43:05Z</time>
      </trkpt>
      <trkpt lat="48.38149" lon="-4.76233">
        <ele>13.7</ele>
        <time>2020-06-08T19:43:06Z</time>
      </trkpt>
      <trkpt lat="48.3815" lon="-4.76241">
        <ele>12.9</ele>
        <time>2020-06-08T19:43:07Z</time>
      </trkpt>
      <trkpt lat="48.38152" lon="-4.76248">
        <ele>12.3</ele>
        <time>2020-06-08T19:43:08Z</time>
      </trkpt>
      <trkpt lat="48.38153" lon="-4.76253">
        <ele>11.8</ele>
        <time>2020-06-08T19:43:09Z</time>
      </trkpt>
      <trkpt lat="48.38155" lon="-4.76257">
        <ele>11.4</ele>
        <time>2020-06-08T19:43:10Z</time>
      </trkpt>
      <trkpt lat="48.38157" lon="-4.76259">
        <ele>11</ele>
        <time>2020-06-08T19:43:11Z</time>
      </trkpt>
      <trkpt lat="48.38161" lon="-4.76258">
        <ele>10.5</ele>
        <time>2020-06-08T19:43:12Z</time>
      </trkpt>
      <trkpt lat="48.38165" lon="-4.76253">
        <ele>10</ele>
        <time>2020-06-08T19:43:13Z</time>
      </trkpt>
      <trkpt lat="48.3817" lon="-4.76247">
        <ele>9.5</ele>
        <time>2020-06-08T19:43:14Z</time>
      </trkpt>
      <trkpt lat="48.38176" lon="-4.7624">
        <ele>9.1</ele>
        <time>2020-06-08T19:43:15Z</time>
      </trkpt>
      <trkpt lat="48.3818" lon="-4.76231">
        <ele>8.7</ele>
        <time>2020-06-08T19:43:16Z</time>
      </trkpt>
      <trkpt lat="48.38185" lon="-4.76223">
        <ele>8.4</ele>
        <time>2020-06-08T19:43:17Z</time>
      </trkpt>
      <trkpt lat="48.38191" lon="-4.76216">
        <ele>8.1</ele>
        <time>2020-06-08T19:43:18Z</time>
      </trkpt>
      <trkpt lat="48.38196" lon="-4.76209">
        <ele>7.8</ele>
        <time>2020-06-08T19:43:19Z</time>
      </trkpt>
      <trkpt lat="48.38201" lon="-4.76204">
        <ele>7.6</ele>
        <time>2020-06-08T19:43:20Z</time>
      </trkpt>
      <trkpt lat="48.38206" lon="-4.76199">
        <ele>7.4</ele>
        <time>2020-06-08T19:43:21Z</time>
      </trkpt>
      <trkpt lat="48.3821" lon="-4.76196">
        <ele>7.3</ele>
        <time>2020-06-08T19:43:22Z</time>
      </trkpt>
      <trkpt lat="48.38215" lon="-4.76193">
        <ele>7.3</ele>
        <time>2020-06-08T19:43:23Z</time>
      </trkpt>
      <trkpt lat="48.38219" lon="-4.76191">
        <ele>7.3</ele>
        <time>2020-06-08T19:43:24Z</time>
      </trkpt>
      <trkpt lat="48.38223" lon="-4.76189">
        <ele>7.3</ele>
        <time>2020-06-08T19:43:25Z</time>
      </trkpt>
      <trkpt lat="48.38227" lon="-4.76186">
        <ele>7.4</ele>
        <time>2020-06-08T19:43:26Z</time>
      </trkpt>
      <trkpt lat="48.3823" lon="-4.76184">
        <ele>7.4</ele>
        <time>2020-06-08T19:43:27Z</time>
      </trkpt>
      <trkpt lat="48.38233" lon="-4.76183">
        <ele>7.4</ele>
        <time>2020-06-08T19:43:28Z</time>
      </trkpt>
      <trkpt lat="48.38237" lon="-4.76183">
        <ele>7.5</ele>
        <time>2020-06-08T19:43:29Z</time>
      </trkpt>
      <trkpt lat="48.3824" lon="-4.76181">
        <ele>7.5</ele>
        <time>2020-06-08T19:43:30Z</time>
      </trkpt>
      <trkpt lat="48.38243" lon="-4.76179">
        <ele>7.7</ele>
        <time>2020-06-08T19:43:31Z</time>
      </trkpt>
      <trkpt lat="48.38246" lon="-4.76178">
        <ele>7.9</ele>
        <time>2020-06-08T19:43:32Z</time>
      </trkpt>
      <trkpt lat="48.38249" lon="-4.76178">
        <ele>8</ele>
        <time>2020-06-08T19:43:33Z</time>
      </trkpt>
      <trkpt lat="48.38252" lon="-4.76178">
        <ele>8.2</ele>
        <time>2020-06-08T19:43:34Z</time>
      </trkpt>
      <trkpt lat="48.38255" lon="-4.76178">
        <ele>8.3</ele>
        <time>2020-06-08T19:43:35Z</time>
      </trkpt>
      <trkpt lat="48.38258" lon="-4.76177">
        <ele>8.5</ele>
        <time>2020-06-08T19:43:36Z</time>
      </trkpt>
      <trkpt lat="48.38261" lon="-4.76176">
        <ele>8.6</ele>
        <time>2020-06-08T19:43:37Z</time>
      </trkpt>
      <trkpt lat="48.38263" lon="-4.76175">
        <ele>8.8</ele>
        <time>2020-06-08T19:43:38Z</time>
      </trkpt>
      <trkpt lat="48.38266" lon="-4.76172">
        <ele>8.9</ele>
        <time>2020-06-08T19:43:39Z</time>
      </trkpt>
      <trkpt lat="48.3827" lon="-4.76171">
        <ele>9.1</ele>
        <time>2020-06-08T19:43:40Z</time>
      </trkpt>
      <trkpt lat="48.38271" lon="-4.7617">
        <ele>9.2</ele>
        <time>2020-06-08T19:43:41Z</time>
      </trkpt>
      <trkpt lat="48.38274" lon="-4.76168">
        <ele>9.4</ele>
        <time>2020-06-08T19:43:42Z</time>
      </trkpt>
      <trkpt lat="48.38277" lon="-4.76168">
        <ele>9.5</ele>
        <time>2020-06-08T19:43:43Z</time>
      </trkpt>
      <trkpt lat="48.38279" lon="-4.76167">
        <ele>9.7</ele>
        <time>2020-06-08T19:43:44Z</time>
      </trkpt>
      <trkpt lat="48.38282" lon="-4.76166">
        <ele>9.8</ele>
        <time>2020-06-08T19:43:45Z</time>
      </trkpt>
      <trkpt lat="48.38285" lon="-4.76166">
        <ele>10</ele>
        <time>2020-06-08T19:43:46Z</time>
      </trkpt>
      <trkpt lat="48.38288" lon="-4.76163">
        <ele>10.2</ele>
        <time>2020-06-08T19:43:47Z</time>
      </trkpt>
      <trkpt lat="48.38288" lon="-4.76162">
        <ele>10.2</ele>
        <time>2020-06-08T19:43:48Z</time>
      </trkpt>
      <trkpt lat="48.38292" lon="-4.76163">
        <ele>10.3</ele>
        <time>2020-06-08T19:43:49Z</time>
      </trkpt>
      <trkpt lat="48.38293" lon="-4.76164">
        <ele>10.4</ele>
        <time>2020-06-08T19:43:50Z</time>
      </trkpt>
      <trkpt lat="48.38296" lon="-4.76161">
        <ele>10.5</ele>
        <time>2020-06-08T19:43:51Z</time>
      </trkpt>
      <trkpt lat="48.38297" lon="-4.76161">
        <ele>10.6</ele>
        <time>2020-06-08T19:43:52Z</time>
      </trkpt>
      <trkpt lat="48.38301" lon="-4.76163">
        <ele>10.7</ele>
        <time>2020-06-08T19:43:53Z</time>
      </trkpt>
      <trkpt lat="48.38302" lon="-4.76163">
        <ele>10.8</ele>
        <time>2020-06-08T19:43:54Z</time>
      </trkpt>
      <trkpt lat="48.38304" lon="-4.76163">
        <ele>11.1</ele>
        <time>2020-06-08T19:43:55Z</time>
      </trkpt>
      <trkpt lat="48.38305" lon="-4.76165">
        <ele>11.2</ele>
        <time>2020-06-08T19:43:56Z</time>
      </trkpt>
      <trkpt lat="48.38308" lon="-4.76166">
        <ele>11.4</ele>
        <time>2020-06-08T19:43:57Z</time>
      </trkpt>
      <trkpt lat="48.38309" lon="-4.76167">
        <ele>11.4</ele>
        <time>2020-06-08T19:43:58Z</time>
      </trkpt>
      <trkpt lat="48.38311" lon="-4.7617">
        <ele>11.6</ele>
        <time>2020-06-08T19:43:59Z</time>
      </trkpt>
      <trkpt lat="48.38312" lon="-4.76171">
        <ele>11.6</ele>
        <time>2020-06-08T19:44:00Z</time>
      </trkpt>
      <trkpt lat="48.38314" lon="-4.76173">
        <ele>11.8</ele>
        <time>2020-06-08T19:44:01Z</time>
      </trkpt>
      <trkpt lat="48.38315" lon="-4.76174">
        <ele>11.8</ele>
        <time>2020-06-08T19:44:02Z</time>
      </trkpt>
      <trkpt lat="48.38317" lon="-4.76177">
        <ele>12</ele>
        <time>2020-06-08T19:44:03Z</time>
      </trkpt>
      <trkpt lat="48.38318" lon="-4.76178">
        <ele>12</ele>
        <time>2020-06-08T19:44:04Z</time>
      </trkpt>
      <trkpt lat="48.3832" lon="-4.76182">
        <ele>12.2</ele>
        <time>2020-06-08T19:44:05Z</time>
      </trkpt>
      <trkpt lat="48.3832" lon="-4.76184">
        <ele>12.3</ele>
        <time>2020-06-08T19:44:06Z</time>
      </trkpt>
      <trkpt lat="48.38322" lon="-4.76188">
        <ele>12.4</ele>
        <time>2020-06-08T19:44:07Z</time>
      </trkpt>
      <trkpt lat="48.38323" lon="-4.76189">
        <ele>12.5</ele>
        <time>2020-06-08T19:44:08Z</time>
      </trkpt>
      <trkpt lat="48.38326" lon="-4.76191">
        <ele>12.6</ele>
        <time>2020-06-08T19:44:09Z</time>
      </trkpt>
      <trkpt lat="48.38326" lon="-4.76192">
        <ele>12.7</ele>
        <time>2020-06-08T19:44:10Z</time>
      </trkpt>
      <trkpt lat="48.38329" lon="-4.76193">
        <ele>12.9</ele>
        <time>2020-06-08T19:44:11Z</time>
      </trkpt>
      <trkpt lat="48.3833" lon="-4.76194">
        <ele>12.9</ele>
        <time>2020-06-08T19:44:12Z</time>
      </trkpt>
      <trkpt lat="48.38332" lon="-4.76194">
        <ele>13.2</ele>
        <time>2020-06-08T19:44:13Z</time>
      </trkpt>
      <trkpt lat="48.38333" lon="-4.76197">
        <ele>13.3</ele>
        <time>2020-06-08T19:44:14Z</time>
      </trkpt>
      <trkpt lat="48.38333" lon="-4.762">
        <ele>13.5</ele>
        <time>2020-06-08T19:44:15Z</time>
      </trkpt>
      <trkpt lat="48.38335" lon="-4.76201">
        <ele>13.7</ele>
        <time>2020-06-08T19:44:16Z</time>
      </trkpt>
      <trkpt lat="48.38336" lon="-4.76203">
        <ele>13.9</ele>
        <time>2020-06-08T19:44:17Z</time>
      </trkpt>
      <trkpt lat="48.38337" lon="-4.76204">
        <ele>14.1</ele>
        <time>2020-06-08T19:44:18Z</time>
      </trkpt>
      <trkpt lat="48.38339" lon="-4.76205">
        <ele>14.2</ele>
        <time>2020-06-08T19:44:19Z</time>
      </trkpt>
      <trkpt lat="48.3834" lon="-4.76206">
        <ele>14.4</ele>
        <time>2020-06-08T19:44:20Z</time>
      </trkpt>
      <trkpt lat="48.38342" lon="-4.76207">
        <ele>14.6</ele>
        <time>2020-06-08T19:44:21Z</time>
      </trkpt>
      <trkpt lat="48.38343" lon="-4.76209">
        <ele>14.8</ele>
        <time>2020-06-08T19:44:22Z</time>
      </trkpt>
      <trkpt lat="48.38345" lon="-4.76211">
        <ele>15</ele>
        <time>2020-06-08T19:44:23Z</time>
      </trkpt>
      <trkpt lat="48.38345" lon="-4.76213">
        <ele>15.2</ele>
        <time>2020-06-08T19:44:24Z</time>
      </trkpt>
      <trkpt lat="48.38346" lon="-4.76214">
        <ele>15.4</ele>
        <time>2020-06-08T19:44:25Z</time>
      </trkpt>
      <trkpt lat="48.38347" lon="-4.76216">
        <ele>15.6</ele>
        <time>2020-06-08T19:44:26Z</time>
      </trkpt>
      <trkpt lat="48.38348" lon="-4.76218">
        <ele>15.8</ele>
        <time>2020-06-08T19:44:27Z</time>
      </trkpt>
      <trkpt lat="48.38349" lon="-4.76219">
        <ele>16</ele>
        <time>2020-06-08T19:44:28Z</time>
      </trkpt>
      <trkpt lat="48.3835" lon="-4.7622">
        <ele>16.2</ele>
        <time>2020-06-08T19:44:29Z</time>
      </trkpt>
      <trkpt lat="48.38351" lon="-4.76222">
        <ele>16.4</ele>
        <time>2020-06-08T19:44:30Z</time>
      </trkpt>
      <trkpt lat="48.38352" lon="-4.76221">
        <ele>16.6</ele>
        <time>2020-06-08T19:44:31Z</time>
      </trkpt>
      <trkpt lat="48.38354" lon="-4.76221">
        <ele>16.8</ele>
        <time>2020-06-08T19:44:32Z</time>
      </trkpt>
      <trkpt lat="48.38356" lon="-4.76221">
        <ele>17.1</ele>
        <time>2020-06-08T19:44:33Z</time>
      </trkpt>
      <trkpt lat="48.38357" lon="-4.76222">
        <ele>17.3</ele>
        <time>2020-06-08T19:44:34Z</time>
      </trkpt>
      <trkpt lat="48.38358" lon="-4.76224">
        <ele>17.5</ele>
        <time>2020-06-08T19:44:35Z</time>
      </trkpt>
      <trkpt lat="48.38359" lon="-4.76225">
        <ele>17.7</ele>
        <time>2020-06-08T19:44:36Z</time>
      </trkpt>
      <trkpt lat="48.3836" lon="-4.76225">
        <ele>17.9</ele>
        <time>2020-06-08T19:44:37Z</time>
      </trkpt>
      <trkpt lat="48.38361" lon="-4.76226">
        <ele>18.1</ele>
        <time>2020-06-08T19:44:38Z</time>
      </trkpt>
      <trkpt lat="48.38363" lon="-4.76227">
        <ele>18.4</ele>
        <time>2020-06-08T19:44:39Z</time>
      </trkpt>
      <trkpt lat="48.38364" lon="-4.76228">
        <ele>18.7</ele>
        <time>2020-06-08T19:44:40Z</time>
      </trkpt>
      <trkpt lat="48.38366" lon="-4.76228">
        <ele>18.9</ele>
        <time>2020-06-08T19:44:41Z</time>
      </trkpt>
      <trkpt lat="48.38367" lon="-4.76229">
        <ele>19.1</ele>
        <time>2020-06-08T19:44:42Z</time>
      </trkpt>
      <trkpt lat="48.38368" lon="-4.7623">
        <ele>19.4</ele>
        <time>2020-06-08T19:44:43Z</time>
      </trkpt>
      <trkpt lat="48.3837" lon="-4.7623">
        <ele>19.6</ele>
        <time>2020-06-08T19:44:44Z</time>
      </trkpt>
      <trkpt lat="48.38371" lon="-4.76228">
        <ele>19.8</ele>
        <time>2020-06-08T19:44:45Z</time>
      </trkpt>
      <trkpt lat="48.38373" lon="-4.76228">
        <ele>20.1</ele>
        <time>2020-06-08T19:44:46Z</time>
      </trkpt>
      <trkpt lat="48.38374" lon="-4.76227">
        <ele>20.3</ele>
        <time>2020-06-08T19:44:47Z</time>
      </trkpt>
      <trkpt lat="48.38375" lon="-4.76227">
        <ele>20.5</ele>
        <time>2020-06-08T19:44:48Z</time>
      </trkpt>
      <trkpt lat="48.38376" lon="-4.76227">
        <ele>20.6</ele>
        <time>2020-06-08T19:44:49Z</time>
      </trkpt>
      <trkpt lat="48.38377" lon="-4.76228">
        <ele>20.9</ele>
        <time>2020-06-08T19:44:50Z</time>
      </trkpt>
      <trkpt lat="48.38379" lon="-4.7623">
        <ele>21.4</ele>
        <time>2020-06-08T19:44:51Z</time>
      </trkpt>
      <trkpt lat="48.3838" lon="-4.7623">
        <ele>21.5</ele>
        <time>2020-06-08T19:44:52Z</time>
      </trkpt>
      <trkpt lat="48.38382" lon="-4.76229">
        <ele>21.9</ele>
        <time>2020-06-08T19:44:53Z</time>
      </trkpt>
      <trkpt lat="48.38383" lon="-4.76228">
        <ele>22.1</ele>
        <time>2020-06-08T19:44:54Z</time>
      </trkpt>
      <trkpt lat="48.38384" lon="-4.76227">
        <ele>22.3</ele>
        <time>2020-06-08T19:44:55Z</time>
      </trkpt>
      <trkpt lat="48.38386" lon="-4.76224">
        <ele>22.8</ele>
        <time>2020-06-08T19:44:56Z</time>
      </trkpt>
      <trkpt lat="48.38387" lon="-4.76223">
        <ele>23</ele>
        <time>2020-06-08T19:44:57Z</time>
      </trkpt>
      <trkpt lat="48.38388" lon="-4.76222">
        <ele>23.3</ele>
        <time>2020-06-08T19:44:58Z</time>
      </trkpt>
      <trkpt lat="48.3839" lon="-4.76223">
        <ele>23.6</ele>
        <time>2020-06-08T19:44:59Z</time>
      </trkpt>
      <trkpt lat="48.38391" lon="-4.76223">
        <ele>23.8</ele>
        <time>2020-06-08T19:45:00Z</time>
      </trkpt>
      <trkpt lat="48.38392" lon="-4.76224">
        <ele>24</ele>
        <time>2020-06-08T19:45:01Z</time>
      </trkpt>
      <trkpt lat="48.38393" lon="-4.76223">
        <ele>24.3</ele>
        <time>2020-06-08T19:45:02Z</time>
      </trkpt>
      <trkpt lat="48.38395" lon="-4.76222">
        <ele>24.6</ele>
        <time>2020-06-08T19:45:03Z</time>
      </trkpt>
      <trkpt lat="48.38396" lon="-4.76222">
        <ele>24.8</ele>
        <time>2020-06-08T19:45:04Z</time>
      </trkpt>
      <trkpt lat="48.38397" lon="-4.76222">
        <ele>24.9</ele>
        <time>2020-06-08T19:45:05Z</time>
      </trkpt>
      <trkpt lat="48.38398" lon="-4.76221">
        <ele>25.2</ele>
        <time>2020-06-08T19:45:06Z</time>
      </trkpt>
      <trkpt lat="48.38399" lon="-4.76221">
        <ele>25.4</ele>
        <time>2020-06-08T19:45:07Z</time>
      </trkpt>
      <trkpt lat="48.384" lon="-4.76221">
        <ele>25.6</ele>
        <time>2020-06-08T19:45:08Z</time>
      </trkpt>
      <trkpt lat="48.38402" lon="-4.76219">
        <ele>26</ele>
        <time>2020-06-08T19:45:09Z</time>
      </trkpt>
      <trkpt lat="48.38403" lon="-4.76218">
        <ele>26.1</ele>
        <time>2020-06-08T19:45:10Z</time>
      </trkpt>
      <trkpt lat="48.38403" lon="-4.76218">
        <ele>26.3</ele>
        <time>2020-06-08T19:45:11Z</time>
      </trkpt>
      <trkpt lat="48.38405" lon="-4.76218">
        <ele>26.5</ele>
        <time>2020-06-08T19:45:12Z</time>
      </trkpt>
      <trkpt lat="48.38406" lon="-4.76216">
        <ele>26.8</ele>
        <time>2020-06-08T19:45:13Z</time>
      </trkpt>
      <trkpt lat="48.38407" lon="-4.76215">
        <ele>27</ele>
        <time>2020-06-08T19:45:14Z</time>
      </trkpt>
      <trkpt lat="48.38408" lon="-4.76215">
        <ele>27.2</ele>
        <time>2020-06-08T19:45:15Z</time>
      </trkpt>
      <trkpt lat="48.38409" lon="-4.76214">
        <ele>27.3</ele>
        <time>2020-06-08T19:45:16Z</time>
      </trkpt>
      <trkpt lat="48.38411" lon="-4.76214">
        <ele>27.6</ele>
        <time>2020-06-08T19:45:17Z</time>
      </trkpt>
      <trkpt lat="48.38412" lon="-4.76214">
        <ele>27.9</ele>
        <time>2020-06-08T19:45:18Z</time>
      </trkpt>
      <trkpt lat="48.38414" lon="-4.76213">
        <ele>28.2</ele>
        <time>2020-06-08T19:45:19Z</time>
      </trkpt>
      <trkpt lat="48.38415" lon="-4.76212">
        <ele>28.4</ele>
        <time>2020-06-08T19:45:20Z</time>
      </trkpt>
      <trkpt lat="48.38418" lon="-4.76211">
        <ele>28.7</ele>
        <time>2020-06-08T19:45:21Z</time>
      </trkpt>
      <trkpt lat="48.38418" lon="-4.76211">
        <ele>28.8</ele>
        <time>2020-06-08T19:45:22Z</time>
      </trkpt>
      <trkpt lat="48.38419" lon="-4.76212">
        <ele>29</ele>
        <time>2020-06-08T19:45:23Z</time>
      </trkpt>
      <trkpt lat="48.38421" lon="-4.76213">
        <ele>29.3</ele>
        <time>2020-06-08T19:45:24Z</time>
      </trkpt>
      <trkpt lat="48.38423" lon="-4.76214">
        <ele>29.6</ele>
        <time>2020-06-08T19:45:25Z</time>
      </trkpt>
      <trkpt lat="48.38424" lon="-4.76214">
        <ele>29.8</ele>
        <time>2020-06-08T19:45:26Z</time>
      </trkpt>
      <trkpt lat="48.38427" lon="-4.76213">
        <ele>30.2</ele>
        <time>2020-06-08T19:45:27Z</time>
      </trkpt>
      <trkpt lat="48.38428" lon="-4.76213">
        <ele>30.3</ele>
        <time>2020-06-08T19:45:28Z</time>
      </trkpt>
      <trkpt lat="48.38429" lon="-4.76211">
        <ele>30.6</ele>
        <time>2020-06-08T19:45:29Z</time>
      </trkpt>
      <trkpt lat="48.38431" lon="-4.7621">
        <ele>30.8</ele>
        <time>2020-06-08T19:45:30Z</time>
      </trkpt>
      <trkpt lat="48.38431" lon="-4.76209">
        <ele>30.9</ele>
        <time>2020-06-08T19:45:31Z</time>
      </trkpt>
      <trkpt lat="48.38432" lon="-4.76209">
        <ele>31</ele>
        <time>2020-06-08T19:45:32Z</time>
      </trkpt>
      <trkpt lat="48.38433" lon="-4.76209">
        <ele>31.2</ele>
        <time>2020-06-08T19:45:33Z</time>
      </trkpt>
      <trkpt lat="48.38435" lon="-4.76209">
        <ele>31.4</ele>
        <time>2020-06-08T19:45:34Z</time>
      </trkpt>
      <trkpt lat="48.38436" lon="-4.76209">
        <ele>31.6</ele>
        <time>2020-06-08T19:45:35Z</time>
      </trkpt>
      <trkpt lat="48.38439" lon="-4.7621">
        <ele>31.9</ele>
        <time>2020-06-08T19:45:36Z</time>
      </trkpt>
      <trkpt lat="48.3844" lon="-4.7621">
        <ele>32</ele>
        <time>2020-06-08T19:45:37Z</time>
      </trkpt>
      <trkpt lat="48.3844" lon="-4.76209">
        <ele>32.1</ele>
        <time>2020-06-08T19:45:38Z</time>
      </trkpt>
      <trkpt lat="48.38443" lon="-4.76209">
        <ele>32.6</ele>
        <time>2020-06-08T19:45:39Z</time>
      </trkpt>
      <trkpt lat="48.38444" lon="-4.76209">
        <ele>32.7</ele>
        <time>2020-06-08T19:45:40Z</time>
      </trkpt>
      <trkpt lat="48.38447" lon="-4.7621">
        <ele>33</ele>
        <time>2020-06-08T19:45:41Z</time>
      </trkpt>
      <trkpt lat="48.38448" lon="-4.76211">
        <ele>33.1</ele>
        <time>2020-06-08T19:45:42Z</time>
      </trkpt>
      <trkpt lat="48.38449" lon="-4.76211">
        <ele>33.3</ele>
        <time>2020-06-08T19:45:43Z</time>
      </trkpt>
      <trkpt lat="48.3845" lon="-4.76212">
        <ele>33.4</ele>
        <time>2020-06-08T19:45:44Z</time>
      </trkpt>
      <trkpt lat="48.38452" lon="-4.76212">
        <ele>33.7</ele>
        <time>2020-06-08T19:45:45Z</time>
      </trkpt>
      <trkpt lat="48.38453" lon="-4.7621">
        <ele>33.9</ele>
        <time>2020-06-08T19:45:46Z</time>
      </trkpt>
      <trkpt lat="48.38454" lon="-4.76209">
        <ele>34</ele>
        <time>2020-06-08T19:45:47Z</time>
      </trkpt>
      <trkpt lat="48.38456" lon="-4.76209">
        <ele>34.2</ele>
        <time>2020-06-08T19:45:48Z</time>
      </trkpt>
      <trkpt lat="48.38457" lon="-4.76208">
        <ele>34.3</ele>
        <time>2020-06-08T19:45:49Z</time>
      </trkpt>
      <trkpt lat="48.38458" lon="-4.76207">
        <ele>34.5</ele>
        <time>2020-06-08T19:45:50Z</time>
      </trkpt>
      <trkpt lat="48.38459" lon="-4.76207">
        <ele>34.7</ele>
        <time>2020-06-08T19:45:51Z</time>
      </trkpt>
      <trkpt lat="48.38461" lon="-4.76207">
        <ele>34.8</ele>
        <time>2020-06-08T19:45:52Z</time>
      </trkpt>
      <trkpt lat="48.38462" lon="-4.76207">
        <ele>34.9</ele>
        <time>2020-06-08T19:45:53Z</time>
      </trkpt>
      <trkpt lat="48.38464" lon="-4.76207">
        <ele>35.1</ele>
        <time>2020-06-08T19:45:54Z</time>
      </trkpt>
      <trkpt lat="48.38465" lon="-4.76207">
        <ele>35.3</ele>
        <time>2020-06-08T19:45:55Z</time>
      </trkpt>
      <trkpt lat="48.38466" lon="-4.76208">
        <ele>35.4</ele>
        <time>2020-06-08T19:45:56Z</time>
      </trkpt>
      <trkpt lat="48.38467" lon="-4.76208">
        <ele>35.5</ele>
        <time>2020-06-08T19:45:57Z</time>
      </trkpt>
      <trkpt lat="48.38469" lon="-4.76207">
        <ele>35.6</ele>
        <time>2020-06-08T19:45:58Z</time>
      </trkpt>
      <trkpt lat="48.3847" lon="-4.76207">
        <ele>35.8</ele>
        <time>2020-06-08T19:45:59Z</time>
      </trkpt>
      <trkpt lat="48.38472" lon="-4.76206">
        <ele>36</ele>
        <time>2020-06-08T19:46:00Z</time>
      </trkpt>
      <trkpt lat="48.38473" lon="-4.76205">
        <ele>36.1</ele>
        <time>2020-06-08T19:46:01Z</time>
      </trkpt>
      <trkpt lat="48.38474" lon="-4.76205">
        <ele>36.2</ele>
        <time>2020-06-08T19:46:02Z</time>
      </trkpt>
      <trkpt lat="48.38476" lon="-4.76204">
        <ele>36.3</ele>
        <time>2020-06-08T19:46:03Z</time>
      </trkpt>
      <trkpt lat="48.38477" lon="-4.76204">
        <ele>36.4</ele>
        <time>2020-06-08T19:46:04Z</time>
      </trkpt>
      <trkpt lat="48.38479" lon="-4.76204">
        <ele>36.5</ele>
        <time>2020-06-08T19:46:05Z</time>
      </trkpt>
      <trkpt lat="48.3848" lon="-4.76204">
        <ele>36.6</ele>
        <time>2020-06-08T19:46:06Z</time>
      </trkpt>
      <trkpt lat="48.38481" lon="-4.76205">
        <ele>36.7</ele>
        <time>2020-06-08T19:46:07Z</time>
      </trkpt>
      <trkpt lat="48.38482" lon="-4.76205">
        <ele>36.8</ele>
        <time>2020-06-08T19:46:08Z</time>
      </trkpt>
      <trkpt lat="48.38484" lon="-4.76205">
        <ele>37</ele>
        <time>2020-06-08T19:46:09Z</time>
      </trkpt>
      <trkpt lat="48.38486" lon="-4.76205">
        <ele>37.1</ele>
        <time>2020-06-08T19:46:10Z</time>
      </trkpt>
      <trkpt lat="48.38487" lon="-4.76205">
        <ele>37.1</ele>
        <time>2020-06-08T19:46:11Z</time>
      </trkpt>
      <trkpt lat="48.38489" lon="-4.76204">
        <ele>37.2</ele>
        <time>2020-06-08T19:46:12Z</time>
      </trkpt>
      <trkpt lat="48.3849" lon="-4.76204">
        <ele>37.3</ele>
        <time>2020-06-08T19:46:13Z</time>
      </trkpt>
      <trkpt lat="48.38491" lon="-4.76204">
        <ele>37.4</ele>
        <time>2020-06-08T19:46:14Z</time>
      </trkpt>
      <trkpt lat="48.38493" lon="-4.76204">
        <ele>37.5</ele>
        <time>2020-06-08T19:46:15Z</time>
      </trkpt>
      <trkpt lat="48.38494" lon="-4.76204">
        <ele>37.5</ele>
        <time>2020-06-08T19:46:16Z</time>
      </trkpt>
      <trkpt lat="48.38495" lon="-4.76205">
        <ele>37.6</ele>
        <time>2020-06-08T19:46:17Z</time>
      </trkpt>
      <trkpt lat="48.38497" lon="-4.76206">
        <ele>37.7</ele>
        <time>2020-06-08T19:46:18Z</time>
      </trkpt>
      <trkpt lat="48.38499" lon="-4.76206">
        <ele>37.7</ele>
        <time>2020-06-08T19:46:19Z</time>
      </trkpt>
      <trkpt lat="48.385" lon="-4.76205">
        <ele>37.8</ele>
        <time>2020-06-08T19:46:20Z</time>
      </trkpt>
      <trkpt lat="48.38501" lon="-4.76206">
        <ele>37.8</ele>
        <time>2020-06-08T19:46:21Z</time>
      </trkpt>
      <trkpt lat="48.38503" lon="-4.76206">
        <ele>37.9</ele>
        <time>2020-06-08T19:46:22Z</time>
      </trkpt>
      <trkpt lat="48.38504" lon="-4.76205">
        <ele>37.9</ele>
        <time>2020-06-08T19:46:23Z</time>
      </trkpt>
      <trkpt lat="48.38505" lon="-4.76205">
        <ele>38</ele>
        <time>2020-06-08T19:46:24Z</time>
      </trkpt>
      <trkpt lat="48.38506" lon="-4.76204">
        <ele>38</ele>
        <time>2020-06-08T19:46:25Z</time>
      </trkpt>
      <trkpt lat="48.38507" lon="-4.76204">
        <ele>38</ele>
        <time>2020-06-08T19:46:26Z</time>
      </trkpt>
      <trkpt lat="48.38508" lon="-4.76204">
        <ele>38</ele>
        <time>2020-06-08T19:46:27Z</time>
      </trkpt>
      <trkpt lat="48.38509" lon="-4.76204">
        <ele>38</ele>
        <time>2020-06-08T19:46:28Z</time>
      </trkpt>
      <trkpt lat="48.3851" lon="-4.76204">
        <ele>38.1</ele>
        <time>2020-06-08T19:46:29Z</time>
      </trkpt>
      <trkpt lat="48.3851" lon="-4.76204">
        <ele>38.1</ele>
        <time>2020-06-08T19:46:30Z</time>
      </trkpt>
      <trkpt lat="48.38509" lon="-4.76204">
        <ele>38.1</ele>
        <time>2020-06-08T19:46:31Z</time>
      </trkpt>
      <trkpt lat="48.38509" lon="-4.76204">
        <ele>38.1</ele>
        <time>2020-06-08T19:46:32Z</time>
      </trkpt>
      <trkpt lat="48.38509" lon="-4.76204">
        <ele>38.1</ele>
        <time>2020-06-08T19:46:33Z</time>
      </trkpt>
      <trkpt lat="48.38509" lon="-4.76204">
        <ele>38.1</ele>
        <time>2020-06-08T19:46:34Z</time>
      </trkpt>
      <trkpt lat="48.38509" lon="-4.76204">
        <ele>38.1</ele>
        <time>2020-06-08T19:46:35Z</time>
      </trkpt>
      <trkpt lat="48.3851" lon="-4.76204">
        <ele>38.1</ele>
        <time>2020-06-08T19:46:36Z</time>
      </trkpt>
      <trkpt lat="48.3851" lon="-4.76204">
        <ele>38.1</ele>
        <time>2020-06-08T19:46:37Z</time>
      </trkpt>
      <trkpt lat="48.3851" lon="-4.76204">
        <ele>38.1</ele>
        <time>2020-06-08T19:46:38Z</time>
      </trkpt>
      <trkpt lat="48.3851" lon="-4.76204">
        <ele>38.1</ele>
        <time>2020-06-08T19:46:39Z</time>
      </trkpt>
      <trkpt lat="48.38514" lon="-4.76203">
        <ele>38.1</ele>
        <time>2020-06-08T19:48:41Z</time>
      </trkpt>
      <trkpt lat="48.38516" lon="-4.76202">
        <ele>38.1</ele>
        <time>2020-06-08T19:48:42Z</time>
      </trkpt>
      <trkpt lat="48.38519" lon="-4.76201">
        <ele>38.2</ele>
        <time>2020-06-08T19:48:43Z</time>
      </trkpt>
      <trkpt lat="48.3852" lon="-4.76201">
        <ele>38.2</ele>
        <time>2020-06-08T19:48:44Z</time>
      </trkpt>
      <trkpt lat="48.38524" lon="-4.76199">
        <ele>38.3</ele>
        <time>2020-06-08T19:48:45Z</time>
      </trkpt>
      <trkpt lat="48.38525" lon="-4.76199">
        <ele>38.3</ele>
        <time>2020-06-08T19:48:46Z</time>
      </trkpt>
      <trkpt lat="48.38528" lon="-4.76198">
        <ele>38.4</ele>
        <time>2020-06-08T19:48:47Z</time>
      </trkpt>
      <trkpt lat="48.38529" lon="-4.76198">
        <ele>38.4</ele>
        <time>2020-06-08T19:48:48Z</time>
      </trkpt>
      <trkpt lat="48.38533" lon="-4.76197">
        <ele>38.4</ele>
        <time>2020-06-08T19:48:49Z</time>
      </trkpt>
      <trkpt lat="48.38534" lon="-4.76197">
        <ele>38.4</ele>
        <time>2020-06-08T19:48:50Z</time>
      </trkpt>
      <trkpt lat="48.38538" lon="-4.76196">
        <ele>38.5</ele>
        <time>2020-06-08T19:48:51Z</time>
      </trkpt>
      <trkpt lat="48.38541" lon="-4.76196">
        <ele>38.5</ele>
        <time>2020-06-08T19:48:52Z</time>
      </trkpt>
      <trkpt lat="48.38544" lon="-4.76195">
        <ele>38.5</ele>
        <time>2020-06-08T19:48:53Z</time>
      </trkpt>
      <trkpt lat="48.38548" lon="-4.76194">
        <ele>38.6</ele>
        <time>2020-06-08T19:48:54Z</time>
      </trkpt>
      <trkpt lat="48.3855" lon="-4.76194">
        <ele>38.6</ele>
        <time>2020-06-08T19:48:55Z</time>
      </trkpt>
      <trkpt lat="48.38553" lon="-4.76194">
        <ele>38.6</ele>
        <time>2020-06-08T19:48:56Z</time>
      </trkpt>
      <trkpt lat="48.38556" lon="-4.76192">
        <ele>38.6</ele>
        <time>2020-06-08T19:48:57Z</time>
      </trkpt>
      <trkpt lat="48.3856" lon="-4.76192">
        <ele>38.6</ele>
        <time>2020-06-08T19:48:58Z</time>
      </trkpt>
      <trkpt lat="48.38561" lon="-4.76192">
        <ele>38.6</ele>
        <time>2020-06-08T19:48:59Z</time>
      </trkpt>
      <trkpt lat="48.38565" lon="-4.76192">
        <ele>38.6</ele>
        <time>2020-06-08T19:49:00Z</time>
      </trkpt>
      <trkpt lat="48.38567" lon="-4.76191">
        <ele>38.6</ele>
        <time>2020-06-08T19:49:01Z</time>
      </trkpt>
      <trkpt lat="48.3857" lon="-4.76193">
        <ele>38.6</ele>
        <time>2020-06-08T19:49:02Z</time>
      </trkpt>
      <trkpt lat="48.38573" lon="-4.76193">
        <ele>38.6</ele>
        <time>2020-06-08T19:49:03Z</time>
      </trkpt>
      <trkpt lat="48.38577" lon="-4.76193">
        <ele>38.6</ele>
        <time>2020-06-08T19:49:04Z</time>
      </trkpt>
      <trkpt lat="48.3858" lon="-4.76192">
        <ele>38.6</ele>
        <time>2020-06-08T19:49:05Z</time>
      </trkpt>
      <trkpt lat="48.38583" lon="-4.76192">
        <ele>38.6</ele>
        <time>2020-06-08T19:49:06Z</time>
      </trkpt>
      <trkpt lat="48.38586" lon="-4.76193">
        <ele>38.7</ele>
        <time>2020-06-08T19:49:07Z</time>
      </trkpt>
      <trkpt lat="48.38589" lon="-4.76192">
        <ele>38.7</ele>
        <time>2020-06-08T19:49:08Z</time>
      </trkpt>
      <trkpt lat="48.38593" lon="-4.76191">
        <ele>38.7</ele>
        <time>2020-06-08T19:49:09Z</time>
      </trkpt>
      <trkpt lat="48.38597" lon="-4.76191">
        <ele>38.7</ele>
        <time>2020-06-08T19:49:10Z</time>
      </trkpt>
      <trkpt lat="48.38601" lon="-4.7619">
        <ele>38.7</ele>
        <time>2020-06-08T19:49:11Z</time>
      </trkpt>
      <trkpt lat="48.38605" lon="-4.7619">
        <ele>38.7</ele>
        <time>2020-06-08T19:49:12Z</time>
      </trkpt>
      <trkpt lat="48.3861" lon="-4.76188">
        <ele>38.7</ele>
        <time>2020-06-08T19:49:13Z</time>
      </trkpt>
      <trkpt lat="48.38614" lon="-4.76187">
        <ele>38.7</ele>
        <time>2020-06-08T19:49:14Z</time>
      </trkpt>
      <trkpt lat="48.38617" lon="-4.76187">
        <ele>38.7</ele>
        <time>2020-06-08T19:49:15Z</time>
      </trkpt>
      <trkpt lat="48.38621" lon="-4.76186">
        <ele>38.7</ele>
        <time>2020-06-08T19:49:16Z</time>
      </trkpt>
      <trkpt lat="48.38625" lon="-4.76187">
        <ele>38.7</ele>
        <time>2020-06-08T19:49:17Z</time>
      </trkpt>
      <trkpt lat="48.38629" lon="-4.76185">
        <ele>38.8</ele>
        <time>2020-06-08T19:49:18Z</time>
      </trkpt>
      <trkpt lat="48.38633" lon="-4.76185">
        <ele>38.8</ele>
        <time>2020-06-08T19:49:19Z</time>
      </trkpt>
      <trkpt lat="48.38638" lon="-4.76186">
        <ele>38.8</ele>
        <time>2020-06-08T19:49:20Z</time>
      </trkpt>
      <trkpt lat="48.38642" lon="-4.76187">
        <ele>38.8</ele>
        <time>2020-06-08T19:49:21Z</time>
      </trkpt>
      <trkpt lat="48.38646" lon="-4.76188">
        <ele>38.9</ele>
        <time>2020-06-08T19:49:22Z</time>
      </trkpt>
      <trkpt lat="48.3865" lon="-4.76188">
        <ele>38.9</ele>
        <time>2020-06-08T19:49:23Z</time>
      </trkpt>
      <trkpt lat="48.38655" lon="-4.76188">
        <ele>39</ele>
        <time>2020-06-08T19:49:24Z</time>
      </trkpt>
      <trkpt lat="48.3866" lon="-4.7619">
        <ele>39</ele>
        <time>2020-06-08T19:49:25Z</time>
      </trkpt>
      <trkpt lat="48.38664" lon="-4.7619">
        <ele>39</ele>
        <time>2020-06-08T19:49:26Z</time>
      </trkpt>
      <trkpt lat="48.38667" lon="-4.76189">
        <ele>39</ele>
        <time>2020-06-08T19:49:27Z</time>
      </trkpt>
      <trkpt lat="48.3867" lon="-4.76189">
        <ele>39</ele>
        <time>2020-06-08T19:49:28Z</time>
      </trkpt>
      <trkpt lat="48.38675" lon="-4.7619">
        <ele>39</ele>
        <time>2020-06-08T19:49:29Z</time>
      </trkpt>
      <trkpt lat="48.38676" lon="-4.7619">
        <ele>39</ele>
        <time>2020-06-08T19:49:30Z</time>
      </trkpt>
      <trkpt lat="48.3868" lon="-4.76191">
        <ele>39</ele>
        <time>2020-06-08T19:49:31Z</time>
      </trkpt>
      <trkpt lat="48.38681" lon="-4.76191">
        <ele>39</ele>
        <time>2020-06-08T19:49:32Z</time>
      </trkpt>
      <trkpt lat="48.38684" lon="-4.76192">
        <ele>39.1</ele>
        <time>2020-06-08T19:49:33Z</time>
      </trkpt>
      <trkpt lat="48.38687" lon="-4.76191">
        <ele>39.1</ele>
        <time>2020-06-08T19:49:34Z</time>
      </trkpt>
      <trkpt lat="48.38691" lon="-4.76191">
        <ele>39.1</ele>
        <time>2020-06-08T19:49:35Z</time>
      </trkpt>
      <trkpt lat="48.38694" lon="-4.76192">
        <ele>39.1</ele>
        <time>2020-06-08T19:49:36Z</time>
      </trkpt>
      <trkpt lat="48.38698" lon="-4.76192">
        <ele>39.1</ele>
        <time>2020-06-08T19:49:37Z</time>
      </trkpt>
      <trkpt lat="48.38702" lon="-4.76193">
        <ele>39.1</ele>
        <time>2020-06-08T19:49:38Z</time>
      </trkpt>
      <trkpt lat="48.38706" lon="-4.76193">
        <ele>39</ele>
        <time>2020-06-08T19:49:39Z</time>
      </trkpt>
      <trkpt lat="48.3871" lon="-4.76194">
        <ele>39</ele>
        <time>2020-06-08T19:49:40Z</time>
      </trkpt>
      <trkpt lat="48.38714" lon="-4.76194">
        <ele>39</ele>
        <time>2020-06-08T19:49:41Z</time>
      </trkpt>
      <trkpt lat="48.38718" lon="-4.76193">
        <ele>39</ele>
        <time>2020-06-08T19:49:42Z</time>
      </trkpt>
      <trkpt lat="48.38722" lon="-4.76194">
        <ele>38.9</ele>
        <time>2020-06-08T19:49:43Z</time>
      </trkpt>
      <trkpt lat="48.38726" lon="-4.76195">
        <ele>38.9</ele>
        <time>2020-06-08T19:49:44Z</time>
      </trkpt>
      <trkpt lat="48.3873" lon="-4.76195">
        <ele>38.8</ele>
        <time>2020-06-08T19:49:45Z</time>
      </trkpt>
      <trkpt lat="48.38734" lon="-4.76195">
        <ele>38.8</ele>
        <time>2020-06-08T19:49:46Z</time>
      </trkpt>
      <trkpt lat="48.38738" lon="-4.76195">
        <ele>38.8</ele>
        <time>2020-06-08T19:49:47Z</time>
      </trkpt>
      <trkpt lat="48.38743" lon="-4.76195">
        <ele>38.7</ele>
        <time>2020-06-08T19:49:48Z</time>
      </trkpt>
      <trkpt lat="48.38747" lon="-4.76195">
        <ele>38.7</ele>
        <time>2020-06-08T19:49:49Z</time>
      </trkpt>
      <trkpt lat="48.38751" lon="-4.76196">
        <ele>38.7</ele>
        <time>2020-06-08T19:49:50Z</time>
      </trkpt>
      <trkpt lat="48.38756" lon="-4.76197">
        <ele>38.6</ele>
        <time>2020-06-08T19:49:51Z</time>
      </trkpt>
      <trkpt lat="48.38761" lon="-4.76197">
        <ele>38.6</ele>
        <time>2020-06-08T19:49:52Z</time>
      </trkpt>
      <trkpt lat="48.38766" lon="-4.76197">
        <ele>38.6</ele>
        <time>2020-06-08T19:49:53Z</time>
      </trkpt>
      <trkpt lat="48.38771" lon="-4.76198">
        <ele>38.5</ele>
        <time>2020-06-08T19:49:54Z</time>
      </trkpt>
      <trkpt lat="48.38777" lon="-4.76198">
        <ele>38.5</ele>
        <time>2020-06-08T19:49:55Z</time>
      </trkpt>
      <trkpt lat="48.38783" lon="-4.76199">
        <ele>38.4</ele>
        <time>2020-06-08T19:49:56Z</time>
      </trkpt>
      <trkpt lat="48.38788" lon="-4.76197">
        <ele>38.3</ele>
        <time>2020-06-08T19:49:57Z</time>
      </trkpt>
      <trkpt lat="48.38793" lon="-4.76199">
        <ele>38.3</ele>
        <time>2020-06-08T19:49:58Z</time>
      </trkpt>
      <trkpt lat="48.38798" lon="-4.762">
        <ele>38.3</ele>
        <time>2020-06-08T19:49:59Z</time>
      </trkpt>
      <trkpt lat="48.38804" lon="-4.762">
        <ele>38.3</ele>
        <time>2020-06-08T19:50:00Z</time>
      </trkpt>
      <trkpt lat="48.38809" lon="-4.76201">
        <ele>38.3</ele>
        <time>2020-06-08T19:50:01Z</time>
      </trkpt>
      <trkpt lat="48.38814" lon="-4.762">
        <ele>38.3</ele>
        <time>2020-06-08T19:50:02Z</time>
      </trkpt>
      <trkpt lat="48.38819" lon="-4.76201">
        <ele>38.4</ele>
        <time>2020-06-08T19:50:03Z</time>
      </trkpt>
      <trkpt lat="48.38823" lon="-4.76202">
        <ele>38.4</ele>
        <time>2020-06-08T19:50:04Z</time>
      </trkpt>
      <trkpt lat="48.38828" lon="-4.76204">
        <ele>38.5</ele>
        <time>2020-06-08T19:50:05Z</time>
      </trkpt>
      <trkpt lat="48.38834" lon="-4.76205">
        <ele>38.5</ele>
        <time>2020-06-08T19:50:06Z</time>
      </trkpt>
      <trkpt lat="48.3884" lon="-4.76207">
        <ele>38.5</ele>
        <time>2020-06-08T19:50:07Z</time>
      </trkpt>
      <trkpt lat="48.38845" lon="-4.76209">
        <ele>38.6</ele>
        <time>2020-06-08T19:50:08Z</time>
      </trkpt>
      <trkpt lat="48.38849" lon="-4.76212">
        <ele>38.6</ele>
        <time>2020-06-08T19:50:09Z</time>
      </trkpt>
      <trkpt lat="48.38854" lon="-4.76213">
        <ele>38.7</ele>
        <time>2020-06-08T19:50:10Z</time>
      </trkpt>
      <trkpt lat="48.38859" lon="-4.76216">
        <ele>38.8</ele>
        <time>2020-06-08T19:50:11Z</time>
      </trkpt>
      <trkpt lat="48.38864" lon="-4.76217">
        <ele>39</ele>
        <time>2020-06-08T19:50:12Z</time>
      </trkpt>
      <trkpt lat="48.3887" lon="-4.76219">
        <ele>39.1</ele>
        <time>2020-06-08T19:50:13Z</time>
      </trkpt>
      <trkpt lat="48.38874" lon="-4.7622">
        <ele>39.3</ele>
        <time>2020-06-08T19:50:14Z</time>
      </trkpt>
      <trkpt lat="48.38878" lon="-4.76222">
        <ele>39.4</ele>
        <time>2020-06-08T19:50:15Z</time>
      </trkpt>
      <trkpt lat="48.38884" lon="-4.76223">
        <ele>39.6</ele>
        <time>2020-06-08T19:50:16Z</time>
      </trkpt>
      <trkpt lat="48.38889" lon="-4.76226">
        <ele>39.8</ele>
        <time>2020-06-08T19:50:17Z</time>
      </trkpt>
      <trkpt lat="48.38893" lon="-4.76228">
        <ele>39.9</ele>
        <time>2020-06-08T19:50:18Z</time>
      </trkpt>
      <trkpt lat="48.38897" lon="-4.7623">
        <ele>40</ele>
        <time>2020-06-08T19:50:19Z</time>
      </trkpt>
      <trkpt lat="48.38901" lon="-4.76231">
        <ele>40.1</ele>
        <time>2020-06-08T19:50:20Z</time>
      </trkpt>
      <trkpt lat="48.38905" lon="-4.76235">
        <ele>40.3</ele>
        <time>2020-06-08T19:50:21Z</time>
      </trkpt>
      <trkpt lat="48.38909" lon="-4.76234">
        <ele>40.4</ele>
        <time>2020-06-08T19:50:22Z</time>
      </trkpt>
      <trkpt lat="48.38912" lon="-4.76235">
        <ele>40.5</ele>
        <time>2020-06-08T19:50:23Z</time>
      </trkpt>
      <trkpt lat="48.38916" lon="-4.76237">
        <ele>40.6</ele>
        <time>2020-06-08T19:50:24Z</time>
      </trkpt>
      <trkpt lat="48.3892" lon="-4.76238">
        <ele>40.7</ele>
        <time>2020-06-08T19:50:25Z</time>
      </trkpt>
      <trkpt lat="48.38924" lon="-4.76239">
        <ele>40.8</ele>
        <time>2020-06-08T19:50:26Z</time>
      </trkpt>
      <trkpt lat="48.38928" lon="-4.76242">
        <ele>40.9</ele>
        <time>2020-06-08T19:50:27Z</time>
      </trkpt>
      <trkpt lat="48.38932" lon="-4.76243">
        <ele>41</ele>
        <time>2020-06-08T19:50:28Z</time>
      </trkpt>
      <trkpt lat="48.38936" lon="-4.76244">
        <ele>41</ele>
        <time>2020-06-08T19:50:29Z</time>
      </trkpt>
      <trkpt lat="48.38939" lon="-4.76247">
        <ele>41.1</ele>
        <time>2020-06-08T19:50:30Z</time>
      </trkpt>
      <trkpt lat="48.38944" lon="-4.76248">
        <ele>41.2</ele>
        <time>2020-06-08T19:50:31Z</time>
      </trkpt>
      <trkpt lat="48.38947" lon="-4.76248">
        <ele>41.2</ele>
        <time>2020-06-08T19:50:32Z</time>
      </trkpt>
      <trkpt lat="48.38951" lon="-4.76249">
        <ele>41.2</ele>
        <time>2020-06-08T19:50:33Z</time>
      </trkpt>
      <trkpt lat="48.38954" lon="-4.7625">
        <ele>41.2</ele>
        <time>2020-06-08T19:50:34Z</time>
      </trkpt>
      <trkpt lat="48.38958" lon="-4.76251">
        <ele>41.3</ele>
        <time>2020-06-08T19:50:35Z</time>
      </trkpt>
      <trkpt lat="48.38962" lon="-4.7625">
        <ele>41.3</ele>
        <time>2020-06-08T19:50:36Z</time>
      </trkpt>
      <trkpt lat="48.38966" lon="-4.7625">
        <ele>41.4</ele>
        <time>2020-06-08T19:50:37Z</time>
      </trkpt>
      <trkpt lat="48.38971" lon="-4.76251">
        <ele>41.5</ele>
        <time>2020-06-08T19:50:38Z</time>
      </trkpt>
      <trkpt lat="48.38976" lon="-4.7625">
        <ele>41.6</ele>
        <time>2020-06-08T19:50:39Z</time>
      </trkpt>
      <trkpt lat="48.3898" lon="-4.7625">
        <ele>41.7</ele>
        <time>2020-06-08T19:50:40Z</time>
      </trkpt>
      <trkpt lat="48.38984" lon="-4.76251">
        <ele>41.8</ele>
        <time>2020-06-08T19:50:41Z</time>
      </trkpt>
      <trkpt lat="48.38988" lon="-4.76251">
        <ele>41.8</ele>
        <time>2020-06-08T19:50:42Z</time>
      </trkpt>
      <trkpt lat="48.38991" lon="-4.76252">
        <ele>41.9</ele>
        <time>2020-06-08T19:50:43Z</time>
      </trkpt>
      <trkpt lat="48.38995" lon="-4.76252">
        <ele>41.9</ele>
        <time>2020-06-08T19:50:44Z</time>
      </trkpt>
      <trkpt lat="48.38999" lon="-4.76252">
        <ele>42</ele>
        <time>2020-06-08T19:50:45Z</time>
      </trkpt>
      <trkpt lat="48.39004" lon="-4.76252">
        <ele>42.1</ele>
        <time>2020-06-08T19:50:46Z</time>
      </trkpt>
      <trkpt lat="48.39009" lon="-4.76252">
        <ele>42.1</ele>
        <time>2020-06-08T19:50:47Z</time>
      </trkpt>
      <trkpt lat="48.39014" lon="-4.76251">
        <ele>42.2</ele>
        <time>2020-06-08T19:50:48Z</time>
      </trkpt>
      <trkpt lat="48.39018" lon="-4.76251">
        <ele>42.2</ele>
        <time>2020-06-08T19:50:49Z</time>
      </trkpt>
      <trkpt lat="48.39023" lon="-4.7625">
        <ele>42.3</ele>
        <time>2020-06-08T19:50:50Z</time>
      </trkpt>
      <trkpt lat="48.39028" lon="-4.76249">
        <ele>42.3</ele>
        <time>2020-06-08T19:50:51Z</time>
      </trkpt>
      <trkpt lat="48.39031" lon="-4.76247">
        <ele>42.4</ele>
        <time>2020-06-08T19:50:52Z</time>
      </trkpt>
      <trkpt lat="48.39036" lon="-4.76247">
        <ele>42.4</ele>
        <time>2020-06-08T19:50:53Z</time>
      </trkpt>
      <trkpt lat="48.39041" lon="-4.76245">
        <ele>42.5</ele>
        <time>2020-06-08T19:50:54Z</time>
      </trkpt>
      <trkpt lat="48.39045" lon="-4.76244">
        <ele>42.6</ele>
        <time>2020-06-08T19:50:55Z</time>
      </trkpt>
      <trkpt lat="48.39049" lon="-4.76243">
        <ele>42.6</ele>
        <time>2020-06-08T19:50:56Z</time>
      </trkpt>
      <trkpt lat="48.39054" lon="-4.76241">
        <ele>42.7</ele>
        <time>2020-06-08T19:50:57Z</time>
      </trkpt>
      <trkpt lat="48.39058" lon="-4.7624">
        <ele>42.8</ele>
        <time>2020-06-08T19:50:58Z</time>
      </trkpt>
      <trkpt lat="48.39062" lon="-4.76236">
        <ele>42.8</ele>
        <time>2020-06-08T19:50:59Z</time>
      </trkpt>
      <trkpt lat="48.39066" lon="-4.76235">
        <ele>42.9</ele>
        <time>2020-06-08T19:51:00Z</time>
      </trkpt>
      <trkpt lat="48.39071" lon="-4.76232">
        <ele>42.9</ele>
        <time>2020-06-08T19:51:01Z</time>
      </trkpt>
      <trkpt lat="48.39075" lon="-4.7623">
        <ele>43</ele>
        <time>2020-06-08T19:51:02Z</time>
      </trkpt>
      <trkpt lat="48.39079" lon="-4.76229">
        <ele>43</ele>
        <time>2020-06-08T19:51:03Z</time>
      </trkpt>
      <trkpt lat="48.39083" lon="-4.76228">
        <ele>43</ele>
        <time>2020-06-08T19:51:04Z</time>
      </trkpt>
      <trkpt lat="48.39087" lon="-4.76225">
        <ele>43</ele>
        <time>2020-06-08T19:51:05Z</time>
      </trkpt>
      <trkpt lat="48.39092" lon="-4.76224">
        <ele>43.1</ele>
        <time>2020-06-08T19:51:06Z</time>
      </trkpt>
      <trkpt lat="48.39096" lon="-4.76222">
        <ele>43.1</ele>
        <time>2020-06-08T19:51:07Z</time>
      </trkpt>
      <trkpt lat="48.39101" lon="-4.76221">
        <ele>43.1</ele>
        <time>2020-06-08T19:51:08Z</time>
      </trkpt>
      <trkpt lat="48.39105" lon="-4.7622">
        <ele>43.1</ele>
        <time>2020-06-08T19:51:09Z</time>
      </trkpt>
      <trkpt lat="48.3911" lon="-4.76218">
        <ele>43.1</ele>
        <time>2020-06-08T19:51:10Z</time>
      </trkpt>
      <trkpt lat="48.39114" lon="-4.76216">
        <ele>43.1</ele>
        <time>2020-06-08T19:51:11Z</time>
      </trkpt>
      <trkpt lat="48.39118" lon="-4.76213">
        <ele>43.1</ele>
        <time>2020-06-08T19:51:12Z</time>
      </trkpt>
      <trkpt lat="48.39123" lon="-4.76211">
        <ele>43.1</ele>
        <time>2020-06-08T19:51:13Z</time>
      </trkpt>
      <trkpt lat="48.39127" lon="-4.76208">
        <ele>43.1</ele>
        <time>2020-06-08T19:51:14Z</time>
      </trkpt>
      <trkpt lat="48.39132" lon="-4.76206">
        <ele>43.1</ele>
        <time>2020-06-08T19:51:15Z</time>
      </trkpt>
      <trkpt lat="48.39135" lon="-4.76204">
        <ele>43.1</ele>
        <time>2020-06-08T19:51:16Z</time>
      </trkpt>
      <trkpt lat="48.39139" lon="-4.76202">
        <ele>43.1</ele>
        <time>2020-06-08T19:51:17Z</time>
      </trkpt>
      <trkpt lat="48.39144" lon="-4.76201">
        <ele>43.1</ele>
        <time>2020-06-08T19:51:18Z</time>
      </trkpt>
      <trkpt lat="48.39148" lon="-4.762">
        <ele>43.1</ele>
        <time>2020-06-08T19:51:19Z</time>
      </trkpt>
      <trkpt lat="48.39152" lon="-4.76198">
        <ele>43.1</ele>
        <time>2020-06-08T19:51:20Z</time>
      </trkpt>
      <trkpt lat="48.39157" lon="-4.76197">
        <ele>43.1</ele>
        <time>2020-06-08T19:51:21Z</time>
      </trkpt>
      <trkpt lat="48.39162" lon="-4.76195">
        <ele>43.1</ele>
        <time>2020-06-08T19:51:22Z</time>
      </trkpt>
      <trkpt lat="48.39167" lon="-4.76193">
        <ele>43.1</ele>
        <time>2020-06-08T19:51:23Z</time>
      </trkpt>
      <trkpt lat="48.39173" lon="-4.76192">
        <ele>43.1</ele>
        <time>2020-06-08T19:51:24Z</time>
      </trkpt>
      <trkpt lat="48.39177" lon="-4.76191">
        <ele>43.1</ele>
        <time>2020-06-08T19:51:25Z</time>
      </trkpt>
      <trkpt lat="48.39182" lon="-4.76189">
        <ele>43.1</ele>
        <time>2020-06-08T19:51:26Z</time>
      </trkpt>
      <trkpt lat="48.39187" lon="-4.76189">
        <ele>43.1</ele>
        <time>2020-06-08T19:51:27Z</time>
      </trkpt>
      <trkpt lat="48.39192" lon="-4.76188">
        <ele>43.2</ele>
        <time>2020-06-08T19:51:28Z</time>
      </trkpt>
      <trkpt lat="48.39197" lon="-4.76188">
        <ele>43.2</ele>
        <time>2020-06-08T19:51:29Z</time>
      </trkpt>
      <trkpt lat="48.39202" lon="-4.76187">
        <ele>43.3</ele>
        <time>2020-06-08T19:51:30Z</time>
      </trkpt>
      <trkpt lat="48.39207" lon="-4.76187">
        <ele>43.4</ele>
        <time>2020-06-08T19:51:31Z</time>
      </trkpt>
      <trkpt lat="48.39213" lon="-4.76186">
        <ele>43.5</ele>
        <time>2020-06-08T19:51:32Z</time>
      </trkpt>
      <trkpt lat="48.39218" lon="-4.76186">
        <ele>43.6</ele>
        <time>2020-06-08T19:51:33Z</time>
      </trkpt>
      <trkpt lat="48.39222" lon="-4.76187">
        <ele>43.6</ele>
        <time>2020-06-08T19:51:34Z</time>
      </trkpt>
      <trkpt lat="48.39227" lon="-4.76186">
        <ele>43.6</ele>
        <time>2020-06-08T19:51:35Z</time>
      </trkpt>
      <trkpt lat="48.39232" lon="-4.76185">
        <ele>43.6</ele>
        <time>2020-06-08T19:51:36Z</time>
      </trkpt>
      <trkpt lat="48.39236" lon="-4.76182">
        <ele>43.6</ele>
        <time>2020-06-08T19:51:37Z</time>
      </trkpt>
      <trkpt lat="48.3924" lon="-4.76182">
        <ele>43.6</ele>
        <time>2020-06-08T19:51:38Z</time>
      </trkpt>
      <trkpt lat="48.39245" lon="-4.76183">
        <ele>43.6</ele>
        <time>2020-06-08T19:51:39Z</time>
      </trkpt>
      <trkpt lat="48.3925" lon="-4.76183">
        <ele>43.6</ele>
        <time>2020-06-08T19:51:40Z</time>
      </trkpt>
      <trkpt lat="48.39254" lon="-4.76181">
        <ele>43.6</ele>
        <time>2020-06-08T19:51:41Z</time>
      </trkpt>
      <trkpt lat="48.39258" lon="-4.7618">
        <ele>43.6</ele>
        <time>2020-06-08T19:51:42Z</time>
      </trkpt>
      <trkpt lat="48.39262" lon="-4.7618">
        <ele>43.6</ele>
        <time>2020-06-08T19:51:43Z</time>
      </trkpt>
      <trkpt lat="48.39267" lon="-4.76178">
        <ele>43.7</ele>
        <time>2020-06-08T19:51:44Z</time>
      </trkpt>
      <trkpt lat="48.39272" lon="-4.76176">
        <ele>43.7</ele>
        <time>2020-06-08T19:51:45Z</time>
      </trkpt>
      <trkpt lat="48.39277" lon="-4.76173">
        <ele>43.8</ele>
        <time>2020-06-08T19:51:46Z</time>
      </trkpt>
      <trkpt lat="48.39282" lon="-4.76172">
        <ele>43.8</ele>
        <time>2020-06-08T19:51:47Z</time>
      </trkpt>
      <trkpt lat="48.39287" lon="-4.7617">
        <ele>43.9</ele>
        <time>2020-06-08T19:51:48Z</time>
      </trkpt>
      <trkpt lat="48.39291" lon="-4.76169">
        <ele>44</ele>
        <time>2020-06-08T19:51:49Z</time>
      </trkpt>
      <trkpt lat="48.39295" lon="-4.76166">
        <ele>44</ele>
        <time>2020-06-08T19:51:50Z</time>
      </trkpt>
      <trkpt lat="48.39299" lon="-4.76164">
        <ele>44.1</ele>
        <time>2020-06-08T19:51:51Z</time>
      </trkpt>
      <trkpt lat="48.39302" lon="-4.7616">
        <ele>44.1</ele>
        <time>2020-06-08T19:51:52Z</time>
      </trkpt>
      <trkpt lat="48.39306" lon="-4.76158">
        <ele>44.2</ele>
        <time>2020-06-08T19:51:53Z</time>
      </trkpt>
      <trkpt lat="48.3931" lon="-4.76155">
        <ele>44.2</ele>
        <time>2020-06-08T19:51:54Z</time>
      </trkpt>
      <trkpt lat="48.39313" lon="-4.76153">
        <ele>44.3</ele>
        <time>2020-06-08T19:51:55Z</time>
      </trkpt>
      <trkpt lat="48.39317" lon="-4.76152">
        <ele>44.3</ele>
        <time>2020-06-08T19:51:56Z</time>
      </trkpt>
      <trkpt lat="48.3932" lon="-4.76149">
        <ele>44.4</ele>
        <time>2020-06-08T19:51:57Z</time>
      </trkpt>
      <trkpt lat="48.39324" lon="-4.76147">
        <ele>44.4</ele>
        <time>2020-06-08T19:51:58Z</time>
      </trkpt>
      <trkpt lat="48.39328" lon="-4.76145">
        <ele>44.5</ele>
        <time>2020-06-08T19:51:59Z</time>
      </trkpt>
      <trkpt lat="48.39332" lon="-4.76142">
        <ele>44.6</ele>
        <time>2020-06-08T19:52:00Z</time>
      </trkpt>
      <trkpt lat="48.39337" lon="-4.76139">
        <ele>44.7</ele>
        <time>2020-06-08T19:52:01Z</time>
      </trkpt>
      <trkpt lat="48.39341" lon="-4.76136">
        <ele>44.8</ele>
        <time>2020-06-08T19:52:02Z</time>
      </trkpt>
      <trkpt lat="48.39345" lon="-4.76133">
        <ele>44.9</ele>
        <time>2020-06-08T19:52:03Z</time>
      </trkpt>
      <trkpt lat="48.39349" lon="-4.76132">
        <ele>44.9</ele>
        <time>2020-06-08T19:52:04Z</time>
      </trkpt>
      <trkpt lat="48.39353" lon="-4.76131">
        <ele>45</ele>
        <time>2020-06-08T19:52:05Z</time>
      </trkpt>
      <trkpt lat="48.39357" lon="-4.76129">
        <ele>45.1</ele>
        <time>2020-06-08T19:52:06Z</time>
      </trkpt>
      <trkpt lat="48.39361" lon="-4.76126">
        <ele>45.2</ele>
        <time>2020-06-08T19:52:07Z</time>
      </trkpt>
      <trkpt lat="48.39365" lon="-4.76124">
        <ele>45.3</ele>
        <time>2020-06-08T19:52:08Z</time>
      </trkpt>
      <trkpt lat="48.39368" lon="-4.76122">
        <ele>45.4</ele>
        <time>2020-06-08T19:52:09Z</time>
      </trkpt>
      <trkpt lat="48.39372" lon="-4.7612">
        <ele>45.5</ele>
        <time>2020-06-08T19:52:10Z</time>
      </trkpt>
      <trkpt lat="48.39375" lon="-4.76118">
        <ele>45.5</ele>
        <time>2020-06-08T19:52:11Z</time>
      </trkpt>
      <trkpt lat="48.39379" lon="-4.76117">
        <ele>45.6</ele>
        <time>2020-06-08T19:52:12Z</time>
      </trkpt>
      <trkpt lat="48.39382" lon="-4.76114">
        <ele>45.7</ele>
        <time>2020-06-08T19:52:13Z</time>
      </trkpt>
      <trkpt lat="48.39386" lon="-4.76112">
        <ele>45.8</ele>
        <time>2020-06-08T19:52:14Z</time>
      </trkpt>
      <trkpt lat="48.3939" lon="-4.7611">
        <ele>45.9</ele>
        <time>2020-06-08T19:52:15Z</time>
      </trkpt>
      <trkpt lat="48.39394" lon="-4.76108">
        <ele>45.9</ele>
        <time>2020-06-08T19:52:16Z</time>
      </trkpt>
      <trkpt lat="48.39397" lon="-4.76107">
        <ele>46</ele>
        <time>2020-06-08T19:52:17Z</time>
      </trkpt>
      <trkpt lat="48.39401" lon="-4.76105">
        <ele>46.1</ele>
        <time>2020-06-08T19:52:18Z</time>
      </trkpt>
      <trkpt lat="48.39404" lon="-4.76102">
        <ele>46.2</ele>
        <time>2020-06-08T19:52:19Z</time>
      </trkpt>
      <trkpt lat="48.39408" lon="-4.761">
        <ele>46.3</ele>
        <time>2020-06-08T19:52:20Z</time>
      </trkpt>
      <trkpt lat="48.39412" lon="-4.76098">
        <ele>46.4</ele>
        <time>2020-06-08T19:52:21Z</time>
      </trkpt>
      <trkpt lat="48.39415" lon="-4.76096">
        <ele>46.4</ele>
        <time>2020-06-08T19:52:22Z</time>
      </trkpt>
      <trkpt lat="48.39419" lon="-4.76096">
        <ele>46.5</ele>
        <time>2020-06-08T19:52:23Z</time>
      </trkpt>
      <trkpt lat="48.39422" lon="-4.76093">
        <ele>46.6</ele>
        <time>2020-06-08T19:52:24Z</time>
      </trkpt>
      <trkpt lat="48.39426" lon="-4.76092">
        <ele>46.7</ele>
        <time>2020-06-08T19:52:25Z</time>
      </trkpt>
      <trkpt lat="48.39431" lon="-4.76092">
        <ele>46.7</ele>
        <time>2020-06-08T19:52:26Z</time>
      </trkpt>
      <trkpt lat="48.39435" lon="-4.76091">
        <ele>46.8</ele>
        <time>2020-06-08T19:52:27Z</time>
      </trkpt>
      <trkpt lat="48.3944" lon="-4.76087">
        <ele>46.9</ele>
        <time>2020-06-08T19:52:28Z</time>
      </trkpt>
      <trkpt lat="48.39443" lon="-4.76085">
        <ele>47</ele>
        <time>2020-06-08T19:52:29Z</time>
      </trkpt>
      <trkpt lat="48.39447" lon="-4.76084">
        <ele>47.1</ele>
        <time>2020-06-08T19:52:30Z</time>
      </trkpt>
      <trkpt lat="48.39449" lon="-4.76085">
        <ele>47.2</ele>
        <time>2020-06-08T19:52:31Z</time>
      </trkpt>
      <trkpt lat="48.39453" lon="-4.76083">
        <ele>47.2</ele>
        <time>2020-06-08T19:52:32Z</time>
      </trkpt>
      <trkpt lat="48.39457" lon="-4.76082">
        <ele>47.3</ele>
        <time>2020-06-08T19:52:33Z</time>
      </trkpt>
      <trkpt lat="48.39461" lon="-4.76082">
        <ele>47.3</ele>
        <time>2020-06-08T19:52:34Z</time>
      </trkpt>
      <trkpt lat="48.39465" lon="-4.76081">
        <ele>47.4</ele>
        <time>2020-06-08T19:52:35Z</time>
      </trkpt>
      <trkpt lat="48.39469" lon="-4.76081">
        <ele>47.4</ele>
        <time>2020-06-08T19:52:36Z</time>
      </trkpt>
      <trkpt lat="48.39474" lon="-4.76083">
        <ele>47.5</ele>
        <time>2020-06-08T19:52:37Z</time>
      </trkpt>
      <trkpt lat="48.39478" lon="-4.76083">
        <ele>47.6</ele>
        <time>2020-06-08T19:52:38Z</time>
      </trkpt>
      <trkpt lat="48.39482" lon="-4.76084">
        <ele>47.6</ele>
        <time>2020-06-08T19:52:39Z</time>
      </trkpt>
      <trkpt lat="48.39485" lon="-4.76085">
        <ele>47.7</ele>
        <time>2020-06-08T19:52:40Z</time>
      </trkpt>
      <trkpt lat="48.39489" lon="-4.76085">
        <ele>47.7</ele>
        <time>2020-06-08T19:52:41Z</time>
      </trkpt>
      <trkpt lat="48.39493" lon="-4.76086">
        <ele>47.8</ele>
        <time>2020-06-08T19:52:42Z</time>
      </trkpt>
      <trkpt lat="48.39496" lon="-4.76087">
        <ele>47.8</ele>
        <time>2020-06-08T19:52:43Z</time>
      </trkpt>
      <trkpt lat="48.39499" lon="-4.76087">
        <ele>47.9</ele>
        <time>2020-06-08T19:52:44Z</time>
      </trkpt>
      <trkpt lat="48.39502" lon="-4.76087">
        <ele>47.9</ele>
        <time>2020-06-08T19:52:45Z</time>
      </trkpt>
      <trkpt lat="48.39506" lon="-4.76088">
        <ele>48</ele>
        <time>2020-06-08T19:52:46Z</time>
      </trkpt>
      <trkpt lat="48.3951" lon="-4.76088">
        <ele>48.1</ele>
        <time>2020-06-08T19:52:47Z</time>
      </trkpt>
      <trkpt lat="48.39514" lon="-4.76088">
        <ele>48.1</ele>
        <time>2020-06-08T19:52:48Z</time>
      </trkpt>
      <trkpt lat="48.39518" lon="-4.76089">
        <ele>48.2</ele>
        <time>2020-06-08T19:52:49Z</time>
      </trkpt>
      <trkpt lat="48.39522" lon="-4.76091">
        <ele>48.3</ele>
        <time>2020-06-08T19:52:50Z</time>
      </trkpt>
      <trkpt lat="48.39526" lon="-4.76092">
        <ele>48.3</ele>
        <time>2020-06-08T19:52:51Z</time>
      </trkpt>
      <trkpt lat="48.39531" lon="-4.76094">
        <ele>48.4</ele>
        <time>2020-06-08T19:52:52Z</time>
      </trkpt>
      <trkpt lat="48.39534" lon="-4.76096">
        <ele>48.5</ele>
        <time>2020-06-08T19:52:53Z</time>
      </trkpt>
      <trkpt lat="48.39538" lon="-4.76097">
        <ele>48.5</ele>
        <time>2020-06-08T19:52:54Z</time>
      </trkpt>
      <trkpt lat="48.39542" lon="-4.76097">
        <ele>48.6</ele>
        <time>2020-06-08T19:52:55Z</time>
      </trkpt>
      <trkpt lat="48.39546" lon="-4.761">
        <ele>48.6</ele>
        <time>2020-06-08T19:52:56Z</time>
      </trkpt>
      <trkpt lat="48.39549" lon="-4.76101">
        <ele>48.7</ele>
        <time>2020-06-08T19:52:57Z</time>
      </trkpt>
      <trkpt lat="48.39553" lon="-4.76102">
        <ele>48.7</ele>
        <time>2020-06-08T19:52:58Z</time>
      </trkpt>
      <trkpt lat="48.39557" lon="-4.76102">
        <ele>48.8</ele>
        <time>2020-06-08T19:52:59Z</time>
      </trkpt>
      <trkpt lat="48.39561" lon="-4.76103">
        <ele>48.8</ele>
        <time>2020-06-08T19:53:00Z</time>
      </trkpt>
      <trkpt lat="48.39565" lon="-4.76103">
        <ele>48.9</ele>
        <time>2020-06-08T19:53:01Z</time>
      </trkpt>
      <trkpt lat="48.39569" lon="-4.76105">
        <ele>48.9</ele>
        <time>2020-06-08T19:53:02Z</time>
      </trkpt>
      <trkpt lat="48.39573" lon="-4.76105">
        <ele>48.9</ele>
        <time>2020-06-08T19:53:03Z</time>
      </trkpt>
      <trkpt lat="48.39576" lon="-4.76108">
        <ele>49</ele>
        <time>2020-06-08T19:53:04Z</time>
      </trkpt>
      <trkpt lat="48.3958" lon="-4.76109">
        <ele>48.9</ele>
        <time>2020-06-08T19:53:05Z</time>
      </trkpt>
      <trkpt lat="48.39584" lon="-4.7611">
        <ele>48.9</ele>
        <time>2020-06-08T19:53:06Z</time>
      </trkpt>
      <trkpt lat="48.39589" lon="-4.76111">
        <ele>48.9</ele>
        <time>2020-06-08T19:53:07Z</time>
      </trkpt>
      <trkpt lat="48.39593" lon="-4.76111">
        <ele>48.9</ele>
        <time>2020-06-08T19:53:08Z</time>
      </trkpt>
      <trkpt lat="48.39597" lon="-4.76112">
        <ele>48.8</ele>
        <time>2020-06-08T19:53:09Z</time>
      </trkpt>
      <trkpt lat="48.39602" lon="-4.76114">
        <ele>48.8</ele>
        <time>2020-06-08T19:53:10Z</time>
      </trkpt>
      <trkpt lat="48.39606" lon="-4.76115">
        <ele>48.8</ele>
        <time>2020-06-08T19:53:11Z</time>
      </trkpt>
      <trkpt lat="48.39611" lon="-4.76115">
        <ele>48.8</ele>
        <time>2020-06-08T19:53:12Z</time>
      </trkpt>
      <trkpt lat="48.39616" lon="-4.76116">
        <ele>48.7</ele>
        <time>2020-06-08T19:53:13Z</time>
      </trkpt>
      <trkpt lat="48.3962" lon="-4.76118">
        <ele>48.6</ele>
        <time>2020-06-08T19:53:14Z</time>
      </trkpt>
      <trkpt lat="48.39625" lon="-4.7612">
        <ele>48.5</ele>
        <time>2020-06-08T19:53:15Z</time>
      </trkpt>
      <trkpt lat="48.3963" lon="-4.7612">
        <ele>48.4</ele>
        <time>2020-06-08T19:53:16Z</time>
      </trkpt>
      <trkpt lat="48.39636" lon="-4.76121">
        <ele>48.3</ele>
        <time>2020-06-08T19:53:17Z</time>
      </trkpt>
      <trkpt lat="48.39642" lon="-4.76122">
        <ele>48.1</ele>
        <time>2020-06-08T19:53:18Z</time>
      </trkpt>
      <trkpt lat="48.39647" lon="-4.76124">
        <ele>48</ele>
        <time>2020-06-08T19:53:19Z</time>
      </trkpt>
      <trkpt lat="48.39653" lon="-4.76126">
        <ele>47.8</ele>
        <time>2020-06-08T19:53:20Z</time>
      </trkpt>
      <trkpt lat="48.3966" lon="-4.76128">
        <ele>47.7</ele>
        <time>2020-06-08T19:53:21Z</time>
      </trkpt>
      <trkpt lat="48.39665" lon="-4.7613">
        <ele>47.6</ele>
        <time>2020-06-08T19:53:22Z</time>
      </trkpt>
      <trkpt lat="48.3967" lon="-4.76135">
        <ele>47.5</ele>
        <time>2020-06-08T19:53:23Z</time>
      </trkpt>
      <trkpt lat="48.39677" lon="-4.76138">
        <ele>47.3</ele>
        <time>2020-06-08T19:53:24Z</time>
      </trkpt>
      <trkpt lat="48.39681" lon="-4.76143">
        <ele>47</ele>
        <time>2020-06-08T19:53:25Z</time>
      </trkpt>
      <trkpt lat="48.39686" lon="-4.76146">
        <ele>46.9</ele>
        <time>2020-06-08T19:53:26Z</time>
      </trkpt>
      <trkpt lat="48.39691" lon="-4.76152">
        <ele>47</ele>
        <time>2020-06-08T19:53:27Z</time>
      </trkpt>
      <trkpt lat="48.39696" lon="-4.76155">
        <ele>47</ele>
        <time>2020-06-08T19:53:28Z</time>
      </trkpt>
      <trkpt lat="48.39701" lon="-4.76159">
        <ele>47</ele>
        <time>2020-06-08T19:53:29Z</time>
      </trkpt>
      <trkpt lat="48.39706" lon="-4.76162">
        <ele>47</ele>
        <time>2020-06-08T19:53:30Z</time>
      </trkpt>
      <trkpt lat="48.39711" lon="-4.76165">
        <ele>47</ele>
        <time>2020-06-08T19:53:31Z</time>
      </trkpt>
      <trkpt lat="48.39716" lon="-4.7617">
        <ele>47</ele>
        <time>2020-06-08T19:53:32Z</time>
      </trkpt>
      <trkpt lat="48.3972" lon="-4.76173">
        <ele>47</ele>
        <time>2020-06-08T19:53:33Z</time>
      </trkpt>
      <trkpt lat="48.39724" lon="-4.76176">
        <ele>47</ele>
        <time>2020-06-08T19:53:34Z</time>
      </trkpt>
      <trkpt lat="48.39728" lon="-4.76179">
        <ele>47.1</ele>
        <time>2020-06-08T19:53:35Z</time>
      </trkpt>
      <trkpt lat="48.39733" lon="-4.76183">
        <ele>47.1</ele>
        <time>2020-06-08T19:53:36Z</time>
      </trkpt>
      <trkpt lat="48.39737" lon="-4.76185">
        <ele>47.2</ele>
        <time>2020-06-08T19:53:37Z</time>
      </trkpt>
      <trkpt lat="48.39742" lon="-4.76188">
        <ele>47.2</ele>
        <time>2020-06-08T19:53:38Z</time>
      </trkpt>
      <trkpt lat="48.39746" lon="-4.7619">
        <ele>47.3</ele>
        <time>2020-06-08T19:53:39Z</time>
      </trkpt>
      <trkpt lat="48.3975" lon="-4.76194">
        <ele>47.4</ele>
        <time>2020-06-08T19:53:40Z</time>
      </trkpt>
      <trkpt lat="48.39754" lon="-4.76194">
        <ele>47.4</ele>
        <time>2020-06-08T19:53:41Z</time>
      </trkpt>
      <trkpt lat="48.39759" lon="-4.76197">
        <ele>47.5</ele>
        <time>2020-06-08T19:53:42Z</time>
      </trkpt>
      <trkpt lat="48.39763" lon="-4.76199">
        <ele>47.5</ele>
        <time>2020-06-08T19:53:43Z</time>
      </trkpt>
      <trkpt lat="48.39767" lon="-4.76201">
        <ele>47.6</ele>
        <time>2020-06-08T19:53:44Z</time>
      </trkpt>
      <trkpt lat="48.39772" lon="-4.76204">
        <ele>47.7</ele>
        <time>2020-06-08T19:53:45Z</time>
      </trkpt>
      <trkpt lat="48.39777" lon="-4.76206">
        <ele>47.8</ele>
        <time>2020-06-08T19:53:46Z</time>
      </trkpt>
      <trkpt lat="48.39781" lon="-4.76208">
        <ele>47.9</ele>
        <time>2020-06-08T19:53:47Z</time>
      </trkpt>
      <trkpt lat="48.39784" lon="-4.7621">
        <ele>48</ele>
        <time>2020-06-08T19:53:48Z</time>
      </trkpt>
      <trkpt lat="48.39788" lon="-4.76211">
        <ele>48.1</ele>
        <time>2020-06-08T19:53:49Z</time>
      </trkpt>
      <trkpt lat="48.39792" lon="-4.76213">
        <ele>48.2</ele>
        <time>2020-06-08T19:53:50Z</time>
      </trkpt>
      <trkpt lat="48.39795" lon="-4.76215">
        <ele>48.2</ele>
        <time>2020-06-08T19:53:51Z</time>
      </trkpt>
      <trkpt lat="48.39799" lon="-4.76214">
        <ele>48.2</ele>
        <time>2020-06-08T19:53:52Z</time>
      </trkpt>
      <trkpt lat="48.39802" lon="-4.76214">
        <ele>48.3</ele>
        <time>2020-06-08T19:53:53Z</time>
      </trkpt>
      <trkpt lat="48.39805" lon="-4.76216">
        <ele>48.3</ele>
        <time>2020-06-08T19:53:54Z</time>
      </trkpt>
      <trkpt lat="48.39809" lon="-4.76219">
        <ele>48.4</ele>
        <time>2020-06-08T19:53:55Z</time>
      </trkpt>
      <trkpt lat="48.39813" lon="-4.76221">
        <ele>48.5</ele>
        <time>2020-06-08T19:53:56Z</time>
      </trkpt>
      <trkpt lat="48.39816" lon="-4.76223">
        <ele>48.6</ele>
        <time>2020-06-08T19:53:57Z</time>
      </trkpt>
      <trkpt lat="48.3982" lon="-4.76225">
        <ele>48.7</ele>
        <time>2020-06-08T19:53:58Z</time>
      </trkpt>
      <trkpt lat="48.39824" lon="-4.76227">
        <ele>48.8</ele>
        <time>2020-06-08T19:53:59Z</time>
      </trkpt>
      <trkpt lat="48.39827" lon="-4.76227">
        <ele>48.9</ele>
        <time>2020-06-08T19:54:00Z</time>
      </trkpt>
      <trkpt lat="48.39831" lon="-4.76228">
        <ele>49</ele>
        <time>2020-06-08T19:54:01Z</time>
      </trkpt>
      <trkpt lat="48.39834" lon="-4.7623">
        <ele>49.2</ele>
        <time>2020-06-08T19:54:02Z</time>
      </trkpt>
      <trkpt lat="48.39838" lon="-4.7623">
        <ele>49.3</ele>
        <time>2020-06-08T19:54:03Z</time>
      </trkpt>
      <trkpt lat="48.39842" lon="-4.76231">
        <ele>49.5</ele>
        <time>2020-06-08T19:54:04Z</time>
      </trkpt>
      <trkpt lat="48.39846" lon="-4.76232">
        <ele>49.6</ele>
        <time>2020-06-08T19:54:05Z</time>
      </trkpt>
      <trkpt lat="48.39849" lon="-4.76233">
        <ele>49.7</ele>
        <time>2020-06-08T19:54:06Z</time>
      </trkpt>
      <trkpt lat="48.39852" lon="-4.76233">
        <ele>49.9</ele>
        <time>2020-06-08T19:54:07Z</time>
      </trkpt>
      <trkpt lat="48.39856" lon="-4.76233">
        <ele>50</ele>
        <time>2020-06-08T19:54:08Z</time>
      </trkpt>
      <trkpt lat="48.3986" lon="-4.76233">
        <ele>50.1</ele>
        <time>2020-06-08T19:54:09Z</time>
      </trkpt>
      <trkpt lat="48.39864" lon="-4.76233">
        <ele>50.2</ele>
        <time>2020-06-08T19:54:10Z</time>
      </trkpt>
      <trkpt lat="48.39867" lon="-4.76232">
        <ele>50.3</ele>
        <time>2020-06-08T19:54:11Z</time>
      </trkpt>
      <trkpt lat="48.39871" lon="-4.7623">
        <ele>50.4</ele>
        <time>2020-06-08T19:54:12Z</time>
      </trkpt>
      <trkpt lat="48.39875" lon="-4.7623">
        <ele>50.5</ele>
        <time>2020-06-08T19:54:13Z</time>
      </trkpt>
      <trkpt lat="48.39879" lon="-4.76228">
        <ele>50.6</ele>
        <time>2020-06-08T19:54:14Z</time>
      </trkpt>
      <trkpt lat="48.39882" lon="-4.76226">
        <ele>50.6</ele>
        <time>2020-06-08T19:54:15Z</time>
      </trkpt>
      <trkpt lat="48.39885" lon="-4.76224">
        <ele>50.7</ele>
        <time>2020-06-08T19:54:16Z</time>
      </trkpt>
      <trkpt lat="48.39889" lon="-4.76222">
        <ele>50.8</ele>
        <time>2020-06-08T19:54:17Z</time>
      </trkpt>
      <trkpt lat="48.39893" lon="-4.7622">
        <ele>50.9</ele>
        <time>2020-06-08T19:54:18Z</time>
      </trkpt>
      <trkpt lat="48.39897" lon="-4.76217">
        <ele>51</ele>
        <time>2020-06-08T19:54:19Z</time>
      </trkpt>
      <trkpt lat="48.39901" lon="-4.76215">
        <ele>51.1</ele>
        <time>2020-06-08T19:54:20Z</time>
      </trkpt>
      <trkpt lat="48.39906" lon="-4.76212">
        <ele>51.1</ele>
        <time>2020-06-08T19:54:21Z</time>
      </trkpt>
      <trkpt lat="48.3991" lon="-4.76209">
        <ele>51.2</ele>
        <time>2020-06-08T19:54:22Z</time>
      </trkpt>
      <trkpt lat="48.39915" lon="-4.76206">
        <ele>51.3</ele>
        <time>2020-06-08T19:54:23Z</time>
      </trkpt>
      <trkpt lat="48.39919" lon="-4.76204">
        <ele>51.3</ele>
        <time>2020-06-08T19:54:24Z</time>
      </trkpt>
      <trkpt lat="48.39922" lon="-4.76201">
        <ele>51.4</ele>
        <time>2020-06-08T19:54:25Z</time>
      </trkpt>
      <trkpt lat="48.39925" lon="-4.76198">
        <ele>51.4</ele>
        <time>2020-06-08T19:54:26Z</time>
      </trkpt>
      <trkpt lat="48.39928" lon="-4.76195">
        <ele>51.4</ele>
        <time>2020-06-08T19:54:27Z</time>
      </trkpt>
      <trkpt lat="48.39932" lon="-4.76192">
        <ele>51.4</ele>
        <time>2020-06-08T19:54:28Z</time>
      </trkpt>
      <trkpt lat="48.39935" lon="-4.7619">
        <ele>51.5</ele>
        <time>2020-06-08T19:54:29Z</time>
      </trkpt>
      <trkpt lat="48.39939" lon="-4.76187">
        <ele>51.5</ele>
        <time>2020-06-08T19:54:30Z</time>
      </trkpt>
      <trkpt lat="48.39943" lon="-4.76184">
        <ele>51.6</ele>
        <time>2020-06-08T19:54:31Z</time>
      </trkpt>
      <trkpt lat="48.39947" lon="-4.76181">
        <ele>51.6</ele>
        <time>2020-06-08T19:54:32Z</time>
      </trkpt>
      <trkpt lat="48.39951" lon="-4.76178">
        <ele>51.7</ele>
        <time>2020-06-08T19:54:33Z</time>
      </trkpt>
      <trkpt lat="48.39954" lon="-4.76175">
        <ele>51.7</ele>
        <time>2020-06-08T19:54:34Z</time>
      </trkpt>
      <trkpt lat="48.39957" lon="-4.76173">
        <ele>51.8</ele>
        <time>2020-06-08T19:54:35Z</time>
      </trkpt>
      <trkpt lat="48.39962" lon="-4.7617">
        <ele>51.9</ele>
        <time>2020-06-08T19:54:36Z</time>
      </trkpt>
      <trkpt lat="48.39966" lon="-4.76168">
        <ele>52</ele>
        <time>2020-06-08T19:54:37Z</time>
      </trkpt>
      <trkpt lat="48.3997" lon="-4.76164">
        <ele>52</ele>
        <time>2020-06-08T19:54:38Z</time>
      </trkpt>
      <trkpt lat="48.39975" lon="-4.76162">
        <ele>52.1</ele>
        <time>2020-06-08T19:54:39Z</time>
      </trkpt>
      <trkpt lat="48.39979" lon="-4.7616">
        <ele>52.2</ele>
        <time>2020-06-08T19:54:40Z</time>
      </trkpt>
      <trkpt lat="48.39982" lon="-4.76157">
        <ele>52.3</ele>
        <time>2020-06-08T19:54:41Z</time>
      </trkpt>
      <trkpt lat="48.39986" lon="-4.76156">
        <ele>52.4</ele>
        <time>2020-06-08T19:54:42Z</time>
      </trkpt>
      <trkpt lat="48.3999" lon="-4.76154">
        <ele>52.5</ele>
        <time>2020-06-08T19:54:43Z</time>
      </trkpt>
      <trkpt lat="48.39994" lon="-4.76153">
        <ele>52.6</ele>
        <time>2020-06-08T19:54:44Z</time>
      </trkpt>
      <trkpt lat="48.39997" lon="-4.76151">
        <ele>52.6</ele>
        <time>2020-06-08T19:54:45Z</time>
      </trkpt>
      <trkpt lat="48.40001" lon="-4.7615">
        <ele>52.7</ele>
        <time>2020-06-08T19:54:46Z</time>
      </trkpt>
      <trkpt lat="48.40005" lon="-4.7615">
        <ele>52.7</ele>
        <time>2020-06-08T19:54:47Z</time>
      </trkpt>
      <trkpt lat="48.40009" lon="-4.76151">
        <ele>52.8</ele>
        <time>2020-06-08T19:54:48Z</time>
      </trkpt>
      <trkpt lat="48.40013" lon="-4.76149">
        <ele>52.9</ele>
        <time>2020-06-08T19:54:49Z</time>
      </trkpt>
      <trkpt lat="48.40016" lon="-4.76149">
        <ele>52.9</ele>
        <time>2020-06-08T19:54:50Z</time>
      </trkpt>
      <trkpt lat="48.4002" lon="-4.76148">
        <ele>53</ele>
        <time>2020-06-08T19:54:51Z</time>
      </trkpt>
      <trkpt lat="48.40024" lon="-4.76149">
        <ele>53.1</ele>
        <time>2020-06-08T19:54:52Z</time>
      </trkpt>
      <trkpt lat="48.40029" lon="-4.7615">
        <ele>53.1</ele>
        <time>2020-06-08T19:54:53Z</time>
      </trkpt>
      <trkpt lat="48.40032" lon="-4.7615">
        <ele>53.2</ele>
        <time>2020-06-08T19:54:54Z</time>
      </trkpt>
      <trkpt lat="48.40036" lon="-4.76152">
        <ele>53.2</ele>
        <time>2020-06-08T19:54:55Z</time>
      </trkpt>
      <trkpt lat="48.40039" lon="-4.76153">
        <ele>53.3</ele>
        <time>2020-06-08T19:54:56Z</time>
      </trkpt>
      <trkpt lat="48.40043" lon="-4.76154">
        <ele>53.3</ele>
        <time>2020-06-08T19:54:57Z</time>
      </trkpt>
      <trkpt lat="48.40046" lon="-4.76154">
        <ele>53.4</ele>
        <time>2020-06-08T19:54:58Z</time>
      </trkpt>
      <trkpt lat="48.40049" lon="-4.76155">
        <ele>53.4</ele>
        <time>2020-06-08T19:54:59Z</time>
      </trkpt>
      <trkpt lat="48.40052" lon="-4.76157">
        <ele>53.5</ele>
        <time>2020-06-08T19:55:00Z</time>
      </trkpt>
      <trkpt lat="48.40057" lon="-4.76158">
        <ele>53.5</ele>
        <time>2020-06-08T19:55:01Z</time>
      </trkpt>
      <trkpt lat="48.4006" lon="-4.76158">
        <ele>53.6</ele>
        <time>2020-06-08T19:55:02Z</time>
      </trkpt>
      <trkpt lat="48.40064" lon="-4.7616">
        <ele>53.7</ele>
        <time>2020-06-08T19:55:03Z</time>
      </trkpt>
      <trkpt lat="48.40069" lon="-4.76161">
        <ele>53.7</ele>
        <time>2020-06-08T19:55:04Z</time>
      </trkpt>
      <trkpt lat="48.40073" lon="-4.76162">
        <ele>53.7</ele>
        <time>2020-06-08T19:55:05Z</time>
      </trkpt>
      <trkpt lat="48.40077" lon="-4.76163">
        <ele>53.7</ele>
        <time>2020-06-08T19:55:06Z</time>
      </trkpt>
      <trkpt lat="48.40081" lon="-4.76164">
        <ele>53.7</ele>
        <time>2020-06-08T19:55:07Z</time>
      </trkpt>
      <trkpt lat="48.40085" lon="-4.76165">
        <ele>53.7</ele>
        <time>2020-06-08T19:55:08Z</time>
      </trkpt>
      <trkpt lat="48.4009" lon="-4.76167">
        <ele>53.7</ele>
        <time>2020-06-08T19:55:09Z</time>
      </trkpt>
      <trkpt lat="48.40095" lon="-4.76166">
        <ele>53.7</ele>
        <time>2020-06-08T19:55:10Z</time>
      </trkpt>
      <trkpt lat="48.401" lon="-4.76169">
        <ele>53.7</ele>
        <time>2020-06-08T19:55:11Z</time>
      </trkpt>
      <trkpt lat="48.40104" lon="-4.76171">
        <ele>53.7</ele>
        <time>2020-06-08T19:55:12Z</time>
      </trkpt>
      <trkpt lat="48.40109" lon="-4.76172">
        <ele>53.6</ele>
        <time>2020-06-08T19:55:13Z</time>
      </trkpt>
      <trkpt lat="48.40114" lon="-4.76174">
        <ele>53.6</ele>
        <time>2020-06-08T19:55:14Z</time>
      </trkpt>
      <trkpt lat="48.40119" lon="-4.76176">
        <ele>53.6</ele>
        <time>2020-06-08T19:55:15Z</time>
      </trkpt>
      <trkpt lat="48.40123" lon="-4.76177">
        <ele>53.6</ele>
        <time>2020-06-08T19:55:16Z</time>
      </trkpt>
      <trkpt lat="48.40127" lon="-4.76178">
        <ele>53.5</ele>
        <time>2020-06-08T19:55:17Z</time>
      </trkpt>
      <trkpt lat="48.40131" lon="-4.76179">
        <ele>53.5</ele>
        <time>2020-06-08T19:55:18Z</time>
      </trkpt>
      <trkpt lat="48.40136" lon="-4.76179">
        <ele>53.5</ele>
        <time>2020-06-08T19:55:19Z</time>
      </trkpt>
      <trkpt lat="48.40141" lon="-4.76179">
        <ele>53.4</ele>
        <time>2020-06-08T19:55:20Z</time>
      </trkpt>
      <trkpt lat="48.40146" lon="-4.76179">
        <ele>53.4</ele>
        <time>2020-06-08T19:55:21Z</time>
      </trkpt>
      <trkpt lat="48.4015" lon="-4.76179">
        <ele>53.3</ele>
        <time>2020-06-08T19:55:22Z</time>
      </trkpt>
      <trkpt lat="48.40155" lon="-4.76178">
        <ele>53.2</ele>
        <time>2020-06-08T19:55:23Z</time>
      </trkpt>
      <trkpt lat="48.4016" lon="-4.76179">
        <ele>53.1</ele>
        <time>2020-06-08T19:55:24Z</time>
      </trkpt>
      <trkpt lat="48.40165" lon="-4.7618">
        <ele>53</ele>
        <time>2020-06-08T19:55:25Z</time>
      </trkpt>
      <trkpt lat="48.40172" lon="-4.76183">
        <ele>52.9</ele>
        <time>2020-06-08T19:55:26Z</time>
      </trkpt>
      <trkpt lat="48.40177" lon="-4.76182">
        <ele>52.8</ele>
        <time>2020-06-08T19:55:27Z</time>
      </trkpt>
      <trkpt lat="48.40183" lon="-4.76182">
        <ele>52.7</ele>
        <time>2020-06-08T19:55:28Z</time>
      </trkpt>
      <trkpt lat="48.40188" lon="-4.76183">
        <ele>52.6</ele>
        <time>2020-06-08T19:55:29Z</time>
      </trkpt>
      <trkpt lat="48.40195" lon="-4.76181">
        <ele>52.5</ele>
        <time>2020-06-08T19:55:30Z</time>
      </trkpt>
      <trkpt lat="48.40201" lon="-4.76181">
        <ele>52.3</ele>
        <time>2020-06-08T19:55:31Z</time>
      </trkpt>
      <trkpt lat="48.40207" lon="-4.7618">
        <ele>52.2</ele>
        <time>2020-06-08T19:55:32Z</time>
      </trkpt>
      <trkpt lat="48.40214" lon="-4.76179">
        <ele>52.1</ele>
        <time>2020-06-08T19:55:33Z</time>
      </trkpt>
      <trkpt lat="48.4022" lon="-4.76178">
        <ele>52</ele>
        <time>2020-06-08T19:55:34Z</time>
      </trkpt>
      <trkpt lat="48.40226" lon="-4.76177">
        <ele>51.9</ele>
        <time>2020-06-08T19:55:35Z</time>
      </trkpt>
      <trkpt lat="48.40233" lon="-4.76175">
        <ele>51.8</ele>
        <time>2020-06-08T19:55:36Z</time>
      </trkpt>
      <trkpt lat="48.40239" lon="-4.76175">
        <ele>51.7</ele>
        <time>2020-06-08T19:55:37Z</time>
      </trkpt>
      <trkpt lat="48.40246" lon="-4.76174">
        <ele>51.5</ele>
        <time>2020-06-08T19:55:38Z</time>
      </trkpt>
      <trkpt lat="48.40252" lon="-4.76173">
        <ele>51.4</ele>
        <time>2020-06-08T19:55:39Z</time>
      </trkpt>
      <trkpt lat="48.40258" lon="-4.76172">
        <ele>51.3</ele>
        <time>2020-06-08T19:55:40Z</time>
      </trkpt>
      <trkpt lat="48.40264" lon="-4.76172">
        <ele>51.3</ele>
        <time>2020-06-08T19:55:41Z</time>
      </trkpt>
      <trkpt lat="48.4027" lon="-4.76172">
        <ele>51.2</ele>
        <time>2020-06-08T19:55:42Z</time>
      </trkpt>
      <trkpt lat="48.40276" lon="-4.76171">
        <ele>51.1</ele>
        <time>2020-06-08T19:55:43Z</time>
      </trkpt>
      <trkpt lat="48.40282" lon="-4.7617">
        <ele>51.1</ele>
        <time>2020-06-08T19:55:44Z</time>
      </trkpt>
      <trkpt lat="48.40288" lon="-4.76169">
        <ele>51</ele>
        <time>2020-06-08T19:55:45Z</time>
      </trkpt>
      <trkpt lat="48.40295" lon="-4.76167">
        <ele>50.9</ele>
        <time>2020-06-08T19:55:46Z</time>
      </trkpt>
      <trkpt lat="48.403" lon="-4.76166">
        <ele>50.9</ele>
        <time>2020-06-08T19:55:47Z</time>
      </trkpt>
      <trkpt lat="48.40305" lon="-4.76166">
        <ele>50.9</ele>
        <time>2020-06-08T19:55:48Z</time>
      </trkpt>
      <trkpt lat="48.40312" lon="-4.76165">
        <ele>50.9</ele>
        <time>2020-06-08T19:55:49Z</time>
      </trkpt>
      <trkpt lat="48.40317" lon="-4.76163">
        <ele>50.8</ele>
        <time>2020-06-08T19:55:50Z</time>
      </trkpt>
      <trkpt lat="48.40323" lon="-4.76162">
        <ele>50.8</ele>
        <time>2020-06-08T19:55:51Z</time>
      </trkpt>
      <trkpt lat="48.40328" lon="-4.76162">
        <ele>50.8</ele>
        <time>2020-06-08T19:55:52Z</time>
      </trkpt>
      <trkpt lat="48.40334" lon="-4.76162">
        <ele>50.8</ele>
        <time>2020-06-08T19:55:53Z</time>
      </trkpt>
      <trkpt lat="48.4034" lon="-4.76161">
        <ele>50.8</ele>
        <time>2020-06-08T19:55:54Z</time>
      </trkpt>
      <trkpt lat="48.40346" lon="-4.76159">
        <ele>50.9</ele>
        <time>2020-06-08T19:55:55Z</time>
      </trkpt>
      <trkpt lat="48.40352" lon="-4.76158">
        <ele>50.9</ele>
        <time>2020-06-08T19:55:56Z</time>
      </trkpt>
      <trkpt lat="48.40358" lon="-4.76158">
        <ele>51</ele>
        <time>2020-06-08T19:55:57Z</time>
      </trkpt>
      <trkpt lat="48.40363" lon="-4.76157">
        <ele>51</ele>
        <time>2020-06-08T19:55:58Z</time>
      </trkpt>
      <trkpt lat="48.40369" lon="-4.76157">
        <ele>51.1</ele>
        <time>2020-06-08T19:55:59Z</time>
      </trkpt>
      <trkpt lat="48.40374" lon="-4.76156">
        <ele>51.1</ele>
        <time>2020-06-08T19:56:00Z</time>
      </trkpt>
      <trkpt lat="48.40379" lon="-4.76155">
        <ele>51.2</ele>
        <time>2020-06-08T19:56:01Z</time>
      </trkpt>
      <trkpt lat="48.40384" lon="-4.76153">
        <ele>51.2</ele>
        <time>2020-06-08T19:56:02Z</time>
      </trkpt>
      <trkpt lat="48.40388" lon="-4.76153">
        <ele>51.2</ele>
        <time>2020-06-08T19:56:03Z</time>
      </trkpt>
      <trkpt lat="48.40395" lon="-4.76153">
        <ele>51.3</ele>
        <time>2020-06-08T19:56:04Z</time>
      </trkpt>
      <trkpt lat="48.404" lon="-4.76152">
        <ele>51.3</ele>
        <time>2020-06-08T19:56:05Z</time>
      </trkpt>
      <trkpt lat="48.40405" lon="-4.76152">
        <ele>51.4</ele>
        <time>2020-06-08T19:56:06Z</time>
      </trkpt>
      <trkpt lat="48.4041" lon="-4.76152">
        <ele>51.5</ele>
        <time>2020-06-08T19:56:07Z</time>
      </trkpt>
      <trkpt lat="48.40415" lon="-4.76151">
        <ele>51.6</ele>
        <time>2020-06-08T19:56:08Z</time>
      </trkpt>
      <trkpt lat="48.4042" lon="-4.7615">
        <ele>51.7</ele>
        <time>2020-06-08T19:56:09Z</time>
      </trkpt>
      <trkpt lat="48.40424" lon="-4.7615">
        <ele>51.8</ele>
        <time>2020-06-08T19:56:10Z</time>
      </trkpt>
      <trkpt lat="48.40428" lon="-4.76149">
        <ele>51.8</ele>
        <time>2020-06-08T19:56:11Z</time>
      </trkpt>
      <trkpt lat="48.40434" lon="-4.76149">
        <ele>51.9</ele>
        <time>2020-06-08T19:56:12Z</time>
      </trkpt>
      <trkpt lat="48.4044" lon="-4.76149">
        <ele>52</ele>
        <time>2020-06-08T19:56:13Z</time>
      </trkpt>
      <trkpt lat="48.40445" lon="-4.76148">
        <ele>52.1</ele>
        <time>2020-06-08T19:56:14Z</time>
      </trkpt>
      <trkpt lat="48.40451" lon="-4.76148">
        <ele>52.1</ele>
        <time>2020-06-08T19:56:15Z</time>
      </trkpt>
      <trkpt lat="48.40456" lon="-4.76148">
        <ele>52.2</ele>
        <time>2020-06-08T19:56:16Z</time>
      </trkpt>
      <trkpt lat="48.40462" lon="-4.76148">
        <ele>52.3</ele>
        <time>2020-06-08T19:56:17Z</time>
      </trkpt>
      <trkpt lat="48.40469" lon="-4.76148">
        <ele>52.4</ele>
        <time>2020-06-08T19:56:18Z</time>
      </trkpt>
      <trkpt lat="48.40474" lon="-4.76148">
        <ele>52.5</ele>
        <time>2020-06-08T19:56:19Z</time>
      </trkpt>
      <trkpt lat="48.4048" lon="-4.76147">
        <ele>52.6</ele>
        <time>2020-06-08T19:56:20Z</time>
      </trkpt>
      <trkpt lat="48.40484" lon="-4.76147">
        <ele>52.7</ele>
        <time>2020-06-08T19:56:21Z</time>
      </trkpt>
      <trkpt lat="48.4049" lon="-4.76146">
        <ele>52.8</ele>
        <time>2020-06-08T19:56:22Z</time>
      </trkpt>
      <trkpt lat="48.40493" lon="-4.76146">
        <ele>52.9</ele>
        <time>2020-06-08T19:56:23Z</time>
      </trkpt>
      <trkpt lat="48.40498" lon="-4.76145">
        <ele>53.1</ele>
        <time>2020-06-08T19:56:24Z</time>
      </trkpt>
      <trkpt lat="48.40501" lon="-4.76144">
        <ele>53.2</ele>
        <time>2020-06-08T19:56:25Z</time>
      </trkpt>
      <trkpt lat="48.40505" lon="-4.76143">
        <ele>53.3</ele>
        <time>2020-06-08T19:56:26Z</time>
      </trkpt>
      <trkpt lat="48.40509" lon="-4.76144">
        <ele>53.3</ele>
        <time>2020-06-08T19:56:27Z</time>
      </trkpt>
      <trkpt lat="48.40512" lon="-4.76143">
        <ele>53.4</ele>
        <time>2020-06-08T19:56:28Z</time>
      </trkpt>
      <trkpt lat="48.40517" lon="-4.76144">
        <ele>53.5</ele>
        <time>2020-06-08T19:56:29Z</time>
      </trkpt>
      <trkpt lat="48.40523" lon="-4.76143">
        <ele>53.7</ele>
        <time>2020-06-08T19:56:30Z</time>
      </trkpt>
      <trkpt lat="48.40529" lon="-4.76143">
        <ele>53.8</ele>
        <time>2020-06-08T19:56:31Z</time>
      </trkpt>
      <trkpt lat="48.40531" lon="-4.76144">
        <ele>53.9</ele>
        <time>2020-06-08T19:56:32Z</time>
      </trkpt>
      <trkpt lat="48.40536" lon="-4.76146">
        <ele>54</ele>
        <time>2020-06-08T19:56:33Z</time>
      </trkpt>
      <trkpt lat="48.40541" lon="-4.76146">
        <ele>54.2</ele>
        <time>2020-06-08T19:56:34Z</time>
      </trkpt>
      <trkpt lat="48.40545" lon="-4.76146">
        <ele>54.3</ele>
        <time>2020-06-08T19:56:35Z</time>
      </trkpt>
      <trkpt lat="48.40548" lon="-4.76146">
        <ele>54.4</ele>
        <time>2020-06-08T19:56:36Z</time>
      </trkpt>
      <trkpt lat="48.40552" lon="-4.76146">
        <ele>54.6</ele>
        <time>2020-06-08T19:56:37Z</time>
      </trkpt>
      <trkpt lat="48.40556" lon="-4.76147">
        <ele>54.7</ele>
        <time>2020-06-08T19:56:38Z</time>
      </trkpt>
      <trkpt lat="48.40559" lon="-4.76146">
        <ele>54.8</ele>
        <time>2020-06-08T19:56:39Z</time>
      </trkpt>
      <trkpt lat="48.40563" lon="-4.76145">
        <ele>54.9</ele>
        <time>2020-06-08T19:56:40Z</time>
      </trkpt>
      <trkpt lat="48.40568" lon="-4.76147">
        <ele>55</ele>
        <time>2020-06-08T19:56:41Z</time>
      </trkpt>
      <trkpt lat="48.40571" lon="-4.76148">
        <ele>55.1</ele>
        <time>2020-06-08T19:56:42Z</time>
      </trkpt>
      <trkpt lat="48.40574" lon="-4.7615">
        <ele>55.1</ele>
        <time>2020-06-08T19:56:43Z</time>
      </trkpt>
      <trkpt lat="48.40577" lon="-4.76152">
        <ele>55</ele>
        <time>2020-06-08T19:56:44Z</time>
      </trkpt>
      <trkpt lat="48.40578" lon="-4.76152">
        <ele>55</ele>
        <time>2020-06-08T19:56:45Z</time>
      </trkpt>
      <trkpt lat="48.40581" lon="-4.76151">
        <ele>55</ele>
        <time>2020-06-08T19:56:46Z</time>
      </trkpt>
      <trkpt lat="48.40582" lon="-4.76151">
        <ele>55</ele>
        <time>2020-06-08T19:56:47Z</time>
      </trkpt>
      <trkpt lat="48.40583" lon="-4.76153">
        <ele>55</ele>
        <time>2020-06-08T19:56:48Z</time>
      </trkpt>
      <trkpt lat="48.40583" lon="-4.76154">
        <ele>54.9</ele>
        <time>2020-06-08T19:56:49Z</time>
      </trkpt>
      <trkpt lat="48.40582" lon="-4.76157">
        <ele>54.9</ele>
        <time>2020-06-08T19:56:50Z</time>
      </trkpt>
      <trkpt lat="48.40582" lon="-4.76158">
        <ele>54.9</ele>
        <time>2020-06-08T19:56:51Z</time>
      </trkpt>
      <trkpt lat="48.40582" lon="-4.7616">
        <ele>54.9</ele>
        <time>2020-06-08T19:56:52Z</time>
      </trkpt>
      <trkpt lat="48.40581" lon="-4.76159">
        <ele>54.9</ele>
        <time>2020-06-08T19:56:53Z</time>
      </trkpt>
      <trkpt lat="48.4058" lon="-4.76159">
        <ele>54.9</ele>
        <time>2020-06-08T19:56:54Z</time>
      </trkpt>
      <trkpt lat="48.40581" lon="-4.7616">
        <ele>54.9</ele>
        <time>2020-06-08T19:56:55Z</time>
      </trkpt>
      <trkpt lat="48.4058" lon="-4.7616">
        <ele>54.9</ele>
        <time>2020-06-08T19:56:56Z</time>
      </trkpt>
      <trkpt lat="48.4058" lon="-4.76161">
        <ele>54.9</ele>
        <time>2020-06-08T19:56:57Z</time>
      </trkpt>
      <trkpt lat="48.4058" lon="-4.7616">
        <ele>54.9</ele>
        <time>2020-06-08T19:56:58Z</time>
      </trkpt>
      <trkpt lat="48.40581" lon="-4.76161">
        <ele>54.9</ele>
        <time>2020-06-08T19:56:59Z</time>
      </trkpt>
      <trkpt lat="48.4058" lon="-4.7616">
        <ele>54.8</ele>
        <time>2020-06-08T19:57:00Z</time>
      </trkpt>
      <trkpt lat="48.4058" lon="-4.76161">
        <ele>54.8</ele>
        <time>2020-06-08T19:57:01Z</time>
      </trkpt>
      <trkpt lat="48.40579" lon="-4.76161">
        <ele>54.8</ele>
        <time>2020-06-08T19:57:02Z</time>
      </trkpt>
      <trkpt lat="48.40579" lon="-4.76162">
        <ele>54.8</ele>
        <time>2020-06-08T19:57:03Z</time>
      </trkpt>
      <trkpt lat="48.40579" lon="-4.76163">
        <ele>54.8</ele>
        <time>2020-06-08T19:57:04Z</time>
      </trkpt>
      <trkpt lat="48.40579" lon="-4.76164">
        <ele>54.8</ele>
        <time>2020-06-08T19:57:05Z</time>
      </trkpt>
      <trkpt lat="48.40579" lon="-4.76165">
        <ele>54.8</ele>
        <time>2020-06-08T19:57:06Z</time>
      </trkpt>
      <trkpt lat="48.40579" lon="-4.76166">
        <ele>54.8</ele>
        <time>2020-06-08T19:57:07Z</time>
      </trkpt>
      <trkpt lat="48.4058" lon="-4.76168">
        <ele>54.8</ele>
        <time>2020-06-08T19:57:08Z</time>
      </trkpt>
      <trkpt lat="48.4058" lon="-4.76169">
        <ele>54.8</ele>
        <time>2020-06-08T19:57:09Z</time>
      </trkpt>
      <trkpt lat="48.4058" lon="-4.7617">
        <ele>54.8</ele>
        <time>2020-06-08T19:57:10Z</time>
      </trkpt>
      <trkpt lat="48.4058" lon="-4.76171">
        <ele>54.8</ele>
        <time>2020-06-08T19:57:11Z</time>
      </trkpt>
      <trkpt lat="48.40581" lon="-4.76173">
        <ele>54.8</ele>
        <time>2020-06-08T19:57:47Z</time>
      </trkpt>
      <trkpt lat="48.40581" lon="-4.76174">
        <ele>54.8</ele>
        <time>2020-06-08T19:57:48Z</time>
      </trkpt>
      <trkpt lat="48.40582" lon="-4.76179">
        <ele>54.7</ele>
        <time>2020-06-08T19:57:49Z</time>
      </trkpt>
      <trkpt lat="48.40583" lon="-4.76185">
        <ele>54.7</ele>
        <time>2020-06-08T19:57:50Z</time>
      </trkpt>
      <trkpt lat="48.40583" lon="-4.76191">
        <ele>54.7</ele>
        <time>2020-06-08T19:57:51Z</time>
      </trkpt>
      <trkpt lat="48.40583" lon="-4.76197">
        <ele>54.7</ele>
        <time>2020-06-08T19:57:52Z</time>
      </trkpt>
      <trkpt lat="48.40584" lon="-4.76203">
        <ele>54.7</ele>
        <time>2020-06-08T19:57:53Z</time>
      </trkpt>
      <trkpt lat="48.40584" lon="-4.76208">
        <ele>54.7</ele>
        <time>2020-06-08T19:57:54Z</time>
      </trkpt>
      <trkpt lat="48.40585" lon="-4.76214">
        <ele>54.7</ele>
        <time>2020-06-08T19:57:55Z</time>
      </trkpt>
      <trkpt lat="48.40586" lon="-4.7622">
        <ele>54.7</ele>
        <time>2020-06-08T19:57:56Z</time>
      </trkpt>
      <trkpt lat="48.40587" lon="-4.76226">
        <ele>54.7</ele>
        <time>2020-06-08T19:57:57Z</time>
      </trkpt>
      <trkpt lat="48.40588" lon="-4.76232">
        <ele>54.7</ele>
        <time>2020-06-08T19:57:58Z</time>
      </trkpt>
      <trkpt lat="48.40589" lon="-4.76239">
        <ele>54.6</ele>
        <time>2020-06-08T19:57:59Z</time>
      </trkpt>
      <trkpt lat="48.40589" lon="-4.76246">
        <ele>54.6</ele>
        <time>2020-06-08T19:58:00Z</time>
      </trkpt>
      <trkpt lat="48.4059" lon="-4.76254">
        <ele>54.6</ele>
        <time>2020-06-08T19:58:01Z</time>
      </trkpt>
      <trkpt lat="48.40591" lon="-4.76259">
        <ele>54.6</ele>
        <time>2020-06-08T19:58:02Z</time>
      </trkpt>
      <trkpt lat="48.40591" lon="-4.76267">
        <ele>54.6</ele>
        <time>2020-06-08T19:58:03Z</time>
      </trkpt>
      <trkpt lat="48.40591" lon="-4.76275">
        <ele>54.6</ele>
        <time>2020-06-08T19:58:04Z</time>
      </trkpt>
      <trkpt lat="48.40591" lon="-4.76282">
        <ele>54.6</ele>
        <time>2020-06-08T19:58:05Z</time>
      </trkpt>
      <trkpt lat="48.40592" lon="-4.7629">
        <ele>54.6</ele>
        <time>2020-06-08T19:58:06Z</time>
      </trkpt>
      <trkpt lat="48.40592" lon="-4.76297">
        <ele>54.6</ele>
        <time>2020-06-08T19:58:07Z</time>
      </trkpt>
      <trkpt lat="48.40593" lon="-4.76304">
        <ele>54.7</ele>
        <time>2020-06-08T19:58:08Z</time>
      </trkpt>
      <trkpt lat="48.40595" lon="-4.7631">
        <ele>54.8</ele>
        <time>2020-06-08T19:58:09Z</time>
      </trkpt>
      <trkpt lat="48.40597" lon="-4.76316">
        <ele>54.8</ele>
        <time>2020-06-08T19:58:10Z</time>
      </trkpt>
      <trkpt lat="48.40601" lon="-4.76323">
        <ele>54.8</ele>
        <time>2020-06-08T19:58:11Z</time>
      </trkpt>
      <trkpt lat="48.40605" lon="-4.76329">
        <ele>54.8</ele>
        <time>2020-06-08T19:58:12Z</time>
      </trkpt>
      <trkpt lat="48.40609" lon="-4.76335">
        <ele>54.7</ele>
        <time>2020-06-08T19:58:13Z</time>
      </trkpt>
      <trkpt lat="48.40613" lon="-4.7634">
        <ele>54.7</ele>
        <time>2020-06-08T19:58:14Z</time>
      </trkpt>
      <trkpt lat="48.40617" lon="-4.76347">
        <ele>54.6</ele>
        <time>2020-06-08T19:58:15Z</time>
      </trkpt>
      <trkpt lat="48.40621" lon="-4.76352">
        <ele>54.6</ele>
        <time>2020-06-08T19:58:16Z</time>
      </trkpt>
      <trkpt lat="48.40625" lon="-4.76357">
        <ele>54.6</ele>
        <time>2020-06-08T19:58:17Z</time>
      </trkpt>
      <trkpt lat="48.40629" lon="-4.76361">
        <ele>54.6</ele>
        <time>2020-06-08T19:58:18Z</time>
      </trkpt>
      <trkpt lat="48.40633" lon="-4.76366">
        <ele>54.6</ele>
        <time>2020-06-08T19:58:19Z</time>
      </trkpt>
      <trkpt lat="48.40637" lon="-4.7637">
        <ele>54.6</ele>
        <time>2020-06-08T19:58:20Z</time>
      </trkpt>
      <trkpt lat="48.40642" lon="-4.76377">
        <ele>54.5</ele>
        <time>2020-06-08T19:58:21Z</time>
      </trkpt>
      <trkpt lat="48.40645" lon="-4.76384">
        <ele>54.5</ele>
        <time>2020-06-08T19:58:22Z</time>
      </trkpt>
      <trkpt lat="48.40648" lon="-4.7639">
        <ele>54.5</ele>
        <time>2020-06-08T19:58:23Z</time>
      </trkpt>
      <trkpt lat="48.40652" lon="-4.76396">
        <ele>54.5</ele>
        <time>2020-06-08T19:58:24Z</time>
      </trkpt>
      <trkpt lat="48.40656" lon="-4.76402">
        <ele>54.5</ele>
        <time>2020-06-08T19:58:25Z</time>
      </trkpt>
      <trkpt lat="48.40659" lon="-4.76407">
        <ele>54.5</ele>
        <time>2020-06-08T19:58:26Z</time>
      </trkpt>
      <trkpt lat="48.40663" lon="-4.76414">
        <ele>54.5</ele>
        <time>2020-06-08T19:58:27Z</time>
      </trkpt>
      <trkpt lat="48.40668" lon="-4.76422">
        <ele>54.5</ele>
        <time>2020-06-08T19:58:28Z</time>
      </trkpt>
      <trkpt lat="48.40671" lon="-4.76428">
        <ele>54.5</ele>
        <time>2020-06-08T19:58:29Z</time>
      </trkpt>
      <trkpt lat="48.40675" lon="-4.76435">
        <ele>54.5</ele>
        <time>2020-06-08T19:58:30Z</time>
      </trkpt>
      <trkpt lat="48.40679" lon="-4.76442">
        <ele>54.5</ele>
        <time>2020-06-08T19:58:31Z</time>
      </trkpt>
      <trkpt lat="48.40683" lon="-4.76447">
        <ele>54.5</ele>
        <time>2020-06-08T19:58:32Z</time>
      </trkpt>
      <trkpt lat="48.40687" lon="-4.76451">
        <ele>54.5</ele>
        <time>2020-06-08T19:58:33Z</time>
      </trkpt>
      <trkpt lat="48.40692" lon="-4.76456">
        <ele>54.5</ele>
        <time>2020-06-08T19:58:34Z</time>
      </trkpt>
      <trkpt lat="48.40697" lon="-4.76461">
        <ele>54.5</ele>
        <time>2020-06-08T19:58:35Z</time>
      </trkpt>
      <trkpt lat="48.40703" lon="-4.76468">
        <ele>54.5</ele>
        <time>2020-06-08T19:58:36Z</time>
      </trkpt>
      <trkpt lat="48.40707" lon="-4.76473">
        <ele>54.5</ele>
        <time>2020-06-08T19:58:37Z</time>
      </trkpt>
      <trkpt lat="48.4071" lon="-4.76477">
        <ele>54.5</ele>
        <time>2020-06-08T19:58:38Z</time>
      </trkpt>
      <trkpt lat="48.40714" lon="-4.76481">
        <ele>54.5</ele>
        <time>2020-06-08T19:58:39Z</time>
      </trkpt>
      <trkpt lat="48.40718" lon="-4.76487">
        <ele>54.4</ele>
        <time>2020-06-08T19:58:40Z</time>
      </trkpt>
      <trkpt lat="48.40721" lon="-4.76497">
        <ele>54.5</ele>
        <time>2020-06-08T19:58:41Z</time>
      </trkpt>
      <trkpt lat="48.40722" lon="-4.76508">
        <ele>54.5</ele>
        <time>2020-06-08T19:58:42Z</time>
      </trkpt>
      <trkpt lat="48.40723" lon="-4.76517">
        <ele>54.5</ele>
        <time>2020-06-08T19:58:43Z</time>
      </trkpt>
      <trkpt lat="48.40723" lon="-4.76528">
        <ele>54.5</ele>
        <time>2020-06-08T19:58:44Z</time>
      </trkpt>
      <trkpt lat="48.40723" lon="-4.76538">
        <ele>54.5</ele>
        <time>2020-06-08T19:58:45Z</time>
      </trkpt>
      <trkpt lat="48.40723" lon="-4.76549">
        <ele>54.4</ele>
        <time>2020-06-08T19:58:46Z</time>
      </trkpt>
      <trkpt lat="48.40723" lon="-4.76559">
        <ele>54.4</ele>
        <time>2020-06-08T19:58:47Z</time>
      </trkpt>
      <trkpt lat="48.40723" lon="-4.7657">
        <ele>54.3</ele>
        <time>2020-06-08T19:58:48Z</time>
      </trkpt>
      <trkpt lat="48.40723" lon="-4.76578">
        <ele>54.2</ele>
        <time>2020-06-08T19:58:49Z</time>
      </trkpt>
      <trkpt lat="48.40723" lon="-4.76588">
        <ele>54.1</ele>
        <time>2020-06-08T19:58:50Z</time>
      </trkpt>
      <trkpt lat="48.40722" lon="-4.76597">
        <ele>54</ele>
        <time>2020-06-08T19:58:51Z</time>
      </trkpt>
      <trkpt lat="48.40723" lon="-4.76609">
        <ele>54</ele>
        <time>2020-06-08T19:58:52Z</time>
      </trkpt>
      <trkpt lat="48.40724" lon="-4.7662">
        <ele>53.9</ele>
        <time>2020-06-08T19:58:53Z</time>
      </trkpt>
      <trkpt lat="48.40725" lon="-4.76632">
        <ele>53.8</ele>
        <time>2020-06-08T19:58:54Z</time>
      </trkpt>
      <trkpt lat="48.40726" lon="-4.76643">
        <ele>53.7</ele>
        <time>2020-06-08T19:58:55Z</time>
      </trkpt>
      <trkpt lat="48.40727" lon="-4.76655">
        <ele>53.6</ele>
        <time>2020-06-08T19:58:56Z</time>
      </trkpt>
      <trkpt lat="48.40728" lon="-4.76666">
        <ele>53.6</ele>
        <time>2020-06-08T19:58:57Z</time>
      </trkpt>
      <trkpt lat="48.4073" lon="-4.76678">
        <ele>53.5</ele>
        <time>2020-06-08T19:58:58Z</time>
      </trkpt>
      <trkpt lat="48.40731" lon="-4.76689">
        <ele>53.4</ele>
        <time>2020-06-08T19:58:59Z</time>
      </trkpt>
      <trkpt lat="48.40732" lon="-4.76702">
        <ele>53.3</ele>
        <time>2020-06-08T19:59:00Z</time>
      </trkpt>
      <trkpt lat="48.40734" lon="-4.76714">
        <ele>53.2</ele>
        <time>2020-06-08T19:59:01Z</time>
      </trkpt>
      <trkpt lat="48.40735" lon="-4.76726">
        <ele>53.1</ele>
        <time>2020-06-08T19:59:02Z</time>
      </trkpt>
      <trkpt lat="48.40738" lon="-4.76738">
        <ele>53</ele>
        <time>2020-06-08T19:59:03Z</time>
      </trkpt>
      <trkpt lat="48.40739" lon="-4.76749">
        <ele>53</ele>
        <time>2020-06-08T19:59:04Z</time>
      </trkpt>
      <trkpt lat="48.40742" lon="-4.76761">
        <ele>52.9</ele>
        <time>2020-06-08T19:59:05Z</time>
      </trkpt>
      <trkpt lat="48.40744" lon="-4.76772">
        <ele>52.9</ele>
        <time>2020-06-08T19:59:06Z</time>
      </trkpt>
      <trkpt lat="48.40746" lon="-4.76783">
        <ele>52.9</ele>
        <time>2020-06-08T19:59:07Z</time>
      </trkpt>
      <trkpt lat="48.40748" lon="-4.76794">
        <ele>53</ele>
        <time>2020-06-08T19:59:08Z</time>
      </trkpt>
      <trkpt lat="48.4075" lon="-4.76805">
        <ele>53</ele>
        <time>2020-06-08T19:59:09Z</time>
      </trkpt>
      <trkpt lat="48.40752" lon="-4.76816">
        <ele>53</ele>
        <time>2020-06-08T19:59:10Z</time>
      </trkpt>
      <trkpt lat="48.40754" lon="-4.76828">
        <ele>52.9</ele>
        <time>2020-06-08T19:59:11Z</time>
      </trkpt>
      <trkpt lat="48.40756" lon="-4.76839">
        <ele>52.8</ele>
        <time>2020-06-08T19:59:12Z</time>
      </trkpt>
      <trkpt lat="48.40758" lon="-4.76851">
        <ele>52.7</ele>
        <time>2020-06-08T19:59:13Z</time>
      </trkpt>
      <trkpt lat="48.4076" lon="-4.76863">
        <ele>52.6</ele>
        <time>2020-06-08T19:59:14Z</time>
      </trkpt>
      <trkpt lat="48.40761" lon="-4.76875">
        <ele>52.5</ele>
        <time>2020-06-08T19:59:15Z</time>
      </trkpt>
      <trkpt lat="48.40763" lon="-4.76886">
        <ele>52.2</ele>
        <time>2020-06-08T19:59:16Z</time>
      </trkpt>
      <trkpt lat="48.40765" lon="-4.76898">
        <ele>52</ele>
        <time>2020-06-08T19:59:17Z</time>
      </trkpt>
      <trkpt lat="48.40767" lon="-4.7691">
        <ele>51.8</ele>
        <time>2020-06-08T19:59:18Z</time>
      </trkpt>
      <trkpt lat="48.40769" lon="-4.76922">
        <ele>51.5</ele>
        <time>2020-06-08T19:59:19Z</time>
      </trkpt>
      <trkpt lat="48.4077" lon="-4.76934">
        <ele>51.3</ele>
        <time>2020-06-08T19:59:20Z</time>
      </trkpt>
      <trkpt lat="48.40772" lon="-4.76946">
        <ele>51</ele>
        <time>2020-06-08T19:59:21Z</time>
      </trkpt>
      <trkpt lat="48.40774" lon="-4.76957">
        <ele>50.8</ele>
        <time>2020-06-08T19:59:22Z</time>
      </trkpt>
      <trkpt lat="48.40775" lon="-4.76969">
        <ele>50.6</ele>
        <time>2020-06-08T19:59:23Z</time>
      </trkpt>
      <trkpt lat="48.40775" lon="-4.7698">
        <ele>50.3</ele>
        <time>2020-06-08T19:59:24Z</time>
      </trkpt>
      <trkpt lat="48.40776" lon="-4.76991">
        <ele>50</ele>
        <time>2020-06-08T19:59:25Z</time>
      </trkpt>
      <trkpt lat="48.40776" lon="-4.77002">
        <ele>49.7</ele>
        <time>2020-06-08T19:59:26Z</time>
      </trkpt>
      <trkpt lat="48.40776" lon="-4.77014">
        <ele>49.3</ele>
        <time>2020-06-08T19:59:27Z</time>
      </trkpt>
      <trkpt lat="48.40776" lon="-4.77026">
        <ele>48.9</ele>
        <time>2020-06-08T19:59:28Z</time>
      </trkpt>
      <trkpt lat="48.40776" lon="-4.77037">
        <ele>48.5</ele>
        <time>2020-06-08T19:59:29Z</time>
      </trkpt>
      <trkpt lat="48.40777" lon="-4.77049">
        <ele>48</ele>
        <time>2020-06-08T19:59:30Z</time>
      </trkpt>
      <trkpt lat="48.40778" lon="-4.77062">
        <ele>47.3</ele>
        <time>2020-06-08T19:59:31Z</time>
      </trkpt>
      <trkpt lat="48.40778" lon="-4.77074">
        <ele>46.9</ele>
        <time>2020-06-08T19:59:32Z</time>
      </trkpt>
      <trkpt lat="48.40779" lon="-4.77087">
        <ele>46.3</ele>
        <time>2020-06-08T19:59:33Z</time>
      </trkpt>
      <trkpt lat="48.40781" lon="-4.77101">
        <ele>45.7</ele>
        <time>2020-06-08T19:59:34Z</time>
      </trkpt>
      <trkpt lat="48.40781" lon="-4.77115">
        <ele>44.9</ele>
        <time>2020-06-08T19:59:35Z</time>
      </trkpt>
      <trkpt lat="48.40782" lon="-4.77129">
        <ele>44.5</ele>
        <time>2020-06-08T19:59:36Z</time>
      </trkpt>
      <trkpt lat="48.40783" lon="-4.77144">
        <ele>44.1</ele>
        <time>2020-06-08T19:59:37Z</time>
      </trkpt>
      <trkpt lat="48.40784" lon="-4.77159">
        <ele>43.4</ele>
        <time>2020-06-08T19:59:38Z</time>
      </trkpt>
      <trkpt lat="48.40784" lon="-4.77173">
        <ele>42.7</ele>
        <time>2020-06-08T19:59:39Z</time>
      </trkpt>
      <trkpt lat="48.40785" lon="-4.77186">
        <ele>41.8</ele>
        <time>2020-06-08T19:59:40Z</time>
      </trkpt>
      <trkpt lat="48.40786" lon="-4.77199">
        <ele>40.9</ele>
        <time>2020-06-08T19:59:41Z</time>
      </trkpt>
      <trkpt lat="48.40786" lon="-4.77211">
        <ele>40</ele>
        <time>2020-06-08T19:59:42Z</time>
      </trkpt>
      <trkpt lat="48.40787" lon="-4.77222">
        <ele>39.1</ele>
        <time>2020-06-08T19:59:43Z</time>
      </trkpt>
      <trkpt lat="48.40788" lon="-4.77232">
        <ele>38.3</ele>
        <time>2020-06-08T19:59:44Z</time>
      </trkpt>
      <trkpt lat="48.40789" lon="-4.77242">
        <ele>37.4</ele>
        <time>2020-06-08T19:59:45Z</time>
      </trkpt>
      <trkpt lat="48.4079" lon="-4.7725">
        <ele>36.6</ele>
        <time>2020-06-08T19:59:46Z</time>
      </trkpt>
      <trkpt lat="48.40791" lon="-4.77259">
        <ele>35.8</ele>
        <time>2020-06-08T19:59:47Z</time>
      </trkpt>
      <trkpt lat="48.40792" lon="-4.77266">
        <ele>35.1</ele>
        <time>2020-06-08T19:59:48Z</time>
      </trkpt>
      <trkpt lat="48.40793" lon="-4.77273">
        <ele>34.4</ele>
        <time>2020-06-08T19:59:49Z</time>
      </trkpt>
      <trkpt lat="48.40794" lon="-4.77279">
        <ele>33.9</ele>
        <time>2020-06-08T19:59:50Z</time>
      </trkpt>
      <trkpt lat="48.40796" lon="-4.77284">
        <ele>33.2</ele>
        <time>2020-06-08T19:59:51Z</time>
      </trkpt>
      <trkpt lat="48.408" lon="-4.77288">
        <ele>32.5</ele>
        <time>2020-06-08T19:59:52Z</time>
      </trkpt>
      <trkpt lat="48.40805" lon="-4.77291">
        <ele>31.5</ele>
        <time>2020-06-08T19:59:53Z</time>
      </trkpt>
      <trkpt lat="48.40812" lon="-4.7729">
        <ele>30.4</ele>
        <time>2020-06-08T19:59:54Z</time>
      </trkpt>
      <trkpt lat="48.40819" lon="-4.7729">
        <ele>29.3</ele>
        <time>2020-06-08T19:59:55Z</time>
      </trkpt>
      <trkpt lat="48.40828" lon="-4.77289">
        <ele>28.1</ele>
        <time>2020-06-08T19:59:56Z</time>
      </trkpt>
      <trkpt lat="48.40837" lon="-4.77287">
        <ele>26.7</ele>
        <time>2020-06-08T19:59:57Z</time>
      </trkpt>
      <trkpt lat="48.40845" lon="-4.77285">
        <ele>25.5</ele>
        <time>2020-06-08T19:59:58Z</time>
      </trkpt>
      <trkpt lat="48.40854" lon="-4.77283">
        <ele>24.2</ele>
        <time>2020-06-08T19:59:59Z</time>
      </trkpt>
      <trkpt lat="48.40863" lon="-4.77282">
        <ele>23</ele>
        <time>2020-06-08T20:00:00Z</time>
      </trkpt>
      <trkpt lat="48.40871" lon="-4.77282">
        <ele>21.7</ele>
        <time>2020-06-08T20:00:01Z</time>
      </trkpt>
      <trkpt lat="48.4088" lon="-4.77283">
        <ele>20.4</ele>
        <time>2020-06-08T20:00:02Z</time>
      </trkpt>
      <trkpt lat="48.40887" lon="-4.77287">
        <ele>19</ele>
        <time>2020-06-08T20:00:03Z</time>
      </trkpt>
      <trkpt lat="48.40894" lon="-4.77292">
        <ele>17.7</ele>
        <time>2020-06-08T20:00:04Z</time>
      </trkpt>
      <trkpt lat="48.409" lon="-4.773">
        <ele>16.2</ele>
        <time>2020-06-08T20:00:05Z</time>
      </trkpt>
      <trkpt lat="48.40904" lon="-4.77312">
        <ele>14.8</ele>
        <time>2020-06-08T20:00:06Z</time>
      </trkpt>
      <trkpt lat="48.40907" lon="-4.77325">
        <ele>13.6</ele>
        <time>2020-06-08T20:00:07Z</time>
      </trkpt>
      <trkpt lat="48.4091" lon="-4.7734">
        <ele>12.6</ele>
        <time>2020-06-08T20:00:08Z</time>
      </trkpt>
      <trkpt lat="48.40913" lon="-4.77355">
        <ele>11.8</ele>
        <time>2020-06-08T20:00:09Z</time>
      </trkpt>
      <trkpt lat="48.40916" lon="-4.77371">
        <ele>10.9</ele>
        <time>2020-06-08T20:00:10Z</time>
      </trkpt>
      <trkpt lat="48.40919" lon="-4.77387">
        <ele>10.1</ele>
        <time>2020-06-08T20:00:11Z</time>
      </trkpt>
      <trkpt lat="48.40921" lon="-4.77403">
        <ele>9.4</ele>
        <time>2020-06-08T20:00:12Z</time>
      </trkpt>
      <trkpt lat="48.40924" lon="-4.77419">
        <ele>9</ele>
        <time>2020-06-08T20:00:13Z</time>
      </trkpt>
      <trkpt lat="48.40927" lon="-4.77435">
        <ele>8.6</ele>
        <time>2020-06-08T20:00:14Z</time>
      </trkpt>
      <trkpt lat="48.40929" lon="-4.7745">
        <ele>8.5</ele>
        <time>2020-06-08T20:00:15Z</time>
      </trkpt>
      <trkpt lat="48.40932" lon="-4.77465">
        <ele>8.5</ele>
        <time>2020-06-08T20:00:16Z</time>
      </trkpt>
      <trkpt lat="48.40934" lon="-4.77479">
        <ele>8.6</ele>
        <time>2020-06-08T20:00:17Z</time>
      </trkpt>
      <trkpt lat="48.40935" lon="-4.77493">
        <ele>8.8</ele>
        <time>2020-06-08T20:00:18Z</time>
      </trkpt>
      <trkpt lat="48.40937" lon="-4.77507">
        <ele>9</ele>
        <time>2020-06-08T20:00:19Z</time>
      </trkpt>
      <trkpt lat="48.40938" lon="-4.77519">
        <ele>9.3</ele>
        <time>2020-06-08T20:00:20Z</time>
      </trkpt>
      <trkpt lat="48.40939" lon="-4.77532">
        <ele>9.5</ele>
        <time>2020-06-08T20:00:21Z</time>
      </trkpt>
      <trkpt lat="48.40941" lon="-4.77544">
        <ele>9.7</ele>
        <time>2020-06-08T20:00:22Z</time>
      </trkpt>
      <trkpt lat="48.40942" lon="-4.77555">
        <ele>10.2</ele>
        <time>2020-06-08T20:00:23Z</time>
      </trkpt>
      <trkpt lat="48.40944" lon="-4.77565">
        <ele>10.7</ele>
        <time>2020-06-08T20:00:24Z</time>
      </trkpt>
      <trkpt lat="48.40945" lon="-4.77575">
        <ele>11.1</ele>
        <time>2020-06-08T20:00:25Z</time>
      </trkpt>
      <trkpt lat="48.40947" lon="-4.77585">
        <ele>11.6</ele>
        <time>2020-06-08T20:00:26Z</time>
      </trkpt>
      <trkpt lat="48.40949" lon="-4.77593">
        <ele>12</ele>
        <time>2020-06-08T20:00:27Z</time>
      </trkpt>
      <trkpt lat="48.4095" lon="-4.77602">
        <ele>12.5</ele>
        <time>2020-06-08T20:00:28Z</time>
      </trkpt>
      <trkpt lat="48.4095" lon="-4.7761">
        <ele>12.9</ele>
        <time>2020-06-08T20:00:29Z</time>
      </trkpt>
      <trkpt lat="48.4095" lon="-4.77617">
        <ele>13.4</ele>
        <time>2020-06-08T20:00:30Z</time>
      </trkpt>
      <trkpt lat="48.4095" lon="-4.77625">
        <ele>13.8</ele>
        <time>2020-06-08T20:00:31Z</time>
      </trkpt>
      <trkpt lat="48.40951" lon="-4.77632">
        <ele>14.2</ele>
        <time>2020-06-08T20:00:32Z</time>
      </trkpt>
      <trkpt lat="48.40952" lon="-4.77638">
        <ele>14.6</ele>
        <time>2020-06-08T20:00:33Z</time>
      </trkpt>
      <trkpt lat="48.40952" lon="-4.77644">
        <ele>14.9</ele>
        <time>2020-06-08T20:00:34Z</time>
      </trkpt>
      <trkpt lat="48.40953" lon="-4.77649">
        <ele>15.2</ele>
        <time>2020-06-08T20:00:35Z</time>
      </trkpt>
      <trkpt lat="48.40952" lon="-4.77654">
        <ele>15.5</ele>
        <time>2020-06-08T20:00:36Z</time>
      </trkpt>
      <trkpt lat="48.40951" lon="-4.77658">
        <ele>15.7</ele>
        <time>2020-06-08T20:00:37Z</time>
      </trkpt>
      <trkpt lat="48.40952" lon="-4.77663">
        <ele>16</ele>
        <time>2020-06-08T20:00:38Z</time>
      </trkpt>
      <trkpt lat="48.40953" lon="-4.77668">
        <ele>16.2</ele>
        <time>2020-06-08T20:00:39Z</time>
      </trkpt>
      <trkpt lat="48.40954" lon="-4.77673">
        <ele>16.5</ele>
        <time>2020-06-08T20:00:40Z</time>
      </trkpt>
      <trkpt lat="48.40954" lon="-4.77677">
        <ele>16.8</ele>
        <time>2020-06-08T20:00:41Z</time>
      </trkpt>
      <trkpt lat="48.40955" lon="-4.77681">
        <ele>17</ele>
        <time>2020-06-08T20:00:42Z</time>
      </trkpt>
      <trkpt lat="48.40956" lon="-4.77686">
        <ele>17.2</ele>
        <time>2020-06-08T20:00:43Z</time>
      </trkpt>
      <trkpt lat="48.40956" lon="-4.7769">
        <ele>17.4</ele>
        <time>2020-06-08T20:00:44Z</time>
      </trkpt>
      <trkpt lat="48.40956" lon="-4.77695">
        <ele>17.6</ele>
        <time>2020-06-08T20:00:45Z</time>
      </trkpt>
      <trkpt lat="48.40956" lon="-4.77699">
        <ele>17.8</ele>
        <time>2020-06-08T20:00:46Z</time>
      </trkpt>
      <trkpt lat="48.40956" lon="-4.77704">
        <ele>18</ele>
        <time>2020-06-08T20:00:47Z</time>
      </trkpt>
      <trkpt lat="48.40957" lon="-4.77708">
        <ele>18.2</ele>
        <time>2020-06-08T20:00:48Z</time>
      </trkpt>
      <trkpt lat="48.40959" lon="-4.77713">
        <ele>18.4</ele>
        <time>2020-06-08T20:00:49Z</time>
      </trkpt>
      <trkpt lat="48.40959" lon="-4.77717">
        <ele>18.6</ele>
        <time>2020-06-08T20:00:50Z</time>
      </trkpt>
      <trkpt lat="48.40961" lon="-4.77721">
        <ele>18.8</ele>
        <time>2020-06-08T20:00:51Z</time>
      </trkpt>
      <trkpt lat="48.40961" lon="-4.77726">
        <ele>19</ele>
        <time>2020-06-08T20:00:52Z</time>
      </trkpt>
      <trkpt lat="48.40962" lon="-4.7773">
        <ele>19.2</ele>
        <time>2020-06-08T20:00:53Z</time>
      </trkpt>
      <trkpt lat="48.40962" lon="-4.77736">
        <ele>19.4</ele>
        <time>2020-06-08T20:00:54Z</time>
      </trkpt>
      <trkpt lat="48.40963" lon="-4.7774">
        <ele>19.6</ele>
        <time>2020-06-08T20:00:55Z</time>
      </trkpt>
      <trkpt lat="48.40965" lon="-4.77744">
        <ele>19.8</ele>
        <time>2020-06-08T20:00:56Z</time>
      </trkpt>
      <trkpt lat="48.40966" lon="-4.77748">
        <ele>20</ele>
        <time>2020-06-08T20:00:57Z</time>
      </trkpt>
      <trkpt lat="48.40967" lon="-4.77754">
        <ele>20.2</ele>
        <time>2020-06-08T20:00:58Z</time>
      </trkpt>
      <trkpt lat="48.40968" lon="-4.77756">
        <ele>20.3</ele>
        <time>2020-06-08T20:00:59Z</time>
      </trkpt>
      <trkpt lat="48.40969" lon="-4.7776">
        <ele>20.5</ele>
        <time>2020-06-08T20:01:00Z</time>
      </trkpt>
      <trkpt lat="48.4097" lon="-4.77767">
        <ele>20.8</ele>
        <time>2020-06-08T20:01:01Z</time>
      </trkpt>
      <trkpt lat="48.40972" lon="-4.77771">
        <ele>20.9</ele>
        <time>2020-06-08T20:01:02Z</time>
      </trkpt>
      <trkpt lat="48.40974" lon="-4.77774">
        <ele>21.1</ele>
        <time>2020-06-08T20:01:03Z</time>
      </trkpt>
      <trkpt lat="48.40975" lon="-4.7778">
        <ele>21.3</ele>
        <time>2020-06-08T20:01:04Z</time>
      </trkpt>
      <trkpt lat="48.40975" lon="-4.77782">
        <ele>21.3</ele>
        <time>2020-06-08T20:01:05Z</time>
      </trkpt>
      <trkpt lat="48.40976" lon="-4.77785">
        <ele>21.5</ele>
        <time>2020-06-08T20:01:06Z</time>
      </trkpt>
      <trkpt lat="48.40978" lon="-4.77791">
        <ele>21.7</ele>
        <time>2020-06-08T20:01:07Z</time>
      </trkpt>
      <trkpt lat="48.40978" lon="-4.77794">
        <ele>21.7</ele>
        <time>2020-06-08T20:01:08Z</time>
      </trkpt>
      <trkpt lat="48.4098" lon="-4.77799">
        <ele>21.9</ele>
        <time>2020-06-08T20:01:09Z</time>
      </trkpt>
      <trkpt lat="48.40981" lon="-4.77804">
        <ele>22.2</ele>
        <time>2020-06-08T20:01:10Z</time>
      </trkpt>
      <trkpt lat="48.40982" lon="-4.77809">
        <ele>22.3</ele>
        <time>2020-06-08T20:01:11Z</time>
      </trkpt>
      <trkpt lat="48.40984" lon="-4.77814">
        <ele>22.5</ele>
        <time>2020-06-08T20:01:12Z</time>
      </trkpt>
      <trkpt lat="48.40985" lon="-4.77816">
        <ele>22.5</ele>
        <time>2020-06-08T20:01:13Z</time>
      </trkpt>
      <trkpt lat="48.40986" lon="-4.77822">
        <ele>22.7</ele>
        <time>2020-06-08T20:01:14Z</time>
      </trkpt>
      <trkpt lat="48.40987" lon="-4.77824">
        <ele>22.8</ele>
        <time>2020-06-08T20:01:15Z</time>
      </trkpt>
      <trkpt lat="48.40989" lon="-4.77829">
        <ele>22.9</ele>
        <time>2020-06-08T20:01:16Z</time>
      </trkpt>
      <trkpt lat="48.40991" lon="-4.77832">
        <ele>23.1</ele>
        <time>2020-06-08T20:01:17Z</time>
      </trkpt>
      <trkpt lat="48.40994" lon="-4.77838">
        <ele>23.2</ele>
        <time>2020-06-08T20:01:18Z</time>
      </trkpt>
      <trkpt lat="48.40996" lon="-4.77841">
        <ele>23.3</ele>
        <time>2020-06-08T20:01:19Z</time>
      </trkpt>
      <trkpt lat="48.40998" lon="-4.77845">
        <ele>23.4</ele>
        <time>2020-06-08T20:01:20Z</time>
      </trkpt>
      <trkpt lat="48.41" lon="-4.77849">
        <ele>23.6</ele>
        <time>2020-06-08T20:01:21Z</time>
      </trkpt>
      <trkpt lat="48.41003" lon="-4.77854">
        <ele>23.7</ele>
        <time>2020-06-08T20:01:22Z</time>
      </trkpt>
      <trkpt lat="48.41006" lon="-4.77859">
        <ele>23.9</ele>
        <time>2020-06-08T20:01:23Z</time>
      </trkpt>
      <trkpt lat="48.41008" lon="-4.77864">
        <ele>24</ele>
        <time>2020-06-08T20:01:24Z</time>
      </trkpt>
      <trkpt lat="48.41011" lon="-4.7787">
        <ele>24.2</ele>
        <time>2020-06-08T20:01:25Z</time>
      </trkpt>
      <trkpt lat="48.41013" lon="-4.77873">
        <ele>24.3</ele>
        <time>2020-06-08T20:01:26Z</time>
      </trkpt>
      <trkpt lat="48.41016" lon="-4.77876">
        <ele>24.4</ele>
        <time>2020-06-08T20:01:27Z</time>
      </trkpt>
      <trkpt lat="48.41019" lon="-4.77879">
        <ele>24.6</ele>
        <time>2020-06-08T20:01:28Z</time>
      </trkpt>
      <trkpt lat="48.41022" lon="-4.77884">
        <ele>24.7</ele>
        <time>2020-06-08T20:01:29Z</time>
      </trkpt>
      <trkpt lat="48.41026" lon="-4.7789">
        <ele>25</ele>
        <time>2020-06-08T20:01:30Z</time>
      </trkpt>
      <trkpt lat="48.41028" lon="-4.77893">
        <ele>25.1</ele>
        <time>2020-06-08T20:01:31Z</time>
      </trkpt>
      <trkpt lat="48.41031" lon="-4.77897">
        <ele>25.2</ele>
        <time>2020-06-08T20:01:32Z</time>
      </trkpt>
      <trkpt lat="48.41034" lon="-4.779">
        <ele>25.4</ele>
        <time>2020-06-08T20:01:33Z</time>
      </trkpt>
      <trkpt lat="48.41036" lon="-4.77904">
        <ele>25.5</ele>
        <time>2020-06-08T20:01:34Z</time>
      </trkpt>
      <trkpt lat="48.4104" lon="-4.77907">
        <ele>25.7</ele>
        <time>2020-06-08T20:01:35Z</time>
      </trkpt>
      <trkpt lat="48.41042" lon="-4.77908">
        <ele>25.8</ele>
        <time>2020-06-08T20:01:36Z</time>
      </trkpt>
      <trkpt lat="48.41046" lon="-4.7791">
        <ele>25.9</ele>
        <time>2020-06-08T20:01:37Z</time>
      </trkpt>
      <trkpt lat="48.41049" lon="-4.77913">
        <ele>26.1</ele>
        <time>2020-06-08T20:01:38Z</time>
      </trkpt>
      <trkpt lat="48.41052" lon="-4.77915">
        <ele>26.2</ele>
        <time>2020-06-08T20:01:39Z</time>
      </trkpt>
      <trkpt lat="48.41055" lon="-4.77917">
        <ele>26.4</ele>
        <time>2020-06-08T20:01:40Z</time>
      </trkpt>
      <trkpt lat="48.41058" lon="-4.77921">
        <ele>26.5</ele>
        <time>2020-06-08T20:01:41Z</time>
      </trkpt>
      <trkpt lat="48.4106" lon="-4.77922">
        <ele>26.7</ele>
        <time>2020-06-08T20:01:42Z</time>
      </trkpt>
      <trkpt lat="48.41064" lon="-4.77924">
        <ele>26.9</ele>
        <time>2020-06-08T20:01:43Z</time>
      </trkpt>
      <trkpt lat="48.41068" lon="-4.77926">
        <ele>27</ele>
        <time>2020-06-08T20:01:44Z</time>
      </trkpt>
      <trkpt lat="48.41069" lon="-4.77927">
        <ele>27.1</ele>
        <time>2020-06-08T20:01:45Z</time>
      </trkpt>
      <trkpt lat="48.41073" lon="-4.7793">
        <ele>27.3</ele>
        <time>2020-06-08T20:01:46Z</time>
      </trkpt>
      <trkpt lat="48.41073" lon="-4.77931">
        <ele>27.4</ele>
        <time>2020-06-08T20:01:47Z</time>
      </trkpt>
      <trkpt lat="48.41076" lon="-4.77932">
        <ele>27.5</ele>
        <time>2020-06-08T20:01:48Z</time>
      </trkpt>
      <trkpt lat="48.41079" lon="-4.77935">
        <ele>27.7</ele>
        <time>2020-06-08T20:01:49Z</time>
      </trkpt>
      <trkpt lat="48.41082" lon="-4.77936">
        <ele>27.8</ele>
        <time>2020-06-08T20:01:50Z</time>
      </trkpt>
      <trkpt lat="48.41085" lon="-4.77938">
        <ele>27.9</ele>
        <time>2020-06-08T20:01:51Z</time>
      </trkpt>
      <trkpt lat="48.41088" lon="-4.77939">
        <ele>28.1</ele>
        <time>2020-06-08T20:01:52Z</time>
      </trkpt>
      <trkpt lat="48.41091" lon="-4.77939">
        <ele>28.2</ele>
        <time>2020-06-08T20:01:53Z</time>
      </trkpt>
      <trkpt lat="48.41093" lon="-4.77939">
        <ele>28.3</ele>
        <time>2020-06-08T20:01:54Z</time>
      </trkpt>
      <trkpt lat="48.41096" lon="-4.77939">
        <ele>28.4</ele>
        <time>2020-06-08T20:01:55Z</time>
      </trkpt>
      <trkpt lat="48.41099" lon="-4.77941">
        <ele>28.5</ele>
        <time>2020-06-08T20:01:56Z</time>
      </trkpt>
      <trkpt lat="48.41101" lon="-4.77943">
        <ele>28.6</ele>
        <time>2020-06-08T20:01:57Z</time>
      </trkpt>
      <trkpt lat="48.41105" lon="-4.77944">
        <ele>28.7</ele>
        <time>2020-06-08T20:01:58Z</time>
      </trkpt>
      <trkpt lat="48.41108" lon="-4.77944">
        <ele>28.9</ele>
        <time>2020-06-08T20:01:59Z</time>
      </trkpt>
      <trkpt lat="48.41111" lon="-4.77943">
        <ele>29</ele>
        <time>2020-06-08T20:02:00Z</time>
      </trkpt>
      <trkpt lat="48.41112" lon="-4.77943">
        <ele>29</ele>
        <time>2020-06-08T20:02:01Z</time>
      </trkpt>
      <trkpt lat="48.41115" lon="-4.77944">
        <ele>29.1</ele>
        <time>2020-06-08T20:02:02Z</time>
      </trkpt>
      <trkpt lat="48.4112" lon="-4.77945">
        <ele>29.3</ele>
        <time>2020-06-08T20:02:03Z</time>
      </trkpt>
      <trkpt lat="48.41123" lon="-4.77946">
        <ele>29.4</ele>
        <time>2020-06-08T20:02:04Z</time>
      </trkpt>
      <trkpt lat="48.41126" lon="-4.77947">
        <ele>29.6</ele>
        <time>2020-06-08T20:02:05Z</time>
      </trkpt>
      <trkpt lat="48.41131" lon="-4.77948">
        <ele>29.8</ele>
        <time>2020-06-08T20:02:06Z</time>
      </trkpt>
      <trkpt lat="48.41134" lon="-4.77949">
        <ele>29.9</ele>
        <time>2020-06-08T20:02:07Z</time>
      </trkpt>
      <trkpt lat="48.41137" lon="-4.7795">
        <ele>30</ele>
        <time>2020-06-08T20:02:08Z</time>
      </trkpt>
      <trkpt lat="48.41138" lon="-4.7795">
        <ele>30.1</ele>
        <time>2020-06-08T20:02:09Z</time>
      </trkpt>
      <trkpt lat="48.41142" lon="-4.7795">
        <ele>30.2</ele>
        <time>2020-06-08T20:02:10Z</time>
      </trkpt>
      <trkpt lat="48.41143" lon="-4.77951">
        <ele>30.2</ele>
        <time>2020-06-08T20:02:11Z</time>
      </trkpt>
      <trkpt lat="48.41147" lon="-4.7795">
        <ele>30.4</ele>
        <time>2020-06-08T20:02:12Z</time>
      </trkpt>
      <trkpt lat="48.41149" lon="-4.77949">
        <ele>30.4</ele>
        <time>2020-06-08T20:02:13Z</time>
      </trkpt>
      <trkpt lat="48.41152" lon="-4.77952">
        <ele>30.6</ele>
        <time>2020-06-08T20:02:14Z</time>
      </trkpt>
      <trkpt lat="48.41156" lon="-4.77953">
        <ele>30.7</ele>
        <time>2020-06-08T20:02:15Z</time>
      </trkpt>
      <trkpt lat="48.41159" lon="-4.77954">
        <ele>30.8</ele>
        <time>2020-06-08T20:02:16Z</time>
      </trkpt>
      <trkpt lat="48.41163" lon="-4.77955">
        <ele>30.9</ele>
        <time>2020-06-08T20:02:17Z</time>
      </trkpt>
      <trkpt lat="48.41164" lon="-4.77955">
        <ele>31</ele>
        <time>2020-06-08T20:02:18Z</time>
      </trkpt>
      <trkpt lat="48.41167" lon="-4.77956">
        <ele>31.1</ele>
        <time>2020-06-08T20:02:19Z</time>
      </trkpt>
      <trkpt lat="48.41168" lon="-4.77956">
        <ele>31.1</ele>
        <time>2020-06-08T20:02:20Z</time>
      </trkpt>
      <trkpt lat="48.41171" lon="-4.77955">
        <ele>31.2</ele>
        <time>2020-06-08T20:02:21Z</time>
      </trkpt>
      <trkpt lat="48.41174" lon="-4.77956">
        <ele>31.3</ele>
        <time>2020-06-08T20:02:22Z</time>
      </trkpt>
      <trkpt lat="48.41175" lon="-4.77956">
        <ele>31.3</ele>
        <time>2020-06-08T20:02:23Z</time>
      </trkpt>
      <trkpt lat="48.41178" lon="-4.77957">
        <ele>31.4</ele>
        <time>2020-06-08T20:02:24Z</time>
      </trkpt>
      <trkpt lat="48.41182" lon="-4.77959">
        <ele>31.5</ele>
        <time>2020-06-08T20:02:25Z</time>
      </trkpt>
      <trkpt lat="48.41183" lon="-4.7796">
        <ele>31.5</ele>
        <time>2020-06-08T20:02:26Z</time>
      </trkpt>
      <trkpt lat="48.41185" lon="-4.77963">
        <ele>31.6</ele>
        <time>2020-06-08T20:02:27Z</time>
      </trkpt>
      <trkpt lat="48.41186" lon="-4.77964">
        <ele>31.6</ele>
        <time>2020-06-08T20:02:28Z</time>
      </trkpt>
      <trkpt lat="48.41187" lon="-4.77968">
        <ele>31.7</ele>
        <time>2020-06-08T20:02:29Z</time>
      </trkpt>
      <trkpt lat="48.41187" lon="-4.7797">
        <ele>31.7</ele>
        <time>2020-06-08T20:02:30Z</time>
      </trkpt>
      <trkpt lat="48.41186" lon="-4.77971">
        <ele>31.7</ele>
        <time>2020-06-08T20:02:31Z</time>
      </trkpt>
      <trkpt lat="48.41184" lon="-4.77969">
        <ele>31.7</ele>
        <time>2020-06-08T20:02:32Z</time>
      </trkpt>
      <trkpt lat="48.41183" lon="-4.77966">
        <ele>31.6</ele>
        <time>2020-06-08T20:02:33Z</time>
      </trkpt>
      <trkpt lat="48.41183" lon="-4.77963">
        <ele>31.6</ele>
        <time>2020-06-08T20:02:34Z</time>
      </trkpt>
      <trkpt lat="48.41183" lon="-4.77961">
        <ele>31.6</ele>
        <time>2020-06-08T20:02:35Z</time>
      </trkpt>
      <trkpt lat="48.41183" lon="-4.77958">
        <ele>31.6</ele>
        <time>2020-06-08T20:02:36Z</time>
      </trkpt>
      <trkpt lat="48.41183" lon="-4.77956">
        <ele>31.6</ele>
        <time>2020-06-08T20:02:37Z</time>
      </trkpt>
      <trkpt lat="48.41183" lon="-4.77954">
        <ele>31.6</ele>
        <time>2020-06-08T20:02:38Z</time>
      </trkpt>
      <trkpt lat="48.41184" lon="-4.77954">
        <ele>31.6</ele>
        <time>2020-06-08T20:02:39Z</time>
      </trkpt>
      <trkpt lat="48.41186" lon="-4.77956">
        <ele>31.6</ele>
        <time>2020-06-08T20:02:40Z</time>
      </trkpt>
      <trkpt lat="48.41187" lon="-4.77957">
        <ele>31.6</ele>
        <time>2020-06-08T20:02:41Z</time>
      </trkpt>
      <trkpt lat="48.41188" lon="-4.77959">
        <ele>31.6</ele>
        <time>2020-06-08T20:02:42Z</time>
      </trkpt>
      <trkpt lat="48.41188" lon="-4.77962">
        <ele>31.6</ele>
        <time>2020-06-08T20:02:43Z</time>
      </trkpt>
      <trkpt lat="48.41188" lon="-4.77964">
        <ele>31.6</ele>
        <time>2020-06-08T20:02:44Z</time>
      </trkpt>
      <trkpt lat="48.41188" lon="-4.77965">
        <ele>31.6</ele>
        <time>2020-06-08T20:02:45Z</time>
      </trkpt>
      <trkpt lat="48.41188" lon="-4.7797">
        <ele>31.7</ele>
        <time>2020-06-08T20:02:46Z</time>
      </trkpt>
      <trkpt lat="48.41187" lon="-4.77975">
        <ele>31.7</ele>
        <time>2020-06-08T20:02:47Z</time>
      </trkpt>
      <trkpt lat="48.41187" lon="-4.77977">
        <ele>31.7</ele>
        <time>2020-06-08T20:02:48Z</time>
      </trkpt>
      <trkpt lat="48.41187" lon="-4.77983">
        <ele>31.7</ele>
        <time>2020-06-08T20:02:49Z</time>
      </trkpt>
      <trkpt lat="48.41187" lon="-4.77986">
        <ele>31.8</ele>
        <time>2020-06-08T20:02:50Z</time>
      </trkpt>
      <trkpt lat="48.41188" lon="-4.77993">
        <ele>31.8</ele>
        <time>2020-06-08T20:02:51Z</time>
      </trkpt>
      <trkpt lat="48.41188" lon="-4.77998">
        <ele>31.8</ele>
        <time>2020-06-08T20:02:52Z</time>
      </trkpt>
      <trkpt lat="48.41189" lon="-4.78003">
        <ele>31.9</ele>
        <time>2020-06-08T20:02:53Z</time>
      </trkpt>
      <trkpt lat="48.4119" lon="-4.78009">
        <ele>32</ele>
        <time>2020-06-08T20:02:54Z</time>
      </trkpt>
      <trkpt lat="48.4119" lon="-4.78016">
        <ele>32</ele>
        <time>2020-06-08T20:02:55Z</time>
      </trkpt>
      <trkpt lat="48.41191" lon="-4.78024">
        <ele>32.1</ele>
        <time>2020-06-08T20:02:56Z</time>
      </trkpt>
      <trkpt lat="48.41193" lon="-4.78032">
        <ele>32.3</ele>
        <time>2020-06-08T20:02:57Z</time>
      </trkpt>
      <trkpt lat="48.41193" lon="-4.78039">
        <ele>32.4</ele>
        <time>2020-06-08T20:02:58Z</time>
      </trkpt>
      <trkpt lat="48.41194" lon="-4.78046">
        <ele>32.5</ele>
        <time>2020-06-08T20:02:59Z</time>
      </trkpt>
      <trkpt lat="48.41194" lon="-4.78053">
        <ele>32.6</ele>
        <time>2020-06-08T20:03:00Z</time>
      </trkpt>
      <trkpt lat="48.41195" lon="-4.7806">
        <ele>32.8</ele>
        <time>2020-06-08T20:03:01Z</time>
      </trkpt>
      <trkpt lat="48.41195" lon="-4.78069">
        <ele>32.9</ele>
        <time>2020-06-08T20:03:02Z</time>
      </trkpt>
      <trkpt lat="48.41196" lon="-4.78075">
        <ele>33</ele>
        <time>2020-06-08T20:03:03Z</time>
      </trkpt>
      <trkpt lat="48.41197" lon="-4.78081">
        <ele>33.2</ele>
        <time>2020-06-08T20:03:04Z</time>
      </trkpt>
      <trkpt lat="48.41197" lon="-4.78088">
        <ele>33.3</ele>
        <time>2020-06-08T20:03:05Z</time>
      </trkpt>
      <trkpt lat="48.41197" lon="-4.78095">
        <ele>33.4</ele>
        <time>2020-06-08T20:03:06Z</time>
      </trkpt>
      <trkpt lat="48.41198" lon="-4.78103">
        <ele>33.6</ele>
        <time>2020-06-08T20:03:07Z</time>
      </trkpt>
      <trkpt lat="48.41197" lon="-4.7811">
        <ele>33.7</ele>
        <time>2020-06-08T20:03:08Z</time>
      </trkpt>
      <trkpt lat="48.41196" lon="-4.78118">
        <ele>33.9</ele>
        <time>2020-06-08T20:03:09Z</time>
      </trkpt>
      <trkpt lat="48.41194" lon="-4.78126">
        <ele>34</ele>
        <time>2020-06-08T20:03:10Z</time>
      </trkpt>
      <trkpt lat="48.41193" lon="-4.78133">
        <ele>34.2</ele>
        <time>2020-06-08T20:03:11Z</time>
      </trkpt>
      <trkpt lat="48.41192" lon="-4.78143">
        <ele>34.3</ele>
        <time>2020-06-08T20:03:12Z</time>
      </trkpt>
      <trkpt lat="48.4119" lon="-4.78152">
        <ele>34.5</ele>
        <time>2020-06-08T20:03:13Z</time>
      </trkpt>
      <trkpt lat="48.41191" lon="-4.78159">
        <ele>34.7</ele>
        <time>2020-06-08T20:03:14Z</time>
      </trkpt>
      <trkpt lat="48.41189" lon="-4.78167">
        <ele>34.8</ele>
        <time>2020-06-08T20:03:15Z</time>
      </trkpt>
      <trkpt lat="48.41189" lon="-4.78176">
        <ele>35</ele>
        <time>2020-06-08T20:03:16Z</time>
      </trkpt>
      <trkpt lat="48.41189" lon="-4.78185">
        <ele>35.2</ele>
        <time>2020-06-08T20:03:17Z</time>
      </trkpt>
      <trkpt lat="48.41189" lon="-4.78193">
        <ele>35.5</ele>
        <time>2020-06-08T20:03:18Z</time>
      </trkpt>
      <trkpt lat="48.41189" lon="-4.782">
        <ele>35.7</ele>
        <time>2020-06-08T20:03:19Z</time>
      </trkpt>
      <trkpt lat="48.41189" lon="-4.78208">
        <ele>35.9</ele>
        <time>2020-06-08T20:03:20Z</time>
      </trkpt>
      <trkpt lat="48.4119" lon="-4.78217">
        <ele>36.2</ele>
        <time>2020-06-08T20:03:21Z</time>
      </trkpt>
      <trkpt lat="48.41191" lon="-4.78225">
        <ele>36.5</ele>
        <time>2020-06-08T20:03:22Z</time>
      </trkpt>
      <trkpt lat="48.41193" lon="-4.78232">
        <ele>36.7</ele>
        <time>2020-06-08T20:03:23Z</time>
      </trkpt>
      <trkpt lat="48.41195" lon="-4.78239">
        <ele>37</ele>
        <time>2020-06-08T20:03:24Z</time>
      </trkpt>
      <trkpt lat="48.41197" lon="-4.78245">
        <ele>37.3</ele>
        <time>2020-06-08T20:03:25Z</time>
      </trkpt>
      <trkpt lat="48.412" lon="-4.78252">
        <ele>37.5</ele>
        <time>2020-06-08T20:03:26Z</time>
      </trkpt>
      <trkpt lat="48.41203" lon="-4.78257">
        <ele>37.8</ele>
        <time>2020-06-08T20:03:27Z</time>
      </trkpt>
      <trkpt lat="48.41204" lon="-4.78263">
        <ele>38</ele>
        <time>2020-06-08T20:03:28Z</time>
      </trkpt>
      <trkpt lat="48.41205" lon="-4.78269">
        <ele>38.2</ele>
        <time>2020-06-08T20:03:29Z</time>
      </trkpt>
      <trkpt lat="48.41206" lon="-4.78275">
        <ele>38.4</ele>
        <time>2020-06-08T20:03:30Z</time>
      </trkpt>
      <trkpt lat="48.41208" lon="-4.78281">
        <ele>38.6</ele>
        <time>2020-06-08T20:03:31Z</time>
      </trkpt>
      <trkpt lat="48.41208" lon="-4.78284">
        <ele>38.7</ele>
        <time>2020-06-08T20:03:32Z</time>
      </trkpt>
      <trkpt lat="48.41209" lon="-4.78291">
        <ele>38.9</ele>
        <time>2020-06-08T20:03:33Z</time>
      </trkpt>
      <trkpt lat="48.41209" lon="-4.78298">
        <ele>39.1</ele>
        <time>2020-06-08T20:03:34Z</time>
      </trkpt>
      <trkpt lat="48.4121" lon="-4.78304">
        <ele>39.3</ele>
        <time>2020-06-08T20:03:35Z</time>
      </trkpt>
      <trkpt lat="48.4121" lon="-4.78309">
        <ele>39.4</ele>
        <time>2020-06-08T20:03:36Z</time>
      </trkpt>
      <trkpt lat="48.4121" lon="-4.78315">
        <ele>39.6</ele>
        <time>2020-06-08T20:03:37Z</time>
      </trkpt>
      <trkpt lat="48.4121" lon="-4.78321">
        <ele>39.8</ele>
        <time>2020-06-08T20:03:38Z</time>
      </trkpt>
      <trkpt lat="48.41211" lon="-4.78327">
        <ele>40</ele>
        <time>2020-06-08T20:03:39Z</time>
      </trkpt>
      <trkpt lat="48.41211" lon="-4.78334">
        <ele>40.1</ele>
        <time>2020-06-08T20:03:40Z</time>
      </trkpt>
      <trkpt lat="48.41211" lon="-4.7834">
        <ele>40.2</ele>
        <time>2020-06-08T20:03:41Z</time>
      </trkpt>
      <trkpt lat="48.4121" lon="-4.78346">
        <ele>40.3</ele>
        <time>2020-06-08T20:03:42Z</time>
      </trkpt>
      <trkpt lat="48.41209" lon="-4.7835">
        <ele>40.3</ele>
        <time>2020-06-08T20:03:43Z</time>
      </trkpt>
      <trkpt lat="48.4121" lon="-4.78358">
        <ele>40.4</ele>
        <time>2020-06-08T20:03:44Z</time>
      </trkpt>
      <trkpt lat="48.41209" lon="-4.78364">
        <ele>40.5</ele>
        <time>2020-06-08T20:03:45Z</time>
      </trkpt>
      <trkpt lat="48.41209" lon="-4.7837">
        <ele>40.6</ele>
        <time>2020-06-08T20:03:46Z</time>
      </trkpt>
      <trkpt lat="48.4121" lon="-4.78377">
        <ele>40.6</ele>
        <time>2020-06-08T20:03:47Z</time>
      </trkpt>
      <trkpt lat="48.4121" lon="-4.78381">
        <ele>40.7</ele>
        <time>2020-06-08T20:03:48Z</time>
      </trkpt>
      <trkpt lat="48.41211" lon="-4.78387">
        <ele>40.7</ele>
        <time>2020-06-08T20:03:49Z</time>
      </trkpt>
      <trkpt lat="48.41212" lon="-4.78392">
        <ele>40.7</ele>
        <time>2020-06-08T20:03:50Z</time>
      </trkpt>
      <trkpt lat="48.41212" lon="-4.784">
        <ele>40.7</ele>
        <time>2020-06-08T20:03:51Z</time>
      </trkpt>
      <trkpt lat="48.41212" lon="-4.78406">
        <ele>40.7</ele>
        <time>2020-06-08T20:03:52Z</time>
      </trkpt>
      <trkpt lat="48.41211" lon="-4.78413">
        <ele>40.7</ele>
        <time>2020-06-08T20:03:53Z</time>
      </trkpt>
      <trkpt lat="48.41212" lon="-4.78419">
        <ele>40.6</ele>
        <time>2020-06-08T20:03:54Z</time>
      </trkpt>
      <trkpt lat="48.41212" lon="-4.78426">
        <ele>40.6</ele>
        <time>2020-06-08T20:03:55Z</time>
      </trkpt>
      <trkpt lat="48.41211" lon="-4.78431">
        <ele>40.6</ele>
        <time>2020-06-08T20:03:56Z</time>
      </trkpt>
      <trkpt lat="48.41212" lon="-4.78438">
        <ele>40.5</ele>
        <time>2020-06-08T20:03:57Z</time>
      </trkpt>
      <trkpt lat="48.41213" lon="-4.78446">
        <ele>40.5</ele>
        <time>2020-06-08T20:03:58Z</time>
      </trkpt>
      <trkpt lat="48.41212" lon="-4.78456">
        <ele>40.4</ele>
        <time>2020-06-08T20:03:59Z</time>
      </trkpt>
      <trkpt lat="48.41212" lon="-4.78463">
        <ele>40.3</ele>
        <time>2020-06-08T20:04:00Z</time>
      </trkpt>
      <trkpt lat="48.41212" lon="-4.78472">
        <ele>40.2</ele>
        <time>2020-06-08T20:04:01Z</time>
      </trkpt>
      <trkpt lat="48.41212" lon="-4.78481">
        <ele>40.1</ele>
        <time>2020-06-08T20:04:02Z</time>
      </trkpt>
      <trkpt lat="48.41212" lon="-4.78487">
        <ele>40</ele>
        <time>2020-06-08T20:04:03Z</time>
      </trkpt>
      <trkpt lat="48.41213" lon="-4.78497">
        <ele>39.9</ele>
        <time>2020-06-08T20:04:04Z</time>
      </trkpt>
      <trkpt lat="48.41213" lon="-4.78504">
        <ele>39.8</ele>
        <time>2020-06-08T20:04:05Z</time>
      </trkpt>
      <trkpt lat="48.41213" lon="-4.78513">
        <ele>39.7</ele>
        <time>2020-06-08T20:04:06Z</time>
      </trkpt>
      <trkpt lat="48.41213" lon="-4.78524">
        <ele>39.5</ele>
        <time>2020-06-08T20:04:07Z</time>
      </trkpt>
      <trkpt lat="48.41215" lon="-4.78534">
        <ele>39.3</ele>
        <time>2020-06-08T20:04:08Z</time>
      </trkpt>
      <trkpt lat="48.41215" lon="-4.78545">
        <ele>39.2</ele>
        <time>2020-06-08T20:04:09Z</time>
      </trkpt>
      <trkpt lat="48.41216" lon="-4.78554">
        <ele>39</ele>
        <time>2020-06-08T20:04:10Z</time>
      </trkpt>
      <trkpt lat="48.41216" lon="-4.78565">
        <ele>38.8</ele>
        <time>2020-06-08T20:04:11Z</time>
      </trkpt>
      <trkpt lat="48.41217" lon="-4.78573">
        <ele>38.7</ele>
        <time>2020-06-08T20:04:12Z</time>
      </trkpt>
      <trkpt lat="48.41219" lon="-4.78583">
        <ele>38.6</ele>
        <time>2020-06-08T20:04:13Z</time>
      </trkpt>
      <trkpt lat="48.4122" lon="-4.78594">
        <ele>38.4</ele>
        <time>2020-06-08T20:04:14Z</time>
      </trkpt>
      <trkpt lat="48.41221" lon="-4.78605">
        <ele>38.3</ele>
        <time>2020-06-08T20:04:15Z</time>
      </trkpt>
      <trkpt lat="48.41222" lon="-4.78616">
        <ele>38.1</ele>
        <time>2020-06-08T20:04:16Z</time>
      </trkpt>
      <trkpt lat="48.41224" lon="-4.78627">
        <ele>38</ele>
        <time>2020-06-08T20:04:17Z</time>
      </trkpt>
      <trkpt lat="48.41226" lon="-4.78637">
        <ele>37.8</ele>
        <time>2020-06-08T20:04:18Z</time>
      </trkpt>
      <trkpt lat="48.41228" lon="-4.78646">
        <ele>37.7</ele>
        <time>2020-06-08T20:04:19Z</time>
      </trkpt>
      <trkpt lat="48.4123" lon="-4.78657">
        <ele>37.5</ele>
        <time>2020-06-08T20:04:20Z</time>
      </trkpt>
      <trkpt lat="48.41232" lon="-4.78667">
        <ele>37.4</ele>
        <time>2020-06-08T20:04:21Z</time>
      </trkpt>
      <trkpt lat="48.41234" lon="-4.78678">
        <ele>37.2</ele>
        <time>2020-06-08T20:04:22Z</time>
      </trkpt>
      <trkpt lat="48.41236" lon="-4.78688">
        <ele>37.1</ele>
        <time>2020-06-08T20:04:23Z</time>
      </trkpt>
      <trkpt lat="48.41237" lon="-4.78698">
        <ele>36.9</ele>
        <time>2020-06-08T20:04:24Z</time>
      </trkpt>
      <trkpt lat="48.41238" lon="-4.78709">
        <ele>36.7</ele>
        <time>2020-06-08T20:04:25Z</time>
      </trkpt>
      <trkpt lat="48.4124" lon="-4.78719">
        <ele>36.5</ele>
        <time>2020-06-08T20:04:26Z</time>
      </trkpt>
      <trkpt lat="48.41242" lon="-4.78729">
        <ele>36.3</ele>
        <time>2020-06-08T20:04:27Z</time>
      </trkpt>
      <trkpt lat="48.41244" lon="-4.78739">
        <ele>36.1</ele>
        <time>2020-06-08T20:04:28Z</time>
      </trkpt>
      <trkpt lat="48.41246" lon="-4.78749">
        <ele>36</ele>
        <time>2020-06-08T20:04:29Z</time>
      </trkpt>
      <trkpt lat="48.41248" lon="-4.78759">
        <ele>35.8</ele>
        <time>2020-06-08T20:04:30Z</time>
      </trkpt>
      <trkpt lat="48.41249" lon="-4.78769">
        <ele>35.7</ele>
        <time>2020-06-08T20:04:31Z</time>
      </trkpt>
      <trkpt lat="48.41251" lon="-4.78779">
        <ele>35.6</ele>
        <time>2020-06-08T20:04:32Z</time>
      </trkpt>
      <trkpt lat="48.41253" lon="-4.78789">
        <ele>35.5</ele>
        <time>2020-06-08T20:04:33Z</time>
      </trkpt>
      <trkpt lat="48.41255" lon="-4.78798">
        <ele>35.5</ele>
        <time>2020-06-08T20:04:34Z</time>
      </trkpt>
      <trkpt lat="48.41257" lon="-4.78807">
        <ele>35.4</ele>
        <time>2020-06-08T20:04:35Z</time>
      </trkpt>
      <trkpt lat="48.41259" lon="-4.78816">
        <ele>35.4</ele>
        <time>2020-06-08T20:04:36Z</time>
      </trkpt>
      <trkpt lat="48.4126" lon="-4.78825">
        <ele>35.4</ele>
        <time>2020-06-08T20:04:37Z</time>
      </trkpt>
      <trkpt lat="48.41262" lon="-4.78834">
        <ele>35.4</ele>
        <time>2020-06-08T20:04:38Z</time>
      </trkpt>
      <trkpt lat="48.41264" lon="-4.78842">
        <ele>35.4</ele>
        <time>2020-06-08T20:04:39Z</time>
      </trkpt>
      <trkpt lat="48.41265" lon="-4.7885">
        <ele>35.5</ele>
        <time>2020-06-08T20:04:40Z</time>
      </trkpt>
      <trkpt lat="48.41265" lon="-4.78858">
        <ele>35.5</ele>
        <time>2020-06-08T20:04:41Z</time>
      </trkpt>
      <trkpt lat="48.41267" lon="-4.78865">
        <ele>35.6</ele>
        <time>2020-06-08T20:04:42Z</time>
      </trkpt>
      <trkpt lat="48.41269" lon="-4.78871">
        <ele>35.6</ele>
        <time>2020-06-08T20:04:43Z</time>
      </trkpt>
      <trkpt lat="48.41272" lon="-4.78877">
        <ele>35.7</ele>
        <time>2020-06-08T20:04:44Z</time>
      </trkpt>
      <trkpt lat="48.41273" lon="-4.78883">
        <ele>35.7</ele>
        <time>2020-06-08T20:04:45Z</time>
      </trkpt>
      <trkpt lat="48.41277" lon="-4.78887">
        <ele>35.8</ele>
        <time>2020-06-08T20:04:46Z</time>
      </trkpt>
      <trkpt lat="48.41279" lon="-4.78893">
        <ele>35.8</ele>
        <time>2020-06-08T20:04:47Z</time>
      </trkpt>
      <trkpt lat="48.41283" lon="-4.78897">
        <ele>35.8</ele>
        <time>2020-06-08T20:04:48Z</time>
      </trkpt>
      <trkpt lat="48.41288" lon="-4.78898">
        <ele>35.9</ele>
        <time>2020-06-08T20:04:49Z</time>
      </trkpt>
      <trkpt lat="48.41293" lon="-4.78894">
        <ele>35.9</ele>
        <time>2020-06-08T20:04:50Z</time>
      </trkpt>
      <trkpt lat="48.41297" lon="-4.78892">
        <ele>36</ele>
        <time>2020-06-08T20:04:51Z</time>
      </trkpt>
      <trkpt lat="48.41302" lon="-4.78891">
        <ele>36.1</ele>
        <time>2020-06-08T20:04:52Z</time>
      </trkpt>
      <trkpt lat="48.41307" lon="-4.78889">
        <ele>36.3</ele>
        <time>2020-06-08T20:04:53Z</time>
      </trkpt>
      <trkpt lat="48.41311" lon="-4.78887">
        <ele>36.4</ele>
        <time>2020-06-08T20:04:54Z</time>
      </trkpt>
      <trkpt lat="48.41316" lon="-4.78884">
        <ele>36.5</ele>
        <time>2020-06-08T20:04:55Z</time>
      </trkpt>
      <trkpt lat="48.4132" lon="-4.78883">
        <ele>36.7</ele>
        <time>2020-06-08T20:04:56Z</time>
      </trkpt>
      <trkpt lat="48.41324" lon="-4.78881">
        <ele>36.9</ele>
        <time>2020-06-08T20:04:57Z</time>
      </trkpt>
      <trkpt lat="48.41329" lon="-4.78881">
        <ele>37.1</ele>
        <time>2020-06-08T20:04:58Z</time>
      </trkpt>
      <trkpt lat="48.41333" lon="-4.78879">
        <ele>37.4</ele>
        <time>2020-06-08T20:04:59Z</time>
      </trkpt>
      <trkpt lat="48.41338" lon="-4.78877">
        <ele>37.6</ele>
        <time>2020-06-08T20:05:00Z</time>
      </trkpt>
      <trkpt lat="48.41342" lon="-4.78875">
        <ele>37.9</ele>
        <time>2020-06-08T20:05:01Z</time>
      </trkpt>
      <trkpt lat="48.41346" lon="-4.78874">
        <ele>38.2</ele>
        <time>2020-06-08T20:05:02Z</time>
      </trkpt>
      <trkpt lat="48.41349" lon="-4.78873">
        <ele>38.4</ele>
        <time>2020-06-08T20:05:03Z</time>
      </trkpt>
      <trkpt lat="48.41353" lon="-4.78872">
        <ele>38.7</ele>
        <time>2020-06-08T20:05:04Z</time>
      </trkpt>
      <trkpt lat="48.41357" lon="-4.78872">
        <ele>39</ele>
        <time>2020-06-08T20:05:05Z</time>
      </trkpt>
      <trkpt lat="48.41362" lon="-4.78872">
        <ele>39.3</ele>
        <time>2020-06-08T20:05:06Z</time>
      </trkpt>
      <trkpt lat="48.41366" lon="-4.78871">
        <ele>39.6</ele>
        <time>2020-06-08T20:05:07Z</time>
      </trkpt>
      <trkpt lat="48.41369" lon="-4.78869">
        <ele>39.9</ele>
        <time>2020-06-08T20:05:08Z</time>
      </trkpt>
      <trkpt lat="48.41373" lon="-4.78869">
        <ele>40.2</ele>
        <time>2020-06-08T20:05:09Z</time>
      </trkpt>
      <trkpt lat="48.41377" lon="-4.78868">
        <ele>40.5</ele>
        <time>2020-06-08T20:05:10Z</time>
      </trkpt>
      <trkpt lat="48.4138" lon="-4.78867">
        <ele>40.7</ele>
        <time>2020-06-08T20:05:11Z</time>
      </trkpt>
      <trkpt lat="48.41384" lon="-4.78867">
        <ele>41</ele>
        <time>2020-06-08T20:05:12Z</time>
      </trkpt>
      <trkpt lat="48.41388" lon="-4.78866">
        <ele>41.3</ele>
        <time>2020-06-08T20:05:13Z</time>
      </trkpt>
      <trkpt lat="48.41392" lon="-4.78866">
        <ele>41.6</ele>
        <time>2020-06-08T20:05:14Z</time>
      </trkpt>
      <trkpt lat="48.41396" lon="-4.78865">
        <ele>41.9</ele>
        <time>2020-06-08T20:05:15Z</time>
      </trkpt>
      <trkpt lat="48.414" lon="-4.78863">
        <ele>42.2</ele>
        <time>2020-06-08T20:05:16Z</time>
      </trkpt>
      <trkpt lat="48.41403" lon="-4.78861">
        <ele>42.4</ele>
        <time>2020-06-08T20:05:17Z</time>
      </trkpt>
      <trkpt lat="48.41407" lon="-4.78859">
        <ele>42.6</ele>
        <time>2020-06-08T20:05:18Z</time>
      </trkpt>
      <trkpt lat="48.4141" lon="-4.78858">
        <ele>42.8</ele>
        <time>2020-06-08T20:05:19Z</time>
      </trkpt>
      <trkpt lat="48.41414" lon="-4.78856">
        <ele>43.1</ele>
        <time>2020-06-08T20:05:20Z</time>
      </trkpt>
      <trkpt lat="48.41416" lon="-4.78855">
        <ele>43.1</ele>
        <time>2020-06-08T20:05:21Z</time>
      </trkpt>
      <trkpt lat="48.41419" lon="-4.78854">
        <ele>43.3</ele>
        <time>2020-06-08T20:05:22Z</time>
      </trkpt>
      <trkpt lat="48.41422" lon="-4.78853">
        <ele>43.5</ele>
        <time>2020-06-08T20:05:23Z</time>
      </trkpt>
      <trkpt lat="48.41425" lon="-4.78852">
        <ele>43.7</ele>
        <time>2020-06-08T20:05:24Z</time>
      </trkpt>
      <trkpt lat="48.41428" lon="-4.78851">
        <ele>43.8</ele>
        <time>2020-06-08T20:05:25Z</time>
      </trkpt>
      <trkpt lat="48.41432" lon="-4.78851">
        <ele>44.3</ele>
        <time>2020-06-08T20:05:26Z</time>
      </trkpt>
      <trkpt lat="48.41433" lon="-4.78851">
        <ele>44.3</ele>
        <time>2020-06-08T20:05:27Z</time>
      </trkpt>
      <trkpt lat="48.41437" lon="-4.78852">
        <ele>44.3</ele>
        <time>2020-06-08T20:05:28Z</time>
      </trkpt>
      <trkpt lat="48.4144" lon="-4.78854">
        <ele>44.3</ele>
        <time>2020-06-08T20:05:29Z</time>
      </trkpt>
      <trkpt lat="48.41442" lon="-4.78855">
        <ele>44.3</ele>
        <time>2020-06-08T20:05:30Z</time>
      </trkpt>
      <trkpt lat="48.41445" lon="-4.78857">
        <ele>44.3</ele>
        <time>2020-06-08T20:05:31Z</time>
      </trkpt>
      <trkpt lat="48.41447" lon="-4.78858">
        <ele>44.3</ele>
        <time>2020-06-08T20:05:32Z</time>
      </trkpt>
      <trkpt lat="48.41448" lon="-4.78864">
        <ele>43.5</ele>
        <time>2020-06-08T20:05:33Z</time>
      </trkpt>
      <trkpt lat="48.41449" lon="-4.78866">
        <ele>43.3</ele>
        <time>2020-06-08T20:05:34Z</time>
      </trkpt>
      <trkpt lat="48.4145" lon="-4.7887">
        <ele>43</ele>
        <time>2020-06-08T20:05:35Z</time>
      </trkpt>
      <trkpt lat="48.41451" lon="-4.78876">
        <ele>42.7</ele>
        <time>2020-06-08T20:05:36Z</time>
      </trkpt>
      <trkpt lat="48.4145" lon="-4.78885">
        <ele>42</ele>
        <time>2020-06-08T20:05:37Z</time>
      </trkpt>
      <trkpt lat="48.41451" lon="-4.78895">
        <ele>41.4</ele>
        <time>2020-06-08T20:05:38Z</time>
      </trkpt>
      <trkpt lat="48.41452" lon="-4.78906">
        <ele>40.7</ele>
        <time>2020-06-08T20:05:39Z</time>
      </trkpt>
      <trkpt lat="48.41453" lon="-4.78918">
        <ele>39.9</ele>
        <time>2020-06-08T20:05:40Z</time>
      </trkpt>
      <trkpt lat="48.41453" lon="-4.7893">
        <ele>39.1</ele>
        <time>2020-06-08T20:05:41Z</time>
      </trkpt>
      <trkpt lat="48.41454" lon="-4.78944">
        <ele>38.2</ele>
        <time>2020-06-08T20:05:42Z</time>
      </trkpt>
      <trkpt lat="48.41455" lon="-4.78958">
        <ele>37.3</ele>
        <time>2020-06-08T20:05:43Z</time>
      </trkpt>
      <trkpt lat="48.41456" lon="-4.78971">
        <ele>36.5</ele>
        <time>2020-06-08T20:05:44Z</time>
      </trkpt>
      <trkpt lat="48.41458" lon="-4.78987">
        <ele>35.6</ele>
        <time>2020-06-08T20:05:45Z</time>
      </trkpt>
      <trkpt lat="48.41459" lon="-4.79002">
        <ele>34.6</ele>
        <time>2020-06-08T20:05:46Z</time>
      </trkpt>
      <trkpt lat="48.4146" lon="-4.79018">
        <ele>33.6</ele>
        <time>2020-06-08T20:05:47Z</time>
      </trkpt>
      <trkpt lat="48.41462" lon="-4.79033">
        <ele>32.6</ele>
        <time>2020-06-08T20:05:48Z</time>
      </trkpt>
      <trkpt lat="48.41463" lon="-4.79049">
        <ele>31.6</ele>
        <time>2020-06-08T20:05:49Z</time>
      </trkpt>
      <trkpt lat="48.41464" lon="-4.79065">
        <ele>30.9</ele>
        <time>2020-06-08T20:05:50Z</time>
      </trkpt>
      <trkpt lat="48.41465" lon="-4.7908">
        <ele>30.1</ele>
        <time>2020-06-08T20:05:51Z</time>
      </trkpt>
      <trkpt lat="48.41466" lon="-4.79096">
        <ele>29.5</ele>
        <time>2020-06-08T20:05:52Z</time>
      </trkpt>
      <trkpt lat="48.41467" lon="-4.79112">
        <ele>28.9</ele>
        <time>2020-06-08T20:05:53Z</time>
      </trkpt>
      <trkpt lat="48.41468" lon="-4.79128">
        <ele>28.5</ele>
        <time>2020-06-08T20:05:54Z</time>
      </trkpt>
      <trkpt lat="48.41469" lon="-4.79144">
        <ele>28.4</ele>
        <time>2020-06-08T20:05:55Z</time>
      </trkpt>
      <trkpt lat="48.41471" lon="-4.79159">
        <ele>28.4</ele>
        <time>2020-06-08T20:05:56Z</time>
      </trkpt>
      <trkpt lat="48.41472" lon="-4.79174">
        <ele>28.6</ele>
        <time>2020-06-08T20:05:57Z</time>
      </trkpt>
      <trkpt lat="48.41473" lon="-4.79189">
        <ele>28.9</ele>
        <time>2020-06-08T20:05:58Z</time>
      </trkpt>
      <trkpt lat="48.41475" lon="-4.79202">
        <ele>29.2</ele>
        <time>2020-06-08T20:05:59Z</time>
      </trkpt>
      <trkpt lat="48.41477" lon="-4.79214">
        <ele>29.5</ele>
        <time>2020-06-08T20:06:00Z</time>
      </trkpt>
      <trkpt lat="48.41477" lon="-4.79225">
        <ele>29.7</ele>
        <time>2020-06-08T20:06:01Z</time>
      </trkpt>
      <trkpt lat="48.41477" lon="-4.79236">
        <ele>29.9</ele>
        <time>2020-06-08T20:06:02Z</time>
      </trkpt>
      <trkpt lat="48.41477" lon="-4.79245">
        <ele>29.8</ele>
        <time>2020-06-08T20:06:03Z</time>
      </trkpt>
      <trkpt lat="48.41478" lon="-4.79253">
        <ele>30.1</ele>
        <time>2020-06-08T20:06:04Z</time>
      </trkpt>
      <trkpt lat="48.41479" lon="-4.79261">
        <ele>30.3</ele>
        <time>2020-06-08T20:06:05Z</time>
      </trkpt>
      <trkpt lat="48.41479" lon="-4.79267">
        <ele>30.5</ele>
        <time>2020-06-08T20:06:06Z</time>
      </trkpt>
      <trkpt lat="48.4148" lon="-4.79273">
        <ele>30.7</ele>
        <time>2020-06-08T20:06:07Z</time>
      </trkpt>
      <trkpt lat="48.41481" lon="-4.79279">
        <ele>30.8</ele>
        <time>2020-06-08T20:06:08Z</time>
      </trkpt>
      <trkpt lat="48.41482" lon="-4.79284">
        <ele>31</ele>
        <time>2020-06-08T20:06:09Z</time>
      </trkpt>
      <trkpt lat="48.41482" lon="-4.79286">
        <ele>31</ele>
        <time>2020-06-08T20:06:10Z</time>
      </trkpt>
      <trkpt lat="48.41481" lon="-4.79292">
        <ele>31.1</ele>
        <time>2020-06-08T20:06:11Z</time>
      </trkpt>
      <trkpt lat="48.41481" lon="-4.79294">
        <ele>31.2</ele>
        <time>2020-06-08T20:06:12Z</time>
      </trkpt>
      <trkpt lat="48.41482" lon="-4.79299">
        <ele>31.3</ele>
        <time>2020-06-08T20:06:13Z</time>
      </trkpt>
      <trkpt lat="48.41483" lon="-4.793">
        <ele>31.3</ele>
        <time>2020-06-08T20:06:14Z</time>
      </trkpt>
      <trkpt lat="48.41483" lon="-4.79304">
        <ele>31.4</ele>
        <time>2020-06-08T20:06:15Z</time>
      </trkpt>
      <trkpt lat="48.41484" lon="-4.79309">
        <ele>31.5</ele>
        <time>2020-06-08T20:06:16Z</time>
      </trkpt>
      <trkpt lat="48.41484" lon="-4.79313">
        <ele>31.5</ele>
        <time>2020-06-08T20:06:17Z</time>
      </trkpt>
      <trkpt lat="48.41484" lon="-4.79319">
        <ele>31.6</ele>
        <time>2020-06-08T20:06:18Z</time>
      </trkpt>
      <trkpt lat="48.41485" lon="-4.7932">
        <ele>31.6</ele>
        <time>2020-06-08T20:06:19Z</time>
      </trkpt>
      <trkpt lat="48.41486" lon="-4.79326">
        <ele>31.7</ele>
        <time>2020-06-08T20:06:20Z</time>
      </trkpt>
      <trkpt lat="48.41485" lon="-4.79328">
        <ele>31.7</ele>
        <time>2020-06-08T20:06:21Z</time>
      </trkpt>
      <trkpt lat="48.41486" lon="-4.79333">
        <ele>31.8</ele>
        <time>2020-06-08T20:06:22Z</time>
      </trkpt>
      <trkpt lat="48.41486" lon="-4.79334">
        <ele>31.8</ele>
        <time>2020-06-08T20:06:23Z</time>
      </trkpt>
      <trkpt lat="48.41486" lon="-4.79339">
        <ele>31.8</ele>
        <time>2020-06-08T20:06:24Z</time>
      </trkpt>
      <trkpt lat="48.41486" lon="-4.79341">
        <ele>31.8</ele>
        <time>2020-06-08T20:06:25Z</time>
      </trkpt>
      <trkpt lat="48.41486" lon="-4.79346">
        <ele>31.8</ele>
        <time>2020-06-08T20:06:26Z</time>
      </trkpt>
      <trkpt lat="48.41486" lon="-4.79347">
        <ele>31.8</ele>
        <time>2020-06-08T20:06:27Z</time>
      </trkpt>
      <trkpt lat="48.41488" lon="-4.79351">
        <ele>31.7</ele>
        <time>2020-06-08T20:06:28Z</time>
      </trkpt>
      <trkpt lat="48.41489" lon="-4.79352">
        <ele>31.7</ele>
        <time>2020-06-08T20:06:29Z</time>
      </trkpt>
      <trkpt lat="48.41489" lon="-4.79357">
        <ele>31.7</ele>
        <time>2020-06-08T20:06:30Z</time>
      </trkpt>
      <trkpt lat="48.41489" lon="-4.79359">
        <ele>31.6</ele>
        <time>2020-06-08T20:06:31Z</time>
      </trkpt>
      <trkpt lat="48.41489" lon="-4.79363">
        <ele>31.6</ele>
        <time>2020-06-08T20:06:32Z</time>
      </trkpt>
      <trkpt lat="48.41489" lon="-4.79365">
        <ele>31.5</ele>
        <time>2020-06-08T20:06:33Z</time>
      </trkpt>
      <trkpt lat="48.41489" lon="-4.79369">
        <ele>31.4</ele>
        <time>2020-06-08T20:06:34Z</time>
      </trkpt>
      <trkpt lat="48.4149" lon="-4.7937">
        <ele>31.4</ele>
        <time>2020-06-08T20:06:35Z</time>
      </trkpt>
      <trkpt lat="48.41489" lon="-4.79374">
        <ele>31.4</ele>
        <time>2020-06-08T20:06:36Z</time>
      </trkpt>
      <trkpt lat="48.41488" lon="-4.79376">
        <ele>31.4</ele>
        <time>2020-06-08T20:06:37Z</time>
      </trkpt>
      <trkpt lat="48.41487" lon="-4.79378">
        <ele>31.4</ele>
        <time>2020-06-08T20:06:38Z</time>
      </trkpt>
      <trkpt lat="48.41486" lon="-4.79381">
        <ele>31.4</ele>
        <time>2020-06-08T20:06:40Z</time>
      </trkpt>
      <trkpt lat="48.41486" lon="-4.79385">
        <ele>31.4</ele>
        <time>2020-06-08T20:06:41Z</time>
      </trkpt>
      <trkpt lat="48.41486" lon="-4.79387">
        <ele>31.4</ele>
        <time>2020-06-08T20:06:42Z</time>
      </trkpt>
      <trkpt lat="48.41484" lon="-4.79386">
        <ele>31.4</ele>
        <time>2020-06-08T20:06:43Z</time>
      </trkpt>
      <trkpt lat="48.41483" lon="-4.79385">
        <ele>31.4</ele>
        <time>2020-06-08T20:06:44Z</time>
      </trkpt>
      <trkpt lat="48.41482" lon="-4.79384">
        <ele>31.5</ele>
        <time>2020-06-08T20:06:45Z</time>
      </trkpt>
      <trkpt lat="48.41479" lon="-4.79384">
        <ele>31.5</ele>
        <time>2020-06-08T20:06:46Z</time>
      </trkpt>
      <trkpt lat="48.41477" lon="-4.79384">
        <ele>31.5</ele>
        <time>2020-06-08T20:06:47Z</time>
      </trkpt>
      <trkpt lat="48.41475" lon="-4.79387">
        <ele>31.6</ele>
        <time>2020-06-08T20:06:48Z</time>
      </trkpt>
      <trkpt lat="48.41474" lon="-4.79388">
        <ele>31.6</ele>
        <time>2020-06-08T20:06:49Z</time>
      </trkpt>
      <trkpt lat="48.41472" lon="-4.79393">
        <ele>31.7</ele>
        <time>2020-06-08T20:06:50Z</time>
      </trkpt>
      <trkpt lat="48.41471" lon="-4.79395">
        <ele>31.7</ele>
        <time>2020-06-08T20:06:51Z</time>
      </trkpt>
      <trkpt lat="48.4147" lon="-4.79399">
        <ele>31.7</ele>
        <time>2020-06-08T20:06:52Z</time>
      </trkpt>
      <trkpt lat="48.41469" lon="-4.79403">
        <ele>31.8</ele>
        <time>2020-06-08T20:06:53Z</time>
      </trkpt>
      <trkpt lat="48.41467" lon="-4.79407">
        <ele>31.8</ele>
        <time>2020-06-08T20:06:54Z</time>
      </trkpt>
      <trkpt lat="48.41467" lon="-4.79411">
        <ele>31.9</ele>
        <time>2020-06-08T20:06:55Z</time>
      </trkpt>
      <trkpt lat="48.41466" lon="-4.79416">
        <ele>31.9</ele>
        <time>2020-06-08T20:06:56Z</time>
      </trkpt>
      <trkpt lat="48.41464" lon="-4.7942">
        <ele>32</ele>
        <time>2020-06-08T20:06:57Z</time>
      </trkpt>
      <trkpt lat="48.41463" lon="-4.79424">
        <ele>32</ele>
        <time>2020-06-08T20:06:58Z</time>
      </trkpt>
      <trkpt lat="48.41462" lon="-4.79429">
        <ele>32.1</ele>
        <time>2020-06-08T20:06:59Z</time>
      </trkpt>
      <trkpt lat="48.41461" lon="-4.79433">
        <ele>32.1</ele>
        <time>2020-06-08T20:07:00Z</time>
      </trkpt>
      <trkpt lat="48.41461" lon="-4.79437">
        <ele>32.2</ele>
        <time>2020-06-08T20:07:01Z</time>
      </trkpt>
      <trkpt lat="48.41463" lon="-4.79445">
        <ele>32.3</ele>
        <time>2020-06-08T20:07:02Z</time>
      </trkpt>
      <trkpt lat="48.41462" lon="-4.79448">
        <ele>32.3</ele>
        <time>2020-06-08T20:07:03Z</time>
      </trkpt>
      <trkpt lat="48.41462" lon="-4.79453">
        <ele>32.4</ele>
        <time>2020-06-08T20:07:04Z</time>
      </trkpt>
      <trkpt lat="48.41462" lon="-4.79454">
        <ele>32.3</ele>
        <time>2020-06-08T20:07:05Z</time>
      </trkpt>
      <trkpt lat="48.41463" lon="-4.79455">
        <ele>32.1</ele>
        <time>2020-06-08T20:07:06Z</time>
      </trkpt>
      <trkpt lat="48.41465" lon="-4.79456">
        <ele>31.7</ele>
        <time>2020-06-08T20:07:07Z</time>
      </trkpt>
      <trkpt lat="48.41466" lon="-4.79459">
        <ele>31.3</ele>
        <time>2020-06-08T20:07:08Z</time>
      </trkpt>
      <trkpt lat="48.41466" lon="-4.79461">
        <ele>31.1</ele>
        <time>2020-06-08T20:07:09Z</time>
      </trkpt>
      <trkpt lat="48.41467" lon="-4.79462">
        <ele>31</ele>
        <time>2020-06-08T20:07:10Z</time>
      </trkpt>
      <trkpt lat="48.41468" lon="-4.79462">
        <ele>30.9</ele>
        <time>2020-06-08T20:07:11Z</time>
      </trkpt>
      <trkpt lat="48.41467" lon="-4.79461">
        <ele>30.8</ele>
        <time>2020-06-08T20:07:12Z</time>
      </trkpt>
      <trkpt lat="48.41467" lon="-4.79461">
        <ele>30.7</ele>
        <time>2020-06-08T20:07:13Z</time>
      </trkpt>
      <trkpt lat="48.41467" lon="-4.7946">
        <ele>30.7</ele>
        <time>2020-06-08T20:07:14Z</time>
      </trkpt>
      <trkpt lat="48.41467" lon="-4.79461">
        <ele>30.6</ele>
        <time>2020-06-08T20:07:15Z</time>
      </trkpt>
      <trkpt lat="48.41467" lon="-4.79461">
        <ele>30.5</ele>
        <time>2020-06-08T20:07:16Z</time>
      </trkpt>
      <trkpt lat="48.41467" lon="-4.79462">
        <ele>30.5</ele>
        <time>2020-06-08T20:07:17Z</time>
      </trkpt>
      <trkpt lat="48.41467" lon="-4.79462">
        <ele>30.4</ele>
        <time>2020-06-08T20:07:18Z</time>
      </trkpt>
      <trkpt lat="48.41467" lon="-4.79462">
        <ele>30.4</ele>
        <time>2020-06-08T20:07:19Z</time>
      </trkpt>
      <trkpt lat="48.41468" lon="-4.79462">
        <ele>30.4</ele>
        <time>2020-06-08T20:07:20Z</time>
      </trkpt>
      <trkpt lat="48.41467" lon="-4.79462">
        <ele>30.3</ele>
        <time>2020-06-08T20:07:21Z</time>
      </trkpt>
      <trkpt lat="48.41467" lon="-4.79463">
        <ele>30.2</ele>
        <time>2020-06-08T20:07:22Z</time>
      </trkpt>
      <trkpt lat="48.41467" lon="-4.79463">
        <ele>30.2</ele>
        <time>2020-06-08T20:07:23Z</time>
      </trkpt>
      <trkpt lat="48.41467" lon="-4.79463">
        <ele>30.1</ele>
        <time>2020-06-08T20:07:24Z</time>
      </trkpt>
      <trkpt lat="48.41468" lon="-4.79463">
        <ele>30.1</ele>
        <time>2020-06-08T20:07:25Z</time>
      </trkpt>
      <trkpt lat="48.41468" lon="-4.79468">
        <ele>29.5</ele>
        <time>2020-06-08T20:07:50Z</time>
      </trkpt>
      <trkpt lat="48.41469" lon="-4.79469">
        <ele>29.4</ele>
        <time>2020-06-08T20:07:51Z</time>
      </trkpt>
      <trkpt lat="48.41468" lon="-4.79468">
        <ele>29.3</ele>
        <time>2020-06-08T20:07:52Z</time>
      </trkpt>
      <trkpt lat="48.41468" lon="-4.79467">
        <ele>29.2</ele>
        <time>2020-06-08T20:07:53Z</time>
      </trkpt>
      <trkpt lat="48.41468" lon="-4.79467">
        <ele>29.2</ele>
        <time>2020-06-08T20:07:54Z</time>
      </trkpt>
      <trkpt lat="48.41468" lon="-4.79467">
        <ele>29.1</ele>
        <time>2020-06-08T20:07:55Z</time>
      </trkpt>
      <trkpt lat="48.41468" lon="-4.79467">
        <ele>29</ele>
        <time>2020-06-08T20:07:56Z</time>
      </trkpt>
      <trkpt lat="48.41469" lon="-4.79467">
        <ele>28.8</ele>
        <time>2020-06-08T20:07:57Z</time>
      </trkpt>
      <trkpt lat="48.41469" lon="-4.79468">
        <ele>28.8</ele>
        <time>2020-06-08T20:07:58Z</time>
      </trkpt>
      <trkpt lat="48.41469" lon="-4.79467">
        <ele>28.8</ele>
        <time>2020-06-08T20:07:59Z</time>
      </trkpt>
      <trkpt lat="48.41469" lon="-4.79467">
        <ele>28.7</ele>
        <time>2020-06-08T20:08:00Z</time>
      </trkpt>
      <trkpt lat="48.41468" lon="-4.79467">
        <ele>28.6</ele>
        <time>2020-06-08T20:08:01Z</time>
      </trkpt>
    </trkseg>
  </trk>
</gpx>